<?xml version="1.0" encoding="UTF-8"?>
<gpx version="1.1" creator="https://www.youtrack.es" xsi:schemaLocation="http://www.topografix.com/GPX/1/1 http://www.topografix.com/GPX/1/1/gpx.xsd http://www.garmin.com/xmlschemas/GpxExtensions/v3 http://www.garmin.com/xmlschemas/GpxExtensionsv3.xsd http://www.garmin.com/xmlschemas/TrackPointExtension/v1 http://www.garmin.com/xmlschemas/TrackPointExtensionv1.xsd" xmlns:gpxtpx="http://www.garmin.com/xmlschemas/TrackPointExtension/v1" xmlns:gpxx="http://www.garmin.com/xmlschemas/GpxExtensions/v3" xmlns:xsi="http://www.w3.org/2001/XMLSchema-instance">
  <metadata>
    <author>
      <name>JAVIER ROSADO </name>
      <email id="javier.rosado.guillen" domain="gmail.com"/>
    </author>
    <link href="https://www.youtrack.es">
      <text>YouTrack.es</text>
    </link>
    <time>2026-05-10T12:09:05Z</time>
  </metadata>
  <trk>
    <src>https://www.youtrack.es</src>
    <link href="https://www.youtrack.es/ruta/6915-gr113">
      <text>YouTrack.es</text>
    </link>
    <trkseg>
      <trkpt lat="39.6762730" lon="-0.2714680">
        <ele>50.8</ele>
        <time>2019-07-04T15:39:40Z</time>
      </trkpt>
      <trkpt lat="39.6762910" lon="-0.2714200">
        <ele>50.6</ele>
        <time>2019-07-04T15:39:41Z</time>
      </trkpt>
      <trkpt lat="39.6763970" lon="-0.2713530">
        <ele>51.2</ele>
        <time>2019-07-04T15:39:44Z</time>
      </trkpt>
      <trkpt lat="39.6766710" lon="-0.2712930">
        <ele>51.0</ele>
        <time>2019-07-04T15:39:50Z</time>
      </trkpt>
      <trkpt lat="39.6767180" lon="-0.2712680">
        <ele>51.0</ele>
        <time>2019-07-04T15:39:51Z</time>
      </trkpt>
      <trkpt lat="39.6767650" lon="-0.2712380">
        <ele>50.8</ele>
        <time>2019-07-04T15:39:52Z</time>
      </trkpt>
      <trkpt lat="39.6770670" lon="-0.2710860">
        <ele>51.0</ele>
        <time>2019-07-04T15:39:58Z</time>
      </trkpt>
      <trkpt lat="39.6773080" lon="-0.2710260">
        <ele>51.2</ele>
        <time>2019-07-04T15:40:03Z</time>
      </trkpt>
      <trkpt lat="39.6774670" lon="-0.2709510">
        <ele>51.4</ele>
        <time>2019-07-04T15:40:06Z</time>
      </trkpt>
      <trkpt lat="39.6777000" lon="-0.2708570">
        <ele>51.4</ele>
        <time>2019-07-04T15:40:10Z</time>
      </trkpt>
      <trkpt lat="39.6779920" lon="-0.2707200">
        <ele>51.2</ele>
        <time>2019-07-04T15:40:15Z</time>
      </trkpt>
      <trkpt lat="39.6785210" lon="-0.2704450">
        <ele>50.6</ele>
        <time>2019-07-04T15:40:24Z</time>
      </trkpt>
      <trkpt lat="39.6785800" lon="-0.2704220">
        <ele>50.6</ele>
        <time>2019-07-04T15:40:25Z</time>
      </trkpt>
      <trkpt lat="39.6790340" lon="-0.2702220">
        <ele>50.2</ele>
        <time>2019-07-04T15:40:33Z</time>
      </trkpt>
      <trkpt lat="39.6790860" lon="-0.2701940">
        <ele>50.2</ele>
        <time>2019-07-04T15:40:34Z</time>
      </trkpt>
      <trkpt lat="39.6794680" lon="-0.2699640">
        <ele>51.2</ele>
        <time>2019-07-04T15:40:42Z</time>
      </trkpt>
      <trkpt lat="39.6795280" lon="-0.2698780">
        <ele>51.6</ele>
        <time>2019-07-04T15:40:44Z</time>
      </trkpt>
      <trkpt lat="39.6795770" lon="-0.2697800">
        <ele>51.8</ele>
        <time>2019-07-04T15:40:46Z</time>
      </trkpt>
      <trkpt lat="39.6796280" lon="-0.2696660">
        <ele>52.0</ele>
        <time>2019-07-04T15:40:48Z</time>
      </trkpt>
      <trkpt lat="39.6796560" lon="-0.2696150">
        <ele>52.2</ele>
        <time>2019-07-04T15:40:49Z</time>
      </trkpt>
      <trkpt lat="39.6797230" lon="-0.2695430">
        <ele>52.4</ele>
        <time>2019-07-04T15:40:51Z</time>
      </trkpt>
      <trkpt lat="39.6798710" lon="-0.2695480">
        <ele>53.0</ele>
        <time>2019-07-04T15:40:54Z</time>
      </trkpt>
      <trkpt lat="39.6799660" lon="-0.2696240">
        <ele>52.8</ele>
        <time>2019-07-04T15:40:56Z</time>
      </trkpt>
      <trkpt lat="39.6800080" lon="-0.2696590">
        <ele>52.6</ele>
        <time>2019-07-04T15:40:57Z</time>
      </trkpt>
      <trkpt lat="39.6801470" lon="-0.2697150">
        <ele>52.4</ele>
        <time>2019-07-04T15:41:01Z</time>
      </trkpt>
      <trkpt lat="39.6801240" lon="-0.2697430">
        <ele>52.0</ele>
        <time>2019-07-04T15:41:04Z</time>
      </trkpt>
      <trkpt lat="39.6799980" lon="-0.2698560">
        <ele>52.0</ele>
        <time>2019-07-04T15:41:09Z</time>
      </trkpt>
      <trkpt lat="39.6798650" lon="-0.2700330">
        <ele>51.6</ele>
        <time>2019-07-04T15:41:14Z</time>
      </trkpt>
      <trkpt lat="39.6796950" lon="-0.2700600">
        <ele>51.6</ele>
        <time>2019-07-04T15:41:18Z</time>
      </trkpt>
      <trkpt lat="39.6796530" lon="-0.2700550">
        <ele>51.6</ele>
        <time>2019-07-04T15:41:19Z</time>
      </trkpt>
      <trkpt lat="39.6795070" lon="-0.2701010">
        <ele>51.6</ele>
        <time>2019-07-04T15:41:22Z</time>
      </trkpt>
      <trkpt lat="39.6794530" lon="-0.2701310">
        <ele>51.6</ele>
        <time>2019-07-04T15:41:23Z</time>
      </trkpt>
      <trkpt lat="39.6793990" lon="-0.2701580">
        <ele>51.2</ele>
        <time>2019-07-04T15:41:24Z</time>
      </trkpt>
      <trkpt lat="39.6792530" lon="-0.2702500">
        <ele>50.8</ele>
        <time>2019-07-04T15:41:27Z</time>
      </trkpt>
      <trkpt lat="39.6792060" lon="-0.2704510">
        <ele>50.2</ele>
        <time>2019-07-04T15:41:30Z</time>
      </trkpt>
      <trkpt lat="39.6792170" lon="-0.2705310">
        <ele>50.4</ele>
        <time>2019-07-04T15:41:31Z</time>
      </trkpt>
      <trkpt lat="39.6792600" lon="-0.2706870">
        <ele>50.0</ele>
        <time>2019-07-04T15:41:33Z</time>
      </trkpt>
      <trkpt lat="39.6793460" lon="-0.2709060">
        <ele>50.0</ele>
        <time>2019-07-04T15:41:36Z</time>
      </trkpt>
      <trkpt lat="39.6794270" lon="-0.2711130">
        <ele>50.0</ele>
        <time>2019-07-04T15:41:39Z</time>
      </trkpt>
      <trkpt lat="39.6795360" lon="-0.2713710">
        <ele>50.2</ele>
        <time>2019-07-04T15:41:43Z</time>
      </trkpt>
      <trkpt lat="39.6795700" lon="-0.2714330">
        <ele>50.4</ele>
        <time>2019-07-04T15:41:44Z</time>
      </trkpt>
      <trkpt lat="39.6797190" lon="-0.2717560">
        <ele>50.4</ele>
        <time>2019-07-04T15:41:49Z</time>
      </trkpt>
      <trkpt lat="39.6798770" lon="-0.2720520">
        <ele>51.0</ele>
        <time>2019-07-04T15:41:54Z</time>
      </trkpt>
      <trkpt lat="39.6799080" lon="-0.2721090">
        <ele>51.0</ele>
        <time>2019-07-04T15:41:55Z</time>
      </trkpt>
      <trkpt lat="39.6800570" lon="-0.2722750">
        <ele>51.0</ele>
        <time>2019-07-04T15:41:59Z</time>
      </trkpt>
      <trkpt lat="39.6802610" lon="-0.2724720">
        <ele>51.4</ele>
        <time>2019-07-04T15:42:04Z</time>
      </trkpt>
      <trkpt lat="39.6802910" lon="-0.2725260">
        <ele>51.4</ele>
        <time>2019-07-04T15:42:05Z</time>
      </trkpt>
      <trkpt lat="39.6803800" lon="-0.2726770">
        <ele>51.6</ele>
        <time>2019-07-04T15:42:08Z</time>
      </trkpt>
      <trkpt lat="39.6804330" lon="-0.2727870">
        <ele>51.6</ele>
        <time>2019-07-04T15:42:10Z</time>
      </trkpt>
      <trkpt lat="39.6806270" lon="-0.2731710">
        <ele>51.6</ele>
        <time>2019-07-04T15:42:17Z</time>
      </trkpt>
      <trkpt lat="39.6806640" lon="-0.2732840">
        <ele>51.6</ele>
        <time>2019-07-04T15:42:19Z</time>
      </trkpt>
      <trkpt lat="39.6806990" lon="-0.2734760">
        <ele>51.6</ele>
        <time>2019-07-04T15:42:22Z</time>
      </trkpt>
      <trkpt lat="39.6807560" lon="-0.2737420">
        <ele>51.8</ele>
        <time>2019-07-04T15:42:26Z</time>
      </trkpt>
      <trkpt lat="39.6807720" lon="-0.2738090">
        <ele>51.8</ele>
        <time>2019-07-04T15:42:27Z</time>
      </trkpt>
      <trkpt lat="39.6807880" lon="-0.2738740">
        <ele>52.0</ele>
        <time>2019-07-04T15:42:28Z</time>
      </trkpt>
      <trkpt lat="39.6808900" lon="-0.2742650">
        <ele>52.2</ele>
        <time>2019-07-04T15:42:34Z</time>
      </trkpt>
      <trkpt lat="39.6809090" lon="-0.2743300">
        <ele>52.2</ele>
        <time>2019-07-04T15:42:35Z</time>
      </trkpt>
      <trkpt lat="39.6809470" lon="-0.2744610">
        <ele>52.4</ele>
        <time>2019-07-04T15:42:37Z</time>
      </trkpt>
      <trkpt lat="39.6809850" lon="-0.2746560">
        <ele>52.4</ele>
        <time>2019-07-04T15:42:40Z</time>
      </trkpt>
      <trkpt lat="39.6809880" lon="-0.2747290">
        <ele>52.4</ele>
        <time>2019-07-04T15:42:41Z</time>
      </trkpt>
      <trkpt lat="39.6809880" lon="-0.2748780">
        <ele>52.6</ele>
        <time>2019-07-04T15:42:43Z</time>
      </trkpt>
      <trkpt lat="39.6810210" lon="-0.2750960">
        <ele>52.4</ele>
        <time>2019-07-04T15:42:46Z</time>
      </trkpt>
      <trkpt lat="39.6811180" lon="-0.2755050">
        <ele>53.0</ele>
        <time>2019-07-04T15:42:52Z</time>
      </trkpt>
      <trkpt lat="39.6811380" lon="-0.2755700">
        <ele>53.0</ele>
        <time>2019-07-04T15:42:53Z</time>
      </trkpt>
      <trkpt lat="39.6812180" lon="-0.2758350">
        <ele>53.6</ele>
        <time>2019-07-04T15:42:57Z</time>
      </trkpt>
      <trkpt lat="39.6812560" lon="-0.2758920">
        <ele>53.8</ele>
        <time>2019-07-04T15:42:58Z</time>
      </trkpt>
      <trkpt lat="39.6813190" lon="-0.2760830">
        <ele>54.0</ele>
        <time>2019-07-04T15:43:01Z</time>
      </trkpt>
      <trkpt lat="39.6813460" lon="-0.2762160">
        <ele>54.2</ele>
        <time>2019-07-04T15:43:03Z</time>
      </trkpt>
      <trkpt lat="39.6813720" lon="-0.2763440">
        <ele>54.4</ele>
        <time>2019-07-04T15:43:05Z</time>
      </trkpt>
      <trkpt lat="39.6813880" lon="-0.2764090">
        <ele>54.6</ele>
        <time>2019-07-04T15:43:06Z</time>
      </trkpt>
      <trkpt lat="39.6814270" lon="-0.2765990">
        <ele>54.6</ele>
        <time>2019-07-04T15:43:09Z</time>
      </trkpt>
      <trkpt lat="39.6814550" lon="-0.2768460">
        <ele>55.0</ele>
        <time>2019-07-04T15:43:13Z</time>
      </trkpt>
      <trkpt lat="39.6814600" lon="-0.2769510">
        <ele>55.0</ele>
        <time>2019-07-04T15:43:15Z</time>
      </trkpt>
      <trkpt lat="39.6814830" lon="-0.2770450">
        <ele>55.2</ele>
        <time>2019-07-04T15:43:17Z</time>
      </trkpt>
      <trkpt lat="39.6814850" lon="-0.2770980">
        <ele>55.4</ele>
        <time>2019-07-04T15:43:18Z</time>
      </trkpt>
      <trkpt lat="39.6815070" lon="-0.2772060">
        <ele>55.4</ele>
        <time>2019-07-04T15:43:20Z</time>
      </trkpt>
      <trkpt lat="39.6815190" lon="-0.2772650">
        <ele>55.6</ele>
        <time>2019-07-04T15:43:21Z</time>
      </trkpt>
      <trkpt lat="39.6815340" lon="-0.2773860">
        <ele>55.4</ele>
        <time>2019-07-04T15:43:23Z</time>
      </trkpt>
      <trkpt lat="39.6815410" lon="-0.2774500">
        <ele>55.2</ele>
        <time>2019-07-04T15:43:24Z</time>
      </trkpt>
      <trkpt lat="39.6815860" lon="-0.2777120">
        <ele>55.4</ele>
        <time>2019-07-04T15:43:28Z</time>
      </trkpt>
      <trkpt lat="39.6816690" lon="-0.2780870">
        <ele>55.4</ele>
        <time>2019-07-04T15:43:34Z</time>
      </trkpt>
      <trkpt lat="39.6816620" lon="-0.2781410">
        <ele>55.4</ele>
        <time>2019-07-04T15:43:35Z</time>
      </trkpt>
      <trkpt lat="39.6815530" lon="-0.2783550">
        <ele>55.4</ele>
        <time>2019-07-04T15:43:39Z</time>
      </trkpt>
      <trkpt lat="39.6815010" lon="-0.2784060">
        <ele>55.4</ele>
        <time>2019-07-04T15:43:42Z</time>
      </trkpt>
      <trkpt lat="39.6814960" lon="-0.2784060">
        <ele>55.4</ele>
        <time>2019-07-04T15:43:43Z</time>
      </trkpt>
      <trkpt lat="39.6815190" lon="-0.2784930">
        <ele>55.4</ele>
        <time>2019-07-04T15:47:10Z</time>
      </trkpt>
      <trkpt lat="39.6815440" lon="-0.2785420">
        <ele>55.4</ele>
        <time>2019-07-04T15:47:12Z</time>
      </trkpt>
      <trkpt lat="39.6816470" lon="-0.2785890">
        <ele>55.4</ele>
        <time>2019-07-04T15:47:16Z</time>
      </trkpt>
      <trkpt lat="39.6816950" lon="-0.2786770">
        <ele>55.4</ele>
        <time>2019-07-04T15:47:19Z</time>
      </trkpt>
      <trkpt lat="39.6817120" lon="-0.2787140">
        <ele>55.2</ele>
        <time>2019-07-04T15:47:20Z</time>
      </trkpt>
      <trkpt lat="39.6817270" lon="-0.2787610">
        <ele>55.2</ele>
        <time>2019-07-04T15:47:21Z</time>
      </trkpt>
      <trkpt lat="39.6817570" lon="-0.2789050">
        <ele>55.2</ele>
        <time>2019-07-04T15:47:24Z</time>
      </trkpt>
      <trkpt lat="39.6817660" lon="-0.2791620">
        <ele>55.6</ele>
        <time>2019-07-04T15:47:28Z</time>
      </trkpt>
      <trkpt lat="39.6817760" lon="-0.2792290">
        <ele>55.6</ele>
        <time>2019-07-04T15:47:29Z</time>
      </trkpt>
      <trkpt lat="39.6817950" lon="-0.2794420">
        <ele>55.8</ele>
        <time>2019-07-04T15:47:32Z</time>
      </trkpt>
      <trkpt lat="39.6818000" lon="-0.2796460">
        <ele>55.8</ele>
        <time>2019-07-04T15:47:35Z</time>
      </trkpt>
      <trkpt lat="39.6817980" lon="-0.2797900">
        <ele>55.8</ele>
        <time>2019-07-04T15:47:37Z</time>
      </trkpt>
      <trkpt lat="39.6818120" lon="-0.2800220">
        <ele>55.8</ele>
        <time>2019-07-04T15:47:40Z</time>
      </trkpt>
      <trkpt lat="39.6818300" lon="-0.2802540">
        <ele>56.0</ele>
        <time>2019-07-04T15:47:43Z</time>
      </trkpt>
      <trkpt lat="39.6818340" lon="-0.2803330">
        <ele>56.2</ele>
        <time>2019-07-04T15:47:44Z</time>
      </trkpt>
      <trkpt lat="39.6818520" lon="-0.2806280">
        <ele>56.4</ele>
        <time>2019-07-04T15:47:48Z</time>
      </trkpt>
      <trkpt lat="39.6818660" lon="-0.2810280">
        <ele>56.4</ele>
        <time>2019-07-04T15:47:53Z</time>
      </trkpt>
      <trkpt lat="39.6818720" lon="-0.2811070">
        <ele>56.4</ele>
        <time>2019-07-04T15:47:54Z</time>
      </trkpt>
      <trkpt lat="39.6818730" lon="-0.2811890">
        <ele>56.4</ele>
        <time>2019-07-04T15:47:55Z</time>
      </trkpt>
      <trkpt lat="39.6818810" lon="-0.2815240">
        <ele>56.4</ele>
        <time>2019-07-04T15:47:59Z</time>
      </trkpt>
      <trkpt lat="39.6819010" lon="-0.2817630">
        <ele>56.6</ele>
        <time>2019-07-04T15:48:02Z</time>
      </trkpt>
      <trkpt lat="39.6819200" lon="-0.2819140">
        <ele>56.6</ele>
        <time>2019-07-04T15:48:04Z</time>
      </trkpt>
      <trkpt lat="39.6819520" lon="-0.2821420">
        <ele>56.4</ele>
        <time>2019-07-04T15:48:07Z</time>
      </trkpt>
      <trkpt lat="39.6819660" lon="-0.2822920">
        <ele>56.4</ele>
        <time>2019-07-04T15:48:09Z</time>
      </trkpt>
      <trkpt lat="39.6819550" lon="-0.2826920">
        <ele>56.2</ele>
        <time>2019-07-04T15:48:14Z</time>
      </trkpt>
      <trkpt lat="39.6819410" lon="-0.2827740">
        <ele>56.2</ele>
        <time>2019-07-04T15:48:15Z</time>
      </trkpt>
      <trkpt lat="39.6818750" lon="-0.2830800">
        <ele>56.2</ele>
        <time>2019-07-04T15:48:19Z</time>
      </trkpt>
      <trkpt lat="39.6818530" lon="-0.2831500">
        <ele>56.0</ele>
        <time>2019-07-04T15:48:20Z</time>
      </trkpt>
      <trkpt lat="39.6818100" lon="-0.2832770">
        <ele>55.8</ele>
        <time>2019-07-04T15:48:22Z</time>
      </trkpt>
      <trkpt lat="39.6817610" lon="-0.2833930">
        <ele>55.8</ele>
        <time>2019-07-04T15:48:24Z</time>
      </trkpt>
      <trkpt lat="39.6816530" lon="-0.2836770">
        <ele>56.0</ele>
        <time>2019-07-04T15:48:29Z</time>
      </trkpt>
      <trkpt lat="39.6816290" lon="-0.2837240">
        <ele>56.0</ele>
        <time>2019-07-04T15:48:30Z</time>
      </trkpt>
      <trkpt lat="39.6815310" lon="-0.2839350">
        <ele>55.8</ele>
        <time>2019-07-04T15:48:34Z</time>
      </trkpt>
      <trkpt lat="39.6815150" lon="-0.2840010">
        <ele>55.8</ele>
        <time>2019-07-04T15:48:35Z</time>
      </trkpt>
      <trkpt lat="39.6815590" lon="-0.2841720">
        <ele>56.0</ele>
        <time>2019-07-04T15:48:38Z</time>
      </trkpt>
      <trkpt lat="39.6816710" lon="-0.2843100">
        <ele>56.0</ele>
        <time>2019-07-04T15:48:41Z</time>
      </trkpt>
      <trkpt lat="39.6817930" lon="-0.2844510">
        <ele>55.8</ele>
        <time>2019-07-04T15:48:44Z</time>
      </trkpt>
      <trkpt lat="39.6819710" lon="-0.2846150">
        <ele>56.0</ele>
        <time>2019-07-04T15:48:48Z</time>
      </trkpt>
      <trkpt lat="39.6820210" lon="-0.2846310">
        <ele>56.0</ele>
        <time>2019-07-04T15:48:49Z</time>
      </trkpt>
      <trkpt lat="39.6821720" lon="-0.2846600">
        <ele>56.0</ele>
        <time>2019-07-04T15:48:52Z</time>
      </trkpt>
      <trkpt lat="39.6822050" lon="-0.2846930">
        <ele>56.0</ele>
        <time>2019-07-04T15:48:53Z</time>
      </trkpt>
      <trkpt lat="39.6821910" lon="-0.2847860">
        <ele>56.2</ele>
        <time>2019-07-04T15:48:55Z</time>
      </trkpt>
      <trkpt lat="39.6820810" lon="-0.2848590">
        <ele>56.2</ele>
        <time>2019-07-04T15:48:58Z</time>
      </trkpt>
      <trkpt lat="39.6820330" lon="-0.2848750">
        <ele>56.4</ele>
        <time>2019-07-04T15:48:59Z</time>
      </trkpt>
      <trkpt lat="39.6819850" lon="-0.2848980">
        <ele>56.4</ele>
        <time>2019-07-04T15:49:00Z</time>
      </trkpt>
      <trkpt lat="39.6818500" lon="-0.2850050">
        <ele>56.2</ele>
        <time>2019-07-04T15:49:03Z</time>
      </trkpt>
      <trkpt lat="39.6816180" lon="-0.2853030">
        <ele>56.2</ele>
        <time>2019-07-04T15:49:09Z</time>
      </trkpt>
      <trkpt lat="39.6813570" lon="-0.2856490">
        <ele>57.0</ele>
        <time>2019-07-04T15:49:16Z</time>
      </trkpt>
      <trkpt lat="39.6811700" lon="-0.2858910">
        <ele>57.0</ele>
        <time>2019-07-04T15:49:21Z</time>
      </trkpt>
      <trkpt lat="39.6810580" lon="-0.2860370">
        <ele>57.4</ele>
        <time>2019-07-04T15:49:24Z</time>
      </trkpt>
      <trkpt lat="39.6809860" lon="-0.2861270">
        <ele>57.8</ele>
        <time>2019-07-04T15:49:26Z</time>
      </trkpt>
      <trkpt lat="39.6808820" lon="-0.2862490">
        <ele>58.0</ele>
        <time>2019-07-04T15:49:29Z</time>
      </trkpt>
      <trkpt lat="39.6808520" lon="-0.2862890">
        <ele>58.0</ele>
        <time>2019-07-04T15:49:30Z</time>
      </trkpt>
      <trkpt lat="39.6807480" lon="-0.2864270">
        <ele>58.4</ele>
        <time>2019-07-04T15:49:34Z</time>
      </trkpt>
      <trkpt lat="39.6807240" lon="-0.2864620">
        <ele>58.6</ele>
        <time>2019-07-04T15:49:35Z</time>
      </trkpt>
      <trkpt lat="39.6806460" lon="-0.2865560">
        <ele>58.8</ele>
        <time>2019-07-04T15:49:39Z</time>
      </trkpt>
      <trkpt lat="39.6806450" lon="-0.2865020">
        <ele>59.0</ele>
        <time>2019-07-04T15:49:42Z</time>
      </trkpt>
      <trkpt lat="39.6806950" lon="-0.2864410">
        <ele>59.2</ele>
        <time>2019-07-04T15:49:44Z</time>
      </trkpt>
      <trkpt lat="39.6807930" lon="-0.2863310">
        <ele>59.0</ele>
        <time>2019-07-04T15:49:47Z</time>
      </trkpt>
      <trkpt lat="39.6810440" lon="-0.2859940">
        <ele>58.0</ele>
        <time>2019-07-04T15:49:54Z</time>
      </trkpt>
      <trkpt lat="39.6811440" lon="-0.2858500">
        <ele>57.8</ele>
        <time>2019-07-04T15:49:57Z</time>
      </trkpt>
      <trkpt lat="39.6812110" lon="-0.2857620">
        <ele>57.6</ele>
        <time>2019-07-04T15:49:59Z</time>
      </trkpt>
      <trkpt lat="39.6812440" lon="-0.2857170">
        <ele>57.6</ele>
        <time>2019-07-04T15:50:00Z</time>
      </trkpt>
      <trkpt lat="39.6814900" lon="-0.2854070">
        <ele>57.6</ele>
        <time>2019-07-04T15:50:07Z</time>
      </trkpt>
      <trkpt lat="39.6816240" lon="-0.2852320">
        <ele>57.2</ele>
        <time>2019-07-04T15:50:11Z</time>
      </trkpt>
      <trkpt lat="39.6817580" lon="-0.2850530">
        <ele>57.0</ele>
        <time>2019-07-04T15:50:15Z</time>
      </trkpt>
      <trkpt lat="39.6819140" lon="-0.2848620">
        <ele>56.6</ele>
        <time>2019-07-04T15:50:19Z</time>
      </trkpt>
      <trkpt lat="39.6819820" lon="-0.2847660">
        <ele>56.4</ele>
        <time>2019-07-04T15:50:21Z</time>
      </trkpt>
      <trkpt lat="39.6820380" lon="-0.2846570">
        <ele>56.4</ele>
        <time>2019-07-04T15:50:23Z</time>
      </trkpt>
      <trkpt lat="39.6821290" lon="-0.2846200">
        <ele>56.6</ele>
        <time>2019-07-04T15:50:25Z</time>
      </trkpt>
      <trkpt lat="39.6822280" lon="-0.2847390">
        <ele>56.6</ele>
        <time>2019-07-04T15:50:28Z</time>
      </trkpt>
      <trkpt lat="39.6822690" lon="-0.2848470">
        <ele>56.8</ele>
        <time>2019-07-04T15:50:30Z</time>
      </trkpt>
      <trkpt lat="39.6823360" lon="-0.2849400">
        <ele>57.2</ele>
        <time>2019-07-04T15:50:32Z</time>
      </trkpt>
      <trkpt lat="39.6824060" lon="-0.2850360">
        <ele>57.4</ele>
        <time>2019-07-04T15:50:34Z</time>
      </trkpt>
      <trkpt lat="39.6824730" lon="-0.2851410">
        <ele>57.4</ele>
        <time>2019-07-04T15:50:36Z</time>
      </trkpt>
      <trkpt lat="39.6825800" lon="-0.2853000">
        <ele>57.6</ele>
        <time>2019-07-04T15:50:39Z</time>
      </trkpt>
      <trkpt lat="39.6826180" lon="-0.2853520">
        <ele>57.8</ele>
        <time>2019-07-04T15:50:40Z</time>
      </trkpt>
      <trkpt lat="39.6828080" lon="-0.2855980">
        <ele>58.2</ele>
        <time>2019-07-04T15:50:45Z</time>
      </trkpt>
      <trkpt lat="39.6829250" lon="-0.2857400">
        <ele>58.2</ele>
        <time>2019-07-04T15:50:48Z</time>
      </trkpt>
      <trkpt lat="39.6830230" lon="-0.2857810">
        <ele>58.4</ele>
        <time>2019-07-04T15:50:50Z</time>
      </trkpt>
      <trkpt lat="39.6831450" lon="-0.2858890">
        <ele>59.0</ele>
        <time>2019-07-04T15:50:53Z</time>
      </trkpt>
      <trkpt lat="39.6831530" lon="-0.2860310">
        <ele>59.0</ele>
        <time>2019-07-04T15:50:55Z</time>
      </trkpt>
      <trkpt lat="39.6831620" lon="-0.2861020">
        <ele>59.0</ele>
        <time>2019-07-04T15:50:56Z</time>
      </trkpt>
      <trkpt lat="39.6832520" lon="-0.2862880">
        <ele>59.0</ele>
        <time>2019-07-04T15:50:59Z</time>
      </trkpt>
      <trkpt lat="39.6832840" lon="-0.2863470">
        <ele>59.0</ele>
        <time>2019-07-04T15:51:00Z</time>
      </trkpt>
      <trkpt lat="39.6834010" lon="-0.2864980">
        <ele>59.4</ele>
        <time>2019-07-04T15:51:03Z</time>
      </trkpt>
      <trkpt lat="39.6835050" lon="-0.2866680">
        <ele>60.2</ele>
        <time>2019-07-04T15:51:06Z</time>
      </trkpt>
      <trkpt lat="39.6836300" lon="-0.2869040">
        <ele>60.4</ele>
        <time>2019-07-04T15:51:10Z</time>
      </trkpt>
      <trkpt lat="39.6838590" lon="-0.2873040">
        <ele>61.2</ele>
        <time>2019-07-04T15:51:17Z</time>
      </trkpt>
      <trkpt lat="39.6838930" lon="-0.2873590">
        <ele>61.4</ele>
        <time>2019-07-04T15:51:18Z</time>
      </trkpt>
      <trkpt lat="39.6839330" lon="-0.2874080">
        <ele>61.4</ele>
        <time>2019-07-04T15:51:19Z</time>
      </trkpt>
      <trkpt lat="39.6840310" lon="-0.2874700">
        <ele>61.8</ele>
        <time>2019-07-04T15:51:21Z</time>
      </trkpt>
      <trkpt lat="39.6841830" lon="-0.2874220">
        <ele>62.0</ele>
        <time>2019-07-04T15:51:24Z</time>
      </trkpt>
      <trkpt lat="39.6843290" lon="-0.2874560">
        <ele>62.0</ele>
        <time>2019-07-04T15:51:27Z</time>
      </trkpt>
      <trkpt lat="39.6844450" lon="-0.2875940">
        <ele>62.0</ele>
        <time>2019-07-04T15:51:30Z</time>
      </trkpt>
      <trkpt lat="39.6846050" lon="-0.2876260">
        <ele>62.4</ele>
        <time>2019-07-04T15:51:33Z</time>
      </trkpt>
      <trkpt lat="39.6846590" lon="-0.2876250">
        <ele>62.6</ele>
        <time>2019-07-04T15:51:34Z</time>
      </trkpt>
      <trkpt lat="39.6849730" lon="-0.2876280">
        <ele>63.6</ele>
        <time>2019-07-04T15:51:40Z</time>
      </trkpt>
      <trkpt lat="39.6851290" lon="-0.2876350">
        <ele>64.2</ele>
        <time>2019-07-04T15:51:43Z</time>
      </trkpt>
      <trkpt lat="39.6853340" lon="-0.2876680">
        <ele>64.8</ele>
        <time>2019-07-04T15:51:47Z</time>
      </trkpt>
      <trkpt lat="39.6854880" lon="-0.2876900">
        <ele>65.0</ele>
        <time>2019-07-04T15:51:50Z</time>
      </trkpt>
      <trkpt lat="39.6855390" lon="-0.2876850">
        <ele>65.2</ele>
        <time>2019-07-04T15:51:51Z</time>
      </trkpt>
      <trkpt lat="39.6856390" lon="-0.2876600">
        <ele>65.8</ele>
        <time>2019-07-04T15:51:53Z</time>
      </trkpt>
      <trkpt lat="39.6857400" lon="-0.2876500">
        <ele>66.0</ele>
        <time>2019-07-04T15:51:55Z</time>
      </trkpt>
      <trkpt lat="39.6857890" lon="-0.2876640">
        <ele>66.2</ele>
        <time>2019-07-04T15:51:56Z</time>
      </trkpt>
      <trkpt lat="39.6859010" lon="-0.2877900">
        <ele>66.2</ele>
        <time>2019-07-04T15:51:59Z</time>
      </trkpt>
      <trkpt lat="39.6859630" lon="-0.2878860">
        <ele>66.4</ele>
        <time>2019-07-04T15:52:01Z</time>
      </trkpt>
      <trkpt lat="39.6860830" lon="-0.2880710">
        <ele>66.6</ele>
        <time>2019-07-04T15:52:05Z</time>
      </trkpt>
      <trkpt lat="39.6861800" lon="-0.2882180">
        <ele>66.8</ele>
        <time>2019-07-04T15:52:08Z</time>
      </trkpt>
      <trkpt lat="39.6863830" lon="-0.2885190">
        <ele>68.0</ele>
        <time>2019-07-04T15:52:14Z</time>
      </trkpt>
      <trkpt lat="39.6864570" lon="-0.2886180">
        <ele>68.2</ele>
        <time>2019-07-04T15:52:16Z</time>
      </trkpt>
      <trkpt lat="39.6865380" lon="-0.2887060">
        <ele>68.2</ele>
        <time>2019-07-04T15:52:18Z</time>
      </trkpt>
      <trkpt lat="39.6866340" lon="-0.2887590">
        <ele>68.4</ele>
        <time>2019-07-04T15:52:20Z</time>
      </trkpt>
      <trkpt lat="39.6867400" lon="-0.2887730">
        <ele>68.8</ele>
        <time>2019-07-04T15:52:22Z</time>
      </trkpt>
      <trkpt lat="39.6869560" lon="-0.2887840">
        <ele>69.0</ele>
        <time>2019-07-04T15:52:26Z</time>
      </trkpt>
      <trkpt lat="39.6870080" lon="-0.2887870">
        <ele>69.4</ele>
        <time>2019-07-04T15:52:27Z</time>
      </trkpt>
      <trkpt lat="39.6872000" lon="-0.2888260">
        <ele>69.8</ele>
        <time>2019-07-04T15:52:31Z</time>
      </trkpt>
      <trkpt lat="39.6872420" lon="-0.2888480">
        <ele>70.0</ele>
        <time>2019-07-04T15:52:32Z</time>
      </trkpt>
      <trkpt lat="39.6873280" lon="-0.2888950">
        <ele>70.4</ele>
        <time>2019-07-04T15:52:34Z</time>
      </trkpt>
      <trkpt lat="39.6875440" lon="-0.2890680">
        <ele>71.2</ele>
        <time>2019-07-04T15:52:39Z</time>
      </trkpt>
      <trkpt lat="39.6877410" lon="-0.2892140">
        <ele>71.0</ele>
        <time>2019-07-04T15:52:43Z</time>
      </trkpt>
      <trkpt lat="39.6877930" lon="-0.2892350">
        <ele>70.6</ele>
        <time>2019-07-04T15:52:44Z</time>
      </trkpt>
      <trkpt lat="39.6879470" lon="-0.2892840">
        <ele>70.2</ele>
        <time>2019-07-04T15:52:47Z</time>
      </trkpt>
      <trkpt lat="39.6881170" lon="-0.2893440">
        <ele>70.2</ele>
        <time>2019-07-04T15:52:50Z</time>
      </trkpt>
      <trkpt lat="39.6882940" lon="-0.2895600">
        <ele>71.4</ele>
        <time>2019-07-04T15:52:56Z</time>
      </trkpt>
      <trkpt lat="39.6882970" lon="-0.2895990">
        <ele>72.0</ele>
        <time>2019-07-04T15:52:57Z</time>
      </trkpt>
      <trkpt lat="39.6883030" lon="-0.2896740">
        <ele>73.2</ele>
        <time>2019-07-04T15:52:59Z</time>
      </trkpt>
      <trkpt lat="39.6883100" lon="-0.2897020">
        <ele>73.8</ele>
        <time>2019-07-04T15:53:00Z</time>
      </trkpt>
      <trkpt lat="39.6883200" lon="-0.2897270">
        <ele>74.2</ele>
        <time>2019-07-04T15:53:01Z</time>
      </trkpt>
      <trkpt lat="39.6883480" lon="-0.2898020">
        <ele>75.4</ele>
        <time>2019-07-04T15:53:04Z</time>
      </trkpt>
      <trkpt lat="39.6883590" lon="-0.2898290">
        <ele>75.6</ele>
        <time>2019-07-04T15:53:05Z</time>
      </trkpt>
      <trkpt lat="39.6883940" lon="-0.2899410">
        <ele>75.8</ele>
        <time>2019-07-04T15:53:08Z</time>
      </trkpt>
      <trkpt lat="39.6884230" lon="-0.2900340">
        <ele>76.2</ele>
        <time>2019-07-04T15:53:10Z</time>
      </trkpt>
      <trkpt lat="39.6885350" lon="-0.2902090">
        <ele>76.4</ele>
        <time>2019-07-04T15:53:14Z</time>
      </trkpt>
      <trkpt lat="39.6886050" lon="-0.2902970">
        <ele>76.4</ele>
        <time>2019-07-04T15:53:16Z</time>
      </trkpt>
      <trkpt lat="39.6887850" lon="-0.2905360">
        <ele>76.8</ele>
        <time>2019-07-04T15:53:21Z</time>
      </trkpt>
      <trkpt lat="39.6888610" lon="-0.2906300">
        <ele>77.0</ele>
        <time>2019-07-04T15:53:23Z</time>
      </trkpt>
      <trkpt lat="39.6890390" lon="-0.2907700">
        <ele>77.6</ele>
        <time>2019-07-04T15:53:27Z</time>
      </trkpt>
      <trkpt lat="39.6890860" lon="-0.2908010">
        <ele>77.6</ele>
        <time>2019-07-04T15:53:28Z</time>
      </trkpt>
      <trkpt lat="39.6891310" lon="-0.2908380">
        <ele>77.6</ele>
        <time>2019-07-04T15:53:29Z</time>
      </trkpt>
      <trkpt lat="39.6892640" lon="-0.2909540">
        <ele>77.8</ele>
        <time>2019-07-04T15:53:32Z</time>
      </trkpt>
      <trkpt lat="39.6893960" lon="-0.2910710">
        <ele>78.2</ele>
        <time>2019-07-04T15:53:35Z</time>
      </trkpt>
      <trkpt lat="39.6896800" lon="-0.2913840">
        <ele>78.6</ele>
        <time>2019-07-04T15:53:42Z</time>
      </trkpt>
      <trkpt lat="39.6897150" lon="-0.2914340">
        <ele>78.6</ele>
        <time>2019-07-04T15:53:43Z</time>
      </trkpt>
      <trkpt lat="39.6898580" lon="-0.2916310">
        <ele>78.8</ele>
        <time>2019-07-04T15:53:47Z</time>
      </trkpt>
      <trkpt lat="39.6900340" lon="-0.2918620">
        <ele>79.6</ele>
        <time>2019-07-04T15:53:52Z</time>
      </trkpt>
      <trkpt lat="39.6900670" lon="-0.2919080">
        <ele>79.8</ele>
        <time>2019-07-04T15:53:53Z</time>
      </trkpt>
      <trkpt lat="39.6900980" lon="-0.2919570">
        <ele>80.0</ele>
        <time>2019-07-04T15:53:54Z</time>
      </trkpt>
      <trkpt lat="39.6902350" lon="-0.2921400">
        <ele>80.8</ele>
        <time>2019-07-04T15:53:58Z</time>
      </trkpt>
      <trkpt lat="39.6903020" lon="-0.2922300">
        <ele>81.0</ele>
        <time>2019-07-04T15:54:00Z</time>
      </trkpt>
      <trkpt lat="39.6904600" lon="-0.2924690">
        <ele>81.6</ele>
        <time>2019-07-04T15:54:05Z</time>
      </trkpt>
      <trkpt lat="39.6905220" lon="-0.2925680">
        <ele>81.8</ele>
        <time>2019-07-04T15:54:07Z</time>
      </trkpt>
      <trkpt lat="39.6905850" lon="-0.2926700">
        <ele>82.4</ele>
        <time>2019-07-04T15:54:09Z</time>
      </trkpt>
      <trkpt lat="39.6906200" lon="-0.2927170">
        <ele>82.4</ele>
        <time>2019-07-04T15:54:10Z</time>
      </trkpt>
      <trkpt lat="39.6906790" lon="-0.2928160">
        <ele>82.6</ele>
        <time>2019-07-04T15:54:12Z</time>
      </trkpt>
      <trkpt lat="39.6907430" lon="-0.2929820">
        <ele>83.0</ele>
        <time>2019-07-04T15:54:15Z</time>
      </trkpt>
      <trkpt lat="39.6907920" lon="-0.2931620">
        <ele>83.4</ele>
        <time>2019-07-04T15:54:18Z</time>
      </trkpt>
      <trkpt lat="39.6908610" lon="-0.2934530">
        <ele>84.4</ele>
        <time>2019-07-04T15:54:23Z</time>
      </trkpt>
      <trkpt lat="39.6908730" lon="-0.2935040">
        <ele>84.6</ele>
        <time>2019-07-04T15:54:24Z</time>
      </trkpt>
      <trkpt lat="39.6909020" lon="-0.2936470">
        <ele>85.6</ele>
        <time>2019-07-04T15:54:27Z</time>
      </trkpt>
      <trkpt lat="39.6909270" lon="-0.2937270">
        <ele>86.2</ele>
        <time>2019-07-04T15:54:29Z</time>
      </trkpt>
      <trkpt lat="39.6909410" lon="-0.2937650">
        <ele>86.8</ele>
        <time>2019-07-04T15:54:30Z</time>
      </trkpt>
      <trkpt lat="39.6909830" lon="-0.2939250">
        <ele>87.6</ele>
        <time>2019-07-04T15:54:34Z</time>
      </trkpt>
      <trkpt lat="39.6909960" lon="-0.2939660">
        <ele>88.0</ele>
        <time>2019-07-04T15:54:35Z</time>
      </trkpt>
      <trkpt lat="39.6910080" lon="-0.2940080">
        <ele>88.4</ele>
        <time>2019-07-04T15:54:36Z</time>
      </trkpt>
      <trkpt lat="39.6910730" lon="-0.2941750">
        <ele>89.2</ele>
        <time>2019-07-04T15:54:40Z</time>
      </trkpt>
      <trkpt lat="39.6911360" lon="-0.2943060">
        <ele>89.8</ele>
        <time>2019-07-04T15:54:43Z</time>
      </trkpt>
      <trkpt lat="39.6912030" lon="-0.2944360">
        <ele>90.8</ele>
        <time>2019-07-04T15:54:46Z</time>
      </trkpt>
      <trkpt lat="39.6913190" lon="-0.2946400">
        <ele>92.0</ele>
        <time>2019-07-04T15:54:51Z</time>
      </trkpt>
      <trkpt lat="39.6914550" lon="-0.2949080">
        <ele>93.0</ele>
        <time>2019-07-04T15:54:57Z</time>
      </trkpt>
      <trkpt lat="39.6915070" lon="-0.2949980">
        <ele>93.4</ele>
        <time>2019-07-04T15:54:59Z</time>
      </trkpt>
      <trkpt lat="39.6915840" lon="-0.2951350">
        <ele>94.0</ele>
        <time>2019-07-04T15:55:02Z</time>
      </trkpt>
      <trkpt lat="39.6917090" lon="-0.2953590">
        <ele>94.6</ele>
        <time>2019-07-04T15:55:07Z</time>
      </trkpt>
      <trkpt lat="39.6917860" lon="-0.2954930">
        <ele>95.0</ele>
        <time>2019-07-04T15:55:10Z</time>
      </trkpt>
      <trkpt lat="39.6919120" lon="-0.2956750">
        <ele>95.6</ele>
        <time>2019-07-04T15:55:14Z</time>
      </trkpt>
      <trkpt lat="39.6921510" lon="-0.2960660">
        <ele>96.0</ele>
        <time>2019-07-04T15:55:21Z</time>
      </trkpt>
      <trkpt lat="39.6923560" lon="-0.2964800">
        <ele>95.4</ele>
        <time>2019-07-04T15:55:27Z</time>
      </trkpt>
      <trkpt lat="39.6924690" lon="-0.2967700">
        <ele>95.4</ele>
        <time>2019-07-04T15:55:31Z</time>
      </trkpt>
      <trkpt lat="39.6925760" lon="-0.2970390">
        <ele>96.2</ele>
        <time>2019-07-04T15:55:35Z</time>
      </trkpt>
      <trkpt lat="39.6926540" lon="-0.2972360">
        <ele>96.6</ele>
        <time>2019-07-04T15:55:38Z</time>
      </trkpt>
      <trkpt lat="39.6927760" lon="-0.2975580">
        <ele>97.2</ele>
        <time>2019-07-04T15:55:43Z</time>
      </trkpt>
      <trkpt lat="39.6928220" lon="-0.2976840">
        <ele>97.4</ele>
        <time>2019-07-04T15:55:45Z</time>
      </trkpt>
      <trkpt lat="39.6929470" lon="-0.2979860">
        <ele>98.4</ele>
        <time>2019-07-04T15:55:50Z</time>
      </trkpt>
      <trkpt lat="39.6930450" lon="-0.2982220">
        <ele>98.8</ele>
        <time>2019-07-04T15:55:54Z</time>
      </trkpt>
      <trkpt lat="39.6931560" lon="-0.2984560">
        <ele>99.4</ele>
        <time>2019-07-04T15:55:58Z</time>
      </trkpt>
      <trkpt lat="39.6932710" lon="-0.2986830">
        <ele>99.6</ele>
        <time>2019-07-04T15:56:02Z</time>
      </trkpt>
      <trkpt lat="39.6934910" lon="-0.2991290">
        <ele>99.8</ele>
        <time>2019-07-04T15:56:09Z</time>
      </trkpt>
      <trkpt lat="39.6936340" lon="-0.2994040">
        <ele>100.6</ele>
        <time>2019-07-04T15:56:14Z</time>
      </trkpt>
      <trkpt lat="39.6936850" lon="-0.2995030">
        <ele>101.2</ele>
        <time>2019-07-04T15:56:16Z</time>
      </trkpt>
      <trkpt lat="39.6937370" lon="-0.2995950">
        <ele>101.8</ele>
        <time>2019-07-04T15:56:18Z</time>
      </trkpt>
      <trkpt lat="39.6938880" lon="-0.2998100">
        <ele>102.8</ele>
        <time>2019-07-04T15:56:23Z</time>
      </trkpt>
      <trkpt lat="39.6939250" lon="-0.2998530">
        <ele>103.0</ele>
        <time>2019-07-04T15:56:24Z</time>
      </trkpt>
      <trkpt lat="39.6942300" lon="-0.3002090">
        <ele>103.4</ele>
        <time>2019-07-04T15:56:32Z</time>
      </trkpt>
      <trkpt lat="39.6944300" lon="-0.3004170">
        <ele>104.0</ele>
        <time>2019-07-04T15:56:37Z</time>
      </trkpt>
      <trkpt lat="39.6944710" lon="-0.3004550">
        <ele>104.0</ele>
        <time>2019-07-04T15:56:38Z</time>
      </trkpt>
      <trkpt lat="39.6946040" lon="-0.3005490">
        <ele>104.4</ele>
        <time>2019-07-04T15:56:41Z</time>
      </trkpt>
      <trkpt lat="39.6946520" lon="-0.3005740">
        <ele>104.6</ele>
        <time>2019-07-04T15:56:42Z</time>
      </trkpt>
      <trkpt lat="39.6948000" lon="-0.3006280">
        <ele>105.0</ele>
        <time>2019-07-04T15:56:45Z</time>
      </trkpt>
      <trkpt lat="39.6948510" lon="-0.3006400">
        <ele>105.0</ele>
        <time>2019-07-04T15:56:46Z</time>
      </trkpt>
      <trkpt lat="39.6949060" lon="-0.3006470">
        <ele>105.2</ele>
        <time>2019-07-04T15:56:47Z</time>
      </trkpt>
      <trkpt lat="39.6953180" lon="-0.3006910">
        <ele>105.4</ele>
        <time>2019-07-04T15:56:54Z</time>
      </trkpt>
      <trkpt lat="39.6957090" lon="-0.3006940">
        <ele>105.0</ele>
        <time>2019-07-04T15:57:00Z</time>
      </trkpt>
      <trkpt lat="39.6961100" lon="-0.3006020">
        <ele>104.6</ele>
        <time>2019-07-04T15:57:06Z</time>
      </trkpt>
      <trkpt lat="39.6961780" lon="-0.3005880">
        <ele>104.4</ele>
        <time>2019-07-04T15:57:07Z</time>
      </trkpt>
      <trkpt lat="39.6963830" lon="-0.3005660">
        <ele>104.0</ele>
        <time>2019-07-04T15:57:10Z</time>
      </trkpt>
      <trkpt lat="39.6965820" lon="-0.3005390">
        <ele>104.0</ele>
        <time>2019-07-04T15:57:13Z</time>
      </trkpt>
      <trkpt lat="39.6966500" lon="-0.3005290">
        <ele>104.0</ele>
        <time>2019-07-04T15:57:14Z</time>
      </trkpt>
      <trkpt lat="39.6970380" lon="-0.3005040">
        <ele>103.8</ele>
        <time>2019-07-04T15:57:20Z</time>
      </trkpt>
      <trkpt lat="39.6972830" lon="-0.3005300">
        <ele>104.4</ele>
        <time>2019-07-04T15:57:24Z</time>
      </trkpt>
      <trkpt lat="39.6973390" lon="-0.3005540">
        <ele>104.4</ele>
        <time>2019-07-04T15:57:25Z</time>
      </trkpt>
      <trkpt lat="39.6974980" lon="-0.3006440">
        <ele>104.4</ele>
        <time>2019-07-04T15:57:28Z</time>
      </trkpt>
      <trkpt lat="39.6976440" lon="-0.3007570">
        <ele>104.4</ele>
        <time>2019-07-04T15:57:31Z</time>
      </trkpt>
      <trkpt lat="39.6977350" lon="-0.3008380">
        <ele>104.4</ele>
        <time>2019-07-04T15:57:33Z</time>
      </trkpt>
      <trkpt lat="39.6978760" lon="-0.3010330">
        <ele>105.0</ele>
        <time>2019-07-04T15:57:37Z</time>
      </trkpt>
      <trkpt lat="39.6979090" lon="-0.3010830">
        <ele>105.2</ele>
        <time>2019-07-04T15:57:38Z</time>
      </trkpt>
      <trkpt lat="39.6980510" lon="-0.3012830">
        <ele>105.6</ele>
        <time>2019-07-04T15:57:42Z</time>
      </trkpt>
      <trkpt lat="39.6980880" lon="-0.3013330">
        <ele>105.6</ele>
        <time>2019-07-04T15:57:43Z</time>
      </trkpt>
      <trkpt lat="39.6981640" lon="-0.3014310">
        <ele>105.6</ele>
        <time>2019-07-04T15:57:45Z</time>
      </trkpt>
      <trkpt lat="39.6983260" lon="-0.3015900">
        <ele>105.4</ele>
        <time>2019-07-04T15:57:49Z</time>
      </trkpt>
      <trkpt lat="39.6986570" lon="-0.3018810">
        <ele>105.4</ele>
        <time>2019-07-04T15:57:56Z</time>
      </trkpt>
      <trkpt lat="39.6990950" lon="-0.3022400">
        <ele>106.0</ele>
        <time>2019-07-04T15:58:05Z</time>
      </trkpt>
      <trkpt lat="39.6992280" lon="-0.3023450">
        <ele>106.4</ele>
        <time>2019-07-04T15:58:08Z</time>
      </trkpt>
      <trkpt lat="39.6992700" lon="-0.3023830">
        <ele>106.6</ele>
        <time>2019-07-04T15:58:09Z</time>
      </trkpt>
      <trkpt lat="39.6993520" lon="-0.3024620">
        <ele>106.8</ele>
        <time>2019-07-04T15:58:11Z</time>
      </trkpt>
      <trkpt lat="39.6995180" lon="-0.3026070">
        <ele>107.4</ele>
        <time>2019-07-04T15:58:15Z</time>
      </trkpt>
      <trkpt lat="39.6996400" lon="-0.3027280">
        <ele>107.8</ele>
        <time>2019-07-04T15:58:18Z</time>
      </trkpt>
      <trkpt lat="39.6997970" lon="-0.3029120">
        <ele>108.2</ele>
        <time>2019-07-04T15:58:22Z</time>
      </trkpt>
      <trkpt lat="39.6998700" lon="-0.3030170">
        <ele>108.4</ele>
        <time>2019-07-04T15:58:24Z</time>
      </trkpt>
      <trkpt lat="39.6999330" lon="-0.3031340">
        <ele>108.6</ele>
        <time>2019-07-04T15:58:26Z</time>
      </trkpt>
      <trkpt lat="39.7000550" lon="-0.3033690">
        <ele>109.0</ele>
        <time>2019-07-04T15:58:30Z</time>
      </trkpt>
      <trkpt lat="39.7000940" lon="-0.3034150">
        <ele>109.6</ele>
        <time>2019-07-04T15:58:31Z</time>
      </trkpt>
      <trkpt lat="39.7001350" lon="-0.3034570">
        <ele>109.8</ele>
        <time>2019-07-04T15:58:32Z</time>
      </trkpt>
      <trkpt lat="39.7003120" lon="-0.3035860">
        <ele>110.6</ele>
        <time>2019-07-04T15:58:36Z</time>
      </trkpt>
      <trkpt lat="39.7004070" lon="-0.3036380">
        <ele>110.8</ele>
        <time>2019-07-04T15:58:38Z</time>
      </trkpt>
      <trkpt lat="39.7006060" lon="-0.3037380">
        <ele>111.8</ele>
        <time>2019-07-04T15:58:42Z</time>
      </trkpt>
      <trkpt lat="39.7007610" lon="-0.3038070">
        <ele>112.2</ele>
        <time>2019-07-04T15:58:45Z</time>
      </trkpt>
      <trkpt lat="39.7012720" lon="-0.3040570">
        <ele>112.6</ele>
        <time>2019-07-04T15:58:55Z</time>
      </trkpt>
      <trkpt lat="39.7015990" lon="-0.3043270">
        <ele>113.0</ele>
        <time>2019-07-04T15:59:02Z</time>
      </trkpt>
      <trkpt lat="39.7018740" lon="-0.3046540">
        <ele>114.2</ele>
        <time>2019-07-04T15:59:09Z</time>
      </trkpt>
      <trkpt lat="39.7019110" lon="-0.3047010">
        <ele>114.4</ele>
        <time>2019-07-04T15:59:10Z</time>
      </trkpt>
      <trkpt lat="39.7021750" lon="-0.3050070">
        <ele>115.2</ele>
        <time>2019-07-04T15:59:17Z</time>
      </trkpt>
      <trkpt lat="39.7022140" lon="-0.3050520">
        <ele>115.4</ele>
        <time>2019-07-04T15:59:18Z</time>
      </trkpt>
      <trkpt lat="39.7024030" lon="-0.3052830">
        <ele>116.4</ele>
        <time>2019-07-04T15:59:23Z</time>
      </trkpt>
      <trkpt lat="39.7025910" lon="-0.3055020">
        <ele>117.0</ele>
        <time>2019-07-04T15:59:28Z</time>
      </trkpt>
      <trkpt lat="39.7027700" lon="-0.3057240">
        <ele>117.6</ele>
        <time>2019-07-04T15:59:33Z</time>
      </trkpt>
      <trkpt lat="39.7028330" lon="-0.3058210">
        <ele>118.0</ele>
        <time>2019-07-04T15:59:35Z</time>
      </trkpt>
      <trkpt lat="39.7028620" lon="-0.3058710">
        <ele>118.2</ele>
        <time>2019-07-04T15:59:36Z</time>
      </trkpt>
      <trkpt lat="39.7028860" lon="-0.3059250">
        <ele>118.6</ele>
        <time>2019-07-04T15:59:37Z</time>
      </trkpt>
      <trkpt lat="39.7029730" lon="-0.3061480">
        <ele>119.2</ele>
        <time>2019-07-04T15:59:41Z</time>
      </trkpt>
      <trkpt lat="39.7030190" lon="-0.3062610">
        <ele>119.6</ele>
        <time>2019-07-04T15:59:43Z</time>
      </trkpt>
      <trkpt lat="39.7031100" lon="-0.3064900">
        <ele>120.2</ele>
        <time>2019-07-04T15:59:47Z</time>
      </trkpt>
      <trkpt lat="39.7031560" lon="-0.3066010">
        <ele>120.6</ele>
        <time>2019-07-04T15:59:49Z</time>
      </trkpt>
      <trkpt lat="39.7031790" lon="-0.3066560">
        <ele>120.8</ele>
        <time>2019-07-04T15:59:50Z</time>
      </trkpt>
      <trkpt lat="39.7032810" lon="-0.3068640">
        <ele>121.6</ele>
        <time>2019-07-04T15:59:54Z</time>
      </trkpt>
      <trkpt lat="39.7033390" lon="-0.3069700">
        <ele>122.0</ele>
        <time>2019-07-04T15:59:56Z</time>
      </trkpt>
      <trkpt lat="39.7034950" lon="-0.3072130">
        <ele>122.8</ele>
        <time>2019-07-04T16:00:01Z</time>
      </trkpt>
      <trkpt lat="39.7035580" lon="-0.3073060">
        <ele>123.2</ele>
        <time>2019-07-04T16:00:03Z</time>
      </trkpt>
      <trkpt lat="39.7036140" lon="-0.3074030">
        <ele>123.6</ele>
        <time>2019-07-04T16:00:05Z</time>
      </trkpt>
      <trkpt lat="39.7036710" lon="-0.3074850">
        <ele>124.0</ele>
        <time>2019-07-04T16:00:07Z</time>
      </trkpt>
      <trkpt lat="39.7037290" lon="-0.3075750">
        <ele>124.6</ele>
        <time>2019-07-04T16:00:09Z</time>
      </trkpt>
      <trkpt lat="39.7038180" lon="-0.3077070">
        <ele>125.2</ele>
        <time>2019-07-04T16:00:12Z</time>
      </trkpt>
      <trkpt lat="39.7038810" lon="-0.3077910">
        <ele>125.4</ele>
        <time>2019-07-04T16:00:14Z</time>
      </trkpt>
      <trkpt lat="39.7039450" lon="-0.3078850">
        <ele>126.0</ele>
        <time>2019-07-04T16:00:16Z</time>
      </trkpt>
      <trkpt lat="39.7040800" lon="-0.3080690">
        <ele>126.4</ele>
        <time>2019-07-04T16:00:20Z</time>
      </trkpt>
      <trkpt lat="39.7041400" lon="-0.3081710">
        <ele>126.8</ele>
        <time>2019-07-04T16:00:22Z</time>
      </trkpt>
      <trkpt lat="39.7043010" lon="-0.3084490">
        <ele>127.6</ele>
        <time>2019-07-04T16:00:27Z</time>
      </trkpt>
      <trkpt lat="39.7044040" lon="-0.3086320">
        <ele>127.6</ele>
        <time>2019-07-04T16:00:30Z</time>
      </trkpt>
      <trkpt lat="39.7046210" lon="-0.3090060">
        <ele>127.4</ele>
        <time>2019-07-04T16:00:36Z</time>
      </trkpt>
      <trkpt lat="39.7046980" lon="-0.3091300">
        <ele>127.6</ele>
        <time>2019-07-04T16:00:38Z</time>
      </trkpt>
      <trkpt lat="39.7048700" lon="-0.3093650">
        <ele>127.8</ele>
        <time>2019-07-04T16:00:42Z</time>
      </trkpt>
      <trkpt lat="39.7049790" lon="-0.3094460">
        <ele>128.0</ele>
        <time>2019-07-04T16:00:44Z</time>
      </trkpt>
      <trkpt lat="39.7054010" lon="-0.3096600">
        <ele>128.4</ele>
        <time>2019-07-04T16:00:51Z</time>
      </trkpt>
      <trkpt lat="39.7054600" lon="-0.3097010">
        <ele>128.4</ele>
        <time>2019-07-04T16:00:52Z</time>
      </trkpt>
      <trkpt lat="39.7057030" lon="-0.3098710">
        <ele>128.4</ele>
        <time>2019-07-04T16:00:56Z</time>
      </trkpt>
      <trkpt lat="39.7058770" lon="-0.3100220">
        <ele>128.4</ele>
        <time>2019-07-04T16:00:59Z</time>
      </trkpt>
      <trkpt lat="39.7060530" lon="-0.3101830">
        <ele>128.2</ele>
        <time>2019-07-04T16:01:02Z</time>
      </trkpt>
      <trkpt lat="39.7063070" lon="-0.3103740">
        <ele>127.8</ele>
        <time>2019-07-04T16:01:06Z</time>
      </trkpt>
      <trkpt lat="39.7063740" lon="-0.3104160">
        <ele>127.6</ele>
        <time>2019-07-04T16:01:07Z</time>
      </trkpt>
      <trkpt lat="39.7068180" lon="-0.3106040">
        <ele>127.2</ele>
        <time>2019-07-04T16:01:13Z</time>
      </trkpt>
      <trkpt lat="39.7070620" lon="-0.3106730">
        <ele>126.8</ele>
        <time>2019-07-04T16:01:16Z</time>
      </trkpt>
      <trkpt lat="39.7072300" lon="-0.3106850">
        <ele>126.8</ele>
        <time>2019-07-04T16:01:18Z</time>
      </trkpt>
      <trkpt lat="39.7073120" lon="-0.3106920">
        <ele>126.4</ele>
        <time>2019-07-04T16:01:19Z</time>
      </trkpt>
      <trkpt lat="39.7076320" lon="-0.3107830">
        <ele>125.6</ele>
        <time>2019-07-04T16:01:23Z</time>
      </trkpt>
      <trkpt lat="39.7077850" lon="-0.3108530">
        <ele>125.4</ele>
        <time>2019-07-04T16:01:25Z</time>
      </trkpt>
      <trkpt lat="39.7081480" lon="-0.3110560">
        <ele>125.0</ele>
        <time>2019-07-04T16:01:30Z</time>
      </trkpt>
      <trkpt lat="39.7084290" lon="-0.3112030">
        <ele>124.8</ele>
        <time>2019-07-04T16:01:34Z</time>
      </trkpt>
      <trkpt lat="39.7087710" lon="-0.3113680">
        <ele>124.6</ele>
        <time>2019-07-04T16:01:39Z</time>
      </trkpt>
      <trkpt lat="39.7091700" lon="-0.3115450">
        <ele>124.2</ele>
        <time>2019-07-04T16:01:45Z</time>
      </trkpt>
      <trkpt lat="39.7092360" lon="-0.3115760">
        <ele>124.2</ele>
        <time>2019-07-04T16:01:46Z</time>
      </trkpt>
      <trkpt lat="39.7096180" lon="-0.3117970">
        <ele>124.2</ele>
        <time>2019-07-04T16:01:52Z</time>
      </trkpt>
      <trkpt lat="39.7099630" lon="-0.3118420">
        <ele>124.2</ele>
        <time>2019-07-04T16:01:57Z</time>
      </trkpt>
      <trkpt lat="39.7102820" lon="-0.3118560">
        <ele>124.6</ele>
        <time>2019-07-04T16:02:02Z</time>
      </trkpt>
      <trkpt lat="39.7104010" lon="-0.3118970">
        <ele>124.8</ele>
        <time>2019-07-04T16:02:04Z</time>
      </trkpt>
      <trkpt lat="39.7107670" lon="-0.3121660">
        <ele>124.8</ele>
        <time>2019-07-04T16:02:11Z</time>
      </trkpt>
      <trkpt lat="39.7111890" lon="-0.3125970">
        <ele>125.4</ele>
        <time>2019-07-04T16:02:20Z</time>
      </trkpt>
      <trkpt lat="39.7112810" lon="-0.3127030">
        <ele>125.4</ele>
        <time>2019-07-04T16:02:22Z</time>
      </trkpt>
      <trkpt lat="39.7114570" lon="-0.3129570">
        <ele>125.2</ele>
        <time>2019-07-04T16:02:26Z</time>
      </trkpt>
      <trkpt lat="39.7114890" lon="-0.3130360">
        <ele>125.0</ele>
        <time>2019-07-04T16:02:27Z</time>
      </trkpt>
      <trkpt lat="39.7115420" lon="-0.3132880">
        <ele>124.6</ele>
        <time>2019-07-04T16:02:30Z</time>
      </trkpt>
      <trkpt lat="39.7115540" lon="-0.3133710">
        <ele>124.6</ele>
        <time>2019-07-04T16:02:31Z</time>
      </trkpt>
      <trkpt lat="39.7115690" lon="-0.3134520">
        <ele>124.8</ele>
        <time>2019-07-04T16:02:32Z</time>
      </trkpt>
      <trkpt lat="39.7116500" lon="-0.3136680">
        <ele>125.2</ele>
        <time>2019-07-04T16:02:35Z</time>
      </trkpt>
      <trkpt lat="39.7117210" lon="-0.3137940">
        <ele>125.4</ele>
        <time>2019-07-04T16:02:37Z</time>
      </trkpt>
      <trkpt lat="39.7118560" lon="-0.3139450">
        <ele>125.6</ele>
        <time>2019-07-04T16:02:40Z</time>
      </trkpt>
      <trkpt lat="39.7120920" lon="-0.3141500">
        <ele>125.6</ele>
        <time>2019-07-04T16:02:45Z</time>
      </trkpt>
      <trkpt lat="39.7122280" lon="-0.3142750">
        <ele>125.8</ele>
        <time>2019-07-04T16:02:48Z</time>
      </trkpt>
      <trkpt lat="39.7125700" lon="-0.3145850">
        <ele>126.6</ele>
        <time>2019-07-04T16:02:56Z</time>
      </trkpt>
      <trkpt lat="39.7126600" lon="-0.3146450">
        <ele>127.0</ele>
        <time>2019-07-04T16:02:58Z</time>
      </trkpt>
      <trkpt lat="39.7129130" lon="-0.3148300">
        <ele>127.8</ele>
        <time>2019-07-04T16:03:04Z</time>
      </trkpt>
      <trkpt lat="39.7129940" lon="-0.3148930">
        <ele>128.0</ele>
        <time>2019-07-04T16:03:06Z</time>
      </trkpt>
      <trkpt lat="39.7131980" lon="-0.3150450">
        <ele>128.8</ele>
        <time>2019-07-04T16:03:11Z</time>
      </trkpt>
      <trkpt lat="39.7133160" lon="-0.3151310">
        <ele>129.4</ele>
        <time>2019-07-04T16:03:14Z</time>
      </trkpt>
      <trkpt lat="39.7133950" lon="-0.3151850">
        <ele>129.8</ele>
        <time>2019-07-04T16:03:16Z</time>
      </trkpt>
      <trkpt lat="39.7136350" lon="-0.3153650">
        <ele>130.2</ele>
        <time>2019-07-04T16:03:22Z</time>
      </trkpt>
      <trkpt lat="39.7138040" lon="-0.3154830">
        <ele>130.6</ele>
        <time>2019-07-04T16:03:26Z</time>
      </trkpt>
      <trkpt lat="39.7138520" lon="-0.3154930">
        <ele>130.6</ele>
        <time>2019-07-04T16:03:27Z</time>
      </trkpt>
      <trkpt lat="39.7139910" lon="-0.3154660">
        <ele>131.0</ele>
        <time>2019-07-04T16:03:30Z</time>
      </trkpt>
      <trkpt lat="39.7140340" lon="-0.3154460">
        <ele>131.4</ele>
        <time>2019-07-04T16:03:31Z</time>
      </trkpt>
      <trkpt lat="39.7140760" lon="-0.3154250">
        <ele>131.6</ele>
        <time>2019-07-04T16:03:32Z</time>
      </trkpt>
      <trkpt lat="39.7141590" lon="-0.3153760">
        <ele>132.4</ele>
        <time>2019-07-04T16:03:34Z</time>
      </trkpt>
      <trkpt lat="39.7144570" lon="-0.3152010">
        <ele>133.4</ele>
        <time>2019-07-04T16:03:41Z</time>
      </trkpt>
      <trkpt lat="39.7145020" lon="-0.3151860">
        <ele>133.6</ele>
        <time>2019-07-04T16:03:42Z</time>
      </trkpt>
      <trkpt lat="39.7147150" lon="-0.3151980">
        <ele>134.4</ele>
        <time>2019-07-04T16:03:47Z</time>
      </trkpt>
      <trkpt lat="39.7147530" lon="-0.3152180">
        <ele>134.6</ele>
        <time>2019-07-04T16:03:48Z</time>
      </trkpt>
      <trkpt lat="39.7147910" lon="-0.3152410">
        <ele>135.0</ele>
        <time>2019-07-04T16:03:49Z</time>
      </trkpt>
      <trkpt lat="39.7149830" lon="-0.3153580">
        <ele>135.8</ele>
        <time>2019-07-04T16:03:54Z</time>
      </trkpt>
      <trkpt lat="39.7150190" lon="-0.3153890">
        <ele>136.0</ele>
        <time>2019-07-04T16:03:55Z</time>
      </trkpt>
      <trkpt lat="39.7151200" lon="-0.3154870">
        <ele>136.4</ele>
        <time>2019-07-04T16:03:58Z</time>
      </trkpt>
      <trkpt lat="39.7151780" lon="-0.3155580">
        <ele>137.0</ele>
        <time>2019-07-04T16:04:00Z</time>
      </trkpt>
      <trkpt lat="39.7152060" lon="-0.3155930">
        <ele>137.2</ele>
        <time>2019-07-04T16:04:01Z</time>
      </trkpt>
      <trkpt lat="39.7153110" lon="-0.3157400">
        <ele>138.2</ele>
        <time>2019-07-04T16:04:05Z</time>
      </trkpt>
      <trkpt lat="39.7153820" lon="-0.3159070">
        <ele>139.4</ele>
        <time>2019-07-04T16:04:09Z</time>
      </trkpt>
      <trkpt lat="39.7154630" lon="-0.3160880">
        <ele>140.6</ele>
        <time>2019-07-04T16:04:14Z</time>
      </trkpt>
      <trkpt lat="39.7154940" lon="-0.3161960">
        <ele>141.8</ele>
        <time>2019-07-04T16:04:17Z</time>
      </trkpt>
      <trkpt lat="39.7155560" lon="-0.3163380">
        <ele>143.0</ele>
        <time>2019-07-04T16:04:21Z</time>
      </trkpt>
      <trkpt lat="39.7156050" lon="-0.3164440">
        <ele>143.8</ele>
        <time>2019-07-04T16:04:24Z</time>
      </trkpt>
      <trkpt lat="39.7156190" lon="-0.3164810">
        <ele>144.2</ele>
        <time>2019-07-04T16:04:25Z</time>
      </trkpt>
      <trkpt lat="39.7157030" lon="-0.3166690">
        <ele>145.2</ele>
        <time>2019-07-04T16:04:30Z</time>
      </trkpt>
      <trkpt lat="39.7157410" lon="-0.3167480">
        <ele>145.6</ele>
        <time>2019-07-04T16:04:32Z</time>
      </trkpt>
      <trkpt lat="39.7157980" lon="-0.3168640">
        <ele>146.2</ele>
        <time>2019-07-04T16:04:35Z</time>
      </trkpt>
      <trkpt lat="39.7158790" lon="-0.3170160">
        <ele>147.4</ele>
        <time>2019-07-04T16:04:39Z</time>
      </trkpt>
      <trkpt lat="39.7158990" lon="-0.3170560">
        <ele>147.4</ele>
        <time>2019-07-04T16:04:40Z</time>
      </trkpt>
      <trkpt lat="39.7159430" lon="-0.3172080">
        <ele>148.2</ele>
        <time>2019-07-04T16:04:43Z</time>
      </trkpt>
      <trkpt lat="39.7159530" lon="-0.3172630">
        <ele>148.4</ele>
        <time>2019-07-04T16:04:44Z</time>
      </trkpt>
      <trkpt lat="39.7159780" lon="-0.3173720">
        <ele>148.8</ele>
        <time>2019-07-04T16:04:46Z</time>
      </trkpt>
      <trkpt lat="39.7160550" lon="-0.3177520">
        <ele>149.6</ele>
        <time>2019-07-04T16:04:53Z</time>
      </trkpt>
      <trkpt lat="39.7160900" lon="-0.3178580">
        <ele>150.0</ele>
        <time>2019-07-04T16:04:55Z</time>
      </trkpt>
      <trkpt lat="39.7161340" lon="-0.3179590">
        <ele>150.2</ele>
        <time>2019-07-04T16:04:57Z</time>
      </trkpt>
      <trkpt lat="39.7161880" lon="-0.3180590">
        <ele>150.4</ele>
        <time>2019-07-04T16:04:59Z</time>
      </trkpt>
      <trkpt lat="39.7162170" lon="-0.3181080">
        <ele>150.6</ele>
        <time>2019-07-04T16:05:00Z</time>
      </trkpt>
      <trkpt lat="39.7164010" lon="-0.3183770">
        <ele>151.6</ele>
        <time>2019-07-04T16:05:06Z</time>
      </trkpt>
      <trkpt lat="39.7164330" lon="-0.3184190">
        <ele>151.8</ele>
        <time>2019-07-04T16:05:07Z</time>
      </trkpt>
      <trkpt lat="39.7166790" lon="-0.3186800">
        <ele>152.4</ele>
        <time>2019-07-04T16:05:14Z</time>
      </trkpt>
      <trkpt lat="39.7167500" lon="-0.3187450">
        <ele>152.8</ele>
        <time>2019-07-04T16:05:16Z</time>
      </trkpt>
      <trkpt lat="39.7168900" lon="-0.3188720">
        <ele>154.0</ele>
        <time>2019-07-04T16:05:20Z</time>
      </trkpt>
      <trkpt lat="39.7169620" lon="-0.3189330">
        <ele>154.2</ele>
        <time>2019-07-04T16:05:22Z</time>
      </trkpt>
      <trkpt lat="39.7171350" lon="-0.3190910">
        <ele>155.0</ele>
        <time>2019-07-04T16:05:27Z</time>
      </trkpt>
      <trkpt lat="39.7172440" lon="-0.3191850">
        <ele>155.4</ele>
        <time>2019-07-04T16:05:30Z</time>
      </trkpt>
      <trkpt lat="39.7173410" lon="-0.3192960">
        <ele>155.8</ele>
        <time>2019-07-04T16:05:33Z</time>
      </trkpt>
      <trkpt lat="39.7174010" lon="-0.3193810">
        <ele>156.0</ele>
        <time>2019-07-04T16:05:35Z</time>
      </trkpt>
      <trkpt lat="39.7174610" lon="-0.3194670">
        <ele>156.4</ele>
        <time>2019-07-04T16:05:37Z</time>
      </trkpt>
      <trkpt lat="39.7175470" lon="-0.3196000">
        <ele>157.0</ele>
        <time>2019-07-04T16:05:40Z</time>
      </trkpt>
      <trkpt lat="39.7175730" lon="-0.3196450">
        <ele>157.2</ele>
        <time>2019-07-04T16:05:41Z</time>
      </trkpt>
      <trkpt lat="39.7176550" lon="-0.3197720">
        <ele>157.8</ele>
        <time>2019-07-04T16:05:44Z</time>
      </trkpt>
      <trkpt lat="39.7177090" lon="-0.3198560">
        <ele>158.4</ele>
        <time>2019-07-04T16:05:46Z</time>
      </trkpt>
      <trkpt lat="39.7178540" lon="-0.3201080">
        <ele>159.4</ele>
        <time>2019-07-04T16:05:52Z</time>
      </trkpt>
      <trkpt lat="39.7179760" lon="-0.3203070">
        <ele>160.6</ele>
        <time>2019-07-04T16:05:57Z</time>
      </trkpt>
      <trkpt lat="39.7180320" lon="-0.3203840">
        <ele>161.0</ele>
        <time>2019-07-04T16:05:59Z</time>
      </trkpt>
      <trkpt lat="39.7181630" lon="-0.3205190">
        <ele>161.8</ele>
        <time>2019-07-04T16:06:03Z</time>
      </trkpt>
      <trkpt lat="39.7181990" lon="-0.3205490">
        <ele>162.0</ele>
        <time>2019-07-04T16:06:04Z</time>
      </trkpt>
      <trkpt lat="39.7182730" lon="-0.3206090">
        <ele>162.2</ele>
        <time>2019-07-04T16:06:06Z</time>
      </trkpt>
      <trkpt lat="39.7183460" lon="-0.3206740">
        <ele>162.4</ele>
        <time>2019-07-04T16:06:08Z</time>
      </trkpt>
      <trkpt lat="39.7185110" lon="-0.3207870">
        <ele>162.6</ele>
        <time>2019-07-04T16:06:12Z</time>
      </trkpt>
      <trkpt lat="39.7185550" lon="-0.3208110">
        <ele>162.8</ele>
        <time>2019-07-04T16:06:13Z</time>
      </trkpt>
      <trkpt lat="39.7188000" lon="-0.3208920">
        <ele>163.2</ele>
        <time>2019-07-04T16:06:18Z</time>
      </trkpt>
      <trkpt lat="39.7189560" lon="-0.3209300">
        <ele>163.4</ele>
        <time>2019-07-04T16:06:21Z</time>
      </trkpt>
      <trkpt lat="39.7190590" lon="-0.3209550">
        <ele>163.4</ele>
        <time>2019-07-04T16:06:23Z</time>
      </trkpt>
      <trkpt lat="39.7191550" lon="-0.3209930">
        <ele>163.0</ele>
        <time>2019-07-04T16:06:25Z</time>
      </trkpt>
      <trkpt lat="39.7192560" lon="-0.3210460">
        <ele>162.8</ele>
        <time>2019-07-04T16:06:27Z</time>
      </trkpt>
      <trkpt lat="39.7193560" lon="-0.3211440">
        <ele>162.6</ele>
        <time>2019-07-04T16:06:29Z</time>
      </trkpt>
      <trkpt lat="39.7194930" lon="-0.3213430">
        <ele>161.6</ele>
        <time>2019-07-04T16:06:32Z</time>
      </trkpt>
      <trkpt lat="39.7195870" lon="-0.3214810">
        <ele>161.2</ele>
        <time>2019-07-04T16:06:34Z</time>
      </trkpt>
      <trkpt lat="39.7196840" lon="-0.3216190">
        <ele>160.6</ele>
        <time>2019-07-04T16:06:36Z</time>
      </trkpt>
      <trkpt lat="39.7197690" lon="-0.3217350">
        <ele>160.0</ele>
        <time>2019-07-04T16:06:38Z</time>
      </trkpt>
      <trkpt lat="39.7198360" lon="-0.3218270">
        <ele>159.0</ele>
        <time>2019-07-04T16:06:40Z</time>
      </trkpt>
      <trkpt lat="39.7198510" lon="-0.3219950">
        <ele>158.8</ele>
        <time>2019-07-04T16:06:43Z</time>
      </trkpt>
      <trkpt lat="39.7197480" lon="-0.3221240">
        <ele>158.8</ele>
        <time>2019-07-04T16:06:46Z</time>
      </trkpt>
      <trkpt lat="39.7197130" lon="-0.3221620">
        <ele>159.0</ele>
        <time>2019-07-04T16:06:47Z</time>
      </trkpt>
      <trkpt lat="39.7196720" lon="-0.3223010">
        <ele>159.4</ele>
        <time>2019-07-04T16:06:50Z</time>
      </trkpt>
      <trkpt lat="39.7197770" lon="-0.3225330">
        <ele>159.8</ele>
        <time>2019-07-04T16:06:54Z</time>
      </trkpt>
      <trkpt lat="39.7200270" lon="-0.3229350">
        <ele>158.8</ele>
        <time>2019-07-04T16:07:00Z</time>
      </trkpt>
      <trkpt lat="39.7200680" lon="-0.3230040">
        <ele>158.4</ele>
        <time>2019-07-04T16:07:01Z</time>
      </trkpt>
      <trkpt lat="39.7201560" lon="-0.3231530">
        <ele>157.6</ele>
        <time>2019-07-04T16:07:03Z</time>
      </trkpt>
      <trkpt lat="39.7203000" lon="-0.3233730">
        <ele>156.6</ele>
        <time>2019-07-04T16:07:06Z</time>
      </trkpt>
      <trkpt lat="39.7204320" lon="-0.3236080">
        <ele>155.6</ele>
        <time>2019-07-04T16:07:09Z</time>
      </trkpt>
      <trkpt lat="39.7205050" lon="-0.3237610">
        <ele>154.8</ele>
        <time>2019-07-04T16:07:11Z</time>
      </trkpt>
      <trkpt lat="39.7205490" lon="-0.3238270">
        <ele>154.0</ele>
        <time>2019-07-04T16:07:12Z</time>
      </trkpt>
      <trkpt lat="39.7206710" lon="-0.3239460">
        <ele>152.8</ele>
        <time>2019-07-04T16:07:14Z</time>
      </trkpt>
      <trkpt lat="39.7208180" lon="-0.3240480">
        <ele>151.8</ele>
        <time>2019-07-04T16:07:16Z</time>
      </trkpt>
      <trkpt lat="39.7208940" lon="-0.3240900">
        <ele>151.6</ele>
        <time>2019-07-04T16:07:17Z</time>
      </trkpt>
      <trkpt lat="39.7210450" lon="-0.3241710">
        <ele>151.2</ele>
        <time>2019-07-04T16:07:19Z</time>
      </trkpt>
      <trkpt lat="39.7212650" lon="-0.3243010">
        <ele>150.4</ele>
        <time>2019-07-04T16:07:22Z</time>
      </trkpt>
      <trkpt lat="39.7216190" lon="-0.3244950">
        <ele>149.8</ele>
        <time>2019-07-04T16:07:27Z</time>
      </trkpt>
      <trkpt lat="39.7218740" lon="-0.3246760">
        <ele>149.2</ele>
        <time>2019-07-04T16:07:31Z</time>
      </trkpt>
      <trkpt lat="39.7220030" lon="-0.3247580">
        <ele>148.8</ele>
        <time>2019-07-04T16:07:33Z</time>
      </trkpt>
      <trkpt lat="39.7221900" lon="-0.3248690">
        <ele>148.2</ele>
        <time>2019-07-04T16:07:36Z</time>
      </trkpt>
      <trkpt lat="39.7223720" lon="-0.3249900">
        <ele>147.6</ele>
        <time>2019-07-04T16:07:39Z</time>
      </trkpt>
      <trkpt lat="39.7224320" lon="-0.3250340">
        <ele>147.4</ele>
        <time>2019-07-04T16:07:40Z</time>
      </trkpt>
      <trkpt lat="39.7226830" lon="-0.3251820">
        <ele>146.8</ele>
        <time>2019-07-04T16:07:44Z</time>
      </trkpt>
      <trkpt lat="39.7228130" lon="-0.3252550">
        <ele>146.6</ele>
        <time>2019-07-04T16:07:46Z</time>
      </trkpt>
      <trkpt lat="39.7229600" lon="-0.3253070">
        <ele>145.8</ele>
        <time>2019-07-04T16:07:48Z</time>
      </trkpt>
      <trkpt lat="39.7234180" lon="-0.3255120">
        <ele>144.8</ele>
        <time>2019-07-04T16:07:54Z</time>
      </trkpt>
      <trkpt lat="39.7235680" lon="-0.3256130">
        <ele>143.6</ele>
        <time>2019-07-04T16:07:56Z</time>
      </trkpt>
      <trkpt lat="39.7237850" lon="-0.3257740">
        <ele>142.4</ele>
        <time>2019-07-04T16:07:59Z</time>
      </trkpt>
      <trkpt lat="39.7240040" lon="-0.3259400">
        <ele>141.2</ele>
        <time>2019-07-04T16:08:02Z</time>
      </trkpt>
      <trkpt lat="39.7244030" lon="-0.3262240">
        <ele>139.8</ele>
        <time>2019-07-04T16:08:07Z</time>
      </trkpt>
      <trkpt lat="39.7244890" lon="-0.3262810">
        <ele>139.4</ele>
        <time>2019-07-04T16:08:08Z</time>
      </trkpt>
      <trkpt lat="39.7246570" lon="-0.3263980">
        <ele>138.6</ele>
        <time>2019-07-04T16:08:10Z</time>
      </trkpt>
      <trkpt lat="39.7249020" lon="-0.3265720">
        <ele>137.8</ele>
        <time>2019-07-04T16:08:13Z</time>
      </trkpt>
      <trkpt lat="39.7251290" lon="-0.3267390">
        <ele>137.2</ele>
        <time>2019-07-04T16:08:16Z</time>
      </trkpt>
      <trkpt lat="39.7252030" lon="-0.3267900">
        <ele>137.0</ele>
        <time>2019-07-04T16:08:17Z</time>
      </trkpt>
      <trkpt lat="39.7256940" lon="-0.3271270">
        <ele>136.2</ele>
        <time>2019-07-04T16:08:24Z</time>
      </trkpt>
      <trkpt lat="39.7257600" lon="-0.3271730">
        <ele>136.0</ele>
        <time>2019-07-04T16:08:25Z</time>
      </trkpt>
      <trkpt lat="39.7260210" lon="-0.3273580">
        <ele>135.6</ele>
        <time>2019-07-04T16:08:29Z</time>
      </trkpt>
      <trkpt lat="39.7262160" lon="-0.3274930">
        <ele>135.2</ele>
        <time>2019-07-04T16:08:32Z</time>
      </trkpt>
      <trkpt lat="39.7262800" lon="-0.3275370">
        <ele>135.0</ele>
        <time>2019-07-04T16:08:33Z</time>
      </trkpt>
      <trkpt lat="39.7264710" lon="-0.3276670">
        <ele>135.0</ele>
        <time>2019-07-04T16:08:36Z</time>
      </trkpt>
      <trkpt lat="39.7268980" lon="-0.3279720">
        <ele>134.6</ele>
        <time>2019-07-04T16:08:43Z</time>
      </trkpt>
      <trkpt lat="39.7273260" lon="-0.3282730">
        <ele>134.0</ele>
        <time>2019-07-04T16:08:50Z</time>
      </trkpt>
      <trkpt lat="39.7275160" lon="-0.3284030">
        <ele>133.6</ele>
        <time>2019-07-04T16:08:53Z</time>
      </trkpt>
      <trkpt lat="39.7277120" lon="-0.3285380">
        <ele>133.0</ele>
        <time>2019-07-04T16:08:56Z</time>
      </trkpt>
      <trkpt lat="39.7279810" lon="-0.3287270">
        <ele>132.4</ele>
        <time>2019-07-04T16:09:00Z</time>
      </trkpt>
      <trkpt lat="39.7282490" lon="-0.3289210">
        <ele>132.0</ele>
        <time>2019-07-04T16:09:04Z</time>
      </trkpt>
      <trkpt lat="39.7285250" lon="-0.3290650">
        <ele>131.8</ele>
        <time>2019-07-04T16:09:08Z</time>
      </trkpt>
      <trkpt lat="39.7288110" lon="-0.3291350">
        <ele>131.4</ele>
        <time>2019-07-04T16:09:12Z</time>
      </trkpt>
      <trkpt lat="39.7289540" lon="-0.3291580">
        <ele>131.4</ele>
        <time>2019-07-04T16:09:14Z</time>
      </trkpt>
      <trkpt lat="39.7290960" lon="-0.3291900">
        <ele>131.0</ele>
        <time>2019-07-04T16:09:16Z</time>
      </trkpt>
      <trkpt lat="39.7294090" lon="-0.3292380">
        <ele>130.8</ele>
        <time>2019-07-04T16:09:21Z</time>
      </trkpt>
      <trkpt lat="39.7296790" lon="-0.3292650">
        <ele>131.6</ele>
        <time>2019-07-04T16:09:26Z</time>
      </trkpt>
      <trkpt lat="39.7297330" lon="-0.3292580">
        <ele>131.6</ele>
        <time>2019-07-04T16:09:27Z</time>
      </trkpt>
      <trkpt lat="39.7299580" lon="-0.3292410">
        <ele>131.6</ele>
        <time>2019-07-04T16:09:31Z</time>
      </trkpt>
      <trkpt lat="39.7300660" lon="-0.3292560">
        <ele>131.6</ele>
        <time>2019-07-04T16:09:33Z</time>
      </trkpt>
      <trkpt lat="39.7302180" lon="-0.3292830">
        <ele>132.0</ele>
        <time>2019-07-04T16:09:36Z</time>
      </trkpt>
      <trkpt lat="39.7303640" lon="-0.3293140">
        <ele>132.6</ele>
        <time>2019-07-04T16:09:39Z</time>
      </trkpt>
      <trkpt lat="39.7304590" lon="-0.3293320">
        <ele>128.0</ele>
        <time>2019-07-04T16:09:41Z</time>
      </trkpt>
      <trkpt lat="39.7306620" lon="-0.3293710">
        <ele>133.0</ele>
        <time>2019-07-04T16:09:45Z</time>
      </trkpt>
      <trkpt lat="39.7307650" lon="-0.3293700">
        <ele>133.0</ele>
        <time>2019-07-04T16:09:47Z</time>
      </trkpt>
      <trkpt lat="39.7310300" lon="-0.3293640">
        <ele>133.2</ele>
        <time>2019-07-04T16:09:52Z</time>
      </trkpt>
      <trkpt lat="39.7312390" lon="-0.3293640">
        <ele>133.6</ele>
        <time>2019-07-04T16:09:56Z</time>
      </trkpt>
      <trkpt lat="39.7316730" lon="-0.3293580">
        <ele>133.6</ele>
        <time>2019-07-04T16:10:04Z</time>
      </trkpt>
      <trkpt lat="39.7319890" lon="-0.3293410">
        <ele>133.8</ele>
        <time>2019-07-04T16:10:10Z</time>
      </trkpt>
      <trkpt lat="39.7320220" lon="-0.3293140">
        <ele>133.8</ele>
        <time>2019-07-04T16:10:11Z</time>
      </trkpt>
      <trkpt lat="39.7320260" lon="-0.3291710">
        <ele>133.6</ele>
        <time>2019-07-04T16:10:14Z</time>
      </trkpt>
      <trkpt lat="39.7320080" lon="-0.3291210">
        <ele>133.6</ele>
        <time>2019-07-04T16:10:15Z</time>
      </trkpt>
      <trkpt lat="39.7319600" lon="-0.3289690">
        <ele>134.2</ele>
        <time>2019-07-04T16:10:18Z</time>
      </trkpt>
      <trkpt lat="39.7319190" lon="-0.3287710">
        <ele>134.8</ele>
        <time>2019-07-04T16:10:22Z</time>
      </trkpt>
      <trkpt lat="39.7319470" lon="-0.3286860">
        <ele>135.2</ele>
        <time>2019-07-04T16:10:24Z</time>
      </trkpt>
      <trkpt lat="39.7319770" lon="-0.3286590">
        <ele>135.2</ele>
        <time>2019-07-04T16:10:25Z</time>
      </trkpt>
      <trkpt lat="39.7320130" lon="-0.3286470">
        <ele>135.2</ele>
        <time>2019-07-04T16:10:26Z</time>
      </trkpt>
      <trkpt lat="39.7321360" lon="-0.3286290">
        <ele>135.2</ele>
        <time>2019-07-04T16:10:29Z</time>
      </trkpt>
      <trkpt lat="39.7322670" lon="-0.3286040">
        <ele>135.2</ele>
        <time>2019-07-04T16:10:32Z</time>
      </trkpt>
      <trkpt lat="39.7324190" lon="-0.3285910">
        <ele>135.0</ele>
        <time>2019-07-04T16:10:35Z</time>
      </trkpt>
      <trkpt lat="39.7324980" lon="-0.3285840">
        <ele>134.4</ele>
        <time>2019-07-04T16:10:37Z</time>
      </trkpt>
      <trkpt lat="39.7325610" lon="-0.3285920">
        <ele>133.8</ele>
        <time>2019-07-04T16:10:39Z</time>
      </trkpt>
      <trkpt lat="39.7325960" lon="-0.3286030">
        <ele>133.4</ele>
        <time>2019-07-04T16:10:40Z</time>
      </trkpt>
      <trkpt lat="39.7326760" lon="-0.3286200">
        <ele>133.0</ele>
        <time>2019-07-04T16:10:42Z</time>
      </trkpt>
      <trkpt lat="39.7327470" lon="-0.3286140">
        <ele>133.2</ele>
        <time>2019-07-04T16:10:44Z</time>
      </trkpt>
      <trkpt lat="39.7328010" lon="-0.3285890">
        <ele>133.8</ele>
        <time>2019-07-04T16:10:46Z</time>
      </trkpt>
      <trkpt lat="39.7328480" lon="-0.3285740">
        <ele>134.6</ele>
        <time>2019-07-04T16:10:48Z</time>
      </trkpt>
      <trkpt lat="39.7328690" lon="-0.3285620">
        <ele>135.0</ele>
        <time>2019-07-04T16:10:49Z</time>
      </trkpt>
      <trkpt lat="39.7329080" lon="-0.3285130">
        <ele>135.6</ele>
        <time>2019-07-04T16:10:51Z</time>
      </trkpt>
      <trkpt lat="39.7329460" lon="-0.3284670">
        <ele>135.8</ele>
        <time>2019-07-04T16:10:53Z</time>
      </trkpt>
      <trkpt lat="39.7329670" lon="-0.3284650">
        <ele>136.0</ele>
        <time>2019-07-04T16:10:54Z</time>
      </trkpt>
      <trkpt lat="39.7330290" lon="-0.3285580">
        <ele>135.8</ele>
        <time>2019-07-04T16:10:57Z</time>
      </trkpt>
      <trkpt lat="39.7330310" lon="-0.3288290">
        <ele>134.8</ele>
        <time>2019-07-04T16:11:01Z</time>
      </trkpt>
      <trkpt lat="39.7330110" lon="-0.3289080">
        <ele>134.6</ele>
        <time>2019-07-04T16:11:02Z</time>
      </trkpt>
      <trkpt lat="39.7329400" lon="-0.3290620">
        <ele>134.0</ele>
        <time>2019-07-04T16:11:04Z</time>
      </trkpt>
      <trkpt lat="39.7328940" lon="-0.3291340">
        <ele>133.6</ele>
        <time>2019-07-04T16:11:05Z</time>
      </trkpt>
      <trkpt lat="39.7328470" lon="-0.3292010">
        <ele>133.2</ele>
        <time>2019-07-04T16:11:06Z</time>
      </trkpt>
      <trkpt lat="39.7327590" lon="-0.3293110">
        <ele>132.2</ele>
        <time>2019-07-04T16:11:08Z</time>
      </trkpt>
      <trkpt lat="39.7327260" lon="-0.3293600">
        <ele>131.6</ele>
        <time>2019-07-04T16:11:09Z</time>
      </trkpt>
      <trkpt lat="39.7327030" lon="-0.3294190">
        <ele>131.0</ele>
        <time>2019-07-04T16:11:10Z</time>
      </trkpt>
      <trkpt lat="39.7326920" lon="-0.3295590">
        <ele>129.8</ele>
        <time>2019-07-04T16:11:12Z</time>
      </trkpt>
      <trkpt lat="39.7326880" lon="-0.3297820">
        <ele>128.4</ele>
        <time>2019-07-04T16:11:15Z</time>
      </trkpt>
      <trkpt lat="39.7326820" lon="-0.3298500">
        <ele>128.0</ele>
        <time>2019-07-04T16:11:16Z</time>
      </trkpt>
      <trkpt lat="39.7326750" lon="-0.3299100">
        <ele>127.4</ele>
        <time>2019-07-04T16:11:17Z</time>
      </trkpt>
      <trkpt lat="39.7326700" lon="-0.3299620">
        <ele>126.8</ele>
        <time>2019-07-04T16:11:18Z</time>
      </trkpt>
      <trkpt lat="39.7326700" lon="-0.3300080">
        <ele>126.2</ele>
        <time>2019-07-04T16:11:19Z</time>
      </trkpt>
      <trkpt lat="39.7326990" lon="-0.3300880">
        <ele>125.4</ele>
        <time>2019-07-04T16:11:21Z</time>
      </trkpt>
      <trkpt lat="39.7327330" lon="-0.3301120">
        <ele>125.2</ele>
        <time>2019-07-04T16:11:22Z</time>
      </trkpt>
      <trkpt lat="39.7328410" lon="-0.3301450">
        <ele>124.8</ele>
        <time>2019-07-04T16:11:25Z</time>
      </trkpt>
      <trkpt lat="39.7328640" lon="-0.3301460">
        <ele>124.6</ele>
        <time>2019-07-04T16:11:26Z</time>
      </trkpt>
      <trkpt lat="39.7328810" lon="-0.3301400">
        <ele>124.4</ele>
        <time>2019-07-04T16:11:27Z</time>
      </trkpt>
      <trkpt lat="39.7328940" lon="-0.3301360">
        <ele>124.2</ele>
        <time>2019-07-04T16:11:29Z</time>
      </trkpt>
      <trkpt lat="39.7328940" lon="-0.3301360">
        <ele>124.2</ele>
        <time>2019-07-04T16:11:30Z</time>
      </trkpt>
      <trkpt lat="39.7328930" lon="-0.3301350">
        <ele>124.0</ele>
        <time>2019-07-04T16:11:31Z</time>
      </trkpt>
      <trkpt lat="39.7329320" lon="-0.3301180">
        <ele>124.4</ele>
        <time>2019-07-04T16:14:16Z</time>
      </trkpt>
      <trkpt lat="39.7329540" lon="-0.3301150">
        <ele>124.4</ele>
        <time>2019-07-04T16:14:17Z</time>
      </trkpt>
      <trkpt lat="39.7329800" lon="-0.3301090">
        <ele>124.4</ele>
        <time>2019-07-04T16:14:18Z</time>
      </trkpt>
      <trkpt lat="39.7330420" lon="-0.3300840">
        <ele>124.2</ele>
        <time>2019-07-04T16:14:20Z</time>
      </trkpt>
      <trkpt lat="39.7331480" lon="-0.3300310">
        <ele>123.8</ele>
        <time>2019-07-04T16:14:23Z</time>
      </trkpt>
      <trkpt lat="39.7334470" lon="-0.3299080">
        <ele>123.6</ele>
        <time>2019-07-04T16:14:30Z</time>
      </trkpt>
      <trkpt lat="39.7335380" lon="-0.3298730">
        <ele>123.6</ele>
        <time>2019-07-04T16:14:32Z</time>
      </trkpt>
      <trkpt lat="39.7337610" lon="-0.3297990">
        <ele>124.2</ele>
        <time>2019-07-04T16:14:37Z</time>
      </trkpt>
      <trkpt lat="39.7339600" lon="-0.3297740">
        <ele>124.4</ele>
        <time>2019-07-04T16:14:41Z</time>
      </trkpt>
      <trkpt lat="39.7340620" lon="-0.3297610">
        <ele>124.8</ele>
        <time>2019-07-04T16:14:43Z</time>
      </trkpt>
      <trkpt lat="39.7342520" lon="-0.3297420">
        <ele>125.0</ele>
        <time>2019-07-04T16:14:47Z</time>
      </trkpt>
      <trkpt lat="39.7343380" lon="-0.3297020">
        <ele>124.6</ele>
        <time>2019-07-04T16:14:49Z</time>
      </trkpt>
      <trkpt lat="39.7344220" lon="-0.3296600">
        <ele>124.6</ele>
        <time>2019-07-04T16:14:51Z</time>
      </trkpt>
      <trkpt lat="39.7344600" lon="-0.3296370">
        <ele>124.8</ele>
        <time>2019-07-04T16:14:52Z</time>
      </trkpt>
      <trkpt lat="39.7345660" lon="-0.3295580">
        <ele>125.0</ele>
        <time>2019-07-04T16:14:55Z</time>
      </trkpt>
      <trkpt lat="39.7347720" lon="-0.3294520">
        <ele>125.0</ele>
        <time>2019-07-04T16:15:01Z</time>
      </trkpt>
      <trkpt lat="39.7348930" lon="-0.3294240">
        <ele>125.2</ele>
        <time>2019-07-04T16:15:04Z</time>
      </trkpt>
      <trkpt lat="39.7349810" lon="-0.3294320">
        <ele>125.8</ele>
        <time>2019-07-04T16:15:06Z</time>
      </trkpt>
      <trkpt lat="39.7350270" lon="-0.3294410">
        <ele>125.8</ele>
        <time>2019-07-04T16:15:07Z</time>
      </trkpt>
      <trkpt lat="39.7353930" lon="-0.3295100">
        <ele>126.2</ele>
        <time>2019-07-04T16:15:15Z</time>
      </trkpt>
      <trkpt lat="39.7355450" lon="-0.3295340">
        <ele>126.2</ele>
        <time>2019-07-04T16:15:18Z</time>
      </trkpt>
      <trkpt lat="39.7356960" lon="-0.3295810">
        <ele>126.4</ele>
        <time>2019-07-04T16:15:21Z</time>
      </trkpt>
      <trkpt lat="39.7359790" lon="-0.3296500">
        <ele>125.8</ele>
        <time>2019-07-04T16:15:27Z</time>
      </trkpt>
      <trkpt lat="39.7362350" lon="-0.3297300">
        <ele>126.2</ele>
        <time>2019-07-04T16:15:33Z</time>
      </trkpt>
      <trkpt lat="39.7364540" lon="-0.3298140">
        <ele>125.8</ele>
        <time>2019-07-04T16:15:38Z</time>
      </trkpt>
      <trkpt lat="39.7364930" lon="-0.3298200">
        <ele>125.6</ele>
        <time>2019-07-04T16:15:39Z</time>
      </trkpt>
      <trkpt lat="39.7365790" lon="-0.3298460">
        <ele>125.8</ele>
        <time>2019-07-04T16:15:43Z</time>
      </trkpt>
      <trkpt lat="39.7366010" lon="-0.3298540">
        <ele>125.6</ele>
        <time>2019-07-04T16:15:44Z</time>
      </trkpt>
      <trkpt lat="39.7367440" lon="-0.3298870">
        <ele>126.0</ele>
        <time>2019-07-04T16:15:49Z</time>
      </trkpt>
      <trkpt lat="39.7369820" lon="-0.3299020">
        <ele>127.0</ele>
        <time>2019-07-04T16:15:56Z</time>
      </trkpt>
      <trkpt lat="39.7372190" lon="-0.3299090">
        <ele>127.2</ele>
        <time>2019-07-04T16:16:03Z</time>
      </trkpt>
      <trkpt lat="39.7372920" lon="-0.3299060">
        <ele>127.8</ele>
        <time>2019-07-04T16:16:05Z</time>
      </trkpt>
      <trkpt lat="39.7374540" lon="-0.3299500">
        <ele>128.6</ele>
        <time>2019-07-04T16:16:10Z</time>
      </trkpt>
      <trkpt lat="39.7376650" lon="-0.3300350">
        <ele>129.8</ele>
        <time>2019-07-04T16:16:17Z</time>
      </trkpt>
      <trkpt lat="39.7376980" lon="-0.3300450">
        <ele>130.0</ele>
        <time>2019-07-04T16:16:18Z</time>
      </trkpt>
      <trkpt lat="39.7378900" lon="-0.3300130">
        <ele>130.4</ele>
        <time>2019-07-04T16:16:23Z</time>
      </trkpt>
      <trkpt lat="39.7381500" lon="-0.3299310">
        <ele>130.2</ele>
        <time>2019-07-04T16:16:29Z</time>
      </trkpt>
      <trkpt lat="39.7383460" lon="-0.3298990">
        <ele>130.4</ele>
        <time>2019-07-04T16:16:33Z</time>
      </trkpt>
      <trkpt lat="39.7384400" lon="-0.3299020">
        <ele>130.6</ele>
        <time>2019-07-04T16:16:35Z</time>
      </trkpt>
      <trkpt lat="39.7384870" lon="-0.3299150">
        <ele>130.4</ele>
        <time>2019-07-04T16:16:36Z</time>
      </trkpt>
      <trkpt lat="39.7386270" lon="-0.3299550">
        <ele>130.2</ele>
        <time>2019-07-04T16:16:39Z</time>
      </trkpt>
      <trkpt lat="39.7387390" lon="-0.3300080">
        <ele>130.4</ele>
        <time>2019-07-04T16:16:42Z</time>
      </trkpt>
      <trkpt lat="39.7388190" lon="-0.3300470">
        <ele>130.8</ele>
        <time>2019-07-04T16:16:45Z</time>
      </trkpt>
      <trkpt lat="39.7388740" lon="-0.3300510">
        <ele>131.2</ele>
        <time>2019-07-04T16:16:47Z</time>
      </trkpt>
      <trkpt lat="39.7389950" lon="-0.3300460">
        <ele>131.8</ele>
        <time>2019-07-04T16:16:51Z</time>
      </trkpt>
      <trkpt lat="39.7390240" lon="-0.3300420">
        <ele>132.0</ele>
        <time>2019-07-04T16:16:52Z</time>
      </trkpt>
      <trkpt lat="39.7391120" lon="-0.3300160">
        <ele>132.8</ele>
        <time>2019-07-04T16:16:55Z</time>
      </trkpt>
      <trkpt lat="39.7391410" lon="-0.3300070">
        <ele>133.2</ele>
        <time>2019-07-04T16:16:56Z</time>
      </trkpt>
      <trkpt lat="39.7393820" lon="-0.3299460">
        <ele>133.8</ele>
        <time>2019-07-04T16:17:03Z</time>
      </trkpt>
      <trkpt lat="39.7394570" lon="-0.3299380">
        <ele>134.2</ele>
        <time>2019-07-04T16:17:05Z</time>
      </trkpt>
      <trkpt lat="39.7396020" lon="-0.3299720">
        <ele>134.6</ele>
        <time>2019-07-04T16:17:09Z</time>
      </trkpt>
      <trkpt lat="39.7396770" lon="-0.3300150">
        <ele>134.6</ele>
        <time>2019-07-04T16:17:11Z</time>
      </trkpt>
      <trkpt lat="39.7398220" lon="-0.3300790">
        <ele>134.4</ele>
        <time>2019-07-04T16:17:14Z</time>
      </trkpt>
      <trkpt lat="39.7400300" lon="-0.3301870">
        <ele>134.0</ele>
        <time>2019-07-04T16:17:18Z</time>
      </trkpt>
      <trkpt lat="39.7400710" lon="-0.3302370">
        <ele>133.8</ele>
        <time>2019-07-04T16:17:19Z</time>
      </trkpt>
      <trkpt lat="39.7400950" lon="-0.3304350">
        <ele>133.4</ele>
        <time>2019-07-04T16:17:22Z</time>
      </trkpt>
      <trkpt lat="39.7400900" lon="-0.3305660">
        <ele>133.4</ele>
        <time>2019-07-04T16:17:24Z</time>
      </trkpt>
      <trkpt lat="39.7401370" lon="-0.3306650">
        <ele>133.2</ele>
        <time>2019-07-04T16:17:26Z</time>
      </trkpt>
      <trkpt lat="39.7403080" lon="-0.3307060">
        <ele>133.0</ele>
        <time>2019-07-04T16:17:30Z</time>
      </trkpt>
      <trkpt lat="39.7404040" lon="-0.3307040">
        <ele>133.0</ele>
        <time>2019-07-04T16:17:32Z</time>
      </trkpt>
      <trkpt lat="39.7407060" lon="-0.3307030">
        <ele>133.4</ele>
        <time>2019-07-04T16:17:38Z</time>
      </trkpt>
      <trkpt lat="39.7411150" lon="-0.3306790">
        <ele>133.8</ele>
        <time>2019-07-04T16:17:46Z</time>
      </trkpt>
      <trkpt lat="39.7412580" lon="-0.3306780">
        <ele>134.2</ele>
        <time>2019-07-04T16:17:49Z</time>
      </trkpt>
      <trkpt lat="39.7414760" lon="-0.3306770">
        <ele>134.6</ele>
        <time>2019-07-04T16:17:54Z</time>
      </trkpt>
      <trkpt lat="39.7415850" lon="-0.3306850">
        <ele>135.2</ele>
        <time>2019-07-04T16:17:57Z</time>
      </trkpt>
      <trkpt lat="39.7416130" lon="-0.3306870">
        <ele>135.4</ele>
        <time>2019-07-04T16:17:58Z</time>
      </trkpt>
      <trkpt lat="39.7416400" lon="-0.3306920">
        <ele>135.6</ele>
        <time>2019-07-04T16:17:59Z</time>
      </trkpt>
      <trkpt lat="39.7416940" lon="-0.3307020">
        <ele>136.2</ele>
        <time>2019-07-04T16:18:01Z</time>
      </trkpt>
      <trkpt lat="39.7417200" lon="-0.3307090">
        <ele>136.6</ele>
        <time>2019-07-04T16:18:02Z</time>
      </trkpt>
      <trkpt lat="39.7418000" lon="-0.3307370">
        <ele>137.6</ele>
        <time>2019-07-04T16:18:05Z</time>
      </trkpt>
      <trkpt lat="39.7418290" lon="-0.3307480">
        <ele>138.0</ele>
        <time>2019-07-04T16:18:06Z</time>
      </trkpt>
      <trkpt lat="39.7418860" lon="-0.3307680">
        <ele>138.6</ele>
        <time>2019-07-04T16:18:08Z</time>
      </trkpt>
      <trkpt lat="39.7419150" lon="-0.3307780">
        <ele>139.2</ele>
        <time>2019-07-04T16:18:09Z</time>
      </trkpt>
      <trkpt lat="39.7419740" lon="-0.3307970">
        <ele>139.6</ele>
        <time>2019-07-04T16:18:11Z</time>
      </trkpt>
      <trkpt lat="39.7420670" lon="-0.3308100">
        <ele>140.0</ele>
        <time>2019-07-04T16:18:14Z</time>
      </trkpt>
      <trkpt lat="39.7420990" lon="-0.3308120">
        <ele>140.2</ele>
        <time>2019-07-04T16:18:15Z</time>
      </trkpt>
      <trkpt lat="39.7422210" lon="-0.3308380">
        <ele>141.2</ele>
        <time>2019-07-04T16:18:19Z</time>
      </trkpt>
      <trkpt lat="39.7422780" lon="-0.3308760">
        <ele>141.8</ele>
        <time>2019-07-04T16:18:21Z</time>
      </trkpt>
      <trkpt lat="39.7423490" lon="-0.3309630">
        <ele>142.2</ele>
        <time>2019-07-04T16:18:24Z</time>
      </trkpt>
      <trkpt lat="39.7424120" lon="-0.3310570">
        <ele>142.2</ele>
        <time>2019-07-04T16:18:27Z</time>
      </trkpt>
      <trkpt lat="39.7425150" lon="-0.3311750">
        <ele>143.4</ele>
        <time>2019-07-04T16:18:31Z</time>
      </trkpt>
      <trkpt lat="39.7426010" lon="-0.3312500">
        <ele>143.6</ele>
        <time>2019-07-04T16:18:34Z</time>
      </trkpt>
      <trkpt lat="39.7427710" lon="-0.3312810">
        <ele>143.6</ele>
        <time>2019-07-04T16:18:39Z</time>
      </trkpt>
      <trkpt lat="39.7429300" lon="-0.3312980">
        <ele>144.6</ele>
        <time>2019-07-04T16:18:44Z</time>
      </trkpt>
      <trkpt lat="39.7429630" lon="-0.3313060">
        <ele>144.8</ele>
        <time>2019-07-04T16:18:45Z</time>
      </trkpt>
      <trkpt lat="39.7432280" lon="-0.3313480">
        <ele>145.8</ele>
        <time>2019-07-04T16:18:53Z</time>
      </trkpt>
      <trkpt lat="39.7432940" lon="-0.3313670">
        <ele>146.6</ele>
        <time>2019-07-04T16:18:55Z</time>
      </trkpt>
      <trkpt lat="39.7433560" lon="-0.3313930">
        <ele>147.4</ele>
        <time>2019-07-04T16:18:57Z</time>
      </trkpt>
      <trkpt lat="39.7435360" lon="-0.3315050">
        <ele>148.0</ele>
        <time>2019-07-04T16:19:02Z</time>
      </trkpt>
      <trkpt lat="39.7438950" lon="-0.3317220">
        <ele>147.6</ele>
        <time>2019-07-04T16:19:10Z</time>
      </trkpt>
      <trkpt lat="39.7440400" lon="-0.3318090">
        <ele>147.4</ele>
        <time>2019-07-04T16:19:13Z</time>
      </trkpt>
      <trkpt lat="39.7441880" lon="-0.3319000">
        <ele>147.4</ele>
        <time>2019-07-04T16:19:16Z</time>
      </trkpt>
      <trkpt lat="39.7442890" lon="-0.3319540">
        <ele>147.4</ele>
        <time>2019-07-04T16:19:18Z</time>
      </trkpt>
      <trkpt lat="39.7443900" lon="-0.3320120">
        <ele>147.4</ele>
        <time>2019-07-04T16:19:20Z</time>
      </trkpt>
      <trkpt lat="39.7445530" lon="-0.3320410">
        <ele>147.4</ele>
        <time>2019-07-04T16:19:23Z</time>
      </trkpt>
      <trkpt lat="39.7446090" lon="-0.3320360">
        <ele>147.4</ele>
        <time>2019-07-04T16:19:24Z</time>
      </trkpt>
      <trkpt lat="39.7448960" lon="-0.3319440">
        <ele>147.0</ele>
        <time>2019-07-04T16:19:29Z</time>
      </trkpt>
      <trkpt lat="39.7451210" lon="-0.3318440">
        <ele>147.2</ele>
        <time>2019-07-04T16:19:33Z</time>
      </trkpt>
      <trkpt lat="39.7451720" lon="-0.3318060">
        <ele>147.2</ele>
        <time>2019-07-04T16:19:34Z</time>
      </trkpt>
      <trkpt lat="39.7452800" lon="-0.3317390">
        <ele>147.2</ele>
        <time>2019-07-04T16:19:36Z</time>
      </trkpt>
      <trkpt lat="39.7453990" lon="-0.3317120">
        <ele>147.0</ele>
        <time>2019-07-04T16:19:38Z</time>
      </trkpt>
      <trkpt lat="39.7457100" lon="-0.3317230">
        <ele>147.0</ele>
        <time>2019-07-04T16:19:43Z</time>
      </trkpt>
      <trkpt lat="39.7458320" lon="-0.3317500">
        <ele>146.8</ele>
        <time>2019-07-04T16:19:45Z</time>
      </trkpt>
      <trkpt lat="39.7463070" lon="-0.3318980">
        <ele>146.8</ele>
        <time>2019-07-04T16:19:53Z</time>
      </trkpt>
      <trkpt lat="39.7464230" lon="-0.3319410">
        <ele>146.8</ele>
        <time>2019-07-04T16:19:55Z</time>
      </trkpt>
      <trkpt lat="39.7466030" lon="-0.3319770">
        <ele>146.8</ele>
        <time>2019-07-04T16:19:58Z</time>
      </trkpt>
      <trkpt lat="39.7466630" lon="-0.3319930">
        <ele>146.6</ele>
        <time>2019-07-04T16:19:59Z</time>
      </trkpt>
      <trkpt lat="39.7468390" lon="-0.3320940">
        <ele>146.4</ele>
        <time>2019-07-04T16:20:02Z</time>
      </trkpt>
      <trkpt lat="39.7470050" lon="-0.3321840">
        <ele>146.4</ele>
        <time>2019-07-04T16:20:05Z</time>
      </trkpt>
      <trkpt lat="39.7471160" lon="-0.3322130">
        <ele>146.4</ele>
        <time>2019-07-04T16:20:07Z</time>
      </trkpt>
      <trkpt lat="39.7472750" lon="-0.3322570">
        <ele>147.2</ele>
        <time>2019-07-04T16:20:10Z</time>
      </trkpt>
      <trkpt lat="39.7474780" lon="-0.3323320">
        <ele>147.6</ele>
        <time>2019-07-04T16:20:14Z</time>
      </trkpt>
      <trkpt lat="39.7475760" lon="-0.3323920">
        <ele>147.6</ele>
        <time>2019-07-04T16:20:16Z</time>
      </trkpt>
      <trkpt lat="39.7476490" lon="-0.3324980">
        <ele>147.8</ele>
        <time>2019-07-04T16:20:18Z</time>
      </trkpt>
      <trkpt lat="39.7477130" lon="-0.3327020">
        <ele>147.8</ele>
        <time>2019-07-04T16:20:21Z</time>
      </trkpt>
      <trkpt lat="39.7477540" lon="-0.3328410">
        <ele>148.0</ele>
        <time>2019-07-04T16:20:23Z</time>
      </trkpt>
      <trkpt lat="39.7479020" lon="-0.3332710">
        <ele>148.0</ele>
        <time>2019-07-04T16:20:29Z</time>
      </trkpt>
      <trkpt lat="39.7480200" lon="-0.3335540">
        <ele>148.0</ele>
        <time>2019-07-04T16:20:33Z</time>
      </trkpt>
      <trkpt lat="39.7480540" lon="-0.3336170">
        <ele>148.0</ele>
        <time>2019-07-04T16:20:34Z</time>
      </trkpt>
      <trkpt lat="39.7481190" lon="-0.3337490">
        <ele>148.2</ele>
        <time>2019-07-04T16:20:36Z</time>
      </trkpt>
      <trkpt lat="39.7483110" lon="-0.3341750">
        <ele>148.2</ele>
        <time>2019-07-04T16:20:42Z</time>
      </trkpt>
      <trkpt lat="39.7483430" lon="-0.3342490">
        <ele>148.2</ele>
        <time>2019-07-04T16:20:43Z</time>
      </trkpt>
      <trkpt lat="39.7485230" lon="-0.3347900">
        <ele>148.2</ele>
        <time>2019-07-04T16:20:50Z</time>
      </trkpt>
      <trkpt lat="39.7485690" lon="-0.3349390">
        <ele>148.2</ele>
        <time>2019-07-04T16:20:52Z</time>
      </trkpt>
      <trkpt lat="39.7486400" lon="-0.3350440">
        <ele>148.2</ele>
        <time>2019-07-04T16:20:54Z</time>
      </trkpt>
      <trkpt lat="39.7487680" lon="-0.3350330">
        <ele>148.8</ele>
        <time>2019-07-04T16:20:57Z</time>
      </trkpt>
      <trkpt lat="39.7488480" lon="-0.3349830">
        <ele>149.6</ele>
        <time>2019-07-04T16:20:59Z</time>
      </trkpt>
      <trkpt lat="39.7490140" lon="-0.3348510">
        <ele>149.6</ele>
        <time>2019-07-04T16:21:03Z</time>
      </trkpt>
      <trkpt lat="39.7493680" lon="-0.3345940">
        <ele>149.8</ele>
        <time>2019-07-04T16:21:11Z</time>
      </trkpt>
      <trkpt lat="39.7494080" lon="-0.3345540">
        <ele>149.8</ele>
        <time>2019-07-04T16:21:12Z</time>
      </trkpt>
      <trkpt lat="39.7494520" lon="-0.3345150">
        <ele>150.0</ele>
        <time>2019-07-04T16:21:13Z</time>
      </trkpt>
      <trkpt lat="39.7495980" lon="-0.3344890">
        <ele>150.2</ele>
        <time>2019-07-04T16:21:16Z</time>
      </trkpt>
      <trkpt lat="39.7496960" lon="-0.3346420">
        <ele>150.4</ele>
        <time>2019-07-04T16:21:19Z</time>
      </trkpt>
      <trkpt lat="39.7497180" lon="-0.3347090">
        <ele>150.6</ele>
        <time>2019-07-04T16:21:20Z</time>
      </trkpt>
      <trkpt lat="39.7498780" lon="-0.3351960">
        <ele>150.2</ele>
        <time>2019-07-04T16:21:27Z</time>
      </trkpt>
      <trkpt lat="39.7499480" lon="-0.3354100">
        <ele>150.4</ele>
        <time>2019-07-04T16:21:30Z</time>
      </trkpt>
      <trkpt lat="39.7499570" lon="-0.3355600">
        <ele>150.6</ele>
        <time>2019-07-04T16:21:32Z</time>
      </trkpt>
      <trkpt lat="39.7498880" lon="-0.3357660">
        <ele>150.6</ele>
        <time>2019-07-04T16:21:35Z</time>
      </trkpt>
      <trkpt lat="39.7498550" lon="-0.3358310">
        <ele>150.6</ele>
        <time>2019-07-04T16:21:36Z</time>
      </trkpt>
      <trkpt lat="39.7497120" lon="-0.3360800">
        <ele>150.2</ele>
        <time>2019-07-04T16:21:40Z</time>
      </trkpt>
      <trkpt lat="39.7496830" lon="-0.3361480">
        <ele>150.4</ele>
        <time>2019-07-04T16:21:41Z</time>
      </trkpt>
      <trkpt lat="39.7496800" lon="-0.3363700">
        <ele>150.2</ele>
        <time>2019-07-04T16:21:44Z</time>
      </trkpt>
      <trkpt lat="39.7497330" lon="-0.3365080">
        <ele>150.2</ele>
        <time>2019-07-04T16:21:46Z</time>
      </trkpt>
      <trkpt lat="39.7498370" lon="-0.3367850">
        <ele>150.6</ele>
        <time>2019-07-04T16:21:50Z</time>
      </trkpt>
      <trkpt lat="39.7498450" lon="-0.3370820">
        <ele>150.6</ele>
        <time>2019-07-04T16:21:54Z</time>
      </trkpt>
      <trkpt lat="39.7498310" lon="-0.3371540">
        <ele>150.8</ele>
        <time>2019-07-04T16:21:55Z</time>
      </trkpt>
      <trkpt lat="39.7497700" lon="-0.3374490">
        <ele>151.2</ele>
        <time>2019-07-04T16:21:59Z</time>
      </trkpt>
      <trkpt lat="39.7497240" lon="-0.3376710">
        <ele>151.4</ele>
        <time>2019-07-04T16:22:02Z</time>
      </trkpt>
      <trkpt lat="39.7496820" lon="-0.3379410">
        <ele>151.8</ele>
        <time>2019-07-04T16:22:06Z</time>
      </trkpt>
      <trkpt lat="39.7496730" lon="-0.3380670">
        <ele>152.2</ele>
        <time>2019-07-04T16:22:08Z</time>
      </trkpt>
      <trkpt lat="39.7496720" lon="-0.3381280">
        <ele>152.4</ele>
        <time>2019-07-04T16:22:09Z</time>
      </trkpt>
      <trkpt lat="39.7496860" lon="-0.3383170">
        <ele>153.6</ele>
        <time>2019-07-04T16:22:12Z</time>
      </trkpt>
      <trkpt lat="39.7497040" lon="-0.3384440">
        <ele>154.0</ele>
        <time>2019-07-04T16:22:14Z</time>
      </trkpt>
      <trkpt lat="39.7497360" lon="-0.3386370">
        <ele>154.2</ele>
        <time>2019-07-04T16:22:17Z</time>
      </trkpt>
      <trkpt lat="39.7497690" lon="-0.3388340">
        <ele>154.6</ele>
        <time>2019-07-04T16:22:20Z</time>
      </trkpt>
      <trkpt lat="39.7497930" lon="-0.3389630">
        <ele>154.8</ele>
        <time>2019-07-04T16:22:22Z</time>
      </trkpt>
      <trkpt lat="39.7498550" lon="-0.3392810">
        <ele>155.2</ele>
        <time>2019-07-04T16:22:27Z</time>
      </trkpt>
      <trkpt lat="39.7499050" lon="-0.3394680">
        <ele>155.4</ele>
        <time>2019-07-04T16:22:30Z</time>
      </trkpt>
      <trkpt lat="39.7499940" lon="-0.3397040">
        <ele>155.8</ele>
        <time>2019-07-04T16:22:34Z</time>
      </trkpt>
      <trkpt lat="39.7501320" lon="-0.3397880">
        <ele>156.0</ele>
        <time>2019-07-04T16:22:37Z</time>
      </trkpt>
      <trkpt lat="39.7501790" lon="-0.3398120">
        <ele>156.2</ele>
        <time>2019-07-04T16:22:38Z</time>
      </trkpt>
      <trkpt lat="39.7502450" lon="-0.3399050">
        <ele>156.2</ele>
        <time>2019-07-04T16:22:40Z</time>
      </trkpt>
      <trkpt lat="39.7502720" lon="-0.3401000">
        <ele>156.4</ele>
        <time>2019-07-04T16:22:43Z</time>
      </trkpt>
      <trkpt lat="39.7502740" lon="-0.3401690">
        <ele>156.4</ele>
        <time>2019-07-04T16:22:44Z</time>
      </trkpt>
      <trkpt lat="39.7502880" lon="-0.3404450">
        <ele>156.8</ele>
        <time>2019-07-04T16:22:48Z</time>
      </trkpt>
      <trkpt lat="39.7503130" lon="-0.3407170">
        <ele>157.0</ele>
        <time>2019-07-04T16:22:52Z</time>
      </trkpt>
      <trkpt lat="39.7503830" lon="-0.3412870">
        <ele>158.0</ele>
        <time>2019-07-04T16:23:00Z</time>
      </trkpt>
      <trkpt lat="39.7504290" lon="-0.3418020">
        <ele>158.4</ele>
        <time>2019-07-04T16:23:07Z</time>
      </trkpt>
      <trkpt lat="39.7504750" lon="-0.3423940">
        <ele>158.8</ele>
        <time>2019-07-04T16:23:15Z</time>
      </trkpt>
      <trkpt lat="39.7504730" lon="-0.3424700">
        <ele>158.8</ele>
        <time>2019-07-04T16:23:16Z</time>
      </trkpt>
      <trkpt lat="39.7504400" lon="-0.3426940">
        <ele>159.0</ele>
        <time>2019-07-04T16:23:19Z</time>
      </trkpt>
      <trkpt lat="39.7504310" lon="-0.3427700">
        <ele>159.0</ele>
        <time>2019-07-04T16:23:20Z</time>
      </trkpt>
      <trkpt lat="39.7504290" lon="-0.3428460">
        <ele>159.0</ele>
        <time>2019-07-04T16:23:21Z</time>
      </trkpt>
      <trkpt lat="39.7504790" lon="-0.3434520">
        <ele>160.2</ele>
        <time>2019-07-04T16:23:29Z</time>
      </trkpt>
      <trkpt lat="39.7504900" lon="-0.3436840">
        <ele>160.4</ele>
        <time>2019-07-04T16:23:32Z</time>
      </trkpt>
      <trkpt lat="39.7505270" lon="-0.3439160">
        <ele>160.8</ele>
        <time>2019-07-04T16:23:35Z</time>
      </trkpt>
      <trkpt lat="39.7505660" lon="-0.3440690">
        <ele>160.8</ele>
        <time>2019-07-04T16:23:37Z</time>
      </trkpt>
      <trkpt lat="39.7506500" lon="-0.3442890">
        <ele>160.8</ele>
        <time>2019-07-04T16:23:40Z</time>
      </trkpt>
      <trkpt lat="39.7506800" lon="-0.3443620">
        <ele>160.8</ele>
        <time>2019-07-04T16:23:41Z</time>
      </trkpt>
      <trkpt lat="39.7508510" lon="-0.3447100">
        <ele>160.8</ele>
        <time>2019-07-04T16:23:46Z</time>
      </trkpt>
      <trkpt lat="39.7510520" lon="-0.3451330">
        <ele>160.8</ele>
        <time>2019-07-04T16:23:52Z</time>
      </trkpt>
      <trkpt lat="39.7511320" lon="-0.3452580">
        <ele>161.0</ele>
        <time>2019-07-04T16:23:54Z</time>
      </trkpt>
      <trkpt lat="39.7512050" lon="-0.3453850">
        <ele>161.2</ele>
        <time>2019-07-04T16:23:56Z</time>
      </trkpt>
      <trkpt lat="39.7512350" lon="-0.3454530">
        <ele>161.2</ele>
        <time>2019-07-04T16:23:57Z</time>
      </trkpt>
      <trkpt lat="39.7512870" lon="-0.3455940">
        <ele>161.6</ele>
        <time>2019-07-04T16:23:59Z</time>
      </trkpt>
      <trkpt lat="39.7513750" lon="-0.3458020">
        <ele>161.8</ele>
        <time>2019-07-04T16:24:02Z</time>
      </trkpt>
      <trkpt lat="39.7514760" lon="-0.3459790">
        <ele>162.2</ele>
        <time>2019-07-04T16:24:05Z</time>
      </trkpt>
      <trkpt lat="39.7515260" lon="-0.3460930">
        <ele>162.2</ele>
        <time>2019-07-04T16:24:07Z</time>
      </trkpt>
      <trkpt lat="39.7515540" lon="-0.3462920">
        <ele>162.6</ele>
        <time>2019-07-04T16:24:10Z</time>
      </trkpt>
      <trkpt lat="39.7515540" lon="-0.3464530">
        <ele>161.8</ele>
        <time>2019-07-04T16:24:12Z</time>
      </trkpt>
      <trkpt lat="39.7515550" lon="-0.3465280">
        <ele>161.4</ele>
        <time>2019-07-04T16:24:13Z</time>
      </trkpt>
      <trkpt lat="39.7515580" lon="-0.3466030">
        <ele>160.8</ele>
        <time>2019-07-04T16:24:14Z</time>
      </trkpt>
      <trkpt lat="39.7515660" lon="-0.3466810">
        <ele>160.4</ele>
        <time>2019-07-04T16:24:15Z</time>
      </trkpt>
      <trkpt lat="39.7515810" lon="-0.3467550">
        <ele>160.0</ele>
        <time>2019-07-04T16:24:16Z</time>
      </trkpt>
      <trkpt lat="39.7516250" lon="-0.3469030">
        <ele>158.8</ele>
        <time>2019-07-04T16:24:18Z</time>
      </trkpt>
      <trkpt lat="39.7516540" lon="-0.3469780">
        <ele>157.8</ele>
        <time>2019-07-04T16:24:19Z</time>
      </trkpt>
      <trkpt lat="39.7516820" lon="-0.3470540">
        <ele>157.4</ele>
        <time>2019-07-04T16:24:20Z</time>
      </trkpt>
      <trkpt lat="39.7517050" lon="-0.3471370">
        <ele>157.0</ele>
        <time>2019-07-04T16:24:21Z</time>
      </trkpt>
      <trkpt lat="39.7517280" lon="-0.3473340">
        <ele>156.2</ele>
        <time>2019-07-04T16:24:23Z</time>
      </trkpt>
      <trkpt lat="39.7517700" lon="-0.3476570">
        <ele>154.4</ele>
        <time>2019-07-04T16:24:26Z</time>
      </trkpt>
      <trkpt lat="39.7518020" lon="-0.3477600">
        <ele>153.8</ele>
        <time>2019-07-04T16:24:27Z</time>
      </trkpt>
      <trkpt lat="39.7518380" lon="-0.3478590">
        <ele>153.2</ele>
        <time>2019-07-04T16:24:28Z</time>
      </trkpt>
      <trkpt lat="39.7519000" lon="-0.3480580">
        <ele>152.2</ele>
        <time>2019-07-04T16:24:30Z</time>
      </trkpt>
      <trkpt lat="39.7519210" lon="-0.3481590">
        <ele>151.8</ele>
        <time>2019-07-04T16:24:31Z</time>
      </trkpt>
      <trkpt lat="39.7519310" lon="-0.3482590">
        <ele>151.6</ele>
        <time>2019-07-04T16:24:32Z</time>
      </trkpt>
      <trkpt lat="39.7519150" lon="-0.3485510">
        <ele>151.2</ele>
        <time>2019-07-04T16:24:35Z</time>
      </trkpt>
      <trkpt lat="39.7519070" lon="-0.3486470">
        <ele>151.2</ele>
        <time>2019-07-04T16:24:36Z</time>
      </trkpt>
      <trkpt lat="39.7518910" lon="-0.3488340">
        <ele>151.0</ele>
        <time>2019-07-04T16:24:38Z</time>
      </trkpt>
      <trkpt lat="39.7518680" lon="-0.3492820">
        <ele>151.0</ele>
        <time>2019-07-04T16:24:43Z</time>
      </trkpt>
      <trkpt lat="39.7518600" lon="-0.3497340">
        <ele>151.4</ele>
        <time>2019-07-04T16:24:49Z</time>
      </trkpt>
      <trkpt lat="39.7518700" lon="-0.3501780">
        <ele>151.8</ele>
        <time>2019-07-04T16:24:55Z</time>
      </trkpt>
      <trkpt lat="39.7518750" lon="-0.3502540">
        <ele>151.8</ele>
        <time>2019-07-04T16:24:56Z</time>
      </trkpt>
      <trkpt lat="39.7519100" lon="-0.3507290">
        <ele>151.0</ele>
        <time>2019-07-04T16:25:02Z</time>
      </trkpt>
      <trkpt lat="39.7519850" lon="-0.3512610">
        <ele>149.8</ele>
        <time>2019-07-04T16:25:08Z</time>
      </trkpt>
      <trkpt lat="39.7520460" lon="-0.3516400">
        <ele>148.8</ele>
        <time>2019-07-04T16:25:12Z</time>
      </trkpt>
      <trkpt lat="39.7520710" lon="-0.3518060">
        <ele>149.2</ele>
        <time>2019-07-04T16:25:14Z</time>
      </trkpt>
      <trkpt lat="39.7520760" lon="-0.3518760">
        <ele>149.4</ele>
        <time>2019-07-04T16:25:15Z</time>
      </trkpt>
      <trkpt lat="39.7520410" lon="-0.3519770">
        <ele>149.6</ele>
        <time>2019-07-04T16:25:17Z</time>
      </trkpt>
      <trkpt lat="39.7520130" lon="-0.3520110">
        <ele>150.0</ele>
        <time>2019-07-04T16:25:18Z</time>
      </trkpt>
      <trkpt lat="39.7519870" lon="-0.3520430">
        <ele>150.2</ele>
        <time>2019-07-04T16:25:19Z</time>
      </trkpt>
      <trkpt lat="39.7519380" lon="-0.3521100">
        <ele>151.2</ele>
        <time>2019-07-04T16:25:21Z</time>
      </trkpt>
      <trkpt lat="39.7519080" lon="-0.3521920">
        <ele>152.2</ele>
        <time>2019-07-04T16:25:23Z</time>
      </trkpt>
      <trkpt lat="39.7518990" lon="-0.3522380">
        <ele>152.6</ele>
        <time>2019-07-04T16:25:24Z</time>
      </trkpt>
      <trkpt lat="39.7518930" lon="-0.3522850">
        <ele>153.0</ele>
        <time>2019-07-04T16:25:25Z</time>
      </trkpt>
      <trkpt lat="39.7518880" lon="-0.3523790">
        <ele>153.8</ele>
        <time>2019-07-04T16:25:27Z</time>
      </trkpt>
      <trkpt lat="39.7518840" lon="-0.3524730">
        <ele>154.4</ele>
        <time>2019-07-04T16:25:29Z</time>
      </trkpt>
      <trkpt lat="39.7518810" lon="-0.3525200">
        <ele>154.8</ele>
        <time>2019-07-04T16:25:30Z</time>
      </trkpt>
      <trkpt lat="39.7518790" lon="-0.3526160">
        <ele>155.4</ele>
        <time>2019-07-04T16:25:32Z</time>
      </trkpt>
      <trkpt lat="39.7518750" lon="-0.3527120">
        <ele>156.0</ele>
        <time>2019-07-04T16:25:34Z</time>
      </trkpt>
      <trkpt lat="39.7518610" lon="-0.3529050">
        <ele>156.8</ele>
        <time>2019-07-04T16:25:38Z</time>
      </trkpt>
      <trkpt lat="39.7518490" lon="-0.3530010">
        <ele>157.0</ele>
        <time>2019-07-04T16:25:40Z</time>
      </trkpt>
      <trkpt lat="39.7518240" lon="-0.3532390">
        <ele>158.2</ele>
        <time>2019-07-04T16:25:45Z</time>
      </trkpt>
      <trkpt lat="39.7517860" lon="-0.3535120">
        <ele>158.6</ele>
        <time>2019-07-04T16:25:50Z</time>
      </trkpt>
      <trkpt lat="39.7517230" lon="-0.3539090">
        <ele>158.4</ele>
        <time>2019-07-04T16:25:56Z</time>
      </trkpt>
      <trkpt lat="39.7517270" lon="-0.3543010">
        <ele>159.0</ele>
        <time>2019-07-04T16:26:02Z</time>
      </trkpt>
      <trkpt lat="39.7517420" lon="-0.3544160">
        <ele>159.4</ele>
        <time>2019-07-04T16:26:04Z</time>
      </trkpt>
      <trkpt lat="39.7517760" lon="-0.3546570">
        <ele>159.8</ele>
        <time>2019-07-04T16:26:08Z</time>
      </trkpt>
      <trkpt lat="39.7518000" lon="-0.3549260">
        <ele>159.8</ele>
        <time>2019-07-04T16:26:12Z</time>
      </trkpt>
      <trkpt lat="39.7518060" lon="-0.3552110">
        <ele>159.8</ele>
        <time>2019-07-04T16:26:16Z</time>
      </trkpt>
      <trkpt lat="39.7518200" lon="-0.3555000">
        <ele>160.2</ele>
        <time>2019-07-04T16:26:20Z</time>
      </trkpt>
      <trkpt lat="39.7518480" lon="-0.3559250">
        <ele>160.4</ele>
        <time>2019-07-04T16:26:26Z</time>
      </trkpt>
      <trkpt lat="39.7518810" lon="-0.3561310">
        <ele>160.6</ele>
        <time>2019-07-04T16:26:29Z</time>
      </trkpt>
      <trkpt lat="39.7519010" lon="-0.3562630">
        <ele>160.8</ele>
        <time>2019-07-04T16:26:31Z</time>
      </trkpt>
      <trkpt lat="39.7519060" lon="-0.3563230">
        <ele>161.0</ele>
        <time>2019-07-04T16:26:32Z</time>
      </trkpt>
      <trkpt lat="39.7519170" lon="-0.3564250">
        <ele>161.6</ele>
        <time>2019-07-04T16:26:34Z</time>
      </trkpt>
      <trkpt lat="39.7519260" lon="-0.3564700">
        <ele>162.0</ele>
        <time>2019-07-04T16:26:35Z</time>
      </trkpt>
      <trkpt lat="39.7519560" lon="-0.3565570">
        <ele>162.6</ele>
        <time>2019-07-04T16:26:37Z</time>
      </trkpt>
      <trkpt lat="39.7519770" lon="-0.3566010">
        <ele>162.8</ele>
        <time>2019-07-04T16:26:38Z</time>
      </trkpt>
      <trkpt lat="39.7520030" lon="-0.3566420">
        <ele>163.0</ele>
        <time>2019-07-04T16:26:39Z</time>
      </trkpt>
      <trkpt lat="39.7520690" lon="-0.3567090">
        <ele>163.4</ele>
        <time>2019-07-04T16:26:41Z</time>
      </trkpt>
      <trkpt lat="39.7521460" lon="-0.3567610">
        <ele>163.6</ele>
        <time>2019-07-04T16:26:43Z</time>
      </trkpt>
      <trkpt lat="39.7522680" lon="-0.3568420">
        <ele>164.0</ele>
        <time>2019-07-04T16:26:46Z</time>
      </trkpt>
      <trkpt lat="39.7523080" lon="-0.3568770">
        <ele>164.2</ele>
        <time>2019-07-04T16:26:47Z</time>
      </trkpt>
      <trkpt lat="39.7523430" lon="-0.3569180">
        <ele>164.2</ele>
        <time>2019-07-04T16:26:48Z</time>
      </trkpt>
      <trkpt lat="39.7524150" lon="-0.3570010">
        <ele>164.4</ele>
        <time>2019-07-04T16:26:50Z</time>
      </trkpt>
      <trkpt lat="39.7525070" lon="-0.3570200">
        <ele>164.4</ele>
        <time>2019-07-04T16:26:52Z</time>
      </trkpt>
      <trkpt lat="39.7526410" lon="-0.3569500">
        <ele>165.2</ele>
        <time>2019-07-04T16:26:55Z</time>
      </trkpt>
      <trkpt lat="39.7527340" lon="-0.3568950">
        <ele>165.4</ele>
        <time>2019-07-04T16:26:57Z</time>
      </trkpt>
      <trkpt lat="39.7528240" lon="-0.3568450">
        <ele>165.8</ele>
        <time>2019-07-04T16:26:59Z</time>
      </trkpt>
      <trkpt lat="39.7529710" lon="-0.3568380">
        <ele>166.0</ele>
        <time>2019-07-04T16:27:02Z</time>
      </trkpt>
      <trkpt lat="39.7530210" lon="-0.3568380">
        <ele>166.2</ele>
        <time>2019-07-04T16:27:03Z</time>
      </trkpt>
      <trkpt lat="39.7531750" lon="-0.3568370">
        <ele>166.4</ele>
        <time>2019-07-04T16:27:06Z</time>
      </trkpt>
      <trkpt lat="39.7532240" lon="-0.3568570">
        <ele>166.4</ele>
        <time>2019-07-04T16:27:07Z</time>
      </trkpt>
      <trkpt lat="39.7533280" lon="-0.3570030">
        <ele>166.4</ele>
        <time>2019-07-04T16:27:10Z</time>
      </trkpt>
      <trkpt lat="39.7533510" lon="-0.3570650">
        <ele>166.6</ele>
        <time>2019-07-04T16:27:11Z</time>
      </trkpt>
      <trkpt lat="39.7535350" lon="-0.3574790">
        <ele>167.2</ele>
        <time>2019-07-04T16:27:18Z</time>
      </trkpt>
      <trkpt lat="39.7535600" lon="-0.3575420">
        <ele>167.2</ele>
        <time>2019-07-04T16:27:19Z</time>
      </trkpt>
      <trkpt lat="39.7536350" lon="-0.3578070">
        <ele>167.4</ele>
        <time>2019-07-04T16:27:23Z</time>
      </trkpt>
      <trkpt lat="39.7536420" lon="-0.3578750">
        <ele>167.4</ele>
        <time>2019-07-04T16:27:24Z</time>
      </trkpt>
      <trkpt lat="39.7536690" lon="-0.3580780">
        <ele>167.8</ele>
        <time>2019-07-04T16:27:27Z</time>
      </trkpt>
      <trkpt lat="39.7537210" lon="-0.3582660">
        <ele>168.2</ele>
        <time>2019-07-04T16:27:30Z</time>
      </trkpt>
      <trkpt lat="39.7537520" lon="-0.3583940">
        <ele>168.4</ele>
        <time>2019-07-04T16:27:32Z</time>
      </trkpt>
      <trkpt lat="39.7537790" lon="-0.3585190">
        <ele>168.4</ele>
        <time>2019-07-04T16:27:34Z</time>
      </trkpt>
      <trkpt lat="39.7537700" lon="-0.3586280">
        <ele>168.6</ele>
        <time>2019-07-04T16:27:36Z</time>
      </trkpt>
      <trkpt lat="39.7536870" lon="-0.3586740">
        <ele>169.0</ele>
        <time>2019-07-04T16:27:39Z</time>
      </trkpt>
      <trkpt lat="39.7534790" lon="-0.3586760">
        <ele>169.2</ele>
        <time>2019-07-04T16:27:44Z</time>
      </trkpt>
      <trkpt lat="39.7533740" lon="-0.3586790">
        <ele>169.2</ele>
        <time>2019-07-04T16:27:46Z</time>
      </trkpt>
      <trkpt lat="39.7532660" lon="-0.3587150">
        <ele>169.0</ele>
        <time>2019-07-04T16:27:48Z</time>
      </trkpt>
      <trkpt lat="39.7531540" lon="-0.3587390">
        <ele>169.0</ele>
        <time>2019-07-04T16:27:50Z</time>
      </trkpt>
      <trkpt lat="39.7530420" lon="-0.3587170">
        <ele>168.8</ele>
        <time>2019-07-04T16:27:52Z</time>
      </trkpt>
      <trkpt lat="39.7528100" lon="-0.3586640">
        <ele>168.6</ele>
        <time>2019-07-04T16:27:56Z</time>
      </trkpt>
      <trkpt lat="39.7526970" lon="-0.3586820">
        <ele>168.6</ele>
        <time>2019-07-04T16:27:58Z</time>
      </trkpt>
      <trkpt lat="39.7525660" lon="-0.3588140">
        <ele>168.8</ele>
        <time>2019-07-04T16:28:01Z</time>
      </trkpt>
      <trkpt lat="39.7524040" lon="-0.3590130">
        <ele>169.0</ele>
        <time>2019-07-04T16:28:05Z</time>
      </trkpt>
      <trkpt lat="39.7523530" lon="-0.3592040">
        <ele>169.0</ele>
        <time>2019-07-04T16:28:08Z</time>
      </trkpt>
      <trkpt lat="39.7522070" lon="-0.3592680">
        <ele>169.2</ele>
        <time>2019-07-04T16:28:11Z</time>
      </trkpt>
      <trkpt lat="39.7521540" lon="-0.3592730">
        <ele>169.2</ele>
        <time>2019-07-04T16:28:12Z</time>
      </trkpt>
      <trkpt lat="39.7519910" lon="-0.3592930">
        <ele>169.2</ele>
        <time>2019-07-04T16:28:15Z</time>
      </trkpt>
      <trkpt lat="39.7519170" lon="-0.3593410">
        <ele>169.0</ele>
        <time>2019-07-04T16:28:17Z</time>
      </trkpt>
      <trkpt lat="39.7519210" lon="-0.3594770">
        <ele>168.6</ele>
        <time>2019-07-04T16:28:20Z</time>
      </trkpt>
      <trkpt lat="39.7520110" lon="-0.3596700">
        <ele>169.2</ele>
        <time>2019-07-04T16:28:24Z</time>
      </trkpt>
      <trkpt lat="39.7520310" lon="-0.3597240">
        <ele>169.4</ele>
        <time>2019-07-04T16:28:25Z</time>
      </trkpt>
      <trkpt lat="39.7520500" lon="-0.3597780">
        <ele>169.4</ele>
        <time>2019-07-04T16:28:26Z</time>
      </trkpt>
      <trkpt lat="39.7521290" lon="-0.3599930">
        <ele>169.8</ele>
        <time>2019-07-04T16:28:30Z</time>
      </trkpt>
      <trkpt lat="39.7521750" lon="-0.3600840">
        <ele>170.2</ele>
        <time>2019-07-04T16:28:32Z</time>
      </trkpt>
      <trkpt lat="39.7522160" lon="-0.3601620">
        <ele>170.8</ele>
        <time>2019-07-04T16:28:34Z</time>
      </trkpt>
      <trkpt lat="39.7522860" lon="-0.3602880">
        <ele>171.4</ele>
        <time>2019-07-04T16:28:37Z</time>
      </trkpt>
      <trkpt lat="39.7523160" lon="-0.3603340">
        <ele>171.8</ele>
        <time>2019-07-04T16:28:38Z</time>
      </trkpt>
      <trkpt lat="39.7524730" lon="-0.3605660">
        <ele>172.4</ele>
        <time>2019-07-04T16:28:43Z</time>
      </trkpt>
      <trkpt lat="39.7525340" lon="-0.3606630">
        <ele>172.8</ele>
        <time>2019-07-04T16:28:45Z</time>
      </trkpt>
      <trkpt lat="39.7525980" lon="-0.3607600">
        <ele>172.8</ele>
        <time>2019-07-04T16:28:47Z</time>
      </trkpt>
      <trkpt lat="39.7526330" lon="-0.3608040">
        <ele>172.8</ele>
        <time>2019-07-04T16:28:48Z</time>
      </trkpt>
      <trkpt lat="39.7527840" lon="-0.3609650">
        <ele>173.2</ele>
        <time>2019-07-04T16:28:52Z</time>
      </trkpt>
      <trkpt lat="39.7528540" lon="-0.3610440">
        <ele>173.4</ele>
        <time>2019-07-04T16:28:54Z</time>
      </trkpt>
      <trkpt lat="39.7529110" lon="-0.3611320">
        <ele>173.8</ele>
        <time>2019-07-04T16:28:56Z</time>
      </trkpt>
      <trkpt lat="39.7529650" lon="-0.3612270">
        <ele>174.4</ele>
        <time>2019-07-04T16:28:58Z</time>
      </trkpt>
      <trkpt lat="39.7530440" lon="-0.3613700">
        <ele>175.0</ele>
        <time>2019-07-04T16:29:01Z</time>
      </trkpt>
      <trkpt lat="39.7530730" lon="-0.3614150">
        <ele>175.2</ele>
        <time>2019-07-04T16:29:02Z</time>
      </trkpt>
      <trkpt lat="39.7531320" lon="-0.3614990">
        <ele>175.4</ele>
        <time>2019-07-04T16:29:04Z</time>
      </trkpt>
      <trkpt lat="39.7532000" lon="-0.3616020">
        <ele>175.8</ele>
        <time>2019-07-04T16:29:07Z</time>
      </trkpt>
      <trkpt lat="39.7532280" lon="-0.3616120">
        <ele>176.0</ele>
        <time>2019-07-04T16:29:08Z</time>
      </trkpt>
      <trkpt lat="39.7532540" lon="-0.3616130">
        <ele>176.0</ele>
        <time>2019-07-04T16:29:09Z</time>
      </trkpt>
      <trkpt lat="39.7533320" lon="-0.3616800">
        <ele>176.4</ele>
        <time>2019-07-04T16:29:12Z</time>
      </trkpt>
      <trkpt lat="39.7533910" lon="-0.3617760">
        <ele>176.6</ele>
        <time>2019-07-04T16:29:15Z</time>
      </trkpt>
      <trkpt lat="39.7534280" lon="-0.3618370">
        <ele>177.0</ele>
        <time>2019-07-04T16:29:17Z</time>
      </trkpt>
      <trkpt lat="39.7534450" lon="-0.3618690">
        <ele>177.2</ele>
        <time>2019-07-04T16:29:18Z</time>
      </trkpt>
      <trkpt lat="39.7535100" lon="-0.3619800">
        <ele>178.2</ele>
        <time>2019-07-04T16:29:22Z</time>
      </trkpt>
      <trkpt lat="39.7535370" lon="-0.3620140">
        <ele>178.8</ele>
        <time>2019-07-04T16:29:24Z</time>
      </trkpt>
      <trkpt lat="39.7535450" lon="-0.3620430">
        <ele>179.0</ele>
        <time>2019-07-04T16:29:26Z</time>
      </trkpt>
      <trkpt lat="39.7535210" lon="-0.3620810">
        <ele>179.0</ele>
        <time>2019-07-04T16:29:28Z</time>
      </trkpt>
      <trkpt lat="39.7534240" lon="-0.3621680">
        <ele>179.0</ele>
        <time>2019-07-04T16:29:32Z</time>
      </trkpt>
      <trkpt lat="39.7534000" lon="-0.3621910">
        <ele>179.0</ele>
        <time>2019-07-04T16:29:33Z</time>
      </trkpt>
      <trkpt lat="39.7533330" lon="-0.3623560">
        <ele>179.2</ele>
        <time>2019-07-04T16:29:38Z</time>
      </trkpt>
      <trkpt lat="39.7533620" lon="-0.3624730">
        <ele>179.2</ele>
        <time>2019-07-04T16:29:41Z</time>
      </trkpt>
      <trkpt lat="39.7533770" lon="-0.3625120">
        <ele>179.4</ele>
        <time>2019-07-04T16:29:42Z</time>
      </trkpt>
      <trkpt lat="39.7534600" lon="-0.3626670">
        <ele>179.8</ele>
        <time>2019-07-04T16:29:46Z</time>
      </trkpt>
      <trkpt lat="39.7534990" lon="-0.3627560">
        <ele>180.0</ele>
        <time>2019-07-04T16:29:48Z</time>
      </trkpt>
      <trkpt lat="39.7535330" lon="-0.3628430">
        <ele>180.6</ele>
        <time>2019-07-04T16:29:50Z</time>
      </trkpt>
      <trkpt lat="39.7535770" lon="-0.3629450">
        <ele>181.6</ele>
        <time>2019-07-04T16:29:53Z</time>
      </trkpt>
      <trkpt lat="39.7535890" lon="-0.3629730">
        <ele>181.8</ele>
        <time>2019-07-04T16:29:54Z</time>
      </trkpt>
      <trkpt lat="39.7536540" lon="-0.3631230">
        <ele>182.6</ele>
        <time>2019-07-04T16:29:58Z</time>
      </trkpt>
      <trkpt lat="39.7536820" lon="-0.3632110">
        <ele>183.0</ele>
        <time>2019-07-04T16:30:00Z</time>
      </trkpt>
      <trkpt lat="39.7537620" lon="-0.3633710">
        <ele>183.4</ele>
        <time>2019-07-04T16:30:04Z</time>
      </trkpt>
      <trkpt lat="39.7538620" lon="-0.3634950">
        <ele>184.2</ele>
        <time>2019-07-04T16:30:08Z</time>
      </trkpt>
      <trkpt lat="39.7539220" lon="-0.3636720">
        <ele>185.6</ele>
        <time>2019-07-04T16:30:12Z</time>
      </trkpt>
      <trkpt lat="39.7539760" lon="-0.3637950">
        <ele>186.2</ele>
        <time>2019-07-04T16:30:15Z</time>
      </trkpt>
      <trkpt lat="39.7539970" lon="-0.3638670">
        <ele>186.6</ele>
        <time>2019-07-04T16:30:17Z</time>
      </trkpt>
      <trkpt lat="39.7540090" lon="-0.3639860">
        <ele>187.4</ele>
        <time>2019-07-04T16:30:20Z</time>
      </trkpt>
      <trkpt lat="39.7540000" lon="-0.3640280">
        <ele>187.6</ele>
        <time>2019-07-04T16:30:21Z</time>
      </trkpt>
      <trkpt lat="39.7539630" lon="-0.3641140">
        <ele>187.8</ele>
        <time>2019-07-04T16:30:23Z</time>
      </trkpt>
      <trkpt lat="39.7539390" lon="-0.3641500">
        <ele>188.0</ele>
        <time>2019-07-04T16:30:24Z</time>
      </trkpt>
      <trkpt lat="39.7538620" lon="-0.3643050">
        <ele>188.2</ele>
        <time>2019-07-04T16:30:28Z</time>
      </trkpt>
      <trkpt lat="39.7538560" lon="-0.3643580">
        <ele>188.2</ele>
        <time>2019-07-04T16:30:29Z</time>
      </trkpt>
      <trkpt lat="39.7538030" lon="-0.3645860">
        <ele>188.4</ele>
        <time>2019-07-04T16:30:33Z</time>
      </trkpt>
      <trkpt lat="39.7537590" lon="-0.3647700">
        <ele>188.6</ele>
        <time>2019-07-04T16:30:36Z</time>
      </trkpt>
      <trkpt lat="39.7537630" lon="-0.3648300">
        <ele>188.6</ele>
        <time>2019-07-04T16:30:37Z</time>
      </trkpt>
      <trkpt lat="39.7537970" lon="-0.3650680">
        <ele>188.8</ele>
        <time>2019-07-04T16:30:41Z</time>
      </trkpt>
      <trkpt lat="39.7537840" lon="-0.3651850">
        <ele>189.8</ele>
        <time>2019-07-04T16:30:44Z</time>
      </trkpt>
      <trkpt lat="39.7537830" lon="-0.3652130">
        <ele>190.2</ele>
        <time>2019-07-04T16:30:45Z</time>
      </trkpt>
      <trkpt lat="39.7537820" lon="-0.3652380">
        <ele>190.4</ele>
        <time>2019-07-04T16:30:46Z</time>
      </trkpt>
      <trkpt lat="39.7537840" lon="-0.3654100">
        <ele>191.2</ele>
        <time>2019-07-04T16:30:51Z</time>
      </trkpt>
      <trkpt lat="39.7537800" lon="-0.3654520">
        <ele>191.4</ele>
        <time>2019-07-04T16:30:52Z</time>
      </trkpt>
      <trkpt lat="39.7537800" lon="-0.3657350">
        <ele>192.4</ele>
        <time>2019-07-04T16:30:58Z</time>
      </trkpt>
      <trkpt lat="39.7538090" lon="-0.3660190">
        <ele>193.6</ele>
        <time>2019-07-04T16:31:04Z</time>
      </trkpt>
      <trkpt lat="39.7538120" lon="-0.3661100">
        <ele>194.0</ele>
        <time>2019-07-04T16:31:06Z</time>
      </trkpt>
      <trkpt lat="39.7538160" lon="-0.3661990">
        <ele>194.8</ele>
        <time>2019-07-04T16:31:08Z</time>
      </trkpt>
      <trkpt lat="39.7538260" lon="-0.3663840">
        <ele>195.8</ele>
        <time>2019-07-04T16:31:12Z</time>
      </trkpt>
      <trkpt lat="39.7538310" lon="-0.3664300">
        <ele>196.0</ele>
        <time>2019-07-04T16:31:13Z</time>
      </trkpt>
      <trkpt lat="39.7538470" lon="-0.3666060">
        <ele>197.2</ele>
        <time>2019-07-04T16:31:17Z</time>
      </trkpt>
      <trkpt lat="39.7538690" lon="-0.3667750">
        <ele>198.2</ele>
        <time>2019-07-04T16:31:21Z</time>
      </trkpt>
      <trkpt lat="39.7538900" lon="-0.3668560">
        <ele>198.8</ele>
        <time>2019-07-04T16:31:23Z</time>
      </trkpt>
      <trkpt lat="39.7539210" lon="-0.3669290">
        <ele>199.4</ele>
        <time>2019-07-04T16:31:25Z</time>
      </trkpt>
      <trkpt lat="39.7539990" lon="-0.3669820">
        <ele>200.2</ele>
        <time>2019-07-04T16:31:28Z</time>
      </trkpt>
      <trkpt lat="39.7540270" lon="-0.3669670">
        <ele>200.4</ele>
        <time>2019-07-04T16:31:29Z</time>
      </trkpt>
      <trkpt lat="39.7540770" lon="-0.3669020">
        <ele>201.0</ele>
        <time>2019-07-04T16:31:31Z</time>
      </trkpt>
      <trkpt lat="39.7541040" lon="-0.3668620">
        <ele>201.2</ele>
        <time>2019-07-04T16:31:32Z</time>
      </trkpt>
      <trkpt lat="39.7542600" lon="-0.3666460">
        <ele>201.2</ele>
        <time>2019-07-04T16:31:37Z</time>
      </trkpt>
      <trkpt lat="39.7543520" lon="-0.3665030">
        <ele>201.4</ele>
        <time>2019-07-04T16:31:40Z</time>
      </trkpt>
      <trkpt lat="39.7544800" lon="-0.3663170">
        <ele>201.8</ele>
        <time>2019-07-04T16:31:44Z</time>
      </trkpt>
      <trkpt lat="39.7547340" lon="-0.3659270">
        <ele>202.2</ele>
        <time>2019-07-04T16:31:52Z</time>
      </trkpt>
      <trkpt lat="39.7547650" lon="-0.3658780">
        <ele>202.2</ele>
        <time>2019-07-04T16:31:53Z</time>
      </trkpt>
      <trkpt lat="39.7548280" lon="-0.3657780">
        <ele>202.6</ele>
        <time>2019-07-04T16:31:55Z</time>
      </trkpt>
      <trkpt lat="39.7550400" lon="-0.3654220">
        <ele>203.4</ele>
        <time>2019-07-04T16:32:02Z</time>
      </trkpt>
      <trkpt lat="39.7551580" lon="-0.3652100">
        <ele>203.6</ele>
        <time>2019-07-04T16:32:06Z</time>
      </trkpt>
      <trkpt lat="39.7552840" lon="-0.3650060">
        <ele>203.8</ele>
        <time>2019-07-04T16:32:10Z</time>
      </trkpt>
      <trkpt lat="39.7554950" lon="-0.3646440">
        <ele>204.6</ele>
        <time>2019-07-04T16:32:17Z</time>
      </trkpt>
      <trkpt lat="39.7555280" lon="-0.3645920">
        <ele>204.8</ele>
        <time>2019-07-04T16:32:18Z</time>
      </trkpt>
      <trkpt lat="39.7557510" lon="-0.3642210">
        <ele>205.6</ele>
        <time>2019-07-04T16:32:25Z</time>
      </trkpt>
      <trkpt lat="39.7558130" lon="-0.3641140">
        <ele>205.8</ele>
        <time>2019-07-04T16:32:27Z</time>
      </trkpt>
      <trkpt lat="39.7561090" lon="-0.3636540">
        <ele>206.2</ele>
        <time>2019-07-04T16:32:36Z</time>
      </trkpt>
      <trkpt lat="39.7562190" lon="-0.3635140">
        <ele>206.4</ele>
        <time>2019-07-04T16:32:39Z</time>
      </trkpt>
      <trkpt lat="39.7563380" lon="-0.3633940">
        <ele>206.8</ele>
        <time>2019-07-04T16:32:42Z</time>
      </trkpt>
      <trkpt lat="39.7564220" lon="-0.3633240">
        <ele>206.8</ele>
        <time>2019-07-04T16:32:44Z</time>
      </trkpt>
      <trkpt lat="39.7566520" lon="-0.3631930">
        <ele>207.6</ele>
        <time>2019-07-04T16:32:49Z</time>
      </trkpt>
      <trkpt lat="39.7568880" lon="-0.3630910">
        <ele>208.0</ele>
        <time>2019-07-04T16:32:54Z</time>
      </trkpt>
      <trkpt lat="39.7569860" lon="-0.3630560">
        <ele>208.6</ele>
        <time>2019-07-04T16:32:56Z</time>
      </trkpt>
      <trkpt lat="39.7571640" lon="-0.3630080">
        <ele>208.8</ele>
        <time>2019-07-04T16:33:00Z</time>
      </trkpt>
      <trkpt lat="39.7572530" lon="-0.3629970">
        <ele>208.8</ele>
        <time>2019-07-04T16:33:02Z</time>
      </trkpt>
      <trkpt lat="39.7573980" lon="-0.3629910">
        <ele>209.2</ele>
        <time>2019-07-04T16:33:05Z</time>
      </trkpt>
      <trkpt lat="39.7575820" lon="-0.3629970">
        <ele>209.6</ele>
        <time>2019-07-04T16:33:09Z</time>
      </trkpt>
      <trkpt lat="39.7578100" lon="-0.3630540">
        <ele>209.6</ele>
        <time>2019-07-04T16:33:14Z</time>
      </trkpt>
      <trkpt lat="39.7579000" lon="-0.3630900">
        <ele>209.6</ele>
        <time>2019-07-04T16:33:16Z</time>
      </trkpt>
      <trkpt lat="39.7580820" lon="-0.3631880">
        <ele>210.0</ele>
        <time>2019-07-04T16:33:20Z</time>
      </trkpt>
      <trkpt lat="39.7581700" lon="-0.3632470">
        <ele>210.2</ele>
        <time>2019-07-04T16:33:22Z</time>
      </trkpt>
      <trkpt lat="39.7582130" lon="-0.3632750">
        <ele>210.2</ele>
        <time>2019-07-04T16:33:23Z</time>
      </trkpt>
      <trkpt lat="39.7585200" lon="-0.3635120">
        <ele>209.6</ele>
        <time>2019-07-04T16:33:30Z</time>
      </trkpt>
      <trkpt lat="39.7585990" lon="-0.3635950">
        <ele>209.6</ele>
        <time>2019-07-04T16:33:32Z</time>
      </trkpt>
      <trkpt lat="39.7588770" lon="-0.3638940">
        <ele>210.2</ele>
        <time>2019-07-04T16:33:39Z</time>
      </trkpt>
      <trkpt lat="39.7591650" lon="-0.3642010">
        <ele>210.2</ele>
        <time>2019-07-04T16:33:46Z</time>
      </trkpt>
      <trkpt lat="39.7594120" lon="-0.3644620">
        <ele>209.8</ele>
        <time>2019-07-04T16:33:52Z</time>
      </trkpt>
      <trkpt lat="39.7595780" lon="-0.3646300">
        <ele>209.8</ele>
        <time>2019-07-04T16:33:56Z</time>
      </trkpt>
      <trkpt lat="39.7598900" lon="-0.3648910">
        <ele>209.8</ele>
        <time>2019-07-04T16:34:03Z</time>
      </trkpt>
      <trkpt lat="39.7599870" lon="-0.3649480">
        <ele>210.0</ele>
        <time>2019-07-04T16:34:05Z</time>
      </trkpt>
      <trkpt lat="39.7601860" lon="-0.3650530">
        <ele>209.8</ele>
        <time>2019-07-04T16:34:09Z</time>
      </trkpt>
      <trkpt lat="39.7603920" lon="-0.3651500">
        <ele>210.0</ele>
        <time>2019-07-04T16:34:13Z</time>
      </trkpt>
      <trkpt lat="39.7607910" lon="-0.3652430">
        <ele>209.8</ele>
        <time>2019-07-04T16:34:20Z</time>
      </trkpt>
      <trkpt lat="39.7612750" lon="-0.3653620">
        <ele>210.2</ele>
        <time>2019-07-04T16:34:28Z</time>
      </trkpt>
      <trkpt lat="39.7618510" lon="-0.3654840">
        <ele>210.4</ele>
        <time>2019-07-04T16:34:37Z</time>
      </trkpt>
      <trkpt lat="39.7621000" lon="-0.3655400">
        <ele>210.0</ele>
        <time>2019-07-04T16:34:41Z</time>
      </trkpt>
      <trkpt lat="39.7623500" lon="-0.3655940">
        <ele>210.4</ele>
        <time>2019-07-04T16:34:45Z</time>
      </trkpt>
      <trkpt lat="39.7628380" lon="-0.3657110">
        <ele>209.8</ele>
        <time>2019-07-04T16:34:53Z</time>
      </trkpt>
      <trkpt lat="39.7633860" lon="-0.3658550">
        <ele>209.2</ele>
        <time>2019-07-04T16:35:02Z</time>
      </trkpt>
      <trkpt lat="39.7637970" lon="-0.3660340">
        <ele>209.4</ele>
        <time>2019-07-04T16:35:09Z</time>
      </trkpt>
      <trkpt lat="39.7639750" lon="-0.3661360">
        <ele>209.6</ele>
        <time>2019-07-04T16:35:12Z</time>
      </trkpt>
      <trkpt lat="39.7643190" lon="-0.3663720">
        <ele>209.4</ele>
        <time>2019-07-04T16:35:18Z</time>
      </trkpt>
      <trkpt lat="39.7645930" lon="-0.3665880">
        <ele>208.8</ele>
        <time>2019-07-04T16:35:23Z</time>
      </trkpt>
      <trkpt lat="39.7646420" lon="-0.3666380">
        <ele>208.8</ele>
        <time>2019-07-04T16:35:24Z</time>
      </trkpt>
      <trkpt lat="39.7649340" lon="-0.3669730">
        <ele>208.8</ele>
        <time>2019-07-04T16:35:30Z</time>
      </trkpt>
      <trkpt lat="39.7651970" lon="-0.3673490">
        <ele>208.2</ele>
        <time>2019-07-04T16:35:36Z</time>
      </trkpt>
      <trkpt lat="39.7654410" lon="-0.3677220">
        <ele>208.4</ele>
        <time>2019-07-04T16:35:42Z</time>
      </trkpt>
      <trkpt lat="39.7656910" lon="-0.3680920">
        <ele>208.4</ele>
        <time>2019-07-04T16:35:48Z</time>
      </trkpt>
      <trkpt lat="39.7657770" lon="-0.3682160">
        <ele>208.2</ele>
        <time>2019-07-04T16:35:50Z</time>
      </trkpt>
      <trkpt lat="39.7658210" lon="-0.3682760">
        <ele>208.0</ele>
        <time>2019-07-04T16:35:51Z</time>
      </trkpt>
      <trkpt lat="39.7661600" lon="-0.3687780">
        <ele>207.4</ele>
        <time>2019-07-04T16:35:59Z</time>
      </trkpt>
      <trkpt lat="39.7665090" lon="-0.3692910">
        <ele>207.4</ele>
        <time>2019-07-04T16:36:07Z</time>
      </trkpt>
      <trkpt lat="39.7667350" lon="-0.3696080">
        <ele>207.0</ele>
        <time>2019-07-04T16:36:12Z</time>
      </trkpt>
      <trkpt lat="39.7667820" lon="-0.3696690">
        <ele>207.0</ele>
        <time>2019-07-04T16:36:13Z</time>
      </trkpt>
      <trkpt lat="39.7668270" lon="-0.3697310">
        <ele>207.0</ele>
        <time>2019-07-04T16:36:14Z</time>
      </trkpt>
      <trkpt lat="39.7670660" lon="-0.3701190">
        <ele>206.8</ele>
        <time>2019-07-04T16:36:20Z</time>
      </trkpt>
      <trkpt lat="39.7673210" lon="-0.3705000">
        <ele>207.2</ele>
        <time>2019-07-04T16:36:26Z</time>
      </trkpt>
      <trkpt lat="39.7676680" lon="-0.3709050">
        <ele>206.2</ele>
        <time>2019-07-04T16:36:33Z</time>
      </trkpt>
      <trkpt lat="39.7680150" lon="-0.3711560">
        <ele>206.2</ele>
        <time>2019-07-04T16:36:39Z</time>
      </trkpt>
      <trkpt lat="39.7682040" lon="-0.3712390">
        <ele>206.2</ele>
        <time>2019-07-04T16:36:42Z</time>
      </trkpt>
      <trkpt lat="39.7684600" lon="-0.3713060">
        <ele>206.4</ele>
        <time>2019-07-04T16:36:46Z</time>
      </trkpt>
      <trkpt lat="39.7687790" lon="-0.3713160">
        <ele>206.2</ele>
        <time>2019-07-04T16:36:51Z</time>
      </trkpt>
      <trkpt lat="39.7688430" lon="-0.3713070">
        <ele>206.2</ele>
        <time>2019-07-04T16:36:52Z</time>
      </trkpt>
      <trkpt lat="39.7689060" lon="-0.3712960">
        <ele>206.2</ele>
        <time>2019-07-04T16:36:53Z</time>
      </trkpt>
      <trkpt lat="39.7692770" lon="-0.3712050">
        <ele>206.0</ele>
        <time>2019-07-04T16:36:59Z</time>
      </trkpt>
      <trkpt lat="39.7695660" lon="-0.3711160">
        <ele>206.2</ele>
        <time>2019-07-04T16:37:04Z</time>
      </trkpt>
      <trkpt lat="39.7697290" lon="-0.3710520">
        <ele>206.8</ele>
        <time>2019-07-04T16:37:07Z</time>
      </trkpt>
      <trkpt lat="39.7701020" lon="-0.3709330">
        <ele>207.2</ele>
        <time>2019-07-04T16:37:14Z</time>
      </trkpt>
      <trkpt lat="39.7701550" lon="-0.3709170">
        <ele>207.2</ele>
        <time>2019-07-04T16:37:15Z</time>
      </trkpt>
      <trkpt lat="39.7705730" lon="-0.3707870">
        <ele>207.4</ele>
        <time>2019-07-04T16:37:23Z</time>
      </trkpt>
      <trkpt lat="39.7710320" lon="-0.3706460">
        <ele>207.6</ele>
        <time>2019-07-04T16:37:32Z</time>
      </trkpt>
      <trkpt lat="39.7710820" lon="-0.3706340">
        <ele>208.2</ele>
        <time>2019-07-04T16:37:33Z</time>
      </trkpt>
      <trkpt lat="39.7714870" lon="-0.3705700">
        <ele>208.8</ele>
        <time>2019-07-04T16:37:41Z</time>
      </trkpt>
      <trkpt lat="39.7717440" lon="-0.3705820">
        <ele>209.4</ele>
        <time>2019-07-04T16:37:46Z</time>
      </trkpt>
      <trkpt lat="39.7718960" lon="-0.3705980">
        <ele>209.6</ele>
        <time>2019-07-04T16:37:49Z</time>
      </trkpt>
      <trkpt lat="39.7722040" lon="-0.3706630">
        <ele>210.4</ele>
        <time>2019-07-04T16:37:55Z</time>
      </trkpt>
      <trkpt lat="39.7723630" lon="-0.3706990">
        <ele>210.4</ele>
        <time>2019-07-04T16:37:58Z</time>
      </trkpt>
      <trkpt lat="39.7726820" lon="-0.3707830">
        <ele>211.0</ele>
        <time>2019-07-04T16:38:04Z</time>
      </trkpt>
      <trkpt lat="39.7727830" lon="-0.3708070">
        <ele>211.2</ele>
        <time>2019-07-04T16:38:06Z</time>
      </trkpt>
      <trkpt lat="39.7729300" lon="-0.3708370">
        <ele>211.4</ele>
        <time>2019-07-04T16:38:09Z</time>
      </trkpt>
      <trkpt lat="39.7732190" lon="-0.3709070">
        <ele>212.2</ele>
        <time>2019-07-04T16:38:15Z</time>
      </trkpt>
      <trkpt lat="39.7734560" lon="-0.3709590">
        <ele>212.4</ele>
        <time>2019-07-04T16:38:20Z</time>
      </trkpt>
      <trkpt lat="39.7736430" lon="-0.3709970">
        <ele>213.0</ele>
        <time>2019-07-04T16:38:24Z</time>
      </trkpt>
      <trkpt lat="39.7738340" lon="-0.3710400">
        <ele>213.4</ele>
        <time>2019-07-04T16:38:28Z</time>
      </trkpt>
      <trkpt lat="39.7740210" lon="-0.3710930">
        <ele>213.8</ele>
        <time>2019-07-04T16:38:32Z</time>
      </trkpt>
      <trkpt lat="39.7742480" lon="-0.3711630">
        <ele>214.4</ele>
        <time>2019-07-04T16:38:37Z</time>
      </trkpt>
      <trkpt lat="39.7742930" lon="-0.3711800">
        <ele>214.6</ele>
        <time>2019-07-04T16:38:38Z</time>
      </trkpt>
      <trkpt lat="39.7745560" lon="-0.3713030">
        <ele>215.6</ele>
        <time>2019-07-04T16:38:44Z</time>
      </trkpt>
      <trkpt lat="39.7747750" lon="-0.3714320">
        <ele>216.2</ele>
        <time>2019-07-04T16:38:49Z</time>
      </trkpt>
      <trkpt lat="39.7748650" lon="-0.3714860">
        <ele>216.2</ele>
        <time>2019-07-04T16:38:51Z</time>
      </trkpt>
      <trkpt lat="39.7749530" lon="-0.3715400">
        <ele>216.2</ele>
        <time>2019-07-04T16:38:53Z</time>
      </trkpt>
      <trkpt lat="39.7751340" lon="-0.3716600">
        <ele>216.6</ele>
        <time>2019-07-04T16:38:57Z</time>
      </trkpt>
      <trkpt lat="39.7754450" lon="-0.3719110">
        <ele>217.8</ele>
        <time>2019-07-04T16:39:04Z</time>
      </trkpt>
      <trkpt lat="39.7754910" lon="-0.3719490">
        <ele>217.8</ele>
        <time>2019-07-04T16:39:05Z</time>
      </trkpt>
      <trkpt lat="39.7758160" lon="-0.3722170">
        <ele>218.6</ele>
        <time>2019-07-04T16:39:12Z</time>
      </trkpt>
      <trkpt lat="39.7759090" lon="-0.3722970">
        <ele>218.8</ele>
        <time>2019-07-04T16:39:14Z</time>
      </trkpt>
      <trkpt lat="39.7761360" lon="-0.3725000">
        <ele>219.6</ele>
        <time>2019-07-04T16:39:19Z</time>
      </trkpt>
      <trkpt lat="39.7762260" lon="-0.3725770">
        <ele>219.6</ele>
        <time>2019-07-04T16:39:21Z</time>
      </trkpt>
      <trkpt lat="39.7763140" lon="-0.3726540">
        <ele>219.8</ele>
        <time>2019-07-04T16:39:23Z</time>
      </trkpt>
      <trkpt lat="39.7766300" lon="-0.3729250">
        <ele>220.2</ele>
        <time>2019-07-04T16:39:30Z</time>
      </trkpt>
      <trkpt lat="39.7766760" lon="-0.3729620">
        <ele>220.4</ele>
        <time>2019-07-04T16:39:31Z</time>
      </trkpt>
      <trkpt lat="39.7768150" lon="-0.3730750">
        <ele>220.8</ele>
        <time>2019-07-04T16:39:34Z</time>
      </trkpt>
      <trkpt lat="39.7770330" lon="-0.3732640">
        <ele>221.4</ele>
        <time>2019-07-04T16:39:39Z</time>
      </trkpt>
      <trkpt lat="39.7771200" lon="-0.3733390">
        <ele>221.8</ele>
        <time>2019-07-04T16:39:41Z</time>
      </trkpt>
      <trkpt lat="39.7773830" lon="-0.3735670">
        <ele>222.4</ele>
        <time>2019-07-04T16:39:47Z</time>
      </trkpt>
      <trkpt lat="39.7775160" lon="-0.3736830">
        <ele>223.0</ele>
        <time>2019-07-04T16:39:50Z</time>
      </trkpt>
      <trkpt lat="39.7777330" lon="-0.3738650">
        <ele>223.2</ele>
        <time>2019-07-04T16:39:55Z</time>
      </trkpt>
      <trkpt lat="39.7778720" lon="-0.3739670">
        <ele>223.4</ele>
        <time>2019-07-04T16:39:58Z</time>
      </trkpt>
      <trkpt lat="39.7779600" lon="-0.3740470">
        <ele>223.6</ele>
        <time>2019-07-04T16:40:00Z</time>
      </trkpt>
      <trkpt lat="39.7779960" lon="-0.3740930">
        <ele>223.4</ele>
        <time>2019-07-04T16:40:01Z</time>
      </trkpt>
      <trkpt lat="39.7780310" lon="-0.3741300">
        <ele>223.4</ele>
        <time>2019-07-04T16:40:02Z</time>
      </trkpt>
      <trkpt lat="39.7781090" lon="-0.3741470">
        <ele>222.8</ele>
        <time>2019-07-04T16:40:04Z</time>
      </trkpt>
      <trkpt lat="39.7782180" lon="-0.3740360">
        <ele>221.8</ele>
        <time>2019-07-04T16:40:07Z</time>
      </trkpt>
      <trkpt lat="39.7782580" lon="-0.3738430">
        <ele>221.0</ele>
        <time>2019-07-04T16:40:10Z</time>
      </trkpt>
      <trkpt lat="39.7783320" lon="-0.3737890">
        <ele>220.8</ele>
        <time>2019-07-04T16:40:12Z</time>
      </trkpt>
      <trkpt lat="39.7784500" lon="-0.3738760">
        <ele>221.0</ele>
        <time>2019-07-04T16:40:15Z</time>
      </trkpt>
      <trkpt lat="39.7787520" lon="-0.3742000">
        <ele>221.6</ele>
        <time>2019-07-04T16:40:23Z</time>
      </trkpt>
      <trkpt lat="39.7789100" lon="-0.3743670">
        <ele>221.8</ele>
        <time>2019-07-04T16:40:27Z</time>
      </trkpt>
      <trkpt lat="39.7790650" lon="-0.3745340">
        <ele>222.2</ele>
        <time>2019-07-04T16:40:31Z</time>
      </trkpt>
      <trkpt lat="39.7792150" lon="-0.3746970">
        <ele>222.8</ele>
        <time>2019-07-04T16:40:35Z</time>
      </trkpt>
      <trkpt lat="39.7793240" lon="-0.3748230">
        <ele>223.0</ele>
        <time>2019-07-04T16:40:38Z</time>
      </trkpt>
      <trkpt lat="39.7795390" lon="-0.3750800">
        <ele>223.8</ele>
        <time>2019-07-04T16:40:44Z</time>
      </trkpt>
      <trkpt lat="39.7795730" lon="-0.3751270">
        <ele>224.0</ele>
        <time>2019-07-04T16:40:45Z</time>
      </trkpt>
      <trkpt lat="39.7797060" lon="-0.3753130">
        <ele>224.8</ele>
        <time>2019-07-04T16:40:49Z</time>
      </trkpt>
      <trkpt lat="39.7798810" lon="-0.3755340">
        <ele>225.2</ele>
        <time>2019-07-04T16:40:54Z</time>
      </trkpt>
      <trkpt lat="39.7799940" lon="-0.3756520">
        <ele>226.0</ele>
        <time>2019-07-04T16:40:57Z</time>
      </trkpt>
      <trkpt lat="39.7801410" lon="-0.3758120">
        <ele>227.0</ele>
        <time>2019-07-04T16:41:01Z</time>
      </trkpt>
      <trkpt lat="39.7803530" lon="-0.3760720">
        <ele>227.8</ele>
        <time>2019-07-04T16:41:07Z</time>
      </trkpt>
      <trkpt lat="39.7803890" lon="-0.3761180">
        <ele>227.8</ele>
        <time>2019-07-04T16:41:08Z</time>
      </trkpt>
      <trkpt lat="39.7804600" lon="-0.3762110">
        <ele>228.0</ele>
        <time>2019-07-04T16:41:10Z</time>
      </trkpt>
      <trkpt lat="39.7806330" lon="-0.3764300">
        <ele>228.8</ele>
        <time>2019-07-04T16:41:15Z</time>
      </trkpt>
      <trkpt lat="39.7807050" lon="-0.3765170">
        <ele>229.6</ele>
        <time>2019-07-04T16:41:17Z</time>
      </trkpt>
      <trkpt lat="39.7808390" lon="-0.3766990">
        <ele>230.0</ele>
        <time>2019-07-04T16:41:21Z</time>
      </trkpt>
      <trkpt lat="39.7809030" lon="-0.3767870">
        <ele>230.2</ele>
        <time>2019-07-04T16:41:23Z</time>
      </trkpt>
      <trkpt lat="39.7809660" lon="-0.3768740">
        <ele>231.2</ele>
        <time>2019-07-04T16:41:25Z</time>
      </trkpt>
      <trkpt lat="39.7810920" lon="-0.3770380">
        <ele>231.6</ele>
        <time>2019-07-04T16:41:29Z</time>
      </trkpt>
      <trkpt lat="39.7811500" lon="-0.3771220">
        <ele>231.6</ele>
        <time>2019-07-04T16:41:31Z</time>
      </trkpt>
      <trkpt lat="39.7812720" lon="-0.3772880">
        <ele>232.2</ele>
        <time>2019-07-04T16:41:35Z</time>
      </trkpt>
      <trkpt lat="39.7813920" lon="-0.3774490">
        <ele>233.0</ele>
        <time>2019-07-04T16:41:39Z</time>
      </trkpt>
      <trkpt lat="39.7814210" lon="-0.3774900">
        <ele>233.2</ele>
        <time>2019-07-04T16:41:40Z</time>
      </trkpt>
      <trkpt lat="39.7814470" lon="-0.3775350">
        <ele>233.6</ele>
        <time>2019-07-04T16:41:41Z</time>
      </trkpt>
      <trkpt lat="39.7815090" lon="-0.3776760">
        <ele>233.8</ele>
        <time>2019-07-04T16:41:44Z</time>
      </trkpt>
      <trkpt lat="39.7815640" lon="-0.3778240">
        <ele>234.2</ele>
        <time>2019-07-04T16:41:47Z</time>
      </trkpt>
      <trkpt lat="39.7816280" lon="-0.3779930">
        <ele>234.6</ele>
        <time>2019-07-04T16:41:50Z</time>
      </trkpt>
      <trkpt lat="39.7818230" lon="-0.3784800">
        <ele>234.8</ele>
        <time>2019-07-04T16:41:58Z</time>
      </trkpt>
      <trkpt lat="39.7819420" lon="-0.3788430">
        <ele>235.2</ele>
        <time>2019-07-04T16:42:04Z</time>
      </trkpt>
      <trkpt lat="39.7819580" lon="-0.3789050">
        <ele>235.4</ele>
        <time>2019-07-04T16:42:05Z</time>
      </trkpt>
      <trkpt lat="39.7819910" lon="-0.3790280">
        <ele>235.6</ele>
        <time>2019-07-04T16:42:07Z</time>
      </trkpt>
      <trkpt lat="39.7820510" lon="-0.3793420">
        <ele>236.4</ele>
        <time>2019-07-04T16:42:12Z</time>
      </trkpt>
      <trkpt lat="39.7820730" lon="-0.3794630">
        <ele>236.8</ele>
        <time>2019-07-04T16:42:14Z</time>
      </trkpt>
      <trkpt lat="39.7820780" lon="-0.3795240">
        <ele>236.8</ele>
        <time>2019-07-04T16:42:15Z</time>
      </trkpt>
      <trkpt lat="39.7820970" lon="-0.3797830">
        <ele>237.4</ele>
        <time>2019-07-04T16:42:19Z</time>
      </trkpt>
      <trkpt lat="39.7820990" lon="-0.3798520">
        <ele>237.4</ele>
        <time>2019-07-04T16:42:20Z</time>
      </trkpt>
      <trkpt lat="39.7821140" lon="-0.3800460">
        <ele>238.0</ele>
        <time>2019-07-04T16:42:23Z</time>
      </trkpt>
      <trkpt lat="39.7821150" lon="-0.3801140">
        <ele>238.2</ele>
        <time>2019-07-04T16:42:24Z</time>
      </trkpt>
      <trkpt lat="39.7821130" lon="-0.3802450">
        <ele>238.2</ele>
        <time>2019-07-04T16:42:26Z</time>
      </trkpt>
      <trkpt lat="39.7820950" lon="-0.3804430">
        <ele>238.2</ele>
        <time>2019-07-04T16:42:29Z</time>
      </trkpt>
      <trkpt lat="39.7820700" lon="-0.3806420">
        <ele>238.6</ele>
        <time>2019-07-04T16:42:32Z</time>
      </trkpt>
      <trkpt lat="39.7820030" lon="-0.3809700">
        <ele>239.4</ele>
        <time>2019-07-04T16:42:37Z</time>
      </trkpt>
      <trkpt lat="39.7819380" lon="-0.3812240">
        <ele>239.6</ele>
        <time>2019-07-04T16:42:41Z</time>
      </trkpt>
      <trkpt lat="39.7818720" lon="-0.3814890">
        <ele>240.0</ele>
        <time>2019-07-04T16:42:45Z</time>
      </trkpt>
      <trkpt lat="39.7817520" lon="-0.3819540">
        <ele>240.8</ele>
        <time>2019-07-04T16:42:52Z</time>
      </trkpt>
      <trkpt lat="39.7817240" lon="-0.3820870">
        <ele>241.0</ele>
        <time>2019-07-04T16:42:54Z</time>
      </trkpt>
      <trkpt lat="39.7817220" lon="-0.3824840">
        <ele>240.4</ele>
        <time>2019-07-04T16:42:59Z</time>
      </trkpt>
      <trkpt lat="39.7817250" lon="-0.3827130">
        <ele>239.6</ele>
        <time>2019-07-04T16:43:01Z</time>
      </trkpt>
      <trkpt lat="39.7817340" lon="-0.3829710">
        <ele>237.8</ele>
        <time>2019-07-04T16:43:03Z</time>
      </trkpt>
      <trkpt lat="39.7817400" lon="-0.3831100">
        <ele>236.4</ele>
        <time>2019-07-04T16:43:04Z</time>
      </trkpt>
      <trkpt lat="39.7817570" lon="-0.3833950">
        <ele>234.8</ele>
        <time>2019-07-04T16:43:06Z</time>
      </trkpt>
      <trkpt lat="39.7817740" lon="-0.3836390">
        <ele>234.2</ele>
        <time>2019-07-04T16:43:08Z</time>
      </trkpt>
      <trkpt lat="39.7817580" lon="-0.3840270">
        <ele>234.8</ele>
        <time>2019-07-04T16:43:12Z</time>
      </trkpt>
      <trkpt lat="39.7817240" lon="-0.3842660">
        <ele>235.4</ele>
        <time>2019-07-04T16:43:15Z</time>
      </trkpt>
      <trkpt lat="39.7817010" lon="-0.3843890">
        <ele>235.8</ele>
        <time>2019-07-04T16:43:17Z</time>
      </trkpt>
      <trkpt lat="39.7816880" lon="-0.3844430">
        <ele>236.0</ele>
        <time>2019-07-04T16:43:18Z</time>
      </trkpt>
      <trkpt lat="39.7816430" lon="-0.3846490">
        <ele>237.2</ele>
        <time>2019-07-04T16:43:22Z</time>
      </trkpt>
      <trkpt lat="39.7816210" lon="-0.3847960">
        <ele>238.0</ele>
        <time>2019-07-04T16:43:25Z</time>
      </trkpt>
      <trkpt lat="39.7816160" lon="-0.3848450">
        <ele>238.4</ele>
        <time>2019-07-04T16:43:26Z</time>
      </trkpt>
      <trkpt lat="39.7815920" lon="-0.3849830">
        <ele>239.4</ele>
        <time>2019-07-04T16:43:29Z</time>
      </trkpt>
      <trkpt lat="39.7815710" lon="-0.3851090">
        <ele>240.4</ele>
        <time>2019-07-04T16:43:32Z</time>
      </trkpt>
      <trkpt lat="39.7815650" lon="-0.3851490">
        <ele>241.0</ele>
        <time>2019-07-04T16:43:33Z</time>
      </trkpt>
      <trkpt lat="39.7815550" lon="-0.3852700">
        <ele>241.8</ele>
        <time>2019-07-04T16:43:36Z</time>
      </trkpt>
      <trkpt lat="39.7815510" lon="-0.3853150">
        <ele>242.2</ele>
        <time>2019-07-04T16:43:37Z</time>
      </trkpt>
      <trkpt lat="39.7815500" lon="-0.3854120">
        <ele>242.8</ele>
        <time>2019-07-04T16:43:39Z</time>
      </trkpt>
      <trkpt lat="39.7815580" lon="-0.3855150">
        <ele>243.4</ele>
        <time>2019-07-04T16:43:41Z</time>
      </trkpt>
      <trkpt lat="39.7815790" lon="-0.3856220">
        <ele>243.4</ele>
        <time>2019-07-04T16:43:43Z</time>
      </trkpt>
      <trkpt lat="39.7816260" lon="-0.3857310">
        <ele>243.6</ele>
        <time>2019-07-04T16:43:45Z</time>
      </trkpt>
      <trkpt lat="39.7817600" lon="-0.3859930">
        <ele>244.0</ele>
        <time>2019-07-04T16:43:50Z</time>
      </trkpt>
      <trkpt lat="39.7818160" lon="-0.3860840">
        <ele>244.0</ele>
        <time>2019-07-04T16:43:52Z</time>
      </trkpt>
      <trkpt lat="39.7819000" lon="-0.3862330">
        <ele>244.4</ele>
        <time>2019-07-04T16:43:55Z</time>
      </trkpt>
      <trkpt lat="39.7819310" lon="-0.3862810">
        <ele>244.4</ele>
        <time>2019-07-04T16:43:56Z</time>
      </trkpt>
      <trkpt lat="39.7819870" lon="-0.3863740">
        <ele>244.8</ele>
        <time>2019-07-04T16:43:58Z</time>
      </trkpt>
      <trkpt lat="39.7820510" lon="-0.3864630">
        <ele>245.0</ele>
        <time>2019-07-04T16:44:00Z</time>
      </trkpt>
      <trkpt lat="39.7821860" lon="-0.3866280">
        <ele>245.2</ele>
        <time>2019-07-04T16:44:04Z</time>
      </trkpt>
      <trkpt lat="39.7822160" lon="-0.3866720">
        <ele>245.4</ele>
        <time>2019-07-04T16:44:05Z</time>
      </trkpt>
      <trkpt lat="39.7823460" lon="-0.3868510">
        <ele>246.0</ele>
        <time>2019-07-04T16:44:09Z</time>
      </trkpt>
      <trkpt lat="39.7824830" lon="-0.3870210">
        <ele>246.4</ele>
        <time>2019-07-04T16:44:13Z</time>
      </trkpt>
      <trkpt lat="39.7825180" lon="-0.3870640">
        <ele>246.6</ele>
        <time>2019-07-04T16:44:14Z</time>
      </trkpt>
      <trkpt lat="39.7825890" lon="-0.3871470">
        <ele>246.8</ele>
        <time>2019-07-04T16:44:16Z</time>
      </trkpt>
      <trkpt lat="39.7827590" lon="-0.3873590">
        <ele>247.6</ele>
        <time>2019-07-04T16:44:21Z</time>
      </trkpt>
      <trkpt lat="39.7828620" lon="-0.3874880">
        <ele>247.6</ele>
        <time>2019-07-04T16:44:24Z</time>
      </trkpt>
      <trkpt lat="39.7831040" lon="-0.3877900">
        <ele>248.0</ele>
        <time>2019-07-04T16:44:31Z</time>
      </trkpt>
      <trkpt lat="39.7832110" lon="-0.3879220">
        <ele>248.4</ele>
        <time>2019-07-04T16:44:34Z</time>
      </trkpt>
      <trkpt lat="39.7833150" lon="-0.3880570">
        <ele>248.6</ele>
        <time>2019-07-04T16:44:37Z</time>
      </trkpt>
      <trkpt lat="39.7834600" lon="-0.3882260">
        <ele>249.2</ele>
        <time>2019-07-04T16:44:41Z</time>
      </trkpt>
      <trkpt lat="39.7836510" lon="-0.3884680">
        <ele>249.6</ele>
        <time>2019-07-04T16:44:47Z</time>
      </trkpt>
      <trkpt lat="39.7836840" lon="-0.3885080">
        <ele>249.6</ele>
        <time>2019-07-04T16:44:48Z</time>
      </trkpt>
      <trkpt lat="39.7839200" lon="-0.3887880">
        <ele>250.8</ele>
        <time>2019-07-04T16:44:55Z</time>
      </trkpt>
      <trkpt lat="39.7839530" lon="-0.3888290">
        <ele>251.2</ele>
        <time>2019-07-04T16:44:56Z</time>
      </trkpt>
      <trkpt lat="39.7840560" lon="-0.3889510">
        <ele>251.6</ele>
        <time>2019-07-04T16:44:59Z</time>
      </trkpt>
      <trkpt lat="39.7841240" lon="-0.3890370">
        <ele>252.0</ele>
        <time>2019-07-04T16:45:01Z</time>
      </trkpt>
      <trkpt lat="39.7842630" lon="-0.3892100">
        <ele>252.8</ele>
        <time>2019-07-04T16:45:05Z</time>
      </trkpt>
      <trkpt lat="39.7845000" lon="-0.3895340">
        <ele>253.0</ele>
        <time>2019-07-04T16:45:12Z</time>
      </trkpt>
      <trkpt lat="39.7847660" lon="-0.3898660">
        <ele>253.6</ele>
        <time>2019-07-04T16:45:19Z</time>
      </trkpt>
      <trkpt lat="39.7849400" lon="-0.3900660">
        <ele>253.6</ele>
        <time>2019-07-04T16:45:23Z</time>
      </trkpt>
      <trkpt lat="39.7850230" lon="-0.3901740">
        <ele>253.6</ele>
        <time>2019-07-04T16:45:25Z</time>
      </trkpt>
      <trkpt lat="39.7851890" lon="-0.3903920">
        <ele>253.4</ele>
        <time>2019-07-04T16:45:29Z</time>
      </trkpt>
      <trkpt lat="39.7852740" lon="-0.3905010">
        <ele>253.0</ele>
        <time>2019-07-04T16:45:31Z</time>
      </trkpt>
      <trkpt lat="39.7854990" lon="-0.3907980">
        <ele>252.4</ele>
        <time>2019-07-04T16:45:36Z</time>
      </trkpt>
      <trkpt lat="39.7855940" lon="-0.3909120">
        <ele>252.6</ele>
        <time>2019-07-04T16:45:38Z</time>
      </trkpt>
      <trkpt lat="39.7858810" lon="-0.3912680">
        <ele>252.4</ele>
        <time>2019-07-04T16:45:44Z</time>
      </trkpt>
      <trkpt lat="39.7859300" lon="-0.3913290">
        <ele>252.4</ele>
        <time>2019-07-04T16:45:45Z</time>
      </trkpt>
      <trkpt lat="39.7861650" lon="-0.3916450">
        <ele>252.2</ele>
        <time>2019-07-04T16:45:50Z</time>
      </trkpt>
      <trkpt lat="39.7862110" lon="-0.3917100">
        <ele>252.2</ele>
        <time>2019-07-04T16:45:51Z</time>
      </trkpt>
      <trkpt lat="39.7865130" lon="-0.3921810">
        <ele>251.8</ele>
        <time>2019-07-04T16:45:58Z</time>
      </trkpt>
      <trkpt lat="39.7865520" lon="-0.3922530">
        <ele>251.6</ele>
        <time>2019-07-04T16:45:59Z</time>
      </trkpt>
      <trkpt lat="39.7866580" lon="-0.3924780">
        <ele>251.4</ele>
        <time>2019-07-04T16:46:02Z</time>
      </trkpt>
      <trkpt lat="39.7866890" lon="-0.3925600">
        <ele>251.2</ele>
        <time>2019-07-04T16:46:03Z</time>
      </trkpt>
      <trkpt lat="39.7867470" lon="-0.3927160">
        <ele>251.0</ele>
        <time>2019-07-04T16:46:05Z</time>
      </trkpt>
      <trkpt lat="39.7868790" lon="-0.3931060">
        <ele>251.0</ele>
        <time>2019-07-04T16:46:10Z</time>
      </trkpt>
      <trkpt lat="39.7870200" lon="-0.3936280">
        <ele>250.8</ele>
        <time>2019-07-04T16:46:17Z</time>
      </trkpt>
      <trkpt lat="39.7871060" lon="-0.3939030">
        <ele>251.4</ele>
        <time>2019-07-04T16:46:22Z</time>
      </trkpt>
      <trkpt lat="39.7871750" lon="-0.3939820">
        <ele>252.4</ele>
        <time>2019-07-04T16:46:25Z</time>
      </trkpt>
      <trkpt lat="39.7872090" lon="-0.3940030">
        <ele>252.6</ele>
        <time>2019-07-04T16:46:26Z</time>
      </trkpt>
      <trkpt lat="39.7873320" lon="-0.3940800">
        <ele>252.8</ele>
        <time>2019-07-04T16:46:29Z</time>
      </trkpt>
      <trkpt lat="39.7874100" lon="-0.3941690">
        <ele>252.0</ele>
        <time>2019-07-04T16:46:31Z</time>
      </trkpt>
      <trkpt lat="39.7874860" lon="-0.3943680">
        <ele>251.2</ele>
        <time>2019-07-04T16:46:34Z</time>
      </trkpt>
      <trkpt lat="39.7874980" lon="-0.3944450">
        <ele>251.0</ele>
        <time>2019-07-04T16:46:35Z</time>
      </trkpt>
      <trkpt lat="39.7875120" lon="-0.3947830">
        <ele>250.6</ele>
        <time>2019-07-04T16:46:39Z</time>
      </trkpt>
      <trkpt lat="39.7875150" lon="-0.3949660">
        <ele>250.2</ele>
        <time>2019-07-04T16:46:41Z</time>
      </trkpt>
      <trkpt lat="39.7875070" lon="-0.3950550">
        <ele>249.8</ele>
        <time>2019-07-04T16:46:42Z</time>
      </trkpt>
      <trkpt lat="39.7874840" lon="-0.3952280">
        <ele>249.4</ele>
        <time>2019-07-04T16:46:44Z</time>
      </trkpt>
      <trkpt lat="39.7874720" lon="-0.3953950">
        <ele>249.4</ele>
        <time>2019-07-04T16:46:46Z</time>
      </trkpt>
      <trkpt lat="39.7875010" lon="-0.3956240">
        <ele>249.4</ele>
        <time>2019-07-04T16:46:49Z</time>
      </trkpt>
      <trkpt lat="39.7875150" lon="-0.3957000">
        <ele>249.2</ele>
        <time>2019-07-04T16:46:50Z</time>
      </trkpt>
      <trkpt lat="39.7875240" lon="-0.3958570">
        <ele>248.6</ele>
        <time>2019-07-04T16:46:52Z</time>
      </trkpt>
      <trkpt lat="39.7875310" lon="-0.3960140">
        <ele>248.0</ele>
        <time>2019-07-04T16:46:54Z</time>
      </trkpt>
      <trkpt lat="39.7875470" lon="-0.3962530">
        <ele>248.0</ele>
        <time>2019-07-04T16:46:57Z</time>
      </trkpt>
      <trkpt lat="39.7875430" lon="-0.3965730">
        <ele>247.8</ele>
        <time>2019-07-04T16:47:01Z</time>
      </trkpt>
      <trkpt lat="39.7875400" lon="-0.3966530">
        <ele>247.6</ele>
        <time>2019-07-04T16:47:02Z</time>
      </trkpt>
      <trkpt lat="39.7875400" lon="-0.3969410">
        <ele>246.8</ele>
        <time>2019-07-04T16:47:06Z</time>
      </trkpt>
      <trkpt lat="39.7875330" lon="-0.3970050">
        <ele>246.4</ele>
        <time>2019-07-04T16:47:07Z</time>
      </trkpt>
      <trkpt lat="39.7874890" lon="-0.3971090">
        <ele>246.4</ele>
        <time>2019-07-04T16:47:09Z</time>
      </trkpt>
      <trkpt lat="39.7873630" lon="-0.3971990">
        <ele>246.4</ele>
        <time>2019-07-04T16:47:12Z</time>
      </trkpt>
      <trkpt lat="39.7873160" lon="-0.3972200">
        <ele>246.4</ele>
        <time>2019-07-04T16:47:13Z</time>
      </trkpt>
      <trkpt lat="39.7872240" lon="-0.3972370">
        <ele>246.4</ele>
        <time>2019-07-04T16:47:15Z</time>
      </trkpt>
      <trkpt lat="39.7871350" lon="-0.3972310">
        <ele>246.6</ele>
        <time>2019-07-04T16:47:17Z</time>
      </trkpt>
      <trkpt lat="39.7870580" lon="-0.3972040">
        <ele>247.4</ele>
        <time>2019-07-04T16:47:19Z</time>
      </trkpt>
      <trkpt lat="39.7868940" lon="-0.3971690">
        <ele>248.0</ele>
        <time>2019-07-04T16:47:23Z</time>
      </trkpt>
      <trkpt lat="39.7867850" lon="-0.3972070">
        <ele>248.8</ele>
        <time>2019-07-04T16:47:26Z</time>
      </trkpt>
      <trkpt lat="39.7867600" lon="-0.3972350">
        <ele>249.4</ele>
        <time>2019-07-04T16:47:27Z</time>
      </trkpt>
      <trkpt lat="39.7867400" lon="-0.3972700">
        <ele>249.8</ele>
        <time>2019-07-04T16:47:28Z</time>
      </trkpt>
      <trkpt lat="39.7866940" lon="-0.3974260">
        <ele>250.0</ele>
        <time>2019-07-04T16:47:31Z</time>
      </trkpt>
      <trkpt lat="39.7866460" lon="-0.3976050">
        <ele>249.6</ele>
        <time>2019-07-04T16:47:34Z</time>
      </trkpt>
      <trkpt lat="39.7866180" lon="-0.3977390">
        <ele>249.6</ele>
        <time>2019-07-04T16:47:36Z</time>
      </trkpt>
      <trkpt lat="39.7865040" lon="-0.3982460">
        <ele>249.4</ele>
        <time>2019-07-04T16:47:43Z</time>
      </trkpt>
      <trkpt lat="39.7863950" lon="-0.3987770">
        <ele>249.4</ele>
        <time>2019-07-04T16:47:50Z</time>
      </trkpt>
      <trkpt lat="39.7863090" lon="-0.3991570">
        <ele>249.4</ele>
        <time>2019-07-04T16:47:55Z</time>
      </trkpt>
      <trkpt lat="39.7862770" lon="-0.3993070">
        <ele>249.4</ele>
        <time>2019-07-04T16:47:57Z</time>
      </trkpt>
      <trkpt lat="39.7861720" lon="-0.3997440">
        <ele>249.0</ele>
        <time>2019-07-04T16:48:03Z</time>
      </trkpt>
      <trkpt lat="39.7861140" lon="-0.3999660">
        <ele>248.6</ele>
        <time>2019-07-04T16:48:06Z</time>
      </trkpt>
      <trkpt lat="39.7860320" lon="-0.4002660">
        <ele>248.8</ele>
        <time>2019-07-04T16:48:10Z</time>
      </trkpt>
      <trkpt lat="39.7859280" lon="-0.4006420">
        <ele>248.4</ele>
        <time>2019-07-04T16:48:15Z</time>
      </trkpt>
      <trkpt lat="39.7859110" lon="-0.4007160">
        <ele>248.4</ele>
        <time>2019-07-04T16:48:16Z</time>
      </trkpt>
      <trkpt lat="39.7858400" lon="-0.4011920">
        <ele>248.2</ele>
        <time>2019-07-04T16:48:22Z</time>
      </trkpt>
      <trkpt lat="39.7857120" lon="-0.4018030">
        <ele>247.6</ele>
        <time>2019-07-04T16:48:30Z</time>
      </trkpt>
      <trkpt lat="39.7856960" lon="-0.4018790">
        <ele>247.6</ele>
        <time>2019-07-04T16:48:31Z</time>
      </trkpt>
      <trkpt lat="39.7856110" lon="-0.4024310">
        <ele>246.8</ele>
        <time>2019-07-04T16:48:38Z</time>
      </trkpt>
      <trkpt lat="39.7856190" lon="-0.4029110">
        <ele>247.2</ele>
        <time>2019-07-04T16:48:44Z</time>
      </trkpt>
      <trkpt lat="39.7856960" lon="-0.4034970">
        <ele>246.6</ele>
        <time>2019-07-04T16:48:51Z</time>
      </trkpt>
      <trkpt lat="39.7857120" lon="-0.4035810">
        <ele>246.6</ele>
        <time>2019-07-04T16:48:52Z</time>
      </trkpt>
      <trkpt lat="39.7858410" lon="-0.4042150">
        <ele>246.2</ele>
        <time>2019-07-04T16:49:00Z</time>
      </trkpt>
      <trkpt lat="39.7859580" lon="-0.4047530">
        <ele>245.8</ele>
        <time>2019-07-04T16:49:07Z</time>
      </trkpt>
      <trkpt lat="39.7860080" lon="-0.4049890">
        <ele>245.8</ele>
        <time>2019-07-04T16:49:10Z</time>
      </trkpt>
      <trkpt lat="39.7860280" lon="-0.4050680">
        <ele>245.4</ele>
        <time>2019-07-04T16:49:11Z</time>
      </trkpt>
      <trkpt lat="39.7860440" lon="-0.4051480">
        <ele>245.2</ele>
        <time>2019-07-04T16:49:12Z</time>
      </trkpt>
      <trkpt lat="39.7860740" lon="-0.4053040">
        <ele>245.8</ele>
        <time>2019-07-04T16:49:14Z</time>
      </trkpt>
      <trkpt lat="39.7861400" lon="-0.4056190">
        <ele>246.4</ele>
        <time>2019-07-04T16:49:18Z</time>
      </trkpt>
      <trkpt lat="39.7861570" lon="-0.4056990">
        <ele>246.6</ele>
        <time>2019-07-04T16:49:19Z</time>
      </trkpt>
      <trkpt lat="39.7862640" lon="-0.4062440">
        <ele>246.4</ele>
        <time>2019-07-04T16:49:26Z</time>
      </trkpt>
      <trkpt lat="39.7863360" lon="-0.4066320">
        <ele>245.6</ele>
        <time>2019-07-04T16:49:31Z</time>
      </trkpt>
      <trkpt lat="39.7863500" lon="-0.4067110">
        <ele>245.6</ele>
        <time>2019-07-04T16:49:32Z</time>
      </trkpt>
      <trkpt lat="39.7863630" lon="-0.4067880">
        <ele>245.6</ele>
        <time>2019-07-04T16:49:33Z</time>
      </trkpt>
      <trkpt lat="39.7864840" lon="-0.4073940">
        <ele>245.4</ele>
        <time>2019-07-04T16:49:41Z</time>
      </trkpt>
      <trkpt lat="39.7865620" lon="-0.4077980">
        <ele>245.8</ele>
        <time>2019-07-04T16:49:47Z</time>
      </trkpt>
      <trkpt lat="39.7865740" lon="-0.4078650">
        <ele>245.8</ele>
        <time>2019-07-04T16:49:48Z</time>
      </trkpt>
      <trkpt lat="39.7866610" lon="-0.4083210">
        <ele>245.8</ele>
        <time>2019-07-04T16:49:55Z</time>
      </trkpt>
      <trkpt lat="39.7867100" lon="-0.4085040">
        <ele>246.2</ele>
        <time>2019-07-04T16:49:58Z</time>
      </trkpt>
      <trkpt lat="39.7867310" lon="-0.4085610">
        <ele>246.4</ele>
        <time>2019-07-04T16:49:59Z</time>
      </trkpt>
      <trkpt lat="39.7867920" lon="-0.4087420">
        <ele>246.6</ele>
        <time>2019-07-04T16:50:02Z</time>
      </trkpt>
      <trkpt lat="39.7869160" lon="-0.4090440">
        <ele>247.0</ele>
        <time>2019-07-04T16:50:07Z</time>
      </trkpt>
      <trkpt lat="39.7870050" lon="-0.4092160">
        <ele>247.4</ele>
        <time>2019-07-04T16:50:10Z</time>
      </trkpt>
      <trkpt lat="39.7870360" lon="-0.4092720">
        <ele>247.4</ele>
        <time>2019-07-04T16:50:11Z</time>
      </trkpt>
      <trkpt lat="39.7871750" lon="-0.4094650">
        <ele>248.0</ele>
        <time>2019-07-04T16:50:15Z</time>
      </trkpt>
      <trkpt lat="39.7872160" lon="-0.4095110">
        <ele>248.0</ele>
        <time>2019-07-04T16:50:16Z</time>
      </trkpt>
      <trkpt lat="39.7873360" lon="-0.4096480">
        <ele>248.0</ele>
        <time>2019-07-04T16:50:19Z</time>
      </trkpt>
      <trkpt lat="39.7874220" lon="-0.4097270">
        <ele>248.0</ele>
        <time>2019-07-04T16:50:21Z</time>
      </trkpt>
      <trkpt lat="39.7877910" lon="-0.4099810">
        <ele>248.4</ele>
        <time>2019-07-04T16:50:29Z</time>
      </trkpt>
      <trkpt lat="39.7878370" lon="-0.4100100">
        <ele>248.4</ele>
        <time>2019-07-04T16:50:30Z</time>
      </trkpt>
      <trkpt lat="39.7881980" lon="-0.4102440">
        <ele>249.0</ele>
        <time>2019-07-04T16:50:38Z</time>
      </trkpt>
      <trkpt lat="39.7883250" lon="-0.4103250">
        <ele>249.4</ele>
        <time>2019-07-04T16:50:41Z</time>
      </trkpt>
      <trkpt lat="39.7884070" lon="-0.4103800">
        <ele>249.4</ele>
        <time>2019-07-04T16:50:43Z</time>
      </trkpt>
      <trkpt lat="39.7884500" lon="-0.4104000">
        <ele>249.6</ele>
        <time>2019-07-04T16:50:44Z</time>
      </trkpt>
      <trkpt lat="39.7885410" lon="-0.4104390">
        <ele>249.8</ele>
        <time>2019-07-04T16:50:46Z</time>
      </trkpt>
      <trkpt lat="39.7886700" lon="-0.4105210">
        <ele>249.8</ele>
        <time>2019-07-04T16:50:49Z</time>
      </trkpt>
      <trkpt lat="39.7890600" lon="-0.4107810">
        <ele>249.8</ele>
        <time>2019-07-04T16:50:58Z</time>
      </trkpt>
      <trkpt lat="39.7893680" lon="-0.4109900">
        <ele>250.4</ele>
        <time>2019-07-04T16:51:05Z</time>
      </trkpt>
      <trkpt lat="39.7896990" lon="-0.4112010">
        <ele>250.6</ele>
        <time>2019-07-04T16:51:12Z</time>
      </trkpt>
      <trkpt lat="39.7900720" lon="-0.4114470">
        <ele>251.2</ele>
        <time>2019-07-04T16:51:20Z</time>
      </trkpt>
      <trkpt lat="39.7901190" lon="-0.4114780">
        <ele>251.4</ele>
        <time>2019-07-04T16:51:21Z</time>
      </trkpt>
      <trkpt lat="39.7904480" lon="-0.4116850">
        <ele>251.8</ele>
        <time>2019-07-04T16:51:28Z</time>
      </trkpt>
      <trkpt lat="39.7908120" lon="-0.4119320">
        <ele>252.4</ele>
        <time>2019-07-04T16:51:36Z</time>
      </trkpt>
      <trkpt lat="39.7909510" lon="-0.4120190">
        <ele>252.6</ele>
        <time>2019-07-04T16:51:39Z</time>
      </trkpt>
      <trkpt lat="39.7911790" lon="-0.4121700">
        <ele>253.4</ele>
        <time>2019-07-04T16:51:44Z</time>
      </trkpt>
      <trkpt lat="39.7913620" lon="-0.4122920">
        <ele>253.6</ele>
        <time>2019-07-04T16:51:48Z</time>
      </trkpt>
      <trkpt lat="39.7915020" lon="-0.4123870">
        <ele>253.6</ele>
        <time>2019-07-04T16:51:51Z</time>
      </trkpt>
      <trkpt lat="39.7918720" lon="-0.4126230">
        <ele>254.0</ele>
        <time>2019-07-04T16:51:59Z</time>
      </trkpt>
      <trkpt lat="39.7921450" lon="-0.4128030">
        <ele>254.6</ele>
        <time>2019-07-04T16:52:05Z</time>
      </trkpt>
      <trkpt lat="39.7921920" lon="-0.4128330">
        <ele>254.6</ele>
        <time>2019-07-04T16:52:06Z</time>
      </trkpt>
      <trkpt lat="39.7925170" lon="-0.4130490">
        <ele>255.0</ele>
        <time>2019-07-04T16:52:13Z</time>
      </trkpt>
      <trkpt lat="39.7929440" lon="-0.4133260">
        <ele>255.0</ele>
        <time>2019-07-04T16:52:22Z</time>
      </trkpt>
      <trkpt lat="39.7931230" lon="-0.4134680">
        <ele>255.4</ele>
        <time>2019-07-04T16:52:26Z</time>
      </trkpt>
      <trkpt lat="39.7932560" lon="-0.4135830">
        <ele>255.8</ele>
        <time>2019-07-04T16:52:29Z</time>
      </trkpt>
      <trkpt lat="39.7935940" lon="-0.4139180">
        <ele>256.4</ele>
        <time>2019-07-04T16:52:37Z</time>
      </trkpt>
      <trkpt lat="39.7936780" lon="-0.4140120">
        <ele>256.6</ele>
        <time>2019-07-04T16:52:39Z</time>
      </trkpt>
      <trkpt lat="39.7938790" lon="-0.4142630">
        <ele>257.0</ele>
        <time>2019-07-04T16:52:44Z</time>
      </trkpt>
      <trkpt lat="39.7940770" lon="-0.4145200">
        <ele>257.6</ele>
        <time>2019-07-04T16:52:49Z</time>
      </trkpt>
      <trkpt lat="39.7942290" lon="-0.4147440">
        <ele>257.8</ele>
        <time>2019-07-04T16:52:53Z</time>
      </trkpt>
      <trkpt lat="39.7945820" lon="-0.4152290">
        <ele>258.0</ele>
        <time>2019-07-04T16:53:02Z</time>
      </trkpt>
      <trkpt lat="39.7947770" lon="-0.4155000">
        <ele>258.8</ele>
        <time>2019-07-04T16:53:07Z</time>
      </trkpt>
      <trkpt lat="39.7948160" lon="-0.4155550">
        <ele>258.8</ele>
        <time>2019-07-04T16:53:08Z</time>
      </trkpt>
      <trkpt lat="39.7951890" lon="-0.4161040">
        <ele>259.4</ele>
        <time>2019-07-04T16:53:18Z</time>
      </trkpt>
      <trkpt lat="39.7952260" lon="-0.4161590">
        <ele>259.6</ele>
        <time>2019-07-04T16:53:19Z</time>
      </trkpt>
      <trkpt lat="39.7953380" lon="-0.4163270">
        <ele>259.8</ele>
        <time>2019-07-04T16:53:22Z</time>
      </trkpt>
      <trkpt lat="39.7955280" lon="-0.4166010">
        <ele>260.2</ele>
        <time>2019-07-04T16:53:27Z</time>
      </trkpt>
      <trkpt lat="39.7957500" lon="-0.4169210">
        <ele>261.0</ele>
        <time>2019-07-04T16:53:33Z</time>
      </trkpt>
      <trkpt lat="39.7961280" lon="-0.4174760">
        <ele>261.6</ele>
        <time>2019-07-04T16:53:43Z</time>
      </trkpt>
      <trkpt lat="39.7962040" lon="-0.4175840">
        <ele>261.8</ele>
        <time>2019-07-04T16:53:45Z</time>
      </trkpt>
      <trkpt lat="39.7964670" lon="-0.4179630">
        <ele>262.2</ele>
        <time>2019-07-04T16:53:52Z</time>
      </trkpt>
      <trkpt lat="39.7967640" lon="-0.4183980">
        <ele>262.8</ele>
        <time>2019-07-04T16:54:00Z</time>
      </trkpt>
      <trkpt lat="39.7968740" lon="-0.4185590">
        <ele>263.0</ele>
        <time>2019-07-04T16:54:03Z</time>
      </trkpt>
      <trkpt lat="39.7972040" lon="-0.4190410">
        <ele>263.6</ele>
        <time>2019-07-04T16:54:12Z</time>
      </trkpt>
      <trkpt lat="39.7972720" lon="-0.4191570">
        <ele>263.8</ele>
        <time>2019-07-04T16:54:14Z</time>
      </trkpt>
      <trkpt lat="39.7973020" lon="-0.4192170">
        <ele>264.4</ele>
        <time>2019-07-04T16:54:15Z</time>
      </trkpt>
      <trkpt lat="39.7973340" lon="-0.4192750">
        <ele>264.6</ele>
        <time>2019-07-04T16:54:16Z</time>
      </trkpt>
      <trkpt lat="39.7973720" lon="-0.4193280">
        <ele>264.6</ele>
        <time>2019-07-04T16:54:17Z</time>
      </trkpt>
      <trkpt lat="39.7977120" lon="-0.4198150">
        <ele>264.8</ele>
        <time>2019-07-04T16:54:26Z</time>
      </trkpt>
      <trkpt lat="39.7979060" lon="-0.4200630">
        <ele>265.4</ele>
        <time>2019-07-04T16:54:31Z</time>
      </trkpt>
      <trkpt lat="39.7980190" lon="-0.4202200">
        <ele>266.2</ele>
        <time>2019-07-04T16:54:34Z</time>
      </trkpt>
      <trkpt lat="39.7981550" lon="-0.4204170">
        <ele>266.2</ele>
        <time>2019-07-04T16:54:38Z</time>
      </trkpt>
      <trkpt lat="39.7982260" lon="-0.4204580">
        <ele>266.2</ele>
        <time>2019-07-04T16:54:40Z</time>
      </trkpt>
      <trkpt lat="39.7983430" lon="-0.4203970">
        <ele>266.0</ele>
        <time>2019-07-04T16:54:43Z</time>
      </trkpt>
      <trkpt lat="39.7983860" lon="-0.4203620">
        <ele>266.0</ele>
        <time>2019-07-04T16:54:44Z</time>
      </trkpt>
      <trkpt lat="39.7984310" lon="-0.4203320">
        <ele>266.0</ele>
        <time>2019-07-04T16:54:45Z</time>
      </trkpt>
      <trkpt lat="39.7985200" lon="-0.4203210">
        <ele>265.6</ele>
        <time>2019-07-04T16:54:47Z</time>
      </trkpt>
      <trkpt lat="39.7986800" lon="-0.4204720">
        <ele>264.4</ele>
        <time>2019-07-04T16:54:51Z</time>
      </trkpt>
      <trkpt lat="39.7987140" lon="-0.4205240">
        <ele>264.2</ele>
        <time>2019-07-04T16:54:52Z</time>
      </trkpt>
      <trkpt lat="39.7988120" lon="-0.4206870">
        <ele>264.2</ele>
        <time>2019-07-04T16:54:55Z</time>
      </trkpt>
      <trkpt lat="39.7989370" lon="-0.4209320">
        <ele>264.2</ele>
        <time>2019-07-04T16:54:59Z</time>
      </trkpt>
      <trkpt lat="39.7991020" lon="-0.4212600">
        <ele>264.0</ele>
        <time>2019-07-04T16:55:04Z</time>
      </trkpt>
      <trkpt lat="39.7992050" lon="-0.4214740">
        <ele>263.8</ele>
        <time>2019-07-04T16:55:07Z</time>
      </trkpt>
      <trkpt lat="39.7992970" lon="-0.4216810">
        <ele>263.4</ele>
        <time>2019-07-04T16:55:10Z</time>
      </trkpt>
      <trkpt lat="39.7993840" lon="-0.4218620">
        <ele>263.6</ele>
        <time>2019-07-04T16:55:13Z</time>
      </trkpt>
      <trkpt lat="39.7995520" lon="-0.4221860">
        <ele>264.4</ele>
        <time>2019-07-04T16:55:19Z</time>
      </trkpt>
      <trkpt lat="39.7995800" lon="-0.4222390">
        <ele>264.6</ele>
        <time>2019-07-04T16:55:20Z</time>
      </trkpt>
      <trkpt lat="39.7997740" lon="-0.4226320">
        <ele>265.4</ele>
        <time>2019-07-04T16:55:27Z</time>
      </trkpt>
      <trkpt lat="39.7998340" lon="-0.4227500">
        <ele>265.6</ele>
        <time>2019-07-04T16:55:29Z</time>
      </trkpt>
      <trkpt lat="39.8001170" lon="-0.4233040">
        <ele>266.0</ele>
        <time>2019-07-04T16:55:38Z</time>
      </trkpt>
      <trkpt lat="39.8002980" lon="-0.4236760">
        <ele>266.4</ele>
        <time>2019-07-04T16:55:44Z</time>
      </trkpt>
      <trkpt lat="39.8003590" lon="-0.4238030">
        <ele>266.6</ele>
        <time>2019-07-04T16:55:46Z</time>
      </trkpt>
      <trkpt lat="39.8006670" lon="-0.4243610">
        <ele>266.6</ele>
        <time>2019-07-04T16:55:55Z</time>
      </trkpt>
      <trkpt lat="39.8009140" lon="-0.4246960">
        <ele>266.4</ele>
        <time>2019-07-04T16:56:01Z</time>
      </trkpt>
      <trkpt lat="39.8012630" lon="-0.4252500">
        <ele>266.4</ele>
        <time>2019-07-04T16:56:10Z</time>
      </trkpt>
      <trkpt lat="39.8016620" lon="-0.4257650">
        <ele>266.8</ele>
        <time>2019-07-04T16:56:20Z</time>
      </trkpt>
      <trkpt lat="39.8018150" lon="-0.4259400">
        <ele>266.8</ele>
        <time>2019-07-04T16:56:24Z</time>
      </trkpt>
      <trkpt lat="39.8019240" lon="-0.4260510">
        <ele>267.2</ele>
        <time>2019-07-04T16:56:27Z</time>
      </trkpt>
      <trkpt lat="39.8020680" lon="-0.4261950">
        <ele>268.0</ele>
        <time>2019-07-04T16:56:31Z</time>
      </trkpt>
      <trkpt lat="39.8021400" lon="-0.4262670">
        <ele>268.4</ele>
        <time>2019-07-04T16:56:33Z</time>
      </trkpt>
      <trkpt lat="39.8023910" lon="-0.4265320">
        <ele>269.2</ele>
        <time>2019-07-04T16:56:40Z</time>
      </trkpt>
      <trkpt lat="39.8024650" lon="-0.4265990">
        <ele>269.4</ele>
        <time>2019-07-04T16:56:42Z</time>
      </trkpt>
      <trkpt lat="39.8026070" lon="-0.4267100">
        <ele>270.0</ele>
        <time>2019-07-04T16:56:46Z</time>
      </trkpt>
      <trkpt lat="39.8026410" lon="-0.4267340">
        <ele>270.4</ele>
        <time>2019-07-04T16:56:47Z</time>
      </trkpt>
      <trkpt lat="39.8028180" lon="-0.4268540">
        <ele>271.6</ele>
        <time>2019-07-04T16:56:52Z</time>
      </trkpt>
      <trkpt lat="39.8030720" lon="-0.4270570">
        <ele>271.6</ele>
        <time>2019-07-04T16:56:58Z</time>
      </trkpt>
      <trkpt lat="39.8034470" lon="-0.4273370">
        <ele>270.8</ele>
        <time>2019-07-04T16:57:05Z</time>
      </trkpt>
      <trkpt lat="39.8034960" lon="-0.4273810">
        <ele>270.6</ele>
        <time>2019-07-04T16:57:06Z</time>
      </trkpt>
      <trkpt lat="39.8035950" lon="-0.4274640">
        <ele>270.4</ele>
        <time>2019-07-04T16:57:08Z</time>
      </trkpt>
      <trkpt lat="39.8037470" lon="-0.4275260">
        <ele>270.8</ele>
        <time>2019-07-04T16:57:11Z</time>
      </trkpt>
      <trkpt lat="39.8038360" lon="-0.4275410">
        <ele>271.0</ele>
        <time>2019-07-04T16:57:13Z</time>
      </trkpt>
      <trkpt lat="39.8039610" lon="-0.4275820">
        <ele>271.8</ele>
        <time>2019-07-04T16:57:16Z</time>
      </trkpt>
      <trkpt lat="39.8040020" lon="-0.4275990">
        <ele>272.0</ele>
        <time>2019-07-04T16:57:17Z</time>
      </trkpt>
      <trkpt lat="39.8042660" lon="-0.4277130">
        <ele>272.4</ele>
        <time>2019-07-04T16:57:23Z</time>
      </trkpt>
      <trkpt lat="39.8045760" lon="-0.4278300">
        <ele>272.2</ele>
        <time>2019-07-04T16:57:29Z</time>
      </trkpt>
      <trkpt lat="39.8048320" lon="-0.4279820">
        <ele>272.2</ele>
        <time>2019-07-04T16:57:34Z</time>
      </trkpt>
      <trkpt lat="39.8048860" lon="-0.4280070">
        <ele>272.2</ele>
        <time>2019-07-04T16:57:35Z</time>
      </trkpt>
      <trkpt lat="39.8051940" lon="-0.4280920">
        <ele>272.2</ele>
        <time>2019-07-04T16:57:41Z</time>
      </trkpt>
      <trkpt lat="39.8053310" lon="-0.4281310">
        <ele>272.6</ele>
        <time>2019-07-04T16:57:44Z</time>
      </trkpt>
      <trkpt lat="39.8055570" lon="-0.4282100">
        <ele>273.4</ele>
        <time>2019-07-04T16:57:49Z</time>
      </trkpt>
      <trkpt lat="39.8056730" lon="-0.4282870">
        <ele>273.8</ele>
        <time>2019-07-04T16:57:52Z</time>
      </trkpt>
      <trkpt lat="39.8057130" lon="-0.4282880">
        <ele>274.0</ele>
        <time>2019-07-04T16:57:53Z</time>
      </trkpt>
      <trkpt lat="39.8058290" lon="-0.4282500">
        <ele>274.4</ele>
        <time>2019-07-04T16:57:56Z</time>
      </trkpt>
      <trkpt lat="39.8059070" lon="-0.4283460">
        <ele>274.8</ele>
        <time>2019-07-04T16:57:59Z</time>
      </trkpt>
      <trkpt lat="39.8059240" lon="-0.4283880">
        <ele>274.8</ele>
        <time>2019-07-04T16:58:00Z</time>
      </trkpt>
      <trkpt lat="39.8060220" lon="-0.4285720">
        <ele>276.0</ele>
        <time>2019-07-04T16:58:05Z</time>
      </trkpt>
      <trkpt lat="39.8061060" lon="-0.4287090">
        <ele>277.0</ele>
        <time>2019-07-04T16:58:09Z</time>
      </trkpt>
      <trkpt lat="39.8061300" lon="-0.4287450">
        <ele>277.0</ele>
        <time>2019-07-04T16:58:10Z</time>
      </trkpt>
      <trkpt lat="39.8061720" lon="-0.4288260">
        <ele>277.4</ele>
        <time>2019-07-04T16:58:12Z</time>
      </trkpt>
      <trkpt lat="39.8062190" lon="-0.4289480">
        <ele>278.2</ele>
        <time>2019-07-04T16:58:15Z</time>
      </trkpt>
      <trkpt lat="39.8062870" lon="-0.4290860">
        <ele>279.2</ele>
        <time>2019-07-04T16:58:19Z</time>
      </trkpt>
      <trkpt lat="39.8063340" lon="-0.4291910">
        <ele>280.2</ele>
        <time>2019-07-04T16:58:22Z</time>
      </trkpt>
      <trkpt lat="39.8063540" lon="-0.4292230">
        <ele>280.6</ele>
        <time>2019-07-04T16:58:23Z</time>
      </trkpt>
      <trkpt lat="39.8064020" lon="-0.4293260">
        <ele>281.4</ele>
        <time>2019-07-04T16:58:26Z</time>
      </trkpt>
      <trkpt lat="39.8064320" lon="-0.4293950">
        <ele>281.6</ele>
        <time>2019-07-04T16:58:28Z</time>
      </trkpt>
      <trkpt lat="39.8064940" lon="-0.4295160">
        <ele>282.8</ele>
        <time>2019-07-04T16:58:32Z</time>
      </trkpt>
      <trkpt lat="39.8065520" lon="-0.4296200">
        <ele>284.2</ele>
        <time>2019-07-04T16:58:36Z</time>
      </trkpt>
      <trkpt lat="39.8065960" lon="-0.4297010">
        <ele>285.4</ele>
        <time>2019-07-04T16:58:39Z</time>
      </trkpt>
      <trkpt lat="39.8066100" lon="-0.4297250">
        <ele>285.6</ele>
        <time>2019-07-04T16:58:40Z</time>
      </trkpt>
      <trkpt lat="39.8066640" lon="-0.4298340">
        <ele>286.4</ele>
        <time>2019-07-04T16:58:44Z</time>
      </trkpt>
      <trkpt lat="39.8066940" lon="-0.4298920">
        <ele>286.8</ele>
        <time>2019-07-04T16:58:46Z</time>
      </trkpt>
      <trkpt lat="39.8067310" lon="-0.4299400">
        <ele>287.4</ele>
        <time>2019-07-04T16:58:48Z</time>
      </trkpt>
      <trkpt lat="39.8067920" lon="-0.4300060">
        <ele>288.0</ele>
        <time>2019-07-04T16:58:51Z</time>
      </trkpt>
      <trkpt lat="39.8068380" lon="-0.4300880">
        <ele>288.4</ele>
        <time>2019-07-04T16:58:54Z</time>
      </trkpt>
      <trkpt lat="39.8069120" lon="-0.4301780">
        <ele>289.4</ele>
        <time>2019-07-04T16:58:58Z</time>
      </trkpt>
      <trkpt lat="39.8069830" lon="-0.4302640">
        <ele>290.6</ele>
        <time>2019-07-04T16:59:02Z</time>
      </trkpt>
      <trkpt lat="39.8070370" lon="-0.4303290">
        <ele>291.6</ele>
        <time>2019-07-04T16:59:05Z</time>
      </trkpt>
      <trkpt lat="39.8071220" lon="-0.4304450">
        <ele>292.8</ele>
        <time>2019-07-04T16:59:10Z</time>
      </trkpt>
      <trkpt lat="39.8071400" lon="-0.4304690">
        <ele>293.2</ele>
        <time>2019-07-04T16:59:11Z</time>
      </trkpt>
      <trkpt lat="39.8071950" lon="-0.4305430">
        <ele>294.0</ele>
        <time>2019-07-04T16:59:14Z</time>
      </trkpt>
      <trkpt lat="39.8072830" lon="-0.4306140">
        <ele>295.2</ele>
        <time>2019-07-04T16:59:18Z</time>
      </trkpt>
      <trkpt lat="39.8073020" lon="-0.4306360">
        <ele>295.6</ele>
        <time>2019-07-04T16:59:19Z</time>
      </trkpt>
      <trkpt lat="39.8073630" lon="-0.4306970">
        <ele>296.4</ele>
        <time>2019-07-04T16:59:22Z</time>
      </trkpt>
      <trkpt lat="39.8074390" lon="-0.4307940">
        <ele>297.4</ele>
        <time>2019-07-04T16:59:26Z</time>
      </trkpt>
      <trkpt lat="39.8075470" lon="-0.4308910">
        <ele>298.8</ele>
        <time>2019-07-04T16:59:31Z</time>
      </trkpt>
      <trkpt lat="39.8075910" lon="-0.4309230">
        <ele>299.2</ele>
        <time>2019-07-04T16:59:33Z</time>
      </trkpt>
      <trkpt lat="39.8076570" lon="-0.4309810">
        <ele>300.0</ele>
        <time>2019-07-04T16:59:36Z</time>
      </trkpt>
      <trkpt lat="39.8077440" lon="-0.4310680">
        <ele>300.8</ele>
        <time>2019-07-04T16:59:40Z</time>
      </trkpt>
      <trkpt lat="39.8077660" lon="-0.4310880">
        <ele>301.0</ele>
        <time>2019-07-04T16:59:41Z</time>
      </trkpt>
      <trkpt lat="39.8078590" lon="-0.4311550">
        <ele>302.2</ele>
        <time>2019-07-04T16:59:45Z</time>
      </trkpt>
      <trkpt lat="39.8079440" lon="-0.4312250">
        <ele>303.0</ele>
        <time>2019-07-04T16:59:49Z</time>
      </trkpt>
      <trkpt lat="39.8079690" lon="-0.4312410">
        <ele>303.4</ele>
        <time>2019-07-04T16:59:50Z</time>
      </trkpt>
      <trkpt lat="39.8080770" lon="-0.4313030">
        <ele>304.8</ele>
        <time>2019-07-04T16:59:54Z</time>
      </trkpt>
      <trkpt lat="39.8081920" lon="-0.4313640">
        <ele>305.8</ele>
        <time>2019-07-04T16:59:58Z</time>
      </trkpt>
      <trkpt lat="39.8084610" lon="-0.4314910">
        <ele>306.6</ele>
        <time>2019-07-04T17:00:06Z</time>
      </trkpt>
      <trkpt lat="39.8086630" lon="-0.4315610">
        <ele>306.8</ele>
        <time>2019-07-04T17:00:11Z</time>
      </trkpt>
      <trkpt lat="39.8087520" lon="-0.4315810">
        <ele>306.4</ele>
        <time>2019-07-04T17:00:13Z</time>
      </trkpt>
      <trkpt lat="39.8089370" lon="-0.4316230">
        <ele>306.4</ele>
        <time>2019-07-04T17:00:17Z</time>
      </trkpt>
      <trkpt lat="39.8091040" lon="-0.4316430">
        <ele>306.2</ele>
        <time>2019-07-04T17:00:20Z</time>
      </trkpt>
      <trkpt lat="39.8093060" lon="-0.4316780">
        <ele>305.6</ele>
        <time>2019-07-04T17:00:23Z</time>
      </trkpt>
      <trkpt lat="39.8094490" lon="-0.4317290">
        <ele>305.0</ele>
        <time>2019-07-04T17:00:25Z</time>
      </trkpt>
      <trkpt lat="39.8095180" lon="-0.4317590">
        <ele>304.8</ele>
        <time>2019-07-04T17:00:26Z</time>
      </trkpt>
      <trkpt lat="39.8095850" lon="-0.4317870">
        <ele>304.6</ele>
        <time>2019-07-04T17:00:27Z</time>
      </trkpt>
      <trkpt lat="39.8097180" lon="-0.4318270">
        <ele>304.0</ele>
        <time>2019-07-04T17:00:29Z</time>
      </trkpt>
      <trkpt lat="39.8098540" lon="-0.4318510">
        <ele>303.6</ele>
        <time>2019-07-04T17:00:31Z</time>
      </trkpt>
      <trkpt lat="39.8099210" lon="-0.4318670">
        <ele>303.4</ele>
        <time>2019-07-04T17:00:32Z</time>
      </trkpt>
      <trkpt lat="39.8101620" lon="-0.4319460">
        <ele>303.2</ele>
        <time>2019-07-04T17:00:36Z</time>
      </trkpt>
      <trkpt lat="39.8105790" lon="-0.4321310">
        <ele>302.8</ele>
        <time>2019-07-04T17:00:43Z</time>
      </trkpt>
      <trkpt lat="39.8107420" lon="-0.4322260">
        <ele>302.4</ele>
        <time>2019-07-04T17:00:46Z</time>
      </trkpt>
      <trkpt lat="39.8110070" lon="-0.4324090">
        <ele>302.2</ele>
        <time>2019-07-04T17:00:51Z</time>
      </trkpt>
      <trkpt lat="39.8112970" lon="-0.4326140">
        <ele>301.0</ele>
        <time>2019-07-04T17:00:56Z</time>
      </trkpt>
      <trkpt lat="39.8113550" lon="-0.4326640">
        <ele>300.6</ele>
        <time>2019-07-04T17:00:57Z</time>
      </trkpt>
      <trkpt lat="39.8115360" lon="-0.4328210">
        <ele>300.0</ele>
        <time>2019-07-04T17:01:00Z</time>
      </trkpt>
      <trkpt lat="39.8115980" lon="-0.4328780">
        <ele>299.6</ele>
        <time>2019-07-04T17:01:01Z</time>
      </trkpt>
      <trkpt lat="39.8117840" lon="-0.4330560">
        <ele>298.6</ele>
        <time>2019-07-04T17:01:04Z</time>
      </trkpt>
      <trkpt lat="39.8118420" lon="-0.4331190">
        <ele>298.4</ele>
        <time>2019-07-04T17:01:05Z</time>
      </trkpt>
      <trkpt lat="39.8122010" lon="-0.4335740">
        <ele>297.8</ele>
        <time>2019-07-04T17:01:12Z</time>
      </trkpt>
      <trkpt lat="39.8123610" lon="-0.4337570">
        <ele>297.6</ele>
        <time>2019-07-04T17:01:15Z</time>
      </trkpt>
      <trkpt lat="39.8125350" lon="-0.4339540">
        <ele>297.0</ele>
        <time>2019-07-04T17:01:18Z</time>
      </trkpt>
      <trkpt lat="39.8126390" lon="-0.4340990">
        <ele>296.4</ele>
        <time>2019-07-04T17:01:20Z</time>
      </trkpt>
      <trkpt lat="39.8127640" lon="-0.4343250">
        <ele>295.8</ele>
        <time>2019-07-04T17:01:23Z</time>
      </trkpt>
      <trkpt lat="39.8128200" lon="-0.4344750">
        <ele>295.2</ele>
        <time>2019-07-04T17:01:26Z</time>
      </trkpt>
      <trkpt lat="39.8128340" lon="-0.4344950">
        <ele>295.2</ele>
        <time>2019-07-04T17:01:27Z</time>
      </trkpt>
      <trkpt lat="39.8128590" lon="-0.4345200">
        <ele>295.2</ele>
        <time>2019-07-04T17:01:30Z</time>
      </trkpt>
      <trkpt lat="39.8128590" lon="-0.4345200">
        <ele>295.2</ele>
        <time>2019-07-04T17:01:31Z</time>
      </trkpt>
      <trkpt lat="39.8128230" lon="-0.4346270">
        <ele>295.4</ele>
        <time>2019-07-04T17:01:47Z</time>
      </trkpt>
      <trkpt lat="39.8128270" lon="-0.4346810">
        <ele>295.6</ele>
        <time>2019-07-04T17:01:50Z</time>
      </trkpt>
      <trkpt lat="39.8128220" lon="-0.4347080">
        <ele>295.8</ele>
        <time>2019-07-04T17:01:52Z</time>
      </trkpt>
      <trkpt lat="39.8128180" lon="-0.4347490">
        <ele>296.2</ele>
        <time>2019-07-04T17:01:55Z</time>
      </trkpt>
      <trkpt lat="39.8128170" lon="-0.4347640">
        <ele>296.4</ele>
        <time>2019-07-04T17:01:56Z</time>
      </trkpt>
      <trkpt lat="39.8128180" lon="-0.4347790">
        <ele>296.4</ele>
        <time>2019-07-04T17:01:57Z</time>
      </trkpt>
      <trkpt lat="39.8128220" lon="-0.4348110">
        <ele>296.6</ele>
        <time>2019-07-04T17:01:59Z</time>
      </trkpt>
      <trkpt lat="39.8128360" lon="-0.4348530">
        <ele>296.8</ele>
        <time>2019-07-04T17:02:01Z</time>
      </trkpt>
      <trkpt lat="39.8128390" lon="-0.4349550">
        <ele>297.2</ele>
        <time>2019-07-04T17:02:04Z</time>
      </trkpt>
      <trkpt lat="39.8128440" lon="-0.4350420">
        <ele>297.2</ele>
        <time>2019-07-04T17:02:06Z</time>
      </trkpt>
      <trkpt lat="39.8128710" lon="-0.4352310">
        <ele>297.4</ele>
        <time>2019-07-04T17:02:10Z</time>
      </trkpt>
      <trkpt lat="39.8128870" lon="-0.4353940">
        <ele>297.6</ele>
        <time>2019-07-04T17:02:13Z</time>
      </trkpt>
      <trkpt lat="39.8129020" lon="-0.4356260">
        <ele>297.8</ele>
        <time>2019-07-04T17:02:17Z</time>
      </trkpt>
      <trkpt lat="39.8129290" lon="-0.4358630">
        <ele>298.0</ele>
        <time>2019-07-04T17:02:21Z</time>
      </trkpt>
      <trkpt lat="39.8130230" lon="-0.4364370">
        <ele>298.2</ele>
        <time>2019-07-04T17:02:30Z</time>
      </trkpt>
      <trkpt lat="39.8131380" lon="-0.4370340">
        <ele>298.2</ele>
        <time>2019-07-04T17:02:39Z</time>
      </trkpt>
      <trkpt lat="39.8131940" lon="-0.4373120">
        <ele>298.4</ele>
        <time>2019-07-04T17:02:43Z</time>
      </trkpt>
      <trkpt lat="39.8132770" lon="-0.4376740">
        <ele>299.0</ele>
        <time>2019-07-04T17:02:48Z</time>
      </trkpt>
      <trkpt lat="39.8134070" lon="-0.4381080">
        <ele>298.4</ele>
        <time>2019-07-04T17:02:54Z</time>
      </trkpt>
      <trkpt lat="39.8134310" lon="-0.4381780">
        <ele>298.2</ele>
        <time>2019-07-04T17:02:55Z</time>
      </trkpt>
      <trkpt lat="39.8136400" lon="-0.4388050">
        <ele>298.2</ele>
        <time>2019-07-04T17:03:04Z</time>
      </trkpt>
      <trkpt lat="39.8138200" lon="-0.4392770">
        <ele>298.2</ele>
        <time>2019-07-04T17:03:11Z</time>
      </trkpt>
      <trkpt lat="39.8138700" lon="-0.4394130">
        <ele>298.2</ele>
        <time>2019-07-04T17:03:13Z</time>
      </trkpt>
      <trkpt lat="39.8140450" lon="-0.4398080">
        <ele>298.2</ele>
        <time>2019-07-04T17:03:19Z</time>
      </trkpt>
      <trkpt lat="39.8140760" lon="-0.4398760">
        <ele>298.2</ele>
        <time>2019-07-04T17:03:20Z</time>
      </trkpt>
      <trkpt lat="39.8143040" lon="-0.4403560">
        <ele>298.6</ele>
        <time>2019-07-04T17:03:27Z</time>
      </trkpt>
      <trkpt lat="39.8144020" lon="-0.4405560">
        <ele>298.4</ele>
        <time>2019-07-04T17:03:30Z</time>
      </trkpt>
      <trkpt lat="39.8147000" lon="-0.4411540">
        <ele>297.6</ele>
        <time>2019-07-04T17:03:39Z</time>
      </trkpt>
      <trkpt lat="39.8149640" lon="-0.4417010">
        <ele>297.6</ele>
        <time>2019-07-04T17:03:47Z</time>
      </trkpt>
      <trkpt lat="39.8151340" lon="-0.4420500">
        <ele>297.4</ele>
        <time>2019-07-04T17:03:52Z</time>
      </trkpt>
      <trkpt lat="39.8153030" lon="-0.4423980">
        <ele>297.2</ele>
        <time>2019-07-04T17:03:57Z</time>
      </trkpt>
      <trkpt lat="39.8155360" lon="-0.4428870">
        <ele>296.8</ele>
        <time>2019-07-04T17:04:04Z</time>
      </trkpt>
      <trkpt lat="39.8156360" lon="-0.4430980">
        <ele>296.8</ele>
        <time>2019-07-04T17:04:07Z</time>
      </trkpt>
      <trkpt lat="39.8159450" lon="-0.4437350">
        <ele>296.6</ele>
        <time>2019-07-04T17:04:16Z</time>
      </trkpt>
      <trkpt lat="39.8159780" lon="-0.4438090">
        <ele>296.4</ele>
        <time>2019-07-04T17:04:17Z</time>
      </trkpt>
      <trkpt lat="39.8161440" lon="-0.4441880">
        <ele>296.2</ele>
        <time>2019-07-04T17:04:22Z</time>
      </trkpt>
      <trkpt lat="39.8162450" lon="-0.4444100">
        <ele>295.8</ele>
        <time>2019-07-04T17:04:25Z</time>
      </trkpt>
      <trkpt lat="39.8164990" lon="-0.4449180">
        <ele>295.4</ele>
        <time>2019-07-04T17:04:32Z</time>
      </trkpt>
      <trkpt lat="39.8168240" lon="-0.4455680">
        <ele>295.2</ele>
        <time>2019-07-04T17:04:41Z</time>
      </trkpt>
      <trkpt lat="39.8168950" lon="-0.4457100">
        <ele>295.0</ele>
        <time>2019-07-04T17:04:43Z</time>
      </trkpt>
      <trkpt lat="39.8169290" lon="-0.4457820">
        <ele>294.8</ele>
        <time>2019-07-04T17:04:44Z</time>
      </trkpt>
      <trkpt lat="39.8171700" lon="-0.4462830">
        <ele>294.8</ele>
        <time>2019-07-04T17:04:51Z</time>
      </trkpt>
      <trkpt lat="39.8173820" lon="-0.4467150">
        <ele>294.4</ele>
        <time>2019-07-04T17:04:57Z</time>
      </trkpt>
      <trkpt lat="39.8176550" lon="-0.4472860">
        <ele>294.2</ele>
        <time>2019-07-04T17:05:05Z</time>
      </trkpt>
      <trkpt lat="39.8178270" lon="-0.4477370">
        <ele>294.2</ele>
        <time>2019-07-04T17:05:11Z</time>
      </trkpt>
      <trkpt lat="39.8179680" lon="-0.4482060">
        <ele>293.8</ele>
        <time>2019-07-04T17:05:17Z</time>
      </trkpt>
      <trkpt lat="39.8179850" lon="-0.4482870">
        <ele>293.8</ele>
        <time>2019-07-04T17:05:18Z</time>
      </trkpt>
      <trkpt lat="39.8180970" lon="-0.4490470">
        <ele>293.2</ele>
        <time>2019-07-04T17:05:27Z</time>
      </trkpt>
      <trkpt lat="39.8181630" lon="-0.4497260">
        <ele>293.4</ele>
        <time>2019-07-04T17:05:35Z</time>
      </trkpt>
      <trkpt lat="39.8181970" lon="-0.4501410">
        <ele>293.4</ele>
        <time>2019-07-04T17:05:40Z</time>
      </trkpt>
      <trkpt lat="39.8182690" lon="-0.4508690">
        <ele>293.8</ele>
        <time>2019-07-04T17:05:49Z</time>
      </trkpt>
      <trkpt lat="39.8182740" lon="-0.4509470">
        <ele>293.8</ele>
        <time>2019-07-04T17:05:50Z</time>
      </trkpt>
      <trkpt lat="39.8183300" lon="-0.4514690">
        <ele>294.6</ele>
        <time>2019-07-04T17:05:57Z</time>
      </trkpt>
      <trkpt lat="39.8183700" lon="-0.4516780">
        <ele>294.8</ele>
        <time>2019-07-04T17:06:00Z</time>
      </trkpt>
      <trkpt lat="39.8184030" lon="-0.4518090">
        <ele>295.0</ele>
        <time>2019-07-04T17:06:02Z</time>
      </trkpt>
      <trkpt lat="39.8185310" lon="-0.4521680">
        <ele>295.8</ele>
        <time>2019-07-04T17:06:08Z</time>
      </trkpt>
      <trkpt lat="39.8186080" lon="-0.4523300">
        <ele>296.2</ele>
        <time>2019-07-04T17:06:11Z</time>
      </trkpt>
      <trkpt lat="39.8187580" lon="-0.4525840">
        <ele>296.4</ele>
        <time>2019-07-04T17:06:16Z</time>
      </trkpt>
      <trkpt lat="39.8187930" lon="-0.4526280">
        <ele>296.6</ele>
        <time>2019-07-04T17:06:17Z</time>
      </trkpt>
      <trkpt lat="39.8191390" lon="-0.4529800">
        <ele>297.0</ele>
        <time>2019-07-04T17:06:26Z</time>
      </trkpt>
      <trkpt lat="39.8192610" lon="-0.4530890">
        <ele>297.2</ele>
        <time>2019-07-04T17:06:29Z</time>
      </trkpt>
      <trkpt lat="39.8194740" lon="-0.4532480">
        <ele>298.2</ele>
        <time>2019-07-04T17:06:34Z</time>
      </trkpt>
      <trkpt lat="39.8195620" lon="-0.4533130">
        <ele>298.4</ele>
        <time>2019-07-04T17:06:36Z</time>
      </trkpt>
      <trkpt lat="39.8198290" lon="-0.4535080">
        <ele>299.4</ele>
        <time>2019-07-04T17:06:42Z</time>
      </trkpt>
      <trkpt lat="39.8199160" lon="-0.4535730">
        <ele>299.8</ele>
        <time>2019-07-04T17:06:44Z</time>
      </trkpt>
      <trkpt lat="39.8202660" lon="-0.4538330">
        <ele>300.4</ele>
        <time>2019-07-04T17:06:52Z</time>
      </trkpt>
      <trkpt lat="39.8203540" lon="-0.4538990">
        <ele>300.6</ele>
        <time>2019-07-04T17:06:54Z</time>
      </trkpt>
      <trkpt lat="39.8206600" lon="-0.4541250">
        <ele>301.0</ele>
        <time>2019-07-04T17:07:01Z</time>
      </trkpt>
      <trkpt lat="39.8207020" lon="-0.4541600">
        <ele>301.6</ele>
        <time>2019-07-04T17:07:02Z</time>
      </trkpt>
      <trkpt lat="39.8210880" lon="-0.4544610">
        <ele>302.0</ele>
        <time>2019-07-04T17:07:11Z</time>
      </trkpt>
      <trkpt lat="39.8211770" lon="-0.4545270">
        <ele>302.4</ele>
        <time>2019-07-04T17:07:13Z</time>
      </trkpt>
      <trkpt lat="39.8214850" lon="-0.4547600">
        <ele>303.2</ele>
        <time>2019-07-04T17:07:20Z</time>
      </trkpt>
      <trkpt lat="39.8215290" lon="-0.4547930">
        <ele>303.4</ele>
        <time>2019-07-04T17:07:21Z</time>
      </trkpt>
      <trkpt lat="39.8217900" lon="-0.4549860">
        <ele>303.6</ele>
        <time>2019-07-04T17:07:27Z</time>
      </trkpt>
      <trkpt lat="39.8218330" lon="-0.4550160">
        <ele>303.8</ele>
        <time>2019-07-04T17:07:28Z</time>
      </trkpt>
      <trkpt lat="39.8219160" lon="-0.4550750">
        <ele>304.4</ele>
        <time>2019-07-04T17:07:30Z</time>
      </trkpt>
      <trkpt lat="39.8221710" lon="-0.4552640">
        <ele>305.2</ele>
        <time>2019-07-04T17:07:36Z</time>
      </trkpt>
      <trkpt lat="39.8223790" lon="-0.4554230">
        <ele>305.4</ele>
        <time>2019-07-04T17:07:41Z</time>
      </trkpt>
      <trkpt lat="39.8224980" lon="-0.4555320">
        <ele>306.0</ele>
        <time>2019-07-04T17:07:44Z</time>
      </trkpt>
      <trkpt lat="39.8226150" lon="-0.4556500">
        <ele>306.6</ele>
        <time>2019-07-04T17:07:47Z</time>
      </trkpt>
      <trkpt lat="39.8227970" lon="-0.4558710">
        <ele>307.0</ele>
        <time>2019-07-04T17:07:52Z</time>
      </trkpt>
      <trkpt lat="39.8230520" lon="-0.4562560">
        <ele>307.2</ele>
        <time>2019-07-04T17:08:00Z</time>
      </trkpt>
      <trkpt lat="39.8231890" lon="-0.4565240">
        <ele>307.6</ele>
        <time>2019-07-04T17:08:05Z</time>
      </trkpt>
      <trkpt lat="39.8232690" lon="-0.4566900">
        <ele>308.4</ele>
        <time>2019-07-04T17:08:08Z</time>
      </trkpt>
      <trkpt lat="39.8232950" lon="-0.4567470">
        <ele>308.6</ele>
        <time>2019-07-04T17:08:09Z</time>
      </trkpt>
      <trkpt lat="39.8235020" lon="-0.4571910">
        <ele>309.4</ele>
        <time>2019-07-04T17:08:17Z</time>
      </trkpt>
      <trkpt lat="39.8235280" lon="-0.4572460">
        <ele>309.6</ele>
        <time>2019-07-04T17:08:18Z</time>
      </trkpt>
      <trkpt lat="39.8237090" lon="-0.4576310">
        <ele>309.8</ele>
        <time>2019-07-04T17:08:25Z</time>
      </trkpt>
      <trkpt lat="39.8238640" lon="-0.4579690">
        <ele>310.6</ele>
        <time>2019-07-04T17:08:31Z</time>
      </trkpt>
      <trkpt lat="39.8238890" lon="-0.4580260">
        <ele>310.6</ele>
        <time>2019-07-04T17:08:32Z</time>
      </trkpt>
      <trkpt lat="39.8241430" lon="-0.4585780">
        <ele>311.6</ele>
        <time>2019-07-04T17:08:42Z</time>
      </trkpt>
      <trkpt lat="39.8243420" lon="-0.4590200">
        <ele>312.4</ele>
        <time>2019-07-04T17:08:50Z</time>
      </trkpt>
      <trkpt lat="39.8243910" lon="-0.4591270">
        <ele>312.8</ele>
        <time>2019-07-04T17:08:52Z</time>
      </trkpt>
      <trkpt lat="39.8245860" lon="-0.4595570">
        <ele>313.8</ele>
        <time>2019-07-04T17:09:00Z</time>
      </trkpt>
      <trkpt lat="39.8246120" lon="-0.4596110">
        <ele>313.8</ele>
        <time>2019-07-04T17:09:01Z</time>
      </trkpt>
      <trkpt lat="39.8248340" lon="-0.4600800">
        <ele>314.8</ele>
        <time>2019-07-04T17:09:10Z</time>
      </trkpt>
      <trkpt lat="39.8248840" lon="-0.4601830">
        <ele>315.0</ele>
        <time>2019-07-04T17:09:12Z</time>
      </trkpt>
      <trkpt lat="39.8249900" lon="-0.4604230">
        <ele>315.2</ele>
        <time>2019-07-04T17:09:16Z</time>
      </trkpt>
      <trkpt lat="39.8252000" lon="-0.4609090">
        <ele>315.4</ele>
        <time>2019-07-04T17:09:24Z</time>
      </trkpt>
      <trkpt lat="39.8253090" lon="-0.4611460">
        <ele>315.2</ele>
        <time>2019-07-04T17:09:28Z</time>
      </trkpt>
      <trkpt lat="39.8254470" lon="-0.4614450">
        <ele>315.2</ele>
        <time>2019-07-04T17:09:33Z</time>
      </trkpt>
      <trkpt lat="39.8256480" lon="-0.4618650">
        <ele>314.8</ele>
        <time>2019-07-04T17:09:40Z</time>
      </trkpt>
      <trkpt lat="39.8257620" lon="-0.4621060">
        <ele>315.0</ele>
        <time>2019-07-04T17:09:44Z</time>
      </trkpt>
      <trkpt lat="39.8259310" lon="-0.4624760">
        <ele>315.0</ele>
        <time>2019-07-04T17:09:50Z</time>
      </trkpt>
      <trkpt lat="39.8261680" lon="-0.4629750">
        <ele>314.8</ele>
        <time>2019-07-04T17:09:58Z</time>
      </trkpt>
      <trkpt lat="39.8263020" lon="-0.4633030">
        <ele>314.8</ele>
        <time>2019-07-04T17:10:03Z</time>
      </trkpt>
      <trkpt lat="39.8263500" lon="-0.4634390">
        <ele>314.8</ele>
        <time>2019-07-04T17:10:05Z</time>
      </trkpt>
      <trkpt lat="39.8264570" lon="-0.4639440">
        <ele>315.0</ele>
        <time>2019-07-04T17:10:12Z</time>
      </trkpt>
      <trkpt lat="39.8264890" lon="-0.4644980">
        <ele>315.2</ele>
        <time>2019-07-04T17:10:19Z</time>
      </trkpt>
      <trkpt lat="39.8265100" lon="-0.4652310">
        <ele>315.0</ele>
        <time>2019-07-04T17:10:28Z</time>
      </trkpt>
      <trkpt lat="39.8265300" lon="-0.4659540">
        <ele>314.8</ele>
        <time>2019-07-04T17:10:37Z</time>
      </trkpt>
      <trkpt lat="39.8265330" lon="-0.4660320">
        <ele>314.8</ele>
        <time>2019-07-04T17:10:38Z</time>
      </trkpt>
      <trkpt lat="39.8265980" lon="-0.4666370">
        <ele>314.4</ele>
        <time>2019-07-04T17:10:46Z</time>
      </trkpt>
      <trkpt lat="39.8267720" lon="-0.4671970">
        <ele>315.0</ele>
        <time>2019-07-04T17:10:54Z</time>
      </trkpt>
      <trkpt lat="39.8269860" lon="-0.4675710">
        <ele>314.8</ele>
        <time>2019-07-04T17:11:00Z</time>
      </trkpt>
      <trkpt lat="39.8273490" lon="-0.4680110">
        <ele>314.4</ele>
        <time>2019-07-04T17:11:08Z</time>
      </trkpt>
      <trkpt lat="39.8276530" lon="-0.4683920">
        <ele>315.0</ele>
        <time>2019-07-04T17:11:15Z</time>
      </trkpt>
      <trkpt lat="39.8280510" lon="-0.4688550">
        <ele>315.2</ele>
        <time>2019-07-04T17:11:24Z</time>
      </trkpt>
      <trkpt lat="39.8284550" lon="-0.4692910">
        <ele>315.0</ele>
        <time>2019-07-04T17:11:33Z</time>
      </trkpt>
      <trkpt lat="39.8287490" lon="-0.4696430">
        <ele>315.0</ele>
        <time>2019-07-04T17:11:40Z</time>
      </trkpt>
      <trkpt lat="39.8290510" lon="-0.4700870">
        <ele>314.8</ele>
        <time>2019-07-04T17:11:48Z</time>
      </trkpt>
      <trkpt lat="39.8291910" lon="-0.4704030">
        <ele>315.0</ele>
        <time>2019-07-04T17:11:53Z</time>
      </trkpt>
      <trkpt lat="39.8293780" lon="-0.4709590">
        <ele>315.4</ele>
        <time>2019-07-04T17:12:01Z</time>
      </trkpt>
      <trkpt lat="39.8295570" lon="-0.4715240">
        <ele>315.0</ele>
        <time>2019-07-04T17:12:09Z</time>
      </trkpt>
      <trkpt lat="39.8297700" lon="-0.4721490">
        <ele>315.4</ele>
        <time>2019-07-04T17:12:18Z</time>
      </trkpt>
      <trkpt lat="39.8298760" lon="-0.4724830">
        <ele>315.6</ele>
        <time>2019-07-04T17:12:23Z</time>
      </trkpt>
      <trkpt lat="39.8298990" lon="-0.4725480">
        <ele>315.8</ele>
        <time>2019-07-04T17:12:24Z</time>
      </trkpt>
      <trkpt lat="39.8300920" lon="-0.4731290">
        <ele>316.0</ele>
        <time>2019-07-04T17:12:33Z</time>
      </trkpt>
      <trkpt lat="39.8302140" lon="-0.4735030">
        <ele>316.4</ele>
        <time>2019-07-04T17:12:39Z</time>
      </trkpt>
      <trkpt lat="39.8302530" lon="-0.4736290">
        <ele>316.8</ele>
        <time>2019-07-04T17:12:41Z</time>
      </trkpt>
      <trkpt lat="39.8302880" lon="-0.4738160">
        <ele>317.0</ele>
        <time>2019-07-04T17:12:44Z</time>
      </trkpt>
      <trkpt lat="39.8302910" lon="-0.4739230">
        <ele>316.8</ele>
        <time>2019-07-04T17:12:46Z</time>
      </trkpt>
      <trkpt lat="39.8303540" lon="-0.4740080">
        <ele>315.6</ele>
        <time>2019-07-04T17:12:49Z</time>
      </trkpt>
      <trkpt lat="39.8304410" lon="-0.4740040">
        <ele>315.6</ele>
        <time>2019-07-04T17:12:51Z</time>
      </trkpt>
      <trkpt lat="39.8305490" lon="-0.4739900">
        <ele>315.2</ele>
        <time>2019-07-04T17:12:53Z</time>
      </trkpt>
      <trkpt lat="39.8307480" lon="-0.4739810">
        <ele>314.4</ele>
        <time>2019-07-04T17:12:56Z</time>
      </trkpt>
      <trkpt lat="39.8308980" lon="-0.4739760">
        <ele>313.8</ele>
        <time>2019-07-04T17:12:58Z</time>
      </trkpt>
      <trkpt lat="39.8309750" lon="-0.4739710">
        <ele>313.4</ele>
        <time>2019-07-04T17:12:59Z</time>
      </trkpt>
      <trkpt lat="39.8312080" lon="-0.4739690">
        <ele>312.2</ele>
        <time>2019-07-04T17:13:02Z</time>
      </trkpt>
      <trkpt lat="39.8315270" lon="-0.4739760">
        <ele>311.4</ele>
        <time>2019-07-04T17:13:06Z</time>
      </trkpt>
      <trkpt lat="39.8316850" lon="-0.4739810">
        <ele>311.0</ele>
        <time>2019-07-04T17:13:08Z</time>
      </trkpt>
      <trkpt lat="39.8319310" lon="-0.4739990">
        <ele>310.2</ele>
        <time>2019-07-04T17:13:11Z</time>
      </trkpt>
      <trkpt lat="39.8320140" lon="-0.4740220">
        <ele>309.8</ele>
        <time>2019-07-04T17:13:12Z</time>
      </trkpt>
      <trkpt lat="39.8320890" lon="-0.4740470">
        <ele>309.6</ele>
        <time>2019-07-04T17:13:13Z</time>
      </trkpt>
      <trkpt lat="39.8323040" lon="-0.4740960">
        <ele>308.6</ele>
        <time>2019-07-04T17:13:17Z</time>
      </trkpt>
      <trkpt lat="39.8326530" lon="-0.4741670">
        <ele>307.8</ele>
        <time>2019-07-04T17:13:23Z</time>
      </trkpt>
      <trkpt lat="39.8327780" lon="-0.4741880">
        <ele>307.6</ele>
        <time>2019-07-04T17:13:25Z</time>
      </trkpt>
      <trkpt lat="39.8329050" lon="-0.4742070">
        <ele>307.6</ele>
        <time>2019-07-04T17:13:27Z</time>
      </trkpt>
      <trkpt lat="39.8330360" lon="-0.4742560">
        <ele>307.6</ele>
        <time>2019-07-04T17:13:29Z</time>
      </trkpt>
      <trkpt lat="39.8334180" lon="-0.4744610">
        <ele>306.6</ele>
        <time>2019-07-04T17:13:35Z</time>
      </trkpt>
      <trkpt lat="39.8336780" lon="-0.4746440">
        <ele>307.6</ele>
        <time>2019-07-04T17:13:41Z</time>
      </trkpt>
      <trkpt lat="39.8337190" lon="-0.4746690">
        <ele>307.6</ele>
        <time>2019-07-04T17:13:42Z</time>
      </trkpt>
      <trkpt lat="39.8340210" lon="-0.4748720">
        <ele>308.2</ele>
        <time>2019-07-04T17:13:49Z</time>
      </trkpt>
      <trkpt lat="39.8341640" lon="-0.4749660">
        <ele>308.4</ele>
        <time>2019-07-04T17:13:52Z</time>
      </trkpt>
      <trkpt lat="39.8343180" lon="-0.4750600">
        <ele>308.4</ele>
        <time>2019-07-04T17:13:55Z</time>
      </trkpt>
      <trkpt lat="39.8346500" lon="-0.4752270">
        <ele>307.6</ele>
        <time>2019-07-04T17:14:01Z</time>
      </trkpt>
      <trkpt lat="39.8348100" lon="-0.4753180">
        <ele>307.2</ele>
        <time>2019-07-04T17:14:04Z</time>
      </trkpt>
      <trkpt lat="39.8348990" lon="-0.4754150">
        <ele>307.2</ele>
        <time>2019-07-04T17:14:06Z</time>
      </trkpt>
      <trkpt lat="39.8349770" lon="-0.4755320">
        <ele>307.4</ele>
        <time>2019-07-04T17:14:08Z</time>
      </trkpt>
      <trkpt lat="39.8350450" lon="-0.4756590">
        <ele>307.4</ele>
        <time>2019-07-04T17:14:10Z</time>
      </trkpt>
      <trkpt lat="39.8351120" lon="-0.4757870">
        <ele>307.6</ele>
        <time>2019-07-04T17:14:12Z</time>
      </trkpt>
      <trkpt lat="39.8353410" lon="-0.4762280">
        <ele>307.2</ele>
        <time>2019-07-04T17:14:19Z</time>
      </trkpt>
      <trkpt lat="39.8355180" lon="-0.4765230">
        <ele>307.4</ele>
        <time>2019-07-04T17:14:24Z</time>
      </trkpt>
      <trkpt lat="39.8355530" lon="-0.4765760">
        <ele>307.6</ele>
        <time>2019-07-04T17:14:25Z</time>
      </trkpt>
      <trkpt lat="39.8358130" lon="-0.4770430">
        <ele>308.0</ele>
        <time>2019-07-04T17:14:33Z</time>
      </trkpt>
      <trkpt lat="39.8360260" lon="-0.4774590">
        <ele>308.6</ele>
        <time>2019-07-04T17:14:40Z</time>
      </trkpt>
      <trkpt lat="39.8360940" lon="-0.4775710">
        <ele>308.8</ele>
        <time>2019-07-04T17:14:42Z</time>
      </trkpt>
      <trkpt lat="39.8362790" lon="-0.4778390">
        <ele>309.0</ele>
        <time>2019-07-04T17:14:47Z</time>
      </trkpt>
      <trkpt lat="39.8364250" lon="-0.4780630">
        <ele>309.2</ele>
        <time>2019-07-04T17:14:51Z</time>
      </trkpt>
      <trkpt lat="39.8365290" lon="-0.4782410">
        <ele>309.4</ele>
        <time>2019-07-04T17:14:54Z</time>
      </trkpt>
      <trkpt lat="39.8366930" lon="-0.4785310">
        <ele>310.2</ele>
        <time>2019-07-04T17:14:59Z</time>
      </trkpt>
      <trkpt lat="39.8367270" lon="-0.4785830">
        <ele>310.4</ele>
        <time>2019-07-04T17:15:00Z</time>
      </trkpt>
      <trkpt lat="39.8369070" lon="-0.4788840">
        <ele>311.2</ele>
        <time>2019-07-04T17:15:06Z</time>
      </trkpt>
      <trkpt lat="39.8370000" lon="-0.4790490">
        <ele>311.4</ele>
        <time>2019-07-04T17:15:09Z</time>
      </trkpt>
      <trkpt lat="39.8370460" lon="-0.4791840">
        <ele>311.2</ele>
        <time>2019-07-04T17:15:11Z</time>
      </trkpt>
      <trkpt lat="39.8371240" lon="-0.4794840">
        <ele>311.2</ele>
        <time>2019-07-04T17:15:15Z</time>
      </trkpt>
      <trkpt lat="39.8371630" lon="-0.4796310">
        <ele>311.0</ele>
        <time>2019-07-04T17:15:17Z</time>
      </trkpt>
      <trkpt lat="39.8371850" lon="-0.4797000">
        <ele>311.0</ele>
        <time>2019-07-04T17:15:18Z</time>
      </trkpt>
      <trkpt lat="39.8372310" lon="-0.4798260">
        <ele>310.8</ele>
        <time>2019-07-04T17:15:20Z</time>
      </trkpt>
      <trkpt lat="39.8372880" lon="-0.4799350">
        <ele>311.0</ele>
        <time>2019-07-04T17:15:22Z</time>
      </trkpt>
      <trkpt lat="39.8373220" lon="-0.4799810">
        <ele>311.2</ele>
        <time>2019-07-04T17:15:23Z</time>
      </trkpt>
      <trkpt lat="39.8373960" lon="-0.4800630">
        <ele>311.6</ele>
        <time>2019-07-04T17:15:25Z</time>
      </trkpt>
      <trkpt lat="39.8376080" lon="-0.4802340">
        <ele>312.6</ele>
        <time>2019-07-04T17:15:30Z</time>
      </trkpt>
      <trkpt lat="39.8377490" lon="-0.4803020">
        <ele>312.6</ele>
        <time>2019-07-04T17:15:33Z</time>
      </trkpt>
      <trkpt lat="39.8378470" lon="-0.4803170">
        <ele>312.8</ele>
        <time>2019-07-04T17:15:35Z</time>
      </trkpt>
      <trkpt lat="39.8380250" lon="-0.4803210">
        <ele>313.6</ele>
        <time>2019-07-04T17:15:39Z</time>
      </trkpt>
      <trkpt lat="39.8380970" lon="-0.4803270">
        <ele>314.2</ele>
        <time>2019-07-04T17:15:41Z</time>
      </trkpt>
      <trkpt lat="39.8381300" lon="-0.4803300">
        <ele>314.6</ele>
        <time>2019-07-04T17:15:42Z</time>
      </trkpt>
      <trkpt lat="39.8382160" lon="-0.4804060">
        <ele>315.4</ele>
        <time>2019-07-04T17:15:45Z</time>
      </trkpt>
      <trkpt lat="39.8382670" lon="-0.4804980">
        <ele>315.8</ele>
        <time>2019-07-04T17:15:47Z</time>
      </trkpt>
      <trkpt lat="39.8383170" lon="-0.4805980">
        <ele>316.0</ele>
        <time>2019-07-04T17:15:49Z</time>
      </trkpt>
      <trkpt lat="39.8383750" lon="-0.4806970">
        <ele>316.0</ele>
        <time>2019-07-04T17:15:51Z</time>
      </trkpt>
      <trkpt lat="39.8385590" lon="-0.4810230">
        <ele>316.0</ele>
        <time>2019-07-04T17:15:57Z</time>
      </trkpt>
      <trkpt lat="39.8386020" lon="-0.4810580">
        <ele>316.0</ele>
        <time>2019-07-04T17:15:58Z</time>
      </trkpt>
      <trkpt lat="39.8387450" lon="-0.4810190">
        <ele>316.2</ele>
        <time>2019-07-04T17:16:01Z</time>
      </trkpt>
      <trkpt lat="39.8387860" lon="-0.4809790">
        <ele>316.2</ele>
        <time>2019-07-04T17:16:02Z</time>
      </trkpt>
      <trkpt lat="39.8389050" lon="-0.4808450">
        <ele>316.8</ele>
        <time>2019-07-04T17:16:05Z</time>
      </trkpt>
      <trkpt lat="39.8389450" lon="-0.4808020">
        <ele>316.8</ele>
        <time>2019-07-04T17:16:06Z</time>
      </trkpt>
      <trkpt lat="39.8389900" lon="-0.4807740">
        <ele>316.8</ele>
        <time>2019-07-04T17:16:07Z</time>
      </trkpt>
      <trkpt lat="39.8391330" lon="-0.4808220">
        <ele>316.8</ele>
        <time>2019-07-04T17:16:10Z</time>
      </trkpt>
      <trkpt lat="39.8392190" lon="-0.4809060">
        <ele>316.8</ele>
        <time>2019-07-04T17:16:12Z</time>
      </trkpt>
      <trkpt lat="39.8394850" lon="-0.4811630">
        <ele>317.4</ele>
        <time>2019-07-04T17:16:18Z</time>
      </trkpt>
      <trkpt lat="39.8398330" lon="-0.4815140">
        <ele>317.2</ele>
        <time>2019-07-04T17:16:26Z</time>
      </trkpt>
      <trkpt lat="39.8399050" lon="-0.4816110">
        <ele>317.4</ele>
        <time>2019-07-04T17:16:28Z</time>
      </trkpt>
      <trkpt lat="39.8399810" lon="-0.4817860">
        <ele>318.0</ele>
        <time>2019-07-04T17:16:31Z</time>
      </trkpt>
      <trkpt lat="39.8401070" lon="-0.4822380">
        <ele>318.0</ele>
        <time>2019-07-04T17:16:38Z</time>
      </trkpt>
      <trkpt lat="39.8402460" lon="-0.4828380">
        <ele>318.6</ele>
        <time>2019-07-04T17:16:47Z</time>
      </trkpt>
      <trkpt lat="39.8402600" lon="-0.4828960">
        <ele>318.6</ele>
        <time>2019-07-04T17:16:48Z</time>
      </trkpt>
      <trkpt lat="39.8402760" lon="-0.4829500">
        <ele>318.8</ele>
        <time>2019-07-04T17:16:49Z</time>
      </trkpt>
      <trkpt lat="39.8403200" lon="-0.4830210">
        <ele>319.0</ele>
        <time>2019-07-04T17:16:51Z</time>
      </trkpt>
      <trkpt lat="39.8404050" lon="-0.4829960">
        <ele>319.2</ele>
        <time>2019-07-04T17:16:54Z</time>
      </trkpt>
      <trkpt lat="39.8404410" lon="-0.4829740">
        <ele>319.2</ele>
        <time>2019-07-04T17:16:55Z</time>
      </trkpt>
      <trkpt lat="39.8405710" lon="-0.4829150">
        <ele>319.0</ele>
        <time>2019-07-04T17:16:58Z</time>
      </trkpt>
      <trkpt lat="39.8406170" lon="-0.4829100">
        <ele>319.0</ele>
        <time>2019-07-04T17:16:59Z</time>
      </trkpt>
      <trkpt lat="39.8407840" lon="-0.4829520">
        <ele>318.8</ele>
        <time>2019-07-04T17:17:02Z</time>
      </trkpt>
      <trkpt lat="39.8409530" lon="-0.4829830">
        <ele>317.8</ele>
        <time>2019-07-04T17:17:05Z</time>
      </trkpt>
      <trkpt lat="39.8409960" lon="-0.4829880">
        <ele>317.2</ele>
        <time>2019-07-04T17:17:06Z</time>
      </trkpt>
      <trkpt lat="39.8410340" lon="-0.4829880">
        <ele>316.8</ele>
        <time>2019-07-04T17:17:07Z</time>
      </trkpt>
      <trkpt lat="39.8410660" lon="-0.4829880">
        <ele>316.4</ele>
        <time>2019-07-04T17:17:08Z</time>
      </trkpt>
      <trkpt lat="39.8411530" lon="-0.4829980">
        <ele>315.4</ele>
        <time>2019-07-04T17:17:12Z</time>
      </trkpt>
      <trkpt lat="39.8412370" lon="-0.4830030">
        <ele>315.2</ele>
        <time>2019-07-04T17:17:16Z</time>
      </trkpt>
      <trkpt lat="39.8412610" lon="-0.4830050">
        <ele>315.0</ele>
        <time>2019-07-04T17:17:17Z</time>
      </trkpt>
      <trkpt lat="39.8414220" lon="-0.4830230">
        <ele>314.4</ele>
        <time>2019-07-04T17:17:22Z</time>
      </trkpt>
      <trkpt lat="39.8416400" lon="-0.4830530">
        <ele>314.0</ele>
        <time>2019-07-04T17:17:27Z</time>
      </trkpt>
      <trkpt lat="39.8417370" lon="-0.4830510">
        <ele>313.8</ele>
        <time>2019-07-04T17:17:29Z</time>
      </trkpt>
      <trkpt lat="39.8419110" lon="-0.4829940">
        <ele>313.2</ele>
        <time>2019-07-04T17:17:32Z</time>
      </trkpt>
      <trkpt lat="39.8419690" lon="-0.4829650">
        <ele>312.8</ele>
        <time>2019-07-04T17:17:33Z</time>
      </trkpt>
      <trkpt lat="39.8420210" lon="-0.4829420">
        <ele>312.4</ele>
        <time>2019-07-04T17:17:34Z</time>
      </trkpt>
      <trkpt lat="39.8420650" lon="-0.4829300">
        <ele>312.2</ele>
        <time>2019-07-04T17:17:35Z</time>
      </trkpt>
      <trkpt lat="39.8421110" lon="-0.4829210">
        <ele>312.0</ele>
        <time>2019-07-04T17:17:36Z</time>
      </trkpt>
      <trkpt lat="39.8421610" lon="-0.4829120">
        <ele>311.6</ele>
        <time>2019-07-04T17:17:37Z</time>
      </trkpt>
      <trkpt lat="39.8422630" lon="-0.4828970">
        <ele>310.8</ele>
        <time>2019-07-04T17:17:39Z</time>
      </trkpt>
      <trkpt lat="39.8423470" lon="-0.4828990">
        <ele>310.2</ele>
        <time>2019-07-04T17:17:41Z</time>
      </trkpt>
      <trkpt lat="39.8424110" lon="-0.4829550">
        <ele>310.8</ele>
        <time>2019-07-04T17:17:43Z</time>
      </trkpt>
      <trkpt lat="39.8424400" lon="-0.4829910">
        <ele>310.8</ele>
        <time>2019-07-04T17:17:44Z</time>
      </trkpt>
      <trkpt lat="39.8424710" lon="-0.4830260">
        <ele>311.0</ele>
        <time>2019-07-04T17:17:45Z</time>
      </trkpt>
      <trkpt lat="39.8425360" lon="-0.4830750">
        <ele>311.2</ele>
        <time>2019-07-04T17:17:47Z</time>
      </trkpt>
      <trkpt lat="39.8426000" lon="-0.4830830">
        <ele>311.2</ele>
        <time>2019-07-04T17:17:49Z</time>
      </trkpt>
      <trkpt lat="39.8426660" lon="-0.4830590">
        <ele>312.2</ele>
        <time>2019-07-04T17:17:52Z</time>
      </trkpt>
      <trkpt lat="39.8427100" lon="-0.4830320">
        <ele>313.2</ele>
        <time>2019-07-04T17:17:54Z</time>
      </trkpt>
      <trkpt lat="39.8427330" lon="-0.4830180">
        <ele>313.6</ele>
        <time>2019-07-04T17:17:55Z</time>
      </trkpt>
      <trkpt lat="39.8427810" lon="-0.4829930">
        <ele>313.8</ele>
        <time>2019-07-04T17:17:57Z</time>
      </trkpt>
      <trkpt lat="39.8428030" lon="-0.4829860">
        <ele>314.0</ele>
        <time>2019-07-04T17:17:58Z</time>
      </trkpt>
      <trkpt lat="39.8428280" lon="-0.4829860">
        <ele>314.2</ele>
        <time>2019-07-04T17:17:59Z</time>
      </trkpt>
      <trkpt lat="39.8428550" lon="-0.4829890">
        <ele>314.6</ele>
        <time>2019-07-04T17:18:00Z</time>
      </trkpt>
      <trkpt lat="39.8429070" lon="-0.4830100">
        <ele>315.4</ele>
        <time>2019-07-04T17:18:02Z</time>
      </trkpt>
      <trkpt lat="39.8429500" lon="-0.4830540">
        <ele>315.8</ele>
        <time>2019-07-04T17:18:04Z</time>
      </trkpt>
      <trkpt lat="39.8429710" lon="-0.4830800">
        <ele>316.0</ele>
        <time>2019-07-04T17:18:05Z</time>
      </trkpt>
      <trkpt lat="39.8430640" lon="-0.4831670">
        <ele>316.6</ele>
        <time>2019-07-04T17:18:09Z</time>
      </trkpt>
      <trkpt lat="39.8430930" lon="-0.4831650">
        <ele>316.8</ele>
        <time>2019-07-04T17:18:10Z</time>
      </trkpt>
      <trkpt lat="39.8431240" lon="-0.4831490">
        <ele>316.8</ele>
        <time>2019-07-04T17:18:11Z</time>
      </trkpt>
      <trkpt lat="39.8431850" lon="-0.4830910">
        <ele>317.0</ele>
        <time>2019-07-04T17:18:13Z</time>
      </trkpt>
      <trkpt lat="39.8432160" lon="-0.4830580">
        <ele>317.2</ele>
        <time>2019-07-04T17:18:14Z</time>
      </trkpt>
      <trkpt lat="39.8435050" lon="-0.4828100">
        <ele>317.0</ele>
        <time>2019-07-04T17:18:22Z</time>
      </trkpt>
      <trkpt lat="39.8436830" lon="-0.4828040">
        <ele>317.2</ele>
        <time>2019-07-04T17:18:26Z</time>
      </trkpt>
      <trkpt lat="39.8437660" lon="-0.4828420">
        <ele>317.4</ele>
        <time>2019-07-04T17:18:28Z</time>
      </trkpt>
      <trkpt lat="39.8438790" lon="-0.4829080">
        <ele>317.8</ele>
        <time>2019-07-04T17:18:31Z</time>
      </trkpt>
      <trkpt lat="39.8439170" lon="-0.4829330">
        <ele>317.8</ele>
        <time>2019-07-04T17:18:32Z</time>
      </trkpt>
      <trkpt lat="39.8439950" lon="-0.4830070">
        <ele>317.8</ele>
        <time>2019-07-04T17:18:34Z</time>
      </trkpt>
      <trkpt lat="39.8441080" lon="-0.4831380">
        <ele>317.8</ele>
        <time>2019-07-04T17:18:37Z</time>
      </trkpt>
      <trkpt lat="39.8442320" lon="-0.4832840">
        <ele>318.8</ele>
        <time>2019-07-04T17:18:41Z</time>
      </trkpt>
      <trkpt lat="39.8443220" lon="-0.4833750">
        <ele>319.2</ele>
        <time>2019-07-04T17:18:44Z</time>
      </trkpt>
      <trkpt lat="39.8444980" lon="-0.4834420">
        <ele>319.8</ele>
        <time>2019-07-04T17:18:49Z</time>
      </trkpt>
      <trkpt lat="39.8447530" lon="-0.4834300">
        <ele>319.4</ele>
        <time>2019-07-04T17:18:55Z</time>
      </trkpt>
      <trkpt lat="39.8448810" lon="-0.4834240">
        <ele>318.4</ele>
        <time>2019-07-04T17:18:58Z</time>
      </trkpt>
      <trkpt lat="39.8449460" lon="-0.4834380">
        <ele>318.0</ele>
        <time>2019-07-04T17:19:00Z</time>
      </trkpt>
      <trkpt lat="39.8449890" lon="-0.4834800">
        <ele>318.2</ele>
        <time>2019-07-04T17:19:02Z</time>
      </trkpt>
      <trkpt lat="39.8450340" lon="-0.4835090">
        <ele>318.2</ele>
        <time>2019-07-04T17:19:04Z</time>
      </trkpt>
      <trkpt lat="39.8451650" lon="-0.4834930">
        <ele>318.0</ele>
        <time>2019-07-04T17:19:08Z</time>
      </trkpt>
      <trkpt lat="39.8452360" lon="-0.4835980">
        <ele>318.0</ele>
        <time>2019-07-04T17:19:11Z</time>
      </trkpt>
      <trkpt lat="39.8452470" lon="-0.4836470">
        <ele>318.0</ele>
        <time>2019-07-04T17:19:12Z</time>
      </trkpt>
      <trkpt lat="39.8452980" lon="-0.4839240">
        <ele>318.6</ele>
        <time>2019-07-04T17:19:18Z</time>
      </trkpt>
      <trkpt lat="39.8453470" lon="-0.4841730">
        <ele>319.4</ele>
        <time>2019-07-04T17:19:24Z</time>
      </trkpt>
      <trkpt lat="39.8453900" lon="-0.4843590">
        <ele>320.0</ele>
        <time>2019-07-04T17:19:29Z</time>
      </trkpt>
      <trkpt lat="39.8454070" lon="-0.4844690">
        <ele>320.2</ele>
        <time>2019-07-04T17:19:32Z</time>
      </trkpt>
      <trkpt lat="39.8454300" lon="-0.4845800">
        <ele>321.0</ele>
        <time>2019-07-04T17:19:35Z</time>
      </trkpt>
      <trkpt lat="39.8454400" lon="-0.4847480">
        <ele>321.0</ele>
        <time>2019-07-04T17:19:39Z</time>
      </trkpt>
      <trkpt lat="39.8454810" lon="-0.4849820">
        <ele>321.6</ele>
        <time>2019-07-04T17:19:45Z</time>
      </trkpt>
      <trkpt lat="39.8454940" lon="-0.4850610">
        <ele>321.8</ele>
        <time>2019-07-04T17:19:47Z</time>
      </trkpt>
      <trkpt lat="39.8455290" lon="-0.4852110">
        <ele>322.2</ele>
        <time>2019-07-04T17:19:51Z</time>
      </trkpt>
      <trkpt lat="39.8455840" lon="-0.4854840">
        <ele>322.8</ele>
        <time>2019-07-04T17:19:58Z</time>
      </trkpt>
      <trkpt lat="39.8455910" lon="-0.4855240">
        <ele>322.8</ele>
        <time>2019-07-04T17:19:59Z</time>
      </trkpt>
      <trkpt lat="39.8456380" lon="-0.4858120">
        <ele>323.8</ele>
        <time>2019-07-04T17:20:06Z</time>
      </trkpt>
      <trkpt lat="39.8456410" lon="-0.4858520">
        <ele>324.0</ele>
        <time>2019-07-04T17:20:07Z</time>
      </trkpt>
      <trkpt lat="39.8456820" lon="-0.4860700">
        <ele>324.4</ele>
        <time>2019-07-04T17:20:12Z</time>
      </trkpt>
      <trkpt lat="39.8457560" lon="-0.4863470">
        <ele>325.0</ele>
        <time>2019-07-04T17:20:19Z</time>
      </trkpt>
      <trkpt lat="39.8457820" lon="-0.4863620">
        <ele>325.0</ele>
        <time>2019-07-04T17:20:20Z</time>
      </trkpt>
      <trkpt lat="39.8458780" lon="-0.4863330">
        <ele>325.4</ele>
        <time>2019-07-04T17:20:23Z</time>
      </trkpt>
      <trkpt lat="39.8459130" lon="-0.4863210">
        <ele>325.4</ele>
        <time>2019-07-04T17:20:24Z</time>
      </trkpt>
      <trkpt lat="39.8461980" lon="-0.4862140">
        <ele>325.8</ele>
        <time>2019-07-04T17:20:32Z</time>
      </trkpt>
      <trkpt lat="39.8463490" lon="-0.4861710">
        <ele>325.8</ele>
        <time>2019-07-04T17:20:37Z</time>
      </trkpt>
      <trkpt lat="39.8464070" lon="-0.4861340">
        <ele>326.0</ele>
        <time>2019-07-04T17:20:39Z</time>
      </trkpt>
      <trkpt lat="39.8464320" lon="-0.4861060">
        <ele>326.0</ele>
        <time>2019-07-04T17:20:40Z</time>
      </trkpt>
      <trkpt lat="39.8465280" lon="-0.4859960">
        <ele>326.0</ele>
        <time>2019-07-04T17:20:44Z</time>
      </trkpt>
      <trkpt lat="39.8465610" lon="-0.4859820">
        <ele>326.0</ele>
        <time>2019-07-04T17:20:45Z</time>
      </trkpt>
      <trkpt lat="39.8466300" lon="-0.4859900">
        <ele>326.2</ele>
        <time>2019-07-04T17:20:47Z</time>
      </trkpt>
      <trkpt lat="39.8467000" lon="-0.4860840">
        <ele>326.2</ele>
        <time>2019-07-04T17:20:50Z</time>
      </trkpt>
      <trkpt lat="39.8467090" lon="-0.4861310">
        <ele>326.4</ele>
        <time>2019-07-04T17:20:51Z</time>
      </trkpt>
      <trkpt lat="39.8467170" lon="-0.4862260">
        <ele>326.6</ele>
        <time>2019-07-04T17:20:53Z</time>
      </trkpt>
      <trkpt lat="39.8467180" lon="-0.4862780">
        <ele>326.6</ele>
        <time>2019-07-04T17:20:54Z</time>
      </trkpt>
      <trkpt lat="39.8467310" lon="-0.4863790">
        <ele>326.8</ele>
        <time>2019-07-04T17:20:56Z</time>
      </trkpt>
      <trkpt lat="39.8467530" lon="-0.4864760">
        <ele>327.2</ele>
        <time>2019-07-04T17:20:58Z</time>
      </trkpt>
      <trkpt lat="39.8467860" lon="-0.4866730">
        <ele>327.6</ele>
        <time>2019-07-04T17:21:02Z</time>
      </trkpt>
      <trkpt lat="39.8468070" lon="-0.4868830">
        <ele>328.0</ele>
        <time>2019-07-04T17:21:06Z</time>
      </trkpt>
      <trkpt lat="39.8468180" lon="-0.4869350">
        <ele>328.0</ele>
        <time>2019-07-04T17:21:07Z</time>
      </trkpt>
      <trkpt lat="39.8468640" lon="-0.4872100">
        <ele>328.4</ele>
        <time>2019-07-04T17:21:12Z</time>
      </trkpt>
      <trkpt lat="39.8468780" lon="-0.4873210">
        <ele>328.8</ele>
        <time>2019-07-04T17:21:14Z</time>
      </trkpt>
      <trkpt lat="39.8468900" lon="-0.4874280">
        <ele>329.2</ele>
        <time>2019-07-04T17:21:16Z</time>
      </trkpt>
      <trkpt lat="39.8469110" lon="-0.4875970">
        <ele>329.6</ele>
        <time>2019-07-04T17:21:19Z</time>
      </trkpt>
      <trkpt lat="39.8469200" lon="-0.4876480">
        <ele>329.8</ele>
        <time>2019-07-04T17:21:20Z</time>
      </trkpt>
      <trkpt lat="39.8469410" lon="-0.4878170">
        <ele>330.2</ele>
        <time>2019-07-04T17:21:23Z</time>
      </trkpt>
      <trkpt lat="39.8469630" lon="-0.4879840">
        <ele>330.6</ele>
        <time>2019-07-04T17:21:26Z</time>
      </trkpt>
      <trkpt lat="39.8469760" lon="-0.4882180">
        <ele>331.0</ele>
        <time>2019-07-04T17:21:30Z</time>
      </trkpt>
      <trkpt lat="39.8469880" lon="-0.4883310">
        <ele>331.2</ele>
        <time>2019-07-04T17:21:32Z</time>
      </trkpt>
      <trkpt lat="39.8469910" lon="-0.4883900">
        <ele>331.4</ele>
        <time>2019-07-04T17:21:33Z</time>
      </trkpt>
      <trkpt lat="39.8469990" lon="-0.4884470">
        <ele>331.4</ele>
        <time>2019-07-04T17:21:34Z</time>
      </trkpt>
      <trkpt lat="39.8470610" lon="-0.4887130">
        <ele>332.0</ele>
        <time>2019-07-04T17:21:39Z</time>
      </trkpt>
      <trkpt lat="39.8471020" lon="-0.4889700">
        <ele>332.2</ele>
        <time>2019-07-04T17:21:44Z</time>
      </trkpt>
      <trkpt lat="39.8471050" lon="-0.4890700">
        <ele>332.6</ele>
        <time>2019-07-04T17:21:46Z</time>
      </trkpt>
      <trkpt lat="39.8471270" lon="-0.4891950">
        <ele>333.4</ele>
        <time>2019-07-04T17:21:49Z</time>
      </trkpt>
      <trkpt lat="39.8471460" lon="-0.4893200">
        <ele>334.0</ele>
        <time>2019-07-04T17:21:52Z</time>
      </trkpt>
      <trkpt lat="39.8471430" lon="-0.4893580">
        <ele>334.2</ele>
        <time>2019-07-04T17:21:53Z</time>
      </trkpt>
      <trkpt lat="39.8471160" lon="-0.4893990">
        <ele>334.4</ele>
        <time>2019-07-04T17:21:55Z</time>
      </trkpt>
      <trkpt lat="39.8470740" lon="-0.4893960">
        <ele>334.4</ele>
        <time>2019-07-04T17:21:57Z</time>
      </trkpt>
      <trkpt lat="39.8469760" lon="-0.4893580">
        <ele>334.2</ele>
        <time>2019-07-04T17:22:00Z</time>
      </trkpt>
      <trkpt lat="39.8468980" lon="-0.4893570">
        <ele>334.2</ele>
        <time>2019-07-04T17:22:02Z</time>
      </trkpt>
      <trkpt lat="39.8468110" lon="-0.4893820">
        <ele>334.0</ele>
        <time>2019-07-04T17:22:04Z</time>
      </trkpt>
      <trkpt lat="39.8464890" lon="-0.4895020">
        <ele>333.6</ele>
        <time>2019-07-04T17:22:11Z</time>
      </trkpt>
      <trkpt lat="39.8463550" lon="-0.4895650">
        <ele>333.6</ele>
        <time>2019-07-04T17:22:14Z</time>
      </trkpt>
      <trkpt lat="39.8463110" lon="-0.4895800">
        <ele>333.4</ele>
        <time>2019-07-04T17:22:15Z</time>
      </trkpt>
      <trkpt lat="39.8462170" lon="-0.4896110">
        <ele>333.2</ele>
        <time>2019-07-04T17:22:17Z</time>
      </trkpt>
      <trkpt lat="39.8460350" lon="-0.4896810">
        <ele>333.0</ele>
        <time>2019-07-04T17:22:21Z</time>
      </trkpt>
      <trkpt lat="39.8458880" lon="-0.4897390">
        <ele>332.8</ele>
        <time>2019-07-04T17:22:24Z</time>
      </trkpt>
      <trkpt lat="39.8457080" lon="-0.4898190">
        <ele>332.4</ele>
        <time>2019-07-04T17:22:28Z</time>
      </trkpt>
      <trkpt lat="39.8456250" lon="-0.4898520">
        <ele>332.4</ele>
        <time>2019-07-04T17:22:30Z</time>
      </trkpt>
      <trkpt lat="39.8455870" lon="-0.4898700">
        <ele>332.4</ele>
        <time>2019-07-04T17:22:31Z</time>
      </trkpt>
      <trkpt lat="39.8456470" lon="-0.4901850">
        <ele>334.2</ele>
        <time>2019-07-04T17:37:13Z</time>
      </trkpt>
      <trkpt lat="39.8456700" lon="-0.4901780">
        <ele>334.4</ele>
        <time>2019-07-04T17:37:14Z</time>
      </trkpt>
      <trkpt lat="39.8456920" lon="-0.4901690">
        <ele>334.4</ele>
        <time>2019-07-04T17:37:15Z</time>
      </trkpt>
      <trkpt lat="39.8457830" lon="-0.4901270">
        <ele>334.4</ele>
        <time>2019-07-04T17:37:18Z</time>
      </trkpt>
      <trkpt lat="39.8458870" lon="-0.4900770">
        <ele>334.6</ele>
        <time>2019-07-04T17:37:21Z</time>
      </trkpt>
      <trkpt lat="39.8459660" lon="-0.4900410">
        <ele>334.8</ele>
        <time>2019-07-04T17:37:23Z</time>
      </trkpt>
      <trkpt lat="39.8460830" lon="-0.4899910">
        <ele>335.4</ele>
        <time>2019-07-04T17:37:26Z</time>
      </trkpt>
      <trkpt lat="39.8462710" lon="-0.4899130">
        <ele>335.4</ele>
        <time>2019-07-04T17:37:31Z</time>
      </trkpt>
      <trkpt lat="39.8465000" lon="-0.4898560">
        <ele>335.4</ele>
        <time>2019-07-04T17:37:37Z</time>
      </trkpt>
      <trkpt lat="39.8466650" lon="-0.4897790">
        <ele>335.6</ele>
        <time>2019-07-04T17:37:41Z</time>
      </trkpt>
      <trkpt lat="39.8467410" lon="-0.4897270">
        <ele>335.8</ele>
        <time>2019-07-04T17:37:43Z</time>
      </trkpt>
      <trkpt lat="39.8469640" lon="-0.4896070">
        <ele>336.0</ele>
        <time>2019-07-04T17:37:49Z</time>
      </trkpt>
      <trkpt lat="39.8470800" lon="-0.4895700">
        <ele>336.2</ele>
        <time>2019-07-04T17:37:52Z</time>
      </trkpt>
      <trkpt lat="39.8471450" lon="-0.4895790">
        <ele>336.4</ele>
        <time>2019-07-04T17:37:54Z</time>
      </trkpt>
      <trkpt lat="39.8471690" lon="-0.4895650">
        <ele>336.4</ele>
        <time>2019-07-04T17:37:55Z</time>
      </trkpt>
      <trkpt lat="39.8471970" lon="-0.4895080">
        <ele>336.4</ele>
        <time>2019-07-04T17:37:57Z</time>
      </trkpt>
      <trkpt lat="39.8472300" lon="-0.4894740">
        <ele>336.2</ele>
        <time>2019-07-04T17:37:59Z</time>
      </trkpt>
      <trkpt lat="39.8472570" lon="-0.4894880">
        <ele>336.2</ele>
        <time>2019-07-04T17:38:00Z</time>
      </trkpt>
      <trkpt lat="39.8473010" lon="-0.4896280">
        <ele>336.2</ele>
        <time>2019-07-04T17:38:03Z</time>
      </trkpt>
      <trkpt lat="39.8473290" lon="-0.4898300">
        <ele>336.4</ele>
        <time>2019-07-04T17:38:07Z</time>
      </trkpt>
      <trkpt lat="39.8473370" lon="-0.4899180">
        <ele>336.6</ele>
        <time>2019-07-04T17:38:09Z</time>
      </trkpt>
      <trkpt lat="39.8473350" lon="-0.4900070">
        <ele>337.0</ele>
        <time>2019-07-04T17:38:11Z</time>
      </trkpt>
      <trkpt lat="39.8473470" lon="-0.4901380">
        <ele>337.2</ele>
        <time>2019-07-04T17:38:14Z</time>
      </trkpt>
      <trkpt lat="39.8473910" lon="-0.4903150">
        <ele>338.0</ele>
        <time>2019-07-04T17:38:18Z</time>
      </trkpt>
      <trkpt lat="39.8474050" lon="-0.4904060">
        <ele>338.4</ele>
        <time>2019-07-04T17:38:20Z</time>
      </trkpt>
      <trkpt lat="39.8474390" lon="-0.4905410">
        <ele>338.6</ele>
        <time>2019-07-04T17:38:23Z</time>
      </trkpt>
      <trkpt lat="39.8474460" lon="-0.4906340">
        <ele>339.2</ele>
        <time>2019-07-04T17:38:25Z</time>
      </trkpt>
      <trkpt lat="39.8474970" lon="-0.4908300">
        <ele>340.0</ele>
        <time>2019-07-04T17:38:29Z</time>
      </trkpt>
      <trkpt lat="39.8475140" lon="-0.4909340">
        <ele>340.2</ele>
        <time>2019-07-04T17:38:31Z</time>
      </trkpt>
      <trkpt lat="39.8475240" lon="-0.4909890">
        <ele>340.4</ele>
        <time>2019-07-04T17:38:32Z</time>
      </trkpt>
      <trkpt lat="39.8475970" lon="-0.4912600">
        <ele>341.4</ele>
        <time>2019-07-04T17:38:37Z</time>
      </trkpt>
      <trkpt lat="39.8476090" lon="-0.4913620">
        <ele>341.6</ele>
        <time>2019-07-04T17:38:39Z</time>
      </trkpt>
      <trkpt lat="39.8476080" lon="-0.4915580">
        <ele>342.4</ele>
        <time>2019-07-04T17:38:43Z</time>
      </trkpt>
      <trkpt lat="39.8476640" lon="-0.4917600">
        <ele>343.0</ele>
        <time>2019-07-04T17:38:47Z</time>
      </trkpt>
      <trkpt lat="39.8476790" lon="-0.4918700">
        <ele>343.4</ele>
        <time>2019-07-04T17:38:49Z</time>
      </trkpt>
      <trkpt lat="39.8477190" lon="-0.4921390">
        <ele>344.0</ele>
        <time>2019-07-04T17:38:54Z</time>
      </trkpt>
      <trkpt lat="39.8477710" lon="-0.4922730">
        <ele>344.4</ele>
        <time>2019-07-04T17:38:57Z</time>
      </trkpt>
      <trkpt lat="39.8478400" lon="-0.4923740">
        <ele>345.4</ele>
        <time>2019-07-04T17:39:00Z</time>
      </trkpt>
      <trkpt lat="39.8478710" lon="-0.4923930">
        <ele>345.6</ele>
        <time>2019-07-04T17:39:01Z</time>
      </trkpt>
      <trkpt lat="39.8479990" lon="-0.4924390">
        <ele>346.4</ele>
        <time>2019-07-04T17:39:05Z</time>
      </trkpt>
      <trkpt lat="39.8480280" lon="-0.4924530">
        <ele>346.8</ele>
        <time>2019-07-04T17:39:06Z</time>
      </trkpt>
      <trkpt lat="39.8481740" lon="-0.4925420">
        <ele>347.8</ele>
        <time>2019-07-04T17:39:11Z</time>
      </trkpt>
      <trkpt lat="39.8482600" lon="-0.4925940">
        <ele>348.8</ele>
        <time>2019-07-04T17:39:14Z</time>
      </trkpt>
      <trkpt lat="39.8483400" lon="-0.4926470">
        <ele>349.4</ele>
        <time>2019-07-04T17:39:17Z</time>
      </trkpt>
      <trkpt lat="39.8483940" lon="-0.4926850">
        <ele>349.8</ele>
        <time>2019-07-04T17:39:19Z</time>
      </trkpt>
      <trkpt lat="39.8484890" lon="-0.4927780">
        <ele>350.6</ele>
        <time>2019-07-04T17:39:23Z</time>
      </trkpt>
      <trkpt lat="39.8485160" lon="-0.4927980">
        <ele>351.0</ele>
        <time>2019-07-04T17:39:24Z</time>
      </trkpt>
      <trkpt lat="39.8486680" lon="-0.4928870">
        <ele>352.2</ele>
        <time>2019-07-04T17:39:29Z</time>
      </trkpt>
      <trkpt lat="39.8487850" lon="-0.4929580">
        <ele>353.2</ele>
        <time>2019-07-04T17:39:33Z</time>
      </trkpt>
      <trkpt lat="39.8489000" lon="-0.4930300">
        <ele>353.8</ele>
        <time>2019-07-04T17:39:37Z</time>
      </trkpt>
      <trkpt lat="39.8489520" lon="-0.4930700">
        <ele>354.4</ele>
        <time>2019-07-04T17:39:39Z</time>
      </trkpt>
      <trkpt lat="39.8490600" lon="-0.4931530">
        <ele>355.0</ele>
        <time>2019-07-04T17:39:43Z</time>
      </trkpt>
      <trkpt lat="39.8491310" lon="-0.4932010">
        <ele>355.4</ele>
        <time>2019-07-04T17:39:45Z</time>
      </trkpt>
      <trkpt lat="39.8493090" lon="-0.4933120">
        <ele>356.4</ele>
        <time>2019-07-04T17:39:51Z</time>
      </trkpt>
      <trkpt lat="39.8494920" lon="-0.4934210">
        <ele>357.0</ele>
        <time>2019-07-04T17:39:57Z</time>
      </trkpt>
      <trkpt lat="39.8495540" lon="-0.4934700">
        <ele>357.6</ele>
        <time>2019-07-04T17:39:59Z</time>
      </trkpt>
      <trkpt lat="39.8496060" lon="-0.4935200">
        <ele>358.0</ele>
        <time>2019-07-04T17:40:01Z</time>
      </trkpt>
      <trkpt lat="39.8496380" lon="-0.4935320">
        <ele>358.2</ele>
        <time>2019-07-04T17:40:02Z</time>
      </trkpt>
      <trkpt lat="39.8496970" lon="-0.4935490">
        <ele>358.8</ele>
        <time>2019-07-04T17:40:04Z</time>
      </trkpt>
      <trkpt lat="39.8498050" lon="-0.4935930">
        <ele>360.2</ele>
        <time>2019-07-04T17:40:08Z</time>
      </trkpt>
      <trkpt lat="39.8498350" lon="-0.4936080">
        <ele>360.2</ele>
        <time>2019-07-04T17:40:09Z</time>
      </trkpt>
      <trkpt lat="39.8498900" lon="-0.4936270">
        <ele>361.0</ele>
        <time>2019-07-04T17:40:11Z</time>
      </trkpt>
      <trkpt lat="39.8500080" lon="-0.4936410">
        <ele>362.4</ele>
        <time>2019-07-04T17:40:15Z</time>
      </trkpt>
      <trkpt lat="39.8500860" lon="-0.4936610">
        <ele>363.4</ele>
        <time>2019-07-04T17:40:18Z</time>
      </trkpt>
      <trkpt lat="39.8501790" lon="-0.4937020">
        <ele>364.2</ele>
        <time>2019-07-04T17:40:21Z</time>
      </trkpt>
      <trkpt lat="39.8502410" lon="-0.4937250">
        <ele>364.6</ele>
        <time>2019-07-04T17:40:23Z</time>
      </trkpt>
      <trkpt lat="39.8503290" lon="-0.4937680">
        <ele>365.6</ele>
        <time>2019-07-04T17:40:26Z</time>
      </trkpt>
      <trkpt lat="39.8503620" lon="-0.4937800">
        <ele>365.8</ele>
        <time>2019-07-04T17:40:27Z</time>
      </trkpt>
      <trkpt lat="39.8504600" lon="-0.4938200">
        <ele>367.0</ele>
        <time>2019-07-04T17:40:31Z</time>
      </trkpt>
      <trkpt lat="39.8504800" lon="-0.4938080">
        <ele>367.4</ele>
        <time>2019-07-04T17:40:32Z</time>
      </trkpt>
      <trkpt lat="39.8505180" lon="-0.4937640">
        <ele>368.2</ele>
        <time>2019-07-04T17:40:34Z</time>
      </trkpt>
      <trkpt lat="39.8505650" lon="-0.4936700">
        <ele>369.2</ele>
        <time>2019-07-04T17:40:37Z</time>
      </trkpt>
      <trkpt lat="39.8505780" lon="-0.4936370">
        <ele>369.6</ele>
        <time>2019-07-04T17:40:38Z</time>
      </trkpt>
      <trkpt lat="39.8506080" lon="-0.4935720">
        <ele>370.4</ele>
        <time>2019-07-04T17:40:40Z</time>
      </trkpt>
      <trkpt lat="39.8506430" lon="-0.4935200">
        <ele>371.8</ele>
        <time>2019-07-04T17:40:42Z</time>
      </trkpt>
      <trkpt lat="39.8506980" lon="-0.4934950">
        <ele>372.4</ele>
        <time>2019-07-04T17:40:44Z</time>
      </trkpt>
      <trkpt lat="39.8507530" lon="-0.4934980">
        <ele>372.8</ele>
        <time>2019-07-04T17:40:46Z</time>
      </trkpt>
      <trkpt lat="39.8507960" lon="-0.4935490">
        <ele>373.2</ele>
        <time>2019-07-04T17:40:48Z</time>
      </trkpt>
      <trkpt lat="39.8508530" lon="-0.4937620">
        <ele>374.0</ele>
        <time>2019-07-04T17:40:54Z</time>
      </trkpt>
      <trkpt lat="39.8509130" lon="-0.4939670">
        <ele>374.6</ele>
        <time>2019-07-04T17:40:59Z</time>
      </trkpt>
      <trkpt lat="39.8510000" lon="-0.4942230">
        <ele>374.6</ele>
        <time>2019-07-04T17:41:04Z</time>
      </trkpt>
      <trkpt lat="39.8510790" lon="-0.4944890">
        <ele>374.6</ele>
        <time>2019-07-04T17:41:09Z</time>
      </trkpt>
      <trkpt lat="39.8510970" lon="-0.4945400">
        <ele>374.6</ele>
        <time>2019-07-04T17:41:10Z</time>
      </trkpt>
      <trkpt lat="39.8511340" lon="-0.4946560">
        <ele>374.6</ele>
        <time>2019-07-04T17:41:12Z</time>
      </trkpt>
      <trkpt lat="39.8512050" lon="-0.4947850">
        <ele>374.4</ele>
        <time>2019-07-04T17:41:14Z</time>
      </trkpt>
      <trkpt lat="39.8513650" lon="-0.4949280">
        <ele>374.2</ele>
        <time>2019-07-04T17:41:17Z</time>
      </trkpt>
      <trkpt lat="39.8514200" lon="-0.4949750">
        <ele>374.2</ele>
        <time>2019-07-04T17:41:18Z</time>
      </trkpt>
      <trkpt lat="39.8517260" lon="-0.4952410">
        <ele>374.6</ele>
        <time>2019-07-04T17:41:24Z</time>
      </trkpt>
      <trkpt lat="39.8519270" lon="-0.4954040">
        <ele>374.6</ele>
        <time>2019-07-04T17:41:28Z</time>
      </trkpt>
      <trkpt lat="39.8520210" lon="-0.4954980">
        <ele>374.8</ele>
        <time>2019-07-04T17:41:30Z</time>
      </trkpt>
      <trkpt lat="39.8521380" lon="-0.4956690">
        <ele>375.0</ele>
        <time>2019-07-04T17:41:33Z</time>
      </trkpt>
      <trkpt lat="39.8521720" lon="-0.4957350">
        <ele>375.0</ele>
        <time>2019-07-04T17:41:34Z</time>
      </trkpt>
      <trkpt lat="39.8523470" lon="-0.4961390">
        <ele>375.4</ele>
        <time>2019-07-04T17:41:40Z</time>
      </trkpt>
      <trkpt lat="39.8523630" lon="-0.4963620">
        <ele>375.4</ele>
        <time>2019-07-04T17:41:43Z</time>
      </trkpt>
      <trkpt lat="39.8523550" lon="-0.4964390">
        <ele>375.4</ele>
        <time>2019-07-04T17:41:44Z</time>
      </trkpt>
      <trkpt lat="39.8522720" lon="-0.4970550">
        <ele>374.8</ele>
        <time>2019-07-04T17:41:52Z</time>
      </trkpt>
      <trkpt lat="39.8522640" lon="-0.4971320">
        <ele>374.8</ele>
        <time>2019-07-04T17:41:53Z</time>
      </trkpt>
      <trkpt lat="39.8522590" lon="-0.4973600">
        <ele>374.8</ele>
        <time>2019-07-04T17:41:56Z</time>
      </trkpt>
      <trkpt lat="39.8522570" lon="-0.4975840">
        <ele>375.0</ele>
        <time>2019-07-04T17:41:59Z</time>
      </trkpt>
      <trkpt lat="39.8522610" lon="-0.4976570">
        <ele>375.0</ele>
        <time>2019-07-04T17:42:00Z</time>
      </trkpt>
      <trkpt lat="39.8522880" lon="-0.4978790">
        <ele>375.0</ele>
        <time>2019-07-04T17:42:03Z</time>
      </trkpt>
      <trkpt lat="39.8523020" lon="-0.4980260">
        <ele>375.0</ele>
        <time>2019-07-04T17:42:05Z</time>
      </trkpt>
      <trkpt lat="39.8523280" lon="-0.4986510">
        <ele>374.8</ele>
        <time>2019-07-04T17:42:13Z</time>
      </trkpt>
      <trkpt lat="39.8523420" lon="-0.4993420">
        <ele>374.4</ele>
        <time>2019-07-04T17:42:22Z</time>
      </trkpt>
      <trkpt lat="39.8523570" lon="-0.4994200">
        <ele>374.4</ele>
        <time>2019-07-04T17:42:23Z</time>
      </trkpt>
      <trkpt lat="39.8524270" lon="-0.4996420">
        <ele>374.4</ele>
        <time>2019-07-04T17:42:26Z</time>
      </trkpt>
      <trkpt lat="39.8524860" lon="-0.4997810">
        <ele>374.2</ele>
        <time>2019-07-04T17:42:28Z</time>
      </trkpt>
      <trkpt lat="39.8525910" lon="-0.4999610">
        <ele>374.0</ele>
        <time>2019-07-04T17:42:31Z</time>
      </trkpt>
      <trkpt lat="39.8526620" lon="-0.5002730">
        <ele>373.4</ele>
        <time>2019-07-04T17:42:35Z</time>
      </trkpt>
      <trkpt lat="39.8526680" lon="-0.5008100">
        <ele>372.8</ele>
        <time>2019-07-04T17:42:41Z</time>
      </trkpt>
      <trkpt lat="39.8526830" lon="-0.5012180">
        <ele>372.8</ele>
        <time>2019-07-04T17:42:46Z</time>
      </trkpt>
      <trkpt lat="39.8527070" lon="-0.5012890">
        <ele>372.6</ele>
        <time>2019-07-04T17:42:47Z</time>
      </trkpt>
      <trkpt lat="39.8527770" lon="-0.5014040">
        <ele>372.2</ele>
        <time>2019-07-04T17:42:49Z</time>
      </trkpt>
      <trkpt lat="39.8528350" lon="-0.5015100">
        <ele>372.4</ele>
        <time>2019-07-04T17:42:51Z</time>
      </trkpt>
      <trkpt lat="39.8528610" lon="-0.5016180">
        <ele>373.0</ele>
        <time>2019-07-04T17:42:53Z</time>
      </trkpt>
      <trkpt lat="39.8528750" lon="-0.5016710">
        <ele>373.2</ele>
        <time>2019-07-04T17:42:54Z</time>
      </trkpt>
      <trkpt lat="39.8528930" lon="-0.5017250">
        <ele>373.6</ele>
        <time>2019-07-04T17:42:55Z</time>
      </trkpt>
      <trkpt lat="39.8529130" lon="-0.5017780">
        <ele>374.0</ele>
        <time>2019-07-04T17:42:56Z</time>
      </trkpt>
      <trkpt lat="39.8529320" lon="-0.5018320">
        <ele>373.8</ele>
        <time>2019-07-04T17:42:57Z</time>
      </trkpt>
      <trkpt lat="39.8530330" lon="-0.5021690">
        <ele>374.2</ele>
        <time>2019-07-04T17:43:03Z</time>
      </trkpt>
      <trkpt lat="39.8530460" lon="-0.5022280">
        <ele>374.4</ele>
        <time>2019-07-04T17:43:04Z</time>
      </trkpt>
      <trkpt lat="39.8530930" lon="-0.5023830">
        <ele>374.6</ele>
        <time>2019-07-04T17:43:07Z</time>
      </trkpt>
      <trkpt lat="39.8531490" lon="-0.5024630">
        <ele>375.0</ele>
        <time>2019-07-04T17:43:09Z</time>
      </trkpt>
      <trkpt lat="39.8532110" lon="-0.5025370">
        <ele>375.2</ele>
        <time>2019-07-04T17:43:11Z</time>
      </trkpt>
      <trkpt lat="39.8533000" lon="-0.5026650">
        <ele>375.4</ele>
        <time>2019-07-04T17:43:14Z</time>
      </trkpt>
      <trkpt lat="39.8533590" lon="-0.5027520">
        <ele>375.4</ele>
        <time>2019-07-04T17:43:16Z</time>
      </trkpt>
      <trkpt lat="39.8535070" lon="-0.5029880">
        <ele>376.4</ele>
        <time>2019-07-04T17:43:22Z</time>
      </trkpt>
      <trkpt lat="39.8535330" lon="-0.5030220">
        <ele>376.8</ele>
        <time>2019-07-04T17:43:23Z</time>
      </trkpt>
      <trkpt lat="39.8535880" lon="-0.5030960">
        <ele>377.0</ele>
        <time>2019-07-04T17:43:25Z</time>
      </trkpt>
      <trkpt lat="39.8536700" lon="-0.5032430">
        <ele>377.0</ele>
        <time>2019-07-04T17:43:28Z</time>
      </trkpt>
      <trkpt lat="39.8538950" lon="-0.5036270">
        <ele>377.0</ele>
        <time>2019-07-04T17:43:35Z</time>
      </trkpt>
      <trkpt lat="39.8540180" lon="-0.5038590">
        <ele>376.8</ele>
        <time>2019-07-04T17:43:39Z</time>
      </trkpt>
      <trkpt lat="39.8540460" lon="-0.5039160">
        <ele>376.6</ele>
        <time>2019-07-04T17:43:40Z</time>
      </trkpt>
      <trkpt lat="39.8540760" lon="-0.5039680">
        <ele>376.4</ele>
        <time>2019-07-04T17:43:41Z</time>
      </trkpt>
      <trkpt lat="39.8541330" lon="-0.5040690">
        <ele>376.4</ele>
        <time>2019-07-04T17:43:43Z</time>
      </trkpt>
      <trkpt lat="39.8542430" lon="-0.5042710">
        <ele>376.6</ele>
        <time>2019-07-04T17:43:47Z</time>
      </trkpt>
      <trkpt lat="39.8543210" lon="-0.5044310">
        <ele>376.8</ele>
        <time>2019-07-04T17:43:50Z</time>
      </trkpt>
      <trkpt lat="39.8543650" lon="-0.5045470">
        <ele>377.0</ele>
        <time>2019-07-04T17:43:52Z</time>
      </trkpt>
      <trkpt lat="39.8543930" lon="-0.5046010">
        <ele>377.2</ele>
        <time>2019-07-04T17:43:53Z</time>
      </trkpt>
      <trkpt lat="39.8545640" lon="-0.5048800">
        <ele>377.0</ele>
        <time>2019-07-04T17:43:58Z</time>
      </trkpt>
      <trkpt lat="39.8547060" lon="-0.5051320">
        <ele>376.4</ele>
        <time>2019-07-04T17:44:02Z</time>
      </trkpt>
      <trkpt lat="39.8547300" lon="-0.5051820">
        <ele>376.0</ele>
        <time>2019-07-04T17:44:03Z</time>
      </trkpt>
      <trkpt lat="39.8547510" lon="-0.5052230">
        <ele>375.8</ele>
        <time>2019-07-04T17:44:04Z</time>
      </trkpt>
      <trkpt lat="39.8547630" lon="-0.5053030">
        <ele>375.6</ele>
        <time>2019-07-04T17:44:06Z</time>
      </trkpt>
      <trkpt lat="39.8547480" lon="-0.5053390">
        <ele>375.4</ele>
        <time>2019-07-04T17:44:07Z</time>
      </trkpt>
      <trkpt lat="39.8546030" lon="-0.5055120">
        <ele>375.0</ele>
        <time>2019-07-04T17:44:13Z</time>
      </trkpt>
      <trkpt lat="39.8545170" lon="-0.5055820">
        <ele>374.8</ele>
        <time>2019-07-04T17:44:15Z</time>
      </trkpt>
      <trkpt lat="39.8544740" lon="-0.5056170">
        <ele>374.6</ele>
        <time>2019-07-04T17:44:16Z</time>
      </trkpt>
      <trkpt lat="39.8544310" lon="-0.5057700">
        <ele>374.0</ele>
        <time>2019-07-04T17:44:19Z</time>
      </trkpt>
      <trkpt lat="39.8544650" lon="-0.5058680">
        <ele>374.0</ele>
        <time>2019-07-04T17:44:21Z</time>
      </trkpt>
      <trkpt lat="39.8545290" lon="-0.5060180">
        <ele>374.4</ele>
        <time>2019-07-04T17:44:24Z</time>
      </trkpt>
      <trkpt lat="39.8545520" lon="-0.5060660">
        <ele>374.6</ele>
        <time>2019-07-04T17:44:25Z</time>
      </trkpt>
      <trkpt lat="39.8545710" lon="-0.5061170">
        <ele>374.8</ele>
        <time>2019-07-04T17:44:26Z</time>
      </trkpt>
      <trkpt lat="39.8546790" lon="-0.5063640">
        <ele>375.8</ele>
        <time>2019-07-04T17:44:31Z</time>
      </trkpt>
      <trkpt lat="39.8547680" lon="-0.5065610">
        <ele>376.2</ele>
        <time>2019-07-04T17:44:35Z</time>
      </trkpt>
      <trkpt lat="39.8548100" lon="-0.5066590">
        <ele>376.8</ele>
        <time>2019-07-04T17:44:37Z</time>
      </trkpt>
      <trkpt lat="39.8548760" lon="-0.5068080">
        <ele>377.2</ele>
        <time>2019-07-04T17:44:40Z</time>
      </trkpt>
      <trkpt lat="39.8549910" lon="-0.5070670">
        <ele>377.6</ele>
        <time>2019-07-04T17:44:45Z</time>
      </trkpt>
      <trkpt lat="39.8550840" lon="-0.5072780">
        <ele>377.8</ele>
        <time>2019-07-04T17:44:49Z</time>
      </trkpt>
      <trkpt lat="39.8552030" lon="-0.5075370">
        <ele>378.6</ele>
        <time>2019-07-04T17:44:54Z</time>
      </trkpt>
      <trkpt lat="39.8552270" lon="-0.5075910">
        <ele>378.8</ele>
        <time>2019-07-04T17:44:55Z</time>
      </trkpt>
      <trkpt lat="39.8553010" lon="-0.5077480">
        <ele>379.2</ele>
        <time>2019-07-04T17:44:58Z</time>
      </trkpt>
      <trkpt lat="39.8554930" lon="-0.5081220">
        <ele>380.0</ele>
        <time>2019-07-04T17:45:05Z</time>
      </trkpt>
      <trkpt lat="39.8555200" lon="-0.5081770">
        <ele>380.2</ele>
        <time>2019-07-04T17:45:06Z</time>
      </trkpt>
      <trkpt lat="39.8556290" lon="-0.5083650">
        <ele>381.2</ele>
        <time>2019-07-04T17:45:10Z</time>
      </trkpt>
      <trkpt lat="39.8556770" lon="-0.5084330">
        <ele>381.6</ele>
        <time>2019-07-04T17:45:12Z</time>
      </trkpt>
      <trkpt lat="39.8557200" lon="-0.5085020">
        <ele>382.4</ele>
        <time>2019-07-04T17:45:14Z</time>
      </trkpt>
      <trkpt lat="39.8557810" lon="-0.5086180">
        <ele>383.6</ele>
        <time>2019-07-04T17:45:17Z</time>
      </trkpt>
      <trkpt lat="39.8558160" lon="-0.5087090">
        <ele>384.0</ele>
        <time>2019-07-04T17:45:19Z</time>
      </trkpt>
      <trkpt lat="39.8558850" lon="-0.5089120">
        <ele>384.6</ele>
        <time>2019-07-04T17:45:23Z</time>
      </trkpt>
      <trkpt lat="39.8559740" lon="-0.5091390">
        <ele>384.8</ele>
        <time>2019-07-04T17:45:27Z</time>
      </trkpt>
      <trkpt lat="39.8561430" lon="-0.5095510">
        <ele>385.4</ele>
        <time>2019-07-04T17:45:34Z</time>
      </trkpt>
      <trkpt lat="39.8561690" lon="-0.5096060">
        <ele>385.6</ele>
        <time>2019-07-04T17:45:35Z</time>
      </trkpt>
      <trkpt lat="39.8562440" lon="-0.5097410">
        <ele>386.6</ele>
        <time>2019-07-04T17:45:38Z</time>
      </trkpt>
      <trkpt lat="39.8562930" lon="-0.5098230">
        <ele>387.2</ele>
        <time>2019-07-04T17:45:40Z</time>
      </trkpt>
      <trkpt lat="39.8563950" lon="-0.5099890">
        <ele>387.8</ele>
        <time>2019-07-04T17:45:44Z</time>
      </trkpt>
      <trkpt lat="39.8564970" lon="-0.5101550">
        <ele>388.6</ele>
        <time>2019-07-04T17:45:48Z</time>
      </trkpt>
      <trkpt lat="39.8565240" lon="-0.5101920">
        <ele>389.0</ele>
        <time>2019-07-04T17:45:49Z</time>
      </trkpt>
      <trkpt lat="39.8565980" lon="-0.5102990">
        <ele>390.0</ele>
        <time>2019-07-04T17:45:52Z</time>
      </trkpt>
      <trkpt lat="39.8566660" lon="-0.5103960">
        <ele>390.8</ele>
        <time>2019-07-04T17:45:55Z</time>
      </trkpt>
      <trkpt lat="39.8566940" lon="-0.5104250">
        <ele>391.0</ele>
        <time>2019-07-04T17:45:56Z</time>
      </trkpt>
      <trkpt lat="39.8568310" lon="-0.5105650">
        <ele>392.6</ele>
        <time>2019-07-04T17:46:01Z</time>
      </trkpt>
      <trkpt lat="39.8568820" lon="-0.5106240">
        <ele>393.4</ele>
        <time>2019-07-04T17:46:03Z</time>
      </trkpt>
      <trkpt lat="39.8569080" lon="-0.5106550">
        <ele>393.6</ele>
        <time>2019-07-04T17:46:04Z</time>
      </trkpt>
      <trkpt lat="39.8570700" lon="-0.5108250">
        <ele>394.8</ele>
        <time>2019-07-04T17:46:09Z</time>
      </trkpt>
      <trkpt lat="39.8574010" lon="-0.5111320">
        <ele>395.8</ele>
        <time>2019-07-04T17:46:18Z</time>
      </trkpt>
      <trkpt lat="39.8574360" lon="-0.5111590">
        <ele>395.8</ele>
        <time>2019-07-04T17:46:19Z</time>
      </trkpt>
      <trkpt lat="39.8575080" lon="-0.5112200">
        <ele>396.2</ele>
        <time>2019-07-04T17:46:21Z</time>
      </trkpt>
      <trkpt lat="39.8575860" lon="-0.5112760">
        <ele>397.0</ele>
        <time>2019-07-04T17:46:23Z</time>
      </trkpt>
      <trkpt lat="39.8576250" lon="-0.5113010">
        <ele>397.4</ele>
        <time>2019-07-04T17:46:24Z</time>
      </trkpt>
      <trkpt lat="39.8577720" lon="-0.5113830">
        <ele>398.2</ele>
        <time>2019-07-04T17:46:28Z</time>
      </trkpt>
      <trkpt lat="39.8579120" lon="-0.5114690">
        <ele>399.0</ele>
        <time>2019-07-04T17:46:32Z</time>
      </trkpt>
      <trkpt lat="39.8579890" lon="-0.5115180">
        <ele>399.4</ele>
        <time>2019-07-04T17:46:34Z</time>
      </trkpt>
      <trkpt lat="39.8581570" lon="-0.5116050">
        <ele>399.8</ele>
        <time>2019-07-04T17:46:38Z</time>
      </trkpt>
      <trkpt lat="39.8583610" lon="-0.5116970">
        <ele>400.6</ele>
        <time>2019-07-04T17:46:43Z</time>
      </trkpt>
      <trkpt lat="39.8584330" lon="-0.5117240">
        <ele>400.8</ele>
        <time>2019-07-04T17:46:45Z</time>
      </trkpt>
      <trkpt lat="39.8585810" lon="-0.5117740">
        <ele>401.8</ele>
        <time>2019-07-04T17:46:49Z</time>
      </trkpt>
      <trkpt lat="39.8586570" lon="-0.5117990">
        <ele>402.2</ele>
        <time>2019-07-04T17:46:51Z</time>
      </trkpt>
      <trkpt lat="39.8588450" lon="-0.5118350">
        <ele>403.0</ele>
        <time>2019-07-04T17:46:56Z</time>
      </trkpt>
      <trkpt lat="39.8588810" lon="-0.5118380">
        <ele>403.6</ele>
        <time>2019-07-04T17:46:57Z</time>
      </trkpt>
      <trkpt lat="39.8589140" lon="-0.5118420">
        <ele>404.2</ele>
        <time>2019-07-04T17:46:58Z</time>
      </trkpt>
      <trkpt lat="39.8590200" lon="-0.5118570">
        <ele>405.4</ele>
        <time>2019-07-04T17:47:01Z</time>
      </trkpt>
      <trkpt lat="39.8591770" lon="-0.5118960">
        <ele>406.2</ele>
        <time>2019-07-04T17:47:05Z</time>
      </trkpt>
      <trkpt lat="39.8592170" lon="-0.5119070">
        <ele>406.6</ele>
        <time>2019-07-04T17:47:06Z</time>
      </trkpt>
      <trkpt lat="39.8594360" lon="-0.5119730">
        <ele>407.6</ele>
        <time>2019-07-04T17:47:11Z</time>
      </trkpt>
      <trkpt lat="39.8597190" lon="-0.5120300">
        <ele>408.8</ele>
        <time>2019-07-04T17:47:18Z</time>
      </trkpt>
      <trkpt lat="39.8597600" lon="-0.5120430">
        <ele>409.0</ele>
        <time>2019-07-04T17:47:19Z</time>
      </trkpt>
      <trkpt lat="39.8598880" lon="-0.5120860">
        <ele>410.0</ele>
        <time>2019-07-04T17:47:22Z</time>
      </trkpt>
      <trkpt lat="39.8601390" lon="-0.5121780">
        <ele>410.8</ele>
        <time>2019-07-04T17:47:28Z</time>
      </trkpt>
      <trkpt lat="39.8602170" lon="-0.5121990">
        <ele>411.2</ele>
        <time>2019-07-04T17:47:30Z</time>
      </trkpt>
      <trkpt lat="39.8603570" lon="-0.5122380">
        <ele>412.6</ele>
        <time>2019-07-04T17:47:34Z</time>
      </trkpt>
      <trkpt lat="39.8603920" lon="-0.5122470">
        <ele>412.8</ele>
        <time>2019-07-04T17:47:35Z</time>
      </trkpt>
      <trkpt lat="39.8605700" lon="-0.5123210">
        <ele>413.8</ele>
        <time>2019-07-04T17:47:40Z</time>
      </trkpt>
      <trkpt lat="39.8606370" lon="-0.5123700">
        <ele>414.4</ele>
        <time>2019-07-04T17:47:42Z</time>
      </trkpt>
      <trkpt lat="39.8606660" lon="-0.5124070">
        <ele>414.4</ele>
        <time>2019-07-04T17:47:43Z</time>
      </trkpt>
      <trkpt lat="39.8607130" lon="-0.5125580">
        <ele>414.6</ele>
        <time>2019-07-04T17:47:46Z</time>
      </trkpt>
      <trkpt lat="39.8607170" lon="-0.5126170">
        <ele>414.6</ele>
        <time>2019-07-04T17:47:47Z</time>
      </trkpt>
      <trkpt lat="39.8607270" lon="-0.5127380">
        <ele>414.6</ele>
        <time>2019-07-04T17:47:49Z</time>
      </trkpt>
      <trkpt lat="39.8607700" lon="-0.5128510">
        <ele>414.6</ele>
        <time>2019-07-04T17:47:51Z</time>
      </trkpt>
      <trkpt lat="39.8608520" lon="-0.5130010">
        <ele>415.0</ele>
        <time>2019-07-04T17:47:54Z</time>
      </trkpt>
      <trkpt lat="39.8609530" lon="-0.5131470">
        <ele>415.4</ele>
        <time>2019-07-04T17:47:57Z</time>
      </trkpt>
      <trkpt lat="39.8609940" lon="-0.5131950">
        <ele>415.4</ele>
        <time>2019-07-04T17:47:58Z</time>
      </trkpt>
      <trkpt lat="39.8610730" lon="-0.5132360">
        <ele>415.2</ele>
        <time>2019-07-04T17:48:00Z</time>
      </trkpt>
      <trkpt lat="39.8611770" lon="-0.5131350">
        <ele>415.2</ele>
        <time>2019-07-04T17:48:03Z</time>
      </trkpt>
      <trkpt lat="39.8614290" lon="-0.5128810">
        <ele>415.4</ele>
        <time>2019-07-04T17:48:09Z</time>
      </trkpt>
      <trkpt lat="39.8615610" lon="-0.5127690">
        <ele>415.8</ele>
        <time>2019-07-04T17:48:12Z</time>
      </trkpt>
      <trkpt lat="39.8616420" lon="-0.5126940">
        <ele>415.6</ele>
        <time>2019-07-04T17:48:14Z</time>
      </trkpt>
      <trkpt lat="39.8617800" lon="-0.5125910">
        <ele>415.8</ele>
        <time>2019-07-04T17:48:18Z</time>
      </trkpt>
      <trkpt lat="39.8618300" lon="-0.5125220">
        <ele>415.8</ele>
        <time>2019-07-04T17:48:19Z</time>
      </trkpt>
      <trkpt lat="39.8619050" lon="-0.5124440">
        <ele>416.0</ele>
        <time>2019-07-04T17:48:21Z</time>
      </trkpt>
      <trkpt lat="39.8620810" lon="-0.5123380">
        <ele>415.8</ele>
        <time>2019-07-04T17:48:25Z</time>
      </trkpt>
      <trkpt lat="39.8622080" lon="-0.5124250">
        <ele>416.0</ele>
        <time>2019-07-04T17:48:26Z</time>
      </trkpt>
      <trkpt lat="39.8623410" lon="-0.5124530">
        <ele>416.2</ele>
        <time>2019-07-04T17:48:28Z</time>
      </trkpt>
      <trkpt lat="39.8624540" lon="-0.5124710">
        <ele>416.4</ele>
        <time>2019-07-04T17:48:30Z</time>
      </trkpt>
      <trkpt lat="39.8625670" lon="-0.5124910">
        <ele>416.8</ele>
        <time>2019-07-04T17:48:32Z</time>
      </trkpt>
      <trkpt lat="39.8626750" lon="-0.5125040">
        <ele>417.4</ele>
        <time>2019-07-04T17:48:34Z</time>
      </trkpt>
      <trkpt lat="39.8629550" lon="-0.5125490">
        <ele>417.8</ele>
        <time>2019-07-04T17:48:39Z</time>
      </trkpt>
      <trkpt lat="39.8630620" lon="-0.5125690">
        <ele>418.0</ele>
        <time>2019-07-04T17:48:41Z</time>
      </trkpt>
      <trkpt lat="39.8633920" lon="-0.5125840">
        <ele>419.0</ele>
        <time>2019-07-04T17:48:47Z</time>
      </trkpt>
      <trkpt lat="39.8635670" lon="-0.5125920">
        <ele>419.0</ele>
        <time>2019-07-04T17:48:50Z</time>
      </trkpt>
      <trkpt lat="39.8640490" lon="-0.5125920">
        <ele>418.0</ele>
        <time>2019-07-04T17:48:57Z</time>
      </trkpt>
      <trkpt lat="39.8641240" lon="-0.5125890">
        <ele>418.0</ele>
        <time>2019-07-04T17:48:58Z</time>
      </trkpt>
      <trkpt lat="39.8644410" lon="-0.5125740">
        <ele>416.8</ele>
        <time>2019-07-04T17:49:02Z</time>
      </trkpt>
      <trkpt lat="39.8645220" lon="-0.5125640">
        <ele>416.6</ele>
        <time>2019-07-04T17:49:03Z</time>
      </trkpt>
      <trkpt lat="39.8646030" lon="-0.5125540">
        <ele>416.4</ele>
        <time>2019-07-04T17:49:04Z</time>
      </trkpt>
      <trkpt lat="39.8647660" lon="-0.5125320">
        <ele>415.8</ele>
        <time>2019-07-04T17:49:06Z</time>
      </trkpt>
      <trkpt lat="39.8649990" lon="-0.5124870">
        <ele>415.4</ele>
        <time>2019-07-04T17:49:09Z</time>
      </trkpt>
      <trkpt lat="39.8651490" lon="-0.5124560">
        <ele>414.8</ele>
        <time>2019-07-04T17:49:11Z</time>
      </trkpt>
      <trkpt lat="39.8652270" lon="-0.5124440">
        <ele>414.6</ele>
        <time>2019-07-04T17:49:12Z</time>
      </trkpt>
      <trkpt lat="39.8655480" lon="-0.5124240">
        <ele>414.2</ele>
        <time>2019-07-04T17:49:16Z</time>
      </trkpt>
      <trkpt lat="39.8656650" lon="-0.5124290">
        <ele>414.2</ele>
        <time>2019-07-04T17:49:18Z</time>
      </trkpt>
      <trkpt lat="39.8658440" lon="-0.5124160">
        <ele>414.8</ele>
        <time>2019-07-04T17:49:21Z</time>
      </trkpt>
      <trkpt lat="39.8659540" lon="-0.5124070">
        <ele>415.0</ele>
        <time>2019-07-04T17:49:23Z</time>
      </trkpt>
      <trkpt lat="39.8662740" lon="-0.5123800">
        <ele>415.8</ele>
        <time>2019-07-04T17:49:29Z</time>
      </trkpt>
      <trkpt lat="39.8664340" lon="-0.5123630">
        <ele>416.4</ele>
        <time>2019-07-04T17:49:32Z</time>
      </trkpt>
      <trkpt lat="39.8665370" lon="-0.5123580">
        <ele>416.6</ele>
        <time>2019-07-04T17:49:34Z</time>
      </trkpt>
      <trkpt lat="39.8665910" lon="-0.5123530">
        <ele>416.8</ele>
        <time>2019-07-04T17:49:35Z</time>
      </trkpt>
      <trkpt lat="39.8668590" lon="-0.5123290">
        <ele>417.8</ele>
        <time>2019-07-04T17:49:40Z</time>
      </trkpt>
      <trkpt lat="39.8669130" lon="-0.5123250">
        <ele>417.8</ele>
        <time>2019-07-04T17:49:41Z</time>
      </trkpt>
      <trkpt lat="39.8670230" lon="-0.5123170">
        <ele>418.0</ele>
        <time>2019-07-04T17:49:43Z</time>
      </trkpt>
      <trkpt lat="39.8674180" lon="-0.5123060">
        <ele>418.6</ele>
        <time>2019-07-04T17:49:50Z</time>
      </trkpt>
      <trkpt lat="39.8674760" lon="-0.5123040">
        <ele>418.6</ele>
        <time>2019-07-04T17:49:51Z</time>
      </trkpt>
      <trkpt lat="39.8678120" lon="-0.5122850">
        <ele>419.0</ele>
        <time>2019-07-04T17:49:57Z</time>
      </trkpt>
      <trkpt lat="39.8678670" lon="-0.5122840">
        <ele>419.0</ele>
        <time>2019-07-04T17:49:58Z</time>
      </trkpt>
      <trkpt lat="39.8682640" lon="-0.5122710">
        <ele>419.0</ele>
        <time>2019-07-04T17:50:05Z</time>
      </trkpt>
      <trkpt lat="39.8687100" lon="-0.5122440">
        <ele>419.0</ele>
        <time>2019-07-04T17:50:13Z</time>
      </trkpt>
      <trkpt lat="39.8688790" lon="-0.5122520">
        <ele>419.4</ele>
        <time>2019-07-04T17:50:17Z</time>
      </trkpt>
      <trkpt lat="39.8689390" lon="-0.5123190">
        <ele>419.6</ele>
        <time>2019-07-04T17:50:19Z</time>
      </trkpt>
      <trkpt lat="39.8689890" lon="-0.5124080">
        <ele>420.0</ele>
        <time>2019-07-04T17:50:21Z</time>
      </trkpt>
      <trkpt lat="39.8690600" lon="-0.5125840">
        <ele>420.8</ele>
        <time>2019-07-04T17:50:25Z</time>
      </trkpt>
      <trkpt lat="39.8690900" lon="-0.5126680">
        <ele>421.6</ele>
        <time>2019-07-04T17:50:27Z</time>
      </trkpt>
      <trkpt lat="39.8691040" lon="-0.5127100">
        <ele>422.0</ele>
        <time>2019-07-04T17:50:28Z</time>
      </trkpt>
      <trkpt lat="39.8691540" lon="-0.5128350">
        <ele>423.0</ele>
        <time>2019-07-04T17:50:31Z</time>
      </trkpt>
      <trkpt lat="39.8692040" lon="-0.5129640">
        <ele>423.6</ele>
        <time>2019-07-04T17:50:34Z</time>
      </trkpt>
      <trkpt lat="39.8692220" lon="-0.5130080">
        <ele>424.2</ele>
        <time>2019-07-04T17:50:35Z</time>
      </trkpt>
      <trkpt lat="39.8692720" lon="-0.5131380">
        <ele>425.0</ele>
        <time>2019-07-04T17:50:38Z</time>
      </trkpt>
      <trkpt lat="39.8692880" lon="-0.5131810">
        <ele>425.2</ele>
        <time>2019-07-04T17:50:39Z</time>
      </trkpt>
      <trkpt lat="39.8693370" lon="-0.5133090">
        <ele>426.2</ele>
        <time>2019-07-04T17:50:42Z</time>
      </trkpt>
      <trkpt lat="39.8694030" lon="-0.5134780">
        <ele>427.2</ele>
        <time>2019-07-04T17:50:46Z</time>
      </trkpt>
      <trkpt lat="39.8694210" lon="-0.5135200">
        <ele>427.6</ele>
        <time>2019-07-04T17:50:47Z</time>
      </trkpt>
      <trkpt lat="39.8694380" lon="-0.5135620">
        <ele>428.0</ele>
        <time>2019-07-04T17:50:48Z</time>
      </trkpt>
      <trkpt lat="39.8694840" lon="-0.5136910">
        <ele>428.8</ele>
        <time>2019-07-04T17:50:51Z</time>
      </trkpt>
      <trkpt lat="39.8695560" lon="-0.5138530">
        <ele>429.8</ele>
        <time>2019-07-04T17:50:55Z</time>
      </trkpt>
      <trkpt lat="39.8695750" lon="-0.5138940">
        <ele>429.8</ele>
        <time>2019-07-04T17:50:56Z</time>
      </trkpt>
      <trkpt lat="39.8696260" lon="-0.5140190">
        <ele>431.0</ele>
        <time>2019-07-04T17:50:59Z</time>
      </trkpt>
      <trkpt lat="39.8696910" lon="-0.5141880">
        <ele>432.2</ele>
        <time>2019-07-04T17:51:03Z</time>
      </trkpt>
      <trkpt lat="39.8697070" lon="-0.5142300">
        <ele>432.4</ele>
        <time>2019-07-04T17:51:04Z</time>
      </trkpt>
      <trkpt lat="39.8697600" lon="-0.5143530">
        <ele>433.4</ele>
        <time>2019-07-04T17:51:07Z</time>
      </trkpt>
      <trkpt lat="39.8698280" lon="-0.5145150">
        <ele>434.8</ele>
        <time>2019-07-04T17:51:11Z</time>
      </trkpt>
      <trkpt lat="39.8698720" lon="-0.5146390">
        <ele>435.8</ele>
        <time>2019-07-04T17:51:14Z</time>
      </trkpt>
      <trkpt lat="39.8699160" lon="-0.5147640">
        <ele>437.0</ele>
        <time>2019-07-04T17:51:17Z</time>
      </trkpt>
      <trkpt lat="39.8699510" lon="-0.5148430">
        <ele>437.2</ele>
        <time>2019-07-04T17:51:19Z</time>
      </trkpt>
      <trkpt lat="39.8699830" lon="-0.5149190">
        <ele>438.0</ele>
        <time>2019-07-04T17:51:21Z</time>
      </trkpt>
      <trkpt lat="39.8700230" lon="-0.5150360">
        <ele>439.0</ele>
        <time>2019-07-04T17:51:24Z</time>
      </trkpt>
      <trkpt lat="39.8700390" lon="-0.5150760">
        <ele>439.2</ele>
        <time>2019-07-04T17:51:25Z</time>
      </trkpt>
      <trkpt lat="39.8701270" lon="-0.5152570">
        <ele>440.4</ele>
        <time>2019-07-04T17:51:30Z</time>
      </trkpt>
      <trkpt lat="39.8701840" lon="-0.5153700">
        <ele>441.2</ele>
        <time>2019-07-04T17:51:33Z</time>
      </trkpt>
      <trkpt lat="39.8702040" lon="-0.5154070">
        <ele>441.6</ele>
        <time>2019-07-04T17:51:34Z</time>
      </trkpt>
      <trkpt lat="39.8703120" lon="-0.5155820">
        <ele>442.8</ele>
        <time>2019-07-04T17:51:39Z</time>
      </trkpt>
      <trkpt lat="39.8703630" lon="-0.5156450">
        <ele>443.4</ele>
        <time>2019-07-04T17:51:41Z</time>
      </trkpt>
      <trkpt lat="39.8704160" lon="-0.5157050">
        <ele>444.2</ele>
        <time>2019-07-04T17:51:43Z</time>
      </trkpt>
      <trkpt lat="39.8705330" lon="-0.5158090">
        <ele>445.2</ele>
        <time>2019-07-04T17:51:47Z</time>
      </trkpt>
      <trkpt lat="39.8705900" lon="-0.5158550">
        <ele>445.6</ele>
        <time>2019-07-04T17:51:49Z</time>
      </trkpt>
      <trkpt lat="39.8706490" lon="-0.5158990">
        <ele>446.2</ele>
        <time>2019-07-04T17:51:51Z</time>
      </trkpt>
      <trkpt lat="39.8707640" lon="-0.5159800">
        <ele>447.4</ele>
        <time>2019-07-04T17:51:55Z</time>
      </trkpt>
      <trkpt lat="39.8708500" lon="-0.5160340">
        <ele>448.2</ele>
        <time>2019-07-04T17:51:58Z</time>
      </trkpt>
      <trkpt lat="39.8709080" lon="-0.5160680">
        <ele>448.8</ele>
        <time>2019-07-04T17:52:00Z</time>
      </trkpt>
      <trkpt lat="39.8710170" lon="-0.5161590">
        <ele>450.0</ele>
        <time>2019-07-04T17:52:04Z</time>
      </trkpt>
      <trkpt lat="39.8711700" lon="-0.5162370">
        <ele>451.2</ele>
        <time>2019-07-04T17:52:09Z</time>
      </trkpt>
      <trkpt lat="39.8711980" lon="-0.5162560">
        <ele>451.4</ele>
        <time>2019-07-04T17:52:10Z</time>
      </trkpt>
      <trkpt lat="39.8712830" lon="-0.5163220">
        <ele>452.2</ele>
        <time>2019-07-04T17:52:13Z</time>
      </trkpt>
      <trkpt lat="39.8713650" lon="-0.5164020">
        <ele>453.4</ele>
        <time>2019-07-04T17:52:16Z</time>
      </trkpt>
      <trkpt lat="39.8714430" lon="-0.5164930">
        <ele>454.0</ele>
        <time>2019-07-04T17:52:19Z</time>
      </trkpt>
      <trkpt lat="39.8714920" lon="-0.5165590">
        <ele>454.4</ele>
        <time>2019-07-04T17:52:21Z</time>
      </trkpt>
      <trkpt lat="39.8715790" lon="-0.5167000">
        <ele>455.2</ele>
        <time>2019-07-04T17:52:25Z</time>
      </trkpt>
      <trkpt lat="39.8715990" lon="-0.5167380">
        <ele>455.6</ele>
        <time>2019-07-04T17:52:26Z</time>
      </trkpt>
      <trkpt lat="39.8716950" lon="-0.5169340">
        <ele>456.6</ele>
        <time>2019-07-04T17:52:31Z</time>
      </trkpt>
      <trkpt lat="39.8717500" lon="-0.5170570">
        <ele>457.0</ele>
        <time>2019-07-04T17:52:34Z</time>
      </trkpt>
      <trkpt lat="39.8717860" lon="-0.5171390">
        <ele>457.8</ele>
        <time>2019-07-04T17:52:36Z</time>
      </trkpt>
      <trkpt lat="39.8718970" lon="-0.5174000">
        <ele>458.8</ele>
        <time>2019-07-04T17:52:42Z</time>
      </trkpt>
      <trkpt lat="39.8719380" lon="-0.5174860">
        <ele>459.2</ele>
        <time>2019-07-04T17:52:44Z</time>
      </trkpt>
      <trkpt lat="39.8720150" lon="-0.5176570">
        <ele>460.0</ele>
        <time>2019-07-04T17:52:48Z</time>
      </trkpt>
      <trkpt lat="39.8721050" lon="-0.5178730">
        <ele>461.2</ele>
        <time>2019-07-04T17:52:53Z</time>
      </trkpt>
      <trkpt lat="39.8721250" lon="-0.5179140">
        <ele>461.4</ele>
        <time>2019-07-04T17:52:54Z</time>
      </trkpt>
      <trkpt lat="39.8722250" lon="-0.5181100">
        <ele>462.4</ele>
        <time>2019-07-04T17:52:59Z</time>
      </trkpt>
      <trkpt lat="39.8722700" lon="-0.5181900">
        <ele>463.0</ele>
        <time>2019-07-04T17:53:01Z</time>
      </trkpt>
      <trkpt lat="39.8723170" lon="-0.5182680">
        <ele>463.4</ele>
        <time>2019-07-04T17:53:03Z</time>
      </trkpt>
      <trkpt lat="39.8724090" lon="-0.5184250">
        <ele>464.6</ele>
        <time>2019-07-04T17:53:07Z</time>
      </trkpt>
      <trkpt lat="39.8724550" lon="-0.5184980">
        <ele>464.8</ele>
        <time>2019-07-04T17:53:09Z</time>
      </trkpt>
      <trkpt lat="39.8725600" lon="-0.5186340">
        <ele>465.6</ele>
        <time>2019-07-04T17:53:13Z</time>
      </trkpt>
      <trkpt lat="39.8726680" lon="-0.5187650">
        <ele>467.0</ele>
        <time>2019-07-04T17:53:17Z</time>
      </trkpt>
      <trkpt lat="39.8726940" lon="-0.5187970">
        <ele>467.2</ele>
        <time>2019-07-04T17:53:18Z</time>
      </trkpt>
      <trkpt lat="39.8728120" lon="-0.5189130">
        <ele>468.0</ele>
        <time>2019-07-04T17:53:22Z</time>
      </trkpt>
      <trkpt lat="39.8728660" lon="-0.5189750">
        <ele>468.8</ele>
        <time>2019-07-04T17:53:24Z</time>
      </trkpt>
      <trkpt lat="39.8729180" lon="-0.5190340">
        <ele>469.2</ele>
        <time>2019-07-04T17:53:26Z</time>
      </trkpt>
      <trkpt lat="39.8730270" lon="-0.5191470">
        <ele>470.4</ele>
        <time>2019-07-04T17:53:30Z</time>
      </trkpt>
      <trkpt lat="39.8731090" lon="-0.5192310">
        <ele>471.4</ele>
        <time>2019-07-04T17:53:33Z</time>
      </trkpt>
      <trkpt lat="39.8731360" lon="-0.5192590">
        <ele>471.6</ele>
        <time>2019-07-04T17:53:34Z</time>
      </trkpt>
      <trkpt lat="39.8732690" lon="-0.5193940">
        <ele>472.8</ele>
        <time>2019-07-04T17:53:39Z</time>
      </trkpt>
      <trkpt lat="39.8733480" lon="-0.5194720">
        <ele>473.2</ele>
        <time>2019-07-04T17:53:42Z</time>
      </trkpt>
      <trkpt lat="39.8734580" lon="-0.5195690">
        <ele>473.8</ele>
        <time>2019-07-04T17:53:46Z</time>
      </trkpt>
      <trkpt lat="39.8735370" lon="-0.5196500">
        <ele>474.8</ele>
        <time>2019-07-04T17:53:49Z</time>
      </trkpt>
      <trkpt lat="39.8735630" lon="-0.5196800">
        <ele>475.0</ele>
        <time>2019-07-04T17:53:50Z</time>
      </trkpt>
      <trkpt lat="39.8736720" lon="-0.5197870">
        <ele>476.0</ele>
        <time>2019-07-04T17:53:54Z</time>
      </trkpt>
      <trkpt lat="39.8736970" lon="-0.5198150">
        <ele>476.4</ele>
        <time>2019-07-04T17:53:55Z</time>
      </trkpt>
      <trkpt lat="39.8737930" lon="-0.5199320">
        <ele>477.2</ele>
        <time>2019-07-04T17:53:59Z</time>
      </trkpt>
      <trkpt lat="39.8738220" lon="-0.5199530">
        <ele>477.4</ele>
        <time>2019-07-04T17:54:00Z</time>
      </trkpt>
      <trkpt lat="39.8739100" lon="-0.5200180">
        <ele>478.4</ele>
        <time>2019-07-04T17:54:03Z</time>
      </trkpt>
      <trkpt lat="39.8740180" lon="-0.5201230">
        <ele>479.2</ele>
        <time>2019-07-04T17:54:07Z</time>
      </trkpt>
      <trkpt lat="39.8740430" lon="-0.5201510">
        <ele>479.2</ele>
        <time>2019-07-04T17:54:08Z</time>
      </trkpt>
      <trkpt lat="39.8741710" lon="-0.5202870">
        <ele>480.4</ele>
        <time>2019-07-04T17:54:13Z</time>
      </trkpt>
      <trkpt lat="39.8742580" lon="-0.5203530">
        <ele>481.4</ele>
        <time>2019-07-04T17:54:16Z</time>
      </trkpt>
      <trkpt lat="39.8743730" lon="-0.5204720">
        <ele>482.6</ele>
        <time>2019-07-04T17:54:20Z</time>
      </trkpt>
      <trkpt lat="39.8744010" lon="-0.5205060">
        <ele>483.0</ele>
        <time>2019-07-04T17:54:21Z</time>
      </trkpt>
      <trkpt lat="39.8744850" lon="-0.5205970">
        <ele>483.6</ele>
        <time>2019-07-04T17:54:24Z</time>
      </trkpt>
      <trkpt lat="39.8746030" lon="-0.5207070">
        <ele>484.6</ele>
        <time>2019-07-04T17:54:28Z</time>
      </trkpt>
      <trkpt lat="39.8746960" lon="-0.5207940">
        <ele>485.4</ele>
        <time>2019-07-04T17:54:31Z</time>
      </trkpt>
      <trkpt lat="39.8747580" lon="-0.5208540">
        <ele>485.8</ele>
        <time>2019-07-04T17:54:33Z</time>
      </trkpt>
      <trkpt lat="39.8748480" lon="-0.5209400">
        <ele>487.0</ele>
        <time>2019-07-04T17:54:36Z</time>
      </trkpt>
      <trkpt lat="39.8749340" lon="-0.5210430">
        <ele>487.8</ele>
        <time>2019-07-04T17:54:39Z</time>
      </trkpt>
      <trkpt lat="39.8749630" lon="-0.5210770">
        <ele>488.0</ele>
        <time>2019-07-04T17:54:40Z</time>
      </trkpt>
      <trkpt lat="39.8751180" lon="-0.5212300">
        <ele>489.2</ele>
        <time>2019-07-04T17:54:45Z</time>
      </trkpt>
      <trkpt lat="39.8751500" lon="-0.5212620">
        <ele>489.4</ele>
        <time>2019-07-04T17:54:46Z</time>
      </trkpt>
      <trkpt lat="39.8752790" lon="-0.5213780">
        <ele>490.4</ele>
        <time>2019-07-04T17:54:50Z</time>
      </trkpt>
      <trkpt lat="39.8754130" lon="-0.5215120">
        <ele>491.2</ele>
        <time>2019-07-04T17:54:54Z</time>
      </trkpt>
      <trkpt lat="39.8754780" lon="-0.5215860">
        <ele>491.2</ele>
        <time>2019-07-04T17:54:56Z</time>
      </trkpt>
      <trkpt lat="39.8757240" lon="-0.5218330">
        <ele>492.0</ele>
        <time>2019-07-04T17:55:03Z</time>
      </trkpt>
      <trkpt lat="39.8757970" lon="-0.5219070">
        <ele>492.2</ele>
        <time>2019-07-04T17:55:05Z</time>
      </trkpt>
      <trkpt lat="39.8759850" lon="-0.5221010">
        <ele>492.8</ele>
        <time>2019-07-04T17:55:10Z</time>
      </trkpt>
      <trkpt lat="39.8761100" lon="-0.5222280">
        <ele>492.8</ele>
        <time>2019-07-04T17:55:13Z</time>
      </trkpt>
      <trkpt lat="39.8762870" lon="-0.5224090">
        <ele>492.8</ele>
        <time>2019-07-04T17:55:17Z</time>
      </trkpt>
      <trkpt lat="39.8763740" lon="-0.5225010">
        <ele>492.6</ele>
        <time>2019-07-04T17:55:19Z</time>
      </trkpt>
      <trkpt lat="39.8764190" lon="-0.5225490">
        <ele>492.6</ele>
        <time>2019-07-04T17:55:20Z</time>
      </trkpt>
      <trkpt lat="39.8764660" lon="-0.5225990">
        <ele>492.4</ele>
        <time>2019-07-04T17:55:21Z</time>
      </trkpt>
      <trkpt lat="39.8767180" lon="-0.5228670">
        <ele>491.8</ele>
        <time>2019-07-04T17:55:26Z</time>
      </trkpt>
      <trkpt lat="39.8768200" lon="-0.5229970">
        <ele>491.4</ele>
        <time>2019-07-04T17:55:28Z</time>
      </trkpt>
      <trkpt lat="39.8769140" lon="-0.5231530">
        <ele>491.0</ele>
        <time>2019-07-04T17:55:30Z</time>
      </trkpt>
      <trkpt lat="39.8769570" lon="-0.5232430">
        <ele>490.6</ele>
        <time>2019-07-04T17:55:31Z</time>
      </trkpt>
      <trkpt lat="39.8770400" lon="-0.5234380">
        <ele>489.8</ele>
        <time>2019-07-04T17:55:33Z</time>
      </trkpt>
      <trkpt lat="39.8771910" lon="-0.5237460">
        <ele>488.4</ele>
        <time>2019-07-04T17:55:36Z</time>
      </trkpt>
      <trkpt lat="39.8772940" lon="-0.5239700">
        <ele>487.2</ele>
        <time>2019-07-04T17:55:38Z</time>
      </trkpt>
      <trkpt lat="39.8773450" lon="-0.5240880">
        <ele>486.8</ele>
        <time>2019-07-04T17:55:39Z</time>
      </trkpt>
      <trkpt lat="39.8773980" lon="-0.5242070">
        <ele>486.2</ele>
        <time>2019-07-04T17:55:40Z</time>
      </trkpt>
      <trkpt lat="39.8775060" lon="-0.5244540">
        <ele>485.4</ele>
        <time>2019-07-04T17:55:42Z</time>
      </trkpt>
      <trkpt lat="39.8775600" lon="-0.5245830">
        <ele>484.8</ele>
        <time>2019-07-04T17:55:43Z</time>
      </trkpt>
      <trkpt lat="39.8777300" lon="-0.5249740">
        <ele>483.4</ele>
        <time>2019-07-04T17:55:46Z</time>
      </trkpt>
      <trkpt lat="39.8778400" lon="-0.5252420">
        <ele>482.0</ele>
        <time>2019-07-04T17:55:48Z</time>
      </trkpt>
      <trkpt lat="39.8780140" lon="-0.5256510">
        <ele>480.4</ele>
        <time>2019-07-04T17:55:51Z</time>
      </trkpt>
      <trkpt lat="39.8781250" lon="-0.5259260">
        <ele>479.2</ele>
        <time>2019-07-04T17:55:53Z</time>
      </trkpt>
      <trkpt lat="39.8781830" lon="-0.5260670">
        <ele>478.4</ele>
        <time>2019-07-04T17:55:54Z</time>
      </trkpt>
      <trkpt lat="39.8782420" lon="-0.5262080">
        <ele>477.8</ele>
        <time>2019-07-04T17:55:55Z</time>
      </trkpt>
      <trkpt lat="39.8783600" lon="-0.5264910">
        <ele>476.6</ele>
        <time>2019-07-04T17:55:57Z</time>
      </trkpt>
      <trkpt lat="39.8784780" lon="-0.5267850">
        <ele>475.6</ele>
        <time>2019-07-04T17:55:59Z</time>
      </trkpt>
      <trkpt lat="39.8785960" lon="-0.5270740">
        <ele>474.4</ele>
        <time>2019-07-04T17:56:01Z</time>
      </trkpt>
      <trkpt lat="39.8787190" lon="-0.5273640">
        <ele>473.2</ele>
        <time>2019-07-04T17:56:03Z</time>
      </trkpt>
      <trkpt lat="39.8788440" lon="-0.5276470">
        <ele>472.0</ele>
        <time>2019-07-04T17:56:05Z</time>
      </trkpt>
      <trkpt lat="39.8789800" lon="-0.5279250">
        <ele>470.6</ele>
        <time>2019-07-04T17:56:07Z</time>
      </trkpt>
      <trkpt lat="39.8791380" lon="-0.5281830">
        <ele>469.4</ele>
        <time>2019-07-04T17:56:09Z</time>
      </trkpt>
      <trkpt lat="39.8793200" lon="-0.5284070">
        <ele>467.6</ele>
        <time>2019-07-04T17:56:11Z</time>
      </trkpt>
      <trkpt lat="39.8795220" lon="-0.5286020">
        <ele>466.2</ele>
        <time>2019-07-04T17:56:13Z</time>
      </trkpt>
      <trkpt lat="39.8798290" lon="-0.5288850">
        <ele>464.6</ele>
        <time>2019-07-04T17:56:16Z</time>
      </trkpt>
      <trkpt lat="39.8799300" lon="-0.5289830">
        <ele>464.0</ele>
        <time>2019-07-04T17:56:17Z</time>
      </trkpt>
      <trkpt lat="39.8800290" lon="-0.5290830">
        <ele>463.6</ele>
        <time>2019-07-04T17:56:18Z</time>
      </trkpt>
      <trkpt lat="39.8802220" lon="-0.5292930">
        <ele>462.4</ele>
        <time>2019-07-04T17:56:20Z</time>
      </trkpt>
      <trkpt lat="39.8803900" lon="-0.5295320">
        <ele>461.0</ele>
        <time>2019-07-04T17:56:22Z</time>
      </trkpt>
      <trkpt lat="39.8805260" lon="-0.5298050">
        <ele>459.6</ele>
        <time>2019-07-04T17:56:24Z</time>
      </trkpt>
      <trkpt lat="39.8806330" lon="-0.5300980">
        <ele>458.0</ele>
        <time>2019-07-04T17:56:26Z</time>
      </trkpt>
      <trkpt lat="39.8807070" lon="-0.5304110">
        <ele>456.6</ele>
        <time>2019-07-04T17:56:28Z</time>
      </trkpt>
      <trkpt lat="39.8807500" lon="-0.5307340">
        <ele>455.0</ele>
        <time>2019-07-04T17:56:30Z</time>
      </trkpt>
      <trkpt lat="39.8807630" lon="-0.5310630">
        <ele>454.0</ele>
        <time>2019-07-04T17:56:32Z</time>
      </trkpt>
      <trkpt lat="39.8807600" lon="-0.5313950">
        <ele>452.8</ele>
        <time>2019-07-04T17:56:34Z</time>
      </trkpt>
      <trkpt lat="39.8807580" lon="-0.5315610">
        <ele>452.0</ele>
        <time>2019-07-04T17:56:35Z</time>
      </trkpt>
      <trkpt lat="39.8807540" lon="-0.5317260">
        <ele>451.2</ele>
        <time>2019-07-04T17:56:36Z</time>
      </trkpt>
      <trkpt lat="39.8807510" lon="-0.5320540">
        <ele>450.0</ele>
        <time>2019-07-04T17:56:38Z</time>
      </trkpt>
      <trkpt lat="39.8807680" lon="-0.5323750">
        <ele>448.8</ele>
        <time>2019-07-04T17:56:40Z</time>
      </trkpt>
      <trkpt lat="39.8808080" lon="-0.5326910">
        <ele>448.0</ele>
        <time>2019-07-04T17:56:42Z</time>
      </trkpt>
      <trkpt lat="39.8808390" lon="-0.5328390">
        <ele>446.8</ele>
        <time>2019-07-04T17:56:43Z</time>
      </trkpt>
      <trkpt lat="39.8808770" lon="-0.5329840">
        <ele>446.0</ele>
        <time>2019-07-04T17:56:44Z</time>
      </trkpt>
      <trkpt lat="39.8809230" lon="-0.5331270">
        <ele>445.4</ele>
        <time>2019-07-04T17:56:45Z</time>
      </trkpt>
      <trkpt lat="39.8811030" lon="-0.5335210">
        <ele>444.6</ele>
        <time>2019-07-04T17:56:48Z</time>
      </trkpt>
      <trkpt lat="39.8811720" lon="-0.5336400">
        <ele>444.0</ele>
        <time>2019-07-04T17:56:49Z</time>
      </trkpt>
      <trkpt lat="39.8813210" lon="-0.5338600">
        <ele>443.0</ele>
        <time>2019-07-04T17:56:51Z</time>
      </trkpt>
      <trkpt lat="39.8814020" lon="-0.5339560">
        <ele>442.6</ele>
        <time>2019-07-04T17:56:52Z</time>
      </trkpt>
      <trkpt lat="39.8814870" lon="-0.5340400">
        <ele>442.0</ele>
        <time>2019-07-04T17:56:53Z</time>
      </trkpt>
      <trkpt lat="39.8815740" lon="-0.5341160">
        <ele>441.8</ele>
        <time>2019-07-04T17:56:54Z</time>
      </trkpt>
      <trkpt lat="39.8819380" lon="-0.5343560">
        <ele>440.6</ele>
        <time>2019-07-04T17:56:58Z</time>
      </trkpt>
      <trkpt lat="39.8821230" lon="-0.5344550">
        <ele>439.8</ele>
        <time>2019-07-04T17:57:00Z</time>
      </trkpt>
      <trkpt lat="39.8822180" lon="-0.5344950">
        <ele>439.4</ele>
        <time>2019-07-04T17:57:01Z</time>
      </trkpt>
      <trkpt lat="39.8824090" lon="-0.5345650">
        <ele>439.2</ele>
        <time>2019-07-04T17:57:03Z</time>
      </trkpt>
      <trkpt lat="39.8828870" lon="-0.5347470">
        <ele>438.2</ele>
        <time>2019-07-04T17:57:08Z</time>
      </trkpt>
      <trkpt lat="39.8829790" lon="-0.5347930">
        <ele>438.2</ele>
        <time>2019-07-04T17:57:09Z</time>
      </trkpt>
      <trkpt lat="39.8832390" lon="-0.5349720">
        <ele>437.2</ele>
        <time>2019-07-04T17:57:12Z</time>
      </trkpt>
      <trkpt lat="39.8833220" lon="-0.5350460">
        <ele>436.6</ele>
        <time>2019-07-04T17:57:13Z</time>
      </trkpt>
      <trkpt lat="39.8834820" lon="-0.5352070">
        <ele>435.2</ele>
        <time>2019-07-04T17:57:15Z</time>
      </trkpt>
      <trkpt lat="39.8837010" lon="-0.5354900">
        <ele>434.4</ele>
        <time>2019-07-04T17:57:18Z</time>
      </trkpt>
      <trkpt lat="39.8837660" lon="-0.5355960">
        <ele>434.0</ele>
        <time>2019-07-04T17:57:19Z</time>
      </trkpt>
      <trkpt lat="39.8838240" lon="-0.5357120">
        <ele>434.0</ele>
        <time>2019-07-04T17:57:20Z</time>
      </trkpt>
      <trkpt lat="39.8839160" lon="-0.5359640">
        <ele>432.8</ele>
        <time>2019-07-04T17:57:22Z</time>
      </trkpt>
      <trkpt lat="39.8840300" lon="-0.5363630">
        <ele>431.6</ele>
        <time>2019-07-04T17:57:25Z</time>
      </trkpt>
      <trkpt lat="39.8841410" lon="-0.5367650">
        <ele>430.0</ele>
        <time>2019-07-04T17:57:28Z</time>
      </trkpt>
      <trkpt lat="39.8842120" lon="-0.5370350">
        <ele>429.0</ele>
        <time>2019-07-04T17:57:30Z</time>
      </trkpt>
      <trkpt lat="39.8842440" lon="-0.5371710">
        <ele>428.2</ele>
        <time>2019-07-04T17:57:31Z</time>
      </trkpt>
      <trkpt lat="39.8842780" lon="-0.5373050">
        <ele>428.0</ele>
        <time>2019-07-04T17:57:32Z</time>
      </trkpt>
      <trkpt lat="39.8843120" lon="-0.5374380">
        <ele>427.6</ele>
        <time>2019-07-04T17:57:33Z</time>
      </trkpt>
      <trkpt lat="39.8843460" lon="-0.5375720">
        <ele>426.8</ele>
        <time>2019-07-04T17:57:34Z</time>
      </trkpt>
      <trkpt lat="39.8844470" lon="-0.5379760">
        <ele>425.6</ele>
        <time>2019-07-04T17:57:37Z</time>
      </trkpt>
      <trkpt lat="39.8845160" lon="-0.5382440">
        <ele>424.6</ele>
        <time>2019-07-04T17:57:39Z</time>
      </trkpt>
      <trkpt lat="39.8845850" lon="-0.5385140">
        <ele>423.8</ele>
        <time>2019-07-04T17:57:41Z</time>
      </trkpt>
      <trkpt lat="39.8846170" lon="-0.5386510">
        <ele>423.2</ele>
        <time>2019-07-04T17:57:42Z</time>
      </trkpt>
      <trkpt lat="39.8846880" lon="-0.5389200">
        <ele>422.2</ele>
        <time>2019-07-04T17:57:44Z</time>
      </trkpt>
      <trkpt lat="39.8847990" lon="-0.5393170">
        <ele>420.8</ele>
        <time>2019-07-04T17:57:47Z</time>
      </trkpt>
      <trkpt lat="39.8848320" lon="-0.5394520">
        <ele>420.4</ele>
        <time>2019-07-04T17:57:48Z</time>
      </trkpt>
      <trkpt lat="39.8848940" lon="-0.5397180">
        <ele>419.6</ele>
        <time>2019-07-04T17:57:50Z</time>
      </trkpt>
      <trkpt lat="39.8850040" lon="-0.5401060">
        <ele>418.4</ele>
        <time>2019-07-04T17:57:53Z</time>
      </trkpt>
      <trkpt lat="39.8850450" lon="-0.5402320">
        <ele>418.0</ele>
        <time>2019-07-04T17:57:54Z</time>
      </trkpt>
      <trkpt lat="39.8851280" lon="-0.5404770">
        <ele>417.0</ele>
        <time>2019-07-04T17:57:56Z</time>
      </trkpt>
      <trkpt lat="39.8852630" lon="-0.5408130">
        <ele>416.4</ele>
        <time>2019-07-04T17:57:59Z</time>
      </trkpt>
      <trkpt lat="39.8853120" lon="-0.5409160">
        <ele>416.2</ele>
        <time>2019-07-04T17:58:00Z</time>
      </trkpt>
      <trkpt lat="39.8853660" lon="-0.5410140">
        <ele>415.8</ele>
        <time>2019-07-04T17:58:01Z</time>
      </trkpt>
      <trkpt lat="39.8854210" lon="-0.5411080">
        <ele>415.6</ele>
        <time>2019-07-04T17:58:02Z</time>
      </trkpt>
      <trkpt lat="39.8855340" lon="-0.5412870">
        <ele>415.2</ele>
        <time>2019-07-04T17:58:04Z</time>
      </trkpt>
      <trkpt lat="39.8856490" lon="-0.5414510">
        <ele>414.8</ele>
        <time>2019-07-04T17:58:06Z</time>
      </trkpt>
      <trkpt lat="39.8857690" lon="-0.5416000">
        <ele>414.8</ele>
        <time>2019-07-04T17:58:08Z</time>
      </trkpt>
      <trkpt lat="39.8860250" lon="-0.5418610">
        <ele>414.4</ele>
        <time>2019-07-04T17:58:12Z</time>
      </trkpt>
      <trkpt lat="39.8862270" lon="-0.5420260">
        <ele>414.4</ele>
        <time>2019-07-04T17:58:15Z</time>
      </trkpt>
      <trkpt lat="39.8863660" lon="-0.5421250">
        <ele>414.2</ele>
        <time>2019-07-04T17:58:17Z</time>
      </trkpt>
      <trkpt lat="39.8865070" lon="-0.5422120">
        <ele>414.2</ele>
        <time>2019-07-04T17:58:19Z</time>
      </trkpt>
      <trkpt lat="39.8870070" lon="-0.5424410">
        <ele>414.0</ele>
        <time>2019-07-04T17:58:26Z</time>
      </trkpt>
      <trkpt lat="39.8870780" lon="-0.5424660">
        <ele>414.0</ele>
        <time>2019-07-04T17:58:27Z</time>
      </trkpt>
      <trkpt lat="39.8876340" lon="-0.5426530">
        <ele>414.0</ele>
        <time>2019-07-04T17:58:35Z</time>
      </trkpt>
      <trkpt lat="39.8877010" lon="-0.5426740">
        <ele>414.0</ele>
        <time>2019-07-04T17:58:36Z</time>
      </trkpt>
      <trkpt lat="39.8879010" lon="-0.5427360">
        <ele>414.2</ele>
        <time>2019-07-04T17:58:39Z</time>
      </trkpt>
      <trkpt lat="39.8882180" lon="-0.5428550">
        <ele>414.8</ele>
        <time>2019-07-04T17:58:44Z</time>
      </trkpt>
      <trkpt lat="39.8883410" lon="-0.5429110">
        <ele>415.0</ele>
        <time>2019-07-04T17:58:46Z</time>
      </trkpt>
      <trkpt lat="39.8886980" lon="-0.5431000">
        <ele>415.4</ele>
        <time>2019-07-04T17:58:52Z</time>
      </trkpt>
      <trkpt lat="39.8887560" lon="-0.5431410">
        <ele>415.4</ele>
        <time>2019-07-04T17:58:53Z</time>
      </trkpt>
      <trkpt lat="39.8889320" lon="-0.5432740">
        <ele>415.8</ele>
        <time>2019-07-04T17:58:56Z</time>
      </trkpt>
      <trkpt lat="39.8891020" lon="-0.5434140">
        <ele>416.4</ele>
        <time>2019-07-04T17:58:59Z</time>
      </trkpt>
      <trkpt lat="39.8894240" lon="-0.5437130">
        <ele>416.6</ele>
        <time>2019-07-04T17:59:05Z</time>
      </trkpt>
      <trkpt lat="39.8895310" lon="-0.5438060">
        <ele>416.8</ele>
        <time>2019-07-04T17:59:07Z</time>
      </trkpt>
      <trkpt lat="39.8897820" lon="-0.5440300">
        <ele>417.4</ele>
        <time>2019-07-04T17:59:12Z</time>
      </trkpt>
      <trkpt lat="39.8899590" lon="-0.5442050">
        <ele>418.0</ele>
        <time>2019-07-04T17:59:16Z</time>
      </trkpt>
      <trkpt lat="39.8900470" lon="-0.5442860">
        <ele>418.2</ele>
        <time>2019-07-04T17:59:18Z</time>
      </trkpt>
      <trkpt lat="39.8901720" lon="-0.5444060">
        <ele>419.0</ele>
        <time>2019-07-04T17:59:21Z</time>
      </trkpt>
      <trkpt lat="39.8903890" lon="-0.5446100">
        <ele>419.8</ele>
        <time>2019-07-04T17:59:26Z</time>
      </trkpt>
      <trkpt lat="39.8906730" lon="-0.5448850">
        <ele>420.0</ele>
        <time>2019-07-04T17:59:32Z</time>
      </trkpt>
      <trkpt lat="39.8907720" lon="-0.5449780">
        <ele>420.0</ele>
        <time>2019-07-04T17:59:34Z</time>
      </trkpt>
      <trkpt lat="39.8910200" lon="-0.5452180">
        <ele>420.2</ele>
        <time>2019-07-04T17:59:39Z</time>
      </trkpt>
      <trkpt lat="39.8911260" lon="-0.5453060">
        <ele>420.2</ele>
        <time>2019-07-04T17:59:41Z</time>
      </trkpt>
      <trkpt lat="39.8914400" lon="-0.5456080">
        <ele>421.0</ele>
        <time>2019-07-04T17:59:47Z</time>
      </trkpt>
      <trkpt lat="39.8914950" lon="-0.5456590">
        <ele>421.0</ele>
        <time>2019-07-04T17:59:48Z</time>
      </trkpt>
      <trkpt lat="39.8918330" lon="-0.5459680">
        <ele>421.2</ele>
        <time>2019-07-04T17:59:54Z</time>
      </trkpt>
      <trkpt lat="39.8919150" lon="-0.5460920">
        <ele>421.2</ele>
        <time>2019-07-04T17:59:56Z</time>
      </trkpt>
      <trkpt lat="39.8920400" lon="-0.5461780">
        <ele>421.4</ele>
        <time>2019-07-04T17:59:58Z</time>
      </trkpt>
      <trkpt lat="39.8921980" lon="-0.5463540">
        <ele>421.8</ele>
        <time>2019-07-04T18:00:01Z</time>
      </trkpt>
      <trkpt lat="39.8922470" lon="-0.5464120">
        <ele>422.0</ele>
        <time>2019-07-04T18:00:02Z</time>
      </trkpt>
      <trkpt lat="39.8924970" lon="-0.5467000">
        <ele>422.4</ele>
        <time>2019-07-04T18:00:07Z</time>
      </trkpt>
      <trkpt lat="39.8925930" lon="-0.5468280">
        <ele>422.4</ele>
        <time>2019-07-04T18:00:09Z</time>
      </trkpt>
      <trkpt lat="39.8929570" lon="-0.5473920">
        <ele>422.4</ele>
        <time>2019-07-04T18:00:17Z</time>
      </trkpt>
      <trkpt lat="39.8930010" lon="-0.5474660">
        <ele>422.4</ele>
        <time>2019-07-04T18:00:18Z</time>
      </trkpt>
      <trkpt lat="39.8933040" lon="-0.5479960">
        <ele>422.6</ele>
        <time>2019-07-04T18:00:25Z</time>
      </trkpt>
      <trkpt lat="39.8934320" lon="-0.5482220">
        <ele>422.6</ele>
        <time>2019-07-04T18:00:28Z</time>
      </trkpt>
      <trkpt lat="39.8937790" lon="-0.5488090">
        <ele>422.8</ele>
        <time>2019-07-04T18:00:36Z</time>
      </trkpt>
      <trkpt lat="39.8938640" lon="-0.5489540">
        <ele>422.8</ele>
        <time>2019-07-04T18:00:38Z</time>
      </trkpt>
      <trkpt lat="39.8941580" lon="-0.5494220">
        <ele>423.0</ele>
        <time>2019-07-04T18:00:45Z</time>
      </trkpt>
      <trkpt lat="39.8944020" lon="-0.5498490">
        <ele>423.0</ele>
        <time>2019-07-04T18:00:51Z</time>
      </trkpt>
      <trkpt lat="39.8947320" lon="-0.5504150">
        <ele>423.2</ele>
        <time>2019-07-04T18:00:59Z</time>
      </trkpt>
      <trkpt lat="39.8947740" lon="-0.5504820">
        <ele>423.2</ele>
        <time>2019-07-04T18:01:00Z</time>
      </trkpt>
      <trkpt lat="39.8950960" lon="-0.5510200">
        <ele>423.2</ele>
        <time>2019-07-04T18:01:08Z</time>
      </trkpt>
      <trkpt lat="39.8953310" lon="-0.5514210">
        <ele>423.4</ele>
        <time>2019-07-04T18:01:14Z</time>
      </trkpt>
      <trkpt lat="39.8954420" lon="-0.5516280">
        <ele>423.0</ele>
        <time>2019-07-04T18:01:17Z</time>
      </trkpt>
      <trkpt lat="39.8955240" lon="-0.5517620">
        <ele>422.8</ele>
        <time>2019-07-04T18:01:19Z</time>
      </trkpt>
      <trkpt lat="39.8958090" lon="-0.5522460">
        <ele>423.2</ele>
        <time>2019-07-04T18:01:26Z</time>
      </trkpt>
      <trkpt lat="39.8958520" lon="-0.5523170">
        <ele>423.2</ele>
        <time>2019-07-04T18:01:27Z</time>
      </trkpt>
      <trkpt lat="39.8959790" lon="-0.5525260">
        <ele>423.4</ele>
        <time>2019-07-04T18:01:30Z</time>
      </trkpt>
      <trkpt lat="39.8961070" lon="-0.5527260">
        <ele>423.4</ele>
        <time>2019-07-04T18:01:33Z</time>
      </trkpt>
      <trkpt lat="39.8963660" lon="-0.5531800">
        <ele>423.8</ele>
        <time>2019-07-04T18:01:40Z</time>
      </trkpt>
      <trkpt lat="39.8965080" lon="-0.5534140">
        <ele>424.2</ele>
        <time>2019-07-04T18:01:44Z</time>
      </trkpt>
      <trkpt lat="39.8965760" lon="-0.5535220">
        <ele>424.4</ele>
        <time>2019-07-04T18:01:46Z</time>
      </trkpt>
      <trkpt lat="39.8967960" lon="-0.5538970">
        <ele>424.8</ele>
        <time>2019-07-04T18:01:52Z</time>
      </trkpt>
      <trkpt lat="39.8968690" lon="-0.5540200">
        <ele>425.4</ele>
        <time>2019-07-04T18:01:54Z</time>
      </trkpt>
      <trkpt lat="39.8969070" lon="-0.5540810">
        <ele>425.6</ele>
        <time>2019-07-04T18:01:55Z</time>
      </trkpt>
      <trkpt lat="39.8970160" lon="-0.5542630">
        <ele>426.0</ele>
        <time>2019-07-04T18:01:58Z</time>
      </trkpt>
      <trkpt lat="39.8970810" lon="-0.5543840">
        <ele>426.4</ele>
        <time>2019-07-04T18:02:00Z</time>
      </trkpt>
      <trkpt lat="39.8971810" lon="-0.5545480">
        <ele>427.2</ele>
        <time>2019-07-04T18:02:03Z</time>
      </trkpt>
      <trkpt lat="39.8972480" lon="-0.5546540">
        <ele>427.4</ele>
        <time>2019-07-04T18:02:05Z</time>
      </trkpt>
      <trkpt lat="39.8972820" lon="-0.5547040">
        <ele>427.6</ele>
        <time>2019-07-04T18:02:06Z</time>
      </trkpt>
      <trkpt lat="39.8974080" lon="-0.5549210">
        <ele>428.4</ele>
        <time>2019-07-04T18:02:10Z</time>
      </trkpt>
      <trkpt lat="39.8974380" lon="-0.5549750">
        <ele>428.6</ele>
        <time>2019-07-04T18:02:11Z</time>
      </trkpt>
      <trkpt lat="39.8975350" lon="-0.5551310">
        <ele>429.6</ele>
        <time>2019-07-04T18:02:14Z</time>
      </trkpt>
      <trkpt lat="39.8976920" lon="-0.5553890">
        <ele>430.6</ele>
        <time>2019-07-04T18:02:19Z</time>
      </trkpt>
      <trkpt lat="39.8977230" lon="-0.5554410">
        <ele>430.8</ele>
        <time>2019-07-04T18:02:20Z</time>
      </trkpt>
      <trkpt lat="39.8978450" lon="-0.5556480">
        <ele>432.0</ele>
        <time>2019-07-04T18:02:24Z</time>
      </trkpt>
      <trkpt lat="39.8979660" lon="-0.5558560">
        <ele>433.0</ele>
        <time>2019-07-04T18:02:28Z</time>
      </trkpt>
      <trkpt lat="39.8980890" lon="-0.5560580">
        <ele>433.8</ele>
        <time>2019-07-04T18:02:32Z</time>
      </trkpt>
      <trkpt lat="39.8981510" lon="-0.5561580">
        <ele>434.2</ele>
        <time>2019-07-04T18:02:34Z</time>
      </trkpt>
      <trkpt lat="39.8983060" lon="-0.5564100">
        <ele>435.2</ele>
        <time>2019-07-04T18:02:39Z</time>
      </trkpt>
      <trkpt lat="39.8984300" lon="-0.5566030">
        <ele>436.2</ele>
        <time>2019-07-04T18:02:43Z</time>
      </trkpt>
      <trkpt lat="39.8984620" lon="-0.5566510">
        <ele>436.4</ele>
        <time>2019-07-04T18:02:44Z</time>
      </trkpt>
      <trkpt lat="39.8986320" lon="-0.5568840">
        <ele>437.4</ele>
        <time>2019-07-04T18:02:49Z</time>
      </trkpt>
      <trkpt lat="39.8986680" lon="-0.5569280">
        <ele>437.6</ele>
        <time>2019-07-04T18:02:50Z</time>
      </trkpt>
      <trkpt lat="39.8987760" lon="-0.5570660">
        <ele>438.4</ele>
        <time>2019-07-04T18:02:53Z</time>
      </trkpt>
      <trkpt lat="39.8990140" lon="-0.5573280">
        <ele>439.6</ele>
        <time>2019-07-04T18:02:59Z</time>
      </trkpt>
      <trkpt lat="39.8992280" lon="-0.5575190">
        <ele>440.8</ele>
        <time>2019-07-04T18:03:04Z</time>
      </trkpt>
      <trkpt lat="39.8993580" lon="-0.5576290">
        <ele>441.0</ele>
        <time>2019-07-04T18:03:07Z</time>
      </trkpt>
      <trkpt lat="39.8995370" lon="-0.5577540">
        <ele>441.8</ele>
        <time>2019-07-04T18:03:11Z</time>
      </trkpt>
      <trkpt lat="39.8997670" lon="-0.5579040">
        <ele>443.0</ele>
        <time>2019-07-04T18:03:16Z</time>
      </trkpt>
      <trkpt lat="39.9001080" lon="-0.5580730">
        <ele>444.0</ele>
        <time>2019-07-04T18:03:23Z</time>
      </trkpt>
      <trkpt lat="39.9001570" lon="-0.5580950">
        <ele>444.2</ele>
        <time>2019-07-04T18:03:24Z</time>
      </trkpt>
      <trkpt lat="39.9004060" lon="-0.5581830">
        <ele>445.0</ele>
        <time>2019-07-04T18:03:29Z</time>
      </trkpt>
      <trkpt lat="39.9006660" lon="-0.5582670">
        <ele>445.6</ele>
        <time>2019-07-04T18:03:34Z</time>
      </trkpt>
      <trkpt lat="39.9008260" lon="-0.5583120">
        <ele>446.0</ele>
        <time>2019-07-04T18:03:37Z</time>
      </trkpt>
      <trkpt lat="39.9010950" lon="-0.5583890">
        <ele>446.4</ele>
        <time>2019-07-04T18:03:42Z</time>
      </trkpt>
      <trkpt lat="39.9014140" lon="-0.5584890">
        <ele>447.0</ele>
        <time>2019-07-04T18:03:48Z</time>
      </trkpt>
      <trkpt lat="39.9014670" lon="-0.5585050">
        <ele>447.0</ele>
        <time>2019-07-04T18:03:49Z</time>
      </trkpt>
      <trkpt lat="39.9016780" lon="-0.5585700">
        <ele>447.4</ele>
        <time>2019-07-04T18:03:53Z</time>
      </trkpt>
      <trkpt lat="39.9018900" lon="-0.5586300">
        <ele>448.0</ele>
        <time>2019-07-04T18:03:57Z</time>
      </trkpt>
      <trkpt lat="39.9019970" lon="-0.5586600">
        <ele>448.0</ele>
        <time>2019-07-04T18:03:59Z</time>
      </trkpt>
      <trkpt lat="39.9022140" lon="-0.5587100">
        <ele>448.4</ele>
        <time>2019-07-04T18:04:03Z</time>
      </trkpt>
      <trkpt lat="39.9024270" lon="-0.5587550">
        <ele>448.8</ele>
        <time>2019-07-04T18:04:07Z</time>
      </trkpt>
      <trkpt lat="39.9025320" lon="-0.5587710">
        <ele>449.2</ele>
        <time>2019-07-04T18:04:09Z</time>
      </trkpt>
      <trkpt lat="39.9027340" lon="-0.5587990">
        <ele>450.2</ele>
        <time>2019-07-04T18:04:13Z</time>
      </trkpt>
      <trkpt lat="39.9028340" lon="-0.5588130">
        <ele>450.4</ele>
        <time>2019-07-04T18:04:15Z</time>
      </trkpt>
      <trkpt lat="39.9031810" lon="-0.5588440">
        <ele>451.4</ele>
        <time>2019-07-04T18:04:22Z</time>
      </trkpt>
      <trkpt lat="39.9034370" lon="-0.5588630">
        <ele>452.4</ele>
        <time>2019-07-04T18:04:27Z</time>
      </trkpt>
      <trkpt lat="39.9036480" lon="-0.5588720">
        <ele>453.0</ele>
        <time>2019-07-04T18:04:31Z</time>
      </trkpt>
      <trkpt lat="39.9039180" lon="-0.5589000">
        <ele>453.4</ele>
        <time>2019-07-04T18:04:36Z</time>
      </trkpt>
      <trkpt lat="39.9039720" lon="-0.5589060">
        <ele>453.6</ele>
        <time>2019-07-04T18:04:37Z</time>
      </trkpt>
      <trkpt lat="39.9041380" lon="-0.5589200">
        <ele>453.8</ele>
        <time>2019-07-04T18:04:40Z</time>
      </trkpt>
      <trkpt lat="39.9046840" lon="-0.5589050">
        <ele>453.6</ele>
        <time>2019-07-04T18:04:49Z</time>
      </trkpt>
      <trkpt lat="39.9050030" lon="-0.5588500">
        <ele>453.6</ele>
        <time>2019-07-04T18:04:54Z</time>
      </trkpt>
      <trkpt lat="39.9051970" lon="-0.5588000">
        <ele>453.6</ele>
        <time>2019-07-04T18:04:57Z</time>
      </trkpt>
      <trkpt lat="39.9057640" lon="-0.5585800">
        <ele>453.8</ele>
        <time>2019-07-04T18:05:06Z</time>
      </trkpt>
      <trkpt lat="39.9058260" lon="-0.5585490">
        <ele>453.8</ele>
        <time>2019-07-04T18:05:07Z</time>
      </trkpt>
      <trkpt lat="39.9063780" lon="-0.5582760">
        <ele>454.2</ele>
        <time>2019-07-04T18:05:16Z</time>
      </trkpt>
      <trkpt lat="39.9064980" lon="-0.5582180">
        <ele>454.2</ele>
        <time>2019-07-04T18:05:18Z</time>
      </trkpt>
      <trkpt lat="39.9070540" lon="-0.5580200">
        <ele>454.4</ele>
        <time>2019-07-04T18:05:27Z</time>
      </trkpt>
      <trkpt lat="39.9071780" lon="-0.5579870">
        <ele>454.6</ele>
        <time>2019-07-04T18:05:29Z</time>
      </trkpt>
      <trkpt lat="39.9074910" lon="-0.5579390">
        <ele>455.0</ele>
        <time>2019-07-04T18:05:34Z</time>
      </trkpt>
      <trkpt lat="39.9079280" lon="-0.5579260">
        <ele>455.8</ele>
        <time>2019-07-04T18:05:41Z</time>
      </trkpt>
      <trkpt lat="39.9081130" lon="-0.5579460">
        <ele>456.2</ele>
        <time>2019-07-04T18:05:44Z</time>
      </trkpt>
      <trkpt lat="39.9084800" lon="-0.5580110">
        <ele>456.6</ele>
        <time>2019-07-04T18:05:50Z</time>
      </trkpt>
      <trkpt lat="39.9085400" lon="-0.5580280">
        <ele>456.6</ele>
        <time>2019-07-04T18:05:51Z</time>
      </trkpt>
      <trkpt lat="39.9086610" lon="-0.5580620">
        <ele>456.8</ele>
        <time>2019-07-04T18:05:53Z</time>
      </trkpt>
      <trkpt lat="39.9090120" lon="-0.5581980">
        <ele>457.4</ele>
        <time>2019-07-04T18:05:59Z</time>
      </trkpt>
      <trkpt lat="39.9090690" lon="-0.5582240">
        <ele>457.6</ele>
        <time>2019-07-04T18:06:00Z</time>
      </trkpt>
      <trkpt lat="39.9091790" lon="-0.5582830">
        <ele>457.8</ele>
        <time>2019-07-04T18:06:02Z</time>
      </trkpt>
      <trkpt lat="39.9095540" lon="-0.5585170">
        <ele>458.6</ele>
        <time>2019-07-04T18:06:09Z</time>
      </trkpt>
      <trkpt lat="39.9096610" lon="-0.5585930">
        <ele>459.0</ele>
        <time>2019-07-04T18:06:11Z</time>
      </trkpt>
      <trkpt lat="39.9099700" lon="-0.5588550">
        <ele>460.0</ele>
        <time>2019-07-04T18:06:17Z</time>
      </trkpt>
      <trkpt lat="39.9100190" lon="-0.5589050">
        <ele>460.2</ele>
        <time>2019-07-04T18:06:18Z</time>
      </trkpt>
      <trkpt lat="39.9102600" lon="-0.5591700">
        <ele>461.0</ele>
        <time>2019-07-04T18:06:23Z</time>
      </trkpt>
      <trkpt lat="39.9103040" lon="-0.5592260">
        <ele>461.2</ele>
        <time>2019-07-04T18:06:24Z</time>
      </trkpt>
      <trkpt lat="39.9104760" lon="-0.5594510">
        <ele>461.8</ele>
        <time>2019-07-04T18:06:28Z</time>
      </trkpt>
      <trkpt lat="39.9106690" lon="-0.5597590">
        <ele>462.2</ele>
        <time>2019-07-04T18:06:33Z</time>
      </trkpt>
      <trkpt lat="39.9108470" lon="-0.5600850">
        <ele>462.8</ele>
        <time>2019-07-04T18:06:38Z</time>
      </trkpt>
      <trkpt lat="39.9110310" lon="-0.5605030">
        <ele>463.4</ele>
        <time>2019-07-04T18:06:44Z</time>
      </trkpt>
      <trkpt lat="39.9110840" lon="-0.5606490">
        <ele>463.4</ele>
        <time>2019-07-04T18:06:46Z</time>
      </trkpt>
      <trkpt lat="39.9112530" lon="-0.5611760">
        <ele>464.6</ele>
        <time>2019-07-04T18:06:53Z</time>
      </trkpt>
      <trkpt lat="39.9112950" lon="-0.5613280">
        <ele>464.8</ele>
        <time>2019-07-04T18:06:55Z</time>
      </trkpt>
      <trkpt lat="39.9114650" lon="-0.5619180">
        <ele>465.4</ele>
        <time>2019-07-04T18:07:03Z</time>
      </trkpt>
      <trkpt lat="39.9114840" lon="-0.5619910">
        <ele>465.6</ele>
        <time>2019-07-04T18:07:04Z</time>
      </trkpt>
      <trkpt lat="39.9116430" lon="-0.5625680">
        <ele>466.4</ele>
        <time>2019-07-04T18:07:12Z</time>
      </trkpt>
      <trkpt lat="39.9117240" lon="-0.5628580">
        <ele>466.6</ele>
        <time>2019-07-04T18:07:16Z</time>
      </trkpt>
      <trkpt lat="39.9118360" lon="-0.5632960">
        <ele>467.4</ele>
        <time>2019-07-04T18:07:22Z</time>
      </trkpt>
      <trkpt lat="39.9118550" lon="-0.5633700">
        <ele>467.6</ele>
        <time>2019-07-04T18:07:23Z</time>
      </trkpt>
      <trkpt lat="39.9119750" lon="-0.5638070">
        <ele>468.6</ele>
        <time>2019-07-04T18:07:29Z</time>
      </trkpt>
      <trkpt lat="39.9120570" lon="-0.5640960">
        <ele>469.0</ele>
        <time>2019-07-04T18:07:33Z</time>
      </trkpt>
      <trkpt lat="39.9121780" lon="-0.5645240">
        <ele>469.6</ele>
        <time>2019-07-04T18:07:39Z</time>
      </trkpt>
      <trkpt lat="39.9122770" lon="-0.5648710">
        <ele>470.6</ele>
        <time>2019-07-04T18:07:44Z</time>
      </trkpt>
      <trkpt lat="39.9123390" lon="-0.5650770">
        <ele>470.8</ele>
        <time>2019-07-04T18:07:47Z</time>
      </trkpt>
      <trkpt lat="39.9124680" lon="-0.5654880">
        <ele>471.4</ele>
        <time>2019-07-04T18:07:53Z</time>
      </trkpt>
      <trkpt lat="39.9125500" lon="-0.5657570">
        <ele>471.8</ele>
        <time>2019-07-04T18:07:57Z</time>
      </trkpt>
      <trkpt lat="39.9126520" lon="-0.5660980">
        <ele>472.0</ele>
        <time>2019-07-04T18:08:02Z</time>
      </trkpt>
      <trkpt lat="39.9127850" lon="-0.5664930">
        <ele>473.0</ele>
        <time>2019-07-04T18:08:08Z</time>
      </trkpt>
      <trkpt lat="39.9128550" lon="-0.5666900">
        <ele>473.4</ele>
        <time>2019-07-04T18:08:11Z</time>
      </trkpt>
      <trkpt lat="39.9130140" lon="-0.5671700">
        <ele>474.0</ele>
        <time>2019-07-04T18:08:18Z</time>
      </trkpt>
      <trkpt lat="39.9130390" lon="-0.5672390">
        <ele>474.2</ele>
        <time>2019-07-04T18:08:19Z</time>
      </trkpt>
      <trkpt lat="39.9132480" lon="-0.5678600">
        <ele>475.0</ele>
        <time>2019-07-04T18:08:28Z</time>
      </trkpt>
      <trkpt lat="39.9132940" lon="-0.5680000">
        <ele>475.2</ele>
        <time>2019-07-04T18:08:30Z</time>
      </trkpt>
      <trkpt lat="39.9134040" lon="-0.5683470">
        <ele>476.2</ele>
        <time>2019-07-04T18:08:35Z</time>
      </trkpt>
      <trkpt lat="39.9134980" lon="-0.5686210">
        <ele>476.6</ele>
        <time>2019-07-04T18:08:39Z</time>
      </trkpt>
      <trkpt lat="39.9135650" lon="-0.5688230">
        <ele>477.0</ele>
        <time>2019-07-04T18:08:42Z</time>
      </trkpt>
      <trkpt lat="39.9136490" lon="-0.5690940">
        <ele>478.0</ele>
        <time>2019-07-04T18:08:46Z</time>
      </trkpt>
      <trkpt lat="39.9136660" lon="-0.5691630">
        <ele>478.2</ele>
        <time>2019-07-04T18:08:47Z</time>
      </trkpt>
      <trkpt lat="39.9137680" lon="-0.5694970">
        <ele>479.2</ele>
        <time>2019-07-04T18:08:52Z</time>
      </trkpt>
      <trkpt lat="39.9137890" lon="-0.5695640">
        <ele>479.6</ele>
        <time>2019-07-04T18:08:53Z</time>
      </trkpt>
      <trkpt lat="39.9138710" lon="-0.5698370">
        <ele>480.4</ele>
        <time>2019-07-04T18:08:57Z</time>
      </trkpt>
      <trkpt lat="39.9139720" lon="-0.5701610">
        <ele>481.4</ele>
        <time>2019-07-04T18:09:02Z</time>
      </trkpt>
      <trkpt lat="39.9140110" lon="-0.5702870">
        <ele>481.8</ele>
        <time>2019-07-04T18:09:04Z</time>
      </trkpt>
      <trkpt lat="39.9140690" lon="-0.5704770">
        <ele>482.6</ele>
        <time>2019-07-04T18:09:07Z</time>
      </trkpt>
      <trkpt lat="39.9141710" lon="-0.5707980">
        <ele>483.8</ele>
        <time>2019-07-04T18:09:12Z</time>
      </trkpt>
      <trkpt lat="39.9142390" lon="-0.5709920">
        <ele>484.2</ele>
        <time>2019-07-04T18:09:15Z</time>
      </trkpt>
      <trkpt lat="39.9143840" lon="-0.5714740">
        <ele>484.8</ele>
        <time>2019-07-04T18:09:22Z</time>
      </trkpt>
      <trkpt lat="39.9144050" lon="-0.5715450">
        <ele>485.0</ele>
        <time>2019-07-04T18:09:23Z</time>
      </trkpt>
      <trkpt lat="39.9146340" lon="-0.5722610">
        <ele>485.6</ele>
        <time>2019-07-04T18:09:33Z</time>
      </trkpt>
      <trkpt lat="39.9146570" lon="-0.5723350">
        <ele>485.6</ele>
        <time>2019-07-04T18:09:34Z</time>
      </trkpt>
      <trkpt lat="39.9148160" lon="-0.5727840">
        <ele>485.6</ele>
        <time>2019-07-04T18:09:40Z</time>
      </trkpt>
      <trkpt lat="39.9148490" lon="-0.5728580">
        <ele>485.4</ele>
        <time>2019-07-04T18:09:41Z</time>
      </trkpt>
      <trkpt lat="39.9149580" lon="-0.5730850">
        <ele>485.0</ele>
        <time>2019-07-04T18:09:44Z</time>
      </trkpt>
      <trkpt lat="39.9150920" lon="-0.5733040">
        <ele>484.6</ele>
        <time>2019-07-04T18:09:47Z</time>
      </trkpt>
      <trkpt lat="39.9151390" lon="-0.5733790">
        <ele>484.6</ele>
        <time>2019-07-04T18:09:48Z</time>
      </trkpt>
      <trkpt lat="39.9152910" lon="-0.5735950">
        <ele>484.0</ele>
        <time>2019-07-04T18:09:51Z</time>
      </trkpt>
      <trkpt lat="39.9154030" lon="-0.5737280">
        <ele>483.8</ele>
        <time>2019-07-04T18:09:53Z</time>
      </trkpt>
      <trkpt lat="39.9154600" lon="-0.5737900">
        <ele>483.8</ele>
        <time>2019-07-04T18:09:54Z</time>
      </trkpt>
      <trkpt lat="39.9158180" lon="-0.5741470">
        <ele>482.8</ele>
        <time>2019-07-04T18:10:00Z</time>
      </trkpt>
      <trkpt lat="39.9158790" lon="-0.5742050">
        <ele>482.6</ele>
        <time>2019-07-04T18:10:01Z</time>
      </trkpt>
      <trkpt lat="39.9160000" lon="-0.5743210">
        <ele>482.6</ele>
        <time>2019-07-04T18:10:03Z</time>
      </trkpt>
      <trkpt lat="39.9161790" lon="-0.5744920">
        <ele>482.2</ele>
        <time>2019-07-04T18:10:06Z</time>
      </trkpt>
      <trkpt lat="39.9164590" lon="-0.5747830">
        <ele>482.0</ele>
        <time>2019-07-04T18:10:11Z</time>
      </trkpt>
      <trkpt lat="39.9165640" lon="-0.5749040">
        <ele>481.8</ele>
        <time>2019-07-04T18:10:13Z</time>
      </trkpt>
      <trkpt lat="39.9167120" lon="-0.5750980">
        <ele>481.6</ele>
        <time>2019-07-04T18:10:16Z</time>
      </trkpt>
      <trkpt lat="39.9169420" lon="-0.5754390">
        <ele>481.8</ele>
        <time>2019-07-04T18:10:21Z</time>
      </trkpt>
      <trkpt lat="39.9172170" lon="-0.5759560">
        <ele>481.8</ele>
        <time>2019-07-04T18:10:28Z</time>
      </trkpt>
      <trkpt lat="39.9174960" lon="-0.5765610">
        <ele>481.8</ele>
        <time>2019-07-04T18:10:36Z</time>
      </trkpt>
      <trkpt lat="39.9177850" lon="-0.5772230">
        <ele>482.4</ele>
        <time>2019-07-04T18:10:45Z</time>
      </trkpt>
      <trkpt lat="39.9178170" lon="-0.5772950">
        <ele>482.6</ele>
        <time>2019-07-04T18:10:46Z</time>
      </trkpt>
      <trkpt lat="39.9178770" lon="-0.5774370">
        <ele>482.6</ele>
        <time>2019-07-04T18:10:48Z</time>
      </trkpt>
      <trkpt lat="39.9180480" lon="-0.5778430">
        <ele>483.4</ele>
        <time>2019-07-04T18:10:54Z</time>
      </trkpt>
      <trkpt lat="39.9181350" lon="-0.5780390">
        <ele>483.8</ele>
        <time>2019-07-04T18:10:57Z</time>
      </trkpt>
      <trkpt lat="39.9183340" lon="-0.5784940">
        <ele>484.2</ele>
        <time>2019-07-04T18:11:04Z</time>
      </trkpt>
      <trkpt lat="39.9185040" lon="-0.5788800">
        <ele>484.8</ele>
        <time>2019-07-04T18:11:10Z</time>
      </trkpt>
      <trkpt lat="39.9185700" lon="-0.5789950">
        <ele>484.8</ele>
        <time>2019-07-04T18:11:12Z</time>
      </trkpt>
      <trkpt lat="39.9186090" lon="-0.5790450">
        <ele>485.2</ele>
        <time>2019-07-04T18:11:13Z</time>
      </trkpt>
      <trkpt lat="39.9187690" lon="-0.5792210">
        <ele>485.6</ele>
        <time>2019-07-04T18:11:17Z</time>
      </trkpt>
      <trkpt lat="39.9188000" lon="-0.5792740">
        <ele>485.8</ele>
        <time>2019-07-04T18:11:18Z</time>
      </trkpt>
      <trkpt lat="39.9188230" lon="-0.5793320">
        <ele>486.0</ele>
        <time>2019-07-04T18:11:19Z</time>
      </trkpt>
      <trkpt lat="39.9188610" lon="-0.5796010">
        <ele>486.4</ele>
        <time>2019-07-04T18:11:23Z</time>
      </trkpt>
      <trkpt lat="39.9188720" lon="-0.5796700">
        <ele>486.6</ele>
        <time>2019-07-04T18:11:24Z</time>
      </trkpt>
      <trkpt lat="39.9189290" lon="-0.5798670">
        <ele>487.0</ele>
        <time>2019-07-04T18:11:27Z</time>
      </trkpt>
      <trkpt lat="39.9189530" lon="-0.5799300">
        <ele>487.0</ele>
        <time>2019-07-04T18:11:28Z</time>
      </trkpt>
      <trkpt lat="39.9190520" lon="-0.5801670">
        <ele>487.8</ele>
        <time>2019-07-04T18:11:32Z</time>
      </trkpt>
      <trkpt lat="39.9190760" lon="-0.5802210">
        <ele>488.2</ele>
        <time>2019-07-04T18:11:33Z</time>
      </trkpt>
      <trkpt lat="39.9191490" lon="-0.5803770">
        <ele>488.8</ele>
        <time>2019-07-04T18:11:36Z</time>
      </trkpt>
      <trkpt lat="39.9192220" lon="-0.5805280">
        <ele>489.2</ele>
        <time>2019-07-04T18:11:39Z</time>
      </trkpt>
      <trkpt lat="39.9193130" lon="-0.5807230">
        <ele>490.4</ele>
        <time>2019-07-04T18:11:43Z</time>
      </trkpt>
      <trkpt lat="39.9193340" lon="-0.5807700">
        <ele>490.6</ele>
        <time>2019-07-04T18:11:44Z</time>
      </trkpt>
      <trkpt lat="39.9194100" lon="-0.5809560">
        <ele>491.6</ele>
        <time>2019-07-04T18:11:48Z</time>
      </trkpt>
      <trkpt lat="39.9194920" lon="-0.5811390">
        <ele>492.6</ele>
        <time>2019-07-04T18:11:52Z</time>
      </trkpt>
      <trkpt lat="39.9195530" lon="-0.5812750">
        <ele>493.0</ele>
        <time>2019-07-04T18:11:55Z</time>
      </trkpt>
      <trkpt lat="39.9195950" lon="-0.5813670">
        <ele>493.6</ele>
        <time>2019-07-04T18:11:57Z</time>
      </trkpt>
      <trkpt lat="39.9197050" lon="-0.5815980">
        <ele>494.8</ele>
        <time>2019-07-04T18:12:02Z</time>
      </trkpt>
      <trkpt lat="39.9197770" lon="-0.5817300">
        <ele>495.4</ele>
        <time>2019-07-04T18:12:05Z</time>
      </trkpt>
      <trkpt lat="39.9198470" lon="-0.5818570">
        <ele>496.0</ele>
        <time>2019-07-04T18:12:08Z</time>
      </trkpt>
      <trkpt lat="39.9199650" lon="-0.5820710">
        <ele>497.0</ele>
        <time>2019-07-04T18:12:13Z</time>
      </trkpt>
      <trkpt lat="39.9200110" lon="-0.5821550">
        <ele>497.4</ele>
        <time>2019-07-04T18:12:15Z</time>
      </trkpt>
      <trkpt lat="39.9200570" lon="-0.5822400">
        <ele>498.2</ele>
        <time>2019-07-04T18:12:17Z</time>
      </trkpt>
      <trkpt lat="39.9201530" lon="-0.5824120">
        <ele>499.4</ele>
        <time>2019-07-04T18:12:21Z</time>
      </trkpt>
      <trkpt lat="39.9202280" lon="-0.5825460">
        <ele>500.0</ele>
        <time>2019-07-04T18:12:24Z</time>
      </trkpt>
      <trkpt lat="39.9203010" lon="-0.5826790">
        <ele>500.6</ele>
        <time>2019-07-04T18:12:27Z</time>
      </trkpt>
      <trkpt lat="39.9203890" lon="-0.5828640">
        <ele>501.8</ele>
        <time>2019-07-04T18:12:31Z</time>
      </trkpt>
      <trkpt lat="39.9204610" lon="-0.5829980">
        <ele>502.6</ele>
        <time>2019-07-04T18:12:34Z</time>
      </trkpt>
      <trkpt lat="39.9204830" lon="-0.5830450">
        <ele>502.8</ele>
        <time>2019-07-04T18:12:35Z</time>
      </trkpt>
      <trkpt lat="39.9205700" lon="-0.5832400">
        <ele>503.8</ele>
        <time>2019-07-04T18:12:39Z</time>
      </trkpt>
      <trkpt lat="39.9206660" lon="-0.5834350">
        <ele>504.8</ele>
        <time>2019-07-04T18:12:43Z</time>
      </trkpt>
      <trkpt lat="39.9207820" lon="-0.5836800">
        <ele>506.2</ele>
        <time>2019-07-04T18:12:48Z</time>
      </trkpt>
      <trkpt lat="39.9208320" lon="-0.5837770">
        <ele>506.8</ele>
        <time>2019-07-04T18:12:50Z</time>
      </trkpt>
      <trkpt lat="39.9208760" lon="-0.5838780">
        <ele>507.4</ele>
        <time>2019-07-04T18:12:52Z</time>
      </trkpt>
      <trkpt lat="39.9209640" lon="-0.5840750">
        <ele>508.4</ele>
        <time>2019-07-04T18:12:56Z</time>
      </trkpt>
      <trkpt lat="39.9210560" lon="-0.5842670">
        <ele>509.2</ele>
        <time>2019-07-04T18:13:00Z</time>
      </trkpt>
      <trkpt lat="39.9210760" lon="-0.5843150">
        <ele>509.6</ele>
        <time>2019-07-04T18:13:01Z</time>
      </trkpt>
      <trkpt lat="39.9211850" lon="-0.5845560">
        <ele>510.8</ele>
        <time>2019-07-04T18:13:06Z</time>
      </trkpt>
      <trkpt lat="39.9212040" lon="-0.5846040">
        <ele>511.0</ele>
        <time>2019-07-04T18:13:07Z</time>
      </trkpt>
      <trkpt lat="39.9212850" lon="-0.5848000">
        <ele>511.8</ele>
        <time>2019-07-04T18:13:11Z</time>
      </trkpt>
      <trkpt lat="39.9213610" lon="-0.5849330">
        <ele>512.2</ele>
        <time>2019-07-04T18:13:14Z</time>
      </trkpt>
      <trkpt lat="39.9213830" lon="-0.5849790">
        <ele>512.4</ele>
        <time>2019-07-04T18:13:15Z</time>
      </trkpt>
      <trkpt lat="39.9214250" lon="-0.5850740">
        <ele>513.2</ele>
        <time>2019-07-04T18:13:17Z</time>
      </trkpt>
      <trkpt lat="39.9214850" lon="-0.5852130">
        <ele>514.2</ele>
        <time>2019-07-04T18:13:20Z</time>
      </trkpt>
      <trkpt lat="39.9215740" lon="-0.5854460">
        <ele>515.4</ele>
        <time>2019-07-04T18:13:25Z</time>
      </trkpt>
      <trkpt lat="39.9216570" lon="-0.5856230">
        <ele>516.4</ele>
        <time>2019-07-04T18:13:29Z</time>
      </trkpt>
      <trkpt lat="39.9217350" lon="-0.5858020">
        <ele>517.6</ele>
        <time>2019-07-04T18:13:33Z</time>
      </trkpt>
      <trkpt lat="39.9218150" lon="-0.5860420">
        <ele>518.8</ele>
        <time>2019-07-04T18:13:38Z</time>
      </trkpt>
      <trkpt lat="39.9218690" lon="-0.5861850">
        <ele>519.8</ele>
        <time>2019-07-04T18:13:41Z</time>
      </trkpt>
      <trkpt lat="39.9218880" lon="-0.5862310">
        <ele>520.0</ele>
        <time>2019-07-04T18:13:42Z</time>
      </trkpt>
      <trkpt lat="39.9219710" lon="-0.5864750">
        <ele>521.2</ele>
        <time>2019-07-04T18:13:47Z</time>
      </trkpt>
      <trkpt lat="39.9219990" lon="-0.5865720">
        <ele>521.8</ele>
        <time>2019-07-04T18:13:49Z</time>
      </trkpt>
      <trkpt lat="39.9220250" lon="-0.5866720">
        <ele>522.4</ele>
        <time>2019-07-04T18:13:51Z</time>
      </trkpt>
      <trkpt lat="39.9220970" lon="-0.5869220">
        <ele>523.6</ele>
        <time>2019-07-04T18:13:56Z</time>
      </trkpt>
      <trkpt lat="39.9221100" lon="-0.5869710">
        <ele>524.0</ele>
        <time>2019-07-04T18:13:57Z</time>
      </trkpt>
      <trkpt lat="39.9221350" lon="-0.5870720">
        <ele>524.6</ele>
        <time>2019-07-04T18:13:59Z</time>
      </trkpt>
      <trkpt lat="39.9221510" lon="-0.5871190">
        <ele>524.8</ele>
        <time>2019-07-04T18:14:00Z</time>
      </trkpt>
      <trkpt lat="39.9222070" lon="-0.5872570">
        <ele>525.4</ele>
        <time>2019-07-04T18:14:03Z</time>
      </trkpt>
      <trkpt lat="39.9222210" lon="-0.5873050">
        <ele>525.6</ele>
        <time>2019-07-04T18:14:04Z</time>
      </trkpt>
      <trkpt lat="39.9222640" lon="-0.5874520">
        <ele>526.6</ele>
        <time>2019-07-04T18:14:07Z</time>
      </trkpt>
      <trkpt lat="39.9223120" lon="-0.5876430">
        <ele>527.4</ele>
        <time>2019-07-04T18:14:11Z</time>
      </trkpt>
      <trkpt lat="39.9223240" lon="-0.5876900">
        <ele>527.6</ele>
        <time>2019-07-04T18:14:12Z</time>
      </trkpt>
      <trkpt lat="39.9224090" lon="-0.5879430">
        <ele>528.6</ele>
        <time>2019-07-04T18:14:17Z</time>
      </trkpt>
      <trkpt lat="39.9224240" lon="-0.5879970">
        <ele>528.8</ele>
        <time>2019-07-04T18:14:18Z</time>
      </trkpt>
      <trkpt lat="39.9224690" lon="-0.5881560">
        <ele>529.8</ele>
        <time>2019-07-04T18:14:21Z</time>
      </trkpt>
      <trkpt lat="39.9225460" lon="-0.5884140">
        <ele>531.0</ele>
        <time>2019-07-04T18:14:26Z</time>
      </trkpt>
      <trkpt lat="39.9225580" lon="-0.5884640">
        <ele>531.2</ele>
        <time>2019-07-04T18:14:27Z</time>
      </trkpt>
      <trkpt lat="39.9226280" lon="-0.5887130">
        <ele>532.0</ele>
        <time>2019-07-04T18:14:32Z</time>
      </trkpt>
      <trkpt lat="39.9226700" lon="-0.5888660">
        <ele>532.8</ele>
        <time>2019-07-04T18:14:35Z</time>
      </trkpt>
      <trkpt lat="39.9226990" lon="-0.5889700">
        <ele>533.4</ele>
        <time>2019-07-04T18:14:37Z</time>
      </trkpt>
      <trkpt lat="39.9227600" lon="-0.5891720">
        <ele>534.4</ele>
        <time>2019-07-04T18:14:41Z</time>
      </trkpt>
      <trkpt lat="39.9228050" lon="-0.5893230">
        <ele>535.2</ele>
        <time>2019-07-04T18:14:44Z</time>
      </trkpt>
      <trkpt lat="39.9228350" lon="-0.5894240">
        <ele>535.6</ele>
        <time>2019-07-04T18:14:46Z</time>
      </trkpt>
      <trkpt lat="39.9228950" lon="-0.5896260">
        <ele>536.6</ele>
        <time>2019-07-04T18:14:50Z</time>
      </trkpt>
      <trkpt lat="39.9229410" lon="-0.5897780">
        <ele>537.4</ele>
        <time>2019-07-04T18:14:53Z</time>
      </trkpt>
      <trkpt lat="39.9229720" lon="-0.5898800">
        <ele>537.8</ele>
        <time>2019-07-04T18:14:55Z</time>
      </trkpt>
      <trkpt lat="39.9230320" lon="-0.5900900">
        <ele>538.8</ele>
        <time>2019-07-04T18:14:59Z</time>
      </trkpt>
      <trkpt lat="39.9230650" lon="-0.5901980">
        <ele>539.4</ele>
        <time>2019-07-04T18:15:01Z</time>
      </trkpt>
      <trkpt lat="39.9231130" lon="-0.5903620">
        <ele>540.2</ele>
        <time>2019-07-04T18:15:04Z</time>
      </trkpt>
      <trkpt lat="39.9231850" lon="-0.5906400">
        <ele>541.2</ele>
        <time>2019-07-04T18:15:09Z</time>
      </trkpt>
      <trkpt lat="39.9232390" lon="-0.5908610">
        <ele>542.2</ele>
        <time>2019-07-04T18:15:13Z</time>
      </trkpt>
      <trkpt lat="39.9232510" lon="-0.5909170">
        <ele>542.4</ele>
        <time>2019-07-04T18:15:14Z</time>
      </trkpt>
      <trkpt lat="39.9233090" lon="-0.5911390">
        <ele>543.4</ele>
        <time>2019-07-04T18:15:18Z</time>
      </trkpt>
      <trkpt lat="39.9233460" lon="-0.5913050">
        <ele>544.2</ele>
        <time>2019-07-04T18:15:21Z</time>
      </trkpt>
      <trkpt lat="39.9233690" lon="-0.5914180">
        <ele>544.6</ele>
        <time>2019-07-04T18:15:23Z</time>
      </trkpt>
      <trkpt lat="39.9234480" lon="-0.5917020">
        <ele>545.8</ele>
        <time>2019-07-04T18:15:28Z</time>
      </trkpt>
      <trkpt lat="39.9234620" lon="-0.5917610">
        <ele>546.0</ele>
        <time>2019-07-04T18:15:29Z</time>
      </trkpt>
      <trkpt lat="39.9235270" lon="-0.5920540">
        <ele>546.8</ele>
        <time>2019-07-04T18:15:34Z</time>
      </trkpt>
      <trkpt lat="39.9235820" lon="-0.5922820">
        <ele>547.8</ele>
        <time>2019-07-04T18:15:38Z</time>
      </trkpt>
      <trkpt lat="39.9236110" lon="-0.5923970">
        <ele>548.4</ele>
        <time>2019-07-04T18:15:40Z</time>
      </trkpt>
      <trkpt lat="39.9236500" lon="-0.5925690">
        <ele>549.0</ele>
        <time>2019-07-04T18:15:43Z</time>
      </trkpt>
      <trkpt lat="39.9237100" lon="-0.5928540">
        <ele>550.2</ele>
        <time>2019-07-04T18:15:48Z</time>
      </trkpt>
      <trkpt lat="39.9237520" lon="-0.5930230">
        <ele>551.0</ele>
        <time>2019-07-04T18:15:51Z</time>
      </trkpt>
      <trkpt lat="39.9237660" lon="-0.5930790">
        <ele>551.2</ele>
        <time>2019-07-04T18:15:52Z</time>
      </trkpt>
      <trkpt lat="39.9238310" lon="-0.5933540">
        <ele>552.2</ele>
        <time>2019-07-04T18:15:57Z</time>
      </trkpt>
      <trkpt lat="39.9238850" lon="-0.5935720">
        <ele>553.4</ele>
        <time>2019-07-04T18:16:01Z</time>
      </trkpt>
      <trkpt lat="39.9238990" lon="-0.5936270">
        <ele>553.8</ele>
        <time>2019-07-04T18:16:02Z</time>
      </trkpt>
      <trkpt lat="39.9239390" lon="-0.5937930">
        <ele>554.6</ele>
        <time>2019-07-04T18:16:05Z</time>
      </trkpt>
      <trkpt lat="39.9239950" lon="-0.5940100">
        <ele>555.6</ele>
        <time>2019-07-04T18:16:09Z</time>
      </trkpt>
      <trkpt lat="39.9240280" lon="-0.5941170">
        <ele>556.2</ele>
        <time>2019-07-04T18:16:11Z</time>
      </trkpt>
      <trkpt lat="39.9240800" lon="-0.5942740">
        <ele>556.8</ele>
        <time>2019-07-04T18:16:14Z</time>
      </trkpt>
      <trkpt lat="39.9241730" lon="-0.5945320">
        <ele>558.0</ele>
        <time>2019-07-04T18:16:19Z</time>
      </trkpt>
      <trkpt lat="39.9242800" lon="-0.5947810">
        <ele>559.0</ele>
        <time>2019-07-04T18:16:24Z</time>
      </trkpt>
      <trkpt lat="39.9243670" lon="-0.5949740">
        <ele>559.8</ele>
        <time>2019-07-04T18:16:28Z</time>
      </trkpt>
      <trkpt lat="39.9244120" lon="-0.5950690">
        <ele>560.0</ele>
        <time>2019-07-04T18:16:30Z</time>
      </trkpt>
      <trkpt lat="39.9245230" lon="-0.5953150">
        <ele>561.2</ele>
        <time>2019-07-04T18:16:35Z</time>
      </trkpt>
      <trkpt lat="39.9245460" lon="-0.5953650">
        <ele>561.6</ele>
        <time>2019-07-04T18:16:36Z</time>
      </trkpt>
      <trkpt lat="39.9246570" lon="-0.5956070">
        <ele>562.4</ele>
        <time>2019-07-04T18:16:41Z</time>
      </trkpt>
      <trkpt lat="39.9247300" lon="-0.5957560">
        <ele>563.0</ele>
        <time>2019-07-04T18:16:44Z</time>
      </trkpt>
      <trkpt lat="39.9247980" lon="-0.5959090">
        <ele>563.6</ele>
        <time>2019-07-04T18:16:47Z</time>
      </trkpt>
      <trkpt lat="39.9249190" lon="-0.5961550">
        <ele>564.6</ele>
        <time>2019-07-04T18:16:52Z</time>
      </trkpt>
      <trkpt lat="39.9250120" lon="-0.5963620">
        <ele>565.8</ele>
        <time>2019-07-04T18:16:56Z</time>
      </trkpt>
      <trkpt lat="39.9251250" lon="-0.5966150">
        <ele>567.0</ele>
        <time>2019-07-04T18:17:01Z</time>
      </trkpt>
      <trkpt lat="39.9252410" lon="-0.5968700">
        <ele>568.0</ele>
        <time>2019-07-04T18:17:06Z</time>
      </trkpt>
      <trkpt lat="39.9253190" lon="-0.5970210">
        <ele>568.6</ele>
        <time>2019-07-04T18:17:09Z</time>
      </trkpt>
      <trkpt lat="39.9253650" lon="-0.5971250">
        <ele>569.2</ele>
        <time>2019-07-04T18:17:11Z</time>
      </trkpt>
      <trkpt lat="39.9254880" lon="-0.5973850">
        <ele>570.2</ele>
        <time>2019-07-04T18:17:16Z</time>
      </trkpt>
      <trkpt lat="39.9255110" lon="-0.5974370">
        <ele>570.4</ele>
        <time>2019-07-04T18:17:17Z</time>
      </trkpt>
      <trkpt lat="39.9255800" lon="-0.5975910">
        <ele>571.6</ele>
        <time>2019-07-04T18:17:20Z</time>
      </trkpt>
      <trkpt lat="39.9256320" lon="-0.5976910">
        <ele>572.0</ele>
        <time>2019-07-04T18:17:22Z</time>
      </trkpt>
      <trkpt lat="39.9256760" lon="-0.5977970">
        <ele>572.4</ele>
        <time>2019-07-04T18:17:24Z</time>
      </trkpt>
      <trkpt lat="39.9256990" lon="-0.5978500">
        <ele>572.6</ele>
        <time>2019-07-04T18:17:25Z</time>
      </trkpt>
      <trkpt lat="39.9258300" lon="-0.5981120">
        <ele>573.6</ele>
        <time>2019-07-04T18:17:30Z</time>
      </trkpt>
      <trkpt lat="39.9259810" lon="-0.5984480">
        <ele>574.6</ele>
        <time>2019-07-04T18:17:36Z</time>
      </trkpt>
      <trkpt lat="39.9260060" lon="-0.5985060">
        <ele>574.8</ele>
        <time>2019-07-04T18:17:37Z</time>
      </trkpt>
      <trkpt lat="39.9261430" lon="-0.5987820">
        <ele>576.0</ele>
        <time>2019-07-04T18:17:42Z</time>
      </trkpt>
      <trkpt lat="39.9262460" lon="-0.5990090">
        <ele>576.8</ele>
        <time>2019-07-04T18:17:46Z</time>
      </trkpt>
      <trkpt lat="39.9262730" lon="-0.5990650">
        <ele>577.0</ele>
        <time>2019-07-04T18:17:47Z</time>
      </trkpt>
      <trkpt lat="39.9264040" lon="-0.5993430">
        <ele>578.0</ele>
        <time>2019-07-04T18:17:52Z</time>
      </trkpt>
      <trkpt lat="39.9264560" lon="-0.5994570">
        <ele>578.4</ele>
        <time>2019-07-04T18:17:54Z</time>
      </trkpt>
      <trkpt lat="39.9265100" lon="-0.5995700">
        <ele>579.0</ele>
        <time>2019-07-04T18:17:56Z</time>
      </trkpt>
      <trkpt lat="39.9266200" lon="-0.5997910">
        <ele>579.8</ele>
        <time>2019-07-04T18:18:00Z</time>
      </trkpt>
      <trkpt lat="39.9267000" lon="-0.5999570">
        <ele>580.6</ele>
        <time>2019-07-04T18:18:03Z</time>
      </trkpt>
      <trkpt lat="39.9267270" lon="-0.6000110">
        <ele>581.0</ele>
        <time>2019-07-04T18:18:04Z</time>
      </trkpt>
      <trkpt lat="39.9268310" lon="-0.6002340">
        <ele>582.0</ele>
        <time>2019-07-04T18:18:08Z</time>
      </trkpt>
      <trkpt lat="39.9269310" lon="-0.6004550">
        <ele>582.6</ele>
        <time>2019-07-04T18:18:12Z</time>
      </trkpt>
      <trkpt lat="39.9269830" lon="-0.6005650">
        <ele>583.2</ele>
        <time>2019-07-04T18:18:14Z</time>
      </trkpt>
      <trkpt lat="39.9270880" lon="-0.6007790">
        <ele>584.4</ele>
        <time>2019-07-04T18:18:18Z</time>
      </trkpt>
      <trkpt lat="39.9271400" lon="-0.6008870">
        <ele>584.8</ele>
        <time>2019-07-04T18:18:20Z</time>
      </trkpt>
      <trkpt lat="39.9272150" lon="-0.6010520">
        <ele>585.4</ele>
        <time>2019-07-04T18:18:23Z</time>
      </trkpt>
      <trkpt lat="39.9273320" lon="-0.6013240">
        <ele>586.6</ele>
        <time>2019-07-04T18:18:28Z</time>
      </trkpt>
      <trkpt lat="39.9273960" lon="-0.6014850">
        <ele>587.4</ele>
        <time>2019-07-04T18:18:31Z</time>
      </trkpt>
      <trkpt lat="39.9274230" lon="-0.6015360">
        <ele>587.6</ele>
        <time>2019-07-04T18:18:32Z</time>
      </trkpt>
      <trkpt lat="39.9275320" lon="-0.6017400">
        <ele>588.6</ele>
        <time>2019-07-04T18:18:36Z</time>
      </trkpt>
      <trkpt lat="39.9276080" lon="-0.6018950">
        <ele>589.4</ele>
        <time>2019-07-04T18:18:39Z</time>
      </trkpt>
      <trkpt lat="39.9276620" lon="-0.6019960">
        <ele>589.6</ele>
        <time>2019-07-04T18:18:41Z</time>
      </trkpt>
      <trkpt lat="39.9277770" lon="-0.6022610">
        <ele>590.8</ele>
        <time>2019-07-04T18:18:46Z</time>
      </trkpt>
      <trkpt lat="39.9279110" lon="-0.6025740">
        <ele>591.8</ele>
        <time>2019-07-04T18:18:52Z</time>
      </trkpt>
      <trkpt lat="39.9279710" lon="-0.6026640">
        <ele>592.4</ele>
        <time>2019-07-04T18:18:54Z</time>
      </trkpt>
      <trkpt lat="39.9280300" lon="-0.6027580">
        <ele>592.8</ele>
        <time>2019-07-04T18:18:56Z</time>
      </trkpt>
      <trkpt lat="39.9280580" lon="-0.6028070">
        <ele>593.0</ele>
        <time>2019-07-04T18:18:57Z</time>
      </trkpt>
      <trkpt lat="39.9281710" lon="-0.6030000">
        <ele>594.0</ele>
        <time>2019-07-04T18:19:01Z</time>
      </trkpt>
      <trkpt lat="39.9282000" lon="-0.6030460">
        <ele>594.0</ele>
        <time>2019-07-04T18:19:02Z</time>
      </trkpt>
      <trkpt lat="39.9283400" lon="-0.6032680">
        <ele>595.2</ele>
        <time>2019-07-04T18:19:07Z</time>
      </trkpt>
      <trkpt lat="39.9284350" lon="-0.6033860">
        <ele>596.0</ele>
        <time>2019-07-04T18:19:10Z</time>
      </trkpt>
      <trkpt lat="39.9284670" lon="-0.6034250">
        <ele>596.2</ele>
        <time>2019-07-04T18:19:11Z</time>
      </trkpt>
      <trkpt lat="39.9286040" lon="-0.6035800">
        <ele>597.4</ele>
        <time>2019-07-04T18:19:15Z</time>
      </trkpt>
      <trkpt lat="39.9287470" lon="-0.6037290">
        <ele>598.4</ele>
        <time>2019-07-04T18:19:19Z</time>
      </trkpt>
      <trkpt lat="39.9287860" lon="-0.6037670">
        <ele>598.6</ele>
        <time>2019-07-04T18:19:20Z</time>
      </trkpt>
      <trkpt lat="39.9289420" lon="-0.6039200">
        <ele>599.6</ele>
        <time>2019-07-04T18:19:24Z</time>
      </trkpt>
      <trkpt lat="39.9290510" lon="-0.6040420">
        <ele>600.2</ele>
        <time>2019-07-04T18:19:27Z</time>
      </trkpt>
      <trkpt lat="39.9291250" lon="-0.6041190">
        <ele>600.6</ele>
        <time>2019-07-04T18:19:29Z</time>
      </trkpt>
      <trkpt lat="39.9293180" lon="-0.6042930">
        <ele>601.6</ele>
        <time>2019-07-04T18:19:34Z</time>
      </trkpt>
      <trkpt lat="39.9295420" lon="-0.6045270">
        <ele>602.6</ele>
        <time>2019-07-04T18:19:40Z</time>
      </trkpt>
      <trkpt lat="39.9296190" lon="-0.6046070">
        <ele>603.0</ele>
        <time>2019-07-04T18:19:42Z</time>
      </trkpt>
      <trkpt lat="39.9297670" lon="-0.6047680">
        <ele>603.8</ele>
        <time>2019-07-04T18:19:46Z</time>
      </trkpt>
      <trkpt lat="39.9299480" lon="-0.6049620">
        <ele>604.8</ele>
        <time>2019-07-04T18:19:51Z</time>
      </trkpt>
      <trkpt lat="39.9299800" lon="-0.6050040">
        <ele>605.0</ele>
        <time>2019-07-04T18:19:52Z</time>
      </trkpt>
      <trkpt lat="39.9301170" lon="-0.6051610">
        <ele>606.0</ele>
        <time>2019-07-04T18:19:56Z</time>
      </trkpt>
      <trkpt lat="39.9301820" lon="-0.6052450">
        <ele>606.2</ele>
        <time>2019-07-04T18:19:58Z</time>
      </trkpt>
      <trkpt lat="39.9302130" lon="-0.6052890">
        <ele>606.4</ele>
        <time>2019-07-04T18:19:59Z</time>
      </trkpt>
      <trkpt lat="39.9303170" lon="-0.6054090">
        <ele>607.0</ele>
        <time>2019-07-04T18:20:02Z</time>
      </trkpt>
      <trkpt lat="39.9304180" lon="-0.6055420">
        <ele>607.6</ele>
        <time>2019-07-04T18:20:05Z</time>
      </trkpt>
      <trkpt lat="39.9304860" lon="-0.6056300">
        <ele>608.0</ele>
        <time>2019-07-04T18:20:07Z</time>
      </trkpt>
      <trkpt lat="39.9307260" lon="-0.6059500">
        <ele>609.2</ele>
        <time>2019-07-04T18:20:14Z</time>
      </trkpt>
      <trkpt lat="39.9308960" lon="-0.6061700">
        <ele>610.4</ele>
        <time>2019-07-04T18:20:19Z</time>
      </trkpt>
      <trkpt lat="39.9310280" lon="-0.6063450">
        <ele>611.4</ele>
        <time>2019-07-04T18:20:23Z</time>
      </trkpt>
      <trkpt lat="39.9311980" lon="-0.6065580">
        <ele>612.6</ele>
        <time>2019-07-04T18:20:28Z</time>
      </trkpt>
      <trkpt lat="39.9313310" lon="-0.6067280">
        <ele>613.0</ele>
        <time>2019-07-04T18:20:32Z</time>
      </trkpt>
      <trkpt lat="39.9313920" lon="-0.6068190">
        <ele>613.4</ele>
        <time>2019-07-04T18:20:34Z</time>
      </trkpt>
      <trkpt lat="39.9315160" lon="-0.6069970">
        <ele>614.6</ele>
        <time>2019-07-04T18:20:38Z</time>
      </trkpt>
      <trkpt lat="39.9315790" lon="-0.6070820">
        <ele>615.2</ele>
        <time>2019-07-04T18:20:40Z</time>
      </trkpt>
      <trkpt lat="39.9316400" lon="-0.6071620">
        <ele>615.6</ele>
        <time>2019-07-04T18:20:42Z</time>
      </trkpt>
      <trkpt lat="39.9317560" lon="-0.6073360">
        <ele>616.6</ele>
        <time>2019-07-04T18:20:46Z</time>
      </trkpt>
      <trkpt lat="39.9318150" lon="-0.6074240">
        <ele>617.2</ele>
        <time>2019-07-04T18:20:48Z</time>
      </trkpt>
      <trkpt lat="39.9318460" lon="-0.6074700">
        <ele>617.4</ele>
        <time>2019-07-04T18:20:49Z</time>
      </trkpt>
      <trkpt lat="39.9319080" lon="-0.6075680">
        <ele>617.8</ele>
        <time>2019-07-04T18:20:51Z</time>
      </trkpt>
      <trkpt lat="39.9319960" lon="-0.6077160">
        <ele>618.2</ele>
        <time>2019-07-04T18:20:54Z</time>
      </trkpt>
      <trkpt lat="39.9320460" lon="-0.6078240">
        <ele>618.8</ele>
        <time>2019-07-04T18:20:56Z</time>
      </trkpt>
      <trkpt lat="39.9321740" lon="-0.6081690">
        <ele>619.8</ele>
        <time>2019-07-04T18:21:02Z</time>
      </trkpt>
      <trkpt lat="39.9322770" lon="-0.6084510">
        <ele>620.8</ele>
        <time>2019-07-04T18:21:07Z</time>
      </trkpt>
      <trkpt lat="39.9322980" lon="-0.6085070">
        <ele>621.0</ele>
        <time>2019-07-04T18:21:08Z</time>
      </trkpt>
      <trkpt lat="39.9323370" lon="-0.6086190">
        <ele>621.8</ele>
        <time>2019-07-04T18:21:10Z</time>
      </trkpt>
      <trkpt lat="39.9324590" lon="-0.6089660">
        <ele>623.0</ele>
        <time>2019-07-04T18:21:16Z</time>
      </trkpt>
      <trkpt lat="39.9324990" lon="-0.6090880">
        <ele>623.4</ele>
        <time>2019-07-04T18:21:18Z</time>
      </trkpt>
      <trkpt lat="39.9325780" lon="-0.6093360">
        <ele>624.0</ele>
        <time>2019-07-04T18:21:22Z</time>
      </trkpt>
      <trkpt lat="39.9326820" lon="-0.6096520">
        <ele>624.8</ele>
        <time>2019-07-04T18:21:27Z</time>
      </trkpt>
      <trkpt lat="39.9327290" lon="-0.6097740">
        <ele>625.2</ele>
        <time>2019-07-04T18:21:29Z</time>
      </trkpt>
      <trkpt lat="39.9328480" lon="-0.6100780">
        <ele>626.4</ele>
        <time>2019-07-04T18:21:34Z</time>
      </trkpt>
      <trkpt lat="39.9329250" lon="-0.6102490">
        <ele>626.8</ele>
        <time>2019-07-04T18:21:37Z</time>
      </trkpt>
      <trkpt lat="39.9330880" lon="-0.6105250">
        <ele>627.6</ele>
        <time>2019-07-04T18:21:42Z</time>
      </trkpt>
      <trkpt lat="39.9332310" lon="-0.6107390">
        <ele>628.4</ele>
        <time>2019-07-04T18:21:46Z</time>
      </trkpt>
      <trkpt lat="39.9333070" lon="-0.6108460">
        <ele>628.6</ele>
        <time>2019-07-04T18:21:48Z</time>
      </trkpt>
      <trkpt lat="39.9336250" lon="-0.6112870">
        <ele>629.2</ele>
        <time>2019-07-04T18:21:56Z</time>
      </trkpt>
      <trkpt lat="39.9336640" lon="-0.6113450">
        <ele>629.6</ele>
        <time>2019-07-04T18:21:57Z</time>
      </trkpt>
      <trkpt lat="39.9339380" lon="-0.6117700">
        <ele>630.0</ele>
        <time>2019-07-04T18:22:04Z</time>
      </trkpt>
      <trkpt lat="39.9341050" lon="-0.6120040">
        <ele>630.6</ele>
        <time>2019-07-04T18:22:08Z</time>
      </trkpt>
      <trkpt lat="39.9343580" lon="-0.6123570">
        <ele>631.2</ele>
        <time>2019-07-04T18:22:14Z</time>
      </trkpt>
      <trkpt lat="39.9345730" lon="-0.6126470">
        <ele>631.6</ele>
        <time>2019-07-04T18:22:19Z</time>
      </trkpt>
      <trkpt lat="39.9347020" lon="-0.6128260">
        <ele>631.8</ele>
        <time>2019-07-04T18:22:22Z</time>
      </trkpt>
      <trkpt lat="39.9347460" lon="-0.6128840">
        <ele>631.8</ele>
        <time>2019-07-04T18:22:23Z</time>
      </trkpt>
      <trkpt lat="39.9349140" lon="-0.6131240">
        <ele>632.4</ele>
        <time>2019-07-04T18:22:27Z</time>
      </trkpt>
      <trkpt lat="39.9350860" lon="-0.6133540">
        <ele>633.2</ele>
        <time>2019-07-04T18:22:31Z</time>
      </trkpt>
      <trkpt lat="39.9351290" lon="-0.6134110">
        <ele>633.4</ele>
        <time>2019-07-04T18:22:32Z</time>
      </trkpt>
      <trkpt lat="39.9354250" lon="-0.6138040">
        <ele>634.4</ele>
        <time>2019-07-04T18:22:39Z</time>
      </trkpt>
      <trkpt lat="39.9354680" lon="-0.6138550">
        <ele>634.6</ele>
        <time>2019-07-04T18:22:40Z</time>
      </trkpt>
      <trkpt lat="39.9358170" lon="-0.6142590">
        <ele>635.2</ele>
        <time>2019-07-04T18:22:48Z</time>
      </trkpt>
      <trkpt lat="39.9358610" lon="-0.6143100">
        <ele>635.4</ele>
        <time>2019-07-04T18:22:49Z</time>
      </trkpt>
      <trkpt lat="39.9360800" lon="-0.6145490">
        <ele>636.0</ele>
        <time>2019-07-04T18:22:54Z</time>
      </trkpt>
      <trkpt lat="39.9362080" lon="-0.6146890">
        <ele>636.4</ele>
        <time>2019-07-04T18:22:57Z</time>
      </trkpt>
      <trkpt lat="39.9362530" lon="-0.6147330">
        <ele>636.6</ele>
        <time>2019-07-04T18:22:58Z</time>
      </trkpt>
      <trkpt lat="39.9365070" lon="-0.6150020">
        <ele>637.8</ele>
        <time>2019-07-04T18:23:04Z</time>
      </trkpt>
      <trkpt lat="39.9365490" lon="-0.6150450">
        <ele>638.0</ele>
        <time>2019-07-04T18:23:05Z</time>
      </trkpt>
      <trkpt lat="39.9366330" lon="-0.6151320">
        <ele>638.4</ele>
        <time>2019-07-04T18:23:07Z</time>
      </trkpt>
      <trkpt lat="39.9367230" lon="-0.6152080">
        <ele>638.8</ele>
        <time>2019-07-04T18:23:09Z</time>
      </trkpt>
      <trkpt lat="39.9368540" lon="-0.6153230">
        <ele>639.4</ele>
        <time>2019-07-04T18:23:12Z</time>
      </trkpt>
      <trkpt lat="39.9369390" lon="-0.6153990">
        <ele>639.8</ele>
        <time>2019-07-04T18:23:14Z</time>
      </trkpt>
      <trkpt lat="39.9371490" lon="-0.6155600">
        <ele>640.6</ele>
        <time>2019-07-04T18:23:19Z</time>
      </trkpt>
      <trkpt lat="39.9371880" lon="-0.6155960">
        <ele>641.0</ele>
        <time>2019-07-04T18:23:20Z</time>
      </trkpt>
      <trkpt lat="39.9373390" lon="-0.6157300">
        <ele>641.4</ele>
        <time>2019-07-04T18:23:24Z</time>
      </trkpt>
      <trkpt lat="39.9374160" lon="-0.6157860">
        <ele>641.8</ele>
        <time>2019-07-04T18:23:26Z</time>
      </trkpt>
      <trkpt lat="39.9375210" lon="-0.6158770">
        <ele>642.4</ele>
        <time>2019-07-04T18:23:29Z</time>
      </trkpt>
      <trkpt lat="39.9376220" lon="-0.6159710">
        <ele>643.2</ele>
        <time>2019-07-04T18:23:32Z</time>
      </trkpt>
      <trkpt lat="39.9377610" lon="-0.6160870">
        <ele>644.4</ele>
        <time>2019-07-04T18:23:36Z</time>
      </trkpt>
      <trkpt lat="39.9378270" lon="-0.6161440">
        <ele>644.8</ele>
        <time>2019-07-04T18:23:38Z</time>
      </trkpt>
      <trkpt lat="39.9379270" lon="-0.6162280">
        <ele>645.2</ele>
        <time>2019-07-04T18:23:41Z</time>
      </trkpt>
      <trkpt lat="39.9381620" lon="-0.6164330">
        <ele>646.4</ele>
        <time>2019-07-04T18:23:48Z</time>
      </trkpt>
      <trkpt lat="39.9383300" lon="-0.6165800">
        <ele>647.6</ele>
        <time>2019-07-04T18:23:53Z</time>
      </trkpt>
      <trkpt lat="39.9384830" lon="-0.6167450">
        <ele>648.6</ele>
        <time>2019-07-04T18:23:58Z</time>
      </trkpt>
      <trkpt lat="39.9385160" lon="-0.6167770">
        <ele>648.6</ele>
        <time>2019-07-04T18:23:59Z</time>
      </trkpt>
      <trkpt lat="39.9386900" lon="-0.6169220">
        <ele>649.8</ele>
        <time>2019-07-04T18:24:04Z</time>
      </trkpt>
      <trkpt lat="39.9387970" lon="-0.6170080">
        <ele>650.6</ele>
        <time>2019-07-04T18:24:07Z</time>
      </trkpt>
      <trkpt lat="39.9388320" lon="-0.6170360">
        <ele>650.8</ele>
        <time>2019-07-04T18:24:08Z</time>
      </trkpt>
      <trkpt lat="39.9390430" lon="-0.6172090">
        <ele>651.6</ele>
        <time>2019-07-04T18:24:14Z</time>
      </trkpt>
      <trkpt lat="39.9391130" lon="-0.6172730">
        <ele>652.2</ele>
        <time>2019-07-04T18:24:16Z</time>
      </trkpt>
      <trkpt lat="39.9392250" lon="-0.6173630">
        <ele>652.8</ele>
        <time>2019-07-04T18:24:19Z</time>
      </trkpt>
      <trkpt lat="39.9394060" lon="-0.6175130">
        <ele>654.0</ele>
        <time>2019-07-04T18:24:24Z</time>
      </trkpt>
      <trkpt lat="39.9394430" lon="-0.6175390">
        <ele>654.4</ele>
        <time>2019-07-04T18:24:25Z</time>
      </trkpt>
      <trkpt lat="39.9394800" lon="-0.6175650">
        <ele>654.6</ele>
        <time>2019-07-04T18:24:26Z</time>
      </trkpt>
      <trkpt lat="39.9395530" lon="-0.6176170">
        <ele>655.0</ele>
        <time>2019-07-04T18:24:28Z</time>
      </trkpt>
      <trkpt lat="39.9397340" lon="-0.6177320">
        <ele>656.0</ele>
        <time>2019-07-04T18:24:33Z</time>
      </trkpt>
      <trkpt lat="39.9399180" lon="-0.6178410">
        <ele>657.0</ele>
        <time>2019-07-04T18:24:38Z</time>
      </trkpt>
      <trkpt lat="39.9400370" lon="-0.6178930">
        <ele>657.6</ele>
        <time>2019-07-04T18:24:41Z</time>
      </trkpt>
      <trkpt lat="39.9401560" lon="-0.6179370">
        <ele>658.2</ele>
        <time>2019-07-04T18:24:44Z</time>
      </trkpt>
      <trkpt lat="39.9403160" lon="-0.6179790">
        <ele>659.4</ele>
        <time>2019-07-04T18:24:48Z</time>
      </trkpt>
      <trkpt lat="39.9404330" lon="-0.6180050">
        <ele>660.0</ele>
        <time>2019-07-04T18:24:51Z</time>
      </trkpt>
      <trkpt lat="39.9405070" lon="-0.6180230">
        <ele>660.8</ele>
        <time>2019-07-04T18:24:53Z</time>
      </trkpt>
      <trkpt lat="39.9406590" lon="-0.6180440">
        <ele>662.0</ele>
        <time>2019-07-04T18:24:57Z</time>
      </trkpt>
      <trkpt lat="39.9406960" lon="-0.6180600">
        <ele>662.2</ele>
        <time>2019-07-04T18:24:58Z</time>
      </trkpt>
      <trkpt lat="39.9408430" lon="-0.6181560">
        <ele>662.8</ele>
        <time>2019-07-04T18:25:02Z</time>
      </trkpt>
      <trkpt lat="39.9409500" lon="-0.6182310">
        <ele>663.4</ele>
        <time>2019-07-04T18:25:05Z</time>
      </trkpt>
      <trkpt lat="39.9410900" lon="-0.6183130">
        <ele>664.2</ele>
        <time>2019-07-04T18:25:09Z</time>
      </trkpt>
      <trkpt lat="39.9411430" lon="-0.6183340">
        <ele>664.6</ele>
        <time>2019-07-04T18:25:11Z</time>
      </trkpt>
      <trkpt lat="39.9412620" lon="-0.6184120">
        <ele>665.2</ele>
        <time>2019-07-04T18:25:16Z</time>
      </trkpt>
      <trkpt lat="39.9414300" lon="-0.6186480">
        <ele>665.4</ele>
        <time>2019-07-04T18:25:22Z</time>
      </trkpt>
      <trkpt lat="39.9416380" lon="-0.6188800">
        <ele>665.8</ele>
        <time>2019-07-04T18:25:28Z</time>
      </trkpt>
      <trkpt lat="39.9416780" lon="-0.6189130">
        <ele>666.0</ele>
        <time>2019-07-04T18:25:29Z</time>
      </trkpt>
      <trkpt lat="39.9417180" lon="-0.6189440">
        <ele>666.2</ele>
        <time>2019-07-04T18:25:30Z</time>
      </trkpt>
      <trkpt lat="39.9419260" lon="-0.6190920">
        <ele>667.2</ele>
        <time>2019-07-04T18:25:35Z</time>
      </trkpt>
      <trkpt lat="39.9420970" lon="-0.6191990">
        <ele>668.4</ele>
        <time>2019-07-04T18:25:39Z</time>
      </trkpt>
      <trkpt lat="39.9423460" lon="-0.6193740">
        <ele>669.6</ele>
        <time>2019-07-04T18:25:45Z</time>
      </trkpt>
      <trkpt lat="39.9424310" lon="-0.6194290">
        <ele>669.8</ele>
        <time>2019-07-04T18:25:47Z</time>
      </trkpt>
      <trkpt lat="39.9426030" lon="-0.6195410">
        <ele>670.8</ele>
        <time>2019-07-04T18:25:51Z</time>
      </trkpt>
      <trkpt lat="39.9428590" lon="-0.6197190">
        <ele>671.6</ele>
        <time>2019-07-04T18:25:57Z</time>
      </trkpt>
      <trkpt lat="39.9431570" lon="-0.6199160">
        <ele>673.0</ele>
        <time>2019-07-04T18:26:04Z</time>
      </trkpt>
      <trkpt lat="39.9432860" lon="-0.6199940">
        <ele>673.8</ele>
        <time>2019-07-04T18:26:07Z</time>
      </trkpt>
      <trkpt lat="39.9433730" lon="-0.6200480">
        <ele>674.0</ele>
        <time>2019-07-04T18:26:09Z</time>
      </trkpt>
      <trkpt lat="39.9435450" lon="-0.6201620">
        <ele>675.2</ele>
        <time>2019-07-04T18:26:13Z</time>
      </trkpt>
      <trkpt lat="39.9436680" lon="-0.6202540">
        <ele>676.0</ele>
        <time>2019-07-04T18:26:16Z</time>
      </trkpt>
      <trkpt lat="39.9437440" lon="-0.6203260">
        <ele>676.2</ele>
        <time>2019-07-04T18:26:18Z</time>
      </trkpt>
      <trkpt lat="39.9438820" lon="-0.6204900">
        <ele>676.8</ele>
        <time>2019-07-04T18:26:22Z</time>
      </trkpt>
      <trkpt lat="39.9439180" lon="-0.6205280">
        <ele>677.2</ele>
        <time>2019-07-04T18:26:23Z</time>
      </trkpt>
      <trkpt lat="39.9440550" lon="-0.6206810">
        <ele>678.4</ele>
        <time>2019-07-04T18:26:27Z</time>
      </trkpt>
      <trkpt lat="39.9442180" lon="-0.6208860">
        <ele>679.6</ele>
        <time>2019-07-04T18:26:32Z</time>
      </trkpt>
      <trkpt lat="39.9443660" lon="-0.6211120">
        <ele>680.6</ele>
        <time>2019-07-04T18:26:37Z</time>
      </trkpt>
      <trkpt lat="39.9444550" lon="-0.6212570">
        <ele>681.4</ele>
        <time>2019-07-04T18:26:40Z</time>
      </trkpt>
      <trkpt lat="39.9445180" lon="-0.6213520">
        <ele>682.0</ele>
        <time>2019-07-04T18:26:42Z</time>
      </trkpt>
      <trkpt lat="39.9446450" lon="-0.6215290">
        <ele>683.0</ele>
        <time>2019-07-04T18:26:46Z</time>
      </trkpt>
      <trkpt lat="39.9446750" lon="-0.6215740">
        <ele>683.4</ele>
        <time>2019-07-04T18:26:47Z</time>
      </trkpt>
      <trkpt lat="39.9447950" lon="-0.6217470">
        <ele>684.2</ele>
        <time>2019-07-04T18:26:51Z</time>
      </trkpt>
      <trkpt lat="39.9448870" lon="-0.6218770">
        <ele>684.8</ele>
        <time>2019-07-04T18:26:54Z</time>
      </trkpt>
      <trkpt lat="39.9449160" lon="-0.6219210">
        <ele>685.2</ele>
        <time>2019-07-04T18:26:55Z</time>
      </trkpt>
      <trkpt lat="39.9451660" lon="-0.6222650">
        <ele>686.2</ele>
        <time>2019-07-04T18:27:03Z</time>
      </trkpt>
      <trkpt lat="39.9451970" lon="-0.6223070">
        <ele>686.4</ele>
        <time>2019-07-04T18:27:04Z</time>
      </trkpt>
      <trkpt lat="39.9453100" lon="-0.6224830">
        <ele>687.4</ele>
        <time>2019-07-04T18:27:08Z</time>
      </trkpt>
      <trkpt lat="39.9454320" lon="-0.6226610">
        <ele>688.4</ele>
        <time>2019-07-04T18:27:12Z</time>
      </trkpt>
      <trkpt lat="39.9454620" lon="-0.6227090">
        <ele>688.6</ele>
        <time>2019-07-04T18:27:13Z</time>
      </trkpt>
      <trkpt lat="39.9455880" lon="-0.6228950">
        <ele>689.4</ele>
        <time>2019-07-04T18:27:17Z</time>
      </trkpt>
      <trkpt lat="39.9457150" lon="-0.6230780">
        <ele>690.0</ele>
        <time>2019-07-04T18:27:21Z</time>
      </trkpt>
      <trkpt lat="39.9458430" lon="-0.6232550">
        <ele>690.4</ele>
        <time>2019-07-04T18:27:25Z</time>
      </trkpt>
      <trkpt lat="39.9459670" lon="-0.6234520">
        <ele>691.0</ele>
        <time>2019-07-04T18:27:29Z</time>
      </trkpt>
      <trkpt lat="39.9460960" lon="-0.6236500">
        <ele>691.6</ele>
        <time>2019-07-04T18:27:33Z</time>
      </trkpt>
      <trkpt lat="39.9462890" lon="-0.6239350">
        <ele>692.4</ele>
        <time>2019-07-04T18:27:39Z</time>
      </trkpt>
      <trkpt lat="39.9463550" lon="-0.6240260">
        <ele>692.6</ele>
        <time>2019-07-04T18:27:41Z</time>
      </trkpt>
      <trkpt lat="39.9465190" lon="-0.6242710">
        <ele>693.0</ele>
        <time>2019-07-04T18:27:46Z</time>
      </trkpt>
      <trkpt lat="39.9465530" lon="-0.6243220">
        <ele>693.0</ele>
        <time>2019-07-04T18:27:47Z</time>
      </trkpt>
      <trkpt lat="39.9466920" lon="-0.6245300">
        <ele>693.4</ele>
        <time>2019-07-04T18:27:51Z</time>
      </trkpt>
      <trkpt lat="39.9467270" lon="-0.6245850">
        <ele>693.4</ele>
        <time>2019-07-04T18:27:52Z</time>
      </trkpt>
      <trkpt lat="39.9469100" lon="-0.6248480">
        <ele>693.6</ele>
        <time>2019-07-04T18:27:57Z</time>
      </trkpt>
      <trkpt lat="39.9470190" lon="-0.6250080">
        <ele>693.6</ele>
        <time>2019-07-04T18:28:00Z</time>
      </trkpt>
      <trkpt lat="39.9471330" lon="-0.6251650">
        <ele>693.6</ele>
        <time>2019-07-04T18:28:03Z</time>
      </trkpt>
      <trkpt lat="39.9472050" lon="-0.6252800">
        <ele>693.6</ele>
        <time>2019-07-04T18:28:05Z</time>
      </trkpt>
      <trkpt lat="39.9473540" lon="-0.6255110">
        <ele>693.6</ele>
        <time>2019-07-04T18:28:09Z</time>
      </trkpt>
      <trkpt lat="39.9475150" lon="-0.6257580">
        <ele>693.2</ele>
        <time>2019-07-04T18:28:13Z</time>
      </trkpt>
      <trkpt lat="39.9475560" lon="-0.6258190">
        <ele>693.2</ele>
        <time>2019-07-04T18:28:14Z</time>
      </trkpt>
      <trkpt lat="39.9477250" lon="-0.6260650">
        <ele>692.8</ele>
        <time>2019-07-04T18:28:18Z</time>
      </trkpt>
      <trkpt lat="39.9478110" lon="-0.6261760">
        <ele>692.6</ele>
        <time>2019-07-04T18:28:20Z</time>
      </trkpt>
      <trkpt lat="39.9479350" lon="-0.6263470">
        <ele>692.2</ele>
        <time>2019-07-04T18:28:23Z</time>
      </trkpt>
      <trkpt lat="39.9481430" lon="-0.6266490">
        <ele>692.2</ele>
        <time>2019-07-04T18:28:28Z</time>
      </trkpt>
      <trkpt lat="39.9483190" lon="-0.6269030">
        <ele>691.6</ele>
        <time>2019-07-04T18:28:32Z</time>
      </trkpt>
      <trkpt lat="39.9485490" lon="-0.6272340">
        <ele>691.6</ele>
        <time>2019-07-04T18:28:37Z</time>
      </trkpt>
      <trkpt lat="39.9487430" lon="-0.6275100">
        <ele>691.2</ele>
        <time>2019-07-04T18:28:41Z</time>
      </trkpt>
      <trkpt lat="39.9489350" lon="-0.6277960">
        <ele>690.8</ele>
        <time>2019-07-04T18:28:45Z</time>
      </trkpt>
      <trkpt lat="39.9491300" lon="-0.6280820">
        <ele>690.0</ele>
        <time>2019-07-04T18:28:49Z</time>
      </trkpt>
      <trkpt lat="39.9493280" lon="-0.6283500">
        <ele>689.2</ele>
        <time>2019-07-04T18:28:53Z</time>
      </trkpt>
      <trkpt lat="39.9495660" lon="-0.6285270">
        <ele>689.2</ele>
        <time>2019-07-04T18:28:57Z</time>
      </trkpt>
      <trkpt lat="39.9496300" lon="-0.6285580">
        <ele>689.2</ele>
        <time>2019-07-04T18:28:58Z</time>
      </trkpt>
      <trkpt lat="39.9498920" lon="-0.6286340">
        <ele>689.2</ele>
        <time>2019-07-04T18:29:02Z</time>
      </trkpt>
      <trkpt lat="39.9499580" lon="-0.6286360">
        <ele>689.2</ele>
        <time>2019-07-04T18:29:03Z</time>
      </trkpt>
      <trkpt lat="39.9503460" lon="-0.6285640">
        <ele>689.0</ele>
        <time>2019-07-04T18:29:09Z</time>
      </trkpt>
      <trkpt lat="39.9506770" lon="-0.6284340">
        <ele>689.8</ele>
        <time>2019-07-04T18:29:15Z</time>
      </trkpt>
      <trkpt lat="39.9509580" lon="-0.6283130">
        <ele>690.4</ele>
        <time>2019-07-04T18:29:21Z</time>
      </trkpt>
      <trkpt lat="39.9510410" lon="-0.6282720">
        <ele>690.6</ele>
        <time>2019-07-04T18:29:23Z</time>
      </trkpt>
      <trkpt lat="39.9510810" lon="-0.6282530">
        <ele>690.8</ele>
        <time>2019-07-04T18:29:24Z</time>
      </trkpt>
      <trkpt lat="39.9512390" lon="-0.6281730">
        <ele>691.6</ele>
        <time>2019-07-04T18:29:28Z</time>
      </trkpt>
      <trkpt lat="39.9512780" lon="-0.6281550">
        <ele>692.0</ele>
        <time>2019-07-04T18:29:29Z</time>
      </trkpt>
      <trkpt lat="39.9513560" lon="-0.6281270">
        <ele>692.4</ele>
        <time>2019-07-04T18:29:31Z</time>
      </trkpt>
      <trkpt lat="39.9514320" lon="-0.6280990">
        <ele>693.0</ele>
        <time>2019-07-04T18:29:33Z</time>
      </trkpt>
      <trkpt lat="39.9515080" lon="-0.6280690">
        <ele>693.8</ele>
        <time>2019-07-04T18:29:35Z</time>
      </trkpt>
      <trkpt lat="39.9516220" lon="-0.6280180">
        <ele>694.2</ele>
        <time>2019-07-04T18:29:38Z</time>
      </trkpt>
      <trkpt lat="39.9516960" lon="-0.6279800">
        <ele>694.6</ele>
        <time>2019-07-04T18:29:40Z</time>
      </trkpt>
      <trkpt lat="39.9517690" lon="-0.6279470">
        <ele>695.2</ele>
        <time>2019-07-04T18:29:42Z</time>
      </trkpt>
      <trkpt lat="39.9518770" lon="-0.6279040">
        <ele>696.2</ele>
        <time>2019-07-04T18:29:45Z</time>
      </trkpt>
      <trkpt lat="39.9519120" lon="-0.6278870">
        <ele>696.4</ele>
        <time>2019-07-04T18:29:46Z</time>
      </trkpt>
      <trkpt lat="39.9520210" lon="-0.6278340">
        <ele>697.2</ele>
        <time>2019-07-04T18:29:49Z</time>
      </trkpt>
      <trkpt lat="39.9520570" lon="-0.6278150">
        <ele>697.2</ele>
        <time>2019-07-04T18:29:50Z</time>
      </trkpt>
      <trkpt lat="39.9521660" lon="-0.6277680">
        <ele>698.2</ele>
        <time>2019-07-04T18:29:53Z</time>
      </trkpt>
      <trkpt lat="39.9522740" lon="-0.6277210">
        <ele>699.0</ele>
        <time>2019-07-04T18:29:56Z</time>
      </trkpt>
      <trkpt lat="39.9523450" lon="-0.6276870">
        <ele>699.4</ele>
        <time>2019-07-04T18:29:58Z</time>
      </trkpt>
      <trkpt lat="39.9524520" lon="-0.6276360">
        <ele>700.0</ele>
        <time>2019-07-04T18:30:01Z</time>
      </trkpt>
      <trkpt lat="39.9525240" lon="-0.6276010">
        <ele>700.6</ele>
        <time>2019-07-04T18:30:03Z</time>
      </trkpt>
      <trkpt lat="39.9526300" lon="-0.6275510">
        <ele>701.0</ele>
        <time>2019-07-04T18:30:06Z</time>
      </trkpt>
      <trkpt lat="39.9527020" lon="-0.6275180">
        <ele>701.6</ele>
        <time>2019-07-04T18:30:08Z</time>
      </trkpt>
      <trkpt lat="39.9528820" lon="-0.6274420">
        <ele>702.6</ele>
        <time>2019-07-04T18:30:13Z</time>
      </trkpt>
      <trkpt lat="39.9529520" lon="-0.6274060">
        <ele>703.0</ele>
        <time>2019-07-04T18:30:15Z</time>
      </trkpt>
      <trkpt lat="39.9531010" lon="-0.6273460">
        <ele>703.8</ele>
        <time>2019-07-04T18:30:19Z</time>
      </trkpt>
      <trkpt lat="39.9533040" lon="-0.6273070">
        <ele>704.4</ele>
        <time>2019-07-04T18:30:24Z</time>
      </trkpt>
      <trkpt lat="39.9535240" lon="-0.6273050">
        <ele>704.8</ele>
        <time>2019-07-04T18:30:29Z</time>
      </trkpt>
      <trkpt lat="39.9535690" lon="-0.6273160">
        <ele>704.8</ele>
        <time>2019-07-04T18:30:30Z</time>
      </trkpt>
      <trkpt lat="39.9536620" lon="-0.6273450">
        <ele>705.4</ele>
        <time>2019-07-04T18:30:32Z</time>
      </trkpt>
      <trkpt lat="39.9538990" lon="-0.6274400">
        <ele>705.8</ele>
        <time>2019-07-04T18:30:37Z</time>
      </trkpt>
      <trkpt lat="39.9541350" lon="-0.6275370">
        <ele>706.4</ele>
        <time>2019-07-04T18:30:42Z</time>
      </trkpt>
      <trkpt lat="39.9543640" lon="-0.6276340">
        <ele>706.8</ele>
        <time>2019-07-04T18:30:47Z</time>
      </trkpt>
      <trkpt lat="39.9544970" lon="-0.6277060">
        <ele>707.2</ele>
        <time>2019-07-04T18:30:50Z</time>
      </trkpt>
      <trkpt lat="39.9546280" lon="-0.6277640">
        <ele>707.8</ele>
        <time>2019-07-04T18:30:53Z</time>
      </trkpt>
      <trkpt lat="39.9548440" lon="-0.6278650">
        <ele>708.6</ele>
        <time>2019-07-04T18:30:58Z</time>
      </trkpt>
      <trkpt lat="39.9548870" lon="-0.6278830">
        <ele>708.8</ele>
        <time>2019-07-04T18:30:59Z</time>
      </trkpt>
      <trkpt lat="39.9551040" lon="-0.6279800">
        <ele>709.8</ele>
        <time>2019-07-04T18:31:04Z</time>
      </trkpt>
      <trkpt lat="39.9551930" lon="-0.6280220">
        <ele>710.0</ele>
        <time>2019-07-04T18:31:06Z</time>
      </trkpt>
      <trkpt lat="39.9555160" lon="-0.6281780">
        <ele>710.6</ele>
        <time>2019-07-04T18:31:13Z</time>
      </trkpt>
      <trkpt lat="39.9556110" lon="-0.6282250">
        <ele>710.8</ele>
        <time>2019-07-04T18:31:15Z</time>
      </trkpt>
      <trkpt lat="39.9559050" lon="-0.6283750">
        <ele>711.4</ele>
        <time>2019-07-04T18:31:21Z</time>
      </trkpt>
      <trkpt lat="39.9561540" lon="-0.6284920">
        <ele>711.8</ele>
        <time>2019-07-04T18:31:26Z</time>
      </trkpt>
      <trkpt lat="39.9564020" lon="-0.6286090">
        <ele>712.4</ele>
        <time>2019-07-04T18:31:31Z</time>
      </trkpt>
      <trkpt lat="39.9565470" lon="-0.6286880">
        <ele>712.8</ele>
        <time>2019-07-04T18:31:34Z</time>
      </trkpt>
      <trkpt lat="39.9567970" lon="-0.6288190">
        <ele>713.6</ele>
        <time>2019-07-04T18:31:39Z</time>
      </trkpt>
      <trkpt lat="39.9571890" lon="-0.6289920">
        <ele>713.8</ele>
        <time>2019-07-04T18:31:46Z</time>
      </trkpt>
      <trkpt lat="39.9575650" lon="-0.6291080">
        <ele>714.6</ele>
        <time>2019-07-04T18:31:53Z</time>
      </trkpt>
      <trkpt lat="39.9576120" lon="-0.6291120">
        <ele>714.8</ele>
        <time>2019-07-04T18:31:54Z</time>
      </trkpt>
      <trkpt lat="39.9578130" lon="-0.6291530">
        <ele>716.0</ele>
        <time>2019-07-04T18:31:59Z</time>
      </trkpt>
      <trkpt lat="39.9579180" lon="-0.6291780">
        <ele>717.0</ele>
        <time>2019-07-04T18:32:02Z</time>
      </trkpt>
      <trkpt lat="39.9580580" lon="-0.6292100">
        <ele>717.8</ele>
        <time>2019-07-04T18:32:06Z</time>
      </trkpt>
      <trkpt lat="39.9580950" lon="-0.6292180">
        <ele>718.0</ele>
        <time>2019-07-04T18:32:07Z</time>
      </trkpt>
      <trkpt lat="39.9582070" lon="-0.6292410">
        <ele>719.0</ele>
        <time>2019-07-04T18:32:10Z</time>
      </trkpt>
      <trkpt lat="39.9582440" lon="-0.6292470">
        <ele>719.4</ele>
        <time>2019-07-04T18:32:11Z</time>
      </trkpt>
      <trkpt lat="39.9583510" lon="-0.6292810">
        <ele>720.2</ele>
        <time>2019-07-04T18:32:14Z</time>
      </trkpt>
      <trkpt lat="39.9583860" lon="-0.6292920">
        <ele>720.4</ele>
        <time>2019-07-04T18:32:15Z</time>
      </trkpt>
      <trkpt lat="39.9585260" lon="-0.6293260">
        <ele>721.4</ele>
        <time>2019-07-04T18:32:19Z</time>
      </trkpt>
      <trkpt lat="39.9586210" lon="-0.6293670">
        <ele>722.4</ele>
        <time>2019-07-04T18:32:22Z</time>
      </trkpt>
      <trkpt lat="39.9587440" lon="-0.6293900">
        <ele>723.6</ele>
        <time>2019-07-04T18:32:26Z</time>
      </trkpt>
      <trkpt lat="39.9587740" lon="-0.6293920">
        <ele>724.0</ele>
        <time>2019-07-04T18:32:27Z</time>
      </trkpt>
      <trkpt lat="39.9588660" lon="-0.6294170">
        <ele>724.8</ele>
        <time>2019-07-04T18:32:30Z</time>
      </trkpt>
      <trkpt lat="39.9589820" lon="-0.6294630">
        <ele>725.8</ele>
        <time>2019-07-04T18:32:34Z</time>
      </trkpt>
      <trkpt lat="39.9590990" lon="-0.6294970">
        <ele>726.8</ele>
        <time>2019-07-04T18:32:38Z</time>
      </trkpt>
      <trkpt lat="39.9591840" lon="-0.6295070">
        <ele>727.6</ele>
        <time>2019-07-04T18:32:41Z</time>
      </trkpt>
      <trkpt lat="39.9592130" lon="-0.6295120">
        <ele>727.8</ele>
        <time>2019-07-04T18:32:42Z</time>
      </trkpt>
      <trkpt lat="39.9593270" lon="-0.6295390">
        <ele>729.0</ele>
        <time>2019-07-04T18:32:46Z</time>
      </trkpt>
      <trkpt lat="39.9593560" lon="-0.6295470">
        <ele>729.4</ele>
        <time>2019-07-04T18:32:47Z</time>
      </trkpt>
      <trkpt lat="39.9594690" lon="-0.6295860">
        <ele>730.4</ele>
        <time>2019-07-04T18:32:51Z</time>
      </trkpt>
      <trkpt lat="39.9595850" lon="-0.6296150">
        <ele>731.2</ele>
        <time>2019-07-04T18:32:55Z</time>
      </trkpt>
      <trkpt lat="39.9596150" lon="-0.6296260">
        <ele>731.6</ele>
        <time>2019-07-04T18:32:56Z</time>
      </trkpt>
      <trkpt lat="39.9597330" lon="-0.6296610">
        <ele>732.4</ele>
        <time>2019-07-04T18:33:00Z</time>
      </trkpt>
      <trkpt lat="39.9598520" lon="-0.6296910">
        <ele>733.4</ele>
        <time>2019-07-04T18:33:04Z</time>
      </trkpt>
      <trkpt lat="39.9598830" lon="-0.6296980">
        <ele>733.6</ele>
        <time>2019-07-04T18:33:05Z</time>
      </trkpt>
      <trkpt lat="39.9600430" lon="-0.6297490">
        <ele>734.8</ele>
        <time>2019-07-04T18:33:10Z</time>
      </trkpt>
      <trkpt lat="39.9601730" lon="-0.6297910">
        <ele>735.8</ele>
        <time>2019-07-04T18:33:14Z</time>
      </trkpt>
      <trkpt lat="39.9603340" lon="-0.6298550">
        <ele>737.0</ele>
        <time>2019-07-04T18:33:19Z</time>
      </trkpt>
      <trkpt lat="39.9605010" lon="-0.6299160">
        <ele>738.4</ele>
        <time>2019-07-04T18:33:24Z</time>
      </trkpt>
      <trkpt lat="39.9607040" lon="-0.6299910">
        <ele>739.2</ele>
        <time>2019-07-04T18:33:30Z</time>
      </trkpt>
      <trkpt lat="39.9608290" lon="-0.6300680">
        <ele>740.0</ele>
        <time>2019-07-04T18:33:34Z</time>
      </trkpt>
      <trkpt lat="39.9608590" lon="-0.6300920">
        <ele>740.2</ele>
        <time>2019-07-04T18:33:35Z</time>
      </trkpt>
      <trkpt lat="39.9610110" lon="-0.6302090">
        <ele>741.4</ele>
        <time>2019-07-04T18:33:40Z</time>
      </trkpt>
      <trkpt lat="39.9611290" lon="-0.6302900">
        <ele>742.2</ele>
        <time>2019-07-04T18:33:44Z</time>
      </trkpt>
      <trkpt lat="39.9611570" lon="-0.6303130">
        <ele>742.4</ele>
        <time>2019-07-04T18:33:45Z</time>
      </trkpt>
      <trkpt lat="39.9612990" lon="-0.6304120">
        <ele>743.4</ele>
        <time>2019-07-04T18:33:50Z</time>
      </trkpt>
      <trkpt lat="39.9613890" lon="-0.6304560">
        <ele>744.4</ele>
        <time>2019-07-04T18:33:53Z</time>
      </trkpt>
      <trkpt lat="39.9614210" lon="-0.6304680">
        <ele>744.8</ele>
        <time>2019-07-04T18:33:54Z</time>
      </trkpt>
      <trkpt lat="39.9615660" lon="-0.6305810">
        <ele>745.8</ele>
        <time>2019-07-04T18:33:59Z</time>
      </trkpt>
      <trkpt lat="39.9617040" lon="-0.6306980">
        <ele>747.0</ele>
        <time>2019-07-04T18:34:04Z</time>
      </trkpt>
      <trkpt lat="39.9618190" lon="-0.6307870">
        <ele>748.0</ele>
        <time>2019-07-04T18:34:08Z</time>
      </trkpt>
      <trkpt lat="39.9618470" lon="-0.6308120">
        <ele>748.2</ele>
        <time>2019-07-04T18:34:09Z</time>
      </trkpt>
      <trkpt lat="39.9619640" lon="-0.6308980">
        <ele>749.0</ele>
        <time>2019-07-04T18:34:13Z</time>
      </trkpt>
      <trkpt lat="39.9620530" lon="-0.6309510">
        <ele>749.8</ele>
        <time>2019-07-04T18:34:16Z</time>
      </trkpt>
      <trkpt lat="39.9620820" lon="-0.6309720">
        <ele>750.0</ele>
        <time>2019-07-04T18:34:17Z</time>
      </trkpt>
      <trkpt lat="39.9622560" lon="-0.6311030">
        <ele>751.2</ele>
        <time>2019-07-04T18:34:23Z</time>
      </trkpt>
      <trkpt lat="39.9623710" lon="-0.6311870">
        <ele>752.6</ele>
        <time>2019-07-04T18:34:27Z</time>
      </trkpt>
      <trkpt lat="39.9625170" lon="-0.6312960">
        <ele>753.4</ele>
        <time>2019-07-04T18:34:32Z</time>
      </trkpt>
      <trkpt lat="39.9626660" lon="-0.6314070">
        <ele>754.6</ele>
        <time>2019-07-04T18:34:37Z</time>
      </trkpt>
      <trkpt lat="39.9627550" lon="-0.6314730">
        <ele>755.2</ele>
        <time>2019-07-04T18:34:40Z</time>
      </trkpt>
      <trkpt lat="39.9628490" lon="-0.6315280">
        <ele>755.6</ele>
        <time>2019-07-04T18:34:43Z</time>
      </trkpt>
      <trkpt lat="39.9629840" lon="-0.6315980">
        <ele>756.2</ele>
        <time>2019-07-04T18:34:47Z</time>
      </trkpt>
      <trkpt lat="39.9630520" lon="-0.6316310">
        <ele>756.6</ele>
        <time>2019-07-04T18:34:49Z</time>
      </trkpt>
      <trkpt lat="39.9632280" lon="-0.6317100">
        <ele>757.4</ele>
        <time>2019-07-04T18:34:54Z</time>
      </trkpt>
      <trkpt lat="39.9632640" lon="-0.6317250">
        <ele>757.6</ele>
        <time>2019-07-04T18:34:55Z</time>
      </trkpt>
      <trkpt lat="39.9634060" lon="-0.6317940">
        <ele>758.0</ele>
        <time>2019-07-04T18:34:59Z</time>
      </trkpt>
      <trkpt lat="39.9635890" lon="-0.6318730">
        <ele>758.6</ele>
        <time>2019-07-04T18:35:04Z</time>
      </trkpt>
      <trkpt lat="39.9637730" lon="-0.6319590">
        <ele>759.6</ele>
        <time>2019-07-04T18:35:09Z</time>
      </trkpt>
      <trkpt lat="39.9640110" lon="-0.6320600">
        <ele>760.6</ele>
        <time>2019-07-04T18:35:15Z</time>
      </trkpt>
      <trkpt lat="39.9641270" lon="-0.6321230">
        <ele>760.8</ele>
        <time>2019-07-04T18:35:18Z</time>
      </trkpt>
      <trkpt lat="39.9643150" lon="-0.6322230">
        <ele>761.8</ele>
        <time>2019-07-04T18:35:23Z</time>
      </trkpt>
      <trkpt lat="39.9643520" lon="-0.6322460">
        <ele>762.2</ele>
        <time>2019-07-04T18:35:24Z</time>
      </trkpt>
      <trkpt lat="39.9644600" lon="-0.6323160">
        <ele>763.0</ele>
        <time>2019-07-04T18:35:27Z</time>
      </trkpt>
      <trkpt lat="39.9645930" lon="-0.6324270">
        <ele>764.2</ele>
        <time>2019-07-04T18:35:31Z</time>
      </trkpt>
      <trkpt lat="39.9646560" lon="-0.6324860">
        <ele>764.8</ele>
        <time>2019-07-04T18:35:33Z</time>
      </trkpt>
      <trkpt lat="39.9647180" lon="-0.6325440">
        <ele>765.2</ele>
        <time>2019-07-04T18:35:35Z</time>
      </trkpt>
      <trkpt lat="39.9648410" lon="-0.6326480">
        <ele>766.4</ele>
        <time>2019-07-04T18:35:39Z</time>
      </trkpt>
      <trkpt lat="39.9649290" lon="-0.6327260">
        <ele>767.2</ele>
        <time>2019-07-04T18:35:42Z</time>
      </trkpt>
      <trkpt lat="39.9649580" lon="-0.6327550">
        <ele>767.8</ele>
        <time>2019-07-04T18:35:43Z</time>
      </trkpt>
      <trkpt lat="39.9650670" lon="-0.6328710">
        <ele>768.6</ele>
        <time>2019-07-04T18:35:47Z</time>
      </trkpt>
      <trkpt lat="39.9651480" lon="-0.6329590">
        <ele>769.2</ele>
        <time>2019-07-04T18:35:50Z</time>
      </trkpt>
      <trkpt lat="39.9651980" lon="-0.6330200">
        <ele>769.8</ele>
        <time>2019-07-04T18:35:52Z</time>
      </trkpt>
      <trkpt lat="39.9653320" lon="-0.6331670">
        <ele>771.0</ele>
        <time>2019-07-04T18:35:57Z</time>
      </trkpt>
      <trkpt lat="39.9654120" lon="-0.6332540">
        <ele>772.2</ele>
        <time>2019-07-04T18:36:00Z</time>
      </trkpt>
      <trkpt lat="39.9654380" lon="-0.6332840">
        <ele>772.2</ele>
        <time>2019-07-04T18:36:01Z</time>
      </trkpt>
      <trkpt lat="39.9655430" lon="-0.6334070">
        <ele>773.2</ele>
        <time>2019-07-04T18:36:05Z</time>
      </trkpt>
      <trkpt lat="39.9656490" lon="-0.6335250">
        <ele>774.4</ele>
        <time>2019-07-04T18:36:09Z</time>
      </trkpt>
      <trkpt lat="39.9656770" lon="-0.6335510">
        <ele>774.8</ele>
        <time>2019-07-04T18:36:10Z</time>
      </trkpt>
      <trkpt lat="39.9657570" lon="-0.6336320">
        <ele>775.6</ele>
        <time>2019-07-04T18:36:13Z</time>
      </trkpt>
      <trkpt lat="39.9658330" lon="-0.6337260">
        <ele>776.6</ele>
        <time>2019-07-04T18:36:16Z</time>
      </trkpt>
      <trkpt lat="39.9658590" lon="-0.6337590">
        <ele>776.8</ele>
        <time>2019-07-04T18:36:17Z</time>
      </trkpt>
      <trkpt lat="39.9659660" lon="-0.6338880">
        <ele>777.6</ele>
        <time>2019-07-04T18:36:21Z</time>
      </trkpt>
      <trkpt lat="39.9661110" lon="-0.6340490">
        <ele>778.8</ele>
        <time>2019-07-04T18:36:26Z</time>
      </trkpt>
      <trkpt lat="39.9661410" lon="-0.6340800">
        <ele>778.8</ele>
        <time>2019-07-04T18:36:27Z</time>
      </trkpt>
      <trkpt lat="39.9663540" lon="-0.6343060">
        <ele>779.6</ele>
        <time>2019-07-04T18:36:34Z</time>
      </trkpt>
      <trkpt lat="39.9666620" lon="-0.6346620">
        <ele>780.4</ele>
        <time>2019-07-04T18:36:43Z</time>
      </trkpt>
      <trkpt lat="39.9668660" lon="-0.6348990">
        <ele>780.4</ele>
        <time>2019-07-04T18:36:48Z</time>
      </trkpt>
      <trkpt lat="39.9669000" lon="-0.6349580">
        <ele>780.2</ele>
        <time>2019-07-04T18:36:49Z</time>
      </trkpt>
      <trkpt lat="39.9669830" lon="-0.6351570">
        <ele>780.2</ele>
        <time>2019-07-04T18:36:52Z</time>
      </trkpt>
      <trkpt lat="39.9670150" lon="-0.6352920">
        <ele>780.6</ele>
        <time>2019-07-04T18:36:54Z</time>
      </trkpt>
      <trkpt lat="39.9670290" lon="-0.6354300">
        <ele>781.0</ele>
        <time>2019-07-04T18:36:56Z</time>
      </trkpt>
      <trkpt lat="39.9670110" lon="-0.6355710">
        <ele>781.2</ele>
        <time>2019-07-04T18:36:58Z</time>
      </trkpt>
      <trkpt lat="39.9669340" lon="-0.6357590">
        <ele>781.4</ele>
        <time>2019-07-04T18:37:01Z</time>
      </trkpt>
      <trkpt lat="39.9669070" lon="-0.6358110">
        <ele>781.6</ele>
        <time>2019-07-04T18:37:02Z</time>
      </trkpt>
      <trkpt lat="39.9667670" lon="-0.6360270">
        <ele>782.8</ele>
        <time>2019-07-04T18:37:07Z</time>
      </trkpt>
      <trkpt lat="39.9667400" lon="-0.6360680">
        <ele>783.2</ele>
        <time>2019-07-04T18:37:08Z</time>
      </trkpt>
      <trkpt lat="39.9666600" lon="-0.6361860">
        <ele>784.2</ele>
        <time>2019-07-04T18:37:11Z</time>
      </trkpt>
      <trkpt lat="39.9665380" lon="-0.6363720">
        <ele>785.0</ele>
        <time>2019-07-04T18:37:16Z</time>
      </trkpt>
      <trkpt lat="39.9665120" lon="-0.6364080">
        <ele>785.2</ele>
        <time>2019-07-04T18:37:17Z</time>
      </trkpt>
      <trkpt lat="39.9663860" lon="-0.6365820">
        <ele>785.8</ele>
        <time>2019-07-04T18:37:22Z</time>
      </trkpt>
      <trkpt lat="39.9663590" lon="-0.6366150">
        <ele>786.0</ele>
        <time>2019-07-04T18:37:23Z</time>
      </trkpt>
      <trkpt lat="39.9662340" lon="-0.6367890">
        <ele>787.2</ele>
        <time>2019-07-04T18:37:28Z</time>
      </trkpt>
      <trkpt lat="39.9660990" lon="-0.6370090">
        <ele>788.2</ele>
        <time>2019-07-04T18:37:34Z</time>
      </trkpt>
      <trkpt lat="39.9660800" lon="-0.6370400">
        <ele>788.4</ele>
        <time>2019-07-04T18:37:35Z</time>
      </trkpt>
      <trkpt lat="39.9660590" lon="-0.6370700">
        <ele>788.8</ele>
        <time>2019-07-04T18:37:38Z</time>
      </trkpt>
      <trkpt lat="39.9660380" lon="-0.6371090">
        <ele>788.8</ele>
        <time>2019-07-04T18:38:36Z</time>
      </trkpt>
      <trkpt lat="39.9660260" lon="-0.6371290">
        <ele>789.0</ele>
        <time>2019-07-04T18:38:37Z</time>
      </trkpt>
      <trkpt lat="39.9660120" lon="-0.6371540">
        <ele>789.2</ele>
        <time>2019-07-04T18:38:38Z</time>
      </trkpt>
      <trkpt lat="39.9659790" lon="-0.6372100">
        <ele>789.4</ele>
        <time>2019-07-04T18:38:40Z</time>
      </trkpt>
      <trkpt lat="39.9659200" lon="-0.6372990">
        <ele>790.0</ele>
        <time>2019-07-04T18:38:43Z</time>
      </trkpt>
      <trkpt lat="39.9658810" lon="-0.6373660">
        <ele>790.6</ele>
        <time>2019-07-04T18:38:45Z</time>
      </trkpt>
      <trkpt lat="39.9657790" lon="-0.6375390">
        <ele>791.0</ele>
        <time>2019-07-04T18:38:50Z</time>
      </trkpt>
      <trkpt lat="39.9657190" lon="-0.6376440">
        <ele>791.4</ele>
        <time>2019-07-04T18:38:53Z</time>
      </trkpt>
      <trkpt lat="39.9656420" lon="-0.6377780">
        <ele>792.2</ele>
        <time>2019-07-04T18:38:57Z</time>
      </trkpt>
      <trkpt lat="39.9655650" lon="-0.6379140">
        <ele>793.2</ele>
        <time>2019-07-04T18:39:01Z</time>
      </trkpt>
      <trkpt lat="39.9655460" lon="-0.6379510">
        <ele>793.4</ele>
        <time>2019-07-04T18:39:02Z</time>
      </trkpt>
      <trkpt lat="39.9654680" lon="-0.6381350">
        <ele>794.2</ele>
        <time>2019-07-04T18:39:07Z</time>
      </trkpt>
      <trkpt lat="39.9654490" lon="-0.6381700">
        <ele>794.4</ele>
        <time>2019-07-04T18:39:08Z</time>
      </trkpt>
      <trkpt lat="39.9653550" lon="-0.6383580">
        <ele>795.2</ele>
        <time>2019-07-04T18:39:13Z</time>
      </trkpt>
      <trkpt lat="39.9653340" lon="-0.6383960">
        <ele>795.4</ele>
        <time>2019-07-04T18:39:14Z</time>
      </trkpt>
      <trkpt lat="39.9652910" lon="-0.6384730">
        <ele>795.8</ele>
        <time>2019-07-04T18:39:16Z</time>
      </trkpt>
      <trkpt lat="39.9651870" lon="-0.6386730">
        <ele>796.6</ele>
        <time>2019-07-04T18:39:21Z</time>
      </trkpt>
      <trkpt lat="39.9650890" lon="-0.6388760">
        <ele>797.8</ele>
        <time>2019-07-04T18:39:26Z</time>
      </trkpt>
      <trkpt lat="39.9650250" lon="-0.6389890">
        <ele>798.6</ele>
        <time>2019-07-04T18:39:29Z</time>
      </trkpt>
      <trkpt lat="39.9649090" lon="-0.6392370">
        <ele>800.0</ele>
        <time>2019-07-04T18:39:35Z</time>
      </trkpt>
      <trkpt lat="39.9648920" lon="-0.6392820">
        <ele>800.4</ele>
        <time>2019-07-04T18:39:36Z</time>
      </trkpt>
      <trkpt lat="39.9648490" lon="-0.6394220">
        <ele>801.0</ele>
        <time>2019-07-04T18:39:39Z</time>
      </trkpt>
      <trkpt lat="39.9648090" lon="-0.6396090">
        <ele>801.4</ele>
        <time>2019-07-04T18:39:43Z</time>
      </trkpt>
      <trkpt lat="39.9647920" lon="-0.6397910">
        <ele>802.0</ele>
        <time>2019-07-04T18:39:47Z</time>
      </trkpt>
      <trkpt lat="39.9647830" lon="-0.6398760">
        <ele>802.6</ele>
        <time>2019-07-04T18:39:49Z</time>
      </trkpt>
      <trkpt lat="39.9647790" lon="-0.6400000">
        <ele>803.2</ele>
        <time>2019-07-04T18:39:52Z</time>
      </trkpt>
      <trkpt lat="39.9647920" lon="-0.6401670">
        <ele>804.0</ele>
        <time>2019-07-04T18:39:56Z</time>
      </trkpt>
      <trkpt lat="39.9647930" lon="-0.6402080">
        <ele>804.0</ele>
        <time>2019-07-04T18:39:57Z</time>
      </trkpt>
      <trkpt lat="39.9647900" lon="-0.6404610">
        <ele>805.0</ele>
        <time>2019-07-04T18:40:03Z</time>
      </trkpt>
      <trkpt lat="39.9647910" lon="-0.6405030">
        <ele>805.4</ele>
        <time>2019-07-04T18:40:04Z</time>
      </trkpt>
      <trkpt lat="39.9648050" lon="-0.6406660">
        <ele>806.2</ele>
        <time>2019-07-04T18:40:08Z</time>
      </trkpt>
      <trkpt lat="39.9648270" lon="-0.6407870">
        <ele>806.8</ele>
        <time>2019-07-04T18:40:11Z</time>
      </trkpt>
      <trkpt lat="39.9649000" lon="-0.6408560">
        <ele>807.4</ele>
        <time>2019-07-04T18:40:14Z</time>
      </trkpt>
      <trkpt lat="39.9649570" lon="-0.6407890">
        <ele>808.6</ele>
        <time>2019-07-04T18:40:17Z</time>
      </trkpt>
      <trkpt lat="39.9649760" lon="-0.6407130">
        <ele>809.2</ele>
        <time>2019-07-04T18:40:19Z</time>
      </trkpt>
      <trkpt lat="39.9649910" lon="-0.6406300">
        <ele>809.4</ele>
        <time>2019-07-04T18:40:21Z</time>
      </trkpt>
      <trkpt lat="39.9650010" lon="-0.6405380">
        <ele>809.8</ele>
        <time>2019-07-04T18:40:23Z</time>
      </trkpt>
      <trkpt lat="39.9650150" lon="-0.6403450">
        <ele>810.4</ele>
        <time>2019-07-04T18:40:27Z</time>
      </trkpt>
      <trkpt lat="39.9650300" lon="-0.6402450">
        <ele>810.6</ele>
        <time>2019-07-04T18:40:29Z</time>
      </trkpt>
      <trkpt lat="39.9650840" lon="-0.6399880">
        <ele>811.6</ele>
        <time>2019-07-04T18:40:34Z</time>
      </trkpt>
      <trkpt lat="39.9651420" lon="-0.6398450">
        <ele>812.0</ele>
        <time>2019-07-04T18:40:37Z</time>
      </trkpt>
      <trkpt lat="39.9652620" lon="-0.6397030">
        <ele>812.4</ele>
        <time>2019-07-04T18:40:41Z</time>
      </trkpt>
      <trkpt lat="39.9653340" lon="-0.6396530">
        <ele>813.2</ele>
        <time>2019-07-04T18:40:43Z</time>
      </trkpt>
      <trkpt lat="39.9654430" lon="-0.6396130">
        <ele>813.6</ele>
        <time>2019-07-04T18:40:46Z</time>
      </trkpt>
      <trkpt lat="39.9655850" lon="-0.6395910">
        <ele>814.4</ele>
        <time>2019-07-04T18:40:50Z</time>
      </trkpt>
      <trkpt lat="39.9656570" lon="-0.6395820">
        <ele>814.6</ele>
        <time>2019-07-04T18:40:52Z</time>
      </trkpt>
      <trkpt lat="39.9658300" lon="-0.6395720">
        <ele>815.8</ele>
        <time>2019-07-04T18:40:57Z</time>
      </trkpt>
      <trkpt lat="39.9658650" lon="-0.6395730">
        <ele>816.0</ele>
        <time>2019-07-04T18:40:58Z</time>
      </trkpt>
      <trkpt lat="39.9659980" lon="-0.6395990">
        <ele>816.8</ele>
        <time>2019-07-04T18:41:02Z</time>
      </trkpt>
      <trkpt lat="39.9660640" lon="-0.6396060">
        <ele>817.0</ele>
        <time>2019-07-04T18:41:04Z</time>
      </trkpt>
      <trkpt lat="39.9661600" lon="-0.6396170">
        <ele>818.0</ele>
        <time>2019-07-04T18:41:07Z</time>
      </trkpt>
      <trkpt lat="39.9662630" lon="-0.6396450">
        <ele>818.4</ele>
        <time>2019-07-04T18:41:10Z</time>
      </trkpt>
      <trkpt lat="39.9664390" lon="-0.6397080">
        <ele>818.8</ele>
        <time>2019-07-04T18:41:15Z</time>
      </trkpt>
      <trkpt lat="39.9665050" lon="-0.6397340">
        <ele>819.2</ele>
        <time>2019-07-04T18:41:17Z</time>
      </trkpt>
      <trkpt lat="39.9666380" lon="-0.6397770">
        <ele>820.4</ele>
        <time>2019-07-04T18:41:21Z</time>
      </trkpt>
      <trkpt lat="39.9667690" lon="-0.6398140">
        <ele>821.2</ele>
        <time>2019-07-04T18:41:25Z</time>
      </trkpt>
      <trkpt lat="39.9668030" lon="-0.6398230">
        <ele>821.4</ele>
        <time>2019-07-04T18:41:26Z</time>
      </trkpt>
      <trkpt lat="39.9669800" lon="-0.6398440">
        <ele>822.6</ele>
        <time>2019-07-04T18:41:31Z</time>
      </trkpt>
      <trkpt lat="39.9670460" lon="-0.6398390">
        <ele>822.8</ele>
        <time>2019-07-04T18:41:33Z</time>
      </trkpt>
      <trkpt lat="39.9671790" lon="-0.6397790">
        <ele>823.6</ele>
        <time>2019-07-04T18:41:37Z</time>
      </trkpt>
      <trkpt lat="39.9672400" lon="-0.6397310">
        <ele>824.0</ele>
        <time>2019-07-04T18:41:39Z</time>
      </trkpt>
      <trkpt lat="39.9673670" lon="-0.6395670">
        <ele>824.8</ele>
        <time>2019-07-04T18:41:44Z</time>
      </trkpt>
      <trkpt lat="39.9674130" lon="-0.6394990">
        <ele>825.2</ele>
        <time>2019-07-04T18:41:46Z</time>
      </trkpt>
      <trkpt lat="39.9674930" lon="-0.6393520">
        <ele>825.8</ele>
        <time>2019-07-04T18:41:50Z</time>
      </trkpt>
      <trkpt lat="39.9675370" lon="-0.6392800">
        <ele>826.2</ele>
        <time>2019-07-04T18:41:52Z</time>
      </trkpt>
      <trkpt lat="39.9676320" lon="-0.6391280">
        <ele>826.8</ele>
        <time>2019-07-04T18:41:56Z</time>
      </trkpt>
      <trkpt lat="39.9677230" lon="-0.6390290">
        <ele>827.6</ele>
        <time>2019-07-04T18:41:59Z</time>
      </trkpt>
      <trkpt lat="39.9677960" lon="-0.6389810">
        <ele>828.0</ele>
        <time>2019-07-04T18:42:01Z</time>
      </trkpt>
      <trkpt lat="39.9678700" lon="-0.6389470">
        <ele>828.6</ele>
        <time>2019-07-04T18:42:03Z</time>
      </trkpt>
      <trkpt lat="39.9679420" lon="-0.6389150">
        <ele>828.8</ele>
        <time>2019-07-04T18:42:05Z</time>
      </trkpt>
      <trkpt lat="39.9680110" lon="-0.6388740">
        <ele>829.2</ele>
        <time>2019-07-04T18:42:07Z</time>
      </trkpt>
      <trkpt lat="39.9681590" lon="-0.6387980">
        <ele>829.8</ele>
        <time>2019-07-04T18:42:11Z</time>
      </trkpt>
      <trkpt lat="39.9681980" lon="-0.6387870">
        <ele>830.0</ele>
        <time>2019-07-04T18:42:12Z</time>
      </trkpt>
      <trkpt lat="39.9684220" lon="-0.6387210">
        <ele>831.0</ele>
        <time>2019-07-04T18:42:18Z</time>
      </trkpt>
      <trkpt lat="39.9684600" lon="-0.6387080">
        <ele>831.2</ele>
        <time>2019-07-04T18:42:19Z</time>
      </trkpt>
      <trkpt lat="39.9685680" lon="-0.6386630">
        <ele>832.2</ele>
        <time>2019-07-04T18:42:22Z</time>
      </trkpt>
      <trkpt lat="39.9687100" lon="-0.6386210">
        <ele>833.0</ele>
        <time>2019-07-04T18:42:26Z</time>
      </trkpt>
      <trkpt lat="39.9689230" lon="-0.6386500">
        <ele>834.2</ele>
        <time>2019-07-04T18:42:32Z</time>
      </trkpt>
      <trkpt lat="39.9690610" lon="-0.6388130">
        <ele>835.2</ele>
        <time>2019-07-04T18:42:37Z</time>
      </trkpt>
      <trkpt lat="39.9691630" lon="-0.6390170">
        <ele>836.0</ele>
        <time>2019-07-04T18:42:42Z</time>
      </trkpt>
      <trkpt lat="39.9691710" lon="-0.6391120">
        <ele>836.2</ele>
        <time>2019-07-04T18:42:44Z</time>
      </trkpt>
      <trkpt lat="39.9691650" lon="-0.6393140">
        <ele>837.0</ele>
        <time>2019-07-04T18:42:48Z</time>
      </trkpt>
      <trkpt lat="39.9691640" lon="-0.6393630">
        <ele>837.2</ele>
        <time>2019-07-04T18:42:49Z</time>
      </trkpt>
      <trkpt lat="39.9691560" lon="-0.6395590">
        <ele>838.4</ele>
        <time>2019-07-04T18:42:53Z</time>
      </trkpt>
      <trkpt lat="39.9691520" lon="-0.6396570">
        <ele>838.6</ele>
        <time>2019-07-04T18:42:55Z</time>
      </trkpt>
      <trkpt lat="39.9691510" lon="-0.6398460">
        <ele>839.2</ele>
        <time>2019-07-04T18:42:59Z</time>
      </trkpt>
      <trkpt lat="39.9691460" lon="-0.6401160">
        <ele>840.4</ele>
        <time>2019-07-04T18:43:05Z</time>
      </trkpt>
      <trkpt lat="39.9691400" lon="-0.6403130">
        <ele>841.4</ele>
        <time>2019-07-04T18:43:10Z</time>
      </trkpt>
      <trkpt lat="39.9691410" lon="-0.6404350">
        <ele>841.6</ele>
        <time>2019-07-04T18:43:13Z</time>
      </trkpt>
      <trkpt lat="39.9691470" lon="-0.6406520">
        <ele>842.4</ele>
        <time>2019-07-04T18:43:18Z</time>
      </trkpt>
      <trkpt lat="39.9691540" lon="-0.6407010">
        <ele>842.6</ele>
        <time>2019-07-04T18:43:19Z</time>
      </trkpt>
      <trkpt lat="39.9692080" lon="-0.6408780">
        <ele>843.4</ele>
        <time>2019-07-04T18:43:23Z</time>
      </trkpt>
      <trkpt lat="39.9692330" lon="-0.6409160">
        <ele>843.8</ele>
        <time>2019-07-04T18:43:24Z</time>
      </trkpt>
      <trkpt lat="39.9692630" lon="-0.6409520">
        <ele>844.0</ele>
        <time>2019-07-04T18:43:25Z</time>
      </trkpt>
      <trkpt lat="39.9693430" lon="-0.6409920">
        <ele>844.4</ele>
        <time>2019-07-04T18:43:27Z</time>
      </trkpt>
      <trkpt lat="39.9693860" lon="-0.6410000">
        <ele>844.8</ele>
        <time>2019-07-04T18:43:28Z</time>
      </trkpt>
      <trkpt lat="39.9694290" lon="-0.6410040">
        <ele>844.8</ele>
        <time>2019-07-04T18:43:29Z</time>
      </trkpt>
      <trkpt lat="39.9697020" lon="-0.6410090">
        <ele>845.4</ele>
        <time>2019-07-04T18:43:35Z</time>
      </trkpt>
      <trkpt lat="39.9697500" lon="-0.6410090">
        <ele>845.6</ele>
        <time>2019-07-04T18:43:36Z</time>
      </trkpt>
      <trkpt lat="39.9699890" lon="-0.6410620">
        <ele>846.0</ele>
        <time>2019-07-04T18:43:41Z</time>
      </trkpt>
      <trkpt lat="39.9702190" lon="-0.6411890">
        <ele>846.6</ele>
        <time>2019-07-04T18:43:46Z</time>
      </trkpt>
      <trkpt lat="39.9703030" lon="-0.6412540">
        <ele>846.8</ele>
        <time>2019-07-04T18:43:48Z</time>
      </trkpt>
      <trkpt lat="39.9704190" lon="-0.6413540">
        <ele>847.0</ele>
        <time>2019-07-04T18:43:51Z</time>
      </trkpt>
      <trkpt lat="39.9705680" lon="-0.6414950">
        <ele>847.2</ele>
        <time>2019-07-04T18:43:55Z</time>
      </trkpt>
      <trkpt lat="39.9706060" lon="-0.6415290">
        <ele>847.4</ele>
        <time>2019-07-04T18:43:56Z</time>
      </trkpt>
      <trkpt lat="39.9707820" lon="-0.6417050">
        <ele>848.2</ele>
        <time>2019-07-04T18:44:01Z</time>
      </trkpt>
      <trkpt lat="39.9708410" lon="-0.6417940">
        <ele>848.4</ele>
        <time>2019-07-04T18:44:03Z</time>
      </trkpt>
      <trkpt lat="39.9709580" lon="-0.6419750">
        <ele>849.4</ele>
        <time>2019-07-04T18:44:07Z</time>
      </trkpt>
      <trkpt lat="39.9709830" lon="-0.6420250">
        <ele>849.6</ele>
        <time>2019-07-04T18:44:08Z</time>
      </trkpt>
      <trkpt lat="39.9710040" lon="-0.6420780">
        <ele>849.8</ele>
        <time>2019-07-04T18:44:09Z</time>
      </trkpt>
      <trkpt lat="39.9710220" lon="-0.6421290">
        <ele>850.0</ele>
        <time>2019-07-04T18:44:10Z</time>
      </trkpt>
      <trkpt lat="39.9710700" lon="-0.6422740">
        <ele>850.6</ele>
        <time>2019-07-04T18:44:13Z</time>
      </trkpt>
      <trkpt lat="39.9710950" lon="-0.6424130">
        <ele>851.0</ele>
        <time>2019-07-04T18:44:16Z</time>
      </trkpt>
      <trkpt lat="39.9711060" lon="-0.6425010">
        <ele>851.8</ele>
        <time>2019-07-04T18:44:18Z</time>
      </trkpt>
      <trkpt lat="39.9711380" lon="-0.6426710">
        <ele>852.6</ele>
        <time>2019-07-04T18:44:22Z</time>
      </trkpt>
      <trkpt lat="39.9711630" lon="-0.6428420">
        <ele>853.8</ele>
        <time>2019-07-04T18:44:26Z</time>
      </trkpt>
      <trkpt lat="39.9711830" lon="-0.6430200">
        <ele>854.8</ele>
        <time>2019-07-04T18:44:30Z</time>
      </trkpt>
      <trkpt lat="39.9711870" lon="-0.6430650">
        <ele>855.0</ele>
        <time>2019-07-04T18:44:31Z</time>
      </trkpt>
      <trkpt lat="39.9712100" lon="-0.6432330">
        <ele>856.0</ele>
        <time>2019-07-04T18:44:35Z</time>
      </trkpt>
      <trkpt lat="39.9712490" lon="-0.6433960">
        <ele>856.8</ele>
        <time>2019-07-04T18:44:39Z</time>
      </trkpt>
      <trkpt lat="39.9712760" lon="-0.6434720">
        <ele>856.8</ele>
        <time>2019-07-04T18:44:41Z</time>
      </trkpt>
      <trkpt lat="39.9713560" lon="-0.6436650">
        <ele>858.0</ele>
        <time>2019-07-04T18:44:46Z</time>
      </trkpt>
      <trkpt lat="39.9713700" lon="-0.6437050">
        <ele>858.0</ele>
        <time>2019-07-04T18:44:47Z</time>
      </trkpt>
      <trkpt lat="39.9714360" lon="-0.6438590">
        <ele>859.2</ele>
        <time>2019-07-04T18:44:51Z</time>
      </trkpt>
      <trkpt lat="39.9714850" lon="-0.6439740">
        <ele>859.8</ele>
        <time>2019-07-04T18:44:54Z</time>
      </trkpt>
      <trkpt lat="39.9715080" lon="-0.6440560">
        <ele>860.2</ele>
        <time>2019-07-04T18:44:56Z</time>
      </trkpt>
      <trkpt lat="39.9715720" lon="-0.6442050">
        <ele>861.2</ele>
        <time>2019-07-04T18:45:00Z</time>
      </trkpt>
      <trkpt lat="39.9716670" lon="-0.6444050">
        <ele>862.2</ele>
        <time>2019-07-04T18:45:05Z</time>
      </trkpt>
      <trkpt lat="39.9717190" lon="-0.6445400">
        <ele>863.0</ele>
        <time>2019-07-04T18:45:08Z</time>
      </trkpt>
      <trkpt lat="39.9717540" lon="-0.6446290">
        <ele>863.2</ele>
        <time>2019-07-04T18:45:10Z</time>
      </trkpt>
      <trkpt lat="39.9718440" lon="-0.6448530">
        <ele>864.4</ele>
        <time>2019-07-04T18:45:15Z</time>
      </trkpt>
      <trkpt lat="39.9718840" lon="-0.6449380">
        <ele>864.4</ele>
        <time>2019-07-04T18:45:17Z</time>
      </trkpt>
      <trkpt lat="39.9719620" lon="-0.6451090">
        <ele>865.6</ele>
        <time>2019-07-04T18:45:21Z</time>
      </trkpt>
      <trkpt lat="39.9720210" lon="-0.6452360">
        <ele>866.6</ele>
        <time>2019-07-04T18:45:24Z</time>
      </trkpt>
      <trkpt lat="39.9720400" lon="-0.6452770">
        <ele>866.8</ele>
        <time>2019-07-04T18:45:25Z</time>
      </trkpt>
      <trkpt lat="39.9721440" lon="-0.6454790">
        <ele>867.6</ele>
        <time>2019-07-04T18:45:30Z</time>
      </trkpt>
      <trkpt lat="39.9722000" lon="-0.6455520">
        <ele>868.0</ele>
        <time>2019-07-04T18:45:32Z</time>
      </trkpt>
      <trkpt lat="39.9723710" lon="-0.6456870">
        <ele>868.8</ele>
        <time>2019-07-04T18:45:37Z</time>
      </trkpt>
      <trkpt lat="39.9724440" lon="-0.6457340">
        <ele>869.2</ele>
        <time>2019-07-04T18:45:39Z</time>
      </trkpt>
      <trkpt lat="39.9725950" lon="-0.6458260">
        <ele>870.0</ele>
        <time>2019-07-04T18:45:43Z</time>
      </trkpt>
      <trkpt lat="39.9727360" lon="-0.6459160">
        <ele>870.8</ele>
        <time>2019-07-04T18:45:47Z</time>
      </trkpt>
      <trkpt lat="39.9727710" lon="-0.6459380">
        <ele>871.0</ele>
        <time>2019-07-04T18:45:48Z</time>
      </trkpt>
      <trkpt lat="39.9730600" lon="-0.6460850">
        <ele>871.8</ele>
        <time>2019-07-04T18:45:56Z</time>
      </trkpt>
      <trkpt lat="39.9730980" lon="-0.6460940">
        <ele>872.0</ele>
        <time>2019-07-04T18:45:57Z</time>
      </trkpt>
      <trkpt lat="39.9733700" lon="-0.6461780">
        <ele>873.0</ele>
        <time>2019-07-04T18:46:04Z</time>
      </trkpt>
      <trkpt lat="39.9736030" lon="-0.6462470">
        <ele>873.6</ele>
        <time>2019-07-04T18:46:10Z</time>
      </trkpt>
      <trkpt lat="39.9736800" lon="-0.6462570">
        <ele>874.0</ele>
        <time>2019-07-04T18:46:12Z</time>
      </trkpt>
      <trkpt lat="39.9738780" lon="-0.6462970">
        <ele>875.0</ele>
        <time>2019-07-04T18:46:17Z</time>
      </trkpt>
      <trkpt lat="39.9739940" lon="-0.6463260">
        <ele>875.6</ele>
        <time>2019-07-04T18:46:20Z</time>
      </trkpt>
      <trkpt lat="39.9741840" lon="-0.6463510">
        <ele>876.2</ele>
        <time>2019-07-04T18:46:25Z</time>
      </trkpt>
      <trkpt lat="39.9742600" lon="-0.6463640">
        <ele>876.8</ele>
        <time>2019-07-04T18:46:27Z</time>
      </trkpt>
      <trkpt lat="39.9743400" lon="-0.6463760">
        <ele>877.4</ele>
        <time>2019-07-04T18:46:29Z</time>
      </trkpt>
      <trkpt lat="39.9745340" lon="-0.6463980">
        <ele>877.8</ele>
        <time>2019-07-04T18:46:34Z</time>
      </trkpt>
      <trkpt lat="39.9746130" lon="-0.6464180">
        <ele>878.2</ele>
        <time>2019-07-04T18:46:36Z</time>
      </trkpt>
      <trkpt lat="39.9748530" lon="-0.6464940">
        <ele>879.0</ele>
        <time>2019-07-04T18:46:42Z</time>
      </trkpt>
      <trkpt lat="39.9748950" lon="-0.6465070">
        <ele>879.2</ele>
        <time>2019-07-04T18:46:43Z</time>
      </trkpt>
      <trkpt lat="39.9751370" lon="-0.6466310">
        <ele>880.2</ele>
        <time>2019-07-04T18:46:49Z</time>
      </trkpt>
      <trkpt lat="39.9752110" lon="-0.6466950">
        <ele>880.4</ele>
        <time>2019-07-04T18:46:51Z</time>
      </trkpt>
      <trkpt lat="39.9752750" lon="-0.6467700">
        <ele>880.6</ele>
        <time>2019-07-04T18:46:53Z</time>
      </trkpt>
      <trkpt lat="39.9752960" lon="-0.6468200">
        <ele>880.8</ele>
        <time>2019-07-04T18:46:54Z</time>
      </trkpt>
      <trkpt lat="39.9752670" lon="-0.6469730">
        <ele>881.2</ele>
        <time>2019-07-04T18:46:57Z</time>
      </trkpt>
      <trkpt lat="39.9751430" lon="-0.6470140">
        <ele>881.6</ele>
        <time>2019-07-04T18:47:00Z</time>
      </trkpt>
      <trkpt lat="39.9748140" lon="-0.6469890">
        <ele>882.4</ele>
        <time>2019-07-04T18:47:07Z</time>
      </trkpt>
      <trkpt lat="39.9747680" lon="-0.6469780">
        <ele>882.4</ele>
        <time>2019-07-04T18:47:08Z</time>
      </trkpt>
      <trkpt lat="39.9746740" lon="-0.6469590">
        <ele>882.8</ele>
        <time>2019-07-04T18:47:10Z</time>
      </trkpt>
      <trkpt lat="39.9744000" lon="-0.6468880">
        <ele>883.4</ele>
        <time>2019-07-04T18:47:16Z</time>
      </trkpt>
      <trkpt lat="39.9743550" lon="-0.6468780">
        <ele>883.4</ele>
        <time>2019-07-04T18:47:17Z</time>
      </trkpt>
      <trkpt lat="39.9742170" lon="-0.6468500">
        <ele>883.6</ele>
        <time>2019-07-04T18:47:20Z</time>
      </trkpt>
      <trkpt lat="39.9740290" lon="-0.6467840">
        <ele>884.0</ele>
        <time>2019-07-04T18:47:24Z</time>
      </trkpt>
      <trkpt lat="39.9738890" lon="-0.6467180">
        <ele>884.2</ele>
        <time>2019-07-04T18:47:27Z</time>
      </trkpt>
      <trkpt lat="39.9736540" lon="-0.6466300">
        <ele>885.2</ele>
        <time>2019-07-04T18:47:32Z</time>
      </trkpt>
      <trkpt lat="39.9736090" lon="-0.6466110">
        <ele>885.4</ele>
        <time>2019-07-04T18:47:33Z</time>
      </trkpt>
      <trkpt lat="39.9735660" lon="-0.6465950">
        <ele>885.6</ele>
        <time>2019-07-04T18:47:34Z</time>
      </trkpt>
      <trkpt lat="39.9733490" lon="-0.6465340">
        <ele>886.4</ele>
        <time>2019-07-04T18:47:39Z</time>
      </trkpt>
      <trkpt lat="39.9733060" lon="-0.6465280">
        <ele>886.6</ele>
        <time>2019-07-04T18:47:40Z</time>
      </trkpt>
      <trkpt lat="39.9732650" lon="-0.6465250">
        <ele>886.6</ele>
        <time>2019-07-04T18:47:41Z</time>
      </trkpt>
      <trkpt lat="39.9731140" lon="-0.6465690">
        <ele>887.4</ele>
        <time>2019-07-04T18:47:45Z</time>
      </trkpt>
      <trkpt lat="39.9730250" lon="-0.6467050">
        <ele>888.2</ele>
        <time>2019-07-04T18:47:49Z</time>
      </trkpt>
      <trkpt lat="39.9730510" lon="-0.6468870">
        <ele>889.4</ele>
        <time>2019-07-04T18:47:53Z</time>
      </trkpt>
      <trkpt lat="39.9731030" lon="-0.6470250">
        <ele>890.4</ele>
        <time>2019-07-04T18:47:56Z</time>
      </trkpt>
      <trkpt lat="39.9731580" lon="-0.6472100">
        <ele>891.4</ele>
        <time>2019-07-04T18:48:00Z</time>
      </trkpt>
      <trkpt lat="39.9731680" lon="-0.6472580">
        <ele>891.6</ele>
        <time>2019-07-04T18:48:01Z</time>
      </trkpt>
      <trkpt lat="39.9732000" lon="-0.6475510">
        <ele>892.4</ele>
        <time>2019-07-04T18:48:07Z</time>
      </trkpt>
      <trkpt lat="39.9731800" lon="-0.6477900">
        <ele>893.4</ele>
        <time>2019-07-04T18:48:12Z</time>
      </trkpt>
      <trkpt lat="39.9731750" lon="-0.6478380">
        <ele>893.8</ele>
        <time>2019-07-04T18:48:13Z</time>
      </trkpt>
      <trkpt lat="39.9731520" lon="-0.6480760">
        <ele>894.8</ele>
        <time>2019-07-04T18:48:18Z</time>
      </trkpt>
      <trkpt lat="39.9731430" lon="-0.6481170">
        <ele>895.0</ele>
        <time>2019-07-04T18:48:19Z</time>
      </trkpt>
      <trkpt lat="39.9731080" lon="-0.6483350">
        <ele>896.0</ele>
        <time>2019-07-04T18:48:24Z</time>
      </trkpt>
      <trkpt lat="39.9731190" lon="-0.6486630">
        <ele>897.0</ele>
        <time>2019-07-04T18:48:31Z</time>
      </trkpt>
      <trkpt lat="39.9731380" lon="-0.6487050">
        <ele>897.2</ele>
        <time>2019-07-04T18:48:32Z</time>
      </trkpt>
      <trkpt lat="39.9732490" lon="-0.6488350">
        <ele>898.0</ele>
        <time>2019-07-04T18:48:36Z</time>
      </trkpt>
      <trkpt lat="39.9732800" lon="-0.6488620">
        <ele>898.2</ele>
        <time>2019-07-04T18:48:37Z</time>
      </trkpt>
      <trkpt lat="39.9734350" lon="-0.6490030">
        <ele>899.4</ele>
        <time>2019-07-04T18:48:42Z</time>
      </trkpt>
      <trkpt lat="39.9735270" lon="-0.6490870">
        <ele>900.0</ele>
        <time>2019-07-04T18:48:45Z</time>
      </trkpt>
      <trkpt lat="39.9736170" lon="-0.6491690">
        <ele>900.6</ele>
        <time>2019-07-04T18:48:48Z</time>
      </trkpt>
      <trkpt lat="39.9736980" lon="-0.6492640">
        <ele>901.4</ele>
        <time>2019-07-04T18:48:51Z</time>
      </trkpt>
      <trkpt lat="39.9737520" lon="-0.6493300">
        <ele>901.6</ele>
        <time>2019-07-04T18:48:53Z</time>
      </trkpt>
      <trkpt lat="39.9738630" lon="-0.6495420">
        <ele>902.4</ele>
        <time>2019-07-04T18:48:58Z</time>
      </trkpt>
      <trkpt lat="39.9738740" lon="-0.6495900">
        <ele>902.4</ele>
        <time>2019-07-04T18:48:59Z</time>
      </trkpt>
      <trkpt lat="39.9738720" lon="-0.6497390">
        <ele>903.2</ele>
        <time>2019-07-04T18:49:02Z</time>
      </trkpt>
      <trkpt lat="39.9738480" lon="-0.6498350">
        <ele>903.6</ele>
        <time>2019-07-04T18:49:04Z</time>
      </trkpt>
      <trkpt lat="39.9737880" lon="-0.6499690">
        <ele>904.2</ele>
        <time>2019-07-04T18:49:07Z</time>
      </trkpt>
      <trkpt lat="39.9737160" lon="-0.6501040">
        <ele>904.6</ele>
        <time>2019-07-04T18:49:10Z</time>
      </trkpt>
      <trkpt lat="39.9736420" lon="-0.6502300">
        <ele>905.4</ele>
        <time>2019-07-04T18:49:13Z</time>
      </trkpt>
      <trkpt lat="39.9736210" lon="-0.6502710">
        <ele>905.8</ele>
        <time>2019-07-04T18:49:14Z</time>
      </trkpt>
      <trkpt lat="39.9735420" lon="-0.6503860">
        <ele>907.0</ele>
        <time>2019-07-04T18:49:17Z</time>
      </trkpt>
      <trkpt lat="39.9734850" lon="-0.6504660">
        <ele>907.2</ele>
        <time>2019-07-04T18:49:19Z</time>
      </trkpt>
      <trkpt lat="39.9733480" lon="-0.6506440">
        <ele>908.2</ele>
        <time>2019-07-04T18:49:24Z</time>
      </trkpt>
      <trkpt lat="39.9733190" lon="-0.6506740">
        <ele>908.4</ele>
        <time>2019-07-04T18:49:25Z</time>
      </trkpt>
      <trkpt lat="39.9731750" lon="-0.6508300">
        <ele>909.4</ele>
        <time>2019-07-04T18:49:30Z</time>
      </trkpt>
      <trkpt lat="39.9731200" lon="-0.6508840">
        <ele>909.8</ele>
        <time>2019-07-04T18:49:32Z</time>
      </trkpt>
      <trkpt lat="39.9730100" lon="-0.6510030">
        <ele>910.4</ele>
        <time>2019-07-04T18:49:36Z</time>
      </trkpt>
      <trkpt lat="39.9729180" lon="-0.6510690">
        <ele>910.8</ele>
        <time>2019-07-04T18:49:39Z</time>
      </trkpt>
      <trkpt lat="39.9728070" lon="-0.6511180">
        <ele>911.4</ele>
        <time>2019-07-04T18:49:42Z</time>
      </trkpt>
      <trkpt lat="39.9726870" lon="-0.6511420">
        <ele>912.0</ele>
        <time>2019-07-04T18:49:45Z</time>
      </trkpt>
      <trkpt lat="39.9725670" lon="-0.6511390">
        <ele>912.6</ele>
        <time>2019-07-04T18:49:48Z</time>
      </trkpt>
      <trkpt lat="39.9724460" lon="-0.6511450">
        <ele>913.6</ele>
        <time>2019-07-04T18:49:51Z</time>
      </trkpt>
      <trkpt lat="39.9724050" lon="-0.6511520">
        <ele>913.6</ele>
        <time>2019-07-04T18:49:52Z</time>
      </trkpt>
      <trkpt lat="39.9723630" lon="-0.6511640">
        <ele>913.8</ele>
        <time>2019-07-04T18:49:53Z</time>
      </trkpt>
      <trkpt lat="39.9722520" lon="-0.6512300">
        <ele>914.2</ele>
        <time>2019-07-04T18:49:56Z</time>
      </trkpt>
      <trkpt lat="39.9721950" lon="-0.6512950">
        <ele>914.4</ele>
        <time>2019-07-04T18:49:58Z</time>
      </trkpt>
      <trkpt lat="39.9720570" lon="-0.6514470">
        <ele>915.6</ele>
        <time>2019-07-04T18:50:03Z</time>
      </trkpt>
      <trkpt lat="39.9719230" lon="-0.6515940">
        <ele>916.8</ele>
        <time>2019-07-04T18:50:08Z</time>
      </trkpt>
      <trkpt lat="39.9718470" lon="-0.6516880">
        <ele>917.6</ele>
        <time>2019-07-04T18:50:11Z</time>
      </trkpt>
      <trkpt lat="39.9717940" lon="-0.6517510">
        <ele>918.0</ele>
        <time>2019-07-04T18:50:13Z</time>
      </trkpt>
      <trkpt lat="39.9716590" lon="-0.6519110">
        <ele>918.8</ele>
        <time>2019-07-04T18:50:18Z</time>
      </trkpt>
      <trkpt lat="39.9716310" lon="-0.6519450">
        <ele>919.0</ele>
        <time>2019-07-04T18:50:19Z</time>
      </trkpt>
      <trkpt lat="39.9714980" lon="-0.6521300">
        <ele>920.0</ele>
        <time>2019-07-04T18:50:24Z</time>
      </trkpt>
      <trkpt lat="39.9714900" lon="-0.6521760">
        <ele>920.2</ele>
        <time>2019-07-04T18:50:25Z</time>
      </trkpt>
      <trkpt lat="39.9715460" lon="-0.6523040">
        <ele>921.0</ele>
        <time>2019-07-04T18:50:28Z</time>
      </trkpt>
      <trkpt lat="39.9715870" lon="-0.6523230">
        <ele>921.2</ele>
        <time>2019-07-04T18:50:29Z</time>
      </trkpt>
      <trkpt lat="39.9716680" lon="-0.6523110">
        <ele>921.6</ele>
        <time>2019-07-04T18:50:31Z</time>
      </trkpt>
      <trkpt lat="39.9717420" lon="-0.6522670">
        <ele>922.0</ele>
        <time>2019-07-04T18:50:33Z</time>
      </trkpt>
      <trkpt lat="39.9718180" lon="-0.6522270">
        <ele>922.6</ele>
        <time>2019-07-04T18:50:35Z</time>
      </trkpt>
      <trkpt lat="39.9718990" lon="-0.6521910">
        <ele>922.8</ele>
        <time>2019-07-04T18:50:37Z</time>
      </trkpt>
      <trkpt lat="39.9719410" lon="-0.6521770">
        <ele>923.0</ele>
        <time>2019-07-04T18:50:38Z</time>
      </trkpt>
      <trkpt lat="39.9720670" lon="-0.6521370">
        <ele>923.4</ele>
        <time>2019-07-04T18:50:41Z</time>
      </trkpt>
      <trkpt lat="39.9721100" lon="-0.6521310">
        <ele>923.4</ele>
        <time>2019-07-04T18:50:42Z</time>
      </trkpt>
      <trkpt lat="39.9722480" lon="-0.6521510">
        <ele>923.6</ele>
        <time>2019-07-04T18:50:45Z</time>
      </trkpt>
      <trkpt lat="39.9723300" lon="-0.6521890">
        <ele>924.0</ele>
        <time>2019-07-04T18:50:47Z</time>
      </trkpt>
      <trkpt lat="39.9724480" lon="-0.6522530">
        <ele>924.6</ele>
        <time>2019-07-04T18:50:50Z</time>
      </trkpt>
      <trkpt lat="39.9725280" lon="-0.6522930">
        <ele>925.0</ele>
        <time>2019-07-04T18:50:52Z</time>
      </trkpt>
      <trkpt lat="39.9727000" lon="-0.6523540">
        <ele>925.8</ele>
        <time>2019-07-04T18:50:56Z</time>
      </trkpt>
      <trkpt lat="39.9728750" lon="-0.6523910">
        <ele>926.4</ele>
        <time>2019-07-04T18:51:00Z</time>
      </trkpt>
      <trkpt lat="39.9730030" lon="-0.6524130">
        <ele>926.8</ele>
        <time>2019-07-04T18:51:03Z</time>
      </trkpt>
      <trkpt lat="39.9731270" lon="-0.6524420">
        <ele>926.6</ele>
        <time>2019-07-04T18:51:06Z</time>
      </trkpt>
      <trkpt lat="39.9731690" lon="-0.6524450">
        <ele>926.8</ele>
        <time>2019-07-04T18:51:07Z</time>
      </trkpt>
      <trkpt lat="39.9732860" lon="-0.6524680">
        <ele>927.6</ele>
        <time>2019-07-04T18:51:10Z</time>
      </trkpt>
      <trkpt lat="39.9733960" lon="-0.6524990">
        <ele>928.6</ele>
        <time>2019-07-04T18:51:13Z</time>
      </trkpt>
      <trkpt lat="39.9734330" lon="-0.6525140">
        <ele>928.8</ele>
        <time>2019-07-04T18:51:14Z</time>
      </trkpt>
      <trkpt lat="39.9735880" lon="-0.6526510">
        <ele>929.6</ele>
        <time>2019-07-04T18:51:19Z</time>
      </trkpt>
      <trkpt lat="39.9736000" lon="-0.6528210">
        <ele>931.0</ele>
        <time>2019-07-04T18:51:23Z</time>
      </trkpt>
      <trkpt lat="39.9735250" lon="-0.6529670">
        <ele>932.2</ele>
        <time>2019-07-04T18:51:27Z</time>
      </trkpt>
      <trkpt lat="39.9734200" lon="-0.6530780">
        <ele>933.4</ele>
        <time>2019-07-04T18:51:31Z</time>
      </trkpt>
      <trkpt lat="39.9733110" lon="-0.6531910">
        <ele>934.4</ele>
        <time>2019-07-04T18:51:35Z</time>
      </trkpt>
      <trkpt lat="39.9731960" lon="-0.6532840">
        <ele>935.8</ele>
        <time>2019-07-04T18:51:39Z</time>
      </trkpt>
      <trkpt lat="39.9730750" lon="-0.6533680">
        <ele>936.8</ele>
        <time>2019-07-04T18:51:43Z</time>
      </trkpt>
      <trkpt lat="39.9729220" lon="-0.6534690">
        <ele>937.8</ele>
        <time>2019-07-04T18:51:48Z</time>
      </trkpt>
      <trkpt lat="39.9728880" lon="-0.6534770">
        <ele>938.2</ele>
        <time>2019-07-04T18:51:49Z</time>
      </trkpt>
      <trkpt lat="39.9728200" lon="-0.6534920">
        <ele>939.0</ele>
        <time>2019-07-04T18:51:51Z</time>
      </trkpt>
      <trkpt lat="39.9727130" lon="-0.6534760">
        <ele>939.6</ele>
        <time>2019-07-04T18:51:54Z</time>
      </trkpt>
      <trkpt lat="39.9725620" lon="-0.6534490">
        <ele>940.2</ele>
        <time>2019-07-04T18:51:58Z</time>
      </trkpt>
      <trkpt lat="39.9723690" lon="-0.6534280">
        <ele>940.8</ele>
        <time>2019-07-04T18:52:03Z</time>
      </trkpt>
      <trkpt lat="39.9723290" lon="-0.6534220">
        <ele>941.2</ele>
        <time>2019-07-04T18:52:04Z</time>
      </trkpt>
      <trkpt lat="39.9720740" lon="-0.6533610">
        <ele>941.6</ele>
        <time>2019-07-04T18:52:10Z</time>
      </trkpt>
      <trkpt lat="39.9719880" lon="-0.6533280">
        <ele>942.2</ele>
        <time>2019-07-04T18:52:12Z</time>
      </trkpt>
      <trkpt lat="39.9717750" lon="-0.6532640">
        <ele>942.8</ele>
        <time>2019-07-04T18:52:17Z</time>
      </trkpt>
      <trkpt lat="39.9716110" lon="-0.6532170">
        <ele>943.4</ele>
        <time>2019-07-04T18:52:21Z</time>
      </trkpt>
      <trkpt lat="39.9714110" lon="-0.6531680">
        <ele>944.2</ele>
        <time>2019-07-04T18:52:26Z</time>
      </trkpt>
      <trkpt lat="39.9713730" lon="-0.6531590">
        <ele>944.2</ele>
        <time>2019-07-04T18:52:27Z</time>
      </trkpt>
      <trkpt lat="39.9711910" lon="-0.6531390">
        <ele>945.6</ele>
        <time>2019-07-04T18:52:32Z</time>
      </trkpt>
      <trkpt lat="39.9711270" lon="-0.6531650">
        <ele>946.2</ele>
        <time>2019-07-04T18:52:34Z</time>
      </trkpt>
      <trkpt lat="39.9710840" lon="-0.6532340">
        <ele>946.8</ele>
        <time>2019-07-04T18:52:36Z</time>
      </trkpt>
      <trkpt lat="39.9710760" lon="-0.6532800">
        <ele>946.8</ele>
        <time>2019-07-04T18:52:37Z</time>
      </trkpt>
      <trkpt lat="39.9711120" lon="-0.6534180">
        <ele>947.4</ele>
        <time>2019-07-04T18:52:40Z</time>
      </trkpt>
      <trkpt lat="39.9711750" lon="-0.6534900">
        <ele>947.6</ele>
        <time>2019-07-04T18:52:42Z</time>
      </trkpt>
      <trkpt lat="39.9712140" lon="-0.6535170">
        <ele>947.6</ele>
        <time>2019-07-04T18:52:43Z</time>
      </trkpt>
      <trkpt lat="39.9712560" lon="-0.6535400">
        <ele>947.6</ele>
        <time>2019-07-04T18:52:44Z</time>
      </trkpt>
      <trkpt lat="39.9715600" lon="-0.6537070">
        <ele>948.6</ele>
        <time>2019-07-04T18:52:51Z</time>
      </trkpt>
      <trkpt lat="39.9716350" lon="-0.6537650">
        <ele>949.2</ele>
        <time>2019-07-04T18:52:53Z</time>
      </trkpt>
      <trkpt lat="39.9717680" lon="-0.6539620">
        <ele>949.8</ele>
        <time>2019-07-04T18:52:58Z</time>
      </trkpt>
      <trkpt lat="39.9718090" lon="-0.6540480">
        <ele>950.4</ele>
        <time>2019-07-04T18:53:00Z</time>
      </trkpt>
      <trkpt lat="39.9718430" lon="-0.6541340">
        <ele>950.8</ele>
        <time>2019-07-04T18:53:02Z</time>
      </trkpt>
      <trkpt lat="39.9718900" lon="-0.6543100">
        <ele>951.2</ele>
        <time>2019-07-04T18:53:06Z</time>
      </trkpt>
      <trkpt lat="39.9719230" lon="-0.6543910">
        <ele>951.8</ele>
        <time>2019-07-04T18:53:08Z</time>
      </trkpt>
      <trkpt lat="39.9720070" lon="-0.6545990">
        <ele>953.0</ele>
        <time>2019-07-04T18:53:13Z</time>
      </trkpt>
      <trkpt lat="39.9720820" lon="-0.6549430">
        <ele>953.6</ele>
        <time>2019-07-04T18:53:20Z</time>
      </trkpt>
      <trkpt lat="39.9721260" lon="-0.6550880">
        <ele>953.8</ele>
        <time>2019-07-04T18:53:23Z</time>
      </trkpt>
      <trkpt lat="39.9721850" lon="-0.6552890">
        <ele>954.2</ele>
        <time>2019-07-04T18:53:27Z</time>
      </trkpt>
      <trkpt lat="39.9721980" lon="-0.6553430">
        <ele>954.2</ele>
        <time>2019-07-04T18:53:28Z</time>
      </trkpt>
      <trkpt lat="39.9722750" lon="-0.6556730">
        <ele>955.0</ele>
        <time>2019-07-04T18:53:34Z</time>
      </trkpt>
      <trkpt lat="39.9722990" lon="-0.6557850">
        <ele>955.2</ele>
        <time>2019-07-04T18:53:36Z</time>
      </trkpt>
      <trkpt lat="39.9723560" lon="-0.6560570">
        <ele>956.0</ele>
        <time>2019-07-04T18:53:41Z</time>
      </trkpt>
      <trkpt lat="39.9723850" lon="-0.6561600">
        <ele>956.0</ele>
        <time>2019-07-04T18:53:43Z</time>
      </trkpt>
      <trkpt lat="39.9724250" lon="-0.6563120">
        <ele>956.8</ele>
        <time>2019-07-04T18:53:46Z</time>
      </trkpt>
      <trkpt lat="39.9724300" lon="-0.6563650">
        <ele>957.0</ele>
        <time>2019-07-04T18:53:47Z</time>
      </trkpt>
      <trkpt lat="39.9724390" lon="-0.6564690">
        <ele>957.2</ele>
        <time>2019-07-04T18:53:49Z</time>
      </trkpt>
      <trkpt lat="39.9724760" lon="-0.6569320">
        <ele>957.6</ele>
        <time>2019-07-04T18:53:57Z</time>
      </trkpt>
      <trkpt lat="39.9724850" lon="-0.6573880">
        <ele>957.0</ele>
        <time>2019-07-04T18:54:03Z</time>
      </trkpt>
      <trkpt lat="39.9725040" lon="-0.6577320">
        <ele>955.8</ele>
        <time>2019-07-04T18:54:07Z</time>
      </trkpt>
      <trkpt lat="39.9725280" lon="-0.6579130">
        <ele>955.2</ele>
        <time>2019-07-04T18:54:09Z</time>
      </trkpt>
      <trkpt lat="39.9725750" lon="-0.6581900">
        <ele>955.0</ele>
        <time>2019-07-04T18:54:12Z</time>
      </trkpt>
      <trkpt lat="39.9726150" lon="-0.6583790">
        <ele>954.2</ele>
        <time>2019-07-04T18:54:14Z</time>
      </trkpt>
      <trkpt lat="39.9726620" lon="-0.6585680">
        <ele>953.6</ele>
        <time>2019-07-04T18:54:16Z</time>
      </trkpt>
      <trkpt lat="39.9727090" lon="-0.6587590">
        <ele>953.4</ele>
        <time>2019-07-04T18:54:18Z</time>
      </trkpt>
      <trkpt lat="39.9727790" lon="-0.6590470">
        <ele>953.2</ele>
        <time>2019-07-04T18:54:21Z</time>
      </trkpt>
      <trkpt lat="39.9728830" lon="-0.6594230">
        <ele>952.4</ele>
        <time>2019-07-04T18:54:25Z</time>
      </trkpt>
      <trkpt lat="39.9729310" lon="-0.6596090">
        <ele>952.2</ele>
        <time>2019-07-04T18:54:27Z</time>
      </trkpt>
      <trkpt lat="39.9729950" lon="-0.6598810">
        <ele>951.6</ele>
        <time>2019-07-04T18:54:30Z</time>
      </trkpt>
      <trkpt lat="39.9730600" lon="-0.6601380">
        <ele>951.2</ele>
        <time>2019-07-04T18:54:33Z</time>
      </trkpt>
      <trkpt lat="39.9731070" lon="-0.6602960">
        <ele>951.0</ele>
        <time>2019-07-04T18:54:35Z</time>
      </trkpt>
      <trkpt lat="39.9731760" lon="-0.6605290">
        <ele>950.8</ele>
        <time>2019-07-04T18:54:38Z</time>
      </trkpt>
      <trkpt lat="39.9732710" lon="-0.6608280">
        <ele>951.0</ele>
        <time>2019-07-04T18:54:42Z</time>
      </trkpt>
      <trkpt lat="39.9734220" lon="-0.6613000">
        <ele>951.2</ele>
        <time>2019-07-04T18:54:49Z</time>
      </trkpt>
      <trkpt lat="39.9735630" lon="-0.6617700">
        <ele>951.4</ele>
        <time>2019-07-04T18:54:56Z</time>
      </trkpt>
      <trkpt lat="39.9735840" lon="-0.6618400">
        <ele>951.4</ele>
        <time>2019-07-04T18:54:57Z</time>
      </trkpt>
      <trkpt lat="39.9736740" lon="-0.6621310">
        <ele>951.4</ele>
        <time>2019-07-04T18:55:01Z</time>
      </trkpt>
      <trkpt lat="39.9737710" lon="-0.6624350">
        <ele>951.0</ele>
        <time>2019-07-04T18:55:05Z</time>
      </trkpt>
      <trkpt lat="39.9739920" lon="-0.6631440">
        <ele>950.4</ele>
        <time>2019-07-04T18:55:14Z</time>
      </trkpt>
      <trkpt lat="39.9740690" lon="-0.6633870">
        <ele>949.8</ele>
        <time>2019-07-04T18:55:17Z</time>
      </trkpt>
      <trkpt lat="39.9742190" lon="-0.6638680">
        <ele>949.6</ele>
        <time>2019-07-04T18:55:23Z</time>
      </trkpt>
      <trkpt lat="39.9742440" lon="-0.6639450">
        <ele>949.4</ele>
        <time>2019-07-04T18:55:24Z</time>
      </trkpt>
      <trkpt lat="39.9742920" lon="-0.6640970">
        <ele>949.4</ele>
        <time>2019-07-04T18:55:26Z</time>
      </trkpt>
      <trkpt lat="39.9744690" lon="-0.6646580">
        <ele>949.4</ele>
        <time>2019-07-04T18:55:34Z</time>
      </trkpt>
      <trkpt lat="39.9746410" lon="-0.6652190">
        <ele>949.8</ele>
        <time>2019-07-04T18:55:42Z</time>
      </trkpt>
      <trkpt lat="39.9748510" lon="-0.6658690">
        <ele>949.6</ele>
        <time>2019-07-04T18:55:51Z</time>
      </trkpt>
      <trkpt lat="39.9748990" lon="-0.6660160">
        <ele>949.8</ele>
        <time>2019-07-04T18:55:53Z</time>
      </trkpt>
      <trkpt lat="39.9751310" lon="-0.6666880">
        <ele>949.2</ele>
        <time>2019-07-04T18:56:02Z</time>
      </trkpt>
      <trkpt lat="39.9753750" lon="-0.6672730">
        <ele>949.2</ele>
        <time>2019-07-04T18:56:10Z</time>
      </trkpt>
      <trkpt lat="39.9755890" lon="-0.6677650">
        <ele>948.8</ele>
        <time>2019-07-04T18:56:17Z</time>
      </trkpt>
      <trkpt lat="39.9758530" lon="-0.6683460">
        <ele>949.0</ele>
        <time>2019-07-04T18:56:26Z</time>
      </trkpt>
      <trkpt lat="39.9761510" lon="-0.6689490">
        <ele>948.8</ele>
        <time>2019-07-04T18:56:35Z</time>
      </trkpt>
      <trkpt lat="39.9764790" lon="-0.6695830">
        <ele>947.8</ele>
        <time>2019-07-04T18:56:44Z</time>
      </trkpt>
      <trkpt lat="39.9765160" lon="-0.6696560">
        <ele>947.6</ele>
        <time>2019-07-04T18:56:45Z</time>
      </trkpt>
      <trkpt lat="39.9768200" lon="-0.6702230">
        <ele>947.8</ele>
        <time>2019-07-04T18:56:53Z</time>
      </trkpt>
      <trkpt lat="39.9771460" lon="-0.6708610">
        <ele>947.4</ele>
        <time>2019-07-04T18:57:02Z</time>
      </trkpt>
      <trkpt lat="39.9774770" lon="-0.6714880">
        <ele>946.8</ele>
        <time>2019-07-04T18:57:11Z</time>
      </trkpt>
      <trkpt lat="39.9775540" lon="-0.6716280">
        <ele>946.6</ele>
        <time>2019-07-04T18:57:13Z</time>
      </trkpt>
      <trkpt lat="39.9776290" lon="-0.6717720">
        <ele>946.4</ele>
        <time>2019-07-04T18:57:15Z</time>
      </trkpt>
      <trkpt lat="39.9779550" lon="-0.6724020">
        <ele>946.6</ele>
        <time>2019-07-04T18:57:24Z</time>
      </trkpt>
      <trkpt lat="39.9782270" lon="-0.6729540">
        <ele>946.6</ele>
        <time>2019-07-04T18:57:32Z</time>
      </trkpt>
      <trkpt lat="39.9785900" lon="-0.6735480">
        <ele>946.2</ele>
        <time>2019-07-04T18:57:41Z</time>
      </trkpt>
      <trkpt lat="39.9789300" lon="-0.6740290">
        <ele>946.6</ele>
        <time>2019-07-04T18:57:49Z</time>
      </trkpt>
      <trkpt lat="39.9792950" lon="-0.6745200">
        <ele>947.0</ele>
        <time>2019-07-04T18:57:58Z</time>
      </trkpt>
      <trkpt lat="39.9793680" lon="-0.6746330">
        <ele>947.0</ele>
        <time>2019-07-04T18:58:00Z</time>
      </trkpt>
      <trkpt lat="39.9795580" lon="-0.6749070">
        <ele>947.4</ele>
        <time>2019-07-04T18:58:05Z</time>
      </trkpt>
      <trkpt lat="39.9799520" lon="-0.6754590">
        <ele>947.6</ele>
        <time>2019-07-04T18:58:15Z</time>
      </trkpt>
      <trkpt lat="39.9800340" lon="-0.6755790">
        <ele>947.6</ele>
        <time>2019-07-04T18:58:17Z</time>
      </trkpt>
      <trkpt lat="39.9803550" lon="-0.6760020">
        <ele>947.0</ele>
        <time>2019-07-04T18:58:24Z</time>
      </trkpt>
      <trkpt lat="39.9804540" lon="-0.6761260">
        <ele>946.4</ele>
        <time>2019-07-04T18:58:26Z</time>
      </trkpt>
      <trkpt lat="39.9805900" lon="-0.6763270">
        <ele>946.2</ele>
        <time>2019-07-04T18:58:29Z</time>
      </trkpt>
      <trkpt lat="39.9807300" lon="-0.6765110">
        <ele>946.2</ele>
        <time>2019-07-04T18:58:32Z</time>
      </trkpt>
      <trkpt lat="39.9808210" lon="-0.6766270">
        <ele>946.2</ele>
        <time>2019-07-04T18:58:34Z</time>
      </trkpt>
      <trkpt lat="39.9809090" lon="-0.6767430">
        <ele>945.8</ele>
        <time>2019-07-04T18:58:36Z</time>
      </trkpt>
      <trkpt lat="39.9809970" lon="-0.6768520">
        <ele>945.4</ele>
        <time>2019-07-04T18:58:38Z</time>
      </trkpt>
      <trkpt lat="39.9812790" lon="-0.6772110">
        <ele>944.8</ele>
        <time>2019-07-04T18:58:45Z</time>
      </trkpt>
      <trkpt lat="39.9813590" lon="-0.6773060">
        <ele>944.8</ele>
        <time>2019-07-04T18:58:47Z</time>
      </trkpt>
      <trkpt lat="39.9815540" lon="-0.6775630">
        <ele>945.0</ele>
        <time>2019-07-04T18:58:52Z</time>
      </trkpt>
      <trkpt lat="39.9819290" lon="-0.6780360">
        <ele>945.2</ele>
        <time>2019-07-04T18:59:01Z</time>
      </trkpt>
      <trkpt lat="39.9823540" lon="-0.6785820">
        <ele>944.6</ele>
        <time>2019-07-04T18:59:11Z</time>
      </trkpt>
      <trkpt lat="39.9825200" lon="-0.6787970">
        <ele>944.8</ele>
        <time>2019-07-04T18:59:15Z</time>
      </trkpt>
      <trkpt lat="39.9828150" lon="-0.6791630">
        <ele>944.8</ele>
        <time>2019-07-04T18:59:22Z</time>
      </trkpt>
      <trkpt lat="39.9832010" lon="-0.6796410">
        <ele>945.2</ele>
        <time>2019-07-04T18:59:31Z</time>
      </trkpt>
      <trkpt lat="39.9836350" lon="-0.6801680">
        <ele>944.8</ele>
        <time>2019-07-04T18:59:41Z</time>
      </trkpt>
      <trkpt lat="39.9839370" lon="-0.6805640">
        <ele>944.6</ele>
        <time>2019-07-04T18:59:48Z</time>
      </trkpt>
      <trkpt lat="39.9842790" lon="-0.6810070">
        <ele>943.8</ele>
        <time>2019-07-04T18:59:55Z</time>
      </trkpt>
      <trkpt lat="39.9843290" lon="-0.6810740">
        <ele>943.8</ele>
        <time>2019-07-04T18:59:56Z</time>
      </trkpt>
      <trkpt lat="39.9847410" lon="-0.6815960">
        <ele>943.6</ele>
        <time>2019-07-04T19:00:04Z</time>
      </trkpt>
      <trkpt lat="39.9848460" lon="-0.6817190">
        <ele>943.4</ele>
        <time>2019-07-04T19:00:06Z</time>
      </trkpt>
      <trkpt lat="39.9852440" lon="-0.6822040">
        <ele>943.2</ele>
        <time>2019-07-04T19:00:14Z</time>
      </trkpt>
      <trkpt lat="39.9856170" lon="-0.6826820">
        <ele>943.2</ele>
        <time>2019-07-04T19:00:22Z</time>
      </trkpt>
      <trkpt lat="39.9860220" lon="-0.6831920">
        <ele>943.2</ele>
        <time>2019-07-04T19:00:31Z</time>
      </trkpt>
      <trkpt lat="39.9861980" lon="-0.6834180">
        <ele>943.2</ele>
        <time>2019-07-04T19:00:35Z</time>
      </trkpt>
      <trkpt lat="39.9865940" lon="-0.6839260">
        <ele>943.2</ele>
        <time>2019-07-04T19:00:44Z</time>
      </trkpt>
      <trkpt lat="39.9866750" lon="-0.6840460">
        <ele>943.2</ele>
        <time>2019-07-04T19:00:46Z</time>
      </trkpt>
      <trkpt lat="39.9870460" lon="-0.6844990">
        <ele>943.0</ele>
        <time>2019-07-04T19:00:54Z</time>
      </trkpt>
      <trkpt lat="39.9874710" lon="-0.6850270">
        <ele>942.8</ele>
        <time>2019-07-04T19:01:03Z</time>
      </trkpt>
      <trkpt lat="39.9875180" lon="-0.6850870">
        <ele>942.6</ele>
        <time>2019-07-04T19:01:04Z</time>
      </trkpt>
      <trkpt lat="39.9877870" lon="-0.6854470">
        <ele>942.2</ele>
        <time>2019-07-04T19:01:10Z</time>
      </trkpt>
      <trkpt lat="39.9879230" lon="-0.6856240">
        <ele>942.2</ele>
        <time>2019-07-04T19:01:13Z</time>
      </trkpt>
      <trkpt lat="39.9879680" lon="-0.6856830">
        <ele>942.4</ele>
        <time>2019-07-04T19:01:14Z</time>
      </trkpt>
      <trkpt lat="39.9883900" lon="-0.6861880">
        <ele>942.6</ele>
        <time>2019-07-04T19:01:23Z</time>
      </trkpt>
      <trkpt lat="39.9888110" lon="-0.6866440">
        <ele>942.8</ele>
        <time>2019-07-04T19:01:32Z</time>
      </trkpt>
      <trkpt lat="39.9888570" lon="-0.6866930">
        <ele>943.0</ele>
        <time>2019-07-04T19:01:33Z</time>
      </trkpt>
      <trkpt lat="39.9889060" lon="-0.6867400">
        <ele>943.0</ele>
        <time>2019-07-04T19:01:34Z</time>
      </trkpt>
      <trkpt lat="39.9893360" lon="-0.6871410">
        <ele>944.0</ele>
        <time>2019-07-04T19:01:43Z</time>
      </trkpt>
      <trkpt lat="39.9894370" lon="-0.6872190">
        <ele>944.2</ele>
        <time>2019-07-04T19:01:45Z</time>
      </trkpt>
      <trkpt lat="39.9897300" lon="-0.6874680">
        <ele>944.8</ele>
        <time>2019-07-04T19:01:51Z</time>
      </trkpt>
      <trkpt lat="39.9899890" lon="-0.6876310">
        <ele>945.2</ele>
        <time>2019-07-04T19:01:56Z</time>
      </trkpt>
      <trkpt lat="39.9902510" lon="-0.6877990">
        <ele>945.6</ele>
        <time>2019-07-04T19:02:01Z</time>
      </trkpt>
      <trkpt lat="39.9907540" lon="-0.6880690">
        <ele>945.6</ele>
        <time>2019-07-04T19:02:10Z</time>
      </trkpt>
      <trkpt lat="39.9908690" lon="-0.6881240">
        <ele>945.6</ele>
        <time>2019-07-04T19:02:12Z</time>
      </trkpt>
      <trkpt lat="39.9914350" lon="-0.6883330">
        <ele>945.8</ele>
        <time>2019-07-04T19:02:21Z</time>
      </trkpt>
      <trkpt lat="39.9920270" lon="-0.6884780">
        <ele>945.4</ele>
        <time>2019-07-04T19:02:30Z</time>
      </trkpt>
      <trkpt lat="39.9925630" lon="-0.6885730">
        <ele>945.4</ele>
        <time>2019-07-04T19:02:38Z</time>
      </trkpt>
      <trkpt lat="39.9929130" lon="-0.6886170">
        <ele>945.0</ele>
        <time>2019-07-04T19:02:43Z</time>
      </trkpt>
      <trkpt lat="39.9934670" lon="-0.6887210">
        <ele>944.6</ele>
        <time>2019-07-04T19:02:51Z</time>
      </trkpt>
      <trkpt lat="39.9935330" lon="-0.6887340">
        <ele>944.8</ele>
        <time>2019-07-04T19:02:52Z</time>
      </trkpt>
      <trkpt lat="39.9940420" lon="-0.6889010">
        <ele>945.2</ele>
        <time>2019-07-04T19:03:00Z</time>
      </trkpt>
      <trkpt lat="39.9946240" lon="-0.6891180">
        <ele>945.2</ele>
        <time>2019-07-04T19:03:09Z</time>
      </trkpt>
      <trkpt lat="39.9951510" lon="-0.6893260">
        <ele>945.4</ele>
        <time>2019-07-04T19:03:17Z</time>
      </trkpt>
      <trkpt lat="39.9952810" lon="-0.6893770">
        <ele>945.4</ele>
        <time>2019-07-04T19:03:19Z</time>
      </trkpt>
      <trkpt lat="39.9954700" lon="-0.6894390">
        <ele>945.8</ele>
        <time>2019-07-04T19:03:22Z</time>
      </trkpt>
      <trkpt lat="39.9957710" lon="-0.6895460">
        <ele>946.2</ele>
        <time>2019-07-04T19:03:27Z</time>
      </trkpt>
      <trkpt lat="39.9960640" lon="-0.6896360">
        <ele>946.6</ele>
        <time>2019-07-04T19:03:32Z</time>
      </trkpt>
      <trkpt lat="39.9963450" lon="-0.6897030">
        <ele>947.4</ele>
        <time>2019-07-04T19:03:37Z</time>
      </trkpt>
      <trkpt lat="39.9964520" lon="-0.6897260">
        <ele>947.8</ele>
        <time>2019-07-04T19:03:39Z</time>
      </trkpt>
      <trkpt lat="39.9967010" lon="-0.6897770">
        <ele>948.6</ele>
        <time>2019-07-04T19:03:44Z</time>
      </trkpt>
      <trkpt lat="39.9967470" lon="-0.6897870">
        <ele>948.8</ele>
        <time>2019-07-04T19:03:45Z</time>
      </trkpt>
      <trkpt lat="39.9967930" lon="-0.6897960">
        <ele>949.0</ele>
        <time>2019-07-04T19:03:46Z</time>
      </trkpt>
      <trkpt lat="39.9970230" lon="-0.6898330">
        <ele>950.0</ele>
        <time>2019-07-04T19:03:51Z</time>
      </trkpt>
      <trkpt lat="39.9971590" lon="-0.6898360">
        <ele>950.4</ele>
        <time>2019-07-04T19:03:54Z</time>
      </trkpt>
      <trkpt lat="39.9972970" lon="-0.6898460">
        <ele>951.0</ele>
        <time>2019-07-04T19:03:57Z</time>
      </trkpt>
      <trkpt lat="39.9974820" lon="-0.6898690">
        <ele>952.0</ele>
        <time>2019-07-04T19:04:01Z</time>
      </trkpt>
      <trkpt lat="39.9975270" lon="-0.6898700">
        <ele>952.0</ele>
        <time>2019-07-04T19:04:02Z</time>
      </trkpt>
      <trkpt lat="39.9977080" lon="-0.6898940">
        <ele>952.6</ele>
        <time>2019-07-04T19:04:06Z</time>
      </trkpt>
      <trkpt lat="39.9978900" lon="-0.6899090">
        <ele>953.0</ele>
        <time>2019-07-04T19:04:10Z</time>
      </trkpt>
      <trkpt lat="39.9979370" lon="-0.6899110">
        <ele>953.2</ele>
        <time>2019-07-04T19:04:11Z</time>
      </trkpt>
      <trkpt lat="39.9982160" lon="-0.6899370">
        <ele>954.0</ele>
        <time>2019-07-04T19:04:17Z</time>
      </trkpt>
      <trkpt lat="39.9984570" lon="-0.6899600">
        <ele>954.6</ele>
        <time>2019-07-04T19:04:22Z</time>
      </trkpt>
      <trkpt lat="39.9986040" lon="-0.6899760">
        <ele>955.0</ele>
        <time>2019-07-04T19:04:25Z</time>
      </trkpt>
      <trkpt lat="39.9989960" lon="-0.6900150">
        <ele>955.2</ele>
        <time>2019-07-04T19:04:33Z</time>
      </trkpt>
      <trkpt lat="39.9992540" lon="-0.6900390">
        <ele>955.8</ele>
        <time>2019-07-04T19:04:38Z</time>
      </trkpt>
      <trkpt lat="39.9994140" lon="-0.6900590">
        <ele>955.8</ele>
        <time>2019-07-04T19:04:41Z</time>
      </trkpt>
      <trkpt lat="39.9997450" lon="-0.6900900">
        <ele>955.8</ele>
        <time>2019-07-04T19:04:47Z</time>
      </trkpt>
      <trkpt lat="40.0000380" lon="-0.6901190">
        <ele>955.6</ele>
        <time>2019-07-04T19:04:52Z</time>
      </trkpt>
      <trkpt lat="40.0002210" lon="-0.6901420">
        <ele>955.6</ele>
        <time>2019-07-04T19:04:55Z</time>
      </trkpt>
      <trkpt lat="40.0004110" lon="-0.6901730">
        <ele>955.4</ele>
        <time>2019-07-04T19:04:58Z</time>
      </trkpt>
      <trkpt lat="40.0006050" lon="-0.6902120">
        <ele>955.2</ele>
        <time>2019-07-04T19:05:01Z</time>
      </trkpt>
      <trkpt lat="40.0009400" lon="-0.6902710">
        <ele>955.0</ele>
        <time>2019-07-04T19:05:06Z</time>
      </trkpt>
      <trkpt lat="40.0010750" lon="-0.6903010">
        <ele>954.8</ele>
        <time>2019-07-04T19:05:08Z</time>
      </trkpt>
      <trkpt lat="40.0012130" lon="-0.6903380">
        <ele>954.6</ele>
        <time>2019-07-04T19:05:10Z</time>
      </trkpt>
      <trkpt lat="40.0017850" lon="-0.6905370">
        <ele>953.6</ele>
        <time>2019-07-04T19:05:18Z</time>
      </trkpt>
      <trkpt lat="40.0023750" lon="-0.6907680">
        <ele>952.4</ele>
        <time>2019-07-04T19:05:26Z</time>
      </trkpt>
      <trkpt lat="40.0024510" lon="-0.6907990">
        <ele>952.4</ele>
        <time>2019-07-04T19:05:27Z</time>
      </trkpt>
      <trkpt lat="40.0029860" lon="-0.6910370">
        <ele>951.8</ele>
        <time>2019-07-04T19:05:34Z</time>
      </trkpt>
      <trkpt lat="40.0031390" lon="-0.6911080">
        <ele>951.4</ele>
        <time>2019-07-04T19:05:36Z</time>
      </trkpt>
      <trkpt lat="40.0032160" lon="-0.6911420">
        <ele>951.4</ele>
        <time>2019-07-04T19:05:37Z</time>
      </trkpt>
      <trkpt lat="40.0037620" lon="-0.6913550">
        <ele>950.4</ele>
        <time>2019-07-04T19:05:44Z</time>
      </trkpt>
      <trkpt lat="40.0039160" lon="-0.6914250">
        <ele>950.2</ele>
        <time>2019-07-04T19:05:46Z</time>
      </trkpt>
      <trkpt lat="40.0044450" lon="-0.6916610">
        <ele>949.6</ele>
        <time>2019-07-04T19:05:53Z</time>
      </trkpt>
      <trkpt lat="40.0046720" lon="-0.6917630">
        <ele>949.4</ele>
        <time>2019-07-04T19:05:56Z</time>
      </trkpt>
      <trkpt lat="40.0048230" lon="-0.6918320">
        <ele>949.2</ele>
        <time>2019-07-04T19:05:58Z</time>
      </trkpt>
      <trkpt lat="40.0053540" lon="-0.6920590">
        <ele>949.0</ele>
        <time>2019-07-04T19:06:05Z</time>
      </trkpt>
      <trkpt lat="40.0058800" lon="-0.6922860">
        <ele>948.8</ele>
        <time>2019-07-04T19:06:12Z</time>
      </trkpt>
      <trkpt lat="40.0061820" lon="-0.6924120">
        <ele>948.4</ele>
        <time>2019-07-04T19:06:16Z</time>
      </trkpt>
      <trkpt lat="40.0067120" lon="-0.6926460">
        <ele>948.4</ele>
        <time>2019-07-04T19:06:23Z</time>
      </trkpt>
      <trkpt lat="40.0068600" lon="-0.6927130">
        <ele>948.4</ele>
        <time>2019-07-04T19:06:25Z</time>
      </trkpt>
      <trkpt lat="40.0070050" lon="-0.6927690">
        <ele>948.0</ele>
        <time>2019-07-04T19:06:27Z</time>
      </trkpt>
      <trkpt lat="40.0072840" lon="-0.6928610">
        <ele>947.6</ele>
        <time>2019-07-04T19:06:31Z</time>
      </trkpt>
      <trkpt lat="40.0073510" lon="-0.6928740">
        <ele>947.8</ele>
        <time>2019-07-04T19:06:32Z</time>
      </trkpt>
      <trkpt lat="40.0075450" lon="-0.6928860">
        <ele>947.8</ele>
        <time>2019-07-04T19:06:35Z</time>
      </trkpt>
      <trkpt lat="40.0077350" lon="-0.6929830">
        <ele>947.8</ele>
        <time>2019-07-04T19:06:38Z</time>
      </trkpt>
      <trkpt lat="40.0077950" lon="-0.6930330">
        <ele>947.8</ele>
        <time>2019-07-04T19:06:39Z</time>
      </trkpt>
      <trkpt lat="40.0081970" lon="-0.6933770">
        <ele>947.6</ele>
        <time>2019-07-04T19:06:46Z</time>
      </trkpt>
      <trkpt lat="40.0087180" lon="-0.6937260">
        <ele>947.6</ele>
        <time>2019-07-04T19:06:55Z</time>
      </trkpt>
      <trkpt lat="40.0087740" lon="-0.6937640">
        <ele>947.6</ele>
        <time>2019-07-04T19:06:56Z</time>
      </trkpt>
      <trkpt lat="40.0089450" lon="-0.6938780">
        <ele>947.6</ele>
        <time>2019-07-04T19:06:59Z</time>
      </trkpt>
      <trkpt lat="40.0091720" lon="-0.6940220">
        <ele>947.8</ele>
        <time>2019-07-04T19:07:03Z</time>
      </trkpt>
      <trkpt lat="40.0096980" lon="-0.6943600">
        <ele>947.6</ele>
        <time>2019-07-04T19:07:12Z</time>
      </trkpt>
      <trkpt lat="40.0097580" lon="-0.6943980">
        <ele>947.6</ele>
        <time>2019-07-04T19:07:13Z</time>
      </trkpt>
      <trkpt lat="40.0099940" lon="-0.6945500">
        <ele>947.2</ele>
        <time>2019-07-04T19:07:17Z</time>
      </trkpt>
      <trkpt lat="40.0103900" lon="-0.6948050">
        <ele>947.0</ele>
        <time>2019-07-04T19:07:24Z</time>
      </trkpt>
      <trkpt lat="40.0109090" lon="-0.6951380">
        <ele>947.0</ele>
        <time>2019-07-04T19:07:33Z</time>
      </trkpt>
      <trkpt lat="40.0110850" lon="-0.6952370">
        <ele>947.0</ele>
        <time>2019-07-04T19:07:36Z</time>
      </trkpt>
      <trkpt lat="40.0115620" lon="-0.6954500">
        <ele>947.4</ele>
        <time>2019-07-04T19:07:44Z</time>
      </trkpt>
      <trkpt lat="40.0119950" lon="-0.6955600">
        <ele>947.8</ele>
        <time>2019-07-04T19:07:51Z</time>
      </trkpt>
      <trkpt lat="40.0125760" lon="-0.6956900">
        <ele>947.0</ele>
        <time>2019-07-04T19:08:00Z</time>
      </trkpt>
      <trkpt lat="40.0127750" lon="-0.6957270">
        <ele>947.0</ele>
        <time>2019-07-04T19:08:03Z</time>
      </trkpt>
      <trkpt lat="40.0133650" lon="-0.6958670">
        <ele>946.6</ele>
        <time>2019-07-04T19:08:12Z</time>
      </trkpt>
      <trkpt lat="40.0134290" lon="-0.6958810">
        <ele>946.6</ele>
        <time>2019-07-04T19:08:13Z</time>
      </trkpt>
      <trkpt lat="40.0136710" lon="-0.6959620">
        <ele>946.4</ele>
        <time>2019-07-04T19:08:17Z</time>
      </trkpt>
      <trkpt lat="40.0137840" lon="-0.6960120">
        <ele>946.4</ele>
        <time>2019-07-04T19:08:19Z</time>
      </trkpt>
      <trkpt lat="40.0140730" lon="-0.6961290">
        <ele>946.4</ele>
        <time>2019-07-04T19:08:24Z</time>
      </trkpt>
      <trkpt lat="40.0142500" lon="-0.6961770">
        <ele>946.4</ele>
        <time>2019-07-04T19:08:27Z</time>
      </trkpt>
      <trkpt lat="40.0143090" lon="-0.6961940">
        <ele>946.4</ele>
        <time>2019-07-04T19:08:28Z</time>
      </trkpt>
      <trkpt lat="40.0147240" lon="-0.6963360">
        <ele>945.8</ele>
        <time>2019-07-04T19:08:35Z</time>
      </trkpt>
      <trkpt lat="40.0147820" lon="-0.6963690">
        <ele>945.8</ele>
        <time>2019-07-04T19:08:36Z</time>
      </trkpt>
      <trkpt lat="40.0149490" lon="-0.6965030">
        <ele>945.4</ele>
        <time>2019-07-04T19:08:39Z</time>
      </trkpt>
      <trkpt lat="40.0150010" lon="-0.6965590">
        <ele>945.4</ele>
        <time>2019-07-04T19:08:40Z</time>
      </trkpt>
      <trkpt lat="40.0150950" lon="-0.6966880">
        <ele>945.2</ele>
        <time>2019-07-04T19:08:42Z</time>
      </trkpt>
      <trkpt lat="40.0151930" lon="-0.6968130">
        <ele>945.0</ele>
        <time>2019-07-04T19:08:44Z</time>
      </trkpt>
      <trkpt lat="40.0154960" lon="-0.6971530">
        <ele>944.4</ele>
        <time>2019-07-04T19:08:50Z</time>
      </trkpt>
      <trkpt lat="40.0156900" lon="-0.6973660">
        <ele>944.0</ele>
        <time>2019-07-04T19:08:54Z</time>
      </trkpt>
      <trkpt lat="40.0157910" lon="-0.6974480">
        <ele>943.8</ele>
        <time>2019-07-04T19:08:56Z</time>
      </trkpt>
      <trkpt lat="40.0159310" lon="-0.6975110">
        <ele>943.4</ele>
        <time>2019-07-04T19:08:59Z</time>
      </trkpt>
      <trkpt lat="40.0159680" lon="-0.6975310">
        <ele>943.2</ele>
        <time>2019-07-04T19:09:00Z</time>
      </trkpt>
      <trkpt lat="40.0160200" lon="-0.6976550">
        <ele>943.2</ele>
        <time>2019-07-04T19:09:04Z</time>
      </trkpt>
      <trkpt lat="40.0160060" lon="-0.6977330">
        <ele>943.4</ele>
        <time>2019-07-04T19:09:06Z</time>
      </trkpt>
      <trkpt lat="40.0159890" lon="-0.6978380">
        <ele>943.8</ele>
        <time>2019-07-04T19:09:09Z</time>
      </trkpt>
      <trkpt lat="40.0159930" lon="-0.6979360">
        <ele>944.4</ele>
        <time>2019-07-04T19:09:12Z</time>
      </trkpt>
      <trkpt lat="40.0160550" lon="-0.6979610">
        <ele>944.8</ele>
        <time>2019-07-04T19:09:14Z</time>
      </trkpt>
      <trkpt lat="40.0160940" lon="-0.6979630">
        <ele>944.8</ele>
        <time>2019-07-04T19:09:15Z</time>
      </trkpt>
      <trkpt lat="40.0161790" lon="-0.6979770">
        <ele>944.8</ele>
        <time>2019-07-04T19:09:17Z</time>
      </trkpt>
      <trkpt lat="40.0163110" lon="-0.6980260">
        <ele>944.8</ele>
        <time>2019-07-04T19:09:20Z</time>
      </trkpt>
      <trkpt lat="40.0165460" lon="-0.6981310">
        <ele>944.8</ele>
        <time>2019-07-04T19:09:25Z</time>
      </trkpt>
      <trkpt lat="40.0174820" lon="-0.6985920">
        <ele>980.4</ele>
        <time>2019-07-05T04:45:37Z</time>
      </trkpt>
      <trkpt lat="40.0174540" lon="-0.6985750">
        <ele>980.4</ele>
        <time>2019-07-05T04:45:40Z</time>
      </trkpt>
      <trkpt lat="40.0174350" lon="-0.6985600">
        <ele>980.4</ele>
        <time>2019-07-05T04:45:41Z</time>
      </trkpt>
      <trkpt lat="40.0174190" lon="-0.6985450">
        <ele>980.6</ele>
        <time>2019-07-05T04:45:42Z</time>
      </trkpt>
      <trkpt lat="40.0174030" lon="-0.6985300">
        <ele>980.4</ele>
        <time>2019-07-05T04:45:43Z</time>
      </trkpt>
      <trkpt lat="40.0173610" lon="-0.6984970">
        <ele>980.4</ele>
        <time>2019-07-05T04:45:45Z</time>
      </trkpt>
      <trkpt lat="40.0172880" lon="-0.6984690">
        <ele>980.6</ele>
        <time>2019-07-05T04:45:47Z</time>
      </trkpt>
      <trkpt lat="40.0172460" lon="-0.6984510">
        <ele>980.6</ele>
        <time>2019-07-05T04:45:48Z</time>
      </trkpt>
      <trkpt lat="40.0171970" lon="-0.6984410">
        <ele>980.8</ele>
        <time>2019-07-05T04:45:49Z</time>
      </trkpt>
      <trkpt lat="40.0171190" lon="-0.6984170">
        <ele>980.8</ele>
        <time>2019-07-05T04:45:51Z</time>
      </trkpt>
      <trkpt lat="40.0170800" lon="-0.6984180">
        <ele>981.0</ele>
        <time>2019-07-05T04:45:52Z</time>
      </trkpt>
      <trkpt lat="40.0170380" lon="-0.6984230">
        <ele>981.0</ele>
        <time>2019-07-05T04:45:53Z</time>
      </trkpt>
      <trkpt lat="40.0169580" lon="-0.6984070">
        <ele>981.0</ele>
        <time>2019-07-05T04:45:55Z</time>
      </trkpt>
      <trkpt lat="40.0168730" lon="-0.6983870">
        <ele>980.8</ele>
        <time>2019-07-05T04:45:57Z</time>
      </trkpt>
      <trkpt lat="40.0167600" lon="-0.6984840">
        <ele>980.4</ele>
        <time>2019-07-05T04:46:00Z</time>
      </trkpt>
      <trkpt lat="40.0167400" lon="-0.6985440">
        <ele>980.2</ele>
        <time>2019-07-05T04:46:01Z</time>
      </trkpt>
      <trkpt lat="40.0167020" lon="-0.6986630">
        <ele>979.8</ele>
        <time>2019-07-05T04:46:03Z</time>
      </trkpt>
      <trkpt lat="40.0167160" lon="-0.6988620">
        <ele>980.4</ele>
        <time>2019-07-05T04:46:07Z</time>
      </trkpt>
      <trkpt lat="40.0168220" lon="-0.6989340">
        <ele>980.8</ele>
        <time>2019-07-05T04:46:10Z</time>
      </trkpt>
      <trkpt lat="40.0168620" lon="-0.6989540">
        <ele>980.8</ele>
        <time>2019-07-05T04:46:11Z</time>
      </trkpt>
      <trkpt lat="40.0169830" lon="-0.6990190">
        <ele>981.2</ele>
        <time>2019-07-05T04:46:14Z</time>
      </trkpt>
      <trkpt lat="40.0170990" lon="-0.6990750">
        <ele>981.4</ele>
        <time>2019-07-05T04:46:17Z</time>
      </trkpt>
      <trkpt lat="40.0171370" lon="-0.6990920">
        <ele>981.4</ele>
        <time>2019-07-05T04:46:18Z</time>
      </trkpt>
      <trkpt lat="40.0172950" lon="-0.6991770">
        <ele>982.0</ele>
        <time>2019-07-05T04:46:22Z</time>
      </trkpt>
      <trkpt lat="40.0174190" lon="-0.6992490">
        <ele>982.4</ele>
        <time>2019-07-05T04:46:25Z</time>
      </trkpt>
      <trkpt lat="40.0174630" lon="-0.6992710">
        <ele>982.4</ele>
        <time>2019-07-05T04:46:26Z</time>
      </trkpt>
      <trkpt lat="40.0176410" lon="-0.6993510">
        <ele>982.8</ele>
        <time>2019-07-05T04:46:30Z</time>
      </trkpt>
      <trkpt lat="40.0176840" lon="-0.6993770">
        <ele>982.8</ele>
        <time>2019-07-05T04:46:31Z</time>
      </trkpt>
      <trkpt lat="40.0177250" lon="-0.6994080">
        <ele>983.0</ele>
        <time>2019-07-05T04:46:32Z</time>
      </trkpt>
      <trkpt lat="40.0178570" lon="-0.6995040">
        <ele>983.6</ele>
        <time>2019-07-05T04:46:35Z</time>
      </trkpt>
      <trkpt lat="40.0179450" lon="-0.6995480">
        <ele>984.4</ele>
        <time>2019-07-05T04:46:38Z</time>
      </trkpt>
      <trkpt lat="40.0180060" lon="-0.6995380">
        <ele>984.8</ele>
        <time>2019-07-05T04:46:40Z</time>
      </trkpt>
      <trkpt lat="40.0181070" lon="-0.6995440">
        <ele>985.0</ele>
        <time>2019-07-05T04:46:43Z</time>
      </trkpt>
      <trkpt lat="40.0183570" lon="-0.6996530">
        <ele>985.0</ele>
        <time>2019-07-05T04:46:49Z</time>
      </trkpt>
      <trkpt lat="40.0187700" lon="-0.6998650">
        <ele>984.6</ele>
        <time>2019-07-05T04:46:57Z</time>
      </trkpt>
      <trkpt lat="40.0191270" lon="-0.7000320">
        <ele>983.6</ele>
        <time>2019-07-05T04:47:03Z</time>
      </trkpt>
      <trkpt lat="40.0192500" lon="-0.7000870">
        <ele>983.4</ele>
        <time>2019-07-05T04:47:05Z</time>
      </trkpt>
      <trkpt lat="40.0195600" lon="-0.7002270">
        <ele>983.4</ele>
        <time>2019-07-05T04:47:10Z</time>
      </trkpt>
      <trkpt lat="40.0199310" lon="-0.7003920">
        <ele>983.0</ele>
        <time>2019-07-05T04:47:16Z</time>
      </trkpt>
      <trkpt lat="40.0200530" lon="-0.7004460">
        <ele>983.0</ele>
        <time>2019-07-05T04:47:18Z</time>
      </trkpt>
      <trkpt lat="40.0202970" lon="-0.7005570">
        <ele>982.6</ele>
        <time>2019-07-05T04:47:22Z</time>
      </trkpt>
      <trkpt lat="40.0207840" lon="-0.7007850">
        <ele>983.0</ele>
        <time>2019-07-05T04:47:30Z</time>
      </trkpt>
      <trkpt lat="40.0211340" lon="-0.7009910">
        <ele>982.4</ele>
        <time>2019-07-05T04:47:36Z</time>
      </trkpt>
      <trkpt lat="40.0213030" lon="-0.7011080">
        <ele>982.2</ele>
        <time>2019-07-05T04:47:39Z</time>
      </trkpt>
      <trkpt lat="40.0217830" lon="-0.7015140">
        <ele>982.2</ele>
        <time>2019-07-05T04:47:48Z</time>
      </trkpt>
      <trkpt lat="40.0221880" lon="-0.7019040">
        <ele>981.6</ele>
        <time>2019-07-05T04:47:56Z</time>
      </trkpt>
      <trkpt lat="40.0223350" lon="-0.7020550">
        <ele>981.6</ele>
        <time>2019-07-05T04:47:59Z</time>
      </trkpt>
      <trkpt lat="40.0227010" lon="-0.7024810">
        <ele>981.2</ele>
        <time>2019-07-05T04:48:07Z</time>
      </trkpt>
      <trkpt lat="40.0230700" lon="-0.7030250">
        <ele>981.0</ele>
        <time>2019-07-05T04:48:16Z</time>
      </trkpt>
      <trkpt lat="40.0234020" lon="-0.7036290">
        <ele>980.6</ele>
        <time>2019-07-05T04:48:25Z</time>
      </trkpt>
      <trkpt lat="40.0234750" lon="-0.7037640">
        <ele>980.4</ele>
        <time>2019-07-05T04:48:27Z</time>
      </trkpt>
      <trkpt lat="40.0238060" lon="-0.7043790">
        <ele>980.4</ele>
        <time>2019-07-05T04:48:36Z</time>
      </trkpt>
      <trkpt lat="40.0241410" lon="-0.7049880">
        <ele>979.8</ele>
        <time>2019-07-05T04:48:45Z</time>
      </trkpt>
      <trkpt lat="40.0241780" lon="-0.7050550">
        <ele>979.8</ele>
        <time>2019-07-05T04:48:46Z</time>
      </trkpt>
      <trkpt lat="40.0245090" lon="-0.7056690">
        <ele>979.8</ele>
        <time>2019-07-05T04:48:55Z</time>
      </trkpt>
      <trkpt lat="40.0245470" lon="-0.7057380">
        <ele>979.8</ele>
        <time>2019-07-05T04:48:56Z</time>
      </trkpt>
      <trkpt lat="40.0245850" lon="-0.7058070">
        <ele>979.6</ele>
        <time>2019-07-05T04:48:57Z</time>
      </trkpt>
      <trkpt lat="40.0249260" lon="-0.7064310">
        <ele>979.6</ele>
        <time>2019-07-05T04:49:06Z</time>
      </trkpt>
      <trkpt lat="40.0251950" lon="-0.7070110">
        <ele>978.8</ele>
        <time>2019-07-05T04:49:14Z</time>
      </trkpt>
      <trkpt lat="40.0253590" lon="-0.7075560">
        <ele>979.2</ele>
        <time>2019-07-05T04:49:21Z</time>
      </trkpt>
      <trkpt lat="40.0254570" lon="-0.7082030">
        <ele>979.0</ele>
        <time>2019-07-05T04:49:29Z</time>
      </trkpt>
      <trkpt lat="40.0254510" lon="-0.7087790">
        <ele>978.6</ele>
        <time>2019-07-05T04:49:36Z</time>
      </trkpt>
      <trkpt lat="40.0253640" lon="-0.7093990">
        <ele>978.4</ele>
        <time>2019-07-05T04:49:44Z</time>
      </trkpt>
      <trkpt lat="40.0251840" lon="-0.7100630">
        <ele>978.2</ele>
        <time>2019-07-05T04:49:53Z</time>
      </trkpt>
      <trkpt lat="40.0250530" lon="-0.7105250">
        <ele>977.6</ele>
        <time>2019-07-05T04:49:59Z</time>
      </trkpt>
      <trkpt lat="40.0250290" lon="-0.7106020">
        <ele>977.6</ele>
        <time>2019-07-05T04:50:00Z</time>
      </trkpt>
      <trkpt lat="40.0248310" lon="-0.7113050">
        <ele>977.8</ele>
        <time>2019-07-05T04:50:09Z</time>
      </trkpt>
      <trkpt lat="40.0247870" lon="-0.7114600">
        <ele>977.6</ele>
        <time>2019-07-05T04:50:11Z</time>
      </trkpt>
      <trkpt lat="40.0247240" lon="-0.7116920">
        <ele>977.2</ele>
        <time>2019-07-05T04:50:14Z</time>
      </trkpt>
      <trkpt lat="40.0246160" lon="-0.7120830">
        <ele>976.8</ele>
        <time>2019-07-05T04:50:19Z</time>
      </trkpt>
      <trkpt lat="40.0244200" lon="-0.7128010">
        <ele>976.8</ele>
        <time>2019-07-05T04:50:28Z</time>
      </trkpt>
      <trkpt lat="40.0243990" lon="-0.7128810">
        <ele>976.6</ele>
        <time>2019-07-05T04:50:29Z</time>
      </trkpt>
      <trkpt lat="40.0241960" lon="-0.7135860">
        <ele>976.0</ele>
        <time>2019-07-05T04:50:38Z</time>
      </trkpt>
      <trkpt lat="40.0240800" lon="-0.7141400">
        <ele>976.2</ele>
        <time>2019-07-05T04:50:45Z</time>
      </trkpt>
      <trkpt lat="40.0240430" lon="-0.7147940">
        <ele>976.0</ele>
        <time>2019-07-05T04:50:53Z</time>
      </trkpt>
      <trkpt lat="40.0241100" lon="-0.7155080">
        <ele>975.6</ele>
        <time>2019-07-05T04:51:02Z</time>
      </trkpt>
      <trkpt lat="40.0241630" lon="-0.7158190">
        <ele>975.6</ele>
        <time>2019-07-05T04:51:06Z</time>
      </trkpt>
      <trkpt lat="40.0242140" lon="-0.7161240">
        <ele>975.4</ele>
        <time>2019-07-05T04:51:10Z</time>
      </trkpt>
      <trkpt lat="40.0242640" lon="-0.7164240">
        <ele>975.6</ele>
        <time>2019-07-05T04:51:14Z</time>
      </trkpt>
      <trkpt lat="40.0242890" lon="-0.7165800">
        <ele>975.4</ele>
        <time>2019-07-05T04:51:16Z</time>
      </trkpt>
      <trkpt lat="40.0243720" lon="-0.7170260">
        <ele>975.0</ele>
        <time>2019-07-05T04:51:22Z</time>
      </trkpt>
      <trkpt lat="40.0244860" lon="-0.7176970">
        <ele>975.0</ele>
        <time>2019-07-05T04:51:31Z</time>
      </trkpt>
      <trkpt lat="40.0245380" lon="-0.7179930">
        <ele>974.8</ele>
        <time>2019-07-05T04:51:35Z</time>
      </trkpt>
      <trkpt lat="40.0245750" lon="-0.7182170">
        <ele>974.4</ele>
        <time>2019-07-05T04:51:38Z</time>
      </trkpt>
      <trkpt lat="40.0246680" lon="-0.7187390">
        <ele>974.0</ele>
        <time>2019-07-05T04:51:45Z</time>
      </trkpt>
      <trkpt lat="40.0247190" lon="-0.7190440">
        <ele>973.8</ele>
        <time>2019-07-05T04:51:49Z</time>
      </trkpt>
      <trkpt lat="40.0247860" lon="-0.7194230">
        <ele>973.8</ele>
        <time>2019-07-05T04:51:54Z</time>
      </trkpt>
      <trkpt lat="40.0249030" lon="-0.7201100">
        <ele>973.6</ele>
        <time>2019-07-05T04:52:03Z</time>
      </trkpt>
      <trkpt lat="40.0250200" lon="-0.7208100">
        <ele>973.0</ele>
        <time>2019-07-05T04:52:12Z</time>
      </trkpt>
      <trkpt lat="40.0250350" lon="-0.7208860">
        <ele>973.0</ele>
        <time>2019-07-05T04:52:13Z</time>
      </trkpt>
      <trkpt lat="40.0251610" lon="-0.7214840">
        <ele>973.2</ele>
        <time>2019-07-05T04:52:21Z</time>
      </trkpt>
      <trkpt lat="40.0253370" lon="-0.7219760">
        <ele>972.8</ele>
        <time>2019-07-05T04:52:28Z</time>
      </trkpt>
      <trkpt lat="40.0253970" lon="-0.7220970">
        <ele>972.6</ele>
        <time>2019-07-05T04:52:30Z</time>
      </trkpt>
      <trkpt lat="40.0255040" lon="-0.7222650">
        <ele>973.0</ele>
        <time>2019-07-05T04:52:33Z</time>
      </trkpt>
      <trkpt lat="40.0256600" lon="-0.7224840">
        <ele>972.8</ele>
        <time>2019-07-05T04:52:37Z</time>
      </trkpt>
      <trkpt lat="40.0257440" lon="-0.7225920">
        <ele>972.6</ele>
        <time>2019-07-05T04:52:39Z</time>
      </trkpt>
      <trkpt lat="40.0260790" lon="-0.7229180">
        <ele>971.8</ele>
        <time>2019-07-05T04:52:46Z</time>
      </trkpt>
      <trkpt lat="40.0265030" lon="-0.7232050">
        <ele>972.4</ele>
        <time>2019-07-05T04:52:54Z</time>
      </trkpt>
      <trkpt lat="40.0267820" lon="-0.7233150">
        <ele>971.6</ele>
        <time>2019-07-05T04:52:59Z</time>
      </trkpt>
      <trkpt lat="40.0268410" lon="-0.7233310">
        <ele>971.6</ele>
        <time>2019-07-05T04:53:00Z</time>
      </trkpt>
      <trkpt lat="40.0270240" lon="-0.7233560">
        <ele>971.6</ele>
        <time>2019-07-05T04:53:03Z</time>
      </trkpt>
      <trkpt lat="40.0272050" lon="-0.7233690">
        <ele>971.6</ele>
        <time>2019-07-05T04:53:06Z</time>
      </trkpt>
      <trkpt lat="40.0276290" lon="-0.7233320">
        <ele>971.8</ele>
        <time>2019-07-05T04:53:13Z</time>
      </trkpt>
      <trkpt lat="40.0279880" lon="-0.7232130">
        <ele>971.6</ele>
        <time>2019-07-05T04:53:19Z</time>
      </trkpt>
      <trkpt lat="40.0283960" lon="-0.7229820">
        <ele>971.4</ele>
        <time>2019-07-05T04:53:26Z</time>
      </trkpt>
      <trkpt lat="40.0287490" lon="-0.7226540">
        <ele>971.0</ele>
        <time>2019-07-05T04:53:33Z</time>
      </trkpt>
      <trkpt lat="40.0290910" lon="-0.7222090">
        <ele>970.8</ele>
        <time>2019-07-05T04:53:41Z</time>
      </trkpt>
      <trkpt lat="40.0293750" lon="-0.7217870">
        <ele>971.2</ele>
        <time>2019-07-05T04:53:48Z</time>
      </trkpt>
      <trkpt lat="40.0296510" lon="-0.7213620">
        <ele>972.0</ele>
        <time>2019-07-05T04:53:55Z</time>
      </trkpt>
      <trkpt lat="40.0297300" lon="-0.7212440">
        <ele>972.0</ele>
        <time>2019-07-05T04:53:57Z</time>
      </trkpt>
      <trkpt lat="40.0300510" lon="-0.7207790">
        <ele>971.2</ele>
        <time>2019-07-05T04:54:05Z</time>
      </trkpt>
      <trkpt lat="40.0303290" lon="-0.7203830">
        <ele>971.4</ele>
        <time>2019-07-05T04:54:12Z</time>
      </trkpt>
      <trkpt lat="40.0306210" lon="-0.7199000">
        <ele>972.0</ele>
        <time>2019-07-05T04:54:20Z</time>
      </trkpt>
      <trkpt lat="40.0309020" lon="-0.7195050">
        <ele>971.8</ele>
        <time>2019-07-05T04:54:27Z</time>
      </trkpt>
      <trkpt lat="40.0312300" lon="-0.7191730">
        <ele>972.0</ele>
        <time>2019-07-05T04:54:34Z</time>
      </trkpt>
      <trkpt lat="40.0315820" lon="-0.7188950">
        <ele>972.2</ele>
        <time>2019-07-05T04:54:41Z</time>
      </trkpt>
      <trkpt lat="40.0316360" lon="-0.7188620">
        <ele>972.2</ele>
        <time>2019-07-05T04:54:42Z</time>
      </trkpt>
      <trkpt lat="40.0321930" lon="-0.7186070">
        <ele>972.6</ele>
        <time>2019-07-05T04:54:52Z</time>
      </trkpt>
      <trkpt lat="40.0325990" lon="-0.7185030">
        <ele>972.0</ele>
        <time>2019-07-05T04:54:59Z</time>
      </trkpt>
      <trkpt lat="40.0331420" lon="-0.7183750">
        <ele>972.2</ele>
        <time>2019-07-05T04:55:08Z</time>
      </trkpt>
      <trkpt lat="40.0332030" lon="-0.7183580">
        <ele>972.0</ele>
        <time>2019-07-05T04:55:09Z</time>
      </trkpt>
      <trkpt lat="40.0337560" lon="-0.7182340">
        <ele>972.4</ele>
        <time>2019-07-05T04:55:18Z</time>
      </trkpt>
      <trkpt lat="40.0338190" lon="-0.7182270">
        <ele>972.4</ele>
        <time>2019-07-05T04:55:19Z</time>
      </trkpt>
      <trkpt lat="40.0342650" lon="-0.7182390">
        <ele>972.4</ele>
        <time>2019-07-05T04:55:26Z</time>
      </trkpt>
      <trkpt lat="40.0346980" lon="-0.7183690">
        <ele>972.4</ele>
        <time>2019-07-05T04:55:33Z</time>
      </trkpt>
      <trkpt lat="40.0351070" lon="-0.7186080">
        <ele>972.2</ele>
        <time>2019-07-05T04:55:40Z</time>
      </trkpt>
      <trkpt lat="40.0354720" lon="-0.7189510">
        <ele>972.2</ele>
        <time>2019-07-05T04:55:47Z</time>
      </trkpt>
      <trkpt lat="40.0357770" lon="-0.7193790">
        <ele>972.0</ele>
        <time>2019-07-05T04:55:54Z</time>
      </trkpt>
      <trkpt lat="40.0360370" lon="-0.7199510">
        <ele>972.4</ele>
        <time>2019-07-05T04:56:02Z</time>
      </trkpt>
      <trkpt lat="40.0362290" lon="-0.7205560">
        <ele>972.2</ele>
        <time>2019-07-05T04:56:10Z</time>
      </trkpt>
      <trkpt lat="40.0364350" lon="-0.7212310">
        <ele>972.6</ele>
        <time>2019-07-05T04:56:19Z</time>
      </trkpt>
      <trkpt lat="40.0364590" lon="-0.7213060">
        <ele>972.4</ele>
        <time>2019-07-05T04:56:20Z</time>
      </trkpt>
      <trkpt lat="40.0366780" lon="-0.7219820">
        <ele>971.8</ele>
        <time>2019-07-05T04:56:29Z</time>
      </trkpt>
      <trkpt lat="40.0368900" lon="-0.7226470">
        <ele>972.2</ele>
        <time>2019-07-05T04:56:38Z</time>
      </trkpt>
      <trkpt lat="40.0370960" lon="-0.7233170">
        <ele>972.0</ele>
        <time>2019-07-05T04:56:47Z</time>
      </trkpt>
      <trkpt lat="40.0372850" lon="-0.7239190">
        <ele>971.8</ele>
        <time>2019-07-05T04:56:55Z</time>
      </trkpt>
      <trkpt lat="40.0374780" lon="-0.7245060">
        <ele>972.0</ele>
        <time>2019-07-05T04:57:03Z</time>
      </trkpt>
      <trkpt lat="40.0376590" lon="-0.7250830">
        <ele>971.8</ele>
        <time>2019-07-05T04:57:11Z</time>
      </trkpt>
      <trkpt lat="40.0378830" lon="-0.7258020">
        <ele>971.8</ele>
        <time>2019-07-05T04:57:21Z</time>
      </trkpt>
      <trkpt lat="40.0379280" lon="-0.7259410">
        <ele>971.6</ele>
        <time>2019-07-05T04:57:23Z</time>
      </trkpt>
      <trkpt lat="40.0381070" lon="-0.7265030">
        <ele>971.6</ele>
        <time>2019-07-05T04:57:31Z</time>
      </trkpt>
      <trkpt lat="40.0383170" lon="-0.7271530">
        <ele>971.4</ele>
        <time>2019-07-05T04:57:40Z</time>
      </trkpt>
      <trkpt lat="40.0385020" lon="-0.7276490">
        <ele>971.0</ele>
        <time>2019-07-05T04:57:47Z</time>
      </trkpt>
      <trkpt lat="40.0385280" lon="-0.7277210">
        <ele>971.0</ele>
        <time>2019-07-05T04:57:48Z</time>
      </trkpt>
      <trkpt lat="40.0387670" lon="-0.7282660">
        <ele>970.6</ele>
        <time>2019-07-05T04:57:56Z</time>
      </trkpt>
      <trkpt lat="40.0389590" lon="-0.7286580">
        <ele>970.4</ele>
        <time>2019-07-05T04:58:02Z</time>
      </trkpt>
      <trkpt lat="40.0390590" lon="-0.7288460">
        <ele>970.4</ele>
        <time>2019-07-05T04:58:05Z</time>
      </trkpt>
      <trkpt lat="40.0392660" lon="-0.7292160">
        <ele>970.6</ele>
        <time>2019-07-05T04:58:11Z</time>
      </trkpt>
      <trkpt lat="40.0393420" lon="-0.7293390">
        <ele>970.8</ele>
        <time>2019-07-05T04:58:13Z</time>
      </trkpt>
      <trkpt lat="40.0396600" lon="-0.7299110">
        <ele>970.4</ele>
        <time>2019-07-05T04:58:22Z</time>
      </trkpt>
      <trkpt lat="40.0396960" lon="-0.7299710">
        <ele>970.4</ele>
        <time>2019-07-05T04:58:23Z</time>
      </trkpt>
      <trkpt lat="40.0399830" lon="-0.7303640">
        <ele>970.0</ele>
        <time>2019-07-05T04:58:30Z</time>
      </trkpt>
      <trkpt lat="40.0400280" lon="-0.7304160">
        <ele>970.2</ele>
        <time>2019-07-05T04:58:31Z</time>
      </trkpt>
      <trkpt lat="40.0403590" lon="-0.7307370">
        <ele>969.8</ele>
        <time>2019-07-05T04:58:38Z</time>
      </trkpt>
      <trkpt lat="40.0407240" lon="-0.7309900">
        <ele>969.4</ele>
        <time>2019-07-05T04:58:45Z</time>
      </trkpt>
      <trkpt lat="40.0411310" lon="-0.7311710">
        <ele>969.6</ele>
        <time>2019-07-05T04:58:52Z</time>
      </trkpt>
      <trkpt lat="40.0414960" lon="-0.7312540">
        <ele>969.4</ele>
        <time>2019-07-05T04:58:58Z</time>
      </trkpt>
      <trkpt lat="40.0419330" lon="-0.7312750">
        <ele>969.6</ele>
        <time>2019-07-05T04:59:05Z</time>
      </trkpt>
      <trkpt lat="40.0421220" lon="-0.7312480">
        <ele>969.0</ele>
        <time>2019-07-05T04:59:08Z</time>
      </trkpt>
      <trkpt lat="40.0424340" lon="-0.7311790">
        <ele>968.8</ele>
        <time>2019-07-05T04:59:13Z</time>
      </trkpt>
      <trkpt lat="40.0428550" lon="-0.7310010">
        <ele>969.2</ele>
        <time>2019-07-05T04:59:20Z</time>
      </trkpt>
      <trkpt lat="40.0431890" lon="-0.7307780">
        <ele>968.8</ele>
        <time>2019-07-05T04:59:26Z</time>
      </trkpt>
      <trkpt lat="40.0433310" lon="-0.7306820">
        <ele>968.8</ele>
        <time>2019-07-05T04:59:29Z</time>
      </trkpt>
      <trkpt lat="40.0434740" lon="-0.7305780">
        <ele>968.8</ele>
        <time>2019-07-05T04:59:32Z</time>
      </trkpt>
      <trkpt lat="40.0438310" lon="-0.7303370">
        <ele>969.2</ele>
        <time>2019-07-05T04:59:39Z</time>
      </trkpt>
      <trkpt lat="40.0442640" lon="-0.7300460">
        <ele>969.0</ele>
        <time>2019-07-05T04:59:47Z</time>
      </trkpt>
      <trkpt lat="40.0447140" lon="-0.7297310">
        <ele>968.4</ele>
        <time>2019-07-05T04:59:55Z</time>
      </trkpt>
      <trkpt lat="40.0449400" lon="-0.7295730">
        <ele>968.0</ele>
        <time>2019-07-05T04:59:59Z</time>
      </trkpt>
      <trkpt lat="40.0453360" lon="-0.7293080">
        <ele>967.8</ele>
        <time>2019-07-05T05:00:06Z</time>
      </trkpt>
      <trkpt lat="40.0455140" lon="-0.7292080">
        <ele>967.6</ele>
        <time>2019-07-05T05:00:09Z</time>
      </trkpt>
      <trkpt lat="40.0456970" lon="-0.7291320">
        <ele>967.6</ele>
        <time>2019-07-05T05:00:12Z</time>
      </trkpt>
      <trkpt lat="40.0461940" lon="-0.7289990">
        <ele>967.6</ele>
        <time>2019-07-05T05:00:20Z</time>
      </trkpt>
      <trkpt lat="40.0466990" lon="-0.7289590">
        <ele>967.4</ele>
        <time>2019-07-05T05:00:28Z</time>
      </trkpt>
      <trkpt lat="40.0470790" lon="-0.7290070">
        <ele>967.0</ele>
        <time>2019-07-05T05:00:34Z</time>
      </trkpt>
      <trkpt lat="40.0472660" lon="-0.7290410">
        <ele>966.8</ele>
        <time>2019-07-05T05:00:37Z</time>
      </trkpt>
      <trkpt lat="40.0477120" lon="-0.7291320">
        <ele>966.6</ele>
        <time>2019-07-05T05:00:44Z</time>
      </trkpt>
      <trkpt lat="40.0477750" lon="-0.7291450">
        <ele>966.4</ele>
        <time>2019-07-05T05:00:45Z</time>
      </trkpt>
      <trkpt lat="40.0481470" lon="-0.7292150">
        <ele>966.4</ele>
        <time>2019-07-05T05:00:51Z</time>
      </trkpt>
      <trkpt lat="40.0484550" lon="-0.7292800">
        <ele>966.2</ele>
        <time>2019-07-05T05:00:56Z</time>
      </trkpt>
      <trkpt lat="40.0485760" lon="-0.7293050">
        <ele>966.0</ele>
        <time>2019-07-05T05:00:58Z</time>
      </trkpt>
      <trkpt lat="40.0490540" lon="-0.7293890">
        <ele>966.0</ele>
        <time>2019-07-05T05:01:06Z</time>
      </trkpt>
      <trkpt lat="40.0495120" lon="-0.7294910">
        <ele>965.8</ele>
        <time>2019-07-05T05:01:14Z</time>
      </trkpt>
      <trkpt lat="40.0499890" lon="-0.7295790">
        <ele>965.4</ele>
        <time>2019-07-05T05:01:22Z</time>
      </trkpt>
      <trkpt lat="40.0504160" lon="-0.7296580">
        <ele>965.2</ele>
        <time>2019-07-05T05:01:29Z</time>
      </trkpt>
      <trkpt lat="40.0507230" lon="-0.7297190">
        <ele>965.0</ele>
        <time>2019-07-05T05:01:34Z</time>
      </trkpt>
      <trkpt lat="40.0512720" lon="-0.7298280">
        <ele>964.6</ele>
        <time>2019-07-05T05:01:43Z</time>
      </trkpt>
      <trkpt lat="40.0514570" lon="-0.7298610">
        <ele>964.4</ele>
        <time>2019-07-05T05:01:46Z</time>
      </trkpt>
      <trkpt lat="40.0517660" lon="-0.7299190">
        <ele>964.0</ele>
        <time>2019-07-05T05:01:51Z</time>
      </trkpt>
      <trkpt lat="40.0520190" lon="-0.7299670">
        <ele>964.0</ele>
        <time>2019-07-05T05:01:55Z</time>
      </trkpt>
      <trkpt lat="40.0525310" lon="-0.7300650">
        <ele>963.4</ele>
        <time>2019-07-05T05:02:03Z</time>
      </trkpt>
      <trkpt lat="40.0531100" lon="-0.7301760">
        <ele>963.4</ele>
        <time>2019-07-05T05:02:12Z</time>
      </trkpt>
      <trkpt lat="40.0532340" lon="-0.7302020">
        <ele>963.2</ele>
        <time>2019-07-05T05:02:14Z</time>
      </trkpt>
      <trkpt lat="40.0533570" lon="-0.7302230">
        <ele>963.0</ele>
        <time>2019-07-05T05:02:16Z</time>
      </trkpt>
      <trkpt lat="40.0536570" lon="-0.7302780">
        <ele>963.0</ele>
        <time>2019-07-05T05:02:21Z</time>
      </trkpt>
      <trkpt lat="40.0540020" lon="-0.7303400">
        <ele>962.8</ele>
        <time>2019-07-05T05:02:27Z</time>
      </trkpt>
      <trkpt lat="40.0541150" lon="-0.7303700">
        <ele>962.8</ele>
        <time>2019-07-05T05:02:29Z</time>
      </trkpt>
      <trkpt lat="40.0546310" lon="-0.7304780">
        <ele>962.8</ele>
        <time>2019-07-05T05:02:38Z</time>
      </trkpt>
      <trkpt lat="40.0546920" lon="-0.7304890">
        <ele>962.8</ele>
        <time>2019-07-05T05:02:39Z</time>
      </trkpt>
      <trkpt lat="40.0552650" lon="-0.7305940">
        <ele>962.2</ele>
        <time>2019-07-05T05:02:48Z</time>
      </trkpt>
      <trkpt lat="40.0555180" lon="-0.7306440">
        <ele>962.0</ele>
        <time>2019-07-05T05:02:52Z</time>
      </trkpt>
      <trkpt lat="40.0558370" lon="-0.7306710">
        <ele>961.6</ele>
        <time>2019-07-05T05:02:57Z</time>
      </trkpt>
      <trkpt lat="40.0562800" lon="-0.7306010">
        <ele>961.6</ele>
        <time>2019-07-05T05:03:04Z</time>
      </trkpt>
      <trkpt lat="40.0566430" lon="-0.7304450">
        <ele>961.4</ele>
        <time>2019-07-05T05:03:10Z</time>
      </trkpt>
      <trkpt lat="40.0570500" lon="-0.7301550">
        <ele>961.4</ele>
        <time>2019-07-05T05:03:17Z</time>
      </trkpt>
      <trkpt lat="40.0573760" lon="-0.7298560">
        <ele>961.0</ele>
        <time>2019-07-05T05:03:23Z</time>
      </trkpt>
      <trkpt lat="40.0575430" lon="-0.7297070">
        <ele>961.0</ele>
        <time>2019-07-05T05:03:26Z</time>
      </trkpt>
      <trkpt lat="40.0575980" lon="-0.7296570">
        <ele>961.0</ele>
        <time>2019-07-05T05:03:27Z</time>
      </trkpt>
      <trkpt lat="40.0578700" lon="-0.7294070">
        <ele>961.2</ele>
        <time>2019-07-05T05:03:32Z</time>
      </trkpt>
      <trkpt lat="40.0580910" lon="-0.7292140">
        <ele>961.0</ele>
        <time>2019-07-05T05:03:36Z</time>
      </trkpt>
      <trkpt lat="40.0581480" lon="-0.7291710">
        <ele>961.0</ele>
        <time>2019-07-05T05:03:37Z</time>
      </trkpt>
      <trkpt lat="40.0585250" lon="-0.7288360">
        <ele>960.6</ele>
        <time>2019-07-05T05:03:44Z</time>
      </trkpt>
      <trkpt lat="40.0588510" lon="-0.7285350">
        <ele>960.2</ele>
        <time>2019-07-05T05:03:50Z</time>
      </trkpt>
      <trkpt lat="40.0592970" lon="-0.7281370">
        <ele>960.0</ele>
        <time>2019-07-05T05:03:58Z</time>
      </trkpt>
      <trkpt lat="40.0595760" lon="-0.7278940">
        <ele>959.8</ele>
        <time>2019-07-05T05:04:03Z</time>
      </trkpt>
      <trkpt lat="40.0599040" lon="-0.7276200">
        <ele>959.4</ele>
        <time>2019-07-05T05:04:09Z</time>
      </trkpt>
      <trkpt lat="40.0601670" lon="-0.7273860">
        <ele>959.2</ele>
        <time>2019-07-05T05:04:14Z</time>
      </trkpt>
      <trkpt lat="40.0603850" lon="-0.7272050">
        <ele>958.8</ele>
        <time>2019-07-05T05:04:18Z</time>
      </trkpt>
      <trkpt lat="40.0608400" lon="-0.7267940">
        <ele>959.8</ele>
        <time>2019-07-05T05:04:27Z</time>
      </trkpt>
      <trkpt lat="40.0612430" lon="-0.7264600">
        <ele>959.2</ele>
        <time>2019-07-05T05:04:35Z</time>
      </trkpt>
      <trkpt lat="40.0615670" lon="-0.7262740">
        <ele>959.6</ele>
        <time>2019-07-05T05:04:41Z</time>
      </trkpt>
      <trkpt lat="40.0620460" lon="-0.7261230">
        <ele>959.0</ele>
        <time>2019-07-05T05:04:49Z</time>
      </trkpt>
      <trkpt lat="40.0624830" lon="-0.7261160">
        <ele>958.4</ele>
        <time>2019-07-05T05:04:56Z</time>
      </trkpt>
      <trkpt lat="40.0629650" lon="-0.7262280">
        <ele>958.2</ele>
        <time>2019-07-05T05:05:04Z</time>
      </trkpt>
      <trkpt lat="40.0630260" lon="-0.7262420">
        <ele>958.2</ele>
        <time>2019-07-05T05:05:05Z</time>
      </trkpt>
      <trkpt lat="40.0635650" lon="-0.7263840">
        <ele>957.8</ele>
        <time>2019-07-05T05:05:14Z</time>
      </trkpt>
      <trkpt lat="40.0639060" lon="-0.7265570">
        <ele>957.6</ele>
        <time>2019-07-05T05:05:20Z</time>
      </trkpt>
      <trkpt lat="40.0640720" lon="-0.7266600">
        <ele>957.4</ele>
        <time>2019-07-05T05:05:23Z</time>
      </trkpt>
      <trkpt lat="40.0641800" lon="-0.7267410">
        <ele>957.0</ele>
        <time>2019-07-05T05:05:25Z</time>
      </trkpt>
      <trkpt lat="40.0644930" lon="-0.7270220">
        <ele>957.0</ele>
        <time>2019-07-05T05:05:31Z</time>
      </trkpt>
      <trkpt lat="40.0649420" lon="-0.7274770">
        <ele>957.0</ele>
        <time>2019-07-05T05:05:40Z</time>
      </trkpt>
      <trkpt lat="40.0649920" lon="-0.7275280">
        <ele>956.8</ele>
        <time>2019-07-05T05:05:41Z</time>
      </trkpt>
      <trkpt lat="40.0654540" lon="-0.7279780">
        <ele>956.2</ele>
        <time>2019-07-05T05:05:50Z</time>
      </trkpt>
      <trkpt lat="40.0656120" lon="-0.7281190">
        <ele>956.4</ele>
        <time>2019-07-05T05:05:53Z</time>
      </trkpt>
      <trkpt lat="40.0659440" lon="-0.7283720">
        <ele>956.2</ele>
        <time>2019-07-05T05:05:59Z</time>
      </trkpt>
      <trkpt lat="40.0661130" lon="-0.7284870">
        <ele>956.2</ele>
        <time>2019-07-05T05:06:02Z</time>
      </trkpt>
      <trkpt lat="40.0665440" lon="-0.7286880">
        <ele>955.2</ele>
        <time>2019-07-05T05:06:09Z</time>
      </trkpt>
      <trkpt lat="40.0669990" lon="-0.7287450">
        <ele>955.6</ele>
        <time>2019-07-05T05:06:16Z</time>
      </trkpt>
      <trkpt lat="40.0674320" lon="-0.7286650">
        <ele>955.4</ele>
        <time>2019-07-05T05:06:23Z</time>
      </trkpt>
      <trkpt lat="40.0677760" lon="-0.7284910">
        <ele>955.4</ele>
        <time>2019-07-05T05:06:29Z</time>
      </trkpt>
      <trkpt lat="40.0681210" lon="-0.7282030">
        <ele>956.2</ele>
        <time>2019-07-05T05:06:36Z</time>
      </trkpt>
      <trkpt lat="40.0684550" lon="-0.7279280">
        <ele>956.8</ele>
        <time>2019-07-05T05:06:43Z</time>
      </trkpt>
      <trkpt lat="40.0685910" lon="-0.7278090">
        <ele>957.4</ele>
        <time>2019-07-05T05:06:46Z</time>
      </trkpt>
      <trkpt lat="40.0688060" lon="-0.7276260">
        <ele>958.2</ele>
        <time>2019-07-05T05:06:51Z</time>
      </trkpt>
      <trkpt lat="40.0689830" lon="-0.7274830">
        <ele>958.6</ele>
        <time>2019-07-05T05:06:55Z</time>
      </trkpt>
      <trkpt lat="40.0691660" lon="-0.7273270">
        <ele>958.4</ele>
        <time>2019-07-05T05:06:59Z</time>
      </trkpt>
      <trkpt lat="40.0695180" lon="-0.7270280">
        <ele>959.4</ele>
        <time>2019-07-05T05:07:07Z</time>
      </trkpt>
      <trkpt lat="40.0695620" lon="-0.7269910">
        <ele>959.6</ele>
        <time>2019-07-05T05:07:08Z</time>
      </trkpt>
      <trkpt lat="40.0698200" lon="-0.7267690">
        <ele>960.6</ele>
        <time>2019-07-05T05:07:14Z</time>
      </trkpt>
      <trkpt lat="40.0698620" lon="-0.7267330">
        <ele>960.6</ele>
        <time>2019-07-05T05:07:15Z</time>
      </trkpt>
      <trkpt lat="40.0699040" lon="-0.7266950">
        <ele>960.8</ele>
        <time>2019-07-05T05:07:16Z</time>
      </trkpt>
      <trkpt lat="40.0701670" lon="-0.7264850">
        <ele>961.8</ele>
        <time>2019-07-05T05:07:22Z</time>
      </trkpt>
      <trkpt lat="40.0702130" lon="-0.7264540">
        <ele>961.8</ele>
        <time>2019-07-05T05:07:23Z</time>
      </trkpt>
      <trkpt lat="40.0705400" lon="-0.7262680">
        <ele>963.0</ele>
        <time>2019-07-05T05:07:30Z</time>
      </trkpt>
      <trkpt lat="40.0705870" lon="-0.7262490">
        <ele>963.0</ele>
        <time>2019-07-05T05:07:31Z</time>
      </trkpt>
      <trkpt lat="40.0709380" lon="-0.7261770">
        <ele>963.8</ele>
        <time>2019-07-05T05:07:38Z</time>
      </trkpt>
      <trkpt lat="40.0710430" lon="-0.7261730">
        <ele>964.0</ele>
        <time>2019-07-05T05:07:40Z</time>
      </trkpt>
      <trkpt lat="40.0712030" lon="-0.7261770">
        <ele>964.2</ele>
        <time>2019-07-05T05:07:43Z</time>
      </trkpt>
      <trkpt lat="40.0716300" lon="-0.7262060">
        <ele>964.2</ele>
        <time>2019-07-05T05:07:51Z</time>
      </trkpt>
      <trkpt lat="40.0717970" lon="-0.7262250">
        <ele>964.2</ele>
        <time>2019-07-05T05:07:54Z</time>
      </trkpt>
      <trkpt lat="40.0719640" lon="-0.7262420">
        <ele>964.0</ele>
        <time>2019-07-05T05:07:57Z</time>
      </trkpt>
      <trkpt lat="40.0721920" lon="-0.7262680">
        <ele>964.2</ele>
        <time>2019-07-05T05:08:01Z</time>
      </trkpt>
      <trkpt lat="40.0724230" lon="-0.7263010">
        <ele>964.2</ele>
        <time>2019-07-05T05:08:05Z</time>
      </trkpt>
      <trkpt lat="40.0725920" lon="-0.7263420">
        <ele>964.0</ele>
        <time>2019-07-05T05:08:08Z</time>
      </trkpt>
      <trkpt lat="40.0728720" lon="-0.7264190">
        <ele>964.0</ele>
        <time>2019-07-05T05:08:13Z</time>
      </trkpt>
      <trkpt lat="40.0732980" lon="-0.7265580">
        <ele>964.6</ele>
        <time>2019-07-05T05:08:21Z</time>
      </trkpt>
      <trkpt lat="40.0736170" lon="-0.7266800">
        <ele>965.0</ele>
        <time>2019-07-05T05:08:27Z</time>
      </trkpt>
      <trkpt lat="40.0737660" lon="-0.7267440">
        <ele>965.6</ele>
        <time>2019-07-05T05:08:30Z</time>
      </trkpt>
      <trkpt lat="40.0740070" lon="-0.7268510">
        <ele>966.0</ele>
        <time>2019-07-05T05:08:35Z</time>
      </trkpt>
      <trkpt lat="40.0742010" lon="-0.7269510">
        <ele>966.2</ele>
        <time>2019-07-05T05:08:39Z</time>
      </trkpt>
      <trkpt lat="40.0746930" lon="-0.7272340">
        <ele>966.8</ele>
        <time>2019-07-05T05:08:49Z</time>
      </trkpt>
      <trkpt lat="40.0750780" lon="-0.7275390">
        <ele>966.6</ele>
        <time>2019-07-05T05:08:57Z</time>
      </trkpt>
      <trkpt lat="40.0753190" lon="-0.7277330">
        <ele>965.2</ele>
        <time>2019-07-05T05:09:01Z</time>
      </trkpt>
      <trkpt lat="40.0753880" lon="-0.7277800">
        <ele>965.2</ele>
        <time>2019-07-05T05:09:02Z</time>
      </trkpt>
      <trkpt lat="40.0755970" lon="-0.7279210">
        <ele>964.2</ele>
        <time>2019-07-05T05:09:05Z</time>
      </trkpt>
      <trkpt lat="40.0758000" lon="-0.7280570">
        <ele>963.6</ele>
        <time>2019-07-05T05:09:08Z</time>
      </trkpt>
      <trkpt lat="40.0759930" lon="-0.7281890">
        <ele>963.2</ele>
        <time>2019-07-05T05:09:11Z</time>
      </trkpt>
      <trkpt lat="40.0762310" lon="-0.7283530">
        <ele>962.8</ele>
        <time>2019-07-05T05:09:15Z</time>
      </trkpt>
      <trkpt lat="40.0764620" lon="-0.7285120">
        <ele>962.2</ele>
        <time>2019-07-05T05:09:19Z</time>
      </trkpt>
      <trkpt lat="40.0767420" lon="-0.7286910">
        <ele>962.0</ele>
        <time>2019-07-05T05:09:24Z</time>
      </trkpt>
      <trkpt lat="40.0767980" lon="-0.7287290">
        <ele>962.0</ele>
        <time>2019-07-05T05:09:25Z</time>
      </trkpt>
      <trkpt lat="40.0770770" lon="-0.7289130">
        <ele>962.2</ele>
        <time>2019-07-05T05:09:30Z</time>
      </trkpt>
      <trkpt lat="40.0772440" lon="-0.7290230">
        <ele>962.2</ele>
        <time>2019-07-05T05:09:33Z</time>
      </trkpt>
      <trkpt lat="40.0772990" lon="-0.7290590">
        <ele>962.0</ele>
        <time>2019-07-05T05:09:34Z</time>
      </trkpt>
      <trkpt lat="40.0775760" lon="-0.7292400">
        <ele>961.4</ele>
        <time>2019-07-05T05:09:39Z</time>
      </trkpt>
      <trkpt lat="40.0778010" lon="-0.7293900">
        <ele>961.4</ele>
        <time>2019-07-05T05:09:43Z</time>
      </trkpt>
      <trkpt lat="40.0781410" lon="-0.7296180">
        <ele>961.4</ele>
        <time>2019-07-05T05:09:49Z</time>
      </trkpt>
      <trkpt lat="40.0783150" lon="-0.7297280">
        <ele>961.4</ele>
        <time>2019-07-05T05:09:52Z</time>
      </trkpt>
      <trkpt lat="40.0784310" lon="-0.7298000">
        <ele>961.0</ele>
        <time>2019-07-05T05:09:54Z</time>
      </trkpt>
      <trkpt lat="40.0787130" lon="-0.7299840">
        <ele>960.8</ele>
        <time>2019-07-05T05:09:59Z</time>
      </trkpt>
      <trkpt lat="40.0790510" lon="-0.7302110">
        <ele>960.8</ele>
        <time>2019-07-05T05:10:05Z</time>
      </trkpt>
      <trkpt lat="40.0795020" lon="-0.7305250">
        <ele>960.2</ele>
        <time>2019-07-05T05:10:13Z</time>
      </trkpt>
      <trkpt lat="40.0796110" lon="-0.7306100">
        <ele>960.0</ele>
        <time>2019-07-05T05:10:15Z</time>
      </trkpt>
      <trkpt lat="40.0797720" lon="-0.7307530">
        <ele>959.8</ele>
        <time>2019-07-05T05:10:18Z</time>
      </trkpt>
      <trkpt lat="40.0798310" lon="-0.7307890">
        <ele>959.8</ele>
        <time>2019-07-05T05:10:19Z</time>
      </trkpt>
      <trkpt lat="40.0801620" lon="-0.7309780">
        <ele>959.8</ele>
        <time>2019-07-05T05:10:25Z</time>
      </trkpt>
      <trkpt lat="40.0802110" lon="-0.7310210">
        <ele>960.0</ele>
        <time>2019-07-05T05:10:26Z</time>
      </trkpt>
      <trkpt lat="40.0805730" lon="-0.7314450">
        <ele>960.0</ele>
        <time>2019-07-05T05:10:34Z</time>
      </trkpt>
      <trkpt lat="40.0808130" lon="-0.7318340">
        <ele>959.6</ele>
        <time>2019-07-05T05:10:40Z</time>
      </trkpt>
      <trkpt lat="40.0809290" lon="-0.7320350">
        <ele>959.6</ele>
        <time>2019-07-05T05:10:43Z</time>
      </trkpt>
      <trkpt lat="40.0812710" lon="-0.7326410">
        <ele>959.6</ele>
        <time>2019-07-05T05:10:52Z</time>
      </trkpt>
      <trkpt lat="40.0813490" lon="-0.7327780">
        <ele>959.4</ele>
        <time>2019-07-05T05:10:54Z</time>
      </trkpt>
      <trkpt lat="40.0815040" lon="-0.7330540">
        <ele>959.0</ele>
        <time>2019-07-05T05:10:58Z</time>
      </trkpt>
      <trkpt lat="40.0816960" lon="-0.7333890">
        <ele>958.6</ele>
        <time>2019-07-05T05:11:03Z</time>
      </trkpt>
      <trkpt lat="40.0820370" lon="-0.7339940">
        <ele>958.0</ele>
        <time>2019-07-05T05:11:12Z</time>
      </trkpt>
      <trkpt lat="40.0820750" lon="-0.7340620">
        <ele>958.0</ele>
        <time>2019-07-05T05:11:13Z</time>
      </trkpt>
      <trkpt lat="40.0822280" lon="-0.7343320">
        <ele>958.0</ele>
        <time>2019-07-05T05:11:17Z</time>
      </trkpt>
      <trkpt lat="40.0824200" lon="-0.7346710">
        <ele>958.0</ele>
        <time>2019-07-05T05:11:22Z</time>
      </trkpt>
      <trkpt lat="40.0825800" lon="-0.7349450">
        <ele>958.0</ele>
        <time>2019-07-05T05:11:26Z</time>
      </trkpt>
      <trkpt lat="40.0827910" lon="-0.7352740">
        <ele>957.8</ele>
        <time>2019-07-05T05:11:31Z</time>
      </trkpt>
      <trkpt lat="40.0831330" lon="-0.7356580">
        <ele>957.4</ele>
        <time>2019-07-05T05:11:38Z</time>
      </trkpt>
      <trkpt lat="40.0835330" lon="-0.7359330">
        <ele>957.2</ele>
        <time>2019-07-05T05:11:45Z</time>
      </trkpt>
      <trkpt lat="40.0839710" lon="-0.7361080">
        <ele>957.2</ele>
        <time>2019-07-05T05:11:52Z</time>
      </trkpt>
      <trkpt lat="40.0841040" lon="-0.7361380">
        <ele>957.0</ele>
        <time>2019-07-05T05:11:54Z</time>
      </trkpt>
      <trkpt lat="40.0845050" lon="-0.7361830">
        <ele>956.6</ele>
        <time>2019-07-05T05:12:00Z</time>
      </trkpt>
      <trkpt lat="40.0850340" lon="-0.7362200">
        <ele>956.4</ele>
        <time>2019-07-05T05:12:08Z</time>
      </trkpt>
      <trkpt lat="40.0850990" lon="-0.7362250">
        <ele>956.4</ele>
        <time>2019-07-05T05:12:09Z</time>
      </trkpt>
      <trkpt lat="40.0856820" lon="-0.7362620">
        <ele>956.2</ele>
        <time>2019-07-05T05:12:18Z</time>
      </trkpt>
      <trkpt lat="40.0858740" lon="-0.7362800">
        <ele>956.0</ele>
        <time>2019-07-05T05:12:21Z</time>
      </trkpt>
      <trkpt lat="40.0862480" lon="-0.7363130">
        <ele>955.8</ele>
        <time>2019-07-05T05:12:27Z</time>
      </trkpt>
      <trkpt lat="40.0868250" lon="-0.7363680">
        <ele>955.8</ele>
        <time>2019-07-05T05:12:36Z</time>
      </trkpt>
      <trkpt lat="40.0868890" lon="-0.7363740">
        <ele>955.8</ele>
        <time>2019-07-05T05:12:37Z</time>
      </trkpt>
      <trkpt lat="40.0874720" lon="-0.7364220">
        <ele>955.4</ele>
        <time>2019-07-05T05:12:46Z</time>
      </trkpt>
      <trkpt lat="40.0879290" lon="-0.7364610">
        <ele>955.0</ele>
        <time>2019-07-05T05:12:53Z</time>
      </trkpt>
      <trkpt lat="40.0881920" lon="-0.7364790">
        <ele>954.8</ele>
        <time>2019-07-05T05:12:57Z</time>
      </trkpt>
      <trkpt lat="40.0887090" lon="-0.7365190">
        <ele>954.6</ele>
        <time>2019-07-05T05:13:05Z</time>
      </trkpt>
      <trkpt lat="40.0892990" lon="-0.7365700">
        <ele>954.4</ele>
        <time>2019-07-05T05:13:14Z</time>
      </trkpt>
      <trkpt lat="40.0894300" lon="-0.7365820">
        <ele>954.4</ele>
        <time>2019-07-05T05:13:16Z</time>
      </trkpt>
      <trkpt lat="40.0896250" lon="-0.7366000">
        <ele>954.0</ele>
        <time>2019-07-05T05:13:19Z</time>
      </trkpt>
      <trkpt lat="40.0901430" lon="-0.7366460">
        <ele>953.6</ele>
        <time>2019-07-05T05:13:27Z</time>
      </trkpt>
      <trkpt lat="40.0907240" lon="-0.7366910">
        <ele>953.2</ele>
        <time>2019-07-05T05:13:36Z</time>
      </trkpt>
      <trkpt lat="40.0908520" lon="-0.7367020">
        <ele>953.4</ele>
        <time>2019-07-05T05:13:38Z</time>
      </trkpt>
      <trkpt lat="40.0912400" lon="-0.7367320">
        <ele>953.6</ele>
        <time>2019-07-05T05:13:44Z</time>
      </trkpt>
      <trkpt lat="40.0915020" lon="-0.7367640">
        <ele>953.2</ele>
        <time>2019-07-05T05:13:48Z</time>
      </trkpt>
      <trkpt lat="40.0915660" lon="-0.7367740">
        <ele>953.0</ele>
        <time>2019-07-05T05:13:49Z</time>
      </trkpt>
      <trkpt lat="40.0919440" lon="-0.7368700">
        <ele>952.8</ele>
        <time>2019-07-05T05:13:55Z</time>
      </trkpt>
      <trkpt lat="40.0920050" lon="-0.7368970">
        <ele>952.8</ele>
        <time>2019-07-05T05:13:56Z</time>
      </trkpt>
      <trkpt lat="40.0924100" lon="-0.7371660">
        <ele>952.6</ele>
        <time>2019-07-05T05:14:03Z</time>
      </trkpt>
      <trkpt lat="40.0927520" lon="-0.7375530">
        <ele>952.6</ele>
        <time>2019-07-05T05:14:10Z</time>
      </trkpt>
      <trkpt lat="40.0929780" lon="-0.7379420">
        <ele>952.4</ele>
        <time>2019-07-05T05:14:16Z</time>
      </trkpt>
      <trkpt lat="40.0932460" lon="-0.7383920">
        <ele>952.0</ele>
        <time>2019-07-05T05:14:23Z</time>
      </trkpt>
      <trkpt lat="40.0933590" lon="-0.7385910">
        <ele>951.8</ele>
        <time>2019-07-05T05:14:26Z</time>
      </trkpt>
      <trkpt lat="40.0937210" lon="-0.7391990">
        <ele>951.4</ele>
        <time>2019-07-05T05:14:35Z</time>
      </trkpt>
      <trkpt lat="40.0937640" lon="-0.7392640">
        <ele>951.4</ele>
        <time>2019-07-05T05:14:36Z</time>
      </trkpt>
      <trkpt lat="40.0939940" lon="-0.7395740">
        <ele>951.0</ele>
        <time>2019-07-05T05:14:41Z</time>
      </trkpt>
      <trkpt lat="40.0940980" lon="-0.7396830">
        <ele>951.0</ele>
        <time>2019-07-05T05:14:43Z</time>
      </trkpt>
      <trkpt lat="40.0944410" lon="-0.7399420">
        <ele>950.8</ele>
        <time>2019-07-05T05:14:49Z</time>
      </trkpt>
      <trkpt lat="40.0948240" lon="-0.7400950">
        <ele>950.6</ele>
        <time>2019-07-05T05:14:55Z</time>
      </trkpt>
      <trkpt lat="40.0952120" lon="-0.7401820">
        <ele>950.2</ele>
        <time>2019-07-05T05:15:01Z</time>
      </trkpt>
      <trkpt lat="40.0954050" lon="-0.7402180">
        <ele>950.0</ele>
        <time>2019-07-05T05:15:04Z</time>
      </trkpt>
      <trkpt lat="40.0959760" lon="-0.7403290">
        <ele>950.2</ele>
        <time>2019-07-05T05:15:13Z</time>
      </trkpt>
      <trkpt lat="40.0961040" lon="-0.7403530">
        <ele>950.0</ele>
        <time>2019-07-05T05:15:15Z</time>
      </trkpt>
      <trkpt lat="40.0966870" lon="-0.7404680">
        <ele>949.6</ele>
        <time>2019-07-05T05:15:24Z</time>
      </trkpt>
      <trkpt lat="40.0971340" lon="-0.7405540">
        <ele>949.6</ele>
        <time>2019-07-05T05:15:31Z</time>
      </trkpt>
      <trkpt lat="40.0975690" lon="-0.7406480">
        <ele>947.2</ele>
        <time>2019-07-05T05:15:38Z</time>
      </trkpt>
      <trkpt lat="40.0981130" lon="-0.7407590">
        <ele>949.6</ele>
        <time>2019-07-05T05:15:47Z</time>
      </trkpt>
      <trkpt lat="40.0985530" lon="-0.7408510">
        <ele>949.2</ele>
        <time>2019-07-05T05:15:54Z</time>
      </trkpt>
      <trkpt lat="40.0986140" lon="-0.7408650">
        <ele>949.0</ele>
        <time>2019-07-05T05:15:55Z</time>
      </trkpt>
      <trkpt lat="40.0989240" lon="-0.7409280">
        <ele>948.8</ele>
        <time>2019-07-05T05:16:00Z</time>
      </trkpt>
      <trkpt lat="40.0994390" lon="-0.7410310">
        <ele>948.4</ele>
        <time>2019-07-05T05:16:08Z</time>
      </trkpt>
      <trkpt lat="40.0999540" lon="-0.7411370">
        <ele>948.0</ele>
        <time>2019-07-05T05:16:16Z</time>
      </trkpt>
      <trkpt lat="40.1001430" lon="-0.7411740">
        <ele>947.8</ele>
        <time>2019-07-05T05:16:19Z</time>
      </trkpt>
      <trkpt lat="40.1007050" lon="-0.7412850">
        <ele>947.6</ele>
        <time>2019-07-05T05:16:28Z</time>
      </trkpt>
      <trkpt lat="40.1012520" lon="-0.7414000">
        <ele>947.2</ele>
        <time>2019-07-05T05:16:37Z</time>
      </trkpt>
      <trkpt lat="40.1017910" lon="-0.7415100">
        <ele>947.4</ele>
        <time>2019-07-05T05:16:46Z</time>
      </trkpt>
      <trkpt lat="40.1023310" lon="-0.7416270">
        <ele>947.2</ele>
        <time>2019-07-05T05:16:55Z</time>
      </trkpt>
      <trkpt lat="40.1024520" lon="-0.7416540">
        <ele>947.6</ele>
        <time>2019-07-05T05:16:57Z</time>
      </trkpt>
      <trkpt lat="40.1028210" lon="-0.7417150">
        <ele>947.6</ele>
        <time>2019-07-05T05:17:03Z</time>
      </trkpt>
      <trkpt lat="40.1033120" lon="-0.7418140">
        <ele>947.2</ele>
        <time>2019-07-05T05:17:11Z</time>
      </trkpt>
      <trkpt lat="40.1038540" lon="-0.7419330">
        <ele>947.6</ele>
        <time>2019-07-05T05:17:20Z</time>
      </trkpt>
      <trkpt lat="40.1044060" lon="-0.7420420">
        <ele>947.4</ele>
        <time>2019-07-05T05:17:29Z</time>
      </trkpt>
      <trkpt lat="40.1048460" lon="-0.7421290">
        <ele>947.4</ele>
        <time>2019-07-05T05:17:36Z</time>
      </trkpt>
      <trkpt lat="40.1049100" lon="-0.7421420">
        <ele>947.4</ele>
        <time>2019-07-05T05:17:37Z</time>
      </trkpt>
      <trkpt lat="40.1051030" lon="-0.7421860">
        <ele>947.2</ele>
        <time>2019-07-05T05:17:40Z</time>
      </trkpt>
      <trkpt lat="40.1055480" lon="-0.7422670">
        <ele>946.8</ele>
        <time>2019-07-05T05:17:47Z</time>
      </trkpt>
      <trkpt lat="40.1061010" lon="-0.7423750">
        <ele>946.8</ele>
        <time>2019-07-05T05:17:56Z</time>
      </trkpt>
      <trkpt lat="40.1065110" lon="-0.7424670">
        <ele>946.6</ele>
        <time>2019-07-05T05:18:03Z</time>
      </trkpt>
      <trkpt lat="40.1068840" lon="-0.7425240">
        <ele>946.6</ele>
        <time>2019-07-05T05:18:10Z</time>
      </trkpt>
      <trkpt lat="40.1072300" lon="-0.7425260">
        <ele>946.6</ele>
        <time>2019-07-05T05:18:17Z</time>
      </trkpt>
      <trkpt lat="40.1073830" lon="-0.7425180">
        <ele>946.6</ele>
        <time>2019-07-05T05:18:20Z</time>
      </trkpt>
      <trkpt lat="40.1075940" lon="-0.7424970">
        <ele>947.0</ele>
        <time>2019-07-05T05:18:24Z</time>
      </trkpt>
      <trkpt lat="40.1079750" lon="-0.7424440">
        <ele>947.2</ele>
        <time>2019-07-05T05:18:31Z</time>
      </trkpt>
      <trkpt lat="40.1082630" lon="-0.7424120">
        <ele>947.0</ele>
        <time>2019-07-05T05:18:36Z</time>
      </trkpt>
      <trkpt lat="40.1084290" lon="-0.7423970">
        <ele>947.2</ele>
        <time>2019-07-05T05:18:39Z</time>
      </trkpt>
      <trkpt lat="40.1088510" lon="-0.7423540">
        <ele>946.8</ele>
        <time>2019-07-05T05:18:47Z</time>
      </trkpt>
      <trkpt lat="40.1093380" lon="-0.7423200">
        <ele>947.2</ele>
        <time>2019-07-05T05:18:56Z</time>
      </trkpt>
      <trkpt lat="40.1096370" lon="-0.7423170">
        <ele>947.2</ele>
        <time>2019-07-05T05:19:01Z</time>
      </trkpt>
      <trkpt lat="40.1098180" lon="-0.7423210">
        <ele>947.0</ele>
        <time>2019-07-05T05:19:04Z</time>
      </trkpt>
      <trkpt lat="40.1102910" lon="-0.7424060">
        <ele>947.0</ele>
        <time>2019-07-05T05:19:12Z</time>
      </trkpt>
      <trkpt lat="40.1108040" lon="-0.7425660">
        <ele>946.8</ele>
        <time>2019-07-05T05:19:21Z</time>
      </trkpt>
      <trkpt lat="40.1113500" lon="-0.7427990">
        <ele>946.6</ele>
        <time>2019-07-05T05:19:31Z</time>
      </trkpt>
      <trkpt lat="40.1115570" lon="-0.7428870">
        <ele>946.8</ele>
        <time>2019-07-05T05:19:35Z</time>
      </trkpt>
      <trkpt lat="40.1119100" lon="-0.7430410">
        <ele>947.0</ele>
        <time>2019-07-05T05:19:42Z</time>
      </trkpt>
      <trkpt lat="40.1124080" lon="-0.7432960">
        <ele>947.0</ele>
        <time>2019-07-05T05:19:52Z</time>
      </trkpt>
      <trkpt lat="40.1126380" lon="-0.7434890">
        <ele>947.2</ele>
        <time>2019-07-05T05:19:57Z</time>
      </trkpt>
      <trkpt lat="40.1127260" lon="-0.7435790">
        <ele>947.2</ele>
        <time>2019-07-05T05:19:59Z</time>
      </trkpt>
      <trkpt lat="40.1129980" lon="-0.7439290">
        <ele>947.0</ele>
        <time>2019-07-05T05:20:06Z</time>
      </trkpt>
      <trkpt lat="40.1130320" lon="-0.7439900">
        <ele>947.0</ele>
        <time>2019-07-05T05:20:07Z</time>
      </trkpt>
      <trkpt lat="40.1131590" lon="-0.7442440">
        <ele>946.8</ele>
        <time>2019-07-05T05:20:11Z</time>
      </trkpt>
      <trkpt lat="40.1132100" lon="-0.7443780">
        <ele>946.6</ele>
        <time>2019-07-05T05:20:13Z</time>
      </trkpt>
      <trkpt lat="40.1132320" lon="-0.7444520">
        <ele>946.6</ele>
        <time>2019-07-05T05:20:14Z</time>
      </trkpt>
      <trkpt lat="40.1132510" lon="-0.7445290">
        <ele>946.6</ele>
        <time>2019-07-05T05:20:15Z</time>
      </trkpt>
      <trkpt lat="40.1133050" lon="-0.7447550">
        <ele>946.4</ele>
        <time>2019-07-05T05:20:18Z</time>
      </trkpt>
      <trkpt lat="40.1133190" lon="-0.7448380">
        <ele>946.4</ele>
        <time>2019-07-05T05:20:19Z</time>
      </trkpt>
      <trkpt lat="40.1133670" lon="-0.7452710">
        <ele>946.0</ele>
        <time>2019-07-05T05:20:24Z</time>
      </trkpt>
      <trkpt lat="40.1134360" lon="-0.7459390">
        <ele>945.8</ele>
        <time>2019-07-05T05:20:32Z</time>
      </trkpt>
      <trkpt lat="40.1134950" lon="-0.7466160">
        <ele>945.4</ele>
        <time>2019-07-05T05:20:40Z</time>
      </trkpt>
      <trkpt lat="40.1135120" lon="-0.7467850">
        <ele>945.2</ele>
        <time>2019-07-05T05:20:42Z</time>
      </trkpt>
      <trkpt lat="40.1135470" lon="-0.7472030">
        <ele>945.2</ele>
        <time>2019-07-05T05:20:47Z</time>
      </trkpt>
      <trkpt lat="40.1135910" lon="-0.7476950">
        <ele>945.2</ele>
        <time>2019-07-05T05:20:53Z</time>
      </trkpt>
      <trkpt lat="40.1136940" lon="-0.7483310">
        <ele>945.4</ele>
        <time>2019-07-05T05:21:01Z</time>
      </trkpt>
      <trkpt lat="40.1138690" lon="-0.7489190">
        <ele>945.0</ele>
        <time>2019-07-05T05:21:09Z</time>
      </trkpt>
      <trkpt lat="40.1140590" lon="-0.7494660">
        <ele>945.0</ele>
        <time>2019-07-05T05:21:17Z</time>
      </trkpt>
      <trkpt lat="40.1141000" lon="-0.7495800">
        <ele>945.4</ele>
        <time>2019-07-05T05:21:19Z</time>
      </trkpt>
      <trkpt lat="40.1141470" lon="-0.7497420">
        <ele>946.4</ele>
        <time>2019-07-05T05:21:22Z</time>
      </trkpt>
      <trkpt lat="40.1142020" lon="-0.7499070">
        <ele>947.2</ele>
        <time>2019-07-05T05:21:25Z</time>
      </trkpt>
      <trkpt lat="40.1142580" lon="-0.7500850">
        <ele>947.4</ele>
        <time>2019-07-05T05:21:28Z</time>
      </trkpt>
      <trkpt lat="40.1142770" lon="-0.7501450">
        <ele>947.4</ele>
        <time>2019-07-05T05:21:29Z</time>
      </trkpt>
      <trkpt lat="40.1144850" lon="-0.7508140">
        <ele>947.6</ele>
        <time>2019-07-05T05:21:40Z</time>
      </trkpt>
      <trkpt lat="40.1145440" lon="-0.7510110">
        <ele>947.4</ele>
        <time>2019-07-05T05:21:43Z</time>
      </trkpt>
      <trkpt lat="40.1146110" lon="-0.7512870">
        <ele>947.2</ele>
        <time>2019-07-05T05:21:47Z</time>
      </trkpt>
      <trkpt lat="40.1146940" lon="-0.7516360">
        <ele>946.6</ele>
        <time>2019-07-05T05:21:52Z</time>
      </trkpt>
      <trkpt lat="40.1147540" lon="-0.7518980">
        <ele>946.4</ele>
        <time>2019-07-05T05:21:56Z</time>
      </trkpt>
      <trkpt lat="40.1147940" lon="-0.7520860">
        <ele>946.4</ele>
        <time>2019-07-05T05:21:59Z</time>
      </trkpt>
      <trkpt lat="40.1148210" lon="-0.7522070">
        <ele>946.2</ele>
        <time>2019-07-05T05:22:01Z</time>
      </trkpt>
      <trkpt lat="40.1148480" lon="-0.7523270">
        <ele>945.8</ele>
        <time>2019-07-05T05:22:03Z</time>
      </trkpt>
      <trkpt lat="40.1148920" lon="-0.7525160">
        <ele>945.6</ele>
        <time>2019-07-05T05:22:06Z</time>
      </trkpt>
      <trkpt lat="40.1149070" lon="-0.7525810">
        <ele>945.4</ele>
        <time>2019-07-05T05:22:07Z</time>
      </trkpt>
      <trkpt lat="40.1149370" lon="-0.7527220">
        <ele>945.0</ele>
        <time>2019-07-05T05:22:09Z</time>
      </trkpt>
      <trkpt lat="40.1149670" lon="-0.7528670">
        <ele>944.8</ele>
        <time>2019-07-05T05:22:11Z</time>
      </trkpt>
      <trkpt lat="40.1150170" lon="-0.7530790">
        <ele>944.2</ele>
        <time>2019-07-05T05:22:14Z</time>
      </trkpt>
      <trkpt lat="40.1150490" lon="-0.7532210">
        <ele>944.0</ele>
        <time>2019-07-05T05:22:16Z</time>
      </trkpt>
      <trkpt lat="40.1150910" lon="-0.7534320">
        <ele>944.0</ele>
        <time>2019-07-05T05:22:19Z</time>
      </trkpt>
      <trkpt lat="40.1151740" lon="-0.7537780">
        <ele>944.0</ele>
        <time>2019-07-05T05:22:24Z</time>
      </trkpt>
      <trkpt lat="40.1152960" lon="-0.7543710">
        <ele>943.8</ele>
        <time>2019-07-05T05:22:32Z</time>
      </trkpt>
      <trkpt lat="40.1153470" lon="-0.7549010">
        <ele>944.0</ele>
        <time>2019-07-05T05:22:39Z</time>
      </trkpt>
      <trkpt lat="40.1153120" lon="-0.7554150">
        <ele>944.0</ele>
        <time>2019-07-05T05:22:46Z</time>
      </trkpt>
      <trkpt lat="40.1152980" lon="-0.7554860">
        <ele>944.0</ele>
        <time>2019-07-05T05:22:47Z</time>
      </trkpt>
      <trkpt lat="40.1152450" lon="-0.7556990">
        <ele>944.0</ele>
        <time>2019-07-05T05:22:50Z</time>
      </trkpt>
      <trkpt lat="40.1152220" lon="-0.7557670">
        <ele>944.0</ele>
        <time>2019-07-05T05:22:51Z</time>
      </trkpt>
      <trkpt lat="40.1150940" lon="-0.7561160">
        <ele>944.4</ele>
        <time>2019-07-05T05:22:56Z</time>
      </trkpt>
      <trkpt lat="40.1150270" lon="-0.7562490">
        <ele>944.4</ele>
        <time>2019-07-05T05:22:58Z</time>
      </trkpt>
      <trkpt lat="40.1148340" lon="-0.7565410">
        <ele>943.6</ele>
        <time>2019-07-05T05:23:03Z</time>
      </trkpt>
      <trkpt lat="40.1147900" lon="-0.7565930">
        <ele>943.6</ele>
        <time>2019-07-05T05:23:04Z</time>
      </trkpt>
      <trkpt lat="40.1145580" lon="-0.7568450">
        <ele>943.2</ele>
        <time>2019-07-05T05:23:09Z</time>
      </trkpt>
      <trkpt lat="40.1145040" lon="-0.7568910">
        <ele>943.2</ele>
        <time>2019-07-05T05:23:10Z</time>
      </trkpt>
      <trkpt lat="40.1143930" lon="-0.7569720">
        <ele>943.0</ele>
        <time>2019-07-05T05:23:12Z</time>
      </trkpt>
      <trkpt lat="40.1141510" lon="-0.7571170">
        <ele>942.4</ele>
        <time>2019-07-05T05:23:16Z</time>
      </trkpt>
      <trkpt lat="40.1139580" lon="-0.7571930">
        <ele>942.0</ele>
        <time>2019-07-05T05:23:19Z</time>
      </trkpt>
      <trkpt lat="40.1137620" lon="-0.7572390">
        <ele>942.0</ele>
        <time>2019-07-05T05:23:22Z</time>
      </trkpt>
      <trkpt lat="40.1134990" lon="-0.7572570">
        <ele>941.8</ele>
        <time>2019-07-05T05:23:26Z</time>
      </trkpt>
      <trkpt lat="40.1133030" lon="-0.7572510">
        <ele>941.6</ele>
        <time>2019-07-05T05:23:29Z</time>
      </trkpt>
      <trkpt lat="40.1127160" lon="-0.7572060">
        <ele>941.4</ele>
        <time>2019-07-05T05:23:38Z</time>
      </trkpt>
      <trkpt lat="40.1124570" lon="-0.7571830">
        <ele>941.4</ele>
        <time>2019-07-05T05:23:42Z</time>
      </trkpt>
      <trkpt lat="40.1118600" lon="-0.7571270">
        <ele>941.0</ele>
        <time>2019-07-05T05:23:51Z</time>
      </trkpt>
      <trkpt lat="40.1117930" lon="-0.7571230">
        <ele>941.0</ele>
        <time>2019-07-05T05:23:52Z</time>
      </trkpt>
      <trkpt lat="40.1112620" lon="-0.7571310">
        <ele>940.4</ele>
        <time>2019-07-05T05:24:00Z</time>
      </trkpt>
      <trkpt lat="40.1108350" lon="-0.7572370">
        <ele>940.6</ele>
        <time>2019-07-05T05:24:07Z</time>
      </trkpt>
      <trkpt lat="40.1104810" lon="-0.7574190">
        <ele>940.2</ele>
        <time>2019-07-05T05:24:13Z</time>
      </trkpt>
      <trkpt lat="40.1101070" lon="-0.7577400">
        <ele>940.2</ele>
        <time>2019-07-05T05:24:20Z</time>
      </trkpt>
      <trkpt lat="40.1097720" lon="-0.7581100">
        <ele>940.2</ele>
        <time>2019-07-05T05:24:27Z</time>
      </trkpt>
      <trkpt lat="40.1094400" lon="-0.7584880">
        <ele>940.0</ele>
        <time>2019-07-05T05:24:34Z</time>
      </trkpt>
      <trkpt lat="40.1090330" lon="-0.7589430">
        <ele>939.4</ele>
        <time>2019-07-05T05:24:42Z</time>
      </trkpt>
      <trkpt lat="40.1088830" lon="-0.7591090">
        <ele>939.4</ele>
        <time>2019-07-05T05:24:45Z</time>
      </trkpt>
      <trkpt lat="40.1085710" lon="-0.7595100">
        <ele>939.0</ele>
        <time>2019-07-05T05:24:52Z</time>
      </trkpt>
      <trkpt lat="40.1083660" lon="-0.7599170">
        <ele>939.4</ele>
        <time>2019-07-05T05:24:58Z</time>
      </trkpt>
      <trkpt lat="40.1082640" lon="-0.7602250">
        <ele>938.8</ele>
        <time>2019-07-05T05:25:02Z</time>
      </trkpt>
      <trkpt lat="40.1082120" lon="-0.7604710">
        <ele>938.2</ele>
        <time>2019-07-05T05:25:05Z</time>
      </trkpt>
      <trkpt lat="40.1081700" lon="-0.7609660">
        <ele>938.4</ele>
        <time>2019-07-05T05:25:11Z</time>
      </trkpt>
      <trkpt lat="40.1081750" lon="-0.7616300">
        <ele>938.2</ele>
        <time>2019-07-05T05:25:19Z</time>
      </trkpt>
      <trkpt lat="40.1081920" lon="-0.7623980">
        <ele>938.0</ele>
        <time>2019-07-05T05:25:28Z</time>
      </trkpt>
      <trkpt lat="40.1081960" lon="-0.7624830">
        <ele>937.6</ele>
        <time>2019-07-05T05:25:29Z</time>
      </trkpt>
      <trkpt lat="40.1082130" lon="-0.7632140">
        <ele>937.8</ele>
        <time>2019-07-05T05:25:38Z</time>
      </trkpt>
      <trkpt lat="40.1082260" lon="-0.7636660">
        <ele>938.0</ele>
        <time>2019-07-05T05:25:44Z</time>
      </trkpt>
      <trkpt lat="40.1082230" lon="-0.7637430">
        <ele>938.0</ele>
        <time>2019-07-05T05:25:45Z</time>
      </trkpt>
      <trkpt lat="40.1081330" lon="-0.7643270">
        <ele>937.6</ele>
        <time>2019-07-05T05:25:53Z</time>
      </trkpt>
      <trkpt lat="40.1080490" lon="-0.7646050">
        <ele>937.4</ele>
        <time>2019-07-05T05:25:57Z</time>
      </trkpt>
      <trkpt lat="40.1079590" lon="-0.7647940">
        <ele>937.4</ele>
        <time>2019-07-05T05:26:00Z</time>
      </trkpt>
      <trkpt lat="40.1077100" lon="-0.7651980">
        <ele>937.2</ele>
        <time>2019-07-05T05:26:07Z</time>
      </trkpt>
      <trkpt lat="40.1074180" lon="-0.7655150">
        <ele>936.8</ele>
        <time>2019-07-05T05:26:14Z</time>
      </trkpt>
      <trkpt lat="40.1073280" lon="-0.7655900">
        <ele>936.8</ele>
        <time>2019-07-05T05:26:16Z</time>
      </trkpt>
      <trkpt lat="40.1071430" lon="-0.7657370">
        <ele>936.6</ele>
        <time>2019-07-05T05:26:20Z</time>
      </trkpt>
      <trkpt lat="40.1070470" lon="-0.7658070">
        <ele>936.6</ele>
        <time>2019-07-05T05:26:22Z</time>
      </trkpt>
      <trkpt lat="40.1069430" lon="-0.7658830">
        <ele>936.4</ele>
        <time>2019-07-05T05:26:24Z</time>
      </trkpt>
      <trkpt lat="40.1068950" lon="-0.7659180">
        <ele>936.4</ele>
        <time>2019-07-05T05:26:25Z</time>
      </trkpt>
      <trkpt lat="40.1067580" lon="-0.7660240">
        <ele>935.8</ele>
        <time>2019-07-05T05:26:28Z</time>
      </trkpt>
      <trkpt lat="40.1067110" lon="-0.7660800">
        <ele>935.6</ele>
        <time>2019-07-05T05:26:29Z</time>
      </trkpt>
      <trkpt lat="40.1066580" lon="-0.7661300">
        <ele>935.4</ele>
        <time>2019-07-05T05:26:30Z</time>
      </trkpt>
      <trkpt lat="40.1062360" lon="-0.7665080">
        <ele>934.8</ele>
        <time>2019-07-05T05:26:38Z</time>
      </trkpt>
      <trkpt lat="40.1059350" lon="-0.7669220">
        <ele>935.0</ele>
        <time>2019-07-05T05:26:45Z</time>
      </trkpt>
      <trkpt lat="40.1057770" lon="-0.7672970">
        <ele>934.8</ele>
        <time>2019-07-05T05:26:50Z</time>
      </trkpt>
      <trkpt lat="40.1057230" lon="-0.7674570">
        <ele>934.6</ele>
        <time>2019-07-05T05:26:52Z</time>
      </trkpt>
      <trkpt lat="40.1055930" lon="-0.7679500">
        <ele>934.4</ele>
        <time>2019-07-05T05:26:58Z</time>
      </trkpt>
      <trkpt lat="40.1054160" lon="-0.7686590">
        <ele>934.4</ele>
        <time>2019-07-05T05:27:07Z</time>
      </trkpt>
      <trkpt lat="40.1052810" lon="-0.7691830">
        <ele>934.8</ele>
        <time>2019-07-05T05:27:14Z</time>
      </trkpt>
      <trkpt lat="40.1052320" lon="-0.7694070">
        <ele>934.6</ele>
        <time>2019-07-05T05:27:17Z</time>
      </trkpt>
      <trkpt lat="40.1051720" lon="-0.7696190">
        <ele>934.8</ele>
        <time>2019-07-05T05:27:20Z</time>
      </trkpt>
      <trkpt lat="40.1051320" lon="-0.7697470">
        <ele>935.2</ele>
        <time>2019-07-05T05:27:22Z</time>
      </trkpt>
      <trkpt lat="40.1050750" lon="-0.7699200">
        <ele>935.4</ele>
        <time>2019-07-05T05:27:25Z</time>
      </trkpt>
      <trkpt lat="40.1050550" lon="-0.7699780">
        <ele>935.6</ele>
        <time>2019-07-05T05:27:26Z</time>
      </trkpt>
      <trkpt lat="40.1050300" lon="-0.7700370">
        <ele>935.6</ele>
        <time>2019-07-05T05:27:27Z</time>
      </trkpt>
      <trkpt lat="40.1049650" lon="-0.7701540">
        <ele>935.6</ele>
        <time>2019-07-05T05:27:29Z</time>
      </trkpt>
      <trkpt lat="40.1048260" lon="-0.7704270">
        <ele>934.8</ele>
        <time>2019-07-05T05:27:33Z</time>
      </trkpt>
      <trkpt lat="40.1047910" lon="-0.7705000">
        <ele>934.6</ele>
        <time>2019-07-05T05:27:34Z</time>
      </trkpt>
      <trkpt lat="40.1045550" lon="-0.7709560">
        <ele>933.6</ele>
        <time>2019-07-05T05:27:40Z</time>
      </trkpt>
      <trkpt lat="40.1045190" lon="-0.7710370">
        <ele>933.2</ele>
        <time>2019-07-05T05:27:41Z</time>
      </trkpt>
      <trkpt lat="40.1043610" lon="-0.7715280">
        <ele>932.6</ele>
        <time>2019-07-05T05:27:47Z</time>
      </trkpt>
      <trkpt lat="40.1043130" lon="-0.7717760">
        <ele>932.6</ele>
        <time>2019-07-05T05:27:50Z</time>
      </trkpt>
      <trkpt lat="40.1042890" lon="-0.7720230">
        <ele>932.6</ele>
        <time>2019-07-05T05:27:53Z</time>
      </trkpt>
      <trkpt lat="40.1042860" lon="-0.7721840">
        <ele>932.6</ele>
        <time>2019-07-05T05:27:55Z</time>
      </trkpt>
      <trkpt lat="40.1042960" lon="-0.7722610">
        <ele>932.4</ele>
        <time>2019-07-05T05:27:56Z</time>
      </trkpt>
      <trkpt lat="40.1043060" lon="-0.7723390">
        <ele>932.4</ele>
        <time>2019-07-05T05:27:57Z</time>
      </trkpt>
      <trkpt lat="40.1043210" lon="-0.7724890">
        <ele>932.2</ele>
        <time>2019-07-05T05:27:59Z</time>
      </trkpt>
      <trkpt lat="40.1043450" lon="-0.7726370">
        <ele>932.2</ele>
        <time>2019-07-05T05:28:01Z</time>
      </trkpt>
      <trkpt lat="40.1044680" lon="-0.7731820">
        <ele>931.6</ele>
        <time>2019-07-05T05:28:08Z</time>
      </trkpt>
      <trkpt lat="40.1044860" lon="-0.7732580">
        <ele>931.4</ele>
        <time>2019-07-05T05:28:09Z</time>
      </trkpt>
      <trkpt lat="40.1046190" lon="-0.7737680">
        <ele>931.4</ele>
        <time>2019-07-05T05:28:16Z</time>
      </trkpt>
      <trkpt lat="40.1047550" lon="-0.7742640">
        <ele>932.8</ele>
        <time>2019-07-05T05:28:23Z</time>
      </trkpt>
      <trkpt lat="40.1047980" lon="-0.7743990">
        <ele>932.8</ele>
        <time>2019-07-05T05:28:25Z</time>
      </trkpt>
      <trkpt lat="40.1049760" lon="-0.7748420">
        <ele>931.8</ele>
        <time>2019-07-05T05:28:32Z</time>
      </trkpt>
      <trkpt lat="40.1050070" lon="-0.7748990">
        <ele>931.8</ele>
        <time>2019-07-05T05:28:33Z</time>
      </trkpt>
      <trkpt lat="40.1052590" lon="-0.7752470">
        <ele>932.6</ele>
        <time>2019-07-05T05:28:40Z</time>
      </trkpt>
      <trkpt lat="40.1055600" lon="-0.7755200">
        <ele>933.6</ele>
        <time>2019-07-05T05:28:47Z</time>
      </trkpt>
      <trkpt lat="40.1056540" lon="-0.7755830">
        <ele>933.8</ele>
        <time>2019-07-05T05:28:49Z</time>
      </trkpt>
      <trkpt lat="40.1058530" lon="-0.7756960">
        <ele>934.2</ele>
        <time>2019-07-05T05:28:53Z</time>
      </trkpt>
      <trkpt lat="40.1059070" lon="-0.7757160">
        <ele>934.2</ele>
        <time>2019-07-05T05:28:54Z</time>
      </trkpt>
      <trkpt lat="40.1060700" lon="-0.7757680">
        <ele>934.6</ele>
        <time>2019-07-05T05:28:57Z</time>
      </trkpt>
      <trkpt lat="40.1062380" lon="-0.7757910">
        <ele>934.8</ele>
        <time>2019-07-05T05:29:00Z</time>
      </trkpt>
      <trkpt lat="40.1062940" lon="-0.7757970">
        <ele>935.0</ele>
        <time>2019-07-05T05:29:01Z</time>
      </trkpt>
      <trkpt lat="40.1065710" lon="-0.7758000">
        <ele>935.4</ele>
        <time>2019-07-05T05:29:06Z</time>
      </trkpt>
      <trkpt lat="40.1066780" lon="-0.7757840">
        <ele>935.6</ele>
        <time>2019-07-05T05:29:08Z</time>
      </trkpt>
      <trkpt lat="40.1068390" lon="-0.7757610">
        <ele>936.0</ele>
        <time>2019-07-05T05:29:11Z</time>
      </trkpt>
      <trkpt lat="40.1071040" lon="-0.7757040">
        <ele>936.6</ele>
        <time>2019-07-05T05:29:16Z</time>
      </trkpt>
      <trkpt lat="40.1075070" lon="-0.7756190">
        <ele>937.2</ele>
        <time>2019-07-05T05:29:24Z</time>
      </trkpt>
      <trkpt lat="40.1078480" lon="-0.7755620">
        <ele>938.0</ele>
        <time>2019-07-05T05:29:32Z</time>
      </trkpt>
      <trkpt lat="40.1078890" lon="-0.7755580">
        <ele>938.2</ele>
        <time>2019-07-05T05:29:33Z</time>
      </trkpt>
      <trkpt lat="40.1082020" lon="-0.7755670">
        <ele>939.2</ele>
        <time>2019-07-05T05:29:41Z</time>
      </trkpt>
      <trkpt lat="40.1082880" lon="-0.7756390">
        <ele>939.2</ele>
        <time>2019-07-05T05:29:43Z</time>
      </trkpt>
      <trkpt lat="40.1082880" lon="-0.7756390">
        <ele>939.4</ele>
        <time>2019-07-05T05:29:44Z</time>
      </trkpt>
      <trkpt lat="40.1082880" lon="-0.7756390">
        <ele>939.8</ele>
        <time>2019-07-05T05:29:48Z</time>
      </trkpt>
      <trkpt lat="40.1084080" lon="-0.7756110">
        <ele>940.0</ele>
        <time>2019-07-05T05:29:51Z</time>
      </trkpt>
      <trkpt lat="40.1085280" lon="-0.7755840">
        <ele>940.0</ele>
        <time>2019-07-05T05:29:53Z</time>
      </trkpt>
      <trkpt lat="40.1086480" lon="-0.7755560">
        <ele>940.2</ele>
        <time>2019-07-05T05:29:56Z</time>
      </trkpt>
      <trkpt lat="40.1087680" lon="-0.7755280">
        <ele>940.4</ele>
        <time>2019-07-05T05:29:59Z</time>
      </trkpt>
      <trkpt lat="40.1088880" lon="-0.7755010">
        <ele>940.8</ele>
        <time>2019-07-05T05:30:00Z</time>
      </trkpt>
      <trkpt lat="40.1090080" lon="-0.7754730">
        <ele>941.6</ele>
        <time>2019-07-05T05:30:04Z</time>
      </trkpt>
      <trkpt lat="40.1091280" lon="-0.7754450">
        <ele>941.8</ele>
        <time>2019-07-05T05:30:05Z</time>
      </trkpt>
      <trkpt lat="40.1092480" lon="-0.7754180">
        <ele>942.0</ele>
        <time>2019-07-05T05:30:08Z</time>
      </trkpt>
      <trkpt lat="40.1093680" lon="-0.7753900">
        <ele>942.0</ele>
        <time>2019-07-05T05:30:09Z</time>
      </trkpt>
      <trkpt lat="40.1094870" lon="-0.7753620">
        <ele>942.2</ele>
        <time>2019-07-05T05:30:13Z</time>
      </trkpt>
      <trkpt lat="40.1096070" lon="-0.7753340">
        <ele>942.6</ele>
        <time>2019-07-05T05:30:16Z</time>
      </trkpt>
      <trkpt lat="40.1097270" lon="-0.7753070">
        <ele>942.8</ele>
        <time>2019-07-05T05:30:17Z</time>
      </trkpt>
      <trkpt lat="40.1098470" lon="-0.7752790">
        <ele>942.8</ele>
        <time>2019-07-05T05:30:18Z</time>
      </trkpt>
      <trkpt lat="40.1099670" lon="-0.7752510">
        <ele>943.2</ele>
        <time>2019-07-05T05:30:25Z</time>
      </trkpt>
      <trkpt lat="40.1100870" lon="-0.7752240">
        <ele>943.8</ele>
        <time>2019-07-05T05:30:29Z</time>
      </trkpt>
      <trkpt lat="40.1102070" lon="-0.7751960">
        <ele>944.0</ele>
        <time>2019-07-05T05:30:33Z</time>
      </trkpt>
      <trkpt lat="40.1103270" lon="-0.7751680">
        <ele>944.4</ele>
        <time>2019-07-05T05:30:35Z</time>
      </trkpt>
      <trkpt lat="40.1104470" lon="-0.7751410">
        <ele>944.6</ele>
        <time>2019-07-05T05:30:36Z</time>
      </trkpt>
      <trkpt lat="40.1105670" lon="-0.7751130">
        <ele>944.4</ele>
        <time>2019-07-05T05:30:39Z</time>
      </trkpt>
      <trkpt lat="40.1113270" lon="-0.7749380">
        <ele>944.4</ele>
        <time>2019-07-05T05:30:40Z</time>
      </trkpt>
      <trkpt lat="40.1112640" lon="-0.7747850">
        <ele>944.6</ele>
        <time>2019-07-05T05:30:41Z</time>
      </trkpt>
      <trkpt lat="40.1112420" lon="-0.7746370">
        <ele>945.0</ele>
        <time>2019-07-05T05:30:42Z</time>
      </trkpt>
      <trkpt lat="40.1111510" lon="-0.7745470">
        <ele>945.2</ele>
        <time>2019-07-05T05:30:43Z</time>
      </trkpt>
      <trkpt lat="40.1112900" lon="-0.7743710">
        <ele>945.6</ele>
        <time>2019-07-05T05:30:46Z</time>
      </trkpt>
      <trkpt lat="40.1113560" lon="-0.7742740">
        <ele>945.6</ele>
        <time>2019-07-05T05:30:48Z</time>
      </trkpt>
      <trkpt lat="40.1114940" lon="-0.7740690">
        <ele>946.0</ele>
        <time>2019-07-05T05:30:52Z</time>
      </trkpt>
      <trkpt lat="40.1115620" lon="-0.7739580">
        <ele>946.2</ele>
        <time>2019-07-05T05:30:54Z</time>
      </trkpt>
      <trkpt lat="40.1117850" lon="-0.7735820">
        <ele>947.0</ele>
        <time>2019-07-05T05:31:01Z</time>
      </trkpt>
      <trkpt lat="40.1118570" lon="-0.7734710">
        <ele>947.2</ele>
        <time>2019-07-05T05:31:03Z</time>
      </trkpt>
      <trkpt lat="40.1120530" lon="-0.7732240">
        <ele>948.2</ele>
        <time>2019-07-05T05:31:08Z</time>
      </trkpt>
      <trkpt lat="40.1121410" lon="-0.7731370">
        <ele>948.2</ele>
        <time>2019-07-05T05:31:10Z</time>
      </trkpt>
      <trkpt lat="40.1122710" lon="-0.7730100">
        <ele>948.4</ele>
        <time>2019-07-05T05:31:13Z</time>
      </trkpt>
      <trkpt lat="40.1123680" lon="-0.7729420">
        <ele>948.4</ele>
        <time>2019-07-05T05:31:15Z</time>
      </trkpt>
      <trkpt lat="40.1127710" lon="-0.7727180">
        <ele>949.2</ele>
        <time>2019-07-05T05:31:23Z</time>
      </trkpt>
      <trkpt lat="40.1128220" lon="-0.7726930">
        <ele>949.4</ele>
        <time>2019-07-05T05:31:24Z</time>
      </trkpt>
      <trkpt lat="40.1133100" lon="-0.7725200">
        <ele>949.8</ele>
        <time>2019-07-05T05:31:33Z</time>
      </trkpt>
      <trkpt lat="40.1137820" lon="-0.7724840">
        <ele>950.2</ele>
        <time>2019-07-05T05:31:41Z</time>
      </trkpt>
      <trkpt lat="40.1139630" lon="-0.7725170">
        <ele>950.4</ele>
        <time>2019-07-05T05:31:44Z</time>
      </trkpt>
      <trkpt lat="40.1142010" lon="-0.7725920">
        <ele>950.4</ele>
        <time>2019-07-05T05:31:48Z</time>
      </trkpt>
      <trkpt lat="40.1144240" lon="-0.7727000">
        <ele>950.4</ele>
        <time>2019-07-05T05:31:52Z</time>
      </trkpt>
      <trkpt lat="40.1145270" lon="-0.7727680">
        <ele>950.6</ele>
        <time>2019-07-05T05:31:54Z</time>
      </trkpt>
      <trkpt lat="40.1148190" lon="-0.7730160">
        <ele>950.8</ele>
        <time>2019-07-05T05:32:00Z</time>
      </trkpt>
      <trkpt lat="40.1150300" lon="-0.7732880">
        <ele>951.2</ele>
        <time>2019-07-05T05:32:05Z</time>
      </trkpt>
      <trkpt lat="40.1151700" lon="-0.7735360">
        <ele>950.6</ele>
        <time>2019-07-05T05:32:10Z</time>
      </trkpt>
      <trkpt lat="40.1153310" lon="-0.7740100">
        <ele>950.4</ele>
        <time>2019-07-05T05:32:17Z</time>
      </trkpt>
      <trkpt lat="40.1155680" lon="-0.7747100">
        <ele>950.0</ele>
        <time>2019-07-05T05:32:27Z</time>
      </trkpt>
      <trkpt lat="40.1157990" lon="-0.7753980">
        <ele>950.6</ele>
        <time>2019-07-05T05:32:37Z</time>
      </trkpt>
      <trkpt lat="40.1158460" lon="-0.7755360">
        <ele>950.6</ele>
        <time>2019-07-05T05:32:39Z</time>
      </trkpt>
      <trkpt lat="40.1160760" lon="-0.7762180">
        <ele>951.2</ele>
        <time>2019-07-05T05:32:49Z</time>
      </trkpt>
      <trkpt lat="40.1162830" lon="-0.7768330">
        <ele>951.4</ele>
        <time>2019-07-05T05:32:58Z</time>
      </trkpt>
      <trkpt lat="40.1163050" lon="-0.7769020">
        <ele>951.6</ele>
        <time>2019-07-05T05:32:59Z</time>
      </trkpt>
      <trkpt lat="40.1164280" lon="-0.7772450">
        <ele>952.4</ele>
        <time>2019-07-05T05:33:04Z</time>
      </trkpt>
      <trkpt lat="40.1165020" lon="-0.7774410">
        <ele>952.8</ele>
        <time>2019-07-05T05:33:07Z</time>
      </trkpt>
      <trkpt lat="40.1166130" lon="-0.7777610">
        <ele>953.6</ele>
        <time>2019-07-05T05:33:12Z</time>
      </trkpt>
      <trkpt lat="40.1167270" lon="-0.7780770">
        <ele>953.8</ele>
        <time>2019-07-05T05:33:17Z</time>
      </trkpt>
      <trkpt lat="40.1168940" lon="-0.7785610">
        <ele>954.6</ele>
        <time>2019-07-05T05:33:25Z</time>
      </trkpt>
      <trkpt lat="40.1169140" lon="-0.7786140">
        <ele>955.0</ele>
        <time>2019-07-05T05:33:26Z</time>
      </trkpt>
      <trkpt lat="40.1169510" lon="-0.7787160">
        <ele>955.6</ele>
        <time>2019-07-05T05:33:28Z</time>
      </trkpt>
      <trkpt lat="40.1170350" lon="-0.7789540">
        <ele>956.8</ele>
        <time>2019-07-05T05:33:33Z</time>
      </trkpt>
      <trkpt lat="40.1170680" lon="-0.7790450">
        <ele>957.6</ele>
        <time>2019-07-05T05:33:35Z</time>
      </trkpt>
      <trkpt lat="40.1170850" lon="-0.7790910">
        <ele>957.8</ele>
        <time>2019-07-05T05:33:36Z</time>
      </trkpt>
      <trkpt lat="40.1171330" lon="-0.7792270">
        <ele>958.8</ele>
        <time>2019-07-05T05:33:39Z</time>
      </trkpt>
      <trkpt lat="40.1171890" lon="-0.7793630">
        <ele>959.8</ele>
        <time>2019-07-05T05:33:42Z</time>
      </trkpt>
      <trkpt lat="40.1172280" lon="-0.7794560">
        <ele>960.4</ele>
        <time>2019-07-05T05:33:44Z</time>
      </trkpt>
      <trkpt lat="40.1172690" lon="-0.7795510">
        <ele>961.0</ele>
        <time>2019-07-05T05:33:46Z</time>
      </trkpt>
      <trkpt lat="40.1173780" lon="-0.7797980">
        <ele>962.0</ele>
        <time>2019-07-05T05:33:51Z</time>
      </trkpt>
      <trkpt lat="40.1174030" lon="-0.7798480">
        <ele>962.0</ele>
        <time>2019-07-05T05:33:52Z</time>
      </trkpt>
      <trkpt lat="40.1174570" lon="-0.7799480">
        <ele>962.0</ele>
        <time>2019-07-05T05:33:54Z</time>
      </trkpt>
      <trkpt lat="40.1176720" lon="-0.7803330">
        <ele>961.6</ele>
        <time>2019-07-05T05:34:01Z</time>
      </trkpt>
      <trkpt lat="40.1177890" lon="-0.7805420">
        <ele>960.8</ele>
        <time>2019-07-05T05:34:04Z</time>
      </trkpt>
      <trkpt lat="40.1178770" lon="-0.7806990">
        <ele>960.0</ele>
        <time>2019-07-05T05:34:06Z</time>
      </trkpt>
      <trkpt lat="40.1179240" lon="-0.7807800">
        <ele>959.6</ele>
        <time>2019-07-05T05:34:07Z</time>
      </trkpt>
      <trkpt lat="40.1180200" lon="-0.7809510">
        <ele>958.8</ele>
        <time>2019-07-05T05:34:09Z</time>
      </trkpt>
      <trkpt lat="40.1180680" lon="-0.7810370">
        <ele>958.2</ele>
        <time>2019-07-05T05:34:10Z</time>
      </trkpt>
      <trkpt lat="40.1181650" lon="-0.7812110">
        <ele>957.4</ele>
        <time>2019-07-05T05:34:12Z</time>
      </trkpt>
      <trkpt lat="40.1182130" lon="-0.7812980">
        <ele>957.2</ele>
        <time>2019-07-05T05:34:13Z</time>
      </trkpt>
      <trkpt lat="40.1182610" lon="-0.7813850">
        <ele>957.0</ele>
        <time>2019-07-05T05:34:14Z</time>
      </trkpt>
      <trkpt lat="40.1183560" lon="-0.7815550">
        <ele>956.6</ele>
        <time>2019-07-05T05:34:16Z</time>
      </trkpt>
      <trkpt lat="40.1184470" lon="-0.7817130">
        <ele>956.2</ele>
        <time>2019-07-05T05:34:18Z</time>
      </trkpt>
      <trkpt lat="40.1184900" lon="-0.7817900">
        <ele>956.2</ele>
        <time>2019-07-05T05:34:19Z</time>
      </trkpt>
      <trkpt lat="40.1186160" lon="-0.7820100">
        <ele>955.8</ele>
        <time>2019-07-05T05:34:22Z</time>
      </trkpt>
      <trkpt lat="40.1188540" lon="-0.7824280">
        <ele>955.6</ele>
        <time>2019-07-05T05:34:28Z</time>
      </trkpt>
      <trkpt lat="40.1189290" lon="-0.7825590">
        <ele>955.6</ele>
        <time>2019-07-05T05:34:30Z</time>
      </trkpt>
      <trkpt lat="40.1191670" lon="-0.7829470">
        <ele>956.8</ele>
        <time>2019-07-05T05:34:37Z</time>
      </trkpt>
      <trkpt lat="40.1192590" lon="-0.7831130">
        <ele>957.2</ele>
        <time>2019-07-05T05:34:40Z</time>
      </trkpt>
      <trkpt lat="40.1193850" lon="-0.7833270">
        <ele>957.8</ele>
        <time>2019-07-05T05:34:44Z</time>
      </trkpt>
      <trkpt lat="40.1194170" lon="-0.7833770">
        <ele>958.0</ele>
        <time>2019-07-05T05:34:45Z</time>
      </trkpt>
      <trkpt lat="40.1194470" lon="-0.7834290">
        <ele>958.2</ele>
        <time>2019-07-05T05:34:46Z</time>
      </trkpt>
      <trkpt lat="40.1195090" lon="-0.7835320">
        <ele>958.6</ele>
        <time>2019-07-05T05:34:48Z</time>
      </trkpt>
      <trkpt lat="40.1196010" lon="-0.7836870">
        <ele>959.2</ele>
        <time>2019-07-05T05:34:51Z</time>
      </trkpt>
      <trkpt lat="40.1196310" lon="-0.7837400">
        <ele>959.4</ele>
        <time>2019-07-05T05:34:52Z</time>
      </trkpt>
      <trkpt lat="40.1197780" lon="-0.7840070">
        <ele>960.4</ele>
        <time>2019-07-05T05:34:57Z</time>
      </trkpt>
      <trkpt lat="40.1198660" lon="-0.7841670">
        <ele>960.8</ele>
        <time>2019-07-05T05:35:00Z</time>
      </trkpt>
      <trkpt lat="40.1200810" lon="-0.7845500">
        <ele>961.6</ele>
        <time>2019-07-05T05:35:07Z</time>
      </trkpt>
      <trkpt lat="40.1201460" lon="-0.7846620">
        <ele>961.8</ele>
        <time>2019-07-05T05:35:09Z</time>
      </trkpt>
      <trkpt lat="40.1203960" lon="-0.7851180">
        <ele>961.4</ele>
        <time>2019-07-05T05:35:16Z</time>
      </trkpt>
      <trkpt lat="40.1205040" lon="-0.7853500">
        <ele>960.6</ele>
        <time>2019-07-05T05:35:19Z</time>
      </trkpt>
      <trkpt lat="40.1206130" lon="-0.7855980">
        <ele>959.6</ele>
        <time>2019-07-05T05:35:22Z</time>
      </trkpt>
      <trkpt lat="40.1206480" lon="-0.7856860">
        <ele>959.0</ele>
        <time>2019-07-05T05:35:23Z</time>
      </trkpt>
      <trkpt lat="40.1206820" lon="-0.7857770">
        <ele>958.8</ele>
        <time>2019-07-05T05:35:24Z</time>
      </trkpt>
      <trkpt lat="40.1207500" lon="-0.7859680">
        <ele>958.2</ele>
        <time>2019-07-05T05:35:26Z</time>
      </trkpt>
      <trkpt lat="40.1207820" lon="-0.7860680">
        <ele>957.8</ele>
        <time>2019-07-05T05:35:27Z</time>
      </trkpt>
      <trkpt lat="40.1208430" lon="-0.7862780">
        <ele>957.2</ele>
        <time>2019-07-05T05:35:29Z</time>
      </trkpt>
      <trkpt lat="40.1208660" lon="-0.7863900">
        <ele>956.6</ele>
        <time>2019-07-05T05:35:30Z</time>
      </trkpt>
      <trkpt lat="40.1209420" lon="-0.7868510">
        <ele>955.2</ele>
        <time>2019-07-05T05:35:34Z</time>
      </trkpt>
      <trkpt lat="40.1209600" lon="-0.7869640">
        <ele>954.8</ele>
        <time>2019-07-05T05:35:35Z</time>
      </trkpt>
      <trkpt lat="40.1210000" lon="-0.7871840">
        <ele>954.2</ele>
        <time>2019-07-05T05:35:37Z</time>
      </trkpt>
      <trkpt lat="40.1210200" lon="-0.7872920">
        <ele>954.0</ele>
        <time>2019-07-05T05:35:38Z</time>
      </trkpt>
      <trkpt lat="40.1210930" lon="-0.7877120">
        <ele>953.2</ele>
        <time>2019-07-05T05:35:42Z</time>
      </trkpt>
      <trkpt lat="40.1211100" lon="-0.7878130">
        <ele>953.0</ele>
        <time>2019-07-05T05:35:43Z</time>
      </trkpt>
      <trkpt lat="40.1212230" lon="-0.7884660">
        <ele>952.6</ele>
        <time>2019-07-05T05:35:50Z</time>
      </trkpt>
      <trkpt lat="40.1213230" lon="-0.7890650">
        <ele>952.8</ele>
        <time>2019-07-05T05:35:57Z</time>
      </trkpt>
      <trkpt lat="40.1214580" lon="-0.7898100">
        <ele>952.4</ele>
        <time>2019-07-05T05:36:06Z</time>
      </trkpt>
      <trkpt lat="40.1215000" lon="-0.7900590">
        <ele>952.4</ele>
        <time>2019-07-05T05:36:09Z</time>
      </trkpt>
      <trkpt lat="40.1215730" lon="-0.7904730">
        <ele>952.0</ele>
        <time>2019-07-05T05:36:14Z</time>
      </trkpt>
      <trkpt lat="40.1216420" lon="-0.7908840">
        <ele>952.0</ele>
        <time>2019-07-05T05:36:19Z</time>
      </trkpt>
      <trkpt lat="40.1217420" lon="-0.7913620">
        <ele>951.6</ele>
        <time>2019-07-05T05:36:25Z</time>
      </trkpt>
      <trkpt lat="40.1217890" lon="-0.7915110">
        <ele>951.6</ele>
        <time>2019-07-05T05:36:27Z</time>
      </trkpt>
      <trkpt lat="40.1220070" lon="-0.7920090">
        <ele>951.8</ele>
        <time>2019-07-05T05:36:34Z</time>
      </trkpt>
      <trkpt lat="40.1221780" lon="-0.7922630">
        <ele>950.6</ele>
        <time>2019-07-05T05:36:38Z</time>
      </trkpt>
      <trkpt lat="40.1223590" lon="-0.7924970">
        <ele>950.6</ele>
        <time>2019-07-05T05:36:42Z</time>
      </trkpt>
      <trkpt lat="40.1227160" lon="-0.7929460">
        <ele>950.8</ele>
        <time>2019-07-05T05:36:50Z</time>
      </trkpt>
      <trkpt lat="40.1228830" lon="-0.7931720">
        <ele>951.0</ele>
        <time>2019-07-05T05:36:54Z</time>
      </trkpt>
      <trkpt lat="40.1232170" lon="-0.7935980">
        <ele>951.0</ele>
        <time>2019-07-05T05:37:02Z</time>
      </trkpt>
      <trkpt lat="40.1235970" lon="-0.7940850">
        <ele>951.2</ele>
        <time>2019-07-05T05:37:11Z</time>
      </trkpt>
      <trkpt lat="40.1239310" lon="-0.7945260">
        <ele>951.6</ele>
        <time>2019-07-05T05:37:19Z</time>
      </trkpt>
      <trkpt lat="40.1239710" lon="-0.7945840">
        <ele>951.8</ele>
        <time>2019-07-05T05:37:20Z</time>
      </trkpt>
      <trkpt lat="40.1242190" lon="-0.7949130">
        <ele>952.2</ele>
        <time>2019-07-05T05:37:26Z</time>
      </trkpt>
      <trkpt lat="40.1246150" lon="-0.7953720">
        <ele>952.4</ele>
        <time>2019-07-05T05:37:35Z</time>
      </trkpt>
      <trkpt lat="40.1249960" lon="-0.7956910">
        <ele>952.6</ele>
        <time>2019-07-05T05:37:43Z</time>
      </trkpt>
      <trkpt lat="40.1251400" lon="-0.7957960">
        <ele>952.8</ele>
        <time>2019-07-05T05:37:46Z</time>
      </trkpt>
      <trkpt lat="40.1253930" lon="-0.7959540">
        <ele>954.0</ele>
        <time>2019-07-05T05:37:51Z</time>
      </trkpt>
      <trkpt lat="40.1256000" lon="-0.7960930">
        <ele>954.2</ele>
        <time>2019-07-05T05:37:55Z</time>
      </trkpt>
      <trkpt lat="40.1258030" lon="-0.7962290">
        <ele>954.4</ele>
        <time>2019-07-05T05:37:59Z</time>
      </trkpt>
      <trkpt lat="40.1259510" lon="-0.7963310">
        <ele>955.0</ele>
        <time>2019-07-05T05:38:02Z</time>
      </trkpt>
      <trkpt lat="40.1260520" lon="-0.7963980">
        <ele>955.2</ele>
        <time>2019-07-05T05:38:04Z</time>
      </trkpt>
      <trkpt lat="40.1265590" lon="-0.7967220">
        <ele>956.0</ele>
        <time>2019-07-05T05:38:14Z</time>
      </trkpt>
      <trkpt lat="40.1266080" lon="-0.7967570">
        <ele>956.2</ele>
        <time>2019-07-05T05:38:15Z</time>
      </trkpt>
      <trkpt lat="40.1270460" lon="-0.7970940">
        <ele>957.0</ele>
        <time>2019-07-05T05:38:24Z</time>
      </trkpt>
      <trkpt lat="40.1271930" lon="-0.7972160">
        <ele>957.2</ele>
        <time>2019-07-05T05:38:27Z</time>
      </trkpt>
      <trkpt lat="40.1274370" lon="-0.7974190">
        <ele>958.0</ele>
        <time>2019-07-05T05:38:32Z</time>
      </trkpt>
      <trkpt lat="40.1274860" lon="-0.7974590">
        <ele>958.2</ele>
        <time>2019-07-05T05:38:33Z</time>
      </trkpt>
      <trkpt lat="40.1278660" lon="-0.7977730">
        <ele>958.6</ele>
        <time>2019-07-05T05:38:41Z</time>
      </trkpt>
      <trkpt lat="40.1280980" lon="-0.7979840">
        <ele>959.4</ele>
        <time>2019-07-05T05:38:46Z</time>
      </trkpt>
      <trkpt lat="40.1282440" lon="-0.7981040">
        <ele>959.8</ele>
        <time>2019-07-05T05:38:49Z</time>
      </trkpt>
      <trkpt lat="40.1286230" lon="-0.7984270">
        <ele>960.2</ele>
        <time>2019-07-05T05:38:57Z</time>
      </trkpt>
      <trkpt lat="40.1287120" lon="-0.7985000">
        <ele>960.4</ele>
        <time>2019-07-05T05:38:59Z</time>
      </trkpt>
      <trkpt lat="40.1289900" lon="-0.7987370">
        <ele>960.8</ele>
        <time>2019-07-05T05:39:05Z</time>
      </trkpt>
      <trkpt lat="40.1294160" lon="-0.7990910">
        <ele>961.2</ele>
        <time>2019-07-05T05:39:14Z</time>
      </trkpt>
      <trkpt lat="40.1295130" lon="-0.7991710">
        <ele>961.4</ele>
        <time>2019-07-05T05:39:16Z</time>
      </trkpt>
      <trkpt lat="40.1299850" lon="-0.7995720">
        <ele>961.8</ele>
        <time>2019-07-05T05:39:26Z</time>
      </trkpt>
      <trkpt lat="40.1302700" lon="-0.7998250">
        <ele>962.4</ele>
        <time>2019-07-05T05:39:32Z</time>
      </trkpt>
      <trkpt lat="40.1305160" lon="-0.8000310">
        <ele>962.6</ele>
        <time>2019-07-05T05:39:37Z</time>
      </trkpt>
      <trkpt lat="40.1309650" lon="-0.8004010">
        <ele>962.6</ele>
        <time>2019-07-05T05:39:46Z</time>
      </trkpt>
      <trkpt lat="40.1314640" lon="-0.8008230">
        <ele>962.6</ele>
        <time>2019-07-05T05:39:56Z</time>
      </trkpt>
      <trkpt lat="40.1315130" lon="-0.8008670">
        <ele>962.8</ele>
        <time>2019-07-05T05:39:57Z</time>
      </trkpt>
      <trkpt lat="40.1319100" lon="-0.8012050">
        <ele>963.2</ele>
        <time>2019-07-05T05:40:05Z</time>
      </trkpt>
      <trkpt lat="40.1324000" lon="-0.8016450">
        <ele>963.4</ele>
        <time>2019-07-05T05:40:15Z</time>
      </trkpt>
      <trkpt lat="40.1324460" lon="-0.8016920">
        <ele>963.4</ele>
        <time>2019-07-05T05:40:16Z</time>
      </trkpt>
      <trkpt lat="40.1324910" lon="-0.8017420">
        <ele>963.6</ele>
        <time>2019-07-05T05:40:17Z</time>
      </trkpt>
      <trkpt lat="40.1327880" lon="-0.8021210">
        <ele>963.8</ele>
        <time>2019-07-05T05:40:24Z</time>
      </trkpt>
      <trkpt lat="40.1330860" lon="-0.8026110">
        <ele>964.2</ele>
        <time>2019-07-05T05:40:32Z</time>
      </trkpt>
      <trkpt lat="40.1333600" lon="-0.8032260">
        <ele>964.6</ele>
        <time>2019-07-05T05:40:41Z</time>
      </trkpt>
      <trkpt lat="40.1333870" lon="-0.8032970">
        <ele>964.8</ele>
        <time>2019-07-05T05:40:42Z</time>
      </trkpt>
      <trkpt lat="40.1335800" lon="-0.8039450">
        <ele>965.6</ele>
        <time>2019-07-05T05:40:51Z</time>
      </trkpt>
      <trkpt lat="40.1337040" lon="-0.8046170">
        <ele>966.4</ele>
        <time>2019-07-05T05:41:00Z</time>
      </trkpt>
      <trkpt lat="40.1337220" lon="-0.8048430">
        <ele>966.8</ele>
        <time>2019-07-05T05:41:03Z</time>
      </trkpt>
      <trkpt lat="40.1337380" lon="-0.8052190">
        <ele>967.2</ele>
        <time>2019-07-05T05:41:08Z</time>
      </trkpt>
      <trkpt lat="40.1337280" lon="-0.8056590">
        <ele>968.0</ele>
        <time>2019-07-05T05:41:14Z</time>
      </trkpt>
      <trkpt lat="40.1337060" lon="-0.8058730">
        <ele>968.4</ele>
        <time>2019-07-05T05:41:17Z</time>
      </trkpt>
      <trkpt lat="40.1336830" lon="-0.8060850">
        <ele>969.0</ele>
        <time>2019-07-05T05:41:20Z</time>
      </trkpt>
      <trkpt lat="40.1336170" lon="-0.8064960">
        <ele>969.8</ele>
        <time>2019-07-05T05:41:26Z</time>
      </trkpt>
      <trkpt lat="40.1335900" lon="-0.8066320">
        <ele>970.0</ele>
        <time>2019-07-05T05:41:28Z</time>
      </trkpt>
      <trkpt lat="40.1334800" lon="-0.8070990">
        <ele>970.6</ele>
        <time>2019-07-05T05:41:35Z</time>
      </trkpt>
      <trkpt lat="40.1333800" lon="-0.8074960">
        <ele>971.0</ele>
        <time>2019-07-05T05:41:41Z</time>
      </trkpt>
      <trkpt lat="40.1333140" lon="-0.8077540">
        <ele>972.2</ele>
        <time>2019-07-05T05:41:45Z</time>
      </trkpt>
      <trkpt lat="40.1331550" lon="-0.8083830">
        <ele>973.2</ele>
        <time>2019-07-05T05:41:55Z</time>
      </trkpt>
      <trkpt lat="40.1331240" lon="-0.8085040">
        <ele>973.4</ele>
        <time>2019-07-05T05:41:57Z</time>
      </trkpt>
      <trkpt lat="40.1330940" lon="-0.8086250">
        <ele>973.4</ele>
        <time>2019-07-05T05:41:59Z</time>
      </trkpt>
      <trkpt lat="40.1329700" lon="-0.8091140">
        <ele>974.2</ele>
        <time>2019-07-05T05:42:07Z</time>
      </trkpt>
      <trkpt lat="40.1328830" lon="-0.8095420">
        <ele>974.6</ele>
        <time>2019-07-05T05:42:14Z</time>
      </trkpt>
      <trkpt lat="40.1327690" lon="-0.8099820">
        <ele>975.4</ele>
        <time>2019-07-05T05:42:21Z</time>
      </trkpt>
      <trkpt lat="40.1327200" lon="-0.8101780">
        <ele>975.8</ele>
        <time>2019-07-05T05:42:24Z</time>
      </trkpt>
      <trkpt lat="40.1326550" lon="-0.8104450">
        <ele>975.6</ele>
        <time>2019-07-05T05:42:28Z</time>
      </trkpt>
      <trkpt lat="40.1326250" lon="-0.8105830">
        <ele>975.6</ele>
        <time>2019-07-05T05:42:30Z</time>
      </trkpt>
      <trkpt lat="40.1325080" lon="-0.8110680">
        <ele>975.6</ele>
        <time>2019-07-05T05:42:37Z</time>
      </trkpt>
      <trkpt lat="40.1324440" lon="-0.8113320">
        <ele>975.4</ele>
        <time>2019-07-05T05:42:41Z</time>
      </trkpt>
      <trkpt lat="40.1324320" lon="-0.8113920">
        <ele>975.4</ele>
        <time>2019-07-05T05:42:42Z</time>
      </trkpt>
      <trkpt lat="40.1323980" lon="-0.8116370">
        <ele>975.4</ele>
        <time>2019-07-05T05:42:46Z</time>
      </trkpt>
      <trkpt lat="40.1323830" lon="-0.8117720">
        <ele>975.6</ele>
        <time>2019-07-05T05:42:48Z</time>
      </trkpt>
      <trkpt lat="40.1323590" lon="-0.8119670">
        <ele>975.6</ele>
        <time>2019-07-05T05:42:51Z</time>
      </trkpt>
      <trkpt lat="40.1323590" lon="-0.8119670">
        <ele>975.6</ele>
        <time>2019-07-05T05:42:54Z</time>
      </trkpt>
      <trkpt lat="40.1323590" lon="-0.8119670">
        <ele>975.6</ele>
        <time>2019-07-05T05:42:55Z</time>
      </trkpt>
      <trkpt lat="40.1323590" lon="-0.8119670">
        <ele>975.6</ele>
        <time>2019-07-05T05:42:57Z</time>
      </trkpt>
      <trkpt lat="40.1323590" lon="-0.8119670">
        <ele>975.6</ele>
        <time>2019-07-05T05:42:58Z</time>
      </trkpt>
      <trkpt lat="40.1323590" lon="-0.8119670">
        <ele>975.4</ele>
        <time>2019-07-05T05:42:59Z</time>
      </trkpt>
      <trkpt lat="40.1323590" lon="-0.8119670">
        <ele>975.0</ele>
        <time>2019-07-05T05:43:01Z</time>
      </trkpt>
      <trkpt lat="40.1323590" lon="-0.8119670">
        <ele>975.0</ele>
        <time>2019-07-05T05:43:04Z</time>
      </trkpt>
      <trkpt lat="40.1323590" lon="-0.8119670">
        <ele>974.8</ele>
        <time>2019-07-05T05:43:09Z</time>
      </trkpt>
      <trkpt lat="40.1323590" lon="-0.8119670">
        <ele>974.2</ele>
        <time>2019-07-05T05:43:19Z</time>
      </trkpt>
      <trkpt lat="40.1323590" lon="-0.8119670">
        <ele>974.2</ele>
        <time>2019-07-05T05:43:29Z</time>
      </trkpt>
      <trkpt lat="40.1323590" lon="-0.8119670">
        <ele>974.0</ele>
        <time>2019-07-05T05:43:39Z</time>
      </trkpt>
      <trkpt lat="40.1312800" lon="-0.8152010">
        <ele>973.8</ele>
        <time>2019-07-05T05:43:41Z</time>
      </trkpt>
      <trkpt lat="40.1314010" lon="-0.8153830">
        <ele>973.6</ele>
        <time>2019-07-05T05:43:42Z</time>
      </trkpt>
      <trkpt lat="40.1313310" lon="-0.8157680">
        <ele>973.4</ele>
        <time>2019-07-05T05:43:47Z</time>
      </trkpt>
      <trkpt lat="40.1312310" lon="-0.8161550">
        <ele>973.0</ele>
        <time>2019-07-05T05:43:52Z</time>
      </trkpt>
      <trkpt lat="40.1312120" lon="-0.8162360">
        <ele>973.0</ele>
        <time>2019-07-05T05:43:53Z</time>
      </trkpt>
      <trkpt lat="40.1310900" lon="-0.8167890">
        <ele>972.8</ele>
        <time>2019-07-05T05:44:00Z</time>
      </trkpt>
      <trkpt lat="40.1309550" lon="-0.8175110">
        <ele>972.4</ele>
        <time>2019-07-05T05:44:09Z</time>
      </trkpt>
      <trkpt lat="40.1309430" lon="-0.8175900">
        <ele>972.6</ele>
        <time>2019-07-05T05:44:10Z</time>
      </trkpt>
      <trkpt lat="40.1309170" lon="-0.8181410">
        <ele>973.2</ele>
        <time>2019-07-05T05:44:17Z</time>
      </trkpt>
      <trkpt lat="40.1309660" lon="-0.8186130">
        <ele>973.0</ele>
        <time>2019-07-05T05:44:23Z</time>
      </trkpt>
      <trkpt lat="40.1309810" lon="-0.8186880">
        <ele>973.0</ele>
        <time>2019-07-05T05:44:24Z</time>
      </trkpt>
      <trkpt lat="40.1311210" lon="-0.8191190">
        <ele>973.8</ele>
        <time>2019-07-05T05:44:30Z</time>
      </trkpt>
      <trkpt lat="40.1312960" lon="-0.8194880">
        <ele>974.2</ele>
        <time>2019-07-05T05:44:36Z</time>
      </trkpt>
      <trkpt lat="40.1313280" lon="-0.8195430">
        <ele>974.2</ele>
        <time>2019-07-05T05:44:37Z</time>
      </trkpt>
      <trkpt lat="40.1315780" lon="-0.8198850">
        <ele>975.2</ele>
        <time>2019-07-05T05:44:44Z</time>
      </trkpt>
      <trkpt lat="40.1319140" lon="-0.8201900">
        <ele>976.0</ele>
        <time>2019-07-05T05:44:52Z</time>
      </trkpt>
      <trkpt lat="40.1321530" lon="-0.8203250">
        <ele>976.2</ele>
        <time>2019-07-05T05:44:57Z</time>
      </trkpt>
      <trkpt lat="40.1323030" lon="-0.8203840">
        <ele>976.2</ele>
        <time>2019-07-05T05:45:00Z</time>
      </trkpt>
      <trkpt lat="40.1326180" lon="-0.8204610">
        <ele>977.0</ele>
        <time>2019-07-05T05:45:06Z</time>
      </trkpt>
      <trkpt lat="40.1326720" lon="-0.8204690">
        <ele>977.0</ele>
        <time>2019-07-05T05:45:07Z</time>
      </trkpt>
      <trkpt lat="40.1327260" lon="-0.8204750">
        <ele>977.2</ele>
        <time>2019-07-05T05:45:08Z</time>
      </trkpt>
      <trkpt lat="40.1331040" lon="-0.8204820">
        <ele>977.8</ele>
        <time>2019-07-05T05:45:15Z</time>
      </trkpt>
      <trkpt lat="40.1331590" lon="-0.8204800">
        <ele>978.0</ele>
        <time>2019-07-05T05:45:16Z</time>
      </trkpt>
      <trkpt lat="40.1332690" lon="-0.8204670">
        <ele>978.4</ele>
        <time>2019-07-05T05:45:18Z</time>
      </trkpt>
      <trkpt lat="40.1337580" lon="-0.8203510">
        <ele>979.2</ele>
        <time>2019-07-05T05:45:27Z</time>
      </trkpt>
      <trkpt lat="40.1338120" lon="-0.8203350">
        <ele>979.2</ele>
        <time>2019-07-05T05:45:28Z</time>
      </trkpt>
      <trkpt lat="40.1342320" lon="-0.8202190">
        <ele>980.2</ele>
        <time>2019-07-05T05:45:36Z</time>
      </trkpt>
      <trkpt lat="40.1346100" lon="-0.8201210">
        <ele>981.2</ele>
        <time>2019-07-05T05:45:43Z</time>
      </trkpt>
      <trkpt lat="40.1348810" lon="-0.8200500">
        <ele>981.8</ele>
        <time>2019-07-05T05:45:48Z</time>
      </trkpt>
      <trkpt lat="40.1353210" lon="-0.8199300">
        <ele>982.2</ele>
        <time>2019-07-05T05:45:56Z</time>
      </trkpt>
      <trkpt lat="40.1353750" lon="-0.8199150">
        <ele>982.4</ele>
        <time>2019-07-05T05:45:57Z</time>
      </trkpt>
      <trkpt lat="40.1359280" lon="-0.8197660">
        <ele>983.2</ele>
        <time>2019-07-05T05:46:07Z</time>
      </trkpt>
      <trkpt lat="40.1359860" lon="-0.8197520">
        <ele>983.4</ele>
        <time>2019-07-05T05:46:08Z</time>
      </trkpt>
      <trkpt lat="40.1365520" lon="-0.8196040">
        <ele>984.2</ele>
        <time>2019-07-05T05:46:18Z</time>
      </trkpt>
      <trkpt lat="40.1366070" lon="-0.8195930">
        <ele>984.2</ele>
        <time>2019-07-05T05:46:19Z</time>
      </trkpt>
      <trkpt lat="40.1366630" lon="-0.8195810">
        <ele>984.4</ele>
        <time>2019-07-05T05:46:20Z</time>
      </trkpt>
      <trkpt lat="40.1371120" lon="-0.8195330">
        <ele>985.2</ele>
        <time>2019-07-05T05:46:28Z</time>
      </trkpt>
      <trkpt lat="40.1371690" lon="-0.8195330">
        <ele>985.4</ele>
        <time>2019-07-05T05:46:29Z</time>
      </trkpt>
      <trkpt lat="40.1376240" lon="-0.8195630">
        <ele>986.4</ele>
        <time>2019-07-05T05:46:37Z</time>
      </trkpt>
      <trkpt lat="40.1376810" lon="-0.8195760">
        <ele>986.4</ele>
        <time>2019-07-05T05:46:38Z</time>
      </trkpt>
      <trkpt lat="40.1382000" lon="-0.8197480">
        <ele>987.2</ele>
        <time>2019-07-05T05:46:47Z</time>
      </trkpt>
      <trkpt lat="40.1383140" lon="-0.8197870">
        <ele>987.4</ele>
        <time>2019-07-05T05:46:49Z</time>
      </trkpt>
      <trkpt lat="40.1388220" lon="-0.8199740">
        <ele>988.2</ele>
        <time>2019-07-05T05:46:58Z</time>
      </trkpt>
      <trkpt lat="40.1388770" lon="-0.8199950">
        <ele>988.4</ele>
        <time>2019-07-05T05:46:59Z</time>
      </trkpt>
      <trkpt lat="40.1391990" lon="-0.8201150">
        <ele>989.0</ele>
        <time>2019-07-05T05:47:05Z</time>
      </trkpt>
      <trkpt lat="40.1393050" lon="-0.8201510">
        <ele>989.4</ele>
        <time>2019-07-05T05:47:07Z</time>
      </trkpt>
      <trkpt lat="40.1394360" lon="-0.8202230">
        <ele>989.6</ele>
        <time>2019-07-05T05:47:10Z</time>
      </trkpt>
      <trkpt lat="40.1395270" lon="-0.8202680">
        <ele>989.4</ele>
        <time>2019-07-05T05:47:12Z</time>
      </trkpt>
      <trkpt lat="40.1397550" lon="-0.8204250">
        <ele>989.0</ele>
        <time>2019-07-05T05:47:17Z</time>
      </trkpt>
      <trkpt lat="40.1399780" lon="-0.8206400">
        <ele>989.4</ele>
        <time>2019-07-05T05:47:22Z</time>
      </trkpt>
      <trkpt lat="40.1400200" lon="-0.8206880">
        <ele>989.4</ele>
        <time>2019-07-05T05:47:23Z</time>
      </trkpt>
      <trkpt lat="40.1402830" lon="-0.8210780">
        <ele>989.2</ele>
        <time>2019-07-05T05:47:30Z</time>
      </trkpt>
      <trkpt lat="40.1405370" lon="-0.8215990">
        <ele>989.0</ele>
        <time>2019-07-05T05:47:38Z</time>
      </trkpt>
      <trkpt lat="40.1407460" lon="-0.8220660">
        <ele>989.4</ele>
        <time>2019-07-05T05:47:45Z</time>
      </trkpt>
      <trkpt lat="40.1407780" lon="-0.8221300">
        <ele>989.4</ele>
        <time>2019-07-05T05:47:46Z</time>
      </trkpt>
      <trkpt lat="40.1410340" lon="-0.8226610">
        <ele>988.6</ele>
        <time>2019-07-05T05:47:54Z</time>
      </trkpt>
      <trkpt lat="40.1413120" lon="-0.8231590">
        <ele>988.8</ele>
        <time>2019-07-05T05:48:02Z</time>
      </trkpt>
      <trkpt lat="40.1413500" lon="-0.8232150">
        <ele>988.8</ele>
        <time>2019-07-05T05:48:03Z</time>
      </trkpt>
      <trkpt lat="40.1414700" lon="-0.8233760">
        <ele>988.8</ele>
        <time>2019-07-05T05:48:06Z</time>
      </trkpt>
      <trkpt lat="40.1417260" lon="-0.8236790">
        <ele>989.0</ele>
        <time>2019-07-05T05:48:12Z</time>
      </trkpt>
      <trkpt lat="40.1420690" lon="-0.8240670">
        <ele>989.8</ele>
        <time>2019-07-05T05:48:20Z</time>
      </trkpt>
      <trkpt lat="40.1422840" lon="-0.8243010">
        <ele>990.4</ele>
        <time>2019-07-05T05:48:25Z</time>
      </trkpt>
      <trkpt lat="40.1423710" lon="-0.8243930">
        <ele>990.4</ele>
        <time>2019-07-05T05:48:27Z</time>
      </trkpt>
      <trkpt lat="40.1424130" lon="-0.8244400">
        <ele>990.4</ele>
        <time>2019-07-05T05:48:28Z</time>
      </trkpt>
      <trkpt lat="40.1427090" lon="-0.8247600">
        <ele>991.2</ele>
        <time>2019-07-05T05:48:35Z</time>
      </trkpt>
      <trkpt lat="40.1427920" lon="-0.8248540">
        <ele>991.4</ele>
        <time>2019-07-05T05:48:37Z</time>
      </trkpt>
      <trkpt lat="40.1428760" lon="-0.8249470">
        <ele>991.6</ele>
        <time>2019-07-05T05:48:39Z</time>
      </trkpt>
      <trkpt lat="40.1430990" lon="-0.8252640">
        <ele>992.4</ele>
        <time>2019-07-05T05:48:45Z</time>
      </trkpt>
      <trkpt lat="40.1431970" lon="-0.8254410">
        <ele>992.6</ele>
        <time>2019-07-05T05:48:48Z</time>
      </trkpt>
      <trkpt lat="40.1433890" lon="-0.8257890">
        <ele>993.0</ele>
        <time>2019-07-05T05:48:54Z</time>
      </trkpt>
      <trkpt lat="40.1436120" lon="-0.8261890">
        <ele>993.8</ele>
        <time>2019-07-05T05:49:01Z</time>
      </trkpt>
      <trkpt lat="40.1437780" lon="-0.8264800">
        <ele>994.2</ele>
        <time>2019-07-05T05:49:06Z</time>
      </trkpt>
      <trkpt lat="40.1439090" lon="-0.8267070">
        <ele>994.8</ele>
        <time>2019-07-05T05:49:10Z</time>
      </trkpt>
      <trkpt lat="40.1440420" lon="-0.8269360">
        <ele>995.2</ele>
        <time>2019-07-05T05:49:14Z</time>
      </trkpt>
      <trkpt lat="40.1442770" lon="-0.8273420">
        <ele>995.4</ele>
        <time>2019-07-05T05:49:21Z</time>
      </trkpt>
      <trkpt lat="40.1443810" lon="-0.8275160">
        <ele>995.6</ele>
        <time>2019-07-05T05:49:24Z</time>
      </trkpt>
      <trkpt lat="40.1446380" lon="-0.8279340">
        <ele>996.0</ele>
        <time>2019-07-05T05:49:31Z</time>
      </trkpt>
      <trkpt lat="40.1449710" lon="-0.8285020">
        <ele>996.0</ele>
        <time>2019-07-05T05:49:40Z</time>
      </trkpt>
      <trkpt lat="40.1451560" lon="-0.8288250">
        <ele>996.2</ele>
        <time>2019-07-05T05:49:45Z</time>
      </trkpt>
      <trkpt lat="40.1452670" lon="-0.8290200">
        <ele>996.2</ele>
        <time>2019-07-05T05:49:48Z</time>
      </trkpt>
      <trkpt lat="40.1453800" lon="-0.8292110">
        <ele>996.2</ele>
        <time>2019-07-05T05:49:51Z</time>
      </trkpt>
      <trkpt lat="40.1456380" lon="-0.8296600">
        <ele>996.6</ele>
        <time>2019-07-05T05:49:58Z</time>
      </trkpt>
      <trkpt lat="40.1459680" lon="-0.8302640">
        <ele>996.6</ele>
        <time>2019-07-05T05:50:07Z</time>
      </trkpt>
      <trkpt lat="40.1460030" lon="-0.8303320">
        <ele>996.6</ele>
        <time>2019-07-05T05:50:08Z</time>
      </trkpt>
      <trkpt lat="40.1461520" lon="-0.8306680">
        <ele>996.8</ele>
        <time>2019-07-05T05:50:13Z</time>
      </trkpt>
      <trkpt lat="40.1462260" lon="-0.8308650">
        <ele>996.8</ele>
        <time>2019-07-05T05:50:16Z</time>
      </trkpt>
      <trkpt lat="40.1463480" lon="-0.8313460">
        <ele>997.6</ele>
        <time>2019-07-05T05:50:23Z</time>
      </trkpt>
      <trkpt lat="40.1463700" lon="-0.8314880">
        <ele>997.8</ele>
        <time>2019-07-05T05:50:25Z</time>
      </trkpt>
      <trkpt lat="40.1464210" lon="-0.8319210">
        <ele>998.8</ele>
        <time>2019-07-05T05:50:31Z</time>
      </trkpt>
      <trkpt lat="40.1464260" lon="-0.8319920">
        <ele>998.8</ele>
        <time>2019-07-05T05:50:32Z</time>
      </trkpt>
      <trkpt lat="40.1464340" lon="-0.8321360">
        <ele>999.0</ele>
        <time>2019-07-05T05:50:34Z</time>
      </trkpt>
      <trkpt lat="40.1464300" lon="-0.8325020">
        <ele>999.2</ele>
        <time>2019-07-05T05:50:39Z</time>
      </trkpt>
      <trkpt lat="40.1464210" lon="-0.8327970">
        <ele>999.2</ele>
        <time>2019-07-05T05:50:43Z</time>
      </trkpt>
      <trkpt lat="40.1464200" lon="-0.8329470">
        <ele>999.6</ele>
        <time>2019-07-05T05:50:45Z</time>
      </trkpt>
      <trkpt lat="40.1464140" lon="-0.8331720">
        <ele>1000.2</ele>
        <time>2019-07-05T05:50:48Z</time>
      </trkpt>
      <trkpt lat="40.1463990" lon="-0.8339210">
        <ele>1000.6</ele>
        <time>2019-07-05T05:50:58Z</time>
      </trkpt>
      <trkpt lat="40.1463940" lon="-0.8341440">
        <ele>1001.0</ele>
        <time>2019-07-05T05:51:01Z</time>
      </trkpt>
      <trkpt lat="40.1463850" lon="-0.8345860">
        <ele>1002.0</ele>
        <time>2019-07-05T05:51:07Z</time>
      </trkpt>
      <trkpt lat="40.1463750" lon="-0.8350910">
        <ele>1002.4</ele>
        <time>2019-07-05T05:51:14Z</time>
      </trkpt>
      <trkpt lat="40.1463620" lon="-0.8357300">
        <ele>1003.2</ele>
        <time>2019-07-05T05:51:23Z</time>
      </trkpt>
      <trkpt lat="40.1463580" lon="-0.8359420">
        <ele>1003.8</ele>
        <time>2019-07-05T05:51:26Z</time>
      </trkpt>
      <trkpt lat="40.1463500" lon="-0.8365060">
        <ele>1003.6</ele>
        <time>2019-07-05T05:51:34Z</time>
      </trkpt>
      <trkpt lat="40.1463430" lon="-0.8368490">
        <ele>1004.2</ele>
        <time>2019-07-05T05:51:39Z</time>
      </trkpt>
      <trkpt lat="40.1463400" lon="-0.8372670">
        <ele>1005.0</ele>
        <time>2019-07-05T05:51:45Z</time>
      </trkpt>
      <trkpt lat="40.1463340" lon="-0.8375410">
        <ele>1005.2</ele>
        <time>2019-07-05T05:51:49Z</time>
      </trkpt>
      <trkpt lat="40.1463290" lon="-0.8378860">
        <ele>1005.6</ele>
        <time>2019-07-05T05:51:54Z</time>
      </trkpt>
      <trkpt lat="40.1463260" lon="-0.8383010">
        <ele>1006.4</ele>
        <time>2019-07-05T05:52:00Z</time>
      </trkpt>
      <trkpt lat="40.1463270" lon="-0.8385050">
        <ele>1006.8</ele>
        <time>2019-07-05T05:52:03Z</time>
      </trkpt>
      <trkpt lat="40.1463160" lon="-0.8390010">
        <ele>1007.2</ele>
        <time>2019-07-05T05:52:10Z</time>
      </trkpt>
      <trkpt lat="40.1463120" lon="-0.8393730">
        <ele>1007.4</ele>
        <time>2019-07-05T05:52:15Z</time>
      </trkpt>
      <trkpt lat="40.1463020" lon="-0.8395940">
        <ele>1008.0</ele>
        <time>2019-07-05T05:52:18Z</time>
      </trkpt>
      <trkpt lat="40.1463000" lon="-0.8398150">
        <ele>1008.6</ele>
        <time>2019-07-05T05:52:21Z</time>
      </trkpt>
      <trkpt lat="40.1463040" lon="-0.8400320">
        <ele>1008.8</ele>
        <time>2019-07-05T05:52:24Z</time>
      </trkpt>
      <trkpt lat="40.1463210" lon="-0.8401730">
        <ele>1008.8</ele>
        <time>2019-07-05T05:52:26Z</time>
      </trkpt>
      <trkpt lat="40.1463840" lon="-0.8405250">
        <ele>1009.8</ele>
        <time>2019-07-05T05:52:31Z</time>
      </trkpt>
      <trkpt lat="40.1464230" lon="-0.8406610">
        <ele>1010.0</ele>
        <time>2019-07-05T05:52:33Z</time>
      </trkpt>
      <trkpt lat="40.1465720" lon="-0.8410490">
        <ele>1010.4</ele>
        <time>2019-07-05T05:52:39Z</time>
      </trkpt>
      <trkpt lat="40.1466330" lon="-0.8411700">
        <ele>1010.6</ele>
        <time>2019-07-05T05:52:41Z</time>
      </trkpt>
      <trkpt lat="40.1468570" lon="-0.8414980">
        <ele>1011.0</ele>
        <time>2019-07-05T05:52:47Z</time>
      </trkpt>
      <trkpt lat="40.1470730" lon="-0.8417340">
        <ele>1011.8</ele>
        <time>2019-07-05T05:52:52Z</time>
      </trkpt>
      <trkpt lat="40.1472150" lon="-0.8418520">
        <ele>1012.2</ele>
        <time>2019-07-05T05:52:55Z</time>
      </trkpt>
      <trkpt lat="40.1475690" lon="-0.8420490">
        <ele>1012.6</ele>
        <time>2019-07-05T05:53:02Z</time>
      </trkpt>
      <trkpt lat="40.1476760" lon="-0.8420810">
        <ele>1012.8</ele>
        <time>2019-07-05T05:53:04Z</time>
      </trkpt>
      <trkpt lat="40.1479520" lon="-0.8421370">
        <ele>1013.8</ele>
        <time>2019-07-05T05:53:09Z</time>
      </trkpt>
      <trkpt lat="40.1484410" lon="-0.8422290">
        <ele>1014.6</ele>
        <time>2019-07-05T05:53:18Z</time>
      </trkpt>
      <trkpt lat="40.1485470" lon="-0.8422570">
        <ele>1014.8</ele>
        <time>2019-07-05T05:53:20Z</time>
      </trkpt>
      <trkpt lat="40.1486020" lon="-0.8422650">
        <ele>1014.8</ele>
        <time>2019-07-05T05:53:21Z</time>
      </trkpt>
      <trkpt lat="40.1488040" lon="-0.8422970">
        <ele>1015.6</ele>
        <time>2019-07-05T05:53:25Z</time>
      </trkpt>
      <trkpt lat="40.1489600" lon="-0.8423300">
        <ele>1016.0</ele>
        <time>2019-07-05T05:53:28Z</time>
      </trkpt>
      <trkpt lat="40.1492810" lon="-0.8424210">
        <ele>1016.4</ele>
        <time>2019-07-05T05:53:34Z</time>
      </trkpt>
      <trkpt lat="40.1495800" lon="-0.8425960">
        <ele>1016.8</ele>
        <time>2019-07-05T05:53:40Z</time>
      </trkpt>
      <trkpt lat="40.1496270" lon="-0.8426330">
        <ele>1017.0</ele>
        <time>2019-07-05T05:53:41Z</time>
      </trkpt>
      <trkpt lat="40.1499030" lon="-0.8428800">
        <ele>1017.8</ele>
        <time>2019-07-05T05:53:47Z</time>
      </trkpt>
      <trkpt lat="40.1499420" lon="-0.8429310">
        <ele>1018.0</ele>
        <time>2019-07-05T05:53:48Z</time>
      </trkpt>
      <trkpt lat="40.1501640" lon="-0.8432570">
        <ele>1018.8</ele>
        <time>2019-07-05T05:53:54Z</time>
      </trkpt>
      <trkpt lat="40.1501970" lon="-0.8433160">
        <ele>1018.8</ele>
        <time>2019-07-05T05:53:55Z</time>
      </trkpt>
      <trkpt lat="40.1503850" lon="-0.8436890">
        <ele>1019.2</ele>
        <time>2019-07-05T05:54:01Z</time>
      </trkpt>
      <trkpt lat="40.1506460" lon="-0.8442040">
        <ele>1019.6</ele>
        <time>2019-07-05T05:54:09Z</time>
      </trkpt>
      <trkpt lat="40.1509160" lon="-0.8447330">
        <ele>1020.0</ele>
        <time>2019-07-05T05:54:17Z</time>
      </trkpt>
      <trkpt lat="40.1509500" lon="-0.8448000">
        <ele>1020.0</ele>
        <time>2019-07-05T05:54:18Z</time>
      </trkpt>
      <trkpt lat="40.1511920" lon="-0.8452660">
        <ele>1020.4</ele>
        <time>2019-07-05T05:54:25Z</time>
      </trkpt>
      <trkpt lat="40.1514270" lon="-0.8457160">
        <ele>1020.4</ele>
        <time>2019-07-05T05:54:32Z</time>
      </trkpt>
      <trkpt lat="40.1515920" lon="-0.8460870">
        <ele>1020.2</ele>
        <time>2019-07-05T05:54:38Z</time>
      </trkpt>
      <trkpt lat="40.1517680" lon="-0.8466250">
        <ele>1020.6</ele>
        <time>2019-07-05T05:54:46Z</time>
      </trkpt>
      <trkpt lat="40.1517840" lon="-0.8466930">
        <ele>1020.8</ele>
        <time>2019-07-05T05:54:47Z</time>
      </trkpt>
      <trkpt lat="40.1518690" lon="-0.8471870">
        <ele>1021.8</ele>
        <time>2019-07-05T05:54:54Z</time>
      </trkpt>
      <trkpt lat="40.1518910" lon="-0.8473990">
        <ele>1021.8</ele>
        <time>2019-07-05T05:54:57Z</time>
      </trkpt>
      <trkpt lat="40.1518970" lon="-0.8478220">
        <ele>1022.4</ele>
        <time>2019-07-05T05:55:03Z</time>
      </trkpt>
      <trkpt lat="40.1518690" lon="-0.8482400">
        <ele>1022.8</ele>
        <time>2019-07-05T05:55:09Z</time>
      </trkpt>
      <trkpt lat="40.1518600" lon="-0.8483110">
        <ele>1023.0</ele>
        <time>2019-07-05T05:55:10Z</time>
      </trkpt>
      <trkpt lat="40.1518390" lon="-0.8484510">
        <ele>1023.2</ele>
        <time>2019-07-05T05:55:12Z</time>
      </trkpt>
      <trkpt lat="40.1517190" lon="-0.8490670">
        <ele>1024.0</ele>
        <time>2019-07-05T05:55:21Z</time>
      </trkpt>
      <trkpt lat="40.1517060" lon="-0.8491340">
        <ele>1024.0</ele>
        <time>2019-07-05T05:55:22Z</time>
      </trkpt>
      <trkpt lat="40.1516060" lon="-0.8496700">
        <ele>1025.2</ele>
        <time>2019-07-05T05:55:30Z</time>
      </trkpt>
      <trkpt lat="40.1515950" lon="-0.8497360">
        <ele>1025.2</ele>
        <time>2019-07-05T05:55:31Z</time>
      </trkpt>
      <trkpt lat="40.1514700" lon="-0.8503980">
        <ele>1025.6</ele>
        <time>2019-07-05T05:55:41Z</time>
      </trkpt>
      <trkpt lat="40.1514350" lon="-0.8505960">
        <ele>1026.0</ele>
        <time>2019-07-05T05:55:44Z</time>
      </trkpt>
      <trkpt lat="40.1513350" lon="-0.8511230">
        <ele>1026.8</ele>
        <time>2019-07-05T05:55:52Z</time>
      </trkpt>
      <trkpt lat="40.1512960" lon="-0.8513220">
        <ele>1027.2</ele>
        <time>2019-07-05T05:55:55Z</time>
      </trkpt>
      <trkpt lat="40.1512270" lon="-0.8516560">
        <ele>1027.4</ele>
        <time>2019-07-05T05:56:00Z</time>
      </trkpt>
      <trkpt lat="40.1511920" lon="-0.8518600">
        <ele>1027.4</ele>
        <time>2019-07-05T05:56:03Z</time>
      </trkpt>
      <trkpt lat="40.1511580" lon="-0.8519920">
        <ele>1027.6</ele>
        <time>2019-07-05T05:56:05Z</time>
      </trkpt>
      <trkpt lat="40.1511320" lon="-0.8521270">
        <ele>1028.0</ele>
        <time>2019-07-05T05:56:07Z</time>
      </trkpt>
      <trkpt lat="40.1511200" lon="-0.8521950">
        <ele>1028.4</ele>
        <time>2019-07-05T05:56:08Z</time>
      </trkpt>
      <trkpt lat="40.1510970" lon="-0.8523310">
        <ele>1028.6</ele>
        <time>2019-07-05T05:56:10Z</time>
      </trkpt>
      <trkpt lat="40.1510080" lon="-0.8528040">
        <ele>1029.2</ele>
        <time>2019-07-05T05:56:17Z</time>
      </trkpt>
      <trkpt lat="40.1509860" lon="-0.8529380">
        <ele>1029.4</ele>
        <time>2019-07-05T05:56:19Z</time>
      </trkpt>
      <trkpt lat="40.1509640" lon="-0.8531390">
        <ele>1029.6</ele>
        <time>2019-07-05T05:56:22Z</time>
      </trkpt>
      <trkpt lat="40.1509600" lon="-0.8532050">
        <ele>1029.6</ele>
        <time>2019-07-05T05:56:23Z</time>
      </trkpt>
      <trkpt lat="40.1509550" lon="-0.8537340">
        <ele>1029.8</ele>
        <time>2019-07-05T05:56:31Z</time>
      </trkpt>
      <trkpt lat="40.1510130" lon="-0.8540650">
        <ele>1030.2</ele>
        <time>2019-07-05T05:56:36Z</time>
      </trkpt>
      <trkpt lat="40.1510250" lon="-0.8541360">
        <ele>1030.6</ele>
        <time>2019-07-05T05:56:37Z</time>
      </trkpt>
      <trkpt lat="40.1511360" lon="-0.8545390">
        <ele>1031.0</ele>
        <time>2019-07-05T05:56:43Z</time>
      </trkpt>
      <trkpt lat="40.1513940" lon="-0.8550710">
        <ele>1031.2</ele>
        <time>2019-07-05T05:56:52Z</time>
      </trkpt>
      <trkpt lat="40.1514250" lon="-0.8551270">
        <ele>1031.4</ele>
        <time>2019-07-05T05:56:53Z</time>
      </trkpt>
      <trkpt lat="40.1517110" lon="-0.8556360">
        <ele>1032.2</ele>
        <time>2019-07-05T05:57:02Z</time>
      </trkpt>
      <trkpt lat="40.1518060" lon="-0.8558090">
        <ele>1032.4</ele>
        <time>2019-07-05T05:57:05Z</time>
      </trkpt>
      <trkpt lat="40.1520330" lon="-0.8561970">
        <ele>1033.2</ele>
        <time>2019-07-05T05:57:12Z</time>
      </trkpt>
      <trkpt lat="40.1521320" lon="-0.8563660">
        <ele>1033.6</ele>
        <time>2019-07-05T05:57:15Z</time>
      </trkpt>
      <trkpt lat="40.1523190" lon="-0.8567130">
        <ele>1033.8</ele>
        <time>2019-07-05T05:57:21Z</time>
      </trkpt>
      <trkpt lat="40.1525060" lon="-0.8570400">
        <ele>1034.4</ele>
        <time>2019-07-05T05:57:27Z</time>
      </trkpt>
      <trkpt lat="40.1525640" lon="-0.8571510">
        <ele>1034.6</ele>
        <time>2019-07-05T05:57:29Z</time>
      </trkpt>
      <trkpt lat="40.1526790" lon="-0.8573820">
        <ele>1034.8</ele>
        <time>2019-07-05T05:57:33Z</time>
      </trkpt>
      <trkpt lat="40.1527320" lon="-0.8574980">
        <ele>1035.0</ele>
        <time>2019-07-05T05:57:35Z</time>
      </trkpt>
      <trkpt lat="40.1528780" lon="-0.8579420">
        <ele>1035.4</ele>
        <time>2019-07-05T05:57:42Z</time>
      </trkpt>
      <trkpt lat="40.1529720" lon="-0.8584030">
        <ele>1035.8</ele>
        <time>2019-07-05T05:57:49Z</time>
      </trkpt>
      <trkpt lat="40.1530190" lon="-0.8588880">
        <ele>1036.4</ele>
        <time>2019-07-05T05:57:56Z</time>
      </trkpt>
      <trkpt lat="40.1530210" lon="-0.8590290">
        <ele>1036.4</ele>
        <time>2019-07-05T05:57:58Z</time>
      </trkpt>
      <trkpt lat="40.1530240" lon="-0.8592500">
        <ele>1036.6</ele>
        <time>2019-07-05T05:58:01Z</time>
      </trkpt>
      <trkpt lat="40.1530270" lon="-0.8593240">
        <ele>1036.6</ele>
        <time>2019-07-05T05:58:02Z</time>
      </trkpt>
      <trkpt lat="40.1530320" lon="-0.8598560">
        <ele>1036.6</ele>
        <time>2019-07-05T05:58:09Z</time>
      </trkpt>
      <trkpt lat="40.1530430" lon="-0.8603770">
        <ele>1037.2</ele>
        <time>2019-07-05T05:58:16Z</time>
      </trkpt>
      <trkpt lat="40.1530560" lon="-0.8605960">
        <ele>1037.2</ele>
        <time>2019-07-05T05:58:19Z</time>
      </trkpt>
      <trkpt lat="40.1531220" lon="-0.8610130">
        <ele>1037.6</ele>
        <time>2019-07-05T05:58:25Z</time>
      </trkpt>
      <trkpt lat="40.1531400" lon="-0.8610810">
        <ele>1037.6</ele>
        <time>2019-07-05T05:58:26Z</time>
      </trkpt>
      <trkpt lat="40.1532480" lon="-0.8614100">
        <ele>1037.6</ele>
        <time>2019-07-05T05:58:31Z</time>
      </trkpt>
      <trkpt lat="40.1533060" lon="-0.8615280">
        <ele>1038.2</ele>
        <time>2019-07-05T05:58:33Z</time>
      </trkpt>
      <trkpt lat="40.1535360" lon="-0.8619110">
        <ele>1038.6</ele>
        <time>2019-07-05T05:58:40Z</time>
      </trkpt>
      <trkpt lat="40.1535760" lon="-0.8619600">
        <ele>1038.6</ele>
        <time>2019-07-05T05:58:41Z</time>
      </trkpt>
      <trkpt lat="40.1537370" lon="-0.8621530">
        <ele>1038.8</ele>
        <time>2019-07-05T05:58:45Z</time>
      </trkpt>
      <trkpt lat="40.1539190" lon="-0.8623120">
        <ele>1039.0</ele>
        <time>2019-07-05T05:58:49Z</time>
      </trkpt>
      <trkpt lat="40.1542690" lon="-0.8625450">
        <ele>1039.6</ele>
        <time>2019-07-05T05:58:56Z</time>
      </trkpt>
      <trkpt lat="40.1545720" lon="-0.8627370">
        <ele>1039.6</ele>
        <time>2019-07-05T05:59:02Z</time>
      </trkpt>
      <trkpt lat="40.1547750" lon="-0.8628710">
        <ele>1040.0</ele>
        <time>2019-07-05T05:59:06Z</time>
      </trkpt>
      <trkpt lat="40.1552450" lon="-0.8631650">
        <ele>1040.4</ele>
        <time>2019-07-05T05:59:15Z</time>
      </trkpt>
      <trkpt lat="40.1552970" lon="-0.8631980">
        <ele>1040.4</ele>
        <time>2019-07-05T05:59:16Z</time>
      </trkpt>
      <trkpt lat="40.1556620" lon="-0.8634250">
        <ele>1041.4</ele>
        <time>2019-07-05T05:59:23Z</time>
      </trkpt>
      <trkpt lat="40.1559370" lon="-0.8635450">
        <ele>1041.6</ele>
        <time>2019-07-05T05:59:28Z</time>
      </trkpt>
      <trkpt lat="40.1561610" lon="-0.8636130">
        <ele>1042.0</ele>
        <time>2019-07-05T05:59:32Z</time>
      </trkpt>
      <trkpt lat="40.1565610" lon="-0.8636760">
        <ele>1041.8</ele>
        <time>2019-07-05T05:59:39Z</time>
      </trkpt>
      <trkpt lat="40.1570340" lon="-0.8636340">
        <ele>1041.8</ele>
        <time>2019-07-05T05:59:47Z</time>
      </trkpt>
      <trkpt lat="40.1570930" lon="-0.8636220">
        <ele>1041.8</ele>
        <time>2019-07-05T05:59:48Z</time>
      </trkpt>
      <trkpt lat="40.1576590" lon="-0.8634830">
        <ele>1042.2</ele>
        <time>2019-07-05T05:59:58Z</time>
      </trkpt>
      <trkpt lat="40.1579290" lon="-0.8634150">
        <ele>1042.6</ele>
        <time>2019-07-05T06:00:03Z</time>
      </trkpt>
      <trkpt lat="40.1582510" lon="-0.8633440">
        <ele>1043.0</ele>
        <time>2019-07-05T06:00:09Z</time>
      </trkpt>
      <trkpt lat="40.1585700" lon="-0.8632610">
        <ele>1043.4</ele>
        <time>2019-07-05T06:00:15Z</time>
      </trkpt>
      <trkpt lat="40.1586230" lon="-0.8632440">
        <ele>1043.4</ele>
        <time>2019-07-05T06:00:16Z</time>
      </trkpt>
      <trkpt lat="40.1589990" lon="-0.8631560">
        <ele>1044.0</ele>
        <time>2019-07-05T06:00:23Z</time>
      </trkpt>
      <trkpt lat="40.1592190" lon="-0.8631210">
        <ele>1044.4</ele>
        <time>2019-07-05T06:00:27Z</time>
      </trkpt>
      <trkpt lat="40.1594410" lon="-0.8631200">
        <ele>1045.0</ele>
        <time>2019-07-05T06:00:31Z</time>
      </trkpt>
      <trkpt lat="40.1596040" lon="-0.8631480">
        <ele>1045.4</ele>
        <time>2019-07-05T06:00:34Z</time>
      </trkpt>
      <trkpt lat="40.1598730" lon="-0.8632230">
        <ele>1045.8</ele>
        <time>2019-07-05T06:00:39Z</time>
      </trkpt>
      <trkpt lat="40.1599820" lon="-0.8632670">
        <ele>1045.8</ele>
        <time>2019-07-05T06:00:41Z</time>
      </trkpt>
      <trkpt lat="40.1601280" lon="-0.8633580">
        <ele>1046.0</ele>
        <time>2019-07-05T06:00:44Z</time>
      </trkpt>
      <trkpt lat="40.1602720" lon="-0.8634650">
        <ele>1046.4</ele>
        <time>2019-07-05T06:00:47Z</time>
      </trkpt>
      <trkpt lat="40.1603640" lon="-0.8635510">
        <ele>1046.6</ele>
        <time>2019-07-05T06:00:49Z</time>
      </trkpt>
      <trkpt lat="40.1605390" lon="-0.8637320">
        <ele>1046.8</ele>
        <time>2019-07-05T06:00:53Z</time>
      </trkpt>
      <trkpt lat="40.1606130" lon="-0.8638290">
        <ele>1047.0</ele>
        <time>2019-07-05T06:00:55Z</time>
      </trkpt>
      <trkpt lat="40.1607140" lon="-0.8639650">
        <ele>1047.2</ele>
        <time>2019-07-05T06:00:58Z</time>
      </trkpt>
      <trkpt lat="40.1607440" lon="-0.8640160">
        <ele>1047.2</ele>
        <time>2019-07-05T06:00:59Z</time>
      </trkpt>
      <trkpt lat="40.1608050" lon="-0.8641270">
        <ele>1047.4</ele>
        <time>2019-07-05T06:01:01Z</time>
      </trkpt>
      <trkpt lat="40.1608350" lon="-0.8641840">
        <ele>1047.6</ele>
        <time>2019-07-05T06:01:02Z</time>
      </trkpt>
      <trkpt lat="40.1609190" lon="-0.8643560">
        <ele>1048.0</ele>
        <time>2019-07-05T06:01:05Z</time>
      </trkpt>
      <trkpt lat="40.1609900" lon="-0.8645420">
        <ele>1048.4</ele>
        <time>2019-07-05T06:01:08Z</time>
      </trkpt>
      <trkpt lat="40.1610440" lon="-0.8647370">
        <ele>1048.6</ele>
        <time>2019-07-05T06:01:11Z</time>
      </trkpt>
      <trkpt lat="40.1610710" lon="-0.8648720">
        <ele>1048.8</ele>
        <time>2019-07-05T06:01:13Z</time>
      </trkpt>
      <trkpt lat="40.1610970" lon="-0.8650080">
        <ele>1049.0</ele>
        <time>2019-07-05T06:01:15Z</time>
      </trkpt>
      <trkpt lat="40.1611700" lon="-0.8654240">
        <ele>1049.2</ele>
        <time>2019-07-05T06:01:21Z</time>
      </trkpt>
      <trkpt lat="40.1612100" lon="-0.8657070">
        <ele>1049.6</ele>
        <time>2019-07-05T06:01:25Z</time>
      </trkpt>
      <trkpt lat="40.1612610" lon="-0.8659840">
        <ele>1049.8</ele>
        <time>2019-07-05T06:01:29Z</time>
      </trkpt>
      <trkpt lat="40.1613850" lon="-0.8666850">
        <ele>1050.4</ele>
        <time>2019-07-05T06:01:39Z</time>
      </trkpt>
      <trkpt lat="40.1614230" lon="-0.8668940">
        <ele>1050.6</ele>
        <time>2019-07-05T06:01:42Z</time>
      </trkpt>
      <trkpt lat="40.1614870" lon="-0.8672510">
        <ele>1051.0</ele>
        <time>2019-07-05T06:01:47Z</time>
      </trkpt>
      <trkpt lat="40.1615330" lon="-0.8675340">
        <ele>1051.6</ele>
        <time>2019-07-05T06:01:51Z</time>
      </trkpt>
      <trkpt lat="40.1615640" lon="-0.8677440">
        <ele>1051.8</ele>
        <time>2019-07-05T06:01:54Z</time>
      </trkpt>
      <trkpt lat="40.1616600" lon="-0.8684420">
        <ele>1052.2</ele>
        <time>2019-07-05T06:02:04Z</time>
      </trkpt>
      <trkpt lat="40.1616650" lon="-0.8685110">
        <ele>1052.4</ele>
        <time>2019-07-05T06:02:05Z</time>
      </trkpt>
      <trkpt lat="40.1616750" lon="-0.8686490">
        <ele>1052.8</ele>
        <time>2019-07-05T06:02:07Z</time>
      </trkpt>
      <trkpt lat="40.1617190" lon="-0.8692430">
        <ele>1053.4</ele>
        <time>2019-07-05T06:02:16Z</time>
      </trkpt>
      <trkpt lat="40.1617280" lon="-0.8694380">
        <ele>1053.8</ele>
        <time>2019-07-05T06:02:19Z</time>
      </trkpt>
      <trkpt lat="40.1617340" lon="-0.8698340">
        <ele>1054.4</ele>
        <time>2019-07-05T06:02:25Z</time>
      </trkpt>
      <trkpt lat="40.1617410" lon="-0.8702240">
        <ele>1054.8</ele>
        <time>2019-07-05T06:02:31Z</time>
      </trkpt>
      <trkpt lat="40.1617410" lon="-0.8702880">
        <ele>1055.0</ele>
        <time>2019-07-05T06:02:32Z</time>
      </trkpt>
      <trkpt lat="40.1617440" lon="-0.8708140">
        <ele>1055.8</ele>
        <time>2019-07-05T06:02:40Z</time>
      </trkpt>
      <trkpt lat="40.1617450" lon="-0.8708800">
        <ele>1056.0</ele>
        <time>2019-07-05T06:02:41Z</time>
      </trkpt>
      <trkpt lat="40.1617470" lon="-0.8711470">
        <ele>1056.2</ele>
        <time>2019-07-05T06:02:45Z</time>
      </trkpt>
      <trkpt lat="40.1617460" lon="-0.8715490">
        <ele>1056.6</ele>
        <time>2019-07-05T06:02:51Z</time>
      </trkpt>
      <trkpt lat="40.1617430" lon="-0.8718170">
        <ele>1057.0</ele>
        <time>2019-07-05T06:02:55Z</time>
      </trkpt>
      <trkpt lat="40.1617390" lon="-0.8723010">
        <ele>1057.4</ele>
        <time>2019-07-05T06:03:02Z</time>
      </trkpt>
      <trkpt lat="40.1617340" lon="-0.8728600">
        <ele>1058.2</ele>
        <time>2019-07-05T06:03:10Z</time>
      </trkpt>
      <trkpt lat="40.1617330" lon="-0.8729310">
        <ele>1058.4</ele>
        <time>2019-07-05T06:03:11Z</time>
      </trkpt>
      <trkpt lat="40.1617270" lon="-0.8735670">
        <ele>1058.4</ele>
        <time>2019-07-05T06:03:20Z</time>
      </trkpt>
      <trkpt lat="40.1617270" lon="-0.8741360">
        <ele>1059.0</ele>
        <time>2019-07-05T06:03:28Z</time>
      </trkpt>
      <trkpt lat="40.1617220" lon="-0.8747310">
        <ele>1059.4</ele>
        <time>2019-07-05T06:03:36Z</time>
      </trkpt>
      <trkpt lat="40.1617170" lon="-0.8750300">
        <ele>1060.0</ele>
        <time>2019-07-05T06:03:40Z</time>
      </trkpt>
      <trkpt lat="40.1617150" lon="-0.8752460">
        <ele>1060.4</ele>
        <time>2019-07-05T06:03:43Z</time>
      </trkpt>
      <trkpt lat="40.1616980" lon="-0.8759670">
        <ele>1060.8</ele>
        <time>2019-07-05T06:03:53Z</time>
      </trkpt>
      <trkpt lat="40.1616980" lon="-0.8760380">
        <ele>1061.0</ele>
        <time>2019-07-05T06:03:54Z</time>
      </trkpt>
      <trkpt lat="40.1616950" lon="-0.8767740">
        <ele>1061.8</ele>
        <time>2019-07-05T06:04:04Z</time>
      </trkpt>
      <trkpt lat="40.1616920" lon="-0.8769220">
        <ele>1061.8</ele>
        <time>2019-07-05T06:04:06Z</time>
      </trkpt>
      <trkpt lat="40.1616920" lon="-0.8770720">
        <ele>1062.0</ele>
        <time>2019-07-05T06:04:08Z</time>
      </trkpt>
      <trkpt lat="40.1616860" lon="-0.8776710">
        <ele>1062.8</ele>
        <time>2019-07-05T06:04:16Z</time>
      </trkpt>
      <trkpt lat="40.1617260" lon="-0.8781820">
        <ele>1063.4</ele>
        <time>2019-07-05T06:04:23Z</time>
      </trkpt>
      <trkpt lat="40.1617380" lon="-0.8782540">
        <ele>1063.6</ele>
        <time>2019-07-05T06:04:24Z</time>
      </trkpt>
      <trkpt lat="40.1618460" lon="-0.8786630">
        <ele>1064.4</ele>
        <time>2019-07-05T06:04:30Z</time>
      </trkpt>
      <trkpt lat="40.1618960" lon="-0.8787930">
        <ele>1064.6</ele>
        <time>2019-07-05T06:04:32Z</time>
      </trkpt>
      <trkpt lat="40.1621150" lon="-0.8792120">
        <ele>1065.2</ele>
        <time>2019-07-05T06:04:39Z</time>
      </trkpt>
      <trkpt lat="40.1621900" lon="-0.8793170">
        <ele>1065.6</ele>
        <time>2019-07-05T06:04:41Z</time>
      </trkpt>
      <trkpt lat="40.1624060" lon="-0.8795520">
        <ele>1066.0</ele>
        <time>2019-07-05T06:04:46Z</time>
      </trkpt>
      <trkpt lat="40.1627570" lon="-0.8798160">
        <ele>1066.8</ele>
        <time>2019-07-05T06:04:53Z</time>
      </trkpt>
      <trkpt lat="40.1630770" lon="-0.8799620">
        <ele>1066.8</ele>
        <time>2019-07-05T06:04:59Z</time>
      </trkpt>
      <trkpt lat="40.1634960" lon="-0.8801340">
        <ele>1067.2</ele>
        <time>2019-07-05T06:05:07Z</time>
      </trkpt>
      <trkpt lat="40.1637080" lon="-0.8802230">
        <ele>1067.8</ele>
        <time>2019-07-05T06:05:11Z</time>
      </trkpt>
      <trkpt lat="40.1639220" lon="-0.8803100">
        <ele>1068.0</ele>
        <time>2019-07-05T06:05:15Z</time>
      </trkpt>
      <trkpt lat="40.1643710" lon="-0.8805610">
        <ele>1068.8</ele>
        <time>2019-07-05T06:05:24Z</time>
      </trkpt>
      <trkpt lat="40.1645150" lon="-0.8807520">
        <ele>1069.0</ele>
        <time>2019-07-05T06:05:28Z</time>
      </trkpt>
      <trkpt lat="40.1645850" lon="-0.8808500">
        <ele>1068.8</ele>
        <time>2019-07-05T06:05:30Z</time>
      </trkpt>
      <trkpt lat="40.1646780" lon="-0.8809840">
        <ele>1068.4</ele>
        <time>2019-07-05T06:05:33Z</time>
      </trkpt>
      <trkpt lat="40.1647370" lon="-0.8810610">
        <ele>1068.4</ele>
        <time>2019-07-05T06:05:35Z</time>
      </trkpt>
      <trkpt lat="40.1647650" lon="-0.8811020">
        <ele>1068.4</ele>
        <time>2019-07-05T06:05:36Z</time>
      </trkpt>
      <trkpt lat="40.1648830" lon="-0.8812680">
        <ele>1069.0</ele>
        <time>2019-07-05T06:05:40Z</time>
      </trkpt>
      <trkpt lat="40.1649600" lon="-0.8813170">
        <ele>1069.0</ele>
        <time>2019-07-05T06:05:42Z</time>
      </trkpt>
      <trkpt lat="40.1650480" lon="-0.8812790">
        <ele>1069.4</ele>
        <time>2019-07-05T06:05:45Z</time>
      </trkpt>
      <trkpt lat="40.1650970" lon="-0.8811930">
        <ele>1070.0</ele>
        <time>2019-07-05T06:05:48Z</time>
      </trkpt>
      <trkpt lat="40.1651190" lon="-0.8811590">
        <ele>1070.0</ele>
        <time>2019-07-05T06:05:49Z</time>
      </trkpt>
      <trkpt lat="40.1651460" lon="-0.8811240">
        <ele>1070.0</ele>
        <time>2019-07-05T06:05:50Z</time>
      </trkpt>
      <trkpt lat="40.1652070" lon="-0.8810640">
        <ele>1069.4</ele>
        <time>2019-07-05T06:05:52Z</time>
      </trkpt>
      <trkpt lat="40.1652760" lon="-0.8810190">
        <ele>1069.4</ele>
        <time>2019-07-05T06:05:54Z</time>
      </trkpt>
      <trkpt lat="40.1653140" lon="-0.8810220">
        <ele>1069.0</ele>
        <time>2019-07-05T06:05:55Z</time>
      </trkpt>
      <trkpt lat="40.1653480" lon="-0.8810440">
        <ele>1068.8</ele>
        <time>2019-07-05T06:05:56Z</time>
      </trkpt>
      <trkpt lat="40.1654530" lon="-0.8811520">
        <ele>1068.6</ele>
        <time>2019-07-05T06:05:59Z</time>
      </trkpt>
      <trkpt lat="40.1657130" lon="-0.8814590">
        <ele>1069.0</ele>
        <time>2019-07-05T06:06:06Z</time>
      </trkpt>
      <trkpt lat="40.1659410" lon="-0.8817490">
        <ele>1069.2</ele>
        <time>2019-07-05T06:06:12Z</time>
      </trkpt>
      <trkpt lat="40.1663100" lon="-0.8822190">
        <ele>1069.6</ele>
        <time>2019-07-05T06:06:21Z</time>
      </trkpt>
      <trkpt lat="40.1666040" lon="-0.8825820">
        <ele>1069.4</ele>
        <time>2019-07-05T06:06:28Z</time>
      </trkpt>
      <trkpt lat="40.1669890" lon="-0.8830560">
        <ele>1069.4</ele>
        <time>2019-07-05T06:06:37Z</time>
      </trkpt>
      <trkpt lat="40.1672850" lon="-0.8834370">
        <ele>1069.6</ele>
        <time>2019-07-05T06:06:44Z</time>
      </trkpt>
      <trkpt lat="40.1673270" lon="-0.8834920">
        <ele>1069.8</ele>
        <time>2019-07-05T06:06:45Z</time>
      </trkpt>
      <trkpt lat="40.1676720" lon="-0.8839310">
        <ele>1069.6</ele>
        <time>2019-07-05T06:06:53Z</time>
      </trkpt>
      <trkpt lat="40.1680240" lon="-0.8843750">
        <ele>1069.6</ele>
        <time>2019-07-05T06:07:01Z</time>
      </trkpt>
      <trkpt lat="40.1683290" lon="-0.8847570">
        <ele>1069.4</ele>
        <time>2019-07-05T06:07:08Z</time>
      </trkpt>
      <trkpt lat="40.1686810" lon="-0.8851890">
        <ele>1070.0</ele>
        <time>2019-07-05T06:07:16Z</time>
      </trkpt>
      <trkpt lat="40.1690250" lon="-0.8856150">
        <ele>1070.0</ele>
        <time>2019-07-05T06:07:24Z</time>
      </trkpt>
      <trkpt lat="40.1693590" lon="-0.8860240">
        <ele>1070.6</ele>
        <time>2019-07-05T06:07:32Z</time>
      </trkpt>
      <trkpt lat="40.1697560" lon="-0.8865260">
        <ele>1070.8</ele>
        <time>2019-07-05T06:07:42Z</time>
      </trkpt>
      <trkpt lat="40.1699100" lon="-0.8867190">
        <ele>1070.6</ele>
        <time>2019-07-05T06:07:46Z</time>
      </trkpt>
      <trkpt lat="40.1700650" lon="-0.8869190">
        <ele>1071.4</ele>
        <time>2019-07-05T06:07:50Z</time>
      </trkpt>
      <trkpt lat="40.1701430" lon="-0.8870180">
        <ele>1071.6</ele>
        <time>2019-07-05T06:07:52Z</time>
      </trkpt>
      <trkpt lat="40.1703010" lon="-0.8872140">
        <ele>1071.8</ele>
        <time>2019-07-05T06:07:56Z</time>
      </trkpt>
      <trkpt lat="40.1704170" lon="-0.8873590">
        <ele>1072.4</ele>
        <time>2019-07-05T06:07:59Z</time>
      </trkpt>
      <trkpt lat="40.1706080" lon="-0.8875990">
        <ele>1072.6</ele>
        <time>2019-07-05T06:08:04Z</time>
      </trkpt>
      <trkpt lat="40.1706460" lon="-0.8876470">
        <ele>1072.8</ele>
        <time>2019-07-05T06:08:05Z</time>
      </trkpt>
      <trkpt lat="40.1706850" lon="-0.8876950">
        <ele>1072.8</ele>
        <time>2019-07-05T06:08:06Z</time>
      </trkpt>
      <trkpt lat="40.1709560" lon="-0.8880260">
        <ele>1073.8</ele>
        <time>2019-07-05T06:08:13Z</time>
      </trkpt>
      <trkpt lat="40.1709930" lon="-0.8880730">
        <ele>1073.8</ele>
        <time>2019-07-05T06:08:14Z</time>
      </trkpt>
      <trkpt lat="40.1713360" lon="-0.8885040">
        <ele>1074.8</ele>
        <time>2019-07-05T06:08:23Z</time>
      </trkpt>
      <trkpt lat="40.1713730" lon="-0.8885530">
        <ele>1075.0</ele>
        <time>2019-07-05T06:08:24Z</time>
      </trkpt>
      <trkpt lat="40.1717150" lon="-0.8889820">
        <ele>1075.8</ele>
        <time>2019-07-05T06:08:33Z</time>
      </trkpt>
      <trkpt lat="40.1717530" lon="-0.8890290">
        <ele>1075.8</ele>
        <time>2019-07-05T06:08:34Z</time>
      </trkpt>
      <trkpt lat="40.1720210" lon="-0.8893540">
        <ele>1076.6</ele>
        <time>2019-07-05T06:08:41Z</time>
      </trkpt>
      <trkpt lat="40.1720980" lon="-0.8894480">
        <ele>1077.0</ele>
        <time>2019-07-05T06:08:43Z</time>
      </trkpt>
      <trkpt lat="40.1723230" lon="-0.8897430">
        <ele>1077.6</ele>
        <time>2019-07-05T06:08:49Z</time>
      </trkpt>
      <trkpt lat="40.1725220" lon="-0.8899910">
        <ele>1078.0</ele>
        <time>2019-07-05T06:08:54Z</time>
      </trkpt>
      <trkpt lat="40.1726870" lon="-0.8901850">
        <ele>1078.4</ele>
        <time>2019-07-05T06:08:58Z</time>
      </trkpt>
      <trkpt lat="40.1729230" lon="-0.8904800">
        <ele>1078.8</ele>
        <time>2019-07-05T06:09:04Z</time>
      </trkpt>
      <trkpt lat="40.1731200" lon="-0.8907280">
        <ele>1079.0</ele>
        <time>2019-07-05T06:09:09Z</time>
      </trkpt>
      <trkpt lat="40.1734330" lon="-0.8911210">
        <ele>1080.0</ele>
        <time>2019-07-05T06:09:17Z</time>
      </trkpt>
      <trkpt lat="40.1735520" lon="-0.8912710">
        <ele>1080.6</ele>
        <time>2019-07-05T06:09:20Z</time>
      </trkpt>
      <trkpt lat="40.1736330" lon="-0.8913720">
        <ele>1081.0</ele>
        <time>2019-07-05T06:09:22Z</time>
      </trkpt>
      <trkpt lat="40.1738740" lon="-0.8916680">
        <ele>1081.2</ele>
        <time>2019-07-05T06:09:28Z</time>
      </trkpt>
      <trkpt lat="40.1741490" lon="-0.8920100">
        <ele>1082.2</ele>
        <time>2019-07-05T06:09:35Z</time>
      </trkpt>
      <trkpt lat="40.1742240" lon="-0.8921080">
        <ele>1082.2</ele>
        <time>2019-07-05T06:09:37Z</time>
      </trkpt>
      <trkpt lat="40.1744980" lon="-0.8924500">
        <ele>1083.0</ele>
        <time>2019-07-05T06:09:44Z</time>
      </trkpt>
      <trkpt lat="40.1745790" lon="-0.8925470">
        <ele>1083.2</ele>
        <time>2019-07-05T06:09:46Z</time>
      </trkpt>
      <trkpt lat="40.1748150" lon="-0.8928460">
        <ele>1084.0</ele>
        <time>2019-07-05T06:09:52Z</time>
      </trkpt>
      <trkpt lat="40.1750120" lon="-0.8930930">
        <ele>1084.2</ele>
        <time>2019-07-05T06:09:57Z</time>
      </trkpt>
      <trkpt lat="40.1751330" lon="-0.8932340">
        <ele>1084.4</ele>
        <time>2019-07-05T06:10:00Z</time>
      </trkpt>
      <trkpt lat="40.1753970" lon="-0.8935740">
        <ele>1085.2</ele>
        <time>2019-07-05T06:10:07Z</time>
      </trkpt>
      <trkpt lat="40.1754760" lon="-0.8936650">
        <ele>1085.4</ele>
        <time>2019-07-05T06:10:09Z</time>
      </trkpt>
      <trkpt lat="40.1757520" lon="-0.8940070">
        <ele>1086.2</ele>
        <time>2019-07-05T06:10:16Z</time>
      </trkpt>
      <trkpt lat="40.1758300" lon="-0.8940990">
        <ele>1086.4</ele>
        <time>2019-07-05T06:10:18Z</time>
      </trkpt>
      <trkpt lat="40.1759430" lon="-0.8942360">
        <ele>1086.4</ele>
        <time>2019-07-05T06:10:21Z</time>
      </trkpt>
      <trkpt lat="40.1760170" lon="-0.8943320">
        <ele>1086.6</ele>
        <time>2019-07-05T06:10:23Z</time>
      </trkpt>
      <trkpt lat="40.1762500" lon="-0.8946130">
        <ele>1087.4</ele>
        <time>2019-07-05T06:10:29Z</time>
      </trkpt>
      <trkpt lat="40.1763710" lon="-0.8947550">
        <ele>1087.6</ele>
        <time>2019-07-05T06:10:32Z</time>
      </trkpt>
      <trkpt lat="40.1766060" lon="-0.8950300">
        <ele>1088.6</ele>
        <time>2019-07-05T06:10:38Z</time>
      </trkpt>
      <trkpt lat="40.1766430" lon="-0.8950790">
        <ele>1088.6</ele>
        <time>2019-07-05T06:10:39Z</time>
      </trkpt>
      <trkpt lat="40.1769180" lon="-0.8954150">
        <ele>1089.6</ele>
        <time>2019-07-05T06:10:46Z</time>
      </trkpt>
      <trkpt lat="40.1769560" lon="-0.8954670">
        <ele>1089.6</ele>
        <time>2019-07-05T06:10:47Z</time>
      </trkpt>
      <trkpt lat="40.1771870" lon="-0.8957820">
        <ele>1090.0</ele>
        <time>2019-07-05T06:10:53Z</time>
      </trkpt>
      <trkpt lat="40.1773080" lon="-0.8959250">
        <ele>1090.4</ele>
        <time>2019-07-05T06:10:56Z</time>
      </trkpt>
      <trkpt lat="40.1773860" lon="-0.8960190">
        <ele>1090.8</ele>
        <time>2019-07-05T06:10:58Z</time>
      </trkpt>
      <trkpt lat="40.1776540" lon="-0.8963500">
        <ele>1091.4</ele>
        <time>2019-07-05T06:11:05Z</time>
      </trkpt>
      <trkpt lat="40.1778070" lon="-0.8965460">
        <ele>1092.0</ele>
        <time>2019-07-05T06:11:09Z</time>
      </trkpt>
      <trkpt lat="40.1780000" lon="-0.8967980">
        <ele>1093.0</ele>
        <time>2019-07-05T06:11:14Z</time>
      </trkpt>
      <trkpt lat="40.1780800" lon="-0.8968990">
        <ele>1093.0</ele>
        <time>2019-07-05T06:11:16Z</time>
      </trkpt>
      <trkpt lat="40.1783140" lon="-0.8971920">
        <ele>1093.6</ele>
        <time>2019-07-05T06:11:22Z</time>
      </trkpt>
      <trkpt lat="40.1785420" lon="-0.8974870">
        <ele>1094.0</ele>
        <time>2019-07-05T06:11:28Z</time>
      </trkpt>
      <trkpt lat="40.1786910" lon="-0.8976930">
        <ele>1094.2</ele>
        <time>2019-07-05T06:11:32Z</time>
      </trkpt>
      <trkpt lat="40.1789040" lon="-0.8980270">
        <ele>1095.0</ele>
        <time>2019-07-05T06:11:38Z</time>
      </trkpt>
      <trkpt lat="40.1789690" lon="-0.8981410">
        <ele>1095.4</ele>
        <time>2019-07-05T06:11:40Z</time>
      </trkpt>
      <trkpt lat="40.1792420" lon="-0.8986710">
        <ele>1096.0</ele>
        <time>2019-07-05T06:11:49Z</time>
      </trkpt>
      <trkpt lat="40.1792690" lon="-0.8987330">
        <ele>1096.0</ele>
        <time>2019-07-05T06:11:50Z</time>
      </trkpt>
      <trkpt lat="40.1793290" lon="-0.8988560">
        <ele>1096.4</ele>
        <time>2019-07-05T06:11:52Z</time>
      </trkpt>
      <trkpt lat="40.1793780" lon="-0.8989870">
        <ele>1096.6</ele>
        <time>2019-07-05T06:11:54Z</time>
      </trkpt>
      <trkpt lat="40.1794210" lon="-0.8991120">
        <ele>1096.8</ele>
        <time>2019-07-05T06:11:56Z</time>
      </trkpt>
      <trkpt lat="40.1794640" lon="-0.8992350">
        <ele>1097.0</ele>
        <time>2019-07-05T06:11:58Z</time>
      </trkpt>
      <trkpt lat="40.1796540" lon="-0.8998070">
        <ele>1098.0</ele>
        <time>2019-07-05T06:12:07Z</time>
      </trkpt>
      <trkpt lat="40.1796750" lon="-0.8998720">
        <ele>1098.2</ele>
        <time>2019-07-05T06:12:08Z</time>
      </trkpt>
      <trkpt lat="40.1797610" lon="-0.9001230">
        <ele>1098.6</ele>
        <time>2019-07-05T06:12:12Z</time>
      </trkpt>
      <trkpt lat="40.1798220" lon="-0.9003150">
        <ele>1098.8</ele>
        <time>2019-07-05T06:12:15Z</time>
      </trkpt>
      <trkpt lat="40.1800210" lon="-0.9008880">
        <ele>1099.2</ele>
        <time>2019-07-05T06:12:24Z</time>
      </trkpt>
      <trkpt lat="40.1801750" lon="-0.9013720">
        <ele>1099.8</ele>
        <time>2019-07-05T06:12:31Z</time>
      </trkpt>
      <trkpt lat="40.1802580" lon="-0.9016450">
        <ele>1099.8</ele>
        <time>2019-07-05T06:12:35Z</time>
      </trkpt>
      <trkpt lat="40.1803510" lon="-0.9019100">
        <ele>1099.8</ele>
        <time>2019-07-05T06:12:39Z</time>
      </trkpt>
      <trkpt lat="40.1803940" lon="-0.9020470">
        <ele>1099.8</ele>
        <time>2019-07-05T06:12:41Z</time>
      </trkpt>
      <trkpt lat="40.1805530" lon="-0.9025220">
        <ele>1099.6</ele>
        <time>2019-07-05T06:12:48Z</time>
      </trkpt>
      <trkpt lat="40.1807620" lon="-0.9031420">
        <ele>1099.8</ele>
        <time>2019-07-05T06:12:57Z</time>
      </trkpt>
      <trkpt lat="40.1809690" lon="-0.9037590">
        <ele>1099.8</ele>
        <time>2019-07-05T06:13:06Z</time>
      </trkpt>
      <trkpt lat="40.1811820" lon="-0.9042870">
        <ele>1100.0</ele>
        <time>2019-07-05T06:13:14Z</time>
      </trkpt>
      <trkpt lat="40.1814290" lon="-0.9047030">
        <ele>1100.0</ele>
        <time>2019-07-05T06:13:21Z</time>
      </trkpt>
      <trkpt lat="40.1816350" lon="-0.9049520">
        <ele>1100.2</ele>
        <time>2019-07-05T06:13:26Z</time>
      </trkpt>
      <trkpt lat="40.1816760" lon="-0.9050040">
        <ele>1100.0</ele>
        <time>2019-07-05T06:13:27Z</time>
      </trkpt>
      <trkpt lat="40.1820640" lon="-0.9054670">
        <ele>1100.2</ele>
        <time>2019-07-05T06:13:36Z</time>
      </trkpt>
      <trkpt lat="40.1824390" lon="-0.9058240">
        <ele>1100.2</ele>
        <time>2019-07-05T06:13:44Z</time>
      </trkpt>
      <trkpt lat="40.1827870" lon="-0.9060940">
        <ele>1100.8</ele>
        <time>2019-07-05T06:13:51Z</time>
      </trkpt>
      <trkpt lat="40.1831970" lon="-0.9063480">
        <ele>1101.0</ele>
        <time>2019-07-05T06:13:59Z</time>
      </trkpt>
      <trkpt lat="40.1833020" lon="-0.9064020">
        <ele>1101.2</ele>
        <time>2019-07-05T06:14:01Z</time>
      </trkpt>
      <trkpt lat="40.1836190" lon="-0.9065560">
        <ele>1101.4</ele>
        <time>2019-07-05T06:14:07Z</time>
      </trkpt>
      <trkpt lat="40.1841520" lon="-0.9068030">
        <ele>1102.0</ele>
        <time>2019-07-05T06:14:17Z</time>
      </trkpt>
      <trkpt lat="40.1842050" lon="-0.9068270">
        <ele>1102.2</ele>
        <time>2019-07-05T06:14:18Z</time>
      </trkpt>
      <trkpt lat="40.1846190" lon="-0.9070300">
        <ele>1102.6</ele>
        <time>2019-07-05T06:14:26Z</time>
      </trkpt>
      <trkpt lat="40.1849860" lon="-0.9071960">
        <ele>1103.2</ele>
        <time>2019-07-05T06:14:33Z</time>
      </trkpt>
      <trkpt lat="40.1850880" lon="-0.9072430">
        <ele>1103.6</ele>
        <time>2019-07-05T06:14:35Z</time>
      </trkpt>
      <trkpt lat="40.1851890" lon="-0.9072880">
        <ele>1103.8</ele>
        <time>2019-07-05T06:14:37Z</time>
      </trkpt>
      <trkpt lat="40.1853360" lon="-0.9073740">
        <ele>1104.4</ele>
        <time>2019-07-05T06:14:40Z</time>
      </trkpt>
      <trkpt lat="40.1853860" lon="-0.9074020">
        <ele>1104.4</ele>
        <time>2019-07-05T06:14:41Z</time>
      </trkpt>
      <trkpt lat="40.1854350" lon="-0.9074270">
        <ele>1104.4</ele>
        <time>2019-07-05T06:14:42Z</time>
      </trkpt>
      <trkpt lat="40.1856270" lon="-0.9075470">
        <ele>1104.8</ele>
        <time>2019-07-05T06:14:46Z</time>
      </trkpt>
      <trkpt lat="40.1858600" lon="-0.9077130">
        <ele>1105.4</ele>
        <time>2019-07-05T06:14:51Z</time>
      </trkpt>
      <trkpt lat="40.1859060" lon="-0.9077480">
        <ele>1105.6</ele>
        <time>2019-07-05T06:14:52Z</time>
      </trkpt>
      <trkpt lat="40.1861220" lon="-0.9079430">
        <ele>1106.0</ele>
        <time>2019-07-05T06:14:57Z</time>
      </trkpt>
      <trkpt lat="40.1862940" lon="-0.9081100">
        <ele>1106.6</ele>
        <time>2019-07-05T06:15:01Z</time>
      </trkpt>
      <trkpt lat="40.1863800" lon="-0.9081990">
        <ele>1106.8</ele>
        <time>2019-07-05T06:15:03Z</time>
      </trkpt>
      <trkpt lat="40.1865810" lon="-0.9084360">
        <ele>1107.6</ele>
        <time>2019-07-05T06:15:08Z</time>
      </trkpt>
      <trkpt lat="40.1866950" lon="-0.9085860">
        <ele>1107.8</ele>
        <time>2019-07-05T06:15:11Z</time>
      </trkpt>
      <trkpt lat="40.1869840" lon="-0.9090140">
        <ele>1108.2</ele>
        <time>2019-07-05T06:15:19Z</time>
      </trkpt>
      <trkpt lat="40.1871450" lon="-0.9093040">
        <ele>1108.4</ele>
        <time>2019-07-05T06:15:24Z</time>
      </trkpt>
      <trkpt lat="40.1872030" lon="-0.9094180">
        <ele>1108.4</ele>
        <time>2019-07-05T06:15:26Z</time>
      </trkpt>
      <trkpt lat="40.1873920" lon="-0.9098450">
        <ele>1109.4</ele>
        <time>2019-07-05T06:15:33Z</time>
      </trkpt>
      <trkpt lat="40.1874180" lon="-0.9099080">
        <ele>1109.6</ele>
        <time>2019-07-05T06:15:34Z</time>
      </trkpt>
      <trkpt lat="40.1876020" lon="-0.9103870">
        <ele>1110.2</ele>
        <time>2019-07-05T06:15:42Z</time>
      </trkpt>
      <trkpt lat="40.1876460" lon="-0.9105070">
        <ele>1110.6</ele>
        <time>2019-07-05T06:15:44Z</time>
      </trkpt>
      <trkpt lat="40.1877700" lon="-0.9108050">
        <ele>1111.0</ele>
        <time>2019-07-05T06:15:49Z</time>
      </trkpt>
      <trkpt lat="40.1878560" lon="-0.9110550">
        <ele>1111.8</ele>
        <time>2019-07-05T06:15:53Z</time>
      </trkpt>
      <trkpt lat="40.1879440" lon="-0.9113100">
        <ele>1112.0</ele>
        <time>2019-07-05T06:15:57Z</time>
      </trkpt>
      <trkpt lat="40.1880860" lon="-0.9116860">
        <ele>1112.8</ele>
        <time>2019-07-05T06:16:03Z</time>
      </trkpt>
      <trkpt lat="40.1881360" lon="-0.9118100">
        <ele>1113.2</ele>
        <time>2019-07-05T06:16:05Z</time>
      </trkpt>
      <trkpt lat="40.1883250" lon="-0.9123150">
        <ele>1113.8</ele>
        <time>2019-07-05T06:16:13Z</time>
      </trkpt>
      <trkpt lat="40.1883500" lon="-0.9123770">
        <ele>1114.0</ele>
        <time>2019-07-05T06:16:14Z</time>
      </trkpt>
      <trkpt lat="40.1884960" lon="-0.9127400">
        <ele>1114.2</ele>
        <time>2019-07-05T06:16:20Z</time>
      </trkpt>
      <trkpt lat="40.1885640" lon="-0.9129100">
        <ele>1114.4</ele>
        <time>2019-07-05T06:16:23Z</time>
      </trkpt>
      <trkpt lat="40.1886250" lon="-0.9130820">
        <ele>1114.8</ele>
        <time>2019-07-05T06:16:26Z</time>
      </trkpt>
      <trkpt lat="40.1886930" lon="-0.9132500">
        <ele>1115.0</ele>
        <time>2019-07-05T06:16:29Z</time>
      </trkpt>
      <trkpt lat="40.1887810" lon="-0.9134800">
        <ele>1115.2</ele>
        <time>2019-07-05T06:16:33Z</time>
      </trkpt>
      <trkpt lat="40.1888900" lon="-0.9137790">
        <ele>1116.0</ele>
        <time>2019-07-05T06:16:38Z</time>
      </trkpt>
      <trkpt lat="40.1889340" lon="-0.9138960">
        <ele>1116.2</ele>
        <time>2019-07-05T06:16:40Z</time>
      </trkpt>
      <trkpt lat="40.1890960" lon="-0.9143030">
        <ele>1116.8</ele>
        <time>2019-07-05T06:16:47Z</time>
      </trkpt>
      <trkpt lat="40.1891180" lon="-0.9143610">
        <ele>1117.0</ele>
        <time>2019-07-05T06:16:48Z</time>
      </trkpt>
      <trkpt lat="40.1892820" lon="-0.9147690">
        <ele>1118.0</ele>
        <time>2019-07-05T06:16:55Z</time>
      </trkpt>
      <trkpt lat="40.1893300" lon="-0.9148910">
        <ele>1118.0</ele>
        <time>2019-07-05T06:16:57Z</time>
      </trkpt>
      <trkpt lat="40.1895470" lon="-0.9154530">
        <ele>1119.0</ele>
        <time>2019-07-05T06:17:06Z</time>
      </trkpt>
      <trkpt lat="40.1895940" lon="-0.9155760">
        <ele>1119.2</ele>
        <time>2019-07-05T06:17:08Z</time>
      </trkpt>
      <trkpt lat="40.1897560" lon="-0.9160090">
        <ele>1120.0</ele>
        <time>2019-07-05T06:17:15Z</time>
      </trkpt>
      <trkpt lat="40.1898290" lon="-0.9161870">
        <ele>1120.2</ele>
        <time>2019-07-05T06:17:18Z</time>
      </trkpt>
      <trkpt lat="40.1899530" lon="-0.9164680">
        <ele>1120.4</ele>
        <time>2019-07-05T06:17:23Z</time>
      </trkpt>
      <trkpt lat="40.1900850" lon="-0.9167360">
        <ele>1121.2</ele>
        <time>2019-07-05T06:17:28Z</time>
      </trkpt>
      <trkpt lat="40.1901950" lon="-0.9169660">
        <ele>1121.2</ele>
        <time>2019-07-05T06:17:32Z</time>
      </trkpt>
      <trkpt lat="40.1902820" lon="-0.9171430">
        <ele>1121.2</ele>
        <time>2019-07-05T06:17:35Z</time>
      </trkpt>
      <trkpt lat="40.1903860" lon="-0.9173040">
        <ele>1121.2</ele>
        <time>2019-07-05T06:17:38Z</time>
      </trkpt>
      <trkpt lat="40.1905710" lon="-0.9175510">
        <ele>1121.4</ele>
        <time>2019-07-05T06:17:43Z</time>
      </trkpt>
      <trkpt lat="40.1906870" lon="-0.9176880">
        <ele>1121.8</ele>
        <time>2019-07-05T06:17:46Z</time>
      </trkpt>
      <trkpt lat="40.1909700" lon="-0.9180930">
        <ele>1122.2</ele>
        <time>2019-07-05T06:17:54Z</time>
      </trkpt>
      <trkpt lat="40.1910030" lon="-0.9181450">
        <ele>1122.4</ele>
        <time>2019-07-05T06:17:55Z</time>
      </trkpt>
      <trkpt lat="40.1913540" lon="-0.9186490">
        <ele>1122.8</ele>
        <time>2019-07-05T06:18:05Z</time>
      </trkpt>
      <trkpt lat="40.1915180" lon="-0.9188250">
        <ele>1123.4</ele>
        <time>2019-07-05T06:18:09Z</time>
      </trkpt>
      <trkpt lat="40.1916500" lon="-0.9189430">
        <ele>1123.4</ele>
        <time>2019-07-05T06:18:12Z</time>
      </trkpt>
      <trkpt lat="40.1920600" lon="-0.9192080">
        <ele>1123.8</ele>
        <time>2019-07-05T06:18:20Z</time>
      </trkpt>
      <trkpt lat="40.1924340" lon="-0.9194350">
        <ele>1123.8</ele>
        <time>2019-07-05T06:18:27Z</time>
      </trkpt>
      <trkpt lat="40.1926510" lon="-0.9195580">
        <ele>1124.0</ele>
        <time>2019-07-05T06:18:31Z</time>
      </trkpt>
      <trkpt lat="40.1929270" lon="-0.9197110">
        <ele>1124.0</ele>
        <time>2019-07-05T06:18:36Z</time>
      </trkpt>
      <trkpt lat="40.1933640" lon="-0.9199450">
        <ele>1124.2</ele>
        <time>2019-07-05T06:18:44Z</time>
      </trkpt>
      <trkpt lat="40.1934180" lon="-0.9199750">
        <ele>1124.2</ele>
        <time>2019-07-05T06:18:45Z</time>
      </trkpt>
      <trkpt lat="40.1934710" lon="-0.9200080">
        <ele>1124.2</ele>
        <time>2019-07-05T06:18:46Z</time>
      </trkpt>
      <trkpt lat="40.1940090" lon="-0.9203150">
        <ele>1124.2</ele>
        <time>2019-07-05T06:18:56Z</time>
      </trkpt>
      <trkpt lat="40.1943800" lon="-0.9205280">
        <ele>1124.8</ele>
        <time>2019-07-05T06:19:03Z</time>
      </trkpt>
      <trkpt lat="40.1948370" lon="-0.9207750">
        <ele>1125.2</ele>
        <time>2019-07-05T06:19:12Z</time>
      </trkpt>
      <trkpt lat="40.1948890" lon="-0.9208030">
        <ele>1125.2</ele>
        <time>2019-07-05T06:19:13Z</time>
      </trkpt>
      <trkpt lat="40.1950960" lon="-0.9209190">
        <ele>1125.6</ele>
        <time>2019-07-05T06:19:17Z</time>
      </trkpt>
      <trkpt lat="40.1953460" lon="-0.9210620">
        <ele>1126.2</ele>
        <time>2019-07-05T06:19:22Z</time>
      </trkpt>
      <trkpt lat="40.1953960" lon="-0.9210900">
        <ele>1126.2</ele>
        <time>2019-07-05T06:19:23Z</time>
      </trkpt>
      <trkpt lat="40.1958460" lon="-0.9213470">
        <ele>1127.0</ele>
        <time>2019-07-05T06:19:32Z</time>
      </trkpt>
      <trkpt lat="40.1959470" lon="-0.9214030">
        <ele>1127.2</ele>
        <time>2019-07-05T06:19:34Z</time>
      </trkpt>
      <trkpt lat="40.1963520" lon="-0.9216230">
        <ele>1128.0</ele>
        <time>2019-07-05T06:19:42Z</time>
      </trkpt>
      <trkpt lat="40.1964540" lon="-0.9216810">
        <ele>1128.4</ele>
        <time>2019-07-05T06:19:44Z</time>
      </trkpt>
      <trkpt lat="40.1967500" lon="-0.9218470">
        <ele>1128.8</ele>
        <time>2019-07-05T06:19:50Z</time>
      </trkpt>
      <trkpt lat="40.1968990" lon="-0.9219270">
        <ele>1129.6</ele>
        <time>2019-07-05T06:19:53Z</time>
      </trkpt>
      <trkpt lat="40.1969500" lon="-0.9219520">
        <ele>1129.8</ele>
        <time>2019-07-05T06:19:54Z</time>
      </trkpt>
      <trkpt lat="40.1970970" lon="-0.9220290">
        <ele>1130.0</ele>
        <time>2019-07-05T06:19:57Z</time>
      </trkpt>
      <trkpt lat="40.1971950" lon="-0.9220850">
        <ele>1129.8</ele>
        <time>2019-07-05T06:19:59Z</time>
      </trkpt>
      <trkpt lat="40.1974960" lon="-0.9222460">
        <ele>1130.4</ele>
        <time>2019-07-05T06:20:05Z</time>
      </trkpt>
      <trkpt lat="40.1978680" lon="-0.9225260">
        <ele>1131.4</ele>
        <time>2019-07-05T06:20:13Z</time>
      </trkpt>
      <trkpt lat="40.1981280" lon="-0.9227850">
        <ele>1132.2</ele>
        <time>2019-07-05T06:20:19Z</time>
      </trkpt>
      <trkpt lat="40.1982480" lon="-0.9229290">
        <ele>1132.2</ele>
        <time>2019-07-05T06:20:22Z</time>
      </trkpt>
      <trkpt lat="40.1983250" lon="-0.9230250">
        <ele>1132.2</ele>
        <time>2019-07-05T06:20:24Z</time>
      </trkpt>
      <trkpt lat="40.1983610" lon="-0.9230750">
        <ele>1132.2</ele>
        <time>2019-07-05T06:20:25Z</time>
      </trkpt>
      <trkpt lat="40.1984300" lon="-0.9231800">
        <ele>1132.6</ele>
        <time>2019-07-05T06:20:27Z</time>
      </trkpt>
      <trkpt lat="40.1985280" lon="-0.9233400">
        <ele>1132.8</ele>
        <time>2019-07-05T06:20:30Z</time>
      </trkpt>
      <trkpt lat="40.1986990" lon="-0.9236840">
        <ele>1133.2</ele>
        <time>2019-07-05T06:20:36Z</time>
      </trkpt>
      <trkpt lat="40.1987730" lon="-0.9238650">
        <ele>1133.6</ele>
        <time>2019-07-05T06:20:39Z</time>
      </trkpt>
      <trkpt lat="40.1988380" lon="-0.9240580">
        <ele>1134.2</ele>
        <time>2019-07-05T06:20:42Z</time>
      </trkpt>
      <trkpt lat="40.1989930" lon="-0.9245100">
        <ele>1134.8</ele>
        <time>2019-07-05T06:20:49Z</time>
      </trkpt>
      <trkpt lat="40.1990370" lon="-0.9246370">
        <ele>1135.0</ele>
        <time>2019-07-05T06:20:51Z</time>
      </trkpt>
      <trkpt lat="40.1991940" lon="-0.9250650">
        <ele>1135.8</ele>
        <time>2019-07-05T06:20:58Z</time>
      </trkpt>
      <trkpt lat="40.1992180" lon="-0.9251300">
        <ele>1136.0</ele>
        <time>2019-07-05T06:20:59Z</time>
      </trkpt>
      <trkpt lat="40.1994220" lon="-0.9257290">
        <ele>1136.2</ele>
        <time>2019-07-05T06:21:08Z</time>
      </trkpt>
      <trkpt lat="40.1996040" lon="-0.9262480">
        <ele>1137.0</ele>
        <time>2019-07-05T06:21:16Z</time>
      </trkpt>
      <trkpt lat="40.1997900" lon="-0.9267680">
        <ele>1137.6</ele>
        <time>2019-07-05T06:21:24Z</time>
      </trkpt>
      <trkpt lat="40.1998870" lon="-0.9270270">
        <ele>1138.0</ele>
        <time>2019-07-05T06:21:28Z</time>
      </trkpt>
      <trkpt lat="40.1999650" lon="-0.9272220">
        <ele>1138.2</ele>
        <time>2019-07-05T06:21:31Z</time>
      </trkpt>
      <trkpt lat="40.2001500" lon="-0.9275850">
        <ele>1138.2</ele>
        <time>2019-07-05T06:21:37Z</time>
      </trkpt>
      <trkpt lat="40.2004370" lon="-0.9279520">
        <ele>1138.2</ele>
        <time>2019-07-05T06:21:44Z</time>
      </trkpt>
      <trkpt lat="40.2005620" lon="-0.9280920">
        <ele>1138.2</ele>
        <time>2019-07-05T06:21:47Z</time>
      </trkpt>
      <trkpt lat="40.2007110" lon="-0.9281970">
        <ele>1138.6</ele>
        <time>2019-07-05T06:21:50Z</time>
      </trkpt>
      <trkpt lat="40.2010970" lon="-0.9283770">
        <ele>1138.4</ele>
        <time>2019-07-05T06:21:57Z</time>
      </trkpt>
      <trkpt lat="40.2013220" lon="-0.9284520">
        <ele>1138.2</ele>
        <time>2019-07-05T06:22:01Z</time>
      </trkpt>
      <trkpt lat="40.2016710" lon="-0.9285670">
        <ele>1138.8</ele>
        <time>2019-07-05T06:22:07Z</time>
      </trkpt>
      <trkpt lat="40.2021380" lon="-0.9287190">
        <ele>1138.4</ele>
        <time>2019-07-05T06:22:15Z</time>
      </trkpt>
      <trkpt lat="40.2025350" lon="-0.9288630">
        <ele>1139.2</ele>
        <time>2019-07-05T06:22:22Z</time>
      </trkpt>
      <trkpt lat="40.2025900" lon="-0.9288880">
        <ele>1139.2</ele>
        <time>2019-07-05T06:22:23Z</time>
      </trkpt>
      <trkpt lat="40.2028320" lon="-0.9290610">
        <ele>1139.0</ele>
        <time>2019-07-05T06:22:28Z</time>
      </trkpt>
      <trkpt lat="40.2029780" lon="-0.9292130">
        <ele>1140.2</ele>
        <time>2019-07-05T06:22:32Z</time>
      </trkpt>
      <trkpt lat="40.2030110" lon="-0.9292490">
        <ele>1140.8</ele>
        <time>2019-07-05T06:22:33Z</time>
      </trkpt>
      <trkpt lat="40.2030450" lon="-0.9292870">
        <ele>1141.0</ele>
        <time>2019-07-05T06:22:34Z</time>
      </trkpt>
      <trkpt lat="40.2031500" lon="-0.9294050">
        <ele>1141.4</ele>
        <time>2019-07-05T06:22:37Z</time>
      </trkpt>
      <trkpt lat="40.2032190" lon="-0.9294880">
        <ele>1142.0</ele>
        <time>2019-07-05T06:22:39Z</time>
      </trkpt>
      <trkpt lat="40.2033180" lon="-0.9296100">
        <ele>1142.0</ele>
        <time>2019-07-05T06:22:42Z</time>
      </trkpt>
      <trkpt lat="40.2034140" lon="-0.9297370">
        <ele>1142.8</ele>
        <time>2019-07-05T06:22:45Z</time>
      </trkpt>
      <trkpt lat="40.2035070" lon="-0.9298660">
        <ele>1143.2</ele>
        <time>2019-07-05T06:22:48Z</time>
      </trkpt>
      <trkpt lat="40.2035690" lon="-0.9299530">
        <ele>1143.8</ele>
        <time>2019-07-05T06:22:50Z</time>
      </trkpt>
      <trkpt lat="40.2036280" lon="-0.9300440">
        <ele>1144.6</ele>
        <time>2019-07-05T06:22:52Z</time>
      </trkpt>
      <trkpt lat="40.2036570" lon="-0.9300920">
        <ele>1144.8</ele>
        <time>2019-07-05T06:22:53Z</time>
      </trkpt>
      <trkpt lat="40.2037440" lon="-0.9302310">
        <ele>1145.6</ele>
        <time>2019-07-05T06:22:56Z</time>
      </trkpt>
      <trkpt lat="40.2037710" lon="-0.9302770">
        <ele>1146.0</ele>
        <time>2019-07-05T06:22:57Z</time>
      </trkpt>
      <trkpt lat="40.2038520" lon="-0.9304140">
        <ele>1146.6</ele>
        <time>2019-07-05T06:23:00Z</time>
      </trkpt>
      <trkpt lat="40.2039810" lon="-0.9306040">
        <ele>1147.2</ele>
        <time>2019-07-05T06:23:04Z</time>
      </trkpt>
      <trkpt lat="40.2040760" lon="-0.9307290">
        <ele>1147.8</ele>
        <time>2019-07-05T06:23:07Z</time>
      </trkpt>
      <trkpt lat="40.2041690" lon="-0.9308390">
        <ele>1148.4</ele>
        <time>2019-07-05T06:23:10Z</time>
      </trkpt>
      <trkpt lat="40.2042720" lon="-0.9309320">
        <ele>1149.4</ele>
        <time>2019-07-05T06:23:13Z</time>
      </trkpt>
      <trkpt lat="40.2043110" lon="-0.9309600">
        <ele>1149.6</ele>
        <time>2019-07-05T06:23:14Z</time>
      </trkpt>
      <trkpt lat="40.2046510" lon="-0.9311430">
        <ele>1150.2</ele>
        <time>2019-07-05T06:23:22Z</time>
      </trkpt>
      <trkpt lat="40.2046900" lon="-0.9311670">
        <ele>1150.6</ele>
        <time>2019-07-05T06:23:23Z</time>
      </trkpt>
      <trkpt lat="40.2048770" lon="-0.9312900">
        <ele>1151.6</ele>
        <time>2019-07-05T06:23:28Z</time>
      </trkpt>
      <trkpt lat="40.2049160" lon="-0.9313180">
        <ele>1152.0</ele>
        <time>2019-07-05T06:23:29Z</time>
      </trkpt>
      <trkpt lat="40.2052350" lon="-0.9315910">
        <ele>1152.2</ele>
        <time>2019-07-05T06:23:37Z</time>
      </trkpt>
      <trkpt lat="40.2054260" lon="-0.9318020">
        <ele>1152.6</ele>
        <time>2019-07-05T06:23:43Z</time>
      </trkpt>
      <trkpt lat="40.2054470" lon="-0.9318300">
        <ele>1152.8</ele>
        <time>2019-07-05T06:23:44Z</time>
      </trkpt>
      <trkpt lat="40.2055060" lon="-0.9318990">
        <ele>1153.6</ele>
        <time>2019-07-05T06:23:47Z</time>
      </trkpt>
      <trkpt lat="40.2056000" lon="-0.9319980">
        <ele>1154.4</ele>
        <time>2019-07-05T06:23:51Z</time>
      </trkpt>
      <trkpt lat="40.2056850" lon="-0.9320860">
        <ele>1154.8</ele>
        <time>2019-07-05T06:23:54Z</time>
      </trkpt>
      <trkpt lat="40.2057680" lon="-0.9321790">
        <ele>1155.0</ele>
        <time>2019-07-05T06:23:57Z</time>
      </trkpt>
      <trkpt lat="40.2058660" lon="-0.9323300">
        <ele>1155.4</ele>
        <time>2019-07-05T06:24:01Z</time>
      </trkpt>
      <trkpt lat="40.2059160" lon="-0.9324060">
        <ele>1155.8</ele>
        <time>2019-07-05T06:24:03Z</time>
      </trkpt>
      <trkpt lat="40.2059950" lon="-0.9325170">
        <ele>1156.0</ele>
        <time>2019-07-05T06:24:06Z</time>
      </trkpt>
      <trkpt lat="40.2060840" lon="-0.9326090">
        <ele>1155.6</ele>
        <time>2019-07-05T06:24:09Z</time>
      </trkpt>
      <trkpt lat="40.2061480" lon="-0.9326380">
        <ele>1155.0</ele>
        <time>2019-07-05T06:24:11Z</time>
      </trkpt>
      <trkpt lat="40.2062180" lon="-0.9326590">
        <ele>1154.8</ele>
        <time>2019-07-05T06:24:13Z</time>
      </trkpt>
      <trkpt lat="40.2062570" lon="-0.9326820">
        <ele>1154.6</ele>
        <time>2019-07-05T06:24:14Z</time>
      </trkpt>
      <trkpt lat="40.2063550" lon="-0.9327330">
        <ele>1154.6</ele>
        <time>2019-07-05T06:24:16Z</time>
      </trkpt>
      <trkpt lat="40.2064790" lon="-0.9327900">
        <ele>1153.6</ele>
        <time>2019-07-05T06:24:18Z</time>
      </trkpt>
      <trkpt lat="40.2065470" lon="-0.9328340">
        <ele>1153.0</ele>
        <time>2019-07-05T06:24:19Z</time>
      </trkpt>
      <trkpt lat="40.2066150" lon="-0.9328900">
        <ele>1152.6</ele>
        <time>2019-07-05T06:24:20Z</time>
      </trkpt>
      <trkpt lat="40.2067420" lon="-0.9330340">
        <ele>1151.2</ele>
        <time>2019-07-05T06:24:22Z</time>
      </trkpt>
      <trkpt lat="40.2068290" lon="-0.9332110">
        <ele>1150.6</ele>
        <time>2019-07-05T06:24:24Z</time>
      </trkpt>
      <trkpt lat="40.2068740" lon="-0.9333990">
        <ele>1150.0</ele>
        <time>2019-07-05T06:24:26Z</time>
      </trkpt>
      <trkpt lat="40.2068880" lon="-0.9334930">
        <ele>1149.8</ele>
        <time>2019-07-05T06:24:27Z</time>
      </trkpt>
      <trkpt lat="40.2069010" lon="-0.9335860">
        <ele>1149.6</ele>
        <time>2019-07-05T06:24:28Z</time>
      </trkpt>
      <trkpt lat="40.2069510" lon="-0.9338570">
        <ele>1149.0</ele>
        <time>2019-07-05T06:24:31Z</time>
      </trkpt>
      <trkpt lat="40.2070300" lon="-0.9342000">
        <ele>1148.8</ele>
        <time>2019-07-05T06:24:35Z</time>
      </trkpt>
      <trkpt lat="40.2070840" lon="-0.9344470">
        <ele>1148.6</ele>
        <time>2019-07-05T06:24:38Z</time>
      </trkpt>
      <trkpt lat="40.2071580" lon="-0.9347700">
        <ele>1148.4</ele>
        <time>2019-07-05T06:24:42Z</time>
      </trkpt>
      <trkpt lat="40.2071950" lon="-0.9349320">
        <ele>1148.4</ele>
        <time>2019-07-05T06:24:44Z</time>
      </trkpt>
      <trkpt lat="40.2072140" lon="-0.9350110">
        <ele>1148.4</ele>
        <time>2019-07-05T06:24:45Z</time>
      </trkpt>
      <trkpt lat="40.2072640" lon="-0.9352490">
        <ele>1148.4</ele>
        <time>2019-07-05T06:24:48Z</time>
      </trkpt>
      <trkpt lat="40.2073590" lon="-0.9357100">
        <ele>1148.2</ele>
        <time>2019-07-05T06:24:54Z</time>
      </trkpt>
      <trkpt lat="40.2075020" lon="-0.9363700">
        <ele>1148.8</ele>
        <time>2019-07-05T06:25:03Z</time>
      </trkpt>
      <trkpt lat="40.2076420" lon="-0.9370130">
        <ele>1148.6</ele>
        <time>2019-07-05T06:25:12Z</time>
      </trkpt>
      <trkpt lat="40.2078140" lon="-0.9375530">
        <ele>1149.0</ele>
        <time>2019-07-05T06:25:20Z</time>
      </trkpt>
      <trkpt lat="40.2080400" lon="-0.9379760">
        <ele>1149.6</ele>
        <time>2019-07-05T06:25:27Z</time>
      </trkpt>
      <trkpt lat="40.2081800" lon="-0.9382190">
        <ele>1149.8</ele>
        <time>2019-07-05T06:25:31Z</time>
      </trkpt>
      <trkpt lat="40.2083950" lon="-0.9385800">
        <ele>1150.0</ele>
        <time>2019-07-05T06:25:37Z</time>
      </trkpt>
      <trkpt lat="40.2087380" lon="-0.9391730">
        <ele>1150.6</ele>
        <time>2019-07-05T06:25:47Z</time>
      </trkpt>
      <trkpt lat="40.2088990" lon="-0.9394660">
        <ele>1150.8</ele>
        <time>2019-07-05T06:25:52Z</time>
      </trkpt>
      <trkpt lat="40.2089320" lon="-0.9395250">
        <ele>1150.8</ele>
        <time>2019-07-05T06:25:53Z</time>
      </trkpt>
      <trkpt lat="40.2092390" lon="-0.9400500">
        <ele>1151.4</ele>
        <time>2019-07-05T06:26:02Z</time>
      </trkpt>
      <trkpt lat="40.2093100" lon="-0.9401640">
        <ele>1152.0</ele>
        <time>2019-07-05T06:26:04Z</time>
      </trkpt>
      <trkpt lat="40.2094840" lon="-0.9404480">
        <ele>1152.4</ele>
        <time>2019-07-05T06:26:09Z</time>
      </trkpt>
      <trkpt lat="40.2097970" lon="-0.9409700">
        <ele>1152.0</ele>
        <time>2019-07-05T06:26:18Z</time>
      </trkpt>
      <trkpt lat="40.2101020" lon="-0.9414160">
        <ele>1152.0</ele>
        <time>2019-07-05T06:26:26Z</time>
      </trkpt>
      <trkpt lat="40.2104370" lon="-0.9417590">
        <ele>1152.4</ele>
        <time>2019-07-05T06:26:33Z</time>
      </trkpt>
      <trkpt lat="40.2109020" lon="-0.9421390">
        <ele>1152.4</ele>
        <time>2019-07-05T06:26:42Z</time>
      </trkpt>
      <trkpt lat="40.2113800" lon="-0.9425090">
        <ele>1152.6</ele>
        <time>2019-07-05T06:26:51Z</time>
      </trkpt>
      <trkpt lat="40.2114380" lon="-0.9425490">
        <ele>1152.6</ele>
        <time>2019-07-05T06:26:52Z</time>
      </trkpt>
      <trkpt lat="40.2118400" lon="-0.9428710">
        <ele>1151.6</ele>
        <time>2019-07-05T06:26:59Z</time>
      </trkpt>
      <trkpt lat="40.2122460" lon="-0.9431970">
        <ele>1152.2</ele>
        <time>2019-07-05T06:27:07Z</time>
      </trkpt>
      <trkpt lat="40.2126490" lon="-0.9434520">
        <ele>1152.2</ele>
        <time>2019-07-05T06:27:15Z</time>
      </trkpt>
      <trkpt lat="40.2130080" lon="-0.9437220">
        <ele>1151.8</ele>
        <time>2019-07-05T06:27:22Z</time>
      </trkpt>
      <trkpt lat="40.2134860" lon="-0.9440560">
        <ele>1151.8</ele>
        <time>2019-07-05T06:27:31Z</time>
      </trkpt>
      <trkpt lat="40.2135400" lon="-0.9440880">
        <ele>1151.8</ele>
        <time>2019-07-05T06:27:32Z</time>
      </trkpt>
      <trkpt lat="40.2136440" lon="-0.9441530">
        <ele>1151.6</ele>
        <time>2019-07-05T06:27:34Z</time>
      </trkpt>
      <trkpt lat="40.2138320" lon="-0.9443160">
        <ele>1152.2</ele>
        <time>2019-07-05T06:27:38Z</time>
      </trkpt>
      <trkpt lat="40.2141080" lon="-0.9446460">
        <ele>1152.2</ele>
        <time>2019-07-05T06:27:45Z</time>
      </trkpt>
      <trkpt lat="40.2142140" lon="-0.9448490">
        <ele>1152.4</ele>
        <time>2019-07-05T06:27:50Z</time>
      </trkpt>
      <trkpt lat="40.2142410" lon="-0.9448980">
        <ele>1152.6</ele>
        <time>2019-07-05T06:27:52Z</time>
      </trkpt>
      <trkpt lat="40.2142710" lon="-0.9449520">
        <ele>1153.0</ele>
        <time>2019-07-05T06:27:54Z</time>
      </trkpt>
      <trkpt lat="40.2142980" lon="-0.9450200">
        <ele>1153.4</ele>
        <time>2019-07-05T06:27:56Z</time>
      </trkpt>
      <trkpt lat="40.2143480" lon="-0.9451280">
        <ele>1153.6</ele>
        <time>2019-07-05T06:27:59Z</time>
      </trkpt>
      <trkpt lat="40.2144220" lon="-0.9452880">
        <ele>1154.2</ele>
        <time>2019-07-05T06:28:03Z</time>
      </trkpt>
      <trkpt lat="40.2145560" lon="-0.9454320">
        <ele>1155.2</ele>
        <time>2019-07-05T06:28:08Z</time>
      </trkpt>
      <trkpt lat="40.2145860" lon="-0.9454580">
        <ele>1155.4</ele>
        <time>2019-07-05T06:28:09Z</time>
      </trkpt>
      <trkpt lat="40.2146770" lon="-0.9455340">
        <ele>1156.2</ele>
        <time>2019-07-05T06:28:12Z</time>
      </trkpt>
      <trkpt lat="40.2147080" lon="-0.9455570">
        <ele>1156.4</ele>
        <time>2019-07-05T06:28:13Z</time>
      </trkpt>
      <trkpt lat="40.2147920" lon="-0.9456390">
        <ele>1157.0</ele>
        <time>2019-07-05T06:28:16Z</time>
      </trkpt>
      <trkpt lat="40.2148190" lon="-0.9456650">
        <ele>1157.2</ele>
        <time>2019-07-05T06:28:17Z</time>
      </trkpt>
      <trkpt lat="40.2148460" lon="-0.9456930">
        <ele>1157.4</ele>
        <time>2019-07-05T06:28:18Z</time>
      </trkpt>
      <trkpt lat="40.2149290" lon="-0.9458300">
        <ele>1158.2</ele>
        <time>2019-07-05T06:28:22Z</time>
      </trkpt>
      <trkpt lat="40.2149450" lon="-0.9458680">
        <ele>1158.4</ele>
        <time>2019-07-05T06:28:23Z</time>
      </trkpt>
      <trkpt lat="40.2149630" lon="-0.9459040">
        <ele>1158.4</ele>
        <time>2019-07-05T06:28:24Z</time>
      </trkpt>
      <trkpt lat="40.2150280" lon="-0.9460460">
        <ele>1159.6</ele>
        <time>2019-07-05T06:28:28Z</time>
      </trkpt>
      <trkpt lat="40.2150430" lon="-0.9460770">
        <ele>1159.8</ele>
        <time>2019-07-05T06:28:29Z</time>
      </trkpt>
      <trkpt lat="40.2150840" lon="-0.9461590">
        <ele>1160.6</ele>
        <time>2019-07-05T06:28:32Z</time>
      </trkpt>
      <trkpt lat="40.2151330" lon="-0.9462990">
        <ele>1161.0</ele>
        <time>2019-07-05T06:28:36Z</time>
      </trkpt>
      <trkpt lat="40.2152430" lon="-0.9465810">
        <ele>1160.6</ele>
        <time>2019-07-05T06:28:41Z</time>
      </trkpt>
      <trkpt lat="40.2154130" lon="-0.9470360">
        <ele>1159.8</ele>
        <time>2019-07-05T06:28:48Z</time>
      </trkpt>
      <trkpt lat="40.2155080" lon="-0.9473100">
        <ele>1159.6</ele>
        <time>2019-07-05T06:28:52Z</time>
      </trkpt>
      <trkpt lat="40.2155300" lon="-0.9473800">
        <ele>1159.6</ele>
        <time>2019-07-05T06:28:53Z</time>
      </trkpt>
      <trkpt lat="40.2155510" lon="-0.9474500">
        <ele>1159.6</ele>
        <time>2019-07-05T06:28:54Z</time>
      </trkpt>
      <trkpt lat="40.2155880" lon="-0.9475970">
        <ele>1158.8</ele>
        <time>2019-07-05T06:28:56Z</time>
      </trkpt>
      <trkpt lat="40.2156200" lon="-0.9477560">
        <ele>1158.4</ele>
        <time>2019-07-05T06:28:58Z</time>
      </trkpt>
      <trkpt lat="40.2156580" lon="-0.9479260">
        <ele>1157.8</ele>
        <time>2019-07-05T06:29:00Z</time>
      </trkpt>
      <trkpt lat="40.2156850" lon="-0.9480140">
        <ele>1157.4</ele>
        <time>2019-07-05T06:29:01Z</time>
      </trkpt>
      <trkpt lat="40.2157200" lon="-0.9481040">
        <ele>1157.0</ele>
        <time>2019-07-05T06:29:02Z</time>
      </trkpt>
      <trkpt lat="40.2158320" lon="-0.9483740">
        <ele>1156.4</ele>
        <time>2019-07-05T06:29:05Z</time>
      </trkpt>
      <trkpt lat="40.2158550" lon="-0.9484650">
        <ele>1156.0</ele>
        <time>2019-07-05T06:29:06Z</time>
      </trkpt>
      <trkpt lat="40.2158690" lon="-0.9485560">
        <ele>1155.8</ele>
        <time>2019-07-05T06:29:07Z</time>
      </trkpt>
      <trkpt lat="40.2159490" lon="-0.9491190">
        <ele>1156.0</ele>
        <time>2019-07-05T06:29:14Z</time>
      </trkpt>
      <trkpt lat="40.2160220" lon="-0.9496100">
        <ele>1156.2</ele>
        <time>2019-07-05T06:29:21Z</time>
      </trkpt>
      <trkpt lat="40.2160340" lon="-0.9496750">
        <ele>1156.2</ele>
        <time>2019-07-05T06:29:22Z</time>
      </trkpt>
      <trkpt lat="40.2160720" lon="-0.9499320">
        <ele>1156.6</ele>
        <time>2019-07-05T06:29:26Z</time>
      </trkpt>
      <trkpt lat="40.2160910" lon="-0.9500630">
        <ele>1156.8</ele>
        <time>2019-07-05T06:29:28Z</time>
      </trkpt>
      <trkpt lat="40.2161360" lon="-0.9503930">
        <ele>1156.8</ele>
        <time>2019-07-05T06:29:33Z</time>
      </trkpt>
      <trkpt lat="40.2161510" lon="-0.9505250">
        <ele>1157.0</ele>
        <time>2019-07-05T06:29:35Z</time>
      </trkpt>
      <trkpt lat="40.2161670" lon="-0.9506560">
        <ele>1157.4</ele>
        <time>2019-07-05T06:29:37Z</time>
      </trkpt>
      <trkpt lat="40.2162270" lon="-0.9511620">
        <ele>1158.0</ele>
        <time>2019-07-05T06:29:45Z</time>
      </trkpt>
      <trkpt lat="40.2162370" lon="-0.9512260">
        <ele>1158.2</ele>
        <time>2019-07-05T06:29:46Z</time>
      </trkpt>
      <trkpt lat="40.2162870" lon="-0.9515450">
        <ele>1158.8</ele>
        <time>2019-07-05T06:29:51Z</time>
      </trkpt>
      <trkpt lat="40.2163060" lon="-0.9516700">
        <ele>1159.0</ele>
        <time>2019-07-05T06:29:53Z</time>
      </trkpt>
      <trkpt lat="40.2163150" lon="-0.9517330">
        <ele>1159.2</ele>
        <time>2019-07-05T06:29:54Z</time>
      </trkpt>
      <trkpt lat="40.2163740" lon="-0.9521680">
        <ele>1159.6</ele>
        <time>2019-07-05T06:30:01Z</time>
      </trkpt>
      <trkpt lat="40.2164100" lon="-0.9524190">
        <ele>1160.0</ele>
        <time>2019-07-05T06:30:05Z</time>
      </trkpt>
      <trkpt lat="40.2164170" lon="-0.9524810">
        <ele>1160.2</ele>
        <time>2019-07-05T06:30:06Z</time>
      </trkpt>
      <trkpt lat="40.2164520" lon="-0.9527310">
        <ele>1160.8</ele>
        <time>2019-07-05T06:30:10Z</time>
      </trkpt>
      <trkpt lat="40.2164690" lon="-0.9528550">
        <ele>1161.0</ele>
        <time>2019-07-05T06:30:12Z</time>
      </trkpt>
      <trkpt lat="40.2165490" lon="-0.9531600">
        <ele>1161.2</ele>
        <time>2019-07-05T06:30:17Z</time>
      </trkpt>
      <trkpt lat="40.2165700" lon="-0.9532210">
        <ele>1161.6</ele>
        <time>2019-07-05T06:30:18Z</time>
      </trkpt>
      <trkpt lat="40.2166930" lon="-0.9535100">
        <ele>1162.2</ele>
        <time>2019-07-05T06:30:23Z</time>
      </trkpt>
      <trkpt lat="40.2167520" lon="-0.9536160">
        <ele>1162.0</ele>
        <time>2019-07-05T06:30:25Z</time>
      </trkpt>
      <trkpt lat="40.2168380" lon="-0.9537770">
        <ele>1162.4</ele>
        <time>2019-07-05T06:30:28Z</time>
      </trkpt>
      <trkpt lat="40.2169580" lon="-0.9539870">
        <ele>1162.8</ele>
        <time>2019-07-05T06:30:32Z</time>
      </trkpt>
      <trkpt lat="40.2171560" lon="-0.9543570">
        <ele>1163.2</ele>
        <time>2019-07-05T06:30:39Z</time>
      </trkpt>
      <trkpt lat="40.2171840" lon="-0.9544100">
        <ele>1163.4</ele>
        <time>2019-07-05T06:30:40Z</time>
      </trkpt>
      <trkpt lat="40.2173540" lon="-0.9547260">
        <ele>1164.0</ele>
        <time>2019-07-05T06:30:46Z</time>
      </trkpt>
      <trkpt lat="40.2175290" lon="-0.9550510">
        <ele>1164.4</ele>
        <time>2019-07-05T06:30:52Z</time>
      </trkpt>
      <trkpt lat="40.2175870" lon="-0.9551580">
        <ele>1164.4</ele>
        <time>2019-07-05T06:30:54Z</time>
      </trkpt>
      <trkpt lat="40.2178210" lon="-0.9555930">
        <ele>1165.4</ele>
        <time>2019-07-05T06:31:02Z</time>
      </trkpt>
      <trkpt lat="40.2178800" lon="-0.9557000">
        <ele>1165.8</ele>
        <time>2019-07-05T06:31:04Z</time>
      </trkpt>
      <trkpt lat="40.2180890" lon="-0.9560730">
        <ele>1166.6</ele>
        <time>2019-07-05T06:31:11Z</time>
      </trkpt>
      <trkpt lat="40.2181190" lon="-0.9561260">
        <ele>1166.6</ele>
        <time>2019-07-05T06:31:12Z</time>
      </trkpt>
      <trkpt lat="40.2183540" lon="-0.9565410">
        <ele>1167.0</ele>
        <time>2019-07-05T06:31:20Z</time>
      </trkpt>
      <trkpt lat="40.2185530" lon="-0.9569030">
        <ele>1167.6</ele>
        <time>2019-07-05T06:31:27Z</time>
      </trkpt>
      <trkpt lat="40.2185820" lon="-0.9569550">
        <ele>1167.8</ele>
        <time>2019-07-05T06:31:28Z</time>
      </trkpt>
      <trkpt lat="40.2186100" lon="-0.9570080">
        <ele>1168.0</ele>
        <time>2019-07-05T06:31:29Z</time>
      </trkpt>
      <trkpt lat="40.2186680" lon="-0.9571110">
        <ele>1168.6</ele>
        <time>2019-07-05T06:31:31Z</time>
      </trkpt>
      <trkpt lat="40.2188860" lon="-0.9574820">
        <ele>1168.8</ele>
        <time>2019-07-05T06:31:38Z</time>
      </trkpt>
      <trkpt lat="40.2191180" lon="-0.9579130">
        <ele>1169.6</ele>
        <time>2019-07-05T06:31:46Z</time>
      </trkpt>
      <trkpt lat="40.2193380" lon="-0.9582880">
        <ele>1169.4</ele>
        <time>2019-07-05T06:31:53Z</time>
      </trkpt>
      <trkpt lat="40.2194130" lon="-0.9583880">
        <ele>1169.4</ele>
        <time>2019-07-05T06:31:55Z</time>
      </trkpt>
      <trkpt lat="40.2195280" lon="-0.9585310">
        <ele>1169.4</ele>
        <time>2019-07-05T06:31:58Z</time>
      </trkpt>
      <trkpt lat="40.2196430" lon="-0.9586720">
        <ele>1169.4</ele>
        <time>2019-07-05T06:32:01Z</time>
      </trkpt>
      <trkpt lat="40.2197550" lon="-0.9588170">
        <ele>1169.6</ele>
        <time>2019-07-05T06:32:04Z</time>
      </trkpt>
      <trkpt lat="40.2199160" lon="-0.9590110">
        <ele>1170.0</ele>
        <time>2019-07-05T06:32:08Z</time>
      </trkpt>
      <trkpt lat="40.2201490" lon="-0.9593030">
        <ele>1169.8</ele>
        <time>2019-07-05T06:32:14Z</time>
      </trkpt>
      <trkpt lat="40.2203910" lon="-0.9596130">
        <ele>1169.6</ele>
        <time>2019-07-05T06:32:20Z</time>
      </trkpt>
      <trkpt lat="40.2206340" lon="-0.9599770">
        <ele>1169.6</ele>
        <time>2019-07-05T06:32:27Z</time>
      </trkpt>
      <trkpt lat="40.2207490" lon="-0.9601380">
        <ele>1169.6</ele>
        <time>2019-07-05T06:32:30Z</time>
      </trkpt>
      <trkpt lat="40.2211160" lon="-0.9606180">
        <ele>1169.6</ele>
        <time>2019-07-05T06:32:39Z</time>
      </trkpt>
      <trkpt lat="40.2214320" lon="-0.9610300">
        <ele>1170.0</ele>
        <time>2019-07-05T06:32:47Z</time>
      </trkpt>
      <trkpt lat="40.2216620" lon="-0.9613400">
        <ele>1170.6</ele>
        <time>2019-07-05T06:32:53Z</time>
      </trkpt>
      <trkpt lat="40.2217380" lon="-0.9614470">
        <ele>1170.6</ele>
        <time>2019-07-05T06:32:55Z</time>
      </trkpt>
      <trkpt lat="40.2220830" lon="-0.9619270">
        <ele>1170.6</ele>
        <time>2019-07-05T06:33:04Z</time>
      </trkpt>
      <trkpt lat="40.2223910" lon="-0.9623410">
        <ele>1171.2</ele>
        <time>2019-07-05T06:33:12Z</time>
      </trkpt>
      <trkpt lat="40.2225060" lon="-0.9624920">
        <ele>1171.4</ele>
        <time>2019-07-05T06:33:15Z</time>
      </trkpt>
      <trkpt lat="40.2227650" lon="-0.9628520">
        <ele>1171.6</ele>
        <time>2019-07-05T06:33:22Z</time>
      </trkpt>
      <trkpt lat="40.2230260" lon="-0.9632100">
        <ele>1172.6</ele>
        <time>2019-07-05T06:33:29Z</time>
      </trkpt>
      <trkpt lat="40.2230630" lon="-0.9632620">
        <ele>1172.6</ele>
        <time>2019-07-05T06:33:30Z</time>
      </trkpt>
      <trkpt lat="40.2234220" lon="-0.9637470">
        <ele>1172.8</ele>
        <time>2019-07-05T06:33:39Z</time>
      </trkpt>
      <trkpt lat="40.2237120" lon="-0.9641350">
        <ele>1173.6</ele>
        <time>2019-07-05T06:33:46Z</time>
      </trkpt>
      <trkpt lat="40.2238350" lon="-0.9642990">
        <ele>1173.6</ele>
        <time>2019-07-05T06:33:49Z</time>
      </trkpt>
      <trkpt lat="40.2242050" lon="-0.9647710">
        <ele>1174.2</ele>
        <time>2019-07-05T06:33:58Z</time>
      </trkpt>
      <trkpt lat="40.2244990" lon="-0.9651160">
        <ele>1174.4</ele>
        <time>2019-07-05T06:34:05Z</time>
      </trkpt>
      <trkpt lat="40.2245820" lon="-0.9652090">
        <ele>1174.6</ele>
        <time>2019-07-05T06:34:07Z</time>
      </trkpt>
      <trkpt lat="40.2249750" lon="-0.9656190">
        <ele>1175.2</ele>
        <time>2019-07-05T06:34:16Z</time>
      </trkpt>
      <trkpt lat="40.2253160" lon="-0.9659660">
        <ele>1175.4</ele>
        <time>2019-07-05T06:34:24Z</time>
      </trkpt>
      <trkpt lat="40.2254000" lon="-0.9660480">
        <ele>1175.8</ele>
        <time>2019-07-05T06:34:26Z</time>
      </trkpt>
      <trkpt lat="40.2256980" lon="-0.9663490">
        <ele>1176.2</ele>
        <time>2019-07-05T06:34:33Z</time>
      </trkpt>
      <trkpt lat="40.2259890" lon="-0.9666470">
        <ele>1176.6</ele>
        <time>2019-07-05T06:34:40Z</time>
      </trkpt>
      <trkpt lat="40.2260300" lon="-0.9666880">
        <ele>1176.6</ele>
        <time>2019-07-05T06:34:41Z</time>
      </trkpt>
      <trkpt lat="40.2264020" lon="-0.9670610">
        <ele>1177.0</ele>
        <time>2019-07-05T06:34:50Z</time>
      </trkpt>
      <trkpt lat="40.2265270" lon="-0.9671720">
        <ele>1177.4</ele>
        <time>2019-07-05T06:34:53Z</time>
      </trkpt>
      <trkpt lat="40.2266960" lon="-0.9673260">
        <ele>1177.6</ele>
        <time>2019-07-05T06:34:57Z</time>
      </trkpt>
      <trkpt lat="40.2270020" lon="-0.9676050">
        <ele>1178.0</ele>
        <time>2019-07-05T06:35:04Z</time>
      </trkpt>
      <trkpt lat="40.2271740" lon="-0.9677650">
        <ele>1178.6</ele>
        <time>2019-07-05T06:35:08Z</time>
      </trkpt>
      <trkpt lat="40.2274880" lon="-0.9680500">
        <ele>1178.8</ele>
        <time>2019-07-05T06:35:15Z</time>
      </trkpt>
      <trkpt lat="40.2278400" lon="-0.9683730">
        <ele>1179.8</ele>
        <time>2019-07-05T06:35:23Z</time>
      </trkpt>
      <trkpt lat="40.2278850" lon="-0.9684120">
        <ele>1180.0</ele>
        <time>2019-07-05T06:35:24Z</time>
      </trkpt>
      <trkpt lat="40.2282820" lon="-0.9687750">
        <ele>1180.6</ele>
        <time>2019-07-05T06:35:33Z</time>
      </trkpt>
      <trkpt lat="40.2283260" lon="-0.9688160">
        <ele>1180.6</ele>
        <time>2019-07-05T06:35:34Z</time>
      </trkpt>
      <trkpt lat="40.2287120" lon="-0.9691650">
        <ele>1181.6</ele>
        <time>2019-07-05T06:35:43Z</time>
      </trkpt>
      <trkpt lat="40.2288470" lon="-0.9692880">
        <ele>1181.6</ele>
        <time>2019-07-05T06:35:46Z</time>
      </trkpt>
      <trkpt lat="40.2291100" lon="-0.9695290">
        <ele>1182.4</ele>
        <time>2019-07-05T06:35:52Z</time>
      </trkpt>
      <trkpt lat="40.2292410" lon="-0.9696500">
        <ele>1182.8</ele>
        <time>2019-07-05T06:35:55Z</time>
      </trkpt>
      <trkpt lat="40.2294140" lon="-0.9698090">
        <ele>1183.0</ele>
        <time>2019-07-05T06:35:59Z</time>
      </trkpt>
      <trkpt lat="40.2296320" lon="-0.9700050">
        <ele>1183.8</ele>
        <time>2019-07-05T06:36:04Z</time>
      </trkpt>
      <trkpt lat="40.2298060" lon="-0.9701650">
        <ele>1184.0</ele>
        <time>2019-07-05T06:36:08Z</time>
      </trkpt>
      <trkpt lat="40.2302050" lon="-0.9705300">
        <ele>1184.6</ele>
        <time>2019-07-05T06:36:17Z</time>
      </trkpt>
      <trkpt lat="40.2302950" lon="-0.9706130">
        <ele>1184.8</ele>
        <time>2019-07-05T06:36:19Z</time>
      </trkpt>
      <trkpt lat="40.2306190" lon="-0.9708840">
        <ele>1185.4</ele>
        <time>2019-07-05T06:36:26Z</time>
      </trkpt>
      <trkpt lat="40.2308890" lon="-0.9711230">
        <ele>1185.8</ele>
        <time>2019-07-05T06:36:32Z</time>
      </trkpt>
      <trkpt lat="40.2309320" lon="-0.9711650">
        <ele>1185.8</ele>
        <time>2019-07-05T06:36:33Z</time>
      </trkpt>
      <trkpt lat="40.2312800" lon="-0.9715000">
        <ele>1186.8</ele>
        <time>2019-07-05T06:36:41Z</time>
      </trkpt>
      <trkpt lat="40.2313680" lon="-0.9715860">
        <ele>1187.0</ele>
        <time>2019-07-05T06:36:43Z</time>
      </trkpt>
      <trkpt lat="40.2316890" lon="-0.9718780">
        <ele>1187.8</ele>
        <time>2019-07-05T06:36:50Z</time>
      </trkpt>
      <trkpt lat="40.2317800" lon="-0.9719650">
        <ele>1187.8</ele>
        <time>2019-07-05T06:36:52Z</time>
      </trkpt>
      <trkpt lat="40.2322410" lon="-0.9723710">
        <ele>1188.8</ele>
        <time>2019-07-05T06:37:02Z</time>
      </trkpt>
      <trkpt lat="40.2322880" lon="-0.9724110">
        <ele>1188.8</ele>
        <time>2019-07-05T06:37:03Z</time>
      </trkpt>
      <trkpt lat="40.2327040" lon="-0.9727930">
        <ele>1189.4</ele>
        <time>2019-07-05T06:37:12Z</time>
      </trkpt>
      <trkpt lat="40.2328400" lon="-0.9729170">
        <ele>1189.8</ele>
        <time>2019-07-05T06:37:15Z</time>
      </trkpt>
      <trkpt lat="40.2331680" lon="-0.9732080">
        <ele>1190.4</ele>
        <time>2019-07-05T06:37:22Z</time>
      </trkpt>
      <trkpt lat="40.2335210" lon="-0.9734700">
        <ele>1190.4</ele>
        <time>2019-07-05T06:37:29Z</time>
      </trkpt>
      <trkpt lat="40.2339590" lon="-0.9737080">
        <ele>1190.8</ele>
        <time>2019-07-05T06:37:37Z</time>
      </trkpt>
      <trkpt lat="40.2340150" lon="-0.9737340">
        <ele>1190.8</ele>
        <time>2019-07-05T06:37:38Z</time>
      </trkpt>
      <trkpt lat="40.2344790" lon="-0.9738910">
        <ele>1190.6</ele>
        <time>2019-07-05T06:37:46Z</time>
      </trkpt>
      <trkpt lat="40.2350140" lon="-0.9739750">
        <ele>1190.2</ele>
        <time>2019-07-05T06:37:55Z</time>
      </trkpt>
      <trkpt lat="40.2354890" lon="-0.9739500">
        <ele>1190.6</ele>
        <time>2019-07-05T06:38:03Z</time>
      </trkpt>
      <trkpt lat="40.2359720" lon="-0.9738440">
        <ele>1190.8</ele>
        <time>2019-07-05T06:38:11Z</time>
      </trkpt>
      <trkpt lat="40.2364370" lon="-0.9736630">
        <ele>1191.0</ele>
        <time>2019-07-05T06:38:19Z</time>
      </trkpt>
      <trkpt lat="40.2364920" lon="-0.9736300">
        <ele>1191.0</ele>
        <time>2019-07-05T06:38:20Z</time>
      </trkpt>
      <trkpt lat="40.2367120" lon="-0.9735140">
        <ele>1191.0</ele>
        <time>2019-07-05T06:38:24Z</time>
      </trkpt>
      <trkpt lat="40.2367650" lon="-0.9734760">
        <ele>1190.8</ele>
        <time>2019-07-05T06:38:25Z</time>
      </trkpt>
      <trkpt lat="40.2368220" lon="-0.9734410">
        <ele>1190.8</ele>
        <time>2019-07-05T06:38:26Z</time>
      </trkpt>
      <trkpt lat="40.2369780" lon="-0.9733260">
        <ele>1190.8</ele>
        <time>2019-07-05T06:38:29Z</time>
      </trkpt>
      <trkpt lat="40.2371320" lon="-0.9731860">
        <ele>1190.8</ele>
        <time>2019-07-05T06:38:32Z</time>
      </trkpt>
      <trkpt lat="40.2371820" lon="-0.9731340">
        <ele>1191.0</ele>
        <time>2019-07-05T06:38:33Z</time>
      </trkpt>
      <trkpt lat="40.2375400" lon="-0.9727780">
        <ele>1191.0</ele>
        <time>2019-07-05T06:38:40Z</time>
      </trkpt>
      <trkpt lat="40.2378080" lon="-0.9725460">
        <ele>1190.4</ele>
        <time>2019-07-05T06:38:45Z</time>
      </trkpt>
      <trkpt lat="40.2379640" lon="-0.9723900">
        <ele>1190.2</ele>
        <time>2019-07-05T06:38:48Z</time>
      </trkpt>
      <trkpt lat="40.2384350" lon="-0.9719260">
        <ele>1189.8</ele>
        <time>2019-07-05T06:38:57Z</time>
      </trkpt>
      <trkpt lat="40.2389110" lon="-0.9714670">
        <ele>1189.8</ele>
        <time>2019-07-05T06:39:06Z</time>
      </trkpt>
      <trkpt lat="40.2390160" lon="-0.9713660">
        <ele>1189.4</ele>
        <time>2019-07-05T06:39:08Z</time>
      </trkpt>
      <trkpt lat="40.2390670" lon="-0.9713150">
        <ele>1189.4</ele>
        <time>2019-07-05T06:39:09Z</time>
      </trkpt>
      <trkpt lat="40.2394710" lon="-0.9709210">
        <ele>1189.4</ele>
        <time>2019-07-05T06:39:17Z</time>
      </trkpt>
      <trkpt lat="40.2399200" lon="-0.9704870">
        <ele>1189.2</ele>
        <time>2019-07-05T06:39:26Z</time>
      </trkpt>
      <trkpt lat="40.2399700" lon="-0.9704400">
        <ele>1189.0</ele>
        <time>2019-07-05T06:39:27Z</time>
      </trkpt>
      <trkpt lat="40.2404120" lon="-0.9700030">
        <ele>1189.2</ele>
        <time>2019-07-05T06:39:36Z</time>
      </trkpt>
      <trkpt lat="40.2407550" lon="-0.9696670">
        <ele>1188.8</ele>
        <time>2019-07-05T06:39:43Z</time>
      </trkpt>
      <trkpt lat="40.2408540" lon="-0.9695740">
        <ele>1188.6</ele>
        <time>2019-07-05T06:39:45Z</time>
      </trkpt>
      <trkpt lat="40.2412920" lon="-0.9691450">
        <ele>1189.0</ele>
        <time>2019-07-05T06:39:54Z</time>
      </trkpt>
      <trkpt lat="40.2413410" lon="-0.9690990">
        <ele>1189.0</ele>
        <time>2019-07-05T06:39:55Z</time>
      </trkpt>
      <trkpt lat="40.2417740" lon="-0.9686780">
        <ele>1188.8</ele>
        <time>2019-07-05T06:40:04Z</time>
      </trkpt>
      <trkpt lat="40.2421580" lon="-0.9683790">
        <ele>1189.2</ele>
        <time>2019-07-05T06:40:12Z</time>
      </trkpt>
      <trkpt lat="40.2424640" lon="-0.9681870">
        <ele>1189.2</ele>
        <time>2019-07-05T06:40:18Z</time>
      </trkpt>
      <trkpt lat="40.2428630" lon="-0.9680100">
        <ele>1188.8</ele>
        <time>2019-07-05T06:40:26Z</time>
      </trkpt>
      <trkpt lat="40.2432730" lon="-0.9678820">
        <ele>1189.0</ele>
        <time>2019-07-05T06:40:34Z</time>
      </trkpt>
      <trkpt lat="40.2436960" lon="-0.9678270">
        <ele>1188.8</ele>
        <time>2019-07-05T06:40:42Z</time>
      </trkpt>
      <trkpt lat="40.2441370" lon="-0.9678450">
        <ele>1189.6</ele>
        <time>2019-07-05T06:40:50Z</time>
      </trkpt>
      <trkpt lat="40.2442460" lon="-0.9678630">
        <ele>1189.4</ele>
        <time>2019-07-05T06:40:52Z</time>
      </trkpt>
      <trkpt lat="40.2444630" lon="-0.9679060">
        <ele>1189.2</ele>
        <time>2019-07-05T06:40:56Z</time>
      </trkpt>
      <trkpt lat="40.2447820" lon="-0.9679630">
        <ele>1189.2</ele>
        <time>2019-07-05T06:41:02Z</time>
      </trkpt>
      <trkpt lat="40.2449370" lon="-0.9679950">
        <ele>1189.4</ele>
        <time>2019-07-05T06:41:05Z</time>
      </trkpt>
      <trkpt lat="40.2450870" lon="-0.9680370">
        <ele>1189.4</ele>
        <time>2019-07-05T06:41:08Z</time>
      </trkpt>
      <trkpt lat="40.2453880" lon="-0.9681600">
        <ele>1189.2</ele>
        <time>2019-07-05T06:41:14Z</time>
      </trkpt>
      <trkpt lat="40.2457080" lon="-0.9683470">
        <ele>1189.4</ele>
        <time>2019-07-05T06:41:20Z</time>
      </trkpt>
      <trkpt lat="40.2460750" lon="-0.9685830">
        <ele>1189.0</ele>
        <time>2019-07-05T06:41:27Z</time>
      </trkpt>
      <trkpt lat="40.2465130" lon="-0.9688650">
        <ele>1189.0</ele>
        <time>2019-07-05T06:41:35Z</time>
      </trkpt>
      <trkpt lat="40.2469740" lon="-0.9691630">
        <ele>1188.6</ele>
        <time>2019-07-05T06:41:43Z</time>
      </trkpt>
      <trkpt lat="40.2474630" lon="-0.9694720">
        <ele>1188.8</ele>
        <time>2019-07-05T06:41:52Z</time>
      </trkpt>
      <trkpt lat="40.2475680" lon="-0.9695440">
        <ele>1188.8</ele>
        <time>2019-07-05T06:41:54Z</time>
      </trkpt>
      <trkpt lat="40.2479810" lon="-0.9697970">
        <ele>1189.0</ele>
        <time>2019-07-05T06:42:02Z</time>
      </trkpt>
      <trkpt lat="40.2481590" lon="-0.9699020">
        <ele>1189.4</ele>
        <time>2019-07-05T06:42:06Z</time>
      </trkpt>
      <trkpt lat="40.2483300" lon="-0.9700080">
        <ele>1189.8</ele>
        <time>2019-07-05T06:42:10Z</time>
      </trkpt>
      <trkpt lat="40.2484180" lon="-0.9700590">
        <ele>1190.0</ele>
        <time>2019-07-05T06:42:12Z</time>
      </trkpt>
      <trkpt lat="40.2487870" lon="-0.9702870">
        <ele>1190.0</ele>
        <time>2019-07-05T06:42:20Z</time>
      </trkpt>
      <trkpt lat="40.2491800" lon="-0.9705250">
        <ele>1190.6</ele>
        <time>2019-07-05T06:42:28Z</time>
      </trkpt>
      <trkpt lat="40.2494910" lon="-0.9707170">
        <ele>1191.0</ele>
        <time>2019-07-05T06:42:34Z</time>
      </trkpt>
      <trkpt lat="40.2496980" lon="-0.9708460">
        <ele>1191.2</ele>
        <time>2019-07-05T06:42:38Z</time>
      </trkpt>
      <trkpt lat="40.2501130" lon="-0.9710940">
        <ele>1191.8</ele>
        <time>2019-07-05T06:42:46Z</time>
      </trkpt>
      <trkpt lat="40.2502170" lon="-0.9711580">
        <ele>1192.0</ele>
        <time>2019-07-05T06:42:48Z</time>
      </trkpt>
      <trkpt lat="40.2502680" lon="-0.9711910">
        <ele>1192.0</ele>
        <time>2019-07-05T06:42:49Z</time>
      </trkpt>
      <trkpt lat="40.2507470" lon="-0.9714820">
        <ele>1192.2</ele>
        <time>2019-07-05T06:42:58Z</time>
      </trkpt>
      <trkpt lat="40.2510530" lon="-0.9716740">
        <ele>1193.0</ele>
        <time>2019-07-05T06:43:04Z</time>
      </trkpt>
      <trkpt lat="40.2511560" lon="-0.9717330">
        <ele>1193.0</ele>
        <time>2019-07-05T06:43:06Z</time>
      </trkpt>
      <trkpt lat="40.2515620" lon="-0.9719780">
        <ele>1193.4</ele>
        <time>2019-07-05T06:43:14Z</time>
      </trkpt>
      <trkpt lat="40.2517140" lon="-0.9720680">
        <ele>1193.6</ele>
        <time>2019-07-05T06:43:17Z</time>
      </trkpt>
      <trkpt lat="40.2520270" lon="-0.9722490">
        <ele>1194.2</ele>
        <time>2019-07-05T06:43:23Z</time>
      </trkpt>
      <trkpt lat="40.2521840" lon="-0.9723410">
        <ele>1194.4</ele>
        <time>2019-07-05T06:43:26Z</time>
      </trkpt>
      <trkpt lat="40.2526560" lon="-0.9726220">
        <ele>1194.8</ele>
        <time>2019-07-05T06:43:35Z</time>
      </trkpt>
      <trkpt lat="40.2527100" lon="-0.9726550">
        <ele>1194.6</ele>
        <time>2019-07-05T06:43:36Z</time>
      </trkpt>
      <trkpt lat="40.2530390" lon="-0.9728520">
        <ele>1195.2</ele>
        <time>2019-07-05T06:43:42Z</time>
      </trkpt>
      <trkpt lat="40.2532510" lon="-0.9729830">
        <ele>1195.2</ele>
        <time>2019-07-05T06:43:46Z</time>
      </trkpt>
      <trkpt lat="40.2535730" lon="-0.9731700">
        <ele>1195.6</ele>
        <time>2019-07-05T06:43:52Z</time>
      </trkpt>
      <trkpt lat="40.2537830" lon="-0.9732940">
        <ele>1195.6</ele>
        <time>2019-07-05T06:43:56Z</time>
      </trkpt>
      <trkpt lat="40.2540470" lon="-0.9734500">
        <ele>1196.0</ele>
        <time>2019-07-05T06:44:01Z</time>
      </trkpt>
      <trkpt lat="40.2542580" lon="-0.9735730">
        <ele>1196.4</ele>
        <time>2019-07-05T06:44:05Z</time>
      </trkpt>
      <trkpt lat="40.2546840" lon="-0.9737960">
        <ele>1196.4</ele>
        <time>2019-07-05T06:44:13Z</time>
      </trkpt>
      <trkpt lat="40.2549820" lon="-0.9739560">
        <ele>1196.6</ele>
        <time>2019-07-05T06:44:19Z</time>
      </trkpt>
      <trkpt lat="40.2550280" lon="-0.9739870">
        <ele>1196.4</ele>
        <time>2019-07-05T06:44:20Z</time>
      </trkpt>
      <trkpt lat="40.2550780" lon="-0.9740160">
        <ele>1196.2</ele>
        <time>2019-07-05T06:44:21Z</time>
      </trkpt>
      <trkpt lat="40.2552860" lon="-0.9741360">
        <ele>1196.2</ele>
        <time>2019-07-05T06:44:25Z</time>
      </trkpt>
      <trkpt lat="40.2556290" lon="-0.9743270">
        <ele>1196.8</ele>
        <time>2019-07-05T06:44:31Z</time>
      </trkpt>
      <trkpt lat="40.2557430" lon="-0.9743940">
        <ele>1196.8</ele>
        <time>2019-07-05T06:44:33Z</time>
      </trkpt>
      <trkpt lat="40.2559180" lon="-0.9744920">
        <ele>1196.8</ele>
        <time>2019-07-05T06:44:36Z</time>
      </trkpt>
      <trkpt lat="40.2560350" lon="-0.9745630">
        <ele>1196.8</ele>
        <time>2019-07-05T06:44:38Z</time>
      </trkpt>
      <trkpt lat="40.2562720" lon="-0.9747120">
        <ele>1197.0</ele>
        <time>2019-07-05T06:44:42Z</time>
      </trkpt>
      <trkpt lat="40.2567890" lon="-0.9750400">
        <ele>1196.6</ele>
        <time>2019-07-05T06:44:51Z</time>
      </trkpt>
      <trkpt lat="40.2572950" lon="-0.9753490">
        <ele>1196.2</ele>
        <time>2019-07-05T06:45:00Z</time>
      </trkpt>
      <trkpt lat="40.2573520" lon="-0.9753820">
        <ele>1196.4</ele>
        <time>2019-07-05T06:45:01Z</time>
      </trkpt>
      <trkpt lat="40.2577370" lon="-0.9756140">
        <ele>1196.8</ele>
        <time>2019-07-05T06:45:08Z</time>
      </trkpt>
      <trkpt lat="40.2580160" lon="-0.9757800">
        <ele>1197.2</ele>
        <time>2019-07-05T06:45:13Z</time>
      </trkpt>
      <trkpt lat="40.2582390" lon="-0.9759150">
        <ele>1197.4</ele>
        <time>2019-07-05T06:45:17Z</time>
      </trkpt>
      <trkpt lat="40.2587760" lon="-0.9762390">
        <ele>1196.8</ele>
        <time>2019-07-05T06:45:27Z</time>
      </trkpt>
      <trkpt lat="40.2588840" lon="-0.9763010">
        <ele>1197.0</ele>
        <time>2019-07-05T06:45:29Z</time>
      </trkpt>
      <trkpt lat="40.2592510" lon="-0.9765230">
        <ele>1197.6</ele>
        <time>2019-07-05T06:45:36Z</time>
      </trkpt>
      <trkpt lat="40.2593550" lon="-0.9765850">
        <ele>1197.6</ele>
        <time>2019-07-05T06:45:38Z</time>
      </trkpt>
      <trkpt lat="40.2598650" lon="-0.9768900">
        <ele>1197.6</ele>
        <time>2019-07-05T06:45:48Z</time>
      </trkpt>
      <trkpt lat="40.2600160" lon="-0.9769770">
        <ele>1197.8</ele>
        <time>2019-07-05T06:45:51Z</time>
      </trkpt>
      <trkpt lat="40.2604610" lon="-0.9772410">
        <ele>1198.4</ele>
        <time>2019-07-05T06:46:00Z</time>
      </trkpt>
      <trkpt lat="40.2605100" lon="-0.9772700">
        <ele>1198.6</ele>
        <time>2019-07-05T06:46:01Z</time>
      </trkpt>
      <trkpt lat="40.2610060" lon="-0.9775590">
        <ele>1199.0</ele>
        <time>2019-07-05T06:46:11Z</time>
      </trkpt>
      <trkpt lat="40.2612050" lon="-0.9776810">
        <ele>1199.6</ele>
        <time>2019-07-05T06:46:15Z</time>
      </trkpt>
      <trkpt lat="40.2614520" lon="-0.9778320">
        <ele>1199.6</ele>
        <time>2019-07-05T06:46:20Z</time>
      </trkpt>
      <trkpt lat="40.2619450" lon="-0.9781310">
        <ele>1200.4</ele>
        <time>2019-07-05T06:46:30Z</time>
      </trkpt>
      <trkpt lat="40.2619940" lon="-0.9781600">
        <ele>1200.6</ele>
        <time>2019-07-05T06:46:31Z</time>
      </trkpt>
      <trkpt lat="40.2620440" lon="-0.9781890">
        <ele>1200.8</ele>
        <time>2019-07-05T06:46:32Z</time>
      </trkpt>
      <trkpt lat="40.2624920" lon="-0.9784500">
        <ele>1201.2</ele>
        <time>2019-07-05T06:46:41Z</time>
      </trkpt>
      <trkpt lat="40.2629660" lon="-0.9787270">
        <ele>1201.6</ele>
        <time>2019-07-05T06:46:50Z</time>
      </trkpt>
      <trkpt lat="40.2630190" lon="-0.9787580">
        <ele>1201.8</ele>
        <time>2019-07-05T06:46:51Z</time>
      </trkpt>
      <trkpt lat="40.2631250" lon="-0.9788210">
        <ele>1201.8</ele>
        <time>2019-07-05T06:46:53Z</time>
      </trkpt>
      <trkpt lat="40.2633330" lon="-0.9789540">
        <ele>1201.8</ele>
        <time>2019-07-05T06:46:57Z</time>
      </trkpt>
      <trkpt lat="40.2637770" lon="-0.9792110">
        <ele>1202.2</ele>
        <time>2019-07-05T06:47:05Z</time>
      </trkpt>
      <trkpt lat="40.2640040" lon="-0.9793280">
        <ele>1202.6</ele>
        <time>2019-07-05T06:47:09Z</time>
      </trkpt>
      <trkpt lat="40.2641170" lon="-0.9793950">
        <ele>1202.8</ele>
        <time>2019-07-05T06:47:11Z</time>
      </trkpt>
      <trkpt lat="40.2646270" lon="-0.9797050">
        <ele>1203.4</ele>
        <time>2019-07-05T06:47:20Z</time>
      </trkpt>
      <trkpt lat="40.2647390" lon="-0.9797750">
        <ele>1203.4</ele>
        <time>2019-07-05T06:47:22Z</time>
      </trkpt>
      <trkpt lat="40.2652450" lon="-0.9800860">
        <ele>1203.2</ele>
        <time>2019-07-05T06:47:31Z</time>
      </trkpt>
      <trkpt lat="40.2657660" lon="-0.9803940">
        <ele>1203.6</ele>
        <time>2019-07-05T06:47:40Z</time>
      </trkpt>
      <trkpt lat="40.2658260" lon="-0.9804290">
        <ele>1203.6</ele>
        <time>2019-07-05T06:47:41Z</time>
      </trkpt>
      <trkpt lat="40.2663580" lon="-0.9807430">
        <ele>1203.4</ele>
        <time>2019-07-05T06:47:50Z</time>
      </trkpt>
      <trkpt lat="40.2665360" lon="-0.9808480">
        <ele>1203.4</ele>
        <time>2019-07-05T06:47:53Z</time>
      </trkpt>
      <trkpt lat="40.2667710" lon="-0.9809870">
        <ele>1203.6</ele>
        <time>2019-07-05T06:47:57Z</time>
      </trkpt>
      <trkpt lat="40.2671800" lon="-0.9812310">
        <ele>1203.4</ele>
        <time>2019-07-05T06:48:04Z</time>
      </trkpt>
      <trkpt lat="40.2677060" lon="-0.9815380">
        <ele>1203.4</ele>
        <time>2019-07-05T06:48:13Z</time>
      </trkpt>
      <trkpt lat="40.2682320" lon="-0.9817940">
        <ele>1203.6</ele>
        <time>2019-07-05T06:48:22Z</time>
      </trkpt>
      <trkpt lat="40.2687360" lon="-0.9820170">
        <ele>1203.4</ele>
        <time>2019-07-05T06:48:30Z</time>
      </trkpt>
      <trkpt lat="40.2690960" lon="-0.9821470">
        <ele>1203.0</ele>
        <time>2019-07-05T06:48:36Z</time>
      </trkpt>
      <trkpt lat="40.2695230" lon="-0.9822900">
        <ele>1203.6</ele>
        <time>2019-07-05T06:48:44Z</time>
      </trkpt>
      <trkpt lat="40.2700300" lon="-0.9824600">
        <ele>1203.4</ele>
        <time>2019-07-05T06:48:53Z</time>
      </trkpt>
      <trkpt lat="40.2703680" lon="-0.9825820">
        <ele>1203.8</ele>
        <time>2019-07-05T06:48:59Z</time>
      </trkpt>
      <trkpt lat="40.2706470" lon="-0.9826830">
        <ele>1204.2</ele>
        <time>2019-07-05T06:49:04Z</time>
      </trkpt>
      <trkpt lat="40.2709290" lon="-0.9827770">
        <ele>1204.8</ele>
        <time>2019-07-05T06:49:09Z</time>
      </trkpt>
      <trkpt lat="40.2711370" lon="-0.9828460">
        <ele>1205.0</ele>
        <time>2019-07-05T06:49:13Z</time>
      </trkpt>
      <trkpt lat="40.2715340" lon="-0.9829950">
        <ele>1205.4</ele>
        <time>2019-07-05T06:49:21Z</time>
      </trkpt>
      <trkpt lat="40.2717450" lon="-0.9830790">
        <ele>1205.2</ele>
        <time>2019-07-05T06:49:25Z</time>
      </trkpt>
      <trkpt lat="40.2719530" lon="-0.9831740">
        <ele>1205.0</ele>
        <time>2019-07-05T06:49:29Z</time>
      </trkpt>
      <trkpt lat="40.2720000" lon="-0.9832080">
        <ele>1205.0</ele>
        <time>2019-07-05T06:49:30Z</time>
      </trkpt>
      <trkpt lat="40.2721830" lon="-0.9833470">
        <ele>1205.6</ele>
        <time>2019-07-05T06:49:34Z</time>
      </trkpt>
      <trkpt lat="40.2725520" lon="-0.9836330">
        <ele>1206.0</ele>
        <time>2019-07-05T06:49:42Z</time>
      </trkpt>
      <trkpt lat="40.2727370" lon="-0.9837820">
        <ele>1206.6</ele>
        <time>2019-07-05T06:49:46Z</time>
      </trkpt>
      <trkpt lat="40.2729560" lon="-0.9839890">
        <ele>1206.4</ele>
        <time>2019-07-05T06:49:51Z</time>
      </trkpt>
      <trkpt lat="40.2733570" lon="-0.9843050">
        <ele>1207.6</ele>
        <time>2019-07-05T06:50:00Z</time>
      </trkpt>
      <trkpt lat="40.2735480" lon="-0.9843680">
        <ele>1207.6</ele>
        <time>2019-07-05T06:50:04Z</time>
      </trkpt>
      <trkpt lat="40.2735970" lon="-0.9843830">
        <ele>1207.8</ele>
        <time>2019-07-05T06:50:05Z</time>
      </trkpt>
      <trkpt lat="40.2738090" lon="-0.9844520">
        <ele>1207.8</ele>
        <time>2019-07-05T06:50:09Z</time>
      </trkpt>
      <trkpt lat="40.2739220" lon="-0.9845020">
        <ele>1207.8</ele>
        <time>2019-07-05T06:50:11Z</time>
      </trkpt>
      <trkpt lat="40.2743130" lon="-0.9847490">
        <ele>1208.0</ele>
        <time>2019-07-05T06:50:18Z</time>
      </trkpt>
      <trkpt lat="40.2746510" lon="-0.9849950">
        <ele>1208.0</ele>
        <time>2019-07-05T06:50:24Z</time>
      </trkpt>
      <trkpt lat="40.2747630" lon="-0.9850800">
        <ele>1208.0</ele>
        <time>2019-07-05T06:50:26Z</time>
      </trkpt>
      <trkpt lat="40.2752690" lon="-0.9854430">
        <ele>1208.6</ele>
        <time>2019-07-05T06:50:35Z</time>
      </trkpt>
      <trkpt lat="40.2756090" lon="-0.9856840">
        <ele>1208.6</ele>
        <time>2019-07-05T06:50:41Z</time>
      </trkpt>
      <trkpt lat="40.2756660" lon="-0.9857230">
        <ele>1208.8</ele>
        <time>2019-07-05T06:50:42Z</time>
      </trkpt>
      <trkpt lat="40.2757780" lon="-0.9858070">
        <ele>1208.6</ele>
        <time>2019-07-05T06:50:44Z</time>
      </trkpt>
      <trkpt lat="40.2761270" lon="-0.9861870">
        <ele>1209.4</ele>
        <time>2019-07-05T06:50:51Z</time>
      </trkpt>
      <trkpt lat="40.2764350" lon="-0.9866060">
        <ele>1209.6</ele>
        <time>2019-07-05T06:50:58Z</time>
      </trkpt>
      <trkpt lat="40.2764710" lon="-0.9866710">
        <ele>1209.6</ele>
        <time>2019-07-05T06:50:59Z</time>
      </trkpt>
      <trkpt lat="40.2767070" lon="-0.9871920">
        <ele>1210.6</ele>
        <time>2019-07-05T06:51:07Z</time>
      </trkpt>
      <trkpt lat="40.2767310" lon="-0.9872590">
        <ele>1210.8</ele>
        <time>2019-07-05T06:51:08Z</time>
      </trkpt>
      <trkpt lat="40.2768270" lon="-0.9875200">
        <ele>1211.8</ele>
        <time>2019-07-05T06:51:12Z</time>
      </trkpt>
      <trkpt lat="40.2768490" lon="-0.9875860">
        <ele>1211.8</ele>
        <time>2019-07-05T06:51:13Z</time>
      </trkpt>
      <trkpt lat="40.2768740" lon="-0.9876520">
        <ele>1212.0</ele>
        <time>2019-07-05T06:51:14Z</time>
      </trkpt>
      <trkpt lat="40.2769520" lon="-0.9878500">
        <ele>1212.4</ele>
        <time>2019-07-05T06:51:17Z</time>
      </trkpt>
      <trkpt lat="40.2770350" lon="-0.9880480">
        <ele>1212.8</ele>
        <time>2019-07-05T06:51:20Z</time>
      </trkpt>
      <trkpt lat="40.2771030" lon="-0.9881770">
        <ele>1212.8</ele>
        <time>2019-07-05T06:51:22Z</time>
      </trkpt>
      <trkpt lat="40.2772280" lon="-0.9883590">
        <ele>1213.2</ele>
        <time>2019-07-05T06:51:25Z</time>
      </trkpt>
      <trkpt lat="40.2772740" lon="-0.9884160">
        <ele>1213.2</ele>
        <time>2019-07-05T06:51:26Z</time>
      </trkpt>
      <trkpt lat="40.2773830" lon="-0.9885180">
        <ele>1213.2</ele>
        <time>2019-07-05T06:51:28Z</time>
      </trkpt>
      <trkpt lat="40.2776320" lon="-0.9886860">
        <ele>1212.2</ele>
        <time>2019-07-05T06:51:32Z</time>
      </trkpt>
      <trkpt lat="40.2777730" lon="-0.9887360">
        <ele>1212.0</ele>
        <time>2019-07-05T06:51:34Z</time>
      </trkpt>
      <trkpt lat="40.2779170" lon="-0.9887770">
        <ele>1211.8</ele>
        <time>2019-07-05T06:51:36Z</time>
      </trkpt>
      <trkpt lat="40.2779900" lon="-0.9887890">
        <ele>1211.8</ele>
        <time>2019-07-05T06:51:37Z</time>
      </trkpt>
      <trkpt lat="40.2781410" lon="-0.9887920">
        <ele>1211.2</ele>
        <time>2019-07-05T06:51:39Z</time>
      </trkpt>
      <trkpt lat="40.2783010" lon="-0.9887910">
        <ele>1210.8</ele>
        <time>2019-07-05T06:51:41Z</time>
      </trkpt>
      <trkpt lat="40.2785540" lon="-0.9887760">
        <ele>1209.6</ele>
        <time>2019-07-05T06:51:44Z</time>
      </trkpt>
      <trkpt lat="40.2786420" lon="-0.9887730">
        <ele>1209.4</ele>
        <time>2019-07-05T06:51:45Z</time>
      </trkpt>
      <trkpt lat="40.2788210" lon="-0.9887700">
        <ele>1208.6</ele>
        <time>2019-07-05T06:51:47Z</time>
      </trkpt>
      <trkpt lat="40.2789130" lon="-0.9887710">
        <ele>1208.4</ele>
        <time>2019-07-05T06:51:48Z</time>
      </trkpt>
      <trkpt lat="40.2790070" lon="-0.9887770">
        <ele>1208.0</ele>
        <time>2019-07-05T06:51:49Z</time>
      </trkpt>
      <trkpt lat="40.2791020" lon="-0.9887900">
        <ele>1207.6</ele>
        <time>2019-07-05T06:51:50Z</time>
      </trkpt>
      <trkpt lat="40.2791970" lon="-0.9888080">
        <ele>1207.4</ele>
        <time>2019-07-05T06:51:51Z</time>
      </trkpt>
      <trkpt lat="40.2793950" lon="-0.9888610">
        <ele>1206.0</ele>
        <time>2019-07-05T06:51:53Z</time>
      </trkpt>
      <trkpt lat="40.2795930" lon="-0.9889430">
        <ele>1204.8</ele>
        <time>2019-07-05T06:51:55Z</time>
      </trkpt>
      <trkpt lat="40.2796910" lon="-0.9889880">
        <ele>1204.6</ele>
        <time>2019-07-05T06:51:56Z</time>
      </trkpt>
      <trkpt lat="40.2798790" lon="-0.9891040">
        <ele>1203.4</ele>
        <time>2019-07-05T06:51:58Z</time>
      </trkpt>
      <trkpt lat="40.2800590" lon="-0.9892420">
        <ele>1202.4</ele>
        <time>2019-07-05T06:52:00Z</time>
      </trkpt>
      <trkpt lat="40.2801500" lon="-0.9893130">
        <ele>1202.2</ele>
        <time>2019-07-05T06:52:01Z</time>
      </trkpt>
      <trkpt lat="40.2803300" lon="-0.9894570">
        <ele>1201.6</ele>
        <time>2019-07-05T06:52:03Z</time>
      </trkpt>
      <trkpt lat="40.2805110" lon="-0.9896040">
        <ele>1201.0</ele>
        <time>2019-07-05T06:52:05Z</time>
      </trkpt>
      <trkpt lat="40.2806930" lon="-0.9897550">
        <ele>1199.8</ele>
        <time>2019-07-05T06:52:07Z</time>
      </trkpt>
      <trkpt lat="40.2808750" lon="-0.9899110">
        <ele>1198.8</ele>
        <time>2019-07-05T06:52:09Z</time>
      </trkpt>
      <trkpt lat="40.2809670" lon="-0.9899880">
        <ele>1198.6</ele>
        <time>2019-07-05T06:52:10Z</time>
      </trkpt>
      <trkpt lat="40.2813470" lon="-0.9902840">
        <ele>1197.0</ele>
        <time>2019-07-05T06:52:14Z</time>
      </trkpt>
      <trkpt lat="40.2815370" lon="-0.9904400">
        <ele>1196.0</ele>
        <time>2019-07-05T06:52:16Z</time>
      </trkpt>
      <trkpt lat="40.2818260" lon="-0.9906780">
        <ele>1194.6</ele>
        <time>2019-07-05T06:52:19Z</time>
      </trkpt>
      <trkpt lat="40.2820230" lon="-0.9908320">
        <ele>1193.6</ele>
        <time>2019-07-05T06:52:21Z</time>
      </trkpt>
      <trkpt lat="40.2822210" lon="-0.9909940">
        <ele>1192.4</ele>
        <time>2019-07-05T06:52:23Z</time>
      </trkpt>
      <trkpt lat="40.2823210" lon="-0.9910750">
        <ele>1192.0</ele>
        <time>2019-07-05T06:52:24Z</time>
      </trkpt>
      <trkpt lat="40.2825220" lon="-0.9912380">
        <ele>1190.8</ele>
        <time>2019-07-05T06:52:26Z</time>
      </trkpt>
      <trkpt lat="40.2827250" lon="-0.9914060">
        <ele>1189.8</ele>
        <time>2019-07-05T06:52:28Z</time>
      </trkpt>
      <trkpt lat="40.2828280" lon="-0.9914880">
        <ele>1189.2</ele>
        <time>2019-07-05T06:52:29Z</time>
      </trkpt>
      <trkpt lat="40.2830380" lon="-0.9916500">
        <ele>1188.2</ele>
        <time>2019-07-05T06:52:31Z</time>
      </trkpt>
      <trkpt lat="40.2833540" lon="-0.9918970">
        <ele>1187.0</ele>
        <time>2019-07-05T06:52:34Z</time>
      </trkpt>
      <trkpt lat="40.2836660" lon="-0.9921460">
        <ele>1185.2</ele>
        <time>2019-07-05T06:52:37Z</time>
      </trkpt>
      <trkpt lat="40.2838700" lon="-0.9923140">
        <ele>1183.8</ele>
        <time>2019-07-05T06:52:39Z</time>
      </trkpt>
      <trkpt lat="40.2840740" lon="-0.9924820">
        <ele>1182.4</ele>
        <time>2019-07-05T06:52:41Z</time>
      </trkpt>
      <trkpt lat="40.2842770" lon="-0.9926440">
        <ele>1181.4</ele>
        <time>2019-07-05T06:52:43Z</time>
      </trkpt>
      <trkpt lat="40.2844810" lon="-0.9928090">
        <ele>1180.4</ele>
        <time>2019-07-05T06:52:45Z</time>
      </trkpt>
      <trkpt lat="40.2845840" lon="-0.9928900">
        <ele>1180.0</ele>
        <time>2019-07-05T06:52:46Z</time>
      </trkpt>
      <trkpt lat="40.2847920" lon="-0.9930530">
        <ele>1179.0</ele>
        <time>2019-07-05T06:52:48Z</time>
      </trkpt>
      <trkpt lat="40.2851060" lon="-0.9932970">
        <ele>1177.6</ele>
        <time>2019-07-05T06:52:51Z</time>
      </trkpt>
      <trkpt lat="40.2853120" lon="-0.9934540">
        <ele>1176.6</ele>
        <time>2019-07-05T06:52:53Z</time>
      </trkpt>
      <trkpt lat="40.2855100" lon="-0.9936030">
        <ele>1175.8</ele>
        <time>2019-07-05T06:52:55Z</time>
      </trkpt>
      <trkpt lat="40.2856020" lon="-0.9936770">
        <ele>1175.4</ele>
        <time>2019-07-05T06:52:56Z</time>
      </trkpt>
      <trkpt lat="40.2859340" lon="-0.9939490">
        <ele>1175.6</ele>
        <time>2019-07-05T06:53:00Z</time>
      </trkpt>
      <trkpt lat="40.2863490" lon="-0.9942850">
        <ele>1176.4</ele>
        <time>2019-07-05T06:53:06Z</time>
      </trkpt>
      <trkpt lat="40.2864140" lon="-0.9943350">
        <ele>1176.4</ele>
        <time>2019-07-05T06:53:07Z</time>
      </trkpt>
      <trkpt lat="40.2864790" lon="-0.9943840">
        <ele>1176.6</ele>
        <time>2019-07-05T06:53:08Z</time>
      </trkpt>
      <trkpt lat="40.2865430" lon="-0.9944320">
        <ele>1176.6</ele>
        <time>2019-07-05T06:53:09Z</time>
      </trkpt>
      <trkpt lat="40.2866060" lon="-0.9944810">
        <ele>1176.8</ele>
        <time>2019-07-05T06:53:10Z</time>
      </trkpt>
      <trkpt lat="40.2866690" lon="-0.9945310">
        <ele>1177.0</ele>
        <time>2019-07-05T06:53:11Z</time>
      </trkpt>
      <trkpt lat="40.2867920" lon="-0.9946330">
        <ele>1177.4</ele>
        <time>2019-07-05T06:53:13Z</time>
      </trkpt>
      <trkpt lat="40.2869780" lon="-0.9947790">
        <ele>1177.6</ele>
        <time>2019-07-05T06:53:16Z</time>
      </trkpt>
      <trkpt lat="40.2875050" lon="-0.9951360">
        <ele>1177.6</ele>
        <time>2019-07-05T06:53:24Z</time>
      </trkpt>
      <trkpt lat="40.2876420" lon="-0.9952320">
        <ele>1177.2</ele>
        <time>2019-07-05T06:53:26Z</time>
      </trkpt>
      <trkpt lat="40.2880110" lon="-0.9954930">
        <ele>1176.4</ele>
        <time>2019-07-05T06:53:31Z</time>
      </trkpt>
      <trkpt lat="40.2880900" lon="-0.9955460">
        <ele>1176.2</ele>
        <time>2019-07-05T06:53:32Z</time>
      </trkpt>
      <trkpt lat="40.2881710" lon="-0.9955970">
        <ele>1176.0</ele>
        <time>2019-07-05T06:53:33Z</time>
      </trkpt>
      <trkpt lat="40.2883360" lon="-0.9957040">
        <ele>1175.2</ele>
        <time>2019-07-05T06:53:35Z</time>
      </trkpt>
      <trkpt lat="40.2885890" lon="-0.9958700">
        <ele>1174.4</ele>
        <time>2019-07-05T06:53:38Z</time>
      </trkpt>
      <trkpt lat="40.2886730" lon="-0.9959290">
        <ele>1174.2</ele>
        <time>2019-07-05T06:53:39Z</time>
      </trkpt>
      <trkpt lat="40.2889330" lon="-0.9961080">
        <ele>1173.0</ele>
        <time>2019-07-05T06:53:42Z</time>
      </trkpt>
      <trkpt lat="40.2892850" lon="-0.9963650">
        <ele>1171.8</ele>
        <time>2019-07-05T06:53:46Z</time>
      </trkpt>
      <trkpt lat="40.2895440" lon="-0.9965690">
        <ele>1171.0</ele>
        <time>2019-07-05T06:53:49Z</time>
      </trkpt>
      <trkpt lat="40.2896300" lon="-0.9966370">
        <ele>1170.8</ele>
        <time>2019-07-05T06:53:50Z</time>
      </trkpt>
      <trkpt lat="40.2901240" lon="-0.9970390">
        <ele>1169.6</ele>
        <time>2019-07-05T06:53:56Z</time>
      </trkpt>
      <trkpt lat="40.2902850" lon="-0.9971690">
        <ele>1169.4</ele>
        <time>2019-07-05T06:53:58Z</time>
      </trkpt>
      <trkpt lat="40.2905300" lon="-0.9973620">
        <ele>1168.8</ele>
        <time>2019-07-05T06:54:01Z</time>
      </trkpt>
      <trkpt lat="40.2906910" lon="-0.9974950">
        <ele>1168.6</ele>
        <time>2019-07-05T06:54:03Z</time>
      </trkpt>
      <trkpt lat="40.2909360" lon="-0.9976840">
        <ele>1168.0</ele>
        <time>2019-07-05T06:54:06Z</time>
      </trkpt>
      <trkpt lat="40.2912580" lon="-0.9979500">
        <ele>1167.6</ele>
        <time>2019-07-05T06:54:10Z</time>
      </trkpt>
      <trkpt lat="40.2913410" lon="-0.9980110">
        <ele>1167.4</ele>
        <time>2019-07-05T06:54:11Z</time>
      </trkpt>
      <trkpt lat="40.2915900" lon="-0.9982030">
        <ele>1166.6</ele>
        <time>2019-07-05T06:54:14Z</time>
      </trkpt>
      <trkpt lat="40.2919160" lon="-0.9984720">
        <ele>1166.4</ele>
        <time>2019-07-05T06:54:18Z</time>
      </trkpt>
      <trkpt lat="40.2921730" lon="-0.9986550">
        <ele>1165.6</ele>
        <time>2019-07-05T06:54:21Z</time>
      </trkpt>
      <trkpt lat="40.2923410" lon="-0.9987880">
        <ele>1165.4</ele>
        <time>2019-07-05T06:54:23Z</time>
      </trkpt>
      <trkpt lat="40.2928410" lon="-0.9991870">
        <ele>1164.6</ele>
        <time>2019-07-05T06:54:29Z</time>
      </trkpt>
      <trkpt lat="40.2930050" lon="-0.9993200">
        <ele>1164.4</ele>
        <time>2019-07-05T06:54:31Z</time>
      </trkpt>
      <trkpt lat="40.2931660" lon="-0.9994510">
        <ele>1164.2</ele>
        <time>2019-07-05T06:54:33Z</time>
      </trkpt>
      <trkpt lat="40.2936330" lon="-0.9998170">
        <ele>1163.4</ele>
        <time>2019-07-05T06:54:39Z</time>
      </trkpt>
      <trkpt lat="40.2941350" lon="-1.0002290">
        <ele>1163.2</ele>
        <time>2019-07-05T06:54:46Z</time>
      </trkpt>
      <trkpt lat="40.2942040" lon="-1.0002850">
        <ele>1163.2</ele>
        <time>2019-07-05T06:54:47Z</time>
      </trkpt>
      <trkpt lat="40.2945480" lon="-1.0005570">
        <ele>1163.2</ele>
        <time>2019-07-05T06:54:52Z</time>
      </trkpt>
      <trkpt lat="40.2947530" lon="-1.0007120">
        <ele>1163.2</ele>
        <time>2019-07-05T06:54:55Z</time>
      </trkpt>
      <trkpt lat="40.2952150" lon="-1.0010850">
        <ele>1163.2</ele>
        <time>2019-07-05T06:55:02Z</time>
      </trkpt>
      <trkpt lat="40.2952800" lon="-1.0011370">
        <ele>1163.2</ele>
        <time>2019-07-05T06:55:03Z</time>
      </trkpt>
      <trkpt lat="40.2957900" lon="-1.0015480">
        <ele>1163.2</ele>
        <time>2019-07-05T06:55:11Z</time>
      </trkpt>
      <trkpt lat="40.2959180" lon="-1.0016490">
        <ele>1163.2</ele>
        <time>2019-07-05T06:55:13Z</time>
      </trkpt>
      <trkpt lat="40.2964330" lon="-1.0020560">
        <ele>1163.2</ele>
        <time>2019-07-05T06:55:21Z</time>
      </trkpt>
      <trkpt lat="40.2965630" lon="-1.0021530">
        <ele>1163.4</ele>
        <time>2019-07-05T06:55:23Z</time>
      </trkpt>
      <trkpt lat="40.2969340" lon="-1.0024530">
        <ele>1164.0</ele>
        <time>2019-07-05T06:55:29Z</time>
      </trkpt>
      <trkpt lat="40.2970530" lon="-1.0025460">
        <ele>1164.2</ele>
        <time>2019-07-05T06:55:31Z</time>
      </trkpt>
      <trkpt lat="40.2971110" lon="-1.0025940">
        <ele>1164.4</ele>
        <time>2019-07-05T06:55:32Z</time>
      </trkpt>
      <trkpt lat="40.2974500" lon="-1.0028580">
        <ele>1165.0</ele>
        <time>2019-07-05T06:55:38Z</time>
      </trkpt>
      <trkpt lat="40.2975050" lon="-1.0028990">
        <ele>1164.8</ele>
        <time>2019-07-05T06:55:39Z</time>
      </trkpt>
      <trkpt lat="40.2976120" lon="-1.0029850">
        <ele>1165.4</ele>
        <time>2019-07-05T06:55:41Z</time>
      </trkpt>
      <trkpt lat="40.2980430" lon="-1.0033420">
        <ele>1166.0</ele>
        <time>2019-07-05T06:55:49Z</time>
      </trkpt>
      <trkpt lat="40.2985460" lon="-1.0037400">
        <ele>1166.2</ele>
        <time>2019-07-05T06:55:58Z</time>
      </trkpt>
      <trkpt lat="40.2986590" lon="-1.0038310">
        <ele>1166.4</ele>
        <time>2019-07-05T06:56:00Z</time>
      </trkpt>
      <trkpt lat="40.2991000" lon="-1.0041940">
        <ele>1166.6</ele>
        <time>2019-07-05T06:56:08Z</time>
      </trkpt>
      <trkpt lat="40.2994240" lon="-1.0044500">
        <ele>1167.2</ele>
        <time>2019-07-05T06:56:14Z</time>
      </trkpt>
      <trkpt lat="40.2995320" lon="-1.0045270">
        <ele>1167.4</ele>
        <time>2019-07-05T06:56:16Z</time>
      </trkpt>
      <trkpt lat="40.2998790" lon="-1.0048100">
        <ele>1168.0</ele>
        <time>2019-07-05T06:56:23Z</time>
      </trkpt>
      <trkpt lat="40.2999680" lon="-1.0048910">
        <ele>1168.4</ele>
        <time>2019-07-05T06:56:25Z</time>
      </trkpt>
      <trkpt lat="40.3001470" lon="-1.0050380">
        <ele>1169.6</ele>
        <time>2019-07-05T06:56:29Z</time>
      </trkpt>
      <trkpt lat="40.3002330" lon="-1.0051060">
        <ele>1170.2</ele>
        <time>2019-07-05T06:56:31Z</time>
      </trkpt>
      <trkpt lat="40.3003500" lon="-1.0052210">
        <ele>1170.6</ele>
        <time>2019-07-05T06:56:34Z</time>
      </trkpt>
      <trkpt lat="40.3004710" lon="-1.0053240">
        <ele>1171.6</ele>
        <time>2019-07-05T06:56:37Z</time>
      </trkpt>
      <trkpt lat="40.3005150" lon="-1.0053500">
        <ele>1172.0</ele>
        <time>2019-07-05T06:56:38Z</time>
      </trkpt>
      <trkpt lat="40.3006350" lon="-1.0054420">
        <ele>1172.8</ele>
        <time>2019-07-05T06:56:41Z</time>
      </trkpt>
      <trkpt lat="40.3007510" lon="-1.0055440">
        <ele>1173.6</ele>
        <time>2019-07-05T06:56:44Z</time>
      </trkpt>
      <trkpt lat="40.3007900" lon="-1.0055790">
        <ele>1173.8</ele>
        <time>2019-07-05T06:56:45Z</time>
      </trkpt>
      <trkpt lat="40.3008290" lon="-1.0056130">
        <ele>1174.2</ele>
        <time>2019-07-05T06:56:46Z</time>
      </trkpt>
      <trkpt lat="40.3009510" lon="-1.0057080">
        <ele>1175.0</ele>
        <time>2019-07-05T06:56:49Z</time>
      </trkpt>
      <trkpt lat="40.3009910" lon="-1.0057400">
        <ele>1175.2</ele>
        <time>2019-07-05T06:56:50Z</time>
      </trkpt>
      <trkpt lat="40.3011030" lon="-1.0058540">
        <ele>1176.2</ele>
        <time>2019-07-05T06:56:53Z</time>
      </trkpt>
      <trkpt lat="40.3011390" lon="-1.0058920">
        <ele>1176.6</ele>
        <time>2019-07-05T06:56:54Z</time>
      </trkpt>
      <trkpt lat="40.3012430" lon="-1.0060260">
        <ele>1177.4</ele>
        <time>2019-07-05T06:56:57Z</time>
      </trkpt>
      <trkpt lat="40.3013730" lon="-1.0062130">
        <ele>1178.0</ele>
        <time>2019-07-05T06:57:01Z</time>
      </trkpt>
      <trkpt lat="40.3014400" lon="-1.0063010">
        <ele>1178.4</ele>
        <time>2019-07-05T06:57:03Z</time>
      </trkpt>
      <trkpt lat="40.3015740" lon="-1.0065610">
        <ele>1179.0</ele>
        <time>2019-07-05T06:57:08Z</time>
      </trkpt>
      <trkpt lat="40.3016990" lon="-1.0068500">
        <ele>1179.6</ele>
        <time>2019-07-05T06:57:13Z</time>
      </trkpt>
      <trkpt lat="40.3017820" lon="-1.0071030">
        <ele>1179.8</ele>
        <time>2019-07-05T06:57:17Z</time>
      </trkpt>
      <trkpt lat="40.3018510" lon="-1.0075370">
        <ele>1180.0</ele>
        <time>2019-07-05T06:57:23Z</time>
      </trkpt>
      <trkpt lat="40.3018950" lon="-1.0078420">
        <ele>1180.0</ele>
        <time>2019-07-05T06:57:27Z</time>
      </trkpt>
      <trkpt lat="40.3019160" lon="-1.0079970">
        <ele>1179.8</ele>
        <time>2019-07-05T06:57:29Z</time>
      </trkpt>
      <trkpt lat="40.3019250" lon="-1.0080740">
        <ele>1179.8</ele>
        <time>2019-07-05T06:57:30Z</time>
      </trkpt>
      <trkpt lat="40.3019290" lon="-1.0081520">
        <ele>1179.8</ele>
        <time>2019-07-05T06:57:31Z</time>
      </trkpt>
      <trkpt lat="40.3019250" lon="-1.0083120">
        <ele>1179.6</ele>
        <time>2019-07-05T06:57:33Z</time>
      </trkpt>
      <trkpt lat="40.3019140" lon="-1.0084750">
        <ele>1179.4</ele>
        <time>2019-07-05T06:57:35Z</time>
      </trkpt>
      <trkpt lat="40.3019080" lon="-1.0086460">
        <ele>1178.8</ele>
        <time>2019-07-05T06:57:37Z</time>
      </trkpt>
      <trkpt lat="40.3019100" lon="-1.0088270">
        <ele>1178.6</ele>
        <time>2019-07-05T06:57:39Z</time>
      </trkpt>
      <trkpt lat="40.3019120" lon="-1.0090160">
        <ele>1178.2</ele>
        <time>2019-07-05T06:57:41Z</time>
      </trkpt>
      <trkpt lat="40.3019010" lon="-1.0093130">
        <ele>1177.2</ele>
        <time>2019-07-05T06:57:44Z</time>
      </trkpt>
      <trkpt lat="40.3018930" lon="-1.0096310">
        <ele>1176.0</ele>
        <time>2019-07-05T06:57:47Z</time>
      </trkpt>
      <trkpt lat="40.3018810" lon="-1.0099730">
        <ele>1175.0</ele>
        <time>2019-07-05T06:57:50Z</time>
      </trkpt>
      <trkpt lat="40.3018740" lon="-1.0103370">
        <ele>1173.4</ele>
        <time>2019-07-05T06:57:53Z</time>
      </trkpt>
      <trkpt lat="40.3018670" lon="-1.0105910">
        <ele>1172.4</ele>
        <time>2019-07-05T06:57:55Z</time>
      </trkpt>
      <trkpt lat="40.3018590" lon="-1.0109880">
        <ele>1170.6</ele>
        <time>2019-07-05T06:57:58Z</time>
      </trkpt>
      <trkpt lat="40.3018530" lon="-1.0113980">
        <ele>1169.4</ele>
        <time>2019-07-05T06:58:01Z</time>
      </trkpt>
      <trkpt lat="40.3018450" lon="-1.0116780">
        <ele>1168.4</ele>
        <time>2019-07-05T06:58:03Z</time>
      </trkpt>
      <trkpt lat="40.3018420" lon="-1.0119600">
        <ele>1166.8</ele>
        <time>2019-07-05T06:58:05Z</time>
      </trkpt>
      <trkpt lat="40.3018510" lon="-1.0123930">
        <ele>1165.4</ele>
        <time>2019-07-05T06:58:08Z</time>
      </trkpt>
      <trkpt lat="40.3018660" lon="-1.0126920">
        <ele>1164.2</ele>
        <time>2019-07-05T06:58:10Z</time>
      </trkpt>
      <trkpt lat="40.3018830" lon="-1.0130000">
        <ele>1162.8</ele>
        <time>2019-07-05T06:58:12Z</time>
      </trkpt>
      <trkpt lat="40.3019180" lon="-1.0133110">
        <ele>1161.4</ele>
        <time>2019-07-05T06:58:14Z</time>
      </trkpt>
      <trkpt lat="40.3020210" lon="-1.0137640">
        <ele>1160.0</ele>
        <time>2019-07-05T06:58:17Z</time>
      </trkpt>
      <trkpt lat="40.3020650" lon="-1.0139140">
        <ele>1159.0</ele>
        <time>2019-07-05T06:58:18Z</time>
      </trkpt>
      <trkpt lat="40.3021630" lon="-1.0142110">
        <ele>1157.8</ele>
        <time>2019-07-05T06:58:20Z</time>
      </trkpt>
      <trkpt lat="40.3022790" lon="-1.0144960">
        <ele>1156.6</ele>
        <time>2019-07-05T06:58:22Z</time>
      </trkpt>
      <trkpt lat="40.3023450" lon="-1.0146340">
        <ele>1155.8</ele>
        <time>2019-07-05T06:58:23Z</time>
      </trkpt>
      <trkpt lat="40.3024150" lon="-1.0147700">
        <ele>1155.0</ele>
        <time>2019-07-05T06:58:24Z</time>
      </trkpt>
      <trkpt lat="40.3025640" lon="-1.0150360">
        <ele>1153.6</ele>
        <time>2019-07-05T06:58:26Z</time>
      </trkpt>
      <trkpt lat="40.3027330" lon="-1.0152830">
        <ele>1152.0</ele>
        <time>2019-07-05T06:58:28Z</time>
      </trkpt>
      <trkpt lat="40.3029110" lon="-1.0155230">
        <ele>1151.0</ele>
        <time>2019-07-05T06:58:30Z</time>
      </trkpt>
      <trkpt lat="40.3030950" lon="-1.0157560">
        <ele>1149.6</ele>
        <time>2019-07-05T06:58:32Z</time>
      </trkpt>
      <trkpt lat="40.3032900" lon="-1.0159790">
        <ele>1148.2</ele>
        <time>2019-07-05T06:58:34Z</time>
      </trkpt>
      <trkpt lat="40.3033880" lon="-1.0160910">
        <ele>1147.2</ele>
        <time>2019-07-05T06:58:35Z</time>
      </trkpt>
      <trkpt lat="40.3034870" lon="-1.0162030">
        <ele>1146.6</ele>
        <time>2019-07-05T06:58:36Z</time>
      </trkpt>
      <trkpt lat="40.3036900" lon="-1.0164200">
        <ele>1145.4</ele>
        <time>2019-07-05T06:58:38Z</time>
      </trkpt>
      <trkpt lat="40.3039070" lon="-1.0166150">
        <ele>1144.2</ele>
        <time>2019-07-05T06:58:40Z</time>
      </trkpt>
      <trkpt lat="40.3040230" lon="-1.0166980">
        <ele>1143.6</ele>
        <time>2019-07-05T06:58:41Z</time>
      </trkpt>
      <trkpt lat="40.3041430" lon="-1.0167700">
        <ele>1143.0</ele>
        <time>2019-07-05T06:58:42Z</time>
      </trkpt>
      <trkpt lat="40.3043920" lon="-1.0168900">
        <ele>1141.6</ele>
        <time>2019-07-05T06:58:44Z</time>
      </trkpt>
      <trkpt lat="40.3045180" lon="-1.0169420">
        <ele>1141.2</ele>
        <time>2019-07-05T06:58:45Z</time>
      </trkpt>
      <trkpt lat="40.3046450" lon="-1.0169850">
        <ele>1140.2</ele>
        <time>2019-07-05T06:58:46Z</time>
      </trkpt>
      <trkpt lat="40.3049040" lon="-1.0170300">
        <ele>1139.2</ele>
        <time>2019-07-05T06:58:48Z</time>
      </trkpt>
      <trkpt lat="40.3050340" lon="-1.0170340">
        <ele>1138.6</ele>
        <time>2019-07-05T06:58:49Z</time>
      </trkpt>
      <trkpt lat="40.3051640" lon="-1.0170290">
        <ele>1137.6</ele>
        <time>2019-07-05T06:58:50Z</time>
      </trkpt>
      <trkpt lat="40.3054240" lon="-1.0170000">
        <ele>1136.2</ele>
        <time>2019-07-05T06:58:52Z</time>
      </trkpt>
      <trkpt lat="40.3055520" lon="-1.0169740">
        <ele>1135.2</ele>
        <time>2019-07-05T06:58:53Z</time>
      </trkpt>
      <trkpt lat="40.3056770" lon="-1.0169360">
        <ele>1134.6</ele>
        <time>2019-07-05T06:58:54Z</time>
      </trkpt>
      <trkpt lat="40.3058010" lon="-1.0168850">
        <ele>1134.0</ele>
        <time>2019-07-05T06:58:55Z</time>
      </trkpt>
      <trkpt lat="40.3060410" lon="-1.0167660">
        <ele>1132.6</ele>
        <time>2019-07-05T06:58:57Z</time>
      </trkpt>
      <trkpt lat="40.3061600" lon="-1.0167020">
        <ele>1132.0</ele>
        <time>2019-07-05T06:58:58Z</time>
      </trkpt>
      <trkpt lat="40.3062780" lon="-1.0166350">
        <ele>1131.6</ele>
        <time>2019-07-05T06:58:59Z</time>
      </trkpt>
      <trkpt lat="40.3065090" lon="-1.0164970">
        <ele>1130.0</ele>
        <time>2019-07-05T06:59:01Z</time>
      </trkpt>
      <trkpt lat="40.3067410" lon="-1.0163650">
        <ele>1128.8</ele>
        <time>2019-07-05T06:59:03Z</time>
      </trkpt>
      <trkpt lat="40.3069740" lon="-1.0162340">
        <ele>1127.8</ele>
        <time>2019-07-05T06:59:05Z</time>
      </trkpt>
      <trkpt lat="40.3072040" lon="-1.0161010">
        <ele>1126.6</ele>
        <time>2019-07-05T06:59:07Z</time>
      </trkpt>
      <trkpt lat="40.3074290" lon="-1.0159620">
        <ele>1125.4</ele>
        <time>2019-07-05T06:59:09Z</time>
      </trkpt>
      <trkpt lat="40.3076560" lon="-1.0158230">
        <ele>1124.0</ele>
        <time>2019-07-05T06:59:11Z</time>
      </trkpt>
      <trkpt lat="40.3079950" lon="-1.0156240">
        <ele>1122.6</ele>
        <time>2019-07-05T06:59:14Z</time>
      </trkpt>
      <trkpt lat="40.3082180" lon="-1.0154930">
        <ele>1121.6</ele>
        <time>2019-07-05T06:59:16Z</time>
      </trkpt>
      <trkpt lat="40.3083300" lon="-1.0154290">
        <ele>1120.6</ele>
        <time>2019-07-05T06:59:17Z</time>
      </trkpt>
      <trkpt lat="40.3085530" lon="-1.0153070">
        <ele>1119.0</ele>
        <time>2019-07-05T06:59:19Z</time>
      </trkpt>
      <trkpt lat="40.3087760" lon="-1.0151870">
        <ele>1117.8</ele>
        <time>2019-07-05T06:59:21Z</time>
      </trkpt>
      <trkpt lat="40.3091120" lon="-1.0150200">
        <ele>1116.6</ele>
        <time>2019-07-05T06:59:24Z</time>
      </trkpt>
      <trkpt lat="40.3093370" lon="-1.0149150">
        <ele>1115.4</ele>
        <time>2019-07-05T06:59:26Z</time>
      </trkpt>
      <trkpt lat="40.3095660" lon="-1.0148180">
        <ele>1114.0</ele>
        <time>2019-07-05T06:59:28Z</time>
      </trkpt>
      <trkpt lat="40.3098010" lon="-1.0147400">
        <ele>1112.6</ele>
        <time>2019-07-05T06:59:30Z</time>
      </trkpt>
      <trkpt lat="40.3099200" lon="-1.0147090">
        <ele>1112.0</ele>
        <time>2019-07-05T06:59:31Z</time>
      </trkpt>
      <trkpt lat="40.3100400" lon="-1.0146790">
        <ele>1111.0</ele>
        <time>2019-07-05T06:59:32Z</time>
      </trkpt>
      <trkpt lat="40.3102810" lon="-1.0146180">
        <ele>1109.4</ele>
        <time>2019-07-05T06:59:34Z</time>
      </trkpt>
      <trkpt lat="40.3105230" lon="-1.0145700">
        <ele>1108.2</ele>
        <time>2019-07-05T06:59:36Z</time>
      </trkpt>
      <trkpt lat="40.3107660" lon="-1.0145430">
        <ele>1106.8</ele>
        <time>2019-07-05T06:59:38Z</time>
      </trkpt>
      <trkpt lat="40.3110080" lon="-1.0145250">
        <ele>1105.6</ele>
        <time>2019-07-05T06:59:40Z</time>
      </trkpt>
      <trkpt lat="40.3112500" lon="-1.0145170">
        <ele>1104.4</ele>
        <time>2019-07-05T06:59:42Z</time>
      </trkpt>
      <trkpt lat="40.3114900" lon="-1.0145360">
        <ele>1102.8</ele>
        <time>2019-07-05T06:59:44Z</time>
      </trkpt>
      <trkpt lat="40.3116100" lon="-1.0145540">
        <ele>1102.4</ele>
        <time>2019-07-05T06:59:45Z</time>
      </trkpt>
      <trkpt lat="40.3117280" lon="-1.0145770">
        <ele>1101.6</ele>
        <time>2019-07-05T06:59:46Z</time>
      </trkpt>
      <trkpt lat="40.3119620" lon="-1.0146450">
        <ele>1100.4</ele>
        <time>2019-07-05T06:59:48Z</time>
      </trkpt>
      <trkpt lat="40.3121880" lon="-1.0147390">
        <ele>1099.4</ele>
        <time>2019-07-05T06:59:50Z</time>
      </trkpt>
      <trkpt lat="40.3124070" lon="-1.0148530">
        <ele>1098.0</ele>
        <time>2019-07-05T06:59:52Z</time>
      </trkpt>
      <trkpt lat="40.3127260" lon="-1.0150280">
        <ele>1096.6</ele>
        <time>2019-07-05T06:59:55Z</time>
      </trkpt>
      <trkpt lat="40.3129400" lon="-1.0151400">
        <ele>1095.4</ele>
        <time>2019-07-05T06:59:57Z</time>
      </trkpt>
      <trkpt lat="40.3130480" lon="-1.0151920">
        <ele>1095.0</ele>
        <time>2019-07-05T06:59:58Z</time>
      </trkpt>
      <trkpt lat="40.3131580" lon="-1.0152450">
        <ele>1094.0</ele>
        <time>2019-07-05T06:59:59Z</time>
      </trkpt>
      <trkpt lat="40.3134810" lon="-1.0154240">
        <ele>1092.4</ele>
        <time>2019-07-05T07:00:02Z</time>
      </trkpt>
      <trkpt lat="40.3136980" lon="-1.0155440">
        <ele>1091.2</ele>
        <time>2019-07-05T07:00:04Z</time>
      </trkpt>
      <trkpt lat="40.3138070" lon="-1.0156010">
        <ele>1090.0</ele>
        <time>2019-07-05T07:00:05Z</time>
      </trkpt>
      <trkpt lat="40.3141380" lon="-1.0157710">
        <ele>1088.0</ele>
        <time>2019-07-05T07:00:08Z</time>
      </trkpt>
      <trkpt lat="40.3143560" lon="-1.0158950">
        <ele>1086.8</ele>
        <time>2019-07-05T07:00:10Z</time>
      </trkpt>
      <trkpt lat="40.3145760" lon="-1.0160140">
        <ele>1085.8</ele>
        <time>2019-07-05T07:00:12Z</time>
      </trkpt>
      <trkpt lat="40.3147980" lon="-1.0161200">
        <ele>1084.8</ele>
        <time>2019-07-05T07:00:14Z</time>
      </trkpt>
      <trkpt lat="40.3150190" lon="-1.0162320">
        <ele>1083.4</ele>
        <time>2019-07-05T07:00:16Z</time>
      </trkpt>
      <trkpt lat="40.3152370" lon="-1.0163510">
        <ele>1082.2</ele>
        <time>2019-07-05T07:00:18Z</time>
      </trkpt>
      <trkpt lat="40.3155630" lon="-1.0165290">
        <ele>1080.4</ele>
        <time>2019-07-05T07:00:21Z</time>
      </trkpt>
      <trkpt lat="40.3156700" lon="-1.0165880">
        <ele>1080.0</ele>
        <time>2019-07-05T07:00:22Z</time>
      </trkpt>
      <trkpt lat="40.3158820" lon="-1.0167020">
        <ele>1079.2</ele>
        <time>2019-07-05T07:00:24Z</time>
      </trkpt>
      <trkpt lat="40.3161850" lon="-1.0168650">
        <ele>1078.0</ele>
        <time>2019-07-05T07:00:27Z</time>
      </trkpt>
      <trkpt lat="40.3163750" lon="-1.0169720">
        <ele>1077.8</ele>
        <time>2019-07-05T07:00:29Z</time>
      </trkpt>
      <trkpt lat="40.3166370" lon="-1.0171530">
        <ele>1077.0</ele>
        <time>2019-07-05T07:00:32Z</time>
      </trkpt>
      <trkpt lat="40.3168040" lon="-1.0172750">
        <ele>1076.6</ele>
        <time>2019-07-05T07:00:34Z</time>
      </trkpt>
      <trkpt lat="40.3169650" lon="-1.0173870">
        <ele>1076.6</ele>
        <time>2019-07-05T07:00:36Z</time>
      </trkpt>
      <trkpt lat="40.3173340" lon="-1.0176760">
        <ele>1076.6</ele>
        <time>2019-07-05T07:00:41Z</time>
      </trkpt>
      <trkpt lat="40.3174720" lon="-1.0177880">
        <ele>1075.6</ele>
        <time>2019-07-05T07:00:43Z</time>
      </trkpt>
      <trkpt lat="40.3176660" lon="-1.0179470">
        <ele>1075.4</ele>
        <time>2019-07-05T07:00:46Z</time>
      </trkpt>
      <trkpt lat="40.3178420" lon="-1.0180980">
        <ele>1075.4</ele>
        <time>2019-07-05T07:00:49Z</time>
      </trkpt>
      <trkpt lat="40.3181440" lon="-1.0183960">
        <ele>1075.2</ele>
        <time>2019-07-05T07:00:55Z</time>
      </trkpt>
      <trkpt lat="40.3182380" lon="-1.0184980">
        <ele>1075.2</ele>
        <time>2019-07-05T07:00:57Z</time>
      </trkpt>
      <trkpt lat="40.3184270" lon="-1.0186910">
        <ele>1075.4</ele>
        <time>2019-07-05T07:01:01Z</time>
      </trkpt>
      <trkpt lat="40.3185180" lon="-1.0187900">
        <ele>1075.2</ele>
        <time>2019-07-05T07:01:03Z</time>
      </trkpt>
      <trkpt lat="40.3186530" lon="-1.0189470">
        <ele>1075.2</ele>
        <time>2019-07-05T07:01:06Z</time>
      </trkpt>
      <trkpt lat="40.3189300" lon="-1.0192300">
        <ele>1075.0</ele>
        <time>2019-07-05T07:01:12Z</time>
      </trkpt>
      <trkpt lat="40.3189830" lon="-1.0192580">
        <ele>1075.0</ele>
        <time>2019-07-05T07:01:13Z</time>
      </trkpt>
      <trkpt lat="40.3192090" lon="-1.0193490">
        <ele>1075.0</ele>
        <time>2019-07-05T07:01:17Z</time>
      </trkpt>
      <trkpt lat="40.3192660" lon="-1.0193740">
        <ele>1075.0</ele>
        <time>2019-07-05T07:01:18Z</time>
      </trkpt>
      <trkpt lat="40.3193240" lon="-1.0194030">
        <ele>1074.8</ele>
        <time>2019-07-05T07:01:19Z</time>
      </trkpt>
      <trkpt lat="40.3194740" lon="-1.0195420">
        <ele>1074.8</ele>
        <time>2019-07-05T07:01:22Z</time>
      </trkpt>
      <trkpt lat="40.3196290" lon="-1.0197820">
        <ele>1075.0</ele>
        <time>2019-07-05T07:01:26Z</time>
      </trkpt>
      <trkpt lat="40.3196610" lon="-1.0198460">
        <ele>1075.0</ele>
        <time>2019-07-05T07:01:27Z</time>
      </trkpt>
      <trkpt lat="40.3197580" lon="-1.0200320">
        <ele>1075.0</ele>
        <time>2019-07-05T07:01:30Z</time>
      </trkpt>
      <trkpt lat="40.3198910" lon="-1.0202750">
        <ele>1075.0</ele>
        <time>2019-07-05T07:01:34Z</time>
      </trkpt>
      <trkpt lat="40.3200020" lon="-1.0204470">
        <ele>1075.4</ele>
        <time>2019-07-05T07:01:37Z</time>
      </trkpt>
      <trkpt lat="40.3201220" lon="-1.0206080">
        <ele>1075.8</ele>
        <time>2019-07-05T07:01:40Z</time>
      </trkpt>
      <trkpt lat="40.3203620" lon="-1.0209420">
        <ele>1075.8</ele>
        <time>2019-07-05T07:01:46Z</time>
      </trkpt>
      <trkpt lat="40.3207050" lon="-1.0214950">
        <ele>1075.6</ele>
        <time>2019-07-05T07:01:55Z</time>
      </trkpt>
      <trkpt lat="40.3210020" lon="-1.0221550">
        <ele>1074.8</ele>
        <time>2019-07-05T07:02:04Z</time>
      </trkpt>
      <trkpt lat="40.3211950" lon="-1.0226290">
        <ele>1073.6</ele>
        <time>2019-07-05T07:02:10Z</time>
      </trkpt>
      <trkpt lat="40.3213000" lon="-1.0228820">
        <ele>1072.8</ele>
        <time>2019-07-05T07:02:13Z</time>
      </trkpt>
      <trkpt lat="40.3213350" lon="-1.0229690">
        <ele>1072.6</ele>
        <time>2019-07-05T07:02:14Z</time>
      </trkpt>
      <trkpt lat="40.3214410" lon="-1.0232320">
        <ele>1072.2</ele>
        <time>2019-07-05T07:02:17Z</time>
      </trkpt>
      <trkpt lat="40.3215850" lon="-1.0235920">
        <ele>1071.6</ele>
        <time>2019-07-05T07:02:21Z</time>
      </trkpt>
      <trkpt lat="40.3216940" lon="-1.0238660">
        <ele>1071.0</ele>
        <time>2019-07-05T07:02:24Z</time>
      </trkpt>
      <trkpt lat="40.3217670" lon="-1.0240470">
        <ele>1070.4</ele>
        <time>2019-07-05T07:02:26Z</time>
      </trkpt>
      <trkpt lat="40.3219440" lon="-1.0244900">
        <ele>1069.4</ele>
        <time>2019-07-05T07:02:31Z</time>
      </trkpt>
      <trkpt lat="40.3220810" lon="-1.0248340">
        <ele>1068.8</ele>
        <time>2019-07-05T07:02:35Z</time>
      </trkpt>
      <trkpt lat="40.3222130" lon="-1.0251740">
        <ele>1068.2</ele>
        <time>2019-07-05T07:02:39Z</time>
      </trkpt>
      <trkpt lat="40.3224190" lon="-1.0256820">
        <ele>1067.4</ele>
        <time>2019-07-05T07:02:45Z</time>
      </trkpt>
      <trkpt lat="40.3224540" lon="-1.0257680">
        <ele>1067.2</ele>
        <time>2019-07-05T07:02:46Z</time>
      </trkpt>
      <trkpt lat="40.3227380" lon="-1.0264770">
        <ele>1066.2</ele>
        <time>2019-07-05T07:02:54Z</time>
      </trkpt>
      <trkpt lat="40.3227750" lon="-1.0265670">
        <ele>1066.0</ele>
        <time>2019-07-05T07:02:55Z</time>
      </trkpt>
      <trkpt lat="40.3229160" lon="-1.0269220">
        <ele>1065.4</ele>
        <time>2019-07-05T07:02:59Z</time>
      </trkpt>
      <trkpt lat="40.3229870" lon="-1.0270970">
        <ele>1065.2</ele>
        <time>2019-07-05T07:03:01Z</time>
      </trkpt>
      <trkpt lat="40.3230540" lon="-1.0272700">
        <ele>1065.0</ele>
        <time>2019-07-05T07:03:03Z</time>
      </trkpt>
      <trkpt lat="40.3233210" lon="-1.0279330">
        <ele>1064.0</ele>
        <time>2019-07-05T07:03:11Z</time>
      </trkpt>
      <trkpt lat="40.3233860" lon="-1.0280940">
        <ele>1063.8</ele>
        <time>2019-07-05T07:03:13Z</time>
      </trkpt>
      <trkpt lat="40.3236410" lon="-1.0287310">
        <ele>1063.2</ele>
        <time>2019-07-05T07:03:21Z</time>
      </trkpt>
      <trkpt lat="40.3236720" lon="-1.0288090">
        <ele>1063.2</ele>
        <time>2019-07-05T07:03:22Z</time>
      </trkpt>
      <trkpt lat="40.3238210" lon="-1.0291940">
        <ele>1063.0</ele>
        <time>2019-07-05T07:03:27Z</time>
      </trkpt>
      <trkpt lat="40.3239420" lon="-1.0294910">
        <ele>1062.8</ele>
        <time>2019-07-05T07:03:31Z</time>
      </trkpt>
      <trkpt lat="40.3241250" lon="-1.0299390">
        <ele>1062.4</ele>
        <time>2019-07-05T07:03:37Z</time>
      </trkpt>
      <trkpt lat="40.3242450" lon="-1.0302510">
        <ele>1062.8</ele>
        <time>2019-07-05T07:03:41Z</time>
      </trkpt>
      <trkpt lat="40.3243730" lon="-1.0305740">
        <ele>1062.2</ele>
        <time>2019-07-05T07:03:45Z</time>
      </trkpt>
      <trkpt lat="40.3245060" lon="-1.0309080">
        <ele>1061.2</ele>
        <time>2019-07-05T07:03:49Z</time>
      </trkpt>
      <trkpt lat="40.3245400" lon="-1.0309940">
        <ele>1060.8</ele>
        <time>2019-07-05T07:03:50Z</time>
      </trkpt>
      <trkpt lat="40.3246800" lon="-1.0313490">
        <ele>1059.8</ele>
        <time>2019-07-05T07:03:54Z</time>
      </trkpt>
      <trkpt lat="40.3248260" lon="-1.0317220">
        <ele>1058.8</ele>
        <time>2019-07-05T07:03:58Z</time>
      </trkpt>
      <trkpt lat="40.3248630" lon="-1.0318170">
        <ele>1058.6</ele>
        <time>2019-07-05T07:03:59Z</time>
      </trkpt>
      <trkpt lat="40.3249380" lon="-1.0320100">
        <ele>1058.0</ele>
        <time>2019-07-05T07:04:01Z</time>
      </trkpt>
      <trkpt lat="40.3250130" lon="-1.0322010">
        <ele>1057.6</ele>
        <time>2019-07-05T07:04:03Z</time>
      </trkpt>
      <trkpt lat="40.3250510" lon="-1.0322970">
        <ele>1057.4</ele>
        <time>2019-07-05T07:04:04Z</time>
      </trkpt>
      <trkpt lat="40.3251650" lon="-1.0325870">
        <ele>1056.4</ele>
        <time>2019-07-05T07:04:07Z</time>
      </trkpt>
      <trkpt lat="40.3253130" lon="-1.0329810">
        <ele>1055.2</ele>
        <time>2019-07-05T07:04:11Z</time>
      </trkpt>
      <trkpt lat="40.3254240" lon="-1.0332820">
        <ele>1054.2</ele>
        <time>2019-07-05T07:04:14Z</time>
      </trkpt>
      <trkpt lat="40.3255640" lon="-1.0336880">
        <ele>1053.0</ele>
        <time>2019-07-05T07:04:18Z</time>
      </trkpt>
      <trkpt lat="40.3256930" lon="-1.0341020">
        <ele>1051.6</ele>
        <time>2019-07-05T07:04:22Z</time>
      </trkpt>
      <trkpt lat="40.3258070" lon="-1.0345140">
        <ele>1050.4</ele>
        <time>2019-07-05T07:04:26Z</time>
      </trkpt>
      <trkpt lat="40.3259070" lon="-1.0349260">
        <ele>1049.0</ele>
        <time>2019-07-05T07:04:30Z</time>
      </trkpt>
      <trkpt lat="40.3259300" lon="-1.0350290">
        <ele>1048.6</ele>
        <time>2019-07-05T07:04:31Z</time>
      </trkpt>
      <trkpt lat="40.3259930" lon="-1.0353390">
        <ele>1047.8</ele>
        <time>2019-07-05T07:04:34Z</time>
      </trkpt>
      <trkpt lat="40.3260630" lon="-1.0357520">
        <ele>1046.6</ele>
        <time>2019-07-05T07:04:38Z</time>
      </trkpt>
      <trkpt lat="40.3260980" lon="-1.0359580">
        <ele>1046.2</ele>
        <time>2019-07-05T07:04:40Z</time>
      </trkpt>
      <trkpt lat="40.3261280" lon="-1.0361640">
        <ele>1045.6</ele>
        <time>2019-07-05T07:04:42Z</time>
      </trkpt>
      <trkpt lat="40.3261920" lon="-1.0365810">
        <ele>1044.4</ele>
        <time>2019-07-05T07:04:46Z</time>
      </trkpt>
      <trkpt lat="40.3262210" lon="-1.0367950">
        <ele>1044.0</ele>
        <time>2019-07-05T07:04:48Z</time>
      </trkpt>
      <trkpt lat="40.3262500" lon="-1.0370130">
        <ele>1043.4</ele>
        <time>2019-07-05T07:04:50Z</time>
      </trkpt>
      <trkpt lat="40.3262790" lon="-1.0373440">
        <ele>1042.2</ele>
        <time>2019-07-05T07:04:53Z</time>
      </trkpt>
      <trkpt lat="40.3263230" lon="-1.0377770">
        <ele>1041.4</ele>
        <time>2019-07-05T07:04:57Z</time>
      </trkpt>
      <trkpt lat="40.3263330" lon="-1.0378840">
        <ele>1041.2</ele>
        <time>2019-07-05T07:04:58Z</time>
      </trkpt>
      <trkpt lat="40.3263780" lon="-1.0383120">
        <ele>1039.8</ele>
        <time>2019-07-05T07:05:02Z</time>
      </trkpt>
      <trkpt lat="40.3264170" lon="-1.0386370">
        <ele>1038.6</ele>
        <time>2019-07-05T07:05:05Z</time>
      </trkpt>
      <trkpt lat="40.3264300" lon="-1.0387480">
        <ele>1038.2</ele>
        <time>2019-07-05T07:05:06Z</time>
      </trkpt>
      <trkpt lat="40.3264680" lon="-1.0390900">
        <ele>1037.2</ele>
        <time>2019-07-05T07:05:09Z</time>
      </trkpt>
      <trkpt lat="40.3264930" lon="-1.0393280">
        <ele>1036.0</ele>
        <time>2019-07-05T07:05:11Z</time>
      </trkpt>
      <trkpt lat="40.3265190" lon="-1.0395720">
        <ele>1034.6</ele>
        <time>2019-07-05T07:05:13Z</time>
      </trkpt>
      <trkpt lat="40.3265320" lon="-1.0396970">
        <ele>1034.2</ele>
        <time>2019-07-05T07:05:14Z</time>
      </trkpt>
      <trkpt lat="40.3265610" lon="-1.0399520">
        <ele>1033.4</ele>
        <time>2019-07-05T07:05:16Z</time>
      </trkpt>
      <trkpt lat="40.3265920" lon="-1.0402120">
        <ele>1032.2</ele>
        <time>2019-07-05T07:05:18Z</time>
      </trkpt>
      <trkpt lat="40.3266370" lon="-1.0406020">
        <ele>1031.0</ele>
        <time>2019-07-05T07:05:21Z</time>
      </trkpt>
      <trkpt lat="40.3266480" lon="-1.0407310">
        <ele>1030.6</ele>
        <time>2019-07-05T07:05:22Z</time>
      </trkpt>
      <trkpt lat="40.3266580" lon="-1.0408600">
        <ele>1030.0</ele>
        <time>2019-07-05T07:05:23Z</time>
      </trkpt>
      <trkpt lat="40.3266810" lon="-1.0412440">
        <ele>1028.6</ele>
        <time>2019-07-05T07:05:26Z</time>
      </trkpt>
      <trkpt lat="40.3266930" lon="-1.0414970">
        <ele>1028.0</ele>
        <time>2019-07-05T07:05:28Z</time>
      </trkpt>
      <trkpt lat="40.3267000" lon="-1.0417450">
        <ele>1027.4</ele>
        <time>2019-07-05T07:05:30Z</time>
      </trkpt>
      <trkpt lat="40.3266850" lon="-1.0422270">
        <ele>1026.0</ele>
        <time>2019-07-05T07:05:34Z</time>
      </trkpt>
      <trkpt lat="40.3266710" lon="-1.0424570">
        <ele>1025.4</ele>
        <time>2019-07-05T07:05:36Z</time>
      </trkpt>
      <trkpt lat="40.3266480" lon="-1.0427930">
        <ele>1025.0</ele>
        <time>2019-07-05T07:05:39Z</time>
      </trkpt>
      <trkpt lat="40.3266160" lon="-1.0432240">
        <ele>1023.8</ele>
        <time>2019-07-05T07:05:43Z</time>
      </trkpt>
      <trkpt lat="40.3266100" lon="-1.0433300">
        <ele>1023.8</ele>
        <time>2019-07-05T07:05:44Z</time>
      </trkpt>
      <trkpt lat="40.3265950" lon="-1.0435350">
        <ele>1023.4</ele>
        <time>2019-07-05T07:05:46Z</time>
      </trkpt>
      <trkpt lat="40.3265850" lon="-1.0436370">
        <ele>1023.2</ele>
        <time>2019-07-05T07:05:47Z</time>
      </trkpt>
      <trkpt lat="40.3265700" lon="-1.0438400">
        <ele>1023.0</ele>
        <time>2019-07-05T07:05:49Z</time>
      </trkpt>
      <trkpt lat="40.3265640" lon="-1.0439410">
        <ele>1022.8</ele>
        <time>2019-07-05T07:05:50Z</time>
      </trkpt>
      <trkpt lat="40.3265520" lon="-1.0441390">
        <ele>1022.4</ele>
        <time>2019-07-05T07:05:52Z</time>
      </trkpt>
      <trkpt lat="40.3265320" lon="-1.0444320">
        <ele>1022.2</ele>
        <time>2019-07-05T07:05:55Z</time>
      </trkpt>
      <trkpt lat="40.3265050" lon="-1.0448210">
        <ele>1021.6</ele>
        <time>2019-07-05T07:05:59Z</time>
      </trkpt>
      <trkpt lat="40.3264910" lon="-1.0450180">
        <ele>1021.0</ele>
        <time>2019-07-05T07:06:01Z</time>
      </trkpt>
      <trkpt lat="40.3264680" lon="-1.0453180">
        <ele>1020.4</ele>
        <time>2019-07-05T07:06:04Z</time>
      </trkpt>
      <trkpt lat="40.3264470" lon="-1.0456240">
        <ele>1019.8</ele>
        <time>2019-07-05T07:06:07Z</time>
      </trkpt>
      <trkpt lat="40.3264300" lon="-1.0458350">
        <ele>1019.6</ele>
        <time>2019-07-05T07:06:09Z</time>
      </trkpt>
      <trkpt lat="40.3264140" lon="-1.0460480">
        <ele>1018.8</ele>
        <time>2019-07-05T07:06:11Z</time>
      </trkpt>
      <trkpt lat="40.3264080" lon="-1.0461560">
        <ele>1018.2</ele>
        <time>2019-07-05T07:06:12Z</time>
      </trkpt>
      <trkpt lat="40.3263820" lon="-1.0466030">
        <ele>1017.0</ele>
        <time>2019-07-05T07:06:16Z</time>
      </trkpt>
      <trkpt lat="40.3263640" lon="-1.0469420">
        <ele>1016.0</ele>
        <time>2019-07-05T07:06:19Z</time>
      </trkpt>
      <trkpt lat="40.3263560" lon="-1.0470550">
        <ele>1015.6</ele>
        <time>2019-07-05T07:06:20Z</time>
      </trkpt>
      <trkpt lat="40.3263390" lon="-1.0472830">
        <ele>1014.8</ele>
        <time>2019-07-05T07:06:22Z</time>
      </trkpt>
      <trkpt lat="40.3263310" lon="-1.0473980">
        <ele>1014.2</ele>
        <time>2019-07-05T07:06:23Z</time>
      </trkpt>
      <trkpt lat="40.3263100" lon="-1.0477460">
        <ele>1013.0</ele>
        <time>2019-07-05T07:06:26Z</time>
      </trkpt>
      <trkpt lat="40.3262810" lon="-1.0482070">
        <ele>1012.0</ele>
        <time>2019-07-05T07:06:30Z</time>
      </trkpt>
      <trkpt lat="40.3262640" lon="-1.0484370">
        <ele>1010.8</ele>
        <time>2019-07-05T07:06:32Z</time>
      </trkpt>
      <trkpt lat="40.3262260" lon="-1.0488950">
        <ele>1009.6</ele>
        <time>2019-07-05T07:06:36Z</time>
      </trkpt>
      <trkpt lat="40.3262050" lon="-1.0492310">
        <ele>1008.8</ele>
        <time>2019-07-05T07:06:39Z</time>
      </trkpt>
      <trkpt lat="40.3261990" lon="-1.0493410">
        <ele>1008.6</ele>
        <time>2019-07-05T07:06:40Z</time>
      </trkpt>
      <trkpt lat="40.3261680" lon="-1.0497710">
        <ele>1007.6</ele>
        <time>2019-07-05T07:06:44Z</time>
      </trkpt>
      <trkpt lat="40.3261420" lon="-1.0501880">
        <ele>1006.8</ele>
        <time>2019-07-05T07:06:48Z</time>
      </trkpt>
      <trkpt lat="40.3261280" lon="-1.0503880">
        <ele>1006.4</ele>
        <time>2019-07-05T07:06:50Z</time>
      </trkpt>
      <trkpt lat="40.3261190" lon="-1.0505830">
        <ele>1006.2</ele>
        <time>2019-07-05T07:06:52Z</time>
      </trkpt>
      <trkpt lat="40.3261020" lon="-1.0509560">
        <ele>1005.6</ele>
        <time>2019-07-05T07:06:56Z</time>
      </trkpt>
      <trkpt lat="40.3260850" lon="-1.0511360">
        <ele>1005.6</ele>
        <time>2019-07-05T07:06:58Z</time>
      </trkpt>
      <trkpt lat="40.3260660" lon="-1.0513120">
        <ele>1005.2</ele>
        <time>2019-07-05T07:07:00Z</time>
      </trkpt>
      <trkpt lat="40.3260530" lon="-1.0514920">
        <ele>1005.0</ele>
        <time>2019-07-05T07:07:02Z</time>
      </trkpt>
      <trkpt lat="40.3260180" lon="-1.0520680">
        <ele>1004.2</ele>
        <time>2019-07-05T07:07:08Z</time>
      </trkpt>
      <trkpt lat="40.3260110" lon="-1.0521680">
        <ele>1003.8</ele>
        <time>2019-07-05T07:07:09Z</time>
      </trkpt>
      <trkpt lat="40.3259880" lon="-1.0524710">
        <ele>1003.0</ele>
        <time>2019-07-05T07:07:12Z</time>
      </trkpt>
      <trkpt lat="40.3259580" lon="-1.0528770">
        <ele>1001.8</ele>
        <time>2019-07-05T07:07:16Z</time>
      </trkpt>
      <trkpt lat="40.3259420" lon="-1.0531720">
        <ele>1000.8</ele>
        <time>2019-07-05T07:07:19Z</time>
      </trkpt>
      <trkpt lat="40.3259370" lon="-1.0532680">
        <ele>1000.6</ele>
        <time>2019-07-05T07:07:20Z</time>
      </trkpt>
      <trkpt lat="40.3259130" lon="-1.0536430">
        <ele>999.6</ele>
        <time>2019-07-05T07:07:24Z</time>
      </trkpt>
      <trkpt lat="40.3259070" lon="-1.0537350">
        <ele>999.4</ele>
        <time>2019-07-05T07:07:25Z</time>
      </trkpt>
      <trkpt lat="40.3258920" lon="-1.0540130">
        <ele>998.8</ele>
        <time>2019-07-05T07:07:28Z</time>
      </trkpt>
      <trkpt lat="40.3258570" lon="-1.0545470">
        <ele>998.4</ele>
        <time>2019-07-05T07:07:34Z</time>
      </trkpt>
      <trkpt lat="40.3258470" lon="-1.0547220">
        <ele>998.2</ele>
        <time>2019-07-05T07:07:36Z</time>
      </trkpt>
      <trkpt lat="40.3258180" lon="-1.0550800">
        <ele>997.6</ele>
        <time>2019-07-05T07:07:40Z</time>
      </trkpt>
      <trkpt lat="40.3258040" lon="-1.0553560">
        <ele>997.2</ele>
        <time>2019-07-05T07:07:43Z</time>
      </trkpt>
      <trkpt lat="40.3257870" lon="-1.0556460">
        <ele>996.6</ele>
        <time>2019-07-05T07:07:46Z</time>
      </trkpt>
      <trkpt lat="40.3257810" lon="-1.0557450">
        <ele>996.4</ele>
        <time>2019-07-05T07:07:47Z</time>
      </trkpt>
      <trkpt lat="40.3257730" lon="-1.0558460">
        <ele>996.2</ele>
        <time>2019-07-05T07:07:48Z</time>
      </trkpt>
      <trkpt lat="40.3257360" lon="-1.0563590">
        <ele>995.2</ele>
        <time>2019-07-05T07:07:53Z</time>
      </trkpt>
      <trkpt lat="40.3257070" lon="-1.0567710">
        <ele>994.2</ele>
        <time>2019-07-05T07:07:57Z</time>
      </trkpt>
      <trkpt lat="40.3257000" lon="-1.0568750">
        <ele>994.0</ele>
        <time>2019-07-05T07:07:58Z</time>
      </trkpt>
      <trkpt lat="40.3256650" lon="-1.0573940">
        <ele>993.0</ele>
        <time>2019-07-05T07:08:03Z</time>
      </trkpt>
      <trkpt lat="40.3256540" lon="-1.0576030">
        <ele>992.6</ele>
        <time>2019-07-05T07:08:05Z</time>
      </trkpt>
      <trkpt lat="40.3256110" lon="-1.0583180">
        <ele>991.8</ele>
        <time>2019-07-05T07:08:12Z</time>
      </trkpt>
      <trkpt lat="40.3255950" lon="-1.0586240">
        <ele>991.6</ele>
        <time>2019-07-05T07:08:15Z</time>
      </trkpt>
      <trkpt lat="40.3255740" lon="-1.0590380">
        <ele>991.0</ele>
        <time>2019-07-05T07:08:19Z</time>
      </trkpt>
      <trkpt lat="40.3255730" lon="-1.0594690">
        <ele>990.2</ele>
        <time>2019-07-05T07:08:23Z</time>
      </trkpt>
      <trkpt lat="40.3255790" lon="-1.0595790">
        <ele>990.0</ele>
        <time>2019-07-05T07:08:24Z</time>
      </trkpt>
      <trkpt lat="40.3256510" lon="-1.0601350">
        <ele>988.6</ele>
        <time>2019-07-05T07:08:29Z</time>
      </trkpt>
      <trkpt lat="40.3256910" lon="-1.0603660">
        <ele>987.4</ele>
        <time>2019-07-05T07:08:31Z</time>
      </trkpt>
      <trkpt lat="40.3257450" lon="-1.0606040">
        <ele>986.6</ele>
        <time>2019-07-05T07:08:33Z</time>
      </trkpt>
      <trkpt lat="40.3257790" lon="-1.0607270">
        <ele>986.0</ele>
        <time>2019-07-05T07:08:34Z</time>
      </trkpt>
      <trkpt lat="40.3258160" lon="-1.0608520">
        <ele>985.2</ele>
        <time>2019-07-05T07:08:35Z</time>
      </trkpt>
      <trkpt lat="40.3258530" lon="-1.0609800">
        <ele>984.4</ele>
        <time>2019-07-05T07:08:36Z</time>
      </trkpt>
      <trkpt lat="40.3259300" lon="-1.0612440">
        <ele>983.2</ele>
        <time>2019-07-05T07:08:38Z</time>
      </trkpt>
      <trkpt lat="40.3260110" lon="-1.0615150">
        <ele>981.6</ele>
        <time>2019-07-05T07:08:40Z</time>
      </trkpt>
      <trkpt lat="40.3260960" lon="-1.0617870">
        <ele>980.4</ele>
        <time>2019-07-05T07:08:42Z</time>
      </trkpt>
      <trkpt lat="40.3261380" lon="-1.0619270">
        <ele>979.6</ele>
        <time>2019-07-05T07:08:43Z</time>
      </trkpt>
      <trkpt lat="40.3261770" lon="-1.0620690">
        <ele>978.8</ele>
        <time>2019-07-05T07:08:44Z</time>
      </trkpt>
      <trkpt lat="40.3262620" lon="-1.0623570">
        <ele>977.4</ele>
        <time>2019-07-05T07:08:46Z</time>
      </trkpt>
      <trkpt lat="40.3263510" lon="-1.0626520">
        <ele>975.8</ele>
        <time>2019-07-05T07:08:48Z</time>
      </trkpt>
      <trkpt lat="40.3264410" lon="-1.0629550">
        <ele>974.2</ele>
        <time>2019-07-05T07:08:50Z</time>
      </trkpt>
      <trkpt lat="40.3264860" lon="-1.0631090">
        <ele>973.0</ele>
        <time>2019-07-05T07:08:51Z</time>
      </trkpt>
      <trkpt lat="40.3265320" lon="-1.0632660">
        <ele>972.0</ele>
        <time>2019-07-05T07:08:52Z</time>
      </trkpt>
      <trkpt lat="40.3266260" lon="-1.0635850">
        <ele>970.0</ele>
        <time>2019-07-05T07:08:54Z</time>
      </trkpt>
      <trkpt lat="40.3266750" lon="-1.0637460">
        <ele>969.0</ele>
        <time>2019-07-05T07:08:55Z</time>
      </trkpt>
      <trkpt lat="40.3267230" lon="-1.0639090">
        <ele>967.8</ele>
        <time>2019-07-05T07:08:56Z</time>
      </trkpt>
      <trkpt lat="40.3268160" lon="-1.0642410">
        <ele>966.6</ele>
        <time>2019-07-05T07:08:58Z</time>
      </trkpt>
      <trkpt lat="40.3269140" lon="-1.0645740">
        <ele>964.8</ele>
        <time>2019-07-05T07:09:00Z</time>
      </trkpt>
      <trkpt lat="40.3270180" lon="-1.0649100">
        <ele>963.2</ele>
        <time>2019-07-05T07:09:02Z</time>
      </trkpt>
      <trkpt lat="40.3270700" lon="-1.0650800">
        <ele>962.0</ele>
        <time>2019-07-05T07:09:03Z</time>
      </trkpt>
      <trkpt lat="40.3271690" lon="-1.0654170">
        <ele>960.4</ele>
        <time>2019-07-05T07:09:05Z</time>
      </trkpt>
      <trkpt lat="40.3272640" lon="-1.0657370">
        <ele>959.6</ele>
        <time>2019-07-05T07:09:07Z</time>
      </trkpt>
      <trkpt lat="40.3273520" lon="-1.0660360">
        <ele>959.2</ele>
        <time>2019-07-05T07:09:09Z</time>
      </trkpt>
      <trkpt lat="40.3275070" lon="-1.0665500">
        <ele>959.4</ele>
        <time>2019-07-05T07:09:13Z</time>
      </trkpt>
      <trkpt lat="40.3275690" lon="-1.0667570">
        <ele>959.6</ele>
        <time>2019-07-05T07:09:15Z</time>
      </trkpt>
      <trkpt lat="40.3275970" lon="-1.0668500">
        <ele>960.0</ele>
        <time>2019-07-05T07:09:16Z</time>
      </trkpt>
      <trkpt lat="40.3276240" lon="-1.0669330">
        <ele>960.4</ele>
        <time>2019-07-05T07:09:17Z</time>
      </trkpt>
      <trkpt lat="40.3276480" lon="-1.0670100">
        <ele>960.8</ele>
        <time>2019-07-05T07:09:18Z</time>
      </trkpt>
      <trkpt lat="40.3276700" lon="-1.0670840">
        <ele>961.2</ele>
        <time>2019-07-05T07:09:19Z</time>
      </trkpt>
      <trkpt lat="40.3276900" lon="-1.0671530">
        <ele>961.6</ele>
        <time>2019-07-05T07:09:20Z</time>
      </trkpt>
      <trkpt lat="40.3277070" lon="-1.0672200">
        <ele>961.8</ele>
        <time>2019-07-05T07:09:21Z</time>
      </trkpt>
      <trkpt lat="40.3277230" lon="-1.0672830">
        <ele>962.0</ele>
        <time>2019-07-05T07:09:22Z</time>
      </trkpt>
      <trkpt lat="40.3277750" lon="-1.0674470">
        <ele>963.0</ele>
        <time>2019-07-05T07:09:25Z</time>
      </trkpt>
      <trkpt lat="40.3277920" lon="-1.0674980">
        <ele>963.2</ele>
        <time>2019-07-05T07:09:26Z</time>
      </trkpt>
      <trkpt lat="40.3278210" lon="-1.0675990">
        <ele>963.8</ele>
        <time>2019-07-05T07:09:28Z</time>
      </trkpt>
      <trkpt lat="40.3278530" lon="-1.0676930">
        <ele>964.2</ele>
        <time>2019-07-05T07:09:30Z</time>
      </trkpt>
      <trkpt lat="40.3278660" lon="-1.0677420">
        <ele>964.4</ele>
        <time>2019-07-05T07:09:31Z</time>
      </trkpt>
      <trkpt lat="40.3278800" lon="-1.0677910">
        <ele>964.6</ele>
        <time>2019-07-05T07:09:32Z</time>
      </trkpt>
      <trkpt lat="40.3279120" lon="-1.0678880">
        <ele>965.0</ele>
        <time>2019-07-05T07:09:34Z</time>
      </trkpt>
      <trkpt lat="40.3279430" lon="-1.0679900">
        <ele>965.6</ele>
        <time>2019-07-05T07:09:36Z</time>
      </trkpt>
      <trkpt lat="40.3279710" lon="-1.0680940">
        <ele>966.2</ele>
        <time>2019-07-05T07:09:38Z</time>
      </trkpt>
      <trkpt lat="40.3279970" lon="-1.0681970">
        <ele>966.6</ele>
        <time>2019-07-05T07:09:40Z</time>
      </trkpt>
      <trkpt lat="40.3280110" lon="-1.0682500">
        <ele>966.8</ele>
        <time>2019-07-05T07:09:41Z</time>
      </trkpt>
      <trkpt lat="40.3280410" lon="-1.0683540">
        <ele>967.2</ele>
        <time>2019-07-05T07:09:43Z</time>
      </trkpt>
      <trkpt lat="40.3280560" lon="-1.0684070">
        <ele>967.8</ele>
        <time>2019-07-05T07:09:44Z</time>
      </trkpt>
      <trkpt lat="40.3280720" lon="-1.0684610">
        <ele>968.0</ele>
        <time>2019-07-05T07:09:45Z</time>
      </trkpt>
      <trkpt lat="40.3281170" lon="-1.0686160">
        <ele>968.6</ele>
        <time>2019-07-05T07:09:48Z</time>
      </trkpt>
      <trkpt lat="40.3281500" lon="-1.0687150">
        <ele>969.2</ele>
        <time>2019-07-05T07:09:50Z</time>
      </trkpt>
      <trkpt lat="40.3281650" lon="-1.0687650">
        <ele>969.4</ele>
        <time>2019-07-05T07:09:51Z</time>
      </trkpt>
      <trkpt lat="40.3281970" lon="-1.0688670">
        <ele>969.6</ele>
        <time>2019-07-05T07:09:53Z</time>
      </trkpt>
      <trkpt lat="40.3282440" lon="-1.0690190">
        <ele>970.2</ele>
        <time>2019-07-05T07:09:56Z</time>
      </trkpt>
      <trkpt lat="40.3282580" lon="-1.0690690">
        <ele>970.4</ele>
        <time>2019-07-05T07:09:57Z</time>
      </trkpt>
      <trkpt lat="40.3283220" lon="-1.0692730">
        <ele>971.4</ele>
        <time>2019-07-05T07:10:01Z</time>
      </trkpt>
      <trkpt lat="40.3284470" lon="-1.0696930">
        <ele>972.2</ele>
        <time>2019-07-05T07:10:09Z</time>
      </trkpt>
      <trkpt lat="40.3284780" lon="-1.0698030">
        <ele>972.4</ele>
        <time>2019-07-05T07:10:11Z</time>
      </trkpt>
      <trkpt lat="40.3286080" lon="-1.0702620">
        <ele>973.0</ele>
        <time>2019-07-05T07:10:19Z</time>
      </trkpt>
      <trkpt lat="40.3287520" lon="-1.0707560">
        <ele>973.0</ele>
        <time>2019-07-05T07:10:27Z</time>
      </trkpt>
      <trkpt lat="40.3288080" lon="-1.0709440">
        <ele>973.0</ele>
        <time>2019-07-05T07:10:30Z</time>
      </trkpt>
      <trkpt lat="40.3289250" lon="-1.0713450">
        <ele>973.4</ele>
        <time>2019-07-05T07:10:36Z</time>
      </trkpt>
      <trkpt lat="40.3289940" lon="-1.0715560">
        <ele>973.4</ele>
        <time>2019-07-05T07:10:39Z</time>
      </trkpt>
      <trkpt lat="40.3290450" lon="-1.0716990">
        <ele>973.0</ele>
        <time>2019-07-05T07:10:41Z</time>
      </trkpt>
      <trkpt lat="40.3291570" lon="-1.0719890">
        <ele>972.6</ele>
        <time>2019-07-05T07:10:45Z</time>
      </trkpt>
      <trkpt lat="40.3292190" lon="-1.0721370">
        <ele>972.4</ele>
        <time>2019-07-05T07:10:47Z</time>
      </trkpt>
      <trkpt lat="40.3293190" lon="-1.0723570">
        <ele>971.8</ele>
        <time>2019-07-05T07:10:50Z</time>
      </trkpt>
      <trkpt lat="40.3293900" lon="-1.0725000">
        <ele>971.6</ele>
        <time>2019-07-05T07:10:52Z</time>
      </trkpt>
      <trkpt lat="40.3295010" lon="-1.0727180">
        <ele>971.0</ele>
        <time>2019-07-05T07:10:55Z</time>
      </trkpt>
      <trkpt lat="40.3295780" lon="-1.0728720">
        <ele>970.4</ele>
        <time>2019-07-05T07:10:57Z</time>
      </trkpt>
      <trkpt lat="40.3297020" lon="-1.0731050">
        <ele>970.2</ele>
        <time>2019-07-05T07:11:00Z</time>
      </trkpt>
      <trkpt lat="40.3298250" lon="-1.0733470">
        <ele>969.6</ele>
        <time>2019-07-05T07:11:03Z</time>
      </trkpt>
      <trkpt lat="40.3298680" lon="-1.0734300">
        <ele>969.4</ele>
        <time>2019-07-05T07:11:04Z</time>
      </trkpt>
      <trkpt lat="40.3300820" lon="-1.0738440">
        <ele>968.4</ele>
        <time>2019-07-05T07:11:09Z</time>
      </trkpt>
      <trkpt lat="40.3303810" lon="-1.0744230">
        <ele>967.6</ele>
        <time>2019-07-05T07:11:16Z</time>
      </trkpt>
      <trkpt lat="40.3304620" lon="-1.0745860">
        <ele>967.4</ele>
        <time>2019-07-05T07:11:18Z</time>
      </trkpt>
      <trkpt lat="40.3305810" lon="-1.0748310">
        <ele>966.8</ele>
        <time>2019-07-05T07:11:21Z</time>
      </trkpt>
      <trkpt lat="40.3307380" lon="-1.0751510">
        <ele>966.6</ele>
        <time>2019-07-05T07:11:25Z</time>
      </trkpt>
      <trkpt lat="40.3308160" lon="-1.0753100">
        <ele>966.4</ele>
        <time>2019-07-05T07:11:27Z</time>
      </trkpt>
      <trkpt lat="40.3308890" lon="-1.0754720">
        <ele>966.4</ele>
        <time>2019-07-05T07:11:29Z</time>
      </trkpt>
      <trkpt lat="40.3310860" lon="-1.0759670">
        <ele>965.8</ele>
        <time>2019-07-05T07:11:35Z</time>
      </trkpt>
      <trkpt lat="40.3312790" lon="-1.0765670">
        <ele>965.4</ele>
        <time>2019-07-05T07:11:42Z</time>
      </trkpt>
      <trkpt lat="40.3313030" lon="-1.0766550">
        <ele>965.2</ele>
        <time>2019-07-05T07:11:43Z</time>
      </trkpt>
      <trkpt lat="40.3314300" lon="-1.0771930">
        <ele>964.6</ele>
        <time>2019-07-05T07:11:49Z</time>
      </trkpt>
      <trkpt lat="40.3314650" lon="-1.0773760">
        <ele>964.2</ele>
        <time>2019-07-05T07:11:51Z</time>
      </trkpt>
      <trkpt lat="40.3315080" lon="-1.0776480">
        <ele>964.0</ele>
        <time>2019-07-05T07:11:54Z</time>
      </trkpt>
      <trkpt lat="40.3316160" lon="-1.0783720">
        <ele>963.2</ele>
        <time>2019-07-05T07:12:02Z</time>
      </trkpt>
      <trkpt lat="40.3316540" lon="-1.0786480">
        <ele>962.6</ele>
        <time>2019-07-05T07:12:05Z</time>
      </trkpt>
      <trkpt lat="40.3316910" lon="-1.0789250">
        <ele>962.2</ele>
        <time>2019-07-05T07:12:08Z</time>
      </trkpt>
      <trkpt lat="40.3317920" lon="-1.0796530">
        <ele>961.6</ele>
        <time>2019-07-05T07:12:16Z</time>
      </trkpt>
      <trkpt lat="40.3318030" lon="-1.0797460">
        <ele>961.6</ele>
        <time>2019-07-05T07:12:17Z</time>
      </trkpt>
      <trkpt lat="40.3318390" lon="-1.0800240">
        <ele>961.2</ele>
        <time>2019-07-05T07:12:20Z</time>
      </trkpt>
      <trkpt lat="40.3319090" lon="-1.0807570">
        <ele>960.4</ele>
        <time>2019-07-05T07:12:28Z</time>
      </trkpt>
      <trkpt lat="40.3319350" lon="-1.0811250">
        <ele>960.0</ele>
        <time>2019-07-05T07:12:32Z</time>
      </trkpt>
      <trkpt lat="40.3319520" lon="-1.0816840">
        <ele>959.6</ele>
        <time>2019-07-05T07:12:38Z</time>
      </trkpt>
      <trkpt lat="40.3319520" lon="-1.0821540">
        <ele>958.8</ele>
        <time>2019-07-05T07:12:43Z</time>
      </trkpt>
      <trkpt lat="40.3319230" lon="-1.0825390">
        <ele>958.4</ele>
        <time>2019-07-05T07:12:47Z</time>
      </trkpt>
      <trkpt lat="40.3318910" lon="-1.0829290">
        <ele>957.8</ele>
        <time>2019-07-05T07:12:51Z</time>
      </trkpt>
      <trkpt lat="40.3318070" lon="-1.0836070">
        <ele>956.8</ele>
        <time>2019-07-05T07:12:58Z</time>
      </trkpt>
      <trkpt lat="40.3317020" lon="-1.0841940">
        <ele>956.0</ele>
        <time>2019-07-05T07:13:04Z</time>
      </trkpt>
      <trkpt lat="40.3316820" lon="-1.0842930">
        <ele>955.6</ele>
        <time>2019-07-05T07:13:05Z</time>
      </trkpt>
      <trkpt lat="40.3316130" lon="-1.0845880">
        <ele>955.0</ele>
        <time>2019-07-05T07:13:08Z</time>
      </trkpt>
      <trkpt lat="40.3315390" lon="-1.0848830">
        <ele>954.6</ele>
        <time>2019-07-05T07:13:11Z</time>
      </trkpt>
      <trkpt lat="40.3313750" lon="-1.0854680">
        <ele>953.4</ele>
        <time>2019-07-05T07:13:17Z</time>
      </trkpt>
      <trkpt lat="40.3313120" lon="-1.0856630">
        <ele>953.0</ele>
        <time>2019-07-05T07:13:19Z</time>
      </trkpt>
      <trkpt lat="40.3311730" lon="-1.0860470">
        <ele>952.2</ele>
        <time>2019-07-05T07:13:23Z</time>
      </trkpt>
      <trkpt lat="40.3310570" lon="-1.0863250">
        <ele>951.4</ele>
        <time>2019-07-05T07:13:26Z</time>
      </trkpt>
      <trkpt lat="40.3310170" lon="-1.0864160">
        <ele>951.2</ele>
        <time>2019-07-05T07:13:27Z</time>
      </trkpt>
      <trkpt lat="40.3309780" lon="-1.0865080">
        <ele>950.8</ele>
        <time>2019-07-05T07:13:28Z</time>
      </trkpt>
      <trkpt lat="40.3308540" lon="-1.0867820">
        <ele>950.0</ele>
        <time>2019-07-05T07:13:31Z</time>
      </trkpt>
      <trkpt lat="40.3307200" lon="-1.0870480">
        <ele>949.4</ele>
        <time>2019-07-05T07:13:34Z</time>
      </trkpt>
      <trkpt lat="40.3306300" lon="-1.0872230">
        <ele>948.8</ele>
        <time>2019-07-05T07:13:36Z</time>
      </trkpt>
      <trkpt lat="40.3304900" lon="-1.0874820">
        <ele>947.8</ele>
        <time>2019-07-05T07:13:39Z</time>
      </trkpt>
      <trkpt lat="40.3302240" lon="-1.0878980">
        <ele>946.6</ele>
        <time>2019-07-05T07:13:44Z</time>
      </trkpt>
      <trkpt lat="40.3299340" lon="-1.0883100">
        <ele>945.8</ele>
        <time>2019-07-05T07:13:49Z</time>
      </trkpt>
      <trkpt lat="40.3298740" lon="-1.0883920">
        <ele>945.4</ele>
        <time>2019-07-05T07:13:50Z</time>
      </trkpt>
      <trkpt lat="40.3296900" lon="-1.0886330">
        <ele>944.6</ele>
        <time>2019-07-05T07:13:53Z</time>
      </trkpt>
      <trkpt lat="40.3296250" lon="-1.0887110">
        <ele>944.4</ele>
        <time>2019-07-05T07:13:54Z</time>
      </trkpt>
      <trkpt lat="40.3294250" lon="-1.0889400">
        <ele>943.8</ele>
        <time>2019-07-05T07:13:57Z</time>
      </trkpt>
      <trkpt lat="40.3292870" lon="-1.0890870">
        <ele>943.4</ele>
        <time>2019-07-05T07:13:59Z</time>
      </trkpt>
      <trkpt lat="40.3290800" lon="-1.0892990">
        <ele>942.4</ele>
        <time>2019-07-05T07:14:02Z</time>
      </trkpt>
      <trkpt lat="40.3290100" lon="-1.0893670">
        <ele>942.0</ele>
        <time>2019-07-05T07:14:03Z</time>
      </trkpt>
      <trkpt lat="40.3286570" lon="-1.0896990">
        <ele>940.8</ele>
        <time>2019-07-05T07:14:08Z</time>
      </trkpt>
      <trkpt lat="40.3283780" lon="-1.0899560">
        <ele>939.8</ele>
        <time>2019-07-05T07:14:12Z</time>
      </trkpt>
      <trkpt lat="40.3283080" lon="-1.0900190">
        <ele>939.6</ele>
        <time>2019-07-05T07:14:13Z</time>
      </trkpt>
      <trkpt lat="40.3281020" lon="-1.0902050">
        <ele>938.6</ele>
        <time>2019-07-05T07:14:16Z</time>
      </trkpt>
      <trkpt lat="40.3280340" lon="-1.0902690">
        <ele>938.4</ele>
        <time>2019-07-05T07:14:17Z</time>
      </trkpt>
      <trkpt lat="40.3278280" lon="-1.0904480">
        <ele>937.8</ele>
        <time>2019-07-05T07:14:20Z</time>
      </trkpt>
      <trkpt lat="40.3276300" lon="-1.0906220">
        <ele>937.2</ele>
        <time>2019-07-05T07:14:23Z</time>
      </trkpt>
      <trkpt lat="40.3273150" lon="-1.0909200">
        <ele>936.4</ele>
        <time>2019-07-05T07:14:28Z</time>
      </trkpt>
      <trkpt lat="40.3272540" lon="-1.0909810">
        <ele>936.0</ele>
        <time>2019-07-05T07:14:29Z</time>
      </trkpt>
      <trkpt lat="40.3267980" lon="-1.0914820">
        <ele>935.2</ele>
        <time>2019-07-05T07:14:37Z</time>
      </trkpt>
      <trkpt lat="40.3267460" lon="-1.0915480">
        <ele>935.0</ele>
        <time>2019-07-05T07:14:38Z</time>
      </trkpt>
      <trkpt lat="40.3266390" lon="-1.0916760">
        <ele>934.4</ele>
        <time>2019-07-05T07:14:40Z</time>
      </trkpt>
      <trkpt lat="40.3265350" lon="-1.0918030">
        <ele>934.2</ele>
        <time>2019-07-05T07:14:42Z</time>
      </trkpt>
      <trkpt lat="40.3264830" lon="-1.0918670">
        <ele>934.0</ele>
        <time>2019-07-05T07:14:43Z</time>
      </trkpt>
      <trkpt lat="40.3262840" lon="-1.0921230">
        <ele>933.2</ele>
        <time>2019-07-05T07:14:47Z</time>
      </trkpt>
      <trkpt lat="40.3262370" lon="-1.0921910">
        <ele>933.0</ele>
        <time>2019-07-05T07:14:48Z</time>
      </trkpt>
      <trkpt lat="40.3260420" lon="-1.0924730">
        <ele>932.4</ele>
        <time>2019-07-05T07:14:52Z</time>
      </trkpt>
      <trkpt lat="40.3258970" lon="-1.0926950">
        <ele>932.0</ele>
        <time>2019-07-05T07:14:55Z</time>
      </trkpt>
      <trkpt lat="40.3258490" lon="-1.0927730">
        <ele>931.8</ele>
        <time>2019-07-05T07:14:56Z</time>
      </trkpt>
      <trkpt lat="40.3255660" lon="-1.0932420">
        <ele>930.8</ele>
        <time>2019-07-05T07:15:02Z</time>
      </trkpt>
      <trkpt lat="40.3255220" lon="-1.0933230">
        <ele>930.6</ele>
        <time>2019-07-05T07:15:03Z</time>
      </trkpt>
      <trkpt lat="40.3253870" lon="-1.0935700">
        <ele>930.0</ele>
        <time>2019-07-05T07:15:06Z</time>
      </trkpt>
      <trkpt lat="40.3253130" lon="-1.0937510">
        <ele>930.0</ele>
        <time>2019-07-05T07:15:08Z</time>
      </trkpt>
      <trkpt lat="40.3252410" lon="-1.0939390">
        <ele>929.6</ele>
        <time>2019-07-05T07:15:10Z</time>
      </trkpt>
      <trkpt lat="40.3251270" lon="-1.0942200">
        <ele>929.0</ele>
        <time>2019-07-05T07:15:13Z</time>
      </trkpt>
      <trkpt lat="40.3250600" lon="-1.0944140">
        <ele>928.8</ele>
        <time>2019-07-05T07:15:15Z</time>
      </trkpt>
      <trkpt lat="40.3250280" lon="-1.0945130">
        <ele>928.6</ele>
        <time>2019-07-05T07:15:16Z</time>
      </trkpt>
      <trkpt lat="40.3249320" lon="-1.0948120">
        <ele>927.4</ele>
        <time>2019-07-05T07:15:19Z</time>
      </trkpt>
      <trkpt lat="40.3248400" lon="-1.0952260">
        <ele>926.8</ele>
        <time>2019-07-05T07:15:23Z</time>
      </trkpt>
      <trkpt lat="40.3248210" lon="-1.0953330">
        <ele>926.4</ele>
        <time>2019-07-05T07:15:24Z</time>
      </trkpt>
      <trkpt lat="40.3247590" lon="-1.0956530">
        <ele>925.2</ele>
        <time>2019-07-05T07:15:27Z</time>
      </trkpt>
      <trkpt lat="40.3247110" lon="-1.0959810">
        <ele>924.0</ele>
        <time>2019-07-05T07:15:30Z</time>
      </trkpt>
      <trkpt lat="40.3246870" lon="-1.0962030">
        <ele>923.6</ele>
        <time>2019-07-05T07:15:32Z</time>
      </trkpt>
      <trkpt lat="40.3246710" lon="-1.0965420">
        <ele>922.8</ele>
        <time>2019-07-05T07:15:35Z</time>
      </trkpt>
      <trkpt lat="40.3246710" lon="-1.0968850">
        <ele>922.0</ele>
        <time>2019-07-05T07:15:38Z</time>
      </trkpt>
      <trkpt lat="40.3246740" lon="-1.0970010">
        <ele>921.6</ele>
        <time>2019-07-05T07:15:39Z</time>
      </trkpt>
      <trkpt lat="40.3247050" lon="-1.0974650">
        <ele>920.6</ele>
        <time>2019-07-05T07:15:43Z</time>
      </trkpt>
      <trkpt lat="40.3247290" lon="-1.0976990">
        <ele>919.6</ele>
        <time>2019-07-05T07:15:45Z</time>
      </trkpt>
      <trkpt lat="40.3247440" lon="-1.0978160">
        <ele>919.2</ele>
        <time>2019-07-05T07:15:46Z</time>
      </trkpt>
      <trkpt lat="40.3247990" lon="-1.0981660">
        <ele>918.2</ele>
        <time>2019-07-05T07:15:49Z</time>
      </trkpt>
      <trkpt lat="40.3248670" lon="-1.0985170">
        <ele>917.2</ele>
        <time>2019-07-05T07:15:52Z</time>
      </trkpt>
      <trkpt lat="40.3249250" lon="-1.0987460">
        <ele>916.8</ele>
        <time>2019-07-05T07:15:54Z</time>
      </trkpt>
      <trkpt lat="40.3250540" lon="-1.0991920">
        <ele>916.0</ele>
        <time>2019-07-05T07:15:58Z</time>
      </trkpt>
      <trkpt lat="40.3251640" lon="-1.0995100">
        <ele>915.0</ele>
        <time>2019-07-05T07:16:01Z</time>
      </trkpt>
      <trkpt lat="40.3252010" lon="-1.0996160">
        <ele>914.8</ele>
        <time>2019-07-05T07:16:02Z</time>
      </trkpt>
      <trkpt lat="40.3253330" lon="-1.1000350">
        <ele>914.6</ele>
        <time>2019-07-05T07:16:06Z</time>
      </trkpt>
      <trkpt lat="40.3253950" lon="-1.1002420">
        <ele>914.0</ele>
        <time>2019-07-05T07:16:08Z</time>
      </trkpt>
      <trkpt lat="40.3254240" lon="-1.1003440">
        <ele>913.8</ele>
        <time>2019-07-05T07:16:09Z</time>
      </trkpt>
      <trkpt lat="40.3255420" lon="-1.1008620">
        <ele>912.8</ele>
        <time>2019-07-05T07:16:14Z</time>
      </trkpt>
      <trkpt lat="40.3255640" lon="-1.1009680">
        <ele>912.8</ele>
        <time>2019-07-05T07:16:15Z</time>
      </trkpt>
      <trkpt lat="40.3256020" lon="-1.1011830">
        <ele>912.6</ele>
        <time>2019-07-05T07:16:17Z</time>
      </trkpt>
      <trkpt lat="40.3256200" lon="-1.1012920">
        <ele>912.4</ele>
        <time>2019-07-05T07:16:18Z</time>
      </trkpt>
      <trkpt lat="40.3256690" lon="-1.1016250">
        <ele>911.8</ele>
        <time>2019-07-05T07:16:21Z</time>
      </trkpt>
      <trkpt lat="40.3256820" lon="-1.1017350">
        <ele>911.4</ele>
        <time>2019-07-05T07:16:22Z</time>
      </trkpt>
      <trkpt lat="40.3257210" lon="-1.1021880">
        <ele>910.4</ele>
        <time>2019-07-05T07:16:26Z</time>
      </trkpt>
      <trkpt lat="40.3257310" lon="-1.1025300">
        <ele>909.6</ele>
        <time>2019-07-05T07:16:29Z</time>
      </trkpt>
      <trkpt lat="40.3257340" lon="-1.1026440">
        <ele>909.2</ele>
        <time>2019-07-05T07:16:30Z</time>
      </trkpt>
      <trkpt lat="40.3257330" lon="-1.1029880">
        <ele>908.2</ele>
        <time>2019-07-05T07:16:33Z</time>
      </trkpt>
      <trkpt lat="40.3257060" lon="-1.1034490">
        <ele>907.0</ele>
        <time>2019-07-05T07:16:37Z</time>
      </trkpt>
      <trkpt lat="40.3256700" lon="-1.1037980">
        <ele>905.8</ele>
        <time>2019-07-05T07:16:40Z</time>
      </trkpt>
      <trkpt lat="40.3256310" lon="-1.1041560">
        <ele>904.6</ele>
        <time>2019-07-05T07:16:43Z</time>
      </trkpt>
      <trkpt lat="40.3255990" lon="-1.1045270">
        <ele>903.4</ele>
        <time>2019-07-05T07:16:46Z</time>
      </trkpt>
      <trkpt lat="40.3255740" lon="-1.1047800">
        <ele>902.2</ele>
        <time>2019-07-05T07:16:48Z</time>
      </trkpt>
      <trkpt lat="40.3255640" lon="-1.1049080">
        <ele>901.8</ele>
        <time>2019-07-05T07:16:49Z</time>
      </trkpt>
      <trkpt lat="40.3255500" lon="-1.1051670">
        <ele>900.8</ele>
        <time>2019-07-05T07:16:51Z</time>
      </trkpt>
      <trkpt lat="40.3255490" lon="-1.1054330">
        <ele>899.6</ele>
        <time>2019-07-05T07:16:53Z</time>
      </trkpt>
      <trkpt lat="40.3255570" lon="-1.1057040">
        <ele>898.8</ele>
        <time>2019-07-05T07:16:55Z</time>
      </trkpt>
      <trkpt lat="40.3255660" lon="-1.1058410">
        <ele>898.4</ele>
        <time>2019-07-05T07:16:56Z</time>
      </trkpt>
      <trkpt lat="40.3255920" lon="-1.1061180">
        <ele>897.4</ele>
        <time>2019-07-05T07:16:58Z</time>
      </trkpt>
      <trkpt lat="40.3256380" lon="-1.1063940">
        <ele>896.0</ele>
        <time>2019-07-05T07:17:00Z</time>
      </trkpt>
      <trkpt lat="40.3256660" lon="-1.1065320">
        <ele>895.6</ele>
        <time>2019-07-05T07:17:01Z</time>
      </trkpt>
      <trkpt lat="40.3256980" lon="-1.1066690">
        <ele>895.0</ele>
        <time>2019-07-05T07:17:02Z</time>
      </trkpt>
      <trkpt lat="40.3257330" lon="-1.1068050">
        <ele>894.2</ele>
        <time>2019-07-05T07:17:03Z</time>
      </trkpt>
      <trkpt lat="40.3258160" lon="-1.1070750">
        <ele>892.8</ele>
        <time>2019-07-05T07:17:05Z</time>
      </trkpt>
      <trkpt lat="40.3258620" lon="-1.1072070">
        <ele>892.4</ele>
        <time>2019-07-05T07:17:06Z</time>
      </trkpt>
      <trkpt lat="40.3259690" lon="-1.1074680">
        <ele>891.2</ele>
        <time>2019-07-05T07:17:08Z</time>
      </trkpt>
      <trkpt lat="40.3260870" lon="-1.1077200">
        <ele>890.0</ele>
        <time>2019-07-05T07:17:10Z</time>
      </trkpt>
      <trkpt lat="40.3261480" lon="-1.1078440">
        <ele>889.6</ele>
        <time>2019-07-05T07:17:11Z</time>
      </trkpt>
      <trkpt lat="40.3262700" lon="-1.1080920">
        <ele>888.6</ele>
        <time>2019-07-05T07:17:13Z</time>
      </trkpt>
      <trkpt lat="40.3264410" lon="-1.1084620">
        <ele>887.4</ele>
        <time>2019-07-05T07:17:16Z</time>
      </trkpt>
      <trkpt lat="40.3265850" lon="-1.1088350">
        <ele>886.2</ele>
        <time>2019-07-05T07:17:19Z</time>
      </trkpt>
      <trkpt lat="40.3266940" lon="-1.1092170">
        <ele>885.2</ele>
        <time>2019-07-05T07:17:22Z</time>
      </trkpt>
      <trkpt lat="40.3267420" lon="-1.1094730">
        <ele>884.4</ele>
        <time>2019-07-05T07:17:24Z</time>
      </trkpt>
      <trkpt lat="40.3267590" lon="-1.1096010">
        <ele>884.0</ele>
        <time>2019-07-05T07:17:25Z</time>
      </trkpt>
      <trkpt lat="40.3268060" lon="-1.1101020">
        <ele>882.8</ele>
        <time>2019-07-05T07:17:29Z</time>
      </trkpt>
      <trkpt lat="40.3268060" lon="-1.1102260">
        <ele>882.4</ele>
        <time>2019-07-05T07:17:30Z</time>
      </trkpt>
      <trkpt lat="40.3268020" lon="-1.1104700">
        <ele>881.8</ele>
        <time>2019-07-05T07:17:32Z</time>
      </trkpt>
      <trkpt lat="40.3267680" lon="-1.1109520">
        <ele>880.2</ele>
        <time>2019-07-05T07:17:36Z</time>
      </trkpt>
      <trkpt lat="40.3267570" lon="-1.1110720">
        <ele>879.8</ele>
        <time>2019-07-05T07:17:37Z</time>
      </trkpt>
      <trkpt lat="40.3267270" lon="-1.1113120">
        <ele>879.2</ele>
        <time>2019-07-05T07:17:39Z</time>
      </trkpt>
      <trkpt lat="40.3266880" lon="-1.1116740">
        <ele>878.2</ele>
        <time>2019-07-05T07:17:42Z</time>
      </trkpt>
      <trkpt lat="40.3266730" lon="-1.1119160">
        <ele>877.6</ele>
        <time>2019-07-05T07:17:44Z</time>
      </trkpt>
      <trkpt lat="40.3266700" lon="-1.1120370">
        <ele>877.2</ele>
        <time>2019-07-05T07:17:45Z</time>
      </trkpt>
      <trkpt lat="40.3266900" lon="-1.1125190">
        <ele>876.0</ele>
        <time>2019-07-05T07:17:49Z</time>
      </trkpt>
      <trkpt lat="40.3267040" lon="-1.1126360">
        <ele>876.0</ele>
        <time>2019-07-05T07:17:50Z</time>
      </trkpt>
      <trkpt lat="40.3267400" lon="-1.1128680">
        <ele>875.2</ele>
        <time>2019-07-05T07:17:52Z</time>
      </trkpt>
      <trkpt lat="40.3268160" lon="-1.1132070">
        <ele>874.2</ele>
        <time>2019-07-05T07:17:55Z</time>
      </trkpt>
      <trkpt lat="40.3268450" lon="-1.1133190">
        <ele>873.8</ele>
        <time>2019-07-05T07:17:56Z</time>
      </trkpt>
      <trkpt lat="40.3269080" lon="-1.1135400">
        <ele>873.0</ele>
        <time>2019-07-05T07:17:58Z</time>
      </trkpt>
      <trkpt lat="40.3270530" lon="-1.1139610">
        <ele>872.4</ele>
        <time>2019-07-05T07:18:02Z</time>
      </trkpt>
      <trkpt lat="40.3270930" lon="-1.1140600">
        <ele>872.2</ele>
        <time>2019-07-05T07:18:03Z</time>
      </trkpt>
      <trkpt lat="40.3271330" lon="-1.1141570">
        <ele>872.0</ele>
        <time>2019-07-05T07:18:04Z</time>
      </trkpt>
      <trkpt lat="40.3273990" lon="-1.1146950">
        <ele>870.8</ele>
        <time>2019-07-05T07:18:10Z</time>
      </trkpt>
      <trkpt lat="40.3275320" lon="-1.1149400">
        <ele>870.6</ele>
        <time>2019-07-05T07:18:13Z</time>
      </trkpt>
      <trkpt lat="40.3276790" lon="-1.1151670">
        <ele>870.0</ele>
        <time>2019-07-05T07:18:16Z</time>
      </trkpt>
      <trkpt lat="40.3278600" lon="-1.1154680">
        <ele>869.8</ele>
        <time>2019-07-05T07:18:20Z</time>
      </trkpt>
      <trkpt lat="40.3280920" lon="-1.1158120">
        <ele>869.4</ele>
        <time>2019-07-05T07:18:25Z</time>
      </trkpt>
      <trkpt lat="40.3282380" lon="-1.1160030">
        <ele>869.6</ele>
        <time>2019-07-05T07:18:28Z</time>
      </trkpt>
      <trkpt lat="40.3283320" lon="-1.1161270">
        <ele>869.6</ele>
        <time>2019-07-05T07:18:30Z</time>
      </trkpt>
      <trkpt lat="40.3284790" lon="-1.1162990">
        <ele>869.8</ele>
        <time>2019-07-05T07:18:33Z</time>
      </trkpt>
      <trkpt lat="40.3286720" lon="-1.1165140">
        <ele>870.4</ele>
        <time>2019-07-05T07:18:37Z</time>
      </trkpt>
      <trkpt lat="40.3289130" lon="-1.1167650">
        <ele>870.4</ele>
        <time>2019-07-05T07:18:42Z</time>
      </trkpt>
      <trkpt lat="40.3289630" lon="-1.1168110">
        <ele>870.4</ele>
        <time>2019-07-05T07:18:43Z</time>
      </trkpt>
      <trkpt lat="40.3293190" lon="-1.1171160">
        <ele>871.0</ele>
        <time>2019-07-05T07:18:50Z</time>
      </trkpt>
      <trkpt lat="40.3294750" lon="-1.1172340">
        <ele>871.2</ele>
        <time>2019-07-05T07:18:53Z</time>
      </trkpt>
      <trkpt lat="40.3298540" lon="-1.1174680">
        <ele>871.4</ele>
        <time>2019-07-05T07:19:00Z</time>
      </trkpt>
      <trkpt lat="40.3302580" lon="-1.1176480">
        <ele>872.2</ele>
        <time>2019-07-05T07:19:07Z</time>
      </trkpt>
      <trkpt lat="40.3304320" lon="-1.1177010">
        <ele>872.4</ele>
        <time>2019-07-05T07:19:10Z</time>
      </trkpt>
      <trkpt lat="40.3309840" lon="-1.1178310">
        <ele>873.0</ele>
        <time>2019-07-05T07:19:20Z</time>
      </trkpt>
      <trkpt lat="40.3314760" lon="-1.1178530">
        <ele>873.4</ele>
        <time>2019-07-05T07:19:29Z</time>
      </trkpt>
      <trkpt lat="40.3315310" lon="-1.1178530">
        <ele>873.4</ele>
        <time>2019-07-05T07:19:30Z</time>
      </trkpt>
      <trkpt lat="40.3318610" lon="-1.1178240">
        <ele>874.0</ele>
        <time>2019-07-05T07:19:36Z</time>
      </trkpt>
      <trkpt lat="40.3320240" lon="-1.1177910">
        <ele>874.4</ele>
        <time>2019-07-05T07:19:39Z</time>
      </trkpt>
      <trkpt lat="40.3320770" lon="-1.1177770">
        <ele>874.4</ele>
        <time>2019-07-05T07:19:40Z</time>
      </trkpt>
      <trkpt lat="40.3324530" lon="-1.1176670">
        <ele>874.8</ele>
        <time>2019-07-05T07:19:47Z</time>
      </trkpt>
      <trkpt lat="40.3329350" lon="-1.1174440">
        <ele>875.4</ele>
        <time>2019-07-05T07:19:56Z</time>
      </trkpt>
      <trkpt lat="40.3330400" lon="-1.1173810">
        <ele>875.4</ele>
        <time>2019-07-05T07:19:58Z</time>
      </trkpt>
      <trkpt lat="40.3333050" lon="-1.1172130">
        <ele>876.0</ele>
        <time>2019-07-05T07:20:03Z</time>
      </trkpt>
      <trkpt lat="40.3336160" lon="-1.1169610">
        <ele>875.8</ele>
        <time>2019-07-05T07:20:09Z</time>
      </trkpt>
      <trkpt lat="40.3340800" lon="-1.1164890">
        <ele>875.6</ele>
        <time>2019-07-05T07:20:18Z</time>
      </trkpt>
      <trkpt lat="40.3344720" lon="-1.1159860">
        <ele>875.2</ele>
        <time>2019-07-05T07:20:26Z</time>
      </trkpt>
      <trkpt lat="40.3345190" lon="-1.1159210">
        <ele>875.2</ele>
        <time>2019-07-05T07:20:27Z</time>
      </trkpt>
      <trkpt lat="40.3348670" lon="-1.1153760">
        <ele>874.8</ele>
        <time>2019-07-05T07:20:35Z</time>
      </trkpt>
      <trkpt lat="40.3351180" lon="-1.1149520">
        <ele>874.6</ele>
        <time>2019-07-05T07:20:41Z</time>
      </trkpt>
      <trkpt lat="40.3352860" lon="-1.1146720">
        <ele>874.4</ele>
        <time>2019-07-05T07:20:45Z</time>
      </trkpt>
      <trkpt lat="40.3354920" lon="-1.1143200">
        <ele>874.2</ele>
        <time>2019-07-05T07:20:50Z</time>
      </trkpt>
      <trkpt lat="40.3356640" lon="-1.1140460">
        <ele>874.0</ele>
        <time>2019-07-05T07:20:54Z</time>
      </trkpt>
      <trkpt lat="40.3360270" lon="-1.1135100">
        <ele>873.8</ele>
        <time>2019-07-05T07:21:02Z</time>
      </trkpt>
      <trkpt lat="40.3361750" lon="-1.1133140">
        <ele>873.6</ele>
        <time>2019-07-05T07:21:05Z</time>
      </trkpt>
      <trkpt lat="40.3366010" lon="-1.1128390">
        <ele>873.8</ele>
        <time>2019-07-05T07:21:13Z</time>
      </trkpt>
      <trkpt lat="40.3366580" lon="-1.1127860">
        <ele>873.8</ele>
        <time>2019-07-05T07:21:14Z</time>
      </trkpt>
      <trkpt lat="40.3370630" lon="-1.1124790">
        <ele>873.8</ele>
        <time>2019-07-05T07:21:21Z</time>
      </trkpt>
      <trkpt lat="40.3374540" lon="-1.1122280">
        <ele>874.2</ele>
        <time>2019-07-05T07:21:28Z</time>
      </trkpt>
      <trkpt lat="40.3379040" lon="-1.1120120">
        <ele>874.8</ele>
        <time>2019-07-05T07:21:36Z</time>
      </trkpt>
      <trkpt lat="40.3381820" lon="-1.1119240">
        <ele>875.0</ele>
        <time>2019-07-05T07:21:41Z</time>
      </trkpt>
      <trkpt lat="40.3383520" lon="-1.1118880">
        <ele>875.2</ele>
        <time>2019-07-05T07:21:44Z</time>
      </trkpt>
      <trkpt lat="40.3387970" lon="-1.1118520">
        <ele>875.6</ele>
        <time>2019-07-05T07:21:52Z</time>
      </trkpt>
      <trkpt lat="40.3388540" lon="-1.1118540">
        <ele>875.6</ele>
        <time>2019-07-05T07:21:53Z</time>
      </trkpt>
      <trkpt lat="40.3391390" lon="-1.1118810">
        <ele>875.8</ele>
        <time>2019-07-05T07:21:58Z</time>
      </trkpt>
      <trkpt lat="40.3393120" lon="-1.1119080">
        <ele>876.0</ele>
        <time>2019-07-05T07:22:01Z</time>
      </trkpt>
      <trkpt lat="40.3397630" lon="-1.1120480">
        <ele>876.6</ele>
        <time>2019-07-05T07:22:09Z</time>
      </trkpt>
      <trkpt lat="40.3398180" lon="-1.1120750">
        <ele>876.8</ele>
        <time>2019-07-05T07:22:10Z</time>
      </trkpt>
      <trkpt lat="40.3401980" lon="-1.1122920">
        <ele>877.2</ele>
        <time>2019-07-05T07:22:17Z</time>
      </trkpt>
      <trkpt lat="40.3406140" lon="-1.1126170">
        <ele>877.6</ele>
        <time>2019-07-05T07:22:25Z</time>
      </trkpt>
      <trkpt lat="40.3409790" lon="-1.1130130">
        <ele>877.8</ele>
        <time>2019-07-05T07:22:33Z</time>
      </trkpt>
      <trkpt lat="40.3410260" lon="-1.1130660">
        <ele>878.0</ele>
        <time>2019-07-05T07:22:34Z</time>
      </trkpt>
      <trkpt lat="40.3413560" lon="-1.1133880">
        <ele>878.4</ele>
        <time>2019-07-05T07:22:41Z</time>
      </trkpt>
      <trkpt lat="40.3416900" lon="-1.1136610">
        <ele>878.4</ele>
        <time>2019-07-05T07:22:48Z</time>
      </trkpt>
      <trkpt lat="40.3417380" lon="-1.1136810">
        <ele>878.8</ele>
        <time>2019-07-05T07:22:49Z</time>
      </trkpt>
      <trkpt lat="40.3417860" lon="-1.1136940">
        <ele>879.2</ele>
        <time>2019-07-05T07:22:50Z</time>
      </trkpt>
      <trkpt lat="40.3419250" lon="-1.1136990">
        <ele>879.8</ele>
        <time>2019-07-05T07:22:53Z</time>
      </trkpt>
      <trkpt lat="40.3419710" lon="-1.1136980">
        <ele>880.0</ele>
        <time>2019-07-05T07:22:54Z</time>
      </trkpt>
      <trkpt lat="40.3420150" lon="-1.1136930">
        <ele>880.4</ele>
        <time>2019-07-05T07:22:55Z</time>
      </trkpt>
      <trkpt lat="40.3420580" lon="-1.1136830">
        <ele>880.8</ele>
        <time>2019-07-05T07:22:56Z</time>
      </trkpt>
      <trkpt lat="40.3421380" lon="-1.1136460">
        <ele>881.6</ele>
        <time>2019-07-05T07:22:58Z</time>
      </trkpt>
      <trkpt lat="40.3421790" lon="-1.1136250">
        <ele>881.8</ele>
        <time>2019-07-05T07:22:59Z</time>
      </trkpt>
      <trkpt lat="40.3422960" lon="-1.1135530">
        <ele>882.6</ele>
        <time>2019-07-05T07:23:02Z</time>
      </trkpt>
      <trkpt lat="40.3424060" lon="-1.1134510">
        <ele>883.2</ele>
        <time>2019-07-05T07:23:05Z</time>
      </trkpt>
      <trkpt lat="40.3424680" lon="-1.1133640">
        <ele>883.8</ele>
        <time>2019-07-05T07:23:07Z</time>
      </trkpt>
      <trkpt lat="40.3426480" lon="-1.1130680">
        <ele>884.4</ele>
        <time>2019-07-05T07:23:13Z</time>
      </trkpt>
      <trkpt lat="40.3428410" lon="-1.1127160">
        <ele>884.6</ele>
        <time>2019-07-05T07:23:19Z</time>
      </trkpt>
      <trkpt lat="40.3431530" lon="-1.1121320">
        <ele>884.2</ele>
        <time>2019-07-05T07:23:28Z</time>
      </trkpt>
      <trkpt lat="40.3432230" lon="-1.1120020">
        <ele>884.4</ele>
        <time>2019-07-05T07:23:30Z</time>
      </trkpt>
      <trkpt lat="40.3433610" lon="-1.1117480">
        <ele>884.2</ele>
        <time>2019-07-05T07:23:34Z</time>
      </trkpt>
      <trkpt lat="40.3434320" lon="-1.1116280">
        <ele>884.2</ele>
        <time>2019-07-05T07:23:36Z</time>
      </trkpt>
      <trkpt lat="40.3434630" lon="-1.1115690">
        <ele>884.2</ele>
        <time>2019-07-05T07:23:37Z</time>
      </trkpt>
      <trkpt lat="40.3434940" lon="-1.1115080">
        <ele>884.2</ele>
        <time>2019-07-05T07:23:38Z</time>
      </trkpt>
      <trkpt lat="40.3435550" lon="-1.1113800">
        <ele>884.0</ele>
        <time>2019-07-05T07:23:40Z</time>
      </trkpt>
      <trkpt lat="40.3436280" lon="-1.1111910">
        <ele>883.6</ele>
        <time>2019-07-05T07:23:43Z</time>
      </trkpt>
      <trkpt lat="40.3436550" lon="-1.1111450">
        <ele>883.2</ele>
        <time>2019-07-05T07:23:44Z</time>
      </trkpt>
      <trkpt lat="40.3437270" lon="-1.1111260">
        <ele>882.8</ele>
        <time>2019-07-05T07:23:46Z</time>
      </trkpt>
      <trkpt lat="40.3437610" lon="-1.1111550">
        <ele>882.6</ele>
        <time>2019-07-05T07:23:47Z</time>
      </trkpt>
      <trkpt lat="40.3438100" lon="-1.1112580">
        <ele>882.4</ele>
        <time>2019-07-05T07:23:49Z</time>
      </trkpt>
      <trkpt lat="40.3438340" lon="-1.1113210">
        <ele>882.4</ele>
        <time>2019-07-05T07:23:50Z</time>
      </trkpt>
      <trkpt lat="40.3439280" lon="-1.1115410">
        <ele>881.6</ele>
        <time>2019-07-05T07:23:53Z</time>
      </trkpt>
      <trkpt lat="40.3439560" lon="-1.1116300">
        <ele>881.4</ele>
        <time>2019-07-05T07:23:54Z</time>
      </trkpt>
      <trkpt lat="40.3440530" lon="-1.1119050">
        <ele>880.6</ele>
        <time>2019-07-05T07:23:57Z</time>
      </trkpt>
      <trkpt lat="40.3441920" lon="-1.1122940">
        <ele>879.0</ele>
        <time>2019-07-05T07:24:01Z</time>
      </trkpt>
      <trkpt lat="40.3442300" lon="-1.1123890">
        <ele>878.4</ele>
        <time>2019-07-05T07:24:02Z</time>
      </trkpt>
      <trkpt lat="40.3443820" lon="-1.1126500">
        <ele>877.8</ele>
        <time>2019-07-05T07:24:05Z</time>
      </trkpt>
      <trkpt lat="40.3447220" lon="-1.1132090">
        <ele>877.2</ele>
        <time>2019-07-05T07:24:12Z</time>
      </trkpt>
      <trkpt lat="40.3448090" lon="-1.1133620">
        <ele>877.2</ele>
        <time>2019-07-05T07:24:14Z</time>
      </trkpt>
      <trkpt lat="40.3448950" lon="-1.1135100">
        <ele>877.2</ele>
        <time>2019-07-05T07:24:16Z</time>
      </trkpt>
      <trkpt lat="40.3449840" lon="-1.1136510">
        <ele>877.4</ele>
        <time>2019-07-05T07:24:18Z</time>
      </trkpt>
      <trkpt lat="40.3451150" lon="-1.1138610">
        <ele>877.4</ele>
        <time>2019-07-05T07:24:21Z</time>
      </trkpt>
      <trkpt lat="40.3452020" lon="-1.1139940">
        <ele>877.4</ele>
        <time>2019-07-05T07:24:23Z</time>
      </trkpt>
      <trkpt lat="40.3453580" lon="-1.1142570">
        <ele>877.6</ele>
        <time>2019-07-05T07:24:27Z</time>
      </trkpt>
      <trkpt lat="40.3456350" lon="-1.1146980">
        <ele>877.6</ele>
        <time>2019-07-05T07:24:34Z</time>
      </trkpt>
      <trkpt lat="40.3457180" lon="-1.1148200">
        <ele>877.6</ele>
        <time>2019-07-05T07:24:36Z</time>
      </trkpt>
      <trkpt lat="40.3458740" lon="-1.1150620">
        <ele>878.0</ele>
        <time>2019-07-05T07:24:40Z</time>
      </trkpt>
      <trkpt lat="40.3459970" lon="-1.1152390">
        <ele>878.0</ele>
        <time>2019-07-05T07:24:43Z</time>
      </trkpt>
      <trkpt lat="40.3463520" lon="-1.1157650">
        <ele>878.4</ele>
        <time>2019-07-05T07:24:52Z</time>
      </trkpt>
      <trkpt lat="40.3466260" lon="-1.1161750">
        <ele>879.2</ele>
        <time>2019-07-05T07:24:59Z</time>
      </trkpt>
      <trkpt lat="40.3466590" lon="-1.1162350">
        <ele>879.2</ele>
        <time>2019-07-05T07:25:00Z</time>
      </trkpt>
      <trkpt lat="40.3468340" lon="-1.1165030">
        <ele>879.4</ele>
        <time>2019-07-05T07:25:05Z</time>
      </trkpt>
      <trkpt lat="40.3469450" lon="-1.1166710">
        <ele>879.6</ele>
        <time>2019-07-05T07:25:08Z</time>
      </trkpt>
      <trkpt lat="40.3470560" lon="-1.1168430">
        <ele>879.8</ele>
        <time>2019-07-05T07:25:11Z</time>
      </trkpt>
      <trkpt lat="40.3471670" lon="-1.1170140">
        <ele>879.8</ele>
        <time>2019-07-05T07:25:14Z</time>
      </trkpt>
      <trkpt lat="40.3474310" lon="-1.1174090">
        <ele>880.2</ele>
        <time>2019-07-05T07:25:21Z</time>
      </trkpt>
      <trkpt lat="40.3474670" lon="-1.1174680">
        <ele>880.2</ele>
        <time>2019-07-05T07:25:22Z</time>
      </trkpt>
      <trkpt lat="40.3477660" lon="-1.1180090">
        <ele>881.0</ele>
        <time>2019-07-05T07:25:31Z</time>
      </trkpt>
      <trkpt lat="40.3479610" lon="-1.1184970">
        <ele>880.2</ele>
        <time>2019-07-05T07:25:37Z</time>
      </trkpt>
      <trkpt lat="40.3480340" lon="-1.1187060">
        <ele>879.0</ele>
        <time>2019-07-05T07:25:39Z</time>
      </trkpt>
      <trkpt lat="40.3481110" lon="-1.1189230">
        <ele>878.0</ele>
        <time>2019-07-05T07:25:41Z</time>
      </trkpt>
      <trkpt lat="40.3481550" lon="-1.1190210">
        <ele>877.6</ele>
        <time>2019-07-05T07:25:42Z</time>
      </trkpt>
      <trkpt lat="40.3481990" lon="-1.1191180">
        <ele>877.4</ele>
        <time>2019-07-05T07:25:43Z</time>
      </trkpt>
      <trkpt lat="40.3483390" lon="-1.1194640">
        <ele>877.6</ele>
        <time>2019-07-05T07:25:47Z</time>
      </trkpt>
      <trkpt lat="40.3484400" lon="-1.1197420">
        <ele>878.6</ele>
        <time>2019-07-05T07:25:51Z</time>
      </trkpt>
      <trkpt lat="40.3484850" lon="-1.1198640">
        <ele>879.2</ele>
        <time>2019-07-05T07:25:53Z</time>
      </trkpt>
      <trkpt lat="40.3485860" lon="-1.1201440">
        <ele>880.4</ele>
        <time>2019-07-05T07:25:58Z</time>
      </trkpt>
      <trkpt lat="40.3486490" lon="-1.1203160">
        <ele>880.8</ele>
        <time>2019-07-05T07:26:01Z</time>
      </trkpt>
      <trkpt lat="40.3487340" lon="-1.1205440">
        <ele>881.4</ele>
        <time>2019-07-05T07:26:05Z</time>
      </trkpt>
      <trkpt lat="40.3488400" lon="-1.1208400">
        <ele>882.0</ele>
        <time>2019-07-05T07:26:10Z</time>
      </trkpt>
      <trkpt lat="40.3488620" lon="-1.1208960">
        <ele>882.0</ele>
        <time>2019-07-05T07:26:11Z</time>
      </trkpt>
      <trkpt lat="40.3489880" lon="-1.1212640">
        <ele>882.6</ele>
        <time>2019-07-05T07:26:17Z</time>
      </trkpt>
      <trkpt lat="40.3490520" lon="-1.1214440">
        <ele>883.2</ele>
        <time>2019-07-05T07:26:20Z</time>
      </trkpt>
      <trkpt lat="40.3491910" lon="-1.1218700">
        <ele>883.8</ele>
        <time>2019-07-05T07:26:27Z</time>
      </trkpt>
      <trkpt lat="40.3492710" lon="-1.1221160">
        <ele>884.6</ele>
        <time>2019-07-05T07:26:31Z</time>
      </trkpt>
      <trkpt lat="40.3493450" lon="-1.1223740">
        <ele>885.0</ele>
        <time>2019-07-05T07:26:35Z</time>
      </trkpt>
      <trkpt lat="40.3494110" lon="-1.1225650">
        <ele>885.2</ele>
        <time>2019-07-05T07:26:38Z</time>
      </trkpt>
      <trkpt lat="40.3495360" lon="-1.1229470">
        <ele>886.0</ele>
        <time>2019-07-05T07:26:44Z</time>
      </trkpt>
      <trkpt lat="40.3495580" lon="-1.1230070">
        <ele>886.0</ele>
        <time>2019-07-05T07:26:45Z</time>
      </trkpt>
      <trkpt lat="40.3495800" lon="-1.1230660">
        <ele>886.2</ele>
        <time>2019-07-05T07:26:46Z</time>
      </trkpt>
      <trkpt lat="40.3496750" lon="-1.1233550">
        <ele>887.2</ele>
        <time>2019-07-05T07:26:51Z</time>
      </trkpt>
      <trkpt lat="40.3497160" lon="-1.1234620">
        <ele>887.8</ele>
        <time>2019-07-05T07:26:53Z</time>
      </trkpt>
      <trkpt lat="40.3497530" lon="-1.1235710">
        <ele>888.4</ele>
        <time>2019-07-05T07:26:55Z</time>
      </trkpt>
      <trkpt lat="40.3497870" lon="-1.1236800">
        <ele>888.8</ele>
        <time>2019-07-05T07:26:57Z</time>
      </trkpt>
      <trkpt lat="40.3498240" lon="-1.1237800">
        <ele>889.4</ele>
        <time>2019-07-05T07:26:59Z</time>
      </trkpt>
      <trkpt lat="40.3498410" lon="-1.1238320">
        <ele>889.6</ele>
        <time>2019-07-05T07:27:00Z</time>
      </trkpt>
      <trkpt lat="40.3499210" lon="-1.1240900">
        <ele>890.8</ele>
        <time>2019-07-05T07:27:05Z</time>
      </trkpt>
      <trkpt lat="40.3499730" lon="-1.1242390">
        <ele>891.4</ele>
        <time>2019-07-05T07:27:08Z</time>
      </trkpt>
      <trkpt lat="40.3500180" lon="-1.1243910">
        <ele>892.0</ele>
        <time>2019-07-05T07:27:11Z</time>
      </trkpt>
      <trkpt lat="40.3500690" lon="-1.1245500">
        <ele>892.6</ele>
        <time>2019-07-05T07:27:14Z</time>
      </trkpt>
      <trkpt lat="40.3501410" lon="-1.1247740">
        <ele>893.0</ele>
        <time>2019-07-05T07:27:18Z</time>
      </trkpt>
      <trkpt lat="40.3502170" lon="-1.1250140">
        <ele>893.6</ele>
        <time>2019-07-05T07:27:22Z</time>
      </trkpt>
      <trkpt lat="40.3503180" lon="-1.1253400">
        <ele>894.4</ele>
        <time>2019-07-05T07:27:27Z</time>
      </trkpt>
      <trkpt lat="40.3503780" lon="-1.1255520">
        <ele>894.4</ele>
        <time>2019-07-05T07:27:30Z</time>
      </trkpt>
      <trkpt lat="40.3504640" lon="-1.1260140">
        <ele>894.2</ele>
        <time>2019-07-05T07:27:36Z</time>
      </trkpt>
      <trkpt lat="40.3504830" lon="-1.1260920">
        <ele>894.2</ele>
        <time>2019-07-05T07:27:37Z</time>
      </trkpt>
      <trkpt lat="40.3505780" lon="-1.1263800">
        <ele>894.2</ele>
        <time>2019-07-05T07:27:41Z</time>
      </trkpt>
      <trkpt lat="40.3506100" lon="-1.1264440">
        <ele>894.4</ele>
        <time>2019-07-05T07:27:42Z</time>
      </trkpt>
      <trkpt lat="40.3506460" lon="-1.1265010">
        <ele>894.4</ele>
        <time>2019-07-05T07:27:43Z</time>
      </trkpt>
      <trkpt lat="40.3507710" lon="-1.1266350">
        <ele>895.2</ele>
        <time>2019-07-05T07:27:46Z</time>
      </trkpt>
      <trkpt lat="40.3508130" lon="-1.1266730">
        <ele>895.4</ele>
        <time>2019-07-05T07:27:47Z</time>
      </trkpt>
      <trkpt lat="40.3508570" lon="-1.1267100">
        <ele>895.8</ele>
        <time>2019-07-05T07:27:48Z</time>
      </trkpt>
      <trkpt lat="40.3509440" lon="-1.1267780">
        <ele>896.6</ele>
        <time>2019-07-05T07:27:50Z</time>
      </trkpt>
      <trkpt lat="40.3509840" lon="-1.1268150">
        <ele>896.8</ele>
        <time>2019-07-05T07:27:51Z</time>
      </trkpt>
      <trkpt lat="40.3511470" lon="-1.1269670">
        <ele>897.6</ele>
        <time>2019-07-05T07:27:55Z</time>
      </trkpt>
      <trkpt lat="40.3511860" lon="-1.1270020">
        <ele>897.8</ele>
        <time>2019-07-05T07:27:56Z</time>
      </trkpt>
      <trkpt lat="40.3512990" lon="-1.1271060">
        <ele>898.6</ele>
        <time>2019-07-05T07:27:59Z</time>
      </trkpt>
      <trkpt lat="40.3513660" lon="-1.1271820">
        <ele>898.8</ele>
        <time>2019-07-05T07:28:01Z</time>
      </trkpt>
      <trkpt lat="40.3514340" lon="-1.1272590">
        <ele>899.4</ele>
        <time>2019-07-05T07:28:03Z</time>
      </trkpt>
      <trkpt lat="40.3515300" lon="-1.1273640">
        <ele>900.0</ele>
        <time>2019-07-05T07:28:06Z</time>
      </trkpt>
      <trkpt lat="40.3516620" lon="-1.1275000">
        <ele>900.8</ele>
        <time>2019-07-05T07:28:10Z</time>
      </trkpt>
      <trkpt lat="40.3516960" lon="-1.1275320">
        <ele>901.2</ele>
        <time>2019-07-05T07:28:11Z</time>
      </trkpt>
      <trkpt lat="40.3517280" lon="-1.1275660">
        <ele>901.2</ele>
        <time>2019-07-05T07:28:12Z</time>
      </trkpt>
      <trkpt lat="40.3518810" lon="-1.1277400">
        <ele>902.2</ele>
        <time>2019-07-05T07:28:17Z</time>
      </trkpt>
      <trkpt lat="40.3519120" lon="-1.1277760">
        <ele>902.6</ele>
        <time>2019-07-05T07:28:18Z</time>
      </trkpt>
      <trkpt lat="40.3520590" lon="-1.1279670">
        <ele>903.4</ele>
        <time>2019-07-05T07:28:23Z</time>
      </trkpt>
      <trkpt lat="40.3521150" lon="-1.1280530">
        <ele>903.8</ele>
        <time>2019-07-05T07:28:25Z</time>
      </trkpt>
      <trkpt lat="40.3522680" lon="-1.1282510">
        <ele>904.4</ele>
        <time>2019-07-05T07:28:30Z</time>
      </trkpt>
      <trkpt lat="40.3523250" lon="-1.1283350">
        <ele>904.8</ele>
        <time>2019-07-05T07:28:32Z</time>
      </trkpt>
      <trkpt lat="40.3524090" lon="-1.1284640">
        <ele>905.4</ele>
        <time>2019-07-05T07:28:35Z</time>
      </trkpt>
      <trkpt lat="40.3526070" lon="-1.1287590">
        <ele>906.6</ele>
        <time>2019-07-05T07:28:42Z</time>
      </trkpt>
      <trkpt lat="40.3526350" lon="-1.1288000">
        <ele>906.8</ele>
        <time>2019-07-05T07:28:43Z</time>
      </trkpt>
      <trkpt lat="40.3527170" lon="-1.1289040">
        <ele>907.2</ele>
        <time>2019-07-05T07:28:47Z</time>
      </trkpt>
      <trkpt lat="40.3527180" lon="-1.1289080">
        <ele>907.2</ele>
        <time>2019-07-05T07:28:49Z</time>
      </trkpt>
      <trkpt lat="40.3526880" lon="-1.1288900">
        <ele>907.0</ele>
        <time>2019-07-05T07:29:03Z</time>
      </trkpt>
      <trkpt lat="40.3526820" lon="-1.1288670">
        <ele>907.0</ele>
        <time>2019-07-05T07:29:04Z</time>
      </trkpt>
      <trkpt lat="40.3526290" lon="-1.1287560">
        <ele>906.8</ele>
        <time>2019-07-05T07:29:09Z</time>
      </trkpt>
      <trkpt lat="40.3526290" lon="-1.1287540">
        <ele>906.6</ele>
        <time>2019-07-05T07:29:10Z</time>
      </trkpt>
      <trkpt lat="40.3526290" lon="-1.1287530">
        <ele>906.6</ele>
        <time>2019-07-05T07:29:11Z</time>
      </trkpt>
      <trkpt lat="40.3526210" lon="-1.1287130">
        <ele>906.6</ele>
        <time>2019-07-05T07:29:53Z</time>
      </trkpt>
      <trkpt lat="40.3526280" lon="-1.1286920">
        <ele>906.4</ele>
        <time>2019-07-05T07:29:54Z</time>
      </trkpt>
      <trkpt lat="40.3526490" lon="-1.1286770">
        <ele>906.4</ele>
        <time>2019-07-05T07:29:55Z</time>
      </trkpt>
      <trkpt lat="40.3527270" lon="-1.1287200">
        <ele>906.4</ele>
        <time>2019-07-05T07:29:58Z</time>
      </trkpt>
      <trkpt lat="40.3529240" lon="-1.1289120">
        <ele>906.8</ele>
        <time>2019-07-05T07:30:04Z</time>
      </trkpt>
      <trkpt lat="40.3530740" lon="-1.1290740">
        <ele>906.6</ele>
        <time>2019-07-05T07:30:08Z</time>
      </trkpt>
      <trkpt lat="40.3531480" lon="-1.1291720">
        <ele>906.4</ele>
        <time>2019-07-05T07:30:10Z</time>
      </trkpt>
      <trkpt lat="40.3531850" lon="-1.1292270">
        <ele>906.4</ele>
        <time>2019-07-05T07:30:11Z</time>
      </trkpt>
      <trkpt lat="40.3532490" lon="-1.1293510">
        <ele>906.0</ele>
        <time>2019-07-05T07:30:13Z</time>
      </trkpt>
      <trkpt lat="40.3532770" lon="-1.1294190">
        <ele>905.8</ele>
        <time>2019-07-05T07:30:14Z</time>
      </trkpt>
      <trkpt lat="40.3533040" lon="-1.1294910">
        <ele>905.6</ele>
        <time>2019-07-05T07:30:15Z</time>
      </trkpt>
      <trkpt lat="40.3534470" lon="-1.1300390">
        <ele>906.0</ele>
        <time>2019-07-05T07:30:22Z</time>
      </trkpt>
      <trkpt lat="40.3535680" lon="-1.1305730">
        <ele>905.6</ele>
        <time>2019-07-05T07:30:29Z</time>
      </trkpt>
      <trkpt lat="40.3535840" lon="-1.1310410">
        <ele>906.4</ele>
        <time>2019-07-05T07:30:35Z</time>
      </trkpt>
      <trkpt lat="40.3535920" lon="-1.1312010">
        <ele>906.6</ele>
        <time>2019-07-05T07:30:37Z</time>
      </trkpt>
      <trkpt lat="40.3534910" lon="-1.1312670">
        <ele>906.8</ele>
        <time>2019-07-05T07:30:38Z</time>
      </trkpt>
      <trkpt lat="40.3534350" lon="-1.1313920">
        <ele>907.0</ele>
        <time>2019-07-05T07:30:40Z</time>
      </trkpt>
      <trkpt lat="40.3534290" lon="-1.1315220">
        <ele>907.2</ele>
        <time>2019-07-05T07:30:42Z</time>
      </trkpt>
      <trkpt lat="40.3534200" lon="-1.1316460">
        <ele>908.0</ele>
        <time>2019-07-05T07:30:44Z</time>
      </trkpt>
      <trkpt lat="40.3534150" lon="-1.1317040">
        <ele>908.2</ele>
        <time>2019-07-05T07:30:45Z</time>
      </trkpt>
      <trkpt lat="40.3534120" lon="-1.1317620">
        <ele>908.4</ele>
        <time>2019-07-05T07:30:46Z</time>
      </trkpt>
      <trkpt lat="40.3534160" lon="-1.1319300">
        <ele>909.2</ele>
        <time>2019-07-05T07:30:49Z</time>
      </trkpt>
      <trkpt lat="40.3534220" lon="-1.1320340">
        <ele>909.8</ele>
        <time>2019-07-05T07:30:51Z</time>
      </trkpt>
      <trkpt lat="40.3534360" lon="-1.1321320">
        <ele>910.2</ele>
        <time>2019-07-05T07:30:53Z</time>
      </trkpt>
      <trkpt lat="40.3534850" lon="-1.1322750">
        <ele>911.0</ele>
        <time>2019-07-05T07:30:56Z</time>
      </trkpt>
      <trkpt lat="40.3535050" lon="-1.1323220">
        <ele>911.4</ele>
        <time>2019-07-05T07:30:57Z</time>
      </trkpt>
      <trkpt lat="40.3535670" lon="-1.1324800">
        <ele>911.8</ele>
        <time>2019-07-05T07:31:00Z</time>
      </trkpt>
      <trkpt lat="40.3536340" lon="-1.1326490">
        <ele>911.8</ele>
        <time>2019-07-05T07:31:03Z</time>
      </trkpt>
      <trkpt lat="40.3536570" lon="-1.1327070">
        <ele>911.8</ele>
        <time>2019-07-05T07:31:04Z</time>
      </trkpt>
      <trkpt lat="40.3537820" lon="-1.1330380">
        <ele>911.6</ele>
        <time>2019-07-05T07:31:09Z</time>
      </trkpt>
      <trkpt lat="40.3538790" lon="-1.1333550">
        <ele>911.2</ele>
        <time>2019-07-05T07:31:13Z</time>
      </trkpt>
      <trkpt lat="40.3539150" lon="-1.1335310">
        <ele>910.6</ele>
        <time>2019-07-05T07:31:15Z</time>
      </trkpt>
      <trkpt lat="40.3539330" lon="-1.1336180">
        <ele>910.4</ele>
        <time>2019-07-05T07:31:16Z</time>
      </trkpt>
      <trkpt lat="40.3539710" lon="-1.1338610">
        <ele>910.0</ele>
        <time>2019-07-05T07:31:19Z</time>
      </trkpt>
      <trkpt lat="40.3539870" lon="-1.1340050">
        <ele>910.2</ele>
        <time>2019-07-05T07:31:21Z</time>
      </trkpt>
      <trkpt lat="40.3539970" lon="-1.1342990">
        <ele>911.2</ele>
        <time>2019-07-05T07:31:26Z</time>
      </trkpt>
      <trkpt lat="40.3540090" lon="-1.1344000">
        <ele>911.6</ele>
        <time>2019-07-05T07:31:28Z</time>
      </trkpt>
      <trkpt lat="40.3540280" lon="-1.1346580">
        <ele>912.6</ele>
        <time>2019-07-05T07:31:33Z</time>
      </trkpt>
      <trkpt lat="40.3540250" lon="-1.1347170">
        <ele>912.6</ele>
        <time>2019-07-05T07:31:34Z</time>
      </trkpt>
      <trkpt lat="40.3539330" lon="-1.1350220">
        <ele>912.8</ele>
        <time>2019-07-05T07:31:39Z</time>
      </trkpt>
      <trkpt lat="40.3538300" lon="-1.1352620">
        <ele>912.6</ele>
        <time>2019-07-05T07:31:43Z</time>
      </trkpt>
      <trkpt lat="40.3537230" lon="-1.1355040">
        <ele>912.6</ele>
        <time>2019-07-05T07:31:47Z</time>
      </trkpt>
      <trkpt lat="40.3537020" lon="-1.1355670">
        <ele>912.8</ele>
        <time>2019-07-05T07:31:48Z</time>
      </trkpt>
      <trkpt lat="40.3536200" lon="-1.1358900">
        <ele>913.0</ele>
        <time>2019-07-05T07:31:53Z</time>
      </trkpt>
      <trkpt lat="40.3535800" lon="-1.1363070">
        <ele>913.2</ele>
        <time>2019-07-05T07:31:59Z</time>
      </trkpt>
      <trkpt lat="40.3535320" lon="-1.1369740">
        <ele>913.6</ele>
        <time>2019-07-05T07:32:08Z</time>
      </trkpt>
      <trkpt lat="40.3535190" lon="-1.1373360">
        <ele>913.8</ele>
        <time>2019-07-05T07:32:13Z</time>
      </trkpt>
      <trkpt lat="40.3535190" lon="-1.1375490">
        <ele>914.0</ele>
        <time>2019-07-05T07:32:16Z</time>
      </trkpt>
      <trkpt lat="40.3535390" lon="-1.1380670">
        <ele>913.8</ele>
        <time>2019-07-05T07:32:23Z</time>
      </trkpt>
      <trkpt lat="40.3536040" lon="-1.1387400">
        <ele>914.2</ele>
        <time>2019-07-05T07:32:32Z</time>
      </trkpt>
      <trkpt lat="40.3536830" lon="-1.1394070">
        <ele>914.4</ele>
        <time>2019-07-05T07:32:41Z</time>
      </trkpt>
      <trkpt lat="40.3537820" lon="-1.1400160">
        <ele>914.4</ele>
        <time>2019-07-05T07:32:49Z</time>
      </trkpt>
      <trkpt lat="40.3538650" lon="-1.1404750">
        <ele>914.6</ele>
        <time>2019-07-05T07:32:55Z</time>
      </trkpt>
      <trkpt lat="40.3539220" lon="-1.1407830">
        <ele>914.6</ele>
        <time>2019-07-05T07:32:59Z</time>
      </trkpt>
      <trkpt lat="40.3540510" lon="-1.1414750">
        <ele>914.8</ele>
        <time>2019-07-05T07:33:08Z</time>
      </trkpt>
      <trkpt lat="40.3540980" lon="-1.1417030">
        <ele>914.8</ele>
        <time>2019-07-05T07:33:11Z</time>
      </trkpt>
      <trkpt lat="40.3541840" lon="-1.1421620">
        <ele>915.0</ele>
        <time>2019-07-05T07:33:17Z</time>
      </trkpt>
      <trkpt lat="40.3542510" lon="-1.1425500">
        <ele>915.2</ele>
        <time>2019-07-05T07:33:22Z</time>
      </trkpt>
      <trkpt lat="40.3543570" lon="-1.1432540">
        <ele>915.6</ele>
        <time>2019-07-05T07:33:31Z</time>
      </trkpt>
      <trkpt lat="40.3543820" lon="-1.1434080">
        <ele>915.6</ele>
        <time>2019-07-05T07:33:33Z</time>
      </trkpt>
      <trkpt lat="40.3544350" lon="-1.1437950">
        <ele>915.8</ele>
        <time>2019-07-05T07:33:38Z</time>
      </trkpt>
      <trkpt lat="40.3545180" lon="-1.1444050">
        <ele>916.0</ele>
        <time>2019-07-05T07:33:46Z</time>
      </trkpt>
      <trkpt lat="40.3546040" lon="-1.1450920">
        <ele>916.4</ele>
        <time>2019-07-05T07:33:55Z</time>
      </trkpt>
      <trkpt lat="40.3546140" lon="-1.1451680">
        <ele>916.6</ele>
        <time>2019-07-05T07:33:56Z</time>
      </trkpt>
      <trkpt lat="40.3546830" lon="-1.1457720">
        <ele>917.2</ele>
        <time>2019-07-05T07:34:04Z</time>
      </trkpt>
      <trkpt lat="40.3547500" lon="-1.1463020">
        <ele>917.6</ele>
        <time>2019-07-05T07:34:11Z</time>
      </trkpt>
      <trkpt lat="40.3547630" lon="-1.1464560">
        <ele>917.6</ele>
        <time>2019-07-05T07:34:13Z</time>
      </trkpt>
      <trkpt lat="40.3548410" lon="-1.1471290">
        <ele>918.2</ele>
        <time>2019-07-05T07:34:22Z</time>
      </trkpt>
      <trkpt lat="40.3548850" lon="-1.1475090">
        <ele>918.8</ele>
        <time>2019-07-05T07:34:27Z</time>
      </trkpt>
      <trkpt lat="40.3549180" lon="-1.1478180">
        <ele>919.0</ele>
        <time>2019-07-05T07:34:31Z</time>
      </trkpt>
      <trkpt lat="40.3550020" lon="-1.1485050">
        <ele>919.4</ele>
        <time>2019-07-05T07:34:40Z</time>
      </trkpt>
      <trkpt lat="40.3550450" lon="-1.1488830">
        <ele>919.8</ele>
        <time>2019-07-05T07:34:45Z</time>
      </trkpt>
      <trkpt lat="40.3550860" lon="-1.1492570">
        <ele>920.0</ele>
        <time>2019-07-05T07:34:50Z</time>
      </trkpt>
      <trkpt lat="40.3551710" lon="-1.1499900">
        <ele>920.8</ele>
        <time>2019-07-05T07:35:00Z</time>
      </trkpt>
      <trkpt lat="40.3551800" lon="-1.1500630">
        <ele>920.8</ele>
        <time>2019-07-05T07:35:01Z</time>
      </trkpt>
      <trkpt lat="40.3552640" lon="-1.1507100">
        <ele>921.6</ele>
        <time>2019-07-05T07:35:10Z</time>
      </trkpt>
      <trkpt lat="40.3553480" lon="-1.1513010">
        <ele>921.8</ele>
        <time>2019-07-05T07:35:18Z</time>
      </trkpt>
      <trkpt lat="40.3554080" lon="-1.1516730">
        <ele>922.0</ele>
        <time>2019-07-05T07:35:23Z</time>
      </trkpt>
      <trkpt lat="40.3554490" lon="-1.1519660">
        <ele>922.4</ele>
        <time>2019-07-05T07:35:27Z</time>
      </trkpt>
      <trkpt lat="40.3555590" lon="-1.1527010">
        <ele>922.8</ele>
        <time>2019-07-05T07:35:37Z</time>
      </trkpt>
      <trkpt lat="40.3556390" lon="-1.1532180">
        <ele>922.8</ele>
        <time>2019-07-05T07:35:44Z</time>
      </trkpt>
      <trkpt lat="40.3556870" lon="-1.1535120">
        <ele>923.2</ele>
        <time>2019-07-05T07:35:48Z</time>
      </trkpt>
      <trkpt lat="40.3557480" lon="-1.1538860">
        <ele>923.2</ele>
        <time>2019-07-05T07:35:53Z</time>
      </trkpt>
      <trkpt lat="40.3558530" lon="-1.1545810">
        <ele>923.8</ele>
        <time>2019-07-05T07:36:02Z</time>
      </trkpt>
      <trkpt lat="40.3558650" lon="-1.1546570">
        <ele>923.8</ele>
        <time>2019-07-05T07:36:03Z</time>
      </trkpt>
      <trkpt lat="40.3559850" lon="-1.1553600">
        <ele>923.8</ele>
        <time>2019-07-05T07:36:12Z</time>
      </trkpt>
      <trkpt lat="40.3560600" lon="-1.1557440">
        <ele>924.2</ele>
        <time>2019-07-05T07:36:17Z</time>
      </trkpt>
      <trkpt lat="40.3561060" lon="-1.1559750">
        <ele>924.4</ele>
        <time>2019-07-05T07:36:20Z</time>
      </trkpt>
      <trkpt lat="40.3562540" lon="-1.1565830">
        <ele>924.8</ele>
        <time>2019-07-05T07:36:28Z</time>
      </trkpt>
      <trkpt lat="40.3564490" lon="-1.1572280">
        <ele>925.4</ele>
        <time>2019-07-05T07:36:37Z</time>
      </trkpt>
      <trkpt lat="40.3564970" lon="-1.1573700">
        <ele>925.4</ele>
        <time>2019-07-05T07:36:39Z</time>
      </trkpt>
      <trkpt lat="40.3566600" lon="-1.1578740">
        <ele>925.8</ele>
        <time>2019-07-05T07:36:46Z</time>
      </trkpt>
      <trkpt lat="40.3568640" lon="-1.1585290">
        <ele>926.4</ele>
        <time>2019-07-05T07:36:55Z</time>
      </trkpt>
      <trkpt lat="40.3569030" lon="-1.1586780">
        <ele>926.4</ele>
        <time>2019-07-05T07:36:57Z</time>
      </trkpt>
      <trkpt lat="40.3570500" lon="-1.1592710">
        <ele>926.4</ele>
        <time>2019-07-05T07:37:05Z</time>
      </trkpt>
      <trkpt lat="40.3571250" lon="-1.1595660">
        <ele>926.8</ele>
        <time>2019-07-05T07:37:09Z</time>
      </trkpt>
      <trkpt lat="40.3572930" lon="-1.1602460">
        <ele>926.8</ele>
        <time>2019-07-05T07:37:18Z</time>
      </trkpt>
      <trkpt lat="40.3574600" lon="-1.1609560">
        <ele>927.2</ele>
        <time>2019-07-05T07:37:27Z</time>
      </trkpt>
      <trkpt lat="40.3575130" lon="-1.1611940">
        <ele>927.6</ele>
        <time>2019-07-05T07:37:30Z</time>
      </trkpt>
      <trkpt lat="40.3576630" lon="-1.1618120">
        <ele>928.2</ele>
        <time>2019-07-05T07:37:38Z</time>
      </trkpt>
      <trkpt lat="40.3578330" lon="-1.1624910">
        <ele>928.6</ele>
        <time>2019-07-05T07:37:47Z</time>
      </trkpt>
      <trkpt lat="40.3578770" lon="-1.1626340">
        <ele>928.8</ele>
        <time>2019-07-05T07:37:49Z</time>
      </trkpt>
      <trkpt lat="40.3578980" lon="-1.1627040">
        <ele>928.8</ele>
        <time>2019-07-05T07:37:50Z</time>
      </trkpt>
      <trkpt lat="40.3581280" lon="-1.1634000">
        <ele>929.4</ele>
        <time>2019-07-05T07:38:00Z</time>
      </trkpt>
      <trkpt lat="40.3582040" lon="-1.1636070">
        <ele>929.8</ele>
        <time>2019-07-05T07:38:03Z</time>
      </trkpt>
      <trkpt lat="40.3583380" lon="-1.1639560">
        <ele>930.2</ele>
        <time>2019-07-05T07:38:08Z</time>
      </trkpt>
      <trkpt lat="40.3585100" lon="-1.1644550">
        <ele>930.2</ele>
        <time>2019-07-05T07:38:15Z</time>
      </trkpt>
      <trkpt lat="40.3586040" lon="-1.1647410">
        <ele>930.8</ele>
        <time>2019-07-05T07:38:19Z</time>
      </trkpt>
      <trkpt lat="40.3586640" lon="-1.1649580">
        <ele>931.2</ele>
        <time>2019-07-05T07:38:22Z</time>
      </trkpt>
      <trkpt lat="40.3588210" lon="-1.1655400">
        <ele>931.6</ele>
        <time>2019-07-05T07:38:30Z</time>
      </trkpt>
      <trkpt lat="40.3589680" lon="-1.1661710">
        <ele>931.8</ele>
        <time>2019-07-05T07:38:38Z</time>
      </trkpt>
      <trkpt lat="40.3590860" lon="-1.1667630">
        <ele>931.6</ele>
        <time>2019-07-05T07:38:45Z</time>
      </trkpt>
      <trkpt lat="40.3591940" lon="-1.1675340">
        <ele>931.8</ele>
        <time>2019-07-05T07:38:54Z</time>
      </trkpt>
      <trkpt lat="40.3592280" lon="-1.1678600">
        <ele>931.6</ele>
        <time>2019-07-05T07:38:58Z</time>
      </trkpt>
      <trkpt lat="40.3592440" lon="-1.1680110">
        <ele>931.6</ele>
        <time>2019-07-05T07:39:00Z</time>
      </trkpt>
      <trkpt lat="40.3592570" lon="-1.1681540">
        <ele>931.6</ele>
        <time>2019-07-05T07:39:02Z</time>
      </trkpt>
      <trkpt lat="40.3592840" lon="-1.1684430">
        <ele>932.0</ele>
        <time>2019-07-05T07:39:06Z</time>
      </trkpt>
      <trkpt lat="40.3593220" lon="-1.1688150">
        <ele>932.0</ele>
        <time>2019-07-05T07:39:11Z</time>
      </trkpt>
      <trkpt lat="40.3593960" lon="-1.1695690">
        <ele>932.4</ele>
        <time>2019-07-05T07:39:21Z</time>
      </trkpt>
      <trkpt lat="40.3594030" lon="-1.1696460">
        <ele>932.6</ele>
        <time>2019-07-05T07:39:22Z</time>
      </trkpt>
      <trkpt lat="40.3594500" lon="-1.1703520">
        <ele>932.8</ele>
        <time>2019-07-05T07:39:31Z</time>
      </trkpt>
      <trkpt lat="40.3594000" lon="-1.1709320">
        <ele>933.0</ele>
        <time>2019-07-05T07:39:38Z</time>
      </trkpt>
      <trkpt lat="40.3592440" lon="-1.1715040">
        <ele>932.4</ele>
        <time>2019-07-05T07:39:45Z</time>
      </trkpt>
      <trkpt lat="40.3591350" lon="-1.1717270">
        <ele>932.0</ele>
        <time>2019-07-05T07:39:48Z</time>
      </trkpt>
      <trkpt lat="40.3590090" lon="-1.1719440">
        <ele>931.8</ele>
        <time>2019-07-05T07:39:51Z</time>
      </trkpt>
      <trkpt lat="40.3587670" lon="-1.1723070">
        <ele>930.8</ele>
        <time>2019-07-05T07:39:56Z</time>
      </trkpt>
      <trkpt lat="40.3586640" lon="-1.1724540">
        <ele>930.0</ele>
        <time>2019-07-05T07:39:58Z</time>
      </trkpt>
      <trkpt lat="40.3586130" lon="-1.1725330">
        <ele>929.8</ele>
        <time>2019-07-05T07:39:59Z</time>
      </trkpt>
      <trkpt lat="40.3584380" lon="-1.1728930">
        <ele>928.6</ele>
        <time>2019-07-05T07:40:03Z</time>
      </trkpt>
      <trkpt lat="40.3583760" lon="-1.1731030">
        <ele>927.6</ele>
        <time>2019-07-05T07:40:05Z</time>
      </trkpt>
      <trkpt lat="40.3583340" lon="-1.1733330">
        <ele>926.8</ele>
        <time>2019-07-05T07:40:07Z</time>
      </trkpt>
      <trkpt lat="40.3583190" lon="-1.1734520">
        <ele>926.2</ele>
        <time>2019-07-05T07:40:08Z</time>
      </trkpt>
      <trkpt lat="40.3583090" lon="-1.1736990">
        <ele>925.8</ele>
        <time>2019-07-05T07:40:10Z</time>
      </trkpt>
      <trkpt lat="40.3583170" lon="-1.1738240">
        <ele>925.2</ele>
        <time>2019-07-05T07:40:11Z</time>
      </trkpt>
      <trkpt lat="40.3583550" lon="-1.1740790">
        <ele>924.2</ele>
        <time>2019-07-05T07:40:13Z</time>
      </trkpt>
      <trkpt lat="40.3584230" lon="-1.1744750">
        <ele>922.6</ele>
        <time>2019-07-05T07:40:16Z</time>
      </trkpt>
      <trkpt lat="40.3584460" lon="-1.1746110">
        <ele>922.0</ele>
        <time>2019-07-05T07:40:17Z</time>
      </trkpt>
      <trkpt lat="40.3584670" lon="-1.1747490">
        <ele>921.6</ele>
        <time>2019-07-05T07:40:18Z</time>
      </trkpt>
      <trkpt lat="40.3584830" lon="-1.1748900">
        <ele>921.2</ele>
        <time>2019-07-05T07:40:19Z</time>
      </trkpt>
      <trkpt lat="40.3584870" lon="-1.1750330">
        <ele>920.6</ele>
        <time>2019-07-05T07:40:20Z</time>
      </trkpt>
      <trkpt lat="40.3584780" lon="-1.1751790">
        <ele>919.8</ele>
        <time>2019-07-05T07:40:21Z</time>
      </trkpt>
      <trkpt lat="40.3584600" lon="-1.1753240">
        <ele>919.4</ele>
        <time>2019-07-05T07:40:22Z</time>
      </trkpt>
      <trkpt lat="40.3584380" lon="-1.1754700">
        <ele>919.0</ele>
        <time>2019-07-05T07:40:23Z</time>
      </trkpt>
      <trkpt lat="40.3583840" lon="-1.1757550">
        <ele>918.0</ele>
        <time>2019-07-05T07:40:25Z</time>
      </trkpt>
      <trkpt lat="40.3583560" lon="-1.1758940">
        <ele>917.8</ele>
        <time>2019-07-05T07:40:26Z</time>
      </trkpt>
      <trkpt lat="40.3583020" lon="-1.1761580">
        <ele>917.0</ele>
        <time>2019-07-05T07:40:28Z</time>
      </trkpt>
      <trkpt lat="40.3581980" lon="-1.1766400">
        <ele>916.4</ele>
        <time>2019-07-05T07:40:32Z</time>
      </trkpt>
      <trkpt lat="40.3581790" lon="-1.1767530">
        <ele>916.4</ele>
        <time>2019-07-05T07:40:33Z</time>
      </trkpt>
      <trkpt lat="40.3581370" lon="-1.1770750">
        <ele>916.4</ele>
        <time>2019-07-05T07:40:36Z</time>
      </trkpt>
      <trkpt lat="40.3581260" lon="-1.1771760">
        <ele>916.4</ele>
        <time>2019-07-05T07:40:37Z</time>
      </trkpt>
      <trkpt lat="40.3581240" lon="-1.1775740">
        <ele>916.6</ele>
        <time>2019-07-05T07:40:41Z</time>
      </trkpt>
      <trkpt lat="40.3582000" lon="-1.1782320">
        <ele>916.8</ele>
        <time>2019-07-05T07:40:48Z</time>
      </trkpt>
      <trkpt lat="40.3582380" lon="-1.1788670">
        <ele>916.6</ele>
        <time>2019-07-05T07:40:55Z</time>
      </trkpt>
      <trkpt lat="40.3582490" lon="-1.1792140">
        <ele>916.8</ele>
        <time>2019-07-05T07:40:59Z</time>
      </trkpt>
      <trkpt lat="40.3582210" lon="-1.1793800">
        <ele>916.8</ele>
        <time>2019-07-05T07:41:01Z</time>
      </trkpt>
      <trkpt lat="40.3580790" lon="-1.1799000">
        <ele>917.6</ele>
        <time>2019-07-05T07:41:08Z</time>
      </trkpt>
      <trkpt lat="40.3580210" lon="-1.1801150">
        <ele>918.0</ele>
        <time>2019-07-05T07:41:11Z</time>
      </trkpt>
      <trkpt lat="40.3579780" lon="-1.1802580">
        <ele>918.0</ele>
        <time>2019-07-05T07:41:13Z</time>
      </trkpt>
      <trkpt lat="40.3578630" lon="-1.1806240">
        <ele>918.0</ele>
        <time>2019-07-05T07:41:18Z</time>
      </trkpt>
      <trkpt lat="40.3576400" lon="-1.1811310">
        <ele>917.6</ele>
        <time>2019-07-05T07:41:25Z</time>
      </trkpt>
      <trkpt lat="40.3574100" lon="-1.1816670">
        <ele>917.2</ele>
        <time>2019-07-05T07:41:32Z</time>
      </trkpt>
      <trkpt lat="40.3572540" lon="-1.1821600">
        <ele>917.2</ele>
        <time>2019-07-05T07:41:38Z</time>
      </trkpt>
      <trkpt lat="40.3570930" lon="-1.1825150">
        <ele>917.2</ele>
        <time>2019-07-05T07:41:43Z</time>
      </trkpt>
      <trkpt lat="40.3570680" lon="-1.1825880">
        <ele>917.4</ele>
        <time>2019-07-05T07:41:44Z</time>
      </trkpt>
      <trkpt lat="40.3570490" lon="-1.1826630">
        <ele>917.4</ele>
        <time>2019-07-05T07:41:45Z</time>
      </trkpt>
      <trkpt lat="40.3570010" lon="-1.1829730">
        <ele>917.8</ele>
        <time>2019-07-05T07:41:49Z</time>
      </trkpt>
      <trkpt lat="40.3569050" lon="-1.1833680">
        <ele>917.8</ele>
        <time>2019-07-05T07:41:54Z</time>
      </trkpt>
      <trkpt lat="40.3568740" lon="-1.1834440">
        <ele>917.8</ele>
        <time>2019-07-05T07:41:55Z</time>
      </trkpt>
      <trkpt lat="40.3567110" lon="-1.1835600">
        <ele>917.6</ele>
        <time>2019-07-05T07:41:58Z</time>
      </trkpt>
      <trkpt lat="40.3565820" lon="-1.1835360">
        <ele>917.6</ele>
        <time>2019-07-05T07:42:00Z</time>
      </trkpt>
      <trkpt lat="40.3563850" lon="-1.1834910">
        <ele>917.6</ele>
        <time>2019-07-05T07:42:03Z</time>
      </trkpt>
      <trkpt lat="40.3560940" lon="-1.1834620">
        <ele>918.2</ele>
        <time>2019-07-05T07:42:08Z</time>
      </trkpt>
      <trkpt lat="40.3560510" lon="-1.1834710">
        <ele>918.4</ele>
        <time>2019-07-05T07:42:09Z</time>
      </trkpt>
      <trkpt lat="40.3559530" lon="-1.1835300">
        <ele>919.2</ele>
        <time>2019-07-05T07:42:12Z</time>
      </trkpt>
      <trkpt lat="40.3559000" lon="-1.1836290">
        <ele>920.4</ele>
        <time>2019-07-05T07:42:15Z</time>
      </trkpt>
      <trkpt lat="40.3558900" lon="-1.1836670">
        <ele>920.8</ele>
        <time>2019-07-05T07:42:16Z</time>
      </trkpt>
      <trkpt lat="40.3558770" lon="-1.1837450">
        <ele>921.6</ele>
        <time>2019-07-05T07:42:18Z</time>
      </trkpt>
      <trkpt lat="40.3558740" lon="-1.1837830">
        <ele>922.0</ele>
        <time>2019-07-05T07:42:19Z</time>
      </trkpt>
      <trkpt lat="40.3558710" lon="-1.1838610">
        <ele>922.6</ele>
        <time>2019-07-05T07:42:21Z</time>
      </trkpt>
      <trkpt lat="40.3558700" lon="-1.1839400">
        <ele>923.4</ele>
        <time>2019-07-05T07:42:23Z</time>
      </trkpt>
      <trkpt lat="40.3558700" lon="-1.1840200">
        <ele>923.8</ele>
        <time>2019-07-05T07:42:25Z</time>
      </trkpt>
      <trkpt lat="40.3558620" lon="-1.1841800">
        <ele>924.8</ele>
        <time>2019-07-05T07:42:29Z</time>
      </trkpt>
      <trkpt lat="40.3558600" lon="-1.1842200">
        <ele>925.2</ele>
        <time>2019-07-05T07:42:30Z</time>
      </trkpt>
      <trkpt lat="40.3558550" lon="-1.1843370">
        <ele>926.2</ele>
        <time>2019-07-05T07:42:33Z</time>
      </trkpt>
      <trkpt lat="40.3558620" lon="-1.1844550">
        <ele>927.0</ele>
        <time>2019-07-05T07:42:36Z</time>
      </trkpt>
      <trkpt lat="40.3558610" lon="-1.1844940">
        <ele>927.2</ele>
        <time>2019-07-05T07:42:37Z</time>
      </trkpt>
      <trkpt lat="40.3558620" lon="-1.1845340">
        <ele>927.4</ele>
        <time>2019-07-05T07:42:38Z</time>
      </trkpt>
      <trkpt lat="40.3558650" lon="-1.1846930">
        <ele>928.4</ele>
        <time>2019-07-05T07:42:42Z</time>
      </trkpt>
      <trkpt lat="40.3558670" lon="-1.1847310">
        <ele>928.6</ele>
        <time>2019-07-05T07:42:43Z</time>
      </trkpt>
      <trkpt lat="40.3558690" lon="-1.1848910">
        <ele>929.8</ele>
        <time>2019-07-05T07:42:47Z</time>
      </trkpt>
      <trkpt lat="40.3558610" lon="-1.1850140">
        <ele>930.6</ele>
        <time>2019-07-05T07:42:50Z</time>
      </trkpt>
      <trkpt lat="40.3558620" lon="-1.1850540">
        <ele>930.8</ele>
        <time>2019-07-05T07:42:51Z</time>
      </trkpt>
      <trkpt lat="40.3558620" lon="-1.1852180">
        <ele>932.0</ele>
        <time>2019-07-05T07:42:55Z</time>
      </trkpt>
      <trkpt lat="40.3558440" lon="-1.1853350">
        <ele>933.0</ele>
        <time>2019-07-05T07:42:58Z</time>
      </trkpt>
      <trkpt lat="40.3558340" lon="-1.1853730">
        <ele>933.0</ele>
        <time>2019-07-05T07:42:59Z</time>
      </trkpt>
      <trkpt lat="40.3558120" lon="-1.1854870">
        <ele>934.2</ele>
        <time>2019-07-05T07:43:02Z</time>
      </trkpt>
      <trkpt lat="40.3557790" lon="-1.1855950">
        <ele>934.6</ele>
        <time>2019-07-05T07:43:05Z</time>
      </trkpt>
      <trkpt lat="40.3557010" lon="-1.1857270">
        <ele>935.6</ele>
        <time>2019-07-05T07:43:09Z</time>
      </trkpt>
      <trkpt lat="40.3556330" lon="-1.1858160">
        <ele>936.2</ele>
        <time>2019-07-05T07:43:12Z</time>
      </trkpt>
      <trkpt lat="40.3555790" lon="-1.1858610">
        <ele>936.6</ele>
        <time>2019-07-05T07:43:14Z</time>
      </trkpt>
      <trkpt lat="40.3554610" lon="-1.1859460">
        <ele>937.4</ele>
        <time>2019-07-05T07:43:18Z</time>
      </trkpt>
      <trkpt lat="40.3554320" lon="-1.1859660">
        <ele>937.6</ele>
        <time>2019-07-05T07:43:19Z</time>
      </trkpt>
      <trkpt lat="40.3552970" lon="-1.1860830">
        <ele>939.0</ele>
        <time>2019-07-05T07:43:24Z</time>
      </trkpt>
      <trkpt lat="40.3552480" lon="-1.1861430">
        <ele>939.6</ele>
        <time>2019-07-05T07:43:26Z</time>
      </trkpt>
      <trkpt lat="40.3551800" lon="-1.1862440">
        <ele>940.0</ele>
        <time>2019-07-05T07:43:29Z</time>
      </trkpt>
      <trkpt lat="40.3551080" lon="-1.1863940">
        <ele>941.0</ele>
        <time>2019-07-05T07:43:33Z</time>
      </trkpt>
      <trkpt lat="40.3550910" lon="-1.1864350">
        <ele>941.0</ele>
        <time>2019-07-05T07:43:34Z</time>
      </trkpt>
      <trkpt lat="40.3549980" lon="-1.1866930">
        <ele>942.2</ele>
        <time>2019-07-05T07:43:40Z</time>
      </trkpt>
      <trkpt lat="40.3549440" lon="-1.1869340">
        <ele>942.8</ele>
        <time>2019-07-05T07:43:45Z</time>
      </trkpt>
      <trkpt lat="40.3548930" lon="-1.1871280">
        <ele>943.2</ele>
        <time>2019-07-05T07:43:49Z</time>
      </trkpt>
      <trkpt lat="40.3548790" lon="-1.1871760">
        <ele>943.4</ele>
        <time>2019-07-05T07:43:50Z</time>
      </trkpt>
      <trkpt lat="40.3547760" lon="-1.1874420">
        <ele>944.4</ele>
        <time>2019-07-05T07:43:56Z</time>
      </trkpt>
      <trkpt lat="40.3547300" lon="-1.1875160">
        <ele>944.8</ele>
        <time>2019-07-05T07:43:58Z</time>
      </trkpt>
      <trkpt lat="40.3546610" lon="-1.1876290">
        <ele>945.4</ele>
        <time>2019-07-05T07:44:01Z</time>
      </trkpt>
      <trkpt lat="40.3545490" lon="-1.1877560">
        <ele>946.6</ele>
        <time>2019-07-05T07:44:05Z</time>
      </trkpt>
      <trkpt lat="40.3544010" lon="-1.1878930">
        <ele>947.6</ele>
        <time>2019-07-05T07:44:10Z</time>
      </trkpt>
      <trkpt lat="40.3543080" lon="-1.1879680">
        <ele>948.4</ele>
        <time>2019-07-05T07:44:13Z</time>
      </trkpt>
      <trkpt lat="40.3542740" lon="-1.1879880">
        <ele>948.8</ele>
        <time>2019-07-05T07:44:14Z</time>
      </trkpt>
      <trkpt lat="40.3541430" lon="-1.1880720">
        <ele>949.8</ele>
        <time>2019-07-05T07:44:18Z</time>
      </trkpt>
      <trkpt lat="40.3540510" lon="-1.1881430">
        <ele>950.4</ele>
        <time>2019-07-05T07:44:21Z</time>
      </trkpt>
      <trkpt lat="40.3539530" lon="-1.1882090">
        <ele>951.0</ele>
        <time>2019-07-05T07:44:24Z</time>
      </trkpt>
      <trkpt lat="40.3538610" lon="-1.1882860">
        <ele>951.6</ele>
        <time>2019-07-05T07:44:27Z</time>
      </trkpt>
      <trkpt lat="40.3537700" lon="-1.1883660">
        <ele>952.4</ele>
        <time>2019-07-05T07:44:30Z</time>
      </trkpt>
      <trkpt lat="40.3536190" lon="-1.1884970">
        <ele>953.4</ele>
        <time>2019-07-05T07:44:35Z</time>
      </trkpt>
      <trkpt lat="40.3535270" lon="-1.1885840">
        <ele>954.2</ele>
        <time>2019-07-05T07:44:38Z</time>
      </trkpt>
      <trkpt lat="40.3534420" lon="-1.1886760">
        <ele>954.6</ele>
        <time>2019-07-05T07:44:41Z</time>
      </trkpt>
      <trkpt lat="40.3533290" lon="-1.1887920">
        <ele>955.6</ele>
        <time>2019-07-05T07:44:45Z</time>
      </trkpt>
      <trkpt lat="40.3533000" lon="-1.1888180">
        <ele>955.8</ele>
        <time>2019-07-05T07:44:46Z</time>
      </trkpt>
      <trkpt lat="40.3530920" lon="-1.1890030">
        <ele>957.0</ele>
        <time>2019-07-05T07:44:53Z</time>
      </trkpt>
      <trkpt lat="40.3530600" lon="-1.1890260">
        <ele>957.2</ele>
        <time>2019-07-05T07:44:54Z</time>
      </trkpt>
      <trkpt lat="40.3529370" lon="-1.1891130">
        <ele>958.2</ele>
        <time>2019-07-05T07:44:58Z</time>
      </trkpt>
      <trkpt lat="40.3528770" lon="-1.1891650">
        <ele>958.4</ele>
        <time>2019-07-05T07:45:00Z</time>
      </trkpt>
      <trkpt lat="40.3527870" lon="-1.1892430">
        <ele>959.2</ele>
        <time>2019-07-05T07:45:03Z</time>
      </trkpt>
      <trkpt lat="40.3527570" lon="-1.1892710">
        <ele>959.4</ele>
        <time>2019-07-05T07:45:04Z</time>
      </trkpt>
      <trkpt lat="40.3526370" lon="-1.1893900">
        <ele>960.0</ele>
        <time>2019-07-05T07:45:08Z</time>
      </trkpt>
      <trkpt lat="40.3526090" lon="-1.1894240">
        <ele>960.4</ele>
        <time>2019-07-05T07:45:09Z</time>
      </trkpt>
      <trkpt lat="40.3524210" lon="-1.1896820">
        <ele>961.4</ele>
        <time>2019-07-05T07:45:16Z</time>
      </trkpt>
      <trkpt lat="40.3523700" lon="-1.1897680">
        <ele>961.6</ele>
        <time>2019-07-05T07:45:18Z</time>
      </trkpt>
      <trkpt lat="40.3521580" lon="-1.1901380">
        <ele>962.4</ele>
        <time>2019-07-05T07:45:26Z</time>
      </trkpt>
      <trkpt lat="40.3519440" lon="-1.1905380">
        <ele>963.4</ele>
        <time>2019-07-05T07:45:34Z</time>
      </trkpt>
      <trkpt lat="40.3518880" lon="-1.1906390">
        <ele>963.4</ele>
        <time>2019-07-05T07:45:36Z</time>
      </trkpt>
      <trkpt lat="40.3516640" lon="-1.1910440">
        <ele>964.2</ele>
        <time>2019-07-05T07:45:44Z</time>
      </trkpt>
      <trkpt lat="40.3516330" lon="-1.1910920">
        <ele>964.4</ele>
        <time>2019-07-05T07:45:45Z</time>
      </trkpt>
      <trkpt lat="40.3515680" lon="-1.1911830">
        <ele>964.6</ele>
        <time>2019-07-05T07:45:47Z</time>
      </trkpt>
      <trkpt lat="40.3514490" lon="-1.1913790">
        <ele>965.6</ele>
        <time>2019-07-05T07:45:51Z</time>
      </trkpt>
      <trkpt lat="40.3513850" lon="-1.1914720">
        <ele>965.8</ele>
        <time>2019-07-05T07:45:53Z</time>
      </trkpt>
      <trkpt lat="40.3511840" lon="-1.1917330">
        <ele>966.6</ele>
        <time>2019-07-05T07:45:59Z</time>
      </trkpt>
      <trkpt lat="40.3511200" lon="-1.1918150">
        <ele>967.0</ele>
        <time>2019-07-05T07:46:01Z</time>
      </trkpt>
      <trkpt lat="40.3509150" lon="-1.1920470">
        <ele>968.0</ele>
        <time>2019-07-05T07:46:07Z</time>
      </trkpt>
      <trkpt lat="40.3506320" lon="-1.1923550">
        <ele>969.0</ele>
        <time>2019-07-05T07:46:15Z</time>
      </trkpt>
      <trkpt lat="40.3505960" lon="-1.1923940">
        <ele>969.2</ele>
        <time>2019-07-05T07:46:16Z</time>
      </trkpt>
      <trkpt lat="40.3504090" lon="-1.1925880">
        <ele>969.4</ele>
        <time>2019-07-05T07:46:21Z</time>
      </trkpt>
      <trkpt lat="40.3501860" lon="-1.1928050">
        <ele>970.0</ele>
        <time>2019-07-05T07:46:27Z</time>
      </trkpt>
      <trkpt lat="40.3499180" lon="-1.1931000">
        <ele>971.2</ele>
        <time>2019-07-05T07:46:35Z</time>
      </trkpt>
      <trkpt lat="40.3498860" lon="-1.1931380">
        <ele>971.6</ele>
        <time>2019-07-05T07:46:36Z</time>
      </trkpt>
      <trkpt lat="40.3497690" lon="-1.1933030">
        <ele>972.6</ele>
        <time>2019-07-05T07:46:40Z</time>
      </trkpt>
      <trkpt lat="40.3496880" lon="-1.1934240">
        <ele>973.2</ele>
        <time>2019-07-05T07:46:43Z</time>
      </trkpt>
      <trkpt lat="40.3496380" lon="-1.1935050">
        <ele>973.6</ele>
        <time>2019-07-05T07:46:45Z</time>
      </trkpt>
      <trkpt lat="40.3494860" lon="-1.1937580">
        <ele>974.8</ele>
        <time>2019-07-05T07:46:51Z</time>
      </trkpt>
      <trkpt lat="40.3493810" lon="-1.1939360">
        <ele>975.8</ele>
        <time>2019-07-05T07:46:55Z</time>
      </trkpt>
      <trkpt lat="40.3492410" lon="-1.1941570">
        <ele>976.6</ele>
        <time>2019-07-05T07:47:00Z</time>
      </trkpt>
      <trkpt lat="40.3492110" lon="-1.1941980">
        <ele>976.6</ele>
        <time>2019-07-05T07:47:01Z</time>
      </trkpt>
      <trkpt lat="40.3491820" lon="-1.1942400">
        <ele>976.8</ele>
        <time>2019-07-05T07:47:02Z</time>
      </trkpt>
      <trkpt lat="40.3489950" lon="-1.1945380">
        <ele>977.6</ele>
        <time>2019-07-05T07:47:09Z</time>
      </trkpt>
      <trkpt lat="40.3489390" lon="-1.1946210">
        <ele>978.0</ele>
        <time>2019-07-05T07:47:11Z</time>
      </trkpt>
      <trkpt lat="40.3487220" lon="-1.1949080">
        <ele>979.2</ele>
        <time>2019-07-05T07:47:18Z</time>
      </trkpt>
      <trkpt lat="40.3484970" lon="-1.1952050">
        <ele>980.4</ele>
        <time>2019-07-05T07:47:25Z</time>
      </trkpt>
      <trkpt lat="40.3484620" lon="-1.1952470">
        <ele>980.6</ele>
        <time>2019-07-05T07:47:26Z</time>
      </trkpt>
      <trkpt lat="40.3482340" lon="-1.1955460">
        <ele>981.2</ele>
        <time>2019-07-05T07:47:33Z</time>
      </trkpt>
      <trkpt lat="40.3482020" lon="-1.1955880">
        <ele>981.2</ele>
        <time>2019-07-05T07:47:34Z</time>
      </trkpt>
      <trkpt lat="40.3481360" lon="-1.1956740">
        <ele>981.4</ele>
        <time>2019-07-05T07:47:36Z</time>
      </trkpt>
      <trkpt lat="40.3479100" lon="-1.1959780">
        <ele>982.2</ele>
        <time>2019-07-05T07:47:43Z</time>
      </trkpt>
      <trkpt lat="40.3478500" lon="-1.1960690">
        <ele>982.4</ele>
        <time>2019-07-05T07:47:45Z</time>
      </trkpt>
      <trkpt lat="40.3476370" lon="-1.1963860">
        <ele>983.0</ele>
        <time>2019-07-05T07:47:52Z</time>
      </trkpt>
      <trkpt lat="40.3475730" lon="-1.1964760">
        <ele>983.2</ele>
        <time>2019-07-05T07:47:54Z</time>
      </trkpt>
      <trkpt lat="40.3475130" lon="-1.1965690">
        <ele>983.6</ele>
        <time>2019-07-05T07:47:56Z</time>
      </trkpt>
      <trkpt lat="40.3473110" lon="-1.1969140">
        <ele>984.2</ele>
        <time>2019-07-05T07:48:03Z</time>
      </trkpt>
      <trkpt lat="40.3472330" lon="-1.1970650">
        <ele>984.6</ele>
        <time>2019-07-05T07:48:06Z</time>
      </trkpt>
      <trkpt lat="40.3470750" lon="-1.1973820">
        <ele>985.2</ele>
        <time>2019-07-05T07:48:12Z</time>
      </trkpt>
      <trkpt lat="40.3469630" lon="-1.1975870">
        <ele>985.8</ele>
        <time>2019-07-05T07:48:16Z</time>
      </trkpt>
      <trkpt lat="40.3468620" lon="-1.1978000">
        <ele>986.6</ele>
        <time>2019-07-05T07:48:20Z</time>
      </trkpt>
      <trkpt lat="40.3468110" lon="-1.1979050">
        <ele>987.0</ele>
        <time>2019-07-05T07:48:22Z</time>
      </trkpt>
      <trkpt lat="40.3466020" lon="-1.1982440">
        <ele>988.0</ele>
        <time>2019-07-05T07:48:29Z</time>
      </trkpt>
      <trkpt lat="40.3463900" lon="-1.1985430">
        <ele>988.8</ele>
        <time>2019-07-05T07:48:36Z</time>
      </trkpt>
      <trkpt lat="40.3463270" lon="-1.1986210">
        <ele>989.2</ele>
        <time>2019-07-05T07:48:38Z</time>
      </trkpt>
      <trkpt lat="40.3461780" lon="-1.1988220">
        <ele>990.0</ele>
        <time>2019-07-05T07:48:43Z</time>
      </trkpt>
      <trkpt lat="40.3461170" lon="-1.1989000">
        <ele>990.2</ele>
        <time>2019-07-05T07:48:45Z</time>
      </trkpt>
      <trkpt lat="40.3458600" lon="-1.1992060">
        <ele>991.2</ele>
        <time>2019-07-05T07:48:53Z</time>
      </trkpt>
      <trkpt lat="40.3457950" lon="-1.1992820">
        <ele>991.6</ele>
        <time>2019-07-05T07:48:55Z</time>
      </trkpt>
      <trkpt lat="40.3456590" lon="-1.1994360">
        <ele>992.2</ele>
        <time>2019-07-05T07:48:59Z</time>
      </trkpt>
      <trkpt lat="40.3454520" lon="-1.1996660">
        <ele>993.2</ele>
        <time>2019-07-05T07:49:05Z</time>
      </trkpt>
      <trkpt lat="40.3454190" lon="-1.1997030">
        <ele>993.4</ele>
        <time>2019-07-05T07:49:06Z</time>
      </trkpt>
      <trkpt lat="40.3451300" lon="-1.1999790">
        <ele>994.6</ele>
        <time>2019-07-05T07:49:14Z</time>
      </trkpt>
      <trkpt lat="40.3449410" lon="-1.2001210">
        <ele>995.6</ele>
        <time>2019-07-05T07:49:19Z</time>
      </trkpt>
      <trkpt lat="40.3447830" lon="-1.2002240">
        <ele>996.0</ele>
        <time>2019-07-05T07:49:23Z</time>
      </trkpt>
      <trkpt lat="40.3446230" lon="-1.2003270">
        <ele>996.8</ele>
        <time>2019-07-05T07:49:27Z</time>
      </trkpt>
      <trkpt lat="40.3443850" lon="-1.2004810">
        <ele>997.6</ele>
        <time>2019-07-05T07:49:33Z</time>
      </trkpt>
      <trkpt lat="40.3443450" lon="-1.2005070">
        <ele>997.8</ele>
        <time>2019-07-05T07:49:34Z</time>
      </trkpt>
      <trkpt lat="40.3440720" lon="-1.2006970">
        <ele>999.0</ele>
        <time>2019-07-05T07:49:41Z</time>
      </trkpt>
      <trkpt lat="40.3439960" lon="-1.2007560">
        <ele>999.2</ele>
        <time>2019-07-05T07:49:43Z</time>
      </trkpt>
      <trkpt lat="40.3438140" lon="-1.2009170">
        <ele>1000.0</ele>
        <time>2019-07-05T07:49:48Z</time>
      </trkpt>
      <trkpt lat="40.3436250" lon="-1.2010690">
        <ele>1000.6</ele>
        <time>2019-07-05T07:49:53Z</time>
      </trkpt>
      <trkpt lat="40.3434800" lon="-1.2012040">
        <ele>1001.0</ele>
        <time>2019-07-05T07:49:57Z</time>
      </trkpt>
      <trkpt lat="40.3432660" lon="-1.2014010">
        <ele>1001.6</ele>
        <time>2019-07-05T07:50:03Z</time>
      </trkpt>
      <trkpt lat="40.3431260" lon="-1.2015410">
        <ele>1002.2</ele>
        <time>2019-07-05T07:50:07Z</time>
      </trkpt>
      <trkpt lat="40.3429860" lon="-1.2016850">
        <ele>1002.8</ele>
        <time>2019-07-05T07:50:11Z</time>
      </trkpt>
      <trkpt lat="40.3428820" lon="-1.2017920">
        <ele>1003.2</ele>
        <time>2019-07-05T07:50:14Z</time>
      </trkpt>
      <trkpt lat="40.3426800" lon="-1.2020020">
        <ele>1004.2</ele>
        <time>2019-07-05T07:50:20Z</time>
      </trkpt>
      <trkpt lat="40.3426460" lon="-1.2020370">
        <ele>1004.4</ele>
        <time>2019-07-05T07:50:21Z</time>
      </trkpt>
      <trkpt lat="40.3426110" lon="-1.2020710">
        <ele>1004.6</ele>
        <time>2019-07-05T07:50:22Z</time>
      </trkpt>
      <trkpt lat="40.3424310" lon="-1.2022230">
        <ele>1005.4</ele>
        <time>2019-07-05T07:50:27Z</time>
      </trkpt>
      <trkpt lat="40.3423150" lon="-1.2023080">
        <ele>1005.8</ele>
        <time>2019-07-05T07:50:30Z</time>
      </trkpt>
      <trkpt lat="40.3421920" lon="-1.2023820">
        <ele>1006.4</ele>
        <time>2019-07-05T07:50:33Z</time>
      </trkpt>
      <trkpt lat="40.3419870" lon="-1.2024780">
        <ele>1007.4</ele>
        <time>2019-07-05T07:50:38Z</time>
      </trkpt>
      <trkpt lat="40.3419460" lon="-1.2024960">
        <ele>1007.4</ele>
        <time>2019-07-05T07:50:39Z</time>
      </trkpt>
      <trkpt lat="40.3418640" lon="-1.2025250">
        <ele>1007.8</ele>
        <time>2019-07-05T07:50:41Z</time>
      </trkpt>
      <trkpt lat="40.3417390" lon="-1.2025600">
        <ele>1008.6</ele>
        <time>2019-07-05T07:50:44Z</time>
      </trkpt>
      <trkpt lat="40.3416140" lon="-1.2025970">
        <ele>1009.2</ele>
        <time>2019-07-05T07:50:47Z</time>
      </trkpt>
      <trkpt lat="40.3414820" lon="-1.2026130">
        <ele>1009.6</ele>
        <time>2019-07-05T07:50:50Z</time>
      </trkpt>
      <trkpt lat="40.3412280" lon="-1.2026470">
        <ele>1010.4</ele>
        <time>2019-07-05T07:50:56Z</time>
      </trkpt>
      <trkpt lat="40.3411870" lon="-1.2026580">
        <ele>1010.6</ele>
        <time>2019-07-05T07:50:57Z</time>
      </trkpt>
      <trkpt lat="40.3408970" lon="-1.2026730">
        <ele>1011.4</ele>
        <time>2019-07-05T07:51:04Z</time>
      </trkpt>
      <trkpt lat="40.3407770" lon="-1.2026780">
        <ele>1011.8</ele>
        <time>2019-07-05T07:51:07Z</time>
      </trkpt>
      <trkpt lat="40.3405370" lon="-1.2026910">
        <ele>1012.6</ele>
        <time>2019-07-05T07:51:13Z</time>
      </trkpt>
      <trkpt lat="40.3404570" lon="-1.2026890">
        <ele>1013.0</ele>
        <time>2019-07-05T07:51:15Z</time>
      </trkpt>
      <trkpt lat="40.3402630" lon="-1.2026820">
        <ele>1014.0</ele>
        <time>2019-07-05T07:51:20Z</time>
      </trkpt>
      <trkpt lat="40.3402240" lon="-1.2026790">
        <ele>1014.2</ele>
        <time>2019-07-05T07:51:21Z</time>
      </trkpt>
      <trkpt lat="40.3399940" lon="-1.2026600">
        <ele>1015.2</ele>
        <time>2019-07-05T07:51:27Z</time>
      </trkpt>
      <trkpt lat="40.3397590" lon="-1.2026710">
        <ele>1016.2</ele>
        <time>2019-07-05T07:51:33Z</time>
      </trkpt>
      <trkpt lat="40.3397210" lon="-1.2026700">
        <ele>1016.2</ele>
        <time>2019-07-05T07:51:34Z</time>
      </trkpt>
      <trkpt lat="40.3395330" lon="-1.2026690">
        <ele>1017.4</ele>
        <time>2019-07-05T07:51:39Z</time>
      </trkpt>
      <trkpt lat="40.3393870" lon="-1.2026670">
        <ele>1018.4</ele>
        <time>2019-07-05T07:51:43Z</time>
      </trkpt>
      <trkpt lat="40.3393100" lon="-1.2026790">
        <ele>1018.8</ele>
        <time>2019-07-05T07:51:45Z</time>
      </trkpt>
      <trkpt lat="40.3391570" lon="-1.2027080">
        <ele>1019.6</ele>
        <time>2019-07-05T07:51:49Z</time>
      </trkpt>
      <trkpt lat="40.3390060" lon="-1.2027430">
        <ele>1020.4</ele>
        <time>2019-07-05T07:51:53Z</time>
      </trkpt>
      <trkpt lat="40.3389320" lon="-1.2027640">
        <ele>1021.0</ele>
        <time>2019-07-05T07:51:55Z</time>
      </trkpt>
      <trkpt lat="40.3387480" lon="-1.2028360">
        <ele>1022.0</ele>
        <time>2019-07-05T07:52:00Z</time>
      </trkpt>
      <trkpt lat="40.3386750" lon="-1.2028730">
        <ele>1022.6</ele>
        <time>2019-07-05T07:52:02Z</time>
      </trkpt>
      <trkpt lat="40.3385670" lon="-1.2029350">
        <ele>1023.0</ele>
        <time>2019-07-05T07:52:05Z</time>
      </trkpt>
      <trkpt lat="40.3383980" lon="-1.2030460">
        <ele>1024.2</ele>
        <time>2019-07-05T07:52:10Z</time>
      </trkpt>
      <trkpt lat="40.3382340" lon="-1.2031720">
        <ele>1025.2</ele>
        <time>2019-07-05T07:52:15Z</time>
      </trkpt>
      <trkpt lat="40.3381410" lon="-1.2032500">
        <ele>1025.6</ele>
        <time>2019-07-05T07:52:18Z</time>
      </trkpt>
      <trkpt lat="40.3380470" lon="-1.2033190">
        <ele>1026.4</ele>
        <time>2019-07-05T07:52:21Z</time>
      </trkpt>
      <trkpt lat="40.3379560" lon="-1.2033900">
        <ele>1027.4</ele>
        <time>2019-07-05T07:52:24Z</time>
      </trkpt>
      <trkpt lat="40.3379250" lon="-1.2034150">
        <ele>1027.6</ele>
        <time>2019-07-05T07:52:25Z</time>
      </trkpt>
      <trkpt lat="40.3378670" lon="-1.2034640">
        <ele>1028.2</ele>
        <time>2019-07-05T07:52:27Z</time>
      </trkpt>
      <trkpt lat="40.3377810" lon="-1.2035380">
        <ele>1028.8</ele>
        <time>2019-07-05T07:52:30Z</time>
      </trkpt>
      <trkpt lat="40.3376650" lon="-1.2036140">
        <ele>1030.0</ele>
        <time>2019-07-05T07:52:34Z</time>
      </trkpt>
      <trkpt lat="40.3374590" lon="-1.2037250">
        <ele>1031.2</ele>
        <time>2019-07-05T07:52:41Z</time>
      </trkpt>
      <trkpt lat="40.3373420" lon="-1.2037860">
        <ele>1032.2</ele>
        <time>2019-07-05T07:52:45Z</time>
      </trkpt>
      <trkpt lat="40.3372560" lon="-1.2038190">
        <ele>1033.0</ele>
        <time>2019-07-05T07:52:48Z</time>
      </trkpt>
      <trkpt lat="40.3372250" lon="-1.2038270">
        <ele>1033.2</ele>
        <time>2019-07-05T07:52:49Z</time>
      </trkpt>
      <trkpt lat="40.3370710" lon="-1.2038680">
        <ele>1034.2</ele>
        <time>2019-07-05T07:52:54Z</time>
      </trkpt>
      <trkpt lat="40.3370120" lon="-1.2038920">
        <ele>1035.0</ele>
        <time>2019-07-05T07:52:56Z</time>
      </trkpt>
      <trkpt lat="40.3369530" lon="-1.2039140">
        <ele>1035.2</ele>
        <time>2019-07-05T07:52:58Z</time>
      </trkpt>
      <trkpt lat="40.3368250" lon="-1.2039170">
        <ele>1036.2</ele>
        <time>2019-07-05T07:53:02Z</time>
      </trkpt>
      <trkpt lat="40.3367940" lon="-1.2039180">
        <ele>1036.4</ele>
        <time>2019-07-05T07:53:03Z</time>
      </trkpt>
      <trkpt lat="40.3366360" lon="-1.2039320">
        <ele>1037.4</ele>
        <time>2019-07-05T07:53:08Z</time>
      </trkpt>
      <trkpt lat="40.3365390" lon="-1.2039420">
        <ele>1038.0</ele>
        <time>2019-07-05T07:53:11Z</time>
      </trkpt>
      <trkpt lat="40.3364420" lon="-1.2039350">
        <ele>1038.4</ele>
        <time>2019-07-05T07:53:14Z</time>
      </trkpt>
      <trkpt lat="40.3363430" lon="-1.2039100">
        <ele>1039.0</ele>
        <time>2019-07-05T07:53:17Z</time>
      </trkpt>
      <trkpt lat="40.3362380" lon="-1.2038920">
        <ele>1039.6</ele>
        <time>2019-07-05T07:53:20Z</time>
      </trkpt>
      <trkpt lat="40.3361030" lon="-1.2038570">
        <ele>1040.2</ele>
        <time>2019-07-05T07:53:24Z</time>
      </trkpt>
      <trkpt lat="40.3360360" lon="-1.2038420">
        <ele>1040.6</ele>
        <time>2019-07-05T07:53:26Z</time>
      </trkpt>
      <trkpt lat="40.3359050" lon="-1.2038160">
        <ele>1042.0</ele>
        <time>2019-07-05T07:53:30Z</time>
      </trkpt>
      <trkpt lat="40.3357720" lon="-1.2038110">
        <ele>1042.6</ele>
        <time>2019-07-05T07:53:34Z</time>
      </trkpt>
      <trkpt lat="40.3356790" lon="-1.2037830">
        <ele>1043.2</ele>
        <time>2019-07-05T07:53:37Z</time>
      </trkpt>
      <trkpt lat="40.3355470" lon="-1.2037450">
        <ele>1043.8</ele>
        <time>2019-07-05T07:53:41Z</time>
      </trkpt>
      <trkpt lat="40.3354790" lon="-1.2037170">
        <ele>1044.2</ele>
        <time>2019-07-05T07:53:43Z</time>
      </trkpt>
      <trkpt lat="40.3353380" lon="-1.2036750">
        <ele>1044.8</ele>
        <time>2019-07-05T07:53:47Z</time>
      </trkpt>
      <trkpt lat="40.3352670" lon="-1.2036660">
        <ele>1045.0</ele>
        <time>2019-07-05T07:53:49Z</time>
      </trkpt>
      <trkpt lat="40.3350950" lon="-1.2036220">
        <ele>1046.2</ele>
        <time>2019-07-05T07:53:54Z</time>
      </trkpt>
      <trkpt lat="40.3350270" lon="-1.2036030">
        <ele>1046.6</ele>
        <time>2019-07-05T07:53:56Z</time>
      </trkpt>
      <trkpt lat="40.3349300" lon="-1.2035750">
        <ele>1047.4</ele>
        <time>2019-07-05T07:53:59Z</time>
      </trkpt>
      <trkpt lat="40.3347760" lon="-1.2035430">
        <ele>1048.2</ele>
        <time>2019-07-05T07:54:04Z</time>
      </trkpt>
      <trkpt lat="40.3347430" lon="-1.2035370">
        <ele>1048.4</ele>
        <time>2019-07-05T07:54:05Z</time>
      </trkpt>
      <trkpt lat="40.3345230" lon="-1.2034800">
        <ele>1049.4</ele>
        <time>2019-07-05T07:54:12Z</time>
      </trkpt>
      <trkpt lat="40.3344270" lon="-1.2034710">
        <ele>1050.0</ele>
        <time>2019-07-05T07:54:15Z</time>
      </trkpt>
      <trkpt lat="40.3343950" lon="-1.2034660">
        <ele>1050.4</ele>
        <time>2019-07-05T07:54:16Z</time>
      </trkpt>
      <trkpt lat="40.3342400" lon="-1.2034530">
        <ele>1051.6</ele>
        <time>2019-07-05T07:54:21Z</time>
      </trkpt>
      <trkpt lat="40.3341460" lon="-1.2034540">
        <ele>1052.0</ele>
        <time>2019-07-05T07:54:24Z</time>
      </trkpt>
      <trkpt lat="40.3340200" lon="-1.2034580">
        <ele>1052.6</ele>
        <time>2019-07-05T07:54:28Z</time>
      </trkpt>
      <trkpt lat="40.3339270" lon="-1.2034560">
        <ele>1053.4</ele>
        <time>2019-07-05T07:54:31Z</time>
      </trkpt>
      <trkpt lat="40.3338970" lon="-1.2034550">
        <ele>1053.6</ele>
        <time>2019-07-05T07:54:32Z</time>
      </trkpt>
      <trkpt lat="40.3336780" lon="-1.2034580">
        <ele>1054.8</ele>
        <time>2019-07-05T07:54:39Z</time>
      </trkpt>
      <trkpt lat="40.3335210" lon="-1.2034490">
        <ele>1055.8</ele>
        <time>2019-07-05T07:54:44Z</time>
      </trkpt>
      <trkpt lat="40.3334580" lon="-1.2034390">
        <ele>1056.2</ele>
        <time>2019-07-05T07:54:46Z</time>
      </trkpt>
      <trkpt lat="40.3332740" lon="-1.2034140">
        <ele>1056.8</ele>
        <time>2019-07-05T07:54:52Z</time>
      </trkpt>
      <trkpt lat="40.3332430" lon="-1.2034110">
        <ele>1057.0</ele>
        <time>2019-07-05T07:54:53Z</time>
      </trkpt>
      <trkpt lat="40.3331200" lon="-1.2033900">
        <ele>1058.0</ele>
        <time>2019-07-05T07:54:57Z</time>
      </trkpt>
      <trkpt lat="40.3329590" lon="-1.2033470">
        <ele>1059.0</ele>
        <time>2019-07-05T07:55:02Z</time>
      </trkpt>
      <trkpt lat="40.3329270" lon="-1.2033390">
        <ele>1059.0</ele>
        <time>2019-07-05T07:55:03Z</time>
      </trkpt>
      <trkpt lat="40.3327370" lon="-1.2033000">
        <ele>1060.2</ele>
        <time>2019-07-05T07:55:09Z</time>
      </trkpt>
      <trkpt lat="40.3326720" lon="-1.2032960">
        <ele>1061.0</ele>
        <time>2019-07-05T07:55:11Z</time>
      </trkpt>
      <trkpt lat="40.3326060" lon="-1.2032920">
        <ele>1061.4</ele>
        <time>2019-07-05T07:55:13Z</time>
      </trkpt>
      <trkpt lat="40.3324460" lon="-1.2032790">
        <ele>1062.6</ele>
        <time>2019-07-05T07:55:18Z</time>
      </trkpt>
      <trkpt lat="40.3323500" lon="-1.2032840">
        <ele>1063.4</ele>
        <time>2019-07-05T07:55:21Z</time>
      </trkpt>
      <trkpt lat="40.3323180" lon="-1.2032880">
        <ele>1063.6</ele>
        <time>2019-07-05T07:55:22Z</time>
      </trkpt>
      <trkpt lat="40.3321590" lon="-1.2033000">
        <ele>1064.8</ele>
        <time>2019-07-05T07:55:27Z</time>
      </trkpt>
      <trkpt lat="40.3320960" lon="-1.2033040">
        <ele>1065.4</ele>
        <time>2019-07-05T07:55:29Z</time>
      </trkpt>
      <trkpt lat="40.3320330" lon="-1.2033090">
        <ele>1065.8</ele>
        <time>2019-07-05T07:55:31Z</time>
      </trkpt>
      <trkpt lat="40.3318810" lon="-1.2033490">
        <ele>1067.0</ele>
        <time>2019-07-05T07:55:36Z</time>
      </trkpt>
      <trkpt lat="40.3317250" lon="-1.2033830">
        <ele>1068.2</ele>
        <time>2019-07-05T07:55:41Z</time>
      </trkpt>
      <trkpt lat="40.3316310" lon="-1.2034130">
        <ele>1069.0</ele>
        <time>2019-07-05T07:55:44Z</time>
      </trkpt>
      <trkpt lat="40.3316010" lon="-1.2034260">
        <ele>1069.2</ele>
        <time>2019-07-05T07:55:45Z</time>
      </trkpt>
      <trkpt lat="40.3314500" lon="-1.2034950">
        <ele>1070.4</ele>
        <time>2019-07-05T07:55:50Z</time>
      </trkpt>
      <trkpt lat="40.3313610" lon="-1.2035320">
        <ele>1071.0</ele>
        <time>2019-07-05T07:55:53Z</time>
      </trkpt>
      <trkpt lat="40.3313020" lon="-1.2035600">
        <ele>1071.4</ele>
        <time>2019-07-05T07:55:55Z</time>
      </trkpt>
      <trkpt lat="40.3311500" lon="-1.2036170">
        <ele>1072.6</ele>
        <time>2019-07-05T07:56:00Z</time>
      </trkpt>
      <trkpt lat="40.3310940" lon="-1.2036450">
        <ele>1073.0</ele>
        <time>2019-07-05T07:56:02Z</time>
      </trkpt>
      <trkpt lat="40.3309730" lon="-1.2037060">
        <ele>1073.6</ele>
        <time>2019-07-05T07:56:06Z</time>
      </trkpt>
      <trkpt lat="40.3308860" lon="-1.2037480">
        <ele>1074.8</ele>
        <time>2019-07-05T07:56:09Z</time>
      </trkpt>
      <trkpt lat="40.3308550" lon="-1.2037600">
        <ele>1075.0</ele>
        <time>2019-07-05T07:56:10Z</time>
      </trkpt>
      <trkpt lat="40.3306640" lon="-1.2038250">
        <ele>1075.6</ele>
        <time>2019-07-05T07:56:16Z</time>
      </trkpt>
      <trkpt lat="40.3305680" lon="-1.2038560">
        <ele>1076.4</ele>
        <time>2019-07-05T07:56:19Z</time>
      </trkpt>
      <trkpt lat="40.3305050" lon="-1.2038800">
        <ele>1076.8</ele>
        <time>2019-07-05T07:56:21Z</time>
      </trkpt>
      <trkpt lat="40.3303760" lon="-1.2039150">
        <ele>1077.8</ele>
        <time>2019-07-05T07:56:25Z</time>
      </trkpt>
      <trkpt lat="40.3302790" lon="-1.2039490">
        <ele>1078.4</ele>
        <time>2019-07-05T07:56:28Z</time>
      </trkpt>
      <trkpt lat="40.3301760" lon="-1.2039760">
        <ele>1079.0</ele>
        <time>2019-07-05T07:56:31Z</time>
      </trkpt>
      <trkpt lat="40.3300310" lon="-1.2040090">
        <ele>1079.6</ele>
        <time>2019-07-05T07:56:35Z</time>
      </trkpt>
      <trkpt lat="40.3299240" lon="-1.2040390">
        <ele>1080.2</ele>
        <time>2019-07-05T07:56:38Z</time>
      </trkpt>
      <trkpt lat="40.3297450" lon="-1.2040830">
        <ele>1080.6</ele>
        <time>2019-07-05T07:56:43Z</time>
      </trkpt>
      <trkpt lat="40.3296750" lon="-1.2040970">
        <ele>1080.6</ele>
        <time>2019-07-05T07:56:45Z</time>
      </trkpt>
      <trkpt lat="40.3295360" lon="-1.2041400">
        <ele>1081.0</ele>
        <time>2019-07-05T07:56:49Z</time>
      </trkpt>
      <trkpt lat="40.3295000" lon="-1.2041490">
        <ele>1081.2</ele>
        <time>2019-07-05T07:56:50Z</time>
      </trkpt>
      <trkpt lat="40.3293520" lon="-1.2041760">
        <ele>1081.8</ele>
        <time>2019-07-05T07:56:54Z</time>
      </trkpt>
      <trkpt lat="40.3293160" lon="-1.2041820">
        <ele>1081.8</ele>
        <time>2019-07-05T07:56:55Z</time>
      </trkpt>
      <trkpt lat="40.3292060" lon="-1.2042160">
        <ele>1082.4</ele>
        <time>2019-07-05T07:56:58Z</time>
      </trkpt>
      <trkpt lat="40.3290910" lon="-1.2042480">
        <ele>1082.6</ele>
        <time>2019-07-05T07:57:01Z</time>
      </trkpt>
      <trkpt lat="40.3288190" lon="-1.2043160">
        <ele>1083.2</ele>
        <time>2019-07-05T07:57:08Z</time>
      </trkpt>
      <trkpt lat="40.3287810" lon="-1.2043260">
        <ele>1083.2</ele>
        <time>2019-07-05T07:57:09Z</time>
      </trkpt>
      <trkpt lat="40.3284750" lon="-1.2044080">
        <ele>1084.0</ele>
        <time>2019-07-05T07:57:17Z</time>
      </trkpt>
      <trkpt lat="40.3283970" lon="-1.2044250">
        <ele>1084.2</ele>
        <time>2019-07-05T07:57:19Z</time>
      </trkpt>
      <trkpt lat="40.3282030" lon="-1.2044730">
        <ele>1084.6</ele>
        <time>2019-07-05T07:57:24Z</time>
      </trkpt>
      <trkpt lat="40.3280840" lon="-1.2045060">
        <ele>1085.0</ele>
        <time>2019-07-05T07:57:27Z</time>
      </trkpt>
      <trkpt lat="40.3278420" lon="-1.2045780">
        <ele>1085.4</ele>
        <time>2019-07-05T07:57:33Z</time>
      </trkpt>
      <trkpt lat="40.3277600" lon="-1.2046080">
        <ele>1085.4</ele>
        <time>2019-07-05T07:57:35Z</time>
      </trkpt>
      <trkpt lat="40.3275100" lon="-1.2046970">
        <ele>1086.4</ele>
        <time>2019-07-05T07:57:41Z</time>
      </trkpt>
      <trkpt lat="40.3274280" lon="-1.2047330">
        <ele>1086.4</ele>
        <time>2019-07-05T07:57:43Z</time>
      </trkpt>
      <trkpt lat="40.3271580" lon="-1.2048920">
        <ele>1087.2</ele>
        <time>2019-07-05T07:57:50Z</time>
      </trkpt>
      <trkpt lat="40.3271220" lon="-1.2049160">
        <ele>1087.4</ele>
        <time>2019-07-05T07:57:51Z</time>
      </trkpt>
      <trkpt lat="40.3269760" lon="-1.2050420">
        <ele>1087.8</ele>
        <time>2019-07-05T07:57:56Z</time>
      </trkpt>
      <trkpt lat="40.3269480" lon="-1.2050700">
        <ele>1088.0</ele>
        <time>2019-07-05T07:57:57Z</time>
      </trkpt>
      <trkpt lat="40.3267620" lon="-1.2053040">
        <ele>1088.6</ele>
        <time>2019-07-05T07:58:04Z</time>
      </trkpt>
      <trkpt lat="40.3267360" lon="-1.2053440">
        <ele>1088.6</ele>
        <time>2019-07-05T07:58:05Z</time>
      </trkpt>
      <trkpt lat="40.3265520" lon="-1.2056500">
        <ele>1088.0</ele>
        <time>2019-07-05T07:58:13Z</time>
      </trkpt>
      <trkpt lat="40.3263970" lon="-1.2060400">
        <ele>1087.8</ele>
        <time>2019-07-05T07:58:21Z</time>
      </trkpt>
      <trkpt lat="40.3263000" lon="-1.2064560">
        <ele>1087.6</ele>
        <time>2019-07-05T07:58:28Z</time>
      </trkpt>
      <trkpt lat="40.3262800" lon="-1.2065780">
        <ele>1087.4</ele>
        <time>2019-07-05T07:58:30Z</time>
      </trkpt>
      <trkpt lat="40.3262720" lon="-1.2068310">
        <ele>1087.4</ele>
        <time>2019-07-05T07:58:34Z</time>
      </trkpt>
      <trkpt lat="40.3262840" lon="-1.2071700">
        <ele>1087.0</ele>
        <time>2019-07-05T07:58:39Z</time>
      </trkpt>
      <trkpt lat="40.3262970" lon="-1.2073010">
        <ele>1087.0</ele>
        <time>2019-07-05T07:58:41Z</time>
      </trkpt>
      <trkpt lat="40.3263740" lon="-1.2076920">
        <ele>1086.4</ele>
        <time>2019-07-05T07:58:47Z</time>
      </trkpt>
      <trkpt lat="40.3263930" lon="-1.2077560">
        <ele>1086.2</ele>
        <time>2019-07-05T07:58:48Z</time>
      </trkpt>
      <trkpt lat="40.3264140" lon="-1.2078200">
        <ele>1086.2</ele>
        <time>2019-07-05T07:58:49Z</time>
      </trkpt>
      <trkpt lat="40.3264620" lon="-1.2079480">
        <ele>1086.0</ele>
        <time>2019-07-05T07:58:51Z</time>
      </trkpt>
      <trkpt lat="40.3265150" lon="-1.2080730">
        <ele>1086.0</ele>
        <time>2019-07-05T07:58:53Z</time>
      </trkpt>
      <trkpt lat="40.3266010" lon="-1.2082440">
        <ele>1085.8</ele>
        <time>2019-07-05T07:58:56Z</time>
      </trkpt>
      <trkpt lat="40.3266950" lon="-1.2084080">
        <ele>1085.8</ele>
        <time>2019-07-05T07:58:59Z</time>
      </trkpt>
      <trkpt lat="40.3268230" lon="-1.2086300">
        <ele>1085.8</ele>
        <time>2019-07-05T07:59:03Z</time>
      </trkpt>
      <trkpt lat="40.3268560" lon="-1.2086860">
        <ele>1085.8</ele>
        <time>2019-07-05T07:59:04Z</time>
      </trkpt>
      <trkpt lat="40.3269580" lon="-1.2088480">
        <ele>1085.8</ele>
        <time>2019-07-05T07:59:07Z</time>
      </trkpt>
      <trkpt lat="40.3270980" lon="-1.2090570">
        <ele>1085.6</ele>
        <time>2019-07-05T07:59:11Z</time>
      </trkpt>
      <trkpt lat="40.3271570" lon="-1.2091720">
        <ele>1085.8</ele>
        <time>2019-07-05T07:59:13Z</time>
      </trkpt>
      <trkpt lat="40.3273950" lon="-1.2096310">
        <ele>1085.4</ele>
        <time>2019-07-05T07:59:21Z</time>
      </trkpt>
      <trkpt lat="40.3276250" lon="-1.2102400">
        <ele>1085.6</ele>
        <time>2019-07-05T07:59:31Z</time>
      </trkpt>
      <trkpt lat="40.3278040" lon="-1.2107870">
        <ele>1085.4</ele>
        <time>2019-07-05T07:59:40Z</time>
      </trkpt>
      <trkpt lat="40.3279480" lon="-1.2112680">
        <ele>1085.6</ele>
        <time>2019-07-05T07:59:48Z</time>
      </trkpt>
      <trkpt lat="40.3279990" lon="-1.2116110">
        <ele>1085.4</ele>
        <time>2019-07-05T07:59:53Z</time>
      </trkpt>
      <trkpt lat="40.3280080" lon="-1.2116850">
        <ele>1085.4</ele>
        <time>2019-07-05T07:59:54Z</time>
      </trkpt>
      <trkpt lat="40.3280390" lon="-1.2119150">
        <ele>1085.2</ele>
        <time>2019-07-05T07:59:57Z</time>
      </trkpt>
      <trkpt lat="40.3280460" lon="-1.2119940">
        <ele>1085.0</ele>
        <time>2019-07-05T07:59:58Z</time>
      </trkpt>
      <trkpt lat="40.3280720" lon="-1.2123910">
        <ele>1084.4</ele>
        <time>2019-07-05T08:00:03Z</time>
      </trkpt>
      <trkpt lat="40.3280710" lon="-1.2128480">
        <ele>1084.2</ele>
        <time>2019-07-05T08:00:09Z</time>
      </trkpt>
      <trkpt lat="40.3280660" lon="-1.2129200">
        <ele>1084.2</ele>
        <time>2019-07-05T08:00:10Z</time>
      </trkpt>
      <trkpt lat="40.3280550" lon="-1.2129910">
        <ele>1084.2</ele>
        <time>2019-07-05T08:00:11Z</time>
      </trkpt>
      <trkpt lat="40.3280030" lon="-1.2131970">
        <ele>1084.4</ele>
        <time>2019-07-05T08:00:14Z</time>
      </trkpt>
      <trkpt lat="40.3279330" lon="-1.2133860">
        <ele>1084.6</ele>
        <time>2019-07-05T08:00:17Z</time>
      </trkpt>
      <trkpt lat="40.3279010" lon="-1.2134390">
        <ele>1084.8</ele>
        <time>2019-07-05T08:00:18Z</time>
      </trkpt>
      <trkpt lat="40.3276910" lon="-1.2137400">
        <ele>1085.0</ele>
        <time>2019-07-05T08:00:24Z</time>
      </trkpt>
      <trkpt lat="40.3276520" lon="-1.2137860">
        <ele>1085.0</ele>
        <time>2019-07-05T08:00:25Z</time>
      </trkpt>
      <trkpt lat="40.3275730" lon="-1.2138790">
        <ele>1085.2</ele>
        <time>2019-07-05T08:00:27Z</time>
      </trkpt>
      <trkpt lat="40.3273870" lon="-1.2141120">
        <ele>1085.4</ele>
        <time>2019-07-05T08:00:32Z</time>
      </trkpt>
      <trkpt lat="40.3273490" lon="-1.2141550">
        <ele>1085.6</ele>
        <time>2019-07-05T08:00:33Z</time>
      </trkpt>
      <trkpt lat="40.3270600" lon="-1.2144980">
        <ele>1086.0</ele>
        <time>2019-07-05T08:00:41Z</time>
      </trkpt>
      <trkpt lat="40.3270280" lon="-1.2145440">
        <ele>1086.2</ele>
        <time>2019-07-05T08:00:42Z</time>
      </trkpt>
      <trkpt lat="40.3268670" lon="-1.2147680">
        <ele>1086.4</ele>
        <time>2019-07-05T08:00:47Z</time>
      </trkpt>
      <trkpt lat="40.3268310" lon="-1.2148070">
        <ele>1086.6</ele>
        <time>2019-07-05T08:00:48Z</time>
      </trkpt>
      <trkpt lat="40.3266510" lon="-1.2150310">
        <ele>1086.6</ele>
        <time>2019-07-05T08:00:53Z</time>
      </trkpt>
      <trkpt lat="40.3265800" lon="-1.2151270">
        <ele>1086.8</ele>
        <time>2019-07-05T08:00:55Z</time>
      </trkpt>
      <trkpt lat="40.3264030" lon="-1.2153670">
        <ele>1087.2</ele>
        <time>2019-07-05T08:01:00Z</time>
      </trkpt>
      <trkpt lat="40.3262250" lon="-1.2156080">
        <ele>1087.4</ele>
        <time>2019-07-05T08:01:05Z</time>
      </trkpt>
      <trkpt lat="40.3259860" lon="-1.2159490">
        <ele>1088.0</ele>
        <time>2019-07-05T08:01:12Z</time>
      </trkpt>
      <trkpt lat="40.3259170" lon="-1.2160440">
        <ele>1088.4</ele>
        <time>2019-07-05T08:01:14Z</time>
      </trkpt>
      <trkpt lat="40.3256870" lon="-1.2163790">
        <ele>1089.2</ele>
        <time>2019-07-05T08:01:21Z</time>
      </trkpt>
      <trkpt lat="40.3256220" lon="-1.2164660">
        <ele>1089.6</ele>
        <time>2019-07-05T08:01:23Z</time>
      </trkpt>
      <trkpt lat="40.3254390" lon="-1.2167380">
        <ele>1090.2</ele>
        <time>2019-07-05T08:01:29Z</time>
      </trkpt>
      <trkpt lat="40.3254080" lon="-1.2167820">
        <ele>1090.4</ele>
        <time>2019-07-05T08:01:30Z</time>
      </trkpt>
      <trkpt lat="40.3253160" lon="-1.2169100">
        <ele>1090.8</ele>
        <time>2019-07-05T08:01:33Z</time>
      </trkpt>
      <trkpt lat="40.3252350" lon="-1.2170480">
        <ele>1091.4</ele>
        <time>2019-07-05T08:01:36Z</time>
      </trkpt>
      <trkpt lat="40.3251800" lon="-1.2171380">
        <ele>1091.6</ele>
        <time>2019-07-05T08:01:38Z</time>
      </trkpt>
      <trkpt lat="40.3249990" lon="-1.2174740">
        <ele>1092.6</ele>
        <time>2019-07-05T08:01:45Z</time>
      </trkpt>
      <trkpt lat="40.3249760" lon="-1.2175240">
        <ele>1092.6</ele>
        <time>2019-07-05T08:01:46Z</time>
      </trkpt>
      <trkpt lat="40.3248830" lon="-1.2177180">
        <ele>1093.6</ele>
        <time>2019-07-05T08:01:50Z</time>
      </trkpt>
      <trkpt lat="40.3248600" lon="-1.2177640">
        <ele>1093.8</ele>
        <time>2019-07-05T08:01:51Z</time>
      </trkpt>
      <trkpt lat="40.3247950" lon="-1.2178990">
        <ele>1094.2</ele>
        <time>2019-07-05T08:01:54Z</time>
      </trkpt>
      <trkpt lat="40.3246880" lon="-1.2181280">
        <ele>1094.6</ele>
        <time>2019-07-05T08:01:59Z</time>
      </trkpt>
      <trkpt lat="40.3245570" lon="-1.2184040">
        <ele>1095.8</ele>
        <time>2019-07-05T08:02:05Z</time>
      </trkpt>
      <trkpt lat="40.3245370" lon="-1.2184520">
        <ele>1095.8</ele>
        <time>2019-07-05T08:02:06Z</time>
      </trkpt>
      <trkpt lat="40.3243910" lon="-1.2187770">
        <ele>1096.8</ele>
        <time>2019-07-05T08:02:13Z</time>
      </trkpt>
      <trkpt lat="40.3243250" lon="-1.2189190">
        <ele>1097.0</ele>
        <time>2019-07-05T08:02:16Z</time>
      </trkpt>
      <trkpt lat="40.3241900" lon="-1.2192070">
        <ele>1097.8</ele>
        <time>2019-07-05T08:02:22Z</time>
      </trkpt>
      <trkpt lat="40.3240300" lon="-1.2195380">
        <ele>1098.8</ele>
        <time>2019-07-05T08:02:29Z</time>
      </trkpt>
      <trkpt lat="40.3240080" lon="-1.2195860">
        <ele>1099.0</ele>
        <time>2019-07-05T08:02:30Z</time>
      </trkpt>
      <trkpt lat="40.3238000" lon="-1.2200110">
        <ele>1100.0</ele>
        <time>2019-07-05T08:02:39Z</time>
      </trkpt>
      <trkpt lat="40.3235900" lon="-1.2204400">
        <ele>1101.0</ele>
        <time>2019-07-05T08:02:48Z</time>
      </trkpt>
      <trkpt lat="40.3235690" lon="-1.2204890">
        <ele>1101.0</ele>
        <time>2019-07-05T08:02:49Z</time>
      </trkpt>
      <trkpt lat="40.3235470" lon="-1.2205370">
        <ele>1101.2</ele>
        <time>2019-07-05T08:02:50Z</time>
      </trkpt>
      <trkpt lat="40.3234400" lon="-1.2207890">
        <ele>1102.2</ele>
        <time>2019-07-05T08:02:55Z</time>
      </trkpt>
      <trkpt lat="40.3233360" lon="-1.2210550">
        <ele>1103.0</ele>
        <time>2019-07-05T08:03:00Z</time>
      </trkpt>
      <trkpt lat="40.3232600" lon="-1.2212720">
        <ele>1103.4</ele>
        <time>2019-07-05T08:03:04Z</time>
      </trkpt>
      <trkpt lat="40.3231940" lon="-1.2214950">
        <ele>1103.8</ele>
        <time>2019-07-05T08:03:08Z</time>
      </trkpt>
      <trkpt lat="40.3230730" lon="-1.2220310">
        <ele>1104.2</ele>
        <time>2019-07-05T08:03:17Z</time>
      </trkpt>
      <trkpt lat="40.3230640" lon="-1.2220930">
        <ele>1104.2</ele>
        <time>2019-07-05T08:03:18Z</time>
      </trkpt>
      <trkpt lat="40.3230470" lon="-1.2224200">
        <ele>1104.4</ele>
        <time>2019-07-05T08:03:23Z</time>
      </trkpt>
      <trkpt lat="40.3230630" lon="-1.2228240">
        <ele>1104.6</ele>
        <time>2019-07-05T08:03:29Z</time>
      </trkpt>
      <trkpt lat="40.3230830" lon="-1.2230990">
        <ele>1105.0</ele>
        <time>2019-07-05T08:03:33Z</time>
      </trkpt>
      <trkpt lat="40.3231060" lon="-1.2233750">
        <ele>1105.2</ele>
        <time>2019-07-05T08:03:37Z</time>
      </trkpt>
      <trkpt lat="40.3231280" lon="-1.2237880">
        <ele>1105.8</ele>
        <time>2019-07-05T08:03:43Z</time>
      </trkpt>
      <trkpt lat="40.3231530" lon="-1.2242750">
        <ele>1106.0</ele>
        <time>2019-07-05T08:03:50Z</time>
      </trkpt>
      <trkpt lat="40.3231580" lon="-1.2244180">
        <ele>1105.8</ele>
        <time>2019-07-05T08:03:52Z</time>
      </trkpt>
      <trkpt lat="40.3231670" lon="-1.2245580">
        <ele>1105.8</ele>
        <time>2019-07-05T08:03:54Z</time>
      </trkpt>
      <trkpt lat="40.3231410" lon="-1.2247690">
        <ele>1105.4</ele>
        <time>2019-07-05T08:03:57Z</time>
      </trkpt>
      <trkpt lat="40.3230500" lon="-1.2253170">
        <ele>1105.0</ele>
        <time>2019-07-05T08:04:04Z</time>
      </trkpt>
      <trkpt lat="40.3230280" lon="-1.2253960">
        <ele>1105.0</ele>
        <time>2019-07-05T08:04:05Z</time>
      </trkpt>
      <trkpt lat="40.3229300" lon="-1.2256250">
        <ele>1104.8</ele>
        <time>2019-07-05T08:04:08Z</time>
      </trkpt>
      <trkpt lat="40.3227800" lon="-1.2259330">
        <ele>1104.2</ele>
        <time>2019-07-05T08:04:12Z</time>
      </trkpt>
      <trkpt lat="40.3227410" lon="-1.2260090">
        <ele>1104.0</ele>
        <time>2019-07-05T08:04:13Z</time>
      </trkpt>
      <trkpt lat="40.3225810" lon="-1.2263110">
        <ele>1103.0</ele>
        <time>2019-07-05T08:04:17Z</time>
      </trkpt>
      <trkpt lat="40.3225400" lon="-1.2263850">
        <ele>1102.8</ele>
        <time>2019-07-05T08:04:18Z</time>
      </trkpt>
      <trkpt lat="40.3223550" lon="-1.2267550">
        <ele>1102.6</ele>
        <time>2019-07-05T08:04:23Z</time>
      </trkpt>
      <trkpt lat="40.3222520" lon="-1.2269650">
        <ele>1102.8</ele>
        <time>2019-07-05T08:04:25Z</time>
      </trkpt>
      <trkpt lat="40.3219920" lon="-1.2274680">
        <ele>1103.2</ele>
        <time>2019-07-05T08:04:34Z</time>
      </trkpt>
      <trkpt lat="40.3218200" lon="-1.2278310">
        <ele>1103.6</ele>
        <time>2019-07-05T08:04:40Z</time>
      </trkpt>
      <trkpt lat="40.3217960" lon="-1.2278910">
        <ele>1103.8</ele>
        <time>2019-07-05T08:04:41Z</time>
      </trkpt>
      <trkpt lat="40.3217730" lon="-1.2279500">
        <ele>1103.8</ele>
        <time>2019-07-05T08:04:42Z</time>
      </trkpt>
      <trkpt lat="40.3215920" lon="-1.2284180">
        <ele>1104.6</ele>
        <time>2019-07-05T08:04:49Z</time>
      </trkpt>
      <trkpt lat="40.3214630" lon="-1.2287710">
        <ele>1104.8</ele>
        <time>2019-07-05T08:04:55Z</time>
      </trkpt>
      <trkpt lat="40.3214170" lon="-1.2288910">
        <ele>1105.2</ele>
        <time>2019-07-05T08:04:58Z</time>
      </trkpt>
      <trkpt lat="40.3212830" lon="-1.2293300">
        <ele>1105.8</ele>
        <time>2019-07-05T08:05:05Z</time>
      </trkpt>
      <trkpt lat="40.3211710" lon="-1.2297080">
        <ele>1105.8</ele>
        <time>2019-07-05T08:05:11Z</time>
      </trkpt>
      <trkpt lat="40.3211540" lon="-1.2297730">
        <ele>1106.0</ele>
        <time>2019-07-05T08:05:12Z</time>
      </trkpt>
      <trkpt lat="40.3211140" lon="-1.2299000">
        <ele>1106.0</ele>
        <time>2019-07-05T08:05:13Z</time>
      </trkpt>
      <trkpt lat="40.3209360" lon="-1.2304660">
        <ele>1106.8</ele>
        <time>2019-07-05T08:05:23Z</time>
      </trkpt>
      <trkpt lat="40.3208460" lon="-1.2307070">
        <ele>1106.8</ele>
        <time>2019-07-05T08:05:27Z</time>
      </trkpt>
      <trkpt lat="40.3207330" lon="-1.2310020">
        <ele>1107.6</ele>
        <time>2019-07-05T08:05:32Z</time>
      </trkpt>
      <trkpt lat="40.3206670" lon="-1.2311790">
        <ele>1107.8</ele>
        <time>2019-07-05T08:05:35Z</time>
      </trkpt>
      <trkpt lat="40.3205560" lon="-1.2314640">
        <ele>1108.0</ele>
        <time>2019-07-05T08:05:40Z</time>
      </trkpt>
      <trkpt lat="40.3204090" lon="-1.2318470">
        <ele>1108.8</ele>
        <time>2019-07-05T08:05:47Z</time>
      </trkpt>
      <trkpt lat="40.3203880" lon="-1.2319000">
        <ele>1109.0</ele>
        <time>2019-07-05T08:05:48Z</time>
      </trkpt>
      <trkpt lat="40.3202320" lon="-1.2323480">
        <ele>1109.6</ele>
        <time>2019-07-05T08:05:56Z</time>
      </trkpt>
      <trkpt lat="40.3202150" lon="-1.2324070">
        <ele>1109.8</ele>
        <time>2019-07-05T08:05:57Z</time>
      </trkpt>
      <trkpt lat="40.3201780" lon="-1.2325230">
        <ele>1109.8</ele>
        <time>2019-07-05T08:05:59Z</time>
      </trkpt>
      <trkpt lat="40.3200990" lon="-1.2328360">
        <ele>1110.0</ele>
        <time>2019-07-05T08:06:04Z</time>
      </trkpt>
      <trkpt lat="40.3200830" lon="-1.2328980">
        <ele>1110.0</ele>
        <time>2019-07-05T08:06:05Z</time>
      </trkpt>
      <trkpt lat="40.3199760" lon="-1.2333350">
        <ele>1110.6</ele>
        <time>2019-07-05T08:06:12Z</time>
      </trkpt>
      <trkpt lat="40.3199480" lon="-1.2334600">
        <ele>1110.8</ele>
        <time>2019-07-05T08:06:14Z</time>
      </trkpt>
      <trkpt lat="40.3199360" lon="-1.2335220">
        <ele>1111.0</ele>
        <time>2019-07-05T08:06:15Z</time>
      </trkpt>
      <trkpt lat="40.3198820" lon="-1.2338240">
        <ele>1111.4</ele>
        <time>2019-07-05T08:06:19Z</time>
      </trkpt>
      <trkpt lat="40.3198500" lon="-1.2340720">
        <ele>1111.6</ele>
        <time>2019-07-05T08:06:24Z</time>
      </trkpt>
      <trkpt lat="40.3198340" lon="-1.2341970">
        <ele>1112.0</ele>
        <time>2019-07-05T08:06:25Z</time>
      </trkpt>
      <trkpt lat="40.3198010" lon="-1.2345780">
        <ele>1113.0</ele>
        <time>2019-07-05T08:06:32Z</time>
      </trkpt>
      <trkpt lat="40.3197970" lon="-1.2346410">
        <ele>1113.2</ele>
        <time>2019-07-05T08:06:33Z</time>
      </trkpt>
      <trkpt lat="40.3197790" lon="-1.2347660">
        <ele>1113.4</ele>
        <time>2019-07-05T08:06:35Z</time>
      </trkpt>
      <trkpt lat="40.3197310" lon="-1.2349490">
        <ele>1113.8</ele>
        <time>2019-07-05T08:06:37Z</time>
      </trkpt>
      <trkpt lat="40.3197190" lon="-1.2349770">
        <ele>1113.8</ele>
        <time>2019-07-05T08:06:38Z</time>
      </trkpt>
      <trkpt lat="40.3197070" lon="-1.2350050">
        <ele>1113.8</ele>
        <time>2019-07-05T08:06:39Z</time>
      </trkpt>
      <trkpt lat="40.3196420" lon="-1.2350990">
        <ele>1114.0</ele>
        <time>2019-07-05T08:06:41Z</time>
      </trkpt>
      <trkpt lat="40.3196040" lon="-1.2351380">
        <ele>1114.0</ele>
        <time>2019-07-05T08:06:42Z</time>
      </trkpt>
      <trkpt lat="40.3195250" lon="-1.2352010">
        <ele>1114.2</ele>
        <time>2019-07-05T08:06:44Z</time>
      </trkpt>
      <trkpt lat="40.3193620" lon="-1.2353030">
        <ele>1114.8</ele>
        <time>2019-07-05T08:06:48Z</time>
      </trkpt>
      <trkpt lat="40.3192830" lon="-1.2353490">
        <ele>1115.0</ele>
        <time>2019-07-05T08:06:49Z</time>
      </trkpt>
      <trkpt lat="40.3192410" lon="-1.2353670">
        <ele>1115.0</ele>
        <time>2019-07-05T08:06:51Z</time>
      </trkpt>
      <trkpt lat="40.3191170" lon="-1.2354310">
        <ele>1115.0</ele>
        <time>2019-07-05T08:06:54Z</time>
      </trkpt>
      <trkpt lat="40.3190380" lon="-1.2354920">
        <ele>1115.0</ele>
        <time>2019-07-05T08:06:55Z</time>
      </trkpt>
      <trkpt lat="40.3188810" lon="-1.2356130">
        <ele>1115.2</ele>
        <time>2019-07-05T08:07:00Z</time>
      </trkpt>
      <trkpt lat="40.3188090" lon="-1.2356810">
        <ele>1115.4</ele>
        <time>2019-07-05T08:07:02Z</time>
      </trkpt>
      <trkpt lat="40.3185350" lon="-1.2359000">
        <ele>1116.2</ele>
        <time>2019-07-05T08:07:09Z</time>
      </trkpt>
      <trkpt lat="40.3184970" lon="-1.2359310">
        <ele>1116.2</ele>
        <time>2019-07-05T08:07:10Z</time>
      </trkpt>
      <trkpt lat="40.3182850" lon="-1.2362340">
        <ele>1116.6</ele>
        <time>2019-07-05T08:07:17Z</time>
      </trkpt>
      <trkpt lat="40.3182360" lon="-1.2364660">
        <ele>1116.8</ele>
        <time>2019-07-05T08:07:21Z</time>
      </trkpt>
      <trkpt lat="40.3182150" lon="-1.2365850">
        <ele>1117.4</ele>
        <time>2019-07-05T08:07:23Z</time>
      </trkpt>
      <trkpt lat="40.3182000" lon="-1.2366420">
        <ele>1117.4</ele>
        <time>2019-07-05T08:07:24Z</time>
      </trkpt>
      <trkpt lat="40.3181290" lon="-1.2368000">
        <ele>1117.6</ele>
        <time>2019-07-05T08:07:27Z</time>
      </trkpt>
      <trkpt lat="40.3178990" lon="-1.2371780">
        <ele>1118.6</ele>
        <time>2019-07-05T08:07:35Z</time>
      </trkpt>
      <trkpt lat="40.3178690" lon="-1.2372210">
        <ele>1118.6</ele>
        <time>2019-07-05T08:07:36Z</time>
      </trkpt>
      <trkpt lat="40.3175990" lon="-1.2375690">
        <ele>1119.2</ele>
        <time>2019-07-05T08:07:45Z</time>
      </trkpt>
      <trkpt lat="40.3174530" lon="-1.2377620">
        <ele>1119.6</ele>
        <time>2019-07-05T08:07:49Z</time>
      </trkpt>
      <trkpt lat="40.3172720" lon="-1.2379950">
        <ele>1119.8</ele>
        <time>2019-07-05T08:07:55Z</time>
      </trkpt>
      <trkpt lat="40.3171800" lon="-1.2381130">
        <ele>1120.2</ele>
        <time>2019-07-05T08:07:58Z</time>
      </trkpt>
      <trkpt lat="40.3170880" lon="-1.2382280">
        <ele>1120.6</ele>
        <time>2019-07-05T08:08:01Z</time>
      </trkpt>
      <trkpt lat="40.3169960" lon="-1.2383430">
        <ele>1120.8</ele>
        <time>2019-07-05T08:08:04Z</time>
      </trkpt>
      <trkpt lat="40.3168420" lon="-1.2385410">
        <ele>1121.6</ele>
        <time>2019-07-05T08:08:10Z</time>
      </trkpt>
      <trkpt lat="40.3166860" lon="-1.2387370">
        <ele>1122.2</ele>
        <time>2019-07-05T08:08:14Z</time>
      </trkpt>
      <trkpt lat="40.3165600" lon="-1.2388900">
        <ele>1122.8</ele>
        <time>2019-07-05T08:08:18Z</time>
      </trkpt>
      <trkpt lat="40.3163780" lon="-1.2391230">
        <ele>1124.0</ele>
        <time>2019-07-05T08:08:24Z</time>
      </trkpt>
      <trkpt lat="40.3162540" lon="-1.2392620">
        <ele>1124.6</ele>
        <time>2019-07-05T08:08:29Z</time>
      </trkpt>
      <trkpt lat="40.3161360" lon="-1.2394060">
        <ele>1124.8</ele>
        <time>2019-07-05T08:08:32Z</time>
      </trkpt>
      <trkpt lat="40.3159870" lon="-1.2395860">
        <ele>1125.8</ele>
        <time>2019-07-05T08:08:37Z</time>
      </trkpt>
      <trkpt lat="40.3157790" lon="-1.2398240">
        <ele>1127.0</ele>
        <time>2019-07-05T08:08:44Z</time>
      </trkpt>
      <trkpt lat="40.3157190" lon="-1.2399010">
        <ele>1127.2</ele>
        <time>2019-07-05T08:08:46Z</time>
      </trkpt>
      <trkpt lat="40.3155300" lon="-1.2401180">
        <ele>1128.0</ele>
        <time>2019-07-05T08:08:52Z</time>
      </trkpt>
      <trkpt lat="40.3154120" lon="-1.2402610">
        <ele>1128.6</ele>
        <time>2019-07-05T08:08:56Z</time>
      </trkpt>
      <trkpt lat="40.3153520" lon="-1.2403320">
        <ele>1129.2</ele>
        <time>2019-07-05T08:08:58Z</time>
      </trkpt>
      <trkpt lat="40.3152330" lon="-1.2404750">
        <ele>1130.2</ele>
        <time>2019-07-05T08:09:02Z</time>
      </trkpt>
      <trkpt lat="40.3151200" lon="-1.2406270">
        <ele>1131.2</ele>
        <time>2019-07-05T08:09:06Z</time>
      </trkpt>
      <trkpt lat="40.3150620" lon="-1.2406990">
        <ele>1131.6</ele>
        <time>2019-07-05T08:09:09Z</time>
      </trkpt>
      <trkpt lat="40.3149020" lon="-1.2409260">
        <ele>1132.4</ele>
        <time>2019-07-05T08:09:14Z</time>
      </trkpt>
      <trkpt lat="40.3148510" lon="-1.2410010">
        <ele>1133.0</ele>
        <time>2019-07-05T08:09:17Z</time>
      </trkpt>
      <trkpt lat="40.3147560" lon="-1.2411520">
        <ele>1133.4</ele>
        <time>2019-07-05T08:09:20Z</time>
      </trkpt>
      <trkpt lat="40.3146060" lon="-1.2413880">
        <ele>1134.2</ele>
        <time>2019-07-05T08:09:27Z</time>
      </trkpt>
      <trkpt lat="40.3145580" lon="-1.2414660">
        <ele>1134.4</ele>
        <time>2019-07-05T08:09:28Z</time>
      </trkpt>
      <trkpt lat="40.3144060" lon="-1.2416970">
        <ele>1135.4</ele>
        <time>2019-07-05T08:09:34Z</time>
      </trkpt>
      <trkpt lat="40.3143050" lon="-1.2418520">
        <ele>1136.6</ele>
        <time>2019-07-05T08:09:38Z</time>
      </trkpt>
      <trkpt lat="40.3142550" lon="-1.2419300">
        <ele>1136.8</ele>
        <time>2019-07-05T08:09:40Z</time>
      </trkpt>
      <trkpt lat="40.3141040" lon="-1.2421630">
        <ele>1137.8</ele>
        <time>2019-07-05T08:09:46Z</time>
      </trkpt>
      <trkpt lat="40.3140060" lon="-1.2423190">
        <ele>1138.4</ele>
        <time>2019-07-05T08:09:51Z</time>
      </trkpt>
      <trkpt lat="40.3139100" lon="-1.2424680">
        <ele>1139.0</ele>
        <time>2019-07-05T08:09:54Z</time>
      </trkpt>
      <trkpt lat="40.3137480" lon="-1.2427220">
        <ele>1140.0</ele>
        <time>2019-07-05T08:10:01Z</time>
      </trkpt>
      <trkpt lat="40.3137240" lon="-1.2427580">
        <ele>1140.4</ele>
        <time>2019-07-05T08:10:02Z</time>
      </trkpt>
      <trkpt lat="40.3136300" lon="-1.2428970">
        <ele>1141.0</ele>
        <time>2019-07-05T08:10:06Z</time>
      </trkpt>
      <trkpt lat="40.3135450" lon="-1.2430310">
        <ele>1142.0</ele>
        <time>2019-07-05T08:10:10Z</time>
      </trkpt>
      <trkpt lat="40.3135450" lon="-1.2430310">
        <ele>1142.4</ele>
        <time>2019-07-05T08:10:11Z</time>
      </trkpt>
      <trkpt lat="40.3134130" lon="-1.2432260">
        <ele>1143.2</ele>
        <time>2019-07-05T08:10:16Z</time>
      </trkpt>
      <trkpt lat="40.3133210" lon="-1.2433520">
        <ele>1144.2</ele>
        <time>2019-07-05T08:10:20Z</time>
      </trkpt>
      <trkpt lat="40.3133210" lon="-1.2433520">
        <ele>1144.2</ele>
        <time>2019-07-05T08:10:21Z</time>
      </trkpt>
      <trkpt lat="40.3131820" lon="-1.2435480">
        <ele>1145.6</ele>
        <time>2019-07-05T08:10:26Z</time>
      </trkpt>
      <trkpt lat="40.3131340" lon="-1.2436130">
        <ele>1146.2</ele>
        <time>2019-07-05T08:10:29Z</time>
      </trkpt>
      <trkpt lat="40.3130360" lon="-1.2437500">
        <ele>1146.6</ele>
        <time>2019-07-05T08:10:33Z</time>
      </trkpt>
      <trkpt lat="40.3129860" lon="-1.2438170">
        <ele>1146.8</ele>
        <time>2019-07-05T08:10:35Z</time>
      </trkpt>
      <trkpt lat="40.3128240" lon="-1.2440400">
        <ele>1147.6</ele>
        <time>2019-07-05T08:10:41Z</time>
      </trkpt>
      <trkpt lat="40.3127360" lon="-1.2441590">
        <ele>1147.8</ele>
        <time>2019-07-05T08:10:43Z</time>
      </trkpt>
      <trkpt lat="40.3125730" lon="-1.2444270">
        <ele>1148.2</ele>
        <time>2019-07-05T08:10:49Z</time>
      </trkpt>
      <trkpt lat="40.3124490" lon="-1.2446840">
        <ele>1148.2</ele>
        <time>2019-07-05T08:10:54Z</time>
      </trkpt>
      <trkpt lat="40.3123630" lon="-1.2448910">
        <ele>1148.0</ele>
        <time>2019-07-05T08:10:58Z</time>
      </trkpt>
      <trkpt lat="40.3123630" lon="-1.2448910">
        <ele>1148.0</ele>
        <time>2019-07-05T08:10:59Z</time>
      </trkpt>
      <trkpt lat="40.3122880" lon="-1.2450370">
        <ele>1147.6</ele>
        <time>2019-07-05T08:11:01Z</time>
      </trkpt>
      <trkpt lat="40.3122190" lon="-1.2452110">
        <ele>1147.4</ele>
        <time>2019-07-05T08:11:04Z</time>
      </trkpt>
      <trkpt lat="40.3121750" lon="-1.2453140">
        <ele>1147.2</ele>
        <time>2019-07-05T08:11:05Z</time>
      </trkpt>
      <trkpt lat="40.3121300" lon="-1.2454160">
        <ele>1147.2</ele>
        <time>2019-07-05T08:11:07Z</time>
      </trkpt>
      <trkpt lat="40.3120300" lon="-1.2456490">
        <ele>1146.4</ele>
        <time>2019-07-05T08:11:10Z</time>
      </trkpt>
      <trkpt lat="40.3120300" lon="-1.2456490">
        <ele>1146.2</ele>
        <time>2019-07-05T08:11:11Z</time>
      </trkpt>
      <trkpt lat="40.3118960" lon="-1.2459870">
        <ele>1145.4</ele>
        <time>2019-07-05T08:11:14Z</time>
      </trkpt>
      <trkpt lat="40.3118830" lon="-1.2460340">
        <ele>1145.0</ele>
        <time>2019-07-05T08:11:15Z</time>
      </trkpt>
      <trkpt lat="40.3118690" lon="-1.2460810">
        <ele>1144.6</ele>
        <time>2019-07-05T08:11:16Z</time>
      </trkpt>
      <trkpt lat="40.3118260" lon="-1.2462530">
        <ele>1144.4</ele>
        <time>2019-07-05T08:11:17Z</time>
      </trkpt>
      <trkpt lat="40.3118110" lon="-1.2463300">
        <ele>1144.0</ele>
        <time>2019-07-05T08:11:18Z</time>
      </trkpt>
      <trkpt lat="40.3117810" lon="-1.2464850">
        <ele>1143.8</ele>
        <time>2019-07-05T08:11:19Z</time>
      </trkpt>
      <trkpt lat="40.3117160" lon="-1.2468160">
        <ele>1142.4</ele>
        <time>2019-07-05T08:11:22Z</time>
      </trkpt>
      <trkpt lat="40.3116540" lon="-1.2471620">
        <ele>1141.0</ele>
        <time>2019-07-05T08:11:25Z</time>
      </trkpt>
      <trkpt lat="40.3115860" lon="-1.2475230">
        <ele>1139.6</ele>
        <time>2019-07-05T08:11:29Z</time>
      </trkpt>
      <trkpt lat="40.3115560" lon="-1.2476870">
        <ele>1139.2</ele>
        <time>2019-07-05T08:11:30Z</time>
      </trkpt>
      <trkpt lat="40.3114960" lon="-1.2480160">
        <ele>1138.4</ele>
        <time>2019-07-05T08:11:32Z</time>
      </trkpt>
      <trkpt lat="40.3114110" lon="-1.2484960">
        <ele>1137.2</ele>
        <time>2019-07-05T08:11:36Z</time>
      </trkpt>
      <trkpt lat="40.3113660" lon="-1.2487240">
        <ele>1136.8</ele>
        <time>2019-07-05T08:11:38Z</time>
      </trkpt>
      <trkpt lat="40.3113190" lon="-1.2489400">
        <ele>1136.0</ele>
        <time>2019-07-05T08:11:41Z</time>
      </trkpt>
      <trkpt lat="40.3112730" lon="-1.2490740">
        <ele>1135.6</ele>
        <time>2019-07-05T08:11:42Z</time>
      </trkpt>
      <trkpt lat="40.3111800" lon="-1.2493410">
        <ele>1135.0</ele>
        <time>2019-07-05T08:11:44Z</time>
      </trkpt>
      <trkpt lat="40.3111800" lon="-1.2493410">
        <ele>1135.0</ele>
        <time>2019-07-05T08:11:45Z</time>
      </trkpt>
      <trkpt lat="40.3109540" lon="-1.2499680">
        <ele>1133.8</ele>
        <time>2019-07-05T08:11:50Z</time>
      </trkpt>
      <trkpt lat="40.3108720" lon="-1.2501900">
        <ele>1133.0</ele>
        <time>2019-07-05T08:11:52Z</time>
      </trkpt>
      <trkpt lat="40.3108110" lon="-1.2503650">
        <ele>1132.2</ele>
        <time>2019-07-05T08:11:53Z</time>
      </trkpt>
      <trkpt lat="40.3107490" lon="-1.2505390">
        <ele>1131.2</ele>
        <time>2019-07-05T08:11:55Z</time>
      </trkpt>
      <trkpt lat="40.3107110" lon="-1.2506620">
        <ele>1130.0</ele>
        <time>2019-07-05T08:11:57Z</time>
      </trkpt>
      <trkpt lat="40.3106350" lon="-1.2509140">
        <ele>1129.0</ele>
        <time>2019-07-05T08:11:59Z</time>
      </trkpt>
      <trkpt lat="40.3105960" lon="-1.2510960">
        <ele>1128.6</ele>
        <time>2019-07-05T08:12:00Z</time>
      </trkpt>
      <trkpt lat="40.3105170" lon="-1.2514600">
        <ele>1127.2</ele>
        <time>2019-07-05T08:12:02Z</time>
      </trkpt>
      <trkpt lat="40.3105070" lon="-1.2515320">
        <ele>1126.6</ele>
        <time>2019-07-05T08:12:03Z</time>
      </trkpt>
      <trkpt lat="40.3104960" lon="-1.2516030">
        <ele>1126.0</ele>
        <time>2019-07-05T08:12:04Z</time>
      </trkpt>
      <trkpt lat="40.3104590" lon="-1.2518410">
        <ele>1125.6</ele>
        <time>2019-07-05T08:12:05Z</time>
      </trkpt>
      <trkpt lat="40.3104440" lon="-1.2519360">
        <ele>1125.0</ele>
        <time>2019-07-05T08:12:06Z</time>
      </trkpt>
      <trkpt lat="40.3103830" lon="-1.2523190">
        <ele>1123.8</ele>
        <time>2019-07-05T08:12:08Z</time>
      </trkpt>
      <trkpt lat="40.3103390" lon="-1.2526050">
        <ele>1122.8</ele>
        <time>2019-07-05T08:12:10Z</time>
      </trkpt>
      <trkpt lat="40.3102560" lon="-1.2531560">
        <ele>1121.6</ele>
        <time>2019-07-05T08:12:14Z</time>
      </trkpt>
      <trkpt lat="40.3102210" lon="-1.2534200">
        <ele>1120.6</ele>
        <time>2019-07-05T08:12:17Z</time>
      </trkpt>
      <trkpt lat="40.3102040" lon="-1.2536270">
        <ele>1120.0</ele>
        <time>2019-07-05T08:12:18Z</time>
      </trkpt>
      <trkpt lat="40.3101870" lon="-1.2538340">
        <ele>1119.2</ele>
        <time>2019-07-05T08:12:19Z</time>
      </trkpt>
      <trkpt lat="40.3101920" lon="-1.2539790">
        <ele>1117.8</ele>
        <time>2019-07-05T08:12:21Z</time>
      </trkpt>
      <trkpt lat="40.3102200" lon="-1.2541680">
        <ele>1117.2</ele>
        <time>2019-07-05T08:12:22Z</time>
      </trkpt>
      <trkpt lat="40.3102760" lon="-1.2545450">
        <ele>1116.6</ele>
        <time>2019-07-05T08:12:24Z</time>
      </trkpt>
      <trkpt lat="40.3103890" lon="-1.2550640">
        <ele>1115.4</ele>
        <time>2019-07-05T08:12:29Z</time>
      </trkpt>
      <trkpt lat="40.3105440" lon="-1.2557270">
        <ele>1114.8</ele>
        <time>2019-07-05T08:12:34Z</time>
      </trkpt>
      <trkpt lat="40.3105960" lon="-1.2558780">
        <ele>1114.2</ele>
        <time>2019-07-05T08:12:37Z</time>
      </trkpt>
      <trkpt lat="40.3105990" lon="-1.2558870">
        <ele>1114.2</ele>
        <time>2019-07-05T08:12:38Z</time>
      </trkpt>
      <trkpt lat="40.3105990" lon="-1.2558870">
        <ele>1114.2</ele>
        <time>2019-07-05T08:12:39Z</time>
      </trkpt>
      <trkpt lat="40.3105730" lon="-1.2558770">
        <ele>1114.2</ele>
        <time>2019-07-05T08:17:48Z</time>
      </trkpt>
      <trkpt lat="40.3105560" lon="-1.2558440">
        <ele>1114.2</ele>
        <time>2019-07-05T08:17:50Z</time>
      </trkpt>
      <trkpt lat="40.3105430" lon="-1.2557600">
        <ele>1114.0</ele>
        <time>2019-07-05T08:17:53Z</time>
      </trkpt>
      <trkpt lat="40.3105310" lon="-1.2557250">
        <ele>1114.0</ele>
        <time>2019-07-05T08:17:54Z</time>
      </trkpt>
      <trkpt lat="40.3104580" lon="-1.2554640">
        <ele>1114.2</ele>
        <time>2019-07-05T08:18:00Z</time>
      </trkpt>
      <trkpt lat="40.3103630" lon="-1.2550470">
        <ele>1114.4</ele>
        <time>2019-07-05T08:18:08Z</time>
      </trkpt>
      <trkpt lat="40.3103030" lon="-1.2547580">
        <ele>1114.2</ele>
        <time>2019-07-05T08:18:13Z</time>
      </trkpt>
      <trkpt lat="40.3102560" lon="-1.2545230">
        <ele>1114.4</ele>
        <time>2019-07-05T08:18:17Z</time>
      </trkpt>
      <trkpt lat="40.3101740" lon="-1.2540220">
        <ele>1114.8</ele>
        <time>2019-07-05T08:18:26Z</time>
      </trkpt>
      <trkpt lat="40.3101620" lon="-1.2538770">
        <ele>1115.2</ele>
        <time>2019-07-05T08:18:29Z</time>
      </trkpt>
      <trkpt lat="40.3101580" lon="-1.2537420">
        <ele>1115.8</ele>
        <time>2019-07-05T08:18:33Z</time>
      </trkpt>
      <trkpt lat="40.3101630" lon="-1.2536530">
        <ele>1116.2</ele>
        <time>2019-07-05T08:18:35Z</time>
      </trkpt>
      <trkpt lat="40.3101720" lon="-1.2534820">
        <ele>1116.8</ele>
        <time>2019-07-05T08:18:38Z</time>
      </trkpt>
      <trkpt lat="40.3101890" lon="-1.2533580">
        <ele>1117.0</ele>
        <time>2019-07-05T08:18:41Z</time>
      </trkpt>
      <trkpt lat="40.3102160" lon="-1.2531990">
        <ele>1117.8</ele>
        <time>2019-07-05T08:18:45Z</time>
      </trkpt>
      <trkpt lat="40.3102160" lon="-1.2531600">
        <ele>1118.0</ele>
        <time>2019-07-05T08:18:46Z</time>
      </trkpt>
      <trkpt lat="40.3102130" lon="-1.2530810">
        <ele>1118.6</ele>
        <time>2019-07-05T08:18:48Z</time>
      </trkpt>
      <trkpt lat="40.3101990" lon="-1.2530480">
        <ele>1118.6</ele>
        <time>2019-07-05T08:18:49Z</time>
      </trkpt>
      <trkpt lat="40.3101490" lon="-1.2530230">
        <ele>1119.0</ele>
        <time>2019-07-05T08:18:51Z</time>
      </trkpt>
      <trkpt lat="40.3101200" lon="-1.2530290">
        <ele>1119.2</ele>
        <time>2019-07-05T08:18:52Z</time>
      </trkpt>
      <trkpt lat="40.3100320" lon="-1.2530980">
        <ele>1119.6</ele>
        <time>2019-07-05T08:18:55Z</time>
      </trkpt>
      <trkpt lat="40.3098050" lon="-1.2532870">
        <ele>1120.2</ele>
        <time>2019-07-05T08:19:02Z</time>
      </trkpt>
      <trkpt lat="40.3095030" lon="-1.2534160">
        <ele>1120.4</ele>
        <time>2019-07-05T08:19:10Z</time>
      </trkpt>
      <trkpt lat="40.3092780" lon="-1.2534760">
        <ele>1120.4</ele>
        <time>2019-07-05T08:19:16Z</time>
      </trkpt>
      <trkpt lat="40.3090430" lon="-1.2535240">
        <ele>1121.0</ele>
        <time>2019-07-05T08:19:22Z</time>
      </trkpt>
      <trkpt lat="40.3088050" lon="-1.2536000">
        <ele>1121.8</ele>
        <time>2019-07-05T08:19:28Z</time>
      </trkpt>
      <trkpt lat="40.3086390" lon="-1.2536490">
        <ele>1122.2</ele>
        <time>2019-07-05T08:19:32Z</time>
      </trkpt>
      <trkpt lat="40.3085510" lon="-1.2536670">
        <ele>1122.4</ele>
        <time>2019-07-05T08:19:34Z</time>
      </trkpt>
      <trkpt lat="40.3083410" lon="-1.2537120">
        <ele>1123.0</ele>
        <time>2019-07-05T08:19:39Z</time>
      </trkpt>
      <trkpt lat="40.3082990" lon="-1.2537180">
        <ele>1123.0</ele>
        <time>2019-07-05T08:19:40Z</time>
      </trkpt>
      <trkpt lat="40.3081770" lon="-1.2537430">
        <ele>1123.2</ele>
        <time>2019-07-05T08:19:43Z</time>
      </trkpt>
      <trkpt lat="40.3080530" lon="-1.2537660">
        <ele>1123.8</ele>
        <time>2019-07-05T08:19:47Z</time>
      </trkpt>
      <trkpt lat="40.3078060" lon="-1.2538090">
        <ele>1124.2</ele>
        <time>2019-07-05T08:19:52Z</time>
      </trkpt>
      <trkpt lat="40.3076300" lon="-1.2538360">
        <ele>1124.8</ele>
        <time>2019-07-05T08:19:56Z</time>
      </trkpt>
      <trkpt lat="40.3073690" lon="-1.2538810">
        <ele>1125.2</ele>
        <time>2019-07-05T08:20:02Z</time>
      </trkpt>
      <trkpt lat="40.3072820" lon="-1.2538980">
        <ele>1125.6</ele>
        <time>2019-07-05T08:20:04Z</time>
      </trkpt>
      <trkpt lat="40.3070670" lon="-1.2539370">
        <ele>1126.4</ele>
        <time>2019-07-05T08:20:09Z</time>
      </trkpt>
      <trkpt lat="40.3070250" lon="-1.2539410">
        <ele>1126.6</ele>
        <time>2019-07-05T08:20:10Z</time>
      </trkpt>
      <trkpt lat="40.3069450" lon="-1.2539560">
        <ele>1126.6</ele>
        <time>2019-07-05T08:20:12Z</time>
      </trkpt>
      <trkpt lat="40.3067030" lon="-1.2540090">
        <ele>1127.4</ele>
        <time>2019-07-05T08:20:18Z</time>
      </trkpt>
      <trkpt lat="40.3064770" lon="-1.2540520">
        <ele>1128.6</ele>
        <time>2019-07-05T08:20:24Z</time>
      </trkpt>
      <trkpt lat="40.3064400" lon="-1.2540620">
        <ele>1128.6</ele>
        <time>2019-07-05T08:20:25Z</time>
      </trkpt>
      <trkpt lat="40.3061470" lon="-1.2541240">
        <ele>1129.6</ele>
        <time>2019-07-05T08:20:33Z</time>
      </trkpt>
      <trkpt lat="40.3061120" lon="-1.2541340">
        <ele>1129.8</ele>
        <time>2019-07-05T08:20:34Z</time>
      </trkpt>
      <trkpt lat="40.3059360" lon="-1.2541670">
        <ele>1130.8</ele>
        <time>2019-07-05T08:20:39Z</time>
      </trkpt>
      <trkpt lat="40.3059010" lon="-1.2541710">
        <ele>1131.0</ele>
        <time>2019-07-05T08:20:40Z</time>
      </trkpt>
      <trkpt lat="40.3057210" lon="-1.2542110">
        <ele>1131.8</ele>
        <time>2019-07-05T08:20:45Z</time>
      </trkpt>
      <trkpt lat="40.3056870" lon="-1.2542200">
        <ele>1132.2</ele>
        <time>2019-07-05T08:20:47Z</time>
      </trkpt>
      <trkpt lat="40.3054480" lon="-1.2542950">
        <ele>1132.8</ele>
        <time>2019-07-05T08:20:53Z</time>
      </trkpt>
      <trkpt lat="40.3053840" lon="-1.2543270">
        <ele>1133.2</ele>
        <time>2019-07-05T08:20:55Z</time>
      </trkpt>
      <trkpt lat="40.3052880" lon="-1.2543920">
        <ele>1134.0</ele>
        <time>2019-07-05T08:20:58Z</time>
      </trkpt>
      <trkpt lat="40.3051600" lon="-1.2545050">
        <ele>1134.6</ele>
        <time>2019-07-05T08:21:02Z</time>
      </trkpt>
      <trkpt lat="40.3051010" lon="-1.2545730">
        <ele>1135.2</ele>
        <time>2019-07-05T08:21:04Z</time>
      </trkpt>
      <trkpt lat="40.3049870" lon="-1.2547170">
        <ele>1136.0</ele>
        <time>2019-07-05T08:21:08Z</time>
      </trkpt>
      <trkpt lat="40.3049050" lon="-1.2548250">
        <ele>1136.2</ele>
        <time>2019-07-05T08:21:11Z</time>
      </trkpt>
      <trkpt lat="40.3047400" lon="-1.2550330">
        <ele>1137.0</ele>
        <time>2019-07-05T08:21:17Z</time>
      </trkpt>
      <trkpt lat="40.3047160" lon="-1.2550740">
        <ele>1137.2</ele>
        <time>2019-07-05T08:21:18Z</time>
      </trkpt>
      <trkpt lat="40.3046170" lon="-1.2552850">
        <ele>1137.8</ele>
        <time>2019-07-05T08:21:23Z</time>
      </trkpt>
      <trkpt lat="40.3045680" lon="-1.2554190">
        <ele>1138.2</ele>
        <time>2019-07-05T08:21:26Z</time>
      </trkpt>
      <trkpt lat="40.3045140" lon="-1.2556460">
        <ele>1139.2</ele>
        <time>2019-07-05T08:21:31Z</time>
      </trkpt>
      <trkpt lat="40.3044370" lon="-1.2559700">
        <ele>1140.4</ele>
        <time>2019-07-05T08:21:38Z</time>
      </trkpt>
      <trkpt lat="40.3043260" lon="-1.2562180">
        <ele>1141.4</ele>
        <time>2019-07-05T08:21:44Z</time>
      </trkpt>
      <trkpt lat="40.3041620" lon="-1.2563860">
        <ele>1142.0</ele>
        <time>2019-07-05T08:21:49Z</time>
      </trkpt>
      <trkpt lat="40.3040890" lon="-1.2564340">
        <ele>1142.4</ele>
        <time>2019-07-05T08:21:51Z</time>
      </trkpt>
      <trkpt lat="40.3040520" lon="-1.2564570">
        <ele>1142.6</ele>
        <time>2019-07-05T08:21:52Z</time>
      </trkpt>
      <trkpt lat="40.3039230" lon="-1.2565370">
        <ele>1143.4</ele>
        <time>2019-07-05T08:21:56Z</time>
      </trkpt>
      <trkpt lat="40.3038600" lon="-1.2565790">
        <ele>1144.0</ele>
        <time>2019-07-05T08:21:58Z</time>
      </trkpt>
      <trkpt lat="40.3037980" lon="-1.2566230">
        <ele>1144.4</ele>
        <time>2019-07-05T08:22:00Z</time>
      </trkpt>
      <trkpt lat="40.3036210" lon="-1.2567770">
        <ele>1145.2</ele>
        <time>2019-07-05T08:22:06Z</time>
      </trkpt>
      <trkpt lat="40.3035650" lon="-1.2568350">
        <ele>1145.6</ele>
        <time>2019-07-05T08:22:08Z</time>
      </trkpt>
      <trkpt lat="40.3034230" lon="-1.2570340">
        <ele>1146.4</ele>
        <time>2019-07-05T08:22:14Z</time>
      </trkpt>
      <trkpt lat="40.3033780" lon="-1.2571120">
        <ele>1146.6</ele>
        <time>2019-07-05T08:22:16Z</time>
      </trkpt>
      <trkpt lat="40.3032830" lon="-1.2573260">
        <ele>1147.2</ele>
        <time>2019-07-05T08:22:21Z</time>
      </trkpt>
      <trkpt lat="40.3032260" lon="-1.2574650">
        <ele>1147.8</ele>
        <time>2019-07-05T08:22:24Z</time>
      </trkpt>
      <trkpt lat="40.3031270" lon="-1.2576860">
        <ele>1148.4</ele>
        <time>2019-07-05T08:22:29Z</time>
      </trkpt>
      <trkpt lat="40.3030900" lon="-1.2577750">
        <ele>1148.8</ele>
        <time>2019-07-05T08:22:31Z</time>
      </trkpt>
      <trkpt lat="40.3029710" lon="-1.2580320">
        <ele>1149.8</ele>
        <time>2019-07-05T08:22:37Z</time>
      </trkpt>
      <trkpt lat="40.3029480" lon="-1.2580750">
        <ele>1150.0</ele>
        <time>2019-07-05T08:22:38Z</time>
      </trkpt>
      <trkpt lat="40.3027770" lon="-1.2583430">
        <ele>1151.0</ele>
        <time>2019-07-05T08:22:45Z</time>
      </trkpt>
      <trkpt lat="40.3026370" lon="-1.2585200">
        <ele>1152.0</ele>
        <time>2019-07-05T08:22:50Z</time>
      </trkpt>
      <trkpt lat="40.3026080" lon="-1.2585530">
        <ele>1152.2</ele>
        <time>2019-07-05T08:22:51Z</time>
      </trkpt>
      <trkpt lat="40.3024130" lon="-1.2588030">
        <ele>1152.6</ele>
        <time>2019-07-05T08:22:58Z</time>
      </trkpt>
      <trkpt lat="40.3023580" lon="-1.2588820">
        <ele>1153.0</ele>
        <time>2019-07-05T08:23:00Z</time>
      </trkpt>
      <trkpt lat="40.3022510" lon="-1.2590370">
        <ele>1153.4</ele>
        <time>2019-07-05T08:23:04Z</time>
      </trkpt>
      <trkpt lat="40.3021260" lon="-1.2592520">
        <ele>1154.0</ele>
        <time>2019-07-05T08:23:09Z</time>
      </trkpt>
      <trkpt lat="40.3020120" lon="-1.2594760">
        <ele>1154.6</ele>
        <time>2019-07-05T08:23:14Z</time>
      </trkpt>
      <trkpt lat="40.3019480" lon="-1.2596120">
        <ele>1155.0</ele>
        <time>2019-07-05T08:23:17Z</time>
      </trkpt>
      <trkpt lat="40.3018170" lon="-1.2598840">
        <ele>1155.6</ele>
        <time>2019-07-05T08:23:23Z</time>
      </trkpt>
      <trkpt lat="40.3017750" lon="-1.2599800">
        <ele>1156.0</ele>
        <time>2019-07-05T08:23:25Z</time>
      </trkpt>
      <trkpt lat="40.3016890" lon="-1.2601700">
        <ele>1156.8</ele>
        <time>2019-07-05T08:23:29Z</time>
      </trkpt>
      <trkpt lat="40.3016640" lon="-1.2602150">
        <ele>1156.6</ele>
        <time>2019-07-05T08:23:30Z</time>
      </trkpt>
      <trkpt lat="40.3016210" lon="-1.2603090">
        <ele>1156.8</ele>
        <time>2019-07-05T08:23:32Z</time>
      </trkpt>
      <trkpt lat="40.3015610" lon="-1.2604540">
        <ele>1156.8</ele>
        <time>2019-07-05T08:23:35Z</time>
      </trkpt>
      <trkpt lat="40.3015180" lon="-1.2605500">
        <ele>1157.0</ele>
        <time>2019-07-05T08:23:37Z</time>
      </trkpt>
      <trkpt lat="40.3013580" lon="-1.2608850">
        <ele>1157.8</ele>
        <time>2019-07-05T08:23:44Z</time>
      </trkpt>
      <trkpt lat="40.3013130" lon="-1.2609840">
        <ele>1158.0</ele>
        <time>2019-07-05T08:23:46Z</time>
      </trkpt>
      <trkpt lat="40.3012630" lon="-1.2610810">
        <ele>1158.0</ele>
        <time>2019-07-05T08:23:48Z</time>
      </trkpt>
      <trkpt lat="40.3011990" lon="-1.2612310">
        <ele>1158.6</ele>
        <time>2019-07-05T08:23:51Z</time>
      </trkpt>
      <trkpt lat="40.3011800" lon="-1.2612810">
        <ele>1158.6</ele>
        <time>2019-07-05T08:23:52Z</time>
      </trkpt>
      <trkpt lat="40.3010830" lon="-1.2614810">
        <ele>1158.8</ele>
        <time>2019-07-05T08:23:56Z</time>
      </trkpt>
      <trkpt lat="40.3010090" lon="-1.2616280">
        <ele>1158.8</ele>
        <time>2019-07-05T08:23:59Z</time>
      </trkpt>
      <trkpt lat="40.3009870" lon="-1.2616800">
        <ele>1159.2</ele>
        <time>2019-07-05T08:24:00Z</time>
      </trkpt>
      <trkpt lat="40.3008480" lon="-1.2620040">
        <ele>1159.8</ele>
        <time>2019-07-05T08:24:06Z</time>
      </trkpt>
      <trkpt lat="40.3007920" lon="-1.2621130">
        <ele>1159.8</ele>
        <time>2019-07-05T08:24:08Z</time>
      </trkpt>
      <trkpt lat="40.3007420" lon="-1.2622280">
        <ele>1159.8</ele>
        <time>2019-07-05T08:24:10Z</time>
      </trkpt>
      <trkpt lat="40.3006870" lon="-1.2623390">
        <ele>1160.2</ele>
        <time>2019-07-05T08:24:12Z</time>
      </trkpt>
      <trkpt lat="40.3006330" lon="-1.2624500">
        <ele>1160.2</ele>
        <time>2019-07-05T08:24:14Z</time>
      </trkpt>
      <trkpt lat="40.3004790" lon="-1.2627780">
        <ele>1160.6</ele>
        <time>2019-07-05T08:24:20Z</time>
      </trkpt>
      <trkpt lat="40.3003160" lon="-1.2630150">
        <ele>1161.0</ele>
        <time>2019-07-05T08:24:25Z</time>
      </trkpt>
      <trkpt lat="40.3002410" lon="-1.2631000">
        <ele>1161.2</ele>
        <time>2019-07-05T08:24:27Z</time>
      </trkpt>
      <trkpt lat="40.3002040" lon="-1.2631440">
        <ele>1161.2</ele>
        <time>2019-07-05T08:24:28Z</time>
      </trkpt>
      <trkpt lat="40.3000560" lon="-1.2633170">
        <ele>1161.0</ele>
        <time>2019-07-05T08:24:32Z</time>
      </trkpt>
      <trkpt lat="40.2999690" lon="-1.2633850">
        <ele>1161.0</ele>
        <time>2019-07-05T08:24:34Z</time>
      </trkpt>
      <trkpt lat="40.2998460" lon="-1.2634950">
        <ele>1161.4</ele>
        <time>2019-07-05T08:24:37Z</time>
      </trkpt>
      <trkpt lat="40.2997690" lon="-1.2635800">
        <ele>1161.4</ele>
        <time>2019-07-05T08:24:39Z</time>
      </trkpt>
      <trkpt lat="40.2997280" lon="-1.2636160">
        <ele>1161.6</ele>
        <time>2019-07-05T08:24:40Z</time>
      </trkpt>
      <trkpt lat="40.2994420" lon="-1.2638770">
        <ele>1161.6</ele>
        <time>2019-07-05T08:24:47Z</time>
      </trkpt>
      <trkpt lat="40.2991920" lon="-1.2640970">
        <ele>1162.2</ele>
        <time>2019-07-05T08:24:53Z</time>
      </trkpt>
      <trkpt lat="40.2991510" lon="-1.2641340">
        <ele>1162.2</ele>
        <time>2019-07-05T08:24:54Z</time>
      </trkpt>
      <trkpt lat="40.2989000" lon="-1.2643880">
        <ele>1162.6</ele>
        <time>2019-07-05T08:25:00Z</time>
      </trkpt>
      <trkpt lat="40.2986460" lon="-1.2647300">
        <ele>1161.8</ele>
        <time>2019-07-05T08:25:06Z</time>
      </trkpt>
      <trkpt lat="40.2985120" lon="-1.2649230">
        <ele>1161.0</ele>
        <time>2019-07-05T08:25:09Z</time>
      </trkpt>
      <trkpt lat="40.2983830" lon="-1.2651260">
        <ele>1160.2</ele>
        <time>2019-07-05T08:25:12Z</time>
      </trkpt>
      <trkpt lat="40.2983390" lon="-1.2651950">
        <ele>1160.0</ele>
        <time>2019-07-05T08:25:13Z</time>
      </trkpt>
      <trkpt lat="40.2982950" lon="-1.2652670">
        <ele>1159.8</ele>
        <time>2019-07-05T08:25:14Z</time>
      </trkpt>
      <trkpt lat="40.2981600" lon="-1.2654900">
        <ele>1158.8</ele>
        <time>2019-07-05T08:25:17Z</time>
      </trkpt>
      <trkpt lat="40.2979870" lon="-1.2657770">
        <ele>1157.8</ele>
        <time>2019-07-05T08:25:21Z</time>
      </trkpt>
      <trkpt lat="40.2979460" lon="-1.2658450">
        <ele>1157.6</ele>
        <time>2019-07-05T08:25:22Z</time>
      </trkpt>
      <trkpt lat="40.2979100" lon="-1.2659140">
        <ele>1157.4</ele>
        <time>2019-07-05T08:25:23Z</time>
      </trkpt>
      <trkpt lat="40.2978770" lon="-1.2659840">
        <ele>1157.2</ele>
        <time>2019-07-05T08:25:24Z</time>
      </trkpt>
      <trkpt lat="40.2978420" lon="-1.2660510">
        <ele>1157.0</ele>
        <time>2019-07-05T08:25:25Z</time>
      </trkpt>
      <trkpt lat="40.2978030" lon="-1.2661140">
        <ele>1157.0</ele>
        <time>2019-07-05T08:25:26Z</time>
      </trkpt>
      <trkpt lat="40.2975610" lon="-1.2664950">
        <ele>1156.6</ele>
        <time>2019-07-05T08:25:32Z</time>
      </trkpt>
      <trkpt lat="40.2975200" lon="-1.2665650">
        <ele>1156.6</ele>
        <time>2019-07-05T08:25:33Z</time>
      </trkpt>
      <trkpt lat="40.2974350" lon="-1.2667070">
        <ele>1156.4</ele>
        <time>2019-07-05T08:25:35Z</time>
      </trkpt>
      <trkpt lat="40.2972440" lon="-1.2670330">
        <ele>1156.2</ele>
        <time>2019-07-05T08:25:40Z</time>
      </trkpt>
      <trkpt lat="40.2971000" lon="-1.2672440">
        <ele>1156.6</ele>
        <time>2019-07-05T08:25:44Z</time>
      </trkpt>
      <trkpt lat="40.2970070" lon="-1.2673190">
        <ele>1156.6</ele>
        <time>2019-07-05T08:25:46Z</time>
      </trkpt>
      <trkpt lat="40.2968270" lon="-1.2673680">
        <ele>1156.6</ele>
        <time>2019-07-05T08:25:49Z</time>
      </trkpt>
      <trkpt lat="40.2967650" lon="-1.2673670">
        <ele>1156.6</ele>
        <time>2019-07-05T08:25:50Z</time>
      </trkpt>
      <trkpt lat="40.2966500" lon="-1.2673390">
        <ele>1156.6</ele>
        <time>2019-07-05T08:25:52Z</time>
      </trkpt>
      <trkpt lat="40.2964830" lon="-1.2672910">
        <ele>1156.6</ele>
        <time>2019-07-05T08:25:55Z</time>
      </trkpt>
      <trkpt lat="40.2961850" lon="-1.2671910">
        <ele>1155.8</ele>
        <time>2019-07-05T08:26:01Z</time>
      </trkpt>
      <trkpt lat="40.2960190" lon="-1.2671530">
        <ele>1156.8</ele>
        <time>2019-07-05T08:26:05Z</time>
      </trkpt>
      <trkpt lat="40.2959100" lon="-1.2671340">
        <ele>1157.4</ele>
        <time>2019-07-05T08:26:08Z</time>
      </trkpt>
      <trkpt lat="40.2958760" lon="-1.2671310">
        <ele>1157.6</ele>
        <time>2019-07-05T08:26:09Z</time>
      </trkpt>
      <trkpt lat="40.2957800" lon="-1.2671200">
        <ele>1158.8</ele>
        <time>2019-07-05T08:26:12Z</time>
      </trkpt>
      <trkpt lat="40.2956870" lon="-1.2671200">
        <ele>1159.8</ele>
        <time>2019-07-05T08:26:15Z</time>
      </trkpt>
      <trkpt lat="40.2956550" lon="-1.2671230">
        <ele>1160.2</ele>
        <time>2019-07-05T08:26:16Z</time>
      </trkpt>
      <trkpt lat="40.2955610" lon="-1.2671250">
        <ele>1161.0</ele>
        <time>2019-07-05T08:26:19Z</time>
      </trkpt>
      <trkpt lat="40.2954450" lon="-1.2671350">
        <ele>1162.0</ele>
        <time>2019-07-05T08:26:23Z</time>
      </trkpt>
      <trkpt lat="40.2953220" lon="-1.2671340">
        <ele>1163.0</ele>
        <time>2019-07-05T08:26:27Z</time>
      </trkpt>
      <trkpt lat="40.2952330" lon="-1.2671480">
        <ele>1163.8</ele>
        <time>2019-07-05T08:26:30Z</time>
      </trkpt>
      <trkpt lat="40.2952020" lon="-1.2671510">
        <ele>1164.2</ele>
        <time>2019-07-05T08:26:31Z</time>
      </trkpt>
      <trkpt lat="40.2950880" lon="-1.2671560">
        <ele>1165.4</ele>
        <time>2019-07-05T08:26:35Z</time>
      </trkpt>
      <trkpt lat="40.2950270" lon="-1.2671530">
        <ele>1165.6</ele>
        <time>2019-07-05T08:26:37Z</time>
      </trkpt>
      <trkpt lat="40.2948810" lon="-1.2671190">
        <ele>1166.2</ele>
        <time>2019-07-05T08:26:42Z</time>
      </trkpt>
      <trkpt lat="40.2948500" lon="-1.2671090">
        <ele>1166.4</ele>
        <time>2019-07-05T08:26:43Z</time>
      </trkpt>
      <trkpt lat="40.2946320" lon="-1.2670360">
        <ele>1167.4</ele>
        <time>2019-07-05T08:26:50Z</time>
      </trkpt>
      <trkpt lat="40.2944370" lon="-1.2669570">
        <ele>1168.4</ele>
        <time>2019-07-05T08:26:56Z</time>
      </trkpt>
      <trkpt lat="40.2943740" lon="-1.2669320">
        <ele>1169.0</ele>
        <time>2019-07-05T08:26:58Z</time>
      </trkpt>
      <trkpt lat="40.2942380" lon="-1.2668830">
        <ele>1169.4</ele>
        <time>2019-07-05T08:27:02Z</time>
      </trkpt>
      <trkpt lat="40.2941330" lon="-1.2668520">
        <ele>1170.0</ele>
        <time>2019-07-05T08:27:05Z</time>
      </trkpt>
      <trkpt lat="40.2939580" lon="-1.2667930">
        <ele>1170.6</ele>
        <time>2019-07-05T08:27:10Z</time>
      </trkpt>
      <trkpt lat="40.2938480" lon="-1.2667530">
        <ele>1171.2</ele>
        <time>2019-07-05T08:27:13Z</time>
      </trkpt>
      <trkpt lat="40.2936610" lon="-1.2667040">
        <ele>1171.6</ele>
        <time>2019-07-05T08:27:18Z</time>
      </trkpt>
      <trkpt lat="40.2935410" lon="-1.2666930">
        <ele>1172.0</ele>
        <time>2019-07-05T08:27:21Z</time>
      </trkpt>
      <trkpt lat="40.2933460" lon="-1.2667420">
        <ele>1172.8</ele>
        <time>2019-07-05T08:27:26Z</time>
      </trkpt>
      <trkpt lat="40.2933070" lon="-1.2667560">
        <ele>1173.0</ele>
        <time>2019-07-05T08:27:27Z</time>
      </trkpt>
      <trkpt lat="40.2931160" lon="-1.2668360">
        <ele>1173.6</ele>
        <time>2019-07-05T08:27:32Z</time>
      </trkpt>
      <trkpt lat="40.2930410" lon="-1.2668720">
        <ele>1173.6</ele>
        <time>2019-07-05T08:27:34Z</time>
      </trkpt>
      <trkpt lat="40.2928890" lon="-1.2669380">
        <ele>1173.8</ele>
        <time>2019-07-05T08:27:38Z</time>
      </trkpt>
      <trkpt lat="40.2925970" lon="-1.2670900">
        <ele>1174.8</ele>
        <time>2019-07-05T08:27:45Z</time>
      </trkpt>
      <trkpt lat="40.2923570" lon="-1.2672320">
        <ele>1175.6</ele>
        <time>2019-07-05T08:27:51Z</time>
      </trkpt>
      <trkpt lat="40.2922720" lon="-1.2672790">
        <ele>1175.8</ele>
        <time>2019-07-05T08:27:53Z</time>
      </trkpt>
      <trkpt lat="40.2921060" lon="-1.2673830">
        <ele>1176.4</ele>
        <time>2019-07-05T08:27:57Z</time>
      </trkpt>
      <trkpt lat="40.2918170" lon="-1.2675580">
        <ele>1176.8</ele>
        <time>2019-07-05T08:28:04Z</time>
      </trkpt>
      <trkpt lat="40.2917730" lon="-1.2675830">
        <ele>1177.0</ele>
        <time>2019-07-05T08:28:05Z</time>
      </trkpt>
      <trkpt lat="40.2916050" lon="-1.2676860">
        <ele>1177.8</ele>
        <time>2019-07-05T08:28:09Z</time>
      </trkpt>
      <trkpt lat="40.2913660" lon="-1.2678280">
        <ele>1178.0</ele>
        <time>2019-07-05T08:28:15Z</time>
      </trkpt>
      <trkpt lat="40.2912840" lon="-1.2678820">
        <ele>1178.2</ele>
        <time>2019-07-05T08:28:17Z</time>
      </trkpt>
      <trkpt lat="40.2911090" lon="-1.2679860">
        <ele>1178.4</ele>
        <time>2019-07-05T08:28:21Z</time>
      </trkpt>
      <trkpt lat="40.2908610" lon="-1.2681260">
        <ele>1178.8</ele>
        <time>2019-07-05T08:28:27Z</time>
      </trkpt>
      <trkpt lat="40.2908230" lon="-1.2681550">
        <ele>1178.8</ele>
        <time>2019-07-05T08:28:28Z</time>
      </trkpt>
      <trkpt lat="40.2906220" lon="-1.2682860">
        <ele>1179.0</ele>
        <time>2019-07-05T08:28:33Z</time>
      </trkpt>
      <trkpt lat="40.2905810" lon="-1.2683080">
        <ele>1179.2</ele>
        <time>2019-07-05T08:28:34Z</time>
      </trkpt>
      <trkpt lat="40.2903120" lon="-1.2684610">
        <ele>1180.2</ele>
        <time>2019-07-05T08:28:41Z</time>
      </trkpt>
      <trkpt lat="40.2900430" lon="-1.2686180">
        <ele>1180.8</ele>
        <time>2019-07-05T08:28:48Z</time>
      </trkpt>
      <trkpt lat="40.2899670" lon="-1.2686660">
        <ele>1181.0</ele>
        <time>2019-07-05T08:28:50Z</time>
      </trkpt>
      <trkpt lat="40.2897790" lon="-1.2687840">
        <ele>1182.0</ele>
        <time>2019-07-05T08:28:55Z</time>
      </trkpt>
      <trkpt lat="40.2896200" lon="-1.2688760">
        <ele>1182.0</ele>
        <time>2019-07-05T08:28:59Z</time>
      </trkpt>
      <trkpt lat="40.2894980" lon="-1.2689460">
        <ele>1182.4</ele>
        <time>2019-07-05T08:29:02Z</time>
      </trkpt>
      <trkpt lat="40.2892500" lon="-1.2690840">
        <ele>1183.2</ele>
        <time>2019-07-05T08:29:08Z</time>
      </trkpt>
      <trkpt lat="40.2889680" lon="-1.2692680">
        <ele>1183.8</ele>
        <time>2019-07-05T08:29:15Z</time>
      </trkpt>
      <trkpt lat="40.2888110" lon="-1.2693900">
        <ele>1184.0</ele>
        <time>2019-07-05T08:29:19Z</time>
      </trkpt>
      <trkpt lat="40.2886970" lon="-1.2694890">
        <ele>1184.2</ele>
        <time>2019-07-05T08:29:22Z</time>
      </trkpt>
      <trkpt lat="40.2886580" lon="-1.2695200">
        <ele>1184.4</ele>
        <time>2019-07-05T08:29:23Z</time>
      </trkpt>
      <trkpt lat="40.2885840" lon="-1.2695930">
        <ele>1184.6</ele>
        <time>2019-07-05T08:29:25Z</time>
      </trkpt>
      <trkpt lat="40.2884080" lon="-1.2697890">
        <ele>1184.8</ele>
        <time>2019-07-05T08:29:30Z</time>
      </trkpt>
      <trkpt lat="40.2881920" lon="-1.2700310">
        <ele>1185.2</ele>
        <time>2019-07-05T08:29:36Z</time>
      </trkpt>
      <trkpt lat="40.2881230" lon="-1.2701140">
        <ele>1185.4</ele>
        <time>2019-07-05T08:29:38Z</time>
      </trkpt>
      <trkpt lat="40.2878780" lon="-1.2704060">
        <ele>1185.6</ele>
        <time>2019-07-05T08:29:45Z</time>
      </trkpt>
      <trkpt lat="40.2876760" lon="-1.2706570">
        <ele>1186.2</ele>
        <time>2019-07-05T08:29:51Z</time>
      </trkpt>
      <trkpt lat="40.2876080" lon="-1.2707390">
        <ele>1186.4</ele>
        <time>2019-07-05T08:29:53Z</time>
      </trkpt>
      <trkpt lat="40.2874060" lon="-1.2709690">
        <ele>1186.6</ele>
        <time>2019-07-05T08:29:59Z</time>
      </trkpt>
      <trkpt lat="40.2873380" lon="-1.2710480">
        <ele>1186.8</ele>
        <time>2019-07-05T08:30:01Z</time>
      </trkpt>
      <trkpt lat="40.2871170" lon="-1.2712870">
        <ele>1186.8</ele>
        <time>2019-07-05T08:30:07Z</time>
      </trkpt>
      <trkpt lat="40.2870830" lon="-1.2713290">
        <ele>1187.0</ele>
        <time>2019-07-05T08:30:08Z</time>
      </trkpt>
      <trkpt lat="40.2869450" lon="-1.2714950">
        <ele>1187.2</ele>
        <time>2019-07-05T08:30:12Z</time>
      </trkpt>
      <trkpt lat="40.2867740" lon="-1.2717060">
        <ele>1187.6</ele>
        <time>2019-07-05T08:30:17Z</time>
      </trkpt>
      <trkpt lat="40.2865340" lon="-1.2720050">
        <ele>1187.8</ele>
        <time>2019-07-05T08:30:24Z</time>
      </trkpt>
      <trkpt lat="40.2864390" lon="-1.2721430">
        <ele>1188.0</ele>
        <time>2019-07-05T08:30:27Z</time>
      </trkpt>
      <trkpt lat="40.2864160" lon="-1.2721960">
        <ele>1188.2</ele>
        <time>2019-07-05T08:30:28Z</time>
      </trkpt>
      <trkpt lat="40.2863790" lon="-1.2723020">
        <ele>1188.4</ele>
        <time>2019-07-05T08:30:30Z</time>
      </trkpt>
      <trkpt lat="40.2863650" lon="-1.2725210">
        <ele>1188.4</ele>
        <time>2019-07-05T08:30:34Z</time>
      </trkpt>
      <trkpt lat="40.2863750" lon="-1.2726330">
        <ele>1188.4</ele>
        <time>2019-07-05T08:30:36Z</time>
      </trkpt>
      <trkpt lat="40.2864340" lon="-1.2728440">
        <ele>1189.0</ele>
        <time>2019-07-05T08:30:40Z</time>
      </trkpt>
      <trkpt lat="40.2864510" lon="-1.2728940">
        <ele>1189.2</ele>
        <time>2019-07-05T08:30:41Z</time>
      </trkpt>
      <trkpt lat="40.2865260" lon="-1.2731000">
        <ele>1189.8</ele>
        <time>2019-07-05T08:30:45Z</time>
      </trkpt>
      <trkpt lat="40.2866020" lon="-1.2733050">
        <ele>1189.8</ele>
        <time>2019-07-05T08:30:49Z</time>
      </trkpt>
      <trkpt lat="40.2866410" lon="-1.2734080">
        <ele>1190.0</ele>
        <time>2019-07-05T08:30:51Z</time>
      </trkpt>
      <trkpt lat="40.2866600" lon="-1.2734610">
        <ele>1190.2</ele>
        <time>2019-07-05T08:30:52Z</time>
      </trkpt>
      <trkpt lat="40.2867700" lon="-1.2737880">
        <ele>1190.6</ele>
        <time>2019-07-05T08:30:58Z</time>
      </trkpt>
      <trkpt lat="40.2868810" lon="-1.2741330">
        <ele>1191.0</ele>
        <time>2019-07-05T08:31:04Z</time>
      </trkpt>
      <trkpt lat="40.2869660" lon="-1.2746100">
        <ele>1192.2</ele>
        <time>2019-07-05T08:31:12Z</time>
      </trkpt>
      <trkpt lat="40.2869680" lon="-1.2750410">
        <ele>1193.2</ele>
        <time>2019-07-05T08:31:19Z</time>
      </trkpt>
      <trkpt lat="40.2869660" lon="-1.2751050">
        <ele>1193.2</ele>
        <time>2019-07-05T08:31:20Z</time>
      </trkpt>
      <trkpt lat="40.2869620" lon="-1.2752330">
        <ele>1193.4</ele>
        <time>2019-07-05T08:31:22Z</time>
      </trkpt>
      <trkpt lat="40.2869530" lon="-1.2754260">
        <ele>1193.4</ele>
        <time>2019-07-05T08:31:25Z</time>
      </trkpt>
      <trkpt lat="40.2869530" lon="-1.2757430">
        <ele>1193.6</ele>
        <time>2019-07-05T08:31:30Z</time>
      </trkpt>
      <trkpt lat="40.2869640" lon="-1.2758060">
        <ele>1193.6</ele>
        <time>2019-07-05T08:31:31Z</time>
      </trkpt>
      <trkpt lat="40.2869980" lon="-1.2760540">
        <ele>1194.0</ele>
        <time>2019-07-05T08:31:35Z</time>
      </trkpt>
      <trkpt lat="40.2870100" lon="-1.2761120">
        <ele>1194.0</ele>
        <time>2019-07-05T08:31:36Z</time>
      </trkpt>
      <trkpt lat="40.2870470" lon="-1.2762260">
        <ele>1194.2</ele>
        <time>2019-07-05T08:31:38Z</time>
      </trkpt>
      <trkpt lat="40.2870850" lon="-1.2763420">
        <ele>1194.6</ele>
        <time>2019-07-05T08:31:40Z</time>
      </trkpt>
      <trkpt lat="40.2871250" lon="-1.2764560">
        <ele>1194.6</ele>
        <time>2019-07-05T08:31:42Z</time>
      </trkpt>
      <trkpt lat="40.2872800" lon="-1.2768600">
        <ele>1194.8</ele>
        <time>2019-07-05T08:31:49Z</time>
      </trkpt>
      <trkpt lat="40.2874520" lon="-1.2773200">
        <ele>1195.2</ele>
        <time>2019-07-05T08:31:57Z</time>
      </trkpt>
      <trkpt lat="40.2876150" lon="-1.2777860">
        <ele>1195.6</ele>
        <time>2019-07-05T08:32:05Z</time>
      </trkpt>
      <trkpt lat="40.2876510" lon="-1.2780410">
        <ele>1196.2</ele>
        <time>2019-07-05T08:32:09Z</time>
      </trkpt>
      <trkpt lat="40.2876570" lon="-1.2781070">
        <ele>1196.2</ele>
        <time>2019-07-05T08:32:10Z</time>
      </trkpt>
      <trkpt lat="40.2876580" lon="-1.2782420">
        <ele>1196.6</ele>
        <time>2019-07-05T08:32:12Z</time>
      </trkpt>
      <trkpt lat="40.2876300" lon="-1.2785060">
        <ele>1197.2</ele>
        <time>2019-07-05T08:32:16Z</time>
      </trkpt>
      <trkpt lat="40.2876170" lon="-1.2786340">
        <ele>1197.2</ele>
        <time>2019-07-05T08:32:18Z</time>
      </trkpt>
      <trkpt lat="40.2875960" lon="-1.2788100">
        <ele>1197.2</ele>
        <time>2019-07-05T08:32:21Z</time>
      </trkpt>
      <trkpt lat="40.2875570" lon="-1.2789810">
        <ele>1197.4</ele>
        <time>2019-07-05T08:32:24Z</time>
      </trkpt>
      <trkpt lat="40.2874640" lon="-1.2794030">
        <ele>1197.8</ele>
        <time>2019-07-05T08:32:31Z</time>
      </trkpt>
      <trkpt lat="40.2874260" lon="-1.2795730">
        <ele>1198.2</ele>
        <time>2019-07-05T08:32:34Z</time>
      </trkpt>
      <trkpt lat="40.2874060" lon="-1.2796890">
        <ele>1198.4</ele>
        <time>2019-07-05T08:32:36Z</time>
      </trkpt>
      <trkpt lat="40.2873990" lon="-1.2797470">
        <ele>1198.6</ele>
        <time>2019-07-05T08:32:37Z</time>
      </trkpt>
      <trkpt lat="40.2873780" lon="-1.2798590">
        <ele>1198.6</ele>
        <time>2019-07-05T08:32:39Z</time>
      </trkpt>
      <trkpt lat="40.2873410" lon="-1.2800480">
        <ele>1199.0</ele>
        <time>2019-07-05T08:32:43Z</time>
      </trkpt>
      <trkpt lat="40.2873350" lon="-1.2800880">
        <ele>1199.0</ele>
        <time>2019-07-05T08:32:46Z</time>
      </trkpt>
      <trkpt lat="40.2873180" lon="-1.2801280">
        <ele>1199.4</ele>
        <time>2019-07-05T08:33:50Z</time>
      </trkpt>
      <trkpt lat="40.2873160" lon="-1.2801500">
        <ele>1199.4</ele>
        <time>2019-07-05T08:33:51Z</time>
      </trkpt>
      <trkpt lat="40.2873130" lon="-1.2801770">
        <ele>1199.4</ele>
        <time>2019-07-05T08:33:52Z</time>
      </trkpt>
      <trkpt lat="40.2873050" lon="-1.2802720">
        <ele>1199.4</ele>
        <time>2019-07-05T08:33:55Z</time>
      </trkpt>
      <trkpt lat="40.2872890" lon="-1.2803870">
        <ele>1199.8</ele>
        <time>2019-07-05T08:33:58Z</time>
      </trkpt>
      <trkpt lat="40.2872430" lon="-1.2806530">
        <ele>1200.4</ele>
        <time>2019-07-05T08:34:04Z</time>
      </trkpt>
      <trkpt lat="40.2872330" lon="-1.2806980">
        <ele>1200.6</ele>
        <time>2019-07-05T08:34:05Z</time>
      </trkpt>
      <trkpt lat="40.2871810" lon="-1.2809310">
        <ele>1201.2</ele>
        <time>2019-07-05T08:34:10Z</time>
      </trkpt>
      <trkpt lat="40.2871500" lon="-1.2810750">
        <ele>1201.6</ele>
        <time>2019-07-05T08:34:13Z</time>
      </trkpt>
      <trkpt lat="40.2870810" lon="-1.2814220">
        <ele>1202.4</ele>
        <time>2019-07-05T08:34:20Z</time>
      </trkpt>
      <trkpt lat="40.2870720" lon="-1.2814740">
        <ele>1202.4</ele>
        <time>2019-07-05T08:34:21Z</time>
      </trkpt>
      <trkpt lat="40.2870410" lon="-1.2816320">
        <ele>1202.6</ele>
        <time>2019-07-05T08:34:24Z</time>
      </trkpt>
      <trkpt lat="40.2870110" lon="-1.2817900">
        <ele>1203.0</ele>
        <time>2019-07-05T08:34:27Z</time>
      </trkpt>
      <trkpt lat="40.2869790" lon="-1.2819480">
        <ele>1203.4</ele>
        <time>2019-07-05T08:34:30Z</time>
      </trkpt>
      <trkpt lat="40.2869460" lon="-1.2821150">
        <ele>1203.6</ele>
        <time>2019-07-05T08:34:33Z</time>
      </trkpt>
      <trkpt lat="40.2868850" lon="-1.2823990">
        <ele>1204.0</ele>
        <time>2019-07-05T08:34:38Z</time>
      </trkpt>
      <trkpt lat="40.2868660" lon="-1.2825110">
        <ele>1204.4</ele>
        <time>2019-07-05T08:34:40Z</time>
      </trkpt>
      <trkpt lat="40.2868530" lon="-1.2825640">
        <ele>1204.4</ele>
        <time>2019-07-05T08:34:41Z</time>
      </trkpt>
      <trkpt lat="40.2868320" lon="-1.2826750">
        <ele>1204.6</ele>
        <time>2019-07-05T08:34:43Z</time>
      </trkpt>
      <trkpt lat="40.2867900" lon="-1.2828970">
        <ele>1205.0</ele>
        <time>2019-07-05T08:34:47Z</time>
      </trkpt>
      <trkpt lat="40.2867470" lon="-1.2831130">
        <ele>1205.0</ele>
        <time>2019-07-05T08:34:51Z</time>
      </trkpt>
      <trkpt lat="40.2866790" lon="-1.2834920">
        <ele>1205.6</ele>
        <time>2019-07-05T08:34:58Z</time>
      </trkpt>
      <trkpt lat="40.2866700" lon="-1.2835460">
        <ele>1205.8</ele>
        <time>2019-07-05T08:34:59Z</time>
      </trkpt>
      <trkpt lat="40.2866230" lon="-1.2837640">
        <ele>1206.6</ele>
        <time>2019-07-05T08:35:03Z</time>
      </trkpt>
      <trkpt lat="40.2865750" lon="-1.2839830">
        <ele>1207.0</ele>
        <time>2019-07-05T08:35:07Z</time>
      </trkpt>
      <trkpt lat="40.2865100" lon="-1.2843680">
        <ele>1207.6</ele>
        <time>2019-07-05T08:35:14Z</time>
      </trkpt>
      <trkpt lat="40.2865020" lon="-1.2844250">
        <ele>1207.6</ele>
        <time>2019-07-05T08:35:15Z</time>
      </trkpt>
      <trkpt lat="40.2864610" lon="-1.2847680">
        <ele>1208.6</ele>
        <time>2019-07-05T08:35:21Z</time>
      </trkpt>
      <trkpt lat="40.2864580" lon="-1.2848250">
        <ele>1208.8</ele>
        <time>2019-07-05T08:35:22Z</time>
      </trkpt>
      <trkpt lat="40.2864410" lon="-1.2851120">
        <ele>1208.8</ele>
        <time>2019-07-05T08:35:27Z</time>
      </trkpt>
      <trkpt lat="40.2864030" lon="-1.2856220">
        <ele>1209.6</ele>
        <time>2019-07-05T08:35:36Z</time>
      </trkpt>
      <trkpt lat="40.2864020" lon="-1.2856780">
        <ele>1209.6</ele>
        <time>2019-07-05T08:35:37Z</time>
      </trkpt>
      <trkpt lat="40.2863640" lon="-1.2861400">
        <ele>1210.4</ele>
        <time>2019-07-05T08:35:45Z</time>
      </trkpt>
      <trkpt lat="40.2863530" lon="-1.2862640">
        <ele>1210.6</ele>
        <time>2019-07-05T08:35:47Z</time>
      </trkpt>
      <trkpt lat="40.2862860" lon="-1.2867640">
        <ele>1211.2</ele>
        <time>2019-07-05T08:35:55Z</time>
      </trkpt>
      <trkpt lat="40.2862110" lon="-1.2870740">
        <ele>1211.6</ele>
        <time>2019-07-05T08:36:00Z</time>
      </trkpt>
      <trkpt lat="40.2861720" lon="-1.2871990">
        <ele>1211.6</ele>
        <time>2019-07-05T08:36:02Z</time>
      </trkpt>
      <trkpt lat="40.2860580" lon="-1.2875310">
        <ele>1211.0</ele>
        <time>2019-07-05T08:36:07Z</time>
      </trkpt>
      <trkpt lat="40.2859690" lon="-1.2877960">
        <ele>1211.0</ele>
        <time>2019-07-05T08:36:11Z</time>
      </trkpt>
      <trkpt lat="40.2857980" lon="-1.2883090">
        <ele>1211.0</ele>
        <time>2019-07-05T08:36:19Z</time>
      </trkpt>
      <trkpt lat="40.2856600" lon="-1.2887080">
        <ele>1212.2</ele>
        <time>2019-07-05T08:36:26Z</time>
      </trkpt>
      <trkpt lat="40.2856140" lon="-1.2888460">
        <ele>1212.6</ele>
        <time>2019-07-05T08:36:29Z</time>
      </trkpt>
      <trkpt lat="40.2855830" lon="-1.2889740">
        <ele>1213.6</ele>
        <time>2019-07-05T08:36:32Z</time>
      </trkpt>
      <trkpt lat="40.2855700" lon="-1.2890150">
        <ele>1213.8</ele>
        <time>2019-07-05T08:36:33Z</time>
      </trkpt>
      <trkpt lat="40.2855270" lon="-1.2891740">
        <ele>1214.6</ele>
        <time>2019-07-05T08:36:37Z</time>
      </trkpt>
      <trkpt lat="40.2855140" lon="-1.2892120">
        <ele>1215.0</ele>
        <time>2019-07-05T08:36:38Z</time>
      </trkpt>
      <trkpt lat="40.2854640" lon="-1.2893590">
        <ele>1216.2</ele>
        <time>2019-07-05T08:36:42Z</time>
      </trkpt>
      <trkpt lat="40.2854380" lon="-1.2894710">
        <ele>1217.0</ele>
        <time>2019-07-05T08:36:45Z</time>
      </trkpt>
      <trkpt lat="40.2854280" lon="-1.2895070">
        <ele>1217.4</ele>
        <time>2019-07-05T08:36:46Z</time>
      </trkpt>
      <trkpt lat="40.2853810" lon="-1.2896550">
        <ele>1218.4</ele>
        <time>2019-07-05T08:36:50Z</time>
      </trkpt>
      <trkpt lat="40.2853320" lon="-1.2898000">
        <ele>1219.4</ele>
        <time>2019-07-05T08:36:54Z</time>
      </trkpt>
      <trkpt lat="40.2852820" lon="-1.2899450">
        <ele>1220.2</ele>
        <time>2019-07-05T08:36:58Z</time>
      </trkpt>
      <trkpt lat="40.2852620" lon="-1.2900230">
        <ele>1220.6</ele>
        <time>2019-07-05T08:37:00Z</time>
      </trkpt>
      <trkpt lat="40.2852150" lon="-1.2901810">
        <ele>1221.6</ele>
        <time>2019-07-05T08:37:04Z</time>
      </trkpt>
      <trkpt lat="40.2851760" lon="-1.2903340">
        <ele>1222.2</ele>
        <time>2019-07-05T08:37:08Z</time>
      </trkpt>
      <trkpt lat="40.2851460" lon="-1.2904500">
        <ele>1222.6</ele>
        <time>2019-07-05T08:37:11Z</time>
      </trkpt>
      <trkpt lat="40.2851060" lon="-1.2906060">
        <ele>1223.8</ele>
        <time>2019-07-05T08:37:15Z</time>
      </trkpt>
      <trkpt lat="40.2850960" lon="-1.2906450">
        <ele>1224.0</ele>
        <time>2019-07-05T08:37:16Z</time>
      </trkpt>
      <trkpt lat="40.2850280" lon="-1.2908780">
        <ele>1225.0</ele>
        <time>2019-07-05T08:37:22Z</time>
      </trkpt>
      <trkpt lat="40.2849330" lon="-1.2911070">
        <ele>1225.8</ele>
        <time>2019-07-05T08:37:28Z</time>
      </trkpt>
      <trkpt lat="40.2848750" lon="-1.2912180">
        <ele>1226.0</ele>
        <time>2019-07-05T08:37:31Z</time>
      </trkpt>
      <trkpt lat="40.2847920" lon="-1.2913700">
        <ele>1226.6</ele>
        <time>2019-07-05T08:37:35Z</time>
      </trkpt>
      <trkpt lat="40.2846260" lon="-1.2916480">
        <ele>1227.0</ele>
        <time>2019-07-05T08:37:42Z</time>
      </trkpt>
      <trkpt lat="40.2845490" lon="-1.2917740">
        <ele>1227.0</ele>
        <time>2019-07-05T08:37:45Z</time>
      </trkpt>
      <trkpt lat="40.2844450" lon="-1.2919520">
        <ele>1227.4</ele>
        <time>2019-07-05T08:37:49Z</time>
      </trkpt>
      <trkpt lat="40.2843460" lon="-1.2921390">
        <ele>1227.8</ele>
        <time>2019-07-05T08:37:53Z</time>
      </trkpt>
      <trkpt lat="40.2842740" lon="-1.2922880">
        <ele>1228.2</ele>
        <time>2019-07-05T08:37:56Z</time>
      </trkpt>
      <trkpt lat="40.2842230" lon="-1.2923880">
        <ele>1228.0</ele>
        <time>2019-07-05T08:37:58Z</time>
      </trkpt>
      <trkpt lat="40.2840910" lon="-1.2926460">
        <ele>1227.8</ele>
        <time>2019-07-05T08:38:03Z</time>
      </trkpt>
      <trkpt lat="40.2840380" lon="-1.2927560">
        <ele>1227.8</ele>
        <time>2019-07-05T08:38:05Z</time>
      </trkpt>
      <trkpt lat="40.2838190" lon="-1.2932430">
        <ele>1227.6</ele>
        <time>2019-07-05T08:38:13Z</time>
      </trkpt>
      <trkpt lat="40.2837410" lon="-1.2934550">
        <ele>1227.4</ele>
        <time>2019-07-05T08:38:16Z</time>
      </trkpt>
      <trkpt lat="40.2836490" lon="-1.2937470">
        <ele>1227.0</ele>
        <time>2019-07-05T08:38:20Z</time>
      </trkpt>
      <trkpt lat="40.2836040" lon="-1.2938910">
        <ele>1227.0</ele>
        <time>2019-07-05T08:38:22Z</time>
      </trkpt>
      <trkpt lat="40.2835850" lon="-1.2939640">
        <ele>1226.8</ele>
        <time>2019-07-05T08:38:23Z</time>
      </trkpt>
      <trkpt lat="40.2835340" lon="-1.2943400">
        <ele>1226.8</ele>
        <time>2019-07-05T08:38:28Z</time>
      </trkpt>
      <trkpt lat="40.2834700" lon="-1.2947840">
        <ele>1227.0</ele>
        <time>2019-07-05T08:38:35Z</time>
      </trkpt>
      <trkpt lat="40.2834510" lon="-1.2948370">
        <ele>1227.2</ele>
        <time>2019-07-05T08:38:36Z</time>
      </trkpt>
      <trkpt lat="40.2834150" lon="-1.2949370">
        <ele>1228.0</ele>
        <time>2019-07-05T08:38:38Z</time>
      </trkpt>
      <trkpt lat="40.2833850" lon="-1.2950320">
        <ele>1228.4</ele>
        <time>2019-07-05T08:38:40Z</time>
      </trkpt>
      <trkpt lat="40.2833290" lon="-1.2951660">
        <ele>1229.0</ele>
        <time>2019-07-05T08:38:43Z</time>
      </trkpt>
      <trkpt lat="40.2832570" lon="-1.2953430">
        <ele>1229.6</ele>
        <time>2019-07-05T08:38:47Z</time>
      </trkpt>
      <trkpt lat="40.2832230" lon="-1.2954300">
        <ele>1230.0</ele>
        <time>2019-07-05T08:38:49Z</time>
      </trkpt>
      <trkpt lat="40.2831660" lon="-1.2956150">
        <ele>1231.0</ele>
        <time>2019-07-05T08:38:53Z</time>
      </trkpt>
      <trkpt lat="40.2831530" lon="-1.2956620">
        <ele>1231.4</ele>
        <time>2019-07-05T08:38:54Z</time>
      </trkpt>
      <trkpt lat="40.2831100" lon="-1.2958570">
        <ele>1232.0</ele>
        <time>2019-07-05T08:38:58Z</time>
      </trkpt>
      <trkpt lat="40.2830670" lon="-1.2960520">
        <ele>1232.6</ele>
        <time>2019-07-05T08:39:02Z</time>
      </trkpt>
      <trkpt lat="40.2830320" lon="-1.2962030">
        <ele>1233.2</ele>
        <time>2019-07-05T08:39:05Z</time>
      </trkpt>
      <trkpt lat="40.2829600" lon="-1.2964620">
        <ele>1233.8</ele>
        <time>2019-07-05T08:39:10Z</time>
      </trkpt>
      <trkpt lat="40.2829130" lon="-1.2966160">
        <ele>1234.2</ele>
        <time>2019-07-05T08:39:13Z</time>
      </trkpt>
      <trkpt lat="40.2828390" lon="-1.2968930">
        <ele>1235.2</ele>
        <time>2019-07-05T08:39:18Z</time>
      </trkpt>
      <trkpt lat="40.2827570" lon="-1.2972290">
        <ele>1236.0</ele>
        <time>2019-07-05T08:39:24Z</time>
      </trkpt>
      <trkpt lat="40.2827230" lon="-1.2973300">
        <ele>1236.4</ele>
        <time>2019-07-05T08:39:26Z</time>
      </trkpt>
      <trkpt lat="40.2826540" lon="-1.2975310">
        <ele>1237.0</ele>
        <time>2019-07-05T08:39:30Z</time>
      </trkpt>
      <trkpt lat="40.2826230" lon="-1.2976290">
        <ele>1237.4</ele>
        <time>2019-07-05T08:39:32Z</time>
      </trkpt>
      <trkpt lat="40.2826090" lon="-1.2976770">
        <ele>1237.6</ele>
        <time>2019-07-05T08:39:33Z</time>
      </trkpt>
      <trkpt lat="40.2824970" lon="-1.2980540">
        <ele>1238.4</ele>
        <time>2019-07-05T08:39:41Z</time>
      </trkpt>
      <trkpt lat="40.2824820" lon="-1.2981010">
        <ele>1238.6</ele>
        <time>2019-07-05T08:39:42Z</time>
      </trkpt>
      <trkpt lat="40.2824020" lon="-1.2983950">
        <ele>1239.0</ele>
        <time>2019-07-05T08:39:48Z</time>
      </trkpt>
      <trkpt lat="40.2823620" lon="-1.2985860">
        <ele>1239.4</ele>
        <time>2019-07-05T08:39:52Z</time>
      </trkpt>
      <trkpt lat="40.2823340" lon="-1.2987810">
        <ele>1240.6</ele>
        <time>2019-07-05T08:39:56Z</time>
      </trkpt>
      <trkpt lat="40.2823180" lon="-1.2989240">
        <ele>1241.8</ele>
        <time>2019-07-05T08:39:59Z</time>
      </trkpt>
      <trkpt lat="40.2823010" lon="-1.2991130">
        <ele>1242.6</ele>
        <time>2019-07-05T08:40:03Z</time>
      </trkpt>
      <trkpt lat="40.2822960" lon="-1.2991610">
        <ele>1242.8</ele>
        <time>2019-07-05T08:40:04Z</time>
      </trkpt>
      <trkpt lat="40.2822540" lon="-1.2994030">
        <ele>1243.8</ele>
        <time>2019-07-05T08:40:09Z</time>
      </trkpt>
      <trkpt lat="40.2822450" lon="-1.2994520">
        <ele>1244.0</ele>
        <time>2019-07-05T08:40:10Z</time>
      </trkpt>
      <trkpt lat="40.2821960" lon="-1.2996940">
        <ele>1245.0</ele>
        <time>2019-07-05T08:40:15Z</time>
      </trkpt>
      <trkpt lat="40.2821500" lon="-1.2998900">
        <ele>1246.0</ele>
        <time>2019-07-05T08:40:19Z</time>
      </trkpt>
      <trkpt lat="40.2820940" lon="-1.3001220">
        <ele>1247.0</ele>
        <time>2019-07-05T08:40:24Z</time>
      </trkpt>
      <trkpt lat="40.2820600" lon="-1.3002570">
        <ele>1247.6</ele>
        <time>2019-07-05T08:40:27Z</time>
      </trkpt>
      <trkpt lat="40.2819790" lon="-1.3005330">
        <ele>1248.2</ele>
        <time>2019-07-05T08:40:33Z</time>
      </trkpt>
      <trkpt lat="40.2819510" lon="-1.3006230">
        <ele>1248.8</ele>
        <time>2019-07-05T08:40:35Z</time>
      </trkpt>
      <trkpt lat="40.2818990" lon="-1.3007620">
        <ele>1249.2</ele>
        <time>2019-07-05T08:40:38Z</time>
      </trkpt>
      <trkpt lat="40.2818450" lon="-1.3009640">
        <ele>1249.8</ele>
        <time>2019-07-05T08:40:42Z</time>
      </trkpt>
      <trkpt lat="40.2817590" lon="-1.3012680">
        <ele>1250.2</ele>
        <time>2019-07-05T08:40:48Z</time>
      </trkpt>
      <trkpt lat="40.2817180" lon="-1.3014140">
        <ele>1251.2</ele>
        <time>2019-07-05T08:40:51Z</time>
      </trkpt>
      <trkpt lat="40.2817050" lon="-1.3014630">
        <ele>1251.4</ele>
        <time>2019-07-05T08:40:52Z</time>
      </trkpt>
      <trkpt lat="40.2816700" lon="-1.3016130">
        <ele>1251.8</ele>
        <time>2019-07-05T08:40:55Z</time>
      </trkpt>
      <trkpt lat="40.2816390" lon="-1.3017580">
        <ele>1252.4</ele>
        <time>2019-07-05T08:40:58Z</time>
      </trkpt>
      <trkpt lat="40.2816250" lon="-1.3018050">
        <ele>1252.6</ele>
        <time>2019-07-05T08:40:59Z</time>
      </trkpt>
      <trkpt lat="40.2815400" lon="-1.3021390">
        <ele>1253.2</ele>
        <time>2019-07-05T08:41:06Z</time>
      </trkpt>
      <trkpt lat="40.2815190" lon="-1.3022390">
        <ele>1253.2</ele>
        <time>2019-07-05T08:41:08Z</time>
      </trkpt>
      <trkpt lat="40.2814600" lon="-1.3024350">
        <ele>1254.0</ele>
        <time>2019-07-05T08:41:12Z</time>
      </trkpt>
      <trkpt lat="40.2814490" lon="-1.3024840">
        <ele>1254.4</ele>
        <time>2019-07-05T08:41:13Z</time>
      </trkpt>
      <trkpt lat="40.2813790" lon="-1.3027290">
        <ele>1255.2</ele>
        <time>2019-07-05T08:41:18Z</time>
      </trkpt>
      <trkpt lat="40.2813520" lon="-1.3028190">
        <ele>1255.6</ele>
        <time>2019-07-05T08:41:20Z</time>
      </trkpt>
      <trkpt lat="40.2813160" lon="-1.3029580">
        <ele>1255.8</ele>
        <time>2019-07-05T08:41:23Z</time>
      </trkpt>
      <trkpt lat="40.2812230" lon="-1.3032360">
        <ele>1256.6</ele>
        <time>2019-07-05T08:41:29Z</time>
      </trkpt>
      <trkpt lat="40.2812050" lon="-1.3032830">
        <ele>1257.0</ele>
        <time>2019-07-05T08:41:30Z</time>
      </trkpt>
      <trkpt lat="40.2811280" lon="-1.3035130">
        <ele>1257.8</ele>
        <time>2019-07-05T08:41:35Z</time>
      </trkpt>
      <trkpt lat="40.2810100" lon="-1.3037850">
        <ele>1259.0</ele>
        <time>2019-07-05T08:41:41Z</time>
      </trkpt>
      <trkpt lat="40.2809690" lon="-1.3038760">
        <ele>1259.2</ele>
        <time>2019-07-05T08:41:43Z</time>
      </trkpt>
      <trkpt lat="40.2808540" lon="-1.3041440">
        <ele>1259.8</ele>
        <time>2019-07-05T08:41:49Z</time>
      </trkpt>
      <trkpt lat="40.2808370" lon="-1.3041900">
        <ele>1260.2</ele>
        <time>2019-07-05T08:41:50Z</time>
      </trkpt>
      <trkpt lat="40.2807380" lon="-1.3044610">
        <ele>1261.0</ele>
        <time>2019-07-05T08:41:56Z</time>
      </trkpt>
      <trkpt lat="40.2806700" lon="-1.3047430">
        <ele>1261.8</ele>
        <time>2019-07-05T08:42:02Z</time>
      </trkpt>
      <trkpt lat="40.2806400" lon="-1.3049010">
        <ele>1262.0</ele>
        <time>2019-07-05T08:42:05Z</time>
      </trkpt>
      <trkpt lat="40.2806180" lon="-1.3050180">
        <ele>1262.0</ele>
        <time>2019-07-05T08:42:08Z</time>
      </trkpt>
      <trkpt lat="40.2806030" lon="-1.3051520">
        <ele>1261.8</ele>
        <time>2019-07-05T08:42:12Z</time>
      </trkpt>
      <trkpt lat="40.2805900" lon="-1.3052320">
        <ele>1261.6</ele>
        <time>2019-07-05T08:42:14Z</time>
      </trkpt>
      <trkpt lat="40.2805730" lon="-1.3053180">
        <ele>1261.2</ele>
        <time>2019-07-05T08:42:16Z</time>
      </trkpt>
      <trkpt lat="40.2805740" lon="-1.3054400">
        <ele>1260.8</ele>
        <time>2019-07-05T08:42:19Z</time>
      </trkpt>
      <trkpt lat="40.2805760" lon="-1.3054760">
        <ele>1260.6</ele>
        <time>2019-07-05T08:42:20Z</time>
      </trkpt>
      <trkpt lat="40.2805800" lon="-1.3057430">
        <ele>1260.2</ele>
        <time>2019-07-05T08:42:25Z</time>
      </trkpt>
      <trkpt lat="40.2805900" lon="-1.3058700">
        <ele>1260.0</ele>
        <time>2019-07-05T08:42:27Z</time>
      </trkpt>
      <trkpt lat="40.2806030" lon="-1.3060060">
        <ele>1260.0</ele>
        <time>2019-07-05T08:42:29Z</time>
      </trkpt>
      <trkpt lat="40.2806210" lon="-1.3061510">
        <ele>1259.6</ele>
        <time>2019-07-05T08:42:31Z</time>
      </trkpt>
      <trkpt lat="40.2806600" lon="-1.3064680">
        <ele>1258.6</ele>
        <time>2019-07-05T08:42:35Z</time>
      </trkpt>
      <trkpt lat="40.2807000" lon="-1.3067320">
        <ele>1258.0</ele>
        <time>2019-07-05T08:42:38Z</time>
      </trkpt>
      <trkpt lat="40.2807310" lon="-1.3069150">
        <ele>1257.4</ele>
        <time>2019-07-05T08:42:40Z</time>
      </trkpt>
      <trkpt lat="40.2808040" lon="-1.3073810">
        <ele>1256.4</ele>
        <time>2019-07-05T08:42:45Z</time>
      </trkpt>
      <trkpt lat="40.2808170" lon="-1.3074760">
        <ele>1255.6</ele>
        <time>2019-07-05T08:42:46Z</time>
      </trkpt>
      <trkpt lat="40.2808540" lon="-1.3077570">
        <ele>1255.2</ele>
        <time>2019-07-05T08:42:49Z</time>
      </trkpt>
      <trkpt lat="40.2808900" lon="-1.3080130">
        <ele>1255.0</ele>
        <time>2019-07-05T08:42:52Z</time>
      </trkpt>
      <trkpt lat="40.2809020" lon="-1.3080930">
        <ele>1254.8</ele>
        <time>2019-07-05T08:42:53Z</time>
      </trkpt>
      <trkpt lat="40.2809350" lon="-1.3083150">
        <ele>1254.6</ele>
        <time>2019-07-05T08:42:56Z</time>
      </trkpt>
      <trkpt lat="40.2809720" lon="-1.3085780">
        <ele>1254.8</ele>
        <time>2019-07-05T08:43:00Z</time>
      </trkpt>
      <trkpt lat="40.2810140" lon="-1.3090140">
        <ele>1255.2</ele>
        <time>2019-07-05T08:43:07Z</time>
      </trkpt>
      <trkpt lat="40.2810110" lon="-1.3090730">
        <ele>1255.2</ele>
        <time>2019-07-05T08:43:08Z</time>
      </trkpt>
      <trkpt lat="40.2810040" lon="-1.3091320">
        <ele>1255.4</ele>
        <time>2019-07-05T08:43:09Z</time>
      </trkpt>
      <trkpt lat="40.2809960" lon="-1.3091900">
        <ele>1255.4</ele>
        <time>2019-07-05T08:43:10Z</time>
      </trkpt>
      <trkpt lat="40.2809750" lon="-1.3093010">
        <ele>1255.6</ele>
        <time>2019-07-05T08:43:12Z</time>
      </trkpt>
      <trkpt lat="40.2809420" lon="-1.3094020">
        <ele>1256.2</ele>
        <time>2019-07-05T08:43:14Z</time>
      </trkpt>
      <trkpt lat="40.2809230" lon="-1.3094490">
        <ele>1256.8</ele>
        <time>2019-07-05T08:43:15Z</time>
      </trkpt>
      <trkpt lat="40.2809000" lon="-1.3094920">
        <ele>1257.0</ele>
        <time>2019-07-05T08:43:16Z</time>
      </trkpt>
      <trkpt lat="40.2808490" lon="-1.3095730">
        <ele>1257.2</ele>
        <time>2019-07-05T08:43:18Z</time>
      </trkpt>
      <trkpt lat="40.2807630" lon="-1.3096820">
        <ele>1257.8</ele>
        <time>2019-07-05T08:43:21Z</time>
      </trkpt>
      <trkpt lat="40.2806740" lon="-1.3097870">
        <ele>1258.2</ele>
        <time>2019-07-05T08:43:24Z</time>
      </trkpt>
      <trkpt lat="40.2806450" lon="-1.3098200">
        <ele>1258.4</ele>
        <time>2019-07-05T08:43:25Z</time>
      </trkpt>
      <trkpt lat="40.2805570" lon="-1.3099130">
        <ele>1258.8</ele>
        <time>2019-07-05T08:43:28Z</time>
      </trkpt>
      <trkpt lat="40.2804390" lon="-1.3100290">
        <ele>1259.4</ele>
        <time>2019-07-05T08:43:32Z</time>
      </trkpt>
      <trkpt lat="40.2803150" lon="-1.3101400">
        <ele>1260.4</ele>
        <time>2019-07-05T08:43:36Z</time>
      </trkpt>
      <trkpt lat="40.2802860" lon="-1.3101700">
        <ele>1260.6</ele>
        <time>2019-07-05T08:43:37Z</time>
      </trkpt>
      <trkpt lat="40.2801790" lon="-1.3103030">
        <ele>1261.2</ele>
        <time>2019-07-05T08:43:41Z</time>
      </trkpt>
      <trkpt lat="40.2801490" lon="-1.3103340">
        <ele>1261.2</ele>
        <time>2019-07-05T08:43:42Z</time>
      </trkpt>
      <trkpt lat="40.2800040" lon="-1.3104830">
        <ele>1261.6</ele>
        <time>2019-07-05T08:43:47Z</time>
      </trkpt>
      <trkpt lat="40.2799460" lon="-1.3105360">
        <ele>1262.0</ele>
        <time>2019-07-05T08:43:49Z</time>
      </trkpt>
      <trkpt lat="40.2798560" lon="-1.3106310">
        <ele>1262.8</ele>
        <time>2019-07-05T08:43:52Z</time>
      </trkpt>
      <trkpt lat="40.2797370" lon="-1.3107590">
        <ele>1263.8</ele>
        <time>2019-07-05T08:43:56Z</time>
      </trkpt>
      <trkpt lat="40.2796780" lon="-1.3108220">
        <ele>1264.2</ele>
        <time>2019-07-05T08:43:58Z</time>
      </trkpt>
      <trkpt lat="40.2794730" lon="-1.3110160">
        <ele>1264.6</ele>
        <time>2019-07-05T08:44:05Z</time>
      </trkpt>
      <trkpt lat="40.2794390" lon="-1.3110360">
        <ele>1265.0</ele>
        <time>2019-07-05T08:44:06Z</time>
      </trkpt>
      <trkpt lat="40.2793120" lon="-1.3111070">
        <ele>1265.8</ele>
        <time>2019-07-05T08:44:10Z</time>
      </trkpt>
      <trkpt lat="40.2792830" lon="-1.3111240">
        <ele>1266.0</ele>
        <time>2019-07-05T08:44:11Z</time>
      </trkpt>
      <trkpt lat="40.2791780" lon="-1.3112030">
        <ele>1267.2</ele>
        <time>2019-07-05T08:44:15Z</time>
      </trkpt>
      <trkpt lat="40.2791540" lon="-1.3112150">
        <ele>1267.4</ele>
        <time>2019-07-05T08:44:16Z</time>
      </trkpt>
      <trkpt lat="40.2791240" lon="-1.3112210">
        <ele>1267.8</ele>
        <time>2019-07-05T08:44:19Z</time>
      </trkpt>
      <trkpt lat="40.2791490" lon="-1.3111900">
        <ele>1267.0</ele>
        <time>2019-07-05T08:47:22Z</time>
      </trkpt>
      <trkpt lat="40.2791680" lon="-1.3111820">
        <ele>1266.8</ele>
        <time>2019-07-05T08:47:23Z</time>
      </trkpt>
      <trkpt lat="40.2792210" lon="-1.3111650">
        <ele>1266.6</ele>
        <time>2019-07-05T08:47:25Z</time>
      </trkpt>
      <trkpt lat="40.2792900" lon="-1.3111320">
        <ele>1266.2</ele>
        <time>2019-07-05T08:47:27Z</time>
      </trkpt>
      <trkpt lat="40.2794140" lon="-1.3110530">
        <ele>1265.8</ele>
        <time>2019-07-05T08:47:30Z</time>
      </trkpt>
      <trkpt lat="40.2795570" lon="-1.3109390">
        <ele>1265.6</ele>
        <time>2019-07-05T08:47:33Z</time>
      </trkpt>
      <trkpt lat="40.2796570" lon="-1.3108420">
        <ele>1265.0</ele>
        <time>2019-07-05T08:47:35Z</time>
      </trkpt>
      <trkpt lat="40.2798150" lon="-1.3106690">
        <ele>1264.2</ele>
        <time>2019-07-05T08:47:38Z</time>
      </trkpt>
      <trkpt lat="40.2798700" lon="-1.3106090">
        <ele>1263.8</ele>
        <time>2019-07-05T08:47:39Z</time>
      </trkpt>
      <trkpt lat="40.2799830" lon="-1.3104860">
        <ele>1263.4</ele>
        <time>2019-07-05T08:47:41Z</time>
      </trkpt>
      <trkpt lat="40.2800990" lon="-1.3103610">
        <ele>1263.0</ele>
        <time>2019-07-05T08:47:43Z</time>
      </trkpt>
      <trkpt lat="40.2801590" lon="-1.3102970">
        <ele>1262.6</ele>
        <time>2019-07-05T08:47:44Z</time>
      </trkpt>
      <trkpt lat="40.2802210" lon="-1.3102360">
        <ele>1262.6</ele>
        <time>2019-07-05T08:47:45Z</time>
      </trkpt>
      <trkpt lat="40.2804100" lon="-1.3100440">
        <ele>1261.6</ele>
        <time>2019-07-05T08:47:48Z</time>
      </trkpt>
      <trkpt lat="40.2806070" lon="-1.3098430">
        <ele>1260.4</ele>
        <time>2019-07-05T08:47:51Z</time>
      </trkpt>
      <trkpt lat="40.2807360" lon="-1.3097030">
        <ele>1260.0</ele>
        <time>2019-07-05T08:47:53Z</time>
      </trkpt>
      <trkpt lat="40.2808530" lon="-1.3095530">
        <ele>1259.6</ele>
        <time>2019-07-05T08:47:55Z</time>
      </trkpt>
      <trkpt lat="40.2808980" lon="-1.3094700">
        <ele>1259.2</ele>
        <time>2019-07-05T08:47:56Z</time>
      </trkpt>
      <trkpt lat="40.2809330" lon="-1.3093840">
        <ele>1258.4</ele>
        <time>2019-07-05T08:47:57Z</time>
      </trkpt>
      <trkpt lat="40.2809570" lon="-1.3092890">
        <ele>1258.0</ele>
        <time>2019-07-05T08:47:58Z</time>
      </trkpt>
      <trkpt lat="40.2809750" lon="-1.3091930">
        <ele>1257.6</ele>
        <time>2019-07-05T08:47:59Z</time>
      </trkpt>
      <trkpt lat="40.2809950" lon="-1.3090110">
        <ele>1256.8</ele>
        <time>2019-07-05T08:48:01Z</time>
      </trkpt>
      <trkpt lat="40.2810150" lon="-1.3088690">
        <ele>1256.2</ele>
        <time>2019-07-05T08:48:03Z</time>
      </trkpt>
      <trkpt lat="40.2810400" lon="-1.3088140">
        <ele>1256.0</ele>
        <time>2019-07-05T08:48:04Z</time>
      </trkpt>
      <trkpt lat="40.2810730" lon="-1.3087640">
        <ele>1255.8</ele>
        <time>2019-07-05T08:48:05Z</time>
      </trkpt>
      <trkpt lat="40.2811910" lon="-1.3086290">
        <ele>1254.8</ele>
        <time>2019-07-05T08:48:08Z</time>
      </trkpt>
      <trkpt lat="40.2812340" lon="-1.3085860">
        <ele>1254.4</ele>
        <time>2019-07-05T08:48:09Z</time>
      </trkpt>
      <trkpt lat="40.2812810" lon="-1.3085470">
        <ele>1254.0</ele>
        <time>2019-07-05T08:48:10Z</time>
      </trkpt>
      <trkpt lat="40.2813900" lon="-1.3084840">
        <ele>1253.2</ele>
        <time>2019-07-05T08:48:12Z</time>
      </trkpt>
      <trkpt lat="40.2814480" lon="-1.3084630">
        <ele>1253.0</ele>
        <time>2019-07-05T08:48:13Z</time>
      </trkpt>
      <trkpt lat="40.2815660" lon="-1.3084480">
        <ele>1252.0</ele>
        <time>2019-07-05T08:48:15Z</time>
      </trkpt>
      <trkpt lat="40.2816840" lon="-1.3084530">
        <ele>1251.6</ele>
        <time>2019-07-05T08:48:17Z</time>
      </trkpt>
      <trkpt lat="40.2817410" lon="-1.3084560">
        <ele>1251.6</ele>
        <time>2019-07-05T08:48:18Z</time>
      </trkpt>
      <trkpt lat="40.2819030" lon="-1.3084260">
        <ele>1251.4</ele>
        <time>2019-07-05T08:48:21Z</time>
      </trkpt>
      <trkpt lat="40.2819590" lon="-1.3084200">
        <ele>1251.4</ele>
        <time>2019-07-05T08:48:22Z</time>
      </trkpt>
      <trkpt lat="40.2820110" lon="-1.3084160">
        <ele>1251.4</ele>
        <time>2019-07-05T08:48:23Z</time>
      </trkpt>
      <trkpt lat="40.2821100" lon="-1.3084000">
        <ele>1251.4</ele>
        <time>2019-07-05T08:48:25Z</time>
      </trkpt>
      <trkpt lat="40.2822000" lon="-1.3083690">
        <ele>1251.8</ele>
        <time>2019-07-05T08:48:27Z</time>
      </trkpt>
      <trkpt lat="40.2822450" lon="-1.3083590">
        <ele>1252.0</ele>
        <time>2019-07-05T08:48:28Z</time>
      </trkpt>
      <trkpt lat="40.2824190" lon="-1.3083380">
        <ele>1252.2</ele>
        <time>2019-07-05T08:48:32Z</time>
      </trkpt>
      <trkpt lat="40.2825990" lon="-1.3083260">
        <ele>1252.8</ele>
        <time>2019-07-05T08:48:36Z</time>
      </trkpt>
      <trkpt lat="40.2826890" lon="-1.3083160">
        <ele>1253.0</ele>
        <time>2019-07-05T08:48:38Z</time>
      </trkpt>
      <trkpt lat="40.2827820" lon="-1.3083120">
        <ele>1253.2</ele>
        <time>2019-07-05T08:48:40Z</time>
      </trkpt>
      <trkpt lat="40.2831280" lon="-1.3082820">
        <ele>1252.8</ele>
        <time>2019-07-05T08:48:47Z</time>
      </trkpt>
      <trkpt lat="40.2832400" lon="-1.3082720">
        <ele>1252.8</ele>
        <time>2019-07-05T08:48:49Z</time>
      </trkpt>
      <trkpt lat="40.2833480" lon="-1.3082610">
        <ele>1252.6</ele>
        <time>2019-07-05T08:48:51Z</time>
      </trkpt>
      <trkpt lat="40.2835560" lon="-1.3081920">
        <ele>1252.6</ele>
        <time>2019-07-05T08:48:55Z</time>
      </trkpt>
      <trkpt lat="40.2840470" lon="-1.3080580">
        <ele>1253.4</ele>
        <time>2019-07-05T08:49:04Z</time>
      </trkpt>
      <trkpt lat="40.2844090" lon="-1.3080670">
        <ele>1252.0</ele>
        <time>2019-07-05T08:49:10Z</time>
      </trkpt>
      <trkpt lat="40.2844730" lon="-1.3080760">
        <ele>1251.6</ele>
        <time>2019-07-05T08:49:11Z</time>
      </trkpt>
      <trkpt lat="40.2845940" lon="-1.3080990">
        <ele>1251.0</ele>
        <time>2019-07-05T08:49:13Z</time>
      </trkpt>
      <trkpt lat="40.2847240" lon="-1.3081360">
        <ele>1250.6</ele>
        <time>2019-07-05T08:49:15Z</time>
      </trkpt>
      <trkpt lat="40.2847860" lon="-1.3081530">
        <ele>1250.6</ele>
        <time>2019-07-05T08:49:16Z</time>
      </trkpt>
      <trkpt lat="40.2849640" lon="-1.3082130">
        <ele>1249.4</ele>
        <time>2019-07-05T08:49:19Z</time>
      </trkpt>
      <trkpt lat="40.2850720" lon="-1.3082570">
        <ele>1248.6</ele>
        <time>2019-07-05T08:49:21Z</time>
      </trkpt>
      <trkpt lat="40.2851220" lon="-1.3082860">
        <ele>1248.4</ele>
        <time>2019-07-05T08:49:22Z</time>
      </trkpt>
      <trkpt lat="40.2852210" lon="-1.3083460">
        <ele>1247.8</ele>
        <time>2019-07-05T08:49:24Z</time>
      </trkpt>
      <trkpt lat="40.2853200" lon="-1.3083980">
        <ele>1246.6</ele>
        <time>2019-07-05T08:49:26Z</time>
      </trkpt>
      <trkpt lat="40.2854150" lon="-1.3084510">
        <ele>1245.8</ele>
        <time>2019-07-05T08:49:28Z</time>
      </trkpt>
      <trkpt lat="40.2854620" lon="-1.3084710">
        <ele>1245.4</ele>
        <time>2019-07-05T08:49:29Z</time>
      </trkpt>
      <trkpt lat="40.2856050" lon="-1.3085250">
        <ele>1244.6</ele>
        <time>2019-07-05T08:49:32Z</time>
      </trkpt>
      <trkpt lat="40.2856500" lon="-1.3085490">
        <ele>1244.2</ele>
        <time>2019-07-05T08:49:33Z</time>
      </trkpt>
      <trkpt lat="40.2857430" lon="-1.3085970">
        <ele>1243.2</ele>
        <time>2019-07-05T08:49:35Z</time>
      </trkpt>
      <trkpt lat="40.2858390" lon="-1.3086490">
        <ele>1242.2</ele>
        <time>2019-07-05T08:49:37Z</time>
      </trkpt>
      <trkpt lat="40.2859320" lon="-1.3086990">
        <ele>1241.6</ele>
        <time>2019-07-05T08:49:39Z</time>
      </trkpt>
      <trkpt lat="40.2859810" lon="-1.3087220">
        <ele>1240.8</ele>
        <time>2019-07-05T08:49:40Z</time>
      </trkpt>
      <trkpt lat="40.2861370" lon="-1.3087700">
        <ele>1239.6</ele>
        <time>2019-07-05T08:49:43Z</time>
      </trkpt>
      <trkpt lat="40.2861940" lon="-1.3087840">
        <ele>1239.4</ele>
        <time>2019-07-05T08:49:44Z</time>
      </trkpt>
      <trkpt lat="40.2864330" lon="-1.3088750">
        <ele>1238.4</ele>
        <time>2019-07-05T08:49:48Z</time>
      </trkpt>
      <trkpt lat="40.2865560" lon="-1.3089150">
        <ele>1238.0</ele>
        <time>2019-07-05T08:49:50Z</time>
      </trkpt>
      <trkpt lat="40.2867340" lon="-1.3089350">
        <ele>1237.2</ele>
        <time>2019-07-05T08:49:53Z</time>
      </trkpt>
      <trkpt lat="40.2868460" lon="-1.3089640">
        <ele>1237.2</ele>
        <time>2019-07-05T08:49:55Z</time>
      </trkpt>
      <trkpt lat="40.2870430" lon="-1.3090850">
        <ele>1236.6</ele>
        <time>2019-07-05T08:49:59Z</time>
      </trkpt>
      <trkpt lat="40.2871820" lon="-1.3091670">
        <ele>1236.6</ele>
        <time>2019-07-05T08:50:02Z</time>
      </trkpt>
      <trkpt lat="40.2872210" lon="-1.3091980">
        <ele>1236.6</ele>
        <time>2019-07-05T08:50:03Z</time>
      </trkpt>
      <trkpt lat="40.2873040" lon="-1.3092520">
        <ele>1236.6</ele>
        <time>2019-07-05T08:50:05Z</time>
      </trkpt>
      <trkpt lat="40.2876440" lon="-1.3093530">
        <ele>1236.4</ele>
        <time>2019-07-05T08:50:12Z</time>
      </trkpt>
      <trkpt lat="40.2877500" lon="-1.3093710">
        <ele>1235.6</ele>
        <time>2019-07-05T08:50:14Z</time>
      </trkpt>
      <trkpt lat="40.2879770" lon="-1.3094210">
        <ele>1235.0</ele>
        <time>2019-07-05T08:50:18Z</time>
      </trkpt>
      <trkpt lat="40.2881450" lon="-1.3094630">
        <ele>1234.6</ele>
        <time>2019-07-05T08:50:21Z</time>
      </trkpt>
      <trkpt lat="40.2883130" lon="-1.3095260">
        <ele>1233.4</ele>
        <time>2019-07-05T08:50:24Z</time>
      </trkpt>
      <trkpt lat="40.2885940" lon="-1.3096170">
        <ele>1232.0</ele>
        <time>2019-07-05T08:50:29Z</time>
      </trkpt>
      <trkpt lat="40.2886580" lon="-1.3096350">
        <ele>1232.2</ele>
        <time>2019-07-05T08:50:30Z</time>
      </trkpt>
      <trkpt lat="40.2887750" lon="-1.3096790">
        <ele>1231.0</ele>
        <time>2019-07-05T08:50:32Z</time>
      </trkpt>
      <trkpt lat="40.2889020" lon="-1.3097270">
        <ele>1229.6</ele>
        <time>2019-07-05T08:50:34Z</time>
      </trkpt>
      <trkpt lat="40.2889630" lon="-1.3097490">
        <ele>1229.2</ele>
        <time>2019-07-05T08:50:35Z</time>
      </trkpt>
      <trkpt lat="40.2890860" lon="-1.3097970">
        <ele>1229.2</ele>
        <time>2019-07-05T08:50:37Z</time>
      </trkpt>
      <trkpt lat="40.2893250" lon="-1.3098940">
        <ele>1229.0</ele>
        <time>2019-07-05T08:50:41Z</time>
      </trkpt>
      <trkpt lat="40.2893790" lon="-1.3099250">
        <ele>1229.0</ele>
        <time>2019-07-05T08:50:42Z</time>
      </trkpt>
      <trkpt lat="40.2894840" lon="-1.3099860">
        <ele>1228.2</ele>
        <time>2019-07-05T08:50:44Z</time>
      </trkpt>
      <trkpt lat="40.2895360" lon="-1.3100130">
        <ele>1228.2</ele>
        <time>2019-07-05T08:50:45Z</time>
      </trkpt>
      <trkpt lat="40.2898040" lon="-1.3101690">
        <ele>1228.0</ele>
        <time>2019-07-05T08:50:51Z</time>
      </trkpt>
      <trkpt lat="40.2898950" lon="-1.3102180">
        <ele>1228.0</ele>
        <time>2019-07-05T08:50:53Z</time>
      </trkpt>
      <trkpt lat="40.2899420" lon="-1.3102420">
        <ele>1228.0</ele>
        <time>2019-07-05T08:50:54Z</time>
      </trkpt>
      <trkpt lat="40.2900390" lon="-1.3102970">
        <ele>1228.0</ele>
        <time>2019-07-05T08:50:56Z</time>
      </trkpt>
      <trkpt lat="40.2903600" lon="-1.3104390">
        <ele>1228.0</ele>
        <time>2019-07-05T08:51:02Z</time>
      </trkpt>
      <trkpt lat="40.2905020" lon="-1.3105320">
        <ele>1228.2</ele>
        <time>2019-07-05T08:51:05Z</time>
      </trkpt>
      <trkpt lat="40.2906880" lon="-1.3106670">
        <ele>1227.6</ele>
        <time>2019-07-05T08:51:09Z</time>
      </trkpt>
      <trkpt lat="40.2907760" lon="-1.3107490">
        <ele>1227.4</ele>
        <time>2019-07-05T08:51:11Z</time>
      </trkpt>
      <trkpt lat="40.2909480" lon="-1.3109330">
        <ele>1227.8</ele>
        <time>2019-07-05T08:51:15Z</time>
      </trkpt>
      <trkpt lat="40.2910730" lon="-1.3110710">
        <ele>1228.0</ele>
        <time>2019-07-05T08:51:18Z</time>
      </trkpt>
      <trkpt lat="40.2911850" lon="-1.3112280">
        <ele>1227.4</ele>
        <time>2019-07-05T08:51:21Z</time>
      </trkpt>
      <trkpt lat="40.2913200" lon="-1.3114330">
        <ele>1227.0</ele>
        <time>2019-07-05T08:51:25Z</time>
      </trkpt>
      <trkpt lat="40.2914210" lon="-1.3115780">
        <ele>1226.6</ele>
        <time>2019-07-05T08:51:28Z</time>
      </trkpt>
      <trkpt lat="40.2914940" lon="-1.3116810">
        <ele>1226.2</ele>
        <time>2019-07-05T08:51:30Z</time>
      </trkpt>
      <trkpt lat="40.2915370" lon="-1.3117290">
        <ele>1226.0</ele>
        <time>2019-07-05T08:51:31Z</time>
      </trkpt>
      <trkpt lat="40.2915860" lon="-1.3117740">
        <ele>1225.8</ele>
        <time>2019-07-05T08:51:32Z</time>
      </trkpt>
      <trkpt lat="40.2916420" lon="-1.3118120">
        <ele>1225.6</ele>
        <time>2019-07-05T08:51:33Z</time>
      </trkpt>
      <trkpt lat="40.2918370" lon="-1.3118730">
        <ele>1225.0</ele>
        <time>2019-07-05T08:51:36Z</time>
      </trkpt>
      <trkpt lat="40.2918990" lon="-1.3118920">
        <ele>1224.8</ele>
        <time>2019-07-05T08:51:37Z</time>
      </trkpt>
      <trkpt lat="40.2919530" lon="-1.3119120">
        <ele>1224.8</ele>
        <time>2019-07-05T08:51:38Z</time>
      </trkpt>
      <trkpt lat="40.2920080" lon="-1.3119250">
        <ele>1224.8</ele>
        <time>2019-07-05T08:51:39Z</time>
      </trkpt>
      <trkpt lat="40.2921160" lon="-1.3119650">
        <ele>1225.0</ele>
        <time>2019-07-05T08:51:41Z</time>
      </trkpt>
      <trkpt lat="40.2922860" lon="-1.3120970">
        <ele>1225.0</ele>
        <time>2019-07-05T08:51:45Z</time>
      </trkpt>
      <trkpt lat="40.2924160" lon="-1.3121890">
        <ele>1226.0</ele>
        <time>2019-07-05T08:51:49Z</time>
      </trkpt>
      <trkpt lat="40.2924390" lon="-1.3121990">
        <ele>1226.0</ele>
        <time>2019-07-05T08:51:50Z</time>
      </trkpt>
      <trkpt lat="40.2924960" lon="-1.3122450">
        <ele>1226.6</ele>
        <time>2019-07-05T08:51:53Z</time>
      </trkpt>
      <trkpt lat="40.2925370" lon="-1.3122860">
        <ele>1226.8</ele>
        <time>2019-07-05T08:51:55Z</time>
      </trkpt>
      <trkpt lat="40.2925880" lon="-1.3123250">
        <ele>1227.0</ele>
        <time>2019-07-05T08:51:57Z</time>
      </trkpt>
      <trkpt lat="40.2926710" lon="-1.3123900">
        <ele>1227.4</ele>
        <time>2019-07-05T08:52:00Z</time>
      </trkpt>
      <trkpt lat="40.2927290" lon="-1.3124420">
        <ele>1228.0</ele>
        <time>2019-07-05T08:52:02Z</time>
      </trkpt>
      <trkpt lat="40.2927580" lon="-1.3124690">
        <ele>1228.2</ele>
        <time>2019-07-05T08:52:03Z</time>
      </trkpt>
      <trkpt lat="40.2929070" lon="-1.3126180">
        <ele>1229.2</ele>
        <time>2019-07-05T08:52:08Z</time>
      </trkpt>
      <trkpt lat="40.2929360" lon="-1.3126530">
        <ele>1229.2</ele>
        <time>2019-07-05T08:52:09Z</time>
      </trkpt>
      <trkpt lat="40.2930860" lon="-1.3129130">
        <ele>1229.0</ele>
        <time>2019-07-05T08:52:15Z</time>
      </trkpt>
      <trkpt lat="40.2931100" lon="-1.3129590">
        <ele>1229.2</ele>
        <time>2019-07-05T08:52:16Z</time>
      </trkpt>
      <trkpt lat="40.2933390" lon="-1.3133120">
        <ele>1229.8</ele>
        <time>2019-07-05T08:52:24Z</time>
      </trkpt>
      <trkpt lat="40.2935110" lon="-1.3135400">
        <ele>1230.0</ele>
        <time>2019-07-05T08:52:29Z</time>
      </trkpt>
      <trkpt lat="40.2935390" lon="-1.3135930">
        <ele>1230.0</ele>
        <time>2019-07-05T08:52:30Z</time>
      </trkpt>
      <trkpt lat="40.2935690" lon="-1.3136410">
        <ele>1230.2</ele>
        <time>2019-07-05T08:52:31Z</time>
      </trkpt>
      <trkpt lat="40.2936050" lon="-1.3136810">
        <ele>1230.2</ele>
        <time>2019-07-05T08:52:32Z</time>
      </trkpt>
      <trkpt lat="40.2936740" lon="-1.3137710">
        <ele>1230.4</ele>
        <time>2019-07-05T08:52:34Z</time>
      </trkpt>
      <trkpt lat="40.2937750" lon="-1.3139210">
        <ele>1230.4</ele>
        <time>2019-07-05T08:52:37Z</time>
      </trkpt>
      <trkpt lat="40.2938530" lon="-1.3140110">
        <ele>1230.2</ele>
        <time>2019-07-05T08:52:39Z</time>
      </trkpt>
      <trkpt lat="40.2939830" lon="-1.3141370">
        <ele>1230.0</ele>
        <time>2019-07-05T08:52:42Z</time>
      </trkpt>
      <trkpt lat="40.2940650" lon="-1.3142240">
        <ele>1229.8</ele>
        <time>2019-07-05T08:52:44Z</time>
      </trkpt>
      <trkpt lat="40.2941060" lon="-1.3142580">
        <ele>1229.8</ele>
        <time>2019-07-05T08:52:45Z</time>
      </trkpt>
      <trkpt lat="40.2942540" lon="-1.3143510">
        <ele>1229.6</ele>
        <time>2019-07-05T08:52:48Z</time>
      </trkpt>
      <trkpt lat="40.2943030" lon="-1.3143910">
        <ele>1229.6</ele>
        <time>2019-07-05T08:52:49Z</time>
      </trkpt>
      <trkpt lat="40.2943520" lon="-1.3144330">
        <ele>1229.4</ele>
        <time>2019-07-05T08:52:50Z</time>
      </trkpt>
      <trkpt lat="40.2945460" lon="-1.3146180">
        <ele>1229.4</ele>
        <time>2019-07-05T08:52:54Z</time>
      </trkpt>
      <trkpt lat="40.2946850" lon="-1.3147540">
        <ele>1229.2</ele>
        <time>2019-07-05T08:52:57Z</time>
      </trkpt>
      <trkpt lat="40.2947750" lon="-1.3148360">
        <ele>1229.0</ele>
        <time>2019-07-05T08:52:59Z</time>
      </trkpt>
      <trkpt lat="40.2949090" lon="-1.3149570">
        <ele>1228.8</ele>
        <time>2019-07-05T08:53:02Z</time>
      </trkpt>
      <trkpt lat="40.2950000" lon="-1.3150370">
        <ele>1228.8</ele>
        <time>2019-07-05T08:53:04Z</time>
      </trkpt>
      <trkpt lat="40.2952760" lon="-1.3152770">
        <ele>1228.6</ele>
        <time>2019-07-05T08:53:10Z</time>
      </trkpt>
      <trkpt lat="40.2954850" lon="-1.3155920">
        <ele>1229.2</ele>
        <time>2019-07-05T08:53:16Z</time>
      </trkpt>
      <trkpt lat="40.2957330" lon="-1.3159210">
        <ele>1229.8</ele>
        <time>2019-07-05T08:53:23Z</time>
      </trkpt>
      <trkpt lat="40.2960490" lon="-1.3163110">
        <ele>1229.0</ele>
        <time>2019-07-05T08:53:31Z</time>
      </trkpt>
      <trkpt lat="40.2961260" lon="-1.3164050">
        <ele>1228.2</ele>
        <time>2019-07-05T08:53:33Z</time>
      </trkpt>
      <trkpt lat="40.2962500" lon="-1.3165440">
        <ele>1228.0</ele>
        <time>2019-07-05T08:53:36Z</time>
      </trkpt>
      <trkpt lat="40.2962940" lon="-1.3165870">
        <ele>1227.8</ele>
        <time>2019-07-05T08:53:37Z</time>
      </trkpt>
      <trkpt lat="40.2964370" lon="-1.3166920">
        <ele>1227.2</ele>
        <time>2019-07-05T08:53:40Z</time>
      </trkpt>
      <trkpt lat="40.2964900" lon="-1.3167160">
        <ele>1227.2</ele>
        <time>2019-07-05T08:53:41Z</time>
      </trkpt>
      <trkpt lat="40.2966010" lon="-1.3167540">
        <ele>1227.2</ele>
        <time>2019-07-05T08:53:43Z</time>
      </trkpt>
      <trkpt lat="40.2968400" lon="-1.3168190">
        <ele>1226.8</ele>
        <time>2019-07-05T08:53:47Z</time>
      </trkpt>
      <trkpt lat="40.2969040" lon="-1.3168370">
        <ele>1226.6</ele>
        <time>2019-07-05T08:53:48Z</time>
      </trkpt>
      <trkpt lat="40.2971710" lon="-1.3169160">
        <ele>1226.0</ele>
        <time>2019-07-05T08:53:52Z</time>
      </trkpt>
      <trkpt lat="40.2972390" lon="-1.3169370">
        <ele>1225.4</ele>
        <time>2019-07-05T08:53:53Z</time>
      </trkpt>
      <trkpt lat="40.2974450" lon="-1.3170130">
        <ele>1224.6</ele>
        <time>2019-07-05T08:53:56Z</time>
      </trkpt>
      <trkpt lat="40.2975140" lon="-1.3170370">
        <ele>1224.4</ele>
        <time>2019-07-05T08:53:57Z</time>
      </trkpt>
      <trkpt lat="40.2976490" lon="-1.3170960">
        <ele>1224.2</ele>
        <time>2019-07-05T08:53:59Z</time>
      </trkpt>
      <trkpt lat="40.2977690" lon="-1.3171780">
        <ele>1223.2</ele>
        <time>2019-07-05T08:54:01Z</time>
      </trkpt>
      <trkpt lat="40.2980360" lon="-1.3174170">
        <ele>1223.2</ele>
        <time>2019-07-05T08:54:06Z</time>
      </trkpt>
      <trkpt lat="40.2980860" lon="-1.3174640">
        <ele>1223.2</ele>
        <time>2019-07-05T08:54:07Z</time>
      </trkpt>
      <trkpt lat="40.2983130" lon="-1.3176730">
        <ele>1222.4</ele>
        <time>2019-07-05T08:54:12Z</time>
      </trkpt>
      <trkpt lat="40.2983650" lon="-1.3177090">
        <ele>1222.4</ele>
        <time>2019-07-05T08:54:13Z</time>
      </trkpt>
      <trkpt lat="40.2984220" lon="-1.3177390">
        <ele>1222.2</ele>
        <time>2019-07-05T08:54:14Z</time>
      </trkpt>
      <trkpt lat="40.2985950" lon="-1.3178380">
        <ele>1221.8</ele>
        <time>2019-07-05T08:54:17Z</time>
      </trkpt>
      <trkpt lat="40.2989070" lon="-1.3180750">
        <ele>1221.8</ele>
        <time>2019-07-05T08:54:23Z</time>
      </trkpt>
      <trkpt lat="40.2990090" lon="-1.3181550">
        <ele>1221.4</ele>
        <time>2019-07-05T08:54:25Z</time>
      </trkpt>
      <trkpt lat="40.2991190" lon="-1.3182150">
        <ele>1221.0</ele>
        <time>2019-07-05T08:54:27Z</time>
      </trkpt>
      <trkpt lat="40.2991740" lon="-1.3182380">
        <ele>1220.8</ele>
        <time>2019-07-05T08:54:28Z</time>
      </trkpt>
      <trkpt lat="40.2994090" lon="-1.3183240">
        <ele>1219.8</ele>
        <time>2019-07-05T08:54:32Z</time>
      </trkpt>
      <trkpt lat="40.2995360" lon="-1.3183620">
        <ele>1219.6</ele>
        <time>2019-07-05T08:54:34Z</time>
      </trkpt>
      <trkpt lat="40.2996590" lon="-1.3183960">
        <ele>1219.8</ele>
        <time>2019-07-05T08:54:36Z</time>
      </trkpt>
      <trkpt lat="40.2998300" lon="-1.3184650">
        <ele>1219.4</ele>
        <time>2019-07-05T08:54:39Z</time>
      </trkpt>
      <trkpt lat="40.2998840" lon="-1.3184870">
        <ele>1219.4</ele>
        <time>2019-07-05T08:54:40Z</time>
      </trkpt>
      <trkpt lat="40.3001720" lon="-1.3186280">
        <ele>1219.6</ele>
        <time>2019-07-05T08:54:46Z</time>
      </trkpt>
      <trkpt lat="40.3002140" lon="-1.3186490">
        <ele>1219.6</ele>
        <time>2019-07-05T08:54:47Z</time>
      </trkpt>
      <trkpt lat="40.3003300" lon="-1.3187040">
        <ele>1220.4</ele>
        <time>2019-07-05T08:54:50Z</time>
      </trkpt>
      <trkpt lat="40.3004020" lon="-1.3187410">
        <ele>1220.8</ele>
        <time>2019-07-05T08:54:52Z</time>
      </trkpt>
      <trkpt lat="40.3004720" lon="-1.3187780">
        <ele>1221.0</ele>
        <time>2019-07-05T08:54:54Z</time>
      </trkpt>
      <trkpt lat="40.3005420" lon="-1.3188110">
        <ele>1221.0</ele>
        <time>2019-07-05T08:54:56Z</time>
      </trkpt>
      <trkpt lat="40.3006920" lon="-1.3188740">
        <ele>1220.8</ele>
        <time>2019-07-05T08:55:00Z</time>
      </trkpt>
      <trkpt lat="40.3008010" lon="-1.3189140">
        <ele>1222.0</ele>
        <time>2019-07-05T08:55:03Z</time>
      </trkpt>
      <trkpt lat="40.3009360" lon="-1.3189900">
        <ele>1222.8</ele>
        <time>2019-07-05T08:55:07Z</time>
      </trkpt>
      <trkpt lat="40.3010960" lon="-1.3190940">
        <ele>1222.8</ele>
        <time>2019-07-05T08:55:12Z</time>
      </trkpt>
      <trkpt lat="40.3011670" lon="-1.3191290">
        <ele>1222.8</ele>
        <time>2019-07-05T08:55:14Z</time>
      </trkpt>
      <trkpt lat="40.3012430" lon="-1.3191680">
        <ele>1223.0</ele>
        <time>2019-07-05T08:55:16Z</time>
      </trkpt>
      <trkpt lat="40.3014850" lon="-1.3193000">
        <ele>1223.0</ele>
        <time>2019-07-05T08:55:22Z</time>
      </trkpt>
      <trkpt lat="40.3017970" lon="-1.3195030">
        <ele>1222.0</ele>
        <time>2019-07-05T08:55:30Z</time>
      </trkpt>
      <trkpt lat="40.3019770" lon="-1.3196300">
        <ele>1221.6</ele>
        <time>2019-07-05T08:55:35Z</time>
      </trkpt>
      <trkpt lat="40.3020880" lon="-1.3197160">
        <ele>1221.8</ele>
        <time>2019-07-05T08:55:38Z</time>
      </trkpt>
      <trkpt lat="40.3022420" lon="-1.3198420">
        <ele>1222.0</ele>
        <time>2019-07-05T08:55:42Z</time>
      </trkpt>
      <trkpt lat="40.3023560" lon="-1.3199510">
        <ele>1221.4</ele>
        <time>2019-07-05T08:55:45Z</time>
      </trkpt>
      <trkpt lat="40.3023970" lon="-1.3199870">
        <ele>1221.4</ele>
        <time>2019-07-05T08:55:46Z</time>
      </trkpt>
      <trkpt lat="40.3024790" lon="-1.3200620">
        <ele>1220.8</ele>
        <time>2019-07-05T08:55:48Z</time>
      </trkpt>
      <trkpt lat="40.3025610" lon="-1.3201430">
        <ele>1220.6</ele>
        <time>2019-07-05T08:55:50Z</time>
      </trkpt>
      <trkpt lat="40.3026400" lon="-1.3202300">
        <ele>1220.8</ele>
        <time>2019-07-05T08:55:52Z</time>
      </trkpt>
      <trkpt lat="40.3027140" lon="-1.3203230">
        <ele>1220.8</ele>
        <time>2019-07-05T08:55:54Z</time>
      </trkpt>
      <trkpt lat="40.3028840" lon="-1.3205800">
        <ele>1219.6</ele>
        <time>2019-07-05T08:55:59Z</time>
      </trkpt>
      <trkpt lat="40.3029430" lon="-1.3206870">
        <ele>1218.6</ele>
        <time>2019-07-05T08:56:01Z</time>
      </trkpt>
      <trkpt lat="40.3031070" lon="-1.3209730">
        <ele>1218.4</ele>
        <time>2019-07-05T08:56:07Z</time>
      </trkpt>
      <trkpt lat="40.3031670" lon="-1.3210670">
        <ele>1218.0</ele>
        <time>2019-07-05T08:56:09Z</time>
      </trkpt>
      <trkpt lat="40.3033610" lon="-1.3213570">
        <ele>1217.2</ele>
        <time>2019-07-05T08:56:15Z</time>
      </trkpt>
      <trkpt lat="40.3034870" lon="-1.3215280">
        <ele>1217.0</ele>
        <time>2019-07-05T08:56:19Z</time>
      </trkpt>
      <trkpt lat="40.3035690" lon="-1.3216510">
        <ele>1217.0</ele>
        <time>2019-07-05T08:56:22Z</time>
      </trkpt>
      <trkpt lat="40.3037230" lon="-1.3218490">
        <ele>1218.0</ele>
        <time>2019-07-05T08:56:28Z</time>
      </trkpt>
      <trkpt lat="40.3038730" lon="-1.3220130">
        <ele>1218.0</ele>
        <time>2019-07-05T08:56:34Z</time>
      </trkpt>
      <trkpt lat="40.3038760" lon="-1.3220230">
        <ele>1218.2</ele>
        <time>2019-07-05T08:56:36Z</time>
      </trkpt>
      <trkpt lat="40.3038960" lon="-1.3220490">
        <ele>1218.0</ele>
        <time>2019-07-05T08:58:00Z</time>
      </trkpt>
      <trkpt lat="40.3039300" lon="-1.3220970">
        <ele>1218.2</ele>
        <time>2019-07-05T08:58:02Z</time>
      </trkpt>
      <trkpt lat="40.3039940" lon="-1.3221920">
        <ele>1218.4</ele>
        <time>2019-07-05T08:58:05Z</time>
      </trkpt>
      <trkpt lat="40.3040660" lon="-1.3223100">
        <ele>1218.4</ele>
        <time>2019-07-05T08:58:08Z</time>
      </trkpt>
      <trkpt lat="40.3041570" lon="-1.3224740">
        <ele>1218.4</ele>
        <time>2019-07-05T08:58:12Z</time>
      </trkpt>
      <trkpt lat="40.3042750" lon="-1.3226740">
        <ele>1218.8</ele>
        <time>2019-07-05T08:58:17Z</time>
      </trkpt>
      <trkpt lat="40.3043070" lon="-1.3227160">
        <ele>1218.8</ele>
        <time>2019-07-05T08:58:18Z</time>
      </trkpt>
      <trkpt lat="40.3044450" lon="-1.3228800">
        <ele>1218.8</ele>
        <time>2019-07-05T08:58:22Z</time>
      </trkpt>
      <trkpt lat="40.3045550" lon="-1.3230030">
        <ele>1218.8</ele>
        <time>2019-07-05T08:58:25Z</time>
      </trkpt>
      <trkpt lat="40.3048260" lon="-1.3232830">
        <ele>1219.2</ele>
        <time>2019-07-05T08:58:32Z</time>
      </trkpt>
      <trkpt lat="40.3050160" lon="-1.3234760">
        <ele>1219.0</ele>
        <time>2019-07-05T08:58:37Z</time>
      </trkpt>
      <trkpt lat="40.3050870" lon="-1.3235580">
        <ele>1219.2</ele>
        <time>2019-07-05T08:58:39Z</time>
      </trkpt>
      <trkpt lat="40.3052220" lon="-1.3237240">
        <ele>1219.2</ele>
        <time>2019-07-05T08:58:43Z</time>
      </trkpt>
      <trkpt lat="40.3052580" lon="-1.3237590">
        <ele>1219.4</ele>
        <time>2019-07-05T08:58:44Z</time>
      </trkpt>
      <trkpt lat="40.3053350" lon="-1.3238220">
        <ele>1219.6</ele>
        <time>2019-07-05T08:58:46Z</time>
      </trkpt>
      <trkpt lat="40.3054360" lon="-1.3238850">
        <ele>1220.2</ele>
        <time>2019-07-05T08:58:49Z</time>
      </trkpt>
      <trkpt lat="40.3055150" lon="-1.3239120">
        <ele>1220.2</ele>
        <time>2019-07-05T08:58:51Z</time>
      </trkpt>
      <trkpt lat="40.3056060" lon="-1.3239330">
        <ele>1220.6</ele>
        <time>2019-07-05T08:58:53Z</time>
      </trkpt>
      <trkpt lat="40.3058390" lon="-1.3239900">
        <ele>1220.6</ele>
        <time>2019-07-05T08:58:58Z</time>
      </trkpt>
      <trkpt lat="40.3059850" lon="-1.3240450">
        <ele>1220.6</ele>
        <time>2019-07-05T08:59:01Z</time>
      </trkpt>
      <trkpt lat="40.3060750" lon="-1.3240970">
        <ele>1220.8</ele>
        <time>2019-07-05T08:59:03Z</time>
      </trkpt>
      <trkpt lat="40.3061570" lon="-1.3241570">
        <ele>1221.0</ele>
        <time>2019-07-05T08:59:05Z</time>
      </trkpt>
      <trkpt lat="40.3062810" lon="-1.3242490">
        <ele>1221.4</ele>
        <time>2019-07-05T08:59:08Z</time>
      </trkpt>
      <trkpt lat="40.3063670" lon="-1.3243090">
        <ele>1221.6</ele>
        <time>2019-07-05T08:59:10Z</time>
      </trkpt>
      <trkpt lat="40.3064960" lon="-1.3243780">
        <ele>1221.0</ele>
        <time>2019-07-05T08:59:13Z</time>
      </trkpt>
      <trkpt lat="40.3067390" lon="-1.3245980">
        <ele>1221.4</ele>
        <time>2019-07-05T08:59:19Z</time>
      </trkpt>
      <trkpt lat="40.3068980" lon="-1.3247600">
        <ele>1221.6</ele>
        <time>2019-07-05T08:59:23Z</time>
      </trkpt>
      <trkpt lat="40.3070070" lon="-1.3249000">
        <ele>1221.8</ele>
        <time>2019-07-05T08:59:26Z</time>
      </trkpt>
      <trkpt lat="40.3071090" lon="-1.3250140">
        <ele>1221.8</ele>
        <time>2019-07-05T08:59:30Z</time>
      </trkpt>
      <trkpt lat="40.3072490" lon="-1.3251440">
        <ele>1221.8</ele>
        <time>2019-07-05T08:59:36Z</time>
      </trkpt>
      <trkpt lat="40.3072790" lon="-1.3251870">
        <ele>1221.6</ele>
        <time>2019-07-05T08:59:37Z</time>
      </trkpt>
      <trkpt lat="40.3073480" lon="-1.3253440">
        <ele>1221.0</ele>
        <time>2019-07-05T08:59:40Z</time>
      </trkpt>
      <trkpt lat="40.3074130" lon="-1.3255830">
        <ele>1220.6</ele>
        <time>2019-07-05T08:59:44Z</time>
      </trkpt>
      <trkpt lat="40.3074250" lon="-1.3256530">
        <ele>1220.4</ele>
        <time>2019-07-05T08:59:45Z</time>
      </trkpt>
      <trkpt lat="40.3074760" lon="-1.3259550">
        <ele>1220.0</ele>
        <time>2019-07-05T08:59:49Z</time>
      </trkpt>
      <trkpt lat="40.3074980" lon="-1.3262160">
        <ele>1219.6</ele>
        <time>2019-07-05T08:59:52Z</time>
      </trkpt>
      <trkpt lat="40.3075210" lon="-1.3264980">
        <ele>1219.0</ele>
        <time>2019-07-05T08:59:55Z</time>
      </trkpt>
      <trkpt lat="40.3075210" lon="-1.3265980">
        <ele>1218.8</ele>
        <time>2019-07-05T08:59:56Z</time>
      </trkpt>
      <trkpt lat="40.3075170" lon="-1.3267980">
        <ele>1218.4</ele>
        <time>2019-07-05T08:59:58Z</time>
      </trkpt>
      <trkpt lat="40.3075060" lon="-1.3269960">
        <ele>1217.8</ele>
        <time>2019-07-05T09:00:00Z</time>
      </trkpt>
      <trkpt lat="40.3075020" lon="-1.3270910">
        <ele>1217.8</ele>
        <time>2019-07-05T09:00:01Z</time>
      </trkpt>
      <trkpt lat="40.3075060" lon="-1.3272680">
        <ele>1217.8</ele>
        <time>2019-07-05T09:00:03Z</time>
      </trkpt>
      <trkpt lat="40.3075080" lon="-1.3275900">
        <ele>1218.0</ele>
        <time>2019-07-05T09:00:07Z</time>
      </trkpt>
      <trkpt lat="40.3075030" lon="-1.3277450">
        <ele>1218.4</ele>
        <time>2019-07-05T09:00:09Z</time>
      </trkpt>
      <trkpt lat="40.3074720" lon="-1.3282270">
        <ele>1217.6</ele>
        <time>2019-07-05T09:00:15Z</time>
      </trkpt>
      <trkpt lat="40.3074620" lon="-1.3286120">
        <ele>1217.4</ele>
        <time>2019-07-05T09:00:20Z</time>
      </trkpt>
      <trkpt lat="40.3074530" lon="-1.3287450">
        <ele>1217.2</ele>
        <time>2019-07-05T09:00:22Z</time>
      </trkpt>
      <trkpt lat="40.3074380" lon="-1.3288720">
        <ele>1217.2</ele>
        <time>2019-07-05T09:00:24Z</time>
      </trkpt>
      <trkpt lat="40.3074330" lon="-1.3289390">
        <ele>1217.2</ele>
        <time>2019-07-05T09:00:25Z</time>
      </trkpt>
      <trkpt lat="40.3073890" lon="-1.3294040">
        <ele>1217.6</ele>
        <time>2019-07-05T09:00:32Z</time>
      </trkpt>
      <trkpt lat="40.3073770" lon="-1.3295590">
        <ele>1218.4</ele>
        <time>2019-07-05T09:00:35Z</time>
      </trkpt>
      <trkpt lat="40.3073630" lon="-1.3297030">
        <ele>1218.6</ele>
        <time>2019-07-05T09:00:38Z</time>
      </trkpt>
      <trkpt lat="40.3073610" lon="-1.3297530">
        <ele>1218.8</ele>
        <time>2019-07-05T09:00:39Z</time>
      </trkpt>
      <trkpt lat="40.3073610" lon="-1.3298030">
        <ele>1218.8</ele>
        <time>2019-07-05T09:00:40Z</time>
      </trkpt>
      <trkpt lat="40.3073690" lon="-1.3300550">
        <ele>1219.6</ele>
        <time>2019-07-05T09:00:45Z</time>
      </trkpt>
      <trkpt lat="40.3074010" lon="-1.3303440">
        <ele>1219.2</ele>
        <time>2019-07-05T09:00:51Z</time>
      </trkpt>
      <trkpt lat="40.3074100" lon="-1.3304430">
        <ele>1219.8</ele>
        <time>2019-07-05T09:00:53Z</time>
      </trkpt>
      <trkpt lat="40.3074210" lon="-1.3306470">
        <ele>1220.2</ele>
        <time>2019-07-05T09:00:57Z</time>
      </trkpt>
      <trkpt lat="40.3074200" lon="-1.3307040">
        <ele>1220.4</ele>
        <time>2019-07-05T09:00:58Z</time>
      </trkpt>
      <trkpt lat="40.3074480" lon="-1.3309050">
        <ele>1220.8</ele>
        <time>2019-07-05T09:01:02Z</time>
      </trkpt>
      <trkpt lat="40.3074970" lon="-1.3311910">
        <ele>1221.8</ele>
        <time>2019-07-05T09:01:08Z</time>
      </trkpt>
      <trkpt lat="40.3074800" lon="-1.3314680">
        <ele>1222.2</ele>
        <time>2019-07-05T09:01:13Z</time>
      </trkpt>
      <trkpt lat="40.3074200" lon="-1.3316540">
        <ele>1222.2</ele>
        <time>2019-07-05T09:01:17Z</time>
      </trkpt>
      <trkpt lat="40.3073760" lon="-1.3317790">
        <ele>1223.0</ele>
        <time>2019-07-05T09:01:20Z</time>
      </trkpt>
      <trkpt lat="40.3073530" lon="-1.3318810">
        <ele>1223.6</ele>
        <time>2019-07-05T09:01:22Z</time>
      </trkpt>
      <trkpt lat="40.3073110" lon="-1.3321800">
        <ele>1224.0</ele>
        <time>2019-07-05T09:01:28Z</time>
      </trkpt>
      <trkpt lat="40.3073130" lon="-1.3322320">
        <ele>1224.0</ele>
        <time>2019-07-05T09:01:29Z</time>
      </trkpt>
      <trkpt lat="40.3073540" lon="-1.3324610">
        <ele>1224.2</ele>
        <time>2019-07-05T09:01:34Z</time>
      </trkpt>
      <trkpt lat="40.3074020" lon="-1.3325790">
        <ele>1225.2</ele>
        <time>2019-07-05T09:01:37Z</time>
      </trkpt>
      <trkpt lat="40.3074350" lon="-1.3326630">
        <ele>1225.6</ele>
        <time>2019-07-05T09:01:39Z</time>
      </trkpt>
      <trkpt lat="40.3075230" lon="-1.3328820">
        <ele>1226.2</ele>
        <time>2019-07-05T09:01:44Z</time>
      </trkpt>
      <trkpt lat="40.3075430" lon="-1.3329240">
        <ele>1226.6</ele>
        <time>2019-07-05T09:01:45Z</time>
      </trkpt>
      <trkpt lat="40.3075610" lon="-1.3329620">
        <ele>1226.6</ele>
        <time>2019-07-05T09:01:46Z</time>
      </trkpt>
      <trkpt lat="40.3076380" lon="-1.3331560">
        <ele>1227.2</ele>
        <time>2019-07-05T09:01:51Z</time>
      </trkpt>
      <trkpt lat="40.3076710" lon="-1.3332270">
        <ele>1227.6</ele>
        <time>2019-07-05T09:01:53Z</time>
      </trkpt>
      <trkpt lat="40.3077210" lon="-1.3333370">
        <ele>1228.6</ele>
        <time>2019-07-05T09:01:56Z</time>
      </trkpt>
      <trkpt lat="40.3077700" lon="-1.3334610">
        <ele>1229.0</ele>
        <time>2019-07-05T09:01:59Z</time>
      </trkpt>
      <trkpt lat="40.3078370" lon="-1.3336460">
        <ele>1229.8</ele>
        <time>2019-07-05T09:02:03Z</time>
      </trkpt>
      <trkpt lat="40.3078500" lon="-1.3336900">
        <ele>1230.6</ele>
        <time>2019-07-05T09:02:04Z</time>
      </trkpt>
      <trkpt lat="40.3078610" lon="-1.3337320">
        <ele>1231.0</ele>
        <time>2019-07-05T09:02:05Z</time>
      </trkpt>
      <trkpt lat="40.3079030" lon="-1.3340410">
        <ele>1231.0</ele>
        <time>2019-07-05T09:02:11Z</time>
      </trkpt>
      <trkpt lat="40.3079060" lon="-1.3341020">
        <ele>1231.0</ele>
        <time>2019-07-05T09:02:12Z</time>
      </trkpt>
      <trkpt lat="40.3079040" lon="-1.3343480">
        <ele>1231.4</ele>
        <time>2019-07-05T09:02:16Z</time>
      </trkpt>
      <trkpt lat="40.3079010" lon="-1.3345860">
        <ele>1231.4</ele>
        <time>2019-07-05T09:02:20Z</time>
      </trkpt>
      <trkpt lat="40.3079150" lon="-1.3347630">
        <ele>1231.8</ele>
        <time>2019-07-05T09:02:23Z</time>
      </trkpt>
      <trkpt lat="40.3079180" lon="-1.3348190">
        <ele>1232.0</ele>
        <time>2019-07-05T09:02:24Z</time>
      </trkpt>
      <trkpt lat="40.3079400" lon="-1.3350190">
        <ele>1232.4</ele>
        <time>2019-07-05T09:02:28Z</time>
      </trkpt>
      <trkpt lat="40.3079480" lon="-1.3350640">
        <ele>1232.4</ele>
        <time>2019-07-05T09:02:29Z</time>
      </trkpt>
      <trkpt lat="40.3079490" lon="-1.3352600">
        <ele>1233.2</ele>
        <time>2019-07-05T09:02:33Z</time>
      </trkpt>
      <trkpt lat="40.3079460" lon="-1.3353570">
        <ele>1233.6</ele>
        <time>2019-07-05T09:02:35Z</time>
      </trkpt>
      <trkpt lat="40.3079470" lon="-1.3354800">
        <ele>1234.0</ele>
        <time>2019-07-05T09:02:38Z</time>
      </trkpt>
      <trkpt lat="40.3079530" lon="-1.3356750">
        <ele>1234.6</ele>
        <time>2019-07-05T09:02:43Z</time>
      </trkpt>
      <trkpt lat="40.3079560" lon="-1.3357530">
        <ele>1235.0</ele>
        <time>2019-07-05T09:02:45Z</time>
      </trkpt>
      <trkpt lat="40.3079740" lon="-1.3359510">
        <ele>1236.2</ele>
        <time>2019-07-05T09:02:50Z</time>
      </trkpt>
      <trkpt lat="40.3079770" lon="-1.3359880">
        <ele>1236.4</ele>
        <time>2019-07-05T09:02:51Z</time>
      </trkpt>
      <trkpt lat="40.3080030" lon="-1.3361710">
        <ele>1236.6</ele>
        <time>2019-07-05T09:02:56Z</time>
      </trkpt>
      <trkpt lat="40.3080250" lon="-1.3362410">
        <ele>1237.2</ele>
        <time>2019-07-05T09:02:58Z</time>
      </trkpt>
      <trkpt lat="40.3080490" lon="-1.3363080">
        <ele>1238.2</ele>
        <time>2019-07-05T09:03:00Z</time>
      </trkpt>
      <trkpt lat="40.3080870" lon="-1.3364060">
        <ele>1239.6</ele>
        <time>2019-07-05T09:03:03Z</time>
      </trkpt>
      <trkpt lat="40.3081140" lon="-1.3364720">
        <ele>1240.2</ele>
        <time>2019-07-05T09:03:05Z</time>
      </trkpt>
      <trkpt lat="40.3081470" lon="-1.3365340">
        <ele>1240.6</ele>
        <time>2019-07-05T09:03:07Z</time>
      </trkpt>
      <trkpt lat="40.3081970" lon="-1.3366310">
        <ele>1242.0</ele>
        <time>2019-07-05T09:03:10Z</time>
      </trkpt>
      <trkpt lat="40.3082320" lon="-1.3366930">
        <ele>1242.4</ele>
        <time>2019-07-05T09:03:12Z</time>
      </trkpt>
      <trkpt lat="40.3083190" lon="-1.3368350">
        <ele>1242.8</ele>
        <time>2019-07-05T09:03:17Z</time>
      </trkpt>
      <trkpt lat="40.3083450" lon="-1.3368850">
        <ele>1243.2</ele>
        <time>2019-07-05T09:03:19Z</time>
      </trkpt>
      <trkpt lat="40.3083770" lon="-1.3369420">
        <ele>1244.2</ele>
        <time>2019-07-05T09:03:21Z</time>
      </trkpt>
      <trkpt lat="40.3084690" lon="-1.3371110">
        <ele>1244.8</ele>
        <time>2019-07-05T09:03:27Z</time>
      </trkpt>
      <trkpt lat="40.3084950" lon="-1.3371730">
        <ele>1245.2</ele>
        <time>2019-07-05T09:03:29Z</time>
      </trkpt>
      <trkpt lat="40.3085320" lon="-1.3372730">
        <ele>1245.4</ele>
        <time>2019-07-05T09:03:32Z</time>
      </trkpt>
      <trkpt lat="40.3085850" lon="-1.3374610">
        <ele>1246.4</ele>
        <time>2019-07-05T09:03:37Z</time>
      </trkpt>
      <trkpt lat="40.3086080" lon="-1.3375320">
        <ele>1247.0</ele>
        <time>2019-07-05T09:03:39Z</time>
      </trkpt>
      <trkpt lat="40.3086330" lon="-1.3376000">
        <ele>1247.4</ele>
        <time>2019-07-05T09:03:41Z</time>
      </trkpt>
      <trkpt lat="40.3086860" lon="-1.3377910">
        <ele>1248.2</ele>
        <time>2019-07-05T09:03:46Z</time>
      </trkpt>
      <trkpt lat="40.3087110" lon="-1.3378700">
        <ele>1248.8</ele>
        <time>2019-07-05T09:03:48Z</time>
      </trkpt>
      <trkpt lat="40.3087810" lon="-1.3380600">
        <ele>1249.8</ele>
        <time>2019-07-05T09:03:53Z</time>
      </trkpt>
      <trkpt lat="40.3088120" lon="-1.3381220">
        <ele>1250.4</ele>
        <time>2019-07-05T09:03:55Z</time>
      </trkpt>
      <trkpt lat="40.3088440" lon="-1.3381870">
        <ele>1251.0</ele>
        <time>2019-07-05T09:03:57Z</time>
      </trkpt>
      <trkpt lat="40.3088970" lon="-1.3382800">
        <ele>1251.6</ele>
        <time>2019-07-05T09:04:00Z</time>
      </trkpt>
      <trkpt lat="40.3089130" lon="-1.3383140">
        <ele>1251.6</ele>
        <time>2019-07-05T09:04:01Z</time>
      </trkpt>
      <trkpt lat="40.3089750" lon="-1.3384530">
        <ele>1252.0</ele>
        <time>2019-07-05T09:04:05Z</time>
      </trkpt>
      <trkpt lat="40.3090130" lon="-1.3385810">
        <ele>1252.4</ele>
        <time>2019-07-05T09:04:08Z</time>
      </trkpt>
      <trkpt lat="40.3090230" lon="-1.3386750">
        <ele>1253.4</ele>
        <time>2019-07-05T09:04:10Z</time>
      </trkpt>
      <trkpt lat="40.3090160" lon="-1.3388150">
        <ele>1253.8</ele>
        <time>2019-07-05T09:04:13Z</time>
      </trkpt>
      <trkpt lat="40.3090130" lon="-1.3388570">
        <ele>1254.4</ele>
        <time>2019-07-05T09:04:14Z</time>
      </trkpt>
      <trkpt lat="40.3089890" lon="-1.3390540">
        <ele>1255.2</ele>
        <time>2019-07-05T09:04:19Z</time>
      </trkpt>
      <trkpt lat="40.3089820" lon="-1.3391360">
        <ele>1255.4</ele>
        <time>2019-07-05T09:04:21Z</time>
      </trkpt>
      <trkpt lat="40.3089860" lon="-1.3392730">
        <ele>1256.6</ele>
        <time>2019-07-05T09:04:25Z</time>
      </trkpt>
      <trkpt lat="40.3089880" lon="-1.3393450">
        <ele>1257.4</ele>
        <time>2019-07-05T09:04:27Z</time>
      </trkpt>
      <trkpt lat="40.3089910" lon="-1.3393780">
        <ele>1257.6</ele>
        <time>2019-07-05T09:04:28Z</time>
      </trkpt>
      <trkpt lat="40.3090090" lon="-1.3395520">
        <ele>1258.6</ele>
        <time>2019-07-05T09:04:33Z</time>
      </trkpt>
      <trkpt lat="40.3090170" lon="-1.3396270">
        <ele>1259.2</ele>
        <time>2019-07-05T09:04:35Z</time>
      </trkpt>
      <trkpt lat="40.3090400" lon="-1.3398440">
        <ele>1259.8</ele>
        <time>2019-07-05T09:04:41Z</time>
      </trkpt>
      <trkpt lat="40.3090440" lon="-1.3398810">
        <ele>1260.2</ele>
        <time>2019-07-05T09:04:42Z</time>
      </trkpt>
      <trkpt lat="40.3090600" lon="-1.3400220">
        <ele>1261.0</ele>
        <time>2019-07-05T09:04:46Z</time>
      </trkpt>
      <trkpt lat="40.3090560" lon="-1.3402010">
        <ele>1261.8</ele>
        <time>2019-07-05T09:04:51Z</time>
      </trkpt>
      <trkpt lat="40.3090520" lon="-1.3402900">
        <ele>1262.0</ele>
        <time>2019-07-05T09:04:54Z</time>
      </trkpt>
      <trkpt lat="40.3090480" lon="-1.3403870">
        <ele>1262.8</ele>
        <time>2019-07-05T09:04:57Z</time>
      </trkpt>
      <trkpt lat="40.3090490" lon="-1.3404190">
        <ele>1263.4</ele>
        <time>2019-07-05T09:04:58Z</time>
      </trkpt>
      <trkpt lat="40.3090450" lon="-1.3405480">
        <ele>1264.4</ele>
        <time>2019-07-05T09:05:02Z</time>
      </trkpt>
      <trkpt lat="40.3090400" lon="-1.3406150">
        <ele>1264.8</ele>
        <time>2019-07-05T09:05:04Z</time>
      </trkpt>
      <trkpt lat="40.3090390" lon="-1.3406870">
        <ele>1265.4</ele>
        <time>2019-07-05T09:05:06Z</time>
      </trkpt>
      <trkpt lat="40.3090330" lon="-1.3408020">
        <ele>1266.8</ele>
        <time>2019-07-05T09:05:09Z</time>
      </trkpt>
      <trkpt lat="40.3090320" lon="-1.3409080">
        <ele>1267.6</ele>
        <time>2019-07-05T09:05:12Z</time>
      </trkpt>
      <trkpt lat="40.3090360" lon="-1.3411350">
        <ele>1268.8</ele>
        <time>2019-07-05T09:05:19Z</time>
      </trkpt>
      <trkpt lat="40.3090570" lon="-1.3412700">
        <ele>1270.0</ele>
        <time>2019-07-05T09:05:23Z</time>
      </trkpt>
      <trkpt lat="40.3090670" lon="-1.3413450">
        <ele>1270.0</ele>
        <time>2019-07-05T09:05:25Z</time>
      </trkpt>
      <trkpt lat="40.3090660" lon="-1.3415370">
        <ele>1271.0</ele>
        <time>2019-07-05T09:05:30Z</time>
      </trkpt>
      <trkpt lat="40.3090620" lon="-1.3415770">
        <ele>1271.2</ele>
        <time>2019-07-05T09:05:31Z</time>
      </trkpt>
      <trkpt lat="40.3090370" lon="-1.3417930">
        <ele>1271.4</ele>
        <time>2019-07-05T09:05:37Z</time>
      </trkpt>
      <trkpt lat="40.3090280" lon="-1.3418740">
        <ele>1272.0</ele>
        <time>2019-07-05T09:05:39Z</time>
      </trkpt>
      <trkpt lat="40.3090180" lon="-1.3420430">
        <ele>1272.6</ele>
        <time>2019-07-05T09:05:43Z</time>
      </trkpt>
      <trkpt lat="40.3090160" lon="-1.3422140">
        <ele>1273.0</ele>
        <time>2019-07-05T09:05:47Z</time>
      </trkpt>
      <trkpt lat="40.3090140" lon="-1.3423360">
        <ele>1273.6</ele>
        <time>2019-07-05T09:05:50Z</time>
      </trkpt>
      <trkpt lat="40.3090170" lon="-1.3424700">
        <ele>1274.0</ele>
        <time>2019-07-05T09:05:53Z</time>
      </trkpt>
      <trkpt lat="40.3090210" lon="-1.3426110">
        <ele>1274.2</ele>
        <time>2019-07-05T09:05:56Z</time>
      </trkpt>
      <trkpt lat="40.3090170" lon="-1.3428360">
        <ele>1274.8</ele>
        <time>2019-07-05T09:06:01Z</time>
      </trkpt>
      <trkpt lat="40.3090110" lon="-1.3429140">
        <ele>1275.2</ele>
        <time>2019-07-05T09:06:03Z</time>
      </trkpt>
      <trkpt lat="40.3089970" lon="-1.3430690">
        <ele>1276.2</ele>
        <time>2019-07-05T09:06:07Z</time>
      </trkpt>
      <trkpt lat="40.3089930" lon="-1.3431080">
        <ele>1276.2</ele>
        <time>2019-07-05T09:06:08Z</time>
      </trkpt>
      <trkpt lat="40.3089830" lon="-1.3432910">
        <ele>1277.4</ele>
        <time>2019-07-05T09:06:13Z</time>
      </trkpt>
      <trkpt lat="40.3089810" lon="-1.3433270">
        <ele>1277.6</ele>
        <time>2019-07-05T09:06:14Z</time>
      </trkpt>
      <trkpt lat="40.3089860" lon="-1.3435470">
        <ele>1278.4</ele>
        <time>2019-07-05T09:06:20Z</time>
      </trkpt>
      <trkpt lat="40.3089890" lon="-1.3435830">
        <ele>1278.6</ele>
        <time>2019-07-05T09:06:21Z</time>
      </trkpt>
      <trkpt lat="40.3089930" lon="-1.3437260">
        <ele>1279.8</ele>
        <time>2019-07-05T09:06:25Z</time>
      </trkpt>
      <trkpt lat="40.3090180" lon="-1.3438620">
        <ele>1281.0</ele>
        <time>2019-07-05T09:06:29Z</time>
      </trkpt>
      <trkpt lat="40.3090220" lon="-1.3438960">
        <ele>1281.2</ele>
        <time>2019-07-05T09:06:30Z</time>
      </trkpt>
      <trkpt lat="40.3090460" lon="-1.3440960">
        <ele>1281.8</ele>
        <time>2019-07-05T09:06:36Z</time>
      </trkpt>
      <trkpt lat="40.3090510" lon="-1.3441290">
        <ele>1282.0</ele>
        <time>2019-07-05T09:06:37Z</time>
      </trkpt>
      <trkpt lat="40.3090750" lon="-1.3443100">
        <ele>1283.2</ele>
        <time>2019-07-05T09:06:42Z</time>
      </trkpt>
      <trkpt lat="40.3090980" lon="-1.3445350">
        <ele>1284.0</ele>
        <time>2019-07-05T09:06:48Z</time>
      </trkpt>
      <trkpt lat="40.3091010" lon="-1.3445650">
        <ele>1284.2</ele>
        <time>2019-07-05T09:06:49Z</time>
      </trkpt>
      <trkpt lat="40.3091160" lon="-1.3446600">
        <ele>1285.2</ele>
        <time>2019-07-05T09:06:52Z</time>
      </trkpt>
      <trkpt lat="40.3091260" lon="-1.3447890">
        <ele>1286.0</ele>
        <time>2019-07-05T09:06:56Z</time>
      </trkpt>
      <trkpt lat="40.3091360" lon="-1.3448560">
        <ele>1286.4</ele>
        <time>2019-07-05T09:06:58Z</time>
      </trkpt>
      <trkpt lat="40.3091510" lon="-1.3449430">
        <ele>1287.6</ele>
        <time>2019-07-05T09:07:01Z</time>
      </trkpt>
      <trkpt lat="40.3091650" lon="-1.3450350">
        <ele>1288.2</ele>
        <time>2019-07-05T09:07:04Z</time>
      </trkpt>
      <trkpt lat="40.3091750" lon="-1.3450990">
        <ele>1288.8</ele>
        <time>2019-07-05T09:07:06Z</time>
      </trkpt>
      <trkpt lat="40.3091990" lon="-1.3452280">
        <ele>1289.8</ele>
        <time>2019-07-05T09:07:10Z</time>
      </trkpt>
      <trkpt lat="40.3092030" lon="-1.3452590">
        <ele>1290.0</ele>
        <time>2019-07-05T09:07:11Z</time>
      </trkpt>
      <trkpt lat="40.3092120" lon="-1.3453860">
        <ele>1291.0</ele>
        <time>2019-07-05T09:07:15Z</time>
      </trkpt>
      <trkpt lat="40.3092130" lon="-1.3454530">
        <ele>1291.6</ele>
        <time>2019-07-05T09:07:17Z</time>
      </trkpt>
      <trkpt lat="40.3091940" lon="-1.3455730">
        <ele>1292.2</ele>
        <time>2019-07-05T09:07:21Z</time>
      </trkpt>
      <trkpt lat="40.3091770" lon="-1.3456330">
        <ele>1293.2</ele>
        <time>2019-07-05T09:07:23Z</time>
      </trkpt>
      <trkpt lat="40.3091700" lon="-1.3456650">
        <ele>1293.4</ele>
        <time>2019-07-05T09:07:24Z</time>
      </trkpt>
      <trkpt lat="40.3091790" lon="-1.3458430">
        <ele>1293.8</ele>
        <time>2019-07-05T09:07:28Z</time>
      </trkpt>
      <trkpt lat="40.3092340" lon="-1.3460240">
        <ele>1294.2</ele>
        <time>2019-07-05T09:07:32Z</time>
      </trkpt>
      <trkpt lat="40.3092670" lon="-1.3461410">
        <ele>1294.6</ele>
        <time>2019-07-05T09:07:35Z</time>
      </trkpt>
      <trkpt lat="40.3092920" lon="-1.3462390">
        <ele>1295.6</ele>
        <time>2019-07-05T09:07:38Z</time>
      </trkpt>
      <trkpt lat="40.3093180" lon="-1.3463620">
        <ele>1296.6</ele>
        <time>2019-07-05T09:07:42Z</time>
      </trkpt>
      <trkpt lat="40.3093380" lon="-1.3464880">
        <ele>1297.6</ele>
        <time>2019-07-05T09:07:46Z</time>
      </trkpt>
      <trkpt lat="40.3093580" lon="-1.3465490">
        <ele>1298.2</ele>
        <time>2019-07-05T09:07:48Z</time>
      </trkpt>
      <trkpt lat="40.3093870" lon="-1.3466400">
        <ele>1298.8</ele>
        <time>2019-07-05T09:07:51Z</time>
      </trkpt>
      <trkpt lat="40.3094340" lon="-1.3467480">
        <ele>1299.4</ele>
        <time>2019-07-05T09:07:55Z</time>
      </trkpt>
      <trkpt lat="40.3094490" lon="-1.3467750">
        <ele>1299.8</ele>
        <time>2019-07-05T09:07:56Z</time>
      </trkpt>
      <trkpt lat="40.3095080" lon="-1.3468670">
        <ele>1300.8</ele>
        <time>2019-07-05T09:08:00Z</time>
      </trkpt>
      <trkpt lat="40.3095400" lon="-1.3469100">
        <ele>1301.2</ele>
        <time>2019-07-05T09:08:02Z</time>
      </trkpt>
      <trkpt lat="40.3095900" lon="-1.3469770">
        <ele>1302.2</ele>
        <time>2019-07-05T09:08:05Z</time>
      </trkpt>
      <trkpt lat="40.3096530" lon="-1.3470670">
        <ele>1302.8</ele>
        <time>2019-07-05T09:08:09Z</time>
      </trkpt>
      <trkpt lat="40.3096820" lon="-1.3471120">
        <ele>1303.4</ele>
        <time>2019-07-05T09:08:11Z</time>
      </trkpt>
      <trkpt lat="40.3097420" lon="-1.3472060">
        <ele>1304.2</ele>
        <time>2019-07-05T09:08:15Z</time>
      </trkpt>
      <trkpt lat="40.3097750" lon="-1.3472550">
        <ele>1304.4</ele>
        <time>2019-07-05T09:08:17Z</time>
      </trkpt>
      <trkpt lat="40.3098230" lon="-1.3473390">
        <ele>1305.6</ele>
        <time>2019-07-05T09:08:20Z</time>
      </trkpt>
      <trkpt lat="40.3098630" lon="-1.3473980">
        <ele>1306.0</ele>
        <time>2019-07-05T09:08:22Z</time>
      </trkpt>
      <trkpt lat="40.3099600" lon="-1.3475260">
        <ele>1306.6</ele>
        <time>2019-07-05T09:08:27Z</time>
      </trkpt>
      <trkpt lat="40.3099970" lon="-1.3475770">
        <ele>1307.0</ele>
        <time>2019-07-05T09:08:29Z</time>
      </trkpt>
      <trkpt lat="40.3101010" lon="-1.3477190">
        <ele>1307.8</ele>
        <time>2019-07-05T09:08:34Z</time>
      </trkpt>
      <trkpt lat="40.3101380" lon="-1.3477740">
        <ele>1308.6</ele>
        <time>2019-07-05T09:08:36Z</time>
      </trkpt>
      <trkpt lat="40.3101990" lon="-1.3478610">
        <ele>1309.0</ele>
        <time>2019-07-05T09:08:39Z</time>
      </trkpt>
      <trkpt lat="40.3102590" lon="-1.3479370">
        <ele>1309.2</ele>
        <time>2019-07-05T09:08:42Z</time>
      </trkpt>
      <trkpt lat="40.3103450" lon="-1.3480810">
        <ele>1309.4</ele>
        <time>2019-07-05T09:08:47Z</time>
      </trkpt>
      <trkpt lat="40.3103800" lon="-1.3481390">
        <ele>1309.8</ele>
        <time>2019-07-05T09:08:49Z</time>
      </trkpt>
      <trkpt lat="40.3104570" lon="-1.3482460">
        <ele>1310.2</ele>
        <time>2019-07-05T09:08:53Z</time>
      </trkpt>
      <trkpt lat="40.3105330" lon="-1.3483640">
        <ele>1310.8</ele>
        <time>2019-07-05T09:08:57Z</time>
      </trkpt>
      <trkpt lat="40.3105500" lon="-1.3483920">
        <ele>1311.0</ele>
        <time>2019-07-05T09:08:58Z</time>
      </trkpt>
      <trkpt lat="40.3107200" lon="-1.3486070">
        <ele>1311.6</ele>
        <time>2019-07-05T09:09:05Z</time>
      </trkpt>
      <trkpt lat="40.3107480" lon="-1.3486330">
        <ele>1311.8</ele>
        <time>2019-07-05T09:09:06Z</time>
      </trkpt>
      <trkpt lat="40.3108950" lon="-1.3487560">
        <ele>1312.6</ele>
        <time>2019-07-05T09:09:11Z</time>
      </trkpt>
      <trkpt lat="40.3109530" lon="-1.3488030">
        <ele>1312.8</ele>
        <time>2019-07-05T09:09:13Z</time>
      </trkpt>
      <trkpt lat="40.3110710" lon="-1.3488990">
        <ele>1313.4</ele>
        <time>2019-07-05T09:09:17Z</time>
      </trkpt>
      <trkpt lat="40.3112230" lon="-1.3489970">
        <ele>1313.2</ele>
        <time>2019-07-05T09:09:22Z</time>
      </trkpt>
      <trkpt lat="40.3112530" lon="-1.3490160">
        <ele>1314.0</ele>
        <time>2019-07-05T09:09:23Z</time>
      </trkpt>
      <trkpt lat="40.3114040" lon="-1.3491070">
        <ele>1314.8</ele>
        <time>2019-07-05T09:09:28Z</time>
      </trkpt>
      <trkpt lat="40.3114880" lon="-1.3491570">
        <ele>1314.8</ele>
        <time>2019-07-05T09:09:31Z</time>
      </trkpt>
      <trkpt lat="40.3115780" lon="-1.3492140">
        <ele>1315.4</ele>
        <time>2019-07-05T09:09:34Z</time>
      </trkpt>
      <trkpt lat="40.3116320" lon="-1.3492420">
        <ele>1315.8</ele>
        <time>2019-07-05T09:09:36Z</time>
      </trkpt>
      <trkpt lat="40.3117480" lon="-1.3492940">
        <ele>1316.4</ele>
        <time>2019-07-05T09:09:40Z</time>
      </trkpt>
      <trkpt lat="40.3119210" lon="-1.3493480">
        <ele>1317.0</ele>
        <time>2019-07-05T09:09:45Z</time>
      </trkpt>
      <trkpt lat="40.3119570" lon="-1.3493590">
        <ele>1317.0</ele>
        <time>2019-07-05T09:09:46Z</time>
      </trkpt>
      <trkpt lat="40.3120620" lon="-1.3493760">
        <ele>1318.0</ele>
        <time>2019-07-05T09:09:49Z</time>
      </trkpt>
      <trkpt lat="40.3121310" lon="-1.3493900">
        <ele>1318.2</ele>
        <time>2019-07-05T09:09:51Z</time>
      </trkpt>
      <trkpt lat="40.3122650" lon="-1.3493980">
        <ele>1319.2</ele>
        <time>2019-07-05T09:09:55Z</time>
      </trkpt>
      <trkpt lat="40.3123290" lon="-1.3493930">
        <ele>1319.6</ele>
        <time>2019-07-05T09:09:57Z</time>
      </trkpt>
      <trkpt lat="40.3124920" lon="-1.3493640">
        <ele>1320.4</ele>
        <time>2019-07-05T09:10:02Z</time>
      </trkpt>
      <trkpt lat="40.3125210" lon="-1.3493560">
        <ele>1320.4</ele>
        <time>2019-07-05T09:10:03Z</time>
      </trkpt>
      <trkpt lat="40.3127110" lon="-1.3493130">
        <ele>1321.0</ele>
        <time>2019-07-05T09:10:09Z</time>
      </trkpt>
      <trkpt lat="40.3127440" lon="-1.3493060">
        <ele>1321.2</ele>
        <time>2019-07-05T09:10:10Z</time>
      </trkpt>
      <trkpt lat="40.3129050" lon="-1.3492740">
        <ele>1322.4</ele>
        <time>2019-07-05T09:10:15Z</time>
      </trkpt>
      <trkpt lat="40.3130680" lon="-1.3492560">
        <ele>1322.8</ele>
        <time>2019-07-05T09:10:20Z</time>
      </trkpt>
      <trkpt lat="40.3131970" lon="-1.3492600">
        <ele>1323.4</ele>
        <time>2019-07-05T09:10:24Z</time>
      </trkpt>
      <trkpt lat="40.3132320" lon="-1.3492590">
        <ele>1323.4</ele>
        <time>2019-07-05T09:10:25Z</time>
      </trkpt>
      <trkpt lat="40.3134970" lon="-1.3492870">
        <ele>1323.2</ele>
        <time>2019-07-05T09:10:32Z</time>
      </trkpt>
      <trkpt lat="40.3136610" lon="-1.3493140">
        <ele>1324.0</ele>
        <time>2019-07-05T09:10:36Z</time>
      </trkpt>
      <trkpt lat="40.3137450" lon="-1.3493380">
        <ele>1324.4</ele>
        <time>2019-07-05T09:10:38Z</time>
      </trkpt>
      <trkpt lat="40.3138270" lon="-1.3493630">
        <ele>1324.6</ele>
        <time>2019-07-05T09:10:40Z</time>
      </trkpt>
      <trkpt lat="40.3141050" lon="-1.3494490">
        <ele>1325.2</ele>
        <time>2019-07-05T09:10:47Z</time>
      </trkpt>
      <trkpt lat="40.3141440" lon="-1.3494590">
        <ele>1325.4</ele>
        <time>2019-07-05T09:10:48Z</time>
      </trkpt>
      <trkpt lat="40.3144020" lon="-1.3495450">
        <ele>1326.6</ele>
        <time>2019-07-05T09:10:55Z</time>
      </trkpt>
      <trkpt lat="40.3145710" lon="-1.3495990">
        <ele>1327.6</ele>
        <time>2019-07-05T09:11:00Z</time>
      </trkpt>
      <trkpt lat="40.3146310" lon="-1.3496250">
        <ele>1328.4</ele>
        <time>2019-07-05T09:11:02Z</time>
      </trkpt>
      <trkpt lat="40.3146600" lon="-1.3496380">
        <ele>1328.6</ele>
        <time>2019-07-05T09:11:03Z</time>
      </trkpt>
      <trkpt lat="40.3147770" lon="-1.3496950">
        <ele>1329.8</ele>
        <time>2019-07-05T09:11:07Z</time>
      </trkpt>
      <trkpt lat="40.3148360" lon="-1.3497310">
        <ele>1330.0</ele>
        <time>2019-07-05T09:11:09Z</time>
      </trkpt>
      <trkpt lat="40.3150310" lon="-1.3499090">
        <ele>1330.6</ele>
        <time>2019-07-05T09:11:16Z</time>
      </trkpt>
      <trkpt lat="40.3150740" lon="-1.3499830">
        <ele>1330.8</ele>
        <time>2019-07-05T09:11:18Z</time>
      </trkpt>
      <trkpt lat="40.3151830" lon="-1.3502030">
        <ele>1331.6</ele>
        <time>2019-07-05T09:11:24Z</time>
      </trkpt>
      <trkpt lat="40.3152520" lon="-1.3504140">
        <ele>1332.8</ele>
        <time>2019-07-05T09:11:30Z</time>
      </trkpt>
      <trkpt lat="40.3152650" lon="-1.3504460">
        <ele>1333.0</ele>
        <time>2019-07-05T09:11:31Z</time>
      </trkpt>
      <trkpt lat="40.3153180" lon="-1.3505850">
        <ele>1333.8</ele>
        <time>2019-07-05T09:11:36Z</time>
      </trkpt>
      <trkpt lat="40.3153200" lon="-1.3506030">
        <ele>1334.0</ele>
        <time>2019-07-05T09:11:37Z</time>
      </trkpt>
      <trkpt lat="40.3153200" lon="-1.3506300">
        <ele>1334.8</ele>
        <time>2019-07-05T09:11:39Z</time>
      </trkpt>
      <trkpt lat="40.3153180" lon="-1.3506310">
        <ele>1334.8</ele>
        <time>2019-07-05T09:11:41Z</time>
      </trkpt>
      <trkpt lat="40.3152790" lon="-1.3506430">
        <ele>1334.8</ele>
        <time>2019-07-05T09:12:40Z</time>
      </trkpt>
      <trkpt lat="40.3152630" lon="-1.3506460">
        <ele>1334.8</ele>
        <time>2019-07-05T09:12:41Z</time>
      </trkpt>
      <trkpt lat="40.3152040" lon="-1.3506540">
        <ele>1335.2</ele>
        <time>2019-07-05T09:12:44Z</time>
      </trkpt>
      <trkpt lat="40.3151540" lon="-1.3506710">
        <ele>1335.4</ele>
        <time>2019-07-05T09:12:46Z</time>
      </trkpt>
      <trkpt lat="40.3149480" lon="-1.3507900">
        <ele>1336.8</ele>
        <time>2019-07-05T09:12:54Z</time>
      </trkpt>
      <trkpt lat="40.3148210" lon="-1.3509020">
        <ele>1337.6</ele>
        <time>2019-07-05T09:12:59Z</time>
      </trkpt>
      <trkpt lat="40.3147640" lon="-1.3509480">
        <ele>1337.8</ele>
        <time>2019-07-05T09:13:01Z</time>
      </trkpt>
      <trkpt lat="40.3146140" lon="-1.3511000">
        <ele>1338.8</ele>
        <time>2019-07-05T09:13:07Z</time>
      </trkpt>
      <trkpt lat="40.3145370" lon="-1.3511720">
        <ele>1339.4</ele>
        <time>2019-07-05T09:13:10Z</time>
      </trkpt>
      <trkpt lat="40.3143880" lon="-1.3513110">
        <ele>1339.8</ele>
        <time>2019-07-05T09:13:16Z</time>
      </trkpt>
      <trkpt lat="40.3143630" lon="-1.3513350">
        <ele>1340.0</ele>
        <time>2019-07-05T09:13:17Z</time>
      </trkpt>
      <trkpt lat="40.3142740" lon="-1.3514250">
        <ele>1341.0</ele>
        <time>2019-07-05T09:13:21Z</time>
      </trkpt>
      <trkpt lat="40.3142500" lon="-1.3514420">
        <ele>1341.0</ele>
        <time>2019-07-05T09:13:22Z</time>
      </trkpt>
      <trkpt lat="40.3141990" lon="-1.3514720">
        <ele>1342.0</ele>
        <time>2019-07-05T09:13:24Z</time>
      </trkpt>
      <trkpt lat="40.3141090" lon="-1.3515710">
        <ele>1343.2</ele>
        <time>2019-07-05T09:13:28Z</time>
      </trkpt>
      <trkpt lat="40.3140110" lon="-1.3516950">
        <ele>1344.4</ele>
        <time>2019-07-05T09:13:33Z</time>
      </trkpt>
      <trkpt lat="40.3139750" lon="-1.3517490">
        <ele>1344.6</ele>
        <time>2019-07-05T09:13:35Z</time>
      </trkpt>
      <trkpt lat="40.3139230" lon="-1.3518250">
        <ele>1345.6</ele>
        <time>2019-07-05T09:13:38Z</time>
      </trkpt>
      <trkpt lat="40.3138180" lon="-1.3519970">
        <ele>1346.6</ele>
        <time>2019-07-05T09:13:44Z</time>
      </trkpt>
      <trkpt lat="40.3137220" lon="-1.3521640">
        <ele>1347.6</ele>
        <time>2019-07-05T09:13:50Z</time>
      </trkpt>
      <trkpt lat="40.3136950" lon="-1.3522200">
        <ele>1347.8</ele>
        <time>2019-07-05T09:13:52Z</time>
      </trkpt>
      <trkpt lat="40.3136350" lon="-1.3523250">
        <ele>1348.8</ele>
        <time>2019-07-05T09:13:56Z</time>
      </trkpt>
      <trkpt lat="40.3135730" lon="-1.3524330">
        <ele>1349.6</ele>
        <time>2019-07-05T09:14:00Z</time>
      </trkpt>
      <trkpt lat="40.3135550" lon="-1.3524610">
        <ele>1350.0</ele>
        <time>2019-07-05T09:14:01Z</time>
      </trkpt>
      <trkpt lat="40.3135100" lon="-1.3525450">
        <ele>1351.0</ele>
        <time>2019-07-05T09:14:04Z</time>
      </trkpt>
      <trkpt lat="40.3134740" lon="-1.3526000">
        <ele>1351.2</ele>
        <time>2019-07-05T09:14:06Z</time>
      </trkpt>
      <trkpt lat="40.3133640" lon="-1.3527780">
        <ele>1352.0</ele>
        <time>2019-07-05T09:14:12Z</time>
      </trkpt>
      <trkpt lat="40.3133450" lon="-1.3528130">
        <ele>1352.2</ele>
        <time>2019-07-05T09:14:13Z</time>
      </trkpt>
      <trkpt lat="40.3132430" lon="-1.3529940">
        <ele>1353.0</ele>
        <time>2019-07-05T09:14:18Z</time>
      </trkpt>
      <trkpt lat="40.3131980" lon="-1.3530730">
        <ele>1353.4</ele>
        <time>2019-07-05T09:14:20Z</time>
      </trkpt>
      <trkpt lat="40.3129900" lon="-1.3533700">
        <ele>1353.0</ele>
        <time>2019-07-05T09:14:28Z</time>
      </trkpt>
      <trkpt lat="40.3128290" lon="-1.3535310">
        <ele>1353.2</ele>
        <time>2019-07-05T09:14:33Z</time>
      </trkpt>
      <trkpt lat="40.3127110" lon="-1.3536180">
        <ele>1354.0</ele>
        <time>2019-07-05T09:14:37Z</time>
      </trkpt>
      <trkpt lat="40.3126570" lon="-1.3536350">
        <ele>1354.8</ele>
        <time>2019-07-05T09:14:39Z</time>
      </trkpt>
      <trkpt lat="40.3126350" lon="-1.3536470">
        <ele>1355.2</ele>
        <time>2019-07-05T09:14:40Z</time>
      </trkpt>
      <trkpt lat="40.3125120" lon="-1.3536650">
        <ele>1355.8</ele>
        <time>2019-07-05T09:14:44Z</time>
      </trkpt>
      <trkpt lat="40.3123800" lon="-1.3536490">
        <ele>1356.2</ele>
        <time>2019-07-05T09:14:48Z</time>
      </trkpt>
      <trkpt lat="40.3122890" lon="-1.3536270">
        <ele>1357.2</ele>
        <time>2019-07-05T09:14:51Z</time>
      </trkpt>
      <trkpt lat="40.3122580" lon="-1.3536270">
        <ele>1357.4</ele>
        <time>2019-07-05T09:14:52Z</time>
      </trkpt>
      <trkpt lat="40.3120940" lon="-1.3536180">
        <ele>1357.8</ele>
        <time>2019-07-05T09:14:57Z</time>
      </trkpt>
      <trkpt lat="40.3119780" lon="-1.3536480">
        <ele>1358.6</ele>
        <time>2019-07-05T09:15:01Z</time>
      </trkpt>
      <trkpt lat="40.3119030" lon="-1.3536770">
        <ele>1359.2</ele>
        <time>2019-07-05T09:15:04Z</time>
      </trkpt>
      <trkpt lat="40.3118800" lon="-1.3536920">
        <ele>1359.6</ele>
        <time>2019-07-05T09:15:05Z</time>
      </trkpt>
      <trkpt lat="40.3118160" lon="-1.3537490">
        <ele>1360.6</ele>
        <time>2019-07-05T09:15:08Z</time>
      </trkpt>
      <trkpt lat="40.3117260" lon="-1.3538500">
        <ele>1361.4</ele>
        <time>2019-07-05T09:15:12Z</time>
      </trkpt>
      <trkpt lat="40.3117040" lon="-1.3538750">
        <ele>1361.6</ele>
        <time>2019-07-05T09:15:13Z</time>
      </trkpt>
      <trkpt lat="40.3115730" lon="-1.3540340">
        <ele>1362.8</ele>
        <time>2019-07-05T09:15:19Z</time>
      </trkpt>
      <trkpt lat="40.3115510" lon="-1.3540610">
        <ele>1363.0</ele>
        <time>2019-07-05T09:15:20Z</time>
      </trkpt>
      <trkpt lat="40.3114620" lon="-1.3541580">
        <ele>1363.8</ele>
        <time>2019-07-05T09:15:24Z</time>
      </trkpt>
      <trkpt lat="40.3113470" lon="-1.3542780">
        <ele>1364.8</ele>
        <time>2019-07-05T09:15:29Z</time>
      </trkpt>
      <trkpt lat="40.3113230" lon="-1.3543050">
        <ele>1365.0</ele>
        <time>2019-07-05T09:15:30Z</time>
      </trkpt>
      <trkpt lat="40.3111410" lon="-1.3544570">
        <ele>1365.8</ele>
        <time>2019-07-05T09:15:36Z</time>
      </trkpt>
      <trkpt lat="40.3109280" lon="-1.3545770">
        <ele>1366.0</ele>
        <time>2019-07-05T09:15:42Z</time>
      </trkpt>
      <trkpt lat="40.3108580" lon="-1.3546020">
        <ele>1366.4</ele>
        <time>2019-07-05T09:15:44Z</time>
      </trkpt>
      <trkpt lat="40.3106540" lon="-1.3546360">
        <ele>1367.0</ele>
        <time>2019-07-05T09:15:50Z</time>
      </trkpt>
      <trkpt lat="40.3106160" lon="-1.3546310">
        <ele>1367.2</ele>
        <time>2019-07-05T09:15:51Z</time>
      </trkpt>
      <trkpt lat="40.3103900" lon="-1.3545400">
        <ele>1368.2</ele>
        <time>2019-07-05T09:15:57Z</time>
      </trkpt>
      <trkpt lat="40.3103490" lon="-1.3545130">
        <ele>1368.4</ele>
        <time>2019-07-05T09:15:58Z</time>
      </trkpt>
      <trkpt lat="40.3101610" lon="-1.3544190">
        <ele>1369.4</ele>
        <time>2019-07-05T09:16:03Z</time>
      </trkpt>
      <trkpt lat="40.3100860" lon="-1.3543890">
        <ele>1369.6</ele>
        <time>2019-07-05T09:16:05Z</time>
      </trkpt>
      <trkpt lat="40.3098300" lon="-1.3543090">
        <ele>1370.2</ele>
        <time>2019-07-05T09:16:12Z</time>
      </trkpt>
      <trkpt lat="40.3097950" lon="-1.3543010">
        <ele>1370.4</ele>
        <time>2019-07-05T09:16:13Z</time>
      </trkpt>
      <trkpt lat="40.3095880" lon="-1.3542690">
        <ele>1371.6</ele>
        <time>2019-07-05T09:16:19Z</time>
      </trkpt>
      <trkpt lat="40.3094080" lon="-1.3542130">
        <ele>1372.2</ele>
        <time>2019-07-05T09:16:24Z</time>
      </trkpt>
      <trkpt lat="40.3093380" lon="-1.3541800">
        <ele>1372.6</ele>
        <time>2019-07-05T09:16:26Z</time>
      </trkpt>
      <trkpt lat="40.3093040" lon="-1.3541640">
        <ele>1372.8</ele>
        <time>2019-07-05T09:16:27Z</time>
      </trkpt>
      <trkpt lat="40.3091380" lon="-1.3540390">
        <ele>1374.0</ele>
        <time>2019-07-05T09:16:32Z</time>
      </trkpt>
      <trkpt lat="40.3090750" lon="-1.3539890">
        <ele>1374.2</ele>
        <time>2019-07-05T09:16:34Z</time>
      </trkpt>
      <trkpt lat="40.3088950" lon="-1.3538620">
        <ele>1374.8</ele>
        <time>2019-07-05T09:16:39Z</time>
      </trkpt>
      <trkpt lat="40.3088550" lon="-1.3538470">
        <ele>1375.0</ele>
        <time>2019-07-05T09:16:40Z</time>
      </trkpt>
      <trkpt lat="40.3087340" lon="-1.3538140">
        <ele>1375.4</ele>
        <time>2019-07-05T09:16:43Z</time>
      </trkpt>
      <trkpt lat="40.3085760" lon="-1.3538020">
        <ele>1375.8</ele>
        <time>2019-07-05T09:16:47Z</time>
      </trkpt>
      <trkpt lat="40.3085000" lon="-1.3538120">
        <ele>1376.0</ele>
        <time>2019-07-05T09:16:49Z</time>
      </trkpt>
      <trkpt lat="40.3083470" lon="-1.3538220">
        <ele>1376.6</ele>
        <time>2019-07-05T09:16:53Z</time>
      </trkpt>
      <trkpt lat="40.3082850" lon="-1.3538360">
        <ele>1377.0</ele>
        <time>2019-07-05T09:16:55Z</time>
      </trkpt>
      <trkpt lat="40.3082300" lon="-1.3538710">
        <ele>1377.2</ele>
        <time>2019-07-05T09:16:57Z</time>
      </trkpt>
      <trkpt lat="40.3081810" lon="-1.3539040">
        <ele>1377.8</ele>
        <time>2019-07-05T09:17:01Z</time>
      </trkpt>
      <trkpt lat="40.3081820" lon="-1.3539030">
        <ele>1377.8</ele>
        <time>2019-07-05T09:17:02Z</time>
      </trkpt>
      <trkpt lat="40.3081080" lon="-1.3539300">
        <ele>1377.6</ele>
        <time>2019-07-05T09:19:10Z</time>
      </trkpt>
      <trkpt lat="40.3080870" lon="-1.3539290">
        <ele>1377.8</ele>
        <time>2019-07-05T09:19:11Z</time>
      </trkpt>
      <trkpt lat="40.3080640" lon="-1.3539290">
        <ele>1378.0</ele>
        <time>2019-07-05T09:19:12Z</time>
      </trkpt>
      <trkpt lat="40.3078950" lon="-1.3539470">
        <ele>1378.2</ele>
        <time>2019-07-05T09:19:19Z</time>
      </trkpt>
      <trkpt lat="40.3078730" lon="-1.3539500">
        <ele>1378.6</ele>
        <time>2019-07-05T09:19:20Z</time>
      </trkpt>
      <trkpt lat="40.3078240" lon="-1.3539540">
        <ele>1379.2</ele>
        <time>2019-07-05T09:19:22Z</time>
      </trkpt>
      <trkpt lat="40.3077510" lon="-1.3539630">
        <ele>1380.0</ele>
        <time>2019-07-05T09:19:25Z</time>
      </trkpt>
      <trkpt lat="40.3076990" lon="-1.3539640">
        <ele>1380.4</ele>
        <time>2019-07-05T09:19:27Z</time>
      </trkpt>
      <trkpt lat="40.3076190" lon="-1.3539530">
        <ele>1381.2</ele>
        <time>2019-07-05T09:19:30Z</time>
      </trkpt>
      <trkpt lat="40.3075700" lon="-1.3539420">
        <ele>1381.8</ele>
        <time>2019-07-05T09:19:32Z</time>
      </trkpt>
      <trkpt lat="40.3074980" lon="-1.3538990">
        <ele>1382.8</ele>
        <time>2019-07-05T09:19:35Z</time>
      </trkpt>
      <trkpt lat="40.3074280" lon="-1.3538410">
        <ele>1383.6</ele>
        <time>2019-07-05T09:19:38Z</time>
      </trkpt>
      <trkpt lat="40.3074100" lon="-1.3538250">
        <ele>1384.0</ele>
        <time>2019-07-05T09:19:39Z</time>
      </trkpt>
      <trkpt lat="40.3073910" lon="-1.3538080">
        <ele>1384.2</ele>
        <time>2019-07-05T09:19:40Z</time>
      </trkpt>
      <trkpt lat="40.3073260" lon="-1.3537250">
        <ele>1384.8</ele>
        <time>2019-07-05T09:19:44Z</time>
      </trkpt>
      <trkpt lat="40.3073130" lon="-1.3536960">
        <ele>1385.0</ele>
        <time>2019-07-05T09:19:45Z</time>
      </trkpt>
      <trkpt lat="40.3073030" lon="-1.3536690">
        <ele>1385.2</ele>
        <time>2019-07-05T09:19:46Z</time>
      </trkpt>
      <trkpt lat="40.3072770" lon="-1.3535870">
        <ele>1386.2</ele>
        <time>2019-07-05T09:19:49Z</time>
      </trkpt>
      <trkpt lat="40.3072530" lon="-1.3535220">
        <ele>1387.0</ele>
        <time>2019-07-05T09:19:51Z</time>
      </trkpt>
      <trkpt lat="40.3071810" lon="-1.3533820">
        <ele>1387.4</ele>
        <time>2019-07-05T09:19:55Z</time>
      </trkpt>
      <trkpt lat="40.3071620" lon="-1.3533570">
        <ele>1387.4</ele>
        <time>2019-07-05T09:19:56Z</time>
      </trkpt>
      <trkpt lat="40.3070790" lon="-1.3532990">
        <ele>1388.6</ele>
        <time>2019-07-05T09:20:00Z</time>
      </trkpt>
      <trkpt lat="40.3070620" lon="-1.3533050">
        <ele>1389.0</ele>
        <time>2019-07-05T09:20:01Z</time>
      </trkpt>
      <trkpt lat="40.3070300" lon="-1.3533220">
        <ele>1389.6</ele>
        <time>2019-07-05T09:20:03Z</time>
      </trkpt>
      <trkpt lat="40.3070020" lon="-1.3533500">
        <ele>1390.4</ele>
        <time>2019-07-05T09:20:05Z</time>
      </trkpt>
      <trkpt lat="40.3070000" lon="-1.3533870">
        <ele>1390.8</ele>
        <time>2019-07-05T09:20:07Z</time>
      </trkpt>
      <trkpt lat="40.3070020" lon="-1.3534360">
        <ele>1391.0</ele>
        <time>2019-07-05T09:20:09Z</time>
      </trkpt>
      <trkpt lat="40.3069980" lon="-1.3534910">
        <ele>1391.8</ele>
        <time>2019-07-05T09:20:11Z</time>
      </trkpt>
      <trkpt lat="40.3069920" lon="-1.3535460">
        <ele>1392.4</ele>
        <time>2019-07-05T09:20:13Z</time>
      </trkpt>
      <trkpt lat="40.3069820" lon="-1.3536070">
        <ele>1392.8</ele>
        <time>2019-07-05T09:20:15Z</time>
      </trkpt>
      <trkpt lat="40.3069740" lon="-1.3537180">
        <ele>1393.6</ele>
        <time>2019-07-05T09:20:19Z</time>
      </trkpt>
      <trkpt lat="40.3069720" lon="-1.3537630">
        <ele>1394.4</ele>
        <time>2019-07-05T09:20:21Z</time>
      </trkpt>
      <trkpt lat="40.3069620" lon="-1.3538780">
        <ele>1395.4</ele>
        <time>2019-07-05T09:20:26Z</time>
      </trkpt>
      <trkpt lat="40.3069900" lon="-1.3540590">
        <ele>1396.4</ele>
        <time>2019-07-05T09:20:34Z</time>
      </trkpt>
      <trkpt lat="40.3070040" lon="-1.3541280">
        <ele>1397.4</ele>
        <time>2019-07-05T09:20:37Z</time>
      </trkpt>
      <trkpt lat="40.3070090" lon="-1.3541710">
        <ele>1398.0</ele>
        <time>2019-07-05T09:20:39Z</time>
      </trkpt>
      <trkpt lat="40.3070180" lon="-1.3542100">
        <ele>1398.8</ele>
        <time>2019-07-05T09:20:41Z</time>
      </trkpt>
      <trkpt lat="40.3069970" lon="-1.3542940">
        <ele>1399.2</ele>
        <time>2019-07-05T09:20:44Z</time>
      </trkpt>
      <trkpt lat="40.3069260" lon="-1.3543720">
        <ele>1399.6</ele>
        <time>2019-07-05T09:20:49Z</time>
      </trkpt>
      <trkpt lat="40.3068720" lon="-1.3543730">
        <ele>1399.8</ele>
        <time>2019-07-05T09:20:52Z</time>
      </trkpt>
      <trkpt lat="40.3067970" lon="-1.3543730">
        <ele>1401.2</ele>
        <time>2019-07-05T09:20:56Z</time>
      </trkpt>
      <trkpt lat="40.3067000" lon="-1.3543740">
        <ele>1402.0</ele>
        <time>2019-07-05T09:21:01Z</time>
      </trkpt>
      <trkpt lat="40.3066640" lon="-1.3543720">
        <ele>1402.6</ele>
        <time>2019-07-05T09:21:03Z</time>
      </trkpt>
      <trkpt lat="40.3066020" lon="-1.3543730">
        <ele>1403.4</ele>
        <time>2019-07-05T09:21:06Z</time>
      </trkpt>
      <trkpt lat="40.3065230" lon="-1.3543780">
        <ele>1404.2</ele>
        <time>2019-07-05T09:21:10Z</time>
      </trkpt>
      <trkpt lat="40.3065010" lon="-1.3543800">
        <ele>1404.4</ele>
        <time>2019-07-05T09:21:11Z</time>
      </trkpt>
      <trkpt lat="40.3064230" lon="-1.3543830">
        <ele>1405.2</ele>
        <time>2019-07-05T09:21:15Z</time>
      </trkpt>
      <trkpt lat="40.3063800" lon="-1.3543850">
        <ele>1405.6</ele>
        <time>2019-07-05T09:21:17Z</time>
      </trkpt>
      <trkpt lat="40.3062780" lon="-1.3543820">
        <ele>1406.6</ele>
        <time>2019-07-05T09:21:22Z</time>
      </trkpt>
      <trkpt lat="40.3062580" lon="-1.3543750">
        <ele>1406.8</ele>
        <time>2019-07-05T09:21:23Z</time>
      </trkpt>
      <trkpt lat="40.3061210" lon="-1.3543880">
        <ele>1407.6</ele>
        <time>2019-07-05T09:21:29Z</time>
      </trkpt>
      <trkpt lat="40.3060430" lon="-1.3544060">
        <ele>1408.6</ele>
        <time>2019-07-05T09:21:33Z</time>
      </trkpt>
      <trkpt lat="40.3060200" lon="-1.3544110">
        <ele>1408.8</ele>
        <time>2019-07-05T09:21:34Z</time>
      </trkpt>
      <trkpt lat="40.3059090" lon="-1.3544300">
        <ele>1409.8</ele>
        <time>2019-07-05T09:21:39Z</time>
      </trkpt>
      <trkpt lat="40.3058630" lon="-1.3544370">
        <ele>1410.8</ele>
        <time>2019-07-05T09:21:41Z</time>
      </trkpt>
      <trkpt lat="40.3058400" lon="-1.3544410">
        <ele>1411.2</ele>
        <time>2019-07-05T09:21:42Z</time>
      </trkpt>
      <trkpt lat="40.3057470" lon="-1.3544620">
        <ele>1412.0</ele>
        <time>2019-07-05T09:21:46Z</time>
      </trkpt>
      <trkpt lat="40.3056780" lon="-1.3544830">
        <ele>1412.2</ele>
        <time>2019-07-05T09:21:49Z</time>
      </trkpt>
      <trkpt lat="40.3055860" lon="-1.3545180">
        <ele>1412.8</ele>
        <time>2019-07-05T09:21:53Z</time>
      </trkpt>
      <trkpt lat="40.3055220" lon="-1.3545520">
        <ele>1413.8</ele>
        <time>2019-07-05T09:21:56Z</time>
      </trkpt>
      <trkpt lat="40.3055020" lon="-1.3545620">
        <ele>1414.0</ele>
        <time>2019-07-05T09:21:57Z</time>
      </trkpt>
      <trkpt lat="40.3053960" lon="-1.3546240">
        <ele>1415.2</ele>
        <time>2019-07-05T09:22:02Z</time>
      </trkpt>
      <trkpt lat="40.3053530" lon="-1.3546510">
        <ele>1415.4</ele>
        <time>2019-07-05T09:22:04Z</time>
      </trkpt>
      <trkpt lat="40.3052600" lon="-1.3547090">
        <ele>1416.2</ele>
        <time>2019-07-05T09:22:08Z</time>
      </trkpt>
      <trkpt lat="40.3052160" lon="-1.3547420">
        <ele>1416.6</ele>
        <time>2019-07-05T09:22:10Z</time>
      </trkpt>
      <trkpt lat="40.3051540" lon="-1.3547850">
        <ele>1417.2</ele>
        <time>2019-07-05T09:22:13Z</time>
      </trkpt>
      <trkpt lat="40.3050970" lon="-1.3548330">
        <ele>1417.8</ele>
        <time>2019-07-05T09:22:16Z</time>
      </trkpt>
      <trkpt lat="40.3050410" lon="-1.3548840">
        <ele>1418.2</ele>
        <time>2019-07-05T09:22:19Z</time>
      </trkpt>
      <trkpt lat="40.3049840" lon="-1.3549330">
        <ele>1418.8</ele>
        <time>2019-07-05T09:22:22Z</time>
      </trkpt>
      <trkpt lat="40.3049450" lon="-1.3549610">
        <ele>1419.2</ele>
        <time>2019-07-05T09:22:24Z</time>
      </trkpt>
      <trkpt lat="40.3048570" lon="-1.3550190">
        <ele>1420.0</ele>
        <time>2019-07-05T09:22:28Z</time>
      </trkpt>
      <trkpt lat="40.3048110" lon="-1.3550550">
        <ele>1421.0</ele>
        <time>2019-07-05T09:22:30Z</time>
      </trkpt>
      <trkpt lat="40.3047880" lon="-1.3550720">
        <ele>1421.2</ele>
        <time>2019-07-05T09:22:31Z</time>
      </trkpt>
      <trkpt lat="40.3046470" lon="-1.3551340">
        <ele>1421.8</ele>
        <time>2019-07-05T09:22:37Z</time>
      </trkpt>
      <trkpt lat="40.3046210" lon="-1.3551420">
        <ele>1422.6</ele>
        <time>2019-07-05T09:22:38Z</time>
      </trkpt>
      <trkpt lat="40.3045400" lon="-1.3551790">
        <ele>1423.6</ele>
        <time>2019-07-05T09:22:41Z</time>
      </trkpt>
      <trkpt lat="40.3044610" lon="-1.3552090">
        <ele>1424.4</ele>
        <time>2019-07-05T09:22:44Z</time>
      </trkpt>
      <trkpt lat="40.3044330" lon="-1.3552200">
        <ele>1424.6</ele>
        <time>2019-07-05T09:22:45Z</time>
      </trkpt>
      <trkpt lat="40.3042960" lon="-1.3552650">
        <ele>1425.0</ele>
        <time>2019-07-05T09:22:50Z</time>
      </trkpt>
      <trkpt lat="40.3042240" lon="-1.3552820">
        <ele>1425.6</ele>
        <time>2019-07-05T09:22:53Z</time>
      </trkpt>
      <trkpt lat="40.3041540" lon="-1.3552940">
        <ele>1426.2</ele>
        <time>2019-07-05T09:22:56Z</time>
      </trkpt>
      <trkpt lat="40.3041280" lon="-1.3552990">
        <ele>1426.4</ele>
        <time>2019-07-05T09:22:57Z</time>
      </trkpt>
      <trkpt lat="40.3040150" lon="-1.3553130">
        <ele>1427.2</ele>
        <time>2019-07-05T09:23:01Z</time>
      </trkpt>
      <trkpt lat="40.3039690" lon="-1.3553120">
        <ele>1427.6</ele>
        <time>2019-07-05T09:23:03Z</time>
      </trkpt>
      <trkpt lat="40.3038830" lon="-1.3553020">
        <ele>1428.6</ele>
        <time>2019-07-05T09:23:06Z</time>
      </trkpt>
      <trkpt lat="40.3038560" lon="-1.3553010">
        <ele>1428.8</ele>
        <time>2019-07-05T09:23:07Z</time>
      </trkpt>
      <trkpt lat="40.3036790" lon="-1.3552710">
        <ele>1429.6</ele>
        <time>2019-07-05T09:23:13Z</time>
      </trkpt>
      <trkpt lat="40.3036490" lon="-1.3552620">
        <ele>1429.8</ele>
        <time>2019-07-05T09:23:14Z</time>
      </trkpt>
      <trkpt lat="40.3034960" lon="-1.3552330">
        <ele>1430.6</ele>
        <time>2019-07-05T09:23:19Z</time>
      </trkpt>
      <trkpt lat="40.3034640" lon="-1.3552260">
        <ele>1430.8</ele>
        <time>2019-07-05T09:23:20Z</time>
      </trkpt>
      <trkpt lat="40.3033730" lon="-1.3552040">
        <ele>1431.6</ele>
        <time>2019-07-05T09:23:23Z</time>
      </trkpt>
      <trkpt lat="40.3032570" lon="-1.3551460">
        <ele>1432.2</ele>
        <time>2019-07-05T09:23:27Z</time>
      </trkpt>
      <trkpt lat="40.3031950" lon="-1.3550680">
        <ele>1432.6</ele>
        <time>2019-07-05T09:23:30Z</time>
      </trkpt>
      <trkpt lat="40.3031710" lon="-1.3550070">
        <ele>1432.8</ele>
        <time>2019-07-05T09:23:32Z</time>
      </trkpt>
      <trkpt lat="40.3031620" lon="-1.3549450">
        <ele>1433.8</ele>
        <time>2019-07-05T09:23:34Z</time>
      </trkpt>
      <trkpt lat="40.3031850" lon="-1.3548670">
        <ele>1435.0</ele>
        <time>2019-07-05T09:23:37Z</time>
      </trkpt>
      <trkpt lat="40.3032010" lon="-1.3548460">
        <ele>1435.0</ele>
        <time>2019-07-05T09:23:38Z</time>
      </trkpt>
      <trkpt lat="40.3032700" lon="-1.3547790">
        <ele>1436.2</ele>
        <time>2019-07-05T09:23:42Z</time>
      </trkpt>
      <trkpt lat="40.3033130" lon="-1.3547480">
        <ele>1437.0</ele>
        <time>2019-07-05T09:23:44Z</time>
      </trkpt>
      <trkpt lat="40.3033550" lon="-1.3547220">
        <ele>1437.4</ele>
        <time>2019-07-05T09:23:46Z</time>
      </trkpt>
      <trkpt lat="40.3034770" lon="-1.3546370">
        <ele>1438.2</ele>
        <time>2019-07-05T09:23:52Z</time>
      </trkpt>
      <trkpt lat="40.3035810" lon="-1.3545150">
        <ele>1439.4</ele>
        <time>2019-07-05T09:23:58Z</time>
      </trkpt>
      <trkpt lat="40.3036140" lon="-1.3544620">
        <ele>1439.8</ele>
        <time>2019-07-05T09:24:00Z</time>
      </trkpt>
      <trkpt lat="40.3036870" lon="-1.3543110">
        <ele>1440.6</ele>
        <time>2019-07-05T09:24:05Z</time>
      </trkpt>
      <trkpt lat="40.3037110" lon="-1.3542440">
        <ele>1441.2</ele>
        <time>2019-07-05T09:24:07Z</time>
      </trkpt>
      <trkpt lat="40.3037300" lon="-1.3541800">
        <ele>1441.4</ele>
        <time>2019-07-05T09:24:09Z</time>
      </trkpt>
      <trkpt lat="40.3037640" lon="-1.3540110">
        <ele>1442.4</ele>
        <time>2019-07-05T09:24:14Z</time>
      </trkpt>
      <trkpt lat="40.3037760" lon="-1.3539450">
        <ele>1442.6</ele>
        <time>2019-07-05T09:24:16Z</time>
      </trkpt>
      <trkpt lat="40.3037850" lon="-1.3537940">
        <ele>1443.8</ele>
        <time>2019-07-05T09:24:21Z</time>
      </trkpt>
      <trkpt lat="40.3037730" lon="-1.3536080">
        <ele>1445.0</ele>
        <time>2019-07-05T09:24:27Z</time>
      </trkpt>
      <trkpt lat="40.3037690" lon="-1.3535790">
        <ele>1445.2</ele>
        <time>2019-07-05T09:24:28Z</time>
      </trkpt>
      <trkpt lat="40.3037610" lon="-1.3534920">
        <ele>1446.0</ele>
        <time>2019-07-05T09:24:31Z</time>
      </trkpt>
      <trkpt lat="40.3037520" lon="-1.3534020">
        <ele>1447.4</ele>
        <time>2019-07-05T09:24:34Z</time>
      </trkpt>
      <trkpt lat="40.3037490" lon="-1.3533760">
        <ele>1448.0</ele>
        <time>2019-07-05T09:24:35Z</time>
      </trkpt>
      <trkpt lat="40.3037480" lon="-1.3532960">
        <ele>1448.8</ele>
        <time>2019-07-05T09:24:38Z</time>
      </trkpt>
      <trkpt lat="40.3037410" lon="-1.3532080">
        <ele>1449.4</ele>
        <time>2019-07-05T09:24:41Z</time>
      </trkpt>
      <trkpt lat="40.3037330" lon="-1.3531130">
        <ele>1449.8</ele>
        <time>2019-07-05T09:24:44Z</time>
      </trkpt>
      <trkpt lat="40.3037170" lon="-1.3529840">
        <ele>1450.8</ele>
        <time>2019-07-05T09:24:48Z</time>
      </trkpt>
      <trkpt lat="40.3037130" lon="-1.3529510">
        <ele>1451.2</ele>
        <time>2019-07-05T09:24:49Z</time>
      </trkpt>
      <trkpt lat="40.3036590" lon="-1.3527670">
        <ele>1452.0</ele>
        <time>2019-07-05T09:24:55Z</time>
      </trkpt>
      <trkpt lat="40.3036320" lon="-1.3527100">
        <ele>1452.4</ele>
        <time>2019-07-05T09:24:57Z</time>
      </trkpt>
      <trkpt lat="40.3035710" lon="-1.3526550">
        <ele>1453.2</ele>
        <time>2019-07-05T09:25:00Z</time>
      </trkpt>
      <trkpt lat="40.3035470" lon="-1.3526470">
        <ele>1453.6</ele>
        <time>2019-07-05T09:25:01Z</time>
      </trkpt>
      <trkpt lat="40.3034100" lon="-1.3526430">
        <ele>1454.2</ele>
        <time>2019-07-05T09:25:06Z</time>
      </trkpt>
      <trkpt lat="40.3033200" lon="-1.3526720">
        <ele>1454.4</ele>
        <time>2019-07-05T09:25:09Z</time>
      </trkpt>
      <trkpt lat="40.3032680" lon="-1.3526910">
        <ele>1454.6</ele>
        <time>2019-07-05T09:25:11Z</time>
      </trkpt>
      <trkpt lat="40.3031100" lon="-1.3527480">
        <ele>1455.6</ele>
        <time>2019-07-05T09:25:17Z</time>
      </trkpt>
      <trkpt lat="40.3029670" lon="-1.3528030">
        <ele>1456.6</ele>
        <time>2019-07-05T09:25:23Z</time>
      </trkpt>
      <trkpt lat="40.3029460" lon="-1.3528180">
        <ele>1456.8</ele>
        <time>2019-07-05T09:25:24Z</time>
      </trkpt>
      <trkpt lat="40.3028750" lon="-1.3528500">
        <ele>1457.8</ele>
        <time>2019-07-05T09:25:27Z</time>
      </trkpt>
      <trkpt lat="40.3028310" lon="-1.3528690">
        <ele>1458.4</ele>
        <time>2019-07-05T09:25:29Z</time>
      </trkpt>
      <trkpt lat="40.3028110" lon="-1.3528800">
        <ele>1458.8</ele>
        <time>2019-07-05T09:25:30Z</time>
      </trkpt>
      <trkpt lat="40.3027030" lon="-1.3529140">
        <ele>1459.6</ele>
        <time>2019-07-05T09:25:35Z</time>
      </trkpt>
      <trkpt lat="40.3025900" lon="-1.3529570">
        <ele>1460.8</ele>
        <time>2019-07-05T09:25:40Z</time>
      </trkpt>
      <trkpt lat="40.3024970" lon="-1.3529790">
        <ele>1462.0</ele>
        <time>2019-07-05T09:25:44Z</time>
      </trkpt>
      <trkpt lat="40.3024360" lon="-1.3529850">
        <ele>1462.4</ele>
        <time>2019-07-05T09:25:46Z</time>
      </trkpt>
      <trkpt lat="40.3023710" lon="-1.3529890">
        <ele>1462.8</ele>
        <time>2019-07-05T09:25:48Z</time>
      </trkpt>
      <trkpt lat="40.3021960" lon="-1.3529890">
        <ele>1463.8</ele>
        <time>2019-07-05T09:25:53Z</time>
      </trkpt>
      <trkpt lat="40.3021610" lon="-1.3529850">
        <ele>1463.8</ele>
        <time>2019-07-05T09:25:54Z</time>
      </trkpt>
      <trkpt lat="40.3020030" lon="-1.3529450">
        <ele>1464.8</ele>
        <time>2019-07-05T09:25:59Z</time>
      </trkpt>
      <trkpt lat="40.3018330" lon="-1.3528930">
        <ele>1465.6</ele>
        <time>2019-07-05T09:26:05Z</time>
      </trkpt>
      <trkpt lat="40.3017300" lon="-1.3528570">
        <ele>1465.8</ele>
        <time>2019-07-05T09:26:09Z</time>
      </trkpt>
      <trkpt lat="40.3016620" lon="-1.3528310">
        <ele>1466.6</ele>
        <time>2019-07-05T09:26:12Z</time>
      </trkpt>
      <trkpt lat="40.3016400" lon="-1.3528200">
        <ele>1467.0</ele>
        <time>2019-07-05T09:26:13Z</time>
      </trkpt>
      <trkpt lat="40.3015600" lon="-1.3527830">
        <ele>1467.2</ele>
        <time>2019-07-05T09:26:17Z</time>
      </trkpt>
      <trkpt lat="40.3014940" lon="-1.3527620">
        <ele>1468.0</ele>
        <time>2019-07-05T09:26:20Z</time>
      </trkpt>
      <trkpt lat="40.3014500" lon="-1.3527400">
        <ele>1468.2</ele>
        <time>2019-07-05T09:26:22Z</time>
      </trkpt>
      <trkpt lat="40.3013170" lon="-1.3526530">
        <ele>1468.8</ele>
        <time>2019-07-05T09:26:27Z</time>
      </trkpt>
      <trkpt lat="40.3012940" lon="-1.3526350">
        <ele>1469.0</ele>
        <time>2019-07-05T09:26:28Z</time>
      </trkpt>
      <trkpt lat="40.3012370" lon="-1.3525600">
        <ele>1469.6</ele>
        <time>2019-07-05T09:26:32Z</time>
      </trkpt>
      <trkpt lat="40.3012040" lon="-1.3524980">
        <ele>1470.0</ele>
        <time>2019-07-05T09:26:35Z</time>
      </trkpt>
      <trkpt lat="40.3011640" lon="-1.3524270">
        <ele>1471.0</ele>
        <time>2019-07-05T09:26:39Z</time>
      </trkpt>
      <trkpt lat="40.3011570" lon="-1.3524140">
        <ele>1471.2</ele>
        <time>2019-07-05T09:26:40Z</time>
      </trkpt>
      <trkpt lat="40.3011530" lon="-1.3524070">
        <ele>1471.6</ele>
        <time>2019-07-05T09:26:42Z</time>
      </trkpt>
      <trkpt lat="40.3011450" lon="-1.3524490">
        <ele>1470.8</ele>
        <time>2019-07-05T09:40:41Z</time>
      </trkpt>
      <trkpt lat="40.3011500" lon="-1.3524670">
        <ele>1470.8</ele>
        <time>2019-07-05T09:40:42Z</time>
      </trkpt>
      <trkpt lat="40.3011730" lon="-1.3525100">
        <ele>1470.8</ele>
        <time>2019-07-05T09:40:45Z</time>
      </trkpt>
      <trkpt lat="40.3011900" lon="-1.3525310">
        <ele>1470.8</ele>
        <time>2019-07-05T09:40:46Z</time>
      </trkpt>
      <trkpt lat="40.3012630" lon="-1.3526080">
        <ele>1470.4</ele>
        <time>2019-07-05T09:40:49Z</time>
      </trkpt>
      <trkpt lat="40.3012980" lon="-1.3526340">
        <ele>1470.2</ele>
        <time>2019-07-05T09:40:50Z</time>
      </trkpt>
      <trkpt lat="40.3013370" lon="-1.3526600">
        <ele>1469.8</ele>
        <time>2019-07-05T09:40:51Z</time>
      </trkpt>
      <trkpt lat="40.3014280" lon="-1.3527090">
        <ele>1468.6</ele>
        <time>2019-07-05T09:40:53Z</time>
      </trkpt>
      <trkpt lat="40.3014680" lon="-1.3527300">
        <ele>1468.4</ele>
        <time>2019-07-05T09:40:54Z</time>
      </trkpt>
      <trkpt lat="40.3015120" lon="-1.3527560">
        <ele>1468.2</ele>
        <time>2019-07-05T09:40:55Z</time>
      </trkpt>
      <trkpt lat="40.3016620" lon="-1.3528400">
        <ele>1467.8</ele>
        <time>2019-07-05T09:40:58Z</time>
      </trkpt>
      <trkpt lat="40.3017700" lon="-1.3528800">
        <ele>1467.0</ele>
        <time>2019-07-05T09:41:00Z</time>
      </trkpt>
      <trkpt lat="40.3019490" lon="-1.3529470">
        <ele>1466.2</ele>
        <time>2019-07-05T09:41:03Z</time>
      </trkpt>
      <trkpt lat="40.3020100" lon="-1.3529690">
        <ele>1465.6</ele>
        <time>2019-07-05T09:41:04Z</time>
      </trkpt>
      <trkpt lat="40.3020740" lon="-1.3529880">
        <ele>1465.4</ele>
        <time>2019-07-05T09:41:05Z</time>
      </trkpt>
      <trkpt lat="40.3021420" lon="-1.3530020">
        <ele>1465.2</ele>
        <time>2019-07-05T09:41:06Z</time>
      </trkpt>
      <trkpt lat="40.3022760" lon="-1.3530190">
        <ele>1464.8</ele>
        <time>2019-07-05T09:41:08Z</time>
      </trkpt>
      <trkpt lat="40.3023370" lon="-1.3530140">
        <ele>1464.4</ele>
        <time>2019-07-05T09:41:09Z</time>
      </trkpt>
      <trkpt lat="40.3024630" lon="-1.3529810">
        <ele>1464.0</ele>
        <time>2019-07-05T09:41:11Z</time>
      </trkpt>
      <trkpt lat="40.3025850" lon="-1.3529370">
        <ele>1463.4</ele>
        <time>2019-07-05T09:41:13Z</time>
      </trkpt>
      <trkpt lat="40.3026420" lon="-1.3529190">
        <ele>1462.4</ele>
        <time>2019-07-05T09:41:14Z</time>
      </trkpt>
      <trkpt lat="40.3028220" lon="-1.3528590">
        <ele>1461.0</ele>
        <time>2019-07-05T09:41:17Z</time>
      </trkpt>
      <trkpt lat="40.3029710" lon="-1.3527940">
        <ele>1459.6</ele>
        <time>2019-07-05T09:41:19Z</time>
      </trkpt>
      <trkpt lat="40.3031370" lon="-1.3527200">
        <ele>1457.8</ele>
        <time>2019-07-05T09:41:21Z</time>
      </trkpt>
      <trkpt lat="40.3032860" lon="-1.3526600">
        <ele>1456.6</ele>
        <time>2019-07-05T09:41:23Z</time>
      </trkpt>
      <trkpt lat="40.3034210" lon="-1.3526180">
        <ele>1455.6</ele>
        <time>2019-07-05T09:41:25Z</time>
      </trkpt>
      <trkpt lat="40.3034760" lon="-1.3526080">
        <ele>1455.2</ele>
        <time>2019-07-05T09:41:26Z</time>
      </trkpt>
      <trkpt lat="40.3035280" lon="-1.3526110">
        <ele>1455.2</ele>
        <time>2019-07-05T09:41:27Z</time>
      </trkpt>
      <trkpt lat="40.3035770" lon="-1.3526310">
        <ele>1455.0</ele>
        <time>2019-07-05T09:41:28Z</time>
      </trkpt>
      <trkpt lat="40.3036620" lon="-1.3527340">
        <ele>1454.2</ele>
        <time>2019-07-05T09:41:30Z</time>
      </trkpt>
      <trkpt lat="40.3036850" lon="-1.3528110">
        <ele>1453.8</ele>
        <time>2019-07-05T09:41:31Z</time>
      </trkpt>
      <trkpt lat="40.3037180" lon="-1.3529840">
        <ele>1453.2</ele>
        <time>2019-07-05T09:41:33Z</time>
      </trkpt>
      <trkpt lat="40.3037460" lon="-1.3532310">
        <ele>1451.4</ele>
        <time>2019-07-05T09:41:36Z</time>
      </trkpt>
      <trkpt lat="40.3037550" lon="-1.3533070">
        <ele>1450.4</ele>
        <time>2019-07-05T09:41:37Z</time>
      </trkpt>
      <trkpt lat="40.3037730" lon="-1.3534740">
        <ele>1449.2</ele>
        <time>2019-07-05T09:41:39Z</time>
      </trkpt>
      <trkpt lat="40.3037830" lon="-1.3536260">
        <ele>1448.4</ele>
        <time>2019-07-05T09:41:41Z</time>
      </trkpt>
      <trkpt lat="40.3037860" lon="-1.3537000">
        <ele>1446.6</ele>
        <time>2019-07-05T09:41:42Z</time>
      </trkpt>
      <trkpt lat="40.3037810" lon="-1.3537780">
        <ele>1446.0</ele>
        <time>2019-07-05T09:41:43Z</time>
      </trkpt>
      <trkpt lat="40.3037580" lon="-1.3539490">
        <ele>1445.2</ele>
        <time>2019-07-05T09:41:45Z</time>
      </trkpt>
      <trkpt lat="40.3037130" lon="-1.3541370">
        <ele>1444.6</ele>
        <time>2019-07-05T09:41:47Z</time>
      </trkpt>
      <trkpt lat="40.3036850" lon="-1.3542300">
        <ele>1444.0</ele>
        <time>2019-07-05T09:41:48Z</time>
      </trkpt>
      <trkpt lat="40.3036540" lon="-1.3543150">
        <ele>1443.6</ele>
        <time>2019-07-05T09:41:49Z</time>
      </trkpt>
      <trkpt lat="40.3036200" lon="-1.3543930">
        <ele>1443.0</ele>
        <time>2019-07-05T09:41:50Z</time>
      </trkpt>
      <trkpt lat="40.3034940" lon="-1.3545730">
        <ele>1441.6</ele>
        <time>2019-07-05T09:41:53Z</time>
      </trkpt>
      <trkpt lat="40.3033940" lon="-1.3546650">
        <ele>1440.4</ele>
        <time>2019-07-05T09:41:55Z</time>
      </trkpt>
      <trkpt lat="40.3033360" lon="-1.3547040">
        <ele>1440.0</ele>
        <time>2019-07-05T09:41:56Z</time>
      </trkpt>
      <trkpt lat="40.3032780" lon="-1.3547430">
        <ele>1439.4</ele>
        <time>2019-07-05T09:41:57Z</time>
      </trkpt>
      <trkpt lat="40.3032280" lon="-1.3547790">
        <ele>1438.6</ele>
        <time>2019-07-05T09:41:58Z</time>
      </trkpt>
      <trkpt lat="40.3031560" lon="-1.3548720">
        <ele>1437.8</ele>
        <time>2019-07-05T09:42:00Z</time>
      </trkpt>
      <trkpt lat="40.3031380" lon="-1.3549270">
        <ele>1437.2</ele>
        <time>2019-07-05T09:42:01Z</time>
      </trkpt>
      <trkpt lat="40.3031580" lon="-1.3550580">
        <ele>1436.2</ele>
        <time>2019-07-05T09:42:03Z</time>
      </trkpt>
      <trkpt lat="40.3032330" lon="-1.3551660">
        <ele>1434.6</ele>
        <time>2019-07-05T09:42:05Z</time>
      </trkpt>
      <trkpt lat="40.3032820" lon="-1.3552020">
        <ele>1433.4</ele>
        <time>2019-07-05T09:42:06Z</time>
      </trkpt>
      <trkpt lat="40.3034610" lon="-1.3552630">
        <ele>1432.4</ele>
        <time>2019-07-05T09:42:09Z</time>
      </trkpt>
      <trkpt lat="40.3035270" lon="-1.3552790">
        <ele>1432.4</ele>
        <time>2019-07-05T09:42:10Z</time>
      </trkpt>
      <trkpt lat="40.3036690" lon="-1.3553040">
        <ele>1432.0</ele>
        <time>2019-07-05T09:42:12Z</time>
      </trkpt>
      <trkpt lat="40.3038020" lon="-1.3553240">
        <ele>1430.4</ele>
        <time>2019-07-05T09:42:14Z</time>
      </trkpt>
      <trkpt lat="40.3039330" lon="-1.3553370">
        <ele>1429.2</ele>
        <time>2019-07-05T09:42:16Z</time>
      </trkpt>
      <trkpt lat="40.3040800" lon="-1.3553230">
        <ele>1428.6</ele>
        <time>2019-07-05T09:42:18Z</time>
      </trkpt>
      <trkpt lat="40.3042410" lon="-1.3552960">
        <ele>1427.8</ele>
        <time>2019-07-05T09:42:20Z</time>
      </trkpt>
      <trkpt lat="40.3043200" lon="-1.3552770">
        <ele>1427.2</ele>
        <time>2019-07-05T09:42:21Z</time>
      </trkpt>
      <trkpt lat="40.3043940" lon="-1.3552570">
        <ele>1426.2</ele>
        <time>2019-07-05T09:42:22Z</time>
      </trkpt>
      <trkpt lat="40.3045880" lon="-1.3551880">
        <ele>1424.8</ele>
        <time>2019-07-05T09:42:25Z</time>
      </trkpt>
      <trkpt lat="40.3046420" lon="-1.3551650">
        <ele>1424.4</ele>
        <time>2019-07-05T09:42:26Z</time>
      </trkpt>
      <trkpt lat="40.3047390" lon="-1.3551040">
        <ele>1424.0</ele>
        <time>2019-07-05T09:42:28Z</time>
      </trkpt>
      <trkpt lat="40.3047800" lon="-1.3550730">
        <ele>1423.2</ele>
        <time>2019-07-05T09:42:29Z</time>
      </trkpt>
      <trkpt lat="40.3048590" lon="-1.3550190">
        <ele>1421.8</ele>
        <time>2019-07-05T09:42:31Z</time>
      </trkpt>
      <trkpt lat="40.3049010" lon="-1.3549870">
        <ele>1421.6</ele>
        <time>2019-07-05T09:42:32Z</time>
      </trkpt>
      <trkpt lat="40.3049820" lon="-1.3549230">
        <ele>1420.8</ele>
        <time>2019-07-05T09:42:34Z</time>
      </trkpt>
      <trkpt lat="40.3050230" lon="-1.3548940">
        <ele>1420.2</ele>
        <time>2019-07-05T09:42:35Z</time>
      </trkpt>
      <trkpt lat="40.3050920" lon="-1.3548400">
        <ele>1419.4</ele>
        <time>2019-07-05T09:42:37Z</time>
      </trkpt>
      <trkpt lat="40.3051360" lon="-1.3548090">
        <ele>1418.4</ele>
        <time>2019-07-05T09:42:39Z</time>
      </trkpt>
      <trkpt lat="40.3051730" lon="-1.3548770">
        <ele>1417.6</ele>
        <time>2019-07-05T09:42:43Z</time>
      </trkpt>
      <trkpt lat="40.3051590" lon="-1.3548990">
        <ele>1417.4</ele>
        <time>2019-07-05T09:42:44Z</time>
      </trkpt>
      <trkpt lat="40.3051410" lon="-1.3549220">
        <ele>1417.2</ele>
        <time>2019-07-05T09:42:45Z</time>
      </trkpt>
      <trkpt lat="40.3051230" lon="-1.3549490">
        <ele>1417.2</ele>
        <time>2019-07-05T09:42:46Z</time>
      </trkpt>
      <trkpt lat="40.3050910" lon="-1.3550090">
        <ele>1417.0</ele>
        <time>2019-07-05T09:42:48Z</time>
      </trkpt>
      <trkpt lat="40.3050540" lon="-1.3550700">
        <ele>1417.0</ele>
        <time>2019-07-05T09:42:50Z</time>
      </trkpt>
      <trkpt lat="40.3049870" lon="-1.3551980">
        <ele>1417.0</ele>
        <time>2019-07-05T09:42:53Z</time>
      </trkpt>
      <trkpt lat="40.3049000" lon="-1.3553150">
        <ele>1417.0</ele>
        <time>2019-07-05T09:42:56Z</time>
      </trkpt>
      <trkpt lat="40.3048600" lon="-1.3553540">
        <ele>1417.0</ele>
        <time>2019-07-05T09:42:57Z</time>
      </trkpt>
      <trkpt lat="40.3048220" lon="-1.3554010">
        <ele>1416.8</ele>
        <time>2019-07-05T09:42:58Z</time>
      </trkpt>
      <trkpt lat="40.3047060" lon="-1.3555810">
        <ele>1416.0</ele>
        <time>2019-07-05T09:43:01Z</time>
      </trkpt>
      <trkpt lat="40.3044860" lon="-1.3559260">
        <ele>1415.0</ele>
        <time>2019-07-05T09:43:07Z</time>
      </trkpt>
      <trkpt lat="40.3044500" lon="-1.3559830">
        <ele>1415.0</ele>
        <time>2019-07-05T09:43:08Z</time>
      </trkpt>
      <trkpt lat="40.3043740" lon="-1.3560990">
        <ele>1414.8</ele>
        <time>2019-07-05T09:43:10Z</time>
      </trkpt>
      <trkpt lat="40.3042960" lon="-1.3562010">
        <ele>1414.2</ele>
        <time>2019-07-05T09:43:12Z</time>
      </trkpt>
      <trkpt lat="40.3042060" lon="-1.3562620">
        <ele>1413.8</ele>
        <time>2019-07-05T09:43:14Z</time>
      </trkpt>
      <trkpt lat="40.3041640" lon="-1.3562800">
        <ele>1413.6</ele>
        <time>2019-07-05T09:43:15Z</time>
      </trkpt>
      <trkpt lat="40.3041230" lon="-1.3562970">
        <ele>1413.6</ele>
        <time>2019-07-05T09:43:16Z</time>
      </trkpt>
      <trkpt lat="40.3039600" lon="-1.3563990">
        <ele>1413.2</ele>
        <time>2019-07-05T09:43:20Z</time>
      </trkpt>
      <trkpt lat="40.3037730" lon="-1.3565580">
        <ele>1412.4</ele>
        <time>2019-07-05T09:43:24Z</time>
      </trkpt>
      <trkpt lat="40.3037310" lon="-1.3565900">
        <ele>1412.2</ele>
        <time>2019-07-05T09:43:25Z</time>
      </trkpt>
      <trkpt lat="40.3035000" lon="-1.3567590">
        <ele>1411.4</ele>
        <time>2019-07-05T09:43:30Z</time>
      </trkpt>
      <trkpt lat="40.3034450" lon="-1.3567790">
        <ele>1410.6</ele>
        <time>2019-07-05T09:43:31Z</time>
      </trkpt>
      <trkpt lat="40.3033250" lon="-1.3568000">
        <ele>1409.4</ele>
        <time>2019-07-05T09:43:33Z</time>
      </trkpt>
      <trkpt lat="40.3032700" lon="-1.3568080">
        <ele>1409.0</ele>
        <time>2019-07-05T09:43:34Z</time>
      </trkpt>
      <trkpt lat="40.3031660" lon="-1.3568180">
        <ele>1408.2</ele>
        <time>2019-07-05T09:43:36Z</time>
      </trkpt>
      <trkpt lat="40.3030390" lon="-1.3567840">
        <ele>1407.2</ele>
        <time>2019-07-05T09:43:39Z</time>
      </trkpt>
      <trkpt lat="40.3029580" lon="-1.3567670">
        <ele>1406.0</ele>
        <time>2019-07-05T09:43:41Z</time>
      </trkpt>
      <trkpt lat="40.3028780" lon="-1.3567710">
        <ele>1405.0</ele>
        <time>2019-07-05T09:43:43Z</time>
      </trkpt>
      <trkpt lat="40.3028340" lon="-1.3567800">
        <ele>1404.6</ele>
        <time>2019-07-05T09:43:44Z</time>
      </trkpt>
      <trkpt lat="40.3027510" lon="-1.3568140">
        <ele>1404.0</ele>
        <time>2019-07-05T09:43:46Z</time>
      </trkpt>
      <trkpt lat="40.3026650" lon="-1.3568800">
        <ele>1403.0</ele>
        <time>2019-07-05T09:43:48Z</time>
      </trkpt>
      <trkpt lat="40.3026090" lon="-1.3569820">
        <ele>1401.2</ele>
        <time>2019-07-05T09:43:51Z</time>
      </trkpt>
      <trkpt lat="40.3025620" lon="-1.3571070">
        <ele>1400.4</ele>
        <time>2019-07-05T09:43:55Z</time>
      </trkpt>
      <trkpt lat="40.3025620" lon="-1.3571410">
        <ele>1400.2</ele>
        <time>2019-07-05T09:43:56Z</time>
      </trkpt>
      <trkpt lat="40.3025610" lon="-1.3572730">
        <ele>1399.8</ele>
        <time>2019-07-05T09:43:59Z</time>
      </trkpt>
      <trkpt lat="40.3025560" lon="-1.3573330">
        <ele>1399.4</ele>
        <time>2019-07-05T09:44:00Z</time>
      </trkpt>
      <trkpt lat="40.3025550" lon="-1.3573970">
        <ele>1399.0</ele>
        <time>2019-07-05T09:44:01Z</time>
      </trkpt>
      <trkpt lat="40.3025500" lon="-1.3575950">
        <ele>1397.6</ele>
        <time>2019-07-05T09:44:04Z</time>
      </trkpt>
      <trkpt lat="40.3025510" lon="-1.3576480">
        <ele>1397.2</ele>
        <time>2019-07-05T09:44:05Z</time>
      </trkpt>
      <trkpt lat="40.3025560" lon="-1.3577050">
        <ele>1396.4</ele>
        <time>2019-07-05T09:44:06Z</time>
      </trkpt>
      <trkpt lat="40.3025690" lon="-1.3578300">
        <ele>1395.2</ele>
        <time>2019-07-05T09:44:08Z</time>
      </trkpt>
      <trkpt lat="40.3025680" lon="-1.3578840">
        <ele>1395.0</ele>
        <time>2019-07-05T09:44:09Z</time>
      </trkpt>
      <trkpt lat="40.3025390" lon="-1.3581800">
        <ele>1394.2</ele>
        <time>2019-07-05T09:44:14Z</time>
      </trkpt>
      <trkpt lat="40.3025180" lon="-1.3585330">
        <ele>1392.4</ele>
        <time>2019-07-05T09:44:19Z</time>
      </trkpt>
      <trkpt lat="40.3025130" lon="-1.3585890">
        <ele>1391.4</ele>
        <time>2019-07-05T09:44:20Z</time>
      </trkpt>
      <trkpt lat="40.3025100" lon="-1.3586390">
        <ele>1391.0</ele>
        <time>2019-07-05T09:44:21Z</time>
      </trkpt>
      <trkpt lat="40.3025420" lon="-1.3588330">
        <ele>1390.0</ele>
        <time>2019-07-05T09:44:25Z</time>
      </trkpt>
      <trkpt lat="40.3025540" lon="-1.3588720">
        <ele>1389.8</ele>
        <time>2019-07-05T09:44:26Z</time>
      </trkpt>
      <trkpt lat="40.3025810" lon="-1.3589410">
        <ele>1388.6</ele>
        <time>2019-07-05T09:44:29Z</time>
      </trkpt>
      <trkpt lat="40.3025900" lon="-1.3589540">
        <ele>1388.4</ele>
        <time>2019-07-05T09:44:30Z</time>
      </trkpt>
      <trkpt lat="40.3026250" lon="-1.3590160">
        <ele>1388.2</ele>
        <time>2019-07-05T09:44:33Z</time>
      </trkpt>
      <trkpt lat="40.3026610" lon="-1.3590670">
        <ele>1387.8</ele>
        <time>2019-07-05T09:44:35Z</time>
      </trkpt>
      <trkpt lat="40.3026840" lon="-1.3590940">
        <ele>1387.6</ele>
        <time>2019-07-05T09:44:36Z</time>
      </trkpt>
      <trkpt lat="40.3027330" lon="-1.3591600">
        <ele>1387.2</ele>
        <time>2019-07-05T09:44:38Z</time>
      </trkpt>
      <trkpt lat="40.3027840" lon="-1.3592410">
        <ele>1387.0</ele>
        <time>2019-07-05T09:44:40Z</time>
      </trkpt>
      <trkpt lat="40.3028970" lon="-1.3594160">
        <ele>1386.6</ele>
        <time>2019-07-05T09:44:44Z</time>
      </trkpt>
      <trkpt lat="40.3029290" lon="-1.3594590">
        <ele>1386.4</ele>
        <time>2019-07-05T09:44:45Z</time>
      </trkpt>
      <trkpt lat="40.3030310" lon="-1.3595930">
        <ele>1385.8</ele>
        <time>2019-07-05T09:44:48Z</time>
      </trkpt>
      <trkpt lat="40.3031100" lon="-1.3596590">
        <ele>1385.6</ele>
        <time>2019-07-05T09:44:50Z</time>
      </trkpt>
      <trkpt lat="40.3031480" lon="-1.3596820">
        <ele>1385.4</ele>
        <time>2019-07-05T09:44:51Z</time>
      </trkpt>
      <trkpt lat="40.3032170" lon="-1.3597280">
        <ele>1385.0</ele>
        <time>2019-07-05T09:44:53Z</time>
      </trkpt>
      <trkpt lat="40.3032480" lon="-1.3597520">
        <ele>1384.8</ele>
        <time>2019-07-05T09:44:54Z</time>
      </trkpt>
      <trkpt lat="40.3033230" lon="-1.3598110">
        <ele>1384.4</ele>
        <time>2019-07-05T09:44:58Z</time>
      </trkpt>
      <trkpt lat="40.3033530" lon="-1.3598330">
        <ele>1384.2</ele>
        <time>2019-07-05T09:45:01Z</time>
      </trkpt>
      <trkpt lat="40.3033830" lon="-1.3598610">
        <ele>1384.0</ele>
        <time>2019-07-05T09:45:03Z</time>
      </trkpt>
      <trkpt lat="40.3034380" lon="-1.3599020">
        <ele>1383.6</ele>
        <time>2019-07-05T09:45:09Z</time>
      </trkpt>
      <trkpt lat="40.3034460" lon="-1.3599070">
        <ele>1384.0</ele>
        <time>2019-07-05T09:45:10Z</time>
      </trkpt>
      <trkpt lat="40.3035050" lon="-1.3599310">
        <ele>1383.6</ele>
        <time>2019-07-05T09:45:16Z</time>
      </trkpt>
      <trkpt lat="40.3035140" lon="-1.3599340">
        <ele>1383.6</ele>
        <time>2019-07-05T09:45:17Z</time>
      </trkpt>
      <trkpt lat="40.3035580" lon="-1.3599440">
        <ele>1383.4</ele>
        <time>2019-07-05T09:45:21Z</time>
      </trkpt>
      <trkpt lat="40.3035980" lon="-1.3599550">
        <ele>1383.4</ele>
        <time>2019-07-05T09:45:24Z</time>
      </trkpt>
      <trkpt lat="40.3037220" lon="-1.3600090">
        <ele>1383.2</ele>
        <time>2019-07-05T09:45:29Z</time>
      </trkpt>
      <trkpt lat="40.3038520" lon="-1.3600550">
        <ele>1382.8</ele>
        <time>2019-07-05T09:45:32Z</time>
      </trkpt>
      <trkpt lat="40.3038950" lon="-1.3600740">
        <ele>1382.2</ele>
        <time>2019-07-05T09:45:33Z</time>
      </trkpt>
      <trkpt lat="40.3040100" lon="-1.3601270">
        <ele>1381.2</ele>
        <time>2019-07-05T09:45:36Z</time>
      </trkpt>
      <trkpt lat="40.3040880" lon="-1.3601590">
        <ele>1380.4</ele>
        <time>2019-07-05T09:45:38Z</time>
      </trkpt>
      <trkpt lat="40.3041230" lon="-1.3601730">
        <ele>1380.2</ele>
        <time>2019-07-05T09:45:39Z</time>
      </trkpt>
      <trkpt lat="40.3042190" lon="-1.3602200">
        <ele>1378.8</ele>
        <time>2019-07-05T09:45:42Z</time>
      </trkpt>
      <trkpt lat="40.3042800" lon="-1.3602820">
        <ele>1377.8</ele>
        <time>2019-07-05T09:45:44Z</time>
      </trkpt>
      <trkpt lat="40.3043410" lon="-1.3603460">
        <ele>1377.2</ele>
        <time>2019-07-05T09:45:46Z</time>
      </trkpt>
      <trkpt lat="40.3044400" lon="-1.3604290">
        <ele>1376.6</ele>
        <time>2019-07-05T09:45:49Z</time>
      </trkpt>
      <trkpt lat="40.3045090" lon="-1.3604980">
        <ele>1376.6</ele>
        <time>2019-07-05T09:45:51Z</time>
      </trkpt>
      <trkpt lat="40.3045970" lon="-1.3606350">
        <ele>1376.6</ele>
        <time>2019-07-05T09:45:54Z</time>
      </trkpt>
      <trkpt lat="40.3046270" lon="-1.3606800">
        <ele>1376.6</ele>
        <time>2019-07-05T09:45:55Z</time>
      </trkpt>
      <trkpt lat="40.3047700" lon="-1.3608650">
        <ele>1376.8</ele>
        <time>2019-07-05T09:46:00Z</time>
      </trkpt>
      <trkpt lat="40.3048800" lon="-1.3609850">
        <ele>1377.2</ele>
        <time>2019-07-05T09:46:04Z</time>
      </trkpt>
      <trkpt lat="40.3049340" lon="-1.3610390">
        <ele>1377.4</ele>
        <time>2019-07-05T09:46:06Z</time>
      </trkpt>
      <trkpt lat="40.3049680" lon="-1.3610680">
        <ele>1377.4</ele>
        <time>2019-07-05T09:46:07Z</time>
      </trkpt>
      <trkpt lat="40.3051390" lon="-1.3612030">
        <ele>1376.8</ele>
        <time>2019-07-05T09:46:11Z</time>
      </trkpt>
      <trkpt lat="40.3051860" lon="-1.3612490">
        <ele>1376.6</ele>
        <time>2019-07-05T09:46:12Z</time>
      </trkpt>
      <trkpt lat="40.3052310" lon="-1.3613000">
        <ele>1376.6</ele>
        <time>2019-07-05T09:46:13Z</time>
      </trkpt>
      <trkpt lat="40.3053160" lon="-1.3614150">
        <ele>1376.2</ele>
        <time>2019-07-05T09:46:15Z</time>
      </trkpt>
      <trkpt lat="40.3053560" lon="-1.3614800">
        <ele>1376.2</ele>
        <time>2019-07-05T09:46:16Z</time>
      </trkpt>
      <trkpt lat="40.3054730" lon="-1.3616750">
        <ele>1375.2</ele>
        <time>2019-07-05T09:46:19Z</time>
      </trkpt>
      <trkpt lat="40.3055130" lon="-1.3617420">
        <ele>1375.0</ele>
        <time>2019-07-05T09:46:20Z</time>
      </trkpt>
      <trkpt lat="40.3055970" lon="-1.3618650">
        <ele>1374.0</ele>
        <time>2019-07-05T09:46:22Z</time>
      </trkpt>
      <trkpt lat="40.3056970" lon="-1.3620350">
        <ele>1373.6</ele>
        <time>2019-07-05T09:46:25Z</time>
      </trkpt>
      <trkpt lat="40.3057420" lon="-1.3621230">
        <ele>1373.0</ele>
        <time>2019-07-05T09:46:27Z</time>
      </trkpt>
      <trkpt lat="40.3057630" lon="-1.3621590">
        <ele>1372.8</ele>
        <time>2019-07-05T09:46:28Z</time>
      </trkpt>
      <trkpt lat="40.3057950" lon="-1.3622260">
        <ele>1372.4</ele>
        <time>2019-07-05T09:46:30Z</time>
      </trkpt>
      <trkpt lat="40.3058160" lon="-1.3623090">
        <ele>1372.2</ele>
        <time>2019-07-05T09:46:32Z</time>
      </trkpt>
      <trkpt lat="40.3057380" lon="-1.3624480">
        <ele>1371.8</ele>
        <time>2019-07-05T09:46:36Z</time>
      </trkpt>
      <trkpt lat="40.3055400" lon="-1.3624630">
        <ele>1370.6</ele>
        <time>2019-07-05T09:46:41Z</time>
      </trkpt>
      <trkpt lat="40.3053890" lon="-1.3625180">
        <ele>1369.6</ele>
        <time>2019-07-05T09:46:45Z</time>
      </trkpt>
      <trkpt lat="40.3053620" lon="-1.3626240">
        <ele>1369.0</ele>
        <time>2019-07-05T09:46:48Z</time>
      </trkpt>
      <trkpt lat="40.3053740" lon="-1.3627050">
        <ele>1368.4</ele>
        <time>2019-07-05T09:46:50Z</time>
      </trkpt>
      <trkpt lat="40.3054100" lon="-1.3627730">
        <ele>1367.2</ele>
        <time>2019-07-05T09:46:52Z</time>
      </trkpt>
      <trkpt lat="40.3054700" lon="-1.3628520">
        <ele>1365.8</ele>
        <time>2019-07-05T09:46:55Z</time>
      </trkpt>
      <trkpt lat="40.3055290" lon="-1.3629060">
        <ele>1365.2</ele>
        <time>2019-07-05T09:46:57Z</time>
      </trkpt>
      <trkpt lat="40.3055820" lon="-1.3629440">
        <ele>1364.6</ele>
        <time>2019-07-05T09:46:59Z</time>
      </trkpt>
      <trkpt lat="40.3056320" lon="-1.3629650">
        <ele>1364.0</ele>
        <time>2019-07-05T09:47:01Z</time>
      </trkpt>
      <trkpt lat="40.3056780" lon="-1.3630100">
        <ele>1363.4</ele>
        <time>2019-07-05T09:47:03Z</time>
      </trkpt>
      <trkpt lat="40.3057450" lon="-1.3630950">
        <ele>1362.8</ele>
        <time>2019-07-05T09:47:06Z</time>
      </trkpt>
      <trkpt lat="40.3057660" lon="-1.3631690">
        <ele>1362.0</ele>
        <time>2019-07-05T09:47:08Z</time>
      </trkpt>
      <trkpt lat="40.3057580" lon="-1.3632180">
        <ele>1361.6</ele>
        <time>2019-07-05T09:47:09Z</time>
      </trkpt>
      <trkpt lat="40.3057170" lon="-1.3633060">
        <ele>1360.8</ele>
        <time>2019-07-05T09:47:11Z</time>
      </trkpt>
      <trkpt lat="40.3056940" lon="-1.3633460">
        <ele>1360.4</ele>
        <time>2019-07-05T09:47:12Z</time>
      </trkpt>
      <trkpt lat="40.3056460" lon="-1.3634140">
        <ele>1359.2</ele>
        <time>2019-07-05T09:47:14Z</time>
      </trkpt>
      <trkpt lat="40.3056240" lon="-1.3634430">
        <ele>1358.0</ele>
        <time>2019-07-05T09:47:15Z</time>
      </trkpt>
      <trkpt lat="40.3055870" lon="-1.3635050">
        <ele>1357.0</ele>
        <time>2019-07-05T09:47:17Z</time>
      </trkpt>
      <trkpt lat="40.3055780" lon="-1.3635460">
        <ele>1356.6</ele>
        <time>2019-07-05T09:47:18Z</time>
      </trkpt>
      <trkpt lat="40.3055820" lon="-1.3635960">
        <ele>1355.8</ele>
        <time>2019-07-05T09:47:19Z</time>
      </trkpt>
      <trkpt lat="40.3056220" lon="-1.3636870">
        <ele>1354.8</ele>
        <time>2019-07-05T09:47:21Z</time>
      </trkpt>
      <trkpt lat="40.3056720" lon="-1.3637550">
        <ele>1354.0</ele>
        <time>2019-07-05T09:47:23Z</time>
      </trkpt>
      <trkpt lat="40.3057020" lon="-1.3637880">
        <ele>1353.6</ele>
        <time>2019-07-05T09:47:24Z</time>
      </trkpt>
      <trkpt lat="40.3057510" lon="-1.3638630">
        <ele>1353.0</ele>
        <time>2019-07-05T09:47:26Z</time>
      </trkpt>
      <trkpt lat="40.3057710" lon="-1.3638950">
        <ele>1352.4</ele>
        <time>2019-07-05T09:47:27Z</time>
      </trkpt>
      <trkpt lat="40.3057910" lon="-1.3639280">
        <ele>1352.0</ele>
        <time>2019-07-05T09:47:28Z</time>
      </trkpt>
      <trkpt lat="40.3058270" lon="-1.3639960">
        <ele>1351.4</ele>
        <time>2019-07-05T09:47:30Z</time>
      </trkpt>
      <trkpt lat="40.3058630" lon="-1.3641000">
        <ele>1350.2</ele>
        <time>2019-07-05T09:47:33Z</time>
      </trkpt>
      <trkpt lat="40.3058650" lon="-1.3641400">
        <ele>1349.6</ele>
        <time>2019-07-05T09:47:34Z</time>
      </trkpt>
      <trkpt lat="40.3058590" lon="-1.3641820">
        <ele>1348.6</ele>
        <time>2019-07-05T09:47:35Z</time>
      </trkpt>
      <trkpt lat="40.3058410" lon="-1.3642570">
        <ele>1347.4</ele>
        <time>2019-07-05T09:47:37Z</time>
      </trkpt>
      <trkpt lat="40.3058170" lon="-1.3643190">
        <ele>1346.0</ele>
        <time>2019-07-05T09:47:39Z</time>
      </trkpt>
      <trkpt lat="40.3057900" lon="-1.3643860">
        <ele>1344.8</ele>
        <time>2019-07-05T09:47:42Z</time>
      </trkpt>
      <trkpt lat="40.3057780" lon="-1.3644100">
        <ele>1343.8</ele>
        <time>2019-07-05T09:47:44Z</time>
      </trkpt>
      <trkpt lat="40.3057670" lon="-1.3644260">
        <ele>1343.6</ele>
        <time>2019-07-05T09:47:45Z</time>
      </trkpt>
      <trkpt lat="40.3057530" lon="-1.3644530">
        <ele>1343.4</ele>
        <time>2019-07-05T09:47:46Z</time>
      </trkpt>
      <trkpt lat="40.3057310" lon="-1.3645350">
        <ele>1343.0</ele>
        <time>2019-07-05T09:47:48Z</time>
      </trkpt>
      <trkpt lat="40.3057190" lon="-1.3645820">
        <ele>1342.4</ele>
        <time>2019-07-05T09:47:49Z</time>
      </trkpt>
      <trkpt lat="40.3056940" lon="-1.3646880">
        <ele>1341.2</ele>
        <time>2019-07-05T09:47:51Z</time>
      </trkpt>
      <trkpt lat="40.3056700" lon="-1.3648030">
        <ele>1339.6</ele>
        <time>2019-07-05T09:47:53Z</time>
      </trkpt>
      <trkpt lat="40.3056610" lon="-1.3648590">
        <ele>1338.6</ele>
        <time>2019-07-05T09:47:54Z</time>
      </trkpt>
      <trkpt lat="40.3056550" lon="-1.3649120">
        <ele>1337.6</ele>
        <time>2019-07-05T09:47:55Z</time>
      </trkpt>
      <trkpt lat="40.3056430" lon="-1.3650150">
        <ele>1336.4</ele>
        <time>2019-07-05T09:47:57Z</time>
      </trkpt>
      <trkpt lat="40.3056290" lon="-1.3651230">
        <ele>1335.2</ele>
        <time>2019-07-05T09:47:59Z</time>
      </trkpt>
      <trkpt lat="40.3056230" lon="-1.3651870">
        <ele>1334.4</ele>
        <time>2019-07-05T09:48:00Z</time>
      </trkpt>
      <trkpt lat="40.3056160" lon="-1.3652500">
        <ele>1333.8</ele>
        <time>2019-07-05T09:48:01Z</time>
      </trkpt>
      <trkpt lat="40.3055850" lon="-1.3654360">
        <ele>1332.4</ele>
        <time>2019-07-05T09:48:04Z</time>
      </trkpt>
      <trkpt lat="40.3055760" lon="-1.3654950">
        <ele>1332.2</ele>
        <time>2019-07-05T09:48:05Z</time>
      </trkpt>
      <trkpt lat="40.3055560" lon="-1.3656150">
        <ele>1330.8</ele>
        <time>2019-07-05T09:48:07Z</time>
      </trkpt>
      <trkpt lat="40.3055520" lon="-1.3657110">
        <ele>1329.4</ele>
        <time>2019-07-05T09:48:09Z</time>
      </trkpt>
      <trkpt lat="40.3055590" lon="-1.3657440">
        <ele>1328.6</ele>
        <time>2019-07-05T09:48:10Z</time>
      </trkpt>
      <trkpt lat="40.3055750" lon="-1.3657690">
        <ele>1328.2</ele>
        <time>2019-07-05T09:48:11Z</time>
      </trkpt>
      <trkpt lat="40.3056520" lon="-1.3658060">
        <ele>1327.2</ele>
        <time>2019-07-05T09:48:14Z</time>
      </trkpt>
      <trkpt lat="40.3057890" lon="-1.3657570">
        <ele>1326.2</ele>
        <time>2019-07-05T09:48:18Z</time>
      </trkpt>
      <trkpt lat="40.3058360" lon="-1.3657450">
        <ele>1325.8</ele>
        <time>2019-07-05T09:48:19Z</time>
      </trkpt>
      <trkpt lat="40.3058880" lon="-1.3657390">
        <ele>1325.6</ele>
        <time>2019-07-05T09:48:20Z</time>
      </trkpt>
      <trkpt lat="40.3059990" lon="-1.3657450">
        <ele>1324.8</ele>
        <time>2019-07-05T09:48:22Z</time>
      </trkpt>
      <trkpt lat="40.3060570" lon="-1.3657450">
        <ele>1324.6</ele>
        <time>2019-07-05T09:48:23Z</time>
      </trkpt>
      <trkpt lat="40.3062910" lon="-1.3657700">
        <ele>1323.8</ele>
        <time>2019-07-05T09:48:27Z</time>
      </trkpt>
      <trkpt lat="40.3063580" lon="-1.3657800">
        <ele>1322.8</ele>
        <time>2019-07-05T09:48:28Z</time>
      </trkpt>
      <trkpt lat="40.3064220" lon="-1.3657900">
        <ele>1322.0</ele>
        <time>2019-07-05T09:48:29Z</time>
      </trkpt>
      <trkpt lat="40.3065440" lon="-1.3658040">
        <ele>1320.8</ele>
        <time>2019-07-05T09:48:31Z</time>
      </trkpt>
      <trkpt lat="40.3066780" lon="-1.3658160">
        <ele>1319.6</ele>
        <time>2019-07-05T09:48:33Z</time>
      </trkpt>
      <trkpt lat="40.3068040" lon="-1.3658360">
        <ele>1318.2</ele>
        <time>2019-07-05T09:48:35Z</time>
      </trkpt>
      <trkpt lat="40.3069290" lon="-1.3658530">
        <ele>1317.2</ele>
        <time>2019-07-05T09:48:37Z</time>
      </trkpt>
      <trkpt lat="40.3069880" lon="-1.3658590">
        <ele>1316.8</ele>
        <time>2019-07-05T09:48:38Z</time>
      </trkpt>
      <trkpt lat="40.3070980" lon="-1.3658720">
        <ele>1315.4</ele>
        <time>2019-07-05T09:48:40Z</time>
      </trkpt>
      <trkpt lat="40.3071820" lon="-1.3658860">
        <ele>1314.0</ele>
        <time>2019-07-05T09:48:42Z</time>
      </trkpt>
      <trkpt lat="40.3072100" lon="-1.3658870">
        <ele>1313.6</ele>
        <time>2019-07-05T09:48:43Z</time>
      </trkpt>
      <trkpt lat="40.3072240" lon="-1.3658930">
        <ele>1312.6</ele>
        <time>2019-07-05T09:48:45Z</time>
      </trkpt>
      <trkpt lat="40.3072250" lon="-1.3658960">
        <ele>1312.2</ele>
        <time>2019-07-05T09:48:46Z</time>
      </trkpt>
      <trkpt lat="40.3072440" lon="-1.3658950">
        <ele>1312.2</ele>
        <time>2019-07-05T09:49:38Z</time>
      </trkpt>
      <trkpt lat="40.3073020" lon="-1.3658970">
        <ele>1312.0</ele>
        <time>2019-07-05T09:49:40Z</time>
      </trkpt>
      <trkpt lat="40.3073810" lon="-1.3659030">
        <ele>1311.8</ele>
        <time>2019-07-05T09:49:42Z</time>
      </trkpt>
      <trkpt lat="40.3074690" lon="-1.3659110">
        <ele>1311.0</ele>
        <time>2019-07-05T09:49:44Z</time>
      </trkpt>
      <trkpt lat="40.3075110" lon="-1.3659160">
        <ele>1310.4</ele>
        <time>2019-07-05T09:49:45Z</time>
      </trkpt>
      <trkpt lat="40.3076580" lon="-1.3659380">
        <ele>1309.4</ele>
        <time>2019-07-05T09:49:48Z</time>
      </trkpt>
      <trkpt lat="40.3077670" lon="-1.3659380">
        <ele>1309.0</ele>
        <time>2019-07-05T09:49:50Z</time>
      </trkpt>
      <trkpt lat="40.3078200" lon="-1.3659400">
        <ele>1308.2</ele>
        <time>2019-07-05T09:49:51Z</time>
      </trkpt>
      <trkpt lat="40.3078750" lon="-1.3659490">
        <ele>1307.6</ele>
        <time>2019-07-05T09:49:52Z</time>
      </trkpt>
      <trkpt lat="40.3080430" lon="-1.3659860">
        <ele>1307.0</ele>
        <time>2019-07-05T09:49:55Z</time>
      </trkpt>
      <trkpt lat="40.3081460" lon="-1.3660140">
        <ele>1306.0</ele>
        <time>2019-07-05T09:49:57Z</time>
      </trkpt>
      <trkpt lat="40.3082890" lon="-1.3660360">
        <ele>1304.4</ele>
        <time>2019-07-05T09:50:00Z</time>
      </trkpt>
      <trkpt lat="40.3083380" lon="-1.3660390">
        <ele>1304.2</ele>
        <time>2019-07-05T09:50:01Z</time>
      </trkpt>
      <trkpt lat="40.3083890" lon="-1.3660500">
        <ele>1303.8</ele>
        <time>2019-07-05T09:50:02Z</time>
      </trkpt>
      <trkpt lat="40.3084970" lon="-1.3660830">
        <ele>1303.4</ele>
        <time>2019-07-05T09:50:04Z</time>
      </trkpt>
      <trkpt lat="40.3086100" lon="-1.3661140">
        <ele>1303.0</ele>
        <time>2019-07-05T09:50:06Z</time>
      </trkpt>
      <trkpt lat="40.3086640" lon="-1.3661210">
        <ele>1302.8</ele>
        <time>2019-07-05T09:50:07Z</time>
      </trkpt>
      <trkpt lat="40.3087170" lon="-1.3661290">
        <ele>1302.4</ele>
        <time>2019-07-05T09:50:08Z</time>
      </trkpt>
      <trkpt lat="40.3088740" lon="-1.3661760">
        <ele>1302.0</ele>
        <time>2019-07-05T09:50:11Z</time>
      </trkpt>
      <trkpt lat="40.3091360" lon="-1.3662940">
        <ele>1301.4</ele>
        <time>2019-07-05T09:50:16Z</time>
      </trkpt>
      <trkpt lat="40.3093880" lon="-1.3664500">
        <ele>1300.0</ele>
        <time>2019-07-05T09:50:21Z</time>
      </trkpt>
      <trkpt lat="40.3094330" lon="-1.3664800">
        <ele>1299.6</ele>
        <time>2019-07-05T09:50:22Z</time>
      </trkpt>
      <trkpt lat="40.3094760" lon="-1.3665150">
        <ele>1299.2</ele>
        <time>2019-07-05T09:50:23Z</time>
      </trkpt>
      <trkpt lat="40.3095190" lon="-1.3665560">
        <ele>1298.6</ele>
        <time>2019-07-05T09:50:24Z</time>
      </trkpt>
      <trkpt lat="40.3095950" lon="-1.3666550">
        <ele>1297.8</ele>
        <time>2019-07-05T09:50:26Z</time>
      </trkpt>
      <trkpt lat="40.3096170" lon="-1.3666980">
        <ele>1297.6</ele>
        <time>2019-07-05T09:50:27Z</time>
      </trkpt>
      <trkpt lat="40.3096400" lon="-1.3667570">
        <ele>1296.6</ele>
        <time>2019-07-05T09:50:29Z</time>
      </trkpt>
      <trkpt lat="40.3096430" lon="-1.3667870">
        <ele>1296.4</ele>
        <time>2019-07-05T09:50:30Z</time>
      </trkpt>
      <trkpt lat="40.3096280" lon="-1.3668620">
        <ele>1296.2</ele>
        <time>2019-07-05T09:50:32Z</time>
      </trkpt>
      <trkpt lat="40.3096160" lon="-1.3669050">
        <ele>1296.0</ele>
        <time>2019-07-05T09:50:33Z</time>
      </trkpt>
      <trkpt lat="40.3095360" lon="-1.3670760">
        <ele>1296.0</ele>
        <time>2019-07-05T09:50:38Z</time>
      </trkpt>
      <trkpt lat="40.3095120" lon="-1.3671370">
        <ele>1296.0</ele>
        <time>2019-07-05T09:50:40Z</time>
      </trkpt>
      <trkpt lat="40.3094610" lon="-1.3672530">
        <ele>1296.2</ele>
        <time>2019-07-05T09:50:43Z</time>
      </trkpt>
      <trkpt lat="40.3094420" lon="-1.3672960">
        <ele>1296.2</ele>
        <time>2019-07-05T09:50:44Z</time>
      </trkpt>
      <trkpt lat="40.3093930" lon="-1.3674520">
        <ele>1295.8</ele>
        <time>2019-07-05T09:50:47Z</time>
      </trkpt>
      <trkpt lat="40.3093680" lon="-1.3675100">
        <ele>1295.8</ele>
        <time>2019-07-05T09:50:48Z</time>
      </trkpt>
      <trkpt lat="40.3093420" lon="-1.3675750">
        <ele>1295.4</ele>
        <time>2019-07-05T09:50:49Z</time>
      </trkpt>
      <trkpt lat="40.3093130" lon="-1.3676370">
        <ele>1295.2</ele>
        <time>2019-07-05T09:50:50Z</time>
      </trkpt>
      <trkpt lat="40.3091960" lon="-1.3678020">
        <ele>1294.2</ele>
        <time>2019-07-05T09:50:53Z</time>
      </trkpt>
      <trkpt lat="40.3090460" lon="-1.3680070">
        <ele>1294.0</ele>
        <time>2019-07-05T09:50:57Z</time>
      </trkpt>
      <trkpt lat="40.3089920" lon="-1.3681390">
        <ele>1293.4</ele>
        <time>2019-07-05T09:50:59Z</time>
      </trkpt>
      <trkpt lat="40.3089600" lon="-1.3682900">
        <ele>1293.2</ele>
        <time>2019-07-05T09:51:01Z</time>
      </trkpt>
      <trkpt lat="40.3089500" lon="-1.3683630">
        <ele>1293.2</ele>
        <time>2019-07-05T09:51:02Z</time>
      </trkpt>
      <trkpt lat="40.3089480" lon="-1.3684300">
        <ele>1293.0</ele>
        <time>2019-07-05T09:51:03Z</time>
      </trkpt>
      <trkpt lat="40.3089830" lon="-1.3685780">
        <ele>1292.2</ele>
        <time>2019-07-05T09:51:06Z</time>
      </trkpt>
      <trkpt lat="40.3090440" lon="-1.3686220">
        <ele>1291.6</ele>
        <time>2019-07-05T09:51:09Z</time>
      </trkpt>
      <trkpt lat="40.3090990" lon="-1.3686100">
        <ele>1291.6</ele>
        <time>2019-07-05T09:51:11Z</time>
      </trkpt>
      <trkpt lat="40.3092010" lon="-1.3685800">
        <ele>1291.8</ele>
        <time>2019-07-05T09:51:14Z</time>
      </trkpt>
      <trkpt lat="40.3093020" lon="-1.3685450">
        <ele>1292.0</ele>
        <time>2019-07-05T09:51:17Z</time>
      </trkpt>
      <trkpt lat="40.3093740" lon="-1.3685270">
        <ele>1292.0</ele>
        <time>2019-07-05T09:51:19Z</time>
      </trkpt>
      <trkpt lat="40.3095150" lon="-1.3684720">
        <ele>1291.6</ele>
        <time>2019-07-05T09:51:23Z</time>
      </trkpt>
      <trkpt lat="40.3095430" lon="-1.3684620">
        <ele>1291.4</ele>
        <time>2019-07-05T09:51:24Z</time>
      </trkpt>
      <trkpt lat="40.3096830" lon="-1.3683840">
        <ele>1291.4</ele>
        <time>2019-07-05T09:51:29Z</time>
      </trkpt>
      <trkpt lat="40.3098370" lon="-1.3683200">
        <ele>1291.4</ele>
        <time>2019-07-05T09:51:33Z</time>
      </trkpt>
      <trkpt lat="40.3099200" lon="-1.3682830">
        <ele>1291.6</ele>
        <time>2019-07-05T09:51:35Z</time>
      </trkpt>
      <trkpt lat="40.3100480" lon="-1.3682370">
        <ele>1291.6</ele>
        <time>2019-07-05T09:51:38Z</time>
      </trkpt>
      <trkpt lat="40.3102080" lon="-1.3681820">
        <ele>1291.4</ele>
        <time>2019-07-05T09:51:42Z</time>
      </trkpt>
      <trkpt lat="40.3104050" lon="-1.3681170">
        <ele>1291.4</ele>
        <time>2019-07-05T09:51:48Z</time>
      </trkpt>
      <trkpt lat="40.3105290" lon="-1.3680670">
        <ele>1292.0</ele>
        <time>2019-07-05T09:51:52Z</time>
      </trkpt>
      <trkpt lat="40.3105630" lon="-1.3680510">
        <ele>1292.0</ele>
        <time>2019-07-05T09:51:54Z</time>
      </trkpt>
      <trkpt lat="40.3106430" lon="-1.3680190">
        <ele>1292.0</ele>
        <time>2019-07-05T09:52:00Z</time>
      </trkpt>
      <trkpt lat="40.3107910" lon="-1.3679460">
        <ele>1292.4</ele>
        <time>2019-07-05T09:52:05Z</time>
      </trkpt>
      <trkpt lat="40.3110750" lon="-1.3678190">
        <ele>1292.4</ele>
        <time>2019-07-05T09:52:12Z</time>
      </trkpt>
      <trkpt lat="40.3111660" lon="-1.3677890">
        <ele>1292.4</ele>
        <time>2019-07-05T09:52:14Z</time>
      </trkpt>
      <trkpt lat="40.3113120" lon="-1.3678080">
        <ele>1292.6</ele>
        <time>2019-07-05T09:52:17Z</time>
      </trkpt>
      <trkpt lat="40.3114080" lon="-1.3678670">
        <ele>1292.6</ele>
        <time>2019-07-05T09:52:19Z</time>
      </trkpt>
      <trkpt lat="40.3114860" lon="-1.3679540">
        <ele>1292.4</ele>
        <time>2019-07-05T09:52:21Z</time>
      </trkpt>
      <trkpt lat="40.3115210" lon="-1.3680020">
        <ele>1292.4</ele>
        <time>2019-07-05T09:52:22Z</time>
      </trkpt>
      <trkpt lat="40.3116270" lon="-1.3681380">
        <ele>1292.0</ele>
        <time>2019-07-05T09:52:25Z</time>
      </trkpt>
      <trkpt lat="40.3117330" lon="-1.3682770">
        <ele>1292.0</ele>
        <time>2019-07-05T09:52:28Z</time>
      </trkpt>
      <trkpt lat="40.3117640" lon="-1.3683310">
        <ele>1292.0</ele>
        <time>2019-07-05T09:52:29Z</time>
      </trkpt>
      <trkpt lat="40.3118870" lon="-1.3686200">
        <ele>1291.6</ele>
        <time>2019-07-05T09:52:34Z</time>
      </trkpt>
      <trkpt lat="40.3120380" lon="-1.3690440">
        <ele>1292.0</ele>
        <time>2019-07-05T09:52:41Z</time>
      </trkpt>
      <trkpt lat="40.3121320" lon="-1.3692830">
        <ele>1291.4</ele>
        <time>2019-07-05T09:52:45Z</time>
      </trkpt>
      <trkpt lat="40.3121880" lon="-1.3694710">
        <ele>1291.8</ele>
        <time>2019-07-05T09:52:48Z</time>
      </trkpt>
      <trkpt lat="40.3122730" lon="-1.3696240">
        <ele>1292.6</ele>
        <time>2019-07-05T09:52:51Z</time>
      </trkpt>
      <trkpt lat="40.3123400" lon="-1.3697110">
        <ele>1293.2</ele>
        <time>2019-07-05T09:52:53Z</time>
      </trkpt>
      <trkpt lat="40.3123710" lon="-1.3697560">
        <ele>1293.4</ele>
        <time>2019-07-05T09:52:54Z</time>
      </trkpt>
      <trkpt lat="40.3125250" lon="-1.3699740">
        <ele>1293.2</ele>
        <time>2019-07-05T09:52:59Z</time>
      </trkpt>
      <trkpt lat="40.3126460" lon="-1.3701430">
        <ele>1294.2</ele>
        <time>2019-07-05T09:53:03Z</time>
      </trkpt>
      <trkpt lat="40.3127950" lon="-1.3703470">
        <ele>1295.0</ele>
        <time>2019-07-05T09:53:08Z</time>
      </trkpt>
      <trkpt lat="40.3129840" lon="-1.3705870">
        <ele>1295.4</ele>
        <time>2019-07-05T09:53:14Z</time>
      </trkpt>
      <trkpt lat="40.3131130" lon="-1.3707320">
        <ele>1295.6</ele>
        <time>2019-07-05T09:53:18Z</time>
      </trkpt>
      <trkpt lat="40.3132880" lon="-1.3709050">
        <ele>1296.0</ele>
        <time>2019-07-05T09:53:23Z</time>
      </trkpt>
      <trkpt lat="40.3133130" lon="-1.3709530">
        <ele>1296.0</ele>
        <time>2019-07-05T09:53:24Z</time>
      </trkpt>
      <trkpt lat="40.3133880" lon="-1.3711960">
        <ele>1296.2</ele>
        <time>2019-07-05T09:53:29Z</time>
      </trkpt>
      <trkpt lat="40.3134130" lon="-1.3713000">
        <ele>1296.6</ele>
        <time>2019-07-05T09:53:31Z</time>
      </trkpt>
      <trkpt lat="40.3134640" lon="-1.3715860">
        <ele>1297.2</ele>
        <time>2019-07-05T09:53:36Z</time>
      </trkpt>
      <trkpt lat="40.3134900" lon="-1.3717670">
        <ele>1296.8</ele>
        <time>2019-07-05T09:53:39Z</time>
      </trkpt>
      <trkpt lat="40.3135000" lon="-1.3719540">
        <ele>1297.0</ele>
        <time>2019-07-05T09:53:42Z</time>
      </trkpt>
      <trkpt lat="40.3135040" lon="-1.3720770">
        <ele>1297.2</ele>
        <time>2019-07-05T09:53:44Z</time>
      </trkpt>
      <trkpt lat="40.3135090" lon="-1.3723130">
        <ele>1297.4</ele>
        <time>2019-07-05T09:53:48Z</time>
      </trkpt>
      <trkpt lat="40.3135100" lon="-1.3724320">
        <ele>1297.6</ele>
        <time>2019-07-05T09:53:50Z</time>
      </trkpt>
      <trkpt lat="40.3135160" lon="-1.3728590">
        <ele>1298.4</ele>
        <time>2019-07-05T09:53:57Z</time>
      </trkpt>
      <trkpt lat="40.3134920" lon="-1.3734140">
        <ele>1298.6</ele>
        <time>2019-07-05T09:54:06Z</time>
      </trkpt>
      <trkpt lat="40.3134860" lon="-1.3735920">
        <ele>1299.0</ele>
        <time>2019-07-05T09:54:09Z</time>
      </trkpt>
      <trkpt lat="40.3134900" lon="-1.3738820">
        <ele>1299.4</ele>
        <time>2019-07-05T09:54:14Z</time>
      </trkpt>
      <trkpt lat="40.3134980" lon="-1.3739920">
        <ele>1300.0</ele>
        <time>2019-07-05T09:54:16Z</time>
      </trkpt>
      <trkpt lat="40.3135290" lon="-1.3742010">
        <ele>1300.8</ele>
        <time>2019-07-05T09:54:20Z</time>
      </trkpt>
      <trkpt lat="40.3135370" lon="-1.3742500">
        <ele>1301.2</ele>
        <time>2019-07-05T09:54:21Z</time>
      </trkpt>
      <trkpt lat="40.3135710" lon="-1.3744430">
        <ele>1302.4</ele>
        <time>2019-07-05T09:54:25Z</time>
      </trkpt>
      <trkpt lat="40.3136130" lon="-1.3746340">
        <ele>1302.6</ele>
        <time>2019-07-05T09:54:29Z</time>
      </trkpt>
      <trkpt lat="40.3137080" lon="-1.3750920">
        <ele>1303.0</ele>
        <time>2019-07-05T09:54:38Z</time>
      </trkpt>
      <trkpt lat="40.3137530" lon="-1.3753530">
        <ele>1303.4</ele>
        <time>2019-07-05T09:54:43Z</time>
      </trkpt>
      <trkpt lat="40.3137910" lon="-1.3755490">
        <ele>1304.4</ele>
        <time>2019-07-05T09:54:47Z</time>
      </trkpt>
      <trkpt lat="40.3138000" lon="-1.3756000">
        <ele>1304.4</ele>
        <time>2019-07-05T09:54:48Z</time>
      </trkpt>
      <trkpt lat="40.3138310" lon="-1.3758110">
        <ele>1304.4</ele>
        <time>2019-07-05T09:54:52Z</time>
      </trkpt>
      <trkpt lat="40.3138650" lon="-1.3759670">
        <ele>1305.2</ele>
        <time>2019-07-05T09:54:55Z</time>
      </trkpt>
      <trkpt lat="40.3139430" lon="-1.3764340">
        <ele>1305.6</ele>
        <time>2019-07-05T09:55:04Z</time>
      </trkpt>
      <trkpt lat="40.3139740" lon="-1.3766300">
        <ele>1306.8</ele>
        <time>2019-07-05T09:55:08Z</time>
      </trkpt>
      <trkpt lat="40.3139970" lon="-1.3767800">
        <ele>1307.2</ele>
        <time>2019-07-05T09:55:11Z</time>
      </trkpt>
      <trkpt lat="40.3140450" lon="-1.3771250">
        <ele>1307.0</ele>
        <time>2019-07-05T09:55:18Z</time>
      </trkpt>
      <trkpt lat="40.3140660" lon="-1.3772760">
        <ele>1308.0</ele>
        <time>2019-07-05T09:55:21Z</time>
      </trkpt>
      <trkpt lat="40.3140960" lon="-1.3775140">
        <ele>1309.2</ele>
        <time>2019-07-05T09:55:26Z</time>
      </trkpt>
      <trkpt lat="40.3141440" lon="-1.3778360">
        <ele>1310.0</ele>
        <time>2019-07-05T09:55:33Z</time>
      </trkpt>
      <trkpt lat="40.3141550" lon="-1.3779300">
        <ele>1310.2</ele>
        <time>2019-07-05T09:55:35Z</time>
      </trkpt>
      <trkpt lat="40.3141860" lon="-1.3781650">
        <ele>1310.6</ele>
        <time>2019-07-05T09:55:40Z</time>
      </trkpt>
      <trkpt lat="40.3142330" lon="-1.3785060">
        <ele>1311.4</ele>
        <time>2019-07-05T09:55:47Z</time>
      </trkpt>
      <trkpt lat="40.3142590" lon="-1.3787320">
        <ele>1312.2</ele>
        <time>2019-07-05T09:55:52Z</time>
      </trkpt>
      <trkpt lat="40.3142640" lon="-1.3787750">
        <ele>1312.4</ele>
        <time>2019-07-05T09:55:53Z</time>
      </trkpt>
      <trkpt lat="40.3142960" lon="-1.3790420">
        <ele>1312.6</ele>
        <time>2019-07-05T09:55:59Z</time>
      </trkpt>
      <trkpt lat="40.3143510" lon="-1.3793170">
        <ele>1313.6</ele>
        <time>2019-07-05T09:56:05Z</time>
      </trkpt>
      <trkpt lat="40.3143620" lon="-1.3793640">
        <ele>1313.8</ele>
        <time>2019-07-05T09:56:06Z</time>
      </trkpt>
      <trkpt lat="40.3144550" lon="-1.3798490">
        <ele>1314.4</ele>
        <time>2019-07-05T09:56:16Z</time>
      </trkpt>
      <trkpt lat="40.3144770" lon="-1.3799870">
        <ele>1314.8</ele>
        <time>2019-07-05T09:56:19Z</time>
      </trkpt>
      <trkpt lat="40.3145030" lon="-1.3802190">
        <ele>1315.6</ele>
        <time>2019-07-05T09:56:24Z</time>
      </trkpt>
      <trkpt lat="40.3145370" lon="-1.3803940">
        <ele>1315.8</ele>
        <time>2019-07-05T09:56:28Z</time>
      </trkpt>
      <trkpt lat="40.3145650" lon="-1.3805230">
        <ele>1316.2</ele>
        <time>2019-07-05T09:56:31Z</time>
      </trkpt>
      <trkpt lat="40.3146210" lon="-1.3807880">
        <ele>1317.0</ele>
        <time>2019-07-05T09:56:37Z</time>
      </trkpt>
      <trkpt lat="40.3146290" lon="-1.3808320">
        <ele>1317.2</ele>
        <time>2019-07-05T09:56:38Z</time>
      </trkpt>
      <trkpt lat="40.3146610" lon="-1.3809680">
        <ele>1318.4</ele>
        <time>2019-07-05T09:56:41Z</time>
      </trkpt>
      <trkpt lat="40.3147130" lon="-1.3811830">
        <ele>1319.4</ele>
        <time>2019-07-05T09:56:46Z</time>
      </trkpt>
      <trkpt lat="40.3147480" lon="-1.3813170">
        <ele>1319.6</ele>
        <time>2019-07-05T09:56:49Z</time>
      </trkpt>
      <trkpt lat="40.3147890" lon="-1.3814480">
        <ele>1320.0</ele>
        <time>2019-07-05T09:56:52Z</time>
      </trkpt>
      <trkpt lat="40.3148330" lon="-1.3816540">
        <ele>1321.0</ele>
        <time>2019-07-05T09:56:57Z</time>
      </trkpt>
      <trkpt lat="40.3148360" lon="-1.3817010">
        <ele>1321.4</ele>
        <time>2019-07-05T09:56:58Z</time>
      </trkpt>
      <trkpt lat="40.3148470" lon="-1.3818410">
        <ele>1322.4</ele>
        <time>2019-07-05T09:57:01Z</time>
      </trkpt>
      <trkpt lat="40.3148470" lon="-1.3820220">
        <ele>1322.4</ele>
        <time>2019-07-05T09:57:05Z</time>
      </trkpt>
      <trkpt lat="40.3148570" lon="-1.3822870">
        <ele>1323.8</ele>
        <time>2019-07-05T09:57:11Z</time>
      </trkpt>
      <trkpt lat="40.3148590" lon="-1.3823300">
        <ele>1323.8</ele>
        <time>2019-07-05T09:57:12Z</time>
      </trkpt>
      <trkpt lat="40.3148970" lon="-1.3826780">
        <ele>1324.4</ele>
        <time>2019-07-05T09:57:20Z</time>
      </trkpt>
      <trkpt lat="40.3149640" lon="-1.3829290">
        <ele>1324.8</ele>
        <time>2019-07-05T09:57:27Z</time>
      </trkpt>
      <trkpt lat="40.3149740" lon="-1.3829690">
        <ele>1324.8</ele>
        <time>2019-07-05T09:57:28Z</time>
      </trkpt>
      <trkpt lat="40.3150080" lon="-1.3831310">
        <ele>1326.0</ele>
        <time>2019-07-05T09:57:32Z</time>
      </trkpt>
      <trkpt lat="40.3150180" lon="-1.3832180">
        <ele>1326.4</ele>
        <time>2019-07-05T09:57:34Z</time>
      </trkpt>
      <trkpt lat="40.3150220" lon="-1.3834060">
        <ele>1327.0</ele>
        <time>2019-07-05T09:57:38Z</time>
      </trkpt>
      <trkpt lat="40.3150160" lon="-1.3835840">
        <ele>1327.2</ele>
        <time>2019-07-05T09:57:42Z</time>
      </trkpt>
      <trkpt lat="40.3150190" lon="-1.3839110">
        <ele>1328.2</ele>
        <time>2019-07-05T09:57:49Z</time>
      </trkpt>
      <trkpt lat="40.3150200" lon="-1.3839600">
        <ele>1328.4</ele>
        <time>2019-07-05T09:57:50Z</time>
      </trkpt>
      <trkpt lat="40.3150030" lon="-1.3842550">
        <ele>1329.0</ele>
        <time>2019-07-05T09:57:56Z</time>
      </trkpt>
      <trkpt lat="40.3149660" lon="-1.3845200">
        <ele>1329.6</ele>
        <time>2019-07-05T09:58:01Z</time>
      </trkpt>
      <trkpt lat="40.3149620" lon="-1.3845760">
        <ele>1329.6</ele>
        <time>2019-07-05T09:58:02Z</time>
      </trkpt>
      <trkpt lat="40.3149620" lon="-1.3846340">
        <ele>1329.8</ele>
        <time>2019-07-05T09:58:03Z</time>
      </trkpt>
      <trkpt lat="40.3149610" lon="-1.3851100">
        <ele>1329.8</ele>
        <time>2019-07-05T09:58:11Z</time>
      </trkpt>
      <trkpt lat="40.3149680" lon="-1.3856760">
        <ele>1329.8</ele>
        <time>2019-07-05T09:58:20Z</time>
      </trkpt>
      <trkpt lat="40.3149920" lon="-1.3860840">
        <ele>1330.0</ele>
        <time>2019-07-05T09:58:26Z</time>
      </trkpt>
      <trkpt lat="40.3150000" lon="-1.3861540">
        <ele>1330.0</ele>
        <time>2019-07-05T09:58:27Z</time>
      </trkpt>
      <trkpt lat="40.3150410" lon="-1.3864260">
        <ele>1330.8</ele>
        <time>2019-07-05T09:58:31Z</time>
      </trkpt>
      <trkpt lat="40.3150740" lon="-1.3866880">
        <ele>1330.8</ele>
        <time>2019-07-05T09:58:35Z</time>
      </trkpt>
      <trkpt lat="40.3151430" lon="-1.3870300">
        <ele>1331.6</ele>
        <time>2019-07-05T09:58:41Z</time>
      </trkpt>
      <trkpt lat="40.3151550" lon="-1.3870810">
        <ele>1332.0</ele>
        <time>2019-07-05T09:58:42Z</time>
      </trkpt>
      <trkpt lat="40.3151670" lon="-1.3871320">
        <ele>1332.2</ele>
        <time>2019-07-05T09:58:43Z</time>
      </trkpt>
      <trkpt lat="40.3152380" lon="-1.3874240">
        <ele>1333.0</ele>
        <time>2019-07-05T09:58:49Z</time>
      </trkpt>
      <trkpt lat="40.3152730" lon="-1.3875660">
        <ele>1333.4</ele>
        <time>2019-07-05T09:58:52Z</time>
      </trkpt>
      <trkpt lat="40.3153120" lon="-1.3877550">
        <ele>1334.2</ele>
        <time>2019-07-05T09:58:56Z</time>
      </trkpt>
      <trkpt lat="40.3153580" lon="-1.3879890">
        <ele>1335.0</ele>
        <time>2019-07-05T09:59:01Z</time>
      </trkpt>
      <trkpt lat="40.3153690" lon="-1.3880830">
        <ele>1335.4</ele>
        <time>2019-07-05T09:59:03Z</time>
      </trkpt>
      <trkpt lat="40.3153910" lon="-1.3882720">
        <ele>1335.6</ele>
        <time>2019-07-05T09:59:07Z</time>
      </trkpt>
      <trkpt lat="40.3154160" lon="-1.3884660">
        <ele>1336.4</ele>
        <time>2019-07-05T09:59:11Z</time>
      </trkpt>
      <trkpt lat="40.3154250" lon="-1.3885620">
        <ele>1337.0</ele>
        <time>2019-07-05T09:59:13Z</time>
      </trkpt>
      <trkpt lat="40.3154410" lon="-1.3887020">
        <ele>1337.8</ele>
        <time>2019-07-05T09:59:16Z</time>
      </trkpt>
      <trkpt lat="40.3154660" lon="-1.3888820">
        <ele>1338.0</ele>
        <time>2019-07-05T09:59:20Z</time>
      </trkpt>
      <trkpt lat="40.3154800" lon="-1.3890100">
        <ele>1338.8</ele>
        <time>2019-07-05T09:59:23Z</time>
      </trkpt>
      <trkpt lat="40.3155100" lon="-1.3892020">
        <ele>1339.8</ele>
        <time>2019-07-05T09:59:28Z</time>
      </trkpt>
      <trkpt lat="40.3155170" lon="-1.3892390">
        <ele>1340.2</ele>
        <time>2019-07-05T09:59:29Z</time>
      </trkpt>
      <trkpt lat="40.3155320" lon="-1.3893630">
        <ele>1341.0</ele>
        <time>2019-07-05T09:59:32Z</time>
      </trkpt>
      <trkpt lat="40.3155540" lon="-1.3895260">
        <ele>1341.0</ele>
        <time>2019-07-05T09:59:36Z</time>
      </trkpt>
      <trkpt lat="40.3155870" lon="-1.3897550">
        <ele>1342.2</ele>
        <time>2019-07-05T09:59:42Z</time>
      </trkpt>
      <trkpt lat="40.3155910" lon="-1.3897930">
        <ele>1342.6</ele>
        <time>2019-07-05T09:59:43Z</time>
      </trkpt>
      <trkpt lat="40.3156020" lon="-1.3899110">
        <ele>1343.4</ele>
        <time>2019-07-05T09:59:46Z</time>
      </trkpt>
      <trkpt lat="40.3156110" lon="-1.3899910">
        <ele>1344.2</ele>
        <time>2019-07-05T09:59:48Z</time>
      </trkpt>
      <trkpt lat="40.3156140" lon="-1.3900280">
        <ele>1344.6</ele>
        <time>2019-07-05T09:59:49Z</time>
      </trkpt>
      <trkpt lat="40.3156270" lon="-1.3901860">
        <ele>1345.8</ele>
        <time>2019-07-05T09:59:53Z</time>
      </trkpt>
      <trkpt lat="40.3156290" lon="-1.3902260">
        <ele>1346.0</ele>
        <time>2019-07-05T09:59:54Z</time>
      </trkpt>
      <trkpt lat="40.3156700" lon="-1.3904950">
        <ele>1346.8</ele>
        <time>2019-07-05T10:00:01Z</time>
      </trkpt>
      <trkpt lat="40.3156740" lon="-1.3907400">
        <ele>1347.8</ele>
        <time>2019-07-05T10:00:07Z</time>
      </trkpt>
      <trkpt lat="40.3156680" lon="-1.3907820">
        <ele>1348.0</ele>
        <time>2019-07-05T10:00:08Z</time>
      </trkpt>
      <trkpt lat="40.3156390" lon="-1.3910750">
        <ele>1349.0</ele>
        <time>2019-07-05T10:00:15Z</time>
      </trkpt>
      <trkpt lat="40.3155940" lon="-1.3913700">
        <ele>1349.0</ele>
        <time>2019-07-05T10:00:22Z</time>
      </trkpt>
      <trkpt lat="40.3156210" lon="-1.3917050">
        <ele>1349.2</ele>
        <time>2019-07-05T10:00:29Z</time>
      </trkpt>
      <trkpt lat="40.3157310" lon="-1.3919420">
        <ele>1349.6</ele>
        <time>2019-07-05T10:00:34Z</time>
      </trkpt>
      <trkpt lat="40.3158440" lon="-1.3921210">
        <ele>1349.4</ele>
        <time>2019-07-05T10:00:38Z</time>
      </trkpt>
      <trkpt lat="40.3158880" lon="-1.3922160">
        <ele>1349.6</ele>
        <time>2019-07-05T10:00:40Z</time>
      </trkpt>
      <trkpt lat="40.3159330" lon="-1.3923800">
        <ele>1350.4</ele>
        <time>2019-07-05T10:00:44Z</time>
      </trkpt>
      <trkpt lat="40.3159370" lon="-1.3924160">
        <ele>1350.8</ele>
        <time>2019-07-05T10:00:45Z</time>
      </trkpt>
      <trkpt lat="40.3159480" lon="-1.3925520">
        <ele>1351.8</ele>
        <time>2019-07-05T10:00:49Z</time>
      </trkpt>
      <trkpt lat="40.3159370" lon="-1.3926260">
        <ele>1352.0</ele>
        <time>2019-07-05T10:00:51Z</time>
      </trkpt>
      <trkpt lat="40.3159200" lon="-1.3928220">
        <ele>1352.8</ele>
        <time>2019-07-05T10:00:56Z</time>
      </trkpt>
      <trkpt lat="40.3159180" lon="-1.3929380">
        <ele>1353.2</ele>
        <time>2019-07-05T10:00:59Z</time>
      </trkpt>
      <trkpt lat="40.3159250" lon="-1.3931330">
        <ele>1354.0</ele>
        <time>2019-07-05T10:01:04Z</time>
      </trkpt>
      <trkpt lat="40.3159380" lon="-1.3932930">
        <ele>1354.6</ele>
        <time>2019-07-05T10:01:08Z</time>
      </trkpt>
      <trkpt lat="40.3159440" lon="-1.3933980">
        <ele>1355.0</ele>
        <time>2019-07-05T10:01:11Z</time>
      </trkpt>
      <trkpt lat="40.3159670" lon="-1.3935220">
        <ele>1356.0</ele>
        <time>2019-07-05T10:01:15Z</time>
      </trkpt>
      <trkpt lat="40.3159690" lon="-1.3935540">
        <ele>1356.2</ele>
        <time>2019-07-05T10:01:16Z</time>
      </trkpt>
      <trkpt lat="40.3160090" lon="-1.3937410">
        <ele>1357.4</ele>
        <time>2019-07-05T10:01:22Z</time>
      </trkpt>
      <trkpt lat="40.3160340" lon="-1.3938990">
        <ele>1358.8</ele>
        <time>2019-07-05T10:01:27Z</time>
      </trkpt>
      <trkpt lat="40.3160430" lon="-1.3939960">
        <ele>1359.2</ele>
        <time>2019-07-05T10:01:30Z</time>
      </trkpt>
      <trkpt lat="40.3160620" lon="-1.3941340">
        <ele>1359.8</ele>
        <time>2019-07-05T10:01:34Z</time>
      </trkpt>
      <trkpt lat="40.3160680" lon="-1.3942010">
        <ele>1360.6</ele>
        <time>2019-07-05T10:01:36Z</time>
      </trkpt>
      <trkpt lat="40.3160850" lon="-1.3942980">
        <ele>1361.0</ele>
        <time>2019-07-05T10:01:39Z</time>
      </trkpt>
      <trkpt lat="40.3161000" lon="-1.3943560">
        <ele>1361.6</ele>
        <time>2019-07-05T10:01:41Z</time>
      </trkpt>
      <trkpt lat="40.3161110" lon="-1.3944210">
        <ele>1362.0</ele>
        <time>2019-07-05T10:01:43Z</time>
      </trkpt>
      <trkpt lat="40.3161540" lon="-1.3945360">
        <ele>1363.0</ele>
        <time>2019-07-05T10:01:47Z</time>
      </trkpt>
      <trkpt lat="40.3161660" lon="-1.3945650">
        <ele>1363.4</ele>
        <time>2019-07-05T10:01:48Z</time>
      </trkpt>
      <trkpt lat="40.3162510" lon="-1.3947980">
        <ele>1363.6</ele>
        <time>2019-07-05T10:01:56Z</time>
      </trkpt>
      <trkpt lat="40.3162980" lon="-1.3949060">
        <ele>1364.2</ele>
        <time>2019-07-05T10:02:00Z</time>
      </trkpt>
      <trkpt lat="40.3163240" lon="-1.3949590">
        <ele>1364.6</ele>
        <time>2019-07-05T10:02:02Z</time>
      </trkpt>
      <trkpt lat="40.3164230" lon="-1.3951030">
        <ele>1365.2</ele>
        <time>2019-07-05T10:02:08Z</time>
      </trkpt>
      <trkpt lat="40.3164360" lon="-1.3951240">
        <ele>1365.4</ele>
        <time>2019-07-05T10:02:09Z</time>
      </trkpt>
      <trkpt lat="40.3164660" lon="-1.3951880">
        <ele>1366.6</ele>
        <time>2019-07-05T10:02:13Z</time>
      </trkpt>
      <trkpt lat="40.3164720" lon="-1.3952010">
        <ele>1366.8</ele>
        <time>2019-07-05T10:02:14Z</time>
      </trkpt>
      <trkpt lat="40.3164750" lon="-1.3952540">
        <ele>1366.8</ele>
        <time>2019-07-05T10:02:17Z</time>
      </trkpt>
      <trkpt lat="40.3164570" lon="-1.3952930">
        <ele>1367.0</ele>
        <time>2019-07-05T10:02:19Z</time>
      </trkpt>
      <trkpt lat="40.3164350" lon="-1.3953320">
        <ele>1367.0</ele>
        <time>2019-07-05T10:02:21Z</time>
      </trkpt>
      <trkpt lat="40.3163700" lon="-1.3954360">
        <ele>1367.6</ele>
        <time>2019-07-05T10:02:26Z</time>
      </trkpt>
      <trkpt lat="40.3163030" lon="-1.3955180">
        <ele>1367.8</ele>
        <time>2019-07-05T10:02:30Z</time>
      </trkpt>
      <trkpt lat="40.3162880" lon="-1.3955420">
        <ele>1368.0</ele>
        <time>2019-07-05T10:02:31Z</time>
      </trkpt>
      <trkpt lat="40.3162550" lon="-1.3955900">
        <ele>1368.2</ele>
        <time>2019-07-05T10:02:33Z</time>
      </trkpt>
      <trkpt lat="40.3161180" lon="-1.3957990">
        <ele>1368.8</ele>
        <time>2019-07-05T10:02:40Z</time>
      </trkpt>
      <trkpt lat="40.3160500" lon="-1.3958940">
        <ele>1369.0</ele>
        <time>2019-07-05T10:02:43Z</time>
      </trkpt>
      <trkpt lat="40.3159300" lon="-1.3960680">
        <ele>1369.6</ele>
        <time>2019-07-05T10:02:48Z</time>
      </trkpt>
      <trkpt lat="40.3158310" lon="-1.3962160">
        <ele>1370.0</ele>
        <time>2019-07-05T10:02:52Z</time>
      </trkpt>
      <trkpt lat="40.3157810" lon="-1.3962960">
        <ele>1370.2</ele>
        <time>2019-07-05T10:02:54Z</time>
      </trkpt>
      <trkpt lat="40.3157220" lon="-1.3963720">
        <ele>1370.6</ele>
        <time>2019-07-05T10:02:56Z</time>
      </trkpt>
      <trkpt lat="40.3154310" lon="-1.3967210">
        <ele>1370.8</ele>
        <time>2019-07-05T10:03:05Z</time>
      </trkpt>
      <trkpt lat="40.3152680" lon="-1.3969310">
        <ele>1371.0</ele>
        <time>2019-07-05T10:03:10Z</time>
      </trkpt>
      <trkpt lat="40.3152310" lon="-1.3969680">
        <ele>1371.0</ele>
        <time>2019-07-05T10:03:11Z</time>
      </trkpt>
      <trkpt lat="40.3150410" lon="-1.3971430">
        <ele>1371.0</ele>
        <time>2019-07-05T10:03:16Z</time>
      </trkpt>
      <trkpt lat="40.3149110" lon="-1.3972350">
        <ele>1371.4</ele>
        <time>2019-07-05T10:03:19Z</time>
      </trkpt>
      <trkpt lat="40.3147750" lon="-1.3973160">
        <ele>1372.0</ele>
        <time>2019-07-05T10:03:22Z</time>
      </trkpt>
      <trkpt lat="40.3145870" lon="-1.3974140">
        <ele>1372.6</ele>
        <time>2019-07-05T10:03:26Z</time>
      </trkpt>
      <trkpt lat="40.3145400" lon="-1.3974370">
        <ele>1372.6</ele>
        <time>2019-07-05T10:03:27Z</time>
      </trkpt>
      <trkpt lat="40.3143970" lon="-1.3974860">
        <ele>1373.2</ele>
        <time>2019-07-05T10:03:30Z</time>
      </trkpt>
      <trkpt lat="40.3143040" lon="-1.3975240">
        <ele>1373.6</ele>
        <time>2019-07-05T10:03:32Z</time>
      </trkpt>
      <trkpt lat="40.3139900" lon="-1.3975990">
        <ele>1374.0</ele>
        <time>2019-07-05T10:03:39Z</time>
      </trkpt>
      <trkpt lat="40.3137650" lon="-1.3976290">
        <ele>1374.0</ele>
        <time>2019-07-05T10:03:44Z</time>
      </trkpt>
      <trkpt lat="40.3137210" lon="-1.3976300">
        <ele>1374.0</ele>
        <time>2019-07-05T10:03:45Z</time>
      </trkpt>
      <trkpt lat="40.3134520" lon="-1.3976150">
        <ele>1374.0</ele>
        <time>2019-07-05T10:03:51Z</time>
      </trkpt>
      <trkpt lat="40.3134070" lon="-1.3976090">
        <ele>1374.0</ele>
        <time>2019-07-05T10:03:52Z</time>
      </trkpt>
      <trkpt lat="40.3130120" lon="-1.3975000">
        <ele>1374.2</ele>
        <time>2019-07-05T10:04:00Z</time>
      </trkpt>
      <trkpt lat="40.3125490" lon="-1.3972650">
        <ele>1373.6</ele>
        <time>2019-07-05T10:04:09Z</time>
      </trkpt>
      <trkpt lat="40.3122240" lon="-1.3970020">
        <ele>1373.4</ele>
        <time>2019-07-05T10:04:16Z</time>
      </trkpt>
      <trkpt lat="40.3119160" lon="-1.3966770">
        <ele>1373.8</ele>
        <time>2019-07-05T10:04:23Z</time>
      </trkpt>
      <trkpt lat="40.3115950" lon="-1.3963430">
        <ele>1373.6</ele>
        <time>2019-07-05T10:04:30Z</time>
      </trkpt>
      <trkpt lat="40.3113140" lon="-1.3960790">
        <ele>1373.6</ele>
        <time>2019-07-05T10:04:36Z</time>
      </trkpt>
      <trkpt lat="40.3112090" lon="-1.3960290">
        <ele>1373.6</ele>
        <time>2019-07-05T10:04:38Z</time>
      </trkpt>
      <trkpt lat="40.3107670" lon="-1.3959380">
        <ele>1373.8</ele>
        <time>2019-07-05T10:04:46Z</time>
      </trkpt>
      <trkpt lat="40.3103550" lon="-1.3959210">
        <ele>1373.8</ele>
        <time>2019-07-05T10:04:53Z</time>
      </trkpt>
      <trkpt lat="40.3099110" lon="-1.3959720">
        <ele>1372.8</ele>
        <time>2019-07-05T10:05:00Z</time>
      </trkpt>
      <trkpt lat="40.3097180" lon="-1.3960430">
        <ele>1372.4</ele>
        <time>2019-07-05T10:05:03Z</time>
      </trkpt>
      <trkpt lat="40.3095340" lon="-1.3961390">
        <ele>1371.8</ele>
        <time>2019-07-05T10:05:06Z</time>
      </trkpt>
      <trkpt lat="40.3094220" lon="-1.3962330">
        <ele>1371.4</ele>
        <time>2019-07-05T10:05:08Z</time>
      </trkpt>
      <trkpt lat="40.3092710" lon="-1.3964100">
        <ele>1370.8</ele>
        <time>2019-07-05T10:05:11Z</time>
      </trkpt>
      <trkpt lat="40.3091870" lon="-1.3965470">
        <ele>1370.6</ele>
        <time>2019-07-05T10:05:13Z</time>
      </trkpt>
      <trkpt lat="40.3091530" lon="-1.3966170">
        <ele>1370.6</ele>
        <time>2019-07-05T10:05:14Z</time>
      </trkpt>
      <trkpt lat="40.3090940" lon="-1.3967610">
        <ele>1370.4</ele>
        <time>2019-07-05T10:05:16Z</time>
      </trkpt>
      <trkpt lat="40.3089220" lon="-1.3972520">
        <ele>1369.4</ele>
        <time>2019-07-05T10:05:23Z</time>
      </trkpt>
      <trkpt lat="40.3088970" lon="-1.3973190">
        <ele>1369.4</ele>
        <time>2019-07-05T10:05:24Z</time>
      </trkpt>
      <trkpt lat="40.3086790" lon="-1.3977570">
        <ele>1369.6</ele>
        <time>2019-07-05T10:05:31Z</time>
      </trkpt>
      <trkpt lat="40.3085220" lon="-1.3979700">
        <ele>1369.4</ele>
        <time>2019-07-05T10:05:35Z</time>
      </trkpt>
      <trkpt lat="40.3084280" lon="-1.3980570">
        <ele>1369.4</ele>
        <time>2019-07-05T10:05:37Z</time>
      </trkpt>
      <trkpt lat="40.3082780" lon="-1.3981720">
        <ele>1369.0</ele>
        <time>2019-07-05T10:05:40Z</time>
      </trkpt>
      <trkpt lat="40.3081140" lon="-1.3982600">
        <ele>1368.8</ele>
        <time>2019-07-05T10:05:43Z</time>
      </trkpt>
      <trkpt lat="40.3077610" lon="-1.3983610">
        <ele>1368.6</ele>
        <time>2019-07-05T10:05:49Z</time>
      </trkpt>
      <trkpt lat="40.3074650" lon="-1.3983430">
        <ele>1368.6</ele>
        <time>2019-07-05T10:05:54Z</time>
      </trkpt>
      <trkpt lat="40.3074060" lon="-1.3983310">
        <ele>1368.4</ele>
        <time>2019-07-05T10:05:55Z</time>
      </trkpt>
      <trkpt lat="40.3069260" lon="-1.3981620">
        <ele>1368.0</ele>
        <time>2019-07-05T10:06:03Z</time>
      </trkpt>
      <trkpt lat="40.3065050" lon="-1.3979820">
        <ele>1368.0</ele>
        <time>2019-07-05T10:06:10Z</time>
      </trkpt>
      <trkpt lat="40.3064440" lon="-1.3979620">
        <ele>1368.0</ele>
        <time>2019-07-05T10:06:11Z</time>
      </trkpt>
      <trkpt lat="40.3061460" lon="-1.3978330">
        <ele>1368.2</ele>
        <time>2019-07-05T10:06:16Z</time>
      </trkpt>
      <trkpt lat="40.3060270" lon="-1.3977830">
        <ele>1368.0</ele>
        <time>2019-07-05T10:06:18Z</time>
      </trkpt>
      <trkpt lat="40.3054880" lon="-1.3975500">
        <ele>1368.2</ele>
        <time>2019-07-05T10:06:27Z</time>
      </trkpt>
      <trkpt lat="40.3054300" lon="-1.3975250">
        <ele>1368.2</ele>
        <time>2019-07-05T10:06:28Z</time>
      </trkpt>
      <trkpt lat="40.3050230" lon="-1.3973530">
        <ele>1367.8</ele>
        <time>2019-07-05T10:06:35Z</time>
      </trkpt>
      <trkpt lat="40.3049650" lon="-1.3973310">
        <ele>1367.8</ele>
        <time>2019-07-05T10:06:36Z</time>
      </trkpt>
      <trkpt lat="40.3046760" lon="-1.3972020">
        <ele>1367.8</ele>
        <time>2019-07-05T10:06:41Z</time>
      </trkpt>
      <trkpt lat="40.3045020" lon="-1.3971280">
        <ele>1367.8</ele>
        <time>2019-07-05T10:06:44Z</time>
      </trkpt>
      <trkpt lat="40.3040570" lon="-1.3969420">
        <ele>1366.6</ele>
        <time>2019-07-05T10:06:51Z</time>
      </trkpt>
      <trkpt lat="40.3039880" lon="-1.3969150">
        <ele>1366.2</ele>
        <time>2019-07-05T10:06:52Z</time>
      </trkpt>
      <trkpt lat="40.3036270" lon="-1.3968320">
        <ele>1365.6</ele>
        <time>2019-07-05T10:06:57Z</time>
      </trkpt>
      <trkpt lat="40.3035510" lon="-1.3968360">
        <ele>1365.2</ele>
        <time>2019-07-05T10:06:58Z</time>
      </trkpt>
      <trkpt lat="40.3033970" lon="-1.3968610">
        <ele>1364.8</ele>
        <time>2019-07-05T10:07:00Z</time>
      </trkpt>
      <trkpt lat="40.3032420" lon="-1.3969050">
        <ele>1364.4</ele>
        <time>2019-07-05T10:07:02Z</time>
      </trkpt>
      <trkpt lat="40.3031680" lon="-1.3969410">
        <ele>1364.0</ele>
        <time>2019-07-05T10:07:03Z</time>
      </trkpt>
      <trkpt lat="40.3029580" lon="-1.3970980">
        <ele>1363.0</ele>
        <time>2019-07-05T10:07:06Z</time>
      </trkpt>
      <trkpt lat="40.3028930" lon="-1.3971680">
        <ele>1362.6</ele>
        <time>2019-07-05T10:07:07Z</time>
      </trkpt>
      <trkpt lat="40.3028300" lon="-1.3972460">
        <ele>1361.8</ele>
        <time>2019-07-05T10:07:08Z</time>
      </trkpt>
      <trkpt lat="40.3027700" lon="-1.3973330">
        <ele>1361.4</ele>
        <time>2019-07-05T10:07:09Z</time>
      </trkpt>
      <trkpt lat="40.3026630" lon="-1.3975290">
        <ele>1360.4</ele>
        <time>2019-07-05T10:07:11Z</time>
      </trkpt>
      <trkpt lat="40.3026180" lon="-1.3976390">
        <ele>1360.0</ele>
        <time>2019-07-05T10:07:12Z</time>
      </trkpt>
      <trkpt lat="40.3025780" lon="-1.3977550">
        <ele>1359.4</ele>
        <time>2019-07-05T10:07:13Z</time>
      </trkpt>
      <trkpt lat="40.3025460" lon="-1.3978760">
        <ele>1359.0</ele>
        <time>2019-07-05T10:07:14Z</time>
      </trkpt>
      <trkpt lat="40.3025250" lon="-1.3980040">
        <ele>1358.6</ele>
        <time>2019-07-05T10:07:15Z</time>
      </trkpt>
      <trkpt lat="40.3025120" lon="-1.3981360">
        <ele>1358.2</ele>
        <time>2019-07-05T10:07:16Z</time>
      </trkpt>
      <trkpt lat="40.3024990" lon="-1.3984070">
        <ele>1357.4</ele>
        <time>2019-07-05T10:07:18Z</time>
      </trkpt>
      <trkpt lat="40.3024860" lon="-1.3986810">
        <ele>1355.8</ele>
        <time>2019-07-05T10:07:20Z</time>
      </trkpt>
      <trkpt lat="40.3024750" lon="-1.3989560">
        <ele>1354.6</ele>
        <time>2019-07-05T10:07:22Z</time>
      </trkpt>
      <trkpt lat="40.3024680" lon="-1.3992360">
        <ele>1353.2</ele>
        <time>2019-07-05T10:07:24Z</time>
      </trkpt>
      <trkpt lat="40.3024600" lon="-1.3995210">
        <ele>1351.8</ele>
        <time>2019-07-05T10:07:26Z</time>
      </trkpt>
      <trkpt lat="40.3024540" lon="-1.3998090">
        <ele>1350.4</ele>
        <time>2019-07-05T10:07:28Z</time>
      </trkpt>
      <trkpt lat="40.3024440" lon="-1.4000970">
        <ele>1349.2</ele>
        <time>2019-07-05T10:07:30Z</time>
      </trkpt>
      <trkpt lat="40.3024390" lon="-1.4002410">
        <ele>1348.4</ele>
        <time>2019-07-05T10:07:31Z</time>
      </trkpt>
      <trkpt lat="40.3024350" lon="-1.4003840">
        <ele>1347.6</ele>
        <time>2019-07-05T10:07:32Z</time>
      </trkpt>
      <trkpt lat="40.3024240" lon="-1.4006730">
        <ele>1346.6</ele>
        <time>2019-07-05T10:07:34Z</time>
      </trkpt>
      <trkpt lat="40.3024120" lon="-1.4011120">
        <ele>1345.0</ele>
        <time>2019-07-05T10:07:37Z</time>
      </trkpt>
      <trkpt lat="40.3024010" lon="-1.4014100">
        <ele>1343.4</ele>
        <time>2019-07-05T10:07:39Z</time>
      </trkpt>
      <trkpt lat="40.3023740" lon="-1.4017090">
        <ele>1341.8</ele>
        <time>2019-07-05T10:07:41Z</time>
      </trkpt>
      <trkpt lat="40.3023210" lon="-1.4020110">
        <ele>1340.8</ele>
        <time>2019-07-05T10:07:43Z</time>
      </trkpt>
      <trkpt lat="40.3022870" lon="-1.4021630">
        <ele>1340.0</ele>
        <time>2019-07-05T10:07:44Z</time>
      </trkpt>
      <trkpt lat="40.3022490" lon="-1.4023190">
        <ele>1339.0</ele>
        <time>2019-07-05T10:07:45Z</time>
      </trkpt>
      <trkpt lat="40.3021510" lon="-1.4026240">
        <ele>1337.0</ele>
        <time>2019-07-05T10:07:47Z</time>
      </trkpt>
      <trkpt lat="40.3020890" lon="-1.4027700">
        <ele>1336.2</ele>
        <time>2019-07-05T10:07:48Z</time>
      </trkpt>
      <trkpt lat="40.3020190" lon="-1.4029070">
        <ele>1335.6</ele>
        <time>2019-07-05T10:07:49Z</time>
      </trkpt>
      <trkpt lat="40.3018550" lon="-1.4031540">
        <ele>1334.0</ele>
        <time>2019-07-05T10:07:51Z</time>
      </trkpt>
      <trkpt lat="40.3016720" lon="-1.4033700">
        <ele>1332.4</ele>
        <time>2019-07-05T10:07:53Z</time>
      </trkpt>
      <trkpt lat="40.3014690" lon="-1.4035510">
        <ele>1330.0</ele>
        <time>2019-07-05T10:07:55Z</time>
      </trkpt>
      <trkpt lat="40.3012520" lon="-1.4036950">
        <ele>1328.6</ele>
        <time>2019-07-05T10:07:57Z</time>
      </trkpt>
      <trkpt lat="40.3011400" lon="-1.4037530">
        <ele>1328.4</ele>
        <time>2019-07-05T10:07:58Z</time>
      </trkpt>
      <trkpt lat="40.3010300" lon="-1.4038100">
        <ele>1327.8</ele>
        <time>2019-07-05T10:07:59Z</time>
      </trkpt>
      <trkpt lat="40.3009190" lon="-1.4038680">
        <ele>1327.0</ele>
        <time>2019-07-05T10:08:00Z</time>
      </trkpt>
      <trkpt lat="40.3006970" lon="-1.4039750">
        <ele>1325.0</ele>
        <time>2019-07-05T10:08:02Z</time>
      </trkpt>
      <trkpt lat="40.3005860" lon="-1.4040280">
        <ele>1323.8</ele>
        <time>2019-07-05T10:08:03Z</time>
      </trkpt>
      <trkpt lat="40.3003660" lon="-1.4041410">
        <ele>1322.6</ele>
        <time>2019-07-05T10:08:05Z</time>
      </trkpt>
      <trkpt lat="40.3002580" lon="-1.4042010">
        <ele>1321.8</ele>
        <time>2019-07-05T10:08:06Z</time>
      </trkpt>
      <trkpt lat="40.3001510" lon="-1.4042620">
        <ele>1321.2</ele>
        <time>2019-07-05T10:08:07Z</time>
      </trkpt>
      <trkpt lat="40.2999460" lon="-1.4044110">
        <ele>1319.8</ele>
        <time>2019-07-05T10:08:09Z</time>
      </trkpt>
      <trkpt lat="40.2998530" lon="-1.4045100">
        <ele>1318.8</ele>
        <time>2019-07-05T10:08:10Z</time>
      </trkpt>
      <trkpt lat="40.2997700" lon="-1.4046250">
        <ele>1317.4</ele>
        <time>2019-07-05T10:08:11Z</time>
      </trkpt>
      <trkpt lat="40.2996300" lon="-1.4048910">
        <ele>1315.6</ele>
        <time>2019-07-05T10:08:13Z</time>
      </trkpt>
      <trkpt lat="40.2995320" lon="-1.4051910">
        <ele>1314.0</ele>
        <time>2019-07-05T10:08:15Z</time>
      </trkpt>
      <trkpt lat="40.2995030" lon="-1.4053510">
        <ele>1313.0</ele>
        <time>2019-07-05T10:08:16Z</time>
      </trkpt>
      <trkpt lat="40.2994800" lon="-1.4055110">
        <ele>1312.0</ele>
        <time>2019-07-05T10:08:17Z</time>
      </trkpt>
      <trkpt lat="40.2994600" lon="-1.4056710">
        <ele>1311.2</ele>
        <time>2019-07-05T10:08:18Z</time>
      </trkpt>
      <trkpt lat="40.2994390" lon="-1.4058310">
        <ele>1310.0</ele>
        <time>2019-07-05T10:08:19Z</time>
      </trkpt>
      <trkpt lat="40.2993980" lon="-1.4061460">
        <ele>1308.8</ele>
        <time>2019-07-05T10:08:21Z</time>
      </trkpt>
      <trkpt lat="40.2993620" lon="-1.4064590">
        <ele>1307.8</ele>
        <time>2019-07-05T10:08:23Z</time>
      </trkpt>
      <trkpt lat="40.2993460" lon="-1.4066160">
        <ele>1307.0</ele>
        <time>2019-07-05T10:08:24Z</time>
      </trkpt>
      <trkpt lat="40.2993320" lon="-1.4067700">
        <ele>1306.0</ele>
        <time>2019-07-05T10:08:25Z</time>
      </trkpt>
      <trkpt lat="40.2993050" lon="-1.4070700">
        <ele>1304.4</ele>
        <time>2019-07-05T10:08:27Z</time>
      </trkpt>
      <trkpt lat="40.2992890" lon="-1.4072150">
        <ele>1303.4</ele>
        <time>2019-07-05T10:08:28Z</time>
      </trkpt>
      <trkpt lat="40.2992510" lon="-1.4074900">
        <ele>1301.8</ele>
        <time>2019-07-05T10:08:30Z</time>
      </trkpt>
      <trkpt lat="40.2991820" lon="-1.4080920">
        <ele>1301.0</ele>
        <time>2019-07-05T10:08:35Z</time>
      </trkpt>
      <trkpt lat="40.2991680" lon="-1.4084040">
        <ele>1301.2</ele>
        <time>2019-07-05T10:08:38Z</time>
      </trkpt>
      <trkpt lat="40.2991860" lon="-1.4085990">
        <ele>1301.0</ele>
        <time>2019-07-05T10:08:40Z</time>
      </trkpt>
      <trkpt lat="40.2992320" lon="-1.4088710">
        <ele>1301.4</ele>
        <time>2019-07-05T10:08:43Z</time>
      </trkpt>
      <trkpt lat="40.2993060" lon="-1.4091140">
        <ele>1301.6</ele>
        <time>2019-07-05T10:08:46Z</time>
      </trkpt>
      <trkpt lat="40.2995260" lon="-1.4095410">
        <ele>1301.4</ele>
        <time>2019-07-05T10:08:52Z</time>
      </trkpt>
      <trkpt lat="40.2996980" lon="-1.4097840">
        <ele>1301.4</ele>
        <time>2019-07-05T10:08:56Z</time>
      </trkpt>
      <trkpt lat="40.2997790" lon="-1.4099090">
        <ele>1301.4</ele>
        <time>2019-07-05T10:08:58Z</time>
      </trkpt>
      <trkpt lat="40.3000810" lon="-1.4102970">
        <ele>1301.8</ele>
        <time>2019-07-05T10:09:05Z</time>
      </trkpt>
      <trkpt lat="40.3001990" lon="-1.4104570">
        <ele>1302.0</ele>
        <time>2019-07-05T10:09:08Z</time>
      </trkpt>
      <trkpt lat="40.3003570" lon="-1.4106520">
        <ele>1302.6</ele>
        <time>2019-07-05T10:09:12Z</time>
      </trkpt>
      <trkpt lat="40.3004550" lon="-1.4107980">
        <ele>1303.0</ele>
        <time>2019-07-05T10:09:15Z</time>
      </trkpt>
      <trkpt lat="40.3005630" lon="-1.4109270">
        <ele>1303.4</ele>
        <time>2019-07-05T10:09:18Z</time>
      </trkpt>
      <trkpt lat="40.3006910" lon="-1.4111150">
        <ele>1303.8</ele>
        <time>2019-07-05T10:09:22Z</time>
      </trkpt>
      <trkpt lat="40.3007580" lon="-1.4112070">
        <ele>1304.0</ele>
        <time>2019-07-05T10:09:24Z</time>
      </trkpt>
      <trkpt lat="40.3008640" lon="-1.4113450">
        <ele>1304.8</ele>
        <time>2019-07-05T10:09:27Z</time>
      </trkpt>
      <trkpt lat="40.3011140" lon="-1.4116910">
        <ele>1305.2</ele>
        <time>2019-07-05T10:09:34Z</time>
      </trkpt>
      <trkpt lat="40.3011510" lon="-1.4117420">
        <ele>1305.2</ele>
        <time>2019-07-05T10:09:35Z</time>
      </trkpt>
      <trkpt lat="40.3014870" lon="-1.4122200">
        <ele>1305.8</ele>
        <time>2019-07-05T10:09:44Z</time>
      </trkpt>
      <trkpt lat="40.3017290" lon="-1.4125420">
        <ele>1305.8</ele>
        <time>2019-07-05T10:09:50Z</time>
      </trkpt>
      <trkpt lat="40.3019680" lon="-1.4128700">
        <ele>1306.0</ele>
        <time>2019-07-05T10:09:56Z</time>
      </trkpt>
      <trkpt lat="40.3021610" lon="-1.4131420">
        <ele>1306.4</ele>
        <time>2019-07-05T10:10:01Z</time>
      </trkpt>
      <trkpt lat="40.3024120" lon="-1.4134900">
        <ele>1307.4</ele>
        <time>2019-07-05T10:10:08Z</time>
      </trkpt>
      <trkpt lat="40.3025730" lon="-1.4137330">
        <ele>1308.4</ele>
        <time>2019-07-05T10:10:13Z</time>
      </trkpt>
      <trkpt lat="40.3026060" lon="-1.4137790">
        <ele>1308.6</ele>
        <time>2019-07-05T10:10:14Z</time>
      </trkpt>
      <trkpt lat="40.3026780" lon="-1.4138590">
        <ele>1308.8</ele>
        <time>2019-07-05T10:10:16Z</time>
      </trkpt>
      <trkpt lat="40.3027140" lon="-1.4138990">
        <ele>1308.8</ele>
        <time>2019-07-05T10:10:17Z</time>
      </trkpt>
      <trkpt lat="40.3028360" lon="-1.4140870">
        <ele>1309.2</ele>
        <time>2019-07-05T10:10:21Z</time>
      </trkpt>
      <trkpt lat="40.3029060" lon="-1.4141710">
        <ele>1309.8</ele>
        <time>2019-07-05T10:10:23Z</time>
      </trkpt>
      <trkpt lat="40.3030560" lon="-1.4143800">
        <ele>1310.4</ele>
        <time>2019-07-05T10:10:28Z</time>
      </trkpt>
      <trkpt lat="40.3031170" lon="-1.4144590">
        <ele>1310.6</ele>
        <time>2019-07-05T10:10:30Z</time>
      </trkpt>
      <trkpt lat="40.3031450" lon="-1.4145030">
        <ele>1311.0</ele>
        <time>2019-07-05T10:10:31Z</time>
      </trkpt>
      <trkpt lat="40.3032370" lon="-1.4146340">
        <ele>1311.4</ele>
        <time>2019-07-05T10:10:34Z</time>
      </trkpt>
      <trkpt lat="40.3033650" lon="-1.4148080">
        <ele>1312.0</ele>
        <time>2019-07-05T10:10:38Z</time>
      </trkpt>
      <trkpt lat="40.3034830" lon="-1.4149890">
        <ele>1312.6</ele>
        <time>2019-07-05T10:10:42Z</time>
      </trkpt>
      <trkpt lat="40.3035460" lon="-1.4150780">
        <ele>1313.0</ele>
        <time>2019-07-05T10:10:44Z</time>
      </trkpt>
      <trkpt lat="40.3037570" lon="-1.4154090">
        <ele>1314.0</ele>
        <time>2019-07-05T10:10:51Z</time>
      </trkpt>
      <trkpt lat="40.3037850" lon="-1.4154570">
        <ele>1314.0</ele>
        <time>2019-07-05T10:10:52Z</time>
      </trkpt>
      <trkpt lat="40.3039190" lon="-1.4157040">
        <ele>1314.6</ele>
        <time>2019-07-05T10:10:57Z</time>
      </trkpt>
      <trkpt lat="40.3039590" lon="-1.4158140">
        <ele>1315.0</ele>
        <time>2019-07-05T10:10:59Z</time>
      </trkpt>
      <trkpt lat="40.3039930" lon="-1.4159270">
        <ele>1315.4</ele>
        <time>2019-07-05T10:11:01Z</time>
      </trkpt>
      <trkpt lat="40.3040350" lon="-1.4160950">
        <ele>1316.0</ele>
        <time>2019-07-05T10:11:04Z</time>
      </trkpt>
      <trkpt lat="40.3040450" lon="-1.4161500">
        <ele>1316.2</ele>
        <time>2019-07-05T10:11:05Z</time>
      </trkpt>
      <trkpt lat="40.3040730" lon="-1.4163100">
        <ele>1316.6</ele>
        <time>2019-07-05T10:11:08Z</time>
      </trkpt>
      <trkpt lat="40.3040990" lon="-1.4164660">
        <ele>1317.2</ele>
        <time>2019-07-05T10:11:11Z</time>
      </trkpt>
      <trkpt lat="40.3041040" lon="-1.4165170">
        <ele>1317.4</ele>
        <time>2019-07-05T10:11:12Z</time>
      </trkpt>
      <trkpt lat="40.3041220" lon="-1.4167370">
        <ele>1317.8</ele>
        <time>2019-07-05T10:11:16Z</time>
      </trkpt>
      <trkpt lat="40.3041390" lon="-1.4168990">
        <ele>1318.2</ele>
        <time>2019-07-05T10:11:19Z</time>
      </trkpt>
      <trkpt lat="40.3041810" lon="-1.4171710">
        <ele>1319.2</ele>
        <time>2019-07-05T10:11:24Z</time>
      </trkpt>
      <trkpt lat="40.3041890" lon="-1.4172270">
        <ele>1319.4</ele>
        <time>2019-07-05T10:11:25Z</time>
      </trkpt>
      <trkpt lat="40.3042160" lon="-1.4175600">
        <ele>1320.4</ele>
        <time>2019-07-05T10:11:31Z</time>
      </trkpt>
      <trkpt lat="40.3042200" lon="-1.4176160">
        <ele>1320.6</ele>
        <time>2019-07-05T10:11:32Z</time>
      </trkpt>
      <trkpt lat="40.3042380" lon="-1.4177770">
        <ele>1321.0</ele>
        <time>2019-07-05T10:11:35Z</time>
      </trkpt>
      <trkpt lat="40.3042600" lon="-1.4179290">
        <ele>1321.6</ele>
        <time>2019-07-05T10:11:38Z</time>
      </trkpt>
      <trkpt lat="40.3042670" lon="-1.4179810">
        <ele>1321.8</ele>
        <time>2019-07-05T10:11:39Z</time>
      </trkpt>
      <trkpt lat="40.3042900" lon="-1.4182400">
        <ele>1322.8</ele>
        <time>2019-07-05T10:11:44Z</time>
      </trkpt>
      <trkpt lat="40.3043120" lon="-1.4183920">
        <ele>1323.2</ele>
        <time>2019-07-05T10:11:47Z</time>
      </trkpt>
      <trkpt lat="40.3043320" lon="-1.4185970">
        <ele>1324.0</ele>
        <time>2019-07-05T10:11:51Z</time>
      </trkpt>
      <trkpt lat="40.3043530" lon="-1.4187960">
        <ele>1324.6</ele>
        <time>2019-07-05T10:11:55Z</time>
      </trkpt>
      <trkpt lat="40.3043680" lon="-1.4189410">
        <ele>1325.2</ele>
        <time>2019-07-05T10:11:58Z</time>
      </trkpt>
      <trkpt lat="40.3043960" lon="-1.4191680">
        <ele>1326.0</ele>
        <time>2019-07-05T10:12:03Z</time>
      </trkpt>
      <trkpt lat="40.3044010" lon="-1.4192130">
        <ele>1326.4</ele>
        <time>2019-07-05T10:12:04Z</time>
      </trkpt>
      <trkpt lat="40.3044270" lon="-1.4194310">
        <ele>1327.4</ele>
        <time>2019-07-05T10:12:09Z</time>
      </trkpt>
      <trkpt lat="40.3044390" lon="-1.4195180">
        <ele>1327.8</ele>
        <time>2019-07-05T10:12:11Z</time>
      </trkpt>
      <trkpt lat="40.3044560" lon="-1.4196470">
        <ele>1328.6</ele>
        <time>2019-07-05T10:12:14Z</time>
      </trkpt>
      <trkpt lat="40.3044780" lon="-1.4198190">
        <ele>1329.6</ele>
        <time>2019-07-05T10:12:18Z</time>
      </trkpt>
      <trkpt lat="40.3044830" lon="-1.4198620">
        <ele>1329.8</ele>
        <time>2019-07-05T10:12:19Z</time>
      </trkpt>
      <trkpt lat="40.3045030" lon="-1.4200810">
        <ele>1330.6</ele>
        <time>2019-07-05T10:12:24Z</time>
      </trkpt>
      <trkpt lat="40.3045180" lon="-1.4202120">
        <ele>1331.2</ele>
        <time>2019-07-05T10:12:27Z</time>
      </trkpt>
      <trkpt lat="40.3045250" lon="-1.4203480">
        <ele>1331.8</ele>
        <time>2019-07-05T10:12:30Z</time>
      </trkpt>
      <trkpt lat="40.3045380" lon="-1.4205330">
        <ele>1332.4</ele>
        <time>2019-07-05T10:12:34Z</time>
      </trkpt>
      <trkpt lat="40.3045440" lon="-1.4206270">
        <ele>1332.8</ele>
        <time>2019-07-05T10:12:36Z</time>
      </trkpt>
      <trkpt lat="40.3045450" lon="-1.4208100">
        <ele>1334.0</ele>
        <time>2019-07-05T10:12:40Z</time>
      </trkpt>
      <trkpt lat="40.3045420" lon="-1.4209510">
        <ele>1334.6</ele>
        <time>2019-07-05T10:12:43Z</time>
      </trkpt>
      <trkpt lat="40.3045450" lon="-1.4209990">
        <ele>1335.0</ele>
        <time>2019-07-05T10:12:44Z</time>
      </trkpt>
      <trkpt lat="40.3045580" lon="-1.4212930">
        <ele>1336.2</ele>
        <time>2019-07-05T10:12:50Z</time>
      </trkpt>
      <trkpt lat="40.3045520" lon="-1.4213950">
        <ele>1336.6</ele>
        <time>2019-07-05T10:12:52Z</time>
      </trkpt>
      <trkpt lat="40.3045610" lon="-1.4218050">
        <ele>1337.2</ele>
        <time>2019-07-05T10:13:00Z</time>
      </trkpt>
      <trkpt lat="40.3045640" lon="-1.4219140">
        <ele>1337.4</ele>
        <time>2019-07-05T10:13:02Z</time>
      </trkpt>
      <trkpt lat="40.3045600" lon="-1.4220850">
        <ele>1337.6</ele>
        <time>2019-07-05T10:13:05Z</time>
      </trkpt>
      <trkpt lat="40.3045620" lon="-1.4221420">
        <ele>1337.8</ele>
        <time>2019-07-05T10:13:06Z</time>
      </trkpt>
      <trkpt lat="40.3045600" lon="-1.4223140">
        <ele>1338.4</ele>
        <time>2019-07-05T10:13:09Z</time>
      </trkpt>
      <trkpt lat="40.3045630" lon="-1.4225940">
        <ele>1339.4</ele>
        <time>2019-07-05T10:13:14Z</time>
      </trkpt>
      <trkpt lat="40.3045740" lon="-1.4230280">
        <ele>1340.4</ele>
        <time>2019-07-05T10:13:22Z</time>
      </trkpt>
      <trkpt lat="40.3045770" lon="-1.4230830">
        <ele>1340.6</ele>
        <time>2019-07-05T10:13:23Z</time>
      </trkpt>
      <trkpt lat="40.3046010" lon="-1.4233520">
        <ele>1341.6</ele>
        <time>2019-07-05T10:13:28Z</time>
      </trkpt>
      <trkpt lat="40.3046180" lon="-1.4235060">
        <ele>1341.8</ele>
        <time>2019-07-05T10:13:31Z</time>
      </trkpt>
      <trkpt lat="40.3046460" lon="-1.4237420">
        <ele>1342.6</ele>
        <time>2019-07-05T10:13:36Z</time>
      </trkpt>
      <trkpt lat="40.3046580" lon="-1.4239340">
        <ele>1343.2</ele>
        <time>2019-07-05T10:13:40Z</time>
      </trkpt>
      <trkpt lat="40.3046850" lon="-1.4241290">
        <ele>1343.8</ele>
        <time>2019-07-05T10:13:44Z</time>
      </trkpt>
      <trkpt lat="40.3047060" lon="-1.4243210">
        <ele>1344.4</ele>
        <time>2019-07-05T10:13:48Z</time>
      </trkpt>
      <trkpt lat="40.3047260" lon="-1.4245150">
        <ele>1345.0</ele>
        <time>2019-07-05T10:13:52Z</time>
      </trkpt>
      <trkpt lat="40.3047410" lon="-1.4247140">
        <ele>1345.6</ele>
        <time>2019-07-05T10:13:56Z</time>
      </trkpt>
      <trkpt lat="40.3047690" lon="-1.4249230">
        <ele>1346.0</ele>
        <time>2019-07-05T10:14:00Z</time>
      </trkpt>
      <trkpt lat="40.3047770" lon="-1.4249770">
        <ele>1346.0</ele>
        <time>2019-07-05T10:14:01Z</time>
      </trkpt>
      <trkpt lat="40.3048050" lon="-1.4251420">
        <ele>1346.0</ele>
        <time>2019-07-05T10:14:04Z</time>
      </trkpt>
      <trkpt lat="40.3048330" lon="-1.4252580">
        <ele>1345.8</ele>
        <time>2019-07-05T10:14:06Z</time>
      </trkpt>
      <trkpt lat="40.3049170" lon="-1.4255090">
        <ele>1345.2</ele>
        <time>2019-07-05T10:14:10Z</time>
      </trkpt>
      <trkpt lat="40.3049690" lon="-1.4256410">
        <ele>1345.0</ele>
        <time>2019-07-05T10:14:12Z</time>
      </trkpt>
      <trkpt lat="40.3050930" lon="-1.4259030">
        <ele>1344.0</ele>
        <time>2019-07-05T10:14:16Z</time>
      </trkpt>
      <trkpt lat="40.3051570" lon="-1.4260350">
        <ele>1343.8</ele>
        <time>2019-07-05T10:14:18Z</time>
      </trkpt>
      <trkpt lat="40.3052470" lon="-1.4262250">
        <ele>1343.8</ele>
        <time>2019-07-05T10:14:21Z</time>
      </trkpt>
      <trkpt lat="40.3053250" lon="-1.4264150">
        <ele>1344.0</ele>
        <time>2019-07-05T10:14:24Z</time>
      </trkpt>
      <trkpt lat="40.3053450" lon="-1.4264810">
        <ele>1344.2</ele>
        <time>2019-07-05T10:14:25Z</time>
      </trkpt>
      <trkpt lat="40.3053860" lon="-1.4266090">
        <ele>1344.4</ele>
        <time>2019-07-05T10:14:27Z</time>
      </trkpt>
      <trkpt lat="40.3054030" lon="-1.4266730">
        <ele>1344.8</ele>
        <time>2019-07-05T10:14:28Z</time>
      </trkpt>
      <trkpt lat="40.3054160" lon="-1.4267370">
        <ele>1345.0</ele>
        <time>2019-07-05T10:14:29Z</time>
      </trkpt>
      <trkpt lat="40.3054360" lon="-1.4268650">
        <ele>1345.4</ele>
        <time>2019-07-05T10:14:31Z</time>
      </trkpt>
      <trkpt lat="40.3054570" lon="-1.4271870">
        <ele>1346.0</ele>
        <time>2019-07-05T10:14:36Z</time>
      </trkpt>
      <trkpt lat="40.3054540" lon="-1.4273160">
        <ele>1346.0</ele>
        <time>2019-07-05T10:14:38Z</time>
      </trkpt>
      <trkpt lat="40.3054320" lon="-1.4278160">
        <ele>1346.4</ele>
        <time>2019-07-05T10:14:46Z</time>
      </trkpt>
      <trkpt lat="40.3054100" lon="-1.4281940">
        <ele>1347.4</ele>
        <time>2019-07-05T10:14:52Z</time>
      </trkpt>
      <trkpt lat="40.3053900" lon="-1.4285070">
        <ele>1347.8</ele>
        <time>2019-07-05T10:14:57Z</time>
      </trkpt>
      <trkpt lat="40.3053750" lon="-1.4287040">
        <ele>1348.0</ele>
        <time>2019-07-05T10:15:00Z</time>
      </trkpt>
      <trkpt lat="40.3053610" lon="-1.4289010">
        <ele>1348.4</ele>
        <time>2019-07-05T10:15:03Z</time>
      </trkpt>
      <trkpt lat="40.3053450" lon="-1.4291590">
        <ele>1348.8</ele>
        <time>2019-07-05T10:15:07Z</time>
      </trkpt>
      <trkpt lat="40.3053240" lon="-1.4294760">
        <ele>1349.4</ele>
        <time>2019-07-05T10:15:12Z</time>
      </trkpt>
      <trkpt lat="40.3053060" lon="-1.4296640">
        <ele>1349.6</ele>
        <time>2019-07-05T10:15:15Z</time>
      </trkpt>
      <trkpt lat="40.3052970" lon="-1.4301510">
        <ele>1350.4</ele>
        <time>2019-07-05T10:15:23Z</time>
      </trkpt>
      <trkpt lat="40.3053050" lon="-1.4302560">
        <ele>1350.8</ele>
        <time>2019-07-05T10:15:25Z</time>
      </trkpt>
      <trkpt lat="40.3053270" lon="-1.4306670">
        <ele>1351.0</ele>
        <time>2019-07-05T10:15:33Z</time>
      </trkpt>
      <trkpt lat="40.3053330" lon="-1.4308860">
        <ele>1351.6</ele>
        <time>2019-07-05T10:15:37Z</time>
      </trkpt>
      <trkpt lat="40.3053550" lon="-1.4311680">
        <ele>1352.2</ele>
        <time>2019-07-05T10:15:42Z</time>
      </trkpt>
      <trkpt lat="40.3053550" lon="-1.4312260">
        <ele>1352.2</ele>
        <time>2019-07-05T10:15:43Z</time>
      </trkpt>
      <trkpt lat="40.3053630" lon="-1.4314000">
        <ele>1352.6</ele>
        <time>2019-07-05T10:15:46Z</time>
      </trkpt>
      <trkpt lat="40.3053800" lon="-1.4315800">
        <ele>1352.6</ele>
        <time>2019-07-05T10:15:49Z</time>
      </trkpt>
      <trkpt lat="40.3053790" lon="-1.4316390">
        <ele>1352.6</ele>
        <time>2019-07-05T10:15:50Z</time>
      </trkpt>
      <trkpt lat="40.3053810" lon="-1.4316980">
        <ele>1352.8</ele>
        <time>2019-07-05T10:15:51Z</time>
      </trkpt>
      <trkpt lat="40.3054000" lon="-1.4319370">
        <ele>1353.2</ele>
        <time>2019-07-05T10:15:55Z</time>
      </trkpt>
      <trkpt lat="40.3054110" lon="-1.4322240">
        <ele>1353.8</ele>
        <time>2019-07-05T10:16:00Z</time>
      </trkpt>
      <trkpt lat="40.3054130" lon="-1.4323850">
        <ele>1354.2</ele>
        <time>2019-07-05T10:16:03Z</time>
      </trkpt>
      <trkpt lat="40.3054170" lon="-1.4324400">
        <ele>1354.4</ele>
        <time>2019-07-05T10:16:04Z</time>
      </trkpt>
      <trkpt lat="40.3054310" lon="-1.4325450">
        <ele>1354.4</ele>
        <time>2019-07-05T10:16:06Z</time>
      </trkpt>
      <trkpt lat="40.3054340" lon="-1.4326520">
        <ele>1354.6</ele>
        <time>2019-07-05T10:16:08Z</time>
      </trkpt>
      <trkpt lat="40.3054350" lon="-1.4328060">
        <ele>1354.8</ele>
        <time>2019-07-05T10:16:11Z</time>
      </trkpt>
      <trkpt lat="40.3054570" lon="-1.4330100">
        <ele>1355.4</ele>
        <time>2019-07-05T10:16:15Z</time>
      </trkpt>
      <trkpt lat="40.3054660" lon="-1.4332110">
        <ele>1356.0</ele>
        <time>2019-07-05T10:16:19Z</time>
      </trkpt>
      <trkpt lat="40.3054780" lon="-1.4334130">
        <ele>1356.4</ele>
        <time>2019-07-05T10:16:23Z</time>
      </trkpt>
      <trkpt lat="40.3054860" lon="-1.4337610">
        <ele>1357.2</ele>
        <time>2019-07-05T10:16:30Z</time>
      </trkpt>
      <trkpt lat="40.3055170" lon="-1.4341060">
        <ele>1358.2</ele>
        <time>2019-07-05T10:16:37Z</time>
      </trkpt>
      <trkpt lat="40.3055240" lon="-1.4342080">
        <ele>1358.8</ele>
        <time>2019-07-05T10:16:39Z</time>
      </trkpt>
      <trkpt lat="40.3055330" lon="-1.4343610">
        <ele>1359.2</ele>
        <time>2019-07-05T10:16:42Z</time>
      </trkpt>
      <trkpt lat="40.3055440" lon="-1.4346050">
        <ele>1359.8</ele>
        <time>2019-07-05T10:16:47Z</time>
      </trkpt>
      <trkpt lat="40.3055710" lon="-1.4349360">
        <ele>1360.4</ele>
        <time>2019-07-05T10:16:54Z</time>
      </trkpt>
      <trkpt lat="40.3055750" lon="-1.4349850">
        <ele>1360.4</ele>
        <time>2019-07-05T10:16:55Z</time>
      </trkpt>
      <trkpt lat="40.3055740" lon="-1.4353360">
        <ele>1361.6</ele>
        <time>2019-07-05T10:17:02Z</time>
      </trkpt>
      <trkpt lat="40.3055750" lon="-1.4353870">
        <ele>1361.6</ele>
        <time>2019-07-05T10:17:03Z</time>
      </trkpt>
      <trkpt lat="40.3055980" lon="-1.4356370">
        <ele>1362.8</ele>
        <time>2019-07-05T10:17:08Z</time>
      </trkpt>
      <trkpt lat="40.3056030" lon="-1.4357920">
        <ele>1363.4</ele>
        <time>2019-07-05T10:17:11Z</time>
      </trkpt>
      <trkpt lat="40.3056060" lon="-1.4358960">
        <ele>1363.8</ele>
        <time>2019-07-05T10:17:13Z</time>
      </trkpt>
      <trkpt lat="40.3056050" lon="-1.4361630">
        <ele>1364.8</ele>
        <time>2019-07-05T10:17:18Z</time>
      </trkpt>
      <trkpt lat="40.3056090" lon="-1.4362170">
        <ele>1365.0</ele>
        <time>2019-07-05T10:17:19Z</time>
      </trkpt>
      <trkpt lat="40.3056140" lon="-1.4363230">
        <ele>1365.2</ele>
        <time>2019-07-05T10:17:21Z</time>
      </trkpt>
      <trkpt lat="40.3055980" lon="-1.4364880">
        <ele>1365.6</ele>
        <time>2019-07-05T10:17:24Z</time>
      </trkpt>
      <trkpt lat="40.3055920" lon="-1.4365440">
        <ele>1365.6</ele>
        <time>2019-07-05T10:17:25Z</time>
      </trkpt>
      <trkpt lat="40.3055900" lon="-1.4368220">
        <ele>1366.2</ele>
        <time>2019-07-05T10:17:30Z</time>
      </trkpt>
      <trkpt lat="40.3055610" lon="-1.4370910">
        <ele>1367.0</ele>
        <time>2019-07-05T10:17:35Z</time>
      </trkpt>
      <trkpt lat="40.3055630" lon="-1.4371980">
        <ele>1367.2</ele>
        <time>2019-07-05T10:17:37Z</time>
      </trkpt>
      <trkpt lat="40.3055440" lon="-1.4375050">
        <ele>1367.8</ele>
        <time>2019-07-05T10:17:43Z</time>
      </trkpt>
      <trkpt lat="40.3055420" lon="-1.4376480">
        <ele>1368.2</ele>
        <time>2019-07-05T10:17:46Z</time>
      </trkpt>
      <trkpt lat="40.3055350" lon="-1.4377890">
        <ele>1369.0</ele>
        <time>2019-07-05T10:17:49Z</time>
      </trkpt>
      <trkpt lat="40.3055310" lon="-1.4378810">
        <ele>1369.4</ele>
        <time>2019-07-05T10:17:51Z</time>
      </trkpt>
      <trkpt lat="40.3055080" lon="-1.4382070">
        <ele>1370.4</ele>
        <time>2019-07-05T10:17:58Z</time>
      </trkpt>
      <trkpt lat="40.3054950" lon="-1.4385810">
        <ele>1371.4</ele>
        <time>2019-07-05T10:18:06Z</time>
      </trkpt>
      <trkpt lat="40.3054720" lon="-1.4387970">
        <ele>1372.4</ele>
        <time>2019-07-05T10:18:11Z</time>
      </trkpt>
      <trkpt lat="40.3054700" lon="-1.4388860">
        <ele>1373.0</ele>
        <time>2019-07-05T10:18:13Z</time>
      </trkpt>
      <trkpt lat="40.3054660" lon="-1.4390200">
        <ele>1373.4</ele>
        <time>2019-07-05T10:18:16Z</time>
      </trkpt>
      <trkpt lat="40.3054480" lon="-1.4392820">
        <ele>1374.0</ele>
        <time>2019-07-05T10:18:22Z</time>
      </trkpt>
      <trkpt lat="40.3054320" lon="-1.4395020">
        <ele>1374.6</ele>
        <time>2019-07-05T10:18:27Z</time>
      </trkpt>
      <trkpt lat="40.3054230" lon="-1.4395900">
        <ele>1375.0</ele>
        <time>2019-07-05T10:18:29Z</time>
      </trkpt>
      <trkpt lat="40.3054140" lon="-1.4397670">
        <ele>1375.8</ele>
        <time>2019-07-05T10:18:33Z</time>
      </trkpt>
      <trkpt lat="40.3053890" lon="-1.4399040">
        <ele>1376.0</ele>
        <time>2019-07-05T10:18:36Z</time>
      </trkpt>
      <trkpt lat="40.3053620" lon="-1.4400870">
        <ele>1376.8</ele>
        <time>2019-07-05T10:18:40Z</time>
      </trkpt>
      <trkpt lat="40.3053500" lon="-1.4401780">
        <ele>1377.0</ele>
        <time>2019-07-05T10:18:42Z</time>
      </trkpt>
      <trkpt lat="40.3053140" lon="-1.4403520">
        <ele>1378.0</ele>
        <time>2019-07-05T10:18:46Z</time>
      </trkpt>
      <trkpt lat="40.3052930" lon="-1.4405300">
        <ele>1379.0</ele>
        <time>2019-07-05T10:18:50Z</time>
      </trkpt>
      <trkpt lat="40.3052500" lon="-1.4408220">
        <ele>1380.2</ele>
        <time>2019-07-05T10:18:57Z</time>
      </trkpt>
      <trkpt lat="40.3052430" lon="-1.4408630">
        <ele>1380.4</ele>
        <time>2019-07-05T10:18:58Z</time>
      </trkpt>
      <trkpt lat="40.3052000" lon="-1.4411110">
        <ele>1381.4</ele>
        <time>2019-07-05T10:19:04Z</time>
      </trkpt>
      <trkpt lat="40.3051820" lon="-1.4411930">
        <ele>1381.8</ele>
        <time>2019-07-05T10:19:06Z</time>
      </trkpt>
      <trkpt lat="40.3051530" lon="-1.4413180">
        <ele>1382.4</ele>
        <time>2019-07-05T10:19:09Z</time>
      </trkpt>
      <trkpt lat="40.3051220" lon="-1.4414930">
        <ele>1383.4</ele>
        <time>2019-07-05T10:19:13Z</time>
      </trkpt>
      <trkpt lat="40.3050960" lon="-1.4416240">
        <ele>1383.8</ele>
        <time>2019-07-05T10:19:16Z</time>
      </trkpt>
      <trkpt lat="40.3050090" lon="-1.4418340">
        <ele>1384.6</ele>
        <time>2019-07-05T10:19:21Z</time>
      </trkpt>
      <trkpt lat="40.3048880" lon="-1.4421610">
        <ele>1384.8</ele>
        <time>2019-07-05T10:19:28Z</time>
      </trkpt>
      <trkpt lat="40.3047860" lon="-1.4423710">
        <ele>1385.8</ele>
        <time>2019-07-05T10:19:33Z</time>
      </trkpt>
      <trkpt lat="40.3047510" lon="-1.4424600">
        <ele>1385.8</ele>
        <time>2019-07-05T10:19:35Z</time>
      </trkpt>
      <trkpt lat="40.3046210" lon="-1.4427150">
        <ele>1386.4</ele>
        <time>2019-07-05T10:19:41Z</time>
      </trkpt>
      <trkpt lat="40.3046010" lon="-1.4427610">
        <ele>1386.4</ele>
        <time>2019-07-05T10:19:42Z</time>
      </trkpt>
      <trkpt lat="40.3044990" lon="-1.4430720">
        <ele>1386.8</ele>
        <time>2019-07-05T10:19:48Z</time>
      </trkpt>
      <trkpt lat="40.3044710" lon="-1.4431790">
        <ele>1386.8</ele>
        <time>2019-07-05T10:19:50Z</time>
      </trkpt>
      <trkpt lat="40.3044030" lon="-1.4434910">
        <ele>1387.8</ele>
        <time>2019-07-05T10:19:56Z</time>
      </trkpt>
      <trkpt lat="40.3043930" lon="-1.4435420">
        <ele>1388.0</ele>
        <time>2019-07-05T10:19:57Z</time>
      </trkpt>
      <trkpt lat="40.3043340" lon="-1.4438410">
        <ele>1389.2</ele>
        <time>2019-07-05T10:20:03Z</time>
      </trkpt>
      <trkpt lat="40.3043140" lon="-1.4439430">
        <ele>1389.6</ele>
        <time>2019-07-05T10:20:05Z</time>
      </trkpt>
      <trkpt lat="40.3042660" lon="-1.4441910">
        <ele>1390.4</ele>
        <time>2019-07-05T10:20:10Z</time>
      </trkpt>
      <trkpt lat="40.3042380" lon="-1.4443380">
        <ele>1390.8</ele>
        <time>2019-07-05T10:20:13Z</time>
      </trkpt>
      <trkpt lat="40.3041840" lon="-1.4445740">
        <ele>1391.4</ele>
        <time>2019-07-05T10:20:18Z</time>
      </trkpt>
      <trkpt lat="40.3041740" lon="-1.4446220">
        <ele>1391.4</ele>
        <time>2019-07-05T10:20:19Z</time>
      </trkpt>
      <trkpt lat="40.3041130" lon="-1.4450270">
        <ele>1392.4</ele>
        <time>2019-07-05T10:20:27Z</time>
      </trkpt>
      <trkpt lat="40.3041100" lon="-1.4450780">
        <ele>1392.6</ele>
        <time>2019-07-05T10:20:28Z</time>
      </trkpt>
      <trkpt lat="40.3040670" lon="-1.4454810">
        <ele>1393.2</ele>
        <time>2019-07-05T10:20:36Z</time>
      </trkpt>
      <trkpt lat="40.3040560" lon="-1.4456290">
        <ele>1393.4</ele>
        <time>2019-07-05T10:20:39Z</time>
      </trkpt>
      <trkpt lat="40.3040260" lon="-1.4458230">
        <ele>1394.2</ele>
        <time>2019-07-05T10:20:43Z</time>
      </trkpt>
      <trkpt lat="40.3040210" lon="-1.4458740">
        <ele>1394.6</ele>
        <time>2019-07-05T10:20:44Z</time>
      </trkpt>
      <trkpt lat="40.3040050" lon="-1.4460710">
        <ele>1395.8</ele>
        <time>2019-07-05T10:20:48Z</time>
      </trkpt>
      <trkpt lat="40.3039730" lon="-1.4462650">
        <ele>1396.6</ele>
        <time>2019-07-05T10:20:52Z</time>
      </trkpt>
      <trkpt lat="40.3039660" lon="-1.4463140">
        <ele>1397.0</ele>
        <time>2019-07-05T10:20:53Z</time>
      </trkpt>
      <trkpt lat="40.3039000" lon="-1.4465990">
        <ele>1397.8</ele>
        <time>2019-07-05T10:20:59Z</time>
      </trkpt>
      <trkpt lat="40.3038670" lon="-1.4466890">
        <ele>1398.0</ele>
        <time>2019-07-05T10:21:01Z</time>
      </trkpt>
      <trkpt lat="40.3038170" lon="-1.4468850">
        <ele>1399.0</ele>
        <time>2019-07-05T10:21:05Z</time>
      </trkpt>
      <trkpt lat="40.3038030" lon="-1.4469330">
        <ele>1399.0</ele>
        <time>2019-07-05T10:21:06Z</time>
      </trkpt>
      <trkpt lat="40.3037240" lon="-1.4472240">
        <ele>1400.0</ele>
        <time>2019-07-05T10:21:12Z</time>
      </trkpt>
      <trkpt lat="40.3036000" lon="-1.4476710">
        <ele>1400.6</ele>
        <time>2019-07-05T10:21:21Z</time>
      </trkpt>
      <trkpt lat="40.3035530" lon="-1.4478620">
        <ele>1401.2</ele>
        <time>2019-07-05T10:21:25Z</time>
      </trkpt>
      <trkpt lat="40.3035030" lon="-1.4480400">
        <ele>1402.0</ele>
        <time>2019-07-05T10:21:29Z</time>
      </trkpt>
      <trkpt lat="40.3034790" lon="-1.4481320">
        <ele>1402.2</ele>
        <time>2019-07-05T10:21:31Z</time>
      </trkpt>
      <trkpt lat="40.3033930" lon="-1.4485110">
        <ele>1403.2</ele>
        <time>2019-07-05T10:21:39Z</time>
      </trkpt>
      <trkpt lat="40.3033820" lon="-1.4485630">
        <ele>1403.2</ele>
        <time>2019-07-05T10:21:40Z</time>
      </trkpt>
      <trkpt lat="40.3032920" lon="-1.4489960">
        <ele>1403.4</ele>
        <time>2019-07-05T10:21:48Z</time>
      </trkpt>
      <trkpt lat="40.3031890" lon="-1.4494450">
        <ele>1403.6</ele>
        <time>2019-07-05T10:21:56Z</time>
      </trkpt>
      <trkpt lat="40.3031620" lon="-1.4495560">
        <ele>1403.8</ele>
        <time>2019-07-05T10:21:58Z</time>
      </trkpt>
      <trkpt lat="40.3031110" lon="-1.4497790">
        <ele>1404.4</ele>
        <time>2019-07-05T10:22:02Z</time>
      </trkpt>
      <trkpt lat="40.3030970" lon="-1.4498330">
        <ele>1404.4</ele>
        <time>2019-07-05T10:22:03Z</time>
      </trkpt>
      <trkpt lat="40.3029910" lon="-1.4502940">
        <ele>1404.6</ele>
        <time>2019-07-05T10:22:11Z</time>
      </trkpt>
      <trkpt lat="40.3029130" lon="-1.4506270">
        <ele>1404.8</ele>
        <time>2019-07-05T10:22:17Z</time>
      </trkpt>
      <trkpt lat="40.3028850" lon="-1.4507370">
        <ele>1404.8</ele>
        <time>2019-07-05T10:22:19Z</time>
      </trkpt>
      <trkpt lat="40.3028220" lon="-1.4510180">
        <ele>1405.4</ele>
        <time>2019-07-05T10:22:24Z</time>
      </trkpt>
      <trkpt lat="40.3027950" lon="-1.4511310">
        <ele>1405.8</ele>
        <time>2019-07-05T10:22:26Z</time>
      </trkpt>
      <trkpt lat="40.3027840" lon="-1.4511870">
        <ele>1406.0</ele>
        <time>2019-07-05T10:22:27Z</time>
      </trkpt>
      <trkpt lat="40.3027200" lon="-1.4514600">
        <ele>1406.6</ele>
        <time>2019-07-05T10:22:32Z</time>
      </trkpt>
      <trkpt lat="40.3026390" lon="-1.4517880">
        <ele>1407.2</ele>
        <time>2019-07-05T10:22:38Z</time>
      </trkpt>
      <trkpt lat="40.3026020" lon="-1.4518970">
        <ele>1407.6</ele>
        <time>2019-07-05T10:22:40Z</time>
      </trkpt>
      <trkpt lat="40.3025700" lon="-1.4520070">
        <ele>1407.6</ele>
        <time>2019-07-05T10:22:42Z</time>
      </trkpt>
      <trkpt lat="40.3025540" lon="-1.4520620">
        <ele>1407.6</ele>
        <time>2019-07-05T10:22:43Z</time>
      </trkpt>
      <trkpt lat="40.3024810" lon="-1.4522130">
        <ele>1408.0</ele>
        <time>2019-07-05T10:22:46Z</time>
      </trkpt>
      <trkpt lat="40.3024100" lon="-1.4523680">
        <ele>1408.2</ele>
        <time>2019-07-05T10:22:49Z</time>
      </trkpt>
      <trkpt lat="40.3023110" lon="-1.4525670">
        <ele>1408.4</ele>
        <time>2019-07-05T10:22:53Z</time>
      </trkpt>
      <trkpt lat="40.3022240" lon="-1.4527050">
        <ele>1408.8</ele>
        <time>2019-07-05T10:22:56Z</time>
      </trkpt>
      <trkpt lat="40.3021040" lon="-1.4528960">
        <ele>1408.8</ele>
        <time>2019-07-05T10:23:00Z</time>
      </trkpt>
      <trkpt lat="40.3018820" lon="-1.4532140">
        <ele>1409.2</ele>
        <time>2019-07-05T10:23:07Z</time>
      </trkpt>
      <trkpt lat="40.3016600" lon="-1.4534640">
        <ele>1409.8</ele>
        <time>2019-07-05T10:23:13Z</time>
      </trkpt>
      <trkpt lat="40.3015870" lon="-1.4535410">
        <ele>1409.8</ele>
        <time>2019-07-05T10:23:15Z</time>
      </trkpt>
      <trkpt lat="40.3012990" lon="-1.4538450">
        <ele>1410.6</ele>
        <time>2019-07-05T10:23:23Z</time>
      </trkpt>
      <trkpt lat="40.3011850" lon="-1.4539630">
        <ele>1410.8</ele>
        <time>2019-07-05T10:23:26Z</time>
      </trkpt>
      <trkpt lat="40.3010360" lon="-1.4541270">
        <ele>1411.2</ele>
        <time>2019-07-05T10:23:30Z</time>
      </trkpt>
      <trkpt lat="40.3007640" lon="-1.4544080">
        <ele>1411.8</ele>
        <time>2019-07-05T10:23:37Z</time>
      </trkpt>
      <trkpt lat="40.3004740" lon="-1.4547220">
        <ele>1411.8</ele>
        <time>2019-07-05T10:23:44Z</time>
      </trkpt>
      <trkpt lat="40.3001550" lon="-1.4550550">
        <ele>1412.0</ele>
        <time>2019-07-05T10:23:51Z</time>
      </trkpt>
      <trkpt lat="40.2999140" lon="-1.4553070">
        <ele>1412.0</ele>
        <time>2019-07-05T10:23:56Z</time>
      </trkpt>
      <trkpt lat="40.2997700" lon="-1.4554560">
        <ele>1412.0</ele>
        <time>2019-07-05T10:23:59Z</time>
      </trkpt>
      <trkpt lat="40.2993750" lon="-1.4558650">
        <ele>1412.0</ele>
        <time>2019-07-05T10:24:07Z</time>
      </trkpt>
      <trkpt lat="40.2993250" lon="-1.4559150">
        <ele>1412.0</ele>
        <time>2019-07-05T10:24:08Z</time>
      </trkpt>
      <trkpt lat="40.2990810" lon="-1.4561790">
        <ele>1411.6</ele>
        <time>2019-07-05T10:24:13Z</time>
      </trkpt>
      <trkpt lat="40.2989380" lon="-1.4563310">
        <ele>1411.4</ele>
        <time>2019-07-05T10:24:16Z</time>
      </trkpt>
      <trkpt lat="40.2986380" lon="-1.4567280">
        <ele>1411.6</ele>
        <time>2019-07-05T10:24:23Z</time>
      </trkpt>
      <trkpt lat="40.2984480" lon="-1.4571220">
        <ele>1411.4</ele>
        <time>2019-07-05T10:24:29Z</time>
      </trkpt>
      <trkpt lat="40.2982660" lon="-1.4575290">
        <ele>1411.4</ele>
        <time>2019-07-05T10:24:35Z</time>
      </trkpt>
      <trkpt lat="40.2980290" lon="-1.4579230">
        <ele>1410.8</ele>
        <time>2019-07-05T10:24:41Z</time>
      </trkpt>
      <trkpt lat="40.2978180" lon="-1.4581450">
        <ele>1409.2</ele>
        <time>2019-07-05T10:24:45Z</time>
      </trkpt>
      <trkpt lat="40.2977610" lon="-1.4582010">
        <ele>1408.8</ele>
        <time>2019-07-05T10:24:46Z</time>
      </trkpt>
      <trkpt lat="40.2975750" lon="-1.4583630">
        <ele>1408.2</ele>
        <time>2019-07-05T10:24:49Z</time>
      </trkpt>
      <trkpt lat="40.2973210" lon="-1.4585600">
        <ele>1407.2</ele>
        <time>2019-07-05T10:24:53Z</time>
      </trkpt>
      <trkpt lat="40.2972590" lon="-1.4586110">
        <ele>1406.6</ele>
        <time>2019-07-05T10:24:54Z</time>
      </trkpt>
      <trkpt lat="40.2971990" lon="-1.4586660">
        <ele>1406.0</ele>
        <time>2019-07-05T10:24:55Z</time>
      </trkpt>
      <trkpt lat="40.2970970" lon="-1.4588090">
        <ele>1405.4</ele>
        <time>2019-07-05T10:24:57Z</time>
      </trkpt>
      <trkpt lat="40.2970280" lon="-1.4589910">
        <ele>1405.2</ele>
        <time>2019-07-05T10:24:59Z</time>
      </trkpt>
      <trkpt lat="40.2970080" lon="-1.4590940">
        <ele>1404.8</ele>
        <time>2019-07-05T10:25:00Z</time>
      </trkpt>
      <trkpt lat="40.2969960" lon="-1.4592000">
        <ele>1404.4</ele>
        <time>2019-07-05T10:25:01Z</time>
      </trkpt>
      <trkpt lat="40.2970020" lon="-1.4595210">
        <ele>1403.2</ele>
        <time>2019-07-05T10:25:04Z</time>
      </trkpt>
      <trkpt lat="40.2970330" lon="-1.4599380">
        <ele>1402.4</ele>
        <time>2019-07-05T10:25:08Z</time>
      </trkpt>
      <trkpt lat="40.2970510" lon="-1.4601460">
        <ele>1402.0</ele>
        <time>2019-07-05T10:25:10Z</time>
      </trkpt>
      <trkpt lat="40.2970680" lon="-1.4604550">
        <ele>1401.2</ele>
        <time>2019-07-05T10:25:13Z</time>
      </trkpt>
      <trkpt lat="40.2970600" lon="-1.4605540">
        <ele>1401.0</ele>
        <time>2019-07-05T10:25:14Z</time>
      </trkpt>
      <trkpt lat="40.2970430" lon="-1.4606490">
        <ele>1400.6</ele>
        <time>2019-07-05T10:25:15Z</time>
      </trkpt>
      <trkpt lat="40.2970140" lon="-1.4607420">
        <ele>1400.2</ele>
        <time>2019-07-05T10:25:16Z</time>
      </trkpt>
      <trkpt lat="40.2969270" lon="-1.4609190">
        <ele>1399.8</ele>
        <time>2019-07-05T10:25:18Z</time>
      </trkpt>
      <trkpt lat="40.2968760" lon="-1.4610060">
        <ele>1399.2</ele>
        <time>2019-07-05T10:25:19Z</time>
      </trkpt>
      <trkpt lat="40.2968200" lon="-1.4610900">
        <ele>1398.8</ele>
        <time>2019-07-05T10:25:20Z</time>
      </trkpt>
      <trkpt lat="40.2967560" lon="-1.4611670">
        <ele>1398.4</ele>
        <time>2019-07-05T10:25:21Z</time>
      </trkpt>
      <trkpt lat="40.2966850" lon="-1.4612350">
        <ele>1398.0</ele>
        <time>2019-07-05T10:25:22Z</time>
      </trkpt>
      <trkpt lat="40.2966070" lon="-1.4612900">
        <ele>1397.6</ele>
        <time>2019-07-05T10:25:23Z</time>
      </trkpt>
      <trkpt lat="40.2964370" lon="-1.4613700">
        <ele>1396.6</ele>
        <time>2019-07-05T10:25:25Z</time>
      </trkpt>
      <trkpt lat="40.2961700" lon="-1.4614660">
        <ele>1395.0</ele>
        <time>2019-07-05T10:25:28Z</time>
      </trkpt>
      <trkpt lat="40.2959870" lon="-1.4615030">
        <ele>1394.0</ele>
        <time>2019-07-05T10:25:30Z</time>
      </trkpt>
      <trkpt lat="40.2957070" lon="-1.4615700">
        <ele>1392.4</ele>
        <time>2019-07-05T10:25:33Z</time>
      </trkpt>
      <trkpt lat="40.2956140" lon="-1.4616020">
        <ele>1391.6</ele>
        <time>2019-07-05T10:25:34Z</time>
      </trkpt>
      <trkpt lat="40.2955220" lon="-1.4616420">
        <ele>1391.2</ele>
        <time>2019-07-05T10:25:35Z</time>
      </trkpt>
      <trkpt lat="40.2953390" lon="-1.4617450">
        <ele>1390.4</ele>
        <time>2019-07-05T10:25:37Z</time>
      </trkpt>
      <trkpt lat="40.2952480" lon="-1.4618060">
        <ele>1390.2</ele>
        <time>2019-07-05T10:25:38Z</time>
      </trkpt>
      <trkpt lat="40.2951570" lon="-1.4618690">
        <ele>1390.0</ele>
        <time>2019-07-05T10:25:39Z</time>
      </trkpt>
      <trkpt lat="40.2949720" lon="-1.4619910">
        <ele>1388.8</ele>
        <time>2019-07-05T10:25:41Z</time>
      </trkpt>
      <trkpt lat="40.2947840" lon="-1.4621120">
        <ele>1387.4</ele>
        <time>2019-07-05T10:25:43Z</time>
      </trkpt>
      <trkpt lat="40.2946900" lon="-1.4621790">
        <ele>1386.8</ele>
        <time>2019-07-05T10:25:44Z</time>
      </trkpt>
      <trkpt lat="40.2945960" lon="-1.4622490">
        <ele>1386.2</ele>
        <time>2019-07-05T10:25:45Z</time>
      </trkpt>
      <trkpt lat="40.2944110" lon="-1.4624030">
        <ele>1385.0</ele>
        <time>2019-07-05T10:25:47Z</time>
      </trkpt>
      <trkpt lat="40.2942460" lon="-1.4625880">
        <ele>1384.0</ele>
        <time>2019-07-05T10:25:49Z</time>
      </trkpt>
      <trkpt lat="40.2940830" lon="-1.4629210">
        <ele>1383.0</ele>
        <time>2019-07-05T10:25:52Z</time>
      </trkpt>
      <trkpt lat="40.2940260" lon="-1.4631230">
        <ele>1382.8</ele>
        <time>2019-07-05T10:25:54Z</time>
      </trkpt>
      <trkpt lat="40.2940060" lon="-1.4632110">
        <ele>1383.0</ele>
        <time>2019-07-05T10:25:55Z</time>
      </trkpt>
      <trkpt lat="40.2939410" lon="-1.4634380">
        <ele>1384.0</ele>
        <time>2019-07-05T10:25:58Z</time>
      </trkpt>
      <trkpt lat="40.2938780" lon="-1.4635610">
        <ele>1384.2</ele>
        <time>2019-07-05T10:26:00Z</time>
      </trkpt>
      <trkpt lat="40.2938150" lon="-1.4636770">
        <ele>1384.6</ele>
        <time>2019-07-05T10:26:02Z</time>
      </trkpt>
      <trkpt lat="40.2935950" lon="-1.4640120">
        <ele>1384.4</ele>
        <time>2019-07-05T10:26:08Z</time>
      </trkpt>
      <trkpt lat="40.2935080" lon="-1.4641200">
        <ele>1384.4</ele>
        <time>2019-07-05T10:26:10Z</time>
      </trkpt>
      <trkpt lat="40.2932930" lon="-1.4643890">
        <ele>1384.4</ele>
        <time>2019-07-05T10:26:15Z</time>
      </trkpt>
      <trkpt lat="40.2931320" lon="-1.4645970">
        <ele>1384.4</ele>
        <time>2019-07-05T10:26:19Z</time>
      </trkpt>
      <trkpt lat="40.2930510" lon="-1.4646940">
        <ele>1384.2</ele>
        <time>2019-07-05T10:26:21Z</time>
      </trkpt>
      <trkpt lat="40.2928220" lon="-1.4649970">
        <ele>1384.4</ele>
        <time>2019-07-05T10:26:27Z</time>
      </trkpt>
      <trkpt lat="40.2926380" lon="-1.4652310">
        <ele>1384.6</ele>
        <time>2019-07-05T10:26:32Z</time>
      </trkpt>
      <trkpt lat="40.2926060" lon="-1.4652770">
        <ele>1384.8</ele>
        <time>2019-07-05T10:26:33Z</time>
      </trkpt>
      <trkpt lat="40.2925400" lon="-1.4653680">
        <ele>1385.2</ele>
        <time>2019-07-05T10:26:35Z</time>
      </trkpt>
      <trkpt lat="40.2924170" lon="-1.4655310">
        <ele>1385.4</ele>
        <time>2019-07-05T10:26:39Z</time>
      </trkpt>
      <trkpt lat="40.2923880" lon="-1.4655690">
        <ele>1385.6</ele>
        <time>2019-07-05T10:26:40Z</time>
      </trkpt>
      <trkpt lat="40.2923310" lon="-1.4656470">
        <ele>1386.2</ele>
        <time>2019-07-05T10:26:42Z</time>
      </trkpt>
      <trkpt lat="40.2922560" lon="-1.4657570">
        <ele>1386.8</ele>
        <time>2019-07-05T10:26:45Z</time>
      </trkpt>
      <trkpt lat="40.2922070" lon="-1.4658140">
        <ele>1387.4</ele>
        <time>2019-07-05T10:26:47Z</time>
      </trkpt>
      <trkpt lat="40.2920960" lon="-1.4659490">
        <ele>1387.8</ele>
        <time>2019-07-05T10:26:51Z</time>
      </trkpt>
      <trkpt lat="40.2920170" lon="-1.4660590">
        <ele>1388.4</ele>
        <time>2019-07-05T10:26:54Z</time>
      </trkpt>
      <trkpt lat="40.2919910" lon="-1.4660920">
        <ele>1388.6</ele>
        <time>2019-07-05T10:26:55Z</time>
      </trkpt>
      <trkpt lat="40.2918600" lon="-1.4662700">
        <ele>1389.2</ele>
        <time>2019-07-05T10:27:00Z</time>
      </trkpt>
      <trkpt lat="40.2917800" lon="-1.4663740">
        <ele>1389.8</ele>
        <time>2019-07-05T10:27:03Z</time>
      </trkpt>
      <trkpt lat="40.2916960" lon="-1.4664760">
        <ele>1390.2</ele>
        <time>2019-07-05T10:27:06Z</time>
      </trkpt>
      <trkpt lat="40.2915060" lon="-1.4667350">
        <ele>1391.0</ele>
        <time>2019-07-05T10:27:13Z</time>
      </trkpt>
      <trkpt lat="40.2914750" lon="-1.4667630">
        <ele>1391.0</ele>
        <time>2019-07-05T10:27:14Z</time>
      </trkpt>
      <trkpt lat="40.2913280" lon="-1.4669120">
        <ele>1392.2</ele>
        <time>2019-07-05T10:27:19Z</time>
      </trkpt>
      <trkpt lat="40.2912660" lon="-1.4669690">
        <ele>1392.2</ele>
        <time>2019-07-05T10:27:21Z</time>
      </trkpt>
      <trkpt lat="40.2910960" lon="-1.4671330">
        <ele>1393.2</ele>
        <time>2019-07-05T10:27:27Z</time>
      </trkpt>
      <trkpt lat="40.2910690" lon="-1.4671560">
        <ele>1393.4</ele>
        <time>2019-07-05T10:27:28Z</time>
      </trkpt>
      <trkpt lat="40.2909020" lon="-1.4672890">
        <ele>1394.2</ele>
        <time>2019-07-05T10:27:34Z</time>
      </trkpt>
      <trkpt lat="40.2908730" lon="-1.4673120">
        <ele>1394.2</ele>
        <time>2019-07-05T10:27:35Z</time>
      </trkpt>
      <trkpt lat="40.2906760" lon="-1.4674790">
        <ele>1395.2</ele>
        <time>2019-07-05T10:27:42Z</time>
      </trkpt>
      <trkpt lat="40.2906490" lon="-1.4675070">
        <ele>1395.4</ele>
        <time>2019-07-05T10:27:43Z</time>
      </trkpt>
      <trkpt lat="40.2904890" lon="-1.4676330">
        <ele>1395.8</ele>
        <time>2019-07-05T10:27:48Z</time>
      </trkpt>
      <trkpt lat="40.2903000" lon="-1.4678010">
        <ele>1396.4</ele>
        <time>2019-07-05T10:27:54Z</time>
      </trkpt>
      <trkpt lat="40.2902370" lon="-1.4678600">
        <ele>1396.8</ele>
        <time>2019-07-05T10:27:56Z</time>
      </trkpt>
      <trkpt lat="40.2900850" lon="-1.4680050">
        <ele>1397.4</ele>
        <time>2019-07-05T10:28:01Z</time>
      </trkpt>
      <trkpt lat="40.2900210" lon="-1.4680590">
        <ele>1397.8</ele>
        <time>2019-07-05T10:28:03Z</time>
      </trkpt>
      <trkpt lat="40.2898400" lon="-1.4682220">
        <ele>1398.6</ele>
        <time>2019-07-05T10:28:09Z</time>
      </trkpt>
      <trkpt lat="40.2897280" lon="-1.4683130">
        <ele>1399.6</ele>
        <time>2019-07-05T10:28:13Z</time>
      </trkpt>
      <trkpt lat="40.2897010" lon="-1.4683380">
        <ele>1399.6</ele>
        <time>2019-07-05T10:28:14Z</time>
      </trkpt>
      <trkpt lat="40.2896730" lon="-1.4683600">
        <ele>1399.8</ele>
        <time>2019-07-05T10:28:15Z</time>
      </trkpt>
      <trkpt lat="40.2894530" lon="-1.4684790">
        <ele>1400.4</ele>
        <time>2019-07-05T10:28:22Z</time>
      </trkpt>
      <trkpt lat="40.2894190" lon="-1.4684950">
        <ele>1400.8</ele>
        <time>2019-07-05T10:28:23Z</time>
      </trkpt>
      <trkpt lat="40.2892270" lon="-1.4685840">
        <ele>1401.8</ele>
        <time>2019-07-05T10:28:29Z</time>
      </trkpt>
      <trkpt lat="40.2889500" lon="-1.4686300">
        <ele>1402.6</ele>
        <time>2019-07-05T10:28:37Z</time>
      </trkpt>
      <trkpt lat="40.2888720" lon="-1.4686450">
        <ele>1403.0</ele>
        <time>2019-07-05T10:28:39Z</time>
      </trkpt>
      <trkpt lat="40.2886760" lon="-1.4686850">
        <ele>1403.6</ele>
        <time>2019-07-05T10:28:44Z</time>
      </trkpt>
      <trkpt lat="40.2885960" lon="-1.4687060">
        <ele>1403.6</ele>
        <time>2019-07-05T10:28:46Z</time>
      </trkpt>
      <trkpt lat="40.2884290" lon="-1.4687600">
        <ele>1404.0</ele>
        <time>2019-07-05T10:28:50Z</time>
      </trkpt>
      <trkpt lat="40.2883880" lon="-1.4687750">
        <ele>1404.4</ele>
        <time>2019-07-05T10:28:51Z</time>
      </trkpt>
      <trkpt lat="40.2881570" lon="-1.4689330">
        <ele>1404.8</ele>
        <time>2019-07-05T10:28:57Z</time>
      </trkpt>
      <trkpt lat="40.2880480" lon="-1.4690430">
        <ele>1405.2</ele>
        <time>2019-07-05T10:29:00Z</time>
      </trkpt>
      <trkpt lat="40.2878760" lon="-1.4692610">
        <ele>1405.8</ele>
        <time>2019-07-05T10:29:05Z</time>
      </trkpt>
      <trkpt lat="40.2877780" lon="-1.4693950">
        <ele>1406.2</ele>
        <time>2019-07-05T10:29:08Z</time>
      </trkpt>
      <trkpt lat="40.2876200" lon="-1.4696130">
        <ele>1407.0</ele>
        <time>2019-07-05T10:29:13Z</time>
      </trkpt>
      <trkpt lat="40.2875570" lon="-1.4696970">
        <ele>1407.4</ele>
        <time>2019-07-05T10:29:15Z</time>
      </trkpt>
      <trkpt lat="40.2874600" lon="-1.4698170">
        <ele>1407.8</ele>
        <time>2019-07-05T10:29:18Z</time>
      </trkpt>
      <trkpt lat="40.2873900" lon="-1.4698900">
        <ele>1408.2</ele>
        <time>2019-07-05T10:29:20Z</time>
      </trkpt>
      <trkpt lat="40.2873190" lon="-1.4699640">
        <ele>1408.4</ele>
        <time>2019-07-05T10:29:22Z</time>
      </trkpt>
      <trkpt lat="40.2871620" lon="-1.4700840">
        <ele>1409.0</ele>
        <time>2019-07-05T10:29:26Z</time>
      </trkpt>
      <trkpt lat="40.2868170" lon="-1.4702790">
        <ele>1409.4</ele>
        <time>2019-07-05T10:29:34Z</time>
      </trkpt>
      <trkpt lat="40.2867720" lon="-1.4703000">
        <ele>1409.6</ele>
        <time>2019-07-05T10:29:35Z</time>
      </trkpt>
      <trkpt lat="40.2864020" lon="-1.4704870">
        <ele>1410.2</ele>
        <time>2019-07-05T10:29:43Z</time>
      </trkpt>
      <trkpt lat="40.2861300" lon="-1.4706260">
        <ele>1410.6</ele>
        <time>2019-07-05T10:29:49Z</time>
      </trkpt>
      <trkpt lat="40.2858200" lon="-1.4707820">
        <ele>1411.6</ele>
        <time>2019-07-05T10:29:56Z</time>
      </trkpt>
      <trkpt lat="40.2857750" lon="-1.4708030">
        <ele>1411.6</ele>
        <time>2019-07-05T10:29:57Z</time>
      </trkpt>
      <trkpt lat="40.2854250" lon="-1.4709700">
        <ele>1412.6</ele>
        <time>2019-07-05T10:30:05Z</time>
      </trkpt>
      <trkpt lat="40.2853450" lon="-1.4709990">
        <ele>1412.8</ele>
        <time>2019-07-05T10:30:07Z</time>
      </trkpt>
      <trkpt lat="40.2851610" lon="-1.4711040">
        <ele>1413.6</ele>
        <time>2019-07-05T10:30:12Z</time>
      </trkpt>
      <trkpt lat="40.2850490" lon="-1.4711510">
        <ele>1413.8</ele>
        <time>2019-07-05T10:30:15Z</time>
      </trkpt>
      <trkpt lat="40.2849060" lon="-1.4712140">
        <ele>1414.4</ele>
        <time>2019-07-05T10:30:19Z</time>
      </trkpt>
      <trkpt lat="40.2848350" lon="-1.4712460">
        <ele>1414.8</ele>
        <time>2019-07-05T10:30:21Z</time>
      </trkpt>
      <trkpt lat="40.2846960" lon="-1.4713250">
        <ele>1416.0</ele>
        <time>2019-07-05T10:30:25Z</time>
      </trkpt>
      <trkpt lat="40.2846600" lon="-1.4713430">
        <ele>1416.2</ele>
        <time>2019-07-05T10:30:26Z</time>
      </trkpt>
      <trkpt lat="40.2844770" lon="-1.4714240">
        <ele>1417.2</ele>
        <time>2019-07-05T10:30:31Z</time>
      </trkpt>
      <trkpt lat="40.2844420" lon="-1.4714450">
        <ele>1417.4</ele>
        <time>2019-07-05T10:30:32Z</time>
      </trkpt>
      <trkpt lat="40.2843010" lon="-1.4715290">
        <ele>1418.4</ele>
        <time>2019-07-05T10:30:36Z</time>
      </trkpt>
      <trkpt lat="40.2841080" lon="-1.4716290">
        <ele>1419.0</ele>
        <time>2019-07-05T10:30:41Z</time>
      </trkpt>
      <trkpt lat="40.2839050" lon="-1.4717430">
        <ele>1419.6</ele>
        <time>2019-07-05T10:30:46Z</time>
      </trkpt>
      <trkpt lat="40.2838230" lon="-1.4717990">
        <ele>1419.6</ele>
        <time>2019-07-05T10:30:48Z</time>
      </trkpt>
      <trkpt lat="40.2836560" lon="-1.4719220">
        <ele>1419.4</ele>
        <time>2019-07-05T10:30:52Z</time>
      </trkpt>
      <trkpt lat="40.2835790" lon="-1.4719970">
        <ele>1419.4</ele>
        <time>2019-07-05T10:30:54Z</time>
      </trkpt>
      <trkpt lat="40.2835400" lon="-1.4720350">
        <ele>1419.6</ele>
        <time>2019-07-05T10:30:55Z</time>
      </trkpt>
      <trkpt lat="40.2833640" lon="-1.4722480">
        <ele>1419.8</ele>
        <time>2019-07-05T10:31:00Z</time>
      </trkpt>
      <trkpt lat="40.2831340" lon="-1.4725890">
        <ele>1420.4</ele>
        <time>2019-07-05T10:31:07Z</time>
      </trkpt>
      <trkpt lat="40.2831040" lon="-1.4726400">
        <ele>1420.6</ele>
        <time>2019-07-05T10:31:08Z</time>
      </trkpt>
      <trkpt lat="40.2830100" lon="-1.4727960">
        <ele>1421.0</ele>
        <time>2019-07-05T10:31:11Z</time>
      </trkpt>
      <trkpt lat="40.2828600" lon="-1.4730600">
        <ele>1421.4</ele>
        <time>2019-07-05T10:31:16Z</time>
      </trkpt>
      <trkpt lat="40.2828290" lon="-1.4731120">
        <ele>1421.6</ele>
        <time>2019-07-05T10:31:17Z</time>
      </trkpt>
      <trkpt lat="40.2826170" lon="-1.4734760">
        <ele>1422.4</ele>
        <time>2019-07-05T10:31:24Z</time>
      </trkpt>
      <trkpt lat="40.2825580" lon="-1.4735830">
        <ele>1422.8</ele>
        <time>2019-07-05T10:31:26Z</time>
      </trkpt>
      <trkpt lat="40.2824070" lon="-1.4738500">
        <ele>1423.4</ele>
        <time>2019-07-05T10:31:31Z</time>
      </trkpt>
      <trkpt lat="40.2822470" lon="-1.4741040">
        <ele>1423.8</ele>
        <time>2019-07-05T10:31:36Z</time>
      </trkpt>
      <trkpt lat="40.2819730" lon="-1.4745630">
        <ele>1424.4</ele>
        <time>2019-07-05T10:31:45Z</time>
      </trkpt>
      <trkpt lat="40.2817900" lon="-1.4748520">
        <ele>1425.6</ele>
        <time>2019-07-05T10:31:51Z</time>
      </trkpt>
      <trkpt lat="40.2817210" lon="-1.4749340">
        <ele>1425.6</ele>
        <time>2019-07-05T10:31:53Z</time>
      </trkpt>
      <trkpt lat="40.2816180" lon="-1.4750580">
        <ele>1426.0</ele>
        <time>2019-07-05T10:31:56Z</time>
      </trkpt>
      <trkpt lat="40.2814610" lon="-1.4751990">
        <ele>1426.4</ele>
        <time>2019-07-05T10:32:00Z</time>
      </trkpt>
      <trkpt lat="40.2813410" lon="-1.4753020">
        <ele>1426.6</ele>
        <time>2019-07-05T10:32:03Z</time>
      </trkpt>
      <trkpt lat="40.2811700" lon="-1.4754190">
        <ele>1426.6</ele>
        <time>2019-07-05T10:32:07Z</time>
      </trkpt>
      <trkpt lat="40.2807580" lon="-1.4756650">
        <ele>1426.6</ele>
        <time>2019-07-05T10:32:16Z</time>
      </trkpt>
      <trkpt lat="40.2805200" lon="-1.4757980">
        <ele>1426.6</ele>
        <time>2019-07-05T10:32:21Z</time>
      </trkpt>
      <trkpt lat="40.2804750" lon="-1.4758320">
        <ele>1426.8</ele>
        <time>2019-07-05T10:32:22Z</time>
      </trkpt>
      <trkpt lat="40.2801860" lon="-1.4761380">
        <ele>1427.2</ele>
        <time>2019-07-05T10:32:29Z</time>
      </trkpt>
      <trkpt lat="40.2800760" lon="-1.4762820">
        <ele>1427.0</ele>
        <time>2019-07-05T10:32:32Z</time>
      </trkpt>
      <trkpt lat="40.2799890" lon="-1.4764440">
        <ele>1427.2</ele>
        <time>2019-07-05T10:32:35Z</time>
      </trkpt>
      <trkpt lat="40.2799050" lon="-1.4766060">
        <ele>1427.6</ele>
        <time>2019-07-05T10:32:38Z</time>
      </trkpt>
      <trkpt lat="40.2797060" lon="-1.4769680">
        <ele>1428.0</ele>
        <time>2019-07-05T10:32:45Z</time>
      </trkpt>
      <trkpt lat="40.2795570" lon="-1.4771980">
        <ele>1428.0</ele>
        <time>2019-07-05T10:32:50Z</time>
      </trkpt>
      <trkpt lat="40.2795050" lon="-1.4773010">
        <ele>1428.0</ele>
        <time>2019-07-05T10:32:52Z</time>
      </trkpt>
      <trkpt lat="40.2792830" lon="-1.4776190">
        <ele>1428.2</ele>
        <time>2019-07-05T10:32:59Z</time>
      </trkpt>
      <trkpt lat="40.2791100" lon="-1.4778130">
        <ele>1428.8</ele>
        <time>2019-07-05T10:33:04Z</time>
      </trkpt>
      <trkpt lat="40.2790340" lon="-1.4778770">
        <ele>1429.0</ele>
        <time>2019-07-05T10:33:06Z</time>
      </trkpt>
      <trkpt lat="40.2789530" lon="-1.4779350">
        <ele>1429.2</ele>
        <time>2019-07-05T10:33:08Z</time>
      </trkpt>
      <trkpt lat="40.2786110" lon="-1.4781360">
        <ele>1429.6</ele>
        <time>2019-07-05T10:33:16Z</time>
      </trkpt>
      <trkpt lat="40.2785230" lon="-1.4781750">
        <ele>1430.0</ele>
        <time>2019-07-05T10:33:18Z</time>
      </trkpt>
      <trkpt lat="40.2783200" lon="-1.4782800">
        <ele>1430.2</ele>
        <time>2019-07-05T10:33:23Z</time>
      </trkpt>
      <trkpt lat="40.2780960" lon="-1.4783920">
        <ele>1431.2</ele>
        <time>2019-07-05T10:33:29Z</time>
      </trkpt>
      <trkpt lat="40.2780580" lon="-1.4784130">
        <ele>1431.4</ele>
        <time>2019-07-05T10:33:30Z</time>
      </trkpt>
      <trkpt lat="40.2778390" lon="-1.4785530">
        <ele>1432.2</ele>
        <time>2019-07-05T10:33:36Z</time>
      </trkpt>
      <trkpt lat="40.2777410" lon="-1.4786340">
        <ele>1432.6</ele>
        <time>2019-07-05T10:33:39Z</time>
      </trkpt>
      <trkpt lat="40.2775210" lon="-1.4789380">
        <ele>1433.2</ele>
        <time>2019-07-05T10:33:47Z</time>
      </trkpt>
      <trkpt lat="40.2773490" lon="-1.4793080">
        <ele>1434.2</ele>
        <time>2019-07-05T10:33:55Z</time>
      </trkpt>
      <trkpt lat="40.2773290" lon="-1.4793530">
        <ele>1434.4</ele>
        <time>2019-07-05T10:33:56Z</time>
      </trkpt>
      <trkpt lat="40.2772000" lon="-1.4797050">
        <ele>1434.8</ele>
        <time>2019-07-05T10:34:03Z</time>
      </trkpt>
      <trkpt lat="40.2770970" lon="-1.4799690">
        <ele>1435.4</ele>
        <time>2019-07-05T10:34:08Z</time>
      </trkpt>
      <trkpt lat="40.2769590" lon="-1.4803320">
        <ele>1436.0</ele>
        <time>2019-07-05T10:34:15Z</time>
      </trkpt>
      <trkpt lat="40.2768760" lon="-1.4805400">
        <ele>1436.4</ele>
        <time>2019-07-05T10:34:19Z</time>
      </trkpt>
      <trkpt lat="40.2767720" lon="-1.4808030">
        <ele>1436.8</ele>
        <time>2019-07-05T10:34:24Z</time>
      </trkpt>
      <trkpt lat="40.2766560" lon="-1.4810620">
        <ele>1437.4</ele>
        <time>2019-07-05T10:34:29Z</time>
      </trkpt>
      <trkpt lat="40.2765770" lon="-1.4812100">
        <ele>1437.6</ele>
        <time>2019-07-05T10:34:32Z</time>
      </trkpt>
      <trkpt lat="40.2763350" lon="-1.4815910">
        <ele>1438.0</ele>
        <time>2019-07-05T10:34:40Z</time>
      </trkpt>
      <trkpt lat="40.2760760" lon="-1.4818720">
        <ele>1438.2</ele>
        <time>2019-07-05T10:34:47Z</time>
      </trkpt>
      <trkpt lat="40.2757430" lon="-1.4822080">
        <ele>1437.8</ele>
        <time>2019-07-05T10:34:55Z</time>
      </trkpt>
      <trkpt lat="40.2754780" lon="-1.4824580">
        <ele>1437.4</ele>
        <time>2019-07-05T10:35:01Z</time>
      </trkpt>
      <trkpt lat="40.2753480" lon="-1.4825940">
        <ele>1437.0</ele>
        <time>2019-07-05T10:35:04Z</time>
      </trkpt>
      <trkpt lat="40.2750710" lon="-1.4828490">
        <ele>1436.8</ele>
        <time>2019-07-05T10:35:10Z</time>
      </trkpt>
      <trkpt lat="40.2749760" lon="-1.4829400">
        <ele>1436.6</ele>
        <time>2019-07-05T10:35:12Z</time>
      </trkpt>
      <trkpt lat="40.2746670" lon="-1.4832230">
        <ele>1437.2</ele>
        <time>2019-07-05T10:35:19Z</time>
      </trkpt>
      <trkpt lat="40.2742650" lon="-1.4836080">
        <ele>1438.0</ele>
        <time>2019-07-05T10:35:29Z</time>
      </trkpt>
      <trkpt lat="40.2740730" lon="-1.4837790">
        <ele>1438.2</ele>
        <time>2019-07-05T10:35:34Z</time>
      </trkpt>
      <trkpt lat="40.2739560" lon="-1.4838850">
        <ele>1438.8</ele>
        <time>2019-07-05T10:35:37Z</time>
      </trkpt>
      <trkpt lat="40.2738060" lon="-1.4840340">
        <ele>1439.4</ele>
        <time>2019-07-05T10:35:41Z</time>
      </trkpt>
      <trkpt lat="40.2736570" lon="-1.4841690">
        <ele>1440.2</ele>
        <time>2019-07-05T10:35:45Z</time>
      </trkpt>
      <trkpt lat="40.2735870" lon="-1.4842400">
        <ele>1440.4</ele>
        <time>2019-07-05T10:35:47Z</time>
      </trkpt>
      <trkpt lat="40.2733340" lon="-1.4844640">
        <ele>1441.0</ele>
        <time>2019-07-05T10:35:54Z</time>
      </trkpt>
      <trkpt lat="40.2732620" lon="-1.4845280">
        <ele>1441.4</ele>
        <time>2019-07-05T10:35:56Z</time>
      </trkpt>
      <trkpt lat="40.2730850" lon="-1.4847040">
        <ele>1442.2</ele>
        <time>2019-07-05T10:36:01Z</time>
      </trkpt>
      <trkpt lat="40.2730480" lon="-1.4847370">
        <ele>1442.4</ele>
        <time>2019-07-05T10:36:02Z</time>
      </trkpt>
      <trkpt lat="40.2728250" lon="-1.4849350">
        <ele>1442.8</ele>
        <time>2019-07-05T10:36:08Z</time>
      </trkpt>
      <trkpt lat="40.2726340" lon="-1.4850990">
        <ele>1443.6</ele>
        <time>2019-07-05T10:36:13Z</time>
      </trkpt>
      <trkpt lat="40.2724260" lon="-1.4852440">
        <ele>1443.8</ele>
        <time>2019-07-05T10:36:18Z</time>
      </trkpt>
      <trkpt lat="40.2720530" lon="-1.4854680">
        <ele>1444.2</ele>
        <time>2019-07-05T10:36:26Z</time>
      </trkpt>
      <trkpt lat="40.2717470" lon="-1.4856110">
        <ele>1444.0</ele>
        <time>2019-07-05T10:36:32Z</time>
      </trkpt>
      <trkpt lat="40.2716960" lon="-1.4856410">
        <ele>1444.0</ele>
        <time>2019-07-05T10:36:33Z</time>
      </trkpt>
      <trkpt lat="40.2715920" lon="-1.4856960">
        <ele>1444.0</ele>
        <time>2019-07-05T10:36:35Z</time>
      </trkpt>
      <trkpt lat="40.2713810" lon="-1.4857940">
        <ele>1444.6</ele>
        <time>2019-07-05T10:36:39Z</time>
      </trkpt>
      <trkpt lat="40.2710000" lon="-1.4859640">
        <ele>1443.8</ele>
        <time>2019-07-05T10:36:46Z</time>
      </trkpt>
      <trkpt lat="40.2706770" lon="-1.4861020">
        <ele>1443.8</ele>
        <time>2019-07-05T10:36:52Z</time>
      </trkpt>
      <trkpt lat="40.2705710" lon="-1.4861560">
        <ele>1444.0</ele>
        <time>2019-07-05T10:36:54Z</time>
      </trkpt>
      <trkpt lat="40.2701570" lon="-1.4863450">
        <ele>1444.2</ele>
        <time>2019-07-05T10:37:02Z</time>
      </trkpt>
      <trkpt lat="40.2697680" lon="-1.4865290">
        <ele>1444.8</ele>
        <time>2019-07-05T10:37:10Z</time>
      </trkpt>
      <trkpt lat="40.2692690" lon="-1.4867510">
        <ele>1445.4</ele>
        <time>2019-07-05T10:37:20Z</time>
      </trkpt>
      <trkpt lat="40.2692210" lon="-1.4867780">
        <ele>1445.4</ele>
        <time>2019-07-05T10:37:21Z</time>
      </trkpt>
      <trkpt lat="40.2687720" lon="-1.4869720">
        <ele>1445.0</ele>
        <time>2019-07-05T10:37:30Z</time>
      </trkpt>
      <trkpt lat="40.2684260" lon="-1.4871410">
        <ele>1445.0</ele>
        <time>2019-07-05T10:37:37Z</time>
      </trkpt>
      <trkpt lat="40.2679990" lon="-1.4873290">
        <ele>1444.6</ele>
        <time>2019-07-05T10:37:46Z</time>
      </trkpt>
      <trkpt lat="40.2677000" lon="-1.4874740">
        <ele>1445.4</ele>
        <time>2019-07-05T10:37:53Z</time>
      </trkpt>
      <trkpt lat="40.2676610" lon="-1.4874960">
        <ele>1445.4</ele>
        <time>2019-07-05T10:37:54Z</time>
      </trkpt>
      <trkpt lat="40.2673830" lon="-1.4876200">
        <ele>1446.2</ele>
        <time>2019-07-05T10:38:01Z</time>
      </trkpt>
      <trkpt lat="40.2673450" lon="-1.4876390">
        <ele>1446.4</ele>
        <time>2019-07-05T10:38:02Z</time>
      </trkpt>
      <trkpt lat="40.2671560" lon="-1.4877320">
        <ele>1447.2</ele>
        <time>2019-07-05T10:38:07Z</time>
      </trkpt>
      <trkpt lat="40.2670060" lon="-1.4877950">
        <ele>1448.2</ele>
        <time>2019-07-05T10:38:11Z</time>
      </trkpt>
      <trkpt lat="40.2669680" lon="-1.4878130">
        <ele>1448.4</ele>
        <time>2019-07-05T10:38:12Z</time>
      </trkpt>
      <trkpt lat="40.2666520" lon="-1.4879710">
        <ele>1448.8</ele>
        <time>2019-07-05T10:38:20Z</time>
      </trkpt>
      <trkpt lat="40.2661950" lon="-1.4882270">
        <ele>1448.8</ele>
        <time>2019-07-05T10:38:31Z</time>
      </trkpt>
      <trkpt lat="40.2657930" lon="-1.4884630">
        <ele>1448.6</ele>
        <time>2019-07-05T10:38:40Z</time>
      </trkpt>
      <trkpt lat="40.2655640" lon="-1.4886000">
        <ele>1448.2</ele>
        <time>2019-07-05T10:38:45Z</time>
      </trkpt>
      <trkpt lat="40.2653780" lon="-1.4887160">
        <ele>1447.8</ele>
        <time>2019-07-05T10:38:49Z</time>
      </trkpt>
      <trkpt lat="40.2649940" lon="-1.4889490">
        <ele>1447.6</ele>
        <time>2019-07-05T10:38:57Z</time>
      </trkpt>
      <trkpt lat="40.2648460" lon="-1.4890340">
        <ele>1447.6</ele>
        <time>2019-07-05T10:39:00Z</time>
      </trkpt>
      <trkpt lat="40.2644500" lon="-1.4892840">
        <ele>1447.6</ele>
        <time>2019-07-05T10:39:08Z</time>
      </trkpt>
      <trkpt lat="40.2640200" lon="-1.4895340">
        <ele>1448.0</ele>
        <time>2019-07-05T10:39:17Z</time>
      </trkpt>
      <trkpt lat="40.2636140" lon="-1.4897900">
        <ele>1448.6</ele>
        <time>2019-07-05T10:39:26Z</time>
      </trkpt>
      <trkpt lat="40.2633470" lon="-1.4899510">
        <ele>1449.2</ele>
        <time>2019-07-05T10:39:32Z</time>
      </trkpt>
      <trkpt lat="40.2632640" lon="-1.4900100">
        <ele>1449.4</ele>
        <time>2019-07-05T10:39:34Z</time>
      </trkpt>
      <trkpt lat="40.2629350" lon="-1.4902080">
        <ele>1449.6</ele>
        <time>2019-07-05T10:39:42Z</time>
      </trkpt>
      <trkpt lat="40.2627720" lon="-1.4902980">
        <ele>1450.2</ele>
        <time>2019-07-05T10:39:46Z</time>
      </trkpt>
      <trkpt lat="40.2626110" lon="-1.4903960">
        <ele>1450.4</ele>
        <time>2019-07-05T10:39:50Z</time>
      </trkpt>
      <trkpt lat="40.2623030" lon="-1.4905960">
        <ele>1450.6</ele>
        <time>2019-07-05T10:39:58Z</time>
      </trkpt>
      <trkpt lat="40.2620630" lon="-1.4907440">
        <ele>1451.0</ele>
        <time>2019-07-05T10:40:04Z</time>
      </trkpt>
      <trkpt lat="40.2619020" lon="-1.4908450">
        <ele>1451.4</ele>
        <time>2019-07-05T10:40:08Z</time>
      </trkpt>
      <trkpt lat="40.2616570" lon="-1.4909900">
        <ele>1452.0</ele>
        <time>2019-07-05T10:40:14Z</time>
      </trkpt>
      <trkpt lat="40.2614510" lon="-1.4911130">
        <ele>1452.4</ele>
        <time>2019-07-05T10:40:19Z</time>
      </trkpt>
      <trkpt lat="40.2611620" lon="-1.4912810">
        <ele>1453.2</ele>
        <time>2019-07-05T10:40:26Z</time>
      </trkpt>
      <trkpt lat="40.2610350" lon="-1.4913470">
        <ele>1453.4</ele>
        <time>2019-07-05T10:40:29Z</time>
      </trkpt>
      <trkpt lat="40.2607060" lon="-1.4915700">
        <ele>1453.8</ele>
        <time>2019-07-05T10:40:37Z</time>
      </trkpt>
      <trkpt lat="40.2606220" lon="-1.4916260">
        <ele>1454.2</ele>
        <time>2019-07-05T10:40:39Z</time>
      </trkpt>
      <trkpt lat="40.2602850" lon="-1.4918280">
        <ele>1454.8</ele>
        <time>2019-07-05T10:40:47Z</time>
      </trkpt>
      <trkpt lat="40.2600360" lon="-1.4919630">
        <ele>1454.6</ele>
        <time>2019-07-05T10:40:53Z</time>
      </trkpt>
      <trkpt lat="40.2599910" lon="-1.4919710">
        <ele>1454.6</ele>
        <time>2019-07-05T10:40:54Z</time>
      </trkpt>
      <trkpt lat="40.2598140" lon="-1.4919090">
        <ele>1454.8</ele>
        <time>2019-07-05T10:40:58Z</time>
      </trkpt>
      <trkpt lat="40.2597420" lon="-1.4918250">
        <ele>1454.6</ele>
        <time>2019-07-05T10:41:00Z</time>
      </trkpt>
      <trkpt lat="40.2595920" lon="-1.4916490">
        <ele>1454.0</ele>
        <time>2019-07-05T10:41:04Z</time>
      </trkpt>
      <trkpt lat="40.2594410" lon="-1.4914440">
        <ele>1452.8</ele>
        <time>2019-07-05T10:41:08Z</time>
      </trkpt>
      <trkpt lat="40.2593140" lon="-1.4912860">
        <ele>1452.2</ele>
        <time>2019-07-05T10:41:11Z</time>
      </trkpt>
      <trkpt lat="40.2592300" lon="-1.4911670">
        <ele>1451.8</ele>
        <time>2019-07-05T10:41:13Z</time>
      </trkpt>
      <trkpt lat="40.2590350" lon="-1.4909210">
        <ele>1450.6</ele>
        <time>2019-07-05T10:41:17Z</time>
      </trkpt>
      <trkpt lat="40.2589840" lon="-1.4908560">
        <ele>1450.4</ele>
        <time>2019-07-05T10:41:18Z</time>
      </trkpt>
      <trkpt lat="40.2589300" lon="-1.4907910">
        <ele>1450.0</ele>
        <time>2019-07-05T10:41:19Z</time>
      </trkpt>
      <trkpt lat="40.2588100" lon="-1.4906710">
        <ele>1449.6</ele>
        <time>2019-07-05T10:41:21Z</time>
      </trkpt>
      <trkpt lat="40.2587460" lon="-1.4906100">
        <ele>1449.4</ele>
        <time>2019-07-05T10:41:22Z</time>
      </trkpt>
      <trkpt lat="40.2586790" lon="-1.4905510">
        <ele>1449.0</ele>
        <time>2019-07-05T10:41:23Z</time>
      </trkpt>
      <trkpt lat="40.2585350" lon="-1.4904420">
        <ele>1448.2</ele>
        <time>2019-07-05T10:41:25Z</time>
      </trkpt>
      <trkpt lat="40.2583010" lon="-1.4903070">
        <ele>1446.8</ele>
        <time>2019-07-05T10:41:28Z</time>
      </trkpt>
      <trkpt lat="40.2582160" lon="-1.4902780">
        <ele>1446.0</ele>
        <time>2019-07-05T10:41:29Z</time>
      </trkpt>
      <trkpt lat="40.2581290" lon="-1.4902580">
        <ele>1445.8</ele>
        <time>2019-07-05T10:41:30Z</time>
      </trkpt>
      <trkpt lat="40.2578660" lon="-1.4902040">
        <ele>1445.0</ele>
        <time>2019-07-05T10:41:33Z</time>
      </trkpt>
      <trkpt lat="40.2577790" lon="-1.4901910">
        <ele>1444.6</ele>
        <time>2019-07-05T10:41:34Z</time>
      </trkpt>
      <trkpt lat="40.2575200" lon="-1.4901730">
        <ele>1443.6</ele>
        <time>2019-07-05T10:41:37Z</time>
      </trkpt>
      <trkpt lat="40.2573550" lon="-1.4901630">
        <ele>1443.0</ele>
        <time>2019-07-05T10:41:39Z</time>
      </trkpt>
      <trkpt lat="40.2571950" lon="-1.4901440">
        <ele>1442.2</ele>
        <time>2019-07-05T10:41:41Z</time>
      </trkpt>
      <trkpt lat="40.2568900" lon="-1.4901110">
        <ele>1441.8</ele>
        <time>2019-07-05T10:41:45Z</time>
      </trkpt>
      <trkpt lat="40.2566730" lon="-1.4900770">
        <ele>1441.2</ele>
        <time>2019-07-05T10:41:48Z</time>
      </trkpt>
      <trkpt lat="40.2564680" lon="-1.4900480">
        <ele>1440.6</ele>
        <time>2019-07-05T10:41:51Z</time>
      </trkpt>
      <trkpt lat="40.2561410" lon="-1.4900270">
        <ele>1440.0</ele>
        <time>2019-07-05T10:41:56Z</time>
      </trkpt>
      <trkpt lat="40.2559480" lon="-1.4900040">
        <ele>1439.4</ele>
        <time>2019-07-05T10:41:59Z</time>
      </trkpt>
      <trkpt lat="40.2558160" lon="-1.4899860">
        <ele>1439.0</ele>
        <time>2019-07-05T10:42:01Z</time>
      </trkpt>
      <trkpt lat="40.2554870" lon="-1.4899490">
        <ele>1438.4</ele>
        <time>2019-07-05T10:42:06Z</time>
      </trkpt>
      <trkpt lat="40.2553570" lon="-1.4899370">
        <ele>1438.2</ele>
        <time>2019-07-05T10:42:08Z</time>
      </trkpt>
      <trkpt lat="40.2549740" lon="-1.4898940">
        <ele>1438.2</ele>
        <time>2019-07-05T10:42:14Z</time>
      </trkpt>
      <trkpt lat="40.2549120" lon="-1.4898880">
        <ele>1438.2</ele>
        <time>2019-07-05T10:42:15Z</time>
      </trkpt>
      <trkpt lat="40.2545460" lon="-1.4898470">
        <ele>1438.6</ele>
        <time>2019-07-05T10:42:21Z</time>
      </trkpt>
      <trkpt lat="40.2541990" lon="-1.4898050">
        <ele>1437.4</ele>
        <time>2019-07-05T10:42:27Z</time>
      </trkpt>
      <trkpt lat="40.2537360" lon="-1.4897570">
        <ele>1437.2</ele>
        <time>2019-07-05T10:42:35Z</time>
      </trkpt>
      <trkpt lat="40.2535620" lon="-1.4897450">
        <ele>1437.4</ele>
        <time>2019-07-05T10:42:38Z</time>
      </trkpt>
      <trkpt lat="40.2534460" lon="-1.4897380">
        <ele>1437.2</ele>
        <time>2019-07-05T10:42:40Z</time>
      </trkpt>
      <trkpt lat="40.2532220" lon="-1.4897000">
        <ele>1437.4</ele>
        <time>2019-07-05T10:42:44Z</time>
      </trkpt>
      <trkpt lat="40.2528000" lon="-1.4895750">
        <ele>1438.0</ele>
        <time>2019-07-05T10:42:52Z</time>
      </trkpt>
      <trkpt lat="40.2525590" lon="-1.4894240">
        <ele>1437.6</ele>
        <time>2019-07-05T10:42:57Z</time>
      </trkpt>
      <trkpt lat="40.2524300" lon="-1.4893210">
        <ele>1437.6</ele>
        <time>2019-07-05T10:43:00Z</time>
      </trkpt>
      <trkpt lat="40.2521570" lon="-1.4890150">
        <ele>1437.0</ele>
        <time>2019-07-05T10:43:07Z</time>
      </trkpt>
      <trkpt lat="40.2521180" lon="-1.4889690">
        <ele>1436.8</ele>
        <time>2019-07-05T10:43:08Z</time>
      </trkpt>
      <trkpt lat="40.2518920" lon="-1.4886930">
        <ele>1436.6</ele>
        <time>2019-07-05T10:43:14Z</time>
      </trkpt>
      <trkpt lat="40.2515880" lon="-1.4883680">
        <ele>1436.8</ele>
        <time>2019-07-05T10:43:22Z</time>
      </trkpt>
      <trkpt lat="40.2514340" lon="-1.4882150">
        <ele>1436.8</ele>
        <time>2019-07-05T10:43:26Z</time>
      </trkpt>
      <trkpt lat="40.2512690" lon="-1.4880810">
        <ele>1437.4</ele>
        <time>2019-07-05T10:43:30Z</time>
      </trkpt>
      <trkpt lat="40.2510500" lon="-1.4879530">
        <ele>1438.0</ele>
        <time>2019-07-05T10:43:35Z</time>
      </trkpt>
      <trkpt lat="40.2509590" lon="-1.4879190">
        <ele>1438.0</ele>
        <time>2019-07-05T10:43:37Z</time>
      </trkpt>
      <trkpt lat="40.2506090" lon="-1.4878170">
        <ele>1439.0</ele>
        <time>2019-07-05T10:43:45Z</time>
      </trkpt>
      <trkpt lat="40.2502570" lon="-1.4877360">
        <ele>1439.6</ele>
        <time>2019-07-05T10:43:53Z</time>
      </trkpt>
      <trkpt lat="40.2501250" lon="-1.4877170">
        <ele>1440.0</ele>
        <time>2019-07-05T10:43:56Z</time>
      </trkpt>
      <trkpt lat="40.2500360" lon="-1.4876990">
        <ele>1440.0</ele>
        <time>2019-07-05T10:43:58Z</time>
      </trkpt>
      <trkpt lat="40.2498140" lon="-1.4876550">
        <ele>1440.6</ele>
        <time>2019-07-05T10:44:03Z</time>
      </trkpt>
      <trkpt lat="40.2495450" lon="-1.4876160">
        <ele>1441.0</ele>
        <time>2019-07-05T10:44:09Z</time>
      </trkpt>
      <trkpt lat="40.2494100" lon="-1.4875940">
        <ele>1441.4</ele>
        <time>2019-07-05T10:44:12Z</time>
      </trkpt>
      <trkpt lat="40.2491440" lon="-1.4875410">
        <ele>1442.0</ele>
        <time>2019-07-05T10:44:18Z</time>
      </trkpt>
      <trkpt lat="40.2490130" lon="-1.4875170">
        <ele>1442.4</ele>
        <time>2019-07-05T10:44:21Z</time>
      </trkpt>
      <trkpt lat="40.2487130" lon="-1.4874600">
        <ele>1443.0</ele>
        <time>2019-07-05T10:44:28Z</time>
      </trkpt>
      <trkpt lat="40.2485480" lon="-1.4874230">
        <ele>1443.2</ele>
        <time>2019-07-05T10:44:32Z</time>
      </trkpt>
      <trkpt lat="40.2484270" lon="-1.4873960">
        <ele>1443.4</ele>
        <time>2019-07-05T10:44:35Z</time>
      </trkpt>
      <trkpt lat="40.2482670" lon="-1.4873630">
        <ele>1444.2</ele>
        <time>2019-07-05T10:44:39Z</time>
      </trkpt>
      <trkpt lat="40.2481070" lon="-1.4873310">
        <ele>1444.6</ele>
        <time>2019-07-05T10:44:43Z</time>
      </trkpt>
      <trkpt lat="40.2477770" lon="-1.4872460">
        <ele>1445.0</ele>
        <time>2019-07-05T10:44:51Z</time>
      </trkpt>
      <trkpt lat="40.2474630" lon="-1.4872000">
        <ele>1445.2</ele>
        <time>2019-07-05T10:44:58Z</time>
      </trkpt>
      <trkpt lat="40.2470120" lon="-1.4872140">
        <ele>1444.8</ele>
        <time>2019-07-05T10:45:07Z</time>
      </trkpt>
      <trkpt lat="40.2469610" lon="-1.4872250">
        <ele>1444.6</ele>
        <time>2019-07-05T10:45:08Z</time>
      </trkpt>
      <trkpt lat="40.2466040" lon="-1.4873020">
        <ele>1444.6</ele>
        <time>2019-07-05T10:45:15Z</time>
      </trkpt>
      <trkpt lat="40.2463980" lon="-1.4873380">
        <ele>1444.4</ele>
        <time>2019-07-05T10:45:19Z</time>
      </trkpt>
      <trkpt lat="40.2460780" lon="-1.4873950">
        <ele>1444.6</ele>
        <time>2019-07-05T10:45:25Z</time>
      </trkpt>
      <trkpt lat="40.2458720" lon="-1.4874640">
        <ele>1444.4</ele>
        <time>2019-07-05T10:45:29Z</time>
      </trkpt>
      <trkpt lat="40.2458300" lon="-1.4875100">
        <ele>1444.4</ele>
        <time>2019-07-05T10:45:30Z</time>
      </trkpt>
      <trkpt lat="40.2457260" lon="-1.4876880">
        <ele>1444.2</ele>
        <time>2019-07-05T10:45:33Z</time>
      </trkpt>
      <trkpt lat="40.2456690" lon="-1.4878310">
        <ele>1444.0</ele>
        <time>2019-07-05T10:45:35Z</time>
      </trkpt>
      <trkpt lat="40.2454740" lon="-1.4882900">
        <ele>1443.0</ele>
        <time>2019-07-05T10:45:41Z</time>
      </trkpt>
      <trkpt lat="40.2454090" lon="-1.4884510">
        <ele>1442.6</ele>
        <time>2019-07-05T10:45:43Z</time>
      </trkpt>
      <trkpt lat="40.2452680" lon="-1.4887870">
        <ele>1441.8</ele>
        <time>2019-07-05T10:45:47Z</time>
      </trkpt>
      <trkpt lat="40.2451160" lon="-1.4891300">
        <ele>1440.8</ele>
        <time>2019-07-05T10:45:51Z</time>
      </trkpt>
      <trkpt lat="40.2450780" lon="-1.4892170">
        <ele>1440.6</ele>
        <time>2019-07-05T10:45:52Z</time>
      </trkpt>
      <trkpt lat="40.2448940" lon="-1.4896460">
        <ele>1440.0</ele>
        <time>2019-07-05T10:45:57Z</time>
      </trkpt>
      <trkpt lat="40.2448230" lon="-1.4898110">
        <ele>1439.6</ele>
        <time>2019-07-05T10:45:59Z</time>
      </trkpt>
      <trkpt lat="40.2447900" lon="-1.4898950">
        <ele>1439.4</ele>
        <time>2019-07-05T10:46:00Z</time>
      </trkpt>
      <trkpt lat="40.2445610" lon="-1.4904390">
        <ele>1439.2</ele>
        <time>2019-07-05T10:46:07Z</time>
      </trkpt>
      <trkpt lat="40.2443360" lon="-1.4909610">
        <ele>1440.0</ele>
        <time>2019-07-05T10:46:15Z</time>
      </trkpt>
      <trkpt lat="40.2442330" lon="-1.4911860">
        <ele>1440.2</ele>
        <time>2019-07-05T10:46:19Z</time>
      </trkpt>
      <trkpt lat="40.2441850" lon="-1.4912960">
        <ele>1440.6</ele>
        <time>2019-07-05T10:46:21Z</time>
      </trkpt>
      <trkpt lat="40.2441390" lon="-1.4914030">
        <ele>1440.8</ele>
        <time>2019-07-05T10:46:23Z</time>
      </trkpt>
      <trkpt lat="40.2440670" lon="-1.4915570">
        <ele>1441.2</ele>
        <time>2019-07-05T10:46:26Z</time>
      </trkpt>
      <trkpt lat="40.2439800" lon="-1.4917640">
        <ele>1441.8</ele>
        <time>2019-07-05T10:46:30Z</time>
      </trkpt>
      <trkpt lat="40.2439140" lon="-1.4919190">
        <ele>1442.2</ele>
        <time>2019-07-05T10:46:33Z</time>
      </trkpt>
      <trkpt lat="40.2438450" lon="-1.4920690">
        <ele>1442.8</ele>
        <time>2019-07-05T10:46:36Z</time>
      </trkpt>
      <trkpt lat="40.2437550" lon="-1.4922720">
        <ele>1443.2</ele>
        <time>2019-07-05T10:46:40Z</time>
      </trkpt>
      <trkpt lat="40.2436830" lon="-1.4924200">
        <ele>1443.6</ele>
        <time>2019-07-05T10:46:43Z</time>
      </trkpt>
      <trkpt lat="40.2436390" lon="-1.4925210">
        <ele>1443.8</ele>
        <time>2019-07-05T10:46:45Z</time>
      </trkpt>
      <trkpt lat="40.2435070" lon="-1.4928220">
        <ele>1444.4</ele>
        <time>2019-07-05T10:46:51Z</time>
      </trkpt>
      <trkpt lat="40.2434850" lon="-1.4928740">
        <ele>1444.6</ele>
        <time>2019-07-05T10:46:52Z</time>
      </trkpt>
      <trkpt lat="40.2434240" lon="-1.4930290">
        <ele>1445.0</ele>
        <time>2019-07-05T10:46:55Z</time>
      </trkpt>
      <trkpt lat="40.2433110" lon="-1.4932740">
        <ele>1446.0</ele>
        <time>2019-07-05T10:47:00Z</time>
      </trkpt>
      <trkpt lat="40.2431690" lon="-1.4935690">
        <ele>1447.2</ele>
        <time>2019-07-05T10:47:06Z</time>
      </trkpt>
      <trkpt lat="40.2431500" lon="-1.4936210">
        <ele>1447.4</ele>
        <time>2019-07-05T10:47:07Z</time>
      </trkpt>
      <trkpt lat="40.2430240" lon="-1.4939200">
        <ele>1448.2</ele>
        <time>2019-07-05T10:47:13Z</time>
      </trkpt>
      <trkpt lat="40.2429790" lon="-1.4940210">
        <ele>1448.4</ele>
        <time>2019-07-05T10:47:15Z</time>
      </trkpt>
      <trkpt lat="40.2428590" lon="-1.4942700">
        <ele>1449.2</ele>
        <time>2019-07-05T10:47:20Z</time>
      </trkpt>
      <trkpt lat="40.2427960" lon="-1.4944210">
        <ele>1449.6</ele>
        <time>2019-07-05T10:47:23Z</time>
      </trkpt>
      <trkpt lat="40.2427090" lon="-1.4946210">
        <ele>1450.4</ele>
        <time>2019-07-05T10:47:27Z</time>
      </trkpt>
      <trkpt lat="40.2426420" lon="-1.4947700">
        <ele>1450.8</ele>
        <time>2019-07-05T10:47:30Z</time>
      </trkpt>
      <trkpt lat="40.2425220" lon="-1.4950500">
        <ele>1451.4</ele>
        <time>2019-07-05T10:47:36Z</time>
      </trkpt>
      <trkpt lat="40.2425010" lon="-1.4950960">
        <ele>1451.4</ele>
        <time>2019-07-05T10:47:37Z</time>
      </trkpt>
      <trkpt lat="40.2423590" lon="-1.4953900">
        <ele>1452.2</ele>
        <time>2019-07-05T10:47:44Z</time>
      </trkpt>
      <trkpt lat="40.2422180" lon="-1.4956270">
        <ele>1453.2</ele>
        <time>2019-07-05T10:47:50Z</time>
      </trkpt>
      <trkpt lat="40.2421680" lon="-1.4957000">
        <ele>1453.4</ele>
        <time>2019-07-05T10:47:52Z</time>
      </trkpt>
      <trkpt lat="40.2419420" lon="-1.4959770">
        <ele>1454.4</ele>
        <time>2019-07-05T10:48:00Z</time>
      </trkpt>
      <trkpt lat="40.2416840" lon="-1.4962260">
        <ele>1455.2</ele>
        <time>2019-07-05T10:48:08Z</time>
      </trkpt>
      <trkpt lat="40.2416460" lon="-1.4962510">
        <ele>1455.2</ele>
        <time>2019-07-05T10:48:09Z</time>
      </trkpt>
      <trkpt lat="40.2416080" lon="-1.4962770">
        <ele>1455.4</ele>
        <time>2019-07-05T10:48:10Z</time>
      </trkpt>
      <trkpt lat="40.2412900" lon="-1.4964930">
        <ele>1455.8</ele>
        <time>2019-07-05T10:48:18Z</time>
      </trkpt>
      <trkpt lat="40.2408870" lon="-1.4967280">
        <ele>1456.2</ele>
        <time>2019-07-05T10:48:27Z</time>
      </trkpt>
      <trkpt lat="40.2404690" lon="-1.4969950">
        <ele>1456.2</ele>
        <time>2019-07-05T10:48:36Z</time>
      </trkpt>
      <trkpt lat="40.2401090" lon="-1.4972050">
        <ele>1456.0</ele>
        <time>2019-07-05T10:48:44Z</time>
      </trkpt>
      <trkpt lat="40.2400640" lon="-1.4972310">
        <ele>1456.2</ele>
        <time>2019-07-05T10:48:45Z</time>
      </trkpt>
      <trkpt lat="40.2399310" lon="-1.4973060">
        <ele>1456.4</ele>
        <time>2019-07-05T10:48:48Z</time>
      </trkpt>
      <trkpt lat="40.2398900" lon="-1.4973340">
        <ele>1456.6</ele>
        <time>2019-07-05T10:48:49Z</time>
      </trkpt>
      <trkpt lat="40.2397190" lon="-1.4974290">
        <ele>1456.8</ele>
        <time>2019-07-05T10:48:53Z</time>
      </trkpt>
      <trkpt lat="40.2396780" lon="-1.4974570">
        <ele>1456.8</ele>
        <time>2019-07-05T10:48:54Z</time>
      </trkpt>
      <trkpt lat="40.2394320" lon="-1.4976040">
        <ele>1457.6</ele>
        <time>2019-07-05T10:49:00Z</time>
      </trkpt>
      <trkpt lat="40.2393920" lon="-1.4976290">
        <ele>1457.6</ele>
        <time>2019-07-05T10:49:01Z</time>
      </trkpt>
      <trkpt lat="40.2390920" lon="-1.4978310">
        <ele>1458.6</ele>
        <time>2019-07-05T10:49:09Z</time>
      </trkpt>
      <trkpt lat="40.2390570" lon="-1.4978600">
        <ele>1458.6</ele>
        <time>2019-07-05T10:49:10Z</time>
      </trkpt>
      <trkpt lat="40.2389900" lon="-1.4979280">
        <ele>1458.8</ele>
        <time>2019-07-05T10:49:12Z</time>
      </trkpt>
      <trkpt lat="40.2388860" lon="-1.4981090">
        <ele>1459.4</ele>
        <time>2019-07-05T10:49:16Z</time>
      </trkpt>
      <trkpt lat="40.2388560" lon="-1.4982220">
        <ele>1459.6</ele>
        <time>2019-07-05T10:49:18Z</time>
      </trkpt>
      <trkpt lat="40.2388490" lon="-1.4983440">
        <ele>1459.8</ele>
        <time>2019-07-05T10:49:20Z</time>
      </trkpt>
      <trkpt lat="40.2388490" lon="-1.4984070">
        <ele>1459.8</ele>
        <time>2019-07-05T10:49:21Z</time>
      </trkpt>
      <trkpt lat="40.2389180" lon="-1.4987170">
        <ele>1460.4</ele>
        <time>2019-07-05T10:49:26Z</time>
      </trkpt>
      <trkpt lat="40.2390770" lon="-1.4989100">
        <ele>1460.0</ele>
        <time>2019-07-05T10:49:30Z</time>
      </trkpt>
      <trkpt lat="40.2392540" lon="-1.4989910">
        <ele>1459.2</ele>
        <time>2019-07-05T10:49:33Z</time>
      </trkpt>
      <trkpt lat="40.2393200" lon="-1.4990130">
        <ele>1459.0</ele>
        <time>2019-07-05T10:49:34Z</time>
      </trkpt>
      <trkpt lat="40.2395370" lon="-1.4990630">
        <ele>1458.4</ele>
        <time>2019-07-05T10:49:37Z</time>
      </trkpt>
      <trkpt lat="40.2396940" lon="-1.4990760">
        <ele>1457.8</ele>
        <time>2019-07-05T10:49:39Z</time>
      </trkpt>
      <trkpt lat="40.2397760" lon="-1.4990760">
        <ele>1457.4</ele>
        <time>2019-07-05T10:49:40Z</time>
      </trkpt>
      <trkpt lat="40.2401140" lon="-1.4990900">
        <ele>1456.0</ele>
        <time>2019-07-05T10:49:44Z</time>
      </trkpt>
      <trkpt lat="40.2402010" lon="-1.4990990">
        <ele>1455.8</ele>
        <time>2019-07-05T10:49:45Z</time>
      </trkpt>
      <trkpt lat="40.2402890" lon="-1.4991080">
        <ele>1455.6</ele>
        <time>2019-07-05T10:49:46Z</time>
      </trkpt>
      <trkpt lat="40.2404700" lon="-1.4991300">
        <ele>1455.0</ele>
        <time>2019-07-05T10:49:48Z</time>
      </trkpt>
      <trkpt lat="40.2407550" lon="-1.4991840">
        <ele>1453.6</ele>
        <time>2019-07-05T10:49:51Z</time>
      </trkpt>
      <trkpt lat="40.2408550" lon="-1.4992050">
        <ele>1453.4</ele>
        <time>2019-07-05T10:49:52Z</time>
      </trkpt>
      <trkpt lat="40.2410610" lon="-1.4992430">
        <ele>1452.0</ele>
        <time>2019-07-05T10:49:54Z</time>
      </trkpt>
      <trkpt lat="40.2411690" lon="-1.4992620">
        <ele>1451.4</ele>
        <time>2019-07-05T10:49:55Z</time>
      </trkpt>
      <trkpt lat="40.2412780" lon="-1.4992810">
        <ele>1450.8</ele>
        <time>2019-07-05T10:49:56Z</time>
      </trkpt>
      <trkpt lat="40.2413890" lon="-1.4992990">
        <ele>1450.4</ele>
        <time>2019-07-05T10:49:57Z</time>
      </trkpt>
      <trkpt lat="40.2415020" lon="-1.4993170">
        <ele>1449.8</ele>
        <time>2019-07-05T10:49:58Z</time>
      </trkpt>
      <trkpt lat="40.2416170" lon="-1.4993340">
        <ele>1449.0</ele>
        <time>2019-07-05T10:49:59Z</time>
      </trkpt>
      <trkpt lat="40.2417340" lon="-1.4993510">
        <ele>1448.4</ele>
        <time>2019-07-05T10:50:00Z</time>
      </trkpt>
      <trkpt lat="40.2419750" lon="-1.4993750">
        <ele>1446.8</ele>
        <time>2019-07-05T10:50:02Z</time>
      </trkpt>
      <trkpt lat="40.2422250" lon="-1.4993770">
        <ele>1445.2</ele>
        <time>2019-07-05T10:50:04Z</time>
      </trkpt>
      <trkpt lat="40.2423530" lon="-1.4993750">
        <ele>1444.8</ele>
        <time>2019-07-05T10:50:05Z</time>
      </trkpt>
      <trkpt lat="40.2426150" lon="-1.4993730">
        <ele>1443.6</ele>
        <time>2019-07-05T10:50:07Z</time>
      </trkpt>
      <trkpt lat="40.2428850" lon="-1.4993690">
        <ele>1441.8</ele>
        <time>2019-07-05T10:50:09Z</time>
      </trkpt>
      <trkpt lat="40.2430220" lon="-1.4993630">
        <ele>1440.8</ele>
        <time>2019-07-05T10:50:10Z</time>
      </trkpt>
      <trkpt lat="40.2432910" lon="-1.4993450">
        <ele>1438.8</ele>
        <time>2019-07-05T10:50:12Z</time>
      </trkpt>
      <trkpt lat="40.2435470" lon="-1.4993370">
        <ele>1437.4</ele>
        <time>2019-07-05T10:50:14Z</time>
      </trkpt>
      <trkpt lat="40.2437900" lon="-1.4993320">
        <ele>1436.0</ele>
        <time>2019-07-05T10:50:16Z</time>
      </trkpt>
      <trkpt lat="40.2439110" lon="-1.4993350">
        <ele>1435.0</ele>
        <time>2019-07-05T10:50:17Z</time>
      </trkpt>
      <trkpt lat="40.2440330" lon="-1.4993480">
        <ele>1434.0</ele>
        <time>2019-07-05T10:50:18Z</time>
      </trkpt>
      <trkpt lat="40.2442810" lon="-1.4993990">
        <ele>1432.8</ele>
        <time>2019-07-05T10:50:20Z</time>
      </trkpt>
      <trkpt lat="40.2445250" lon="-1.4995020">
        <ele>1431.2</ele>
        <time>2019-07-05T10:50:22Z</time>
      </trkpt>
      <trkpt lat="40.2447500" lon="-1.4996670">
        <ele>1429.6</ele>
        <time>2019-07-05T10:50:24Z</time>
      </trkpt>
      <trkpt lat="40.2448540" lon="-1.4997690">
        <ele>1429.2</ele>
        <time>2019-07-05T10:50:25Z</time>
      </trkpt>
      <trkpt lat="40.2449490" lon="-1.4998800">
        <ele>1428.0</ele>
        <time>2019-07-05T10:50:26Z</time>
      </trkpt>
      <trkpt lat="40.2451160" lon="-1.5001380">
        <ele>1426.6</ele>
        <time>2019-07-05T10:50:28Z</time>
      </trkpt>
      <trkpt lat="40.2452370" lon="-1.5004330">
        <ele>1425.4</ele>
        <time>2019-07-05T10:50:30Z</time>
      </trkpt>
      <trkpt lat="40.2452810" lon="-1.5005940">
        <ele>1424.8</ele>
        <time>2019-07-05T10:50:31Z</time>
      </trkpt>
      <trkpt lat="40.2453220" lon="-1.5007580">
        <ele>1424.2</ele>
        <time>2019-07-05T10:50:32Z</time>
      </trkpt>
      <trkpt lat="40.2454190" lon="-1.5010610">
        <ele>1422.0</ele>
        <time>2019-07-05T10:50:34Z</time>
      </trkpt>
      <trkpt lat="40.2454780" lon="-1.5012040">
        <ele>1421.2</ele>
        <time>2019-07-05T10:50:35Z</time>
      </trkpt>
      <trkpt lat="40.2455380" lon="-1.5013460">
        <ele>1420.2</ele>
        <time>2019-07-05T10:50:36Z</time>
      </trkpt>
      <trkpt lat="40.2455920" lon="-1.5014900">
        <ele>1418.8</ele>
        <time>2019-07-05T10:50:37Z</time>
      </trkpt>
      <trkpt lat="40.2456310" lon="-1.5016450">
        <ele>1417.6</ele>
        <time>2019-07-05T10:50:38Z</time>
      </trkpt>
      <trkpt lat="40.2456490" lon="-1.5018090">
        <ele>1416.4</ele>
        <time>2019-07-05T10:50:39Z</time>
      </trkpt>
      <trkpt lat="40.2456460" lon="-1.5019750">
        <ele>1415.4</ele>
        <time>2019-07-05T10:50:40Z</time>
      </trkpt>
      <trkpt lat="40.2455910" lon="-1.5023030">
        <ele>1413.4</ele>
        <time>2019-07-05T10:50:42Z</time>
      </trkpt>
      <trkpt lat="40.2455470" lon="-1.5024630">
        <ele>1412.4</ele>
        <time>2019-07-05T10:50:43Z</time>
      </trkpt>
      <trkpt lat="40.2455040" lon="-1.5026230">
        <ele>1411.2</ele>
        <time>2019-07-05T10:50:44Z</time>
      </trkpt>
      <trkpt lat="40.2454100" lon="-1.5029400">
        <ele>1409.4</ele>
        <time>2019-07-05T10:50:46Z</time>
      </trkpt>
      <trkpt lat="40.2453000" lon="-1.5032310">
        <ele>1408.4</ele>
        <time>2019-07-05T10:50:48Z</time>
      </trkpt>
      <trkpt lat="40.2452370" lon="-1.5033600">
        <ele>1408.0</ele>
        <time>2019-07-05T10:50:49Z</time>
      </trkpt>
      <trkpt lat="40.2451030" lon="-1.5035910">
        <ele>1407.0</ele>
        <time>2019-07-05T10:50:51Z</time>
      </trkpt>
      <trkpt lat="40.2450350" lon="-1.5036940">
        <ele>1406.6</ele>
        <time>2019-07-05T10:50:52Z</time>
      </trkpt>
      <trkpt lat="40.2448940" lon="-1.5038750">
        <ele>1406.2</ele>
        <time>2019-07-05T10:50:54Z</time>
      </trkpt>
      <trkpt lat="40.2448240" lon="-1.5039470">
        <ele>1406.0</ele>
        <time>2019-07-05T10:50:55Z</time>
      </trkpt>
      <trkpt lat="40.2447500" lon="-1.5040060">
        <ele>1406.0</ele>
        <time>2019-07-05T10:50:56Z</time>
      </trkpt>
      <trkpt lat="40.2446780" lon="-1.5040590">
        <ele>1406.0</ele>
        <time>2019-07-05T10:50:57Z</time>
      </trkpt>
      <trkpt lat="40.2444370" lon="-1.5042520">
        <ele>1406.6</ele>
        <time>2019-07-05T10:51:01Z</time>
      </trkpt>
      <trkpt lat="40.2442820" lon="-1.5043550">
        <ele>1407.0</ele>
        <time>2019-07-05T10:51:04Z</time>
      </trkpt>
      <trkpt lat="40.2441370" lon="-1.5044540">
        <ele>1407.6</ele>
        <time>2019-07-05T10:51:07Z</time>
      </trkpt>
      <trkpt lat="40.2440430" lon="-1.5045200">
        <ele>1407.6</ele>
        <time>2019-07-05T10:51:09Z</time>
      </trkpt>
      <trkpt lat="40.2439960" lon="-1.5045510">
        <ele>1407.6</ele>
        <time>2019-07-05T10:51:10Z</time>
      </trkpt>
      <trkpt lat="40.2437230" lon="-1.5047390">
        <ele>1407.8</ele>
        <time>2019-07-05T10:51:16Z</time>
      </trkpt>
      <trkpt lat="40.2434480" lon="-1.5049400">
        <ele>1407.6</ele>
        <time>2019-07-05T10:51:22Z</time>
      </trkpt>
      <trkpt lat="40.2433070" lon="-1.5050370">
        <ele>1407.6</ele>
        <time>2019-07-05T10:51:25Z</time>
      </trkpt>
      <trkpt lat="40.2430790" lon="-1.5051980">
        <ele>1408.0</ele>
        <time>2019-07-05T10:51:30Z</time>
      </trkpt>
      <trkpt lat="40.2427770" lon="-1.5054240">
        <ele>1407.2</ele>
        <time>2019-07-05T10:51:37Z</time>
      </trkpt>
      <trkpt lat="40.2424230" lon="-1.5056600">
        <ele>1406.2</ele>
        <time>2019-07-05T10:51:46Z</time>
      </trkpt>
      <trkpt lat="40.2424020" lon="-1.5056770">
        <ele>1406.0</ele>
        <time>2019-07-05T10:51:47Z</time>
      </trkpt>
      <trkpt lat="40.2423460" lon="-1.5057270">
        <ele>1405.2</ele>
        <time>2019-07-05T10:51:51Z</time>
      </trkpt>
      <trkpt lat="40.2423410" lon="-1.5057300">
        <ele>1405.2</ele>
        <time>2019-07-05T10:51:52Z</time>
      </trkpt>
      <trkpt lat="40.2423410" lon="-1.5057290">
        <ele>1405.0</ele>
        <time>2019-07-05T10:51:53Z</time>
      </trkpt>
      <trkpt lat="40.2422970" lon="-1.5057210">
        <ele>1405.0</ele>
        <time>2019-07-05T10:52:00Z</time>
      </trkpt>
      <trkpt lat="40.2422570" lon="-1.5057300">
        <ele>1405.0</ele>
        <time>2019-07-05T10:52:02Z</time>
      </trkpt>
      <trkpt lat="40.2422090" lon="-1.5057550">
        <ele>1405.0</ele>
        <time>2019-07-05T10:52:04Z</time>
      </trkpt>
      <trkpt lat="40.2421300" lon="-1.5058240">
        <ele>1404.6</ele>
        <time>2019-07-05T10:52:07Z</time>
      </trkpt>
      <trkpt lat="40.2421010" lon="-1.5058570">
        <ele>1404.6</ele>
        <time>2019-07-05T10:52:08Z</time>
      </trkpt>
      <trkpt lat="40.2420360" lon="-1.5059270">
        <ele>1404.4</ele>
        <time>2019-07-05T10:52:10Z</time>
      </trkpt>
      <trkpt lat="40.2419150" lon="-1.5060180">
        <ele>1404.4</ele>
        <time>2019-07-05T10:52:13Z</time>
      </trkpt>
      <trkpt lat="40.2418720" lon="-1.5060500">
        <ele>1404.4</ele>
        <time>2019-07-05T10:52:14Z</time>
      </trkpt>
      <trkpt lat="40.2415900" lon="-1.5062750">
        <ele>1403.8</ele>
        <time>2019-07-05T10:52:20Z</time>
      </trkpt>
      <trkpt lat="40.2415390" lon="-1.5063140">
        <ele>1403.8</ele>
        <time>2019-07-05T10:52:21Z</time>
      </trkpt>
      <trkpt lat="40.2411550" lon="-1.5065840">
        <ele>1402.6</ele>
        <time>2019-07-05T10:52:28Z</time>
      </trkpt>
      <trkpt lat="40.2410440" lon="-1.5066670">
        <ele>1402.6</ele>
        <time>2019-07-05T10:52:30Z</time>
      </trkpt>
      <trkpt lat="40.2405930" lon="-1.5069850">
        <ele>1402.2</ele>
        <time>2019-07-05T10:52:38Z</time>
      </trkpt>
      <trkpt lat="40.2402810" lon="-1.5072130">
        <ele>1403.0</ele>
        <time>2019-07-05T10:52:44Z</time>
      </trkpt>
      <trkpt lat="40.2401860" lon="-1.5072970">
        <ele>1403.2</ele>
        <time>2019-07-05T10:52:46Z</time>
      </trkpt>
      <trkpt lat="40.2399990" lon="-1.5074570">
        <ele>1403.2</ele>
        <time>2019-07-05T10:52:50Z</time>
      </trkpt>
      <trkpt lat="40.2397270" lon="-1.5077360">
        <ele>1403.2</ele>
        <time>2019-07-05T10:52:56Z</time>
      </trkpt>
      <trkpt lat="40.2395650" lon="-1.5079420">
        <ele>1403.2</ele>
        <time>2019-07-05T10:53:00Z</time>
      </trkpt>
      <trkpt lat="40.2394810" lon="-1.5080290">
        <ele>1402.8</ele>
        <time>2019-07-05T10:53:02Z</time>
      </trkpt>
      <trkpt lat="40.2392370" lon="-1.5083230">
        <ele>1402.0</ele>
        <time>2019-07-05T10:53:08Z</time>
      </trkpt>
      <trkpt lat="40.2391510" lon="-1.5084250">
        <ele>1401.8</ele>
        <time>2019-07-05T10:53:10Z</time>
      </trkpt>
      <trkpt lat="40.2389800" lon="-1.5086560">
        <ele>1401.4</ele>
        <time>2019-07-05T10:53:14Z</time>
      </trkpt>
      <trkpt lat="40.2389350" lon="-1.5087160">
        <ele>1401.2</ele>
        <time>2019-07-05T10:53:15Z</time>
      </trkpt>
      <trkpt lat="40.2387820" lon="-1.5088860">
        <ele>1400.6</ele>
        <time>2019-07-05T10:53:18Z</time>
      </trkpt>
      <trkpt lat="40.2386230" lon="-1.5090790">
        <ele>1400.0</ele>
        <time>2019-07-05T10:53:21Z</time>
      </trkpt>
      <trkpt lat="40.2385020" lon="-1.5092080">
        <ele>1399.4</ele>
        <time>2019-07-05T10:53:23Z</time>
      </trkpt>
      <trkpt lat="40.2383200" lon="-1.5094190">
        <ele>1398.6</ele>
        <time>2019-07-05T10:53:26Z</time>
      </trkpt>
      <trkpt lat="40.2382580" lon="-1.5094940">
        <ele>1398.2</ele>
        <time>2019-07-05T10:53:27Z</time>
      </trkpt>
      <trkpt lat="40.2380740" lon="-1.5097340">
        <ele>1397.0</ele>
        <time>2019-07-05T10:53:30Z</time>
      </trkpt>
      <trkpt lat="40.2379440" lon="-1.5098970">
        <ele>1396.0</ele>
        <time>2019-07-05T10:53:32Z</time>
      </trkpt>
      <trkpt lat="40.2378810" lon="-1.5099860">
        <ele>1395.8</ele>
        <time>2019-07-05T10:53:33Z</time>
      </trkpt>
      <trkpt lat="40.2377100" lon="-1.5102810">
        <ele>1394.4</ele>
        <time>2019-07-05T10:53:36Z</time>
      </trkpt>
      <trkpt lat="40.2376610" lon="-1.5103880">
        <ele>1394.0</ele>
        <time>2019-07-05T10:53:37Z</time>
      </trkpt>
      <trkpt lat="40.2375770" lon="-1.5106200">
        <ele>1393.2</ele>
        <time>2019-07-05T10:53:39Z</time>
      </trkpt>
      <trkpt lat="40.2375140" lon="-1.5108660">
        <ele>1392.6</ele>
        <time>2019-07-05T10:53:41Z</time>
      </trkpt>
      <trkpt lat="40.2374730" lon="-1.5111240">
        <ele>1392.0</ele>
        <time>2019-07-05T10:53:43Z</time>
      </trkpt>
      <trkpt lat="40.2374350" lon="-1.5115250">
        <ele>1390.6</ele>
        <time>2019-07-05T10:53:46Z</time>
      </trkpt>
      <trkpt lat="40.2373810" lon="-1.5120410">
        <ele>1389.8</ele>
        <time>2019-07-05T10:53:50Z</time>
      </trkpt>
      <trkpt lat="40.2373350" lon="-1.5122850">
        <ele>1389.2</ele>
        <time>2019-07-05T10:53:52Z</time>
      </trkpt>
      <trkpt lat="40.2372730" lon="-1.5125110">
        <ele>1388.6</ele>
        <time>2019-07-05T10:53:54Z</time>
      </trkpt>
      <trkpt lat="40.2371880" lon="-1.5127060">
        <ele>1388.4</ele>
        <time>2019-07-05T10:53:56Z</time>
      </trkpt>
      <trkpt lat="40.2370590" lon="-1.5129640">
        <ele>1387.6</ele>
        <time>2019-07-05T10:53:59Z</time>
      </trkpt>
      <trkpt lat="40.2369690" lon="-1.5131180">
        <ele>1387.0</ele>
        <time>2019-07-05T10:54:01Z</time>
      </trkpt>
      <trkpt lat="40.2368780" lon="-1.5132570">
        <ele>1386.4</ele>
        <time>2019-07-05T10:54:03Z</time>
      </trkpt>
      <trkpt lat="40.2366980" lon="-1.5135230">
        <ele>1385.8</ele>
        <time>2019-07-05T10:54:07Z</time>
      </trkpt>
      <trkpt lat="40.2365420" lon="-1.5138040">
        <ele>1385.4</ele>
        <time>2019-07-05T10:54:11Z</time>
      </trkpt>
      <trkpt lat="40.2364510" lon="-1.5140240">
        <ele>1385.4</ele>
        <time>2019-07-05T10:54:14Z</time>
      </trkpt>
      <trkpt lat="40.2363510" lon="-1.5143920">
        <ele>1384.6</ele>
        <time>2019-07-05T10:54:19Z</time>
      </trkpt>
      <trkpt lat="40.2363320" lon="-1.5144660">
        <ele>1384.0</ele>
        <time>2019-07-05T10:54:20Z</time>
      </trkpt>
      <trkpt lat="40.2362960" lon="-1.5146220">
        <ele>1382.6</ele>
        <time>2019-07-05T10:54:22Z</time>
      </trkpt>
      <trkpt lat="40.2362380" lon="-1.5148680">
        <ele>1381.6</ele>
        <time>2019-07-05T10:54:25Z</time>
      </trkpt>
      <trkpt lat="40.2361560" lon="-1.5152140">
        <ele>1380.4</ele>
        <time>2019-07-05T10:54:29Z</time>
      </trkpt>
      <trkpt lat="40.2360900" lon="-1.5154880">
        <ele>1380.0</ele>
        <time>2019-07-05T10:54:32Z</time>
      </trkpt>
      <trkpt lat="40.2360050" lon="-1.5158650">
        <ele>1379.2</ele>
        <time>2019-07-05T10:54:36Z</time>
      </trkpt>
      <trkpt lat="40.2359140" lon="-1.5161460">
        <ele>1378.6</ele>
        <time>2019-07-05T10:54:39Z</time>
      </trkpt>
      <trkpt lat="40.2358080" lon="-1.5164200">
        <ele>1378.2</ele>
        <time>2019-07-05T10:54:42Z</time>
      </trkpt>
      <trkpt lat="40.2356790" lon="-1.5166800">
        <ele>1378.0</ele>
        <time>2019-07-05T10:54:45Z</time>
      </trkpt>
      <trkpt lat="40.2354950" lon="-1.5171230">
        <ele>1377.4</ele>
        <time>2019-07-05T10:54:50Z</time>
      </trkpt>
      <trkpt lat="40.2354550" lon="-1.5172080">
        <ele>1376.8</ele>
        <time>2019-07-05T10:54:51Z</time>
      </trkpt>
      <trkpt lat="40.2352930" lon="-1.5175480">
        <ele>1375.8</ele>
        <time>2019-07-05T10:54:55Z</time>
      </trkpt>
      <trkpt lat="40.2351740" lon="-1.5178000">
        <ele>1375.0</ele>
        <time>2019-07-05T10:54:58Z</time>
      </trkpt>
      <trkpt lat="40.2351390" lon="-1.5178870">
        <ele>1374.6</ele>
        <time>2019-07-05T10:54:59Z</time>
      </trkpt>
      <trkpt lat="40.2350670" lon="-1.5180560">
        <ele>1374.2</ele>
        <time>2019-07-05T10:55:01Z</time>
      </trkpt>
      <trkpt lat="40.2349620" lon="-1.5183140">
        <ele>1373.6</ele>
        <time>2019-07-05T10:55:04Z</time>
      </trkpt>
      <trkpt lat="40.2349310" lon="-1.5184010">
        <ele>1373.4</ele>
        <time>2019-07-05T10:55:05Z</time>
      </trkpt>
      <trkpt lat="40.2348510" lon="-1.5187650">
        <ele>1372.6</ele>
        <time>2019-07-05T10:55:09Z</time>
      </trkpt>
      <trkpt lat="40.2348370" lon="-1.5188570">
        <ele>1372.2</ele>
        <time>2019-07-05T10:55:10Z</time>
      </trkpt>
      <trkpt lat="40.2348150" lon="-1.5192280">
        <ele>1371.6</ele>
        <time>2019-07-05T10:55:14Z</time>
      </trkpt>
      <trkpt lat="40.2348130" lon="-1.5195100">
        <ele>1371.0</ele>
        <time>2019-07-05T10:55:17Z</time>
      </trkpt>
      <trkpt lat="40.2348050" lon="-1.5199730">
        <ele>1370.2</ele>
        <time>2019-07-05T10:55:22Z</time>
      </trkpt>
      <trkpt lat="40.2348000" lon="-1.5202440">
        <ele>1369.4</ele>
        <time>2019-07-05T10:55:25Z</time>
      </trkpt>
      <trkpt lat="40.2347960" lon="-1.5204210">
        <ele>1369.2</ele>
        <time>2019-07-05T10:55:27Z</time>
      </trkpt>
      <trkpt lat="40.2347910" lon="-1.5206820">
        <ele>1368.2</ele>
        <time>2019-07-05T10:55:30Z</time>
      </trkpt>
      <trkpt lat="40.2347940" lon="-1.5208110">
        <ele>1367.4</ele>
        <time>2019-07-05T10:55:32Z</time>
      </trkpt>
      <trkpt lat="40.2347970" lon="-1.5208510">
        <ele>1367.0</ele>
        <time>2019-07-05T10:55:33Z</time>
      </trkpt>
      <trkpt lat="40.2347850" lon="-1.5208970">
        <ele>1366.0</ele>
        <time>2019-07-05T10:55:35Z</time>
      </trkpt>
      <trkpt lat="40.2347670" lon="-1.5208960">
        <ele>1365.8</ele>
        <time>2019-07-05T10:55:36Z</time>
      </trkpt>
      <trkpt lat="40.2347540" lon="-1.5208440">
        <ele>1365.6</ele>
        <time>2019-07-05T10:55:38Z</time>
      </trkpt>
      <trkpt lat="40.2347950" lon="-1.5206940">
        <ele>1365.4</ele>
        <time>2019-07-05T10:55:43Z</time>
      </trkpt>
      <trkpt lat="40.2347970" lon="-1.5206300">
        <ele>1365.4</ele>
        <time>2019-07-05T10:55:45Z</time>
      </trkpt>
      <trkpt lat="40.2347920" lon="-1.5205490">
        <ele>1365.6</ele>
        <time>2019-07-05T10:55:49Z</time>
      </trkpt>
      <trkpt lat="40.2347920" lon="-1.5205480">
        <ele>1365.8</ele>
        <time>2019-07-05T10:55:50Z</time>
      </trkpt>
      <trkpt lat="40.2347580" lon="-1.5205940">
        <ele>1364.8</ele>
        <time>2019-07-05T10:56:23Z</time>
      </trkpt>
      <trkpt lat="40.2347610" lon="-1.5206190">
        <ele>1365.0</ele>
        <time>2019-07-05T10:56:24Z</time>
      </trkpt>
      <trkpt lat="40.2347690" lon="-1.5206480">
        <ele>1365.0</ele>
        <time>2019-07-05T10:56:25Z</time>
      </trkpt>
      <trkpt lat="40.2348020" lon="-1.5208550">
        <ele>1365.6</ele>
        <time>2019-07-05T10:56:30Z</time>
      </trkpt>
      <trkpt lat="40.2347990" lon="-1.5209110">
        <ele>1365.6</ele>
        <time>2019-07-05T10:56:31Z</time>
      </trkpt>
      <trkpt lat="40.2347810" lon="-1.5210940">
        <ele>1365.4</ele>
        <time>2019-07-05T10:56:34Z</time>
      </trkpt>
      <trkpt lat="40.2347730" lon="-1.5212270">
        <ele>1365.0</ele>
        <time>2019-07-05T10:56:36Z</time>
      </trkpt>
      <trkpt lat="40.2347770" lon="-1.5215680">
        <ele>1365.0</ele>
        <time>2019-07-05T10:56:41Z</time>
      </trkpt>
      <trkpt lat="40.2347810" lon="-1.5217080">
        <ele>1364.8</ele>
        <time>2019-07-05T10:56:43Z</time>
      </trkpt>
      <trkpt lat="40.2347810" lon="-1.5219290">
        <ele>1364.2</ele>
        <time>2019-07-05T10:56:46Z</time>
      </trkpt>
      <trkpt lat="40.2347770" lon="-1.5220840">
        <ele>1364.0</ele>
        <time>2019-07-05T10:56:48Z</time>
      </trkpt>
      <trkpt lat="40.2347740" lon="-1.5221650">
        <ele>1364.0</ele>
        <time>2019-07-05T10:56:49Z</time>
      </trkpt>
      <trkpt lat="40.2347450" lon="-1.5227000">
        <ele>1363.2</ele>
        <time>2019-07-05T10:56:55Z</time>
      </trkpt>
      <trkpt lat="40.2347390" lon="-1.5227980">
        <ele>1363.0</ele>
        <time>2019-07-05T10:56:56Z</time>
      </trkpt>
      <trkpt lat="40.2347150" lon="-1.5231070">
        <ele>1361.8</ele>
        <time>2019-07-05T10:56:59Z</time>
      </trkpt>
      <trkpt lat="40.2347000" lon="-1.5233160">
        <ele>1360.4</ele>
        <time>2019-07-05T10:57:01Z</time>
      </trkpt>
      <trkpt lat="40.2346740" lon="-1.5236400">
        <ele>1359.2</ele>
        <time>2019-07-05T10:57:04Z</time>
      </trkpt>
      <trkpt lat="40.2346400" lon="-1.5239640">
        <ele>1358.2</ele>
        <time>2019-07-05T10:57:07Z</time>
      </trkpt>
      <trkpt lat="40.2346160" lon="-1.5241780">
        <ele>1357.2</ele>
        <time>2019-07-05T10:57:09Z</time>
      </trkpt>
      <trkpt lat="40.2345840" lon="-1.5243930">
        <ele>1356.4</ele>
        <time>2019-07-05T10:57:11Z</time>
      </trkpt>
      <trkpt lat="40.2345610" lon="-1.5245000">
        <ele>1356.0</ele>
        <time>2019-07-05T10:57:12Z</time>
      </trkpt>
      <trkpt lat="40.2345080" lon="-1.5247150">
        <ele>1355.0</ele>
        <time>2019-07-05T10:57:14Z</time>
      </trkpt>
      <trkpt lat="40.2344760" lon="-1.5248210">
        <ele>1354.6</ele>
        <time>2019-07-05T10:57:15Z</time>
      </trkpt>
      <trkpt lat="40.2343610" lon="-1.5251310">
        <ele>1353.2</ele>
        <time>2019-07-05T10:57:18Z</time>
      </trkpt>
      <trkpt lat="40.2342800" lon="-1.5253350">
        <ele>1352.4</ele>
        <time>2019-07-05T10:57:20Z</time>
      </trkpt>
      <trkpt lat="40.2342380" lon="-1.5254360">
        <ele>1352.2</ele>
        <time>2019-07-05T10:57:21Z</time>
      </trkpt>
      <trkpt lat="40.2341030" lon="-1.5257420">
        <ele>1350.6</ele>
        <time>2019-07-05T10:57:24Z</time>
      </trkpt>
      <trkpt lat="40.2339640" lon="-1.5260570">
        <ele>1349.2</ele>
        <time>2019-07-05T10:57:27Z</time>
      </trkpt>
      <trkpt lat="40.2339140" lon="-1.5261630">
        <ele>1348.8</ele>
        <time>2019-07-05T10:57:28Z</time>
      </trkpt>
      <trkpt lat="40.2338120" lon="-1.5263790">
        <ele>1348.0</ele>
        <time>2019-07-05T10:57:30Z</time>
      </trkpt>
      <trkpt lat="40.2336940" lon="-1.5265850">
        <ele>1346.8</ele>
        <time>2019-07-05T10:57:32Z</time>
      </trkpt>
      <trkpt lat="40.2335660" lon="-1.5267810">
        <ele>1346.0</ele>
        <time>2019-07-05T10:57:34Z</time>
      </trkpt>
      <trkpt lat="40.2334990" lon="-1.5268790">
        <ele>1345.6</ele>
        <time>2019-07-05T10:57:35Z</time>
      </trkpt>
      <trkpt lat="40.2333590" lon="-1.5270640">
        <ele>1344.8</ele>
        <time>2019-07-05T10:57:37Z</time>
      </trkpt>
      <trkpt lat="40.2332780" lon="-1.5271420">
        <ele>1344.2</ele>
        <time>2019-07-05T10:57:38Z</time>
      </trkpt>
      <trkpt lat="40.2331880" lon="-1.5272070">
        <ele>1343.6</ele>
        <time>2019-07-05T10:57:39Z</time>
      </trkpt>
      <trkpt lat="40.2330910" lon="-1.5272550">
        <ele>1342.8</ele>
        <time>2019-07-05T10:57:40Z</time>
      </trkpt>
      <trkpt lat="40.2328870" lon="-1.5273040">
        <ele>1342.2</ele>
        <time>2019-07-05T10:57:42Z</time>
      </trkpt>
      <trkpt lat="40.2327840" lon="-1.5273130">
        <ele>1341.8</ele>
        <time>2019-07-05T10:57:43Z</time>
      </trkpt>
      <trkpt lat="40.2326810" lon="-1.5273190">
        <ele>1341.2</ele>
        <time>2019-07-05T10:57:44Z</time>
      </trkpt>
      <trkpt lat="40.2325770" lon="-1.5273130">
        <ele>1340.6</ele>
        <time>2019-07-05T10:57:45Z</time>
      </trkpt>
      <trkpt lat="40.2324740" lon="-1.5272920">
        <ele>1340.2</ele>
        <time>2019-07-05T10:57:46Z</time>
      </trkpt>
      <trkpt lat="40.2323700" lon="-1.5272670">
        <ele>1339.8</ele>
        <time>2019-07-05T10:57:47Z</time>
      </trkpt>
      <trkpt lat="40.2322640" lon="-1.5272540">
        <ele>1339.4</ele>
        <time>2019-07-05T10:57:48Z</time>
      </trkpt>
      <trkpt lat="40.2321550" lon="-1.5272590">
        <ele>1338.8</ele>
        <time>2019-07-05T10:57:49Z</time>
      </trkpt>
      <trkpt lat="40.2320490" lon="-1.5272810">
        <ele>1338.4</ele>
        <time>2019-07-05T10:57:50Z</time>
      </trkpt>
      <trkpt lat="40.2319460" lon="-1.5273220">
        <ele>1337.6</ele>
        <time>2019-07-05T10:57:51Z</time>
      </trkpt>
      <trkpt lat="40.2318460" lon="-1.5273770">
        <ele>1336.8</ele>
        <time>2019-07-05T10:57:52Z</time>
      </trkpt>
      <trkpt lat="40.2317490" lon="-1.5274450">
        <ele>1336.2</ele>
        <time>2019-07-05T10:57:53Z</time>
      </trkpt>
      <trkpt lat="40.2316540" lon="-1.5275220">
        <ele>1335.6</ele>
        <time>2019-07-05T10:57:54Z</time>
      </trkpt>
      <trkpt lat="40.2315610" lon="-1.5276040">
        <ele>1335.0</ele>
        <time>2019-07-05T10:57:55Z</time>
      </trkpt>
      <trkpt lat="40.2313820" lon="-1.5277870">
        <ele>1333.4</ele>
        <time>2019-07-05T10:57:57Z</time>
      </trkpt>
      <trkpt lat="40.2312950" lon="-1.5278860">
        <ele>1332.8</ele>
        <time>2019-07-05T10:57:58Z</time>
      </trkpt>
      <trkpt lat="40.2312050" lon="-1.5279800">
        <ele>1332.0</ele>
        <time>2019-07-05T10:57:59Z</time>
      </trkpt>
      <trkpt lat="40.2310220" lon="-1.5281540">
        <ele>1330.6</ele>
        <time>2019-07-05T10:58:01Z</time>
      </trkpt>
      <trkpt lat="40.2309220" lon="-1.5282140">
        <ele>1330.0</ele>
        <time>2019-07-05T10:58:02Z</time>
      </trkpt>
      <trkpt lat="40.2308220" lon="-1.5282580">
        <ele>1329.4</ele>
        <time>2019-07-05T10:58:03Z</time>
      </trkpt>
      <trkpt lat="40.2307320" lon="-1.5283010">
        <ele>1328.2</ele>
        <time>2019-07-05T10:58:04Z</time>
      </trkpt>
      <trkpt lat="40.2306570" lon="-1.5283600">
        <ele>1327.2</ele>
        <time>2019-07-05T10:58:05Z</time>
      </trkpt>
      <trkpt lat="40.2306000" lon="-1.5284460">
        <ele>1326.4</ele>
        <time>2019-07-05T10:58:06Z</time>
      </trkpt>
      <trkpt lat="40.2305580" lon="-1.5285510">
        <ele>1325.6</ele>
        <time>2019-07-05T10:58:07Z</time>
      </trkpt>
      <trkpt lat="40.2305400" lon="-1.5286730">
        <ele>1325.0</ele>
        <time>2019-07-05T10:58:08Z</time>
      </trkpt>
      <trkpt lat="40.2305490" lon="-1.5287990">
        <ele>1324.4</ele>
        <time>2019-07-05T10:58:09Z</time>
      </trkpt>
      <trkpt lat="40.2305820" lon="-1.5289180">
        <ele>1323.8</ele>
        <time>2019-07-05T10:58:10Z</time>
      </trkpt>
      <trkpt lat="40.2306890" lon="-1.5291430">
        <ele>1322.4</ele>
        <time>2019-07-05T10:58:12Z</time>
      </trkpt>
      <trkpt lat="40.2308020" lon="-1.5293910">
        <ele>1321.0</ele>
        <time>2019-07-05T10:58:14Z</time>
      </trkpt>
      <trkpt lat="40.2308890" lon="-1.5296570">
        <ele>1319.8</ele>
        <time>2019-07-05T10:58:16Z</time>
      </trkpt>
      <trkpt lat="40.2309440" lon="-1.5299410">
        <ele>1318.6</ele>
        <time>2019-07-05T10:58:18Z</time>
      </trkpt>
      <trkpt lat="40.2310050" lon="-1.5302190">
        <ele>1317.4</ele>
        <time>2019-07-05T10:58:20Z</time>
      </trkpt>
      <trkpt lat="40.2310710" lon="-1.5304790">
        <ele>1316.0</ele>
        <time>2019-07-05T10:58:22Z</time>
      </trkpt>
      <trkpt lat="40.2311280" lon="-1.5307210">
        <ele>1314.8</ele>
        <time>2019-07-05T10:58:24Z</time>
      </trkpt>
      <trkpt lat="40.2311390" lon="-1.5308400">
        <ele>1314.2</ele>
        <time>2019-07-05T10:58:25Z</time>
      </trkpt>
      <trkpt lat="40.2311390" lon="-1.5309580">
        <ele>1313.4</ele>
        <time>2019-07-05T10:58:26Z</time>
      </trkpt>
      <trkpt lat="40.2310730" lon="-1.5311790">
        <ele>1311.4</ele>
        <time>2019-07-05T10:58:28Z</time>
      </trkpt>
      <trkpt lat="40.2308570" lon="-1.5313930">
        <ele>1311.0</ele>
        <time>2019-07-05T10:58:31Z</time>
      </trkpt>
      <trkpt lat="40.2307840" lon="-1.5314480">
        <ele>1310.8</ele>
        <time>2019-07-05T10:58:32Z</time>
      </trkpt>
      <trkpt lat="40.2307150" lon="-1.5315050">
        <ele>1310.4</ele>
        <time>2019-07-05T10:58:33Z</time>
      </trkpt>
      <trkpt lat="40.2305290" lon="-1.5316990">
        <ele>1310.0</ele>
        <time>2019-07-05T10:58:36Z</time>
      </trkpt>
      <trkpt lat="40.2304180" lon="-1.5318410">
        <ele>1309.0</ele>
        <time>2019-07-05T10:58:38Z</time>
      </trkpt>
      <trkpt lat="40.2302740" lon="-1.5320680">
        <ele>1308.4</ele>
        <time>2019-07-05T10:58:41Z</time>
      </trkpt>
      <trkpt lat="40.2301370" lon="-1.5322900">
        <ele>1308.0</ele>
        <time>2019-07-05T10:58:44Z</time>
      </trkpt>
      <trkpt lat="40.2299650" lon="-1.5325780">
        <ele>1307.4</ele>
        <time>2019-07-05T10:58:48Z</time>
      </trkpt>
      <trkpt lat="40.2298090" lon="-1.5328060">
        <ele>1306.8</ele>
        <time>2019-07-05T10:58:51Z</time>
      </trkpt>
      <trkpt lat="40.2297420" lon="-1.5328750">
        <ele>1306.4</ele>
        <time>2019-07-05T10:58:52Z</time>
      </trkpt>
      <trkpt lat="40.2295840" lon="-1.5329780">
        <ele>1305.4</ele>
        <time>2019-07-05T10:58:54Z</time>
      </trkpt>
      <trkpt lat="40.2294980" lon="-1.5330130">
        <ele>1305.0</ele>
        <time>2019-07-05T10:58:55Z</time>
      </trkpt>
      <trkpt lat="40.2294130" lon="-1.5330540">
        <ele>1304.4</ele>
        <time>2019-07-05T10:58:56Z</time>
      </trkpt>
      <trkpt lat="40.2293250" lon="-1.5330950">
        <ele>1303.8</ele>
        <time>2019-07-05T10:58:57Z</time>
      </trkpt>
      <trkpt lat="40.2291450" lon="-1.5331760">
        <ele>1302.4</ele>
        <time>2019-07-05T10:58:59Z</time>
      </trkpt>
      <trkpt lat="40.2290560" lon="-1.5332160">
        <ele>1301.2</ele>
        <time>2019-07-05T10:59:00Z</time>
      </trkpt>
      <trkpt lat="40.2289710" lon="-1.5332700">
        <ele>1300.6</ele>
        <time>2019-07-05T10:59:01Z</time>
      </trkpt>
      <trkpt lat="40.2288510" lon="-1.5334340">
        <ele>1300.2</ele>
        <time>2019-07-05T10:59:03Z</time>
      </trkpt>
      <trkpt lat="40.2287760" lon="-1.5336360">
        <ele>1299.4</ele>
        <time>2019-07-05T10:59:05Z</time>
      </trkpt>
      <trkpt lat="40.2287430" lon="-1.5337420">
        <ele>1298.8</ele>
        <time>2019-07-05T10:59:06Z</time>
      </trkpt>
      <trkpt lat="40.2286810" lon="-1.5339620">
        <ele>1298.0</ele>
        <time>2019-07-05T10:59:08Z</time>
      </trkpt>
      <trkpt lat="40.2286480" lon="-1.5340730">
        <ele>1297.8</ele>
        <time>2019-07-05T10:59:09Z</time>
      </trkpt>
      <trkpt lat="40.2285170" lon="-1.5343720">
        <ele>1296.8</ele>
        <time>2019-07-05T10:59:12Z</time>
      </trkpt>
      <trkpt lat="40.2284180" lon="-1.5345450">
        <ele>1295.8</ele>
        <time>2019-07-05T10:59:14Z</time>
      </trkpt>
      <trkpt lat="40.2283670" lon="-1.5346240">
        <ele>1295.6</ele>
        <time>2019-07-05T10:59:15Z</time>
      </trkpt>
      <trkpt lat="40.2282200" lon="-1.5348720">
        <ele>1295.0</ele>
        <time>2019-07-05T10:59:18Z</time>
      </trkpt>
      <trkpt lat="40.2281110" lon="-1.5350510">
        <ele>1294.4</ele>
        <time>2019-07-05T10:59:20Z</time>
      </trkpt>
      <trkpt lat="40.2279760" lon="-1.5352280">
        <ele>1294.0</ele>
        <time>2019-07-05T10:59:22Z</time>
      </trkpt>
      <trkpt lat="40.2279020" lon="-1.5353160">
        <ele>1293.0</ele>
        <time>2019-07-05T10:59:23Z</time>
      </trkpt>
      <trkpt lat="40.2277530" lon="-1.5354980">
        <ele>1291.0</ele>
        <time>2019-07-05T10:59:25Z</time>
      </trkpt>
      <trkpt lat="40.2276920" lon="-1.5355990">
        <ele>1290.4</ele>
        <time>2019-07-05T10:59:26Z</time>
      </trkpt>
      <trkpt lat="40.2276440" lon="-1.5357120">
        <ele>1290.0</ele>
        <time>2019-07-05T10:59:27Z</time>
      </trkpt>
      <trkpt lat="40.2275880" lon="-1.5359760">
        <ele>1289.0</ele>
        <time>2019-07-05T10:59:29Z</time>
      </trkpt>
      <trkpt lat="40.2275860" lon="-1.5362540">
        <ele>1287.4</ele>
        <time>2019-07-05T10:59:31Z</time>
      </trkpt>
      <trkpt lat="40.2276010" lon="-1.5363930">
        <ele>1286.8</ele>
        <time>2019-07-05T10:59:32Z</time>
      </trkpt>
      <trkpt lat="40.2276240" lon="-1.5365330">
        <ele>1286.0</ele>
        <time>2019-07-05T10:59:33Z</time>
      </trkpt>
      <trkpt lat="40.2276540" lon="-1.5368170">
        <ele>1284.2</ele>
        <time>2019-07-05T10:59:35Z</time>
      </trkpt>
      <trkpt lat="40.2276530" lon="-1.5371050">
        <ele>1282.6</ele>
        <time>2019-07-05T10:59:37Z</time>
      </trkpt>
      <trkpt lat="40.2276250" lon="-1.5373930">
        <ele>1281.0</ele>
        <time>2019-07-05T10:59:39Z</time>
      </trkpt>
      <trkpt lat="40.2276010" lon="-1.5375370">
        <ele>1279.6</ele>
        <time>2019-07-05T10:59:40Z</time>
      </trkpt>
      <trkpt lat="40.2275730" lon="-1.5376790">
        <ele>1278.8</ele>
        <time>2019-07-05T10:59:41Z</time>
      </trkpt>
      <trkpt lat="40.2275430" lon="-1.5378210">
        <ele>1278.0</ele>
        <time>2019-07-05T10:59:42Z</time>
      </trkpt>
      <trkpt lat="40.2274650" lon="-1.5382360">
        <ele>1276.8</ele>
        <time>2019-07-05T10:59:45Z</time>
      </trkpt>
      <trkpt lat="40.2274320" lon="-1.5385080">
        <ele>1275.8</ele>
        <time>2019-07-05T10:59:47Z</time>
      </trkpt>
      <trkpt lat="40.2274270" lon="-1.5386400">
        <ele>1275.6</ele>
        <time>2019-07-05T10:59:48Z</time>
      </trkpt>
      <trkpt lat="40.2274460" lon="-1.5388970">
        <ele>1274.4</ele>
        <time>2019-07-05T10:59:50Z</time>
      </trkpt>
      <trkpt lat="40.2274690" lon="-1.5391460">
        <ele>1273.6</ele>
        <time>2019-07-05T10:59:52Z</time>
      </trkpt>
      <trkpt lat="40.2274820" lon="-1.5392640">
        <ele>1273.2</ele>
        <time>2019-07-05T10:59:53Z</time>
      </trkpt>
      <trkpt lat="40.2275030" lon="-1.5395000">
        <ele>1272.8</ele>
        <time>2019-07-05T10:59:55Z</time>
      </trkpt>
      <trkpt lat="40.2275150" lon="-1.5396140">
        <ele>1272.6</ele>
        <time>2019-07-05T10:59:56Z</time>
      </trkpt>
      <trkpt lat="40.2275590" lon="-1.5399320">
        <ele>1272.8</ele>
        <time>2019-07-05T10:59:59Z</time>
      </trkpt>
      <trkpt lat="40.2275490" lon="-1.5402060">
        <ele>1273.0</ele>
        <time>2019-07-05T11:00:02Z</time>
      </trkpt>
      <trkpt lat="40.2275320" lon="-1.5402770">
        <ele>1273.4</ele>
        <time>2019-07-05T11:00:03Z</time>
      </trkpt>
      <trkpt lat="40.2275140" lon="-1.5403410">
        <ele>1273.4</ele>
        <time>2019-07-05T11:00:04Z</time>
      </trkpt>
      <trkpt lat="40.2274730" lon="-1.5404470">
        <ele>1273.6</ele>
        <time>2019-07-05T11:00:06Z</time>
      </trkpt>
      <trkpt lat="40.2274510" lon="-1.5404900">
        <ele>1273.8</ele>
        <time>2019-07-05T11:00:07Z</time>
      </trkpt>
      <trkpt lat="40.2274140" lon="-1.5405750">
        <ele>1274.2</ele>
        <time>2019-07-05T11:00:09Z</time>
      </trkpt>
      <trkpt lat="40.2273810" lon="-1.5406520">
        <ele>1274.6</ele>
        <time>2019-07-05T11:00:11Z</time>
      </trkpt>
      <trkpt lat="40.2273520" lon="-1.5407230">
        <ele>1275.2</ele>
        <time>2019-07-05T11:00:13Z</time>
      </trkpt>
      <trkpt lat="40.2273230" lon="-1.5407920">
        <ele>1275.4</ele>
        <time>2019-07-05T11:00:15Z</time>
      </trkpt>
      <trkpt lat="40.2273110" lon="-1.5408280">
        <ele>1275.6</ele>
        <time>2019-07-05T11:00:16Z</time>
      </trkpt>
      <trkpt lat="40.2272610" lon="-1.5409620">
        <ele>1276.4</ele>
        <time>2019-07-05T11:00:20Z</time>
      </trkpt>
      <trkpt lat="40.2272450" lon="-1.5410390">
        <ele>1276.8</ele>
        <time>2019-07-05T11:00:22Z</time>
      </trkpt>
      <trkpt lat="40.2272140" lon="-1.5411930">
        <ele>1277.0</ele>
        <time>2019-07-05T11:00:26Z</time>
      </trkpt>
      <trkpt lat="40.2271950" lon="-1.5413110">
        <ele>1277.6</ele>
        <time>2019-07-05T11:00:29Z</time>
      </trkpt>
      <trkpt lat="40.2271790" lon="-1.5413870">
        <ele>1277.8</ele>
        <time>2019-07-05T11:00:31Z</time>
      </trkpt>
      <trkpt lat="40.2271640" lon="-1.5415380">
        <ele>1278.8</ele>
        <time>2019-07-05T11:00:35Z</time>
      </trkpt>
      <trkpt lat="40.2271590" lon="-1.5415770">
        <ele>1278.8</ele>
        <time>2019-07-05T11:00:36Z</time>
      </trkpt>
      <trkpt lat="40.2271380" lon="-1.5416930">
        <ele>1279.0</ele>
        <time>2019-07-05T11:00:39Z</time>
      </trkpt>
      <trkpt lat="40.2271250" lon="-1.5418950">
        <ele>1279.6</ele>
        <time>2019-07-05T11:00:44Z</time>
      </trkpt>
      <trkpt lat="40.2270880" lon="-1.5421600">
        <ele>1279.8</ele>
        <time>2019-07-05T11:00:50Z</time>
      </trkpt>
      <trkpt lat="40.2270060" lon="-1.5424220">
        <ele>1280.0</ele>
        <time>2019-07-05T11:00:56Z</time>
      </trkpt>
      <trkpt lat="40.2269640" lon="-1.5424980">
        <ele>1280.4</ele>
        <time>2019-07-05T11:00:58Z</time>
      </trkpt>
      <trkpt lat="40.2267870" lon="-1.5427370">
        <ele>1280.8</ele>
        <time>2019-07-05T11:01:05Z</time>
      </trkpt>
      <trkpt lat="40.2267070" lon="-1.5428290">
        <ele>1281.4</ele>
        <time>2019-07-05T11:01:08Z</time>
      </trkpt>
      <trkpt lat="40.2265980" lon="-1.5429230">
        <ele>1281.8</ele>
        <time>2019-07-05T11:01:12Z</time>
      </trkpt>
      <trkpt lat="40.2264680" lon="-1.5429740">
        <ele>1282.6</ele>
        <time>2019-07-05T11:01:17Z</time>
      </trkpt>
      <trkpt lat="40.2264340" lon="-1.5429870">
        <ele>1282.6</ele>
        <time>2019-07-05T11:01:18Z</time>
      </trkpt>
      <trkpt lat="40.2262460" lon="-1.5430590">
        <ele>1281.8</ele>
        <time>2019-07-05T11:01:22Z</time>
      </trkpt>
      <trkpt lat="40.2261970" lon="-1.5430780">
        <ele>1281.2</ele>
        <time>2019-07-05T11:01:23Z</time>
      </trkpt>
      <trkpt lat="40.2260900" lon="-1.5431130">
        <ele>1280.0</ele>
        <time>2019-07-05T11:01:25Z</time>
      </trkpt>
      <trkpt lat="40.2259760" lon="-1.5431630">
        <ele>1278.8</ele>
        <time>2019-07-05T11:01:27Z</time>
      </trkpt>
      <trkpt lat="40.2259160" lon="-1.5431810">
        <ele>1278.2</ele>
        <time>2019-07-05T11:01:28Z</time>
      </trkpt>
      <trkpt lat="40.2258520" lon="-1.5431900">
        <ele>1277.6</ele>
        <time>2019-07-05T11:01:29Z</time>
      </trkpt>
      <trkpt lat="40.2257120" lon="-1.5431750">
        <ele>1276.4</ele>
        <time>2019-07-05T11:01:31Z</time>
      </trkpt>
      <trkpt lat="40.2256420" lon="-1.5431480">
        <ele>1275.6</ele>
        <time>2019-07-05T11:01:32Z</time>
      </trkpt>
      <trkpt lat="40.2255750" lon="-1.5431100">
        <ele>1275.0</ele>
        <time>2019-07-05T11:01:33Z</time>
      </trkpt>
      <trkpt lat="40.2255110" lon="-1.5430670">
        <ele>1274.8</ele>
        <time>2019-07-05T11:01:34Z</time>
      </trkpt>
      <trkpt lat="40.2254480" lon="-1.5430210">
        <ele>1274.6</ele>
        <time>2019-07-05T11:01:35Z</time>
      </trkpt>
      <trkpt lat="40.2252030" lon="-1.5428490">
        <ele>1274.2</ele>
        <time>2019-07-05T11:01:39Z</time>
      </trkpt>
      <trkpt lat="40.2250900" lon="-1.5427830">
        <ele>1273.8</ele>
        <time>2019-07-05T11:01:41Z</time>
      </trkpt>
      <trkpt lat="40.2250330" lon="-1.5427590">
        <ele>1273.4</ele>
        <time>2019-07-05T11:01:42Z</time>
      </trkpt>
      <trkpt lat="40.2249110" lon="-1.5427330">
        <ele>1273.0</ele>
        <time>2019-07-05T11:01:44Z</time>
      </trkpt>
      <trkpt lat="40.2248500" lon="-1.5427330">
        <ele>1272.4</ele>
        <time>2019-07-05T11:01:45Z</time>
      </trkpt>
      <trkpt lat="40.2247910" lon="-1.5427420">
        <ele>1272.0</ele>
        <time>2019-07-05T11:01:46Z</time>
      </trkpt>
      <trkpt lat="40.2246830" lon="-1.5427870">
        <ele>1271.2</ele>
        <time>2019-07-05T11:01:48Z</time>
      </trkpt>
      <trkpt lat="40.2245950" lon="-1.5428800">
        <ele>1269.8</ele>
        <time>2019-07-05T11:01:50Z</time>
      </trkpt>
      <trkpt lat="40.2245240" lon="-1.5430170">
        <ele>1268.6</ele>
        <time>2019-07-05T11:01:52Z</time>
      </trkpt>
      <trkpt lat="40.2244170" lon="-1.5432280">
        <ele>1267.6</ele>
        <time>2019-07-05T11:01:55Z</time>
      </trkpt>
      <trkpt lat="40.2243800" lon="-1.5432930">
        <ele>1267.4</ele>
        <time>2019-07-05T11:01:56Z</time>
      </trkpt>
      <trkpt lat="40.2242470" lon="-1.5434290">
        <ele>1266.8</ele>
        <time>2019-07-05T11:01:59Z</time>
      </trkpt>
      <trkpt lat="40.2242020" lon="-1.5434580">
        <ele>1266.8</ele>
        <time>2019-07-05T11:02:00Z</time>
      </trkpt>
      <trkpt lat="40.2241610" lon="-1.5434830">
        <ele>1266.8</ele>
        <time>2019-07-05T11:02:01Z</time>
      </trkpt>
      <trkpt lat="40.2240860" lon="-1.5435290">
        <ele>1266.8</ele>
        <time>2019-07-05T11:02:03Z</time>
      </trkpt>
      <trkpt lat="40.2240480" lon="-1.5435440">
        <ele>1266.8</ele>
        <time>2019-07-05T11:02:04Z</time>
      </trkpt>
      <trkpt lat="40.2239800" lon="-1.5435850">
        <ele>1267.6</ele>
        <time>2019-07-05T11:02:06Z</time>
      </trkpt>
      <trkpt lat="40.2239480" lon="-1.5436070">
        <ele>1267.8</ele>
        <time>2019-07-05T11:02:07Z</time>
      </trkpt>
      <trkpt lat="40.2238920" lon="-1.5436540">
        <ele>1268.0</ele>
        <time>2019-07-05T11:02:09Z</time>
      </trkpt>
      <trkpt lat="40.2238440" lon="-1.5437060">
        <ele>1268.6</ele>
        <time>2019-07-05T11:02:11Z</time>
      </trkpt>
      <trkpt lat="40.2237860" lon="-1.5437810">
        <ele>1269.4</ele>
        <time>2019-07-05T11:02:14Z</time>
      </trkpt>
      <trkpt lat="40.2237520" lon="-1.5438310">
        <ele>1269.8</ele>
        <time>2019-07-05T11:02:16Z</time>
      </trkpt>
      <trkpt lat="40.2237190" lon="-1.5439150">
        <ele>1270.4</ele>
        <time>2019-07-05T11:02:19Z</time>
      </trkpt>
      <trkpt lat="40.2236820" lon="-1.5439850">
        <ele>1270.8</ele>
        <time>2019-07-05T11:02:22Z</time>
      </trkpt>
      <trkpt lat="40.2236430" lon="-1.5440340">
        <ele>1271.2</ele>
        <time>2019-07-05T11:02:25Z</time>
      </trkpt>
      <trkpt lat="40.2236260" lon="-1.5440390">
        <ele>1271.8</ele>
        <time>2019-07-05T11:02:27Z</time>
      </trkpt>
      <trkpt lat="40.2236270" lon="-1.5440400">
        <ele>1271.8</ele>
        <time>2019-07-05T11:02:28Z</time>
      </trkpt>
      <trkpt lat="40.2236210" lon="-1.5439830">
        <ele>1271.2</ele>
        <time>2019-07-05T11:03:06Z</time>
      </trkpt>
      <trkpt lat="40.2236200" lon="-1.5439340">
        <ele>1271.0</ele>
        <time>2019-07-05T11:03:08Z</time>
      </trkpt>
      <trkpt lat="40.2235730" lon="-1.5438790">
        <ele>1269.8</ele>
        <time>2019-07-05T11:03:11Z</time>
      </trkpt>
      <trkpt lat="40.2235420" lon="-1.5438470">
        <ele>1269.6</ele>
        <time>2019-07-05T11:03:12Z</time>
      </trkpt>
      <trkpt lat="40.2234570" lon="-1.5437940">
        <ele>1268.8</ele>
        <time>2019-07-05T11:03:15Z</time>
      </trkpt>
      <trkpt lat="40.2234250" lon="-1.5437430">
        <ele>1267.6</ele>
        <time>2019-07-05T11:03:17Z</time>
      </trkpt>
      <trkpt lat="40.2234080" lon="-1.5436520">
        <ele>1266.6</ele>
        <time>2019-07-05T11:03:19Z</time>
      </trkpt>
      <trkpt lat="40.2234230" lon="-1.5435710">
        <ele>1266.0</ele>
        <time>2019-07-05T11:03:21Z</time>
      </trkpt>
      <trkpt lat="40.2234360" lon="-1.5435380">
        <ele>1265.8</ele>
        <time>2019-07-05T11:03:22Z</time>
      </trkpt>
      <trkpt lat="40.2234390" lon="-1.5435100">
        <ele>1265.6</ele>
        <time>2019-07-05T11:03:23Z</time>
      </trkpt>
      <trkpt lat="40.2234470" lon="-1.5434520">
        <ele>1265.6</ele>
        <time>2019-07-05T11:03:25Z</time>
      </trkpt>
      <trkpt lat="40.2234610" lon="-1.5433550">
        <ele>1265.8</ele>
        <time>2019-07-05T11:03:28Z</time>
      </trkpt>
      <trkpt lat="40.2234500" lon="-1.5431800">
        <ele>1265.8</ele>
        <time>2019-07-05T11:03:33Z</time>
      </trkpt>
      <trkpt lat="40.2234110" lon="-1.5430230">
        <ele>1265.4</ele>
        <time>2019-07-05T11:03:37Z</time>
      </trkpt>
      <trkpt lat="40.2234020" lon="-1.5429910">
        <ele>1265.2</ele>
        <time>2019-07-05T11:03:38Z</time>
      </trkpt>
      <trkpt lat="40.2233880" lon="-1.5428960">
        <ele>1264.2</ele>
        <time>2019-07-05T11:03:41Z</time>
      </trkpt>
      <trkpt lat="40.2233820" lon="-1.5428470">
        <ele>1263.8</ele>
        <time>2019-07-05T11:03:43Z</time>
      </trkpt>
      <trkpt lat="40.2233790" lon="-1.5428280">
        <ele>1263.6</ele>
        <time>2019-07-05T11:03:44Z</time>
      </trkpt>
      <trkpt lat="40.2233380" lon="-1.5427290">
        <ele>1263.2</ele>
        <time>2019-07-05T11:03:48Z</time>
      </trkpt>
      <trkpt lat="40.2233420" lon="-1.5426820">
        <ele>1262.6</ele>
        <time>2019-07-05T11:03:50Z</time>
      </trkpt>
      <trkpt lat="40.2233450" lon="-1.5426630">
        <ele>1262.2</ele>
        <time>2019-07-05T11:03:52Z</time>
      </trkpt>
      <trkpt lat="40.2233470" lon="-1.5426620">
        <ele>1262.0</ele>
        <time>2019-07-05T11:03:53Z</time>
      </trkpt>
      <trkpt lat="40.2235360" lon="-1.5428760">
        <ele>1264.4</ele>
        <time>2019-07-05T11:35:13Z</time>
      </trkpt>
      <trkpt lat="40.2235540" lon="-1.5429080">
        <ele>1264.6</ele>
        <time>2019-07-05T11:35:15Z</time>
      </trkpt>
      <trkpt lat="40.2235840" lon="-1.5429610">
        <ele>1265.2</ele>
        <time>2019-07-05T11:35:18Z</time>
      </trkpt>
      <trkpt lat="40.2236170" lon="-1.5430160">
        <ele>1265.8</ele>
        <time>2019-07-05T11:35:21Z</time>
      </trkpt>
      <trkpt lat="40.2236360" lon="-1.5430580">
        <ele>1266.4</ele>
        <time>2019-07-05T11:35:23Z</time>
      </trkpt>
      <trkpt lat="40.2236740" lon="-1.5431400">
        <ele>1266.6</ele>
        <time>2019-07-05T11:35:27Z</time>
      </trkpt>
      <trkpt lat="40.2237310" lon="-1.5432680">
        <ele>1267.2</ele>
        <time>2019-07-05T11:35:33Z</time>
      </trkpt>
      <trkpt lat="40.2237530" lon="-1.5433040">
        <ele>1267.4</ele>
        <time>2019-07-05T11:35:35Z</time>
      </trkpt>
      <trkpt lat="40.2238240" lon="-1.5434250">
        <ele>1267.6</ele>
        <time>2019-07-05T11:35:42Z</time>
      </trkpt>
      <trkpt lat="40.2238230" lon="-1.5434280">
        <ele>1267.6</ele>
        <time>2019-07-05T11:35:43Z</time>
      </trkpt>
      <trkpt lat="40.2238580" lon="-1.5435130">
        <ele>1269.0</ele>
        <time>2019-07-05T11:36:04Z</time>
      </trkpt>
      <trkpt lat="40.2238640" lon="-1.5435280">
        <ele>1269.0</ele>
        <time>2019-07-05T11:36:05Z</time>
      </trkpt>
      <trkpt lat="40.2238760" lon="-1.5435440">
        <ele>1269.2</ele>
        <time>2019-07-05T11:36:06Z</time>
      </trkpt>
      <trkpt lat="40.2238910" lon="-1.5435750">
        <ele>1269.4</ele>
        <time>2019-07-05T11:36:10Z</time>
      </trkpt>
      <trkpt lat="40.2239570" lon="-1.5436250">
        <ele>1269.4</ele>
        <time>2019-07-05T11:36:27Z</time>
      </trkpt>
      <trkpt lat="40.2239960" lon="-1.5436060">
        <ele>1269.2</ele>
        <time>2019-07-05T11:36:29Z</time>
      </trkpt>
      <trkpt lat="40.2241650" lon="-1.5435020">
        <ele>1268.4</ele>
        <time>2019-07-05T11:36:35Z</time>
      </trkpt>
      <trkpt lat="40.2242320" lon="-1.5434430">
        <ele>1268.2</ele>
        <time>2019-07-05T11:36:37Z</time>
      </trkpt>
      <trkpt lat="40.2242700" lon="-1.5434150">
        <ele>1268.0</ele>
        <time>2019-07-05T11:36:38Z</time>
      </trkpt>
      <trkpt lat="40.2243450" lon="-1.5433490">
        <ele>1267.6</ele>
        <time>2019-07-05T11:36:40Z</time>
      </trkpt>
      <trkpt lat="40.2244660" lon="-1.5431650">
        <ele>1267.4</ele>
        <time>2019-07-05T11:36:44Z</time>
      </trkpt>
      <trkpt lat="40.2244920" lon="-1.5431220">
        <ele>1267.4</ele>
        <time>2019-07-05T11:36:45Z</time>
      </trkpt>
      <trkpt lat="40.2245400" lon="-1.5430410">
        <ele>1267.2</ele>
        <time>2019-07-05T11:36:47Z</time>
      </trkpt>
      <trkpt lat="40.2246380" lon="-1.5428510">
        <ele>1267.6</ele>
        <time>2019-07-05T11:36:52Z</time>
      </trkpt>
      <trkpt lat="40.2247850" lon="-1.5427440">
        <ele>1269.0</ele>
        <time>2019-07-05T11:36:58Z</time>
      </trkpt>
      <trkpt lat="40.2248610" lon="-1.5427280">
        <ele>1269.6</ele>
        <time>2019-07-05T11:37:01Z</time>
      </trkpt>
      <trkpt lat="40.2248850" lon="-1.5427260">
        <ele>1270.4</ele>
        <time>2019-07-05T11:37:02Z</time>
      </trkpt>
      <trkpt lat="40.2249100" lon="-1.5427240">
        <ele>1270.8</ele>
        <time>2019-07-05T11:37:03Z</time>
      </trkpt>
      <trkpt lat="40.2250340" lon="-1.5427420">
        <ele>1271.4</ele>
        <time>2019-07-05T11:37:08Z</time>
      </trkpt>
      <trkpt lat="40.2250580" lon="-1.5427500">
        <ele>1271.6</ele>
        <time>2019-07-05T11:37:09Z</time>
      </trkpt>
      <trkpt lat="40.2251290" lon="-1.5427800">
        <ele>1272.4</ele>
        <time>2019-07-05T11:37:12Z</time>
      </trkpt>
      <trkpt lat="40.2251520" lon="-1.5427940">
        <ele>1272.8</ele>
        <time>2019-07-05T11:37:13Z</time>
      </trkpt>
      <trkpt lat="40.2251950" lon="-1.5428220">
        <ele>1274.0</ele>
        <time>2019-07-05T11:37:15Z</time>
      </trkpt>
      <trkpt lat="40.2252420" lon="-1.5428540">
        <ele>1274.4</ele>
        <time>2019-07-05T11:37:17Z</time>
      </trkpt>
      <trkpt lat="40.2253400" lon="-1.5429270">
        <ele>1275.0</ele>
        <time>2019-07-05T11:37:21Z</time>
      </trkpt>
      <trkpt lat="40.2254420" lon="-1.5430040">
        <ele>1275.4</ele>
        <time>2019-07-05T11:37:25Z</time>
      </trkpt>
      <trkpt lat="40.2255200" lon="-1.5430580">
        <ele>1275.2</ele>
        <time>2019-07-05T11:37:28Z</time>
      </trkpt>
      <trkpt lat="40.2255690" lon="-1.5431060">
        <ele>1275.0</ele>
        <time>2019-07-05T11:37:30Z</time>
      </trkpt>
      <trkpt lat="40.2256810" lon="-1.5431730">
        <ele>1275.2</ele>
        <time>2019-07-05T11:37:34Z</time>
      </trkpt>
      <trkpt lat="40.2257640" lon="-1.5432040">
        <ele>1275.4</ele>
        <time>2019-07-05T11:37:37Z</time>
      </trkpt>
      <trkpt lat="40.2259210" lon="-1.5431970">
        <ele>1276.2</ele>
        <time>2019-07-05T11:37:43Z</time>
      </trkpt>
      <trkpt lat="40.2259450" lon="-1.5431930">
        <ele>1276.4</ele>
        <time>2019-07-05T11:37:44Z</time>
      </trkpt>
      <trkpt lat="40.2260330" lon="-1.5431620">
        <ele>1277.8</ele>
        <time>2019-07-05T11:37:48Z</time>
      </trkpt>
      <trkpt lat="40.2260950" lon="-1.5431300">
        <ele>1278.6</ele>
        <time>2019-07-05T11:37:51Z</time>
      </trkpt>
      <trkpt lat="40.2261360" lon="-1.5431100">
        <ele>1278.8</ele>
        <time>2019-07-05T11:37:53Z</time>
      </trkpt>
      <trkpt lat="40.2262180" lon="-1.5430610">
        <ele>1279.8</ele>
        <time>2019-07-05T11:37:57Z</time>
      </trkpt>
      <trkpt lat="40.2262410" lon="-1.5430520">
        <ele>1280.2</ele>
        <time>2019-07-05T11:37:58Z</time>
      </trkpt>
      <trkpt lat="40.2263670" lon="-1.5429970">
        <ele>1281.2</ele>
        <time>2019-07-05T11:38:04Z</time>
      </trkpt>
      <trkpt lat="40.2264520" lon="-1.5429650">
        <ele>1282.2</ele>
        <time>2019-07-05T11:38:08Z</time>
      </trkpt>
      <trkpt lat="40.2264730" lon="-1.5429630">
        <ele>1282.6</ele>
        <time>2019-07-05T11:38:09Z</time>
      </trkpt>
      <trkpt lat="40.2265120" lon="-1.5429790">
        <ele>1283.2</ele>
        <time>2019-07-05T11:38:11Z</time>
      </trkpt>
      <trkpt lat="40.2265220" lon="-1.5430020">
        <ele>1283.4</ele>
        <time>2019-07-05T11:38:12Z</time>
      </trkpt>
      <trkpt lat="40.2265240" lon="-1.5430300">
        <ele>1283.8</ele>
        <time>2019-07-05T11:38:13Z</time>
      </trkpt>
      <trkpt lat="40.2264790" lon="-1.5431470">
        <ele>1284.4</ele>
        <time>2019-07-05T11:38:16Z</time>
      </trkpt>
      <trkpt lat="40.2264650" lon="-1.5431690">
        <ele>1284.4</ele>
        <time>2019-07-05T11:38:17Z</time>
      </trkpt>
      <trkpt lat="40.2264500" lon="-1.5431930">
        <ele>1284.6</ele>
        <time>2019-07-05T11:38:18Z</time>
      </trkpt>
      <trkpt lat="40.2263740" lon="-1.5433890">
        <ele>1285.4</ele>
        <time>2019-07-05T11:38:24Z</time>
      </trkpt>
      <trkpt lat="40.2263570" lon="-1.5434620">
        <ele>1285.4</ele>
        <time>2019-07-05T11:38:26Z</time>
      </trkpt>
      <trkpt lat="40.2263570" lon="-1.5436520">
        <ele>1286.0</ele>
        <time>2019-07-05T11:38:31Z</time>
      </trkpt>
      <trkpt lat="40.2264040" lon="-1.5438780">
        <ele>1287.0</ele>
        <time>2019-07-05T11:38:37Z</time>
      </trkpt>
      <trkpt lat="40.2264300" lon="-1.5439490">
        <ele>1287.2</ele>
        <time>2019-07-05T11:38:39Z</time>
      </trkpt>
      <trkpt lat="40.2265220" lon="-1.5441080">
        <ele>1288.0</ele>
        <time>2019-07-05T11:38:44Z</time>
      </trkpt>
      <trkpt lat="40.2265700" lon="-1.5441620">
        <ele>1288.2</ele>
        <time>2019-07-05T11:38:46Z</time>
      </trkpt>
      <trkpt lat="40.2266970" lon="-1.5442970">
        <ele>1289.0</ele>
        <time>2019-07-05T11:38:51Z</time>
      </trkpt>
      <trkpt lat="40.2267810" lon="-1.5443700">
        <ele>1289.0</ele>
        <time>2019-07-05T11:38:54Z</time>
      </trkpt>
      <trkpt lat="40.2269650" lon="-1.5445650">
        <ele>1288.6</ele>
        <time>2019-07-05T11:39:01Z</time>
      </trkpt>
      <trkpt lat="40.2271100" lon="-1.5447810">
        <ele>1289.2</ele>
        <time>2019-07-05T11:39:07Z</time>
      </trkpt>
      <trkpt lat="40.2273180" lon="-1.5451070">
        <ele>1289.4</ele>
        <time>2019-07-05T11:39:15Z</time>
      </trkpt>
      <trkpt lat="40.2273380" lon="-1.5451540">
        <ele>1289.6</ele>
        <time>2019-07-05T11:39:16Z</time>
      </trkpt>
      <trkpt lat="40.2273960" lon="-1.5453750">
        <ele>1289.8</ele>
        <time>2019-07-05T11:39:20Z</time>
      </trkpt>
      <trkpt lat="40.2275170" lon="-1.5459130">
        <ele>1289.6</ele>
        <time>2019-07-05T11:39:29Z</time>
      </trkpt>
      <trkpt lat="40.2275520" lon="-1.5460910">
        <ele>1289.8</ele>
        <time>2019-07-05T11:39:32Z</time>
      </trkpt>
      <trkpt lat="40.2275710" lon="-1.5462080">
        <ele>1289.8</ele>
        <time>2019-07-05T11:39:34Z</time>
      </trkpt>
      <trkpt lat="40.2275980" lon="-1.5463730">
        <ele>1289.8</ele>
        <time>2019-07-05T11:39:37Z</time>
      </trkpt>
      <trkpt lat="40.2276210" lon="-1.5465310">
        <ele>1290.2</ele>
        <time>2019-07-05T11:39:40Z</time>
      </trkpt>
      <trkpt lat="40.2276430" lon="-1.5467270">
        <ele>1291.2</ele>
        <time>2019-07-05T11:39:44Z</time>
      </trkpt>
      <trkpt lat="40.2276940" lon="-1.5470220">
        <ele>1291.6</ele>
        <time>2019-07-05T11:39:50Z</time>
      </trkpt>
      <trkpt lat="40.2277260" lon="-1.5471590">
        <ele>1292.4</ele>
        <time>2019-07-05T11:39:53Z</time>
      </trkpt>
      <trkpt lat="40.2277760" lon="-1.5473790">
        <ele>1293.0</ele>
        <time>2019-07-05T11:39:58Z</time>
      </trkpt>
      <trkpt lat="40.2278210" lon="-1.5475370">
        <ele>1293.6</ele>
        <time>2019-07-05T11:40:02Z</time>
      </trkpt>
      <trkpt lat="40.2278510" lon="-1.5476100">
        <ele>1293.8</ele>
        <time>2019-07-05T11:40:04Z</time>
      </trkpt>
      <trkpt lat="40.2278930" lon="-1.5477220">
        <ele>1294.6</ele>
        <time>2019-07-05T11:40:07Z</time>
      </trkpt>
      <trkpt lat="40.2279650" lon="-1.5479200">
        <ele>1295.6</ele>
        <time>2019-07-05T11:40:12Z</time>
      </trkpt>
      <trkpt lat="40.2279790" lon="-1.5479590">
        <ele>1295.8</ele>
        <time>2019-07-05T11:40:13Z</time>
      </trkpt>
      <trkpt lat="40.2280870" lon="-1.5482160">
        <ele>1296.8</ele>
        <time>2019-07-05T11:40:20Z</time>
      </trkpt>
      <trkpt lat="40.2282190" lon="-1.5485090">
        <ele>1298.0</ele>
        <time>2019-07-05T11:40:28Z</time>
      </trkpt>
      <trkpt lat="40.2282870" lon="-1.5486540">
        <ele>1299.0</ele>
        <time>2019-07-05T11:40:32Z</time>
      </trkpt>
      <trkpt lat="40.2283390" lon="-1.5487620">
        <ele>1299.4</ele>
        <time>2019-07-05T11:40:35Z</time>
      </trkpt>
      <trkpt lat="40.2284260" lon="-1.5489450">
        <ele>1300.0</ele>
        <time>2019-07-05T11:40:40Z</time>
      </trkpt>
      <trkpt lat="40.2284420" lon="-1.5489840">
        <ele>1300.2</ele>
        <time>2019-07-05T11:40:41Z</time>
      </trkpt>
      <trkpt lat="40.2285030" lon="-1.5491410">
        <ele>1301.2</ele>
        <time>2019-07-05T11:40:45Z</time>
      </trkpt>
      <trkpt lat="40.2285860" lon="-1.5493460">
        <ele>1302.2</ele>
        <time>2019-07-05T11:40:50Z</time>
      </trkpt>
      <trkpt lat="40.2286860" lon="-1.5495230">
        <ele>1303.4</ele>
        <time>2019-07-05T11:40:55Z</time>
      </trkpt>
      <trkpt lat="40.2287250" lon="-1.5495960">
        <ele>1303.6</ele>
        <time>2019-07-05T11:40:57Z</time>
      </trkpt>
      <trkpt lat="40.2288300" lon="-1.5497700">
        <ele>1304.4</ele>
        <time>2019-07-05T11:41:02Z</time>
      </trkpt>
      <trkpt lat="40.2289180" lon="-1.5499210">
        <ele>1304.8</ele>
        <time>2019-07-05T11:41:06Z</time>
      </trkpt>
      <trkpt lat="40.2290190" lon="-1.5500980">
        <ele>1305.6</ele>
        <time>2019-07-05T11:41:11Z</time>
      </trkpt>
      <trkpt lat="40.2290950" lon="-1.5502380">
        <ele>1306.4</ele>
        <time>2019-07-05T11:41:15Z</time>
      </trkpt>
      <trkpt lat="40.2291950" lon="-1.5504180">
        <ele>1306.8</ele>
        <time>2019-07-05T11:41:20Z</time>
      </trkpt>
      <trkpt lat="40.2292860" lon="-1.5506040">
        <ele>1307.8</ele>
        <time>2019-07-05T11:41:25Z</time>
      </trkpt>
      <trkpt lat="40.2293060" lon="-1.5506380">
        <ele>1307.8</ele>
        <time>2019-07-05T11:41:26Z</time>
      </trkpt>
      <trkpt lat="40.2294390" lon="-1.5508800">
        <ele>1308.6</ele>
        <time>2019-07-05T11:41:33Z</time>
      </trkpt>
      <trkpt lat="40.2294750" lon="-1.5509490">
        <ele>1308.8</ele>
        <time>2019-07-05T11:41:35Z</time>
      </trkpt>
      <trkpt lat="40.2295760" lon="-1.5511610">
        <ele>1309.4</ele>
        <time>2019-07-05T11:41:41Z</time>
      </trkpt>
      <trkpt lat="40.2296090" lon="-1.5512320">
        <ele>1310.0</ele>
        <time>2019-07-05T11:41:43Z</time>
      </trkpt>
      <trkpt lat="40.2296960" lon="-1.5514010">
        <ele>1311.0</ele>
        <time>2019-07-05T11:41:48Z</time>
      </trkpt>
      <trkpt lat="40.2298040" lon="-1.5516090">
        <ele>1312.2</ele>
        <time>2019-07-05T11:41:54Z</time>
      </trkpt>
      <trkpt lat="40.2299150" lon="-1.5518310">
        <ele>1313.2</ele>
        <time>2019-07-05T11:42:00Z</time>
      </trkpt>
      <trkpt lat="40.2299330" lon="-1.5518670">
        <ele>1313.4</ele>
        <time>2019-07-05T11:42:01Z</time>
      </trkpt>
      <trkpt lat="40.2300410" lon="-1.5520810">
        <ele>1314.2</ele>
        <time>2019-07-05T11:42:07Z</time>
      </trkpt>
      <trkpt lat="40.2300600" lon="-1.5521200">
        <ele>1314.2</ele>
        <time>2019-07-05T11:42:08Z</time>
      </trkpt>
      <trkpt lat="40.2302130" lon="-1.5524450">
        <ele>1315.0</ele>
        <time>2019-07-05T11:42:16Z</time>
      </trkpt>
      <trkpt lat="40.2302300" lon="-1.5524870">
        <ele>1315.2</ele>
        <time>2019-07-05T11:42:17Z</time>
      </trkpt>
      <trkpt lat="40.2303270" lon="-1.5526830">
        <ele>1316.4</ele>
        <time>2019-07-05T11:42:22Z</time>
      </trkpt>
      <trkpt lat="40.2303670" lon="-1.5527660">
        <ele>1316.6</ele>
        <time>2019-07-05T11:42:24Z</time>
      </trkpt>
      <trkpt lat="40.2303860" lon="-1.5528070">
        <ele>1316.8</ele>
        <time>2019-07-05T11:42:25Z</time>
      </trkpt>
      <trkpt lat="40.2305070" lon="-1.5530470">
        <ele>1317.6</ele>
        <time>2019-07-05T11:42:31Z</time>
      </trkpt>
      <trkpt lat="40.2305870" lon="-1.5532110">
        <ele>1318.4</ele>
        <time>2019-07-05T11:42:35Z</time>
      </trkpt>
      <trkpt lat="40.2306070" lon="-1.5532530">
        <ele>1318.6</ele>
        <time>2019-07-05T11:42:36Z</time>
      </trkpt>
      <trkpt lat="40.2307410" lon="-1.5535350">
        <ele>1319.4</ele>
        <time>2019-07-05T11:42:43Z</time>
      </trkpt>
      <trkpt lat="40.2308200" lon="-1.5536870">
        <ele>1319.8</ele>
        <time>2019-07-05T11:42:47Z</time>
      </trkpt>
      <trkpt lat="40.2308720" lon="-1.5537980">
        <ele>1320.4</ele>
        <time>2019-07-05T11:42:50Z</time>
      </trkpt>
      <trkpt lat="40.2309110" lon="-1.5538630">
        <ele>1320.8</ele>
        <time>2019-07-05T11:42:52Z</time>
      </trkpt>
      <trkpt lat="40.2310030" lon="-1.5540420">
        <ele>1322.0</ele>
        <time>2019-07-05T11:42:57Z</time>
      </trkpt>
      <trkpt lat="40.2310890" lon="-1.5542300">
        <ele>1323.0</ele>
        <time>2019-07-05T11:43:02Z</time>
      </trkpt>
      <trkpt lat="40.2311650" lon="-1.5543730">
        <ele>1324.0</ele>
        <time>2019-07-05T11:43:06Z</time>
      </trkpt>
      <trkpt lat="40.2311850" lon="-1.5544100">
        <ele>1324.2</ele>
        <time>2019-07-05T11:43:07Z</time>
      </trkpt>
      <trkpt lat="40.2312600" lon="-1.5546050">
        <ele>1325.2</ele>
        <time>2019-07-05T11:43:12Z</time>
      </trkpt>
      <trkpt lat="40.2312770" lon="-1.5546440">
        <ele>1325.6</ele>
        <time>2019-07-05T11:43:13Z</time>
      </trkpt>
      <trkpt lat="40.2313070" lon="-1.5547230">
        <ele>1326.6</ele>
        <time>2019-07-05T11:43:15Z</time>
      </trkpt>
      <trkpt lat="40.2313930" lon="-1.5549710">
        <ele>1327.8</ele>
        <time>2019-07-05T11:43:21Z</time>
      </trkpt>
      <trkpt lat="40.2314680" lon="-1.5551730">
        <ele>1328.8</ele>
        <time>2019-07-05T11:43:26Z</time>
      </trkpt>
      <trkpt lat="40.2315120" lon="-1.5552930">
        <ele>1329.2</ele>
        <time>2019-07-05T11:43:29Z</time>
      </trkpt>
      <trkpt lat="40.2315540" lon="-1.5554650">
        <ele>1329.8</ele>
        <time>2019-07-05T11:43:33Z</time>
      </trkpt>
      <trkpt lat="40.2315830" lon="-1.5555490">
        <ele>1330.2</ele>
        <time>2019-07-05T11:43:35Z</time>
      </trkpt>
      <trkpt lat="40.2316730" lon="-1.5558100">
        <ele>1331.0</ele>
        <time>2019-07-05T11:43:41Z</time>
      </trkpt>
      <trkpt lat="40.2317110" lon="-1.5558900">
        <ele>1331.4</ele>
        <time>2019-07-05T11:43:43Z</time>
      </trkpt>
      <trkpt lat="40.2317670" lon="-1.5560080">
        <ele>1332.0</ele>
        <time>2019-07-05T11:43:46Z</time>
      </trkpt>
      <trkpt lat="40.2318680" lon="-1.5562210">
        <ele>1333.2</ele>
        <time>2019-07-05T11:43:52Z</time>
      </trkpt>
      <trkpt lat="40.2319800" lon="-1.5564330">
        <ele>1334.4</ele>
        <time>2019-07-05T11:43:58Z</time>
      </trkpt>
      <trkpt lat="40.2320170" lon="-1.5565040">
        <ele>1334.8</ele>
        <time>2019-07-05T11:44:00Z</time>
      </trkpt>
      <trkpt lat="40.2320830" lon="-1.5567060">
        <ele>1335.6</ele>
        <time>2019-07-05T11:44:05Z</time>
      </trkpt>
      <trkpt lat="40.2321430" lon="-1.5568650">
        <ele>1336.6</ele>
        <time>2019-07-05T11:44:09Z</time>
      </trkpt>
      <trkpt lat="40.2321620" lon="-1.5569030">
        <ele>1336.8</ele>
        <time>2019-07-05T11:44:10Z</time>
      </trkpt>
      <trkpt lat="40.2322470" lon="-1.5571430">
        <ele>1337.6</ele>
        <time>2019-07-05T11:44:16Z</time>
      </trkpt>
      <trkpt lat="40.2322580" lon="-1.5571830">
        <ele>1337.8</ele>
        <time>2019-07-05T11:44:17Z</time>
      </trkpt>
      <trkpt lat="40.2323070" lon="-1.5573820">
        <ele>1338.6</ele>
        <time>2019-07-05T11:44:22Z</time>
      </trkpt>
      <trkpt lat="40.2323290" lon="-1.5574610">
        <ele>1339.0</ele>
        <time>2019-07-05T11:44:24Z</time>
      </trkpt>
      <trkpt lat="40.2323790" lon="-1.5576540">
        <ele>1340.2</ele>
        <time>2019-07-05T11:44:29Z</time>
      </trkpt>
      <trkpt lat="40.2323880" lon="-1.5576920">
        <ele>1340.4</ele>
        <time>2019-07-05T11:44:30Z</time>
      </trkpt>
      <trkpt lat="40.2324320" lon="-1.5578460">
        <ele>1341.4</ele>
        <time>2019-07-05T11:44:34Z</time>
      </trkpt>
      <trkpt lat="40.2324720" lon="-1.5579950">
        <ele>1342.2</ele>
        <time>2019-07-05T11:44:38Z</time>
      </trkpt>
      <trkpt lat="40.2324930" lon="-1.5580710">
        <ele>1342.6</ele>
        <time>2019-07-05T11:44:40Z</time>
      </trkpt>
      <trkpt lat="40.2325300" lon="-1.5582200">
        <ele>1343.6</ele>
        <time>2019-07-05T11:44:44Z</time>
      </trkpt>
      <trkpt lat="40.2325400" lon="-1.5582560">
        <ele>1343.8</ele>
        <time>2019-07-05T11:44:45Z</time>
      </trkpt>
      <trkpt lat="40.2325680" lon="-1.5583610">
        <ele>1344.6</ele>
        <time>2019-07-05T11:44:48Z</time>
      </trkpt>
      <trkpt lat="40.2326090" lon="-1.5585420">
        <ele>1345.6</ele>
        <time>2019-07-05T11:44:53Z</time>
      </trkpt>
      <trkpt lat="40.2326330" lon="-1.5586830">
        <ele>1346.6</ele>
        <time>2019-07-05T11:44:57Z</time>
      </trkpt>
      <trkpt lat="40.2326590" lon="-1.5587920">
        <ele>1347.4</ele>
        <time>2019-07-05T11:45:00Z</time>
      </trkpt>
      <trkpt lat="40.2326780" lon="-1.5588660">
        <ele>1347.8</ele>
        <time>2019-07-05T11:45:02Z</time>
      </trkpt>
      <trkpt lat="40.2327180" lon="-1.5590470">
        <ele>1348.6</ele>
        <time>2019-07-05T11:45:07Z</time>
      </trkpt>
      <trkpt lat="40.2327280" lon="-1.5590840">
        <ele>1348.8</ele>
        <time>2019-07-05T11:45:08Z</time>
      </trkpt>
      <trkpt lat="40.2327650" lon="-1.5592770">
        <ele>1350.0</ele>
        <time>2019-07-05T11:45:13Z</time>
      </trkpt>
      <trkpt lat="40.2327910" lon="-1.5594340">
        <ele>1351.0</ele>
        <time>2019-07-05T11:45:17Z</time>
      </trkpt>
      <trkpt lat="40.2328150" lon="-1.5595790">
        <ele>1352.0</ele>
        <time>2019-07-05T11:45:21Z</time>
      </trkpt>
      <trkpt lat="40.2328400" lon="-1.5597250">
        <ele>1352.6</ele>
        <time>2019-07-05T11:45:25Z</time>
      </trkpt>
      <trkpt lat="40.2328550" lon="-1.5597970">
        <ele>1353.0</ele>
        <time>2019-07-05T11:45:27Z</time>
      </trkpt>
      <trkpt lat="40.2328840" lon="-1.5599490">
        <ele>1354.2</ele>
        <time>2019-07-05T11:45:31Z</time>
      </trkpt>
      <trkpt lat="40.2329020" lon="-1.5600680">
        <ele>1355.0</ele>
        <time>2019-07-05T11:45:34Z</time>
      </trkpt>
      <trkpt lat="40.2329110" lon="-1.5601050">
        <ele>1355.2</ele>
        <time>2019-07-05T11:45:35Z</time>
      </trkpt>
      <trkpt lat="40.2329500" lon="-1.5603290">
        <ele>1356.4</ele>
        <time>2019-07-05T11:45:41Z</time>
      </trkpt>
      <trkpt lat="40.2329650" lon="-1.5604040">
        <ele>1357.0</ele>
        <time>2019-07-05T11:45:43Z</time>
      </trkpt>
      <trkpt lat="40.2329840" lon="-1.5605130">
        <ele>1357.6</ele>
        <time>2019-07-05T11:45:46Z</time>
      </trkpt>
      <trkpt lat="40.2330310" lon="-1.5606930">
        <ele>1358.6</ele>
        <time>2019-07-05T11:45:51Z</time>
      </trkpt>
      <trkpt lat="40.2330400" lon="-1.5607310">
        <ele>1359.0</ele>
        <time>2019-07-05T11:45:52Z</time>
      </trkpt>
      <trkpt lat="40.2330540" lon="-1.5608070">
        <ele>1359.6</ele>
        <time>2019-07-05T11:45:54Z</time>
      </trkpt>
      <trkpt lat="40.2330940" lon="-1.5610490">
        <ele>1360.8</ele>
        <time>2019-07-05T11:46:00Z</time>
      </trkpt>
      <trkpt lat="40.2331350" lon="-1.5612380">
        <ele>1361.8</ele>
        <time>2019-07-05T11:46:05Z</time>
      </trkpt>
      <trkpt lat="40.2331630" lon="-1.5613850">
        <ele>1362.4</ele>
        <time>2019-07-05T11:46:09Z</time>
      </trkpt>
      <trkpt lat="40.2331750" lon="-1.5614600">
        <ele>1363.4</ele>
        <time>2019-07-05T11:46:11Z</time>
      </trkpt>
      <trkpt lat="40.2332140" lon="-1.5616450">
        <ele>1364.4</ele>
        <time>2019-07-05T11:46:16Z</time>
      </trkpt>
      <trkpt lat="40.2332660" lon="-1.5619690">
        <ele>1365.4</ele>
        <time>2019-07-05T11:46:24Z</time>
      </trkpt>
      <trkpt lat="40.2332810" lon="-1.5620520">
        <ele>1365.4</ele>
        <time>2019-07-05T11:46:26Z</time>
      </trkpt>
      <trkpt lat="40.2333170" lon="-1.5622580">
        <ele>1366.6</ele>
        <time>2019-07-05T11:46:31Z</time>
      </trkpt>
      <trkpt lat="40.2333360" lon="-1.5623410">
        <ele>1367.0</ele>
        <time>2019-07-05T11:46:33Z</time>
      </trkpt>
      <trkpt lat="40.2333980" lon="-1.5626700">
        <ele>1367.4</ele>
        <time>2019-07-05T11:46:41Z</time>
      </trkpt>
      <trkpt lat="40.2334210" lon="-1.5628390">
        <ele>1367.6</ele>
        <time>2019-07-05T11:46:45Z</time>
      </trkpt>
      <trkpt lat="40.2334530" lon="-1.5630020">
        <ele>1368.2</ele>
        <time>2019-07-05T11:46:49Z</time>
      </trkpt>
      <trkpt lat="40.2334720" lon="-1.5630840">
        <ele>1368.6</ele>
        <time>2019-07-05T11:46:51Z</time>
      </trkpt>
      <trkpt lat="40.2335640" lon="-1.5633830">
        <ele>1369.4</ele>
        <time>2019-07-05T11:46:58Z</time>
      </trkpt>
      <trkpt lat="40.2336260" lon="-1.5634980">
        <ele>1369.8</ele>
        <time>2019-07-05T11:47:01Z</time>
      </trkpt>
      <trkpt lat="40.2337230" lon="-1.5636330">
        <ele>1370.6</ele>
        <time>2019-07-05T11:47:05Z</time>
      </trkpt>
      <trkpt lat="40.2337910" lon="-1.5637390">
        <ele>1371.0</ele>
        <time>2019-07-05T11:47:08Z</time>
      </trkpt>
      <trkpt lat="40.2338670" lon="-1.5638510">
        <ele>1372.2</ele>
        <time>2019-07-05T11:47:11Z</time>
      </trkpt>
      <trkpt lat="40.2339130" lon="-1.5639380">
        <ele>1373.0</ele>
        <time>2019-07-05T11:47:13Z</time>
      </trkpt>
      <trkpt lat="40.2339450" lon="-1.5640390">
        <ele>1373.4</ele>
        <time>2019-07-05T11:47:15Z</time>
      </trkpt>
      <trkpt lat="40.2339570" lon="-1.5640900">
        <ele>1373.6</ele>
        <time>2019-07-05T11:47:16Z</time>
      </trkpt>
      <trkpt lat="40.2339780" lon="-1.5642730">
        <ele>1374.4</ele>
        <time>2019-07-05T11:47:20Z</time>
      </trkpt>
      <trkpt lat="40.2339700" lon="-1.5643490">
        <ele>1375.0</ele>
        <time>2019-07-05T11:47:22Z</time>
      </trkpt>
      <trkpt lat="40.2339630" lon="-1.5644120">
        <ele>1375.4</ele>
        <time>2019-07-05T11:47:24Z</time>
      </trkpt>
      <trkpt lat="40.2339590" lon="-1.5645080">
        <ele>1376.6</ele>
        <time>2019-07-05T11:47:27Z</time>
      </trkpt>
      <trkpt lat="40.2339510" lon="-1.5645690">
        <ele>1377.8</ele>
        <time>2019-07-05T11:47:29Z</time>
      </trkpt>
      <trkpt lat="40.2339010" lon="-1.5647550">
        <ele>1378.8</ele>
        <time>2019-07-05T11:47:35Z</time>
      </trkpt>
      <trkpt lat="40.2338930" lon="-1.5648180">
        <ele>1379.6</ele>
        <time>2019-07-05T11:47:37Z</time>
      </trkpt>
      <trkpt lat="40.2338870" lon="-1.5648820">
        <ele>1380.2</ele>
        <time>2019-07-05T11:47:39Z</time>
      </trkpt>
      <trkpt lat="40.2338630" lon="-1.5650390">
        <ele>1381.4</ele>
        <time>2019-07-05T11:47:44Z</time>
      </trkpt>
      <trkpt lat="40.2338630" lon="-1.5650700">
        <ele>1381.8</ele>
        <time>2019-07-05T11:47:45Z</time>
      </trkpt>
      <trkpt lat="40.2338660" lon="-1.5651340">
        <ele>1382.6</ele>
        <time>2019-07-05T11:47:47Z</time>
      </trkpt>
      <trkpt lat="40.2338660" lon="-1.5652550">
        <ele>1383.8</ele>
        <time>2019-07-05T11:47:51Z</time>
      </trkpt>
      <trkpt lat="40.2338790" lon="-1.5653730">
        <ele>1384.8</ele>
        <time>2019-07-05T11:47:55Z</time>
      </trkpt>
      <trkpt lat="40.2338860" lon="-1.5654040">
        <ele>1385.0</ele>
        <time>2019-07-05T11:47:56Z</time>
      </trkpt>
      <trkpt lat="40.2339090" lon="-1.5655940">
        <ele>1386.6</ele>
        <time>2019-07-05T11:48:02Z</time>
      </trkpt>
      <trkpt lat="40.2339330" lon="-1.5657230">
        <ele>1387.6</ele>
        <time>2019-07-05T11:48:06Z</time>
      </trkpt>
      <trkpt lat="40.2339690" lon="-1.5658420">
        <ele>1389.0</ele>
        <time>2019-07-05T11:48:10Z</time>
      </trkpt>
      <trkpt lat="40.2339810" lon="-1.5658720">
        <ele>1389.2</ele>
        <time>2019-07-05T11:48:11Z</time>
      </trkpt>
      <trkpt lat="40.2340340" lon="-1.5659950">
        <ele>1390.0</ele>
        <time>2019-07-05T11:48:15Z</time>
      </trkpt>
      <trkpt lat="40.2340770" lon="-1.5660830">
        <ele>1390.4</ele>
        <time>2019-07-05T11:48:18Z</time>
      </trkpt>
      <trkpt lat="40.2341740" lon="-1.5662890">
        <ele>1390.6</ele>
        <time>2019-07-05T11:48:24Z</time>
      </trkpt>
      <trkpt lat="40.2342570" lon="-1.5665170">
        <ele>1390.8</ele>
        <time>2019-07-05T11:48:29Z</time>
      </trkpt>
      <trkpt lat="40.2342930" lon="-1.5665750">
        <ele>1391.0</ele>
        <time>2019-07-05T11:48:31Z</time>
      </trkpt>
      <trkpt lat="40.2343420" lon="-1.5666530">
        <ele>1392.0</ele>
        <time>2019-07-05T11:48:34Z</time>
      </trkpt>
      <trkpt lat="40.2343580" lon="-1.5666730">
        <ele>1392.0</ele>
        <time>2019-07-05T11:48:35Z</time>
      </trkpt>
      <trkpt lat="40.2344130" lon="-1.5667160">
        <ele>1392.6</ele>
        <time>2019-07-05T11:48:39Z</time>
      </trkpt>
      <trkpt lat="40.2344300" lon="-1.5667210">
        <ele>1392.8</ele>
        <time>2019-07-05T11:48:42Z</time>
      </trkpt>
      <trkpt lat="40.2344320" lon="-1.5667200">
        <ele>1392.8</ele>
        <time>2019-07-05T11:48:43Z</time>
      </trkpt>
      <trkpt lat="40.2344650" lon="-1.5667560">
        <ele>1392.8</ele>
        <time>2019-07-05T11:48:54Z</time>
      </trkpt>
      <trkpt lat="40.2345090" lon="-1.5667950">
        <ele>1393.0</ele>
        <time>2019-07-05T11:48:57Z</time>
      </trkpt>
      <trkpt lat="40.2345400" lon="-1.5668270">
        <ele>1393.2</ele>
        <time>2019-07-05T11:49:00Z</time>
      </trkpt>
      <trkpt lat="40.2346260" lon="-1.5668850">
        <ele>1394.4</ele>
        <time>2019-07-05T11:49:06Z</time>
      </trkpt>
      <trkpt lat="40.2346710" lon="-1.5669650">
        <ele>1395.2</ele>
        <time>2019-07-05T11:49:10Z</time>
      </trkpt>
      <trkpt lat="40.2346780" lon="-1.5669870">
        <ele>1395.2</ele>
        <time>2019-07-05T11:49:11Z</time>
      </trkpt>
      <trkpt lat="40.2346860" lon="-1.5670060">
        <ele>1395.4</ele>
        <time>2019-07-05T11:49:12Z</time>
      </trkpt>
      <trkpt lat="40.2347110" lon="-1.5670640">
        <ele>1396.6</ele>
        <time>2019-07-05T11:49:16Z</time>
      </trkpt>
      <trkpt lat="40.2347260" lon="-1.5670780">
        <ele>1397.0</ele>
        <time>2019-07-05T11:49:18Z</time>
      </trkpt>
      <trkpt lat="40.2347270" lon="-1.5671590">
        <ele>1397.2</ele>
        <time>2019-07-05T11:49:22Z</time>
      </trkpt>
      <trkpt lat="40.2347290" lon="-1.5671940">
        <ele>1397.2</ele>
        <time>2019-07-05T11:49:23Z</time>
      </trkpt>
      <trkpt lat="40.2347490" lon="-1.5674060">
        <ele>1396.4</ele>
        <time>2019-07-05T11:49:27Z</time>
      </trkpt>
      <trkpt lat="40.2347940" lon="-1.5675340">
        <ele>1395.8</ele>
        <time>2019-07-05T11:49:31Z</time>
      </trkpt>
      <trkpt lat="40.2348300" lon="-1.5675850">
        <ele>1396.4</ele>
        <time>2019-07-05T11:49:36Z</time>
      </trkpt>
      <trkpt lat="40.2348290" lon="-1.5675830">
        <ele>1396.4</ele>
        <time>2019-07-05T11:49:37Z</time>
      </trkpt>
      <trkpt lat="40.2348180" lon="-1.5676530">
        <ele>1396.0</ele>
        <time>2019-07-05T11:55:10Z</time>
      </trkpt>
      <trkpt lat="40.2348270" lon="-1.5676740">
        <ele>1396.0</ele>
        <time>2019-07-05T11:55:11Z</time>
      </trkpt>
      <trkpt lat="40.2348370" lon="-1.5676990">
        <ele>1396.0</ele>
        <time>2019-07-05T11:55:12Z</time>
      </trkpt>
      <trkpt lat="40.2348800" lon="-1.5678130">
        <ele>1396.4</ele>
        <time>2019-07-05T11:55:16Z</time>
      </trkpt>
      <trkpt lat="40.2349350" lon="-1.5679300">
        <ele>1397.0</ele>
        <time>2019-07-05T11:55:20Z</time>
      </trkpt>
      <trkpt lat="40.2349510" lon="-1.5679630">
        <ele>1397.2</ele>
        <time>2019-07-05T11:55:21Z</time>
      </trkpt>
      <trkpt lat="40.2350330" lon="-1.5681640">
        <ele>1397.8</ele>
        <time>2019-07-05T11:55:27Z</time>
      </trkpt>
      <trkpt lat="40.2350600" lon="-1.5682320">
        <ele>1398.2</ele>
        <time>2019-07-05T11:55:29Z</time>
      </trkpt>
      <trkpt lat="40.2350710" lon="-1.5682660">
        <ele>1398.4</ele>
        <time>2019-07-05T11:55:30Z</time>
      </trkpt>
      <trkpt lat="40.2351330" lon="-1.5684670">
        <ele>1398.4</ele>
        <time>2019-07-05T11:55:35Z</time>
      </trkpt>
      <trkpt lat="40.2351910" lon="-1.5687160">
        <ele>1398.2</ele>
        <time>2019-07-05T11:55:40Z</time>
      </trkpt>
      <trkpt lat="40.2352200" lon="-1.5688250">
        <ele>1398.2</ele>
        <time>2019-07-05T11:55:42Z</time>
      </trkpt>
      <trkpt lat="40.2352550" lon="-1.5690170">
        <ele>1398.2</ele>
        <time>2019-07-05T11:55:45Z</time>
      </trkpt>
      <trkpt lat="40.2352950" lon="-1.5692000">
        <ele>1398.0</ele>
        <time>2019-07-05T11:55:48Z</time>
      </trkpt>
      <trkpt lat="40.2353320" lon="-1.5693260">
        <ele>1397.8</ele>
        <time>2019-07-05T11:55:50Z</time>
      </trkpt>
      <trkpt lat="40.2353960" lon="-1.5696110">
        <ele>1397.8</ele>
        <time>2019-07-05T11:55:55Z</time>
      </trkpt>
      <trkpt lat="40.2353960" lon="-1.5698860">
        <ele>1398.2</ele>
        <time>2019-07-05T11:56:00Z</time>
      </trkpt>
      <trkpt lat="40.2353930" lon="-1.5699440">
        <ele>1398.4</ele>
        <time>2019-07-05T11:56:01Z</time>
      </trkpt>
      <trkpt lat="40.2354240" lon="-1.5701210">
        <ele>1398.4</ele>
        <time>2019-07-05T11:56:04Z</time>
      </trkpt>
      <trkpt lat="40.2355070" lon="-1.5702240">
        <ele>1399.0</ele>
        <time>2019-07-05T11:56:07Z</time>
      </trkpt>
      <trkpt lat="40.2355500" lon="-1.5702770">
        <ele>1399.4</ele>
        <time>2019-07-05T11:56:09Z</time>
      </trkpt>
      <trkpt lat="40.2355730" lon="-1.5703000">
        <ele>1399.6</ele>
        <time>2019-07-05T11:56:10Z</time>
      </trkpt>
      <trkpt lat="40.2356380" lon="-1.5703730">
        <ele>1400.2</ele>
        <time>2019-07-05T11:56:13Z</time>
      </trkpt>
      <trkpt lat="40.2356600" lon="-1.5703960">
        <ele>1400.4</ele>
        <time>2019-07-05T11:56:14Z</time>
      </trkpt>
      <trkpt lat="40.2357460" lon="-1.5704910">
        <ele>1401.6</ele>
        <time>2019-07-05T11:56:18Z</time>
      </trkpt>
      <trkpt lat="40.2358010" lon="-1.5705540">
        <ele>1402.4</ele>
        <time>2019-07-05T11:56:21Z</time>
      </trkpt>
      <trkpt lat="40.2358200" lon="-1.5705710">
        <ele>1402.6</ele>
        <time>2019-07-05T11:56:22Z</time>
      </trkpt>
      <trkpt lat="40.2358750" lon="-1.5706290">
        <ele>1403.4</ele>
        <time>2019-07-05T11:56:25Z</time>
      </trkpt>
      <trkpt lat="40.2359090" lon="-1.5706700">
        <ele>1403.6</ele>
        <time>2019-07-05T11:56:27Z</time>
      </trkpt>
      <trkpt lat="40.2359640" lon="-1.5707290">
        <ele>1404.2</ele>
        <time>2019-07-05T11:56:30Z</time>
      </trkpt>
      <trkpt lat="40.2360160" lon="-1.5708000">
        <ele>1404.8</ele>
        <time>2019-07-05T11:56:33Z</time>
      </trkpt>
      <trkpt lat="40.2360860" lon="-1.5708890">
        <ele>1405.4</ele>
        <time>2019-07-05T11:56:37Z</time>
      </trkpt>
      <trkpt lat="40.2361540" lon="-1.5709780">
        <ele>1406.0</ele>
        <time>2019-07-05T11:56:41Z</time>
      </trkpt>
      <trkpt lat="40.2362010" lon="-1.5710370">
        <ele>1406.6</ele>
        <time>2019-07-05T11:56:44Z</time>
      </trkpt>
      <trkpt lat="40.2362340" lon="-1.5710800">
        <ele>1407.2</ele>
        <time>2019-07-05T11:56:46Z</time>
      </trkpt>
      <trkpt lat="40.2362990" lon="-1.5711580">
        <ele>1407.6</ele>
        <time>2019-07-05T11:56:50Z</time>
      </trkpt>
      <trkpt lat="40.2363540" lon="-1.5712270">
        <ele>1408.2</ele>
        <time>2019-07-05T11:56:53Z</time>
      </trkpt>
      <trkpt lat="40.2364180" lon="-1.5713170">
        <ele>1409.0</ele>
        <time>2019-07-05T11:56:57Z</time>
      </trkpt>
      <trkpt lat="40.2364300" lon="-1.5713420">
        <ele>1409.4</ele>
        <time>2019-07-05T11:56:58Z</time>
      </trkpt>
      <trkpt lat="40.2365290" lon="-1.5714760">
        <ele>1410.4</ele>
        <time>2019-07-05T11:57:03Z</time>
      </trkpt>
      <trkpt lat="40.2365500" lon="-1.5715020">
        <ele>1410.4</ele>
        <time>2019-07-05T11:57:04Z</time>
      </trkpt>
      <trkpt lat="40.2366250" lon="-1.5716010">
        <ele>1411.4</ele>
        <time>2019-07-05T11:57:08Z</time>
      </trkpt>
      <trkpt lat="40.2366910" lon="-1.5716640">
        <ele>1412.2</ele>
        <time>2019-07-05T11:57:11Z</time>
      </trkpt>
      <trkpt lat="40.2367210" lon="-1.5717130">
        <ele>1412.6</ele>
        <time>2019-07-05T11:57:13Z</time>
      </trkpt>
      <trkpt lat="40.2367920" lon="-1.5718100">
        <ele>1413.8</ele>
        <time>2019-07-05T11:57:17Z</time>
      </trkpt>
      <trkpt lat="40.2368090" lon="-1.5718390">
        <ele>1414.0</ele>
        <time>2019-07-05T11:57:18Z</time>
      </trkpt>
      <trkpt lat="40.2368530" lon="-1.5719200">
        <ele>1414.8</ele>
        <time>2019-07-05T11:57:21Z</time>
      </trkpt>
      <trkpt lat="40.2369420" lon="-1.5720440">
        <ele>1415.2</ele>
        <time>2019-07-05T11:57:26Z</time>
      </trkpt>
      <trkpt lat="40.2370090" lon="-1.5721440">
        <ele>1416.0</ele>
        <time>2019-07-05T11:57:30Z</time>
      </trkpt>
      <trkpt lat="40.2370820" lon="-1.5722370">
        <ele>1416.8</ele>
        <time>2019-07-05T11:57:34Z</time>
      </trkpt>
      <trkpt lat="40.2371010" lon="-1.5722600">
        <ele>1416.8</ele>
        <time>2019-07-05T11:57:35Z</time>
      </trkpt>
      <trkpt lat="40.2371930" lon="-1.5723960">
        <ele>1418.0</ele>
        <time>2019-07-05T11:57:40Z</time>
      </trkpt>
      <trkpt lat="40.2372110" lon="-1.5724210">
        <ele>1418.2</ele>
        <time>2019-07-05T11:57:41Z</time>
      </trkpt>
      <trkpt lat="40.2373100" lon="-1.5725610">
        <ele>1419.0</ele>
        <time>2019-07-05T11:57:46Z</time>
      </trkpt>
      <trkpt lat="40.2373790" lon="-1.5726260">
        <ele>1419.4</ele>
        <time>2019-07-05T11:57:49Z</time>
      </trkpt>
      <trkpt lat="40.2374240" lon="-1.5726690">
        <ele>1420.0</ele>
        <time>2019-07-05T11:57:51Z</time>
      </trkpt>
      <trkpt lat="40.2375400" lon="-1.5728100">
        <ele>1421.2</ele>
        <time>2019-07-05T11:57:57Z</time>
      </trkpt>
      <trkpt lat="40.2376200" lon="-1.5729130">
        <ele>1422.2</ele>
        <time>2019-07-05T11:58:01Z</time>
      </trkpt>
      <trkpt lat="40.2376780" lon="-1.5729900">
        <ele>1423.2</ele>
        <time>2019-07-05T11:58:04Z</time>
      </trkpt>
      <trkpt lat="40.2376970" lon="-1.5730150">
        <ele>1423.6</ele>
        <time>2019-07-05T11:58:05Z</time>
      </trkpt>
      <trkpt lat="40.2377520" lon="-1.5730860">
        <ele>1424.2</ele>
        <time>2019-07-05T11:58:08Z</time>
      </trkpt>
      <trkpt lat="40.2378230" lon="-1.5731870">
        <ele>1425.2</ele>
        <time>2019-07-05T11:58:12Z</time>
      </trkpt>
      <trkpt lat="40.2378430" lon="-1.5732110">
        <ele>1425.4</ele>
        <time>2019-07-05T11:58:13Z</time>
      </trkpt>
      <trkpt lat="40.2379250" lon="-1.5733100">
        <ele>1426.4</ele>
        <time>2019-07-05T11:58:17Z</time>
      </trkpt>
      <trkpt lat="40.2380290" lon="-1.5734350">
        <ele>1427.0</ele>
        <time>2019-07-05T11:58:22Z</time>
      </trkpt>
      <trkpt lat="40.2380510" lon="-1.5734600">
        <ele>1427.4</ele>
        <time>2019-07-05T11:58:23Z</time>
      </trkpt>
      <trkpt lat="40.2381570" lon="-1.5735920">
        <ele>1428.6</ele>
        <time>2019-07-05T11:58:28Z</time>
      </trkpt>
      <trkpt lat="40.2381800" lon="-1.5736180">
        <ele>1428.8</ele>
        <time>2019-07-05T11:58:29Z</time>
      </trkpt>
      <trkpt lat="40.2382440" lon="-1.5737030">
        <ele>1429.6</ele>
        <time>2019-07-05T11:58:32Z</time>
      </trkpt>
      <trkpt lat="40.2383330" lon="-1.5738050">
        <ele>1430.8</ele>
        <time>2019-07-05T11:58:36Z</time>
      </trkpt>
      <trkpt lat="40.2384640" lon="-1.5739670">
        <ele>1431.6</ele>
        <time>2019-07-05T11:58:42Z</time>
      </trkpt>
      <trkpt lat="40.2384860" lon="-1.5739910">
        <ele>1432.0</ele>
        <time>2019-07-05T11:58:43Z</time>
      </trkpt>
      <trkpt lat="40.2385560" lon="-1.5740640">
        <ele>1433.0</ele>
        <time>2019-07-05T11:58:46Z</time>
      </trkpt>
      <trkpt lat="40.2386510" lon="-1.5741600">
        <ele>1434.2</ele>
        <time>2019-07-05T11:58:50Z</time>
      </trkpt>
      <trkpt lat="40.2386750" lon="-1.5741860">
        <ele>1434.4</ele>
        <time>2019-07-05T11:58:51Z</time>
      </trkpt>
      <trkpt lat="40.2387900" lon="-1.5743050">
        <ele>1435.2</ele>
        <time>2019-07-05T11:58:56Z</time>
      </trkpt>
      <trkpt lat="40.2388760" lon="-1.5743980">
        <ele>1436.2</ele>
        <time>2019-07-05T11:59:00Z</time>
      </trkpt>
      <trkpt lat="40.2388950" lon="-1.5744210">
        <ele>1436.4</ele>
        <time>2019-07-05T11:59:01Z</time>
      </trkpt>
      <trkpt lat="40.2389870" lon="-1.5745450">
        <ele>1437.6</ele>
        <time>2019-07-05T11:59:06Z</time>
      </trkpt>
      <trkpt lat="40.2390050" lon="-1.5745730">
        <ele>1437.6</ele>
        <time>2019-07-05T11:59:07Z</time>
      </trkpt>
      <trkpt lat="40.2390850" lon="-1.5746630">
        <ele>1438.4</ele>
        <time>2019-07-05T11:59:11Z</time>
      </trkpt>
      <trkpt lat="40.2391450" lon="-1.5747320">
        <ele>1439.2</ele>
        <time>2019-07-05T11:59:14Z</time>
      </trkpt>
      <trkpt lat="40.2391660" lon="-1.5747550">
        <ele>1439.6</ele>
        <time>2019-07-05T11:59:15Z</time>
      </trkpt>
      <trkpt lat="40.2392720" lon="-1.5748650">
        <ele>1440.6</ele>
        <time>2019-07-05T11:59:20Z</time>
      </trkpt>
      <trkpt lat="40.2393170" lon="-1.5749100">
        <ele>1441.0</ele>
        <time>2019-07-05T11:59:22Z</time>
      </trkpt>
      <trkpt lat="40.2393820" lon="-1.5749840">
        <ele>1441.6</ele>
        <time>2019-07-05T11:59:25Z</time>
      </trkpt>
      <trkpt lat="40.2394740" lon="-1.5750780">
        <ele>1442.6</ele>
        <time>2019-07-05T11:59:29Z</time>
      </trkpt>
      <trkpt lat="40.2395840" lon="-1.5751930">
        <ele>1443.4</ele>
        <time>2019-07-05T11:59:34Z</time>
      </trkpt>
      <trkpt lat="40.2396290" lon="-1.5752370">
        <ele>1443.8</ele>
        <time>2019-07-05T11:59:36Z</time>
      </trkpt>
      <trkpt lat="40.2397640" lon="-1.5753870">
        <ele>1444.6</ele>
        <time>2019-07-05T11:59:42Z</time>
      </trkpt>
      <trkpt lat="40.2398100" lon="-1.5754370">
        <ele>1445.0</ele>
        <time>2019-07-05T11:59:44Z</time>
      </trkpt>
      <trkpt lat="40.2398750" lon="-1.5755180">
        <ele>1445.8</ele>
        <time>2019-07-05T11:59:47Z</time>
      </trkpt>
      <trkpt lat="40.2399850" lon="-1.5756440">
        <ele>1446.4</ele>
        <time>2019-07-05T11:59:52Z</time>
      </trkpt>
      <trkpt lat="40.2400280" lon="-1.5756980">
        <ele>1446.8</ele>
        <time>2019-07-05T11:59:54Z</time>
      </trkpt>
      <trkpt lat="40.2401300" lon="-1.5757980">
        <ele>1447.6</ele>
        <time>2019-07-05T11:59:58Z</time>
      </trkpt>
      <trkpt lat="40.2401560" lon="-1.5758250">
        <ele>1447.8</ele>
        <time>2019-07-05T11:59:59Z</time>
      </trkpt>
      <trkpt lat="40.2403050" lon="-1.5759930">
        <ele>1448.2</ele>
        <time>2019-07-05T12:00:05Z</time>
      </trkpt>
      <trkpt lat="40.2404400" lon="-1.5761570">
        <ele>1448.2</ele>
        <time>2019-07-05T12:00:10Z</time>
      </trkpt>
      <trkpt lat="40.2406310" lon="-1.5764050">
        <ele>1448.8</ele>
        <time>2019-07-05T12:00:17Z</time>
      </trkpt>
      <trkpt lat="40.2406580" lon="-1.5764420">
        <ele>1449.0</ele>
        <time>2019-07-05T12:00:18Z</time>
      </trkpt>
      <trkpt lat="40.2408520" lon="-1.5766880">
        <ele>1449.8</ele>
        <time>2019-07-05T12:00:25Z</time>
      </trkpt>
      <trkpt lat="40.2408780" lon="-1.5767240">
        <ele>1450.0</ele>
        <time>2019-07-05T12:00:26Z</time>
      </trkpt>
      <trkpt lat="40.2410870" lon="-1.5769880">
        <ele>1450.8</ele>
        <time>2019-07-05T12:00:34Z</time>
      </trkpt>
      <trkpt lat="40.2411140" lon="-1.5770210">
        <ele>1450.8</ele>
        <time>2019-07-05T12:00:35Z</time>
      </trkpt>
      <trkpt lat="40.2412310" lon="-1.5771470">
        <ele>1451.8</ele>
        <time>2019-07-05T12:00:39Z</time>
      </trkpt>
      <trkpt lat="40.2412860" lon="-1.5772120">
        <ele>1452.2</ele>
        <time>2019-07-05T12:00:41Z</time>
      </trkpt>
      <trkpt lat="40.2413630" lon="-1.5773140">
        <ele>1453.0</ele>
        <time>2019-07-05T12:00:45Z</time>
      </trkpt>
      <trkpt lat="40.2413790" lon="-1.5773350">
        <ele>1453.2</ele>
        <time>2019-07-05T12:00:46Z</time>
      </trkpt>
      <trkpt lat="40.2415310" lon="-1.5775020">
        <ele>1453.8</ele>
        <time>2019-07-05T12:00:53Z</time>
      </trkpt>
      <trkpt lat="40.2415940" lon="-1.5775850">
        <ele>1454.2</ele>
        <time>2019-07-05T12:00:56Z</time>
      </trkpt>
      <trkpt lat="40.2416860" lon="-1.5777000">
        <ele>1455.2</ele>
        <time>2019-07-05T12:01:00Z</time>
      </trkpt>
      <trkpt lat="40.2417120" lon="-1.5777260">
        <ele>1455.2</ele>
        <time>2019-07-05T12:01:01Z</time>
      </trkpt>
      <trkpt lat="40.2418320" lon="-1.5778720">
        <ele>1455.6</ele>
        <time>2019-07-05T12:01:06Z</time>
      </trkpt>
      <trkpt lat="40.2419520" lon="-1.5780200">
        <ele>1456.4</ele>
        <time>2019-07-05T12:01:11Z</time>
      </trkpt>
      <trkpt lat="40.2419740" lon="-1.5780540">
        <ele>1456.6</ele>
        <time>2019-07-05T12:01:12Z</time>
      </trkpt>
      <trkpt lat="40.2421450" lon="-1.5782690">
        <ele>1456.4</ele>
        <time>2019-07-05T12:01:18Z</time>
      </trkpt>
      <trkpt lat="40.2422600" lon="-1.5784280">
        <ele>1457.4</ele>
        <time>2019-07-05T12:01:23Z</time>
      </trkpt>
      <trkpt lat="40.2422770" lon="-1.5784540">
        <ele>1457.6</ele>
        <time>2019-07-05T12:01:24Z</time>
      </trkpt>
      <trkpt lat="40.2423520" lon="-1.5785500">
        <ele>1458.0</ele>
        <time>2019-07-05T12:01:29Z</time>
      </trkpt>
      <trkpt lat="40.2423220" lon="-1.5785850">
        <ele>1458.0</ele>
        <time>2019-07-05T12:01:33Z</time>
      </trkpt>
      <trkpt lat="40.2422940" lon="-1.5785150">
        <ele>1458.0</ele>
        <time>2019-07-05T12:01:36Z</time>
      </trkpt>
      <trkpt lat="40.2422870" lon="-1.5784550">
        <ele>1458.0</ele>
        <time>2019-07-05T12:01:38Z</time>
      </trkpt>
      <trkpt lat="40.2422730" lon="-1.5783980">
        <ele>1458.0</ele>
        <time>2019-07-05T12:01:40Z</time>
      </trkpt>
      <trkpt lat="40.2422280" lon="-1.5783560">
        <ele>1457.8</ele>
        <time>2019-07-05T12:01:42Z</time>
      </trkpt>
      <trkpt lat="40.2421310" lon="-1.5782500">
        <ele>1457.6</ele>
        <time>2019-07-05T12:01:46Z</time>
      </trkpt>
      <trkpt lat="40.2421070" lon="-1.5782170">
        <ele>1457.6</ele>
        <time>2019-07-05T12:01:47Z</time>
      </trkpt>
      <trkpt lat="40.2420160" lon="-1.5781110">
        <ele>1457.6</ele>
        <time>2019-07-05T12:01:50Z</time>
      </trkpt>
      <trkpt lat="40.2419510" lon="-1.5780270">
        <ele>1457.8</ele>
        <time>2019-07-05T12:01:52Z</time>
      </trkpt>
      <trkpt lat="40.2418120" lon="-1.5778490">
        <ele>1457.6</ele>
        <time>2019-07-05T12:01:56Z</time>
      </trkpt>
      <trkpt lat="40.2417390" lon="-1.5777520">
        <ele>1456.8</ele>
        <time>2019-07-05T12:01:58Z</time>
      </trkpt>
      <trkpt lat="40.2416980" lon="-1.5777050">
        <ele>1456.4</ele>
        <time>2019-07-05T12:01:59Z</time>
      </trkpt>
      <trkpt lat="40.2415730" lon="-1.5775460">
        <ele>1456.0</ele>
        <time>2019-07-05T12:02:02Z</time>
      </trkpt>
      <trkpt lat="40.2414330" lon="-1.5773830">
        <ele>1455.2</ele>
        <time>2019-07-05T12:02:05Z</time>
      </trkpt>
      <trkpt lat="40.2413340" lon="-1.5772690">
        <ele>1455.0</ele>
        <time>2019-07-05T12:02:07Z</time>
      </trkpt>
      <trkpt lat="40.2411410" lon="-1.5770300">
        <ele>1453.6</ele>
        <time>2019-07-05T12:02:11Z</time>
      </trkpt>
      <trkpt lat="40.2410480" lon="-1.5768990">
        <ele>1452.8</ele>
        <time>2019-07-05T12:02:13Z</time>
      </trkpt>
      <trkpt lat="40.2409440" lon="-1.5767740">
        <ele>1452.4</ele>
        <time>2019-07-05T12:02:15Z</time>
      </trkpt>
      <trkpt lat="40.2407230" lon="-1.5765030">
        <ele>1451.6</ele>
        <time>2019-07-05T12:02:19Z</time>
      </trkpt>
      <trkpt lat="40.2406670" lon="-1.5764340">
        <ele>1451.4</ele>
        <time>2019-07-05T12:02:20Z</time>
      </trkpt>
      <trkpt lat="40.2405150" lon="-1.5762130">
        <ele>1450.0</ele>
        <time>2019-07-05T12:02:23Z</time>
      </trkpt>
      <trkpt lat="40.2404700" lon="-1.5761500">
        <ele>1449.8</ele>
        <time>2019-07-05T12:02:24Z</time>
      </trkpt>
      <trkpt lat="40.2404270" lon="-1.5760970">
        <ele>1449.4</ele>
        <time>2019-07-05T12:02:25Z</time>
      </trkpt>
      <trkpt lat="40.2403890" lon="-1.5760550">
        <ele>1449.4</ele>
        <time>2019-07-05T12:02:26Z</time>
      </trkpt>
      <trkpt lat="40.2403230" lon="-1.5760270">
        <ele>1449.2</ele>
        <time>2019-07-05T12:02:28Z</time>
      </trkpt>
      <trkpt lat="40.2403010" lon="-1.5760710">
        <ele>1449.0</ele>
        <time>2019-07-05T12:02:30Z</time>
      </trkpt>
      <trkpt lat="40.2403060" lon="-1.5760970">
        <ele>1449.2</ele>
        <time>2019-07-05T12:02:31Z</time>
      </trkpt>
      <trkpt lat="40.2403490" lon="-1.5761690">
        <ele>1449.4</ele>
        <time>2019-07-05T12:02:35Z</time>
      </trkpt>
      <trkpt lat="40.2403980" lon="-1.5762310">
        <ele>1450.0</ele>
        <time>2019-07-05T12:02:38Z</time>
      </trkpt>
      <trkpt lat="40.2404730" lon="-1.5763470">
        <ele>1450.6</ele>
        <time>2019-07-05T12:02:42Z</time>
      </trkpt>
      <trkpt lat="40.2405380" lon="-1.5764490">
        <ele>1450.8</ele>
        <time>2019-07-05T12:02:45Z</time>
      </trkpt>
      <trkpt lat="40.2405600" lon="-1.5764850">
        <ele>1451.2</ele>
        <time>2019-07-05T12:02:46Z</time>
      </trkpt>
      <trkpt lat="40.2405980" lon="-1.5765570">
        <ele>1451.4</ele>
        <time>2019-07-05T12:02:48Z</time>
      </trkpt>
      <trkpt lat="40.2406560" lon="-1.5766600">
        <ele>1452.4</ele>
        <time>2019-07-05T12:02:51Z</time>
      </trkpt>
      <trkpt lat="40.2407100" lon="-1.5767640">
        <ele>1453.0</ele>
        <time>2019-07-05T12:02:54Z</time>
      </trkpt>
      <trkpt lat="40.2407420" lon="-1.5768350">
        <ele>1453.2</ele>
        <time>2019-07-05T12:02:56Z</time>
      </trkpt>
      <trkpt lat="40.2407840" lon="-1.5769420">
        <ele>1454.0</ele>
        <time>2019-07-05T12:02:59Z</time>
      </trkpt>
      <trkpt lat="40.2408250" lon="-1.5770480">
        <ele>1454.6</ele>
        <time>2019-07-05T12:03:02Z</time>
      </trkpt>
      <trkpt lat="40.2408520" lon="-1.5771140">
        <ele>1454.8</ele>
        <time>2019-07-05T12:03:04Z</time>
      </trkpt>
      <trkpt lat="40.2408640" lon="-1.5771480">
        <ele>1455.0</ele>
        <time>2019-07-05T12:03:05Z</time>
      </trkpt>
      <trkpt lat="40.2408990" lon="-1.5772540">
        <ele>1455.8</ele>
        <time>2019-07-05T12:03:08Z</time>
      </trkpt>
      <trkpt lat="40.2409090" lon="-1.5772880">
        <ele>1456.2</ele>
        <time>2019-07-05T12:03:09Z</time>
      </trkpt>
      <trkpt lat="40.2409500" lon="-1.5773840">
        <ele>1457.2</ele>
        <time>2019-07-05T12:03:12Z</time>
      </trkpt>
      <trkpt lat="40.2409660" lon="-1.5774140">
        <ele>1457.4</ele>
        <time>2019-07-05T12:03:13Z</time>
      </trkpt>
      <trkpt lat="40.2410140" lon="-1.5774970">
        <ele>1458.4</ele>
        <time>2019-07-05T12:03:16Z</time>
      </trkpt>
      <trkpt lat="40.2410790" lon="-1.5775670">
        <ele>1459.2</ele>
        <time>2019-07-05T12:03:19Z</time>
      </trkpt>
      <trkpt lat="40.2411260" lon="-1.5776100">
        <ele>1459.4</ele>
        <time>2019-07-05T12:03:21Z</time>
      </trkpt>
      <trkpt lat="40.2412430" lon="-1.5777130">
        <ele>1460.4</ele>
        <time>2019-07-05T12:03:26Z</time>
      </trkpt>
      <trkpt lat="40.2412680" lon="-1.5777290">
        <ele>1460.6</ele>
        <time>2019-07-05T12:03:27Z</time>
      </trkpt>
      <trkpt lat="40.2414050" lon="-1.5778600">
        <ele>1461.4</ele>
        <time>2019-07-05T12:03:33Z</time>
      </trkpt>
      <trkpt lat="40.2414460" lon="-1.5779030">
        <ele>1461.4</ele>
        <time>2019-07-05T12:03:35Z</time>
      </trkpt>
      <trkpt lat="40.2415480" lon="-1.5780310">
        <ele>1462.6</ele>
        <time>2019-07-05T12:03:40Z</time>
      </trkpt>
      <trkpt lat="40.2416780" lon="-1.5782380">
        <ele>1463.6</ele>
        <time>2019-07-05T12:03:47Z</time>
      </trkpt>
      <trkpt lat="40.2417970" lon="-1.5784400">
        <ele>1464.6</ele>
        <time>2019-07-05T12:03:54Z</time>
      </trkpt>
      <trkpt lat="40.2418140" lon="-1.5784700">
        <ele>1465.2</ele>
        <time>2019-07-05T12:03:55Z</time>
      </trkpt>
      <trkpt lat="40.2418580" lon="-1.5785660">
        <ele>1465.8</ele>
        <time>2019-07-05T12:03:58Z</time>
      </trkpt>
      <trkpt lat="40.2418840" lon="-1.5786220">
        <ele>1466.4</ele>
        <time>2019-07-05T12:04:00Z</time>
      </trkpt>
      <trkpt lat="40.2419080" lon="-1.5786840">
        <ele>1467.0</ele>
        <time>2019-07-05T12:04:02Z</time>
      </trkpt>
      <trkpt lat="40.2419890" lon="-1.5788700">
        <ele>1468.0</ele>
        <time>2019-07-05T12:04:08Z</time>
      </trkpt>
      <trkpt lat="40.2420650" lon="-1.5790340">
        <ele>1469.0</ele>
        <time>2019-07-05T12:04:14Z</time>
      </trkpt>
      <trkpt lat="40.2420790" lon="-1.5790660">
        <ele>1469.0</ele>
        <time>2019-07-05T12:04:15Z</time>
      </trkpt>
      <trkpt lat="40.2421590" lon="-1.5792270">
        <ele>1470.0</ele>
        <time>2019-07-05T12:04:20Z</time>
      </trkpt>
      <trkpt lat="40.2422070" lon="-1.5793270">
        <ele>1470.6</ele>
        <time>2019-07-05T12:04:23Z</time>
      </trkpt>
      <trkpt lat="40.2422370" lon="-1.5793940">
        <ele>1471.0</ele>
        <time>2019-07-05T12:04:25Z</time>
      </trkpt>
      <trkpt lat="40.2422580" lon="-1.5794680">
        <ele>1472.2</ele>
        <time>2019-07-05T12:04:27Z</time>
      </trkpt>
      <trkpt lat="40.2422560" lon="-1.5795500">
        <ele>1473.2</ele>
        <time>2019-07-05T12:04:29Z</time>
      </trkpt>
      <trkpt lat="40.2421800" lon="-1.5797240">
        <ele>1474.0</ele>
        <time>2019-07-05T12:04:34Z</time>
      </trkpt>
      <trkpt lat="40.2421540" lon="-1.5797530">
        <ele>1474.2</ele>
        <time>2019-07-05T12:04:35Z</time>
      </trkpt>
      <trkpt lat="40.2420200" lon="-1.5798830">
        <ele>1475.2</ele>
        <time>2019-07-05T12:04:40Z</time>
      </trkpt>
      <trkpt lat="40.2419940" lon="-1.5799060">
        <ele>1475.4</ele>
        <time>2019-07-05T12:04:41Z</time>
      </trkpt>
      <trkpt lat="40.2418640" lon="-1.5800210">
        <ele>1476.4</ele>
        <time>2019-07-05T12:04:46Z</time>
      </trkpt>
      <trkpt lat="40.2418430" lon="-1.5800410">
        <ele>1476.6</ele>
        <time>2019-07-05T12:04:47Z</time>
      </trkpt>
      <trkpt lat="40.2417470" lon="-1.5801770">
        <ele>1477.4</ele>
        <time>2019-07-05T12:04:52Z</time>
      </trkpt>
      <trkpt lat="40.2417170" lon="-1.5802860">
        <ele>1478.6</ele>
        <time>2019-07-05T12:04:55Z</time>
      </trkpt>
      <trkpt lat="40.2416950" lon="-1.5804170">
        <ele>1479.8</ele>
        <time>2019-07-05T12:04:59Z</time>
      </trkpt>
      <trkpt lat="40.2416890" lon="-1.5805770">
        <ele>1480.6</ele>
        <time>2019-07-05T12:05:04Z</time>
      </trkpt>
      <trkpt lat="40.2417080" lon="-1.5806320">
        <ele>1481.2</ele>
        <time>2019-07-05T12:05:06Z</time>
      </trkpt>
      <trkpt lat="40.2417610" lon="-1.5807770">
        <ele>1481.8</ele>
        <time>2019-07-05T12:05:11Z</time>
      </trkpt>
      <trkpt lat="40.2417760" lon="-1.5808030">
        <ele>1482.0</ele>
        <time>2019-07-05T12:05:12Z</time>
      </trkpt>
      <trkpt lat="40.2418280" lon="-1.5808730">
        <ele>1482.8</ele>
        <time>2019-07-05T12:05:15Z</time>
      </trkpt>
      <trkpt lat="40.2418840" lon="-1.5809380">
        <ele>1484.0</ele>
        <time>2019-07-05T12:05:18Z</time>
      </trkpt>
      <trkpt lat="40.2419700" lon="-1.5810480">
        <ele>1485.0</ele>
        <time>2019-07-05T12:05:23Z</time>
      </trkpt>
      <trkpt lat="40.2420250" lon="-1.5811200">
        <ele>1485.8</ele>
        <time>2019-07-05T12:05:26Z</time>
      </trkpt>
      <trkpt lat="40.2420670" lon="-1.5811740">
        <ele>1486.2</ele>
        <time>2019-07-05T12:05:28Z</time>
      </trkpt>
      <trkpt lat="40.2421700" lon="-1.5813050">
        <ele>1487.4</ele>
        <time>2019-07-05T12:05:33Z</time>
      </trkpt>
      <trkpt lat="40.2422680" lon="-1.5813780">
        <ele>1488.4</ele>
        <time>2019-07-05T12:05:37Z</time>
      </trkpt>
      <trkpt lat="40.2422930" lon="-1.5813940">
        <ele>1488.6</ele>
        <time>2019-07-05T12:05:38Z</time>
      </trkpt>
      <trkpt lat="40.2423870" lon="-1.5814600">
        <ele>1489.8</ele>
        <time>2019-07-05T12:05:42Z</time>
      </trkpt>
      <trkpt lat="40.2424600" lon="-1.5815110">
        <ele>1490.4</ele>
        <time>2019-07-05T12:05:45Z</time>
      </trkpt>
      <trkpt lat="40.2425040" lon="-1.5815400">
        <ele>1490.8</ele>
        <time>2019-07-05T12:05:47Z</time>
      </trkpt>
      <trkpt lat="40.2425980" lon="-1.5816230">
        <ele>1492.0</ele>
        <time>2019-07-05T12:05:51Z</time>
      </trkpt>
      <trkpt lat="40.2426180" lon="-1.5816440">
        <ele>1492.4</ele>
        <time>2019-07-05T12:05:52Z</time>
      </trkpt>
      <trkpt lat="40.2426630" lon="-1.5816840">
        <ele>1493.4</ele>
        <time>2019-07-05T12:05:54Z</time>
      </trkpt>
      <trkpt lat="40.2427200" lon="-1.5817680">
        <ele>1494.2</ele>
        <time>2019-07-05T12:05:57Z</time>
      </trkpt>
      <trkpt lat="40.2427560" lon="-1.5818270">
        <ele>1494.4</ele>
        <time>2019-07-05T12:05:59Z</time>
      </trkpt>
      <trkpt lat="40.2428110" lon="-1.5819540">
        <ele>1495.8</ele>
        <time>2019-07-05T12:06:03Z</time>
      </trkpt>
      <trkpt lat="40.2428310" lon="-1.5820280">
        <ele>1496.0</ele>
        <time>2019-07-05T12:06:05Z</time>
      </trkpt>
      <trkpt lat="40.2429150" lon="-1.5823110">
        <ele>1496.6</ele>
        <time>2019-07-05T12:06:12Z</time>
      </trkpt>
      <trkpt lat="40.2429310" lon="-1.5823550">
        <ele>1496.6</ele>
        <time>2019-07-05T12:06:13Z</time>
      </trkpt>
      <trkpt lat="40.2430620" lon="-1.5826390">
        <ele>1497.2</ele>
        <time>2019-07-05T12:06:19Z</time>
      </trkpt>
      <trkpt lat="40.2432280" lon="-1.5829500">
        <ele>1495.6</ele>
        <time>2019-07-05T12:06:24Z</time>
      </trkpt>
      <trkpt lat="40.2432640" lon="-1.5830220">
        <ele>1495.4</ele>
        <time>2019-07-05T12:06:25Z</time>
      </trkpt>
      <trkpt lat="40.2434130" lon="-1.5832940">
        <ele>1495.0</ele>
        <time>2019-07-05T12:06:29Z</time>
      </trkpt>
      <trkpt lat="40.2434920" lon="-1.5834220">
        <ele>1495.0</ele>
        <time>2019-07-05T12:06:31Z</time>
      </trkpt>
      <trkpt lat="40.2436090" lon="-1.5835940">
        <ele>1494.8</ele>
        <time>2019-07-05T12:06:34Z</time>
      </trkpt>
      <trkpt lat="40.2436940" lon="-1.5837040">
        <ele>1494.8</ele>
        <time>2019-07-05T12:06:36Z</time>
      </trkpt>
      <trkpt lat="40.2437810" lon="-1.5838160">
        <ele>1494.8</ele>
        <time>2019-07-05T12:06:38Z</time>
      </trkpt>
      <trkpt lat="40.2439320" lon="-1.5839850">
        <ele>1494.4</ele>
        <time>2019-07-05T12:06:41Z</time>
      </trkpt>
      <trkpt lat="40.2440940" lon="-1.5841510">
        <ele>1493.6</ele>
        <time>2019-07-05T12:06:44Z</time>
      </trkpt>
      <trkpt lat="40.2442010" lon="-1.5842620">
        <ele>1493.2</ele>
        <time>2019-07-05T12:06:46Z</time>
      </trkpt>
      <trkpt lat="40.2443110" lon="-1.5843750">
        <ele>1493.2</ele>
        <time>2019-07-05T12:06:48Z</time>
      </trkpt>
      <trkpt lat="40.2444260" lon="-1.5844860">
        <ele>1492.6</ele>
        <time>2019-07-05T12:06:50Z</time>
      </trkpt>
      <trkpt lat="40.2445970" lon="-1.5846500">
        <ele>1492.0</ele>
        <time>2019-07-05T12:06:53Z</time>
      </trkpt>
      <trkpt lat="40.2447090" lon="-1.5847490">
        <ele>1492.0</ele>
        <time>2019-07-05T12:06:55Z</time>
      </trkpt>
      <trkpt lat="40.2448670" lon="-1.5848950">
        <ele>1492.0</ele>
        <time>2019-07-05T12:06:58Z</time>
      </trkpt>
      <trkpt lat="40.2449170" lon="-1.5849400">
        <ele>1492.0</ele>
        <time>2019-07-05T12:06:59Z</time>
      </trkpt>
      <trkpt lat="40.2451510" lon="-1.5851230">
        <ele>1492.6</ele>
        <time>2019-07-05T12:07:04Z</time>
      </trkpt>
      <trkpt lat="40.2452300" lon="-1.5851900">
        <ele>1493.0</ele>
        <time>2019-07-05T12:07:06Z</time>
      </trkpt>
      <trkpt lat="40.2452680" lon="-1.5852160">
        <ele>1493.0</ele>
        <time>2019-07-05T12:07:07Z</time>
      </trkpt>
      <trkpt lat="40.2453420" lon="-1.5852740">
        <ele>1493.2</ele>
        <time>2019-07-05T12:07:09Z</time>
      </trkpt>
      <trkpt lat="40.2454080" lon="-1.5853470">
        <ele>1493.4</ele>
        <time>2019-07-05T12:07:11Z</time>
      </trkpt>
      <trkpt lat="40.2454850" lon="-1.5854610">
        <ele>1494.2</ele>
        <time>2019-07-05T12:07:14Z</time>
      </trkpt>
      <trkpt lat="40.2455080" lon="-1.5855040">
        <ele>1494.4</ele>
        <time>2019-07-05T12:07:15Z</time>
      </trkpt>
      <trkpt lat="40.2456210" lon="-1.5857170">
        <ele>1495.2</ele>
        <time>2019-07-05T12:07:20Z</time>
      </trkpt>
      <trkpt lat="40.2456430" lon="-1.5857580">
        <ele>1495.0</ele>
        <time>2019-07-05T12:07:21Z</time>
      </trkpt>
      <trkpt lat="40.2457460" lon="-1.5859330">
        <ele>1495.8</ele>
        <time>2019-07-05T12:07:25Z</time>
      </trkpt>
      <trkpt lat="40.2457740" lon="-1.5859800">
        <ele>1496.2</ele>
        <time>2019-07-05T12:07:26Z</time>
      </trkpt>
      <trkpt lat="40.2458000" lon="-1.5860310">
        <ele>1496.4</ele>
        <time>2019-07-05T12:07:27Z</time>
      </trkpt>
      <trkpt lat="40.2458820" lon="-1.5861810">
        <ele>1496.4</ele>
        <time>2019-07-05T12:07:30Z</time>
      </trkpt>
      <trkpt lat="40.2459080" lon="-1.5862370">
        <ele>1496.4</ele>
        <time>2019-07-05T12:07:31Z</time>
      </trkpt>
      <trkpt lat="40.2459370" lon="-1.5862930">
        <ele>1496.4</ele>
        <time>2019-07-05T12:07:32Z</time>
      </trkpt>
      <trkpt lat="40.2460700" lon="-1.5864930">
        <ele>1496.6</ele>
        <time>2019-07-05T12:07:36Z</time>
      </trkpt>
      <trkpt lat="40.2462410" lon="-1.5867240">
        <ele>1497.0</ele>
        <time>2019-07-05T12:07:41Z</time>
      </trkpt>
      <trkpt lat="40.2463480" lon="-1.5868590">
        <ele>1497.2</ele>
        <time>2019-07-05T12:07:44Z</time>
      </trkpt>
      <trkpt lat="40.2464180" lon="-1.5869550">
        <ele>1497.4</ele>
        <time>2019-07-05T12:07:46Z</time>
      </trkpt>
      <trkpt lat="40.2465200" lon="-1.5870770">
        <ele>1497.4</ele>
        <time>2019-07-05T12:07:49Z</time>
      </trkpt>
      <trkpt lat="40.2466540" lon="-1.5872460">
        <ele>1498.2</ele>
        <time>2019-07-05T12:07:53Z</time>
      </trkpt>
      <trkpt lat="40.2466880" lon="-1.5872850">
        <ele>1498.2</ele>
        <time>2019-07-05T12:07:54Z</time>
      </trkpt>
      <trkpt lat="40.2467210" lon="-1.5873240">
        <ele>1498.6</ele>
        <time>2019-07-05T12:07:55Z</time>
      </trkpt>
      <trkpt lat="40.2467860" lon="-1.5874000">
        <ele>1498.8</ele>
        <time>2019-07-05T12:07:57Z</time>
      </trkpt>
      <trkpt lat="40.2468510" lon="-1.5874640">
        <ele>1499.2</ele>
        <time>2019-07-05T12:07:59Z</time>
      </trkpt>
      <trkpt lat="40.2468850" lon="-1.5874990">
        <ele>1499.4</ele>
        <time>2019-07-05T12:08:00Z</time>
      </trkpt>
      <trkpt lat="40.2469200" lon="-1.5875360">
        <ele>1499.4</ele>
        <time>2019-07-05T12:08:01Z</time>
      </trkpt>
      <trkpt lat="40.2470740" lon="-1.5877100">
        <ele>1500.4</ele>
        <time>2019-07-05T12:08:06Z</time>
      </trkpt>
      <trkpt lat="40.2472680" lon="-1.5879340">
        <ele>1501.2</ele>
        <time>2019-07-05T12:08:12Z</time>
      </trkpt>
      <trkpt lat="40.2473000" lon="-1.5879750">
        <ele>1501.6</ele>
        <time>2019-07-05T12:08:13Z</time>
      </trkpt>
      <trkpt lat="40.2474760" lon="-1.5881410">
        <ele>1502.0</ele>
        <time>2019-07-05T12:08:18Z</time>
      </trkpt>
      <trkpt lat="40.2476430" lon="-1.5883020">
        <ele>1502.4</ele>
        <time>2019-07-05T12:08:23Z</time>
      </trkpt>
      <trkpt lat="40.2477060" lon="-1.5883610">
        <ele>1502.4</ele>
        <time>2019-07-05T12:08:25Z</time>
      </trkpt>
      <trkpt lat="40.2478170" lon="-1.5884610">
        <ele>1503.0</ele>
        <time>2019-07-05T12:08:29Z</time>
      </trkpt>
      <trkpt lat="40.2478770" lon="-1.5885160">
        <ele>1503.4</ele>
        <time>2019-07-05T12:08:31Z</time>
      </trkpt>
      <trkpt lat="40.2480020" lon="-1.5886200">
        <ele>1504.2</ele>
        <time>2019-07-05T12:08:35Z</time>
      </trkpt>
      <trkpt lat="40.2480330" lon="-1.5886390">
        <ele>1504.4</ele>
        <time>2019-07-05T12:08:36Z</time>
      </trkpt>
      <trkpt lat="40.2481500" lon="-1.5887120">
        <ele>1504.8</ele>
        <time>2019-07-05T12:08:40Z</time>
      </trkpt>
      <trkpt lat="40.2482070" lon="-1.5887540">
        <ele>1505.6</ele>
        <time>2019-07-05T12:08:42Z</time>
      </trkpt>
      <trkpt lat="40.2483270" lon="-1.5888350">
        <ele>1506.6</ele>
        <time>2019-07-05T12:08:46Z</time>
      </trkpt>
      <trkpt lat="40.2483600" lon="-1.5888550">
        <ele>1506.6</ele>
        <time>2019-07-05T12:08:47Z</time>
      </trkpt>
      <trkpt lat="40.2485130" lon="-1.5889610">
        <ele>1507.2</ele>
        <time>2019-07-05T12:08:51Z</time>
      </trkpt>
      <trkpt lat="40.2487790" lon="-1.5891690">
        <ele>1506.4</ele>
        <time>2019-07-05T12:08:57Z</time>
      </trkpt>
      <trkpt lat="40.2488810" lon="-1.5892530">
        <ele>1506.0</ele>
        <time>2019-07-05T12:08:59Z</time>
      </trkpt>
      <trkpt lat="40.2491470" lon="-1.5894800">
        <ele>1505.4</ele>
        <time>2019-07-05T12:09:04Z</time>
      </trkpt>
      <trkpt lat="40.2492020" lon="-1.5895290">
        <ele>1505.4</ele>
        <time>2019-07-05T12:09:05Z</time>
      </trkpt>
      <trkpt lat="40.2493700" lon="-1.5896900">
        <ele>1504.6</ele>
        <time>2019-07-05T12:09:08Z</time>
      </trkpt>
      <trkpt lat="40.2494790" lon="-1.5898020">
        <ele>1504.2</ele>
        <time>2019-07-05T12:09:10Z</time>
      </trkpt>
      <trkpt lat="40.2495870" lon="-1.5899240">
        <ele>1503.8</ele>
        <time>2019-07-05T12:09:12Z</time>
      </trkpt>
      <trkpt lat="40.2496740" lon="-1.5900770">
        <ele>1503.8</ele>
        <time>2019-07-05T12:09:14Z</time>
      </trkpt>
      <trkpt lat="40.2497110" lon="-1.5901710">
        <ele>1503.6</ele>
        <time>2019-07-05T12:09:15Z</time>
      </trkpt>
      <trkpt lat="40.2497670" lon="-1.5903710">
        <ele>1503.0</ele>
        <time>2019-07-05T12:09:17Z</time>
      </trkpt>
      <trkpt lat="40.2497910" lon="-1.5904780">
        <ele>1502.6</ele>
        <time>2019-07-05T12:09:18Z</time>
      </trkpt>
      <trkpt lat="40.2498170" lon="-1.5905870">
        <ele>1502.2</ele>
        <time>2019-07-05T12:09:19Z</time>
      </trkpt>
      <trkpt lat="40.2498480" lon="-1.5906950">
        <ele>1501.8</ele>
        <time>2019-07-05T12:09:20Z</time>
      </trkpt>
      <trkpt lat="40.2498720" lon="-1.5908050">
        <ele>1501.2</ele>
        <time>2019-07-05T12:09:21Z</time>
      </trkpt>
      <trkpt lat="40.2498810" lon="-1.5909200">
        <ele>1500.6</ele>
        <time>2019-07-05T12:09:22Z</time>
      </trkpt>
      <trkpt lat="40.2498780" lon="-1.5910340">
        <ele>1500.4</ele>
        <time>2019-07-05T12:09:23Z</time>
      </trkpt>
      <trkpt lat="40.2498520" lon="-1.5912570">
        <ele>1500.0</ele>
        <time>2019-07-05T12:09:25Z</time>
      </trkpt>
      <trkpt lat="40.2498150" lon="-1.5914570">
        <ele>1499.6</ele>
        <time>2019-07-05T12:09:27Z</time>
      </trkpt>
      <trkpt lat="40.2498030" lon="-1.5915500">
        <ele>1499.6</ele>
        <time>2019-07-05T12:09:28Z</time>
      </trkpt>
      <trkpt lat="40.2497960" lon="-1.5916390">
        <ele>1499.6</ele>
        <time>2019-07-05T12:09:29Z</time>
      </trkpt>
      <trkpt lat="40.2498270" lon="-1.5918750">
        <ele>1499.8</ele>
        <time>2019-07-05T12:09:32Z</time>
      </trkpt>
      <trkpt lat="40.2499180" lon="-1.5920030">
        <ele>1500.8</ele>
        <time>2019-07-05T12:09:35Z</time>
      </trkpt>
      <trkpt lat="40.2499810" lon="-1.5920550">
        <ele>1501.4</ele>
        <time>2019-07-05T12:09:37Z</time>
      </trkpt>
      <trkpt lat="40.2500760" lon="-1.5921440">
        <ele>1501.2</ele>
        <time>2019-07-05T12:09:40Z</time>
      </trkpt>
      <trkpt lat="40.2502080" lon="-1.5923480">
        <ele>1501.0</ele>
        <time>2019-07-05T12:09:44Z</time>
      </trkpt>
      <trkpt lat="40.2503530" lon="-1.5926210">
        <ele>1500.8</ele>
        <time>2019-07-05T12:09:48Z</time>
      </trkpt>
      <trkpt lat="40.2503890" lon="-1.5926880">
        <ele>1500.8</ele>
        <time>2019-07-05T12:09:49Z</time>
      </trkpt>
      <trkpt lat="40.2505560" lon="-1.5930220">
        <ele>1500.0</ele>
        <time>2019-07-05T12:09:54Z</time>
      </trkpt>
      <trkpt lat="40.2505920" lon="-1.5930810">
        <ele>1499.6</ele>
        <time>2019-07-05T12:09:55Z</time>
      </trkpt>
      <trkpt lat="40.2506320" lon="-1.5931370">
        <ele>1499.4</ele>
        <time>2019-07-05T12:09:56Z</time>
      </trkpt>
      <trkpt lat="40.2507750" lon="-1.5933010">
        <ele>1498.6</ele>
        <time>2019-07-05T12:09:59Z</time>
      </trkpt>
      <trkpt lat="40.2509580" lon="-1.5935280">
        <ele>1497.8</ele>
        <time>2019-07-05T12:10:03Z</time>
      </trkpt>
      <trkpt lat="40.2510100" lon="-1.5935820">
        <ele>1497.6</ele>
        <time>2019-07-05T12:10:04Z</time>
      </trkpt>
      <trkpt lat="40.2510600" lon="-1.5936410">
        <ele>1497.4</ele>
        <time>2019-07-05T12:10:05Z</time>
      </trkpt>
      <trkpt lat="40.2512740" lon="-1.5938660">
        <ele>1497.0</ele>
        <time>2019-07-05T12:10:09Z</time>
      </trkpt>
      <trkpt lat="40.2513810" lon="-1.5939760">
        <ele>1496.0</ele>
        <time>2019-07-05T12:10:11Z</time>
      </trkpt>
      <trkpt lat="40.2514890" lon="-1.5940850">
        <ele>1495.4</ele>
        <time>2019-07-05T12:10:13Z</time>
      </trkpt>
      <trkpt lat="40.2515890" lon="-1.5941990">
        <ele>1495.2</ele>
        <time>2019-07-05T12:10:15Z</time>
      </trkpt>
      <trkpt lat="40.2516850" lon="-1.5943140">
        <ele>1495.0</ele>
        <time>2019-07-05T12:10:17Z</time>
      </trkpt>
      <trkpt lat="40.2519380" lon="-1.5946040">
        <ele>1493.6</ele>
        <time>2019-07-05T12:10:22Z</time>
      </trkpt>
      <trkpt lat="40.2521960" lon="-1.5949120">
        <ele>1492.4</ele>
        <time>2019-07-05T12:10:27Z</time>
      </trkpt>
      <trkpt lat="40.2522470" lon="-1.5949770">
        <ele>1492.2</ele>
        <time>2019-07-05T12:10:28Z</time>
      </trkpt>
      <trkpt lat="40.2523520" lon="-1.5951160">
        <ele>1491.4</ele>
        <time>2019-07-05T12:10:30Z</time>
      </trkpt>
      <trkpt lat="40.2525120" lon="-1.5953210">
        <ele>1490.2</ele>
        <time>2019-07-05T12:10:33Z</time>
      </trkpt>
      <trkpt lat="40.2526180" lon="-1.5954640">
        <ele>1489.0</ele>
        <time>2019-07-05T12:10:35Z</time>
      </trkpt>
      <trkpt lat="40.2529980" lon="-1.5959530">
        <ele>1487.6</ele>
        <time>2019-07-05T12:10:42Z</time>
      </trkpt>
      <trkpt lat="40.2533100" lon="-1.5962560">
        <ele>1487.2</ele>
        <time>2019-07-05T12:10:48Z</time>
      </trkpt>
      <trkpt lat="40.2534480" lon="-1.5963900">
        <ele>1487.4</ele>
        <time>2019-07-05T12:10:51Z</time>
      </trkpt>
      <trkpt lat="40.2535580" lon="-1.5965040">
        <ele>1487.8</ele>
        <time>2019-07-05T12:10:54Z</time>
      </trkpt>
      <trkpt lat="40.2536650" lon="-1.5966320">
        <ele>1488.4</ele>
        <time>2019-07-05T12:10:58Z</time>
      </trkpt>
      <trkpt lat="40.2537130" lon="-1.5966910">
        <ele>1488.8</ele>
        <time>2019-07-05T12:11:00Z</time>
      </trkpt>
      <trkpt lat="40.2537720" lon="-1.5967730">
        <ele>1489.8</ele>
        <time>2019-07-05T12:11:03Z</time>
      </trkpt>
      <trkpt lat="40.2537950" lon="-1.5967970">
        <ele>1490.0</ele>
        <time>2019-07-05T12:11:04Z</time>
      </trkpt>
      <trkpt lat="40.2538390" lon="-1.5968540">
        <ele>1490.2</ele>
        <time>2019-07-05T12:11:06Z</time>
      </trkpt>
      <trkpt lat="40.2538780" lon="-1.5969050">
        <ele>1490.4</ele>
        <time>2019-07-05T12:11:08Z</time>
      </trkpt>
      <trkpt lat="40.2539480" lon="-1.5969940">
        <ele>1491.0</ele>
        <time>2019-07-05T12:11:11Z</time>
      </trkpt>
      <trkpt lat="40.2539830" lon="-1.5970480">
        <ele>1491.2</ele>
        <time>2019-07-05T12:11:13Z</time>
      </trkpt>
      <trkpt lat="40.2540510" lon="-1.5971650">
        <ele>1492.0</ele>
        <time>2019-07-05T12:11:16Z</time>
      </trkpt>
      <trkpt lat="40.2540720" lon="-1.5972110">
        <ele>1492.2</ele>
        <time>2019-07-05T12:11:17Z</time>
      </trkpt>
      <trkpt lat="40.2541210" lon="-1.5973180">
        <ele>1492.4</ele>
        <time>2019-07-05T12:11:19Z</time>
      </trkpt>
      <trkpt lat="40.2541850" lon="-1.5974760">
        <ele>1492.6</ele>
        <time>2019-07-05T12:11:22Z</time>
      </trkpt>
      <trkpt lat="40.2542350" lon="-1.5975660">
        <ele>1493.0</ele>
        <time>2019-07-05T12:11:24Z</time>
      </trkpt>
      <trkpt lat="40.2543590" lon="-1.5978290">
        <ele>1493.4</ele>
        <time>2019-07-05T12:11:29Z</time>
      </trkpt>
      <trkpt lat="40.2544250" lon="-1.5979670">
        <ele>1494.0</ele>
        <time>2019-07-05T12:11:32Z</time>
      </trkpt>
      <trkpt lat="40.2544620" lon="-1.5980510">
        <ele>1494.6</ele>
        <time>2019-07-05T12:11:34Z</time>
      </trkpt>
      <trkpt lat="40.2545210" lon="-1.5981690">
        <ele>1495.2</ele>
        <time>2019-07-05T12:11:37Z</time>
      </trkpt>
      <trkpt lat="40.2545580" lon="-1.5982520">
        <ele>1495.6</ele>
        <time>2019-07-05T12:11:39Z</time>
      </trkpt>
      <trkpt lat="40.2545900" lon="-1.5983450">
        <ele>1496.0</ele>
        <time>2019-07-05T12:11:41Z</time>
      </trkpt>
      <trkpt lat="40.2546660" lon="-1.5984820">
        <ele>1496.8</ele>
        <time>2019-07-05T12:11:44Z</time>
      </trkpt>
      <trkpt lat="40.2547240" lon="-1.5986240">
        <ele>1497.2</ele>
        <time>2019-07-05T12:11:47Z</time>
      </trkpt>
      <trkpt lat="40.2547520" lon="-1.5986740">
        <ele>1497.6</ele>
        <time>2019-07-05T12:11:48Z</time>
      </trkpt>
      <trkpt lat="40.2547980" lon="-1.5987680">
        <ele>1498.2</ele>
        <time>2019-07-05T12:11:50Z</time>
      </trkpt>
      <trkpt lat="40.2548750" lon="-1.5988960">
        <ele>1498.6</ele>
        <time>2019-07-05T12:11:53Z</time>
      </trkpt>
      <trkpt lat="40.2549760" lon="-1.5990920">
        <ele>1498.6</ele>
        <time>2019-07-05T12:11:58Z</time>
      </trkpt>
      <trkpt lat="40.2550310" lon="-1.5991610">
        <ele>1499.4</ele>
        <time>2019-07-05T12:12:01Z</time>
      </trkpt>
      <trkpt lat="40.2550620" lon="-1.5992320">
        <ele>1499.6</ele>
        <time>2019-07-05T12:12:03Z</time>
      </trkpt>
      <trkpt lat="40.2551810" lon="-1.5994610">
        <ele>1500.0</ele>
        <time>2019-07-05T12:12:08Z</time>
      </trkpt>
      <trkpt lat="40.2552870" lon="-1.5996350">
        <ele>1500.6</ele>
        <time>2019-07-05T12:12:12Z</time>
      </trkpt>
      <trkpt lat="40.2553390" lon="-1.5997170">
        <ele>1501.0</ele>
        <time>2019-07-05T12:12:14Z</time>
      </trkpt>
      <trkpt lat="40.2553900" lon="-1.5997930">
        <ele>1501.8</ele>
        <time>2019-07-05T12:12:16Z</time>
      </trkpt>
      <trkpt lat="40.2555060" lon="-1.5999470">
        <ele>1502.6</ele>
        <time>2019-07-05T12:12:20Z</time>
      </trkpt>
      <trkpt lat="40.2556350" lon="-1.6001070">
        <ele>1502.6</ele>
        <time>2019-07-05T12:12:24Z</time>
      </trkpt>
      <trkpt lat="40.2556710" lon="-1.6001570">
        <ele>1502.6</ele>
        <time>2019-07-05T12:12:25Z</time>
      </trkpt>
      <trkpt lat="40.2557590" lon="-1.6002390">
        <ele>1502.2</ele>
        <time>2019-07-05T12:12:27Z</time>
      </trkpt>
      <trkpt lat="40.2557960" lon="-1.6002880">
        <ele>1502.0</ele>
        <time>2019-07-05T12:12:28Z</time>
      </trkpt>
      <trkpt lat="40.2558440" lon="-1.6003270">
        <ele>1502.0</ele>
        <time>2019-07-05T12:12:29Z</time>
      </trkpt>
      <trkpt lat="40.2559910" lon="-1.6004700">
        <ele>1502.0</ele>
        <time>2019-07-05T12:12:32Z</time>
      </trkpt>
      <trkpt lat="40.2562910" lon="-1.6007200">
        <ele>1502.4</ele>
        <time>2019-07-05T12:12:38Z</time>
      </trkpt>
      <trkpt lat="40.2564410" lon="-1.6008380">
        <ele>1502.6</ele>
        <time>2019-07-05T12:12:41Z</time>
      </trkpt>
      <trkpt lat="40.2564900" lon="-1.6008750">
        <ele>1502.8</ele>
        <time>2019-07-05T12:12:42Z</time>
      </trkpt>
      <trkpt lat="40.2566360" lon="-1.6009890">
        <ele>1502.6</ele>
        <time>2019-07-05T12:12:45Z</time>
      </trkpt>
      <trkpt lat="40.2566780" lon="-1.6010360">
        <ele>1502.4</ele>
        <time>2019-07-05T12:12:46Z</time>
      </trkpt>
      <trkpt lat="40.2567450" lon="-1.6011540">
        <ele>1502.0</ele>
        <time>2019-07-05T12:12:48Z</time>
      </trkpt>
      <trkpt lat="40.2567730" lon="-1.6012220">
        <ele>1501.6</ele>
        <time>2019-07-05T12:12:49Z</time>
      </trkpt>
      <trkpt lat="40.2568000" lon="-1.6012890">
        <ele>1501.4</ele>
        <time>2019-07-05T12:12:50Z</time>
      </trkpt>
      <trkpt lat="40.2568280" lon="-1.6013540">
        <ele>1501.2</ele>
        <time>2019-07-05T12:12:51Z</time>
      </trkpt>
      <trkpt lat="40.2569080" lon="-1.6015620">
        <ele>1500.6</ele>
        <time>2019-07-05T12:12:54Z</time>
      </trkpt>
      <trkpt lat="40.2569930" lon="-1.6017840">
        <ele>1500.4</ele>
        <time>2019-07-05T12:12:57Z</time>
      </trkpt>
      <trkpt lat="40.2571170" lon="-1.6021830">
        <ele>1499.6</ele>
        <time>2019-07-05T12:13:02Z</time>
      </trkpt>
      <trkpt lat="40.2571370" lon="-1.6022660">
        <ele>1499.2</ele>
        <time>2019-07-05T12:13:03Z</time>
      </trkpt>
      <trkpt lat="40.2571790" lon="-1.6024310">
        <ele>1498.6</ele>
        <time>2019-07-05T12:13:05Z</time>
      </trkpt>
      <trkpt lat="40.2572200" lon="-1.6025980">
        <ele>1498.0</ele>
        <time>2019-07-05T12:13:07Z</time>
      </trkpt>
      <trkpt lat="40.2572970" lon="-1.6029390">
        <ele>1497.2</ele>
        <time>2019-07-05T12:13:11Z</time>
      </trkpt>
      <trkpt lat="40.2573130" lon="-1.6030260">
        <ele>1496.8</ele>
        <time>2019-07-05T12:13:12Z</time>
      </trkpt>
      <trkpt lat="40.2573280" lon="-1.6031120">
        <ele>1496.2</ele>
        <time>2019-07-05T12:13:13Z</time>
      </trkpt>
      <trkpt lat="40.2573690" lon="-1.6033550">
        <ele>1495.4</ele>
        <time>2019-07-05T12:13:16Z</time>
      </trkpt>
      <trkpt lat="40.2574120" lon="-1.6035710">
        <ele>1494.6</ele>
        <time>2019-07-05T12:13:19Z</time>
      </trkpt>
      <trkpt lat="40.2574360" lon="-1.6036380">
        <ele>1494.4</ele>
        <time>2019-07-05T12:13:20Z</time>
      </trkpt>
      <trkpt lat="40.2574930" lon="-1.6037750">
        <ele>1493.6</ele>
        <time>2019-07-05T12:13:22Z</time>
      </trkpt>
      <trkpt lat="40.2575270" lon="-1.6038390">
        <ele>1492.8</ele>
        <time>2019-07-05T12:13:23Z</time>
      </trkpt>
      <trkpt lat="40.2575650" lon="-1.6039010">
        <ele>1492.6</ele>
        <time>2019-07-05T12:13:24Z</time>
      </trkpt>
      <trkpt lat="40.2575970" lon="-1.6039680">
        <ele>1492.2</ele>
        <time>2019-07-05T12:13:25Z</time>
      </trkpt>
      <trkpt lat="40.2576490" lon="-1.6041150">
        <ele>1491.6</ele>
        <time>2019-07-05T12:13:27Z</time>
      </trkpt>
      <trkpt lat="40.2576640" lon="-1.6041990">
        <ele>1491.4</ele>
        <time>2019-07-05T12:13:28Z</time>
      </trkpt>
      <trkpt lat="40.2576920" lon="-1.6044690">
        <ele>1490.6</ele>
        <time>2019-07-05T12:13:31Z</time>
      </trkpt>
      <trkpt lat="40.2577170" lon="-1.6047290">
        <ele>1489.8</ele>
        <time>2019-07-05T12:13:34Z</time>
      </trkpt>
      <trkpt lat="40.2577290" lon="-1.6048160">
        <ele>1489.6</ele>
        <time>2019-07-05T12:13:35Z</time>
      </trkpt>
      <trkpt lat="40.2577440" lon="-1.6049030">
        <ele>1489.0</ele>
        <time>2019-07-05T12:13:36Z</time>
      </trkpt>
      <trkpt lat="40.2578250" lon="-1.6052340">
        <ele>1489.0</ele>
        <time>2019-07-05T12:13:40Z</time>
      </trkpt>
      <trkpt lat="40.2579590" lon="-1.6055900">
        <ele>1488.4</ele>
        <time>2019-07-05T12:13:45Z</time>
      </trkpt>
      <trkpt lat="40.2579820" lon="-1.6056610">
        <ele>1488.0</ele>
        <time>2019-07-05T12:13:46Z</time>
      </trkpt>
      <trkpt lat="40.2580050" lon="-1.6057300">
        <ele>1487.2</ele>
        <time>2019-07-05T12:13:47Z</time>
      </trkpt>
      <trkpt lat="40.2580320" lon="-1.6057970">
        <ele>1486.8</ele>
        <time>2019-07-05T12:13:48Z</time>
      </trkpt>
      <trkpt lat="40.2581370" lon="-1.6059560">
        <ele>1485.6</ele>
        <time>2019-07-05T12:13:51Z</time>
      </trkpt>
      <trkpt lat="40.2581730" lon="-1.6059920">
        <ele>1485.8</ele>
        <time>2019-07-05T12:13:52Z</time>
      </trkpt>
      <trkpt lat="40.2582770" lon="-1.6061040">
        <ele>1486.2</ele>
        <time>2019-07-05T12:13:56Z</time>
      </trkpt>
      <trkpt lat="40.2583110" lon="-1.6061460">
        <ele>1486.6</ele>
        <time>2019-07-05T12:13:58Z</time>
      </trkpt>
      <trkpt lat="40.2583410" lon="-1.6061910">
        <ele>1487.2</ele>
        <time>2019-07-05T12:14:00Z</time>
      </trkpt>
      <trkpt lat="40.2583670" lon="-1.6062500">
        <ele>1487.6</ele>
        <time>2019-07-05T12:14:02Z</time>
      </trkpt>
      <trkpt lat="40.2583820" lon="-1.6062780">
        <ele>1488.0</ele>
        <time>2019-07-05T12:14:03Z</time>
      </trkpt>
      <trkpt lat="40.2584310" lon="-1.6063590">
        <ele>1489.0</ele>
        <time>2019-07-05T12:14:06Z</time>
      </trkpt>
      <trkpt lat="40.2584700" lon="-1.6064150">
        <ele>1489.6</ele>
        <time>2019-07-05T12:14:08Z</time>
      </trkpt>
      <trkpt lat="40.2585170" lon="-1.6064660">
        <ele>1490.0</ele>
        <time>2019-07-05T12:14:10Z</time>
      </trkpt>
      <trkpt lat="40.2585820" lon="-1.6065200">
        <ele>1490.8</ele>
        <time>2019-07-05T12:14:13Z</time>
      </trkpt>
      <trkpt lat="40.2586470" lon="-1.6065780">
        <ele>1491.0</ele>
        <time>2019-07-05T12:14:16Z</time>
      </trkpt>
      <trkpt lat="40.2586850" lon="-1.6066280">
        <ele>1490.8</ele>
        <time>2019-07-05T12:14:18Z</time>
      </trkpt>
      <trkpt lat="40.2587070" lon="-1.6066480">
        <ele>1490.8</ele>
        <time>2019-07-05T12:14:19Z</time>
      </trkpt>
      <trkpt lat="40.2587280" lon="-1.6066650">
        <ele>1490.8</ele>
        <time>2019-07-05T12:14:20Z</time>
      </trkpt>
      <trkpt lat="40.2587780" lon="-1.6067810">
        <ele>1491.4</ele>
        <time>2019-07-05T12:14:24Z</time>
      </trkpt>
      <trkpt lat="40.2588450" lon="-1.6069020">
        <ele>1491.8</ele>
        <time>2019-07-05T12:14:27Z</time>
      </trkpt>
      <trkpt lat="40.2589150" lon="-1.6070450">
        <ele>1492.0</ele>
        <time>2019-07-05T12:14:30Z</time>
      </trkpt>
      <trkpt lat="40.2589330" lon="-1.6070860">
        <ele>1492.2</ele>
        <time>2019-07-05T12:14:31Z</time>
      </trkpt>
      <trkpt lat="40.2589630" lon="-1.6071790">
        <ele>1492.4</ele>
        <time>2019-07-05T12:14:33Z</time>
      </trkpt>
      <trkpt lat="40.2590540" lon="-1.6074430">
        <ele>1492.8</ele>
        <time>2019-07-05T12:14:39Z</time>
      </trkpt>
      <trkpt lat="40.2590890" lon="-1.6075270">
        <ele>1493.2</ele>
        <time>2019-07-05T12:14:41Z</time>
      </trkpt>
      <trkpt lat="40.2591470" lon="-1.6077010">
        <ele>1493.6</ele>
        <time>2019-07-05T12:14:45Z</time>
      </trkpt>
      <trkpt lat="40.2591940" lon="-1.6078330">
        <ele>1494.2</ele>
        <time>2019-07-05T12:14:48Z</time>
      </trkpt>
      <trkpt lat="40.2592190" lon="-1.6079170">
        <ele>1494.8</ele>
        <time>2019-07-05T12:14:50Z</time>
      </trkpt>
      <trkpt lat="40.2592470" lon="-1.6081330">
        <ele>1495.0</ele>
        <time>2019-07-05T12:14:55Z</time>
      </trkpt>
      <trkpt lat="40.2592500" lon="-1.6081720">
        <ele>1495.2</ele>
        <time>2019-07-05T12:14:56Z</time>
      </trkpt>
      <trkpt lat="40.2592760" lon="-1.6082730">
        <ele>1496.2</ele>
        <time>2019-07-05T12:14:59Z</time>
      </trkpt>
      <trkpt lat="40.2592880" lon="-1.6083550">
        <ele>1496.8</ele>
        <time>2019-07-05T12:15:01Z</time>
      </trkpt>
      <trkpt lat="40.2593320" lon="-1.6085570">
        <ele>1497.6</ele>
        <time>2019-07-05T12:15:06Z</time>
      </trkpt>
      <trkpt lat="40.2593380" lon="-1.6086100">
        <ele>1498.2</ele>
        <time>2019-07-05T12:15:07Z</time>
      </trkpt>
      <trkpt lat="40.2593730" lon="-1.6089650">
        <ele>1498.2</ele>
        <time>2019-07-05T12:15:14Z</time>
      </trkpt>
      <trkpt lat="40.2593800" lon="-1.6090760">
        <ele>1497.6</ele>
        <time>2019-07-05T12:15:16Z</time>
      </trkpt>
      <trkpt lat="40.2593850" lon="-1.6092550">
        <ele>1497.6</ele>
        <time>2019-07-05T12:15:19Z</time>
      </trkpt>
      <trkpt lat="40.2594390" lon="-1.6094580">
        <ele>1497.8</ele>
        <time>2019-07-05T12:15:23Z</time>
      </trkpt>
      <trkpt lat="40.2594530" lon="-1.6095130">
        <ele>1498.2</ele>
        <time>2019-07-05T12:15:24Z</time>
      </trkpt>
      <trkpt lat="40.2595640" lon="-1.6098130">
        <ele>1497.6</ele>
        <time>2019-07-05T12:15:30Z</time>
      </trkpt>
      <trkpt lat="40.2596340" lon="-1.6099730">
        <ele>1498.6</ele>
        <time>2019-07-05T12:15:34Z</time>
      </trkpt>
      <trkpt lat="40.2596430" lon="-1.6100070">
        <ele>1498.8</ele>
        <time>2019-07-05T12:15:35Z</time>
      </trkpt>
      <trkpt lat="40.2596640" lon="-1.6100770">
        <ele>1499.8</ele>
        <time>2019-07-05T12:15:37Z</time>
      </trkpt>
      <trkpt lat="40.2596960" lon="-1.6101890">
        <ele>1501.0</ele>
        <time>2019-07-05T12:15:40Z</time>
      </trkpt>
      <trkpt lat="40.2597380" lon="-1.6103500">
        <ele>1501.6</ele>
        <time>2019-07-05T12:15:44Z</time>
      </trkpt>
      <trkpt lat="40.2598130" lon="-1.6107040">
        <ele>1501.4</ele>
        <time>2019-07-05T12:15:51Z</time>
      </trkpt>
      <trkpt lat="40.2598320" lon="-1.6109280">
        <ele>1502.0</ele>
        <time>2019-07-05T12:15:55Z</time>
      </trkpt>
      <trkpt lat="40.2598380" lon="-1.6110480">
        <ele>1502.2</ele>
        <time>2019-07-05T12:15:57Z</time>
      </trkpt>
      <trkpt lat="40.2599050" lon="-1.6112550">
        <ele>1502.6</ele>
        <time>2019-07-05T12:16:01Z</time>
      </trkpt>
      <trkpt lat="40.2599290" lon="-1.6113350">
        <ele>1503.0</ele>
        <time>2019-07-05T12:16:03Z</time>
      </trkpt>
      <trkpt lat="40.2599520" lon="-1.6114060">
        <ele>1503.2</ele>
        <time>2019-07-05T12:16:05Z</time>
      </trkpt>
      <trkpt lat="40.2600290" lon="-1.6116800">
        <ele>1503.4</ele>
        <time>2019-07-05T12:16:12Z</time>
      </trkpt>
      <trkpt lat="40.2600610" lon="-1.6118050">
        <ele>1504.0</ele>
        <time>2019-07-05T12:16:15Z</time>
      </trkpt>
      <trkpt lat="40.2601010" lon="-1.6119780">
        <ele>1504.8</ele>
        <time>2019-07-05T12:16:19Z</time>
      </trkpt>
      <trkpt lat="40.2601110" lon="-1.6120220">
        <ele>1505.0</ele>
        <time>2019-07-05T12:16:20Z</time>
      </trkpt>
      <trkpt lat="40.2601450" lon="-1.6121970">
        <ele>1506.2</ele>
        <time>2019-07-05T12:16:24Z</time>
      </trkpt>
      <trkpt lat="40.2601670" lon="-1.6123250">
        <ele>1506.8</ele>
        <time>2019-07-05T12:16:27Z</time>
      </trkpt>
      <trkpt lat="40.2602260" lon="-1.6127170">
        <ele>1506.4</ele>
        <time>2019-07-05T12:16:35Z</time>
      </trkpt>
      <trkpt lat="40.2602330" lon="-1.6128740">
        <ele>1506.8</ele>
        <time>2019-07-05T12:16:38Z</time>
      </trkpt>
      <trkpt lat="40.2602310" lon="-1.6129260">
        <ele>1507.4</ele>
        <time>2019-07-05T12:16:39Z</time>
      </trkpt>
      <trkpt lat="40.2602320" lon="-1.6129760">
        <ele>1507.6</ele>
        <time>2019-07-05T12:16:40Z</time>
      </trkpt>
      <trkpt lat="40.2602410" lon="-1.6130810">
        <ele>1508.0</ele>
        <time>2019-07-05T12:16:42Z</time>
      </trkpt>
      <trkpt lat="40.2602620" lon="-1.6133150">
        <ele>1508.0</ele>
        <time>2019-07-05T12:16:46Z</time>
      </trkpt>
      <trkpt lat="40.2603250" lon="-1.6135590">
        <ele>1508.2</ele>
        <time>2019-07-05T12:16:51Z</time>
      </trkpt>
      <trkpt lat="40.2603500" lon="-1.6136040">
        <ele>1508.6</ele>
        <time>2019-07-05T12:16:52Z</time>
      </trkpt>
      <trkpt lat="40.2604230" lon="-1.6137360">
        <ele>1509.0</ele>
        <time>2019-07-05T12:16:55Z</time>
      </trkpt>
      <trkpt lat="40.2604480" lon="-1.6137860">
        <ele>1509.0</ele>
        <time>2019-07-05T12:16:56Z</time>
      </trkpt>
      <trkpt lat="40.2605400" lon="-1.6139910">
        <ele>1507.8</ele>
        <time>2019-07-05T12:17:00Z</time>
      </trkpt>
      <trkpt lat="40.2605630" lon="-1.6140460">
        <ele>1507.6</ele>
        <time>2019-07-05T12:17:01Z</time>
      </trkpt>
      <trkpt lat="40.2606240" lon="-1.6142070">
        <ele>1507.4</ele>
        <time>2019-07-05T12:17:04Z</time>
      </trkpt>
      <trkpt lat="40.2606620" lon="-1.6142920">
        <ele>1507.4</ele>
        <time>2019-07-05T12:17:06Z</time>
      </trkpt>
      <trkpt lat="40.2608000" lon="-1.6145260">
        <ele>1507.2</ele>
        <time>2019-07-05T12:17:11Z</time>
      </trkpt>
      <trkpt lat="40.2608620" lon="-1.6146260">
        <ele>1507.4</ele>
        <time>2019-07-05T12:17:13Z</time>
      </trkpt>
      <trkpt lat="40.2609230" lon="-1.6147370">
        <ele>1507.4</ele>
        <time>2019-07-05T12:17:15Z</time>
      </trkpt>
      <trkpt lat="40.2610870" lon="-1.6150220">
        <ele>1507.2</ele>
        <time>2019-07-05T12:17:20Z</time>
      </trkpt>
      <trkpt lat="40.2611220" lon="-1.6150890">
        <ele>1506.8</ele>
        <time>2019-07-05T12:17:21Z</time>
      </trkpt>
      <trkpt lat="40.2611590" lon="-1.6151640">
        <ele>1506.6</ele>
        <time>2019-07-05T12:17:22Z</time>
      </trkpt>
      <trkpt lat="40.2611910" lon="-1.6152400">
        <ele>1506.2</ele>
        <time>2019-07-05T12:17:23Z</time>
      </trkpt>
      <trkpt lat="40.2612750" lon="-1.6154840">
        <ele>1506.2</ele>
        <time>2019-07-05T12:17:26Z</time>
      </trkpt>
      <trkpt lat="40.2613400" lon="-1.6156400">
        <ele>1506.0</ele>
        <time>2019-07-05T12:17:28Z</time>
      </trkpt>
      <trkpt lat="40.2614110" lon="-1.6157830">
        <ele>1505.2</ele>
        <time>2019-07-05T12:17:30Z</time>
      </trkpt>
      <trkpt lat="40.2614470" lon="-1.6158510">
        <ele>1504.8</ele>
        <time>2019-07-05T12:17:31Z</time>
      </trkpt>
      <trkpt lat="40.2614920" lon="-1.6159170">
        <ele>1504.6</ele>
        <time>2019-07-05T12:17:32Z</time>
      </trkpt>
      <trkpt lat="40.2616300" lon="-1.6161410">
        <ele>1504.2</ele>
        <time>2019-07-05T12:17:35Z</time>
      </trkpt>
      <trkpt lat="40.2616790" lon="-1.6162170">
        <ele>1503.8</ele>
        <time>2019-07-05T12:17:36Z</time>
      </trkpt>
      <trkpt lat="40.2618160" lon="-1.6164600">
        <ele>1503.2</ele>
        <time>2019-07-05T12:17:39Z</time>
      </trkpt>
      <trkpt lat="40.2619100" lon="-1.6166210">
        <ele>1502.4</ele>
        <time>2019-07-05T12:17:41Z</time>
      </trkpt>
      <trkpt lat="40.2619540" lon="-1.6166950">
        <ele>1502.0</ele>
        <time>2019-07-05T12:17:42Z</time>
      </trkpt>
      <trkpt lat="40.2620550" lon="-1.6169010">
        <ele>1502.2</ele>
        <time>2019-07-05T12:17:45Z</time>
      </trkpt>
      <trkpt lat="40.2621620" lon="-1.6171420">
        <ele>1502.8</ele>
        <time>2019-07-05T12:17:49Z</time>
      </trkpt>
      <trkpt lat="40.2622120" lon="-1.6172520">
        <ele>1502.8</ele>
        <time>2019-07-05T12:17:51Z</time>
      </trkpt>
      <trkpt lat="40.2622810" lon="-1.6174030">
        <ele>1503.6</ele>
        <time>2019-07-05T12:17:54Z</time>
      </trkpt>
      <trkpt lat="40.2623600" lon="-1.6175790">
        <ele>1504.0</ele>
        <time>2019-07-05T12:17:58Z</time>
      </trkpt>
      <trkpt lat="40.2624040" lon="-1.6176970">
        <ele>1504.6</ele>
        <time>2019-07-05T12:18:01Z</time>
      </trkpt>
      <trkpt lat="40.2624180" lon="-1.6177350">
        <ele>1505.0</ele>
        <time>2019-07-05T12:18:02Z</time>
      </trkpt>
      <trkpt lat="40.2624480" lon="-1.6178120">
        <ele>1505.8</ele>
        <time>2019-07-05T12:18:04Z</time>
      </trkpt>
      <trkpt lat="40.2624660" lon="-1.6178510">
        <ele>1506.2</ele>
        <time>2019-07-05T12:18:05Z</time>
      </trkpt>
      <trkpt lat="40.2625430" lon="-1.6180080">
        <ele>1506.8</ele>
        <time>2019-07-05T12:18:09Z</time>
      </trkpt>
      <trkpt lat="40.2625910" lon="-1.6180860">
        <ele>1507.2</ele>
        <time>2019-07-05T12:18:11Z</time>
      </trkpt>
      <trkpt lat="40.2626150" lon="-1.6181260">
        <ele>1507.4</ele>
        <time>2019-07-05T12:18:12Z</time>
      </trkpt>
      <trkpt lat="40.2627580" lon="-1.6183770">
        <ele>1507.6</ele>
        <time>2019-07-05T12:18:18Z</time>
      </trkpt>
      <trkpt lat="40.2628060" lon="-1.6184660">
        <ele>1507.6</ele>
        <time>2019-07-05T12:18:20Z</time>
      </trkpt>
      <trkpt lat="40.2629000" lon="-1.6186370">
        <ele>1508.2</ele>
        <time>2019-07-05T12:18:24Z</time>
      </trkpt>
      <trkpt lat="40.2629780" lon="-1.6187550">
        <ele>1508.6</ele>
        <time>2019-07-05T12:18:27Z</time>
      </trkpt>
      <trkpt lat="40.2631140" lon="-1.6189320">
        <ele>1508.2</ele>
        <time>2019-07-05T12:18:32Z</time>
      </trkpt>
      <trkpt lat="40.2632280" lon="-1.6190980">
        <ele>1508.6</ele>
        <time>2019-07-05T12:18:37Z</time>
      </trkpt>
      <trkpt lat="40.2632790" lon="-1.6191870">
        <ele>1509.4</ele>
        <time>2019-07-05T12:18:40Z</time>
      </trkpt>
      <trkpt lat="40.2633180" lon="-1.6192350">
        <ele>1509.6</ele>
        <time>2019-07-05T12:18:42Z</time>
      </trkpt>
      <trkpt lat="40.2633770" lon="-1.6193110">
        <ele>1510.4</ele>
        <time>2019-07-05T12:18:45Z</time>
      </trkpt>
      <trkpt lat="40.2634160" lon="-1.6193670">
        <ele>1510.6</ele>
        <time>2019-07-05T12:18:47Z</time>
      </trkpt>
      <trkpt lat="40.2635090" lon="-1.6194960">
        <ele>1510.6</ele>
        <time>2019-07-05T12:18:52Z</time>
      </trkpt>
      <trkpt lat="40.2635480" lon="-1.6195450">
        <ele>1512.0</ele>
        <time>2019-07-05T12:18:54Z</time>
      </trkpt>
      <trkpt lat="40.2636080" lon="-1.6196390">
        <ele>1512.8</ele>
        <time>2019-07-05T12:18:57Z</time>
      </trkpt>
      <trkpt lat="40.2636720" lon="-1.6197520">
        <ele>1513.0</ele>
        <time>2019-07-05T12:19:00Z</time>
      </trkpt>
      <trkpt lat="40.2637400" lon="-1.6198610">
        <ele>1513.0</ele>
        <time>2019-07-05T12:19:03Z</time>
      </trkpt>
      <trkpt lat="40.2638450" lon="-1.6200410">
        <ele>1513.4</ele>
        <time>2019-07-05T12:19:08Z</time>
      </trkpt>
      <trkpt lat="40.2639410" lon="-1.6202420">
        <ele>1513.2</ele>
        <time>2019-07-05T12:19:13Z</time>
      </trkpt>
      <trkpt lat="40.2640320" lon="-1.6203740">
        <ele>1513.8</ele>
        <time>2019-07-05T12:19:17Z</time>
      </trkpt>
      <trkpt lat="40.2640540" lon="-1.6204100">
        <ele>1514.2</ele>
        <time>2019-07-05T12:19:18Z</time>
      </trkpt>
      <trkpt lat="40.2641170" lon="-1.6205310">
        <ele>1515.0</ele>
        <time>2019-07-05T12:19:21Z</time>
      </trkpt>
      <trkpt lat="40.2641630" lon="-1.6206610">
        <ele>1515.2</ele>
        <time>2019-07-05T12:19:24Z</time>
      </trkpt>
      <trkpt lat="40.2642230" lon="-1.6208340">
        <ele>1516.0</ele>
        <time>2019-07-05T12:19:28Z</time>
      </trkpt>
      <trkpt lat="40.2642350" lon="-1.6208780">
        <ele>1516.4</ele>
        <time>2019-07-05T12:19:29Z</time>
      </trkpt>
      <trkpt lat="40.2643720" lon="-1.6211170">
        <ele>1516.2</ele>
        <time>2019-07-05T12:19:35Z</time>
      </trkpt>
      <trkpt lat="40.2644140" lon="-1.6212080">
        <ele>1516.0</ele>
        <time>2019-07-05T12:19:37Z</time>
      </trkpt>
      <trkpt lat="40.2644720" lon="-1.6213490">
        <ele>1516.0</ele>
        <time>2019-07-05T12:19:40Z</time>
      </trkpt>
      <trkpt lat="40.2645530" lon="-1.6216510">
        <ele>1516.8</ele>
        <time>2019-07-05T12:19:46Z</time>
      </trkpt>
      <trkpt lat="40.2646720" lon="-1.6219580">
        <ele>1517.6</ele>
        <time>2019-07-05T12:19:53Z</time>
      </trkpt>
      <trkpt lat="40.2646900" lon="-1.6220100">
        <ele>1517.6</ele>
        <time>2019-07-05T12:19:54Z</time>
      </trkpt>
      <trkpt lat="40.2647680" lon="-1.6221620">
        <ele>1517.4</ele>
        <time>2019-07-05T12:19:57Z</time>
      </trkpt>
      <trkpt lat="40.2648540" lon="-1.6222890">
        <ele>1517.2</ele>
        <time>2019-07-05T12:20:00Z</time>
      </trkpt>
      <trkpt lat="40.2648820" lon="-1.6223300">
        <ele>1517.2</ele>
        <time>2019-07-05T12:20:01Z</time>
      </trkpt>
      <trkpt lat="40.2649080" lon="-1.6223740">
        <ele>1517.2</ele>
        <time>2019-07-05T12:20:02Z</time>
      </trkpt>
      <trkpt lat="40.2649750" lon="-1.6224940">
        <ele>1517.4</ele>
        <time>2019-07-05T12:20:05Z</time>
      </trkpt>
      <trkpt lat="40.2650230" lon="-1.6225660">
        <ele>1517.2</ele>
        <time>2019-07-05T12:20:07Z</time>
      </trkpt>
      <trkpt lat="40.2650840" lon="-1.6226510">
        <ele>1517.4</ele>
        <time>2019-07-05T12:20:09Z</time>
      </trkpt>
      <trkpt lat="40.2652010" lon="-1.6228230">
        <ele>1517.8</ele>
        <time>2019-07-05T12:20:13Z</time>
      </trkpt>
      <trkpt lat="40.2652620" lon="-1.6229050">
        <ele>1518.0</ele>
        <time>2019-07-05T12:20:15Z</time>
      </trkpt>
      <trkpt lat="40.2653640" lon="-1.6230540">
        <ele>1518.6</ele>
        <time>2019-07-05T12:20:19Z</time>
      </trkpt>
      <trkpt lat="40.2654950" lon="-1.6232110">
        <ele>1518.4</ele>
        <time>2019-07-05T12:20:23Z</time>
      </trkpt>
      <trkpt lat="40.2655280" lon="-1.6232560">
        <ele>1518.4</ele>
        <time>2019-07-05T12:20:24Z</time>
      </trkpt>
      <trkpt lat="40.2656720" lon="-1.6234520">
        <ele>1518.6</ele>
        <time>2019-07-05T12:20:29Z</time>
      </trkpt>
      <trkpt lat="40.2658210" lon="-1.6237260">
        <ele>1519.2</ele>
        <time>2019-07-05T12:20:34Z</time>
      </trkpt>
      <trkpt lat="40.2658550" lon="-1.6237780">
        <ele>1519.2</ele>
        <time>2019-07-05T12:20:35Z</time>
      </trkpt>
      <trkpt lat="40.2660250" lon="-1.6240710">
        <ele>1519.2</ele>
        <time>2019-07-05T12:20:40Z</time>
      </trkpt>
      <trkpt lat="40.2662360" lon="-1.6244420">
        <ele>1519.2</ele>
        <time>2019-07-05T12:20:47Z</time>
      </trkpt>
      <trkpt lat="40.2663240" lon="-1.6245940">
        <ele>1519.6</ele>
        <time>2019-07-05T12:20:50Z</time>
      </trkpt>
      <trkpt lat="40.2663530" lon="-1.6246410">
        <ele>1519.6</ele>
        <time>2019-07-05T12:20:51Z</time>
      </trkpt>
      <trkpt lat="40.2663810" lon="-1.6246900">
        <ele>1519.8</ele>
        <time>2019-07-05T12:20:52Z</time>
      </trkpt>
      <trkpt lat="40.2664380" lon="-1.6247840">
        <ele>1519.8</ele>
        <time>2019-07-05T12:20:54Z</time>
      </trkpt>
      <trkpt lat="40.2664870" lon="-1.6248820">
        <ele>1519.4</ele>
        <time>2019-07-05T12:20:56Z</time>
      </trkpt>
      <trkpt lat="40.2665590" lon="-1.6250190">
        <ele>1519.4</ele>
        <time>2019-07-05T12:20:59Z</time>
      </trkpt>
      <trkpt lat="40.2666140" lon="-1.6251170">
        <ele>1519.6</ele>
        <time>2019-07-05T12:21:01Z</time>
      </trkpt>
      <trkpt lat="40.2666680" lon="-1.6252160">
        <ele>1519.8</ele>
        <time>2019-07-05T12:21:03Z</time>
      </trkpt>
      <trkpt lat="40.2667380" lon="-1.6253460">
        <ele>1519.8</ele>
        <time>2019-07-05T12:21:06Z</time>
      </trkpt>
      <trkpt lat="40.2669040" lon="-1.6255720">
        <ele>1520.4</ele>
        <time>2019-07-05T12:21:12Z</time>
      </trkpt>
      <trkpt lat="40.2670370" lon="-1.6257030">
        <ele>1520.8</ele>
        <time>2019-07-05T12:21:16Z</time>
      </trkpt>
      <trkpt lat="40.2670770" lon="-1.6257380">
        <ele>1520.8</ele>
        <time>2019-07-05T12:21:17Z</time>
      </trkpt>
      <trkpt lat="40.2672260" lon="-1.6258760">
        <ele>1521.0</ele>
        <time>2019-07-05T12:21:21Z</time>
      </trkpt>
      <trkpt lat="40.2672610" lon="-1.6259120">
        <ele>1521.2</ele>
        <time>2019-07-05T12:21:22Z</time>
      </trkpt>
      <trkpt lat="40.2672910" lon="-1.6259510">
        <ele>1521.4</ele>
        <time>2019-07-05T12:21:23Z</time>
      </trkpt>
      <trkpt lat="40.2673660" lon="-1.6260610">
        <ele>1522.2</ele>
        <time>2019-07-05T12:21:26Z</time>
      </trkpt>
      <trkpt lat="40.2673920" lon="-1.6260980">
        <ele>1522.2</ele>
        <time>2019-07-05T12:21:27Z</time>
      </trkpt>
      <trkpt lat="40.2675400" lon="-1.6262670">
        <ele>1522.4</ele>
        <time>2019-07-05T12:21:32Z</time>
      </trkpt>
      <trkpt lat="40.2676680" lon="-1.6264390">
        <ele>1522.6</ele>
        <time>2019-07-05T12:21:37Z</time>
      </trkpt>
      <trkpt lat="40.2677610" lon="-1.6265810">
        <ele>1523.0</ele>
        <time>2019-07-05T12:21:41Z</time>
      </trkpt>
      <trkpt lat="40.2677920" lon="-1.6266260">
        <ele>1523.2</ele>
        <time>2019-07-05T12:21:42Z</time>
      </trkpt>
      <trkpt lat="40.2678540" lon="-1.6267180">
        <ele>1523.2</ele>
        <time>2019-07-05T12:21:44Z</time>
      </trkpt>
      <trkpt lat="40.2679240" lon="-1.6268120">
        <ele>1523.2</ele>
        <time>2019-07-05T12:21:46Z</time>
      </trkpt>
      <trkpt lat="40.2680520" lon="-1.6269920">
        <ele>1522.8</ele>
        <time>2019-07-05T12:21:50Z</time>
      </trkpt>
      <trkpt lat="40.2681090" lon="-1.6270930">
        <ele>1522.4</ele>
        <time>2019-07-05T12:21:52Z</time>
      </trkpt>
      <trkpt lat="40.2681640" lon="-1.6272040">
        <ele>1522.4</ele>
        <time>2019-07-05T12:21:54Z</time>
      </trkpt>
      <trkpt lat="40.2681970" lon="-1.6272570">
        <ele>1522.4</ele>
        <time>2019-07-05T12:21:55Z</time>
      </trkpt>
      <trkpt lat="40.2683000" lon="-1.6274150">
        <ele>1523.2</ele>
        <time>2019-07-05T12:21:58Z</time>
      </trkpt>
      <trkpt lat="40.2683590" lon="-1.6275160">
        <ele>1524.0</ele>
        <time>2019-07-05T12:22:00Z</time>
      </trkpt>
      <trkpt lat="40.2684670" lon="-1.6277040">
        <ele>1524.8</ele>
        <time>2019-07-05T12:22:04Z</time>
      </trkpt>
      <trkpt lat="40.2685440" lon="-1.6278400">
        <ele>1525.0</ele>
        <time>2019-07-05T12:22:07Z</time>
      </trkpt>
      <trkpt lat="40.2686080" lon="-1.6279650">
        <ele>1525.0</ele>
        <time>2019-07-05T12:22:10Z</time>
      </trkpt>
      <trkpt lat="40.2686950" lon="-1.6281160">
        <ele>1526.0</ele>
        <time>2019-07-05T12:22:14Z</time>
      </trkpt>
      <trkpt lat="40.2687700" lon="-1.6282150">
        <ele>1526.4</ele>
        <time>2019-07-05T12:22:17Z</time>
      </trkpt>
      <trkpt lat="40.2688920" lon="-1.6284220">
        <ele>1526.8</ele>
        <time>2019-07-05T12:22:23Z</time>
      </trkpt>
      <trkpt lat="40.2689280" lon="-1.6284860">
        <ele>1527.0</ele>
        <time>2019-07-05T12:22:25Z</time>
      </trkpt>
      <trkpt lat="40.2689850" lon="-1.6286180">
        <ele>1528.2</ele>
        <time>2019-07-05T12:22:29Z</time>
      </trkpt>
      <trkpt lat="40.2690740" lon="-1.6287970">
        <ele>1528.8</ele>
        <time>2019-07-05T12:22:34Z</time>
      </trkpt>
      <trkpt lat="40.2690870" lon="-1.6288340">
        <ele>1529.2</ele>
        <time>2019-07-05T12:22:35Z</time>
      </trkpt>
      <trkpt lat="40.2691580" lon="-1.6289740">
        <ele>1530.0</ele>
        <time>2019-07-05T12:22:39Z</time>
      </trkpt>
      <trkpt lat="40.2691780" lon="-1.6290030">
        <ele>1530.2</ele>
        <time>2019-07-05T12:22:40Z</time>
      </trkpt>
      <trkpt lat="40.2692610" lon="-1.6291290">
        <ele>1531.2</ele>
        <time>2019-07-05T12:22:44Z</time>
      </trkpt>
      <trkpt lat="40.2692840" lon="-1.6291630">
        <ele>1531.4</ele>
        <time>2019-07-05T12:22:45Z</time>
      </trkpt>
      <trkpt lat="40.2693760" lon="-1.6293020">
        <ele>1532.2</ele>
        <time>2019-07-05T12:22:49Z</time>
      </trkpt>
      <trkpt lat="40.2693970" lon="-1.6293370">
        <ele>1532.4</ele>
        <time>2019-07-05T12:22:50Z</time>
      </trkpt>
      <trkpt lat="40.2694750" lon="-1.6294850">
        <ele>1533.0</ele>
        <time>2019-07-05T12:22:54Z</time>
      </trkpt>
      <trkpt lat="40.2695580" lon="-1.6296790">
        <ele>1533.2</ele>
        <time>2019-07-05T12:22:59Z</time>
      </trkpt>
      <trkpt lat="40.2697080" lon="-1.6299240">
        <ele>1532.8</ele>
        <time>2019-07-05T12:23:04Z</time>
      </trkpt>
      <trkpt lat="40.2698360" lon="-1.6301670">
        <ele>1532.6</ele>
        <time>2019-07-05T12:23:08Z</time>
      </trkpt>
      <trkpt lat="40.2699940" lon="-1.6304720">
        <ele>1533.0</ele>
        <time>2019-07-05T12:23:14Z</time>
      </trkpt>
      <trkpt lat="40.2700150" lon="-1.6305080">
        <ele>1533.6</ele>
        <time>2019-07-05T12:23:15Z</time>
      </trkpt>
      <trkpt lat="40.2700810" lon="-1.6306050">
        <ele>1534.6</ele>
        <time>2019-07-05T12:23:18Z</time>
      </trkpt>
      <trkpt lat="40.2701230" lon="-1.6306770">
        <ele>1535.2</ele>
        <time>2019-07-05T12:23:20Z</time>
      </trkpt>
      <trkpt lat="40.2701440" lon="-1.6307100">
        <ele>1535.6</ele>
        <time>2019-07-05T12:23:21Z</time>
      </trkpt>
      <trkpt lat="40.2702340" lon="-1.6308490">
        <ele>1536.6</ele>
        <time>2019-07-05T12:23:25Z</time>
      </trkpt>
      <trkpt lat="40.2702540" lon="-1.6308820">
        <ele>1536.8</ele>
        <time>2019-07-05T12:23:26Z</time>
      </trkpt>
      <trkpt lat="40.2703590" lon="-1.6310560">
        <ele>1537.4</ele>
        <time>2019-07-05T12:23:31Z</time>
      </trkpt>
      <trkpt lat="40.2704360" lon="-1.6311770">
        <ele>1537.8</ele>
        <time>2019-07-05T12:23:34Z</time>
      </trkpt>
      <trkpt lat="40.2704560" lon="-1.6312230">
        <ele>1538.0</ele>
        <time>2019-07-05T12:23:35Z</time>
      </trkpt>
      <trkpt lat="40.2705680" lon="-1.6314300">
        <ele>1536.8</ele>
        <time>2019-07-05T12:23:39Z</time>
      </trkpt>
      <trkpt lat="40.2706070" lon="-1.6314850">
        <ele>1536.6</ele>
        <time>2019-07-05T12:23:40Z</time>
      </trkpt>
      <trkpt lat="40.2707660" lon="-1.6317000">
        <ele>1536.6</ele>
        <time>2019-07-05T12:23:44Z</time>
      </trkpt>
      <trkpt lat="40.2709120" lon="-1.6318650">
        <ele>1536.0</ele>
        <time>2019-07-05T12:23:47Z</time>
      </trkpt>
      <trkpt lat="40.2710140" lon="-1.6319920">
        <ele>1535.2</ele>
        <time>2019-07-05T12:23:49Z</time>
      </trkpt>
      <trkpt lat="40.2710650" lon="-1.6320520">
        <ele>1534.8</ele>
        <time>2019-07-05T12:23:50Z</time>
      </trkpt>
      <trkpt lat="40.2712250" lon="-1.6322330">
        <ele>1534.4</ele>
        <time>2019-07-05T12:23:53Z</time>
      </trkpt>
      <trkpt lat="40.2712750" lon="-1.6322950">
        <ele>1534.2</ele>
        <time>2019-07-05T12:23:54Z</time>
      </trkpt>
      <trkpt lat="40.2713570" lon="-1.6324170">
        <ele>1533.8</ele>
        <time>2019-07-05T12:23:56Z</time>
      </trkpt>
      <trkpt lat="40.2713910" lon="-1.6324730">
        <ele>1533.6</ele>
        <time>2019-07-05T12:23:57Z</time>
      </trkpt>
      <trkpt lat="40.2714240" lon="-1.6325200">
        <ele>1533.8</ele>
        <time>2019-07-05T12:23:58Z</time>
      </trkpt>
      <trkpt lat="40.2715100" lon="-1.6326570">
        <ele>1533.8</ele>
        <time>2019-07-05T12:24:01Z</time>
      </trkpt>
      <trkpt lat="40.2716360" lon="-1.6328430">
        <ele>1533.6</ele>
        <time>2019-07-05T12:24:05Z</time>
      </trkpt>
      <trkpt lat="40.2716780" lon="-1.6328890">
        <ele>1533.4</ele>
        <time>2019-07-05T12:24:06Z</time>
      </trkpt>
      <trkpt lat="40.2718000" lon="-1.6330350">
        <ele>1533.4</ele>
        <time>2019-07-05T12:24:09Z</time>
      </trkpt>
      <trkpt lat="40.2720020" lon="-1.6332630">
        <ele>1533.2</ele>
        <time>2019-07-05T12:24:14Z</time>
      </trkpt>
      <trkpt lat="40.2720430" lon="-1.6333050">
        <ele>1533.0</ele>
        <time>2019-07-05T12:24:15Z</time>
      </trkpt>
      <trkpt lat="40.2721690" lon="-1.6334320">
        <ele>1532.6</ele>
        <time>2019-07-05T12:24:18Z</time>
      </trkpt>
      <trkpt lat="40.2722090" lon="-1.6334750">
        <ele>1532.6</ele>
        <time>2019-07-05T12:24:19Z</time>
      </trkpt>
      <trkpt lat="40.2722520" lon="-1.6335120">
        <ele>1532.6</ele>
        <time>2019-07-05T12:24:20Z</time>
      </trkpt>
      <trkpt lat="40.2723840" lon="-1.6336480">
        <ele>1533.4</ele>
        <time>2019-07-05T12:24:23Z</time>
      </trkpt>
      <trkpt lat="40.2724640" lon="-1.6337400">
        <ele>1533.2</ele>
        <time>2019-07-05T12:24:25Z</time>
      </trkpt>
      <trkpt lat="40.2725690" lon="-1.6338920">
        <ele>1532.8</ele>
        <time>2019-07-05T12:24:28Z</time>
      </trkpt>
      <trkpt lat="40.2726780" lon="-1.6340710">
        <ele>1532.8</ele>
        <time>2019-07-05T12:24:32Z</time>
      </trkpt>
      <trkpt lat="40.2727130" lon="-1.6341180">
        <ele>1533.2</ele>
        <time>2019-07-05T12:24:33Z</time>
      </trkpt>
      <trkpt lat="40.2727540" lon="-1.6341650">
        <ele>1533.2</ele>
        <time>2019-07-05T12:24:34Z</time>
      </trkpt>
      <trkpt lat="40.2728500" lon="-1.6342650">
        <ele>1533.0</ele>
        <time>2019-07-05T12:24:36Z</time>
      </trkpt>
      <trkpt lat="40.2728900" lon="-1.6343160">
        <ele>1532.8</ele>
        <time>2019-07-05T12:24:37Z</time>
      </trkpt>
      <trkpt lat="40.2730300" lon="-1.6344520">
        <ele>1532.8</ele>
        <time>2019-07-05T12:24:40Z</time>
      </trkpt>
      <trkpt lat="40.2730840" lon="-1.6344810">
        <ele>1532.8</ele>
        <time>2019-07-05T12:24:41Z</time>
      </trkpt>
      <trkpt lat="40.2734420" lon="-1.6346630">
        <ele>1532.6</ele>
        <time>2019-07-05T12:24:47Z</time>
      </trkpt>
      <trkpt lat="40.2735610" lon="-1.6347190">
        <ele>1532.6</ele>
        <time>2019-07-05T12:24:49Z</time>
      </trkpt>
      <trkpt lat="40.2737370" lon="-1.6348040">
        <ele>1532.2</ele>
        <time>2019-07-05T12:24:52Z</time>
      </trkpt>
      <trkpt lat="40.2737930" lon="-1.6348310">
        <ele>1531.8</ele>
        <time>2019-07-05T12:24:53Z</time>
      </trkpt>
      <trkpt lat="40.2738980" lon="-1.6348950">
        <ele>1531.2</ele>
        <time>2019-07-05T12:24:55Z</time>
      </trkpt>
      <trkpt lat="40.2740000" lon="-1.6349730">
        <ele>1531.2</ele>
        <time>2019-07-05T12:24:57Z</time>
      </trkpt>
      <trkpt lat="40.2740490" lon="-1.6350090">
        <ele>1531.0</ele>
        <time>2019-07-05T12:24:58Z</time>
      </trkpt>
      <trkpt lat="40.2741930" lon="-1.6350820">
        <ele>1532.8</ele>
        <time>2019-07-05T12:25:01Z</time>
      </trkpt>
      <trkpt lat="40.2743770" lon="-1.6351290">
        <ele>1533.2</ele>
        <time>2019-07-05T12:25:05Z</time>
      </trkpt>
      <trkpt lat="40.2746160" lon="-1.6352060">
        <ele>1532.0</ele>
        <time>2019-07-05T12:25:11Z</time>
      </trkpt>
      <trkpt lat="40.2746440" lon="-1.6352300">
        <ele>1532.0</ele>
        <time>2019-07-05T12:25:12Z</time>
      </trkpt>
      <trkpt lat="40.2747640" lon="-1.6353280">
        <ele>1532.0</ele>
        <time>2019-07-05T12:25:17Z</time>
      </trkpt>
      <trkpt lat="40.2748860" lon="-1.6354980">
        <ele>1532.4</ele>
        <time>2019-07-05T12:25:22Z</time>
      </trkpt>
      <trkpt lat="40.2750150" lon="-1.6357110">
        <ele>1532.8</ele>
        <time>2019-07-05T12:25:28Z</time>
      </trkpt>
      <trkpt lat="40.2751360" lon="-1.6359080">
        <ele>1532.4</ele>
        <time>2019-07-05T12:25:33Z</time>
      </trkpt>
      <trkpt lat="40.2753170" lon="-1.6362050">
        <ele>1533.4</ele>
        <time>2019-07-05T12:25:40Z</time>
      </trkpt>
      <trkpt lat="40.2753690" lon="-1.6362840">
        <ele>1534.0</ele>
        <time>2019-07-05T12:25:42Z</time>
      </trkpt>
      <trkpt lat="40.2753970" lon="-1.6363230">
        <ele>1534.2</ele>
        <time>2019-07-05T12:25:43Z</time>
      </trkpt>
      <trkpt lat="40.2754760" lon="-1.6364440">
        <ele>1534.6</ele>
        <time>2019-07-05T12:25:46Z</time>
      </trkpt>
      <trkpt lat="40.2755530" lon="-1.6365720">
        <ele>1535.0</ele>
        <time>2019-07-05T12:25:49Z</time>
      </trkpt>
      <trkpt lat="40.2757660" lon="-1.6367980">
        <ele>1535.4</ele>
        <time>2019-07-05T12:25:56Z</time>
      </trkpt>
      <trkpt lat="40.2757970" lon="-1.6368200">
        <ele>1535.6</ele>
        <time>2019-07-05T12:25:57Z</time>
      </trkpt>
      <trkpt lat="40.2759800" lon="-1.6369610">
        <ele>1535.8</ele>
        <time>2019-07-05T12:26:03Z</time>
      </trkpt>
      <trkpt lat="40.2761360" lon="-1.6371430">
        <ele>1536.2</ele>
        <time>2019-07-05T12:26:09Z</time>
      </trkpt>
      <trkpt lat="40.2762310" lon="-1.6372850">
        <ele>1536.6</ele>
        <time>2019-07-05T12:26:13Z</time>
      </trkpt>
      <trkpt lat="40.2762900" lon="-1.6373900">
        <ele>1537.0</ele>
        <time>2019-07-05T12:26:16Z</time>
      </trkpt>
      <trkpt lat="40.2764070" lon="-1.6375820">
        <ele>1537.4</ele>
        <time>2019-07-05T12:26:22Z</time>
      </trkpt>
      <trkpt lat="40.2765240" lon="-1.6377330">
        <ele>1537.8</ele>
        <time>2019-07-05T12:26:27Z</time>
      </trkpt>
      <trkpt lat="40.2765400" lon="-1.6377730">
        <ele>1537.8</ele>
        <time>2019-07-05T12:26:28Z</time>
      </trkpt>
      <trkpt lat="40.2766280" lon="-1.6379400">
        <ele>1538.4</ele>
        <time>2019-07-05T12:26:32Z</time>
      </trkpt>
      <trkpt lat="40.2766620" lon="-1.6379800">
        <ele>1538.4</ele>
        <time>2019-07-05T12:26:33Z</time>
      </trkpt>
      <trkpt lat="40.2767350" lon="-1.6380440">
        <ele>1538.4</ele>
        <time>2019-07-05T12:26:35Z</time>
      </trkpt>
      <trkpt lat="40.2768590" lon="-1.6381150">
        <ele>1538.4</ele>
        <time>2019-07-05T12:26:38Z</time>
      </trkpt>
      <trkpt lat="40.2769420" lon="-1.6381740">
        <ele>1538.6</ele>
        <time>2019-07-05T12:26:40Z</time>
      </trkpt>
      <trkpt lat="40.2771040" lon="-1.6382850">
        <ele>1538.6</ele>
        <time>2019-07-05T12:26:44Z</time>
      </trkpt>
      <trkpt lat="40.2771400" lon="-1.6383150">
        <ele>1538.8</ele>
        <time>2019-07-05T12:26:45Z</time>
      </trkpt>
      <trkpt lat="40.2772750" lon="-1.6384490">
        <ele>1539.8</ele>
        <time>2019-07-05T12:26:49Z</time>
      </trkpt>
      <trkpt lat="40.2773070" lon="-1.6384870">
        <ele>1540.0</ele>
        <time>2019-07-05T12:26:50Z</time>
      </trkpt>
      <trkpt lat="40.2775030" lon="-1.6387580">
        <ele>1540.4</ele>
        <time>2019-07-05T12:26:56Z</time>
      </trkpt>
      <trkpt lat="40.2775710" lon="-1.6388430">
        <ele>1541.0</ele>
        <time>2019-07-05T12:26:58Z</time>
      </trkpt>
      <trkpt lat="40.2776900" lon="-1.6390150">
        <ele>1541.6</ele>
        <time>2019-07-05T12:27:02Z</time>
      </trkpt>
      <trkpt lat="40.2777830" lon="-1.6391410">
        <ele>1542.2</ele>
        <time>2019-07-05T12:27:05Z</time>
      </trkpt>
      <trkpt lat="40.2779080" lon="-1.6393060">
        <ele>1543.2</ele>
        <time>2019-07-05T12:27:09Z</time>
      </trkpt>
      <trkpt lat="40.2779370" lon="-1.6393510">
        <ele>1543.2</ele>
        <time>2019-07-05T12:27:10Z</time>
      </trkpt>
      <trkpt lat="40.2779890" lon="-1.6394450">
        <ele>1543.4</ele>
        <time>2019-07-05T12:27:12Z</time>
      </trkpt>
      <trkpt lat="40.2780770" lon="-1.6396470">
        <ele>1544.2</ele>
        <time>2019-07-05T12:27:16Z</time>
      </trkpt>
      <trkpt lat="40.2781620" lon="-1.6397860">
        <ele>1544.8</ele>
        <time>2019-07-05T12:27:19Z</time>
      </trkpt>
      <trkpt lat="40.2782320" lon="-1.6398460">
        <ele>1545.2</ele>
        <time>2019-07-05T12:27:21Z</time>
      </trkpt>
      <trkpt lat="40.2782710" lon="-1.6398650">
        <ele>1545.4</ele>
        <time>2019-07-05T12:27:22Z</time>
      </trkpt>
      <trkpt lat="40.2783530" lon="-1.6398920">
        <ele>1546.0</ele>
        <time>2019-07-05T12:27:24Z</time>
      </trkpt>
      <trkpt lat="40.2783940" lon="-1.6399020">
        <ele>1546.4</ele>
        <time>2019-07-05T12:27:25Z</time>
      </trkpt>
      <trkpt lat="40.2784720" lon="-1.6399210">
        <ele>1546.6</ele>
        <time>2019-07-05T12:27:27Z</time>
      </trkpt>
      <trkpt lat="40.2786100" lon="-1.6399970">
        <ele>1546.4</ele>
        <time>2019-07-05T12:27:31Z</time>
      </trkpt>
      <trkpt lat="40.2786440" lon="-1.6400310">
        <ele>1546.6</ele>
        <time>2019-07-05T12:27:32Z</time>
      </trkpt>
      <trkpt lat="40.2788810" lon="-1.6403240">
        <ele>1547.2</ele>
        <time>2019-07-05T12:27:39Z</time>
      </trkpt>
      <trkpt lat="40.2789830" lon="-1.6404390">
        <ele>1547.8</ele>
        <time>2019-07-05T12:27:42Z</time>
      </trkpt>
      <trkpt lat="40.2790510" lon="-1.6404980">
        <ele>1548.4</ele>
        <time>2019-07-05T12:27:44Z</time>
      </trkpt>
      <trkpt lat="40.2790890" lon="-1.6405220">
        <ele>1548.6</ele>
        <time>2019-07-05T12:27:45Z</time>
      </trkpt>
      <trkpt lat="40.2792340" lon="-1.6406180">
        <ele>1549.0</ele>
        <time>2019-07-05T12:27:49Z</time>
      </trkpt>
      <trkpt lat="40.2793040" lon="-1.6406650">
        <ele>1550.0</ele>
        <time>2019-07-05T12:27:51Z</time>
      </trkpt>
      <trkpt lat="40.2793360" lon="-1.6406920">
        <ele>1550.2</ele>
        <time>2019-07-05T12:27:52Z</time>
      </trkpt>
      <trkpt lat="40.2795670" lon="-1.6408780">
        <ele>1551.2</ele>
        <time>2019-07-05T12:27:59Z</time>
      </trkpt>
      <trkpt lat="40.2795980" lon="-1.6409030">
        <ele>1551.4</ele>
        <time>2019-07-05T12:28:00Z</time>
      </trkpt>
      <trkpt lat="40.2797240" lon="-1.6410040">
        <ele>1552.4</ele>
        <time>2019-07-05T12:28:04Z</time>
      </trkpt>
      <trkpt lat="40.2798230" lon="-1.6410890">
        <ele>1552.6</ele>
        <time>2019-07-05T12:28:07Z</time>
      </trkpt>
      <trkpt lat="40.2799860" lon="-1.6412100">
        <ele>1553.4</ele>
        <time>2019-07-05T12:28:12Z</time>
      </trkpt>
      <trkpt lat="40.2800130" lon="-1.6412430">
        <ele>1553.6</ele>
        <time>2019-07-05T12:28:13Z</time>
      </trkpt>
      <trkpt lat="40.2802040" lon="-1.6414690">
        <ele>1553.6</ele>
        <time>2019-07-05T12:28:20Z</time>
      </trkpt>
      <trkpt lat="40.2803470" lon="-1.6416030">
        <ele>1554.4</ele>
        <time>2019-07-05T12:28:25Z</time>
      </trkpt>
      <trkpt lat="40.2803740" lon="-1.6416240">
        <ele>1554.6</ele>
        <time>2019-07-05T12:28:26Z</time>
      </trkpt>
      <trkpt lat="40.2805040" lon="-1.6417070">
        <ele>1555.4</ele>
        <time>2019-07-05T12:28:30Z</time>
      </trkpt>
      <trkpt lat="40.2805590" lon="-1.6417530">
        <ele>1555.8</ele>
        <time>2019-07-05T12:28:32Z</time>
      </trkpt>
      <trkpt lat="40.2806660" lon="-1.6418740">
        <ele>1556.6</ele>
        <time>2019-07-05T12:28:36Z</time>
      </trkpt>
      <trkpt lat="40.2807170" lon="-1.6419490">
        <ele>1557.0</ele>
        <time>2019-07-05T12:28:38Z</time>
      </trkpt>
      <trkpt lat="40.2808350" lon="-1.6421620">
        <ele>1557.2</ele>
        <time>2019-07-05T12:28:43Z</time>
      </trkpt>
      <trkpt lat="40.2808930" lon="-1.6422280">
        <ele>1557.6</ele>
        <time>2019-07-05T12:28:45Z</time>
      </trkpt>
      <trkpt lat="40.2809550" lon="-1.6423090">
        <ele>1558.2</ele>
        <time>2019-07-05T12:28:48Z</time>
      </trkpt>
      <trkpt lat="40.2810040" lon="-1.6424890">
        <ele>1558.2</ele>
        <time>2019-07-05T12:28:52Z</time>
      </trkpt>
      <trkpt lat="40.2810040" lon="-1.6425360">
        <ele>1558.0</ele>
        <time>2019-07-05T12:28:53Z</time>
      </trkpt>
      <trkpt lat="40.2809560" lon="-1.6427090">
        <ele>1557.4</ele>
        <time>2019-07-05T12:28:57Z</time>
      </trkpt>
      <trkpt lat="40.2809840" lon="-1.6427940">
        <ele>1557.0</ele>
        <time>2019-07-05T12:28:59Z</time>
      </trkpt>
      <trkpt lat="40.2810120" lon="-1.6428150">
        <ele>1557.0</ele>
        <time>2019-07-05T12:29:00Z</time>
      </trkpt>
      <trkpt lat="40.2810750" lon="-1.6428280">
        <ele>1556.6</ele>
        <time>2019-07-05T12:29:02Z</time>
      </trkpt>
      <trkpt lat="40.2811530" lon="-1.6428650">
        <ele>1557.2</ele>
        <time>2019-07-05T12:29:05Z</time>
      </trkpt>
      <trkpt lat="40.2812940" lon="-1.6429950">
        <ele>1557.6</ele>
        <time>2019-07-05T12:29:10Z</time>
      </trkpt>
      <trkpt lat="40.2813230" lon="-1.6430250">
        <ele>1557.8</ele>
        <time>2019-07-05T12:29:11Z</time>
      </trkpt>
      <trkpt lat="40.2815260" lon="-1.6431690">
        <ele>1558.4</ele>
        <time>2019-07-05T12:29:17Z</time>
      </trkpt>
      <trkpt lat="40.2815940" lon="-1.6432050">
        <ele>1558.6</ele>
        <time>2019-07-05T12:29:19Z</time>
      </trkpt>
      <trkpt lat="40.2816900" lon="-1.6432840">
        <ele>1559.0</ele>
        <time>2019-07-05T12:29:22Z</time>
      </trkpt>
      <trkpt lat="40.2817900" lon="-1.6434290">
        <ele>1559.8</ele>
        <time>2019-07-05T12:29:26Z</time>
      </trkpt>
      <trkpt lat="40.2818150" lon="-1.6434680">
        <ele>1560.0</ele>
        <time>2019-07-05T12:29:27Z</time>
      </trkpt>
      <trkpt lat="40.2819300" lon="-1.6436750">
        <ele>1560.0</ele>
        <time>2019-07-05T12:29:32Z</time>
      </trkpt>
      <trkpt lat="40.2820300" lon="-1.6438300">
        <ele>1560.4</ele>
        <time>2019-07-05T12:29:36Z</time>
      </trkpt>
      <trkpt lat="40.2821140" lon="-1.6439750">
        <ele>1560.6</ele>
        <time>2019-07-05T12:29:40Z</time>
      </trkpt>
      <trkpt lat="40.2822000" lon="-1.6440990">
        <ele>1560.4</ele>
        <time>2019-07-05T12:29:44Z</time>
      </trkpt>
      <trkpt lat="40.2822670" lon="-1.6442590">
        <ele>1560.2</ele>
        <time>2019-07-05T12:29:48Z</time>
      </trkpt>
      <trkpt lat="40.2824150" lon="-1.6445340">
        <ele>1560.8</ele>
        <time>2019-07-05T12:29:55Z</time>
      </trkpt>
      <trkpt lat="40.2824410" lon="-1.6445700">
        <ele>1560.8</ele>
        <time>2019-07-05T12:29:56Z</time>
      </trkpt>
      <trkpt lat="40.2826510" lon="-1.6448800">
        <ele>1561.8</ele>
        <time>2019-07-05T12:30:04Z</time>
      </trkpt>
      <trkpt lat="40.2829000" lon="-1.6451850">
        <ele>1562.4</ele>
        <time>2019-07-05T12:30:13Z</time>
      </trkpt>
      <trkpt lat="40.2829980" lon="-1.6453110">
        <ele>1562.8</ele>
        <time>2019-07-05T12:30:17Z</time>
      </trkpt>
      <trkpt lat="40.2830760" lon="-1.6454470">
        <ele>1563.6</ele>
        <time>2019-07-05T12:30:21Z</time>
      </trkpt>
      <trkpt lat="40.2831070" lon="-1.6455220">
        <ele>1564.0</ele>
        <time>2019-07-05T12:30:23Z</time>
      </trkpt>
      <trkpt lat="40.2831220" lon="-1.6455600">
        <ele>1564.0</ele>
        <time>2019-07-05T12:30:24Z</time>
      </trkpt>
      <trkpt lat="40.2832260" lon="-1.6457750">
        <ele>1565.0</ele>
        <time>2019-07-05T12:30:30Z</time>
      </trkpt>
      <trkpt lat="40.2833820" lon="-1.6459820">
        <ele>1565.8</ele>
        <time>2019-07-05T12:30:37Z</time>
      </trkpt>
      <trkpt lat="40.2834090" lon="-1.6460050">
        <ele>1566.0</ele>
        <time>2019-07-05T12:30:38Z</time>
      </trkpt>
      <trkpt lat="40.2834880" lon="-1.6460740">
        <ele>1567.0</ele>
        <time>2019-07-05T12:30:41Z</time>
      </trkpt>
      <trkpt lat="40.2835910" lon="-1.6461710">
        <ele>1568.0</ele>
        <time>2019-07-05T12:30:45Z</time>
      </trkpt>
      <trkpt lat="40.2836140" lon="-1.6462020">
        <ele>1568.0</ele>
        <time>2019-07-05T12:30:46Z</time>
      </trkpt>
      <trkpt lat="40.2837240" lon="-1.6463520">
        <ele>1569.4</ele>
        <time>2019-07-05T12:30:51Z</time>
      </trkpt>
      <trkpt lat="40.2838790" lon="-1.6465020">
        <ele>1570.4</ele>
        <time>2019-07-05T12:30:57Z</time>
      </trkpt>
      <trkpt lat="40.2839070" lon="-1.6465200">
        <ele>1570.6</ele>
        <time>2019-07-05T12:30:58Z</time>
      </trkpt>
      <trkpt lat="40.2840690" lon="-1.6466390">
        <ele>1571.6</ele>
        <time>2019-07-05T12:31:04Z</time>
      </trkpt>
      <trkpt lat="40.2842110" lon="-1.6467400">
        <ele>1572.8</ele>
        <time>2019-07-05T12:31:10Z</time>
      </trkpt>
      <trkpt lat="40.2843240" lon="-1.6467870">
        <ele>1573.6</ele>
        <time>2019-07-05T12:31:15Z</time>
      </trkpt>
      <trkpt lat="40.2843460" lon="-1.6468000">
        <ele>1573.8</ele>
        <time>2019-07-05T12:31:16Z</time>
      </trkpt>
      <trkpt lat="40.2844400" lon="-1.6468380">
        <ele>1575.0</ele>
        <time>2019-07-05T12:31:21Z</time>
      </trkpt>
      <trkpt lat="40.2845130" lon="-1.6468460">
        <ele>1576.0</ele>
        <time>2019-07-05T12:31:25Z</time>
      </trkpt>
      <trkpt lat="40.2845650" lon="-1.6468720">
        <ele>1576.2</ele>
        <time>2019-07-05T12:31:27Z</time>
      </trkpt>
      <trkpt lat="40.2846120" lon="-1.6469020">
        <ele>1577.0</ele>
        <time>2019-07-05T12:31:29Z</time>
      </trkpt>
      <trkpt lat="40.2846630" lon="-1.6469740">
        <ele>1578.0</ele>
        <time>2019-07-05T12:31:32Z</time>
      </trkpt>
      <trkpt lat="40.2847480" lon="-1.6470890">
        <ele>1579.0</ele>
        <time>2019-07-05T12:31:37Z</time>
      </trkpt>
      <trkpt lat="40.2847810" lon="-1.6471340">
        <ele>1579.6</ele>
        <time>2019-07-05T12:31:39Z</time>
      </trkpt>
      <trkpt lat="40.2847970" lon="-1.6471580">
        <ele>1580.2</ele>
        <time>2019-07-05T12:31:40Z</time>
      </trkpt>
      <trkpt lat="40.2848720" lon="-1.6472300">
        <ele>1581.4</ele>
        <time>2019-07-05T12:31:44Z</time>
      </trkpt>
      <trkpt lat="40.2849050" lon="-1.6472630">
        <ele>1582.0</ele>
        <time>2019-07-05T12:31:46Z</time>
      </trkpt>
      <trkpt lat="40.2849390" lon="-1.6473000">
        <ele>1582.6</ele>
        <time>2019-07-05T12:31:48Z</time>
      </trkpt>
      <trkpt lat="40.2850040" lon="-1.6473760">
        <ele>1583.6</ele>
        <time>2019-07-05T12:31:52Z</time>
      </trkpt>
      <trkpt lat="40.2850470" lon="-1.6474420">
        <ele>1584.8</ele>
        <time>2019-07-05T12:31:55Z</time>
      </trkpt>
      <trkpt lat="40.2851010" lon="-1.6474990">
        <ele>1585.4</ele>
        <time>2019-07-05T12:31:58Z</time>
      </trkpt>
      <trkpt lat="40.2851500" lon="-1.6475570">
        <ele>1585.6</ele>
        <time>2019-07-05T12:32:01Z</time>
      </trkpt>
      <trkpt lat="40.2852080" lon="-1.6476130">
        <ele>1585.8</ele>
        <time>2019-07-05T12:32:04Z</time>
      </trkpt>
      <trkpt lat="40.2853610" lon="-1.6477450">
        <ele>1586.6</ele>
        <time>2019-07-05T12:32:11Z</time>
      </trkpt>
      <trkpt lat="40.2855520" lon="-1.6478960">
        <ele>1586.6</ele>
        <time>2019-07-05T12:32:18Z</time>
      </trkpt>
      <trkpt lat="40.2855830" lon="-1.6479270">
        <ele>1586.4</ele>
        <time>2019-07-05T12:32:19Z</time>
      </trkpt>
      <trkpt lat="40.2857450" lon="-1.6480610">
        <ele>1586.0</ele>
        <time>2019-07-05T12:32:23Z</time>
      </trkpt>
      <trkpt lat="40.2857950" lon="-1.6480970">
        <ele>1585.0</ele>
        <time>2019-07-05T12:32:24Z</time>
      </trkpt>
      <trkpt lat="40.2858500" lon="-1.6481330">
        <ele>1584.6</ele>
        <time>2019-07-05T12:32:25Z</time>
      </trkpt>
      <trkpt lat="40.2861110" lon="-1.6483090">
        <ele>1583.0</ele>
        <time>2019-07-05T12:32:29Z</time>
      </trkpt>
      <trkpt lat="40.2861780" lon="-1.6483580">
        <ele>1581.8</ele>
        <time>2019-07-05T12:32:30Z</time>
      </trkpt>
      <trkpt lat="40.2862460" lon="-1.6484020">
        <ele>1580.8</ele>
        <time>2019-07-05T12:32:31Z</time>
      </trkpt>
      <trkpt lat="40.2863880" lon="-1.6484960">
        <ele>1579.6</ele>
        <time>2019-07-05T12:32:33Z</time>
      </trkpt>
      <trkpt lat="40.2864620" lon="-1.6485560">
        <ele>1578.8</ele>
        <time>2019-07-05T12:32:34Z</time>
      </trkpt>
      <trkpt lat="40.2865400" lon="-1.6486210">
        <ele>1578.2</ele>
        <time>2019-07-05T12:32:35Z</time>
      </trkpt>
      <trkpt lat="40.2866200" lon="-1.6486830">
        <ele>1577.4</ele>
        <time>2019-07-05T12:32:36Z</time>
      </trkpt>
      <trkpt lat="40.2867030" lon="-1.6487480">
        <ele>1576.4</ele>
        <time>2019-07-05T12:32:37Z</time>
      </trkpt>
      <trkpt lat="40.2868730" lon="-1.6489040">
        <ele>1574.6</ele>
        <time>2019-07-05T12:32:39Z</time>
      </trkpt>
      <trkpt lat="40.2870440" lon="-1.6490690">
        <ele>1573.6</ele>
        <time>2019-07-05T12:32:41Z</time>
      </trkpt>
      <trkpt lat="40.2872130" lon="-1.6492440">
        <ele>1572.4</ele>
        <time>2019-07-05T12:32:43Z</time>
      </trkpt>
      <trkpt lat="40.2873850" lon="-1.6494050">
        <ele>1570.6</ele>
        <time>2019-07-05T12:32:45Z</time>
      </trkpt>
      <trkpt lat="40.2875520" lon="-1.6495650">
        <ele>1569.0</ele>
        <time>2019-07-05T12:32:47Z</time>
      </trkpt>
      <trkpt lat="40.2878040" lon="-1.6497780">
        <ele>1568.0</ele>
        <time>2019-07-05T12:32:50Z</time>
      </trkpt>
      <trkpt lat="40.2878900" lon="-1.6498490">
        <ele>1567.6</ele>
        <time>2019-07-05T12:32:51Z</time>
      </trkpt>
      <trkpt lat="40.2881320" lon="-1.6500700">
        <ele>1566.0</ele>
        <time>2019-07-05T12:32:54Z</time>
      </trkpt>
      <trkpt lat="40.2882950" lon="-1.6502130">
        <ele>1564.6</ele>
        <time>2019-07-05T12:32:56Z</time>
      </trkpt>
      <trkpt lat="40.2885420" lon="-1.6504150">
        <ele>1563.2</ele>
        <time>2019-07-05T12:32:59Z</time>
      </trkpt>
      <trkpt lat="40.2886990" lon="-1.6505360">
        <ele>1562.0</ele>
        <time>2019-07-05T12:33:01Z</time>
      </trkpt>
      <trkpt lat="40.2889280" lon="-1.6507100">
        <ele>1560.8</ele>
        <time>2019-07-05T12:33:04Z</time>
      </trkpt>
      <trkpt lat="40.2890830" lon="-1.6508320">
        <ele>1559.2</ele>
        <time>2019-07-05T12:33:06Z</time>
      </trkpt>
      <trkpt lat="40.2891680" lon="-1.6508960">
        <ele>1558.6</ele>
        <time>2019-07-05T12:33:07Z</time>
      </trkpt>
      <trkpt lat="40.2892550" lon="-1.6509620">
        <ele>1557.8</ele>
        <time>2019-07-05T12:33:08Z</time>
      </trkpt>
      <trkpt lat="40.2894310" lon="-1.6511060">
        <ele>1556.8</ele>
        <time>2019-07-05T12:33:10Z</time>
      </trkpt>
      <trkpt lat="40.2895200" lon="-1.6511850">
        <ele>1555.2</ele>
        <time>2019-07-05T12:33:11Z</time>
      </trkpt>
      <trkpt lat="40.2896050" lon="-1.6512690">
        <ele>1554.6</ele>
        <time>2019-07-05T12:33:12Z</time>
      </trkpt>
      <trkpt lat="40.2896850" lon="-1.6513610">
        <ele>1554.2</ele>
        <time>2019-07-05T12:33:13Z</time>
      </trkpt>
      <trkpt lat="40.2899590" lon="-1.6517640">
        <ele>1553.0</ele>
        <time>2019-07-05T12:33:17Z</time>
      </trkpt>
      <trkpt lat="40.2900300" lon="-1.6518570">
        <ele>1552.4</ele>
        <time>2019-07-05T12:33:18Z</time>
      </trkpt>
      <trkpt lat="40.2901550" lon="-1.6520490">
        <ele>1551.8</ele>
        <time>2019-07-05T12:33:20Z</time>
      </trkpt>
      <trkpt lat="40.2902630" lon="-1.6522570">
        <ele>1550.8</ele>
        <time>2019-07-05T12:33:22Z</time>
      </trkpt>
      <trkpt lat="40.2903150" lon="-1.6523640">
        <ele>1550.4</ele>
        <time>2019-07-05T12:33:23Z</time>
      </trkpt>
      <trkpt lat="40.2904790" lon="-1.6526650">
        <ele>1549.2</ele>
        <time>2019-07-05T12:33:26Z</time>
      </trkpt>
      <trkpt lat="40.2905370" lon="-1.6527560">
        <ele>1548.6</ele>
        <time>2019-07-05T12:33:27Z</time>
      </trkpt>
      <trkpt lat="40.2907490" lon="-1.6530480">
        <ele>1548.4</ele>
        <time>2019-07-05T12:33:31Z</time>
      </trkpt>
      <trkpt lat="40.2908290" lon="-1.6531560">
        <ele>1548.6</ele>
        <time>2019-07-05T12:33:33Z</time>
      </trkpt>
      <trkpt lat="40.2908960" lon="-1.6532320">
        <ele>1549.2</ele>
        <time>2019-07-05T12:33:35Z</time>
      </trkpt>
      <trkpt lat="40.2909480" lon="-1.6533030">
        <ele>1549.6</ele>
        <time>2019-07-05T12:33:37Z</time>
      </trkpt>
      <trkpt lat="40.2909780" lon="-1.6533410">
        <ele>1549.8</ele>
        <time>2019-07-05T12:33:38Z</time>
      </trkpt>
      <trkpt lat="40.2910370" lon="-1.6534070">
        <ele>1550.0</ele>
        <time>2019-07-05T12:33:40Z</time>
      </trkpt>
      <trkpt lat="40.2910950" lon="-1.6534660">
        <ele>1550.8</ele>
        <time>2019-07-05T12:33:42Z</time>
      </trkpt>
      <trkpt lat="40.2911500" lon="-1.6535200">
        <ele>1551.2</ele>
        <time>2019-07-05T12:33:44Z</time>
      </trkpt>
      <trkpt lat="40.2911710" lon="-1.6535510">
        <ele>1551.6</ele>
        <time>2019-07-05T12:33:45Z</time>
      </trkpt>
      <trkpt lat="40.2912390" lon="-1.6536250">
        <ele>1552.6</ele>
        <time>2019-07-05T12:33:48Z</time>
      </trkpt>
      <trkpt lat="40.2912770" lon="-1.6536780">
        <ele>1552.8</ele>
        <time>2019-07-05T12:33:50Z</time>
      </trkpt>
      <trkpt lat="40.2913150" lon="-1.6537300">
        <ele>1553.6</ele>
        <time>2019-07-05T12:33:52Z</time>
      </trkpt>
      <trkpt lat="40.2913570" lon="-1.6537710">
        <ele>1554.4</ele>
        <time>2019-07-05T12:33:54Z</time>
      </trkpt>
      <trkpt lat="40.2913750" lon="-1.6537950">
        <ele>1554.8</ele>
        <time>2019-07-05T12:33:55Z</time>
      </trkpt>
      <trkpt lat="40.2914130" lon="-1.6538430">
        <ele>1555.2</ele>
        <time>2019-07-05T12:33:57Z</time>
      </trkpt>
      <trkpt lat="40.2914550" lon="-1.6538800">
        <ele>1555.8</ele>
        <time>2019-07-05T12:33:59Z</time>
      </trkpt>
      <trkpt lat="40.2915190" lon="-1.6539440">
        <ele>1557.0</ele>
        <time>2019-07-05T12:34:02Z</time>
      </trkpt>
      <trkpt lat="40.2915620" lon="-1.6539900">
        <ele>1557.6</ele>
        <time>2019-07-05T12:34:04Z</time>
      </trkpt>
      <trkpt lat="40.2916040" lon="-1.6540290">
        <ele>1558.2</ele>
        <time>2019-07-05T12:34:06Z</time>
      </trkpt>
      <trkpt lat="40.2916430" lon="-1.6540770">
        <ele>1559.2</ele>
        <time>2019-07-05T12:34:08Z</time>
      </trkpt>
      <trkpt lat="40.2917030" lon="-1.6541480">
        <ele>1559.8</ele>
        <time>2019-07-05T12:34:11Z</time>
      </trkpt>
      <trkpt lat="40.2917420" lon="-1.6541980">
        <ele>1560.2</ele>
        <time>2019-07-05T12:34:13Z</time>
      </trkpt>
      <trkpt lat="40.2918440" lon="-1.6543340">
        <ele>1561.0</ele>
        <time>2019-07-05T12:34:18Z</time>
      </trkpt>
      <trkpt lat="40.2918630" lon="-1.6543610">
        <ele>1561.4</ele>
        <time>2019-07-05T12:34:19Z</time>
      </trkpt>
      <trkpt lat="40.2919860" lon="-1.6545190">
        <ele>1562.6</ele>
        <time>2019-07-05T12:34:25Z</time>
      </trkpt>
      <trkpt lat="40.2920700" lon="-1.6546260">
        <ele>1562.8</ele>
        <time>2019-07-05T12:34:29Z</time>
      </trkpt>
      <trkpt lat="40.2922190" lon="-1.6548130">
        <ele>1563.2</ele>
        <time>2019-07-05T12:34:36Z</time>
      </trkpt>
      <trkpt lat="40.2922640" lon="-1.6548670">
        <ele>1563.8</ele>
        <time>2019-07-05T12:34:38Z</time>
      </trkpt>
      <trkpt lat="40.2923490" lon="-1.6549550">
        <ele>1564.8</ele>
        <time>2019-07-05T12:34:42Z</time>
      </trkpt>
      <trkpt lat="40.2924960" lon="-1.6551210">
        <ele>1565.6</ele>
        <time>2019-07-05T12:34:49Z</time>
      </trkpt>
      <trkpt lat="40.2926210" lon="-1.6552610">
        <ele>1565.8</ele>
        <time>2019-07-05T12:34:55Z</time>
      </trkpt>
      <trkpt lat="40.2926460" lon="-1.6552840">
        <ele>1566.4</ele>
        <time>2019-07-05T12:34:56Z</time>
      </trkpt>
      <trkpt lat="40.2927660" lon="-1.6554040">
        <ele>1567.0</ele>
        <time>2019-07-05T12:35:01Z</time>
      </trkpt>
      <trkpt lat="40.2929500" lon="-1.6556010">
        <ele>1567.0</ele>
        <time>2019-07-05T12:35:07Z</time>
      </trkpt>
      <trkpt lat="40.2931610" lon="-1.6558280">
        <ele>1566.4</ele>
        <time>2019-07-05T12:35:12Z</time>
      </trkpt>
      <trkpt lat="40.2932130" lon="-1.6558820">
        <ele>1565.8</ele>
        <time>2019-07-05T12:35:13Z</time>
      </trkpt>
      <trkpt lat="40.2932660" lon="-1.6559360">
        <ele>1565.4</ele>
        <time>2019-07-05T12:35:14Z</time>
      </trkpt>
      <trkpt lat="40.2934310" lon="-1.6561170">
        <ele>1564.0</ele>
        <time>2019-07-05T12:35:17Z</time>
      </trkpt>
      <trkpt lat="40.2935400" lon="-1.6562440">
        <ele>1562.6</ele>
        <time>2019-07-05T12:35:19Z</time>
      </trkpt>
      <trkpt lat="40.2936570" lon="-1.6563620">
        <ele>1561.8</ele>
        <time>2019-07-05T12:35:21Z</time>
      </trkpt>
      <trkpt lat="40.2937200" lon="-1.6564170">
        <ele>1561.2</ele>
        <time>2019-07-05T12:35:22Z</time>
      </trkpt>
      <trkpt lat="40.2937850" lon="-1.6564810">
        <ele>1560.6</ele>
        <time>2019-07-05T12:35:23Z</time>
      </trkpt>
      <trkpt lat="40.2938510" lon="-1.6565480">
        <ele>1559.8</ele>
        <time>2019-07-05T12:35:24Z</time>
      </trkpt>
      <trkpt lat="40.2939800" lon="-1.6566840">
        <ele>1558.6</ele>
        <time>2019-07-05T12:35:26Z</time>
      </trkpt>
      <trkpt lat="40.2940940" lon="-1.6568240">
        <ele>1557.2</ele>
        <time>2019-07-05T12:35:28Z</time>
      </trkpt>
      <trkpt lat="40.2941450" lon="-1.6568880">
        <ele>1556.2</ele>
        <time>2019-07-05T12:35:29Z</time>
      </trkpt>
      <trkpt lat="40.2941900" lon="-1.6569520">
        <ele>1555.6</ele>
        <time>2019-07-05T12:35:30Z</time>
      </trkpt>
      <trkpt lat="40.2942500" lon="-1.6571130">
        <ele>1555.0</ele>
        <time>2019-07-05T12:35:32Z</time>
      </trkpt>
      <trkpt lat="40.2942690" lon="-1.6572000">
        <ele>1554.2</ele>
        <time>2019-07-05T12:35:33Z</time>
      </trkpt>
      <trkpt lat="40.2942920" lon="-1.6572930">
        <ele>1554.0</ele>
        <time>2019-07-05T12:35:34Z</time>
      </trkpt>
      <trkpt lat="40.2943490" lon="-1.6574760">
        <ele>1554.0</ele>
        <time>2019-07-05T12:35:36Z</time>
      </trkpt>
      <trkpt lat="40.2943920" lon="-1.6575580">
        <ele>1553.8</ele>
        <time>2019-07-05T12:35:37Z</time>
      </trkpt>
      <trkpt lat="40.2944970" lon="-1.6577070">
        <ele>1552.8</ele>
        <time>2019-07-05T12:35:39Z</time>
      </trkpt>
      <trkpt lat="40.2946130" lon="-1.6578470">
        <ele>1552.2</ele>
        <time>2019-07-05T12:35:41Z</time>
      </trkpt>
      <trkpt lat="40.2946740" lon="-1.6579160">
        <ele>1551.2</ele>
        <time>2019-07-05T12:35:42Z</time>
      </trkpt>
      <trkpt lat="40.2948080" lon="-1.6580460">
        <ele>1550.0</ele>
        <time>2019-07-05T12:35:44Z</time>
      </trkpt>
      <trkpt lat="40.2949470" lon="-1.6581880">
        <ele>1549.6</ele>
        <time>2019-07-05T12:35:46Z</time>
      </trkpt>
      <trkpt lat="40.2951770" lon="-1.6584100">
        <ele>1548.8</ele>
        <time>2019-07-05T12:35:49Z</time>
      </trkpt>
      <trkpt lat="40.2954030" lon="-1.6586510">
        <ele>1546.8</ele>
        <time>2019-07-05T12:35:52Z</time>
      </trkpt>
      <trkpt lat="40.2955500" lon="-1.6588180">
        <ele>1545.6</ele>
        <time>2019-07-05T12:35:54Z</time>
      </trkpt>
      <trkpt lat="40.2956970" lon="-1.6589740">
        <ele>1544.6</ele>
        <time>2019-07-05T12:35:56Z</time>
      </trkpt>
      <trkpt lat="40.2959090" lon="-1.6592010">
        <ele>1543.6</ele>
        <time>2019-07-05T12:35:59Z</time>
      </trkpt>
      <trkpt lat="40.2959770" lon="-1.6592810">
        <ele>1543.2</ele>
        <time>2019-07-05T12:36:00Z</time>
      </trkpt>
      <trkpt lat="40.2961740" lon="-1.6595370">
        <ele>1542.0</ele>
        <time>2019-07-05T12:36:03Z</time>
      </trkpt>
      <trkpt lat="40.2962960" lon="-1.6597140">
        <ele>1541.4</ele>
        <time>2019-07-05T12:36:05Z</time>
      </trkpt>
      <trkpt lat="40.2964620" lon="-1.6599750">
        <ele>1540.8</ele>
        <time>2019-07-05T12:36:08Z</time>
      </trkpt>
      <trkpt lat="40.2966680" lon="-1.6602760">
        <ele>1540.0</ele>
        <time>2019-07-05T12:36:12Z</time>
      </trkpt>
      <trkpt lat="40.2967570" lon="-1.6603990">
        <ele>1540.4</ele>
        <time>2019-07-05T12:36:14Z</time>
      </trkpt>
      <trkpt lat="40.2968350" lon="-1.6605110">
        <ele>1540.8</ele>
        <time>2019-07-05T12:36:16Z</time>
      </trkpt>
      <trkpt lat="40.2968700" lon="-1.6605660">
        <ele>1540.8</ele>
        <time>2019-07-05T12:36:17Z</time>
      </trkpt>
      <trkpt lat="40.2969400" lon="-1.6606590">
        <ele>1541.0</ele>
        <time>2019-07-05T12:36:19Z</time>
      </trkpt>
      <trkpt lat="40.2970320" lon="-1.6607670">
        <ele>1541.4</ele>
        <time>2019-07-05T12:36:22Z</time>
      </trkpt>
      <trkpt lat="40.2970930" lon="-1.6608220">
        <ele>1542.6</ele>
        <time>2019-07-05T12:36:24Z</time>
      </trkpt>
      <trkpt lat="40.2971640" lon="-1.6609090">
        <ele>1543.0</ele>
        <time>2019-07-05T12:36:27Z</time>
      </trkpt>
      <trkpt lat="40.2971820" lon="-1.6609350">
        <ele>1543.0</ele>
        <time>2019-07-05T12:36:28Z</time>
      </trkpt>
      <trkpt lat="40.2972340" lon="-1.6610050">
        <ele>1543.8</ele>
        <time>2019-07-05T12:36:31Z</time>
      </trkpt>
      <trkpt lat="40.2973010" lon="-1.6610500">
        <ele>1545.2</ele>
        <time>2019-07-05T12:36:34Z</time>
      </trkpt>
      <trkpt lat="40.2973610" lon="-1.6610950">
        <ele>1546.4</ele>
        <time>2019-07-05T12:36:37Z</time>
      </trkpt>
      <trkpt lat="40.2974250" lon="-1.6611390">
        <ele>1547.6</ele>
        <time>2019-07-05T12:36:40Z</time>
      </trkpt>
      <trkpt lat="40.2974640" lon="-1.6611650">
        <ele>1548.2</ele>
        <time>2019-07-05T12:36:42Z</time>
      </trkpt>
      <trkpt lat="40.2975240" lon="-1.6612120">
        <ele>1548.8</ele>
        <time>2019-07-05T12:36:45Z</time>
      </trkpt>
      <trkpt lat="40.2975890" lon="-1.6612490">
        <ele>1549.6</ele>
        <time>2019-07-05T12:36:48Z</time>
      </trkpt>
      <trkpt lat="40.2976070" lon="-1.6612630">
        <ele>1549.8</ele>
        <time>2019-07-05T12:36:49Z</time>
      </trkpt>
      <trkpt lat="40.2976250" lon="-1.6612800">
        <ele>1550.2</ele>
        <time>2019-07-05T12:36:50Z</time>
      </trkpt>
      <trkpt lat="40.2977090" lon="-1.6613370">
        <ele>1551.2</ele>
        <time>2019-07-05T12:36:54Z</time>
      </trkpt>
      <trkpt lat="40.2977290" lon="-1.6613570">
        <ele>1551.6</ele>
        <time>2019-07-05T12:36:55Z</time>
      </trkpt>
      <trkpt lat="40.2978060" lon="-1.6614490">
        <ele>1551.8</ele>
        <time>2019-07-05T12:36:59Z</time>
      </trkpt>
      <trkpt lat="40.2978630" lon="-1.6615310">
        <ele>1552.4</ele>
        <time>2019-07-05T12:37:02Z</time>
      </trkpt>
      <trkpt lat="40.2978820" lon="-1.6615500">
        <ele>1552.6</ele>
        <time>2019-07-05T12:37:03Z</time>
      </trkpt>
      <trkpt lat="40.2979520" lon="-1.6616380">
        <ele>1553.4</ele>
        <time>2019-07-05T12:37:07Z</time>
      </trkpt>
      <trkpt lat="40.2980060" lon="-1.6617050">
        <ele>1554.0</ele>
        <time>2019-07-05T12:37:10Z</time>
      </trkpt>
      <trkpt lat="40.2980370" lon="-1.6617520">
        <ele>1554.6</ele>
        <time>2019-07-05T12:37:12Z</time>
      </trkpt>
      <trkpt lat="40.2981310" lon="-1.6618990">
        <ele>1555.8</ele>
        <time>2019-07-05T12:37:18Z</time>
      </trkpt>
      <trkpt lat="40.2981470" lon="-1.6619240">
        <ele>1556.2</ele>
        <time>2019-07-05T12:37:19Z</time>
      </trkpt>
      <trkpt lat="40.2982000" lon="-1.6619920">
        <ele>1556.8</ele>
        <time>2019-07-05T12:37:22Z</time>
      </trkpt>
      <trkpt lat="40.2982740" lon="-1.6620730">
        <ele>1557.4</ele>
        <time>2019-07-05T12:37:26Z</time>
      </trkpt>
      <trkpt lat="40.2983480" lon="-1.6621580">
        <ele>1558.0</ele>
        <time>2019-07-05T12:37:30Z</time>
      </trkpt>
      <trkpt lat="40.2984120" lon="-1.6622540">
        <ele>1558.6</ele>
        <time>2019-07-05T12:37:34Z</time>
      </trkpt>
      <trkpt lat="40.2984440" lon="-1.6622960">
        <ele>1559.0</ele>
        <time>2019-07-05T12:37:36Z</time>
      </trkpt>
      <trkpt lat="40.2985350" lon="-1.6623980">
        <ele>1560.2</ele>
        <time>2019-07-05T12:37:41Z</time>
      </trkpt>
      <trkpt lat="40.2985530" lon="-1.6624190">
        <ele>1560.4</ele>
        <time>2019-07-05T12:37:42Z</time>
      </trkpt>
      <trkpt lat="40.2986400" lon="-1.6625340">
        <ele>1560.8</ele>
        <time>2019-07-05T12:37:47Z</time>
      </trkpt>
      <trkpt lat="40.2986970" lon="-1.6626050">
        <ele>1561.6</ele>
        <time>2019-07-05T12:37:50Z</time>
      </trkpt>
      <trkpt lat="40.2987940" lon="-1.6627070">
        <ele>1562.4</ele>
        <time>2019-07-05T12:37:55Z</time>
      </trkpt>
      <trkpt lat="40.2988170" lon="-1.6627250">
        <ele>1562.6</ele>
        <time>2019-07-05T12:37:56Z</time>
      </trkpt>
      <trkpt lat="40.2989810" lon="-1.6628490">
        <ele>1563.6</ele>
        <time>2019-07-05T12:38:03Z</time>
      </trkpt>
      <trkpt lat="40.2990990" lon="-1.6629340">
        <ele>1564.8</ele>
        <time>2019-07-05T12:38:08Z</time>
      </trkpt>
      <trkpt lat="40.2991250" lon="-1.6629490">
        <ele>1565.0</ele>
        <time>2019-07-05T12:38:09Z</time>
      </trkpt>
      <trkpt lat="40.2992110" lon="-1.6630030">
        <ele>1566.0</ele>
        <time>2019-07-05T12:38:13Z</time>
      </trkpt>
      <trkpt lat="40.2992340" lon="-1.6630110">
        <ele>1566.0</ele>
        <time>2019-07-05T12:38:14Z</time>
      </trkpt>
      <trkpt lat="40.2993140" lon="-1.6630570">
        <ele>1567.2</ele>
        <time>2019-07-05T12:38:18Z</time>
      </trkpt>
      <trkpt lat="40.2993340" lon="-1.6630680">
        <ele>1567.4</ele>
        <time>2019-07-05T12:38:19Z</time>
      </trkpt>
      <trkpt lat="40.2994410" lon="-1.6631290">
        <ele>1568.2</ele>
        <time>2019-07-05T12:38:24Z</time>
      </trkpt>
      <trkpt lat="40.2994630" lon="-1.6631380">
        <ele>1568.4</ele>
        <time>2019-07-05T12:38:25Z</time>
      </trkpt>
      <trkpt lat="40.2995480" lon="-1.6631950">
        <ele>1569.0</ele>
        <time>2019-07-05T12:38:29Z</time>
      </trkpt>
      <trkpt lat="40.2995690" lon="-1.6632100">
        <ele>1569.2</ele>
        <time>2019-07-05T12:38:30Z</time>
      </trkpt>
      <trkpt lat="40.2996790" lon="-1.6632840">
        <ele>1570.2</ele>
        <time>2019-07-05T12:38:35Z</time>
      </trkpt>
      <trkpt lat="40.2997910" lon="-1.6633500">
        <ele>1571.4</ele>
        <time>2019-07-05T12:38:40Z</time>
      </trkpt>
      <trkpt lat="40.2998400" lon="-1.6633700">
        <ele>1572.0</ele>
        <time>2019-07-05T12:38:42Z</time>
      </trkpt>
      <trkpt lat="40.2998630" lon="-1.6633800">
        <ele>1572.4</ele>
        <time>2019-07-05T12:38:43Z</time>
      </trkpt>
      <trkpt lat="40.2999560" lon="-1.6634470">
        <ele>1573.2</ele>
        <time>2019-07-05T12:38:47Z</time>
      </trkpt>
      <trkpt lat="40.3000260" lon="-1.6634940">
        <ele>1573.8</ele>
        <time>2019-07-05T12:38:50Z</time>
      </trkpt>
      <trkpt lat="40.3000930" lon="-1.6635460">
        <ele>1574.2</ele>
        <time>2019-07-05T12:38:53Z</time>
      </trkpt>
      <trkpt lat="40.3001410" lon="-1.6635790">
        <ele>1574.6</ele>
        <time>2019-07-05T12:38:55Z</time>
      </trkpt>
      <trkpt lat="40.3002290" lon="-1.6636490">
        <ele>1575.2</ele>
        <time>2019-07-05T12:38:59Z</time>
      </trkpt>
      <trkpt lat="40.3002500" lon="-1.6636640">
        <ele>1575.4</ele>
        <time>2019-07-05T12:39:00Z</time>
      </trkpt>
      <trkpt lat="40.3003640" lon="-1.6637330">
        <ele>1576.6</ele>
        <time>2019-07-05T12:39:05Z</time>
      </trkpt>
      <trkpt lat="40.3003870" lon="-1.6637510">
        <ele>1576.6</ele>
        <time>2019-07-05T12:39:06Z</time>
      </trkpt>
      <trkpt lat="40.3005200" lon="-1.6638640">
        <ele>1577.8</ele>
        <time>2019-07-05T12:39:12Z</time>
      </trkpt>
      <trkpt lat="40.3005430" lon="-1.6638830">
        <ele>1578.0</ele>
        <time>2019-07-05T12:39:13Z</time>
      </trkpt>
      <trkpt lat="40.3006090" lon="-1.6639290">
        <ele>1579.2</ele>
        <time>2019-07-05T12:39:16Z</time>
      </trkpt>
      <trkpt lat="40.3006940" lon="-1.6639810">
        <ele>1580.2</ele>
        <time>2019-07-05T12:39:20Z</time>
      </trkpt>
      <trkpt lat="40.3007710" lon="-1.6640320">
        <ele>1581.4</ele>
        <time>2019-07-05T12:39:23Z</time>
      </trkpt>
      <trkpt lat="40.3008390" lon="-1.6640870">
        <ele>1582.4</ele>
        <time>2019-07-05T12:39:26Z</time>
      </trkpt>
      <trkpt lat="40.3008830" lon="-1.6641230">
        <ele>1583.6</ele>
        <time>2019-07-05T12:39:28Z</time>
      </trkpt>
      <trkpt lat="40.3009700" lon="-1.6641960">
        <ele>1584.6</ele>
        <time>2019-07-05T12:39:32Z</time>
      </trkpt>
      <trkpt lat="40.3010690" lon="-1.6642650">
        <ele>1585.6</ele>
        <time>2019-07-05T12:39:37Z</time>
      </trkpt>
      <trkpt lat="40.3010880" lon="-1.6642770">
        <ele>1586.0</ele>
        <time>2019-07-05T12:39:38Z</time>
      </trkpt>
      <trkpt lat="40.3011560" lon="-1.6643220">
        <ele>1586.8</ele>
        <time>2019-07-05T12:39:42Z</time>
      </trkpt>
      <trkpt lat="40.3011970" lon="-1.6643550">
        <ele>1587.4</ele>
        <time>2019-07-05T12:39:44Z</time>
      </trkpt>
      <trkpt lat="40.3012530" lon="-1.6644040">
        <ele>1587.8</ele>
        <time>2019-07-05T12:39:47Z</time>
      </trkpt>
      <trkpt lat="40.3013210" lon="-1.6644630">
        <ele>1588.2</ele>
        <time>2019-07-05T12:39:50Z</time>
      </trkpt>
      <trkpt lat="40.3014110" lon="-1.6645600">
        <ele>1588.6</ele>
        <time>2019-07-05T12:39:54Z</time>
      </trkpt>
      <trkpt lat="40.3014400" lon="-1.6645860">
        <ele>1588.8</ele>
        <time>2019-07-05T12:39:55Z</time>
      </trkpt>
      <trkpt lat="40.3015530" lon="-1.6647390">
        <ele>1590.0</ele>
        <time>2019-07-05T12:40:00Z</time>
      </trkpt>
      <trkpt lat="40.3017490" lon="-1.6649850">
        <ele>1590.2</ele>
        <time>2019-07-05T12:40:08Z</time>
      </trkpt>
      <trkpt lat="40.3018940" lon="-1.6652370">
        <ele>1589.4</ele>
        <time>2019-07-05T12:40:14Z</time>
      </trkpt>
      <trkpt lat="40.3019600" lon="-1.6653720">
        <ele>1588.6</ele>
        <time>2019-07-05T12:40:16Z</time>
      </trkpt>
      <trkpt lat="40.3020350" lon="-1.6655360">
        <ele>1587.8</ele>
        <time>2019-07-05T12:40:18Z</time>
      </trkpt>
      <trkpt lat="40.3020820" lon="-1.6656240">
        <ele>1587.4</ele>
        <time>2019-07-05T12:40:19Z</time>
      </trkpt>
      <trkpt lat="40.3021750" lon="-1.6658100">
        <ele>1585.8</ele>
        <time>2019-07-05T12:40:21Z</time>
      </trkpt>
      <trkpt lat="40.3022190" lon="-1.6659010">
        <ele>1585.2</ele>
        <time>2019-07-05T12:40:22Z</time>
      </trkpt>
      <trkpt lat="40.3022670" lon="-1.6659830">
        <ele>1584.4</ele>
        <time>2019-07-05T12:40:23Z</time>
      </trkpt>
      <trkpt lat="40.3023730" lon="-1.6661260">
        <ele>1583.4</ele>
        <time>2019-07-05T12:40:25Z</time>
      </trkpt>
      <trkpt lat="40.3024310" lon="-1.6661890">
        <ele>1582.8</ele>
        <time>2019-07-05T12:40:26Z</time>
      </trkpt>
      <trkpt lat="40.3024910" lon="-1.6662450">
        <ele>1582.4</ele>
        <time>2019-07-05T12:40:27Z</time>
      </trkpt>
      <trkpt lat="40.3025560" lon="-1.6662930">
        <ele>1581.4</ele>
        <time>2019-07-05T12:40:28Z</time>
      </trkpt>
      <trkpt lat="40.3026280" lon="-1.6663370">
        <ele>1580.4</ele>
        <time>2019-07-05T12:40:29Z</time>
      </trkpt>
      <trkpt lat="40.3027740" lon="-1.6664380">
        <ele>1578.6</ele>
        <time>2019-07-05T12:40:31Z</time>
      </trkpt>
      <trkpt lat="40.3028460" lon="-1.6664910">
        <ele>1577.6</ele>
        <time>2019-07-05T12:40:32Z</time>
      </trkpt>
      <trkpt lat="40.3029950" lon="-1.6665940">
        <ele>1575.8</ele>
        <time>2019-07-05T12:40:34Z</time>
      </trkpt>
      <trkpt lat="40.3031610" lon="-1.6666820">
        <ele>1574.4</ele>
        <time>2019-07-05T12:40:36Z</time>
      </trkpt>
      <trkpt lat="40.3033180" lon="-1.6667790">
        <ele>1572.8</ele>
        <time>2019-07-05T12:40:38Z</time>
      </trkpt>
      <trkpt lat="40.3033890" lon="-1.6668250">
        <ele>1571.6</ele>
        <time>2019-07-05T12:40:39Z</time>
      </trkpt>
      <trkpt lat="40.3034570" lon="-1.6668680">
        <ele>1570.6</ele>
        <time>2019-07-05T12:40:40Z</time>
      </trkpt>
      <trkpt lat="40.3035990" lon="-1.6669560">
        <ele>1569.2</ele>
        <time>2019-07-05T12:40:42Z</time>
      </trkpt>
      <trkpt lat="40.3037500" lon="-1.6670550">
        <ele>1567.2</ele>
        <time>2019-07-05T12:40:44Z</time>
      </trkpt>
      <trkpt lat="40.3038250" lon="-1.6671060">
        <ele>1566.2</ele>
        <time>2019-07-05T12:40:45Z</time>
      </trkpt>
      <trkpt lat="40.3038980" lon="-1.6671550">
        <ele>1565.6</ele>
        <time>2019-07-05T12:40:46Z</time>
      </trkpt>
      <trkpt lat="40.3039680" lon="-1.6672000">
        <ele>1565.2</ele>
        <time>2019-07-05T12:40:47Z</time>
      </trkpt>
      <trkpt lat="40.3040350" lon="-1.6672440">
        <ele>1564.0</ele>
        <time>2019-07-05T12:40:48Z</time>
      </trkpt>
      <trkpt lat="40.3041040" lon="-1.6672860">
        <ele>1563.0</ele>
        <time>2019-07-05T12:40:49Z</time>
      </trkpt>
      <trkpt lat="40.3041750" lon="-1.6673280">
        <ele>1562.0</ele>
        <time>2019-07-05T12:40:50Z</time>
      </trkpt>
      <trkpt lat="40.3042480" lon="-1.6673650">
        <ele>1560.8</ele>
        <time>2019-07-05T12:40:51Z</time>
      </trkpt>
      <trkpt lat="40.3043870" lon="-1.6674340">
        <ele>1558.8</ele>
        <time>2019-07-05T12:40:53Z</time>
      </trkpt>
      <trkpt lat="40.3044520" lon="-1.6674640">
        <ele>1557.2</ele>
        <time>2019-07-05T12:40:54Z</time>
      </trkpt>
      <trkpt lat="40.3045180" lon="-1.6674880">
        <ele>1556.0</ele>
        <time>2019-07-05T12:40:55Z</time>
      </trkpt>
      <trkpt lat="40.3045820" lon="-1.6675090">
        <ele>1554.6</ele>
        <time>2019-07-05T12:40:56Z</time>
      </trkpt>
      <trkpt lat="40.3046440" lon="-1.6675280">
        <ele>1553.0</ele>
        <time>2019-07-05T12:40:57Z</time>
      </trkpt>
      <trkpt lat="40.3047030" lon="-1.6675470">
        <ele>1552.0</ele>
        <time>2019-07-05T12:40:58Z</time>
      </trkpt>
      <trkpt lat="40.3047530" lon="-1.6675670">
        <ele>1550.8</ele>
        <time>2019-07-05T12:40:59Z</time>
      </trkpt>
      <trkpt lat="40.3047930" lon="-1.6675880">
        <ele>1550.2</ele>
        <time>2019-07-05T12:41:00Z</time>
      </trkpt>
      <trkpt lat="40.3048180" lon="-1.6676170">
        <ele>1549.6</ele>
        <time>2019-07-05T12:41:01Z</time>
      </trkpt>
      <trkpt lat="40.3048400" lon="-1.6676980">
        <ele>1548.2</ele>
        <time>2019-07-05T12:41:03Z</time>
      </trkpt>
      <trkpt lat="40.3048210" lon="-1.6677810">
        <ele>1547.0</ele>
        <time>2019-07-05T12:41:05Z</time>
      </trkpt>
      <trkpt lat="40.3047930" lon="-1.6678050">
        <ele>1546.6</ele>
        <time>2019-07-05T12:41:06Z</time>
      </trkpt>
      <trkpt lat="40.3046630" lon="-1.6678340">
        <ele>1545.8</ele>
        <time>2019-07-05T12:41:09Z</time>
      </trkpt>
      <trkpt lat="40.3046080" lon="-1.6678440">
        <ele>1545.6</ele>
        <time>2019-07-05T12:41:10Z</time>
      </trkpt>
      <trkpt lat="40.3044830" lon="-1.6678890">
        <ele>1544.6</ele>
        <time>2019-07-05T12:41:12Z</time>
      </trkpt>
      <trkpt lat="40.3044150" lon="-1.6679070">
        <ele>1544.0</ele>
        <time>2019-07-05T12:41:13Z</time>
      </trkpt>
      <trkpt lat="40.3043410" lon="-1.6679110">
        <ele>1543.6</ele>
        <time>2019-07-05T12:41:14Z</time>
      </trkpt>
      <trkpt lat="40.3042590" lon="-1.6679040">
        <ele>1543.0</ele>
        <time>2019-07-05T12:41:15Z</time>
      </trkpt>
      <trkpt lat="40.3041740" lon="-1.6678880">
        <ele>1542.8</ele>
        <time>2019-07-05T12:41:16Z</time>
      </trkpt>
      <trkpt lat="40.3040030" lon="-1.6678480">
        <ele>1541.6</ele>
        <time>2019-07-05T12:41:18Z</time>
      </trkpt>
      <trkpt lat="40.3038460" lon="-1.6678310">
        <ele>1540.0</ele>
        <time>2019-07-05T12:41:20Z</time>
      </trkpt>
      <trkpt lat="40.3037150" lon="-1.6678550">
        <ele>1539.0</ele>
        <time>2019-07-05T12:41:22Z</time>
      </trkpt>
      <trkpt lat="40.3036610" lon="-1.6678820">
        <ele>1538.8</ele>
        <time>2019-07-05T12:41:23Z</time>
      </trkpt>
      <trkpt lat="40.3035890" lon="-1.6679910">
        <ele>1538.2</ele>
        <time>2019-07-05T12:41:25Z</time>
      </trkpt>
      <trkpt lat="40.3035630" lon="-1.6681250">
        <ele>1537.2</ele>
        <time>2019-07-05T12:41:27Z</time>
      </trkpt>
      <trkpt lat="40.3035790" lon="-1.6681890">
        <ele>1536.8</ele>
        <time>2019-07-05T12:41:28Z</time>
      </trkpt>
      <trkpt lat="40.3036400" lon="-1.6683220">
        <ele>1535.8</ele>
        <time>2019-07-05T12:41:30Z</time>
      </trkpt>
      <trkpt lat="40.3037090" lon="-1.6684810">
        <ele>1535.2</ele>
        <time>2019-07-05T12:41:32Z</time>
      </trkpt>
      <trkpt lat="40.3037460" lon="-1.6685670">
        <ele>1534.4</ele>
        <time>2019-07-05T12:41:33Z</time>
      </trkpt>
      <trkpt lat="40.3038560" lon="-1.6688410">
        <ele>1532.6</ele>
        <time>2019-07-05T12:41:36Z</time>
      </trkpt>
      <trkpt lat="40.3038870" lon="-1.6689340">
        <ele>1531.8</ele>
        <time>2019-07-05T12:41:37Z</time>
      </trkpt>
      <trkpt lat="40.3039150" lon="-1.6690320">
        <ele>1531.2</ele>
        <time>2019-07-05T12:41:38Z</time>
      </trkpt>
      <trkpt lat="40.3039340" lon="-1.6691370">
        <ele>1530.6</ele>
        <time>2019-07-05T12:41:39Z</time>
      </trkpt>
      <trkpt lat="40.3039390" lon="-1.6692510">
        <ele>1530.0</ele>
        <time>2019-07-05T12:41:40Z</time>
      </trkpt>
      <trkpt lat="40.3039380" lon="-1.6693680">
        <ele>1529.0</ele>
        <time>2019-07-05T12:41:41Z</time>
      </trkpt>
      <trkpt lat="40.3039280" lon="-1.6695950">
        <ele>1527.4</ele>
        <time>2019-07-05T12:41:43Z</time>
      </trkpt>
      <trkpt lat="40.3039150" lon="-1.6698070">
        <ele>1525.8</ele>
        <time>2019-07-05T12:41:45Z</time>
      </trkpt>
      <trkpt lat="40.3039130" lon="-1.6699080">
        <ele>1524.2</ele>
        <time>2019-07-05T12:41:46Z</time>
      </trkpt>
      <trkpt lat="40.3039120" lon="-1.6700050">
        <ele>1523.4</ele>
        <time>2019-07-05T12:41:47Z</time>
      </trkpt>
      <trkpt lat="40.3039110" lon="-1.6700960">
        <ele>1522.8</ele>
        <time>2019-07-05T12:41:48Z</time>
      </trkpt>
      <trkpt lat="40.3039130" lon="-1.6701830">
        <ele>1522.2</ele>
        <time>2019-07-05T12:41:49Z</time>
      </trkpt>
      <trkpt lat="40.3039220" lon="-1.6702630">
        <ele>1521.4</ele>
        <time>2019-07-05T12:41:50Z</time>
      </trkpt>
      <trkpt lat="40.3039430" lon="-1.6703350">
        <ele>1521.0</ele>
        <time>2019-07-05T12:41:51Z</time>
      </trkpt>
      <trkpt lat="40.3040210" lon="-1.6704460">
        <ele>1520.4</ele>
        <time>2019-07-05T12:41:53Z</time>
      </trkpt>
      <trkpt lat="40.3040690" lon="-1.6704830">
        <ele>1520.2</ele>
        <time>2019-07-05T12:41:54Z</time>
      </trkpt>
      <trkpt lat="40.3042020" lon="-1.6705460">
        <ele>1520.4</ele>
        <time>2019-07-05T12:41:57Z</time>
      </trkpt>
      <trkpt lat="40.3042800" lon="-1.6705700">
        <ele>1520.6</ele>
        <time>2019-07-05T12:41:59Z</time>
      </trkpt>
      <trkpt lat="40.3043450" lon="-1.6705850">
        <ele>1521.2</ele>
        <time>2019-07-05T12:42:01Z</time>
      </trkpt>
      <trkpt lat="40.3044390" lon="-1.6706040">
        <ele>1521.8</ele>
        <time>2019-07-05T12:42:04Z</time>
      </trkpt>
      <trkpt lat="40.3044680" lon="-1.6706110">
        <ele>1521.8</ele>
        <time>2019-07-05T12:42:05Z</time>
      </trkpt>
      <trkpt lat="40.3045650" lon="-1.6706170">
        <ele>1522.4</ele>
        <time>2019-07-05T12:42:09Z</time>
      </trkpt>
      <trkpt lat="40.3045880" lon="-1.6706220">
        <ele>1522.6</ele>
        <time>2019-07-05T12:42:10Z</time>
      </trkpt>
      <trkpt lat="40.3046140" lon="-1.6706230">
        <ele>1523.0</ele>
        <time>2019-07-05T12:42:11Z</time>
      </trkpt>
      <trkpt lat="40.3047190" lon="-1.6706330">
        <ele>1523.8</ele>
        <time>2019-07-05T12:42:15Z</time>
      </trkpt>
      <trkpt lat="40.3047460" lon="-1.6706380">
        <ele>1524.2</ele>
        <time>2019-07-05T12:42:16Z</time>
      </trkpt>
      <trkpt lat="40.3048280" lon="-1.6706520">
        <ele>1524.8</ele>
        <time>2019-07-05T12:42:19Z</time>
      </trkpt>
      <trkpt lat="40.3048820" lon="-1.6706690">
        <ele>1525.2</ele>
        <time>2019-07-05T12:42:21Z</time>
      </trkpt>
      <trkpt lat="40.3049090" lon="-1.6706790">
        <ele>1525.4</ele>
        <time>2019-07-05T12:42:22Z</time>
      </trkpt>
      <trkpt lat="40.3049860" lon="-1.6707120">
        <ele>1525.8</ele>
        <time>2019-07-05T12:42:25Z</time>
      </trkpt>
      <trkpt lat="40.3050690" lon="-1.6707540">
        <ele>1526.2</ele>
        <time>2019-07-05T12:42:28Z</time>
      </trkpt>
      <trkpt lat="40.3050980" lon="-1.6707730">
        <ele>1526.4</ele>
        <time>2019-07-05T12:42:29Z</time>
      </trkpt>
      <trkpt lat="40.3052270" lon="-1.6708360">
        <ele>1527.0</ele>
        <time>2019-07-05T12:42:33Z</time>
      </trkpt>
      <trkpt lat="40.3053280" lon="-1.6708610">
        <ele>1527.2</ele>
        <time>2019-07-05T12:42:36Z</time>
      </trkpt>
      <trkpt lat="40.3055200" lon="-1.6708070">
        <ele>1527.8</ele>
        <time>2019-07-05T12:42:42Z</time>
      </trkpt>
      <trkpt lat="40.3056020" lon="-1.6706610">
        <ele>1527.8</ele>
        <time>2019-07-05T12:42:46Z</time>
      </trkpt>
      <trkpt lat="40.3056110" lon="-1.6705510">
        <ele>1528.2</ele>
        <time>2019-07-05T12:42:49Z</time>
      </trkpt>
      <trkpt lat="40.3056040" lon="-1.6704850">
        <ele>1528.8</ele>
        <time>2019-07-05T12:42:51Z</time>
      </trkpt>
      <trkpt lat="40.3055870" lon="-1.6704260">
        <ele>1529.4</ele>
        <time>2019-07-05T12:42:53Z</time>
      </trkpt>
      <trkpt lat="40.3055610" lon="-1.6703090">
        <ele>1530.4</ele>
        <time>2019-07-05T12:42:57Z</time>
      </trkpt>
      <trkpt lat="40.3055590" lon="-1.6702770">
        <ele>1530.6</ele>
        <time>2019-07-05T12:42:58Z</time>
      </trkpt>
      <trkpt lat="40.3055940" lon="-1.6701530">
        <ele>1531.6</ele>
        <time>2019-07-05T12:43:02Z</time>
      </trkpt>
      <trkpt lat="40.3056130" lon="-1.6701290">
        <ele>1531.8</ele>
        <time>2019-07-05T12:43:03Z</time>
      </trkpt>
      <trkpt lat="40.3057160" lon="-1.6700770">
        <ele>1532.8</ele>
        <time>2019-07-05T12:43:07Z</time>
      </trkpt>
      <trkpt lat="40.3057460" lon="-1.6700660">
        <ele>1533.2</ele>
        <time>2019-07-05T12:43:08Z</time>
      </trkpt>
      <trkpt lat="40.3059090" lon="-1.6699730">
        <ele>1533.4</ele>
        <time>2019-07-05T12:43:14Z</time>
      </trkpt>
      <trkpt lat="40.3060000" lon="-1.6698950">
        <ele>1534.0</ele>
        <time>2019-07-05T12:43:18Z</time>
      </trkpt>
      <trkpt lat="40.3060430" lon="-1.6698530">
        <ele>1534.6</ele>
        <time>2019-07-05T12:43:20Z</time>
      </trkpt>
      <trkpt lat="40.3061590" lon="-1.6697850">
        <ele>1535.0</ele>
        <time>2019-07-05T12:43:25Z</time>
      </trkpt>
      <trkpt lat="40.3061850" lon="-1.6697750">
        <ele>1535.2</ele>
        <time>2019-07-05T12:43:26Z</time>
      </trkpt>
      <trkpt lat="40.3062680" lon="-1.6697570">
        <ele>1536.0</ele>
        <time>2019-07-05T12:43:29Z</time>
      </trkpt>
      <trkpt lat="40.3063510" lon="-1.6697680">
        <ele>1536.2</ele>
        <time>2019-07-05T12:43:32Z</time>
      </trkpt>
      <trkpt lat="40.3064970" lon="-1.6698890">
        <ele>1536.8</ele>
        <time>2019-07-05T12:43:38Z</time>
      </trkpt>
      <trkpt lat="40.3065190" lon="-1.6699120">
        <ele>1537.0</ele>
        <time>2019-07-05T12:43:39Z</time>
      </trkpt>
      <trkpt lat="40.3067110" lon="-1.6701350">
        <ele>1537.8</ele>
        <time>2019-07-05T12:43:48Z</time>
      </trkpt>
      <trkpt lat="40.3067310" lon="-1.6701610">
        <ele>1538.0</ele>
        <time>2019-07-05T12:43:49Z</time>
      </trkpt>
      <trkpt lat="40.3068020" lon="-1.6702650">
        <ele>1539.2</ele>
        <time>2019-07-05T12:43:53Z</time>
      </trkpt>
      <trkpt lat="40.3068410" lon="-1.6703120">
        <ele>1539.4</ele>
        <time>2019-07-05T12:43:55Z</time>
      </trkpt>
      <trkpt lat="40.3069400" lon="-1.6704310">
        <ele>1540.2</ele>
        <time>2019-07-05T12:44:00Z</time>
      </trkpt>
      <trkpt lat="40.3069960" lon="-1.6705030">
        <ele>1540.6</ele>
        <time>2019-07-05T12:44:03Z</time>
      </trkpt>
      <trkpt lat="40.3070540" lon="-1.6705660">
        <ele>1541.2</ele>
        <time>2019-07-05T12:44:06Z</time>
      </trkpt>
      <trkpt lat="40.3071100" lon="-1.6706340">
        <ele>1542.2</ele>
        <time>2019-07-05T12:44:09Z</time>
      </trkpt>
      <trkpt lat="40.3071250" lon="-1.6706600">
        <ele>1542.4</ele>
        <time>2019-07-05T12:44:10Z</time>
      </trkpt>
      <trkpt lat="40.3071700" lon="-1.6707310">
        <ele>1543.4</ele>
        <time>2019-07-05T12:44:13Z</time>
      </trkpt>
      <trkpt lat="40.3072170" lon="-1.6707990">
        <ele>1543.6</ele>
        <time>2019-07-05T12:44:16Z</time>
      </trkpt>
      <trkpt lat="40.3072690" lon="-1.6708660">
        <ele>1544.6</ele>
        <time>2019-07-05T12:44:19Z</time>
      </trkpt>
      <trkpt lat="40.3073350" lon="-1.6709490">
        <ele>1545.6</ele>
        <time>2019-07-05T12:44:23Z</time>
      </trkpt>
      <trkpt lat="40.3073500" lon="-1.6709690">
        <ele>1546.0</ele>
        <time>2019-07-05T12:44:24Z</time>
      </trkpt>
      <trkpt lat="40.3073990" lon="-1.6710250">
        <ele>1547.0</ele>
        <time>2019-07-05T12:44:27Z</time>
      </trkpt>
      <trkpt lat="40.3074390" lon="-1.6710770">
        <ele>1547.4</ele>
        <time>2019-07-05T12:44:30Z</time>
      </trkpt>
      <trkpt lat="40.3074820" lon="-1.6711290">
        <ele>1548.4</ele>
        <time>2019-07-05T12:44:33Z</time>
      </trkpt>
      <trkpt lat="40.3075420" lon="-1.6712100">
        <ele>1549.4</ele>
        <time>2019-07-05T12:44:37Z</time>
      </trkpt>
      <trkpt lat="40.3075600" lon="-1.6712290">
        <ele>1549.6</ele>
        <time>2019-07-05T12:44:38Z</time>
      </trkpt>
      <trkpt lat="40.3076130" lon="-1.6713200">
        <ele>1550.4</ele>
        <time>2019-07-05T12:44:42Z</time>
      </trkpt>
      <trkpt lat="40.3076410" lon="-1.6713590">
        <ele>1550.8</ele>
        <time>2019-07-05T12:44:44Z</time>
      </trkpt>
      <trkpt lat="40.3076870" lon="-1.6714500">
        <ele>1551.8</ele>
        <time>2019-07-05T12:44:48Z</time>
      </trkpt>
      <trkpt lat="40.3076990" lon="-1.6714760">
        <ele>1552.2</ele>
        <time>2019-07-05T12:44:49Z</time>
      </trkpt>
      <trkpt lat="40.3077350" lon="-1.6715620">
        <ele>1553.0</ele>
        <time>2019-07-05T12:44:52Z</time>
      </trkpt>
      <trkpt lat="40.3077820" lon="-1.6716650">
        <ele>1554.2</ele>
        <time>2019-07-05T12:44:56Z</time>
      </trkpt>
      <trkpt lat="40.3077930" lon="-1.6716930">
        <ele>1554.6</ele>
        <time>2019-07-05T12:44:57Z</time>
      </trkpt>
      <trkpt lat="40.3078310" lon="-1.6717760">
        <ele>1555.2</ele>
        <time>2019-07-05T12:45:00Z</time>
      </trkpt>
      <trkpt lat="40.3078820" lon="-1.6719080">
        <ele>1556.4</ele>
        <time>2019-07-05T12:45:05Z</time>
      </trkpt>
      <trkpt lat="40.3079410" lon="-1.6720210">
        <ele>1557.4</ele>
        <time>2019-07-05T12:45:10Z</time>
      </trkpt>
      <trkpt lat="40.3079510" lon="-1.6720430">
        <ele>1557.6</ele>
        <time>2019-07-05T12:45:11Z</time>
      </trkpt>
      <trkpt lat="40.3079840" lon="-1.6721130">
        <ele>1558.6</ele>
        <time>2019-07-05T12:45:14Z</time>
      </trkpt>
      <trkpt lat="40.3080180" lon="-1.6721880">
        <ele>1559.4</ele>
        <time>2019-07-05T12:45:17Z</time>
      </trkpt>
      <trkpt lat="40.3080290" lon="-1.6722130">
        <ele>1559.8</ele>
        <time>2019-07-05T12:45:18Z</time>
      </trkpt>
      <trkpt lat="40.3080980" lon="-1.6723210">
        <ele>1560.8</ele>
        <time>2019-07-05T12:45:23Z</time>
      </trkpt>
      <trkpt lat="40.3081290" lon="-1.6723600">
        <ele>1561.2</ele>
        <time>2019-07-05T12:45:25Z</time>
      </trkpt>
      <trkpt lat="40.3081690" lon="-1.6724250">
        <ele>1562.2</ele>
        <time>2019-07-05T12:45:28Z</time>
      </trkpt>
      <trkpt lat="40.3082380" lon="-1.6725360">
        <ele>1563.2</ele>
        <time>2019-07-05T12:45:33Z</time>
      </trkpt>
      <trkpt lat="40.3082530" lon="-1.6725550">
        <ele>1563.4</ele>
        <time>2019-07-05T12:45:34Z</time>
      </trkpt>
      <trkpt lat="40.3083190" lon="-1.6726600">
        <ele>1564.2</ele>
        <time>2019-07-05T12:45:39Z</time>
      </trkpt>
      <trkpt lat="40.3083330" lon="-1.6726800">
        <ele>1564.4</ele>
        <time>2019-07-05T12:45:40Z</time>
      </trkpt>
      <trkpt lat="40.3084020" lon="-1.6727800">
        <ele>1565.4</ele>
        <time>2019-07-05T12:45:45Z</time>
      </trkpt>
      <trkpt lat="40.3084150" lon="-1.6727990">
        <ele>1565.6</ele>
        <time>2019-07-05T12:45:46Z</time>
      </trkpt>
      <trkpt lat="40.3084520" lon="-1.6728580">
        <ele>1566.6</ele>
        <time>2019-07-05T12:45:49Z</time>
      </trkpt>
      <trkpt lat="40.3084930" lon="-1.6729240">
        <ele>1567.4</ele>
        <time>2019-07-05T12:45:52Z</time>
      </trkpt>
      <trkpt lat="40.3085050" lon="-1.6729480">
        <ele>1567.8</ele>
        <time>2019-07-05T12:45:53Z</time>
      </trkpt>
      <trkpt lat="40.3085590" lon="-1.6730300">
        <ele>1568.8</ele>
        <time>2019-07-05T12:45:57Z</time>
      </trkpt>
      <trkpt lat="40.3085670" lon="-1.6730520">
        <ele>1569.2</ele>
        <time>2019-07-05T12:45:58Z</time>
      </trkpt>
      <trkpt lat="40.3086160" lon="-1.6731320">
        <ele>1570.0</ele>
        <time>2019-07-05T12:46:02Z</time>
      </trkpt>
      <trkpt lat="40.3086380" lon="-1.6731720">
        <ele>1570.8</ele>
        <time>2019-07-05T12:46:04Z</time>
      </trkpt>
      <trkpt lat="40.3086490" lon="-1.6731910">
        <ele>1571.0</ele>
        <time>2019-07-05T12:46:05Z</time>
      </trkpt>
      <trkpt lat="40.3086720" lon="-1.6732320">
        <ele>1571.6</ele>
        <time>2019-07-05T12:46:07Z</time>
      </trkpt>
      <trkpt lat="40.3086830" lon="-1.6732560">
        <ele>1572.0</ele>
        <time>2019-07-05T12:46:08Z</time>
      </trkpt>
      <trkpt lat="40.3087080" lon="-1.6732930">
        <ele>1572.6</ele>
        <time>2019-07-05T12:46:10Z</time>
      </trkpt>
      <trkpt lat="40.3087310" lon="-1.6733270">
        <ele>1573.2</ele>
        <time>2019-07-05T12:46:12Z</time>
      </trkpt>
      <trkpt lat="40.3087730" lon="-1.6734070">
        <ele>1574.0</ele>
        <time>2019-07-05T12:46:16Z</time>
      </trkpt>
      <trkpt lat="40.3087840" lon="-1.6734270">
        <ele>1574.2</ele>
        <time>2019-07-05T12:46:17Z</time>
      </trkpt>
      <trkpt lat="40.3088330" lon="-1.6735080">
        <ele>1575.2</ele>
        <time>2019-07-05T12:46:21Z</time>
      </trkpt>
      <trkpt lat="40.3088730" lon="-1.6735780">
        <ele>1576.2</ele>
        <time>2019-07-05T12:46:25Z</time>
      </trkpt>
      <trkpt lat="40.3088960" lon="-1.6736200">
        <ele>1576.8</ele>
        <time>2019-07-05T12:46:27Z</time>
      </trkpt>
      <trkpt lat="40.3089350" lon="-1.6736670">
        <ele>1577.4</ele>
        <time>2019-07-05T12:46:30Z</time>
      </trkpt>
      <trkpt lat="40.3089430" lon="-1.6736840">
        <ele>1577.6</ele>
        <time>2019-07-05T12:46:31Z</time>
      </trkpt>
      <trkpt lat="40.3089500" lon="-1.6737030">
        <ele>1577.6</ele>
        <time>2019-07-05T12:46:32Z</time>
      </trkpt>
      <trkpt lat="40.3089670" lon="-1.6737440">
        <ele>1578.4</ele>
        <time>2019-07-05T12:46:34Z</time>
      </trkpt>
      <trkpt lat="40.3089800" lon="-1.6737640">
        <ele>1578.6</ele>
        <time>2019-07-05T12:46:35Z</time>
      </trkpt>
      <trkpt lat="40.3090290" lon="-1.6738470">
        <ele>1579.2</ele>
        <time>2019-07-05T12:46:39Z</time>
      </trkpt>
      <trkpt lat="40.3090550" lon="-1.6738880">
        <ele>1579.6</ele>
        <time>2019-07-05T12:46:41Z</time>
      </trkpt>
      <trkpt lat="40.3091050" lon="-1.6740010">
        <ele>1580.6</ele>
        <time>2019-07-05T12:46:45Z</time>
      </trkpt>
      <trkpt lat="40.3091160" lon="-1.6740320">
        <ele>1580.8</ele>
        <time>2019-07-05T12:46:46Z</time>
      </trkpt>
      <trkpt lat="40.3091560" lon="-1.6741170">
        <ele>1581.8</ele>
        <time>2019-07-05T12:46:49Z</time>
      </trkpt>
      <trkpt lat="40.3092080" lon="-1.6742200">
        <ele>1582.6</ele>
        <time>2019-07-05T12:46:53Z</time>
      </trkpt>
      <trkpt lat="40.3092600" lon="-1.6743560">
        <ele>1583.6</ele>
        <time>2019-07-05T12:46:58Z</time>
      </trkpt>
      <trkpt lat="40.3092670" lon="-1.6743790">
        <ele>1583.8</ele>
        <time>2019-07-05T12:46:59Z</time>
      </trkpt>
      <trkpt lat="40.3092990" lon="-1.6744720">
        <ele>1585.0</ele>
        <time>2019-07-05T12:47:03Z</time>
      </trkpt>
      <trkpt lat="40.3093120" lon="-1.6745160">
        <ele>1585.2</ele>
        <time>2019-07-05T12:47:05Z</time>
      </trkpt>
      <trkpt lat="40.3093320" lon="-1.6745830">
        <ele>1585.8</ele>
        <time>2019-07-05T12:47:08Z</time>
      </trkpt>
      <trkpt lat="40.3093560" lon="-1.6746450">
        <ele>1586.6</ele>
        <time>2019-07-05T12:47:11Z</time>
      </trkpt>
      <trkpt lat="40.3093610" lon="-1.6746710">
        <ele>1587.0</ele>
        <time>2019-07-05T12:47:12Z</time>
      </trkpt>
      <trkpt lat="40.3093970" lon="-1.6747590">
        <ele>1588.2</ele>
        <time>2019-07-05T12:47:16Z</time>
      </trkpt>
      <trkpt lat="40.3094120" lon="-1.6748100">
        <ele>1588.4</ele>
        <time>2019-07-05T12:47:18Z</time>
      </trkpt>
      <trkpt lat="40.3094480" lon="-1.6749250">
        <ele>1589.2</ele>
        <time>2019-07-05T12:47:23Z</time>
      </trkpt>
      <trkpt lat="40.3094580" lon="-1.6749470">
        <ele>1589.6</ele>
        <time>2019-07-05T12:47:24Z</time>
      </trkpt>
      <trkpt lat="40.3094840" lon="-1.6750150">
        <ele>1590.4</ele>
        <time>2019-07-05T12:47:27Z</time>
      </trkpt>
      <trkpt lat="40.3095150" lon="-1.6750870">
        <ele>1591.0</ele>
        <time>2019-07-05T12:47:30Z</time>
      </trkpt>
      <trkpt lat="40.3095400" lon="-1.6751380">
        <ele>1591.4</ele>
        <time>2019-07-05T12:47:32Z</time>
      </trkpt>
      <trkpt lat="40.3096230" lon="-1.6751870">
        <ele>1592.6</ele>
        <time>2019-07-05T12:47:36Z</time>
      </trkpt>
      <trkpt lat="40.3097290" lon="-1.6751270">
        <ele>1593.2</ele>
        <time>2019-07-05T12:47:41Z</time>
      </trkpt>
      <trkpt lat="40.3097740" lon="-1.6750070">
        <ele>1593.6</ele>
        <time>2019-07-05T12:47:45Z</time>
      </trkpt>
      <trkpt lat="40.3097880" lon="-1.6749380">
        <ele>1594.0</ele>
        <time>2019-07-05T12:47:47Z</time>
      </trkpt>
      <trkpt lat="40.3098030" lon="-1.6748620">
        <ele>1594.8</ele>
        <time>2019-07-05T12:47:49Z</time>
      </trkpt>
      <trkpt lat="40.3098150" lon="-1.6747120">
        <ele>1595.4</ele>
        <time>2019-07-05T12:47:53Z</time>
      </trkpt>
      <trkpt lat="40.3097900" lon="-1.6745190">
        <ele>1595.6</ele>
        <time>2019-07-05T12:47:58Z</time>
      </trkpt>
      <trkpt lat="40.3097310" lon="-1.6742520">
        <ele>1595.6</ele>
        <time>2019-07-05T12:48:04Z</time>
      </trkpt>
      <trkpt lat="40.3096140" lon="-1.6738480">
        <ele>1595.2</ele>
        <time>2019-07-05T12:48:12Z</time>
      </trkpt>
      <trkpt lat="40.3095840" lon="-1.6737480">
        <ele>1595.6</ele>
        <time>2019-07-05T12:48:14Z</time>
      </trkpt>
      <trkpt lat="40.3095440" lon="-1.6735580">
        <ele>1596.6</ele>
        <time>2019-07-05T12:48:18Z</time>
      </trkpt>
      <trkpt lat="40.3095190" lon="-1.6734730">
        <ele>1596.8</ele>
        <time>2019-07-05T12:48:20Z</time>
      </trkpt>
      <trkpt lat="40.3094690" lon="-1.6733120">
        <ele>1596.6</ele>
        <time>2019-07-05T12:48:24Z</time>
      </trkpt>
      <trkpt lat="40.3094560" lon="-1.6732700">
        <ele>1596.6</ele>
        <time>2019-07-05T12:48:25Z</time>
      </trkpt>
      <trkpt lat="40.3093820" lon="-1.6730480">
        <ele>1597.2</ele>
        <time>2019-07-05T12:48:30Z</time>
      </trkpt>
      <trkpt lat="40.3093390" lon="-1.6729130">
        <ele>1597.6</ele>
        <time>2019-07-05T12:48:33Z</time>
      </trkpt>
      <trkpt lat="40.3093140" lon="-1.6728200">
        <ele>1597.8</ele>
        <time>2019-07-05T12:48:35Z</time>
      </trkpt>
      <trkpt lat="40.3092520" lon="-1.6725980">
        <ele>1598.6</ele>
        <time>2019-07-05T12:48:40Z</time>
      </trkpt>
      <trkpt lat="40.3092380" lon="-1.6725570">
        <ele>1598.8</ele>
        <time>2019-07-05T12:48:41Z</time>
      </trkpt>
      <trkpt lat="40.3091650" lon="-1.6723040">
        <ele>1600.0</ele>
        <time>2019-07-05T12:48:47Z</time>
      </trkpt>
      <trkpt lat="40.3090830" lon="-1.6719910">
        <ele>1600.8</ele>
        <time>2019-07-05T12:48:53Z</time>
      </trkpt>
      <trkpt lat="40.3089680" lon="-1.6715780">
        <ele>1599.8</ele>
        <time>2019-07-05T12:48:59Z</time>
      </trkpt>
      <trkpt lat="40.3089280" lon="-1.6714100">
        <ele>1599.0</ele>
        <time>2019-07-05T12:49:01Z</time>
      </trkpt>
      <trkpt lat="40.3088700" lon="-1.6711400">
        <ele>1598.0</ele>
        <time>2019-07-05T12:49:04Z</time>
      </trkpt>
      <trkpt lat="40.3088510" lon="-1.6710500">
        <ele>1597.6</ele>
        <time>2019-07-05T12:49:05Z</time>
      </trkpt>
      <trkpt lat="40.3088020" lon="-1.6707930">
        <ele>1597.2</ele>
        <time>2019-07-05T12:49:08Z</time>
      </trkpt>
      <trkpt lat="40.3087850" lon="-1.6706410">
        <ele>1597.2</ele>
        <time>2019-07-05T12:49:10Z</time>
      </trkpt>
      <trkpt lat="40.3087860" lon="-1.6705720">
        <ele>1597.2</ele>
        <time>2019-07-05T12:49:11Z</time>
      </trkpt>
      <trkpt lat="40.3088500" lon="-1.6703690">
        <ele>1598.0</ele>
        <time>2019-07-05T12:49:15Z</time>
      </trkpt>
      <trkpt lat="40.3089620" lon="-1.6703270">
        <ele>1598.4</ele>
        <time>2019-07-05T12:49:18Z</time>
      </trkpt>
      <trkpt lat="40.3091020" lon="-1.6704590">
        <ele>1599.2</ele>
        <time>2019-07-05T12:49:22Z</time>
      </trkpt>
      <trkpt lat="40.3091320" lon="-1.6705090">
        <ele>1599.4</ele>
        <time>2019-07-05T12:49:23Z</time>
      </trkpt>
      <trkpt lat="40.3092590" lon="-1.6707320">
        <ele>1599.2</ele>
        <time>2019-07-05T12:49:27Z</time>
      </trkpt>
      <trkpt lat="40.3093210" lon="-1.6708540">
        <ele>1599.0</ele>
        <time>2019-07-05T12:49:29Z</time>
      </trkpt>
      <trkpt lat="40.3095540" lon="-1.6713270">
        <ele>1598.4</ele>
        <time>2019-07-05T12:49:36Z</time>
      </trkpt>
      <trkpt lat="40.3095920" lon="-1.6714000">
        <ele>1598.2</ele>
        <time>2019-07-05T12:49:37Z</time>
      </trkpt>
      <trkpt lat="40.3097410" lon="-1.6716980">
        <ele>1597.2</ele>
        <time>2019-07-05T12:49:41Z</time>
      </trkpt>
      <trkpt lat="40.3098080" lon="-1.6718330">
        <ele>1597.0</ele>
        <time>2019-07-05T12:49:43Z</time>
      </trkpt>
      <trkpt lat="40.3099680" lon="-1.6721730">
        <ele>1597.2</ele>
        <time>2019-07-05T12:49:49Z</time>
      </trkpt>
      <trkpt lat="40.3100340" lon="-1.6723320">
        <ele>1597.2</ele>
        <time>2019-07-05T12:49:52Z</time>
      </trkpt>
      <trkpt lat="40.3101090" lon="-1.6724790">
        <ele>1598.0</ele>
        <time>2019-07-05T12:49:55Z</time>
      </trkpt>
      <trkpt lat="40.3101350" lon="-1.6725300">
        <ele>1598.4</ele>
        <time>2019-07-05T12:49:56Z</time>
      </trkpt>
      <trkpt lat="40.3102350" lon="-1.6727310">
        <ele>1598.8</ele>
        <time>2019-07-05T12:50:00Z</time>
      </trkpt>
      <trkpt lat="40.3102580" lon="-1.6727840">
        <ele>1598.8</ele>
        <time>2019-07-05T12:50:01Z</time>
      </trkpt>
      <trkpt lat="40.3103600" lon="-1.6729920">
        <ele>1598.6</ele>
        <time>2019-07-05T12:50:05Z</time>
      </trkpt>
      <trkpt lat="40.3104120" lon="-1.6731070">
        <ele>1598.6</ele>
        <time>2019-07-05T12:50:07Z</time>
      </trkpt>
      <trkpt lat="40.3106100" lon="-1.6735230">
        <ele>1598.6</ele>
        <time>2019-07-05T12:50:14Z</time>
      </trkpt>
      <trkpt lat="40.3107550" lon="-1.6738210">
        <ele>1597.2</ele>
        <time>2019-07-05T12:50:18Z</time>
      </trkpt>
      <trkpt lat="40.3108000" lon="-1.6739010">
        <ele>1597.0</ele>
        <time>2019-07-05T12:50:19Z</time>
      </trkpt>
      <trkpt lat="40.3109030" lon="-1.6740630">
        <ele>1596.0</ele>
        <time>2019-07-05T12:50:21Z</time>
      </trkpt>
      <trkpt lat="40.3109590" lon="-1.6741440">
        <ele>1595.4</ele>
        <time>2019-07-05T12:50:22Z</time>
      </trkpt>
      <trkpt lat="40.3110180" lon="-1.6742250">
        <ele>1594.8</ele>
        <time>2019-07-05T12:50:23Z</time>
      </trkpt>
      <trkpt lat="40.3111310" lon="-1.6743980">
        <ele>1593.4</ele>
        <time>2019-07-05T12:50:25Z</time>
      </trkpt>
      <trkpt lat="40.3113680" lon="-1.6747410">
        <ele>1592.4</ele>
        <time>2019-07-05T12:50:29Z</time>
      </trkpt>
      <trkpt lat="40.3115530" lon="-1.6749980">
        <ele>1591.6</ele>
        <time>2019-07-05T12:50:32Z</time>
      </trkpt>
      <trkpt lat="40.3116130" lon="-1.6750870">
        <ele>1591.0</ele>
        <time>2019-07-05T12:50:33Z</time>
      </trkpt>
      <trkpt lat="40.3116730" lon="-1.6751790">
        <ele>1589.8</ele>
        <time>2019-07-05T12:50:34Z</time>
      </trkpt>
      <trkpt lat="40.3117310" lon="-1.6752730">
        <ele>1589.2</ele>
        <time>2019-07-05T12:50:35Z</time>
      </trkpt>
      <trkpt lat="40.3118380" lon="-1.6754640">
        <ele>1588.6</ele>
        <time>2019-07-05T12:50:37Z</time>
      </trkpt>
      <trkpt lat="40.3119380" lon="-1.6756450">
        <ele>1587.6</ele>
        <time>2019-07-05T12:50:39Z</time>
      </trkpt>
      <trkpt lat="40.3120430" lon="-1.6758110">
        <ele>1586.8</ele>
        <time>2019-07-05T12:50:41Z</time>
      </trkpt>
      <trkpt lat="40.3120970" lon="-1.6758900">
        <ele>1586.4</ele>
        <time>2019-07-05T12:50:42Z</time>
      </trkpt>
      <trkpt lat="40.3122090" lon="-1.6760370">
        <ele>1585.2</ele>
        <time>2019-07-05T12:50:44Z</time>
      </trkpt>
      <trkpt lat="40.3123750" lon="-1.6762510">
        <ele>1583.8</ele>
        <time>2019-07-05T12:50:47Z</time>
      </trkpt>
      <trkpt lat="40.3124300" lon="-1.6763230">
        <ele>1582.6</ele>
        <time>2019-07-05T12:50:48Z</time>
      </trkpt>
      <trkpt lat="40.3125330" lon="-1.6764610">
        <ele>1581.0</ele>
        <time>2019-07-05T12:50:50Z</time>
      </trkpt>
      <trkpt lat="40.3126380" lon="-1.6765960">
        <ele>1579.6</ele>
        <time>2019-07-05T12:50:52Z</time>
      </trkpt>
      <trkpt lat="40.3128000" lon="-1.6768190">
        <ele>1578.2</ele>
        <time>2019-07-05T12:50:55Z</time>
      </trkpt>
      <trkpt lat="40.3128530" lon="-1.6769030">
        <ele>1577.6</ele>
        <time>2019-07-05T12:50:56Z</time>
      </trkpt>
      <trkpt lat="40.3129050" lon="-1.6769960">
        <ele>1577.0</ele>
        <time>2019-07-05T12:50:57Z</time>
      </trkpt>
      <trkpt lat="40.3129590" lon="-1.6770930">
        <ele>1576.0</ele>
        <time>2019-07-05T12:50:58Z</time>
      </trkpt>
      <trkpt lat="40.3130140" lon="-1.6771930">
        <ele>1575.2</ele>
        <time>2019-07-05T12:50:59Z</time>
      </trkpt>
      <trkpt lat="40.3131310" lon="-1.6773990">
        <ele>1574.0</ele>
        <time>2019-07-05T12:51:01Z</time>
      </trkpt>
      <trkpt lat="40.3132660" lon="-1.6776040">
        <ele>1572.4</ele>
        <time>2019-07-05T12:51:03Z</time>
      </trkpt>
      <trkpt lat="40.3134050" lon="-1.6778080">
        <ele>1571.0</ele>
        <time>2019-07-05T12:51:05Z</time>
      </trkpt>
      <trkpt lat="40.3135360" lon="-1.6779860">
        <ele>1569.4</ele>
        <time>2019-07-05T12:51:07Z</time>
      </trkpt>
      <trkpt lat="40.3135970" lon="-1.6780680">
        <ele>1568.6</ele>
        <time>2019-07-05T12:51:08Z</time>
      </trkpt>
      <trkpt lat="40.3136560" lon="-1.6781470">
        <ele>1567.8</ele>
        <time>2019-07-05T12:51:09Z</time>
      </trkpt>
      <trkpt lat="40.3137620" lon="-1.6783170">
        <ele>1566.8</ele>
        <time>2019-07-05T12:51:11Z</time>
      </trkpt>
      <trkpt lat="40.3138600" lon="-1.6785110">
        <ele>1565.8</ele>
        <time>2019-07-05T12:51:13Z</time>
      </trkpt>
      <trkpt lat="40.3139500" lon="-1.6787150">
        <ele>1564.8</ele>
        <time>2019-07-05T12:51:15Z</time>
      </trkpt>
      <trkpt lat="40.3140590" lon="-1.6789960">
        <ele>1564.4</ele>
        <time>2019-07-05T12:51:18Z</time>
      </trkpt>
      <trkpt lat="40.3142350" lon="-1.6792310">
        <ele>1563.6</ele>
        <time>2019-07-05T12:51:22Z</time>
      </trkpt>
      <trkpt lat="40.3142840" lon="-1.6792640">
        <ele>1563.8</ele>
        <time>2019-07-05T12:51:23Z</time>
      </trkpt>
      <trkpt lat="40.3143750" lon="-1.6793270">
        <ele>1564.0</ele>
        <time>2019-07-05T12:51:25Z</time>
      </trkpt>
      <trkpt lat="40.3144560" lon="-1.6793770">
        <ele>1564.0</ele>
        <time>2019-07-05T12:51:27Z</time>
      </trkpt>
      <trkpt lat="40.3144910" lon="-1.6793990">
        <ele>1564.2</ele>
        <time>2019-07-05T12:51:28Z</time>
      </trkpt>
      <trkpt lat="40.3145920" lon="-1.6794630">
        <ele>1564.6</ele>
        <time>2019-07-05T12:51:31Z</time>
      </trkpt>
      <trkpt lat="40.3146220" lon="-1.6794880">
        <ele>1564.6</ele>
        <time>2019-07-05T12:51:32Z</time>
      </trkpt>
      <trkpt lat="40.3147100" lon="-1.6795590">
        <ele>1565.2</ele>
        <time>2019-07-05T12:51:35Z</time>
      </trkpt>
      <trkpt lat="40.3147880" lon="-1.6796380">
        <ele>1565.8</ele>
        <time>2019-07-05T12:51:38Z</time>
      </trkpt>
      <trkpt lat="40.3148430" lon="-1.6797050">
        <ele>1566.0</ele>
        <time>2019-07-05T12:51:40Z</time>
      </trkpt>
      <trkpt lat="40.3149540" lon="-1.6798880">
        <ele>1566.0</ele>
        <time>2019-07-05T12:51:44Z</time>
      </trkpt>
      <trkpt lat="40.3150170" lon="-1.6799890">
        <ele>1566.2</ele>
        <time>2019-07-05T12:51:46Z</time>
      </trkpt>
      <trkpt lat="40.3150500" lon="-1.6800440">
        <ele>1566.4</ele>
        <time>2019-07-05T12:51:47Z</time>
      </trkpt>
      <trkpt lat="40.3152350" lon="-1.6804370">
        <ele>1565.4</ele>
        <time>2019-07-05T12:51:53Z</time>
      </trkpt>
      <trkpt lat="40.3153290" lon="-1.6806490">
        <ele>1565.0</ele>
        <time>2019-07-05T12:51:56Z</time>
      </trkpt>
      <trkpt lat="40.3154270" lon="-1.6808480">
        <ele>1564.8</ele>
        <time>2019-07-05T12:51:59Z</time>
      </trkpt>
      <trkpt lat="40.3155530" lon="-1.6810490">
        <ele>1565.4</ele>
        <time>2019-07-05T12:52:03Z</time>
      </trkpt>
      <trkpt lat="40.3155820" lon="-1.6810890">
        <ele>1565.8</ele>
        <time>2019-07-05T12:52:04Z</time>
      </trkpt>
      <trkpt lat="40.3156080" lon="-1.6811290">
        <ele>1566.0</ele>
        <time>2019-07-05T12:52:05Z</time>
      </trkpt>
      <trkpt lat="40.3157380" lon="-1.6813250">
        <ele>1566.8</ele>
        <time>2019-07-05T12:52:10Z</time>
      </trkpt>
      <trkpt lat="40.3157940" lon="-1.6813980">
        <ele>1567.0</ele>
        <time>2019-07-05T12:52:12Z</time>
      </trkpt>
      <trkpt lat="40.3159060" lon="-1.6815640">
        <ele>1567.2</ele>
        <time>2019-07-05T12:52:16Z</time>
      </trkpt>
      <trkpt lat="40.3159620" lon="-1.6816580">
        <ele>1567.6</ele>
        <time>2019-07-05T12:52:18Z</time>
      </trkpt>
      <trkpt lat="40.3160440" lon="-1.6818040">
        <ele>1567.8</ele>
        <time>2019-07-05T12:52:21Z</time>
      </trkpt>
      <trkpt lat="40.3161250" lon="-1.6819570">
        <ele>1567.6</ele>
        <time>2019-07-05T12:52:24Z</time>
      </trkpt>
      <trkpt lat="40.3161900" lon="-1.6821220">
        <ele>1567.6</ele>
        <time>2019-07-05T12:52:27Z</time>
      </trkpt>
      <trkpt lat="40.3162690" lon="-1.6823430">
        <ele>1567.6</ele>
        <time>2019-07-05T12:52:31Z</time>
      </trkpt>
      <trkpt lat="40.3163000" lon="-1.6824730">
        <ele>1567.6</ele>
        <time>2019-07-05T12:52:33Z</time>
      </trkpt>
      <trkpt lat="40.3163250" lon="-1.6826090">
        <ele>1567.6</ele>
        <time>2019-07-05T12:52:35Z</time>
      </trkpt>
      <trkpt lat="40.3163540" lon="-1.6829250">
        <ele>1567.4</ele>
        <time>2019-07-05T12:52:39Z</time>
      </trkpt>
      <trkpt lat="40.3163650" lon="-1.6833790">
        <ele>1566.2</ele>
        <time>2019-07-05T12:52:44Z</time>
      </trkpt>
      <trkpt lat="40.3163700" lon="-1.6834720">
        <ele>1566.0</ele>
        <time>2019-07-05T12:52:45Z</time>
      </trkpt>
      <trkpt lat="40.3163920" lon="-1.6836500">
        <ele>1565.6</ele>
        <time>2019-07-05T12:52:47Z</time>
      </trkpt>
      <trkpt lat="40.3164340" lon="-1.6837910">
        <ele>1565.4</ele>
        <time>2019-07-05T12:52:49Z</time>
      </trkpt>
      <trkpt lat="40.3164840" lon="-1.6838980">
        <ele>1566.0</ele>
        <time>2019-07-05T12:52:51Z</time>
      </trkpt>
      <trkpt lat="40.3165400" lon="-1.6839740">
        <ele>1566.4</ele>
        <time>2019-07-05T12:52:53Z</time>
      </trkpt>
      <trkpt lat="40.3166300" lon="-1.6840840">
        <ele>1567.4</ele>
        <time>2019-07-05T12:52:57Z</time>
      </trkpt>
      <trkpt lat="40.3166520" lon="-1.6841010">
        <ele>1567.6</ele>
        <time>2019-07-05T12:52:58Z</time>
      </trkpt>
      <trkpt lat="40.3167210" lon="-1.6841480">
        <ele>1568.4</ele>
        <time>2019-07-05T12:53:01Z</time>
      </trkpt>
      <trkpt lat="40.3167830" lon="-1.6841990">
        <ele>1569.4</ele>
        <time>2019-07-05T12:53:04Z</time>
      </trkpt>
      <trkpt lat="40.3168040" lon="-1.6842190">
        <ele>1569.8</ele>
        <time>2019-07-05T12:53:05Z</time>
      </trkpt>
      <trkpt lat="40.3168610" lon="-1.6842950">
        <ele>1570.8</ele>
        <time>2019-07-05T12:53:08Z</time>
      </trkpt>
      <trkpt lat="40.3168800" lon="-1.6843220">
        <ele>1571.2</ele>
        <time>2019-07-05T12:53:09Z</time>
      </trkpt>
      <trkpt lat="40.3169170" lon="-1.6843830">
        <ele>1571.8</ele>
        <time>2019-07-05T12:53:11Z</time>
      </trkpt>
      <trkpt lat="40.3169690" lon="-1.6844890">
        <ele>1572.0</ele>
        <time>2019-07-05T12:53:14Z</time>
      </trkpt>
      <trkpt lat="40.3169990" lon="-1.6845650">
        <ele>1572.0</ele>
        <time>2019-07-05T12:53:16Z</time>
      </trkpt>
      <trkpt lat="40.3170940" lon="-1.6847860">
        <ele>1572.2</ele>
        <time>2019-07-05T12:53:21Z</time>
      </trkpt>
      <trkpt lat="40.3171650" lon="-1.6850060">
        <ele>1572.0</ele>
        <time>2019-07-05T12:53:25Z</time>
      </trkpt>
      <trkpt lat="40.3172070" lon="-1.6851230">
        <ele>1572.0</ele>
        <time>2019-07-05T12:53:27Z</time>
      </trkpt>
      <trkpt lat="40.3173100" lon="-1.6853900">
        <ele>1572.8</ele>
        <time>2019-07-05T12:53:32Z</time>
      </trkpt>
      <trkpt lat="40.3173330" lon="-1.6854370">
        <ele>1573.0</ele>
        <time>2019-07-05T12:53:33Z</time>
      </trkpt>
      <trkpt lat="40.3173520" lon="-1.6854820">
        <ele>1573.0</ele>
        <time>2019-07-05T12:53:34Z</time>
      </trkpt>
      <trkpt lat="40.3174030" lon="-1.6857000">
        <ele>1573.6</ele>
        <time>2019-07-05T12:53:39Z</time>
      </trkpt>
      <trkpt lat="40.3174060" lon="-1.6857440">
        <ele>1573.8</ele>
        <time>2019-07-05T12:53:40Z</time>
      </trkpt>
      <trkpt lat="40.3174040" lon="-1.6858350">
        <ele>1574.0</ele>
        <time>2019-07-05T12:53:42Z</time>
      </trkpt>
      <trkpt lat="40.3173700" lon="-1.6860400">
        <ele>1574.6</ele>
        <time>2019-07-05T12:53:46Z</time>
      </trkpt>
      <trkpt lat="40.3172480" lon="-1.6863810">
        <ele>1574.2</ele>
        <time>2019-07-05T12:53:52Z</time>
      </trkpt>
      <trkpt lat="40.3172040" lon="-1.6865100">
        <ele>1574.0</ele>
        <time>2019-07-05T12:53:54Z</time>
      </trkpt>
      <trkpt lat="40.3171990" lon="-1.6866460">
        <ele>1573.8</ele>
        <time>2019-07-05T12:53:56Z</time>
      </trkpt>
      <trkpt lat="40.3172640" lon="-1.6868070">
        <ele>1573.8</ele>
        <time>2019-07-05T12:53:59Z</time>
      </trkpt>
      <trkpt lat="40.3173220" lon="-1.6869010">
        <ele>1573.8</ele>
        <time>2019-07-05T12:54:01Z</time>
      </trkpt>
      <trkpt lat="40.3174220" lon="-1.6870220">
        <ele>1574.0</ele>
        <time>2019-07-05T12:54:04Z</time>
      </trkpt>
      <trkpt lat="40.3174570" lon="-1.6870550">
        <ele>1574.2</ele>
        <time>2019-07-05T12:54:05Z</time>
      </trkpt>
      <trkpt lat="40.3175680" lon="-1.6871410">
        <ele>1574.4</ele>
        <time>2019-07-05T12:54:08Z</time>
      </trkpt>
      <trkpt lat="40.3176850" lon="-1.6872060">
        <ele>1574.4</ele>
        <time>2019-07-05T12:54:11Z</time>
      </trkpt>
      <trkpt lat="40.3177610" lon="-1.6872590">
        <ele>1575.0</ele>
        <time>2019-07-05T12:54:13Z</time>
      </trkpt>
      <trkpt lat="40.3179010" lon="-1.6873970">
        <ele>1575.4</ele>
        <time>2019-07-05T12:54:17Z</time>
      </trkpt>
      <trkpt lat="40.3179380" lon="-1.6874430">
        <ele>1575.4</ele>
        <time>2019-07-05T12:54:18Z</time>
      </trkpt>
      <trkpt lat="40.3179750" lon="-1.6874940">
        <ele>1575.4</ele>
        <time>2019-07-05T12:54:19Z</time>
      </trkpt>
      <trkpt lat="40.3181210" lon="-1.6877230">
        <ele>1574.6</ele>
        <time>2019-07-05T12:54:23Z</time>
      </trkpt>
      <trkpt lat="40.3181870" lon="-1.6878560">
        <ele>1574.0</ele>
        <time>2019-07-05T12:54:25Z</time>
      </trkpt>
      <trkpt lat="40.3182180" lon="-1.6879320">
        <ele>1573.8</ele>
        <time>2019-07-05T12:54:26Z</time>
      </trkpt>
      <trkpt lat="40.3182820" lon="-1.6880930">
        <ele>1572.8</ele>
        <time>2019-07-05T12:54:28Z</time>
      </trkpt>
      <trkpt lat="40.3183140" lon="-1.6881770">
        <ele>1572.4</ele>
        <time>2019-07-05T12:54:29Z</time>
      </trkpt>
      <trkpt lat="40.3183840" lon="-1.6883550">
        <ele>1571.2</ele>
        <time>2019-07-05T12:54:31Z</time>
      </trkpt>
      <trkpt lat="40.3184690" lon="-1.6885200">
        <ele>1570.6</ele>
        <time>2019-07-05T12:54:33Z</time>
      </trkpt>
      <trkpt lat="40.3186170" lon="-1.6887820">
        <ele>1570.0</ele>
        <time>2019-07-05T12:54:37Z</time>
      </trkpt>
      <trkpt lat="40.3187430" lon="-1.6890400">
        <ele>1570.2</ele>
        <time>2019-07-05T12:54:42Z</time>
      </trkpt>
      <trkpt lat="40.3187650" lon="-1.6890880">
        <ele>1570.4</ele>
        <time>2019-07-05T12:54:43Z</time>
      </trkpt>
      <trkpt lat="40.3188550" lon="-1.6892530">
        <ele>1571.0</ele>
        <time>2019-07-05T12:54:47Z</time>
      </trkpt>
      <trkpt lat="40.3189630" lon="-1.6894490">
        <ele>1571.8</ele>
        <time>2019-07-05T12:54:52Z</time>
      </trkpt>
      <trkpt lat="40.3190140" lon="-1.6895160">
        <ele>1572.0</ele>
        <time>2019-07-05T12:54:54Z</time>
      </trkpt>
      <trkpt lat="40.3190380" lon="-1.6895490">
        <ele>1572.4</ele>
        <time>2019-07-05T12:54:55Z</time>
      </trkpt>
      <trkpt lat="40.3191210" lon="-1.6896670">
        <ele>1572.8</ele>
        <time>2019-07-05T12:54:59Z</time>
      </trkpt>
      <trkpt lat="40.3191650" lon="-1.6897250">
        <ele>1573.6</ele>
        <time>2019-07-05T12:55:01Z</time>
      </trkpt>
      <trkpt lat="40.3192530" lon="-1.6898000">
        <ele>1574.6</ele>
        <time>2019-07-05T12:55:04Z</time>
      </trkpt>
      <trkpt lat="40.3192850" lon="-1.6898330">
        <ele>1574.6</ele>
        <time>2019-07-05T12:55:05Z</time>
      </trkpt>
      <trkpt lat="40.3194140" lon="-1.6900000">
        <ele>1574.6</ele>
        <time>2019-07-05T12:55:09Z</time>
      </trkpt>
      <trkpt lat="40.3194560" lon="-1.6900460">
        <ele>1574.6</ele>
        <time>2019-07-05T12:55:10Z</time>
      </trkpt>
      <trkpt lat="40.3196970" lon="-1.6903190">
        <ele>1573.4</ele>
        <time>2019-07-05T12:55:15Z</time>
      </trkpt>
      <trkpt lat="40.3197520" lon="-1.6903760">
        <ele>1573.0</ele>
        <time>2019-07-05T12:55:16Z</time>
      </trkpt>
      <trkpt lat="40.3198630" lon="-1.6904900">
        <ele>1571.6</ele>
        <time>2019-07-05T12:55:18Z</time>
      </trkpt>
      <trkpt lat="40.3199820" lon="-1.6906120">
        <ele>1570.6</ele>
        <time>2019-07-05T12:55:20Z</time>
      </trkpt>
      <trkpt lat="40.3200460" lon="-1.6906730">
        <ele>1570.0</ele>
        <time>2019-07-05T12:55:21Z</time>
      </trkpt>
      <trkpt lat="40.3201100" lon="-1.6907380">
        <ele>1569.2</ele>
        <time>2019-07-05T12:55:22Z</time>
      </trkpt>
      <trkpt lat="40.3202340" lon="-1.6908710">
        <ele>1567.8</ele>
        <time>2019-07-05T12:55:24Z</time>
      </trkpt>
      <trkpt lat="40.3203610" lon="-1.6910000">
        <ele>1566.4</ele>
        <time>2019-07-05T12:55:26Z</time>
      </trkpt>
      <trkpt lat="40.3204220" lon="-1.6910740">
        <ele>1565.2</ele>
        <time>2019-07-05T12:55:27Z</time>
      </trkpt>
      <trkpt lat="40.3205470" lon="-1.6912280">
        <ele>1563.8</ele>
        <time>2019-07-05T12:55:29Z</time>
      </trkpt>
      <trkpt lat="40.3206730" lon="-1.6913770">
        <ele>1562.4</ele>
        <time>2019-07-05T12:55:31Z</time>
      </trkpt>
      <trkpt lat="40.3207870" lon="-1.6915060">
        <ele>1561.4</ele>
        <time>2019-07-05T12:55:33Z</time>
      </trkpt>
      <trkpt lat="40.3208310" lon="-1.6915610">
        <ele>1560.8</ele>
        <time>2019-07-05T12:55:34Z</time>
      </trkpt>
      <trkpt lat="40.3208620" lon="-1.6916080">
        <ele>1560.2</ele>
        <time>2019-07-05T12:55:35Z</time>
      </trkpt>
      <trkpt lat="40.3208960" lon="-1.6916920">
        <ele>1559.4</ele>
        <time>2019-07-05T12:55:37Z</time>
      </trkpt>
      <trkpt lat="40.3208970" lon="-1.6917290">
        <ele>1559.2</ele>
        <time>2019-07-05T12:55:38Z</time>
      </trkpt>
      <trkpt lat="40.3208650" lon="-1.6917870">
        <ele>1559.0</ele>
        <time>2019-07-05T12:55:40Z</time>
      </trkpt>
      <trkpt lat="40.3208060" lon="-1.6918450">
        <ele>1558.8</ele>
        <time>2019-07-05T12:55:42Z</time>
      </trkpt>
      <trkpt lat="40.3206850" lon="-1.6919440">
        <ele>1558.8</ele>
        <time>2019-07-05T12:55:45Z</time>
      </trkpt>
      <trkpt lat="40.3206470" lon="-1.6919870">
        <ele>1558.8</ele>
        <time>2019-07-05T12:55:46Z</time>
      </trkpt>
      <trkpt lat="40.3205870" lon="-1.6920940">
        <ele>1558.4</ele>
        <time>2019-07-05T12:55:48Z</time>
      </trkpt>
      <trkpt lat="40.3205620" lon="-1.6921550">
        <ele>1558.0</ele>
        <time>2019-07-05T12:55:49Z</time>
      </trkpt>
      <trkpt lat="40.3204960" lon="-1.6923450">
        <ele>1557.6</ele>
        <time>2019-07-05T12:55:52Z</time>
      </trkpt>
      <trkpt lat="40.3204780" lon="-1.6924080">
        <ele>1557.2</ele>
        <time>2019-07-05T12:55:53Z</time>
      </trkpt>
      <trkpt lat="40.3204200" lon="-1.6926060">
        <ele>1556.8</ele>
        <time>2019-07-05T12:55:56Z</time>
      </trkpt>
      <trkpt lat="40.3204080" lon="-1.6926740">
        <ele>1556.6</ele>
        <time>2019-07-05T12:55:57Z</time>
      </trkpt>
      <trkpt lat="40.3204060" lon="-1.6928080">
        <ele>1556.2</ele>
        <time>2019-07-05T12:55:59Z</time>
      </trkpt>
      <trkpt lat="40.3204190" lon="-1.6928740">
        <ele>1556.0</ele>
        <time>2019-07-05T12:56:00Z</time>
      </trkpt>
      <trkpt lat="40.3204360" lon="-1.6931330">
        <ele>1555.2</ele>
        <time>2019-07-05T12:56:04Z</time>
      </trkpt>
      <trkpt lat="40.3203760" lon="-1.6933220">
        <ele>1555.2</ele>
        <time>2019-07-05T12:56:07Z</time>
      </trkpt>
      <trkpt lat="40.3203380" lon="-1.6934520">
        <ele>1555.0</ele>
        <time>2019-07-05T12:56:09Z</time>
      </trkpt>
      <trkpt lat="40.3201710" lon="-1.6939080">
        <ele>1554.2</ele>
        <time>2019-07-05T12:56:16Z</time>
      </trkpt>
      <trkpt lat="40.3201470" lon="-1.6939760">
        <ele>1554.0</ele>
        <time>2019-07-05T12:56:17Z</time>
      </trkpt>
      <trkpt lat="40.3200410" lon="-1.6942550">
        <ele>1553.0</ele>
        <time>2019-07-05T12:56:21Z</time>
      </trkpt>
      <trkpt lat="40.3199920" lon="-1.6943990">
        <ele>1552.4</ele>
        <time>2019-07-05T12:56:23Z</time>
      </trkpt>
      <trkpt lat="40.3199420" lon="-1.6945430">
        <ele>1551.8</ele>
        <time>2019-07-05T12:56:25Z</time>
      </trkpt>
      <trkpt lat="40.3198720" lon="-1.6947620">
        <ele>1551.0</ele>
        <time>2019-07-05T12:56:28Z</time>
      </trkpt>
      <trkpt lat="40.3198200" lon="-1.6949050">
        <ele>1550.8</ele>
        <time>2019-07-05T12:56:30Z</time>
      </trkpt>
      <trkpt lat="40.3197180" lon="-1.6952030">
        <ele>1549.4</ele>
        <time>2019-07-05T12:56:34Z</time>
      </trkpt>
      <trkpt lat="40.3196620" lon="-1.6953590">
        <ele>1548.8</ele>
        <time>2019-07-05T12:56:36Z</time>
      </trkpt>
      <trkpt lat="40.3196100" lon="-1.6955240">
        <ele>1548.2</ele>
        <time>2019-07-05T12:56:38Z</time>
      </trkpt>
      <trkpt lat="40.3195230" lon="-1.6957830">
        <ele>1547.2</ele>
        <time>2019-07-05T12:56:41Z</time>
      </trkpt>
      <trkpt lat="40.3194640" lon="-1.6959610">
        <ele>1546.6</ele>
        <time>2019-07-05T12:56:43Z</time>
      </trkpt>
      <trkpt lat="40.3194080" lon="-1.6961480">
        <ele>1546.0</ele>
        <time>2019-07-05T12:56:45Z</time>
      </trkpt>
      <trkpt lat="40.3193630" lon="-1.6963500">
        <ele>1544.8</ele>
        <time>2019-07-05T12:56:47Z</time>
      </trkpt>
      <trkpt lat="40.3193470" lon="-1.6964560">
        <ele>1544.4</ele>
        <time>2019-07-05T12:56:48Z</time>
      </trkpt>
      <trkpt lat="40.3193390" lon="-1.6965640">
        <ele>1543.8</ele>
        <time>2019-07-05T12:56:49Z</time>
      </trkpt>
      <trkpt lat="40.3193320" lon="-1.6968830">
        <ele>1542.4</ele>
        <time>2019-07-05T12:56:52Z</time>
      </trkpt>
      <trkpt lat="40.3193370" lon="-1.6969830">
        <ele>1542.0</ele>
        <time>2019-07-05T12:56:53Z</time>
      </trkpt>
      <trkpt lat="40.3194000" lon="-1.6974130">
        <ele>1542.2</ele>
        <time>2019-07-05T12:56:58Z</time>
      </trkpt>
      <trkpt lat="40.3194240" lon="-1.6974840">
        <ele>1542.2</ele>
        <time>2019-07-05T12:56:59Z</time>
      </trkpt>
      <trkpt lat="40.3195250" lon="-1.6976360">
        <ele>1542.4</ele>
        <time>2019-07-05T12:57:02Z</time>
      </trkpt>
      <trkpt lat="40.3196720" lon="-1.6976850">
        <ele>1542.2</ele>
        <time>2019-07-05T12:57:05Z</time>
      </trkpt>
      <trkpt lat="40.3198770" lon="-1.6976560">
        <ele>1541.2</ele>
        <time>2019-07-05T12:57:08Z</time>
      </trkpt>
      <trkpt lat="40.3199530" lon="-1.6976340">
        <ele>1540.6</ele>
        <time>2019-07-05T12:57:09Z</time>
      </trkpt>
      <trkpt lat="40.3200280" lon="-1.6976120">
        <ele>1539.8</ele>
        <time>2019-07-05T12:57:10Z</time>
      </trkpt>
      <trkpt lat="40.3201680" lon="-1.6975770">
        <ele>1538.6</ele>
        <time>2019-07-05T12:57:12Z</time>
      </trkpt>
      <trkpt lat="40.3203020" lon="-1.6975480">
        <ele>1537.8</ele>
        <time>2019-07-05T12:57:14Z</time>
      </trkpt>
      <trkpt lat="40.3203700" lon="-1.6975310">
        <ele>1537.6</ele>
        <time>2019-07-05T12:57:15Z</time>
      </trkpt>
      <trkpt lat="40.3205060" lon="-1.6974940">
        <ele>1537.0</ele>
        <time>2019-07-05T12:57:17Z</time>
      </trkpt>
      <trkpt lat="40.3206200" lon="-1.6974620">
        <ele>1536.6</ele>
        <time>2019-07-05T12:57:19Z</time>
      </trkpt>
      <trkpt lat="40.3206570" lon="-1.6974550">
        <ele>1536.4</ele>
        <time>2019-07-05T12:57:20Z</time>
      </trkpt>
      <trkpt lat="40.3206990" lon="-1.6974290">
        <ele>1536.0</ele>
        <time>2019-07-05T12:57:22Z</time>
      </trkpt>
      <trkpt lat="40.3207070" lon="-1.6974030">
        <ele>1536.0</ele>
        <time>2019-07-05T12:57:23Z</time>
      </trkpt>
      <trkpt lat="40.3206880" lon="-1.6972730">
        <ele>1535.4</ele>
        <time>2019-07-05T12:57:27Z</time>
      </trkpt>
      <trkpt lat="40.3206790" lon="-1.6972480">
        <ele>1535.4</ele>
        <time>2019-07-05T12:57:28Z</time>
      </trkpt>
      <trkpt lat="40.3206350" lon="-1.6972180">
        <ele>1535.0</ele>
        <time>2019-07-05T12:57:32Z</time>
      </trkpt>
      <trkpt lat="40.3206330" lon="-1.6972170">
        <ele>1535.0</ele>
        <time>2019-07-05T12:57:34Z</time>
      </trkpt>
      <trkpt lat="40.3206800" lon="-1.6972070">
        <ele>1536.4</ele>
        <time>2019-07-05T13:00:44Z</time>
      </trkpt>
      <trkpt lat="40.3206890" lon="-1.6972350">
        <ele>1536.4</ele>
        <time>2019-07-05T13:00:45Z</time>
      </trkpt>
      <trkpt lat="40.3206840" lon="-1.6972930">
        <ele>1536.2</ele>
        <time>2019-07-05T13:00:49Z</time>
      </trkpt>
      <trkpt lat="40.3206940" lon="-1.6973680">
        <ele>1536.0</ele>
        <time>2019-07-05T13:00:54Z</time>
      </trkpt>
      <trkpt lat="40.3207120" lon="-1.6974490">
        <ele>1536.0</ele>
        <time>2019-07-05T13:00:58Z</time>
      </trkpt>
      <trkpt lat="40.3207040" lon="-1.6974620">
        <ele>1536.0</ele>
        <time>2019-07-05T13:00:59Z</time>
      </trkpt>
      <trkpt lat="40.3206080" lon="-1.6974800">
        <ele>1536.2</ele>
        <time>2019-07-05T13:01:04Z</time>
      </trkpt>
      <trkpt lat="40.3204510" lon="-1.6975240">
        <ele>1536.0</ele>
        <time>2019-07-05T13:01:10Z</time>
      </trkpt>
      <trkpt lat="40.3204200" lon="-1.6975330">
        <ele>1536.0</ele>
        <time>2019-07-05T13:01:11Z</time>
      </trkpt>
      <trkpt lat="40.3202660" lon="-1.6975610">
        <ele>1536.8</ele>
        <time>2019-07-05T13:01:16Z</time>
      </trkpt>
      <trkpt lat="40.3202020" lon="-1.6975760">
        <ele>1537.2</ele>
        <time>2019-07-05T13:01:18Z</time>
      </trkpt>
      <trkpt lat="40.3200690" lon="-1.6976220">
        <ele>1537.6</ele>
        <time>2019-07-05T13:01:22Z</time>
      </trkpt>
      <trkpt lat="40.3199410" lon="-1.6976470">
        <ele>1538.2</ele>
        <time>2019-07-05T13:01:26Z</time>
      </trkpt>
      <trkpt lat="40.3198820" lon="-1.6976620">
        <ele>1538.6</ele>
        <time>2019-07-05T13:01:28Z</time>
      </trkpt>
      <trkpt lat="40.3197970" lon="-1.6976730">
        <ele>1539.8</ele>
        <time>2019-07-05T13:01:31Z</time>
      </trkpt>
      <trkpt lat="40.3197410" lon="-1.6976760">
        <ele>1540.2</ele>
        <time>2019-07-05T13:01:33Z</time>
      </trkpt>
      <trkpt lat="40.3196370" lon="-1.6977000">
        <ele>1541.0</ele>
        <time>2019-07-05T13:01:37Z</time>
      </trkpt>
      <trkpt lat="40.3195740" lon="-1.6977540">
        <ele>1542.0</ele>
        <time>2019-07-05T13:01:40Z</time>
      </trkpt>
      <trkpt lat="40.3195660" lon="-1.6977790">
        <ele>1542.4</ele>
        <time>2019-07-05T13:01:41Z</time>
      </trkpt>
      <trkpt lat="40.3195730" lon="-1.6978420">
        <ele>1542.8</ele>
        <time>2019-07-05T13:01:43Z</time>
      </trkpt>
      <trkpt lat="40.3195940" lon="-1.6979140">
        <ele>1543.2</ele>
        <time>2019-07-05T13:01:45Z</time>
      </trkpt>
      <trkpt lat="40.3196310" lon="-1.6980230">
        <ele>1543.4</ele>
        <time>2019-07-05T13:01:48Z</time>
      </trkpt>
      <trkpt lat="40.3196450" lon="-1.6980580">
        <ele>1543.6</ele>
        <time>2019-07-05T13:01:49Z</time>
      </trkpt>
      <trkpt lat="40.3197470" lon="-1.6983220">
        <ele>1544.4</ele>
        <time>2019-07-05T13:01:56Z</time>
      </trkpt>
      <trkpt lat="40.3197630" lon="-1.6983600">
        <ele>1544.4</ele>
        <time>2019-07-05T13:01:57Z</time>
      </trkpt>
      <trkpt lat="40.3198880" lon="-1.6986440">
        <ele>1545.0</ele>
        <time>2019-07-05T13:02:04Z</time>
      </trkpt>
      <trkpt lat="40.3200480" lon="-1.6989710">
        <ele>1545.2</ele>
        <time>2019-07-05T13:02:11Z</time>
      </trkpt>
      <trkpt lat="40.3202770" lon="-1.6993290">
        <ele>1545.2</ele>
        <time>2019-07-05T13:02:18Z</time>
      </trkpt>
      <trkpt lat="40.3204870" lon="-1.6996240">
        <ele>1544.6</ele>
        <time>2019-07-05T13:02:23Z</time>
      </trkpt>
      <trkpt lat="40.3205730" lon="-1.6997510">
        <ele>1544.0</ele>
        <time>2019-07-05T13:02:25Z</time>
      </trkpt>
      <trkpt lat="40.3206170" lon="-1.6998160">
        <ele>1543.6</ele>
        <time>2019-07-05T13:02:26Z</time>
      </trkpt>
      <trkpt lat="40.3208220" lon="-1.7001660">
        <ele>1542.4</ele>
        <time>2019-07-05T13:02:31Z</time>
      </trkpt>
      <trkpt lat="40.3208610" lon="-1.7002410">
        <ele>1542.0</ele>
        <time>2019-07-05T13:02:32Z</time>
      </trkpt>
      <trkpt lat="40.3209740" lon="-1.7004690">
        <ele>1541.2</ele>
        <time>2019-07-05T13:02:35Z</time>
      </trkpt>
      <trkpt lat="40.3210750" lon="-1.7007050">
        <ele>1540.4</ele>
        <time>2019-07-05T13:02:38Z</time>
      </trkpt>
      <trkpt lat="40.3211350" lon="-1.7008720">
        <ele>1540.2</ele>
        <time>2019-07-05T13:02:40Z</time>
      </trkpt>
      <trkpt lat="40.3212510" lon="-1.7012160">
        <ele>1540.4</ele>
        <time>2019-07-05T13:02:44Z</time>
      </trkpt>
      <trkpt lat="40.3213620" lon="-1.7015700">
        <ele>1540.2</ele>
        <time>2019-07-05T13:02:48Z</time>
      </trkpt>
      <trkpt lat="40.3215090" lon="-1.7020710">
        <ele>1539.6</ele>
        <time>2019-07-05T13:02:54Z</time>
      </trkpt>
      <trkpt lat="40.3215560" lon="-1.7022310">
        <ele>1539.6</ele>
        <time>2019-07-05T13:02:56Z</time>
      </trkpt>
      <trkpt lat="40.3217440" lon="-1.7028640">
        <ele>1539.6</ele>
        <time>2019-07-05T13:03:04Z</time>
      </trkpt>
      <trkpt lat="40.3218680" lon="-1.7032600">
        <ele>1540.4</ele>
        <time>2019-07-05T13:03:09Z</time>
      </trkpt>
      <trkpt lat="40.3219180" lon="-1.7034120">
        <ele>1540.6</ele>
        <time>2019-07-05T13:03:11Z</time>
      </trkpt>
      <trkpt lat="40.3220840" lon="-1.7038650">
        <ele>1540.6</ele>
        <time>2019-07-05T13:03:17Z</time>
      </trkpt>
      <trkpt lat="40.3222600" lon="-1.7043030">
        <ele>1541.2</ele>
        <time>2019-07-05T13:03:23Z</time>
      </trkpt>
      <trkpt lat="40.3223210" lon="-1.7044420">
        <ele>1541.0</ele>
        <time>2019-07-05T13:03:25Z</time>
      </trkpt>
      <trkpt lat="40.3225650" lon="-1.7049570">
        <ele>1540.2</ele>
        <time>2019-07-05T13:03:33Z</time>
      </trkpt>
      <trkpt lat="40.3225970" lon="-1.7050190">
        <ele>1540.2</ele>
        <time>2019-07-05T13:03:34Z</time>
      </trkpt>
      <trkpt lat="40.3228110" lon="-1.7054490">
        <ele>1540.8</ele>
        <time>2019-07-05T13:03:41Z</time>
      </trkpt>
      <trkpt lat="40.3229410" lon="-1.7056720">
        <ele>1541.4</ele>
        <time>2019-07-05T13:03:45Z</time>
      </trkpt>
      <trkpt lat="40.3230380" lon="-1.7058430">
        <ele>1541.6</ele>
        <time>2019-07-05T13:03:48Z</time>
      </trkpt>
      <trkpt lat="40.3232000" lon="-1.7061430">
        <ele>1542.6</ele>
        <time>2019-07-05T13:03:53Z</time>
      </trkpt>
      <trkpt lat="40.3234540" lon="-1.7065200">
        <ele>1542.2</ele>
        <time>2019-07-05T13:04:00Z</time>
      </trkpt>
      <trkpt lat="40.3237650" lon="-1.7069410">
        <ele>1543.8</ele>
        <time>2019-07-05T13:04:08Z</time>
      </trkpt>
      <trkpt lat="40.3238030" lon="-1.7069950">
        <ele>1544.2</ele>
        <time>2019-07-05T13:04:09Z</time>
      </trkpt>
      <trkpt lat="40.3240140" lon="-1.7072620">
        <ele>1545.0</ele>
        <time>2019-07-05T13:04:14Z</time>
      </trkpt>
      <trkpt lat="40.3240560" lon="-1.7073180">
        <ele>1545.2</ele>
        <time>2019-07-05T13:04:15Z</time>
      </trkpt>
      <trkpt lat="40.3243820" lon="-1.7077030">
        <ele>1545.8</ele>
        <time>2019-07-05T13:04:22Z</time>
      </trkpt>
      <trkpt lat="40.3246940" lon="-1.7080280">
        <ele>1544.8</ele>
        <time>2019-07-05T13:04:28Z</time>
      </trkpt>
      <trkpt lat="40.3248000" lon="-1.7081350">
        <ele>1544.6</ele>
        <time>2019-07-05T13:04:30Z</time>
      </trkpt>
      <trkpt lat="40.3250770" lon="-1.7084020">
        <ele>1544.2</ele>
        <time>2019-07-05T13:04:35Z</time>
      </trkpt>
      <trkpt lat="40.3252530" lon="-1.7085640">
        <ele>1543.6</ele>
        <time>2019-07-05T13:04:38Z</time>
      </trkpt>
      <trkpt lat="40.3253810" lon="-1.7086580">
        <ele>1543.4</ele>
        <time>2019-07-05T13:04:40Z</time>
      </trkpt>
      <trkpt lat="40.3254460" lon="-1.7087040">
        <ele>1543.2</ele>
        <time>2019-07-05T13:04:41Z</time>
      </trkpt>
      <trkpt lat="40.3255740" lon="-1.7088060">
        <ele>1542.8</ele>
        <time>2019-07-05T13:04:43Z</time>
      </trkpt>
      <trkpt lat="40.3258360" lon="-1.7090080">
        <ele>1542.0</ele>
        <time>2019-07-05T13:04:47Z</time>
      </trkpt>
      <trkpt lat="40.3261840" lon="-1.7092540">
        <ele>1541.0</ele>
        <time>2019-07-05T13:04:52Z</time>
      </trkpt>
      <trkpt lat="40.3262540" lon="-1.7093040">
        <ele>1540.8</ele>
        <time>2019-07-05T13:04:53Z</time>
      </trkpt>
      <trkpt lat="40.3265400" lon="-1.7095030">
        <ele>1539.8</ele>
        <time>2019-07-05T13:04:57Z</time>
      </trkpt>
      <trkpt lat="40.3267560" lon="-1.7096570">
        <ele>1539.4</ele>
        <time>2019-07-05T13:05:00Z</time>
      </trkpt>
      <trkpt lat="40.3270240" lon="-1.7098550">
        <ele>1539.4</ele>
        <time>2019-07-05T13:05:04Z</time>
      </trkpt>
      <trkpt lat="40.3272680" lon="-1.7100390">
        <ele>1539.6</ele>
        <time>2019-07-05T13:05:08Z</time>
      </trkpt>
      <trkpt lat="40.3276670" lon="-1.7103720">
        <ele>1539.8</ele>
        <time>2019-07-05T13:05:15Z</time>
      </trkpt>
      <trkpt lat="40.3280770" lon="-1.7107380">
        <ele>1539.2</ele>
        <time>2019-07-05T13:05:22Z</time>
      </trkpt>
      <trkpt lat="40.3281950" lon="-1.7108560">
        <ele>1538.6</ele>
        <time>2019-07-05T13:05:24Z</time>
      </trkpt>
      <trkpt lat="40.3283200" lon="-1.7109670">
        <ele>1538.4</ele>
        <time>2019-07-05T13:05:26Z</time>
      </trkpt>
      <trkpt lat="40.3284470" lon="-1.7110800">
        <ele>1538.0</ele>
        <time>2019-07-05T13:05:28Z</time>
      </trkpt>
      <trkpt lat="40.3285760" lon="-1.7111920">
        <ele>1537.6</ele>
        <time>2019-07-05T13:05:30Z</time>
      </trkpt>
      <trkpt lat="40.3288420" lon="-1.7114200">
        <ele>1536.4</ele>
        <time>2019-07-05T13:05:34Z</time>
      </trkpt>
      <trkpt lat="40.3289770" lon="-1.7115370">
        <ele>1535.6</ele>
        <time>2019-07-05T13:05:36Z</time>
      </trkpt>
      <trkpt lat="40.3291220" lon="-1.7116560">
        <ele>1535.2</ele>
        <time>2019-07-05T13:05:38Z</time>
      </trkpt>
      <trkpt lat="40.3294830" lon="-1.7119850">
        <ele>1534.2</ele>
        <time>2019-07-05T13:05:43Z</time>
      </trkpt>
      <trkpt lat="40.3295580" lon="-1.7120490">
        <ele>1534.0</ele>
        <time>2019-07-05T13:05:44Z</time>
      </trkpt>
      <trkpt lat="40.3299340" lon="-1.7123700">
        <ele>1532.8</ele>
        <time>2019-07-05T13:05:49Z</time>
      </trkpt>
      <trkpt lat="40.3300070" lon="-1.7124360">
        <ele>1532.6</ele>
        <time>2019-07-05T13:05:50Z</time>
      </trkpt>
      <trkpt lat="40.3303550" lon="-1.7127450">
        <ele>1531.6</ele>
        <time>2019-07-05T13:05:55Z</time>
      </trkpt>
      <trkpt lat="40.3304880" lon="-1.7128590">
        <ele>1531.2</ele>
        <time>2019-07-05T13:05:57Z</time>
      </trkpt>
      <trkpt lat="40.3307470" lon="-1.7130790">
        <ele>1531.0</ele>
        <time>2019-07-05T13:06:01Z</time>
      </trkpt>
      <trkpt lat="40.3309810" lon="-1.7132990">
        <ele>1531.2</ele>
        <time>2019-07-05T13:06:05Z</time>
      </trkpt>
      <trkpt lat="40.3313440" lon="-1.7136600">
        <ele>1532.0</ele>
        <time>2019-07-05T13:06:12Z</time>
      </trkpt>
      <trkpt lat="40.3316810" lon="-1.7140370">
        <ele>1532.2</ele>
        <time>2019-07-05T13:06:19Z</time>
      </trkpt>
      <trkpt lat="40.3318580" lon="-1.7142610">
        <ele>1532.6</ele>
        <time>2019-07-05T13:06:23Z</time>
      </trkpt>
      <trkpt lat="40.3319400" lon="-1.7143740">
        <ele>1532.6</ele>
        <time>2019-07-05T13:06:25Z</time>
      </trkpt>
      <trkpt lat="40.3321110" lon="-1.7145890">
        <ele>1532.4</ele>
        <time>2019-07-05T13:06:29Z</time>
      </trkpt>
      <trkpt lat="40.3322700" lon="-1.7148210">
        <ele>1532.4</ele>
        <time>2019-07-05T13:06:33Z</time>
      </trkpt>
      <trkpt lat="40.3323870" lon="-1.7149850">
        <ele>1532.6</ele>
        <time>2019-07-05T13:06:36Z</time>
      </trkpt>
      <trkpt lat="40.3324240" lon="-1.7150420">
        <ele>1532.8</ele>
        <time>2019-07-05T13:06:37Z</time>
      </trkpt>
      <trkpt lat="40.3325000" lon="-1.7151560">
        <ele>1533.2</ele>
        <time>2019-07-05T13:06:39Z</time>
      </trkpt>
      <trkpt lat="40.3327440" lon="-1.7154860">
        <ele>1533.8</ele>
        <time>2019-07-05T13:06:45Z</time>
      </trkpt>
      <trkpt lat="40.3328890" lon="-1.7157030">
        <ele>1534.2</ele>
        <time>2019-07-05T13:06:49Z</time>
      </trkpt>
      <trkpt lat="40.3330760" lon="-1.7159580">
        <ele>1535.0</ele>
        <time>2019-07-05T13:06:54Z</time>
      </trkpt>
      <trkpt lat="40.3331840" lon="-1.7161130">
        <ele>1535.8</ele>
        <time>2019-07-05T13:06:57Z</time>
      </trkpt>
      <trkpt lat="40.3333380" lon="-1.7163140">
        <ele>1536.4</ele>
        <time>2019-07-05T13:07:01Z</time>
      </trkpt>
      <trkpt lat="40.3334630" lon="-1.7164550">
        <ele>1537.0</ele>
        <time>2019-07-05T13:07:04Z</time>
      </trkpt>
      <trkpt lat="40.3337510" lon="-1.7166990">
        <ele>1537.2</ele>
        <time>2019-07-05T13:07:10Z</time>
      </trkpt>
      <trkpt lat="40.3339540" lon="-1.7168590">
        <ele>1537.2</ele>
        <time>2019-07-05T13:07:14Z</time>
      </trkpt>
      <trkpt lat="40.3340560" lon="-1.7169410">
        <ele>1537.0</ele>
        <time>2019-07-05T13:07:16Z</time>
      </trkpt>
      <trkpt lat="40.3344020" lon="-1.7171600">
        <ele>1536.0</ele>
        <time>2019-07-05T13:07:22Z</time>
      </trkpt>
      <trkpt lat="40.3344610" lon="-1.7171980">
        <ele>1535.8</ele>
        <time>2019-07-05T13:07:23Z</time>
      </trkpt>
      <trkpt lat="40.3345810" lon="-1.7172800">
        <ele>1535.4</ele>
        <time>2019-07-05T13:07:25Z</time>
      </trkpt>
      <trkpt lat="40.3348930" lon="-1.7175070">
        <ele>1534.4</ele>
        <time>2019-07-05T13:07:30Z</time>
      </trkpt>
      <trkpt lat="40.3350830" lon="-1.7176670">
        <ele>1534.2</ele>
        <time>2019-07-05T13:07:33Z</time>
      </trkpt>
      <trkpt lat="40.3354030" lon="-1.7179630">
        <ele>1533.6</ele>
        <time>2019-07-05T13:07:38Z</time>
      </trkpt>
      <trkpt lat="40.3355880" lon="-1.7181680">
        <ele>1533.0</ele>
        <time>2019-07-05T13:07:41Z</time>
      </trkpt>
      <trkpt lat="40.3357680" lon="-1.7183910">
        <ele>1532.8</ele>
        <time>2019-07-05T13:07:44Z</time>
      </trkpt>
      <trkpt lat="40.3358260" lon="-1.7184690">
        <ele>1532.6</ele>
        <time>2019-07-05T13:07:45Z</time>
      </trkpt>
      <trkpt lat="40.3360490" lon="-1.7187590">
        <ele>1532.0</ele>
        <time>2019-07-05T13:07:49Z</time>
      </trkpt>
      <trkpt lat="40.3361510" lon="-1.7188940">
        <ele>1531.8</ele>
        <time>2019-07-05T13:07:51Z</time>
      </trkpt>
      <trkpt lat="40.3364780" lon="-1.7193180">
        <ele>1531.4</ele>
        <time>2019-07-05T13:07:58Z</time>
      </trkpt>
      <trkpt lat="40.3368940" lon="-1.7198430">
        <ele>1531.6</ele>
        <time>2019-07-05T13:08:07Z</time>
      </trkpt>
      <trkpt lat="40.3372090" lon="-1.7202690">
        <ele>1532.0</ele>
        <time>2019-07-05T13:08:14Z</time>
      </trkpt>
      <trkpt lat="40.3374940" lon="-1.7206310">
        <ele>1532.2</ele>
        <time>2019-07-05T13:08:20Z</time>
      </trkpt>
      <trkpt lat="40.3375410" lon="-1.7206910">
        <ele>1532.2</ele>
        <time>2019-07-05T13:08:21Z</time>
      </trkpt>
      <trkpt lat="40.3378800" lon="-1.7211980">
        <ele>1532.2</ele>
        <time>2019-07-05T13:08:29Z</time>
      </trkpt>
      <trkpt lat="40.3381140" lon="-1.7217380">
        <ele>1532.0</ele>
        <time>2019-07-05T13:08:36Z</time>
      </trkpt>
      <trkpt lat="40.3383000" lon="-1.7223110">
        <ele>1531.8</ele>
        <time>2019-07-05T13:08:43Z</time>
      </trkpt>
      <trkpt lat="40.3384060" lon="-1.7226340">
        <ele>1530.8</ele>
        <time>2019-07-05T13:08:47Z</time>
      </trkpt>
      <trkpt lat="40.3384950" lon="-1.7228730">
        <ele>1530.8</ele>
        <time>2019-07-05T13:08:50Z</time>
      </trkpt>
      <trkpt lat="40.3386930" lon="-1.7234640">
        <ele>1530.4</ele>
        <time>2019-07-05T13:08:57Z</time>
      </trkpt>
      <trkpt lat="40.3388680" lon="-1.7239980">
        <ele>1530.8</ele>
        <time>2019-07-05T13:09:03Z</time>
      </trkpt>
      <trkpt lat="40.3390770" lon="-1.7246600">
        <ele>1530.6</ele>
        <time>2019-07-05T13:09:10Z</time>
      </trkpt>
      <trkpt lat="40.3391670" lon="-1.7249320">
        <ele>1530.4</ele>
        <time>2019-07-05T13:09:13Z</time>
      </trkpt>
      <trkpt lat="40.3391970" lon="-1.7250190">
        <ele>1530.4</ele>
        <time>2019-07-05T13:09:14Z</time>
      </trkpt>
      <trkpt lat="40.3393070" lon="-1.7253530">
        <ele>1530.2</ele>
        <time>2019-07-05T13:09:18Z</time>
      </trkpt>
      <trkpt lat="40.3394160" lon="-1.7257540">
        <ele>1529.8</ele>
        <time>2019-07-05T13:09:23Z</time>
      </trkpt>
      <trkpt lat="40.3394460" lon="-1.7259070">
        <ele>1529.8</ele>
        <time>2019-07-05T13:09:25Z</time>
      </trkpt>
      <trkpt lat="40.3394580" lon="-1.7259830">
        <ele>1529.8</ele>
        <time>2019-07-05T13:09:26Z</time>
      </trkpt>
      <trkpt lat="40.3395140" lon="-1.7262890">
        <ele>1529.6</ele>
        <time>2019-07-05T13:09:30Z</time>
      </trkpt>
      <trkpt lat="40.3395250" lon="-1.7263670">
        <ele>1529.6</ele>
        <time>2019-07-05T13:09:31Z</time>
      </trkpt>
      <trkpt lat="40.3395840" lon="-1.7269180">
        <ele>1530.8</ele>
        <time>2019-07-05T13:09:38Z</time>
      </trkpt>
      <trkpt lat="40.3395980" lon="-1.7269930">
        <ele>1530.8</ele>
        <time>2019-07-05T13:09:39Z</time>
      </trkpt>
      <trkpt lat="40.3396710" lon="-1.7275370">
        <ele>1530.6</ele>
        <time>2019-07-05T13:09:46Z</time>
      </trkpt>
      <trkpt lat="40.3397560" lon="-1.7282440">
        <ele>1531.2</ele>
        <time>2019-07-05T13:09:55Z</time>
      </trkpt>
      <trkpt lat="40.3397700" lon="-1.7283210">
        <ele>1531.2</ele>
        <time>2019-07-05T13:09:56Z</time>
      </trkpt>
      <trkpt lat="40.3399010" lon="-1.7287700">
        <ele>1530.8</ele>
        <time>2019-07-05T13:10:02Z</time>
      </trkpt>
      <trkpt lat="40.3401280" lon="-1.7292490">
        <ele>1531.2</ele>
        <time>2019-07-05T13:10:09Z</time>
      </trkpt>
      <trkpt lat="40.3404060" lon="-1.7297080">
        <ele>1531.0</ele>
        <time>2019-07-05T13:10:16Z</time>
      </trkpt>
      <trkpt lat="40.3407200" lon="-1.7301500">
        <ele>1531.2</ele>
        <time>2019-07-05T13:10:23Z</time>
      </trkpt>
      <trkpt lat="40.3410550" lon="-1.7306400">
        <ele>1530.2</ele>
        <time>2019-07-05T13:10:30Z</time>
      </trkpt>
      <trkpt lat="40.3411580" lon="-1.7307840">
        <ele>1530.2</ele>
        <time>2019-07-05T13:10:32Z</time>
      </trkpt>
      <trkpt lat="40.3414170" lon="-1.7311630">
        <ele>1529.4</ele>
        <time>2019-07-05T13:10:37Z</time>
      </trkpt>
      <trkpt lat="40.3414710" lon="-1.7312380">
        <ele>1529.2</ele>
        <time>2019-07-05T13:10:38Z</time>
      </trkpt>
      <trkpt lat="40.3415820" lon="-1.7313860">
        <ele>1528.8</ele>
        <time>2019-07-05T13:10:40Z</time>
      </trkpt>
      <trkpt lat="40.3417440" lon="-1.7316080">
        <ele>1528.4</ele>
        <time>2019-07-05T13:10:43Z</time>
      </trkpt>
      <trkpt lat="40.3418010" lon="-1.7316800">
        <ele>1528.2</ele>
        <time>2019-07-05T13:10:44Z</time>
      </trkpt>
      <trkpt lat="40.3418580" lon="-1.7317500">
        <ele>1527.8</ele>
        <time>2019-07-05T13:10:45Z</time>
      </trkpt>
      <trkpt lat="40.3419750" lon="-1.7318890">
        <ele>1527.4</ele>
        <time>2019-07-05T13:10:47Z</time>
      </trkpt>
      <trkpt lat="40.3420940" lon="-1.7320260">
        <ele>1526.8</ele>
        <time>2019-07-05T13:10:49Z</time>
      </trkpt>
      <trkpt lat="40.3423490" lon="-1.7322800">
        <ele>1525.6</ele>
        <time>2019-07-05T13:10:53Z</time>
      </trkpt>
      <trkpt lat="40.3424150" lon="-1.7323410">
        <ele>1525.6</ele>
        <time>2019-07-05T13:10:54Z</time>
      </trkpt>
      <trkpt lat="40.3427490" lon="-1.7326440">
        <ele>1524.8</ele>
        <time>2019-07-05T13:10:59Z</time>
      </trkpt>
      <trkpt lat="40.3428170" lon="-1.7327070">
        <ele>1524.6</ele>
        <time>2019-07-05T13:11:00Z</time>
      </trkpt>
      <trkpt lat="40.3429530" lon="-1.7328300">
        <ele>1524.2</ele>
        <time>2019-07-05T13:11:02Z</time>
      </trkpt>
      <trkpt lat="40.3432210" lon="-1.7330830">
        <ele>1523.8</ele>
        <time>2019-07-05T13:11:06Z</time>
      </trkpt>
      <trkpt lat="40.3433560" lon="-1.7332130">
        <ele>1523.4</ele>
        <time>2019-07-05T13:11:08Z</time>
      </trkpt>
      <trkpt lat="40.3434240" lon="-1.7332720">
        <ele>1523.2</ele>
        <time>2019-07-05T13:11:09Z</time>
      </trkpt>
      <trkpt lat="40.3436190" lon="-1.7334540">
        <ele>1522.8</ele>
        <time>2019-07-05T13:11:12Z</time>
      </trkpt>
      <trkpt lat="40.3437460" lon="-1.7335730">
        <ele>1522.6</ele>
        <time>2019-07-05T13:11:14Z</time>
      </trkpt>
      <trkpt lat="40.3438110" lon="-1.7336330">
        <ele>1522.4</ele>
        <time>2019-07-05T13:11:15Z</time>
      </trkpt>
      <trkpt lat="40.3439380" lon="-1.7337580">
        <ele>1521.8</ele>
        <time>2019-07-05T13:11:17Z</time>
      </trkpt>
      <trkpt lat="40.3441820" lon="-1.7339980">
        <ele>1521.4</ele>
        <time>2019-07-05T13:11:21Z</time>
      </trkpt>
      <trkpt lat="40.3442430" lon="-1.7340560">
        <ele>1521.0</ele>
        <time>2019-07-05T13:11:22Z</time>
      </trkpt>
      <trkpt lat="40.3443610" lon="-1.7341780">
        <ele>1520.8</ele>
        <time>2019-07-05T13:11:24Z</time>
      </trkpt>
      <trkpt lat="40.3445270" lon="-1.7343680">
        <ele>1520.2</ele>
        <time>2019-07-05T13:11:27Z</time>
      </trkpt>
      <trkpt lat="40.3446280" lon="-1.7345050">
        <ele>1519.8</ele>
        <time>2019-07-05T13:11:29Z</time>
      </trkpt>
      <trkpt lat="40.3446700" lon="-1.7345830">
        <ele>1519.6</ele>
        <time>2019-07-05T13:11:30Z</time>
      </trkpt>
      <trkpt lat="40.3447660" lon="-1.7348400">
        <ele>1519.2</ele>
        <time>2019-07-05T13:11:33Z</time>
      </trkpt>
      <trkpt lat="40.3447890" lon="-1.7349320">
        <ele>1519.0</ele>
        <time>2019-07-05T13:11:34Z</time>
      </trkpt>
      <trkpt lat="40.3448090" lon="-1.7350260">
        <ele>1519.0</ele>
        <time>2019-07-05T13:11:35Z</time>
      </trkpt>
      <trkpt lat="40.3448470" lon="-1.7353120">
        <ele>1518.4</ele>
        <time>2019-07-05T13:11:38Z</time>
      </trkpt>
      <trkpt lat="40.3448530" lon="-1.7355040">
        <ele>1518.2</ele>
        <time>2019-07-05T13:11:40Z</time>
      </trkpt>
      <trkpt lat="40.3448490" lon="-1.7356970">
        <ele>1518.2</ele>
        <time>2019-07-05T13:11:42Z</time>
      </trkpt>
      <trkpt lat="40.3448350" lon="-1.7360740">
        <ele>1517.8</ele>
        <time>2019-07-05T13:11:46Z</time>
      </trkpt>
      <trkpt lat="40.3448290" lon="-1.7362670">
        <ele>1517.0</ele>
        <time>2019-07-05T13:11:48Z</time>
      </trkpt>
      <trkpt lat="40.3448140" lon="-1.7368260">
        <ele>1516.0</ele>
        <time>2019-07-05T13:11:54Z</time>
      </trkpt>
      <trkpt lat="40.3447950" lon="-1.7373890">
        <ele>1516.4</ele>
        <time>2019-07-05T13:12:01Z</time>
      </trkpt>
      <trkpt lat="40.3447910" lon="-1.7374600">
        <ele>1516.4</ele>
        <time>2019-07-05T13:12:02Z</time>
      </trkpt>
      <trkpt lat="40.3447780" lon="-1.7377820">
        <ele>1517.0</ele>
        <time>2019-07-05T13:12:07Z</time>
      </trkpt>
      <trkpt lat="40.3447780" lon="-1.7378390">
        <ele>1517.0</ele>
        <time>2019-07-05T13:12:08Z</time>
      </trkpt>
      <trkpt lat="40.3447760" lon="-1.7380610">
        <ele>1517.6</ele>
        <time>2019-07-05T13:12:12Z</time>
      </trkpt>
      <trkpt lat="40.3447740" lon="-1.7383430">
        <ele>1518.2</ele>
        <time>2019-07-05T13:12:17Z</time>
      </trkpt>
      <trkpt lat="40.3447640" lon="-1.7385550">
        <ele>1519.4</ele>
        <time>2019-07-05T13:12:21Z</time>
      </trkpt>
      <trkpt lat="40.3447600" lon="-1.7387550">
        <ele>1519.8</ele>
        <time>2019-07-05T13:12:25Z</time>
      </trkpt>
      <trkpt lat="40.3447450" lon="-1.7389470">
        <ele>1520.6</ele>
        <time>2019-07-05T13:12:29Z</time>
      </trkpt>
      <trkpt lat="40.3447410" lon="-1.7391470">
        <ele>1521.0</ele>
        <time>2019-07-05T13:12:33Z</time>
      </trkpt>
      <trkpt lat="40.3447260" lon="-1.7394640">
        <ele>1521.4</ele>
        <time>2019-07-05T13:12:39Z</time>
      </trkpt>
      <trkpt lat="40.3447260" lon="-1.7395720">
        <ele>1521.4</ele>
        <time>2019-07-05T13:12:41Z</time>
      </trkpt>
      <trkpt lat="40.3447250" lon="-1.7396270">
        <ele>1521.6</ele>
        <time>2019-07-05T13:12:42Z</time>
      </trkpt>
      <trkpt lat="40.3447110" lon="-1.7400850">
        <ele>1522.2</ele>
        <time>2019-07-05T13:12:50Z</time>
      </trkpt>
      <trkpt lat="40.3447060" lon="-1.7402610">
        <ele>1522.8</ele>
        <time>2019-07-05T13:12:53Z</time>
      </trkpt>
      <trkpt lat="40.3447010" lon="-1.7406220">
        <ele>1523.2</ele>
        <time>2019-07-05T13:12:59Z</time>
      </trkpt>
      <trkpt lat="40.3446920" lon="-1.7411060">
        <ele>1523.4</ele>
        <time>2019-07-05T13:13:07Z</time>
      </trkpt>
      <trkpt lat="40.3446930" lon="-1.7412910">
        <ele>1523.8</ele>
        <time>2019-07-05T13:13:10Z</time>
      </trkpt>
      <trkpt lat="40.3446940" lon="-1.7416020">
        <ele>1524.8</ele>
        <time>2019-07-05T13:13:15Z</time>
      </trkpt>
      <trkpt lat="40.3446940" lon="-1.7419690">
        <ele>1525.0</ele>
        <time>2019-07-05T13:13:21Z</time>
      </trkpt>
      <trkpt lat="40.3446990" lon="-1.7420320">
        <ele>1525.0</ele>
        <time>2019-07-05T13:13:22Z</time>
      </trkpt>
      <trkpt lat="40.3447090" lon="-1.7420940">
        <ele>1525.0</ele>
        <time>2019-07-05T13:13:23Z</time>
      </trkpt>
      <trkpt lat="40.3447860" lon="-1.7424080">
        <ele>1524.4</ele>
        <time>2019-07-05T13:13:28Z</time>
      </trkpt>
      <trkpt lat="40.3448310" lon="-1.7425400">
        <ele>1524.0</ele>
        <time>2019-07-05T13:13:30Z</time>
      </trkpt>
      <trkpt lat="40.3449520" lon="-1.7428040">
        <ele>1523.6</ele>
        <time>2019-07-05T13:13:34Z</time>
      </trkpt>
      <trkpt lat="40.3450750" lon="-1.7429990">
        <ele>1522.8</ele>
        <time>2019-07-05T13:13:37Z</time>
      </trkpt>
      <trkpt lat="40.3452340" lon="-1.7431820">
        <ele>1522.2</ele>
        <time>2019-07-05T13:13:40Z</time>
      </trkpt>
      <trkpt lat="40.3453530" lon="-1.7432880">
        <ele>1522.0</ele>
        <time>2019-07-05T13:13:42Z</time>
      </trkpt>
      <trkpt lat="40.3455930" lon="-1.7434820">
        <ele>1521.4</ele>
        <time>2019-07-05T13:13:46Z</time>
      </trkpt>
      <trkpt lat="40.3458810" lon="-1.7436960">
        <ele>1521.4</ele>
        <time>2019-07-05T13:13:51Z</time>
      </trkpt>
      <trkpt lat="40.3459910" lon="-1.7437800">
        <ele>1521.4</ele>
        <time>2019-07-05T13:13:53Z</time>
      </trkpt>
      <trkpt lat="40.3463150" lon="-1.7440300">
        <ele>1521.6</ele>
        <time>2019-07-05T13:13:59Z</time>
      </trkpt>
      <trkpt lat="40.3466110" lon="-1.7442620">
        <ele>1521.0</ele>
        <time>2019-07-05T13:14:04Z</time>
      </trkpt>
      <trkpt lat="40.3466720" lon="-1.7443080">
        <ele>1520.8</ele>
        <time>2019-07-05T13:14:05Z</time>
      </trkpt>
      <trkpt lat="40.3469720" lon="-1.7445360">
        <ele>1520.4</ele>
        <time>2019-07-05T13:14:10Z</time>
      </trkpt>
      <trkpt lat="40.3471310" lon="-1.7446680">
        <ele>1520.4</ele>
        <time>2019-07-05T13:14:13Z</time>
      </trkpt>
      <trkpt lat="40.3472730" lon="-1.7447930">
        <ele>1519.8</ele>
        <time>2019-07-05T13:14:16Z</time>
      </trkpt>
      <trkpt lat="40.3474270" lon="-1.7449100">
        <ele>1519.4</ele>
        <time>2019-07-05T13:14:19Z</time>
      </trkpt>
      <trkpt lat="40.3474810" lon="-1.7449510">
        <ele>1519.2</ele>
        <time>2019-07-05T13:14:20Z</time>
      </trkpt>
      <trkpt lat="40.3478280" lon="-1.7452050">
        <ele>1519.0</ele>
        <time>2019-07-05T13:14:26Z</time>
      </trkpt>
      <trkpt lat="40.3479510" lon="-1.7453030">
        <ele>1518.6</ele>
        <time>2019-07-05T13:14:28Z</time>
      </trkpt>
      <trkpt lat="40.3481530" lon="-1.7454560">
        <ele>1517.8</ele>
        <time>2019-07-05T13:14:31Z</time>
      </trkpt>
      <trkpt lat="40.3484220" lon="-1.7456810">
        <ele>1517.0</ele>
        <time>2019-07-05T13:14:35Z</time>
      </trkpt>
      <trkpt lat="40.3484830" lon="-1.7457470">
        <ele>1517.0</ele>
        <time>2019-07-05T13:14:36Z</time>
      </trkpt>
      <trkpt lat="40.3485880" lon="-1.7458970">
        <ele>1516.6</ele>
        <time>2019-07-05T13:14:38Z</time>
      </trkpt>
      <trkpt lat="40.3486680" lon="-1.7460600">
        <ele>1516.6</ele>
        <time>2019-07-05T13:14:40Z</time>
      </trkpt>
      <trkpt lat="40.3487370" lon="-1.7462080">
        <ele>1516.6</ele>
        <time>2019-07-05T13:14:42Z</time>
      </trkpt>
      <trkpt lat="40.3488240" lon="-1.7463110">
        <ele>1516.6</ele>
        <time>2019-07-05T13:14:44Z</time>
      </trkpt>
      <trkpt lat="40.3489270" lon="-1.7463740">
        <ele>1516.2</ele>
        <time>2019-07-05T13:14:46Z</time>
      </trkpt>
      <trkpt lat="40.3490280" lon="-1.7464460">
        <ele>1516.0</ele>
        <time>2019-07-05T13:14:48Z</time>
      </trkpt>
      <trkpt lat="40.3491300" lon="-1.7465210">
        <ele>1516.0</ele>
        <time>2019-07-05T13:14:50Z</time>
      </trkpt>
      <trkpt lat="40.3493800" lon="-1.7466780">
        <ele>1516.2</ele>
        <time>2019-07-05T13:14:55Z</time>
      </trkpt>
      <trkpt lat="40.3495630" lon="-1.7468210">
        <ele>1515.6</ele>
        <time>2019-07-05T13:14:59Z</time>
      </trkpt>
      <trkpt lat="40.3497510" lon="-1.7469620">
        <ele>1515.6</ele>
        <time>2019-07-05T13:15:03Z</time>
      </trkpt>
      <trkpt lat="40.3498490" lon="-1.7470330">
        <ele>1515.6</ele>
        <time>2019-07-05T13:15:05Z</time>
      </trkpt>
      <trkpt lat="40.3501450" lon="-1.7472410">
        <ele>1515.4</ele>
        <time>2019-07-05T13:15:11Z</time>
      </trkpt>
      <trkpt lat="40.3503600" lon="-1.7473790">
        <ele>1516.0</ele>
        <time>2019-07-05T13:15:16Z</time>
      </trkpt>
      <trkpt lat="40.3503990" lon="-1.7474050">
        <ele>1516.2</ele>
        <time>2019-07-05T13:15:17Z</time>
      </trkpt>
      <trkpt lat="40.3504370" lon="-1.7474250">
        <ele>1516.6</ele>
        <time>2019-07-05T13:15:18Z</time>
      </trkpt>
      <trkpt lat="40.3504730" lon="-1.7474440">
        <ele>1516.6</ele>
        <time>2019-07-05T13:15:19Z</time>
      </trkpt>
      <trkpt lat="40.3506260" lon="-1.7475550">
        <ele>1517.2</ele>
        <time>2019-07-05T13:15:24Z</time>
      </trkpt>
      <trkpt lat="40.3506520" lon="-1.7475810">
        <ele>1517.2</ele>
        <time>2019-07-05T13:15:25Z</time>
      </trkpt>
      <trkpt lat="40.3507340" lon="-1.7476490">
        <ele>1518.0</ele>
        <time>2019-07-05T13:15:28Z</time>
      </trkpt>
      <trkpt lat="40.3508260" lon="-1.7477010">
        <ele>1518.4</ele>
        <time>2019-07-05T13:15:31Z</time>
      </trkpt>
      <trkpt lat="40.3509580" lon="-1.7477800">
        <ele>1519.0</ele>
        <time>2019-07-05T13:15:35Z</time>
      </trkpt>
      <trkpt lat="40.3510680" lon="-1.7478370">
        <ele>1519.4</ele>
        <time>2019-07-05T13:15:38Z</time>
      </trkpt>
      <trkpt lat="40.3511090" lon="-1.7478500">
        <ele>1519.4</ele>
        <time>2019-07-05T13:15:39Z</time>
      </trkpt>
      <trkpt lat="40.3513120" lon="-1.7478700">
        <ele>1518.6</ele>
        <time>2019-07-05T13:15:43Z</time>
      </trkpt>
      <trkpt lat="40.3515220" lon="-1.7478840">
        <ele>1517.6</ele>
        <time>2019-07-05T13:15:46Z</time>
      </trkpt>
      <trkpt lat="40.3516030" lon="-1.7478850">
        <ele>1517.0</ele>
        <time>2019-07-05T13:15:47Z</time>
      </trkpt>
      <trkpt lat="40.3516860" lon="-1.7478840">
        <ele>1516.4</ele>
        <time>2019-07-05T13:15:48Z</time>
      </trkpt>
      <trkpt lat="40.3518650" lon="-1.7478700">
        <ele>1514.8</ele>
        <time>2019-07-05T13:15:50Z</time>
      </trkpt>
      <trkpt lat="40.3520580" lon="-1.7478680">
        <ele>1513.8</ele>
        <time>2019-07-05T13:15:52Z</time>
      </trkpt>
      <trkpt lat="40.3523590" lon="-1.7478820">
        <ele>1512.6</ele>
        <time>2019-07-05T13:15:55Z</time>
      </trkpt>
      <trkpt lat="40.3525660" lon="-1.7478830">
        <ele>1511.6</ele>
        <time>2019-07-05T13:15:57Z</time>
      </trkpt>
      <trkpt lat="40.3526700" lon="-1.7478840">
        <ele>1511.2</ele>
        <time>2019-07-05T13:15:58Z</time>
      </trkpt>
      <trkpt lat="40.3529790" lon="-1.7478970">
        <ele>1510.0</ele>
        <time>2019-07-05T13:16:01Z</time>
      </trkpt>
      <trkpt lat="40.3530820" lon="-1.7479030">
        <ele>1509.6</ele>
        <time>2019-07-05T13:16:02Z</time>
      </trkpt>
      <trkpt lat="40.3531850" lon="-1.7479080">
        <ele>1509.2</ele>
        <time>2019-07-05T13:16:03Z</time>
      </trkpt>
      <trkpt lat="40.3532870" lon="-1.7479130">
        <ele>1508.8</ele>
        <time>2019-07-05T13:16:04Z</time>
      </trkpt>
      <trkpt lat="40.3533890" lon="-1.7479180">
        <ele>1508.4</ele>
        <time>2019-07-05T13:16:05Z</time>
      </trkpt>
      <trkpt lat="40.3535890" lon="-1.7479320">
        <ele>1507.6</ele>
        <time>2019-07-05T13:16:07Z</time>
      </trkpt>
      <trkpt lat="40.3539700" lon="-1.7479720">
        <ele>1506.6</ele>
        <time>2019-07-05T13:16:11Z</time>
      </trkpt>
      <trkpt lat="40.3540600" lon="-1.7479770">
        <ele>1506.4</ele>
        <time>2019-07-05T13:16:12Z</time>
      </trkpt>
      <trkpt lat="40.3543210" lon="-1.7479920">
        <ele>1505.4</ele>
        <time>2019-07-05T13:16:15Z</time>
      </trkpt>
      <trkpt lat="40.3547420" lon="-1.7480350">
        <ele>1504.4</ele>
        <time>2019-07-05T13:16:20Z</time>
      </trkpt>
      <trkpt lat="40.3549070" lon="-1.7480460">
        <ele>1504.4</ele>
        <time>2019-07-05T13:16:22Z</time>
      </trkpt>
      <trkpt lat="40.3552950" lon="-1.7480890">
        <ele>1504.2</ele>
        <time>2019-07-05T13:16:27Z</time>
      </trkpt>
      <trkpt lat="40.3556990" lon="-1.7482210">
        <ele>1504.4</ele>
        <time>2019-07-05T13:16:33Z</time>
      </trkpt>
      <trkpt lat="40.3562140" lon="-1.7484350">
        <ele>1504.8</ele>
        <time>2019-07-05T13:16:41Z</time>
      </trkpt>
      <trkpt lat="40.3567340" lon="-1.7486790">
        <ele>1504.2</ele>
        <time>2019-07-05T13:16:49Z</time>
      </trkpt>
      <trkpt lat="40.3569350" lon="-1.7487640">
        <ele>1504.0</ele>
        <time>2019-07-05T13:16:52Z</time>
      </trkpt>
      <trkpt lat="40.3572600" lon="-1.7489410">
        <ele>1503.6</ele>
        <time>2019-07-05T13:16:57Z</time>
      </trkpt>
      <trkpt lat="40.3573210" lon="-1.7489930">
        <ele>1503.4</ele>
        <time>2019-07-05T13:16:58Z</time>
      </trkpt>
      <trkpt lat="40.3574850" lon="-1.7492050">
        <ele>1502.8</ele>
        <time>2019-07-05T13:17:01Z</time>
      </trkpt>
      <trkpt lat="40.3575340" lon="-1.7492840">
        <ele>1502.8</ele>
        <time>2019-07-05T13:17:02Z</time>
      </trkpt>
      <trkpt lat="40.3575770" lon="-1.7493700">
        <ele>1502.4</ele>
        <time>2019-07-05T13:17:03Z</time>
      </trkpt>
      <trkpt lat="40.3576120" lon="-1.7494640">
        <ele>1502.0</ele>
        <time>2019-07-05T13:17:04Z</time>
      </trkpt>
      <trkpt lat="40.3576580" lon="-1.7496720">
        <ele>1501.6</ele>
        <time>2019-07-05T13:17:06Z</time>
      </trkpt>
      <trkpt lat="40.3576720" lon="-1.7497810">
        <ele>1501.2</ele>
        <time>2019-07-05T13:17:07Z</time>
      </trkpt>
      <trkpt lat="40.3576900" lon="-1.7498910">
        <ele>1500.6</ele>
        <time>2019-07-05T13:17:08Z</time>
      </trkpt>
      <trkpt lat="40.3577640" lon="-1.7502000">
        <ele>1500.0</ele>
        <time>2019-07-05T13:17:11Z</time>
      </trkpt>
      <trkpt lat="40.3577990" lon="-1.7502890">
        <ele>1499.8</ele>
        <time>2019-07-05T13:17:12Z</time>
      </trkpt>
      <trkpt lat="40.3579970" lon="-1.7506510">
        <ele>1500.2</ele>
        <time>2019-07-05T13:17:17Z</time>
      </trkpt>
      <trkpt lat="40.3580990" lon="-1.7508340">
        <ele>1500.8</ele>
        <time>2019-07-05T13:17:20Z</time>
      </trkpt>
      <trkpt lat="40.3582010" lon="-1.7509980">
        <ele>1500.6</ele>
        <time>2019-07-05T13:17:23Z</time>
      </trkpt>
      <trkpt lat="40.3584480" lon="-1.7514370">
        <ele>1500.6</ele>
        <time>2019-07-05T13:17:31Z</time>
      </trkpt>
      <trkpt lat="40.3585390" lon="-1.7515930">
        <ele>1500.6</ele>
        <time>2019-07-05T13:17:34Z</time>
      </trkpt>
      <trkpt lat="40.3586220" lon="-1.7517610">
        <ele>1500.4</ele>
        <time>2019-07-05T13:17:37Z</time>
      </trkpt>
      <trkpt lat="40.3587640" lon="-1.7520730">
        <ele>1500.4</ele>
        <time>2019-07-05T13:17:42Z</time>
      </trkpt>
      <trkpt lat="40.3588260" lon="-1.7522160">
        <ele>1500.0</ele>
        <time>2019-07-05T13:17:44Z</time>
      </trkpt>
      <trkpt lat="40.3588910" lon="-1.7523600">
        <ele>1499.6</ele>
        <time>2019-07-05T13:17:46Z</time>
      </trkpt>
      <trkpt lat="40.3590180" lon="-1.7526440">
        <ele>1499.0</ele>
        <time>2019-07-05T13:17:50Z</time>
      </trkpt>
      <trkpt lat="40.3590730" lon="-1.7527860">
        <ele>1498.4</ele>
        <time>2019-07-05T13:17:52Z</time>
      </trkpt>
      <trkpt lat="40.3592300" lon="-1.7531210">
        <ele>1497.8</ele>
        <time>2019-07-05T13:17:57Z</time>
      </trkpt>
      <trkpt lat="40.3592860" lon="-1.7532590">
        <ele>1497.6</ele>
        <time>2019-07-05T13:17:59Z</time>
      </trkpt>
      <trkpt lat="40.3594480" lon="-1.7535900">
        <ele>1497.8</ele>
        <time>2019-07-05T13:18:04Z</time>
      </trkpt>
      <trkpt lat="40.3595220" lon="-1.7537100">
        <ele>1497.6</ele>
        <time>2019-07-05T13:18:06Z</time>
      </trkpt>
      <trkpt lat="40.3596650" lon="-1.7538760">
        <ele>1497.2</ele>
        <time>2019-07-05T13:18:09Z</time>
      </trkpt>
      <trkpt lat="40.3598880" lon="-1.7540310">
        <ele>1496.4</ele>
        <time>2019-07-05T13:18:13Z</time>
      </trkpt>
      <trkpt lat="40.3599430" lon="-1.7540620">
        <ele>1496.4</ele>
        <time>2019-07-05T13:18:14Z</time>
      </trkpt>
      <trkpt lat="40.3602150" lon="-1.7541580">
        <ele>1496.6</ele>
        <time>2019-07-05T13:18:19Z</time>
      </trkpt>
      <trkpt lat="40.3603720" lon="-1.7542140">
        <ele>1497.2</ele>
        <time>2019-07-05T13:18:22Z</time>
      </trkpt>
      <trkpt lat="40.3604800" lon="-1.7542260">
        <ele>1497.2</ele>
        <time>2019-07-05T13:18:24Z</time>
      </trkpt>
      <trkpt lat="40.3605330" lon="-1.7542360">
        <ele>1497.4</ele>
        <time>2019-07-05T13:18:25Z</time>
      </trkpt>
      <trkpt lat="40.3607270" lon="-1.7542990">
        <ele>1497.6</ele>
        <time>2019-07-05T13:18:29Z</time>
      </trkpt>
      <trkpt lat="40.3608660" lon="-1.7543350">
        <ele>1497.8</ele>
        <time>2019-07-05T13:18:32Z</time>
      </trkpt>
      <trkpt lat="40.3610550" lon="-1.7543680">
        <ele>1498.4</ele>
        <time>2019-07-05T13:18:36Z</time>
      </trkpt>
      <trkpt lat="40.3611570" lon="-1.7543880">
        <ele>1498.4</ele>
        <time>2019-07-05T13:18:38Z</time>
      </trkpt>
      <trkpt lat="40.3613190" lon="-1.7544370">
        <ele>1498.2</ele>
        <time>2019-07-05T13:18:41Z</time>
      </trkpt>
      <trkpt lat="40.3616500" lon="-1.7545590">
        <ele>1498.0</ele>
        <time>2019-07-05T13:18:47Z</time>
      </trkpt>
      <trkpt lat="40.3619750" lon="-1.7546680">
        <ele>1498.4</ele>
        <time>2019-07-05T13:18:53Z</time>
      </trkpt>
      <trkpt lat="40.3621810" lon="-1.7547400">
        <ele>1498.4</ele>
        <time>2019-07-05T13:18:57Z</time>
      </trkpt>
      <trkpt lat="40.3622840" lon="-1.7547690">
        <ele>1498.4</ele>
        <time>2019-07-05T13:18:59Z</time>
      </trkpt>
      <trkpt lat="40.3624710" lon="-1.7548290">
        <ele>1498.8</ele>
        <time>2019-07-05T13:19:03Z</time>
      </trkpt>
      <trkpt lat="40.3625160" lon="-1.7548410">
        <ele>1499.0</ele>
        <time>2019-07-05T13:19:04Z</time>
      </trkpt>
      <trkpt lat="40.3625580" lon="-1.7548570">
        <ele>1499.0</ele>
        <time>2019-07-05T13:19:05Z</time>
      </trkpt>
      <trkpt lat="40.3627860" lon="-1.7549610">
        <ele>1500.0</ele>
        <time>2019-07-05T13:19:10Z</time>
      </trkpt>
      <trkpt lat="40.3629210" lon="-1.7550090">
        <ele>1500.2</ele>
        <time>2019-07-05T13:19:13Z</time>
      </trkpt>
      <trkpt lat="40.3630100" lon="-1.7550260">
        <ele>1500.2</ele>
        <time>2019-07-05T13:19:15Z</time>
      </trkpt>
      <trkpt lat="40.3632840" lon="-1.7551150">
        <ele>1500.4</ele>
        <time>2019-07-05T13:19:21Z</time>
      </trkpt>
      <trkpt lat="40.3634460" lon="-1.7551880">
        <ele>1500.6</ele>
        <time>2019-07-05T13:19:24Z</time>
      </trkpt>
      <trkpt lat="40.3635680" lon="-1.7552150">
        <ele>1500.2</ele>
        <time>2019-07-05T13:19:26Z</time>
      </trkpt>
      <trkpt lat="40.3639030" lon="-1.7552990">
        <ele>1499.6</ele>
        <time>2019-07-05T13:19:32Z</time>
      </trkpt>
      <trkpt lat="40.3640080" lon="-1.7553200">
        <ele>1499.4</ele>
        <time>2019-07-05T13:19:34Z</time>
      </trkpt>
      <trkpt lat="40.3642580" lon="-1.7554130">
        <ele>1499.2</ele>
        <time>2019-07-05T13:19:39Z</time>
      </trkpt>
      <trkpt lat="40.3644600" lon="-1.7555470">
        <ele>1499.0</ele>
        <time>2019-07-05T13:19:43Z</time>
      </trkpt>
      <trkpt lat="40.3645130" lon="-1.7555930">
        <ele>1499.0</ele>
        <time>2019-07-05T13:19:44Z</time>
      </trkpt>
      <trkpt lat="40.3647740" lon="-1.7558620">
        <ele>1498.4</ele>
        <time>2019-07-05T13:19:49Z</time>
      </trkpt>
      <trkpt lat="40.3648830" lon="-1.7559700">
        <ele>1498.0</ele>
        <time>2019-07-05T13:19:51Z</time>
      </trkpt>
      <trkpt lat="40.3649950" lon="-1.7560910">
        <ele>1498.0</ele>
        <time>2019-07-05T13:19:53Z</time>
      </trkpt>
      <trkpt lat="40.3651630" lon="-1.7562740">
        <ele>1497.6</ele>
        <time>2019-07-05T13:19:56Z</time>
      </trkpt>
      <trkpt lat="40.3653220" lon="-1.7564750">
        <ele>1497.0</ele>
        <time>2019-07-05T13:19:59Z</time>
      </trkpt>
      <trkpt lat="40.3654160" lon="-1.7566130">
        <ele>1496.4</ele>
        <time>2019-07-05T13:20:01Z</time>
      </trkpt>
      <trkpt lat="40.3654610" lon="-1.7566830">
        <ele>1496.0</ele>
        <time>2019-07-05T13:20:02Z</time>
      </trkpt>
      <trkpt lat="40.3655830" lon="-1.7568910">
        <ele>1495.6</ele>
        <time>2019-07-05T13:20:05Z</time>
      </trkpt>
      <trkpt lat="40.3656550" lon="-1.7570210">
        <ele>1495.8</ele>
        <time>2019-07-05T13:20:07Z</time>
      </trkpt>
      <trkpt lat="40.3657890" lon="-1.7572620">
        <ele>1495.8</ele>
        <time>2019-07-05T13:20:11Z</time>
      </trkpt>
      <trkpt lat="40.3658780" lon="-1.7574410">
        <ele>1495.8</ele>
        <time>2019-07-05T13:20:14Z</time>
      </trkpt>
      <trkpt lat="40.3659290" lon="-1.7575540">
        <ele>1496.0</ele>
        <time>2019-07-05T13:20:16Z</time>
      </trkpt>
      <trkpt lat="40.3660120" lon="-1.7576880">
        <ele>1496.0</ele>
        <time>2019-07-05T13:20:19Z</time>
      </trkpt>
      <trkpt lat="40.3660960" lon="-1.7578140">
        <ele>1496.2</ele>
        <time>2019-07-05T13:20:22Z</time>
      </trkpt>
      <trkpt lat="40.3662820" lon="-1.7580650">
        <ele>1496.8</ele>
        <time>2019-07-05T13:20:28Z</time>
      </trkpt>
      <trkpt lat="40.3663100" lon="-1.7581150">
        <ele>1496.8</ele>
        <time>2019-07-05T13:20:29Z</time>
      </trkpt>
      <trkpt lat="40.3663390" lon="-1.7581610">
        <ele>1497.0</ele>
        <time>2019-07-05T13:20:30Z</time>
      </trkpt>
      <trkpt lat="40.3663700" lon="-1.7582040">
        <ele>1497.0</ele>
        <time>2019-07-05T13:20:31Z</time>
      </trkpt>
      <trkpt lat="40.3664830" lon="-1.7583630">
        <ele>1498.0</ele>
        <time>2019-07-05T13:20:35Z</time>
      </trkpt>
      <trkpt lat="40.3665400" lon="-1.7584370">
        <ele>1498.2</ele>
        <time>2019-07-05T13:20:37Z</time>
      </trkpt>
      <trkpt lat="40.3666460" lon="-1.7585850">
        <ele>1499.2</ele>
        <time>2019-07-05T13:20:41Z</time>
      </trkpt>
      <trkpt lat="40.3667830" lon="-1.7587810">
        <ele>1499.8</ele>
        <time>2019-07-05T13:20:46Z</time>
      </trkpt>
      <trkpt lat="40.3668510" lon="-1.7589030">
        <ele>1500.0</ele>
        <time>2019-07-05T13:20:49Z</time>
      </trkpt>
      <trkpt lat="40.3668990" lon="-1.7589930">
        <ele>1500.4</ele>
        <time>2019-07-05T13:20:51Z</time>
      </trkpt>
      <trkpt lat="40.3669650" lon="-1.7591410">
        <ele>1500.8</ele>
        <time>2019-07-05T13:20:54Z</time>
      </trkpt>
      <trkpt lat="40.3670670" lon="-1.7592860">
        <ele>1500.8</ele>
        <time>2019-07-05T13:20:57Z</time>
      </trkpt>
      <trkpt lat="40.3671360" lon="-1.7593910">
        <ele>1500.8</ele>
        <time>2019-07-05T13:20:59Z</time>
      </trkpt>
      <trkpt lat="40.3672080" lon="-1.7594950">
        <ele>1501.2</ele>
        <time>2019-07-05T13:21:01Z</time>
      </trkpt>
      <trkpt lat="40.3673380" lon="-1.7596370">
        <ele>1500.6</ele>
        <time>2019-07-05T13:21:04Z</time>
      </trkpt>
      <trkpt lat="40.3675040" lon="-1.7597170">
        <ele>1499.8</ele>
        <time>2019-07-05T13:21:07Z</time>
      </trkpt>
      <trkpt lat="40.3675640" lon="-1.7597340">
        <ele>1499.8</ele>
        <time>2019-07-05T13:21:08Z</time>
      </trkpt>
      <trkpt lat="40.3677450" lon="-1.7597890">
        <ele>1499.4</ele>
        <time>2019-07-05T13:21:11Z</time>
      </trkpt>
      <trkpt lat="40.3679440" lon="-1.7598450">
        <ele>1498.6</ele>
        <time>2019-07-05T13:21:14Z</time>
      </trkpt>
      <trkpt lat="40.3680170" lon="-1.7598630">
        <ele>1498.4</ele>
        <time>2019-07-05T13:21:15Z</time>
      </trkpt>
      <trkpt lat="40.3682700" lon="-1.7599180">
        <ele>1496.8</ele>
        <time>2019-07-05T13:21:18Z</time>
      </trkpt>
      <trkpt lat="40.3683620" lon="-1.7599360">
        <ele>1495.8</ele>
        <time>2019-07-05T13:21:19Z</time>
      </trkpt>
      <trkpt lat="40.3684550" lon="-1.7599610">
        <ele>1495.4</ele>
        <time>2019-07-05T13:21:20Z</time>
      </trkpt>
      <trkpt lat="40.3685440" lon="-1.7599880">
        <ele>1495.2</ele>
        <time>2019-07-05T13:21:21Z</time>
      </trkpt>
      <trkpt lat="40.3687010" lon="-1.7600480">
        <ele>1494.6</ele>
        <time>2019-07-05T13:21:23Z</time>
      </trkpt>
      <trkpt lat="40.3689410" lon="-1.7601500">
        <ele>1496.0</ele>
        <time>2019-07-05T13:21:27Z</time>
      </trkpt>
      <trkpt lat="40.3690930" lon="-1.7602140">
        <ele>1497.0</ele>
        <time>2019-07-05T13:21:30Z</time>
      </trkpt>
      <trkpt lat="40.3691970" lon="-1.7602640">
        <ele>1496.8</ele>
        <time>2019-07-05T13:21:32Z</time>
      </trkpt>
      <trkpt lat="40.3692530" lon="-1.7602870">
        <ele>1497.0</ele>
        <time>2019-07-05T13:21:33Z</time>
      </trkpt>
      <trkpt lat="40.3696590" lon="-1.7604610">
        <ele>1496.8</ele>
        <time>2019-07-05T13:21:40Z</time>
      </trkpt>
      <trkpt lat="40.3699970" lon="-1.7605810">
        <ele>1496.6</ele>
        <time>2019-07-05T13:21:46Z</time>
      </trkpt>
      <trkpt lat="40.3703210" lon="-1.7606630">
        <ele>1497.2</ele>
        <time>2019-07-05T13:21:52Z</time>
      </trkpt>
      <trkpt lat="40.3703740" lon="-1.7606790">
        <ele>1497.2</ele>
        <time>2019-07-05T13:21:53Z</time>
      </trkpt>
      <trkpt lat="40.3705810" lon="-1.7607720">
        <ele>1497.4</ele>
        <time>2019-07-05T13:21:57Z</time>
      </trkpt>
      <trkpt lat="40.3708560" lon="-1.7609000">
        <ele>1497.6</ele>
        <time>2019-07-05T13:22:02Z</time>
      </trkpt>
      <trkpt lat="40.3709150" lon="-1.7609330">
        <ele>1497.4</ele>
        <time>2019-07-05T13:22:03Z</time>
      </trkpt>
      <trkpt lat="40.3711760" lon="-1.7610660">
        <ele>1495.6</ele>
        <time>2019-07-05T13:22:07Z</time>
      </trkpt>
      <trkpt lat="40.3712450" lon="-1.7611050">
        <ele>1495.4</ele>
        <time>2019-07-05T13:22:08Z</time>
      </trkpt>
      <trkpt lat="40.3714560" lon="-1.7612390">
        <ele>1494.6</ele>
        <time>2019-07-05T13:22:11Z</time>
      </trkpt>
      <trkpt lat="40.3715820" lon="-1.7613480">
        <ele>1493.6</ele>
        <time>2019-07-05T13:22:13Z</time>
      </trkpt>
      <trkpt lat="40.3717690" lon="-1.7615120">
        <ele>1492.6</ele>
        <time>2019-07-05T13:22:16Z</time>
      </trkpt>
      <trkpt lat="40.3719430" lon="-1.7616900">
        <ele>1492.2</ele>
        <time>2019-07-05T13:22:19Z</time>
      </trkpt>
      <trkpt lat="40.3722610" lon="-1.7619990">
        <ele>1492.0</ele>
        <time>2019-07-05T13:22:25Z</time>
      </trkpt>
      <trkpt lat="40.3724880" lon="-1.7621390">
        <ele>1492.2</ele>
        <time>2019-07-05T13:22:29Z</time>
      </trkpt>
      <trkpt lat="40.3725470" lon="-1.7621550">
        <ele>1492.0</ele>
        <time>2019-07-05T13:22:30Z</time>
      </trkpt>
      <trkpt lat="40.3730050" lon="-1.7621910">
        <ele>1491.8</ele>
        <time>2019-07-05T13:22:38Z</time>
      </trkpt>
      <trkpt lat="40.3731840" lon="-1.7623230">
        <ele>1492.2</ele>
        <time>2019-07-05T13:22:42Z</time>
      </trkpt>
      <trkpt lat="40.3733110" lon="-1.7624600">
        <ele>1492.6</ele>
        <time>2019-07-05T13:22:45Z</time>
      </trkpt>
      <trkpt lat="40.3734290" lon="-1.7626500">
        <ele>1492.4</ele>
        <time>2019-07-05T13:22:48Z</time>
      </trkpt>
      <trkpt lat="40.3735540" lon="-1.7629380">
        <ele>1492.6</ele>
        <time>2019-07-05T13:22:52Z</time>
      </trkpt>
      <trkpt lat="40.3736220" lon="-1.7630800">
        <ele>1492.6</ele>
        <time>2019-07-05T13:22:54Z</time>
      </trkpt>
      <trkpt lat="40.3736430" lon="-1.7631590">
        <ele>1492.8</ele>
        <time>2019-07-05T13:22:55Z</time>
      </trkpt>
      <trkpt lat="40.3736830" lon="-1.7633140">
        <ele>1493.4</ele>
        <time>2019-07-05T13:22:57Z</time>
      </trkpt>
      <trkpt lat="40.3737070" lon="-1.7633900">
        <ele>1493.6</ele>
        <time>2019-07-05T13:22:58Z</time>
      </trkpt>
      <trkpt lat="40.3738200" lon="-1.7636710">
        <ele>1493.8</ele>
        <time>2019-07-05T13:23:02Z</time>
      </trkpt>
      <trkpt lat="40.3738510" lon="-1.7637350">
        <ele>1494.0</ele>
        <time>2019-07-05T13:23:03Z</time>
      </trkpt>
      <trkpt lat="40.3738830" lon="-1.7637950">
        <ele>1494.4</ele>
        <time>2019-07-05T13:23:04Z</time>
      </trkpt>
      <trkpt lat="40.3740070" lon="-1.7639840">
        <ele>1494.6</ele>
        <time>2019-07-05T13:23:08Z</time>
      </trkpt>
      <trkpt lat="40.3741630" lon="-1.7642100">
        <ele>1495.2</ele>
        <time>2019-07-05T13:23:14Z</time>
      </trkpt>
      <trkpt lat="40.3742720" lon="-1.7644050">
        <ele>1496.2</ele>
        <time>2019-07-05T13:23:20Z</time>
      </trkpt>
      <trkpt lat="40.3743700" lon="-1.7645830">
        <ele>1497.4</ele>
        <time>2019-07-05T13:23:25Z</time>
      </trkpt>
      <trkpt lat="40.3744220" lon="-1.7647070">
        <ele>1498.2</ele>
        <time>2019-07-05T13:23:28Z</time>
      </trkpt>
      <trkpt lat="40.3744750" lon="-1.7648210">
        <ele>1498.6</ele>
        <time>2019-07-05T13:23:31Z</time>
      </trkpt>
      <trkpt lat="40.3745340" lon="-1.7649320">
        <ele>1498.8</ele>
        <time>2019-07-05T13:23:34Z</time>
      </trkpt>
      <trkpt lat="40.3746170" lon="-1.7650600">
        <ele>1499.6</ele>
        <time>2019-07-05T13:23:38Z</time>
      </trkpt>
      <trkpt lat="40.3746400" lon="-1.7650910">
        <ele>1499.6</ele>
        <time>2019-07-05T13:23:39Z</time>
      </trkpt>
      <trkpt lat="40.3747630" lon="-1.7652770">
        <ele>1500.2</ele>
        <time>2019-07-05T13:23:44Z</time>
      </trkpt>
      <trkpt lat="40.3748200" lon="-1.7653520">
        <ele>1500.6</ele>
        <time>2019-07-05T13:23:46Z</time>
      </trkpt>
      <trkpt lat="40.3749180" lon="-1.7654900">
        <ele>1501.4</ele>
        <time>2019-07-05T13:23:50Z</time>
      </trkpt>
      <trkpt lat="40.3749680" lon="-1.7655570">
        <ele>1501.6</ele>
        <time>2019-07-05T13:23:52Z</time>
      </trkpt>
      <trkpt lat="40.3750630" lon="-1.7656870">
        <ele>1502.2</ele>
        <time>2019-07-05T13:23:56Z</time>
      </trkpt>
      <trkpt lat="40.3751290" lon="-1.7657820">
        <ele>1502.8</ele>
        <time>2019-07-05T13:23:59Z</time>
      </trkpt>
      <trkpt lat="40.3751760" lon="-1.7658390">
        <ele>1503.4</ele>
        <time>2019-07-05T13:24:01Z</time>
      </trkpt>
      <trkpt lat="40.3752210" lon="-1.7658890">
        <ele>1504.0</ele>
        <time>2019-07-05T13:24:03Z</time>
      </trkpt>
      <trkpt lat="40.3753260" lon="-1.7660200">
        <ele>1505.2</ele>
        <time>2019-07-05T13:24:08Z</time>
      </trkpt>
      <trkpt lat="40.3753960" lon="-1.7661840">
        <ele>1505.6</ele>
        <time>2019-07-05T13:24:12Z</time>
      </trkpt>
      <trkpt lat="40.3754800" lon="-1.7663190">
        <ele>1506.2</ele>
        <time>2019-07-05T13:24:16Z</time>
      </trkpt>
      <trkpt lat="40.3755170" lon="-1.7663800">
        <ele>1506.6</ele>
        <time>2019-07-05T13:24:18Z</time>
      </trkpt>
      <trkpt lat="40.3756070" lon="-1.7665550">
        <ele>1507.4</ele>
        <time>2019-07-05T13:24:23Z</time>
      </trkpt>
      <trkpt lat="40.3756280" lon="-1.7665900">
        <ele>1507.4</ele>
        <time>2019-07-05T13:24:24Z</time>
      </trkpt>
      <trkpt lat="40.3757250" lon="-1.7667740">
        <ele>1508.4</ele>
        <time>2019-07-05T13:24:29Z</time>
      </trkpt>
      <trkpt lat="40.3757430" lon="-1.7668150">
        <ele>1508.8</ele>
        <time>2019-07-05T13:24:30Z</time>
      </trkpt>
      <trkpt lat="40.3758290" lon="-1.7670190">
        <ele>1509.4</ele>
        <time>2019-07-05T13:24:35Z</time>
      </trkpt>
      <trkpt lat="40.3758450" lon="-1.7670630">
        <ele>1509.6</ele>
        <time>2019-07-05T13:24:36Z</time>
      </trkpt>
      <trkpt lat="40.3759050" lon="-1.7672850">
        <ele>1510.6</ele>
        <time>2019-07-05T13:24:41Z</time>
      </trkpt>
      <trkpt lat="40.3759430" lon="-1.7675490">
        <ele>1510.6</ele>
        <time>2019-07-05T13:24:47Z</time>
      </trkpt>
      <trkpt lat="40.3759700" lon="-1.7677800">
        <ele>1511.6</ele>
        <time>2019-07-05T13:24:52Z</time>
      </trkpt>
      <trkpt lat="40.3759800" lon="-1.7678800">
        <ele>1511.8</ele>
        <time>2019-07-05T13:24:54Z</time>
      </trkpt>
      <trkpt lat="40.3760310" lon="-1.7683000">
        <ele>1511.8</ele>
        <time>2019-07-05T13:25:02Z</time>
      </trkpt>
      <trkpt lat="40.3760610" lon="-1.7684750">
        <ele>1512.4</ele>
        <time>2019-07-05T13:25:05Z</time>
      </trkpt>
      <trkpt lat="40.3760950" lon="-1.7686510">
        <ele>1512.6</ele>
        <time>2019-07-05T13:25:08Z</time>
      </trkpt>
      <trkpt lat="40.3761260" lon="-1.7687660">
        <ele>1512.6</ele>
        <time>2019-07-05T13:25:10Z</time>
      </trkpt>
      <trkpt lat="40.3761520" lon="-1.7688890">
        <ele>1513.0</ele>
        <time>2019-07-05T13:25:12Z</time>
      </trkpt>
      <trkpt lat="40.3761630" lon="-1.7689490">
        <ele>1513.2</ele>
        <time>2019-07-05T13:25:13Z</time>
      </trkpt>
      <trkpt lat="40.3761780" lon="-1.7690090">
        <ele>1513.2</ele>
        <time>2019-07-05T13:25:14Z</time>
      </trkpt>
      <trkpt lat="40.3762570" lon="-1.7693040">
        <ele>1513.4</ele>
        <time>2019-07-05T13:25:19Z</time>
      </trkpt>
      <trkpt lat="40.3763410" lon="-1.7696090">
        <ele>1514.0</ele>
        <time>2019-07-05T13:25:24Z</time>
      </trkpt>
      <trkpt lat="40.3763920" lon="-1.7698270">
        <ele>1513.6</ele>
        <time>2019-07-05T13:25:27Z</time>
      </trkpt>
      <trkpt lat="40.3764300" lon="-1.7699910">
        <ele>1513.4</ele>
        <time>2019-07-05T13:25:29Z</time>
      </trkpt>
      <trkpt lat="40.3764460" lon="-1.7700830">
        <ele>1513.0</ele>
        <time>2019-07-05T13:25:30Z</time>
      </trkpt>
      <trkpt lat="40.3764740" lon="-1.7702670">
        <ele>1512.0</ele>
        <time>2019-07-05T13:25:32Z</time>
      </trkpt>
      <trkpt lat="40.3765160" lon="-1.7704410">
        <ele>1511.4</ele>
        <time>2019-07-05T13:25:34Z</time>
      </trkpt>
      <trkpt lat="40.3765900" lon="-1.7705940">
        <ele>1510.6</ele>
        <time>2019-07-05T13:25:36Z</time>
      </trkpt>
      <trkpt lat="40.3766900" lon="-1.7707350">
        <ele>1509.6</ele>
        <time>2019-07-05T13:25:38Z</time>
      </trkpt>
      <trkpt lat="40.3768090" lon="-1.7708640">
        <ele>1508.6</ele>
        <time>2019-07-05T13:25:40Z</time>
      </trkpt>
      <trkpt lat="40.3768710" lon="-1.7709250">
        <ele>1508.4</ele>
        <time>2019-07-05T13:25:41Z</time>
      </trkpt>
      <trkpt lat="40.3769360" lon="-1.7709820">
        <ele>1508.2</ele>
        <time>2019-07-05T13:25:42Z</time>
      </trkpt>
      <trkpt lat="40.3770680" lon="-1.7710660">
        <ele>1508.0</ele>
        <time>2019-07-05T13:25:44Z</time>
      </trkpt>
      <trkpt lat="40.3772000" lon="-1.7711180">
        <ele>1507.8</ele>
        <time>2019-07-05T13:25:46Z</time>
      </trkpt>
      <trkpt lat="40.3772630" lon="-1.7711380">
        <ele>1508.0</ele>
        <time>2019-07-05T13:25:47Z</time>
      </trkpt>
      <trkpt lat="40.3773810" lon="-1.7711860">
        <ele>1507.8</ele>
        <time>2019-07-05T13:25:49Z</time>
      </trkpt>
      <trkpt lat="40.3776230" lon="-1.7712810">
        <ele>1507.8</ele>
        <time>2019-07-05T13:25:53Z</time>
      </trkpt>
      <trkpt lat="40.3776840" lon="-1.7713060">
        <ele>1507.8</ele>
        <time>2019-07-05T13:25:54Z</time>
      </trkpt>
      <trkpt lat="40.3779260" lon="-1.7713980">
        <ele>1507.8</ele>
        <time>2019-07-05T13:25:58Z</time>
      </trkpt>
      <trkpt lat="40.3779830" lon="-1.7714260">
        <ele>1507.8</ele>
        <time>2019-07-05T13:25:59Z</time>
      </trkpt>
      <trkpt lat="40.3780370" lon="-1.7714540">
        <ele>1507.8</ele>
        <time>2019-07-05T13:26:00Z</time>
      </trkpt>
      <trkpt lat="40.3780870" lon="-1.7714840">
        <ele>1508.0</ele>
        <time>2019-07-05T13:26:01Z</time>
      </trkpt>
      <trkpt lat="40.3782070" lon="-1.7715940">
        <ele>1508.4</ele>
        <time>2019-07-05T13:26:04Z</time>
      </trkpt>
      <trkpt lat="40.3783150" lon="-1.7716930">
        <ele>1509.4</ele>
        <time>2019-07-05T13:26:07Z</time>
      </trkpt>
      <trkpt lat="40.3783720" lon="-1.7717660">
        <ele>1509.8</ele>
        <time>2019-07-05T13:26:09Z</time>
      </trkpt>
      <trkpt lat="40.3784790" lon="-1.7719120">
        <ele>1510.4</ele>
        <time>2019-07-05T13:26:13Z</time>
      </trkpt>
      <trkpt lat="40.3785330" lon="-1.7719840">
        <ele>1510.8</ele>
        <time>2019-07-05T13:26:15Z</time>
      </trkpt>
      <trkpt lat="40.3785580" lon="-1.7720250">
        <ele>1511.0</ele>
        <time>2019-07-05T13:26:16Z</time>
      </trkpt>
      <trkpt lat="40.3786520" lon="-1.7722000">
        <ele>1511.4</ele>
        <time>2019-07-05T13:26:20Z</time>
      </trkpt>
      <trkpt lat="40.3786710" lon="-1.7722530">
        <ele>1511.6</ele>
        <time>2019-07-05T13:26:21Z</time>
      </trkpt>
      <trkpt lat="40.3787680" lon="-1.7724910">
        <ele>1512.2</ele>
        <time>2019-07-05T13:26:26Z</time>
      </trkpt>
      <trkpt lat="40.3788060" lon="-1.7725920">
        <ele>1512.2</ele>
        <time>2019-07-05T13:26:28Z</time>
      </trkpt>
      <trkpt lat="40.3788570" lon="-1.7726900">
        <ele>1512.4</ele>
        <time>2019-07-05T13:26:30Z</time>
      </trkpt>
      <trkpt lat="40.3789110" lon="-1.7727730">
        <ele>1512.6</ele>
        <time>2019-07-05T13:26:32Z</time>
      </trkpt>
      <trkpt lat="40.3790610" lon="-1.7730570">
        <ele>1512.8</ele>
        <time>2019-07-05T13:26:38Z</time>
      </trkpt>
      <trkpt lat="40.3790880" lon="-1.7731110">
        <ele>1513.0</ele>
        <time>2019-07-05T13:26:39Z</time>
      </trkpt>
      <trkpt lat="40.3791870" lon="-1.7732530">
        <ele>1513.0</ele>
        <time>2019-07-05T13:26:42Z</time>
      </trkpt>
      <trkpt lat="40.3792870" lon="-1.7733960">
        <ele>1513.2</ele>
        <time>2019-07-05T13:26:45Z</time>
      </trkpt>
      <trkpt lat="40.3793700" lon="-1.7734850">
        <ele>1513.2</ele>
        <time>2019-07-05T13:26:47Z</time>
      </trkpt>
      <trkpt lat="40.3796110" lon="-1.7737540">
        <ele>1512.4</ele>
        <time>2019-07-05T13:26:52Z</time>
      </trkpt>
      <trkpt lat="40.3796640" lon="-1.7738170">
        <ele>1512.0</ele>
        <time>2019-07-05T13:26:53Z</time>
      </trkpt>
      <trkpt lat="40.3797140" lon="-1.7738840">
        <ele>1511.4</ele>
        <time>2019-07-05T13:26:54Z</time>
      </trkpt>
      <trkpt lat="40.3798230" lon="-1.7740290">
        <ele>1510.4</ele>
        <time>2019-07-05T13:26:56Z</time>
      </trkpt>
      <trkpt lat="40.3798760" lon="-1.7741010">
        <ele>1510.2</ele>
        <time>2019-07-05T13:26:57Z</time>
      </trkpt>
      <trkpt lat="40.3799750" lon="-1.7742590">
        <ele>1509.6</ele>
        <time>2019-07-05T13:26:59Z</time>
      </trkpt>
      <trkpt lat="40.3800230" lon="-1.7743630">
        <ele>1509.0</ele>
        <time>2019-07-05T13:27:00Z</time>
      </trkpt>
      <trkpt lat="40.3800940" lon="-1.7745990">
        <ele>1508.0</ele>
        <time>2019-07-05T13:27:02Z</time>
      </trkpt>
      <trkpt lat="40.3801150" lon="-1.7747230">
        <ele>1507.4</ele>
        <time>2019-07-05T13:27:03Z</time>
      </trkpt>
      <trkpt lat="40.3801310" lon="-1.7748470">
        <ele>1506.4</ele>
        <time>2019-07-05T13:27:04Z</time>
      </trkpt>
      <trkpt lat="40.3801440" lon="-1.7749660">
        <ele>1506.0</ele>
        <time>2019-07-05T13:27:05Z</time>
      </trkpt>
      <trkpt lat="40.3801850" lon="-1.7752870">
        <ele>1505.4</ele>
        <time>2019-07-05T13:27:08Z</time>
      </trkpt>
      <trkpt lat="40.3802000" lon="-1.7753810">
        <ele>1505.4</ele>
        <time>2019-07-05T13:27:09Z</time>
      </trkpt>
      <trkpt lat="40.3802340" lon="-1.7755410">
        <ele>1505.8</ele>
        <time>2019-07-05T13:27:11Z</time>
      </trkpt>
      <trkpt lat="40.3802840" lon="-1.7756710">
        <ele>1506.6</ele>
        <time>2019-07-05T13:27:13Z</time>
      </trkpt>
      <trkpt lat="40.3803160" lon="-1.7757230">
        <ele>1506.8</ele>
        <time>2019-07-05T13:27:14Z</time>
      </trkpt>
      <trkpt lat="40.3803470" lon="-1.7757680">
        <ele>1507.0</ele>
        <time>2019-07-05T13:27:15Z</time>
      </trkpt>
      <trkpt lat="40.3804030" lon="-1.7758450">
        <ele>1507.4</ele>
        <time>2019-07-05T13:27:17Z</time>
      </trkpt>
      <trkpt lat="40.3805090" lon="-1.7759310">
        <ele>1508.0</ele>
        <time>2019-07-05T13:27:20Z</time>
      </trkpt>
      <trkpt lat="40.3805530" lon="-1.7759490">
        <ele>1508.0</ele>
        <time>2019-07-05T13:27:21Z</time>
      </trkpt>
      <trkpt lat="40.3806000" lon="-1.7759660">
        <ele>1508.2</ele>
        <time>2019-07-05T13:27:22Z</time>
      </trkpt>
      <trkpt lat="40.3806880" lon="-1.7759920">
        <ele>1508.2</ele>
        <time>2019-07-05T13:27:24Z</time>
      </trkpt>
      <trkpt lat="40.3808260" lon="-1.7760050">
        <ele>1508.4</ele>
        <time>2019-07-05T13:27:27Z</time>
      </trkpt>
      <trkpt lat="40.3809280" lon="-1.7759990">
        <ele>1508.4</ele>
        <time>2019-07-05T13:27:29Z</time>
      </trkpt>
      <trkpt lat="40.3811500" lon="-1.7759680">
        <ele>1508.2</ele>
        <time>2019-07-05T13:27:33Z</time>
      </trkpt>
      <trkpt lat="40.3815150" lon="-1.7759030">
        <ele>1507.0</ele>
        <time>2019-07-05T13:27:39Z</time>
      </trkpt>
      <trkpt lat="40.3815790" lon="-1.7758930">
        <ele>1506.8</ele>
        <time>2019-07-05T13:27:40Z</time>
      </trkpt>
      <trkpt lat="40.3819130" lon="-1.7758460">
        <ele>1506.2</ele>
        <time>2019-07-05T13:27:45Z</time>
      </trkpt>
      <trkpt lat="40.3819800" lon="-1.7758360">
        <ele>1505.8</ele>
        <time>2019-07-05T13:27:46Z</time>
      </trkpt>
      <trkpt lat="40.3820480" lon="-1.7758290">
        <ele>1505.6</ele>
        <time>2019-07-05T13:27:47Z</time>
      </trkpt>
      <trkpt lat="40.3823220" lon="-1.7758560">
        <ele>1505.0</ele>
        <time>2019-07-05T13:27:51Z</time>
      </trkpt>
      <trkpt lat="40.3824490" lon="-1.7759000">
        <ele>1504.4</ele>
        <time>2019-07-05T13:27:53Z</time>
      </trkpt>
      <trkpt lat="40.3825080" lon="-1.7759290">
        <ele>1503.8</ele>
        <time>2019-07-05T13:27:54Z</time>
      </trkpt>
      <trkpt lat="40.3826280" lon="-1.7759960">
        <ele>1503.6</ele>
        <time>2019-07-05T13:27:56Z</time>
      </trkpt>
      <trkpt lat="40.3828170" lon="-1.7761060">
        <ele>1503.4</ele>
        <time>2019-07-05T13:27:59Z</time>
      </trkpt>
      <trkpt lat="40.3828770" lon="-1.7761500">
        <ele>1503.0</ele>
        <time>2019-07-05T13:28:00Z</time>
      </trkpt>
      <trkpt lat="40.3829350" lon="-1.7762030">
        <ele>1503.0</ele>
        <time>2019-07-05T13:28:01Z</time>
      </trkpt>
      <trkpt lat="40.3831100" lon="-1.7763720">
        <ele>1502.4</ele>
        <time>2019-07-05T13:28:04Z</time>
      </trkpt>
      <trkpt lat="40.3831760" lon="-1.7764240">
        <ele>1502.2</ele>
        <time>2019-07-05T13:28:05Z</time>
      </trkpt>
      <trkpt lat="40.3832470" lon="-1.7764640">
        <ele>1502.2</ele>
        <time>2019-07-05T13:28:06Z</time>
      </trkpt>
      <trkpt lat="40.3833210" lon="-1.7764940">
        <ele>1501.8</ele>
        <time>2019-07-05T13:28:07Z</time>
      </trkpt>
      <trkpt lat="40.3835620" lon="-1.7765560">
        <ele>1500.6</ele>
        <time>2019-07-05T13:28:10Z</time>
      </trkpt>
      <trkpt lat="40.3836460" lon="-1.7765680">
        <ele>1500.2</ele>
        <time>2019-07-05T13:28:11Z</time>
      </trkpt>
      <trkpt lat="40.3838160" lon="-1.7766010">
        <ele>1499.0</ele>
        <time>2019-07-05T13:28:13Z</time>
      </trkpt>
      <trkpt lat="40.3840820" lon="-1.7766740">
        <ele>1497.6</ele>
        <time>2019-07-05T13:28:16Z</time>
      </trkpt>
      <trkpt lat="40.3844340" lon="-1.7767930">
        <ele>1496.6</ele>
        <time>2019-07-05T13:28:20Z</time>
      </trkpt>
      <trkpt lat="40.3845200" lon="-1.7768270">
        <ele>1496.6</ele>
        <time>2019-07-05T13:28:21Z</time>
      </trkpt>
      <trkpt lat="40.3846010" lon="-1.7768630">
        <ele>1496.4</ele>
        <time>2019-07-05T13:28:22Z</time>
      </trkpt>
      <trkpt lat="40.3848260" lon="-1.7769600">
        <ele>1496.0</ele>
        <time>2019-07-05T13:28:25Z</time>
      </trkpt>
      <trkpt lat="40.3848940" lon="-1.7769930">
        <ele>1495.6</ele>
        <time>2019-07-05T13:28:26Z</time>
      </trkpt>
      <trkpt lat="40.3850710" lon="-1.7770710">
        <ele>1495.2</ele>
        <time>2019-07-05T13:28:29Z</time>
      </trkpt>
      <trkpt lat="40.3851250" lon="-1.7770970">
        <ele>1495.4</ele>
        <time>2019-07-05T13:28:30Z</time>
      </trkpt>
      <trkpt lat="40.3851740" lon="-1.7771300">
        <ele>1495.8</ele>
        <time>2019-07-05T13:28:31Z</time>
      </trkpt>
      <trkpt lat="40.3852930" lon="-1.7772380">
        <ele>1496.4</ele>
        <time>2019-07-05T13:28:34Z</time>
      </trkpt>
      <trkpt lat="40.3853600" lon="-1.7773140">
        <ele>1496.6</ele>
        <time>2019-07-05T13:28:36Z</time>
      </trkpt>
      <trkpt lat="40.3853900" lon="-1.7773540">
        <ele>1496.8</ele>
        <time>2019-07-05T13:28:37Z</time>
      </trkpt>
      <trkpt lat="40.3854460" lon="-1.7774370">
        <ele>1497.2</ele>
        <time>2019-07-05T13:28:39Z</time>
      </trkpt>
      <trkpt lat="40.3855560" lon="-1.7775910">
        <ele>1497.6</ele>
        <time>2019-07-05T13:28:43Z</time>
      </trkpt>
      <trkpt lat="40.3855810" lon="-1.7776350">
        <ele>1497.8</ele>
        <time>2019-07-05T13:28:44Z</time>
      </trkpt>
      <trkpt lat="40.3856050" lon="-1.7776810">
        <ele>1498.0</ele>
        <time>2019-07-05T13:28:45Z</time>
      </trkpt>
      <trkpt lat="40.3856560" lon="-1.7777680">
        <ele>1498.2</ele>
        <time>2019-07-05T13:28:47Z</time>
      </trkpt>
      <trkpt lat="40.3857370" lon="-1.7779030">
        <ele>1498.6</ele>
        <time>2019-07-05T13:28:50Z</time>
      </trkpt>
      <trkpt lat="40.3858230" lon="-1.7780330">
        <ele>1499.0</ele>
        <time>2019-07-05T13:28:53Z</time>
      </trkpt>
      <trkpt lat="40.3858750" lon="-1.7781190">
        <ele>1499.2</ele>
        <time>2019-07-05T13:28:55Z</time>
      </trkpt>
      <trkpt lat="40.3859260" lon="-1.7782060">
        <ele>1499.0</ele>
        <time>2019-07-05T13:28:57Z</time>
      </trkpt>
      <trkpt lat="40.3859530" lon="-1.7782500">
        <ele>1498.8</ele>
        <time>2019-07-05T13:28:58Z</time>
      </trkpt>
      <trkpt lat="40.3860900" lon="-1.7784850">
        <ele>1499.0</ele>
        <time>2019-07-05T13:29:03Z</time>
      </trkpt>
      <trkpt lat="40.3862850" lon="-1.7788610">
        <ele>1499.2</ele>
        <time>2019-07-05T13:29:10Z</time>
      </trkpt>
      <trkpt lat="40.3864140" lon="-1.7790900">
        <ele>1499.6</ele>
        <time>2019-07-05T13:29:14Z</time>
      </trkpt>
      <trkpt lat="40.3864720" lon="-1.7792130">
        <ele>1499.4</ele>
        <time>2019-07-05T13:29:16Z</time>
      </trkpt>
      <trkpt lat="40.3864980" lon="-1.7792800">
        <ele>1499.2</ele>
        <time>2019-07-05T13:29:17Z</time>
      </trkpt>
      <trkpt lat="40.3865590" lon="-1.7794970">
        <ele>1499.0</ele>
        <time>2019-07-05T13:29:20Z</time>
      </trkpt>
      <trkpt lat="40.3866210" lon="-1.7797390">
        <ele>1498.6</ele>
        <time>2019-07-05T13:29:23Z</time>
      </trkpt>
      <trkpt lat="40.3866610" lon="-1.7799180">
        <ele>1498.2</ele>
        <time>2019-07-05T13:29:25Z</time>
      </trkpt>
      <trkpt lat="40.3866870" lon="-1.7800100">
        <ele>1498.0</ele>
        <time>2019-07-05T13:29:26Z</time>
      </trkpt>
      <trkpt lat="40.3867210" lon="-1.7800980">
        <ele>1497.8</ele>
        <time>2019-07-05T13:29:27Z</time>
      </trkpt>
      <trkpt lat="40.3868000" lon="-1.7802600">
        <ele>1497.4</ele>
        <time>2019-07-05T13:29:29Z</time>
      </trkpt>
      <trkpt lat="40.3868440" lon="-1.7803320">
        <ele>1497.0</ele>
        <time>2019-07-05T13:29:30Z</time>
      </trkpt>
      <trkpt lat="40.3869440" lon="-1.7804640">
        <ele>1495.8</ele>
        <time>2019-07-05T13:29:32Z</time>
      </trkpt>
      <trkpt lat="40.3869990" lon="-1.7805190">
        <ele>1495.8</ele>
        <time>2019-07-05T13:29:33Z</time>
      </trkpt>
      <trkpt lat="40.3870570" lon="-1.7805720">
        <ele>1495.8</ele>
        <time>2019-07-05T13:29:34Z</time>
      </trkpt>
      <trkpt lat="40.3871710" lon="-1.7806690">
        <ele>1495.8</ele>
        <time>2019-07-05T13:29:36Z</time>
      </trkpt>
      <trkpt lat="40.3872880" lon="-1.7807570">
        <ele>1496.0</ele>
        <time>2019-07-05T13:29:38Z</time>
      </trkpt>
      <trkpt lat="40.3875020" lon="-1.7809440">
        <ele>1495.8</ele>
        <time>2019-07-05T13:29:42Z</time>
      </trkpt>
      <trkpt lat="40.3875590" lon="-1.7809880">
        <ele>1495.6</ele>
        <time>2019-07-05T13:29:43Z</time>
      </trkpt>
      <trkpt lat="40.3876720" lon="-1.7810810">
        <ele>1495.0</ele>
        <time>2019-07-05T13:29:45Z</time>
      </trkpt>
      <trkpt lat="40.3877320" lon="-1.7811250">
        <ele>1494.6</ele>
        <time>2019-07-05T13:29:46Z</time>
      </trkpt>
      <trkpt lat="40.3877990" lon="-1.7811650">
        <ele>1494.4</ele>
        <time>2019-07-05T13:29:47Z</time>
      </trkpt>
      <trkpt lat="40.3878730" lon="-1.7812000">
        <ele>1493.8</ele>
        <time>2019-07-05T13:29:48Z</time>
      </trkpt>
      <trkpt lat="40.3879510" lon="-1.7812300">
        <ele>1493.6</ele>
        <time>2019-07-05T13:29:49Z</time>
      </trkpt>
      <trkpt lat="40.3881140" lon="-1.7812750">
        <ele>1493.2</ele>
        <time>2019-07-05T13:29:51Z</time>
      </trkpt>
      <trkpt lat="40.3881970" lon="-1.7812850">
        <ele>1493.0</ele>
        <time>2019-07-05T13:29:52Z</time>
      </trkpt>
      <trkpt lat="40.3883570" lon="-1.7812840">
        <ele>1492.6</ele>
        <time>2019-07-05T13:29:54Z</time>
      </trkpt>
      <trkpt lat="40.3884930" lon="-1.7812530">
        <ele>1492.4</ele>
        <time>2019-07-05T13:29:56Z</time>
      </trkpt>
      <trkpt lat="40.3886350" lon="-1.7811640">
        <ele>1492.4</ele>
        <time>2019-07-05T13:29:59Z</time>
      </trkpt>
      <trkpt lat="40.3886720" lon="-1.7811310">
        <ele>1492.4</ele>
        <time>2019-07-05T13:30:00Z</time>
      </trkpt>
      <trkpt lat="40.3887070" lon="-1.7810970">
        <ele>1492.8</ele>
        <time>2019-07-05T13:30:01Z</time>
      </trkpt>
      <trkpt lat="40.3887670" lon="-1.7810300">
        <ele>1493.2</ele>
        <time>2019-07-05T13:30:03Z</time>
      </trkpt>
      <trkpt lat="40.3887940" lon="-1.7809920">
        <ele>1493.8</ele>
        <time>2019-07-05T13:30:04Z</time>
      </trkpt>
      <trkpt lat="40.3888180" lon="-1.7809540">
        <ele>1494.0</ele>
        <time>2019-07-05T13:30:05Z</time>
      </trkpt>
      <trkpt lat="40.3888970" lon="-1.7808700">
        <ele>1494.6</ele>
        <time>2019-07-05T13:30:08Z</time>
      </trkpt>
      <trkpt lat="40.3889250" lon="-1.7808440">
        <ele>1494.8</ele>
        <time>2019-07-05T13:30:09Z</time>
      </trkpt>
      <trkpt lat="40.3889530" lon="-1.7808200">
        <ele>1495.0</ele>
        <time>2019-07-05T13:30:10Z</time>
      </trkpt>
      <trkpt lat="40.3890820" lon="-1.7807630">
        <ele>1495.6</ele>
        <time>2019-07-05T13:30:14Z</time>
      </trkpt>
      <trkpt lat="40.3891610" lon="-1.7807510">
        <ele>1495.8</ele>
        <time>2019-07-05T13:30:16Z</time>
      </trkpt>
      <trkpt lat="40.3894180" lon="-1.7807780">
        <ele>1495.2</ele>
        <time>2019-07-05T13:30:22Z</time>
      </trkpt>
      <trkpt lat="40.3894650" lon="-1.7807910">
        <ele>1495.2</ele>
        <time>2019-07-05T13:30:23Z</time>
      </trkpt>
      <trkpt lat="40.3896060" lon="-1.7808620">
        <ele>1494.8</ele>
        <time>2019-07-05T13:30:26Z</time>
      </trkpt>
      <trkpt lat="40.3896560" lon="-1.7808970">
        <ele>1494.8</ele>
        <time>2019-07-05T13:30:27Z</time>
      </trkpt>
      <trkpt lat="40.3897060" lon="-1.7809380">
        <ele>1494.6</ele>
        <time>2019-07-05T13:30:28Z</time>
      </trkpt>
      <trkpt lat="40.3898970" lon="-1.7811070">
        <ele>1494.0</ele>
        <time>2019-07-05T13:30:32Z</time>
      </trkpt>
      <trkpt lat="40.3899440" lon="-1.7811590">
        <ele>1493.6</ele>
        <time>2019-07-05T13:30:33Z</time>
      </trkpt>
      <trkpt lat="40.3899940" lon="-1.7812150">
        <ele>1493.4</ele>
        <time>2019-07-05T13:30:34Z</time>
      </trkpt>
      <trkpt lat="40.3901530" lon="-1.7813740">
        <ele>1493.0</ele>
        <time>2019-07-05T13:30:37Z</time>
      </trkpt>
      <trkpt lat="40.3902700" lon="-1.7814770">
        <ele>1492.6</ele>
        <time>2019-07-05T13:30:39Z</time>
      </trkpt>
      <trkpt lat="40.3903810" lon="-1.7815930">
        <ele>1491.6</ele>
        <time>2019-07-05T13:30:41Z</time>
      </trkpt>
      <trkpt lat="40.3904410" lon="-1.7816560">
        <ele>1491.4</ele>
        <time>2019-07-05T13:30:42Z</time>
      </trkpt>
      <trkpt lat="40.3905690" lon="-1.7817770">
        <ele>1490.8</ele>
        <time>2019-07-05T13:30:44Z</time>
      </trkpt>
      <trkpt lat="40.3907020" lon="-1.7819040">
        <ele>1490.4</ele>
        <time>2019-07-05T13:30:46Z</time>
      </trkpt>
      <trkpt lat="40.3907700" lon="-1.7819720">
        <ele>1490.4</ele>
        <time>2019-07-05T13:30:47Z</time>
      </trkpt>
      <trkpt lat="40.3908410" lon="-1.7820430">
        <ele>1490.2</ele>
        <time>2019-07-05T13:30:48Z</time>
      </trkpt>
      <trkpt lat="40.3909830" lon="-1.7821880">
        <ele>1488.8</ele>
        <time>2019-07-05T13:30:50Z</time>
      </trkpt>
      <trkpt lat="40.3911970" lon="-1.7824100">
        <ele>1487.8</ele>
        <time>2019-07-05T13:30:53Z</time>
      </trkpt>
      <trkpt lat="40.3912600" lon="-1.7824920">
        <ele>1487.6</ele>
        <time>2019-07-05T13:30:54Z</time>
      </trkpt>
      <trkpt lat="40.3913210" lon="-1.7825850">
        <ele>1487.2</ele>
        <time>2019-07-05T13:30:55Z</time>
      </trkpt>
      <trkpt lat="40.3913750" lon="-1.7826860">
        <ele>1486.8</ele>
        <time>2019-07-05T13:30:56Z</time>
      </trkpt>
      <trkpt lat="40.3914510" lon="-1.7829070">
        <ele>1485.0</ele>
        <time>2019-07-05T13:30:58Z</time>
      </trkpt>
      <trkpt lat="40.3915000" lon="-1.7832680">
        <ele>1484.2</ele>
        <time>2019-07-05T13:31:01Z</time>
      </trkpt>
      <trkpt lat="40.3915120" lon="-1.7833870">
        <ele>1484.0</ele>
        <time>2019-07-05T13:31:02Z</time>
      </trkpt>
      <trkpt lat="40.3915560" lon="-1.7836100">
        <ele>1483.2</ele>
        <time>2019-07-05T13:31:04Z</time>
      </trkpt>
      <trkpt lat="40.3915830" lon="-1.7837120">
        <ele>1482.8</ele>
        <time>2019-07-05T13:31:05Z</time>
      </trkpt>
      <trkpt lat="40.3916110" lon="-1.7838100">
        <ele>1482.6</ele>
        <time>2019-07-05T13:31:06Z</time>
      </trkpt>
      <trkpt lat="40.3917610" lon="-1.7842360">
        <ele>1482.2</ele>
        <time>2019-07-05T13:31:11Z</time>
      </trkpt>
      <trkpt lat="40.3917830" lon="-1.7843200">
        <ele>1482.2</ele>
        <time>2019-07-05T13:31:12Z</time>
      </trkpt>
      <trkpt lat="40.3917880" lon="-1.7845760">
        <ele>1481.6</ele>
        <time>2019-07-05T13:31:15Z</time>
      </trkpt>
      <trkpt lat="40.3916460" lon="-1.7847560">
        <ele>1481.2</ele>
        <time>2019-07-05T13:31:18Z</time>
      </trkpt>
      <trkpt lat="40.3915220" lon="-1.7848170">
        <ele>1481.2</ele>
        <time>2019-07-05T13:31:20Z</time>
      </trkpt>
      <trkpt lat="40.3914620" lon="-1.7848510">
        <ele>1481.6</ele>
        <time>2019-07-05T13:31:21Z</time>
      </trkpt>
      <trkpt lat="40.3914050" lon="-1.7848890">
        <ele>1481.8</ele>
        <time>2019-07-05T13:31:22Z</time>
      </trkpt>
      <trkpt lat="40.3912640" lon="-1.7850140">
        <ele>1482.0</ele>
        <time>2019-07-05T13:31:25Z</time>
      </trkpt>
      <trkpt lat="40.3912200" lon="-1.7850600">
        <ele>1482.0</ele>
        <time>2019-07-05T13:31:26Z</time>
      </trkpt>
      <trkpt lat="40.3911820" lon="-1.7851070">
        <ele>1482.2</ele>
        <time>2019-07-05T13:31:27Z</time>
      </trkpt>
      <trkpt lat="40.3910730" lon="-1.7852550">
        <ele>1482.2</ele>
        <time>2019-07-05T13:31:30Z</time>
      </trkpt>
      <trkpt lat="40.3910100" lon="-1.7853700">
        <ele>1482.0</ele>
        <time>2019-07-05T13:31:32Z</time>
      </trkpt>
      <trkpt lat="40.3909570" lon="-1.7855670">
        <ele>1481.4</ele>
        <time>2019-07-05T13:31:35Z</time>
      </trkpt>
      <trkpt lat="40.3909630" lon="-1.7858450">
        <ele>1480.8</ele>
        <time>2019-07-05T13:31:39Z</time>
      </trkpt>
      <trkpt lat="40.3909680" lon="-1.7859080">
        <ele>1480.6</ele>
        <time>2019-07-05T13:31:40Z</time>
      </trkpt>
      <trkpt lat="40.3909860" lon="-1.7861740">
        <ele>1480.6</ele>
        <time>2019-07-05T13:31:44Z</time>
      </trkpt>
      <trkpt lat="40.3909980" lon="-1.7862430">
        <ele>1480.6</ele>
        <time>2019-07-05T13:31:45Z</time>
      </trkpt>
      <trkpt lat="40.3910770" lon="-1.7866700">
        <ele>1480.4</ele>
        <time>2019-07-05T13:31:51Z</time>
      </trkpt>
      <trkpt lat="40.3910890" lon="-1.7868060">
        <ele>1480.4</ele>
        <time>2019-07-05T13:31:53Z</time>
      </trkpt>
      <trkpt lat="40.3910990" lon="-1.7870090">
        <ele>1479.8</ele>
        <time>2019-07-05T13:31:56Z</time>
      </trkpt>
      <trkpt lat="40.3911030" lon="-1.7870750">
        <ele>1479.6</ele>
        <time>2019-07-05T13:31:57Z</time>
      </trkpt>
      <trkpt lat="40.3910920" lon="-1.7873360">
        <ele>1479.2</ele>
        <time>2019-07-05T13:32:01Z</time>
      </trkpt>
      <trkpt lat="40.3910980" lon="-1.7875350">
        <ele>1479.2</ele>
        <time>2019-07-05T13:32:04Z</time>
      </trkpt>
      <trkpt lat="40.3911100" lon="-1.7875960">
        <ele>1479.2</ele>
        <time>2019-07-05T13:32:05Z</time>
      </trkpt>
      <trkpt lat="40.3912120" lon="-1.7878120">
        <ele>1480.2</ele>
        <time>2019-07-05T13:32:09Z</time>
      </trkpt>
      <trkpt lat="40.3912360" lon="-1.7878640">
        <ele>1480.4</ele>
        <time>2019-07-05T13:32:10Z</time>
      </trkpt>
      <trkpt lat="40.3913120" lon="-1.7881180">
        <ele>1480.2</ele>
        <time>2019-07-05T13:32:14Z</time>
      </trkpt>
      <trkpt lat="40.3913650" lon="-1.7883340">
        <ele>1479.4</ele>
        <time>2019-07-05T13:32:17Z</time>
      </trkpt>
      <trkpt lat="40.3913970" lon="-1.7884860">
        <ele>1479.4</ele>
        <time>2019-07-05T13:32:19Z</time>
      </trkpt>
      <trkpt lat="40.3914420" lon="-1.7887120">
        <ele>1479.0</ele>
        <time>2019-07-05T13:32:22Z</time>
      </trkpt>
      <trkpt lat="40.3914620" lon="-1.7887850">
        <ele>1479.0</ele>
        <time>2019-07-05T13:32:23Z</time>
      </trkpt>
      <trkpt lat="40.3915260" lon="-1.7889060">
        <ele>1479.4</ele>
        <time>2019-07-05T13:32:25Z</time>
      </trkpt>
      <trkpt lat="40.3916120" lon="-1.7889960">
        <ele>1479.0</ele>
        <time>2019-07-05T13:32:27Z</time>
      </trkpt>
      <trkpt lat="40.3917070" lon="-1.7890710">
        <ele>1479.0</ele>
        <time>2019-07-05T13:32:29Z</time>
      </trkpt>
      <trkpt lat="40.3919480" lon="-1.7891520">
        <ele>1479.2</ele>
        <time>2019-07-05T13:32:34Z</time>
      </trkpt>
      <trkpt lat="40.3921410" lon="-1.7891920">
        <ele>1478.8</ele>
        <time>2019-07-05T13:32:38Z</time>
      </trkpt>
      <trkpt lat="40.3922440" lon="-1.7892130">
        <ele>1478.6</ele>
        <time>2019-07-05T13:32:40Z</time>
      </trkpt>
      <trkpt lat="40.3922950" lon="-1.7892270">
        <ele>1478.6</ele>
        <time>2019-07-05T13:32:41Z</time>
      </trkpt>
      <trkpt lat="40.3926370" lon="-1.7892830">
        <ele>1478.6</ele>
        <time>2019-07-05T13:32:47Z</time>
      </trkpt>
      <trkpt lat="40.3929540" lon="-1.7892850">
        <ele>1478.6</ele>
        <time>2019-07-05T13:32:52Z</time>
      </trkpt>
      <trkpt lat="40.3930060" lon="-1.7892740">
        <ele>1478.8</ele>
        <time>2019-07-05T13:32:53Z</time>
      </trkpt>
      <trkpt lat="40.3931690" lon="-1.7891290">
        <ele>1479.2</ele>
        <time>2019-07-05T13:32:57Z</time>
      </trkpt>
      <trkpt lat="40.3932060" lon="-1.7890780">
        <ele>1479.4</ele>
        <time>2019-07-05T13:32:58Z</time>
      </trkpt>
      <trkpt lat="40.3933760" lon="-1.7888430">
        <ele>1480.4</ele>
        <time>2019-07-05T13:33:03Z</time>
      </trkpt>
      <trkpt lat="40.3935280" lon="-1.7886990">
        <ele>1481.6</ele>
        <time>2019-07-05T13:33:08Z</time>
      </trkpt>
      <trkpt lat="40.3935570" lon="-1.7886820">
        <ele>1482.0</ele>
        <time>2019-07-05T13:33:09Z</time>
      </trkpt>
      <trkpt lat="40.3936850" lon="-1.7886510">
        <ele>1483.0</ele>
        <time>2019-07-05T13:33:13Z</time>
      </trkpt>
      <trkpt lat="40.3937180" lon="-1.7886550">
        <ele>1483.4</ele>
        <time>2019-07-05T13:33:14Z</time>
      </trkpt>
      <trkpt lat="40.3938110" lon="-1.7886840">
        <ele>1484.4</ele>
        <time>2019-07-05T13:33:17Z</time>
      </trkpt>
      <trkpt lat="40.3938970" lon="-1.7887260">
        <ele>1484.6</ele>
        <time>2019-07-05T13:33:20Z</time>
      </trkpt>
      <trkpt lat="40.3939520" lon="-1.7887660">
        <ele>1485.2</ele>
        <time>2019-07-05T13:33:22Z</time>
      </trkpt>
      <trkpt lat="40.3940650" lon="-1.7888770">
        <ele>1485.6</ele>
        <time>2019-07-05T13:33:26Z</time>
      </trkpt>
      <trkpt lat="40.3940910" lon="-1.7889030">
        <ele>1485.6</ele>
        <time>2019-07-05T13:33:27Z</time>
      </trkpt>
      <trkpt lat="40.3941770" lon="-1.7890190">
        <ele>1486.2</ele>
        <time>2019-07-05T13:33:31Z</time>
      </trkpt>
      <trkpt lat="40.3942270" lon="-1.7890790">
        <ele>1486.2</ele>
        <time>2019-07-05T13:33:33Z</time>
      </trkpt>
      <trkpt lat="40.3943690" lon="-1.7892270">
        <ele>1486.6</ele>
        <time>2019-07-05T13:33:38Z</time>
      </trkpt>
      <trkpt lat="40.3945200" lon="-1.7894540">
        <ele>1487.4</ele>
        <time>2019-07-05T13:33:44Z</time>
      </trkpt>
      <trkpt lat="40.3945730" lon="-1.7895260">
        <ele>1488.2</ele>
        <time>2019-07-05T13:33:46Z</time>
      </trkpt>
      <trkpt lat="40.3946040" lon="-1.7895550">
        <ele>1488.4</ele>
        <time>2019-07-05T13:33:47Z</time>
      </trkpt>
      <trkpt lat="40.3947140" lon="-1.7896040">
        <ele>1488.6</ele>
        <time>2019-07-05T13:33:50Z</time>
      </trkpt>
      <trkpt lat="40.3948710" lon="-1.7896120">
        <ele>1488.0</ele>
        <time>2019-07-05T13:33:53Z</time>
      </trkpt>
      <trkpt lat="40.3950000" lon="-1.7895800">
        <ele>1487.6</ele>
        <time>2019-07-05T13:33:55Z</time>
      </trkpt>
      <trkpt lat="40.3950700" lon="-1.7895510">
        <ele>1487.0</ele>
        <time>2019-07-05T13:33:56Z</time>
      </trkpt>
      <trkpt lat="40.3952120" lon="-1.7894780">
        <ele>1485.8</ele>
        <time>2019-07-05T13:33:58Z</time>
      </trkpt>
      <trkpt lat="40.3953600" lon="-1.7894010">
        <ele>1485.0</ele>
        <time>2019-07-05T13:34:00Z</time>
      </trkpt>
      <trkpt lat="40.3954280" lon="-1.7893610">
        <ele>1484.4</ele>
        <time>2019-07-05T13:34:01Z</time>
      </trkpt>
      <trkpt lat="40.3954890" lon="-1.7893140">
        <ele>1483.6</ele>
        <time>2019-07-05T13:34:02Z</time>
      </trkpt>
      <trkpt lat="40.3955370" lon="-1.7892620">
        <ele>1483.0</ele>
        <time>2019-07-05T13:34:03Z</time>
      </trkpt>
      <trkpt lat="40.3955910" lon="-1.7891390">
        <ele>1482.4</ele>
        <time>2019-07-05T13:34:05Z</time>
      </trkpt>
      <trkpt lat="40.3955980" lon="-1.7890690">
        <ele>1482.2</ele>
        <time>2019-07-05T13:34:06Z</time>
      </trkpt>
      <trkpt lat="40.3955940" lon="-1.7889960">
        <ele>1481.8</ele>
        <time>2019-07-05T13:34:07Z</time>
      </trkpt>
      <trkpt lat="40.3955410" lon="-1.7888540">
        <ele>1480.4</ele>
        <time>2019-07-05T13:34:09Z</time>
      </trkpt>
      <trkpt lat="40.3955040" lon="-1.7887800">
        <ele>1479.6</ele>
        <time>2019-07-05T13:34:10Z</time>
      </trkpt>
      <trkpt lat="40.3954700" lon="-1.7886970">
        <ele>1479.2</ele>
        <time>2019-07-05T13:34:11Z</time>
      </trkpt>
      <trkpt lat="40.3954350" lon="-1.7885230">
        <ele>1478.6</ele>
        <time>2019-07-05T13:34:13Z</time>
      </trkpt>
      <trkpt lat="40.3954780" lon="-1.7882820">
        <ele>1478.4</ele>
        <time>2019-07-05T13:34:16Z</time>
      </trkpt>
      <trkpt lat="40.3955730" lon="-1.7881080">
        <ele>1478.6</ele>
        <time>2019-07-05T13:34:19Z</time>
      </trkpt>
      <trkpt lat="40.3956110" lon="-1.7880590">
        <ele>1478.6</ele>
        <time>2019-07-05T13:34:20Z</time>
      </trkpt>
      <trkpt lat="40.3956530" lon="-1.7880210">
        <ele>1478.4</ele>
        <time>2019-07-05T13:34:21Z</time>
      </trkpt>
      <trkpt lat="40.3958440" lon="-1.7879600">
        <ele>1479.0</ele>
        <time>2019-07-05T13:34:25Z</time>
      </trkpt>
      <trkpt lat="40.3958910" lon="-1.7879620">
        <ele>1479.0</ele>
        <time>2019-07-05T13:34:26Z</time>
      </trkpt>
      <trkpt lat="40.3960790" lon="-1.7879840">
        <ele>1479.0</ele>
        <time>2019-07-05T13:34:30Z</time>
      </trkpt>
      <trkpt lat="40.3961250" lon="-1.7879910">
        <ele>1479.0</ele>
        <time>2019-07-05T13:34:31Z</time>
      </trkpt>
      <trkpt lat="40.3961700" lon="-1.7879960">
        <ele>1479.0</ele>
        <time>2019-07-05T13:34:32Z</time>
      </trkpt>
      <trkpt lat="40.3964350" lon="-1.7880520">
        <ele>1479.0</ele>
        <time>2019-07-05T13:34:38Z</time>
      </trkpt>
      <trkpt lat="40.3966120" lon="-1.7881100">
        <ele>1478.8</ele>
        <time>2019-07-05T13:34:42Z</time>
      </trkpt>
      <trkpt lat="40.3967040" lon="-1.7881340">
        <ele>1478.6</ele>
        <time>2019-07-05T13:34:44Z</time>
      </trkpt>
      <trkpt lat="40.3967890" lon="-1.7881840">
        <ele>1478.4</ele>
        <time>2019-07-05T13:34:46Z</time>
      </trkpt>
      <trkpt lat="40.3969760" lon="-1.7882890">
        <ele>1478.0</ele>
        <time>2019-07-05T13:34:50Z</time>
      </trkpt>
      <trkpt lat="40.3970720" lon="-1.7883620">
        <ele>1477.8</ele>
        <time>2019-07-05T13:34:52Z</time>
      </trkpt>
      <trkpt lat="40.3971600" lon="-1.7884620">
        <ele>1477.6</ele>
        <time>2019-07-05T13:34:54Z</time>
      </trkpt>
      <trkpt lat="40.3972010" lon="-1.7885180">
        <ele>1477.6</ele>
        <time>2019-07-05T13:34:55Z</time>
      </trkpt>
      <trkpt lat="40.3973600" lon="-1.7887440">
        <ele>1477.6</ele>
        <time>2019-07-05T13:34:59Z</time>
      </trkpt>
      <trkpt lat="40.3973870" lon="-1.7888110">
        <ele>1477.6</ele>
        <time>2019-07-05T13:35:00Z</time>
      </trkpt>
      <trkpt lat="40.3974670" lon="-1.7890320">
        <ele>1477.4</ele>
        <time>2019-07-05T13:35:03Z</time>
      </trkpt>
      <trkpt lat="40.3974880" lon="-1.7891100">
        <ele>1477.2</ele>
        <time>2019-07-05T13:35:04Z</time>
      </trkpt>
      <trkpt lat="40.3975160" lon="-1.7892700">
        <ele>1476.8</ele>
        <time>2019-07-05T13:35:06Z</time>
      </trkpt>
      <trkpt lat="40.3974740" lon="-1.7896830">
        <ele>1476.4</ele>
        <time>2019-07-05T13:35:11Z</time>
      </trkpt>
      <trkpt lat="40.3974620" lon="-1.7898420">
        <ele>1476.2</ele>
        <time>2019-07-05T13:35:13Z</time>
      </trkpt>
      <trkpt lat="40.3974470" lon="-1.7900940">
        <ele>1476.0</ele>
        <time>2019-07-05T13:35:16Z</time>
      </trkpt>
      <trkpt lat="40.3973940" lon="-1.7905780">
        <ele>1476.0</ele>
        <time>2019-07-05T13:35:22Z</time>
      </trkpt>
      <trkpt lat="40.3973790" lon="-1.7906500">
        <ele>1476.2</ele>
        <time>2019-07-05T13:35:23Z</time>
      </trkpt>
      <trkpt lat="40.3972910" lon="-1.7909000">
        <ele>1476.4</ele>
        <time>2019-07-05T13:35:27Z</time>
      </trkpt>
      <trkpt lat="40.3972630" lon="-1.7909520">
        <ele>1476.8</ele>
        <time>2019-07-05T13:35:28Z</time>
      </trkpt>
      <trkpt lat="40.3971700" lon="-1.7910930">
        <ele>1477.0</ele>
        <time>2019-07-05T13:35:31Z</time>
      </trkpt>
      <trkpt lat="40.3971390" lon="-1.7911390">
        <ele>1477.2</ele>
        <time>2019-07-05T13:35:32Z</time>
      </trkpt>
      <trkpt lat="40.3971100" lon="-1.7911900">
        <ele>1477.4</ele>
        <time>2019-07-05T13:35:33Z</time>
      </trkpt>
      <trkpt lat="40.3970370" lon="-1.7913630">
        <ele>1477.2</ele>
        <time>2019-07-05T13:35:36Z</time>
      </trkpt>
      <trkpt lat="40.3970180" lon="-1.7914310">
        <ele>1477.0</ele>
        <time>2019-07-05T13:35:37Z</time>
      </trkpt>
      <trkpt lat="40.3969890" lon="-1.7915770">
        <ele>1476.4</ele>
        <time>2019-07-05T13:35:39Z</time>
      </trkpt>
      <trkpt lat="40.3969830" lon="-1.7916570">
        <ele>1476.2</ele>
        <time>2019-07-05T13:35:40Z</time>
      </trkpt>
      <trkpt lat="40.3970000" lon="-1.7918310">
        <ele>1475.4</ele>
        <time>2019-07-05T13:35:42Z</time>
      </trkpt>
      <trkpt lat="40.3970180" lon="-1.7919120">
        <ele>1475.0</ele>
        <time>2019-07-05T13:35:43Z</time>
      </trkpt>
      <trkpt lat="40.3970980" lon="-1.7921230">
        <ele>1474.0</ele>
        <time>2019-07-05T13:35:46Z</time>
      </trkpt>
      <trkpt lat="40.3972970" lon="-1.7925740">
        <ele>1474.4</ele>
        <time>2019-07-05T13:35:53Z</time>
      </trkpt>
      <trkpt lat="40.3973760" lon="-1.7927610">
        <ele>1474.4</ele>
        <time>2019-07-05T13:35:56Z</time>
      </trkpt>
      <trkpt lat="40.3974080" lon="-1.7929080">
        <ele>1474.0</ele>
        <time>2019-07-05T13:35:58Z</time>
      </trkpt>
      <trkpt lat="40.3974170" lon="-1.7929810">
        <ele>1473.8</ele>
        <time>2019-07-05T13:35:59Z</time>
      </trkpt>
      <trkpt lat="40.3974430" lon="-1.7932040">
        <ele>1473.6</ele>
        <time>2019-07-05T13:36:02Z</time>
      </trkpt>
      <trkpt lat="40.3974490" lon="-1.7932790">
        <ele>1473.6</ele>
        <time>2019-07-05T13:36:03Z</time>
      </trkpt>
      <trkpt lat="40.3974580" lon="-1.7934950">
        <ele>1474.4</ele>
        <time>2019-07-05T13:36:06Z</time>
      </trkpt>
      <trkpt lat="40.3974710" lon="-1.7936510">
        <ele>1474.2</ele>
        <time>2019-07-05T13:36:08Z</time>
      </trkpt>
      <trkpt lat="40.3974810" lon="-1.7938730">
        <ele>1473.6</ele>
        <time>2019-07-05T13:36:11Z</time>
      </trkpt>
      <trkpt lat="40.3974600" lon="-1.7940710">
        <ele>1473.6</ele>
        <time>2019-07-05T13:36:14Z</time>
      </trkpt>
      <trkpt lat="40.3973940" lon="-1.7943290">
        <ele>1474.4</ele>
        <time>2019-07-05T13:36:18Z</time>
      </trkpt>
      <trkpt lat="40.3973730" lon="-1.7943880">
        <ele>1474.6</ele>
        <time>2019-07-05T13:36:19Z</time>
      </trkpt>
      <trkpt lat="40.3973180" lon="-1.7945790">
        <ele>1474.8</ele>
        <time>2019-07-05T13:36:22Z</time>
      </trkpt>
      <trkpt lat="40.3972730" lon="-1.7947940">
        <ele>1474.6</ele>
        <time>2019-07-05T13:36:25Z</time>
      </trkpt>
      <trkpt lat="40.3972800" lon="-1.7951880">
        <ele>1473.8</ele>
        <time>2019-07-05T13:36:30Z</time>
      </trkpt>
      <trkpt lat="40.3972900" lon="-1.7952690">
        <ele>1473.6</ele>
        <time>2019-07-05T13:36:31Z</time>
      </trkpt>
      <trkpt lat="40.3973510" lon="-1.7954940">
        <ele>1473.0</ele>
        <time>2019-07-05T13:36:34Z</time>
      </trkpt>
      <trkpt lat="40.3973770" lon="-1.7955560">
        <ele>1472.8</ele>
        <time>2019-07-05T13:36:35Z</time>
      </trkpt>
      <trkpt lat="40.3974360" lon="-1.7956620">
        <ele>1472.8</ele>
        <time>2019-07-05T13:36:37Z</time>
      </trkpt>
      <trkpt lat="40.3974930" lon="-1.7957630">
        <ele>1473.0</ele>
        <time>2019-07-05T13:36:39Z</time>
      </trkpt>
      <trkpt lat="40.3975980" lon="-1.7959480">
        <ele>1473.0</ele>
        <time>2019-07-05T13:36:43Z</time>
      </trkpt>
      <trkpt lat="40.3976500" lon="-1.7960420">
        <ele>1473.0</ele>
        <time>2019-07-05T13:36:45Z</time>
      </trkpt>
      <trkpt lat="40.3976740" lon="-1.7960930">
        <ele>1473.0</ele>
        <time>2019-07-05T13:36:46Z</time>
      </trkpt>
      <trkpt lat="40.3977140" lon="-1.7962080">
        <ele>1473.0</ele>
        <time>2019-07-05T13:36:48Z</time>
      </trkpt>
      <trkpt lat="40.3977330" lon="-1.7962650">
        <ele>1473.0</ele>
        <time>2019-07-05T13:36:49Z</time>
      </trkpt>
      <trkpt lat="40.3977920" lon="-1.7964320">
        <ele>1473.2</ele>
        <time>2019-07-05T13:36:52Z</time>
      </trkpt>
      <trkpt lat="40.3978410" lon="-1.7966200">
        <ele>1472.8</ele>
        <time>2019-07-05T13:36:55Z</time>
      </trkpt>
      <trkpt lat="40.3978720" lon="-1.7967300">
        <ele>1472.8</ele>
        <time>2019-07-05T13:36:57Z</time>
      </trkpt>
      <trkpt lat="40.3979230" lon="-1.7969600">
        <ele>1472.4</ele>
        <time>2019-07-05T13:37:01Z</time>
      </trkpt>
      <trkpt lat="40.3979760" lon="-1.7972440">
        <ele>1472.0</ele>
        <time>2019-07-05T13:37:06Z</time>
      </trkpt>
      <trkpt lat="40.3980510" lon="-1.7975900">
        <ele>1472.2</ele>
        <time>2019-07-05T13:37:12Z</time>
      </trkpt>
      <trkpt lat="40.3980800" lon="-1.7977050">
        <ele>1472.4</ele>
        <time>2019-07-05T13:37:14Z</time>
      </trkpt>
      <trkpt lat="40.3980980" lon="-1.7977630">
        <ele>1472.4</ele>
        <time>2019-07-05T13:37:15Z</time>
      </trkpt>
      <trkpt lat="40.3981290" lon="-1.7978750">
        <ele>1472.6</ele>
        <time>2019-07-05T13:37:17Z</time>
      </trkpt>
      <trkpt lat="40.3981600" lon="-1.7979900">
        <ele>1472.8</ele>
        <time>2019-07-05T13:37:19Z</time>
      </trkpt>
      <trkpt lat="40.3982500" lon="-1.7983690">
        <ele>1473.0</ele>
        <time>2019-07-05T13:37:26Z</time>
      </trkpt>
      <trkpt lat="40.3982640" lon="-1.7984690">
        <ele>1473.2</ele>
        <time>2019-07-05T13:37:28Z</time>
      </trkpt>
      <trkpt lat="40.3982700" lon="-1.7986660">
        <ele>1473.6</ele>
        <time>2019-07-05T13:37:32Z</time>
      </trkpt>
      <trkpt lat="40.3982610" lon="-1.7987730">
        <ele>1473.8</ele>
        <time>2019-07-05T13:37:34Z</time>
      </trkpt>
      <trkpt lat="40.3982150" lon="-1.7989420">
        <ele>1474.0</ele>
        <time>2019-07-05T13:37:37Z</time>
      </trkpt>
      <trkpt lat="40.3981570" lon="-1.7993650">
        <ele>1473.4</ele>
        <time>2019-07-05T13:37:43Z</time>
      </trkpt>
      <trkpt lat="40.3981720" lon="-1.7999240">
        <ele>1472.6</ele>
        <time>2019-07-05T13:37:50Z</time>
      </trkpt>
      <trkpt lat="40.3982860" lon="-1.8004310">
        <ele>1472.8</ele>
        <time>2019-07-05T13:37:57Z</time>
      </trkpt>
      <trkpt lat="40.3983370" lon="-1.8005650">
        <ele>1472.4</ele>
        <time>2019-07-05T13:37:59Z</time>
      </trkpt>
      <trkpt lat="40.3983940" lon="-1.8006950">
        <ele>1471.4</ele>
        <time>2019-07-05T13:38:01Z</time>
      </trkpt>
      <trkpt lat="40.3984250" lon="-1.8007620">
        <ele>1471.2</ele>
        <time>2019-07-05T13:38:02Z</time>
      </trkpt>
      <trkpt lat="40.3984840" lon="-1.8009000">
        <ele>1470.8</ele>
        <time>2019-07-05T13:38:04Z</time>
      </trkpt>
      <trkpt lat="40.3985390" lon="-1.8010310">
        <ele>1470.0</ele>
        <time>2019-07-05T13:38:06Z</time>
      </trkpt>
      <trkpt lat="40.3986020" lon="-1.8011540">
        <ele>1469.6</ele>
        <time>2019-07-05T13:38:08Z</time>
      </trkpt>
      <trkpt lat="40.3986340" lon="-1.8012190">
        <ele>1469.4</ele>
        <time>2019-07-05T13:38:09Z</time>
      </trkpt>
      <trkpt lat="40.3986940" lon="-1.8013420">
        <ele>1469.2</ele>
        <time>2019-07-05T13:38:11Z</time>
      </trkpt>
      <trkpt lat="40.3987840" lon="-1.8016260">
        <ele>1469.0</ele>
        <time>2019-07-05T13:38:15Z</time>
      </trkpt>
      <trkpt lat="40.3988580" lon="-1.8019840">
        <ele>1469.0</ele>
        <time>2019-07-05T13:38:20Z</time>
      </trkpt>
      <trkpt lat="40.3988650" lon="-1.8020620">
        <ele>1468.8</ele>
        <time>2019-07-05T13:38:21Z</time>
      </trkpt>
      <trkpt lat="40.3988590" lon="-1.8023120">
        <ele>1468.4</ele>
        <time>2019-07-05T13:38:24Z</time>
      </trkpt>
      <trkpt lat="40.3988310" lon="-1.8024790">
        <ele>1468.0</ele>
        <time>2019-07-05T13:38:26Z</time>
      </trkpt>
      <trkpt lat="40.3988100" lon="-1.8025640">
        <ele>1467.6</ele>
        <time>2019-07-05T13:38:27Z</time>
      </trkpt>
      <trkpt lat="40.3987850" lon="-1.8026470">
        <ele>1467.6</ele>
        <time>2019-07-05T13:38:28Z</time>
      </trkpt>
      <trkpt lat="40.3987000" lon="-1.8028860">
        <ele>1466.8</ele>
        <time>2019-07-05T13:38:31Z</time>
      </trkpt>
      <trkpt lat="40.3986440" lon="-1.8030390">
        <ele>1466.4</ele>
        <time>2019-07-05T13:38:33Z</time>
      </trkpt>
      <trkpt lat="40.3985960" lon="-1.8031880">
        <ele>1466.4</ele>
        <time>2019-07-05T13:38:35Z</time>
      </trkpt>
      <trkpt lat="40.3985070" lon="-1.8034760">
        <ele>1465.6</ele>
        <time>2019-07-05T13:38:39Z</time>
      </trkpt>
      <trkpt lat="40.3984700" lon="-1.8036250">
        <ele>1465.2</ele>
        <time>2019-07-05T13:38:41Z</time>
      </trkpt>
      <trkpt lat="40.3983980" lon="-1.8039270">
        <ele>1464.6</ele>
        <time>2019-07-05T13:38:45Z</time>
      </trkpt>
      <trkpt lat="40.3983690" lon="-1.8040720">
        <ele>1464.2</ele>
        <time>2019-07-05T13:38:47Z</time>
      </trkpt>
      <trkpt lat="40.3983600" lon="-1.8041480">
        <ele>1464.4</ele>
        <time>2019-07-05T13:38:48Z</time>
      </trkpt>
      <trkpt lat="40.3983570" lon="-1.8042220">
        <ele>1464.4</ele>
        <time>2019-07-05T13:38:49Z</time>
      </trkpt>
      <trkpt lat="40.3983500" lon="-1.8045010">
        <ele>1464.6</ele>
        <time>2019-07-05T13:38:53Z</time>
      </trkpt>
      <trkpt lat="40.3983430" lon="-1.8046330">
        <ele>1464.6</ele>
        <time>2019-07-05T13:38:55Z</time>
      </trkpt>
      <trkpt lat="40.3983310" lon="-1.8048710">
        <ele>1464.8</ele>
        <time>2019-07-05T13:38:59Z</time>
      </trkpt>
      <trkpt lat="40.3982700" lon="-1.8050860">
        <ele>1465.4</ele>
        <time>2019-07-05T13:39:04Z</time>
      </trkpt>
      <trkpt lat="40.3982160" lon="-1.8051320">
        <ele>1465.8</ele>
        <time>2019-07-05T13:39:08Z</time>
      </trkpt>
      <trkpt lat="40.3982180" lon="-1.8051360">
        <ele>1465.8</ele>
        <time>2019-07-05T13:39:09Z</time>
      </trkpt>
      <trkpt lat="40.3982790" lon="-1.8051790">
        <ele>1466.4</ele>
        <time>2019-07-05T13:41:12Z</time>
      </trkpt>
      <trkpt lat="40.3983380" lon="-1.8051970">
        <ele>1466.6</ele>
        <time>2019-07-05T13:41:14Z</time>
      </trkpt>
      <trkpt lat="40.3984560" lon="-1.8052770">
        <ele>1466.6</ele>
        <time>2019-07-05T13:41:18Z</time>
      </trkpt>
      <trkpt lat="40.3985130" lon="-1.8053130">
        <ele>1466.6</ele>
        <time>2019-07-05T13:41:20Z</time>
      </trkpt>
      <trkpt lat="40.3986350" lon="-1.8054130">
        <ele>1467.0</ele>
        <time>2019-07-05T13:41:25Z</time>
      </trkpt>
      <trkpt lat="40.3986580" lon="-1.8054340">
        <ele>1467.4</ele>
        <time>2019-07-05T13:41:26Z</time>
      </trkpt>
      <trkpt lat="40.3986780" lon="-1.8054620">
        <ele>1467.6</ele>
        <time>2019-07-05T13:41:27Z</time>
      </trkpt>
      <trkpt lat="40.3987320" lon="-1.8055360">
        <ele>1468.4</ele>
        <time>2019-07-05T13:41:30Z</time>
      </trkpt>
      <trkpt lat="40.3987510" lon="-1.8055640">
        <ele>1468.6</ele>
        <time>2019-07-05T13:41:31Z</time>
      </trkpt>
      <trkpt lat="40.3987930" lon="-1.8056540">
        <ele>1469.0</ele>
        <time>2019-07-05T13:41:34Z</time>
      </trkpt>
      <trkpt lat="40.3988270" lon="-1.8057560">
        <ele>1469.6</ele>
        <time>2019-07-05T13:41:37Z</time>
      </trkpt>
      <trkpt lat="40.3988360" lon="-1.8057900">
        <ele>1469.8</ele>
        <time>2019-07-05T13:41:38Z</time>
      </trkpt>
      <trkpt lat="40.3988440" lon="-1.8058280">
        <ele>1469.8</ele>
        <time>2019-07-05T13:41:39Z</time>
      </trkpt>
      <trkpt lat="40.3988700" lon="-1.8059410">
        <ele>1469.8</ele>
        <time>2019-07-05T13:41:42Z</time>
      </trkpt>
      <trkpt lat="40.3988940" lon="-1.8060540">
        <ele>1470.4</ele>
        <time>2019-07-05T13:41:45Z</time>
      </trkpt>
      <trkpt lat="40.3989060" lon="-1.8060940">
        <ele>1470.6</ele>
        <time>2019-07-05T13:41:46Z</time>
      </trkpt>
      <trkpt lat="40.3989180" lon="-1.8061320">
        <ele>1471.0</ele>
        <time>2019-07-05T13:41:47Z</time>
      </trkpt>
      <trkpt lat="40.3990100" lon="-1.8063130">
        <ele>1471.2</ele>
        <time>2019-07-05T13:41:52Z</time>
      </trkpt>
      <trkpt lat="40.3990400" lon="-1.8063430">
        <ele>1471.2</ele>
        <time>2019-07-05T13:41:53Z</time>
      </trkpt>
      <trkpt lat="40.3991410" lon="-1.8064400">
        <ele>1471.4</ele>
        <time>2019-07-05T13:41:56Z</time>
      </trkpt>
      <trkpt lat="40.3992080" lon="-1.8065030">
        <ele>1471.4</ele>
        <time>2019-07-05T13:41:58Z</time>
      </trkpt>
      <trkpt lat="40.3992460" lon="-1.8065320">
        <ele>1471.4</ele>
        <time>2019-07-05T13:41:59Z</time>
      </trkpt>
      <trkpt lat="40.3992850" lon="-1.8065640">
        <ele>1471.6</ele>
        <time>2019-07-05T13:42:00Z</time>
      </trkpt>
      <trkpt lat="40.3994480" lon="-1.8066860">
        <ele>1472.2</ele>
        <time>2019-07-05T13:42:04Z</time>
      </trkpt>
      <trkpt lat="40.3997640" lon="-1.8068760">
        <ele>1471.8</ele>
        <time>2019-07-05T13:42:11Z</time>
      </trkpt>
      <trkpt lat="40.4000300" lon="-1.8070560">
        <ele>1472.2</ele>
        <time>2019-07-05T13:42:17Z</time>
      </trkpt>
      <trkpt lat="40.4002490" lon="-1.8072250">
        <ele>1472.4</ele>
        <time>2019-07-05T13:42:22Z</time>
      </trkpt>
      <trkpt lat="40.4002960" lon="-1.8072650">
        <ele>1472.4</ele>
        <time>2019-07-05T13:42:23Z</time>
      </trkpt>
      <trkpt lat="40.4004770" lon="-1.8074410">
        <ele>1471.6</ele>
        <time>2019-07-05T13:42:27Z</time>
      </trkpt>
      <trkpt lat="40.4006180" lon="-1.8075920">
        <ele>1471.6</ele>
        <time>2019-07-05T13:42:30Z</time>
      </trkpt>
      <trkpt lat="40.4007180" lon="-1.8076980">
        <ele>1471.4</ele>
        <time>2019-07-05T13:42:32Z</time>
      </trkpt>
      <trkpt lat="40.4009440" lon="-1.8079290">
        <ele>1470.6</ele>
        <time>2019-07-05T13:42:36Z</time>
      </trkpt>
      <trkpt lat="40.4010000" lon="-1.8079920">
        <ele>1470.6</ele>
        <time>2019-07-05T13:42:37Z</time>
      </trkpt>
      <trkpt lat="40.4010550" lon="-1.8080520">
        <ele>1470.6</ele>
        <time>2019-07-05T13:42:38Z</time>
      </trkpt>
      <trkpt lat="40.4014330" lon="-1.8084350">
        <ele>1470.2</ele>
        <time>2019-07-05T13:42:45Z</time>
      </trkpt>
      <trkpt lat="40.4014890" lon="-1.8084890">
        <ele>1470.2</ele>
        <time>2019-07-05T13:42:46Z</time>
      </trkpt>
      <trkpt lat="40.4016050" lon="-1.8085920">
        <ele>1469.6</ele>
        <time>2019-07-05T13:42:48Z</time>
      </trkpt>
      <trkpt lat="40.4018130" lon="-1.8088150">
        <ele>1468.8</ele>
        <time>2019-07-05T13:42:52Z</time>
      </trkpt>
      <trkpt lat="40.4018590" lon="-1.8088700">
        <ele>1468.6</ele>
        <time>2019-07-05T13:42:53Z</time>
      </trkpt>
      <trkpt lat="40.4019080" lon="-1.8089200">
        <ele>1468.2</ele>
        <time>2019-07-05T13:42:54Z</time>
      </trkpt>
      <trkpt lat="40.4020510" lon="-1.8090640">
        <ele>1468.2</ele>
        <time>2019-07-05T13:42:57Z</time>
      </trkpt>
      <trkpt lat="40.4023290" lon="-1.8093570">
        <ele>1468.8</ele>
        <time>2019-07-05T13:43:03Z</time>
      </trkpt>
      <trkpt lat="40.4026390" lon="-1.8097810">
        <ele>1468.2</ele>
        <time>2019-07-05T13:43:11Z</time>
      </trkpt>
      <trkpt lat="40.4027490" lon="-1.8099630">
        <ele>1468.0</ele>
        <time>2019-07-05T13:43:14Z</time>
      </trkpt>
      <trkpt lat="40.4028220" lon="-1.8100860">
        <ele>1467.8</ele>
        <time>2019-07-05T13:43:16Z</time>
      </trkpt>
      <trkpt lat="40.4030040" lon="-1.8104040">
        <ele>1467.4</ele>
        <time>2019-07-05T13:43:21Z</time>
      </trkpt>
      <trkpt lat="40.4030810" lon="-1.8105300">
        <ele>1467.2</ele>
        <time>2019-07-05T13:43:23Z</time>
      </trkpt>
      <trkpt lat="40.4031570" lon="-1.8106580">
        <ele>1466.8</ele>
        <time>2019-07-05T13:43:25Z</time>
      </trkpt>
      <trkpt lat="40.4032650" lon="-1.8108610">
        <ele>1466.6</ele>
        <time>2019-07-05T13:43:28Z</time>
      </trkpt>
      <trkpt lat="40.4033060" lon="-1.8109190">
        <ele>1466.6</ele>
        <time>2019-07-05T13:43:29Z</time>
      </trkpt>
      <trkpt lat="40.4033450" lon="-1.8109820">
        <ele>1466.6</ele>
        <time>2019-07-05T13:43:30Z</time>
      </trkpt>
      <trkpt lat="40.4034240" lon="-1.8111130">
        <ele>1466.2</ele>
        <time>2019-07-05T13:43:32Z</time>
      </trkpt>
      <trkpt lat="40.4035540" lon="-1.8113070">
        <ele>1466.0</ele>
        <time>2019-07-05T13:43:35Z</time>
      </trkpt>
      <trkpt lat="40.4038540" lon="-1.8117110">
        <ele>1466.2</ele>
        <time>2019-07-05T13:43:42Z</time>
      </trkpt>
      <trkpt lat="40.4040420" lon="-1.8118740">
        <ele>1467.4</ele>
        <time>2019-07-05T13:43:47Z</time>
      </trkpt>
      <trkpt lat="40.4042070" lon="-1.8119430">
        <ele>1468.6</ele>
        <time>2019-07-05T13:43:52Z</time>
      </trkpt>
      <trkpt lat="40.4042700" lon="-1.8119660">
        <ele>1469.4</ele>
        <time>2019-07-05T13:43:54Z</time>
      </trkpt>
      <trkpt lat="40.4043010" lon="-1.8119770">
        <ele>1470.0</ele>
        <time>2019-07-05T13:43:55Z</time>
      </trkpt>
      <trkpt lat="40.4044140" lon="-1.8120260">
        <ele>1471.0</ele>
        <time>2019-07-05T13:43:59Z</time>
      </trkpt>
      <trkpt lat="40.4044390" lon="-1.8120350">
        <ele>1471.0</ele>
        <time>2019-07-05T13:44:00Z</time>
      </trkpt>
      <trkpt lat="40.4045090" lon="-1.8120610">
        <ele>1471.6</ele>
        <time>2019-07-05T13:44:03Z</time>
      </trkpt>
      <trkpt lat="40.4045950" lon="-1.8121090">
        <ele>1472.8</ele>
        <time>2019-07-05T13:44:07Z</time>
      </trkpt>
      <trkpt lat="40.4046380" lon="-1.8121350">
        <ele>1473.4</ele>
        <time>2019-07-05T13:44:09Z</time>
      </trkpt>
      <trkpt lat="40.4046970" lon="-1.8121740">
        <ele>1473.8</ele>
        <time>2019-07-05T13:44:12Z</time>
      </trkpt>
      <trkpt lat="40.4047170" lon="-1.8121870">
        <ele>1473.8</ele>
        <time>2019-07-05T13:44:13Z</time>
      </trkpt>
      <trkpt lat="40.4048000" lon="-1.8122430">
        <ele>1475.0</ele>
        <time>2019-07-05T13:44:17Z</time>
      </trkpt>
      <trkpt lat="40.4048420" lon="-1.8122700">
        <ele>1475.8</ele>
        <time>2019-07-05T13:44:19Z</time>
      </trkpt>
      <trkpt lat="40.4048640" lon="-1.8122820">
        <ele>1476.2</ele>
        <time>2019-07-05T13:44:20Z</time>
      </trkpt>
      <trkpt lat="40.4049330" lon="-1.8123220">
        <ele>1477.4</ele>
        <time>2019-07-05T13:44:23Z</time>
      </trkpt>
      <trkpt lat="40.4050240" lon="-1.8123710">
        <ele>1478.6</ele>
        <time>2019-07-05T13:44:27Z</time>
      </trkpt>
      <trkpt lat="40.4050470" lon="-1.8123840">
        <ele>1478.8</ele>
        <time>2019-07-05T13:44:28Z</time>
      </trkpt>
      <trkpt lat="40.4051180" lon="-1.8124260">
        <ele>1479.8</ele>
        <time>2019-07-05T13:44:31Z</time>
      </trkpt>
      <trkpt lat="40.4052540" lon="-1.8124900">
        <ele>1480.6</ele>
        <time>2019-07-05T13:44:37Z</time>
      </trkpt>
      <trkpt lat="40.4053030" lon="-1.8125020">
        <ele>1480.8</ele>
        <time>2019-07-05T13:44:39Z</time>
      </trkpt>
      <trkpt lat="40.4053970" lon="-1.8125370">
        <ele>1482.0</ele>
        <time>2019-07-05T13:44:43Z</time>
      </trkpt>
      <trkpt lat="40.4054220" lon="-1.8125440">
        <ele>1482.2</ele>
        <time>2019-07-05T13:44:44Z</time>
      </trkpt>
      <trkpt lat="40.4055470" lon="-1.8125990">
        <ele>1483.0</ele>
        <time>2019-07-05T13:44:49Z</time>
      </trkpt>
      <trkpt lat="40.4056010" lon="-1.8126210">
        <ele>1483.4</ele>
        <time>2019-07-05T13:44:51Z</time>
      </trkpt>
      <trkpt lat="40.4057640" lon="-1.8126950">
        <ele>1484.0</ele>
        <time>2019-07-05T13:44:57Z</time>
      </trkpt>
      <trkpt lat="40.4057920" lon="-1.8127080">
        <ele>1484.2</ele>
        <time>2019-07-05T13:44:58Z</time>
      </trkpt>
      <trkpt lat="40.4059640" lon="-1.8127900">
        <ele>1484.8</ele>
        <time>2019-07-05T13:45:04Z</time>
      </trkpt>
      <trkpt lat="40.4061110" lon="-1.8128680">
        <ele>1485.4</ele>
        <time>2019-07-05T13:45:09Z</time>
      </trkpt>
      <trkpt lat="40.4061770" lon="-1.8129050">
        <ele>1485.8</ele>
        <time>2019-07-05T13:45:11Z</time>
      </trkpt>
      <trkpt lat="40.4064300" lon="-1.8130480">
        <ele>1486.6</ele>
        <time>2019-07-05T13:45:18Z</time>
      </trkpt>
      <trkpt lat="40.4066320" lon="-1.8131540">
        <ele>1486.6</ele>
        <time>2019-07-05T13:45:23Z</time>
      </trkpt>
      <trkpt lat="40.4067300" lon="-1.8131940">
        <ele>1486.2</ele>
        <time>2019-07-05T13:45:25Z</time>
      </trkpt>
      <trkpt lat="40.4069610" lon="-1.8132490">
        <ele>1485.8</ele>
        <time>2019-07-05T13:45:29Z</time>
      </trkpt>
      <trkpt lat="40.4070930" lon="-1.8132770">
        <ele>1485.6</ele>
        <time>2019-07-05T13:45:31Z</time>
      </trkpt>
      <trkpt lat="40.4071600" lon="-1.8132920">
        <ele>1485.0</ele>
        <time>2019-07-05T13:45:32Z</time>
      </trkpt>
      <trkpt lat="40.4072980" lon="-1.8133220">
        <ele>1484.4</ele>
        <time>2019-07-05T13:45:34Z</time>
      </trkpt>
      <trkpt lat="40.4074390" lon="-1.8133390">
        <ele>1484.0</ele>
        <time>2019-07-05T13:45:36Z</time>
      </trkpt>
      <trkpt lat="40.4075090" lon="-1.8133380">
        <ele>1483.8</ele>
        <time>2019-07-05T13:45:37Z</time>
      </trkpt>
      <trkpt lat="40.4077100" lon="-1.8133240">
        <ele>1483.4</ele>
        <time>2019-07-05T13:45:40Z</time>
      </trkpt>
      <trkpt lat="40.4079030" lon="-1.8132880">
        <ele>1483.0</ele>
        <time>2019-07-05T13:45:43Z</time>
      </trkpt>
      <trkpt lat="40.4081330" lon="-1.8132430">
        <ele>1483.4</ele>
        <time>2019-07-05T13:45:47Z</time>
      </trkpt>
      <trkpt lat="40.4082240" lon="-1.8132250">
        <ele>1483.8</ele>
        <time>2019-07-05T13:45:49Z</time>
      </trkpt>
      <trkpt lat="40.4083730" lon="-1.8131970">
        <ele>1485.0</ele>
        <time>2019-07-05T13:45:53Z</time>
      </trkpt>
      <trkpt lat="40.4084750" lon="-1.8131830">
        <ele>1485.8</ele>
        <time>2019-07-05T13:45:56Z</time>
      </trkpt>
      <trkpt lat="40.4085480" lon="-1.8131690">
        <ele>1486.0</ele>
        <time>2019-07-05T13:45:58Z</time>
      </trkpt>
      <trkpt lat="40.4087000" lon="-1.8131260">
        <ele>1486.6</ele>
        <time>2019-07-05T13:46:02Z</time>
      </trkpt>
      <trkpt lat="40.4088590" lon="-1.8130720">
        <ele>1486.8</ele>
        <time>2019-07-05T13:46:06Z</time>
      </trkpt>
      <trkpt lat="40.4090180" lon="-1.8130250">
        <ele>1487.2</ele>
        <time>2019-07-05T13:46:10Z</time>
      </trkpt>
      <trkpt lat="40.4091690" lon="-1.8129700">
        <ele>1487.6</ele>
        <time>2019-07-05T13:46:14Z</time>
      </trkpt>
      <trkpt lat="40.4092810" lon="-1.8129070">
        <ele>1488.0</ele>
        <time>2019-07-05T13:46:17Z</time>
      </trkpt>
      <trkpt lat="40.4093550" lon="-1.8128590">
        <ele>1488.2</ele>
        <time>2019-07-05T13:46:19Z</time>
      </trkpt>
      <trkpt lat="40.4095340" lon="-1.8127630">
        <ele>1488.8</ele>
        <time>2019-07-05T13:46:23Z</time>
      </trkpt>
      <trkpt lat="40.4097400" lon="-1.8127230">
        <ele>1489.0</ele>
        <time>2019-07-05T13:46:27Z</time>
      </trkpt>
      <trkpt lat="40.4099230" lon="-1.8127400">
        <ele>1489.6</ele>
        <time>2019-07-05T13:46:31Z</time>
      </trkpt>
      <trkpt lat="40.4100000" lon="-1.8127510">
        <ele>1490.0</ele>
        <time>2019-07-05T13:46:33Z</time>
      </trkpt>
      <trkpt lat="40.4101610" lon="-1.8127720">
        <ele>1490.8</ele>
        <time>2019-07-05T13:46:38Z</time>
      </trkpt>
      <trkpt lat="40.4101900" lon="-1.8127750">
        <ele>1491.0</ele>
        <time>2019-07-05T13:46:39Z</time>
      </trkpt>
      <trkpt lat="40.4102480" lon="-1.8127840">
        <ele>1492.0</ele>
        <time>2019-07-05T13:46:41Z</time>
      </trkpt>
      <trkpt lat="40.4103370" lon="-1.8127900">
        <ele>1493.0</ele>
        <time>2019-07-05T13:46:44Z</time>
      </trkpt>
      <trkpt lat="40.4103990" lon="-1.8127970">
        <ele>1493.4</ele>
        <time>2019-07-05T13:46:46Z</time>
      </trkpt>
      <trkpt lat="40.4105540" lon="-1.8128240">
        <ele>1493.6</ele>
        <time>2019-07-05T13:46:51Z</time>
      </trkpt>
      <trkpt lat="40.4106190" lon="-1.8128450">
        <ele>1493.6</ele>
        <time>2019-07-05T13:46:53Z</time>
      </trkpt>
      <trkpt lat="40.4107610" lon="-1.8129070">
        <ele>1494.0</ele>
        <time>2019-07-05T13:46:57Z</time>
      </trkpt>
      <trkpt lat="40.4108800" lon="-1.8129630">
        <ele>1494.4</ele>
        <time>2019-07-05T13:47:00Z</time>
      </trkpt>
      <trkpt lat="40.4111430" lon="-1.8130890">
        <ele>1494.4</ele>
        <time>2019-07-05T13:47:06Z</time>
      </trkpt>
      <trkpt lat="40.4111860" lon="-1.8131120">
        <ele>1494.6</ele>
        <time>2019-07-05T13:47:07Z</time>
      </trkpt>
      <trkpt lat="40.4113230" lon="-1.8131920">
        <ele>1494.4</ele>
        <time>2019-07-05T13:47:10Z</time>
      </trkpt>
      <trkpt lat="40.4113690" lon="-1.8132170">
        <ele>1494.4</ele>
        <time>2019-07-05T13:47:11Z</time>
      </trkpt>
      <trkpt lat="40.4114640" lon="-1.8132710">
        <ele>1494.4</ele>
        <time>2019-07-05T13:47:13Z</time>
      </trkpt>
      <trkpt lat="40.4117630" lon="-1.8134330">
        <ele>1494.8</ele>
        <time>2019-07-05T13:47:19Z</time>
      </trkpt>
      <trkpt lat="40.4119980" lon="-1.8135640">
        <ele>1494.8</ele>
        <time>2019-07-05T13:47:24Z</time>
      </trkpt>
      <trkpt lat="40.4120780" lon="-1.8136080">
        <ele>1494.6</ele>
        <time>2019-07-05T13:47:26Z</time>
      </trkpt>
      <trkpt lat="40.4122230" lon="-1.8136880">
        <ele>1495.4</ele>
        <time>2019-07-05T13:47:30Z</time>
      </trkpt>
      <trkpt lat="40.4122600" lon="-1.8137080">
        <ele>1495.8</ele>
        <time>2019-07-05T13:47:31Z</time>
      </trkpt>
      <trkpt lat="40.4123340" lon="-1.8137490">
        <ele>1496.6</ele>
        <time>2019-07-05T13:47:33Z</time>
      </trkpt>
      <trkpt lat="40.4125630" lon="-1.8138410">
        <ele>1497.4</ele>
        <time>2019-07-05T13:47:39Z</time>
      </trkpt>
      <trkpt lat="40.4126410" lon="-1.8138660">
        <ele>1497.6</ele>
        <time>2019-07-05T13:47:41Z</time>
      </trkpt>
      <trkpt lat="40.4129250" lon="-1.8139920">
        <ele>1498.4</ele>
        <time>2019-07-05T13:47:48Z</time>
      </trkpt>
      <trkpt lat="40.4130130" lon="-1.8140290">
        <ele>1498.8</ele>
        <time>2019-07-05T13:47:50Z</time>
      </trkpt>
      <trkpt lat="40.4132310" lon="-1.8141260">
        <ele>1499.0</ele>
        <time>2019-07-05T13:47:55Z</time>
      </trkpt>
      <trkpt lat="40.4134600" lon="-1.8142440">
        <ele>1499.8</ele>
        <time>2019-07-05T13:48:01Z</time>
      </trkpt>
      <trkpt lat="40.4135840" lon="-1.8143220">
        <ele>1501.0</ele>
        <time>2019-07-05T13:48:05Z</time>
      </trkpt>
      <trkpt lat="40.4136880" lon="-1.8144010">
        <ele>1502.2</ele>
        <time>2019-07-05T13:48:09Z</time>
      </trkpt>
      <trkpt lat="40.4137930" lon="-1.8144890">
        <ele>1503.2</ele>
        <time>2019-07-05T13:48:13Z</time>
      </trkpt>
      <trkpt lat="40.4138610" lon="-1.8145540">
        <ele>1504.0</ele>
        <time>2019-07-05T13:48:16Z</time>
      </trkpt>
      <trkpt lat="40.4139080" lon="-1.8145970">
        <ele>1504.2</ele>
        <time>2019-07-05T13:48:18Z</time>
      </trkpt>
      <trkpt lat="40.4140120" lon="-1.8146950">
        <ele>1505.0</ele>
        <time>2019-07-05T13:48:22Z</time>
      </trkpt>
      <trkpt lat="40.4140770" lon="-1.8147420">
        <ele>1505.4</ele>
        <time>2019-07-05T13:48:24Z</time>
      </trkpt>
      <trkpt lat="40.4142460" lon="-1.8148050">
        <ele>1505.8</ele>
        <time>2019-07-05T13:48:28Z</time>
      </trkpt>
      <trkpt lat="40.4143390" lon="-1.8148180">
        <ele>1505.8</ele>
        <time>2019-07-05T13:48:30Z</time>
      </trkpt>
      <trkpt lat="40.4145420" lon="-1.8147970">
        <ele>1505.8</ele>
        <time>2019-07-05T13:48:34Z</time>
      </trkpt>
      <trkpt lat="40.4147770" lon="-1.8148070">
        <ele>1505.2</ele>
        <time>2019-07-05T13:48:38Z</time>
      </trkpt>
      <trkpt lat="40.4148380" lon="-1.8148220">
        <ele>1505.2</ele>
        <time>2019-07-05T13:48:39Z</time>
      </trkpt>
      <trkpt lat="40.4152980" lon="-1.8149530">
        <ele>1505.6</ele>
        <time>2019-07-05T13:48:47Z</time>
      </trkpt>
      <trkpt lat="40.4156400" lon="-1.8151230">
        <ele>1506.4</ele>
        <time>2019-07-05T13:48:54Z</time>
      </trkpt>
      <trkpt lat="40.4156910" lon="-1.8151480">
        <ele>1506.4</ele>
        <time>2019-07-05T13:48:55Z</time>
      </trkpt>
      <trkpt lat="40.4161570" lon="-1.8153770">
        <ele>1506.8</ele>
        <time>2019-07-05T13:49:04Z</time>
      </trkpt>
      <trkpt lat="40.4164120" lon="-1.8154690">
        <ele>1507.6</ele>
        <time>2019-07-05T13:49:09Z</time>
      </trkpt>
      <trkpt lat="40.4165480" lon="-1.8155050">
        <ele>1508.0</ele>
        <time>2019-07-05T13:49:12Z</time>
      </trkpt>
      <trkpt lat="40.4166960" lon="-1.8155350">
        <ele>1509.2</ele>
        <time>2019-07-05T13:49:16Z</time>
      </trkpt>
      <trkpt lat="40.4167620" lon="-1.8155420">
        <ele>1509.8</ele>
        <time>2019-07-05T13:49:18Z</time>
      </trkpt>
      <trkpt lat="40.4168270" lon="-1.8155540">
        <ele>1510.4</ele>
        <time>2019-07-05T13:49:20Z</time>
      </trkpt>
      <trkpt lat="40.4170320" lon="-1.8155770">
        <ele>1511.4</ele>
        <time>2019-07-05T13:49:26Z</time>
      </trkpt>
      <trkpt lat="40.4172850" lon="-1.8155930">
        <ele>1512.4</ele>
        <time>2019-07-05T13:49:33Z</time>
      </trkpt>
      <trkpt lat="40.4173190" lon="-1.8155950">
        <ele>1512.8</ele>
        <time>2019-07-05T13:49:34Z</time>
      </trkpt>
      <trkpt lat="40.4173560" lon="-1.8155970">
        <ele>1513.2</ele>
        <time>2019-07-05T13:49:35Z</time>
      </trkpt>
      <trkpt lat="40.4175000" lon="-1.8155990">
        <ele>1514.0</ele>
        <time>2019-07-05T13:49:39Z</time>
      </trkpt>
      <trkpt lat="40.4176460" lon="-1.8155900">
        <ele>1514.6</ele>
        <time>2019-07-05T13:49:43Z</time>
      </trkpt>
      <trkpt lat="40.4177950" lon="-1.8155760">
        <ele>1515.0</ele>
        <time>2019-07-05T13:49:47Z</time>
      </trkpt>
      <trkpt lat="40.4179150" lon="-1.8155850">
        <ele>1515.6</ele>
        <time>2019-07-05T13:49:50Z</time>
      </trkpt>
      <trkpt lat="40.4180820" lon="-1.8156170">
        <ele>1516.0</ele>
        <time>2019-07-05T13:49:54Z</time>
      </trkpt>
      <trkpt lat="40.4181250" lon="-1.8156200">
        <ele>1516.0</ele>
        <time>2019-07-05T13:49:55Z</time>
      </trkpt>
      <trkpt lat="40.4182130" lon="-1.8156220">
        <ele>1516.0</ele>
        <time>2019-07-05T13:49:57Z</time>
      </trkpt>
      <trkpt lat="40.4185320" lon="-1.8156370">
        <ele>1515.8</ele>
        <time>2019-07-05T13:50:04Z</time>
      </trkpt>
      <trkpt lat="40.4187330" lon="-1.8156430">
        <ele>1516.8</ele>
        <time>2019-07-05T13:50:09Z</time>
      </trkpt>
      <trkpt lat="40.4187700" lon="-1.8156440">
        <ele>1517.0</ele>
        <time>2019-07-05T13:50:10Z</time>
      </trkpt>
      <trkpt lat="40.4188060" lon="-1.8156440">
        <ele>1517.2</ele>
        <time>2019-07-05T13:50:11Z</time>
      </trkpt>
      <trkpt lat="40.4190060" lon="-1.8156350">
        <ele>1518.2</ele>
        <time>2019-07-05T13:50:17Z</time>
      </trkpt>
      <trkpt lat="40.4190700" lon="-1.8156280">
        <ele>1518.8</ele>
        <time>2019-07-05T13:50:19Z</time>
      </trkpt>
      <trkpt lat="40.4191010" lon="-1.8156240">
        <ele>1519.2</ele>
        <time>2019-07-05T13:50:20Z</time>
      </trkpt>
      <trkpt lat="40.4192610" lon="-1.8156050">
        <ele>1520.8</ele>
        <time>2019-07-05T13:50:25Z</time>
      </trkpt>
      <trkpt lat="40.4193910" lon="-1.8155850">
        <ele>1521.6</ele>
        <time>2019-07-05T13:50:29Z</time>
      </trkpt>
      <trkpt lat="40.4194540" lon="-1.8155780">
        <ele>1521.8</ele>
        <time>2019-07-05T13:50:31Z</time>
      </trkpt>
      <trkpt lat="40.4196310" lon="-1.8155580">
        <ele>1522.8</ele>
        <time>2019-07-05T13:50:36Z</time>
      </trkpt>
      <trkpt lat="40.4196740" lon="-1.8155590">
        <ele>1522.8</ele>
        <time>2019-07-05T13:50:37Z</time>
      </trkpt>
      <trkpt lat="40.4197210" lon="-1.8155650">
        <ele>1522.8</ele>
        <time>2019-07-05T13:50:38Z</time>
      </trkpt>
      <trkpt lat="40.4198740" lon="-1.8156170">
        <ele>1522.4</ele>
        <time>2019-07-05T13:50:41Z</time>
      </trkpt>
      <trkpt lat="40.4199900" lon="-1.8156740">
        <ele>1521.8</ele>
        <time>2019-07-05T13:50:43Z</time>
      </trkpt>
      <trkpt lat="40.4201760" lon="-1.8157890">
        <ele>1520.8</ele>
        <time>2019-07-05T13:50:46Z</time>
      </trkpt>
      <trkpt lat="40.4203000" lon="-1.8158500">
        <ele>1520.8</ele>
        <time>2019-07-05T13:50:48Z</time>
      </trkpt>
      <trkpt lat="40.4203600" lon="-1.8158710">
        <ele>1520.8</ele>
        <time>2019-07-05T13:50:49Z</time>
      </trkpt>
      <trkpt lat="40.4204760" lon="-1.8159020">
        <ele>1521.0</ele>
        <time>2019-07-05T13:50:51Z</time>
      </trkpt>
      <trkpt lat="40.4206340" lon="-1.8159390">
        <ele>1521.4</ele>
        <time>2019-07-05T13:50:54Z</time>
      </trkpt>
      <trkpt lat="40.4207820" lon="-1.8159450">
        <ele>1520.8</ele>
        <time>2019-07-05T13:50:57Z</time>
      </trkpt>
      <trkpt lat="40.4209170" lon="-1.8159420">
        <ele>1521.4</ele>
        <time>2019-07-05T13:51:00Z</time>
      </trkpt>
      <trkpt lat="40.4209960" lon="-1.8159290">
        <ele>1522.2</ele>
        <time>2019-07-05T13:51:02Z</time>
      </trkpt>
      <trkpt lat="40.4210340" lon="-1.8159250">
        <ele>1522.6</ele>
        <time>2019-07-05T13:51:03Z</time>
      </trkpt>
      <trkpt lat="40.4211080" lon="-1.8159190">
        <ele>1523.2</ele>
        <time>2019-07-05T13:51:05Z</time>
      </trkpt>
      <trkpt lat="40.4213130" lon="-1.8159000">
        <ele>1524.2</ele>
        <time>2019-07-05T13:51:11Z</time>
      </trkpt>
      <trkpt lat="40.4214310" lon="-1.8158810">
        <ele>1524.6</ele>
        <time>2019-07-05T13:51:15Z</time>
      </trkpt>
      <trkpt lat="40.4215140" lon="-1.8158640">
        <ele>1525.8</ele>
        <time>2019-07-05T13:51:18Z</time>
      </trkpt>
      <trkpt lat="40.4215670" lon="-1.8158570">
        <ele>1526.8</ele>
        <time>2019-07-05T13:51:20Z</time>
      </trkpt>
      <trkpt lat="40.4216690" lon="-1.8158390">
        <ele>1528.6</ele>
        <time>2019-07-05T13:51:24Z</time>
      </trkpt>
      <trkpt lat="40.4217460" lon="-1.8158300">
        <ele>1529.6</ele>
        <time>2019-07-05T13:51:27Z</time>
      </trkpt>
      <trkpt lat="40.4218530" lon="-1.8158310">
        <ele>1531.2</ele>
        <time>2019-07-05T13:51:31Z</time>
      </trkpt>
      <trkpt lat="40.4219340" lon="-1.8158400">
        <ele>1532.0</ele>
        <time>2019-07-05T13:51:34Z</time>
      </trkpt>
      <trkpt lat="40.4219600" lon="-1.8158470">
        <ele>1532.4</ele>
        <time>2019-07-05T13:51:35Z</time>
      </trkpt>
      <trkpt lat="40.4221010" lon="-1.8158710">
        <ele>1533.0</ele>
        <time>2019-07-05T13:51:40Z</time>
      </trkpt>
      <trkpt lat="40.4221850" lon="-1.8158770">
        <ele>1533.6</ele>
        <time>2019-07-05T13:51:43Z</time>
      </trkpt>
      <trkpt lat="40.4222910" lon="-1.8158800">
        <ele>1534.6</ele>
        <time>2019-07-05T13:51:47Z</time>
      </trkpt>
      <trkpt lat="40.4225700" lon="-1.8158790">
        <ele>1535.0</ele>
        <time>2019-07-05T13:51:55Z</time>
      </trkpt>
      <trkpt lat="40.4228730" lon="-1.8159000">
        <ele>1535.6</ele>
        <time>2019-07-05T13:52:03Z</time>
      </trkpt>
      <trkpt lat="40.4229040" lon="-1.8159040">
        <ele>1535.6</ele>
        <time>2019-07-05T13:52:04Z</time>
      </trkpt>
      <trkpt lat="40.4230470" lon="-1.8159120">
        <ele>1536.8</ele>
        <time>2019-07-05T13:52:09Z</time>
      </trkpt>
      <trkpt lat="40.4230750" lon="-1.8159120">
        <ele>1537.0</ele>
        <time>2019-07-05T13:52:10Z</time>
      </trkpt>
      <trkpt lat="40.4231580" lon="-1.8159040">
        <ele>1538.4</ele>
        <time>2019-07-05T13:52:13Z</time>
      </trkpt>
      <trkpt lat="40.4232690" lon="-1.8159010">
        <ele>1539.6</ele>
        <time>2019-07-05T13:52:17Z</time>
      </trkpt>
      <trkpt lat="40.4233560" lon="-1.8159040">
        <ele>1540.4</ele>
        <time>2019-07-05T13:52:20Z</time>
      </trkpt>
      <trkpt lat="40.4235620" lon="-1.8159060">
        <ele>1540.4</ele>
        <time>2019-07-05T13:52:26Z</time>
      </trkpt>
      <trkpt lat="40.4236420" lon="-1.8158750">
        <ele>1540.6</ele>
        <time>2019-07-05T13:52:28Z</time>
      </trkpt>
      <trkpt lat="40.4237140" lon="-1.8158190">
        <ele>1540.8</ele>
        <time>2019-07-05T13:52:30Z</time>
      </trkpt>
      <trkpt lat="40.4237450" lon="-1.8157840">
        <ele>1541.0</ele>
        <time>2019-07-05T13:52:31Z</time>
      </trkpt>
      <trkpt lat="40.4238010" lon="-1.8157060">
        <ele>1541.0</ele>
        <time>2019-07-05T13:52:33Z</time>
      </trkpt>
      <trkpt lat="40.4239330" lon="-1.8155030">
        <ele>1541.8</ele>
        <time>2019-07-05T13:52:38Z</time>
      </trkpt>
      <trkpt lat="40.4239550" lon="-1.8154610">
        <ele>1542.0</ele>
        <time>2019-07-05T13:52:39Z</time>
      </trkpt>
      <trkpt lat="40.4239760" lon="-1.8154180">
        <ele>1542.2</ele>
        <time>2019-07-05T13:52:40Z</time>
      </trkpt>
      <trkpt lat="40.4240170" lon="-1.8153310">
        <ele>1543.0</ele>
        <time>2019-07-05T13:52:42Z</time>
      </trkpt>
      <trkpt lat="40.4240780" lon="-1.8151310">
        <ele>1543.4</ele>
        <time>2019-07-05T13:52:46Z</time>
      </trkpt>
      <trkpt lat="40.4241380" lon="-1.8147900">
        <ele>1544.0</ele>
        <time>2019-07-05T13:52:52Z</time>
      </trkpt>
      <trkpt lat="40.4241480" lon="-1.8147300">
        <ele>1544.0</ele>
        <time>2019-07-05T13:52:53Z</time>
      </trkpt>
      <trkpt lat="40.4242400" lon="-1.8142290">
        <ele>1544.2</ele>
        <time>2019-07-05T13:53:01Z</time>
      </trkpt>
      <trkpt lat="40.4242530" lon="-1.8141670">
        <ele>1544.2</ele>
        <time>2019-07-05T13:53:02Z</time>
      </trkpt>
      <trkpt lat="40.4243280" lon="-1.8138210">
        <ele>1545.0</ele>
        <time>2019-07-05T13:53:08Z</time>
      </trkpt>
      <trkpt lat="40.4243370" lon="-1.8137700">
        <ele>1545.4</ele>
        <time>2019-07-05T13:53:09Z</time>
      </trkpt>
      <trkpt lat="40.4243470" lon="-1.8137230">
        <ele>1545.4</ele>
        <time>2019-07-05T13:53:10Z</time>
      </trkpt>
      <trkpt lat="40.4243790" lon="-1.8135980">
        <ele>1546.6</ele>
        <time>2019-07-05T13:53:13Z</time>
      </trkpt>
      <trkpt lat="40.4244150" lon="-1.8134490">
        <ele>1547.6</ele>
        <time>2019-07-05T13:53:17Z</time>
      </trkpt>
      <trkpt lat="40.4245110" lon="-1.8132420">
        <ele>1549.2</ele>
        <time>2019-07-05T13:53:23Z</time>
      </trkpt>
      <trkpt lat="40.4245310" lon="-1.8132110">
        <ele>1549.4</ele>
        <time>2019-07-05T13:53:24Z</time>
      </trkpt>
      <trkpt lat="40.4246500" lon="-1.8130480">
        <ele>1550.2</ele>
        <time>2019-07-05T13:53:29Z</time>
      </trkpt>
      <trkpt lat="40.4246970" lon="-1.8129630">
        <ele>1550.4</ele>
        <time>2019-07-05T13:53:31Z</time>
      </trkpt>
      <trkpt lat="40.4248930" lon="-1.8126610">
        <ele>1550.6</ele>
        <time>2019-07-05T13:53:37Z</time>
      </trkpt>
      <trkpt lat="40.4250730" lon="-1.8123780">
        <ele>1549.2</ele>
        <time>2019-07-05T13:53:41Z</time>
      </trkpt>
      <trkpt lat="40.4251240" lon="-1.8122960">
        <ele>1548.6</ele>
        <time>2019-07-05T13:53:42Z</time>
      </trkpt>
      <trkpt lat="40.4251770" lon="-1.8122140">
        <ele>1548.0</ele>
        <time>2019-07-05T13:53:43Z</time>
      </trkpt>
      <trkpt lat="40.4252750" lon="-1.8120410">
        <ele>1547.0</ele>
        <time>2019-07-05T13:53:45Z</time>
      </trkpt>
      <trkpt lat="40.4254220" lon="-1.8117810">
        <ele>1546.0</ele>
        <time>2019-07-05T13:53:48Z</time>
      </trkpt>
      <trkpt lat="40.4254720" lon="-1.8116960">
        <ele>1545.4</ele>
        <time>2019-07-05T13:53:49Z</time>
      </trkpt>
      <trkpt lat="40.4255730" lon="-1.8115290">
        <ele>1544.8</ele>
        <time>2019-07-05T13:53:51Z</time>
      </trkpt>
      <trkpt lat="40.4256250" lon="-1.8114490">
        <ele>1544.8</ele>
        <time>2019-07-05T13:53:52Z</time>
      </trkpt>
      <trkpt lat="40.4257230" lon="-1.8112980">
        <ele>1544.8</ele>
        <time>2019-07-05T13:53:54Z</time>
      </trkpt>
      <trkpt lat="40.4258060" lon="-1.8111490">
        <ele>1545.0</ele>
        <time>2019-07-05T13:53:56Z</time>
      </trkpt>
      <trkpt lat="40.4258770" lon="-1.8110080">
        <ele>1545.2</ele>
        <time>2019-07-05T13:53:58Z</time>
      </trkpt>
      <trkpt lat="40.4259460" lon="-1.8107980">
        <ele>1546.0</ele>
        <time>2019-07-05T13:54:01Z</time>
      </trkpt>
      <trkpt lat="40.4260160" lon="-1.8104530">
        <ele>1547.0</ele>
        <time>2019-07-05T13:54:06Z</time>
      </trkpt>
      <trkpt lat="40.4260150" lon="-1.8103850">
        <ele>1547.0</ele>
        <time>2019-07-05T13:54:07Z</time>
      </trkpt>
      <trkpt lat="40.4259950" lon="-1.8101770">
        <ele>1547.4</ele>
        <time>2019-07-05T13:54:10Z</time>
      </trkpt>
      <trkpt lat="40.4259420" lon="-1.8099140">
        <ele>1547.6</ele>
        <time>2019-07-05T13:54:14Z</time>
      </trkpt>
      <trkpt lat="40.4259360" lon="-1.8098460">
        <ele>1547.6</ele>
        <time>2019-07-05T13:54:15Z</time>
      </trkpt>
      <trkpt lat="40.4259710" lon="-1.8096450">
        <ele>1547.0</ele>
        <time>2019-07-05T13:54:18Z</time>
      </trkpt>
      <trkpt lat="40.4260890" lon="-1.8094170">
        <ele>1547.2</ele>
        <time>2019-07-05T13:54:22Z</time>
      </trkpt>
      <trkpt lat="40.4261210" lon="-1.8093650">
        <ele>1547.4</ele>
        <time>2019-07-05T13:54:23Z</time>
      </trkpt>
      <trkpt lat="40.4263130" lon="-1.8090990">
        <ele>1548.4</ele>
        <time>2019-07-05T13:54:29Z</time>
      </trkpt>
      <trkpt lat="40.4263440" lon="-1.8090650">
        <ele>1549.0</ele>
        <time>2019-07-05T13:54:30Z</time>
      </trkpt>
      <trkpt lat="40.4264050" lon="-1.8090030">
        <ele>1549.4</ele>
        <time>2019-07-05T13:54:32Z</time>
      </trkpt>
      <trkpt lat="40.4264630" lon="-1.8089540">
        <ele>1550.0</ele>
        <time>2019-07-05T13:54:34Z</time>
      </trkpt>
      <trkpt lat="40.4265770" lon="-1.8088700">
        <ele>1550.4</ele>
        <time>2019-07-05T13:54:38Z</time>
      </trkpt>
      <trkpt lat="40.4266650" lon="-1.8088150">
        <ele>1550.8</ele>
        <time>2019-07-05T13:54:41Z</time>
      </trkpt>
      <trkpt lat="40.4268120" lon="-1.8087210">
        <ele>1551.6</ele>
        <time>2019-07-05T13:54:46Z</time>
      </trkpt>
      <trkpt lat="40.4268990" lon="-1.8086540">
        <ele>1552.0</ele>
        <time>2019-07-05T13:54:49Z</time>
      </trkpt>
      <trkpt lat="40.4270030" lon="-1.8085500">
        <ele>1553.2</ele>
        <time>2019-07-05T13:54:53Z</time>
      </trkpt>
      <trkpt lat="40.4270540" lon="-1.8084950">
        <ele>1553.4</ele>
        <time>2019-07-05T13:54:55Z</time>
      </trkpt>
      <trkpt lat="40.4272200" lon="-1.8082870">
        <ele>1554.6</ele>
        <time>2019-07-05T13:55:02Z</time>
      </trkpt>
      <trkpt lat="40.4272940" lon="-1.8081920">
        <ele>1555.2</ele>
        <time>2019-07-05T13:55:05Z</time>
      </trkpt>
      <trkpt lat="40.4273460" lon="-1.8081300">
        <ele>1555.6</ele>
        <time>2019-07-05T13:55:07Z</time>
      </trkpt>
      <trkpt lat="40.4274960" lon="-1.8079600">
        <ele>1556.8</ele>
        <time>2019-07-05T13:55:13Z</time>
      </trkpt>
      <trkpt lat="40.4275240" lon="-1.8079370">
        <ele>1557.0</ele>
        <time>2019-07-05T13:55:14Z</time>
      </trkpt>
      <trkpt lat="40.4276530" lon="-1.8078510">
        <ele>1558.2</ele>
        <time>2019-07-05T13:55:18Z</time>
      </trkpt>
      <trkpt lat="40.4277600" lon="-1.8077940">
        <ele>1558.8</ele>
        <time>2019-07-05T13:55:21Z</time>
      </trkpt>
      <trkpt lat="40.4279150" lon="-1.8076700">
        <ele>1559.4</ele>
        <time>2019-07-05T13:55:26Z</time>
      </trkpt>
      <trkpt lat="40.4279400" lon="-1.8076400">
        <ele>1559.8</ele>
        <time>2019-07-05T13:55:27Z</time>
      </trkpt>
      <trkpt lat="40.4280040" lon="-1.8075540">
        <ele>1560.4</ele>
        <time>2019-07-05T13:55:30Z</time>
      </trkpt>
      <trkpt lat="40.4280650" lon="-1.8074520">
        <ele>1560.8</ele>
        <time>2019-07-05T13:55:33Z</time>
      </trkpt>
      <trkpt lat="40.4280840" lon="-1.8074150">
        <ele>1560.8</ele>
        <time>2019-07-05T13:55:34Z</time>
      </trkpt>
      <trkpt lat="40.4281780" lon="-1.8071480">
        <ele>1561.6</ele>
        <time>2019-07-05T13:55:41Z</time>
      </trkpt>
      <trkpt lat="40.4282660" lon="-1.8069060">
        <ele>1562.6</ele>
        <time>2019-07-05T13:55:47Z</time>
      </trkpt>
      <trkpt lat="40.4283370" lon="-1.8067920">
        <ele>1562.6</ele>
        <time>2019-07-05T13:55:50Z</time>
      </trkpt>
      <trkpt lat="40.4284120" lon="-1.8066690">
        <ele>1563.0</ele>
        <time>2019-07-05T13:55:53Z</time>
      </trkpt>
      <trkpt lat="40.4284430" lon="-1.8066310">
        <ele>1563.2</ele>
        <time>2019-07-05T13:55:54Z</time>
      </trkpt>
      <trkpt lat="40.4285900" lon="-1.8065560">
        <ele>1562.4</ele>
        <time>2019-07-05T13:55:57Z</time>
      </trkpt>
      <trkpt lat="40.4287800" lon="-1.8066270">
        <ele>1561.6</ele>
        <time>2019-07-05T13:56:00Z</time>
      </trkpt>
      <trkpt lat="40.4288420" lon="-1.8066690">
        <ele>1561.4</ele>
        <time>2019-07-05T13:56:01Z</time>
      </trkpt>
      <trkpt lat="40.4290180" lon="-1.8068130">
        <ele>1561.0</ele>
        <time>2019-07-05T13:56:04Z</time>
      </trkpt>
      <trkpt lat="40.4291400" lon="-1.8069170">
        <ele>1560.8</ele>
        <time>2019-07-05T13:56:06Z</time>
      </trkpt>
      <trkpt lat="40.4292650" lon="-1.8070180">
        <ele>1560.4</ele>
        <time>2019-07-05T13:56:08Z</time>
      </trkpt>
      <trkpt lat="40.4294540" lon="-1.8071690">
        <ele>1559.4</ele>
        <time>2019-07-05T13:56:11Z</time>
      </trkpt>
      <trkpt lat="40.4295720" lon="-1.8072820">
        <ele>1558.6</ele>
        <time>2019-07-05T13:56:13Z</time>
      </trkpt>
      <trkpt lat="40.4297570" lon="-1.8074530">
        <ele>1558.2</ele>
        <time>2019-07-05T13:56:16Z</time>
      </trkpt>
      <trkpt lat="40.4299220" lon="-1.8076630">
        <ele>1557.4</ele>
        <time>2019-07-05T13:56:19Z</time>
      </trkpt>
      <trkpt lat="40.4300080" lon="-1.8078220">
        <ele>1557.2</ele>
        <time>2019-07-05T13:56:21Z</time>
      </trkpt>
      <trkpt lat="40.4301120" lon="-1.8080690">
        <ele>1557.4</ele>
        <time>2019-07-05T13:56:24Z</time>
      </trkpt>
      <trkpt lat="40.4301470" lon="-1.8081480">
        <ele>1557.4</ele>
        <time>2019-07-05T13:56:25Z</time>
      </trkpt>
      <trkpt lat="40.4303560" lon="-1.8086650">
        <ele>1556.8</ele>
        <time>2019-07-05T13:56:32Z</time>
      </trkpt>
      <trkpt lat="40.4303740" lon="-1.8087410">
        <ele>1556.6</ele>
        <time>2019-07-05T13:56:33Z</time>
      </trkpt>
      <trkpt lat="40.4303870" lon="-1.8088180">
        <ele>1556.6</ele>
        <time>2019-07-05T13:56:34Z</time>
      </trkpt>
      <trkpt lat="40.4303950" lon="-1.8089760">
        <ele>1556.4</ele>
        <time>2019-07-05T13:56:36Z</time>
      </trkpt>
      <trkpt lat="40.4303910" lon="-1.8091360">
        <ele>1555.6</ele>
        <time>2019-07-05T13:56:38Z</time>
      </trkpt>
      <trkpt lat="40.4303760" lon="-1.8095300">
        <ele>1555.4</ele>
        <time>2019-07-05T13:56:43Z</time>
      </trkpt>
      <trkpt lat="40.4303880" lon="-1.8096050">
        <ele>1555.2</ele>
        <time>2019-07-05T13:56:44Z</time>
      </trkpt>
      <trkpt lat="40.4304900" lon="-1.8098030">
        <ele>1554.6</ele>
        <time>2019-07-05T13:56:47Z</time>
      </trkpt>
      <trkpt lat="40.4305380" lon="-1.8098540">
        <ele>1554.2</ele>
        <time>2019-07-05T13:56:48Z</time>
      </trkpt>
      <trkpt lat="40.4306410" lon="-1.8099410">
        <ele>1554.4</ele>
        <time>2019-07-05T13:56:50Z</time>
      </trkpt>
      <trkpt lat="40.4307490" lon="-1.8100160">
        <ele>1554.6</ele>
        <time>2019-07-05T13:56:52Z</time>
      </trkpt>
      <trkpt lat="40.4310520" lon="-1.8102760">
        <ele>1554.6</ele>
        <time>2019-07-05T13:56:58Z</time>
      </trkpt>
      <trkpt lat="40.4312860" lon="-1.8105270">
        <ele>1554.6</ele>
        <time>2019-07-05T13:57:03Z</time>
      </trkpt>
      <trkpt lat="40.4313790" lon="-1.8106190">
        <ele>1554.4</ele>
        <time>2019-07-05T13:57:05Z</time>
      </trkpt>
      <trkpt lat="40.4315460" lon="-1.8108000">
        <ele>1553.2</ele>
        <time>2019-07-05T13:57:09Z</time>
      </trkpt>
      <trkpt lat="40.4315880" lon="-1.8108410">
        <ele>1553.0</ele>
        <time>2019-07-05T13:57:10Z</time>
      </trkpt>
      <trkpt lat="40.4316730" lon="-1.8109220">
        <ele>1552.6</ele>
        <time>2019-07-05T13:57:12Z</time>
      </trkpt>
      <trkpt lat="40.4318390" lon="-1.8110980">
        <ele>1552.2</ele>
        <time>2019-07-05T13:57:16Z</time>
      </trkpt>
      <trkpt lat="40.4320000" lon="-1.8112690">
        <ele>1552.2</ele>
        <time>2019-07-05T13:57:20Z</time>
      </trkpt>
      <trkpt lat="40.4321420" lon="-1.8114390">
        <ele>1552.2</ele>
        <time>2019-07-05T13:57:24Z</time>
      </trkpt>
      <trkpt lat="40.4322180" lon="-1.8115070">
        <ele>1551.8</ele>
        <time>2019-07-05T13:57:26Z</time>
      </trkpt>
      <trkpt lat="40.4325270" lon="-1.8117440">
        <ele>1551.8</ele>
        <time>2019-07-05T13:57:34Z</time>
      </trkpt>
      <trkpt lat="40.4326580" lon="-1.8117960">
        <ele>1551.8</ele>
        <time>2019-07-05T13:57:37Z</time>
      </trkpt>
      <trkpt lat="40.4327880" lon="-1.8118720">
        <ele>1551.6</ele>
        <time>2019-07-05T13:57:40Z</time>
      </trkpt>
      <trkpt lat="40.4329660" lon="-1.8119910">
        <ele>1551.8</ele>
        <time>2019-07-05T13:57:44Z</time>
      </trkpt>
      <trkpt lat="40.4331580" lon="-1.8120960">
        <ele>1552.2</ele>
        <time>2019-07-05T13:57:48Z</time>
      </trkpt>
      <trkpt lat="40.4335360" lon="-1.8122990">
        <ele>1552.4</ele>
        <time>2019-07-05T13:57:56Z</time>
      </trkpt>
      <trkpt lat="40.4339370" lon="-1.8125250">
        <ele>1553.2</ele>
        <time>2019-07-05T13:58:05Z</time>
      </trkpt>
      <trkpt lat="40.4339810" lon="-1.8125510">
        <ele>1553.2</ele>
        <time>2019-07-05T13:58:06Z</time>
      </trkpt>
      <trkpt lat="40.4342560" lon="-1.8126970">
        <ele>1553.8</ele>
        <time>2019-07-05T13:58:12Z</time>
      </trkpt>
      <trkpt lat="40.4345630" lon="-1.8128630">
        <ele>1554.4</ele>
        <time>2019-07-05T13:58:19Z</time>
      </trkpt>
      <trkpt lat="40.4346050" lon="-1.8128850">
        <ele>1554.6</ele>
        <time>2019-07-05T13:58:20Z</time>
      </trkpt>
      <trkpt lat="40.4349880" lon="-1.8130800">
        <ele>1555.2</ele>
        <time>2019-07-05T13:58:29Z</time>
      </trkpt>
      <trkpt lat="40.4350740" lon="-1.8131120">
        <ele>1555.8</ele>
        <time>2019-07-05T13:58:31Z</time>
      </trkpt>
      <trkpt lat="40.4351180" lon="-1.8131220">
        <ele>1555.8</ele>
        <time>2019-07-05T13:58:32Z</time>
      </trkpt>
      <trkpt lat="40.4352930" lon="-1.8131370">
        <ele>1556.4</ele>
        <time>2019-07-05T13:58:36Z</time>
      </trkpt>
      <trkpt lat="40.4354180" lon="-1.8131260">
        <ele>1556.8</ele>
        <time>2019-07-05T13:58:39Z</time>
      </trkpt>
      <trkpt lat="40.4355410" lon="-1.8131030">
        <ele>1558.0</ele>
        <time>2019-07-05T13:58:42Z</time>
      </trkpt>
      <trkpt lat="40.4355810" lon="-1.8130930">
        <ele>1558.2</ele>
        <time>2019-07-05T13:58:43Z</time>
      </trkpt>
      <trkpt lat="40.4358360" lon="-1.8130460">
        <ele>1558.8</ele>
        <time>2019-07-05T13:58:50Z</time>
      </trkpt>
      <trkpt lat="40.4358690" lon="-1.8130400">
        <ele>1559.0</ele>
        <time>2019-07-05T13:58:51Z</time>
      </trkpt>
      <trkpt lat="40.4360010" lon="-1.8130180">
        <ele>1560.0</ele>
        <time>2019-07-05T13:58:55Z</time>
      </trkpt>
      <trkpt lat="40.4361230" lon="-1.8129880">
        <ele>1561.2</ele>
        <time>2019-07-05T13:58:59Z</time>
      </trkpt>
      <trkpt lat="40.4361540" lon="-1.8129820">
        <ele>1561.4</ele>
        <time>2019-07-05T13:59:00Z</time>
      </trkpt>
      <trkpt lat="40.4362860" lon="-1.8129700">
        <ele>1562.2</ele>
        <time>2019-07-05T13:59:04Z</time>
      </trkpt>
      <trkpt lat="40.4363880" lon="-1.8129520">
        <ele>1562.4</ele>
        <time>2019-07-05T13:59:07Z</time>
      </trkpt>
      <trkpt lat="40.4366770" lon="-1.8129550">
        <ele>1563.0</ele>
        <time>2019-07-05T13:59:14Z</time>
      </trkpt>
      <trkpt lat="40.4367840" lon="-1.8129520">
        <ele>1563.0</ele>
        <time>2019-07-05T13:59:16Z</time>
      </trkpt>
      <trkpt lat="40.4369530" lon="-1.8129490">
        <ele>1562.6</ele>
        <time>2019-07-05T13:59:19Z</time>
      </trkpt>
      <trkpt lat="40.4371080" lon="-1.8129660">
        <ele>1562.2</ele>
        <time>2019-07-05T13:59:22Z</time>
      </trkpt>
      <trkpt lat="40.4372010" lon="-1.8129340">
        <ele>1562.2</ele>
        <time>2019-07-05T13:59:24Z</time>
      </trkpt>
      <trkpt lat="40.4373480" lon="-1.8127790">
        <ele>1562.6</ele>
        <time>2019-07-05T13:59:28Z</time>
      </trkpt>
      <trkpt lat="40.4373730" lon="-1.8127240">
        <ele>1562.4</ele>
        <time>2019-07-05T13:59:29Z</time>
      </trkpt>
      <trkpt lat="40.4374180" lon="-1.8126080">
        <ele>1562.6</ele>
        <time>2019-07-05T13:59:31Z</time>
      </trkpt>
      <trkpt lat="40.4374510" lon="-1.8124730">
        <ele>1562.6</ele>
        <time>2019-07-05T13:59:33Z</time>
      </trkpt>
      <trkpt lat="40.4375820" lon="-1.8120220">
        <ele>1562.0</ele>
        <time>2019-07-05T13:59:39Z</time>
      </trkpt>
      <trkpt lat="40.4376590" lon="-1.8117550">
        <ele>1561.8</ele>
        <time>2019-07-05T13:59:42Z</time>
      </trkpt>
      <trkpt lat="40.4377180" lon="-1.8115560">
        <ele>1560.8</ele>
        <time>2019-07-05T13:59:44Z</time>
      </trkpt>
      <trkpt lat="40.4377490" lon="-1.8114510">
        <ele>1559.0</ele>
        <time>2019-07-05T13:59:45Z</time>
      </trkpt>
      <trkpt lat="40.4377810" lon="-1.8113420">
        <ele>1558.0</ele>
        <time>2019-07-05T13:59:46Z</time>
      </trkpt>
      <trkpt lat="40.4378820" lon="-1.8110070">
        <ele>1557.0</ele>
        <time>2019-07-05T13:59:49Z</time>
      </trkpt>
      <trkpt lat="40.4379160" lon="-1.8108920">
        <ele>1556.6</ele>
        <time>2019-07-05T13:59:50Z</time>
      </trkpt>
      <trkpt lat="40.4379870" lon="-1.8106590">
        <ele>1556.4</ele>
        <time>2019-07-05T13:59:52Z</time>
      </trkpt>
      <trkpt lat="40.4380950" lon="-1.8103020">
        <ele>1555.4</ele>
        <time>2019-07-05T13:59:55Z</time>
      </trkpt>
      <trkpt lat="40.4381700" lon="-1.8100600">
        <ele>1554.0</ele>
        <time>2019-07-05T13:59:57Z</time>
      </trkpt>
      <trkpt lat="40.4382410" lon="-1.8098180">
        <ele>1553.6</ele>
        <time>2019-07-05T13:59:59Z</time>
      </trkpt>
      <trkpt lat="40.4383100" lon="-1.8095850">
        <ele>1553.4</ele>
        <time>2019-07-05T14:00:01Z</time>
      </trkpt>
      <trkpt lat="40.4384660" lon="-1.8090570">
        <ele>1553.6</ele>
        <time>2019-07-05T14:00:06Z</time>
      </trkpt>
      <trkpt lat="40.4385880" lon="-1.8086560">
        <ele>1554.8</ele>
        <time>2019-07-05T14:00:11Z</time>
      </trkpt>
      <trkpt lat="40.4386130" lon="-1.8085850">
        <ele>1554.8</ele>
        <time>2019-07-05T14:00:12Z</time>
      </trkpt>
      <trkpt lat="40.4386600" lon="-1.8084450">
        <ele>1555.0</ele>
        <time>2019-07-05T14:00:14Z</time>
      </trkpt>
      <trkpt lat="40.4386760" lon="-1.8083740">
        <ele>1555.0</ele>
        <time>2019-07-05T14:00:15Z</time>
      </trkpt>
      <trkpt lat="40.4387070" lon="-1.8082360">
        <ele>1555.0</ele>
        <time>2019-07-05T14:00:17Z</time>
      </trkpt>
      <trkpt lat="40.4387940" lon="-1.8080710">
        <ele>1555.4</ele>
        <time>2019-07-05T14:00:20Z</time>
      </trkpt>
      <trkpt lat="40.4388290" lon="-1.8080270">
        <ele>1555.4</ele>
        <time>2019-07-05T14:00:21Z</time>
      </trkpt>
      <trkpt lat="40.4390300" lon="-1.8077780">
        <ele>1555.6</ele>
        <time>2019-07-05T14:00:27Z</time>
      </trkpt>
      <trkpt lat="40.4392600" lon="-1.8074510">
        <ele>1555.8</ele>
        <time>2019-07-05T14:00:34Z</time>
      </trkpt>
      <trkpt lat="40.4393230" lon="-1.8073550">
        <ele>1556.0</ele>
        <time>2019-07-05T14:00:36Z</time>
      </trkpt>
      <trkpt lat="40.4394060" lon="-1.8072210">
        <ele>1556.6</ele>
        <time>2019-07-05T14:00:39Z</time>
      </trkpt>
      <trkpt lat="40.4394700" lon="-1.8071100">
        <ele>1557.4</ele>
        <time>2019-07-05T14:00:42Z</time>
      </trkpt>
      <trkpt lat="40.4395220" lon="-1.8070030">
        <ele>1557.6</ele>
        <time>2019-07-05T14:00:45Z</time>
      </trkpt>
      <trkpt lat="40.4395710" lon="-1.8068860">
        <ele>1558.6</ele>
        <time>2019-07-05T14:00:48Z</time>
      </trkpt>
      <trkpt lat="40.4395870" lon="-1.8068440">
        <ele>1558.8</ele>
        <time>2019-07-05T14:00:49Z</time>
      </trkpt>
      <trkpt lat="40.4396180" lon="-1.8067570">
        <ele>1559.0</ele>
        <time>2019-07-05T14:00:51Z</time>
      </trkpt>
      <trkpt lat="40.4396730" lon="-1.8065950">
        <ele>1559.6</ele>
        <time>2019-07-05T14:00:55Z</time>
      </trkpt>
      <trkpt lat="40.4396870" lon="-1.8065600">
        <ele>1560.0</ele>
        <time>2019-07-05T14:00:56Z</time>
      </trkpt>
      <trkpt lat="40.4397310" lon="-1.8064570">
        <ele>1561.0</ele>
        <time>2019-07-05T14:00:59Z</time>
      </trkpt>
      <trkpt lat="40.4398030" lon="-1.8063190">
        <ele>1562.0</ele>
        <time>2019-07-05T14:01:03Z</time>
      </trkpt>
      <trkpt lat="40.4398810" lon="-1.8061690">
        <ele>1562.0</ele>
        <time>2019-07-05T14:01:07Z</time>
      </trkpt>
      <trkpt lat="40.4399150" lon="-1.8060820">
        <ele>1562.0</ele>
        <time>2019-07-05T14:01:09Z</time>
      </trkpt>
      <trkpt lat="40.4399780" lon="-1.8059080">
        <ele>1562.0</ele>
        <time>2019-07-05T14:01:13Z</time>
      </trkpt>
      <trkpt lat="40.4400260" lon="-1.8057340">
        <ele>1562.2</ele>
        <time>2019-07-05T14:01:17Z</time>
      </trkpt>
      <trkpt lat="40.4400480" lon="-1.8055150">
        <ele>1563.2</ele>
        <time>2019-07-05T14:01:22Z</time>
      </trkpt>
      <trkpt lat="40.4400510" lon="-1.8054310">
        <ele>1564.2</ele>
        <time>2019-07-05T14:01:24Z</time>
      </trkpt>
      <trkpt lat="40.4400530" lon="-1.8053900">
        <ele>1564.6</ele>
        <time>2019-07-05T14:01:25Z</time>
      </trkpt>
      <trkpt lat="40.4400660" lon="-1.8052790">
        <ele>1565.8</ele>
        <time>2019-07-05T14:01:28Z</time>
      </trkpt>
      <trkpt lat="40.4400750" lon="-1.8052030">
        <ele>1566.6</ele>
        <time>2019-07-05T14:01:30Z</time>
      </trkpt>
      <trkpt lat="40.4400890" lon="-1.8051290">
        <ele>1567.2</ele>
        <time>2019-07-05T14:01:32Z</time>
      </trkpt>
      <trkpt lat="40.4401110" lon="-1.8049890">
        <ele>1567.6</ele>
        <time>2019-07-05T14:01:36Z</time>
      </trkpt>
      <trkpt lat="40.4401350" lon="-1.8048610">
        <ele>1568.2</ele>
        <time>2019-07-05T14:01:40Z</time>
      </trkpt>
      <trkpt lat="40.4401500" lon="-1.8047670">
        <ele>1569.0</ele>
        <time>2019-07-05T14:01:43Z</time>
      </trkpt>
      <trkpt lat="40.4401550" lon="-1.8047360">
        <ele>1569.2</ele>
        <time>2019-07-05T14:01:44Z</time>
      </trkpt>
      <trkpt lat="40.4401670" lon="-1.8046360">
        <ele>1570.4</ele>
        <time>2019-07-05T14:01:47Z</time>
      </trkpt>
      <trkpt lat="40.4401760" lon="-1.8045400">
        <ele>1571.2</ele>
        <time>2019-07-05T14:01:50Z</time>
      </trkpt>
      <trkpt lat="40.4401800" lon="-1.8045080">
        <ele>1571.6</ele>
        <time>2019-07-05T14:01:51Z</time>
      </trkpt>
      <trkpt lat="40.4401950" lon="-1.8043350">
        <ele>1572.0</ele>
        <time>2019-07-05T14:01:56Z</time>
      </trkpt>
      <trkpt lat="40.4402180" lon="-1.8041940">
        <ele>1573.0</ele>
        <time>2019-07-05T14:02:00Z</time>
      </trkpt>
      <trkpt lat="40.4402410" lon="-1.8040510">
        <ele>1573.8</ele>
        <time>2019-07-05T14:02:04Z</time>
      </trkpt>
      <trkpt lat="40.4402460" lon="-1.8040150">
        <ele>1574.0</ele>
        <time>2019-07-05T14:02:05Z</time>
      </trkpt>
      <trkpt lat="40.4402760" lon="-1.8037650">
        <ele>1575.0</ele>
        <time>2019-07-05T14:02:12Z</time>
      </trkpt>
      <trkpt lat="40.4402850" lon="-1.8036930">
        <ele>1576.0</ele>
        <time>2019-07-05T14:02:14Z</time>
      </trkpt>
      <trkpt lat="40.4402890" lon="-1.8036560">
        <ele>1576.2</ele>
        <time>2019-07-05T14:02:15Z</time>
      </trkpt>
      <trkpt lat="40.4403150" lon="-1.8035070">
        <ele>1577.2</ele>
        <time>2019-07-05T14:02:19Z</time>
      </trkpt>
      <trkpt lat="40.4403320" lon="-1.8033980">
        <ele>1577.8</ele>
        <time>2019-07-05T14:02:22Z</time>
      </trkpt>
      <trkpt lat="40.4403450" lon="-1.8032900">
        <ele>1578.2</ele>
        <time>2019-07-05T14:02:25Z</time>
      </trkpt>
      <trkpt lat="40.4403580" lon="-1.8031810">
        <ele>1579.2</ele>
        <time>2019-07-05T14:02:28Z</time>
      </trkpt>
      <trkpt lat="40.4403680" lon="-1.8031080">
        <ele>1580.0</ele>
        <time>2019-07-05T14:02:30Z</time>
      </trkpt>
      <trkpt lat="40.4403760" lon="-1.8030360">
        <ele>1580.6</ele>
        <time>2019-07-05T14:02:32Z</time>
      </trkpt>
      <trkpt lat="40.4403840" lon="-1.8029320">
        <ele>1581.6</ele>
        <time>2019-07-05T14:02:35Z</time>
      </trkpt>
      <trkpt lat="40.4404000" lon="-1.8028110">
        <ele>1582.4</ele>
        <time>2019-07-05T14:02:39Z</time>
      </trkpt>
      <trkpt lat="40.4404240" lon="-1.8026010">
        <ele>1582.8</ele>
        <time>2019-07-05T14:02:46Z</time>
      </trkpt>
      <trkpt lat="40.4404320" lon="-1.8025430">
        <ele>1583.8</ele>
        <time>2019-07-05T14:02:48Z</time>
      </trkpt>
      <trkpt lat="40.4404460" lon="-1.8024580">
        <ele>1584.0</ele>
        <time>2019-07-05T14:02:51Z</time>
      </trkpt>
      <trkpt lat="40.4404670" lon="-1.8023060">
        <ele>1584.4</ele>
        <time>2019-07-05T14:02:56Z</time>
      </trkpt>
      <trkpt lat="40.4404750" lon="-1.8022410">
        <ele>1585.0</ele>
        <time>2019-07-05T14:02:58Z</time>
      </trkpt>
      <trkpt lat="40.4404910" lon="-1.8021050">
        <ele>1585.6</ele>
        <time>2019-07-05T14:03:02Z</time>
      </trkpt>
      <trkpt lat="40.4405090" lon="-1.8020010">
        <ele>1586.2</ele>
        <time>2019-07-05T14:03:05Z</time>
      </trkpt>
      <trkpt lat="40.4405320" lon="-1.8018550">
        <ele>1587.0</ele>
        <time>2019-07-05T14:03:09Z</time>
      </trkpt>
      <trkpt lat="40.4405350" lon="-1.8018200">
        <ele>1587.6</ele>
        <time>2019-07-05T14:03:10Z</time>
      </trkpt>
      <trkpt lat="40.4405530" lon="-1.8016820">
        <ele>1588.6</ele>
        <time>2019-07-05T14:03:14Z</time>
      </trkpt>
      <trkpt lat="40.4405610" lon="-1.8016140">
        <ele>1588.4</ele>
        <time>2019-07-05T14:03:16Z</time>
      </trkpt>
      <trkpt lat="40.4405940" lon="-1.8014250">
        <ele>1589.8</ele>
        <time>2019-07-05T14:03:22Z</time>
      </trkpt>
      <trkpt lat="40.4405990" lon="-1.8013950">
        <ele>1590.0</ele>
        <time>2019-07-05T14:03:23Z</time>
      </trkpt>
      <trkpt lat="40.4406040" lon="-1.8012990">
        <ele>1591.0</ele>
        <time>2019-07-05T14:03:26Z</time>
      </trkpt>
      <trkpt lat="40.4406230" lon="-1.8012030">
        <ele>1592.0</ele>
        <time>2019-07-05T14:03:29Z</time>
      </trkpt>
      <trkpt lat="40.4406470" lon="-1.8011110">
        <ele>1593.2</ele>
        <time>2019-07-05T14:03:32Z</time>
      </trkpt>
      <trkpt lat="40.4406520" lon="-1.8010810">
        <ele>1593.4</ele>
        <time>2019-07-05T14:03:33Z</time>
      </trkpt>
      <trkpt lat="40.4406670" lon="-1.8009640">
        <ele>1593.4</ele>
        <time>2019-07-05T14:03:37Z</time>
      </trkpt>
      <trkpt lat="40.4406770" lon="-1.8009020">
        <ele>1594.4</ele>
        <time>2019-07-05T14:03:39Z</time>
      </trkpt>
      <trkpt lat="40.4406930" lon="-1.8008110">
        <ele>1595.8</ele>
        <time>2019-07-05T14:03:42Z</time>
      </trkpt>
      <trkpt lat="40.4407000" lon="-1.8007870">
        <ele>1596.0</ele>
        <time>2019-07-05T14:03:43Z</time>
      </trkpt>
      <trkpt lat="40.4407300" lon="-1.8006930">
        <ele>1596.8</ele>
        <time>2019-07-05T14:03:47Z</time>
      </trkpt>
      <trkpt lat="40.4407440" lon="-1.8006450">
        <ele>1598.0</ele>
        <time>2019-07-05T14:03:49Z</time>
      </trkpt>
      <trkpt lat="40.4407550" lon="-1.8006220">
        <ele>1598.4</ele>
        <time>2019-07-05T14:03:50Z</time>
      </trkpt>
      <trkpt lat="40.4408380" lon="-1.8005090">
        <ele>1599.0</ele>
        <time>2019-07-05T14:03:56Z</time>
      </trkpt>
      <trkpt lat="40.4409730" lon="-1.8004150">
        <ele>1600.0</ele>
        <time>2019-07-05T14:04:03Z</time>
      </trkpt>
      <trkpt lat="40.4409950" lon="-1.8004000">
        <ele>1600.4</ele>
        <time>2019-07-05T14:04:04Z</time>
      </trkpt>
      <trkpt lat="40.4410910" lon="-1.8003580">
        <ele>1601.0</ele>
        <time>2019-07-05T14:04:08Z</time>
      </trkpt>
      <trkpt lat="40.4411420" lon="-1.8003390">
        <ele>1601.4</ele>
        <time>2019-07-05T14:04:10Z</time>
      </trkpt>
      <trkpt lat="40.4412380" lon="-1.8003230">
        <ele>1602.4</ele>
        <time>2019-07-05T14:04:14Z</time>
      </trkpt>
      <trkpt lat="40.4412860" lon="-1.8003200">
        <ele>1602.8</ele>
        <time>2019-07-05T14:04:16Z</time>
      </trkpt>
      <trkpt lat="40.4413750" lon="-1.8003290">
        <ele>1603.6</ele>
        <time>2019-07-05T14:04:20Z</time>
      </trkpt>
      <trkpt lat="40.4414410" lon="-1.8003540">
        <ele>1604.6</ele>
        <time>2019-07-05T14:04:23Z</time>
      </trkpt>
      <trkpt lat="40.4415070" lon="-1.8003950">
        <ele>1605.8</ele>
        <time>2019-07-05T14:04:26Z</time>
      </trkpt>
      <trkpt lat="40.4415930" lon="-1.8004670">
        <ele>1607.0</ele>
        <time>2019-07-05T14:04:30Z</time>
      </trkpt>
      <trkpt lat="40.4416140" lon="-1.8004880">
        <ele>1607.2</ele>
        <time>2019-07-05T14:04:31Z</time>
      </trkpt>
      <trkpt lat="40.4417110" lon="-1.8006430">
        <ele>1607.8</ele>
        <time>2019-07-05T14:04:37Z</time>
      </trkpt>
      <trkpt lat="40.4417360" lon="-1.8006910">
        <ele>1608.0</ele>
        <time>2019-07-05T14:04:39Z</time>
      </trkpt>
      <trkpt lat="40.4417820" lon="-1.8008010">
        <ele>1609.0</ele>
        <time>2019-07-05T14:04:44Z</time>
      </trkpt>
      <trkpt lat="40.4417910" lon="-1.8008230">
        <ele>1609.2</ele>
        <time>2019-07-05T14:04:45Z</time>
      </trkpt>
      <trkpt lat="40.4418400" lon="-1.8009440">
        <ele>1610.2</ele>
        <time>2019-07-05T14:04:51Z</time>
      </trkpt>
      <trkpt lat="40.4418630" lon="-1.8010080">
        <ele>1611.2</ele>
        <time>2019-07-05T14:04:54Z</time>
      </trkpt>
      <trkpt lat="40.4419170" lon="-1.8011550">
        <ele>1612.4</ele>
        <time>2019-07-05T14:05:01Z</time>
      </trkpt>
      <trkpt lat="40.4419380" lon="-1.8012080">
        <ele>1613.4</ele>
        <time>2019-07-05T14:05:04Z</time>
      </trkpt>
      <trkpt lat="40.4419440" lon="-1.8012280">
        <ele>1613.6</ele>
        <time>2019-07-05T14:05:05Z</time>
      </trkpt>
      <trkpt lat="40.4419860" lon="-1.8013500">
        <ele>1614.6</ele>
        <time>2019-07-05T14:05:12Z</time>
      </trkpt>
      <trkpt lat="40.4419900" lon="-1.8013700">
        <ele>1614.8</ele>
        <time>2019-07-05T14:05:13Z</time>
      </trkpt>
      <trkpt lat="40.4420030" lon="-1.8014290">
        <ele>1615.8</ele>
        <time>2019-07-05T14:05:16Z</time>
      </trkpt>
      <trkpt lat="40.4420280" lon="-1.8015140">
        <ele>1616.8</ele>
        <time>2019-07-05T14:05:20Z</time>
      </trkpt>
      <trkpt lat="40.4420330" lon="-1.8015350">
        <ele>1617.0</ele>
        <time>2019-07-05T14:05:21Z</time>
      </trkpt>
      <trkpt lat="40.4420530" lon="-1.8016640">
        <ele>1618.0</ele>
        <time>2019-07-05T14:05:27Z</time>
      </trkpt>
      <trkpt lat="40.4420900" lon="-1.8018110">
        <ele>1619.4</ele>
        <time>2019-07-05T14:05:34Z</time>
      </trkpt>
      <trkpt lat="40.4421220" lon="-1.8019660">
        <ele>1620.2</ele>
        <time>2019-07-05T14:05:41Z</time>
      </trkpt>
      <trkpt lat="40.4421310" lon="-1.8020130">
        <ele>1620.8</ele>
        <time>2019-07-05T14:05:43Z</time>
      </trkpt>
      <trkpt lat="40.4421460" lon="-1.8020800">
        <ele>1621.8</ele>
        <time>2019-07-05T14:05:46Z</time>
      </trkpt>
      <trkpt lat="40.4421660" lon="-1.8021810">
        <ele>1622.2</ele>
        <time>2019-07-05T14:05:50Z</time>
      </trkpt>
      <trkpt lat="40.4421890" lon="-1.8022950">
        <ele>1623.0</ele>
        <time>2019-07-05T14:05:54Z</time>
      </trkpt>
      <trkpt lat="40.4422210" lon="-1.8024740">
        <ele>1623.8</ele>
        <time>2019-07-05T14:06:00Z</time>
      </trkpt>
      <trkpt lat="40.4422390" lon="-1.8025750">
        <ele>1624.4</ele>
        <time>2019-07-05T14:06:03Z</time>
      </trkpt>
      <trkpt lat="40.4422770" lon="-1.8027680">
        <ele>1625.4</ele>
        <time>2019-07-05T14:06:08Z</time>
      </trkpt>
      <trkpt lat="40.4422850" lon="-1.8028090">
        <ele>1625.6</ele>
        <time>2019-07-05T14:06:09Z</time>
      </trkpt>
      <trkpt lat="40.4423500" lon="-1.8030980">
        <ele>1626.0</ele>
        <time>2019-07-05T14:06:16Z</time>
      </trkpt>
      <trkpt lat="40.4423830" lon="-1.8032180">
        <ele>1626.4</ele>
        <time>2019-07-05T14:06:19Z</time>
      </trkpt>
      <trkpt lat="40.4424460" lon="-1.8034050">
        <ele>1626.6</ele>
        <time>2019-07-05T14:06:24Z</time>
      </trkpt>
      <trkpt lat="40.4425020" lon="-1.8035490">
        <ele>1627.4</ele>
        <time>2019-07-05T14:06:28Z</time>
      </trkpt>
      <trkpt lat="40.4425660" lon="-1.8036750">
        <ele>1628.2</ele>
        <time>2019-07-05T14:06:32Z</time>
      </trkpt>
      <trkpt lat="40.4425970" lon="-1.8037390">
        <ele>1628.6</ele>
        <time>2019-07-05T14:06:34Z</time>
      </trkpt>
      <trkpt lat="40.4426770" lon="-1.8038910">
        <ele>1629.2</ele>
        <time>2019-07-05T14:06:39Z</time>
      </trkpt>
      <trkpt lat="40.4427420" lon="-1.8039910">
        <ele>1629.6</ele>
        <time>2019-07-05T14:06:43Z</time>
      </trkpt>
      <trkpt lat="40.4427840" lon="-1.8040610">
        <ele>1630.6</ele>
        <time>2019-07-05T14:06:46Z</time>
      </trkpt>
      <trkpt lat="40.4427970" lon="-1.8040830">
        <ele>1630.8</ele>
        <time>2019-07-05T14:06:47Z</time>
      </trkpt>
      <trkpt lat="40.4428480" lon="-1.8041670">
        <ele>1631.8</ele>
        <time>2019-07-05T14:06:51Z</time>
      </trkpt>
      <trkpt lat="40.4428890" lon="-1.8042320">
        <ele>1633.0</ele>
        <time>2019-07-05T14:06:54Z</time>
      </trkpt>
      <trkpt lat="40.4429320" lon="-1.8043040">
        <ele>1633.8</ele>
        <time>2019-07-05T14:06:57Z</time>
      </trkpt>
      <trkpt lat="40.4429470" lon="-1.8043250">
        <ele>1634.0</ele>
        <time>2019-07-05T14:06:58Z</time>
      </trkpt>
      <trkpt lat="40.4430260" lon="-1.8044300">
        <ele>1635.2</ele>
        <time>2019-07-05T14:07:03Z</time>
      </trkpt>
      <trkpt lat="40.4430640" lon="-1.8044960">
        <ele>1636.8</ele>
        <time>2019-07-05T14:07:06Z</time>
      </trkpt>
      <trkpt lat="40.4430830" lon="-1.8045340">
        <ele>1638.0</ele>
        <time>2019-07-05T14:07:08Z</time>
      </trkpt>
      <trkpt lat="40.4431170" lon="-1.8045880">
        <ele>1638.4</ele>
        <time>2019-07-05T14:07:11Z</time>
      </trkpt>
      <trkpt lat="40.4431460" lon="-1.8046550">
        <ele>1639.0</ele>
        <time>2019-07-05T14:07:14Z</time>
      </trkpt>
      <trkpt lat="40.4432020" lon="-1.8047650">
        <ele>1639.6</ele>
        <time>2019-07-05T14:07:19Z</time>
      </trkpt>
      <trkpt lat="40.4432880" lon="-1.8049190">
        <ele>1639.6</ele>
        <time>2019-07-05T14:07:26Z</time>
      </trkpt>
      <trkpt lat="40.4433110" lon="-1.8049590">
        <ele>1640.2</ele>
        <time>2019-07-05T14:07:28Z</time>
      </trkpt>
      <trkpt lat="40.4433780" lon="-1.8051130">
        <ele>1640.4</ele>
        <time>2019-07-05T14:07:35Z</time>
      </trkpt>
      <trkpt lat="40.4434310" lon="-1.8052830">
        <ele>1641.2</ele>
        <time>2019-07-05T14:07:42Z</time>
      </trkpt>
      <trkpt lat="40.4434640" lon="-1.8054500">
        <ele>1642.4</ele>
        <time>2019-07-05T14:07:49Z</time>
      </trkpt>
      <trkpt lat="40.4434900" lon="-1.8055830">
        <ele>1643.4</ele>
        <time>2019-07-05T14:07:55Z</time>
      </trkpt>
      <trkpt lat="40.4434930" lon="-1.8056030">
        <ele>1643.6</ele>
        <time>2019-07-05T14:07:56Z</time>
      </trkpt>
      <trkpt lat="40.4435070" lon="-1.8056670">
        <ele>1644.4</ele>
        <time>2019-07-05T14:07:59Z</time>
      </trkpt>
      <trkpt lat="40.4435240" lon="-1.8057690">
        <ele>1645.4</ele>
        <time>2019-07-05T14:08:04Z</time>
      </trkpt>
      <trkpt lat="40.4435290" lon="-1.8058320">
        <ele>1645.8</ele>
        <time>2019-07-05T14:08:07Z</time>
      </trkpt>
      <trkpt lat="40.4435330" lon="-1.8058970">
        <ele>1647.0</ele>
        <time>2019-07-05T14:08:10Z</time>
      </trkpt>
      <trkpt lat="40.4435390" lon="-1.8059420">
        <ele>1647.4</ele>
        <time>2019-07-05T14:08:12Z</time>
      </trkpt>
      <trkpt lat="40.4435550" lon="-1.8060060">
        <ele>1648.2</ele>
        <time>2019-07-05T14:08:15Z</time>
      </trkpt>
      <trkpt lat="40.4435680" lon="-1.8060890">
        <ele>1649.0</ele>
        <time>2019-07-05T14:08:19Z</time>
      </trkpt>
      <trkpt lat="40.4435740" lon="-1.8061290">
        <ele>1649.4</ele>
        <time>2019-07-05T14:08:21Z</time>
      </trkpt>
      <trkpt lat="40.4435890" lon="-1.8062070">
        <ele>1650.4</ele>
        <time>2019-07-05T14:08:25Z</time>
      </trkpt>
      <trkpt lat="40.4435920" lon="-1.8062540">
        <ele>1650.8</ele>
        <time>2019-07-05T14:08:27Z</time>
      </trkpt>
      <trkpt lat="40.4436070" lon="-1.8063630">
        <ele>1651.6</ele>
        <time>2019-07-05T14:08:32Z</time>
      </trkpt>
      <trkpt lat="40.4436140" lon="-1.8064040">
        <ele>1652.2</ele>
        <time>2019-07-05T14:08:34Z</time>
      </trkpt>
      <trkpt lat="40.4436250" lon="-1.8064680">
        <ele>1652.6</ele>
        <time>2019-07-05T14:08:37Z</time>
      </trkpt>
      <trkpt lat="40.4436410" lon="-1.8065590">
        <ele>1653.4</ele>
        <time>2019-07-05T14:08:41Z</time>
      </trkpt>
      <trkpt lat="40.4436610" lon="-1.8066740">
        <ele>1653.8</ele>
        <time>2019-07-05T14:08:46Z</time>
      </trkpt>
      <trkpt lat="40.4436770" lon="-1.8067990">
        <ele>1654.4</ele>
        <time>2019-07-05T14:08:51Z</time>
      </trkpt>
      <trkpt lat="40.4436810" lon="-1.8068240">
        <ele>1654.8</ele>
        <time>2019-07-05T14:08:52Z</time>
      </trkpt>
      <trkpt lat="40.4437030" lon="-1.8070320">
        <ele>1655.8</ele>
        <time>2019-07-05T14:09:00Z</time>
      </trkpt>
      <trkpt lat="40.4437060" lon="-1.8070600">
        <ele>1656.0</ele>
        <time>2019-07-05T14:09:01Z</time>
      </trkpt>
      <trkpt lat="40.4437170" lon="-1.8072950">
        <ele>1656.6</ele>
        <time>2019-07-05T14:09:09Z</time>
      </trkpt>
      <trkpt lat="40.4437200" lon="-1.8073940">
        <ele>1657.0</ele>
        <time>2019-07-05T14:09:12Z</time>
      </trkpt>
      <trkpt lat="40.4437200" lon="-1.8074680">
        <ele>1657.0</ele>
        <time>2019-07-05T14:09:14Z</time>
      </trkpt>
      <trkpt lat="40.4437040" lon="-1.8076570">
        <ele>1657.8</ele>
        <time>2019-07-05T14:09:19Z</time>
      </trkpt>
      <trkpt lat="40.4436880" lon="-1.8077260">
        <ele>1657.8</ele>
        <time>2019-07-05T14:09:21Z</time>
      </trkpt>
      <trkpt lat="40.4436890" lon="-1.8077660">
        <ele>1658.0</ele>
        <time>2019-07-05T14:09:22Z</time>
      </trkpt>
      <trkpt lat="40.4437060" lon="-1.8078480">
        <ele>1658.0</ele>
        <time>2019-07-05T14:09:24Z</time>
      </trkpt>
      <trkpt lat="40.4437290" lon="-1.8079370">
        <ele>1658.0</ele>
        <time>2019-07-05T14:09:26Z</time>
      </trkpt>
      <trkpt lat="40.4437380" lon="-1.8079940">
        <ele>1657.8</ele>
        <time>2019-07-05T14:09:29Z</time>
      </trkpt>
      <trkpt lat="40.4437370" lon="-1.8079930">
        <ele>1657.4</ele>
        <time>2019-07-05T14:09:30Z</time>
      </trkpt>
      <trkpt lat="40.4437610" lon="-1.8080320">
        <ele>1657.2</ele>
        <time>2019-07-05T14:09:45Z</time>
      </trkpt>
      <trkpt lat="40.4437730" lon="-1.8080560">
        <ele>1657.2</ele>
        <time>2019-07-05T14:09:46Z</time>
      </trkpt>
      <trkpt lat="40.4437890" lon="-1.8080860">
        <ele>1657.0</ele>
        <time>2019-07-05T14:09:47Z</time>
      </trkpt>
      <trkpt lat="40.4438210" lon="-1.8081580">
        <ele>1656.8</ele>
        <time>2019-07-05T14:09:49Z</time>
      </trkpt>
      <trkpt lat="40.4438670" lon="-1.8082840">
        <ele>1655.8</ele>
        <time>2019-07-05T14:09:52Z</time>
      </trkpt>
      <trkpt lat="40.4438850" lon="-1.8083280">
        <ele>1655.8</ele>
        <time>2019-07-05T14:09:53Z</time>
      </trkpt>
      <trkpt lat="40.4439260" lon="-1.8084250">
        <ele>1655.6</ele>
        <time>2019-07-05T14:09:55Z</time>
      </trkpt>
      <trkpt lat="40.4439900" lon="-1.8085960">
        <ele>1655.6</ele>
        <time>2019-07-05T14:09:58Z</time>
      </trkpt>
      <trkpt lat="40.4440140" lon="-1.8086560">
        <ele>1655.6</ele>
        <time>2019-07-05T14:09:59Z</time>
      </trkpt>
      <trkpt lat="40.4441390" lon="-1.8089960">
        <ele>1654.4</ele>
        <time>2019-07-05T14:10:04Z</time>
      </trkpt>
      <trkpt lat="40.4441900" lon="-1.8091370">
        <ele>1654.0</ele>
        <time>2019-07-05T14:10:06Z</time>
      </trkpt>
      <trkpt lat="40.4442490" lon="-1.8092770">
        <ele>1653.2</ele>
        <time>2019-07-05T14:10:08Z</time>
      </trkpt>
      <trkpt lat="40.4443160" lon="-1.8094120">
        <ele>1651.4</ele>
        <time>2019-07-05T14:10:10Z</time>
      </trkpt>
      <trkpt lat="40.4443530" lon="-1.8094680">
        <ele>1650.8</ele>
        <time>2019-07-05T14:10:11Z</time>
      </trkpt>
      <trkpt lat="40.4444190" lon="-1.8095730">
        <ele>1650.2</ele>
        <time>2019-07-05T14:10:13Z</time>
      </trkpt>
      <trkpt lat="40.4445760" lon="-1.8098320">
        <ele>1649.2</ele>
        <time>2019-07-05T14:10:18Z</time>
      </trkpt>
      <trkpt lat="40.4446030" lon="-1.8098870">
        <ele>1649.0</ele>
        <time>2019-07-05T14:10:19Z</time>
      </trkpt>
      <trkpt lat="40.4446980" lon="-1.8100730">
        <ele>1648.2</ele>
        <time>2019-07-05T14:10:23Z</time>
      </trkpt>
      <trkpt lat="40.4447230" lon="-1.8101230">
        <ele>1648.0</ele>
        <time>2019-07-05T14:10:24Z</time>
      </trkpt>
      <trkpt lat="40.4448410" lon="-1.8104050">
        <ele>1647.4</ele>
        <time>2019-07-05T14:10:29Z</time>
      </trkpt>
      <trkpt lat="40.4448960" lon="-1.8105570">
        <ele>1646.6</ele>
        <time>2019-07-05T14:10:32Z</time>
      </trkpt>
      <trkpt lat="40.4449600" lon="-1.8107080">
        <ele>1645.6</ele>
        <time>2019-07-05T14:10:35Z</time>
      </trkpt>
      <trkpt lat="40.4449810" lon="-1.8107560">
        <ele>1645.4</ele>
        <time>2019-07-05T14:10:36Z</time>
      </trkpt>
      <trkpt lat="40.4450470" lon="-1.8109090">
        <ele>1644.4</ele>
        <time>2019-07-05T14:10:39Z</time>
      </trkpt>
      <trkpt lat="40.4450970" lon="-1.8110240">
        <ele>1643.2</ele>
        <time>2019-07-05T14:10:41Z</time>
      </trkpt>
      <trkpt lat="40.4451200" lon="-1.8110910">
        <ele>1642.6</ele>
        <time>2019-07-05T14:10:42Z</time>
      </trkpt>
      <trkpt lat="40.4451390" lon="-1.8111630">
        <ele>1642.0</ele>
        <time>2019-07-05T14:10:43Z</time>
      </trkpt>
      <trkpt lat="40.4451730" lon="-1.8112870">
        <ele>1640.2</ele>
        <time>2019-07-05T14:10:45Z</time>
      </trkpt>
      <trkpt lat="40.4451930" lon="-1.8113420">
        <ele>1639.6</ele>
        <time>2019-07-05T14:10:46Z</time>
      </trkpt>
      <trkpt lat="40.4452150" lon="-1.8113980">
        <ele>1639.4</ele>
        <time>2019-07-05T14:10:47Z</time>
      </trkpt>
      <trkpt lat="40.4452600" lon="-1.8114990">
        <ele>1639.0</ele>
        <time>2019-07-05T14:10:49Z</time>
      </trkpt>
      <trkpt lat="40.4453270" lon="-1.8116290">
        <ele>1638.2</ele>
        <time>2019-07-05T14:10:52Z</time>
      </trkpt>
      <trkpt lat="40.4453530" lon="-1.8116780">
        <ele>1637.6</ele>
        <time>2019-07-05T14:10:53Z</time>
      </trkpt>
      <trkpt lat="40.4454720" lon="-1.8118720">
        <ele>1636.0</ele>
        <time>2019-07-05T14:10:57Z</time>
      </trkpt>
      <trkpt lat="40.4456530" lon="-1.8121760">
        <ele>1635.4</ele>
        <time>2019-07-05T14:11:03Z</time>
      </trkpt>
      <trkpt lat="40.4457090" lon="-1.8122640">
        <ele>1634.8</ele>
        <time>2019-07-05T14:11:05Z</time>
      </trkpt>
      <trkpt lat="40.4458070" lon="-1.8123850">
        <ele>1633.4</ele>
        <time>2019-07-05T14:11:08Z</time>
      </trkpt>
      <trkpt lat="40.4458430" lon="-1.8124230">
        <ele>1633.0</ele>
        <time>2019-07-05T14:11:09Z</time>
      </trkpt>
      <trkpt lat="40.4459190" lon="-1.8124980">
        <ele>1632.2</ele>
        <time>2019-07-05T14:11:11Z</time>
      </trkpt>
      <trkpt lat="40.4459950" lon="-1.8125530">
        <ele>1630.8</ele>
        <time>2019-07-05T14:11:13Z</time>
      </trkpt>
      <trkpt lat="40.4460720" lon="-1.8126070">
        <ele>1629.6</ele>
        <time>2019-07-05T14:11:15Z</time>
      </trkpt>
      <trkpt lat="40.4461780" lon="-1.8126900">
        <ele>1628.6</ele>
        <time>2019-07-05T14:11:18Z</time>
      </trkpt>
      <trkpt lat="40.4462750" lon="-1.8127530">
        <ele>1627.2</ele>
        <time>2019-07-05T14:11:21Z</time>
      </trkpt>
      <trkpt lat="40.4463840" lon="-1.8127920">
        <ele>1626.2</ele>
        <time>2019-07-05T14:11:24Z</time>
      </trkpt>
      <trkpt lat="40.4464790" lon="-1.8128210">
        <ele>1625.8</ele>
        <time>2019-07-05T14:11:26Z</time>
      </trkpt>
      <trkpt lat="40.4465250" lon="-1.8128370">
        <ele>1624.6</ele>
        <time>2019-07-05T14:11:27Z</time>
      </trkpt>
      <trkpt lat="40.4465690" lon="-1.8128560">
        <ele>1623.2</ele>
        <time>2019-07-05T14:11:28Z</time>
      </trkpt>
      <trkpt lat="40.4466860" lon="-1.8129610">
        <ele>1621.6</ele>
        <time>2019-07-05T14:11:31Z</time>
      </trkpt>
      <trkpt lat="40.4467990" lon="-1.8130650">
        <ele>1620.2</ele>
        <time>2019-07-05T14:11:34Z</time>
      </trkpt>
      <trkpt lat="40.4468760" lon="-1.8131000">
        <ele>1619.2</ele>
        <time>2019-07-05T14:11:36Z</time>
      </trkpt>
      <trkpt lat="40.4469590" lon="-1.8131600">
        <ele>1618.0</ele>
        <time>2019-07-05T14:11:38Z</time>
      </trkpt>
      <trkpt lat="40.4470040" lon="-1.8132000">
        <ele>1617.4</ele>
        <time>2019-07-05T14:11:39Z</time>
      </trkpt>
      <trkpt lat="40.4470490" lon="-1.8132510">
        <ele>1617.0</ele>
        <time>2019-07-05T14:11:40Z</time>
      </trkpt>
      <trkpt lat="40.4471650" lon="-1.8134040">
        <ele>1615.6</ele>
        <time>2019-07-05T14:11:43Z</time>
      </trkpt>
      <trkpt lat="40.4471970" lon="-1.8134600">
        <ele>1615.2</ele>
        <time>2019-07-05T14:11:44Z</time>
      </trkpt>
      <trkpt lat="40.4472250" lon="-1.8135190">
        <ele>1614.6</ele>
        <time>2019-07-05T14:11:45Z</time>
      </trkpt>
      <trkpt lat="40.4472490" lon="-1.8135760">
        <ele>1614.2</ele>
        <time>2019-07-05T14:11:46Z</time>
      </trkpt>
      <trkpt lat="40.4473130" lon="-1.8137500">
        <ele>1613.0</ele>
        <time>2019-07-05T14:11:49Z</time>
      </trkpt>
      <trkpt lat="40.4473530" lon="-1.8138650">
        <ele>1612.0</ele>
        <time>2019-07-05T14:11:51Z</time>
      </trkpt>
      <trkpt lat="40.4473710" lon="-1.8139180">
        <ele>1611.6</ele>
        <time>2019-07-05T14:11:52Z</time>
      </trkpt>
      <trkpt lat="40.4474380" lon="-1.8140800">
        <ele>1611.0</ele>
        <time>2019-07-05T14:11:55Z</time>
      </trkpt>
      <trkpt lat="40.4474970" lon="-1.8141480">
        <ele>1610.2</ele>
        <time>2019-07-05T14:11:57Z</time>
      </trkpt>
      <trkpt lat="40.4476090" lon="-1.8142350">
        <ele>1609.6</ele>
        <time>2019-07-05T14:12:01Z</time>
      </trkpt>
      <trkpt lat="40.4476610" lon="-1.8142730">
        <ele>1609.6</ele>
        <time>2019-07-05T14:12:03Z</time>
      </trkpt>
      <trkpt lat="40.4477950" lon="-1.8143860">
        <ele>1609.2</ele>
        <time>2019-07-05T14:12:08Z</time>
      </trkpt>
      <trkpt lat="40.4478690" lon="-1.8144590">
        <ele>1609.0</ele>
        <time>2019-07-05T14:12:11Z</time>
      </trkpt>
      <trkpt lat="40.4480860" lon="-1.8146180">
        <ele>1608.0</ele>
        <time>2019-07-05T14:12:19Z</time>
      </trkpt>
      <trkpt lat="40.4482710" lon="-1.8147810">
        <ele>1608.6</ele>
        <time>2019-07-05T14:12:25Z</time>
      </trkpt>
      <trkpt lat="40.4483920" lon="-1.8149480">
        <ele>1608.0</ele>
        <time>2019-07-05T14:12:30Z</time>
      </trkpt>
      <trkpt lat="40.4484150" lon="-1.8149820">
        <ele>1607.8</ele>
        <time>2019-07-05T14:12:31Z</time>
      </trkpt>
      <trkpt lat="40.4485180" lon="-1.8151340">
        <ele>1607.0</ele>
        <time>2019-07-05T14:12:36Z</time>
      </trkpt>
      <trkpt lat="40.4485910" lon="-1.8152940">
        <ele>1606.4</ele>
        <time>2019-07-05T14:12:40Z</time>
      </trkpt>
      <trkpt lat="40.4486160" lon="-1.8153840">
        <ele>1606.8</ele>
        <time>2019-07-05T14:12:42Z</time>
      </trkpt>
      <trkpt lat="40.4487040" lon="-1.8157330">
        <ele>1606.8</ele>
        <time>2019-07-05T14:12:50Z</time>
      </trkpt>
      <trkpt lat="40.4487630" lon="-1.8158620">
        <ele>1606.6</ele>
        <time>2019-07-05T14:12:53Z</time>
      </trkpt>
      <trkpt lat="40.4488220" lon="-1.8159380">
        <ele>1606.4</ele>
        <time>2019-07-05T14:12:55Z</time>
      </trkpt>
      <trkpt lat="40.4488910" lon="-1.8160100">
        <ele>1606.0</ele>
        <time>2019-07-05T14:12:57Z</time>
      </trkpt>
      <trkpt lat="40.4489680" lon="-1.8160770">
        <ele>1605.8</ele>
        <time>2019-07-05T14:12:59Z</time>
      </trkpt>
      <trkpt lat="40.4491050" lon="-1.8161660">
        <ele>1605.6</ele>
        <time>2019-07-05T14:13:02Z</time>
      </trkpt>
      <trkpt lat="40.4493720" lon="-1.8162740">
        <ele>1605.6</ele>
        <time>2019-07-05T14:13:07Z</time>
      </trkpt>
      <trkpt lat="40.4494290" lon="-1.8162970">
        <ele>1605.8</ele>
        <time>2019-07-05T14:13:08Z</time>
      </trkpt>
      <trkpt lat="40.4495460" lon="-1.8163410">
        <ele>1605.4</ele>
        <time>2019-07-05T14:13:10Z</time>
      </trkpt>
      <trkpt lat="40.4496080" lon="-1.8163540">
        <ele>1604.8</ele>
        <time>2019-07-05T14:13:11Z</time>
      </trkpt>
      <trkpt lat="40.4497350" lon="-1.8163840">
        <ele>1603.0</ele>
        <time>2019-07-05T14:13:13Z</time>
      </trkpt>
      <trkpt lat="40.4497960" lon="-1.8164060">
        <ele>1602.6</ele>
        <time>2019-07-05T14:13:14Z</time>
      </trkpt>
      <trkpt lat="40.4499610" lon="-1.8165180">
        <ele>1602.2</ele>
        <time>2019-07-05T14:13:17Z</time>
      </trkpt>
      <trkpt lat="40.4501030" lon="-1.8167220">
        <ele>1602.2</ele>
        <time>2019-07-05T14:13:21Z</time>
      </trkpt>
      <trkpt lat="40.4501440" lon="-1.8168970">
        <ele>1602.2</ele>
        <time>2019-07-05T14:13:25Z</time>
      </trkpt>
      <trkpt lat="40.4501520" lon="-1.8169330">
        <ele>1602.2</ele>
        <time>2019-07-05T14:13:26Z</time>
      </trkpt>
      <trkpt lat="40.4501850" lon="-1.8170620">
        <ele>1603.6</ele>
        <time>2019-07-05T14:13:30Z</time>
      </trkpt>
      <trkpt lat="40.4502090" lon="-1.8171200">
        <ele>1604.0</ele>
        <time>2019-07-05T14:13:32Z</time>
      </trkpt>
      <trkpt lat="40.4502500" lon="-1.8172400">
        <ele>1603.8</ele>
        <time>2019-07-05T14:13:36Z</time>
      </trkpt>
      <trkpt lat="40.4502830" lon="-1.8173240">
        <ele>1604.0</ele>
        <time>2019-07-05T14:13:39Z</time>
      </trkpt>
      <trkpt lat="40.4502950" lon="-1.8173530">
        <ele>1604.2</ele>
        <time>2019-07-05T14:13:40Z</time>
      </trkpt>
      <trkpt lat="40.4503060" lon="-1.8173800">
        <ele>1604.6</ele>
        <time>2019-07-05T14:13:41Z</time>
      </trkpt>
      <trkpt lat="40.4503390" lon="-1.8174550">
        <ele>1605.4</ele>
        <time>2019-07-05T14:13:44Z</time>
      </trkpt>
      <trkpt lat="40.4503800" lon="-1.8175510">
        <ele>1606.0</ele>
        <time>2019-07-05T14:13:48Z</time>
      </trkpt>
      <trkpt lat="40.4503950" lon="-1.8175980">
        <ele>1606.4</ele>
        <time>2019-07-05T14:13:50Z</time>
      </trkpt>
      <trkpt lat="40.4504050" lon="-1.8176170">
        <ele>1606.6</ele>
        <time>2019-07-05T14:13:51Z</time>
      </trkpt>
      <trkpt lat="40.4504610" lon="-1.8177030">
        <ele>1607.4</ele>
        <time>2019-07-05T14:13:55Z</time>
      </trkpt>
      <trkpt lat="40.4504940" lon="-1.8177800">
        <ele>1607.6</ele>
        <time>2019-07-05T14:13:58Z</time>
      </trkpt>
      <trkpt lat="40.4505500" lon="-1.8178760">
        <ele>1608.6</ele>
        <time>2019-07-05T14:14:02Z</time>
      </trkpt>
      <trkpt lat="40.4505990" lon="-1.8180190">
        <ele>1609.2</ele>
        <time>2019-07-05T14:14:07Z</time>
      </trkpt>
      <trkpt lat="40.4506910" lon="-1.8181910">
        <ele>1609.6</ele>
        <time>2019-07-05T14:14:13Z</time>
      </trkpt>
      <trkpt lat="40.4507140" lon="-1.8182170">
        <ele>1609.6</ele>
        <time>2019-07-05T14:14:14Z</time>
      </trkpt>
      <trkpt lat="40.4509110" lon="-1.8183780">
        <ele>1608.6</ele>
        <time>2019-07-05T14:14:21Z</time>
      </trkpt>
      <trkpt lat="40.4510400" lon="-1.8184830">
        <ele>1608.0</ele>
        <time>2019-07-05T14:14:25Z</time>
      </trkpt>
      <trkpt lat="40.4511140" lon="-1.8185500">
        <ele>1607.8</ele>
        <time>2019-07-05T14:14:27Z</time>
      </trkpt>
      <trkpt lat="40.4511550" lon="-1.8185880">
        <ele>1607.6</ele>
        <time>2019-07-05T14:14:28Z</time>
      </trkpt>
      <trkpt lat="40.4512420" lon="-1.8186700">
        <ele>1606.4</ele>
        <time>2019-07-05T14:14:30Z</time>
      </trkpt>
      <trkpt lat="40.4513710" lon="-1.8188110">
        <ele>1604.6</ele>
        <time>2019-07-05T14:14:33Z</time>
      </trkpt>
      <trkpt lat="40.4514550" lon="-1.8189190">
        <ele>1603.2</ele>
        <time>2019-07-05T14:14:35Z</time>
      </trkpt>
      <trkpt lat="40.4515260" lon="-1.8190180">
        <ele>1601.8</ele>
        <time>2019-07-05T14:14:37Z</time>
      </trkpt>
      <trkpt lat="40.4516050" lon="-1.8191230">
        <ele>1601.2</ele>
        <time>2019-07-05T14:14:39Z</time>
      </trkpt>
      <trkpt lat="40.4516910" lon="-1.8192150">
        <ele>1600.4</ele>
        <time>2019-07-05T14:14:41Z</time>
      </trkpt>
      <trkpt lat="40.4518200" lon="-1.8193310">
        <ele>1599.6</ele>
        <time>2019-07-05T14:14:44Z</time>
      </trkpt>
      <trkpt lat="40.4518650" lon="-1.8193710">
        <ele>1599.2</ele>
        <time>2019-07-05T14:14:45Z</time>
      </trkpt>
      <trkpt lat="40.4519610" lon="-1.8194550">
        <ele>1598.2</ele>
        <time>2019-07-05T14:14:47Z</time>
      </trkpt>
      <trkpt lat="40.4520540" lon="-1.8195430">
        <ele>1597.0</ele>
        <time>2019-07-05T14:14:49Z</time>
      </trkpt>
      <trkpt lat="40.4520970" lon="-1.8195850">
        <ele>1596.6</ele>
        <time>2019-07-05T14:14:50Z</time>
      </trkpt>
      <trkpt lat="40.4522630" lon="-1.8197640">
        <ele>1595.8</ele>
        <time>2019-07-05T14:14:54Z</time>
      </trkpt>
      <trkpt lat="40.4523460" lon="-1.8198420">
        <ele>1595.4</ele>
        <time>2019-07-05T14:14:56Z</time>
      </trkpt>
      <trkpt lat="40.4523870" lon="-1.8198810">
        <ele>1594.8</ele>
        <time>2019-07-05T14:14:57Z</time>
      </trkpt>
      <trkpt lat="40.4524260" lon="-1.8199220">
        <ele>1593.6</ele>
        <time>2019-07-05T14:14:58Z</time>
      </trkpt>
      <trkpt lat="40.4524890" lon="-1.8199900">
        <ele>1592.4</ele>
        <time>2019-07-05T14:15:00Z</time>
      </trkpt>
      <trkpt lat="40.4525130" lon="-1.8200160">
        <ele>1592.0</ele>
        <time>2019-07-05T14:15:01Z</time>
      </trkpt>
      <trkpt lat="40.4525550" lon="-1.8200610">
        <ele>1591.2</ele>
        <time>2019-07-05T14:15:03Z</time>
      </trkpt>
      <trkpt lat="40.4526010" lon="-1.8200870">
        <ele>1590.2</ele>
        <time>2019-07-05T14:15:05Z</time>
      </trkpt>
      <trkpt lat="40.4526290" lon="-1.8200850">
        <ele>1590.0</ele>
        <time>2019-07-05T14:15:06Z</time>
      </trkpt>
      <trkpt lat="40.4527210" lon="-1.8200150">
        <ele>1589.4</ele>
        <time>2019-07-05T14:15:10Z</time>
      </trkpt>
      <trkpt lat="40.4527540" lon="-1.8199580">
        <ele>1589.0</ele>
        <time>2019-07-05T14:15:12Z</time>
      </trkpt>
      <trkpt lat="40.4528050" lon="-1.8199240">
        <ele>1587.8</ele>
        <time>2019-07-05T14:15:14Z</time>
      </trkpt>
      <trkpt lat="40.4528300" lon="-1.8199230">
        <ele>1587.4</ele>
        <time>2019-07-05T14:15:15Z</time>
      </trkpt>
      <trkpt lat="40.4528740" lon="-1.8199480">
        <ele>1586.6</ele>
        <time>2019-07-05T14:15:17Z</time>
      </trkpt>
      <trkpt lat="40.4528880" lon="-1.8199660">
        <ele>1586.0</ele>
        <time>2019-07-05T14:15:18Z</time>
      </trkpt>
      <trkpt lat="40.4528980" lon="-1.8199900">
        <ele>1585.6</ele>
        <time>2019-07-05T14:15:19Z</time>
      </trkpt>
      <trkpt lat="40.4529090" lon="-1.8200150">
        <ele>1585.2</ele>
        <time>2019-07-05T14:15:20Z</time>
      </trkpt>
      <trkpt lat="40.4529400" lon="-1.8201070">
        <ele>1584.2</ele>
        <time>2019-07-05T14:15:23Z</time>
      </trkpt>
      <trkpt lat="40.4529600" lon="-1.8201970">
        <ele>1583.8</ele>
        <time>2019-07-05T14:15:25Z</time>
      </trkpt>
      <trkpt lat="40.4530070" lon="-1.8203530">
        <ele>1583.2</ele>
        <time>2019-07-05T14:15:28Z</time>
      </trkpt>
      <trkpt lat="40.4530390" lon="-1.8204660">
        <ele>1582.8</ele>
        <time>2019-07-05T14:15:30Z</time>
      </trkpt>
      <trkpt lat="40.4530560" lon="-1.8205220">
        <ele>1582.8</ele>
        <time>2019-07-05T14:15:31Z</time>
      </trkpt>
      <trkpt lat="40.4531710" lon="-1.8208430">
        <ele>1582.4</ele>
        <time>2019-07-05T14:15:37Z</time>
      </trkpt>
      <trkpt lat="40.4531900" lon="-1.8208930">
        <ele>1581.8</ele>
        <time>2019-07-05T14:15:38Z</time>
      </trkpt>
      <trkpt lat="40.4532080" lon="-1.8209410">
        <ele>1581.6</ele>
        <time>2019-07-05T14:15:39Z</time>
      </trkpt>
      <trkpt lat="40.4532800" lon="-1.8211430">
        <ele>1581.8</ele>
        <time>2019-07-05T14:15:43Z</time>
      </trkpt>
      <trkpt lat="40.4533100" lon="-1.8212640">
        <ele>1581.8</ele>
        <time>2019-07-05T14:15:45Z</time>
      </trkpt>
      <trkpt lat="40.4533430" lon="-1.8213840">
        <ele>1580.4</ele>
        <time>2019-07-05T14:15:47Z</time>
      </trkpt>
      <trkpt lat="40.4533880" lon="-1.8214960">
        <ele>1579.8</ele>
        <time>2019-07-05T14:15:49Z</time>
      </trkpt>
      <trkpt lat="40.4534320" lon="-1.8215820">
        <ele>1578.8</ele>
        <time>2019-07-05T14:15:51Z</time>
      </trkpt>
      <trkpt lat="40.4534490" lon="-1.8216150">
        <ele>1577.8</ele>
        <time>2019-07-05T14:15:52Z</time>
      </trkpt>
      <trkpt lat="40.4534690" lon="-1.8217150">
        <ele>1576.6</ele>
        <time>2019-07-05T14:15:55Z</time>
      </trkpt>
      <trkpt lat="40.4534380" lon="-1.8218990">
        <ele>1575.4</ele>
        <time>2019-07-05T14:15:59Z</time>
      </trkpt>
      <trkpt lat="40.4534300" lon="-1.8219880">
        <ele>1574.2</ele>
        <time>2019-07-05T14:16:01Z</time>
      </trkpt>
      <trkpt lat="40.4534310" lon="-1.8221310">
        <ele>1572.4</ele>
        <time>2019-07-05T14:16:04Z</time>
      </trkpt>
      <trkpt lat="40.4534300" lon="-1.8221760">
        <ele>1571.8</ele>
        <time>2019-07-05T14:16:05Z</time>
      </trkpt>
      <trkpt lat="40.4534260" lon="-1.8222180">
        <ele>1571.4</ele>
        <time>2019-07-05T14:16:06Z</time>
      </trkpt>
      <trkpt lat="40.4533930" lon="-1.8223220">
        <ele>1569.8</ele>
        <time>2019-07-05T14:16:09Z</time>
      </trkpt>
      <trkpt lat="40.4533820" lon="-1.8223540">
        <ele>1568.8</ele>
        <time>2019-07-05T14:16:10Z</time>
      </trkpt>
      <trkpt lat="40.4533730" lon="-1.8223910">
        <ele>1568.4</ele>
        <time>2019-07-05T14:16:11Z</time>
      </trkpt>
      <trkpt lat="40.4533380" lon="-1.8224870">
        <ele>1566.8</ele>
        <time>2019-07-05T14:16:14Z</time>
      </trkpt>
      <trkpt lat="40.4533180" lon="-1.8225120">
        <ele>1566.4</ele>
        <time>2019-07-05T14:16:15Z</time>
      </trkpt>
      <trkpt lat="40.4532690" lon="-1.8225650">
        <ele>1565.6</ele>
        <time>2019-07-05T14:16:17Z</time>
      </trkpt>
      <trkpt lat="40.4532180" lon="-1.8226060">
        <ele>1564.2</ele>
        <time>2019-07-05T14:16:19Z</time>
      </trkpt>
      <trkpt lat="40.4531940" lon="-1.8226270">
        <ele>1563.6</ele>
        <time>2019-07-05T14:16:20Z</time>
      </trkpt>
      <trkpt lat="40.4531730" lon="-1.8226510">
        <ele>1563.0</ele>
        <time>2019-07-05T14:16:21Z</time>
      </trkpt>
      <trkpt lat="40.4531120" lon="-1.8227240">
        <ele>1561.4</ele>
        <time>2019-07-05T14:16:24Z</time>
      </trkpt>
      <trkpt lat="40.4530710" lon="-1.8227640">
        <ele>1560.6</ele>
        <time>2019-07-05T14:16:26Z</time>
      </trkpt>
      <trkpt lat="40.4530530" lon="-1.8227810">
        <ele>1560.0</ele>
        <time>2019-07-05T14:16:27Z</time>
      </trkpt>
      <trkpt lat="40.4530160" lon="-1.8228110">
        <ele>1558.8</ele>
        <time>2019-07-05T14:16:29Z</time>
      </trkpt>
      <trkpt lat="40.4529540" lon="-1.8228580">
        <ele>1557.8</ele>
        <time>2019-07-05T14:16:32Z</time>
      </trkpt>
      <trkpt lat="40.4529280" lon="-1.8228720">
        <ele>1557.0</ele>
        <time>2019-07-05T14:16:33Z</time>
      </trkpt>
      <trkpt lat="40.4529000" lon="-1.8228850">
        <ele>1556.2</ele>
        <time>2019-07-05T14:16:34Z</time>
      </trkpt>
      <trkpt lat="40.4528040" lon="-1.8229160">
        <ele>1554.8</ele>
        <time>2019-07-05T14:16:37Z</time>
      </trkpt>
      <trkpt lat="40.4527680" lon="-1.8229310">
        <ele>1554.4</ele>
        <time>2019-07-05T14:16:38Z</time>
      </trkpt>
      <trkpt lat="40.4527000" lon="-1.8229570">
        <ele>1553.6</ele>
        <time>2019-07-05T14:16:40Z</time>
      </trkpt>
      <trkpt lat="40.4526330" lon="-1.8229700">
        <ele>1552.4</ele>
        <time>2019-07-05T14:16:42Z</time>
      </trkpt>
      <trkpt lat="40.4525570" lon="-1.8229610">
        <ele>1551.2</ele>
        <time>2019-07-05T14:16:44Z</time>
      </trkpt>
      <trkpt lat="40.4524890" lon="-1.8229510">
        <ele>1550.0</ele>
        <time>2019-07-05T14:16:46Z</time>
      </trkpt>
      <trkpt lat="40.4524030" lon="-1.8229300">
        <ele>1548.8</ele>
        <time>2019-07-05T14:16:49Z</time>
      </trkpt>
      <trkpt lat="40.4523780" lon="-1.8229260">
        <ele>1548.2</ele>
        <time>2019-07-05T14:16:50Z</time>
      </trkpt>
      <trkpt lat="40.4523540" lon="-1.8229230">
        <ele>1547.4</ele>
        <time>2019-07-05T14:16:51Z</time>
      </trkpt>
      <trkpt lat="40.4523230" lon="-1.8229160">
        <ele>1546.2</ele>
        <time>2019-07-05T14:16:53Z</time>
      </trkpt>
      <trkpt lat="40.4523150" lon="-1.8229200">
        <ele>1545.2</ele>
        <time>2019-07-05T14:16:55Z</time>
      </trkpt>
      <trkpt lat="40.4523000" lon="-1.8229330">
        <ele>1544.6</ele>
        <time>2019-07-05T14:16:58Z</time>
      </trkpt>
      <trkpt lat="40.4522530" lon="-1.8229490">
        <ele>1544.2</ele>
        <time>2019-07-05T14:17:01Z</time>
      </trkpt>
      <trkpt lat="40.4522370" lon="-1.8229520">
        <ele>1544.2</ele>
        <time>2019-07-05T14:17:02Z</time>
      </trkpt>
      <trkpt lat="40.4521780" lon="-1.8229490">
        <ele>1542.8</ele>
        <time>2019-07-05T14:17:05Z</time>
      </trkpt>
      <trkpt lat="40.4521700" lon="-1.8229490">
        <ele>1542.0</ele>
        <time>2019-07-05T14:17:07Z</time>
      </trkpt>
      <trkpt lat="40.4521280" lon="-1.8229410">
        <ele>1542.2</ele>
        <time>2019-07-05T14:17:14Z</time>
      </trkpt>
      <trkpt lat="40.4521090" lon="-1.8229360">
        <ele>1542.2</ele>
        <time>2019-07-05T14:17:15Z</time>
      </trkpt>
      <trkpt lat="40.4520640" lon="-1.8229260">
        <ele>1541.8</ele>
        <time>2019-07-05T14:17:19Z</time>
      </trkpt>
      <trkpt lat="40.4520340" lon="-1.8229160">
        <ele>1541.4</ele>
        <time>2019-07-05T14:17:33Z</time>
      </trkpt>
      <trkpt lat="40.4519760" lon="-1.8228850">
        <ele>1541.2</ele>
        <time>2019-07-05T14:17:39Z</time>
      </trkpt>
      <trkpt lat="40.4519220" lon="-1.8228790">
        <ele>1541.0</ele>
        <time>2019-07-05T14:17:44Z</time>
      </trkpt>
      <trkpt lat="40.4519170" lon="-1.8228900">
        <ele>1540.8</ele>
        <time>2019-07-05T14:17:45Z</time>
      </trkpt>
      <trkpt lat="40.4519050" lon="-1.8229230">
        <ele>1540.2</ele>
        <time>2019-07-05T14:17:47Z</time>
      </trkpt>
      <trkpt lat="40.4519010" lon="-1.8229300">
        <ele>1539.8</ele>
        <time>2019-07-05T14:17:48Z</time>
      </trkpt>
      <trkpt lat="40.4519000" lon="-1.8229300">
        <ele>1539.2</ele>
        <time>2019-07-05T14:17:49Z</time>
      </trkpt>
      <trkpt lat="40.4518810" lon="-1.8231020">
        <ele>1537.8</ele>
        <time>2019-07-05T14:25:32Z</time>
      </trkpt>
      <trkpt lat="40.4518850" lon="-1.8231180">
        <ele>1537.6</ele>
        <time>2019-07-05T14:25:33Z</time>
      </trkpt>
      <trkpt lat="40.4518870" lon="-1.8231310">
        <ele>1537.0</ele>
        <time>2019-07-05T14:25:34Z</time>
      </trkpt>
      <trkpt lat="40.4518880" lon="-1.8231410">
        <ele>1536.4</ele>
        <time>2019-07-05T14:25:35Z</time>
      </trkpt>
      <trkpt lat="40.4518890" lon="-1.8231450">
        <ele>1536.2</ele>
        <time>2019-07-05T14:25:37Z</time>
      </trkpt>
      <trkpt lat="40.4518830" lon="-1.8231810">
        <ele>1534.4</ele>
        <time>2019-07-05T14:26:59Z</time>
      </trkpt>
      <trkpt lat="40.4518730" lon="-1.8232180">
        <ele>1534.2</ele>
        <time>2019-07-05T14:27:00Z</time>
      </trkpt>
      <trkpt lat="40.4518670" lon="-1.8233970">
        <ele>1533.0</ele>
        <time>2019-07-05T14:27:04Z</time>
      </trkpt>
      <trkpt lat="40.4519180" lon="-1.8234740">
        <ele>1532.4</ele>
        <time>2019-07-05T14:27:08Z</time>
      </trkpt>
      <trkpt lat="40.4519250" lon="-1.8234920">
        <ele>1532.4</ele>
        <time>2019-07-05T14:27:09Z</time>
      </trkpt>
      <trkpt lat="40.4519300" lon="-1.8235050">
        <ele>1532.8</ele>
        <time>2019-07-05T14:27:12Z</time>
      </trkpt>
      <trkpt lat="40.4519710" lon="-1.8235900">
        <ele>1532.4</ele>
        <time>2019-07-05T14:27:22Z</time>
      </trkpt>
      <trkpt lat="40.4519770" lon="-1.8236070">
        <ele>1532.4</ele>
        <time>2019-07-05T14:27:23Z</time>
      </trkpt>
      <trkpt lat="40.4520100" lon="-1.8236620">
        <ele>1532.2</ele>
        <time>2019-07-05T14:27:28Z</time>
      </trkpt>
      <trkpt lat="40.4520270" lon="-1.8237000">
        <ele>1532.4</ele>
        <time>2019-07-05T14:27:31Z</time>
      </trkpt>
      <trkpt lat="40.4520400" lon="-1.8237480">
        <ele>1532.0</ele>
        <time>2019-07-05T14:27:35Z</time>
      </trkpt>
      <trkpt lat="40.4520440" lon="-1.8237620">
        <ele>1532.0</ele>
        <time>2019-07-05T14:27:36Z</time>
      </trkpt>
      <trkpt lat="40.4520600" lon="-1.8238310">
        <ele>1531.8</ele>
        <time>2019-07-05T14:27:42Z</time>
      </trkpt>
      <trkpt lat="40.4520840" lon="-1.8238840">
        <ele>1532.0</ele>
        <time>2019-07-05T14:27:47Z</time>
      </trkpt>
      <trkpt lat="40.4520990" lon="-1.8238970">
        <ele>1532.2</ele>
        <time>2019-07-05T14:27:49Z</time>
      </trkpt>
      <trkpt lat="40.4521550" lon="-1.8239060">
        <ele>1532.2</ele>
        <time>2019-07-05T14:27:54Z</time>
      </trkpt>
      <trkpt lat="40.4521810" lon="-1.8239010">
        <ele>1532.4</ele>
        <time>2019-07-05T14:27:56Z</time>
      </trkpt>
      <trkpt lat="40.4521930" lon="-1.8238980">
        <ele>1532.6</ele>
        <time>2019-07-05T14:27:57Z</time>
      </trkpt>
      <trkpt lat="40.4525910" lon="-1.8237970">
        <ele>1531.4</ele>
        <time>2019-07-05T14:28:42Z</time>
      </trkpt>
      <trkpt lat="40.4526080" lon="-1.8238040">
        <ele>1531.4</ele>
        <time>2019-07-05T14:28:43Z</time>
      </trkpt>
      <trkpt lat="40.4526650" lon="-1.8238440">
        <ele>1531.4</ele>
        <time>2019-07-05T14:28:46Z</time>
      </trkpt>
      <trkpt lat="40.4528080" lon="-1.8239440">
        <ele>1532.2</ele>
        <time>2019-07-05T14:28:52Z</time>
      </trkpt>
      <trkpt lat="40.4530010" lon="-1.8241370">
        <ele>1532.0</ele>
        <time>2019-07-05T14:28:59Z</time>
      </trkpt>
      <trkpt lat="40.4531470" lon="-1.8243180">
        <ele>1531.6</ele>
        <time>2019-07-05T14:29:04Z</time>
      </trkpt>
      <trkpt lat="40.4532080" lon="-1.8244080">
        <ele>1531.4</ele>
        <time>2019-07-05T14:29:06Z</time>
      </trkpt>
      <trkpt lat="40.4532780" lon="-1.8244860">
        <ele>1531.2</ele>
        <time>2019-07-05T14:29:08Z</time>
      </trkpt>
      <trkpt lat="40.4534040" lon="-1.8245970">
        <ele>1532.2</ele>
        <time>2019-07-05T14:29:12Z</time>
      </trkpt>
      <trkpt lat="40.4536510" lon="-1.8247140">
        <ele>1532.4</ele>
        <time>2019-07-05T14:29:19Z</time>
      </trkpt>
      <trkpt lat="40.4538000" lon="-1.8247140">
        <ele>1532.0</ele>
        <time>2019-07-05T14:29:23Z</time>
      </trkpt>
      <trkpt lat="40.4538760" lon="-1.8247120">
        <ele>1531.6</ele>
        <time>2019-07-05T14:29:25Z</time>
      </trkpt>
      <trkpt lat="40.4539890" lon="-1.8246940">
        <ele>1531.2</ele>
        <time>2019-07-05T14:29:28Z</time>
      </trkpt>
      <trkpt lat="40.4540490" lon="-1.8246900">
        <ele>1530.8</ele>
        <time>2019-07-05T14:29:30Z</time>
      </trkpt>
      <trkpt lat="40.4540750" lon="-1.8247010">
        <ele>1531.2</ele>
        <time>2019-07-05T14:29:33Z</time>
      </trkpt>
      <trkpt lat="40.4540830" lon="-1.8248120">
        <ele>1531.8</ele>
        <time>2019-07-05T14:29:56Z</time>
      </trkpt>
      <trkpt lat="40.4540770" lon="-1.8248590">
        <ele>1531.8</ele>
        <time>2019-07-05T14:29:58Z</time>
      </trkpt>
      <trkpt lat="40.4540690" lon="-1.8249830">
        <ele>1532.4</ele>
        <time>2019-07-05T14:30:02Z</time>
      </trkpt>
      <trkpt lat="40.4540780" lon="-1.8250070">
        <ele>1532.6</ele>
        <time>2019-07-05T14:30:03Z</time>
      </trkpt>
      <trkpt lat="40.4540980" lon="-1.8250680">
        <ele>1533.6</ele>
        <time>2019-07-05T14:30:06Z</time>
      </trkpt>
      <trkpt lat="40.4541280" lon="-1.8251350">
        <ele>1534.6</ele>
        <time>2019-07-05T14:30:10Z</time>
      </trkpt>
      <trkpt lat="40.4541430" lon="-1.8251480">
        <ele>1534.6</ele>
        <time>2019-07-05T14:30:11Z</time>
      </trkpt>
      <trkpt lat="40.4542330" lon="-1.8251960">
        <ele>1534.8</ele>
        <time>2019-07-05T14:30:15Z</time>
      </trkpt>
      <trkpt lat="40.4543070" lon="-1.8252590">
        <ele>1535.0</ele>
        <time>2019-07-05T14:30:18Z</time>
      </trkpt>
      <trkpt lat="40.4543710" lon="-1.8253410">
        <ele>1535.2</ele>
        <time>2019-07-05T14:30:21Z</time>
      </trkpt>
      <trkpt lat="40.4544720" lon="-1.8254780">
        <ele>1535.8</ele>
        <time>2019-07-05T14:30:26Z</time>
      </trkpt>
      <trkpt lat="40.4545580" lon="-1.8255930">
        <ele>1537.0</ele>
        <time>2019-07-05T14:30:30Z</time>
      </trkpt>
      <trkpt lat="40.4547020" lon="-1.8257600">
        <ele>1537.6</ele>
        <time>2019-07-05T14:30:36Z</time>
      </trkpt>
      <trkpt lat="40.4548180" lon="-1.8258550">
        <ele>1538.0</ele>
        <time>2019-07-05T14:30:40Z</time>
      </trkpt>
      <trkpt lat="40.4549510" lon="-1.8259330">
        <ele>1537.8</ele>
        <time>2019-07-05T14:30:44Z</time>
      </trkpt>
      <trkpt lat="40.4552670" lon="-1.8260940">
        <ele>1537.4</ele>
        <time>2019-07-05T14:30:52Z</time>
      </trkpt>
      <trkpt lat="40.4553130" lon="-1.8261180">
        <ele>1537.4</ele>
        <time>2019-07-05T14:30:53Z</time>
      </trkpt>
      <trkpt lat="40.4554080" lon="-1.8261620">
        <ele>1536.8</ele>
        <time>2019-07-05T14:30:55Z</time>
      </trkpt>
      <trkpt lat="40.4554560" lon="-1.8261760">
        <ele>1536.8</ele>
        <time>2019-07-05T14:30:56Z</time>
      </trkpt>
      <trkpt lat="40.4555500" lon="-1.8261940">
        <ele>1536.6</ele>
        <time>2019-07-05T14:30:58Z</time>
      </trkpt>
      <trkpt lat="40.4558710" lon="-1.8262120">
        <ele>1537.8</ele>
        <time>2019-07-05T14:31:06Z</time>
      </trkpt>
      <trkpt lat="40.4558980" lon="-1.8262170">
        <ele>1538.0</ele>
        <time>2019-07-05T14:31:07Z</time>
      </trkpt>
      <trkpt lat="40.4559840" lon="-1.8262290">
        <ele>1539.0</ele>
        <time>2019-07-05T14:31:10Z</time>
      </trkpt>
      <trkpt lat="40.4560440" lon="-1.8262230">
        <ele>1539.4</ele>
        <time>2019-07-05T14:31:12Z</time>
      </trkpt>
      <trkpt lat="40.4563120" lon="-1.8261980">
        <ele>1539.6</ele>
        <time>2019-07-05T14:31:20Z</time>
      </trkpt>
      <trkpt lat="40.4565400" lon="-1.8261650">
        <ele>1539.8</ele>
        <time>2019-07-05T14:31:27Z</time>
      </trkpt>
      <trkpt lat="40.4565480" lon="-1.8261560">
        <ele>1540.0</ele>
        <time>2019-07-05T14:31:29Z</time>
      </trkpt>
      <trkpt lat="40.4565490" lon="-1.8261520">
        <ele>1540.2</ele>
        <time>2019-07-05T14:31:30Z</time>
      </trkpt>
      <trkpt lat="40.4565490" lon="-1.8261510">
        <ele>1540.4</ele>
        <time>2019-07-05T14:31:31Z</time>
      </trkpt>
      <trkpt lat="40.4566180" lon="-1.8261320">
        <ele>1540.6</ele>
        <time>2019-07-05T14:31:41Z</time>
      </trkpt>
      <trkpt lat="40.4566540" lon="-1.8261200">
        <ele>1541.0</ele>
        <time>2019-07-05T14:31:43Z</time>
      </trkpt>
      <trkpt lat="40.4566770" lon="-1.8261150">
        <ele>1541.2</ele>
        <time>2019-07-05T14:31:44Z</time>
      </trkpt>
      <trkpt lat="40.4567740" lon="-1.8260930">
        <ele>1542.2</ele>
        <time>2019-07-05T14:31:48Z</time>
      </trkpt>
      <trkpt lat="40.4568630" lon="-1.8260760">
        <ele>1542.6</ele>
        <time>2019-07-05T14:31:51Z</time>
      </trkpt>
      <trkpt lat="40.4571050" lon="-1.8259850">
        <ele>1542.8</ele>
        <time>2019-07-05T14:31:59Z</time>
      </trkpt>
      <trkpt lat="40.4572780" lon="-1.8259010">
        <ele>1542.6</ele>
        <time>2019-07-05T14:32:05Z</time>
      </trkpt>
      <trkpt lat="40.4573980" lon="-1.8258350">
        <ele>1543.4</ele>
        <time>2019-07-05T14:32:09Z</time>
      </trkpt>
      <trkpt lat="40.4574580" lon="-1.8257850">
        <ele>1543.8</ele>
        <time>2019-07-05T14:32:11Z</time>
      </trkpt>
      <trkpt lat="40.4576100" lon="-1.8256260">
        <ele>1543.8</ele>
        <time>2019-07-05T14:32:16Z</time>
      </trkpt>
      <trkpt lat="40.4577930" lon="-1.8254640">
        <ele>1542.2</ele>
        <time>2019-07-05T14:32:21Z</time>
      </trkpt>
      <trkpt lat="40.4578320" lon="-1.8254270">
        <ele>1541.8</ele>
        <time>2019-07-05T14:32:22Z</time>
      </trkpt>
      <trkpt lat="40.4579120" lon="-1.8253520">
        <ele>1541.6</ele>
        <time>2019-07-05T14:32:24Z</time>
      </trkpt>
      <trkpt lat="40.4580850" lon="-1.8251860">
        <ele>1541.2</ele>
        <time>2019-07-05T14:32:28Z</time>
      </trkpt>
      <trkpt lat="40.4582200" lon="-1.8250490">
        <ele>1540.6</ele>
        <time>2019-07-05T14:32:31Z</time>
      </trkpt>
      <trkpt lat="40.4583050" lon="-1.8249710">
        <ele>1540.2</ele>
        <time>2019-07-05T14:32:33Z</time>
      </trkpt>
      <trkpt lat="40.4583490" lon="-1.8249540">
        <ele>1540.0</ele>
        <time>2019-07-05T14:32:34Z</time>
      </trkpt>
      <trkpt lat="40.4583940" lon="-1.8249440">
        <ele>1540.2</ele>
        <time>2019-07-05T14:32:35Z</time>
      </trkpt>
      <trkpt lat="40.4584370" lon="-1.8249280">
        <ele>1540.6</ele>
        <time>2019-07-05T14:32:36Z</time>
      </trkpt>
      <trkpt lat="40.4585400" lon="-1.8248880">
        <ele>1541.2</ele>
        <time>2019-07-05T14:32:39Z</time>
      </trkpt>
      <trkpt lat="40.4585700" lon="-1.8248800">
        <ele>1541.0</ele>
        <time>2019-07-05T14:32:40Z</time>
      </trkpt>
      <trkpt lat="40.4587260" lon="-1.8248220">
        <ele>1541.6</ele>
        <time>2019-07-05T14:32:46Z</time>
      </trkpt>
      <trkpt lat="40.4588280" lon="-1.8247770">
        <ele>1541.6</ele>
        <time>2019-07-05T14:32:50Z</time>
      </trkpt>
      <trkpt lat="40.4588870" lon="-1.8247460">
        <ele>1541.6</ele>
        <time>2019-07-05T14:32:52Z</time>
      </trkpt>
      <trkpt lat="40.4589160" lon="-1.8247330">
        <ele>1541.6</ele>
        <time>2019-07-05T14:32:53Z</time>
      </trkpt>
      <trkpt lat="40.4590990" lon="-1.8247300">
        <ele>1542.0</ele>
        <time>2019-07-05T14:32:59Z</time>
      </trkpt>
      <trkpt lat="40.4591640" lon="-1.8247640">
        <ele>1542.2</ele>
        <time>2019-07-05T14:33:01Z</time>
      </trkpt>
      <trkpt lat="40.4593120" lon="-1.8248150">
        <ele>1542.4</ele>
        <time>2019-07-05T14:33:05Z</time>
      </trkpt>
      <trkpt lat="40.4596240" lon="-1.8249280">
        <ele>1541.8</ele>
        <time>2019-07-05T14:33:13Z</time>
      </trkpt>
      <trkpt lat="40.4596690" lon="-1.8249480">
        <ele>1540.8</ele>
        <time>2019-07-05T14:33:14Z</time>
      </trkpt>
      <trkpt lat="40.4598600" lon="-1.8250410">
        <ele>1539.8</ele>
        <time>2019-07-05T14:33:18Z</time>
      </trkpt>
      <trkpt lat="40.4599550" lon="-1.8251040">
        <ele>1540.0</ele>
        <time>2019-07-05T14:33:20Z</time>
      </trkpt>
      <trkpt lat="40.4601210" lon="-1.8251380">
        <ele>1539.4</ele>
        <time>2019-07-05T14:33:23Z</time>
      </trkpt>
      <trkpt lat="40.4602900" lon="-1.8250850">
        <ele>1538.8</ele>
        <time>2019-07-05T14:33:26Z</time>
      </trkpt>
      <trkpt lat="40.4603420" lon="-1.8250610">
        <ele>1538.8</ele>
        <time>2019-07-05T14:33:27Z</time>
      </trkpt>
      <trkpt lat="40.4604430" lon="-1.8250240">
        <ele>1539.0</ele>
        <time>2019-07-05T14:33:29Z</time>
      </trkpt>
      <trkpt lat="40.4604910" lon="-1.8250040">
        <ele>1539.0</ele>
        <time>2019-07-05T14:33:30Z</time>
      </trkpt>
      <trkpt lat="40.4605820" lon="-1.8249700">
        <ele>1538.4</ele>
        <time>2019-07-05T14:33:32Z</time>
      </trkpt>
      <trkpt lat="40.4606250" lon="-1.8249640">
        <ele>1538.2</ele>
        <time>2019-07-05T14:33:33Z</time>
      </trkpt>
      <trkpt lat="40.4607870" lon="-1.8249550">
        <ele>1537.8</ele>
        <time>2019-07-05T14:33:37Z</time>
      </trkpt>
      <trkpt lat="40.4608680" lon="-1.8249380">
        <ele>1537.6</ele>
        <time>2019-07-05T14:33:39Z</time>
      </trkpt>
      <trkpt lat="40.4609070" lon="-1.8249210">
        <ele>1537.6</ele>
        <time>2019-07-05T14:33:40Z</time>
      </trkpt>
      <trkpt lat="40.4611250" lon="-1.8247950">
        <ele>1538.0</ele>
        <time>2019-07-05T14:33:46Z</time>
      </trkpt>
      <trkpt lat="40.4613690" lon="-1.8247560">
        <ele>1538.6</ele>
        <time>2019-07-05T14:33:52Z</time>
      </trkpt>
      <trkpt lat="40.4615510" lon="-1.8247530">
        <ele>1538.0</ele>
        <time>2019-07-05T14:33:56Z</time>
      </trkpt>
      <trkpt lat="40.4616990" lon="-1.8247130">
        <ele>1537.8</ele>
        <time>2019-07-05T14:33:59Z</time>
      </trkpt>
      <trkpt lat="40.4619070" lon="-1.8246280">
        <ele>1536.6</ele>
        <time>2019-07-05T14:34:03Z</time>
      </trkpt>
      <trkpt lat="40.4620090" lon="-1.8245860">
        <ele>1535.4</ele>
        <time>2019-07-05T14:34:05Z</time>
      </trkpt>
      <trkpt lat="40.4621100" lon="-1.8245420">
        <ele>1534.6</ele>
        <time>2019-07-05T14:34:07Z</time>
      </trkpt>
      <trkpt lat="40.4621610" lon="-1.8245210">
        <ele>1534.2</ele>
        <time>2019-07-05T14:34:08Z</time>
      </trkpt>
      <trkpt lat="40.4622140" lon="-1.8245040">
        <ele>1534.2</ele>
        <time>2019-07-05T14:34:09Z</time>
      </trkpt>
      <trkpt lat="40.4624290" lon="-1.8244380">
        <ele>1533.0</ele>
        <time>2019-07-05T14:34:13Z</time>
      </trkpt>
      <trkpt lat="40.4626290" lon="-1.8243740">
        <ele>1531.8</ele>
        <time>2019-07-05T14:34:17Z</time>
      </trkpt>
      <trkpt lat="40.4626710" lon="-1.8243720">
        <ele>1532.0</ele>
        <time>2019-07-05T14:34:18Z</time>
      </trkpt>
      <trkpt lat="40.4628280" lon="-1.8243830">
        <ele>1532.2</ele>
        <time>2019-07-05T14:34:22Z</time>
      </trkpt>
      <trkpt lat="40.4629460" lon="-1.8243990">
        <ele>1532.4</ele>
        <time>2019-07-05T14:34:25Z</time>
      </trkpt>
      <trkpt lat="40.4630210" lon="-1.8244240">
        <ele>1532.4</ele>
        <time>2019-07-05T14:34:27Z</time>
      </trkpt>
      <trkpt lat="40.4631000" lon="-1.8244400">
        <ele>1533.0</ele>
        <time>2019-07-05T14:34:29Z</time>
      </trkpt>
      <trkpt lat="40.4632820" lon="-1.8244650">
        <ele>1532.0</ele>
        <time>2019-07-05T14:34:33Z</time>
      </trkpt>
      <trkpt lat="40.4633260" lon="-1.8244700">
        <ele>1531.6</ele>
        <time>2019-07-05T14:34:34Z</time>
      </trkpt>
      <trkpt lat="40.4634160" lon="-1.8244820">
        <ele>1530.6</ele>
        <time>2019-07-05T14:34:36Z</time>
      </trkpt>
      <trkpt lat="40.4636170" lon="-1.8245140">
        <ele>1529.2</ele>
        <time>2019-07-05T14:34:40Z</time>
      </trkpt>
      <trkpt lat="40.4638020" lon="-1.8245370">
        <ele>1527.8</ele>
        <time>2019-07-05T14:34:43Z</time>
      </trkpt>
      <trkpt lat="40.4640570" lon="-1.8245680">
        <ele>1526.6</ele>
        <time>2019-07-05T14:34:47Z</time>
      </trkpt>
      <trkpt lat="40.4641840" lon="-1.8245840">
        <ele>1525.0</ele>
        <time>2019-07-05T14:34:49Z</time>
      </trkpt>
      <trkpt lat="40.4643060" lon="-1.8245980">
        <ele>1523.8</ele>
        <time>2019-07-05T14:34:51Z</time>
      </trkpt>
      <trkpt lat="40.4644160" lon="-1.8246120">
        <ele>1522.8</ele>
        <time>2019-07-05T14:34:53Z</time>
      </trkpt>
      <trkpt lat="40.4645140" lon="-1.8246210">
        <ele>1522.6</ele>
        <time>2019-07-05T14:34:55Z</time>
      </trkpt>
      <trkpt lat="40.4646790" lon="-1.8246340">
        <ele>1523.4</ele>
        <time>2019-07-05T14:35:00Z</time>
      </trkpt>
      <trkpt lat="40.4648010" lon="-1.8246570">
        <ele>1523.2</ele>
        <time>2019-07-05T14:35:05Z</time>
      </trkpt>
      <trkpt lat="40.4648510" lon="-1.8246600">
        <ele>1523.4</ele>
        <time>2019-07-05T14:35:07Z</time>
      </trkpt>
      <trkpt lat="40.4650080" lon="-1.8246810">
        <ele>1523.0</ele>
        <time>2019-07-05T14:35:13Z</time>
      </trkpt>
      <trkpt lat="40.4650350" lon="-1.8246880">
        <ele>1523.2</ele>
        <time>2019-07-05T14:35:14Z</time>
      </trkpt>
      <trkpt lat="40.4651200" lon="-1.8247040">
        <ele>1523.8</ele>
        <time>2019-07-05T14:35:17Z</time>
      </trkpt>
      <trkpt lat="40.4652300" lon="-1.8247250">
        <ele>1524.2</ele>
        <time>2019-07-05T14:35:21Z</time>
      </trkpt>
      <trkpt lat="40.4653290" lon="-1.8247060">
        <ele>1524.4</ele>
        <time>2019-07-05T14:35:25Z</time>
      </trkpt>
      <trkpt lat="40.4653760" lon="-1.8246880">
        <ele>1524.8</ele>
        <time>2019-07-05T14:35:27Z</time>
      </trkpt>
      <trkpt lat="40.4654170" lon="-1.8246470">
        <ele>1525.0</ele>
        <time>2019-07-05T14:35:29Z</time>
      </trkpt>
      <trkpt lat="40.4654630" lon="-1.8245690">
        <ele>1525.8</ele>
        <time>2019-07-05T14:35:32Z</time>
      </trkpt>
      <trkpt lat="40.4654750" lon="-1.8245390">
        <ele>1526.2</ele>
        <time>2019-07-05T14:35:33Z</time>
      </trkpt>
      <trkpt lat="40.4655250" lon="-1.8244100">
        <ele>1525.6</ele>
        <time>2019-07-05T14:35:37Z</time>
      </trkpt>
      <trkpt lat="40.4655640" lon="-1.8243150">
        <ele>1525.8</ele>
        <time>2019-07-05T14:35:40Z</time>
      </trkpt>
      <trkpt lat="40.4656560" lon="-1.8240990">
        <ele>1527.2</ele>
        <time>2019-07-05T14:35:47Z</time>
      </trkpt>
      <trkpt lat="40.4656680" lon="-1.8240700">
        <ele>1527.4</ele>
        <time>2019-07-05T14:35:48Z</time>
      </trkpt>
      <trkpt lat="40.4657770" lon="-1.8238360">
        <ele>1528.4</ele>
        <time>2019-07-05T14:35:56Z</time>
      </trkpt>
      <trkpt lat="40.4658110" lon="-1.8237830">
        <ele>1528.2</ele>
        <time>2019-07-05T14:35:58Z</time>
      </trkpt>
      <trkpt lat="40.4659460" lon="-1.8236490">
        <ele>1528.8</ele>
        <time>2019-07-05T14:36:04Z</time>
      </trkpt>
      <trkpt lat="40.4660250" lon="-1.8236130">
        <ele>1529.4</ele>
        <time>2019-07-05T14:36:07Z</time>
      </trkpt>
      <trkpt lat="40.4662240" lon="-1.8235470">
        <ele>1530.0</ele>
        <time>2019-07-05T14:36:14Z</time>
      </trkpt>
      <trkpt lat="40.4663860" lon="-1.8235090">
        <ele>1530.0</ele>
        <time>2019-07-05T14:36:20Z</time>
      </trkpt>
      <trkpt lat="40.4666010" lon="-1.8234110">
        <ele>1529.2</ele>
        <time>2019-07-05T14:36:27Z</time>
      </trkpt>
      <trkpt lat="40.4666430" lon="-1.8233940">
        <ele>1527.8</ele>
        <time>2019-07-05T14:36:28Z</time>
      </trkpt>
      <trkpt lat="40.4667380" lon="-1.8233590">
        <ele>1526.6</ele>
        <time>2019-07-05T14:36:30Z</time>
      </trkpt>
      <trkpt lat="40.4668280" lon="-1.8233240">
        <ele>1526.2</ele>
        <time>2019-07-05T14:36:32Z</time>
      </trkpt>
      <trkpt lat="40.4669930" lon="-1.8232420">
        <ele>1525.2</ele>
        <time>2019-07-05T14:36:36Z</time>
      </trkpt>
      <trkpt lat="40.4671080" lon="-1.8231580">
        <ele>1524.2</ele>
        <time>2019-07-05T14:36:39Z</time>
      </trkpt>
      <trkpt lat="40.4671830" lon="-1.8230990">
        <ele>1523.8</ele>
        <time>2019-07-05T14:36:41Z</time>
      </trkpt>
      <trkpt lat="40.4672880" lon="-1.8230060">
        <ele>1522.6</ele>
        <time>2019-07-05T14:36:44Z</time>
      </trkpt>
      <trkpt lat="40.4673240" lon="-1.8229720">
        <ele>1522.0</ele>
        <time>2019-07-05T14:36:45Z</time>
      </trkpt>
      <trkpt lat="40.4673590" lon="-1.8229380">
        <ele>1521.6</ele>
        <time>2019-07-05T14:36:46Z</time>
      </trkpt>
      <trkpt lat="40.4674550" lon="-1.8228450">
        <ele>1520.6</ele>
        <time>2019-07-05T14:36:49Z</time>
      </trkpt>
      <trkpt lat="40.4674820" lon="-1.8228180">
        <ele>1520.4</ele>
        <time>2019-07-05T14:36:50Z</time>
      </trkpt>
      <trkpt lat="40.4675060" lon="-1.8227880">
        <ele>1520.2</ele>
        <time>2019-07-05T14:36:51Z</time>
      </trkpt>
      <trkpt lat="40.4676280" lon="-1.8225970">
        <ele>1519.4</ele>
        <time>2019-07-05T14:36:56Z</time>
      </trkpt>
      <trkpt lat="40.4676520" lon="-1.8224990">
        <ele>1518.2</ele>
        <time>2019-07-05T14:36:58Z</time>
      </trkpt>
      <trkpt lat="40.4676650" lon="-1.8223780">
        <ele>1517.4</ele>
        <time>2019-07-05T14:37:00Z</time>
      </trkpt>
      <trkpt lat="40.4676680" lon="-1.8223080">
        <ele>1517.0</ele>
        <time>2019-07-05T14:37:01Z</time>
      </trkpt>
      <trkpt lat="40.4676700" lon="-1.8222340">
        <ele>1516.4</ele>
        <time>2019-07-05T14:37:02Z</time>
      </trkpt>
      <trkpt lat="40.4676710" lon="-1.8221570">
        <ele>1515.8</ele>
        <time>2019-07-05T14:37:03Z</time>
      </trkpt>
      <trkpt lat="40.4676630" lon="-1.8218150">
        <ele>1515.0</ele>
        <time>2019-07-05T14:37:07Z</time>
      </trkpt>
      <trkpt lat="40.4676650" lon="-1.8217230">
        <ele>1514.6</ele>
        <time>2019-07-05T14:37:08Z</time>
      </trkpt>
      <trkpt lat="40.4676730" lon="-1.8214290">
        <ele>1513.0</ele>
        <time>2019-07-05T14:37:11Z</time>
      </trkpt>
      <trkpt lat="40.4676780" lon="-1.8213280">
        <ele>1513.2</ele>
        <time>2019-07-05T14:37:12Z</time>
      </trkpt>
      <trkpt lat="40.4676860" lon="-1.8211300">
        <ele>1512.6</ele>
        <time>2019-07-05T14:37:14Z</time>
      </trkpt>
      <trkpt lat="40.4676880" lon="-1.8210350">
        <ele>1511.0</ele>
        <time>2019-07-05T14:37:15Z</time>
      </trkpt>
      <trkpt lat="40.4676890" lon="-1.8209430">
        <ele>1510.0</ele>
        <time>2019-07-05T14:37:16Z</time>
      </trkpt>
      <trkpt lat="40.4676930" lon="-1.8207790">
        <ele>1508.6</ele>
        <time>2019-07-05T14:37:18Z</time>
      </trkpt>
      <trkpt lat="40.4676970" lon="-1.8207060">
        <ele>1508.4</ele>
        <time>2019-07-05T14:37:19Z</time>
      </trkpt>
      <trkpt lat="40.4677030" lon="-1.8205830">
        <ele>1508.6</ele>
        <time>2019-07-05T14:37:21Z</time>
      </trkpt>
      <trkpt lat="40.4677330" lon="-1.8205020">
        <ele>1508.4</ele>
        <time>2019-07-05T14:37:23Z</time>
      </trkpt>
      <trkpt lat="40.4678190" lon="-1.8204630">
        <ele>1508.2</ele>
        <time>2019-07-05T14:37:27Z</time>
      </trkpt>
      <trkpt lat="40.4679010" lon="-1.8205010">
        <ele>1508.0</ele>
        <time>2019-07-05T14:37:30Z</time>
      </trkpt>
      <trkpt lat="40.4679680" lon="-1.8205230">
        <ele>1508.4</ele>
        <time>2019-07-05T14:37:32Z</time>
      </trkpt>
      <trkpt lat="40.4680660" lon="-1.8205540">
        <ele>1508.6</ele>
        <time>2019-07-05T14:37:35Z</time>
      </trkpt>
      <trkpt lat="40.4682390" lon="-1.8205680">
        <ele>1508.6</ele>
        <time>2019-07-05T14:37:40Z</time>
      </trkpt>
      <trkpt lat="40.4683880" lon="-1.8205030">
        <ele>1508.8</ele>
        <time>2019-07-05T14:37:45Z</time>
      </trkpt>
      <trkpt lat="40.4684800" lon="-1.8203530">
        <ele>1509.0</ele>
        <time>2019-07-05T14:37:50Z</time>
      </trkpt>
      <trkpt lat="40.4684920" lon="-1.8202920">
        <ele>1509.6</ele>
        <time>2019-07-05T14:37:52Z</time>
      </trkpt>
      <trkpt lat="40.4685230" lon="-1.8202060">
        <ele>1510.2</ele>
        <time>2019-07-05T14:37:55Z</time>
      </trkpt>
      <trkpt lat="40.4685510" lon="-1.8201230">
        <ele>1510.6</ele>
        <time>2019-07-05T14:37:58Z</time>
      </trkpt>
      <trkpt lat="40.4685530" lon="-1.8200920">
        <ele>1511.0</ele>
        <time>2019-07-05T14:37:59Z</time>
      </trkpt>
      <trkpt lat="40.4685540" lon="-1.8200580">
        <ele>1511.2</ele>
        <time>2019-07-05T14:38:00Z</time>
      </trkpt>
      <trkpt lat="40.4685700" lon="-1.8199530">
        <ele>1512.0</ele>
        <time>2019-07-05T14:38:03Z</time>
      </trkpt>
      <trkpt lat="40.4686010" lon="-1.8198550">
        <ele>1512.4</ele>
        <time>2019-07-05T14:38:06Z</time>
      </trkpt>
      <trkpt lat="40.4686160" lon="-1.8198220">
        <ele>1512.6</ele>
        <time>2019-07-05T14:38:07Z</time>
      </trkpt>
      <trkpt lat="40.4686910" lon="-1.8196440">
        <ele>1513.0</ele>
        <time>2019-07-05T14:38:12Z</time>
      </trkpt>
      <trkpt lat="40.4687100" lon="-1.8195770">
        <ele>1513.0</ele>
        <time>2019-07-05T14:38:14Z</time>
      </trkpt>
      <trkpt lat="40.4687460" lon="-1.8195320">
        <ele>1513.4</ele>
        <time>2019-07-05T14:38:16Z</time>
      </trkpt>
      <trkpt lat="40.4688230" lon="-1.8194650">
        <ele>1513.6</ele>
        <time>2019-07-05T14:38:19Z</time>
      </trkpt>
      <trkpt lat="40.4689630" lon="-1.8193200">
        <ele>1513.8</ele>
        <time>2019-07-05T14:38:25Z</time>
      </trkpt>
      <trkpt lat="40.4690260" lon="-1.8192100">
        <ele>1514.6</ele>
        <time>2019-07-05T14:38:29Z</time>
      </trkpt>
      <trkpt lat="40.4690420" lon="-1.8191430">
        <ele>1515.0</ele>
        <time>2019-07-05T14:38:31Z</time>
      </trkpt>
      <trkpt lat="40.4690640" lon="-1.8189450">
        <ele>1515.6</ele>
        <time>2019-07-05T14:38:37Z</time>
      </trkpt>
      <trkpt lat="40.4690690" lon="-1.8189120">
        <ele>1515.8</ele>
        <time>2019-07-05T14:38:38Z</time>
      </trkpt>
      <trkpt lat="40.4691040" lon="-1.8186930">
        <ele>1517.0</ele>
        <time>2019-07-05T14:38:45Z</time>
      </trkpt>
      <trkpt lat="40.4691090" lon="-1.8186670">
        <ele>1517.2</ele>
        <time>2019-07-05T14:38:46Z</time>
      </trkpt>
      <trkpt lat="40.4691230" lon="-1.8185940">
        <ele>1518.0</ele>
        <time>2019-07-05T14:38:49Z</time>
      </trkpt>
      <trkpt lat="40.4691540" lon="-1.8184830">
        <ele>1519.0</ele>
        <time>2019-07-05T14:38:54Z</time>
      </trkpt>
      <trkpt lat="40.4691640" lon="-1.8184610">
        <ele>1519.2</ele>
        <time>2019-07-05T14:38:55Z</time>
      </trkpt>
      <trkpt lat="40.4691850" lon="-1.8184190">
        <ele>1520.2</ele>
        <time>2019-07-05T14:38:57Z</time>
      </trkpt>
      <trkpt lat="40.4692450" lon="-1.8183590">
        <ele>1521.6</ele>
        <time>2019-07-05T14:39:01Z</time>
      </trkpt>
      <trkpt lat="40.4693690" lon="-1.8182850">
        <ele>1522.2</ele>
        <time>2019-07-05T14:39:07Z</time>
      </trkpt>
      <trkpt lat="40.4695590" lon="-1.8182340">
        <ele>1522.2</ele>
        <time>2019-07-05T14:39:14Z</time>
      </trkpt>
      <trkpt lat="40.4698220" lon="-1.8182630">
        <ele>1522.6</ele>
        <time>2019-07-05T14:39:22Z</time>
      </trkpt>
      <trkpt lat="40.4699700" lon="-1.8182740">
        <ele>1522.2</ele>
        <time>2019-07-05T14:39:27Z</time>
      </trkpt>
      <trkpt lat="40.4700300" lon="-1.8182810">
        <ele>1522.0</ele>
        <time>2019-07-05T14:39:29Z</time>
      </trkpt>
      <trkpt lat="40.4701500" lon="-1.8183090">
        <ele>1521.2</ele>
        <time>2019-07-05T14:39:33Z</time>
      </trkpt>
      <trkpt lat="40.4702010" lon="-1.8182960">
        <ele>1520.8</ele>
        <time>2019-07-05T14:39:35Z</time>
      </trkpt>
      <trkpt lat="40.4702260" lon="-1.8182780">
        <ele>1520.6</ele>
        <time>2019-07-05T14:39:36Z</time>
      </trkpt>
      <trkpt lat="40.4702670" lon="-1.8182220">
        <ele>1520.0</ele>
        <time>2019-07-05T14:39:38Z</time>
      </trkpt>
      <trkpt lat="40.4702880" lon="-1.8181920">
        <ele>1520.0</ele>
        <time>2019-07-05T14:39:39Z</time>
      </trkpt>
      <trkpt lat="40.4703150" lon="-1.8181690">
        <ele>1519.8</ele>
        <time>2019-07-05T14:39:40Z</time>
      </trkpt>
      <trkpt lat="40.4704100" lon="-1.8181410">
        <ele>1519.4</ele>
        <time>2019-07-05T14:39:43Z</time>
      </trkpt>
      <trkpt lat="40.4704430" lon="-1.8181400">
        <ele>1519.6</ele>
        <time>2019-07-05T14:39:44Z</time>
      </trkpt>
      <trkpt lat="40.4705050" lon="-1.8181360">
        <ele>1519.2</ele>
        <time>2019-07-05T14:39:46Z</time>
      </trkpt>
      <trkpt lat="40.4705350" lon="-1.8181280">
        <ele>1519.0</ele>
        <time>2019-07-05T14:39:48Z</time>
      </trkpt>
      <trkpt lat="40.4705660" lon="-1.8181370">
        <ele>1518.8</ele>
        <time>2019-07-05T14:39:50Z</time>
      </trkpt>
      <trkpt lat="40.4706150" lon="-1.8181750">
        <ele>1518.6</ele>
        <time>2019-07-05T14:39:52Z</time>
      </trkpt>
      <trkpt lat="40.4707180" lon="-1.8182270">
        <ele>1518.4</ele>
        <time>2019-07-05T14:39:55Z</time>
      </trkpt>
      <trkpt lat="40.4707520" lon="-1.8182560">
        <ele>1518.4</ele>
        <time>2019-07-05T14:39:56Z</time>
      </trkpt>
      <trkpt lat="40.4708260" lon="-1.8183870">
        <ele>1518.2</ele>
        <time>2019-07-05T14:39:59Z</time>
      </trkpt>
      <trkpt lat="40.4708510" lon="-1.8184310">
        <ele>1518.0</ele>
        <time>2019-07-05T14:40:00Z</time>
      </trkpt>
      <trkpt lat="40.4708780" lon="-1.8184750">
        <ele>1518.0</ele>
        <time>2019-07-05T14:40:01Z</time>
      </trkpt>
      <trkpt lat="40.4709520" lon="-1.8186200">
        <ele>1517.4</ele>
        <time>2019-07-05T14:40:04Z</time>
      </trkpt>
      <trkpt lat="40.4709870" lon="-1.8186540">
        <ele>1517.0</ele>
        <time>2019-07-05T14:40:05Z</time>
      </trkpt>
      <trkpt lat="40.4710290" lon="-1.8186790">
        <ele>1517.0</ele>
        <time>2019-07-05T14:40:06Z</time>
      </trkpt>
      <trkpt lat="40.4711750" lon="-1.8187170">
        <ele>1516.6</ele>
        <time>2019-07-05T14:40:09Z</time>
      </trkpt>
      <trkpt lat="40.4712280" lon="-1.8187310">
        <ele>1516.4</ele>
        <time>2019-07-05T14:40:10Z</time>
      </trkpt>
      <trkpt lat="40.4712810" lon="-1.8187500">
        <ele>1516.2</ele>
        <time>2019-07-05T14:40:11Z</time>
      </trkpt>
      <trkpt lat="40.4713360" lon="-1.8187700">
        <ele>1516.0</ele>
        <time>2019-07-05T14:40:12Z</time>
      </trkpt>
      <trkpt lat="40.4715060" lon="-1.8188480">
        <ele>1514.6</ele>
        <time>2019-07-05T14:40:15Z</time>
      </trkpt>
      <trkpt lat="40.4716140" lon="-1.8189090">
        <ele>1514.2</ele>
        <time>2019-07-05T14:40:17Z</time>
      </trkpt>
      <trkpt lat="40.4717740" lon="-1.8190100">
        <ele>1513.6</ele>
        <time>2019-07-05T14:40:20Z</time>
      </trkpt>
      <trkpt lat="40.4719920" lon="-1.8191650">
        <ele>1512.4</ele>
        <time>2019-07-05T14:40:24Z</time>
      </trkpt>
      <trkpt lat="40.4721410" lon="-1.8192810">
        <ele>1510.6</ele>
        <time>2019-07-05T14:40:27Z</time>
      </trkpt>
      <trkpt lat="40.4722360" lon="-1.8193620">
        <ele>1509.6</ele>
        <time>2019-07-05T14:40:29Z</time>
      </trkpt>
      <trkpt lat="40.4722840" lon="-1.8194000">
        <ele>1509.0</ele>
        <time>2019-07-05T14:40:30Z</time>
      </trkpt>
      <trkpt lat="40.4723790" lon="-1.8194630">
        <ele>1507.8</ele>
        <time>2019-07-05T14:40:32Z</time>
      </trkpt>
      <trkpt lat="40.4724740" lon="-1.8195160">
        <ele>1506.6</ele>
        <time>2019-07-05T14:40:34Z</time>
      </trkpt>
      <trkpt lat="40.4725180" lon="-1.8195410">
        <ele>1506.4</ele>
        <time>2019-07-05T14:40:35Z</time>
      </trkpt>
      <trkpt lat="40.4726840" lon="-1.8196110">
        <ele>1506.0</ele>
        <time>2019-07-05T14:40:40Z</time>
      </trkpt>
      <trkpt lat="40.4727050" lon="-1.8196140">
        <ele>1505.4</ele>
        <time>2019-07-05T14:40:41Z</time>
      </trkpt>
      <trkpt lat="40.4728340" lon="-1.8196210">
        <ele>1504.8</ele>
        <time>2019-07-05T14:40:46Z</time>
      </trkpt>
      <trkpt lat="40.4729070" lon="-1.8196120">
        <ele>1504.4</ele>
        <time>2019-07-05T14:40:48Z</time>
      </trkpt>
      <trkpt lat="40.4730430" lon="-1.8195990">
        <ele>1502.6</ele>
        <time>2019-07-05T14:40:51Z</time>
      </trkpt>
      <trkpt lat="40.4731490" lon="-1.8195840">
        <ele>1501.4</ele>
        <time>2019-07-05T14:40:53Z</time>
      </trkpt>
      <trkpt lat="40.4733050" lon="-1.8195280">
        <ele>1500.4</ele>
        <time>2019-07-05T14:40:56Z</time>
      </trkpt>
      <trkpt lat="40.4735820" lon="-1.8193800">
        <ele>1499.2</ele>
        <time>2019-07-05T14:41:01Z</time>
      </trkpt>
      <trkpt lat="40.4736380" lon="-1.8193490">
        <ele>1498.4</ele>
        <time>2019-07-05T14:41:02Z</time>
      </trkpt>
      <trkpt lat="40.4736910" lon="-1.8193170">
        <ele>1497.8</ele>
        <time>2019-07-05T14:41:03Z</time>
      </trkpt>
      <trkpt lat="40.4737980" lon="-1.8192580">
        <ele>1496.4</ele>
        <time>2019-07-05T14:41:05Z</time>
      </trkpt>
      <trkpt lat="40.4739680" lon="-1.8191650">
        <ele>1495.4</ele>
        <time>2019-07-05T14:41:08Z</time>
      </trkpt>
      <trkpt lat="40.4740280" lon="-1.8191330">
        <ele>1495.4</ele>
        <time>2019-07-05T14:41:09Z</time>
      </trkpt>
      <trkpt lat="40.4742110" lon="-1.8190340">
        <ele>1495.4</ele>
        <time>2019-07-05T14:41:12Z</time>
      </trkpt>
      <trkpt lat="40.4743890" lon="-1.8189750">
        <ele>1495.6</ele>
        <time>2019-07-05T14:41:15Z</time>
      </trkpt>
      <trkpt lat="40.4744390" lon="-1.8189720">
        <ele>1495.4</ele>
        <time>2019-07-05T14:41:16Z</time>
      </trkpt>
      <trkpt lat="40.4745420" lon="-1.8190040">
        <ele>1494.6</ele>
        <time>2019-07-05T14:41:18Z</time>
      </trkpt>
      <trkpt lat="40.4745970" lon="-1.8190320">
        <ele>1493.8</ele>
        <time>2019-07-05T14:41:19Z</time>
      </trkpt>
      <trkpt lat="40.4747700" lon="-1.8191300">
        <ele>1492.6</ele>
        <time>2019-07-05T14:41:22Z</time>
      </trkpt>
      <trkpt lat="40.4748860" lon="-1.8192090">
        <ele>1491.4</ele>
        <time>2019-07-05T14:41:24Z</time>
      </trkpt>
      <trkpt lat="40.4750480" lon="-1.8193250">
        <ele>1490.0</ele>
        <time>2019-07-05T14:41:27Z</time>
      </trkpt>
      <trkpt lat="40.4750970" lon="-1.8193690">
        <ele>1490.0</ele>
        <time>2019-07-05T14:41:28Z</time>
      </trkpt>
      <trkpt lat="40.4751810" lon="-1.8194690">
        <ele>1489.6</ele>
        <time>2019-07-05T14:41:30Z</time>
      </trkpt>
      <trkpt lat="40.4752490" lon="-1.8195650">
        <ele>1488.8</ele>
        <time>2019-07-05T14:41:32Z</time>
      </trkpt>
      <trkpt lat="40.4752890" lon="-1.8196890">
        <ele>1487.8</ele>
        <time>2019-07-05T14:41:34Z</time>
      </trkpt>
      <trkpt lat="40.4753020" lon="-1.8197510">
        <ele>1487.2</ele>
        <time>2019-07-05T14:41:35Z</time>
      </trkpt>
      <trkpt lat="40.4753160" lon="-1.8198070">
        <ele>1486.8</ele>
        <time>2019-07-05T14:41:36Z</time>
      </trkpt>
      <trkpt lat="40.4753350" lon="-1.8198550">
        <ele>1486.6</ele>
        <time>2019-07-05T14:41:37Z</time>
      </trkpt>
      <trkpt lat="40.4753560" lon="-1.8199020">
        <ele>1486.6</ele>
        <time>2019-07-05T14:41:38Z</time>
      </trkpt>
      <trkpt lat="40.4753880" lon="-1.8200030">
        <ele>1486.4</ele>
        <time>2019-07-05T14:41:40Z</time>
      </trkpt>
      <trkpt lat="40.4754470" lon="-1.8202030">
        <ele>1486.0</ele>
        <time>2019-07-05T14:41:44Z</time>
      </trkpt>
      <trkpt lat="40.4754650" lon="-1.8202440">
        <ele>1485.4</ele>
        <time>2019-07-05T14:41:45Z</time>
      </trkpt>
      <trkpt lat="40.4755130" lon="-1.8203160">
        <ele>1484.2</ele>
        <time>2019-07-05T14:41:47Z</time>
      </trkpt>
      <trkpt lat="40.4755700" lon="-1.8203760">
        <ele>1483.6</ele>
        <time>2019-07-05T14:41:49Z</time>
      </trkpt>
      <trkpt lat="40.4755990" lon="-1.8203990">
        <ele>1483.2</ele>
        <time>2019-07-05T14:41:50Z</time>
      </trkpt>
      <trkpt lat="40.4756650" lon="-1.8204420">
        <ele>1481.8</ele>
        <time>2019-07-05T14:41:52Z</time>
      </trkpt>
      <trkpt lat="40.4757400" lon="-1.8204830">
        <ele>1480.6</ele>
        <time>2019-07-05T14:41:54Z</time>
      </trkpt>
      <trkpt lat="40.4757780" lon="-1.8205030">
        <ele>1479.8</ele>
        <time>2019-07-05T14:41:55Z</time>
      </trkpt>
      <trkpt lat="40.4758160" lon="-1.8205200">
        <ele>1479.2</ele>
        <time>2019-07-05T14:41:56Z</time>
      </trkpt>
      <trkpt lat="40.4760050" lon="-1.8205640">
        <ele>1478.2</ele>
        <time>2019-07-05T14:42:01Z</time>
      </trkpt>
      <trkpt lat="40.4760440" lon="-1.8205640">
        <ele>1477.6</ele>
        <time>2019-07-05T14:42:02Z</time>
      </trkpt>
      <trkpt lat="40.4761260" lon="-1.8205660">
        <ele>1476.4</ele>
        <time>2019-07-05T14:42:04Z</time>
      </trkpt>
      <trkpt lat="40.4762210" lon="-1.8205640">
        <ele>1475.0</ele>
        <time>2019-07-05T14:42:06Z</time>
      </trkpt>
      <trkpt lat="40.4763170" lon="-1.8205670">
        <ele>1473.4</ele>
        <time>2019-07-05T14:42:08Z</time>
      </trkpt>
      <trkpt lat="40.4764600" lon="-1.8205790">
        <ele>1472.2</ele>
        <time>2019-07-05T14:42:11Z</time>
      </trkpt>
      <trkpt lat="40.4766080" lon="-1.8206160">
        <ele>1470.8</ele>
        <time>2019-07-05T14:42:14Z</time>
      </trkpt>
      <trkpt lat="40.4766810" lon="-1.8206400">
        <ele>1469.8</ele>
        <time>2019-07-05T14:42:16Z</time>
      </trkpt>
      <trkpt lat="40.4767450" lon="-1.8206660">
        <ele>1468.8</ele>
        <time>2019-07-05T14:42:18Z</time>
      </trkpt>
      <trkpt lat="40.4767820" lon="-1.8206710">
        <ele>1468.6</ele>
        <time>2019-07-05T14:42:19Z</time>
      </trkpt>
      <trkpt lat="40.4768690" lon="-1.8206720">
        <ele>1467.4</ele>
        <time>2019-07-05T14:42:21Z</time>
      </trkpt>
      <trkpt lat="40.4769160" lon="-1.8206690">
        <ele>1467.0</ele>
        <time>2019-07-05T14:42:22Z</time>
      </trkpt>
      <trkpt lat="40.4770140" lon="-1.8206580">
        <ele>1466.0</ele>
        <time>2019-07-05T14:42:24Z</time>
      </trkpt>
      <trkpt lat="40.4771490" lon="-1.8206490">
        <ele>1464.6</ele>
        <time>2019-07-05T14:42:27Z</time>
      </trkpt>
      <trkpt lat="40.4772410" lon="-1.8206460">
        <ele>1463.8</ele>
        <time>2019-07-05T14:42:29Z</time>
      </trkpt>
      <trkpt lat="40.4772940" lon="-1.8206430">
        <ele>1463.4</ele>
        <time>2019-07-05T14:42:30Z</time>
      </trkpt>
      <trkpt lat="40.4774700" lon="-1.8206420">
        <ele>1461.8</ele>
        <time>2019-07-05T14:42:33Z</time>
      </trkpt>
      <trkpt lat="40.4775250" lon="-1.8206410">
        <ele>1461.4</ele>
        <time>2019-07-05T14:42:34Z</time>
      </trkpt>
      <trkpt lat="40.4775760" lon="-1.8206380">
        <ele>1460.8</ele>
        <time>2019-07-05T14:42:35Z</time>
      </trkpt>
      <trkpt lat="40.4776700" lon="-1.8206330">
        <ele>1459.0</ele>
        <time>2019-07-05T14:42:37Z</time>
      </trkpt>
      <trkpt lat="40.4777720" lon="-1.8206270">
        <ele>1458.2</ele>
        <time>2019-07-05T14:42:39Z</time>
      </trkpt>
      <trkpt lat="40.4778700" lon="-1.8206100">
        <ele>1457.6</ele>
        <time>2019-07-05T14:42:41Z</time>
      </trkpt>
      <trkpt lat="40.4779580" lon="-1.8205780">
        <ele>1456.4</ele>
        <time>2019-07-05T14:42:43Z</time>
      </trkpt>
      <trkpt lat="40.4780010" lon="-1.8205620">
        <ele>1456.2</ele>
        <time>2019-07-05T14:42:44Z</time>
      </trkpt>
      <trkpt lat="40.4780470" lon="-1.8205500">
        <ele>1455.8</ele>
        <time>2019-07-05T14:42:45Z</time>
      </trkpt>
      <trkpt lat="40.4780970" lon="-1.8205480">
        <ele>1455.4</ele>
        <time>2019-07-05T14:42:46Z</time>
      </trkpt>
      <trkpt lat="40.4781940" lon="-1.8205640">
        <ele>1454.8</ele>
        <time>2019-07-05T14:42:48Z</time>
      </trkpt>
      <trkpt lat="40.4782730" lon="-1.8205770">
        <ele>1454.4</ele>
        <time>2019-07-05T14:42:50Z</time>
      </trkpt>
      <trkpt lat="40.4783930" lon="-1.8205810">
        <ele>1453.0</ele>
        <time>2019-07-05T14:42:53Z</time>
      </trkpt>
      <trkpt lat="40.4784740" lon="-1.8205890">
        <ele>1451.6</ele>
        <time>2019-07-05T14:42:55Z</time>
      </trkpt>
      <trkpt lat="40.4785230" lon="-1.8206190">
        <ele>1450.8</ele>
        <time>2019-07-05T14:42:57Z</time>
      </trkpt>
      <trkpt lat="40.4785420" lon="-1.8206430">
        <ele>1450.2</ele>
        <time>2019-07-05T14:42:58Z</time>
      </trkpt>
      <trkpt lat="40.4785900" lon="-1.8207370">
        <ele>1449.2</ele>
        <time>2019-07-05T14:43:01Z</time>
      </trkpt>
      <trkpt lat="40.4786010" lon="-1.8207810">
        <ele>1448.8</ele>
        <time>2019-07-05T14:43:02Z</time>
      </trkpt>
      <trkpt lat="40.4786200" lon="-1.8208860">
        <ele>1448.0</ele>
        <time>2019-07-05T14:43:04Z</time>
      </trkpt>
      <trkpt lat="40.4786150" lon="-1.8210310">
        <ele>1446.8</ele>
        <time>2019-07-05T14:43:07Z</time>
      </trkpt>
      <trkpt lat="40.4785890" lon="-1.8212170">
        <ele>1447.2</ele>
        <time>2019-07-05T14:43:11Z</time>
      </trkpt>
      <trkpt lat="40.4785700" lon="-1.8212960">
        <ele>1447.8</ele>
        <time>2019-07-05T14:43:13Z</time>
      </trkpt>
      <trkpt lat="40.4785140" lon="-1.8215420">
        <ele>1447.0</ele>
        <time>2019-07-05T14:43:19Z</time>
      </trkpt>
      <trkpt lat="40.4785160" lon="-1.8215860">
        <ele>1446.8</ele>
        <time>2019-07-05T14:43:20Z</time>
      </trkpt>
      <trkpt lat="40.4785690" lon="-1.8217080">
        <ele>1447.2</ele>
        <time>2019-07-05T14:43:23Z</time>
      </trkpt>
      <trkpt lat="40.4787380" lon="-1.8218610">
        <ele>1446.0</ele>
        <time>2019-07-05T14:43:29Z</time>
      </trkpt>
      <trkpt lat="40.4787780" lon="-1.8218840">
        <ele>1445.6</ele>
        <time>2019-07-05T14:43:30Z</time>
      </trkpt>
      <trkpt lat="40.4788950" lon="-1.8218900">
        <ele>1444.8</ele>
        <time>2019-07-05T14:43:33Z</time>
      </trkpt>
      <trkpt lat="40.4789270" lon="-1.8218790">
        <ele>1444.6</ele>
        <time>2019-07-05T14:43:34Z</time>
      </trkpt>
      <trkpt lat="40.4790090" lon="-1.8218410">
        <ele>1444.6</ele>
        <time>2019-07-05T14:43:37Z</time>
      </trkpt>
      <trkpt lat="40.4790400" lon="-1.8218470">
        <ele>1444.6</ele>
        <time>2019-07-05T14:43:38Z</time>
      </trkpt>
      <trkpt lat="40.4791410" lon="-1.8218790">
        <ele>1444.8</ele>
        <time>2019-07-05T14:43:41Z</time>
      </trkpt>
      <trkpt lat="40.4792490" lon="-1.8218810">
        <ele>1444.4</ele>
        <time>2019-07-05T14:43:44Z</time>
      </trkpt>
      <trkpt lat="40.4793640" lon="-1.8218590">
        <ele>1444.2</ele>
        <time>2019-07-05T14:43:47Z</time>
      </trkpt>
      <trkpt lat="40.4796170" lon="-1.8217210">
        <ele>1444.0</ele>
        <time>2019-07-05T14:43:54Z</time>
      </trkpt>
      <trkpt lat="40.4798930" lon="-1.8215080">
        <ele>1444.2</ele>
        <time>2019-07-05T14:44:02Z</time>
      </trkpt>
      <trkpt lat="40.4802260" lon="-1.8211980">
        <ele>1444.6</ele>
        <time>2019-07-05T14:44:12Z</time>
      </trkpt>
      <trkpt lat="40.4805230" lon="-1.8208760">
        <ele>1445.2</ele>
        <time>2019-07-05T14:44:21Z</time>
      </trkpt>
      <trkpt lat="40.4806850" lon="-1.8206420">
        <ele>1445.8</ele>
        <time>2019-07-05T14:44:27Z</time>
      </trkpt>
      <trkpt lat="40.4807070" lon="-1.8206000">
        <ele>1446.2</ele>
        <time>2019-07-05T14:44:28Z</time>
      </trkpt>
      <trkpt lat="40.4808660" lon="-1.8203500">
        <ele>1446.4</ele>
        <time>2019-07-05T14:44:34Z</time>
      </trkpt>
      <trkpt lat="40.4808930" lon="-1.8203140">
        <ele>1446.4</ele>
        <time>2019-07-05T14:44:35Z</time>
      </trkpt>
      <trkpt lat="40.4810230" lon="-1.8201520">
        <ele>1446.8</ele>
        <time>2019-07-05T14:44:41Z</time>
      </trkpt>
      <trkpt lat="40.4810910" lon="-1.8200840">
        <ele>1447.0</ele>
        <time>2019-07-05T14:44:44Z</time>
      </trkpt>
      <trkpt lat="40.4811950" lon="-1.8200530">
        <ele>1448.0</ele>
        <time>2019-07-05T14:44:48Z</time>
      </trkpt>
      <trkpt lat="40.4812230" lon="-1.8200580">
        <ele>1448.2</ele>
        <time>2019-07-05T14:44:49Z</time>
      </trkpt>
      <trkpt lat="40.4813390" lon="-1.8200810">
        <ele>1449.0</ele>
        <time>2019-07-05T14:44:53Z</time>
      </trkpt>
      <trkpt lat="40.4813860" lon="-1.8200660">
        <ele>1449.2</ele>
        <time>2019-07-05T14:44:55Z</time>
      </trkpt>
      <trkpt lat="40.4814710" lon="-1.8200240">
        <ele>1449.8</ele>
        <time>2019-07-05T14:44:59Z</time>
      </trkpt>
      <trkpt lat="40.4815100" lon="-1.8199970">
        <ele>1450.4</ele>
        <time>2019-07-05T14:45:01Z</time>
      </trkpt>
      <trkpt lat="40.4815690" lon="-1.8199580">
        <ele>1451.6</ele>
        <time>2019-07-05T14:45:04Z</time>
      </trkpt>
      <trkpt lat="40.4816320" lon="-1.8199400">
        <ele>1453.0</ele>
        <time>2019-07-05T14:45:07Z</time>
      </trkpt>
      <trkpt lat="40.4816970" lon="-1.8199520">
        <ele>1454.0</ele>
        <time>2019-07-05T14:45:10Z</time>
      </trkpt>
      <trkpt lat="40.4817540" lon="-1.8199760">
        <ele>1455.4</ele>
        <time>2019-07-05T14:45:13Z</time>
      </trkpt>
      <trkpt lat="40.4817710" lon="-1.8199910">
        <ele>1455.6</ele>
        <time>2019-07-05T14:45:14Z</time>
      </trkpt>
      <trkpt lat="40.4817890" lon="-1.8200080">
        <ele>1455.8</ele>
        <time>2019-07-05T14:45:15Z</time>
      </trkpt>
      <trkpt lat="40.4818570" lon="-1.8200710">
        <ele>1456.4</ele>
        <time>2019-07-05T14:45:19Z</time>
      </trkpt>
      <trkpt lat="40.4819100" lon="-1.8201200">
        <ele>1457.4</ele>
        <time>2019-07-05T14:45:22Z</time>
      </trkpt>
      <trkpt lat="40.4819930" lon="-1.8201890">
        <ele>1458.6</ele>
        <time>2019-07-05T14:45:27Z</time>
      </trkpt>
      <trkpt lat="40.4820090" lon="-1.8201990">
        <ele>1459.0</ele>
        <time>2019-07-05T14:45:28Z</time>
      </trkpt>
      <trkpt lat="40.4821040" lon="-1.8202040">
        <ele>1459.8</ele>
        <time>2019-07-05T14:45:33Z</time>
      </trkpt>
      <trkpt lat="40.4821230" lon="-1.8201950">
        <ele>1460.0</ele>
        <time>2019-07-05T14:45:34Z</time>
      </trkpt>
      <trkpt lat="40.4822280" lon="-1.8200980">
        <ele>1461.0</ele>
        <time>2019-07-05T14:45:40Z</time>
      </trkpt>
      <trkpt lat="40.4822430" lon="-1.8200770">
        <ele>1461.0</ele>
        <time>2019-07-05T14:45:41Z</time>
      </trkpt>
      <trkpt lat="40.4822770" lon="-1.8199840">
        <ele>1462.0</ele>
        <time>2019-07-05T14:45:45Z</time>
      </trkpt>
      <trkpt lat="40.4822820" lon="-1.8199300">
        <ele>1462.4</ele>
        <time>2019-07-05T14:45:47Z</time>
      </trkpt>
      <trkpt lat="40.4822840" lon="-1.8198480">
        <ele>1463.0</ele>
        <time>2019-07-05T14:45:50Z</time>
      </trkpt>
      <trkpt lat="40.4822720" lon="-1.8197710">
        <ele>1464.0</ele>
        <time>2019-07-05T14:45:53Z</time>
      </trkpt>
      <trkpt lat="40.4822530" lon="-1.8196940">
        <ele>1464.4</ele>
        <time>2019-07-05T14:45:56Z</time>
      </trkpt>
      <trkpt lat="40.4822260" lon="-1.8195680">
        <ele>1465.0</ele>
        <time>2019-07-05T14:46:01Z</time>
      </trkpt>
      <trkpt lat="40.4822050" lon="-1.8194970">
        <ele>1465.6</ele>
        <time>2019-07-05T14:46:04Z</time>
      </trkpt>
      <trkpt lat="40.4821670" lon="-1.8193750">
        <ele>1466.8</ele>
        <time>2019-07-05T14:46:09Z</time>
      </trkpt>
      <trkpt lat="40.4821320" lon="-1.8192710">
        <ele>1468.0</ele>
        <time>2019-07-05T14:46:13Z</time>
      </trkpt>
      <trkpt lat="40.4821030" lon="-1.8191940">
        <ele>1469.2</ele>
        <time>2019-07-05T14:46:16Z</time>
      </trkpt>
      <trkpt lat="40.4820930" lon="-1.8191680">
        <ele>1469.2</ele>
        <time>2019-07-05T14:46:17Z</time>
      </trkpt>
      <trkpt lat="40.4820460" lon="-1.8190350">
        <ele>1470.2</ele>
        <time>2019-07-05T14:46:22Z</time>
      </trkpt>
      <trkpt lat="40.4820050" lon="-1.8189310">
        <ele>1470.8</ele>
        <time>2019-07-05T14:46:26Z</time>
      </trkpt>
      <trkpt lat="40.4819630" lon="-1.8188270">
        <ele>1471.2</ele>
        <time>2019-07-05T14:46:30Z</time>
      </trkpt>
      <trkpt lat="40.4819380" lon="-1.8187470">
        <ele>1472.6</ele>
        <time>2019-07-05T14:46:33Z</time>
      </trkpt>
      <trkpt lat="40.4819310" lon="-1.8187200">
        <ele>1472.8</ele>
        <time>2019-07-05T14:46:34Z</time>
      </trkpt>
      <trkpt lat="40.4819060" lon="-1.8186400">
        <ele>1473.8</ele>
        <time>2019-07-05T14:46:37Z</time>
      </trkpt>
      <trkpt lat="40.4818580" lon="-1.8185040">
        <ele>1474.4</ele>
        <time>2019-07-05T14:46:42Z</time>
      </trkpt>
      <trkpt lat="40.4818090" lon="-1.8183740">
        <ele>1475.0</ele>
        <time>2019-07-05T14:46:47Z</time>
      </trkpt>
      <trkpt lat="40.4817900" lon="-1.8183200">
        <ele>1475.6</ele>
        <time>2019-07-05T14:46:49Z</time>
      </trkpt>
      <trkpt lat="40.4817610" lon="-1.8182370">
        <ele>1476.2</ele>
        <time>2019-07-05T14:46:52Z</time>
      </trkpt>
      <trkpt lat="40.4817500" lon="-1.8181810">
        <ele>1476.4</ele>
        <time>2019-07-05T14:46:54Z</time>
      </trkpt>
      <trkpt lat="40.4817560" lon="-1.8181570">
        <ele>1476.6</ele>
        <time>2019-07-05T14:46:55Z</time>
      </trkpt>
      <trkpt lat="40.4818130" lon="-1.8181550">
        <ele>1476.6</ele>
        <time>2019-07-05T14:46:58Z</time>
      </trkpt>
      <trkpt lat="40.4819230" lon="-1.8182540">
        <ele>1476.4</ele>
        <time>2019-07-05T14:47:02Z</time>
      </trkpt>
      <trkpt lat="40.4819570" lon="-1.8182840">
        <ele>1476.2</ele>
        <time>2019-07-05T14:47:03Z</time>
      </trkpt>
      <trkpt lat="40.4821950" lon="-1.8184890">
        <ele>1476.0</ele>
        <time>2019-07-05T14:47:09Z</time>
      </trkpt>
      <trkpt lat="40.4822860" lon="-1.8185360">
        <ele>1476.0</ele>
        <time>2019-07-05T14:47:11Z</time>
      </trkpt>
      <trkpt lat="40.4823700" lon="-1.8185760">
        <ele>1475.0</ele>
        <time>2019-07-05T14:47:13Z</time>
      </trkpt>
      <trkpt lat="40.4824100" lon="-1.8186030">
        <ele>1474.2</ele>
        <time>2019-07-05T14:47:14Z</time>
      </trkpt>
      <trkpt lat="40.4824520" lon="-1.8186400">
        <ele>1473.6</ele>
        <time>2019-07-05T14:47:15Z</time>
      </trkpt>
      <trkpt lat="40.4825760" lon="-1.8188040">
        <ele>1472.6</ele>
        <time>2019-07-05T14:47:18Z</time>
      </trkpt>
      <trkpt lat="40.4826050" lon="-1.8188600">
        <ele>1472.4</ele>
        <time>2019-07-05T14:47:19Z</time>
      </trkpt>
      <trkpt lat="40.4826410" lon="-1.8189700">
        <ele>1472.0</ele>
        <time>2019-07-05T14:47:21Z</time>
      </trkpt>
      <trkpt lat="40.4826540" lon="-1.8190260">
        <ele>1472.0</ele>
        <time>2019-07-05T14:47:22Z</time>
      </trkpt>
      <trkpt lat="40.4826690" lon="-1.8190840">
        <ele>1471.6</ele>
        <time>2019-07-05T14:47:23Z</time>
      </trkpt>
      <trkpt lat="40.4826850" lon="-1.8191440">
        <ele>1471.2</ele>
        <time>2019-07-05T14:47:24Z</time>
      </trkpt>
      <trkpt lat="40.4827030" lon="-1.8192050">
        <ele>1470.8</ele>
        <time>2019-07-05T14:47:25Z</time>
      </trkpt>
      <trkpt lat="40.4827600" lon="-1.8193210">
        <ele>1470.6</ele>
        <time>2019-07-05T14:47:27Z</time>
      </trkpt>
      <trkpt lat="40.4828410" lon="-1.8194120">
        <ele>1470.4</ele>
        <time>2019-07-05T14:47:29Z</time>
      </trkpt>
      <trkpt lat="40.4828830" lon="-1.8194540">
        <ele>1470.2</ele>
        <time>2019-07-05T14:47:30Z</time>
      </trkpt>
      <trkpt lat="40.4829560" lon="-1.8195460">
        <ele>1469.4</ele>
        <time>2019-07-05T14:47:32Z</time>
      </trkpt>
      <trkpt lat="40.4829850" lon="-1.8195910">
        <ele>1469.2</ele>
        <time>2019-07-05T14:47:33Z</time>
      </trkpt>
      <trkpt lat="40.4830400" lon="-1.8196860">
        <ele>1468.8</ele>
        <time>2019-07-05T14:47:35Z</time>
      </trkpt>
      <trkpt lat="40.4830650" lon="-1.8197490">
        <ele>1468.6</ele>
        <time>2019-07-05T14:47:36Z</time>
      </trkpt>
      <trkpt lat="40.4830850" lon="-1.8198200">
        <ele>1468.0</ele>
        <time>2019-07-05T14:47:37Z</time>
      </trkpt>
      <trkpt lat="40.4831000" lon="-1.8199640">
        <ele>1466.2</ele>
        <time>2019-07-05T14:47:39Z</time>
      </trkpt>
      <trkpt lat="40.4830940" lon="-1.8200360">
        <ele>1465.8</ele>
        <time>2019-07-05T14:47:40Z</time>
      </trkpt>
      <trkpt lat="40.4830630" lon="-1.8201510">
        <ele>1464.8</ele>
        <time>2019-07-05T14:47:42Z</time>
      </trkpt>
      <trkpt lat="40.4830500" lon="-1.8201990">
        <ele>1464.6</ele>
        <time>2019-07-05T14:47:43Z</time>
      </trkpt>
      <trkpt lat="40.4830070" lon="-1.8204040">
        <ele>1464.4</ele>
        <time>2019-07-05T14:47:47Z</time>
      </trkpt>
      <trkpt lat="40.4829610" lon="-1.8205050">
        <ele>1464.4</ele>
        <time>2019-07-05T14:47:49Z</time>
      </trkpt>
      <trkpt lat="40.4827690" lon="-1.8207380">
        <ele>1464.2</ele>
        <time>2019-07-05T14:47:54Z</time>
      </trkpt>
      <trkpt lat="40.4826850" lon="-1.8208270">
        <ele>1463.8</ele>
        <time>2019-07-05T14:47:56Z</time>
      </trkpt>
      <trkpt lat="40.4825550" lon="-1.8209590">
        <ele>1462.6</ele>
        <time>2019-07-05T14:47:59Z</time>
      </trkpt>
      <trkpt lat="40.4825120" lon="-1.8210030">
        <ele>1462.0</ele>
        <time>2019-07-05T14:48:00Z</time>
      </trkpt>
      <trkpt lat="40.4824200" lon="-1.8210810">
        <ele>1461.2</ele>
        <time>2019-07-05T14:48:02Z</time>
      </trkpt>
      <trkpt lat="40.4822260" lon="-1.8211890">
        <ele>1460.2</ele>
        <time>2019-07-05T14:48:06Z</time>
      </trkpt>
      <trkpt lat="40.4820900" lon="-1.8212630">
        <ele>1460.4</ele>
        <time>2019-07-05T14:48:09Z</time>
      </trkpt>
      <trkpt lat="40.4820110" lon="-1.8213370">
        <ele>1460.6</ele>
        <time>2019-07-05T14:48:11Z</time>
      </trkpt>
      <trkpt lat="40.4818360" lon="-1.8215190">
        <ele>1460.6</ele>
        <time>2019-07-05T14:48:16Z</time>
      </trkpt>
      <trkpt lat="40.4817700" lon="-1.8215860">
        <ele>1460.8</ele>
        <time>2019-07-05T14:48:18Z</time>
      </trkpt>
      <trkpt lat="40.4816410" lon="-1.8216800">
        <ele>1460.8</ele>
        <time>2019-07-05T14:48:22Z</time>
      </trkpt>
      <trkpt lat="40.4815790" lon="-1.8217180">
        <ele>1461.4</ele>
        <time>2019-07-05T14:48:24Z</time>
      </trkpt>
      <trkpt lat="40.4815480" lon="-1.8217370">
        <ele>1461.4</ele>
        <time>2019-07-05T14:48:25Z</time>
      </trkpt>
      <trkpt lat="40.4813990" lon="-1.8218600">
        <ele>1461.4</ele>
        <time>2019-07-05T14:48:30Z</time>
      </trkpt>
      <trkpt lat="40.4813170" lon="-1.8219540">
        <ele>1461.4</ele>
        <time>2019-07-05T14:48:33Z</time>
      </trkpt>
      <trkpt lat="40.4812130" lon="-1.8220850">
        <ele>1461.2</ele>
        <time>2019-07-05T14:48:37Z</time>
      </trkpt>
      <trkpt lat="40.4811250" lon="-1.8222300">
        <ele>1461.0</ele>
        <time>2019-07-05T14:48:41Z</time>
      </trkpt>
      <trkpt lat="40.4810110" lon="-1.8224730">
        <ele>1462.2</ele>
        <time>2019-07-05T14:48:48Z</time>
      </trkpt>
      <trkpt lat="40.4809780" lon="-1.8225410">
        <ele>1462.4</ele>
        <time>2019-07-05T14:48:50Z</time>
      </trkpt>
      <trkpt lat="40.4808850" lon="-1.8227040">
        <ele>1463.8</ele>
        <time>2019-07-05T14:48:55Z</time>
      </trkpt>
      <trkpt lat="40.4808270" lon="-1.8228070">
        <ele>1464.0</ele>
        <time>2019-07-05T14:48:58Z</time>
      </trkpt>
      <trkpt lat="40.4807580" lon="-1.8229470">
        <ele>1465.0</ele>
        <time>2019-07-05T14:49:02Z</time>
      </trkpt>
      <trkpt lat="40.4806440" lon="-1.8231060">
        <ele>1465.8</ele>
        <time>2019-07-05T14:49:07Z</time>
      </trkpt>
      <trkpt lat="40.4805410" lon="-1.8232010">
        <ele>1466.2</ele>
        <time>2019-07-05T14:49:11Z</time>
      </trkpt>
      <trkpt lat="40.4804580" lon="-1.8232670">
        <ele>1466.6</ele>
        <time>2019-07-05T14:49:14Z</time>
      </trkpt>
      <trkpt lat="40.4803950" lon="-1.8233600">
        <ele>1467.4</ele>
        <time>2019-07-05T14:49:17Z</time>
      </trkpt>
      <trkpt lat="40.4803800" lon="-1.8233960">
        <ele>1467.4</ele>
        <time>2019-07-05T14:49:18Z</time>
      </trkpt>
      <trkpt lat="40.4803660" lon="-1.8234320">
        <ele>1467.6</ele>
        <time>2019-07-05T14:49:19Z</time>
      </trkpt>
      <trkpt lat="40.4802770" lon="-1.8235980">
        <ele>1468.4</ele>
        <time>2019-07-05T14:49:24Z</time>
      </trkpt>
      <trkpt lat="40.4802420" lon="-1.8236490">
        <ele>1468.8</ele>
        <time>2019-07-05T14:49:26Z</time>
      </trkpt>
      <trkpt lat="40.4801930" lon="-1.8237770">
        <ele>1469.6</ele>
        <time>2019-07-05T14:49:30Z</time>
      </trkpt>
      <trkpt lat="40.4801770" lon="-1.8238500">
        <ele>1470.0</ele>
        <time>2019-07-05T14:49:32Z</time>
      </trkpt>
      <trkpt lat="40.4801430" lon="-1.8241550">
        <ele>1470.6</ele>
        <time>2019-07-05T14:49:40Z</time>
      </trkpt>
      <trkpt lat="40.4801320" lon="-1.8243720">
        <ele>1470.8</ele>
        <time>2019-07-05T14:49:46Z</time>
      </trkpt>
      <trkpt lat="40.4801180" lon="-1.8246140">
        <ele>1471.8</ele>
        <time>2019-07-05T14:49:53Z</time>
      </trkpt>
      <trkpt lat="40.4801700" lon="-1.8247450">
        <ele>1471.6</ele>
        <time>2019-07-05T14:49:57Z</time>
      </trkpt>
      <trkpt lat="40.4802070" lon="-1.8249120">
        <ele>1471.8</ele>
        <time>2019-07-05T14:50:03Z</time>
      </trkpt>
      <trkpt lat="40.4802320" lon="-1.8251060">
        <ele>1471.8</ele>
        <time>2019-07-05T14:50:08Z</time>
      </trkpt>
      <trkpt lat="40.4802480" lon="-1.8251460">
        <ele>1471.8</ele>
        <time>2019-07-05T14:50:09Z</time>
      </trkpt>
      <trkpt lat="40.4803640" lon="-1.8252710">
        <ele>1471.2</ele>
        <time>2019-07-05T14:50:13Z</time>
      </trkpt>
      <trkpt lat="40.4804030" lon="-1.8252950">
        <ele>1471.0</ele>
        <time>2019-07-05T14:50:14Z</time>
      </trkpt>
      <trkpt lat="40.4804850" lon="-1.8253400">
        <ele>1471.0</ele>
        <time>2019-07-05T14:50:16Z</time>
      </trkpt>
      <trkpt lat="40.4805640" lon="-1.8254130">
        <ele>1470.6</ele>
        <time>2019-07-05T14:50:18Z</time>
      </trkpt>
      <trkpt lat="40.4806530" lon="-1.8255560">
        <ele>1470.2</ele>
        <time>2019-07-05T14:50:21Z</time>
      </trkpt>
      <trkpt lat="40.4807090" lon="-1.8256420">
        <ele>1470.0</ele>
        <time>2019-07-05T14:50:23Z</time>
      </trkpt>
      <trkpt lat="40.4807410" lon="-1.8256800">
        <ele>1470.0</ele>
        <time>2019-07-05T14:50:24Z</time>
      </trkpt>
      <trkpt lat="40.4808190" lon="-1.8257460">
        <ele>1469.4</ele>
        <time>2019-07-05T14:50:26Z</time>
      </trkpt>
      <trkpt lat="40.4808630" lon="-1.8257720">
        <ele>1468.6</ele>
        <time>2019-07-05T14:50:27Z</time>
      </trkpt>
      <trkpt lat="40.4809540" lon="-1.8258120">
        <ele>1468.4</ele>
        <time>2019-07-05T14:50:29Z</time>
      </trkpt>
      <trkpt lat="40.4809990" lon="-1.8258310">
        <ele>1468.6</ele>
        <time>2019-07-05T14:50:30Z</time>
      </trkpt>
      <trkpt lat="40.4811330" lon="-1.8258780">
        <ele>1468.6</ele>
        <time>2019-07-05T14:50:33Z</time>
      </trkpt>
      <trkpt lat="40.4811760" lon="-1.8258940">
        <ele>1468.6</ele>
        <time>2019-07-05T14:50:34Z</time>
      </trkpt>
      <trkpt lat="40.4813590" lon="-1.8259180">
        <ele>1468.8</ele>
        <time>2019-07-05T14:50:38Z</time>
      </trkpt>
      <trkpt lat="40.4814050" lon="-1.8259300">
        <ele>1468.4</ele>
        <time>2019-07-05T14:50:39Z</time>
      </trkpt>
      <trkpt lat="40.4814970" lon="-1.8259640">
        <ele>1467.0</ele>
        <time>2019-07-05T14:50:41Z</time>
      </trkpt>
      <trkpt lat="40.4816940" lon="-1.8260620">
        <ele>1466.0</ele>
        <time>2019-07-05T14:50:45Z</time>
      </trkpt>
      <trkpt lat="40.4817450" lon="-1.8260950">
        <ele>1465.6</ele>
        <time>2019-07-05T14:50:46Z</time>
      </trkpt>
      <trkpt lat="40.4818910" lon="-1.8262350">
        <ele>1464.8</ele>
        <time>2019-07-05T14:50:49Z</time>
      </trkpt>
      <trkpt lat="40.4820330" lon="-1.8263460">
        <ele>1464.0</ele>
        <time>2019-07-05T14:50:52Z</time>
      </trkpt>
      <trkpt lat="40.4820830" lon="-1.8263520">
        <ele>1463.8</ele>
        <time>2019-07-05T14:50:53Z</time>
      </trkpt>
      <trkpt lat="40.4822260" lon="-1.8262820">
        <ele>1462.6</ele>
        <time>2019-07-05T14:50:56Z</time>
      </trkpt>
      <trkpt lat="40.4822700" lon="-1.8262440">
        <ele>1462.4</ele>
        <time>2019-07-05T14:50:57Z</time>
      </trkpt>
      <trkpt lat="40.4823140" lon="-1.8262010">
        <ele>1461.8</ele>
        <time>2019-07-05T14:50:58Z</time>
      </trkpt>
      <trkpt lat="40.4823610" lon="-1.8261650">
        <ele>1461.2</ele>
        <time>2019-07-05T14:50:59Z</time>
      </trkpt>
      <trkpt lat="40.4824660" lon="-1.8261500">
        <ele>1460.6</ele>
        <time>2019-07-05T14:51:01Z</time>
      </trkpt>
      <trkpt lat="40.4825210" lon="-1.8261470">
        <ele>1459.8</ele>
        <time>2019-07-05T14:51:02Z</time>
      </trkpt>
      <trkpt lat="40.4826160" lon="-1.8260960">
        <ele>1459.2</ele>
        <time>2019-07-05T14:51:04Z</time>
      </trkpt>
      <trkpt lat="40.4827560" lon="-1.8259530">
        <ele>1459.0</ele>
        <time>2019-07-05T14:51:08Z</time>
      </trkpt>
      <trkpt lat="40.4828800" lon="-1.8259070">
        <ele>1459.0</ele>
        <time>2019-07-05T14:51:11Z</time>
      </trkpt>
      <trkpt lat="40.4829200" lon="-1.8258990">
        <ele>1459.0</ele>
        <time>2019-07-05T14:51:12Z</time>
      </trkpt>
      <trkpt lat="40.4829980" lon="-1.8258850">
        <ele>1459.6</ele>
        <time>2019-07-05T14:51:14Z</time>
      </trkpt>
      <trkpt lat="40.4831470" lon="-1.8258790">
        <ele>1461.2</ele>
        <time>2019-07-05T14:51:18Z</time>
      </trkpt>
      <trkpt lat="40.4832570" lon="-1.8258730">
        <ele>1461.4</ele>
        <time>2019-07-05T14:51:21Z</time>
      </trkpt>
      <trkpt lat="40.4832940" lon="-1.8258750">
        <ele>1461.4</ele>
        <time>2019-07-05T14:51:22Z</time>
      </trkpt>
      <trkpt lat="40.4834160" lon="-1.8259590">
        <ele>1462.4</ele>
        <time>2019-07-05T14:51:26Z</time>
      </trkpt>
      <trkpt lat="40.4835130" lon="-1.8260960">
        <ele>1462.4</ele>
        <time>2019-07-05T14:51:30Z</time>
      </trkpt>
      <trkpt lat="40.4835450" lon="-1.8261240">
        <ele>1462.2</ele>
        <time>2019-07-05T14:51:31Z</time>
      </trkpt>
      <trkpt lat="40.4835770" lon="-1.8261550">
        <ele>1461.8</ele>
        <time>2019-07-05T14:51:32Z</time>
      </trkpt>
      <trkpt lat="40.4836340" lon="-1.8262270">
        <ele>1461.8</ele>
        <time>2019-07-05T14:51:34Z</time>
      </trkpt>
      <trkpt lat="40.4837130" lon="-1.8263280">
        <ele>1462.2</ele>
        <time>2019-07-05T14:51:37Z</time>
      </trkpt>
      <trkpt lat="40.4838000" lon="-1.8264100">
        <ele>1462.4</ele>
        <time>2019-07-05T14:51:40Z</time>
      </trkpt>
      <trkpt lat="40.4839020" lon="-1.8264580">
        <ele>1463.0</ele>
        <time>2019-07-05T14:51:43Z</time>
      </trkpt>
      <trkpt lat="40.4840440" lon="-1.8264920">
        <ele>1463.4</ele>
        <time>2019-07-05T14:51:47Z</time>
      </trkpt>
      <trkpt lat="40.4841710" lon="-1.8265290">
        <ele>1463.8</ele>
        <time>2019-07-05T14:51:51Z</time>
      </trkpt>
      <trkpt lat="40.4842450" lon="-1.8265830">
        <ele>1464.8</ele>
        <time>2019-07-05T14:51:54Z</time>
      </trkpt>
      <trkpt lat="40.4842950" lon="-1.8266190">
        <ele>1465.0</ele>
        <time>2019-07-05T14:51:56Z</time>
      </trkpt>
      <trkpt lat="40.4844240" lon="-1.8266610">
        <ele>1465.6</ele>
        <time>2019-07-05T14:52:01Z</time>
      </trkpt>
      <trkpt lat="40.4845100" lon="-1.8266620">
        <ele>1465.8</ele>
        <time>2019-07-05T14:52:04Z</time>
      </trkpt>
      <trkpt lat="40.4846610" lon="-1.8266660">
        <ele>1466.8</ele>
        <time>2019-07-05T14:52:09Z</time>
      </trkpt>
      <trkpt lat="40.4846930" lon="-1.8266660">
        <ele>1467.0</ele>
        <time>2019-07-05T14:52:10Z</time>
      </trkpt>
      <trkpt lat="40.4848450" lon="-1.8266600">
        <ele>1468.2</ele>
        <time>2019-07-05T14:52:15Z</time>
      </trkpt>
      <trkpt lat="40.4849020" lon="-1.8266530">
        <ele>1468.4</ele>
        <time>2019-07-05T14:52:17Z</time>
      </trkpt>
      <trkpt lat="40.4851180" lon="-1.8266330">
        <ele>1469.2</ele>
        <time>2019-07-05T14:52:25Z</time>
      </trkpt>
      <trkpt lat="40.4851450" lon="-1.8266240">
        <ele>1469.6</ele>
        <time>2019-07-05T14:52:26Z</time>
      </trkpt>
      <trkpt lat="40.4852750" lon="-1.8265710">
        <ele>1470.6</ele>
        <time>2019-07-05T14:52:31Z</time>
      </trkpt>
      <trkpt lat="40.4853190" lon="-1.8265490">
        <ele>1470.8</ele>
        <time>2019-07-05T14:52:33Z</time>
      </trkpt>
      <trkpt lat="40.4853960" lon="-1.8264920">
        <ele>1471.8</ele>
        <time>2019-07-05T14:52:37Z</time>
      </trkpt>
      <trkpt lat="40.4854730" lon="-1.8264400">
        <ele>1473.0</ele>
        <time>2019-07-05T14:52:41Z</time>
      </trkpt>
      <trkpt lat="40.4854930" lon="-1.8264250">
        <ele>1473.4</ele>
        <time>2019-07-05T14:52:42Z</time>
      </trkpt>
      <trkpt lat="40.4855660" lon="-1.8263660">
        <ele>1474.0</ele>
        <time>2019-07-05T14:52:46Z</time>
      </trkpt>
      <trkpt lat="40.4856110" lon="-1.8263100">
        <ele>1475.0</ele>
        <time>2019-07-05T14:52:49Z</time>
      </trkpt>
      <trkpt lat="40.4856240" lon="-1.8262900">
        <ele>1475.4</ele>
        <time>2019-07-05T14:52:50Z</time>
      </trkpt>
      <trkpt lat="40.4856650" lon="-1.8262270">
        <ele>1476.2</ele>
        <time>2019-07-05T14:52:53Z</time>
      </trkpt>
      <trkpt lat="40.4857580" lon="-1.8261250">
        <ele>1477.2</ele>
        <time>2019-07-05T14:52:59Z</time>
      </trkpt>
      <trkpt lat="40.4857770" lon="-1.8261120">
        <ele>1477.4</ele>
        <time>2019-07-05T14:53:00Z</time>
      </trkpt>
      <trkpt lat="40.4858310" lon="-1.8260790">
        <ele>1478.4</ele>
        <time>2019-07-05T14:53:03Z</time>
      </trkpt>
      <trkpt lat="40.4859040" lon="-1.8260160">
        <ele>1479.4</ele>
        <time>2019-07-05T14:53:07Z</time>
      </trkpt>
      <trkpt lat="40.4860150" lon="-1.8258760">
        <ele>1480.4</ele>
        <time>2019-07-05T14:53:14Z</time>
      </trkpt>
      <trkpt lat="40.4860590" lon="-1.8257830">
        <ele>1481.4</ele>
        <time>2019-07-05T14:53:18Z</time>
      </trkpt>
      <trkpt lat="40.4860950" lon="-1.8257050">
        <ele>1482.0</ele>
        <time>2019-07-05T14:53:21Z</time>
      </trkpt>
      <trkpt lat="40.4861270" lon="-1.8256570">
        <ele>1482.4</ele>
        <time>2019-07-05T14:53:23Z</time>
      </trkpt>
      <trkpt lat="40.4862120" lon="-1.8255960">
        <ele>1483.2</ele>
        <time>2019-07-05T14:53:27Z</time>
      </trkpt>
      <trkpt lat="40.4863230" lon="-1.8255850">
        <ele>1483.6</ele>
        <time>2019-07-05T14:53:32Z</time>
      </trkpt>
      <trkpt lat="40.4864040" lon="-1.8255950">
        <ele>1484.8</ele>
        <time>2019-07-05T14:53:36Z</time>
      </trkpt>
      <trkpt lat="40.4864790" lon="-1.8256280">
        <ele>1486.0</ele>
        <time>2019-07-05T14:53:40Z</time>
      </trkpt>
      <trkpt lat="40.4864980" lon="-1.8256390">
        <ele>1486.2</ele>
        <time>2019-07-05T14:53:41Z</time>
      </trkpt>
      <trkpt lat="40.4865930" lon="-1.8257000">
        <ele>1487.2</ele>
        <time>2019-07-05T14:53:46Z</time>
      </trkpt>
      <trkpt lat="40.4866130" lon="-1.8257120">
        <ele>1487.4</ele>
        <time>2019-07-05T14:53:47Z</time>
      </trkpt>
      <trkpt lat="40.4867580" lon="-1.8257490">
        <ele>1488.2</ele>
        <time>2019-07-05T14:53:54Z</time>
      </trkpt>
      <trkpt lat="40.4867990" lon="-1.8257440">
        <ele>1488.8</ele>
        <time>2019-07-05T14:53:56Z</time>
      </trkpt>
      <trkpt lat="40.4868790" lon="-1.8257190">
        <ele>1490.0</ele>
        <time>2019-07-05T14:54:00Z</time>
      </trkpt>
      <trkpt lat="40.4869210" lon="-1.8257140">
        <ele>1490.2</ele>
        <time>2019-07-05T14:54:02Z</time>
      </trkpt>
      <trkpt lat="40.4869900" lon="-1.8257640">
        <ele>1491.2</ele>
        <time>2019-07-05T14:54:06Z</time>
      </trkpt>
      <trkpt lat="40.4870000" lon="-1.8257870">
        <ele>1491.6</ele>
        <time>2019-07-05T14:54:07Z</time>
      </trkpt>
      <trkpt lat="40.4870170" lon="-1.8258400">
        <ele>1492.2</ele>
        <time>2019-07-05T14:54:09Z</time>
      </trkpt>
      <trkpt lat="40.4870560" lon="-1.8259480">
        <ele>1493.2</ele>
        <time>2019-07-05T14:54:13Z</time>
      </trkpt>
      <trkpt lat="40.4870690" lon="-1.8259680">
        <ele>1493.6</ele>
        <time>2019-07-05T14:54:14Z</time>
      </trkpt>
      <trkpt lat="40.4871430" lon="-1.8260490">
        <ele>1494.4</ele>
        <time>2019-07-05T14:54:19Z</time>
      </trkpt>
      <trkpt lat="40.4871990" lon="-1.8260860">
        <ele>1494.8</ele>
        <time>2019-07-05T14:54:22Z</time>
      </trkpt>
      <trkpt lat="40.4872640" lon="-1.8260980">
        <ele>1495.4</ele>
        <time>2019-07-05T14:54:25Z</time>
      </trkpt>
      <trkpt lat="40.4873640" lon="-1.8261240">
        <ele>1496.6</ele>
        <time>2019-07-05T14:54:29Z</time>
      </trkpt>
      <trkpt lat="40.4875350" lon="-1.8262220">
        <ele>1497.2</ele>
        <time>2019-07-05T14:54:35Z</time>
      </trkpt>
      <trkpt lat="40.4877460" lon="-1.8264470">
        <ele>1497.0</ele>
        <time>2019-07-05T14:54:42Z</time>
      </trkpt>
      <trkpt lat="40.4878200" lon="-1.8264940">
        <ele>1497.0</ele>
        <time>2019-07-05T14:54:44Z</time>
      </trkpt>
      <trkpt lat="40.4879040" lon="-1.8265090">
        <ele>1497.0</ele>
        <time>2019-07-05T14:54:46Z</time>
      </trkpt>
      <trkpt lat="40.4880730" lon="-1.8264680">
        <ele>1497.2</ele>
        <time>2019-07-05T14:54:50Z</time>
      </trkpt>
      <trkpt lat="40.4881130" lon="-1.8264480">
        <ele>1497.2</ele>
        <time>2019-07-05T14:54:51Z</time>
      </trkpt>
      <trkpt lat="40.4881930" lon="-1.8264140">
        <ele>1497.2</ele>
        <time>2019-07-05T14:54:53Z</time>
      </trkpt>
      <trkpt lat="40.4883230" lon="-1.8264030">
        <ele>1496.8</ele>
        <time>2019-07-05T14:54:56Z</time>
      </trkpt>
      <trkpt lat="40.4883690" lon="-1.8264070">
        <ele>1496.4</ele>
        <time>2019-07-05T14:54:57Z</time>
      </trkpt>
      <trkpt lat="40.4885630" lon="-1.8264160">
        <ele>1496.6</ele>
        <time>2019-07-05T14:55:01Z</time>
      </trkpt>
      <trkpt lat="40.4886120" lon="-1.8264030">
        <ele>1496.6</ele>
        <time>2019-07-05T14:55:02Z</time>
      </trkpt>
      <trkpt lat="40.4888430" lon="-1.8262860">
        <ele>1496.0</ele>
        <time>2019-07-05T14:55:07Z</time>
      </trkpt>
      <trkpt lat="40.4889330" lon="-1.8262390">
        <ele>1496.2</ele>
        <time>2019-07-05T14:55:09Z</time>
      </trkpt>
      <trkpt lat="40.4890280" lon="-1.8262000">
        <ele>1496.0</ele>
        <time>2019-07-05T14:55:11Z</time>
      </trkpt>
      <trkpt lat="40.4891760" lon="-1.8261890">
        <ele>1495.8</ele>
        <time>2019-07-05T14:55:14Z</time>
      </trkpt>
      <trkpt lat="40.4893210" lon="-1.8262370">
        <ele>1496.0</ele>
        <time>2019-07-05T14:55:17Z</time>
      </trkpt>
      <trkpt lat="40.4895110" lon="-1.8263160">
        <ele>1497.6</ele>
        <time>2019-07-05T14:55:21Z</time>
      </trkpt>
      <trkpt lat="40.4896070" lon="-1.8263460">
        <ele>1496.8</ele>
        <time>2019-07-05T14:55:23Z</time>
      </trkpt>
      <trkpt lat="40.4897540" lon="-1.8263800">
        <ele>1495.2</ele>
        <time>2019-07-05T14:55:26Z</time>
      </trkpt>
      <trkpt lat="40.4898040" lon="-1.8263990">
        <ele>1495.0</ele>
        <time>2019-07-05T14:55:27Z</time>
      </trkpt>
      <trkpt lat="40.4900580" lon="-1.8264860">
        <ele>1494.0</ele>
        <time>2019-07-05T14:55:32Z</time>
      </trkpt>
      <trkpt lat="40.4902530" lon="-1.8265310">
        <ele>1494.0</ele>
        <time>2019-07-05T14:55:36Z</time>
      </trkpt>
      <trkpt lat="40.4904590" lon="-1.8266840">
        <ele>1494.0</ele>
        <time>2019-07-05T14:55:41Z</time>
      </trkpt>
      <trkpt lat="40.4907060" lon="-1.8269340">
        <ele>1493.0</ele>
        <time>2019-07-05T14:55:47Z</time>
      </trkpt>
      <trkpt lat="40.4907960" lon="-1.8270120">
        <ele>1492.8</ele>
        <time>2019-07-05T14:55:49Z</time>
      </trkpt>
      <trkpt lat="40.4908450" lon="-1.8270430">
        <ele>1492.8</ele>
        <time>2019-07-05T14:55:50Z</time>
      </trkpt>
      <trkpt lat="40.4910060" lon="-1.8270840">
        <ele>1493.0</ele>
        <time>2019-07-05T14:55:53Z</time>
      </trkpt>
      <trkpt lat="40.4910610" lon="-1.8270860">
        <ele>1493.4</ele>
        <time>2019-07-05T14:55:54Z</time>
      </trkpt>
      <trkpt lat="40.4913270" lon="-1.8270850">
        <ele>1492.8</ele>
        <time>2019-07-05T14:55:59Z</time>
      </trkpt>
      <trkpt lat="40.4913760" lon="-1.8270780">
        <ele>1492.6</ele>
        <time>2019-07-05T14:56:00Z</time>
      </trkpt>
      <trkpt lat="40.4915230" lon="-1.8269880">
        <ele>1492.2</ele>
        <time>2019-07-05T14:56:04Z</time>
      </trkpt>
      <trkpt lat="40.4915610" lon="-1.8269320">
        <ele>1492.0</ele>
        <time>2019-07-05T14:56:06Z</time>
      </trkpt>
      <trkpt lat="40.4915890" lon="-1.8269070">
        <ele>1492.0</ele>
        <time>2019-07-05T14:56:08Z</time>
      </trkpt>
      <trkpt lat="40.4916390" lon="-1.8269340">
        <ele>1491.8</ele>
        <time>2019-07-05T14:56:12Z</time>
      </trkpt>
      <trkpt lat="40.4916400" lon="-1.8269430">
        <ele>1491.6</ele>
        <time>2019-07-05T14:56:14Z</time>
      </trkpt>
      <trkpt lat="40.4916380" lon="-1.8269770">
        <ele>1491.2</ele>
        <time>2019-07-05T14:56:48Z</time>
      </trkpt>
      <trkpt lat="40.4916390" lon="-1.8270000">
        <ele>1491.2</ele>
        <time>2019-07-05T14:56:49Z</time>
      </trkpt>
      <trkpt lat="40.4916290" lon="-1.8270910">
        <ele>1491.4</ele>
        <time>2019-07-05T14:56:52Z</time>
      </trkpt>
      <trkpt lat="40.4916260" lon="-1.8271650">
        <ele>1491.2</ele>
        <time>2019-07-05T14:56:54Z</time>
      </trkpt>
      <trkpt lat="40.4916510" lon="-1.8274090">
        <ele>1491.2</ele>
        <time>2019-07-05T14:57:00Z</time>
      </trkpt>
      <trkpt lat="40.4917200" lon="-1.8275940">
        <ele>1490.8</ele>
        <time>2019-07-05T14:57:04Z</time>
      </trkpt>
      <trkpt lat="40.4917740" lon="-1.8277200">
        <ele>1490.0</ele>
        <time>2019-07-05T14:57:07Z</time>
      </trkpt>
      <trkpt lat="40.4918320" lon="-1.8280110">
        <ele>1490.0</ele>
        <time>2019-07-05T14:57:13Z</time>
      </trkpt>
      <trkpt lat="40.4918510" lon="-1.8281750">
        <ele>1489.8</ele>
        <time>2019-07-05T14:57:16Z</time>
      </trkpt>
      <trkpt lat="40.4918870" lon="-1.8284030">
        <ele>1489.8</ele>
        <time>2019-07-05T14:57:20Z</time>
      </trkpt>
      <trkpt lat="40.4919130" lon="-1.8285150">
        <ele>1489.8</ele>
        <time>2019-07-05T14:57:22Z</time>
      </trkpt>
      <trkpt lat="40.4919870" lon="-1.8289020">
        <ele>1490.2</ele>
        <time>2019-07-05T14:57:29Z</time>
      </trkpt>
      <trkpt lat="40.4919970" lon="-1.8289580">
        <ele>1490.2</ele>
        <time>2019-07-05T14:57:30Z</time>
      </trkpt>
      <trkpt lat="40.4920980" lon="-1.8293680">
        <ele>1489.6</ele>
        <time>2019-07-05T14:57:38Z</time>
      </trkpt>
      <trkpt lat="40.4921950" lon="-1.8297630">
        <ele>1489.4</ele>
        <time>2019-07-05T14:57:46Z</time>
      </trkpt>
      <trkpt lat="40.4922230" lon="-1.8298610">
        <ele>1489.4</ele>
        <time>2019-07-05T14:57:48Z</time>
      </trkpt>
      <trkpt lat="40.4922910" lon="-1.8300490">
        <ele>1488.6</ele>
        <time>2019-07-05T14:57:52Z</time>
      </trkpt>
      <trkpt lat="40.4922980" lon="-1.8300990">
        <ele>1488.6</ele>
        <time>2019-07-05T14:57:53Z</time>
      </trkpt>
      <trkpt lat="40.4923160" lon="-1.8303950">
        <ele>1488.4</ele>
        <time>2019-07-05T14:57:59Z</time>
      </trkpt>
      <trkpt lat="40.4923260" lon="-1.8304400">
        <ele>1488.6</ele>
        <time>2019-07-05T14:58:00Z</time>
      </trkpt>
      <trkpt lat="40.4924250" lon="-1.8306840">
        <ele>1489.4</ele>
        <time>2019-07-05T14:58:06Z</time>
      </trkpt>
      <trkpt lat="40.4924670" lon="-1.8307570">
        <ele>1489.8</ele>
        <time>2019-07-05T14:58:08Z</time>
      </trkpt>
      <trkpt lat="40.4925230" lon="-1.8309210">
        <ele>1490.0</ele>
        <time>2019-07-05T14:58:12Z</time>
      </trkpt>
      <trkpt lat="40.4926350" lon="-1.8311340">
        <ele>1489.4</ele>
        <time>2019-07-05T14:58:18Z</time>
      </trkpt>
      <trkpt lat="40.4927560" lon="-1.8312390">
        <ele>1489.2</ele>
        <time>2019-07-05T14:58:24Z</time>
      </trkpt>
      <trkpt lat="40.4927720" lon="-1.8312440">
        <ele>1489.0</ele>
        <time>2019-07-05T14:58:26Z</time>
      </trkpt>
      <trkpt lat="40.4927820" lon="-1.8312510">
        <ele>1488.8</ele>
        <time>2019-07-05T14:58:27Z</time>
      </trkpt>
      <trkpt lat="40.4928070" lon="-1.8312730">
        <ele>1488.8</ele>
        <time>2019-07-05T14:58:29Z</time>
      </trkpt>
      <trkpt lat="40.4928950" lon="-1.8314170">
        <ele>1489.2</ele>
        <time>2019-07-05T14:58:35Z</time>
      </trkpt>
      <trkpt lat="40.4929240" lon="-1.8315140">
        <ele>1490.2</ele>
        <time>2019-07-05T14:58:38Z</time>
      </trkpt>
      <trkpt lat="40.4929560" lon="-1.8316360">
        <ele>1490.0</ele>
        <time>2019-07-05T14:58:42Z</time>
      </trkpt>
      <trkpt lat="40.4930360" lon="-1.8318530">
        <ele>1491.2</ele>
        <time>2019-07-05T14:58:49Z</time>
      </trkpt>
      <trkpt lat="40.4930470" lon="-1.8318830">
        <ele>1491.4</ele>
        <time>2019-07-05T14:58:50Z</time>
      </trkpt>
      <trkpt lat="40.4931470" lon="-1.8321370">
        <ele>1491.6</ele>
        <time>2019-07-05T14:58:58Z</time>
      </trkpt>
      <trkpt lat="40.4932110" lon="-1.8323600">
        <ele>1492.2</ele>
        <time>2019-07-05T14:59:05Z</time>
      </trkpt>
      <trkpt lat="40.4932200" lon="-1.8323930">
        <ele>1492.2</ele>
        <time>2019-07-05T14:59:06Z</time>
      </trkpt>
      <trkpt lat="40.4932950" lon="-1.8326640">
        <ele>1493.2</ele>
        <time>2019-07-05T14:59:14Z</time>
      </trkpt>
      <trkpt lat="40.4933290" lon="-1.8327630">
        <ele>1493.4</ele>
        <time>2019-07-05T14:59:17Z</time>
      </trkpt>
      <trkpt lat="40.4933900" lon="-1.8329230">
        <ele>1494.4</ele>
        <time>2019-07-05T14:59:22Z</time>
      </trkpt>
      <trkpt lat="40.4934010" lon="-1.8329470">
        <ele>1494.4</ele>
        <time>2019-07-05T14:59:23Z</time>
      </trkpt>
      <trkpt lat="40.4934300" lon="-1.8330830">
        <ele>1494.6</ele>
        <time>2019-07-05T14:59:27Z</time>
      </trkpt>
      <trkpt lat="40.4935060" lon="-1.8333480">
        <ele>1495.4</ele>
        <time>2019-07-05T14:59:34Z</time>
      </trkpt>
      <trkpt lat="40.4935230" lon="-1.8333820">
        <ele>1495.2</ele>
        <time>2019-07-05T14:59:35Z</time>
      </trkpt>
      <trkpt lat="40.4935400" lon="-1.8334170">
        <ele>1495.4</ele>
        <time>2019-07-05T14:59:36Z</time>
      </trkpt>
      <trkpt lat="40.4935910" lon="-1.8335190">
        <ele>1496.6</ele>
        <time>2019-07-05T14:59:39Z</time>
      </trkpt>
      <trkpt lat="40.4936470" lon="-1.8336240">
        <ele>1497.4</ele>
        <time>2019-07-05T14:59:42Z</time>
      </trkpt>
      <trkpt lat="40.4938040" lon="-1.8339250">
        <ele>1497.6</ele>
        <time>2019-07-05T14:59:50Z</time>
      </trkpt>
      <trkpt lat="40.4938400" lon="-1.8340030">
        <ele>1498.0</ele>
        <time>2019-07-05T14:59:52Z</time>
      </trkpt>
      <trkpt lat="40.4939600" lon="-1.8342750">
        <ele>1498.8</ele>
        <time>2019-07-05T14:59:59Z</time>
      </trkpt>
      <trkpt lat="40.4939760" lon="-1.8343130">
        <ele>1499.0</ele>
        <time>2019-07-05T15:00:00Z</time>
      </trkpt>
      <trkpt lat="40.4940890" lon="-1.8346300">
        <ele>1500.0</ele>
        <time>2019-07-05T15:00:08Z</time>
      </trkpt>
      <trkpt lat="40.4941400" lon="-1.8347840">
        <ele>1501.2</ele>
        <time>2019-07-05T15:00:12Z</time>
      </trkpt>
      <trkpt lat="40.4941970" lon="-1.8349340">
        <ele>1501.6</ele>
        <time>2019-07-05T15:00:16Z</time>
      </trkpt>
      <trkpt lat="40.4942240" lon="-1.8350430">
        <ele>1502.4</ele>
        <time>2019-07-05T15:00:19Z</time>
      </trkpt>
      <trkpt lat="40.4942650" lon="-1.8351460">
        <ele>1503.6</ele>
        <time>2019-07-05T15:00:22Z</time>
      </trkpt>
      <trkpt lat="40.4943100" lon="-1.8352520">
        <ele>1504.8</ele>
        <time>2019-07-05T15:00:25Z</time>
      </trkpt>
      <trkpt lat="40.4944090" lon="-1.8354220">
        <ele>1505.6</ele>
        <time>2019-07-05T15:00:30Z</time>
      </trkpt>
      <trkpt lat="40.4944340" lon="-1.8354510">
        <ele>1505.8</ele>
        <time>2019-07-05T15:00:31Z</time>
      </trkpt>
      <trkpt lat="40.4945790" lon="-1.8355770">
        <ele>1505.8</ele>
        <time>2019-07-05T15:00:36Z</time>
      </trkpt>
      <trkpt lat="40.4948470" lon="-1.8357940">
        <ele>1505.8</ele>
        <time>2019-07-05T15:00:43Z</time>
      </trkpt>
      <trkpt lat="40.4950710" lon="-1.8360350">
        <ele>1504.4</ele>
        <time>2019-07-05T15:00:48Z</time>
      </trkpt>
      <trkpt lat="40.4951190" lon="-1.8360910">
        <ele>1504.0</ele>
        <time>2019-07-05T15:00:49Z</time>
      </trkpt>
      <trkpt lat="40.4952200" lon="-1.8362110">
        <ele>1503.2</ele>
        <time>2019-07-05T15:00:51Z</time>
      </trkpt>
      <trkpt lat="40.4953220" lon="-1.8363500">
        <ele>1502.2</ele>
        <time>2019-07-05T15:00:53Z</time>
      </trkpt>
      <trkpt lat="40.4954310" lon="-1.8364930">
        <ele>1501.4</ele>
        <time>2019-07-05T15:00:55Z</time>
      </trkpt>
      <trkpt lat="40.4954850" lon="-1.8365670">
        <ele>1500.8</ele>
        <time>2019-07-05T15:00:56Z</time>
      </trkpt>
      <trkpt lat="40.4956530" lon="-1.8367840">
        <ele>1499.8</ele>
        <time>2019-07-05T15:00:59Z</time>
      </trkpt>
      <trkpt lat="40.4957630" lon="-1.8369280">
        <ele>1499.4</ele>
        <time>2019-07-05T15:01:01Z</time>
      </trkpt>
      <trkpt lat="40.4958200" lon="-1.8370010">
        <ele>1498.8</ele>
        <time>2019-07-05T15:01:02Z</time>
      </trkpt>
      <trkpt lat="40.4958770" lon="-1.8370730">
        <ele>1498.2</ele>
        <time>2019-07-05T15:01:03Z</time>
      </trkpt>
      <trkpt lat="40.4959380" lon="-1.8371400">
        <ele>1497.8</ele>
        <time>2019-07-05T15:01:04Z</time>
      </trkpt>
      <trkpt lat="40.4960800" lon="-1.8372640">
        <ele>1497.2</ele>
        <time>2019-07-05T15:01:06Z</time>
      </trkpt>
      <trkpt lat="40.4961560" lon="-1.8373250">
        <ele>1496.8</ele>
        <time>2019-07-05T15:01:07Z</time>
      </trkpt>
      <trkpt lat="40.4963700" lon="-1.8375130">
        <ele>1496.2</ele>
        <time>2019-07-05T15:01:10Z</time>
      </trkpt>
      <trkpt lat="40.4964930" lon="-1.8376400">
        <ele>1495.6</ele>
        <time>2019-07-05T15:01:12Z</time>
      </trkpt>
      <trkpt lat="40.4965470" lon="-1.8377030">
        <ele>1495.4</ele>
        <time>2019-07-05T15:01:13Z</time>
      </trkpt>
      <trkpt lat="40.4967580" lon="-1.8380200">
        <ele>1495.2</ele>
        <time>2019-07-05T15:01:18Z</time>
      </trkpt>
      <trkpt lat="40.4967950" lon="-1.8380800">
        <ele>1495.2</ele>
        <time>2019-07-05T15:01:19Z</time>
      </trkpt>
      <trkpt lat="40.4970010" lon="-1.8384050">
        <ele>1495.2</ele>
        <time>2019-07-05T15:01:25Z</time>
      </trkpt>
      <trkpt lat="40.4971660" lon="-1.8386190">
        <ele>1495.4</ele>
        <time>2019-07-05T15:01:30Z</time>
      </trkpt>
      <trkpt lat="40.4972370" lon="-1.8386960">
        <ele>1495.4</ele>
        <time>2019-07-05T15:01:32Z</time>
      </trkpt>
      <trkpt lat="40.4974980" lon="-1.8390340">
        <ele>1496.4</ele>
        <time>2019-07-05T15:01:40Z</time>
      </trkpt>
      <trkpt lat="40.4975290" lon="-1.8390810">
        <ele>1496.6</ele>
        <time>2019-07-05T15:01:41Z</time>
      </trkpt>
      <trkpt lat="40.4977400" lon="-1.8394040">
        <ele>1497.4</ele>
        <time>2019-07-05T15:01:48Z</time>
      </trkpt>
      <trkpt lat="40.4978100" lon="-1.8394910">
        <ele>1497.2</ele>
        <time>2019-07-05T15:01:50Z</time>
      </trkpt>
      <trkpt lat="40.4979320" lon="-1.8396150">
        <ele>1497.0</ele>
        <time>2019-07-05T15:01:53Z</time>
      </trkpt>
      <trkpt lat="40.4980700" lon="-1.8397040">
        <ele>1497.0</ele>
        <time>2019-07-05T15:01:56Z</time>
      </trkpt>
      <trkpt lat="40.4982540" lon="-1.8397980">
        <ele>1497.6</ele>
        <time>2019-07-05T15:02:00Z</time>
      </trkpt>
      <trkpt lat="40.4984180" lon="-1.8398690">
        <ele>1498.0</ele>
        <time>2019-07-05T15:02:04Z</time>
      </trkpt>
      <trkpt lat="40.4985320" lon="-1.8399260">
        <ele>1498.8</ele>
        <time>2019-07-05T15:02:07Z</time>
      </trkpt>
      <trkpt lat="40.4987060" lon="-1.8400580">
        <ele>1499.6</ele>
        <time>2019-07-05T15:02:12Z</time>
      </trkpt>
      <trkpt lat="40.4987640" lon="-1.8401280">
        <ele>1499.8</ele>
        <time>2019-07-05T15:02:14Z</time>
      </trkpt>
      <trkpt lat="40.4988700" lon="-1.8402740">
        <ele>1501.0</ele>
        <time>2019-07-05T15:02:18Z</time>
      </trkpt>
      <trkpt lat="40.4989740" lon="-1.8404180">
        <ele>1501.6</ele>
        <time>2019-07-05T15:02:22Z</time>
      </trkpt>
      <trkpt lat="40.4990830" lon="-1.8405520">
        <ele>1502.2</ele>
        <time>2019-07-05T15:02:26Z</time>
      </trkpt>
      <trkpt lat="40.4992230" lon="-1.8406980">
        <ele>1503.0</ele>
        <time>2019-07-05T15:02:31Z</time>
      </trkpt>
      <trkpt lat="40.4992830" lon="-1.8407560">
        <ele>1503.4</ele>
        <time>2019-07-05T15:02:33Z</time>
      </trkpt>
      <trkpt lat="40.4994350" lon="-1.8409080">
        <ele>1504.0</ele>
        <time>2019-07-05T15:02:38Z</time>
      </trkpt>
      <trkpt lat="40.4994960" lon="-1.8409710">
        <ele>1504.8</ele>
        <time>2019-07-05T15:02:40Z</time>
      </trkpt>
      <trkpt lat="40.4995280" lon="-1.8410050">
        <ele>1504.8</ele>
        <time>2019-07-05T15:02:41Z</time>
      </trkpt>
      <trkpt lat="40.4996800" lon="-1.8411900">
        <ele>1505.8</ele>
        <time>2019-07-05T15:02:46Z</time>
      </trkpt>
      <trkpt lat="40.4997570" lon="-1.8413150">
        <ele>1506.4</ele>
        <time>2019-07-05T15:02:49Z</time>
      </trkpt>
      <trkpt lat="40.4999370" lon="-1.8416810">
        <ele>1506.8</ele>
        <time>2019-07-05T15:02:57Z</time>
      </trkpt>
      <trkpt lat="40.5001440" lon="-1.8420510">
        <ele>1507.6</ele>
        <time>2019-07-05T15:03:05Z</time>
      </trkpt>
      <trkpt lat="40.5003460" lon="-1.8423460">
        <ele>1508.0</ele>
        <time>2019-07-05T15:03:12Z</time>
      </trkpt>
      <trkpt lat="40.5004090" lon="-1.8424240">
        <ele>1508.4</ele>
        <time>2019-07-05T15:03:14Z</time>
      </trkpt>
      <trkpt lat="40.5005290" lon="-1.8425830">
        <ele>1508.8</ele>
        <time>2019-07-05T15:03:18Z</time>
      </trkpt>
      <trkpt lat="40.5005840" lon="-1.8426590">
        <ele>1509.4</ele>
        <time>2019-07-05T15:03:20Z</time>
      </trkpt>
      <trkpt lat="40.5007650" lon="-1.8429450">
        <ele>1510.4</ele>
        <time>2019-07-05T15:03:27Z</time>
      </trkpt>
      <trkpt lat="40.5009060" lon="-1.8431250">
        <ele>1511.4</ele>
        <time>2019-07-05T15:03:32Z</time>
      </trkpt>
      <trkpt lat="40.5009980" lon="-1.8432260">
        <ele>1511.6</ele>
        <time>2019-07-05T15:03:35Z</time>
      </trkpt>
      <trkpt lat="40.5011600" lon="-1.8433620">
        <ele>1512.4</ele>
        <time>2019-07-05T15:03:40Z</time>
      </trkpt>
      <trkpt lat="40.5012170" lon="-1.8433990">
        <ele>1512.8</ele>
        <time>2019-07-05T15:03:42Z</time>
      </trkpt>
      <trkpt lat="40.5013020" lon="-1.8434570">
        <ele>1513.4</ele>
        <time>2019-07-05T15:03:45Z</time>
      </trkpt>
      <trkpt lat="40.5014450" lon="-1.8435540">
        <ele>1513.8</ele>
        <time>2019-07-05T15:03:50Z</time>
      </trkpt>
      <trkpt lat="40.5015560" lon="-1.8436230">
        <ele>1514.8</ele>
        <time>2019-07-05T15:03:54Z</time>
      </trkpt>
      <trkpt lat="40.5016970" lon="-1.8437120">
        <ele>1515.6</ele>
        <time>2019-07-05T15:03:59Z</time>
      </trkpt>
      <trkpt lat="40.5017260" lon="-1.8437320">
        <ele>1516.0</ele>
        <time>2019-07-05T15:04:00Z</time>
      </trkpt>
      <trkpt lat="40.5018980" lon="-1.8438610">
        <ele>1517.2</ele>
        <time>2019-07-05T15:04:06Z</time>
      </trkpt>
      <trkpt lat="40.5019270" lon="-1.8438830">
        <ele>1517.4</ele>
        <time>2019-07-05T15:04:07Z</time>
      </trkpt>
      <trkpt lat="40.5020690" lon="-1.8439980">
        <ele>1518.2</ele>
        <time>2019-07-05T15:04:12Z</time>
      </trkpt>
      <trkpt lat="40.5022070" lon="-1.8441120">
        <ele>1519.2</ele>
        <time>2019-07-05T15:04:17Z</time>
      </trkpt>
      <trkpt lat="40.5023680" lon="-1.8442480">
        <ele>1520.2</ele>
        <time>2019-07-05T15:04:23Z</time>
      </trkpt>
      <trkpt lat="40.5024790" lon="-1.8443360">
        <ele>1521.2</ele>
        <time>2019-07-05T15:04:27Z</time>
      </trkpt>
      <trkpt lat="40.5025990" lon="-1.8444150">
        <ele>1522.2</ele>
        <time>2019-07-05T15:04:31Z</time>
      </trkpt>
      <trkpt lat="40.5027450" lon="-1.8445100">
        <ele>1522.8</ele>
        <time>2019-07-05T15:04:36Z</time>
      </trkpt>
      <trkpt lat="40.5028040" lon="-1.8445450">
        <ele>1523.6</ele>
        <time>2019-07-05T15:04:38Z</time>
      </trkpt>
      <trkpt lat="40.5029750" lon="-1.8446620">
        <ele>1524.8</ele>
        <time>2019-07-05T15:04:44Z</time>
      </trkpt>
      <trkpt lat="40.5030020" lon="-1.8446840">
        <ele>1525.0</ele>
        <time>2019-07-05T15:04:45Z</time>
      </trkpt>
      <trkpt lat="40.5031340" lon="-1.8448030">
        <ele>1525.8</ele>
        <time>2019-07-05T15:04:50Z</time>
      </trkpt>
      <trkpt lat="40.5032540" lon="-1.8449210">
        <ele>1526.8</ele>
        <time>2019-07-05T15:04:55Z</time>
      </trkpt>
      <trkpt lat="40.5033910" lon="-1.8450610">
        <ele>1528.0</ele>
        <time>2019-07-05T15:05:01Z</time>
      </trkpt>
      <trkpt lat="40.5034790" lon="-1.8451540">
        <ele>1529.4</ele>
        <time>2019-07-05T15:05:05Z</time>
      </trkpt>
      <trkpt lat="40.5035200" lon="-1.8451990">
        <ele>1529.6</ele>
        <time>2019-07-05T15:05:07Z</time>
      </trkpt>
      <trkpt lat="40.5036040" lon="-1.8452900">
        <ele>1530.4</ele>
        <time>2019-07-05T15:05:11Z</time>
      </trkpt>
      <trkpt lat="40.5036680" lon="-1.8453590">
        <ele>1531.6</ele>
        <time>2019-07-05T15:05:14Z</time>
      </trkpt>
      <trkpt lat="40.5036890" lon="-1.8453840">
        <ele>1532.0</ele>
        <time>2019-07-05T15:05:15Z</time>
      </trkpt>
      <trkpt lat="40.5037930" lon="-1.8455110">
        <ele>1532.8</ele>
        <time>2019-07-05T15:05:20Z</time>
      </trkpt>
      <trkpt lat="40.5038810" lon="-1.8456060">
        <ele>1533.8</ele>
        <time>2019-07-05T15:05:24Z</time>
      </trkpt>
      <trkpt lat="40.5040740" lon="-1.8457830">
        <ele>1534.6</ele>
        <time>2019-07-05T15:05:32Z</time>
      </trkpt>
      <trkpt lat="40.5041000" lon="-1.8458040">
        <ele>1535.0</ele>
        <time>2019-07-05T15:05:33Z</time>
      </trkpt>
      <trkpt lat="40.5042040" lon="-1.8458910">
        <ele>1536.0</ele>
        <time>2019-07-05T15:05:37Z</time>
      </trkpt>
      <trkpt lat="40.5043050" lon="-1.8459590">
        <ele>1536.4</ele>
        <time>2019-07-05T15:05:41Z</time>
      </trkpt>
      <trkpt lat="40.5043560" lon="-1.8459930">
        <ele>1537.4</ele>
        <time>2019-07-05T15:05:43Z</time>
      </trkpt>
      <trkpt lat="40.5044870" lon="-1.8460720">
        <ele>1538.4</ele>
        <time>2019-07-05T15:05:48Z</time>
      </trkpt>
      <trkpt lat="40.5045410" lon="-1.8461020">
        <ele>1538.6</ele>
        <time>2019-07-05T15:05:50Z</time>
      </trkpt>
      <trkpt lat="40.5046440" lon="-1.8461740">
        <ele>1539.4</ele>
        <time>2019-07-05T15:05:54Z</time>
      </trkpt>
      <trkpt lat="40.5047450" lon="-1.8462510">
        <ele>1540.2</ele>
        <time>2019-07-05T15:05:58Z</time>
      </trkpt>
      <trkpt lat="40.5047940" lon="-1.8462950">
        <ele>1540.4</ele>
        <time>2019-07-05T15:06:00Z</time>
      </trkpt>
      <trkpt lat="40.5049240" lon="-1.8463990">
        <ele>1541.4</ele>
        <time>2019-07-05T15:06:05Z</time>
      </trkpt>
      <trkpt lat="40.5049510" lon="-1.8464150">
        <ele>1541.6</ele>
        <time>2019-07-05T15:06:06Z</time>
      </trkpt>
      <trkpt lat="40.5050570" lon="-1.8464700">
        <ele>1542.6</ele>
        <time>2019-07-05T15:06:10Z</time>
      </trkpt>
      <trkpt lat="40.5051300" lon="-1.8465130">
        <ele>1543.4</ele>
        <time>2019-07-05T15:06:13Z</time>
      </trkpt>
      <trkpt lat="40.5051540" lon="-1.8465270">
        <ele>1543.8</ele>
        <time>2019-07-05T15:06:14Z</time>
      </trkpt>
      <trkpt lat="40.5052460" lon="-1.8465840">
        <ele>1544.8</ele>
        <time>2019-07-05T15:06:18Z</time>
      </trkpt>
      <trkpt lat="40.5053770" lon="-1.8466970">
        <ele>1546.2</ele>
        <time>2019-07-05T15:06:24Z</time>
      </trkpt>
      <trkpt lat="40.5054790" lon="-1.8468050">
        <ele>1547.4</ele>
        <time>2019-07-05T15:06:29Z</time>
      </trkpt>
      <trkpt lat="40.5055690" lon="-1.8468800">
        <ele>1548.2</ele>
        <time>2019-07-05T15:06:33Z</time>
      </trkpt>
      <trkpt lat="40.5056950" lon="-1.8469400">
        <ele>1548.4</ele>
        <time>2019-07-05T15:06:38Z</time>
      </trkpt>
      <trkpt lat="40.5057750" lon="-1.8469510">
        <ele>1549.2</ele>
        <time>2019-07-05T15:06:41Z</time>
      </trkpt>
      <trkpt lat="40.5058000" lon="-1.8469510">
        <ele>1549.6</ele>
        <time>2019-07-05T15:06:42Z</time>
      </trkpt>
      <trkpt lat="40.5059790" lon="-1.8469120">
        <ele>1550.8</ele>
        <time>2019-07-05T15:06:49Z</time>
      </trkpt>
      <trkpt lat="40.5061470" lon="-1.8468480">
        <ele>1551.8</ele>
        <time>2019-07-05T15:06:56Z</time>
      </trkpt>
      <trkpt lat="40.5061950" lon="-1.8468370">
        <ele>1552.8</ele>
        <time>2019-07-05T15:06:58Z</time>
      </trkpt>
      <trkpt lat="40.5062200" lon="-1.8468340">
        <ele>1553.0</ele>
        <time>2019-07-05T15:06:59Z</time>
      </trkpt>
      <trkpt lat="40.5063680" lon="-1.8468400">
        <ele>1554.2</ele>
        <time>2019-07-05T15:07:05Z</time>
      </trkpt>
      <trkpt lat="40.5064160" lon="-1.8468510">
        <ele>1554.4</ele>
        <time>2019-07-05T15:07:07Z</time>
      </trkpt>
      <trkpt lat="40.5064390" lon="-1.8468530">
        <ele>1554.8</ele>
        <time>2019-07-05T15:07:08Z</time>
      </trkpt>
      <trkpt lat="40.5064850" lon="-1.8468630">
        <ele>1555.4</ele>
        <time>2019-07-05T15:07:10Z</time>
      </trkpt>
      <trkpt lat="40.5065570" lon="-1.8468810">
        <ele>1556.6</ele>
        <time>2019-07-05T15:07:13Z</time>
      </trkpt>
      <trkpt lat="40.5066280" lon="-1.8468930">
        <ele>1557.0</ele>
        <time>2019-07-05T15:07:16Z</time>
      </trkpt>
      <trkpt lat="40.5067510" lon="-1.8469100">
        <ele>1557.6</ele>
        <time>2019-07-05T15:07:21Z</time>
      </trkpt>
      <trkpt lat="40.5068520" lon="-1.8469160">
        <ele>1557.8</ele>
        <time>2019-07-05T15:07:25Z</time>
      </trkpt>
      <trkpt lat="40.5070110" lon="-1.8469420">
        <ele>1558.6</ele>
        <time>2019-07-05T15:07:31Z</time>
      </trkpt>
      <trkpt lat="40.5070620" lon="-1.8469580">
        <ele>1559.0</ele>
        <time>2019-07-05T15:07:33Z</time>
      </trkpt>
      <trkpt lat="40.5071360" lon="-1.8469920">
        <ele>1559.8</ele>
        <time>2019-07-05T15:07:36Z</time>
      </trkpt>
      <trkpt lat="40.5072580" lon="-1.8470600">
        <ele>1561.2</ele>
        <time>2019-07-05T15:07:41Z</time>
      </trkpt>
      <trkpt lat="40.5074450" lon="-1.8471690">
        <ele>1562.4</ele>
        <time>2019-07-05T15:07:49Z</time>
      </trkpt>
      <trkpt lat="40.5075670" lon="-1.8471980">
        <ele>1563.8</ele>
        <time>2019-07-05T15:07:54Z</time>
      </trkpt>
      <trkpt lat="40.5076170" lon="-1.8471990">
        <ele>1563.6</ele>
        <time>2019-07-05T15:07:56Z</time>
      </trkpt>
      <trkpt lat="40.5077670" lon="-1.8471950">
        <ele>1565.0</ele>
        <time>2019-07-05T15:08:02Z</time>
      </trkpt>
      <trkpt lat="40.5078170" lon="-1.8472010">
        <ele>1566.2</ele>
        <time>2019-07-05T15:08:04Z</time>
      </trkpt>
      <trkpt lat="40.5078420" lon="-1.8472060">
        <ele>1566.8</ele>
        <time>2019-07-05T15:08:05Z</time>
      </trkpt>
      <trkpt lat="40.5078660" lon="-1.8472120">
        <ele>1567.2</ele>
        <time>2019-07-05T15:08:06Z</time>
      </trkpt>
      <trkpt lat="40.5079180" lon="-1.8472230">
        <ele>1567.6</ele>
        <time>2019-07-05T15:08:08Z</time>
      </trkpt>
      <trkpt lat="40.5079940" lon="-1.8472440">
        <ele>1568.2</ele>
        <time>2019-07-05T15:08:11Z</time>
      </trkpt>
      <trkpt lat="40.5080440" lon="-1.8472610">
        <ele>1568.4</ele>
        <time>2019-07-05T15:08:13Z</time>
      </trkpt>
      <trkpt lat="40.5081880" lon="-1.8472870">
        <ele>1569.4</ele>
        <time>2019-07-05T15:08:19Z</time>
      </trkpt>
      <trkpt lat="40.5082380" lon="-1.8472940">
        <ele>1569.8</ele>
        <time>2019-07-05T15:08:21Z</time>
      </trkpt>
      <trkpt lat="40.5083120" lon="-1.8473030">
        <ele>1570.6</ele>
        <time>2019-07-05T15:08:24Z</time>
      </trkpt>
      <trkpt lat="40.5083840" lon="-1.8473110">
        <ele>1571.8</ele>
        <time>2019-07-05T15:08:27Z</time>
      </trkpt>
      <trkpt lat="40.5084310" lon="-1.8473140">
        <ele>1572.2</ele>
        <time>2019-07-05T15:08:29Z</time>
      </trkpt>
      <trkpt lat="40.5085480" lon="-1.8473390">
        <ele>1573.2</ele>
        <time>2019-07-05T15:08:34Z</time>
      </trkpt>
      <trkpt lat="40.5086170" lon="-1.8473560">
        <ele>1573.6</ele>
        <time>2019-07-05T15:08:37Z</time>
      </trkpt>
      <trkpt lat="40.5087310" lon="-1.8473910">
        <ele>1574.4</ele>
        <time>2019-07-05T15:08:42Z</time>
      </trkpt>
      <trkpt lat="40.5088010" lon="-1.8474080">
        <ele>1575.4</ele>
        <time>2019-07-05T15:08:45Z</time>
      </trkpt>
      <trkpt lat="40.5088940" lon="-1.8474450">
        <ele>1576.4</ele>
        <time>2019-07-05T15:08:49Z</time>
      </trkpt>
      <trkpt lat="40.5089630" lon="-1.8474750">
        <ele>1577.6</ele>
        <time>2019-07-05T15:08:52Z</time>
      </trkpt>
      <trkpt lat="40.5089860" lon="-1.8474840">
        <ele>1577.8</ele>
        <time>2019-07-05T15:08:53Z</time>
      </trkpt>
      <trkpt lat="40.5090740" lon="-1.8475230">
        <ele>1578.6</ele>
        <time>2019-07-05T15:08:57Z</time>
      </trkpt>
      <trkpt lat="40.5091380" lon="-1.8475440">
        <ele>1579.2</ele>
        <time>2019-07-05T15:09:00Z</time>
      </trkpt>
      <trkpt lat="40.5091800" lon="-1.8475640">
        <ele>1579.6</ele>
        <time>2019-07-05T15:09:02Z</time>
      </trkpt>
      <trkpt lat="40.5092520" lon="-1.8475710">
        <ele>1581.0</ele>
        <time>2019-07-05T15:09:05Z</time>
      </trkpt>
      <trkpt lat="40.5093940" lon="-1.8475940">
        <ele>1582.0</ele>
        <time>2019-07-05T15:09:11Z</time>
      </trkpt>
      <trkpt lat="40.5094180" lon="-1.8476000">
        <ele>1582.2</ele>
        <time>2019-07-05T15:09:12Z</time>
      </trkpt>
      <trkpt lat="40.5095090" lon="-1.8476240">
        <ele>1583.6</ele>
        <time>2019-07-05T15:09:16Z</time>
      </trkpt>
      <trkpt lat="40.5095710" lon="-1.8476430">
        <ele>1584.4</ele>
        <time>2019-07-05T15:09:19Z</time>
      </trkpt>
      <trkpt lat="40.5095920" lon="-1.8476470">
        <ele>1584.6</ele>
        <time>2019-07-05T15:09:20Z</time>
      </trkpt>
      <trkpt lat="40.5096780" lon="-1.8476630">
        <ele>1585.8</ele>
        <time>2019-07-05T15:09:24Z</time>
      </trkpt>
      <trkpt lat="40.5097470" lon="-1.8476700">
        <ele>1586.4</ele>
        <time>2019-07-05T15:09:27Z</time>
      </trkpt>
      <trkpt lat="40.5097910" lon="-1.8476790">
        <ele>1586.6</ele>
        <time>2019-07-05T15:09:29Z</time>
      </trkpt>
      <trkpt lat="40.5099190" lon="-1.8477150">
        <ele>1587.6</ele>
        <time>2019-07-05T15:09:35Z</time>
      </trkpt>
      <trkpt lat="40.5099410" lon="-1.8477220">
        <ele>1588.0</ele>
        <time>2019-07-05T15:09:36Z</time>
      </trkpt>
      <trkpt lat="40.5100040" lon="-1.8477420">
        <ele>1589.0</ele>
        <time>2019-07-05T15:09:39Z</time>
      </trkpt>
      <trkpt lat="40.5100680" lon="-1.8477610">
        <ele>1589.8</ele>
        <time>2019-07-05T15:09:42Z</time>
      </trkpt>
      <trkpt lat="40.5100890" lon="-1.8477690">
        <ele>1590.2</ele>
        <time>2019-07-05T15:09:43Z</time>
      </trkpt>
      <trkpt lat="40.5101490" lon="-1.8477800">
        <ele>1591.4</ele>
        <time>2019-07-05T15:09:46Z</time>
      </trkpt>
      <trkpt lat="40.5102100" lon="-1.8477990">
        <ele>1592.0</ele>
        <time>2019-07-05T15:09:49Z</time>
      </trkpt>
      <trkpt lat="40.5102530" lon="-1.8478030">
        <ele>1592.4</ele>
        <time>2019-07-05T15:09:51Z</time>
      </trkpt>
      <trkpt lat="40.5103610" lon="-1.8478250">
        <ele>1593.6</ele>
        <time>2019-07-05T15:09:56Z</time>
      </trkpt>
      <trkpt lat="40.5104050" lon="-1.8478340">
        <ele>1594.0</ele>
        <time>2019-07-05T15:09:58Z</time>
      </trkpt>
      <trkpt lat="40.5104710" lon="-1.8478490">
        <ele>1594.8</ele>
        <time>2019-07-05T15:10:01Z</time>
      </trkpt>
      <trkpt lat="40.5105820" lon="-1.8478910">
        <ele>1596.0</ele>
        <time>2019-07-05T15:10:06Z</time>
      </trkpt>
      <trkpt lat="40.5106040" lon="-1.8478990">
        <ele>1596.2</ele>
        <time>2019-07-05T15:10:07Z</time>
      </trkpt>
      <trkpt lat="40.5107140" lon="-1.8479390">
        <ele>1597.2</ele>
        <time>2019-07-05T15:10:12Z</time>
      </trkpt>
      <trkpt lat="40.5107830" lon="-1.8479660">
        <ele>1598.0</ele>
        <time>2019-07-05T15:10:15Z</time>
      </trkpt>
      <trkpt lat="40.5108050" lon="-1.8479740">
        <ele>1598.2</ele>
        <time>2019-07-05T15:10:16Z</time>
      </trkpt>
      <trkpt lat="40.5109600" lon="-1.8480370">
        <ele>1598.8</ele>
        <time>2019-07-05T15:10:22Z</time>
      </trkpt>
      <trkpt lat="40.5110110" lon="-1.8480600">
        <ele>1599.4</ele>
        <time>2019-07-05T15:10:24Z</time>
      </trkpt>
      <trkpt lat="40.5110610" lon="-1.8480760">
        <ele>1600.4</ele>
        <time>2019-07-05T15:10:26Z</time>
      </trkpt>
      <trkpt lat="40.5111360" lon="-1.8480940">
        <ele>1601.0</ele>
        <time>2019-07-05T15:10:29Z</time>
      </trkpt>
      <trkpt lat="40.5111610" lon="-1.8480990">
        <ele>1601.2</ele>
        <time>2019-07-05T15:10:30Z</time>
      </trkpt>
      <trkpt lat="40.5112330" lon="-1.8481150">
        <ele>1601.6</ele>
        <time>2019-07-05T15:10:33Z</time>
      </trkpt>
      <trkpt lat="40.5113070" lon="-1.8481340">
        <ele>1602.6</ele>
        <time>2019-07-05T15:10:36Z</time>
      </trkpt>
      <trkpt lat="40.5113780" lon="-1.8481510">
        <ele>1603.6</ele>
        <time>2019-07-05T15:10:39Z</time>
      </trkpt>
      <trkpt lat="40.5115010" lon="-1.8481840">
        <ele>1604.0</ele>
        <time>2019-07-05T15:10:44Z</time>
      </trkpt>
      <trkpt lat="40.5115730" lon="-1.8481950">
        <ele>1604.8</ele>
        <time>2019-07-05T15:10:47Z</time>
      </trkpt>
      <trkpt lat="40.5117000" lon="-1.8482050">
        <ele>1605.2</ele>
        <time>2019-07-05T15:10:52Z</time>
      </trkpt>
      <trkpt lat="40.5118770" lon="-1.8481640">
        <ele>1606.0</ele>
        <time>2019-07-05T15:10:59Z</time>
      </trkpt>
      <trkpt lat="40.5119530" lon="-1.8481470">
        <ele>1606.8</ele>
        <time>2019-07-05T15:11:02Z</time>
      </trkpt>
      <trkpt lat="40.5119800" lon="-1.8481450">
        <ele>1607.4</ele>
        <time>2019-07-05T15:11:03Z</time>
      </trkpt>
      <trkpt lat="40.5121030" lon="-1.8481740">
        <ele>1608.0</ele>
        <time>2019-07-05T15:11:08Z</time>
      </trkpt>
      <trkpt lat="40.5121390" lon="-1.8481990">
        <ele>1608.2</ele>
        <time>2019-07-05T15:11:10Z</time>
      </trkpt>
      <trkpt lat="40.5121870" lon="-1.8482380">
        <ele>1609.6</ele>
        <time>2019-07-05T15:11:13Z</time>
      </trkpt>
      <trkpt lat="40.5122140" lon="-1.8482570">
        <ele>1610.6</ele>
        <time>2019-07-05T15:11:15Z</time>
      </trkpt>
      <trkpt lat="40.5122250" lon="-1.8482680">
        <ele>1611.0</ele>
        <time>2019-07-05T15:11:16Z</time>
      </trkpt>
      <trkpt lat="40.5122760" lon="-1.8483250">
        <ele>1612.4</ele>
        <time>2019-07-05T15:11:20Z</time>
      </trkpt>
      <trkpt lat="40.5122910" lon="-1.8483360">
        <ele>1612.6</ele>
        <time>2019-07-05T15:11:21Z</time>
      </trkpt>
      <trkpt lat="40.5123940" lon="-1.8483990">
        <ele>1613.8</ele>
        <time>2019-07-05T15:11:28Z</time>
      </trkpt>
      <trkpt lat="40.5124090" lon="-1.8484080">
        <ele>1614.2</ele>
        <time>2019-07-05T15:11:29Z</time>
      </trkpt>
      <trkpt lat="40.5124700" lon="-1.8484440">
        <ele>1615.0</ele>
        <time>2019-07-05T15:11:33Z</time>
      </trkpt>
      <trkpt lat="40.5125400" lon="-1.8485050">
        <ele>1616.0</ele>
        <time>2019-07-05T15:11:38Z</time>
      </trkpt>
      <trkpt lat="40.5126080" lon="-1.8485820">
        <ele>1617.0</ele>
        <time>2019-07-05T15:11:43Z</time>
      </trkpt>
      <trkpt lat="40.5126390" lon="-1.8486370">
        <ele>1617.6</ele>
        <time>2019-07-05T15:11:46Z</time>
      </trkpt>
      <trkpt lat="40.5126560" lon="-1.8486750">
        <ele>1617.8</ele>
        <time>2019-07-05T15:11:48Z</time>
      </trkpt>
      <trkpt lat="40.5126620" lon="-1.8486970">
        <ele>1618.0</ele>
        <time>2019-07-05T15:11:49Z</time>
      </trkpt>
      <trkpt lat="40.5126740" lon="-1.8487680">
        <ele>1618.4</ele>
        <time>2019-07-05T15:11:52Z</time>
      </trkpt>
      <trkpt lat="40.5126770" lon="-1.8488610">
        <ele>1619.0</ele>
        <time>2019-07-05T15:11:56Z</time>
      </trkpt>
      <trkpt lat="40.5126800" lon="-1.8489290">
        <ele>1619.6</ele>
        <time>2019-07-05T15:11:59Z</time>
      </trkpt>
      <trkpt lat="40.5126800" lon="-1.8489740">
        <ele>1620.0</ele>
        <time>2019-07-05T15:12:01Z</time>
      </trkpt>
      <trkpt lat="40.5126930" lon="-1.8490680">
        <ele>1621.4</ele>
        <time>2019-07-05T15:12:05Z</time>
      </trkpt>
      <trkpt lat="40.5127360" lon="-1.8491820">
        <ele>1622.6</ele>
        <time>2019-07-05T15:12:10Z</time>
      </trkpt>
      <trkpt lat="40.5127590" lon="-1.8492250">
        <ele>1623.0</ele>
        <time>2019-07-05T15:12:12Z</time>
      </trkpt>
      <trkpt lat="40.5128000" lon="-1.8493150">
        <ele>1623.8</ele>
        <time>2019-07-05T15:12:16Z</time>
      </trkpt>
      <trkpt lat="40.5128240" lon="-1.8493760">
        <ele>1625.0</ele>
        <time>2019-07-05T15:12:19Z</time>
      </trkpt>
      <trkpt lat="40.5128290" lon="-1.8494000">
        <ele>1625.0</ele>
        <time>2019-07-05T15:12:20Z</time>
      </trkpt>
      <trkpt lat="40.5128510" lon="-1.8495490">
        <ele>1626.2</ele>
        <time>2019-07-05T15:12:26Z</time>
      </trkpt>
      <trkpt lat="40.5128510" lon="-1.8495740">
        <ele>1626.2</ele>
        <time>2019-07-05T15:12:27Z</time>
      </trkpt>
      <trkpt lat="40.5128270" lon="-1.8497100">
        <ele>1627.2</ele>
        <time>2019-07-05T15:12:32Z</time>
      </trkpt>
      <trkpt lat="40.5128210" lon="-1.8497400">
        <ele>1627.2</ele>
        <time>2019-07-05T15:12:33Z</time>
      </trkpt>
      <trkpt lat="40.5127480" lon="-1.8499800">
        <ele>1627.8</ele>
        <time>2019-07-05T15:12:40Z</time>
      </trkpt>
      <trkpt lat="40.5127110" lon="-1.8500660">
        <ele>1628.0</ele>
        <time>2019-07-05T15:12:42Z</time>
      </trkpt>
      <trkpt lat="40.5126440" lon="-1.8501760">
        <ele>1627.6</ele>
        <time>2019-07-05T15:12:45Z</time>
      </trkpt>
      <trkpt lat="40.5124670" lon="-1.8503310">
        <ele>1628.6</ele>
        <time>2019-07-05T15:12:52Z</time>
      </trkpt>
      <trkpt lat="40.5123200" lon="-1.8503770">
        <ele>1628.8</ele>
        <time>2019-07-05T15:12:57Z</time>
      </trkpt>
      <trkpt lat="40.5122920" lon="-1.8503830">
        <ele>1629.0</ele>
        <time>2019-07-05T15:12:58Z</time>
      </trkpt>
      <trkpt lat="40.5122660" lon="-1.8503880">
        <ele>1629.2</ele>
        <time>2019-07-05T15:12:59Z</time>
      </trkpt>
      <trkpt lat="40.5121550" lon="-1.8504000">
        <ele>1629.0</ele>
        <time>2019-07-05T15:13:03Z</time>
      </trkpt>
      <trkpt lat="40.5120900" lon="-1.8504120">
        <ele>1629.2</ele>
        <time>2019-07-05T15:13:05Z</time>
      </trkpt>
      <trkpt lat="40.5119110" lon="-1.8504310">
        <ele>1630.2</ele>
        <time>2019-07-05T15:13:10Z</time>
      </trkpt>
      <trkpt lat="40.5118020" lon="-1.8504450">
        <ele>1630.8</ele>
        <time>2019-07-05T15:13:13Z</time>
      </trkpt>
      <trkpt lat="40.5115130" lon="-1.8505460">
        <ele>1631.2</ele>
        <time>2019-07-05T15:13:21Z</time>
      </trkpt>
      <trkpt lat="40.5114830" lon="-1.8505840">
        <ele>1631.2</ele>
        <time>2019-07-05T15:13:22Z</time>
      </trkpt>
      <trkpt lat="40.5114210" lon="-1.8507570">
        <ele>1630.8</ele>
        <time>2019-07-05T15:13:25Z</time>
      </trkpt>
      <trkpt lat="40.5114070" lon="-1.8508290">
        <ele>1630.2</ele>
        <time>2019-07-05T15:13:26Z</time>
      </trkpt>
      <trkpt lat="40.5113940" lon="-1.8509080">
        <ele>1629.6</ele>
        <time>2019-07-05T15:13:27Z</time>
      </trkpt>
      <trkpt lat="40.5113720" lon="-1.8510780">
        <ele>1628.6</ele>
        <time>2019-07-05T15:13:29Z</time>
      </trkpt>
      <trkpt lat="40.5113580" lon="-1.8511680">
        <ele>1628.4</ele>
        <time>2019-07-05T15:13:30Z</time>
      </trkpt>
      <trkpt lat="40.5113320" lon="-1.8513510">
        <ele>1627.0</ele>
        <time>2019-07-05T15:13:32Z</time>
      </trkpt>
      <trkpt lat="40.5113050" lon="-1.8515290">
        <ele>1626.2</ele>
        <time>2019-07-05T15:13:34Z</time>
      </trkpt>
      <trkpt lat="40.5112770" lon="-1.8516860">
        <ele>1626.0</ele>
        <time>2019-07-05T15:13:36Z</time>
      </trkpt>
      <trkpt lat="40.5112610" lon="-1.8517440">
        <ele>1625.8</ele>
        <time>2019-07-05T15:13:37Z</time>
      </trkpt>
      <trkpt lat="40.5112160" lon="-1.8518500">
        <ele>1626.0</ele>
        <time>2019-07-05T15:13:40Z</time>
      </trkpt>
      <trkpt lat="40.5111990" lon="-1.8518680">
        <ele>1625.8</ele>
        <time>2019-07-05T15:13:43Z</time>
      </trkpt>
      <trkpt lat="40.5112240" lon="-1.8519040">
        <ele>1624.6</ele>
        <time>2019-07-05T15:14:06Z</time>
      </trkpt>
      <trkpt lat="40.5112470" lon="-1.8519120">
        <ele>1624.4</ele>
        <time>2019-07-05T15:14:07Z</time>
      </trkpt>
      <trkpt lat="40.5113470" lon="-1.8518920">
        <ele>1623.6</ele>
        <time>2019-07-05T15:14:10Z</time>
      </trkpt>
      <trkpt lat="40.5113830" lon="-1.8518740">
        <ele>1623.2</ele>
        <time>2019-07-05T15:14:11Z</time>
      </trkpt>
      <trkpt lat="40.5116030" lon="-1.8517910">
        <ele>1622.6</ele>
        <time>2019-07-05T15:14:16Z</time>
      </trkpt>
      <trkpt lat="40.5118970" lon="-1.8517050">
        <ele>1622.2</ele>
        <time>2019-07-05T15:14:22Z</time>
      </trkpt>
      <trkpt lat="40.5119480" lon="-1.8516890">
        <ele>1622.0</ele>
        <time>2019-07-05T15:14:23Z</time>
      </trkpt>
      <trkpt lat="40.5120560" lon="-1.8516560">
        <ele>1621.6</ele>
        <time>2019-07-05T15:14:25Z</time>
      </trkpt>
      <trkpt lat="40.5122650" lon="-1.8516080">
        <ele>1621.2</ele>
        <time>2019-07-05T15:14:29Z</time>
      </trkpt>
      <trkpt lat="40.5123110" lon="-1.8515990">
        <ele>1621.0</ele>
        <time>2019-07-05T15:14:30Z</time>
      </trkpt>
      <trkpt lat="40.5124470" lon="-1.8515770">
        <ele>1619.6</ele>
        <time>2019-07-05T15:14:33Z</time>
      </trkpt>
      <trkpt lat="40.5125500" lon="-1.8515580">
        <ele>1618.4</ele>
        <time>2019-07-05T15:14:35Z</time>
      </trkpt>
      <trkpt lat="40.5126450" lon="-1.8514920">
        <ele>1617.2</ele>
        <time>2019-07-05T15:14:38Z</time>
      </trkpt>
      <trkpt lat="40.5127590" lon="-1.8514940">
        <ele>1616.6</ele>
        <time>2019-07-05T15:14:42Z</time>
      </trkpt>
      <trkpt lat="40.5127870" lon="-1.8514990">
        <ele>1616.0</ele>
        <time>2019-07-05T15:14:43Z</time>
      </trkpt>
      <trkpt lat="40.5128450" lon="-1.8515110">
        <ele>1615.0</ele>
        <time>2019-07-05T15:14:46Z</time>
      </trkpt>
      <trkpt lat="40.5129650" lon="-1.8515130">
        <ele>1613.8</ele>
        <time>2019-07-05T15:14:51Z</time>
      </trkpt>
      <trkpt lat="40.5130840" lon="-1.8514740">
        <ele>1612.6</ele>
        <time>2019-07-05T15:14:56Z</time>
      </trkpt>
      <trkpt lat="40.5131140" lon="-1.8514620">
        <ele>1612.2</ele>
        <time>2019-07-05T15:14:57Z</time>
      </trkpt>
      <trkpt lat="40.5132330" lon="-1.8514480">
        <ele>1611.2</ele>
        <time>2019-07-05T15:15:01Z</time>
      </trkpt>
      <trkpt lat="40.5132550" lon="-1.8514430">
        <ele>1611.0</ele>
        <time>2019-07-05T15:15:02Z</time>
      </trkpt>
      <trkpt lat="40.5133820" lon="-1.8514260">
        <ele>1610.0</ele>
        <time>2019-07-05T15:15:06Z</time>
      </trkpt>
      <trkpt lat="40.5134210" lon="-1.8514220">
        <ele>1609.8</ele>
        <time>2019-07-05T15:15:07Z</time>
      </trkpt>
      <trkpt lat="40.5134930" lon="-1.8514250">
        <ele>1609.0</ele>
        <time>2019-07-05T15:15:09Z</time>
      </trkpt>
      <trkpt lat="40.5135470" lon="-1.8514340">
        <ele>1607.2</ele>
        <time>2019-07-05T15:15:11Z</time>
      </trkpt>
      <trkpt lat="40.5135710" lon="-1.8514350">
        <ele>1606.6</ele>
        <time>2019-07-05T15:15:12Z</time>
      </trkpt>
      <trkpt lat="40.5135970" lon="-1.8514350">
        <ele>1606.2</ele>
        <time>2019-07-05T15:15:13Z</time>
      </trkpt>
      <trkpt lat="40.5136500" lon="-1.8514330">
        <ele>1605.0</ele>
        <time>2019-07-05T15:15:15Z</time>
      </trkpt>
      <trkpt lat="40.5136710" lon="-1.8514390">
        <ele>1604.8</ele>
        <time>2019-07-05T15:15:16Z</time>
      </trkpt>
      <trkpt lat="40.5136910" lon="-1.8514680">
        <ele>1604.2</ele>
        <time>2019-07-05T15:15:18Z</time>
      </trkpt>
      <trkpt lat="40.5136920" lon="-1.8514890">
        <ele>1604.0</ele>
        <time>2019-07-05T15:15:19Z</time>
      </trkpt>
      <trkpt lat="40.5136590" lon="-1.8515650">
        <ele>1603.8</ele>
        <time>2019-07-05T15:15:22Z</time>
      </trkpt>
      <trkpt lat="40.5136420" lon="-1.8515890">
        <ele>1603.6</ele>
        <time>2019-07-05T15:15:23Z</time>
      </trkpt>
      <trkpt lat="40.5136270" lon="-1.8516110">
        <ele>1603.6</ele>
        <time>2019-07-05T15:15:24Z</time>
      </trkpt>
      <trkpt lat="40.5136170" lon="-1.8516300">
        <ele>1603.6</ele>
        <time>2019-07-05T15:15:25Z</time>
      </trkpt>
      <trkpt lat="40.5136130" lon="-1.8516450">
        <ele>1603.6</ele>
        <time>2019-07-05T15:15:27Z</time>
      </trkpt>
      <trkpt lat="40.5136120" lon="-1.8516460">
        <ele>1603.6</ele>
        <time>2019-07-05T15:15:28Z</time>
      </trkpt>
      <trkpt lat="40.5136840" lon="-1.8517570">
        <ele>1601.8</ele>
        <time>2019-07-05T15:15:47Z</time>
      </trkpt>
      <trkpt lat="40.5136950" lon="-1.8517710">
        <ele>1601.4</ele>
        <time>2019-07-05T15:15:48Z</time>
      </trkpt>
      <trkpt lat="40.5137190" lon="-1.8517890">
        <ele>1601.0</ele>
        <time>2019-07-05T15:15:50Z</time>
      </trkpt>
      <trkpt lat="40.5137330" lon="-1.8517940">
        <ele>1600.6</ele>
        <time>2019-07-05T15:15:51Z</time>
      </trkpt>
      <trkpt lat="40.5137740" lon="-1.8518140">
        <ele>1599.6</ele>
        <time>2019-07-05T15:15:54Z</time>
      </trkpt>
      <trkpt lat="40.5138220" lon="-1.8518740">
        <ele>1599.0</ele>
        <time>2019-07-05T15:15:58Z</time>
      </trkpt>
      <trkpt lat="40.5138590" lon="-1.8519050">
        <ele>1598.4</ele>
        <time>2019-07-05T15:16:01Z</time>
      </trkpt>
      <trkpt lat="40.5138880" lon="-1.8519330">
        <ele>1597.2</ele>
        <time>2019-07-05T15:16:04Z</time>
      </trkpt>
      <trkpt lat="40.5139350" lon="-1.8519680">
        <ele>1596.0</ele>
        <time>2019-07-05T15:16:08Z</time>
      </trkpt>
      <trkpt lat="40.5139590" lon="-1.8519810">
        <ele>1594.8</ele>
        <time>2019-07-05T15:16:10Z</time>
      </trkpt>
      <trkpt lat="40.5139810" lon="-1.8519990">
        <ele>1593.8</ele>
        <time>2019-07-05T15:16:14Z</time>
      </trkpt>
      <trkpt lat="40.5140090" lon="-1.8520220">
        <ele>1593.6</ele>
        <time>2019-07-05T15:16:19Z</time>
      </trkpt>
      <trkpt lat="40.5140800" lon="-1.8521030">
        <ele>1592.6</ele>
        <time>2019-07-05T15:16:25Z</time>
      </trkpt>
      <trkpt lat="40.5141110" lon="-1.8521450">
        <ele>1591.8</ele>
        <time>2019-07-05T15:16:28Z</time>
      </trkpt>
      <trkpt lat="40.5141250" lon="-1.8521480">
        <ele>1591.4</ele>
        <time>2019-07-05T15:16:29Z</time>
      </trkpt>
      <trkpt lat="40.5141390" lon="-1.8521490">
        <ele>1591.2</ele>
        <time>2019-07-05T15:16:30Z</time>
      </trkpt>
      <trkpt lat="40.5141810" lon="-1.8521410">
        <ele>1590.4</ele>
        <time>2019-07-05T15:16:33Z</time>
      </trkpt>
      <trkpt lat="40.5142180" lon="-1.8521030">
        <ele>1590.6</ele>
        <time>2019-07-05T15:16:36Z</time>
      </trkpt>
      <trkpt lat="40.5142510" lon="-1.8520660">
        <ele>1590.2</ele>
        <time>2019-07-05T15:16:39Z</time>
      </trkpt>
      <trkpt lat="40.5142940" lon="-1.8520610">
        <ele>1589.4</ele>
        <time>2019-07-05T15:16:42Z</time>
      </trkpt>
      <trkpt lat="40.5143060" lon="-1.8520570">
        <ele>1589.0</ele>
        <time>2019-07-05T15:16:43Z</time>
      </trkpt>
      <trkpt lat="40.5143420" lon="-1.8520780">
        <ele>1588.2</ele>
        <time>2019-07-05T15:16:48Z</time>
      </trkpt>
      <trkpt lat="40.5143440" lon="-1.8520860">
        <ele>1588.0</ele>
        <time>2019-07-05T15:16:49Z</time>
      </trkpt>
      <trkpt lat="40.5143620" lon="-1.8520980">
        <ele>1587.0</ele>
        <time>2019-07-05T15:16:53Z</time>
      </trkpt>
      <trkpt lat="40.5143660" lon="-1.8521040">
        <ele>1586.8</ele>
        <time>2019-07-05T15:16:54Z</time>
      </trkpt>
      <trkpt lat="40.5144060" lon="-1.8521380">
        <ele>1585.8</ele>
        <time>2019-07-05T15:16:59Z</time>
      </trkpt>
      <trkpt lat="40.5144480" lon="-1.8521230">
        <ele>1585.0</ele>
        <time>2019-07-05T15:17:02Z</time>
      </trkpt>
      <trkpt lat="40.5144690" lon="-1.8521150">
        <ele>1585.0</ele>
        <time>2019-07-05T15:17:04Z</time>
      </trkpt>
      <trkpt lat="40.5144800" lon="-1.8521120">
        <ele>1584.8</ele>
        <time>2019-07-05T15:17:05Z</time>
      </trkpt>
      <trkpt lat="40.5145090" lon="-1.8521230">
        <ele>1584.4</ele>
        <time>2019-07-05T15:17:07Z</time>
      </trkpt>
      <trkpt lat="40.5145250" lon="-1.8521550">
        <ele>1583.6</ele>
        <time>2019-07-05T15:17:09Z</time>
      </trkpt>
      <trkpt lat="40.5145340" lon="-1.8522130">
        <ele>1582.4</ele>
        <time>2019-07-05T15:17:12Z</time>
      </trkpt>
      <trkpt lat="40.5145380" lon="-1.8522310">
        <ele>1581.6</ele>
        <time>2019-07-05T15:17:14Z</time>
      </trkpt>
      <trkpt lat="40.5145560" lon="-1.8522480">
        <ele>1581.4</ele>
        <time>2019-07-05T15:17:19Z</time>
      </trkpt>
      <trkpt lat="40.5145560" lon="-1.8522580">
        <ele>1581.4</ele>
        <time>2019-07-05T15:17:20Z</time>
      </trkpt>
      <trkpt lat="40.5145560" lon="-1.8522730">
        <ele>1580.8</ele>
        <time>2019-07-05T15:17:23Z</time>
      </trkpt>
      <trkpt lat="40.5146170" lon="-1.8522710">
        <ele>1579.6</ele>
        <time>2019-07-05T15:17:31Z</time>
      </trkpt>
      <trkpt lat="40.5146550" lon="-1.8523280">
        <ele>1579.2</ele>
        <time>2019-07-05T15:17:35Z</time>
      </trkpt>
      <trkpt lat="40.5146600" lon="-1.8523430">
        <ele>1579.0</ele>
        <time>2019-07-05T15:17:36Z</time>
      </trkpt>
      <trkpt lat="40.5146690" lon="-1.8523760">
        <ele>1578.4</ele>
        <time>2019-07-05T15:17:38Z</time>
      </trkpt>
      <trkpt lat="40.5146710" lon="-1.8523880">
        <ele>1577.6</ele>
        <time>2019-07-05T15:17:40Z</time>
      </trkpt>
      <trkpt lat="40.5146970" lon="-1.8524420">
        <ele>1576.6</ele>
        <time>2019-07-05T15:17:45Z</time>
      </trkpt>
      <trkpt lat="40.5147200" lon="-1.8524850">
        <ele>1575.4</ele>
        <time>2019-07-05T15:17:48Z</time>
      </trkpt>
      <trkpt lat="40.5147410" lon="-1.8525090">
        <ele>1574.6</ele>
        <time>2019-07-05T15:17:51Z</time>
      </trkpt>
      <trkpt lat="40.5147610" lon="-1.8525180">
        <ele>1574.0</ele>
        <time>2019-07-05T15:17:53Z</time>
      </trkpt>
      <trkpt lat="40.5147810" lon="-1.8525300">
        <ele>1573.6</ele>
        <time>2019-07-05T15:17:55Z</time>
      </trkpt>
      <trkpt lat="40.5147980" lon="-1.8525380">
        <ele>1572.6</ele>
        <time>2019-07-05T15:17:57Z</time>
      </trkpt>
      <trkpt lat="40.5148120" lon="-1.8525710">
        <ele>1571.2</ele>
        <time>2019-07-05T15:18:01Z</time>
      </trkpt>
      <trkpt lat="40.5148320" lon="-1.8525820">
        <ele>1570.2</ele>
        <time>2019-07-05T15:18:05Z</time>
      </trkpt>
      <trkpt lat="40.5148340" lon="-1.8525830">
        <ele>1570.0</ele>
        <time>2019-07-05T15:18:07Z</time>
      </trkpt>
      <trkpt lat="40.5149300" lon="-1.8525890">
        <ele>1568.4</ele>
        <time>2019-07-05T15:18:40Z</time>
      </trkpt>
      <trkpt lat="40.5150870" lon="-1.8525180">
        <ele>1567.4</ele>
        <time>2019-07-05T15:18:45Z</time>
      </trkpt>
      <trkpt lat="40.5151240" lon="-1.8524940">
        <ele>1567.2</ele>
        <time>2019-07-05T15:18:46Z</time>
      </trkpt>
      <trkpt lat="40.5152880" lon="-1.8524200">
        <ele>1566.0</ele>
        <time>2019-07-05T15:18:50Z</time>
      </trkpt>
      <trkpt lat="40.5153960" lon="-1.8523980">
        <ele>1565.8</ele>
        <time>2019-07-05T15:18:52Z</time>
      </trkpt>
      <trkpt lat="40.5154950" lon="-1.8523730">
        <ele>1565.4</ele>
        <time>2019-07-05T15:18:54Z</time>
      </trkpt>
      <trkpt lat="40.5155930" lon="-1.8523520">
        <ele>1565.0</ele>
        <time>2019-07-05T15:18:56Z</time>
      </trkpt>
      <trkpt lat="40.5156960" lon="-1.8523330">
        <ele>1563.6</ele>
        <time>2019-07-05T15:18:58Z</time>
      </trkpt>
      <trkpt lat="40.5158200" lon="-1.8523110">
        <ele>1562.0</ele>
        <time>2019-07-05T15:19:00Z</time>
      </trkpt>
      <trkpt lat="40.5158880" lon="-1.8523080">
        <ele>1561.4</ele>
        <time>2019-07-05T15:19:01Z</time>
      </trkpt>
      <trkpt lat="40.5159560" lon="-1.8523140">
        <ele>1561.2</ele>
        <time>2019-07-05T15:19:02Z</time>
      </trkpt>
      <trkpt lat="40.5160150" lon="-1.8523210">
        <ele>1561.0</ele>
        <time>2019-07-05T15:19:03Z</time>
      </trkpt>
      <trkpt lat="40.5161040" lon="-1.8523150">
        <ele>1561.2</ele>
        <time>2019-07-05T15:19:05Z</time>
      </trkpt>
      <trkpt lat="40.5161440" lon="-1.8523160">
        <ele>1561.4</ele>
        <time>2019-07-05T15:19:06Z</time>
      </trkpt>
      <trkpt lat="40.5163060" lon="-1.8523430">
        <ele>1562.0</ele>
        <time>2019-07-05T15:19:10Z</time>
      </trkpt>
      <trkpt lat="40.5163500" lon="-1.8523560">
        <ele>1562.0</ele>
        <time>2019-07-05T15:19:11Z</time>
      </trkpt>
      <trkpt lat="40.5163950" lon="-1.8523680">
        <ele>1562.0</ele>
        <time>2019-07-05T15:19:12Z</time>
      </trkpt>
      <trkpt lat="40.5165240" lon="-1.8524210">
        <ele>1562.0</ele>
        <time>2019-07-05T15:19:15Z</time>
      </trkpt>
      <trkpt lat="40.5168040" lon="-1.8525110">
        <ele>1562.2</ele>
        <time>2019-07-05T15:19:22Z</time>
      </trkpt>
      <trkpt lat="40.5170260" lon="-1.8525210">
        <ele>1563.0</ele>
        <time>2019-07-05T15:19:28Z</time>
      </trkpt>
      <trkpt lat="40.5170560" lon="-1.8525200">
        <ele>1563.2</ele>
        <time>2019-07-05T15:19:29Z</time>
      </trkpt>
      <trkpt lat="40.5171440" lon="-1.8525130">
        <ele>1564.2</ele>
        <time>2019-07-05T15:19:32Z</time>
      </trkpt>
      <trkpt lat="40.5172730" lon="-1.8525010">
        <ele>1564.4</ele>
        <time>2019-07-05T15:19:36Z</time>
      </trkpt>
      <trkpt lat="40.5174310" lon="-1.8524630">
        <ele>1563.8</ele>
        <time>2019-07-05T15:19:41Z</time>
      </trkpt>
      <trkpt lat="40.5176190" lon="-1.8524600">
        <ele>1564.2</ele>
        <time>2019-07-05T15:19:46Z</time>
      </trkpt>
      <trkpt lat="40.5179330" lon="-1.8525010">
        <ele>1564.8</ele>
        <time>2019-07-05T15:19:53Z</time>
      </trkpt>
      <trkpt lat="40.5182770" lon="-1.8526010">
        <ele>1564.4</ele>
        <time>2019-07-05T15:20:01Z</time>
      </trkpt>
      <trkpt lat="40.5184960" lon="-1.8526610">
        <ele>1564.6</ele>
        <time>2019-07-05T15:20:06Z</time>
      </trkpt>
      <trkpt lat="40.5185340" lon="-1.8526710">
        <ele>1564.6</ele>
        <time>2019-07-05T15:20:07Z</time>
      </trkpt>
      <trkpt lat="40.5187200" lon="-1.8527160">
        <ele>1564.6</ele>
        <time>2019-07-05T15:20:12Z</time>
      </trkpt>
      <trkpt lat="40.5188210" lon="-1.8527560">
        <ele>1565.0</ele>
        <time>2019-07-05T15:20:15Z</time>
      </trkpt>
      <trkpt lat="40.5188530" lon="-1.8527680">
        <ele>1565.2</ele>
        <time>2019-07-05T15:20:16Z</time>
      </trkpt>
      <trkpt lat="40.5189560" lon="-1.8528100">
        <ele>1565.4</ele>
        <time>2019-07-05T15:20:19Z</time>
      </trkpt>
      <trkpt lat="40.5192240" lon="-1.8529200">
        <ele>1564.8</ele>
        <time>2019-07-05T15:20:26Z</time>
      </trkpt>
      <trkpt lat="40.5196230" lon="-1.8530920">
        <ele>1565.4</ele>
        <time>2019-07-05T15:20:35Z</time>
      </trkpt>
      <trkpt lat="40.5200820" lon="-1.8532380">
        <ele>1564.0</ele>
        <time>2019-07-05T15:20:44Z</time>
      </trkpt>
      <trkpt lat="40.5201330" lon="-1.8532530">
        <ele>1563.8</ele>
        <time>2019-07-05T15:20:45Z</time>
      </trkpt>
      <trkpt lat="40.5203830" lon="-1.8533320">
        <ele>1562.8</ele>
        <time>2019-07-05T15:20:50Z</time>
      </trkpt>
      <trkpt lat="40.5204160" lon="-1.8533570">
        <ele>1562.6</ele>
        <time>2019-07-05T15:20:51Z</time>
      </trkpt>
      <trkpt lat="40.5204430" lon="-1.8534720">
        <ele>1562.0</ele>
        <time>2019-07-05T15:20:54Z</time>
      </trkpt>
      <trkpt lat="40.5204020" lon="-1.8535590">
        <ele>1561.6</ele>
        <time>2019-07-05T15:20:56Z</time>
      </trkpt>
      <trkpt lat="40.5203480" lon="-1.8536410">
        <ele>1560.4</ele>
        <time>2019-07-05T15:20:58Z</time>
      </trkpt>
      <trkpt lat="40.5203210" lon="-1.8536830">
        <ele>1560.0</ele>
        <time>2019-07-05T15:20:59Z</time>
      </trkpt>
      <trkpt lat="40.5202920" lon="-1.8537290">
        <ele>1559.4</ele>
        <time>2019-07-05T15:21:00Z</time>
      </trkpt>
      <trkpt lat="40.5202260" lon="-1.8538260">
        <ele>1557.8</ele>
        <time>2019-07-05T15:21:02Z</time>
      </trkpt>
      <trkpt lat="40.5201680" lon="-1.8539170">
        <ele>1556.0</ele>
        <time>2019-07-05T15:21:04Z</time>
      </trkpt>
      <trkpt lat="40.5201160" lon="-1.8539970">
        <ele>1554.4</ele>
        <time>2019-07-05T15:21:06Z</time>
      </trkpt>
      <trkpt lat="40.5200680" lon="-1.8540790">
        <ele>1553.4</ele>
        <time>2019-07-05T15:21:08Z</time>
      </trkpt>
      <trkpt lat="40.5200130" lon="-1.8541640">
        <ele>1552.4</ele>
        <time>2019-07-05T15:21:10Z</time>
      </trkpt>
      <trkpt lat="40.5199840" lon="-1.8542070">
        <ele>1551.6</ele>
        <time>2019-07-05T15:21:11Z</time>
      </trkpt>
      <trkpt lat="40.5199320" lon="-1.8542900">
        <ele>1550.2</ele>
        <time>2019-07-05T15:21:13Z</time>
      </trkpt>
      <trkpt lat="40.5198780" lon="-1.8543720">
        <ele>1549.0</ele>
        <time>2019-07-05T15:21:15Z</time>
      </trkpt>
      <trkpt lat="40.5198460" lon="-1.8544100">
        <ele>1548.4</ele>
        <time>2019-07-05T15:21:16Z</time>
      </trkpt>
      <trkpt lat="40.5198170" lon="-1.8544510">
        <ele>1547.8</ele>
        <time>2019-07-05T15:21:17Z</time>
      </trkpt>
      <trkpt lat="40.5197730" lon="-1.8545340">
        <ele>1546.8</ele>
        <time>2019-07-05T15:21:19Z</time>
      </trkpt>
      <trkpt lat="40.5197310" lon="-1.8546090">
        <ele>1544.8</ele>
        <time>2019-07-05T15:21:21Z</time>
      </trkpt>
      <trkpt lat="40.5196980" lon="-1.8546760">
        <ele>1543.4</ele>
        <time>2019-07-05T15:21:23Z</time>
      </trkpt>
      <trkpt lat="40.5196750" lon="-1.8547380">
        <ele>1542.0</ele>
        <time>2019-07-05T15:21:25Z</time>
      </trkpt>
      <trkpt lat="40.5196560" lon="-1.8547910">
        <ele>1541.2</ele>
        <time>2019-07-05T15:21:27Z</time>
      </trkpt>
      <trkpt lat="40.5196400" lon="-1.8548140">
        <ele>1540.4</ele>
        <time>2019-07-05T15:21:28Z</time>
      </trkpt>
      <trkpt lat="40.5196050" lon="-1.8548730">
        <ele>1539.0</ele>
        <time>2019-07-05T15:21:30Z</time>
      </trkpt>
      <trkpt lat="40.5195820" lon="-1.8549520">
        <ele>1537.2</ele>
        <time>2019-07-05T15:21:32Z</time>
      </trkpt>
      <trkpt lat="40.5195610" lon="-1.8550410">
        <ele>1535.4</ele>
        <time>2019-07-05T15:21:34Z</time>
      </trkpt>
      <trkpt lat="40.5195350" lon="-1.8551490">
        <ele>1533.6</ele>
        <time>2019-07-05T15:21:36Z</time>
      </trkpt>
      <trkpt lat="40.5195250" lon="-1.8552040">
        <ele>1532.4</ele>
        <time>2019-07-05T15:21:37Z</time>
      </trkpt>
      <trkpt lat="40.5195160" lon="-1.8552680">
        <ele>1531.6</ele>
        <time>2019-07-05T15:21:38Z</time>
      </trkpt>
      <trkpt lat="40.5195030" lon="-1.8553360">
        <ele>1530.2</ele>
        <time>2019-07-05T15:21:39Z</time>
      </trkpt>
      <trkpt lat="40.5194910" lon="-1.8554010">
        <ele>1529.0</ele>
        <time>2019-07-05T15:21:40Z</time>
      </trkpt>
      <trkpt lat="40.5194600" lon="-1.8555250">
        <ele>1527.4</ele>
        <time>2019-07-05T15:21:42Z</time>
      </trkpt>
      <trkpt lat="40.5194330" lon="-1.8556520">
        <ele>1525.8</ele>
        <time>2019-07-05T15:21:44Z</time>
      </trkpt>
      <trkpt lat="40.5194260" lon="-1.8557140">
        <ele>1524.4</ele>
        <time>2019-07-05T15:21:45Z</time>
      </trkpt>
      <trkpt lat="40.5194220" lon="-1.8557720">
        <ele>1522.6</ele>
        <time>2019-07-05T15:21:46Z</time>
      </trkpt>
      <trkpt lat="40.5194150" lon="-1.8558300">
        <ele>1521.2</ele>
        <time>2019-07-05T15:21:47Z</time>
      </trkpt>
      <trkpt lat="40.5194030" lon="-1.8558850">
        <ele>1520.2</ele>
        <time>2019-07-05T15:21:48Z</time>
      </trkpt>
      <trkpt lat="40.5193920" lon="-1.8559250">
        <ele>1518.6</ele>
        <time>2019-07-05T15:21:49Z</time>
      </trkpt>
      <trkpt lat="40.5193860" lon="-1.8559490">
        <ele>1516.8</ele>
        <time>2019-07-05T15:21:50Z</time>
      </trkpt>
      <trkpt lat="40.5193820" lon="-1.8559550">
        <ele>1515.6</ele>
        <time>2019-07-05T15:21:51Z</time>
      </trkpt>
      <trkpt lat="40.5193820" lon="-1.8559580">
        <ele>1514.8</ele>
        <time>2019-07-05T15:21:52Z</time>
      </trkpt>
      <trkpt lat="40.5197130" lon="-1.8558720">
        <ele>1503.4</ele>
        <time>2019-07-05T15:23:42Z</time>
      </trkpt>
      <trkpt lat="40.5197520" lon="-1.8558420">
        <ele>1502.4</ele>
        <time>2019-07-05T15:23:45Z</time>
      </trkpt>
      <trkpt lat="40.5197660" lon="-1.8558300">
        <ele>1501.6</ele>
        <time>2019-07-05T15:23:46Z</time>
      </trkpt>
      <trkpt lat="40.5198020" lon="-1.8557990">
        <ele>1501.2</ele>
        <time>2019-07-05T15:23:49Z</time>
      </trkpt>
      <trkpt lat="40.5198170" lon="-1.8557860">
        <ele>1501.0</ele>
        <time>2019-07-05T15:23:50Z</time>
      </trkpt>
      <trkpt lat="40.5198400" lon="-1.8557680">
        <ele>1500.0</ele>
        <time>2019-07-05T15:23:52Z</time>
      </trkpt>
      <trkpt lat="40.5198480" lon="-1.8557600">
        <ele>1499.4</ele>
        <time>2019-07-05T15:23:54Z</time>
      </trkpt>
      <trkpt lat="40.5198840" lon="-1.8557180">
        <ele>1498.8</ele>
        <time>2019-07-05T15:24:08Z</time>
      </trkpt>
      <trkpt lat="40.5198950" lon="-1.8557080">
        <ele>1498.6</ele>
        <time>2019-07-05T15:24:09Z</time>
      </trkpt>
      <trkpt lat="40.5199550" lon="-1.8556540">
        <ele>1497.6</ele>
        <time>2019-07-05T15:24:15Z</time>
      </trkpt>
      <trkpt lat="40.5199850" lon="-1.8556220">
        <ele>1496.4</ele>
        <time>2019-07-05T15:24:18Z</time>
      </trkpt>
      <trkpt lat="40.5200010" lon="-1.8555980">
        <ele>1495.4</ele>
        <time>2019-07-05T15:24:21Z</time>
      </trkpt>
      <trkpt lat="40.5200110" lon="-1.8555920">
        <ele>1495.2</ele>
        <time>2019-07-05T15:24:22Z</time>
      </trkpt>
      <trkpt lat="40.5200730" lon="-1.8555530">
        <ele>1494.6</ele>
        <time>2019-07-05T15:24:27Z</time>
      </trkpt>
      <trkpt lat="40.5200980" lon="-1.8555390">
        <ele>1494.2</ele>
        <time>2019-07-05T15:24:29Z</time>
      </trkpt>
      <trkpt lat="40.5201380" lon="-1.8555140">
        <ele>1493.8</ele>
        <time>2019-07-05T15:24:32Z</time>
      </trkpt>
      <trkpt lat="40.5201660" lon="-1.8554960">
        <ele>1493.2</ele>
        <time>2019-07-05T15:24:34Z</time>
      </trkpt>
      <trkpt lat="40.5201950" lon="-1.8554800">
        <ele>1492.2</ele>
        <time>2019-07-05T15:24:36Z</time>
      </trkpt>
      <trkpt lat="40.5202070" lon="-1.8554720">
        <ele>1491.8</ele>
        <time>2019-07-05T15:24:37Z</time>
      </trkpt>
      <trkpt lat="40.5202960" lon="-1.8554270">
        <ele>1490.4</ele>
        <time>2019-07-05T15:24:43Z</time>
      </trkpt>
      <trkpt lat="40.5203100" lon="-1.8554210">
        <ele>1490.0</ele>
        <time>2019-07-05T15:24:44Z</time>
      </trkpt>
      <trkpt lat="40.5203480" lon="-1.8554060">
        <ele>1489.4</ele>
        <time>2019-07-05T15:24:47Z</time>
      </trkpt>
      <trkpt lat="40.5203940" lon="-1.8553860">
        <ele>1488.8</ele>
        <time>2019-07-05T15:24:50Z</time>
      </trkpt>
      <trkpt lat="40.5204090" lon="-1.8553790">
        <ele>1488.6</ele>
        <time>2019-07-05T15:24:51Z</time>
      </trkpt>
      <trkpt lat="40.5204590" lon="-1.8553660">
        <ele>1488.0</ele>
        <time>2019-07-05T15:24:54Z</time>
      </trkpt>
      <trkpt lat="40.5205200" lon="-1.8553440">
        <ele>1486.6</ele>
        <time>2019-07-05T15:24:58Z</time>
      </trkpt>
      <trkpt lat="40.5205360" lon="-1.8553400">
        <ele>1486.2</ele>
        <time>2019-07-05T15:24:59Z</time>
      </trkpt>
      <trkpt lat="40.5205490" lon="-1.8553360">
        <ele>1485.8</ele>
        <time>2019-07-05T15:25:00Z</time>
      </trkpt>
      <trkpt lat="40.5205970" lon="-1.8553140">
        <ele>1484.6</ele>
        <time>2019-07-05T15:25:04Z</time>
      </trkpt>
      <trkpt lat="40.5206090" lon="-1.8553070">
        <ele>1484.4</ele>
        <time>2019-07-05T15:25:05Z</time>
      </trkpt>
      <trkpt lat="40.5206460" lon="-1.8552920">
        <ele>1483.4</ele>
        <time>2019-07-05T15:25:08Z</time>
      </trkpt>
      <trkpt lat="40.5206980" lon="-1.8552850">
        <ele>1482.6</ele>
        <time>2019-07-05T15:25:12Z</time>
      </trkpt>
      <trkpt lat="40.5207120" lon="-1.8552820">
        <ele>1482.2</ele>
        <time>2019-07-05T15:25:13Z</time>
      </trkpt>
      <trkpt lat="40.5207490" lon="-1.8552700">
        <ele>1481.2</ele>
        <time>2019-07-05T15:25:16Z</time>
      </trkpt>
      <trkpt lat="40.5207930" lon="-1.8552590">
        <ele>1480.6</ele>
        <time>2019-07-05T15:25:19Z</time>
      </trkpt>
      <trkpt lat="40.5208250" lon="-1.8552520">
        <ele>1480.0</ele>
        <time>2019-07-05T15:25:22Z</time>
      </trkpt>
      <trkpt lat="40.5208500" lon="-1.8552470">
        <ele>1479.2</ele>
        <time>2019-07-05T15:25:24Z</time>
      </trkpt>
      <trkpt lat="40.5208790" lon="-1.8552440">
        <ele>1478.8</ele>
        <time>2019-07-05T15:25:26Z</time>
      </trkpt>
      <trkpt lat="40.5209430" lon="-1.8552170">
        <ele>1477.6</ele>
        <time>2019-07-05T15:25:31Z</time>
      </trkpt>
      <trkpt lat="40.5210150" lon="-1.8552050">
        <ele>1476.6</ele>
        <time>2019-07-05T15:25:36Z</time>
      </trkpt>
      <trkpt lat="40.5210300" lon="-1.8552030">
        <ele>1476.4</ele>
        <time>2019-07-05T15:25:37Z</time>
      </trkpt>
      <trkpt lat="40.5210660" lon="-1.8551880">
        <ele>1476.0</ele>
        <time>2019-07-05T15:25:40Z</time>
      </trkpt>
      <trkpt lat="40.5211060" lon="-1.8551740">
        <ele>1475.8</ele>
        <time>2019-07-05T15:25:43Z</time>
      </trkpt>
      <trkpt lat="40.5211200" lon="-1.8551710">
        <ele>1475.6</ele>
        <time>2019-07-05T15:25:44Z</time>
      </trkpt>
      <trkpt lat="40.5212090" lon="-1.8551360">
        <ele>1474.6</ele>
        <time>2019-07-05T15:25:51Z</time>
      </trkpt>
      <trkpt lat="40.5212300" lon="-1.8551330">
        <ele>1474.4</ele>
        <time>2019-07-05T15:25:53Z</time>
      </trkpt>
      <trkpt lat="40.5212920" lon="-1.8551130">
        <ele>1473.4</ele>
        <time>2019-07-05T15:25:58Z</time>
      </trkpt>
      <trkpt lat="40.5213310" lon="-1.8551050">
        <ele>1473.2</ele>
        <time>2019-07-05T15:26:01Z</time>
      </trkpt>
      <trkpt lat="40.5214040" lon="-1.8550810">
        <ele>1472.6</ele>
        <time>2019-07-05T15:26:06Z</time>
      </trkpt>
      <trkpt lat="40.5214450" lon="-1.8550720">
        <ele>1472.0</ele>
        <time>2019-07-05T15:26:09Z</time>
      </trkpt>
      <trkpt lat="40.5215000" lon="-1.8550630">
        <ele>1471.4</ele>
        <time>2019-07-05T15:26:13Z</time>
      </trkpt>
      <trkpt lat="40.5215440" lon="-1.8550630">
        <ele>1470.8</ele>
        <time>2019-07-05T15:26:16Z</time>
      </trkpt>
      <trkpt lat="40.5215880" lon="-1.8550680">
        <ele>1469.6</ele>
        <time>2019-07-05T15:26:19Z</time>
      </trkpt>
      <trkpt lat="40.5216020" lon="-1.8550700">
        <ele>1469.2</ele>
        <time>2019-07-05T15:26:20Z</time>
      </trkpt>
      <trkpt lat="40.5216440" lon="-1.8550710">
        <ele>1468.6</ele>
        <time>2019-07-05T15:26:23Z</time>
      </trkpt>
      <trkpt lat="40.5216860" lon="-1.8550690">
        <ele>1468.2</ele>
        <time>2019-07-05T15:26:26Z</time>
      </trkpt>
      <trkpt lat="40.5217000" lon="-1.8550690">
        <ele>1467.6</ele>
        <time>2019-07-05T15:26:27Z</time>
      </trkpt>
      <trkpt lat="40.5217460" lon="-1.8550680">
        <ele>1466.4</ele>
        <time>2019-07-05T15:26:30Z</time>
      </trkpt>
      <trkpt lat="40.5218010" lon="-1.8550670">
        <ele>1465.6</ele>
        <time>2019-07-05T15:26:34Z</time>
      </trkpt>
      <trkpt lat="40.5218430" lon="-1.8550600">
        <ele>1465.2</ele>
        <time>2019-07-05T15:26:37Z</time>
      </trkpt>
      <trkpt lat="40.5219150" lon="-1.8550580">
        <ele>1464.4</ele>
        <time>2019-07-05T15:26:42Z</time>
      </trkpt>
      <trkpt lat="40.5219390" lon="-1.8550540">
        <ele>1463.8</ele>
        <time>2019-07-05T15:26:44Z</time>
      </trkpt>
      <trkpt lat="40.5219910" lon="-1.8550440">
        <ele>1463.0</ele>
        <time>2019-07-05T15:26:48Z</time>
      </trkpt>
      <trkpt lat="40.5220440" lon="-1.8550380">
        <ele>1462.6</ele>
        <time>2019-07-05T15:26:52Z</time>
      </trkpt>
      <trkpt lat="40.5220940" lon="-1.8550290">
        <ele>1462.0</ele>
        <time>2019-07-05T15:26:56Z</time>
      </trkpt>
      <trkpt lat="40.5221360" lon="-1.8550210">
        <ele>1461.4</ele>
        <time>2019-07-05T15:26:59Z</time>
      </trkpt>
      <trkpt lat="40.5221760" lon="-1.8550150">
        <ele>1460.2</ele>
        <time>2019-07-05T15:27:02Z</time>
      </trkpt>
      <trkpt lat="40.5221900" lon="-1.8550130">
        <ele>1459.8</ele>
        <time>2019-07-05T15:27:03Z</time>
      </trkpt>
      <trkpt lat="40.5222150" lon="-1.8550080">
        <ele>1458.8</ele>
        <time>2019-07-05T15:27:05Z</time>
      </trkpt>
      <trkpt lat="40.5222890" lon="-1.8549950">
        <ele>1458.2</ele>
        <time>2019-07-05T15:27:10Z</time>
      </trkpt>
      <trkpt lat="40.5223300" lon="-1.8549860">
        <ele>1457.8</ele>
        <time>2019-07-05T15:27:13Z</time>
      </trkpt>
      <trkpt lat="40.5223770" lon="-1.8549780">
        <ele>1457.2</ele>
        <time>2019-07-05T15:27:16Z</time>
      </trkpt>
      <trkpt lat="40.5224020" lon="-1.8549710">
        <ele>1456.6</ele>
        <time>2019-07-05T15:27:18Z</time>
      </trkpt>
      <trkpt lat="40.5224390" lon="-1.8549580">
        <ele>1455.8</ele>
        <time>2019-07-05T15:27:22Z</time>
      </trkpt>
      <trkpt lat="40.5224410" lon="-1.8549540">
        <ele>1455.6</ele>
        <time>2019-07-05T15:27:23Z</time>
      </trkpt>
      <trkpt lat="40.5225860" lon="-1.8549140">
        <ele>1452.8</ele>
        <time>2019-07-05T15:27:40Z</time>
      </trkpt>
      <trkpt lat="40.5226080" lon="-1.8549070">
        <ele>1452.6</ele>
        <time>2019-07-05T15:27:42Z</time>
      </trkpt>
      <trkpt lat="40.5226190" lon="-1.8549090">
        <ele>1452.6</ele>
        <time>2019-07-05T15:27:43Z</time>
      </trkpt>
      <trkpt lat="40.5226630" lon="-1.8549220">
        <ele>1451.8</ele>
        <time>2019-07-05T15:27:47Z</time>
      </trkpt>
      <trkpt lat="40.5226700" lon="-1.8549320">
        <ele>1451.4</ele>
        <time>2019-07-05T15:27:48Z</time>
      </trkpt>
      <trkpt lat="40.5226730" lon="-1.8549470">
        <ele>1451.4</ele>
        <time>2019-07-05T15:27:49Z</time>
      </trkpt>
      <trkpt lat="40.5226520" lon="-1.8549920">
        <ele>1450.8</ele>
        <time>2019-07-05T15:27:53Z</time>
      </trkpt>
      <trkpt lat="40.5226430" lon="-1.8550060">
        <ele>1450.4</ele>
        <time>2019-07-05T15:27:54Z</time>
      </trkpt>
      <trkpt lat="40.5226030" lon="-1.8550520">
        <ele>1449.4</ele>
        <time>2019-07-05T15:27:58Z</time>
      </trkpt>
      <trkpt lat="40.5225720" lon="-1.8550870">
        <ele>1448.6</ele>
        <time>2019-07-05T15:28:01Z</time>
      </trkpt>
      <trkpt lat="40.5225590" lon="-1.8550980">
        <ele>1448.2</ele>
        <time>2019-07-05T15:28:02Z</time>
      </trkpt>
      <trkpt lat="40.5225320" lon="-1.8551190">
        <ele>1447.0</ele>
        <time>2019-07-05T15:28:04Z</time>
      </trkpt>
      <trkpt lat="40.5225000" lon="-1.8551500">
        <ele>1446.0</ele>
        <time>2019-07-05T15:28:07Z</time>
      </trkpt>
      <trkpt lat="40.5224880" lon="-1.8551610">
        <ele>1445.8</ele>
        <time>2019-07-05T15:28:08Z</time>
      </trkpt>
      <trkpt lat="40.5224260" lon="-1.8552050">
        <ele>1445.4</ele>
        <time>2019-07-05T15:28:14Z</time>
      </trkpt>
      <trkpt lat="40.5224150" lon="-1.8552200">
        <ele>1445.0</ele>
        <time>2019-07-05T15:28:16Z</time>
      </trkpt>
      <trkpt lat="40.5224050" lon="-1.8552270">
        <ele>1444.8</ele>
        <time>2019-07-05T15:28:17Z</time>
      </trkpt>
      <trkpt lat="40.5223850" lon="-1.8552440">
        <ele>1444.6</ele>
        <time>2019-07-05T15:28:19Z</time>
      </trkpt>
      <trkpt lat="40.5223670" lon="-1.8552610">
        <ele>1443.8</ele>
        <time>2019-07-05T15:28:21Z</time>
      </trkpt>
      <trkpt lat="40.5223570" lon="-1.8552680">
        <ele>1443.6</ele>
        <time>2019-07-05T15:28:22Z</time>
      </trkpt>
      <trkpt lat="40.5223220" lon="-1.8553030">
        <ele>1442.8</ele>
        <time>2019-07-05T15:28:26Z</time>
      </trkpt>
      <trkpt lat="40.5223060" lon="-1.8553190">
        <ele>1442.2</ele>
        <time>2019-07-05T15:28:28Z</time>
      </trkpt>
      <trkpt lat="40.5222790" lon="-1.8553520">
        <ele>1441.8</ele>
        <time>2019-07-05T15:28:31Z</time>
      </trkpt>
      <trkpt lat="40.5222670" lon="-1.8553750">
        <ele>1441.4</ele>
        <time>2019-07-05T15:28:33Z</time>
      </trkpt>
      <trkpt lat="40.5222590" lon="-1.8553840">
        <ele>1441.2</ele>
        <time>2019-07-05T15:28:34Z</time>
      </trkpt>
      <trkpt lat="40.5222480" lon="-1.8553920">
        <ele>1441.0</ele>
        <time>2019-07-05T15:28:35Z</time>
      </trkpt>
      <trkpt lat="40.5222130" lon="-1.8554240">
        <ele>1440.0</ele>
        <time>2019-07-05T15:28:39Z</time>
      </trkpt>
      <trkpt lat="40.5222050" lon="-1.8554310">
        <ele>1439.6</ele>
        <time>2019-07-05T15:28:40Z</time>
      </trkpt>
      <trkpt lat="40.5221810" lon="-1.8554540">
        <ele>1438.8</ele>
        <time>2019-07-05T15:28:43Z</time>
      </trkpt>
      <trkpt lat="40.5221270" lon="-1.8555010">
        <ele>1438.0</ele>
        <time>2019-07-05T15:28:49Z</time>
      </trkpt>
      <trkpt lat="40.5221170" lon="-1.8555100">
        <ele>1437.8</ele>
        <time>2019-07-05T15:28:50Z</time>
      </trkpt>
      <trkpt lat="40.5220690" lon="-1.8555420">
        <ele>1436.6</ele>
        <time>2019-07-05T15:28:54Z</time>
      </trkpt>
      <trkpt lat="40.5220330" lon="-1.8555690">
        <ele>1436.0</ele>
        <time>2019-07-05T15:28:57Z</time>
      </trkpt>
      <trkpt lat="40.5220090" lon="-1.8555870">
        <ele>1435.6</ele>
        <time>2019-07-05T15:28:59Z</time>
      </trkpt>
      <trkpt lat="40.5219400" lon="-1.8556500">
        <ele>1434.8</ele>
        <time>2019-07-05T15:29:05Z</time>
      </trkpt>
      <trkpt lat="40.5218850" lon="-1.8556990">
        <ele>1434.6</ele>
        <time>2019-07-05T15:29:10Z</time>
      </trkpt>
      <trkpt lat="40.5218640" lon="-1.8557160">
        <ele>1434.2</ele>
        <time>2019-07-05T15:29:12Z</time>
      </trkpt>
      <trkpt lat="40.5218550" lon="-1.8557260">
        <ele>1434.0</ele>
        <time>2019-07-05T15:29:15Z</time>
      </trkpt>
      <trkpt lat="40.5218260" lon="-1.8557490">
        <ele>1432.6</ele>
        <time>2019-07-05T15:30:11Z</time>
      </trkpt>
      <trkpt lat="40.5218120" lon="-1.8557570">
        <ele>1432.6</ele>
        <time>2019-07-05T15:30:12Z</time>
      </trkpt>
      <trkpt lat="40.5216920" lon="-1.8558500">
        <ele>1432.4</ele>
        <time>2019-07-05T15:30:18Z</time>
      </trkpt>
      <trkpt lat="40.5216590" lon="-1.8558740">
        <ele>1432.6</ele>
        <time>2019-07-05T15:30:19Z</time>
      </trkpt>
      <trkpt lat="40.5215380" lon="-1.8559550">
        <ele>1432.4</ele>
        <time>2019-07-05T15:30:22Z</time>
      </trkpt>
      <trkpt lat="40.5214970" lon="-1.8559910">
        <ele>1432.0</ele>
        <time>2019-07-05T15:30:23Z</time>
      </trkpt>
      <trkpt lat="40.5214570" lon="-1.8560270">
        <ele>1431.6</ele>
        <time>2019-07-05T15:30:24Z</time>
      </trkpt>
      <trkpt lat="40.5213460" lon="-1.8561030">
        <ele>1430.8</ele>
        <time>2019-07-05T15:30:27Z</time>
      </trkpt>
      <trkpt lat="40.5213030" lon="-1.8561210">
        <ele>1430.8</ele>
        <time>2019-07-05T15:30:28Z</time>
      </trkpt>
      <trkpt lat="40.5212560" lon="-1.8561470">
        <ele>1430.4</ele>
        <time>2019-07-05T15:30:29Z</time>
      </trkpt>
      <trkpt lat="40.5211400" lon="-1.8562840">
        <ele>1429.6</ele>
        <time>2019-07-05T15:30:32Z</time>
      </trkpt>
      <trkpt lat="40.5211070" lon="-1.8563280">
        <ele>1429.2</ele>
        <time>2019-07-05T15:30:33Z</time>
      </trkpt>
      <trkpt lat="40.5210180" lon="-1.8564150">
        <ele>1429.0</ele>
        <time>2019-07-05T15:30:36Z</time>
      </trkpt>
      <trkpt lat="40.5208900" lon="-1.8565940">
        <ele>1429.0</ele>
        <time>2019-07-05T15:30:41Z</time>
      </trkpt>
      <trkpt lat="40.5208500" lon="-1.8567400">
        <ele>1428.4</ele>
        <time>2019-07-05T15:30:44Z</time>
      </trkpt>
      <trkpt lat="40.5207990" lon="-1.8568350">
        <ele>1428.2</ele>
        <time>2019-07-05T15:30:46Z</time>
      </trkpt>
      <trkpt lat="40.5206820" lon="-1.8569730">
        <ele>1427.0</ele>
        <time>2019-07-05T15:30:50Z</time>
      </trkpt>
      <trkpt lat="40.5206540" lon="-1.8570010">
        <ele>1426.8</ele>
        <time>2019-07-05T15:30:51Z</time>
      </trkpt>
      <trkpt lat="40.5205980" lon="-1.8571610">
        <ele>1425.8</ele>
        <time>2019-07-05T15:30:55Z</time>
      </trkpt>
      <trkpt lat="40.5205940" lon="-1.8572600">
        <ele>1425.4</ele>
        <time>2019-07-05T15:30:57Z</time>
      </trkpt>
      <trkpt lat="40.5206030" lon="-1.8573580">
        <ele>1424.8</ele>
        <time>2019-07-05T15:30:59Z</time>
      </trkpt>
      <trkpt lat="40.5206160" lon="-1.8574080">
        <ele>1424.0</ele>
        <time>2019-07-05T15:31:00Z</time>
      </trkpt>
      <trkpt lat="40.5206370" lon="-1.8574520">
        <ele>1423.4</ele>
        <time>2019-07-05T15:31:01Z</time>
      </trkpt>
      <trkpt lat="40.5207000" lon="-1.8575060">
        <ele>1422.4</ele>
        <time>2019-07-05T15:31:03Z</time>
      </trkpt>
      <trkpt lat="40.5207300" lon="-1.8575190">
        <ele>1422.4</ele>
        <time>2019-07-05T15:31:04Z</time>
      </trkpt>
      <trkpt lat="40.5207850" lon="-1.8575290">
        <ele>1422.2</ele>
        <time>2019-07-05T15:31:06Z</time>
      </trkpt>
      <trkpt lat="40.5208120" lon="-1.8575370">
        <ele>1422.0</ele>
        <time>2019-07-05T15:31:07Z</time>
      </trkpt>
      <trkpt lat="40.5209050" lon="-1.8575590">
        <ele>1421.2</ele>
        <time>2019-07-05T15:31:11Z</time>
      </trkpt>
      <trkpt lat="40.5209450" lon="-1.8575850">
        <ele>1420.6</ele>
        <time>2019-07-05T15:31:13Z</time>
      </trkpt>
      <trkpt lat="40.5209630" lon="-1.8575980">
        <ele>1420.2</ele>
        <time>2019-07-05T15:31:14Z</time>
      </trkpt>
      <trkpt lat="40.5209860" lon="-1.8576080">
        <ele>1419.2</ele>
        <time>2019-07-05T15:31:17Z</time>
      </trkpt>
      <trkpt lat="40.5210500" lon="-1.8576060">
        <ele>1417.8</ele>
        <time>2019-07-05T15:31:24Z</time>
      </trkpt>
      <trkpt lat="40.5211110" lon="-1.8576270">
        <ele>1417.0</ele>
        <time>2019-07-05T15:31:28Z</time>
      </trkpt>
      <trkpt lat="40.5211290" lon="-1.8576350">
        <ele>1416.6</ele>
        <time>2019-07-05T15:31:29Z</time>
      </trkpt>
      <trkpt lat="40.5211530" lon="-1.8576440">
        <ele>1416.2</ele>
        <time>2019-07-05T15:31:31Z</time>
      </trkpt>
      <trkpt lat="40.5211730" lon="-1.8576490">
        <ele>1415.4</ele>
        <time>2019-07-05T15:31:33Z</time>
      </trkpt>
      <trkpt lat="40.5212060" lon="-1.8576540">
        <ele>1414.4</ele>
        <time>2019-07-05T15:31:36Z</time>
      </trkpt>
      <trkpt lat="40.5212300" lon="-1.8576600">
        <ele>1414.0</ele>
        <time>2019-07-05T15:31:38Z</time>
      </trkpt>
      <trkpt lat="40.5212550" lon="-1.8576670">
        <ele>1413.2</ele>
        <time>2019-07-05T15:31:40Z</time>
      </trkpt>
      <trkpt lat="40.5213090" lon="-1.8576850">
        <ele>1412.0</ele>
        <time>2019-07-05T15:31:44Z</time>
      </trkpt>
      <trkpt lat="40.5213590" lon="-1.8577130">
        <ele>1410.6</ele>
        <time>2019-07-05T15:31:48Z</time>
      </trkpt>
      <trkpt lat="40.5214040" lon="-1.8577290">
        <ele>1409.4</ele>
        <time>2019-07-05T15:31:51Z</time>
      </trkpt>
      <trkpt lat="40.5214600" lon="-1.8577470">
        <ele>1408.4</ele>
        <time>2019-07-05T15:31:56Z</time>
      </trkpt>
      <trkpt lat="40.5214780" lon="-1.8577640">
        <ele>1408.0</ele>
        <time>2019-07-05T15:31:58Z</time>
      </trkpt>
      <trkpt lat="40.5215120" lon="-1.8577810">
        <ele>1407.2</ele>
        <time>2019-07-05T15:32:01Z</time>
      </trkpt>
      <trkpt lat="40.5215400" lon="-1.8577980">
        <ele>1406.2</ele>
        <time>2019-07-05T15:32:03Z</time>
      </trkpt>
      <trkpt lat="40.5215530" lon="-1.8578040">
        <ele>1405.6</ele>
        <time>2019-07-05T15:32:04Z</time>
      </trkpt>
      <trkpt lat="40.5215760" lon="-1.8578150">
        <ele>1405.0</ele>
        <time>2019-07-05T15:32:06Z</time>
      </trkpt>
      <trkpt lat="40.5216210" lon="-1.8578320">
        <ele>1404.0</ele>
        <time>2019-07-05T15:32:09Z</time>
      </trkpt>
      <trkpt lat="40.5216620" lon="-1.8578460">
        <ele>1403.4</ele>
        <time>2019-07-05T15:32:12Z</time>
      </trkpt>
      <trkpt lat="40.5217100" lon="-1.8578720">
        <ele>1402.8</ele>
        <time>2019-07-05T15:32:16Z</time>
      </trkpt>
      <trkpt lat="40.5217360" lon="-1.8578900">
        <ele>1401.8</ele>
        <time>2019-07-05T15:32:18Z</time>
      </trkpt>
      <trkpt lat="40.5217500" lon="-1.8578980">
        <ele>1401.2</ele>
        <time>2019-07-05T15:32:19Z</time>
      </trkpt>
      <trkpt lat="40.5217970" lon="-1.8579170">
        <ele>1400.6</ele>
        <time>2019-07-05T15:32:22Z</time>
      </trkpt>
      <trkpt lat="40.5218380" lon="-1.8579400">
        <ele>1400.0</ele>
        <time>2019-07-05T15:32:25Z</time>
      </trkpt>
      <trkpt lat="40.5218600" lon="-1.8579520">
        <ele>1399.6</ele>
        <time>2019-07-05T15:32:27Z</time>
      </trkpt>
      <trkpt lat="40.5218770" lon="-1.8579670">
        <ele>1398.4</ele>
        <time>2019-07-05T15:32:29Z</time>
      </trkpt>
      <trkpt lat="40.5218840" lon="-1.8579750">
        <ele>1398.2</ele>
        <time>2019-07-05T15:32:31Z</time>
      </trkpt>
      <trkpt lat="40.5218850" lon="-1.8579740">
        <ele>1398.4</ele>
        <time>2019-07-05T15:32:32Z</time>
      </trkpt>
      <trkpt lat="40.5219140" lon="-1.8580040">
        <ele>1398.6</ele>
        <time>2019-07-05T15:32:58Z</time>
      </trkpt>
      <trkpt lat="40.5219630" lon="-1.8580590">
        <ele>1398.4</ele>
        <time>2019-07-05T15:33:00Z</time>
      </trkpt>
      <trkpt lat="40.5220560" lon="-1.8581780">
        <ele>1397.4</ele>
        <time>2019-07-05T15:33:03Z</time>
      </trkpt>
      <trkpt lat="40.5221150" lon="-1.8582520">
        <ele>1396.2</ele>
        <time>2019-07-05T15:33:05Z</time>
      </trkpt>
      <trkpt lat="40.5221660" lon="-1.8583130">
        <ele>1395.2</ele>
        <time>2019-07-05T15:33:07Z</time>
      </trkpt>
      <trkpt lat="40.5222790" lon="-1.8584350">
        <ele>1394.0</ele>
        <time>2019-07-05T15:33:11Z</time>
      </trkpt>
      <trkpt lat="40.5223450" lon="-1.8585010">
        <ele>1393.2</ele>
        <time>2019-07-05T15:33:13Z</time>
      </trkpt>
      <trkpt lat="40.5223770" lon="-1.8585270">
        <ele>1392.8</ele>
        <time>2019-07-05T15:33:14Z</time>
      </trkpt>
      <trkpt lat="40.5224360" lon="-1.8585650">
        <ele>1392.4</ele>
        <time>2019-07-05T15:33:16Z</time>
      </trkpt>
      <trkpt lat="40.5224650" lon="-1.8585780">
        <ele>1391.8</ele>
        <time>2019-07-05T15:33:17Z</time>
      </trkpt>
      <trkpt lat="40.5225660" lon="-1.8586090">
        <ele>1390.6</ele>
        <time>2019-07-05T15:33:20Z</time>
      </trkpt>
      <trkpt lat="40.5226260" lon="-1.8586180">
        <ele>1390.0</ele>
        <time>2019-07-05T15:33:22Z</time>
      </trkpt>
      <trkpt lat="40.5226530" lon="-1.8586230">
        <ele>1389.6</ele>
        <time>2019-07-05T15:33:23Z</time>
      </trkpt>
      <trkpt lat="40.5227110" lon="-1.8586350">
        <ele>1388.6</ele>
        <time>2019-07-05T15:33:25Z</time>
      </trkpt>
      <trkpt lat="40.5227680" lon="-1.8586500">
        <ele>1387.4</ele>
        <time>2019-07-05T15:33:27Z</time>
      </trkpt>
      <trkpt lat="40.5228240" lon="-1.8586800">
        <ele>1386.4</ele>
        <time>2019-07-05T15:33:29Z</time>
      </trkpt>
      <trkpt lat="40.5228520" lon="-1.8586900">
        <ele>1386.0</ele>
        <time>2019-07-05T15:33:30Z</time>
      </trkpt>
      <trkpt lat="40.5229320" lon="-1.8587270">
        <ele>1384.2</ele>
        <time>2019-07-05T15:33:33Z</time>
      </trkpt>
      <trkpt lat="40.5229790" lon="-1.8587470">
        <ele>1382.4</ele>
        <time>2019-07-05T15:33:35Z</time>
      </trkpt>
      <trkpt lat="40.5230330" lon="-1.8587490">
        <ele>1381.4</ele>
        <time>2019-07-05T15:33:37Z</time>
      </trkpt>
      <trkpt lat="40.5230370" lon="-1.8586800">
        <ele>1380.4</ele>
        <time>2019-07-05T15:33:40Z</time>
      </trkpt>
      <trkpt lat="40.5229820" lon="-1.8585830">
        <ele>1379.4</ele>
        <time>2019-07-05T15:33:43Z</time>
      </trkpt>
      <trkpt lat="40.5229820" lon="-1.8585830">
        <ele>1378.6</ele>
        <time>2019-07-05T15:33:44Z</time>
      </trkpt>
      <trkpt lat="40.5229580" lon="-1.8585410">
        <ele>1378.0</ele>
        <time>2019-07-05T15:33:46Z</time>
      </trkpt>
      <trkpt lat="40.5229440" lon="-1.8585290">
        <ele>1377.6</ele>
        <time>2019-07-05T15:33:47Z</time>
      </trkpt>
      <trkpt lat="40.5229170" lon="-1.8584920">
        <ele>1376.4</ele>
        <time>2019-07-05T15:33:49Z</time>
      </trkpt>
      <trkpt lat="40.5228970" lon="-1.8584560">
        <ele>1374.8</ele>
        <time>2019-07-05T15:33:51Z</time>
      </trkpt>
      <trkpt lat="40.5228740" lon="-1.8584250">
        <ele>1373.4</ele>
        <time>2019-07-05T15:33:53Z</time>
      </trkpt>
      <trkpt lat="40.5228630" lon="-1.8584020">
        <ele>1372.2</ele>
        <time>2019-07-05T15:33:56Z</time>
      </trkpt>
      <trkpt lat="40.5228280" lon="-1.8583360">
        <ele>1371.8</ele>
        <time>2019-07-05T15:34:02Z</time>
      </trkpt>
      <trkpt lat="40.5228210" lon="-1.8583180">
        <ele>1371.2</ele>
        <time>2019-07-05T15:34:03Z</time>
      </trkpt>
      <trkpt lat="40.5228090" lon="-1.8582870">
        <ele>1370.6</ele>
        <time>2019-07-05T15:34:05Z</time>
      </trkpt>
      <trkpt lat="40.5227970" lon="-1.8582550">
        <ele>1370.2</ele>
        <time>2019-07-05T15:34:07Z</time>
      </trkpt>
      <trkpt lat="40.5227850" lon="-1.8581980">
        <ele>1368.8</ele>
        <time>2019-07-05T15:34:10Z</time>
      </trkpt>
      <trkpt lat="40.5227830" lon="-1.8581780">
        <ele>1368.4</ele>
        <time>2019-07-05T15:34:11Z</time>
      </trkpt>
      <trkpt lat="40.5227600" lon="-1.8581100">
        <ele>1367.6</ele>
        <time>2019-07-05T15:34:15Z</time>
      </trkpt>
      <trkpt lat="40.5227200" lon="-1.8580330">
        <ele>1366.2</ele>
        <time>2019-07-05T15:34:19Z</time>
      </trkpt>
      <trkpt lat="40.5226930" lon="-1.8579850">
        <ele>1365.2</ele>
        <time>2019-07-05T15:34:23Z</time>
      </trkpt>
      <trkpt lat="40.5226550" lon="-1.8579270">
        <ele>1364.0</ele>
        <time>2019-07-05T15:34:27Z</time>
      </trkpt>
      <trkpt lat="40.5226140" lon="-1.8578830">
        <ele>1362.8</ele>
        <time>2019-07-05T15:34:31Z</time>
      </trkpt>
      <trkpt lat="40.5225990" lon="-1.8578560">
        <ele>1362.2</ele>
        <time>2019-07-05T15:34:33Z</time>
      </trkpt>
      <trkpt lat="40.5225830" lon="-1.8578280">
        <ele>1361.6</ele>
        <time>2019-07-05T15:34:35Z</time>
      </trkpt>
      <trkpt lat="40.5225520" lon="-1.8577790">
        <ele>1360.8</ele>
        <time>2019-07-05T15:34:39Z</time>
      </trkpt>
      <trkpt lat="40.5225450" lon="-1.8577610">
        <ele>1360.6</ele>
        <time>2019-07-05T15:34:40Z</time>
      </trkpt>
      <trkpt lat="40.5225310" lon="-1.8577270">
        <ele>1360.0</ele>
        <time>2019-07-05T15:34:42Z</time>
      </trkpt>
      <trkpt lat="40.5225100" lon="-1.8576880">
        <ele>1359.2</ele>
        <time>2019-07-05T15:34:45Z</time>
      </trkpt>
      <trkpt lat="40.5224920" lon="-1.8575930">
        <ele>1358.6</ele>
        <time>2019-07-05T15:34:52Z</time>
      </trkpt>
      <trkpt lat="40.5224940" lon="-1.8575810">
        <ele>1358.2</ele>
        <time>2019-07-05T15:34:53Z</time>
      </trkpt>
      <trkpt lat="40.5224940" lon="-1.8575530">
        <ele>1357.8</ele>
        <time>2019-07-05T15:34:56Z</time>
      </trkpt>
      <trkpt lat="40.5225650" lon="-1.8574370">
        <ele>1354.8</ele>
        <time>2019-07-05T15:35:10Z</time>
      </trkpt>
      <trkpt lat="40.5225770" lon="-1.8574350">
        <ele>1354.2</ele>
        <time>2019-07-05T15:35:11Z</time>
      </trkpt>
      <trkpt lat="40.5226000" lon="-1.8574310">
        <ele>1353.6</ele>
        <time>2019-07-05T15:35:13Z</time>
      </trkpt>
      <trkpt lat="40.5226400" lon="-1.8574140">
        <ele>1352.8</ele>
        <time>2019-07-05T15:35:17Z</time>
      </trkpt>
      <trkpt lat="40.5226500" lon="-1.8574110">
        <ele>1352.4</ele>
        <time>2019-07-05T15:35:18Z</time>
      </trkpt>
      <trkpt lat="40.5226610" lon="-1.8574090">
        <ele>1352.2</ele>
        <time>2019-07-05T15:35:19Z</time>
      </trkpt>
      <trkpt lat="40.5226860" lon="-1.8574090">
        <ele>1351.4</ele>
        <time>2019-07-05T15:35:21Z</time>
      </trkpt>
      <trkpt lat="40.5226980" lon="-1.8574050">
        <ele>1351.0</ele>
        <time>2019-07-05T15:35:22Z</time>
      </trkpt>
      <trkpt lat="40.5227120" lon="-1.8574040">
        <ele>1350.4</ele>
        <time>2019-07-05T15:35:23Z</time>
      </trkpt>
      <trkpt lat="40.5227540" lon="-1.8574040">
        <ele>1349.0</ele>
        <time>2019-07-05T15:35:25Z</time>
      </trkpt>
      <trkpt lat="40.5228130" lon="-1.8573980">
        <ele>1347.6</ele>
        <time>2019-07-05T15:35:30Z</time>
      </trkpt>
      <trkpt lat="40.5228310" lon="-1.8573930">
        <ele>1347.6</ele>
        <time>2019-07-05T15:35:31Z</time>
      </trkpt>
      <trkpt lat="40.5228910" lon="-1.8573970">
        <ele>1346.4</ele>
        <time>2019-07-05T15:35:35Z</time>
      </trkpt>
      <trkpt lat="40.5229210" lon="-1.8574050">
        <ele>1346.0</ele>
        <time>2019-07-05T15:35:37Z</time>
      </trkpt>
      <trkpt lat="40.5229720" lon="-1.8574050">
        <ele>1345.2</ele>
        <time>2019-07-05T15:35:40Z</time>
      </trkpt>
      <trkpt lat="40.5229850" lon="-1.8574070">
        <ele>1344.8</ele>
        <time>2019-07-05T15:35:41Z</time>
      </trkpt>
      <trkpt lat="40.5230340" lon="-1.8574100">
        <ele>1344.0</ele>
        <time>2019-07-05T15:35:45Z</time>
      </trkpt>
      <trkpt lat="40.5230760" lon="-1.8574010">
        <ele>1343.0</ele>
        <time>2019-07-05T15:35:48Z</time>
      </trkpt>
      <trkpt lat="40.5230910" lon="-1.8574020">
        <ele>1342.6</ele>
        <time>2019-07-05T15:35:49Z</time>
      </trkpt>
      <trkpt lat="40.5231420" lon="-1.8574080">
        <ele>1341.8</ele>
        <time>2019-07-05T15:35:52Z</time>
      </trkpt>
      <trkpt lat="40.5231810" lon="-1.8574090">
        <ele>1340.8</ele>
        <time>2019-07-05T15:35:55Z</time>
      </trkpt>
      <trkpt lat="40.5232440" lon="-1.8574230">
        <ele>1339.6</ele>
        <time>2019-07-05T15:36:00Z</time>
      </trkpt>
      <trkpt lat="40.5232880" lon="-1.8574200">
        <ele>1338.6</ele>
        <time>2019-07-05T15:36:03Z</time>
      </trkpt>
      <trkpt lat="40.5233300" lon="-1.8574120">
        <ele>1338.2</ele>
        <time>2019-07-05T15:36:06Z</time>
      </trkpt>
      <trkpt lat="40.5233700" lon="-1.8574170">
        <ele>1337.4</ele>
        <time>2019-07-05T15:36:09Z</time>
      </trkpt>
      <trkpt lat="40.5233950" lon="-1.8574220">
        <ele>1336.6</ele>
        <time>2019-07-05T15:36:11Z</time>
      </trkpt>
      <trkpt lat="40.5234080" lon="-1.8574270">
        <ele>1336.2</ele>
        <time>2019-07-05T15:36:12Z</time>
      </trkpt>
      <trkpt lat="40.5234420" lon="-1.8574290">
        <ele>1336.0</ele>
        <time>2019-07-05T15:36:13Z</time>
      </trkpt>
      <trkpt lat="40.5234840" lon="-1.8574260">
        <ele>1335.4</ele>
        <time>2019-07-05T15:36:17Z</time>
      </trkpt>
      <trkpt lat="40.5235190" lon="-1.8574190">
        <ele>1335.0</ele>
        <time>2019-07-05T15:36:19Z</time>
      </trkpt>
      <trkpt lat="40.5235840" lon="-1.8574050">
        <ele>1333.8</ele>
        <time>2019-07-05T15:36:23Z</time>
      </trkpt>
      <trkpt lat="40.5236270" lon="-1.8574020">
        <ele>1332.6</ele>
        <time>2019-07-05T15:36:25Z</time>
      </trkpt>
      <trkpt lat="40.5236530" lon="-1.8574010">
        <ele>1331.6</ele>
        <time>2019-07-05T15:36:28Z</time>
      </trkpt>
      <trkpt lat="40.5236810" lon="-1.8574000">
        <ele>1330.8</ele>
        <time>2019-07-05T15:36:30Z</time>
      </trkpt>
      <trkpt lat="40.5236950" lon="-1.8574000">
        <ele>1330.4</ele>
        <time>2019-07-05T15:36:31Z</time>
      </trkpt>
      <trkpt lat="40.5237400" lon="-1.8574000">
        <ele>1329.8</ele>
        <time>2019-07-05T15:36:34Z</time>
      </trkpt>
      <trkpt lat="40.5237670" lon="-1.8573960">
        <ele>1329.4</ele>
        <time>2019-07-05T15:36:36Z</time>
      </trkpt>
      <trkpt lat="40.5238050" lon="-1.8573990">
        <ele>1328.6</ele>
        <time>2019-07-05T15:36:39Z</time>
      </trkpt>
      <trkpt lat="40.5238180" lon="-1.8573980">
        <ele>1328.2</ele>
        <time>2019-07-05T15:36:40Z</time>
      </trkpt>
      <trkpt lat="40.5238580" lon="-1.8573920">
        <ele>1327.2</ele>
        <time>2019-07-05T15:36:43Z</time>
      </trkpt>
      <trkpt lat="40.5238730" lon="-1.8573920">
        <ele>1326.8</ele>
        <time>2019-07-05T15:36:44Z</time>
      </trkpt>
      <trkpt lat="40.5239160" lon="-1.8573960">
        <ele>1325.6</ele>
        <time>2019-07-05T15:36:47Z</time>
      </trkpt>
      <trkpt lat="40.5239540" lon="-1.8573960">
        <ele>1324.0</ele>
        <time>2019-07-05T15:36:50Z</time>
      </trkpt>
      <trkpt lat="40.5239610" lon="-1.8573950">
        <ele>1323.8</ele>
        <time>2019-07-05T15:36:51Z</time>
      </trkpt>
      <trkpt lat="40.5239970" lon="-1.8574010">
        <ele>1323.0</ele>
        <time>2019-07-05T15:36:54Z</time>
      </trkpt>
      <trkpt lat="40.5240400" lon="-1.8573960">
        <ele>1322.6</ele>
        <time>2019-07-05T15:36:57Z</time>
      </trkpt>
      <trkpt lat="40.5240540" lon="-1.8573970">
        <ele>1322.0</ele>
        <time>2019-07-05T15:36:58Z</time>
      </trkpt>
      <trkpt lat="40.5241010" lon="-1.8574010">
        <ele>1320.8</ele>
        <time>2019-07-05T15:37:01Z</time>
      </trkpt>
      <trkpt lat="40.5241130" lon="-1.8574030">
        <ele>1320.2</ele>
        <time>2019-07-05T15:37:03Z</time>
      </trkpt>
      <trkpt lat="40.5241380" lon="-1.8574070">
        <ele>1319.8</ele>
        <time>2019-07-05T15:37:05Z</time>
      </trkpt>
      <trkpt lat="40.5241980" lon="-1.8574160">
        <ele>1318.6</ele>
        <time>2019-07-05T15:37:10Z</time>
      </trkpt>
      <trkpt lat="40.5242170" lon="-1.8574180">
        <ele>1318.4</ele>
        <time>2019-07-05T15:37:11Z</time>
      </trkpt>
      <trkpt lat="40.5242970" lon="-1.8574060">
        <ele>1317.4</ele>
        <time>2019-07-05T15:37:16Z</time>
      </trkpt>
      <trkpt lat="40.5243120" lon="-1.8574050">
        <ele>1317.2</ele>
        <time>2019-07-05T15:37:17Z</time>
      </trkpt>
      <trkpt lat="40.5243500" lon="-1.8574010">
        <ele>1316.4</ele>
        <time>2019-07-05T15:37:19Z</time>
      </trkpt>
      <trkpt lat="40.5243810" lon="-1.8573890">
        <ele>1316.0</ele>
        <time>2019-07-05T15:37:22Z</time>
      </trkpt>
      <trkpt lat="40.5244130" lon="-1.8573910">
        <ele>1315.8</ele>
        <time>2019-07-05T15:37:24Z</time>
      </trkpt>
      <trkpt lat="40.5244450" lon="-1.8573870">
        <ele>1315.2</ele>
        <time>2019-07-05T15:37:26Z</time>
      </trkpt>
      <trkpt lat="40.5244860" lon="-1.8573890">
        <ele>1314.2</ele>
        <time>2019-07-05T15:37:29Z</time>
      </trkpt>
      <trkpt lat="40.5245000" lon="-1.8573880">
        <ele>1313.8</ele>
        <time>2019-07-05T15:37:30Z</time>
      </trkpt>
      <trkpt lat="40.5245580" lon="-1.8573810">
        <ele>1312.6</ele>
        <time>2019-07-05T15:37:34Z</time>
      </trkpt>
      <trkpt lat="40.5245900" lon="-1.8573800">
        <ele>1312.0</ele>
        <time>2019-07-05T15:37:36Z</time>
      </trkpt>
      <trkpt lat="40.5246540" lon="-1.8573850">
        <ele>1311.6</ele>
        <time>2019-07-05T15:37:40Z</time>
      </trkpt>
      <trkpt lat="40.5247080" lon="-1.8573870">
        <ele>1310.4</ele>
        <time>2019-07-05T15:37:43Z</time>
      </trkpt>
      <trkpt lat="40.5247370" lon="-1.8573850">
        <ele>1309.2</ele>
        <time>2019-07-05T15:37:46Z</time>
      </trkpt>
      <trkpt lat="40.5247810" lon="-1.8573840">
        <ele>1308.2</ele>
        <time>2019-07-05T15:37:49Z</time>
      </trkpt>
      <trkpt lat="40.5247940" lon="-1.8573860">
        <ele>1308.0</ele>
        <time>2019-07-05T15:37:50Z</time>
      </trkpt>
      <trkpt lat="40.5248540" lon="-1.8574160">
        <ele>1307.2</ele>
        <time>2019-07-05T15:37:55Z</time>
      </trkpt>
      <trkpt lat="40.5248690" lon="-1.8574190">
        <ele>1307.0</ele>
        <time>2019-07-05T15:37:56Z</time>
      </trkpt>
      <trkpt lat="40.5249500" lon="-1.8574290">
        <ele>1306.0</ele>
        <time>2019-07-05T15:38:01Z</time>
      </trkpt>
      <trkpt lat="40.5249650" lon="-1.8574340">
        <ele>1305.8</ele>
        <time>2019-07-05T15:38:02Z</time>
      </trkpt>
      <trkpt lat="40.5250360" lon="-1.8574510">
        <ele>1305.0</ele>
        <time>2019-07-05T15:38:07Z</time>
      </trkpt>
      <trkpt lat="40.5250510" lon="-1.8574540">
        <ele>1304.4</ele>
        <time>2019-07-05T15:38:08Z</time>
      </trkpt>
      <trkpt lat="40.5250950" lon="-1.8574670">
        <ele>1304.2</ele>
        <time>2019-07-05T15:38:11Z</time>
      </trkpt>
      <trkpt lat="40.5251450" lon="-1.8574720">
        <ele>1303.8</ele>
        <time>2019-07-05T15:38:13Z</time>
      </trkpt>
      <trkpt lat="40.5251450" lon="-1.8574720">
        <ele>1303.4</ele>
        <time>2019-07-05T15:38:14Z</time>
      </trkpt>
      <trkpt lat="40.5252010" lon="-1.8575010">
        <ele>1302.6</ele>
        <time>2019-07-05T15:38:18Z</time>
      </trkpt>
      <trkpt lat="40.5252270" lon="-1.8575150">
        <ele>1302.0</ele>
        <time>2019-07-05T15:38:20Z</time>
      </trkpt>
      <trkpt lat="40.5252710" lon="-1.8575390">
        <ele>1301.4</ele>
        <time>2019-07-05T15:38:23Z</time>
      </trkpt>
      <trkpt lat="40.5253400" lon="-1.8575830">
        <ele>1300.4</ele>
        <time>2019-07-05T15:38:28Z</time>
      </trkpt>
      <trkpt lat="40.5253530" lon="-1.8575970">
        <ele>1300.2</ele>
        <time>2019-07-05T15:38:31Z</time>
      </trkpt>
      <trkpt lat="40.5253900" lon="-1.8576230">
        <ele>1300.2</ele>
        <time>2019-07-05T15:38:35Z</time>
      </trkpt>
      <trkpt lat="40.5255090" lon="-1.8577290">
        <ele>1298.8</ele>
        <time>2019-07-05T15:38:39Z</time>
      </trkpt>
      <trkpt lat="40.5255980" lon="-1.8577950">
        <ele>1297.2</ele>
        <time>2019-07-05T15:38:42Z</time>
      </trkpt>
      <trkpt lat="40.5256520" lon="-1.8578320">
        <ele>1295.8</ele>
        <time>2019-07-05T15:38:44Z</time>
      </trkpt>
      <trkpt lat="40.5256780" lon="-1.8578500">
        <ele>1295.2</ele>
        <time>2019-07-05T15:38:45Z</time>
      </trkpt>
      <trkpt lat="40.5257050" lon="-1.8578680">
        <ele>1294.8</ele>
        <time>2019-07-05T15:38:46Z</time>
      </trkpt>
      <trkpt lat="40.5258220" lon="-1.8579380">
        <ele>1293.4</ele>
        <time>2019-07-05T15:38:50Z</time>
      </trkpt>
      <trkpt lat="40.5258860" lon="-1.8579670">
        <ele>1292.2</ele>
        <time>2019-07-05T15:38:52Z</time>
      </trkpt>
      <trkpt lat="40.5259570" lon="-1.8579950">
        <ele>1290.6</ele>
        <time>2019-07-05T15:38:54Z</time>
      </trkpt>
      <trkpt lat="40.5260300" lon="-1.8580080">
        <ele>1290.0</ele>
        <time>2019-07-05T15:38:56Z</time>
      </trkpt>
      <trkpt lat="40.5260770" lon="-1.8580210">
        <ele>1289.8</ele>
        <time>2019-07-05T15:38:57Z</time>
      </trkpt>
      <trkpt lat="40.5261320" lon="-1.8580410">
        <ele>1289.4</ele>
        <time>2019-07-05T15:38:58Z</time>
      </trkpt>
      <trkpt lat="40.5262490" lon="-1.8580920">
        <ele>1288.4</ele>
        <time>2019-07-05T15:39:00Z</time>
      </trkpt>
      <trkpt lat="40.5263560" lon="-1.8581560">
        <ele>1287.8</ele>
        <time>2019-07-05T15:39:01Z</time>
      </trkpt>
      <trkpt lat="40.5264460" lon="-1.8582130">
        <ele>1286.8</ele>
        <time>2019-07-05T15:39:04Z</time>
      </trkpt>
      <trkpt lat="40.5265280" lon="-1.8582720">
        <ele>1285.6</ele>
        <time>2019-07-05T15:39:06Z</time>
      </trkpt>
      <trkpt lat="40.5265610" lon="-1.8582990">
        <ele>1285.0</ele>
        <time>2019-07-05T15:39:07Z</time>
      </trkpt>
      <trkpt lat="40.5266130" lon="-1.8583510">
        <ele>1284.2</ele>
        <time>2019-07-05T15:39:09Z</time>
      </trkpt>
      <trkpt lat="40.5266770" lon="-1.8584000">
        <ele>1283.2</ele>
        <time>2019-07-05T15:39:11Z</time>
      </trkpt>
      <trkpt lat="40.5268000" lon="-1.8584680">
        <ele>1282.2</ele>
        <time>2019-07-05T15:39:13Z</time>
      </trkpt>
      <trkpt lat="40.5268000" lon="-1.8584680">
        <ele>1281.4</ele>
        <time>2019-07-05T15:39:14Z</time>
      </trkpt>
      <trkpt lat="40.5268930" lon="-1.8585220">
        <ele>1280.4</ele>
        <time>2019-07-05T15:39:16Z</time>
      </trkpt>
      <trkpt lat="40.5269660" lon="-1.8585550">
        <ele>1279.0</ele>
        <time>2019-07-05T15:39:18Z</time>
      </trkpt>
      <trkpt lat="40.5270210" lon="-1.8585930">
        <ele>1278.6</ele>
        <time>2019-07-05T15:39:19Z</time>
      </trkpt>
      <trkpt lat="40.5270440" lon="-1.8586090">
        <ele>1278.0</ele>
        <time>2019-07-05T15:39:21Z</time>
      </trkpt>
      <trkpt lat="40.5270650" lon="-1.8586240">
        <ele>1277.8</ele>
        <time>2019-07-05T15:39:22Z</time>
      </trkpt>
      <trkpt lat="40.5271290" lon="-1.8586870">
        <ele>1277.6</ele>
        <time>2019-07-05T15:39:25Z</time>
      </trkpt>
      <trkpt lat="40.5272090" lon="-1.8586930">
        <ele>1278.8</ele>
        <time>2019-07-05T15:39:29Z</time>
      </trkpt>
      <trkpt lat="40.5273070" lon="-1.8586500">
        <ele>1278.8</ele>
        <time>2019-07-05T15:39:33Z</time>
      </trkpt>
      <trkpt lat="40.5273810" lon="-1.8586230">
        <ele>1278.8</ele>
        <time>2019-07-05T15:39:36Z</time>
      </trkpt>
      <trkpt lat="40.5273950" lon="-1.8586210">
        <ele>1279.0</ele>
        <time>2019-07-05T15:39:38Z</time>
      </trkpt>
      <trkpt lat="40.5275570" lon="-1.8587360">
        <ele>1282.4</ele>
        <time>2019-07-05T15:41:08Z</time>
      </trkpt>
      <trkpt lat="40.5275570" lon="-1.8586660">
        <ele>1282.4</ele>
        <time>2019-07-05T15:41:12Z</time>
      </trkpt>
      <trkpt lat="40.5275520" lon="-1.8586280">
        <ele>1282.0</ele>
        <time>2019-07-05T15:41:14Z</time>
      </trkpt>
      <trkpt lat="40.5275370" lon="-1.8585560">
        <ele>1281.2</ele>
        <time>2019-07-05T15:41:18Z</time>
      </trkpt>
      <trkpt lat="40.5275410" lon="-1.8585070">
        <ele>1281.2</ele>
        <time>2019-07-05T15:41:21Z</time>
      </trkpt>
      <trkpt lat="40.5275460" lon="-1.8584750">
        <ele>1281.0</ele>
        <time>2019-07-05T15:41:23Z</time>
      </trkpt>
      <trkpt lat="40.5275520" lon="-1.8584230">
        <ele>1280.8</ele>
        <time>2019-07-05T15:41:25Z</time>
      </trkpt>
      <trkpt lat="40.5275530" lon="-1.8583950">
        <ele>1280.8</ele>
        <time>2019-07-05T15:41:28Z</time>
      </trkpt>
      <trkpt lat="40.5275600" lon="-1.8583900">
        <ele>1280.6</ele>
        <time>2019-07-05T15:41:30Z</time>
      </trkpt>
      <trkpt lat="40.5275800" lon="-1.8583650">
        <ele>1280.4</ele>
        <time>2019-07-05T15:41:36Z</time>
      </trkpt>
      <trkpt lat="40.5275860" lon="-1.8583200">
        <ele>1280.4</ele>
        <time>2019-07-05T15:41:37Z</time>
      </trkpt>
      <trkpt lat="40.5275860" lon="-1.8583200">
        <ele>1280.4</ele>
        <time>2019-07-05T15:41:38Z</time>
      </trkpt>
      <trkpt lat="40.5275740" lon="-1.8582940">
        <ele>1280.4</ele>
        <time>2019-07-05T15:41:39Z</time>
      </trkpt>
      <trkpt lat="40.5275230" lon="-1.8582600">
        <ele>1280.2</ele>
        <time>2019-07-05T15:41:41Z</time>
      </trkpt>
      <trkpt lat="40.5274770" lon="-1.8582060">
        <ele>1279.6</ele>
        <time>2019-07-05T15:41:44Z</time>
      </trkpt>
      <trkpt lat="40.5274870" lon="-1.8581830">
        <ele>1279.4</ele>
        <time>2019-07-05T15:41:45Z</time>
      </trkpt>
      <trkpt lat="40.5275260" lon="-1.8581770">
        <ele>1279.2</ele>
        <time>2019-07-05T15:41:47Z</time>
      </trkpt>
      <trkpt lat="40.5275500" lon="-1.8582500">
        <ele>1279.2</ele>
        <time>2019-07-05T15:41:50Z</time>
      </trkpt>
      <trkpt lat="40.5275560" lon="-1.8582780">
        <ele>1279.4</ele>
        <time>2019-07-05T15:41:51Z</time>
      </trkpt>
      <trkpt lat="40.5275700" lon="-1.8584500">
        <ele>1280.4</ele>
        <time>2019-07-05T15:41:57Z</time>
      </trkpt>
      <trkpt lat="40.5275700" lon="-1.8584790">
        <ele>1280.6</ele>
        <time>2019-07-05T15:41:58Z</time>
      </trkpt>
      <trkpt lat="40.5275650" lon="-1.8585630">
        <ele>1281.8</ele>
        <time>2019-07-05T15:42:01Z</time>
      </trkpt>
      <trkpt lat="40.5275710" lon="-1.8586460">
        <ele>1282.4</ele>
        <time>2019-07-05T15:42:04Z</time>
      </trkpt>
      <trkpt lat="40.5275800" lon="-1.8586990">
        <ele>1282.6</ele>
        <time>2019-07-05T15:42:06Z</time>
      </trkpt>
      <trkpt lat="40.5275930" lon="-1.8587750">
        <ele>1282.8</ele>
        <time>2019-07-05T15:42:09Z</time>
      </trkpt>
      <trkpt lat="40.5275960" lon="-1.8587990">
        <ele>1283.0</ele>
        <time>2019-07-05T15:42:10Z</time>
      </trkpt>
      <trkpt lat="40.5276010" lon="-1.8588480">
        <ele>1283.6</ele>
        <time>2019-07-05T15:42:12Z</time>
      </trkpt>
      <trkpt lat="40.5275960" lon="-1.8589170">
        <ele>1284.4</ele>
        <time>2019-07-05T15:42:15Z</time>
      </trkpt>
      <trkpt lat="40.5276010" lon="-1.8590140">
        <ele>1285.2</ele>
        <time>2019-07-05T15:42:19Z</time>
      </trkpt>
      <trkpt lat="40.5276010" lon="-1.8590140">
        <ele>1285.6</ele>
        <time>2019-07-05T15:42:20Z</time>
      </trkpt>
      <trkpt lat="40.5276030" lon="-1.8590900">
        <ele>1286.2</ele>
        <time>2019-07-05T15:42:24Z</time>
      </trkpt>
      <trkpt lat="40.5276070" lon="-1.8591070">
        <ele>1286.6</ele>
        <time>2019-07-05T15:42:25Z</time>
      </trkpt>
      <trkpt lat="40.5276120" lon="-1.8591650">
        <ele>1287.2</ele>
        <time>2019-07-05T15:42:28Z</time>
      </trkpt>
      <trkpt lat="40.5276180" lon="-1.8592060">
        <ele>1288.0</ele>
        <time>2019-07-05T15:42:30Z</time>
      </trkpt>
      <trkpt lat="40.5276560" lon="-1.8592860">
        <ele>1289.2</ele>
        <time>2019-07-05T15:42:35Z</time>
      </trkpt>
      <trkpt lat="40.5277430" lon="-1.8593210">
        <ele>1290.4</ele>
        <time>2019-07-05T15:42:41Z</time>
      </trkpt>
      <trkpt lat="40.5277600" lon="-1.8593190">
        <ele>1290.6</ele>
        <time>2019-07-05T15:42:42Z</time>
      </trkpt>
      <trkpt lat="40.5278980" lon="-1.8593140">
        <ele>1291.2</ele>
        <time>2019-07-05T15:42:49Z</time>
      </trkpt>
      <trkpt lat="40.5279130" lon="-1.8593170">
        <ele>1291.6</ele>
        <time>2019-07-05T15:42:51Z</time>
      </trkpt>
      <trkpt lat="40.5280030" lon="-1.8592960">
        <ele>1292.2</ele>
        <time>2019-07-05T15:42:56Z</time>
      </trkpt>
      <trkpt lat="40.5280950" lon="-1.8592660">
        <ele>1292.8</ele>
        <time>2019-07-05T15:43:00Z</time>
      </trkpt>
      <trkpt lat="40.5281430" lon="-1.8592590">
        <ele>1293.4</ele>
        <time>2019-07-05T15:43:04Z</time>
      </trkpt>
      <trkpt lat="40.5282120" lon="-1.8592620">
        <ele>1293.8</ele>
        <time>2019-07-05T15:43:08Z</time>
      </trkpt>
      <trkpt lat="40.5282590" lon="-1.8592690">
        <ele>1294.4</ele>
        <time>2019-07-05T15:43:11Z</time>
      </trkpt>
      <trkpt lat="40.5282750" lon="-1.8592650">
        <ele>1294.6</ele>
        <time>2019-07-05T15:43:12Z</time>
      </trkpt>
      <trkpt lat="40.5283040" lon="-1.8592450">
        <ele>1294.8</ele>
        <time>2019-07-05T15:43:13Z</time>
      </trkpt>
      <trkpt lat="40.5283510" lon="-1.8591930">
        <ele>1295.8</ele>
        <time>2019-07-05T15:43:18Z</time>
      </trkpt>
      <trkpt lat="40.5283620" lon="-1.8591460">
        <ele>1295.8</ele>
        <time>2019-07-05T15:43:19Z</time>
      </trkpt>
      <trkpt lat="40.5283630" lon="-1.8591240">
        <ele>1296.0</ele>
        <time>2019-07-05T15:43:21Z</time>
      </trkpt>
      <trkpt lat="40.5283530" lon="-1.8590780">
        <ele>1296.2</ele>
        <time>2019-07-05T15:43:23Z</time>
      </trkpt>
      <trkpt lat="40.5282880" lon="-1.8589260">
        <ele>1297.2</ele>
        <time>2019-07-05T15:43:30Z</time>
      </trkpt>
      <trkpt lat="40.5282840" lon="-1.8588530">
        <ele>1298.2</ele>
        <time>2019-07-05T15:43:33Z</time>
      </trkpt>
      <trkpt lat="40.5283110" lon="-1.8587470">
        <ele>1298.8</ele>
        <time>2019-07-05T15:43:37Z</time>
      </trkpt>
      <trkpt lat="40.5283400" lon="-1.8586770">
        <ele>1299.6</ele>
        <time>2019-07-05T15:43:42Z</time>
      </trkpt>
      <trkpt lat="40.5283610" lon="-1.8586120">
        <ele>1300.0</ele>
        <time>2019-07-05T15:43:45Z</time>
      </trkpt>
      <trkpt lat="40.5283960" lon="-1.8585060">
        <ele>1300.8</ele>
        <time>2019-07-05T15:43:49Z</time>
      </trkpt>
      <trkpt lat="40.5284240" lon="-1.8584220">
        <ele>1301.8</ele>
        <time>2019-07-05T15:43:54Z</time>
      </trkpt>
      <trkpt lat="40.5284430" lon="-1.8583760">
        <ele>1302.0</ele>
        <time>2019-07-05T15:43:55Z</time>
      </trkpt>
      <trkpt lat="40.5284670" lon="-1.8583190">
        <ele>1303.0</ele>
        <time>2019-07-05T15:43:59Z</time>
      </trkpt>
      <trkpt lat="40.5284900" lon="-1.8582530">
        <ele>1303.8</ele>
        <time>2019-07-05T15:44:01Z</time>
      </trkpt>
      <trkpt lat="40.5285130" lon="-1.8582140">
        <ele>1304.2</ele>
        <time>2019-07-05T15:44:04Z</time>
      </trkpt>
      <trkpt lat="40.5285870" lon="-1.8581570">
        <ele>1305.0</ele>
        <time>2019-07-05T15:44:09Z</time>
      </trkpt>
      <trkpt lat="40.5286100" lon="-1.8581460">
        <ele>1305.4</ele>
        <time>2019-07-05T15:44:11Z</time>
      </trkpt>
      <trkpt lat="40.5286560" lon="-1.8581430">
        <ele>1305.6</ele>
        <time>2019-07-05T15:44:13Z</time>
      </trkpt>
      <trkpt lat="40.5286560" lon="-1.8581430">
        <ele>1306.2</ele>
        <time>2019-07-05T15:44:14Z</time>
      </trkpt>
      <trkpt lat="40.5286740" lon="-1.8581470">
        <ele>1306.6</ele>
        <time>2019-07-05T15:44:15Z</time>
      </trkpt>
      <trkpt lat="40.5287460" lon="-1.8581940">
        <ele>1307.6</ele>
        <time>2019-07-05T15:44:19Z</time>
      </trkpt>
      <trkpt lat="40.5287590" lon="-1.8582040">
        <ele>1308.2</ele>
        <time>2019-07-05T15:44:21Z</time>
      </trkpt>
      <trkpt lat="40.5287710" lon="-1.8582170">
        <ele>1308.8</ele>
        <time>2019-07-05T15:44:22Z</time>
      </trkpt>
      <trkpt lat="40.5288150" lon="-1.8582660">
        <ele>1310.0</ele>
        <time>2019-07-05T15:44:25Z</time>
      </trkpt>
      <trkpt lat="40.5288630" lon="-1.8583150">
        <ele>1310.8</ele>
        <time>2019-07-05T15:44:30Z</time>
      </trkpt>
      <trkpt lat="40.5289020" lon="-1.8583620">
        <ele>1311.6</ele>
        <time>2019-07-05T15:44:33Z</time>
      </trkpt>
      <trkpt lat="40.5289580" lon="-1.8584240">
        <ele>1312.6</ele>
        <time>2019-07-05T15:44:37Z</time>
      </trkpt>
      <trkpt lat="40.5289580" lon="-1.8584240">
        <ele>1312.8</ele>
        <time>2019-07-05T15:44:38Z</time>
      </trkpt>
      <trkpt lat="40.5289940" lon="-1.8584590">
        <ele>1313.6</ele>
        <time>2019-07-05T15:44:41Z</time>
      </trkpt>
      <trkpt lat="40.5290430" lon="-1.8585260">
        <ele>1314.2</ele>
        <time>2019-07-05T15:44:45Z</time>
      </trkpt>
      <trkpt lat="40.5290660" lon="-1.8585560">
        <ele>1314.8</ele>
        <time>2019-07-05T15:44:47Z</time>
      </trkpt>
      <trkpt lat="40.5291060" lon="-1.8586210">
        <ele>1315.2</ele>
        <time>2019-07-05T15:44:51Z</time>
      </trkpt>
      <trkpt lat="40.5291820" lon="-1.8587120">
        <ele>1316.0</ele>
        <time>2019-07-05T15:44:58Z</time>
      </trkpt>
      <trkpt lat="40.5291950" lon="-1.8587230">
        <ele>1316.2</ele>
        <time>2019-07-05T15:44:59Z</time>
      </trkpt>
      <trkpt lat="40.5292250" lon="-1.8587690">
        <ele>1317.4</ele>
        <time>2019-07-05T15:45:02Z</time>
      </trkpt>
      <trkpt lat="40.5292970" lon="-1.8588700">
        <ele>1318.2</ele>
        <time>2019-07-05T15:45:07Z</time>
      </trkpt>
      <trkpt lat="40.5293100" lon="-1.8588870">
        <ele>1318.4</ele>
        <time>2019-07-05T15:45:08Z</time>
      </trkpt>
      <trkpt lat="40.5293800" lon="-1.8589620">
        <ele>1319.6</ele>
        <time>2019-07-05T15:45:13Z</time>
      </trkpt>
      <trkpt lat="40.5294220" lon="-1.8590110">
        <ele>1320.2</ele>
        <time>2019-07-05T15:45:17Z</time>
      </trkpt>
      <trkpt lat="40.5294650" lon="-1.8590630">
        <ele>1320.8</ele>
        <time>2019-07-05T15:45:19Z</time>
      </trkpt>
      <trkpt lat="40.5295630" lon="-1.8591990">
        <ele>1321.8</ele>
        <time>2019-07-05T15:45:26Z</time>
      </trkpt>
      <trkpt lat="40.5295920" lon="-1.8592370">
        <ele>1322.4</ele>
        <time>2019-07-05T15:45:28Z</time>
      </trkpt>
      <trkpt lat="40.5296450" lon="-1.8593110">
        <ele>1323.2</ele>
        <time>2019-07-05T15:45:33Z</time>
      </trkpt>
      <trkpt lat="40.5297070" lon="-1.8593980">
        <ele>1324.0</ele>
        <time>2019-07-05T15:45:37Z</time>
      </trkpt>
      <trkpt lat="40.5297190" lon="-1.8594160">
        <ele>1324.4</ele>
        <time>2019-07-05T15:45:39Z</time>
      </trkpt>
      <trkpt lat="40.5297950" lon="-1.8595210">
        <ele>1325.4</ele>
        <time>2019-07-05T15:45:44Z</time>
      </trkpt>
      <trkpt lat="40.5298200" lon="-1.8595560">
        <ele>1326.6</ele>
        <time>2019-07-05T15:45:47Z</time>
      </trkpt>
      <trkpt lat="40.5298480" lon="-1.8595870">
        <ele>1326.8</ele>
        <time>2019-07-05T15:45:48Z</time>
      </trkpt>
      <trkpt lat="40.5299060" lon="-1.8596520">
        <ele>1327.4</ele>
        <time>2019-07-05T15:45:52Z</time>
      </trkpt>
      <trkpt lat="40.5299350" lon="-1.8596870">
        <ele>1327.6</ele>
        <time>2019-07-05T15:45:54Z</time>
      </trkpt>
      <trkpt lat="40.5299910" lon="-1.8597530">
        <ele>1328.6</ele>
        <time>2019-07-05T15:45:59Z</time>
      </trkpt>
      <trkpt lat="40.5300230" lon="-1.8597830">
        <ele>1328.8</ele>
        <time>2019-07-05T15:46:00Z</time>
      </trkpt>
      <trkpt lat="40.5300540" lon="-1.8598170">
        <ele>1329.2</ele>
        <time>2019-07-05T15:46:02Z</time>
      </trkpt>
      <trkpt lat="40.5300860" lon="-1.8598470">
        <ele>1330.0</ele>
        <time>2019-07-05T15:46:05Z</time>
      </trkpt>
      <trkpt lat="40.5301440" lon="-1.8599210">
        <ele>1330.4</ele>
        <time>2019-07-05T15:46:08Z</time>
      </trkpt>
      <trkpt lat="40.5302030" lon="-1.8599930">
        <ele>1331.0</ele>
        <time>2019-07-05T15:46:12Z</time>
      </trkpt>
      <trkpt lat="40.5302660" lon="-1.8600850">
        <ele>1331.4</ele>
        <time>2019-07-05T15:46:17Z</time>
      </trkpt>
      <trkpt lat="40.5303130" lon="-1.8602330">
        <ele>1331.4</ele>
        <time>2019-07-05T15:46:21Z</time>
      </trkpt>
      <trkpt lat="40.5303080" lon="-1.8604350">
        <ele>1331.4</ele>
        <time>2019-07-05T15:46:25Z</time>
      </trkpt>
      <trkpt lat="40.5303310" lon="-1.8606990">
        <ele>1332.6</ele>
        <time>2019-07-05T15:46:31Z</time>
      </trkpt>
      <trkpt lat="40.5303370" lon="-1.8607430">
        <ele>1332.8</ele>
        <time>2019-07-05T15:46:33Z</time>
      </trkpt>
      <trkpt lat="40.5303730" lon="-1.8610140">
        <ele>1333.2</ele>
        <time>2019-07-05T15:46:38Z</time>
      </trkpt>
      <trkpt lat="40.5303400" lon="-1.8610770">
        <ele>1333.4</ele>
        <time>2019-07-05T15:46:40Z</time>
      </trkpt>
      <trkpt lat="40.5303020" lon="-1.8611240">
        <ele>1333.6</ele>
        <time>2019-07-05T15:46:42Z</time>
      </trkpt>
      <trkpt lat="40.5302800" lon="-1.8611440">
        <ele>1333.8</ele>
        <time>2019-07-05T15:46:43Z</time>
      </trkpt>
      <trkpt lat="40.5301610" lon="-1.8612230">
        <ele>1335.0</ele>
        <time>2019-07-05T15:46:49Z</time>
      </trkpt>
      <trkpt lat="40.5301050" lon="-1.8612770">
        <ele>1336.0</ele>
        <time>2019-07-05T15:46:52Z</time>
      </trkpt>
      <trkpt lat="40.5300680" lon="-1.8613480">
        <ele>1337.0</ele>
        <time>2019-07-05T15:46:55Z</time>
      </trkpt>
      <trkpt lat="40.5300910" lon="-1.8615300">
        <ele>1338.2</ele>
        <time>2019-07-05T15:47:01Z</time>
      </trkpt>
      <trkpt lat="40.5302130" lon="-1.8616820">
        <ele>1339.0</ele>
        <time>2019-07-05T15:47:07Z</time>
      </trkpt>
      <trkpt lat="40.5302330" lon="-1.8617050">
        <ele>1339.4</ele>
        <time>2019-07-05T15:47:09Z</time>
      </trkpt>
      <trkpt lat="40.5303660" lon="-1.8618750">
        <ele>1339.6</ele>
        <time>2019-07-05T15:47:15Z</time>
      </trkpt>
      <trkpt lat="40.5304630" lon="-1.8620030">
        <ele>1340.4</ele>
        <time>2019-07-05T15:47:21Z</time>
      </trkpt>
      <trkpt lat="40.5305050" lon="-1.8620700">
        <ele>1340.4</ele>
        <time>2019-07-05T15:47:23Z</time>
      </trkpt>
      <trkpt lat="40.5306690" lon="-1.8622930">
        <ele>1340.4</ele>
        <time>2019-07-05T15:47:29Z</time>
      </trkpt>
      <trkpt lat="40.5307560" lon="-1.8624370">
        <ele>1340.4</ele>
        <time>2019-07-05T15:47:33Z</time>
      </trkpt>
      <trkpt lat="40.5307770" lon="-1.8625430">
        <ele>1340.0</ele>
        <time>2019-07-05T15:47:34Z</time>
      </trkpt>
      <trkpt lat="40.5308110" lon="-1.8627790">
        <ele>1339.6</ele>
        <time>2019-07-05T15:47:38Z</time>
      </trkpt>
      <trkpt lat="40.5308240" lon="-1.8629010">
        <ele>1339.6</ele>
        <time>2019-07-05T15:47:40Z</time>
      </trkpt>
      <trkpt lat="40.5308560" lon="-1.8630190">
        <ele>1339.8</ele>
        <time>2019-07-05T15:47:42Z</time>
      </trkpt>
      <trkpt lat="40.5308990" lon="-1.8631310">
        <ele>1339.8</ele>
        <time>2019-07-05T15:47:44Z</time>
      </trkpt>
      <trkpt lat="40.5310000" lon="-1.8633310">
        <ele>1339.4</ele>
        <time>2019-07-05T15:47:48Z</time>
      </trkpt>
      <trkpt lat="40.5311040" lon="-1.8635140">
        <ele>1339.6</ele>
        <time>2019-07-05T15:47:53Z</time>
      </trkpt>
      <trkpt lat="40.5312140" lon="-1.8636860">
        <ele>1339.6</ele>
        <time>2019-07-05T15:47:57Z</time>
      </trkpt>
      <trkpt lat="40.5313630" lon="-1.8639220">
        <ele>1339.8</ele>
        <time>2019-07-05T15:48:01Z</time>
      </trkpt>
      <trkpt lat="40.5314740" lon="-1.8640610">
        <ele>1339.2</ele>
        <time>2019-07-05T15:48:04Z</time>
      </trkpt>
      <trkpt lat="40.5316070" lon="-1.8642040">
        <ele>1338.8</ele>
        <time>2019-07-05T15:48:07Z</time>
      </trkpt>
      <trkpt lat="40.5316520" lon="-1.8642550">
        <ele>1338.8</ele>
        <time>2019-07-05T15:48:09Z</time>
      </trkpt>
      <trkpt lat="40.5317300" lon="-1.8643670">
        <ele>1338.8</ele>
        <time>2019-07-05T15:48:10Z</time>
      </trkpt>
      <trkpt lat="40.5317830" lon="-1.8644860">
        <ele>1338.6</ele>
        <time>2019-07-05T15:48:12Z</time>
      </trkpt>
      <trkpt lat="40.5318380" lon="-1.8647070">
        <ele>1339.0</ele>
        <time>2019-07-05T15:48:17Z</time>
      </trkpt>
      <trkpt lat="40.5318600" lon="-1.8648000">
        <ele>1339.2</ele>
        <time>2019-07-05T15:48:18Z</time>
      </trkpt>
      <trkpt lat="40.5318890" lon="-1.8648910">
        <ele>1339.8</ele>
        <time>2019-07-05T15:48:20Z</time>
      </trkpt>
      <trkpt lat="40.5319540" lon="-1.8650450">
        <ele>1341.2</ele>
        <time>2019-07-05T15:48:24Z</time>
      </trkpt>
      <trkpt lat="40.5319700" lon="-1.8650740">
        <ele>1341.4</ele>
        <time>2019-07-05T15:48:25Z</time>
      </trkpt>
      <trkpt lat="40.5320170" lon="-1.8651560">
        <ele>1342.2</ele>
        <time>2019-07-05T15:48:28Z</time>
      </trkpt>
      <trkpt lat="40.5320870" lon="-1.8652680">
        <ele>1343.2</ele>
        <time>2019-07-05T15:48:32Z</time>
      </trkpt>
      <trkpt lat="40.5321280" lon="-1.8653280">
        <ele>1343.6</ele>
        <time>2019-07-05T15:48:34Z</time>
      </trkpt>
      <trkpt lat="40.5322920" lon="-1.8655210">
        <ele>1343.8</ele>
        <time>2019-07-05T15:48:41Z</time>
      </trkpt>
      <trkpt lat="40.5324900" lon="-1.8656790">
        <ele>1342.8</ele>
        <time>2019-07-05T15:48:45Z</time>
      </trkpt>
      <trkpt lat="40.5325910" lon="-1.8657690">
        <ele>1342.4</ele>
        <time>2019-07-05T15:48:47Z</time>
      </trkpt>
      <trkpt lat="40.5327970" lon="-1.8659360">
        <ele>1341.2</ele>
        <time>2019-07-05T15:48:51Z</time>
      </trkpt>
      <trkpt lat="40.5329630" lon="-1.8660720">
        <ele>1342.0</ele>
        <time>2019-07-05T15:48:55Z</time>
      </trkpt>
      <trkpt lat="40.5329890" lon="-1.8660940">
        <ele>1342.2</ele>
        <time>2019-07-05T15:48:57Z</time>
      </trkpt>
      <trkpt lat="40.5331050" lon="-1.8662320">
        <ele>1343.4</ele>
        <time>2019-07-05T15:49:01Z</time>
      </trkpt>
      <trkpt lat="40.5331260" lon="-1.8662620">
        <ele>1343.6</ele>
        <time>2019-07-05T15:49:02Z</time>
      </trkpt>
      <trkpt lat="40.5332910" lon="-1.8664890">
        <ele>1344.2</ele>
        <time>2019-07-05T15:49:10Z</time>
      </trkpt>
      <trkpt lat="40.5332910" lon="-1.8664890">
        <ele>1344.6</ele>
        <time>2019-07-05T15:49:11Z</time>
      </trkpt>
      <trkpt lat="40.5334140" lon="-1.8666250">
        <ele>1345.6</ele>
        <time>2019-07-05T15:49:16Z</time>
      </trkpt>
      <trkpt lat="40.5334140" lon="-1.8666250">
        <ele>1345.8</ele>
        <time>2019-07-05T15:49:17Z</time>
      </trkpt>
      <trkpt lat="40.5335470" lon="-1.8667580">
        <ele>1346.6</ele>
        <time>2019-07-05T15:49:23Z</time>
      </trkpt>
      <trkpt lat="40.5335930" lon="-1.8668020">
        <ele>1346.8</ele>
        <time>2019-07-05T15:49:24Z</time>
      </trkpt>
      <trkpt lat="40.5337310" lon="-1.8669910">
        <ele>1347.6</ele>
        <time>2019-07-05T15:49:30Z</time>
      </trkpt>
      <trkpt lat="40.5337760" lon="-1.8670680">
        <ele>1347.6</ele>
        <time>2019-07-05T15:49:32Z</time>
      </trkpt>
      <trkpt lat="40.5339280" lon="-1.8672810">
        <ele>1348.2</ele>
        <time>2019-07-05T15:49:38Z</time>
      </trkpt>
      <trkpt lat="40.5339830" lon="-1.8673480">
        <ele>1348.4</ele>
        <time>2019-07-05T15:49:41Z</time>
      </trkpt>
      <trkpt lat="40.5341560" lon="-1.8675080">
        <ele>1348.6</ele>
        <time>2019-07-05T15:49:46Z</time>
      </trkpt>
      <trkpt lat="40.5342080" lon="-1.8675510">
        <ele>1349.2</ele>
        <time>2019-07-05T15:49:48Z</time>
      </trkpt>
      <trkpt lat="40.5342610" lon="-1.8675960">
        <ele>1350.0</ele>
        <time>2019-07-05T15:49:51Z</time>
      </trkpt>
      <trkpt lat="40.5344000" lon="-1.8676870">
        <ele>1351.0</ele>
        <time>2019-07-05T15:49:55Z</time>
      </trkpt>
      <trkpt lat="40.5344280" lon="-1.8677010">
        <ele>1351.2</ele>
        <time>2019-07-05T15:49:56Z</time>
      </trkpt>
      <trkpt lat="40.5346090" lon="-1.8677370">
        <ele>1352.6</ele>
        <time>2019-07-05T15:50:02Z</time>
      </trkpt>
      <trkpt lat="40.5348170" lon="-1.8677480">
        <ele>1353.2</ele>
        <time>2019-07-05T15:50:08Z</time>
      </trkpt>
      <trkpt lat="40.5349040" lon="-1.8677720">
        <ele>1353.2</ele>
        <time>2019-07-05T15:50:10Z</time>
      </trkpt>
      <trkpt lat="40.5350400" lon="-1.8678280">
        <ele>1352.8</ele>
        <time>2019-07-05T15:50:13Z</time>
      </trkpt>
      <trkpt lat="40.5351870" lon="-1.8678970">
        <ele>1352.8</ele>
        <time>2019-07-05T15:50:16Z</time>
      </trkpt>
      <trkpt lat="40.5352990" lon="-1.8679740">
        <ele>1351.8</ele>
        <time>2019-07-05T15:50:18Z</time>
      </trkpt>
      <trkpt lat="40.5353570" lon="-1.8680160">
        <ele>1351.8</ele>
        <time>2019-07-05T15:50:19Z</time>
      </trkpt>
      <trkpt lat="40.5354150" lon="-1.8680660">
        <ele>1351.4</ele>
        <time>2019-07-05T15:50:20Z</time>
      </trkpt>
      <trkpt lat="40.5355170" lon="-1.8681760">
        <ele>1350.4</ele>
        <time>2019-07-05T15:50:22Z</time>
      </trkpt>
      <trkpt lat="40.5355930" lon="-1.8682990">
        <ele>1349.0</ele>
        <time>2019-07-05T15:50:24Z</time>
      </trkpt>
      <trkpt lat="40.5356330" lon="-1.8684460">
        <ele>1348.0</ele>
        <time>2019-07-05T15:50:27Z</time>
      </trkpt>
      <trkpt lat="40.5356310" lon="-1.8686030">
        <ele>1348.0</ele>
        <time>2019-07-05T15:50:28Z</time>
      </trkpt>
      <trkpt lat="40.5355990" lon="-1.8687420">
        <ele>1347.6</ele>
        <time>2019-07-05T15:50:30Z</time>
      </trkpt>
      <trkpt lat="40.5355630" lon="-1.8688910">
        <ele>1347.2</ele>
        <time>2019-07-05T15:50:32Z</time>
      </trkpt>
      <trkpt lat="40.5355230" lon="-1.8691700">
        <ele>1347.2</ele>
        <time>2019-07-05T15:50:36Z</time>
      </trkpt>
      <trkpt lat="40.5355180" lon="-1.8692750">
        <ele>1347.4</ele>
        <time>2019-07-05T15:50:38Z</time>
      </trkpt>
      <trkpt lat="40.5355290" lon="-1.8696210">
        <ele>1348.8</ele>
        <time>2019-07-05T15:50:46Z</time>
      </trkpt>
      <trkpt lat="40.5355400" lon="-1.8697130">
        <ele>1349.0</ele>
        <time>2019-07-05T15:50:48Z</time>
      </trkpt>
      <trkpt lat="40.5356110" lon="-1.8699010">
        <ele>1349.0</ele>
        <time>2019-07-05T15:50:52Z</time>
      </trkpt>
      <trkpt lat="40.5356530" lon="-1.8700240">
        <ele>1349.2</ele>
        <time>2019-07-05T15:50:54Z</time>
      </trkpt>
      <trkpt lat="40.5356740" lon="-1.8701580">
        <ele>1348.8</ele>
        <time>2019-07-05T15:50:57Z</time>
      </trkpt>
      <trkpt lat="40.5357200" lon="-1.8706280">
        <ele>1349.4</ele>
        <time>2019-07-05T15:51:04Z</time>
      </trkpt>
      <trkpt lat="40.5357400" lon="-1.8708100">
        <ele>1350.2</ele>
        <time>2019-07-05T15:51:09Z</time>
      </trkpt>
      <trkpt lat="40.5357470" lon="-1.8708840">
        <ele>1350.8</ele>
        <time>2019-07-05T15:51:11Z</time>
      </trkpt>
      <trkpt lat="40.5357450" lon="-1.8709950">
        <ele>1351.4</ele>
        <time>2019-07-05T15:51:13Z</time>
      </trkpt>
      <trkpt lat="40.5357250" lon="-1.8711100">
        <ele>1352.4</ele>
        <time>2019-07-05T15:51:17Z</time>
      </trkpt>
      <trkpt lat="40.5357030" lon="-1.8711830">
        <ele>1352.6</ele>
        <time>2019-07-05T15:51:18Z</time>
      </trkpt>
      <trkpt lat="40.5356170" lon="-1.8713810">
        <ele>1353.2</ele>
        <time>2019-07-05T15:51:24Z</time>
      </trkpt>
      <trkpt lat="40.5356020" lon="-1.8714130">
        <ele>1353.4</ele>
        <time>2019-07-05T15:51:25Z</time>
      </trkpt>
      <trkpt lat="40.5355700" lon="-1.8715140">
        <ele>1353.6</ele>
        <time>2019-07-05T15:51:29Z</time>
      </trkpt>
      <trkpt lat="40.5355680" lon="-1.8716510">
        <ele>1354.2</ele>
        <time>2019-07-05T15:51:32Z</time>
      </trkpt>
      <trkpt lat="40.5355850" lon="-1.8717100">
        <ele>1355.0</ele>
        <time>2019-07-05T15:51:35Z</time>
      </trkpt>
      <trkpt lat="40.5356490" lon="-1.8718140">
        <ele>1356.2</ele>
        <time>2019-07-05T15:51:39Z</time>
      </trkpt>
      <trkpt lat="40.5357810" lon="-1.8719260">
        <ele>1357.2</ele>
        <time>2019-07-05T15:51:45Z</time>
      </trkpt>
      <trkpt lat="40.5358180" lon="-1.8719720">
        <ele>1357.6</ele>
        <time>2019-07-05T15:51:46Z</time>
      </trkpt>
      <trkpt lat="40.5358690" lon="-1.8720450">
        <ele>1358.4</ele>
        <time>2019-07-05T15:51:49Z</time>
      </trkpt>
      <trkpt lat="40.5359490" lon="-1.8721960">
        <ele>1359.4</ele>
        <time>2019-07-05T15:51:55Z</time>
      </trkpt>
      <trkpt lat="40.5359590" lon="-1.8722240">
        <ele>1359.4</ele>
        <time>2019-07-05T15:51:56Z</time>
      </trkpt>
      <trkpt lat="40.5360110" lon="-1.8723850">
        <ele>1360.6</ele>
        <time>2019-07-05T15:52:02Z</time>
      </trkpt>
      <trkpt lat="40.5360300" lon="-1.8724410">
        <ele>1361.4</ele>
        <time>2019-07-05T15:52:05Z</time>
      </trkpt>
      <trkpt lat="40.5360470" lon="-1.8724930">
        <ele>1361.8</ele>
        <time>2019-07-05T15:52:06Z</time>
      </trkpt>
      <trkpt lat="40.5360630" lon="-1.8725490">
        <ele>1363.0</ele>
        <time>2019-07-05T15:52:09Z</time>
      </trkpt>
      <trkpt lat="40.5360790" lon="-1.8726620">
        <ele>1364.4</ele>
        <time>2019-07-05T15:52:12Z</time>
      </trkpt>
      <trkpt lat="40.5360790" lon="-1.8726910">
        <ele>1364.8</ele>
        <time>2019-07-05T15:52:13Z</time>
      </trkpt>
      <trkpt lat="40.5360770" lon="-1.8727750">
        <ele>1365.6</ele>
        <time>2019-07-05T15:52:16Z</time>
      </trkpt>
      <trkpt lat="40.5360730" lon="-1.8728870">
        <ele>1366.2</ele>
        <time>2019-07-05T15:52:21Z</time>
      </trkpt>
      <trkpt lat="40.5360800" lon="-1.8729390">
        <ele>1366.8</ele>
        <time>2019-07-05T15:52:23Z</time>
      </trkpt>
      <trkpt lat="40.5360870" lon="-1.8730240">
        <ele>1368.0</ele>
        <time>2019-07-05T15:52:27Z</time>
      </trkpt>
      <trkpt lat="40.5361060" lon="-1.8731170">
        <ele>1368.6</ele>
        <time>2019-07-05T15:52:31Z</time>
      </trkpt>
      <trkpt lat="40.5361280" lon="-1.8731680">
        <ele>1369.2</ele>
        <time>2019-07-05T15:52:34Z</time>
      </trkpt>
      <trkpt lat="40.5361590" lon="-1.8732350">
        <ele>1370.2</ele>
        <time>2019-07-05T15:52:39Z</time>
      </trkpt>
      <trkpt lat="40.5361780" lon="-1.8732660">
        <ele>1370.4</ele>
        <time>2019-07-05T15:52:40Z</time>
      </trkpt>
      <trkpt lat="40.5362160" lon="-1.8733180">
        <ele>1371.4</ele>
        <time>2019-07-05T15:52:45Z</time>
      </trkpt>
      <trkpt lat="40.5362750" lon="-1.8733970">
        <ele>1372.6</ele>
        <time>2019-07-05T15:52:50Z</time>
      </trkpt>
      <trkpt lat="40.5363110" lon="-1.8734530">
        <ele>1373.6</ele>
        <time>2019-07-05T15:52:54Z</time>
      </trkpt>
      <trkpt lat="40.5363480" lon="-1.8735100">
        <ele>1374.6</ele>
        <time>2019-07-05T15:52:58Z</time>
      </trkpt>
      <trkpt lat="40.5363480" lon="-1.8735100">
        <ele>1374.8</ele>
        <time>2019-07-05T15:52:59Z</time>
      </trkpt>
      <trkpt lat="40.5364070" lon="-1.8736000">
        <ele>1375.8</ele>
        <time>2019-07-05T15:53:04Z</time>
      </trkpt>
      <trkpt lat="40.5364450" lon="-1.8736650">
        <ele>1376.4</ele>
        <time>2019-07-05T15:53:09Z</time>
      </trkpt>
      <trkpt lat="40.5364850" lon="-1.8737580">
        <ele>1376.8</ele>
        <time>2019-07-05T15:53:13Z</time>
      </trkpt>
      <trkpt lat="40.5365110" lon="-1.8739120">
        <ele>1377.8</ele>
        <time>2019-07-05T15:53:19Z</time>
      </trkpt>
      <trkpt lat="40.5365130" lon="-1.8739390">
        <ele>1378.0</ele>
        <time>2019-07-05T15:53:20Z</time>
      </trkpt>
      <trkpt lat="40.5365180" lon="-1.8741570">
        <ele>1379.2</ele>
        <time>2019-07-05T15:53:28Z</time>
      </trkpt>
      <trkpt lat="40.5365390" lon="-1.8742580">
        <ele>1380.8</ele>
        <time>2019-07-05T15:53:32Z</time>
      </trkpt>
      <trkpt lat="40.5365730" lon="-1.8743520">
        <ele>1382.0</ele>
        <time>2019-07-05T15:53:36Z</time>
      </trkpt>
      <trkpt lat="40.5365850" lon="-1.8743720">
        <ele>1382.2</ele>
        <time>2019-07-05T15:53:37Z</time>
      </trkpt>
      <trkpt lat="40.5366760" lon="-1.8744190">
        <ele>1383.2</ele>
        <time>2019-07-05T15:53:42Z</time>
      </trkpt>
      <trkpt lat="40.5366980" lon="-1.8744230">
        <ele>1383.2</ele>
        <time>2019-07-05T15:53:43Z</time>
      </trkpt>
      <trkpt lat="40.5368730" lon="-1.8744160">
        <ele>1384.2</ele>
        <time>2019-07-05T15:53:51Z</time>
      </trkpt>
      <trkpt lat="40.5370250" lon="-1.8744300">
        <ele>1385.4</ele>
        <time>2019-07-05T15:53:56Z</time>
      </trkpt>
      <trkpt lat="40.5371190" lon="-1.8744560">
        <ele>1386.2</ele>
        <time>2019-07-05T15:54:00Z</time>
      </trkpt>
      <trkpt lat="40.5371410" lon="-1.8744680">
        <ele>1386.4</ele>
        <time>2019-07-05T15:54:01Z</time>
      </trkpt>
      <trkpt lat="40.5372580" lon="-1.8745110">
        <ele>1387.6</ele>
        <time>2019-07-05T15:54:06Z</time>
      </trkpt>
      <trkpt lat="40.5373030" lon="-1.8745310">
        <ele>1388.6</ele>
        <time>2019-07-05T15:54:08Z</time>
      </trkpt>
      <trkpt lat="40.5373480" lon="-1.8745430">
        <ele>1389.0</ele>
        <time>2019-07-05T15:54:10Z</time>
      </trkpt>
      <trkpt lat="40.5374400" lon="-1.8745720">
        <ele>1390.0</ele>
        <time>2019-07-05T15:54:15Z</time>
      </trkpt>
      <trkpt lat="40.5374860" lon="-1.8745880">
        <ele>1390.6</ele>
        <time>2019-07-05T15:54:17Z</time>
      </trkpt>
      <trkpt lat="40.5375600" lon="-1.8746050">
        <ele>1391.2</ele>
        <time>2019-07-05T15:54:19Z</time>
      </trkpt>
      <trkpt lat="40.5377070" lon="-1.8746150">
        <ele>1392.0</ele>
        <time>2019-07-05T15:54:25Z</time>
      </trkpt>
      <trkpt lat="40.5378560" lon="-1.8744900">
        <ele>1391.6</ele>
        <time>2019-07-05T15:54:30Z</time>
      </trkpt>
      <trkpt lat="40.5379450" lon="-1.8742880">
        <ele>1391.0</ele>
        <time>2019-07-05T15:54:35Z</time>
      </trkpt>
      <trkpt lat="40.5380690" lon="-1.8740710">
        <ele>1390.4</ele>
        <time>2019-07-05T15:54:40Z</time>
      </trkpt>
      <trkpt lat="40.5381570" lon="-1.8740400">
        <ele>1390.4</ele>
        <time>2019-07-05T15:54:43Z</time>
      </trkpt>
      <trkpt lat="40.5381830" lon="-1.8740470">
        <ele>1390.6</ele>
        <time>2019-07-05T15:54:44Z</time>
      </trkpt>
      <trkpt lat="40.5381830" lon="-1.8740470">
        <ele>1390.8</ele>
        <time>2019-07-05T15:54:45Z</time>
      </trkpt>
      <trkpt lat="40.5382290" lon="-1.8740720">
        <ele>1391.4</ele>
        <time>2019-07-05T15:54:47Z</time>
      </trkpt>
      <trkpt lat="40.5383030" lon="-1.8741430">
        <ele>1392.2</ele>
        <time>2019-07-05T15:54:51Z</time>
      </trkpt>
      <trkpt lat="40.5383320" lon="-1.8741910">
        <ele>1392.4</ele>
        <time>2019-07-05T15:54:52Z</time>
      </trkpt>
      <trkpt lat="40.5383910" lon="-1.8742870">
        <ele>1393.2</ele>
        <time>2019-07-05T15:54:56Z</time>
      </trkpt>
      <trkpt lat="40.5384580" lon="-1.8744090">
        <ele>1393.6</ele>
        <time>2019-07-05T15:55:01Z</time>
      </trkpt>
      <trkpt lat="40.5385000" lon="-1.8744820">
        <ele>1394.4</ele>
        <time>2019-07-05T15:55:05Z</time>
      </trkpt>
      <trkpt lat="40.5385810" lon="-1.8746130">
        <ele>1395.6</ele>
        <time>2019-07-05T15:55:10Z</time>
      </trkpt>
      <trkpt lat="40.5385810" lon="-1.8746130">
        <ele>1395.6</ele>
        <time>2019-07-05T15:55:11Z</time>
      </trkpt>
      <trkpt lat="40.5386310" lon="-1.8747100">
        <ele>1396.6</ele>
        <time>2019-07-05T15:55:15Z</time>
      </trkpt>
      <trkpt lat="40.5386880" lon="-1.8747980">
        <ele>1397.4</ele>
        <time>2019-07-05T15:55:18Z</time>
      </trkpt>
      <trkpt lat="40.5387030" lon="-1.8748180">
        <ele>1397.6</ele>
        <time>2019-07-05T15:55:19Z</time>
      </trkpt>
      <trkpt lat="40.5388140" lon="-1.8749640">
        <ele>1398.8</ele>
        <time>2019-07-05T15:55:26Z</time>
      </trkpt>
      <trkpt lat="40.5388500" lon="-1.8749990">
        <ele>1399.2</ele>
        <time>2019-07-05T15:55:28Z</time>
      </trkpt>
      <trkpt lat="40.5389590" lon="-1.8750820">
        <ele>1399.8</ele>
        <time>2019-07-05T15:55:33Z</time>
      </trkpt>
      <trkpt lat="40.5389840" lon="-1.8750990">
        <ele>1399.8</ele>
        <time>2019-07-05T15:55:35Z</time>
      </trkpt>
      <trkpt lat="40.5391920" lon="-1.8751730">
        <ele>1399.8</ele>
        <time>2019-07-05T15:55:40Z</time>
      </trkpt>
      <trkpt lat="40.5394390" lon="-1.8753480">
        <ele>1400.4</ele>
        <time>2019-07-05T15:55:48Z</time>
      </trkpt>
      <trkpt lat="40.5395250" lon="-1.8753950">
        <ele>1401.0</ele>
        <time>2019-07-05T15:55:51Z</time>
      </trkpt>
      <trkpt lat="40.5396140" lon="-1.8754390">
        <ele>1401.4</ele>
        <time>2019-07-05T15:55:54Z</time>
      </trkpt>
      <trkpt lat="40.5397380" lon="-1.8755250">
        <ele>1402.2</ele>
        <time>2019-07-05T15:55:59Z</time>
      </trkpt>
      <trkpt lat="40.5397900" lon="-1.8757320">
        <ele>1403.0</ele>
        <time>2019-07-05T15:56:04Z</time>
      </trkpt>
      <trkpt lat="40.5398230" lon="-1.8758710">
        <ele>1403.4</ele>
        <time>2019-07-05T15:56:08Z</time>
      </trkpt>
      <trkpt lat="40.5398290" lon="-1.8759270">
        <ele>1404.0</ele>
        <time>2019-07-05T15:56:10Z</time>
      </trkpt>
      <trkpt lat="40.5398330" lon="-1.8759800">
        <ele>1404.2</ele>
        <time>2019-07-05T15:56:12Z</time>
      </trkpt>
      <trkpt lat="40.5398410" lon="-1.8760320">
        <ele>1404.6</ele>
        <time>2019-07-05T15:56:14Z</time>
      </trkpt>
      <trkpt lat="40.5398530" lon="-1.8760820">
        <ele>1404.8</ele>
        <time>2019-07-05T15:56:16Z</time>
      </trkpt>
      <trkpt lat="40.5398910" lon="-1.8762110">
        <ele>1405.8</ele>
        <time>2019-07-05T15:56:21Z</time>
      </trkpt>
      <trkpt lat="40.5399160" lon="-1.8763610">
        <ele>1406.6</ele>
        <time>2019-07-05T15:56:26Z</time>
      </trkpt>
      <trkpt lat="40.5399230" lon="-1.8764210">
        <ele>1406.8</ele>
        <time>2019-07-05T15:56:29Z</time>
      </trkpt>
      <trkpt lat="40.5399120" lon="-1.8765400">
        <ele>1407.8</ele>
        <time>2019-07-05T15:56:33Z</time>
      </trkpt>
      <trkpt lat="40.5399050" lon="-1.8766000">
        <ele>1408.0</ele>
        <time>2019-07-05T15:56:34Z</time>
      </trkpt>
      <trkpt lat="40.5398850" lon="-1.8767120">
        <ele>1409.0</ele>
        <time>2019-07-05T15:56:38Z</time>
      </trkpt>
      <trkpt lat="40.5398600" lon="-1.8767590">
        <ele>1409.8</ele>
        <time>2019-07-05T15:56:41Z</time>
      </trkpt>
      <trkpt lat="40.5398280" lon="-1.8768020">
        <ele>1410.2</ele>
        <time>2019-07-05T15:56:42Z</time>
      </trkpt>
      <trkpt lat="40.5397190" lon="-1.8769130">
        <ele>1411.4</ele>
        <time>2019-07-05T15:56:48Z</time>
      </trkpt>
      <trkpt lat="40.5396810" lon="-1.8769430">
        <ele>1411.6</ele>
        <time>2019-07-05T15:56:50Z</time>
      </trkpt>
      <trkpt lat="40.5396110" lon="-1.8770130">
        <ele>1412.4</ele>
        <time>2019-07-05T15:56:54Z</time>
      </trkpt>
      <trkpt lat="40.5395740" lon="-1.8770780">
        <ele>1413.4</ele>
        <time>2019-07-05T15:56:57Z</time>
      </trkpt>
      <trkpt lat="40.5395460" lon="-1.8772700">
        <ele>1414.6</ele>
        <time>2019-07-05T15:57:04Z</time>
      </trkpt>
      <trkpt lat="40.5395610" lon="-1.8774150">
        <ele>1415.6</ele>
        <time>2019-07-05T15:57:09Z</time>
      </trkpt>
      <trkpt lat="40.5395860" lon="-1.8775270">
        <ele>1416.2</ele>
        <time>2019-07-05T15:57:13Z</time>
      </trkpt>
      <trkpt lat="40.5396050" lon="-1.8775780">
        <ele>1416.6</ele>
        <time>2019-07-05T15:57:15Z</time>
      </trkpt>
      <trkpt lat="40.5396460" lon="-1.8776810">
        <ele>1417.8</ele>
        <time>2019-07-05T15:57:19Z</time>
      </trkpt>
      <trkpt lat="40.5396670" lon="-1.8777340">
        <ele>1418.4</ele>
        <time>2019-07-05T15:57:21Z</time>
      </trkpt>
      <trkpt lat="40.5397110" lon="-1.8778400">
        <ele>1419.0</ele>
        <time>2019-07-05T15:57:25Z</time>
      </trkpt>
      <trkpt lat="40.5397490" lon="-1.8779170">
        <ele>1419.6</ele>
        <time>2019-07-05T15:57:29Z</time>
      </trkpt>
      <trkpt lat="40.5398010" lon="-1.8780180">
        <ele>1420.0</ele>
        <time>2019-07-05T15:57:32Z</time>
      </trkpt>
      <trkpt lat="40.5398770" lon="-1.8781670">
        <ele>1421.2</ele>
        <time>2019-07-05T15:57:38Z</time>
      </trkpt>
      <trkpt lat="40.5399350" lon="-1.8782870">
        <ele>1422.2</ele>
        <time>2019-07-05T15:57:43Z</time>
      </trkpt>
      <trkpt lat="40.5399710" lon="-1.8783590">
        <ele>1423.0</ele>
        <time>2019-07-05T15:57:47Z</time>
      </trkpt>
      <trkpt lat="40.5400040" lon="-1.8784430">
        <ele>1423.4</ele>
        <time>2019-07-05T15:57:49Z</time>
      </trkpt>
      <trkpt lat="40.5400600" lon="-1.8785520">
        <ele>1424.4</ele>
        <time>2019-07-05T15:57:53Z</time>
      </trkpt>
      <trkpt lat="40.5400740" lon="-1.8785800">
        <ele>1424.4</ele>
        <time>2019-07-05T15:57:54Z</time>
      </trkpt>
      <trkpt lat="40.5401300" lon="-1.8786990">
        <ele>1425.0</ele>
        <time>2019-07-05T15:57:59Z</time>
      </trkpt>
      <trkpt lat="40.5402120" lon="-1.8788470">
        <ele>1425.4</ele>
        <time>2019-07-05T15:58:03Z</time>
      </trkpt>
      <trkpt lat="40.5402710" lon="-1.8789770">
        <ele>1426.4</ele>
        <time>2019-07-05T15:58:08Z</time>
      </trkpt>
      <trkpt lat="40.5402810" lon="-1.8790000">
        <ele>1426.6</ele>
        <time>2019-07-05T15:58:09Z</time>
      </trkpt>
      <trkpt lat="40.5403240" lon="-1.8790840">
        <ele>1427.8</ele>
        <time>2019-07-05T15:58:13Z</time>
      </trkpt>
      <trkpt lat="40.5403640" lon="-1.8791680">
        <ele>1428.8</ele>
        <time>2019-07-05T15:58:17Z</time>
      </trkpt>
      <trkpt lat="40.5403740" lon="-1.8791900">
        <ele>1429.2</ele>
        <time>2019-07-05T15:58:18Z</time>
      </trkpt>
      <trkpt lat="40.5404040" lon="-1.8792530">
        <ele>1429.8</ele>
        <time>2019-07-05T15:58:21Z</time>
      </trkpt>
      <trkpt lat="40.5404540" lon="-1.8793610">
        <ele>1431.0</ele>
        <time>2019-07-05T15:58:26Z</time>
      </trkpt>
      <trkpt lat="40.5404760" lon="-1.8794000">
        <ele>1431.4</ele>
        <time>2019-07-05T15:58:28Z</time>
      </trkpt>
      <trkpt lat="40.5405190" lon="-1.8794790">
        <ele>1432.0</ele>
        <time>2019-07-05T15:58:32Z</time>
      </trkpt>
      <trkpt lat="40.5405610" lon="-1.8795600">
        <ele>1433.0</ele>
        <time>2019-07-05T15:58:36Z</time>
      </trkpt>
      <trkpt lat="40.5405710" lon="-1.8795820">
        <ele>1433.0</ele>
        <time>2019-07-05T15:58:37Z</time>
      </trkpt>
      <trkpt lat="40.5406000" lon="-1.8796540">
        <ele>1434.0</ele>
        <time>2019-07-05T15:58:41Z</time>
      </trkpt>
      <trkpt lat="40.5406640" lon="-1.8797830">
        <ele>1434.4</ele>
        <time>2019-07-05T15:58:45Z</time>
      </trkpt>
      <trkpt lat="40.5407660" lon="-1.8799910">
        <ele>1435.0</ele>
        <time>2019-07-05T15:58:52Z</time>
      </trkpt>
      <trkpt lat="40.5407920" lon="-1.8800500">
        <ele>1435.2</ele>
        <time>2019-07-05T15:58:54Z</time>
      </trkpt>
      <trkpt lat="40.5408840" lon="-1.8802530">
        <ele>1436.2</ele>
        <time>2019-07-05T15:59:01Z</time>
      </trkpt>
      <trkpt lat="40.5409320" lon="-1.8803400">
        <ele>1436.6</ele>
        <time>2019-07-05T15:59:04Z</time>
      </trkpt>
      <trkpt lat="40.5410150" lon="-1.8804960">
        <ele>1437.2</ele>
        <time>2019-07-05T15:59:09Z</time>
      </trkpt>
      <trkpt lat="40.5411250" lon="-1.8806470">
        <ele>1438.0</ele>
        <time>2019-07-05T15:59:14Z</time>
      </trkpt>
      <trkpt lat="40.5411780" lon="-1.8807040">
        <ele>1438.2</ele>
        <time>2019-07-05T15:59:17Z</time>
      </trkpt>
      <trkpt lat="40.5413120" lon="-1.8808030">
        <ele>1438.2</ele>
        <time>2019-07-05T15:59:20Z</time>
      </trkpt>
      <trkpt lat="40.5413510" lon="-1.8808240">
        <ele>1438.2</ele>
        <time>2019-07-05T15:59:21Z</time>
      </trkpt>
      <trkpt lat="40.5414820" lon="-1.8808920">
        <ele>1437.8</ele>
        <time>2019-07-05T15:59:24Z</time>
      </trkpt>
      <trkpt lat="40.5416300" lon="-1.8809460">
        <ele>1437.6</ele>
        <time>2019-07-05T15:59:27Z</time>
      </trkpt>
      <trkpt lat="40.5417830" lon="-1.8810060">
        <ele>1437.0</ele>
        <time>2019-07-05T15:59:30Z</time>
      </trkpt>
      <trkpt lat="40.5419910" lon="-1.8810730">
        <ele>1435.8</ele>
        <time>2019-07-05T15:59:34Z</time>
      </trkpt>
      <trkpt lat="40.5419910" lon="-1.8810730">
        <ele>1435.6</ele>
        <time>2019-07-05T15:59:35Z</time>
      </trkpt>
      <trkpt lat="40.5423520" lon="-1.8811170">
        <ele>1435.2</ele>
        <time>2019-07-05T15:59:40Z</time>
      </trkpt>
      <trkpt lat="40.5424950" lon="-1.8811830">
        <ele>1434.4</ele>
        <time>2019-07-05T15:59:42Z</time>
      </trkpt>
      <trkpt lat="40.5425500" lon="-1.8812470">
        <ele>1434.2</ele>
        <time>2019-07-05T15:59:43Z</time>
      </trkpt>
      <trkpt lat="40.5426340" lon="-1.8813960">
        <ele>1433.8</ele>
        <time>2019-07-05T15:59:45Z</time>
      </trkpt>
      <trkpt lat="40.5427150" lon="-1.8815250">
        <ele>1433.6</ele>
        <time>2019-07-05T15:59:47Z</time>
      </trkpt>
      <trkpt lat="40.5427900" lon="-1.8816330">
        <ele>1433.4</ele>
        <time>2019-07-05T15:59:49Z</time>
      </trkpt>
      <trkpt lat="40.5428980" lon="-1.8817650">
        <ele>1434.0</ele>
        <time>2019-07-05T15:59:52Z</time>
      </trkpt>
      <trkpt lat="40.5430570" lon="-1.8819030">
        <ele>1434.4</ele>
        <time>2019-07-05T15:59:56Z</time>
      </trkpt>
      <trkpt lat="40.5432040" lon="-1.8820300">
        <ele>1434.6</ele>
        <time>2019-07-05T16:00:00Z</time>
      </trkpt>
      <trkpt lat="40.5434710" lon="-1.8822760">
        <ele>1435.0</ele>
        <time>2019-07-05T16:00:08Z</time>
      </trkpt>
      <trkpt lat="40.5435370" lon="-1.8823470">
        <ele>1435.4</ele>
        <time>2019-07-05T16:00:10Z</time>
      </trkpt>
      <trkpt lat="40.5437590" lon="-1.8825730">
        <ele>1436.6</ele>
        <time>2019-07-05T16:00:17Z</time>
      </trkpt>
      <trkpt lat="40.5439780" lon="-1.8827800">
        <ele>1437.4</ele>
        <time>2019-07-05T16:00:24Z</time>
      </trkpt>
      <trkpt lat="40.5440080" lon="-1.8828170">
        <ele>1437.8</ele>
        <time>2019-07-05T16:00:25Z</time>
      </trkpt>
      <trkpt lat="40.5441000" lon="-1.8829350">
        <ele>1438.0</ele>
        <time>2019-07-05T16:00:28Z</time>
      </trkpt>
      <trkpt lat="40.5441500" lon="-1.8830220">
        <ele>1437.6</ele>
        <time>2019-07-05T16:00:30Z</time>
      </trkpt>
      <trkpt lat="40.5441720" lon="-1.8830670">
        <ele>1437.2</ele>
        <time>2019-07-05T16:00:31Z</time>
      </trkpt>
      <trkpt lat="40.5442110" lon="-1.8831600">
        <ele>1436.6</ele>
        <time>2019-07-05T16:00:33Z</time>
      </trkpt>
      <trkpt lat="40.5443530" lon="-1.8834730">
        <ele>1436.8</ele>
        <time>2019-07-05T16:00:40Z</time>
      </trkpt>
      <trkpt lat="40.5445430" lon="-1.8837990">
        <ele>1437.0</ele>
        <time>2019-07-05T16:00:48Z</time>
      </trkpt>
      <trkpt lat="40.5446730" lon="-1.8839450">
        <ele>1437.2</ele>
        <time>2019-07-05T16:00:53Z</time>
      </trkpt>
      <trkpt lat="40.5447600" lon="-1.8840830">
        <ele>1437.8</ele>
        <time>2019-07-05T16:00:57Z</time>
      </trkpt>
      <trkpt lat="40.5448500" lon="-1.8842210">
        <ele>1438.6</ele>
        <time>2019-07-05T16:01:01Z</time>
      </trkpt>
      <trkpt lat="40.5449750" lon="-1.8843910">
        <ele>1437.6</ele>
        <time>2019-07-05T16:01:06Z</time>
      </trkpt>
      <trkpt lat="40.5450260" lon="-1.8844820">
        <ele>1437.2</ele>
        <time>2019-07-05T16:01:08Z</time>
      </trkpt>
      <trkpt lat="40.5450890" lon="-1.8845640">
        <ele>1436.8</ele>
        <time>2019-07-05T16:01:10Z</time>
      </trkpt>
      <trkpt lat="40.5452050" lon="-1.8847470">
        <ele>1436.6</ele>
        <time>2019-07-05T16:01:14Z</time>
      </trkpt>
      <trkpt lat="40.5454080" lon="-1.8850720">
        <ele>1436.6</ele>
        <time>2019-07-05T16:01:21Z</time>
      </trkpt>
      <trkpt lat="40.5454620" lon="-1.8851650">
        <ele>1436.8</ele>
        <time>2019-07-05T16:01:23Z</time>
      </trkpt>
      <trkpt lat="40.5455730" lon="-1.8854030">
        <ele>1438.0</ele>
        <time>2019-07-05T16:01:28Z</time>
      </trkpt>
      <trkpt lat="40.5457100" lon="-1.8857440">
        <ele>1438.0</ele>
        <time>2019-07-05T16:01:36Z</time>
      </trkpt>
      <trkpt lat="40.5458120" lon="-1.8859960">
        <ele>1439.0</ele>
        <time>2019-07-05T16:01:42Z</time>
      </trkpt>
      <trkpt lat="40.5458950" lon="-1.8861540">
        <ele>1440.2</ele>
        <time>2019-07-05T16:01:46Z</time>
      </trkpt>
      <trkpt lat="40.5460660" lon="-1.8864270">
        <ele>1440.4</ele>
        <time>2019-07-05T16:01:54Z</time>
      </trkpt>
      <trkpt lat="40.5461600" lon="-1.8865610">
        <ele>1441.2</ele>
        <time>2019-07-05T16:01:58Z</time>
      </trkpt>
      <trkpt lat="40.5462090" lon="-1.8866820">
        <ele>1442.2</ele>
        <time>2019-07-05T16:02:01Z</time>
      </trkpt>
      <trkpt lat="40.5462150" lon="-1.8867290">
        <ele>1442.2</ele>
        <time>2019-07-05T16:02:02Z</time>
      </trkpt>
      <trkpt lat="40.5462460" lon="-1.8869690">
        <ele>1442.2</ele>
        <time>2019-07-05T16:02:07Z</time>
      </trkpt>
      <trkpt lat="40.5462970" lon="-1.8872580">
        <ele>1443.0</ele>
        <time>2019-07-05T16:02:13Z</time>
      </trkpt>
      <trkpt lat="40.5463180" lon="-1.8872970">
        <ele>1443.2</ele>
        <time>2019-07-05T16:02:14Z</time>
      </trkpt>
      <trkpt lat="40.5464070" lon="-1.8874340">
        <ele>1444.4</ele>
        <time>2019-07-05T16:02:18Z</time>
      </trkpt>
      <trkpt lat="40.5464540" lon="-1.8874930">
        <ele>1444.4</ele>
        <time>2019-07-05T16:02:20Z</time>
      </trkpt>
      <trkpt lat="40.5466190" lon="-1.8877120">
        <ele>1444.6</ele>
        <time>2019-07-05T16:02:27Z</time>
      </trkpt>
      <trkpt lat="40.5467020" lon="-1.8878190">
        <ele>1444.6</ele>
        <time>2019-07-05T16:02:31Z</time>
      </trkpt>
      <trkpt lat="40.5467720" lon="-1.8879110">
        <ele>1445.2</ele>
        <time>2019-07-05T16:02:35Z</time>
      </trkpt>
      <trkpt lat="40.5467880" lon="-1.8879310">
        <ele>1445.6</ele>
        <time>2019-07-05T16:02:36Z</time>
      </trkpt>
      <trkpt lat="40.5468530" lon="-1.8880040">
        <ele>1446.6</ele>
        <time>2019-07-05T16:02:40Z</time>
      </trkpt>
      <trkpt lat="40.5469010" lon="-1.8880600">
        <ele>1447.2</ele>
        <time>2019-07-05T16:02:43Z</time>
      </trkpt>
      <trkpt lat="40.5469320" lon="-1.8880940">
        <ele>1448.0</ele>
        <time>2019-07-05T16:02:45Z</time>
      </trkpt>
      <trkpt lat="40.5469800" lon="-1.8881390">
        <ele>1449.2</ele>
        <time>2019-07-05T16:02:48Z</time>
      </trkpt>
      <trkpt lat="40.5470420" lon="-1.8882120">
        <ele>1450.4</ele>
        <time>2019-07-05T16:02:52Z</time>
      </trkpt>
      <trkpt lat="40.5471240" lon="-1.8882990">
        <ele>1451.4</ele>
        <time>2019-07-05T16:02:57Z</time>
      </trkpt>
      <trkpt lat="40.5471570" lon="-1.8883330">
        <ele>1451.8</ele>
        <time>2019-07-05T16:02:59Z</time>
      </trkpt>
      <trkpt lat="40.5472630" lon="-1.8884370">
        <ele>1452.6</ele>
        <time>2019-07-05T16:03:05Z</time>
      </trkpt>
      <trkpt lat="40.5473020" lon="-1.8884750">
        <ele>1453.0</ele>
        <time>2019-07-05T16:03:07Z</time>
      </trkpt>
      <trkpt lat="40.5473450" lon="-1.8885010">
        <ele>1453.6</ele>
        <time>2019-07-05T16:03:09Z</time>
      </trkpt>
      <trkpt lat="40.5474460" lon="-1.8885730">
        <ele>1453.8</ele>
        <time>2019-07-05T16:03:13Z</time>
      </trkpt>
      <trkpt lat="40.5476290" lon="-1.8886970">
        <ele>1453.2</ele>
        <time>2019-07-05T16:03:18Z</time>
      </trkpt>
      <trkpt lat="40.5478830" lon="-1.8888590">
        <ele>1452.6</ele>
        <time>2019-07-05T16:03:23Z</time>
      </trkpt>
      <trkpt lat="40.5480060" lon="-1.8889130">
        <ele>1451.4</ele>
        <time>2019-07-05T16:03:25Z</time>
      </trkpt>
      <trkpt lat="40.5482690" lon="-1.8889870">
        <ele>1450.2</ele>
        <time>2019-07-05T16:03:29Z</time>
      </trkpt>
      <trkpt lat="40.5484450" lon="-1.8890450">
        <ele>1449.0</ele>
        <time>2019-07-05T16:03:32Z</time>
      </trkpt>
      <trkpt lat="40.5485650" lon="-1.8891020">
        <ele>1448.2</ele>
        <time>2019-07-05T16:03:34Z</time>
      </trkpt>
      <trkpt lat="40.5485960" lon="-1.8891280">
        <ele>1447.8</ele>
        <time>2019-07-05T16:03:35Z</time>
      </trkpt>
      <trkpt lat="40.5486270" lon="-1.8891540">
        <ele>1447.4</ele>
        <time>2019-07-05T16:03:36Z</time>
      </trkpt>
      <trkpt lat="40.5487520" lon="-1.8892570">
        <ele>1446.4</ele>
        <time>2019-07-05T16:03:38Z</time>
      </trkpt>
      <trkpt lat="40.5487950" lon="-1.8893040">
        <ele>1446.0</ele>
        <time>2019-07-05T16:03:39Z</time>
      </trkpt>
      <trkpt lat="40.5488720" lon="-1.8893990">
        <ele>1445.0</ele>
        <time>2019-07-05T16:03:41Z</time>
      </trkpt>
      <trkpt lat="40.5489440" lon="-1.8894870">
        <ele>1443.2</ele>
        <time>2019-07-05T16:03:43Z</time>
      </trkpt>
      <trkpt lat="40.5490530" lon="-1.8896180">
        <ele>1442.2</ele>
        <time>2019-07-05T16:03:46Z</time>
      </trkpt>
      <trkpt lat="40.5491640" lon="-1.8897390">
        <ele>1440.4</ele>
        <time>2019-07-05T16:03:49Z</time>
      </trkpt>
      <trkpt lat="40.5492050" lon="-1.8897710">
        <ele>1439.6</ele>
        <time>2019-07-05T16:03:50Z</time>
      </trkpt>
      <trkpt lat="40.5492500" lon="-1.8898010">
        <ele>1439.0</ele>
        <time>2019-07-05T16:03:51Z</time>
      </trkpt>
      <trkpt lat="40.5492970" lon="-1.8898290">
        <ele>1438.4</ele>
        <time>2019-07-05T16:03:52Z</time>
      </trkpt>
      <trkpt lat="40.5493460" lon="-1.8898560">
        <ele>1438.0</ele>
        <time>2019-07-05T16:03:53Z</time>
      </trkpt>
      <trkpt lat="40.5494500" lon="-1.8899070">
        <ele>1436.4</ele>
        <time>2019-07-05T16:03:55Z</time>
      </trkpt>
      <trkpt lat="40.5495050" lon="-1.8899310">
        <ele>1434.8</ele>
        <time>2019-07-05T16:03:56Z</time>
      </trkpt>
      <trkpt lat="40.5496200" lon="-1.8899770">
        <ele>1433.2</ele>
        <time>2019-07-05T16:03:58Z</time>
      </trkpt>
      <trkpt lat="40.5496740" lon="-1.8899890">
        <ele>1432.8</ele>
        <time>2019-07-05T16:03:59Z</time>
      </trkpt>
      <trkpt lat="40.5497280" lon="-1.8900020">
        <ele>1432.4</ele>
        <time>2019-07-05T16:04:00Z</time>
      </trkpt>
      <trkpt lat="40.5498360" lon="-1.8900280">
        <ele>1431.4</ele>
        <time>2019-07-05T16:04:01Z</time>
      </trkpt>
      <trkpt lat="40.5499220" lon="-1.8900400">
        <ele>1430.4</ele>
        <time>2019-07-05T16:04:02Z</time>
      </trkpt>
      <trkpt lat="40.5500080" lon="-1.8900640">
        <ele>1429.4</ele>
        <time>2019-07-05T16:04:03Z</time>
      </trkpt>
      <trkpt lat="40.5500870" lon="-1.8901070">
        <ele>1429.0</ele>
        <time>2019-07-05T16:04:04Z</time>
      </trkpt>
      <trkpt lat="40.5501330" lon="-1.8901410">
        <ele>1428.8</ele>
        <time>2019-07-05T16:04:05Z</time>
      </trkpt>
      <trkpt lat="40.5501780" lon="-1.8901750">
        <ele>1428.8</ele>
        <time>2019-07-05T16:04:06Z</time>
      </trkpt>
      <trkpt lat="40.5503590" lon="-1.8903110">
        <ele>1428.6</ele>
        <time>2019-07-05T16:04:08Z</time>
      </trkpt>
      <trkpt lat="40.5505950" lon="-1.8903800">
        <ele>1428.4</ele>
        <time>2019-07-05T16:04:11Z</time>
      </trkpt>
      <trkpt lat="40.5507560" lon="-1.8904110">
        <ele>1427.6</ele>
        <time>2019-07-05T16:04:13Z</time>
      </trkpt>
      <trkpt lat="40.5512040" lon="-1.8905510">
        <ele>1426.6</ele>
        <time>2019-07-05T16:04:19Z</time>
      </trkpt>
      <trkpt lat="40.5512680" lon="-1.8905720">
        <ele>1426.4</ele>
        <time>2019-07-05T16:04:20Z</time>
      </trkpt>
      <trkpt lat="40.5513830" lon="-1.8906190">
        <ele>1426.2</ele>
        <time>2019-07-05T16:04:22Z</time>
      </trkpt>
      <trkpt lat="40.5514920" lon="-1.8906880">
        <ele>1425.4</ele>
        <time>2019-07-05T16:04:24Z</time>
      </trkpt>
      <trkpt lat="40.5516730" lon="-1.8908280">
        <ele>1424.0</ele>
        <time>2019-07-05T16:04:27Z</time>
      </trkpt>
      <trkpt lat="40.5517370" lon="-1.8908800">
        <ele>1422.6</ele>
        <time>2019-07-05T16:04:29Z</time>
      </trkpt>
      <trkpt lat="40.5518470" lon="-1.8909450">
        <ele>1422.0</ele>
        <time>2019-07-05T16:04:30Z</time>
      </trkpt>
      <trkpt lat="40.5519570" lon="-1.8910110">
        <ele>1421.6</ele>
        <time>2019-07-05T16:04:31Z</time>
      </trkpt>
      <trkpt lat="40.5521240" lon="-1.8910760">
        <ele>1420.0</ele>
        <time>2019-07-05T16:04:33Z</time>
      </trkpt>
      <trkpt lat="40.5522060" lon="-1.8911020">
        <ele>1418.6</ele>
        <time>2019-07-05T16:04:35Z</time>
      </trkpt>
      <trkpt lat="40.5524230" lon="-1.8911750">
        <ele>1417.2</ele>
        <time>2019-07-05T16:04:37Z</time>
      </trkpt>
      <trkpt lat="40.5525520" lon="-1.8912200">
        <ele>1416.0</ele>
        <time>2019-07-05T16:04:39Z</time>
      </trkpt>
      <trkpt lat="40.5526810" lon="-1.8912520">
        <ele>1414.6</ele>
        <time>2019-07-05T16:04:41Z</time>
      </trkpt>
      <trkpt lat="40.5528800" lon="-1.8912980">
        <ele>1413.4</ele>
        <time>2019-07-05T16:04:44Z</time>
      </trkpt>
      <trkpt lat="40.5530100" lon="-1.8913230">
        <ele>1412.2</ele>
        <time>2019-07-05T16:04:46Z</time>
      </trkpt>
      <trkpt lat="40.5530740" lon="-1.8913260">
        <ele>1411.6</ele>
        <time>2019-07-05T16:04:47Z</time>
      </trkpt>
      <trkpt lat="40.5531930" lon="-1.8913150">
        <ele>1410.8</ele>
        <time>2019-07-05T16:04:49Z</time>
      </trkpt>
      <trkpt lat="40.5532450" lon="-1.8913020">
        <ele>1410.2</ele>
        <time>2019-07-05T16:04:50Z</time>
      </trkpt>
      <trkpt lat="40.5532920" lon="-1.8912810">
        <ele>1409.8</ele>
        <time>2019-07-05T16:04:51Z</time>
      </trkpt>
      <trkpt lat="40.5533370" lon="-1.8912530">
        <ele>1409.0</ele>
        <time>2019-07-05T16:04:52Z</time>
      </trkpt>
      <trkpt lat="40.5534670" lon="-1.8911680">
        <ele>1407.8</ele>
        <time>2019-07-05T16:04:55Z</time>
      </trkpt>
      <trkpt lat="40.5535630" lon="-1.8911190">
        <ele>1407.2</ele>
        <time>2019-07-05T16:04:57Z</time>
      </trkpt>
      <trkpt lat="40.5536150" lon="-1.8910990">
        <ele>1406.8</ele>
        <time>2019-07-05T16:04:58Z</time>
      </trkpt>
      <trkpt lat="40.5537250" lon="-1.8910660">
        <ele>1406.0</ele>
        <time>2019-07-05T16:05:00Z</time>
      </trkpt>
      <trkpt lat="40.5537810" lon="-1.8910480">
        <ele>1405.6</ele>
        <time>2019-07-05T16:05:01Z</time>
      </trkpt>
      <trkpt lat="40.5538850" lon="-1.8910110">
        <ele>1404.6</ele>
        <time>2019-07-05T16:05:03Z</time>
      </trkpt>
      <trkpt lat="40.5539700" lon="-1.8909710">
        <ele>1403.4</ele>
        <time>2019-07-05T16:05:05Z</time>
      </trkpt>
      <trkpt lat="40.5540400" lon="-1.8909320">
        <ele>1402.2</ele>
        <time>2019-07-05T16:05:07Z</time>
      </trkpt>
      <trkpt lat="40.5540720" lon="-1.8909150">
        <ele>1401.6</ele>
        <time>2019-07-05T16:05:08Z</time>
      </trkpt>
      <trkpt lat="40.5541080" lon="-1.8909030">
        <ele>1401.0</ele>
        <time>2019-07-05T16:05:09Z</time>
      </trkpt>
      <trkpt lat="40.5541950" lon="-1.8908960">
        <ele>1400.2</ele>
        <time>2019-07-05T16:05:11Z</time>
      </trkpt>
      <trkpt lat="40.5542420" lon="-1.8909160">
        <ele>1399.8</ele>
        <time>2019-07-05T16:05:12Z</time>
      </trkpt>
      <trkpt lat="40.5543460" lon="-1.8910790">
        <ele>1398.8</ele>
        <time>2019-07-05T16:05:15Z</time>
      </trkpt>
      <trkpt lat="40.5543690" lon="-1.8911470">
        <ele>1398.4</ele>
        <time>2019-07-05T16:05:16Z</time>
      </trkpt>
      <trkpt lat="40.5543920" lon="-1.8912100">
        <ele>1398.0</ele>
        <time>2019-07-05T16:05:17Z</time>
      </trkpt>
      <trkpt lat="40.5544200" lon="-1.8912640">
        <ele>1397.6</ele>
        <time>2019-07-05T16:05:18Z</time>
      </trkpt>
      <trkpt lat="40.5544790" lon="-1.8913420">
        <ele>1397.4</ele>
        <time>2019-07-05T16:05:20Z</time>
      </trkpt>
      <trkpt lat="40.5545530" lon="-1.8914070">
        <ele>1398.8</ele>
        <time>2019-07-05T16:05:23Z</time>
      </trkpt>
      <trkpt lat="40.5545760" lon="-1.8914250">
        <ele>1399.2</ele>
        <time>2019-07-05T16:05:24Z</time>
      </trkpt>
      <trkpt lat="40.5545970" lon="-1.8914400">
        <ele>1399.6</ele>
        <time>2019-07-05T16:05:25Z</time>
      </trkpt>
      <trkpt lat="40.5546400" lon="-1.8914710">
        <ele>1399.8</ele>
        <time>2019-07-05T16:05:27Z</time>
      </trkpt>
      <trkpt lat="40.5547260" lon="-1.8915340">
        <ele>1400.8</ele>
        <time>2019-07-05T16:05:31Z</time>
      </trkpt>
      <trkpt lat="40.5547500" lon="-1.8915470">
        <ele>1401.0</ele>
        <time>2019-07-05T16:05:32Z</time>
      </trkpt>
      <trkpt lat="40.5548690" lon="-1.8916170">
        <ele>1402.0</ele>
        <time>2019-07-05T16:05:37Z</time>
      </trkpt>
      <trkpt lat="40.5549140" lon="-1.8916430">
        <ele>1402.8</ele>
        <time>2019-07-05T16:05:39Z</time>
      </trkpt>
      <trkpt lat="40.5549570" lon="-1.8916730">
        <ele>1403.2</ele>
        <time>2019-07-05T16:05:41Z</time>
      </trkpt>
      <trkpt lat="40.5549800" lon="-1.8916840">
        <ele>1403.0</ele>
        <time>2019-07-05T16:05:42Z</time>
      </trkpt>
      <trkpt lat="40.5550670" lon="-1.8917240">
        <ele>1403.6</ele>
        <time>2019-07-05T16:05:46Z</time>
      </trkpt>
      <trkpt lat="40.5551250" lon="-1.8917520">
        <ele>1404.2</ele>
        <time>2019-07-05T16:05:49Z</time>
      </trkpt>
      <trkpt lat="40.5551960" lon="-1.8917850">
        <ele>1404.8</ele>
        <time>2019-07-05T16:05:53Z</time>
      </trkpt>
      <trkpt lat="40.5552820" lon="-1.8918190">
        <ele>1405.2</ele>
        <time>2019-07-05T16:05:58Z</time>
      </trkpt>
      <trkpt lat="40.5553170" lon="-1.8918320">
        <ele>1405.6</ele>
        <time>2019-07-05T16:06:00Z</time>
      </trkpt>
      <trkpt lat="40.5553680" lon="-1.8918560">
        <ele>1406.4</ele>
        <time>2019-07-05T16:06:03Z</time>
      </trkpt>
      <trkpt lat="40.5554420" lon="-1.8918860">
        <ele>1407.8</ele>
        <time>2019-07-05T16:06:07Z</time>
      </trkpt>
      <trkpt lat="40.5554810" lon="-1.8919010">
        <ele>1408.2</ele>
        <time>2019-07-05T16:06:09Z</time>
      </trkpt>
      <trkpt lat="40.5555990" lon="-1.8919520">
        <ele>1408.8</ele>
        <time>2019-07-05T16:06:15Z</time>
      </trkpt>
      <trkpt lat="40.5556570" lon="-1.8919800">
        <ele>1409.0</ele>
        <time>2019-07-05T16:06:18Z</time>
      </trkpt>
      <trkpt lat="40.5557470" lon="-1.8920350">
        <ele>1410.0</ele>
        <time>2019-07-05T16:06:23Z</time>
      </trkpt>
      <trkpt lat="40.5557810" lon="-1.8920650">
        <ele>1410.4</ele>
        <time>2019-07-05T16:06:25Z</time>
      </trkpt>
      <trkpt lat="40.5558780" lon="-1.8921200">
        <ele>1411.0</ele>
        <time>2019-07-05T16:06:30Z</time>
      </trkpt>
      <trkpt lat="40.5559170" lon="-1.8921520">
        <ele>1411.6</ele>
        <time>2019-07-05T16:06:32Z</time>
      </trkpt>
      <trkpt lat="40.5559760" lon="-1.8922010">
        <ele>1412.2</ele>
        <time>2019-07-05T16:06:35Z</time>
      </trkpt>
      <trkpt lat="40.5560640" lon="-1.8923030">
        <ele>1412.8</ele>
        <time>2019-07-05T16:06:40Z</time>
      </trkpt>
      <trkpt lat="40.5560980" lon="-1.8923410">
        <ele>1413.6</ele>
        <time>2019-07-05T16:06:42Z</time>
      </trkpt>
      <trkpt lat="40.5561860" lon="-1.8924440">
        <ele>1414.2</ele>
        <time>2019-07-05T16:06:47Z</time>
      </trkpt>
      <trkpt lat="40.5562510" lon="-1.8925310">
        <ele>1414.8</ele>
        <time>2019-07-05T16:06:51Z</time>
      </trkpt>
      <trkpt lat="40.5563120" lon="-1.8926300">
        <ele>1415.4</ele>
        <time>2019-07-05T16:06:55Z</time>
      </trkpt>
      <trkpt lat="40.5563480" lon="-1.8927140">
        <ele>1415.8</ele>
        <time>2019-07-05T16:06:58Z</time>
      </trkpt>
      <trkpt lat="40.5563940" lon="-1.8928260">
        <ele>1416.6</ele>
        <time>2019-07-05T16:07:02Z</time>
      </trkpt>
      <trkpt lat="40.5564140" lon="-1.8928840">
        <ele>1417.0</ele>
        <time>2019-07-05T16:07:04Z</time>
      </trkpt>
      <trkpt lat="40.5565030" lon="-1.8930870">
        <ele>1417.2</ele>
        <time>2019-07-05T16:07:10Z</time>
      </trkpt>
      <trkpt lat="40.5566170" lon="-1.8932920">
        <ele>1417.6</ele>
        <time>2019-07-05T16:07:15Z</time>
      </trkpt>
      <trkpt lat="40.5566740" lon="-1.8933810">
        <ele>1417.4</ele>
        <time>2019-07-05T16:07:17Z</time>
      </trkpt>
      <trkpt lat="40.5567560" lon="-1.8935340">
        <ele>1417.2</ele>
        <time>2019-07-05T16:07:20Z</time>
      </trkpt>
      <trkpt lat="40.5568790" lon="-1.8937270">
        <ele>1417.2</ele>
        <time>2019-07-05T16:07:24Z</time>
      </trkpt>
      <trkpt lat="40.5569360" lon="-1.8938270">
        <ele>1417.2</ele>
        <time>2019-07-05T16:07:26Z</time>
      </trkpt>
      <trkpt lat="40.5569970" lon="-1.8939240">
        <ele>1417.4</ele>
        <time>2019-07-05T16:07:28Z</time>
      </trkpt>
      <trkpt lat="40.5570770" lon="-1.8940710">
        <ele>1417.4</ele>
        <time>2019-07-05T16:07:31Z</time>
      </trkpt>
      <trkpt lat="40.5572750" lon="-1.8944420">
        <ele>1417.6</ele>
        <time>2019-07-05T16:07:39Z</time>
      </trkpt>
      <trkpt lat="40.5575170" lon="-1.8948560">
        <ele>1417.4</ele>
        <time>2019-07-05T16:07:48Z</time>
      </trkpt>
      <trkpt lat="40.5578030" lon="-1.8952030">
        <ele>1417.4</ele>
        <time>2019-07-05T16:07:55Z</time>
      </trkpt>
      <trkpt lat="40.5581480" lon="-1.8955490">
        <ele>1416.4</ele>
        <time>2019-07-05T16:08:03Z</time>
      </trkpt>
      <trkpt lat="40.5583940" lon="-1.8957130">
        <ele>1416.0</ele>
        <time>2019-07-05T16:08:08Z</time>
      </trkpt>
      <trkpt lat="40.5585000" lon="-1.8957590">
        <ele>1415.8</ele>
        <time>2019-07-05T16:08:10Z</time>
      </trkpt>
      <trkpt lat="40.5587480" lon="-1.8957780">
        <ele>1415.2</ele>
        <time>2019-07-05T16:08:14Z</time>
      </trkpt>
      <trkpt lat="40.5588170" lon="-1.8957690">
        <ele>1415.0</ele>
        <time>2019-07-05T16:08:15Z</time>
      </trkpt>
      <trkpt lat="40.5590390" lon="-1.8957170">
        <ele>1413.4</ele>
        <time>2019-07-05T16:08:18Z</time>
      </trkpt>
      <trkpt lat="40.5591980" lon="-1.8956800">
        <ele>1412.8</ele>
        <time>2019-07-05T16:08:20Z</time>
      </trkpt>
      <trkpt lat="40.5593590" lon="-1.8956500">
        <ele>1412.2</ele>
        <time>2019-07-05T16:08:22Z</time>
      </trkpt>
      <trkpt lat="40.5597190" lon="-1.8956150">
        <ele>1411.4</ele>
        <time>2019-07-05T16:08:27Z</time>
      </trkpt>
      <trkpt lat="40.5600160" lon="-1.8956000">
        <ele>1411.6</ele>
        <time>2019-07-05T16:08:32Z</time>
      </trkpt>
      <trkpt lat="40.5600720" lon="-1.8956100">
        <ele>1411.6</ele>
        <time>2019-07-05T16:08:33Z</time>
      </trkpt>
      <trkpt lat="40.5602330" lon="-1.8956470">
        <ele>1411.6</ele>
        <time>2019-07-05T16:08:36Z</time>
      </trkpt>
      <trkpt lat="40.5603360" lon="-1.8956890">
        <ele>1411.4</ele>
        <time>2019-07-05T16:08:38Z</time>
      </trkpt>
      <trkpt lat="40.5603860" lon="-1.8957160">
        <ele>1411.4</ele>
        <time>2019-07-05T16:08:39Z</time>
      </trkpt>
      <trkpt lat="40.5604790" lon="-1.8957780">
        <ele>1411.2</ele>
        <time>2019-07-05T16:08:41Z</time>
      </trkpt>
      <trkpt lat="40.5606110" lon="-1.8958810">
        <ele>1411.8</ele>
        <time>2019-07-05T16:08:44Z</time>
      </trkpt>
      <trkpt lat="40.5609690" lon="-1.8961180">
        <ele>1412.0</ele>
        <time>2019-07-05T16:08:52Z</time>
      </trkpt>
      <trkpt lat="40.5612160" lon="-1.8962270">
        <ele>1412.0</ele>
        <time>2019-07-05T16:08:58Z</time>
      </trkpt>
      <trkpt lat="40.5615150" lon="-1.8962600">
        <ele>1411.6</ele>
        <time>2019-07-05T16:09:04Z</time>
      </trkpt>
      <trkpt lat="40.5616460" lon="-1.8962660">
        <ele>1410.0</ele>
        <time>2019-07-05T16:09:06Z</time>
      </trkpt>
      <trkpt lat="40.5618430" lon="-1.8962670">
        <ele>1408.8</ele>
        <time>2019-07-05T16:09:09Z</time>
      </trkpt>
      <trkpt lat="40.5619030" lon="-1.8962680">
        <ele>1408.0</ele>
        <time>2019-07-05T16:09:10Z</time>
      </trkpt>
      <trkpt lat="40.5619590" lon="-1.8962710">
        <ele>1407.4</ele>
        <time>2019-07-05T16:09:11Z</time>
      </trkpt>
      <trkpt lat="40.5621430" lon="-1.8962990">
        <ele>1405.8</ele>
        <time>2019-07-05T16:09:14Z</time>
      </trkpt>
      <trkpt lat="40.5622090" lon="-1.8963120">
        <ele>1405.4</ele>
        <time>2019-07-05T16:09:15Z</time>
      </trkpt>
      <trkpt lat="40.5623370" lon="-1.8963430">
        <ele>1404.4</ele>
        <time>2019-07-05T16:09:17Z</time>
      </trkpt>
      <trkpt lat="40.5624030" lon="-1.8963630">
        <ele>1403.2</ele>
        <time>2019-07-05T16:09:18Z</time>
      </trkpt>
      <trkpt lat="40.5624740" lon="-1.8963840">
        <ele>1402.0</ele>
        <time>2019-07-05T16:09:19Z</time>
      </trkpt>
      <trkpt lat="40.5626230" lon="-1.8964370">
        <ele>1401.0</ele>
        <time>2019-07-05T16:09:21Z</time>
      </trkpt>
      <trkpt lat="40.5627720" lon="-1.8964850">
        <ele>1400.0</ele>
        <time>2019-07-05T16:09:23Z</time>
      </trkpt>
      <trkpt lat="40.5630870" lon="-1.8965690">
        <ele>1399.0</ele>
        <time>2019-07-05T16:09:27Z</time>
      </trkpt>
      <trkpt lat="40.5632690" lon="-1.8965970">
        <ele>1397.2</ele>
        <time>2019-07-05T16:09:29Z</time>
      </trkpt>
      <trkpt lat="40.5633650" lon="-1.8966060">
        <ele>1395.0</ele>
        <time>2019-07-05T16:09:30Z</time>
      </trkpt>
      <trkpt lat="40.5634590" lon="-1.8966140">
        <ele>1394.0</ele>
        <time>2019-07-05T16:09:31Z</time>
      </trkpt>
      <trkpt lat="40.5635460" lon="-1.8966180">
        <ele>1393.2</ele>
        <time>2019-07-05T16:09:32Z</time>
      </trkpt>
      <trkpt lat="40.5637050" lon="-1.8966080">
        <ele>1391.8</ele>
        <time>2019-07-05T16:09:34Z</time>
      </trkpt>
      <trkpt lat="40.5637830" lon="-1.8966030">
        <ele>1391.8</ele>
        <time>2019-07-05T16:09:35Z</time>
      </trkpt>
      <trkpt lat="40.5639440" lon="-1.8966040">
        <ele>1390.8</ele>
        <time>2019-07-05T16:09:37Z</time>
      </trkpt>
      <trkpt lat="40.5640280" lon="-1.8966070">
        <ele>1389.6</ele>
        <time>2019-07-05T16:09:38Z</time>
      </trkpt>
      <trkpt lat="40.5642010" lon="-1.8966170">
        <ele>1388.2</ele>
        <time>2019-07-05T16:09:40Z</time>
      </trkpt>
      <trkpt lat="40.5643820" lon="-1.8966430">
        <ele>1387.0</ele>
        <time>2019-07-05T16:09:42Z</time>
      </trkpt>
      <trkpt lat="40.5646580" lon="-1.8966970">
        <ele>1386.4</ele>
        <time>2019-07-05T16:09:45Z</time>
      </trkpt>
      <trkpt lat="40.5647400" lon="-1.8967240">
        <ele>1385.8</ele>
        <time>2019-07-05T16:09:46Z</time>
      </trkpt>
      <trkpt lat="40.5648760" lon="-1.8967780">
        <ele>1385.0</ele>
        <time>2019-07-05T16:09:48Z</time>
      </trkpt>
      <trkpt lat="40.5650190" lon="-1.8968240">
        <ele>1385.4</ele>
        <time>2019-07-05T16:09:51Z</time>
      </trkpt>
      <trkpt lat="40.5650610" lon="-1.8968300">
        <ele>1385.8</ele>
        <time>2019-07-05T16:09:52Z</time>
      </trkpt>
      <trkpt lat="40.5651020" lon="-1.8968410">
        <ele>1386.0</ele>
        <time>2019-07-05T16:09:53Z</time>
      </trkpt>
      <trkpt lat="40.5651860" lon="-1.8968580">
        <ele>1386.8</ele>
        <time>2019-07-05T16:09:55Z</time>
      </trkpt>
      <trkpt lat="40.5652320" lon="-1.8968620">
        <ele>1386.8</ele>
        <time>2019-07-05T16:09:56Z</time>
      </trkpt>
      <trkpt lat="40.5655690" lon="-1.8968960">
        <ele>1386.4</ele>
        <time>2019-07-05T16:10:02Z</time>
      </trkpt>
      <trkpt lat="40.5658600" lon="-1.8969300">
        <ele>1386.6</ele>
        <time>2019-07-05T16:10:07Z</time>
      </trkpt>
      <trkpt lat="40.5659740" lon="-1.8969210">
        <ele>1386.6</ele>
        <time>2019-07-05T16:10:09Z</time>
      </trkpt>
      <trkpt lat="40.5661360" lon="-1.8968440">
        <ele>1387.0</ele>
        <time>2019-07-05T16:10:12Z</time>
      </trkpt>
      <trkpt lat="40.5662120" lon="-1.8966560">
        <ele>1386.6</ele>
        <time>2019-07-05T16:10:15Z</time>
      </trkpt>
      <trkpt lat="40.5662100" lon="-1.8964860">
        <ele>1386.0</ele>
        <time>2019-07-05T16:10:17Z</time>
      </trkpt>
      <trkpt lat="40.5662090" lon="-1.8963930">
        <ele>1385.6</ele>
        <time>2019-07-05T16:10:18Z</time>
      </trkpt>
      <trkpt lat="40.5662170" lon="-1.8962990">
        <ele>1385.4</ele>
        <time>2019-07-05T16:10:19Z</time>
      </trkpt>
      <trkpt lat="40.5663040" lon="-1.8960460">
        <ele>1384.2</ele>
        <time>2019-07-05T16:10:22Z</time>
      </trkpt>
      <trkpt lat="40.5664710" lon="-1.8958660">
        <ele>1383.0</ele>
        <time>2019-07-05T16:10:25Z</time>
      </trkpt>
      <trkpt lat="40.5665320" lon="-1.8958180">
        <ele>1382.8</ele>
        <time>2019-07-05T16:10:26Z</time>
      </trkpt>
      <trkpt lat="40.5669340" lon="-1.8955460">
        <ele>1382.0</ele>
        <time>2019-07-05T16:10:33Z</time>
      </trkpt>
      <trkpt lat="40.5670470" lon="-1.8954990">
        <ele>1382.2</ele>
        <time>2019-07-05T16:10:35Z</time>
      </trkpt>
      <trkpt lat="40.5671620" lon="-1.8954940">
        <ele>1382.2</ele>
        <time>2019-07-05T16:10:37Z</time>
      </trkpt>
      <trkpt lat="40.5672590" lon="-1.8955250">
        <ele>1382.2</ele>
        <time>2019-07-05T16:10:39Z</time>
      </trkpt>
      <trkpt lat="40.5673370" lon="-1.8955460">
        <ele>1382.4</ele>
        <time>2019-07-05T16:10:41Z</time>
      </trkpt>
      <trkpt lat="40.5674670" lon="-1.8954970">
        <ele>1383.0</ele>
        <time>2019-07-05T16:10:46Z</time>
      </trkpt>
      <trkpt lat="40.5674910" lon="-1.8954180">
        <ele>1383.6</ele>
        <time>2019-07-05T16:10:49Z</time>
      </trkpt>
      <trkpt lat="40.5674810" lon="-1.8953500">
        <ele>1384.0</ele>
        <time>2019-07-05T16:10:51Z</time>
      </trkpt>
      <trkpt lat="40.5674670" lon="-1.8952800">
        <ele>1384.0</ele>
        <time>2019-07-05T16:10:53Z</time>
      </trkpt>
      <trkpt lat="40.5674520" lon="-1.8951610">
        <ele>1384.0</ele>
        <time>2019-07-05T16:10:56Z</time>
      </trkpt>
      <trkpt lat="40.5674380" lon="-1.8950780">
        <ele>1384.4</ele>
        <time>2019-07-05T16:10:58Z</time>
      </trkpt>
      <trkpt lat="40.5674190" lon="-1.8949690">
        <ele>1385.4</ele>
        <time>2019-07-05T16:11:01Z</time>
      </trkpt>
      <trkpt lat="40.5674010" lon="-1.8948360">
        <ele>1386.4</ele>
        <time>2019-07-05T16:11:05Z</time>
      </trkpt>
      <trkpt lat="40.5673940" lon="-1.8948050">
        <ele>1386.6</ele>
        <time>2019-07-05T16:11:06Z</time>
      </trkpt>
      <trkpt lat="40.5673850" lon="-1.8947430">
        <ele>1387.4</ele>
        <time>2019-07-05T16:11:08Z</time>
      </trkpt>
      <trkpt lat="40.5673830" lon="-1.8947100">
        <ele>1387.8</ele>
        <time>2019-07-05T16:11:09Z</time>
      </trkpt>
      <trkpt lat="40.5673930" lon="-1.8945710">
        <ele>1388.8</ele>
        <time>2019-07-05T16:11:13Z</time>
      </trkpt>
      <trkpt lat="40.5674540" lon="-1.8944560">
        <ele>1389.4</ele>
        <time>2019-07-05T16:11:17Z</time>
      </trkpt>
      <trkpt lat="40.5674750" lon="-1.8944320">
        <ele>1389.6</ele>
        <time>2019-07-05T16:11:18Z</time>
      </trkpt>
      <trkpt lat="40.5674970" lon="-1.8944100">
        <ele>1390.0</ele>
        <time>2019-07-05T16:11:19Z</time>
      </trkpt>
      <trkpt lat="40.5676530" lon="-1.8942820">
        <ele>1390.8</ele>
        <time>2019-07-05T16:11:26Z</time>
      </trkpt>
      <trkpt lat="40.5676730" lon="-1.8942620">
        <ele>1391.0</ele>
        <time>2019-07-05T16:11:27Z</time>
      </trkpt>
      <trkpt lat="40.5677870" lon="-1.8941110">
        <ele>1392.0</ele>
        <time>2019-07-05T16:11:33Z</time>
      </trkpt>
      <trkpt lat="40.5678900" lon="-1.8939380">
        <ele>1393.2</ele>
        <time>2019-07-05T16:11:39Z</time>
      </trkpt>
      <trkpt lat="40.5679220" lon="-1.8938780">
        <ele>1393.2</ele>
        <time>2019-07-05T16:11:41Z</time>
      </trkpt>
      <trkpt lat="40.5680650" lon="-1.8935770">
        <ele>1393.8</ele>
        <time>2019-07-05T16:11:50Z</time>
      </trkpt>
      <trkpt lat="40.5681890" lon="-1.8932370">
        <ele>1394.0</ele>
        <time>2019-07-05T16:11:58Z</time>
      </trkpt>
      <trkpt lat="40.5682550" lon="-1.8930630">
        <ele>1394.4</ele>
        <time>2019-07-05T16:12:02Z</time>
      </trkpt>
      <trkpt lat="40.5683010" lon="-1.8929860">
        <ele>1394.6</ele>
        <time>2019-07-05T16:12:04Z</time>
      </trkpt>
      <trkpt lat="40.5684160" lon="-1.8928460">
        <ele>1394.6</ele>
        <time>2019-07-05T16:12:08Z</time>
      </trkpt>
      <trkpt lat="40.5684480" lon="-1.8928140">
        <ele>1394.6</ele>
        <time>2019-07-05T16:12:09Z</time>
      </trkpt>
      <trkpt lat="40.5684810" lon="-1.8927820">
        <ele>1394.6</ele>
        <time>2019-07-05T16:12:10Z</time>
      </trkpt>
      <trkpt lat="40.5685130" lon="-1.8927450">
        <ele>1394.6</ele>
        <time>2019-07-05T16:12:11Z</time>
      </trkpt>
      <trkpt lat="40.5686120" lon="-1.8925840">
        <ele>1394.6</ele>
        <time>2019-07-05T16:12:15Z</time>
      </trkpt>
      <trkpt lat="40.5686500" lon="-1.8924070">
        <ele>1395.6</ele>
        <time>2019-07-05T16:12:20Z</time>
      </trkpt>
      <trkpt lat="40.5686240" lon="-1.8922800">
        <ele>1396.6</ele>
        <time>2019-07-05T16:12:24Z</time>
      </trkpt>
      <trkpt lat="40.5686070" lon="-1.8922180">
        <ele>1397.8</ele>
        <time>2019-07-05T16:12:26Z</time>
      </trkpt>
      <trkpt lat="40.5685980" lon="-1.8921890">
        <ele>1398.2</ele>
        <time>2019-07-05T16:12:27Z</time>
      </trkpt>
      <trkpt lat="40.5685910" lon="-1.8921590">
        <ele>1398.8</ele>
        <time>2019-07-05T16:12:28Z</time>
      </trkpt>
      <trkpt lat="40.5685690" lon="-1.8920630">
        <ele>1400.0</ele>
        <time>2019-07-05T16:12:31Z</time>
      </trkpt>
      <trkpt lat="40.5685490" lon="-1.8919640">
        <ele>1401.2</ele>
        <time>2019-07-05T16:12:34Z</time>
      </trkpt>
      <trkpt lat="40.5685430" lon="-1.8919310">
        <ele>1401.4</ele>
        <time>2019-07-05T16:12:35Z</time>
      </trkpt>
      <trkpt lat="40.5685220" lon="-1.8917650">
        <ele>1402.4</ele>
        <time>2019-07-05T16:12:40Z</time>
      </trkpt>
      <trkpt lat="40.5685120" lon="-1.8915950">
        <ele>1403.2</ele>
        <time>2019-07-05T16:12:45Z</time>
      </trkpt>
      <trkpt lat="40.5685090" lon="-1.8915240">
        <ele>1403.8</ele>
        <time>2019-07-05T16:12:47Z</time>
      </trkpt>
      <trkpt lat="40.5684980" lon="-1.8913130">
        <ele>1404.8</ele>
        <time>2019-07-05T16:12:53Z</time>
      </trkpt>
      <trkpt lat="40.5684900" lon="-1.8912450">
        <ele>1405.4</ele>
        <time>2019-07-05T16:12:55Z</time>
      </trkpt>
      <trkpt lat="40.5684710" lon="-1.8910720">
        <ele>1406.0</ele>
        <time>2019-07-05T16:13:00Z</time>
      </trkpt>
      <trkpt lat="40.5684630" lon="-1.8909290">
        <ele>1406.8</ele>
        <time>2019-07-05T16:13:04Z</time>
      </trkpt>
      <trkpt lat="40.5684600" lon="-1.8908920">
        <ele>1407.0</ele>
        <time>2019-07-05T16:13:05Z</time>
      </trkpt>
      <trkpt lat="40.5684600" lon="-1.8906740">
        <ele>1408.2</ele>
        <time>2019-07-05T16:13:11Z</time>
      </trkpt>
      <trkpt lat="40.5684620" lon="-1.8906370">
        <ele>1408.4</ele>
        <time>2019-07-05T16:13:12Z</time>
      </trkpt>
      <trkpt lat="40.5685160" lon="-1.8904650">
        <ele>1408.4</ele>
        <time>2019-07-05T16:13:16Z</time>
      </trkpt>
      <trkpt lat="40.5686080" lon="-1.8902190">
        <ele>1407.2</ele>
        <time>2019-07-05T16:13:20Z</time>
      </trkpt>
      <trkpt lat="40.5686330" lon="-1.8901520">
        <ele>1406.6</ele>
        <time>2019-07-05T16:13:21Z</time>
      </trkpt>
      <trkpt lat="40.5686750" lon="-1.8899900">
        <ele>1406.0</ele>
        <time>2019-07-05T16:13:23Z</time>
      </trkpt>
      <trkpt lat="40.5687220" lon="-1.8897850">
        <ele>1404.8</ele>
        <time>2019-07-05T16:13:25Z</time>
      </trkpt>
      <trkpt lat="40.5687740" lon="-1.8895670">
        <ele>1403.2</ele>
        <time>2019-07-05T16:13:27Z</time>
      </trkpt>
      <trkpt lat="40.5688030" lon="-1.8894640">
        <ele>1402.0</ele>
        <time>2019-07-05T16:13:28Z</time>
      </trkpt>
      <trkpt lat="40.5688320" lon="-1.8893660">
        <ele>1401.0</ele>
        <time>2019-07-05T16:13:29Z</time>
      </trkpt>
      <trkpt lat="40.5688770" lon="-1.8891900">
        <ele>1399.6</ele>
        <time>2019-07-05T16:13:31Z</time>
      </trkpt>
      <trkpt lat="40.5689180" lon="-1.8889470">
        <ele>1398.6</ele>
        <time>2019-07-05T16:13:34Z</time>
      </trkpt>
      <trkpt lat="40.5689310" lon="-1.8888040">
        <ele>1398.2</ele>
        <time>2019-07-05T16:13:36Z</time>
      </trkpt>
      <trkpt lat="40.5689660" lon="-1.8884850">
        <ele>1397.2</ele>
        <time>2019-07-05T16:13:40Z</time>
      </trkpt>
      <trkpt lat="40.5689780" lon="-1.8884160">
        <ele>1396.6</ele>
        <time>2019-07-05T16:13:41Z</time>
      </trkpt>
      <trkpt lat="40.5689900" lon="-1.8883590">
        <ele>1396.0</ele>
        <time>2019-07-05T16:13:42Z</time>
      </trkpt>
      <trkpt lat="40.5690280" lon="-1.8882180">
        <ele>1395.2</ele>
        <time>2019-07-05T16:13:45Z</time>
      </trkpt>
      <trkpt lat="40.5690580" lon="-1.8881690">
        <ele>1394.8</ele>
        <time>2019-07-05T16:13:46Z</time>
      </trkpt>
      <trkpt lat="40.5691550" lon="-1.8880760">
        <ele>1394.0</ele>
        <time>2019-07-05T16:13:48Z</time>
      </trkpt>
      <trkpt lat="40.5692170" lon="-1.8880470">
        <ele>1393.6</ele>
        <time>2019-07-05T16:13:49Z</time>
      </trkpt>
      <trkpt lat="40.5693490" lon="-1.8880480">
        <ele>1393.0</ele>
        <time>2019-07-05T16:13:51Z</time>
      </trkpt>
      <trkpt lat="40.5694080" lon="-1.8880800">
        <ele>1392.2</ele>
        <time>2019-07-05T16:13:52Z</time>
      </trkpt>
      <trkpt lat="40.5694980" lon="-1.8882000">
        <ele>1391.4</ele>
        <time>2019-07-05T16:13:54Z</time>
      </trkpt>
      <trkpt lat="40.5695280" lon="-1.8882750">
        <ele>1391.0</ele>
        <time>2019-07-05T16:13:55Z</time>
      </trkpt>
      <trkpt lat="40.5695720" lon="-1.8884190">
        <ele>1390.2</ele>
        <time>2019-07-05T16:13:57Z</time>
      </trkpt>
      <trkpt lat="40.5695880" lon="-1.8884860">
        <ele>1389.4</ele>
        <time>2019-07-05T16:13:58Z</time>
      </trkpt>
      <trkpt lat="40.5696030" lon="-1.8886230">
        <ele>1387.8</ele>
        <time>2019-07-05T16:14:00Z</time>
      </trkpt>
      <trkpt lat="40.5696210" lon="-1.8887590">
        <ele>1386.4</ele>
        <time>2019-07-05T16:14:02Z</time>
      </trkpt>
      <trkpt lat="40.5696360" lon="-1.8888220">
        <ele>1386.0</ele>
        <time>2019-07-05T16:14:03Z</time>
      </trkpt>
      <trkpt lat="40.5697380" lon="-1.8889890">
        <ele>1385.4</ele>
        <time>2019-07-05T16:14:06Z</time>
      </trkpt>
      <trkpt lat="40.5697870" lon="-1.8890350">
        <ele>1385.2</ele>
        <time>2019-07-05T16:14:07Z</time>
      </trkpt>
      <trkpt lat="40.5699460" lon="-1.8891410">
        <ele>1384.4</ele>
        <time>2019-07-05T16:14:10Z</time>
      </trkpt>
      <trkpt lat="40.5700000" lon="-1.8891700">
        <ele>1384.0</ele>
        <time>2019-07-05T16:14:11Z</time>
      </trkpt>
      <trkpt lat="40.5700580" lon="-1.8892050">
        <ele>1383.6</ele>
        <time>2019-07-05T16:14:12Z</time>
      </trkpt>
      <trkpt lat="40.5702440" lon="-1.8893130">
        <ele>1382.2</ele>
        <time>2019-07-05T16:14:15Z</time>
      </trkpt>
      <trkpt lat="40.5703710" lon="-1.8893790">
        <ele>1381.0</ele>
        <time>2019-07-05T16:14:17Z</time>
      </trkpt>
      <trkpt lat="40.5704960" lon="-1.8894400">
        <ele>1379.6</ele>
        <time>2019-07-05T16:14:19Z</time>
      </trkpt>
      <trkpt lat="40.5705570" lon="-1.8894730">
        <ele>1378.8</ele>
        <time>2019-07-05T16:14:20Z</time>
      </trkpt>
      <trkpt lat="40.5706160" lon="-1.8895030">
        <ele>1378.0</ele>
        <time>2019-07-05T16:14:21Z</time>
      </trkpt>
      <trkpt lat="40.5707930" lon="-1.8895840">
        <ele>1376.8</ele>
        <time>2019-07-05T16:14:24Z</time>
      </trkpt>
      <trkpt lat="40.5709860" lon="-1.8896620">
        <ele>1374.8</ele>
        <time>2019-07-05T16:14:27Z</time>
      </trkpt>
      <trkpt lat="40.5712150" lon="-1.8897220">
        <ele>1373.6</ele>
        <time>2019-07-05T16:14:30Z</time>
      </trkpt>
      <trkpt lat="40.5714500" lon="-1.8897600">
        <ele>1372.8</ele>
        <time>2019-07-05T16:14:33Z</time>
      </trkpt>
      <trkpt lat="40.5715310" lon="-1.8897660">
        <ele>1372.4</ele>
        <time>2019-07-05T16:14:34Z</time>
      </trkpt>
      <trkpt lat="40.5716110" lon="-1.8897710">
        <ele>1371.0</ele>
        <time>2019-07-05T16:14:35Z</time>
      </trkpt>
      <trkpt lat="40.5718530" lon="-1.8897650">
        <ele>1369.4</ele>
        <time>2019-07-05T16:14:38Z</time>
      </trkpt>
      <trkpt lat="40.5719370" lon="-1.8897560">
        <ele>1369.0</ele>
        <time>2019-07-05T16:14:39Z</time>
      </trkpt>
      <trkpt lat="40.5721100" lon="-1.8897410">
        <ele>1368.2</ele>
        <time>2019-07-05T16:14:41Z</time>
      </trkpt>
      <trkpt lat="40.5723540" lon="-1.8897500">
        <ele>1367.4</ele>
        <time>2019-07-05T16:14:44Z</time>
      </trkpt>
      <trkpt lat="40.5724260" lon="-1.8897580">
        <ele>1367.0</ele>
        <time>2019-07-05T16:14:45Z</time>
      </trkpt>
      <trkpt lat="40.5726230" lon="-1.8897990">
        <ele>1365.8</ele>
        <time>2019-07-05T16:14:48Z</time>
      </trkpt>
      <trkpt lat="40.5726900" lon="-1.8898170">
        <ele>1365.6</ele>
        <time>2019-07-05T16:14:49Z</time>
      </trkpt>
      <trkpt lat="40.5728910" lon="-1.8898820">
        <ele>1364.8</ele>
        <time>2019-07-05T16:14:52Z</time>
      </trkpt>
      <trkpt lat="40.5730790" lon="-1.8899330">
        <ele>1363.4</ele>
        <time>2019-07-05T16:14:55Z</time>
      </trkpt>
      <trkpt lat="40.5732060" lon="-1.8899570">
        <ele>1362.0</ele>
        <time>2019-07-05T16:14:57Z</time>
      </trkpt>
      <trkpt lat="40.5733300" lon="-1.8899810">
        <ele>1361.0</ele>
        <time>2019-07-05T16:14:59Z</time>
      </trkpt>
      <trkpt lat="40.5734540" lon="-1.8900070">
        <ele>1359.4</ele>
        <time>2019-07-05T16:15:01Z</time>
      </trkpt>
      <trkpt lat="40.5735860" lon="-1.8900350">
        <ele>1357.8</ele>
        <time>2019-07-05T16:15:03Z</time>
      </trkpt>
      <trkpt lat="40.5736560" lon="-1.8900480">
        <ele>1357.2</ele>
        <time>2019-07-05T16:15:04Z</time>
      </trkpt>
      <trkpt lat="40.5737270" lon="-1.8900610">
        <ele>1356.6</ele>
        <time>2019-07-05T16:15:05Z</time>
      </trkpt>
      <trkpt lat="40.5739240" lon="-1.8900910">
        <ele>1355.4</ele>
        <time>2019-07-05T16:15:08Z</time>
      </trkpt>
      <trkpt lat="40.5740430" lon="-1.8901090">
        <ele>1354.6</ele>
        <time>2019-07-05T16:15:10Z</time>
      </trkpt>
      <trkpt lat="40.5740990" lon="-1.8901040">
        <ele>1354.2</ele>
        <time>2019-07-05T16:15:11Z</time>
      </trkpt>
      <trkpt lat="40.5741510" lon="-1.8900940">
        <ele>1353.0</ele>
        <time>2019-07-05T16:15:12Z</time>
      </trkpt>
      <trkpt lat="40.5741960" lon="-1.8900840">
        <ele>1351.8</ele>
        <time>2019-07-05T16:15:13Z</time>
      </trkpt>
      <trkpt lat="40.5742390" lon="-1.8900730">
        <ele>1351.0</ele>
        <time>2019-07-05T16:15:14Z</time>
      </trkpt>
      <trkpt lat="40.5742850" lon="-1.8900580">
        <ele>1350.2</ele>
        <time>2019-07-05T16:15:15Z</time>
      </trkpt>
      <trkpt lat="40.5743370" lon="-1.8900450">
        <ele>1349.4</ele>
        <time>2019-07-05T16:15:16Z</time>
      </trkpt>
      <trkpt lat="40.5743930" lon="-1.8900500">
        <ele>1349.0</ele>
        <time>2019-07-05T16:15:17Z</time>
      </trkpt>
      <trkpt lat="40.5744480" lon="-1.8900750">
        <ele>1348.8</ele>
        <time>2019-07-05T16:15:18Z</time>
      </trkpt>
      <trkpt lat="40.5744980" lon="-1.8901170">
        <ele>1347.8</ele>
        <time>2019-07-05T16:15:19Z</time>
      </trkpt>
      <trkpt lat="40.5745790" lon="-1.8902180">
        <ele>1346.8</ele>
        <time>2019-07-05T16:15:21Z</time>
      </trkpt>
      <trkpt lat="40.5746120" lon="-1.8902610">
        <ele>1346.6</ele>
        <time>2019-07-05T16:15:22Z</time>
      </trkpt>
      <trkpt lat="40.5746820" lon="-1.8903220">
        <ele>1346.4</ele>
        <time>2019-07-05T16:15:24Z</time>
      </trkpt>
      <trkpt lat="40.5747690" lon="-1.8903840">
        <ele>1346.2</ele>
        <time>2019-07-05T16:15:26Z</time>
      </trkpt>
      <trkpt lat="40.5749240" lon="-1.8904760">
        <ele>1345.4</ele>
        <time>2019-07-05T16:15:29Z</time>
      </trkpt>
      <trkpt lat="40.5750440" lon="-1.8905240">
        <ele>1344.8</ele>
        <time>2019-07-05T16:15:31Z</time>
      </trkpt>
      <trkpt lat="40.5751060" lon="-1.8905390">
        <ele>1344.4</ele>
        <time>2019-07-05T16:15:32Z</time>
      </trkpt>
      <trkpt lat="40.5753030" lon="-1.8905920">
        <ele>1343.2</ele>
        <time>2019-07-05T16:15:35Z</time>
      </trkpt>
      <trkpt lat="40.5754400" lon="-1.8906330">
        <ele>1342.4</ele>
        <time>2019-07-05T16:15:37Z</time>
      </trkpt>
      <trkpt lat="40.5755770" lon="-1.8906880">
        <ele>1341.8</ele>
        <time>2019-07-05T16:15:39Z</time>
      </trkpt>
      <trkpt lat="40.5759350" lon="-1.8908230">
        <ele>1340.8</ele>
        <time>2019-07-05T16:15:44Z</time>
      </trkpt>
      <trkpt lat="40.5760130" lon="-1.8908440">
        <ele>1340.6</ele>
        <time>2019-07-05T16:15:45Z</time>
      </trkpt>
      <trkpt lat="40.5761720" lon="-1.8908860">
        <ele>1339.6</ele>
        <time>2019-07-05T16:15:47Z</time>
      </trkpt>
      <trkpt lat="40.5764080" lon="-1.8909400">
        <ele>1338.8</ele>
        <time>2019-07-05T16:15:50Z</time>
      </trkpt>
      <trkpt lat="40.5764800" lon="-1.8909680">
        <ele>1338.4</ele>
        <time>2019-07-05T16:15:51Z</time>
      </trkpt>
      <trkpt lat="40.5766250" lon="-1.8910180">
        <ele>1338.2</ele>
        <time>2019-07-05T16:15:53Z</time>
      </trkpt>
      <trkpt lat="40.5767750" lon="-1.8910430">
        <ele>1337.0</ele>
        <time>2019-07-05T16:15:55Z</time>
      </trkpt>
      <trkpt lat="40.5768550" lon="-1.8910560">
        <ele>1337.0</ele>
        <time>2019-07-05T16:15:56Z</time>
      </trkpt>
      <trkpt lat="40.5770130" lon="-1.8910950">
        <ele>1336.4</ele>
        <time>2019-07-05T16:15:58Z</time>
      </trkpt>
      <trkpt lat="40.5771510" lon="-1.8911510">
        <ele>1336.0</ele>
        <time>2019-07-05T16:16:00Z</time>
      </trkpt>
      <trkpt lat="40.5773300" lon="-1.8912310">
        <ele>1335.6</ele>
        <time>2019-07-05T16:16:03Z</time>
      </trkpt>
      <trkpt lat="40.5774980" lon="-1.8913430">
        <ele>1335.2</ele>
        <time>2019-07-05T16:16:06Z</time>
      </trkpt>
      <trkpt lat="40.5775530" lon="-1.8913840">
        <ele>1335.0</ele>
        <time>2019-07-05T16:16:07Z</time>
      </trkpt>
      <trkpt lat="40.5777920" lon="-1.8916040">
        <ele>1334.2</ele>
        <time>2019-07-05T16:16:12Z</time>
      </trkpt>
      <trkpt lat="40.5778350" lon="-1.8916390">
        <ele>1334.4</ele>
        <time>2019-07-05T16:16:13Z</time>
      </trkpt>
      <trkpt lat="40.5779950" lon="-1.8917580">
        <ele>1335.2</ele>
        <time>2019-07-05T16:16:17Z</time>
      </trkpt>
      <trkpt lat="40.5782180" lon="-1.8919620">
        <ele>1335.0</ele>
        <time>2019-07-05T16:16:23Z</time>
      </trkpt>
      <trkpt lat="40.5782530" lon="-1.8920080">
        <ele>1335.0</ele>
        <time>2019-07-05T16:16:24Z</time>
      </trkpt>
      <trkpt lat="40.5784050" lon="-1.8922190">
        <ele>1333.8</ele>
        <time>2019-07-05T16:16:28Z</time>
      </trkpt>
      <trkpt lat="40.5784810" lon="-1.8923080">
        <ele>1333.4</ele>
        <time>2019-07-05T16:16:30Z</time>
      </trkpt>
      <trkpt lat="40.5785630" lon="-1.8923790">
        <ele>1332.6</ele>
        <time>2019-07-05T16:16:32Z</time>
      </trkpt>
      <trkpt lat="40.5786100" lon="-1.8924090">
        <ele>1332.0</ele>
        <time>2019-07-05T16:16:33Z</time>
      </trkpt>
      <trkpt lat="40.5787140" lon="-1.8924610">
        <ele>1331.2</ele>
        <time>2019-07-05T16:16:35Z</time>
      </trkpt>
      <trkpt lat="40.5791200" lon="-1.8926210">
        <ele>1330.0</ele>
        <time>2019-07-05T16:16:42Z</time>
      </trkpt>
      <trkpt lat="40.5792940" lon="-1.8927100">
        <ele>1328.8</ele>
        <time>2019-07-05T16:16:45Z</time>
      </trkpt>
      <trkpt lat="40.5794620" lon="-1.8928020">
        <ele>1328.2</ele>
        <time>2019-07-05T16:16:48Z</time>
      </trkpt>
      <trkpt lat="40.5795760" lon="-1.8928840">
        <ele>1327.8</ele>
        <time>2019-07-05T16:16:50Z</time>
      </trkpt>
      <trkpt lat="40.5796330" lon="-1.8929290">
        <ele>1326.8</ele>
        <time>2019-07-05T16:16:51Z</time>
      </trkpt>
      <trkpt lat="40.5796850" lon="-1.8929780">
        <ele>1326.2</ele>
        <time>2019-07-05T16:16:52Z</time>
      </trkpt>
      <trkpt lat="40.5797720" lon="-1.8930970">
        <ele>1325.8</ele>
        <time>2019-07-05T16:16:54Z</time>
      </trkpt>
      <trkpt lat="40.5798370" lon="-1.8932340">
        <ele>1325.6</ele>
        <time>2019-07-05T16:16:56Z</time>
      </trkpt>
      <trkpt lat="40.5799240" lon="-1.8934270">
        <ele>1324.4</ele>
        <time>2019-07-05T16:16:59Z</time>
      </trkpt>
      <trkpt lat="40.5799550" lon="-1.8934880">
        <ele>1324.0</ele>
        <time>2019-07-05T16:17:00Z</time>
      </trkpt>
      <trkpt lat="40.5800180" lon="-1.8936010">
        <ele>1323.4</ele>
        <time>2019-07-05T16:17:02Z</time>
      </trkpt>
      <trkpt lat="40.5802050" lon="-1.8938770">
        <ele>1322.6</ele>
        <time>2019-07-05T16:17:07Z</time>
      </trkpt>
      <trkpt lat="40.5802520" lon="-1.8939290">
        <ele>1322.2</ele>
        <time>2019-07-05T16:17:08Z</time>
      </trkpt>
      <trkpt lat="40.5804970" lon="-1.8942220">
        <ele>1320.8</ele>
        <time>2019-07-05T16:17:13Z</time>
      </trkpt>
      <trkpt lat="40.5805920" lon="-1.8943650">
        <ele>1319.4</ele>
        <time>2019-07-05T16:17:15Z</time>
      </trkpt>
      <trkpt lat="40.5808100" lon="-1.8946290">
        <ele>1318.4</ele>
        <time>2019-07-05T16:17:19Z</time>
      </trkpt>
      <trkpt lat="40.5808650" lon="-1.8946920">
        <ele>1318.4</ele>
        <time>2019-07-05T16:17:20Z</time>
      </trkpt>
      <trkpt lat="40.5810110" lon="-1.8948770">
        <ele>1317.8</ele>
        <time>2019-07-05T16:17:23Z</time>
      </trkpt>
      <trkpt lat="40.5810480" lon="-1.8949410">
        <ele>1317.8</ele>
        <time>2019-07-05T16:17:24Z</time>
      </trkpt>
      <trkpt lat="40.5811190" lon="-1.8951470">
        <ele>1317.4</ele>
        <time>2019-07-05T16:17:27Z</time>
      </trkpt>
      <trkpt lat="40.5811400" lon="-1.8952170">
        <ele>1317.0</ele>
        <time>2019-07-05T16:17:28Z</time>
      </trkpt>
      <trkpt lat="40.5811650" lon="-1.8952870">
        <ele>1316.8</ele>
        <time>2019-07-05T16:17:29Z</time>
      </trkpt>
      <trkpt lat="40.5812510" lon="-1.8954050">
        <ele>1315.8</ele>
        <time>2019-07-05T16:17:31Z</time>
      </trkpt>
      <trkpt lat="40.5814480" lon="-1.8955450">
        <ele>1314.6</ele>
        <time>2019-07-05T16:17:35Z</time>
      </trkpt>
      <trkpt lat="40.5814930" lon="-1.8955760">
        <ele>1314.4</ele>
        <time>2019-07-05T16:17:36Z</time>
      </trkpt>
      <trkpt lat="40.5817200" lon="-1.8957750">
        <ele>1314.4</ele>
        <time>2019-07-05T16:17:42Z</time>
      </trkpt>
      <trkpt lat="40.5818180" lon="-1.8958610">
        <ele>1314.6</ele>
        <time>2019-07-05T16:17:45Z</time>
      </trkpt>
      <trkpt lat="40.5819110" lon="-1.8959420">
        <ele>1315.2</ele>
        <time>2019-07-05T16:17:48Z</time>
      </trkpt>
      <trkpt lat="40.5821070" lon="-1.8960610">
        <ele>1315.2</ele>
        <time>2019-07-05T16:17:53Z</time>
      </trkpt>
      <trkpt lat="40.5823130" lon="-1.8962050">
        <ele>1314.0</ele>
        <time>2019-07-05T16:17:57Z</time>
      </trkpt>
      <trkpt lat="40.5823680" lon="-1.8962580">
        <ele>1313.8</ele>
        <time>2019-07-05T16:17:58Z</time>
      </trkpt>
      <trkpt lat="40.5824260" lon="-1.8963180">
        <ele>1313.4</ele>
        <time>2019-07-05T16:17:59Z</time>
      </trkpt>
      <trkpt lat="40.5825380" lon="-1.8964550">
        <ele>1312.4</ele>
        <time>2019-07-05T16:18:01Z</time>
      </trkpt>
      <trkpt lat="40.5826460" lon="-1.8966090">
        <ele>1310.6</ele>
        <time>2019-07-05T16:18:03Z</time>
      </trkpt>
      <trkpt lat="40.5828030" lon="-1.8968290">
        <ele>1309.2</ele>
        <time>2019-07-05T16:18:06Z</time>
      </trkpt>
      <trkpt lat="40.5828940" lon="-1.8969460">
        <ele>1309.0</ele>
        <time>2019-07-05T16:18:08Z</time>
      </trkpt>
      <trkpt lat="40.5829350" lon="-1.8970060">
        <ele>1308.4</ele>
        <time>2019-07-05T16:18:09Z</time>
      </trkpt>
      <trkpt lat="40.5829690" lon="-1.8970710">
        <ele>1308.0</ele>
        <time>2019-07-05T16:18:10Z</time>
      </trkpt>
      <trkpt lat="40.5830170" lon="-1.8972190">
        <ele>1307.6</ele>
        <time>2019-07-05T16:18:12Z</time>
      </trkpt>
      <trkpt lat="40.5830300" lon="-1.8972990">
        <ele>1307.4</ele>
        <time>2019-07-05T16:18:13Z</time>
      </trkpt>
      <trkpt lat="40.5830420" lon="-1.8975540">
        <ele>1306.0</ele>
        <time>2019-07-05T16:18:16Z</time>
      </trkpt>
      <trkpt lat="40.5830440" lon="-1.8976400">
        <ele>1305.8</ele>
        <time>2019-07-05T16:18:17Z</time>
      </trkpt>
      <trkpt lat="40.5830510" lon="-1.8977250">
        <ele>1305.6</ele>
        <time>2019-07-05T16:18:18Z</time>
      </trkpt>
      <trkpt lat="40.5830860" lon="-1.8979730">
        <ele>1305.2</ele>
        <time>2019-07-05T16:18:21Z</time>
      </trkpt>
      <trkpt lat="40.5830560" lon="-1.8982180">
        <ele>1304.8</ele>
        <time>2019-07-05T16:18:24Z</time>
      </trkpt>
      <trkpt lat="40.5830370" lon="-1.8983000">
        <ele>1304.6</ele>
        <time>2019-07-05T16:18:25Z</time>
      </trkpt>
      <trkpt lat="40.5829730" lon="-1.8985370">
        <ele>1303.4</ele>
        <time>2019-07-05T16:18:28Z</time>
      </trkpt>
      <trkpt lat="40.5829280" lon="-1.8986790">
        <ele>1302.8</ele>
        <time>2019-07-05T16:18:30Z</time>
      </trkpt>
      <trkpt lat="40.5828990" lon="-1.8987470">
        <ele>1303.2</ele>
        <time>2019-07-05T16:18:31Z</time>
      </trkpt>
      <trkpt lat="40.5828150" lon="-1.8989470">
        <ele>1303.0</ele>
        <time>2019-07-05T16:18:34Z</time>
      </trkpt>
      <trkpt lat="40.5827950" lon="-1.8990970">
        <ele>1302.2</ele>
        <time>2019-07-05T16:18:36Z</time>
      </trkpt>
      <trkpt lat="40.5827510" lon="-1.8993830">
        <ele>1301.6</ele>
        <time>2019-07-05T16:18:40Z</time>
      </trkpt>
      <trkpt lat="40.5827410" lon="-1.8994520">
        <ele>1301.6</ele>
        <time>2019-07-05T16:18:41Z</time>
      </trkpt>
      <trkpt lat="40.5827270" lon="-1.8996640">
        <ele>1301.4</ele>
        <time>2019-07-05T16:18:44Z</time>
      </trkpt>
      <trkpt lat="40.5827230" lon="-1.8997330">
        <ele>1301.2</ele>
        <time>2019-07-05T16:18:45Z</time>
      </trkpt>
      <trkpt lat="40.5827050" lon="-1.8998660">
        <ele>1301.0</ele>
        <time>2019-07-05T16:18:47Z</time>
      </trkpt>
      <trkpt lat="40.5826810" lon="-1.9001460">
        <ele>1301.0</ele>
        <time>2019-07-05T16:18:52Z</time>
      </trkpt>
      <trkpt lat="40.5825890" lon="-1.9004500">
        <ele>1301.6</ele>
        <time>2019-07-05T16:18:59Z</time>
      </trkpt>
      <trkpt lat="40.5825030" lon="-1.9006240">
        <ele>1302.0</ele>
        <time>2019-07-05T16:19:03Z</time>
      </trkpt>
      <trkpt lat="40.5824400" lon="-1.9007380">
        <ele>1302.0</ele>
        <time>2019-07-05T16:19:06Z</time>
      </trkpt>
      <trkpt lat="40.5822950" lon="-1.9009640">
        <ele>1301.8</ele>
        <time>2019-07-05T16:19:12Z</time>
      </trkpt>
      <trkpt lat="40.5821370" lon="-1.9012450">
        <ele>1302.2</ele>
        <time>2019-07-05T16:19:19Z</time>
      </trkpt>
      <trkpt lat="40.5819790" lon="-1.9015090">
        <ele>1302.2</ele>
        <time>2019-07-05T16:19:26Z</time>
      </trkpt>
      <trkpt lat="40.5819590" lon="-1.9015420">
        <ele>1302.4</ele>
        <time>2019-07-05T16:19:27Z</time>
      </trkpt>
      <trkpt lat="40.5818710" lon="-1.9016720">
        <ele>1303.4</ele>
        <time>2019-07-05T16:19:32Z</time>
      </trkpt>
      <trkpt lat="40.5817990" lon="-1.9017590">
        <ele>1304.6</ele>
        <time>2019-07-05T16:19:36Z</time>
      </trkpt>
      <trkpt lat="40.5817620" lon="-1.9018060">
        <ele>1305.0</ele>
        <time>2019-07-05T16:19:38Z</time>
      </trkpt>
      <trkpt lat="40.5817240" lon="-1.9018560">
        <ele>1305.8</ele>
        <time>2019-07-05T16:19:40Z</time>
      </trkpt>
      <trkpt lat="40.5816070" lon="-1.9020080">
        <ele>1306.6</ele>
        <time>2019-07-05T16:19:46Z</time>
      </trkpt>
      <trkpt lat="40.5815930" lon="-1.9020360">
        <ele>1307.0</ele>
        <time>2019-07-05T16:19:47Z</time>
      </trkpt>
      <trkpt lat="40.5815270" lon="-1.9022070">
        <ele>1307.4</ele>
        <time>2019-07-05T16:19:53Z</time>
      </trkpt>
      <trkpt lat="40.5814820" lon="-1.9023810">
        <ele>1308.2</ele>
        <time>2019-07-05T16:19:58Z</time>
      </trkpt>
      <trkpt lat="40.5814660" lon="-1.9024530">
        <ele>1308.4</ele>
        <time>2019-07-05T16:20:00Z</time>
      </trkpt>
      <trkpt lat="40.5814520" lon="-1.9027360">
        <ele>1309.0</ele>
        <time>2019-07-05T16:20:08Z</time>
      </trkpt>
      <trkpt lat="40.5814420" lon="-1.9028390">
        <ele>1309.4</ele>
        <time>2019-07-05T16:20:11Z</time>
      </trkpt>
      <trkpt lat="40.5814220" lon="-1.9029780">
        <ele>1310.4</ele>
        <time>2019-07-05T16:20:15Z</time>
      </trkpt>
      <trkpt lat="40.5814140" lon="-1.9030160">
        <ele>1310.4</ele>
        <time>2019-07-05T16:20:16Z</time>
      </trkpt>
      <trkpt lat="40.5813300" lon="-1.9032690">
        <ele>1311.0</ele>
        <time>2019-07-05T16:20:23Z</time>
      </trkpt>
      <trkpt lat="40.5812670" lon="-1.9033990">
        <ele>1311.4</ele>
        <time>2019-07-05T16:20:27Z</time>
      </trkpt>
      <trkpt lat="40.5812030" lon="-1.9035240">
        <ele>1312.0</ele>
        <time>2019-07-05T16:20:31Z</time>
      </trkpt>
      <trkpt lat="40.5811360" lon="-1.9037570">
        <ele>1312.8</ele>
        <time>2019-07-05T16:20:38Z</time>
      </trkpt>
      <trkpt lat="40.5811360" lon="-1.9037910">
        <ele>1313.4</ele>
        <time>2019-07-05T16:20:39Z</time>
      </trkpt>
      <trkpt lat="40.5811490" lon="-1.9038560">
        <ele>1314.0</ele>
        <time>2019-07-05T16:20:41Z</time>
      </trkpt>
      <trkpt lat="40.5811990" lon="-1.9039490">
        <ele>1314.2</ele>
        <time>2019-07-05T16:20:44Z</time>
      </trkpt>
      <trkpt lat="40.5812800" lon="-1.9040530">
        <ele>1313.8</ele>
        <time>2019-07-05T16:20:47Z</time>
      </trkpt>
      <trkpt lat="40.5813540" lon="-1.9041260">
        <ele>1313.4</ele>
        <time>2019-07-05T16:20:49Z</time>
      </trkpt>
      <trkpt lat="40.5814830" lon="-1.9042400">
        <ele>1313.0</ele>
        <time>2019-07-05T16:20:52Z</time>
      </trkpt>
      <trkpt lat="40.5815880" lon="-1.9043070">
        <ele>1312.2</ele>
        <time>2019-07-05T16:20:54Z</time>
      </trkpt>
      <trkpt lat="40.5816460" lon="-1.9043350">
        <ele>1311.8</ele>
        <time>2019-07-05T16:20:55Z</time>
      </trkpt>
      <trkpt lat="40.5819100" lon="-1.9044110">
        <ele>1310.6</ele>
        <time>2019-07-05T16:20:59Z</time>
      </trkpt>
      <trkpt lat="40.5822150" lon="-1.9044890">
        <ele>1309.4</ele>
        <time>2019-07-05T16:21:03Z</time>
      </trkpt>
      <trkpt lat="40.5823620" lon="-1.9045250">
        <ele>1308.6</ele>
        <time>2019-07-05T16:21:05Z</time>
      </trkpt>
      <trkpt lat="40.5824320" lon="-1.9045410">
        <ele>1308.2</ele>
        <time>2019-07-05T16:21:06Z</time>
      </trkpt>
      <trkpt lat="40.5827010" lon="-1.9045870">
        <ele>1307.0</ele>
        <time>2019-07-05T16:21:10Z</time>
      </trkpt>
      <trkpt lat="40.5828350" lon="-1.9045960">
        <ele>1306.4</ele>
        <time>2019-07-05T16:21:12Z</time>
      </trkpt>
      <trkpt lat="40.5829020" lon="-1.9045940">
        <ele>1305.8</ele>
        <time>2019-07-05T16:21:13Z</time>
      </trkpt>
      <trkpt lat="40.5831040" lon="-1.9045820">
        <ele>1304.8</ele>
        <time>2019-07-05T16:21:16Z</time>
      </trkpt>
      <trkpt lat="40.5831740" lon="-1.9045820">
        <ele>1304.4</ele>
        <time>2019-07-05T16:21:17Z</time>
      </trkpt>
      <trkpt lat="40.5833060" lon="-1.9045850">
        <ele>1303.6</ele>
        <time>2019-07-05T16:21:19Z</time>
      </trkpt>
      <trkpt lat="40.5834200" lon="-1.9045780">
        <ele>1302.4</ele>
        <time>2019-07-05T16:21:21Z</time>
      </trkpt>
      <trkpt lat="40.5834760" lon="-1.9045720">
        <ele>1302.0</ele>
        <time>2019-07-05T16:21:22Z</time>
      </trkpt>
      <trkpt lat="40.5835960" lon="-1.9045450">
        <ele>1301.2</ele>
        <time>2019-07-05T16:21:24Z</time>
      </trkpt>
      <trkpt lat="40.5837670" lon="-1.9044660">
        <ele>1300.2</ele>
        <time>2019-07-05T16:21:27Z</time>
      </trkpt>
      <trkpt lat="40.5839370" lon="-1.9043000">
        <ele>1299.4</ele>
        <time>2019-07-05T16:21:31Z</time>
      </trkpt>
      <trkpt lat="40.5839760" lon="-1.9042440">
        <ele>1299.2</ele>
        <time>2019-07-05T16:21:32Z</time>
      </trkpt>
      <trkpt lat="40.5840700" lon="-1.9040750">
        <ele>1298.2</ele>
        <time>2019-07-05T16:21:35Z</time>
      </trkpt>
      <trkpt lat="40.5841210" lon="-1.9039570">
        <ele>1297.2</ele>
        <time>2019-07-05T16:21:37Z</time>
      </trkpt>
      <trkpt lat="40.5841760" lon="-1.9038360">
        <ele>1296.8</ele>
        <time>2019-07-05T16:21:39Z</time>
      </trkpt>
      <trkpt lat="40.5843120" lon="-1.9037060">
        <ele>1296.2</ele>
        <time>2019-07-05T16:21:42Z</time>
      </trkpt>
      <trkpt lat="40.5843710" lon="-1.9036910">
        <ele>1296.2</ele>
        <time>2019-07-05T16:21:43Z</time>
      </trkpt>
      <trkpt lat="40.5845420" lon="-1.9036970">
        <ele>1294.8</ele>
        <time>2019-07-05T16:21:46Z</time>
      </trkpt>
      <trkpt lat="40.5846430" lon="-1.9037420">
        <ele>1293.4</ele>
        <time>2019-07-05T16:21:48Z</time>
      </trkpt>
      <trkpt lat="40.5847360" lon="-1.9038130">
        <ele>1292.4</ele>
        <time>2019-07-05T16:21:50Z</time>
      </trkpt>
      <trkpt lat="40.5847800" lon="-1.9038530">
        <ele>1292.2</ele>
        <time>2019-07-05T16:21:51Z</time>
      </trkpt>
      <trkpt lat="40.5849030" lon="-1.9039830">
        <ele>1291.0</ele>
        <time>2019-07-05T16:21:54Z</time>
      </trkpt>
      <trkpt lat="40.5849470" lon="-1.9040210">
        <ele>1290.6</ele>
        <time>2019-07-05T16:21:55Z</time>
      </trkpt>
      <trkpt lat="40.5849950" lon="-1.9040580">
        <ele>1290.0</ele>
        <time>2019-07-05T16:21:56Z</time>
      </trkpt>
      <trkpt lat="40.5850990" lon="-1.9041300">
        <ele>1289.0</ele>
        <time>2019-07-05T16:21:58Z</time>
      </trkpt>
      <trkpt lat="40.5852540" lon="-1.9042030">
        <ele>1287.6</ele>
        <time>2019-07-05T16:22:01Z</time>
      </trkpt>
      <trkpt lat="40.5853070" lon="-1.9042220">
        <ele>1287.0</ele>
        <time>2019-07-05T16:22:02Z</time>
      </trkpt>
      <trkpt lat="40.5853580" lon="-1.9042390">
        <ele>1286.4</ele>
        <time>2019-07-05T16:22:03Z</time>
      </trkpt>
      <trkpt lat="40.5854090" lon="-1.9042490">
        <ele>1286.0</ele>
        <time>2019-07-05T16:22:04Z</time>
      </trkpt>
      <trkpt lat="40.5855090" lon="-1.9042250">
        <ele>1285.0</ele>
        <time>2019-07-05T16:22:06Z</time>
      </trkpt>
      <trkpt lat="40.5855940" lon="-1.9041430">
        <ele>1283.6</ele>
        <time>2019-07-05T16:22:08Z</time>
      </trkpt>
      <trkpt lat="40.5856290" lon="-1.9040830">
        <ele>1283.0</ele>
        <time>2019-07-05T16:22:09Z</time>
      </trkpt>
      <trkpt lat="40.5856580" lon="-1.9040160">
        <ele>1282.4</ele>
        <time>2019-07-05T16:22:10Z</time>
      </trkpt>
      <trkpt lat="40.5857150" lon="-1.9037870">
        <ele>1281.0</ele>
        <time>2019-07-05T16:22:13Z</time>
      </trkpt>
      <trkpt lat="40.5857250" lon="-1.9035720">
        <ele>1279.6</ele>
        <time>2019-07-05T16:22:16Z</time>
      </trkpt>
      <trkpt lat="40.5857100" lon="-1.9034440">
        <ele>1278.0</ele>
        <time>2019-07-05T16:22:18Z</time>
      </trkpt>
      <trkpt lat="40.5856890" lon="-1.9033340">
        <ele>1277.0</ele>
        <time>2019-07-05T16:22:20Z</time>
      </trkpt>
      <trkpt lat="40.5857010" lon="-1.9032240">
        <ele>1276.4</ele>
        <time>2019-07-05T16:22:22Z</time>
      </trkpt>
      <trkpt lat="40.5858020" lon="-1.9031480">
        <ele>1276.0</ele>
        <time>2019-07-05T16:22:25Z</time>
      </trkpt>
      <trkpt lat="40.5858360" lon="-1.9031680">
        <ele>1275.8</ele>
        <time>2019-07-05T16:22:26Z</time>
      </trkpt>
      <trkpt lat="40.5858870" lon="-1.9032270">
        <ele>1275.8</ele>
        <time>2019-07-05T16:22:28Z</time>
      </trkpt>
      <trkpt lat="40.5859070" lon="-1.9032560">
        <ele>1275.8</ele>
        <time>2019-07-05T16:22:29Z</time>
      </trkpt>
      <trkpt lat="40.5859410" lon="-1.9033150">
        <ele>1276.0</ele>
        <time>2019-07-05T16:22:31Z</time>
      </trkpt>
      <trkpt lat="40.5860400" lon="-1.9034550">
        <ele>1277.2</ele>
        <time>2019-07-05T16:22:36Z</time>
      </trkpt>
      <trkpt lat="40.5860600" lon="-1.9034830">
        <ele>1277.4</ele>
        <time>2019-07-05T16:22:37Z</time>
      </trkpt>
      <trkpt lat="40.5861470" lon="-1.9036360">
        <ele>1277.6</ele>
        <time>2019-07-05T16:22:42Z</time>
      </trkpt>
      <trkpt lat="40.5861600" lon="-1.9036680">
        <ele>1277.6</ele>
        <time>2019-07-05T16:22:43Z</time>
      </trkpt>
      <trkpt lat="40.5861810" lon="-1.9037820">
        <ele>1278.6</ele>
        <time>2019-07-05T16:22:46Z</time>
      </trkpt>
      <trkpt lat="40.5861930" lon="-1.9038580">
        <ele>1279.2</ele>
        <time>2019-07-05T16:22:48Z</time>
      </trkpt>
      <trkpt lat="40.5862010" lon="-1.9039700">
        <ele>1279.6</ele>
        <time>2019-07-05T16:22:51Z</time>
      </trkpt>
      <trkpt lat="40.5862230" lon="-1.9041310">
        <ele>1280.0</ele>
        <time>2019-07-05T16:22:55Z</time>
      </trkpt>
      <trkpt lat="40.5863440" lon="-1.9042360">
        <ele>1280.2</ele>
        <time>2019-07-05T16:22:59Z</time>
      </trkpt>
      <trkpt lat="40.5863860" lon="-1.9042530">
        <ele>1280.4</ele>
        <time>2019-07-05T16:23:00Z</time>
      </trkpt>
      <trkpt lat="40.5864750" lon="-1.9043020">
        <ele>1280.0</ele>
        <time>2019-07-05T16:23:02Z</time>
      </trkpt>
      <trkpt lat="40.5865610" lon="-1.9043800">
        <ele>1279.6</ele>
        <time>2019-07-05T16:23:04Z</time>
      </trkpt>
      <trkpt lat="40.5865990" lon="-1.9044260">
        <ele>1279.4</ele>
        <time>2019-07-05T16:23:05Z</time>
      </trkpt>
      <trkpt lat="40.5866990" lon="-1.9046070">
        <ele>1279.0</ele>
        <time>2019-07-05T16:23:08Z</time>
      </trkpt>
      <trkpt lat="40.5867670" lon="-1.9047320">
        <ele>1278.8</ele>
        <time>2019-07-05T16:23:10Z</time>
      </trkpt>
      <trkpt lat="40.5868280" lon="-1.9048430">
        <ele>1278.4</ele>
        <time>2019-07-05T16:23:12Z</time>
      </trkpt>
      <trkpt lat="40.5868620" lon="-1.9048920">
        <ele>1278.0</ele>
        <time>2019-07-05T16:23:13Z</time>
      </trkpt>
      <trkpt lat="40.5868980" lon="-1.9049400">
        <ele>1277.4</ele>
        <time>2019-07-05T16:23:14Z</time>
      </trkpt>
      <trkpt lat="40.5870150" lon="-1.9050720">
        <ele>1276.4</ele>
        <time>2019-07-05T16:23:17Z</time>
      </trkpt>
      <trkpt lat="40.5871420" lon="-1.9051800">
        <ele>1275.4</ele>
        <time>2019-07-05T16:23:20Z</time>
      </trkpt>
      <trkpt lat="40.5871840" lon="-1.9052080">
        <ele>1274.2</ele>
        <time>2019-07-05T16:23:21Z</time>
      </trkpt>
      <trkpt lat="40.5873340" lon="-1.9052780">
        <ele>1273.0</ele>
        <time>2019-07-05T16:23:25Z</time>
      </trkpt>
      <trkpt lat="40.5875120" lon="-1.9053510">
        <ele>1272.0</ele>
        <time>2019-07-05T16:23:30Z</time>
      </trkpt>
      <trkpt lat="40.5875470" lon="-1.9053650">
        <ele>1271.6</ele>
        <time>2019-07-05T16:23:31Z</time>
      </trkpt>
      <trkpt lat="40.5876140" lon="-1.9054050">
        <ele>1271.0</ele>
        <time>2019-07-05T16:23:33Z</time>
      </trkpt>
      <trkpt lat="40.5876450" lon="-1.9054380">
        <ele>1270.4</ele>
        <time>2019-07-05T16:23:34Z</time>
      </trkpt>
      <trkpt lat="40.5876670" lon="-1.9054840">
        <ele>1270.0</ele>
        <time>2019-07-05T16:23:35Z</time>
      </trkpt>
      <trkpt lat="40.5876680" lon="-1.9056710">
        <ele>1268.8</ele>
        <time>2019-07-05T16:23:38Z</time>
      </trkpt>
      <trkpt lat="40.5876160" lon="-1.9058600">
        <ele>1268.2</ele>
        <time>2019-07-05T16:23:41Z</time>
      </trkpt>
      <trkpt lat="40.5875950" lon="-1.9059110">
        <ele>1268.2</ele>
        <time>2019-07-05T16:23:42Z</time>
      </trkpt>
      <trkpt lat="40.5875770" lon="-1.9059610">
        <ele>1267.8</ele>
        <time>2019-07-05T16:23:43Z</time>
      </trkpt>
      <trkpt lat="40.5875660" lon="-1.9060690">
        <ele>1266.4</ele>
        <time>2019-07-05T16:23:45Z</time>
      </trkpt>
      <trkpt lat="40.5875810" lon="-1.9061250">
        <ele>1266.0</ele>
        <time>2019-07-05T16:23:46Z</time>
      </trkpt>
      <trkpt lat="40.5876110" lon="-1.9061740">
        <ele>1265.2</ele>
        <time>2019-07-05T16:23:47Z</time>
      </trkpt>
      <trkpt lat="40.5877050" lon="-1.9062220">
        <ele>1264.2</ele>
        <time>2019-07-05T16:23:49Z</time>
      </trkpt>
      <trkpt lat="40.5877620" lon="-1.9062210">
        <ele>1263.8</ele>
        <time>2019-07-05T16:23:50Z</time>
      </trkpt>
      <trkpt lat="40.5879220" lon="-1.9061700">
        <ele>1262.4</ele>
        <time>2019-07-05T16:23:53Z</time>
      </trkpt>
      <trkpt lat="40.5879660" lon="-1.9061470">
        <ele>1262.0</ele>
        <time>2019-07-05T16:23:54Z</time>
      </trkpt>
      <trkpt lat="40.5880070" lon="-1.9061230">
        <ele>1261.2</ele>
        <time>2019-07-05T16:23:55Z</time>
      </trkpt>
      <trkpt lat="40.5880910" lon="-1.9060880">
        <ele>1260.6</ele>
        <time>2019-07-05T16:23:57Z</time>
      </trkpt>
      <trkpt lat="40.5881330" lon="-1.9060830">
        <ele>1259.8</ele>
        <time>2019-07-05T16:23:58Z</time>
      </trkpt>
      <trkpt lat="40.5881730" lon="-1.9060870">
        <ele>1259.4</ele>
        <time>2019-07-05T16:23:59Z</time>
      </trkpt>
      <trkpt lat="40.5882450" lon="-1.9061310">
        <ele>1258.6</ele>
        <time>2019-07-05T16:24:01Z</time>
      </trkpt>
      <trkpt lat="40.5882760" lon="-1.9061700">
        <ele>1257.8</ele>
        <time>2019-07-05T16:24:02Z</time>
      </trkpt>
      <trkpt lat="40.5883000" lon="-1.9062220">
        <ele>1257.0</ele>
        <time>2019-07-05T16:24:03Z</time>
      </trkpt>
      <trkpt lat="40.5883090" lon="-1.9063680">
        <ele>1255.2</ele>
        <time>2019-07-05T16:24:05Z</time>
      </trkpt>
      <trkpt lat="40.5882740" lon="-1.9065370">
        <ele>1254.0</ele>
        <time>2019-07-05T16:24:07Z</time>
      </trkpt>
      <trkpt lat="40.5882160" lon="-1.9066900">
        <ele>1253.6</ele>
        <time>2019-07-05T16:24:09Z</time>
      </trkpt>
      <trkpt lat="40.5881880" lon="-1.9067520">
        <ele>1253.2</ele>
        <time>2019-07-05T16:24:10Z</time>
      </trkpt>
      <trkpt lat="40.5881650" lon="-1.9068080">
        <ele>1252.6</ele>
        <time>2019-07-05T16:24:11Z</time>
      </trkpt>
      <trkpt lat="40.5881590" lon="-1.9068980">
        <ele>1252.0</ele>
        <time>2019-07-05T16:24:13Z</time>
      </trkpt>
      <trkpt lat="40.5882010" lon="-1.9069610">
        <ele>1251.0</ele>
        <time>2019-07-05T16:24:15Z</time>
      </trkpt>
      <trkpt lat="40.5882400" lon="-1.9069790">
        <ele>1250.4</ele>
        <time>2019-07-05T16:24:16Z</time>
      </trkpt>
      <trkpt lat="40.5883420" lon="-1.9069830">
        <ele>1249.8</ele>
        <time>2019-07-05T16:24:18Z</time>
      </trkpt>
      <trkpt lat="40.5884030" lon="-1.9069760">
        <ele>1249.2</ele>
        <time>2019-07-05T16:24:19Z</time>
      </trkpt>
      <trkpt lat="40.5884680" lon="-1.9069690">
        <ele>1248.4</ele>
        <time>2019-07-05T16:24:20Z</time>
      </trkpt>
      <trkpt lat="40.5886750" lon="-1.9069370">
        <ele>1247.0</ele>
        <time>2019-07-05T16:24:23Z</time>
      </trkpt>
      <trkpt lat="40.5888010" lon="-1.9069210">
        <ele>1246.0</ele>
        <time>2019-07-05T16:24:25Z</time>
      </trkpt>
      <trkpt lat="40.5888540" lon="-1.9069210">
        <ele>1245.4</ele>
        <time>2019-07-05T16:24:26Z</time>
      </trkpt>
      <trkpt lat="40.5889060" lon="-1.9069320">
        <ele>1244.6</ele>
        <time>2019-07-05T16:24:27Z</time>
      </trkpt>
      <trkpt lat="40.5890160" lon="-1.9069960">
        <ele>1244.2</ele>
        <time>2019-07-05T16:24:29Z</time>
      </trkpt>
      <trkpt lat="40.5891240" lon="-1.9071020">
        <ele>1243.2</ele>
        <time>2019-07-05T16:24:31Z</time>
      </trkpt>
      <trkpt lat="40.5892700" lon="-1.9072650">
        <ele>1241.8</ele>
        <time>2019-07-05T16:24:34Z</time>
      </trkpt>
      <trkpt lat="40.5893620" lon="-1.9073650">
        <ele>1240.2</ele>
        <time>2019-07-05T16:24:36Z</time>
      </trkpt>
      <trkpt lat="40.5894570" lon="-1.9074540">
        <ele>1238.6</ele>
        <time>2019-07-05T16:24:38Z</time>
      </trkpt>
      <trkpt lat="40.5895810" lon="-1.9075620">
        <ele>1237.2</ele>
        <time>2019-07-05T16:24:41Z</time>
      </trkpt>
      <trkpt lat="40.5896630" lon="-1.9076210">
        <ele>1235.4</ele>
        <time>2019-07-05T16:24:43Z</time>
      </trkpt>
      <trkpt lat="40.5897440" lon="-1.9076760">
        <ele>1234.2</ele>
        <time>2019-07-05T16:24:45Z</time>
      </trkpt>
      <trkpt lat="40.5898190" lon="-1.9077190">
        <ele>1233.0</ele>
        <time>2019-07-05T16:24:47Z</time>
      </trkpt>
      <trkpt lat="40.5898580" lon="-1.9077280">
        <ele>1232.6</ele>
        <time>2019-07-05T16:24:48Z</time>
      </trkpt>
      <trkpt lat="40.5899520" lon="-1.9077390">
        <ele>1231.4</ele>
        <time>2019-07-05T16:24:50Z</time>
      </trkpt>
      <trkpt lat="40.5900550" lon="-1.9077400">
        <ele>1230.2</ele>
        <time>2019-07-05T16:24:52Z</time>
      </trkpt>
      <trkpt lat="40.5901540" lon="-1.9077350">
        <ele>1229.2</ele>
        <time>2019-07-05T16:24:54Z</time>
      </trkpt>
      <trkpt lat="40.5902490" lon="-1.9077480">
        <ele>1228.4</ele>
        <time>2019-07-05T16:24:56Z</time>
      </trkpt>
      <trkpt lat="40.5903450" lon="-1.9078010">
        <ele>1227.8</ele>
        <time>2019-07-05T16:24:58Z</time>
      </trkpt>
      <trkpt lat="40.5904410" lon="-1.9078900">
        <ele>1226.2</ele>
        <time>2019-07-05T16:25:00Z</time>
      </trkpt>
      <trkpt lat="40.5904860" lon="-1.9079400">
        <ele>1225.6</ele>
        <time>2019-07-05T16:25:01Z</time>
      </trkpt>
      <trkpt lat="40.5905310" lon="-1.9079900">
        <ele>1225.0</ele>
        <time>2019-07-05T16:25:02Z</time>
      </trkpt>
      <trkpt lat="40.5905760" lon="-1.9080370">
        <ele>1224.4</ele>
        <time>2019-07-05T16:25:03Z</time>
      </trkpt>
      <trkpt lat="40.5906210" lon="-1.9080790">
        <ele>1224.0</ele>
        <time>2019-07-05T16:25:04Z</time>
      </trkpt>
      <trkpt lat="40.5907440" lon="-1.9081770">
        <ele>1222.2</ele>
        <time>2019-07-05T16:25:07Z</time>
      </trkpt>
      <trkpt lat="40.5907820" lon="-1.9082030">
        <ele>1221.8</ele>
        <time>2019-07-05T16:25:08Z</time>
      </trkpt>
      <trkpt lat="40.5908230" lon="-1.9082250">
        <ele>1221.2</ele>
        <time>2019-07-05T16:25:09Z</time>
      </trkpt>
      <trkpt lat="40.5909110" lon="-1.9082440">
        <ele>1219.8</ele>
        <time>2019-07-05T16:25:11Z</time>
      </trkpt>
      <trkpt lat="40.5910040" lon="-1.9082560">
        <ele>1218.6</ele>
        <time>2019-07-05T16:25:13Z</time>
      </trkpt>
      <trkpt lat="40.5911020" lon="-1.9082640">
        <ele>1217.2</ele>
        <time>2019-07-05T16:25:15Z</time>
      </trkpt>
      <trkpt lat="40.5911950" lon="-1.9082600">
        <ele>1216.0</ele>
        <time>2019-07-05T16:25:17Z</time>
      </trkpt>
      <trkpt lat="40.5912380" lon="-1.9082520">
        <ele>1215.4</ele>
        <time>2019-07-05T16:25:18Z</time>
      </trkpt>
      <trkpt lat="40.5912780" lon="-1.9082390">
        <ele>1214.6</ele>
        <time>2019-07-05T16:25:19Z</time>
      </trkpt>
      <trkpt lat="40.5913870" lon="-1.9081490">
        <ele>1213.6</ele>
        <time>2019-07-05T16:25:22Z</time>
      </trkpt>
      <trkpt lat="40.5914160" lon="-1.9081000">
        <ele>1213.0</ele>
        <time>2019-07-05T16:25:23Z</time>
      </trkpt>
      <trkpt lat="40.5914440" lon="-1.9080490">
        <ele>1212.6</ele>
        <time>2019-07-05T16:25:24Z</time>
      </trkpt>
      <trkpt lat="40.5914730" lon="-1.9079980">
        <ele>1212.2</ele>
        <time>2019-07-05T16:25:25Z</time>
      </trkpt>
      <trkpt lat="40.5915320" lon="-1.9078850">
        <ele>1211.2</ele>
        <time>2019-07-05T16:25:27Z</time>
      </trkpt>
      <trkpt lat="40.5916120" lon="-1.9077320">
        <ele>1209.8</ele>
        <time>2019-07-05T16:25:30Z</time>
      </trkpt>
      <trkpt lat="40.5916380" lon="-1.9076910">
        <ele>1209.4</ele>
        <time>2019-07-05T16:25:31Z</time>
      </trkpt>
      <trkpt lat="40.5916710" lon="-1.9076570">
        <ele>1208.8</ele>
        <time>2019-07-05T16:25:32Z</time>
      </trkpt>
      <trkpt lat="40.5917690" lon="-1.9076310">
        <ele>1207.8</ele>
        <time>2019-07-05T16:25:34Z</time>
      </trkpt>
      <trkpt lat="40.5918250" lon="-1.9076420">
        <ele>1207.0</ele>
        <time>2019-07-05T16:25:35Z</time>
      </trkpt>
      <trkpt lat="40.5919280" lon="-1.9076850">
        <ele>1206.2</ele>
        <time>2019-07-05T16:25:37Z</time>
      </trkpt>
      <trkpt lat="40.5919720" lon="-1.9077080">
        <ele>1205.6</ele>
        <time>2019-07-05T16:25:38Z</time>
      </trkpt>
      <trkpt lat="40.5920100" lon="-1.9077340">
        <ele>1204.8</ele>
        <time>2019-07-05T16:25:39Z</time>
      </trkpt>
      <trkpt lat="40.5920480" lon="-1.9077690">
        <ele>1204.2</ele>
        <time>2019-07-05T16:25:40Z</time>
      </trkpt>
      <trkpt lat="40.5921390" lon="-1.9078440">
        <ele>1202.8</ele>
        <time>2019-07-05T16:25:42Z</time>
      </trkpt>
      <trkpt lat="40.5922360" lon="-1.9079020">
        <ele>1202.2</ele>
        <time>2019-07-05T16:25:44Z</time>
      </trkpt>
      <trkpt lat="40.5922790" lon="-1.9079320">
        <ele>1201.8</ele>
        <time>2019-07-05T16:25:45Z</time>
      </trkpt>
      <trkpt lat="40.5923520" lon="-1.9079870">
        <ele>1200.6</ele>
        <time>2019-07-05T16:25:47Z</time>
      </trkpt>
      <trkpt lat="40.5923850" lon="-1.9080160">
        <ele>1200.4</ele>
        <time>2019-07-05T16:25:48Z</time>
      </trkpt>
      <trkpt lat="40.5924450" lon="-1.9081050">
        <ele>1199.4</ele>
        <time>2019-07-05T16:25:50Z</time>
      </trkpt>
      <trkpt lat="40.5924750" lon="-1.9081490">
        <ele>1198.8</ele>
        <time>2019-07-05T16:25:51Z</time>
      </trkpt>
      <trkpt lat="40.5925030" lon="-1.9081920">
        <ele>1198.2</ele>
        <time>2019-07-05T16:25:52Z</time>
      </trkpt>
      <trkpt lat="40.5925530" lon="-1.9082670">
        <ele>1197.2</ele>
        <time>2019-07-05T16:25:54Z</time>
      </trkpt>
      <trkpt lat="40.5925930" lon="-1.9083330">
        <ele>1196.6</ele>
        <time>2019-07-05T16:25:56Z</time>
      </trkpt>
      <trkpt lat="40.5926000" lon="-1.9083680">
        <ele>1196.4</ele>
        <time>2019-07-05T16:25:57Z</time>
      </trkpt>
      <trkpt lat="40.5925970" lon="-1.9084060">
        <ele>1196.2</ele>
        <time>2019-07-05T16:25:58Z</time>
      </trkpt>
      <trkpt lat="40.5926010" lon="-1.9084830">
        <ele>1195.6</ele>
        <time>2019-07-05T16:26:00Z</time>
      </trkpt>
      <trkpt lat="40.5926510" lon="-1.9085540">
        <ele>1195.0</ele>
        <time>2019-07-05T16:26:02Z</time>
      </trkpt>
      <trkpt lat="40.5926880" lon="-1.9085860">
        <ele>1195.0</ele>
        <time>2019-07-05T16:26:03Z</time>
      </trkpt>
      <trkpt lat="40.5927300" lon="-1.9086160">
        <ele>1194.8</ele>
        <time>2019-07-05T16:26:04Z</time>
      </trkpt>
      <trkpt lat="40.5927750" lon="-1.9086520">
        <ele>1194.4</ele>
        <time>2019-07-05T16:26:05Z</time>
      </trkpt>
      <trkpt lat="40.5928610" lon="-1.9087450">
        <ele>1194.0</ele>
        <time>2019-07-05T16:26:07Z</time>
      </trkpt>
      <trkpt lat="40.5937740" lon="-1.9083540">
        <ele>1190.6</ele>
        <time>2019-07-06T04:44:07Z</time>
      </trkpt>
      <trkpt lat="40.5937790" lon="-1.9083920">
        <ele>1190.4</ele>
        <time>2019-07-06T04:44:08Z</time>
      </trkpt>
      <trkpt lat="40.5937900" lon="-1.9084820">
        <ele>1190.0</ele>
        <time>2019-07-06T04:44:10Z</time>
      </trkpt>
      <trkpt lat="40.5937780" lon="-1.9085650">
        <ele>1190.2</ele>
        <time>2019-07-06T04:44:12Z</time>
      </trkpt>
      <trkpt lat="40.5937150" lon="-1.9088740">
        <ele>1190.2</ele>
        <time>2019-07-06T04:44:18Z</time>
      </trkpt>
      <trkpt lat="40.5936710" lon="-1.9089800">
        <ele>1189.6</ele>
        <time>2019-07-06T04:44:21Z</time>
      </trkpt>
      <trkpt lat="40.5936690" lon="-1.9090580">
        <ele>1189.4</ele>
        <time>2019-07-06T04:44:22Z</time>
      </trkpt>
      <trkpt lat="40.5936920" lon="-1.9090910">
        <ele>1189.2</ele>
        <time>2019-07-06T04:44:23Z</time>
      </trkpt>
      <trkpt lat="40.5937590" lon="-1.9091350">
        <ele>1188.8</ele>
        <time>2019-07-06T04:44:25Z</time>
      </trkpt>
      <trkpt lat="40.5937950" lon="-1.9091650">
        <ele>1188.8</ele>
        <time>2019-07-06T04:44:26Z</time>
      </trkpt>
      <trkpt lat="40.5938490" lon="-1.9092640">
        <ele>1188.6</ele>
        <time>2019-07-06T04:44:28Z</time>
      </trkpt>
      <trkpt lat="40.5938710" lon="-1.9093560">
        <ele>1188.4</ele>
        <time>2019-07-06T04:44:30Z</time>
      </trkpt>
      <trkpt lat="40.5938450" lon="-1.9094580">
        <ele>1188.2</ele>
        <time>2019-07-06T04:44:32Z</time>
      </trkpt>
      <trkpt lat="40.5937890" lon="-1.9095700">
        <ele>1188.0</ele>
        <time>2019-07-06T04:44:34Z</time>
      </trkpt>
      <trkpt lat="40.5936910" lon="-1.9097420">
        <ele>1187.6</ele>
        <time>2019-07-06T04:44:37Z</time>
      </trkpt>
      <trkpt lat="40.5936600" lon="-1.9097980">
        <ele>1187.6</ele>
        <time>2019-07-06T04:44:38Z</time>
      </trkpt>
      <trkpt lat="40.5935750" lon="-1.9099580">
        <ele>1187.0</ele>
        <time>2019-07-06T04:44:41Z</time>
      </trkpt>
      <trkpt lat="40.5935550" lon="-1.9100120">
        <ele>1187.0</ele>
        <time>2019-07-06T04:44:42Z</time>
      </trkpt>
      <trkpt lat="40.5934640" lon="-1.9101970">
        <ele>1186.0</ele>
        <time>2019-07-06T04:44:46Z</time>
      </trkpt>
      <trkpt lat="40.5933910" lon="-1.9102470">
        <ele>1185.6</ele>
        <time>2019-07-06T04:44:48Z</time>
      </trkpt>
      <trkpt lat="40.5933260" lon="-1.9103070">
        <ele>1185.2</ele>
        <time>2019-07-06T04:44:51Z</time>
      </trkpt>
      <trkpt lat="40.5932700" lon="-1.9103950">
        <ele>1185.2</ele>
        <time>2019-07-06T04:44:52Z</time>
      </trkpt>
      <trkpt lat="40.5932510" lon="-1.9104490">
        <ele>1185.0</ele>
        <time>2019-07-06T04:44:53Z</time>
      </trkpt>
      <trkpt lat="40.5932360" lon="-1.9105110">
        <ele>1185.0</ele>
        <time>2019-07-06T04:44:54Z</time>
      </trkpt>
      <trkpt lat="40.5932220" lon="-1.9106450">
        <ele>1184.8</ele>
        <time>2019-07-06T04:44:56Z</time>
      </trkpt>
      <trkpt lat="40.5932320" lon="-1.9107020">
        <ele>1184.6</ele>
        <time>2019-07-06T04:44:57Z</time>
      </trkpt>
      <trkpt lat="40.5932410" lon="-1.9107600">
        <ele>1184.6</ele>
        <time>2019-07-06T04:44:58Z</time>
      </trkpt>
      <trkpt lat="40.5932990" lon="-1.9108650">
        <ele>1183.8</ele>
        <time>2019-07-06T04:45:01Z</time>
      </trkpt>
      <trkpt lat="40.5933190" lon="-1.9108910">
        <ele>1183.8</ele>
        <time>2019-07-06T04:45:02Z</time>
      </trkpt>
      <trkpt lat="40.5933190" lon="-1.9108910">
        <ele>1183.8</ele>
        <time>2019-07-06T04:45:03Z</time>
      </trkpt>
      <trkpt lat="40.5934010" lon="-1.9110340">
        <ele>1183.8</ele>
        <time>2019-07-06T04:45:06Z</time>
      </trkpt>
      <trkpt lat="40.5934440" lon="-1.9111050">
        <ele>1184.0</ele>
        <time>2019-07-06T04:45:09Z</time>
      </trkpt>
      <trkpt lat="40.5935110" lon="-1.9112240">
        <ele>1184.0</ele>
        <time>2019-07-06T04:45:12Z</time>
      </trkpt>
      <trkpt lat="40.5935220" lon="-1.9112440">
        <ele>1183.8</ele>
        <time>2019-07-06T04:45:13Z</time>
      </trkpt>
      <trkpt lat="40.5935650" lon="-1.9112840">
        <ele>1183.8</ele>
        <time>2019-07-06T04:45:16Z</time>
      </trkpt>
      <trkpt lat="40.5935920" lon="-1.9113090">
        <ele>1183.6</ele>
        <time>2019-07-06T04:45:18Z</time>
      </trkpt>
      <trkpt lat="40.5935980" lon="-1.9113750">
        <ele>1183.6</ele>
        <time>2019-07-06T04:45:20Z</time>
      </trkpt>
      <trkpt lat="40.5936060" lon="-1.9114610">
        <ele>1183.4</ele>
        <time>2019-07-06T04:45:22Z</time>
      </trkpt>
      <trkpt lat="40.5936390" lon="-1.9116640">
        <ele>1183.2</ele>
        <time>2019-07-06T04:45:26Z</time>
      </trkpt>
      <trkpt lat="40.5936880" lon="-1.9119390">
        <ele>1183.0</ele>
        <time>2019-07-06T04:45:31Z</time>
      </trkpt>
      <trkpt lat="40.5937220" lon="-1.9121000">
        <ele>1182.8</ele>
        <time>2019-07-06T04:45:34Z</time>
      </trkpt>
      <trkpt lat="40.5937580" lon="-1.9122030">
        <ele>1182.6</ele>
        <time>2019-07-06T04:45:37Z</time>
      </trkpt>
      <trkpt lat="40.5937590" lon="-1.9122100">
        <ele>1182.6</ele>
        <time>2019-07-06T04:45:39Z</time>
      </trkpt>
      <trkpt lat="40.5937400" lon="-1.9121200">
        <ele>1182.8</ele>
        <time>2019-07-06T04:45:47Z</time>
      </trkpt>
      <trkpt lat="40.5937310" lon="-1.9120950">
        <ele>1182.8</ele>
        <time>2019-07-06T04:45:48Z</time>
      </trkpt>
      <trkpt lat="40.5937110" lon="-1.9120310">
        <ele>1183.0</ele>
        <time>2019-07-06T04:45:50Z</time>
      </trkpt>
      <trkpt lat="40.5936840" lon="-1.9119090">
        <ele>1183.2</ele>
        <time>2019-07-06T04:45:53Z</time>
      </trkpt>
      <trkpt lat="40.5936740" lon="-1.9118620">
        <ele>1183.2</ele>
        <time>2019-07-06T04:45:54Z</time>
      </trkpt>
      <trkpt lat="40.5936490" lon="-1.9116570">
        <ele>1183.4</ele>
        <time>2019-07-06T04:45:58Z</time>
      </trkpt>
      <trkpt lat="40.5936240" lon="-1.9114980">
        <ele>1183.8</ele>
        <time>2019-07-06T04:46:01Z</time>
      </trkpt>
      <trkpt lat="40.5936150" lon="-1.9114460">
        <ele>1183.8</ele>
        <time>2019-07-06T04:46:02Z</time>
      </trkpt>
      <trkpt lat="40.5935460" lon="-1.9111910">
        <ele>1184.0</ele>
        <time>2019-07-06T04:46:07Z</time>
      </trkpt>
      <trkpt lat="40.5935250" lon="-1.9111440">
        <ele>1184.0</ele>
        <time>2019-07-06T04:46:09Z</time>
      </trkpt>
      <trkpt lat="40.5934730" lon="-1.9110540">
        <ele>1184.0</ele>
        <time>2019-07-06T04:46:10Z</time>
      </trkpt>
      <trkpt lat="40.5933770" lon="-1.9108780">
        <ele>1184.2</ele>
        <time>2019-07-06T04:46:14Z</time>
      </trkpt>
      <trkpt lat="40.5933710" lon="-1.9108320">
        <ele>1184.4</ele>
        <time>2019-07-06T04:46:15Z</time>
      </trkpt>
      <trkpt lat="40.5933640" lon="-1.9107860">
        <ele>1184.4</ele>
        <time>2019-07-06T04:46:16Z</time>
      </trkpt>
      <trkpt lat="40.5933740" lon="-1.9107370">
        <ele>1184.6</ele>
        <time>2019-07-06T04:46:17Z</time>
      </trkpt>
      <trkpt lat="40.5934340" lon="-1.9106100">
        <ele>1185.0</ele>
        <time>2019-07-06T04:46:20Z</time>
      </trkpt>
      <trkpt lat="40.5934740" lon="-1.9105250">
        <ele>1185.2</ele>
        <time>2019-07-06T04:46:22Z</time>
      </trkpt>
      <trkpt lat="40.5935610" lon="-1.9103670">
        <ele>1185.8</ele>
        <time>2019-07-06T04:46:27Z</time>
      </trkpt>
      <trkpt lat="40.5937450" lon="-1.9102030">
        <ele>1185.6</ele>
        <time>2019-07-06T04:46:32Z</time>
      </trkpt>
      <trkpt lat="40.5938550" lon="-1.9101650">
        <ele>1185.8</ele>
        <time>2019-07-06T04:46:36Z</time>
      </trkpt>
      <trkpt lat="40.5938680" lon="-1.9101800">
        <ele>1186.2</ele>
        <time>2019-07-06T04:46:37Z</time>
      </trkpt>
      <trkpt lat="40.5938620" lon="-1.9102520">
        <ele>1186.4</ele>
        <time>2019-07-06T04:46:40Z</time>
      </trkpt>
      <trkpt lat="40.5938510" lon="-1.9102740">
        <ele>1186.4</ele>
        <time>2019-07-06T04:46:41Z</time>
      </trkpt>
      <trkpt lat="40.5937960" lon="-1.9103290">
        <ele>1186.6</ele>
        <time>2019-07-06T04:46:44Z</time>
      </trkpt>
      <trkpt lat="40.5937650" lon="-1.9103200">
        <ele>1186.6</ele>
        <time>2019-07-06T04:46:45Z</time>
      </trkpt>
      <trkpt lat="40.5937340" lon="-1.9103120">
        <ele>1186.6</ele>
        <time>2019-07-06T04:46:46Z</time>
      </trkpt>
      <trkpt lat="40.5936570" lon="-1.9102840">
        <ele>1186.6</ele>
        <time>2019-07-06T04:46:48Z</time>
      </trkpt>
      <trkpt lat="40.5935730" lon="-1.9102760">
        <ele>1186.0</ele>
        <time>2019-07-06T04:46:51Z</time>
      </trkpt>
      <trkpt lat="40.5935150" lon="-1.9102210">
        <ele>1185.8</ele>
        <time>2019-07-06T04:46:52Z</time>
      </trkpt>
      <trkpt lat="40.5935320" lon="-1.9100880">
        <ele>1186.0</ele>
        <time>2019-07-06T04:46:55Z</time>
      </trkpt>
      <trkpt lat="40.5935520" lon="-1.9100400">
        <ele>1186.2</ele>
        <time>2019-07-06T04:46:56Z</time>
      </trkpt>
      <trkpt lat="40.5936600" lon="-1.9098830">
        <ele>1186.8</ele>
        <time>2019-07-06T04:47:00Z</time>
      </trkpt>
      <trkpt lat="40.5937080" lon="-1.9098110">
        <ele>1187.2</ele>
        <time>2019-07-06T04:47:02Z</time>
      </trkpt>
      <trkpt lat="40.5938310" lon="-1.9096060">
        <ele>1187.6</ele>
        <time>2019-07-06T04:47:07Z</time>
      </trkpt>
      <trkpt lat="40.5938970" lon="-1.9094570">
        <ele>1187.8</ele>
        <time>2019-07-06T04:47:10Z</time>
      </trkpt>
      <trkpt lat="40.5939380" lon="-1.9093680">
        <ele>1188.2</ele>
        <time>2019-07-06T04:47:12Z</time>
      </trkpt>
      <trkpt lat="40.5939870" lon="-1.9092850">
        <ele>1188.4</ele>
        <time>2019-07-06T04:47:15Z</time>
      </trkpt>
      <trkpt lat="40.5940580" lon="-1.9092500">
        <ele>1188.4</ele>
        <time>2019-07-06T04:47:16Z</time>
      </trkpt>
      <trkpt lat="40.5941360" lon="-1.9092290">
        <ele>1188.4</ele>
        <time>2019-07-06T04:47:18Z</time>
      </trkpt>
      <trkpt lat="40.5941920" lon="-1.9091570">
        <ele>1188.4</ele>
        <time>2019-07-06T04:47:21Z</time>
      </trkpt>
      <trkpt lat="40.5942130" lon="-1.9090480">
        <ele>1188.4</ele>
        <time>2019-07-06T04:47:22Z</time>
      </trkpt>
      <trkpt lat="40.5942410" lon="-1.9088810">
        <ele>1188.4</ele>
        <time>2019-07-06T04:47:25Z</time>
      </trkpt>
      <trkpt lat="40.5942550" lon="-1.9088260">
        <ele>1188.6</ele>
        <time>2019-07-06T04:47:26Z</time>
      </trkpt>
      <trkpt lat="40.5943410" lon="-1.9084760">
        <ele>1189.0</ele>
        <time>2019-07-06T04:47:32Z</time>
      </trkpt>
      <trkpt lat="40.5943720" lon="-1.9083130">
        <ele>1189.2</ele>
        <time>2019-07-06T04:47:35Z</time>
      </trkpt>
      <trkpt lat="40.5943870" lon="-1.9082600">
        <ele>1189.2</ele>
        <time>2019-07-06T04:47:36Z</time>
      </trkpt>
      <trkpt lat="40.5943970" lon="-1.9082050">
        <ele>1189.4</ele>
        <time>2019-07-06T04:47:37Z</time>
      </trkpt>
      <trkpt lat="40.5944140" lon="-1.9080880">
        <ele>1189.6</ele>
        <time>2019-07-06T04:47:39Z</time>
      </trkpt>
      <trkpt lat="40.5944220" lon="-1.9076570">
        <ele>1189.8</ele>
        <time>2019-07-06T04:47:46Z</time>
      </trkpt>
      <trkpt lat="40.5943870" lon="-1.9073920">
        <ele>1190.4</ele>
        <time>2019-07-06T04:47:51Z</time>
      </trkpt>
      <trkpt lat="40.5943790" lon="-1.9073400">
        <ele>1190.6</ele>
        <time>2019-07-06T04:47:52Z</time>
      </trkpt>
      <trkpt lat="40.5943710" lon="-1.9072870">
        <ele>1190.6</ele>
        <time>2019-07-06T04:47:53Z</time>
      </trkpt>
      <trkpt lat="40.5943350" lon="-1.9069840">
        <ele>1190.8</ele>
        <time>2019-07-06T04:47:58Z</time>
      </trkpt>
      <trkpt lat="40.5943160" lon="-1.9068210">
        <ele>1191.2</ele>
        <time>2019-07-06T04:48:01Z</time>
      </trkpt>
      <trkpt lat="40.5943190" lon="-1.9067630">
        <ele>1191.4</ele>
        <time>2019-07-06T04:48:02Z</time>
      </trkpt>
      <trkpt lat="40.5943190" lon="-1.9067630">
        <ele>1191.6</ele>
        <time>2019-07-06T04:48:03Z</time>
      </trkpt>
      <trkpt lat="40.5943790" lon="-1.9065830">
        <ele>1192.4</ele>
        <time>2019-07-06T04:48:06Z</time>
      </trkpt>
      <trkpt lat="40.5944050" lon="-1.9065690">
        <ele>1192.6</ele>
        <time>2019-07-06T04:48:07Z</time>
      </trkpt>
      <trkpt lat="40.5944290" lon="-1.9065720">
        <ele>1193.2</ele>
        <time>2019-07-06T04:48:09Z</time>
      </trkpt>
      <trkpt lat="40.5944580" lon="-1.9066210">
        <ele>1193.4</ele>
        <time>2019-07-06T04:48:10Z</time>
      </trkpt>
      <trkpt lat="40.5944670" lon="-1.9066590">
        <ele>1193.8</ele>
        <time>2019-07-06T04:48:11Z</time>
      </trkpt>
      <trkpt lat="40.5944770" lon="-1.9067050">
        <ele>1193.8</ele>
        <time>2019-07-06T04:48:12Z</time>
      </trkpt>
      <trkpt lat="40.5945060" lon="-1.9069260">
        <ele>1194.0</ele>
        <time>2019-07-06T04:48:16Z</time>
      </trkpt>
      <trkpt lat="40.5945160" lon="-1.9069880">
        <ele>1194.0</ele>
        <time>2019-07-06T04:48:17Z</time>
      </trkpt>
      <trkpt lat="40.5945380" lon="-1.9073240">
        <ele>1193.8</ele>
        <time>2019-07-06T04:48:22Z</time>
      </trkpt>
      <trkpt lat="40.5945380" lon="-1.9073950">
        <ele>1193.6</ele>
        <time>2019-07-06T04:48:23Z</time>
      </trkpt>
      <trkpt lat="40.5945520" lon="-1.9076130">
        <ele>1193.4</ele>
        <time>2019-07-06T04:48:26Z</time>
      </trkpt>
      <trkpt lat="40.5945590" lon="-1.9078410">
        <ele>1193.2</ele>
        <time>2019-07-06T04:48:29Z</time>
      </trkpt>
      <trkpt lat="40.5945670" lon="-1.9080800">
        <ele>1192.6</ele>
        <time>2019-07-06T04:48:32Z</time>
      </trkpt>
      <trkpt lat="40.5945740" lon="-1.9085670">
        <ele>1191.8</ele>
        <time>2019-07-06T04:48:38Z</time>
      </trkpt>
      <trkpt lat="40.5945710" lon="-1.9089500">
        <ele>1192.2</ele>
        <time>2019-07-06T04:48:43Z</time>
      </trkpt>
      <trkpt lat="40.5945650" lon="-1.9091690">
        <ele>1192.2</ele>
        <time>2019-07-06T04:48:46Z</time>
      </trkpt>
      <trkpt lat="40.5945110" lon="-1.9096960">
        <ele>1192.4</ele>
        <time>2019-07-06T04:48:53Z</time>
      </trkpt>
      <trkpt lat="40.5944170" lon="-1.9101620">
        <ele>1192.2</ele>
        <time>2019-07-06T04:48:59Z</time>
      </trkpt>
      <trkpt lat="40.5944010" lon="-1.9102450">
        <ele>1192.0</ele>
        <time>2019-07-06T04:49:00Z</time>
      </trkpt>
      <trkpt lat="40.5943510" lon="-1.9104930">
        <ele>1191.6</ele>
        <time>2019-07-06T04:49:03Z</time>
      </trkpt>
      <trkpt lat="40.5943350" lon="-1.9105770">
        <ele>1191.4</ele>
        <time>2019-07-06T04:49:04Z</time>
      </trkpt>
      <trkpt lat="40.5943190" lon="-1.9106610">
        <ele>1191.4</ele>
        <time>2019-07-06T04:49:05Z</time>
      </trkpt>
      <trkpt lat="40.5942960" lon="-1.9108280">
        <ele>1191.0</ele>
        <time>2019-07-06T04:49:07Z</time>
      </trkpt>
      <trkpt lat="40.5942900" lon="-1.9109110">
        <ele>1190.8</ele>
        <time>2019-07-06T04:49:08Z</time>
      </trkpt>
      <trkpt lat="40.5942900" lon="-1.9110760">
        <ele>1190.6</ele>
        <time>2019-07-06T04:49:10Z</time>
      </trkpt>
      <trkpt lat="40.5942980" lon="-1.9112460">
        <ele>1190.4</ele>
        <time>2019-07-06T04:49:12Z</time>
      </trkpt>
      <trkpt lat="40.5943140" lon="-1.9114140">
        <ele>1190.0</ele>
        <time>2019-07-06T04:49:15Z</time>
      </trkpt>
      <trkpt lat="40.5943550" lon="-1.9118220">
        <ele>1189.2</ele>
        <time>2019-07-06T04:49:19Z</time>
      </trkpt>
      <trkpt lat="40.5943870" lon="-1.9121560">
        <ele>1188.6</ele>
        <time>2019-07-06T04:49:23Z</time>
      </trkpt>
      <trkpt lat="40.5943900" lon="-1.9122420">
        <ele>1188.6</ele>
        <time>2019-07-06T04:49:24Z</time>
      </trkpt>
      <trkpt lat="40.5943800" lon="-1.9124120">
        <ele>1188.4</ele>
        <time>2019-07-06T04:49:26Z</time>
      </trkpt>
      <trkpt lat="40.5943720" lon="-1.9124730">
        <ele>1188.2</ele>
        <time>2019-07-06T04:49:27Z</time>
      </trkpt>
      <trkpt lat="40.5943630" lon="-1.9125340">
        <ele>1188.0</ele>
        <time>2019-07-06T04:49:28Z</time>
      </trkpt>
      <trkpt lat="40.5943450" lon="-1.9126560">
        <ele>1188.0</ele>
        <time>2019-07-06T04:49:29Z</time>
      </trkpt>
      <trkpt lat="40.5942890" lon="-1.9131250">
        <ele>1187.6</ele>
        <time>2019-07-06T04:49:35Z</time>
      </trkpt>
      <trkpt lat="40.5942970" lon="-1.9132020">
        <ele>1187.4</ele>
        <time>2019-07-06T04:49:36Z</time>
      </trkpt>
      <trkpt lat="40.5943440" lon="-1.9133470">
        <ele>1187.2</ele>
        <time>2019-07-06T04:49:38Z</time>
      </trkpt>
      <trkpt lat="40.5943700" lon="-1.9133810">
        <ele>1187.2</ele>
        <time>2019-07-06T04:49:39Z</time>
      </trkpt>
      <trkpt lat="40.5943950" lon="-1.9134160">
        <ele>1187.0</ele>
        <time>2019-07-06T04:49:40Z</time>
      </trkpt>
      <trkpt lat="40.5945480" lon="-1.9136220">
        <ele>1186.6</ele>
        <time>2019-07-06T04:49:43Z</time>
      </trkpt>
      <trkpt lat="40.5945920" lon="-1.9136740">
        <ele>1186.0</ele>
        <time>2019-07-06T04:49:45Z</time>
      </trkpt>
      <trkpt lat="40.5947630" lon="-1.9139010">
        <ele>1185.8</ele>
        <time>2019-07-06T04:49:48Z</time>
      </trkpt>
      <trkpt lat="40.5948300" lon="-1.9140340">
        <ele>1186.0</ele>
        <time>2019-07-06T04:49:50Z</time>
      </trkpt>
      <trkpt lat="40.5949720" lon="-1.9144690">
        <ele>1186.4</ele>
        <time>2019-07-06T04:49:56Z</time>
      </trkpt>
      <trkpt lat="40.5949720" lon="-1.9144690">
        <ele>1186.4</ele>
        <time>2019-07-06T04:49:57Z</time>
      </trkpt>
      <trkpt lat="40.5950930" lon="-1.9149140">
        <ele>1186.2</ele>
        <time>2019-07-06T04:50:02Z</time>
      </trkpt>
      <trkpt lat="40.5951830" lon="-1.9152340">
        <ele>1185.8</ele>
        <time>2019-07-06T04:50:06Z</time>
      </trkpt>
      <trkpt lat="40.5952650" lon="-1.9156960">
        <ele>1185.0</ele>
        <time>2019-07-06T04:50:11Z</time>
      </trkpt>
      <trkpt lat="40.5952700" lon="-1.9157920">
        <ele>1184.6</ele>
        <time>2019-07-06T04:50:12Z</time>
      </trkpt>
      <trkpt lat="40.5952660" lon="-1.9159810">
        <ele>1183.8</ele>
        <time>2019-07-06T04:50:14Z</time>
      </trkpt>
      <trkpt lat="40.5952480" lon="-1.9163430">
        <ele>1183.8</ele>
        <time>2019-07-06T04:50:18Z</time>
      </trkpt>
      <trkpt lat="40.5952470" lon="-1.9165160">
        <ele>1183.8</ele>
        <time>2019-07-06T04:50:20Z</time>
      </trkpt>
      <trkpt lat="40.5952610" lon="-1.9170180">
        <ele>1183.8</ele>
        <time>2019-07-06T04:50:27Z</time>
      </trkpt>
      <trkpt lat="40.5952710" lon="-1.9177240">
        <ele>1182.8</ele>
        <time>2019-07-06T04:50:34Z</time>
      </trkpt>
      <trkpt lat="40.5952710" lon="-1.9179040">
        <ele>1182.4</ele>
        <time>2019-07-06T04:50:36Z</time>
      </trkpt>
      <trkpt lat="40.5952640" lon="-1.9184230">
        <ele>1181.8</ele>
        <time>2019-07-06T04:50:42Z</time>
      </trkpt>
      <trkpt lat="40.5952610" lon="-1.9185950">
        <ele>1181.8</ele>
        <time>2019-07-06T04:50:45Z</time>
      </trkpt>
      <trkpt lat="40.5952240" lon="-1.9192850">
        <ele>1180.6</ele>
        <time>2019-07-06T04:50:52Z</time>
      </trkpt>
      <trkpt lat="40.5951890" lon="-1.9194580">
        <ele>1180.2</ele>
        <time>2019-07-06T04:50:54Z</time>
      </trkpt>
      <trkpt lat="40.5951180" lon="-1.9196200">
        <ele>1179.6</ele>
        <time>2019-07-06T04:50:57Z</time>
      </trkpt>
      <trkpt lat="40.5950450" lon="-1.9196930">
        <ele>1179.2</ele>
        <time>2019-07-06T04:50:58Z</time>
      </trkpt>
      <trkpt lat="40.5947530" lon="-1.9199830">
        <ele>1178.4</ele>
        <time>2019-07-06T04:51:02Z</time>
      </trkpt>
      <trkpt lat="40.5946220" lon="-1.9200900">
        <ele>1177.6</ele>
        <time>2019-07-06T04:51:04Z</time>
      </trkpt>
      <trkpt lat="40.5945590" lon="-1.9201470">
        <ele>1177.0</ele>
        <time>2019-07-06T04:51:05Z</time>
      </trkpt>
      <trkpt lat="40.5943760" lon="-1.9203160">
        <ele>1175.8</ele>
        <time>2019-07-06T04:51:08Z</time>
      </trkpt>
      <trkpt lat="40.5942460" lon="-1.9204250">
        <ele>1174.8</ele>
        <time>2019-07-06T04:51:10Z</time>
      </trkpt>
      <trkpt lat="40.5940380" lon="-1.9205970">
        <ele>1173.4</ele>
        <time>2019-07-06T04:51:13Z</time>
      </trkpt>
      <trkpt lat="40.5938360" lon="-1.9207800">
        <ele>1172.2</ele>
        <time>2019-07-06T04:51:16Z</time>
      </trkpt>
      <trkpt lat="40.5937660" lon="-1.9208440">
        <ele>1171.8</ele>
        <time>2019-07-06T04:51:17Z</time>
      </trkpt>
      <trkpt lat="40.5936230" lon="-1.9209810">
        <ele>1171.0</ele>
        <time>2019-07-06T04:51:19Z</time>
      </trkpt>
      <trkpt lat="40.5935510" lon="-1.9210540">
        <ele>1169.6</ele>
        <time>2019-07-06T04:51:21Z</time>
      </trkpt>
      <trkpt lat="40.5933510" lon="-1.9212870">
        <ele>1168.8</ele>
        <time>2019-07-06T04:51:23Z</time>
      </trkpt>
      <trkpt lat="40.5932920" lon="-1.9213730">
        <ele>1168.6</ele>
        <time>2019-07-06T04:51:24Z</time>
      </trkpt>
      <trkpt lat="40.5931820" lon="-1.9215540">
        <ele>1167.4</ele>
        <time>2019-07-06T04:51:26Z</time>
      </trkpt>
      <trkpt lat="40.5930880" lon="-1.9217290">
        <ele>1166.2</ele>
        <time>2019-07-06T04:51:28Z</time>
      </trkpt>
      <trkpt lat="40.5929860" lon="-1.9219280">
        <ele>1165.0</ele>
        <time>2019-07-06T04:51:31Z</time>
      </trkpt>
      <trkpt lat="40.5929650" lon="-1.9219620">
        <ele>1164.6</ele>
        <time>2019-07-06T04:51:32Z</time>
      </trkpt>
      <trkpt lat="40.5929250" lon="-1.9219750">
        <ele>1164.0</ele>
        <time>2019-07-06T04:51:34Z</time>
      </trkpt>
      <trkpt lat="40.5929030" lon="-1.9219690">
        <ele>1163.8</ele>
        <time>2019-07-06T04:51:35Z</time>
      </trkpt>
      <trkpt lat="40.5928800" lon="-1.9219700">
        <ele>1163.8</ele>
        <time>2019-07-06T04:51:36Z</time>
      </trkpt>
      <trkpt lat="40.5928630" lon="-1.9219830">
        <ele>1163.8</ele>
        <time>2019-07-06T04:51:39Z</time>
      </trkpt>
      <trkpt lat="40.5928750" lon="-1.9219790">
        <ele>1163.8</ele>
        <time>2019-07-06T04:51:40Z</time>
      </trkpt>
      <trkpt lat="40.5928880" lon="-1.9219750">
        <ele>1164.0</ele>
        <time>2019-07-06T04:51:41Z</time>
      </trkpt>
      <trkpt lat="40.5929000" lon="-1.9219710">
        <ele>1164.2</ele>
        <time>2019-07-06T04:51:43Z</time>
      </trkpt>
      <trkpt lat="40.5929120" lon="-1.9219670">
        <ele>1164.0</ele>
        <time>2019-07-06T04:51:47Z</time>
      </trkpt>
      <trkpt lat="40.5929240" lon="-1.9219630">
        <ele>1163.8</ele>
        <time>2019-07-06T04:51:48Z</time>
      </trkpt>
      <trkpt lat="40.5929320" lon="-1.9220480">
        <ele>1163.4</ele>
        <time>2019-07-06T04:51:51Z</time>
      </trkpt>
      <trkpt lat="40.5929170" lon="-1.9220850">
        <ele>1163.4</ele>
        <time>2019-07-06T04:51:52Z</time>
      </trkpt>
      <trkpt lat="40.5928710" lon="-1.9221720">
        <ele>1163.2</ele>
        <time>2019-07-06T04:51:54Z</time>
      </trkpt>
      <trkpt lat="40.5927660" lon="-1.9223920">
        <ele>1163.2</ele>
        <time>2019-07-06T04:51:58Z</time>
      </trkpt>
      <trkpt lat="40.5927350" lon="-1.9225300">
        <ele>1162.8</ele>
        <time>2019-07-06T04:52:00Z</time>
      </trkpt>
      <trkpt lat="40.5927310" lon="-1.9226070">
        <ele>1162.6</ele>
        <time>2019-07-06T04:52:01Z</time>
      </trkpt>
      <trkpt lat="40.5927340" lon="-1.9226840">
        <ele>1162.0</ele>
        <time>2019-07-06T04:52:03Z</time>
      </trkpt>
      <trkpt lat="40.5927720" lon="-1.9228360">
        <ele>1161.8</ele>
        <time>2019-07-06T04:52:04Z</time>
      </trkpt>
      <trkpt lat="40.5928000" lon="-1.9229120">
        <ele>1161.6</ele>
        <time>2019-07-06T04:52:05Z</time>
      </trkpt>
      <trkpt lat="40.5928930" lon="-1.9231140">
        <ele>1161.0</ele>
        <time>2019-07-06T04:52:09Z</time>
      </trkpt>
      <trkpt lat="40.5930330" lon="-1.9233550">
        <ele>1161.0</ele>
        <time>2019-07-06T04:52:12Z</time>
      </trkpt>
      <trkpt lat="40.5931360" lon="-1.9235220">
        <ele>1161.2</ele>
        <time>2019-07-06T04:52:15Z</time>
      </trkpt>
      <trkpt lat="40.5931700" lon="-1.9235760">
        <ele>1161.2</ele>
        <time>2019-07-06T04:52:17Z</time>
      </trkpt>
      <trkpt lat="40.5933330" lon="-1.9238440">
        <ele>1161.4</ele>
        <time>2019-07-06T04:52:21Z</time>
      </trkpt>
      <trkpt lat="40.5934350" lon="-1.9240010">
        <ele>1161.6</ele>
        <time>2019-07-06T04:52:24Z</time>
      </trkpt>
      <trkpt lat="40.5935380" lon="-1.9241570">
        <ele>1161.8</ele>
        <time>2019-07-06T04:52:27Z</time>
      </trkpt>
      <trkpt lat="40.5937420" lon="-1.9244890">
        <ele>1162.0</ele>
        <time>2019-07-06T04:52:33Z</time>
      </trkpt>
      <trkpt lat="40.5938360" lon="-1.9246760">
        <ele>1162.2</ele>
        <time>2019-07-06T04:52:36Z</time>
      </trkpt>
      <trkpt lat="40.5938670" lon="-1.9248250">
        <ele>1162.2</ele>
        <time>2019-07-06T04:52:38Z</time>
      </trkpt>
      <trkpt lat="40.5938850" lon="-1.9249840">
        <ele>1162.2</ele>
        <time>2019-07-06T04:52:40Z</time>
      </trkpt>
      <trkpt lat="40.5938720" lon="-1.9251600">
        <ele>1162.0</ele>
        <time>2019-07-06T04:52:42Z</time>
      </trkpt>
      <trkpt lat="40.5938620" lon="-1.9252430">
        <ele>1162.0</ele>
        <time>2019-07-06T04:52:43Z</time>
      </trkpt>
      <trkpt lat="40.5938040" lon="-1.9256750">
        <ele>1162.2</ele>
        <time>2019-07-06T04:52:49Z</time>
      </trkpt>
      <trkpt lat="40.5937440" lon="-1.9260290">
        <ele>1162.8</ele>
        <time>2019-07-06T04:52:55Z</time>
      </trkpt>
      <trkpt lat="40.5937180" lon="-1.9262060">
        <ele>1163.2</ele>
        <time>2019-07-06T04:52:58Z</time>
      </trkpt>
      <trkpt lat="40.5936950" lon="-1.9263790">
        <ele>1163.8</ele>
        <time>2019-07-06T04:53:01Z</time>
      </trkpt>
      <trkpt lat="40.5936660" lon="-1.9265420">
        <ele>1164.4</ele>
        <time>2019-07-06T04:53:05Z</time>
      </trkpt>
      <trkpt lat="40.5936550" lon="-1.9265720">
        <ele>1164.4</ele>
        <time>2019-07-06T04:53:07Z</time>
      </trkpt>
      <trkpt lat="40.5936070" lon="-1.9266250">
        <ele>1164.2</ele>
        <time>2019-07-06T04:53:10Z</time>
      </trkpt>
      <trkpt lat="40.5935840" lon="-1.9267010">
        <ele>1164.0</ele>
        <time>2019-07-06T04:53:12Z</time>
      </trkpt>
      <trkpt lat="40.5935680" lon="-1.9267630">
        <ele>1162.6</ele>
        <time>2019-07-06T04:53:14Z</time>
      </trkpt>
      <trkpt lat="40.5935680" lon="-1.9267630">
        <ele>1162.0</ele>
        <time>2019-07-06T04:53:15Z</time>
      </trkpt>
      <trkpt lat="40.5935410" lon="-1.9267930">
        <ele>1161.6</ele>
        <time>2019-07-06T04:53:16Z</time>
      </trkpt>
      <trkpt lat="40.5935170" lon="-1.9268180">
        <ele>1160.6</ele>
        <time>2019-07-06T04:53:19Z</time>
      </trkpt>
      <trkpt lat="40.5935140" lon="-1.9268290">
        <ele>1160.2</ele>
        <time>2019-07-06T04:53:20Z</time>
      </trkpt>
      <trkpt lat="40.5935090" lon="-1.9268420">
        <ele>1160.0</ele>
        <time>2019-07-06T04:53:21Z</time>
      </trkpt>
      <trkpt lat="40.5934840" lon="-1.9269020">
        <ele>1159.6</ele>
        <time>2019-07-06T04:53:24Z</time>
      </trkpt>
      <trkpt lat="40.5934700" lon="-1.9269350">
        <ele>1159.6</ele>
        <time>2019-07-06T04:53:25Z</time>
      </trkpt>
      <trkpt lat="40.5934550" lon="-1.9269720">
        <ele>1159.6</ele>
        <time>2019-07-06T04:53:26Z</time>
      </trkpt>
      <trkpt lat="40.5934180" lon="-1.9271010">
        <ele>1158.6</ele>
        <time>2019-07-06T04:53:30Z</time>
      </trkpt>
      <trkpt lat="40.5934150" lon="-1.9271050">
        <ele>1157.8</ele>
        <time>2019-07-06T04:53:32Z</time>
      </trkpt>
      <trkpt lat="40.5933860" lon="-1.9271420">
        <ele>1157.2</ele>
        <time>2019-07-06T04:53:39Z</time>
      </trkpt>
      <trkpt lat="40.5933700" lon="-1.9271420">
        <ele>1157.0</ele>
        <time>2019-07-06T04:53:40Z</time>
      </trkpt>
      <trkpt lat="40.5933530" lon="-1.9271390">
        <ele>1156.0</ele>
        <time>2019-07-06T04:53:42Z</time>
      </trkpt>
      <trkpt lat="40.5933160" lon="-1.9271150">
        <ele>1154.6</ele>
        <time>2019-07-06T04:53:46Z</time>
      </trkpt>
      <trkpt lat="40.5932860" lon="-1.9271410">
        <ele>1153.8</ele>
        <time>2019-07-06T04:53:48Z</time>
      </trkpt>
      <trkpt lat="40.5932700" lon="-1.9271500">
        <ele>1153.4</ele>
        <time>2019-07-06T04:53:49Z</time>
      </trkpt>
      <trkpt lat="40.5932530" lon="-1.9271550">
        <ele>1153.0</ele>
        <time>2019-07-06T04:53:51Z</time>
      </trkpt>
      <trkpt lat="40.5932080" lon="-1.9271620">
        <ele>1152.4</ele>
        <time>2019-07-06T04:53:54Z</time>
      </trkpt>
      <trkpt lat="40.5931950" lon="-1.9271710">
        <ele>1152.4</ele>
        <time>2019-07-06T04:53:55Z</time>
      </trkpt>
      <trkpt lat="40.5931860" lon="-1.9271820">
        <ele>1152.4</ele>
        <time>2019-07-06T04:53:56Z</time>
      </trkpt>
      <trkpt lat="40.5931840" lon="-1.9271910">
        <ele>1152.4</ele>
        <time>2019-07-06T04:53:59Z</time>
      </trkpt>
      <trkpt lat="40.5931560" lon="-1.9272850">
        <ele>1152.4</ele>
        <time>2019-07-06T04:54:05Z</time>
      </trkpt>
      <trkpt lat="40.5931410" lon="-1.9273250">
        <ele>1152.4</ele>
        <time>2019-07-06T04:54:06Z</time>
      </trkpt>
      <trkpt lat="40.5931150" lon="-1.9275570">
        <ele>1152.6</ele>
        <time>2019-07-06T04:54:12Z</time>
      </trkpt>
      <trkpt lat="40.5931270" lon="-1.9276250">
        <ele>1153.2</ele>
        <time>2019-07-06T04:54:16Z</time>
      </trkpt>
      <trkpt lat="40.5931270" lon="-1.9276250">
        <ele>1153.2</ele>
        <time>2019-07-06T04:54:17Z</time>
      </trkpt>
      <trkpt lat="40.5930850" lon="-1.9276440">
        <ele>1153.2</ele>
        <time>2019-07-06T04:54:20Z</time>
      </trkpt>
      <trkpt lat="40.5930700" lon="-1.9276610">
        <ele>1152.8</ele>
        <time>2019-07-06T04:54:22Z</time>
      </trkpt>
      <trkpt lat="40.5930700" lon="-1.9276610">
        <ele>1152.6</ele>
        <time>2019-07-06T04:54:23Z</time>
      </trkpt>
      <trkpt lat="40.5930510" lon="-1.9277800">
        <ele>1152.4</ele>
        <time>2019-07-06T04:54:27Z</time>
      </trkpt>
      <trkpt lat="40.5930640" lon="-1.9279280">
        <ele>1152.0</ele>
        <time>2019-07-06T04:54:32Z</time>
      </trkpt>
      <trkpt lat="40.5930740" lon="-1.9279840">
        <ele>1152.2</ele>
        <time>2019-07-06T04:54:34Z</time>
      </trkpt>
      <trkpt lat="40.5930710" lon="-1.9280650">
        <ele>1152.2</ele>
        <time>2019-07-06T04:54:37Z</time>
      </trkpt>
      <trkpt lat="40.5930770" lon="-1.9280890">
        <ele>1152.2</ele>
        <time>2019-07-06T04:54:39Z</time>
      </trkpt>
      <trkpt lat="40.5930950" lon="-1.9281230">
        <ele>1152.2</ele>
        <time>2019-07-06T04:54:42Z</time>
      </trkpt>
      <trkpt lat="40.5930960" lon="-1.9281230">
        <ele>1152.2</ele>
        <time>2019-07-06T04:54:43Z</time>
      </trkpt>
      <trkpt lat="40.5931540" lon="-1.9279390">
        <ele>1154.2</ele>
        <time>2019-07-06T04:55:19Z</time>
      </trkpt>
      <trkpt lat="40.5931450" lon="-1.9279090">
        <ele>1154.2</ele>
        <time>2019-07-06T04:55:20Z</time>
      </trkpt>
      <trkpt lat="40.5931360" lon="-1.9278770">
        <ele>1154.2</ele>
        <time>2019-07-06T04:55:21Z</time>
      </trkpt>
      <trkpt lat="40.5931280" lon="-1.9277860">
        <ele>1154.4</ele>
        <time>2019-07-06T04:55:24Z</time>
      </trkpt>
      <trkpt lat="40.5931450" lon="-1.9277170">
        <ele>1154.8</ele>
        <time>2019-07-06T04:55:26Z</time>
      </trkpt>
      <trkpt lat="40.5931430" lon="-1.9276320">
        <ele>1154.6</ele>
        <time>2019-07-06T04:55:28Z</time>
      </trkpt>
      <trkpt lat="40.5931220" lon="-1.9275370">
        <ele>1154.0</ele>
        <time>2019-07-06T04:55:30Z</time>
      </trkpt>
      <trkpt lat="40.5931160" lon="-1.9274670">
        <ele>1153.2</ele>
        <time>2019-07-06T04:55:33Z</time>
      </trkpt>
      <trkpt lat="40.5931160" lon="-1.9274120">
        <ele>1152.8</ele>
        <time>2019-07-06T04:55:34Z</time>
      </trkpt>
      <trkpt lat="40.5931540" lon="-1.9272980">
        <ele>1152.2</ele>
        <time>2019-07-06T04:55:39Z</time>
      </trkpt>
      <trkpt lat="40.5932020" lon="-1.9271670">
        <ele>1152.4</ele>
        <time>2019-07-06T04:55:42Z</time>
      </trkpt>
      <trkpt lat="40.5932060" lon="-1.9271630">
        <ele>1152.6</ele>
        <time>2019-07-06T04:55:43Z</time>
      </trkpt>
      <trkpt lat="40.5932060" lon="-1.9271620">
        <ele>1152.6</ele>
        <time>2019-07-06T04:55:44Z</time>
      </trkpt>
      <trkpt lat="40.5932610" lon="-1.9271590">
        <ele>1152.6</ele>
        <time>2019-07-06T04:55:49Z</time>
      </trkpt>
      <trkpt lat="40.5932750" lon="-1.9271540">
        <ele>1152.6</ele>
        <time>2019-07-06T04:55:51Z</time>
      </trkpt>
      <trkpt lat="40.5932940" lon="-1.9271330">
        <ele>1152.6</ele>
        <time>2019-07-06T04:55:52Z</time>
      </trkpt>
      <trkpt lat="40.5933140" lon="-1.9271130">
        <ele>1153.4</ele>
        <time>2019-07-06T04:55:56Z</time>
      </trkpt>
      <trkpt lat="40.5933140" lon="-1.9271130">
        <ele>1153.6</ele>
        <time>2019-07-06T04:55:57Z</time>
      </trkpt>
      <trkpt lat="40.5934230" lon="-1.9270180">
        <ele>1157.8</ele>
        <time>2019-07-06T04:56:31Z</time>
      </trkpt>
      <trkpt lat="40.5934290" lon="-1.9270010">
        <ele>1158.0</ele>
        <time>2019-07-06T04:56:32Z</time>
      </trkpt>
      <trkpt lat="40.5934410" lon="-1.9269670">
        <ele>1158.4</ele>
        <time>2019-07-06T04:56:34Z</time>
      </trkpt>
      <trkpt lat="40.5934740" lon="-1.9268690">
        <ele>1159.0</ele>
        <time>2019-07-06T04:56:40Z</time>
      </trkpt>
      <trkpt lat="40.5934850" lon="-1.9268400">
        <ele>1159.2</ele>
        <time>2019-07-06T04:56:42Z</time>
      </trkpt>
      <trkpt lat="40.5935020" lon="-1.9267900">
        <ele>1160.0</ele>
        <time>2019-07-06T04:56:46Z</time>
      </trkpt>
      <trkpt lat="40.5935070" lon="-1.9267680">
        <ele>1160.4</ele>
        <time>2019-07-06T04:56:48Z</time>
      </trkpt>
      <trkpt lat="40.5935150" lon="-1.9267600">
        <ele>1160.6</ele>
        <time>2019-07-06T04:56:49Z</time>
      </trkpt>
      <trkpt lat="40.5935460" lon="-1.9267370">
        <ele>1161.0</ele>
        <time>2019-07-06T04:56:52Z</time>
      </trkpt>
      <trkpt lat="40.5935460" lon="-1.9267370">
        <ele>1161.0</ele>
        <time>2019-07-06T04:56:53Z</time>
      </trkpt>
      <trkpt lat="40.5935760" lon="-1.9266810">
        <ele>1161.6</ele>
        <time>2019-07-06T04:56:56Z</time>
      </trkpt>
      <trkpt lat="40.5935870" lon="-1.9266450">
        <ele>1162.2</ele>
        <time>2019-07-06T04:56:58Z</time>
      </trkpt>
      <trkpt lat="40.5936020" lon="-1.9265930">
        <ele>1163.2</ele>
        <time>2019-07-06T04:57:01Z</time>
      </trkpt>
      <trkpt lat="40.5936400" lon="-1.9265420">
        <ele>1163.8</ele>
        <time>2019-07-06T04:57:05Z</time>
      </trkpt>
      <trkpt lat="40.5936510" lon="-1.9265430">
        <ele>1164.0</ele>
        <time>2019-07-06T04:57:06Z</time>
      </trkpt>
      <trkpt lat="40.5936570" lon="-1.9265440">
        <ele>1164.2</ele>
        <time>2019-07-06T04:57:07Z</time>
      </trkpt>
      <trkpt lat="40.5936610" lon="-1.9265470">
        <ele>1164.8</ele>
        <time>2019-07-06T04:57:09Z</time>
      </trkpt>
      <trkpt lat="40.5936950" lon="-1.9265860">
        <ele>1165.0</ele>
        <time>2019-07-06T04:57:13Z</time>
      </trkpt>
      <trkpt lat="40.5937010" lon="-1.9266120">
        <ele>1165.0</ele>
        <time>2019-07-06T04:57:14Z</time>
      </trkpt>
      <trkpt lat="40.5937420" lon="-1.9268710">
        <ele>1165.0</ele>
        <time>2019-07-06T04:57:20Z</time>
      </trkpt>
      <trkpt lat="40.5937940" lon="-1.9272350">
        <ele>1164.6</ele>
        <time>2019-07-06T04:57:27Z</time>
      </trkpt>
      <trkpt lat="40.5938540" lon="-1.9276510">
        <ele>1164.0</ele>
        <time>2019-07-06T04:57:32Z</time>
      </trkpt>
      <trkpt lat="40.5938850" lon="-1.9278690">
        <ele>1164.0</ele>
        <time>2019-07-06T04:57:35Z</time>
      </trkpt>
      <trkpt lat="40.5939180" lon="-1.9280960">
        <ele>1164.0</ele>
        <time>2019-07-06T04:57:38Z</time>
      </trkpt>
      <trkpt lat="40.5939350" lon="-1.9282470">
        <ele>1163.8</ele>
        <time>2019-07-06T04:57:40Z</time>
      </trkpt>
      <trkpt lat="40.5939640" lon="-1.9284700">
        <ele>1163.4</ele>
        <time>2019-07-06T04:57:43Z</time>
      </trkpt>
      <trkpt lat="40.5939750" lon="-1.9285430">
        <ele>1163.2</ele>
        <time>2019-07-06T04:57:44Z</time>
      </trkpt>
      <trkpt lat="40.5940170" lon="-1.9288380">
        <ele>1163.2</ele>
        <time>2019-07-06T04:57:48Z</time>
      </trkpt>
      <trkpt lat="40.5940340" lon="-1.9289900">
        <ele>1163.2</ele>
        <time>2019-07-06T04:57:50Z</time>
      </trkpt>
      <trkpt lat="40.5940760" lon="-1.9292740">
        <ele>1163.0</ele>
        <time>2019-07-06T04:57:54Z</time>
      </trkpt>
      <trkpt lat="40.5941150" lon="-1.9295340">
        <ele>1163.2</ele>
        <time>2019-07-06T04:57:58Z</time>
      </trkpt>
      <trkpt lat="40.5941360" lon="-1.9296610">
        <ele>1163.8</ele>
        <time>2019-07-06T04:58:00Z</time>
      </trkpt>
      <trkpt lat="40.5941560" lon="-1.9298550">
        <ele>1164.2</ele>
        <time>2019-07-06T04:58:03Z</time>
      </trkpt>
      <trkpt lat="40.5941640" lon="-1.9299180">
        <ele>1164.2</ele>
        <time>2019-07-06T04:58:04Z</time>
      </trkpt>
      <trkpt lat="40.5941720" lon="-1.9299810">
        <ele>1164.2</ele>
        <time>2019-07-06T04:58:05Z</time>
      </trkpt>
      <trkpt lat="40.5942200" lon="-1.9302710">
        <ele>1165.6</ele>
        <time>2019-07-06T04:58:10Z</time>
      </trkpt>
      <trkpt lat="40.5942590" lon="-1.9304440">
        <ele>1166.0</ele>
        <time>2019-07-06T04:58:13Z</time>
      </trkpt>
      <trkpt lat="40.5943600" lon="-1.9308050">
        <ele>1166.4</ele>
        <time>2019-07-06T04:58:19Z</time>
      </trkpt>
      <trkpt lat="40.5945060" lon="-1.9313320">
        <ele>1166.0</ele>
        <time>2019-07-06T04:58:27Z</time>
      </trkpt>
      <trkpt lat="40.5947070" lon="-1.9320130">
        <ele>1166.0</ele>
        <time>2019-07-06T04:58:37Z</time>
      </trkpt>
      <trkpt lat="40.5947270" lon="-1.9320830">
        <ele>1166.0</ele>
        <time>2019-07-06T04:58:38Z</time>
      </trkpt>
      <trkpt lat="40.5948490" lon="-1.9325030">
        <ele>1166.2</ele>
        <time>2019-07-06T04:58:44Z</time>
      </trkpt>
      <trkpt lat="40.5948980" lon="-1.9326390">
        <ele>1166.0</ele>
        <time>2019-07-06T04:58:47Z</time>
      </trkpt>
      <trkpt lat="40.5951180" lon="-1.9331620">
        <ele>1166.2</ele>
        <time>2019-07-06T04:58:54Z</time>
      </trkpt>
      <trkpt lat="40.5951820" lon="-1.9332950">
        <ele>1166.0</ele>
        <time>2019-07-06T04:58:56Z</time>
      </trkpt>
      <trkpt lat="40.5954920" lon="-1.9339600">
        <ele>1164.8</ele>
        <time>2019-07-06T04:59:05Z</time>
      </trkpt>
      <trkpt lat="40.5955670" lon="-1.9341200">
        <ele>1164.2</ele>
        <time>2019-07-06T04:59:07Z</time>
      </trkpt>
      <trkpt lat="40.5957210" lon="-1.9344390">
        <ele>1163.8</ele>
        <time>2019-07-06T04:59:11Z</time>
      </trkpt>
      <trkpt lat="40.5957980" lon="-1.9346010">
        <ele>1163.6</ele>
        <time>2019-07-06T04:59:13Z</time>
      </trkpt>
      <trkpt lat="40.5959170" lon="-1.9348480">
        <ele>1163.2</ele>
        <time>2019-07-06T04:59:16Z</time>
      </trkpt>
      <trkpt lat="40.5960350" lon="-1.9350970">
        <ele>1162.2</ele>
        <time>2019-07-06T04:59:19Z</time>
      </trkpt>
      <trkpt lat="40.5961500" lon="-1.9353320">
        <ele>1161.6</ele>
        <time>2019-07-06T04:59:22Z</time>
      </trkpt>
      <trkpt lat="40.5962040" lon="-1.9354390">
        <ele>1161.4</ele>
        <time>2019-07-06T04:59:23Z</time>
      </trkpt>
      <trkpt lat="40.5962570" lon="-1.9355460">
        <ele>1161.2</ele>
        <time>2019-07-06T04:59:25Z</time>
      </trkpt>
      <trkpt lat="40.5962880" lon="-1.9356100">
        <ele>1161.2</ele>
        <time>2019-07-06T04:59:26Z</time>
      </trkpt>
      <trkpt lat="40.5963480" lon="-1.9357320">
        <ele>1161.4</ele>
        <time>2019-07-06T04:59:28Z</time>
      </trkpt>
      <trkpt lat="40.5964370" lon="-1.9359040">
        <ele>1162.2</ele>
        <time>2019-07-06T04:59:31Z</time>
      </trkpt>
      <trkpt lat="40.5964660" lon="-1.9359590">
        <ele>1162.6</ele>
        <time>2019-07-06T04:59:33Z</time>
      </trkpt>
      <trkpt lat="40.5965140" lon="-1.9360750">
        <ele>1162.8</ele>
        <time>2019-07-06T04:59:34Z</time>
      </trkpt>
      <trkpt lat="40.5965760" lon="-1.9362550">
        <ele>1163.0</ele>
        <time>2019-07-06T04:59:37Z</time>
      </trkpt>
      <trkpt lat="40.5966660" lon="-1.9365730">
        <ele>1163.0</ele>
        <time>2019-07-06T04:59:42Z</time>
      </trkpt>
      <trkpt lat="40.5966970" lon="-1.9367110">
        <ele>1163.2</ele>
        <time>2019-07-06T04:59:44Z</time>
      </trkpt>
      <trkpt lat="40.5967120" lon="-1.9367820">
        <ele>1163.0</ele>
        <time>2019-07-06T04:59:45Z</time>
      </trkpt>
      <trkpt lat="40.5968120" lon="-1.9372900">
        <ele>1163.2</ele>
        <time>2019-07-06T04:59:53Z</time>
      </trkpt>
      <trkpt lat="40.5969500" lon="-1.9379970">
        <ele>1162.4</ele>
        <time>2019-07-06T05:00:01Z</time>
      </trkpt>
      <trkpt lat="40.5970810" lon="-1.9384730">
        <ele>1161.8</ele>
        <time>2019-07-06T05:00:07Z</time>
      </trkpt>
      <trkpt lat="40.5971440" lon="-1.9386210">
        <ele>1161.8</ele>
        <time>2019-07-06T05:00:09Z</time>
      </trkpt>
      <trkpt lat="40.5971800" lon="-1.9386910">
        <ele>1161.6</ele>
        <time>2019-07-06T05:00:10Z</time>
      </trkpt>
      <trkpt lat="40.5972660" lon="-1.9388040">
        <ele>1161.8</ele>
        <time>2019-07-06T05:00:12Z</time>
      </trkpt>
      <trkpt lat="40.5973130" lon="-1.9388510">
        <ele>1161.8</ele>
        <time>2019-07-06T05:00:13Z</time>
      </trkpt>
      <trkpt lat="40.5976520" lon="-1.9391350">
        <ele>1162.0</ele>
        <time>2019-07-06T05:00:20Z</time>
      </trkpt>
      <trkpt lat="40.5976520" lon="-1.9391350">
        <ele>1161.8</ele>
        <time>2019-07-06T05:00:21Z</time>
      </trkpt>
      <trkpt lat="40.5980410" lon="-1.9394810">
        <ele>1161.4</ele>
        <time>2019-07-06T05:00:28Z</time>
      </trkpt>
      <trkpt lat="40.5981410" lon="-1.9395680">
        <ele>1161.4</ele>
        <time>2019-07-06T05:00:30Z</time>
      </trkpt>
      <trkpt lat="40.5984910" lon="-1.9398460">
        <ele>1161.0</ele>
        <time>2019-07-06T05:00:37Z</time>
      </trkpt>
      <trkpt lat="40.5988350" lon="-1.9401190">
        <ele>1161.0</ele>
        <time>2019-07-06T05:00:44Z</time>
      </trkpt>
      <trkpt lat="40.5991400" lon="-1.9403290">
        <ele>1160.2</ele>
        <time>2019-07-06T05:00:50Z</time>
      </trkpt>
      <trkpt lat="40.5992420" lon="-1.9404100">
        <ele>1160.0</ele>
        <time>2019-07-06T05:00:52Z</time>
      </trkpt>
      <trkpt lat="40.5993920" lon="-1.9405480">
        <ele>1159.8</ele>
        <time>2019-07-06T05:00:55Z</time>
      </trkpt>
      <trkpt lat="40.5994790" lon="-1.9406710">
        <ele>1159.2</ele>
        <time>2019-07-06T05:00:57Z</time>
      </trkpt>
      <trkpt lat="40.5995160" lon="-1.9407420">
        <ele>1159.0</ele>
        <time>2019-07-06T05:00:58Z</time>
      </trkpt>
      <trkpt lat="40.5995670" lon="-1.9409120">
        <ele>1158.4</ele>
        <time>2019-07-06T05:01:00Z</time>
      </trkpt>
      <trkpt lat="40.5995920" lon="-1.9411130">
        <ele>1157.6</ele>
        <time>2019-07-06T05:01:02Z</time>
      </trkpt>
      <trkpt lat="40.5996060" lon="-1.9413200">
        <ele>1156.8</ele>
        <time>2019-07-06T05:01:04Z</time>
      </trkpt>
      <trkpt lat="40.5996060" lon="-1.9413200">
        <ele>1156.4</ele>
        <time>2019-07-06T05:01:05Z</time>
      </trkpt>
      <trkpt lat="40.5996130" lon="-1.9418850">
        <ele>1155.4</ele>
        <time>2019-07-06T05:01:10Z</time>
      </trkpt>
      <trkpt lat="40.5996160" lon="-1.9419220">
        <ele>1155.4</ele>
        <time>2019-07-06T05:01:11Z</time>
      </trkpt>
      <trkpt lat="40.5996190" lon="-1.9419600">
        <ele>1155.4</ele>
        <time>2019-07-06T05:01:12Z</time>
      </trkpt>
      <trkpt lat="40.5996350" lon="-1.9421870">
        <ele>1155.6</ele>
        <time>2019-07-06T05:01:15Z</time>
      </trkpt>
      <trkpt lat="40.5996450" lon="-1.9423270">
        <ele>1155.6</ele>
        <time>2019-07-06T05:01:17Z</time>
      </trkpt>
      <trkpt lat="40.5996550" lon="-1.9426180">
        <ele>1155.8</ele>
        <time>2019-07-06T05:01:20Z</time>
      </trkpt>
      <trkpt lat="40.5996920" lon="-1.9430590">
        <ele>1156.2</ele>
        <time>2019-07-06T05:01:26Z</time>
      </trkpt>
      <trkpt lat="40.5997670" lon="-1.9434390">
        <ele>1155.4</ele>
        <time>2019-07-06T05:01:31Z</time>
      </trkpt>
      <trkpt lat="40.5998300" lon="-1.9437590">
        <ele>1154.8</ele>
        <time>2019-07-06T05:01:35Z</time>
      </trkpt>
      <trkpt lat="40.5998920" lon="-1.9440030">
        <ele>1154.4</ele>
        <time>2019-07-06T05:01:38Z</time>
      </trkpt>
      <trkpt lat="40.5999640" lon="-1.9443300">
        <ele>1153.4</ele>
        <time>2019-07-06T05:01:42Z</time>
      </trkpt>
      <trkpt lat="40.5999810" lon="-1.9444130">
        <ele>1153.2</ele>
        <time>2019-07-06T05:01:43Z</time>
      </trkpt>
      <trkpt lat="40.6000760" lon="-1.9448400">
        <ele>1152.8</ele>
        <time>2019-07-06T05:01:48Z</time>
      </trkpt>
      <trkpt lat="40.6000910" lon="-1.9449250">
        <ele>1152.6</ele>
        <time>2019-07-06T05:01:49Z</time>
      </trkpt>
      <trkpt lat="40.6001340" lon="-1.9451720">
        <ele>1152.6</ele>
        <time>2019-07-06T05:01:52Z</time>
      </trkpt>
      <trkpt lat="40.6001910" lon="-1.9454820">
        <ele>1152.8</ele>
        <time>2019-07-06T05:01:56Z</time>
      </trkpt>
      <trkpt lat="40.6002570" lon="-1.9458610">
        <ele>1152.4</ele>
        <time>2019-07-06T05:02:01Z</time>
      </trkpt>
      <trkpt lat="40.6002910" lon="-1.9460870">
        <ele>1152.4</ele>
        <time>2019-07-06T05:02:04Z</time>
      </trkpt>
      <trkpt lat="40.6003080" lon="-1.9462430">
        <ele>1152.8</ele>
        <time>2019-07-06T05:02:07Z</time>
      </trkpt>
      <trkpt lat="40.6003200" lon="-1.9463680">
        <ele>1152.6</ele>
        <time>2019-07-06T05:02:12Z</time>
      </trkpt>
      <trkpt lat="40.6003770" lon="-1.9466790">
        <ele>1152.4</ele>
        <time>2019-07-06T05:02:18Z</time>
      </trkpt>
      <trkpt lat="40.6003850" lon="-1.9467360">
        <ele>1152.4</ele>
        <time>2019-07-06T05:02:19Z</time>
      </trkpt>
      <trkpt lat="40.6004340" lon="-1.9470250">
        <ele>1152.4</ele>
        <time>2019-07-06T05:02:24Z</time>
      </trkpt>
      <trkpt lat="40.6004660" lon="-1.9472080">
        <ele>1153.2</ele>
        <time>2019-07-06T05:02:27Z</time>
      </trkpt>
      <trkpt lat="40.6004730" lon="-1.9472720">
        <ele>1153.4</ele>
        <time>2019-07-06T05:02:28Z</time>
      </trkpt>
      <trkpt lat="40.6005430" lon="-1.9477370">
        <ele>1153.2</ele>
        <time>2019-07-06T05:02:35Z</time>
      </trkpt>
      <trkpt lat="40.6005690" lon="-1.9482450">
        <ele>1152.8</ele>
        <time>2019-07-06T05:02:42Z</time>
      </trkpt>
      <trkpt lat="40.6005400" lon="-1.9486060">
        <ele>1152.4</ele>
        <time>2019-07-06T05:02:47Z</time>
      </trkpt>
      <trkpt lat="40.6005160" lon="-1.9487510">
        <ele>1152.4</ele>
        <time>2019-07-06T05:02:49Z</time>
      </trkpt>
      <trkpt lat="40.6004040" lon="-1.9493860">
        <ele>1152.8</ele>
        <time>2019-07-06T05:02:58Z</time>
      </trkpt>
      <trkpt lat="40.6003290" lon="-1.9497910">
        <ele>1153.6</ele>
        <time>2019-07-06T05:03:05Z</time>
      </trkpt>
      <trkpt lat="40.6002260" lon="-1.9503680">
        <ele>1154.0</ele>
        <time>2019-07-06T05:03:13Z</time>
      </trkpt>
      <trkpt lat="40.6001980" lon="-1.9505590">
        <ele>1154.6</ele>
        <time>2019-07-06T05:03:17Z</time>
      </trkpt>
      <trkpt lat="40.6001370" lon="-1.9509420">
        <ele>1155.2</ele>
        <time>2019-07-06T05:03:22Z</time>
      </trkpt>
      <trkpt lat="40.6000610" lon="-1.9514050">
        <ele>1155.6</ele>
        <time>2019-07-06T05:03:29Z</time>
      </trkpt>
      <trkpt lat="40.6000490" lon="-1.9514700">
        <ele>1155.6</ele>
        <time>2019-07-06T05:03:30Z</time>
      </trkpt>
      <trkpt lat="40.5999570" lon="-1.9519670">
        <ele>1156.0</ele>
        <time>2019-07-06T05:03:38Z</time>
      </trkpt>
      <trkpt lat="40.5998660" lon="-1.9525320">
        <ele>1156.2</ele>
        <time>2019-07-06T05:03:46Z</time>
      </trkpt>
      <trkpt lat="40.5998320" lon="-1.9526740">
        <ele>1155.8</ele>
        <time>2019-07-06T05:03:48Z</time>
      </trkpt>
      <trkpt lat="40.5998000" lon="-1.9527870">
        <ele>1155.4</ele>
        <time>2019-07-06T05:03:50Z</time>
      </trkpt>
      <trkpt lat="40.5997860" lon="-1.9528300">
        <ele>1155.4</ele>
        <time>2019-07-06T05:03:51Z</time>
      </trkpt>
      <trkpt lat="40.5997610" lon="-1.9529190">
        <ele>1155.0</ele>
        <time>2019-07-06T05:03:54Z</time>
      </trkpt>
      <trkpt lat="40.5997610" lon="-1.9529530">
        <ele>1154.8</ele>
        <time>2019-07-06T05:03:55Z</time>
      </trkpt>
      <trkpt lat="40.5997670" lon="-1.9529870">
        <ele>1154.6</ele>
        <time>2019-07-06T05:03:56Z</time>
      </trkpt>
      <trkpt lat="40.5998180" lon="-1.9531580">
        <ele>1155.4</ele>
        <time>2019-07-06T05:04:01Z</time>
      </trkpt>
      <trkpt lat="40.5998480" lon="-1.9532770">
        <ele>1155.6</ele>
        <time>2019-07-06T05:04:04Z</time>
      </trkpt>
      <trkpt lat="40.5998600" lon="-1.9533200">
        <ele>1156.2</ele>
        <time>2019-07-06T05:04:05Z</time>
      </trkpt>
      <trkpt lat="40.5998850" lon="-1.9534110">
        <ele>1156.6</ele>
        <time>2019-07-06T05:04:07Z</time>
      </trkpt>
      <trkpt lat="40.5999090" lon="-1.9535000">
        <ele>1157.2</ele>
        <time>2019-07-06T05:04:09Z</time>
      </trkpt>
      <trkpt lat="40.5999230" lon="-1.9535460">
        <ele>1157.2</ele>
        <time>2019-07-06T05:04:10Z</time>
      </trkpt>
      <trkpt lat="40.5999740" lon="-1.9537380">
        <ele>1158.2</ele>
        <time>2019-07-06T05:04:14Z</time>
      </trkpt>
      <trkpt lat="40.5999890" lon="-1.9537860">
        <ele>1158.6</ele>
        <time>2019-07-06T05:04:15Z</time>
      </trkpt>
      <trkpt lat="40.6000250" lon="-1.9538800">
        <ele>1159.2</ele>
        <time>2019-07-06T05:04:17Z</time>
      </trkpt>
      <trkpt lat="40.6000950" lon="-1.9540210">
        <ele>1159.4</ele>
        <time>2019-07-06T05:04:20Z</time>
      </trkpt>
      <trkpt lat="40.6001830" lon="-1.9541840">
        <ele>1159.2</ele>
        <time>2019-07-06T05:04:23Z</time>
      </trkpt>
      <trkpt lat="40.6002920" lon="-1.9543600">
        <ele>1158.6</ele>
        <time>2019-07-06T05:04:26Z</time>
      </trkpt>
      <trkpt lat="40.6003820" lon="-1.9544520">
        <ele>1158.2</ele>
        <time>2019-07-06T05:04:28Z</time>
      </trkpt>
      <trkpt lat="40.6005740" lon="-1.9546250">
        <ele>1158.0</ele>
        <time>2019-07-06T05:04:32Z</time>
      </trkpt>
      <trkpt lat="40.6006670" lon="-1.9547290">
        <ele>1157.6</ele>
        <time>2019-07-06T05:04:34Z</time>
      </trkpt>
      <trkpt lat="40.6007230" lon="-1.9547830">
        <ele>1157.4</ele>
        <time>2019-07-06T05:04:35Z</time>
      </trkpt>
      <trkpt lat="40.6007890" lon="-1.9548360">
        <ele>1156.6</ele>
        <time>2019-07-06T05:04:36Z</time>
      </trkpt>
      <trkpt lat="40.6008650" lon="-1.9548860">
        <ele>1156.0</ele>
        <time>2019-07-06T05:04:37Z</time>
      </trkpt>
      <trkpt lat="40.6009450" lon="-1.9549290">
        <ele>1155.2</ele>
        <time>2019-07-06T05:04:38Z</time>
      </trkpt>
      <trkpt lat="40.6010290" lon="-1.9549610">
        <ele>1154.4</ele>
        <time>2019-07-06T05:04:39Z</time>
      </trkpt>
      <trkpt lat="40.6011150" lon="-1.9549870">
        <ele>1153.8</ele>
        <time>2019-07-06T05:04:40Z</time>
      </trkpt>
      <trkpt lat="40.6012000" lon="-1.9550090">
        <ele>1153.0</ele>
        <time>2019-07-06T05:04:41Z</time>
      </trkpt>
      <trkpt lat="40.6013680" lon="-1.9550460">
        <ele>1151.6</ele>
        <time>2019-07-06T05:04:43Z</time>
      </trkpt>
      <trkpt lat="40.6015320" lon="-1.9550990">
        <ele>1150.4</ele>
        <time>2019-07-06T05:04:45Z</time>
      </trkpt>
      <trkpt lat="40.6016820" lon="-1.9551820">
        <ele>1150.0</ele>
        <time>2019-07-06T05:04:47Z</time>
      </trkpt>
      <trkpt lat="40.6018250" lon="-1.9552830">
        <ele>1149.4</ele>
        <time>2019-07-06T05:04:49Z</time>
      </trkpt>
      <trkpt lat="40.6020880" lon="-1.9555140">
        <ele>1148.6</ele>
        <time>2019-07-06T05:04:53Z</time>
      </trkpt>
      <trkpt lat="40.6022000" lon="-1.9556170">
        <ele>1148.6</ele>
        <time>2019-07-06T05:04:55Z</time>
      </trkpt>
      <trkpt lat="40.6023030" lon="-1.9556680">
        <ele>1148.8</ele>
        <time>2019-07-06T05:04:57Z</time>
      </trkpt>
      <trkpt lat="40.6025010" lon="-1.9556510">
        <ele>1149.8</ele>
        <time>2019-07-06T05:05:01Z</time>
      </trkpt>
      <trkpt lat="40.6026520" lon="-1.9555690">
        <ele>1150.2</ele>
        <time>2019-07-06T05:05:04Z</time>
      </trkpt>
      <trkpt lat="40.6027510" lon="-1.9555160">
        <ele>1150.4</ele>
        <time>2019-07-06T05:05:06Z</time>
      </trkpt>
      <trkpt lat="40.6027970" lon="-1.9554980">
        <ele>1150.4</ele>
        <time>2019-07-06T05:05:07Z</time>
      </trkpt>
      <trkpt lat="40.6028450" lon="-1.9554840">
        <ele>1150.4</ele>
        <time>2019-07-06T05:05:08Z</time>
      </trkpt>
      <trkpt lat="40.6030100" lon="-1.9555290">
        <ele>1149.0</ele>
        <time>2019-07-06T05:05:11Z</time>
      </trkpt>
      <trkpt lat="40.6031270" lon="-1.9556120">
        <ele>1148.2</ele>
        <time>2019-07-06T05:05:13Z</time>
      </trkpt>
      <trkpt lat="40.6031890" lon="-1.9556500">
        <ele>1147.8</ele>
        <time>2019-07-06T05:05:14Z</time>
      </trkpt>
      <trkpt lat="40.6032490" lon="-1.9556740">
        <ele>1147.6</ele>
        <time>2019-07-06T05:05:15Z</time>
      </trkpt>
      <trkpt lat="40.6033100" lon="-1.9556890">
        <ele>1147.0</ele>
        <time>2019-07-06T05:05:16Z</time>
      </trkpt>
      <trkpt lat="40.6033720" lon="-1.9556950">
        <ele>1146.6</ele>
        <time>2019-07-06T05:05:17Z</time>
      </trkpt>
      <trkpt lat="40.6034980" lon="-1.9556970">
        <ele>1145.8</ele>
        <time>2019-07-06T05:05:19Z</time>
      </trkpt>
      <trkpt lat="40.6035680" lon="-1.9556910">
        <ele>1145.6</ele>
        <time>2019-07-06T05:05:20Z</time>
      </trkpt>
      <trkpt lat="40.6036420" lon="-1.9556860">
        <ele>1145.2</ele>
        <time>2019-07-06T05:05:21Z</time>
      </trkpt>
      <trkpt lat="40.6037960" lon="-1.9556760">
        <ele>1144.4</ele>
        <time>2019-07-06T05:05:23Z</time>
      </trkpt>
      <trkpt lat="40.6038700" lon="-1.9556640">
        <ele>1143.0</ele>
        <time>2019-07-06T05:05:24Z</time>
      </trkpt>
      <trkpt lat="40.6040070" lon="-1.9556190">
        <ele>1141.8</ele>
        <time>2019-07-06T05:05:26Z</time>
      </trkpt>
      <trkpt lat="40.6041370" lon="-1.9555630">
        <ele>1140.8</ele>
        <time>2019-07-06T05:05:28Z</time>
      </trkpt>
      <trkpt lat="40.6042590" lon="-1.9555560">
        <ele>1140.2</ele>
        <time>2019-07-06T05:05:30Z</time>
      </trkpt>
      <trkpt lat="40.6043160" lon="-1.9555750">
        <ele>1140.0</ele>
        <time>2019-07-06T05:05:31Z</time>
      </trkpt>
      <trkpt lat="40.6043710" lon="-1.9556090">
        <ele>1139.4</ele>
        <time>2019-07-06T05:05:32Z</time>
      </trkpt>
      <trkpt lat="40.6044920" lon="-1.9556830">
        <ele>1139.0</ele>
        <time>2019-07-06T05:05:34Z</time>
      </trkpt>
      <trkpt lat="40.6045600" lon="-1.9557180">
        <ele>1138.8</ele>
        <time>2019-07-06T05:05:35Z</time>
      </trkpt>
      <trkpt lat="40.6046310" lon="-1.9557480">
        <ele>1138.6</ele>
        <time>2019-07-06T05:05:36Z</time>
      </trkpt>
      <trkpt lat="40.6047050" lon="-1.9557750">
        <ele>1138.2</ele>
        <time>2019-07-06T05:05:37Z</time>
      </trkpt>
      <trkpt lat="40.6049340" lon="-1.9558340">
        <ele>1137.6</ele>
        <time>2019-07-06T05:05:40Z</time>
      </trkpt>
      <trkpt lat="40.6050030" lon="-1.9558730">
        <ele>1137.2</ele>
        <time>2019-07-06T05:05:41Z</time>
      </trkpt>
      <trkpt lat="40.6051930" lon="-1.9560070">
        <ele>1136.0</ele>
        <time>2019-07-06T05:05:44Z</time>
      </trkpt>
      <trkpt lat="40.6054640" lon="-1.9560760">
        <ele>1135.0</ele>
        <time>2019-07-06T05:05:48Z</time>
      </trkpt>
      <trkpt lat="40.6055370" lon="-1.9560990">
        <ele>1134.8</ele>
        <time>2019-07-06T05:05:49Z</time>
      </trkpt>
      <trkpt lat="40.6056720" lon="-1.9561860">
        <ele>1134.4</ele>
        <time>2019-07-06T05:05:51Z</time>
      </trkpt>
      <trkpt lat="40.6058030" lon="-1.9562920">
        <ele>1134.0</ele>
        <time>2019-07-06T05:05:53Z</time>
      </trkpt>
      <trkpt lat="40.6060000" lon="-1.9564650">
        <ele>1133.0</ele>
        <time>2019-07-06T05:05:56Z</time>
      </trkpt>
      <trkpt lat="40.6061900" lon="-1.9566410">
        <ele>1132.2</ele>
        <time>2019-07-06T05:05:59Z</time>
      </trkpt>
      <trkpt lat="40.6063070" lon="-1.9567570">
        <ele>1132.0</ele>
        <time>2019-07-06T05:06:01Z</time>
      </trkpt>
      <trkpt lat="40.6065300" lon="-1.9569820">
        <ele>1132.0</ele>
        <time>2019-07-06T05:06:05Z</time>
      </trkpt>
      <trkpt lat="40.6065790" lon="-1.9570430">
        <ele>1132.0</ele>
        <time>2019-07-06T05:06:06Z</time>
      </trkpt>
      <trkpt lat="40.6067740" lon="-1.9572620">
        <ele>1131.8</ele>
        <time>2019-07-06T05:06:10Z</time>
      </trkpt>
      <trkpt lat="40.6069100" lon="-1.9573940">
        <ele>1132.2</ele>
        <time>2019-07-06T05:06:13Z</time>
      </trkpt>
      <trkpt lat="40.6070010" lon="-1.9574670">
        <ele>1132.6</ele>
        <time>2019-07-06T05:06:15Z</time>
      </trkpt>
      <trkpt lat="40.6070940" lon="-1.9575280">
        <ele>1132.8</ele>
        <time>2019-07-06T05:06:17Z</time>
      </trkpt>
      <trkpt lat="40.6071870" lon="-1.9575710">
        <ele>1133.4</ele>
        <time>2019-07-06T05:06:19Z</time>
      </trkpt>
      <trkpt lat="40.6073430" lon="-1.9576170">
        <ele>1134.0</ele>
        <time>2019-07-06T05:06:22Z</time>
      </trkpt>
      <trkpt lat="40.6075070" lon="-1.9576740">
        <ele>1134.2</ele>
        <time>2019-07-06T05:06:25Z</time>
      </trkpt>
      <trkpt lat="40.6077710" lon="-1.9578040">
        <ele>1134.6</ele>
        <time>2019-07-06T05:06:30Z</time>
      </trkpt>
      <trkpt lat="40.6078210" lon="-1.9578440">
        <ele>1134.6</ele>
        <time>2019-07-06T05:06:31Z</time>
      </trkpt>
      <trkpt lat="40.6079630" lon="-1.9579720">
        <ele>1134.6</ele>
        <time>2019-07-06T05:06:34Z</time>
      </trkpt>
      <trkpt lat="40.6081090" lon="-1.9581030">
        <ele>1134.4</ele>
        <time>2019-07-06T05:06:37Z</time>
      </trkpt>
      <trkpt lat="40.6084220" lon="-1.9583810">
        <ele>1133.8</ele>
        <time>2019-07-06T05:06:43Z</time>
      </trkpt>
      <trkpt lat="40.6086310" lon="-1.9585990">
        <ele>1133.0</ele>
        <time>2019-07-06T05:06:47Z</time>
      </trkpt>
      <trkpt lat="40.6087780" lon="-1.9587600">
        <ele>1132.6</ele>
        <time>2019-07-06T05:06:50Z</time>
      </trkpt>
      <trkpt lat="40.6090690" lon="-1.9590290">
        <ele>1132.6</ele>
        <time>2019-07-06T05:06:56Z</time>
      </trkpt>
      <trkpt lat="40.6091720" lon="-1.9591120">
        <ele>1132.4</ele>
        <time>2019-07-06T05:06:58Z</time>
      </trkpt>
      <trkpt lat="40.6094360" lon="-1.9593220">
        <ele>1132.4</ele>
        <time>2019-07-06T05:07:03Z</time>
      </trkpt>
      <trkpt lat="40.6096930" lon="-1.9595580">
        <ele>1132.0</ele>
        <time>2019-07-06T05:07:08Z</time>
      </trkpt>
      <trkpt lat="40.6099120" lon="-1.9596920">
        <ele>1132.4</ele>
        <time>2019-07-06T05:07:12Z</time>
      </trkpt>
      <trkpt lat="40.6099720" lon="-1.9597170">
        <ele>1132.4</ele>
        <time>2019-07-06T05:07:13Z</time>
      </trkpt>
      <trkpt lat="40.6102160" lon="-1.9598280">
        <ele>1131.8</ele>
        <time>2019-07-06T05:07:17Z</time>
      </trkpt>
      <trkpt lat="40.6103310" lon="-1.9599120">
        <ele>1131.6</ele>
        <time>2019-07-06T05:07:19Z</time>
      </trkpt>
      <trkpt lat="40.6104980" lon="-1.9600630">
        <ele>1131.0</ele>
        <time>2019-07-06T05:07:22Z</time>
      </trkpt>
      <trkpt lat="40.6106090" lon="-1.9601730">
        <ele>1130.2</ele>
        <time>2019-07-06T05:07:24Z</time>
      </trkpt>
      <trkpt lat="40.6107190" lon="-1.9602930">
        <ele>1129.8</ele>
        <time>2019-07-06T05:07:26Z</time>
      </trkpt>
      <trkpt lat="40.6108670" lon="-1.9605030">
        <ele>1128.6</ele>
        <time>2019-07-06T05:07:29Z</time>
      </trkpt>
      <trkpt lat="40.6110110" lon="-1.9607250">
        <ele>1128.0</ele>
        <time>2019-07-06T05:07:32Z</time>
      </trkpt>
      <trkpt lat="40.6111510" lon="-1.9609150">
        <ele>1127.4</ele>
        <time>2019-07-06T05:07:35Z</time>
      </trkpt>
      <trkpt lat="40.6112060" lon="-1.9609690">
        <ele>1127.2</ele>
        <time>2019-07-06T05:07:36Z</time>
      </trkpt>
      <trkpt lat="40.6112640" lon="-1.9610220">
        <ele>1126.8</ele>
        <time>2019-07-06T05:07:37Z</time>
      </trkpt>
      <trkpt lat="40.6113240" lon="-1.9610700">
        <ele>1126.4</ele>
        <time>2019-07-06T05:07:38Z</time>
      </trkpt>
      <trkpt lat="40.6114410" lon="-1.9611600">
        <ele>1125.8</ele>
        <time>2019-07-06T05:07:40Z</time>
      </trkpt>
      <trkpt lat="40.6114870" lon="-1.9612150">
        <ele>1125.4</ele>
        <time>2019-07-06T05:07:41Z</time>
      </trkpt>
      <trkpt lat="40.6116020" lon="-1.9614940">
        <ele>1124.8</ele>
        <time>2019-07-06T05:07:45Z</time>
      </trkpt>
      <trkpt lat="40.6116860" lon="-1.9617120">
        <ele>1124.8</ele>
        <time>2019-07-06T05:07:48Z</time>
      </trkpt>
      <trkpt lat="40.6118050" lon="-1.9619990">
        <ele>1124.6</ele>
        <time>2019-07-06T05:07:52Z</time>
      </trkpt>
      <trkpt lat="40.6118640" lon="-1.9621330">
        <ele>1124.6</ele>
        <time>2019-07-06T05:07:54Z</time>
      </trkpt>
      <trkpt lat="40.6119270" lon="-1.9623580">
        <ele>1124.4</ele>
        <time>2019-07-06T05:07:57Z</time>
      </trkpt>
      <trkpt lat="40.6119930" lon="-1.9626610">
        <ele>1124.4</ele>
        <time>2019-07-06T05:08:01Z</time>
      </trkpt>
      <trkpt lat="40.6120140" lon="-1.9628860">
        <ele>1124.4</ele>
        <time>2019-07-06T05:08:04Z</time>
      </trkpt>
      <trkpt lat="40.6120120" lon="-1.9631860">
        <ele>1124.2</ele>
        <time>2019-07-06T05:08:08Z</time>
      </trkpt>
      <trkpt lat="40.6119950" lon="-1.9633360">
        <ele>1124.2</ele>
        <time>2019-07-06T05:08:10Z</time>
      </trkpt>
      <trkpt lat="40.6118960" lon="-1.9637550">
        <ele>1125.0</ele>
        <time>2019-07-06T05:08:16Z</time>
      </trkpt>
      <trkpt lat="40.6118190" lon="-1.9641170">
        <ele>1125.2</ele>
        <time>2019-07-06T05:08:21Z</time>
      </trkpt>
      <trkpt lat="40.6118100" lon="-1.9641960">
        <ele>1125.2</ele>
        <time>2019-07-06T05:08:22Z</time>
      </trkpt>
      <trkpt lat="40.6118040" lon="-1.9645180">
        <ele>1125.2</ele>
        <time>2019-07-06T05:08:26Z</time>
      </trkpt>
      <trkpt lat="40.6117960" lon="-1.9645940">
        <ele>1125.2</ele>
        <time>2019-07-06T05:08:27Z</time>
      </trkpt>
      <trkpt lat="40.6117750" lon="-1.9647460">
        <ele>1124.4</ele>
        <time>2019-07-06T05:08:29Z</time>
      </trkpt>
      <trkpt lat="40.6117430" lon="-1.9649620">
        <ele>1124.8</ele>
        <time>2019-07-06T05:08:32Z</time>
      </trkpt>
      <trkpt lat="40.6117250" lon="-1.9650880">
        <ele>1125.0</ele>
        <time>2019-07-06T05:08:34Z</time>
      </trkpt>
      <trkpt lat="40.6116720" lon="-1.9653790">
        <ele>1125.6</ele>
        <time>2019-07-06T05:08:39Z</time>
      </trkpt>
      <trkpt lat="40.6116330" lon="-1.9655660">
        <ele>1126.6</ele>
        <time>2019-07-06T05:08:42Z</time>
      </trkpt>
      <trkpt lat="40.6116140" lon="-1.9656260">
        <ele>1126.8</ele>
        <time>2019-07-06T05:08:43Z</time>
      </trkpt>
      <trkpt lat="40.6115700" lon="-1.9657390">
        <ele>1127.2</ele>
        <time>2019-07-06T05:08:45Z</time>
      </trkpt>
      <trkpt lat="40.6115450" lon="-1.9657930">
        <ele>1127.6</ele>
        <time>2019-07-06T05:08:46Z</time>
      </trkpt>
      <trkpt lat="40.6115180" lon="-1.9658450">
        <ele>1128.0</ele>
        <time>2019-07-06T05:08:47Z</time>
      </trkpt>
      <trkpt lat="40.6114290" lon="-1.9659850">
        <ele>1128.4</ele>
        <time>2019-07-06T05:08:50Z</time>
      </trkpt>
      <trkpt lat="40.6113930" lon="-1.9660260">
        <ele>1128.6</ele>
        <time>2019-07-06T05:08:51Z</time>
      </trkpt>
      <trkpt lat="40.6112780" lon="-1.9661260">
        <ele>1129.0</ele>
        <time>2019-07-06T05:08:54Z</time>
      </trkpt>
      <trkpt lat="40.6111930" lon="-1.9661760">
        <ele>1129.4</ele>
        <time>2019-07-06T05:08:56Z</time>
      </trkpt>
      <trkpt lat="40.6111490" lon="-1.9662000">
        <ele>1129.6</ele>
        <time>2019-07-06T05:08:57Z</time>
      </trkpt>
      <trkpt lat="40.6111050" lon="-1.9662230">
        <ele>1129.8</ele>
        <time>2019-07-06T05:08:58Z</time>
      </trkpt>
      <trkpt lat="40.6110140" lon="-1.9662580">
        <ele>1130.2</ele>
        <time>2019-07-06T05:09:00Z</time>
      </trkpt>
      <trkpt lat="40.6109350" lon="-1.9663060">
        <ele>1130.6</ele>
        <time>2019-07-06T05:09:02Z</time>
      </trkpt>
      <trkpt lat="40.6108870" lon="-1.9663210">
        <ele>1130.8</ele>
        <time>2019-07-06T05:09:03Z</time>
      </trkpt>
      <trkpt lat="40.6107900" lon="-1.9663410">
        <ele>1130.8</ele>
        <time>2019-07-06T05:09:05Z</time>
      </trkpt>
      <trkpt lat="40.6106420" lon="-1.9663650">
        <ele>1131.4</ele>
        <time>2019-07-06T05:09:08Z</time>
      </trkpt>
      <trkpt lat="40.6104590" lon="-1.9663880">
        <ele>1132.0</ele>
        <time>2019-07-06T05:09:12Z</time>
      </trkpt>
      <trkpt lat="40.6103520" lon="-1.9664020">
        <ele>1132.8</ele>
        <time>2019-07-06T05:09:15Z</time>
      </trkpt>
      <trkpt lat="40.6103010" lon="-1.9664260">
        <ele>1133.8</ele>
        <time>2019-07-06T05:09:17Z</time>
      </trkpt>
      <trkpt lat="40.6102760" lon="-1.9664350">
        <ele>1134.0</ele>
        <time>2019-07-06T05:09:18Z</time>
      </trkpt>
      <trkpt lat="40.6102010" lon="-1.9664690">
        <ele>1135.0</ele>
        <time>2019-07-06T05:09:21Z</time>
      </trkpt>
      <trkpt lat="40.6101770" lon="-1.9664850">
        <ele>1135.2</ele>
        <time>2019-07-06T05:09:22Z</time>
      </trkpt>
      <trkpt lat="40.6100550" lon="-1.9665470">
        <ele>1136.8</ele>
        <time>2019-07-06T05:09:27Z</time>
      </trkpt>
      <trkpt lat="40.6100110" lon="-1.9665650">
        <ele>1137.4</ele>
        <time>2019-07-06T05:09:29Z</time>
      </trkpt>
      <trkpt lat="40.6099710" lon="-1.9665860">
        <ele>1138.2</ele>
        <time>2019-07-06T05:09:31Z</time>
      </trkpt>
      <trkpt lat="40.6099190" lon="-1.9666260">
        <ele>1139.2</ele>
        <time>2019-07-06T05:09:34Z</time>
      </trkpt>
      <trkpt lat="40.6098880" lon="-1.9666570">
        <ele>1140.2</ele>
        <time>2019-07-06T05:09:36Z</time>
      </trkpt>
      <trkpt lat="40.6098720" lon="-1.9666720">
        <ele>1140.6</ele>
        <time>2019-07-06T05:09:37Z</time>
      </trkpt>
      <trkpt lat="40.6098040" lon="-1.9667190">
        <ele>1141.8</ele>
        <time>2019-07-06T05:09:41Z</time>
      </trkpt>
      <trkpt lat="40.6097790" lon="-1.9667510">
        <ele>1142.4</ele>
        <time>2019-07-06T05:09:43Z</time>
      </trkpt>
      <trkpt lat="40.6097510" lon="-1.9667840">
        <ele>1143.0</ele>
        <time>2019-07-06T05:09:45Z</time>
      </trkpt>
      <trkpt lat="40.6096920" lon="-1.9668330">
        <ele>1144.2</ele>
        <time>2019-07-06T05:09:49Z</time>
      </trkpt>
      <trkpt lat="40.6096770" lon="-1.9668430">
        <ele>1144.4</ele>
        <time>2019-07-06T05:09:50Z</time>
      </trkpt>
      <trkpt lat="40.6096280" lon="-1.9668740">
        <ele>1145.2</ele>
        <time>2019-07-06T05:09:53Z</time>
      </trkpt>
      <trkpt lat="40.6095690" lon="-1.9669390">
        <ele>1146.4</ele>
        <time>2019-07-06T05:09:57Z</time>
      </trkpt>
      <trkpt lat="40.6095530" lon="-1.9669610">
        <ele>1146.6</ele>
        <time>2019-07-06T05:09:58Z</time>
      </trkpt>
      <trkpt lat="40.6094840" lon="-1.9670890">
        <ele>1147.6</ele>
        <time>2019-07-06T05:10:03Z</time>
      </trkpt>
      <trkpt lat="40.6094690" lon="-1.9671100">
        <ele>1148.2</ele>
        <time>2019-07-06T05:10:04Z</time>
      </trkpt>
      <trkpt lat="40.6094170" lon="-1.9671530">
        <ele>1148.8</ele>
        <time>2019-07-06T05:10:07Z</time>
      </trkpt>
      <trkpt lat="40.6093410" lon="-1.9671980">
        <ele>1149.6</ele>
        <time>2019-07-06T05:10:11Z</time>
      </trkpt>
      <trkpt lat="40.6093200" lon="-1.9672070">
        <ele>1149.8</ele>
        <time>2019-07-06T05:10:12Z</time>
      </trkpt>
      <trkpt lat="40.6092260" lon="-1.9672820">
        <ele>1151.2</ele>
        <time>2019-07-06T05:10:17Z</time>
      </trkpt>
      <trkpt lat="40.6091610" lon="-1.9673690">
        <ele>1152.4</ele>
        <time>2019-07-06T05:10:21Z</time>
      </trkpt>
      <trkpt lat="40.6091250" lon="-1.9674100">
        <ele>1152.6</ele>
        <time>2019-07-06T05:10:23Z</time>
      </trkpt>
      <trkpt lat="40.6090540" lon="-1.9674920">
        <ele>1153.4</ele>
        <time>2019-07-06T05:10:27Z</time>
      </trkpt>
      <trkpt lat="40.6090230" lon="-1.9675410">
        <ele>1154.2</ele>
        <time>2019-07-06T05:10:29Z</time>
      </trkpt>
      <trkpt lat="40.6089850" lon="-1.9675770">
        <ele>1154.6</ele>
        <time>2019-07-06T05:10:31Z</time>
      </trkpt>
      <trkpt lat="40.6089720" lon="-1.9675990">
        <ele>1154.8</ele>
        <time>2019-07-06T05:10:32Z</time>
      </trkpt>
      <trkpt lat="40.6089390" lon="-1.9676330">
        <ele>1155.2</ele>
        <time>2019-07-06T05:10:34Z</time>
      </trkpt>
      <trkpt lat="40.6089170" lon="-1.9676450">
        <ele>1155.6</ele>
        <time>2019-07-06T05:10:35Z</time>
      </trkpt>
      <trkpt lat="40.6088600" lon="-1.9676800">
        <ele>1156.6</ele>
        <time>2019-07-06T05:10:38Z</time>
      </trkpt>
      <trkpt lat="40.6088460" lon="-1.9677000">
        <ele>1156.8</ele>
        <time>2019-07-06T05:10:39Z</time>
      </trkpt>
      <trkpt lat="40.6088140" lon="-1.9677380">
        <ele>1157.6</ele>
        <time>2019-07-06T05:10:41Z</time>
      </trkpt>
      <trkpt lat="40.6087570" lon="-1.9678260">
        <ele>1159.0</ele>
        <time>2019-07-06T05:10:45Z</time>
      </trkpt>
      <trkpt lat="40.6087320" lon="-1.9678740">
        <ele>1159.6</ele>
        <time>2019-07-06T05:10:47Z</time>
      </trkpt>
      <trkpt lat="40.6087110" lon="-1.9679230">
        <ele>1160.2</ele>
        <time>2019-07-06T05:10:49Z</time>
      </trkpt>
      <trkpt lat="40.6086740" lon="-1.9680530">
        <ele>1161.4</ele>
        <time>2019-07-06T05:10:54Z</time>
      </trkpt>
      <trkpt lat="40.6086630" lon="-1.9680760">
        <ele>1162.0</ele>
        <time>2019-07-06T05:10:55Z</time>
      </trkpt>
      <trkpt lat="40.6086510" lon="-1.9681020">
        <ele>1162.6</ele>
        <time>2019-07-06T05:10:56Z</time>
      </trkpt>
      <trkpt lat="40.6086230" lon="-1.9682070">
        <ele>1163.6</ele>
        <time>2019-07-06T05:11:00Z</time>
      </trkpt>
      <trkpt lat="40.6086120" lon="-1.9682290">
        <ele>1164.0</ele>
        <time>2019-07-06T05:11:01Z</time>
      </trkpt>
      <trkpt lat="40.6085650" lon="-1.9683500">
        <ele>1165.2</ele>
        <time>2019-07-06T05:11:06Z</time>
      </trkpt>
      <trkpt lat="40.6085610" lon="-1.9683780">
        <ele>1165.4</ele>
        <time>2019-07-06T05:11:07Z</time>
      </trkpt>
      <trkpt lat="40.6085340" lon="-1.9684490">
        <ele>1166.4</ele>
        <time>2019-07-06T05:11:10Z</time>
      </trkpt>
      <trkpt lat="40.6085160" lon="-1.9685530">
        <ele>1167.6</ele>
        <time>2019-07-06T05:11:14Z</time>
      </trkpt>
      <trkpt lat="40.6085190" lon="-1.9686350">
        <ele>1168.8</ele>
        <time>2019-07-06T05:11:17Z</time>
      </trkpt>
      <trkpt lat="40.6085480" lon="-1.9687000">
        <ele>1169.6</ele>
        <time>2019-07-06T05:11:20Z</time>
      </trkpt>
      <trkpt lat="40.6085580" lon="-1.9687200">
        <ele>1169.8</ele>
        <time>2019-07-06T05:11:21Z</time>
      </trkpt>
      <trkpt lat="40.6086050" lon="-1.9687970">
        <ele>1171.2</ele>
        <time>2019-07-06T05:11:25Z</time>
      </trkpt>
      <trkpt lat="40.6086190" lon="-1.9688150">
        <ele>1171.6</ele>
        <time>2019-07-06T05:11:26Z</time>
      </trkpt>
      <trkpt lat="40.6086710" lon="-1.9688670">
        <ele>1172.4</ele>
        <time>2019-07-06T05:11:29Z</time>
      </trkpt>
      <trkpt lat="40.6087620" lon="-1.9689340">
        <ele>1173.2</ele>
        <time>2019-07-06T05:11:33Z</time>
      </trkpt>
      <trkpt lat="40.6087880" lon="-1.9689550">
        <ele>1173.4</ele>
        <time>2019-07-06T05:11:34Z</time>
      </trkpt>
      <trkpt lat="40.6089510" lon="-1.9691010">
        <ele>1174.0</ele>
        <time>2019-07-06T05:11:40Z</time>
      </trkpt>
      <trkpt lat="40.6090470" lon="-1.9693060">
        <ele>1174.2</ele>
        <time>2019-07-06T05:11:45Z</time>
      </trkpt>
      <trkpt lat="40.6091010" lon="-1.9695030">
        <ele>1173.4</ele>
        <time>2019-07-06T05:11:49Z</time>
      </trkpt>
      <trkpt lat="40.6091310" lon="-1.9695330">
        <ele>1173.2</ele>
        <time>2019-07-06T05:11:50Z</time>
      </trkpt>
      <trkpt lat="40.6091700" lon="-1.9695530">
        <ele>1173.2</ele>
        <time>2019-07-06T05:11:51Z</time>
      </trkpt>
      <trkpt lat="40.6093160" lon="-1.9695880">
        <ele>1172.6</ele>
        <time>2019-07-06T05:11:54Z</time>
      </trkpt>
      <trkpt lat="40.6093640" lon="-1.9696050">
        <ele>1172.4</ele>
        <time>2019-07-06T05:11:55Z</time>
      </trkpt>
      <trkpt lat="40.6094080" lon="-1.9696240">
        <ele>1172.2</ele>
        <time>2019-07-06T05:11:56Z</time>
      </trkpt>
      <trkpt lat="40.6094940" lon="-1.9696810">
        <ele>1171.2</ele>
        <time>2019-07-06T05:11:58Z</time>
      </trkpt>
      <trkpt lat="40.6095290" lon="-1.9697210">
        <ele>1170.8</ele>
        <time>2019-07-06T05:11:59Z</time>
      </trkpt>
      <trkpt lat="40.6095590" lon="-1.9697640">
        <ele>1170.2</ele>
        <time>2019-07-06T05:12:00Z</time>
      </trkpt>
      <trkpt lat="40.6096240" lon="-1.9698240">
        <ele>1169.4</ele>
        <time>2019-07-06T05:12:02Z</time>
      </trkpt>
      <trkpt lat="40.6096700" lon="-1.9698390">
        <ele>1169.0</ele>
        <time>2019-07-06T05:12:03Z</time>
      </trkpt>
      <trkpt lat="40.6097830" lon="-1.9698470">
        <ele>1167.4</ele>
        <time>2019-07-06T05:12:05Z</time>
      </trkpt>
      <trkpt lat="40.6099050" lon="-1.9698580">
        <ele>1166.4</ele>
        <time>2019-07-06T05:12:07Z</time>
      </trkpt>
      <trkpt lat="40.6099680" lon="-1.9698730">
        <ele>1165.6</ele>
        <time>2019-07-06T05:12:08Z</time>
      </trkpt>
      <trkpt lat="40.6100300" lon="-1.9698910">
        <ele>1165.0</ele>
        <time>2019-07-06T05:12:09Z</time>
      </trkpt>
      <trkpt lat="40.6101430" lon="-1.9699280">
        <ele>1163.0</ele>
        <time>2019-07-06T05:12:11Z</time>
      </trkpt>
      <trkpt lat="40.6101960" lon="-1.9699460">
        <ele>1161.8</ele>
        <time>2019-07-06T05:12:12Z</time>
      </trkpt>
      <trkpt lat="40.6103020" lon="-1.9699810">
        <ele>1160.2</ele>
        <time>2019-07-06T05:12:14Z</time>
      </trkpt>
      <trkpt lat="40.6104040" lon="-1.9700170">
        <ele>1158.8</ele>
        <time>2019-07-06T05:12:16Z</time>
      </trkpt>
      <trkpt lat="40.6105070" lon="-1.9700500">
        <ele>1157.8</ele>
        <time>2019-07-06T05:12:18Z</time>
      </trkpt>
      <trkpt lat="40.6105560" lon="-1.9700710">
        <ele>1157.2</ele>
        <time>2019-07-06T05:12:19Z</time>
      </trkpt>
      <trkpt lat="40.6105990" lon="-1.9701020">
        <ele>1156.8</ele>
        <time>2019-07-06T05:12:20Z</time>
      </trkpt>
      <trkpt lat="40.6106400" lon="-1.9701330">
        <ele>1156.0</ele>
        <time>2019-07-06T05:12:21Z</time>
      </trkpt>
      <trkpt lat="40.6107200" lon="-1.9701670">
        <ele>1154.8</ele>
        <time>2019-07-06T05:12:23Z</time>
      </trkpt>
      <trkpt lat="40.6107600" lon="-1.9701610">
        <ele>1154.4</ele>
        <time>2019-07-06T05:12:24Z</time>
      </trkpt>
      <trkpt lat="40.6108030" lon="-1.9701450">
        <ele>1153.8</ele>
        <time>2019-07-06T05:12:25Z</time>
      </trkpt>
      <trkpt lat="40.6108540" lon="-1.9701250">
        <ele>1153.2</ele>
        <time>2019-07-06T05:12:26Z</time>
      </trkpt>
      <trkpt lat="40.6109760" lon="-1.9700970">
        <ele>1152.0</ele>
        <time>2019-07-06T05:12:28Z</time>
      </trkpt>
      <trkpt lat="40.6111120" lon="-1.9701140">
        <ele>1150.6</ele>
        <time>2019-07-06T05:12:30Z</time>
      </trkpt>
      <trkpt lat="40.6112420" lon="-1.9701650">
        <ele>1148.8</ele>
        <time>2019-07-06T05:12:32Z</time>
      </trkpt>
      <trkpt lat="40.6113010" lon="-1.9701970">
        <ele>1148.0</ele>
        <time>2019-07-06T05:12:33Z</time>
      </trkpt>
      <trkpt lat="40.6113570" lon="-1.9702200">
        <ele>1147.2</ele>
        <time>2019-07-06T05:12:34Z</time>
      </trkpt>
      <trkpt lat="40.6114720" lon="-1.9702300">
        <ele>1146.0</ele>
        <time>2019-07-06T05:12:36Z</time>
      </trkpt>
      <trkpt lat="40.6115920" lon="-1.9701890">
        <ele>1144.6</ele>
        <time>2019-07-06T05:12:38Z</time>
      </trkpt>
      <trkpt lat="40.6117180" lon="-1.9701320">
        <ele>1143.8</ele>
        <time>2019-07-06T05:12:40Z</time>
      </trkpt>
      <trkpt lat="40.6117760" lon="-1.9701070">
        <ele>1143.0</ele>
        <time>2019-07-06T05:12:41Z</time>
      </trkpt>
      <trkpt lat="40.6118330" lon="-1.9700760">
        <ele>1142.6</ele>
        <time>2019-07-06T05:12:42Z</time>
      </trkpt>
      <trkpt lat="40.6118900" lon="-1.9700410">
        <ele>1142.0</ele>
        <time>2019-07-06T05:12:43Z</time>
      </trkpt>
      <trkpt lat="40.6120070" lon="-1.9699580">
        <ele>1140.6</ele>
        <time>2019-07-06T05:12:45Z</time>
      </trkpt>
      <trkpt lat="40.6120700" lon="-1.9699140">
        <ele>1140.0</ele>
        <time>2019-07-06T05:12:46Z</time>
      </trkpt>
      <trkpt lat="40.6121360" lon="-1.9698760">
        <ele>1139.4</ele>
        <time>2019-07-06T05:12:47Z</time>
      </trkpt>
      <trkpt lat="40.6122020" lon="-1.9698390">
        <ele>1138.4</ele>
        <time>2019-07-06T05:12:48Z</time>
      </trkpt>
      <trkpt lat="40.6122660" lon="-1.9697960">
        <ele>1137.4</ele>
        <time>2019-07-06T05:12:49Z</time>
      </trkpt>
      <trkpt lat="40.6123250" lon="-1.9697530">
        <ele>1136.8</ele>
        <time>2019-07-06T05:12:50Z</time>
      </trkpt>
      <trkpt lat="40.6124440" lon="-1.9696570">
        <ele>1135.8</ele>
        <time>2019-07-06T05:12:52Z</time>
      </trkpt>
      <trkpt lat="40.6125070" lon="-1.9696070">
        <ele>1134.8</ele>
        <time>2019-07-06T05:12:53Z</time>
      </trkpt>
      <trkpt lat="40.6125670" lon="-1.9695600">
        <ele>1134.2</ele>
        <time>2019-07-06T05:12:54Z</time>
      </trkpt>
      <trkpt lat="40.6126230" lon="-1.9695090">
        <ele>1133.6</ele>
        <time>2019-07-06T05:12:55Z</time>
      </trkpt>
      <trkpt lat="40.6126690" lon="-1.9694560">
        <ele>1133.2</ele>
        <time>2019-07-06T05:12:56Z</time>
      </trkpt>
      <trkpt lat="40.6127600" lon="-1.9693410">
        <ele>1132.2</ele>
        <time>2019-07-06T05:12:58Z</time>
      </trkpt>
      <trkpt lat="40.6128670" lon="-1.9692240">
        <ele>1130.8</ele>
        <time>2019-07-06T05:13:00Z</time>
      </trkpt>
      <trkpt lat="40.6129900" lon="-1.9691070">
        <ele>1129.8</ele>
        <time>2019-07-06T05:13:02Z</time>
      </trkpt>
      <trkpt lat="40.6130570" lon="-1.9690520">
        <ele>1129.2</ele>
        <time>2019-07-06T05:13:03Z</time>
      </trkpt>
      <trkpt lat="40.6131230" lon="-1.9690020">
        <ele>1128.4</ele>
        <time>2019-07-06T05:13:04Z</time>
      </trkpt>
      <trkpt lat="40.6131910" lon="-1.9689610">
        <ele>1127.8</ele>
        <time>2019-07-06T05:13:05Z</time>
      </trkpt>
      <trkpt lat="40.6132610" lon="-1.9689280">
        <ele>1127.2</ele>
        <time>2019-07-06T05:13:06Z</time>
      </trkpt>
      <trkpt lat="40.6133330" lon="-1.9689050">
        <ele>1126.8</ele>
        <time>2019-07-06T05:13:07Z</time>
      </trkpt>
      <trkpt lat="40.6133990" lon="-1.9688850">
        <ele>1126.2</ele>
        <time>2019-07-06T05:13:08Z</time>
      </trkpt>
      <trkpt lat="40.6134660" lon="-1.9688710">
        <ele>1125.6</ele>
        <time>2019-07-06T05:13:09Z</time>
      </trkpt>
      <trkpt lat="40.6135370" lon="-1.9688640">
        <ele>1125.0</ele>
        <time>2019-07-06T05:13:10Z</time>
      </trkpt>
      <trkpt lat="40.6135850" lon="-1.9688750">
        <ele>1124.2</ele>
        <time>2019-07-06T05:13:11Z</time>
      </trkpt>
      <trkpt lat="40.6136330" lon="-1.9688870">
        <ele>1123.8</ele>
        <time>2019-07-06T05:13:12Z</time>
      </trkpt>
      <trkpt lat="40.6138250" lon="-1.9689330">
        <ele>1122.6</ele>
        <time>2019-07-06T05:13:14Z</time>
      </trkpt>
      <trkpt lat="40.6139530" lon="-1.9690260">
        <ele>1121.4</ele>
        <time>2019-07-06T05:13:16Z</time>
      </trkpt>
      <trkpt lat="40.6140650" lon="-1.9691520">
        <ele>1120.8</ele>
        <time>2019-07-06T05:13:18Z</time>
      </trkpt>
      <trkpt lat="40.6141530" lon="-1.9693020">
        <ele>1120.4</ele>
        <time>2019-07-06T05:13:20Z</time>
      </trkpt>
      <trkpt lat="40.6142090" lon="-1.9694630">
        <ele>1120.0</ele>
        <time>2019-07-06T05:13:22Z</time>
      </trkpt>
      <trkpt lat="40.6142230" lon="-1.9695090">
        <ele>1119.8</ele>
        <time>2019-07-06T05:13:23Z</time>
      </trkpt>
      <trkpt lat="40.6142360" lon="-1.9695560">
        <ele>1119.8</ele>
        <time>2019-07-06T05:13:24Z</time>
      </trkpt>
      <trkpt lat="40.6143420" lon="-1.9699300">
        <ele>1119.8</ele>
        <time>2019-07-06T05:13:28Z</time>
      </trkpt>
      <trkpt lat="40.6144860" lon="-1.9703540">
        <ele>1119.4</ele>
        <time>2019-07-06T05:13:34Z</time>
      </trkpt>
      <trkpt lat="40.6145110" lon="-1.9704230">
        <ele>1119.4</ele>
        <time>2019-07-06T05:13:35Z</time>
      </trkpt>
      <trkpt lat="40.6146160" lon="-1.9706770">
        <ele>1119.6</ele>
        <time>2019-07-06T05:13:39Z</time>
      </trkpt>
      <trkpt lat="40.6146460" lon="-1.9707330">
        <ele>1119.8</ele>
        <time>2019-07-06T05:13:40Z</time>
      </trkpt>
      <trkpt lat="40.6148200" lon="-1.9710810">
        <ele>1120.4</ele>
        <time>2019-07-06T05:13:46Z</time>
      </trkpt>
      <trkpt lat="40.6150490" lon="-1.9715140">
        <ele>1121.0</ele>
        <time>2019-07-06T05:13:54Z</time>
      </trkpt>
      <trkpt lat="40.6151340" lon="-1.9716710">
        <ele>1121.4</ele>
        <time>2019-07-06T05:13:57Z</time>
      </trkpt>
      <trkpt lat="40.6152190" lon="-1.9718180">
        <ele>1122.2</ele>
        <time>2019-07-06T05:14:00Z</time>
      </trkpt>
      <trkpt lat="40.6152480" lon="-1.9718650">
        <ele>1122.4</ele>
        <time>2019-07-06T05:14:01Z</time>
      </trkpt>
      <trkpt lat="40.6152760" lon="-1.9719080">
        <ele>1122.6</ele>
        <time>2019-07-06T05:14:02Z</time>
      </trkpt>
      <trkpt lat="40.6153470" lon="-1.9719840">
        <ele>1122.8</ele>
        <time>2019-07-06T05:14:05Z</time>
      </trkpt>
      <trkpt lat="40.6154240" lon="-1.9720440">
        <ele>1123.0</ele>
        <time>2019-07-06T05:14:06Z</time>
      </trkpt>
      <trkpt lat="40.6155810" lon="-1.9721470">
        <ele>1119.4</ele>
        <time>2019-07-06T05:14:10Z</time>
      </trkpt>
      <trkpt lat="40.6156180" lon="-1.9721680">
        <ele>1123.4</ele>
        <time>2019-07-06T05:14:11Z</time>
      </trkpt>
      <trkpt lat="40.6158620" lon="-1.9722600">
        <ele>1123.4</ele>
        <time>2019-07-06T05:14:16Z</time>
      </trkpt>
      <trkpt lat="40.6159700" lon="-1.9722810">
        <ele>1123.4</ele>
        <time>2019-07-06T05:14:18Z</time>
      </trkpt>
      <trkpt lat="40.6161970" lon="-1.9722850">
        <ele>1122.8</ele>
        <time>2019-07-06T05:14:22Z</time>
      </trkpt>
      <trkpt lat="40.6162450" lon="-1.9722760">
        <ele>1122.2</ele>
        <time>2019-07-06T05:14:23Z</time>
      </trkpt>
      <trkpt lat="40.6163430" lon="-1.9722450">
        <ele>1121.6</ele>
        <time>2019-07-06T05:14:25Z</time>
      </trkpt>
      <trkpt lat="40.6163990" lon="-1.9722200">
        <ele>1121.6</ele>
        <time>2019-07-06T05:14:26Z</time>
      </trkpt>
      <trkpt lat="40.6164540" lon="-1.9721910">
        <ele>1121.4</ele>
        <time>2019-07-06T05:14:27Z</time>
      </trkpt>
      <trkpt lat="40.6166290" lon="-1.9720770">
        <ele>1120.6</ele>
        <time>2019-07-06T05:14:30Z</time>
      </trkpt>
      <trkpt lat="40.6167470" lon="-1.9719930">
        <ele>1118.8</ele>
        <time>2019-07-06T05:14:32Z</time>
      </trkpt>
      <trkpt lat="40.6168660" lon="-1.9719120">
        <ele>1117.8</ele>
        <time>2019-07-06T05:14:34Z</time>
      </trkpt>
      <trkpt lat="40.6170500" lon="-1.9717680">
        <ele>1116.2</ele>
        <time>2019-07-06T05:14:37Z</time>
      </trkpt>
      <trkpt lat="40.6171070" lon="-1.9717080">
        <ele>1115.6</ele>
        <time>2019-07-06T05:14:38Z</time>
      </trkpt>
      <trkpt lat="40.6171530" lon="-1.9716390">
        <ele>1115.0</ele>
        <time>2019-07-06T05:14:39Z</time>
      </trkpt>
      <trkpt lat="40.6172300" lon="-1.9714810">
        <ele>1114.4</ele>
        <time>2019-07-06T05:14:41Z</time>
      </trkpt>
      <trkpt lat="40.6173270" lon="-1.9712620">
        <ele>1113.8</ele>
        <time>2019-07-06T05:14:44Z</time>
      </trkpt>
      <trkpt lat="40.6173900" lon="-1.9711250">
        <ele>1113.8</ele>
        <time>2019-07-06T05:14:46Z</time>
      </trkpt>
      <trkpt lat="40.6175920" lon="-1.9707470">
        <ele>1114.8</ele>
        <time>2019-07-06T05:14:52Z</time>
      </trkpt>
      <trkpt lat="40.6176390" lon="-1.9706940">
        <ele>1114.6</ele>
        <time>2019-07-06T05:14:53Z</time>
      </trkpt>
      <trkpt lat="40.6177950" lon="-1.9705640">
        <ele>1114.0</ele>
        <time>2019-07-06T05:14:56Z</time>
      </trkpt>
      <trkpt lat="40.6178550" lon="-1.9705320">
        <ele>1113.8</ele>
        <time>2019-07-06T05:14:57Z</time>
      </trkpt>
      <trkpt lat="40.6180350" lon="-1.9705140">
        <ele>1114.0</ele>
        <time>2019-07-06T05:15:00Z</time>
      </trkpt>
      <trkpt lat="40.6180930" lon="-1.9705320">
        <ele>1114.0</ele>
        <time>2019-07-06T05:15:01Z</time>
      </trkpt>
      <trkpt lat="40.6182400" lon="-1.9706320">
        <ele>1114.0</ele>
        <time>2019-07-06T05:15:04Z</time>
      </trkpt>
      <trkpt lat="40.6182790" lon="-1.9706640">
        <ele>1114.2</ele>
        <time>2019-07-06T05:15:05Z</time>
      </trkpt>
      <trkpt lat="40.6183120" lon="-1.9706980">
        <ele>1114.4</ele>
        <time>2019-07-06T05:15:06Z</time>
      </trkpt>
      <trkpt lat="40.6183670" lon="-1.9707810">
        <ele>1115.0</ele>
        <time>2019-07-06T05:15:08Z</time>
      </trkpt>
      <trkpt lat="40.6184080" lon="-1.9708650">
        <ele>1116.0</ele>
        <time>2019-07-06T05:15:10Z</time>
      </trkpt>
      <trkpt lat="40.6184080" lon="-1.9708650">
        <ele>1116.2</ele>
        <time>2019-07-06T05:15:11Z</time>
      </trkpt>
      <trkpt lat="40.6184710" lon="-1.9710330">
        <ele>1117.4</ele>
        <time>2019-07-06T05:15:14Z</time>
      </trkpt>
      <trkpt lat="40.6184780" lon="-1.9711610">
        <ele>1118.2</ele>
        <time>2019-07-06T05:15:17Z</time>
      </trkpt>
      <trkpt lat="40.6184750" lon="-1.9711970">
        <ele>1118.8</ele>
        <time>2019-07-06T05:15:18Z</time>
      </trkpt>
      <trkpt lat="40.6184690" lon="-1.9712970">
        <ele>1119.6</ele>
        <time>2019-07-06T05:15:21Z</time>
      </trkpt>
      <trkpt lat="40.6184670" lon="-1.9713270">
        <ele>1120.0</ele>
        <time>2019-07-06T05:15:22Z</time>
      </trkpt>
      <trkpt lat="40.6184600" lon="-1.9713870">
        <ele>1120.6</ele>
        <time>2019-07-06T05:15:24Z</time>
      </trkpt>
      <trkpt lat="40.6184630" lon="-1.9714870">
        <ele>1121.4</ele>
        <time>2019-07-06T05:15:27Z</time>
      </trkpt>
      <trkpt lat="40.6184630" lon="-1.9715200">
        <ele>1122.2</ele>
        <time>2019-07-06T05:15:29Z</time>
      </trkpt>
      <trkpt lat="40.6184680" lon="-1.9715800">
        <ele>1122.6</ele>
        <time>2019-07-06T05:15:30Z</time>
      </trkpt>
      <trkpt lat="40.6184850" lon="-1.9716700">
        <ele>1123.2</ele>
        <time>2019-07-06T05:15:33Z</time>
      </trkpt>
      <trkpt lat="40.6184920" lon="-1.9717000">
        <ele>1123.6</ele>
        <time>2019-07-06T05:15:34Z</time>
      </trkpt>
      <trkpt lat="40.6185270" lon="-1.9718220">
        <ele>1124.6</ele>
        <time>2019-07-06T05:15:38Z</time>
      </trkpt>
      <trkpt lat="40.6185520" lon="-1.9719510">
        <ele>1125.2</ele>
        <time>2019-07-06T05:15:42Z</time>
      </trkpt>
      <trkpt lat="40.6185730" lon="-1.9720810">
        <ele>1125.8</ele>
        <time>2019-07-06T05:15:46Z</time>
      </trkpt>
      <trkpt lat="40.6185920" lon="-1.9721450">
        <ele>1126.2</ele>
        <time>2019-07-06T05:15:48Z</time>
      </trkpt>
      <trkpt lat="40.6186110" lon="-1.9722550">
        <ele>1127.0</ele>
        <time>2019-07-06T05:15:51Z</time>
      </trkpt>
      <trkpt lat="40.6186560" lon="-1.9723960">
        <ele>1127.4</ele>
        <time>2019-07-06T05:15:55Z</time>
      </trkpt>
      <trkpt lat="40.6187140" lon="-1.9725450">
        <ele>1128.0</ele>
        <time>2019-07-06T05:15:59Z</time>
      </trkpt>
      <trkpt lat="40.6187610" lon="-1.9726690">
        <ele>1128.2</ele>
        <time>2019-07-06T05:16:02Z</time>
      </trkpt>
      <trkpt lat="40.6188430" lon="-1.9729430">
        <ele>1128.6</ele>
        <time>2019-07-06T05:16:08Z</time>
      </trkpt>
      <trkpt lat="40.6188580" lon="-1.9729920">
        <ele>1128.6</ele>
        <time>2019-07-06T05:16:09Z</time>
      </trkpt>
      <trkpt lat="40.6188730" lon="-1.9730440">
        <ele>1128.8</ele>
        <time>2019-07-06T05:16:10Z</time>
      </trkpt>
      <trkpt lat="40.6189260" lon="-1.9732660">
        <ele>1128.8</ele>
        <time>2019-07-06T05:16:14Z</time>
      </trkpt>
      <trkpt lat="40.6189500" lon="-1.9734390">
        <ele>1128.8</ele>
        <time>2019-07-06T05:16:17Z</time>
      </trkpt>
      <trkpt lat="40.6189890" lon="-1.9736050">
        <ele>1128.8</ele>
        <time>2019-07-06T05:16:20Z</time>
      </trkpt>
      <trkpt lat="40.6190200" lon="-1.9737230">
        <ele>1128.8</ele>
        <time>2019-07-06T05:16:22Z</time>
      </trkpt>
      <trkpt lat="40.6190260" lon="-1.9737870">
        <ele>1128.6</ele>
        <time>2019-07-06T05:16:23Z</time>
      </trkpt>
      <trkpt lat="40.6190230" lon="-1.9739220">
        <ele>1128.2</ele>
        <time>2019-07-06T05:16:25Z</time>
      </trkpt>
      <trkpt lat="40.6190250" lon="-1.9740580">
        <ele>1128.0</ele>
        <time>2019-07-06T05:16:27Z</time>
      </trkpt>
      <trkpt lat="40.6190340" lon="-1.9741270">
        <ele>1127.6</ele>
        <time>2019-07-06T05:16:29Z</time>
      </trkpt>
      <trkpt lat="40.6190690" lon="-1.9742570">
        <ele>1127.4</ele>
        <time>2019-07-06T05:16:30Z</time>
      </trkpt>
      <trkpt lat="40.6191500" lon="-1.9744360">
        <ele>1126.8</ele>
        <time>2019-07-06T05:16:33Z</time>
      </trkpt>
      <trkpt lat="40.6191760" lon="-1.9745100">
        <ele>1126.4</ele>
        <time>2019-07-06T05:16:35Z</time>
      </trkpt>
      <trkpt lat="40.6192040" lon="-1.9746240">
        <ele>1125.6</ele>
        <time>2019-07-06T05:16:36Z</time>
      </trkpt>
      <trkpt lat="40.6192600" lon="-1.9748510">
        <ele>1124.6</ele>
        <time>2019-07-06T05:16:38Z</time>
      </trkpt>
      <trkpt lat="40.6192840" lon="-1.9749390">
        <ele>1124.4</ele>
        <time>2019-07-06T05:16:39Z</time>
      </trkpt>
      <trkpt lat="40.6193150" lon="-1.9750220">
        <ele>1124.2</ele>
        <time>2019-07-06T05:16:40Z</time>
      </trkpt>
      <trkpt lat="40.6193940" lon="-1.9751600">
        <ele>1123.8</ele>
        <time>2019-07-06T05:16:42Z</time>
      </trkpt>
      <trkpt lat="40.6194480" lon="-1.9752090">
        <ele>1123.8</ele>
        <time>2019-07-06T05:16:43Z</time>
      </trkpt>
      <trkpt lat="40.6197010" lon="-1.9753080">
        <ele>1123.4</ele>
        <time>2019-07-06T05:16:47Z</time>
      </trkpt>
      <trkpt lat="40.6197650" lon="-1.9753210">
        <ele>1123.0</ele>
        <time>2019-07-06T05:16:48Z</time>
      </trkpt>
      <trkpt lat="40.6198900" lon="-1.9753390">
        <ele>1122.8</ele>
        <time>2019-07-06T05:16:50Z</time>
      </trkpt>
      <trkpt lat="40.6200090" lon="-1.9753660">
        <ele>1122.6</ele>
        <time>2019-07-06T05:16:52Z</time>
      </trkpt>
      <trkpt lat="40.6203490" lon="-1.9755010">
        <ele>1122.8</ele>
        <time>2019-07-06T05:16:58Z</time>
      </trkpt>
      <trkpt lat="40.6204560" lon="-1.9755320">
        <ele>1122.8</ele>
        <time>2019-07-06T05:17:00Z</time>
      </trkpt>
      <trkpt lat="40.6205730" lon="-1.9755230">
        <ele>1122.8</ele>
        <time>2019-07-06T05:17:02Z</time>
      </trkpt>
      <trkpt lat="40.6206930" lon="-1.9754780">
        <ele>1122.8</ele>
        <time>2019-07-06T05:17:04Z</time>
      </trkpt>
      <trkpt lat="40.6208740" lon="-1.9753910">
        <ele>1122.0</ele>
        <time>2019-07-06T05:17:07Z</time>
      </trkpt>
      <trkpt lat="40.6209390" lon="-1.9753580">
        <ele>1121.8</ele>
        <time>2019-07-06T05:17:08Z</time>
      </trkpt>
      <trkpt lat="40.6210790" lon="-1.9753030">
        <ele>1121.0</ele>
        <time>2019-07-06T05:17:10Z</time>
      </trkpt>
      <trkpt lat="40.6212260" lon="-1.9752490">
        <ele>1119.6</ele>
        <time>2019-07-06T05:17:12Z</time>
      </trkpt>
      <trkpt lat="40.6216770" lon="-1.9750940">
        <ele>1118.2</ele>
        <time>2019-07-06T05:17:18Z</time>
      </trkpt>
      <trkpt lat="40.6218600" lon="-1.9750270">
        <ele>1117.2</ele>
        <time>2019-07-06T05:17:21Z</time>
      </trkpt>
      <trkpt lat="40.6219150" lon="-1.9749970">
        <ele>1116.8</ele>
        <time>2019-07-06T05:17:22Z</time>
      </trkpt>
      <trkpt lat="40.6219710" lon="-1.9749670">
        <ele>1116.6</ele>
        <time>2019-07-06T05:17:23Z</time>
      </trkpt>
      <trkpt lat="40.6220780" lon="-1.9749020">
        <ele>1116.2</ele>
        <time>2019-07-06T05:17:25Z</time>
      </trkpt>
      <trkpt lat="40.6221250" lon="-1.9748640">
        <ele>1115.6</ele>
        <time>2019-07-06T05:17:26Z</time>
      </trkpt>
      <trkpt lat="40.6222220" lon="-1.9747910">
        <ele>1114.6</ele>
        <time>2019-07-06T05:17:28Z</time>
      </trkpt>
      <trkpt lat="40.6223390" lon="-1.9747430">
        <ele>1113.4</ele>
        <time>2019-07-06T05:17:30Z</time>
      </trkpt>
      <trkpt lat="40.6224010" lon="-1.9747330">
        <ele>1113.0</ele>
        <time>2019-07-06T05:17:31Z</time>
      </trkpt>
      <trkpt lat="40.6224660" lon="-1.9747320">
        <ele>1112.8</ele>
        <time>2019-07-06T05:17:32Z</time>
      </trkpt>
      <trkpt lat="40.6226090" lon="-1.9747400">
        <ele>1112.2</ele>
        <time>2019-07-06T05:17:34Z</time>
      </trkpt>
      <trkpt lat="40.6228150" lon="-1.9747500">
        <ele>1111.2</ele>
        <time>2019-07-06T05:17:37Z</time>
      </trkpt>
      <trkpt lat="40.6229480" lon="-1.9747460">
        <ele>1110.8</ele>
        <time>2019-07-06T05:17:39Z</time>
      </trkpt>
      <trkpt lat="40.6230130" lon="-1.9747490">
        <ele>1110.6</ele>
        <time>2019-07-06T05:17:40Z</time>
      </trkpt>
      <trkpt lat="40.6231870" lon="-1.9747990">
        <ele>1110.2</ele>
        <time>2019-07-06T05:17:43Z</time>
      </trkpt>
      <trkpt lat="40.6233580" lon="-1.9748550">
        <ele>1110.2</ele>
        <time>2019-07-06T05:17:46Z</time>
      </trkpt>
      <trkpt lat="40.6235090" lon="-1.9749200">
        <ele>1110.8</ele>
        <time>2019-07-06T05:17:49Z</time>
      </trkpt>
      <trkpt lat="40.6235550" lon="-1.9749460">
        <ele>1111.2</ele>
        <time>2019-07-06T05:17:50Z</time>
      </trkpt>
      <trkpt lat="40.6235980" lon="-1.9749730">
        <ele>1111.4</ele>
        <time>2019-07-06T05:17:51Z</time>
      </trkpt>
      <trkpt lat="40.6237090" lon="-1.9750590">
        <ele>1112.2</ele>
        <time>2019-07-06T05:17:54Z</time>
      </trkpt>
      <trkpt lat="40.6237420" lon="-1.9750970">
        <ele>1112.2</ele>
        <time>2019-07-06T05:17:55Z</time>
      </trkpt>
      <trkpt lat="40.6238060" lon="-1.9751730">
        <ele>1112.2</ele>
        <time>2019-07-06T05:17:57Z</time>
      </trkpt>
      <trkpt lat="40.6238360" lon="-1.9752120">
        <ele>1112.6</ele>
        <time>2019-07-06T05:17:58Z</time>
      </trkpt>
      <trkpt lat="40.6239270" lon="-1.9753420">
        <ele>1113.0</ele>
        <time>2019-07-06T05:18:01Z</time>
      </trkpt>
      <trkpt lat="40.6239540" lon="-1.9753880">
        <ele>1113.2</ele>
        <time>2019-07-06T05:18:02Z</time>
      </trkpt>
      <trkpt lat="40.6240940" lon="-1.9756110">
        <ele>1113.8</ele>
        <time>2019-07-06T05:18:07Z</time>
      </trkpt>
      <trkpt lat="40.6241410" lon="-1.9756980">
        <ele>1114.2</ele>
        <time>2019-07-06T05:18:09Z</time>
      </trkpt>
      <trkpt lat="40.6242150" lon="-1.9758620">
        <ele>1114.8</ele>
        <time>2019-07-06T05:18:13Z</time>
      </trkpt>
      <trkpt lat="40.6242320" lon="-1.9759020">
        <ele>1115.4</ele>
        <time>2019-07-06T05:18:14Z</time>
      </trkpt>
      <trkpt lat="40.6242650" lon="-1.9759840">
        <ele>1116.0</ele>
        <time>2019-07-06T05:18:16Z</time>
      </trkpt>
      <trkpt lat="40.6243020" lon="-1.9761070">
        <ele>1117.2</ele>
        <time>2019-07-06T05:18:19Z</time>
      </trkpt>
      <trkpt lat="40.6243110" lon="-1.9761490">
        <ele>1117.4</ele>
        <time>2019-07-06T05:18:20Z</time>
      </trkpt>
      <trkpt lat="40.6243310" lon="-1.9762370">
        <ele>1117.8</ele>
        <time>2019-07-06T05:18:22Z</time>
      </trkpt>
      <trkpt lat="40.6243380" lon="-1.9763270">
        <ele>1118.2</ele>
        <time>2019-07-06T05:18:24Z</time>
      </trkpt>
      <trkpt lat="40.6243310" lon="-1.9764210">
        <ele>1118.4</ele>
        <time>2019-07-06T05:18:26Z</time>
      </trkpt>
      <trkpt lat="40.6243190" lon="-1.9765590">
        <ele>1119.6</ele>
        <time>2019-07-06T05:18:29Z</time>
      </trkpt>
      <trkpt lat="40.6243040" lon="-1.9766470">
        <ele>1120.0</ele>
        <time>2019-07-06T05:18:31Z</time>
      </trkpt>
      <trkpt lat="40.6242540" lon="-1.9768420">
        <ele>1120.8</ele>
        <time>2019-07-06T05:18:36Z</time>
      </trkpt>
      <trkpt lat="40.6242430" lon="-1.9768810">
        <ele>1121.0</ele>
        <time>2019-07-06T05:18:37Z</time>
      </trkpt>
      <trkpt lat="40.6242070" lon="-1.9770070">
        <ele>1122.0</ele>
        <time>2019-07-06T05:18:41Z</time>
      </trkpt>
      <trkpt lat="40.6241500" lon="-1.9772120">
        <ele>1123.0</ele>
        <time>2019-07-06T05:18:45Z</time>
      </trkpt>
      <trkpt lat="40.6241400" lon="-1.9772520">
        <ele>1123.4</ele>
        <time>2019-07-06T05:18:46Z</time>
      </trkpt>
      <trkpt lat="40.6241120" lon="-1.9773710">
        <ele>1124.2</ele>
        <time>2019-07-06T05:18:49Z</time>
      </trkpt>
      <trkpt lat="40.6240900" lon="-1.9775890">
        <ele>1124.4</ele>
        <time>2019-07-06T05:18:54Z</time>
      </trkpt>
      <trkpt lat="40.6241330" lon="-1.9778660">
        <ele>1125.2</ele>
        <time>2019-07-06T05:19:00Z</time>
      </trkpt>
      <trkpt lat="40.6241460" lon="-1.9779110">
        <ele>1125.4</ele>
        <time>2019-07-06T05:19:01Z</time>
      </trkpt>
      <trkpt lat="40.6242620" lon="-1.9781610">
        <ele>1125.6</ele>
        <time>2019-07-06T05:19:07Z</time>
      </trkpt>
      <trkpt lat="40.6243320" lon="-1.9782070">
        <ele>1125.4</ele>
        <time>2019-07-06T05:19:09Z</time>
      </trkpt>
      <trkpt lat="40.6244170" lon="-1.9782210">
        <ele>1125.4</ele>
        <time>2019-07-06T05:19:11Z</time>
      </trkpt>
      <trkpt lat="40.6245080" lon="-1.9781890">
        <ele>1124.8</ele>
        <time>2019-07-06T05:19:13Z</time>
      </trkpt>
      <trkpt lat="40.6245920" lon="-1.9781200">
        <ele>1124.4</ele>
        <time>2019-07-06T05:19:15Z</time>
      </trkpt>
      <trkpt lat="40.6247280" lon="-1.9779330">
        <ele>1124.6</ele>
        <time>2019-07-06T05:19:19Z</time>
      </trkpt>
      <trkpt lat="40.6248770" lon="-1.9777640">
        <ele>1124.8</ele>
        <time>2019-07-06T05:19:23Z</time>
      </trkpt>
      <trkpt lat="40.6249150" lon="-1.9777090">
        <ele>1124.8</ele>
        <time>2019-07-06T05:19:24Z</time>
      </trkpt>
      <trkpt lat="40.6249490" lon="-1.9776450">
        <ele>1124.8</ele>
        <time>2019-07-06T05:19:25Z</time>
      </trkpt>
      <trkpt lat="40.6250060" lon="-1.9774960">
        <ele>1124.0</ele>
        <time>2019-07-06T05:19:27Z</time>
      </trkpt>
      <trkpt lat="40.6250330" lon="-1.9774170">
        <ele>1123.6</ele>
        <time>2019-07-06T05:19:28Z</time>
      </trkpt>
      <trkpt lat="40.6250640" lon="-1.9773360">
        <ele>1123.6</ele>
        <time>2019-07-06T05:19:29Z</time>
      </trkpt>
      <trkpt lat="40.6250920" lon="-1.9772540">
        <ele>1123.4</ele>
        <time>2019-07-06T05:19:30Z</time>
      </trkpt>
      <trkpt lat="40.6251150" lon="-1.9771660">
        <ele>1122.6</ele>
        <time>2019-07-06T05:19:31Z</time>
      </trkpt>
      <trkpt lat="40.6251560" lon="-1.9769850">
        <ele>1121.8</ele>
        <time>2019-07-06T05:19:33Z</time>
      </trkpt>
      <trkpt lat="40.6252020" lon="-1.9768030">
        <ele>1121.4</ele>
        <time>2019-07-06T05:19:35Z</time>
      </trkpt>
      <trkpt lat="40.6252190" lon="-1.9767090">
        <ele>1121.4</ele>
        <time>2019-07-06T05:19:36Z</time>
      </trkpt>
      <trkpt lat="40.6252410" lon="-1.9765150">
        <ele>1121.4</ele>
        <time>2019-07-06T05:19:38Z</time>
      </trkpt>
      <trkpt lat="40.6253010" lon="-1.9762170">
        <ele>1120.2</ele>
        <time>2019-07-06T05:19:41Z</time>
      </trkpt>
      <trkpt lat="40.6253810" lon="-1.9759210">
        <ele>1119.2</ele>
        <time>2019-07-06T05:19:44Z</time>
      </trkpt>
      <trkpt lat="40.6254840" lon="-1.9756620">
        <ele>1118.8</ele>
        <time>2019-07-06T05:19:47Z</time>
      </trkpt>
      <trkpt lat="40.6255790" lon="-1.9754310">
        <ele>1119.0</ele>
        <time>2019-07-06T05:19:50Z</time>
      </trkpt>
      <trkpt lat="40.6256090" lon="-1.9753600">
        <ele>1119.0</ele>
        <time>2019-07-06T05:19:51Z</time>
      </trkpt>
      <trkpt lat="40.6257300" lon="-1.9751910">
        <ele>1118.8</ele>
        <time>2019-07-06T05:19:54Z</time>
      </trkpt>
      <trkpt lat="40.6257700" lon="-1.9751420">
        <ele>1118.8</ele>
        <time>2019-07-06T05:19:55Z</time>
      </trkpt>
      <trkpt lat="40.6258450" lon="-1.9750400">
        <ele>1119.0</ele>
        <time>2019-07-06T05:19:57Z</time>
      </trkpt>
      <trkpt lat="40.6259430" lon="-1.9748690">
        <ele>1119.4</ele>
        <time>2019-07-06T05:20:00Z</time>
      </trkpt>
      <trkpt lat="40.6259720" lon="-1.9748090">
        <ele>1119.4</ele>
        <time>2019-07-06T05:20:01Z</time>
      </trkpt>
      <trkpt lat="40.6260020" lon="-1.9747540">
        <ele>1119.2</ele>
        <time>2019-07-06T05:20:02Z</time>
      </trkpt>
      <trkpt lat="40.6261100" lon="-1.9746230">
        <ele>1119.8</ele>
        <time>2019-07-06T05:20:05Z</time>
      </trkpt>
      <trkpt lat="40.6262050" lon="-1.9745090">
        <ele>1120.2</ele>
        <time>2019-07-06T05:20:08Z</time>
      </trkpt>
      <trkpt lat="40.6262320" lon="-1.9744670">
        <ele>1120.4</ele>
        <time>2019-07-06T05:20:09Z</time>
      </trkpt>
      <trkpt lat="40.6262540" lon="-1.9744200">
        <ele>1120.4</ele>
        <time>2019-07-06T05:20:10Z</time>
      </trkpt>
      <trkpt lat="40.6262660" lon="-1.9743680">
        <ele>1120.8</ele>
        <time>2019-07-06T05:20:11Z</time>
      </trkpt>
      <trkpt lat="40.6262480" lon="-1.9742020">
        <ele>1121.4</ele>
        <time>2019-07-06T05:20:14Z</time>
      </trkpt>
      <trkpt lat="40.6262310" lon="-1.9741490">
        <ele>1121.6</ele>
        <time>2019-07-06T05:20:15Z</time>
      </trkpt>
      <trkpt lat="40.6262130" lon="-1.9740960">
        <ele>1122.0</ele>
        <time>2019-07-06T05:20:16Z</time>
      </trkpt>
      <trkpt lat="40.6261720" lon="-1.9739850">
        <ele>1122.2</ele>
        <time>2019-07-06T05:20:18Z</time>
      </trkpt>
      <trkpt lat="40.6261290" lon="-1.9737860">
        <ele>1122.4</ele>
        <time>2019-07-06T05:20:21Z</time>
      </trkpt>
      <trkpt lat="40.6261120" lon="-1.9736460">
        <ele>1122.2</ele>
        <time>2019-07-06T05:20:23Z</time>
      </trkpt>
      <trkpt lat="40.6261160" lon="-1.9734190">
        <ele>1122.2</ele>
        <time>2019-07-06T05:20:26Z</time>
      </trkpt>
      <trkpt lat="40.6260970" lon="-1.9731440">
        <ele>1122.2</ele>
        <time>2019-07-06T05:20:30Z</time>
      </trkpt>
      <trkpt lat="40.6260760" lon="-1.9730910">
        <ele>1122.2</ele>
        <time>2019-07-06T05:20:31Z</time>
      </trkpt>
      <trkpt lat="40.6259440" lon="-1.9729390">
        <ele>1122.4</ele>
        <time>2019-07-06T05:20:35Z</time>
      </trkpt>
      <trkpt lat="40.6258810" lon="-1.9728810">
        <ele>1122.6</ele>
        <time>2019-07-06T05:20:37Z</time>
      </trkpt>
      <trkpt lat="40.6257990" lon="-1.9727730">
        <ele>1123.6</ele>
        <time>2019-07-06T05:20:40Z</time>
      </trkpt>
      <trkpt lat="40.6257760" lon="-1.9727370">
        <ele>1123.8</ele>
        <time>2019-07-06T05:20:41Z</time>
      </trkpt>
      <trkpt lat="40.6256630" lon="-1.9725270">
        <ele>1124.8</ele>
        <time>2019-07-06T05:20:46Z</time>
      </trkpt>
      <trkpt lat="40.6256510" lon="-1.9724740">
        <ele>1125.0</ele>
        <time>2019-07-06T05:20:47Z</time>
      </trkpt>
      <trkpt lat="40.6256760" lon="-1.9723820">
        <ele>1125.0</ele>
        <time>2019-07-06T05:20:49Z</time>
      </trkpt>
      <trkpt lat="40.6257900" lon="-1.9723750">
        <ele>1124.8</ele>
        <time>2019-07-06T05:20:52Z</time>
      </trkpt>
      <trkpt lat="40.6259340" lon="-1.9725410">
        <ele>1124.8</ele>
        <time>2019-07-06T05:20:56Z</time>
      </trkpt>
      <trkpt lat="40.6259750" lon="-1.9725830">
        <ele>1124.8</ele>
        <time>2019-07-06T05:20:57Z</time>
      </trkpt>
      <trkpt lat="40.6260890" lon="-1.9726980">
        <ele>1124.4</ele>
        <time>2019-07-06T05:21:00Z</time>
      </trkpt>
      <trkpt lat="40.6262760" lon="-1.9729240">
        <ele>1124.4</ele>
        <time>2019-07-06T05:21:05Z</time>
      </trkpt>
      <trkpt lat="40.6263350" lon="-1.9730380">
        <ele>1124.4</ele>
        <time>2019-07-06T05:21:07Z</time>
      </trkpt>
      <trkpt lat="40.6263750" lon="-1.9731630">
        <ele>1124.4</ele>
        <time>2019-07-06T05:21:09Z</time>
      </trkpt>
      <trkpt lat="40.6263880" lon="-1.9732320">
        <ele>1124.4</ele>
        <time>2019-07-06T05:21:10Z</time>
      </trkpt>
      <trkpt lat="40.6263870" lon="-1.9733640">
        <ele>1124.8</ele>
        <time>2019-07-06T05:21:12Z</time>
      </trkpt>
      <trkpt lat="40.6263900" lon="-1.9734310">
        <ele>1125.0</ele>
        <time>2019-07-06T05:21:13Z</time>
      </trkpt>
      <trkpt lat="40.6264480" lon="-1.9736260">
        <ele>1125.2</ele>
        <time>2019-07-06T05:21:16Z</time>
      </trkpt>
      <trkpt lat="40.6265480" lon="-1.9738290">
        <ele>1124.6</ele>
        <time>2019-07-06T05:21:19Z</time>
      </trkpt>
      <trkpt lat="40.6265760" lon="-1.9739050">
        <ele>1124.6</ele>
        <time>2019-07-06T05:21:20Z</time>
      </trkpt>
      <trkpt lat="40.6266450" lon="-1.9741110">
        <ele>1124.0</ele>
        <time>2019-07-06T05:21:23Z</time>
      </trkpt>
      <trkpt lat="40.6266780" lon="-1.9741620">
        <ele>1124.0</ele>
        <time>2019-07-06T05:21:24Z</time>
      </trkpt>
      <trkpt lat="40.6268110" lon="-1.9742260">
        <ele>1124.2</ele>
        <time>2019-07-06T05:21:27Z</time>
      </trkpt>
      <trkpt lat="40.6269870" lon="-1.9741500">
        <ele>1125.0</ele>
        <time>2019-07-06T05:21:31Z</time>
      </trkpt>
      <trkpt lat="40.6271280" lon="-1.9740450">
        <ele>1124.4</ele>
        <time>2019-07-06T05:21:34Z</time>
      </trkpt>
      <trkpt lat="40.6271830" lon="-1.9740170">
        <ele>1124.2</ele>
        <time>2019-07-06T05:21:35Z</time>
      </trkpt>
      <trkpt lat="40.6272410" lon="-1.9740020">
        <ele>1124.2</ele>
        <time>2019-07-06T05:21:36Z</time>
      </trkpt>
      <trkpt lat="40.6273580" lon="-1.9740080">
        <ele>1124.0</ele>
        <time>2019-07-06T05:21:38Z</time>
      </trkpt>
      <trkpt lat="40.6274740" lon="-1.9740330">
        <ele>1123.8</ele>
        <time>2019-07-06T05:21:40Z</time>
      </trkpt>
      <trkpt lat="40.6275300" lon="-1.9740570">
        <ele>1123.4</ele>
        <time>2019-07-06T05:21:41Z</time>
      </trkpt>
      <trkpt lat="40.6276910" lon="-1.9741340">
        <ele>1122.6</ele>
        <time>2019-07-06T05:21:44Z</time>
      </trkpt>
      <trkpt lat="40.6278340" lon="-1.9742250">
        <ele>1121.8</ele>
        <time>2019-07-06T05:21:47Z</time>
      </trkpt>
      <trkpt lat="40.6278830" lon="-1.9742490">
        <ele>1121.6</ele>
        <time>2019-07-06T05:21:48Z</time>
      </trkpt>
      <trkpt lat="40.6279320" lon="-1.9742770">
        <ele>1121.2</ele>
        <time>2019-07-06T05:21:49Z</time>
      </trkpt>
      <trkpt lat="40.6280270" lon="-1.9743460">
        <ele>1120.2</ele>
        <time>2019-07-06T05:21:51Z</time>
      </trkpt>
      <trkpt lat="40.6280700" lon="-1.9743820">
        <ele>1119.4</ele>
        <time>2019-07-06T05:21:52Z</time>
      </trkpt>
      <trkpt lat="40.6281130" lon="-1.9744170">
        <ele>1118.8</ele>
        <time>2019-07-06T05:21:53Z</time>
      </trkpt>
      <trkpt lat="40.6281560" lon="-1.9744550">
        <ele>1118.2</ele>
        <time>2019-07-06T05:21:54Z</time>
      </trkpt>
      <trkpt lat="40.6282030" lon="-1.9745010">
        <ele>1117.6</ele>
        <time>2019-07-06T05:21:55Z</time>
      </trkpt>
      <trkpt lat="40.6283070" lon="-1.9746180">
        <ele>1116.2</ele>
        <time>2019-07-06T05:21:57Z</time>
      </trkpt>
      <trkpt lat="40.6284200" lon="-1.9747610">
        <ele>1114.0</ele>
        <time>2019-07-06T05:21:59Z</time>
      </trkpt>
      <trkpt lat="40.6284770" lon="-1.9748410">
        <ele>1112.8</ele>
        <time>2019-07-06T05:22:00Z</time>
      </trkpt>
      <trkpt lat="40.6285330" lon="-1.9749190">
        <ele>1111.6</ele>
        <time>2019-07-06T05:22:01Z</time>
      </trkpt>
      <trkpt lat="40.6286500" lon="-1.9750730">
        <ele>1110.0</ele>
        <time>2019-07-06T05:22:03Z</time>
      </trkpt>
      <trkpt lat="40.6287130" lon="-1.9751470">
        <ele>1108.8</ele>
        <time>2019-07-06T05:22:05Z</time>
      </trkpt>
      <trkpt lat="40.6288230" lon="-1.9752540">
        <ele>1108.4</ele>
        <time>2019-07-06T05:22:06Z</time>
      </trkpt>
      <trkpt lat="40.6289320" lon="-1.9753610">
        <ele>1107.6</ele>
        <time>2019-07-06T05:22:07Z</time>
      </trkpt>
      <trkpt lat="40.6290790" lon="-1.9754960">
        <ele>1106.0</ele>
        <time>2019-07-06T05:22:09Z</time>
      </trkpt>
      <trkpt lat="40.6292330" lon="-1.9756070">
        <ele>1105.2</ele>
        <time>2019-07-06T05:22:11Z</time>
      </trkpt>
      <trkpt lat="40.6293130" lon="-1.9756560">
        <ele>1105.0</ele>
        <time>2019-07-06T05:22:12Z</time>
      </trkpt>
      <trkpt lat="40.6296280" lon="-1.9758270">
        <ele>1104.0</ele>
        <time>2019-07-06T05:22:16Z</time>
      </trkpt>
      <trkpt lat="40.6298410" lon="-1.9759630">
        <ele>1104.0</ele>
        <time>2019-07-06T05:22:19Z</time>
      </trkpt>
      <trkpt lat="40.6300330" lon="-1.9760920">
        <ele>1103.8</ele>
        <time>2019-07-06T05:22:22Z</time>
      </trkpt>
      <trkpt lat="40.6302670" lon="-1.9762440">
        <ele>1103.8</ele>
        <time>2019-07-06T05:22:26Z</time>
      </trkpt>
      <trkpt lat="40.6303250" lon="-1.9762730">
        <ele>1104.0</ele>
        <time>2019-07-06T05:22:27Z</time>
      </trkpt>
      <trkpt lat="40.6305450" lon="-1.9764540">
        <ele>1103.8</ele>
        <time>2019-07-06T05:22:31Z</time>
      </trkpt>
      <trkpt lat="40.6305910" lon="-1.9764980">
        <ele>1103.8</ele>
        <time>2019-07-06T05:22:32Z</time>
      </trkpt>
      <trkpt lat="40.6307730" lon="-1.9766890">
        <ele>1104.4</ele>
        <time>2019-07-06T05:22:36Z</time>
      </trkpt>
      <trkpt lat="40.6308160" lon="-1.9767400">
        <ele>1104.4</ele>
        <time>2019-07-06T05:22:37Z</time>
      </trkpt>
      <trkpt lat="40.6309500" lon="-1.9768740">
        <ele>1104.6</ele>
        <time>2019-07-06T05:22:40Z</time>
      </trkpt>
      <trkpt lat="40.6309890" lon="-1.9769270">
        <ele>1105.0</ele>
        <time>2019-07-06T05:22:41Z</time>
      </trkpt>
      <trkpt lat="40.6310290" lon="-1.9769760">
        <ele>1105.0</ele>
        <time>2019-07-06T05:22:42Z</time>
      </trkpt>
      <trkpt lat="40.6311150" lon="-1.9770750">
        <ele>1105.2</ele>
        <time>2019-07-06T05:22:44Z</time>
      </trkpt>
      <trkpt lat="40.6312120" lon="-1.9771470">
        <ele>1105.4</ele>
        <time>2019-07-06T05:22:46Z</time>
      </trkpt>
      <trkpt lat="40.6313850" lon="-1.9772940">
        <ele>1105.8</ele>
        <time>2019-07-06T05:22:50Z</time>
      </trkpt>
      <trkpt lat="40.6314240" lon="-1.9773230">
        <ele>1106.0</ele>
        <time>2019-07-06T05:22:51Z</time>
      </trkpt>
      <trkpt lat="40.6314660" lon="-1.9773440">
        <ele>1106.2</ele>
        <time>2019-07-06T05:22:52Z</time>
      </trkpt>
      <trkpt lat="40.6316370" lon="-1.9774270">
        <ele>1106.6</ele>
        <time>2019-07-06T05:22:56Z</time>
      </trkpt>
      <trkpt lat="40.6317250" lon="-1.9774660">
        <ele>1107.4</ele>
        <time>2019-07-06T05:22:58Z</time>
      </trkpt>
      <trkpt lat="40.6317720" lon="-1.9774800">
        <ele>1107.4</ele>
        <time>2019-07-06T05:22:59Z</time>
      </trkpt>
      <trkpt lat="40.6319210" lon="-1.9775040">
        <ele>1107.4</ele>
        <time>2019-07-06T05:23:02Z</time>
      </trkpt>
      <trkpt lat="40.6320350" lon="-1.9774990">
        <ele>1107.0</ele>
        <time>2019-07-06T05:23:04Z</time>
      </trkpt>
      <trkpt lat="40.6322650" lon="-1.9774870">
        <ele>1106.6</ele>
        <time>2019-07-06T05:23:08Z</time>
      </trkpt>
      <trkpt lat="40.6323220" lon="-1.9774790">
        <ele>1106.6</ele>
        <time>2019-07-06T05:23:09Z</time>
      </trkpt>
      <trkpt lat="40.6325510" lon="-1.9774220">
        <ele>1106.8</ele>
        <time>2019-07-06T05:23:13Z</time>
      </trkpt>
      <trkpt lat="40.6326030" lon="-1.9774000">
        <ele>1106.8</ele>
        <time>2019-07-06T05:23:14Z</time>
      </trkpt>
      <trkpt lat="40.6329270" lon="-1.9772740">
        <ele>1107.0</ele>
        <time>2019-07-06T05:23:20Z</time>
      </trkpt>
      <trkpt lat="40.6333000" lon="-1.9771640">
        <ele>1108.2</ele>
        <time>2019-07-06T05:23:27Z</time>
      </trkpt>
      <trkpt lat="40.6336590" lon="-1.9770840">
        <ele>1107.4</ele>
        <time>2019-07-06T05:23:33Z</time>
      </trkpt>
      <trkpt lat="40.6337210" lon="-1.9770760">
        <ele>1107.2</ele>
        <time>2019-07-06T05:23:34Z</time>
      </trkpt>
      <trkpt lat="40.6338500" lon="-1.9770670">
        <ele>1106.4</ele>
        <time>2019-07-06T05:23:36Z</time>
      </trkpt>
      <trkpt lat="40.6339110" lon="-1.9770630">
        <ele>1106.2</ele>
        <time>2019-07-06T05:23:37Z</time>
      </trkpt>
      <trkpt lat="40.6339710" lon="-1.9770630">
        <ele>1106.0</ele>
        <time>2019-07-06T05:23:38Z</time>
      </trkpt>
      <trkpt lat="40.6342500" lon="-1.9771150">
        <ele>1106.2</ele>
        <time>2019-07-06T05:23:43Z</time>
      </trkpt>
      <trkpt lat="40.6343000" lon="-1.9771270">
        <ele>1106.4</ele>
        <time>2019-07-06T05:23:44Z</time>
      </trkpt>
      <trkpt lat="40.6343480" lon="-1.9771410">
        <ele>1106.6</ele>
        <time>2019-07-06T05:23:45Z</time>
      </trkpt>
      <trkpt lat="40.6345400" lon="-1.9772070">
        <ele>1107.2</ele>
        <time>2019-07-06T05:23:49Z</time>
      </trkpt>
      <trkpt lat="40.6345880" lon="-1.9772250">
        <ele>1107.4</ele>
        <time>2019-07-06T05:23:50Z</time>
      </trkpt>
      <trkpt lat="40.6347660" lon="-1.9773030">
        <ele>1108.0</ele>
        <time>2019-07-06T05:23:54Z</time>
      </trkpt>
      <trkpt lat="40.6348890" lon="-1.9773740">
        <ele>1108.2</ele>
        <time>2019-07-06T05:23:57Z</time>
      </trkpt>
      <trkpt lat="40.6349690" lon="-1.9774120">
        <ele>1108.4</ele>
        <time>2019-07-06T05:23:59Z</time>
      </trkpt>
      <trkpt lat="40.6351180" lon="-1.9775080">
        <ele>1109.2</ele>
        <time>2019-07-06T05:24:03Z</time>
      </trkpt>
      <trkpt lat="40.6351610" lon="-1.9775320">
        <ele>1109.6</ele>
        <time>2019-07-06T05:24:04Z</time>
      </trkpt>
      <trkpt lat="40.6352340" lon="-1.9775820">
        <ele>1110.4</ele>
        <time>2019-07-06T05:24:06Z</time>
      </trkpt>
      <trkpt lat="40.6352710" lon="-1.9776080">
        <ele>1110.8</ele>
        <time>2019-07-06T05:24:07Z</time>
      </trkpt>
      <trkpt lat="40.6353500" lon="-1.9776500">
        <ele>1111.4</ele>
        <time>2019-07-06T05:24:09Z</time>
      </trkpt>
      <trkpt lat="40.6355050" lon="-1.9777210">
        <ele>1111.8</ele>
        <time>2019-07-06T05:24:13Z</time>
      </trkpt>
      <trkpt lat="40.6356190" lon="-1.9777360">
        <ele>1112.8</ele>
        <time>2019-07-06T05:24:16Z</time>
      </trkpt>
      <trkpt lat="40.6357130" lon="-1.9777630">
        <ele>1113.8</ele>
        <time>2019-07-06T05:24:19Z</time>
      </trkpt>
      <trkpt lat="40.6358050" lon="-1.9777980">
        <ele>1114.4</ele>
        <time>2019-07-06T05:24:22Z</time>
      </trkpt>
      <trkpt lat="40.6359210" lon="-1.9778300">
        <ele>1115.0</ele>
        <time>2019-07-06T05:24:26Z</time>
      </trkpt>
      <trkpt lat="40.6360100" lon="-1.9778680">
        <ele>1116.0</ele>
        <time>2019-07-06T05:24:29Z</time>
      </trkpt>
      <trkpt lat="40.6360640" lon="-1.9778940">
        <ele>1116.4</ele>
        <time>2019-07-06T05:24:31Z</time>
      </trkpt>
      <trkpt lat="40.6361430" lon="-1.9779600">
        <ele>1116.8</ele>
        <time>2019-07-06T05:24:34Z</time>
      </trkpt>
      <trkpt lat="40.6361940" lon="-1.9780080">
        <ele>1117.4</ele>
        <time>2019-07-06T05:24:36Z</time>
      </trkpt>
      <trkpt lat="40.6362860" lon="-1.9781180">
        <ele>1118.4</ele>
        <time>2019-07-06T05:24:40Z</time>
      </trkpt>
      <trkpt lat="40.6363320" lon="-1.9781760">
        <ele>1119.0</ele>
        <time>2019-07-06T05:24:42Z</time>
      </trkpt>
      <trkpt lat="40.6363850" lon="-1.9782180">
        <ele>1119.6</ele>
        <time>2019-07-06T05:24:44Z</time>
      </trkpt>
      <trkpt lat="40.6364940" lon="-1.9782820">
        <ele>1120.4</ele>
        <time>2019-07-06T05:24:48Z</time>
      </trkpt>
      <trkpt lat="40.6365500" lon="-1.9783010">
        <ele>1121.0</ele>
        <time>2019-07-06T05:24:50Z</time>
      </trkpt>
      <trkpt lat="40.6366790" lon="-1.9783420">
        <ele>1121.6</ele>
        <time>2019-07-06T05:24:55Z</time>
      </trkpt>
      <trkpt lat="40.6367320" lon="-1.9783610">
        <ele>1122.4</ele>
        <time>2019-07-06T05:24:57Z</time>
      </trkpt>
      <trkpt lat="40.6368650" lon="-1.9784050">
        <ele>1123.2</ele>
        <time>2019-07-06T05:25:02Z</time>
      </trkpt>
      <trkpt lat="40.6368940" lon="-1.9784140">
        <ele>1123.4</ele>
        <time>2019-07-06T05:25:03Z</time>
      </trkpt>
      <trkpt lat="40.6370730" lon="-1.9784940">
        <ele>1124.4</ele>
        <time>2019-07-06T05:25:09Z</time>
      </trkpt>
      <trkpt lat="40.6371630" lon="-1.9785210">
        <ele>1124.8</ele>
        <time>2019-07-06T05:25:12Z</time>
      </trkpt>
      <trkpt lat="40.6372610" lon="-1.9785380">
        <ele>1125.6</ele>
        <time>2019-07-06T05:25:15Z</time>
      </trkpt>
      <trkpt lat="40.6373260" lon="-1.9785450">
        <ele>1126.0</ele>
        <time>2019-07-06T05:25:17Z</time>
      </trkpt>
      <trkpt lat="40.6375240" lon="-1.9785480">
        <ele>1126.4</ele>
        <time>2019-07-06T05:25:23Z</time>
      </trkpt>
      <trkpt lat="40.6376220" lon="-1.9785490">
        <ele>1127.0</ele>
        <time>2019-07-06T05:25:26Z</time>
      </trkpt>
      <trkpt lat="40.6377100" lon="-1.9785370">
        <ele>1127.4</ele>
        <time>2019-07-06T05:25:29Z</time>
      </trkpt>
      <trkpt lat="40.6378390" lon="-1.9784660">
        <ele>1127.6</ele>
        <time>2019-07-06T05:25:33Z</time>
      </trkpt>
      <trkpt lat="40.6379430" lon="-1.9783550">
        <ele>1127.0</ele>
        <time>2019-07-06T05:25:36Z</time>
      </trkpt>
      <trkpt lat="40.6379720" lon="-1.9783130">
        <ele>1126.8</ele>
        <time>2019-07-06T05:25:37Z</time>
      </trkpt>
      <trkpt lat="40.6379920" lon="-1.9782670">
        <ele>1126.4</ele>
        <time>2019-07-06T05:25:38Z</time>
      </trkpt>
      <trkpt lat="40.6380410" lon="-1.9781590">
        <ele>1126.0</ele>
        <time>2019-07-06T05:25:40Z</time>
      </trkpt>
      <trkpt lat="40.6380720" lon="-1.9781000">
        <ele>1126.0</ele>
        <time>2019-07-06T05:25:41Z</time>
      </trkpt>
      <trkpt lat="40.6381120" lon="-1.9780440">
        <ele>1125.6</ele>
        <time>2019-07-06T05:25:42Z</time>
      </trkpt>
      <trkpt lat="40.6382130" lon="-1.9779330">
        <ele>1124.2</ele>
        <time>2019-07-06T05:25:44Z</time>
      </trkpt>
      <trkpt lat="40.6383290" lon="-1.9778310">
        <ele>1123.0</ele>
        <time>2019-07-06T05:25:46Z</time>
      </trkpt>
      <trkpt lat="40.6383860" lon="-1.9777830">
        <ele>1122.4</ele>
        <time>2019-07-06T05:25:47Z</time>
      </trkpt>
      <trkpt lat="40.6384420" lon="-1.9777410">
        <ele>1121.8</ele>
        <time>2019-07-06T05:25:48Z</time>
      </trkpt>
      <trkpt lat="40.6386250" lon="-1.9776310">
        <ele>1120.2</ele>
        <time>2019-07-06T05:25:51Z</time>
      </trkpt>
      <trkpt lat="40.6387490" lon="-1.9775610">
        <ele>1118.8</ele>
        <time>2019-07-06T05:25:53Z</time>
      </trkpt>
      <trkpt lat="40.6388080" lon="-1.9775250">
        <ele>1118.0</ele>
        <time>2019-07-06T05:25:54Z</time>
      </trkpt>
      <trkpt lat="40.6388660" lon="-1.9774930">
        <ele>1117.2</ele>
        <time>2019-07-06T05:25:55Z</time>
      </trkpt>
      <trkpt lat="40.6389690" lon="-1.9774370">
        <ele>1116.4</ele>
        <time>2019-07-06T05:25:57Z</time>
      </trkpt>
      <trkpt lat="40.6390170" lon="-1.9774050">
        <ele>1116.2</ele>
        <time>2019-07-06T05:25:58Z</time>
      </trkpt>
      <trkpt lat="40.6391030" lon="-1.9773000">
        <ele>1114.6</ele>
        <time>2019-07-06T05:26:00Z</time>
      </trkpt>
      <trkpt lat="40.6391400" lon="-1.9772280">
        <ele>1113.6</ele>
        <time>2019-07-06T05:26:01Z</time>
      </trkpt>
      <trkpt lat="40.6391750" lon="-1.9771490">
        <ele>1113.0</ele>
        <time>2019-07-06T05:26:02Z</time>
      </trkpt>
      <trkpt lat="40.6392110" lon="-1.9770660">
        <ele>1112.4</ele>
        <time>2019-07-06T05:26:03Z</time>
      </trkpt>
      <trkpt lat="40.6392910" lon="-1.9768990">
        <ele>1111.6</ele>
        <time>2019-07-06T05:26:05Z</time>
      </trkpt>
      <trkpt lat="40.6393350" lon="-1.9768140">
        <ele>1111.2</ele>
        <time>2019-07-06T05:26:06Z</time>
      </trkpt>
      <trkpt lat="40.6394720" lon="-1.9765820">
        <ele>1110.4</ele>
        <time>2019-07-06T05:26:09Z</time>
      </trkpt>
      <trkpt lat="40.6395080" lon="-1.9765170">
        <ele>1110.2</ele>
        <time>2019-07-06T05:26:10Z</time>
      </trkpt>
      <trkpt lat="40.6395440" lon="-1.9764540">
        <ele>1110.2</ele>
        <time>2019-07-06T05:26:11Z</time>
      </trkpt>
      <trkpt lat="40.6396160" lon="-1.9763260">
        <ele>1109.8</ele>
        <time>2019-07-06T05:26:13Z</time>
      </trkpt>
      <trkpt lat="40.6396690" lon="-1.9762000">
        <ele>1109.8</ele>
        <time>2019-07-06T05:26:15Z</time>
      </trkpt>
      <trkpt lat="40.6396900" lon="-1.9761370">
        <ele>1110.0</ele>
        <time>2019-07-06T05:26:16Z</time>
      </trkpt>
      <trkpt lat="40.6397220" lon="-1.9760120">
        <ele>1110.2</ele>
        <time>2019-07-06T05:26:18Z</time>
      </trkpt>
      <trkpt lat="40.6397130" lon="-1.9758830">
        <ele>1110.6</ele>
        <time>2019-07-06T05:26:20Z</time>
      </trkpt>
      <trkpt lat="40.6396340" lon="-1.9757340">
        <ele>1111.0</ele>
        <time>2019-07-06T05:26:23Z</time>
      </trkpt>
      <trkpt lat="40.6395980" lon="-1.9756980">
        <ele>1111.2</ele>
        <time>2019-07-06T05:26:24Z</time>
      </trkpt>
      <trkpt lat="40.6395250" lon="-1.9756420">
        <ele>1111.8</ele>
        <time>2019-07-06T05:26:26Z</time>
      </trkpt>
      <trkpt lat="40.6394910" lon="-1.9756220">
        <ele>1112.0</ele>
        <time>2019-07-06T05:26:27Z</time>
      </trkpt>
      <trkpt lat="40.6394240" lon="-1.9755800">
        <ele>1112.2</ele>
        <time>2019-07-06T05:26:29Z</time>
      </trkpt>
      <trkpt lat="40.6393290" lon="-1.9755180">
        <ele>1112.6</ele>
        <time>2019-07-06T05:26:32Z</time>
      </trkpt>
      <trkpt lat="40.6392490" lon="-1.9754690">
        <ele>1113.6</ele>
        <time>2019-07-06T05:26:35Z</time>
      </trkpt>
      <trkpt lat="40.6391970" lon="-1.9754420">
        <ele>1114.2</ele>
        <time>2019-07-06T05:26:37Z</time>
      </trkpt>
      <trkpt lat="40.6391520" lon="-1.9754120">
        <ele>1115.0</ele>
        <time>2019-07-06T05:26:39Z</time>
      </trkpt>
      <trkpt lat="40.6391300" lon="-1.9753950">
        <ele>1115.4</ele>
        <time>2019-07-06T05:26:40Z</time>
      </trkpt>
      <trkpt lat="40.6390550" lon="-1.9753360">
        <ele>1116.2</ele>
        <time>2019-07-06T05:26:43Z</time>
      </trkpt>
      <trkpt lat="40.6390310" lon="-1.9753220">
        <ele>1116.8</ele>
        <time>2019-07-06T05:26:44Z</time>
      </trkpt>
      <trkpt lat="40.6389890" lon="-1.9752940">
        <ele>1117.4</ele>
        <time>2019-07-06T05:26:46Z</time>
      </trkpt>
      <trkpt lat="40.6389340" lon="-1.9752750">
        <ele>1118.2</ele>
        <time>2019-07-06T05:26:49Z</time>
      </trkpt>
      <trkpt lat="40.6389120" lon="-1.9752640">
        <ele>1118.4</ele>
        <time>2019-07-06T05:26:50Z</time>
      </trkpt>
      <trkpt lat="40.6388300" lon="-1.9752160">
        <ele>1119.4</ele>
        <time>2019-07-06T05:26:54Z</time>
      </trkpt>
      <trkpt lat="40.6388080" lon="-1.9751990">
        <ele>1119.8</ele>
        <time>2019-07-06T05:26:55Z</time>
      </trkpt>
      <trkpt lat="40.6387620" lon="-1.9751670">
        <ele>1120.8</ele>
        <time>2019-07-06T05:26:57Z</time>
      </trkpt>
      <trkpt lat="40.6387060" lon="-1.9751380">
        <ele>1121.4</ele>
        <time>2019-07-06T05:26:59Z</time>
      </trkpt>
      <trkpt lat="40.6386460" lon="-1.9750940">
        <ele>1122.0</ele>
        <time>2019-07-06T05:27:02Z</time>
      </trkpt>
      <trkpt lat="40.6386250" lon="-1.9750840">
        <ele>1122.6</ele>
        <time>2019-07-06T05:27:03Z</time>
      </trkpt>
      <trkpt lat="40.6385750" lon="-1.9750500">
        <ele>1123.2</ele>
        <time>2019-07-06T05:27:05Z</time>
      </trkpt>
      <trkpt lat="40.6385310" lon="-1.9749970">
        <ele>1123.4</ele>
        <time>2019-07-06T05:27:07Z</time>
      </trkpt>
      <trkpt lat="40.6384790" lon="-1.9748100">
        <ele>1123.8</ele>
        <time>2019-07-06T05:27:11Z</time>
      </trkpt>
      <trkpt lat="40.6384830" lon="-1.9747730">
        <ele>1124.0</ele>
        <time>2019-07-06T05:27:12Z</time>
      </trkpt>
      <trkpt lat="40.6384820" lon="-1.9747460">
        <ele>1124.4</ele>
        <time>2019-07-06T05:27:13Z</time>
      </trkpt>
      <trkpt lat="40.6384990" lon="-1.9747360">
        <ele>1124.8</ele>
        <time>2019-07-06T05:27:14Z</time>
      </trkpt>
      <trkpt lat="40.6385280" lon="-1.9746990">
        <ele>1125.6</ele>
        <time>2019-07-06T05:27:16Z</time>
      </trkpt>
      <trkpt lat="40.6385970" lon="-1.9746730">
        <ele>1127.0</ele>
        <time>2019-07-06T05:27:20Z</time>
      </trkpt>
      <trkpt lat="40.6386710" lon="-1.9746460">
        <ele>1128.0</ele>
        <time>2019-07-06T05:27:25Z</time>
      </trkpt>
      <trkpt lat="40.6386840" lon="-1.9746390">
        <ele>1128.4</ele>
        <time>2019-07-06T05:27:26Z</time>
      </trkpt>
      <trkpt lat="40.6387330" lon="-1.9746280">
        <ele>1129.2</ele>
        <time>2019-07-06T05:27:29Z</time>
      </trkpt>
      <trkpt lat="40.6387910" lon="-1.9746200">
        <ele>1129.8</ele>
        <time>2019-07-06T05:27:32Z</time>
      </trkpt>
      <trkpt lat="40.6388240" lon="-1.9746110">
        <ele>1130.2</ele>
        <time>2019-07-06T05:27:34Z</time>
      </trkpt>
      <trkpt lat="40.6389070" lon="-1.9746170">
        <ele>1131.4</ele>
        <time>2019-07-06T05:27:38Z</time>
      </trkpt>
      <trkpt lat="40.6389890" lon="-1.9746050">
        <ele>1132.6</ele>
        <time>2019-07-06T05:27:42Z</time>
      </trkpt>
      <trkpt lat="40.6390080" lon="-1.9745980">
        <ele>1132.8</ele>
        <time>2019-07-06T05:27:43Z</time>
      </trkpt>
      <trkpt lat="40.6390630" lon="-1.9745810">
        <ele>1133.6</ele>
        <time>2019-07-06T05:27:46Z</time>
      </trkpt>
      <trkpt lat="40.6391260" lon="-1.9745650">
        <ele>1134.2</ele>
        <time>2019-07-06T05:27:49Z</time>
      </trkpt>
      <trkpt lat="40.6391480" lon="-1.9745560">
        <ele>1134.6</ele>
        <time>2019-07-06T05:27:50Z</time>
      </trkpt>
      <trkpt lat="40.6392570" lon="-1.9745150">
        <ele>1136.0</ele>
        <time>2019-07-06T05:27:55Z</time>
      </trkpt>
      <trkpt lat="40.6393390" lon="-1.9744750">
        <ele>1137.2</ele>
        <time>2019-07-06T05:27:59Z</time>
      </trkpt>
      <trkpt lat="40.6393930" lon="-1.9744300">
        <ele>1138.0</ele>
        <time>2019-07-06T05:28:02Z</time>
      </trkpt>
      <trkpt lat="40.6394290" lon="-1.9743970">
        <ele>1138.2</ele>
        <time>2019-07-06T05:28:04Z</time>
      </trkpt>
      <trkpt lat="40.6395200" lon="-1.9742970">
        <ele>1139.6</ele>
        <time>2019-07-06T05:28:09Z</time>
      </trkpt>
      <trkpt lat="40.6395360" lon="-1.9742790">
        <ele>1139.8</ele>
        <time>2019-07-06T05:28:10Z</time>
      </trkpt>
      <trkpt lat="40.6395930" lon="-1.9741940">
        <ele>1140.6</ele>
        <time>2019-07-06T05:28:14Z</time>
      </trkpt>
      <trkpt lat="40.6396250" lon="-1.9741280">
        <ele>1141.4</ele>
        <time>2019-07-06T05:28:17Z</time>
      </trkpt>
      <trkpt lat="40.6396320" lon="-1.9741010">
        <ele>1141.8</ele>
        <time>2019-07-06T05:28:18Z</time>
      </trkpt>
      <trkpt lat="40.6396520" lon="-1.9739620">
        <ele>1142.6</ele>
        <time>2019-07-06T05:28:23Z</time>
      </trkpt>
      <trkpt lat="40.6396520" lon="-1.9739320">
        <ele>1142.8</ele>
        <time>2019-07-06T05:28:24Z</time>
      </trkpt>
      <trkpt lat="40.6396440" lon="-1.9739020">
        <ele>1143.0</ele>
        <time>2019-07-06T05:28:25Z</time>
      </trkpt>
      <trkpt lat="40.6396360" lon="-1.9738370">
        <ele>1143.4</ele>
        <time>2019-07-06T05:28:27Z</time>
      </trkpt>
      <trkpt lat="40.6396260" lon="-1.9737740">
        <ele>1144.0</ele>
        <time>2019-07-06T05:28:29Z</time>
      </trkpt>
      <trkpt lat="40.6396130" lon="-1.9737070">
        <ele>1144.6</ele>
        <time>2019-07-06T05:28:32Z</time>
      </trkpt>
      <trkpt lat="40.6396120" lon="-1.9736870">
        <ele>1144.6</ele>
        <time>2019-07-06T05:28:33Z</time>
      </trkpt>
      <trkpt lat="40.6395950" lon="-1.9736330">
        <ele>1145.2</ele>
        <time>2019-07-06T05:28:35Z</time>
      </trkpt>
      <trkpt lat="40.6395930" lon="-1.9736060">
        <ele>1145.4</ele>
        <time>2019-07-06T05:28:36Z</time>
      </trkpt>
      <trkpt lat="40.6395820" lon="-1.9734740">
        <ele>1146.4</ele>
        <time>2019-07-06T05:28:40Z</time>
      </trkpt>
      <trkpt lat="40.6395970" lon="-1.9734060">
        <ele>1147.2</ele>
        <time>2019-07-06T05:28:42Z</time>
      </trkpt>
      <trkpt lat="40.6396410" lon="-1.9733470">
        <ele>1147.6</ele>
        <time>2019-07-06T05:28:44Z</time>
      </trkpt>
      <trkpt lat="40.6397000" lon="-1.9733060">
        <ele>1148.0</ele>
        <time>2019-07-06T05:28:46Z</time>
      </trkpt>
      <trkpt lat="40.6397690" lon="-1.9732140">
        <ele>1148.6</ele>
        <time>2019-07-06T05:28:49Z</time>
      </trkpt>
      <trkpt lat="40.6397790" lon="-1.9731780">
        <ele>1148.8</ele>
        <time>2019-07-06T05:28:50Z</time>
      </trkpt>
      <trkpt lat="40.6397880" lon="-1.9729920">
        <ele>1149.8</ele>
        <time>2019-07-06T05:28:55Z</time>
      </trkpt>
      <trkpt lat="40.6397920" lon="-1.9727660">
        <ele>1150.8</ele>
        <time>2019-07-06T05:29:01Z</time>
      </trkpt>
      <trkpt lat="40.6398010" lon="-1.9727310">
        <ele>1151.0</ele>
        <time>2019-07-06T05:29:02Z</time>
      </trkpt>
      <trkpt lat="40.6398510" lon="-1.9726150">
        <ele>1152.0</ele>
        <time>2019-07-06T05:29:06Z</time>
      </trkpt>
      <trkpt lat="40.6399490" lon="-1.9725560">
        <ele>1153.2</ele>
        <time>2019-07-06T05:29:11Z</time>
      </trkpt>
      <trkpt lat="40.6399720" lon="-1.9725600">
        <ele>1153.4</ele>
        <time>2019-07-06T05:29:12Z</time>
      </trkpt>
      <trkpt lat="40.6400560" lon="-1.9726070">
        <ele>1154.2</ele>
        <time>2019-07-06T05:29:16Z</time>
      </trkpt>
      <trkpt lat="40.6400970" lon="-1.9726150">
        <ele>1154.6</ele>
        <time>2019-07-06T05:29:18Z</time>
      </trkpt>
      <trkpt lat="40.6401970" lon="-1.9725680">
        <ele>1155.6</ele>
        <time>2019-07-06T05:29:22Z</time>
      </trkpt>
      <trkpt lat="40.6402200" lon="-1.9725480">
        <ele>1156.0</ele>
        <time>2019-07-06T05:29:23Z</time>
      </trkpt>
      <trkpt lat="40.6402640" lon="-1.9725060">
        <ele>1156.8</ele>
        <time>2019-07-06T05:29:25Z</time>
      </trkpt>
      <trkpt lat="40.6402830" lon="-1.9724830">
        <ele>1157.0</ele>
        <time>2019-07-06T05:29:26Z</time>
      </trkpt>
      <trkpt lat="40.6403220" lon="-1.9724330">
        <ele>1157.4</ele>
        <time>2019-07-06T05:29:28Z</time>
      </trkpt>
      <trkpt lat="40.6403680" lon="-1.9723990">
        <ele>1157.8</ele>
        <time>2019-07-06T05:29:30Z</time>
      </trkpt>
      <trkpt lat="40.6404350" lon="-1.9723530">
        <ele>1158.6</ele>
        <time>2019-07-06T05:29:33Z</time>
      </trkpt>
      <trkpt lat="40.6404830" lon="-1.9723260">
        <ele>1159.2</ele>
        <time>2019-07-06T05:29:35Z</time>
      </trkpt>
      <trkpt lat="40.6405560" lon="-1.9722940">
        <ele>1160.0</ele>
        <time>2019-07-06T05:29:38Z</time>
      </trkpt>
      <trkpt lat="40.6405860" lon="-1.9722840">
        <ele>1160.4</ele>
        <time>2019-07-06T05:29:39Z</time>
      </trkpt>
      <trkpt lat="40.6407260" lon="-1.9722220">
        <ele>1161.6</ele>
        <time>2019-07-06T05:29:44Z</time>
      </trkpt>
      <trkpt lat="40.6408090" lon="-1.9721670">
        <ele>1162.6</ele>
        <time>2019-07-06T05:29:47Z</time>
      </trkpt>
      <trkpt lat="40.6408740" lon="-1.9721100">
        <ele>1163.2</ele>
        <time>2019-07-06T05:29:49Z</time>
      </trkpt>
      <trkpt lat="40.6410170" lon="-1.9719280">
        <ele>1163.6</ele>
        <time>2019-07-06T05:29:54Z</time>
      </trkpt>
      <trkpt lat="40.6410500" lon="-1.9718850">
        <ele>1163.6</ele>
        <time>2019-07-06T05:29:55Z</time>
      </trkpt>
      <trkpt lat="40.6411690" lon="-1.9716980">
        <ele>1163.4</ele>
        <time>2019-07-06T05:29:59Z</time>
      </trkpt>
      <trkpt lat="40.6412580" lon="-1.9715510">
        <ele>1163.6</ele>
        <time>2019-07-06T05:30:02Z</time>
      </trkpt>
      <trkpt lat="40.6412880" lon="-1.9715020">
        <ele>1163.6</ele>
        <time>2019-07-06T05:30:03Z</time>
      </trkpt>
      <trkpt lat="40.6413790" lon="-1.9713550">
        <ele>1163.8</ele>
        <time>2019-07-06T05:30:06Z</time>
      </trkpt>
      <trkpt lat="40.6414390" lon="-1.9712610">
        <ele>1163.8</ele>
        <time>2019-07-06T05:30:08Z</time>
      </trkpt>
      <trkpt lat="40.6414910" lon="-1.9711540">
        <ele>1163.6</ele>
        <time>2019-07-06T05:30:10Z</time>
      </trkpt>
      <trkpt lat="40.6415630" lon="-1.9709830">
        <ele>1163.4</ele>
        <time>2019-07-06T05:30:13Z</time>
      </trkpt>
      <trkpt lat="40.6416200" lon="-1.9708520">
        <ele>1163.2</ele>
        <time>2019-07-06T05:30:15Z</time>
      </trkpt>
      <trkpt lat="40.6416800" lon="-1.9707140">
        <ele>1162.6</ele>
        <time>2019-07-06T05:30:17Z</time>
      </trkpt>
      <trkpt lat="40.6417030" lon="-1.9706410">
        <ele>1162.4</ele>
        <time>2019-07-06T05:30:18Z</time>
      </trkpt>
      <trkpt lat="40.6417400" lon="-1.9704880">
        <ele>1161.8</ele>
        <time>2019-07-06T05:30:20Z</time>
      </trkpt>
      <trkpt lat="40.6417650" lon="-1.9704150">
        <ele>1161.4</ele>
        <time>2019-07-06T05:30:21Z</time>
      </trkpt>
      <trkpt lat="40.6418360" lon="-1.9702870">
        <ele>1161.0</ele>
        <time>2019-07-06T05:30:23Z</time>
      </trkpt>
      <trkpt lat="40.6419870" lon="-1.9701850">
        <ele>1160.6</ele>
        <time>2019-07-06T05:30:26Z</time>
      </trkpt>
      <trkpt lat="40.6420450" lon="-1.9701800">
        <ele>1160.4</ele>
        <time>2019-07-06T05:30:27Z</time>
      </trkpt>
      <trkpt lat="40.6421600" lon="-1.9702100">
        <ele>1160.0</ele>
        <time>2019-07-06T05:30:29Z</time>
      </trkpt>
      <trkpt lat="40.6422680" lon="-1.9702750">
        <ele>1160.0</ele>
        <time>2019-07-06T05:30:31Z</time>
      </trkpt>
      <trkpt lat="40.6423670" lon="-1.9703420">
        <ele>1159.8</ele>
        <time>2019-07-06T05:30:33Z</time>
      </trkpt>
      <trkpt lat="40.6424100" lon="-1.9703890">
        <ele>1159.8</ele>
        <time>2019-07-06T05:30:34Z</time>
      </trkpt>
      <trkpt lat="40.6424950" lon="-1.9705730">
        <ele>1159.4</ele>
        <time>2019-07-06T05:30:37Z</time>
      </trkpt>
      <trkpt lat="40.6425770" lon="-1.9706810">
        <ele>1159.2</ele>
        <time>2019-07-06T05:30:39Z</time>
      </trkpt>
      <trkpt lat="40.6426340" lon="-1.9707230">
        <ele>1158.8</ele>
        <time>2019-07-06T05:30:40Z</time>
      </trkpt>
      <trkpt lat="40.6426970" lon="-1.9707560">
        <ele>1158.0</ele>
        <time>2019-07-06T05:30:41Z</time>
      </trkpt>
      <trkpt lat="40.6428250" lon="-1.9708430">
        <ele>1156.6</ele>
        <time>2019-07-06T05:30:43Z</time>
      </trkpt>
      <trkpt lat="40.6428830" lon="-1.9709080">
        <ele>1155.8</ele>
        <time>2019-07-06T05:30:44Z</time>
      </trkpt>
      <trkpt lat="40.6429340" lon="-1.9709800">
        <ele>1155.4</ele>
        <time>2019-07-06T05:30:45Z</time>
      </trkpt>
      <trkpt lat="40.6430000" lon="-1.9711630">
        <ele>1154.0</ele>
        <time>2019-07-06T05:30:47Z</time>
      </trkpt>
      <trkpt lat="40.6430450" lon="-1.9714250">
        <ele>1152.8</ele>
        <time>2019-07-06T05:30:50Z</time>
      </trkpt>
      <trkpt lat="40.6431440" lon="-1.9716390">
        <ele>1151.8</ele>
        <time>2019-07-06T05:30:53Z</time>
      </trkpt>
      <trkpt lat="40.6433140" lon="-1.9717370">
        <ele>1150.8</ele>
        <time>2019-07-06T05:30:56Z</time>
      </trkpt>
      <trkpt lat="40.6434790" lon="-1.9716530">
        <ele>1150.2</ele>
        <time>2019-07-06T05:30:59Z</time>
      </trkpt>
      <trkpt lat="40.6435600" lon="-1.9715280">
        <ele>1148.8</ele>
        <time>2019-07-06T05:31:01Z</time>
      </trkpt>
      <trkpt lat="40.6436210" lon="-1.9713920">
        <ele>1147.2</ele>
        <time>2019-07-06T05:31:03Z</time>
      </trkpt>
      <trkpt lat="40.6436870" lon="-1.9712620">
        <ele>1145.6</ele>
        <time>2019-07-06T05:31:05Z</time>
      </trkpt>
      <trkpt lat="40.6437850" lon="-1.9711670">
        <ele>1144.0</ele>
        <time>2019-07-06T05:31:07Z</time>
      </trkpt>
      <trkpt lat="40.6438940" lon="-1.9711280">
        <ele>1142.6</ele>
        <time>2019-07-06T05:31:09Z</time>
      </trkpt>
      <trkpt lat="40.6439590" lon="-1.9711240">
        <ele>1142.2</ele>
        <time>2019-07-06T05:31:10Z</time>
      </trkpt>
      <trkpt lat="40.6441620" lon="-1.9711560">
        <ele>1141.4</ele>
        <time>2019-07-06T05:31:13Z</time>
      </trkpt>
      <trkpt lat="40.6442280" lon="-1.9711820">
        <ele>1141.2</ele>
        <time>2019-07-06T05:31:14Z</time>
      </trkpt>
      <trkpt lat="40.6444750" lon="-1.9712100">
        <ele>1140.2</ele>
        <time>2019-07-06T05:31:18Z</time>
      </trkpt>
      <trkpt lat="40.6446780" lon="-1.9711090">
        <ele>1138.6</ele>
        <time>2019-07-06T05:31:21Z</time>
      </trkpt>
      <trkpt lat="40.6447480" lon="-1.9710600">
        <ele>1138.0</ele>
        <time>2019-07-06T05:31:22Z</time>
      </trkpt>
      <trkpt lat="40.6448160" lon="-1.9710140">
        <ele>1137.0</ele>
        <time>2019-07-06T05:31:23Z</time>
      </trkpt>
      <trkpt lat="40.6449620" lon="-1.9709510">
        <ele>1135.6</ele>
        <time>2019-07-06T05:31:25Z</time>
      </trkpt>
      <trkpt lat="40.6450320" lon="-1.9709450">
        <ele>1135.0</ele>
        <time>2019-07-06T05:31:26Z</time>
      </trkpt>
      <trkpt lat="40.6451560" lon="-1.9709810">
        <ele>1134.4</ele>
        <time>2019-07-06T05:31:28Z</time>
      </trkpt>
      <trkpt lat="40.6452140" lon="-1.9710150">
        <ele>1134.0</ele>
        <time>2019-07-06T05:31:29Z</time>
      </trkpt>
      <trkpt lat="40.6452690" lon="-1.9710520">
        <ele>1133.8</ele>
        <time>2019-07-06T05:31:30Z</time>
      </trkpt>
      <trkpt lat="40.6453720" lon="-1.9711220">
        <ele>1133.8</ele>
        <time>2019-07-06T05:31:32Z</time>
      </trkpt>
      <trkpt lat="40.6454700" lon="-1.9712040">
        <ele>1133.6</ele>
        <time>2019-07-06T05:31:34Z</time>
      </trkpt>
      <trkpt lat="40.6455220" lon="-1.9712420">
        <ele>1133.4</ele>
        <time>2019-07-06T05:31:35Z</time>
      </trkpt>
      <trkpt lat="40.6455760" lon="-1.9712740">
        <ele>1133.2</ele>
        <time>2019-07-06T05:31:36Z</time>
      </trkpt>
      <trkpt lat="40.6457650" lon="-1.9713230">
        <ele>1132.6</ele>
        <time>2019-07-06T05:31:39Z</time>
      </trkpt>
      <trkpt lat="40.6459700" lon="-1.9712650">
        <ele>1132.0</ele>
        <time>2019-07-06T05:31:42Z</time>
      </trkpt>
      <trkpt lat="40.6460460" lon="-1.9712430">
        <ele>1131.4</ele>
        <time>2019-07-06T05:31:43Z</time>
      </trkpt>
      <trkpt lat="40.6461210" lon="-1.9712260">
        <ele>1130.8</ele>
        <time>2019-07-06T05:31:44Z</time>
      </trkpt>
      <trkpt lat="40.6463470" lon="-1.9711680">
        <ele>1129.8</ele>
        <time>2019-07-06T05:31:47Z</time>
      </trkpt>
      <trkpt lat="40.6465470" lon="-1.9710680">
        <ele>1128.8</ele>
        <time>2019-07-06T05:31:50Z</time>
      </trkpt>
      <trkpt lat="40.6466170" lon="-1.9710590">
        <ele>1128.4</ele>
        <time>2019-07-06T05:31:51Z</time>
      </trkpt>
      <trkpt lat="40.6467480" lon="-1.9710890">
        <ele>1127.6</ele>
        <time>2019-07-06T05:31:53Z</time>
      </trkpt>
      <trkpt lat="40.6468130" lon="-1.9711170">
        <ele>1127.4</ele>
        <time>2019-07-06T05:31:54Z</time>
      </trkpt>
      <trkpt lat="40.6468810" lon="-1.9711410">
        <ele>1127.2</ele>
        <time>2019-07-06T05:31:55Z</time>
      </trkpt>
      <trkpt lat="40.6470320" lon="-1.9711730">
        <ele>1127.2</ele>
        <time>2019-07-06T05:31:57Z</time>
      </trkpt>
      <trkpt lat="40.6471080" lon="-1.9711800">
        <ele>1127.2</ele>
        <time>2019-07-06T05:31:58Z</time>
      </trkpt>
      <trkpt lat="40.6472520" lon="-1.9711880">
        <ele>1127.0</ele>
        <time>2019-07-06T05:32:00Z</time>
      </trkpt>
      <trkpt lat="40.6474570" lon="-1.9711370">
        <ele>1127.0</ele>
        <time>2019-07-06T05:32:03Z</time>
      </trkpt>
      <trkpt lat="40.6475200" lon="-1.9711110">
        <ele>1127.0</ele>
        <time>2019-07-06T05:32:04Z</time>
      </trkpt>
      <trkpt lat="40.6475790" lon="-1.9710940">
        <ele>1127.0</ele>
        <time>2019-07-06T05:32:05Z</time>
      </trkpt>
      <trkpt lat="40.6476810" lon="-1.9710980">
        <ele>1127.2</ele>
        <time>2019-07-06T05:32:07Z</time>
      </trkpt>
      <trkpt lat="40.6478500" lon="-1.9711860">
        <ele>1127.8</ele>
        <time>2019-07-06T05:32:11Z</time>
      </trkpt>
      <trkpt lat="40.6479180" lon="-1.9712460">
        <ele>1128.2</ele>
        <time>2019-07-06T05:32:13Z</time>
      </trkpt>
      <trkpt lat="40.6479940" lon="-1.9712810">
        <ele>1128.6</ele>
        <time>2019-07-06T05:32:15Z</time>
      </trkpt>
      <trkpt lat="40.6480340" lon="-1.9712880">
        <ele>1129.0</ele>
        <time>2019-07-06T05:32:16Z</time>
      </trkpt>
      <trkpt lat="40.6480790" lon="-1.9712900">
        <ele>1129.4</ele>
        <time>2019-07-06T05:32:17Z</time>
      </trkpt>
      <trkpt lat="40.6481270" lon="-1.9712900">
        <ele>1129.6</ele>
        <time>2019-07-06T05:32:18Z</time>
      </trkpt>
      <trkpt lat="40.6482600" lon="-1.9712870">
        <ele>1129.8</ele>
        <time>2019-07-06T05:32:21Z</time>
      </trkpt>
      <trkpt lat="40.6483760" lon="-1.9713230">
        <ele>1130.2</ele>
        <time>2019-07-06T05:32:24Z</time>
      </trkpt>
      <trkpt lat="40.6484110" lon="-1.9713370">
        <ele>1130.6</ele>
        <time>2019-07-06T05:32:25Z</time>
      </trkpt>
      <trkpt lat="40.6484810" lon="-1.9713670">
        <ele>1131.0</ele>
        <time>2019-07-06T05:32:27Z</time>
      </trkpt>
      <trkpt lat="40.6485440" lon="-1.9714000">
        <ele>1131.8</ele>
        <time>2019-07-06T05:32:29Z</time>
      </trkpt>
      <trkpt lat="40.6486450" lon="-1.9714670">
        <ele>1132.6</ele>
        <time>2019-07-06T05:32:32Z</time>
      </trkpt>
      <trkpt lat="40.6486840" lon="-1.9715020">
        <ele>1132.8</ele>
        <time>2019-07-06T05:32:33Z</time>
      </trkpt>
      <trkpt lat="40.6487660" lon="-1.9716410">
        <ele>1133.2</ele>
        <time>2019-07-06T05:32:36Z</time>
      </trkpt>
      <trkpt lat="40.6487800" lon="-1.9716910">
        <ele>1133.4</ele>
        <time>2019-07-06T05:32:37Z</time>
      </trkpt>
      <trkpt lat="40.6488030" lon="-1.9717880">
        <ele>1133.8</ele>
        <time>2019-07-06T05:32:39Z</time>
      </trkpt>
      <trkpt lat="40.6488270" lon="-1.9718680">
        <ele>1134.0</ele>
        <time>2019-07-06T05:32:41Z</time>
      </trkpt>
      <trkpt lat="40.6488380" lon="-1.9719010">
        <ele>1134.2</ele>
        <time>2019-07-06T05:32:42Z</time>
      </trkpt>
      <trkpt lat="40.6488590" lon="-1.9719840">
        <ele>1134.8</ele>
        <time>2019-07-06T05:32:44Z</time>
      </trkpt>
      <trkpt lat="40.6489090" lon="-1.9721030">
        <ele>1135.8</ele>
        <time>2019-07-06T05:32:47Z</time>
      </trkpt>
      <trkpt lat="40.6489280" lon="-1.9721440">
        <ele>1136.0</ele>
        <time>2019-07-06T05:32:48Z</time>
      </trkpt>
      <trkpt lat="40.6489790" lon="-1.9722740">
        <ele>1137.2</ele>
        <time>2019-07-06T05:32:51Z</time>
      </trkpt>
      <trkpt lat="40.6490290" lon="-1.9724100">
        <ele>1138.0</ele>
        <time>2019-07-06T05:32:54Z</time>
      </trkpt>
      <trkpt lat="40.6490690" lon="-1.9725050">
        <ele>1138.2</ele>
        <time>2019-07-06T05:32:56Z</time>
      </trkpt>
      <trkpt lat="40.6490970" lon="-1.9725470">
        <ele>1138.6</ele>
        <time>2019-07-06T05:32:57Z</time>
      </trkpt>
      <trkpt lat="40.6491330" lon="-1.9725830">
        <ele>1138.8</ele>
        <time>2019-07-06T05:32:58Z</time>
      </trkpt>
      <trkpt lat="40.6492760" lon="-1.9726510">
        <ele>1138.6</ele>
        <time>2019-07-06T05:33:01Z</time>
      </trkpt>
      <trkpt lat="40.6493230" lon="-1.9726650">
        <ele>1138.2</ele>
        <time>2019-07-06T05:33:02Z</time>
      </trkpt>
      <trkpt lat="40.6494810" lon="-1.9727190">
        <ele>1137.0</ele>
        <time>2019-07-06T05:33:05Z</time>
      </trkpt>
      <trkpt lat="40.6495880" lon="-1.9727620">
        <ele>1135.6</ele>
        <time>2019-07-06T05:33:07Z</time>
      </trkpt>
      <trkpt lat="40.6496400" lon="-1.9727950">
        <ele>1134.8</ele>
        <time>2019-07-06T05:33:08Z</time>
      </trkpt>
      <trkpt lat="40.6496910" lon="-1.9728400">
        <ele>1134.0</ele>
        <time>2019-07-06T05:33:09Z</time>
      </trkpt>
      <trkpt lat="40.6497340" lon="-1.9729000">
        <ele>1133.0</ele>
        <time>2019-07-06T05:33:10Z</time>
      </trkpt>
      <trkpt lat="40.6497940" lon="-1.9730310">
        <ele>1132.0</ele>
        <time>2019-07-06T05:33:12Z</time>
      </trkpt>
      <trkpt lat="40.6498030" lon="-1.9731990">
        <ele>1130.8</ele>
        <time>2019-07-06T05:33:14Z</time>
      </trkpt>
      <trkpt lat="40.6497910" lon="-1.9732850">
        <ele>1130.0</ele>
        <time>2019-07-06T05:33:15Z</time>
      </trkpt>
      <trkpt lat="40.6497780" lon="-1.9733650">
        <ele>1129.6</ele>
        <time>2019-07-06T05:33:16Z</time>
      </trkpt>
      <trkpt lat="40.6497860" lon="-1.9735370">
        <ele>1129.0</ele>
        <time>2019-07-06T05:33:18Z</time>
      </trkpt>
      <trkpt lat="40.6498520" lon="-1.9736860">
        <ele>1128.6</ele>
        <time>2019-07-06T05:33:20Z</time>
      </trkpt>
      <trkpt lat="40.6498920" lon="-1.9737480">
        <ele>1128.4</ele>
        <time>2019-07-06T05:33:21Z</time>
      </trkpt>
      <trkpt lat="40.6499560" lon="-1.9738400">
        <ele>1128.0</ele>
        <time>2019-07-06T05:33:23Z</time>
      </trkpt>
      <trkpt lat="40.6499800" lon="-1.9738660">
        <ele>1127.8</ele>
        <time>2019-07-06T05:33:24Z</time>
      </trkpt>
      <trkpt lat="40.6500000" lon="-1.9738840">
        <ele>1127.8</ele>
        <time>2019-07-06T05:33:25Z</time>
      </trkpt>
      <trkpt lat="40.6500190" lon="-1.9739110">
        <ele>1127.8</ele>
        <time>2019-07-06T05:33:27Z</time>
      </trkpt>
      <trkpt lat="40.6500180" lon="-1.9739280">
        <ele>1127.8</ele>
        <time>2019-07-06T05:33:28Z</time>
      </trkpt>
      <trkpt lat="40.6500140" lon="-1.9739290">
        <ele>1128.0</ele>
        <time>2019-07-06T05:33:30Z</time>
      </trkpt>
      <trkpt lat="40.6499680" lon="-1.9738980">
        <ele>1127.8</ele>
        <time>2019-07-06T05:33:56Z</time>
      </trkpt>
      <trkpt lat="40.6499510" lon="-1.9738860">
        <ele>1127.6</ele>
        <time>2019-07-06T05:33:57Z</time>
      </trkpt>
      <trkpt lat="40.6499280" lon="-1.9738780">
        <ele>1127.4</ele>
        <time>2019-07-06T05:33:58Z</time>
      </trkpt>
      <trkpt lat="40.6498090" lon="-1.9738010">
        <ele>1126.8</ele>
        <time>2019-07-06T05:34:02Z</time>
      </trkpt>
      <trkpt lat="40.6497660" lon="-1.9737460">
        <ele>1126.6</ele>
        <time>2019-07-06T05:34:04Z</time>
      </trkpt>
      <trkpt lat="40.6497320" lon="-1.9736770">
        <ele>1126.2</ele>
        <time>2019-07-06T05:34:06Z</time>
      </trkpt>
      <trkpt lat="40.6496870" lon="-1.9735580">
        <ele>1125.6</ele>
        <time>2019-07-06T05:34:09Z</time>
      </trkpt>
      <trkpt lat="40.6496730" lon="-1.9735350">
        <ele>1125.4</ele>
        <time>2019-07-06T05:34:10Z</time>
      </trkpt>
      <trkpt lat="40.6496340" lon="-1.9734160">
        <ele>1124.8</ele>
        <time>2019-07-06T05:34:15Z</time>
      </trkpt>
      <trkpt lat="40.6496490" lon="-1.9732690">
        <ele>1124.4</ele>
        <time>2019-07-06T05:34:19Z</time>
      </trkpt>
      <trkpt lat="40.6496340" lon="-1.9732320">
        <ele>1124.4</ele>
        <time>2019-07-06T05:34:20Z</time>
      </trkpt>
      <trkpt lat="40.6495880" lon="-1.9731730">
        <ele>1124.0</ele>
        <time>2019-07-06T05:34:22Z</time>
      </trkpt>
      <trkpt lat="40.6495330" lon="-1.9731190">
        <ele>1123.8</ele>
        <time>2019-07-06T05:34:24Z</time>
      </trkpt>
      <trkpt lat="40.6495000" lon="-1.9730950">
        <ele>1123.8</ele>
        <time>2019-07-06T05:34:25Z</time>
      </trkpt>
      <trkpt lat="40.6494610" lon="-1.9730770">
        <ele>1123.8</ele>
        <time>2019-07-06T05:34:26Z</time>
      </trkpt>
      <trkpt lat="40.6494180" lon="-1.9730620">
        <ele>1123.8</ele>
        <time>2019-07-06T05:34:27Z</time>
      </trkpt>
      <trkpt lat="40.6493750" lon="-1.9730520">
        <ele>1123.8</ele>
        <time>2019-07-06T05:34:28Z</time>
      </trkpt>
      <trkpt lat="40.6493330" lon="-1.9730450">
        <ele>1123.8</ele>
        <time>2019-07-06T05:34:29Z</time>
      </trkpt>
      <trkpt lat="40.6490990" lon="-1.9730180">
        <ele>1124.0</ele>
        <time>2019-07-06T05:34:34Z</time>
      </trkpt>
      <trkpt lat="40.6489660" lon="-1.9730110">
        <ele>1122.8</ele>
        <time>2019-07-06T05:34:37Z</time>
      </trkpt>
      <trkpt lat="40.6489230" lon="-1.9730160">
        <ele>1122.2</ele>
        <time>2019-07-06T05:34:38Z</time>
      </trkpt>
      <trkpt lat="40.6488840" lon="-1.9730250">
        <ele>1121.6</ele>
        <time>2019-07-06T05:34:39Z</time>
      </trkpt>
      <trkpt lat="40.6488090" lon="-1.9730460">
        <ele>1120.4</ele>
        <time>2019-07-06T05:34:41Z</time>
      </trkpt>
      <trkpt lat="40.6487700" lon="-1.9730550">
        <ele>1119.2</ele>
        <time>2019-07-06T05:34:42Z</time>
      </trkpt>
      <trkpt lat="40.6486920" lon="-1.9730830">
        <ele>1117.6</ele>
        <time>2019-07-06T05:34:44Z</time>
      </trkpt>
      <trkpt lat="40.6486190" lon="-1.9731130">
        <ele>1116.2</ele>
        <time>2019-07-06T05:34:46Z</time>
      </trkpt>
      <trkpt lat="40.6485860" lon="-1.9731250">
        <ele>1115.0</ele>
        <time>2019-07-06T05:34:47Z</time>
      </trkpt>
      <trkpt lat="40.6485520" lon="-1.9731320">
        <ele>1114.0</ele>
        <time>2019-07-06T05:34:48Z</time>
      </trkpt>
      <trkpt lat="40.6484850" lon="-1.9731300">
        <ele>1112.2</ele>
        <time>2019-07-06T05:34:50Z</time>
      </trkpt>
      <trkpt lat="40.6484510" lon="-1.9731220">
        <ele>1111.4</ele>
        <time>2019-07-06T05:34:51Z</time>
      </trkpt>
      <trkpt lat="40.6484150" lon="-1.9731100">
        <ele>1110.8</ele>
        <time>2019-07-06T05:34:52Z</time>
      </trkpt>
      <trkpt lat="40.6483780" lon="-1.9730890">
        <ele>1110.2</ele>
        <time>2019-07-06T05:34:53Z</time>
      </trkpt>
      <trkpt lat="40.6483390" lon="-1.9730610">
        <ele>1109.6</ele>
        <time>2019-07-06T05:34:54Z</time>
      </trkpt>
      <trkpt lat="40.6482950" lon="-1.9730260">
        <ele>1108.8</ele>
        <time>2019-07-06T05:34:55Z</time>
      </trkpt>
      <trkpt lat="40.6482480" lon="-1.9729890">
        <ele>1108.2</ele>
        <time>2019-07-06T05:34:56Z</time>
      </trkpt>
      <trkpt lat="40.6481620" lon="-1.9729230">
        <ele>1107.0</ele>
        <time>2019-07-06T05:34:58Z</time>
      </trkpt>
      <trkpt lat="40.6480780" lon="-1.9728630">
        <ele>1105.6</ele>
        <time>2019-07-06T05:35:00Z</time>
      </trkpt>
      <trkpt lat="40.6479960" lon="-1.9728140">
        <ele>1104.0</ele>
        <time>2019-07-06T05:35:02Z</time>
      </trkpt>
      <trkpt lat="40.6479140" lon="-1.9728170">
        <ele>1102.8</ele>
        <time>2019-07-06T05:35:04Z</time>
      </trkpt>
      <trkpt lat="40.6478740" lon="-1.9728490">
        <ele>1102.0</ele>
        <time>2019-07-06T05:35:05Z</time>
      </trkpt>
      <trkpt lat="40.6478380" lon="-1.9728990">
        <ele>1101.2</ele>
        <time>2019-07-06T05:35:06Z</time>
      </trkpt>
      <trkpt lat="40.6478020" lon="-1.9729580">
        <ele>1100.6</ele>
        <time>2019-07-06T05:35:07Z</time>
      </trkpt>
      <trkpt lat="40.6477650" lon="-1.9730200">
        <ele>1100.2</ele>
        <time>2019-07-06T05:35:08Z</time>
      </trkpt>
      <trkpt lat="40.6477240" lon="-1.9730810">
        <ele>1099.6</ele>
        <time>2019-07-06T05:35:09Z</time>
      </trkpt>
      <trkpt lat="40.6476360" lon="-1.9732020">
        <ele>1098.8</ele>
        <time>2019-07-06T05:35:11Z</time>
      </trkpt>
      <trkpt lat="40.6474620" lon="-1.9734090">
        <ele>1098.4</ele>
        <time>2019-07-06T05:35:15Z</time>
      </trkpt>
      <trkpt lat="40.6472970" lon="-1.9735810">
        <ele>1097.8</ele>
        <time>2019-07-06T05:35:19Z</time>
      </trkpt>
      <trkpt lat="40.6472700" lon="-1.9736130">
        <ele>1097.6</ele>
        <time>2019-07-06T05:35:20Z</time>
      </trkpt>
      <trkpt lat="40.6472490" lon="-1.9736400">
        <ele>1096.4</ele>
        <time>2019-07-06T05:35:22Z</time>
      </trkpt>
      <trkpt lat="40.6472520" lon="-1.9736440">
        <ele>1096.2</ele>
        <time>2019-07-06T05:35:23Z</time>
      </trkpt>
      <trkpt lat="40.6472520" lon="-1.9736410">
        <ele>1096.0</ele>
        <time>2019-07-06T05:35:24Z</time>
      </trkpt>
      <trkpt lat="40.6471140" lon="-1.9737600">
        <ele>1096.2</ele>
        <time>2019-07-06T05:38:41Z</time>
      </trkpt>
      <trkpt lat="40.6470770" lon="-1.9737940">
        <ele>1096.2</ele>
        <time>2019-07-06T05:38:43Z</time>
      </trkpt>
      <trkpt lat="40.6469370" lon="-1.9739470">
        <ele>1096.6</ele>
        <time>2019-07-06T05:38:50Z</time>
      </trkpt>
      <trkpt lat="40.6469100" lon="-1.9739900">
        <ele>1096.6</ele>
        <time>2019-07-06T05:38:52Z</time>
      </trkpt>
      <trkpt lat="40.6469040" lon="-1.9740090">
        <ele>1096.6</ele>
        <time>2019-07-06T05:38:53Z</time>
      </trkpt>
      <trkpt lat="40.6469110" lon="-1.9740390">
        <ele>1096.6</ele>
        <time>2019-07-06T05:38:55Z</time>
      </trkpt>
      <trkpt lat="40.6469260" lon="-1.9740550">
        <ele>1096.4</ele>
        <time>2019-07-06T05:38:58Z</time>
      </trkpt>
      <trkpt lat="40.6469750" lon="-1.9740630">
        <ele>1096.0</ele>
        <time>2019-07-06T05:39:02Z</time>
      </trkpt>
      <trkpt lat="40.6469960" lon="-1.9740850">
        <ele>1095.8</ele>
        <time>2019-07-06T05:39:03Z</time>
      </trkpt>
      <trkpt lat="40.6470250" lon="-1.9741400">
        <ele>1095.4</ele>
        <time>2019-07-06T05:39:05Z</time>
      </trkpt>
      <trkpt lat="40.6470680" lon="-1.9742480">
        <ele>1095.2</ele>
        <time>2019-07-06T05:39:09Z</time>
      </trkpt>
      <trkpt lat="40.6471080" lon="-1.9743560">
        <ele>1095.6</ele>
        <time>2019-07-06T05:39:13Z</time>
      </trkpt>
      <trkpt lat="40.6471070" lon="-1.9744970">
        <ele>1096.0</ele>
        <time>2019-07-06T05:39:17Z</time>
      </trkpt>
      <trkpt lat="40.6471160" lon="-1.9745220">
        <ele>1096.0</ele>
        <time>2019-07-06T05:39:18Z</time>
      </trkpt>
      <trkpt lat="40.6471240" lon="-1.9746010">
        <ele>1095.8</ele>
        <time>2019-07-06T05:39:20Z</time>
      </trkpt>
      <trkpt lat="40.6471080" lon="-1.9747520">
        <ele>1095.4</ele>
        <time>2019-07-06T05:39:24Z</time>
      </trkpt>
      <trkpt lat="40.6470740" lon="-1.9749110">
        <ele>1095.4</ele>
        <time>2019-07-06T05:39:28Z</time>
      </trkpt>
      <trkpt lat="40.6470580" lon="-1.9749630">
        <ele>1095.2</ele>
        <time>2019-07-06T05:39:32Z</time>
      </trkpt>
      <trkpt lat="40.6470930" lon="-1.9748500">
        <ele>1095.2</ele>
        <time>2019-07-06T05:39:53Z</time>
      </trkpt>
      <trkpt lat="40.6471020" lon="-1.9748170">
        <ele>1095.2</ele>
        <time>2019-07-06T05:39:55Z</time>
      </trkpt>
      <trkpt lat="40.6471150" lon="-1.9748270">
        <ele>1095.2</ele>
        <time>2019-07-06T05:39:59Z</time>
      </trkpt>
      <trkpt lat="40.6470740" lon="-1.9749140">
        <ele>1095.0</ele>
        <time>2019-07-06T05:40:05Z</time>
      </trkpt>
      <trkpt lat="40.6470310" lon="-1.9750150">
        <ele>1095.0</ele>
        <time>2019-07-06T05:40:09Z</time>
      </trkpt>
      <trkpt lat="40.6470140" lon="-1.9750340">
        <ele>1095.0</ele>
        <time>2019-07-06T05:40:10Z</time>
      </trkpt>
      <trkpt lat="40.6469750" lon="-1.9751440">
        <ele>1095.6</ele>
        <time>2019-07-06T05:40:14Z</time>
      </trkpt>
      <trkpt lat="40.6469340" lon="-1.9753020">
        <ele>1095.6</ele>
        <time>2019-07-06T05:40:18Z</time>
      </trkpt>
      <trkpt lat="40.6469320" lon="-1.9753960">
        <ele>1095.6</ele>
        <time>2019-07-06T05:40:21Z</time>
      </trkpt>
      <trkpt lat="40.6469350" lon="-1.9754280">
        <ele>1095.8</ele>
        <time>2019-07-06T05:40:22Z</time>
      </trkpt>
      <trkpt lat="40.6469400" lon="-1.9755390">
        <ele>1095.8</ele>
        <time>2019-07-06T05:40:25Z</time>
      </trkpt>
      <trkpt lat="40.6469310" lon="-1.9756200">
        <ele>1096.0</ele>
        <time>2019-07-06T05:40:27Z</time>
      </trkpt>
      <trkpt lat="40.6468960" lon="-1.9757770">
        <ele>1096.2</ele>
        <time>2019-07-06T05:40:31Z</time>
      </trkpt>
      <trkpt lat="40.6468720" lon="-1.9758540">
        <ele>1096.4</ele>
        <time>2019-07-06T05:40:33Z</time>
      </trkpt>
      <trkpt lat="40.6468540" lon="-1.9759210">
        <ele>1097.2</ele>
        <time>2019-07-06T05:40:35Z</time>
      </trkpt>
      <trkpt lat="40.6468180" lon="-1.9760070">
        <ele>1098.4</ele>
        <time>2019-07-06T05:40:38Z</time>
      </trkpt>
      <trkpt lat="40.6468250" lon="-1.9760490">
        <ele>1099.0</ele>
        <time>2019-07-06T05:40:40Z</time>
      </trkpt>
      <trkpt lat="40.6468280" lon="-1.9760750">
        <ele>1099.6</ele>
        <time>2019-07-06T05:40:41Z</time>
      </trkpt>
      <trkpt lat="40.6468240" lon="-1.9761030">
        <ele>1100.0</ele>
        <time>2019-07-06T05:40:42Z</time>
      </trkpt>
      <trkpt lat="40.6468130" lon="-1.9761750">
        <ele>1100.6</ele>
        <time>2019-07-06T05:40:44Z</time>
      </trkpt>
      <trkpt lat="40.6467990" lon="-1.9762150">
        <ele>1101.0</ele>
        <time>2019-07-06T05:40:46Z</time>
      </trkpt>
      <trkpt lat="40.6467930" lon="-1.9762290">
        <ele>1101.2</ele>
        <time>2019-07-06T05:40:47Z</time>
      </trkpt>
      <trkpt lat="40.6468320" lon="-1.9765240">
        <ele>1104.4</ele>
        <time>2019-07-06T05:41:05Z</time>
      </trkpt>
      <trkpt lat="40.6468560" lon="-1.9765520">
        <ele>1104.8</ele>
        <time>2019-07-06T05:41:07Z</time>
      </trkpt>
      <trkpt lat="40.6469340" lon="-1.9766170">
        <ele>1105.2</ele>
        <time>2019-07-06T05:41:13Z</time>
      </trkpt>
      <trkpt lat="40.6469510" lon="-1.9766400">
        <ele>1105.4</ele>
        <time>2019-07-06T05:41:15Z</time>
      </trkpt>
      <trkpt lat="40.6469640" lon="-1.9766630">
        <ele>1105.2</ele>
        <time>2019-07-06T05:41:19Z</time>
      </trkpt>
      <trkpt lat="40.6470330" lon="-1.9767140">
        <ele>1103.6</ele>
        <time>2019-07-06T05:41:34Z</time>
      </trkpt>
      <trkpt lat="40.6470420" lon="-1.9767320">
        <ele>1103.4</ele>
        <time>2019-07-06T05:41:35Z</time>
      </trkpt>
      <trkpt lat="40.6470640" lon="-1.9767990">
        <ele>1103.2</ele>
        <time>2019-07-06T05:41:39Z</time>
      </trkpt>
      <trkpt lat="40.6470620" lon="-1.9768150">
        <ele>1103.0</ele>
        <time>2019-07-06T05:41:40Z</time>
      </trkpt>
      <trkpt lat="40.6470600" lon="-1.9768240">
        <ele>1103.0</ele>
        <time>2019-07-06T05:41:41Z</time>
      </trkpt>
      <trkpt lat="40.6470560" lon="-1.9768360">
        <ele>1103.0</ele>
        <time>2019-07-06T05:41:43Z</time>
      </trkpt>
      <trkpt lat="40.6470610" lon="-1.9769330">
        <ele>1103.8</ele>
        <time>2019-07-06T05:41:50Z</time>
      </trkpt>
      <trkpt lat="40.6470640" lon="-1.9769500">
        <ele>1104.0</ele>
        <time>2019-07-06T05:41:51Z</time>
      </trkpt>
      <trkpt lat="40.6470740" lon="-1.9769830">
        <ele>1104.6</ele>
        <time>2019-07-06T05:41:54Z</time>
      </trkpt>
      <trkpt lat="40.6470750" lon="-1.9769830">
        <ele>1105.0</ele>
        <time>2019-07-06T05:41:55Z</time>
      </trkpt>
      <trkpt lat="40.6473260" lon="-1.9774180">
        <ele>1111.8</ele>
        <time>2019-07-06T05:42:37Z</time>
      </trkpt>
      <trkpt lat="40.6473410" lon="-1.9774220">
        <ele>1111.8</ele>
        <time>2019-07-06T05:42:38Z</time>
      </trkpt>
      <trkpt lat="40.6474110" lon="-1.9774540">
        <ele>1111.8</ele>
        <time>2019-07-06T05:42:44Z</time>
      </trkpt>
      <trkpt lat="40.6474310" lon="-1.9774840">
        <ele>1111.6</ele>
        <time>2019-07-06T05:42:49Z</time>
      </trkpt>
      <trkpt lat="40.6474720" lon="-1.9775590">
        <ele>1111.2</ele>
        <time>2019-07-06T05:42:58Z</time>
      </trkpt>
      <trkpt lat="40.6474790" lon="-1.9775760">
        <ele>1111.2</ele>
        <time>2019-07-06T05:42:59Z</time>
      </trkpt>
      <trkpt lat="40.6475050" lon="-1.9776420">
        <ele>1110.8</ele>
        <time>2019-07-06T05:43:03Z</time>
      </trkpt>
      <trkpt lat="40.6475120" lon="-1.9776550">
        <ele>1110.6</ele>
        <time>2019-07-06T05:43:04Z</time>
      </trkpt>
      <trkpt lat="40.6475230" lon="-1.9776780">
        <ele>1110.6</ele>
        <time>2019-07-06T05:43:06Z</time>
      </trkpt>
      <trkpt lat="40.6475300" lon="-1.9776990">
        <ele>1110.8</ele>
        <time>2019-07-06T05:43:08Z</time>
      </trkpt>
      <trkpt lat="40.6475360" lon="-1.9777330">
        <ele>1111.2</ele>
        <time>2019-07-06T05:43:11Z</time>
      </trkpt>
      <trkpt lat="40.6475530" lon="-1.9777750">
        <ele>1112.0</ele>
        <time>2019-07-06T05:43:15Z</time>
      </trkpt>
      <trkpt lat="40.6475720" lon="-1.9778000">
        <ele>1113.0</ele>
        <time>2019-07-06T05:43:18Z</time>
      </trkpt>
      <trkpt lat="40.6476130" lon="-1.9778600">
        <ele>1113.6</ele>
        <time>2019-07-06T05:43:24Z</time>
      </trkpt>
      <trkpt lat="40.6476290" lon="-1.9778670">
        <ele>1113.6</ele>
        <time>2019-07-06T05:43:26Z</time>
      </trkpt>
      <trkpt lat="40.6477080" lon="-1.9779050">
        <ele>1113.2</ele>
        <time>2019-07-06T05:43:35Z</time>
      </trkpt>
      <trkpt lat="40.6477960" lon="-1.9779310">
        <ele>1113.0</ele>
        <time>2019-07-06T05:43:42Z</time>
      </trkpt>
      <trkpt lat="40.6478610" lon="-1.9779560">
        <ele>1114.0</ele>
        <time>2019-07-06T05:43:49Z</time>
      </trkpt>
      <trkpt lat="40.6478700" lon="-1.9779560">
        <ele>1114.2</ele>
        <time>2019-07-06T05:43:50Z</time>
      </trkpt>
      <trkpt lat="40.6479150" lon="-1.9779650">
        <ele>1115.4</ele>
        <time>2019-07-06T05:43:55Z</time>
      </trkpt>
      <trkpt lat="40.6479620" lon="-1.9779130">
        <ele>1116.4</ele>
        <time>2019-07-06T05:44:03Z</time>
      </trkpt>
      <trkpt lat="40.6479660" lon="-1.9779060">
        <ele>1116.4</ele>
        <time>2019-07-06T05:44:04Z</time>
      </trkpt>
      <trkpt lat="40.6479820" lon="-1.9778520">
        <ele>1117.0</ele>
        <time>2019-07-06T05:44:09Z</time>
      </trkpt>
      <trkpt lat="40.6479750" lon="-1.9778460">
        <ele>1117.4</ele>
        <time>2019-07-06T05:44:11Z</time>
      </trkpt>
      <trkpt lat="40.6481110" lon="-1.9778260">
        <ele>1118.8</ele>
        <time>2019-07-06T05:45:14Z</time>
      </trkpt>
      <trkpt lat="40.6481250" lon="-1.9778290">
        <ele>1119.0</ele>
        <time>2019-07-06T05:45:15Z</time>
      </trkpt>
      <trkpt lat="40.6481510" lon="-1.9778340">
        <ele>1119.2</ele>
        <time>2019-07-06T05:45:17Z</time>
      </trkpt>
      <trkpt lat="40.6481980" lon="-1.9778420">
        <ele>1119.8</ele>
        <time>2019-07-06T05:45:20Z</time>
      </trkpt>
      <trkpt lat="40.6482110" lon="-1.9778550">
        <ele>1120.0</ele>
        <time>2019-07-06T05:45:21Z</time>
      </trkpt>
      <trkpt lat="40.6482170" lon="-1.9778620">
        <ele>1120.2</ele>
        <time>2019-07-06T05:45:22Z</time>
      </trkpt>
      <trkpt lat="40.6482180" lon="-1.9778630">
        <ele>1120.6</ele>
        <time>2019-07-06T05:45:23Z</time>
      </trkpt>
      <trkpt lat="40.6482490" lon="-1.9780170">
        <ele>1122.4</ele>
        <time>2019-07-06T05:45:43Z</time>
      </trkpt>
      <trkpt lat="40.6482510" lon="-1.9780470">
        <ele>1122.4</ele>
        <time>2019-07-06T05:45:44Z</time>
      </trkpt>
      <trkpt lat="40.6482520" lon="-1.9780750">
        <ele>1122.4</ele>
        <time>2019-07-06T05:45:45Z</time>
      </trkpt>
      <trkpt lat="40.6482490" lon="-1.9781140">
        <ele>1122.6</ele>
        <time>2019-07-06T05:45:47Z</time>
      </trkpt>
      <trkpt lat="40.6482570" lon="-1.9781710">
        <ele>1122.8</ele>
        <time>2019-07-06T05:45:50Z</time>
      </trkpt>
      <trkpt lat="40.6482980" lon="-1.9782560">
        <ele>1122.4</ele>
        <time>2019-07-06T05:45:53Z</time>
      </trkpt>
      <trkpt lat="40.6483310" lon="-1.9783170">
        <ele>1122.0</ele>
        <time>2019-07-06T05:45:55Z</time>
      </trkpt>
      <trkpt lat="40.6483560" lon="-1.9783540">
        <ele>1121.4</ele>
        <time>2019-07-06T05:45:57Z</time>
      </trkpt>
      <trkpt lat="40.6483800" lon="-1.9783930">
        <ele>1120.6</ele>
        <time>2019-07-06T05:45:59Z</time>
      </trkpt>
      <trkpt lat="40.6483960" lon="-1.9784140">
        <ele>1120.4</ele>
        <time>2019-07-06T05:46:00Z</time>
      </trkpt>
      <trkpt lat="40.6484150" lon="-1.9784360">
        <ele>1120.2</ele>
        <time>2019-07-06T05:46:01Z</time>
      </trkpt>
      <trkpt lat="40.6484630" lon="-1.9785450">
        <ele>1119.6</ele>
        <time>2019-07-06T05:46:04Z</time>
      </trkpt>
      <trkpt lat="40.6484750" lon="-1.9785980">
        <ele>1119.2</ele>
        <time>2019-07-06T05:46:05Z</time>
      </trkpt>
      <trkpt lat="40.6484830" lon="-1.9786560">
        <ele>1118.8</ele>
        <time>2019-07-06T05:46:06Z</time>
      </trkpt>
      <trkpt lat="40.6484780" lon="-1.9788280">
        <ele>1117.6</ele>
        <time>2019-07-06T05:46:09Z</time>
      </trkpt>
      <trkpt lat="40.6484730" lon="-1.9789450">
        <ele>1116.2</ele>
        <time>2019-07-06T05:46:11Z</time>
      </trkpt>
      <trkpt lat="40.6484790" lon="-1.9791340">
        <ele>1114.4</ele>
        <time>2019-07-06T05:46:14Z</time>
      </trkpt>
      <trkpt lat="40.6484830" lon="-1.9791970">
        <ele>1113.6</ele>
        <time>2019-07-06T05:46:15Z</time>
      </trkpt>
      <trkpt lat="40.6484850" lon="-1.9792500">
        <ele>1113.0</ele>
        <time>2019-07-06T05:46:16Z</time>
      </trkpt>
      <trkpt lat="40.6484810" lon="-1.9793600">
        <ele>1112.0</ele>
        <time>2019-07-06T05:46:18Z</time>
      </trkpt>
      <trkpt lat="40.6484670" lon="-1.9794200">
        <ele>1111.4</ele>
        <time>2019-07-06T05:46:19Z</time>
      </trkpt>
      <trkpt lat="40.6484420" lon="-1.9794800">
        <ele>1111.0</ele>
        <time>2019-07-06T05:46:20Z</time>
      </trkpt>
      <trkpt lat="40.6483810" lon="-1.9795860">
        <ele>1109.2</ele>
        <time>2019-07-06T05:46:22Z</time>
      </trkpt>
      <trkpt lat="40.6483520" lon="-1.9796380">
        <ele>1108.4</ele>
        <time>2019-07-06T05:46:23Z</time>
      </trkpt>
      <trkpt lat="40.6483280" lon="-1.9796900">
        <ele>1107.8</ele>
        <time>2019-07-06T05:46:24Z</time>
      </trkpt>
      <trkpt lat="40.6483140" lon="-1.9797990">
        <ele>1106.4</ele>
        <time>2019-07-06T05:46:26Z</time>
      </trkpt>
      <trkpt lat="40.6483210" lon="-1.9798580">
        <ele>1105.8</ele>
        <time>2019-07-06T05:46:27Z</time>
      </trkpt>
      <trkpt lat="40.6483360" lon="-1.9799200">
        <ele>1105.0</ele>
        <time>2019-07-06T05:46:28Z</time>
      </trkpt>
      <trkpt lat="40.6483760" lon="-1.9800610">
        <ele>1104.0</ele>
        <time>2019-07-06T05:46:30Z</time>
      </trkpt>
      <trkpt lat="40.6483980" lon="-1.9801470">
        <ele>1103.6</ele>
        <time>2019-07-06T05:46:31Z</time>
      </trkpt>
      <trkpt lat="40.6484550" lon="-1.9803420">
        <ele>1102.8</ele>
        <time>2019-07-06T05:46:33Z</time>
      </trkpt>
      <trkpt lat="40.6485320" lon="-1.9805380">
        <ele>1101.0</ele>
        <time>2019-07-06T05:46:35Z</time>
      </trkpt>
      <trkpt lat="40.6486360" lon="-1.9807150">
        <ele>1100.0</ele>
        <time>2019-07-06T05:46:37Z</time>
      </trkpt>
      <trkpt lat="40.6487600" lon="-1.9808660">
        <ele>1098.8</ele>
        <time>2019-07-06T05:46:39Z</time>
      </trkpt>
      <trkpt lat="40.6489000" lon="-1.9809890">
        <ele>1097.8</ele>
        <time>2019-07-06T05:46:41Z</time>
      </trkpt>
      <trkpt lat="40.6489720" lon="-1.9810470">
        <ele>1097.6</ele>
        <time>2019-07-06T05:46:42Z</time>
      </trkpt>
      <trkpt lat="40.6490370" lon="-1.9811020">
        <ele>1097.4</ele>
        <time>2019-07-06T05:46:43Z</time>
      </trkpt>
      <trkpt lat="40.6491580" lon="-1.9812090">
        <ele>1096.6</ele>
        <time>2019-07-06T05:46:45Z</time>
      </trkpt>
      <trkpt lat="40.6492120" lon="-1.9812560">
        <ele>1096.4</ele>
        <time>2019-07-06T05:46:46Z</time>
      </trkpt>
      <trkpt lat="40.6492660" lon="-1.9812960">
        <ele>1096.2</ele>
        <time>2019-07-06T05:46:47Z</time>
      </trkpt>
      <trkpt lat="40.6493210" lon="-1.9813420">
        <ele>1096.0</ele>
        <time>2019-07-06T05:46:48Z</time>
      </trkpt>
      <trkpt lat="40.6494930" lon="-1.9814860">
        <ele>1095.8</ele>
        <time>2019-07-06T05:46:51Z</time>
      </trkpt>
      <trkpt lat="40.6495450" lon="-1.9815170">
        <ele>1095.4</ele>
        <time>2019-07-06T05:46:52Z</time>
      </trkpt>
      <trkpt lat="40.6496000" lon="-1.9815420">
        <ele>1095.2</ele>
        <time>2019-07-06T05:46:53Z</time>
      </trkpt>
      <trkpt lat="40.6497220" lon="-1.9815860">
        <ele>1094.8</ele>
        <time>2019-07-06T05:46:55Z</time>
      </trkpt>
      <trkpt lat="40.6500310" lon="-1.9816870">
        <ele>1094.2</ele>
        <time>2019-07-06T05:47:00Z</time>
      </trkpt>
      <trkpt lat="40.6502180" lon="-1.9817610">
        <ele>1092.6</ele>
        <time>2019-07-06T05:47:03Z</time>
      </trkpt>
      <trkpt lat="40.6503320" lon="-1.9818180">
        <ele>1091.4</ele>
        <time>2019-07-06T05:47:05Z</time>
      </trkpt>
      <trkpt lat="40.6503890" lon="-1.9818560">
        <ele>1090.8</ele>
        <time>2019-07-06T05:47:06Z</time>
      </trkpt>
      <trkpt lat="40.6505080" lon="-1.9819540">
        <ele>1090.2</ele>
        <time>2019-07-06T05:47:08Z</time>
      </trkpt>
      <trkpt lat="40.6506230" lon="-1.9820560">
        <ele>1089.2</ele>
        <time>2019-07-06T05:47:10Z</time>
      </trkpt>
      <trkpt lat="40.6506810" lon="-1.9821080">
        <ele>1088.6</ele>
        <time>2019-07-06T05:47:11Z</time>
      </trkpt>
      <trkpt lat="40.6507390" lon="-1.9821540">
        <ele>1088.0</ele>
        <time>2019-07-06T05:47:12Z</time>
      </trkpt>
      <trkpt lat="40.6508550" lon="-1.9822200">
        <ele>1086.8</ele>
        <time>2019-07-06T05:47:14Z</time>
      </trkpt>
      <trkpt lat="40.6509100" lon="-1.9822450">
        <ele>1086.6</ele>
        <time>2019-07-06T05:47:15Z</time>
      </trkpt>
      <trkpt lat="40.6509650" lon="-1.9822770">
        <ele>1086.2</ele>
        <time>2019-07-06T05:47:16Z</time>
      </trkpt>
      <trkpt lat="40.6510630" lon="-1.9823660">
        <ele>1085.6</ele>
        <time>2019-07-06T05:47:18Z</time>
      </trkpt>
      <trkpt lat="40.6511030" lon="-1.9824250">
        <ele>1085.2</ele>
        <time>2019-07-06T05:47:19Z</time>
      </trkpt>
      <trkpt lat="40.6511770" lon="-1.9825530">
        <ele>1084.4</ele>
        <time>2019-07-06T05:47:21Z</time>
      </trkpt>
      <trkpt lat="40.6512070" lon="-1.9826170">
        <ele>1084.2</ele>
        <time>2019-07-06T05:47:22Z</time>
      </trkpt>
      <trkpt lat="40.6512600" lon="-1.9827640">
        <ele>1083.8</ele>
        <time>2019-07-06T05:47:24Z</time>
      </trkpt>
      <trkpt lat="40.6513090" lon="-1.9829230">
        <ele>1083.2</ele>
        <time>2019-07-06T05:47:26Z</time>
      </trkpt>
      <trkpt lat="40.6513450" lon="-1.9830760">
        <ele>1082.8</ele>
        <time>2019-07-06T05:47:28Z</time>
      </trkpt>
      <trkpt lat="40.6513840" lon="-1.9832430">
        <ele>1082.6</ele>
        <time>2019-07-06T05:47:30Z</time>
      </trkpt>
      <trkpt lat="40.6514160" lon="-1.9833930">
        <ele>1082.2</ele>
        <time>2019-07-06T05:47:32Z</time>
      </trkpt>
      <trkpt lat="40.6514780" lon="-1.9836040">
        <ele>1081.8</ele>
        <time>2019-07-06T05:47:35Z</time>
      </trkpt>
      <trkpt lat="40.6515020" lon="-1.9836770">
        <ele>1081.8</ele>
        <time>2019-07-06T05:47:36Z</time>
      </trkpt>
      <trkpt lat="40.6515540" lon="-1.9838130">
        <ele>1081.6</ele>
        <time>2019-07-06T05:47:38Z</time>
      </trkpt>
      <trkpt lat="40.6516510" lon="-1.9839760">
        <ele>1081.6</ele>
        <time>2019-07-06T05:47:41Z</time>
      </trkpt>
      <trkpt lat="40.6516840" lon="-1.9840270">
        <ele>1081.8</ele>
        <time>2019-07-06T05:47:42Z</time>
      </trkpt>
      <trkpt lat="40.6517730" lon="-1.9842200">
        <ele>1081.6</ele>
        <time>2019-07-06T05:47:45Z</time>
      </trkpt>
      <trkpt lat="40.6517910" lon="-1.9843890">
        <ele>1081.4</ele>
        <time>2019-07-06T05:47:47Z</time>
      </trkpt>
      <trkpt lat="40.6517940" lon="-1.9844860">
        <ele>1081.2</ele>
        <time>2019-07-06T05:47:48Z</time>
      </trkpt>
      <trkpt lat="40.6517980" lon="-1.9850370">
        <ele>1080.0</ele>
        <time>2019-07-06T05:47:54Z</time>
      </trkpt>
      <trkpt lat="40.6517910" lon="-1.9852040">
        <ele>1079.2</ele>
        <time>2019-07-06T05:47:56Z</time>
      </trkpt>
      <trkpt lat="40.6517820" lon="-1.9853640">
        <ele>1079.0</ele>
        <time>2019-07-06T05:47:58Z</time>
      </trkpt>
      <trkpt lat="40.6517770" lon="-1.9854440">
        <ele>1078.8</ele>
        <time>2019-07-06T05:47:59Z</time>
      </trkpt>
      <trkpt lat="40.6517760" lon="-1.9855290">
        <ele>1078.8</ele>
        <time>2019-07-06T05:48:00Z</time>
      </trkpt>
      <trkpt lat="40.6517770" lon="-1.9856970">
        <ele>1078.8</ele>
        <time>2019-07-06T05:48:02Z</time>
      </trkpt>
      <trkpt lat="40.6517830" lon="-1.9859420">
        <ele>1078.6</ele>
        <time>2019-07-06T05:48:05Z</time>
      </trkpt>
      <trkpt lat="40.6517920" lon="-1.9864150">
        <ele>1078.6</ele>
        <time>2019-07-06T05:48:11Z</time>
      </trkpt>
      <trkpt lat="40.6517970" lon="-1.9866420">
        <ele>1078.8</ele>
        <time>2019-07-06T05:48:14Z</time>
      </trkpt>
      <trkpt lat="40.6518090" lon="-1.9868000">
        <ele>1078.8</ele>
        <time>2019-07-06T05:48:16Z</time>
      </trkpt>
      <trkpt lat="40.6518510" lon="-1.9871710">
        <ele>1079.0</ele>
        <time>2019-07-06T05:48:21Z</time>
      </trkpt>
      <trkpt lat="40.6518730" lon="-1.9872400">
        <ele>1078.8</ele>
        <time>2019-07-06T05:48:22Z</time>
      </trkpt>
      <trkpt lat="40.6519330" lon="-1.9874430">
        <ele>1078.4</ele>
        <time>2019-07-06T05:48:25Z</time>
      </trkpt>
      <trkpt lat="40.6519590" lon="-1.9875670">
        <ele>1078.6</ele>
        <time>2019-07-06T05:48:27Z</time>
      </trkpt>
      <trkpt lat="40.6519750" lon="-1.9876210">
        <ele>1078.6</ele>
        <time>2019-07-06T05:48:28Z</time>
      </trkpt>
      <trkpt lat="40.6519960" lon="-1.9877280">
        <ele>1079.0</ele>
        <time>2019-07-06T05:48:30Z</time>
      </trkpt>
      <trkpt lat="40.6520110" lon="-1.9877840">
        <ele>1079.2</ele>
        <time>2019-07-06T05:48:31Z</time>
      </trkpt>
      <trkpt lat="40.6520620" lon="-1.9879550">
        <ele>1079.8</ele>
        <time>2019-07-06T05:48:34Z</time>
      </trkpt>
      <trkpt lat="40.6520830" lon="-1.9880170">
        <ele>1079.8</ele>
        <time>2019-07-06T05:48:35Z</time>
      </trkpt>
      <trkpt lat="40.6521950" lon="-1.9883310">
        <ele>1080.0</ele>
        <time>2019-07-06T05:48:40Z</time>
      </trkpt>
      <trkpt lat="40.6523240" lon="-1.9887180">
        <ele>1080.4</ele>
        <time>2019-07-06T05:48:46Z</time>
      </trkpt>
      <trkpt lat="40.6524070" lon="-1.9890370">
        <ele>1080.6</ele>
        <time>2019-07-06T05:48:51Z</time>
      </trkpt>
      <trkpt lat="40.6524330" lon="-1.9890970">
        <ele>1080.6</ele>
        <time>2019-07-06T05:48:52Z</time>
      </trkpt>
      <trkpt lat="40.6524590" lon="-1.9891590">
        <ele>1080.6</ele>
        <time>2019-07-06T05:48:53Z</time>
      </trkpt>
      <trkpt lat="40.6525910" lon="-1.9894360">
        <ele>1080.6</ele>
        <time>2019-07-06T05:48:57Z</time>
      </trkpt>
      <trkpt lat="40.6526340" lon="-1.9895080">
        <ele>1080.6</ele>
        <time>2019-07-06T05:48:58Z</time>
      </trkpt>
      <trkpt lat="40.6528190" lon="-1.9898060">
        <ele>1079.8</ele>
        <time>2019-07-06T05:49:02Z</time>
      </trkpt>
      <trkpt lat="40.6530390" lon="-1.9901560">
        <ele>1078.6</ele>
        <time>2019-07-06T05:49:07Z</time>
      </trkpt>
      <trkpt lat="40.6531340" lon="-1.9902820">
        <ele>1078.2</ele>
        <time>2019-07-06T05:49:09Z</time>
      </trkpt>
      <trkpt lat="40.6532360" lon="-1.9903910">
        <ele>1077.8</ele>
        <time>2019-07-06T05:49:11Z</time>
      </trkpt>
      <trkpt lat="40.6532830" lon="-1.9904470">
        <ele>1077.6</ele>
        <time>2019-07-06T05:49:12Z</time>
      </trkpt>
      <trkpt lat="40.6533220" lon="-1.9905040">
        <ele>1077.6</ele>
        <time>2019-07-06T05:49:13Z</time>
      </trkpt>
      <trkpt lat="40.6534070" lon="-1.9906250">
        <ele>1077.6</ele>
        <time>2019-07-06T05:49:15Z</time>
      </trkpt>
      <trkpt lat="40.6534910" lon="-1.9907410">
        <ele>1077.6</ele>
        <time>2019-07-06T05:49:17Z</time>
      </trkpt>
      <trkpt lat="40.6536670" lon="-1.9909780">
        <ele>1077.2</ele>
        <time>2019-07-06T05:49:21Z</time>
      </trkpt>
      <trkpt lat="40.6537040" lon="-1.9910420">
        <ele>1077.2</ele>
        <time>2019-07-06T05:49:22Z</time>
      </trkpt>
      <trkpt lat="40.6537450" lon="-1.9911020">
        <ele>1077.2</ele>
        <time>2019-07-06T05:49:23Z</time>
      </trkpt>
      <trkpt lat="40.6539180" lon="-1.9913230">
        <ele>1077.6</ele>
        <time>2019-07-06T05:49:27Z</time>
      </trkpt>
      <trkpt lat="40.6540640" lon="-1.9915250">
        <ele>1077.6</ele>
        <time>2019-07-06T05:49:31Z</time>
      </trkpt>
      <trkpt lat="40.6541010" lon="-1.9915760">
        <ele>1078.0</ele>
        <time>2019-07-06T05:49:32Z</time>
      </trkpt>
      <trkpt lat="40.6541450" lon="-1.9916230">
        <ele>1078.0</ele>
        <time>2019-07-06T05:49:33Z</time>
      </trkpt>
      <trkpt lat="40.6542460" lon="-1.9917840">
        <ele>1078.2</ele>
        <time>2019-07-06T05:49:36Z</time>
      </trkpt>
      <trkpt lat="40.6543920" lon="-1.9921210">
        <ele>1078.0</ele>
        <time>2019-07-06T05:49:41Z</time>
      </trkpt>
      <trkpt lat="40.6544180" lon="-1.9921910">
        <ele>1078.0</ele>
        <time>2019-07-06T05:49:42Z</time>
      </trkpt>
      <trkpt lat="40.6544450" lon="-1.9922570">
        <ele>1078.0</ele>
        <time>2019-07-06T05:49:43Z</time>
      </trkpt>
      <trkpt lat="40.6545990" lon="-1.9924950">
        <ele>1078.0</ele>
        <time>2019-07-06T05:49:47Z</time>
      </trkpt>
      <trkpt lat="40.6548240" lon="-1.9927660">
        <ele>1078.4</ele>
        <time>2019-07-06T05:49:52Z</time>
      </trkpt>
      <trkpt lat="40.6548700" lon="-1.9928200">
        <ele>1078.4</ele>
        <time>2019-07-06T05:49:53Z</time>
      </trkpt>
      <trkpt lat="40.6550460" lon="-1.9930450">
        <ele>1078.2</ele>
        <time>2019-07-06T05:49:57Z</time>
      </trkpt>
      <trkpt lat="40.6553060" lon="-1.9933810">
        <ele>1077.8</ele>
        <time>2019-07-06T05:50:03Z</time>
      </trkpt>
      <trkpt lat="40.6555630" lon="-1.9936970">
        <ele>1077.4</ele>
        <time>2019-07-06T05:50:09Z</time>
      </trkpt>
      <trkpt lat="40.6556540" lon="-1.9937960">
        <ele>1077.4</ele>
        <time>2019-07-06T05:50:11Z</time>
      </trkpt>
      <trkpt lat="40.6557350" lon="-1.9938980">
        <ele>1077.6</ele>
        <time>2019-07-06T05:50:13Z</time>
      </trkpt>
      <trkpt lat="40.6559000" lon="-1.9941120">
        <ele>1078.0</ele>
        <time>2019-07-06T05:50:17Z</time>
      </trkpt>
      <trkpt lat="40.6559940" lon="-1.9942230">
        <ele>1078.0</ele>
        <time>2019-07-06T05:50:19Z</time>
      </trkpt>
      <trkpt lat="40.6560830" lon="-1.9943370">
        <ele>1078.2</ele>
        <time>2019-07-06T05:50:21Z</time>
      </trkpt>
      <trkpt lat="40.6561570" lon="-1.9944820">
        <ele>1078.4</ele>
        <time>2019-07-06T05:50:23Z</time>
      </trkpt>
      <trkpt lat="40.6562980" lon="-1.9948170">
        <ele>1077.6</ele>
        <time>2019-07-06T05:50:27Z</time>
      </trkpt>
      <trkpt lat="40.6563490" lon="-1.9948980">
        <ele>1076.8</ele>
        <time>2019-07-06T05:50:28Z</time>
      </trkpt>
      <trkpt lat="40.6566340" lon="-1.9952540">
        <ele>1075.8</ele>
        <time>2019-07-06T05:50:33Z</time>
      </trkpt>
      <trkpt lat="40.6568850" lon="-1.9956040">
        <ele>1076.2</ele>
        <time>2019-07-06T05:50:39Z</time>
      </trkpt>
      <trkpt lat="40.6569610" lon="-1.9957220">
        <ele>1076.4</ele>
        <time>2019-07-06T05:50:41Z</time>
      </trkpt>
      <trkpt lat="40.6570760" lon="-1.9958800">
        <ele>1077.0</ele>
        <time>2019-07-06T05:50:44Z</time>
      </trkpt>
      <trkpt lat="40.6572770" lon="-1.9961940">
        <ele>1078.0</ele>
        <time>2019-07-06T05:50:50Z</time>
      </trkpt>
      <trkpt lat="40.6573010" lon="-1.9962510">
        <ele>1078.2</ele>
        <time>2019-07-06T05:50:51Z</time>
      </trkpt>
      <trkpt lat="40.6573830" lon="-1.9964280">
        <ele>1078.6</ele>
        <time>2019-07-06T05:50:54Z</time>
      </trkpt>
      <trkpt lat="40.6574850" lon="-1.9965860">
        <ele>1078.6</ele>
        <time>2019-07-06T05:50:57Z</time>
      </trkpt>
      <trkpt lat="40.6575590" lon="-1.9966790">
        <ele>1078.8</ele>
        <time>2019-07-06T05:50:59Z</time>
      </trkpt>
      <trkpt lat="40.6576530" lon="-1.9967900">
        <ele>1078.8</ele>
        <time>2019-07-06T05:51:01Z</time>
      </trkpt>
      <trkpt lat="40.6577410" lon="-1.9969100">
        <ele>1078.4</ele>
        <time>2019-07-06T05:51:03Z</time>
      </trkpt>
      <trkpt lat="40.6578750" lon="-1.9970960">
        <ele>1077.8</ele>
        <time>2019-07-06T05:51:06Z</time>
      </trkpt>
      <trkpt lat="40.6579240" lon="-1.9971490">
        <ele>1077.8</ele>
        <time>2019-07-06T05:51:07Z</time>
      </trkpt>
      <trkpt lat="40.6580620" lon="-1.9973090">
        <ele>1078.0</ele>
        <time>2019-07-06T05:51:10Z</time>
      </trkpt>
      <trkpt lat="40.6583020" lon="-1.9976250">
        <ele>1078.0</ele>
        <time>2019-07-06T05:51:16Z</time>
      </trkpt>
      <trkpt lat="40.6584070" lon="-1.9977760">
        <ele>1078.4</ele>
        <time>2019-07-06T05:51:19Z</time>
      </trkpt>
      <trkpt lat="40.6585020" lon="-1.9979130">
        <ele>1078.8</ele>
        <time>2019-07-06T05:51:22Z</time>
      </trkpt>
      <trkpt lat="40.6585290" lon="-1.9979560">
        <ele>1079.2</ele>
        <time>2019-07-06T05:51:23Z</time>
      </trkpt>
      <trkpt lat="40.6586310" lon="-1.9980870">
        <ele>1080.0</ele>
        <time>2019-07-06T05:51:26Z</time>
      </trkpt>
      <trkpt lat="40.6586640" lon="-1.9981300">
        <ele>1080.6</ele>
        <time>2019-07-06T05:51:27Z</time>
      </trkpt>
      <trkpt lat="40.6587810" lon="-1.9983210">
        <ele>1081.4</ele>
        <time>2019-07-06T05:51:31Z</time>
      </trkpt>
      <trkpt lat="40.6588670" lon="-1.9984920">
        <ele>1081.4</ele>
        <time>2019-07-06T05:51:34Z</time>
      </trkpt>
      <trkpt lat="40.6589580" lon="-1.9986010">
        <ele>1081.2</ele>
        <time>2019-07-06T05:51:36Z</time>
      </trkpt>
      <trkpt lat="40.6590630" lon="-1.9986940">
        <ele>1080.8</ele>
        <time>2019-07-06T05:51:38Z</time>
      </trkpt>
      <trkpt lat="40.6591130" lon="-1.9987500">
        <ele>1080.6</ele>
        <time>2019-07-06T05:51:39Z</time>
      </trkpt>
      <trkpt lat="40.6592110" lon="-1.9988710">
        <ele>1079.8</ele>
        <time>2019-07-06T05:51:41Z</time>
      </trkpt>
      <trkpt lat="40.6592670" lon="-1.9989260">
        <ele>1079.6</ele>
        <time>2019-07-06T05:51:42Z</time>
      </trkpt>
      <trkpt lat="40.6593270" lon="-1.9989770">
        <ele>1079.2</ele>
        <time>2019-07-06T05:51:43Z</time>
      </trkpt>
      <trkpt lat="40.6594450" lon="-1.9990790">
        <ele>1078.0</ele>
        <time>2019-07-06T05:51:45Z</time>
      </trkpt>
      <trkpt lat="40.6595030" lon="-1.9991420">
        <ele>1077.6</ele>
        <time>2019-07-06T05:51:46Z</time>
      </trkpt>
      <trkpt lat="40.6596120" lon="-1.9992890">
        <ele>1077.0</ele>
        <time>2019-07-06T05:51:48Z</time>
      </trkpt>
      <trkpt lat="40.6596660" lon="-1.9993630">
        <ele>1076.4</ele>
        <time>2019-07-06T05:51:49Z</time>
      </trkpt>
      <trkpt lat="40.6598210" lon="-1.9995780">
        <ele>1075.8</ele>
        <time>2019-07-06T05:51:52Z</time>
      </trkpt>
      <trkpt lat="40.6599240" lon="-1.9997250">
        <ele>1075.6</ele>
        <time>2019-07-06T05:51:54Z</time>
      </trkpt>
      <trkpt lat="40.6600310" lon="-1.9998650">
        <ele>1074.6</ele>
        <time>2019-07-06T05:51:56Z</time>
      </trkpt>
      <trkpt lat="40.6601410" lon="-1.9999890">
        <ele>1074.2</ele>
        <time>2019-07-06T05:51:58Z</time>
      </trkpt>
      <trkpt lat="40.6601940" lon="-2.0000510">
        <ele>1074.2</ele>
        <time>2019-07-06T05:51:59Z</time>
      </trkpt>
      <trkpt lat="40.6602410" lon="-2.0001110">
        <ele>1074.2</ele>
        <time>2019-07-06T05:52:00Z</time>
      </trkpt>
      <trkpt lat="40.6603790" lon="-2.0002660">
        <ele>1074.0</ele>
        <time>2019-07-06T05:52:03Z</time>
      </trkpt>
      <trkpt lat="40.6604690" lon="-2.0003610">
        <ele>1074.4</ele>
        <time>2019-07-06T05:52:05Z</time>
      </trkpt>
      <trkpt lat="40.6605170" lon="-2.0004080">
        <ele>1074.6</ele>
        <time>2019-07-06T05:52:06Z</time>
      </trkpt>
      <trkpt lat="40.6606080" lon="-2.0005080">
        <ele>1075.0</ele>
        <time>2019-07-06T05:52:08Z</time>
      </trkpt>
      <trkpt lat="40.6607330" lon="-2.0006640">
        <ele>1075.4</ele>
        <time>2019-07-06T05:52:11Z</time>
      </trkpt>
      <trkpt lat="40.6608140" lon="-2.0007880">
        <ele>1075.8</ele>
        <time>2019-07-06T05:52:13Z</time>
      </trkpt>
      <trkpt lat="40.6608510" lon="-2.0008490">
        <ele>1075.8</ele>
        <time>2019-07-06T05:52:14Z</time>
      </trkpt>
      <trkpt lat="40.6608930" lon="-2.0009070">
        <ele>1075.8</ele>
        <time>2019-07-06T05:52:15Z</time>
      </trkpt>
      <trkpt lat="40.6609900" lon="-2.0010990">
        <ele>1076.2</ele>
        <time>2019-07-06T05:52:18Z</time>
      </trkpt>
      <trkpt lat="40.6610140" lon="-2.0011670">
        <ele>1076.4</ele>
        <time>2019-07-06T05:52:19Z</time>
      </trkpt>
      <trkpt lat="40.6610620" lon="-2.0013020">
        <ele>1077.0</ele>
        <time>2019-07-06T05:52:21Z</time>
      </trkpt>
      <trkpt lat="40.6611590" lon="-2.0015670">
        <ele>1078.0</ele>
        <time>2019-07-06T05:52:25Z</time>
      </trkpt>
      <trkpt lat="40.6611900" lon="-2.0016290">
        <ele>1078.0</ele>
        <time>2019-07-06T05:52:26Z</time>
      </trkpt>
      <trkpt lat="40.6612240" lon="-2.0016880">
        <ele>1078.0</ele>
        <time>2019-07-06T05:52:27Z</time>
      </trkpt>
      <trkpt lat="40.6613230" lon="-2.0018660">
        <ele>1078.0</ele>
        <time>2019-07-06T05:52:30Z</time>
      </trkpt>
      <trkpt lat="40.6613520" lon="-2.0019310">
        <ele>1077.8</ele>
        <time>2019-07-06T05:52:31Z</time>
      </trkpt>
      <trkpt lat="40.6614160" lon="-2.0020650">
        <ele>1077.8</ele>
        <time>2019-07-06T05:52:33Z</time>
      </trkpt>
      <trkpt lat="40.6614850" lon="-2.0022150">
        <ele>1077.2</ele>
        <time>2019-07-06T05:52:35Z</time>
      </trkpt>
      <trkpt lat="40.6616040" lon="-2.0024460">
        <ele>1076.4</ele>
        <time>2019-07-06T05:52:38Z</time>
      </trkpt>
      <trkpt lat="40.6616860" lon="-2.0025970">
        <ele>1076.0</ele>
        <time>2019-07-06T05:52:40Z</time>
      </trkpt>
      <trkpt lat="40.6617830" lon="-2.0027470">
        <ele>1075.4</ele>
        <time>2019-07-06T05:52:42Z</time>
      </trkpt>
      <trkpt lat="40.6618320" lon="-2.0028290">
        <ele>1075.0</ele>
        <time>2019-07-06T05:52:43Z</time>
      </trkpt>
      <trkpt lat="40.6618800" lon="-2.0029120">
        <ele>1074.6</ele>
        <time>2019-07-06T05:52:44Z</time>
      </trkpt>
      <trkpt lat="40.6619760" lon="-2.0030890">
        <ele>1074.0</ele>
        <time>2019-07-06T05:52:46Z</time>
      </trkpt>
      <trkpt lat="40.6620240" lon="-2.0031720">
        <ele>1073.8</ele>
        <time>2019-07-06T05:52:47Z</time>
      </trkpt>
      <trkpt lat="40.6621130" lon="-2.0033430">
        <ele>1073.0</ele>
        <time>2019-07-06T05:52:49Z</time>
      </trkpt>
      <trkpt lat="40.6621570" lon="-2.0034280">
        <ele>1072.8</ele>
        <time>2019-07-06T05:52:50Z</time>
      </trkpt>
      <trkpt lat="40.6622530" lon="-2.0035990">
        <ele>1072.4</ele>
        <time>2019-07-06T05:52:52Z</time>
      </trkpt>
      <trkpt lat="40.6622980" lon="-2.0036900">
        <ele>1072.0</ele>
        <time>2019-07-06T05:52:53Z</time>
      </trkpt>
      <trkpt lat="40.6623420" lon="-2.0037800">
        <ele>1071.8</ele>
        <time>2019-07-06T05:52:54Z</time>
      </trkpt>
      <trkpt lat="40.6624660" lon="-2.0040410">
        <ele>1071.2</ele>
        <time>2019-07-06T05:52:57Z</time>
      </trkpt>
      <trkpt lat="40.6625000" lon="-2.0041380">
        <ele>1070.6</ele>
        <time>2019-07-06T05:52:58Z</time>
      </trkpt>
      <trkpt lat="40.6625530" lon="-2.0043090">
        <ele>1069.8</ele>
        <time>2019-07-06T05:53:00Z</time>
      </trkpt>
      <trkpt lat="40.6625940" lon="-2.0044560">
        <ele>1069.6</ele>
        <time>2019-07-06T05:53:02Z</time>
      </trkpt>
      <trkpt lat="40.6626160" lon="-2.0046170">
        <ele>1069.8</ele>
        <time>2019-07-06T05:53:04Z</time>
      </trkpt>
      <trkpt lat="40.6626410" lon="-2.0047740">
        <ele>1070.0</ele>
        <time>2019-07-06T05:53:06Z</time>
      </trkpt>
      <trkpt lat="40.6626480" lon="-2.0048510">
        <ele>1070.2</ele>
        <time>2019-07-06T05:53:07Z</time>
      </trkpt>
      <trkpt lat="40.6626540" lon="-2.0049980">
        <ele>1070.2</ele>
        <time>2019-07-06T05:53:09Z</time>
      </trkpt>
      <trkpt lat="40.6626630" lon="-2.0050630">
        <ele>1070.2</ele>
        <time>2019-07-06T05:53:10Z</time>
      </trkpt>
      <trkpt lat="40.6626890" lon="-2.0052640">
        <ele>1071.0</ele>
        <time>2019-07-06T05:53:13Z</time>
      </trkpt>
      <trkpt lat="40.6626970" lon="-2.0053280">
        <ele>1071.2</ele>
        <time>2019-07-06T05:53:14Z</time>
      </trkpt>
      <trkpt lat="40.6627270" lon="-2.0054500">
        <ele>1071.4</ele>
        <time>2019-07-06T05:53:16Z</time>
      </trkpt>
      <trkpt lat="40.6627450" lon="-2.0055030">
        <ele>1071.6</ele>
        <time>2019-07-06T05:53:17Z</time>
      </trkpt>
      <trkpt lat="40.6628020" lon="-2.0056630">
        <ele>1072.2</ele>
        <time>2019-07-06T05:53:20Z</time>
      </trkpt>
      <trkpt lat="40.6628520" lon="-2.0057730">
        <ele>1072.8</ele>
        <time>2019-07-06T05:53:22Z</time>
      </trkpt>
      <trkpt lat="40.6629580" lon="-2.0059920">
        <ele>1073.4</ele>
        <time>2019-07-06T05:53:26Z</time>
      </trkpt>
      <trkpt lat="40.6629900" lon="-2.0060470">
        <ele>1073.4</ele>
        <time>2019-07-06T05:53:27Z</time>
      </trkpt>
      <trkpt lat="40.6630550" lon="-2.0061450">
        <ele>1073.8</ele>
        <time>2019-07-06T05:53:29Z</time>
      </trkpt>
      <trkpt lat="40.6630910" lon="-2.0061910">
        <ele>1074.0</ele>
        <time>2019-07-06T05:53:30Z</time>
      </trkpt>
      <trkpt lat="40.6632340" lon="-2.0063550">
        <ele>1074.2</ele>
        <time>2019-07-06T05:53:34Z</time>
      </trkpt>
      <trkpt lat="40.6633140" lon="-2.0064210">
        <ele>1074.2</ele>
        <time>2019-07-06T05:53:36Z</time>
      </trkpt>
      <trkpt lat="40.6634410" lon="-2.0064960">
        <ele>1074.4</ele>
        <time>2019-07-06T05:53:39Z</time>
      </trkpt>
      <trkpt lat="40.6634900" lon="-2.0065170">
        <ele>1074.6</ele>
        <time>2019-07-06T05:53:40Z</time>
      </trkpt>
      <trkpt lat="40.6635820" lon="-2.0065550">
        <ele>1074.8</ele>
        <time>2019-07-06T05:53:42Z</time>
      </trkpt>
      <trkpt lat="40.6636720" lon="-2.0065710">
        <ele>1074.8</ele>
        <time>2019-07-06T05:53:44Z</time>
      </trkpt>
      <trkpt lat="40.6637640" lon="-2.0065720">
        <ele>1074.8</ele>
        <time>2019-07-06T05:53:46Z</time>
      </trkpt>
      <trkpt lat="40.6638610" lon="-2.0065490">
        <ele>1075.2</ele>
        <time>2019-07-06T05:53:48Z</time>
      </trkpt>
      <trkpt lat="40.6639950" lon="-2.0064840">
        <ele>1076.0</ele>
        <time>2019-07-06T05:53:51Z</time>
      </trkpt>
      <trkpt lat="40.6640370" lon="-2.0064530">
        <ele>1076.2</ele>
        <time>2019-07-06T05:53:52Z</time>
      </trkpt>
      <trkpt lat="40.6640780" lon="-2.0064240">
        <ele>1076.4</ele>
        <time>2019-07-06T05:53:53Z</time>
      </trkpt>
      <trkpt lat="40.6641520" lon="-2.0063750">
        <ele>1076.4</ele>
        <time>2019-07-06T05:53:55Z</time>
      </trkpt>
      <trkpt lat="40.6642740" lon="-2.0063110">
        <ele>1076.6</ele>
        <time>2019-07-06T05:53:58Z</time>
      </trkpt>
      <trkpt lat="40.6643500" lon="-2.0062600">
        <ele>1076.8</ele>
        <time>2019-07-06T05:54:00Z</time>
      </trkpt>
      <trkpt lat="40.6643950" lon="-2.0062370">
        <ele>1077.2</ele>
        <time>2019-07-06T05:54:01Z</time>
      </trkpt>
      <trkpt lat="40.6644860" lon="-2.0061830">
        <ele>1077.4</ele>
        <time>2019-07-06T05:54:03Z</time>
      </trkpt>
      <trkpt lat="40.6646640" lon="-2.0060540">
        <ele>1077.6</ele>
        <time>2019-07-06T05:54:07Z</time>
      </trkpt>
      <trkpt lat="40.6649810" lon="-2.0058020">
        <ele>1077.4</ele>
        <time>2019-07-06T05:54:14Z</time>
      </trkpt>
      <trkpt lat="40.6651850" lon="-2.0057480">
        <ele>1077.6</ele>
        <time>2019-07-06T05:54:18Z</time>
      </trkpt>
      <trkpt lat="40.6653400" lon="-2.0058160">
        <ele>1077.0</ele>
        <time>2019-07-06T05:54:21Z</time>
      </trkpt>
      <trkpt lat="40.6653910" lon="-2.0058640">
        <ele>1077.0</ele>
        <time>2019-07-06T05:54:22Z</time>
      </trkpt>
      <trkpt lat="40.6654400" lon="-2.0059200">
        <ele>1076.8</ele>
        <time>2019-07-06T05:54:23Z</time>
      </trkpt>
      <trkpt lat="40.6654860" lon="-2.0059790">
        <ele>1076.8</ele>
        <time>2019-07-06T05:54:24Z</time>
      </trkpt>
      <trkpt lat="40.6655960" lon="-2.0061790">
        <ele>1076.6</ele>
        <time>2019-07-06T05:54:27Z</time>
      </trkpt>
      <trkpt lat="40.6656440" lon="-2.0063320">
        <ele>1076.0</ele>
        <time>2019-07-06T05:54:29Z</time>
      </trkpt>
      <trkpt lat="40.6656610" lon="-2.0064150">
        <ele>1075.6</ele>
        <time>2019-07-06T05:54:30Z</time>
      </trkpt>
      <trkpt lat="40.6656780" lon="-2.0065940">
        <ele>1075.4</ele>
        <time>2019-07-06T05:54:32Z</time>
      </trkpt>
      <trkpt lat="40.6656780" lon="-2.0066860">
        <ele>1075.0</ele>
        <time>2019-07-06T05:54:33Z</time>
      </trkpt>
      <trkpt lat="40.6656610" lon="-2.0068680">
        <ele>1074.6</ele>
        <time>2019-07-06T05:54:35Z</time>
      </trkpt>
      <trkpt lat="40.6656420" lon="-2.0069550">
        <ele>1074.6</ele>
        <time>2019-07-06T05:54:36Z</time>
      </trkpt>
      <trkpt lat="40.6656190" lon="-2.0070370">
        <ele>1074.2</ele>
        <time>2019-07-06T05:54:37Z</time>
      </trkpt>
      <trkpt lat="40.6655690" lon="-2.0072020">
        <ele>1073.6</ele>
        <time>2019-07-06T05:54:39Z</time>
      </trkpt>
      <trkpt lat="40.6655380" lon="-2.0072890">
        <ele>1073.2</ele>
        <time>2019-07-06T05:54:40Z</time>
      </trkpt>
      <trkpt lat="40.6654990" lon="-2.0073720">
        <ele>1073.0</ele>
        <time>2019-07-06T05:54:41Z</time>
      </trkpt>
      <trkpt lat="40.6654110" lon="-2.0075280">
        <ele>1072.0</ele>
        <time>2019-07-06T05:54:43Z</time>
      </trkpt>
      <trkpt lat="40.6653670" lon="-2.0075990">
        <ele>1071.4</ele>
        <time>2019-07-06T05:54:44Z</time>
      </trkpt>
      <trkpt lat="40.6653210" lon="-2.0076680">
        <ele>1070.8</ele>
        <time>2019-07-06T05:54:45Z</time>
      </trkpt>
      <trkpt lat="40.6652760" lon="-2.0077320">
        <ele>1070.2</ele>
        <time>2019-07-06T05:54:46Z</time>
      </trkpt>
      <trkpt lat="40.6652300" lon="-2.0077910">
        <ele>1069.8</ele>
        <time>2019-07-06T05:54:47Z</time>
      </trkpt>
      <trkpt lat="40.6650770" lon="-2.0079580">
        <ele>1068.8</ele>
        <time>2019-07-06T05:54:50Z</time>
      </trkpt>
      <trkpt lat="40.6650180" lon="-2.0080150">
        <ele>1068.4</ele>
        <time>2019-07-06T05:54:51Z</time>
      </trkpt>
      <trkpt lat="40.6649580" lon="-2.0080750">
        <ele>1068.0</ele>
        <time>2019-07-06T05:54:52Z</time>
      </trkpt>
      <trkpt lat="40.6648950" lon="-2.0081350">
        <ele>1067.2</ele>
        <time>2019-07-06T05:54:53Z</time>
      </trkpt>
      <trkpt lat="40.6647720" lon="-2.0082570">
        <ele>1065.8</ele>
        <time>2019-07-06T05:54:55Z</time>
      </trkpt>
      <trkpt lat="40.6646540" lon="-2.0083840">
        <ele>1064.2</ele>
        <time>2019-07-06T05:54:57Z</time>
      </trkpt>
      <trkpt lat="40.6645900" lon="-2.0084480">
        <ele>1063.4</ele>
        <time>2019-07-06T05:54:58Z</time>
      </trkpt>
      <trkpt lat="40.6645230" lon="-2.0085110">
        <ele>1062.8</ele>
        <time>2019-07-06T05:54:59Z</time>
      </trkpt>
      <trkpt lat="40.6643370" lon="-2.0087090">
        <ele>1061.4</ele>
        <time>2019-07-06T05:55:02Z</time>
      </trkpt>
      <trkpt lat="40.6642070" lon="-2.0088440">
        <ele>1060.2</ele>
        <time>2019-07-06T05:55:04Z</time>
      </trkpt>
      <trkpt lat="40.6640750" lon="-2.0089770">
        <ele>1058.6</ele>
        <time>2019-07-06T05:55:06Z</time>
      </trkpt>
      <trkpt lat="40.6640080" lon="-2.0090440">
        <ele>1057.8</ele>
        <time>2019-07-06T05:55:07Z</time>
      </trkpt>
      <trkpt lat="40.6639500" lon="-2.0091120">
        <ele>1057.2</ele>
        <time>2019-07-06T05:55:08Z</time>
      </trkpt>
      <trkpt lat="40.6638300" lon="-2.0092450">
        <ele>1056.0</ele>
        <time>2019-07-06T05:55:10Z</time>
      </trkpt>
      <trkpt lat="40.6637710" lon="-2.0093010">
        <ele>1056.0</ele>
        <time>2019-07-06T05:55:11Z</time>
      </trkpt>
      <trkpt lat="40.6634030" lon="-2.0095670">
        <ele>1055.6</ele>
        <time>2019-07-06T05:55:17Z</time>
      </trkpt>
      <trkpt lat="40.6633510" lon="-2.0096050">
        <ele>1055.4</ele>
        <time>2019-07-06T05:55:18Z</time>
      </trkpt>
      <trkpt lat="40.6632990" lon="-2.0096400">
        <ele>1055.4</ele>
        <time>2019-07-06T05:55:19Z</time>
      </trkpt>
      <trkpt lat="40.6632000" lon="-2.0097050">
        <ele>1055.4</ele>
        <time>2019-07-06T05:55:21Z</time>
      </trkpt>
      <trkpt lat="40.6631040" lon="-2.0097720">
        <ele>1055.6</ele>
        <time>2019-07-06T05:55:23Z</time>
      </trkpt>
      <trkpt lat="40.6629280" lon="-2.0099210">
        <ele>1055.4</ele>
        <time>2019-07-06T05:55:27Z</time>
      </trkpt>
      <trkpt lat="40.6628180" lon="-2.0100540">
        <ele>1056.2</ele>
        <time>2019-07-06T05:55:30Z</time>
      </trkpt>
      <trkpt lat="40.6627450" lon="-2.0101410">
        <ele>1057.0</ele>
        <time>2019-07-06T05:55:32Z</time>
      </trkpt>
      <trkpt lat="40.6627170" lon="-2.0101890">
        <ele>1057.2</ele>
        <time>2019-07-06T05:55:33Z</time>
      </trkpt>
      <trkpt lat="40.6626890" lon="-2.0102340">
        <ele>1057.6</ele>
        <time>2019-07-06T05:55:34Z</time>
      </trkpt>
      <trkpt lat="40.6626120" lon="-2.0103650">
        <ele>1058.2</ele>
        <time>2019-07-06T05:55:37Z</time>
      </trkpt>
      <trkpt lat="40.6625890" lon="-2.0104140">
        <ele>1058.4</ele>
        <time>2019-07-06T05:55:38Z</time>
      </trkpt>
      <trkpt lat="40.6625190" lon="-2.0105550">
        <ele>1059.4</ele>
        <time>2019-07-06T05:55:41Z</time>
      </trkpt>
      <trkpt lat="40.6624560" lon="-2.0107100">
        <ele>1060.0</ele>
        <time>2019-07-06T05:55:44Z</time>
      </trkpt>
      <trkpt lat="40.6624400" lon="-2.0107650">
        <ele>1060.2</ele>
        <time>2019-07-06T05:55:45Z</time>
      </trkpt>
      <trkpt lat="40.6624100" lon="-2.0108730">
        <ele>1060.6</ele>
        <time>2019-07-06T05:55:47Z</time>
      </trkpt>
      <trkpt lat="40.6623580" lon="-2.0110150">
        <ele>1061.2</ele>
        <time>2019-07-06T05:55:50Z</time>
      </trkpt>
      <trkpt lat="40.6623310" lon="-2.0111280">
        <ele>1061.4</ele>
        <time>2019-07-06T05:55:52Z</time>
      </trkpt>
      <trkpt lat="40.6623030" lon="-2.0112440">
        <ele>1061.6</ele>
        <time>2019-07-06T05:55:54Z</time>
      </trkpt>
      <trkpt lat="40.6622990" lon="-2.0114320">
        <ele>1062.0</ele>
        <time>2019-07-06T05:55:57Z</time>
      </trkpt>
      <trkpt lat="40.6623270" lon="-2.0116160">
        <ele>1062.2</ele>
        <time>2019-07-06T05:56:00Z</time>
      </trkpt>
      <trkpt lat="40.6623560" lon="-2.0117370">
        <ele>1062.2</ele>
        <time>2019-07-06T05:56:02Z</time>
      </trkpt>
      <trkpt lat="40.6623770" lon="-2.0118010">
        <ele>1062.2</ele>
        <time>2019-07-06T05:56:03Z</time>
      </trkpt>
      <trkpt lat="40.6624710" lon="-2.0119990">
        <ele>1062.0</ele>
        <time>2019-07-06T05:56:06Z</time>
      </trkpt>
      <trkpt lat="40.6625540" lon="-2.0121370">
        <ele>1061.0</ele>
        <time>2019-07-06T05:56:08Z</time>
      </trkpt>
      <trkpt lat="40.6626440" lon="-2.0122630">
        <ele>1060.4</ele>
        <time>2019-07-06T05:56:10Z</time>
      </trkpt>
      <trkpt lat="40.6627280" lon="-2.0123660">
        <ele>1060.4</ele>
        <time>2019-07-06T05:56:12Z</time>
      </trkpt>
      <trkpt lat="40.6627660" lon="-2.0124160">
        <ele>1060.4</ele>
        <time>2019-07-06T05:56:13Z</time>
      </trkpt>
      <trkpt lat="40.6628030" lon="-2.0124680">
        <ele>1060.4</ele>
        <time>2019-07-06T05:56:14Z</time>
      </trkpt>
      <trkpt lat="40.6628470" lon="-2.0125210">
        <ele>1060.4</ele>
        <time>2019-07-06T05:56:15Z</time>
      </trkpt>
      <trkpt lat="40.6629550" lon="-2.0127120">
        <ele>1060.2</ele>
        <time>2019-07-06T05:56:18Z</time>
      </trkpt>
      <trkpt lat="40.6630340" lon="-2.0128570">
        <ele>1059.8</ele>
        <time>2019-07-06T05:56:20Z</time>
      </trkpt>
      <trkpt lat="40.6630650" lon="-2.0129260">
        <ele>1059.6</ele>
        <time>2019-07-06T05:56:21Z</time>
      </trkpt>
      <trkpt lat="40.6630900" lon="-2.0129890">
        <ele>1059.2</ele>
        <time>2019-07-06T05:56:22Z</time>
      </trkpt>
      <trkpt lat="40.6631070" lon="-2.0130560">
        <ele>1058.8</ele>
        <time>2019-07-06T05:56:23Z</time>
      </trkpt>
      <trkpt lat="40.6631070" lon="-2.0132100">
        <ele>1058.0</ele>
        <time>2019-07-06T05:56:25Z</time>
      </trkpt>
      <trkpt lat="40.6630900" lon="-2.0133820">
        <ele>1056.8</ele>
        <time>2019-07-06T05:56:27Z</time>
      </trkpt>
      <trkpt lat="40.6630830" lon="-2.0134730">
        <ele>1056.6</ele>
        <time>2019-07-06T05:56:28Z</time>
      </trkpt>
      <trkpt lat="40.6630890" lon="-2.0136670">
        <ele>1055.6</ele>
        <time>2019-07-06T05:56:30Z</time>
      </trkpt>
      <trkpt lat="40.6630990" lon="-2.0137670">
        <ele>1055.2</ele>
        <time>2019-07-06T05:56:31Z</time>
      </trkpt>
      <trkpt lat="40.6631440" lon="-2.0139710">
        <ele>1054.2</ele>
        <time>2019-07-06T05:56:33Z</time>
      </trkpt>
      <trkpt lat="40.6631960" lon="-2.0141610">
        <ele>1053.6</ele>
        <time>2019-07-06T05:56:35Z</time>
      </trkpt>
      <trkpt lat="40.6632460" lon="-2.0143240">
        <ele>1053.4</ele>
        <time>2019-07-06T05:56:37Z</time>
      </trkpt>
      <trkpt lat="40.6632890" lon="-2.0144900">
        <ele>1053.2</ele>
        <time>2019-07-06T05:56:39Z</time>
      </trkpt>
      <trkpt lat="40.6633100" lon="-2.0145810">
        <ele>1053.0</ele>
        <time>2019-07-06T05:56:40Z</time>
      </trkpt>
      <trkpt lat="40.6633490" lon="-2.0147780">
        <ele>1051.6</ele>
        <time>2019-07-06T05:56:42Z</time>
      </trkpt>
      <trkpt lat="40.6633790" lon="-2.0149780">
        <ele>1050.8</ele>
        <time>2019-07-06T05:56:44Z</time>
      </trkpt>
      <trkpt lat="40.6633870" lon="-2.0150720">
        <ele>1050.4</ele>
        <time>2019-07-06T05:56:45Z</time>
      </trkpt>
      <trkpt lat="40.6633980" lon="-2.0151660">
        <ele>1050.0</ele>
        <time>2019-07-06T05:56:46Z</time>
      </trkpt>
      <trkpt lat="40.6634020" lon="-2.0153560">
        <ele>1049.6</ele>
        <time>2019-07-06T05:56:48Z</time>
      </trkpt>
      <trkpt lat="40.6633860" lon="-2.0155370">
        <ele>1049.2</ele>
        <time>2019-07-06T05:56:50Z</time>
      </trkpt>
      <trkpt lat="40.6633770" lon="-2.0156180">
        <ele>1049.2</ele>
        <time>2019-07-06T05:56:51Z</time>
      </trkpt>
      <trkpt lat="40.6633580" lon="-2.0157860">
        <ele>1049.0</ele>
        <time>2019-07-06T05:56:53Z</time>
      </trkpt>
      <trkpt lat="40.6633300" lon="-2.0159530">
        <ele>1049.0</ele>
        <time>2019-07-06T05:56:55Z</time>
      </trkpt>
      <trkpt lat="40.6632870" lon="-2.0161980">
        <ele>1048.8</ele>
        <time>2019-07-06T05:56:58Z</time>
      </trkpt>
      <trkpt lat="40.6632160" lon="-2.0167300">
        <ele>1048.2</ele>
        <time>2019-07-06T05:57:04Z</time>
      </trkpt>
      <trkpt lat="40.6631830" lon="-2.0169070">
        <ele>1048.2</ele>
        <time>2019-07-06T05:57:06Z</time>
      </trkpt>
      <trkpt lat="40.6631300" lon="-2.0171690">
        <ele>1048.0</ele>
        <time>2019-07-06T05:57:09Z</time>
      </trkpt>
      <trkpt lat="40.6631120" lon="-2.0172530">
        <ele>1047.8</ele>
        <time>2019-07-06T05:57:10Z</time>
      </trkpt>
      <trkpt lat="40.6630620" lon="-2.0175560">
        <ele>1048.4</ele>
        <time>2019-07-06T05:57:14Z</time>
      </trkpt>
      <trkpt lat="40.6630520" lon="-2.0176210">
        <ele>1048.8</ele>
        <time>2019-07-06T05:57:15Z</time>
      </trkpt>
      <trkpt lat="40.6630460" lon="-2.0176860">
        <ele>1049.2</ele>
        <time>2019-07-06T05:57:16Z</time>
      </trkpt>
      <trkpt lat="40.6630450" lon="-2.0178610">
        <ele>1050.0</ele>
        <time>2019-07-06T05:57:19Z</time>
      </trkpt>
      <trkpt lat="40.6630510" lon="-2.0179130">
        <ele>1050.2</ele>
        <time>2019-07-06T05:57:20Z</time>
      </trkpt>
      <trkpt lat="40.6630640" lon="-2.0180590">
        <ele>1051.0</ele>
        <time>2019-07-06T05:57:23Z</time>
      </trkpt>
      <trkpt lat="40.6630690" lon="-2.0181050">
        <ele>1051.4</ele>
        <time>2019-07-06T05:57:24Z</time>
      </trkpt>
      <trkpt lat="40.6630770" lon="-2.0181870">
        <ele>1052.6</ele>
        <time>2019-07-06T05:57:26Z</time>
      </trkpt>
      <trkpt lat="40.6630840" lon="-2.0182670">
        <ele>1053.4</ele>
        <time>2019-07-06T05:57:28Z</time>
      </trkpt>
      <trkpt lat="40.6630900" lon="-2.0183410">
        <ele>1054.2</ele>
        <time>2019-07-06T05:57:30Z</time>
      </trkpt>
      <trkpt lat="40.6631010" lon="-2.0183700">
        <ele>1054.4</ele>
        <time>2019-07-06T05:57:31Z</time>
      </trkpt>
      <trkpt lat="40.6631260" lon="-2.0184310">
        <ele>1055.2</ele>
        <time>2019-07-06T05:57:33Z</time>
      </trkpt>
      <trkpt lat="40.6631430" lon="-2.0185060">
        <ele>1055.6</ele>
        <time>2019-07-06T05:57:35Z</time>
      </trkpt>
      <trkpt lat="40.6631910" lon="-2.0186340">
        <ele>1056.2</ele>
        <time>2019-07-06T05:57:38Z</time>
      </trkpt>
      <trkpt lat="40.6632890" lon="-2.0189180">
        <ele>1054.6</ele>
        <time>2019-07-06T05:57:43Z</time>
      </trkpt>
      <trkpt lat="40.6633170" lon="-2.0189790">
        <ele>1054.6</ele>
        <time>2019-07-06T05:57:44Z</time>
      </trkpt>
      <trkpt lat="40.6633490" lon="-2.0190350">
        <ele>1054.2</ele>
        <time>2019-07-06T05:57:45Z</time>
      </trkpt>
      <trkpt lat="40.6634420" lon="-2.0191830">
        <ele>1053.6</ele>
        <time>2019-07-06T05:57:48Z</time>
      </trkpt>
      <trkpt lat="40.6634760" lon="-2.0192320">
        <ele>1053.4</ele>
        <time>2019-07-06T05:57:49Z</time>
      </trkpt>
      <trkpt lat="40.6635140" lon="-2.0192830">
        <ele>1053.4</ele>
        <time>2019-07-06T05:57:50Z</time>
      </trkpt>
      <trkpt lat="40.6635990" lon="-2.0193780">
        <ele>1052.8</ele>
        <time>2019-07-06T05:57:52Z</time>
      </trkpt>
      <trkpt lat="40.6636420" lon="-2.0194290">
        <ele>1052.4</ele>
        <time>2019-07-06T05:57:53Z</time>
      </trkpt>
      <trkpt lat="40.6636850" lon="-2.0194790">
        <ele>1052.4</ele>
        <time>2019-07-06T05:57:54Z</time>
      </trkpt>
      <trkpt lat="40.6637880" lon="-2.0195710">
        <ele>1051.8</ele>
        <time>2019-07-06T05:57:56Z</time>
      </trkpt>
      <trkpt lat="40.6638450" lon="-2.0196100">
        <ele>1051.0</ele>
        <time>2019-07-06T05:57:57Z</time>
      </trkpt>
      <trkpt lat="40.6639060" lon="-2.0196450">
        <ele>1050.6</ele>
        <time>2019-07-06T05:57:58Z</time>
      </trkpt>
      <trkpt lat="40.6639720" lon="-2.0196710">
        <ele>1050.4</ele>
        <time>2019-07-06T05:57:59Z</time>
      </trkpt>
      <trkpt lat="40.6640400" lon="-2.0196940">
        <ele>1050.0</ele>
        <time>2019-07-06T05:58:00Z</time>
      </trkpt>
      <trkpt lat="40.6641860" lon="-2.0197290">
        <ele>1049.0</ele>
        <time>2019-07-06T05:58:02Z</time>
      </trkpt>
      <trkpt lat="40.6642640" lon="-2.0197400">
        <ele>1048.4</ele>
        <time>2019-07-06T05:58:03Z</time>
      </trkpt>
      <trkpt lat="40.6644240" lon="-2.0197600">
        <ele>1047.6</ele>
        <time>2019-07-06T05:58:05Z</time>
      </trkpt>
      <trkpt lat="40.6645030" lon="-2.0197670">
        <ele>1047.4</ele>
        <time>2019-07-06T05:58:06Z</time>
      </trkpt>
      <trkpt lat="40.6645800" lon="-2.0197700">
        <ele>1047.0</ele>
        <time>2019-07-06T05:58:07Z</time>
      </trkpt>
      <trkpt lat="40.6646520" lon="-2.0197620">
        <ele>1046.8</ele>
        <time>2019-07-06T05:58:08Z</time>
      </trkpt>
      <trkpt lat="40.6648100" lon="-2.0197390">
        <ele>1046.4</ele>
        <time>2019-07-06T05:58:10Z</time>
      </trkpt>
      <trkpt lat="40.6648840" lon="-2.0197180">
        <ele>1046.4</ele>
        <time>2019-07-06T05:58:11Z</time>
      </trkpt>
      <trkpt lat="40.6651490" lon="-2.0195830">
        <ele>1045.8</ele>
        <time>2019-07-06T05:58:15Z</time>
      </trkpt>
      <trkpt lat="40.6653220" lon="-2.0194890">
        <ele>1045.2</ele>
        <time>2019-07-06T05:58:18Z</time>
      </trkpt>
      <trkpt lat="40.6653740" lon="-2.0194580">
        <ele>1045.0</ele>
        <time>2019-07-06T05:58:19Z</time>
      </trkpt>
      <trkpt lat="40.6654220" lon="-2.0194250">
        <ele>1044.8</ele>
        <time>2019-07-06T05:58:20Z</time>
      </trkpt>
      <trkpt lat="40.6655060" lon="-2.0193730">
        <ele>1045.0</ele>
        <time>2019-07-06T05:58:22Z</time>
      </trkpt>
      <trkpt lat="40.6655460" lon="-2.0193680">
        <ele>1045.2</ele>
        <time>2019-07-06T05:58:23Z</time>
      </trkpt>
      <trkpt lat="40.6656830" lon="-2.0193570">
        <ele>1046.0</ele>
        <time>2019-07-06T05:58:26Z</time>
      </trkpt>
      <trkpt lat="40.6657190" lon="-2.0193580">
        <ele>1046.2</ele>
        <time>2019-07-06T05:58:27Z</time>
      </trkpt>
      <trkpt lat="40.6658180" lon="-2.0193780">
        <ele>1046.8</ele>
        <time>2019-07-06T05:58:30Z</time>
      </trkpt>
      <trkpt lat="40.6658590" lon="-2.0193990">
        <ele>1047.2</ele>
        <time>2019-07-06T05:58:32Z</time>
      </trkpt>
      <trkpt lat="40.6658800" lon="-2.0194120">
        <ele>1047.6</ele>
        <time>2019-07-06T05:58:33Z</time>
      </trkpt>
      <trkpt lat="40.6659290" lon="-2.0194440">
        <ele>1048.0</ele>
        <time>2019-07-06T05:58:35Z</time>
      </trkpt>
      <trkpt lat="40.6659560" lon="-2.0194470">
        <ele>1048.2</ele>
        <time>2019-07-06T05:58:36Z</time>
      </trkpt>
      <trkpt lat="40.6660150" lon="-2.0194590">
        <ele>1048.6</ele>
        <time>2019-07-06T05:58:38Z</time>
      </trkpt>
      <trkpt lat="40.6661030" lon="-2.0195100">
        <ele>1049.2</ele>
        <time>2019-07-06T05:58:41Z</time>
      </trkpt>
      <trkpt lat="40.6661260" lon="-2.0195300">
        <ele>1049.4</ele>
        <time>2019-07-06T05:58:42Z</time>
      </trkpt>
      <trkpt lat="40.6661490" lon="-2.0195470">
        <ele>1049.6</ele>
        <time>2019-07-06T05:58:43Z</time>
      </trkpt>
      <trkpt lat="40.6662180" lon="-2.0195970">
        <ele>1050.6</ele>
        <time>2019-07-06T05:58:46Z</time>
      </trkpt>
      <trkpt lat="40.6663000" lon="-2.0196540">
        <ele>1051.4</ele>
        <time>2019-07-06T05:58:49Z</time>
      </trkpt>
      <trkpt lat="40.6663290" lon="-2.0196740">
        <ele>1051.6</ele>
        <time>2019-07-06T05:58:50Z</time>
      </trkpt>
      <trkpt lat="40.6664200" lon="-2.0197650">
        <ele>1052.6</ele>
        <time>2019-07-06T05:58:54Z</time>
      </trkpt>
      <trkpt lat="40.6664500" lon="-2.0197840">
        <ele>1052.8</ele>
        <time>2019-07-06T05:58:55Z</time>
      </trkpt>
      <trkpt lat="40.6665680" lon="-2.0198790">
        <ele>1053.6</ele>
        <time>2019-07-06T05:58:59Z</time>
      </trkpt>
      <trkpt lat="40.6666050" lon="-2.0199030">
        <ele>1053.8</ele>
        <time>2019-07-06T05:59:00Z</time>
      </trkpt>
      <trkpt lat="40.6666890" lon="-2.0200480">
        <ele>1054.6</ele>
        <time>2019-07-06T05:59:04Z</time>
      </trkpt>
      <trkpt lat="40.6666960" lon="-2.0201450">
        <ele>1054.8</ele>
        <time>2019-07-06T05:59:06Z</time>
      </trkpt>
      <trkpt lat="40.6667030" lon="-2.0202920">
        <ele>1054.6</ele>
        <time>2019-07-06T05:59:09Z</time>
      </trkpt>
      <trkpt lat="40.6666730" lon="-2.0205610">
        <ele>1054.2</ele>
        <time>2019-07-06T05:59:14Z</time>
      </trkpt>
      <trkpt lat="40.6666540" lon="-2.0206180">
        <ele>1054.2</ele>
        <time>2019-07-06T05:59:15Z</time>
      </trkpt>
      <trkpt lat="40.6666030" lon="-2.0207290">
        <ele>1053.8</ele>
        <time>2019-07-06T05:59:17Z</time>
      </trkpt>
      <trkpt lat="40.6665750" lon="-2.0207860">
        <ele>1053.6</ele>
        <time>2019-07-06T05:59:18Z</time>
      </trkpt>
      <trkpt lat="40.6665440" lon="-2.0208430">
        <ele>1053.6</ele>
        <time>2019-07-06T05:59:19Z</time>
      </trkpt>
      <trkpt lat="40.6665090" lon="-2.0209030">
        <ele>1053.4</ele>
        <time>2019-07-06T05:59:20Z</time>
      </trkpt>
      <trkpt lat="40.6664320" lon="-2.0210270">
        <ele>1053.2</ele>
        <time>2019-07-06T05:59:22Z</time>
      </trkpt>
      <trkpt lat="40.6663440" lon="-2.0211550">
        <ele>1052.8</ele>
        <time>2019-07-06T05:59:24Z</time>
      </trkpt>
      <trkpt lat="40.6662960" lon="-2.0212220">
        <ele>1052.6</ele>
        <time>2019-07-06T05:59:25Z</time>
      </trkpt>
      <trkpt lat="40.6662470" lon="-2.0212910">
        <ele>1052.4</ele>
        <time>2019-07-06T05:59:26Z</time>
      </trkpt>
      <trkpt lat="40.6661990" lon="-2.0213630">
        <ele>1052.0</ele>
        <time>2019-07-06T05:59:27Z</time>
      </trkpt>
      <trkpt lat="40.6661480" lon="-2.0214360">
        <ele>1051.4</ele>
        <time>2019-07-06T05:59:28Z</time>
      </trkpt>
      <trkpt lat="40.6660470" lon="-2.0215860">
        <ele>1050.6</ele>
        <time>2019-07-06T05:59:30Z</time>
      </trkpt>
      <trkpt lat="40.6659920" lon="-2.0216610">
        <ele>1050.2</ele>
        <time>2019-07-06T05:59:31Z</time>
      </trkpt>
      <trkpt lat="40.6659360" lon="-2.0217380">
        <ele>1050.0</ele>
        <time>2019-07-06T05:59:32Z</time>
      </trkpt>
      <trkpt lat="40.6658790" lon="-2.0218170">
        <ele>1049.8</ele>
        <time>2019-07-06T05:59:33Z</time>
      </trkpt>
      <trkpt lat="40.6658230" lon="-2.0218960">
        <ele>1049.2</ele>
        <time>2019-07-06T05:59:34Z</time>
      </trkpt>
      <trkpt lat="40.6656430" lon="-2.0221370">
        <ele>1048.2</ele>
        <time>2019-07-06T05:59:37Z</time>
      </trkpt>
      <trkpt lat="40.6655850" lon="-2.0222150">
        <ele>1048.0</ele>
        <time>2019-07-06T05:59:38Z</time>
      </trkpt>
      <trkpt lat="40.6653710" lon="-2.0225330">
        <ele>1047.0</ele>
        <time>2019-07-06T05:59:42Z</time>
      </trkpt>
      <trkpt lat="40.6653280" lon="-2.0226160">
        <ele>1046.8</ele>
        <time>2019-07-06T05:59:43Z</time>
      </trkpt>
      <trkpt lat="40.6651030" lon="-2.0230670">
        <ele>1046.4</ele>
        <time>2019-07-06T05:59:49Z</time>
      </trkpt>
      <trkpt lat="40.6650340" lon="-2.0232750">
        <ele>1046.6</ele>
        <time>2019-07-06T05:59:52Z</time>
      </trkpt>
      <trkpt lat="40.6649990" lon="-2.0234180">
        <ele>1046.6</ele>
        <time>2019-07-06T05:59:54Z</time>
      </trkpt>
      <trkpt lat="40.6649820" lon="-2.0234900">
        <ele>1046.6</ele>
        <time>2019-07-06T05:59:55Z</time>
      </trkpt>
      <trkpt lat="40.6649510" lon="-2.0236400">
        <ele>1046.4</ele>
        <time>2019-07-06T05:59:57Z</time>
      </trkpt>
      <trkpt lat="40.6649160" lon="-2.0238750">
        <ele>1046.4</ele>
        <time>2019-07-06T06:00:00Z</time>
      </trkpt>
      <trkpt lat="40.6648860" lon="-2.0242020">
        <ele>1045.8</ele>
        <time>2019-07-06T06:00:04Z</time>
      </trkpt>
      <trkpt lat="40.6648600" lon="-2.0244460">
        <ele>1045.2</ele>
        <time>2019-07-06T06:00:07Z</time>
      </trkpt>
      <trkpt lat="40.6648350" lon="-2.0248360">
        <ele>1044.8</ele>
        <time>2019-07-06T06:00:12Z</time>
      </trkpt>
      <trkpt lat="40.6648300" lon="-2.0249120">
        <ele>1044.6</ele>
        <time>2019-07-06T06:00:13Z</time>
      </trkpt>
      <trkpt lat="40.6648100" lon="-2.0251400">
        <ele>1044.4</ele>
        <time>2019-07-06T06:00:16Z</time>
      </trkpt>
      <trkpt lat="40.6648000" lon="-2.0252870">
        <ele>1044.4</ele>
        <time>2019-07-06T06:00:18Z</time>
      </trkpt>
      <trkpt lat="40.6647970" lon="-2.0253590">
        <ele>1044.2</ele>
        <time>2019-07-06T06:00:19Z</time>
      </trkpt>
      <trkpt lat="40.6647580" lon="-2.0256410">
        <ele>1044.4</ele>
        <time>2019-07-06T06:00:23Z</time>
      </trkpt>
      <trkpt lat="40.6647300" lon="-2.0257920">
        <ele>1044.6</ele>
        <time>2019-07-06T06:00:25Z</time>
      </trkpt>
      <trkpt lat="40.6647110" lon="-2.0259360">
        <ele>1044.8</ele>
        <time>2019-07-06T06:00:27Z</time>
      </trkpt>
      <trkpt lat="40.6646720" lon="-2.0262220">
        <ele>1045.2</ele>
        <time>2019-07-06T06:00:31Z</time>
      </trkpt>
      <trkpt lat="40.6646570" lon="-2.0262870">
        <ele>1045.4</ele>
        <time>2019-07-06T06:00:32Z</time>
      </trkpt>
      <trkpt lat="40.6646420" lon="-2.0263490">
        <ele>1045.4</ele>
        <time>2019-07-06T06:00:33Z</time>
      </trkpt>
      <trkpt lat="40.6645610" lon="-2.0266030">
        <ele>1045.8</ele>
        <time>2019-07-06T06:00:37Z</time>
      </trkpt>
      <trkpt lat="40.6645140" lon="-2.0267280">
        <ele>1046.2</ele>
        <time>2019-07-06T06:00:39Z</time>
      </trkpt>
      <trkpt lat="40.6644280" lon="-2.0269200">
        <ele>1046.4</ele>
        <time>2019-07-06T06:00:43Z</time>
      </trkpt>
      <trkpt lat="40.6644000" lon="-2.0270280">
        <ele>1046.4</ele>
        <time>2019-07-06T06:00:45Z</time>
      </trkpt>
      <trkpt lat="40.6643850" lon="-2.0271850">
        <ele>1045.8</ele>
        <time>2019-07-06T06:00:48Z</time>
      </trkpt>
      <trkpt lat="40.6644140" lon="-2.0273590">
        <ele>1045.4</ele>
        <time>2019-07-06T06:00:51Z</time>
      </trkpt>
      <trkpt lat="40.6644350" lon="-2.0274170">
        <ele>1045.4</ele>
        <time>2019-07-06T06:00:52Z</time>
      </trkpt>
      <trkpt lat="40.6644600" lon="-2.0274730">
        <ele>1045.4</ele>
        <time>2019-07-06T06:00:53Z</time>
      </trkpt>
      <trkpt lat="40.6645120" lon="-2.0275920">
        <ele>1045.4</ele>
        <time>2019-07-06T06:00:55Z</time>
      </trkpt>
      <trkpt lat="40.6645640" lon="-2.0277780">
        <ele>1045.4</ele>
        <time>2019-07-06T06:00:58Z</time>
      </trkpt>
      <trkpt lat="40.6645810" lon="-2.0279050">
        <ele>1045.6</ele>
        <time>2019-07-06T06:01:00Z</time>
      </trkpt>
      <trkpt lat="40.6646060" lon="-2.0281040">
        <ele>1045.8</ele>
        <time>2019-07-06T06:01:03Z</time>
      </trkpt>
      <trkpt lat="40.6646320" lon="-2.0283030">
        <ele>1046.4</ele>
        <time>2019-07-06T06:01:06Z</time>
      </trkpt>
      <trkpt lat="40.6646930" lon="-2.0285550">
        <ele>1046.6</ele>
        <time>2019-07-06T06:01:10Z</time>
      </trkpt>
      <trkpt lat="40.6647460" lon="-2.0287250">
        <ele>1047.0</ele>
        <time>2019-07-06T06:01:13Z</time>
      </trkpt>
      <trkpt lat="40.6648270" lon="-2.0289440">
        <ele>1047.8</ele>
        <time>2019-07-06T06:01:17Z</time>
      </trkpt>
      <trkpt lat="40.6648710" lon="-2.0290620">
        <ele>1048.0</ele>
        <time>2019-07-06T06:01:19Z</time>
      </trkpt>
      <trkpt lat="40.6648980" lon="-2.0291210">
        <ele>1048.2</ele>
        <time>2019-07-06T06:01:20Z</time>
      </trkpt>
      <trkpt lat="40.6650030" lon="-2.0292770">
        <ele>1048.4</ele>
        <time>2019-07-06T06:01:23Z</time>
      </trkpt>
      <trkpt lat="40.6650440" lon="-2.0293250">
        <ele>1048.2</ele>
        <time>2019-07-06T06:01:24Z</time>
      </trkpt>
      <trkpt lat="40.6652950" lon="-2.0295250">
        <ele>1048.0</ele>
        <time>2019-07-06T06:01:29Z</time>
      </trkpt>
      <trkpt lat="40.6654190" lon="-2.0296050">
        <ele>1047.8</ele>
        <time>2019-07-06T06:01:31Z</time>
      </trkpt>
      <trkpt lat="40.6654880" lon="-2.0296420">
        <ele>1047.2</ele>
        <time>2019-07-06T06:01:32Z</time>
      </trkpt>
      <trkpt lat="40.6655610" lon="-2.0296720">
        <ele>1046.6</ele>
        <time>2019-07-06T06:01:33Z</time>
      </trkpt>
      <trkpt lat="40.6656350" lon="-2.0296920">
        <ele>1046.0</ele>
        <time>2019-07-06T06:01:34Z</time>
      </trkpt>
      <trkpt lat="40.6657850" lon="-2.0297140">
        <ele>1045.4</ele>
        <time>2019-07-06T06:01:36Z</time>
      </trkpt>
      <trkpt lat="40.6659900" lon="-2.0297410">
        <ele>1044.8</ele>
        <time>2019-07-06T06:01:39Z</time>
      </trkpt>
      <trkpt lat="40.6662390" lon="-2.0297880">
        <ele>1044.6</ele>
        <time>2019-07-06T06:01:43Z</time>
      </trkpt>
      <trkpt lat="40.6663590" lon="-2.0297930">
        <ele>1044.6</ele>
        <time>2019-07-06T06:01:45Z</time>
      </trkpt>
      <trkpt lat="40.6664210" lon="-2.0297920">
        <ele>1044.6</ele>
        <time>2019-07-06T06:01:46Z</time>
      </trkpt>
      <trkpt lat="40.6665550" lon="-2.0297830">
        <ele>1044.4</ele>
        <time>2019-07-06T06:01:48Z</time>
      </trkpt>
      <trkpt lat="40.6667050" lon="-2.0297730">
        <ele>1043.6</ele>
        <time>2019-07-06T06:01:50Z</time>
      </trkpt>
      <trkpt lat="40.6667840" lon="-2.0297710">
        <ele>1043.2</ele>
        <time>2019-07-06T06:01:51Z</time>
      </trkpt>
      <trkpt lat="40.6670270" lon="-2.0297640">
        <ele>1042.0</ele>
        <time>2019-07-06T06:01:54Z</time>
      </trkpt>
      <trkpt lat="40.6671750" lon="-2.0297510">
        <ele>1041.4</ele>
        <time>2019-07-06T06:01:56Z</time>
      </trkpt>
      <trkpt lat="40.6673760" lon="-2.0297360">
        <ele>1041.2</ele>
        <time>2019-07-06T06:01:59Z</time>
      </trkpt>
      <trkpt lat="40.6675050" lon="-2.0297270">
        <ele>1041.2</ele>
        <time>2019-07-06T06:02:01Z</time>
      </trkpt>
      <trkpt lat="40.6676920" lon="-2.0297070">
        <ele>1041.0</ele>
        <time>2019-07-06T06:02:04Z</time>
      </trkpt>
      <trkpt lat="40.6678190" lon="-2.0296970">
        <ele>1040.4</ele>
        <time>2019-07-06T06:02:06Z</time>
      </trkpt>
      <trkpt lat="40.6679320" lon="-2.0297000">
        <ele>1040.0</ele>
        <time>2019-07-06T06:02:08Z</time>
      </trkpt>
      <trkpt lat="40.6680520" lon="-2.0296990">
        <ele>1040.0</ele>
        <time>2019-07-06T06:02:10Z</time>
      </trkpt>
      <trkpt lat="40.6682880" lon="-2.0297180">
        <ele>1040.2</ele>
        <time>2019-07-06T06:02:14Z</time>
      </trkpt>
      <trkpt lat="40.6683490" lon="-2.0297250">
        <ele>1040.2</ele>
        <time>2019-07-06T06:02:15Z</time>
      </trkpt>
      <trkpt lat="40.6684090" lon="-2.0297280">
        <ele>1039.8</ele>
        <time>2019-07-06T06:02:16Z</time>
      </trkpt>
      <trkpt lat="40.6684690" lon="-2.0297340">
        <ele>1039.6</ele>
        <time>2019-07-06T06:02:17Z</time>
      </trkpt>
      <trkpt lat="40.6686530" lon="-2.0297660">
        <ele>1039.4</ele>
        <time>2019-07-06T06:02:20Z</time>
      </trkpt>
      <trkpt lat="40.6687740" lon="-2.0297960">
        <ele>1039.6</ele>
        <time>2019-07-06T06:02:22Z</time>
      </trkpt>
      <trkpt lat="40.6688900" lon="-2.0298630">
        <ele>1039.2</ele>
        <time>2019-07-06T06:02:24Z</time>
      </trkpt>
      <trkpt lat="40.6690440" lon="-2.0299970">
        <ele>1039.0</ele>
        <time>2019-07-06T06:02:27Z</time>
      </trkpt>
      <trkpt lat="40.6690910" lon="-2.0300440">
        <ele>1039.2</ele>
        <time>2019-07-06T06:02:28Z</time>
      </trkpt>
      <trkpt lat="40.6692110" lon="-2.0302010">
        <ele>1039.6</ele>
        <time>2019-07-06T06:02:31Z</time>
      </trkpt>
      <trkpt lat="40.6692990" lon="-2.0303090">
        <ele>1039.8</ele>
        <time>2019-07-06T06:02:33Z</time>
      </trkpt>
      <trkpt lat="40.6693910" lon="-2.0304130">
        <ele>1039.8</ele>
        <time>2019-07-06T06:02:35Z</time>
      </trkpt>
      <trkpt lat="40.6695250" lon="-2.0305870">
        <ele>1039.2</ele>
        <time>2019-07-06T06:02:38Z</time>
      </trkpt>
      <trkpt lat="40.6696250" lon="-2.0306930">
        <ele>1039.0</ele>
        <time>2019-07-06T06:02:40Z</time>
      </trkpt>
      <trkpt lat="40.6697660" lon="-2.0308550">
        <ele>1039.0</ele>
        <time>2019-07-06T06:02:43Z</time>
      </trkpt>
      <trkpt lat="40.6698970" lon="-2.0310260">
        <ele>1039.0</ele>
        <time>2019-07-06T06:02:46Z</time>
      </trkpt>
      <trkpt lat="40.6699740" lon="-2.0311280">
        <ele>1039.2</ele>
        <time>2019-07-06T06:02:48Z</time>
      </trkpt>
      <trkpt lat="40.6700820" lon="-2.0312760">
        <ele>1039.6</ele>
        <time>2019-07-06T06:02:51Z</time>
      </trkpt>
      <trkpt lat="40.6701420" lon="-2.0313820">
        <ele>1040.2</ele>
        <time>2019-07-06T06:02:53Z</time>
      </trkpt>
      <trkpt lat="40.6701760" lon="-2.0314420">
        <ele>1040.4</ele>
        <time>2019-07-06T06:02:54Z</time>
      </trkpt>
      <trkpt lat="40.6702070" lon="-2.0315140">
        <ele>1040.6</ele>
        <time>2019-07-06T06:02:55Z</time>
      </trkpt>
      <trkpt lat="40.6702590" lon="-2.0317510">
        <ele>1040.6</ele>
        <time>2019-07-06T06:02:58Z</time>
      </trkpt>
      <trkpt lat="40.6702660" lon="-2.0318280">
        <ele>1040.6</ele>
        <time>2019-07-06T06:02:59Z</time>
      </trkpt>
      <trkpt lat="40.6703070" lon="-2.0322790">
        <ele>1041.0</ele>
        <time>2019-07-06T06:03:05Z</time>
      </trkpt>
      <trkpt lat="40.6703130" lon="-2.0323480">
        <ele>1041.2</ele>
        <time>2019-07-06T06:03:06Z</time>
      </trkpt>
      <trkpt lat="40.6703290" lon="-2.0325430">
        <ele>1041.4</ele>
        <time>2019-07-06T06:03:09Z</time>
      </trkpt>
      <trkpt lat="40.6703440" lon="-2.0326580">
        <ele>1042.0</ele>
        <time>2019-07-06T06:03:11Z</time>
      </trkpt>
      <trkpt lat="40.6703730" lon="-2.0328130">
        <ele>1042.2</ele>
        <time>2019-07-06T06:03:14Z</time>
      </trkpt>
      <trkpt lat="40.6703820" lon="-2.0328610">
        <ele>1042.8</ele>
        <time>2019-07-06T06:03:15Z</time>
      </trkpt>
      <trkpt lat="40.6704160" lon="-2.0329530">
        <ele>1043.4</ele>
        <time>2019-07-06T06:03:17Z</time>
      </trkpt>
      <trkpt lat="40.6704680" lon="-2.0330920">
        <ele>1044.0</ele>
        <time>2019-07-06T06:03:20Z</time>
      </trkpt>
      <trkpt lat="40.6705000" lon="-2.0331920">
        <ele>1044.8</ele>
        <time>2019-07-06T06:03:22Z</time>
      </trkpt>
      <trkpt lat="40.6705130" lon="-2.0332400">
        <ele>1045.2</ele>
        <time>2019-07-06T06:03:23Z</time>
      </trkpt>
      <trkpt lat="40.6705570" lon="-2.0333720">
        <ele>1046.2</ele>
        <time>2019-07-06T06:03:26Z</time>
      </trkpt>
      <trkpt lat="40.6705810" lon="-2.0334660">
        <ele>1047.0</ele>
        <time>2019-07-06T06:03:28Z</time>
      </trkpt>
      <trkpt lat="40.6706010" lon="-2.0335110">
        <ele>1047.2</ele>
        <time>2019-07-06T06:03:29Z</time>
      </trkpt>
      <trkpt lat="40.6706790" lon="-2.0336410">
        <ele>1047.6</ele>
        <time>2019-07-06T06:03:32Z</time>
      </trkpt>
      <trkpt lat="40.6707110" lon="-2.0336800">
        <ele>1047.6</ele>
        <time>2019-07-06T06:03:33Z</time>
      </trkpt>
      <trkpt lat="40.6708180" lon="-2.0337890">
        <ele>1048.0</ele>
        <time>2019-07-06T06:03:36Z</time>
      </trkpt>
      <trkpt lat="40.6708620" lon="-2.0338260">
        <ele>1048.0</ele>
        <time>2019-07-06T06:03:37Z</time>
      </trkpt>
      <trkpt lat="40.6710190" lon="-2.0340120">
        <ele>1048.0</ele>
        <time>2019-07-06T06:03:41Z</time>
      </trkpt>
      <trkpt lat="40.6711380" lon="-2.0342320">
        <ele>1047.6</ele>
        <time>2019-07-06T06:03:45Z</time>
      </trkpt>
      <trkpt lat="40.6711470" lon="-2.0343000">
        <ele>1047.6</ele>
        <time>2019-07-06T06:03:46Z</time>
      </trkpt>
      <trkpt lat="40.6711620" lon="-2.0343670">
        <ele>1047.6</ele>
        <time>2019-07-06T06:03:47Z</time>
      </trkpt>
      <trkpt lat="40.6712220" lon="-2.0344820">
        <ele>1047.6</ele>
        <time>2019-07-06T06:03:49Z</time>
      </trkpt>
      <trkpt lat="40.6712930" lon="-2.0345510">
        <ele>1047.4</ele>
        <time>2019-07-06T06:03:51Z</time>
      </trkpt>
      <trkpt lat="40.6713750" lon="-2.0345890">
        <ele>1047.6</ele>
        <time>2019-07-06T06:03:53Z</time>
      </trkpt>
      <trkpt lat="40.6714150" lon="-2.0346030">
        <ele>1047.4</ele>
        <time>2019-07-06T06:03:54Z</time>
      </trkpt>
      <trkpt lat="40.6715000" lon="-2.0346370">
        <ele>1047.4</ele>
        <time>2019-07-06T06:03:56Z</time>
      </trkpt>
      <trkpt lat="40.6715890" lon="-2.0346910">
        <ele>1047.4</ele>
        <time>2019-07-06T06:03:58Z</time>
      </trkpt>
      <trkpt lat="40.6716330" lon="-2.0347240">
        <ele>1047.4</ele>
        <time>2019-07-06T06:03:59Z</time>
      </trkpt>
      <trkpt lat="40.6717700" lon="-2.0348490">
        <ele>1047.0</ele>
        <time>2019-07-06T06:04:02Z</time>
      </trkpt>
      <trkpt lat="40.6718110" lon="-2.0348970">
        <ele>1046.6</ele>
        <time>2019-07-06T06:04:03Z</time>
      </trkpt>
      <trkpt lat="40.6718480" lon="-2.0349450">
        <ele>1046.4</ele>
        <time>2019-07-06T06:04:04Z</time>
      </trkpt>
      <trkpt lat="40.6718830" lon="-2.0349990">
        <ele>1046.2</ele>
        <time>2019-07-06T06:04:05Z</time>
      </trkpt>
      <trkpt lat="40.6719500" lon="-2.0351180">
        <ele>1045.4</ele>
        <time>2019-07-06T06:04:07Z</time>
      </trkpt>
      <trkpt lat="40.6719910" lon="-2.0351750">
        <ele>1045.2</ele>
        <time>2019-07-06T06:04:08Z</time>
      </trkpt>
      <trkpt lat="40.6720870" lon="-2.0352870">
        <ele>1044.4</ele>
        <time>2019-07-06T06:04:10Z</time>
      </trkpt>
      <trkpt lat="40.6721840" lon="-2.0353820">
        <ele>1043.6</ele>
        <time>2019-07-06T06:04:12Z</time>
      </trkpt>
      <trkpt lat="40.6722360" lon="-2.0354250">
        <ele>1043.2</ele>
        <time>2019-07-06T06:04:13Z</time>
      </trkpt>
      <trkpt lat="40.6724030" lon="-2.0355730">
        <ele>1041.8</ele>
        <time>2019-07-06T06:04:16Z</time>
      </trkpt>
      <trkpt lat="40.6725200" lon="-2.0357000">
        <ele>1040.6</ele>
        <time>2019-07-06T06:04:18Z</time>
      </trkpt>
      <trkpt lat="40.6725760" lon="-2.0357670">
        <ele>1040.2</ele>
        <time>2019-07-06T06:04:19Z</time>
      </trkpt>
      <trkpt lat="40.6726760" lon="-2.0358960">
        <ele>1039.6</ele>
        <time>2019-07-06T06:04:21Z</time>
      </trkpt>
      <trkpt lat="40.6727270" lon="-2.0359470">
        <ele>1039.4</ele>
        <time>2019-07-06T06:04:22Z</time>
      </trkpt>
      <trkpt lat="40.6729120" lon="-2.0361310">
        <ele>1039.2</ele>
        <time>2019-07-06T06:04:26Z</time>
      </trkpt>
      <trkpt lat="40.6729870" lon="-2.0362200">
        <ele>1039.6</ele>
        <time>2019-07-06T06:04:28Z</time>
      </trkpt>
      <trkpt lat="40.6730220" lon="-2.0362660">
        <ele>1040.2</ele>
        <time>2019-07-06T06:04:29Z</time>
      </trkpt>
      <trkpt lat="40.6730820" lon="-2.0363570">
        <ele>1040.8</ele>
        <time>2019-07-06T06:04:31Z</time>
      </trkpt>
      <trkpt lat="40.6731660" lon="-2.0365040">
        <ele>1041.2</ele>
        <time>2019-07-06T06:04:34Z</time>
      </trkpt>
      <trkpt lat="40.6732850" lon="-2.0367020">
        <ele>1042.0</ele>
        <time>2019-07-06T06:04:38Z</time>
      </trkpt>
      <trkpt lat="40.6733540" lon="-2.0368140">
        <ele>1042.6</ele>
        <time>2019-07-06T06:04:40Z</time>
      </trkpt>
      <trkpt lat="40.6734170" lon="-2.0369180">
        <ele>1042.8</ele>
        <time>2019-07-06T06:04:42Z</time>
      </trkpt>
      <trkpt lat="40.6734830" lon="-2.0370320">
        <ele>1042.8</ele>
        <time>2019-07-06T06:04:44Z</time>
      </trkpt>
      <trkpt lat="40.6735980" lon="-2.0371680">
        <ele>1043.0</ele>
        <time>2019-07-06T06:04:47Z</time>
      </trkpt>
      <trkpt lat="40.6736870" lon="-2.0372630">
        <ele>1043.0</ele>
        <time>2019-07-06T06:04:49Z</time>
      </trkpt>
      <trkpt lat="40.6737810" lon="-2.0373510">
        <ele>1043.2</ele>
        <time>2019-07-06T06:04:51Z</time>
      </trkpt>
      <trkpt lat="40.6739360" lon="-2.0374610">
        <ele>1044.0</ele>
        <time>2019-07-06T06:04:54Z</time>
      </trkpt>
      <trkpt lat="40.6740340" lon="-2.0375330">
        <ele>1044.4</ele>
        <time>2019-07-06T06:04:56Z</time>
      </trkpt>
      <trkpt lat="40.6741300" lon="-2.0376050">
        <ele>1045.0</ele>
        <time>2019-07-06T06:04:58Z</time>
      </trkpt>
      <trkpt lat="40.6742420" lon="-2.0376600">
        <ele>1045.2</ele>
        <time>2019-07-06T06:05:00Z</time>
      </trkpt>
      <trkpt lat="40.6743970" lon="-2.0377370">
        <ele>1045.4</ele>
        <time>2019-07-06T06:05:03Z</time>
      </trkpt>
      <trkpt lat="40.6745080" lon="-2.0377780">
        <ele>1045.4</ele>
        <time>2019-07-06T06:05:05Z</time>
      </trkpt>
      <trkpt lat="40.6747400" lon="-2.0378310">
        <ele>1045.6</ele>
        <time>2019-07-06T06:05:10Z</time>
      </trkpt>
      <trkpt lat="40.6750740" lon="-2.0379440">
        <ele>1046.4</ele>
        <time>2019-07-06T06:05:17Z</time>
      </trkpt>
      <trkpt lat="40.6751730" lon="-2.0379740">
        <ele>1046.8</ele>
        <time>2019-07-06T06:05:19Z</time>
      </trkpt>
      <trkpt lat="40.6752790" lon="-2.0380020">
        <ele>1046.8</ele>
        <time>2019-07-06T06:05:21Z</time>
      </trkpt>
      <trkpt lat="40.6755030" lon="-2.0380480">
        <ele>1047.0</ele>
        <time>2019-07-06T06:05:25Z</time>
      </trkpt>
      <trkpt lat="40.6755600" lon="-2.0380560">
        <ele>1047.0</ele>
        <time>2019-07-06T06:05:26Z</time>
      </trkpt>
      <trkpt lat="40.6758870" lon="-2.0381150">
        <ele>1047.0</ele>
        <time>2019-07-06T06:05:32Z</time>
      </trkpt>
      <trkpt lat="40.6759890" lon="-2.0381290">
        <ele>1047.0</ele>
        <time>2019-07-06T06:05:34Z</time>
      </trkpt>
      <trkpt lat="40.6760880" lon="-2.0381300">
        <ele>1047.2</ele>
        <time>2019-07-06T06:05:36Z</time>
      </trkpt>
      <trkpt lat="40.6761330" lon="-2.0381350">
        <ele>1047.2</ele>
        <time>2019-07-06T06:05:37Z</time>
      </trkpt>
      <trkpt lat="40.6761780" lon="-2.0381440">
        <ele>1047.2</ele>
        <time>2019-07-06T06:05:38Z</time>
      </trkpt>
      <trkpt lat="40.6762200" lon="-2.0381630">
        <ele>1047.0</ele>
        <time>2019-07-06T06:05:39Z</time>
      </trkpt>
      <trkpt lat="40.6763260" lon="-2.0382740">
        <ele>1046.4</ele>
        <time>2019-07-06T06:05:42Z</time>
      </trkpt>
      <trkpt lat="40.6763570" lon="-2.0383310">
        <ele>1046.2</ele>
        <time>2019-07-06T06:05:43Z</time>
      </trkpt>
      <trkpt lat="40.6763870" lon="-2.0383990">
        <ele>1046.0</ele>
        <time>2019-07-06T06:05:44Z</time>
      </trkpt>
      <trkpt lat="40.6764180" lon="-2.0384710">
        <ele>1045.6</ele>
        <time>2019-07-06T06:05:45Z</time>
      </trkpt>
      <trkpt lat="40.6764810" lon="-2.0386240">
        <ele>1044.6</ele>
        <time>2019-07-06T06:05:47Z</time>
      </trkpt>
      <trkpt lat="40.6765200" lon="-2.0387010">
        <ele>1044.4</ele>
        <time>2019-07-06T06:05:48Z</time>
      </trkpt>
      <trkpt lat="40.6766440" lon="-2.0389350">
        <ele>1043.2</ele>
        <time>2019-07-06T06:05:51Z</time>
      </trkpt>
      <trkpt lat="40.6767330" lon="-2.0390910">
        <ele>1042.6</ele>
        <time>2019-07-06T06:05:53Z</time>
      </trkpt>
      <trkpt lat="40.6767750" lon="-2.0391750">
        <ele>1042.2</ele>
        <time>2019-07-06T06:05:54Z</time>
      </trkpt>
      <trkpt lat="40.6768250" lon="-2.0392580">
        <ele>1041.8</ele>
        <time>2019-07-06T06:05:55Z</time>
      </trkpt>
      <trkpt lat="40.6769260" lon="-2.0394310">
        <ele>1041.0</ele>
        <time>2019-07-06T06:05:57Z</time>
      </trkpt>
      <trkpt lat="40.6769760" lon="-2.0395170">
        <ele>1040.8</ele>
        <time>2019-07-06T06:05:58Z</time>
      </trkpt>
      <trkpt lat="40.6770170" lon="-2.0396080">
        <ele>1040.2</ele>
        <time>2019-07-06T06:05:59Z</time>
      </trkpt>
      <trkpt lat="40.6770550" lon="-2.0397000">
        <ele>1039.8</ele>
        <time>2019-07-06T06:06:00Z</time>
      </trkpt>
      <trkpt lat="40.6770910" lon="-2.0397880">
        <ele>1039.4</ele>
        <time>2019-07-06T06:06:01Z</time>
      </trkpt>
      <trkpt lat="40.6771570" lon="-2.0399610">
        <ele>1038.4</ele>
        <time>2019-07-06T06:06:03Z</time>
      </trkpt>
      <trkpt lat="40.6772050" lon="-2.0401230">
        <ele>1037.4</ele>
        <time>2019-07-06T06:06:05Z</time>
      </trkpt>
      <trkpt lat="40.6772230" lon="-2.0402060">
        <ele>1037.2</ele>
        <time>2019-07-06T06:06:06Z</time>
      </trkpt>
      <trkpt lat="40.6772310" lon="-2.0402900">
        <ele>1036.8</ele>
        <time>2019-07-06T06:06:07Z</time>
      </trkpt>
      <trkpt lat="40.6772040" lon="-2.0404580">
        <ele>1036.2</ele>
        <time>2019-07-06T06:06:09Z</time>
      </trkpt>
      <trkpt lat="40.6771830" lon="-2.0405310">
        <ele>1036.0</ele>
        <time>2019-07-06T06:06:10Z</time>
      </trkpt>
      <trkpt lat="40.6771290" lon="-2.0406730">
        <ele>1035.8</ele>
        <time>2019-07-06T06:06:12Z</time>
      </trkpt>
      <trkpt lat="40.6770990" lon="-2.0407370">
        <ele>1035.6</ele>
        <time>2019-07-06T06:06:13Z</time>
      </trkpt>
      <trkpt lat="40.6770360" lon="-2.0408570">
        <ele>1035.6</ele>
        <time>2019-07-06T06:06:15Z</time>
      </trkpt>
      <trkpt lat="40.6770010" lon="-2.0409050">
        <ele>1035.6</ele>
        <time>2019-07-06T06:06:16Z</time>
      </trkpt>
      <trkpt lat="40.6769270" lon="-2.0409700">
        <ele>1036.0</ele>
        <time>2019-07-06T06:06:18Z</time>
      </trkpt>
      <trkpt lat="40.6768580" lon="-2.0410080">
        <ele>1036.6</ele>
        <time>2019-07-06T06:06:20Z</time>
      </trkpt>
      <trkpt lat="40.6767820" lon="-2.0410390">
        <ele>1037.0</ele>
        <time>2019-07-06T06:06:22Z</time>
      </trkpt>
      <trkpt lat="40.6767460" lon="-2.0410560">
        <ele>1037.2</ele>
        <time>2019-07-06T06:06:23Z</time>
      </trkpt>
      <trkpt lat="40.6766690" lon="-2.0410850">
        <ele>1038.0</ele>
        <time>2019-07-06T06:06:25Z</time>
      </trkpt>
      <trkpt lat="40.6766270" lon="-2.0411040">
        <ele>1038.4</ele>
        <time>2019-07-06T06:06:26Z</time>
      </trkpt>
      <trkpt lat="40.6765840" lon="-2.0411240">
        <ele>1038.8</ele>
        <time>2019-07-06T06:06:27Z</time>
      </trkpt>
      <trkpt lat="40.6765060" lon="-2.0411610">
        <ele>1039.2</ele>
        <time>2019-07-06T06:06:29Z</time>
      </trkpt>
      <trkpt lat="40.6764730" lon="-2.0411770">
        <ele>1039.6</ele>
        <time>2019-07-06T06:06:30Z</time>
      </trkpt>
      <trkpt lat="40.6763840" lon="-2.0412120">
        <ele>1040.4</ele>
        <time>2019-07-06T06:06:33Z</time>
      </trkpt>
      <trkpt lat="40.6763550" lon="-2.0412210">
        <ele>1040.8</ele>
        <time>2019-07-06T06:06:34Z</time>
      </trkpt>
      <trkpt lat="40.6762630" lon="-2.0412410">
        <ele>1041.8</ele>
        <time>2019-07-06T06:06:37Z</time>
      </trkpt>
      <trkpt lat="40.6762070" lon="-2.0412370">
        <ele>1042.4</ele>
        <time>2019-07-06T06:06:39Z</time>
      </trkpt>
      <trkpt lat="40.6761480" lon="-2.0412350">
        <ele>1042.8</ele>
        <time>2019-07-06T06:06:41Z</time>
      </trkpt>
      <trkpt lat="40.6760580" lon="-2.0412270">
        <ele>1043.8</ele>
        <time>2019-07-06T06:06:44Z</time>
      </trkpt>
      <trkpt lat="40.6760300" lon="-2.0412200">
        <ele>1044.4</ele>
        <time>2019-07-06T06:06:45Z</time>
      </trkpt>
      <trkpt lat="40.6759180" lon="-2.0411800">
        <ele>1045.2</ele>
        <time>2019-07-06T06:06:49Z</time>
      </trkpt>
      <trkpt lat="40.6758620" lon="-2.0411570">
        <ele>1046.0</ele>
        <time>2019-07-06T06:06:51Z</time>
      </trkpt>
      <trkpt lat="40.6758160" lon="-2.0411320">
        <ele>1046.8</ele>
        <time>2019-07-06T06:06:53Z</time>
      </trkpt>
      <trkpt lat="40.6757410" lon="-2.0410950">
        <ele>1047.6</ele>
        <time>2019-07-06T06:06:56Z</time>
      </trkpt>
      <trkpt lat="40.6757150" lon="-2.0410800">
        <ele>1047.8</ele>
        <time>2019-07-06T06:06:57Z</time>
      </trkpt>
      <trkpt lat="40.6756340" lon="-2.0410300">
        <ele>1048.8</ele>
        <time>2019-07-06T06:07:00Z</time>
      </trkpt>
      <trkpt lat="40.6755650" lon="-2.0409930">
        <ele>1049.6</ele>
        <time>2019-07-06T06:07:03Z</time>
      </trkpt>
      <trkpt lat="40.6754800" lon="-2.0409730">
        <ele>1050.2</ele>
        <time>2019-07-06T06:07:06Z</time>
      </trkpt>
      <trkpt lat="40.6754160" lon="-2.0409920">
        <ele>1050.6</ele>
        <time>2019-07-06T06:07:08Z</time>
      </trkpt>
      <trkpt lat="40.6753200" lon="-2.0411110">
        <ele>1051.2</ele>
        <time>2019-07-06T06:07:12Z</time>
      </trkpt>
      <trkpt lat="40.6753580" lon="-2.0412370">
        <ele>1051.4</ele>
        <time>2019-07-06T06:07:16Z</time>
      </trkpt>
      <trkpt lat="40.6754200" lon="-2.0412990">
        <ele>1052.0</ele>
        <time>2019-07-06T06:07:19Z</time>
      </trkpt>
      <trkpt lat="40.6754490" lon="-2.0413200">
        <ele>1052.2</ele>
        <time>2019-07-06T06:07:20Z</time>
      </trkpt>
      <trkpt lat="40.6754970" lon="-2.0413600">
        <ele>1052.4</ele>
        <time>2019-07-06T06:07:22Z</time>
      </trkpt>
      <trkpt lat="40.6756530" lon="-2.0414810">
        <ele>1053.2</ele>
        <time>2019-07-06T06:07:27Z</time>
      </trkpt>
      <trkpt lat="40.6757390" lon="-2.0415590">
        <ele>1053.2</ele>
        <time>2019-07-06T06:07:30Z</time>
      </trkpt>
      <trkpt lat="40.6757810" lon="-2.0416470">
        <ele>1053.2</ele>
        <time>2019-07-06T06:07:32Z</time>
      </trkpt>
      <trkpt lat="40.6757870" lon="-2.0417920">
        <ele>1053.2</ele>
        <time>2019-07-06T06:07:35Z</time>
      </trkpt>
      <trkpt lat="40.6757840" lon="-2.0418360">
        <ele>1053.2</ele>
        <time>2019-07-06T06:07:36Z</time>
      </trkpt>
      <trkpt lat="40.6757640" lon="-2.0419970">
        <ele>1053.2</ele>
        <time>2019-07-06T06:07:39Z</time>
      </trkpt>
      <trkpt lat="40.6757640" lon="-2.0420530">
        <ele>1053.2</ele>
        <time>2019-07-06T06:07:40Z</time>
      </trkpt>
      <trkpt lat="40.6757990" lon="-2.0422640">
        <ele>1053.4</ele>
        <time>2019-07-06T06:07:44Z</time>
      </trkpt>
      <trkpt lat="40.6758140" lon="-2.0423170">
        <ele>1053.6</ele>
        <time>2019-07-06T06:07:45Z</time>
      </trkpt>
      <trkpt lat="40.6758510" lon="-2.0424140">
        <ele>1053.8</ele>
        <time>2019-07-06T06:07:47Z</time>
      </trkpt>
      <trkpt lat="40.6758940" lon="-2.0424950">
        <ele>1053.6</ele>
        <time>2019-07-06T06:07:49Z</time>
      </trkpt>
      <trkpt lat="40.6759530" lon="-2.0425670">
        <ele>1053.4</ele>
        <time>2019-07-06T06:07:51Z</time>
      </trkpt>
      <trkpt lat="40.6760650" lon="-2.0426980">
        <ele>1053.2</ele>
        <time>2019-07-06T06:07:54Z</time>
      </trkpt>
      <trkpt lat="40.6761740" lon="-2.0429020">
        <ele>1052.2</ele>
        <time>2019-07-06T06:07:57Z</time>
      </trkpt>
      <trkpt lat="40.6762200" lon="-2.0430620">
        <ele>1051.4</ele>
        <time>2019-07-06T06:07:59Z</time>
      </trkpt>
      <trkpt lat="40.6762380" lon="-2.0431440">
        <ele>1051.2</ele>
        <time>2019-07-06T06:08:00Z</time>
      </trkpt>
      <trkpt lat="40.6762760" lon="-2.0433100">
        <ele>1050.6</ele>
        <time>2019-07-06T06:08:02Z</time>
      </trkpt>
      <trkpt lat="40.6763060" lon="-2.0434720">
        <ele>1049.8</ele>
        <time>2019-07-06T06:08:04Z</time>
      </trkpt>
      <trkpt lat="40.6763400" lon="-2.0436310">
        <ele>1048.2</ele>
        <time>2019-07-06T06:08:06Z</time>
      </trkpt>
      <trkpt lat="40.6763570" lon="-2.0437070">
        <ele>1047.6</ele>
        <time>2019-07-06T06:08:07Z</time>
      </trkpt>
      <trkpt lat="40.6763970" lon="-2.0438610">
        <ele>1046.6</ele>
        <time>2019-07-06T06:08:09Z</time>
      </trkpt>
      <trkpt lat="40.6764450" lon="-2.0440150">
        <ele>1045.2</ele>
        <time>2019-07-06T06:08:11Z</time>
      </trkpt>
      <trkpt lat="40.6764710" lon="-2.0440900">
        <ele>1044.8</ele>
        <time>2019-07-06T06:08:12Z</time>
      </trkpt>
      <trkpt lat="40.6765150" lon="-2.0442390">
        <ele>1044.2</ele>
        <time>2019-07-06T06:08:14Z</time>
      </trkpt>
      <trkpt lat="40.6765320" lon="-2.0443170">
        <ele>1043.8</ele>
        <time>2019-07-06T06:08:15Z</time>
      </trkpt>
      <trkpt lat="40.6765420" lon="-2.0444900">
        <ele>1042.8</ele>
        <time>2019-07-06T06:08:17Z</time>
      </trkpt>
      <trkpt lat="40.6765500" lon="-2.0446580">
        <ele>1041.6</ele>
        <time>2019-07-06T06:08:19Z</time>
      </trkpt>
      <trkpt lat="40.6765920" lon="-2.0447970">
        <ele>1041.0</ele>
        <time>2019-07-06T06:08:21Z</time>
      </trkpt>
      <trkpt lat="40.6766230" lon="-2.0448530">
        <ele>1040.6</ele>
        <time>2019-07-06T06:08:22Z</time>
      </trkpt>
      <trkpt lat="40.6767540" lon="-2.0450050">
        <ele>1040.0</ele>
        <time>2019-07-06T06:08:25Z</time>
      </trkpt>
      <trkpt lat="40.6767980" lon="-2.0450430">
        <ele>1039.8</ele>
        <time>2019-07-06T06:08:26Z</time>
      </trkpt>
      <trkpt lat="40.6769950" lon="-2.0451870">
        <ele>1041.0</ele>
        <time>2019-07-06T06:08:31Z</time>
      </trkpt>
      <trkpt lat="40.6770710" lon="-2.0452490">
        <ele>1041.2</ele>
        <time>2019-07-06T06:08:33Z</time>
      </trkpt>
      <trkpt lat="40.6771440" lon="-2.0453190">
        <ele>1041.2</ele>
        <time>2019-07-06T06:08:35Z</time>
      </trkpt>
      <trkpt lat="40.6771800" lon="-2.0453570">
        <ele>1041.2</ele>
        <time>2019-07-06T06:08:36Z</time>
      </trkpt>
      <trkpt lat="40.6772160" lon="-2.0453960">
        <ele>1041.4</ele>
        <time>2019-07-06T06:08:37Z</time>
      </trkpt>
      <trkpt lat="40.6772890" lon="-2.0454810">
        <ele>1041.4</ele>
        <time>2019-07-06T06:08:39Z</time>
      </trkpt>
      <trkpt lat="40.6773630" lon="-2.0455720">
        <ele>1041.4</ele>
        <time>2019-07-06T06:08:41Z</time>
      </trkpt>
      <trkpt lat="40.6775230" lon="-2.0457640">
        <ele>1041.6</ele>
        <time>2019-07-06T06:08:45Z</time>
      </trkpt>
      <trkpt lat="40.6775640" lon="-2.0458150">
        <ele>1041.8</ele>
        <time>2019-07-06T06:08:46Z</time>
      </trkpt>
      <trkpt lat="40.6776860" lon="-2.0459730">
        <ele>1041.8</ele>
        <time>2019-07-06T06:08:49Z</time>
      </trkpt>
      <trkpt lat="40.6778110" lon="-2.0461310">
        <ele>1042.0</ele>
        <time>2019-07-06T06:08:52Z</time>
      </trkpt>
      <trkpt lat="40.6780510" lon="-2.0464140">
        <ele>1042.0</ele>
        <time>2019-07-06T06:08:58Z</time>
      </trkpt>
      <trkpt lat="40.6782070" lon="-2.0465900">
        <ele>1043.0</ele>
        <time>2019-07-06T06:09:02Z</time>
      </trkpt>
      <trkpt lat="40.6782420" lon="-2.0466440">
        <ele>1043.0</ele>
        <time>2019-07-06T06:09:03Z</time>
      </trkpt>
      <trkpt lat="40.6785150" lon="-2.0469930">
        <ele>1043.2</ele>
        <time>2019-07-06T06:09:10Z</time>
      </trkpt>
      <trkpt lat="40.6787620" lon="-2.0473110">
        <ele>1043.2</ele>
        <time>2019-07-06T06:09:16Z</time>
      </trkpt>
      <trkpt lat="40.6787990" lon="-2.0473680">
        <ele>1043.2</ele>
        <time>2019-07-06T06:09:17Z</time>
      </trkpt>
      <trkpt lat="40.6788680" lon="-2.0474850">
        <ele>1043.2</ele>
        <time>2019-07-06T06:09:19Z</time>
      </trkpt>
      <trkpt lat="40.6789940" lon="-2.0477500">
        <ele>1042.6</ele>
        <time>2019-07-06T06:09:23Z</time>
      </trkpt>
      <trkpt lat="40.6790840" lon="-2.0478540">
        <ele>1042.4</ele>
        <time>2019-07-06T06:09:25Z</time>
      </trkpt>
      <trkpt lat="40.6791400" lon="-2.0478840">
        <ele>1042.2</ele>
        <time>2019-07-06T06:09:26Z</time>
      </trkpt>
      <trkpt lat="40.6792570" lon="-2.0479090">
        <ele>1042.0</ele>
        <time>2019-07-06T06:09:28Z</time>
      </trkpt>
      <trkpt lat="40.6793700" lon="-2.0478960">
        <ele>1042.2</ele>
        <time>2019-07-06T06:09:30Z</time>
      </trkpt>
      <trkpt lat="40.6794750" lon="-2.0478620">
        <ele>1042.4</ele>
        <time>2019-07-06T06:09:32Z</time>
      </trkpt>
      <trkpt lat="40.6796300" lon="-2.0478240">
        <ele>1043.0</ele>
        <time>2019-07-06T06:09:35Z</time>
      </trkpt>
      <trkpt lat="40.6796820" lon="-2.0478270">
        <ele>1043.0</ele>
        <time>2019-07-06T06:09:36Z</time>
      </trkpt>
      <trkpt lat="40.6799650" lon="-2.0479220">
        <ele>1042.6</ele>
        <time>2019-07-06T06:09:41Z</time>
      </trkpt>
      <trkpt lat="40.6801180" lon="-2.0480020">
        <ele>1042.6</ele>
        <time>2019-07-06T06:09:44Z</time>
      </trkpt>
      <trkpt lat="40.6802140" lon="-2.0480610">
        <ele>1042.8</ele>
        <time>2019-07-06T06:09:46Z</time>
      </trkpt>
      <trkpt lat="40.6802630" lon="-2.0480910">
        <ele>1042.8</ele>
        <time>2019-07-06T06:09:47Z</time>
      </trkpt>
      <trkpt lat="40.6805230" lon="-2.0482340">
        <ele>1043.4</ele>
        <time>2019-07-06T06:09:53Z</time>
      </trkpt>
      <trkpt lat="40.6805640" lon="-2.0482540">
        <ele>1043.6</ele>
        <time>2019-07-06T06:09:54Z</time>
      </trkpt>
      <trkpt lat="40.6806850" lon="-2.0482980">
        <ele>1044.2</ele>
        <time>2019-07-06T06:09:57Z</time>
      </trkpt>
      <trkpt lat="40.6807940" lon="-2.0483260">
        <ele>1045.0</ele>
        <time>2019-07-06T06:10:00Z</time>
      </trkpt>
      <trkpt lat="40.6808290" lon="-2.0483360">
        <ele>1045.2</ele>
        <time>2019-07-06T06:10:01Z</time>
      </trkpt>
      <trkpt lat="40.6809630" lon="-2.0483900">
        <ele>1046.4</ele>
        <time>2019-07-06T06:10:05Z</time>
      </trkpt>
      <trkpt lat="40.6810600" lon="-2.0484270">
        <ele>1047.6</ele>
        <time>2019-07-06T06:10:08Z</time>
      </trkpt>
      <trkpt lat="40.6811460" lon="-2.0484630">
        <ele>1048.4</ele>
        <time>2019-07-06T06:10:11Z</time>
      </trkpt>
      <trkpt lat="40.6812010" lon="-2.0484760">
        <ele>1048.8</ele>
        <time>2019-07-06T06:10:13Z</time>
      </trkpt>
      <trkpt lat="40.6812650" lon="-2.0484760">
        <ele>1049.4</ele>
        <time>2019-07-06T06:10:15Z</time>
      </trkpt>
      <trkpt lat="40.6814900" lon="-2.0484020">
        <ele>1049.4</ele>
        <time>2019-07-06T06:10:21Z</time>
      </trkpt>
      <trkpt lat="40.6815360" lon="-2.0483740">
        <ele>1049.4</ele>
        <time>2019-07-06T06:10:22Z</time>
      </trkpt>
      <trkpt lat="40.6816700" lon="-2.0482210">
        <ele>1048.4</ele>
        <time>2019-07-06T06:10:25Z</time>
      </trkpt>
      <trkpt lat="40.6817130" lon="-2.0481640">
        <ele>1047.8</ele>
        <time>2019-07-06T06:10:26Z</time>
      </trkpt>
      <trkpt lat="40.6817510" lon="-2.0481020">
        <ele>1047.2</ele>
        <time>2019-07-06T06:10:27Z</time>
      </trkpt>
      <trkpt lat="40.6818210" lon="-2.0479850">
        <ele>1046.8</ele>
        <time>2019-07-06T06:10:29Z</time>
      </trkpt>
      <trkpt lat="40.6818890" lon="-2.0478840">
        <ele>1046.8</ele>
        <time>2019-07-06T06:10:31Z</time>
      </trkpt>
      <trkpt lat="40.6819250" lon="-2.0478400">
        <ele>1047.0</ele>
        <time>2019-07-06T06:10:32Z</time>
      </trkpt>
      <trkpt lat="40.6820600" lon="-2.0477470">
        <ele>1047.0</ele>
        <time>2019-07-06T06:10:35Z</time>
      </trkpt>
      <trkpt lat="40.6822990" lon="-2.0476070">
        <ele>1047.0</ele>
        <time>2019-07-06T06:10:40Z</time>
      </trkpt>
      <trkpt lat="40.6823920" lon="-2.0475490">
        <ele>1047.0</ele>
        <time>2019-07-06T06:10:42Z</time>
      </trkpt>
      <trkpt lat="40.6824410" lon="-2.0475310">
        <ele>1047.0</ele>
        <time>2019-07-06T06:10:43Z</time>
      </trkpt>
      <trkpt lat="40.6825980" lon="-2.0475230">
        <ele>1047.0</ele>
        <time>2019-07-06T06:10:46Z</time>
      </trkpt>
      <trkpt lat="40.6826490" lon="-2.0475430">
        <ele>1046.8</ele>
        <time>2019-07-06T06:10:47Z</time>
      </trkpt>
      <trkpt lat="40.6827550" lon="-2.0475980">
        <ele>1046.6</ele>
        <time>2019-07-06T06:10:49Z</time>
      </trkpt>
      <trkpt lat="40.6828640" lon="-2.0476520">
        <ele>1046.6</ele>
        <time>2019-07-06T06:10:51Z</time>
      </trkpt>
      <trkpt lat="40.6829770" lon="-2.0476900">
        <ele>1046.2</ele>
        <time>2019-07-06T06:10:53Z</time>
      </trkpt>
      <trkpt lat="40.6830880" lon="-2.0477140">
        <ele>1045.6</ele>
        <time>2019-07-06T06:10:55Z</time>
      </trkpt>
      <trkpt lat="40.6832590" lon="-2.0477290">
        <ele>1045.4</ele>
        <time>2019-07-06T06:10:58Z</time>
      </trkpt>
      <trkpt lat="40.6833170" lon="-2.0477350">
        <ele>1045.4</ele>
        <time>2019-07-06T06:10:59Z</time>
      </trkpt>
      <trkpt lat="40.6835490" lon="-2.0477400">
        <ele>1045.4</ele>
        <time>2019-07-06T06:11:03Z</time>
      </trkpt>
      <trkpt lat="40.6836050" lon="-2.0477370">
        <ele>1045.4</ele>
        <time>2019-07-06T06:11:04Z</time>
      </trkpt>
      <trkpt lat="40.6838830" lon="-2.0477200">
        <ele>1045.4</ele>
        <time>2019-07-06T06:11:09Z</time>
      </trkpt>
      <trkpt lat="40.6839930" lon="-2.0477160">
        <ele>1045.6</ele>
        <time>2019-07-06T06:11:11Z</time>
      </trkpt>
      <trkpt lat="40.6843020" lon="-2.0477100">
        <ele>1046.6</ele>
        <time>2019-07-06T06:11:17Z</time>
      </trkpt>
      <trkpt lat="40.6844420" lon="-2.0477040">
        <ele>1047.0</ele>
        <time>2019-07-06T06:11:20Z</time>
      </trkpt>
      <trkpt lat="40.6845790" lon="-2.0476970">
        <ele>1047.8</ele>
        <time>2019-07-06T06:11:23Z</time>
      </trkpt>
      <trkpt lat="40.6846680" lon="-2.0477020">
        <ele>1048.2</ele>
        <time>2019-07-06T06:11:25Z</time>
      </trkpt>
      <trkpt lat="40.6848500" lon="-2.0477400">
        <ele>1048.4</ele>
        <time>2019-07-06T06:11:29Z</time>
      </trkpt>
      <trkpt lat="40.6851630" lon="-2.0478530">
        <ele>1047.8</ele>
        <time>2019-07-06T06:11:34Z</time>
      </trkpt>
      <trkpt lat="40.6852900" lon="-2.0479080">
        <ele>1047.0</ele>
        <time>2019-07-06T06:11:36Z</time>
      </trkpt>
      <trkpt lat="40.6855320" lon="-2.0480210">
        <ele>1046.2</ele>
        <time>2019-07-06T06:11:40Z</time>
      </trkpt>
      <trkpt lat="40.6856560" lon="-2.0480670">
        <ele>1046.0</ele>
        <time>2019-07-06T06:11:42Z</time>
      </trkpt>
      <trkpt lat="40.6857160" lon="-2.0480870">
        <ele>1045.8</ele>
        <time>2019-07-06T06:11:43Z</time>
      </trkpt>
      <trkpt lat="40.6859050" lon="-2.0481320">
        <ele>1045.2</ele>
        <time>2019-07-06T06:11:46Z</time>
      </trkpt>
      <trkpt lat="40.6859750" lon="-2.0481410">
        <ele>1045.2</ele>
        <time>2019-07-06T06:11:47Z</time>
      </trkpt>
      <trkpt lat="40.6861170" lon="-2.0481570">
        <ele>1044.6</ele>
        <time>2019-07-06T06:11:49Z</time>
      </trkpt>
      <trkpt lat="40.6863380" lon="-2.0482120">
        <ele>1042.6</ele>
        <time>2019-07-06T06:11:52Z</time>
      </trkpt>
      <trkpt lat="40.6865550" lon="-2.0483000">
        <ele>1041.6</ele>
        <time>2019-07-06T06:11:55Z</time>
      </trkpt>
      <trkpt lat="40.6866860" lon="-2.0483740">
        <ele>1041.2</ele>
        <time>2019-07-06T06:11:57Z</time>
      </trkpt>
      <trkpt lat="40.6867520" lon="-2.0484050">
        <ele>1041.0</ele>
        <time>2019-07-06T06:11:58Z</time>
      </trkpt>
      <trkpt lat="40.6868830" lon="-2.0484280">
        <ele>1040.4</ele>
        <time>2019-07-06T06:12:00Z</time>
      </trkpt>
      <trkpt lat="40.6870060" lon="-2.0484260">
        <ele>1039.8</ele>
        <time>2019-07-06T06:12:02Z</time>
      </trkpt>
      <trkpt lat="40.6871760" lon="-2.0484190">
        <ele>1039.8</ele>
        <time>2019-07-06T06:12:05Z</time>
      </trkpt>
      <trkpt lat="40.6872860" lon="-2.0483890">
        <ele>1039.8</ele>
        <time>2019-07-06T06:12:07Z</time>
      </trkpt>
      <trkpt lat="40.6873980" lon="-2.0483540">
        <ele>1040.0</ele>
        <time>2019-07-06T06:12:09Z</time>
      </trkpt>
      <trkpt lat="40.6875770" lon="-2.0482950">
        <ele>1039.8</ele>
        <time>2019-07-06T06:12:12Z</time>
      </trkpt>
      <trkpt lat="40.6876950" lon="-2.0482310">
        <ele>1039.4</ele>
        <time>2019-07-06T06:12:14Z</time>
      </trkpt>
      <trkpt lat="40.6878880" lon="-2.0481380">
        <ele>1038.6</ele>
        <time>2019-07-06T06:12:17Z</time>
      </trkpt>
      <trkpt lat="40.6880260" lon="-2.0480780">
        <ele>1038.2</ele>
        <time>2019-07-06T06:12:19Z</time>
      </trkpt>
      <trkpt lat="40.6882140" lon="-2.0479640">
        <ele>1037.0</ele>
        <time>2019-07-06T06:12:22Z</time>
      </trkpt>
      <trkpt lat="40.6882690" lon="-2.0479230">
        <ele>1037.0</ele>
        <time>2019-07-06T06:12:23Z</time>
      </trkpt>
      <trkpt lat="40.6884420" lon="-2.0478080">
        <ele>1036.6</ele>
        <time>2019-07-06T06:12:26Z</time>
      </trkpt>
      <trkpt lat="40.6886130" lon="-2.0476930">
        <ele>1036.2</ele>
        <time>2019-07-06T06:12:29Z</time>
      </trkpt>
      <trkpt lat="40.6887820" lon="-2.0476010">
        <ele>1036.0</ele>
        <time>2019-07-06T06:12:32Z</time>
      </trkpt>
      <trkpt lat="40.6888420" lon="-2.0475790">
        <ele>1036.0</ele>
        <time>2019-07-06T06:12:33Z</time>
      </trkpt>
      <trkpt lat="40.6889580" lon="-2.0475300">
        <ele>1036.0</ele>
        <time>2019-07-06T06:12:35Z</time>
      </trkpt>
      <trkpt lat="40.6892280" lon="-2.0474240">
        <ele>1036.2</ele>
        <time>2019-07-06T06:12:40Z</time>
      </trkpt>
      <trkpt lat="40.6894890" lon="-2.0474290">
        <ele>1036.6</ele>
        <time>2019-07-06T06:12:45Z</time>
      </trkpt>
      <trkpt lat="40.6895380" lon="-2.0474450">
        <ele>1036.8</ele>
        <time>2019-07-06T06:12:46Z</time>
      </trkpt>
      <trkpt lat="40.6895860" lon="-2.0474660">
        <ele>1037.0</ele>
        <time>2019-07-06T06:12:47Z</time>
      </trkpt>
      <trkpt lat="40.6897060" lon="-2.0475760">
        <ele>1037.4</ele>
        <time>2019-07-06T06:12:50Z</time>
      </trkpt>
      <trkpt lat="40.6897600" lon="-2.0476720">
        <ele>1037.6</ele>
        <time>2019-07-06T06:12:52Z</time>
      </trkpt>
      <trkpt lat="40.6898260" lon="-2.0478430">
        <ele>1038.2</ele>
        <time>2019-07-06T06:12:55Z</time>
      </trkpt>
      <trkpt lat="40.6898460" lon="-2.0479030">
        <ele>1038.6</ele>
        <time>2019-07-06T06:12:56Z</time>
      </trkpt>
      <trkpt lat="40.6899330" lon="-2.0482190">
        <ele>1039.0</ele>
        <time>2019-07-06T06:13:01Z</time>
      </trkpt>
      <trkpt lat="40.6899510" lon="-2.0482790">
        <ele>1038.8</ele>
        <time>2019-07-06T06:13:02Z</time>
      </trkpt>
      <trkpt lat="40.6900170" lon="-2.0484610">
        <ele>1037.8</ele>
        <time>2019-07-06T06:13:05Z</time>
      </trkpt>
      <trkpt lat="40.6900400" lon="-2.0485230">
        <ele>1037.6</ele>
        <time>2019-07-06T06:13:06Z</time>
      </trkpt>
      <trkpt lat="40.6900690" lon="-2.0485850">
        <ele>1037.4</ele>
        <time>2019-07-06T06:13:07Z</time>
      </trkpt>
      <trkpt lat="40.6901880" lon="-2.0487880">
        <ele>1036.4</ele>
        <time>2019-07-06T06:13:10Z</time>
      </trkpt>
      <trkpt lat="40.6902330" lon="-2.0488610">
        <ele>1035.6</ele>
        <time>2019-07-06T06:13:11Z</time>
      </trkpt>
      <trkpt lat="40.6902780" lon="-2.0489350">
        <ele>1034.4</ele>
        <time>2019-07-06T06:13:12Z</time>
      </trkpt>
      <trkpt lat="40.6903620" lon="-2.0491000">
        <ele>1032.8</ele>
        <time>2019-07-06T06:13:14Z</time>
      </trkpt>
      <trkpt lat="40.6904620" lon="-2.0492690">
        <ele>1031.4</ele>
        <time>2019-07-06T06:13:16Z</time>
      </trkpt>
      <trkpt lat="40.6905690" lon="-2.0494200">
        <ele>1031.0</ele>
        <time>2019-07-06T06:13:18Z</time>
      </trkpt>
      <trkpt lat="40.6907030" lon="-2.0495620">
        <ele>1030.2</ele>
        <time>2019-07-06T06:13:20Z</time>
      </trkpt>
      <trkpt lat="40.6907630" lon="-2.0496370">
        <ele>1029.8</ele>
        <time>2019-07-06T06:13:21Z</time>
      </trkpt>
      <trkpt lat="40.6908910" lon="-2.0497670">
        <ele>1029.4</ele>
        <time>2019-07-06T06:13:23Z</time>
      </trkpt>
      <trkpt lat="40.6909490" lon="-2.0498250">
        <ele>1029.2</ele>
        <time>2019-07-06T06:13:24Z</time>
      </trkpt>
      <trkpt lat="40.6910030" lon="-2.0498790">
        <ele>1029.2</ele>
        <time>2019-07-06T06:13:25Z</time>
      </trkpt>
      <trkpt lat="40.6910590" lon="-2.0499240">
        <ele>1029.2</ele>
        <time>2019-07-06T06:13:26Z</time>
      </trkpt>
      <trkpt lat="40.6911830" lon="-2.0499970">
        <ele>1029.4</ele>
        <time>2019-07-06T06:13:28Z</time>
      </trkpt>
      <trkpt lat="40.6912280" lon="-2.0500270">
        <ele>1029.8</ele>
        <time>2019-07-06T06:13:29Z</time>
      </trkpt>
      <trkpt lat="40.6913140" lon="-2.0500880">
        <ele>1030.0</ele>
        <time>2019-07-06T06:13:31Z</time>
      </trkpt>
      <trkpt lat="40.6913800" lon="-2.0501450">
        <ele>1030.2</ele>
        <time>2019-07-06T06:13:33Z</time>
      </trkpt>
      <trkpt lat="40.6914070" lon="-2.0501690">
        <ele>1030.6</ele>
        <time>2019-07-06T06:13:34Z</time>
      </trkpt>
      <trkpt lat="40.6914860" lon="-2.0502430">
        <ele>1031.6</ele>
        <time>2019-07-06T06:13:37Z</time>
      </trkpt>
      <trkpt lat="40.6915500" lon="-2.0503120">
        <ele>1032.6</ele>
        <time>2019-07-06T06:13:40Z</time>
      </trkpt>
      <trkpt lat="40.6915970" lon="-2.0503620">
        <ele>1033.6</ele>
        <time>2019-07-06T06:13:42Z</time>
      </trkpt>
      <trkpt lat="40.6916500" lon="-2.0503880">
        <ele>1034.2</ele>
        <time>2019-07-06T06:13:44Z</time>
      </trkpt>
      <trkpt lat="40.6917200" lon="-2.0504500">
        <ele>1034.8</ele>
        <time>2019-07-06T06:13:47Z</time>
      </trkpt>
      <trkpt lat="40.6917420" lon="-2.0504770">
        <ele>1035.0</ele>
        <time>2019-07-06T06:13:48Z</time>
      </trkpt>
      <trkpt lat="40.6918190" lon="-2.0505580">
        <ele>1035.8</ele>
        <time>2019-07-06T06:13:51Z</time>
      </trkpt>
      <trkpt lat="40.6918450" lon="-2.0505810">
        <ele>1036.0</ele>
        <time>2019-07-06T06:13:52Z</time>
      </trkpt>
      <trkpt lat="40.6918930" lon="-2.0506190">
        <ele>1036.6</ele>
        <time>2019-07-06T06:13:54Z</time>
      </trkpt>
      <trkpt lat="40.6919770" lon="-2.0506680">
        <ele>1037.4</ele>
        <time>2019-07-06T06:13:57Z</time>
      </trkpt>
      <trkpt lat="40.6920310" lon="-2.0507040">
        <ele>1037.8</ele>
        <time>2019-07-06T06:13:59Z</time>
      </trkpt>
      <trkpt lat="40.6920590" lon="-2.0507230">
        <ele>1038.0</ele>
        <time>2019-07-06T06:14:00Z</time>
      </trkpt>
      <trkpt lat="40.6921440" lon="-2.0507640">
        <ele>1038.8</ele>
        <time>2019-07-06T06:14:03Z</time>
      </trkpt>
      <trkpt lat="40.6921900" lon="-2.0507790">
        <ele>1039.4</ele>
        <time>2019-07-06T06:14:05Z</time>
      </trkpt>
      <trkpt lat="40.6922160" lon="-2.0507860">
        <ele>1040.0</ele>
        <time>2019-07-06T06:14:06Z</time>
      </trkpt>
      <trkpt lat="40.6922820" lon="-2.0508100">
        <ele>1041.0</ele>
        <time>2019-07-06T06:14:09Z</time>
      </trkpt>
      <trkpt lat="40.6923040" lon="-2.0508300">
        <ele>1041.0</ele>
        <time>2019-07-06T06:14:10Z</time>
      </trkpt>
      <trkpt lat="40.6923900" lon="-2.0508910">
        <ele>1042.2</ele>
        <time>2019-07-06T06:14:14Z</time>
      </trkpt>
      <trkpt lat="40.6924360" lon="-2.0509270">
        <ele>1042.8</ele>
        <time>2019-07-06T06:14:16Z</time>
      </trkpt>
      <trkpt lat="40.6925040" lon="-2.0509860">
        <ele>1043.2</ele>
        <time>2019-07-06T06:14:19Z</time>
      </trkpt>
      <trkpt lat="40.6925930" lon="-2.0510740">
        <ele>1043.8</ele>
        <time>2019-07-06T06:14:23Z</time>
      </trkpt>
      <trkpt lat="40.6926340" lon="-2.0511210">
        <ele>1044.2</ele>
        <time>2019-07-06T06:14:25Z</time>
      </trkpt>
      <trkpt lat="40.6926730" lon="-2.0511600">
        <ele>1045.0</ele>
        <time>2019-07-06T06:14:27Z</time>
      </trkpt>
      <trkpt lat="40.6927110" lon="-2.0512080">
        <ele>1045.2</ele>
        <time>2019-07-06T06:14:29Z</time>
      </trkpt>
      <trkpt lat="40.6927460" lon="-2.0512560">
        <ele>1045.6</ele>
        <time>2019-07-06T06:14:31Z</time>
      </trkpt>
      <trkpt lat="40.6927640" lon="-2.0512710">
        <ele>1046.0</ele>
        <time>2019-07-06T06:14:32Z</time>
      </trkpt>
      <trkpt lat="40.6927990" lon="-2.0512960">
        <ele>1046.4</ele>
        <time>2019-07-06T06:14:34Z</time>
      </trkpt>
      <trkpt lat="40.6928230" lon="-2.0513060">
        <ele>1046.8</ele>
        <time>2019-07-06T06:14:35Z</time>
      </trkpt>
      <trkpt lat="40.6928780" lon="-2.0513160">
        <ele>1047.4</ele>
        <time>2019-07-06T06:14:37Z</time>
      </trkpt>
      <trkpt lat="40.6930090" lon="-2.0512350">
        <ele>1048.0</ele>
        <time>2019-07-06T06:14:42Z</time>
      </trkpt>
      <trkpt lat="40.6930300" lon="-2.0511440">
        <ele>1048.6</ele>
        <time>2019-07-06T06:14:45Z</time>
      </trkpt>
      <trkpt lat="40.6930350" lon="-2.0510830">
        <ele>1049.0</ele>
        <time>2019-07-06T06:14:47Z</time>
      </trkpt>
      <trkpt lat="40.6930460" lon="-2.0509500">
        <ele>1049.8</ele>
        <time>2019-07-06T06:14:51Z</time>
      </trkpt>
      <trkpt lat="40.6930450" lon="-2.0509160">
        <ele>1050.0</ele>
        <time>2019-07-06T06:14:52Z</time>
      </trkpt>
      <trkpt lat="40.6930460" lon="-2.0508820">
        <ele>1050.2</ele>
        <time>2019-07-06T06:14:53Z</time>
      </trkpt>
      <trkpt lat="40.6930520" lon="-2.0507740">
        <ele>1051.0</ele>
        <time>2019-07-06T06:14:56Z</time>
      </trkpt>
      <trkpt lat="40.6930710" lon="-2.0506370">
        <ele>1051.6</ele>
        <time>2019-07-06T06:15:00Z</time>
      </trkpt>
      <trkpt lat="40.6930810" lon="-2.0505350">
        <ele>1052.2</ele>
        <time>2019-07-06T06:15:03Z</time>
      </trkpt>
      <trkpt lat="40.6931140" lon="-2.0503980">
        <ele>1053.4</ele>
        <time>2019-07-06T06:15:07Z</time>
      </trkpt>
      <trkpt lat="40.6931280" lon="-2.0503650">
        <ele>1053.6</ele>
        <time>2019-07-06T06:15:08Z</time>
      </trkpt>
      <trkpt lat="40.6931830" lon="-2.0502940">
        <ele>1054.4</ele>
        <time>2019-07-06T06:15:11Z</time>
      </trkpt>
      <trkpt lat="40.6932230" lon="-2.0502550">
        <ele>1054.8</ele>
        <time>2019-07-06T06:15:13Z</time>
      </trkpt>
      <trkpt lat="40.6933040" lon="-2.0501960">
        <ele>1055.6</ele>
        <time>2019-07-06T06:15:17Z</time>
      </trkpt>
      <trkpt lat="40.6933690" lon="-2.0501640">
        <ele>1056.4</ele>
        <time>2019-07-06T06:15:20Z</time>
      </trkpt>
      <trkpt lat="40.6934120" lon="-2.0501480">
        <ele>1056.6</ele>
        <time>2019-07-06T06:15:22Z</time>
      </trkpt>
      <trkpt lat="40.6935170" lon="-2.0500700">
        <ele>1057.6</ele>
        <time>2019-07-06T06:15:27Z</time>
      </trkpt>
      <trkpt lat="40.6935400" lon="-2.0500500">
        <ele>1057.8</ele>
        <time>2019-07-06T06:15:28Z</time>
      </trkpt>
      <trkpt lat="40.6936730" lon="-2.0499530">
        <ele>1059.0</ele>
        <time>2019-07-06T06:15:34Z</time>
      </trkpt>
      <trkpt lat="40.6936980" lon="-2.0499380">
        <ele>1059.0</ele>
        <time>2019-07-06T06:15:35Z</time>
      </trkpt>
      <trkpt lat="40.6937890" lon="-2.0498860">
        <ele>1058.8</ele>
        <time>2019-07-06T06:15:38Z</time>
      </trkpt>
      <trkpt lat="40.6938240" lon="-2.0498730">
        <ele>1058.6</ele>
        <time>2019-07-06T06:15:39Z</time>
      </trkpt>
      <trkpt lat="40.6939410" lon="-2.0498410">
        <ele>1057.8</ele>
        <time>2019-07-06T06:15:42Z</time>
      </trkpt>
      <trkpt lat="40.6939890" lon="-2.0498400">
        <ele>1057.6</ele>
        <time>2019-07-06T06:15:43Z</time>
      </trkpt>
      <trkpt lat="40.6940320" lon="-2.0498380">
        <ele>1056.8</ele>
        <time>2019-07-06T06:15:44Z</time>
      </trkpt>
      <trkpt lat="40.6940760" lon="-2.0498270">
        <ele>1056.4</ele>
        <time>2019-07-06T06:15:45Z</time>
      </trkpt>
      <trkpt lat="40.6941710" lon="-2.0498250">
        <ele>1055.6</ele>
        <time>2019-07-06T06:15:47Z</time>
      </trkpt>
      <trkpt lat="40.6942640" lon="-2.0498110">
        <ele>1054.8</ele>
        <time>2019-07-06T06:15:49Z</time>
      </trkpt>
      <trkpt lat="40.6943120" lon="-2.0497910">
        <ele>1054.4</ele>
        <time>2019-07-06T06:15:50Z</time>
      </trkpt>
      <trkpt lat="40.6944040" lon="-2.0497360">
        <ele>1053.6</ele>
        <time>2019-07-06T06:15:52Z</time>
      </trkpt>
      <trkpt lat="40.6944480" lon="-2.0497060">
        <ele>1053.0</ele>
        <time>2019-07-06T06:15:53Z</time>
      </trkpt>
      <trkpt lat="40.6944980" lon="-2.0496660">
        <ele>1052.0</ele>
        <time>2019-07-06T06:15:54Z</time>
      </trkpt>
      <trkpt lat="40.6945530" lon="-2.0496210">
        <ele>1051.2</ele>
        <time>2019-07-06T06:15:55Z</time>
      </trkpt>
      <trkpt lat="40.6946030" lon="-2.0495740">
        <ele>1050.8</ele>
        <time>2019-07-06T06:15:56Z</time>
      </trkpt>
      <trkpt lat="40.6946850" lon="-2.0494610">
        <ele>1050.2</ele>
        <time>2019-07-06T06:15:58Z</time>
      </trkpt>
      <trkpt lat="40.6947290" lon="-2.0494080">
        <ele>1049.8</ele>
        <time>2019-07-06T06:15:59Z</time>
      </trkpt>
      <trkpt lat="40.6948190" lon="-2.0493020">
        <ele>1048.6</ele>
        <time>2019-07-06T06:16:01Z</time>
      </trkpt>
      <trkpt lat="40.6949060" lon="-2.0491960">
        <ele>1047.2</ele>
        <time>2019-07-06T06:16:03Z</time>
      </trkpt>
      <trkpt lat="40.6949870" lon="-2.0490960">
        <ele>1045.8</ele>
        <time>2019-07-06T06:16:05Z</time>
      </trkpt>
      <trkpt lat="40.6950300" lon="-2.0490470">
        <ele>1045.4</ele>
        <time>2019-07-06T06:16:06Z</time>
      </trkpt>
      <trkpt lat="40.6951240" lon="-2.0489440">
        <ele>1044.6</ele>
        <time>2019-07-06T06:16:08Z</time>
      </trkpt>
      <trkpt lat="40.6952100" lon="-2.0488360">
        <ele>1043.4</ele>
        <time>2019-07-06T06:16:10Z</time>
      </trkpt>
      <trkpt lat="40.6952520" lon="-2.0487910">
        <ele>1043.0</ele>
        <time>2019-07-06T06:16:11Z</time>
      </trkpt>
      <trkpt lat="40.6953480" lon="-2.0487160">
        <ele>1042.2</ele>
        <time>2019-07-06T06:16:13Z</time>
      </trkpt>
      <trkpt lat="40.6954530" lon="-2.0486520">
        <ele>1041.6</ele>
        <time>2019-07-06T06:16:15Z</time>
      </trkpt>
      <trkpt lat="40.6956220" lon="-2.0485960">
        <ele>1041.2</ele>
        <time>2019-07-06T06:16:18Z</time>
      </trkpt>
      <trkpt lat="40.6957370" lon="-2.0485820">
        <ele>1040.6</ele>
        <time>2019-07-06T06:16:20Z</time>
      </trkpt>
      <trkpt lat="40.6959440" lon="-2.0485870">
        <ele>1040.2</ele>
        <time>2019-07-06T06:16:24Z</time>
      </trkpt>
      <trkpt lat="40.6959940" lon="-2.0485950">
        <ele>1040.4</ele>
        <time>2019-07-06T06:16:25Z</time>
      </trkpt>
      <trkpt lat="40.6960420" lon="-2.0486000">
        <ele>1040.6</ele>
        <time>2019-07-06T06:16:26Z</time>
      </trkpt>
      <trkpt lat="40.6961460" lon="-2.0486050">
        <ele>1040.6</ele>
        <time>2019-07-06T06:16:28Z</time>
      </trkpt>
      <trkpt lat="40.6962600" lon="-2.0485700">
        <ele>1040.8</ele>
        <time>2019-07-06T06:16:30Z</time>
      </trkpt>
      <trkpt lat="40.6963910" lon="-2.0484320">
        <ele>1040.8</ele>
        <time>2019-07-06T06:16:33Z</time>
      </trkpt>
      <trkpt lat="40.6964320" lon="-2.0483890">
        <ele>1040.8</ele>
        <time>2019-07-06T06:16:34Z</time>
      </trkpt>
      <trkpt lat="40.6964780" lon="-2.0483480">
        <ele>1040.8</ele>
        <time>2019-07-06T06:16:35Z</time>
      </trkpt>
      <trkpt lat="40.6966690" lon="-2.0482180">
        <ele>1040.8</ele>
        <time>2019-07-06T06:16:39Z</time>
      </trkpt>
      <trkpt lat="40.6967660" lon="-2.0481730">
        <ele>1040.8</ele>
        <time>2019-07-06T06:16:41Z</time>
      </trkpt>
      <trkpt lat="40.6968540" lon="-2.0482000">
        <ele>1041.0</ele>
        <time>2019-07-06T06:16:43Z</time>
      </trkpt>
      <trkpt lat="40.6969130" lon="-2.0482920">
        <ele>1041.0</ele>
        <time>2019-07-06T06:16:45Z</time>
      </trkpt>
      <trkpt lat="40.6969280" lon="-2.0483490">
        <ele>1040.8</ele>
        <time>2019-07-06T06:16:46Z</time>
      </trkpt>
      <trkpt lat="40.6969020" lon="-2.0485210">
        <ele>1039.8</ele>
        <time>2019-07-06T06:16:49Z</time>
      </trkpt>
      <trkpt lat="40.6968480" lon="-2.0486360">
        <ele>1038.8</ele>
        <time>2019-07-06T06:16:51Z</time>
      </trkpt>
      <trkpt lat="40.6967870" lon="-2.0487620">
        <ele>1037.2</ele>
        <time>2019-07-06T06:16:53Z</time>
      </trkpt>
      <trkpt lat="40.6967570" lon="-2.0488240">
        <ele>1036.6</ele>
        <time>2019-07-06T06:16:54Z</time>
      </trkpt>
      <trkpt lat="40.6966980" lon="-2.0489480">
        <ele>1036.2</ele>
        <time>2019-07-06T06:16:56Z</time>
      </trkpt>
      <trkpt lat="40.6966740" lon="-2.0490150">
        <ele>1035.8</ele>
        <time>2019-07-06T06:16:57Z</time>
      </trkpt>
      <trkpt lat="40.6966510" lon="-2.0491530">
        <ele>1034.8</ele>
        <time>2019-07-06T06:16:59Z</time>
      </trkpt>
      <trkpt lat="40.6966350" lon="-2.0493020">
        <ele>1034.0</ele>
        <time>2019-07-06T06:17:01Z</time>
      </trkpt>
      <trkpt lat="40.6966360" lon="-2.0495350">
        <ele>1033.2</ele>
        <time>2019-07-06T06:17:04Z</time>
      </trkpt>
      <trkpt lat="40.6966670" lon="-2.0496910">
        <ele>1032.8</ele>
        <time>2019-07-06T06:17:06Z</time>
      </trkpt>
      <trkpt lat="40.6966890" lon="-2.0497720">
        <ele>1032.6</ele>
        <time>2019-07-06T06:17:07Z</time>
      </trkpt>
      <trkpt lat="40.6967560" lon="-2.0499320">
        <ele>1031.8</ele>
        <time>2019-07-06T06:17:09Z</time>
      </trkpt>
      <trkpt lat="40.6968360" lon="-2.0500800">
        <ele>1030.6</ele>
        <time>2019-07-06T06:17:11Z</time>
      </trkpt>
      <trkpt lat="40.6969580" lon="-2.0502860">
        <ele>1029.8</ele>
        <time>2019-07-06T06:17:14Z</time>
      </trkpt>
      <trkpt lat="40.6970040" lon="-2.0503460">
        <ele>1029.8</ele>
        <time>2019-07-06T06:17:15Z</time>
      </trkpt>
      <trkpt lat="40.6971720" lon="-2.0504630">
        <ele>1029.8</ele>
        <time>2019-07-06T06:17:18Z</time>
      </trkpt>
      <trkpt lat="40.6972350" lon="-2.0504770">
        <ele>1029.4</ele>
        <time>2019-07-06T06:17:19Z</time>
      </trkpt>
      <trkpt lat="40.6973570" lon="-2.0504850">
        <ele>1028.2</ele>
        <time>2019-07-06T06:17:21Z</time>
      </trkpt>
      <trkpt lat="40.6974200" lon="-2.0504780">
        <ele>1027.4</ele>
        <time>2019-07-06T06:17:22Z</time>
      </trkpt>
      <trkpt lat="40.6974870" lon="-2.0504630">
        <ele>1027.0</ele>
        <time>2019-07-06T06:17:23Z</time>
      </trkpt>
      <trkpt lat="40.6977030" lon="-2.0503820">
        <ele>1026.2</ele>
        <time>2019-07-06T06:17:26Z</time>
      </trkpt>
      <trkpt lat="40.6977750" lon="-2.0503430">
        <ele>1025.8</ele>
        <time>2019-07-06T06:17:27Z</time>
      </trkpt>
      <trkpt lat="40.6978430" lon="-2.0502990">
        <ele>1025.4</ele>
        <time>2019-07-06T06:17:28Z</time>
      </trkpt>
      <trkpt lat="40.6979100" lon="-2.0502600">
        <ele>1024.6</ele>
        <time>2019-07-06T06:17:29Z</time>
      </trkpt>
      <trkpt lat="40.6979760" lon="-2.0502260">
        <ele>1024.4</ele>
        <time>2019-07-06T06:17:30Z</time>
      </trkpt>
      <trkpt lat="40.6982440" lon="-2.0500780">
        <ele>1023.6</ele>
        <time>2019-07-06T06:17:34Z</time>
      </trkpt>
      <trkpt lat="40.6983040" lon="-2.0500390">
        <ele>1023.4</ele>
        <time>2019-07-06T06:17:35Z</time>
      </trkpt>
      <trkpt lat="40.6984780" lon="-2.0499170">
        <ele>1023.0</ele>
        <time>2019-07-06T06:17:38Z</time>
      </trkpt>
      <trkpt lat="40.6986020" lon="-2.0498430">
        <ele>1022.8</ele>
        <time>2019-07-06T06:17:40Z</time>
      </trkpt>
      <trkpt lat="40.6986650" lon="-2.0498140">
        <ele>1022.6</ele>
        <time>2019-07-06T06:17:41Z</time>
      </trkpt>
      <trkpt lat="40.6987900" lon="-2.0497570">
        <ele>1022.8</ele>
        <time>2019-07-06T06:17:43Z</time>
      </trkpt>
      <trkpt lat="40.6988560" lon="-2.0497280">
        <ele>1022.8</ele>
        <time>2019-07-06T06:17:44Z</time>
      </trkpt>
      <trkpt lat="40.6989840" lon="-2.0496800">
        <ele>1022.6</ele>
        <time>2019-07-06T06:17:46Z</time>
      </trkpt>
      <trkpt lat="40.6991730" lon="-2.0496240">
        <ele>1022.6</ele>
        <time>2019-07-06T06:17:49Z</time>
      </trkpt>
      <trkpt lat="40.6994170" lon="-2.0495530">
        <ele>1022.6</ele>
        <time>2019-07-06T06:17:53Z</time>
      </trkpt>
      <trkpt lat="40.6995380" lon="-2.0495290">
        <ele>1023.0</ele>
        <time>2019-07-06T06:17:55Z</time>
      </trkpt>
      <trkpt lat="40.6995960" lon="-2.0495240">
        <ele>1023.0</ele>
        <time>2019-07-06T06:17:56Z</time>
      </trkpt>
      <trkpt lat="40.6997030" lon="-2.0495200">
        <ele>1023.2</ele>
        <time>2019-07-06T06:17:58Z</time>
      </trkpt>
      <trkpt lat="40.6997560" lon="-2.0495160">
        <ele>1023.4</ele>
        <time>2019-07-06T06:17:59Z</time>
      </trkpt>
      <trkpt lat="40.6999100" lon="-2.0495180">
        <ele>1023.2</ele>
        <time>2019-07-06T06:18:02Z</time>
      </trkpt>
      <trkpt lat="40.6999620" lon="-2.0495340">
        <ele>1023.2</ele>
        <time>2019-07-06T06:18:03Z</time>
      </trkpt>
      <trkpt lat="40.7001260" lon="-2.0496340">
        <ele>1023.2</ele>
        <time>2019-07-06T06:18:06Z</time>
      </trkpt>
      <trkpt lat="40.7001860" lon="-2.0496730">
        <ele>1023.2</ele>
        <time>2019-07-06T06:18:07Z</time>
      </trkpt>
      <trkpt lat="40.7002980" lon="-2.0497680">
        <ele>1022.8</ele>
        <time>2019-07-06T06:18:09Z</time>
      </trkpt>
      <trkpt lat="40.7003950" lon="-2.0498730">
        <ele>1022.2</ele>
        <time>2019-07-06T06:18:11Z</time>
      </trkpt>
      <trkpt lat="40.7004320" lon="-2.0499420">
        <ele>1022.2</ele>
        <time>2019-07-06T06:18:12Z</time>
      </trkpt>
      <trkpt lat="40.7005200" lon="-2.0501610">
        <ele>1021.8</ele>
        <time>2019-07-06T06:18:15Z</time>
      </trkpt>
      <trkpt lat="40.7005430" lon="-2.0502400">
        <ele>1021.8</ele>
        <time>2019-07-06T06:18:16Z</time>
      </trkpt>
      <trkpt lat="40.7005650" lon="-2.0503220">
        <ele>1021.6</ele>
        <time>2019-07-06T06:18:17Z</time>
      </trkpt>
      <trkpt lat="40.7006270" lon="-2.0505710">
        <ele>1021.2</ele>
        <time>2019-07-06T06:18:20Z</time>
      </trkpt>
      <trkpt lat="40.7006670" lon="-2.0508210">
        <ele>1021.0</ele>
        <time>2019-07-06T06:18:23Z</time>
      </trkpt>
      <trkpt lat="40.7006680" lon="-2.0509050">
        <ele>1021.2</ele>
        <time>2019-07-06T06:18:24Z</time>
      </trkpt>
      <trkpt lat="40.7006910" lon="-2.0511460">
        <ele>1021.6</ele>
        <time>2019-07-06T06:18:27Z</time>
      </trkpt>
      <trkpt lat="40.7007110" lon="-2.0513090">
        <ele>1021.6</ele>
        <time>2019-07-06T06:18:29Z</time>
      </trkpt>
      <trkpt lat="40.7007260" lon="-2.0514670">
        <ele>1021.4</ele>
        <time>2019-07-06T06:18:31Z</time>
      </trkpt>
      <trkpt lat="40.7007270" lon="-2.0515470">
        <ele>1021.2</ele>
        <time>2019-07-06T06:18:32Z</time>
      </trkpt>
      <trkpt lat="40.7006970" lon="-2.0517840">
        <ele>1021.2</ele>
        <time>2019-07-06T06:18:35Z</time>
      </trkpt>
      <trkpt lat="40.7006910" lon="-2.0518630">
        <ele>1021.2</ele>
        <time>2019-07-06T06:18:36Z</time>
      </trkpt>
      <trkpt lat="40.7006440" lon="-2.0522500">
        <ele>1021.0</ele>
        <time>2019-07-06T06:18:41Z</time>
      </trkpt>
      <trkpt lat="40.7006490" lon="-2.0526420">
        <ele>1020.8</ele>
        <time>2019-07-06T06:18:46Z</time>
      </trkpt>
      <trkpt lat="40.7006780" lon="-2.0528580">
        <ele>1021.0</ele>
        <time>2019-07-06T06:18:49Z</time>
      </trkpt>
      <trkpt lat="40.7006920" lon="-2.0529250">
        <ele>1021.0</ele>
        <time>2019-07-06T06:18:50Z</time>
      </trkpt>
      <trkpt lat="40.7006990" lon="-2.0529860">
        <ele>1021.2</ele>
        <time>2019-07-06T06:18:51Z</time>
      </trkpt>
      <trkpt lat="40.7007470" lon="-2.0531020">
        <ele>1021.8</ele>
        <time>2019-07-06T06:18:53Z</time>
      </trkpt>
      <trkpt lat="40.7008640" lon="-2.0532630">
        <ele>1022.8</ele>
        <time>2019-07-06T06:18:57Z</time>
      </trkpt>
      <trkpt lat="40.7009870" lon="-2.0533650">
        <ele>1023.4</ele>
        <time>2019-07-06T06:19:00Z</time>
      </trkpt>
      <trkpt lat="40.7010810" lon="-2.0534020">
        <ele>1023.4</ele>
        <time>2019-07-06T06:19:02Z</time>
      </trkpt>
      <trkpt lat="40.7012920" lon="-2.0534480">
        <ele>1023.6</ele>
        <time>2019-07-06T06:19:06Z</time>
      </trkpt>
      <trkpt lat="40.7014030" lon="-2.0534520">
        <ele>1023.6</ele>
        <time>2019-07-06T06:19:08Z</time>
      </trkpt>
      <trkpt lat="40.7015720" lon="-2.0534150">
        <ele>1023.8</ele>
        <time>2019-07-06T06:19:11Z</time>
      </trkpt>
      <trkpt lat="40.7016280" lon="-2.0533940">
        <ele>1023.8</ele>
        <time>2019-07-06T06:19:12Z</time>
      </trkpt>
      <trkpt lat="40.7016870" lon="-2.0533620">
        <ele>1023.8</ele>
        <time>2019-07-06T06:19:13Z</time>
      </trkpt>
      <trkpt lat="40.7018450" lon="-2.0532310">
        <ele>1023.6</ele>
        <time>2019-07-06T06:19:16Z</time>
      </trkpt>
      <trkpt lat="40.7019890" lon="-2.0530870">
        <ele>1023.4</ele>
        <time>2019-07-06T06:19:19Z</time>
      </trkpt>
      <trkpt lat="40.7020320" lon="-2.0530390">
        <ele>1023.4</ele>
        <time>2019-07-06T06:19:20Z</time>
      </trkpt>
      <trkpt lat="40.7020730" lon="-2.0529840">
        <ele>1023.4</ele>
        <time>2019-07-06T06:19:21Z</time>
      </trkpt>
      <trkpt lat="40.7021460" lon="-2.0528860">
        <ele>1023.6</ele>
        <time>2019-07-06T06:19:23Z</time>
      </trkpt>
      <trkpt lat="40.7021750" lon="-2.0528350">
        <ele>1023.6</ele>
        <time>2019-07-06T06:19:24Z</time>
      </trkpt>
      <trkpt lat="40.7023240" lon="-2.0525530">
        <ele>1023.2</ele>
        <time>2019-07-06T06:19:29Z</time>
      </trkpt>
      <trkpt lat="40.7024010" lon="-2.0524240">
        <ele>1023.0</ele>
        <time>2019-07-06T06:19:31Z</time>
      </trkpt>
      <trkpt lat="40.7024880" lon="-2.0523000">
        <ele>1022.8</ele>
        <time>2019-07-06T06:19:33Z</time>
      </trkpt>
      <trkpt lat="40.7025810" lon="-2.0521800">
        <ele>1022.8</ele>
        <time>2019-07-06T06:19:35Z</time>
      </trkpt>
      <trkpt lat="40.7026800" lon="-2.0520990">
        <ele>1022.8</ele>
        <time>2019-07-06T06:19:37Z</time>
      </trkpt>
      <trkpt lat="40.7027700" lon="-2.0520500">
        <ele>1022.8</ele>
        <time>2019-07-06T06:19:39Z</time>
      </trkpt>
      <trkpt lat="40.7028180" lon="-2.0520320">
        <ele>1022.8</ele>
        <time>2019-07-06T06:19:40Z</time>
      </trkpt>
      <trkpt lat="40.7028730" lon="-2.0520220">
        <ele>1022.8</ele>
        <time>2019-07-06T06:19:41Z</time>
      </trkpt>
      <trkpt lat="40.7031700" lon="-2.0520180">
        <ele>1022.8</ele>
        <time>2019-07-06T06:19:46Z</time>
      </trkpt>
      <trkpt lat="40.7034440" lon="-2.0520130">
        <ele>1021.8</ele>
        <time>2019-07-06T06:19:51Z</time>
      </trkpt>
      <trkpt lat="40.7034990" lon="-2.0520210">
        <ele>1021.8</ele>
        <time>2019-07-06T06:19:52Z</time>
      </trkpt>
      <trkpt lat="40.7036880" lon="-2.0520900">
        <ele>1021.2</ele>
        <time>2019-07-06T06:19:55Z</time>
      </trkpt>
      <trkpt lat="40.7038080" lon="-2.0521580">
        <ele>1021.2</ele>
        <time>2019-07-06T06:19:57Z</time>
      </trkpt>
      <trkpt lat="40.7039560" lon="-2.0522780">
        <ele>1020.8</ele>
        <time>2019-07-06T06:20:00Z</time>
      </trkpt>
      <trkpt lat="40.7040450" lon="-2.0523630">
        <ele>1020.8</ele>
        <time>2019-07-06T06:20:02Z</time>
      </trkpt>
      <trkpt lat="40.7041150" lon="-2.0524630">
        <ele>1021.0</ele>
        <time>2019-07-06T06:20:04Z</time>
      </trkpt>
      <trkpt lat="40.7041840" lon="-2.0525990">
        <ele>1021.2</ele>
        <time>2019-07-06T06:20:06Z</time>
      </trkpt>
      <trkpt lat="40.7042110" lon="-2.0526720">
        <ele>1021.2</ele>
        <time>2019-07-06T06:20:07Z</time>
      </trkpt>
      <trkpt lat="40.7042410" lon="-2.0527450">
        <ele>1021.2</ele>
        <time>2019-07-06T06:20:08Z</time>
      </trkpt>
      <trkpt lat="40.7043080" lon="-2.0530190">
        <ele>1021.4</ele>
        <time>2019-07-06T06:20:12Z</time>
      </trkpt>
      <trkpt lat="40.7043110" lon="-2.0530850">
        <ele>1021.6</ele>
        <time>2019-07-06T06:20:13Z</time>
      </trkpt>
      <trkpt lat="40.7043090" lon="-2.0532160">
        <ele>1022.0</ele>
        <time>2019-07-06T06:20:15Z</time>
      </trkpt>
      <trkpt lat="40.7043030" lon="-2.0533820">
        <ele>1022.4</ele>
        <time>2019-07-06T06:20:18Z</time>
      </trkpt>
      <trkpt lat="40.7042970" lon="-2.0534380">
        <ele>1022.6</ele>
        <time>2019-07-06T06:20:19Z</time>
      </trkpt>
      <trkpt lat="40.7042930" lon="-2.0536260">
        <ele>1023.0</ele>
        <time>2019-07-06T06:20:22Z</time>
      </trkpt>
      <trkpt lat="40.7042930" lon="-2.0537650">
        <ele>1023.0</ele>
        <time>2019-07-06T06:20:24Z</time>
      </trkpt>
      <trkpt lat="40.7042960" lon="-2.0539010">
        <ele>1022.8</ele>
        <time>2019-07-06T06:20:26Z</time>
      </trkpt>
      <trkpt lat="40.7043030" lon="-2.0540980">
        <ele>1022.4</ele>
        <time>2019-07-06T06:20:29Z</time>
      </trkpt>
      <trkpt lat="40.7043230" lon="-2.0542380">
        <ele>1023.0</ele>
        <time>2019-07-06T06:20:31Z</time>
      </trkpt>
      <trkpt lat="40.7043370" lon="-2.0543100">
        <ele>1023.2</ele>
        <time>2019-07-06T06:20:32Z</time>
      </trkpt>
      <trkpt lat="40.7044220" lon="-2.0546140">
        <ele>1022.8</ele>
        <time>2019-07-06T06:20:36Z</time>
      </trkpt>
      <trkpt lat="40.7044690" lon="-2.0547710">
        <ele>1022.4</ele>
        <time>2019-07-06T06:20:38Z</time>
      </trkpt>
      <trkpt lat="40.7045030" lon="-2.0549230">
        <ele>1022.4</ele>
        <time>2019-07-06T06:20:40Z</time>
      </trkpt>
      <trkpt lat="40.7045440" lon="-2.0550820">
        <ele>1022.4</ele>
        <time>2019-07-06T06:20:42Z</time>
      </trkpt>
      <trkpt lat="40.7045910" lon="-2.0552480">
        <ele>1022.0</ele>
        <time>2019-07-06T06:20:44Z</time>
      </trkpt>
      <trkpt lat="40.7046810" lon="-2.0555650">
        <ele>1021.6</ele>
        <time>2019-07-06T06:20:48Z</time>
      </trkpt>
      <trkpt lat="40.7047530" lon="-2.0559550">
        <ele>1021.2</ele>
        <time>2019-07-06T06:20:53Z</time>
      </trkpt>
      <trkpt lat="40.7047640" lon="-2.0560310">
        <ele>1021.2</ele>
        <time>2019-07-06T06:20:54Z</time>
      </trkpt>
      <trkpt lat="40.7047750" lon="-2.0561050">
        <ele>1021.0</ele>
        <time>2019-07-06T06:20:55Z</time>
      </trkpt>
      <trkpt lat="40.7047950" lon="-2.0562550">
        <ele>1021.0</ele>
        <time>2019-07-06T06:20:57Z</time>
      </trkpt>
      <trkpt lat="40.7048150" lon="-2.0563960">
        <ele>1020.8</ele>
        <time>2019-07-06T06:20:59Z</time>
      </trkpt>
      <trkpt lat="40.7048230" lon="-2.0566030">
        <ele>1020.6</ele>
        <time>2019-07-06T06:21:02Z</time>
      </trkpt>
      <trkpt lat="40.7048300" lon="-2.0566770">
        <ele>1020.6</ele>
        <time>2019-07-06T06:21:03Z</time>
      </trkpt>
      <trkpt lat="40.7048400" lon="-2.0568240">
        <ele>1020.8</ele>
        <time>2019-07-06T06:21:05Z</time>
      </trkpt>
      <trkpt lat="40.7048480" lon="-2.0570490">
        <ele>1021.0</ele>
        <time>2019-07-06T06:21:08Z</time>
      </trkpt>
      <trkpt lat="40.7048450" lon="-2.0571280">
        <ele>1021.0</ele>
        <time>2019-07-06T06:21:09Z</time>
      </trkpt>
      <trkpt lat="40.7048490" lon="-2.0573490">
        <ele>1021.0</ele>
        <time>2019-07-06T06:21:12Z</time>
      </trkpt>
      <trkpt lat="40.7048960" lon="-2.0577310">
        <ele>1021.2</ele>
        <time>2019-07-06T06:21:17Z</time>
      </trkpt>
      <trkpt lat="40.7050170" lon="-2.0579960">
        <ele>1022.0</ele>
        <time>2019-07-06T06:21:21Z</time>
      </trkpt>
      <trkpt lat="40.7050520" lon="-2.0580490">
        <ele>1022.0</ele>
        <time>2019-07-06T06:21:22Z</time>
      </trkpt>
      <trkpt lat="40.7051160" lon="-2.0581630">
        <ele>1022.2</ele>
        <time>2019-07-06T06:21:24Z</time>
      </trkpt>
      <trkpt lat="40.7051500" lon="-2.0582140">
        <ele>1022.2</ele>
        <time>2019-07-06T06:21:25Z</time>
      </trkpt>
      <trkpt lat="40.7052700" lon="-2.0583570">
        <ele>1022.6</ele>
        <time>2019-07-06T06:21:28Z</time>
      </trkpt>
      <trkpt lat="40.7053410" lon="-2.0584390">
        <ele>1023.4</ele>
        <time>2019-07-06T06:21:30Z</time>
      </trkpt>
      <trkpt lat="40.7053790" lon="-2.0584780">
        <ele>1023.4</ele>
        <time>2019-07-06T06:21:31Z</time>
      </trkpt>
      <trkpt lat="40.7054980" lon="-2.0585730">
        <ele>1023.8</ele>
        <time>2019-07-06T06:21:34Z</time>
      </trkpt>
      <trkpt lat="40.7055800" lon="-2.0586170">
        <ele>1024.2</ele>
        <time>2019-07-06T06:21:36Z</time>
      </trkpt>
      <trkpt lat="40.7056230" lon="-2.0586330">
        <ele>1024.4</ele>
        <time>2019-07-06T06:21:37Z</time>
      </trkpt>
      <trkpt lat="40.7058280" lon="-2.0586920">
        <ele>1024.8</ele>
        <time>2019-07-06T06:21:41Z</time>
      </trkpt>
      <trkpt lat="40.7058750" lon="-2.0587170">
        <ele>1024.8</ele>
        <time>2019-07-06T06:21:42Z</time>
      </trkpt>
      <trkpt lat="40.7060620" lon="-2.0587910">
        <ele>1024.6</ele>
        <time>2019-07-06T06:21:45Z</time>
      </trkpt>
      <trkpt lat="40.7062540" lon="-2.0588650">
        <ele>1023.6</ele>
        <time>2019-07-06T06:21:48Z</time>
      </trkpt>
      <trkpt lat="40.7063280" lon="-2.0588930">
        <ele>1023.2</ele>
        <time>2019-07-06T06:21:49Z</time>
      </trkpt>
      <trkpt lat="40.7063980" lon="-2.0589170">
        <ele>1023.0</ele>
        <time>2019-07-06T06:21:50Z</time>
      </trkpt>
      <trkpt lat="40.7065470" lon="-2.0589570">
        <ele>1022.2</ele>
        <time>2019-07-06T06:21:52Z</time>
      </trkpt>
      <trkpt lat="40.7066820" lon="-2.0590000">
        <ele>1021.2</ele>
        <time>2019-07-06T06:21:54Z</time>
      </trkpt>
      <trkpt lat="40.7067500" lon="-2.0590260">
        <ele>1021.0</ele>
        <time>2019-07-06T06:21:55Z</time>
      </trkpt>
      <trkpt lat="40.7068080" lon="-2.0590620">
        <ele>1020.8</ele>
        <time>2019-07-06T06:21:56Z</time>
      </trkpt>
      <trkpt lat="40.7069130" lon="-2.0591500">
        <ele>1020.8</ele>
        <time>2019-07-06T06:21:58Z</time>
      </trkpt>
      <trkpt lat="40.7070070" lon="-2.0592380">
        <ele>1020.8</ele>
        <time>2019-07-06T06:22:00Z</time>
      </trkpt>
      <trkpt lat="40.7070950" lon="-2.0593290">
        <ele>1020.8</ele>
        <time>2019-07-06T06:22:02Z</time>
      </trkpt>
      <trkpt lat="40.7071310" lon="-2.0593770">
        <ele>1021.0</ele>
        <time>2019-07-06T06:22:03Z</time>
      </trkpt>
      <trkpt lat="40.7072430" lon="-2.0595250">
        <ele>1021.2</ele>
        <time>2019-07-06T06:22:06Z</time>
      </trkpt>
      <trkpt lat="40.7072750" lon="-2.0595740">
        <ele>1021.2</ele>
        <time>2019-07-06T06:22:07Z</time>
      </trkpt>
      <trkpt lat="40.7073060" lon="-2.0596270">
        <ele>1021.2</ele>
        <time>2019-07-06T06:22:08Z</time>
      </trkpt>
      <trkpt lat="40.7073980" lon="-2.0597770">
        <ele>1021.0</ele>
        <time>2019-07-06T06:22:11Z</time>
      </trkpt>
      <trkpt lat="40.7074530" lon="-2.0598820">
        <ele>1021.2</ele>
        <time>2019-07-06T06:22:13Z</time>
      </trkpt>
      <trkpt lat="40.7075440" lon="-2.0600160">
        <ele>1021.8</ele>
        <time>2019-07-06T06:22:16Z</time>
      </trkpt>
      <trkpt lat="40.7076080" lon="-2.0600850">
        <ele>1022.2</ele>
        <time>2019-07-06T06:22:18Z</time>
      </trkpt>
      <trkpt lat="40.7077160" lon="-2.0601650">
        <ele>1022.6</ele>
        <time>2019-07-06T06:22:21Z</time>
      </trkpt>
      <trkpt lat="40.7079010" lon="-2.0602860">
        <ele>1022.8</ele>
        <time>2019-07-06T06:22:25Z</time>
      </trkpt>
      <trkpt lat="40.7080290" lon="-2.0603500">
        <ele>1023.0</ele>
        <time>2019-07-06T06:22:28Z</time>
      </trkpt>
      <trkpt lat="40.7080890" lon="-2.0603680">
        <ele>1022.8</ele>
        <time>2019-07-06T06:22:29Z</time>
      </trkpt>
      <trkpt lat="40.7082090" lon="-2.0604030">
        <ele>1022.8</ele>
        <time>2019-07-06T06:22:31Z</time>
      </trkpt>
      <trkpt lat="40.7083210" lon="-2.0604240">
        <ele>1022.8</ele>
        <time>2019-07-06T06:22:33Z</time>
      </trkpt>
      <trkpt lat="40.7085080" lon="-2.0604630">
        <ele>1022.6</ele>
        <time>2019-07-06T06:22:36Z</time>
      </trkpt>
      <trkpt lat="40.7085680" lon="-2.0604840">
        <ele>1022.4</ele>
        <time>2019-07-06T06:22:37Z</time>
      </trkpt>
      <trkpt lat="40.7086900" lon="-2.0605270">
        <ele>1022.4</ele>
        <time>2019-07-06T06:22:39Z</time>
      </trkpt>
      <trkpt lat="40.7087500" lon="-2.0605580">
        <ele>1022.4</ele>
        <time>2019-07-06T06:22:40Z</time>
      </trkpt>
      <trkpt lat="40.7089230" lon="-2.0606530">
        <ele>1021.8</ele>
        <time>2019-07-06T06:22:43Z</time>
      </trkpt>
      <trkpt lat="40.7089850" lon="-2.0606930">
        <ele>1021.4</ele>
        <time>2019-07-06T06:22:44Z</time>
      </trkpt>
      <trkpt lat="40.7090500" lon="-2.0607410">
        <ele>1021.4</ele>
        <time>2019-07-06T06:22:45Z</time>
      </trkpt>
      <trkpt lat="40.7091580" lon="-2.0608220">
        <ele>1021.0</ele>
        <time>2019-07-06T06:22:47Z</time>
      </trkpt>
      <trkpt lat="40.7092450" lon="-2.0609140">
        <ele>1021.0</ele>
        <time>2019-07-06T06:22:49Z</time>
      </trkpt>
      <trkpt lat="40.7094140" lon="-2.0611200">
        <ele>1020.8</ele>
        <time>2019-07-06T06:22:53Z</time>
      </trkpt>
      <trkpt lat="40.7094500" lon="-2.0611910">
        <ele>1020.8</ele>
        <time>2019-07-06T06:22:54Z</time>
      </trkpt>
      <trkpt lat="40.7095380" lon="-2.0614180">
        <ele>1020.8</ele>
        <time>2019-07-06T06:22:57Z</time>
      </trkpt>
      <trkpt lat="40.7095840" lon="-2.0615840">
        <ele>1020.2</ele>
        <time>2019-07-06T06:22:59Z</time>
      </trkpt>
      <trkpt lat="40.7096020" lon="-2.0616680">
        <ele>1020.0</ele>
        <time>2019-07-06T06:23:00Z</time>
      </trkpt>
      <trkpt lat="40.7096530" lon="-2.0619180">
        <ele>1019.6</ele>
        <time>2019-07-06T06:23:03Z</time>
      </trkpt>
      <trkpt lat="40.7096850" lon="-2.0620830">
        <ele>1019.4</ele>
        <time>2019-07-06T06:23:05Z</time>
      </trkpt>
      <trkpt lat="40.7097240" lon="-2.0623310">
        <ele>1019.2</ele>
        <time>2019-07-06T06:23:08Z</time>
      </trkpt>
      <trkpt lat="40.7097310" lon="-2.0624950">
        <ele>1018.8</ele>
        <time>2019-07-06T06:23:10Z</time>
      </trkpt>
      <trkpt lat="40.7097380" lon="-2.0626500">
        <ele>1018.8</ele>
        <time>2019-07-06T06:23:12Z</time>
      </trkpt>
      <trkpt lat="40.7097360" lon="-2.0628000">
        <ele>1019.0</ele>
        <time>2019-07-06T06:23:14Z</time>
      </trkpt>
      <trkpt lat="40.7097260" lon="-2.0628710">
        <ele>1019.0</ele>
        <time>2019-07-06T06:23:15Z</time>
      </trkpt>
      <trkpt lat="40.7097190" lon="-2.0629410">
        <ele>1019.0</ele>
        <time>2019-07-06T06:23:16Z</time>
      </trkpt>
      <trkpt lat="40.7096960" lon="-2.0630780">
        <ele>1019.4</ele>
        <time>2019-07-06T06:23:18Z</time>
      </trkpt>
      <trkpt lat="40.7096590" lon="-2.0632710">
        <ele>1019.8</ele>
        <time>2019-07-06T06:23:21Z</time>
      </trkpt>
      <trkpt lat="40.7096440" lon="-2.0633910">
        <ele>1020.4</ele>
        <time>2019-07-06T06:23:23Z</time>
      </trkpt>
      <trkpt lat="40.7096320" lon="-2.0634460">
        <ele>1020.6</ele>
        <time>2019-07-06T06:23:24Z</time>
      </trkpt>
      <trkpt lat="40.7096140" lon="-2.0635560">
        <ele>1021.2</ele>
        <time>2019-07-06T06:23:26Z</time>
      </trkpt>
      <trkpt lat="40.7095970" lon="-2.0636580">
        <ele>1021.6</ele>
        <time>2019-07-06T06:23:28Z</time>
      </trkpt>
      <trkpt lat="40.7095700" lon="-2.0638000">
        <ele>1022.6</ele>
        <time>2019-07-06T06:23:31Z</time>
      </trkpt>
      <trkpt lat="40.7095620" lon="-2.0638490">
        <ele>1022.8</ele>
        <time>2019-07-06T06:23:32Z</time>
      </trkpt>
      <trkpt lat="40.7095370" lon="-2.0639850">
        <ele>1023.4</ele>
        <time>2019-07-06T06:23:35Z</time>
      </trkpt>
      <trkpt lat="40.7095360" lon="-2.0640320">
        <ele>1023.8</ele>
        <time>2019-07-06T06:23:36Z</time>
      </trkpt>
      <trkpt lat="40.7095330" lon="-2.0640800">
        <ele>1024.4</ele>
        <time>2019-07-06T06:23:37Z</time>
      </trkpt>
      <trkpt lat="40.7095300" lon="-2.0641720">
        <ele>1024.8</ele>
        <time>2019-07-06T06:23:39Z</time>
      </trkpt>
      <trkpt lat="40.7095210" lon="-2.0642650">
        <ele>1025.2</ele>
        <time>2019-07-06T06:23:41Z</time>
      </trkpt>
      <trkpt lat="40.7095080" lon="-2.0643520">
        <ele>1025.6</ele>
        <time>2019-07-06T06:23:43Z</time>
      </trkpt>
      <trkpt lat="40.7095050" lon="-2.0643940">
        <ele>1026.0</ele>
        <time>2019-07-06T06:23:44Z</time>
      </trkpt>
      <trkpt lat="40.7094790" lon="-2.0645030">
        <ele>1027.2</ele>
        <time>2019-07-06T06:23:47Z</time>
      </trkpt>
      <trkpt lat="40.7094440" lon="-2.0646140">
        <ele>1028.0</ele>
        <time>2019-07-06T06:23:50Z</time>
      </trkpt>
      <trkpt lat="40.7094300" lon="-2.0646480">
        <ele>1028.2</ele>
        <time>2019-07-06T06:23:51Z</time>
      </trkpt>
      <trkpt lat="40.7094130" lon="-2.0646810">
        <ele>1028.6</ele>
        <time>2019-07-06T06:23:52Z</time>
      </trkpt>
      <trkpt lat="40.7093750" lon="-2.0647480">
        <ele>1029.2</ele>
        <time>2019-07-06T06:23:54Z</time>
      </trkpt>
      <trkpt lat="40.7093340" lon="-2.0648490">
        <ele>1030.2</ele>
        <time>2019-07-06T06:23:57Z</time>
      </trkpt>
      <trkpt lat="40.7093220" lon="-2.0648850">
        <ele>1030.4</ele>
        <time>2019-07-06T06:23:58Z</time>
      </trkpt>
      <trkpt lat="40.7093080" lon="-2.0649200">
        <ele>1030.6</ele>
        <time>2019-07-06T06:23:59Z</time>
      </trkpt>
      <trkpt lat="40.7092660" lon="-2.0650680">
        <ele>1031.2</ele>
        <time>2019-07-06T06:24:03Z</time>
      </trkpt>
      <trkpt lat="40.7092420" lon="-2.0652280">
        <ele>1032.0</ele>
        <time>2019-07-06T06:24:07Z</time>
      </trkpt>
      <trkpt lat="40.7092410" lon="-2.0653160">
        <ele>1032.4</ele>
        <time>2019-07-06T06:24:09Z</time>
      </trkpt>
      <trkpt lat="40.7092530" lon="-2.0654880">
        <ele>1033.2</ele>
        <time>2019-07-06T06:24:13Z</time>
      </trkpt>
      <trkpt lat="40.7092670" lon="-2.0655770">
        <ele>1033.4</ele>
        <time>2019-07-06T06:24:15Z</time>
      </trkpt>
      <trkpt lat="40.7092950" lon="-2.0657720">
        <ele>1033.8</ele>
        <time>2019-07-06T06:24:19Z</time>
      </trkpt>
      <trkpt lat="40.7093070" lon="-2.0659290">
        <ele>1034.0</ele>
        <time>2019-07-06T06:24:22Z</time>
      </trkpt>
      <trkpt lat="40.7093260" lon="-2.0660450">
        <ele>1034.2</ele>
        <time>2019-07-06T06:24:24Z</time>
      </trkpt>
      <trkpt lat="40.7093660" lon="-2.0662110">
        <ele>1034.4</ele>
        <time>2019-07-06T06:24:27Z</time>
      </trkpt>
      <trkpt lat="40.7094330" lon="-2.0663610">
        <ele>1034.6</ele>
        <time>2019-07-06T06:24:30Z</time>
      </trkpt>
      <trkpt lat="40.7095240" lon="-2.0665620">
        <ele>1034.8</ele>
        <time>2019-07-06T06:24:34Z</time>
      </trkpt>
      <trkpt lat="40.7095640" lon="-2.0666790">
        <ele>1034.8</ele>
        <time>2019-07-06T06:24:36Z</time>
      </trkpt>
      <trkpt lat="40.7095800" lon="-2.0667440">
        <ele>1034.8</ele>
        <time>2019-07-06T06:24:37Z</time>
      </trkpt>
      <trkpt lat="40.7096030" lon="-2.0669610">
        <ele>1034.6</ele>
        <time>2019-07-06T06:24:40Z</time>
      </trkpt>
      <trkpt lat="40.7096140" lon="-2.0670310">
        <ele>1034.2</ele>
        <time>2019-07-06T06:24:41Z</time>
      </trkpt>
      <trkpt lat="40.7096270" lon="-2.0671000">
        <ele>1033.6</ele>
        <time>2019-07-06T06:24:42Z</time>
      </trkpt>
      <trkpt lat="40.7096450" lon="-2.0671680">
        <ele>1033.2</ele>
        <time>2019-07-06T06:24:43Z</time>
      </trkpt>
      <trkpt lat="40.7097040" lon="-2.0672750">
        <ele>1032.2</ele>
        <time>2019-07-06T06:24:45Z</time>
      </trkpt>
      <trkpt lat="40.7097370" lon="-2.0673190">
        <ele>1031.6</ele>
        <time>2019-07-06T06:24:46Z</time>
      </trkpt>
      <trkpt lat="40.7098020" lon="-2.0673990">
        <ele>1031.0</ele>
        <time>2019-07-06T06:24:48Z</time>
      </trkpt>
      <trkpt lat="40.7098380" lon="-2.0674370">
        <ele>1030.6</ele>
        <time>2019-07-06T06:24:49Z</time>
      </trkpt>
      <trkpt lat="40.7099150" lon="-2.0675180">
        <ele>1029.6</ele>
        <time>2019-07-06T06:24:51Z</time>
      </trkpt>
      <trkpt lat="40.7099960" lon="-2.0675860">
        <ele>1028.2</ele>
        <time>2019-07-06T06:24:53Z</time>
      </trkpt>
      <trkpt lat="40.7100790" lon="-2.0676550">
        <ele>1026.8</ele>
        <time>2019-07-06T06:24:55Z</time>
      </trkpt>
      <trkpt lat="40.7101670" lon="-2.0677190">
        <ele>1025.8</ele>
        <time>2019-07-06T06:24:57Z</time>
      </trkpt>
      <trkpt lat="40.7102620" lon="-2.0677730">
        <ele>1024.6</ele>
        <time>2019-07-06T06:24:59Z</time>
      </trkpt>
      <trkpt lat="40.7103580" lon="-2.0678250">
        <ele>1023.2</ele>
        <time>2019-07-06T06:25:01Z</time>
      </trkpt>
      <trkpt lat="40.7104010" lon="-2.0678440">
        <ele>1023.0</ele>
        <time>2019-07-06T06:25:02Z</time>
      </trkpt>
      <trkpt lat="40.7104920" lon="-2.0678670">
        <ele>1022.0</ele>
        <time>2019-07-06T06:25:04Z</time>
      </trkpt>
      <trkpt lat="40.7105950" lon="-2.0678830">
        <ele>1020.6</ele>
        <time>2019-07-06T06:25:06Z</time>
      </trkpt>
      <trkpt lat="40.7107200" lon="-2.0678860">
        <ele>1019.6</ele>
        <time>2019-07-06T06:25:08Z</time>
      </trkpt>
      <trkpt lat="40.7107880" lon="-2.0678840">
        <ele>1019.2</ele>
        <time>2019-07-06T06:25:09Z</time>
      </trkpt>
      <trkpt lat="40.7110040" lon="-2.0678680">
        <ele>1018.0</ele>
        <time>2019-07-06T06:25:12Z</time>
      </trkpt>
      <trkpt lat="40.7111430" lon="-2.0678440">
        <ele>1017.4</ele>
        <time>2019-07-06T06:25:14Z</time>
      </trkpt>
      <trkpt lat="40.7112840" lon="-2.0678320">
        <ele>1017.0</ele>
        <time>2019-07-06T06:25:16Z</time>
      </trkpt>
      <trkpt lat="40.7114840" lon="-2.0678090">
        <ele>1017.6</ele>
        <time>2019-07-06T06:25:20Z</time>
      </trkpt>
      <trkpt lat="40.7116870" lon="-2.0678210">
        <ele>1018.4</ele>
        <time>2019-07-06T06:25:25Z</time>
      </trkpt>
      <trkpt lat="40.7117310" lon="-2.0678270">
        <ele>1018.6</ele>
        <time>2019-07-06T06:25:26Z</time>
      </trkpt>
      <trkpt lat="40.7118240" lon="-2.0678450">
        <ele>1018.8</ele>
        <time>2019-07-06T06:25:28Z</time>
      </trkpt>
      <trkpt lat="40.7118730" lon="-2.0678610">
        <ele>1019.0</ele>
        <time>2019-07-06T06:25:29Z</time>
      </trkpt>
      <trkpt lat="40.7119690" lon="-2.0679050">
        <ele>1018.6</ele>
        <time>2019-07-06T06:25:31Z</time>
      </trkpt>
      <trkpt lat="40.7120210" lon="-2.0679200">
        <ele>1018.4</ele>
        <time>2019-07-06T06:25:32Z</time>
      </trkpt>
      <trkpt lat="40.7120680" lon="-2.0679300">
        <ele>1018.4</ele>
        <time>2019-07-06T06:25:33Z</time>
      </trkpt>
      <trkpt lat="40.7121190" lon="-2.0679470">
        <ele>1018.4</ele>
        <time>2019-07-06T06:25:34Z</time>
      </trkpt>
      <trkpt lat="40.7121680" lon="-2.0679650">
        <ele>1018.4</ele>
        <time>2019-07-06T06:25:35Z</time>
      </trkpt>
      <trkpt lat="40.7122700" lon="-2.0680120">
        <ele>1018.6</ele>
        <time>2019-07-06T06:25:37Z</time>
      </trkpt>
      <trkpt lat="40.7123700" lon="-2.0680610">
        <ele>1018.6</ele>
        <time>2019-07-06T06:25:39Z</time>
      </trkpt>
      <trkpt lat="40.7125350" lon="-2.0681230">
        <ele>1018.8</ele>
        <time>2019-07-06T06:25:42Z</time>
      </trkpt>
      <trkpt lat="40.7126590" lon="-2.0681540">
        <ele>1018.6</ele>
        <time>2019-07-06T06:25:44Z</time>
      </trkpt>
      <trkpt lat="40.7129610" lon="-2.0682500">
        <ele>1018.2</ele>
        <time>2019-07-06T06:25:49Z</time>
      </trkpt>
      <trkpt lat="40.7130880" lon="-2.0682950">
        <ele>1018.2</ele>
        <time>2019-07-06T06:25:51Z</time>
      </trkpt>
      <trkpt lat="40.7131480" lon="-2.0683330">
        <ele>1018.2</ele>
        <time>2019-07-06T06:25:52Z</time>
      </trkpt>
      <trkpt lat="40.7132670" lon="-2.0683930">
        <ele>1018.2</ele>
        <time>2019-07-06T06:25:54Z</time>
      </trkpt>
      <trkpt lat="40.7134460" lon="-2.0684750">
        <ele>1018.0</ele>
        <time>2019-07-06T06:25:57Z</time>
      </trkpt>
      <trkpt lat="40.7135650" lon="-2.0685630">
        <ele>1017.6</ele>
        <time>2019-07-06T06:25:59Z</time>
      </trkpt>
      <trkpt lat="40.7136840" lon="-2.0686620">
        <ele>1017.0</ele>
        <time>2019-07-06T06:26:01Z</time>
      </trkpt>
      <trkpt lat="40.7138670" lon="-2.0688340">
        <ele>1016.6</ele>
        <time>2019-07-06T06:26:04Z</time>
      </trkpt>
      <trkpt lat="40.7140410" lon="-2.0690140">
        <ele>1016.0</ele>
        <time>2019-07-06T06:26:07Z</time>
      </trkpt>
      <trkpt lat="40.7141050" lon="-2.0690650">
        <ele>1015.6</ele>
        <time>2019-07-06T06:26:08Z</time>
      </trkpt>
      <trkpt lat="40.7141730" lon="-2.0691060">
        <ele>1015.2</ele>
        <time>2019-07-06T06:26:09Z</time>
      </trkpt>
      <trkpt lat="40.7142920" lon="-2.0691670">
        <ele>1014.8</ele>
        <time>2019-07-06T06:26:11Z</time>
      </trkpt>
      <trkpt lat="40.7144180" lon="-2.0692250">
        <ele>1014.6</ele>
        <time>2019-07-06T06:26:13Z</time>
      </trkpt>
      <trkpt lat="40.7146510" lon="-2.0693480">
        <ele>1014.4</ele>
        <time>2019-07-06T06:26:17Z</time>
      </trkpt>
      <trkpt lat="40.7147580" lon="-2.0694090">
        <ele>1014.4</ele>
        <time>2019-07-06T06:26:19Z</time>
      </trkpt>
      <trkpt lat="40.7148070" lon="-2.0694470">
        <ele>1014.6</ele>
        <time>2019-07-06T06:26:20Z</time>
      </trkpt>
      <trkpt lat="40.7148940" lon="-2.0695130">
        <ele>1014.6</ele>
        <time>2019-07-06T06:26:22Z</time>
      </trkpt>
      <trkpt lat="40.7149970" lon="-2.0695690">
        <ele>1014.6</ele>
        <time>2019-07-06T06:26:24Z</time>
      </trkpt>
      <trkpt lat="40.7151210" lon="-2.0696140">
        <ele>1014.6</ele>
        <time>2019-07-06T06:26:26Z</time>
      </trkpt>
      <trkpt lat="40.7153300" lon="-2.0696280">
        <ele>1014.6</ele>
        <time>2019-07-06T06:26:30Z</time>
      </trkpt>
      <trkpt lat="40.7155760" lon="-2.0695780">
        <ele>1013.8</ele>
        <time>2019-07-06T06:26:34Z</time>
      </trkpt>
      <trkpt lat="40.7156370" lon="-2.0695650">
        <ele>1013.6</ele>
        <time>2019-07-06T06:26:35Z</time>
      </trkpt>
      <trkpt lat="40.7158130" lon="-2.0695410">
        <ele>1013.4</ele>
        <time>2019-07-06T06:26:38Z</time>
      </trkpt>
      <trkpt lat="40.7158710" lon="-2.0695460">
        <ele>1013.2</ele>
        <time>2019-07-06T06:26:39Z</time>
      </trkpt>
      <trkpt lat="40.7159270" lon="-2.0695610">
        <ele>1013.2</ele>
        <time>2019-07-06T06:26:40Z</time>
      </trkpt>
      <trkpt lat="40.7160360" lon="-2.0695650">
        <ele>1013.8</ele>
        <time>2019-07-06T06:26:42Z</time>
      </trkpt>
      <trkpt lat="40.7161270" lon="-2.0695840">
        <ele>1014.2</ele>
        <time>2019-07-06T06:26:44Z</time>
      </trkpt>
      <trkpt lat="40.7161980" lon="-2.0695980">
        <ele>1014.8</ele>
        <time>2019-07-06T06:26:46Z</time>
      </trkpt>
      <trkpt lat="40.7162850" lon="-2.0696050">
        <ele>1015.6</ele>
        <time>2019-07-06T06:26:49Z</time>
      </trkpt>
      <trkpt lat="40.7163180" lon="-2.0695950">
        <ele>1016.0</ele>
        <time>2019-07-06T06:26:50Z</time>
      </trkpt>
      <trkpt lat="40.7164270" lon="-2.0696410">
        <ele>1017.0</ele>
        <time>2019-07-06T06:26:53Z</time>
      </trkpt>
      <trkpt lat="40.7164650" lon="-2.0696650">
        <ele>1017.2</ele>
        <time>2019-07-06T06:26:54Z</time>
      </trkpt>
      <trkpt lat="40.7166110" lon="-2.0697610">
        <ele>1017.4</ele>
        <time>2019-07-06T06:26:58Z</time>
      </trkpt>
      <trkpt lat="40.7166530" lon="-2.0697940">
        <ele>1017.6</ele>
        <time>2019-07-06T06:26:59Z</time>
      </trkpt>
      <trkpt lat="40.7167340" lon="-2.0698550">
        <ele>1017.8</ele>
        <time>2019-07-06T06:27:01Z</time>
      </trkpt>
      <trkpt lat="40.7169100" lon="-2.0699910">
        <ele>1018.0</ele>
        <time>2019-07-06T06:27:05Z</time>
      </trkpt>
      <trkpt lat="40.7169510" lon="-2.0700280">
        <ele>1018.0</ele>
        <time>2019-07-06T06:27:06Z</time>
      </trkpt>
      <trkpt lat="40.7170730" lon="-2.0701680">
        <ele>1017.8</ele>
        <time>2019-07-06T06:27:09Z</time>
      </trkpt>
      <trkpt lat="40.7171610" lon="-2.0702470">
        <ele>1017.8</ele>
        <time>2019-07-06T06:27:11Z</time>
      </trkpt>
      <trkpt lat="40.7173020" lon="-2.0703640">
        <ele>1017.8</ele>
        <time>2019-07-06T06:27:14Z</time>
      </trkpt>
      <trkpt lat="40.7175680" lon="-2.0706370">
        <ele>1017.8</ele>
        <time>2019-07-06T06:27:20Z</time>
      </trkpt>
      <trkpt lat="40.7176930" lon="-2.0708030">
        <ele>1018.0</ele>
        <time>2019-07-06T06:27:23Z</time>
      </trkpt>
      <trkpt lat="40.7177720" lon="-2.0709200">
        <ele>1018.2</ele>
        <time>2019-07-06T06:27:25Z</time>
      </trkpt>
      <trkpt lat="40.7178770" lon="-2.0711280">
        <ele>1018.2</ele>
        <time>2019-07-06T06:27:28Z</time>
      </trkpt>
      <trkpt lat="40.7179280" lon="-2.0712820">
        <ele>1018.2</ele>
        <time>2019-07-06T06:27:30Z</time>
      </trkpt>
      <trkpt lat="40.7180420" lon="-2.0717480">
        <ele>1017.8</ele>
        <time>2019-07-06T06:27:36Z</time>
      </trkpt>
      <trkpt lat="40.7181060" lon="-2.0720480">
        <ele>1017.4</ele>
        <time>2019-07-06T06:27:40Z</time>
      </trkpt>
      <trkpt lat="40.7181120" lon="-2.0722100">
        <ele>1017.4</ele>
        <time>2019-07-06T06:27:42Z</time>
      </trkpt>
      <trkpt lat="40.7181070" lon="-2.0724580">
        <ele>1017.4</ele>
        <time>2019-07-06T06:27:45Z</time>
      </trkpt>
      <trkpt lat="40.7180820" lon="-2.0727000">
        <ele>1017.4</ele>
        <time>2019-07-06T06:27:48Z</time>
      </trkpt>
      <trkpt lat="40.7180620" lon="-2.0728580">
        <ele>1017.4</ele>
        <time>2019-07-06T06:27:50Z</time>
      </trkpt>
      <trkpt lat="40.7180310" lon="-2.0730870">
        <ele>1017.4</ele>
        <time>2019-07-06T06:27:53Z</time>
      </trkpt>
      <trkpt lat="40.7180220" lon="-2.0731630">
        <ele>1017.6</ele>
        <time>2019-07-06T06:27:54Z</time>
      </trkpt>
      <trkpt lat="40.7180200" lon="-2.0734710">
        <ele>1017.8</ele>
        <time>2019-07-06T06:27:58Z</time>
      </trkpt>
      <trkpt lat="40.7181120" lon="-2.0738200">
        <ele>1018.2</ele>
        <time>2019-07-06T06:28:03Z</time>
      </trkpt>
      <trkpt lat="40.7182020" lon="-2.0741330">
        <ele>1019.4</ele>
        <time>2019-07-06T06:28:08Z</time>
      </trkpt>
      <trkpt lat="40.7182230" lon="-2.0741990">
        <ele>1019.6</ele>
        <time>2019-07-06T06:28:09Z</time>
      </trkpt>
      <trkpt lat="40.7182720" lon="-2.0743320">
        <ele>1019.6</ele>
        <time>2019-07-06T06:28:11Z</time>
      </trkpt>
      <trkpt lat="40.7183790" lon="-2.0745160">
        <ele>1019.4</ele>
        <time>2019-07-06T06:28:14Z</time>
      </trkpt>
      <trkpt lat="40.7185750" lon="-2.0748180">
        <ele>1019.0</ele>
        <time>2019-07-06T06:28:19Z</time>
      </trkpt>
      <trkpt lat="40.7187470" lon="-2.0750580">
        <ele>1018.6</ele>
        <time>2019-07-06T06:28:23Z</time>
      </trkpt>
      <trkpt lat="40.7187930" lon="-2.0751200">
        <ele>1018.2</ele>
        <time>2019-07-06T06:28:24Z</time>
      </trkpt>
      <trkpt lat="40.7188380" lon="-2.0751830">
        <ele>1018.0</ele>
        <time>2019-07-06T06:28:25Z</time>
      </trkpt>
      <trkpt lat="40.7188810" lon="-2.0752440">
        <ele>1017.8</ele>
        <time>2019-07-06T06:28:26Z</time>
      </trkpt>
      <trkpt lat="40.7189800" lon="-2.0753500">
        <ele>1016.8</ele>
        <time>2019-07-06T06:28:28Z</time>
      </trkpt>
      <trkpt lat="40.7191340" lon="-2.0754790">
        <ele>1016.0</ele>
        <time>2019-07-06T06:28:31Z</time>
      </trkpt>
      <trkpt lat="40.7191900" lon="-2.0755110">
        <ele>1015.6</ele>
        <time>2019-07-06T06:28:32Z</time>
      </trkpt>
      <trkpt lat="40.7192510" lon="-2.0755370">
        <ele>1015.0</ele>
        <time>2019-07-06T06:28:33Z</time>
      </trkpt>
      <trkpt lat="40.7193180" lon="-2.0755580">
        <ele>1014.6</ele>
        <time>2019-07-06T06:28:34Z</time>
      </trkpt>
      <trkpt lat="40.7193910" lon="-2.0755700">
        <ele>1013.6</ele>
        <time>2019-07-06T06:28:35Z</time>
      </trkpt>
      <trkpt lat="40.7194670" lon="-2.0755760">
        <ele>1013.2</ele>
        <time>2019-07-06T06:28:36Z</time>
      </trkpt>
      <trkpt lat="40.7197080" lon="-2.0755940">
        <ele>1012.2</ele>
        <time>2019-07-06T06:28:39Z</time>
      </trkpt>
      <trkpt lat="40.7197780" lon="-2.0756090">
        <ele>1012.0</ele>
        <time>2019-07-06T06:28:40Z</time>
      </trkpt>
      <trkpt lat="40.7199860" lon="-2.0756910">
        <ele>1011.2</ele>
        <time>2019-07-06T06:28:43Z</time>
      </trkpt>
      <trkpt lat="40.7200520" lon="-2.0757190">
        <ele>1011.0</ele>
        <time>2019-07-06T06:28:44Z</time>
      </trkpt>
      <trkpt lat="40.7201180" lon="-2.0757450">
        <ele>1010.8</ele>
        <time>2019-07-06T06:28:45Z</time>
      </trkpt>
      <trkpt lat="40.7203690" lon="-2.0758290">
        <ele>1010.8</ele>
        <time>2019-07-06T06:28:49Z</time>
      </trkpt>
      <trkpt lat="40.7204760" lon="-2.0758640">
        <ele>1011.2</ele>
        <time>2019-07-06T06:28:51Z</time>
      </trkpt>
      <trkpt lat="40.7205820" lon="-2.0759020">
        <ele>1011.4</ele>
        <time>2019-07-06T06:28:53Z</time>
      </trkpt>
      <trkpt lat="40.7206940" lon="-2.0759260">
        <ele>1011.2</ele>
        <time>2019-07-06T06:28:55Z</time>
      </trkpt>
      <trkpt lat="40.7208020" lon="-2.0759660">
        <ele>1011.0</ele>
        <time>2019-07-06T06:28:57Z</time>
      </trkpt>
      <trkpt lat="40.7209770" lon="-2.0760370">
        <ele>1011.6</ele>
        <time>2019-07-06T06:29:01Z</time>
      </trkpt>
      <trkpt lat="40.7210850" lon="-2.0760740">
        <ele>1011.8</ele>
        <time>2019-07-06T06:29:03Z</time>
      </trkpt>
      <trkpt lat="40.7212340" lon="-2.0761360">
        <ele>1012.2</ele>
        <time>2019-07-06T06:29:06Z</time>
      </trkpt>
      <trkpt lat="40.7213640" lon="-2.0761770">
        <ele>1012.6</ele>
        <time>2019-07-06T06:29:09Z</time>
      </trkpt>
      <trkpt lat="40.7214070" lon="-2.0761900">
        <ele>1012.8</ele>
        <time>2019-07-06T06:29:10Z</time>
      </trkpt>
      <trkpt lat="40.7214530" lon="-2.0762000">
        <ele>1013.2</ele>
        <time>2019-07-06T06:29:11Z</time>
      </trkpt>
      <trkpt lat="40.7215590" lon="-2.0762320">
        <ele>1013.6</ele>
        <time>2019-07-06T06:29:14Z</time>
      </trkpt>
      <trkpt lat="40.7215970" lon="-2.0762410">
        <ele>1014.2</ele>
        <time>2019-07-06T06:29:15Z</time>
      </trkpt>
      <trkpt lat="40.7216690" lon="-2.0762680">
        <ele>1015.0</ele>
        <time>2019-07-06T06:29:17Z</time>
      </trkpt>
      <trkpt lat="40.7217390" lon="-2.0762880">
        <ele>1015.4</ele>
        <time>2019-07-06T06:29:19Z</time>
      </trkpt>
      <trkpt lat="40.7218210" lon="-2.0763210">
        <ele>1016.0</ele>
        <time>2019-07-06T06:29:21Z</time>
      </trkpt>
      <trkpt lat="40.7219720" lon="-2.0763940">
        <ele>1016.6</ele>
        <time>2019-07-06T06:29:24Z</time>
      </trkpt>
      <trkpt lat="40.7221430" lon="-2.0764610">
        <ele>1016.8</ele>
        <time>2019-07-06T06:29:27Z</time>
      </trkpt>
      <trkpt lat="40.7222510" lon="-2.0764930">
        <ele>1016.8</ele>
        <time>2019-07-06T06:29:29Z</time>
      </trkpt>
      <trkpt lat="40.7224200" lon="-2.0765420">
        <ele>1017.0</ele>
        <time>2019-07-06T06:29:32Z</time>
      </trkpt>
      <trkpt lat="40.7225370" lon="-2.0765770">
        <ele>1017.2</ele>
        <time>2019-07-06T06:29:34Z</time>
      </trkpt>
      <trkpt lat="40.7228200" lon="-2.0766800">
        <ele>1017.4</ele>
        <time>2019-07-06T06:29:39Z</time>
      </trkpt>
      <trkpt lat="40.7230280" lon="-2.0767870">
        <ele>1017.4</ele>
        <time>2019-07-06T06:29:43Z</time>
      </trkpt>
      <trkpt lat="40.7231410" lon="-2.0768390">
        <ele>1017.6</ele>
        <time>2019-07-06T06:29:45Z</time>
      </trkpt>
      <trkpt lat="40.7231910" lon="-2.0768760">
        <ele>1017.8</ele>
        <time>2019-07-06T06:29:46Z</time>
      </trkpt>
      <trkpt lat="40.7233430" lon="-2.0769600">
        <ele>1018.2</ele>
        <time>2019-07-06T06:29:49Z</time>
      </trkpt>
      <trkpt lat="40.7234930" lon="-2.0770460">
        <ele>1018.6</ele>
        <time>2019-07-06T06:29:53Z</time>
      </trkpt>
      <trkpt lat="40.7235720" lon="-2.0770810">
        <ele>1019.4</ele>
        <time>2019-07-06T06:29:55Z</time>
      </trkpt>
      <trkpt lat="40.7236850" lon="-2.0771410">
        <ele>1020.4</ele>
        <time>2019-07-06T06:29:58Z</time>
      </trkpt>
      <trkpt lat="40.7237250" lon="-2.0771690">
        <ele>1020.6</ele>
        <time>2019-07-06T06:29:59Z</time>
      </trkpt>
      <trkpt lat="40.7237640" lon="-2.0771910">
        <ele>1020.8</ele>
        <time>2019-07-06T06:30:00Z</time>
      </trkpt>
      <trkpt lat="40.7238780" lon="-2.0771990">
        <ele>1021.8</ele>
        <time>2019-07-06T06:30:03Z</time>
      </trkpt>
      <trkpt lat="40.7239230" lon="-2.0771890">
        <ele>1022.2</ele>
        <time>2019-07-06T06:30:04Z</time>
      </trkpt>
      <trkpt lat="40.7239970" lon="-2.0771470">
        <ele>1022.8</ele>
        <time>2019-07-06T06:30:06Z</time>
      </trkpt>
      <trkpt lat="40.7240380" lon="-2.0771160">
        <ele>1023.0</ele>
        <time>2019-07-06T06:30:07Z</time>
      </trkpt>
      <trkpt lat="40.7240730" lon="-2.0770810">
        <ele>1023.0</ele>
        <time>2019-07-06T06:30:08Z</time>
      </trkpt>
      <trkpt lat="40.7242580" lon="-2.0768940">
        <ele>1024.0</ele>
        <time>2019-07-06T06:30:14Z</time>
      </trkpt>
      <trkpt lat="40.7244090" lon="-2.0768700">
        <ele>1025.2</ele>
        <time>2019-07-06T06:30:19Z</time>
      </trkpt>
      <trkpt lat="40.7244900" lon="-2.0769880">
        <ele>1026.2</ele>
        <time>2019-07-06T06:30:23Z</time>
      </trkpt>
      <trkpt lat="40.7245590" lon="-2.0771180">
        <ele>1027.4</ele>
        <time>2019-07-06T06:30:27Z</time>
      </trkpt>
      <trkpt lat="40.7246240" lon="-2.0771950">
        <ele>1028.2</ele>
        <time>2019-07-06T06:30:30Z</time>
      </trkpt>
      <trkpt lat="40.7246470" lon="-2.0772190">
        <ele>1028.6</ele>
        <time>2019-07-06T06:30:31Z</time>
      </trkpt>
      <trkpt lat="40.7247420" lon="-2.0773090">
        <ele>1029.4</ele>
        <time>2019-07-06T06:30:35Z</time>
      </trkpt>
      <trkpt lat="40.7247910" lon="-2.0773430">
        <ele>1029.8</ele>
        <time>2019-07-06T06:30:37Z</time>
      </trkpt>
      <trkpt lat="40.7248350" lon="-2.0773740">
        <ele>1030.0</ele>
        <time>2019-07-06T06:30:39Z</time>
      </trkpt>
      <trkpt lat="40.7248760" lon="-2.0774450">
        <ele>1030.8</ele>
        <time>2019-07-06T06:30:42Z</time>
      </trkpt>
      <trkpt lat="40.7249440" lon="-2.0775510">
        <ele>1031.4</ele>
        <time>2019-07-06T06:30:45Z</time>
      </trkpt>
      <trkpt lat="40.7250790" lon="-2.0776510">
        <ele>1031.6</ele>
        <time>2019-07-06T06:30:50Z</time>
      </trkpt>
      <trkpt lat="40.7251320" lon="-2.0776450">
        <ele>1032.0</ele>
        <time>2019-07-06T06:30:52Z</time>
      </trkpt>
      <trkpt lat="40.7252540" lon="-2.0776040">
        <ele>1033.0</ele>
        <time>2019-07-06T06:30:56Z</time>
      </trkpt>
      <trkpt lat="40.7253850" lon="-2.0775500">
        <ele>1034.2</ele>
        <time>2019-07-06T06:31:00Z</time>
      </trkpt>
      <trkpt lat="40.7254410" lon="-2.0775070">
        <ele>1034.6</ele>
        <time>2019-07-06T06:31:02Z</time>
      </trkpt>
      <trkpt lat="40.7254930" lon="-2.0773790">
        <ele>1035.4</ele>
        <time>2019-07-06T06:31:06Z</time>
      </trkpt>
      <trkpt lat="40.7254950" lon="-2.0773440">
        <ele>1035.6</ele>
        <time>2019-07-06T06:31:07Z</time>
      </trkpt>
      <trkpt lat="40.7254790" lon="-2.0771670">
        <ele>1036.4</ele>
        <time>2019-07-06T06:31:12Z</time>
      </trkpt>
      <trkpt lat="40.7255100" lon="-2.0769600">
        <ele>1037.8</ele>
        <time>2019-07-06T06:31:17Z</time>
      </trkpt>
      <trkpt lat="40.7256020" lon="-2.0768950">
        <ele>1038.8</ele>
        <time>2019-07-06T06:31:21Z</time>
      </trkpt>
      <trkpt lat="40.7256250" lon="-2.0769020">
        <ele>1039.0</ele>
        <time>2019-07-06T06:31:22Z</time>
      </trkpt>
      <trkpt lat="40.7256870" lon="-2.0769570">
        <ele>1039.8</ele>
        <time>2019-07-06T06:31:25Z</time>
      </trkpt>
      <trkpt lat="40.7257150" lon="-2.0769810">
        <ele>1040.4</ele>
        <time>2019-07-06T06:31:26Z</time>
      </trkpt>
      <trkpt lat="40.7258430" lon="-2.0770680">
        <ele>1041.4</ele>
        <time>2019-07-06T06:31:31Z</time>
      </trkpt>
      <trkpt lat="40.7259210" lon="-2.0771010">
        <ele>1042.6</ele>
        <time>2019-07-06T06:31:34Z</time>
      </trkpt>
      <trkpt lat="40.7260040" lon="-2.0771480">
        <ele>1044.0</ele>
        <time>2019-07-06T06:31:37Z</time>
      </trkpt>
      <trkpt lat="40.7260740" lon="-2.0772380">
        <ele>1045.2</ele>
        <time>2019-07-06T06:31:40Z</time>
      </trkpt>
      <trkpt lat="40.7261100" lon="-2.0773160">
        <ele>1046.0</ele>
        <time>2019-07-06T06:31:42Z</time>
      </trkpt>
      <trkpt lat="40.7261790" lon="-2.0774450">
        <ele>1046.4</ele>
        <time>2019-07-06T06:31:46Z</time>
      </trkpt>
      <trkpt lat="40.7262190" lon="-2.0774810">
        <ele>1046.8</ele>
        <time>2019-07-06T06:31:48Z</time>
      </trkpt>
      <trkpt lat="40.7263050" lon="-2.0775470">
        <ele>1047.6</ele>
        <time>2019-07-06T06:31:52Z</time>
      </trkpt>
      <trkpt lat="40.7263530" lon="-2.0775670">
        <ele>1048.2</ele>
        <time>2019-07-06T06:31:54Z</time>
      </trkpt>
      <trkpt lat="40.7263960" lon="-2.0775940">
        <ele>1048.8</ele>
        <time>2019-07-06T06:31:56Z</time>
      </trkpt>
      <trkpt lat="40.7264890" lon="-2.0776560">
        <ele>1049.8</ele>
        <time>2019-07-06T06:32:00Z</time>
      </trkpt>
      <trkpt lat="40.7265150" lon="-2.0776770">
        <ele>1050.0</ele>
        <time>2019-07-06T06:32:01Z</time>
      </trkpt>
      <trkpt lat="40.7266180" lon="-2.0777680">
        <ele>1050.6</ele>
        <time>2019-07-06T06:32:05Z</time>
      </trkpt>
      <trkpt lat="40.7267260" lon="-2.0778160">
        <ele>1051.2</ele>
        <time>2019-07-06T06:32:09Z</time>
      </trkpt>
      <trkpt lat="40.7267500" lon="-2.0778280">
        <ele>1051.4</ele>
        <time>2019-07-06T06:32:10Z</time>
      </trkpt>
      <trkpt lat="40.7269040" lon="-2.0778720">
        <ele>1052.2</ele>
        <time>2019-07-06T06:32:16Z</time>
      </trkpt>
      <trkpt lat="40.7270440" lon="-2.0779000">
        <ele>1053.4</ele>
        <time>2019-07-06T06:32:21Z</time>
      </trkpt>
      <trkpt lat="40.7270980" lon="-2.0778890">
        <ele>1053.8</ele>
        <time>2019-07-06T06:32:23Z</time>
      </trkpt>
      <trkpt lat="40.7271780" lon="-2.0778460">
        <ele>1054.8</ele>
        <time>2019-07-06T06:32:26Z</time>
      </trkpt>
      <trkpt lat="40.7272490" lon="-2.0777940">
        <ele>1055.8</ele>
        <time>2019-07-06T06:32:29Z</time>
      </trkpt>
      <trkpt lat="40.7272720" lon="-2.0777740">
        <ele>1056.0</ele>
        <time>2019-07-06T06:32:30Z</time>
      </trkpt>
      <trkpt lat="40.7273460" lon="-2.0777090">
        <ele>1057.0</ele>
        <time>2019-07-06T06:32:33Z</time>
      </trkpt>
      <trkpt lat="40.7274470" lon="-2.0776300">
        <ele>1057.6</ele>
        <time>2019-07-06T06:32:37Z</time>
      </trkpt>
      <trkpt lat="40.7275420" lon="-2.0775470">
        <ele>1058.0</ele>
        <time>2019-07-06T06:32:41Z</time>
      </trkpt>
      <trkpt lat="40.7276440" lon="-2.0774700">
        <ele>1059.2</ele>
        <time>2019-07-06T06:32:45Z</time>
      </trkpt>
      <trkpt lat="40.7277940" lon="-2.0773490">
        <ele>1060.4</ele>
        <time>2019-07-06T06:32:51Z</time>
      </trkpt>
      <trkpt lat="40.7278510" lon="-2.0773150">
        <ele>1061.2</ele>
        <time>2019-07-06T06:32:53Z</time>
      </trkpt>
      <trkpt lat="40.7279120" lon="-2.0772940">
        <ele>1061.8</ele>
        <time>2019-07-06T06:32:55Z</time>
      </trkpt>
      <trkpt lat="40.7279740" lon="-2.0773110">
        <ele>1062.2</ele>
        <time>2019-07-06T06:32:57Z</time>
      </trkpt>
      <trkpt lat="40.7280550" lon="-2.0774730">
        <ele>1062.4</ele>
        <time>2019-07-06T06:33:01Z</time>
      </trkpt>
      <trkpt lat="40.7281390" lon="-2.0777930">
        <ele>1060.8</ele>
        <time>2019-07-06T06:33:06Z</time>
      </trkpt>
      <trkpt lat="40.7281650" lon="-2.0778540">
        <ele>1060.4</ele>
        <time>2019-07-06T06:33:07Z</time>
      </trkpt>
      <trkpt lat="40.7282180" lon="-2.0779620">
        <ele>1059.4</ele>
        <time>2019-07-06T06:33:09Z</time>
      </trkpt>
      <trkpt lat="40.7282480" lon="-2.0780110">
        <ele>1058.8</ele>
        <time>2019-07-06T06:33:10Z</time>
      </trkpt>
      <trkpt lat="40.7282820" lon="-2.0780540">
        <ele>1058.2</ele>
        <time>2019-07-06T06:33:11Z</time>
      </trkpt>
      <trkpt lat="40.7283210" lon="-2.0781000">
        <ele>1057.6</ele>
        <time>2019-07-06T06:33:12Z</time>
      </trkpt>
      <trkpt lat="40.7283990" lon="-2.0781940">
        <ele>1056.6</ele>
        <time>2019-07-06T06:33:14Z</time>
      </trkpt>
      <trkpt lat="40.7284630" lon="-2.0782750">
        <ele>1054.8</ele>
        <time>2019-07-06T06:33:16Z</time>
      </trkpt>
      <trkpt lat="40.7284880" lon="-2.0783250">
        <ele>1054.2</ele>
        <time>2019-07-06T06:33:17Z</time>
      </trkpt>
      <trkpt lat="40.7285060" lon="-2.0783910">
        <ele>1053.6</ele>
        <time>2019-07-06T06:33:18Z</time>
      </trkpt>
      <trkpt lat="40.7285180" lon="-2.0784690">
        <ele>1053.2</ele>
        <time>2019-07-06T06:33:19Z</time>
      </trkpt>
      <trkpt lat="40.7285320" lon="-2.0785550">
        <ele>1052.6</ele>
        <time>2019-07-06T06:33:20Z</time>
      </trkpt>
      <trkpt lat="40.7285430" lon="-2.0786470">
        <ele>1052.0</ele>
        <time>2019-07-06T06:33:21Z</time>
      </trkpt>
      <trkpt lat="40.7285550" lon="-2.0787360">
        <ele>1051.4</ele>
        <time>2019-07-06T06:33:22Z</time>
      </trkpt>
      <trkpt lat="40.7285660" lon="-2.0788190">
        <ele>1050.8</ele>
        <time>2019-07-06T06:33:23Z</time>
      </trkpt>
      <trkpt lat="40.7285700" lon="-2.0789020">
        <ele>1050.0</ele>
        <time>2019-07-06T06:33:24Z</time>
      </trkpt>
      <trkpt lat="40.7285320" lon="-2.0791430">
        <ele>1048.8</ele>
        <time>2019-07-06T06:33:27Z</time>
      </trkpt>
      <trkpt lat="40.7284370" lon="-2.0793510">
        <ele>1047.8</ele>
        <time>2019-07-06T06:33:30Z</time>
      </trkpt>
      <trkpt lat="40.7284300" lon="-2.0794140">
        <ele>1047.4</ele>
        <time>2019-07-06T06:33:31Z</time>
      </trkpt>
      <trkpt lat="40.7284780" lon="-2.0795110">
        <ele>1047.0</ele>
        <time>2019-07-06T06:33:33Z</time>
      </trkpt>
      <trkpt lat="40.7285190" lon="-2.0795390">
        <ele>1046.8</ele>
        <time>2019-07-06T06:33:34Z</time>
      </trkpt>
      <trkpt lat="40.7287180" lon="-2.0795540">
        <ele>1045.6</ele>
        <time>2019-07-06T06:33:38Z</time>
      </trkpt>
      <trkpt lat="40.7288150" lon="-2.0795880">
        <ele>1045.2</ele>
        <time>2019-07-06T06:33:40Z</time>
      </trkpt>
      <trkpt lat="40.7288550" lon="-2.0796270">
        <ele>1044.6</ele>
        <time>2019-07-06T06:33:41Z</time>
      </trkpt>
      <trkpt lat="40.7289170" lon="-2.0797470">
        <ele>1043.6</ele>
        <time>2019-07-06T06:33:43Z</time>
      </trkpt>
      <trkpt lat="40.7289460" lon="-2.0798090">
        <ele>1043.2</ele>
        <time>2019-07-06T06:33:44Z</time>
      </trkpt>
      <trkpt lat="40.7289780" lon="-2.0798630">
        <ele>1042.8</ele>
        <time>2019-07-06T06:33:45Z</time>
      </trkpt>
      <trkpt lat="40.7290690" lon="-2.0799270">
        <ele>1042.0</ele>
        <time>2019-07-06T06:33:47Z</time>
      </trkpt>
      <trkpt lat="40.7291220" lon="-2.0799360">
        <ele>1041.2</ele>
        <time>2019-07-06T06:33:48Z</time>
      </trkpt>
      <trkpt lat="40.7291780" lon="-2.0799500">
        <ele>1040.8</ele>
        <time>2019-07-06T06:33:49Z</time>
      </trkpt>
      <trkpt lat="40.7292770" lon="-2.0800340">
        <ele>1040.2</ele>
        <time>2019-07-06T06:33:51Z</time>
      </trkpt>
      <trkpt lat="40.7293710" lon="-2.0801550">
        <ele>1039.6</ele>
        <time>2019-07-06T06:33:53Z</time>
      </trkpt>
      <trkpt lat="40.7294600" lon="-2.0802770">
        <ele>1039.0</ele>
        <time>2019-07-06T06:33:55Z</time>
      </trkpt>
      <trkpt lat="40.7294970" lon="-2.0803400">
        <ele>1037.8</ele>
        <time>2019-07-06T06:33:56Z</time>
      </trkpt>
      <trkpt lat="40.7295310" lon="-2.0803980">
        <ele>1037.0</ele>
        <time>2019-07-06T06:33:57Z</time>
      </trkpt>
      <trkpt lat="40.7295650" lon="-2.0804600">
        <ele>1036.2</ele>
        <time>2019-07-06T06:33:58Z</time>
      </trkpt>
      <trkpt lat="40.7296430" lon="-2.0805810">
        <ele>1035.2</ele>
        <time>2019-07-06T06:34:00Z</time>
      </trkpt>
      <trkpt lat="40.7296930" lon="-2.0806310">
        <ele>1034.4</ele>
        <time>2019-07-06T06:34:01Z</time>
      </trkpt>
      <trkpt lat="40.7297540" lon="-2.0806730">
        <ele>1033.4</ele>
        <time>2019-07-06T06:34:02Z</time>
      </trkpt>
      <trkpt lat="40.7298910" lon="-2.0807130">
        <ele>1031.2</ele>
        <time>2019-07-06T06:34:04Z</time>
      </trkpt>
      <trkpt lat="40.7300290" lon="-2.0807420">
        <ele>1030.2</ele>
        <time>2019-07-06T06:34:06Z</time>
      </trkpt>
      <trkpt lat="40.7300990" lon="-2.0807650">
        <ele>1030.0</ele>
        <time>2019-07-06T06:34:07Z</time>
      </trkpt>
      <trkpt lat="40.7301620" lon="-2.0807920">
        <ele>1029.6</ele>
        <time>2019-07-06T06:34:08Z</time>
      </trkpt>
      <trkpt lat="40.7302730" lon="-2.0808480">
        <ele>1029.4</ele>
        <time>2019-07-06T06:34:10Z</time>
      </trkpt>
      <trkpt lat="40.7303680" lon="-2.0809150">
        <ele>1028.6</ele>
        <time>2019-07-06T06:34:12Z</time>
      </trkpt>
      <trkpt lat="40.7304180" lon="-2.0809550">
        <ele>1028.4</ele>
        <time>2019-07-06T06:34:13Z</time>
      </trkpt>
      <trkpt lat="40.7304700" lon="-2.0809900">
        <ele>1028.0</ele>
        <time>2019-07-06T06:34:14Z</time>
      </trkpt>
      <trkpt lat="40.7306280" lon="-2.0811280">
        <ele>1026.4</ele>
        <time>2019-07-06T06:34:17Z</time>
      </trkpt>
      <trkpt lat="40.7307280" lon="-2.0812230">
        <ele>1024.4</ele>
        <time>2019-07-06T06:34:19Z</time>
      </trkpt>
      <trkpt lat="40.7308170" lon="-2.0813090">
        <ele>1023.0</ele>
        <time>2019-07-06T06:34:21Z</time>
      </trkpt>
      <trkpt lat="40.7308590" lon="-2.0813580">
        <ele>1022.8</ele>
        <time>2019-07-06T06:34:22Z</time>
      </trkpt>
      <trkpt lat="40.7309050" lon="-2.0814010">
        <ele>1022.4</ele>
        <time>2019-07-06T06:34:23Z</time>
      </trkpt>
      <trkpt lat="40.7309500" lon="-2.0814360">
        <ele>1022.0</ele>
        <time>2019-07-06T06:34:24Z</time>
      </trkpt>
      <trkpt lat="40.7309950" lon="-2.0814670">
        <ele>1021.0</ele>
        <time>2019-07-06T06:34:25Z</time>
      </trkpt>
      <trkpt lat="40.7310440" lon="-2.0814910">
        <ele>1020.4</ele>
        <time>2019-07-06T06:34:26Z</time>
      </trkpt>
      <trkpt lat="40.7311360" lon="-2.0815440">
        <ele>1019.6</ele>
        <time>2019-07-06T06:34:28Z</time>
      </trkpt>
      <trkpt lat="40.7311970" lon="-2.0815670">
        <ele>1019.0</ele>
        <time>2019-07-06T06:34:29Z</time>
      </trkpt>
      <trkpt lat="40.7312580" lon="-2.0815860">
        <ele>1018.2</ele>
        <time>2019-07-06T06:34:30Z</time>
      </trkpt>
      <trkpt lat="40.7313690" lon="-2.0816130">
        <ele>1017.2</ele>
        <time>2019-07-06T06:34:32Z</time>
      </trkpt>
      <trkpt lat="40.7314200" lon="-2.0816220">
        <ele>1016.8</ele>
        <time>2019-07-06T06:34:33Z</time>
      </trkpt>
      <trkpt lat="40.7315180" lon="-2.0816330">
        <ele>1016.2</ele>
        <time>2019-07-06T06:34:35Z</time>
      </trkpt>
      <trkpt lat="40.7316690" lon="-2.0816880">
        <ele>1015.0</ele>
        <time>2019-07-06T06:34:38Z</time>
      </trkpt>
      <trkpt lat="40.7318100" lon="-2.0817370">
        <ele>1013.6</ele>
        <time>2019-07-06T06:34:41Z</time>
      </trkpt>
      <trkpt lat="40.7319140" lon="-2.0817670">
        <ele>1012.6</ele>
        <time>2019-07-06T06:34:43Z</time>
      </trkpt>
      <trkpt lat="40.7319700" lon="-2.0817850">
        <ele>1012.2</ele>
        <time>2019-07-06T06:34:44Z</time>
      </trkpt>
      <trkpt lat="40.7320960" lon="-2.0818220">
        <ele>1011.6</ele>
        <time>2019-07-06T06:34:46Z</time>
      </trkpt>
      <trkpt lat="40.7321540" lon="-2.0818370">
        <ele>1011.2</ele>
        <time>2019-07-06T06:34:47Z</time>
      </trkpt>
      <trkpt lat="40.7322750" lon="-2.0818520">
        <ele>1010.4</ele>
        <time>2019-07-06T06:34:49Z</time>
      </trkpt>
      <trkpt lat="40.7324440" lon="-2.0818680">
        <ele>1009.0</ele>
        <time>2019-07-06T06:34:52Z</time>
      </trkpt>
      <trkpt lat="40.7325500" lon="-2.0818690">
        <ele>1008.4</ele>
        <time>2019-07-06T06:34:54Z</time>
      </trkpt>
      <trkpt lat="40.7326010" lon="-2.0818610">
        <ele>1007.8</ele>
        <time>2019-07-06T06:34:55Z</time>
      </trkpt>
      <trkpt lat="40.7327040" lon="-2.0818170">
        <ele>1006.6</ele>
        <time>2019-07-06T06:34:57Z</time>
      </trkpt>
      <trkpt lat="40.7327500" lon="-2.0817890">
        <ele>1006.4</ele>
        <time>2019-07-06T06:34:58Z</time>
      </trkpt>
      <trkpt lat="40.7327970" lon="-2.0817580">
        <ele>1006.0</ele>
        <time>2019-07-06T06:34:59Z</time>
      </trkpt>
      <trkpt lat="40.7328490" lon="-2.0817240">
        <ele>1005.6</ele>
        <time>2019-07-06T06:35:00Z</time>
      </trkpt>
      <trkpt lat="40.7329660" lon="-2.0816570">
        <ele>1004.6</ele>
        <time>2019-07-06T06:35:02Z</time>
      </trkpt>
      <trkpt lat="40.7330310" lon="-2.0816160">
        <ele>1003.8</ele>
        <time>2019-07-06T06:35:03Z</time>
      </trkpt>
      <trkpt lat="40.7330980" lon="-2.0815750">
        <ele>1003.2</ele>
        <time>2019-07-06T06:35:04Z</time>
      </trkpt>
      <trkpt lat="40.7332360" lon="-2.0815000">
        <ele>1001.8</ele>
        <time>2019-07-06T06:35:06Z</time>
      </trkpt>
      <trkpt lat="40.7333100" lon="-2.0814720">
        <ele>1001.6</ele>
        <time>2019-07-06T06:35:07Z</time>
      </trkpt>
      <trkpt lat="40.7333900" lon="-2.0814520">
        <ele>1001.2</ele>
        <time>2019-07-06T06:35:08Z</time>
      </trkpt>
      <trkpt lat="40.7335450" lon="-2.0814070">
        <ele>1000.6</ele>
        <time>2019-07-06T06:35:10Z</time>
      </trkpt>
      <trkpt lat="40.7337460" lon="-2.0813100">
        <ele>1000.2</ele>
        <time>2019-07-06T06:35:13Z</time>
      </trkpt>
      <trkpt lat="40.7338090" lon="-2.0812860">
        <ele>1000.2</ele>
        <time>2019-07-06T06:35:14Z</time>
      </trkpt>
      <trkpt lat="40.7339840" lon="-2.0812060">
        <ele>1000.4</ele>
        <time>2019-07-06T06:35:17Z</time>
      </trkpt>
      <trkpt lat="40.7341860" lon="-2.0810820">
        <ele>1000.2</ele>
        <time>2019-07-06T06:35:21Z</time>
      </trkpt>
      <trkpt lat="40.7342400" lon="-2.0810530">
        <ele>1000.4</ele>
        <time>2019-07-06T06:35:22Z</time>
      </trkpt>
      <trkpt lat="40.7344050" lon="-2.0809990">
        <ele>1000.6</ele>
        <time>2019-07-06T06:35:25Z</time>
      </trkpt>
      <trkpt lat="40.7345210" lon="-2.0809820">
        <ele>1000.8</ele>
        <time>2019-07-06T06:35:27Z</time>
      </trkpt>
      <trkpt lat="40.7346360" lon="-2.0809480">
        <ele>1000.8</ele>
        <time>2019-07-06T06:35:29Z</time>
      </trkpt>
      <trkpt lat="40.7347970" lon="-2.0808650">
        <ele>1000.8</ele>
        <time>2019-07-06T06:35:32Z</time>
      </trkpt>
      <trkpt lat="40.7349250" lon="-2.0807800">
        <ele>1001.2</ele>
        <time>2019-07-06T06:35:35Z</time>
      </trkpt>
      <trkpt lat="40.7350200" lon="-2.0807330">
        <ele>1001.6</ele>
        <time>2019-07-06T06:35:37Z</time>
      </trkpt>
      <trkpt lat="40.7353360" lon="-2.0805640">
        <ele>1000.8</ele>
        <time>2019-07-06T06:35:43Z</time>
      </trkpt>
      <trkpt lat="40.7355810" lon="-2.0805180">
        <ele>1000.0</ele>
        <time>2019-07-06T06:35:47Z</time>
      </trkpt>
      <trkpt lat="40.7356440" lon="-2.0805200">
        <ele>999.8</ele>
        <time>2019-07-06T06:35:48Z</time>
      </trkpt>
      <trkpt lat="40.7359550" lon="-2.0805420">
        <ele>999.0</ele>
        <time>2019-07-06T06:35:53Z</time>
      </trkpt>
      <trkpt lat="40.7360190" lon="-2.0805530">
        <ele>998.6</ele>
        <time>2019-07-06T06:35:54Z</time>
      </trkpt>
      <trkpt lat="40.7363160" lon="-2.0806270">
        <ele>998.4</ele>
        <time>2019-07-06T06:35:59Z</time>
      </trkpt>
      <trkpt lat="40.7364230" lon="-2.0806640">
        <ele>998.6</ele>
        <time>2019-07-06T06:36:01Z</time>
      </trkpt>
      <trkpt lat="40.7365210" lon="-2.0806960">
        <ele>998.8</ele>
        <time>2019-07-06T06:36:03Z</time>
      </trkpt>
      <trkpt lat="40.7367530" lon="-2.0808140">
        <ele>999.6</ele>
        <time>2019-07-06T06:36:08Z</time>
      </trkpt>
      <trkpt lat="40.7367980" lon="-2.0808540">
        <ele>999.8</ele>
        <time>2019-07-06T06:36:09Z</time>
      </trkpt>
      <trkpt lat="40.7369440" lon="-2.0810010">
        <ele>999.8</ele>
        <time>2019-07-06T06:36:12Z</time>
      </trkpt>
      <trkpt lat="40.7370660" lon="-2.0810770">
        <ele>999.0</ele>
        <time>2019-07-06T06:36:14Z</time>
      </trkpt>
      <trkpt lat="40.7371320" lon="-2.0811070">
        <ele>998.4</ele>
        <time>2019-07-06T06:36:15Z</time>
      </trkpt>
      <trkpt lat="40.7372700" lon="-2.0811660">
        <ele>998.0</ele>
        <time>2019-07-06T06:36:17Z</time>
      </trkpt>
      <trkpt lat="40.7373420" lon="-2.0812090">
        <ele>997.4</ele>
        <time>2019-07-06T06:36:18Z</time>
      </trkpt>
      <trkpt lat="40.7374160" lon="-2.0812610">
        <ele>997.2</ele>
        <time>2019-07-06T06:36:19Z</time>
      </trkpt>
      <trkpt lat="40.7376380" lon="-2.0814180">
        <ele>995.8</ele>
        <time>2019-07-06T06:36:22Z</time>
      </trkpt>
      <trkpt lat="40.7377870" lon="-2.0815160">
        <ele>994.8</ele>
        <time>2019-07-06T06:36:24Z</time>
      </trkpt>
      <trkpt lat="40.7378600" lon="-2.0815540">
        <ele>994.6</ele>
        <time>2019-07-06T06:36:25Z</time>
      </trkpt>
      <trkpt lat="40.7380760" lon="-2.0816500">
        <ele>994.0</ele>
        <time>2019-07-06T06:36:28Z</time>
      </trkpt>
      <trkpt lat="40.7381450" lon="-2.0816820">
        <ele>993.8</ele>
        <time>2019-07-06T06:36:29Z</time>
      </trkpt>
      <trkpt lat="40.7383480" lon="-2.0817690">
        <ele>994.0</ele>
        <time>2019-07-06T06:36:32Z</time>
      </trkpt>
      <trkpt lat="40.7385450" lon="-2.0818140">
        <ele>993.8</ele>
        <time>2019-07-06T06:36:35Z</time>
      </trkpt>
      <trkpt lat="40.7387240" lon="-2.0818130">
        <ele>993.6</ele>
        <time>2019-07-06T06:36:38Z</time>
      </trkpt>
      <trkpt lat="40.7388380" lon="-2.0817960">
        <ele>993.4</ele>
        <time>2019-07-06T06:36:40Z</time>
      </trkpt>
      <trkpt lat="40.7389940" lon="-2.0817760">
        <ele>993.2</ele>
        <time>2019-07-06T06:36:43Z</time>
      </trkpt>
      <trkpt lat="40.7390450" lon="-2.0817920">
        <ele>993.2</ele>
        <time>2019-07-06T06:36:44Z</time>
      </trkpt>
      <trkpt lat="40.7391500" lon="-2.0818100">
        <ele>993.2</ele>
        <time>2019-07-06T06:36:46Z</time>
      </trkpt>
      <trkpt lat="40.7392710" lon="-2.0817960">
        <ele>993.0</ele>
        <time>2019-07-06T06:36:48Z</time>
      </trkpt>
      <trkpt lat="40.7393330" lon="-2.0817870">
        <ele>992.6</ele>
        <time>2019-07-06T06:36:49Z</time>
      </trkpt>
      <trkpt lat="40.7396050" lon="-2.0817460">
        <ele>991.4</ele>
        <time>2019-07-06T06:36:53Z</time>
      </trkpt>
      <trkpt lat="40.7396700" lon="-2.0817370">
        <ele>991.2</ele>
        <time>2019-07-06T06:36:54Z</time>
      </trkpt>
      <trkpt lat="40.7398550" lon="-2.0817150">
        <ele>991.2</ele>
        <time>2019-07-06T06:36:57Z</time>
      </trkpt>
      <trkpt lat="40.7399690" lon="-2.0816890">
        <ele>991.2</ele>
        <time>2019-07-06T06:36:59Z</time>
      </trkpt>
      <trkpt lat="40.7400770" lon="-2.0816600">
        <ele>991.2</ele>
        <time>2019-07-06T06:37:01Z</time>
      </trkpt>
      <trkpt lat="40.7401850" lon="-2.0816280">
        <ele>991.4</ele>
        <time>2019-07-06T06:37:03Z</time>
      </trkpt>
      <trkpt lat="40.7402350" lon="-2.0816130">
        <ele>991.6</ele>
        <time>2019-07-06T06:37:04Z</time>
      </trkpt>
      <trkpt lat="40.7403320" lon="-2.0815850">
        <ele>992.0</ele>
        <time>2019-07-06T06:37:06Z</time>
      </trkpt>
      <trkpt lat="40.7403770" lon="-2.0815720">
        <ele>992.2</ele>
        <time>2019-07-06T06:37:07Z</time>
      </trkpt>
      <trkpt lat="40.7404680" lon="-2.0815360">
        <ele>992.6</ele>
        <time>2019-07-06T06:37:09Z</time>
      </trkpt>
      <trkpt lat="40.7405160" lon="-2.0815280">
        <ele>992.8</ele>
        <time>2019-07-06T06:37:10Z</time>
      </trkpt>
      <trkpt lat="40.7406170" lon="-2.0815260">
        <ele>993.4</ele>
        <time>2019-07-06T06:37:12Z</time>
      </trkpt>
      <trkpt lat="40.7407130" lon="-2.0815280">
        <ele>993.4</ele>
        <time>2019-07-06T06:37:14Z</time>
      </trkpt>
      <trkpt lat="40.7407620" lon="-2.0815300">
        <ele>993.4</ele>
        <time>2019-07-06T06:37:15Z</time>
      </trkpt>
      <trkpt lat="40.7408160" lon="-2.0815250">
        <ele>993.4</ele>
        <time>2019-07-06T06:37:16Z</time>
      </trkpt>
      <trkpt lat="40.7409790" lon="-2.0815480">
        <ele>993.4</ele>
        <time>2019-07-06T06:37:19Z</time>
      </trkpt>
      <trkpt lat="40.7410310" lon="-2.0815680">
        <ele>993.4</ele>
        <time>2019-07-06T06:37:20Z</time>
      </trkpt>
      <trkpt lat="40.7410830" lon="-2.0815890">
        <ele>993.6</ele>
        <time>2019-07-06T06:37:21Z</time>
      </trkpt>
      <trkpt lat="40.7412650" lon="-2.0817020">
        <ele>994.4</ele>
        <time>2019-07-06T06:37:25Z</time>
      </trkpt>
      <trkpt lat="40.7413090" lon="-2.0817370">
        <ele>994.8</ele>
        <time>2019-07-06T06:37:26Z</time>
      </trkpt>
      <trkpt lat="40.7413550" lon="-2.0817770">
        <ele>995.0</ele>
        <time>2019-07-06T06:37:27Z</time>
      </trkpt>
      <trkpt lat="40.7414460" lon="-2.0818810">
        <ele>995.0</ele>
        <time>2019-07-06T06:37:29Z</time>
      </trkpt>
      <trkpt lat="40.7416270" lon="-2.0821450">
        <ele>993.4</ele>
        <time>2019-07-06T06:37:33Z</time>
      </trkpt>
      <trkpt lat="40.7416650" lon="-2.0822170">
        <ele>993.2</ele>
        <time>2019-07-06T06:37:34Z</time>
      </trkpt>
      <trkpt lat="40.7417260" lon="-2.0823730">
        <ele>992.6</ele>
        <time>2019-07-06T06:37:36Z</time>
      </trkpt>
      <trkpt lat="40.7417550" lon="-2.0825230">
        <ele>992.2</ele>
        <time>2019-07-06T06:37:38Z</time>
      </trkpt>
      <trkpt lat="40.7417360" lon="-2.0826720">
        <ele>991.8</ele>
        <time>2019-07-06T06:37:40Z</time>
      </trkpt>
      <trkpt lat="40.7417090" lon="-2.0827380">
        <ele>991.6</ele>
        <time>2019-07-06T06:37:41Z</time>
      </trkpt>
      <trkpt lat="40.7415460" lon="-2.0829750">
        <ele>991.0</ele>
        <time>2019-07-06T06:37:45Z</time>
      </trkpt>
      <trkpt lat="40.7414970" lon="-2.0830350">
        <ele>990.8</ele>
        <time>2019-07-06T06:37:46Z</time>
      </trkpt>
      <trkpt lat="40.7413990" lon="-2.0831480">
        <ele>990.4</ele>
        <time>2019-07-06T06:37:48Z</time>
      </trkpt>
      <trkpt lat="40.7412500" lon="-2.0833240">
        <ele>990.0</ele>
        <time>2019-07-06T06:37:51Z</time>
      </trkpt>
      <trkpt lat="40.7411200" lon="-2.0835310">
        <ele>989.6</ele>
        <time>2019-07-06T06:37:54Z</time>
      </trkpt>
      <trkpt lat="40.7410460" lon="-2.0836740">
        <ele>989.4</ele>
        <time>2019-07-06T06:37:56Z</time>
      </trkpt>
      <trkpt lat="40.7410100" lon="-2.0837470">
        <ele>989.4</ele>
        <time>2019-07-06T06:37:57Z</time>
      </trkpt>
      <trkpt lat="40.7409120" lon="-2.0839600">
        <ele>989.4</ele>
        <time>2019-07-06T06:38:00Z</time>
      </trkpt>
      <trkpt lat="40.7408460" lon="-2.0841070">
        <ele>989.4</ele>
        <time>2019-07-06T06:38:02Z</time>
      </trkpt>
      <trkpt lat="40.7407590" lon="-2.0843240">
        <ele>989.2</ele>
        <time>2019-07-06T06:38:05Z</time>
      </trkpt>
      <trkpt lat="40.7406980" lon="-2.0844620">
        <ele>989.2</ele>
        <time>2019-07-06T06:38:07Z</time>
      </trkpt>
      <trkpt lat="40.7406680" lon="-2.0845310">
        <ele>989.2</ele>
        <time>2019-07-06T06:38:08Z</time>
      </trkpt>
      <trkpt lat="40.7405670" lon="-2.0848150">
        <ele>989.2</ele>
        <time>2019-07-06T06:38:12Z</time>
      </trkpt>
      <trkpt lat="40.7404630" lon="-2.0851070">
        <ele>989.0</ele>
        <time>2019-07-06T06:38:16Z</time>
      </trkpt>
      <trkpt lat="40.7404370" lon="-2.0851820">
        <ele>989.0</ele>
        <time>2019-07-06T06:38:17Z</time>
      </trkpt>
      <trkpt lat="40.7403120" lon="-2.0855490">
        <ele>988.6</ele>
        <time>2019-07-06T06:38:22Z</time>
      </trkpt>
      <trkpt lat="40.7402120" lon="-2.0857900">
        <ele>988.8</ele>
        <time>2019-07-06T06:38:26Z</time>
      </trkpt>
      <trkpt lat="40.7401880" lon="-2.0858540">
        <ele>989.0</ele>
        <time>2019-07-06T06:38:27Z</time>
      </trkpt>
      <trkpt lat="40.7401300" lon="-2.0860660">
        <ele>989.0</ele>
        <time>2019-07-06T06:38:30Z</time>
      </trkpt>
      <trkpt lat="40.7401150" lon="-2.0861380">
        <ele>989.2</ele>
        <time>2019-07-06T06:38:31Z</time>
      </trkpt>
      <trkpt lat="40.7400920" lon="-2.0862680">
        <ele>989.6</ele>
        <time>2019-07-06T06:38:33Z</time>
      </trkpt>
      <trkpt lat="40.7400730" lon="-2.0864290">
        <ele>990.8</ele>
        <time>2019-07-06T06:38:36Z</time>
      </trkpt>
      <trkpt lat="40.7400400" lon="-2.0865890">
        <ele>992.0</ele>
        <time>2019-07-06T06:38:39Z</time>
      </trkpt>
      <trkpt lat="40.7400180" lon="-2.0867040">
        <ele>992.2</ele>
        <time>2019-07-06T06:38:41Z</time>
      </trkpt>
      <trkpt lat="40.7400080" lon="-2.0867650">
        <ele>992.2</ele>
        <time>2019-07-06T06:38:42Z</time>
      </trkpt>
      <trkpt lat="40.7399850" lon="-2.0870230">
        <ele>992.4</ele>
        <time>2019-07-06T06:38:46Z</time>
      </trkpt>
      <trkpt lat="40.7399900" lon="-2.0871530">
        <ele>992.4</ele>
        <time>2019-07-06T06:38:48Z</time>
      </trkpt>
      <trkpt lat="40.7400000" lon="-2.0872890">
        <ele>992.2</ele>
        <time>2019-07-06T06:38:50Z</time>
      </trkpt>
      <trkpt lat="40.7400370" lon="-2.0874850">
        <ele>992.4</ele>
        <time>2019-07-06T06:38:53Z</time>
      </trkpt>
      <trkpt lat="40.7400930" lon="-2.0876860">
        <ele>993.0</ele>
        <time>2019-07-06T06:38:56Z</time>
      </trkpt>
      <trkpt lat="40.7401500" lon="-2.0878370">
        <ele>992.2</ele>
        <time>2019-07-06T06:38:58Z</time>
      </trkpt>
      <trkpt lat="40.7402270" lon="-2.0880000">
        <ele>991.6</ele>
        <time>2019-07-06T06:39:00Z</time>
      </trkpt>
      <trkpt lat="40.7402730" lon="-2.0880820">
        <ele>991.2</ele>
        <time>2019-07-06T06:39:01Z</time>
      </trkpt>
      <trkpt lat="40.7403250" lon="-2.0881600">
        <ele>990.8</ele>
        <time>2019-07-06T06:39:02Z</time>
      </trkpt>
      <trkpt lat="40.7404990" lon="-2.0883720">
        <ele>989.6</ele>
        <time>2019-07-06T06:39:05Z</time>
      </trkpt>
      <trkpt lat="40.7406240" lon="-2.0884940">
        <ele>988.8</ele>
        <time>2019-07-06T06:39:07Z</time>
      </trkpt>
      <trkpt lat="40.7406890" lon="-2.0885460">
        <ele>988.8</ele>
        <time>2019-07-06T06:39:08Z</time>
      </trkpt>
      <trkpt lat="40.7407510" lon="-2.0885940">
        <ele>988.4</ele>
        <time>2019-07-06T06:39:09Z</time>
      </trkpt>
      <trkpt lat="40.7408720" lon="-2.0886910">
        <ele>988.0</ele>
        <time>2019-07-06T06:39:11Z</time>
      </trkpt>
      <trkpt lat="40.7409310" lon="-2.0887320">
        <ele>987.8</ele>
        <time>2019-07-06T06:39:12Z</time>
      </trkpt>
      <trkpt lat="40.7411740" lon="-2.0888640">
        <ele>987.6</ele>
        <time>2019-07-06T06:39:16Z</time>
      </trkpt>
      <trkpt lat="40.7413410" lon="-2.0889490">
        <ele>987.4</ele>
        <time>2019-07-06T06:39:19Z</time>
      </trkpt>
      <trkpt lat="40.7415500" lon="-2.0890330">
        <ele>987.8</ele>
        <time>2019-07-06T06:39:23Z</time>
      </trkpt>
      <trkpt lat="40.7416630" lon="-2.0890440">
        <ele>987.8</ele>
        <time>2019-07-06T06:39:25Z</time>
      </trkpt>
      <trkpt lat="40.7417610" lon="-2.0890490">
        <ele>987.8</ele>
        <time>2019-07-06T06:39:27Z</time>
      </trkpt>
      <trkpt lat="40.7419320" lon="-2.0890590">
        <ele>987.6</ele>
        <time>2019-07-06T06:39:30Z</time>
      </trkpt>
      <trkpt lat="40.7420410" lon="-2.0890650">
        <ele>987.4</ele>
        <time>2019-07-06T06:39:32Z</time>
      </trkpt>
      <trkpt lat="40.7423160" lon="-2.0890790">
        <ele>987.4</ele>
        <time>2019-07-06T06:39:37Z</time>
      </trkpt>
      <trkpt lat="40.7424320" lon="-2.0890760">
        <ele>988.2</ele>
        <time>2019-07-06T06:39:40Z</time>
      </trkpt>
      <trkpt lat="40.7424680" lon="-2.0890810">
        <ele>988.4</ele>
        <time>2019-07-06T06:39:41Z</time>
      </trkpt>
      <trkpt lat="40.7425450" lon="-2.0890870">
        <ele>988.8</ele>
        <time>2019-07-06T06:39:43Z</time>
      </trkpt>
      <trkpt lat="40.7426710" lon="-2.0891070">
        <ele>989.0</ele>
        <time>2019-07-06T06:39:46Z</time>
      </trkpt>
      <trkpt lat="40.7427840" lon="-2.0891500">
        <ele>990.0</ele>
        <time>2019-07-06T06:39:49Z</time>
      </trkpt>
      <trkpt lat="40.7428510" lon="-2.0891860">
        <ele>990.4</ele>
        <time>2019-07-06T06:39:51Z</time>
      </trkpt>
      <trkpt lat="40.7429300" lon="-2.0892280">
        <ele>991.2</ele>
        <time>2019-07-06T06:39:53Z</time>
      </trkpt>
      <trkpt lat="40.7430080" lon="-2.0892720">
        <ele>991.2</ele>
        <time>2019-07-06T06:39:55Z</time>
      </trkpt>
      <trkpt lat="40.7430510" lon="-2.0892880">
        <ele>991.2</ele>
        <time>2019-07-06T06:39:56Z</time>
      </trkpt>
      <trkpt lat="40.7432810" lon="-2.0893670">
        <ele>991.2</ele>
        <time>2019-07-06T06:40:01Z</time>
      </trkpt>
      <trkpt lat="40.7435310" lon="-2.0894590">
        <ele>990.8</ele>
        <time>2019-07-06T06:40:06Z</time>
      </trkpt>
      <trkpt lat="40.7435860" lon="-2.0894870">
        <ele>990.8</ele>
        <time>2019-07-06T06:40:07Z</time>
      </trkpt>
      <trkpt lat="40.7437120" lon="-2.0895320">
        <ele>990.0</ele>
        <time>2019-07-06T06:40:09Z</time>
      </trkpt>
      <trkpt lat="40.7437740" lon="-2.0895550">
        <ele>989.8</ele>
        <time>2019-07-06T06:40:10Z</time>
      </trkpt>
      <trkpt lat="40.7440950" lon="-2.0896840">
        <ele>989.0</ele>
        <time>2019-07-06T06:40:15Z</time>
      </trkpt>
      <trkpt lat="40.7443670" lon="-2.0898110">
        <ele>987.8</ele>
        <time>2019-07-06T06:40:19Z</time>
      </trkpt>
      <trkpt lat="40.7444970" lon="-2.0898740">
        <ele>986.6</ele>
        <time>2019-07-06T06:40:21Z</time>
      </trkpt>
      <trkpt lat="40.7445570" lon="-2.0899090">
        <ele>986.4</ele>
        <time>2019-07-06T06:40:22Z</time>
      </trkpt>
      <trkpt lat="40.7446100" lon="-2.0899410">
        <ele>986.2</ele>
        <time>2019-07-06T06:40:23Z</time>
      </trkpt>
      <trkpt lat="40.7446620" lon="-2.0899770">
        <ele>986.2</ele>
        <time>2019-07-06T06:40:24Z</time>
      </trkpt>
      <trkpt lat="40.7448210" lon="-2.0900850">
        <ele>986.2</ele>
        <time>2019-07-06T06:40:27Z</time>
      </trkpt>
      <trkpt lat="40.7448790" lon="-2.0901180">
        <ele>986.2</ele>
        <time>2019-07-06T06:40:28Z</time>
      </trkpt>
      <trkpt lat="40.7450400" lon="-2.0902060">
        <ele>986.0</ele>
        <time>2019-07-06T06:40:31Z</time>
      </trkpt>
      <trkpt lat="40.7451450" lon="-2.0902610">
        <ele>985.8</ele>
        <time>2019-07-06T06:40:33Z</time>
      </trkpt>
      <trkpt lat="40.7453350" lon="-2.0903680">
        <ele>986.0</ele>
        <time>2019-07-06T06:40:37Z</time>
      </trkpt>
      <trkpt lat="40.7454200" lon="-2.0904130">
        <ele>986.4</ele>
        <time>2019-07-06T06:40:39Z</time>
      </trkpt>
      <trkpt lat="40.7456600" lon="-2.0905020">
        <ele>987.6</ele>
        <time>2019-07-06T06:40:45Z</time>
      </trkpt>
      <trkpt lat="40.7458130" lon="-2.0905890">
        <ele>988.4</ele>
        <time>2019-07-06T06:40:49Z</time>
      </trkpt>
      <trkpt lat="40.7458570" lon="-2.0906090">
        <ele>988.4</ele>
        <time>2019-07-06T06:40:50Z</time>
      </trkpt>
      <trkpt lat="40.7459380" lon="-2.0906580">
        <ele>988.6</ele>
        <time>2019-07-06T06:40:52Z</time>
      </trkpt>
      <trkpt lat="40.7459840" lon="-2.0906840">
        <ele>988.8</ele>
        <time>2019-07-06T06:40:53Z</time>
      </trkpt>
      <trkpt lat="40.7460830" lon="-2.0907340">
        <ele>988.8</ele>
        <time>2019-07-06T06:40:55Z</time>
      </trkpt>
      <trkpt lat="40.7463530" lon="-2.0908960">
        <ele>989.0</ele>
        <time>2019-07-06T06:41:01Z</time>
      </trkpt>
      <trkpt lat="40.7463980" lon="-2.0909210">
        <ele>989.0</ele>
        <time>2019-07-06T06:41:02Z</time>
      </trkpt>
      <trkpt lat="40.7464390" lon="-2.0909500">
        <ele>988.8</ele>
        <time>2019-07-06T06:41:03Z</time>
      </trkpt>
      <trkpt lat="40.7465280" lon="-2.0910100">
        <ele>988.6</ele>
        <time>2019-07-06T06:41:05Z</time>
      </trkpt>
      <trkpt lat="40.7466270" lon="-2.0910770">
        <ele>988.6</ele>
        <time>2019-07-06T06:41:07Z</time>
      </trkpt>
      <trkpt lat="40.7469050" lon="-2.0912520">
        <ele>988.2</ele>
        <time>2019-07-06T06:41:12Z</time>
      </trkpt>
      <trkpt lat="40.7471710" lon="-2.0914120">
        <ele>987.8</ele>
        <time>2019-07-06T06:41:17Z</time>
      </trkpt>
      <trkpt lat="40.7474030" lon="-2.0915490">
        <ele>987.6</ele>
        <time>2019-07-06T06:41:21Z</time>
      </trkpt>
      <trkpt lat="40.7474550" lon="-2.0915770">
        <ele>987.8</ele>
        <time>2019-07-06T06:41:22Z</time>
      </trkpt>
      <trkpt lat="40.7475030" lon="-2.0915980">
        <ele>987.8</ele>
        <time>2019-07-06T06:41:23Z</time>
      </trkpt>
      <trkpt lat="40.7476740" lon="-2.0916310">
        <ele>987.6</ele>
        <time>2019-07-06T06:41:26Z</time>
      </trkpt>
      <trkpt lat="40.7478510" lon="-2.0916110">
        <ele>987.6</ele>
        <time>2019-07-06T06:41:29Z</time>
      </trkpt>
      <trkpt lat="40.7479080" lon="-2.0915890">
        <ele>987.4</ele>
        <time>2019-07-06T06:41:30Z</time>
      </trkpt>
      <trkpt lat="40.7480500" lon="-2.0914870">
        <ele>987.4</ele>
        <time>2019-07-06T06:41:33Z</time>
      </trkpt>
      <trkpt lat="40.7480930" lon="-2.0914470">
        <ele>987.4</ele>
        <time>2019-07-06T06:41:34Z</time>
      </trkpt>
      <trkpt lat="40.7481990" lon="-2.0913380">
        <ele>987.8</ele>
        <time>2019-07-06T06:41:37Z</time>
      </trkpt>
      <trkpt lat="40.7482460" lon="-2.0912650">
        <ele>988.6</ele>
        <time>2019-07-06T06:41:39Z</time>
      </trkpt>
      <trkpt lat="40.7483080" lon="-2.0911340">
        <ele>989.2</ele>
        <time>2019-07-06T06:41:42Z</time>
      </trkpt>
      <trkpt lat="40.7483270" lon="-2.0910860">
        <ele>989.6</ele>
        <time>2019-07-06T06:41:43Z</time>
      </trkpt>
      <trkpt lat="40.7483360" lon="-2.0910420">
        <ele>989.8</ele>
        <time>2019-07-06T06:41:44Z</time>
      </trkpt>
      <trkpt lat="40.7483480" lon="-2.0908590">
        <ele>990.8</ele>
        <time>2019-07-06T06:41:48Z</time>
      </trkpt>
      <trkpt lat="40.7483480" lon="-2.0907410">
        <ele>991.0</ele>
        <time>2019-07-06T06:41:50Z</time>
      </trkpt>
      <trkpt lat="40.7482720" lon="-2.0904700">
        <ele>991.0</ele>
        <time>2019-07-06T06:41:55Z</time>
      </trkpt>
      <trkpt lat="40.7482230" lon="-2.0903790">
        <ele>991.2</ele>
        <time>2019-07-06T06:41:57Z</time>
      </trkpt>
      <trkpt lat="40.7481310" lon="-2.0902560">
        <ele>991.2</ele>
        <time>2019-07-06T06:42:00Z</time>
      </trkpt>
      <trkpt lat="40.7480210" lon="-2.0901500">
        <ele>991.4</ele>
        <time>2019-07-06T06:42:03Z</time>
      </trkpt>
      <trkpt lat="40.7479310" lon="-2.0901070">
        <ele>991.8</ele>
        <time>2019-07-06T06:42:05Z</time>
      </trkpt>
      <trkpt lat="40.7478890" lon="-2.0900840">
        <ele>991.8</ele>
        <time>2019-07-06T06:42:06Z</time>
      </trkpt>
      <trkpt lat="40.7477500" lon="-2.0900630">
        <ele>992.2</ele>
        <time>2019-07-06T06:42:09Z</time>
      </trkpt>
      <trkpt lat="40.7476660" lon="-2.0900200">
        <ele>992.2</ele>
        <time>2019-07-06T06:42:11Z</time>
      </trkpt>
      <trkpt lat="40.7475990" lon="-2.0899360">
        <ele>992.0</ele>
        <time>2019-07-06T06:42:13Z</time>
      </trkpt>
      <trkpt lat="40.7474840" lon="-2.0898120">
        <ele>991.8</ele>
        <time>2019-07-06T06:42:16Z</time>
      </trkpt>
      <trkpt lat="40.7473100" lon="-2.0895150">
        <ele>992.2</ele>
        <time>2019-07-06T06:42:21Z</time>
      </trkpt>
      <trkpt lat="40.7472640" lon="-2.0893810">
        <ele>992.0</ele>
        <time>2019-07-06T06:42:23Z</time>
      </trkpt>
      <trkpt lat="40.7472240" lon="-2.0892470">
        <ele>991.8</ele>
        <time>2019-07-06T06:42:25Z</time>
      </trkpt>
      <trkpt lat="40.7472010" lon="-2.0891850">
        <ele>991.8</ele>
        <time>2019-07-06T06:42:26Z</time>
      </trkpt>
      <trkpt lat="40.7471310" lon="-2.0890020">
        <ele>991.4</ele>
        <time>2019-07-06T06:42:29Z</time>
      </trkpt>
      <trkpt lat="40.7470880" lon="-2.0888720">
        <ele>991.0</ele>
        <time>2019-07-06T06:42:31Z</time>
      </trkpt>
      <trkpt lat="40.7470470" lon="-2.0887400">
        <ele>990.6</ele>
        <time>2019-07-06T06:42:33Z</time>
      </trkpt>
      <trkpt lat="40.7470300" lon="-2.0886720">
        <ele>990.6</ele>
        <time>2019-07-06T06:42:34Z</time>
      </trkpt>
      <trkpt lat="40.7469790" lon="-2.0883130">
        <ele>990.0</ele>
        <time>2019-07-06T06:42:39Z</time>
      </trkpt>
      <trkpt lat="40.7469780" lon="-2.0882390">
        <ele>990.0</ele>
        <time>2019-07-06T06:42:40Z</time>
      </trkpt>
      <trkpt lat="40.7469760" lon="-2.0880900">
        <ele>989.8</ele>
        <time>2019-07-06T06:42:42Z</time>
      </trkpt>
      <trkpt lat="40.7469810" lon="-2.0880130">
        <ele>989.6</ele>
        <time>2019-07-06T06:42:43Z</time>
      </trkpt>
      <trkpt lat="40.7470030" lon="-2.0878560">
        <ele>989.4</ele>
        <time>2019-07-06T06:42:45Z</time>
      </trkpt>
      <trkpt lat="40.7470530" lon="-2.0876000">
        <ele>988.8</ele>
        <time>2019-07-06T06:42:48Z</time>
      </trkpt>
      <trkpt lat="40.7470790" lon="-2.0875170">
        <ele>988.4</ele>
        <time>2019-07-06T06:42:49Z</time>
      </trkpt>
      <trkpt lat="40.7472630" lon="-2.0871610">
        <ele>987.8</ele>
        <time>2019-07-06T06:42:54Z</time>
      </trkpt>
      <trkpt lat="40.7473040" lon="-2.0871100">
        <ele>987.6</ele>
        <time>2019-07-06T06:42:55Z</time>
      </trkpt>
      <trkpt lat="40.7473910" lon="-2.0870330">
        <ele>987.4</ele>
        <time>2019-07-06T06:42:57Z</time>
      </trkpt>
      <trkpt lat="40.7474350" lon="-2.0870050">
        <ele>987.4</ele>
        <time>2019-07-06T06:42:58Z</time>
      </trkpt>
      <trkpt lat="40.7475640" lon="-2.0869090">
        <ele>987.4</ele>
        <time>2019-07-06T06:43:01Z</time>
      </trkpt>
      <trkpt lat="40.7476100" lon="-2.0868820">
        <ele>987.6</ele>
        <time>2019-07-06T06:43:02Z</time>
      </trkpt>
      <trkpt lat="40.7477140" lon="-2.0868370">
        <ele>987.8</ele>
        <time>2019-07-06T06:43:04Z</time>
      </trkpt>
      <trkpt lat="40.7479390" lon="-2.0867370">
        <ele>988.0</ele>
        <time>2019-07-06T06:43:08Z</time>
      </trkpt>
      <trkpt lat="40.7479970" lon="-2.0867140">
        <ele>988.0</ele>
        <time>2019-07-06T06:43:09Z</time>
      </trkpt>
      <trkpt lat="40.7481050" lon="-2.0866680">
        <ele>988.0</ele>
        <time>2019-07-06T06:43:11Z</time>
      </trkpt>
      <trkpt lat="40.7482210" lon="-2.0866400">
        <ele>987.8</ele>
        <time>2019-07-06T06:43:13Z</time>
      </trkpt>
      <trkpt lat="40.7486070" lon="-2.0866220">
        <ele>987.2</ele>
        <time>2019-07-06T06:43:19Z</time>
      </trkpt>
      <trkpt lat="40.7486790" lon="-2.0866250">
        <ele>986.8</ele>
        <time>2019-07-06T06:43:20Z</time>
      </trkpt>
      <trkpt lat="40.7487540" lon="-2.0866360">
        <ele>986.0</ele>
        <time>2019-07-06T06:43:21Z</time>
      </trkpt>
      <trkpt lat="40.7489020" lon="-2.0866750">
        <ele>985.8</ele>
        <time>2019-07-06T06:43:23Z</time>
      </trkpt>
      <trkpt lat="40.7490350" lon="-2.0867310">
        <ele>985.2</ele>
        <time>2019-07-06T06:43:25Z</time>
      </trkpt>
      <trkpt lat="40.7491610" lon="-2.0867990">
        <ele>985.0</ele>
        <time>2019-07-06T06:43:27Z</time>
      </trkpt>
      <trkpt lat="40.7494490" lon="-2.0869570">
        <ele>985.2</ele>
        <time>2019-07-06T06:43:32Z</time>
      </trkpt>
      <trkpt lat="40.7495020" lon="-2.0869860">
        <ele>985.2</ele>
        <time>2019-07-06T06:43:33Z</time>
      </trkpt>
      <trkpt lat="40.7496050" lon="-2.0870440">
        <ele>985.6</ele>
        <time>2019-07-06T06:43:35Z</time>
      </trkpt>
      <trkpt lat="40.7497920" lon="-2.0871450">
        <ele>985.6</ele>
        <time>2019-07-06T06:43:39Z</time>
      </trkpt>
      <trkpt lat="40.7500110" lon="-2.0872360">
        <ele>985.2</ele>
        <time>2019-07-06T06:43:43Z</time>
      </trkpt>
      <trkpt lat="40.7501230" lon="-2.0872830">
        <ele>985.0</ele>
        <time>2019-07-06T06:43:45Z</time>
      </trkpt>
      <trkpt lat="40.7502870" lon="-2.0874080">
        <ele>985.0</ele>
        <time>2019-07-06T06:43:48Z</time>
      </trkpt>
      <trkpt lat="40.7503790" lon="-2.0874900">
        <ele>985.2</ele>
        <time>2019-07-06T06:43:50Z</time>
      </trkpt>
      <trkpt lat="40.7504370" lon="-2.0875300">
        <ele>985.2</ele>
        <time>2019-07-06T06:43:51Z</time>
      </trkpt>
      <trkpt lat="40.7507090" lon="-2.0877470">
        <ele>984.8</ele>
        <time>2019-07-06T06:43:56Z</time>
      </trkpt>
      <trkpt lat="40.7507580" lon="-2.0877890">
        <ele>984.8</ele>
        <time>2019-07-06T06:43:57Z</time>
      </trkpt>
      <trkpt lat="40.7508890" lon="-2.0879430">
        <ele>984.8</ele>
        <time>2019-07-06T06:44:00Z</time>
      </trkpt>
      <trkpt lat="40.7509380" lon="-2.0879910">
        <ele>984.8</ele>
        <time>2019-07-06T06:44:01Z</time>
      </trkpt>
      <trkpt lat="40.7510290" lon="-2.0880970">
        <ele>984.8</ele>
        <time>2019-07-06T06:44:03Z</time>
      </trkpt>
      <trkpt lat="40.7512990" lon="-2.0884200">
        <ele>985.0</ele>
        <time>2019-07-06T06:44:09Z</time>
      </trkpt>
      <trkpt lat="40.7515490" lon="-2.0886800">
        <ele>985.2</ele>
        <time>2019-07-06T06:44:14Z</time>
      </trkpt>
      <trkpt lat="40.7516000" lon="-2.0887320">
        <ele>985.2</ele>
        <time>2019-07-06T06:44:15Z</time>
      </trkpt>
      <trkpt lat="40.7517070" lon="-2.0888350">
        <ele>985.0</ele>
        <time>2019-07-06T06:44:17Z</time>
      </trkpt>
      <trkpt lat="40.7519050" lon="-2.0890330">
        <ele>985.2</ele>
        <time>2019-07-06T06:44:21Z</time>
      </trkpt>
      <trkpt lat="40.7521260" lon="-2.0892610">
        <ele>985.8</ele>
        <time>2019-07-06T06:44:26Z</time>
      </trkpt>
      <trkpt lat="40.7521690" lon="-2.0893010">
        <ele>985.8</ele>
        <time>2019-07-06T06:44:27Z</time>
      </trkpt>
      <trkpt lat="40.7523430" lon="-2.0894900">
        <ele>986.2</ele>
        <time>2019-07-06T06:44:31Z</time>
      </trkpt>
      <trkpt lat="40.7524430" lon="-2.0895880">
        <ele>986.4</ele>
        <time>2019-07-06T06:44:33Z</time>
      </trkpt>
      <trkpt lat="40.7527200" lon="-2.0898480">
        <ele>985.8</ele>
        <time>2019-07-06T06:44:38Z</time>
      </trkpt>
      <trkpt lat="40.7527830" lon="-2.0898980">
        <ele>985.4</ele>
        <time>2019-07-06T06:44:39Z</time>
      </trkpt>
      <trkpt lat="40.7529140" lon="-2.0899920">
        <ele>984.6</ele>
        <time>2019-07-06T06:44:41Z</time>
      </trkpt>
      <trkpt lat="40.7530470" lon="-2.0900890">
        <ele>983.6</ele>
        <time>2019-07-06T06:44:43Z</time>
      </trkpt>
      <trkpt lat="40.7531750" lon="-2.0901820">
        <ele>982.8</ele>
        <time>2019-07-06T06:44:45Z</time>
      </trkpt>
      <trkpt lat="40.7532400" lon="-2.0902270">
        <ele>982.6</ele>
        <time>2019-07-06T06:44:46Z</time>
      </trkpt>
      <trkpt lat="40.7534840" lon="-2.0903950">
        <ele>982.2</ele>
        <time>2019-07-06T06:44:50Z</time>
      </trkpt>
      <trkpt lat="40.7537230" lon="-2.0904790">
        <ele>982.6</ele>
        <time>2019-07-06T06:44:54Z</time>
      </trkpt>
      <trkpt lat="40.7537710" lon="-2.0904880">
        <ele>982.8</ele>
        <time>2019-07-06T06:44:55Z</time>
      </trkpt>
      <trkpt lat="40.7538610" lon="-2.0904910">
        <ele>983.2</ele>
        <time>2019-07-06T06:44:57Z</time>
      </trkpt>
      <trkpt lat="40.7539010" lon="-2.0904940">
        <ele>983.6</ele>
        <time>2019-07-06T06:44:58Z</time>
      </trkpt>
      <trkpt lat="40.7539370" lon="-2.0904900">
        <ele>983.8</ele>
        <time>2019-07-06T06:44:59Z</time>
      </trkpt>
      <trkpt lat="40.7540740" lon="-2.0904870">
        <ele>985.0</ele>
        <time>2019-07-06T06:45:03Z</time>
      </trkpt>
      <trkpt lat="40.7541110" lon="-2.0905000">
        <ele>985.2</ele>
        <time>2019-07-06T06:45:04Z</time>
      </trkpt>
      <trkpt lat="40.7541940" lon="-2.0905920">
        <ele>985.8</ele>
        <time>2019-07-06T06:45:07Z</time>
      </trkpt>
      <trkpt lat="40.7542080" lon="-2.0906380">
        <ele>985.8</ele>
        <time>2019-07-06T06:45:08Z</time>
      </trkpt>
      <trkpt lat="40.7542140" lon="-2.0906880">
        <ele>986.2</ele>
        <time>2019-07-06T06:45:09Z</time>
      </trkpt>
      <trkpt lat="40.7542140" lon="-2.0907910">
        <ele>986.6</ele>
        <time>2019-07-06T06:45:11Z</time>
      </trkpt>
      <trkpt lat="40.7542050" lon="-2.0908920">
        <ele>987.4</ele>
        <time>2019-07-06T06:45:13Z</time>
      </trkpt>
      <trkpt lat="40.7541740" lon="-2.0910960">
        <ele>987.8</ele>
        <time>2019-07-06T06:45:17Z</time>
      </trkpt>
      <trkpt lat="40.7541570" lon="-2.0911900">
        <ele>988.2</ele>
        <time>2019-07-06T06:45:19Z</time>
      </trkpt>
      <trkpt lat="40.7541510" lon="-2.0912350">
        <ele>988.4</ele>
        <time>2019-07-06T06:45:20Z</time>
      </trkpt>
      <trkpt lat="40.7541150" lon="-2.0914210">
        <ele>989.4</ele>
        <time>2019-07-06T06:45:24Z</time>
      </trkpt>
      <trkpt lat="40.7541070" lon="-2.0914650">
        <ele>989.4</ele>
        <time>2019-07-06T06:45:25Z</time>
      </trkpt>
      <trkpt lat="40.7540620" lon="-2.0916890">
        <ele>990.6</ele>
        <time>2019-07-06T06:45:30Z</time>
      </trkpt>
      <trkpt lat="40.7540560" lon="-2.0917710">
        <ele>990.8</ele>
        <time>2019-07-06T06:45:32Z</time>
      </trkpt>
      <trkpt lat="40.7540510" lon="-2.0919240">
        <ele>991.6</ele>
        <time>2019-07-06T06:45:36Z</time>
      </trkpt>
      <trkpt lat="40.7540520" lon="-2.0919570">
        <ele>992.0</ele>
        <time>2019-07-06T06:45:37Z</time>
      </trkpt>
      <trkpt lat="40.7540810" lon="-2.0921030">
        <ele>992.8</ele>
        <time>2019-07-06T06:45:41Z</time>
      </trkpt>
      <trkpt lat="40.7540950" lon="-2.0921420">
        <ele>993.2</ele>
        <time>2019-07-06T06:45:42Z</time>
      </trkpt>
      <trkpt lat="40.7541660" lon="-2.0923350">
        <ele>994.2</ele>
        <time>2019-07-06T06:45:47Z</time>
      </trkpt>
      <trkpt lat="40.7541910" lon="-2.0923710">
        <ele>994.4</ele>
        <time>2019-07-06T06:45:48Z</time>
      </trkpt>
      <trkpt lat="40.7543160" lon="-2.0925050">
        <ele>994.6</ele>
        <time>2019-07-06T06:45:52Z</time>
      </trkpt>
      <trkpt lat="40.7543530" lon="-2.0925370">
        <ele>994.4</ele>
        <time>2019-07-06T06:45:53Z</time>
      </trkpt>
      <trkpt lat="40.7544720" lon="-2.0926270">
        <ele>994.0</ele>
        <time>2019-07-06T06:45:56Z</time>
      </trkpt>
      <trkpt lat="40.7545110" lon="-2.0926550">
        <ele>993.8</ele>
        <time>2019-07-06T06:45:57Z</time>
      </trkpt>
      <trkpt lat="40.7545520" lon="-2.0926820">
        <ele>993.6</ele>
        <time>2019-07-06T06:45:58Z</time>
      </trkpt>
      <trkpt lat="40.7545950" lon="-2.0927100">
        <ele>993.4</ele>
        <time>2019-07-06T06:45:59Z</time>
      </trkpt>
      <trkpt lat="40.7546410" lon="-2.0927440">
        <ele>993.2</ele>
        <time>2019-07-06T06:46:00Z</time>
      </trkpt>
      <trkpt lat="40.7547360" lon="-2.0928180">
        <ele>993.0</ele>
        <time>2019-07-06T06:46:02Z</time>
      </trkpt>
      <trkpt lat="40.7548380" lon="-2.0929050">
        <ele>992.2</ele>
        <time>2019-07-06T06:46:04Z</time>
      </trkpt>
      <trkpt lat="40.7548920" lon="-2.0929550">
        <ele>991.8</ele>
        <time>2019-07-06T06:46:05Z</time>
      </trkpt>
      <trkpt lat="40.7549510" lon="-2.0930020">
        <ele>991.6</ele>
        <time>2019-07-06T06:46:06Z</time>
      </trkpt>
      <trkpt lat="40.7550140" lon="-2.0930460">
        <ele>991.2</ele>
        <time>2019-07-06T06:46:07Z</time>
      </trkpt>
      <trkpt lat="40.7550790" lon="-2.0930870">
        <ele>991.0</ele>
        <time>2019-07-06T06:46:08Z</time>
      </trkpt>
      <trkpt lat="40.7552030" lon="-2.0931550">
        <ele>990.2</ele>
        <time>2019-07-06T06:46:10Z</time>
      </trkpt>
      <trkpt lat="40.7553290" lon="-2.0932100">
        <ele>990.2</ele>
        <time>2019-07-06T06:46:12Z</time>
      </trkpt>
      <trkpt lat="40.7554480" lon="-2.0932480">
        <ele>990.0</ele>
        <time>2019-07-06T06:46:14Z</time>
      </trkpt>
      <trkpt lat="40.7555020" lon="-2.0932620">
        <ele>989.8</ele>
        <time>2019-07-06T06:46:15Z</time>
      </trkpt>
      <trkpt lat="40.7555800" lon="-2.0932990">
        <ele>989.6</ele>
        <time>2019-07-06T06:46:17Z</time>
      </trkpt>
      <trkpt lat="40.7556030" lon="-2.0933270">
        <ele>989.4</ele>
        <time>2019-07-06T06:46:18Z</time>
      </trkpt>
      <trkpt lat="40.7556210" lon="-2.0934220">
        <ele>989.2</ele>
        <time>2019-07-06T06:46:20Z</time>
      </trkpt>
      <trkpt lat="40.7555950" lon="-2.0935460">
        <ele>988.8</ele>
        <time>2019-07-06T06:46:22Z</time>
      </trkpt>
      <trkpt lat="40.7555790" lon="-2.0936160">
        <ele>988.6</ele>
        <time>2019-07-06T06:46:23Z</time>
      </trkpt>
      <trkpt lat="40.7555640" lon="-2.0936870">
        <ele>988.6</ele>
        <time>2019-07-06T06:46:24Z</time>
      </trkpt>
      <trkpt lat="40.7555180" lon="-2.0939000">
        <ele>988.2</ele>
        <time>2019-07-06T06:46:27Z</time>
      </trkpt>
      <trkpt lat="40.7554760" lon="-2.0940350">
        <ele>988.0</ele>
        <time>2019-07-06T06:46:29Z</time>
      </trkpt>
      <trkpt lat="40.7554660" lon="-2.0941040">
        <ele>988.0</ele>
        <time>2019-07-06T06:46:30Z</time>
      </trkpt>
      <trkpt lat="40.7554450" lon="-2.0943090">
        <ele>988.0</ele>
        <time>2019-07-06T06:46:33Z</time>
      </trkpt>
      <trkpt lat="40.7554400" lon="-2.0943670">
        <ele>988.2</ele>
        <time>2019-07-06T06:46:34Z</time>
      </trkpt>
      <trkpt lat="40.7554380" lon="-2.0944190">
        <ele>988.4</ele>
        <time>2019-07-06T06:46:35Z</time>
      </trkpt>
      <trkpt lat="40.7554340" lon="-2.0945200">
        <ele>988.8</ele>
        <time>2019-07-06T06:46:37Z</time>
      </trkpt>
      <trkpt lat="40.7554380" lon="-2.0946080">
        <ele>990.4</ele>
        <time>2019-07-06T06:46:39Z</time>
      </trkpt>
      <trkpt lat="40.7554490" lon="-2.0946930">
        <ele>991.4</ele>
        <time>2019-07-06T06:46:41Z</time>
      </trkpt>
      <trkpt lat="40.7554540" lon="-2.0947360">
        <ele>991.6</ele>
        <time>2019-07-06T06:46:42Z</time>
      </trkpt>
      <trkpt lat="40.7554740" lon="-2.0948210">
        <ele>992.2</ele>
        <time>2019-07-06T06:46:44Z</time>
      </trkpt>
      <trkpt lat="40.7555020" lon="-2.0949000">
        <ele>992.4</ele>
        <time>2019-07-06T06:46:46Z</time>
      </trkpt>
      <trkpt lat="40.7555190" lon="-2.0949420">
        <ele>992.6</ele>
        <time>2019-07-06T06:46:47Z</time>
      </trkpt>
      <trkpt lat="40.7555370" lon="-2.0949830">
        <ele>992.8</ele>
        <time>2019-07-06T06:46:48Z</time>
      </trkpt>
      <trkpt lat="40.7555770" lon="-2.0950610">
        <ele>993.4</ele>
        <time>2019-07-06T06:46:50Z</time>
      </trkpt>
      <trkpt lat="40.7556210" lon="-2.0951410">
        <ele>994.0</ele>
        <time>2019-07-06T06:46:52Z</time>
      </trkpt>
      <trkpt lat="40.7556630" lon="-2.0952100">
        <ele>994.8</ele>
        <time>2019-07-06T06:46:54Z</time>
      </trkpt>
      <trkpt lat="40.7556920" lon="-2.0952420">
        <ele>995.2</ele>
        <time>2019-07-06T06:46:55Z</time>
      </trkpt>
      <trkpt lat="40.7558120" lon="-2.0953400">
        <ele>996.0</ele>
        <time>2019-07-06T06:46:59Z</time>
      </trkpt>
      <trkpt lat="40.7558800" lon="-2.0953700">
        <ele>996.2</ele>
        <time>2019-07-06T06:47:01Z</time>
      </trkpt>
      <trkpt lat="40.7559810" lon="-2.0954130">
        <ele>996.2</ele>
        <time>2019-07-06T06:47:04Z</time>
      </trkpt>
      <trkpt lat="40.7561540" lon="-2.0954940">
        <ele>997.4</ele>
        <time>2019-07-06T06:47:09Z</time>
      </trkpt>
      <trkpt lat="40.7562200" lon="-2.0955220">
        <ele>997.8</ele>
        <time>2019-07-06T06:47:11Z</time>
      </trkpt>
      <trkpt lat="40.7562870" lon="-2.0955570">
        <ele>998.6</ele>
        <time>2019-07-06T06:47:13Z</time>
      </trkpt>
      <trkpt lat="40.7563390" lon="-2.0956130">
        <ele>999.4</ele>
        <time>2019-07-06T06:47:15Z</time>
      </trkpt>
      <trkpt lat="40.7563530" lon="-2.0956560">
        <ele>999.6</ele>
        <time>2019-07-06T06:47:16Z</time>
      </trkpt>
      <trkpt lat="40.7563270" lon="-2.0958650">
        <ele>999.8</ele>
        <time>2019-07-06T06:47:20Z</time>
      </trkpt>
      <trkpt lat="40.7562910" lon="-2.0959740">
        <ele>999.6</ele>
        <time>2019-07-06T06:47:22Z</time>
      </trkpt>
      <trkpt lat="40.7562410" lon="-2.0961710">
        <ele>999.0</ele>
        <time>2019-07-06T06:47:25Z</time>
      </trkpt>
      <trkpt lat="40.7562670" lon="-2.0963220">
        <ele>998.6</ele>
        <time>2019-07-06T06:47:27Z</time>
      </trkpt>
      <trkpt lat="40.7562680" lon="-2.0963910">
        <ele>998.4</ele>
        <time>2019-07-06T06:47:28Z</time>
      </trkpt>
      <trkpt lat="40.7562410" lon="-2.0966030">
        <ele>997.8</ele>
        <time>2019-07-06T06:47:31Z</time>
      </trkpt>
      <trkpt lat="40.7562330" lon="-2.0966830">
        <ele>997.4</ele>
        <time>2019-07-06T06:47:32Z</time>
      </trkpt>
      <trkpt lat="40.7562200" lon="-2.0968550">
        <ele>997.0</ele>
        <time>2019-07-06T06:47:34Z</time>
      </trkpt>
      <trkpt lat="40.7562080" lon="-2.0970330">
        <ele>996.6</ele>
        <time>2019-07-06T06:47:36Z</time>
      </trkpt>
      <trkpt lat="40.7562010" lon="-2.0971210">
        <ele>996.2</ele>
        <time>2019-07-06T06:47:37Z</time>
      </trkpt>
      <trkpt lat="40.7561960" lon="-2.0972130">
        <ele>995.6</ele>
        <time>2019-07-06T06:47:38Z</time>
      </trkpt>
      <trkpt lat="40.7561860" lon="-2.0973940">
        <ele>994.8</ele>
        <time>2019-07-06T06:47:40Z</time>
      </trkpt>
      <trkpt lat="40.7561780" lon="-2.0975620">
        <ele>993.2</ele>
        <time>2019-07-06T06:47:42Z</time>
      </trkpt>
      <trkpt lat="40.7561710" lon="-2.0977300">
        <ele>991.8</ele>
        <time>2019-07-06T06:47:44Z</time>
      </trkpt>
      <trkpt lat="40.7561490" lon="-2.0979190">
        <ele>990.8</ele>
        <time>2019-07-06T06:47:46Z</time>
      </trkpt>
      <trkpt lat="40.7561500" lon="-2.0981170">
        <ele>989.6</ele>
        <time>2019-07-06T06:47:48Z</time>
      </trkpt>
      <trkpt lat="40.7561540" lon="-2.0982970">
        <ele>988.0</ele>
        <time>2019-07-06T06:47:50Z</time>
      </trkpt>
      <trkpt lat="40.7561590" lon="-2.0984710">
        <ele>987.0</ele>
        <time>2019-07-06T06:47:52Z</time>
      </trkpt>
      <trkpt lat="40.7561640" lon="-2.0985640">
        <ele>986.2</ele>
        <time>2019-07-06T06:47:53Z</time>
      </trkpt>
      <trkpt lat="40.7561780" lon="-2.0986640">
        <ele>985.8</ele>
        <time>2019-07-06T06:47:54Z</time>
      </trkpt>
      <trkpt lat="40.7562310" lon="-2.0989840">
        <ele>984.4</ele>
        <time>2019-07-06T06:47:57Z</time>
      </trkpt>
      <trkpt lat="40.7562450" lon="-2.0990950">
        <ele>983.4</ele>
        <time>2019-07-06T06:47:58Z</time>
      </trkpt>
      <trkpt lat="40.7562540" lon="-2.0992140">
        <ele>982.8</ele>
        <time>2019-07-06T06:47:59Z</time>
      </trkpt>
      <trkpt lat="40.7562650" lon="-2.0994370">
        <ele>982.2</ele>
        <time>2019-07-06T06:48:01Z</time>
      </trkpt>
      <trkpt lat="40.7562970" lon="-2.0996300">
        <ele>981.8</ele>
        <time>2019-07-06T06:48:03Z</time>
      </trkpt>
      <trkpt lat="40.7563090" lon="-2.0998080">
        <ele>981.8</ele>
        <time>2019-07-06T06:48:05Z</time>
      </trkpt>
      <trkpt lat="40.7562980" lon="-2.0999760">
        <ele>981.8</ele>
        <time>2019-07-06T06:48:07Z</time>
      </trkpt>
      <trkpt lat="40.7562890" lon="-2.1000500">
        <ele>981.8</ele>
        <time>2019-07-06T06:48:08Z</time>
      </trkpt>
      <trkpt lat="40.7562690" lon="-2.1001920">
        <ele>981.4</ele>
        <time>2019-07-06T06:48:10Z</time>
      </trkpt>
      <trkpt lat="40.7562570" lon="-2.1002650">
        <ele>981.4</ele>
        <time>2019-07-06T06:48:11Z</time>
      </trkpt>
      <trkpt lat="40.7562360" lon="-2.1004040">
        <ele>981.6</ele>
        <time>2019-07-06T06:48:13Z</time>
      </trkpt>
      <trkpt lat="40.7562060" lon="-2.1005490">
        <ele>981.8</ele>
        <time>2019-07-06T06:48:15Z</time>
      </trkpt>
      <trkpt lat="40.7561700" lon="-2.1007590">
        <ele>982.0</ele>
        <time>2019-07-06T06:48:18Z</time>
      </trkpt>
      <trkpt lat="40.7561380" lon="-2.1008920">
        <ele>982.2</ele>
        <time>2019-07-06T06:48:20Z</time>
      </trkpt>
      <trkpt lat="40.7561050" lon="-2.1010210">
        <ele>982.4</ele>
        <time>2019-07-06T06:48:22Z</time>
      </trkpt>
      <trkpt lat="40.7560490" lon="-2.1012140">
        <ele>982.8</ele>
        <time>2019-07-06T06:48:25Z</time>
      </trkpt>
      <trkpt lat="40.7559760" lon="-2.1015020">
        <ele>982.4</ele>
        <time>2019-07-06T06:48:29Z</time>
      </trkpt>
      <trkpt lat="40.7558180" lon="-2.1020680">
        <ele>982.2</ele>
        <time>2019-07-06T06:48:37Z</time>
      </trkpt>
      <trkpt lat="40.7557630" lon="-2.1022840">
        <ele>982.2</ele>
        <time>2019-07-06T06:48:40Z</time>
      </trkpt>
      <trkpt lat="40.7557340" lon="-2.1024260">
        <ele>982.0</ele>
        <time>2019-07-06T06:48:42Z</time>
      </trkpt>
      <trkpt lat="40.7556790" lon="-2.1027150">
        <ele>982.4</ele>
        <time>2019-07-06T06:48:46Z</time>
      </trkpt>
      <trkpt lat="40.7556720" lon="-2.1027900">
        <ele>982.4</ele>
        <time>2019-07-06T06:48:47Z</time>
      </trkpt>
      <trkpt lat="40.7556640" lon="-2.1030230">
        <ele>982.0</ele>
        <time>2019-07-06T06:48:50Z</time>
      </trkpt>
      <trkpt lat="40.7556660" lon="-2.1030930">
        <ele>982.2</ele>
        <time>2019-07-06T06:48:51Z</time>
      </trkpt>
      <trkpt lat="40.7556760" lon="-2.1032310">
        <ele>982.0</ele>
        <time>2019-07-06T06:48:53Z</time>
      </trkpt>
      <trkpt lat="40.7557000" lon="-2.1033750">
        <ele>982.0</ele>
        <time>2019-07-06T06:48:55Z</time>
      </trkpt>
      <trkpt lat="40.7557150" lon="-2.1034550">
        <ele>982.0</ele>
        <time>2019-07-06T06:48:56Z</time>
      </trkpt>
      <trkpt lat="40.7557580" lon="-2.1036320">
        <ele>981.4</ele>
        <time>2019-07-06T06:48:58Z</time>
      </trkpt>
      <trkpt lat="40.7558250" lon="-2.1038150">
        <ele>980.8</ele>
        <time>2019-07-06T06:49:00Z</time>
      </trkpt>
      <trkpt lat="40.7558680" lon="-2.1039130">
        <ele>980.2</ele>
        <time>2019-07-06T06:49:01Z</time>
      </trkpt>
      <trkpt lat="40.7559930" lon="-2.1041670">
        <ele>979.2</ele>
        <time>2019-07-06T06:49:04Z</time>
      </trkpt>
      <trkpt lat="40.7560420" lon="-2.1042340">
        <ele>979.0</ele>
        <time>2019-07-06T06:49:05Z</time>
      </trkpt>
      <trkpt lat="40.7562500" lon="-2.1044630">
        <ele>978.4</ele>
        <time>2019-07-06T06:49:09Z</time>
      </trkpt>
      <trkpt lat="40.7564100" lon="-2.1045990">
        <ele>978.6</ele>
        <time>2019-07-06T06:49:12Z</time>
      </trkpt>
      <trkpt lat="40.7566300" lon="-2.1047610">
        <ele>978.2</ele>
        <time>2019-07-06T06:49:16Z</time>
      </trkpt>
      <trkpt lat="40.7566910" lon="-2.1047970">
        <ele>978.0</ele>
        <time>2019-07-06T06:49:17Z</time>
      </trkpt>
      <trkpt lat="40.7567530" lon="-2.1048270">
        <ele>977.6</ele>
        <time>2019-07-06T06:49:18Z</time>
      </trkpt>
      <trkpt lat="40.7569380" lon="-2.1048870">
        <ele>977.2</ele>
        <time>2019-07-06T06:49:21Z</time>
      </trkpt>
      <trkpt lat="40.7569960" lon="-2.1048980">
        <ele>977.2</ele>
        <time>2019-07-06T06:49:22Z</time>
      </trkpt>
      <trkpt lat="40.7570530" lon="-2.1049110">
        <ele>977.0</ele>
        <time>2019-07-06T06:49:23Z</time>
      </trkpt>
      <trkpt lat="40.7571130" lon="-2.1049200">
        <ele>977.0</ele>
        <time>2019-07-06T06:49:24Z</time>
      </trkpt>
      <trkpt lat="40.7572790" lon="-2.1049080">
        <ele>976.6</ele>
        <time>2019-07-06T06:49:27Z</time>
      </trkpt>
      <trkpt lat="40.7573310" lon="-2.1048950">
        <ele>976.8</ele>
        <time>2019-07-06T06:49:28Z</time>
      </trkpt>
      <trkpt lat="40.7575460" lon="-2.1048220">
        <ele>977.4</ele>
        <time>2019-07-06T06:49:32Z</time>
      </trkpt>
      <trkpt lat="40.7577510" lon="-2.1046750">
        <ele>977.0</ele>
        <time>2019-07-06T06:49:36Z</time>
      </trkpt>
      <trkpt lat="40.7577960" lon="-2.1046280">
        <ele>977.0</ele>
        <time>2019-07-06T06:49:37Z</time>
      </trkpt>
      <trkpt lat="40.7580020" lon="-2.1044110">
        <ele>977.2</ele>
        <time>2019-07-06T06:49:42Z</time>
      </trkpt>
      <trkpt lat="40.7580350" lon="-2.1043610">
        <ele>977.6</ele>
        <time>2019-07-06T06:49:43Z</time>
      </trkpt>
      <trkpt lat="40.7582110" lon="-2.1040510">
        <ele>978.0</ele>
        <time>2019-07-06T06:49:49Z</time>
      </trkpt>
      <trkpt lat="40.7582390" lon="-2.1040050">
        <ele>978.2</ele>
        <time>2019-07-06T06:49:50Z</time>
      </trkpt>
      <trkpt lat="40.7582680" lon="-2.1039610">
        <ele>978.4</ele>
        <time>2019-07-06T06:49:51Z</time>
      </trkpt>
      <trkpt lat="40.7583910" lon="-2.1037600">
        <ele>979.0</ele>
        <time>2019-07-06T06:49:55Z</time>
      </trkpt>
      <trkpt lat="40.7585590" lon="-2.1034680">
        <ele>978.8</ele>
        <time>2019-07-06T06:50:00Z</time>
      </trkpt>
      <trkpt lat="40.7585940" lon="-2.1034120">
        <ele>978.8</ele>
        <time>2019-07-06T06:50:01Z</time>
      </trkpt>
      <trkpt lat="40.7587160" lon="-2.1032340">
        <ele>978.8</ele>
        <time>2019-07-06T06:50:04Z</time>
      </trkpt>
      <trkpt lat="40.7587600" lon="-2.1031800">
        <ele>978.8</ele>
        <time>2019-07-06T06:50:05Z</time>
      </trkpt>
      <trkpt lat="40.7589400" lon="-2.1029990">
        <ele>979.0</ele>
        <time>2019-07-06T06:50:09Z</time>
      </trkpt>
      <trkpt lat="40.7590510" lon="-2.1029390">
        <ele>979.2</ele>
        <time>2019-07-06T06:50:11Z</time>
      </trkpt>
      <trkpt lat="40.7591100" lon="-2.1029170">
        <ele>979.2</ele>
        <time>2019-07-06T06:50:12Z</time>
      </trkpt>
      <trkpt lat="40.7592310" lon="-2.1028880">
        <ele>979.2</ele>
        <time>2019-07-06T06:50:14Z</time>
      </trkpt>
      <trkpt lat="40.7595980" lon="-2.1028560">
        <ele>979.4</ele>
        <time>2019-07-06T06:50:20Z</time>
      </trkpt>
      <trkpt lat="40.7597250" lon="-2.1028270">
        <ele>979.4</ele>
        <time>2019-07-06T06:50:22Z</time>
      </trkpt>
      <trkpt lat="40.7598560" lon="-2.1027730">
        <ele>978.6</ele>
        <time>2019-07-06T06:50:24Z</time>
      </trkpt>
      <trkpt lat="40.7599230" lon="-2.1027470">
        <ele>978.2</ele>
        <time>2019-07-06T06:50:25Z</time>
      </trkpt>
      <trkpt lat="40.7600640" lon="-2.1027060">
        <ele>977.6</ele>
        <time>2019-07-06T06:50:27Z</time>
      </trkpt>
      <trkpt lat="40.7602000" lon="-2.1026690">
        <ele>977.4</ele>
        <time>2019-07-06T06:50:29Z</time>
      </trkpt>
      <trkpt lat="40.7603250" lon="-2.1026260">
        <ele>977.6</ele>
        <time>2019-07-06T06:50:31Z</time>
      </trkpt>
      <trkpt lat="40.7604360" lon="-2.1025560">
        <ele>977.8</ele>
        <time>2019-07-06T06:50:33Z</time>
      </trkpt>
      <trkpt lat="40.7606180" lon="-2.1023680">
        <ele>977.6</ele>
        <time>2019-07-06T06:50:37Z</time>
      </trkpt>
      <trkpt lat="40.7606710" lon="-2.1023320">
        <ele>977.6</ele>
        <time>2019-07-06T06:50:38Z</time>
      </trkpt>
      <trkpt lat="40.7607240" lon="-2.1022970">
        <ele>977.6</ele>
        <time>2019-07-06T06:50:39Z</time>
      </trkpt>
      <trkpt lat="40.7608970" lon="-2.1022440">
        <ele>977.6</ele>
        <time>2019-07-06T06:50:42Z</time>
      </trkpt>
      <trkpt lat="40.7610190" lon="-2.1022240">
        <ele>977.4</ele>
        <time>2019-07-06T06:50:44Z</time>
      </trkpt>
      <trkpt lat="40.7612070" lon="-2.1022320">
        <ele>977.2</ele>
        <time>2019-07-06T06:50:47Z</time>
      </trkpt>
      <trkpt lat="40.7613340" lon="-2.1022510">
        <ele>977.0</ele>
        <time>2019-07-06T06:50:49Z</time>
      </trkpt>
      <trkpt lat="40.7613990" lon="-2.1022550">
        <ele>977.0</ele>
        <time>2019-07-06T06:50:50Z</time>
      </trkpt>
      <trkpt lat="40.7615290" lon="-2.1022630">
        <ele>977.0</ele>
        <time>2019-07-06T06:50:52Z</time>
      </trkpt>
      <trkpt lat="40.7618140" lon="-2.1023640">
        <ele>977.2</ele>
        <time>2019-07-06T06:50:57Z</time>
      </trkpt>
      <trkpt lat="40.7621050" lon="-2.1025310">
        <ele>977.6</ele>
        <time>2019-07-06T06:51:03Z</time>
      </trkpt>
      <trkpt lat="40.7621500" lon="-2.1025640">
        <ele>977.8</ele>
        <time>2019-07-06T06:51:04Z</time>
      </trkpt>
      <trkpt lat="40.7621940" lon="-2.1026050">
        <ele>978.0</ele>
        <time>2019-07-06T06:51:05Z</time>
      </trkpt>
      <trkpt lat="40.7623170" lon="-2.1027550">
        <ele>978.4</ele>
        <time>2019-07-06T06:51:08Z</time>
      </trkpt>
      <trkpt lat="40.7623560" lon="-2.1028160">
        <ele>978.4</ele>
        <time>2019-07-06T06:51:09Z</time>
      </trkpt>
      <trkpt lat="40.7625150" lon="-2.1030470">
        <ele>978.6</ele>
        <time>2019-07-06T06:51:13Z</time>
      </trkpt>
      <trkpt lat="40.7625900" lon="-2.1031620">
        <ele>978.6</ele>
        <time>2019-07-06T06:51:15Z</time>
      </trkpt>
      <trkpt lat="40.7627850" lon="-2.1035310">
        <ele>979.0</ele>
        <time>2019-07-06T06:51:21Z</time>
      </trkpt>
      <trkpt lat="40.7629260" lon="-2.1038450">
        <ele>978.8</ele>
        <time>2019-07-06T06:51:26Z</time>
      </trkpt>
      <trkpt lat="40.7629490" lon="-2.1039160">
        <ele>978.8</ele>
        <time>2019-07-06T06:51:27Z</time>
      </trkpt>
      <trkpt lat="40.7631110" lon="-2.1044520">
        <ele>978.4</ele>
        <time>2019-07-06T06:51:34Z</time>
      </trkpt>
      <trkpt lat="40.7632160" lon="-2.1049030">
        <ele>978.4</ele>
        <time>2019-07-06T06:51:40Z</time>
      </trkpt>
      <trkpt lat="40.7632640" lon="-2.1051130">
        <ele>979.2</ele>
        <time>2019-07-06T06:51:43Z</time>
      </trkpt>
      <trkpt lat="40.7632940" lon="-2.1052670">
        <ele>979.4</ele>
        <time>2019-07-06T06:51:45Z</time>
      </trkpt>
      <trkpt lat="40.7633340" lon="-2.1054170">
        <ele>979.2</ele>
        <time>2019-07-06T06:51:47Z</time>
      </trkpt>
      <trkpt lat="40.7633770" lon="-2.1055640">
        <ele>978.8</ele>
        <time>2019-07-06T06:51:49Z</time>
      </trkpt>
      <trkpt lat="40.7634020" lon="-2.1056330">
        <ele>978.8</ele>
        <time>2019-07-06T06:51:50Z</time>
      </trkpt>
      <trkpt lat="40.7634620" lon="-2.1058390">
        <ele>979.2</ele>
        <time>2019-07-06T06:51:53Z</time>
      </trkpt>
      <trkpt lat="40.7634940" lon="-2.1059650">
        <ele>979.6</ele>
        <time>2019-07-06T06:51:55Z</time>
      </trkpt>
      <trkpt lat="40.7635290" lon="-2.1061440">
        <ele>980.2</ele>
        <time>2019-07-06T06:51:58Z</time>
      </trkpt>
      <trkpt lat="40.7635440" lon="-2.1061990">
        <ele>980.4</ele>
        <time>2019-07-06T06:51:59Z</time>
      </trkpt>
      <trkpt lat="40.7635900" lon="-2.1063670">
        <ele>981.8</ele>
        <time>2019-07-06T06:52:02Z</time>
      </trkpt>
      <trkpt lat="40.7636290" lon="-2.1064720">
        <ele>982.2</ele>
        <time>2019-07-06T06:52:04Z</time>
      </trkpt>
      <trkpt lat="40.7636770" lon="-2.1065770">
        <ele>982.6</ele>
        <time>2019-07-06T06:52:06Z</time>
      </trkpt>
      <trkpt lat="40.7637530" lon="-2.1067480">
        <ele>982.8</ele>
        <time>2019-07-06T06:52:09Z</time>
      </trkpt>
      <trkpt lat="40.7638390" lon="-2.1069200">
        <ele>983.0</ele>
        <time>2019-07-06T06:52:12Z</time>
      </trkpt>
      <trkpt lat="40.7638620" lon="-2.1069780">
        <ele>983.0</ele>
        <time>2019-07-06T06:52:13Z</time>
      </trkpt>
      <trkpt lat="40.7638960" lon="-2.1071670">
        <ele>983.2</ele>
        <time>2019-07-06T06:52:16Z</time>
      </trkpt>
      <trkpt lat="40.7638960" lon="-2.1072340">
        <ele>983.2</ele>
        <time>2019-07-06T06:52:17Z</time>
      </trkpt>
      <trkpt lat="40.7638750" lon="-2.1075710">
        <ele>983.2</ele>
        <time>2019-07-06T06:52:22Z</time>
      </trkpt>
      <trkpt lat="40.7638800" lon="-2.1076380">
        <ele>983.4</ele>
        <time>2019-07-06T06:52:23Z</time>
      </trkpt>
      <trkpt lat="40.7639050" lon="-2.1078340">
        <ele>983.8</ele>
        <time>2019-07-06T06:52:26Z</time>
      </trkpt>
      <trkpt lat="40.7639190" lon="-2.1078850">
        <ele>984.0</ele>
        <time>2019-07-06T06:52:27Z</time>
      </trkpt>
      <trkpt lat="40.7639970" lon="-2.1080280">
        <ele>984.6</ele>
        <time>2019-07-06T06:52:31Z</time>
      </trkpt>
      <trkpt lat="40.7640230" lon="-2.1080340">
        <ele>984.6</ele>
        <time>2019-07-06T06:52:32Z</time>
      </trkpt>
      <trkpt lat="40.7641110" lon="-2.1079720">
        <ele>984.8</ele>
        <time>2019-07-06T06:52:35Z</time>
      </trkpt>
      <trkpt lat="40.7641930" lon="-2.1078220">
        <ele>984.8</ele>
        <time>2019-07-06T06:52:38Z</time>
      </trkpt>
      <trkpt lat="40.7642170" lon="-2.1077540">
        <ele>984.6</ele>
        <time>2019-07-06T06:52:39Z</time>
      </trkpt>
      <trkpt lat="40.7642930" lon="-2.1075330">
        <ele>984.2</ele>
        <time>2019-07-06T06:52:42Z</time>
      </trkpt>
      <trkpt lat="40.7643160" lon="-2.1074650">
        <ele>984.0</ele>
        <time>2019-07-06T06:52:43Z</time>
      </trkpt>
      <trkpt lat="40.7643450" lon="-2.1074020">
        <ele>983.4</ele>
        <time>2019-07-06T06:52:44Z</time>
      </trkpt>
      <trkpt lat="40.7643850" lon="-2.1073450">
        <ele>982.8</ele>
        <time>2019-07-06T06:52:45Z</time>
      </trkpt>
      <trkpt lat="40.7644390" lon="-2.1072970">
        <ele>982.2</ele>
        <time>2019-07-06T06:52:46Z</time>
      </trkpt>
      <trkpt lat="40.7645030" lon="-2.1072600">
        <ele>981.8</ele>
        <time>2019-07-06T06:52:47Z</time>
      </trkpt>
      <trkpt lat="40.7646480" lon="-2.1072150">
        <ele>981.0</ele>
        <time>2019-07-06T06:52:49Z</time>
      </trkpt>
      <trkpt lat="40.7647240" lon="-2.1072060">
        <ele>980.4</ele>
        <time>2019-07-06T06:52:50Z</time>
      </trkpt>
      <trkpt lat="40.7648020" lon="-2.1071970">
        <ele>979.8</ele>
        <time>2019-07-06T06:52:51Z</time>
      </trkpt>
      <trkpt lat="40.7650410" lon="-2.1071740">
        <ele>979.0</ele>
        <time>2019-07-06T06:52:54Z</time>
      </trkpt>
      <trkpt lat="40.7651170" lon="-2.1071640">
        <ele>978.8</ele>
        <time>2019-07-06T06:52:55Z</time>
      </trkpt>
      <trkpt lat="40.7652640" lon="-2.1071470">
        <ele>978.4</ele>
        <time>2019-07-06T06:52:57Z</time>
      </trkpt>
      <trkpt lat="40.7654670" lon="-2.1071290">
        <ele>977.6</ele>
        <time>2019-07-06T06:53:00Z</time>
      </trkpt>
      <trkpt lat="40.7655360" lon="-2.1071180">
        <ele>977.6</ele>
        <time>2019-07-06T06:53:01Z</time>
      </trkpt>
      <trkpt lat="40.7656680" lon="-2.1070990">
        <ele>977.2</ele>
        <time>2019-07-06T06:53:03Z</time>
      </trkpt>
      <trkpt lat="40.7658620" lon="-2.1070680">
        <ele>977.2</ele>
        <time>2019-07-06T06:53:06Z</time>
      </trkpt>
      <trkpt lat="40.7661160" lon="-2.1070640">
        <ele>977.2</ele>
        <time>2019-07-06T06:53:10Z</time>
      </trkpt>
      <trkpt lat="40.7662130" lon="-2.1070750">
        <ele>977.8</ele>
        <time>2019-07-06T06:53:12Z</time>
      </trkpt>
      <trkpt lat="40.7663330" lon="-2.1070810">
        <ele>979.2</ele>
        <time>2019-07-06T06:53:15Z</time>
      </trkpt>
      <trkpt lat="40.7663780" lon="-2.1070840">
        <ele>979.4</ele>
        <time>2019-07-06T06:53:16Z</time>
      </trkpt>
      <trkpt lat="40.7666380" lon="-2.1071100">
        <ele>979.6</ele>
        <time>2019-07-06T06:53:21Z</time>
      </trkpt>
      <trkpt lat="40.7668760" lon="-2.1071390">
        <ele>979.0</ele>
        <time>2019-07-06T06:53:25Z</time>
      </trkpt>
      <trkpt lat="40.7670380" lon="-2.1071580">
        <ele>978.8</ele>
        <time>2019-07-06T06:53:28Z</time>
      </trkpt>
      <trkpt lat="40.7671030" lon="-2.1071650">
        <ele>978.8</ele>
        <time>2019-07-06T06:53:29Z</time>
      </trkpt>
      <trkpt lat="40.7672770" lon="-2.1072020">
        <ele>979.0</ele>
        <time>2019-07-06T06:53:32Z</time>
      </trkpt>
      <trkpt lat="40.7673290" lon="-2.1072170">
        <ele>979.2</ele>
        <time>2019-07-06T06:53:33Z</time>
      </trkpt>
      <trkpt lat="40.7674240" lon="-2.1072430">
        <ele>980.0</ele>
        <time>2019-07-06T06:53:35Z</time>
      </trkpt>
      <trkpt lat="40.7675200" lon="-2.1072870">
        <ele>980.4</ele>
        <time>2019-07-06T06:53:37Z</time>
      </trkpt>
      <trkpt lat="40.7676720" lon="-2.1074220">
        <ele>981.4</ele>
        <time>2019-07-06T06:53:41Z</time>
      </trkpt>
      <trkpt lat="40.7677110" lon="-2.1074650">
        <ele>981.6</ele>
        <time>2019-07-06T06:53:42Z</time>
      </trkpt>
      <trkpt lat="40.7679550" lon="-2.1076890">
        <ele>981.6</ele>
        <time>2019-07-06T06:53:47Z</time>
      </trkpt>
      <trkpt lat="40.7680050" lon="-2.1077500">
        <ele>981.4</ele>
        <time>2019-07-06T06:53:48Z</time>
      </trkpt>
      <trkpt lat="40.7681000" lon="-2.1078920">
        <ele>980.8</ele>
        <time>2019-07-06T06:53:50Z</time>
      </trkpt>
      <trkpt lat="40.7681490" lon="-2.1079700">
        <ele>980.4</ele>
        <time>2019-07-06T06:53:51Z</time>
      </trkpt>
      <trkpt lat="40.7682000" lon="-2.1080460">
        <ele>979.4</ele>
        <time>2019-07-06T06:53:52Z</time>
      </trkpt>
      <trkpt lat="40.7682500" lon="-2.1081280">
        <ele>978.6</ele>
        <time>2019-07-06T06:53:53Z</time>
      </trkpt>
      <trkpt lat="40.7684820" lon="-2.1085500">
        <ele>977.6</ele>
        <time>2019-07-06T06:53:58Z</time>
      </trkpt>
      <trkpt lat="40.7685990" lon="-2.1087920">
        <ele>976.4</ele>
        <time>2019-07-06T06:54:01Z</time>
      </trkpt>
      <trkpt lat="40.7686630" lon="-2.1089330">
        <ele>976.2</ele>
        <time>2019-07-06T06:54:03Z</time>
      </trkpt>
      <trkpt lat="40.7688480" lon="-2.1093870">
        <ele>977.2</ele>
        <time>2019-07-06T06:54:10Z</time>
      </trkpt>
      <trkpt lat="40.7689530" lon="-2.1096170">
        <ele>977.4</ele>
        <time>2019-07-06T06:54:14Z</time>
      </trkpt>
      <trkpt lat="40.7690200" lon="-2.1097960">
        <ele>977.6</ele>
        <time>2019-07-06T06:54:17Z</time>
      </trkpt>
      <trkpt lat="40.7690390" lon="-2.1098570">
        <ele>977.6</ele>
        <time>2019-07-06T06:54:18Z</time>
      </trkpt>
      <trkpt lat="40.7690580" lon="-2.1099170">
        <ele>977.8</ele>
        <time>2019-07-06T06:54:19Z</time>
      </trkpt>
      <trkpt lat="40.7690970" lon="-2.1101030">
        <ele>977.8</ele>
        <time>2019-07-06T06:54:22Z</time>
      </trkpt>
      <trkpt lat="40.7691200" lon="-2.1102330">
        <ele>977.6</ele>
        <time>2019-07-06T06:54:24Z</time>
      </trkpt>
      <trkpt lat="40.7691320" lon="-2.1103000">
        <ele>977.6</ele>
        <time>2019-07-06T06:54:25Z</time>
      </trkpt>
      <trkpt lat="40.7691380" lon="-2.1103670">
        <ele>977.6</ele>
        <time>2019-07-06T06:54:26Z</time>
      </trkpt>
      <trkpt lat="40.7691440" lon="-2.1104350">
        <ele>977.6</ele>
        <time>2019-07-06T06:54:27Z</time>
      </trkpt>
      <trkpt lat="40.7691910" lon="-2.1106300">
        <ele>977.2</ele>
        <time>2019-07-06T06:54:30Z</time>
      </trkpt>
      <trkpt lat="40.7692250" lon="-2.1107440">
        <ele>976.6</ele>
        <time>2019-07-06T06:54:32Z</time>
      </trkpt>
      <trkpt lat="40.7692790" lon="-2.1108890">
        <ele>976.0</ele>
        <time>2019-07-06T06:54:35Z</time>
      </trkpt>
      <trkpt lat="40.7693150" lon="-2.1110070">
        <ele>975.8</ele>
        <time>2019-07-06T06:54:37Z</time>
      </trkpt>
      <trkpt lat="40.7693350" lon="-2.1110720">
        <ele>975.8</ele>
        <time>2019-07-06T06:54:38Z</time>
      </trkpt>
      <trkpt lat="40.7694450" lon="-2.1113510">
        <ele>975.2</ele>
        <time>2019-07-06T06:54:42Z</time>
      </trkpt>
      <trkpt lat="40.7694750" lon="-2.1114240">
        <ele>975.0</ele>
        <time>2019-07-06T06:54:43Z</time>
      </trkpt>
      <trkpt lat="40.7695090" lon="-2.1114950">
        <ele>974.8</ele>
        <time>2019-07-06T06:54:44Z</time>
      </trkpt>
      <trkpt lat="40.7695420" lon="-2.1115680">
        <ele>974.4</ele>
        <time>2019-07-06T06:54:45Z</time>
      </trkpt>
      <trkpt lat="40.7696180" lon="-2.1117040">
        <ele>973.2</ele>
        <time>2019-07-06T06:54:47Z</time>
      </trkpt>
      <trkpt lat="40.7697030" lon="-2.1118240">
        <ele>972.0</ele>
        <time>2019-07-06T06:54:49Z</time>
      </trkpt>
      <trkpt lat="40.7698630" lon="-2.1120190">
        <ele>972.2</ele>
        <time>2019-07-06T06:54:53Z</time>
      </trkpt>
      <trkpt lat="40.7699420" lon="-2.1121020">
        <ele>972.4</ele>
        <time>2019-07-06T06:54:55Z</time>
      </trkpt>
      <trkpt lat="40.7700250" lon="-2.1121610">
        <ele>972.4</ele>
        <time>2019-07-06T06:54:57Z</time>
      </trkpt>
      <trkpt lat="40.7700670" lon="-2.1121910">
        <ele>972.4</ele>
        <time>2019-07-06T06:54:58Z</time>
      </trkpt>
      <trkpt lat="40.7701140" lon="-2.1122190">
        <ele>972.0</ele>
        <time>2019-07-06T06:54:59Z</time>
      </trkpt>
      <trkpt lat="40.7702710" lon="-2.1122690">
        <ele>971.6</ele>
        <time>2019-07-06T06:55:02Z</time>
      </trkpt>
      <trkpt lat="40.7703710" lon="-2.1122870">
        <ele>971.6</ele>
        <time>2019-07-06T06:55:04Z</time>
      </trkpt>
      <trkpt lat="40.7704740" lon="-2.1122970">
        <ele>971.8</ele>
        <time>2019-07-06T06:55:06Z</time>
      </trkpt>
      <trkpt lat="40.7705310" lon="-2.1122970">
        <ele>971.6</ele>
        <time>2019-07-06T06:55:07Z</time>
      </trkpt>
      <trkpt lat="40.7706960" lon="-2.1122870">
        <ele>971.8</ele>
        <time>2019-07-06T06:55:10Z</time>
      </trkpt>
      <trkpt lat="40.7708020" lon="-2.1122810">
        <ele>971.4</ele>
        <time>2019-07-06T06:55:12Z</time>
      </trkpt>
      <trkpt lat="40.7709610" lon="-2.1122760">
        <ele>971.6</ele>
        <time>2019-07-06T06:55:15Z</time>
      </trkpt>
      <trkpt lat="40.7710490" lon="-2.1122650">
        <ele>972.2</ele>
        <time>2019-07-06T06:55:17Z</time>
      </trkpt>
      <trkpt lat="40.7711450" lon="-2.1122540">
        <ele>972.4</ele>
        <time>2019-07-06T06:55:19Z</time>
      </trkpt>
      <trkpt lat="40.7712280" lon="-2.1122510">
        <ele>973.2</ele>
        <time>2019-07-06T06:55:21Z</time>
      </trkpt>
      <trkpt lat="40.7712670" lon="-2.1122470">
        <ele>973.4</ele>
        <time>2019-07-06T06:55:22Z</time>
      </trkpt>
      <trkpt lat="40.7713930" lon="-2.1122250">
        <ele>974.0</ele>
        <time>2019-07-06T06:55:25Z</time>
      </trkpt>
      <trkpt lat="40.7714430" lon="-2.1122090">
        <ele>974.2</ele>
        <time>2019-07-06T06:55:26Z</time>
      </trkpt>
      <trkpt lat="40.7714930" lon="-2.1121830">
        <ele>974.2</ele>
        <time>2019-07-06T06:55:27Z</time>
      </trkpt>
      <trkpt lat="40.7715430" lon="-2.1121520">
        <ele>974.6</ele>
        <time>2019-07-06T06:55:28Z</time>
      </trkpt>
      <trkpt lat="40.7716850" lon="-2.1120460">
        <ele>974.6</ele>
        <time>2019-07-06T06:55:31Z</time>
      </trkpt>
      <trkpt lat="40.7717300" lon="-2.1120110">
        <ele>974.6</ele>
        <time>2019-07-06T06:55:32Z</time>
      </trkpt>
      <trkpt lat="40.7718320" lon="-2.1119480">
        <ele>974.6</ele>
        <time>2019-07-06T06:55:34Z</time>
      </trkpt>
      <trkpt lat="40.7719730" lon="-2.1118480">
        <ele>974.4</ele>
        <time>2019-07-06T06:55:37Z</time>
      </trkpt>
      <trkpt lat="40.7722570" lon="-2.1116900">
        <ele>974.2</ele>
        <time>2019-07-06T06:55:42Z</time>
      </trkpt>
      <trkpt lat="40.7725360" lon="-2.1114390">
        <ele>975.0</ele>
        <time>2019-07-06T06:55:48Z</time>
      </trkpt>
      <trkpt lat="40.7726980" lon="-2.1112760">
        <ele>975.2</ele>
        <time>2019-07-06T06:55:52Z</time>
      </trkpt>
      <trkpt lat="40.7727920" lon="-2.1112210">
        <ele>975.4</ele>
        <time>2019-07-06T06:55:54Z</time>
      </trkpt>
      <trkpt lat="40.7728420" lon="-2.1112010">
        <ele>975.6</ele>
        <time>2019-07-06T06:55:55Z</time>
      </trkpt>
      <trkpt lat="40.7730630" lon="-2.1111760">
        <ele>976.4</ele>
        <time>2019-07-06T06:55:59Z</time>
      </trkpt>
      <trkpt lat="40.7731190" lon="-2.1111900">
        <ele>976.6</ele>
        <time>2019-07-06T06:56:00Z</time>
      </trkpt>
      <trkpt lat="40.7731720" lon="-2.1112060">
        <ele>976.6</ele>
        <time>2019-07-06T06:56:01Z</time>
      </trkpt>
      <trkpt lat="40.7732840" lon="-2.1112520">
        <ele>976.6</ele>
        <time>2019-07-06T06:56:03Z</time>
      </trkpt>
      <trkpt lat="40.7733420" lon="-2.1112810">
        <ele>976.6</ele>
        <time>2019-07-06T06:56:04Z</time>
      </trkpt>
      <trkpt lat="40.7735370" lon="-2.1113530">
        <ele>975.8</ele>
        <time>2019-07-06T06:56:07Z</time>
      </trkpt>
      <trkpt lat="40.7736100" lon="-2.1113690">
        <ele>975.0</ele>
        <time>2019-07-06T06:56:08Z</time>
      </trkpt>
      <trkpt lat="40.7736880" lon="-2.1113780">
        <ele>974.4</ele>
        <time>2019-07-06T06:56:09Z</time>
      </trkpt>
      <trkpt lat="40.7738460" lon="-2.1114000">
        <ele>973.4</ele>
        <time>2019-07-06T06:56:11Z</time>
      </trkpt>
      <trkpt lat="40.7739270" lon="-2.1114120">
        <ele>973.2</ele>
        <time>2019-07-06T06:56:12Z</time>
      </trkpt>
      <trkpt lat="40.7741670" lon="-2.1114340">
        <ele>972.4</ele>
        <time>2019-07-06T06:56:15Z</time>
      </trkpt>
      <trkpt lat="40.7742370" lon="-2.1114440">
        <ele>972.0</ele>
        <time>2019-07-06T06:56:16Z</time>
      </trkpt>
      <trkpt lat="40.7743770" lon="-2.1114750">
        <ele>971.8</ele>
        <time>2019-07-06T06:56:18Z</time>
      </trkpt>
      <trkpt lat="40.7745100" lon="-2.1114950">
        <ele>971.2</ele>
        <time>2019-07-06T06:56:20Z</time>
      </trkpt>
      <trkpt lat="40.7745770" lon="-2.1114970">
        <ele>970.8</ele>
        <time>2019-07-06T06:56:21Z</time>
      </trkpt>
      <trkpt lat="40.7748170" lon="-2.1115050">
        <ele>970.6</ele>
        <time>2019-07-06T06:56:25Z</time>
      </trkpt>
      <trkpt lat="40.7749310" lon="-2.1115020">
        <ele>970.6</ele>
        <time>2019-07-06T06:56:27Z</time>
      </trkpt>
      <trkpt lat="40.7750490" lon="-2.1115000">
        <ele>970.6</ele>
        <time>2019-07-06T06:56:29Z</time>
      </trkpt>
      <trkpt lat="40.7751090" lon="-2.1114950">
        <ele>970.4</ele>
        <time>2019-07-06T06:56:30Z</time>
      </trkpt>
      <trkpt lat="40.7754290" lon="-2.1114750">
        <ele>970.2</ele>
        <time>2019-07-06T06:56:35Z</time>
      </trkpt>
      <trkpt lat="40.7755510" lon="-2.1114630">
        <ele>970.0</ele>
        <time>2019-07-06T06:56:37Z</time>
      </trkpt>
      <trkpt lat="40.7756740" lon="-2.1114470">
        <ele>969.8</ele>
        <time>2019-07-06T06:56:39Z</time>
      </trkpt>
      <trkpt lat="40.7760590" lon="-2.1113870">
        <ele>969.0</ele>
        <time>2019-07-06T06:56:45Z</time>
      </trkpt>
      <trkpt lat="40.7761210" lon="-2.1113750">
        <ele>969.0</ele>
        <time>2019-07-06T06:56:46Z</time>
      </trkpt>
      <trkpt lat="40.7763720" lon="-2.1113290">
        <ele>968.8</ele>
        <time>2019-07-06T06:56:50Z</time>
      </trkpt>
      <trkpt lat="40.7767730" lon="-2.1112580">
        <ele>968.0</ele>
        <time>2019-07-06T06:56:56Z</time>
      </trkpt>
      <trkpt lat="40.7769720" lon="-2.1112290">
        <ele>967.8</ele>
        <time>2019-07-06T06:56:59Z</time>
      </trkpt>
      <trkpt lat="40.7771630" lon="-2.1112270">
        <ele>967.8</ele>
        <time>2019-07-06T06:57:02Z</time>
      </trkpt>
      <trkpt lat="40.7774090" lon="-2.1112380">
        <ele>968.0</ele>
        <time>2019-07-06T06:57:06Z</time>
      </trkpt>
      <trkpt lat="40.7774700" lon="-2.1112460">
        <ele>968.0</ele>
        <time>2019-07-06T06:57:07Z</time>
      </trkpt>
      <trkpt lat="40.7776540" lon="-2.1112780">
        <ele>967.8</ele>
        <time>2019-07-06T06:57:10Z</time>
      </trkpt>
      <trkpt lat="40.7777710" lon="-2.1112980">
        <ele>968.0</ele>
        <time>2019-07-06T06:57:12Z</time>
      </trkpt>
      <trkpt lat="40.7779460" lon="-2.1113220">
        <ele>968.8</ele>
        <time>2019-07-06T06:57:16Z</time>
      </trkpt>
      <trkpt lat="40.7780260" lon="-2.1113210">
        <ele>969.2</ele>
        <time>2019-07-06T06:57:18Z</time>
      </trkpt>
      <trkpt lat="40.7781090" lon="-2.1113340">
        <ele>969.8</ele>
        <time>2019-07-06T06:57:20Z</time>
      </trkpt>
      <trkpt lat="40.7782200" lon="-2.1113390">
        <ele>970.0</ele>
        <time>2019-07-06T06:57:23Z</time>
      </trkpt>
      <trkpt lat="40.7782580" lon="-2.1113390">
        <ele>970.4</ele>
        <time>2019-07-06T06:57:24Z</time>
      </trkpt>
      <trkpt lat="40.7784330" lon="-2.1113250">
        <ele>970.8</ele>
        <time>2019-07-06T06:57:28Z</time>
      </trkpt>
      <trkpt lat="40.7785270" lon="-2.1113230">
        <ele>970.8</ele>
        <time>2019-07-06T06:57:30Z</time>
      </trkpt>
      <trkpt lat="40.7788100" lon="-2.1113420">
        <ele>970.6</ele>
        <time>2019-07-06T06:57:36Z</time>
      </trkpt>
      <trkpt lat="40.7789170" lon="-2.1113610">
        <ele>970.4</ele>
        <time>2019-07-06T06:57:38Z</time>
      </trkpt>
      <trkpt lat="40.7790740" lon="-2.1113910">
        <ele>970.4</ele>
        <time>2019-07-06T06:57:41Z</time>
      </trkpt>
      <trkpt lat="40.7792890" lon="-2.1114660">
        <ele>970.6</ele>
        <time>2019-07-06T06:57:45Z</time>
      </trkpt>
      <trkpt lat="40.7793740" lon="-2.1115350">
        <ele>970.8</ele>
        <time>2019-07-06T06:57:47Z</time>
      </trkpt>
      <trkpt lat="40.7794760" lon="-2.1116880">
        <ele>971.2</ele>
        <time>2019-07-06T06:57:50Z</time>
      </trkpt>
      <trkpt lat="40.7795090" lon="-2.1117400">
        <ele>971.4</ele>
        <time>2019-07-06T06:57:51Z</time>
      </trkpt>
      <trkpt lat="40.7795430" lon="-2.1117880">
        <ele>971.6</ele>
        <time>2019-07-06T06:57:52Z</time>
      </trkpt>
      <trkpt lat="40.7795760" lon="-2.1118350">
        <ele>971.8</ele>
        <time>2019-07-06T06:57:53Z</time>
      </trkpt>
      <trkpt lat="40.7797380" lon="-2.1120400">
        <ele>972.6</ele>
        <time>2019-07-06T06:57:58Z</time>
      </trkpt>
      <trkpt lat="40.7798020" lon="-2.1121180">
        <ele>973.6</ele>
        <time>2019-07-06T06:58:00Z</time>
      </trkpt>
      <trkpt lat="40.7798340" lon="-2.1121530">
        <ele>973.6</ele>
        <time>2019-07-06T06:58:01Z</time>
      </trkpt>
      <trkpt lat="40.7799160" lon="-2.1122750">
        <ele>974.6</ele>
        <time>2019-07-06T06:58:04Z</time>
      </trkpt>
      <trkpt lat="40.7799650" lon="-2.1124440">
        <ele>975.2</ele>
        <time>2019-07-06T06:58:07Z</time>
      </trkpt>
      <trkpt lat="40.7799740" lon="-2.1125060">
        <ele>975.6</ele>
        <time>2019-07-06T06:58:08Z</time>
      </trkpt>
      <trkpt lat="40.7799790" lon="-2.1125690">
        <ele>975.6</ele>
        <time>2019-07-06T06:58:09Z</time>
      </trkpt>
      <trkpt lat="40.7800080" lon="-2.1128410">
        <ele>975.8</ele>
        <time>2019-07-06T06:58:13Z</time>
      </trkpt>
      <trkpt lat="40.7800260" lon="-2.1129050">
        <ele>975.8</ele>
        <time>2019-07-06T06:58:14Z</time>
      </trkpt>
      <trkpt lat="40.7801050" lon="-2.1131150">
        <ele>974.6</ele>
        <time>2019-07-06T06:58:17Z</time>
      </trkpt>
      <trkpt lat="40.7801300" lon="-2.1131790">
        <ele>974.0</ele>
        <time>2019-07-06T06:58:18Z</time>
      </trkpt>
      <trkpt lat="40.7801510" lon="-2.1132450">
        <ele>973.8</ele>
        <time>2019-07-06T06:58:19Z</time>
      </trkpt>
      <trkpt lat="40.7801810" lon="-2.1133940">
        <ele>973.2</ele>
        <time>2019-07-06T06:58:21Z</time>
      </trkpt>
      <trkpt lat="40.7802160" lon="-2.1135500">
        <ele>972.6</ele>
        <time>2019-07-06T06:58:23Z</time>
      </trkpt>
      <trkpt lat="40.7802460" lon="-2.1136310">
        <ele>972.2</ele>
        <time>2019-07-06T06:58:24Z</time>
      </trkpt>
      <trkpt lat="40.7802810" lon="-2.1137130">
        <ele>971.8</ele>
        <time>2019-07-06T06:58:25Z</time>
      </trkpt>
      <trkpt lat="40.7803210" lon="-2.1137950">
        <ele>971.0</ele>
        <time>2019-07-06T06:58:26Z</time>
      </trkpt>
      <trkpt lat="40.7803650" lon="-2.1138800">
        <ele>970.6</ele>
        <time>2019-07-06T06:58:27Z</time>
      </trkpt>
      <trkpt lat="40.7804570" lon="-2.1140520">
        <ele>969.8</ele>
        <time>2019-07-06T06:58:29Z</time>
      </trkpt>
      <trkpt lat="40.7805560" lon="-2.1142260">
        <ele>969.0</ele>
        <time>2019-07-06T06:58:31Z</time>
      </trkpt>
      <trkpt lat="40.7806100" lon="-2.1143020">
        <ele>968.6</ele>
        <time>2019-07-06T06:58:32Z</time>
      </trkpt>
      <trkpt lat="40.7806690" lon="-2.1143680">
        <ele>968.4</ele>
        <time>2019-07-06T06:58:33Z</time>
      </trkpt>
      <trkpt lat="40.7807960" lon="-2.1144730">
        <ele>968.0</ele>
        <time>2019-07-06T06:58:35Z</time>
      </trkpt>
      <trkpt lat="40.7809200" lon="-2.1145370">
        <ele>967.8</ele>
        <time>2019-07-06T06:58:37Z</time>
      </trkpt>
      <trkpt lat="40.7810310" lon="-2.1145800">
        <ele>967.8</ele>
        <time>2019-07-06T06:58:39Z</time>
      </trkpt>
      <trkpt lat="40.7811910" lon="-2.1146110">
        <ele>968.0</ele>
        <time>2019-07-06T06:58:42Z</time>
      </trkpt>
      <trkpt lat="40.7814470" lon="-2.1147030">
        <ele>968.6</ele>
        <time>2019-07-06T06:58:47Z</time>
      </trkpt>
      <trkpt lat="40.7814960" lon="-2.1147380">
        <ele>968.8</ele>
        <time>2019-07-06T06:58:48Z</time>
      </trkpt>
      <trkpt lat="40.7815880" lon="-2.1148180">
        <ele>968.6</ele>
        <time>2019-07-06T06:58:50Z</time>
      </trkpt>
      <trkpt lat="40.7816610" lon="-2.1149210">
        <ele>968.2</ele>
        <time>2019-07-06T06:58:52Z</time>
      </trkpt>
      <trkpt lat="40.7816930" lon="-2.1149840">
        <ele>968.0</ele>
        <time>2019-07-06T06:58:53Z</time>
      </trkpt>
      <trkpt lat="40.7817190" lon="-2.1150530">
        <ele>967.8</ele>
        <time>2019-07-06T06:58:54Z</time>
      </trkpt>
      <trkpt lat="40.7817740" lon="-2.1151960">
        <ele>967.4</ele>
        <time>2019-07-06T06:58:56Z</time>
      </trkpt>
      <trkpt lat="40.7818770" lon="-2.1154800">
        <ele>967.2</ele>
        <time>2019-07-06T06:59:00Z</time>
      </trkpt>
      <trkpt lat="40.7819180" lon="-2.1156190">
        <ele>967.2</ele>
        <time>2019-07-06T06:59:02Z</time>
      </trkpt>
      <trkpt lat="40.7819920" lon="-2.1159880">
        <ele>967.2</ele>
        <time>2019-07-06T06:59:07Z</time>
      </trkpt>
      <trkpt lat="40.7820130" lon="-2.1160560">
        <ele>967.2</ele>
        <time>2019-07-06T06:59:08Z</time>
      </trkpt>
      <trkpt lat="40.7820890" lon="-2.1162670">
        <ele>967.2</ele>
        <time>2019-07-06T06:59:11Z</time>
      </trkpt>
      <trkpt lat="40.7821180" lon="-2.1163350">
        <ele>967.2</ele>
        <time>2019-07-06T06:59:12Z</time>
      </trkpt>
      <trkpt lat="40.7821510" lon="-2.1163980">
        <ele>967.4</ele>
        <time>2019-07-06T06:59:13Z</time>
      </trkpt>
      <trkpt lat="40.7822210" lon="-2.1165250">
        <ele>967.4</ele>
        <time>2019-07-06T06:59:15Z</time>
      </trkpt>
      <trkpt lat="40.7823160" lon="-2.1167170">
        <ele>967.6</ele>
        <time>2019-07-06T06:59:18Z</time>
      </trkpt>
      <trkpt lat="40.7824060" lon="-2.1168750">
        <ele>967.8</ele>
        <time>2019-07-06T06:59:21Z</time>
      </trkpt>
      <trkpt lat="40.7824610" lon="-2.1169680">
        <ele>968.2</ele>
        <time>2019-07-06T06:59:23Z</time>
      </trkpt>
      <trkpt lat="40.7824890" lon="-2.1170130">
        <ele>968.6</ele>
        <time>2019-07-06T06:59:24Z</time>
      </trkpt>
      <trkpt lat="40.7825150" lon="-2.1170580">
        <ele>969.0</ele>
        <time>2019-07-06T06:59:25Z</time>
      </trkpt>
      <trkpt lat="40.7825620" lon="-2.1171450">
        <ele>970.0</ele>
        <time>2019-07-06T06:59:27Z</time>
      </trkpt>
      <trkpt lat="40.7826080" lon="-2.1172250">
        <ele>970.8</ele>
        <time>2019-07-06T06:59:29Z</time>
      </trkpt>
      <trkpt lat="40.7826280" lon="-2.1172650">
        <ele>971.0</ele>
        <time>2019-07-06T06:59:30Z</time>
      </trkpt>
      <trkpt lat="40.7826510" lon="-2.1173040">
        <ele>971.4</ele>
        <time>2019-07-06T06:59:31Z</time>
      </trkpt>
      <trkpt lat="40.7827190" lon="-2.1174050">
        <ele>972.2</ele>
        <time>2019-07-06T06:59:34Z</time>
      </trkpt>
      <trkpt lat="40.7827390" lon="-2.1174440">
        <ele>972.2</ele>
        <time>2019-07-06T06:59:35Z</time>
      </trkpt>
      <trkpt lat="40.7827580" lon="-2.1174830">
        <ele>972.4</ele>
        <time>2019-07-06T06:59:36Z</time>
      </trkpt>
      <trkpt lat="40.7828120" lon="-2.1176030">
        <ele>973.4</ele>
        <time>2019-07-06T06:59:39Z</time>
      </trkpt>
      <trkpt lat="40.7828670" lon="-2.1177330">
        <ele>974.0</ele>
        <time>2019-07-06T06:59:42Z</time>
      </trkpt>
      <trkpt lat="40.7829020" lon="-2.1178190">
        <ele>974.6</ele>
        <time>2019-07-06T06:59:44Z</time>
      </trkpt>
      <trkpt lat="40.7829480" lon="-2.1179570">
        <ele>975.6</ele>
        <time>2019-07-06T06:59:47Z</time>
      </trkpt>
      <trkpt lat="40.7829760" lon="-2.1180520">
        <ele>975.8</ele>
        <time>2019-07-06T06:59:49Z</time>
      </trkpt>
      <trkpt lat="40.7830280" lon="-2.1183820">
        <ele>976.2</ele>
        <time>2019-07-06T06:59:55Z</time>
      </trkpt>
      <trkpt lat="40.7830380" lon="-2.1185040">
        <ele>976.2</ele>
        <time>2019-07-06T06:59:57Z</time>
      </trkpt>
      <trkpt lat="40.7830450" lon="-2.1186990">
        <ele>975.6</ele>
        <time>2019-07-06T07:00:00Z</time>
      </trkpt>
      <trkpt lat="40.7830370" lon="-2.1188390">
        <ele>975.4</ele>
        <time>2019-07-06T07:00:02Z</time>
      </trkpt>
      <trkpt lat="40.7830250" lon="-2.1189880">
        <ele>975.2</ele>
        <time>2019-07-06T07:00:04Z</time>
      </trkpt>
      <trkpt lat="40.7830130" lon="-2.1190610">
        <ele>975.0</ele>
        <time>2019-07-06T07:00:05Z</time>
      </trkpt>
      <trkpt lat="40.7829980" lon="-2.1191360">
        <ele>974.8</ele>
        <time>2019-07-06T07:00:06Z</time>
      </trkpt>
      <trkpt lat="40.7829840" lon="-2.1192110">
        <ele>974.6</ele>
        <time>2019-07-06T07:00:07Z</time>
      </trkpt>
      <trkpt lat="40.7829580" lon="-2.1193630">
        <ele>974.2</ele>
        <time>2019-07-06T07:00:09Z</time>
      </trkpt>
      <trkpt lat="40.7829340" lon="-2.1195110">
        <ele>974.2</ele>
        <time>2019-07-06T07:00:11Z</time>
      </trkpt>
      <trkpt lat="40.7829230" lon="-2.1195880">
        <ele>974.2</ele>
        <time>2019-07-06T07:00:12Z</time>
      </trkpt>
      <trkpt lat="40.7828920" lon="-2.1198600">
        <ele>974.4</ele>
        <time>2019-07-06T07:00:16Z</time>
      </trkpt>
      <trkpt lat="40.7828790" lon="-2.1199230">
        <ele>974.2</ele>
        <time>2019-07-06T07:00:17Z</time>
      </trkpt>
      <trkpt lat="40.7828290" lon="-2.1201410">
        <ele>976.0</ele>
        <time>2019-07-06T07:00:21Z</time>
      </trkpt>
      <trkpt lat="40.7828130" lon="-2.1201940">
        <ele>976.2</ele>
        <time>2019-07-06T07:00:22Z</time>
      </trkpt>
      <trkpt lat="40.7827940" lon="-2.1202470">
        <ele>976.4</ele>
        <time>2019-07-06T07:00:23Z</time>
      </trkpt>
      <trkpt lat="40.7826830" lon="-2.1205300">
        <ele>976.8</ele>
        <time>2019-07-06T07:00:28Z</time>
      </trkpt>
      <trkpt lat="40.7826220" lon="-2.1207110">
        <ele>976.6</ele>
        <time>2019-07-06T07:00:31Z</time>
      </trkpt>
      <trkpt lat="40.7825800" lon="-2.1208460">
        <ele>976.4</ele>
        <time>2019-07-06T07:00:33Z</time>
      </trkpt>
      <trkpt lat="40.7825520" lon="-2.1209820">
        <ele>976.2</ele>
        <time>2019-07-06T07:00:35Z</time>
      </trkpt>
      <trkpt lat="40.7825280" lon="-2.1211130">
        <ele>975.8</ele>
        <time>2019-07-06T07:00:37Z</time>
      </trkpt>
      <trkpt lat="40.7825080" lon="-2.1211810">
        <ele>975.6</ele>
        <time>2019-07-06T07:00:38Z</time>
      </trkpt>
      <trkpt lat="40.7824690" lon="-2.1213230">
        <ele>975.2</ele>
        <time>2019-07-06T07:00:40Z</time>
      </trkpt>
      <trkpt lat="40.7824460" lon="-2.1214770">
        <ele>974.8</ele>
        <time>2019-07-06T07:00:42Z</time>
      </trkpt>
      <trkpt lat="40.7824320" lon="-2.1215570">
        <ele>974.6</ele>
        <time>2019-07-06T07:00:43Z</time>
      </trkpt>
      <trkpt lat="40.7823960" lon="-2.1217080">
        <ele>974.4</ele>
        <time>2019-07-06T07:00:45Z</time>
      </trkpt>
      <trkpt lat="40.7823220" lon="-2.1219250">
        <ele>973.8</ele>
        <time>2019-07-06T07:00:48Z</time>
      </trkpt>
      <trkpt lat="40.7822520" lon="-2.1222080">
        <ele>973.2</ele>
        <time>2019-07-06T07:00:52Z</time>
      </trkpt>
      <trkpt lat="40.7822420" lon="-2.1222340">
        <ele>973.0</ele>
        <time>2019-07-06T07:00:53Z</time>
      </trkpt>
      <trkpt lat="40.7822400" lon="-2.1222480">
        <ele>972.6</ele>
        <time>2019-07-06T07:00:55Z</time>
      </trkpt>
      <trkpt lat="40.7822440" lon="-2.1222930">
        <ele>971.8</ele>
        <time>2019-07-06T07:04:47Z</time>
      </trkpt>
      <trkpt lat="40.7822380" lon="-2.1223250">
        <ele>972.0</ele>
        <time>2019-07-06T07:04:48Z</time>
      </trkpt>
      <trkpt lat="40.7822290" lon="-2.1223640">
        <ele>972.0</ele>
        <time>2019-07-06T07:04:49Z</time>
      </trkpt>
      <trkpt lat="40.7822160" lon="-2.1224640">
        <ele>971.8</ele>
        <time>2019-07-06T07:04:51Z</time>
      </trkpt>
      <trkpt lat="40.7822120" lon="-2.1225260">
        <ele>971.8</ele>
        <time>2019-07-06T07:04:52Z</time>
      </trkpt>
      <trkpt lat="40.7822060" lon="-2.1225930">
        <ele>971.4</ele>
        <time>2019-07-06T07:04:53Z</time>
      </trkpt>
      <trkpt lat="40.7821890" lon="-2.1227360">
        <ele>970.8</ele>
        <time>2019-07-06T07:04:55Z</time>
      </trkpt>
      <trkpt lat="40.7821350" lon="-2.1230650">
        <ele>969.6</ele>
        <time>2019-07-06T07:04:59Z</time>
      </trkpt>
      <trkpt lat="40.7820560" lon="-2.1234200">
        <ele>968.4</ele>
        <time>2019-07-06T07:05:03Z</time>
      </trkpt>
      <trkpt lat="40.7820140" lon="-2.1235920">
        <ele>968.2</ele>
        <time>2019-07-06T07:05:05Z</time>
      </trkpt>
      <trkpt lat="40.7820010" lon="-2.1236790">
        <ele>968.0</ele>
        <time>2019-07-06T07:05:06Z</time>
      </trkpt>
      <trkpt lat="40.7819790" lon="-2.1239440">
        <ele>967.8</ele>
        <time>2019-07-06T07:05:09Z</time>
      </trkpt>
      <trkpt lat="40.7819810" lon="-2.1240280">
        <ele>967.8</ele>
        <time>2019-07-06T07:05:10Z</time>
      </trkpt>
      <trkpt lat="40.7819860" lon="-2.1241050">
        <ele>967.8</ele>
        <time>2019-07-06T07:05:11Z</time>
      </trkpt>
      <trkpt lat="40.7820200" lon="-2.1243190">
        <ele>967.6</ele>
        <time>2019-07-06T07:05:14Z</time>
      </trkpt>
      <trkpt lat="40.7820350" lon="-2.1243900">
        <ele>967.6</ele>
        <time>2019-07-06T07:05:15Z</time>
      </trkpt>
      <trkpt lat="40.7820580" lon="-2.1245320">
        <ele>967.4</ele>
        <time>2019-07-06T07:05:17Z</time>
      </trkpt>
      <trkpt lat="40.7820750" lon="-2.1246930">
        <ele>967.6</ele>
        <time>2019-07-06T07:05:19Z</time>
      </trkpt>
      <trkpt lat="40.7820850" lon="-2.1247700">
        <ele>967.6</ele>
        <time>2019-07-06T07:05:20Z</time>
      </trkpt>
      <trkpt lat="40.7821040" lon="-2.1249150">
        <ele>967.4</ele>
        <time>2019-07-06T07:05:22Z</time>
      </trkpt>
      <trkpt lat="40.7821120" lon="-2.1250620">
        <ele>967.6</ele>
        <time>2019-07-06T07:05:24Z</time>
      </trkpt>
      <trkpt lat="40.7821110" lon="-2.1252130">
        <ele>967.8</ele>
        <time>2019-07-06T07:05:26Z</time>
      </trkpt>
      <trkpt lat="40.7821180" lon="-2.1255880">
        <ele>968.2</ele>
        <time>2019-07-06T07:05:31Z</time>
      </trkpt>
      <trkpt lat="40.7821240" lon="-2.1256530">
        <ele>968.6</ele>
        <time>2019-07-06T07:05:32Z</time>
      </trkpt>
      <trkpt lat="40.7821390" lon="-2.1257840">
        <ele>969.0</ele>
        <time>2019-07-06T07:05:34Z</time>
      </trkpt>
      <trkpt lat="40.7821590" lon="-2.1259750">
        <ele>969.4</ele>
        <time>2019-07-06T07:05:37Z</time>
      </trkpt>
      <trkpt lat="40.7821680" lon="-2.1260290">
        <ele>969.6</ele>
        <time>2019-07-06T07:05:38Z</time>
      </trkpt>
      <trkpt lat="40.7821840" lon="-2.1261400">
        <ele>970.2</ele>
        <time>2019-07-06T07:05:40Z</time>
      </trkpt>
      <trkpt lat="40.7822150" lon="-2.1263050">
        <ele>970.6</ele>
        <time>2019-07-06T07:05:43Z</time>
      </trkpt>
      <trkpt lat="40.7822250" lon="-2.1263640">
        <ele>971.0</ele>
        <time>2019-07-06T07:05:44Z</time>
      </trkpt>
      <trkpt lat="40.7822360" lon="-2.1264230">
        <ele>971.2</ele>
        <time>2019-07-06T07:05:45Z</time>
      </trkpt>
      <trkpt lat="40.7822570" lon="-2.1265330">
        <ele>971.6</ele>
        <time>2019-07-06T07:05:47Z</time>
      </trkpt>
      <trkpt lat="40.7822750" lon="-2.1266380">
        <ele>971.6</ele>
        <time>2019-07-06T07:05:49Z</time>
      </trkpt>
      <trkpt lat="40.7822840" lon="-2.1266880">
        <ele>971.6</ele>
        <time>2019-07-06T07:05:50Z</time>
      </trkpt>
      <trkpt lat="40.7823180" lon="-2.1268570">
        <ele>971.4</ele>
        <time>2019-07-06T07:05:53Z</time>
      </trkpt>
      <trkpt lat="40.7823320" lon="-2.1269900">
        <ele>971.4</ele>
        <time>2019-07-06T07:05:55Z</time>
      </trkpt>
      <trkpt lat="40.7823680" lon="-2.1272670">
        <ele>971.6</ele>
        <time>2019-07-06T07:05:59Z</time>
      </trkpt>
      <trkpt lat="40.7823770" lon="-2.1273400">
        <ele>971.6</ele>
        <time>2019-07-06T07:06:00Z</time>
      </trkpt>
      <trkpt lat="40.7824240" lon="-2.1276940">
        <ele>971.0</ele>
        <time>2019-07-06T07:06:05Z</time>
      </trkpt>
      <trkpt lat="40.7824350" lon="-2.1277630">
        <ele>971.0</ele>
        <time>2019-07-06T07:06:06Z</time>
      </trkpt>
      <trkpt lat="40.7824800" lon="-2.1279640">
        <ele>971.2</ele>
        <time>2019-07-06T07:06:09Z</time>
      </trkpt>
      <trkpt lat="40.7825080" lon="-2.1281930">
        <ele>971.0</ele>
        <time>2019-07-06T07:06:12Z</time>
      </trkpt>
      <trkpt lat="40.7825190" lon="-2.1283440">
        <ele>971.0</ele>
        <time>2019-07-06T07:06:14Z</time>
      </trkpt>
      <trkpt lat="40.7825310" lon="-2.1284900">
        <ele>971.0</ele>
        <time>2019-07-06T07:06:16Z</time>
      </trkpt>
      <trkpt lat="40.7825420" lon="-2.1285730">
        <ele>971.0</ele>
        <time>2019-07-06T07:06:17Z</time>
      </trkpt>
      <trkpt lat="40.7825580" lon="-2.1287220">
        <ele>971.0</ele>
        <time>2019-07-06T07:06:19Z</time>
      </trkpt>
      <trkpt lat="40.7825630" lon="-2.1288000">
        <ele>971.0</ele>
        <time>2019-07-06T07:06:20Z</time>
      </trkpt>
      <trkpt lat="40.7825630" lon="-2.1288780">
        <ele>971.0</ele>
        <time>2019-07-06T07:06:21Z</time>
      </trkpt>
      <trkpt lat="40.7825420" lon="-2.1290430">
        <ele>970.6</ele>
        <time>2019-07-06T07:06:23Z</time>
      </trkpt>
      <trkpt lat="40.7824740" lon="-2.1292160">
        <ele>969.6</ele>
        <time>2019-07-06T07:06:25Z</time>
      </trkpt>
      <trkpt lat="40.7823910" lon="-2.1294040">
        <ele>968.8</ele>
        <time>2019-07-06T07:06:27Z</time>
      </trkpt>
      <trkpt lat="40.7823550" lon="-2.1295040">
        <ele>968.4</ele>
        <time>2019-07-06T07:06:28Z</time>
      </trkpt>
      <trkpt lat="40.7823080" lon="-2.1297040">
        <ele>968.0</ele>
        <time>2019-07-06T07:06:30Z</time>
      </trkpt>
      <trkpt lat="40.7823000" lon="-2.1298110">
        <ele>967.8</ele>
        <time>2019-07-06T07:06:31Z</time>
      </trkpt>
      <trkpt lat="40.7823170" lon="-2.1300210">
        <ele>966.6</ele>
        <time>2019-07-06T07:06:33Z</time>
      </trkpt>
      <trkpt lat="40.7823340" lon="-2.1301220">
        <ele>966.2</ele>
        <time>2019-07-06T07:06:34Z</time>
      </trkpt>
      <trkpt lat="40.7823510" lon="-2.1302200">
        <ele>966.0</ele>
        <time>2019-07-06T07:06:35Z</time>
      </trkpt>
      <trkpt lat="40.7823660" lon="-2.1303200">
        <ele>965.6</ele>
        <time>2019-07-06T07:06:36Z</time>
      </trkpt>
      <trkpt lat="40.7823770" lon="-2.1304220">
        <ele>965.4</ele>
        <time>2019-07-06T07:06:37Z</time>
      </trkpt>
      <trkpt lat="40.7824020" lon="-2.1307150">
        <ele>965.2</ele>
        <time>2019-07-06T07:06:40Z</time>
      </trkpt>
      <trkpt lat="40.7824140" lon="-2.1309060">
        <ele>965.2</ele>
        <time>2019-07-06T07:06:42Z</time>
      </trkpt>
      <trkpt lat="40.7824150" lon="-2.1310920">
        <ele>964.6</ele>
        <time>2019-07-06T07:06:44Z</time>
      </trkpt>
      <trkpt lat="40.7824110" lon="-2.1311850">
        <ele>964.6</ele>
        <time>2019-07-06T07:06:45Z</time>
      </trkpt>
      <trkpt lat="40.7824050" lon="-2.1312780">
        <ele>964.4</ele>
        <time>2019-07-06T07:06:46Z</time>
      </trkpt>
      <trkpt lat="40.7823820" lon="-2.1317150">
        <ele>963.4</ele>
        <time>2019-07-06T07:06:51Z</time>
      </trkpt>
      <trkpt lat="40.7823780" lon="-2.1317980">
        <ele>963.2</ele>
        <time>2019-07-06T07:06:52Z</time>
      </trkpt>
      <trkpt lat="40.7823570" lon="-2.1320460">
        <ele>963.2</ele>
        <time>2019-07-06T07:06:55Z</time>
      </trkpt>
      <trkpt lat="40.7823390" lon="-2.1322190">
        <ele>963.0</ele>
        <time>2019-07-06T07:06:57Z</time>
      </trkpt>
      <trkpt lat="40.7823260" lon="-2.1323090">
        <ele>963.2</ele>
        <time>2019-07-06T07:06:58Z</time>
      </trkpt>
      <trkpt lat="40.7822910" lon="-2.1325780">
        <ele>962.6</ele>
        <time>2019-07-06T07:07:01Z</time>
      </trkpt>
      <trkpt lat="40.7822390" lon="-2.1329320">
        <ele>962.2</ele>
        <time>2019-07-06T07:07:05Z</time>
      </trkpt>
      <trkpt lat="40.7821500" lon="-2.1333470">
        <ele>961.6</ele>
        <time>2019-07-06T07:07:10Z</time>
      </trkpt>
      <trkpt lat="40.7821310" lon="-2.1334240">
        <ele>961.4</ele>
        <time>2019-07-06T07:07:11Z</time>
      </trkpt>
      <trkpt lat="40.7821060" lon="-2.1334970">
        <ele>961.4</ele>
        <time>2019-07-06T07:07:12Z</time>
      </trkpt>
      <trkpt lat="40.7820590" lon="-2.1336340">
        <ele>961.4</ele>
        <time>2019-07-06T07:07:14Z</time>
      </trkpt>
      <trkpt lat="40.7819850" lon="-2.1338370">
        <ele>961.6</ele>
        <time>2019-07-06T07:07:17Z</time>
      </trkpt>
      <trkpt lat="40.7819400" lon="-2.1339470">
        <ele>961.8</ele>
        <time>2019-07-06T07:07:19Z</time>
      </trkpt>
      <trkpt lat="40.7818920" lon="-2.1340540">
        <ele>962.2</ele>
        <time>2019-07-06T07:07:21Z</time>
      </trkpt>
      <trkpt lat="40.7818410" lon="-2.1341610">
        <ele>962.4</ele>
        <time>2019-07-06T07:07:23Z</time>
      </trkpt>
      <trkpt lat="40.7818190" lon="-2.1342190">
        <ele>962.6</ele>
        <time>2019-07-06T07:07:24Z</time>
      </trkpt>
      <trkpt lat="40.7817930" lon="-2.1342780">
        <ele>962.8</ele>
        <time>2019-07-06T07:07:25Z</time>
      </trkpt>
      <trkpt lat="40.7817450" lon="-2.1344590">
        <ele>963.0</ele>
        <time>2019-07-06T07:07:28Z</time>
      </trkpt>
      <trkpt lat="40.7817880" lon="-2.1347060">
        <ele>963.4</ele>
        <time>2019-07-06T07:07:32Z</time>
      </trkpt>
      <trkpt lat="40.7818090" lon="-2.1347640">
        <ele>963.6</ele>
        <time>2019-07-06T07:07:33Z</time>
      </trkpt>
      <trkpt lat="40.7818280" lon="-2.1348260">
        <ele>963.8</ele>
        <time>2019-07-06T07:07:34Z</time>
      </trkpt>
      <trkpt lat="40.7818460" lon="-2.1349730">
        <ele>963.8</ele>
        <time>2019-07-06T07:07:36Z</time>
      </trkpt>
      <trkpt lat="40.7818370" lon="-2.1352040">
        <ele>963.8</ele>
        <time>2019-07-06T07:07:39Z</time>
      </trkpt>
      <trkpt lat="40.7818290" lon="-2.1352850">
        <ele>963.8</ele>
        <time>2019-07-06T07:07:40Z</time>
      </trkpt>
      <trkpt lat="40.7817890" lon="-2.1355350">
        <ele>963.0</ele>
        <time>2019-07-06T07:07:43Z</time>
      </trkpt>
      <trkpt lat="40.7817790" lon="-2.1356190">
        <ele>962.8</ele>
        <time>2019-07-06T07:07:44Z</time>
      </trkpt>
      <trkpt lat="40.7817710" lon="-2.1357030">
        <ele>962.8</ele>
        <time>2019-07-06T07:07:45Z</time>
      </trkpt>
      <trkpt lat="40.7817450" lon="-2.1360150">
        <ele>962.8</ele>
        <time>2019-07-06T07:07:49Z</time>
      </trkpt>
      <trkpt lat="40.7817420" lon="-2.1360870">
        <ele>962.8</ele>
        <time>2019-07-06T07:07:50Z</time>
      </trkpt>
      <trkpt lat="40.7817370" lon="-2.1363030">
        <ele>963.0</ele>
        <time>2019-07-06T07:07:53Z</time>
      </trkpt>
      <trkpt lat="40.7817170" lon="-2.1365200">
        <ele>963.2</ele>
        <time>2019-07-06T07:07:56Z</time>
      </trkpt>
      <trkpt lat="40.7816950" lon="-2.1368460">
        <ele>964.2</ele>
        <time>2019-07-06T07:08:01Z</time>
      </trkpt>
      <trkpt lat="40.7816830" lon="-2.1370710">
        <ele>965.4</ele>
        <time>2019-07-06T07:08:05Z</time>
      </trkpt>
      <trkpt lat="40.7816890" lon="-2.1372330">
        <ele>966.0</ele>
        <time>2019-07-06T07:08:08Z</time>
      </trkpt>
      <trkpt lat="40.7816930" lon="-2.1372820">
        <ele>966.8</ele>
        <time>2019-07-06T07:08:09Z</time>
      </trkpt>
      <trkpt lat="40.7817090" lon="-2.1373830">
        <ele>967.8</ele>
        <time>2019-07-06T07:08:11Z</time>
      </trkpt>
      <trkpt lat="40.7817150" lon="-2.1374280">
        <ele>968.0</ele>
        <time>2019-07-06T07:08:12Z</time>
      </trkpt>
      <trkpt lat="40.7817250" lon="-2.1375140">
        <ele>968.4</ele>
        <time>2019-07-06T07:08:14Z</time>
      </trkpt>
      <trkpt lat="40.7817410" lon="-2.1376420">
        <ele>969.2</ele>
        <time>2019-07-06T07:08:17Z</time>
      </trkpt>
      <trkpt lat="40.7817590" lon="-2.1377580">
        <ele>970.0</ele>
        <time>2019-07-06T07:08:20Z</time>
      </trkpt>
      <trkpt lat="40.7817650" lon="-2.1377970">
        <ele>970.2</ele>
        <time>2019-07-06T07:08:21Z</time>
      </trkpt>
      <trkpt lat="40.7817930" lon="-2.1380020">
        <ele>971.0</ele>
        <time>2019-07-06T07:08:26Z</time>
      </trkpt>
      <trkpt lat="40.7817970" lon="-2.1380420">
        <ele>971.6</ele>
        <time>2019-07-06T07:08:27Z</time>
      </trkpt>
      <trkpt lat="40.7818120" lon="-2.1381670">
        <ele>972.8</ele>
        <time>2019-07-06T07:08:30Z</time>
      </trkpt>
      <trkpt lat="40.7818350" lon="-2.1382920">
        <ele>973.2</ele>
        <time>2019-07-06T07:08:33Z</time>
      </trkpt>
      <trkpt lat="40.7818690" lon="-2.1384490">
        <ele>973.8</ele>
        <time>2019-07-06T07:08:37Z</time>
      </trkpt>
      <trkpt lat="40.7819030" lon="-2.1385770">
        <ele>974.2</ele>
        <time>2019-07-06T07:08:40Z</time>
      </trkpt>
      <trkpt lat="40.7820080" lon="-2.1388520">
        <ele>974.8</ele>
        <time>2019-07-06T07:08:47Z</time>
      </trkpt>
      <trkpt lat="40.7821060" lon="-2.1390750">
        <ele>974.8</ele>
        <time>2019-07-06T07:08:52Z</time>
      </trkpt>
      <trkpt lat="40.7821240" lon="-2.1391260">
        <ele>974.6</ele>
        <time>2019-07-06T07:08:53Z</time>
      </trkpt>
      <trkpt lat="40.7821750" lon="-2.1393090">
        <ele>974.2</ele>
        <time>2019-07-06T07:08:56Z</time>
      </trkpt>
      <trkpt lat="40.7822120" lon="-2.1394390">
        <ele>973.6</ele>
        <time>2019-07-06T07:08:58Z</time>
      </trkpt>
      <trkpt lat="40.7822300" lon="-2.1395080">
        <ele>973.6</ele>
        <time>2019-07-06T07:08:59Z</time>
      </trkpt>
      <trkpt lat="40.7822450" lon="-2.1395780">
        <ele>973.6</ele>
        <time>2019-07-06T07:09:00Z</time>
      </trkpt>
      <trkpt lat="40.7822600" lon="-2.1396480">
        <ele>973.2</ele>
        <time>2019-07-06T07:09:01Z</time>
      </trkpt>
      <trkpt lat="40.7823010" lon="-2.1397840">
        <ele>973.0</ele>
        <time>2019-07-06T07:09:03Z</time>
      </trkpt>
      <trkpt lat="40.7823300" lon="-2.1398520">
        <ele>972.8</ele>
        <time>2019-07-06T07:09:04Z</time>
      </trkpt>
      <trkpt lat="40.7823630" lon="-2.1399190">
        <ele>972.6</ele>
        <time>2019-07-06T07:09:05Z</time>
      </trkpt>
      <trkpt lat="40.7823940" lon="-2.1399850">
        <ele>972.8</ele>
        <time>2019-07-06T07:09:06Z</time>
      </trkpt>
      <trkpt lat="40.7824640" lon="-2.1401100">
        <ele>972.4</ele>
        <time>2019-07-06T07:09:08Z</time>
      </trkpt>
      <trkpt lat="40.7825040" lon="-2.1401640">
        <ele>972.2</ele>
        <time>2019-07-06T07:09:09Z</time>
      </trkpt>
      <trkpt lat="40.7825860" lon="-2.1402620">
        <ele>971.8</ele>
        <time>2019-07-06T07:09:11Z</time>
      </trkpt>
      <trkpt lat="40.7826250" lon="-2.1403160">
        <ele>971.6</ele>
        <time>2019-07-06T07:09:12Z</time>
      </trkpt>
      <trkpt lat="40.7826580" lon="-2.1403800">
        <ele>971.2</ele>
        <time>2019-07-06T07:09:13Z</time>
      </trkpt>
      <trkpt lat="40.7826820" lon="-2.1404530">
        <ele>971.2</ele>
        <time>2019-07-06T07:09:14Z</time>
      </trkpt>
      <trkpt lat="40.7827010" lon="-2.1405290">
        <ele>970.8</ele>
        <time>2019-07-06T07:09:15Z</time>
      </trkpt>
      <trkpt lat="40.7827170" lon="-2.1406090">
        <ele>970.8</ele>
        <time>2019-07-06T07:09:16Z</time>
      </trkpt>
      <trkpt lat="40.7827300" lon="-2.1406900">
        <ele>970.4</ele>
        <time>2019-07-06T07:09:17Z</time>
      </trkpt>
      <trkpt lat="40.7827480" lon="-2.1408460">
        <ele>970.0</ele>
        <time>2019-07-06T07:09:19Z</time>
      </trkpt>
      <trkpt lat="40.7827530" lon="-2.1409990">
        <ele>970.0</ele>
        <time>2019-07-06T07:09:21Z</time>
      </trkpt>
      <trkpt lat="40.7827420" lon="-2.1411510">
        <ele>970.2</ele>
        <time>2019-07-06T07:09:23Z</time>
      </trkpt>
      <trkpt lat="40.7827300" lon="-2.1412230">
        <ele>970.2</ele>
        <time>2019-07-06T07:09:24Z</time>
      </trkpt>
      <trkpt lat="40.7826010" lon="-2.1417320">
        <ele>970.0</ele>
        <time>2019-07-06T07:09:31Z</time>
      </trkpt>
      <trkpt lat="40.7824360" lon="-2.1421340">
        <ele>969.8</ele>
        <time>2019-07-06T07:09:37Z</time>
      </trkpt>
      <trkpt lat="40.7824040" lon="-2.1421970">
        <ele>969.8</ele>
        <time>2019-07-06T07:09:38Z</time>
      </trkpt>
      <trkpt lat="40.7823090" lon="-2.1424000">
        <ele>969.4</ele>
        <time>2019-07-06T07:09:41Z</time>
      </trkpt>
      <trkpt lat="40.7822850" lon="-2.1424770">
        <ele>969.2</ele>
        <time>2019-07-06T07:09:42Z</time>
      </trkpt>
      <trkpt lat="40.7822480" lon="-2.1426350">
        <ele>969.2</ele>
        <time>2019-07-06T07:09:44Z</time>
      </trkpt>
      <trkpt lat="40.7822430" lon="-2.1427900">
        <ele>969.0</ele>
        <time>2019-07-06T07:09:46Z</time>
      </trkpt>
      <trkpt lat="40.7822560" lon="-2.1431080">
        <ele>969.2</ele>
        <time>2019-07-06T07:09:50Z</time>
      </trkpt>
      <trkpt lat="40.7822600" lon="-2.1431880">
        <ele>969.2</ele>
        <time>2019-07-06T07:09:51Z</time>
      </trkpt>
      <trkpt lat="40.7822690" lon="-2.1432670">
        <ele>969.2</ele>
        <time>2019-07-06T07:09:52Z</time>
      </trkpt>
      <trkpt lat="40.7823540" lon="-2.1437270">
        <ele>969.2</ele>
        <time>2019-07-06T07:09:58Z</time>
      </trkpt>
      <trkpt lat="40.7823730" lon="-2.1438000">
        <ele>969.4</ele>
        <time>2019-07-06T07:09:59Z</time>
      </trkpt>
      <trkpt lat="40.7824040" lon="-2.1439420">
        <ele>969.2</ele>
        <time>2019-07-06T07:10:01Z</time>
      </trkpt>
      <trkpt lat="40.7824430" lon="-2.1441550">
        <ele>968.4</ele>
        <time>2019-07-06T07:10:04Z</time>
      </trkpt>
      <trkpt lat="40.7824470" lon="-2.1442250">
        <ele>968.0</ele>
        <time>2019-07-06T07:10:05Z</time>
      </trkpt>
      <trkpt lat="40.7824400" lon="-2.1443740">
        <ele>967.8</ele>
        <time>2019-07-06T07:10:07Z</time>
      </trkpt>
      <trkpt lat="40.7824150" lon="-2.1445200">
        <ele>967.6</ele>
        <time>2019-07-06T07:10:09Z</time>
      </trkpt>
      <trkpt lat="40.7823980" lon="-2.1445930">
        <ele>967.6</ele>
        <time>2019-07-06T07:10:10Z</time>
      </trkpt>
      <trkpt lat="40.7823400" lon="-2.1449640">
        <ele>968.2</ele>
        <time>2019-07-06T07:10:15Z</time>
      </trkpt>
      <trkpt lat="40.7823410" lon="-2.1450360">
        <ele>968.0</ele>
        <time>2019-07-06T07:10:16Z</time>
      </trkpt>
      <trkpt lat="40.7823470" lon="-2.1451850">
        <ele>967.4</ele>
        <time>2019-07-06T07:10:18Z</time>
      </trkpt>
      <trkpt lat="40.7823580" lon="-2.1454280">
        <ele>967.2</ele>
        <time>2019-07-06T07:10:21Z</time>
      </trkpt>
      <trkpt lat="40.7823860" lon="-2.1458180">
        <ele>967.0</ele>
        <time>2019-07-06T07:10:26Z</time>
      </trkpt>
      <trkpt lat="40.7823980" lon="-2.1458960">
        <ele>967.0</ele>
        <time>2019-07-06T07:10:27Z</time>
      </trkpt>
      <trkpt lat="40.7824310" lon="-2.1461400">
        <ele>966.4</ele>
        <time>2019-07-06T07:10:30Z</time>
      </trkpt>
      <trkpt lat="40.7824480" lon="-2.1463080">
        <ele>965.0</ele>
        <time>2019-07-06T07:10:32Z</time>
      </trkpt>
      <trkpt lat="40.7824520" lon="-2.1463980">
        <ele>964.6</ele>
        <time>2019-07-06T07:10:33Z</time>
      </trkpt>
      <trkpt lat="40.7824520" lon="-2.1464910">
        <ele>964.2</ele>
        <time>2019-07-06T07:10:34Z</time>
      </trkpt>
      <trkpt lat="40.7824440" lon="-2.1465860">
        <ele>963.8</ele>
        <time>2019-07-06T07:10:35Z</time>
      </trkpt>
      <trkpt lat="40.7824070" lon="-2.1467780">
        <ele>962.8</ele>
        <time>2019-07-06T07:10:37Z</time>
      </trkpt>
      <trkpt lat="40.7823830" lon="-2.1468700">
        <ele>962.6</ele>
        <time>2019-07-06T07:10:38Z</time>
      </trkpt>
      <trkpt lat="40.7823310" lon="-2.1470390">
        <ele>962.2</ele>
        <time>2019-07-06T07:10:40Z</time>
      </trkpt>
      <trkpt lat="40.7822950" lon="-2.1471980">
        <ele>961.8</ele>
        <time>2019-07-06T07:10:42Z</time>
      </trkpt>
      <trkpt lat="40.7823060" lon="-2.1475010">
        <ele>961.8</ele>
        <time>2019-07-06T07:10:46Z</time>
      </trkpt>
      <trkpt lat="40.7823720" lon="-2.1477160">
        <ele>961.4</ele>
        <time>2019-07-06T07:10:49Z</time>
      </trkpt>
      <trkpt lat="40.7823990" lon="-2.1477870">
        <ele>961.0</ele>
        <time>2019-07-06T07:10:50Z</time>
      </trkpt>
      <trkpt lat="40.7824310" lon="-2.1478580">
        <ele>960.8</ele>
        <time>2019-07-06T07:10:51Z</time>
      </trkpt>
      <trkpt lat="40.7825000" lon="-2.1480080">
        <ele>960.2</ele>
        <time>2019-07-06T07:10:53Z</time>
      </trkpt>
      <trkpt lat="40.7825980" lon="-2.1482460">
        <ele>959.6</ele>
        <time>2019-07-06T07:10:56Z</time>
      </trkpt>
      <trkpt lat="40.7826230" lon="-2.1483300">
        <ele>959.4</ele>
        <time>2019-07-06T07:10:57Z</time>
      </trkpt>
      <trkpt lat="40.7826600" lon="-2.1485060">
        <ele>959.2</ele>
        <time>2019-07-06T07:10:59Z</time>
      </trkpt>
      <trkpt lat="40.7827090" lon="-2.1488360">
        <ele>958.4</ele>
        <time>2019-07-06T07:11:03Z</time>
      </trkpt>
      <trkpt lat="40.7827250" lon="-2.1489860">
        <ele>958.4</ele>
        <time>2019-07-06T07:11:05Z</time>
      </trkpt>
      <trkpt lat="40.7827320" lon="-2.1490640">
        <ele>958.2</ele>
        <time>2019-07-06T07:11:06Z</time>
      </trkpt>
      <trkpt lat="40.7827390" lon="-2.1491420">
        <ele>958.0</ele>
        <time>2019-07-06T07:11:07Z</time>
      </trkpt>
      <trkpt lat="40.7827470" lon="-2.1492180">
        <ele>958.0</ele>
        <time>2019-07-06T07:11:08Z</time>
      </trkpt>
      <trkpt lat="40.7828110" lon="-2.1494360">
        <ele>958.0</ele>
        <time>2019-07-06T07:11:11Z</time>
      </trkpt>
      <trkpt lat="40.7829620" lon="-2.1497820">
        <ele>958.0</ele>
        <time>2019-07-06T07:11:16Z</time>
      </trkpt>
      <trkpt lat="40.7831380" lon="-2.1502470">
        <ele>957.4</ele>
        <time>2019-07-06T07:11:22Z</time>
      </trkpt>
      <trkpt lat="40.7831700" lon="-2.1503220">
        <ele>957.0</ele>
        <time>2019-07-06T07:11:23Z</time>
      </trkpt>
      <trkpt lat="40.7832040" lon="-2.1503930">
        <ele>956.8</ele>
        <time>2019-07-06T07:11:24Z</time>
      </trkpt>
      <trkpt lat="40.7833210" lon="-2.1506250">
        <ele>955.8</ele>
        <time>2019-07-06T07:11:27Z</time>
      </trkpt>
      <trkpt lat="40.7834040" lon="-2.1507710">
        <ele>954.6</ele>
        <time>2019-07-06T07:11:29Z</time>
      </trkpt>
      <trkpt lat="40.7834890" lon="-2.1509150">
        <ele>953.6</ele>
        <time>2019-07-06T07:11:31Z</time>
      </trkpt>
      <trkpt lat="40.7835590" lon="-2.1510800">
        <ele>952.8</ele>
        <time>2019-07-06T07:11:33Z</time>
      </trkpt>
      <trkpt lat="40.7835890" lon="-2.1511650">
        <ele>952.6</ele>
        <time>2019-07-06T07:11:34Z</time>
      </trkpt>
      <trkpt lat="40.7836410" lon="-2.1513470">
        <ele>951.4</ele>
        <time>2019-07-06T07:11:36Z</time>
      </trkpt>
      <trkpt lat="40.7836810" lon="-2.1515090">
        <ele>950.6</ele>
        <time>2019-07-06T07:11:38Z</time>
      </trkpt>
      <trkpt lat="40.7836920" lon="-2.1515750">
        <ele>950.4</ele>
        <time>2019-07-06T07:11:39Z</time>
      </trkpt>
      <trkpt lat="40.7836960" lon="-2.1516330">
        <ele>950.2</ele>
        <time>2019-07-06T07:11:40Z</time>
      </trkpt>
      <trkpt lat="40.7836940" lon="-2.1517400">
        <ele>949.8</ele>
        <time>2019-07-06T07:11:42Z</time>
      </trkpt>
      <trkpt lat="40.7836820" lon="-2.1517930">
        <ele>949.8</ele>
        <time>2019-07-06T07:11:43Z</time>
      </trkpt>
      <trkpt lat="40.7836310" lon="-2.1518940">
        <ele>949.4</ele>
        <time>2019-07-06T07:11:45Z</time>
      </trkpt>
      <trkpt lat="40.7835940" lon="-2.1519420">
        <ele>949.2</ele>
        <time>2019-07-06T07:11:46Z</time>
      </trkpt>
      <trkpt lat="40.7835530" lon="-2.1519930">
        <ele>949.2</ele>
        <time>2019-07-06T07:11:47Z</time>
      </trkpt>
      <trkpt lat="40.7834430" lon="-2.1521540">
        <ele>948.4</ele>
        <time>2019-07-06T07:11:50Z</time>
      </trkpt>
      <trkpt lat="40.7834100" lon="-2.1522140">
        <ele>948.2</ele>
        <time>2019-07-06T07:11:51Z</time>
      </trkpt>
      <trkpt lat="40.7833310" lon="-2.1524410">
        <ele>946.4</ele>
        <time>2019-07-06T07:11:54Z</time>
      </trkpt>
      <trkpt lat="40.7833200" lon="-2.1526080">
        <ele>945.2</ele>
        <time>2019-07-06T07:11:56Z</time>
      </trkpt>
      <trkpt lat="40.7833200" lon="-2.1526910">
        <ele>944.8</ele>
        <time>2019-07-06T07:11:57Z</time>
      </trkpt>
      <trkpt lat="40.7833260" lon="-2.1527800">
        <ele>944.4</ele>
        <time>2019-07-06T07:11:58Z</time>
      </trkpt>
      <trkpt lat="40.7833380" lon="-2.1528680">
        <ele>943.8</ele>
        <time>2019-07-06T07:11:59Z</time>
      </trkpt>
      <trkpt lat="40.7833840" lon="-2.1530850">
        <ele>942.2</ele>
        <time>2019-07-06T07:12:02Z</time>
      </trkpt>
      <trkpt lat="40.7834000" lon="-2.1531310">
        <ele>941.4</ele>
        <time>2019-07-06T07:12:03Z</time>
      </trkpt>
      <trkpt lat="40.7834200" lon="-2.1531740">
        <ele>941.0</ele>
        <time>2019-07-06T07:12:04Z</time>
      </trkpt>
      <trkpt lat="40.7834420" lon="-2.1532170">
        <ele>940.8</ele>
        <time>2019-07-06T07:12:05Z</time>
      </trkpt>
      <trkpt lat="40.7835500" lon="-2.1533360">
        <ele>940.4</ele>
        <time>2019-07-06T07:12:08Z</time>
      </trkpt>
      <trkpt lat="40.7835930" lon="-2.1533850">
        <ele>939.8</ele>
        <time>2019-07-06T07:12:09Z</time>
      </trkpt>
      <trkpt lat="40.7836810" lon="-2.1534900">
        <ele>939.0</ele>
        <time>2019-07-06T07:12:11Z</time>
      </trkpt>
      <trkpt lat="40.7837830" lon="-2.1535880">
        <ele>938.6</ele>
        <time>2019-07-06T07:12:13Z</time>
      </trkpt>
      <trkpt lat="40.7838280" lon="-2.1536400">
        <ele>938.6</ele>
        <time>2019-07-06T07:12:14Z</time>
      </trkpt>
      <trkpt lat="40.7840360" lon="-2.1538220">
        <ele>938.0</ele>
        <time>2019-07-06T07:12:18Z</time>
      </trkpt>
      <trkpt lat="40.7840820" lon="-2.1538700">
        <ele>938.0</ele>
        <time>2019-07-06T07:12:19Z</time>
      </trkpt>
      <trkpt lat="40.7842320" lon="-2.1540240">
        <ele>938.6</ele>
        <time>2019-07-06T07:12:23Z</time>
      </trkpt>
      <trkpt lat="40.7842900" lon="-2.1540720">
        <ele>939.4</ele>
        <time>2019-07-06T07:12:25Z</time>
      </trkpt>
      <trkpt lat="40.7843390" lon="-2.1541130">
        <ele>939.8</ele>
        <time>2019-07-06T07:12:27Z</time>
      </trkpt>
      <trkpt lat="40.7843590" lon="-2.1541330">
        <ele>940.2</ele>
        <time>2019-07-06T07:12:28Z</time>
      </trkpt>
      <trkpt lat="40.7844000" lon="-2.1541710">
        <ele>941.0</ele>
        <time>2019-07-06T07:12:30Z</time>
      </trkpt>
      <trkpt lat="40.7844500" lon="-2.1542520">
        <ele>941.4</ele>
        <time>2019-07-06T07:12:33Z</time>
      </trkpt>
      <trkpt lat="40.7844670" lon="-2.1542800">
        <ele>941.6</ele>
        <time>2019-07-06T07:12:34Z</time>
      </trkpt>
      <trkpt lat="40.7844840" lon="-2.1543100">
        <ele>942.0</ele>
        <time>2019-07-06T07:12:35Z</time>
      </trkpt>
      <trkpt lat="40.7845360" lon="-2.1544480">
        <ele>942.8</ele>
        <time>2019-07-06T07:12:39Z</time>
      </trkpt>
      <trkpt lat="40.7845660" lon="-2.1545160">
        <ele>943.0</ele>
        <time>2019-07-06T07:12:41Z</time>
      </trkpt>
      <trkpt lat="40.7845860" lon="-2.1545410">
        <ele>943.2</ele>
        <time>2019-07-06T07:12:42Z</time>
      </trkpt>
      <trkpt lat="40.7846260" lon="-2.1545750">
        <ele>943.6</ele>
        <time>2019-07-06T07:12:44Z</time>
      </trkpt>
      <trkpt lat="40.7846650" lon="-2.1545750">
        <ele>943.8</ele>
        <time>2019-07-06T07:12:46Z</time>
      </trkpt>
      <trkpt lat="40.7847120" lon="-2.1545610">
        <ele>944.4</ele>
        <time>2019-07-06T07:12:48Z</time>
      </trkpt>
      <trkpt lat="40.7847730" lon="-2.1545030">
        <ele>945.2</ele>
        <time>2019-07-06T07:12:51Z</time>
      </trkpt>
      <trkpt lat="40.7848070" lon="-2.1544110">
        <ele>945.6</ele>
        <time>2019-07-06T07:12:54Z</time>
      </trkpt>
      <trkpt lat="40.7848200" lon="-2.1543770">
        <ele>946.0</ele>
        <time>2019-07-06T07:12:55Z</time>
      </trkpt>
      <trkpt lat="40.7848540" lon="-2.1543100">
        <ele>946.4</ele>
        <time>2019-07-06T07:12:57Z</time>
      </trkpt>
      <trkpt lat="40.7848870" lon="-2.1542480">
        <ele>946.6</ele>
        <time>2019-07-06T07:12:59Z</time>
      </trkpt>
      <trkpt lat="40.7849450" lon="-2.1541770">
        <ele>947.0</ele>
        <time>2019-07-06T07:13:02Z</time>
      </trkpt>
      <trkpt lat="40.7850050" lon="-2.1541120">
        <ele>947.8</ele>
        <time>2019-07-06T07:13:05Z</time>
      </trkpt>
      <trkpt lat="40.7850460" lon="-2.1540860">
        <ele>948.6</ele>
        <time>2019-07-06T07:13:07Z</time>
      </trkpt>
      <trkpt lat="40.7850690" lon="-2.1540820">
        <ele>948.8</ele>
        <time>2019-07-06T07:13:08Z</time>
      </trkpt>
      <trkpt lat="40.7851900" lon="-2.1540870">
        <ele>950.0</ele>
        <time>2019-07-06T07:13:13Z</time>
      </trkpt>
      <trkpt lat="40.7852680" lon="-2.1540940">
        <ele>950.6</ele>
        <time>2019-07-06T07:13:16Z</time>
      </trkpt>
      <trkpt lat="40.7852940" lon="-2.1541000">
        <ele>951.0</ele>
        <time>2019-07-06T07:13:17Z</time>
      </trkpt>
      <trkpt lat="40.7854320" lon="-2.1541550">
        <ele>952.2</ele>
        <time>2019-07-06T07:13:22Z</time>
      </trkpt>
      <trkpt lat="40.7854840" lon="-2.1541890">
        <ele>952.8</ele>
        <time>2019-07-06T07:13:24Z</time>
      </trkpt>
      <trkpt lat="40.7855620" lon="-2.1542560">
        <ele>953.4</ele>
        <time>2019-07-06T07:13:27Z</time>
      </trkpt>
      <trkpt lat="40.7856670" lon="-2.1543680">
        <ele>953.8</ele>
        <time>2019-07-06T07:13:31Z</time>
      </trkpt>
      <trkpt lat="40.7857560" lon="-2.1544780">
        <ele>953.8</ele>
        <time>2019-07-06T07:13:34Z</time>
      </trkpt>
      <trkpt lat="40.7858470" lon="-2.1546220">
        <ele>953.8</ele>
        <time>2019-07-06T07:13:37Z</time>
      </trkpt>
      <trkpt lat="40.7859340" lon="-2.1547760">
        <ele>953.8</ele>
        <time>2019-07-06T07:13:40Z</time>
      </trkpt>
      <trkpt lat="40.7859750" lon="-2.1549020">
        <ele>953.6</ele>
        <time>2019-07-06T07:13:42Z</time>
      </trkpt>
      <trkpt lat="40.7859900" lon="-2.1549720">
        <ele>953.2</ele>
        <time>2019-07-06T07:13:43Z</time>
      </trkpt>
      <trkpt lat="40.7860020" lon="-2.1550450">
        <ele>953.0</ele>
        <time>2019-07-06T07:13:44Z</time>
      </trkpt>
      <trkpt lat="40.7860130" lon="-2.1551190">
        <ele>952.8</ele>
        <time>2019-07-06T07:13:45Z</time>
      </trkpt>
      <trkpt lat="40.7860250" lon="-2.1552620">
        <ele>952.0</ele>
        <time>2019-07-06T07:13:47Z</time>
      </trkpt>
      <trkpt lat="40.7860340" lon="-2.1553330">
        <ele>951.4</ele>
        <time>2019-07-06T07:13:48Z</time>
      </trkpt>
      <trkpt lat="40.7860420" lon="-2.1554040">
        <ele>950.6</ele>
        <time>2019-07-06T07:13:49Z</time>
      </trkpt>
      <trkpt lat="40.7860550" lon="-2.1555440">
        <ele>950.0</ele>
        <time>2019-07-06T07:13:51Z</time>
      </trkpt>
      <trkpt lat="40.7860670" lon="-2.1556630">
        <ele>949.2</ele>
        <time>2019-07-06T07:13:53Z</time>
      </trkpt>
      <trkpt lat="40.7860800" lon="-2.1557150">
        <ele>948.4</ele>
        <time>2019-07-06T07:13:54Z</time>
      </trkpt>
      <trkpt lat="40.7860970" lon="-2.1557630">
        <ele>948.2</ele>
        <time>2019-07-06T07:13:55Z</time>
      </trkpt>
      <trkpt lat="40.7861390" lon="-2.1558610">
        <ele>947.2</ele>
        <time>2019-07-06T07:13:57Z</time>
      </trkpt>
      <trkpt lat="40.7862090" lon="-2.1559700">
        <ele>946.0</ele>
        <time>2019-07-06T07:13:59Z</time>
      </trkpt>
      <trkpt lat="40.7863000" lon="-2.1560910">
        <ele>945.2</ele>
        <time>2019-07-06T07:14:01Z</time>
      </trkpt>
      <trkpt lat="40.7863480" lon="-2.1561550">
        <ele>944.8</ele>
        <time>2019-07-06T07:14:02Z</time>
      </trkpt>
      <trkpt lat="40.7864480" lon="-2.1562940">
        <ele>944.2</ele>
        <time>2019-07-06T07:14:04Z</time>
      </trkpt>
      <trkpt lat="40.7865040" lon="-2.1563670">
        <ele>943.4</ele>
        <time>2019-07-06T07:14:05Z</time>
      </trkpt>
      <trkpt lat="40.7866270" lon="-2.1564930">
        <ele>941.6</ele>
        <time>2019-07-06T07:14:07Z</time>
      </trkpt>
      <trkpt lat="40.7866930" lon="-2.1565430">
        <ele>941.2</ele>
        <time>2019-07-06T07:14:08Z</time>
      </trkpt>
      <trkpt lat="40.7868220" lon="-2.1566280">
        <ele>940.4</ele>
        <time>2019-07-06T07:14:10Z</time>
      </trkpt>
      <trkpt lat="40.7868840" lon="-2.1566690">
        <ele>940.2</ele>
        <time>2019-07-06T07:14:11Z</time>
      </trkpt>
      <trkpt lat="40.7869890" lon="-2.1567760">
        <ele>939.8</ele>
        <time>2019-07-06T07:14:13Z</time>
      </trkpt>
      <trkpt lat="40.7870350" lon="-2.1568380">
        <ele>939.2</ele>
        <time>2019-07-06T07:14:14Z</time>
      </trkpt>
      <trkpt lat="40.7871350" lon="-2.1569550">
        <ele>938.8</ele>
        <time>2019-07-06T07:14:16Z</time>
      </trkpt>
      <trkpt lat="40.7872560" lon="-2.1570540">
        <ele>938.6</ele>
        <time>2019-07-06T07:14:18Z</time>
      </trkpt>
      <trkpt lat="40.7874590" lon="-2.1571890">
        <ele>938.2</ele>
        <time>2019-07-06T07:14:21Z</time>
      </trkpt>
      <trkpt lat="40.7875860" lon="-2.1572720">
        <ele>937.8</ele>
        <time>2019-07-06T07:14:23Z</time>
      </trkpt>
      <trkpt lat="40.7876460" lon="-2.1573080">
        <ele>937.2</ele>
        <time>2019-07-06T07:14:24Z</time>
      </trkpt>
      <trkpt lat="40.7877010" lon="-2.1573450">
        <ele>936.8</ele>
        <time>2019-07-06T07:14:25Z</time>
      </trkpt>
      <trkpt lat="40.7878010" lon="-2.1574020">
        <ele>936.4</ele>
        <time>2019-07-06T07:14:27Z</time>
      </trkpt>
      <trkpt lat="40.7878480" lon="-2.1574240">
        <ele>936.4</ele>
        <time>2019-07-06T07:14:28Z</time>
      </trkpt>
      <trkpt lat="40.7878930" lon="-2.1574450">
        <ele>936.2</ele>
        <time>2019-07-06T07:14:29Z</time>
      </trkpt>
      <trkpt lat="40.7879340" lon="-2.1574690">
        <ele>936.4</ele>
        <time>2019-07-06T07:14:30Z</time>
      </trkpt>
      <trkpt lat="40.7880000" lon="-2.1575120">
        <ele>937.8</ele>
        <time>2019-07-06T07:14:32Z</time>
      </trkpt>
      <trkpt lat="40.7880350" lon="-2.1575350">
        <ele>938.2</ele>
        <time>2019-07-06T07:14:33Z</time>
      </trkpt>
      <trkpt lat="40.7880730" lon="-2.1575530">
        <ele>938.6</ele>
        <time>2019-07-06T07:14:34Z</time>
      </trkpt>
      <trkpt lat="40.7881490" lon="-2.1575790">
        <ele>939.0</ele>
        <time>2019-07-06T07:14:36Z</time>
      </trkpt>
      <trkpt lat="40.7882250" lon="-2.1576170">
        <ele>939.6</ele>
        <time>2019-07-06T07:14:38Z</time>
      </trkpt>
      <trkpt lat="40.7882580" lon="-2.1576370">
        <ele>940.0</ele>
        <time>2019-07-06T07:14:39Z</time>
      </trkpt>
      <trkpt lat="40.7883940" lon="-2.1577010">
        <ele>940.2</ele>
        <time>2019-07-06T07:14:43Z</time>
      </trkpt>
      <trkpt lat="40.7884630" lon="-2.1577470">
        <ele>940.4</ele>
        <time>2019-07-06T07:14:45Z</time>
      </trkpt>
      <trkpt lat="40.7885220" lon="-2.1577850">
        <ele>940.8</ele>
        <time>2019-07-06T07:14:47Z</time>
      </trkpt>
      <trkpt lat="40.7885500" lon="-2.1578090">
        <ele>941.2</ele>
        <time>2019-07-06T07:14:48Z</time>
      </trkpt>
      <trkpt lat="40.7886330" lon="-2.1578910">
        <ele>942.2</ele>
        <time>2019-07-06T07:14:51Z</time>
      </trkpt>
      <trkpt lat="40.7886610" lon="-2.1579230">
        <ele>942.4</ele>
        <time>2019-07-06T07:14:52Z</time>
      </trkpt>
      <trkpt lat="40.7888040" lon="-2.1580610">
        <ele>943.2</ele>
        <time>2019-07-06T07:14:57Z</time>
      </trkpt>
      <trkpt lat="40.7888330" lon="-2.1580840">
        <ele>943.4</ele>
        <time>2019-07-06T07:14:58Z</time>
      </trkpt>
      <trkpt lat="40.7889460" lon="-2.1581940">
        <ele>944.4</ele>
        <time>2019-07-06T07:15:02Z</time>
      </trkpt>
      <trkpt lat="40.7890360" lon="-2.1583030">
        <ele>945.2</ele>
        <time>2019-07-06T07:15:05Z</time>
      </trkpt>
      <trkpt lat="40.7892260" lon="-2.1584830">
        <ele>945.2</ele>
        <time>2019-07-06T07:15:11Z</time>
      </trkpt>
      <trkpt lat="40.7892890" lon="-2.1585430">
        <ele>946.0</ele>
        <time>2019-07-06T07:15:13Z</time>
      </trkpt>
      <trkpt lat="40.7894200" lon="-2.1586600">
        <ele>946.6</ele>
        <time>2019-07-06T07:15:17Z</time>
      </trkpt>
      <trkpt lat="40.7894850" lon="-2.1587190">
        <ele>947.0</ele>
        <time>2019-07-06T07:15:19Z</time>
      </trkpt>
      <trkpt lat="40.7896500" lon="-2.1588610">
        <ele>948.0</ele>
        <time>2019-07-06T07:15:24Z</time>
      </trkpt>
      <trkpt lat="40.7896850" lon="-2.1588890">
        <ele>948.2</ele>
        <time>2019-07-06T07:15:25Z</time>
      </trkpt>
      <trkpt lat="40.7897190" lon="-2.1589170">
        <ele>948.4</ele>
        <time>2019-07-06T07:15:26Z</time>
      </trkpt>
      <trkpt lat="40.7898610" lon="-2.1590160">
        <ele>949.4</ele>
        <time>2019-07-06T07:15:30Z</time>
      </trkpt>
      <trkpt lat="40.7900850" lon="-2.1591050">
        <ele>950.2</ele>
        <time>2019-07-06T07:15:36Z</time>
      </trkpt>
      <trkpt lat="40.7901620" lon="-2.1590690">
        <ele>950.6</ele>
        <time>2019-07-06T07:15:38Z</time>
      </trkpt>
      <trkpt lat="40.7902320" lon="-2.1590030">
        <ele>950.8</ele>
        <time>2019-07-06T07:15:40Z</time>
      </trkpt>
      <trkpt lat="40.7903960" lon="-2.1588220">
        <ele>951.8</ele>
        <time>2019-07-06T07:15:45Z</time>
      </trkpt>
      <trkpt lat="40.7904260" lon="-2.1587900">
        <ele>952.0</ele>
        <time>2019-07-06T07:15:46Z</time>
      </trkpt>
      <trkpt lat="40.7905270" lon="-2.1586470">
        <ele>952.8</ele>
        <time>2019-07-06T07:15:50Z</time>
      </trkpt>
      <trkpt lat="40.7905680" lon="-2.1585630">
        <ele>953.4</ele>
        <time>2019-07-06T07:15:52Z</time>
      </trkpt>
      <trkpt lat="40.7905920" lon="-2.1584730">
        <ele>953.8</ele>
        <time>2019-07-06T07:15:54Z</time>
      </trkpt>
      <trkpt lat="40.7906000" lon="-2.1583790">
        <ele>954.4</ele>
        <time>2019-07-06T07:15:56Z</time>
      </trkpt>
      <trkpt lat="40.7906470" lon="-2.1581590">
        <ele>955.2</ele>
        <time>2019-07-06T07:16:01Z</time>
      </trkpt>
      <trkpt lat="40.7907180" lon="-2.1580600">
        <ele>956.6</ele>
        <time>2019-07-06T07:16:04Z</time>
      </trkpt>
      <trkpt lat="40.7907810" lon="-2.1580150">
        <ele>957.4</ele>
        <time>2019-07-06T07:16:06Z</time>
      </trkpt>
      <trkpt lat="40.7908490" lon="-2.1579760">
        <ele>958.0</ele>
        <time>2019-07-06T07:16:08Z</time>
      </trkpt>
      <trkpt lat="40.7909680" lon="-2.1579380">
        <ele>958.0</ele>
        <time>2019-07-06T07:16:11Z</time>
      </trkpt>
      <trkpt lat="40.7911630" lon="-2.1578170">
        <ele>957.8</ele>
        <time>2019-07-06T07:16:16Z</time>
      </trkpt>
      <trkpt lat="40.7912020" lon="-2.1577800">
        <ele>957.6</ele>
        <time>2019-07-06T07:16:17Z</time>
      </trkpt>
      <trkpt lat="40.7913220" lon="-2.1576760">
        <ele>957.2</ele>
        <time>2019-07-06T07:16:20Z</time>
      </trkpt>
      <trkpt lat="40.7913880" lon="-2.1576120">
        <ele>957.0</ele>
        <time>2019-07-06T07:16:22Z</time>
      </trkpt>
      <trkpt lat="40.7914240" lon="-2.1575640">
        <ele>956.6</ele>
        <time>2019-07-06T07:16:24Z</time>
      </trkpt>
      <trkpt lat="40.7914430" lon="-2.1575200">
        <ele>956.0</ele>
        <time>2019-07-06T07:16:26Z</time>
      </trkpt>
      <trkpt lat="40.7914570" lon="-2.1574990">
        <ele>955.8</ele>
        <time>2019-07-06T07:16:27Z</time>
      </trkpt>
      <trkpt lat="40.7914940" lon="-2.1574670">
        <ele>955.6</ele>
        <time>2019-07-06T07:16:29Z</time>
      </trkpt>
      <trkpt lat="40.7915470" lon="-2.1574760">
        <ele>955.6</ele>
        <time>2019-07-06T07:16:31Z</time>
      </trkpt>
      <trkpt lat="40.7917250" lon="-2.1575160">
        <ele>955.6</ele>
        <time>2019-07-06T07:16:36Z</time>
      </trkpt>
      <trkpt lat="40.7917750" lon="-2.1575210">
        <ele>955.6</ele>
        <time>2019-07-06T07:16:39Z</time>
      </trkpt>
      <trkpt lat="40.7917760" lon="-2.1575230">
        <ele>955.4</ele>
        <time>2019-07-06T07:16:40Z</time>
      </trkpt>
      <trkpt lat="40.7917630" lon="-2.1575590">
        <ele>955.4</ele>
        <time>2019-07-06T07:16:43Z</time>
      </trkpt>
      <trkpt lat="40.7917280" lon="-2.1575570">
        <ele>955.2</ele>
        <time>2019-07-06T07:16:45Z</time>
      </trkpt>
      <trkpt lat="40.7916560" lon="-2.1575390">
        <ele>955.2</ele>
        <time>2019-07-06T07:16:48Z</time>
      </trkpt>
      <trkpt lat="40.7915640" lon="-2.1575160">
        <ele>955.4</ele>
        <time>2019-07-06T07:16:51Z</time>
      </trkpt>
      <trkpt lat="40.7915010" lon="-2.1575050">
        <ele>955.2</ele>
        <time>2019-07-06T07:16:54Z</time>
      </trkpt>
      <trkpt lat="40.7914870" lon="-2.1575070">
        <ele>955.2</ele>
        <time>2019-07-06T07:16:55Z</time>
      </trkpt>
      <trkpt lat="40.7914660" lon="-2.1574980">
        <ele>955.0</ele>
        <time>2019-07-06T07:16:57Z</time>
      </trkpt>
      <trkpt lat="40.7914540" lon="-2.1574940">
        <ele>954.8</ele>
        <time>2019-07-06T07:16:58Z</time>
      </trkpt>
      <trkpt lat="40.7914490" lon="-2.1574940">
        <ele>954.8</ele>
        <time>2019-07-06T07:16:59Z</time>
      </trkpt>
      <trkpt lat="40.7914480" lon="-2.1574930">
        <ele>954.8</ele>
        <time>2019-07-06T07:17:00Z</time>
      </trkpt>
      <trkpt lat="40.7914640" lon="-2.1574620">
        <ele>954.8</ele>
        <time>2019-07-06T07:17:09Z</time>
      </trkpt>
      <trkpt lat="40.7915010" lon="-2.1574680">
        <ele>954.8</ele>
        <time>2019-07-06T07:17:11Z</time>
      </trkpt>
      <trkpt lat="40.7915850" lon="-2.1574960">
        <ele>955.0</ele>
        <time>2019-07-06T07:17:15Z</time>
      </trkpt>
      <trkpt lat="40.7916080" lon="-2.1575030">
        <ele>955.0</ele>
        <time>2019-07-06T07:17:16Z</time>
      </trkpt>
      <trkpt lat="40.7916640" lon="-2.1575130">
        <ele>955.2</ele>
        <time>2019-07-06T07:17:18Z</time>
      </trkpt>
      <trkpt lat="40.7917730" lon="-2.1575410">
        <ele>955.4</ele>
        <time>2019-07-06T07:17:21Z</time>
      </trkpt>
      <trkpt lat="40.7919380" lon="-2.1576260">
        <ele>955.4</ele>
        <time>2019-07-06T07:17:25Z</time>
      </trkpt>
      <trkpt lat="40.7920120" lon="-2.1576990">
        <ele>955.2</ele>
        <time>2019-07-06T07:17:27Z</time>
      </trkpt>
      <trkpt lat="40.7920770" lon="-2.1577980">
        <ele>955.4</ele>
        <time>2019-07-06T07:17:29Z</time>
      </trkpt>
      <trkpt lat="40.7921080" lon="-2.1578570">
        <ele>955.2</ele>
        <time>2019-07-06T07:17:30Z</time>
      </trkpt>
      <trkpt lat="40.7921640" lon="-2.1579910">
        <ele>955.0</ele>
        <time>2019-07-06T07:17:32Z</time>
      </trkpt>
      <trkpt lat="40.7922890" lon="-2.1582660">
        <ele>954.2</ele>
        <time>2019-07-06T07:17:36Z</time>
      </trkpt>
      <trkpt lat="40.7923790" lon="-2.1584750">
        <ele>954.0</ele>
        <time>2019-07-06T07:17:39Z</time>
      </trkpt>
      <trkpt lat="40.7925750" lon="-2.1590230">
        <ele>953.4</ele>
        <time>2019-07-06T07:17:47Z</time>
      </trkpt>
      <trkpt lat="40.7926220" lon="-2.1592550">
        <ele>953.2</ele>
        <time>2019-07-06T07:17:50Z</time>
      </trkpt>
      <trkpt lat="40.7926460" lon="-2.1594150">
        <ele>953.2</ele>
        <time>2019-07-06T07:17:52Z</time>
      </trkpt>
      <trkpt lat="40.7927010" lon="-2.1597330">
        <ele>953.0</ele>
        <time>2019-07-06T07:17:56Z</time>
      </trkpt>
      <trkpt lat="40.7927340" lon="-2.1599800">
        <ele>952.8</ele>
        <time>2019-07-06T07:17:59Z</time>
      </trkpt>
      <trkpt lat="40.7928210" lon="-2.1606960">
        <ele>953.2</ele>
        <time>2019-07-06T07:18:08Z</time>
      </trkpt>
      <trkpt lat="40.7928080" lon="-2.1608870">
        <ele>954.2</ele>
        <time>2019-07-06T07:18:11Z</time>
      </trkpt>
      <trkpt lat="40.7927920" lon="-2.1610730">
        <ele>954.8</ele>
        <time>2019-07-06T07:18:14Z</time>
      </trkpt>
      <trkpt lat="40.7927810" lon="-2.1612550">
        <ele>955.2</ele>
        <time>2019-07-06T07:18:17Z</time>
      </trkpt>
      <trkpt lat="40.7927750" lon="-2.1613120">
        <ele>955.8</ele>
        <time>2019-07-06T07:18:18Z</time>
      </trkpt>
      <trkpt lat="40.7927630" lon="-2.1614190">
        <ele>956.6</ele>
        <time>2019-07-06T07:18:20Z</time>
      </trkpt>
      <trkpt lat="40.7927560" lon="-2.1614710">
        <ele>956.8</ele>
        <time>2019-07-06T07:18:21Z</time>
      </trkpt>
      <trkpt lat="40.7927310" lon="-2.1616390">
        <ele>957.8</ele>
        <time>2019-07-06T07:18:24Z</time>
      </trkpt>
      <trkpt lat="40.7927030" lon="-2.1618070">
        <ele>958.6</ele>
        <time>2019-07-06T07:18:27Z</time>
      </trkpt>
      <trkpt lat="40.7926900" lon="-2.1618630">
        <ele>958.6</ele>
        <time>2019-07-06T07:18:28Z</time>
      </trkpt>
      <trkpt lat="40.7926430" lon="-2.1620260">
        <ele>958.8</ele>
        <time>2019-07-06T07:18:31Z</time>
      </trkpt>
      <trkpt lat="40.7926320" lon="-2.1620840">
        <ele>958.8</ele>
        <time>2019-07-06T07:18:32Z</time>
      </trkpt>
      <trkpt lat="40.7926200" lon="-2.1621420">
        <ele>959.2</ele>
        <time>2019-07-06T07:18:33Z</time>
      </trkpt>
      <trkpt lat="40.7925450" lon="-2.1624400">
        <ele>960.2</ele>
        <time>2019-07-06T07:18:38Z</time>
      </trkpt>
      <trkpt lat="40.7925270" lon="-2.1624990">
        <ele>960.4</ele>
        <time>2019-07-06T07:18:39Z</time>
      </trkpt>
      <trkpt lat="40.7924470" lon="-2.1627170">
        <ele>960.8</ele>
        <time>2019-07-06T07:18:43Z</time>
      </trkpt>
      <trkpt lat="40.7923890" lon="-2.1628090">
        <ele>961.4</ele>
        <time>2019-07-06T07:18:45Z</time>
      </trkpt>
      <trkpt lat="40.7921890" lon="-2.1630500">
        <ele>962.2</ele>
        <time>2019-07-06T07:18:51Z</time>
      </trkpt>
      <trkpt lat="40.7921540" lon="-2.1630900">
        <ele>962.2</ele>
        <time>2019-07-06T07:18:52Z</time>
      </trkpt>
      <trkpt lat="40.7920960" lon="-2.1631820">
        <ele>962.4</ele>
        <time>2019-07-06T07:18:54Z</time>
      </trkpt>
      <trkpt lat="40.7920470" lon="-2.1632740">
        <ele>962.8</ele>
        <time>2019-07-06T07:18:56Z</time>
      </trkpt>
      <trkpt lat="40.7919610" lon="-2.1634440">
        <ele>963.6</ele>
        <time>2019-07-06T07:19:00Z</time>
      </trkpt>
      <trkpt lat="40.7918780" lon="-2.1636120">
        <ele>964.6</ele>
        <time>2019-07-06T07:19:04Z</time>
      </trkpt>
      <trkpt lat="40.7918620" lon="-2.1636560">
        <ele>964.8</ele>
        <time>2019-07-06T07:19:05Z</time>
      </trkpt>
      <trkpt lat="40.7918070" lon="-2.1637780">
        <ele>965.8</ele>
        <time>2019-07-06T07:19:08Z</time>
      </trkpt>
      <trkpt lat="40.7917390" lon="-2.1638890">
        <ele>967.0</ele>
        <time>2019-07-06T07:19:11Z</time>
      </trkpt>
      <trkpt lat="40.7916130" lon="-2.1640630">
        <ele>968.0</ele>
        <time>2019-07-06T07:19:16Z</time>
      </trkpt>
      <trkpt lat="40.7915400" lon="-2.1641640">
        <ele>968.8</ele>
        <time>2019-07-06T07:19:19Z</time>
      </trkpt>
      <trkpt lat="40.7914980" lon="-2.1642440">
        <ele>969.2</ele>
        <time>2019-07-06T07:19:21Z</time>
      </trkpt>
      <trkpt lat="40.7914440" lon="-2.1643680">
        <ele>970.2</ele>
        <time>2019-07-06T07:19:24Z</time>
      </trkpt>
      <trkpt lat="40.7914270" lon="-2.1644040">
        <ele>970.4</ele>
        <time>2019-07-06T07:19:25Z</time>
      </trkpt>
      <trkpt lat="40.7913580" lon="-2.1645530">
        <ele>971.4</ele>
        <time>2019-07-06T07:19:29Z</time>
      </trkpt>
      <trkpt lat="40.7913340" lon="-2.1646330">
        <ele>972.0</ele>
        <time>2019-07-06T07:19:31Z</time>
      </trkpt>
      <trkpt lat="40.7913100" lon="-2.1647130">
        <ele>972.6</ele>
        <time>2019-07-06T07:19:33Z</time>
      </trkpt>
      <trkpt lat="40.7912400" lon="-2.1649050">
        <ele>973.8</ele>
        <time>2019-07-06T07:19:38Z</time>
      </trkpt>
      <trkpt lat="40.7911800" lon="-2.1650590">
        <ele>974.8</ele>
        <time>2019-07-06T07:19:42Z</time>
      </trkpt>
      <trkpt lat="40.7911490" lon="-2.1651800">
        <ele>975.4</ele>
        <time>2019-07-06T07:19:45Z</time>
      </trkpt>
      <trkpt lat="40.7911410" lon="-2.1652220">
        <ele>975.8</ele>
        <time>2019-07-06T07:19:46Z</time>
      </trkpt>
      <trkpt lat="40.7911000" lon="-2.1653810">
        <ele>976.8</ele>
        <time>2019-07-06T07:19:50Z</time>
      </trkpt>
      <trkpt lat="40.7910480" lon="-2.1655860">
        <ele>978.0</ele>
        <time>2019-07-06T07:19:55Z</time>
      </trkpt>
      <trkpt lat="40.7909720" lon="-2.1658330">
        <ele>979.2</ele>
        <time>2019-07-06T07:20:01Z</time>
      </trkpt>
      <trkpt lat="40.7909440" lon="-2.1659120">
        <ele>979.8</ele>
        <time>2019-07-06T07:20:03Z</time>
      </trkpt>
      <trkpt lat="40.7909050" lon="-2.1660270">
        <ele>980.4</ele>
        <time>2019-07-06T07:20:06Z</time>
      </trkpt>
      <trkpt lat="40.7908320" lon="-2.1662160">
        <ele>981.4</ele>
        <time>2019-07-06T07:20:11Z</time>
      </trkpt>
      <trkpt lat="40.7908120" lon="-2.1662510">
        <ele>981.8</ele>
        <time>2019-07-06T07:20:12Z</time>
      </trkpt>
      <trkpt lat="40.7907580" lon="-2.1663590">
        <ele>982.6</ele>
        <time>2019-07-06T07:20:15Z</time>
      </trkpt>
      <trkpt lat="40.7906830" lon="-2.1665460">
        <ele>983.6</ele>
        <time>2019-07-06T07:20:20Z</time>
      </trkpt>
      <trkpt lat="40.7905950" lon="-2.1667300">
        <ele>984.8</ele>
        <time>2019-07-06T07:20:25Z</time>
      </trkpt>
      <trkpt lat="40.7905230" lon="-2.1668730">
        <ele>985.6</ele>
        <time>2019-07-06T07:20:29Z</time>
      </trkpt>
      <trkpt lat="40.7905040" lon="-2.1669110">
        <ele>986.0</ele>
        <time>2019-07-06T07:20:30Z</time>
      </trkpt>
      <trkpt lat="40.7904180" lon="-2.1670720">
        <ele>987.0</ele>
        <time>2019-07-06T07:20:34Z</time>
      </trkpt>
      <trkpt lat="40.7903450" lon="-2.1672020">
        <ele>987.4</ele>
        <time>2019-07-06T07:20:37Z</time>
      </trkpt>
      <trkpt lat="40.7901850" lon="-2.1673980">
        <ele>987.4</ele>
        <time>2019-07-06T07:20:42Z</time>
      </trkpt>
      <trkpt lat="40.7901150" lon="-2.1674810">
        <ele>987.6</ele>
        <time>2019-07-06T07:20:44Z</time>
      </trkpt>
      <trkpt lat="40.7900050" lon="-2.1676120">
        <ele>987.8</ele>
        <time>2019-07-06T07:20:47Z</time>
      </trkpt>
      <trkpt lat="40.7898620" lon="-2.1678000">
        <ele>987.8</ele>
        <time>2019-07-06T07:20:51Z</time>
      </trkpt>
      <trkpt lat="40.7898290" lon="-2.1678470">
        <ele>987.8</ele>
        <time>2019-07-06T07:20:52Z</time>
      </trkpt>
      <trkpt lat="40.7897910" lon="-2.1678910">
        <ele>988.0</ele>
        <time>2019-07-06T07:20:53Z</time>
      </trkpt>
      <trkpt lat="40.7896720" lon="-2.1680140">
        <ele>988.2</ele>
        <time>2019-07-06T07:20:56Z</time>
      </trkpt>
      <trkpt lat="40.7895930" lon="-2.1680890">
        <ele>988.4</ele>
        <time>2019-07-06T07:20:58Z</time>
      </trkpt>
      <trkpt lat="40.7893910" lon="-2.1682770">
        <ele>988.8</ele>
        <time>2019-07-06T07:21:03Z</time>
      </trkpt>
      <trkpt lat="40.7893130" lon="-2.1683310">
        <ele>989.0</ele>
        <time>2019-07-06T07:21:05Z</time>
      </trkpt>
      <trkpt lat="40.7892760" lon="-2.1683530">
        <ele>989.2</ele>
        <time>2019-07-06T07:21:06Z</time>
      </trkpt>
      <trkpt lat="40.7892380" lon="-2.1683670">
        <ele>989.6</ele>
        <time>2019-07-06T07:21:07Z</time>
      </trkpt>
      <trkpt lat="40.7891580" lon="-2.1683770">
        <ele>990.4</ele>
        <time>2019-07-06T07:21:09Z</time>
      </trkpt>
      <trkpt lat="40.7891170" lon="-2.1683760">
        <ele>990.6</ele>
        <time>2019-07-06T07:21:10Z</time>
      </trkpt>
      <trkpt lat="40.7889930" lon="-2.1683470">
        <ele>991.0</ele>
        <time>2019-07-06T07:21:13Z</time>
      </trkpt>
      <trkpt lat="40.7889110" lon="-2.1683120">
        <ele>991.6</ele>
        <time>2019-07-06T07:21:15Z</time>
      </trkpt>
      <trkpt lat="40.7888710" lon="-2.1682910">
        <ele>991.8</ele>
        <time>2019-07-06T07:21:16Z</time>
      </trkpt>
      <trkpt lat="40.7887470" lon="-2.1682320">
        <ele>992.6</ele>
        <time>2019-07-06T07:21:19Z</time>
      </trkpt>
      <trkpt lat="40.7885350" lon="-2.1681440">
        <ele>993.0</ele>
        <time>2019-07-06T07:21:24Z</time>
      </trkpt>
      <trkpt lat="40.7884910" lon="-2.1681390">
        <ele>993.8</ele>
        <time>2019-07-06T07:21:25Z</time>
      </trkpt>
      <trkpt lat="40.7884490" lon="-2.1681210">
        <ele>993.8</ele>
        <time>2019-07-06T07:21:26Z</time>
      </trkpt>
      <trkpt lat="40.7883280" lon="-2.1680480">
        <ele>994.2</ele>
        <time>2019-07-06T07:21:29Z</time>
      </trkpt>
      <trkpt lat="40.7882500" lon="-2.1680010">
        <ele>994.6</ele>
        <time>2019-07-06T07:21:31Z</time>
      </trkpt>
      <trkpt lat="40.7880620" lon="-2.1678950">
        <ele>995.6</ele>
        <time>2019-07-06T07:21:36Z</time>
      </trkpt>
      <trkpt lat="40.7880190" lon="-2.1678800">
        <ele>995.8</ele>
        <time>2019-07-06T07:21:37Z</time>
      </trkpt>
      <trkpt lat="40.7879340" lon="-2.1678570">
        <ele>996.2</ele>
        <time>2019-07-06T07:21:39Z</time>
      </trkpt>
      <trkpt lat="40.7878460" lon="-2.1678680">
        <ele>996.4</ele>
        <time>2019-07-06T07:21:41Z</time>
      </trkpt>
      <trkpt lat="40.7877260" lon="-2.1679070">
        <ele>996.6</ele>
        <time>2019-07-06T07:21:44Z</time>
      </trkpt>
      <trkpt lat="40.7876830" lon="-2.1679210">
        <ele>997.0</ele>
        <time>2019-07-06T07:21:45Z</time>
      </trkpt>
      <trkpt lat="40.7876380" lon="-2.1679340">
        <ele>997.4</ele>
        <time>2019-07-06T07:21:46Z</time>
      </trkpt>
      <trkpt lat="40.7875090" lon="-2.1679660">
        <ele>998.2</ele>
        <time>2019-07-06T07:21:49Z</time>
      </trkpt>
      <trkpt lat="40.7873840" lon="-2.1679730">
        <ele>999.0</ele>
        <time>2019-07-06T07:21:52Z</time>
      </trkpt>
      <trkpt lat="40.7873420" lon="-2.1679700">
        <ele>999.4</ele>
        <time>2019-07-06T07:21:53Z</time>
      </trkpt>
      <trkpt lat="40.7871730" lon="-2.1679520">
        <ele>1000.4</ele>
        <time>2019-07-06T07:21:57Z</time>
      </trkpt>
      <trkpt lat="40.7870010" lon="-2.1679340">
        <ele>1000.8</ele>
        <time>2019-07-06T07:22:01Z</time>
      </trkpt>
      <trkpt lat="40.7866450" lon="-2.1679430">
        <ele>1001.2</ele>
        <time>2019-07-06T07:22:09Z</time>
      </trkpt>
      <trkpt lat="40.7865990" lon="-2.1679470">
        <ele>1001.6</ele>
        <time>2019-07-06T07:22:10Z</time>
      </trkpt>
      <trkpt lat="40.7864190" lon="-2.1679560">
        <ele>1002.8</ele>
        <time>2019-07-06T07:22:14Z</time>
      </trkpt>
      <trkpt lat="40.7862460" lon="-2.1679810">
        <ele>1003.6</ele>
        <time>2019-07-06T07:22:18Z</time>
      </trkpt>
      <trkpt lat="40.7862040" lon="-2.1679870">
        <ele>1004.0</ele>
        <time>2019-07-06T07:22:19Z</time>
      </trkpt>
      <trkpt lat="40.7859010" lon="-2.1680310">
        <ele>1004.4</ele>
        <time>2019-07-06T07:22:26Z</time>
      </trkpt>
      <trkpt lat="40.7858590" lon="-2.1680310">
        <ele>1004.6</ele>
        <time>2019-07-06T07:22:27Z</time>
      </trkpt>
      <trkpt lat="40.7858170" lon="-2.1680260">
        <ele>1005.0</ele>
        <time>2019-07-06T07:22:28Z</time>
      </trkpt>
      <trkpt lat="40.7856460" lon="-2.1679870">
        <ele>1006.2</ele>
        <time>2019-07-06T07:22:32Z</time>
      </trkpt>
      <trkpt lat="40.7855230" lon="-2.1679260">
        <ele>1006.6</ele>
        <time>2019-07-06T07:22:35Z</time>
      </trkpt>
      <trkpt lat="40.7854110" lon="-2.1678330">
        <ele>1006.8</ele>
        <time>2019-07-06T07:22:38Z</time>
      </trkpt>
      <trkpt lat="40.7852230" lon="-2.1676650">
        <ele>1007.2</ele>
        <time>2019-07-06T07:22:43Z</time>
      </trkpt>
      <trkpt lat="40.7851050" lon="-2.1675750">
        <ele>1007.6</ele>
        <time>2019-07-06T07:22:46Z</time>
      </trkpt>
      <trkpt lat="40.7848620" lon="-2.1675410">
        <ele>1008.0</ele>
        <time>2019-07-06T07:22:51Z</time>
      </trkpt>
      <trkpt lat="40.7848110" lon="-2.1675520">
        <ele>1008.2</ele>
        <time>2019-07-06T07:22:52Z</time>
      </trkpt>
      <trkpt lat="40.7847630" lon="-2.1675690">
        <ele>1008.4</ele>
        <time>2019-07-06T07:22:53Z</time>
      </trkpt>
      <trkpt lat="40.7846260" lon="-2.1676500">
        <ele>1008.8</ele>
        <time>2019-07-06T07:22:56Z</time>
      </trkpt>
      <trkpt lat="40.7845110" lon="-2.1677770">
        <ele>1009.4</ele>
        <time>2019-07-06T07:22:59Z</time>
      </trkpt>
      <trkpt lat="40.7844050" lon="-2.1679290">
        <ele>1010.0</ele>
        <time>2019-07-06T07:23:02Z</time>
      </trkpt>
      <trkpt lat="40.7842940" lon="-2.1682270">
        <ele>1010.4</ele>
        <time>2019-07-06T07:23:07Z</time>
      </trkpt>
      <trkpt lat="40.7842240" lon="-2.1684610">
        <ele>1011.0</ele>
        <time>2019-07-06T07:23:11Z</time>
      </trkpt>
      <trkpt lat="40.7841760" lon="-2.1685760">
        <ele>1011.4</ele>
        <time>2019-07-06T07:23:13Z</time>
      </trkpt>
      <trkpt lat="40.7841430" lon="-2.1686290">
        <ele>1011.4</ele>
        <time>2019-07-06T07:23:14Z</time>
      </trkpt>
      <trkpt lat="40.7839810" lon="-2.1688010">
        <ele>1011.6</ele>
        <time>2019-07-06T07:23:18Z</time>
      </trkpt>
      <trkpt lat="40.7838800" lon="-2.1688540">
        <ele>1011.8</ele>
        <time>2019-07-06T07:23:20Z</time>
      </trkpt>
      <trkpt lat="40.7838270" lon="-2.1688740">
        <ele>1011.8</ele>
        <time>2019-07-06T07:23:21Z</time>
      </trkpt>
      <trkpt lat="40.7837210" lon="-2.1689020">
        <ele>1012.0</ele>
        <time>2019-07-06T07:23:23Z</time>
      </trkpt>
      <trkpt lat="40.7835130" lon="-2.1689500">
        <ele>1012.2</ele>
        <time>2019-07-06T07:23:27Z</time>
      </trkpt>
      <trkpt lat="40.7833120" lon="-2.1690070">
        <ele>1012.2</ele>
        <time>2019-07-06T07:23:31Z</time>
      </trkpt>
      <trkpt lat="40.7831660" lon="-2.1690670">
        <ele>1012.2</ele>
        <time>2019-07-06T07:23:34Z</time>
      </trkpt>
      <trkpt lat="40.7830780" lon="-2.1691320">
        <ele>1012.4</ele>
        <time>2019-07-06T07:23:36Z</time>
      </trkpt>
      <trkpt lat="40.7829950" lon="-2.1692040">
        <ele>1012.6</ele>
        <time>2019-07-06T07:23:38Z</time>
      </trkpt>
      <trkpt lat="40.7829210" lon="-2.1692810">
        <ele>1012.6</ele>
        <time>2019-07-06T07:23:40Z</time>
      </trkpt>
      <trkpt lat="40.7828650" lon="-2.1693720">
        <ele>1012.6</ele>
        <time>2019-07-06T07:23:42Z</time>
      </trkpt>
      <trkpt lat="40.7828240" lon="-2.1694730">
        <ele>1012.6</ele>
        <time>2019-07-06T07:23:44Z</time>
      </trkpt>
      <trkpt lat="40.7827520" lon="-2.1695800">
        <ele>1013.0</ele>
        <time>2019-07-06T07:23:47Z</time>
      </trkpt>
      <trkpt lat="40.7827230" lon="-2.1696460">
        <ele>1013.2</ele>
        <time>2019-07-06T07:23:49Z</time>
      </trkpt>
      <trkpt lat="40.7826870" lon="-2.1697070">
        <ele>1013.0</ele>
        <time>2019-07-06T07:23:51Z</time>
      </trkpt>
      <trkpt lat="40.7825720" lon="-2.1698320">
        <ele>1013.4</ele>
        <time>2019-07-06T07:23:57Z</time>
      </trkpt>
      <trkpt lat="40.7825610" lon="-2.1698400">
        <ele>1013.6</ele>
        <time>2019-07-06T07:24:00Z</time>
      </trkpt>
      <trkpt lat="40.7825580" lon="-2.1698030">
        <ele>1013.4</ele>
        <time>2019-07-06T07:25:18Z</time>
      </trkpt>
      <trkpt lat="40.7825690" lon="-2.1697860">
        <ele>1013.4</ele>
        <time>2019-07-06T07:25:19Z</time>
      </trkpt>
      <trkpt lat="40.7826040" lon="-2.1697560">
        <ele>1013.4</ele>
        <time>2019-07-06T07:25:21Z</time>
      </trkpt>
      <trkpt lat="40.7826490" lon="-2.1697080">
        <ele>1013.2</ele>
        <time>2019-07-06T07:25:23Z</time>
      </trkpt>
      <trkpt lat="40.7827290" lon="-2.1696010">
        <ele>1013.2</ele>
        <time>2019-07-06T07:25:26Z</time>
      </trkpt>
      <trkpt lat="40.7827870" lon="-2.1695070">
        <ele>1013.4</ele>
        <time>2019-07-06T07:25:28Z</time>
      </trkpt>
      <trkpt lat="40.7830130" lon="-2.1691960">
        <ele>1013.2</ele>
        <time>2019-07-06T07:25:34Z</time>
      </trkpt>
      <trkpt lat="40.7830590" lon="-2.1691510">
        <ele>1013.0</ele>
        <time>2019-07-06T07:25:35Z</time>
      </trkpt>
      <trkpt lat="40.7832650" lon="-2.1690060">
        <ele>1013.4</ele>
        <time>2019-07-06T07:25:39Z</time>
      </trkpt>
      <trkpt lat="40.7833230" lon="-2.1689810">
        <ele>1013.4</ele>
        <time>2019-07-06T07:25:40Z</time>
      </trkpt>
      <trkpt lat="40.7836330" lon="-2.1688910">
        <ele>1012.6</ele>
        <time>2019-07-06T07:25:45Z</time>
      </trkpt>
      <trkpt lat="40.7839530" lon="-2.1687880">
        <ele>1012.4</ele>
        <time>2019-07-06T07:25:50Z</time>
      </trkpt>
      <trkpt lat="40.7840100" lon="-2.1687530">
        <ele>1012.2</ele>
        <time>2019-07-06T07:25:51Z</time>
      </trkpt>
      <trkpt lat="40.7841850" lon="-2.1685470">
        <ele>1011.8</ele>
        <time>2019-07-06T07:25:55Z</time>
      </trkpt>
      <trkpt lat="40.7842440" lon="-2.1684110">
        <ele>1011.6</ele>
        <time>2019-07-06T07:25:57Z</time>
      </trkpt>
      <trkpt lat="40.7843220" lon="-2.1681870">
        <ele>1011.8</ele>
        <time>2019-07-06T07:26:00Z</time>
      </trkpt>
      <trkpt lat="40.7843760" lon="-2.1680350">
        <ele>1011.4</ele>
        <time>2019-07-06T07:26:02Z</time>
      </trkpt>
      <trkpt lat="40.7844410" lon="-2.1678860">
        <ele>1011.0</ele>
        <time>2019-07-06T07:26:04Z</time>
      </trkpt>
      <trkpt lat="40.7844830" lon="-2.1678180">
        <ele>1011.0</ele>
        <time>2019-07-06T07:26:05Z</time>
      </trkpt>
      <trkpt lat="40.7846390" lon="-2.1676460">
        <ele>1010.2</ele>
        <time>2019-07-06T07:26:08Z</time>
      </trkpt>
      <trkpt lat="40.7846970" lon="-2.1675980">
        <ele>1010.0</ele>
        <time>2019-07-06T07:26:09Z</time>
      </trkpt>
      <trkpt lat="40.7847600" lon="-2.1675560">
        <ele>1009.8</ele>
        <time>2019-07-06T07:26:10Z</time>
      </trkpt>
      <trkpt lat="40.7850360" lon="-2.1674910">
        <ele>1009.2</ele>
        <time>2019-07-06T07:26:14Z</time>
      </trkpt>
      <trkpt lat="40.7851080" lon="-2.1675120">
        <ele>1009.2</ele>
        <time>2019-07-06T07:26:15Z</time>
      </trkpt>
      <trkpt lat="40.7852410" lon="-2.1676010">
        <ele>1008.6</ele>
        <time>2019-07-06T07:26:17Z</time>
      </trkpt>
      <trkpt lat="40.7853060" lon="-2.1676570">
        <ele>1008.6</ele>
        <time>2019-07-06T07:26:18Z</time>
      </trkpt>
      <trkpt lat="40.7854350" lon="-2.1677670">
        <ele>1007.8</ele>
        <time>2019-07-06T07:26:20Z</time>
      </trkpt>
      <trkpt lat="40.7856340" lon="-2.1679180">
        <ele>1007.2</ele>
        <time>2019-07-06T07:26:23Z</time>
      </trkpt>
      <trkpt lat="40.7857070" lon="-2.1679530">
        <ele>1007.0</ele>
        <time>2019-07-06T07:26:24Z</time>
      </trkpt>
      <trkpt lat="40.7857830" lon="-2.1679790">
        <ele>1006.4</ele>
        <time>2019-07-06T07:26:25Z</time>
      </trkpt>
      <trkpt lat="40.7860160" lon="-2.1679850">
        <ele>1005.6</ele>
        <time>2019-07-06T07:26:28Z</time>
      </trkpt>
      <trkpt lat="40.7860940" lon="-2.1679810">
        <ele>1005.0</ele>
        <time>2019-07-06T07:26:29Z</time>
      </trkpt>
      <trkpt lat="40.7864040" lon="-2.1679410">
        <ele>1004.0</ele>
        <time>2019-07-06T07:26:33Z</time>
      </trkpt>
      <trkpt lat="40.7864820" lon="-2.1679320">
        <ele>1004.0</ele>
        <time>2019-07-06T07:26:34Z</time>
      </trkpt>
      <trkpt lat="40.7867150" lon="-2.1679090">
        <ele>1003.4</ele>
        <time>2019-07-06T07:26:37Z</time>
      </trkpt>
      <trkpt lat="40.7870260" lon="-2.1679050">
        <ele>1002.8</ele>
        <time>2019-07-06T07:26:41Z</time>
      </trkpt>
      <trkpt lat="40.7871840" lon="-2.1679160">
        <ele>1002.0</ele>
        <time>2019-07-06T07:26:43Z</time>
      </trkpt>
      <trkpt lat="40.7873430" lon="-2.1679290">
        <ele>1001.8</ele>
        <time>2019-07-06T07:26:45Z</time>
      </trkpt>
      <trkpt lat="40.7875930" lon="-2.1679370">
        <ele>1001.2</ele>
        <time>2019-07-06T07:26:48Z</time>
      </trkpt>
      <trkpt lat="40.7877620" lon="-2.1679070">
        <ele>1000.4</ele>
        <time>2019-07-06T07:26:50Z</time>
      </trkpt>
      <trkpt lat="40.7879100" lon="-2.1678590">
        <ele>999.2</ele>
        <time>2019-07-06T07:26:52Z</time>
      </trkpt>
      <trkpt lat="40.7879820" lon="-2.1678400">
        <ele>998.8</ele>
        <time>2019-07-06T07:26:53Z</time>
      </trkpt>
      <trkpt lat="40.7881260" lon="-2.1678560">
        <ele>998.0</ele>
        <time>2019-07-06T07:26:55Z</time>
      </trkpt>
      <trkpt lat="40.7882620" lon="-2.1679160">
        <ele>996.6</ele>
        <time>2019-07-06T07:26:57Z</time>
      </trkpt>
      <trkpt lat="40.7883960" lon="-2.1680090">
        <ele>996.0</ele>
        <time>2019-07-06T07:26:59Z</time>
      </trkpt>
      <trkpt lat="40.7885350" lon="-2.1680990">
        <ele>995.8</ele>
        <time>2019-07-06T07:27:01Z</time>
      </trkpt>
      <trkpt lat="40.7886820" lon="-2.1681500">
        <ele>995.4</ele>
        <time>2019-07-06T07:27:03Z</time>
      </trkpt>
      <trkpt lat="40.7887570" lon="-2.1681810">
        <ele>995.0</ele>
        <time>2019-07-06T07:27:04Z</time>
      </trkpt>
      <trkpt lat="40.7889850" lon="-2.1682930">
        <ele>994.0</ele>
        <time>2019-07-06T07:27:07Z</time>
      </trkpt>
      <trkpt lat="40.7890600" lon="-2.1683310">
        <ele>993.4</ele>
        <time>2019-07-06T07:27:08Z</time>
      </trkpt>
      <trkpt lat="40.7891370" lon="-2.1683540">
        <ele>993.2</ele>
        <time>2019-07-06T07:27:09Z</time>
      </trkpt>
      <trkpt lat="40.7892110" lon="-2.1683630">
        <ele>993.0</ele>
        <time>2019-07-06T07:27:10Z</time>
      </trkpt>
      <trkpt lat="40.7892820" lon="-2.1683560">
        <ele>992.6</ele>
        <time>2019-07-06T07:27:11Z</time>
      </trkpt>
      <trkpt lat="40.7894230" lon="-2.1682970">
        <ele>991.6</ele>
        <time>2019-07-06T07:27:13Z</time>
      </trkpt>
      <trkpt lat="40.7894890" lon="-2.1682380">
        <ele>991.0</ele>
        <time>2019-07-06T07:27:14Z</time>
      </trkpt>
      <trkpt lat="40.7895550" lon="-2.1681730">
        <ele>990.4</ele>
        <time>2019-07-06T07:27:15Z</time>
      </trkpt>
      <trkpt lat="40.7897530" lon="-2.1679800">
        <ele>989.2</ele>
        <time>2019-07-06T07:27:18Z</time>
      </trkpt>
      <trkpt lat="40.7898100" lon="-2.1679090">
        <ele>989.0</ele>
        <time>2019-07-06T07:27:19Z</time>
      </trkpt>
      <trkpt lat="40.7898630" lon="-2.1678340">
        <ele>989.0</ele>
        <time>2019-07-06T07:27:20Z</time>
      </trkpt>
      <trkpt lat="40.7900210" lon="-2.1676120">
        <ele>988.2</ele>
        <time>2019-07-06T07:27:23Z</time>
      </trkpt>
      <trkpt lat="40.7901800" lon="-2.1674100">
        <ele>987.8</ele>
        <time>2019-07-06T07:27:26Z</time>
      </trkpt>
      <trkpt lat="40.7902310" lon="-2.1673460">
        <ele>987.8</ele>
        <time>2019-07-06T07:27:27Z</time>
      </trkpt>
      <trkpt lat="40.7902820" lon="-2.1672820">
        <ele>987.8</ele>
        <time>2019-07-06T07:27:28Z</time>
      </trkpt>
      <trkpt lat="40.7903730" lon="-2.1671470">
        <ele>987.8</ele>
        <time>2019-07-06T07:27:30Z</time>
      </trkpt>
      <trkpt lat="40.7905320" lon="-2.1668480">
        <ele>987.4</ele>
        <time>2019-07-06T07:27:34Z</time>
      </trkpt>
      <trkpt lat="40.7906130" lon="-2.1666770">
        <ele>987.2</ele>
        <time>2019-07-06T07:27:36Z</time>
      </trkpt>
      <trkpt lat="40.7907470" lon="-2.1663970">
        <ele>986.0</ele>
        <time>2019-07-06T07:27:39Z</time>
      </trkpt>
      <trkpt lat="40.7908430" lon="-2.1661910">
        <ele>985.0</ele>
        <time>2019-07-06T07:27:41Z</time>
      </trkpt>
      <trkpt lat="40.7909300" lon="-2.1659740">
        <ele>984.0</ele>
        <time>2019-07-06T07:27:43Z</time>
      </trkpt>
      <trkpt lat="40.7909680" lon="-2.1658700">
        <ele>983.4</ele>
        <time>2019-07-06T07:27:44Z</time>
      </trkpt>
      <trkpt lat="40.7910020" lon="-2.1657630">
        <ele>982.8</ele>
        <time>2019-07-06T07:27:45Z</time>
      </trkpt>
      <trkpt lat="40.7910660" lon="-2.1655360">
        <ele>981.6</ele>
        <time>2019-07-06T07:27:47Z</time>
      </trkpt>
      <trkpt lat="40.7911300" lon="-2.1652980">
        <ele>980.0</ele>
        <time>2019-07-06T07:27:49Z</time>
      </trkpt>
      <trkpt lat="40.7912350" lon="-2.1649320">
        <ele>978.6</ele>
        <time>2019-07-06T07:27:52Z</time>
      </trkpt>
      <trkpt lat="40.7913240" lon="-2.1646880">
        <ele>977.4</ele>
        <time>2019-07-06T07:27:54Z</time>
      </trkpt>
      <trkpt lat="40.7914250" lon="-2.1644430">
        <ele>975.4</ele>
        <time>2019-07-06T07:27:56Z</time>
      </trkpt>
      <trkpt lat="40.7915440" lon="-2.1641950">
        <ele>974.2</ele>
        <time>2019-07-06T07:27:58Z</time>
      </trkpt>
      <trkpt lat="40.7916160" lon="-2.1640780">
        <ele>973.4</ele>
        <time>2019-07-06T07:27:59Z</time>
      </trkpt>
      <trkpt lat="40.7916910" lon="-2.1639680">
        <ele>972.8</ele>
        <time>2019-07-06T07:28:00Z</time>
      </trkpt>
      <trkpt lat="40.7918200" lon="-2.1637530">
        <ele>971.2</ele>
        <time>2019-07-06T07:28:02Z</time>
      </trkpt>
      <trkpt lat="40.7918790" lon="-2.1636420">
        <ele>970.6</ele>
        <time>2019-07-06T07:28:03Z</time>
      </trkpt>
      <trkpt lat="40.7919360" lon="-2.1635260">
        <ele>969.2</ele>
        <time>2019-07-06T07:28:04Z</time>
      </trkpt>
      <trkpt lat="40.7919940" lon="-2.1634070">
        <ele>968.2</ele>
        <time>2019-07-06T07:28:05Z</time>
      </trkpt>
      <trkpt lat="40.7921180" lon="-2.1631690">
        <ele>966.6</ele>
        <time>2019-07-06T07:28:07Z</time>
      </trkpt>
      <trkpt lat="40.7921870" lon="-2.1630600">
        <ele>966.2</ele>
        <time>2019-07-06T07:28:08Z</time>
      </trkpt>
      <trkpt lat="40.7922610" lon="-2.1629610">
        <ele>965.4</ele>
        <time>2019-07-06T07:28:09Z</time>
      </trkpt>
      <trkpt lat="40.7924110" lon="-2.1627730">
        <ele>964.4</ele>
        <time>2019-07-06T07:28:11Z</time>
      </trkpt>
      <trkpt lat="40.7924710" lon="-2.1626660">
        <ele>964.0</ele>
        <time>2019-07-06T07:28:12Z</time>
      </trkpt>
      <trkpt lat="40.7925930" lon="-2.1623110">
        <ele>963.0</ele>
        <time>2019-07-06T07:28:15Z</time>
      </trkpt>
      <trkpt lat="40.7926270" lon="-2.1621920">
        <ele>962.8</ele>
        <time>2019-07-06T07:28:16Z</time>
      </trkpt>
      <trkpt lat="40.7927190" lon="-2.1618370">
        <ele>962.0</ele>
        <time>2019-07-06T07:28:19Z</time>
      </trkpt>
      <trkpt lat="40.7927390" lon="-2.1617170">
        <ele>961.6</ele>
        <time>2019-07-06T07:28:20Z</time>
      </trkpt>
      <trkpt lat="40.7927710" lon="-2.1614730">
        <ele>960.8</ele>
        <time>2019-07-06T07:28:22Z</time>
      </trkpt>
      <trkpt lat="40.7927850" lon="-2.1613480">
        <ele>960.2</ele>
        <time>2019-07-06T07:28:23Z</time>
      </trkpt>
      <trkpt lat="40.7928230" lon="-2.1609610">
        <ele>958.6</ele>
        <time>2019-07-06T07:28:26Z</time>
      </trkpt>
      <trkpt lat="40.7928340" lon="-2.1606920">
        <ele>957.4</ele>
        <time>2019-07-06T07:28:28Z</time>
      </trkpt>
      <trkpt lat="40.7928270" lon="-2.1605520">
        <ele>957.0</ele>
        <time>2019-07-06T07:28:29Z</time>
      </trkpt>
      <trkpt lat="40.7928120" lon="-2.1604120">
        <ele>956.4</ele>
        <time>2019-07-06T07:28:30Z</time>
      </trkpt>
      <trkpt lat="40.7927490" lon="-2.1600130">
        <ele>955.0</ele>
        <time>2019-07-06T07:28:33Z</time>
      </trkpt>
      <trkpt lat="40.7927290" lon="-2.1598880">
        <ele>954.4</ele>
        <time>2019-07-06T07:28:34Z</time>
      </trkpt>
      <trkpt lat="40.7927110" lon="-2.1597660">
        <ele>954.0</ele>
        <time>2019-07-06T07:28:35Z</time>
      </trkpt>
      <trkpt lat="40.7926350" lon="-2.1593290">
        <ele>953.4</ele>
        <time>2019-07-06T07:28:39Z</time>
      </trkpt>
      <trkpt lat="40.7925960" lon="-2.1591280">
        <ele>953.2</ele>
        <time>2019-07-06T07:28:41Z</time>
      </trkpt>
      <trkpt lat="40.7925750" lon="-2.1590310">
        <ele>953.2</ele>
        <time>2019-07-06T07:28:42Z</time>
      </trkpt>
      <trkpt lat="40.7924930" lon="-2.1587600">
        <ele>953.2</ele>
        <time>2019-07-06T07:28:45Z</time>
      </trkpt>
      <trkpt lat="40.7922700" lon="-2.1582360">
        <ele>954.2</ele>
        <time>2019-07-06T07:28:52Z</time>
      </trkpt>
      <trkpt lat="40.7922050" lon="-2.1580990">
        <ele>954.2</ele>
        <time>2019-07-06T07:28:54Z</time>
      </trkpt>
      <trkpt lat="40.7921470" lon="-2.1579710">
        <ele>954.2</ele>
        <time>2019-07-06T07:28:56Z</time>
      </trkpt>
      <trkpt lat="40.7920860" lon="-2.1578470">
        <ele>954.2</ele>
        <time>2019-07-06T07:28:58Z</time>
      </trkpt>
      <trkpt lat="40.7920150" lon="-2.1577340">
        <ele>954.4</ele>
        <time>2019-07-06T07:29:00Z</time>
      </trkpt>
      <trkpt lat="40.7919240" lon="-2.1576550">
        <ele>954.6</ele>
        <time>2019-07-06T07:29:02Z</time>
      </trkpt>
      <trkpt lat="40.7917150" lon="-2.1575480">
        <ele>955.0</ele>
        <time>2019-07-06T07:29:06Z</time>
      </trkpt>
      <trkpt lat="40.7916650" lon="-2.1575290">
        <ele>955.2</ele>
        <time>2019-07-06T07:29:07Z</time>
      </trkpt>
      <trkpt lat="40.7916130" lon="-2.1575120">
        <ele>955.4</ele>
        <time>2019-07-06T07:29:08Z</time>
      </trkpt>
      <trkpt lat="40.7912980" lon="-2.1574530">
        <ele>955.2</ele>
        <time>2019-07-06T07:29:14Z</time>
      </trkpt>
      <trkpt lat="40.7909260" lon="-2.1573850">
        <ele>954.8</ele>
        <time>2019-07-06T07:29:21Z</time>
      </trkpt>
      <trkpt lat="40.7908110" lon="-2.1572670">
        <ele>954.0</ele>
        <time>2019-07-06T07:29:24Z</time>
      </trkpt>
      <trkpt lat="40.7907710" lon="-2.1571240">
        <ele>953.2</ele>
        <time>2019-07-06T07:29:26Z</time>
      </trkpt>
      <trkpt lat="40.7907630" lon="-2.1570410">
        <ele>952.6</ele>
        <time>2019-07-06T07:29:27Z</time>
      </trkpt>
      <trkpt lat="40.7907810" lon="-2.1568700">
        <ele>951.2</ele>
        <time>2019-07-06T07:29:29Z</time>
      </trkpt>
      <trkpt lat="40.7908050" lon="-2.1567810">
        <ele>950.6</ele>
        <time>2019-07-06T07:29:30Z</time>
      </trkpt>
      <trkpt lat="40.7908930" lon="-2.1566120">
        <ele>949.6</ele>
        <time>2019-07-06T07:29:32Z</time>
      </trkpt>
      <trkpt lat="40.7909530" lon="-2.1565290">
        <ele>949.2</ele>
        <time>2019-07-06T07:29:33Z</time>
      </trkpt>
      <trkpt lat="40.7910130" lon="-2.1564400">
        <ele>948.4</ele>
        <time>2019-07-06T07:29:34Z</time>
      </trkpt>
      <trkpt lat="40.7911310" lon="-2.1562590">
        <ele>947.4</ele>
        <time>2019-07-06T07:29:36Z</time>
      </trkpt>
      <trkpt lat="40.7912420" lon="-2.1560860">
        <ele>946.4</ele>
        <time>2019-07-06T07:29:38Z</time>
      </trkpt>
      <trkpt lat="40.7913010" lon="-2.1559990">
        <ele>945.6</ele>
        <time>2019-07-06T07:29:39Z</time>
      </trkpt>
      <trkpt lat="40.7913670" lon="-2.1559160">
        <ele>944.4</ele>
        <time>2019-07-06T07:29:40Z</time>
      </trkpt>
      <trkpt lat="40.7915150" lon="-2.1557860">
        <ele>943.4</ele>
        <time>2019-07-06T07:29:42Z</time>
      </trkpt>
      <trkpt lat="40.7917590" lon="-2.1556190">
        <ele>942.0</ele>
        <time>2019-07-06T07:29:45Z</time>
      </trkpt>
      <trkpt lat="40.7920230" lon="-2.1554980">
        <ele>941.0</ele>
        <time>2019-07-06T07:29:48Z</time>
      </trkpt>
      <trkpt lat="40.7921120" lon="-2.1554700">
        <ele>940.8</ele>
        <time>2019-07-06T07:29:49Z</time>
      </trkpt>
      <trkpt lat="40.7922800" lon="-2.1554390">
        <ele>939.2</ele>
        <time>2019-07-06T07:29:51Z</time>
      </trkpt>
      <trkpt lat="40.7923640" lon="-2.1554410">
        <ele>938.6</ele>
        <time>2019-07-06T07:29:52Z</time>
      </trkpt>
      <trkpt lat="40.7925240" lon="-2.1554980">
        <ele>937.8</ele>
        <time>2019-07-06T07:29:54Z</time>
      </trkpt>
      <trkpt lat="40.7925980" lon="-2.1555410">
        <ele>937.2</ele>
        <time>2019-07-06T07:29:55Z</time>
      </trkpt>
      <trkpt lat="40.7926730" lon="-2.1555860">
        <ele>936.8</ele>
        <time>2019-07-06T07:29:56Z</time>
      </trkpt>
      <trkpt lat="40.7929850" lon="-2.1557000">
        <ele>935.8</ele>
        <time>2019-07-06T07:30:00Z</time>
      </trkpt>
      <trkpt lat="40.7930640" lon="-2.1557140">
        <ele>935.4</ele>
        <time>2019-07-06T07:30:01Z</time>
      </trkpt>
      <trkpt lat="40.7931450" lon="-2.1557190">
        <ele>935.2</ele>
        <time>2019-07-06T07:30:02Z</time>
      </trkpt>
      <trkpt lat="40.7933970" lon="-2.1557070">
        <ele>934.4</ele>
        <time>2019-07-06T07:30:05Z</time>
      </trkpt>
      <trkpt lat="40.7936670" lon="-2.1557040">
        <ele>933.0</ele>
        <time>2019-07-06T07:30:08Z</time>
      </trkpt>
      <trkpt lat="40.7939480" lon="-2.1556980">
        <ele>931.6</ele>
        <time>2019-07-06T07:30:11Z</time>
      </trkpt>
      <trkpt lat="40.7941480" lon="-2.1556950">
        <ele>930.6</ele>
        <time>2019-07-06T07:30:13Z</time>
      </trkpt>
      <trkpt lat="40.7943580" lon="-2.1556900">
        <ele>929.4</ele>
        <time>2019-07-06T07:30:15Z</time>
      </trkpt>
      <trkpt lat="40.7945750" lon="-2.1556880">
        <ele>928.0</ele>
        <time>2019-07-06T07:30:17Z</time>
      </trkpt>
      <trkpt lat="40.7946840" lon="-2.1556870">
        <ele>927.4</ele>
        <time>2019-07-06T07:30:18Z</time>
      </trkpt>
      <trkpt lat="40.7947940" lon="-2.1556860">
        <ele>926.6</ele>
        <time>2019-07-06T07:30:19Z</time>
      </trkpt>
      <trkpt lat="40.7951230" lon="-2.1556750">
        <ele>925.6</ele>
        <time>2019-07-06T07:30:22Z</time>
      </trkpt>
      <trkpt lat="40.7954350" lon="-2.1556600">
        <ele>924.4</ele>
        <time>2019-07-06T07:30:25Z</time>
      </trkpt>
      <trkpt lat="40.7956320" lon="-2.1556530">
        <ele>923.4</ele>
        <time>2019-07-06T07:30:27Z</time>
      </trkpt>
      <trkpt lat="40.7960940" lon="-2.1556330">
        <ele>922.4</ele>
        <time>2019-07-06T07:30:32Z</time>
      </trkpt>
      <trkpt lat="40.7961820" lon="-2.1556300">
        <ele>922.0</ele>
        <time>2019-07-06T07:30:33Z</time>
      </trkpt>
      <trkpt lat="40.7966640" lon="-2.1555970">
        <ele>921.4</ele>
        <time>2019-07-06T07:30:39Z</time>
      </trkpt>
      <trkpt lat="40.7968680" lon="-2.1555770">
        <ele>921.4</ele>
        <time>2019-07-06T07:30:42Z</time>
      </trkpt>
      <trkpt lat="40.7969320" lon="-2.1555640">
        <ele>921.4</ele>
        <time>2019-07-06T07:30:43Z</time>
      </trkpt>
      <trkpt lat="40.7970530" lon="-2.1555150">
        <ele>921.6</ele>
        <time>2019-07-06T07:30:45Z</time>
      </trkpt>
      <trkpt lat="40.7972860" lon="-2.1554020">
        <ele>922.0</ele>
        <time>2019-07-06T07:30:49Z</time>
      </trkpt>
      <trkpt lat="40.7974510" lon="-2.1552950">
        <ele>922.0</ele>
        <time>2019-07-06T07:30:52Z</time>
      </trkpt>
      <trkpt lat="40.7976030" lon="-2.1551690">
        <ele>922.0</ele>
        <time>2019-07-06T07:30:55Z</time>
      </trkpt>
      <trkpt lat="40.7977890" lon="-2.1549650">
        <ele>922.0</ele>
        <time>2019-07-06T07:30:59Z</time>
      </trkpt>
      <trkpt lat="40.7979160" lon="-2.1548090">
        <ele>922.2</ele>
        <time>2019-07-06T07:31:02Z</time>
      </trkpt>
      <trkpt lat="40.7979870" lon="-2.1546930">
        <ele>922.4</ele>
        <time>2019-07-06T07:31:04Z</time>
      </trkpt>
      <trkpt lat="40.7980220" lon="-2.1546310">
        <ele>922.4</ele>
        <time>2019-07-06T07:31:05Z</time>
      </trkpt>
      <trkpt lat="40.7981530" lon="-2.1543870">
        <ele>922.4</ele>
        <time>2019-07-06T07:31:09Z</time>
      </trkpt>
      <trkpt lat="40.7981790" lon="-2.1543270">
        <ele>922.6</ele>
        <time>2019-07-06T07:31:10Z</time>
      </trkpt>
      <trkpt lat="40.7982000" lon="-2.1542630">
        <ele>922.6</ele>
        <time>2019-07-06T07:31:11Z</time>
      </trkpt>
      <trkpt lat="40.7982800" lon="-2.1539940">
        <ele>923.0</ele>
        <time>2019-07-06T07:31:15Z</time>
      </trkpt>
      <trkpt lat="40.7983320" lon="-2.1537950">
        <ele>923.2</ele>
        <time>2019-07-06T07:31:18Z</time>
      </trkpt>
      <trkpt lat="40.7983650" lon="-2.1536570">
        <ele>923.2</ele>
        <time>2019-07-06T07:31:20Z</time>
      </trkpt>
      <trkpt lat="40.7983780" lon="-2.1535850">
        <ele>923.4</ele>
        <time>2019-07-06T07:31:21Z</time>
      </trkpt>
      <trkpt lat="40.7984180" lon="-2.1533750">
        <ele>923.4</ele>
        <time>2019-07-06T07:31:24Z</time>
      </trkpt>
      <trkpt lat="40.7984720" lon="-2.1531680">
        <ele>923.4</ele>
        <time>2019-07-06T07:31:27Z</time>
      </trkpt>
      <trkpt lat="40.7985450" lon="-2.1529630">
        <ele>923.2</ele>
        <time>2019-07-06T07:31:30Z</time>
      </trkpt>
      <trkpt lat="40.7985720" lon="-2.1528910">
        <ele>923.2</ele>
        <time>2019-07-06T07:31:31Z</time>
      </trkpt>
      <trkpt lat="40.7987200" lon="-2.1525590">
        <ele>923.0</ele>
        <time>2019-07-06T07:31:36Z</time>
      </trkpt>
      <trkpt lat="40.7988970" lon="-2.1521690">
        <ele>923.0</ele>
        <time>2019-07-06T07:31:42Z</time>
      </trkpt>
      <trkpt lat="40.7989270" lon="-2.1521050">
        <ele>922.6</ele>
        <time>2019-07-06T07:31:43Z</time>
      </trkpt>
      <trkpt lat="40.7989560" lon="-2.1520390">
        <ele>922.4</ele>
        <time>2019-07-06T07:31:44Z</time>
      </trkpt>
      <trkpt lat="40.7991010" lon="-2.1516990">
        <ele>922.2</ele>
        <time>2019-07-06T07:31:49Z</time>
      </trkpt>
      <trkpt lat="40.7991670" lon="-2.1515710">
        <ele>922.4</ele>
        <time>2019-07-06T07:31:51Z</time>
      </trkpt>
      <trkpt lat="40.7993460" lon="-2.1511800">
        <ele>922.2</ele>
        <time>2019-07-06T07:31:57Z</time>
      </trkpt>
      <trkpt lat="40.7995260" lon="-2.1508040">
        <ele>922.4</ele>
        <time>2019-07-06T07:32:03Z</time>
      </trkpt>
      <trkpt lat="40.7996790" lon="-2.1504440">
        <ele>922.8</ele>
        <time>2019-07-06T07:32:09Z</time>
      </trkpt>
      <trkpt lat="40.7998710" lon="-2.1500310">
        <ele>923.2</ele>
        <time>2019-07-06T07:32:16Z</time>
      </trkpt>
      <trkpt lat="40.7998990" lon="-2.1499690">
        <ele>923.4</ele>
        <time>2019-07-06T07:32:17Z</time>
      </trkpt>
      <trkpt lat="40.8000360" lon="-2.1496580">
        <ele>923.6</ele>
        <time>2019-07-06T07:32:22Z</time>
      </trkpt>
      <trkpt lat="40.8002110" lon="-2.1492200">
        <ele>923.8</ele>
        <time>2019-07-06T07:32:29Z</time>
      </trkpt>
      <trkpt lat="40.8003740" lon="-2.1488580">
        <ele>924.0</ele>
        <time>2019-07-06T07:32:35Z</time>
      </trkpt>
      <trkpt lat="40.8005620" lon="-2.1484240">
        <ele>924.4</ele>
        <time>2019-07-06T07:32:42Z</time>
      </trkpt>
      <trkpt lat="40.8005960" lon="-2.1483620">
        <ele>924.6</ele>
        <time>2019-07-06T07:32:43Z</time>
      </trkpt>
      <trkpt lat="40.8008060" lon="-2.1479860">
        <ele>924.6</ele>
        <time>2019-07-06T07:32:49Z</time>
      </trkpt>
      <trkpt lat="40.8009430" lon="-2.1477360">
        <ele>924.4</ele>
        <time>2019-07-06T07:32:53Z</time>
      </trkpt>
      <trkpt lat="40.8010080" lon="-2.1476130">
        <ele>924.2</ele>
        <time>2019-07-06T07:32:55Z</time>
      </trkpt>
      <trkpt lat="40.8011570" lon="-2.1473440">
        <ele>924.0</ele>
        <time>2019-07-06T07:33:00Z</time>
      </trkpt>
      <trkpt lat="40.8011870" lon="-2.1473300">
        <ele>924.2</ele>
        <time>2019-07-06T07:33:01Z</time>
      </trkpt>
      <trkpt lat="40.8012320" lon="-2.1473510">
        <ele>924.2</ele>
        <time>2019-07-06T07:33:03Z</time>
      </trkpt>
      <trkpt lat="40.8012390" lon="-2.1473760">
        <ele>924.4</ele>
        <time>2019-07-06T07:33:04Z</time>
      </trkpt>
      <trkpt lat="40.8012160" lon="-2.1474790">
        <ele>924.6</ele>
        <time>2019-07-06T07:33:07Z</time>
      </trkpt>
      <trkpt lat="40.8011990" lon="-2.1475160">
        <ele>924.6</ele>
        <time>2019-07-06T07:33:08Z</time>
      </trkpt>
      <trkpt lat="40.8011730" lon="-2.1475930">
        <ele>925.2</ele>
        <time>2019-07-06T07:33:10Z</time>
      </trkpt>
      <trkpt lat="40.8011500" lon="-2.1476780">
        <ele>925.8</ele>
        <time>2019-07-06T07:33:12Z</time>
      </trkpt>
      <trkpt lat="40.8011370" lon="-2.1477190">
        <ele>926.0</ele>
        <time>2019-07-06T07:33:13Z</time>
      </trkpt>
      <trkpt lat="40.8010960" lon="-2.1478380">
        <ele>926.8</ele>
        <time>2019-07-06T07:33:16Z</time>
      </trkpt>
      <trkpt lat="40.8010810" lon="-2.1478760">
        <ele>927.0</ele>
        <time>2019-07-06T07:33:17Z</time>
      </trkpt>
      <trkpt lat="40.8010480" lon="-2.1479960">
        <ele>928.4</ele>
        <time>2019-07-06T07:33:20Z</time>
      </trkpt>
      <trkpt lat="40.8009960" lon="-2.1481500">
        <ele>929.4</ele>
        <time>2019-07-06T07:33:24Z</time>
      </trkpt>
      <trkpt lat="40.8009870" lon="-2.1481900">
        <ele>929.6</ele>
        <time>2019-07-06T07:33:25Z</time>
      </trkpt>
      <trkpt lat="40.8009550" lon="-2.1483170">
        <ele>930.2</ele>
        <time>2019-07-06T07:33:28Z</time>
      </trkpt>
      <trkpt lat="40.8009380" lon="-2.1483950">
        <ele>930.8</ele>
        <time>2019-07-06T07:33:30Z</time>
      </trkpt>
      <trkpt lat="40.8009300" lon="-2.1484340">
        <ele>931.2</ele>
        <time>2019-07-06T07:33:31Z</time>
      </trkpt>
      <trkpt lat="40.8008990" lon="-2.1485510">
        <ele>932.0</ele>
        <time>2019-07-06T07:33:34Z</time>
      </trkpt>
      <trkpt lat="40.8008750" lon="-2.1486660">
        <ele>932.6</ele>
        <time>2019-07-06T07:33:37Z</time>
      </trkpt>
      <trkpt lat="40.8008550" lon="-2.1487400">
        <ele>933.2</ele>
        <time>2019-07-06T07:33:39Z</time>
      </trkpt>
      <trkpt lat="40.8008070" lon="-2.1488920">
        <ele>934.4</ele>
        <time>2019-07-06T07:33:43Z</time>
      </trkpt>
      <trkpt lat="40.8007760" lon="-2.1489630">
        <ele>934.8</ele>
        <time>2019-07-06T07:33:45Z</time>
      </trkpt>
      <trkpt lat="40.8007200" lon="-2.1491010">
        <ele>935.8</ele>
        <time>2019-07-06T07:33:49Z</time>
      </trkpt>
      <trkpt lat="40.8006490" lon="-2.1492770">
        <ele>937.0</ele>
        <time>2019-07-06T07:33:54Z</time>
      </trkpt>
      <trkpt lat="40.8006050" lon="-2.1494110">
        <ele>938.0</ele>
        <time>2019-07-06T07:33:58Z</time>
      </trkpt>
      <trkpt lat="40.8005760" lon="-2.1494700">
        <ele>938.8</ele>
        <time>2019-07-06T07:34:00Z</time>
      </trkpt>
      <trkpt lat="40.8005650" lon="-2.1495030">
        <ele>939.0</ele>
        <time>2019-07-06T07:34:01Z</time>
      </trkpt>
      <trkpt lat="40.8005160" lon="-2.1496280">
        <ele>940.2</ele>
        <time>2019-07-06T07:34:05Z</time>
      </trkpt>
      <trkpt lat="40.8005000" lon="-2.1496550">
        <ele>940.6</ele>
        <time>2019-07-06T07:34:06Z</time>
      </trkpt>
      <trkpt lat="40.8004580" lon="-2.1497420">
        <ele>941.4</ele>
        <time>2019-07-06T07:34:09Z</time>
      </trkpt>
      <trkpt lat="40.8003980" lon="-2.1498590">
        <ele>942.6</ele>
        <time>2019-07-06T07:34:13Z</time>
      </trkpt>
      <trkpt lat="40.8003490" lon="-2.1499640">
        <ele>943.8</ele>
        <time>2019-07-06T07:34:17Z</time>
      </trkpt>
      <trkpt lat="40.8003150" lon="-2.1500080">
        <ele>944.4</ele>
        <time>2019-07-06T07:34:19Z</time>
      </trkpt>
      <trkpt lat="40.8002880" lon="-2.1500660">
        <ele>945.0</ele>
        <time>2019-07-06T07:34:21Z</time>
      </trkpt>
      <trkpt lat="40.8002590" lon="-2.1502040">
        <ele>945.8</ele>
        <time>2019-07-06T07:34:25Z</time>
      </trkpt>
      <trkpt lat="40.8002580" lon="-2.1502440">
        <ele>946.2</ele>
        <time>2019-07-06T07:34:26Z</time>
      </trkpt>
      <trkpt lat="40.8002790" lon="-2.1504250">
        <ele>946.8</ele>
        <time>2019-07-06T07:34:30Z</time>
      </trkpt>
      <trkpt lat="40.8002860" lon="-2.1505250">
        <ele>947.2</ele>
        <time>2019-07-06T07:34:32Z</time>
      </trkpt>
      <trkpt lat="40.8002570" lon="-2.1506170">
        <ele>947.2</ele>
        <time>2019-07-06T07:34:34Z</time>
      </trkpt>
      <trkpt lat="40.8001640" lon="-2.1507650">
        <ele>948.4</ele>
        <time>2019-07-06T07:34:38Z</time>
      </trkpt>
      <trkpt lat="40.8001060" lon="-2.1508720">
        <ele>949.0</ele>
        <time>2019-07-06T07:34:41Z</time>
      </trkpt>
      <trkpt lat="40.8000940" lon="-2.1509100">
        <ele>949.4</ele>
        <time>2019-07-06T07:34:42Z</time>
      </trkpt>
      <trkpt lat="40.8000900" lon="-2.1510570">
        <ele>950.4</ele>
        <time>2019-07-06T07:34:46Z</time>
      </trkpt>
      <trkpt lat="40.8000910" lon="-2.1512420">
        <ele>951.8</ele>
        <time>2019-07-06T07:34:51Z</time>
      </trkpt>
      <trkpt lat="40.8000820" lon="-2.1512760">
        <ele>952.0</ele>
        <time>2019-07-06T07:34:52Z</time>
      </trkpt>
      <trkpt lat="40.8000550" lon="-2.1513330">
        <ele>952.8</ele>
        <time>2019-07-06T07:34:54Z</time>
      </trkpt>
      <trkpt lat="40.8000070" lon="-2.1513940">
        <ele>953.6</ele>
        <time>2019-07-06T07:34:57Z</time>
      </trkpt>
      <trkpt lat="40.7999940" lon="-2.1514190">
        <ele>953.8</ele>
        <time>2019-07-06T07:34:58Z</time>
      </trkpt>
      <trkpt lat="40.7999330" lon="-2.1515330">
        <ele>955.2</ele>
        <time>2019-07-06T07:35:02Z</time>
      </trkpt>
      <trkpt lat="40.7999190" lon="-2.1516130">
        <ele>955.8</ele>
        <time>2019-07-06T07:35:04Z</time>
      </trkpt>
      <trkpt lat="40.7999190" lon="-2.1517020">
        <ele>956.2</ele>
        <time>2019-07-06T07:35:06Z</time>
      </trkpt>
      <trkpt lat="40.7999340" lon="-2.1518950">
        <ele>957.0</ele>
        <time>2019-07-06T07:35:10Z</time>
      </trkpt>
      <trkpt lat="40.7999370" lon="-2.1519460">
        <ele>957.4</ele>
        <time>2019-07-06T07:35:11Z</time>
      </trkpt>
      <trkpt lat="40.7999270" lon="-2.1521890">
        <ele>958.2</ele>
        <time>2019-07-06T07:35:16Z</time>
      </trkpt>
      <trkpt lat="40.7999290" lon="-2.1522370">
        <ele>958.4</ele>
        <time>2019-07-06T07:35:17Z</time>
      </trkpt>
      <trkpt lat="40.7999140" lon="-2.1524760">
        <ele>959.2</ele>
        <time>2019-07-06T07:35:22Z</time>
      </trkpt>
      <trkpt lat="40.7999050" lon="-2.1525730">
        <ele>959.6</ele>
        <time>2019-07-06T07:35:24Z</time>
      </trkpt>
      <trkpt lat="40.7998760" lon="-2.1527670">
        <ele>960.6</ele>
        <time>2019-07-06T07:35:28Z</time>
      </trkpt>
      <trkpt lat="40.7998660" lon="-2.1528140">
        <ele>960.8</ele>
        <time>2019-07-06T07:35:29Z</time>
      </trkpt>
      <trkpt lat="40.7998270" lon="-2.1530560">
        <ele>961.8</ele>
        <time>2019-07-06T07:35:34Z</time>
      </trkpt>
      <trkpt lat="40.7998180" lon="-2.1531030">
        <ele>962.0</ele>
        <time>2019-07-06T07:35:35Z</time>
      </trkpt>
      <trkpt lat="40.7997530" lon="-2.1533330">
        <ele>963.2</ele>
        <time>2019-07-06T07:35:40Z</time>
      </trkpt>
      <trkpt lat="40.7997350" lon="-2.1533800">
        <ele>963.6</ele>
        <time>2019-07-06T07:35:41Z</time>
      </trkpt>
      <trkpt lat="40.7996900" lon="-2.1535230">
        <ele>964.0</ele>
        <time>2019-07-06T07:35:44Z</time>
      </trkpt>
      <trkpt lat="40.7996720" lon="-2.1535690">
        <ele>964.2</ele>
        <time>2019-07-06T07:35:45Z</time>
      </trkpt>
      <trkpt lat="40.7996440" lon="-2.1536570">
        <ele>964.6</ele>
        <time>2019-07-06T07:35:47Z</time>
      </trkpt>
      <trkpt lat="40.7996190" lon="-2.1537480">
        <ele>965.2</ele>
        <time>2019-07-06T07:35:49Z</time>
      </trkpt>
      <trkpt lat="40.7995830" lon="-2.1539330">
        <ele>966.2</ele>
        <time>2019-07-06T07:35:53Z</time>
      </trkpt>
      <trkpt lat="40.7995720" lon="-2.1539770">
        <ele>966.4</ele>
        <time>2019-07-06T07:35:54Z</time>
      </trkpt>
      <trkpt lat="40.7995400" lon="-2.1541580">
        <ele>967.6</ele>
        <time>2019-07-06T07:35:58Z</time>
      </trkpt>
      <trkpt lat="40.7995270" lon="-2.1542440">
        <ele>968.2</ele>
        <time>2019-07-06T07:36:00Z</time>
      </trkpt>
      <trkpt lat="40.7995210" lon="-2.1543270">
        <ele>968.6</ele>
        <time>2019-07-06T07:36:02Z</time>
      </trkpt>
      <trkpt lat="40.7995140" lon="-2.1545390">
        <ele>969.6</ele>
        <time>2019-07-06T07:36:07Z</time>
      </trkpt>
      <trkpt lat="40.7995160" lon="-2.1545800">
        <ele>969.8</ele>
        <time>2019-07-06T07:36:08Z</time>
      </trkpt>
      <trkpt lat="40.7995180" lon="-2.1547040">
        <ele>970.8</ele>
        <time>2019-07-06T07:36:11Z</time>
      </trkpt>
      <trkpt lat="40.7995560" lon="-2.1548520">
        <ele>972.0</ele>
        <time>2019-07-06T07:36:15Z</time>
      </trkpt>
      <trkpt lat="40.7996030" lon="-2.1548920">
        <ele>972.4</ele>
        <time>2019-07-06T07:36:17Z</time>
      </trkpt>
      <trkpt lat="40.7996570" lon="-2.1548810">
        <ele>973.0</ele>
        <time>2019-07-06T07:36:19Z</time>
      </trkpt>
      <trkpt lat="40.7997050" lon="-2.1548420">
        <ele>974.0</ele>
        <time>2019-07-06T07:36:21Z</time>
      </trkpt>
      <trkpt lat="40.7997280" lon="-2.1548140">
        <ele>974.4</ele>
        <time>2019-07-06T07:36:22Z</time>
      </trkpt>
      <trkpt lat="40.7997720" lon="-2.1547580">
        <ele>975.4</ele>
        <time>2019-07-06T07:36:24Z</time>
      </trkpt>
      <trkpt lat="40.7998200" lon="-2.1546550">
        <ele>976.6</ele>
        <time>2019-07-06T07:36:27Z</time>
      </trkpt>
      <trkpt lat="40.7998620" lon="-2.1545500">
        <ele>977.4</ele>
        <time>2019-07-06T07:36:30Z</time>
      </trkpt>
      <trkpt lat="40.7998770" lon="-2.1545150">
        <ele>977.6</ele>
        <time>2019-07-06T07:36:31Z</time>
      </trkpt>
      <trkpt lat="40.7999520" lon="-2.1543870">
        <ele>978.6</ele>
        <time>2019-07-06T07:36:35Z</time>
      </trkpt>
      <trkpt lat="40.7999960" lon="-2.1543360">
        <ele>979.2</ele>
        <time>2019-07-06T07:36:37Z</time>
      </trkpt>
      <trkpt lat="40.8000730" lon="-2.1542790">
        <ele>979.8</ele>
        <time>2019-07-06T07:36:40Z</time>
      </trkpt>
      <trkpt lat="40.8001820" lon="-2.1542140">
        <ele>980.8</ele>
        <time>2019-07-06T07:36:44Z</time>
      </trkpt>
      <trkpt lat="40.8002410" lon="-2.1541920">
        <ele>981.4</ele>
        <time>2019-07-06T07:36:46Z</time>
      </trkpt>
      <trkpt lat="40.8003330" lon="-2.1541580">
        <ele>982.0</ele>
        <time>2019-07-06T07:36:49Z</time>
      </trkpt>
      <trkpt lat="40.8004530" lon="-2.1541060">
        <ele>982.8</ele>
        <time>2019-07-06T07:36:53Z</time>
      </trkpt>
      <trkpt lat="40.8004830" lon="-2.1540870">
        <ele>983.0</ele>
        <time>2019-07-06T07:36:54Z</time>
      </trkpt>
      <trkpt lat="40.8006400" lon="-2.1540230">
        <ele>984.2</ele>
        <time>2019-07-06T07:36:59Z</time>
      </trkpt>
      <trkpt lat="40.8007070" lon="-2.1540160">
        <ele>985.0</ele>
        <time>2019-07-06T07:37:01Z</time>
      </trkpt>
      <trkpt lat="40.8007750" lon="-2.1540250">
        <ele>985.6</ele>
        <time>2019-07-06T07:37:03Z</time>
      </trkpt>
      <trkpt lat="40.8008980" lon="-2.1540830">
        <ele>986.6</ele>
        <time>2019-07-06T07:37:07Z</time>
      </trkpt>
      <trkpt lat="40.8010850" lon="-2.1541640">
        <ele>987.6</ele>
        <time>2019-07-06T07:37:13Z</time>
      </trkpt>
      <trkpt lat="40.8011170" lon="-2.1541660">
        <ele>987.8</ele>
        <time>2019-07-06T07:37:14Z</time>
      </trkpt>
      <trkpt lat="40.8012080" lon="-2.1541650">
        <ele>988.8</ele>
        <time>2019-07-06T07:37:17Z</time>
      </trkpt>
      <trkpt lat="40.8012930" lon="-2.1541560">
        <ele>989.6</ele>
        <time>2019-07-06T07:37:20Z</time>
      </trkpt>
      <trkpt lat="40.8013200" lon="-2.1541480">
        <ele>990.0</ele>
        <time>2019-07-06T07:37:21Z</time>
      </trkpt>
      <trkpt lat="40.8014290" lon="-2.1541350">
        <ele>991.2</ele>
        <time>2019-07-06T07:37:25Z</time>
      </trkpt>
      <trkpt lat="40.8014850" lon="-2.1541360">
        <ele>991.6</ele>
        <time>2019-07-06T07:37:27Z</time>
      </trkpt>
      <trkpt lat="40.8015390" lon="-2.1541290">
        <ele>992.2</ele>
        <time>2019-07-06T07:37:29Z</time>
      </trkpt>
      <trkpt lat="40.8016160" lon="-2.1540740">
        <ele>993.2</ele>
        <time>2019-07-06T07:37:32Z</time>
      </trkpt>
      <trkpt lat="40.8016840" lon="-2.1539080">
        <ele>994.2</ele>
        <time>2019-07-06T07:37:37Z</time>
      </trkpt>
      <trkpt lat="40.8017290" lon="-2.1537570">
        <ele>995.4</ele>
        <time>2019-07-06T07:37:41Z</time>
      </trkpt>
      <trkpt lat="40.8017520" lon="-2.1536880">
        <ele>995.8</ele>
        <time>2019-07-06T07:37:43Z</time>
      </trkpt>
      <trkpt lat="40.8018220" lon="-2.1535120">
        <ele>996.6</ele>
        <time>2019-07-06T07:37:48Z</time>
      </trkpt>
      <trkpt lat="40.8018660" lon="-2.1534030">
        <ele>997.8</ele>
        <time>2019-07-06T07:37:51Z</time>
      </trkpt>
      <trkpt lat="40.8019490" lon="-2.1532720">
        <ele>998.8</ele>
        <time>2019-07-06T07:37:55Z</time>
      </trkpt>
      <trkpt lat="40.8019870" lon="-2.1532030">
        <ele>999.2</ele>
        <time>2019-07-06T07:37:57Z</time>
      </trkpt>
      <trkpt lat="40.8020600" lon="-2.1531120">
        <ele>1000.0</ele>
        <time>2019-07-06T07:38:00Z</time>
      </trkpt>
      <trkpt lat="40.8021650" lon="-2.1530140">
        <ele>1001.0</ele>
        <time>2019-07-06T07:38:04Z</time>
      </trkpt>
      <trkpt lat="40.8021920" lon="-2.1529930">
        <ele>1001.2</ele>
        <time>2019-07-06T07:38:05Z</time>
      </trkpt>
      <trkpt lat="40.8023210" lon="-2.1528930">
        <ele>1002.4</ele>
        <time>2019-07-06T07:38:10Z</time>
      </trkpt>
      <trkpt lat="40.8023810" lon="-2.1528650">
        <ele>1003.0</ele>
        <time>2019-07-06T07:38:12Z</time>
      </trkpt>
      <trkpt lat="40.8024460" lon="-2.1528530">
        <ele>1003.6</ele>
        <time>2019-07-06T07:38:14Z</time>
      </trkpt>
      <trkpt lat="40.8025930" lon="-2.1528230">
        <ele>1004.6</ele>
        <time>2019-07-06T07:38:19Z</time>
      </trkpt>
      <trkpt lat="40.8027080" lon="-2.1527930">
        <ele>1005.8</ele>
        <time>2019-07-06T07:38:23Z</time>
      </trkpt>
      <trkpt lat="40.8027890" lon="-2.1527510">
        <ele>1006.2</ele>
        <time>2019-07-06T07:38:26Z</time>
      </trkpt>
      <trkpt lat="40.8028820" lon="-2.1526790">
        <ele>1007.2</ele>
        <time>2019-07-06T07:38:30Z</time>
      </trkpt>
      <trkpt lat="40.8029530" lon="-2.1526180">
        <ele>1008.0</ele>
        <time>2019-07-06T07:38:33Z</time>
      </trkpt>
      <trkpt lat="40.8030050" lon="-2.1525840">
        <ele>1008.4</ele>
        <time>2019-07-06T07:38:35Z</time>
      </trkpt>
      <trkpt lat="40.8031290" lon="-2.1525610">
        <ele>1009.2</ele>
        <time>2019-07-06T07:38:39Z</time>
      </trkpt>
      <trkpt lat="40.8031600" lon="-2.1525580">
        <ele>1009.6</ele>
        <time>2019-07-06T07:38:40Z</time>
      </trkpt>
      <trkpt lat="40.8033100" lon="-2.1525260">
        <ele>1010.6</ele>
        <time>2019-07-06T07:38:45Z</time>
      </trkpt>
      <trkpt lat="40.8033410" lon="-2.1525160">
        <ele>1011.0</ele>
        <time>2019-07-06T07:38:46Z</time>
      </trkpt>
      <trkpt lat="40.8034590" lon="-2.1524600">
        <ele>1011.8</ele>
        <time>2019-07-06T07:38:50Z</time>
      </trkpt>
      <trkpt lat="40.8035120" lon="-2.1524190">
        <ele>1012.4</ele>
        <time>2019-07-06T07:38:52Z</time>
      </trkpt>
      <trkpt lat="40.8035630" lon="-2.1523790">
        <ele>1013.2</ele>
        <time>2019-07-06T07:38:54Z</time>
      </trkpt>
      <trkpt lat="40.8037040" lon="-2.1523050">
        <ele>1014.2</ele>
        <time>2019-07-06T07:38:59Z</time>
      </trkpt>
      <trkpt lat="40.8037330" lon="-2.1522940">
        <ele>1014.4</ele>
        <time>2019-07-06T07:39:00Z</time>
      </trkpt>
      <trkpt lat="40.8038880" lon="-2.1522610">
        <ele>1015.4</ele>
        <time>2019-07-06T07:39:05Z</time>
      </trkpt>
      <trkpt lat="40.8039190" lon="-2.1522610">
        <ele>1015.8</ele>
        <time>2019-07-06T07:39:06Z</time>
      </trkpt>
      <trkpt lat="40.8040420" lon="-2.1522670">
        <ele>1016.4</ele>
        <time>2019-07-06T07:39:10Z</time>
      </trkpt>
      <trkpt lat="40.8041050" lon="-2.1522990">
        <ele>1016.6</ele>
        <time>2019-07-06T07:39:12Z</time>
      </trkpt>
      <trkpt lat="40.8042540" lon="-2.1524380">
        <ele>1017.4</ele>
        <time>2019-07-06T07:39:17Z</time>
      </trkpt>
      <trkpt lat="40.8042780" lon="-2.1524800">
        <ele>1017.8</ele>
        <time>2019-07-06T07:39:18Z</time>
      </trkpt>
      <trkpt lat="40.8043290" lon="-2.1526890">
        <ele>1018.4</ele>
        <time>2019-07-06T07:39:22Z</time>
      </trkpt>
      <trkpt lat="40.8043320" lon="-2.1527420">
        <ele>1018.6</ele>
        <time>2019-07-06T07:39:23Z</time>
      </trkpt>
      <trkpt lat="40.8043360" lon="-2.1529940">
        <ele>1019.6</ele>
        <time>2019-07-06T07:39:28Z</time>
      </trkpt>
      <trkpt lat="40.8043260" lon="-2.1530890">
        <ele>1020.0</ele>
        <time>2019-07-06T07:39:30Z</time>
      </trkpt>
      <trkpt lat="40.8043100" lon="-2.1533370">
        <ele>1020.6</ele>
        <time>2019-07-06T07:39:35Z</time>
      </trkpt>
      <trkpt lat="40.8043250" lon="-2.1534360">
        <ele>1021.2</ele>
        <time>2019-07-06T07:39:37Z</time>
      </trkpt>
      <trkpt lat="40.8043590" lon="-2.1535200">
        <ele>1021.8</ele>
        <time>2019-07-06T07:39:39Z</time>
      </trkpt>
      <trkpt lat="40.8044360" lon="-2.1536100">
        <ele>1023.0</ele>
        <time>2019-07-06T07:39:42Z</time>
      </trkpt>
      <trkpt lat="40.8045820" lon="-2.1536770">
        <ele>1024.2</ele>
        <time>2019-07-06T07:39:47Z</time>
      </trkpt>
      <trkpt lat="40.8046150" lon="-2.1536750">
        <ele>1024.4</ele>
        <time>2019-07-06T07:39:48Z</time>
      </trkpt>
      <trkpt lat="40.8047800" lon="-2.1536230">
        <ele>1025.4</ele>
        <time>2019-07-06T07:39:53Z</time>
      </trkpt>
      <trkpt lat="40.8048450" lon="-2.1535870">
        <ele>1025.8</ele>
        <time>2019-07-06T07:39:55Z</time>
      </trkpt>
      <trkpt lat="40.8049330" lon="-2.1535050">
        <ele>1026.8</ele>
        <time>2019-07-06T07:39:58Z</time>
      </trkpt>
      <trkpt lat="40.8050060" lon="-2.1533970">
        <ele>1027.2</ele>
        <time>2019-07-06T07:40:01Z</time>
      </trkpt>
      <trkpt lat="40.8050700" lon="-2.1532620">
        <ele>1027.6</ele>
        <time>2019-07-06T07:40:04Z</time>
      </trkpt>
      <trkpt lat="40.8051050" lon="-2.1531600">
        <ele>1027.8</ele>
        <time>2019-07-06T07:40:06Z</time>
      </trkpt>
      <trkpt lat="40.8051260" lon="-2.1531100">
        <ele>1027.8</ele>
        <time>2019-07-06T07:40:07Z</time>
      </trkpt>
      <trkpt lat="40.8052600" lon="-2.1529700">
        <ele>1028.6</ele>
        <time>2019-07-06T07:40:11Z</time>
      </trkpt>
      <trkpt lat="40.8053410" lon="-2.1529460">
        <ele>1028.8</ele>
        <time>2019-07-06T07:40:13Z</time>
      </trkpt>
      <trkpt lat="40.8053830" lon="-2.1529410">
        <ele>1029.0</ele>
        <time>2019-07-06T07:40:14Z</time>
      </trkpt>
      <trkpt lat="40.8054720" lon="-2.1529470">
        <ele>1028.8</ele>
        <time>2019-07-06T07:40:16Z</time>
      </trkpt>
      <trkpt lat="40.8056090" lon="-2.1529750">
        <ele>1029.2</ele>
        <time>2019-07-06T07:40:19Z</time>
      </trkpt>
      <trkpt lat="40.8056950" lon="-2.1530310">
        <ele>1029.4</ele>
        <time>2019-07-06T07:40:21Z</time>
      </trkpt>
      <trkpt lat="40.8058720" lon="-2.1531430">
        <ele>1029.4</ele>
        <time>2019-07-06T07:40:25Z</time>
      </trkpt>
      <trkpt lat="40.8060180" lon="-2.1532290">
        <ele>1029.0</ele>
        <time>2019-07-06T07:40:28Z</time>
      </trkpt>
      <trkpt lat="40.8060670" lon="-2.1532590">
        <ele>1028.8</ele>
        <time>2019-07-06T07:40:29Z</time>
      </trkpt>
      <trkpt lat="40.8062090" lon="-2.1533590">
        <ele>1029.0</ele>
        <time>2019-07-06T07:40:32Z</time>
      </trkpt>
      <trkpt lat="40.8062580" lon="-2.1533880">
        <ele>1029.0</ele>
        <time>2019-07-06T07:40:33Z</time>
      </trkpt>
      <trkpt lat="40.8065560" lon="-2.1535680">
        <ele>1029.0</ele>
        <time>2019-07-06T07:40:39Z</time>
      </trkpt>
      <trkpt lat="40.8066480" lon="-2.1536510">
        <ele>1029.2</ele>
        <time>2019-07-06T07:40:41Z</time>
      </trkpt>
      <trkpt lat="40.8067590" lon="-2.1538130">
        <ele>1029.0</ele>
        <time>2019-07-06T07:40:44Z</time>
      </trkpt>
      <trkpt lat="40.8068490" lon="-2.1539980">
        <ele>1028.8</ele>
        <time>2019-07-06T07:40:47Z</time>
      </trkpt>
      <trkpt lat="40.8069320" lon="-2.1542030">
        <ele>1028.8</ele>
        <time>2019-07-06T07:40:50Z</time>
      </trkpt>
      <trkpt lat="40.8070020" lon="-2.1543340">
        <ele>1028.8</ele>
        <time>2019-07-06T07:40:52Z</time>
      </trkpt>
      <trkpt lat="40.8071010" lon="-2.1544310">
        <ele>1028.6</ele>
        <time>2019-07-06T07:40:54Z</time>
      </trkpt>
      <trkpt lat="40.8071590" lon="-2.1544550">
        <ele>1028.6</ele>
        <time>2019-07-06T07:40:55Z</time>
      </trkpt>
      <trkpt lat="40.8072840" lon="-2.1544650">
        <ele>1028.4</ele>
        <time>2019-07-06T07:40:57Z</time>
      </trkpt>
      <trkpt lat="40.8073470" lon="-2.1544620">
        <ele>1028.4</ele>
        <time>2019-07-06T07:40:58Z</time>
      </trkpt>
      <trkpt lat="40.8077460" lon="-2.1544290">
        <ele>1027.6</ele>
        <time>2019-07-06T07:41:04Z</time>
      </trkpt>
      <trkpt lat="40.8078120" lon="-2.1544370">
        <ele>1027.4</ele>
        <time>2019-07-06T07:41:05Z</time>
      </trkpt>
      <trkpt lat="40.8079960" lon="-2.1545310">
        <ele>1026.6</ele>
        <time>2019-07-06T07:41:08Z</time>
      </trkpt>
      <trkpt lat="40.8080530" lon="-2.1545780">
        <ele>1026.2</ele>
        <time>2019-07-06T07:41:09Z</time>
      </trkpt>
      <trkpt lat="40.8082390" lon="-2.1546880">
        <ele>1025.6</ele>
        <time>2019-07-06T07:41:12Z</time>
      </trkpt>
      <trkpt lat="40.8083090" lon="-2.1547000">
        <ele>1025.6</ele>
        <time>2019-07-06T07:41:13Z</time>
      </trkpt>
      <trkpt lat="40.8084490" lon="-2.1547090">
        <ele>1025.2</ele>
        <time>2019-07-06T07:41:15Z</time>
      </trkpt>
      <trkpt lat="40.8085540" lon="-2.1547610">
        <ele>1024.2</ele>
        <time>2019-07-06T07:41:17Z</time>
      </trkpt>
      <trkpt lat="40.8085910" lon="-2.1548120">
        <ele>1023.4</ele>
        <time>2019-07-06T07:41:18Z</time>
      </trkpt>
      <trkpt lat="40.8086100" lon="-2.1549290">
        <ele>1023.0</ele>
        <time>2019-07-06T07:41:20Z</time>
      </trkpt>
      <trkpt lat="40.8085490" lon="-2.1550760">
        <ele>1023.0</ele>
        <time>2019-07-06T07:41:23Z</time>
      </trkpt>
      <trkpt lat="40.8085250" lon="-2.1551210">
        <ele>1023.0</ele>
        <time>2019-07-06T07:41:24Z</time>
      </trkpt>
      <trkpt lat="40.8085000" lon="-2.1551660">
        <ele>1023.2</ele>
        <time>2019-07-06T07:41:25Z</time>
      </trkpt>
      <trkpt lat="40.8084460" lon="-2.1552480">
        <ele>1023.6</ele>
        <time>2019-07-06T07:41:27Z</time>
      </trkpt>
      <trkpt lat="40.8083520" lon="-2.1553470">
        <ele>1024.2</ele>
        <time>2019-07-06T07:41:30Z</time>
      </trkpt>
      <trkpt lat="40.8083190" lon="-2.1553770">
        <ele>1024.6</ele>
        <time>2019-07-06T07:41:31Z</time>
      </trkpt>
      <trkpt lat="40.8082120" lon="-2.1554520">
        <ele>1025.4</ele>
        <time>2019-07-06T07:41:34Z</time>
      </trkpt>
      <trkpt lat="40.8081740" lon="-2.1554720">
        <ele>1025.6</ele>
        <time>2019-07-06T07:41:35Z</time>
      </trkpt>
      <trkpt lat="40.8080970" lon="-2.1555130">
        <ele>1025.8</ele>
        <time>2019-07-06T07:41:37Z</time>
      </trkpt>
      <trkpt lat="40.8079380" lon="-2.1555930">
        <ele>1026.6</ele>
        <time>2019-07-06T07:41:41Z</time>
      </trkpt>
      <trkpt lat="40.8078170" lon="-2.1556520">
        <ele>1027.2</ele>
        <time>2019-07-06T07:41:44Z</time>
      </trkpt>
      <trkpt lat="40.8076970" lon="-2.1557010">
        <ele>1027.6</ele>
        <time>2019-07-06T07:41:47Z</time>
      </trkpt>
      <trkpt lat="40.8076200" lon="-2.1557380">
        <ele>1027.8</ele>
        <time>2019-07-06T07:41:49Z</time>
      </trkpt>
      <trkpt lat="40.8075040" lon="-2.1557890">
        <ele>1028.6</ele>
        <time>2019-07-06T07:41:52Z</time>
      </trkpt>
      <trkpt lat="40.8074360" lon="-2.1558300">
        <ele>1029.0</ele>
        <time>2019-07-06T07:41:54Z</time>
      </trkpt>
      <trkpt lat="40.8072900" lon="-2.1559720">
        <ele>1030.0</ele>
        <time>2019-07-06T07:41:59Z</time>
      </trkpt>
      <trkpt lat="40.8072830" lon="-2.1560680">
        <ele>1030.2</ele>
        <time>2019-07-06T07:42:01Z</time>
      </trkpt>
      <trkpt lat="40.8073030" lon="-2.1561100">
        <ele>1030.6</ele>
        <time>2019-07-06T07:42:02Z</time>
      </trkpt>
      <trkpt lat="40.8074360" lon="-2.1562210">
        <ele>1031.2</ele>
        <time>2019-07-06T07:42:06Z</time>
      </trkpt>
      <trkpt lat="40.8075060" lon="-2.1562730">
        <ele>1031.2</ele>
        <time>2019-07-06T07:42:08Z</time>
      </trkpt>
      <trkpt lat="40.8076910" lon="-2.1563730">
        <ele>1032.0</ele>
        <time>2019-07-06T07:42:13Z</time>
      </trkpt>
      <trkpt lat="40.8077620" lon="-2.1564040">
        <ele>1032.2</ele>
        <time>2019-07-06T07:42:15Z</time>
      </trkpt>
      <trkpt lat="40.8078980" lon="-2.1564560">
        <ele>1033.2</ele>
        <time>2019-07-06T07:42:19Z</time>
      </trkpt>
      <trkpt lat="40.8079320" lon="-2.1564800">
        <ele>1033.4</ele>
        <time>2019-07-06T07:42:20Z</time>
      </trkpt>
      <trkpt lat="40.8079940" lon="-2.1565460">
        <ele>1033.4</ele>
        <time>2019-07-06T07:42:22Z</time>
      </trkpt>
      <trkpt lat="40.8080500" lon="-2.1566200">
        <ele>1033.6</ele>
        <time>2019-07-06T07:42:24Z</time>
      </trkpt>
      <trkpt lat="40.8081760" lon="-2.1567620">
        <ele>1034.4</ele>
        <time>2019-07-06T07:42:28Z</time>
      </trkpt>
      <trkpt lat="40.8083040" lon="-2.1569080">
        <ele>1034.8</ele>
        <time>2019-07-06T07:42:32Z</time>
      </trkpt>
      <trkpt lat="40.8083390" lon="-2.1571340">
        <ele>1035.4</ele>
        <time>2019-07-06T07:42:36Z</time>
      </trkpt>
      <trkpt lat="40.8083280" lon="-2.1571900">
        <ele>1035.6</ele>
        <time>2019-07-06T07:42:37Z</time>
      </trkpt>
      <trkpt lat="40.8082670" lon="-2.1573580">
        <ele>1036.0</ele>
        <time>2019-07-06T07:42:40Z</time>
      </trkpt>
      <trkpt lat="40.8081060" lon="-2.1578150">
        <ele>1036.2</ele>
        <time>2019-07-06T07:42:47Z</time>
      </trkpt>
      <trkpt lat="40.8079870" lon="-2.1581700">
        <ele>1036.0</ele>
        <time>2019-07-06T07:42:52Z</time>
      </trkpt>
      <trkpt lat="40.8079330" lon="-2.1583240">
        <ele>1035.6</ele>
        <time>2019-07-06T07:42:54Z</time>
      </trkpt>
      <trkpt lat="40.8078730" lon="-2.1584800">
        <ele>1035.4</ele>
        <time>2019-07-06T07:42:56Z</time>
      </trkpt>
      <trkpt lat="40.8078470" lon="-2.1585630">
        <ele>1035.4</ele>
        <time>2019-07-06T07:42:57Z</time>
      </trkpt>
      <trkpt lat="40.8078310" lon="-2.1586530">
        <ele>1035.2</ele>
        <time>2019-07-06T07:42:58Z</time>
      </trkpt>
      <trkpt lat="40.8078300" lon="-2.1588380">
        <ele>1034.6</ele>
        <time>2019-07-06T07:43:00Z</time>
      </trkpt>
      <trkpt lat="40.8078370" lon="-2.1589300">
        <ele>1034.4</ele>
        <time>2019-07-06T07:43:01Z</time>
      </trkpt>
      <trkpt lat="40.8078420" lon="-2.1590220">
        <ele>1034.0</ele>
        <time>2019-07-06T07:43:02Z</time>
      </trkpt>
      <trkpt lat="40.8078400" lon="-2.1591090">
        <ele>1033.8</ele>
        <time>2019-07-06T07:43:03Z</time>
      </trkpt>
      <trkpt lat="40.8077960" lon="-2.1592590">
        <ele>1033.8</ele>
        <time>2019-07-06T07:43:05Z</time>
      </trkpt>
      <trkpt lat="40.8076750" lon="-2.1595050">
        <ele>1034.0</ele>
        <time>2019-07-06T07:43:09Z</time>
      </trkpt>
      <trkpt lat="40.8076320" lon="-2.1596360">
        <ele>1034.0</ele>
        <time>2019-07-06T07:43:11Z</time>
      </trkpt>
      <trkpt lat="40.8075930" lon="-2.1599570">
        <ele>1035.0</ele>
        <time>2019-07-06T07:43:16Z</time>
      </trkpt>
      <trkpt lat="40.8075950" lon="-2.1600770">
        <ele>1035.6</ele>
        <time>2019-07-06T07:43:18Z</time>
      </trkpt>
      <trkpt lat="40.8076170" lon="-2.1603200">
        <ele>1036.2</ele>
        <time>2019-07-06T07:43:22Z</time>
      </trkpt>
      <trkpt lat="40.8076380" lon="-2.1604350">
        <ele>1036.4</ele>
        <time>2019-07-06T07:43:24Z</time>
      </trkpt>
      <trkpt lat="40.8076540" lon="-2.1605500">
        <ele>1036.6</ele>
        <time>2019-07-06T07:43:26Z</time>
      </trkpt>
      <trkpt lat="40.8076760" lon="-2.1607210">
        <ele>1037.4</ele>
        <time>2019-07-06T07:43:29Z</time>
      </trkpt>
      <trkpt lat="40.8076810" lon="-2.1607780">
        <ele>1037.6</ele>
        <time>2019-07-06T07:43:30Z</time>
      </trkpt>
      <trkpt lat="40.8076980" lon="-2.1609490">
        <ele>1038.6</ele>
        <time>2019-07-06T07:43:33Z</time>
      </trkpt>
      <trkpt lat="40.8077060" lon="-2.1610060">
        <ele>1039.0</ele>
        <time>2019-07-06T07:43:34Z</time>
      </trkpt>
      <trkpt lat="40.8077470" lon="-2.1612150">
        <ele>1039.8</ele>
        <time>2019-07-06T07:43:38Z</time>
      </trkpt>
      <trkpt lat="40.8077600" lon="-2.1612620">
        <ele>1040.2</ele>
        <time>2019-07-06T07:43:39Z</time>
      </trkpt>
      <trkpt lat="40.8077740" lon="-2.1613080">
        <ele>1040.4</ele>
        <time>2019-07-06T07:43:40Z</time>
      </trkpt>
      <trkpt lat="40.8078330" lon="-2.1614900">
        <ele>1041.4</ele>
        <time>2019-07-06T07:43:44Z</time>
      </trkpt>
      <trkpt lat="40.8078580" lon="-2.1616370">
        <ele>1042.0</ele>
        <time>2019-07-06T07:43:47Z</time>
      </trkpt>
      <trkpt lat="40.8078680" lon="-2.1617330">
        <ele>1042.6</ele>
        <time>2019-07-06T07:43:49Z</time>
      </trkpt>
      <trkpt lat="40.8078930" lon="-2.1618680">
        <ele>1043.6</ele>
        <time>2019-07-06T07:43:52Z</time>
      </trkpt>
      <trkpt lat="40.8079010" lon="-2.1619120">
        <ele>1043.8</ele>
        <time>2019-07-06T07:43:53Z</time>
      </trkpt>
      <trkpt lat="40.8079110" lon="-2.1620060">
        <ele>1044.4</ele>
        <time>2019-07-06T07:43:55Z</time>
      </trkpt>
      <trkpt lat="40.8079160" lon="-2.1621010">
        <ele>1045.0</ele>
        <time>2019-07-06T07:43:57Z</time>
      </trkpt>
      <trkpt lat="40.8079060" lon="-2.1622920">
        <ele>1046.2</ele>
        <time>2019-07-06T07:44:01Z</time>
      </trkpt>
      <trkpt lat="40.8078620" lon="-2.1624180">
        <ele>1047.2</ele>
        <time>2019-07-06T07:44:04Z</time>
      </trkpt>
      <trkpt lat="40.8078230" lon="-2.1624990">
        <ele>1047.6</ele>
        <time>2019-07-06T07:44:06Z</time>
      </trkpt>
      <trkpt lat="40.8077630" lon="-2.1626280">
        <ele>1048.2</ele>
        <time>2019-07-06T07:44:09Z</time>
      </trkpt>
      <trkpt lat="40.8076670" lon="-2.1628470">
        <ele>1048.8</ele>
        <time>2019-07-06T07:44:14Z</time>
      </trkpt>
      <trkpt lat="40.8076370" lon="-2.1629440">
        <ele>1049.4</ele>
        <time>2019-07-06T07:44:16Z</time>
      </trkpt>
      <trkpt lat="40.8075550" lon="-2.1631880">
        <ele>1050.4</ele>
        <time>2019-07-06T07:44:21Z</time>
      </trkpt>
      <trkpt lat="40.8075390" lon="-2.1632370">
        <ele>1050.8</ele>
        <time>2019-07-06T07:44:22Z</time>
      </trkpt>
      <trkpt lat="40.8074780" lon="-2.1633690">
        <ele>1051.6</ele>
        <time>2019-07-06T07:44:25Z</time>
      </trkpt>
      <trkpt lat="40.8074230" lon="-2.1634450">
        <ele>1052.0</ele>
        <time>2019-07-06T07:44:27Z</time>
      </trkpt>
      <trkpt lat="40.8073900" lon="-2.1634760">
        <ele>1052.2</ele>
        <time>2019-07-06T07:44:28Z</time>
      </trkpt>
      <trkpt lat="40.8073200" lon="-2.1635340">
        <ele>1052.6</ele>
        <time>2019-07-06T07:44:30Z</time>
      </trkpt>
      <trkpt lat="40.8071320" lon="-2.1636660">
        <ele>1053.2</ele>
        <time>2019-07-06T07:44:35Z</time>
      </trkpt>
      <trkpt lat="40.8070570" lon="-2.1637190">
        <ele>1053.6</ele>
        <time>2019-07-06T07:44:37Z</time>
      </trkpt>
      <trkpt lat="40.8068940" lon="-2.1637990">
        <ele>1054.4</ele>
        <time>2019-07-06T07:44:41Z</time>
      </trkpt>
      <trkpt lat="40.8068500" lon="-2.1638130">
        <ele>1054.6</ele>
        <time>2019-07-06T07:44:42Z</time>
      </trkpt>
      <trkpt lat="40.8066270" lon="-2.1638690">
        <ele>1055.0</ele>
        <time>2019-07-06T07:44:47Z</time>
      </trkpt>
      <trkpt lat="40.8064470" lon="-2.1639160">
        <ele>1055.4</ele>
        <time>2019-07-06T07:44:51Z</time>
      </trkpt>
      <trkpt lat="40.8063550" lon="-2.1639650">
        <ele>1055.4</ele>
        <time>2019-07-06T07:44:53Z</time>
      </trkpt>
      <trkpt lat="40.8063110" lon="-2.1640000">
        <ele>1055.4</ele>
        <time>2019-07-06T07:44:54Z</time>
      </trkpt>
      <trkpt lat="40.8061840" lon="-2.1642120">
        <ele>1055.4</ele>
        <time>2019-07-06T07:44:58Z</time>
      </trkpt>
      <trkpt lat="40.8061080" lon="-2.1644010">
        <ele>1055.4</ele>
        <time>2019-07-06T07:45:01Z</time>
      </trkpt>
      <trkpt lat="40.8060310" lon="-2.1646030">
        <ele>1055.2</ele>
        <time>2019-07-06T07:45:04Z</time>
      </trkpt>
      <trkpt lat="40.8059600" lon="-2.1648070">
        <ele>1055.2</ele>
        <time>2019-07-06T07:45:07Z</time>
      </trkpt>
      <trkpt lat="40.8058940" lon="-2.1650120">
        <ele>1055.6</ele>
        <time>2019-07-06T07:45:10Z</time>
      </trkpt>
      <trkpt lat="40.8058790" lon="-2.1650830">
        <ele>1055.6</ele>
        <time>2019-07-06T07:45:11Z</time>
      </trkpt>
      <trkpt lat="40.8058610" lon="-2.1652280">
        <ele>1055.8</ele>
        <time>2019-07-06T07:45:13Z</time>
      </trkpt>
      <trkpt lat="40.8058460" lon="-2.1654490">
        <ele>1056.0</ele>
        <time>2019-07-06T07:45:16Z</time>
      </trkpt>
      <trkpt lat="40.8058440" lon="-2.1655240">
        <ele>1056.0</ele>
        <time>2019-07-06T07:45:17Z</time>
      </trkpt>
      <trkpt lat="40.8058430" lon="-2.1659400">
        <ele>1056.6</ele>
        <time>2019-07-06T07:45:23Z</time>
      </trkpt>
      <trkpt lat="40.8058460" lon="-2.1660030">
        <ele>1056.8</ele>
        <time>2019-07-06T07:45:24Z</time>
      </trkpt>
      <trkpt lat="40.8058460" lon="-2.1661260">
        <ele>1057.2</ele>
        <time>2019-07-06T07:45:26Z</time>
      </trkpt>
      <trkpt lat="40.8058430" lon="-2.1663610">
        <ele>1058.2</ele>
        <time>2019-07-06T07:45:30Z</time>
      </trkpt>
      <trkpt lat="40.8058720" lon="-2.1666970">
        <ele>1059.4</ele>
        <time>2019-07-06T07:45:36Z</time>
      </trkpt>
      <trkpt lat="40.8058810" lon="-2.1669200">
        <ele>1060.2</ele>
        <time>2019-07-06T07:45:40Z</time>
      </trkpt>
      <trkpt lat="40.8058840" lon="-2.1669740">
        <ele>1060.6</ele>
        <time>2019-07-06T07:45:41Z</time>
      </trkpt>
      <trkpt lat="40.8059020" lon="-2.1670790">
        <ele>1061.2</ele>
        <time>2019-07-06T07:45:43Z</time>
      </trkpt>
      <trkpt lat="40.8059220" lon="-2.1671840">
        <ele>1061.4</ele>
        <time>2019-07-06T07:45:45Z</time>
      </trkpt>
      <trkpt lat="40.8059440" lon="-2.1673380">
        <ele>1061.6</ele>
        <time>2019-07-06T07:45:48Z</time>
      </trkpt>
      <trkpt lat="40.8059500" lon="-2.1673870">
        <ele>1061.6</ele>
        <time>2019-07-06T07:45:49Z</time>
      </trkpt>
      <trkpt lat="40.8059720" lon="-2.1675280">
        <ele>1062.8</ele>
        <time>2019-07-06T07:45:52Z</time>
      </trkpt>
      <trkpt lat="40.8060020" lon="-2.1676690">
        <ele>1064.0</ele>
        <time>2019-07-06T07:45:55Z</time>
      </trkpt>
      <trkpt lat="40.8060110" lon="-2.1677190">
        <ele>1064.4</ele>
        <time>2019-07-06T07:45:56Z</time>
      </trkpt>
      <trkpt lat="40.8060190" lon="-2.1678710">
        <ele>1065.0</ele>
        <time>2019-07-06T07:45:59Z</time>
      </trkpt>
      <trkpt lat="40.8060050" lon="-2.1679700">
        <ele>1065.4</ele>
        <time>2019-07-06T07:46:01Z</time>
      </trkpt>
      <trkpt lat="40.8059630" lon="-2.1681100">
        <ele>1066.2</ele>
        <time>2019-07-06T07:46:04Z</time>
      </trkpt>
      <trkpt lat="40.8059230" lon="-2.1682530">
        <ele>1067.0</ele>
        <time>2019-07-06T07:46:07Z</time>
      </trkpt>
      <trkpt lat="40.8059130" lon="-2.1683010">
        <ele>1067.4</ele>
        <time>2019-07-06T07:46:08Z</time>
      </trkpt>
      <trkpt lat="40.8058670" lon="-2.1684400">
        <ele>1068.4</ele>
        <time>2019-07-06T07:46:11Z</time>
      </trkpt>
      <trkpt lat="40.8058320" lon="-2.1685310">
        <ele>1068.6</ele>
        <time>2019-07-06T07:46:13Z</time>
      </trkpt>
      <trkpt lat="40.8057930" lon="-2.1686710">
        <ele>1069.4</ele>
        <time>2019-07-06T07:46:16Z</time>
      </trkpt>
      <trkpt lat="40.8057580" lon="-2.1687600">
        <ele>1069.8</ele>
        <time>2019-07-06T07:46:18Z</time>
      </trkpt>
      <trkpt lat="40.8057040" lon="-2.1688920">
        <ele>1070.6</ele>
        <time>2019-07-06T07:46:21Z</time>
      </trkpt>
      <trkpt lat="40.8056350" lon="-2.1690810">
        <ele>1071.6</ele>
        <time>2019-07-06T07:46:25Z</time>
      </trkpt>
      <trkpt lat="40.8056010" lon="-2.1691770">
        <ele>1072.0</ele>
        <time>2019-07-06T07:46:27Z</time>
      </trkpt>
      <trkpt lat="40.8055520" lon="-2.1693180">
        <ele>1072.8</ele>
        <time>2019-07-06T07:46:30Z</time>
      </trkpt>
      <trkpt lat="40.8055070" lon="-2.1694600">
        <ele>1073.4</ele>
        <time>2019-07-06T07:46:33Z</time>
      </trkpt>
      <trkpt lat="40.8054900" lon="-2.1695100">
        <ele>1073.6</ele>
        <time>2019-07-06T07:46:34Z</time>
      </trkpt>
      <trkpt lat="40.8054520" lon="-2.1696170">
        <ele>1073.8</ele>
        <time>2019-07-06T07:46:36Z</time>
      </trkpt>
      <trkpt lat="40.8053680" lon="-2.1698590">
        <ele>1073.6</ele>
        <time>2019-07-06T07:46:40Z</time>
      </trkpt>
      <trkpt lat="40.8052550" lon="-2.1701430">
        <ele>1072.6</ele>
        <time>2019-07-06T07:46:44Z</time>
      </trkpt>
      <trkpt lat="40.8052150" lon="-2.1702150">
        <ele>1072.4</ele>
        <time>2019-07-06T07:46:45Z</time>
      </trkpt>
      <trkpt lat="40.8051690" lon="-2.1702800">
        <ele>1072.2</ele>
        <time>2019-07-06T07:46:46Z</time>
      </trkpt>
      <trkpt lat="40.8050690" lon="-2.1703900">
        <ele>1071.8</ele>
        <time>2019-07-06T07:46:48Z</time>
      </trkpt>
      <trkpt lat="40.8050170" lon="-2.1704320">
        <ele>1071.8</ele>
        <time>2019-07-06T07:46:49Z</time>
      </trkpt>
      <trkpt lat="40.8049190" lon="-2.1705020">
        <ele>1071.8</ele>
        <time>2019-07-06T07:46:51Z</time>
      </trkpt>
      <trkpt lat="40.8048010" lon="-2.1705790">
        <ele>1072.2</ele>
        <time>2019-07-06T07:46:54Z</time>
      </trkpt>
      <trkpt lat="40.8046390" lon="-2.1706970">
        <ele>1073.8</ele>
        <time>2019-07-06T07:46:59Z</time>
      </trkpt>
      <trkpt lat="40.8045760" lon="-2.1707400">
        <ele>1074.4</ele>
        <time>2019-07-06T07:47:01Z</time>
      </trkpt>
      <trkpt lat="40.8045140" lon="-2.1707900">
        <ele>1075.0</ele>
        <time>2019-07-06T07:47:03Z</time>
      </trkpt>
      <trkpt lat="40.8044170" lon="-2.1708580">
        <ele>1075.8</ele>
        <time>2019-07-06T07:47:06Z</time>
      </trkpt>
      <trkpt lat="40.8043500" lon="-2.1708820">
        <ele>1076.2</ele>
        <time>2019-07-06T07:47:08Z</time>
      </trkpt>
      <trkpt lat="40.8042470" lon="-2.1708610">
        <ele>1077.4</ele>
        <time>2019-07-06T07:47:11Z</time>
      </trkpt>
      <trkpt lat="40.8041570" lon="-2.1707970">
        <ele>1078.2</ele>
        <time>2019-07-06T07:47:14Z</time>
      </trkpt>
      <trkpt lat="40.8041280" lon="-2.1707820">
        <ele>1078.4</ele>
        <time>2019-07-06T07:47:15Z</time>
      </trkpt>
      <trkpt lat="40.8040670" lon="-2.1707600">
        <ele>1079.0</ele>
        <time>2019-07-06T07:47:17Z</time>
      </trkpt>
      <trkpt lat="40.8040110" lon="-2.1707340">
        <ele>1079.6</ele>
        <time>2019-07-06T07:47:19Z</time>
      </trkpt>
      <trkpt lat="40.8039270" lon="-2.1706990">
        <ele>1080.6</ele>
        <time>2019-07-06T07:47:22Z</time>
      </trkpt>
      <trkpt lat="40.8038960" lon="-2.1706960">
        <ele>1081.0</ele>
        <time>2019-07-06T07:47:23Z</time>
      </trkpt>
      <trkpt lat="40.8038700" lon="-2.1707130">
        <ele>1081.4</ele>
        <time>2019-07-06T07:47:24Z</time>
      </trkpt>
      <trkpt lat="40.8038540" lon="-2.1707440">
        <ele>1081.8</ele>
        <time>2019-07-06T07:47:25Z</time>
      </trkpt>
      <trkpt lat="40.8038490" lon="-2.1707800">
        <ele>1082.2</ele>
        <time>2019-07-06T07:47:26Z</time>
      </trkpt>
      <trkpt lat="40.8038590" lon="-2.1708560">
        <ele>1083.2</ele>
        <time>2019-07-06T07:47:28Z</time>
      </trkpt>
      <trkpt lat="40.8038690" lon="-2.1708930">
        <ele>1083.4</ele>
        <time>2019-07-06T07:47:29Z</time>
      </trkpt>
      <trkpt lat="40.8039080" lon="-2.1710090">
        <ele>1084.4</ele>
        <time>2019-07-06T07:47:32Z</time>
      </trkpt>
      <trkpt lat="40.8039360" lon="-2.1710810">
        <ele>1084.8</ele>
        <time>2019-07-06T07:47:34Z</time>
      </trkpt>
      <trkpt lat="40.8039470" lon="-2.1711190">
        <ele>1085.2</ele>
        <time>2019-07-06T07:47:35Z</time>
      </trkpt>
      <trkpt lat="40.8039570" lon="-2.1711550">
        <ele>1085.4</ele>
        <time>2019-07-06T07:47:36Z</time>
      </trkpt>
      <trkpt lat="40.8039970" lon="-2.1712990">
        <ele>1086.4</ele>
        <time>2019-07-06T07:47:40Z</time>
      </trkpt>
      <trkpt lat="40.8040710" lon="-2.1714190">
        <ele>1086.8</ele>
        <time>2019-07-06T07:47:44Z</time>
      </trkpt>
      <trkpt lat="40.8041490" lon="-2.1715010">
        <ele>1087.4</ele>
        <time>2019-07-06T07:47:47Z</time>
      </trkpt>
      <trkpt lat="40.8042300" lon="-2.1715560">
        <ele>1088.2</ele>
        <time>2019-07-06T07:47:50Z</time>
      </trkpt>
      <trkpt lat="40.8042930" lon="-2.1715740">
        <ele>1088.6</ele>
        <time>2019-07-06T07:47:52Z</time>
      </trkpt>
      <trkpt lat="40.8044500" lon="-2.1716050">
        <ele>1089.6</ele>
        <time>2019-07-06T07:47:57Z</time>
      </trkpt>
      <trkpt lat="40.8044820" lon="-2.1716080">
        <ele>1090.0</ele>
        <time>2019-07-06T07:47:58Z</time>
      </trkpt>
      <trkpt lat="40.8045770" lon="-2.1716300">
        <ele>1090.8</ele>
        <time>2019-07-06T07:48:01Z</time>
      </trkpt>
      <trkpt lat="40.8047050" lon="-2.1716490">
        <ele>1091.8</ele>
        <time>2019-07-06T07:48:05Z</time>
      </trkpt>
      <trkpt lat="40.8048300" lon="-2.1716900">
        <ele>1092.8</ele>
        <time>2019-07-06T07:48:09Z</time>
      </trkpt>
      <trkpt lat="40.8049540" lon="-2.1717360">
        <ele>1093.8</ele>
        <time>2019-07-06T07:48:13Z</time>
      </trkpt>
      <trkpt lat="40.8050410" lon="-2.1717640">
        <ele>1095.2</ele>
        <time>2019-07-06T07:48:16Z</time>
      </trkpt>
      <trkpt lat="40.8051290" lon="-2.1717850">
        <ele>1096.0</ele>
        <time>2019-07-06T07:48:19Z</time>
      </trkpt>
      <trkpt lat="40.8051550" lon="-2.1717980">
        <ele>1096.4</ele>
        <time>2019-07-06T07:48:20Z</time>
      </trkpt>
      <trkpt lat="40.8052260" lon="-2.1718460">
        <ele>1097.6</ele>
        <time>2019-07-06T07:48:23Z</time>
      </trkpt>
      <trkpt lat="40.8052700" lon="-2.1718780">
        <ele>1098.2</ele>
        <time>2019-07-06T07:48:25Z</time>
      </trkpt>
      <trkpt lat="40.8053400" lon="-2.1719360">
        <ele>1099.0</ele>
        <time>2019-07-06T07:48:28Z</time>
      </trkpt>
      <trkpt lat="40.8054280" lon="-2.1720160">
        <ele>1099.8</ele>
        <time>2019-07-06T07:48:32Z</time>
      </trkpt>
      <trkpt lat="40.8054510" lon="-2.1720320">
        <ele>1100.4</ele>
        <time>2019-07-06T07:48:33Z</time>
      </trkpt>
      <trkpt lat="40.8055150" lon="-2.1720720">
        <ele>1101.6</ele>
        <time>2019-07-06T07:48:36Z</time>
      </trkpt>
      <trkpt lat="40.8055600" lon="-2.1721050">
        <ele>1102.4</ele>
        <time>2019-07-06T07:48:38Z</time>
      </trkpt>
      <trkpt lat="40.8055840" lon="-2.1721150">
        <ele>1102.6</ele>
        <time>2019-07-06T07:48:39Z</time>
      </trkpt>
      <trkpt lat="40.8056800" lon="-2.1721440">
        <ele>1103.2</ele>
        <time>2019-07-06T07:48:43Z</time>
      </trkpt>
      <trkpt lat="40.8057850" lon="-2.1721640">
        <ele>1103.6</ele>
        <time>2019-07-06T07:48:47Z</time>
      </trkpt>
      <trkpt lat="40.8058400" lon="-2.1721840">
        <ele>1104.4</ele>
        <time>2019-07-06T07:48:49Z</time>
      </trkpt>
      <trkpt lat="40.8058890" lon="-2.1722120">
        <ele>1105.0</ele>
        <time>2019-07-06T07:48:51Z</time>
      </trkpt>
      <trkpt lat="40.8059880" lon="-2.1722610">
        <ele>1106.2</ele>
        <time>2019-07-06T07:48:55Z</time>
      </trkpt>
      <trkpt lat="40.8060340" lon="-2.1722800">
        <ele>1107.0</ele>
        <time>2019-07-06T07:48:57Z</time>
      </trkpt>
      <trkpt lat="40.8060570" lon="-2.1722910">
        <ele>1107.2</ele>
        <time>2019-07-06T07:48:58Z</time>
      </trkpt>
      <trkpt lat="40.8060800" lon="-2.1723050">
        <ele>1107.4</ele>
        <time>2019-07-06T07:48:59Z</time>
      </trkpt>
      <trkpt lat="40.8061770" lon="-2.1723570">
        <ele>1108.4</ele>
        <time>2019-07-06T07:49:03Z</time>
      </trkpt>
      <trkpt lat="40.8062260" lon="-2.1723770">
        <ele>1109.2</ele>
        <time>2019-07-06T07:49:05Z</time>
      </trkpt>
      <trkpt lat="40.8062510" lon="-2.1723880">
        <ele>1109.6</ele>
        <time>2019-07-06T07:49:06Z</time>
      </trkpt>
      <trkpt lat="40.8063710" lon="-2.1724370">
        <ele>1110.8</ele>
        <time>2019-07-06T07:49:11Z</time>
      </trkpt>
      <trkpt lat="40.8064240" lon="-2.1724430">
        <ele>1111.4</ele>
        <time>2019-07-06T07:49:13Z</time>
      </trkpt>
      <trkpt lat="40.8064800" lon="-2.1724440">
        <ele>1112.0</ele>
        <time>2019-07-06T07:49:15Z</time>
      </trkpt>
      <trkpt lat="40.8066110" lon="-2.1724460">
        <ele>1113.2</ele>
        <time>2019-07-06T07:49:20Z</time>
      </trkpt>
      <trkpt lat="40.8066370" lon="-2.1724470">
        <ele>1113.6</ele>
        <time>2019-07-06T07:49:21Z</time>
      </trkpt>
      <trkpt lat="40.8067450" lon="-2.1724590">
        <ele>1114.4</ele>
        <time>2019-07-06T07:49:25Z</time>
      </trkpt>
      <trkpt lat="40.8067960" lon="-2.1724840">
        <ele>1115.0</ele>
        <time>2019-07-06T07:49:27Z</time>
      </trkpt>
      <trkpt lat="40.8068200" lon="-2.1724960">
        <ele>1115.6</ele>
        <time>2019-07-06T07:49:28Z</time>
      </trkpt>
      <trkpt lat="40.8069260" lon="-2.1725930">
        <ele>1116.8</ele>
        <time>2019-07-06T07:49:33Z</time>
      </trkpt>
      <trkpt lat="40.8070020" lon="-2.1726780">
        <ele>1117.8</ele>
        <time>2019-07-06T07:49:37Z</time>
      </trkpt>
      <trkpt lat="40.8070410" lon="-2.1727180">
        <ele>1118.4</ele>
        <time>2019-07-06T07:49:39Z</time>
      </trkpt>
      <trkpt lat="40.8070830" lon="-2.1727570">
        <ele>1119.0</ele>
        <time>2019-07-06T07:49:41Z</time>
      </trkpt>
      <trkpt lat="40.8071430" lon="-2.1728320">
        <ele>1119.8</ele>
        <time>2019-07-06T07:49:44Z</time>
      </trkpt>
      <trkpt lat="40.8071660" lon="-2.1728540">
        <ele>1120.2</ele>
        <time>2019-07-06T07:49:45Z</time>
      </trkpt>
      <trkpt lat="40.8072540" lon="-2.1729320">
        <ele>1121.4</ele>
        <time>2019-07-06T07:49:49Z</time>
      </trkpt>
      <trkpt lat="40.8072970" lon="-2.1729670">
        <ele>1122.0</ele>
        <time>2019-07-06T07:49:51Z</time>
      </trkpt>
      <trkpt lat="40.8073390" lon="-2.1730010">
        <ele>1122.6</ele>
        <time>2019-07-06T07:49:53Z</time>
      </trkpt>
      <trkpt lat="40.8074040" lon="-2.1730500">
        <ele>1123.8</ele>
        <time>2019-07-06T07:49:56Z</time>
      </trkpt>
      <trkpt lat="40.8074460" lon="-2.1730830">
        <ele>1124.4</ele>
        <time>2019-07-06T07:49:58Z</time>
      </trkpt>
      <trkpt lat="40.8074860" lon="-2.1731090">
        <ele>1124.8</ele>
        <time>2019-07-06T07:50:00Z</time>
      </trkpt>
      <trkpt lat="40.8075580" lon="-2.1731620">
        <ele>1125.8</ele>
        <time>2019-07-06T07:50:04Z</time>
      </trkpt>
      <trkpt lat="40.8075780" lon="-2.1731720">
        <ele>1126.4</ele>
        <time>2019-07-06T07:50:05Z</time>
      </trkpt>
      <trkpt lat="40.8076760" lon="-2.1732050">
        <ele>1127.4</ele>
        <time>2019-07-06T07:50:10Z</time>
      </trkpt>
      <trkpt lat="40.8077850" lon="-2.1732170">
        <ele>1128.6</ele>
        <time>2019-07-06T07:50:15Z</time>
      </trkpt>
      <trkpt lat="40.8078270" lon="-2.1732180">
        <ele>1129.2</ele>
        <time>2019-07-06T07:50:17Z</time>
      </trkpt>
      <trkpt lat="40.8078930" lon="-2.1732040">
        <ele>1129.8</ele>
        <time>2019-07-06T07:50:20Z</time>
      </trkpt>
      <trkpt lat="40.8079440" lon="-2.1731860">
        <ele>1130.4</ele>
        <time>2019-07-06T07:50:22Z</time>
      </trkpt>
      <trkpt lat="40.8079960" lon="-2.1731650">
        <ele>1130.8</ele>
        <time>2019-07-06T07:50:24Z</time>
      </trkpt>
      <trkpt lat="40.8081180" lon="-2.1731300">
        <ele>1131.6</ele>
        <time>2019-07-06T07:50:29Z</time>
      </trkpt>
      <trkpt lat="40.8081430" lon="-2.1731310">
        <ele>1132.0</ele>
        <time>2019-07-06T07:50:30Z</time>
      </trkpt>
      <trkpt lat="40.8082450" lon="-2.1731680">
        <ele>1132.8</ele>
        <time>2019-07-06T07:50:34Z</time>
      </trkpt>
      <trkpt lat="40.8082700" lon="-2.1731780">
        <ele>1133.2</ele>
        <time>2019-07-06T07:50:35Z</time>
      </trkpt>
      <trkpt lat="40.8082930" lon="-2.1731910">
        <ele>1133.4</ele>
        <time>2019-07-06T07:50:36Z</time>
      </trkpt>
      <trkpt lat="40.8083500" lon="-2.1732570">
        <ele>1134.2</ele>
        <time>2019-07-06T07:50:39Z</time>
      </trkpt>
      <trkpt lat="40.8084010" lon="-2.1733370">
        <ele>1134.8</ele>
        <time>2019-07-06T07:50:42Z</time>
      </trkpt>
      <trkpt lat="40.8084170" lon="-2.1733650">
        <ele>1135.0</ele>
        <time>2019-07-06T07:50:43Z</time>
      </trkpt>
      <trkpt lat="40.8084830" lon="-2.1734750">
        <ele>1136.2</ele>
        <time>2019-07-06T07:50:47Z</time>
      </trkpt>
      <trkpt lat="40.8085290" lon="-2.1735560">
        <ele>1137.2</ele>
        <time>2019-07-06T07:50:50Z</time>
      </trkpt>
      <trkpt lat="40.8085420" lon="-2.1735860">
        <ele>1137.4</ele>
        <time>2019-07-06T07:50:51Z</time>
      </trkpt>
      <trkpt lat="40.8085790" lon="-2.1736790">
        <ele>1138.4</ele>
        <time>2019-07-06T07:50:54Z</time>
      </trkpt>
      <trkpt lat="40.8085880" lon="-2.1737380">
        <ele>1139.4</ele>
        <time>2019-07-06T07:50:56Z</time>
      </trkpt>
      <trkpt lat="40.8085910" lon="-2.1737710">
        <ele>1139.6</ele>
        <time>2019-07-06T07:50:57Z</time>
      </trkpt>
      <trkpt lat="40.8085940" lon="-2.1738700">
        <ele>1140.4</ele>
        <time>2019-07-06T07:51:00Z</time>
      </trkpt>
      <trkpt lat="40.8085920" lon="-2.1739330">
        <ele>1141.0</ele>
        <time>2019-07-06T07:51:02Z</time>
      </trkpt>
      <trkpt lat="40.8085810" lon="-2.1739920">
        <ele>1141.6</ele>
        <time>2019-07-06T07:51:04Z</time>
      </trkpt>
      <trkpt lat="40.8085800" lon="-2.1740560">
        <ele>1142.2</ele>
        <time>2019-07-06T07:51:06Z</time>
      </trkpt>
      <trkpt lat="40.8085850" lon="-2.1741500">
        <ele>1142.6</ele>
        <time>2019-07-06T07:51:09Z</time>
      </trkpt>
      <trkpt lat="40.8085680" lon="-2.1742490">
        <ele>1143.2</ele>
        <time>2019-07-06T07:51:12Z</time>
      </trkpt>
      <trkpt lat="40.8085540" lon="-2.1743180">
        <ele>1143.8</ele>
        <time>2019-07-06T07:51:14Z</time>
      </trkpt>
      <trkpt lat="40.8085210" lon="-2.1744200">
        <ele>1144.4</ele>
        <time>2019-07-06T07:51:17Z</time>
      </trkpt>
      <trkpt lat="40.8085010" lon="-2.1744850">
        <ele>1144.8</ele>
        <time>2019-07-06T07:51:19Z</time>
      </trkpt>
      <trkpt lat="40.8084830" lon="-2.1746180">
        <ele>1146.0</ele>
        <time>2019-07-06T07:51:23Z</time>
      </trkpt>
      <trkpt lat="40.8084510" lon="-2.1747430">
        <ele>1147.2</ele>
        <time>2019-07-06T07:51:27Z</time>
      </trkpt>
      <trkpt lat="40.8084340" lon="-2.1748090">
        <ele>1147.8</ele>
        <time>2019-07-06T07:51:29Z</time>
      </trkpt>
      <trkpt lat="40.8084260" lon="-2.1748750">
        <ele>1148.2</ele>
        <time>2019-07-06T07:51:31Z</time>
      </trkpt>
      <trkpt lat="40.8083920" lon="-2.1750020">
        <ele>1148.8</ele>
        <time>2019-07-06T07:51:35Z</time>
      </trkpt>
      <trkpt lat="40.8083610" lon="-2.1750600">
        <ele>1149.4</ele>
        <time>2019-07-06T07:51:37Z</time>
      </trkpt>
      <trkpt lat="40.8083070" lon="-2.1751790">
        <ele>1150.6</ele>
        <time>2019-07-06T07:51:41Z</time>
      </trkpt>
      <trkpt lat="40.8082660" lon="-2.1753070">
        <ele>1151.6</ele>
        <time>2019-07-06T07:51:45Z</time>
      </trkpt>
      <trkpt lat="40.8082340" lon="-2.1753610">
        <ele>1152.4</ele>
        <time>2019-07-06T07:51:47Z</time>
      </trkpt>
      <trkpt lat="40.8082070" lon="-2.1754150">
        <ele>1152.8</ele>
        <time>2019-07-06T07:51:49Z</time>
      </trkpt>
      <trkpt lat="40.8081670" lon="-2.1755020">
        <ele>1153.4</ele>
        <time>2019-07-06T07:51:52Z</time>
      </trkpt>
      <trkpt lat="40.8081450" lon="-2.1755620">
        <ele>1153.8</ele>
        <time>2019-07-06T07:51:54Z</time>
      </trkpt>
      <trkpt lat="40.8080960" lon="-2.1756820">
        <ele>1155.0</ele>
        <time>2019-07-06T07:51:58Z</time>
      </trkpt>
      <trkpt lat="40.8080830" lon="-2.1757470">
        <ele>1155.6</ele>
        <time>2019-07-06T07:52:00Z</time>
      </trkpt>
      <trkpt lat="40.8080660" lon="-2.1758080">
        <ele>1156.2</ele>
        <time>2019-07-06T07:52:02Z</time>
      </trkpt>
      <trkpt lat="40.8080390" lon="-2.1759030">
        <ele>1157.4</ele>
        <time>2019-07-06T07:52:05Z</time>
      </trkpt>
      <trkpt lat="40.8080300" lon="-2.1759370">
        <ele>1157.6</ele>
        <time>2019-07-06T07:52:06Z</time>
      </trkpt>
      <trkpt lat="40.8079970" lon="-2.1760320">
        <ele>1158.4</ele>
        <time>2019-07-06T07:52:09Z</time>
      </trkpt>
      <trkpt lat="40.8079610" lon="-2.1761170">
        <ele>1158.8</ele>
        <time>2019-07-06T07:52:12Z</time>
      </trkpt>
      <trkpt lat="40.8079420" lon="-2.1762450">
        <ele>1159.6</ele>
        <time>2019-07-06T07:52:16Z</time>
      </trkpt>
      <trkpt lat="40.8079230" lon="-2.1763400">
        <ele>1160.2</ele>
        <time>2019-07-06T07:52:19Z</time>
      </trkpt>
      <trkpt lat="40.8079090" lon="-2.1764120">
        <ele>1160.6</ele>
        <time>2019-07-06T07:52:21Z</time>
      </trkpt>
      <trkpt lat="40.8079140" lon="-2.1765320">
        <ele>1161.0</ele>
        <time>2019-07-06T07:52:24Z</time>
      </trkpt>
      <trkpt lat="40.8079420" lon="-2.1767120">
        <ele>1161.6</ele>
        <time>2019-07-06T07:52:28Z</time>
      </trkpt>
      <trkpt lat="40.8079500" lon="-2.1767620">
        <ele>1161.8</ele>
        <time>2019-07-06T07:52:29Z</time>
      </trkpt>
      <trkpt lat="40.8079580" lon="-2.1768090">
        <ele>1161.8</ele>
        <time>2019-07-06T07:52:30Z</time>
      </trkpt>
      <trkpt lat="40.8079800" lon="-2.1769110">
        <ele>1162.2</ele>
        <time>2019-07-06T07:52:32Z</time>
      </trkpt>
      <trkpt lat="40.8080030" lon="-2.1770720">
        <ele>1162.2</ele>
        <time>2019-07-06T07:52:35Z</time>
      </trkpt>
      <trkpt lat="40.8080110" lon="-2.1773190">
        <ele>1162.8</ele>
        <time>2019-07-06T07:52:40Z</time>
      </trkpt>
      <trkpt lat="40.8079060" lon="-2.1775280">
        <ele>1163.6</ele>
        <time>2019-07-06T07:52:45Z</time>
      </trkpt>
      <trkpt lat="40.8078790" lon="-2.1775640">
        <ele>1164.0</ele>
        <time>2019-07-06T07:52:46Z</time>
      </trkpt>
      <trkpt lat="40.8077530" lon="-2.1778170">
        <ele>1164.8</ele>
        <time>2019-07-06T07:52:52Z</time>
      </trkpt>
      <trkpt lat="40.8076820" lon="-2.1781520">
        <ele>1165.8</ele>
        <time>2019-07-06T07:52:59Z</time>
      </trkpt>
      <trkpt lat="40.8076510" lon="-2.1783250">
        <ele>1167.0</ele>
        <time>2019-07-06T07:53:03Z</time>
      </trkpt>
      <trkpt lat="40.8076150" lon="-2.1784900">
        <ele>1168.2</ele>
        <time>2019-07-06T07:53:07Z</time>
      </trkpt>
      <trkpt lat="40.8075830" lon="-2.1786530">
        <ele>1169.4</ele>
        <time>2019-07-06T07:53:11Z</time>
      </trkpt>
      <trkpt lat="40.8075700" lon="-2.1787770">
        <ele>1170.2</ele>
        <time>2019-07-06T07:53:14Z</time>
      </trkpt>
      <trkpt lat="40.8075640" lon="-2.1788170">
        <ele>1170.6</ele>
        <time>2019-07-06T07:53:15Z</time>
      </trkpt>
      <trkpt lat="40.8075480" lon="-2.1789750">
        <ele>1171.6</ele>
        <time>2019-07-06T07:53:19Z</time>
      </trkpt>
      <trkpt lat="40.8075410" lon="-2.1790940">
        <ele>1172.2</ele>
        <time>2019-07-06T07:53:22Z</time>
      </trkpt>
      <trkpt lat="40.8075360" lon="-2.1791340">
        <ele>1172.4</ele>
        <time>2019-07-06T07:53:23Z</time>
      </trkpt>
      <trkpt lat="40.8075220" lon="-2.1793360">
        <ele>1173.6</ele>
        <time>2019-07-06T07:53:28Z</time>
      </trkpt>
      <trkpt lat="40.8075180" lon="-2.1793780">
        <ele>1173.8</ele>
        <time>2019-07-06T07:53:29Z</time>
      </trkpt>
      <trkpt lat="40.8075000" lon="-2.1795390">
        <ele>1174.6</ele>
        <time>2019-07-06T07:53:33Z</time>
      </trkpt>
      <trkpt lat="40.8074730" lon="-2.1796520">
        <ele>1175.2</ele>
        <time>2019-07-06T07:53:36Z</time>
      </trkpt>
      <trkpt lat="40.8074490" lon="-2.1797270">
        <ele>1175.6</ele>
        <time>2019-07-06T07:53:38Z</time>
      </trkpt>
      <trkpt lat="40.8073710" lon="-2.1799390">
        <ele>1177.0</ele>
        <time>2019-07-06T07:53:44Z</time>
      </trkpt>
      <trkpt lat="40.8073260" lon="-2.1800450">
        <ele>1178.0</ele>
        <time>2019-07-06T07:53:47Z</time>
      </trkpt>
      <trkpt lat="40.8072680" lon="-2.1801940">
        <ele>1179.2</ele>
        <time>2019-07-06T07:53:51Z</time>
      </trkpt>
      <trkpt lat="40.8072560" lon="-2.1802330">
        <ele>1179.4</ele>
        <time>2019-07-06T07:53:52Z</time>
      </trkpt>
      <trkpt lat="40.8072200" lon="-2.1804280">
        <ele>1180.4</ele>
        <time>2019-07-06T07:53:57Z</time>
      </trkpt>
      <trkpt lat="40.8072190" lon="-2.1805450">
        <ele>1181.0</ele>
        <time>2019-07-06T07:54:00Z</time>
      </trkpt>
      <trkpt lat="40.8072210" lon="-2.1806240">
        <ele>1181.4</ele>
        <time>2019-07-06T07:54:02Z</time>
      </trkpt>
      <trkpt lat="40.8072400" lon="-2.1808110">
        <ele>1182.6</ele>
        <time>2019-07-06T07:54:07Z</time>
      </trkpt>
      <trkpt lat="40.8072520" lon="-2.1808830">
        <ele>1183.4</ele>
        <time>2019-07-06T07:54:09Z</time>
      </trkpt>
      <trkpt lat="40.8072580" lon="-2.1809170">
        <ele>1183.6</ele>
        <time>2019-07-06T07:54:10Z</time>
      </trkpt>
      <trkpt lat="40.8073050" lon="-2.1810800">
        <ele>1185.0</ele>
        <time>2019-07-06T07:54:15Z</time>
      </trkpt>
      <trkpt lat="40.8073170" lon="-2.1811120">
        <ele>1185.2</ele>
        <time>2019-07-06T07:54:16Z</time>
      </trkpt>
      <trkpt lat="40.8073470" lon="-2.1812050">
        <ele>1186.0</ele>
        <time>2019-07-06T07:54:19Z</time>
      </trkpt>
      <trkpt lat="40.8073920" lon="-2.1813290">
        <ele>1187.0</ele>
        <time>2019-07-06T07:54:23Z</time>
      </trkpt>
      <trkpt lat="40.8074030" lon="-2.1813600">
        <ele>1187.4</ele>
        <time>2019-07-06T07:54:24Z</time>
      </trkpt>
      <trkpt lat="40.8074340" lon="-2.1814160">
        <ele>1188.0</ele>
        <time>2019-07-06T07:54:26Z</time>
      </trkpt>
      <trkpt lat="40.8074950" lon="-2.1815330">
        <ele>1189.0</ele>
        <time>2019-07-06T07:54:30Z</time>
      </trkpt>
      <trkpt lat="40.8075140" lon="-2.1815610">
        <ele>1189.4</ele>
        <time>2019-07-06T07:54:31Z</time>
      </trkpt>
      <trkpt lat="40.8075520" lon="-2.1816170">
        <ele>1190.2</ele>
        <time>2019-07-06T07:54:33Z</time>
      </trkpt>
      <trkpt lat="40.8076310" lon="-2.1817270">
        <ele>1191.4</ele>
        <time>2019-07-06T07:54:37Z</time>
      </trkpt>
      <trkpt lat="40.8077070" lon="-2.1818320">
        <ele>1192.8</ele>
        <time>2019-07-06T07:54:41Z</time>
      </trkpt>
      <trkpt lat="40.8077470" lon="-2.1818830">
        <ele>1193.4</ele>
        <time>2019-07-06T07:54:43Z</time>
      </trkpt>
      <trkpt lat="40.8077890" lon="-2.1819280">
        <ele>1193.8</ele>
        <time>2019-07-06T07:54:45Z</time>
      </trkpt>
      <trkpt lat="40.8079110" lon="-2.1820460">
        <ele>1194.6</ele>
        <time>2019-07-06T07:54:50Z</time>
      </trkpt>
      <trkpt lat="40.8079670" lon="-2.1820910">
        <ele>1195.0</ele>
        <time>2019-07-06T07:54:52Z</time>
      </trkpt>
      <trkpt lat="40.8081200" lon="-2.1821630">
        <ele>1195.8</ele>
        <time>2019-07-06T07:54:57Z</time>
      </trkpt>
      <trkpt lat="40.8081510" lon="-2.1821710">
        <ele>1196.0</ele>
        <time>2019-07-06T07:54:58Z</time>
      </trkpt>
      <trkpt lat="40.8083090" lon="-2.1821880">
        <ele>1197.2</ele>
        <time>2019-07-06T07:55:03Z</time>
      </trkpt>
      <trkpt lat="40.8083730" lon="-2.1821800">
        <ele>1197.6</ele>
        <time>2019-07-06T07:55:05Z</time>
      </trkpt>
      <trkpt lat="40.8084400" lon="-2.1821710">
        <ele>1198.2</ele>
        <time>2019-07-06T07:55:07Z</time>
      </trkpt>
      <trkpt lat="40.8086100" lon="-2.1821610">
        <ele>1199.4</ele>
        <time>2019-07-06T07:55:12Z</time>
      </trkpt>
      <trkpt lat="40.8087450" lon="-2.1821300">
        <ele>1200.6</ele>
        <time>2019-07-06T07:55:16Z</time>
      </trkpt>
      <trkpt lat="40.8088070" lon="-2.1820970">
        <ele>1200.8</ele>
        <time>2019-07-06T07:55:18Z</time>
      </trkpt>
      <trkpt lat="40.8088380" lon="-2.1820800">
        <ele>1201.0</ele>
        <time>2019-07-06T07:55:19Z</time>
      </trkpt>
      <trkpt lat="40.8090150" lon="-2.1819630">
        <ele>1201.8</ele>
        <time>2019-07-06T07:55:25Z</time>
      </trkpt>
      <trkpt lat="40.8090740" lon="-2.1819260">
        <ele>1202.4</ele>
        <time>2019-07-06T07:55:27Z</time>
      </trkpt>
      <trkpt lat="40.8091040" lon="-2.1819070">
        <ele>1202.8</ele>
        <time>2019-07-06T07:55:28Z</time>
      </trkpt>
      <trkpt lat="40.8093040" lon="-2.1817820">
        <ele>1203.8</ele>
        <time>2019-07-06T07:55:34Z</time>
      </trkpt>
      <trkpt lat="40.8093800" lon="-2.1817380">
        <ele>1204.2</ele>
        <time>2019-07-06T07:55:36Z</time>
      </trkpt>
      <trkpt lat="40.8094900" lon="-2.1816570">
        <ele>1204.6</ele>
        <time>2019-07-06T07:55:39Z</time>
      </trkpt>
      <trkpt lat="40.8095300" lon="-2.1816380">
        <ele>1204.8</ele>
        <time>2019-07-06T07:55:40Z</time>
      </trkpt>
      <trkpt lat="40.8095680" lon="-2.1816180">
        <ele>1205.0</ele>
        <time>2019-07-06T07:55:41Z</time>
      </trkpt>
      <trkpt lat="40.8096050" lon="-2.1815950">
        <ele>1205.2</ele>
        <time>2019-07-06T07:55:42Z</time>
      </trkpt>
      <trkpt lat="40.8097460" lon="-2.1815080">
        <ele>1206.0</ele>
        <time>2019-07-06T07:55:46Z</time>
      </trkpt>
      <trkpt lat="40.8099420" lon="-2.1813820">
        <ele>1207.0</ele>
        <time>2019-07-06T07:55:52Z</time>
      </trkpt>
      <trkpt lat="40.8099720" lon="-2.1813580">
        <ele>1207.4</ele>
        <time>2019-07-06T07:55:53Z</time>
      </trkpt>
      <trkpt lat="40.8100280" lon="-2.1813130">
        <ele>1208.2</ele>
        <time>2019-07-06T07:55:55Z</time>
      </trkpt>
      <trkpt lat="40.8101340" lon="-2.1812410">
        <ele>1208.8</ele>
        <time>2019-07-06T07:55:59Z</time>
      </trkpt>
      <trkpt lat="40.8101820" lon="-2.1812010">
        <ele>1209.2</ele>
        <time>2019-07-06T07:56:01Z</time>
      </trkpt>
      <trkpt lat="40.8103360" lon="-2.1810960">
        <ele>1210.2</ele>
        <time>2019-07-06T07:56:07Z</time>
      </trkpt>
      <trkpt lat="40.8103620" lon="-2.1810760">
        <ele>1210.4</ele>
        <time>2019-07-06T07:56:08Z</time>
      </trkpt>
      <trkpt lat="40.8105030" lon="-2.1809750">
        <ele>1211.6</ele>
        <time>2019-07-06T07:56:13Z</time>
      </trkpt>
      <trkpt lat="40.8105350" lon="-2.1809510">
        <ele>1211.6</ele>
        <time>2019-07-06T07:56:14Z</time>
      </trkpt>
      <trkpt lat="40.8106730" lon="-2.1808440">
        <ele>1212.4</ele>
        <time>2019-07-06T07:56:18Z</time>
      </trkpt>
      <trkpt lat="40.8107860" lon="-2.1807590">
        <ele>1213.2</ele>
        <time>2019-07-06T07:56:21Z</time>
      </trkpt>
      <trkpt lat="40.8108640" lon="-2.1807040">
        <ele>1213.6</ele>
        <time>2019-07-06T07:56:23Z</time>
      </trkpt>
      <trkpt lat="40.8110610" lon="-2.1805590">
        <ele>1214.4</ele>
        <time>2019-07-06T07:56:28Z</time>
      </trkpt>
      <trkpt lat="40.8110990" lon="-2.1805240">
        <ele>1214.6</ele>
        <time>2019-07-06T07:56:29Z</time>
      </trkpt>
      <trkpt lat="40.8111390" lon="-2.1804880">
        <ele>1214.8</ele>
        <time>2019-07-06T07:56:30Z</time>
      </trkpt>
      <trkpt lat="40.8112650" lon="-2.1803830">
        <ele>1215.6</ele>
        <time>2019-07-06T07:56:33Z</time>
      </trkpt>
      <trkpt lat="40.8113870" lon="-2.1802680">
        <ele>1215.8</ele>
        <time>2019-07-06T07:56:36Z</time>
      </trkpt>
      <trkpt lat="40.8116560" lon="-2.1799680">
        <ele>1216.8</ele>
        <time>2019-07-06T07:56:43Z</time>
      </trkpt>
      <trkpt lat="40.8120440" lon="-2.1794780">
        <ele>1217.0</ele>
        <time>2019-07-06T07:56:53Z</time>
      </trkpt>
      <trkpt lat="40.8121290" lon="-2.1793720">
        <ele>1217.0</ele>
        <time>2019-07-06T07:56:55Z</time>
      </trkpt>
      <trkpt lat="40.8123470" lon="-2.1790980">
        <ele>1217.4</ele>
        <time>2019-07-06T07:57:00Z</time>
      </trkpt>
      <trkpt lat="40.8124780" lon="-2.1789310">
        <ele>1217.2</ele>
        <time>2019-07-06T07:57:03Z</time>
      </trkpt>
      <trkpt lat="40.8125220" lon="-2.1788750">
        <ele>1217.0</ele>
        <time>2019-07-06T07:57:04Z</time>
      </trkpt>
      <trkpt lat="40.8126130" lon="-2.1787630">
        <ele>1217.0</ele>
        <time>2019-07-06T07:57:06Z</time>
      </trkpt>
      <trkpt lat="40.8127590" lon="-2.1785930">
        <ele>1216.8</ele>
        <time>2019-07-06T07:57:09Z</time>
      </trkpt>
      <trkpt lat="40.8129140" lon="-2.1784130">
        <ele>1216.6</ele>
        <time>2019-07-06T07:57:12Z</time>
      </trkpt>
      <trkpt lat="40.8131690" lon="-2.1782850">
        <ele>1216.4</ele>
        <time>2019-07-06T07:57:16Z</time>
      </trkpt>
      <trkpt lat="40.8132310" lon="-2.1782770">
        <ele>1216.4</ele>
        <time>2019-07-06T07:57:17Z</time>
      </trkpt>
      <trkpt lat="40.8135260" lon="-2.1782840">
        <ele>1217.0</ele>
        <time>2019-07-06T07:57:22Z</time>
      </trkpt>
      <trkpt lat="40.8137980" lon="-2.1783500">
        <ele>1217.2</ele>
        <time>2019-07-06T07:57:27Z</time>
      </trkpt>
      <trkpt lat="40.8138510" lon="-2.1783740">
        <ele>1217.4</ele>
        <time>2019-07-06T07:57:28Z</time>
      </trkpt>
      <trkpt lat="40.8140140" lon="-2.1784320">
        <ele>1217.6</ele>
        <time>2019-07-06T07:57:31Z</time>
      </trkpt>
      <trkpt lat="40.8141240" lon="-2.1784670">
        <ele>1217.8</ele>
        <time>2019-07-06T07:57:33Z</time>
      </trkpt>
      <trkpt lat="40.8141780" lon="-2.1784900">
        <ele>1217.8</ele>
        <time>2019-07-06T07:57:34Z</time>
      </trkpt>
      <trkpt lat="40.8145850" lon="-2.1786560">
        <ele>1217.8</ele>
        <time>2019-07-06T07:57:41Z</time>
      </trkpt>
      <trkpt lat="40.8146490" lon="-2.1786800">
        <ele>1217.6</ele>
        <time>2019-07-06T07:57:42Z</time>
      </trkpt>
      <trkpt lat="40.8149260" lon="-2.1787360">
        <ele>1216.4</ele>
        <time>2019-07-06T07:57:46Z</time>
      </trkpt>
      <trkpt lat="40.8150020" lon="-2.1787340">
        <ele>1216.2</ele>
        <time>2019-07-06T07:57:47Z</time>
      </trkpt>
      <trkpt lat="40.8153270" lon="-2.1787150">
        <ele>1214.8</ele>
        <time>2019-07-06T07:57:51Z</time>
      </trkpt>
      <trkpt lat="40.8155040" lon="-2.1787040">
        <ele>1214.0</ele>
        <time>2019-07-06T07:57:53Z</time>
      </trkpt>
      <trkpt lat="40.8155940" lon="-2.1786980">
        <ele>1213.6</ele>
        <time>2019-07-06T07:57:54Z</time>
      </trkpt>
      <trkpt lat="40.8157710" lon="-2.1786840">
        <ele>1212.8</ele>
        <time>2019-07-06T07:57:56Z</time>
      </trkpt>
      <trkpt lat="40.8159390" lon="-2.1786720">
        <ele>1212.4</ele>
        <time>2019-07-06T07:57:58Z</time>
      </trkpt>
      <trkpt lat="40.8161800" lon="-2.1786580">
        <ele>1212.2</ele>
        <time>2019-07-06T07:58:01Z</time>
      </trkpt>
      <trkpt lat="40.8165480" lon="-2.1785790">
        <ele>1211.2</ele>
        <time>2019-07-06T07:58:06Z</time>
      </trkpt>
      <trkpt lat="40.8166870" lon="-2.1785000">
        <ele>1211.0</ele>
        <time>2019-07-06T07:58:08Z</time>
      </trkpt>
      <trkpt lat="40.8169680" lon="-2.1783120">
        <ele>1210.6</ele>
        <time>2019-07-06T07:58:12Z</time>
      </trkpt>
      <trkpt lat="40.8171180" lon="-2.1782130">
        <ele>1209.8</ele>
        <time>2019-07-06T07:58:14Z</time>
      </trkpt>
      <trkpt lat="40.8174270" lon="-2.1780030">
        <ele>1208.8</ele>
        <time>2019-07-06T07:58:18Z</time>
      </trkpt>
      <trkpt lat="40.8175030" lon="-2.1779450">
        <ele>1208.4</ele>
        <time>2019-07-06T07:58:19Z</time>
      </trkpt>
      <trkpt lat="40.8178070" lon="-2.1777200">
        <ele>1207.4</ele>
        <time>2019-07-06T07:58:23Z</time>
      </trkpt>
      <trkpt lat="40.8179590" lon="-2.1775980">
        <ele>1206.6</ele>
        <time>2019-07-06T07:58:25Z</time>
      </trkpt>
      <trkpt lat="40.8181160" lon="-2.1774690">
        <ele>1205.8</ele>
        <time>2019-07-06T07:58:27Z</time>
      </trkpt>
      <trkpt lat="40.8183690" lon="-2.1772630">
        <ele>1204.8</ele>
        <time>2019-07-06T07:58:30Z</time>
      </trkpt>
      <trkpt lat="40.8186190" lon="-2.1770650">
        <ele>1203.6</ele>
        <time>2019-07-06T07:58:33Z</time>
      </trkpt>
      <trkpt lat="40.8189780" lon="-2.1767810">
        <ele>1202.8</ele>
        <time>2019-07-06T07:58:38Z</time>
      </trkpt>
      <trkpt lat="40.8191030" lon="-2.1766570">
        <ele>1202.6</ele>
        <time>2019-07-06T07:58:40Z</time>
      </trkpt>
      <trkpt lat="40.8193190" lon="-2.1763810">
        <ele>1202.4</ele>
        <time>2019-07-06T07:58:44Z</time>
      </trkpt>
      <trkpt lat="40.8195120" lon="-2.1760980">
        <ele>1202.4</ele>
        <time>2019-07-06T07:58:48Z</time>
      </trkpt>
      <trkpt lat="40.8197060" lon="-2.1757990">
        <ele>1202.2</ele>
        <time>2019-07-06T07:58:52Z</time>
      </trkpt>
      <trkpt lat="40.8198530" lon="-2.1755800">
        <ele>1201.4</ele>
        <time>2019-07-06T07:58:55Z</time>
      </trkpt>
      <trkpt lat="40.8200510" lon="-2.1752820">
        <ele>1200.4</ele>
        <time>2019-07-06T07:58:59Z</time>
      </trkpt>
      <trkpt lat="40.8201020" lon="-2.1752020">
        <ele>1200.2</ele>
        <time>2019-07-06T07:59:00Z</time>
      </trkpt>
      <trkpt lat="40.8203300" lon="-2.1748640">
        <ele>1199.0</ele>
        <time>2019-07-06T07:59:04Z</time>
      </trkpt>
      <trkpt lat="40.8204510" lon="-2.1746750">
        <ele>1198.2</ele>
        <time>2019-07-06T07:59:06Z</time>
      </trkpt>
      <trkpt lat="40.8205170" lon="-2.1745820">
        <ele>1198.0</ele>
        <time>2019-07-06T07:59:07Z</time>
      </trkpt>
      <trkpt lat="40.8207310" lon="-2.1743170">
        <ele>1196.4</ele>
        <time>2019-07-06T07:59:10Z</time>
      </trkpt>
      <trkpt lat="40.8208150" lon="-2.1742510">
        <ele>1196.2</ele>
        <time>2019-07-06T07:59:11Z</time>
      </trkpt>
      <trkpt lat="40.8209880" lon="-2.1741620">
        <ele>1195.4</ele>
        <time>2019-07-06T07:59:13Z</time>
      </trkpt>
      <trkpt lat="40.8210660" lon="-2.1741300">
        <ele>1195.0</ele>
        <time>2019-07-06T07:59:14Z</time>
      </trkpt>
      <trkpt lat="40.8211370" lon="-2.1740970">
        <ele>1194.4</ele>
        <time>2019-07-06T07:59:15Z</time>
      </trkpt>
      <trkpt lat="40.8212010" lon="-2.1740600">
        <ele>1194.0</ele>
        <time>2019-07-06T07:59:16Z</time>
      </trkpt>
      <trkpt lat="40.8212620" lon="-2.1740170">
        <ele>1193.6</ele>
        <time>2019-07-06T07:59:17Z</time>
      </trkpt>
      <trkpt lat="40.8213200" lon="-2.1739660">
        <ele>1193.4</ele>
        <time>2019-07-06T07:59:18Z</time>
      </trkpt>
      <trkpt lat="40.8213750" lon="-2.1739090">
        <ele>1193.0</ele>
        <time>2019-07-06T07:59:19Z</time>
      </trkpt>
      <trkpt lat="40.8214250" lon="-2.1738550">
        <ele>1192.8</ele>
        <time>2019-07-06T07:59:20Z</time>
      </trkpt>
      <trkpt lat="40.8215110" lon="-2.1737770">
        <ele>1191.8</ele>
        <time>2019-07-06T07:59:22Z</time>
      </trkpt>
      <trkpt lat="40.8215510" lon="-2.1737520">
        <ele>1191.4</ele>
        <time>2019-07-06T07:59:23Z</time>
      </trkpt>
      <trkpt lat="40.8216180" lon="-2.1737280">
        <ele>1190.0</ele>
        <time>2019-07-06T07:59:25Z</time>
      </trkpt>
      <trkpt lat="40.8216560" lon="-2.1737340">
        <ele>1189.6</ele>
        <time>2019-07-06T07:59:26Z</time>
      </trkpt>
      <trkpt lat="40.8217430" lon="-2.1737910">
        <ele>1188.8</ele>
        <time>2019-07-06T07:59:28Z</time>
      </trkpt>
      <trkpt lat="40.8217870" lon="-2.1738420">
        <ele>1188.4</ele>
        <time>2019-07-06T07:59:29Z</time>
      </trkpt>
      <trkpt lat="40.8218700" lon="-2.1739700">
        <ele>1187.8</ele>
        <time>2019-07-06T07:59:31Z</time>
      </trkpt>
      <trkpt lat="40.8219060" lon="-2.1740360">
        <ele>1187.2</ele>
        <time>2019-07-06T07:59:32Z</time>
      </trkpt>
      <trkpt lat="40.8219670" lon="-2.1741640">
        <ele>1186.0</ele>
        <time>2019-07-06T07:59:34Z</time>
      </trkpt>
      <trkpt lat="40.8220020" lon="-2.1743030">
        <ele>1185.0</ele>
        <time>2019-07-06T07:59:36Z</time>
      </trkpt>
      <trkpt lat="40.8220150" lon="-2.1744770">
        <ele>1183.6</ele>
        <time>2019-07-06T07:59:38Z</time>
      </trkpt>
      <trkpt lat="40.8220110" lon="-2.1746780">
        <ele>1182.6</ele>
        <time>2019-07-06T07:59:40Z</time>
      </trkpt>
      <trkpt lat="40.8220090" lon="-2.1747750">
        <ele>1182.2</ele>
        <time>2019-07-06T07:59:41Z</time>
      </trkpt>
      <trkpt lat="40.8220070" lon="-2.1749610">
        <ele>1181.0</ele>
        <time>2019-07-06T07:59:43Z</time>
      </trkpt>
      <trkpt lat="40.8220080" lon="-2.1751520">
        <ele>1179.2</ele>
        <time>2019-07-06T07:59:45Z</time>
      </trkpt>
      <trkpt lat="40.8220150" lon="-2.1752400">
        <ele>1178.0</ele>
        <time>2019-07-06T07:59:46Z</time>
      </trkpt>
      <trkpt lat="40.8220290" lon="-2.1753200">
        <ele>1177.2</ele>
        <time>2019-07-06T07:59:47Z</time>
      </trkpt>
      <trkpt lat="40.8220520" lon="-2.1753950">
        <ele>1176.8</ele>
        <time>2019-07-06T07:59:48Z</time>
      </trkpt>
      <trkpt lat="40.8221730" lon="-2.1756110">
        <ele>1175.8</ele>
        <time>2019-07-06T07:59:51Z</time>
      </trkpt>
      <trkpt lat="40.8222220" lon="-2.1756830">
        <ele>1175.4</ele>
        <time>2019-07-06T07:59:52Z</time>
      </trkpt>
      <trkpt lat="40.8223110" lon="-2.1758350">
        <ele>1174.8</ele>
        <time>2019-07-06T07:59:54Z</time>
      </trkpt>
      <trkpt lat="40.8223810" lon="-2.1759940">
        <ele>1174.4</ele>
        <time>2019-07-06T07:59:56Z</time>
      </trkpt>
      <trkpt lat="40.8224440" lon="-2.1761610">
        <ele>1173.6</ele>
        <time>2019-07-06T07:59:58Z</time>
      </trkpt>
      <trkpt lat="40.8224760" lon="-2.1763330">
        <ele>1173.2</ele>
        <time>2019-07-06T08:00:00Z</time>
      </trkpt>
      <trkpt lat="40.8224870" lon="-2.1764890">
        <ele>1173.2</ele>
        <time>2019-07-06T08:00:02Z</time>
      </trkpt>
      <trkpt lat="40.8225100" lon="-2.1766910">
        <ele>1173.6</ele>
        <time>2019-07-06T08:00:05Z</time>
      </trkpt>
      <trkpt lat="40.8225340" lon="-2.1768080">
        <ele>1173.8</ele>
        <time>2019-07-06T08:00:07Z</time>
      </trkpt>
      <trkpt lat="40.8225620" lon="-2.1769180">
        <ele>1173.8</ele>
        <time>2019-07-06T08:00:09Z</time>
      </trkpt>
      <trkpt lat="40.8225980" lon="-2.1770300">
        <ele>1173.8</ele>
        <time>2019-07-06T08:00:11Z</time>
      </trkpt>
      <trkpt lat="40.8226160" lon="-2.1770870">
        <ele>1174.0</ele>
        <time>2019-07-06T08:00:12Z</time>
      </trkpt>
      <trkpt lat="40.8226610" lon="-2.1772610">
        <ele>1174.2</ele>
        <time>2019-07-06T08:00:15Z</time>
      </trkpt>
      <trkpt lat="40.8226990" lon="-2.1774290">
        <ele>1174.8</ele>
        <time>2019-07-06T08:00:18Z</time>
      </trkpt>
      <trkpt lat="40.8227230" lon="-2.1775420">
        <ele>1175.0</ele>
        <time>2019-07-06T08:00:20Z</time>
      </trkpt>
      <trkpt lat="40.8227450" lon="-2.1777310">
        <ele>1175.2</ele>
        <time>2019-07-06T08:00:23Z</time>
      </trkpt>
      <trkpt lat="40.8227520" lon="-2.1777960">
        <ele>1175.4</ele>
        <time>2019-07-06T08:00:24Z</time>
      </trkpt>
      <trkpt lat="40.8227540" lon="-2.1779970">
        <ele>1175.2</ele>
        <time>2019-07-06T08:00:27Z</time>
      </trkpt>
      <trkpt lat="40.8227490" lon="-2.1781320">
        <ele>1175.2</ele>
        <time>2019-07-06T08:00:29Z</time>
      </trkpt>
      <trkpt lat="40.8227530" lon="-2.1782010">
        <ele>1175.0</ele>
        <time>2019-07-06T08:00:30Z</time>
      </trkpt>
      <trkpt lat="40.8227610" lon="-2.1782720">
        <ele>1175.0</ele>
        <time>2019-07-06T08:00:31Z</time>
      </trkpt>
      <trkpt lat="40.8228180" lon="-2.1785560">
        <ele>1174.8</ele>
        <time>2019-07-06T08:00:35Z</time>
      </trkpt>
      <trkpt lat="40.8228280" lon="-2.1786290">
        <ele>1174.6</ele>
        <time>2019-07-06T08:00:36Z</time>
      </trkpt>
      <trkpt lat="40.8228270" lon="-2.1788610">
        <ele>1174.4</ele>
        <time>2019-07-06T08:00:39Z</time>
      </trkpt>
      <trkpt lat="40.8228520" lon="-2.1790140">
        <ele>1173.8</ele>
        <time>2019-07-06T08:00:41Z</time>
      </trkpt>
      <trkpt lat="40.8228760" lon="-2.1790900">
        <ele>1173.8</ele>
        <time>2019-07-06T08:00:42Z</time>
      </trkpt>
      <trkpt lat="40.8229030" lon="-2.1791690">
        <ele>1173.4</ele>
        <time>2019-07-06T08:00:43Z</time>
      </trkpt>
      <trkpt lat="40.8229320" lon="-2.1792480">
        <ele>1172.6</ele>
        <time>2019-07-06T08:00:44Z</time>
      </trkpt>
      <trkpt lat="40.8229880" lon="-2.1794260">
        <ele>1171.2</ele>
        <time>2019-07-06T08:00:46Z</time>
      </trkpt>
      <trkpt lat="40.8230480" lon="-2.1796150">
        <ele>1170.4</ele>
        <time>2019-07-06T08:00:48Z</time>
      </trkpt>
      <trkpt lat="40.8230780" lon="-2.1797020">
        <ele>1170.0</ele>
        <time>2019-07-06T08:00:49Z</time>
      </trkpt>
      <trkpt lat="40.8231590" lon="-2.1799480">
        <ele>1169.2</ele>
        <time>2019-07-06T08:00:52Z</time>
      </trkpt>
      <trkpt lat="40.8231870" lon="-2.1800260">
        <ele>1169.0</ele>
        <time>2019-07-06T08:00:53Z</time>
      </trkpt>
      <trkpt lat="40.8232420" lon="-2.1801690">
        <ele>1168.4</ele>
        <time>2019-07-06T08:00:55Z</time>
      </trkpt>
      <trkpt lat="40.8232750" lon="-2.1802330">
        <ele>1168.0</ele>
        <time>2019-07-06T08:00:56Z</time>
      </trkpt>
      <trkpt lat="40.8233180" lon="-2.1802950">
        <ele>1167.6</ele>
        <time>2019-07-06T08:00:57Z</time>
      </trkpt>
      <trkpt lat="40.8234260" lon="-2.1804190">
        <ele>1166.4</ele>
        <time>2019-07-06T08:00:59Z</time>
      </trkpt>
      <trkpt lat="40.8235420" lon="-2.1805410">
        <ele>1164.8</ele>
        <time>2019-07-06T08:01:01Z</time>
      </trkpt>
      <trkpt lat="40.8235970" lon="-2.1806010">
        <ele>1164.6</ele>
        <time>2019-07-06T08:01:02Z</time>
      </trkpt>
      <trkpt lat="40.8237580" lon="-2.1808170">
        <ele>1165.0</ele>
        <time>2019-07-06T08:01:06Z</time>
      </trkpt>
      <trkpt lat="40.8238220" lon="-2.1808970">
        <ele>1165.4</ele>
        <time>2019-07-06T08:01:08Z</time>
      </trkpt>
      <trkpt lat="40.8238520" lon="-2.1809350">
        <ele>1165.6</ele>
        <time>2019-07-06T08:01:09Z</time>
      </trkpt>
      <trkpt lat="40.8239110" lon="-2.1810060">
        <ele>1166.2</ele>
        <time>2019-07-06T08:01:11Z</time>
      </trkpt>
      <trkpt lat="40.8239720" lon="-2.1810740">
        <ele>1166.6</ele>
        <time>2019-07-06T08:01:13Z</time>
      </trkpt>
      <trkpt lat="40.8240040" lon="-2.1811100">
        <ele>1167.0</ele>
        <time>2019-07-06T08:01:14Z</time>
      </trkpt>
      <trkpt lat="40.8240390" lon="-2.1811440">
        <ele>1167.0</ele>
        <time>2019-07-06T08:01:15Z</time>
      </trkpt>
      <trkpt lat="40.8241870" lon="-2.1812670">
        <ele>1167.2</ele>
        <time>2019-07-06T08:01:19Z</time>
      </trkpt>
      <trkpt lat="40.8243690" lon="-2.1813620">
        <ele>1167.8</ele>
        <time>2019-07-06T08:01:24Z</time>
      </trkpt>
      <trkpt lat="40.8244040" lon="-2.1813690">
        <ele>1168.0</ele>
        <time>2019-07-06T08:01:25Z</time>
      </trkpt>
      <trkpt lat="40.8245280" lon="-2.1813870">
        <ele>1169.2</ele>
        <time>2019-07-06T08:01:29Z</time>
      </trkpt>
      <trkpt lat="40.8245860" lon="-2.1813820">
        <ele>1169.4</ele>
        <time>2019-07-06T08:01:31Z</time>
      </trkpt>
      <trkpt lat="40.8247520" lon="-2.1813800">
        <ele>1170.0</ele>
        <time>2019-07-06T08:01:36Z</time>
      </trkpt>
      <trkpt lat="40.8247860" lon="-2.1813740">
        <ele>1170.2</ele>
        <time>2019-07-06T08:01:37Z</time>
      </trkpt>
      <trkpt lat="40.8248190" lon="-2.1813680">
        <ele>1170.2</ele>
        <time>2019-07-06T08:01:38Z</time>
      </trkpt>
      <trkpt lat="40.8249850" lon="-2.1813740">
        <ele>1171.0</ele>
        <time>2019-07-06T08:01:43Z</time>
      </trkpt>
      <trkpt lat="40.8250170" lon="-2.1813710">
        <ele>1171.2</ele>
        <time>2019-07-06T08:01:44Z</time>
      </trkpt>
      <trkpt lat="40.8251110" lon="-2.1813720">
        <ele>1171.6</ele>
        <time>2019-07-06T08:01:47Z</time>
      </trkpt>
      <trkpt lat="40.8251660" lon="-2.1813850">
        <ele>1172.2</ele>
        <time>2019-07-06T08:01:49Z</time>
      </trkpt>
      <trkpt lat="40.8252140" lon="-2.1814180">
        <ele>1172.8</ele>
        <time>2019-07-06T08:01:51Z</time>
      </trkpt>
      <trkpt lat="40.8252440" lon="-2.1814740">
        <ele>1173.2</ele>
        <time>2019-07-06T08:01:53Z</time>
      </trkpt>
      <trkpt lat="40.8252600" lon="-2.1815740">
        <ele>1174.2</ele>
        <time>2019-07-06T08:01:56Z</time>
      </trkpt>
      <trkpt lat="40.8252550" lon="-2.1816070">
        <ele>1174.6</ele>
        <time>2019-07-06T08:01:57Z</time>
      </trkpt>
      <trkpt lat="40.8252160" lon="-2.1817100">
        <ele>1175.6</ele>
        <time>2019-07-06T08:02:00Z</time>
      </trkpt>
      <trkpt lat="40.8251970" lon="-2.1817410">
        <ele>1175.8</ele>
        <time>2019-07-06T08:02:01Z</time>
      </trkpt>
      <trkpt lat="40.8251100" lon="-2.1818540">
        <ele>1176.8</ele>
        <time>2019-07-06T08:02:05Z</time>
      </trkpt>
      <trkpt lat="40.8250150" lon="-2.1819660">
        <ele>1177.8</ele>
        <time>2019-07-06T08:02:09Z</time>
      </trkpt>
      <trkpt lat="40.8248980" lon="-2.1821210">
        <ele>1178.6</ele>
        <time>2019-07-06T08:02:14Z</time>
      </trkpt>
      <trkpt lat="40.8248440" lon="-2.1821840">
        <ele>1178.8</ele>
        <time>2019-07-06T08:02:16Z</time>
      </trkpt>
      <trkpt lat="40.8247090" lon="-2.1823810">
        <ele>1179.8</ele>
        <time>2019-07-06T08:02:22Z</time>
      </trkpt>
      <trkpt lat="40.8246850" lon="-2.1824160">
        <ele>1180.0</ele>
        <time>2019-07-06T08:02:23Z</time>
      </trkpt>
      <trkpt lat="40.8246210" lon="-2.1824730">
        <ele>1180.2</ele>
        <time>2019-07-06T08:02:25Z</time>
      </trkpt>
      <trkpt lat="40.8245490" lon="-2.1825220">
        <ele>1180.2</ele>
        <time>2019-07-06T08:02:27Z</time>
      </trkpt>
      <trkpt lat="40.8244170" lon="-2.1827460">
        <ele>1180.4</ele>
        <time>2019-07-06T08:02:32Z</time>
      </trkpt>
      <trkpt lat="40.8243080" lon="-2.1829760">
        <ele>1180.6</ele>
        <time>2019-07-06T08:02:37Z</time>
      </trkpt>
      <trkpt lat="40.8242840" lon="-2.1830140">
        <ele>1180.8</ele>
        <time>2019-07-06T08:02:38Z</time>
      </trkpt>
      <trkpt lat="40.8242340" lon="-2.1830850">
        <ele>1180.8</ele>
        <time>2019-07-06T08:02:40Z</time>
      </trkpt>
      <trkpt lat="40.8241060" lon="-2.1832600">
        <ele>1181.6</ele>
        <time>2019-07-06T08:02:45Z</time>
      </trkpt>
      <trkpt lat="40.8240810" lon="-2.1832970">
        <ele>1181.8</ele>
        <time>2019-07-06T08:02:46Z</time>
      </trkpt>
      <trkpt lat="40.8239170" lon="-2.1835240">
        <ele>1182.8</ele>
        <time>2019-07-06T08:02:52Z</time>
      </trkpt>
      <trkpt lat="40.8238990" lon="-2.1835670">
        <ele>1182.8</ele>
        <time>2019-07-06T08:02:53Z</time>
      </trkpt>
      <trkpt lat="40.8238890" lon="-2.1837360">
        <ele>1183.6</ele>
        <time>2019-07-06T08:02:57Z</time>
      </trkpt>
      <trkpt lat="40.8239200" lon="-2.1837840">
        <ele>1184.2</ele>
        <time>2019-07-06T08:02:59Z</time>
      </trkpt>
      <trkpt lat="40.8239680" lon="-2.1838200">
        <ele>1184.6</ele>
        <time>2019-07-06T08:03:01Z</time>
      </trkpt>
      <trkpt lat="40.8240420" lon="-2.1838780">
        <ele>1185.4</ele>
        <time>2019-07-06T08:03:04Z</time>
      </trkpt>
      <trkpt lat="40.8241260" lon="-2.1839140">
        <ele>1186.2</ele>
        <time>2019-07-06T08:03:07Z</time>
      </trkpt>
      <trkpt lat="40.8241530" lon="-2.1839300">
        <ele>1186.4</ele>
        <time>2019-07-06T08:03:08Z</time>
      </trkpt>
      <trkpt lat="40.8243490" lon="-2.1840610">
        <ele>1187.6</ele>
        <time>2019-07-06T08:03:15Z</time>
      </trkpt>
      <trkpt lat="40.8243790" lon="-2.1840790">
        <ele>1188.0</ele>
        <time>2019-07-06T08:03:16Z</time>
      </trkpt>
      <trkpt lat="40.8244380" lon="-2.1841150">
        <ele>1188.6</ele>
        <time>2019-07-06T08:03:18Z</time>
      </trkpt>
      <trkpt lat="40.8245960" lon="-2.1842060">
        <ele>1189.6</ele>
        <time>2019-07-06T08:03:23Z</time>
      </trkpt>
      <trkpt lat="40.8246280" lon="-2.1842270">
        <ele>1189.8</ele>
        <time>2019-07-06T08:03:24Z</time>
      </trkpt>
      <trkpt lat="40.8247250" lon="-2.1842870">
        <ele>1190.6</ele>
        <time>2019-07-06T08:03:27Z</time>
      </trkpt>
      <trkpt lat="40.8248850" lon="-2.1843930">
        <ele>1191.8</ele>
        <time>2019-07-06T08:03:32Z</time>
      </trkpt>
      <trkpt lat="40.8250800" lon="-2.1845240">
        <ele>1193.0</ele>
        <time>2019-07-06T08:03:38Z</time>
      </trkpt>
      <trkpt lat="40.8251570" lon="-2.1845690">
        <ele>1193.2</ele>
        <time>2019-07-06T08:03:40Z</time>
      </trkpt>
      <trkpt lat="40.8253240" lon="-2.1846770">
        <ele>1194.0</ele>
        <time>2019-07-06T08:03:44Z</time>
      </trkpt>
      <trkpt lat="40.8255070" lon="-2.1847900">
        <ele>1194.0</ele>
        <time>2019-07-06T08:03:48Z</time>
      </trkpt>
      <trkpt lat="40.8257480" lon="-2.1849580">
        <ele>1193.6</ele>
        <time>2019-07-06T08:03:53Z</time>
      </trkpt>
      <trkpt lat="40.8258960" lon="-2.1850530">
        <ele>1193.6</ele>
        <time>2019-07-06T08:03:56Z</time>
      </trkpt>
      <trkpt lat="40.8259450" lon="-2.1850850">
        <ele>1193.6</ele>
        <time>2019-07-06T08:03:57Z</time>
      </trkpt>
      <trkpt lat="40.8261440" lon="-2.1852020">
        <ele>1193.8</ele>
        <time>2019-07-06T08:04:01Z</time>
      </trkpt>
      <trkpt lat="40.8263070" lon="-2.1852490">
        <ele>1194.2</ele>
        <time>2019-07-06T08:04:04Z</time>
      </trkpt>
      <trkpt lat="40.8264750" lon="-2.1852510">
        <ele>1194.4</ele>
        <time>2019-07-06T08:04:07Z</time>
      </trkpt>
      <trkpt lat="40.8265830" lon="-2.1852240">
        <ele>1194.4</ele>
        <time>2019-07-06T08:04:09Z</time>
      </trkpt>
      <trkpt lat="40.8267370" lon="-2.1851680">
        <ele>1194.8</ele>
        <time>2019-07-06T08:04:12Z</time>
      </trkpt>
      <trkpt lat="40.8269710" lon="-2.1850730">
        <ele>1195.8</ele>
        <time>2019-07-06T08:04:17Z</time>
      </trkpt>
      <trkpt lat="40.8272850" lon="-2.1849450">
        <ele>1196.8</ele>
        <time>2019-07-06T08:04:24Z</time>
      </trkpt>
      <trkpt lat="40.8274160" lon="-2.1848950">
        <ele>1197.6</ele>
        <time>2019-07-06T08:04:27Z</time>
      </trkpt>
      <trkpt lat="40.8275010" lon="-2.1848610">
        <ele>1198.0</ele>
        <time>2019-07-06T08:04:29Z</time>
      </trkpt>
      <trkpt lat="40.8276290" lon="-2.1848170">
        <ele>1198.6</ele>
        <time>2019-07-06T08:04:32Z</time>
      </trkpt>
      <trkpt lat="40.8277150" lon="-2.1847810">
        <ele>1199.0</ele>
        <time>2019-07-06T08:04:34Z</time>
      </trkpt>
      <trkpt lat="40.8277590" lon="-2.1847640">
        <ele>1199.2</ele>
        <time>2019-07-06T08:04:35Z</time>
      </trkpt>
      <trkpt lat="40.8280650" lon="-2.1846440">
        <ele>1200.2</ele>
        <time>2019-07-06T08:04:42Z</time>
      </trkpt>
      <trkpt lat="40.8281100" lon="-2.1846300">
        <ele>1200.4</ele>
        <time>2019-07-06T08:04:43Z</time>
      </trkpt>
      <trkpt lat="40.8283820" lon="-2.1845220">
        <ele>1201.2</ele>
        <time>2019-07-06T08:04:49Z</time>
      </trkpt>
      <trkpt lat="40.8285200" lon="-2.1844650">
        <ele>1201.6</ele>
        <time>2019-07-06T08:04:52Z</time>
      </trkpt>
      <trkpt lat="40.8287480" lon="-2.1843800">
        <ele>1202.2</ele>
        <time>2019-07-06T08:04:57Z</time>
      </trkpt>
      <trkpt lat="40.8288810" lon="-2.1843250">
        <ele>1202.8</ele>
        <time>2019-07-06T08:05:00Z</time>
      </trkpt>
      <trkpt lat="40.8290190" lon="-2.1842940">
        <ele>1203.4</ele>
        <time>2019-07-06T08:05:03Z</time>
      </trkpt>
      <trkpt lat="40.8292090" lon="-2.1842680">
        <ele>1204.0</ele>
        <time>2019-07-06T08:05:07Z</time>
      </trkpt>
      <trkpt lat="40.8293060" lon="-2.1842640">
        <ele>1204.4</ele>
        <time>2019-07-06T08:05:09Z</time>
      </trkpt>
      <trkpt lat="40.8295350" lon="-2.1842750">
        <ele>1205.2</ele>
        <time>2019-07-06T08:05:14Z</time>
      </trkpt>
      <trkpt lat="40.8295810" lon="-2.1842770">
        <ele>1205.4</ele>
        <time>2019-07-06T08:05:15Z</time>
      </trkpt>
      <trkpt lat="40.8299520" lon="-2.1842850">
        <ele>1206.2</ele>
        <time>2019-07-06T08:05:23Z</time>
      </trkpt>
      <trkpt lat="40.8300900" lon="-2.1842870">
        <ele>1206.6</ele>
        <time>2019-07-06T08:05:26Z</time>
      </trkpt>
      <trkpt lat="40.8304140" lon="-2.1843110">
        <ele>1207.4</ele>
        <time>2019-07-06T08:05:33Z</time>
      </trkpt>
      <trkpt lat="40.8304650" lon="-2.1843160">
        <ele>1207.6</ele>
        <time>2019-07-06T08:05:34Z</time>
      </trkpt>
      <trkpt lat="40.8307480" lon="-2.1843440">
        <ele>1207.4</ele>
        <time>2019-07-06T08:05:39Z</time>
      </trkpt>
      <trkpt lat="40.8308760" lon="-2.1843580">
        <ele>1207.0</ele>
        <time>2019-07-06T08:05:41Z</time>
      </trkpt>
      <trkpt lat="40.8310110" lon="-2.1843720">
        <ele>1206.8</ele>
        <time>2019-07-06T08:05:43Z</time>
      </trkpt>
      <trkpt lat="40.8310840" lon="-2.1843830">
        <ele>1206.4</ele>
        <time>2019-07-06T08:05:44Z</time>
      </trkpt>
      <trkpt lat="40.8311590" lon="-2.1843950">
        <ele>1206.2</ele>
        <time>2019-07-06T08:05:45Z</time>
      </trkpt>
      <trkpt lat="40.8314050" lon="-2.1844280">
        <ele>1205.2</ele>
        <time>2019-07-06T08:05:48Z</time>
      </trkpt>
      <trkpt lat="40.8315760" lon="-2.1844770">
        <ele>1204.6</ele>
        <time>2019-07-06T08:05:50Z</time>
      </trkpt>
      <trkpt lat="40.8316650" lon="-2.1845150">
        <ele>1204.2</ele>
        <time>2019-07-06T08:05:51Z</time>
      </trkpt>
      <trkpt lat="40.8319360" lon="-2.1846730">
        <ele>1202.6</ele>
        <time>2019-07-06T08:05:54Z</time>
      </trkpt>
      <trkpt lat="40.8320290" lon="-2.1847310">
        <ele>1202.2</ele>
        <time>2019-07-06T08:05:55Z</time>
      </trkpt>
      <trkpt lat="40.8322170" lon="-2.1848470">
        <ele>1201.0</ele>
        <time>2019-07-06T08:05:57Z</time>
      </trkpt>
      <trkpt lat="40.8324990" lon="-2.1850290">
        <ele>1200.0</ele>
        <time>2019-07-06T08:06:00Z</time>
      </trkpt>
      <trkpt lat="40.8326900" lon="-2.1851540">
        <ele>1198.6</ele>
        <time>2019-07-06T08:06:02Z</time>
      </trkpt>
      <trkpt lat="40.8329820" lon="-2.1853320">
        <ele>1197.0</ele>
        <time>2019-07-06T08:06:05Z</time>
      </trkpt>
      <trkpt lat="40.8330790" lon="-2.1853930">
        <ele>1196.6</ele>
        <time>2019-07-06T08:06:06Z</time>
      </trkpt>
      <trkpt lat="40.8332690" lon="-2.1855310">
        <ele>1195.8</ele>
        <time>2019-07-06T08:06:08Z</time>
      </trkpt>
      <trkpt lat="40.8334460" lon="-2.1857090">
        <ele>1194.8</ele>
        <time>2019-07-06T08:06:10Z</time>
      </trkpt>
      <trkpt lat="40.8335290" lon="-2.1858080">
        <ele>1194.4</ele>
        <time>2019-07-06T08:06:11Z</time>
      </trkpt>
      <trkpt lat="40.8336950" lon="-2.1860170">
        <ele>1193.2</ele>
        <time>2019-07-06T08:06:13Z</time>
      </trkpt>
      <trkpt lat="40.8338620" lon="-2.1862310">
        <ele>1192.2</ele>
        <time>2019-07-06T08:06:15Z</time>
      </trkpt>
      <trkpt lat="40.8340280" lon="-2.1864470">
        <ele>1191.2</ele>
        <time>2019-07-06T08:06:17Z</time>
      </trkpt>
      <trkpt lat="40.8341110" lon="-2.1865530">
        <ele>1190.6</ele>
        <time>2019-07-06T08:06:18Z</time>
      </trkpt>
      <trkpt lat="40.8342750" lon="-2.1867650">
        <ele>1189.4</ele>
        <time>2019-07-06T08:06:20Z</time>
      </trkpt>
      <trkpt lat="40.8344380" lon="-2.1869730">
        <ele>1188.6</ele>
        <time>2019-07-06T08:06:22Z</time>
      </trkpt>
      <trkpt lat="40.8345190" lon="-2.1870770">
        <ele>1188.2</ele>
        <time>2019-07-06T08:06:23Z</time>
      </trkpt>
      <trkpt lat="40.8346790" lon="-2.1872880">
        <ele>1186.8</ele>
        <time>2019-07-06T08:06:25Z</time>
      </trkpt>
      <trkpt lat="40.8347600" lon="-2.1873920">
        <ele>1186.0</ele>
        <time>2019-07-06T08:06:26Z</time>
      </trkpt>
      <trkpt lat="40.8348430" lon="-2.1874940">
        <ele>1185.4</ele>
        <time>2019-07-06T08:06:27Z</time>
      </trkpt>
      <trkpt lat="40.8350830" lon="-2.1877860">
        <ele>1184.2</ele>
        <time>2019-07-06T08:06:30Z</time>
      </trkpt>
      <trkpt lat="40.8352300" lon="-2.1879730">
        <ele>1183.6</ele>
        <time>2019-07-06T08:06:32Z</time>
      </trkpt>
      <trkpt lat="40.8353710" lon="-2.1881570">
        <ele>1183.0</ele>
        <time>2019-07-06T08:06:34Z</time>
      </trkpt>
      <trkpt lat="40.8357990" lon="-2.1886760">
        <ele>1181.8</ele>
        <time>2019-07-06T08:06:40Z</time>
      </trkpt>
      <trkpt lat="40.8360290" lon="-2.1889300">
        <ele>1180.4</ele>
        <time>2019-07-06T08:06:43Z</time>
      </trkpt>
      <trkpt lat="40.8362470" lon="-2.1892130">
        <ele>1179.0</ele>
        <time>2019-07-06T08:06:46Z</time>
      </trkpt>
      <trkpt lat="40.8363090" lon="-2.1893200">
        <ele>1178.6</ele>
        <time>2019-07-06T08:06:47Z</time>
      </trkpt>
      <trkpt lat="40.8363630" lon="-2.1894380">
        <ele>1178.0</ele>
        <time>2019-07-06T08:06:48Z</time>
      </trkpt>
      <trkpt lat="40.8364410" lon="-2.1896920">
        <ele>1176.8</ele>
        <time>2019-07-06T08:06:50Z</time>
      </trkpt>
      <trkpt lat="40.8364670" lon="-2.1901050">
        <ele>1175.4</ele>
        <time>2019-07-06T08:06:53Z</time>
      </trkpt>
      <trkpt lat="40.8364380" lon="-2.1903860">
        <ele>1174.6</ele>
        <time>2019-07-06T08:06:55Z</time>
      </trkpt>
      <trkpt lat="40.8364210" lon="-2.1905230">
        <ele>1174.2</ele>
        <time>2019-07-06T08:06:56Z</time>
      </trkpt>
      <trkpt lat="40.8363870" lon="-2.1907860">
        <ele>1173.0</ele>
        <time>2019-07-06T08:06:58Z</time>
      </trkpt>
      <trkpt lat="40.8363290" lon="-2.1912950">
        <ele>1172.0</ele>
        <time>2019-07-06T08:07:02Z</time>
      </trkpt>
      <trkpt lat="40.8363420" lon="-2.1914210">
        <ele>1171.8</ele>
        <time>2019-07-06T08:07:03Z</time>
      </trkpt>
      <trkpt lat="40.8364300" lon="-2.1916380">
        <ele>1171.2</ele>
        <time>2019-07-06T08:07:05Z</time>
      </trkpt>
      <trkpt lat="40.8365500" lon="-2.1918190">
        <ele>1170.6</ele>
        <time>2019-07-06T08:07:07Z</time>
      </trkpt>
      <trkpt lat="40.8366280" lon="-2.1920030">
        <ele>1169.8</ele>
        <time>2019-07-06T08:07:09Z</time>
      </trkpt>
      <trkpt lat="40.8366380" lon="-2.1921130">
        <ele>1169.2</ele>
        <time>2019-07-06T08:07:10Z</time>
      </trkpt>
      <trkpt lat="40.8366290" lon="-2.1923500">
        <ele>1168.4</ele>
        <time>2019-07-06T08:07:12Z</time>
      </trkpt>
      <trkpt lat="40.8366210" lon="-2.1924710">
        <ele>1167.8</ele>
        <time>2019-07-06T08:07:13Z</time>
      </trkpt>
      <trkpt lat="40.8365950" lon="-2.1929430">
        <ele>1166.2</ele>
        <time>2019-07-06T08:07:17Z</time>
      </trkpt>
      <trkpt lat="40.8365700" lon="-2.1930570">
        <ele>1166.0</ele>
        <time>2019-07-06T08:07:18Z</time>
      </trkpt>
      <trkpt lat="40.8364660" lon="-2.1934050">
        <ele>1165.0</ele>
        <time>2019-07-06T08:07:21Z</time>
      </trkpt>
      <trkpt lat="40.8363930" lon="-2.1936370">
        <ele>1164.4</ele>
        <time>2019-07-06T08:07:23Z</time>
      </trkpt>
      <trkpt lat="40.8363530" lon="-2.1937500">
        <ele>1163.8</ele>
        <time>2019-07-06T08:07:24Z</time>
      </trkpt>
      <trkpt lat="40.8362570" lon="-2.1939660">
        <ele>1162.6</ele>
        <time>2019-07-06T08:07:26Z</time>
      </trkpt>
      <trkpt lat="40.8361970" lon="-2.1940630">
        <ele>1162.2</ele>
        <time>2019-07-06T08:07:27Z</time>
      </trkpt>
      <trkpt lat="40.8360570" lon="-2.1942410">
        <ele>1161.4</ele>
        <time>2019-07-06T08:07:29Z</time>
      </trkpt>
      <trkpt lat="40.8359920" lon="-2.1943390">
        <ele>1160.6</ele>
        <time>2019-07-06T08:07:30Z</time>
      </trkpt>
      <trkpt lat="40.8359370" lon="-2.1944480">
        <ele>1160.2</ele>
        <time>2019-07-06T08:07:31Z</time>
      </trkpt>
      <trkpt lat="40.8358550" lon="-2.1946840">
        <ele>1159.0</ele>
        <time>2019-07-06T08:07:33Z</time>
      </trkpt>
      <trkpt lat="40.8357790" lon="-2.1949240">
        <ele>1157.8</ele>
        <time>2019-07-06T08:07:35Z</time>
      </trkpt>
      <trkpt lat="40.8357290" lon="-2.1950370">
        <ele>1157.2</ele>
        <time>2019-07-06T08:07:36Z</time>
      </trkpt>
      <trkpt lat="40.8356000" lon="-2.1952350">
        <ele>1156.4</ele>
        <time>2019-07-06T08:07:38Z</time>
      </trkpt>
      <trkpt lat="40.8353170" lon="-2.1956040">
        <ele>1154.8</ele>
        <time>2019-07-06T08:07:42Z</time>
      </trkpt>
      <trkpt lat="40.8351780" lon="-2.1957970">
        <ele>1153.4</ele>
        <time>2019-07-06T08:07:44Z</time>
      </trkpt>
      <trkpt lat="40.8351100" lon="-2.1958970">
        <ele>1153.0</ele>
        <time>2019-07-06T08:07:45Z</time>
      </trkpt>
      <trkpt lat="40.8350480" lon="-2.1960020">
        <ele>1152.2</ele>
        <time>2019-07-06T08:07:46Z</time>
      </trkpt>
      <trkpt lat="40.8349940" lon="-2.1961170">
        <ele>1151.4</ele>
        <time>2019-07-06T08:07:47Z</time>
      </trkpt>
      <trkpt lat="40.8349510" lon="-2.1962400">
        <ele>1150.8</ele>
        <time>2019-07-06T08:07:48Z</time>
      </trkpt>
      <trkpt lat="40.8348760" lon="-2.1966290">
        <ele>1149.4</ele>
        <time>2019-07-06T08:07:51Z</time>
      </trkpt>
      <trkpt lat="40.8348750" lon="-2.1967560">
        <ele>1148.8</ele>
        <time>2019-07-06T08:07:52Z</time>
      </trkpt>
      <trkpt lat="40.8348920" lon="-2.1968820">
        <ele>1148.2</ele>
        <time>2019-07-06T08:07:53Z</time>
      </trkpt>
      <trkpt lat="40.8349470" lon="-2.1971320">
        <ele>1147.0</ele>
        <time>2019-07-06T08:07:55Z</time>
      </trkpt>
      <trkpt lat="40.8349810" lon="-2.1972460">
        <ele>1146.6</ele>
        <time>2019-07-06T08:07:56Z</time>
      </trkpt>
      <trkpt lat="40.8350750" lon="-2.1974510">
        <ele>1145.4</ele>
        <time>2019-07-06T08:07:58Z</time>
      </trkpt>
      <trkpt lat="40.8352120" lon="-2.1976240">
        <ele>1144.2</ele>
        <time>2019-07-06T08:08:00Z</time>
      </trkpt>
      <trkpt lat="40.8352980" lon="-2.1976930">
        <ele>1143.4</ele>
        <time>2019-07-06T08:08:01Z</time>
      </trkpt>
      <trkpt lat="40.8353870" lon="-2.1977480">
        <ele>1142.6</ele>
        <time>2019-07-06T08:08:02Z</time>
      </trkpt>
      <trkpt lat="40.8354740" lon="-2.1977890">
        <ele>1142.2</ele>
        <time>2019-07-06T08:08:03Z</time>
      </trkpt>
      <trkpt lat="40.8356300" lon="-2.1978750">
        <ele>1141.4</ele>
        <time>2019-07-06T08:08:05Z</time>
      </trkpt>
      <trkpt lat="40.8357230" lon="-2.1980460">
        <ele>1140.2</ele>
        <time>2019-07-06T08:08:07Z</time>
      </trkpt>
      <trkpt lat="40.8357070" lon="-2.1983620">
        <ele>1138.6</ele>
        <time>2019-07-06T08:08:10Z</time>
      </trkpt>
      <trkpt lat="40.8356790" lon="-2.1984690">
        <ele>1138.4</ele>
        <time>2019-07-06T08:08:11Z</time>
      </trkpt>
      <trkpt lat="40.8356590" lon="-2.1985810">
        <ele>1138.0</ele>
        <time>2019-07-06T08:08:12Z</time>
      </trkpt>
      <trkpt lat="40.8356710" lon="-2.1988190">
        <ele>1137.0</ele>
        <time>2019-07-06T08:08:14Z</time>
      </trkpt>
      <trkpt lat="40.8357360" lon="-2.1990500">
        <ele>1135.8</ele>
        <time>2019-07-06T08:08:16Z</time>
      </trkpt>
      <trkpt lat="40.8358150" lon="-2.1992790">
        <ele>1135.0</ele>
        <time>2019-07-06T08:08:18Z</time>
      </trkpt>
      <trkpt lat="40.8359000" lon="-2.1995100">
        <ele>1134.4</ele>
        <time>2019-07-06T08:08:20Z</time>
      </trkpt>
      <trkpt lat="40.8359700" lon="-2.1997460">
        <ele>1133.4</ele>
        <time>2019-07-06T08:08:22Z</time>
      </trkpt>
      <trkpt lat="40.8359870" lon="-2.1998700">
        <ele>1133.0</ele>
        <time>2019-07-06T08:08:23Z</time>
      </trkpt>
      <trkpt lat="40.8359490" lon="-2.2001140">
        <ele>1132.4</ele>
        <time>2019-07-06T08:08:25Z</time>
      </trkpt>
      <trkpt lat="40.8357580" lon="-2.2003560">
        <ele>1131.6</ele>
        <time>2019-07-06T08:08:28Z</time>
      </trkpt>
      <trkpt lat="40.8355990" lon="-2.2003610">
        <ele>1131.6</ele>
        <time>2019-07-06T08:08:30Z</time>
      </trkpt>
      <trkpt lat="40.8354460" lon="-2.2002140">
        <ele>1132.2</ele>
        <time>2019-07-06T08:08:33Z</time>
      </trkpt>
      <trkpt lat="40.8354050" lon="-2.2001580">
        <ele>1132.4</ele>
        <time>2019-07-06T08:08:34Z</time>
      </trkpt>
      <trkpt lat="40.8353640" lon="-2.2001060">
        <ele>1132.4</ele>
        <time>2019-07-06T08:08:35Z</time>
      </trkpt>
      <trkpt lat="40.8353250" lon="-2.2000590">
        <ele>1132.6</ele>
        <time>2019-07-06T08:08:36Z</time>
      </trkpt>
      <trkpt lat="40.8352560" lon="-2.1999570">
        <ele>1133.0</ele>
        <time>2019-07-06T08:08:38Z</time>
      </trkpt>
      <trkpt lat="40.8351900" lon="-2.1998510">
        <ele>1133.4</ele>
        <time>2019-07-06T08:08:40Z</time>
      </trkpt>
      <trkpt lat="40.8351270" lon="-2.1997520">
        <ele>1133.8</ele>
        <time>2019-07-06T08:08:42Z</time>
      </trkpt>
      <trkpt lat="40.8350650" lon="-2.1996520">
        <ele>1134.4</ele>
        <time>2019-07-06T08:08:44Z</time>
      </trkpt>
      <trkpt lat="40.8350340" lon="-2.1996030">
        <ele>1134.6</ele>
        <time>2019-07-06T08:08:45Z</time>
      </trkpt>
      <trkpt lat="40.8349680" lon="-2.1995110">
        <ele>1134.8</ele>
        <time>2019-07-06T08:08:47Z</time>
      </trkpt>
      <trkpt lat="40.8347010" lon="-2.1991770">
        <ele>1135.2</ele>
        <time>2019-07-06T08:08:54Z</time>
      </trkpt>
      <trkpt lat="40.8343840" lon="-2.1989440">
        <ele>1134.4</ele>
        <time>2019-07-06T08:09:00Z</time>
      </trkpt>
      <trkpt lat="40.8341910" lon="-2.1988340">
        <ele>1133.4</ele>
        <time>2019-07-06T08:09:03Z</time>
      </trkpt>
      <trkpt lat="40.8340510" lon="-2.1987550">
        <ele>1132.8</ele>
        <time>2019-07-06T08:09:05Z</time>
      </trkpt>
      <trkpt lat="40.8339780" lon="-2.1987210">
        <ele>1132.2</ele>
        <time>2019-07-06T08:09:06Z</time>
      </trkpt>
      <trkpt lat="40.8338150" lon="-2.1986900">
        <ele>1131.6</ele>
        <time>2019-07-06T08:09:08Z</time>
      </trkpt>
      <trkpt lat="40.8336470" lon="-2.1987110">
        <ele>1131.0</ele>
        <time>2019-07-06T08:09:10Z</time>
      </trkpt>
      <trkpt lat="40.8334920" lon="-2.1987840">
        <ele>1130.4</ele>
        <time>2019-07-06T08:09:12Z</time>
      </trkpt>
      <trkpt lat="40.8334280" lon="-2.1988510">
        <ele>1130.0</ele>
        <time>2019-07-06T08:09:13Z</time>
      </trkpt>
      <trkpt lat="40.8333440" lon="-2.1990350">
        <ele>1129.0</ele>
        <time>2019-07-06T08:09:15Z</time>
      </trkpt>
      <trkpt lat="40.8333170" lon="-2.1991390">
        <ele>1128.6</ele>
        <time>2019-07-06T08:09:16Z</time>
      </trkpt>
      <trkpt lat="40.8332920" lon="-2.1992450">
        <ele>1128.2</ele>
        <time>2019-07-06T08:09:17Z</time>
      </trkpt>
      <trkpt lat="40.8332430" lon="-2.1994620">
        <ele>1127.6</ele>
        <time>2019-07-06T08:09:19Z</time>
      </trkpt>
      <trkpt lat="40.8331960" lon="-2.1996840">
        <ele>1127.2</ele>
        <time>2019-07-06T08:09:21Z</time>
      </trkpt>
      <trkpt lat="40.8331470" lon="-2.1999090">
        <ele>1126.4</ele>
        <time>2019-07-06T08:09:23Z</time>
      </trkpt>
      <trkpt lat="40.8330760" lon="-2.2002470">
        <ele>1125.4</ele>
        <time>2019-07-06T08:09:26Z</time>
      </trkpt>
      <trkpt lat="40.8330650" lon="-2.2003640">
        <ele>1125.0</ele>
        <time>2019-07-06T08:09:27Z</time>
      </trkpt>
      <trkpt lat="40.8331030" lon="-2.2007250">
        <ele>1124.0</ele>
        <time>2019-07-06T08:09:30Z</time>
      </trkpt>
      <trkpt lat="40.8331400" lon="-2.2009670">
        <ele>1123.2</ele>
        <time>2019-07-06T08:09:32Z</time>
      </trkpt>
      <trkpt lat="40.8331450" lon="-2.2010900">
        <ele>1123.0</ele>
        <time>2019-07-06T08:09:33Z</time>
      </trkpt>
      <trkpt lat="40.8331340" lon="-2.2012180">
        <ele>1122.6</ele>
        <time>2019-07-06T08:09:34Z</time>
      </trkpt>
      <trkpt lat="40.8330500" lon="-2.2014490">
        <ele>1121.8</ele>
        <time>2019-07-06T08:09:36Z</time>
      </trkpt>
      <trkpt lat="40.8329890" lon="-2.2015480">
        <ele>1121.2</ele>
        <time>2019-07-06T08:09:37Z</time>
      </trkpt>
      <trkpt lat="40.8329260" lon="-2.2016400">
        <ele>1120.6</ele>
        <time>2019-07-06T08:09:38Z</time>
      </trkpt>
      <trkpt lat="40.8327510" lon="-2.2018960">
        <ele>1120.4</ele>
        <time>2019-07-06T08:09:41Z</time>
      </trkpt>
      <trkpt lat="40.8327100" lon="-2.2019820">
        <ele>1120.4</ele>
        <time>2019-07-06T08:09:42Z</time>
      </trkpt>
      <trkpt lat="40.8326840" lon="-2.2022350">
        <ele>1120.6</ele>
        <time>2019-07-06T08:09:45Z</time>
      </trkpt>
      <trkpt lat="40.8327470" lon="-2.2023370">
        <ele>1121.8</ele>
        <time>2019-07-06T08:09:47Z</time>
      </trkpt>
      <trkpt lat="40.8327880" lon="-2.2023670">
        <ele>1122.2</ele>
        <time>2019-07-06T08:09:48Z</time>
      </trkpt>
      <trkpt lat="40.8328300" lon="-2.2023920">
        <ele>1122.8</ele>
        <time>2019-07-06T08:09:49Z</time>
      </trkpt>
      <trkpt lat="40.8329100" lon="-2.2024480">
        <ele>1123.6</ele>
        <time>2019-07-06T08:09:51Z</time>
      </trkpt>
      <trkpt lat="40.8329470" lon="-2.2024760">
        <ele>1124.2</ele>
        <time>2019-07-06T08:09:52Z</time>
      </trkpt>
      <trkpt lat="40.8330200" lon="-2.2025260">
        <ele>1125.0</ele>
        <time>2019-07-06T08:09:54Z</time>
      </trkpt>
      <trkpt lat="40.8330550" lon="-2.2025490">
        <ele>1125.2</ele>
        <time>2019-07-06T08:09:55Z</time>
      </trkpt>
      <trkpt lat="40.8331560" lon="-2.2026100">
        <ele>1125.8</ele>
        <time>2019-07-06T08:09:58Z</time>
      </trkpt>
      <trkpt lat="40.8331840" lon="-2.2026410">
        <ele>1126.0</ele>
        <time>2019-07-06T08:09:59Z</time>
      </trkpt>
      <trkpt lat="40.8332360" lon="-2.2027120">
        <ele>1126.4</ele>
        <time>2019-07-06T08:10:01Z</time>
      </trkpt>
      <trkpt lat="40.8333480" lon="-2.2028430">
        <ele>1127.4</ele>
        <time>2019-07-06T08:10:05Z</time>
      </trkpt>
      <trkpt lat="40.8333750" lon="-2.2028750">
        <ele>1127.4</ele>
        <time>2019-07-06T08:10:06Z</time>
      </trkpt>
      <trkpt lat="40.8334030" lon="-2.2029080">
        <ele>1127.6</ele>
        <time>2019-07-06T08:10:07Z</time>
      </trkpt>
      <trkpt lat="40.8335260" lon="-2.2030770">
        <ele>1128.6</ele>
        <time>2019-07-06T08:10:12Z</time>
      </trkpt>
      <trkpt lat="40.8335510" lon="-2.2031070">
        <ele>1129.0</ele>
        <time>2019-07-06T08:10:13Z</time>
      </trkpt>
      <trkpt lat="40.8336770" lon="-2.2032210">
        <ele>1130.0</ele>
        <time>2019-07-06T08:10:18Z</time>
      </trkpt>
      <trkpt lat="40.8338020" lon="-2.2033220">
        <ele>1131.0</ele>
        <time>2019-07-06T08:10:23Z</time>
      </trkpt>
      <trkpt lat="40.8339260" lon="-2.2034190">
        <ele>1132.0</ele>
        <time>2019-07-06T08:10:28Z</time>
      </trkpt>
      <trkpt lat="40.8339920" lon="-2.2034900">
        <ele>1132.8</ele>
        <time>2019-07-06T08:10:31Z</time>
      </trkpt>
      <trkpt lat="40.8340260" lon="-2.2035450">
        <ele>1133.2</ele>
        <time>2019-07-06T08:10:33Z</time>
      </trkpt>
      <trkpt lat="40.8340610" lon="-2.2036460">
        <ele>1133.8</ele>
        <time>2019-07-06T08:10:36Z</time>
      </trkpt>
      <trkpt lat="40.8340830" lon="-2.2037580">
        <ele>1134.2</ele>
        <time>2019-07-06T08:10:39Z</time>
      </trkpt>
      <trkpt lat="40.8340840" lon="-2.2037940">
        <ele>1134.4</ele>
        <time>2019-07-06T08:10:40Z</time>
      </trkpt>
      <trkpt lat="40.8340790" lon="-2.2038320">
        <ele>1134.4</ele>
        <time>2019-07-06T08:10:41Z</time>
      </trkpt>
      <trkpt lat="40.8340390" lon="-2.2039850">
        <ele>1135.2</ele>
        <time>2019-07-06T08:10:45Z</time>
      </trkpt>
      <trkpt lat="40.8340190" lon="-2.2040150">
        <ele>1135.4</ele>
        <time>2019-07-06T08:10:46Z</time>
      </trkpt>
      <trkpt lat="40.8338820" lon="-2.2040890">
        <ele>1136.2</ele>
        <time>2019-07-06T08:10:51Z</time>
      </trkpt>
      <trkpt lat="40.8337000" lon="-2.2040470">
        <ele>1137.2</ele>
        <time>2019-07-06T08:10:57Z</time>
      </trkpt>
      <trkpt lat="40.8336700" lon="-2.2040390">
        <ele>1137.4</ele>
        <time>2019-07-06T08:10:58Z</time>
      </trkpt>
      <trkpt lat="40.8335770" lon="-2.2040050">
        <ele>1138.2</ele>
        <time>2019-07-06T08:11:01Z</time>
      </trkpt>
      <trkpt lat="40.8334560" lon="-2.2039660">
        <ele>1138.6</ele>
        <time>2019-07-06T08:11:05Z</time>
      </trkpt>
      <trkpt lat="40.8333980" lon="-2.2039440">
        <ele>1139.2</ele>
        <time>2019-07-06T08:11:07Z</time>
      </trkpt>
      <trkpt lat="40.8332500" lon="-2.2038990">
        <ele>1140.0</ele>
        <time>2019-07-06T08:11:12Z</time>
      </trkpt>
      <trkpt lat="40.8332220" lon="-2.2038800">
        <ele>1140.4</ele>
        <time>2019-07-06T08:11:13Z</time>
      </trkpt>
      <trkpt lat="40.8331080" lon="-2.2038580">
        <ele>1141.2</ele>
        <time>2019-07-06T08:11:17Z</time>
      </trkpt>
      <trkpt lat="40.8330810" lon="-2.2038650">
        <ele>1141.4</ele>
        <time>2019-07-06T08:11:18Z</time>
      </trkpt>
      <trkpt lat="40.8329550" lon="-2.2039390">
        <ele>1142.4</ele>
        <time>2019-07-06T08:11:23Z</time>
      </trkpt>
      <trkpt lat="40.8328540" lon="-2.2041220">
        <ele>1143.4</ele>
        <time>2019-07-06T08:11:29Z</time>
      </trkpt>
      <trkpt lat="40.8328400" lon="-2.2041570">
        <ele>1143.6</ele>
        <time>2019-07-06T08:11:30Z</time>
      </trkpt>
      <trkpt lat="40.8327860" lon="-2.2043410">
        <ele>1144.4</ele>
        <time>2019-07-06T08:11:35Z</time>
      </trkpt>
      <trkpt lat="40.8327830" lon="-2.2043820">
        <ele>1144.6</ele>
        <time>2019-07-06T08:11:36Z</time>
      </trkpt>
      <trkpt lat="40.8327950" lon="-2.2045770">
        <ele>1145.6</ele>
        <time>2019-07-06T08:11:41Z</time>
      </trkpt>
      <trkpt lat="40.8328110" lon="-2.2046110">
        <ele>1145.8</ele>
        <time>2019-07-06T08:11:42Z</time>
      </trkpt>
      <trkpt lat="40.8329100" lon="-2.2047430">
        <ele>1146.8</ele>
        <time>2019-07-06T08:11:46Z</time>
      </trkpt>
      <trkpt lat="40.8329380" lon="-2.2047720">
        <ele>1147.0</ele>
        <time>2019-07-06T08:11:47Z</time>
      </trkpt>
      <trkpt lat="40.8331170" lon="-2.2049410">
        <ele>1148.2</ele>
        <time>2019-07-06T08:11:53Z</time>
      </trkpt>
      <trkpt lat="40.8331490" lon="-2.2049670">
        <ele>1148.4</ele>
        <time>2019-07-06T08:11:54Z</time>
      </trkpt>
      <trkpt lat="40.8333210" lon="-2.2051550">
        <ele>1149.2</ele>
        <time>2019-07-06T08:12:00Z</time>
      </trkpt>
      <trkpt lat="40.8334150" lon="-2.2053490">
        <ele>1150.2</ele>
        <time>2019-07-06T08:12:05Z</time>
      </trkpt>
      <trkpt lat="40.8334320" lon="-2.2053890">
        <ele>1150.4</ele>
        <time>2019-07-06T08:12:06Z</time>
      </trkpt>
      <trkpt lat="40.8334630" lon="-2.2055590">
        <ele>1151.0</ele>
        <time>2019-07-06T08:12:10Z</time>
      </trkpt>
      <trkpt lat="40.8334710" lon="-2.2056470">
        <ele>1151.4</ele>
        <time>2019-07-06T08:12:12Z</time>
      </trkpt>
      <trkpt lat="40.8334630" lon="-2.2059020">
        <ele>1152.8</ele>
        <time>2019-07-06T08:12:18Z</time>
      </trkpt>
      <trkpt lat="40.8333690" lon="-2.2060740">
        <ele>1153.8</ele>
        <time>2019-07-06T08:12:23Z</time>
      </trkpt>
      <trkpt lat="40.8333430" lon="-2.2061020">
        <ele>1154.0</ele>
        <time>2019-07-06T08:12:24Z</time>
      </trkpt>
      <trkpt lat="40.8332540" lon="-2.2061680">
        <ele>1155.0</ele>
        <time>2019-07-06T08:12:27Z</time>
      </trkpt>
      <trkpt lat="40.8331880" lon="-2.2061990">
        <ele>1155.6</ele>
        <time>2019-07-06T08:12:29Z</time>
      </trkpt>
      <trkpt lat="40.8330790" lon="-2.2062110">
        <ele>1156.2</ele>
        <time>2019-07-06T08:12:32Z</time>
      </trkpt>
      <trkpt lat="40.8329330" lon="-2.2062320">
        <ele>1157.0</ele>
        <time>2019-07-06T08:12:36Z</time>
      </trkpt>
      <trkpt lat="40.8327810" lon="-2.2062350">
        <ele>1157.4</ele>
        <time>2019-07-06T08:12:40Z</time>
      </trkpt>
      <trkpt lat="40.8326670" lon="-2.2062380">
        <ele>1157.8</ele>
        <time>2019-07-06T08:12:43Z</time>
      </trkpt>
      <trkpt lat="40.8324400" lon="-2.2062850">
        <ele>1158.4</ele>
        <time>2019-07-06T08:12:49Z</time>
      </trkpt>
      <trkpt lat="40.8323670" lon="-2.2063130">
        <ele>1158.6</ele>
        <time>2019-07-06T08:12:51Z</time>
      </trkpt>
      <trkpt lat="40.8321750" lon="-2.2063680">
        <ele>1159.4</ele>
        <time>2019-07-06T08:12:56Z</time>
      </trkpt>
      <trkpt lat="40.8321000" lon="-2.2063880">
        <ele>1159.6</ele>
        <time>2019-07-06T08:12:58Z</time>
      </trkpt>
      <trkpt lat="40.8319800" lon="-2.2063940">
        <ele>1160.0</ele>
        <time>2019-07-06T08:13:01Z</time>
      </trkpt>
      <trkpt lat="40.8318600" lon="-2.2063700">
        <ele>1160.2</ele>
        <time>2019-07-06T08:13:04Z</time>
      </trkpt>
      <trkpt lat="40.8318190" lon="-2.2063590">
        <ele>1160.4</ele>
        <time>2019-07-06T08:13:05Z</time>
      </trkpt>
      <trkpt lat="40.8316320" lon="-2.2063000">
        <ele>1161.6</ele>
        <time>2019-07-06T08:13:10Z</time>
      </trkpt>
      <trkpt lat="40.8314910" lon="-2.2062540">
        <ele>1162.6</ele>
        <time>2019-07-06T08:13:14Z</time>
      </trkpt>
      <trkpt lat="40.8314240" lon="-2.2062360">
        <ele>1163.2</ele>
        <time>2019-07-06T08:13:16Z</time>
      </trkpt>
      <trkpt lat="40.8313130" lon="-2.2062170">
        <ele>1163.8</ele>
        <time>2019-07-06T08:13:19Z</time>
      </trkpt>
      <trkpt lat="40.8311250" lon="-2.2061970">
        <ele>1164.4</ele>
        <time>2019-07-06T08:13:24Z</time>
      </trkpt>
      <trkpt lat="40.8310470" lon="-2.2061910">
        <ele>1164.8</ele>
        <time>2019-07-06T08:13:26Z</time>
      </trkpt>
      <trkpt lat="40.8308090" lon="-2.2061640">
        <ele>1165.8</ele>
        <time>2019-07-06T08:13:32Z</time>
      </trkpt>
      <trkpt lat="40.8307690" lon="-2.2061540">
        <ele>1166.0</ele>
        <time>2019-07-06T08:13:33Z</time>
      </trkpt>
      <trkpt lat="40.8306120" lon="-2.2061230">
        <ele>1167.0</ele>
        <time>2019-07-06T08:13:37Z</time>
      </trkpt>
      <trkpt lat="40.8305710" lon="-2.2061210">
        <ele>1167.4</ele>
        <time>2019-07-06T08:13:38Z</time>
      </trkpt>
      <trkpt lat="40.8304140" lon="-2.2061150">
        <ele>1168.2</ele>
        <time>2019-07-06T08:13:42Z</time>
      </trkpt>
      <trkpt lat="40.8302980" lon="-2.2061210">
        <ele>1168.6</ele>
        <time>2019-07-06T08:13:45Z</time>
      </trkpt>
      <trkpt lat="40.8301410" lon="-2.2061680">
        <ele>1169.2</ele>
        <time>2019-07-06T08:13:49Z</time>
      </trkpt>
      <trkpt lat="40.8299880" lon="-2.2062330">
        <ele>1169.6</ele>
        <time>2019-07-06T08:13:53Z</time>
      </trkpt>
      <trkpt lat="40.8298630" lon="-2.2062590">
        <ele>1170.4</ele>
        <time>2019-07-06T08:13:56Z</time>
      </trkpt>
      <trkpt lat="40.8296560" lon="-2.2062700">
        <ele>1171.2</ele>
        <time>2019-07-06T08:14:01Z</time>
      </trkpt>
      <trkpt lat="40.8295760" lon="-2.2062520">
        <ele>1171.4</ele>
        <time>2019-07-06T08:14:03Z</time>
      </trkpt>
      <trkpt lat="40.8294610" lon="-2.2062250">
        <ele>1172.0</ele>
        <time>2019-07-06T08:14:06Z</time>
      </trkpt>
      <trkpt lat="40.8293870" lon="-2.2061930">
        <ele>1172.4</ele>
        <time>2019-07-06T08:14:08Z</time>
      </trkpt>
      <trkpt lat="40.8293530" lon="-2.2061790">
        <ele>1172.6</ele>
        <time>2019-07-06T08:14:09Z</time>
      </trkpt>
      <trkpt lat="40.8291920" lon="-2.2061180">
        <ele>1173.8</ele>
        <time>2019-07-06T08:14:14Z</time>
      </trkpt>
      <trkpt lat="40.8291600" lon="-2.2061080">
        <ele>1174.2</ele>
        <time>2019-07-06T08:14:15Z</time>
      </trkpt>
      <trkpt lat="40.8290330" lon="-2.2060640">
        <ele>1175.4</ele>
        <time>2019-07-06T08:14:19Z</time>
      </trkpt>
      <trkpt lat="40.8289000" lon="-2.2060460">
        <ele>1176.4</ele>
        <time>2019-07-06T08:14:23Z</time>
      </trkpt>
      <trkpt lat="40.8287290" lon="-2.2060730">
        <ele>1177.4</ele>
        <time>2019-07-06T08:14:28Z</time>
      </trkpt>
      <trkpt lat="40.8286630" lon="-2.2060960">
        <ele>1177.8</ele>
        <time>2019-07-06T08:14:30Z</time>
      </trkpt>
      <trkpt lat="40.8285070" lon="-2.2061790">
        <ele>1178.6</ele>
        <time>2019-07-06T08:14:35Z</time>
      </trkpt>
      <trkpt lat="40.8284170" lon="-2.2062400">
        <ele>1179.0</ele>
        <time>2019-07-06T08:14:38Z</time>
      </trkpt>
      <trkpt lat="40.8283280" lon="-2.2063050">
        <ele>1179.6</ele>
        <time>2019-07-06T08:14:41Z</time>
      </trkpt>
      <trkpt lat="40.8282020" lon="-2.2064040">
        <ele>1180.2</ele>
        <time>2019-07-06T08:14:45Z</time>
      </trkpt>
      <trkpt lat="40.8281040" lon="-2.2064760">
        <ele>1180.6</ele>
        <time>2019-07-06T08:14:48Z</time>
      </trkpt>
      <trkpt lat="40.8279360" lon="-2.2065750">
        <ele>1181.4</ele>
        <time>2019-07-06T08:14:53Z</time>
      </trkpt>
      <trkpt lat="40.8278680" lon="-2.2066130">
        <ele>1181.8</ele>
        <time>2019-07-06T08:14:55Z</time>
      </trkpt>
      <trkpt lat="40.8277410" lon="-2.2066640">
        <ele>1182.8</ele>
        <time>2019-07-06T08:14:59Z</time>
      </trkpt>
      <trkpt lat="40.8277120" lon="-2.2066750">
        <ele>1183.0</ele>
        <time>2019-07-06T08:15:00Z</time>
      </trkpt>
      <trkpt lat="40.8275640" lon="-2.2067370">
        <ele>1184.2</ele>
        <time>2019-07-06T08:15:05Z</time>
      </trkpt>
      <trkpt lat="40.8275010" lon="-2.2067690">
        <ele>1184.8</ele>
        <time>2019-07-06T08:15:07Z</time>
      </trkpt>
      <trkpt lat="40.8274380" lon="-2.2067940">
        <ele>1185.2</ele>
        <time>2019-07-06T08:15:09Z</time>
      </trkpt>
      <trkpt lat="40.8272800" lon="-2.2068750">
        <ele>1186.2</ele>
        <time>2019-07-06T08:15:14Z</time>
      </trkpt>
      <trkpt lat="40.8272170" lon="-2.2069100">
        <ele>1186.6</ele>
        <time>2019-07-06T08:15:16Z</time>
      </trkpt>
      <trkpt lat="40.8271020" lon="-2.2070060">
        <ele>1187.6</ele>
        <time>2019-07-06T08:15:20Z</time>
      </trkpt>
      <trkpt lat="40.8270280" lon="-2.2071010">
        <ele>1188.0</ele>
        <time>2019-07-06T08:15:23Z</time>
      </trkpt>
      <trkpt lat="40.8269550" lon="-2.2072540">
        <ele>1188.6</ele>
        <time>2019-07-06T08:15:27Z</time>
      </trkpt>
      <trkpt lat="40.8269250" lon="-2.2073780">
        <ele>1189.2</ele>
        <time>2019-07-06T08:15:30Z</time>
      </trkpt>
      <trkpt lat="40.8269090" lon="-2.2074710">
        <ele>1189.6</ele>
        <time>2019-07-06T08:15:32Z</time>
      </trkpt>
      <trkpt lat="40.8268760" lon="-2.2077680">
        <ele>1190.4</ele>
        <time>2019-07-06T08:15:38Z</time>
      </trkpt>
      <trkpt lat="40.8268710" lon="-2.2078200">
        <ele>1190.8</ele>
        <time>2019-07-06T08:15:39Z</time>
      </trkpt>
      <trkpt lat="40.8268290" lon="-2.2082290">
        <ele>1191.8</ele>
        <time>2019-07-06T08:15:47Z</time>
      </trkpt>
      <trkpt lat="40.8267750" lon="-2.2084760">
        <ele>1193.0</ele>
        <time>2019-07-06T08:15:52Z</time>
      </trkpt>
      <trkpt lat="40.8267510" lon="-2.2085170">
        <ele>1193.0</ele>
        <time>2019-07-06T08:15:53Z</time>
      </trkpt>
      <trkpt lat="40.8266080" lon="-2.2085980">
        <ele>1193.6</ele>
        <time>2019-07-06T08:15:57Z</time>
      </trkpt>
      <trkpt lat="40.8265360" lon="-2.2085930">
        <ele>1194.2</ele>
        <time>2019-07-06T08:15:59Z</time>
      </trkpt>
      <trkpt lat="40.8264320" lon="-2.2085910">
        <ele>1195.2</ele>
        <time>2019-07-06T08:16:02Z</time>
      </trkpt>
      <trkpt lat="40.8263960" lon="-2.2085860">
        <ele>1195.6</ele>
        <time>2019-07-06T08:16:03Z</time>
      </trkpt>
      <trkpt lat="40.8262550" lon="-2.2085480">
        <ele>1196.4</ele>
        <time>2019-07-06T08:16:07Z</time>
      </trkpt>
      <trkpt lat="40.8261840" lon="-2.2085410">
        <ele>1196.8</ele>
        <time>2019-07-06T08:16:09Z</time>
      </trkpt>
      <trkpt lat="40.8260410" lon="-2.2085500">
        <ele>1197.2</ele>
        <time>2019-07-06T08:16:13Z</time>
      </trkpt>
      <trkpt lat="40.8259730" lon="-2.2085680">
        <ele>1197.6</ele>
        <time>2019-07-06T08:16:15Z</time>
      </trkpt>
      <trkpt lat="40.8258770" lon="-2.2086190">
        <ele>1198.6</ele>
        <time>2019-07-06T08:16:18Z</time>
      </trkpt>
      <trkpt lat="40.8257770" lon="-2.2086770">
        <ele>1199.2</ele>
        <time>2019-07-06T08:16:21Z</time>
      </trkpt>
      <trkpt lat="40.8256740" lon="-2.2087460">
        <ele>1199.6</ele>
        <time>2019-07-06T08:16:24Z</time>
      </trkpt>
      <trkpt lat="40.8255020" lon="-2.2088660">
        <ele>1200.6</ele>
        <time>2019-07-06T08:16:29Z</time>
      </trkpt>
      <trkpt lat="40.8254310" lon="-2.2089120">
        <ele>1201.0</ele>
        <time>2019-07-06T08:16:31Z</time>
      </trkpt>
      <trkpt lat="40.8252860" lon="-2.2090000">
        <ele>1201.8</ele>
        <time>2019-07-06T08:16:35Z</time>
      </trkpt>
      <trkpt lat="40.8251790" lon="-2.2090670">
        <ele>1202.2</ele>
        <time>2019-07-06T08:16:38Z</time>
      </trkpt>
      <trkpt lat="40.8249100" lon="-2.2092320">
        <ele>1202.6</ele>
        <time>2019-07-06T08:16:45Z</time>
      </trkpt>
      <trkpt lat="40.8248740" lon="-2.2092620">
        <ele>1202.8</ele>
        <time>2019-07-06T08:16:46Z</time>
      </trkpt>
      <trkpt lat="40.8248390" lon="-2.2092980">
        <ele>1202.8</ele>
        <time>2019-07-06T08:16:47Z</time>
      </trkpt>
      <trkpt lat="40.8247960" lon="-2.2094060">
        <ele>1203.0</ele>
        <time>2019-07-06T08:16:49Z</time>
      </trkpt>
      <trkpt lat="40.8248240" lon="-2.2095500">
        <ele>1202.4</ele>
        <time>2019-07-06T08:16:51Z</time>
      </trkpt>
      <trkpt lat="40.8248650" lon="-2.2096200">
        <ele>1201.8</ele>
        <time>2019-07-06T08:16:52Z</time>
      </trkpt>
      <trkpt lat="40.8249160" lon="-2.2096890">
        <ele>1201.4</ele>
        <time>2019-07-06T08:16:53Z</time>
      </trkpt>
      <trkpt lat="40.8249730" lon="-2.2097600">
        <ele>1201.2</ele>
        <time>2019-07-06T08:16:54Z</time>
      </trkpt>
      <trkpt lat="40.8251000" lon="-2.2099110">
        <ele>1200.0</ele>
        <time>2019-07-06T08:16:56Z</time>
      </trkpt>
      <trkpt lat="40.8252290" lon="-2.2100790">
        <ele>1198.6</ele>
        <time>2019-07-06T08:16:58Z</time>
      </trkpt>
      <trkpt lat="40.8253480" lon="-2.2102710">
        <ele>1197.6</ele>
        <time>2019-07-06T08:17:00Z</time>
      </trkpt>
      <trkpt lat="40.8254070" lon="-2.2103740">
        <ele>1197.2</ele>
        <time>2019-07-06T08:17:01Z</time>
      </trkpt>
      <trkpt lat="40.8254640" lon="-2.2104770">
        <ele>1196.6</ele>
        <time>2019-07-06T08:17:02Z</time>
      </trkpt>
      <trkpt lat="40.8255220" lon="-2.2105800">
        <ele>1196.2</ele>
        <time>2019-07-06T08:17:03Z</time>
      </trkpt>
      <trkpt lat="40.8255860" lon="-2.2106810">
        <ele>1195.8</ele>
        <time>2019-07-06T08:17:04Z</time>
      </trkpt>
      <trkpt lat="40.8256520" lon="-2.2107800">
        <ele>1195.4</ele>
        <time>2019-07-06T08:17:05Z</time>
      </trkpt>
      <trkpt lat="40.8257890" lon="-2.2109750">
        <ele>1194.6</ele>
        <time>2019-07-06T08:17:07Z</time>
      </trkpt>
      <trkpt lat="40.8259250" lon="-2.2111710">
        <ele>1193.4</ele>
        <time>2019-07-06T08:17:09Z</time>
      </trkpt>
      <trkpt lat="40.8260510" lon="-2.2113810">
        <ele>1192.0</ele>
        <time>2019-07-06T08:17:11Z</time>
      </trkpt>
      <trkpt lat="40.8261740" lon="-2.2116000">
        <ele>1191.2</ele>
        <time>2019-07-06T08:17:13Z</time>
      </trkpt>
      <trkpt lat="40.8262420" lon="-2.2117080">
        <ele>1190.8</ele>
        <time>2019-07-06T08:17:14Z</time>
      </trkpt>
      <trkpt lat="40.8263970" lon="-2.2119110">
        <ele>1189.4</ele>
        <time>2019-07-06T08:17:16Z</time>
      </trkpt>
      <trkpt lat="40.8264800" lon="-2.2120050">
        <ele>1188.8</ele>
        <time>2019-07-06T08:17:17Z</time>
      </trkpt>
      <trkpt lat="40.8265600" lon="-2.2120920">
        <ele>1188.0</ele>
        <time>2019-07-06T08:17:18Z</time>
      </trkpt>
      <trkpt lat="40.8267060" lon="-2.2122650">
        <ele>1186.0</ele>
        <time>2019-07-06T08:17:20Z</time>
      </trkpt>
      <trkpt lat="40.8267670" lon="-2.2123680">
        <ele>1185.4</ele>
        <time>2019-07-06T08:17:21Z</time>
      </trkpt>
      <trkpt lat="40.8268220" lon="-2.2124810">
        <ele>1184.6</ele>
        <time>2019-07-06T08:17:22Z</time>
      </trkpt>
      <trkpt lat="40.8269220" lon="-2.2127240">
        <ele>1183.0</ele>
        <time>2019-07-06T08:17:24Z</time>
      </trkpt>
      <trkpt lat="40.8269730" lon="-2.2128510">
        <ele>1182.0</ele>
        <time>2019-07-06T08:17:25Z</time>
      </trkpt>
      <trkpt lat="40.8270220" lon="-2.2129830">
        <ele>1180.8</ele>
        <time>2019-07-06T08:17:26Z</time>
      </trkpt>
      <trkpt lat="40.8271110" lon="-2.2132540">
        <ele>1179.2</ele>
        <time>2019-07-06T08:17:28Z</time>
      </trkpt>
      <trkpt lat="40.8271820" lon="-2.2135060">
        <ele>1178.0</ele>
        <time>2019-07-06T08:17:30Z</time>
      </trkpt>
      <trkpt lat="40.8272090" lon="-2.2136210">
        <ele>1176.6</ele>
        <time>2019-07-06T08:17:31Z</time>
      </trkpt>
      <trkpt lat="40.8272510" lon="-2.2138180">
        <ele>1175.0</ele>
        <time>2019-07-06T08:17:33Z</time>
      </trkpt>
      <trkpt lat="40.8272660" lon="-2.2138980">
        <ele>1174.2</ele>
        <time>2019-07-06T08:17:34Z</time>
      </trkpt>
      <trkpt lat="40.8272740" lon="-2.2139670">
        <ele>1173.8</ele>
        <time>2019-07-06T08:17:35Z</time>
      </trkpt>
      <trkpt lat="40.8272510" lon="-2.2140900">
        <ele>1173.0</ele>
        <time>2019-07-06T08:17:37Z</time>
      </trkpt>
      <trkpt lat="40.8272140" lon="-2.2141410">
        <ele>1172.6</ele>
        <time>2019-07-06T08:17:38Z</time>
      </trkpt>
      <trkpt lat="40.8271160" lon="-2.2142110">
        <ele>1172.2</ele>
        <time>2019-07-06T08:17:40Z</time>
      </trkpt>
      <trkpt lat="40.8268870" lon="-2.2143280">
        <ele>1171.6</ele>
        <time>2019-07-06T08:17:44Z</time>
      </trkpt>
      <trkpt lat="40.8267540" lon="-2.2143820">
        <ele>1171.4</ele>
        <time>2019-07-06T08:17:46Z</time>
      </trkpt>
      <trkpt lat="40.8266130" lon="-2.2143910">
        <ele>1170.8</ele>
        <time>2019-07-06T08:17:48Z</time>
      </trkpt>
      <trkpt lat="40.8265420" lon="-2.2143770">
        <ele>1170.6</ele>
        <time>2019-07-06T08:17:49Z</time>
      </trkpt>
      <trkpt lat="40.8264730" lon="-2.2143570">
        <ele>1170.4</ele>
        <time>2019-07-06T08:17:50Z</time>
      </trkpt>
      <trkpt lat="40.8263320" lon="-2.2143110">
        <ele>1170.2</ele>
        <time>2019-07-06T08:17:52Z</time>
      </trkpt>
      <trkpt lat="40.8262610" lon="-2.2142870">
        <ele>1170.0</ele>
        <time>2019-07-06T08:17:53Z</time>
      </trkpt>
      <trkpt lat="40.8260450" lon="-2.2142200">
        <ele>1169.4</ele>
        <time>2019-07-06T08:17:56Z</time>
      </trkpt>
      <trkpt lat="40.8259730" lon="-2.2141980">
        <ele>1169.2</ele>
        <time>2019-07-06T08:17:57Z</time>
      </trkpt>
      <trkpt lat="40.8257550" lon="-2.2141260">
        <ele>1169.0</ele>
        <time>2019-07-06T08:18:00Z</time>
      </trkpt>
      <trkpt lat="40.8256080" lon="-2.2140790">
        <ele>1168.2</ele>
        <time>2019-07-06T08:18:02Z</time>
      </trkpt>
      <trkpt lat="40.8253130" lon="-2.2139830">
        <ele>1167.2</ele>
        <time>2019-07-06T08:18:06Z</time>
      </trkpt>
      <trkpt lat="40.8249280" lon="-2.2138590">
        <ele>1166.2</ele>
        <time>2019-07-06T08:18:11Z</time>
      </trkpt>
      <trkpt lat="40.8248490" lon="-2.2138350">
        <ele>1166.0</ele>
        <time>2019-07-06T08:18:12Z</time>
      </trkpt>
      <trkpt lat="40.8246070" lon="-2.2137610">
        <ele>1165.6</ele>
        <time>2019-07-06T08:18:15Z</time>
      </trkpt>
      <trkpt lat="40.8243620" lon="-2.2136850">
        <ele>1165.0</ele>
        <time>2019-07-06T08:18:18Z</time>
      </trkpt>
      <trkpt lat="40.8240600" lon="-2.2135770">
        <ele>1164.6</ele>
        <time>2019-07-06T08:18:22Z</time>
      </trkpt>
      <trkpt lat="40.8239890" lon="-2.2135500">
        <ele>1164.6</ele>
        <time>2019-07-06T08:18:23Z</time>
      </trkpt>
      <trkpt lat="40.8236470" lon="-2.2134070">
        <ele>1165.0</ele>
        <time>2019-07-06T08:18:28Z</time>
      </trkpt>
      <trkpt lat="40.8234610" lon="-2.2133290">
        <ele>1165.0</ele>
        <time>2019-07-06T08:18:31Z</time>
      </trkpt>
      <trkpt lat="40.8232960" lon="-2.2132020">
        <ele>1164.8</ele>
        <time>2019-07-06T08:18:34Z</time>
      </trkpt>
      <trkpt lat="40.8229490" lon="-2.2128970">
        <ele>1164.0</ele>
        <time>2019-07-06T08:18:41Z</time>
      </trkpt>
      <trkpt lat="40.8226370" lon="-2.2124950">
        <ele>1157.0</ele>
        <time>2019-07-06T08:44:11Z</time>
      </trkpt>
      <trkpt lat="40.8226160" lon="-2.2124880">
        <ele>1157.0</ele>
        <time>2019-07-06T08:44:12Z</time>
      </trkpt>
      <trkpt lat="40.8225840" lon="-2.2123740">
        <ele>1157.0</ele>
        <time>2019-07-06T08:44:15Z</time>
      </trkpt>
      <trkpt lat="40.8225790" lon="-2.2124630">
        <ele>1157.0</ele>
        <time>2019-07-06T08:44:16Z</time>
      </trkpt>
      <trkpt lat="40.8226030" lon="-2.2124200">
        <ele>1156.6</ele>
        <time>2019-07-06T08:44:17Z</time>
      </trkpt>
      <trkpt lat="40.8226640" lon="-2.2122920">
        <ele>1156.0</ele>
        <time>2019-07-06T08:44:19Z</time>
      </trkpt>
      <trkpt lat="40.8227590" lon="-2.2122300">
        <ele>1155.6</ele>
        <time>2019-07-06T08:44:22Z</time>
      </trkpt>
      <trkpt lat="40.8227900" lon="-2.2122190">
        <ele>1155.6</ele>
        <time>2019-07-06T08:44:23Z</time>
      </trkpt>
      <trkpt lat="40.8228570" lon="-2.2121980">
        <ele>1155.4</ele>
        <time>2019-07-06T08:44:25Z</time>
      </trkpt>
      <trkpt lat="40.8228890" lon="-2.2121970">
        <ele>1155.4</ele>
        <time>2019-07-06T08:44:26Z</time>
      </trkpt>
      <trkpt lat="40.8229160" lon="-2.2122090">
        <ele>1155.4</ele>
        <time>2019-07-06T08:44:27Z</time>
      </trkpt>
      <trkpt lat="40.8229390" lon="-2.2122540">
        <ele>1155.6</ele>
        <time>2019-07-06T08:44:29Z</time>
      </trkpt>
      <trkpt lat="40.8229420" lon="-2.2122840">
        <ele>1155.8</ele>
        <time>2019-07-06T08:44:30Z</time>
      </trkpt>
      <trkpt lat="40.8229310" lon="-2.2123520">
        <ele>1156.4</ele>
        <time>2019-07-06T08:44:32Z</time>
      </trkpt>
      <trkpt lat="40.8229230" lon="-2.2124250">
        <ele>1156.8</ele>
        <time>2019-07-06T08:44:34Z</time>
      </trkpt>
      <trkpt lat="40.8229210" lon="-2.2124570">
        <ele>1156.8</ele>
        <time>2019-07-06T08:44:35Z</time>
      </trkpt>
      <trkpt lat="40.8229060" lon="-2.2125100">
        <ele>1157.4</ele>
        <time>2019-07-06T08:44:37Z</time>
      </trkpt>
      <trkpt lat="40.8228890" lon="-2.2125530">
        <ele>1158.0</ele>
        <time>2019-07-06T08:44:39Z</time>
      </trkpt>
      <trkpt lat="40.8228780" lon="-2.2126010">
        <ele>1158.6</ele>
        <time>2019-07-06T08:44:41Z</time>
      </trkpt>
      <trkpt lat="40.8228660" lon="-2.2126540">
        <ele>1159.0</ele>
        <time>2019-07-06T08:44:43Z</time>
      </trkpt>
      <trkpt lat="40.8228650" lon="-2.2127130">
        <ele>1159.6</ele>
        <time>2019-07-06T08:44:45Z</time>
      </trkpt>
      <trkpt lat="40.8228790" lon="-2.2127680">
        <ele>1160.2</ele>
        <time>2019-07-06T08:44:47Z</time>
      </trkpt>
      <trkpt lat="40.8229160" lon="-2.2128210">
        <ele>1161.2</ele>
        <time>2019-07-06T08:44:50Z</time>
      </trkpt>
      <trkpt lat="40.8229270" lon="-2.2128380">
        <ele>1161.6</ele>
        <time>2019-07-06T08:44:51Z</time>
      </trkpt>
      <trkpt lat="40.8229400" lon="-2.2128510">
        <ele>1161.8</ele>
        <time>2019-07-06T08:44:52Z</time>
      </trkpt>
      <trkpt lat="40.8229830" lon="-2.2128950">
        <ele>1162.8</ele>
        <time>2019-07-06T08:44:55Z</time>
      </trkpt>
      <trkpt lat="40.8229990" lon="-2.2129090">
        <ele>1163.0</ele>
        <time>2019-07-06T08:44:56Z</time>
      </trkpt>
      <trkpt lat="40.8230350" lon="-2.2129290">
        <ele>1163.6</ele>
        <time>2019-07-06T08:44:58Z</time>
      </trkpt>
      <trkpt lat="40.8230520" lon="-2.2129410">
        <ele>1163.8</ele>
        <time>2019-07-06T08:44:59Z</time>
      </trkpt>
      <trkpt lat="40.8231230" lon="-2.2130110">
        <ele>1164.6</ele>
        <time>2019-07-06T08:45:03Z</time>
      </trkpt>
      <trkpt lat="40.8231660" lon="-2.2130450">
        <ele>1164.8</ele>
        <time>2019-07-06T08:45:05Z</time>
      </trkpt>
      <trkpt lat="40.8232760" lon="-2.2131430">
        <ele>1165.2</ele>
        <time>2019-07-06T08:45:10Z</time>
      </trkpt>
      <trkpt lat="40.8234950" lon="-2.2133110">
        <ele>1165.4</ele>
        <time>2019-07-06T08:45:17Z</time>
      </trkpt>
      <trkpt lat="40.8236050" lon="-2.2133650">
        <ele>1165.4</ele>
        <time>2019-07-06T08:45:20Z</time>
      </trkpt>
      <trkpt lat="40.8237240" lon="-2.2134140">
        <ele>1165.4</ele>
        <time>2019-07-06T08:45:23Z</time>
      </trkpt>
      <trkpt lat="40.8237670" lon="-2.2134330">
        <ele>1165.6</ele>
        <time>2019-07-06T08:45:24Z</time>
      </trkpt>
      <trkpt lat="40.8239460" lon="-2.2134930">
        <ele>1165.8</ele>
        <time>2019-07-06T08:45:28Z</time>
      </trkpt>
      <trkpt lat="40.8240410" lon="-2.2135320">
        <ele>1165.6</ele>
        <time>2019-07-06T08:45:30Z</time>
      </trkpt>
      <trkpt lat="40.8243470" lon="-2.2136490">
        <ele>1165.4</ele>
        <time>2019-07-06T08:45:36Z</time>
      </trkpt>
      <trkpt lat="40.8244000" lon="-2.2136640">
        <ele>1165.4</ele>
        <time>2019-07-06T08:45:37Z</time>
      </trkpt>
      <trkpt lat="40.8245110" lon="-2.2137020">
        <ele>1165.2</ele>
        <time>2019-07-06T08:45:39Z</time>
      </trkpt>
      <trkpt lat="40.8247780" lon="-2.2137880">
        <ele>1165.0</ele>
        <time>2019-07-06T08:45:44Z</time>
      </trkpt>
      <trkpt lat="40.8251330" lon="-2.2138930">
        <ele>1165.8</ele>
        <time>2019-07-06T08:45:51Z</time>
      </trkpt>
      <trkpt lat="40.8251810" lon="-2.2139120">
        <ele>1166.2</ele>
        <time>2019-07-06T08:45:52Z</time>
      </trkpt>
      <trkpt lat="40.8255320" lon="-2.2140140">
        <ele>1167.0</ele>
        <time>2019-07-06T08:45:59Z</time>
      </trkpt>
      <trkpt lat="40.8255810" lon="-2.2140310">
        <ele>1167.0</ele>
        <time>2019-07-06T08:46:00Z</time>
      </trkpt>
      <trkpt lat="40.8258240" lon="-2.2141120">
        <ele>1168.0</ele>
        <time>2019-07-06T08:46:05Z</time>
      </trkpt>
      <trkpt lat="40.8260700" lon="-2.2141820">
        <ele>1168.8</ele>
        <time>2019-07-06T08:46:10Z</time>
      </trkpt>
      <trkpt lat="40.8262130" lon="-2.2142330">
        <ele>1169.0</ele>
        <time>2019-07-06T08:46:13Z</time>
      </trkpt>
      <trkpt lat="40.8264520" lon="-2.2143200">
        <ele>1170.0</ele>
        <time>2019-07-06T08:46:18Z</time>
      </trkpt>
      <trkpt lat="40.8264990" lon="-2.2143340">
        <ele>1170.2</ele>
        <time>2019-07-06T08:46:19Z</time>
      </trkpt>
      <trkpt lat="40.8266990" lon="-2.2143660">
        <ele>1170.6</ele>
        <time>2019-07-06T08:46:23Z</time>
      </trkpt>
      <trkpt lat="40.8267990" lon="-2.2143450">
        <ele>1170.8</ele>
        <time>2019-07-06T08:46:25Z</time>
      </trkpt>
      <trkpt lat="40.8268920" lon="-2.2142940">
        <ele>1171.0</ele>
        <time>2019-07-06T08:46:27Z</time>
      </trkpt>
      <trkpt lat="40.8269360" lon="-2.2142660">
        <ele>1171.2</ele>
        <time>2019-07-06T08:46:28Z</time>
      </trkpt>
      <trkpt lat="40.8270680" lon="-2.2141870">
        <ele>1171.6</ele>
        <time>2019-07-06T08:46:31Z</time>
      </trkpt>
      <trkpt lat="40.8271560" lon="-2.2141430">
        <ele>1172.0</ele>
        <time>2019-07-06T08:46:33Z</time>
      </trkpt>
      <trkpt lat="40.8271980" lon="-2.2141120">
        <ele>1172.2</ele>
        <time>2019-07-06T08:46:34Z</time>
      </trkpt>
      <trkpt lat="40.8272510" lon="-2.2140080">
        <ele>1172.6</ele>
        <time>2019-07-06T08:46:36Z</time>
      </trkpt>
      <trkpt lat="40.8272370" lon="-2.2138350">
        <ele>1173.0</ele>
        <time>2019-07-06T08:46:39Z</time>
      </trkpt>
      <trkpt lat="40.8272160" lon="-2.2137300">
        <ele>1173.6</ele>
        <time>2019-07-06T08:46:41Z</time>
      </trkpt>
      <trkpt lat="40.8271550" lon="-2.2134630">
        <ele>1174.8</ele>
        <time>2019-07-06T08:46:46Z</time>
      </trkpt>
      <trkpt lat="40.8271400" lon="-2.2134110">
        <ele>1175.0</ele>
        <time>2019-07-06T08:46:47Z</time>
      </trkpt>
      <trkpt lat="40.8270990" lon="-2.2132680">
        <ele>1175.8</ele>
        <time>2019-07-06T08:46:50Z</time>
      </trkpt>
      <trkpt lat="40.8270210" lon="-2.2130380">
        <ele>1176.8</ele>
        <time>2019-07-06T08:46:56Z</time>
      </trkpt>
      <trkpt lat="40.8269610" lon="-2.2129030">
        <ele>1177.8</ele>
        <time>2019-07-06T08:47:00Z</time>
      </trkpt>
      <trkpt lat="40.8269160" lon="-2.2128000">
        <ele>1178.6</ele>
        <time>2019-07-06T08:47:03Z</time>
      </trkpt>
      <trkpt lat="40.8269050" lon="-2.2127640">
        <ele>1178.8</ele>
        <time>2019-07-06T08:47:04Z</time>
      </trkpt>
      <trkpt lat="40.8268430" lon="-2.2126330">
        <ele>1180.0</ele>
        <time>2019-07-06T08:47:08Z</time>
      </trkpt>
      <trkpt lat="40.8268300" lon="-2.2126000">
        <ele>1180.2</ele>
        <time>2019-07-06T08:47:09Z</time>
      </trkpt>
      <trkpt lat="40.8267850" lon="-2.2124670">
        <ele>1181.0</ele>
        <time>2019-07-06T08:47:13Z</time>
      </trkpt>
      <trkpt lat="40.8267370" lon="-2.2123740">
        <ele>1181.6</ele>
        <time>2019-07-06T08:47:16Z</time>
      </trkpt>
      <trkpt lat="40.8267050" lon="-2.2123120">
        <ele>1182.2</ele>
        <time>2019-07-06T08:47:18Z</time>
      </trkpt>
      <trkpt lat="40.8266460" lon="-2.2122350">
        <ele>1183.0</ele>
        <time>2019-07-06T08:47:21Z</time>
      </trkpt>
      <trkpt lat="40.8266040" lon="-2.2121850">
        <ele>1183.4</ele>
        <time>2019-07-06T08:47:23Z</time>
      </trkpt>
      <trkpt lat="40.8264830" lon="-2.2120570">
        <ele>1183.8</ele>
        <time>2019-07-06T08:47:28Z</time>
      </trkpt>
      <trkpt lat="40.8264380" lon="-2.2120040">
        <ele>1184.4</ele>
        <time>2019-07-06T08:47:30Z</time>
      </trkpt>
      <trkpt lat="40.8263700" lon="-2.2119240">
        <ele>1185.2</ele>
        <time>2019-07-06T08:47:33Z</time>
      </trkpt>
      <trkpt lat="40.8263450" lon="-2.2118980">
        <ele>1185.6</ele>
        <time>2019-07-06T08:47:34Z</time>
      </trkpt>
      <trkpt lat="40.8262550" lon="-2.2117920">
        <ele>1186.6</ele>
        <time>2019-07-06T08:47:38Z</time>
      </trkpt>
      <trkpt lat="40.8262160" lon="-2.2117260">
        <ele>1187.4</ele>
        <time>2019-07-06T08:47:40Z</time>
      </trkpt>
      <trkpt lat="40.8261670" lon="-2.2116640">
        <ele>1187.8</ele>
        <time>2019-07-06T08:47:42Z</time>
      </trkpt>
      <trkpt lat="40.8260740" lon="-2.2115390">
        <ele>1189.0</ele>
        <time>2019-07-06T08:47:46Z</time>
      </trkpt>
      <trkpt lat="40.8260130" lon="-2.2114350">
        <ele>1189.4</ele>
        <time>2019-07-06T08:47:49Z</time>
      </trkpt>
      <trkpt lat="40.8259330" lon="-2.2112970">
        <ele>1190.2</ele>
        <time>2019-07-06T08:47:53Z</time>
      </trkpt>
      <trkpt lat="40.8258630" lon="-2.2111980">
        <ele>1190.4</ele>
        <time>2019-07-06T08:47:56Z</time>
      </trkpt>
      <trkpt lat="40.8257730" lon="-2.2110640">
        <ele>1191.0</ele>
        <time>2019-07-06T08:48:00Z</time>
      </trkpt>
      <trkpt lat="40.8257300" lon="-2.2109930">
        <ele>1191.6</ele>
        <time>2019-07-06T08:48:02Z</time>
      </trkpt>
      <trkpt lat="40.8256580" lon="-2.2108890">
        <ele>1192.2</ele>
        <time>2019-07-06T08:48:05Z</time>
      </trkpt>
      <trkpt lat="40.8255640" lon="-2.2107480">
        <ele>1192.8</ele>
        <time>2019-07-06T08:48:09Z</time>
      </trkpt>
      <trkpt lat="40.8255160" lon="-2.2106730">
        <ele>1193.0</ele>
        <time>2019-07-06T08:48:11Z</time>
      </trkpt>
      <trkpt lat="40.8254350" lon="-2.2105250">
        <ele>1194.2</ele>
        <time>2019-07-06T08:48:15Z</time>
      </trkpt>
      <trkpt lat="40.8254140" lon="-2.2104900">
        <ele>1194.4</ele>
        <time>2019-07-06T08:48:16Z</time>
      </trkpt>
      <trkpt lat="40.8253050" lon="-2.2102860">
        <ele>1195.0</ele>
        <time>2019-07-06T08:48:22Z</time>
      </trkpt>
      <trkpt lat="40.8252890" lon="-2.2102530">
        <ele>1195.2</ele>
        <time>2019-07-06T08:48:23Z</time>
      </trkpt>
      <trkpt lat="40.8252170" lon="-2.2101250">
        <ele>1196.2</ele>
        <time>2019-07-06T08:48:27Z</time>
      </trkpt>
      <trkpt lat="40.8251730" lon="-2.2100690">
        <ele>1196.6</ele>
        <time>2019-07-06T08:48:29Z</time>
      </trkpt>
      <trkpt lat="40.8250770" lon="-2.2099550">
        <ele>1197.4</ele>
        <time>2019-07-06T08:48:33Z</time>
      </trkpt>
      <trkpt lat="40.8250350" lon="-2.2098980">
        <ele>1197.8</ele>
        <time>2019-07-06T08:48:35Z</time>
      </trkpt>
      <trkpt lat="40.8249720" lon="-2.2098170">
        <ele>1198.2</ele>
        <time>2019-07-06T08:48:38Z</time>
      </trkpt>
      <trkpt lat="40.8249240" lon="-2.2097700">
        <ele>1198.6</ele>
        <time>2019-07-06T08:48:40Z</time>
      </trkpt>
      <trkpt lat="40.8248850" lon="-2.2097190">
        <ele>1199.2</ele>
        <time>2019-07-06T08:48:42Z</time>
      </trkpt>
      <trkpt lat="40.8247970" lon="-2.2095950">
        <ele>1200.8</ele>
        <time>2019-07-06T08:48:47Z</time>
      </trkpt>
      <trkpt lat="40.8247620" lon="-2.2095080">
        <ele>1201.8</ele>
        <time>2019-07-06T08:48:51Z</time>
      </trkpt>
      <trkpt lat="40.8247600" lon="-2.2094810">
        <ele>1202.0</ele>
        <time>2019-07-06T08:48:52Z</time>
      </trkpt>
      <trkpt lat="40.8247590" lon="-2.2093550">
        <ele>1202.6</ele>
        <time>2019-07-06T08:48:57Z</time>
      </trkpt>
      <trkpt lat="40.8247900" lon="-2.2092900">
        <ele>1202.8</ele>
        <time>2019-07-06T08:49:00Z</time>
      </trkpt>
      <trkpt lat="40.8248310" lon="-2.2092480">
        <ele>1203.2</ele>
        <time>2019-07-06T08:49:02Z</time>
      </trkpt>
      <trkpt lat="40.8250180" lon="-2.2091430">
        <ele>1203.6</ele>
        <time>2019-07-06T08:49:08Z</time>
      </trkpt>
      <trkpt lat="40.8251220" lon="-2.2090810">
        <ele>1203.4</ele>
        <time>2019-07-06T08:49:11Z</time>
      </trkpt>
      <trkpt lat="40.8252310" lon="-2.2090070">
        <ele>1203.2</ele>
        <time>2019-07-06T08:49:14Z</time>
      </trkpt>
      <trkpt lat="40.8252670" lon="-2.2089790">
        <ele>1203.0</ele>
        <time>2019-07-06T08:49:15Z</time>
      </trkpt>
      <trkpt lat="40.8253480" lon="-2.2089230">
        <ele>1202.8</ele>
        <time>2019-07-06T08:49:17Z</time>
      </trkpt>
      <trkpt lat="40.8254390" lon="-2.2088670">
        <ele>1202.6</ele>
        <time>2019-07-06T08:49:19Z</time>
      </trkpt>
      <trkpt lat="40.8255380" lon="-2.2088100">
        <ele>1202.4</ele>
        <time>2019-07-06T08:49:21Z</time>
      </trkpt>
      <trkpt lat="40.8257530" lon="-2.2086610">
        <ele>1201.8</ele>
        <time>2019-07-06T08:49:25Z</time>
      </trkpt>
      <trkpt lat="40.8258140" lon="-2.2086240">
        <ele>1201.4</ele>
        <time>2019-07-06T08:49:26Z</time>
      </trkpt>
      <trkpt lat="40.8260120" lon="-2.2085150">
        <ele>1200.8</ele>
        <time>2019-07-06T08:49:29Z</time>
      </trkpt>
      <trkpt lat="40.8260860" lon="-2.2084990">
        <ele>1200.6</ele>
        <time>2019-07-06T08:49:30Z</time>
      </trkpt>
      <trkpt lat="40.8261640" lon="-2.2084970">
        <ele>1200.2</ele>
        <time>2019-07-06T08:49:31Z</time>
      </trkpt>
      <trkpt lat="40.8263290" lon="-2.2085240">
        <ele>1199.4</ele>
        <time>2019-07-06T08:49:33Z</time>
      </trkpt>
      <trkpt lat="40.8265000" lon="-2.2085620">
        <ele>1198.6</ele>
        <time>2019-07-06T08:49:35Z</time>
      </trkpt>
      <trkpt lat="40.8265850" lon="-2.2085660">
        <ele>1198.2</ele>
        <time>2019-07-06T08:49:36Z</time>
      </trkpt>
      <trkpt lat="40.8267460" lon="-2.2084880">
        <ele>1197.2</ele>
        <time>2019-07-06T08:49:38Z</time>
      </trkpt>
      <trkpt lat="40.8267990" lon="-2.2084020">
        <ele>1197.0</ele>
        <time>2019-07-06T08:49:39Z</time>
      </trkpt>
      <trkpt lat="40.8268260" lon="-2.2082960">
        <ele>1196.4</ele>
        <time>2019-07-06T08:49:40Z</time>
      </trkpt>
      <trkpt lat="40.8268360" lon="-2.2081830">
        <ele>1195.8</ele>
        <time>2019-07-06T08:49:41Z</time>
      </trkpt>
      <trkpt lat="40.8268420" lon="-2.2080690">
        <ele>1195.4</ele>
        <time>2019-07-06T08:49:42Z</time>
      </trkpt>
      <trkpt lat="40.8268610" lon="-2.2078360">
        <ele>1194.4</ele>
        <time>2019-07-06T08:49:44Z</time>
      </trkpt>
      <trkpt lat="40.8269000" lon="-2.2074780">
        <ele>1193.2</ele>
        <time>2019-07-06T08:49:47Z</time>
      </trkpt>
      <trkpt lat="40.8269360" lon="-2.2072340">
        <ele>1192.2</ele>
        <time>2019-07-06T08:49:49Z</time>
      </trkpt>
      <trkpt lat="40.8269750" lon="-2.2071210">
        <ele>1191.4</ele>
        <time>2019-07-06T08:49:50Z</time>
      </trkpt>
      <trkpt lat="40.8271930" lon="-2.2068660">
        <ele>1189.8</ele>
        <time>2019-07-06T08:49:53Z</time>
      </trkpt>
      <trkpt lat="40.8273810" lon="-2.2067550">
        <ele>1189.2</ele>
        <time>2019-07-06T08:49:55Z</time>
      </trkpt>
      <trkpt lat="40.8274820" lon="-2.2067080">
        <ele>1188.8</ele>
        <time>2019-07-06T08:49:56Z</time>
      </trkpt>
      <trkpt lat="40.8275860" lon="-2.2066640">
        <ele>1188.4</ele>
        <time>2019-07-06T08:49:57Z</time>
      </trkpt>
      <trkpt lat="40.8278030" lon="-2.2065720">
        <ele>1187.6</ele>
        <time>2019-07-06T08:49:59Z</time>
      </trkpt>
      <trkpt lat="40.8280240" lon="-2.2064680">
        <ele>1186.0</ele>
        <time>2019-07-06T08:50:01Z</time>
      </trkpt>
      <trkpt lat="40.8281270" lon="-2.2064060">
        <ele>1185.2</ele>
        <time>2019-07-06T08:50:02Z</time>
      </trkpt>
      <trkpt lat="40.8282260" lon="-2.2063370">
        <ele>1184.4</ele>
        <time>2019-07-06T08:50:03Z</time>
      </trkpt>
      <trkpt lat="40.8284170" lon="-2.2061860">
        <ele>1183.2</ele>
        <time>2019-07-06T08:50:05Z</time>
      </trkpt>
      <trkpt lat="40.8285150" lon="-2.2061190">
        <ele>1182.6</ele>
        <time>2019-07-06T08:50:06Z</time>
      </trkpt>
      <trkpt lat="40.8286170" lon="-2.2060660">
        <ele>1182.2</ele>
        <time>2019-07-06T08:50:07Z</time>
      </trkpt>
      <trkpt lat="40.8288170" lon="-2.2060000">
        <ele>1181.0</ele>
        <time>2019-07-06T08:50:09Z</time>
      </trkpt>
      <trkpt lat="40.8289200" lon="-2.2059930">
        <ele>1180.8</ele>
        <time>2019-07-06T08:50:10Z</time>
      </trkpt>
      <trkpt lat="40.8290250" lon="-2.2060050">
        <ele>1180.0</ele>
        <time>2019-07-06T08:50:11Z</time>
      </trkpt>
      <trkpt lat="40.8292380" lon="-2.2060700">
        <ele>1179.0</ele>
        <time>2019-07-06T08:50:13Z</time>
      </trkpt>
      <trkpt lat="40.8293490" lon="-2.2061140">
        <ele>1178.2</ele>
        <time>2019-07-06T08:50:14Z</time>
      </trkpt>
      <trkpt lat="40.8295790" lon="-2.2061950">
        <ele>1176.8</ele>
        <time>2019-07-06T08:50:16Z</time>
      </trkpt>
      <trkpt lat="40.8296980" lon="-2.2062210">
        <ele>1175.8</ele>
        <time>2019-07-06T08:50:17Z</time>
      </trkpt>
      <trkpt lat="40.8298180" lon="-2.2062290">
        <ele>1175.0</ele>
        <time>2019-07-06T08:50:18Z</time>
      </trkpt>
      <trkpt lat="40.8299360" lon="-2.2062150">
        <ele>1174.4</ele>
        <time>2019-07-06T08:50:19Z</time>
      </trkpt>
      <trkpt lat="40.8301510" lon="-2.2061320">
        <ele>1173.2</ele>
        <time>2019-07-06T08:50:21Z</time>
      </trkpt>
      <trkpt lat="40.8302550" lon="-2.2060900">
        <ele>1172.8</ele>
        <time>2019-07-06T08:50:22Z</time>
      </trkpt>
      <trkpt lat="40.8304700" lon="-2.2060680">
        <ele>1172.0</ele>
        <time>2019-07-06T08:50:24Z</time>
      </trkpt>
      <trkpt lat="40.8307980" lon="-2.2061040">
        <ele>1170.8</ele>
        <time>2019-07-06T08:50:27Z</time>
      </trkpt>
      <trkpt lat="40.8310190" lon="-2.2061270">
        <ele>1169.8</ele>
        <time>2019-07-06T08:50:29Z</time>
      </trkpt>
      <trkpt lat="40.8312410" lon="-2.2061570">
        <ele>1168.8</ele>
        <time>2019-07-06T08:50:31Z</time>
      </trkpt>
      <trkpt lat="40.8314630" lon="-2.2061960">
        <ele>1167.4</ele>
        <time>2019-07-06T08:50:33Z</time>
      </trkpt>
      <trkpt lat="40.8316830" lon="-2.2062760">
        <ele>1166.4</ele>
        <time>2019-07-06T08:50:35Z</time>
      </trkpt>
      <trkpt lat="40.8320090" lon="-2.2063780">
        <ele>1165.0</ele>
        <time>2019-07-06T08:50:38Z</time>
      </trkpt>
      <trkpt lat="40.8321130" lon="-2.2063710">
        <ele>1164.6</ele>
        <time>2019-07-06T08:50:39Z</time>
      </trkpt>
      <trkpt lat="40.8322170" lon="-2.2063440">
        <ele>1163.8</ele>
        <time>2019-07-06T08:50:40Z</time>
      </trkpt>
      <trkpt lat="40.8323210" lon="-2.2063120">
        <ele>1162.6</ele>
        <time>2019-07-06T08:50:41Z</time>
      </trkpt>
      <trkpt lat="40.8325340" lon="-2.2062630">
        <ele>1161.2</ele>
        <time>2019-07-06T08:50:43Z</time>
      </trkpt>
      <trkpt lat="40.8328540" lon="-2.2062220">
        <ele>1160.2</ele>
        <time>2019-07-06T08:50:46Z</time>
      </trkpt>
      <trkpt lat="40.8331590" lon="-2.2061960">
        <ele>1159.4</ele>
        <time>2019-07-06T08:50:49Z</time>
      </trkpt>
      <trkpt lat="40.8332460" lon="-2.2061690">
        <ele>1159.0</ele>
        <time>2019-07-06T08:50:50Z</time>
      </trkpt>
      <trkpt lat="40.8333960" lon="-2.2060510">
        <ele>1158.2</ele>
        <time>2019-07-06T08:50:52Z</time>
      </trkpt>
      <trkpt lat="40.8334500" lon="-2.2059650">
        <ele>1157.8</ele>
        <time>2019-07-06T08:50:53Z</time>
      </trkpt>
      <trkpt lat="40.8334840" lon="-2.2058620">
        <ele>1157.2</ele>
        <time>2019-07-06T08:50:54Z</time>
      </trkpt>
      <trkpt lat="40.8334950" lon="-2.2057470">
        <ele>1156.4</ele>
        <time>2019-07-06T08:50:55Z</time>
      </trkpt>
      <trkpt lat="40.8334720" lon="-2.2055020">
        <ele>1154.8</ele>
        <time>2019-07-06T08:50:57Z</time>
      </trkpt>
      <trkpt lat="40.8334390" lon="-2.2053780">
        <ele>1154.2</ele>
        <time>2019-07-06T08:50:58Z</time>
      </trkpt>
      <trkpt lat="40.8333920" lon="-2.2052600">
        <ele>1153.4</ele>
        <time>2019-07-06T08:50:59Z</time>
      </trkpt>
      <trkpt lat="40.8332550" lon="-2.2050660">
        <ele>1152.2</ele>
        <time>2019-07-06T08:51:01Z</time>
      </trkpt>
      <trkpt lat="40.8330890" lon="-2.2049080">
        <ele>1151.2</ele>
        <time>2019-07-06T08:51:03Z</time>
      </trkpt>
      <trkpt lat="40.8330110" lon="-2.2048370">
        <ele>1150.8</ele>
        <time>2019-07-06T08:51:04Z</time>
      </trkpt>
      <trkpt lat="40.8328750" lon="-2.2047050">
        <ele>1150.2</ele>
        <time>2019-07-06T08:51:06Z</time>
      </trkpt>
      <trkpt lat="40.8328200" lon="-2.2046320">
        <ele>1149.6</ele>
        <time>2019-07-06T08:51:07Z</time>
      </trkpt>
      <trkpt lat="40.8327720" lon="-2.2044330">
        <ele>1148.6</ele>
        <time>2019-07-06T08:51:09Z</time>
      </trkpt>
      <trkpt lat="40.8327830" lon="-2.2043150">
        <ele>1148.4</ele>
        <time>2019-07-06T08:51:10Z</time>
      </trkpt>
      <trkpt lat="40.8328570" lon="-2.2040900">
        <ele>1147.2</ele>
        <time>2019-07-06T08:51:12Z</time>
      </trkpt>
      <trkpt lat="40.8329120" lon="-2.2039920">
        <ele>1146.6</ele>
        <time>2019-07-06T08:51:13Z</time>
      </trkpt>
      <trkpt lat="40.8330420" lon="-2.2038550">
        <ele>1145.6</ele>
        <time>2019-07-06T08:51:15Z</time>
      </trkpt>
      <trkpt lat="40.8332090" lon="-2.2038350">
        <ele>1144.4</ele>
        <time>2019-07-06T08:51:17Z</time>
      </trkpt>
      <trkpt lat="40.8333880" lon="-2.2038910">
        <ele>1143.2</ele>
        <time>2019-07-06T08:51:19Z</time>
      </trkpt>
      <trkpt lat="40.8335730" lon="-2.2039500">
        <ele>1142.2</ele>
        <time>2019-07-06T08:51:21Z</time>
      </trkpt>
      <trkpt lat="40.8338540" lon="-2.2040450">
        <ele>1140.8</ele>
        <time>2019-07-06T08:51:24Z</time>
      </trkpt>
      <trkpt lat="40.8339380" lon="-2.2040570">
        <ele>1140.2</ele>
        <time>2019-07-06T08:51:25Z</time>
      </trkpt>
      <trkpt lat="40.8340100" lon="-2.2040160">
        <ele>1139.6</ele>
        <time>2019-07-06T08:51:26Z</time>
      </trkpt>
      <trkpt lat="40.8340630" lon="-2.2039390">
        <ele>1139.0</ele>
        <time>2019-07-06T08:51:27Z</time>
      </trkpt>
      <trkpt lat="40.8340880" lon="-2.2038400">
        <ele>1138.2</ele>
        <time>2019-07-06T08:51:28Z</time>
      </trkpt>
      <trkpt lat="40.8340820" lon="-2.2037290">
        <ele>1136.8</ele>
        <time>2019-07-06T08:51:29Z</time>
      </trkpt>
      <trkpt lat="40.8340140" lon="-2.2035080">
        <ele>1135.4</ele>
        <time>2019-07-06T08:51:31Z</time>
      </trkpt>
      <trkpt lat="40.8339550" lon="-2.2034130">
        <ele>1135.0</ele>
        <time>2019-07-06T08:51:32Z</time>
      </trkpt>
      <trkpt lat="40.8337970" lon="-2.2032710">
        <ele>1134.4</ele>
        <time>2019-07-06T08:51:34Z</time>
      </trkpt>
      <trkpt lat="40.8337040" lon="-2.2032060">
        <ele>1134.0</ele>
        <time>2019-07-06T08:51:35Z</time>
      </trkpt>
      <trkpt lat="40.8335190" lon="-2.2030470">
        <ele>1132.8</ele>
        <time>2019-07-06T08:51:37Z</time>
      </trkpt>
      <trkpt lat="40.8333590" lon="-2.2028410">
        <ele>1131.4</ele>
        <time>2019-07-06T08:51:39Z</time>
      </trkpt>
      <trkpt lat="40.8331990" lon="-2.2026430">
        <ele>1130.2</ele>
        <time>2019-07-06T08:51:41Z</time>
      </trkpt>
      <trkpt lat="40.8331170" lon="-2.2025640">
        <ele>1129.8</ele>
        <time>2019-07-06T08:51:42Z</time>
      </trkpt>
      <trkpt lat="40.8330340" lon="-2.2025000">
        <ele>1129.4</ele>
        <time>2019-07-06T08:51:43Z</time>
      </trkpt>
      <trkpt lat="40.8329510" lon="-2.2024440">
        <ele>1128.8</ele>
        <time>2019-07-06T08:51:44Z</time>
      </trkpt>
      <trkpt lat="40.8327980" lon="-2.2023490">
        <ele>1127.8</ele>
        <time>2019-07-06T08:51:46Z</time>
      </trkpt>
      <trkpt lat="40.8327340" lon="-2.2022940">
        <ele>1127.4</ele>
        <time>2019-07-06T08:51:47Z</time>
      </trkpt>
      <trkpt lat="40.8326570" lon="-2.2021180">
        <ele>1126.0</ele>
        <time>2019-07-06T08:51:49Z</time>
      </trkpt>
      <trkpt lat="40.8326940" lon="-2.2018920">
        <ele>1124.4</ele>
        <time>2019-07-06T08:51:51Z</time>
      </trkpt>
      <trkpt lat="40.8328170" lon="-2.2017000">
        <ele>1123.0</ele>
        <time>2019-07-06T08:51:53Z</time>
      </trkpt>
      <trkpt lat="40.8328820" lon="-2.2016100">
        <ele>1122.6</ele>
        <time>2019-07-06T08:51:54Z</time>
      </trkpt>
      <trkpt lat="40.8329440" lon="-2.2015200">
        <ele>1122.2</ele>
        <time>2019-07-06T08:51:55Z</time>
      </trkpt>
      <trkpt lat="40.8330020" lon="-2.2014260">
        <ele>1121.6</ele>
        <time>2019-07-06T08:51:56Z</time>
      </trkpt>
      <trkpt lat="40.8330910" lon="-2.2012240">
        <ele>1121.2</ele>
        <time>2019-07-06T08:51:58Z</time>
      </trkpt>
      <trkpt lat="40.8331170" lon="-2.2011200">
        <ele>1121.2</ele>
        <time>2019-07-06T08:51:59Z</time>
      </trkpt>
      <trkpt lat="40.8330960" lon="-2.2008420">
        <ele>1121.4</ele>
        <time>2019-07-06T08:52:02Z</time>
      </trkpt>
      <trkpt lat="40.8330580" lon="-2.2006110">
        <ele>1122.4</ele>
        <time>2019-07-06T08:52:05Z</time>
      </trkpt>
      <trkpt lat="40.8330420" lon="-2.2004720">
        <ele>1122.8</ele>
        <time>2019-07-06T08:52:07Z</time>
      </trkpt>
      <trkpt lat="40.8330440" lon="-2.2004060">
        <ele>1123.0</ele>
        <time>2019-07-06T08:52:08Z</time>
      </trkpt>
      <trkpt lat="40.8330540" lon="-2.2002780">
        <ele>1123.4</ele>
        <time>2019-07-06T08:52:10Z</time>
      </trkpt>
      <trkpt lat="40.8330780" lon="-2.2000860">
        <ele>1123.8</ele>
        <time>2019-07-06T08:52:13Z</time>
      </trkpt>
      <trkpt lat="40.8331140" lon="-2.1999020">
        <ele>1124.6</ele>
        <time>2019-07-06T08:52:16Z</time>
      </trkpt>
      <trkpt lat="40.8331300" lon="-2.1998420">
        <ele>1125.0</ele>
        <time>2019-07-06T08:52:17Z</time>
      </trkpt>
      <trkpt lat="40.8331590" lon="-2.1997200">
        <ele>1125.4</ele>
        <time>2019-07-06T08:52:19Z</time>
      </trkpt>
      <trkpt lat="40.8331990" lon="-2.1995320">
        <ele>1126.0</ele>
        <time>2019-07-06T08:52:22Z</time>
      </trkpt>
      <trkpt lat="40.8332140" lon="-2.1994710">
        <ele>1126.2</ele>
        <time>2019-07-06T08:52:23Z</time>
      </trkpt>
      <trkpt lat="40.8332300" lon="-2.1994120">
        <ele>1126.2</ele>
        <time>2019-07-06T08:52:24Z</time>
      </trkpt>
      <trkpt lat="40.8332740" lon="-2.1992430">
        <ele>1126.8</ele>
        <time>2019-07-06T08:52:27Z</time>
      </trkpt>
      <trkpt lat="40.8332830" lon="-2.1991870">
        <ele>1127.0</ele>
        <time>2019-07-06T08:52:28Z</time>
      </trkpt>
      <trkpt lat="40.8332930" lon="-2.1991310">
        <ele>1127.4</ele>
        <time>2019-07-06T08:52:29Z</time>
      </trkpt>
      <trkpt lat="40.8333210" lon="-2.1990260">
        <ele>1127.8</ele>
        <time>2019-07-06T08:52:31Z</time>
      </trkpt>
      <trkpt lat="40.8333610" lon="-2.1989270">
        <ele>1128.2</ele>
        <time>2019-07-06T08:52:33Z</time>
      </trkpt>
      <trkpt lat="40.8333860" lon="-2.1988810">
        <ele>1128.4</ele>
        <time>2019-07-06T08:52:34Z</time>
      </trkpt>
      <trkpt lat="40.8334490" lon="-2.1988010">
        <ele>1129.0</ele>
        <time>2019-07-06T08:52:36Z</time>
      </trkpt>
      <trkpt lat="40.8335630" lon="-2.1987200">
        <ele>1129.6</ele>
        <time>2019-07-06T08:52:39Z</time>
      </trkpt>
      <trkpt lat="40.8336460" lon="-2.1986930">
        <ele>1130.0</ele>
        <time>2019-07-06T08:52:41Z</time>
      </trkpt>
      <trkpt lat="40.8336870" lon="-2.1986840">
        <ele>1130.0</ele>
        <time>2019-07-06T08:52:42Z</time>
      </trkpt>
      <trkpt lat="40.8337280" lon="-2.1986790">
        <ele>1130.2</ele>
        <time>2019-07-06T08:52:43Z</time>
      </trkpt>
      <trkpt lat="40.8338550" lon="-2.1986850">
        <ele>1130.8</ele>
        <time>2019-07-06T08:52:46Z</time>
      </trkpt>
      <trkpt lat="40.8338970" lon="-2.1986930">
        <ele>1131.0</ele>
        <time>2019-07-06T08:52:47Z</time>
      </trkpt>
      <trkpt lat="40.8340680" lon="-2.1987560">
        <ele>1131.8</ele>
        <time>2019-07-06T08:52:51Z</time>
      </trkpt>
      <trkpt lat="40.8341970" lon="-2.1988190">
        <ele>1132.6</ele>
        <time>2019-07-06T08:52:54Z</time>
      </trkpt>
      <trkpt lat="40.8343130" lon="-2.1988920">
        <ele>1133.2</ele>
        <time>2019-07-06T08:52:57Z</time>
      </trkpt>
      <trkpt lat="40.8344580" lon="-2.1989840">
        <ele>1134.2</ele>
        <time>2019-07-06T08:53:01Z</time>
      </trkpt>
      <trkpt lat="40.8346320" lon="-2.1991160">
        <ele>1135.2</ele>
        <time>2019-07-06T08:53:06Z</time>
      </trkpt>
      <trkpt lat="40.8347010" lon="-2.1991670">
        <ele>1135.8</ele>
        <time>2019-07-06T08:53:08Z</time>
      </trkpt>
      <trkpt lat="40.8347340" lon="-2.1991980">
        <ele>1136.0</ele>
        <time>2019-07-06T08:53:09Z</time>
      </trkpt>
      <trkpt lat="40.8347970" lon="-2.1992680">
        <ele>1136.4</ele>
        <time>2019-07-06T08:53:11Z</time>
      </trkpt>
      <trkpt lat="40.8348940" lon="-2.1993850">
        <ele>1136.6</ele>
        <time>2019-07-06T08:53:14Z</time>
      </trkpt>
      <trkpt lat="40.8351080" lon="-2.1996840">
        <ele>1136.4</ele>
        <time>2019-07-06T08:53:20Z</time>
      </trkpt>
      <trkpt lat="40.8353110" lon="-2.1999850">
        <ele>1135.6</ele>
        <time>2019-07-06T08:53:25Z</time>
      </trkpt>
      <trkpt lat="40.8354010" lon="-2.2001250">
        <ele>1135.0</ele>
        <time>2019-07-06T08:53:27Z</time>
      </trkpt>
      <trkpt lat="40.8355080" lon="-2.2002600">
        <ele>1134.6</ele>
        <time>2019-07-06T08:53:29Z</time>
      </trkpt>
      <trkpt lat="40.8355760" lon="-2.2003090">
        <ele>1134.4</ele>
        <time>2019-07-06T08:53:30Z</time>
      </trkpt>
      <trkpt lat="40.8357320" lon="-2.2003370">
        <ele>1133.8</ele>
        <time>2019-07-06T08:53:32Z</time>
      </trkpt>
      <trkpt lat="40.8358020" lon="-2.2003040">
        <ele>1133.2</ele>
        <time>2019-07-06T08:53:33Z</time>
      </trkpt>
      <trkpt lat="40.8359110" lon="-2.2001640">
        <ele>1132.4</ele>
        <time>2019-07-06T08:53:35Z</time>
      </trkpt>
      <trkpt lat="40.8359440" lon="-2.2000750">
        <ele>1132.2</ele>
        <time>2019-07-06T08:53:36Z</time>
      </trkpt>
      <trkpt lat="40.8359710" lon="-2.1998840">
        <ele>1132.0</ele>
        <time>2019-07-06T08:53:38Z</time>
      </trkpt>
      <trkpt lat="40.8359640" lon="-2.1997920">
        <ele>1132.0</ele>
        <time>2019-07-06T08:53:39Z</time>
      </trkpt>
      <trkpt lat="40.8359240" lon="-2.1996360">
        <ele>1132.2</ele>
        <time>2019-07-06T08:53:41Z</time>
      </trkpt>
      <trkpt lat="40.8358790" lon="-2.1994980">
        <ele>1132.6</ele>
        <time>2019-07-06T08:53:43Z</time>
      </trkpt>
      <trkpt lat="40.8358340" lon="-2.1993690">
        <ele>1133.2</ele>
        <time>2019-07-06T08:53:45Z</time>
      </trkpt>
      <trkpt lat="40.8358110" lon="-2.1993070">
        <ele>1133.4</ele>
        <time>2019-07-06T08:53:46Z</time>
      </trkpt>
      <trkpt lat="40.8357210" lon="-2.1990680">
        <ele>1134.4</ele>
        <time>2019-07-06T08:53:50Z</time>
      </trkpt>
      <trkpt lat="40.8356990" lon="-2.1990120">
        <ele>1134.6</ele>
        <time>2019-07-06T08:53:51Z</time>
      </trkpt>
      <trkpt lat="40.8356810" lon="-2.1989550">
        <ele>1134.8</ele>
        <time>2019-07-06T08:53:52Z</time>
      </trkpt>
      <trkpt lat="40.8356400" lon="-2.1987840">
        <ele>1135.2</ele>
        <time>2019-07-06T08:53:55Z</time>
      </trkpt>
      <trkpt lat="40.8356310" lon="-2.1987270">
        <ele>1135.4</ele>
        <time>2019-07-06T08:53:56Z</time>
      </trkpt>
      <trkpt lat="40.8356250" lon="-2.1986680">
        <ele>1135.6</ele>
        <time>2019-07-06T08:53:57Z</time>
      </trkpt>
      <trkpt lat="40.8356350" lon="-2.1985000">
        <ele>1136.2</ele>
        <time>2019-07-06T08:54:00Z</time>
      </trkpt>
      <trkpt lat="40.8356430" lon="-2.1984430">
        <ele>1136.4</ele>
        <time>2019-07-06T08:54:01Z</time>
      </trkpt>
      <trkpt lat="40.8356540" lon="-2.1983890">
        <ele>1136.6</ele>
        <time>2019-07-06T08:54:02Z</time>
      </trkpt>
      <trkpt lat="40.8356910" lon="-2.1982290">
        <ele>1137.4</ele>
        <time>2019-07-06T08:54:05Z</time>
      </trkpt>
      <trkpt lat="40.8356970" lon="-2.1981740">
        <ele>1137.8</ele>
        <time>2019-07-06T08:54:06Z</time>
      </trkpt>
      <trkpt lat="40.8356970" lon="-2.1981170">
        <ele>1138.0</ele>
        <time>2019-07-06T08:54:07Z</time>
      </trkpt>
      <trkpt lat="40.8356200" lon="-2.1979140">
        <ele>1138.6</ele>
        <time>2019-07-06T08:54:11Z</time>
      </trkpt>
      <trkpt lat="40.8355850" lon="-2.1978790">
        <ele>1138.8</ele>
        <time>2019-07-06T08:54:12Z</time>
      </trkpt>
      <trkpt lat="40.8354710" lon="-2.1978060">
        <ele>1139.4</ele>
        <time>2019-07-06T08:54:15Z</time>
      </trkpt>
      <trkpt lat="40.8353970" lon="-2.1977700">
        <ele>1140.0</ele>
        <time>2019-07-06T08:54:17Z</time>
      </trkpt>
      <trkpt lat="40.8352590" lon="-2.1977070">
        <ele>1141.0</ele>
        <time>2019-07-06T08:54:21Z</time>
      </trkpt>
      <trkpt lat="40.8351480" lon="-2.1976090">
        <ele>1142.0</ele>
        <time>2019-07-06T08:54:25Z</time>
      </trkpt>
      <trkpt lat="40.8351250" lon="-2.1975800">
        <ele>1142.2</ele>
        <time>2019-07-06T08:54:26Z</time>
      </trkpt>
      <trkpt lat="40.8350040" lon="-2.1974010">
        <ele>1142.8</ele>
        <time>2019-07-06T08:54:32Z</time>
      </trkpt>
      <trkpt lat="40.8349750" lon="-2.1973220">
        <ele>1143.2</ele>
        <time>2019-07-06T08:54:34Z</time>
      </trkpt>
      <trkpt lat="40.8349120" lon="-2.1971670">
        <ele>1144.2</ele>
        <time>2019-07-06T08:54:38Z</time>
      </trkpt>
      <trkpt lat="40.8349000" lon="-2.1971250">
        <ele>1144.2</ele>
        <time>2019-07-06T08:54:39Z</time>
      </trkpt>
      <trkpt lat="40.8348790" lon="-2.1969980">
        <ele>1145.2</ele>
        <time>2019-07-06T08:54:42Z</time>
      </trkpt>
      <trkpt lat="40.8348500" lon="-2.1968260">
        <ele>1146.4</ele>
        <time>2019-07-06T08:54:46Z</time>
      </trkpt>
      <trkpt lat="40.8348410" lon="-2.1966460">
        <ele>1147.6</ele>
        <time>2019-07-06T08:54:50Z</time>
      </trkpt>
      <trkpt lat="40.8348560" lon="-2.1965070">
        <ele>1148.2</ele>
        <time>2019-07-06T08:54:53Z</time>
      </trkpt>
      <trkpt lat="40.8348700" lon="-2.1964130">
        <ele>1148.6</ele>
        <time>2019-07-06T08:54:55Z</time>
      </trkpt>
      <trkpt lat="40.8349410" lon="-2.1961360">
        <ele>1149.6</ele>
        <time>2019-07-06T08:55:01Z</time>
      </trkpt>
      <trkpt lat="40.8349590" lon="-2.1960900">
        <ele>1149.8</ele>
        <time>2019-07-06T08:55:02Z</time>
      </trkpt>
      <trkpt lat="40.8351110" lon="-2.1958100">
        <ele>1150.8</ele>
        <time>2019-07-06T08:55:09Z</time>
      </trkpt>
      <trkpt lat="40.8352410" lon="-2.1956410">
        <ele>1152.0</ele>
        <time>2019-07-06T08:55:14Z</time>
      </trkpt>
      <trkpt lat="40.8352870" lon="-2.1955750">
        <ele>1152.4</ele>
        <time>2019-07-06T08:55:16Z</time>
      </trkpt>
      <trkpt lat="40.8353740" lon="-2.1954710">
        <ele>1152.8</ele>
        <time>2019-07-06T08:55:19Z</time>
      </trkpt>
      <trkpt lat="40.8354020" lon="-2.1954400">
        <ele>1153.0</ele>
        <time>2019-07-06T08:55:20Z</time>
      </trkpt>
      <trkpt lat="40.8354820" lon="-2.1953410">
        <ele>1153.4</ele>
        <time>2019-07-06T08:55:23Z</time>
      </trkpt>
      <trkpt lat="40.8355830" lon="-2.1951990">
        <ele>1154.0</ele>
        <time>2019-07-06T08:55:27Z</time>
      </trkpt>
      <trkpt lat="40.8356520" lon="-2.1950850">
        <ele>1155.0</ele>
        <time>2019-07-06T08:55:30Z</time>
      </trkpt>
      <trkpt lat="40.8356770" lon="-2.1950470">
        <ele>1155.4</ele>
        <time>2019-07-06T08:55:31Z</time>
      </trkpt>
      <trkpt lat="40.8357650" lon="-2.1948190">
        <ele>1156.0</ele>
        <time>2019-07-06T08:55:36Z</time>
      </trkpt>
      <trkpt lat="40.8357870" lon="-2.1947160">
        <ele>1156.4</ele>
        <time>2019-07-06T08:55:38Z</time>
      </trkpt>
      <trkpt lat="40.8358830" lon="-2.1944460">
        <ele>1157.4</ele>
        <time>2019-07-06T08:55:44Z</time>
      </trkpt>
      <trkpt lat="40.8360240" lon="-2.1942070">
        <ele>1158.6</ele>
        <time>2019-07-06T08:55:50Z</time>
      </trkpt>
      <trkpt lat="40.8361650" lon="-2.1940370">
        <ele>1159.8</ele>
        <time>2019-07-06T08:55:55Z</time>
      </trkpt>
      <trkpt lat="40.8362830" lon="-2.1938150">
        <ele>1161.0</ele>
        <time>2019-07-06T08:56:00Z</time>
      </trkpt>
      <trkpt lat="40.8363210" lon="-2.1937100">
        <ele>1161.4</ele>
        <time>2019-07-06T08:56:02Z</time>
      </trkpt>
      <trkpt lat="40.8364050" lon="-2.1934450">
        <ele>1162.0</ele>
        <time>2019-07-06T08:56:07Z</time>
      </trkpt>
      <trkpt lat="40.8364520" lon="-2.1932830">
        <ele>1162.8</ele>
        <time>2019-07-06T08:56:10Z</time>
      </trkpt>
      <trkpt lat="40.8364700" lon="-2.1932300">
        <ele>1163.2</ele>
        <time>2019-07-06T08:56:11Z</time>
      </trkpt>
      <trkpt lat="40.8364860" lon="-2.1931760">
        <ele>1163.4</ele>
        <time>2019-07-06T08:56:12Z</time>
      </trkpt>
      <trkpt lat="40.8365100" lon="-2.1930690">
        <ele>1163.8</ele>
        <time>2019-07-06T08:56:14Z</time>
      </trkpt>
      <trkpt lat="40.8365290" lon="-2.1929580">
        <ele>1164.0</ele>
        <time>2019-07-06T08:56:16Z</time>
      </trkpt>
      <trkpt lat="40.8365380" lon="-2.1929000">
        <ele>1164.4</ele>
        <time>2019-07-06T08:56:17Z</time>
      </trkpt>
      <trkpt lat="40.8365610" lon="-2.1926580">
        <ele>1165.4</ele>
        <time>2019-07-06T08:56:21Z</time>
      </trkpt>
      <trkpt lat="40.8365690" lon="-2.1925380">
        <ele>1166.0</ele>
        <time>2019-07-06T08:56:23Z</time>
      </trkpt>
      <trkpt lat="40.8365940" lon="-2.1922870">
        <ele>1166.4</ele>
        <time>2019-07-06T08:56:27Z</time>
      </trkpt>
      <trkpt lat="40.8366010" lon="-2.1920590">
        <ele>1167.2</ele>
        <time>2019-07-06T08:56:31Z</time>
      </trkpt>
      <trkpt lat="40.8365940" lon="-2.1920050">
        <ele>1167.4</ele>
        <time>2019-07-06T08:56:32Z</time>
      </trkpt>
      <trkpt lat="40.8365810" lon="-2.1919510">
        <ele>1167.6</ele>
        <time>2019-07-06T08:56:33Z</time>
      </trkpt>
      <trkpt lat="40.8365440" lon="-2.1918540">
        <ele>1168.0</ele>
        <time>2019-07-06T08:56:35Z</time>
      </trkpt>
      <trkpt lat="40.8365220" lon="-2.1918100">
        <ele>1168.2</ele>
        <time>2019-07-06T08:56:36Z</time>
      </trkpt>
      <trkpt lat="40.8364730" lon="-2.1917250">
        <ele>1168.6</ele>
        <time>2019-07-06T08:56:38Z</time>
      </trkpt>
      <trkpt lat="40.8364000" lon="-2.1915950">
        <ele>1169.2</ele>
        <time>2019-07-06T08:56:41Z</time>
      </trkpt>
      <trkpt lat="40.8363120" lon="-2.1914030">
        <ele>1169.4</ele>
        <time>2019-07-06T08:56:45Z</time>
      </trkpt>
      <trkpt lat="40.8363020" lon="-2.1913480">
        <ele>1169.6</ele>
        <time>2019-07-06T08:56:46Z</time>
      </trkpt>
      <trkpt lat="40.8362960" lon="-2.1912910">
        <ele>1169.8</ele>
        <time>2019-07-06T08:56:47Z</time>
      </trkpt>
      <trkpt lat="40.8363070" lon="-2.1911110">
        <ele>1170.6</ele>
        <time>2019-07-06T08:56:50Z</time>
      </trkpt>
      <trkpt lat="40.8363120" lon="-2.1910500">
        <ele>1170.8</ele>
        <time>2019-07-06T08:56:51Z</time>
      </trkpt>
      <trkpt lat="40.8363200" lon="-2.1909270">
        <ele>1171.0</ele>
        <time>2019-07-06T08:56:53Z</time>
      </trkpt>
      <trkpt lat="40.8363720" lon="-2.1904860">
        <ele>1171.8</ele>
        <time>2019-07-06T08:57:00Z</time>
      </trkpt>
      <trkpt lat="40.8363800" lon="-2.1904170">
        <ele>1172.0</ele>
        <time>2019-07-06T08:57:01Z</time>
      </trkpt>
      <trkpt lat="40.8364240" lon="-2.1900160">
        <ele>1172.8</ele>
        <time>2019-07-06T08:57:07Z</time>
      </trkpt>
      <trkpt lat="40.8364280" lon="-2.1899550">
        <ele>1173.0</ele>
        <time>2019-07-06T08:57:08Z</time>
      </trkpt>
      <trkpt lat="40.8364290" lon="-2.1898390">
        <ele>1173.4</ele>
        <time>2019-07-06T08:57:10Z</time>
      </trkpt>
      <trkpt lat="40.8364060" lon="-2.1896830">
        <ele>1174.2</ele>
        <time>2019-07-06T08:57:13Z</time>
      </trkpt>
      <trkpt lat="40.8363330" lon="-2.1894400">
        <ele>1175.4</ele>
        <time>2019-07-06T08:57:18Z</time>
      </trkpt>
      <trkpt lat="40.8362990" lon="-2.1893500">
        <ele>1176.0</ele>
        <time>2019-07-06T08:57:20Z</time>
      </trkpt>
      <trkpt lat="40.8362790" lon="-2.1893070">
        <ele>1176.2</ele>
        <time>2019-07-06T08:57:21Z</time>
      </trkpt>
      <trkpt lat="40.8362570" lon="-2.1892660">
        <ele>1176.4</ele>
        <time>2019-07-06T08:57:22Z</time>
      </trkpt>
      <trkpt lat="40.8361820" lon="-2.1891490">
        <ele>1176.8</ele>
        <time>2019-07-06T08:57:25Z</time>
      </trkpt>
      <trkpt lat="40.8361520" lon="-2.1891130">
        <ele>1177.2</ele>
        <time>2019-07-06T08:57:26Z</time>
      </trkpt>
      <trkpt lat="40.8361210" lon="-2.1890790">
        <ele>1177.6</ele>
        <time>2019-07-06T08:57:27Z</time>
      </trkpt>
      <trkpt lat="40.8360020" lon="-2.1889400">
        <ele>1178.4</ele>
        <time>2019-07-06T08:57:31Z</time>
      </trkpt>
      <trkpt lat="40.8359390" lon="-2.1888640">
        <ele>1178.6</ele>
        <time>2019-07-06T08:57:33Z</time>
      </trkpt>
      <trkpt lat="40.8359050" lon="-2.1888270">
        <ele>1178.8</ele>
        <time>2019-07-06T08:57:34Z</time>
      </trkpt>
      <trkpt lat="40.8357800" lon="-2.1886790">
        <ele>1179.8</ele>
        <time>2019-07-06T08:57:38Z</time>
      </trkpt>
      <trkpt lat="40.8356820" lon="-2.1885660">
        <ele>1180.2</ele>
        <time>2019-07-06T08:57:41Z</time>
      </trkpt>
      <trkpt lat="40.8355900" lon="-2.1884570">
        <ele>1180.8</ele>
        <time>2019-07-06T08:57:44Z</time>
      </trkpt>
      <trkpt lat="40.8354790" lon="-2.1883130">
        <ele>1181.8</ele>
        <time>2019-07-06T08:57:48Z</time>
      </trkpt>
      <trkpt lat="40.8354460" lon="-2.1882790">
        <ele>1182.0</ele>
        <time>2019-07-06T08:57:49Z</time>
      </trkpt>
      <trkpt lat="40.8352800" lon="-2.1880860">
        <ele>1182.8</ele>
        <time>2019-07-06T08:57:54Z</time>
      </trkpt>
      <trkpt lat="40.8352190" lon="-2.1880020">
        <ele>1183.2</ele>
        <time>2019-07-06T08:57:56Z</time>
      </trkpt>
      <trkpt lat="40.8349710" lon="-2.1876930">
        <ele>1183.4</ele>
        <time>2019-07-06T08:58:03Z</time>
      </trkpt>
      <trkpt lat="40.8347550" lon="-2.1874160">
        <ele>1184.0</ele>
        <time>2019-07-06T08:58:09Z</time>
      </trkpt>
      <trkpt lat="40.8347200" lon="-2.1873700">
        <ele>1184.2</ele>
        <time>2019-07-06T08:58:10Z</time>
      </trkpt>
      <trkpt lat="40.8345180" lon="-2.1871140">
        <ele>1185.2</ele>
        <time>2019-07-06T08:58:16Z</time>
      </trkpt>
      <trkpt lat="40.8344200" lon="-2.1869950">
        <ele>1186.2</ele>
        <time>2019-07-06T08:58:19Z</time>
      </trkpt>
      <trkpt lat="40.8343880" lon="-2.1869520">
        <ele>1186.4</ele>
        <time>2019-07-06T08:58:20Z</time>
      </trkpt>
      <trkpt lat="40.8342320" lon="-2.1867520">
        <ele>1187.4</ele>
        <time>2019-07-06T08:58:25Z</time>
      </trkpt>
      <trkpt lat="40.8341060" lon="-2.1866010">
        <ele>1188.0</ele>
        <time>2019-07-06T08:58:29Z</time>
      </trkpt>
      <trkpt lat="40.8340760" lon="-2.1865600">
        <ele>1188.2</ele>
        <time>2019-07-06T08:58:30Z</time>
      </trkpt>
      <trkpt lat="40.8339840" lon="-2.1864370">
        <ele>1188.8</ele>
        <time>2019-07-06T08:58:33Z</time>
      </trkpt>
      <trkpt lat="40.8339220" lon="-2.1863610">
        <ele>1189.2</ele>
        <time>2019-07-06T08:58:35Z</time>
      </trkpt>
      <trkpt lat="40.8338320" lon="-2.1862480">
        <ele>1189.8</ele>
        <time>2019-07-06T08:58:38Z</time>
      </trkpt>
      <trkpt lat="40.8337370" lon="-2.1861340">
        <ele>1190.2</ele>
        <time>2019-07-06T08:58:41Z</time>
      </trkpt>
      <trkpt lat="40.8335840" lon="-2.1859310">
        <ele>1191.4</ele>
        <time>2019-07-06T08:58:46Z</time>
      </trkpt>
      <trkpt lat="40.8335490" lon="-2.1858960">
        <ele>1191.8</ele>
        <time>2019-07-06T08:58:47Z</time>
      </trkpt>
      <trkpt lat="40.8335160" lon="-2.1858610">
        <ele>1192.0</ele>
        <time>2019-07-06T08:58:48Z</time>
      </trkpt>
      <trkpt lat="40.8334530" lon="-2.1857840">
        <ele>1192.4</ele>
        <time>2019-07-06T08:58:50Z</time>
      </trkpt>
      <trkpt lat="40.8333270" lon="-2.1856370">
        <ele>1193.2</ele>
        <time>2019-07-06T08:58:54Z</time>
      </trkpt>
      <trkpt lat="40.8332600" lon="-2.1855660">
        <ele>1193.6</ele>
        <time>2019-07-06T08:58:56Z</time>
      </trkpt>
      <trkpt lat="40.8330760" lon="-2.1854210">
        <ele>1194.8</ele>
        <time>2019-07-06T08:59:01Z</time>
      </trkpt>
      <trkpt lat="40.8330360" lon="-2.1853980">
        <ele>1195.0</ele>
        <time>2019-07-06T08:59:02Z</time>
      </trkpt>
      <trkpt lat="40.8328750" lon="-2.1853130">
        <ele>1195.8</ele>
        <time>2019-07-06T08:59:06Z</time>
      </trkpt>
      <trkpt lat="40.8327600" lon="-2.1852360">
        <ele>1196.6</ele>
        <time>2019-07-06T08:59:09Z</time>
      </trkpt>
      <trkpt lat="40.8326840" lon="-2.1851900">
        <ele>1196.8</ele>
        <time>2019-07-06T08:59:11Z</time>
      </trkpt>
      <trkpt lat="40.8325080" lon="-2.1850810">
        <ele>1197.8</ele>
        <time>2019-07-06T08:59:16Z</time>
      </trkpt>
      <trkpt lat="40.8324370" lon="-2.1850400">
        <ele>1198.2</ele>
        <time>2019-07-06T08:59:18Z</time>
      </trkpt>
      <trkpt lat="40.8322270" lon="-2.1848980">
        <ele>1199.0</ele>
        <time>2019-07-06T08:59:24Z</time>
      </trkpt>
      <trkpt lat="40.8321520" lon="-2.1848600">
        <ele>1199.4</ele>
        <time>2019-07-06T08:59:26Z</time>
      </trkpt>
      <trkpt lat="40.8320400" lon="-2.1847930">
        <ele>1200.0</ele>
        <time>2019-07-06T08:59:29Z</time>
      </trkpt>
      <trkpt lat="40.8318900" lon="-2.1847010">
        <ele>1201.0</ele>
        <time>2019-07-06T08:59:33Z</time>
      </trkpt>
      <trkpt lat="40.8316800" lon="-2.1845680">
        <ele>1202.2</ele>
        <time>2019-07-06T08:59:39Z</time>
      </trkpt>
      <trkpt lat="40.8316450" lon="-2.1845520">
        <ele>1202.6</ele>
        <time>2019-07-06T08:59:40Z</time>
      </trkpt>
      <trkpt lat="40.8315770" lon="-2.1845240">
        <ele>1203.2</ele>
        <time>2019-07-06T08:59:42Z</time>
      </trkpt>
      <trkpt lat="40.8313340" lon="-2.1844590">
        <ele>1204.4</ele>
        <time>2019-07-06T08:59:49Z</time>
      </trkpt>
      <trkpt lat="40.8311400" lon="-2.1844330">
        <ele>1205.8</ele>
        <time>2019-07-06T08:59:54Z</time>
      </trkpt>
      <trkpt lat="40.8310610" lon="-2.1844250">
        <ele>1206.4</ele>
        <time>2019-07-06T08:59:56Z</time>
      </trkpt>
      <trkpt lat="40.8309820" lon="-2.1844230">
        <ele>1207.0</ele>
        <time>2019-07-06T08:59:58Z</time>
      </trkpt>
      <trkpt lat="40.8308250" lon="-2.1844110">
        <ele>1207.8</ele>
        <time>2019-07-06T09:00:02Z</time>
      </trkpt>
      <trkpt lat="40.8307840" lon="-2.1844060">
        <ele>1208.0</ele>
        <time>2019-07-06T09:00:03Z</time>
      </trkpt>
      <trkpt lat="40.8305000" lon="-2.1843850">
        <ele>1209.0</ele>
        <time>2019-07-06T09:00:10Z</time>
      </trkpt>
      <trkpt lat="40.8304590" lon="-2.1843840">
        <ele>1209.2</ele>
        <time>2019-07-06T09:00:11Z</time>
      </trkpt>
      <trkpt lat="40.8303330" lon="-2.1843720">
        <ele>1209.6</ele>
        <time>2019-07-06T09:00:14Z</time>
      </trkpt>
      <trkpt lat="40.8301890" lon="-2.1843560">
        <ele>1209.8</ele>
        <time>2019-07-06T09:00:17Z</time>
      </trkpt>
      <trkpt lat="40.8298450" lon="-2.1843510">
        <ele>1209.2</ele>
        <time>2019-07-06T09:00:23Z</time>
      </trkpt>
      <trkpt lat="40.8295240" lon="-2.1843370">
        <ele>1208.2</ele>
        <time>2019-07-06T09:00:28Z</time>
      </trkpt>
      <trkpt lat="40.8294570" lon="-2.1843320">
        <ele>1208.0</ele>
        <time>2019-07-06T09:00:29Z</time>
      </trkpt>
      <trkpt lat="40.8293180" lon="-2.1843260">
        <ele>1207.8</ele>
        <time>2019-07-06T09:00:31Z</time>
      </trkpt>
      <trkpt lat="40.8290990" lon="-2.1843400">
        <ele>1207.0</ele>
        <time>2019-07-06T09:00:34Z</time>
      </trkpt>
      <trkpt lat="40.8289530" lon="-2.1843710">
        <ele>1206.6</ele>
        <time>2019-07-06T09:00:36Z</time>
      </trkpt>
      <trkpt lat="40.8288780" lon="-2.1843910">
        <ele>1206.8</ele>
        <time>2019-07-06T09:00:37Z</time>
      </trkpt>
      <trkpt lat="40.8287270" lon="-2.1844400">
        <ele>1206.4</ele>
        <time>2019-07-06T09:00:39Z</time>
      </trkpt>
      <trkpt lat="40.8285760" lon="-2.1845030">
        <ele>1205.8</ele>
        <time>2019-07-06T09:00:41Z</time>
      </trkpt>
      <trkpt lat="40.8284990" lon="-2.1845330">
        <ele>1205.6</ele>
        <time>2019-07-06T09:00:42Z</time>
      </trkpt>
      <trkpt lat="40.8283450" lon="-2.1845910">
        <ele>1205.0</ele>
        <time>2019-07-06T09:00:44Z</time>
      </trkpt>
      <trkpt lat="40.8281960" lon="-2.1846530">
        <ele>1204.4</ele>
        <time>2019-07-06T09:00:46Z</time>
      </trkpt>
      <trkpt lat="40.8280500" lon="-2.1847120">
        <ele>1204.0</ele>
        <time>2019-07-06T09:00:48Z</time>
      </trkpt>
      <trkpt lat="40.8279790" lon="-2.1847410">
        <ele>1203.8</ele>
        <time>2019-07-06T09:00:49Z</time>
      </trkpt>
      <trkpt lat="40.8277670" lon="-2.1848230">
        <ele>1203.4</ele>
        <time>2019-07-06T09:00:52Z</time>
      </trkpt>
      <trkpt lat="40.8276950" lon="-2.1848490">
        <ele>1203.2</ele>
        <time>2019-07-06T09:00:53Z</time>
      </trkpt>
      <trkpt lat="40.8274750" lon="-2.1849380">
        <ele>1202.4</ele>
        <time>2019-07-06T09:00:56Z</time>
      </trkpt>
      <trkpt lat="40.8272430" lon="-2.1850310">
        <ele>1201.2</ele>
        <time>2019-07-06T09:00:59Z</time>
      </trkpt>
      <trkpt lat="40.8270820" lon="-2.1850950">
        <ele>1200.6</ele>
        <time>2019-07-06T09:01:01Z</time>
      </trkpt>
      <trkpt lat="40.8269200" lon="-2.1851600">
        <ele>1200.2</ele>
        <time>2019-07-06T09:01:03Z</time>
      </trkpt>
      <trkpt lat="40.8266740" lon="-2.1852520">
        <ele>1199.0</ele>
        <time>2019-07-06T09:01:06Z</time>
      </trkpt>
      <trkpt lat="40.8264200" lon="-2.1853130">
        <ele>1198.2</ele>
        <time>2019-07-06T09:01:09Z</time>
      </trkpt>
      <trkpt lat="40.8263350" lon="-2.1853090">
        <ele>1197.8</ele>
        <time>2019-07-06T09:01:10Z</time>
      </trkpt>
      <trkpt lat="40.8260860" lon="-2.1852290">
        <ele>1196.8</ele>
        <time>2019-07-06T09:01:13Z</time>
      </trkpt>
      <trkpt lat="40.8259310" lon="-2.1851420">
        <ele>1196.0</ele>
        <time>2019-07-06T09:01:15Z</time>
      </trkpt>
      <trkpt lat="40.8257120" lon="-2.1849940">
        <ele>1195.8</ele>
        <time>2019-07-06T09:01:18Z</time>
      </trkpt>
      <trkpt lat="40.8251770" lon="-2.1846420">
        <ele>1195.8</ele>
        <time>2019-07-06T09:01:26Z</time>
      </trkpt>
      <trkpt lat="40.8249410" lon="-2.1844810">
        <ele>1195.4</ele>
        <time>2019-07-06T09:01:30Z</time>
      </trkpt>
      <trkpt lat="40.8247530" lon="-2.1843500">
        <ele>1195.2</ele>
        <time>2019-07-06T09:01:33Z</time>
      </trkpt>
      <trkpt lat="40.8246150" lon="-2.1842590">
        <ele>1194.6</ele>
        <time>2019-07-06T09:01:35Z</time>
      </trkpt>
      <trkpt lat="40.8244040" lon="-2.1841190">
        <ele>1193.6</ele>
        <time>2019-07-06T09:01:38Z</time>
      </trkpt>
      <trkpt lat="40.8243350" lon="-2.1840740">
        <ele>1192.4</ele>
        <time>2019-07-06T09:01:39Z</time>
      </trkpt>
      <trkpt lat="40.8241600" lon="-2.1839600">
        <ele>1191.2</ele>
        <time>2019-07-06T09:01:42Z</time>
      </trkpt>
      <trkpt lat="40.8240030" lon="-2.1838750">
        <ele>1189.8</ele>
        <time>2019-07-06T09:01:45Z</time>
      </trkpt>
      <trkpt lat="40.8239210" lon="-2.1837960">
        <ele>1189.2</ele>
        <time>2019-07-06T09:01:47Z</time>
      </trkpt>
      <trkpt lat="40.8238870" lon="-2.1837430">
        <ele>1188.6</ele>
        <time>2019-07-06T09:01:48Z</time>
      </trkpt>
      <trkpt lat="40.8238530" lon="-2.1836060">
        <ele>1187.4</ele>
        <time>2019-07-06T09:01:50Z</time>
      </trkpt>
      <trkpt lat="40.8239360" lon="-2.1833990">
        <ele>1186.2</ele>
        <time>2019-07-06T09:01:53Z</time>
      </trkpt>
      <trkpt lat="40.8240380" lon="-2.1832830">
        <ele>1185.2</ele>
        <time>2019-07-06T09:01:55Z</time>
      </trkpt>
      <trkpt lat="40.8240900" lon="-2.1832270">
        <ele>1184.8</ele>
        <time>2019-07-06T09:01:56Z</time>
      </trkpt>
      <trkpt lat="40.8241420" lon="-2.1831650">
        <ele>1184.4</ele>
        <time>2019-07-06T09:01:57Z</time>
      </trkpt>
      <trkpt lat="40.8241930" lon="-2.1830970">
        <ele>1184.2</ele>
        <time>2019-07-06T09:01:58Z</time>
      </trkpt>
      <trkpt lat="40.8242970" lon="-2.1829570">
        <ele>1183.8</ele>
        <time>2019-07-06T09:02:00Z</time>
      </trkpt>
      <trkpt lat="40.8243750" lon="-2.1827980">
        <ele>1183.6</ele>
        <time>2019-07-06T09:02:02Z</time>
      </trkpt>
      <trkpt lat="40.8244060" lon="-2.1827150">
        <ele>1182.6</ele>
        <time>2019-07-06T09:02:03Z</time>
      </trkpt>
      <trkpt lat="40.8244380" lon="-2.1826390">
        <ele>1182.2</ele>
        <time>2019-07-06T09:02:04Z</time>
      </trkpt>
      <trkpt lat="40.8245570" lon="-2.1824660">
        <ele>1181.8</ele>
        <time>2019-07-06T09:02:07Z</time>
      </trkpt>
      <trkpt lat="40.8247240" lon="-2.1822840">
        <ele>1181.6</ele>
        <time>2019-07-06T09:02:11Z</time>
      </trkpt>
      <trkpt lat="40.8247530" lon="-2.1822230">
        <ele>1181.6</ele>
        <time>2019-07-06T09:02:12Z</time>
      </trkpt>
      <trkpt lat="40.8247880" lon="-2.1821660">
        <ele>1181.6</ele>
        <time>2019-07-06T09:02:13Z</time>
      </trkpt>
      <trkpt lat="40.8249270" lon="-2.1820030">
        <ele>1181.2</ele>
        <time>2019-07-06T09:02:16Z</time>
      </trkpt>
      <trkpt lat="40.8250270" lon="-2.1819010">
        <ele>1181.0</ele>
        <time>2019-07-06T09:02:18Z</time>
      </trkpt>
      <trkpt lat="40.8251700" lon="-2.1817100">
        <ele>1180.2</ele>
        <time>2019-07-06T09:02:21Z</time>
      </trkpt>
      <trkpt lat="40.8252040" lon="-2.1816450">
        <ele>1180.0</ele>
        <time>2019-07-06T09:02:22Z</time>
      </trkpt>
      <trkpt lat="40.8252290" lon="-2.1815240">
        <ele>1179.0</ele>
        <time>2019-07-06T09:02:24Z</time>
      </trkpt>
      <trkpt lat="40.8251420" lon="-2.1813700">
        <ele>1177.4</ele>
        <time>2019-07-06T09:02:27Z</time>
      </trkpt>
      <trkpt lat="40.8249550" lon="-2.1813380">
        <ele>1176.4</ele>
        <time>2019-07-06T09:02:30Z</time>
      </trkpt>
      <trkpt lat="40.8248820" lon="-2.1813450">
        <ele>1175.8</ele>
        <time>2019-07-06T09:02:31Z</time>
      </trkpt>
      <trkpt lat="40.8247320" lon="-2.1813620">
        <ele>1174.6</ele>
        <time>2019-07-06T09:02:33Z</time>
      </trkpt>
      <trkpt lat="40.8245050" lon="-2.1813640">
        <ele>1173.4</ele>
        <time>2019-07-06T09:02:36Z</time>
      </trkpt>
      <trkpt lat="40.8243510" lon="-2.1813450">
        <ele>1173.0</ele>
        <time>2019-07-06T09:02:38Z</time>
      </trkpt>
      <trkpt lat="40.8241970" lon="-2.1812790">
        <ele>1172.2</ele>
        <time>2019-07-06T09:02:40Z</time>
      </trkpt>
      <trkpt lat="40.8239760" lon="-2.1811130">
        <ele>1171.0</ele>
        <time>2019-07-06T09:02:43Z</time>
      </trkpt>
      <trkpt lat="40.8239090" lon="-2.1810490">
        <ele>1170.8</ele>
        <time>2019-07-06T09:02:44Z</time>
      </trkpt>
      <trkpt lat="40.8238470" lon="-2.1809800">
        <ele>1170.4</ele>
        <time>2019-07-06T09:02:45Z</time>
      </trkpt>
      <trkpt lat="40.8237330" lon="-2.1808200">
        <ele>1169.8</ele>
        <time>2019-07-06T09:02:47Z</time>
      </trkpt>
      <trkpt lat="40.8236760" lon="-2.1807380">
        <ele>1169.6</ele>
        <time>2019-07-06T09:02:48Z</time>
      </trkpt>
      <trkpt lat="40.8234180" lon="-2.1804190">
        <ele>1168.2</ele>
        <time>2019-07-06T09:02:52Z</time>
      </trkpt>
      <trkpt lat="40.8233560" lon="-2.1803450">
        <ele>1167.8</ele>
        <time>2019-07-06T09:02:53Z</time>
      </trkpt>
      <trkpt lat="40.8233040" lon="-2.1802730">
        <ele>1167.4</ele>
        <time>2019-07-06T09:02:54Z</time>
      </trkpt>
      <trkpt lat="40.8232600" lon="-2.1802060">
        <ele>1167.2</ele>
        <time>2019-07-06T09:02:55Z</time>
      </trkpt>
      <trkpt lat="40.8232240" lon="-2.1801410">
        <ele>1167.0</ele>
        <time>2019-07-06T09:02:56Z</time>
      </trkpt>
      <trkpt lat="40.8231940" lon="-2.1800820">
        <ele>1167.2</ele>
        <time>2019-07-06T09:02:57Z</time>
      </trkpt>
      <trkpt lat="40.8231480" lon="-2.1799710">
        <ele>1168.0</ele>
        <time>2019-07-06T09:02:59Z</time>
      </trkpt>
      <trkpt lat="40.8231070" lon="-2.1798630">
        <ele>1168.4</ele>
        <time>2019-07-06T09:03:01Z</time>
      </trkpt>
      <trkpt lat="40.8230680" lon="-2.1797520">
        <ele>1168.8</ele>
        <time>2019-07-06T09:03:03Z</time>
      </trkpt>
      <trkpt lat="40.8230170" lon="-2.1795850">
        <ele>1169.4</ele>
        <time>2019-07-06T09:03:06Z</time>
      </trkpt>
      <trkpt lat="40.8229690" lon="-2.1794330">
        <ele>1170.2</ele>
        <time>2019-07-06T09:03:09Z</time>
      </trkpt>
      <trkpt lat="40.8229550" lon="-2.1793860">
        <ele>1170.6</ele>
        <time>2019-07-06T09:03:10Z</time>
      </trkpt>
      <trkpt lat="40.8229400" lon="-2.1793380">
        <ele>1171.0</ele>
        <time>2019-07-06T09:03:11Z</time>
      </trkpt>
      <trkpt lat="40.8228940" lon="-2.1792070">
        <ele>1171.8</ele>
        <time>2019-07-06T09:03:14Z</time>
      </trkpt>
      <trkpt lat="40.8228540" lon="-2.1790820">
        <ele>1172.6</ele>
        <time>2019-07-06T09:03:17Z</time>
      </trkpt>
      <trkpt lat="40.8228280" lon="-2.1789990">
        <ele>1172.8</ele>
        <time>2019-07-06T09:03:19Z</time>
      </trkpt>
      <trkpt lat="40.8228150" lon="-2.1789570">
        <ele>1173.0</ele>
        <time>2019-07-06T09:03:20Z</time>
      </trkpt>
      <trkpt lat="40.8227980" lon="-2.1788220">
        <ele>1173.6</ele>
        <time>2019-07-06T09:03:23Z</time>
      </trkpt>
      <trkpt lat="40.8228010" lon="-2.1787300">
        <ele>1174.0</ele>
        <time>2019-07-06T09:03:25Z</time>
      </trkpt>
      <trkpt lat="40.8228030" lon="-2.1786830">
        <ele>1174.0</ele>
        <time>2019-07-06T09:03:26Z</time>
      </trkpt>
      <trkpt lat="40.8227960" lon="-2.1785420">
        <ele>1174.6</ele>
        <time>2019-07-06T09:03:29Z</time>
      </trkpt>
      <trkpt lat="40.8227740" lon="-2.1784480">
        <ele>1175.2</ele>
        <time>2019-07-06T09:03:31Z</time>
      </trkpt>
      <trkpt lat="40.8227600" lon="-2.1784030">
        <ele>1175.4</ele>
        <time>2019-07-06T09:03:32Z</time>
      </trkpt>
      <trkpt lat="40.8227000" lon="-2.1780420">
        <ele>1176.4</ele>
        <time>2019-07-06T09:03:39Z</time>
      </trkpt>
      <trkpt lat="40.8226980" lon="-2.1775940">
        <ele>1176.6</ele>
        <time>2019-07-06T09:03:46Z</time>
      </trkpt>
      <trkpt lat="40.8225820" lon="-2.1771180">
        <ele>1176.8</ele>
        <time>2019-07-06T09:03:53Z</time>
      </trkpt>
      <trkpt lat="40.8225000" lon="-2.1768280">
        <ele>1176.0</ele>
        <time>2019-07-06T09:03:57Z</time>
      </trkpt>
      <trkpt lat="40.8224660" lon="-2.1766840">
        <ele>1176.0</ele>
        <time>2019-07-06T09:03:59Z</time>
      </trkpt>
      <trkpt lat="40.8224510" lon="-2.1766040">
        <ele>1175.8</ele>
        <time>2019-07-06T09:04:00Z</time>
      </trkpt>
      <trkpt lat="40.8224270" lon="-2.1763320">
        <ele>1175.2</ele>
        <time>2019-07-06T09:04:03Z</time>
      </trkpt>
      <trkpt lat="40.8224070" lon="-2.1761420">
        <ele>1174.8</ele>
        <time>2019-07-06T09:04:05Z</time>
      </trkpt>
      <trkpt lat="40.8223860" lon="-2.1760530">
        <ele>1174.6</ele>
        <time>2019-07-06T09:04:06Z</time>
      </trkpt>
      <trkpt lat="40.8223280" lon="-2.1758990">
        <ele>1174.4</ele>
        <time>2019-07-06T09:04:08Z</time>
      </trkpt>
      <trkpt lat="40.8222970" lon="-2.1758320">
        <ele>1174.6</ele>
        <time>2019-07-06T09:04:09Z</time>
      </trkpt>
      <trkpt lat="40.8222300" lon="-2.1757010">
        <ele>1174.6</ele>
        <time>2019-07-06T09:04:11Z</time>
      </trkpt>
      <trkpt lat="40.8221140" lon="-2.1755210">
        <ele>1175.0</ele>
        <time>2019-07-06T09:04:14Z</time>
      </trkpt>
      <trkpt lat="40.8219890" lon="-2.1753340">
        <ele>1176.0</ele>
        <time>2019-07-06T09:04:18Z</time>
      </trkpt>
      <trkpt lat="40.8219720" lon="-2.1752830">
        <ele>1176.2</ele>
        <time>2019-07-06T09:04:19Z</time>
      </trkpt>
      <trkpt lat="40.8219520" lon="-2.1750660">
        <ele>1177.4</ele>
        <time>2019-07-06T09:04:23Z</time>
      </trkpt>
      <trkpt lat="40.8219540" lon="-2.1750150">
        <ele>1177.8</ele>
        <time>2019-07-06T09:04:24Z</time>
      </trkpt>
      <trkpt lat="40.8219560" lon="-2.1749220">
        <ele>1178.6</ele>
        <time>2019-07-06T09:04:26Z</time>
      </trkpt>
      <trkpt lat="40.8219550" lon="-2.1747920">
        <ele>1179.6</ele>
        <time>2019-07-06T09:04:29Z</time>
      </trkpt>
      <trkpt lat="40.8219550" lon="-2.1747470">
        <ele>1179.8</ele>
        <time>2019-07-06T09:04:30Z</time>
      </trkpt>
      <trkpt lat="40.8219630" lon="-2.1745740">
        <ele>1181.2</ele>
        <time>2019-07-06T09:04:34Z</time>
      </trkpt>
      <trkpt lat="40.8219670" lon="-2.1744530">
        <ele>1182.2</ele>
        <time>2019-07-06T09:04:37Z</time>
      </trkpt>
      <trkpt lat="40.8219620" lon="-2.1743740">
        <ele>1182.8</ele>
        <time>2019-07-06T09:04:39Z</time>
      </trkpt>
      <trkpt lat="40.8219530" lon="-2.1742990">
        <ele>1183.4</ele>
        <time>2019-07-06T09:04:41Z</time>
      </trkpt>
      <trkpt lat="40.8219110" lon="-2.1741550">
        <ele>1184.8</ele>
        <time>2019-07-06T09:04:45Z</time>
      </trkpt>
      <trkpt lat="40.8218960" lon="-2.1741230">
        <ele>1185.2</ele>
        <time>2019-07-06T09:04:46Z</time>
      </trkpt>
      <trkpt lat="40.8218470" lon="-2.1740290">
        <ele>1186.0</ele>
        <time>2019-07-06T09:04:49Z</time>
      </trkpt>
      <trkpt lat="40.8217890" lon="-2.1739420">
        <ele>1187.2</ele>
        <time>2019-07-06T09:04:52Z</time>
      </trkpt>
      <trkpt lat="40.8217000" lon="-2.1738280">
        <ele>1188.2</ele>
        <time>2019-07-06T09:04:56Z</time>
      </trkpt>
      <trkpt lat="40.8216190" lon="-2.1737700">
        <ele>1188.8</ele>
        <time>2019-07-06T09:04:59Z</time>
      </trkpt>
      <trkpt lat="40.8215670" lon="-2.1737610">
        <ele>1189.2</ele>
        <time>2019-07-06T09:05:01Z</time>
      </trkpt>
      <trkpt lat="40.8214950" lon="-2.1737780">
        <ele>1190.0</ele>
        <time>2019-07-06T09:05:04Z</time>
      </trkpt>
      <trkpt lat="40.8214730" lon="-2.1737920">
        <ele>1190.4</ele>
        <time>2019-07-06T09:05:05Z</time>
      </trkpt>
      <trkpt lat="40.8214040" lon="-2.1738760">
        <ele>1191.6</ele>
        <time>2019-07-06T09:05:09Z</time>
      </trkpt>
      <trkpt lat="40.8213350" lon="-2.1739600">
        <ele>1192.6</ele>
        <time>2019-07-06T09:05:13Z</time>
      </trkpt>
      <trkpt lat="40.8212480" lon="-2.1740420">
        <ele>1193.2</ele>
        <time>2019-07-06T09:05:17Z</time>
      </trkpt>
      <trkpt lat="40.8212010" lon="-2.1740800">
        <ele>1193.8</ele>
        <time>2019-07-06T09:05:19Z</time>
      </trkpt>
      <trkpt lat="40.8210480" lon="-2.1741530">
        <ele>1194.8</ele>
        <time>2019-07-06T09:05:24Z</time>
      </trkpt>
      <trkpt lat="40.8208180" lon="-2.1742670">
        <ele>1194.8</ele>
        <time>2019-07-06T09:05:30Z</time>
      </trkpt>
      <trkpt lat="40.8207770" lon="-2.1742840">
        <ele>1194.8</ele>
        <time>2019-07-06T09:05:31Z</time>
      </trkpt>
      <trkpt lat="40.8206350" lon="-2.1744200">
        <ele>1195.2</ele>
        <time>2019-07-06T09:05:35Z</time>
      </trkpt>
      <trkpt lat="40.8205450" lon="-2.1745430">
        <ele>1195.6</ele>
        <time>2019-07-06T09:05:38Z</time>
      </trkpt>
      <trkpt lat="40.8204850" lon="-2.1746210">
        <ele>1195.8</ele>
        <time>2019-07-06T09:05:40Z</time>
      </trkpt>
      <trkpt lat="40.8204030" lon="-2.1747380">
        <ele>1196.4</ele>
        <time>2019-07-06T09:05:43Z</time>
      </trkpt>
      <trkpt lat="40.8203520" lon="-2.1748130">
        <ele>1196.8</ele>
        <time>2019-07-06T09:05:45Z</time>
      </trkpt>
      <trkpt lat="40.8202550" lon="-2.1749630">
        <ele>1198.0</ele>
        <time>2019-07-06T09:05:49Z</time>
      </trkpt>
      <trkpt lat="40.8202080" lon="-2.1750350">
        <ele>1198.4</ele>
        <time>2019-07-06T09:05:51Z</time>
      </trkpt>
      <trkpt lat="40.8200860" lon="-2.1752140">
        <ele>1199.4</ele>
        <time>2019-07-06T09:05:56Z</time>
      </trkpt>
      <trkpt lat="40.8199820" lon="-2.1753500">
        <ele>1200.6</ele>
        <time>2019-07-06T09:06:00Z</time>
      </trkpt>
      <trkpt lat="40.8198270" lon="-2.1755790">
        <ele>1201.8</ele>
        <time>2019-07-06T09:06:06Z</time>
      </trkpt>
      <trkpt lat="40.8197660" lon="-2.1756580">
        <ele>1202.0</ele>
        <time>2019-07-06T09:06:08Z</time>
      </trkpt>
      <trkpt lat="40.8196510" lon="-2.1758380">
        <ele>1202.8</ele>
        <time>2019-07-06T09:06:12Z</time>
      </trkpt>
      <trkpt lat="40.8194970" lon="-2.1760820">
        <ele>1203.0</ele>
        <time>2019-07-06T09:06:17Z</time>
      </trkpt>
      <trkpt lat="40.8192380" lon="-2.1764840">
        <ele>1203.6</ele>
        <time>2019-07-06T09:06:25Z</time>
      </trkpt>
      <trkpt lat="40.8191210" lon="-2.1766430">
        <ele>1203.8</ele>
        <time>2019-07-06T09:06:28Z</time>
      </trkpt>
      <trkpt lat="40.8189450" lon="-2.1768260">
        <ele>1204.0</ele>
        <time>2019-07-06T09:06:32Z</time>
      </trkpt>
      <trkpt lat="40.8187470" lon="-2.1769830">
        <ele>1204.2</ele>
        <time>2019-07-06T09:06:36Z</time>
      </trkpt>
      <trkpt lat="40.8185900" lon="-2.1771010">
        <ele>1204.0</ele>
        <time>2019-07-06T09:06:39Z</time>
      </trkpt>
      <trkpt lat="40.8184320" lon="-2.1772400">
        <ele>1203.8</ele>
        <time>2019-07-06T09:06:42Z</time>
      </trkpt>
      <trkpt lat="40.8183210" lon="-2.1773260">
        <ele>1204.0</ele>
        <time>2019-07-06T09:06:44Z</time>
      </trkpt>
      <trkpt lat="40.8180940" lon="-2.1775120">
        <ele>1204.8</ele>
        <time>2019-07-06T09:06:49Z</time>
      </trkpt>
      <trkpt lat="40.8179010" lon="-2.1776700">
        <ele>1206.2</ele>
        <time>2019-07-06T09:06:54Z</time>
      </trkpt>
      <trkpt lat="40.8178250" lon="-2.1777250">
        <ele>1206.8</ele>
        <time>2019-07-06T09:06:56Z</time>
      </trkpt>
      <trkpt lat="40.8177900" lon="-2.1777570">
        <ele>1207.0</ele>
        <time>2019-07-06T09:06:57Z</time>
      </trkpt>
      <trkpt lat="40.8177530" lon="-2.1777890">
        <ele>1207.4</ele>
        <time>2019-07-06T09:06:58Z</time>
      </trkpt>
      <trkpt lat="40.8175940" lon="-2.1779030">
        <ele>1208.4</ele>
        <time>2019-07-06T09:07:02Z</time>
      </trkpt>
      <trkpt lat="40.8175510" lon="-2.1779320">
        <ele>1208.4</ele>
        <time>2019-07-06T09:07:03Z</time>
      </trkpt>
      <trkpt lat="40.8173760" lon="-2.1780430">
        <ele>1208.8</ele>
        <time>2019-07-06T09:07:07Z</time>
      </trkpt>
      <trkpt lat="40.8172900" lon="-2.1781060">
        <ele>1209.0</ele>
        <time>2019-07-06T09:07:09Z</time>
      </trkpt>
      <trkpt lat="40.8172010" lon="-2.1781620">
        <ele>1209.4</ele>
        <time>2019-07-06T09:07:11Z</time>
      </trkpt>
      <trkpt lat="40.8169980" lon="-2.1783050">
        <ele>1210.6</ele>
        <time>2019-07-06T09:07:16Z</time>
      </trkpt>
      <trkpt lat="40.8167530" lon="-2.1784740">
        <ele>1211.6</ele>
        <time>2019-07-06T09:07:22Z</time>
      </trkpt>
      <trkpt lat="40.8166230" lon="-2.1785550">
        <ele>1212.0</ele>
        <time>2019-07-06T09:07:25Z</time>
      </trkpt>
      <trkpt lat="40.8162900" lon="-2.1786780">
        <ele>1212.6</ele>
        <time>2019-07-06T09:07:32Z</time>
      </trkpt>
      <trkpt lat="40.8162400" lon="-2.1786810">
        <ele>1212.6</ele>
        <time>2019-07-06T09:07:33Z</time>
      </trkpt>
      <trkpt lat="40.8161900" lon="-2.1786820">
        <ele>1212.8</ele>
        <time>2019-07-06T09:07:34Z</time>
      </trkpt>
      <trkpt lat="40.8161380" lon="-2.1786860">
        <ele>1212.8</ele>
        <time>2019-07-06T09:07:35Z</time>
      </trkpt>
      <trkpt lat="40.8160340" lon="-2.1787000">
        <ele>1213.0</ele>
        <time>2019-07-06T09:07:37Z</time>
      </trkpt>
      <trkpt lat="40.8156460" lon="-2.1787280">
        <ele>1212.6</ele>
        <time>2019-07-06T09:07:44Z</time>
      </trkpt>
      <trkpt lat="40.8153110" lon="-2.1787530">
        <ele>1213.8</ele>
        <time>2019-07-06T09:07:50Z</time>
      </trkpt>
      <trkpt lat="40.8152090" lon="-2.1787660">
        <ele>1213.8</ele>
        <time>2019-07-06T09:07:52Z</time>
      </trkpt>
      <trkpt lat="40.8150700" lon="-2.1787830">
        <ele>1214.6</ele>
        <time>2019-07-06T09:07:55Z</time>
      </trkpt>
      <trkpt lat="40.8150260" lon="-2.1787880">
        <ele>1214.8</ele>
        <time>2019-07-06T09:07:56Z</time>
      </trkpt>
      <trkpt lat="40.8148520" lon="-2.1787940">
        <ele>1216.0</ele>
        <time>2019-07-06T09:08:00Z</time>
      </trkpt>
      <trkpt lat="40.8145770" lon="-2.1787330">
        <ele>1217.0</ele>
        <time>2019-07-06T09:08:06Z</time>
      </trkpt>
      <trkpt lat="40.8145310" lon="-2.1787140">
        <ele>1217.2</ele>
        <time>2019-07-06T09:08:07Z</time>
      </trkpt>
      <trkpt lat="40.8143040" lon="-2.1786190">
        <ele>1218.2</ele>
        <time>2019-07-06T09:08:12Z</time>
      </trkpt>
      <trkpt lat="40.8142090" lon="-2.1785750">
        <ele>1218.4</ele>
        <time>2019-07-06T09:08:14Z</time>
      </trkpt>
      <trkpt lat="40.8138590" lon="-2.1784370">
        <ele>1219.2</ele>
        <time>2019-07-06T09:08:21Z</time>
      </trkpt>
      <trkpt lat="40.8136430" lon="-2.1783400">
        <ele>1219.2</ele>
        <time>2019-07-06T09:08:25Z</time>
      </trkpt>
      <trkpt lat="40.8135280" lon="-2.1783120">
        <ele>1219.0</ele>
        <time>2019-07-06T09:08:27Z</time>
      </trkpt>
      <trkpt lat="40.8133430" lon="-2.1783010">
        <ele>1218.4</ele>
        <time>2019-07-06T09:08:30Z</time>
      </trkpt>
      <trkpt lat="40.8132160" lon="-2.1783020">
        <ele>1218.2</ele>
        <time>2019-07-06T09:08:32Z</time>
      </trkpt>
      <trkpt lat="40.8131530" lon="-2.1783140">
        <ele>1218.4</ele>
        <time>2019-07-06T09:08:33Z</time>
      </trkpt>
      <trkpt lat="40.8129570" lon="-2.1783890">
        <ele>1218.2</ele>
        <time>2019-07-06T09:08:36Z</time>
      </trkpt>
      <trkpt lat="40.8128380" lon="-2.1784770">
        <ele>1218.0</ele>
        <time>2019-07-06T09:08:38Z</time>
      </trkpt>
      <trkpt lat="40.8126970" lon="-2.1786500">
        <ele>1218.0</ele>
        <time>2019-07-06T09:08:41Z</time>
      </trkpt>
      <trkpt lat="40.8126120" lon="-2.1787670">
        <ele>1218.2</ele>
        <time>2019-07-06T09:08:43Z</time>
      </trkpt>
      <trkpt lat="40.8122100" lon="-2.1792670">
        <ele>1218.6</ele>
        <time>2019-07-06T09:08:52Z</time>
      </trkpt>
      <trkpt lat="40.8121170" lon="-2.1793790">
        <ele>1218.8</ele>
        <time>2019-07-06T09:08:54Z</time>
      </trkpt>
      <trkpt lat="40.8117650" lon="-2.1798320">
        <ele>1219.0</ele>
        <time>2019-07-06T09:09:02Z</time>
      </trkpt>
      <trkpt lat="40.8114310" lon="-2.1802270">
        <ele>1219.0</ele>
        <time>2019-07-06T09:09:09Z</time>
      </trkpt>
      <trkpt lat="40.8113780" lon="-2.1802830">
        <ele>1219.0</ele>
        <time>2019-07-06T09:09:10Z</time>
      </trkpt>
      <trkpt lat="40.8110210" lon="-2.1805930">
        <ele>1218.0</ele>
        <time>2019-07-06T09:09:16Z</time>
      </trkpt>
      <trkpt lat="40.8107610" lon="-2.1807950">
        <ele>1217.0</ele>
        <time>2019-07-06T09:09:20Z</time>
      </trkpt>
      <trkpt lat="40.8105500" lon="-2.1809520">
        <ele>1216.2</ele>
        <time>2019-07-06T09:09:23Z</time>
      </trkpt>
      <trkpt lat="40.8104770" lon="-2.1810060">
        <ele>1215.8</ele>
        <time>2019-07-06T09:09:24Z</time>
      </trkpt>
      <trkpt lat="40.8103250" lon="-2.1811180">
        <ele>1215.2</ele>
        <time>2019-07-06T09:09:26Z</time>
      </trkpt>
      <trkpt lat="40.8102460" lon="-2.1811740">
        <ele>1214.6</ele>
        <time>2019-07-06T09:09:27Z</time>
      </trkpt>
      <trkpt lat="40.8100870" lon="-2.1812820">
        <ele>1213.8</ele>
        <time>2019-07-06T09:09:29Z</time>
      </trkpt>
      <trkpt lat="40.8100040" lon="-2.1813360">
        <ele>1213.4</ele>
        <time>2019-07-06T09:09:30Z</time>
      </trkpt>
      <trkpt lat="40.8098310" lon="-2.1814480">
        <ele>1211.6</ele>
        <time>2019-07-06T09:09:32Z</time>
      </trkpt>
      <trkpt lat="40.8095730" lon="-2.1816140">
        <ele>1210.2</ele>
        <time>2019-07-06T09:09:35Z</time>
      </trkpt>
      <trkpt lat="40.8094030" lon="-2.1817330">
        <ele>1208.8</ele>
        <time>2019-07-06T09:09:37Z</time>
      </trkpt>
      <trkpt lat="40.8091550" lon="-2.1818970">
        <ele>1207.6</ele>
        <time>2019-07-06T09:09:40Z</time>
      </trkpt>
      <trkpt lat="40.8090070" lon="-2.1819890">
        <ele>1207.2</ele>
        <time>2019-07-06T09:09:42Z</time>
      </trkpt>
      <trkpt lat="40.8086840" lon="-2.1821650">
        <ele>1206.4</ele>
        <time>2019-07-06T09:09:46Z</time>
      </trkpt>
      <trkpt lat="40.8085970" lon="-2.1821890">
        <ele>1205.8</ele>
        <time>2019-07-06T09:09:47Z</time>
      </trkpt>
      <trkpt lat="40.8085150" lon="-2.1822030">
        <ele>1205.0</ele>
        <time>2019-07-06T09:09:48Z</time>
      </trkpt>
      <trkpt lat="40.8083560" lon="-2.1822190">
        <ele>1204.0</ele>
        <time>2019-07-06T09:09:50Z</time>
      </trkpt>
      <trkpt lat="40.8081830" lon="-2.1822070">
        <ele>1202.4</ele>
        <time>2019-07-06T09:09:52Z</time>
      </trkpt>
      <trkpt lat="40.8080950" lon="-2.1821850">
        <ele>1202.0</ele>
        <time>2019-07-06T09:09:53Z</time>
      </trkpt>
      <trkpt lat="40.8079100" lon="-2.1820980">
        <ele>1201.2</ele>
        <time>2019-07-06T09:09:55Z</time>
      </trkpt>
      <trkpt lat="40.8078290" lon="-2.1820360">
        <ele>1200.6</ele>
        <time>2019-07-06T09:09:56Z</time>
      </trkpt>
      <trkpt lat="40.8077540" lon="-2.1819650">
        <ele>1199.8</ele>
        <time>2019-07-06T09:09:57Z</time>
      </trkpt>
      <trkpt lat="40.8076110" lon="-2.1818040">
        <ele>1198.2</ele>
        <time>2019-07-06T09:09:59Z</time>
      </trkpt>
      <trkpt lat="40.8074830" lon="-2.1816280">
        <ele>1197.0</ele>
        <time>2019-07-06T09:10:01Z</time>
      </trkpt>
      <trkpt lat="40.8073300" lon="-2.1813240">
        <ele>1195.2</ele>
        <time>2019-07-06T09:10:04Z</time>
      </trkpt>
      <trkpt lat="40.8072890" lon="-2.1812250">
        <ele>1194.4</ele>
        <time>2019-07-06T09:10:05Z</time>
      </trkpt>
      <trkpt lat="40.8072520" lon="-2.1811270">
        <ele>1193.2</ele>
        <time>2019-07-06T09:10:06Z</time>
      </trkpt>
      <trkpt lat="40.8071990" lon="-2.1809240">
        <ele>1191.2</ele>
        <time>2019-07-06T09:10:08Z</time>
      </trkpt>
      <trkpt lat="40.8071820" lon="-2.1808130">
        <ele>1190.6</ele>
        <time>2019-07-06T09:10:09Z</time>
      </trkpt>
      <trkpt lat="40.8071710" lon="-2.1806950">
        <ele>1190.0</ele>
        <time>2019-07-06T09:10:10Z</time>
      </trkpt>
      <trkpt lat="40.8071640" lon="-2.1805740">
        <ele>1188.8</ele>
        <time>2019-07-06T09:10:11Z</time>
      </trkpt>
      <trkpt lat="40.8071650" lon="-2.1804570">
        <ele>1187.6</ele>
        <time>2019-07-06T09:10:12Z</time>
      </trkpt>
      <trkpt lat="40.8071740" lon="-2.1803410">
        <ele>1187.2</ele>
        <time>2019-07-06T09:10:13Z</time>
      </trkpt>
      <trkpt lat="40.8071940" lon="-2.1802270">
        <ele>1186.2</ele>
        <time>2019-07-06T09:10:14Z</time>
      </trkpt>
      <trkpt lat="40.8072700" lon="-2.1800020">
        <ele>1184.4</ele>
        <time>2019-07-06T09:10:16Z</time>
      </trkpt>
      <trkpt lat="40.8073560" lon="-2.1797620">
        <ele>1183.0</ele>
        <time>2019-07-06T09:10:18Z</time>
      </trkpt>
      <trkpt lat="40.8074230" lon="-2.1795070">
        <ele>1181.8</ele>
        <time>2019-07-06T09:10:20Z</time>
      </trkpt>
      <trkpt lat="40.8074400" lon="-2.1793780">
        <ele>1181.2</ele>
        <time>2019-07-06T09:10:21Z</time>
      </trkpt>
      <trkpt lat="40.8074510" lon="-2.1792500">
        <ele>1180.6</ele>
        <time>2019-07-06T09:10:22Z</time>
      </trkpt>
      <trkpt lat="40.8074760" lon="-2.1789900">
        <ele>1179.4</ele>
        <time>2019-07-06T09:10:24Z</time>
      </trkpt>
      <trkpt lat="40.8075060" lon="-2.1787440">
        <ele>1177.6</ele>
        <time>2019-07-06T09:10:26Z</time>
      </trkpt>
      <trkpt lat="40.8075240" lon="-2.1786250">
        <ele>1176.4</ele>
        <time>2019-07-06T09:10:27Z</time>
      </trkpt>
      <trkpt lat="40.8075440" lon="-2.1785040">
        <ele>1175.0</ele>
        <time>2019-07-06T09:10:28Z</time>
      </trkpt>
      <trkpt lat="40.8075900" lon="-2.1782510">
        <ele>1173.4</ele>
        <time>2019-07-06T09:10:30Z</time>
      </trkpt>
      <trkpt lat="40.8076410" lon="-2.1780050">
        <ele>1171.8</ele>
        <time>2019-07-06T09:10:32Z</time>
      </trkpt>
      <trkpt lat="40.8076700" lon="-2.1778880">
        <ele>1171.2</ele>
        <time>2019-07-06T09:10:33Z</time>
      </trkpt>
      <trkpt lat="40.8077070" lon="-2.1777740">
        <ele>1170.8</ele>
        <time>2019-07-06T09:10:34Z</time>
      </trkpt>
      <trkpt lat="40.8078090" lon="-2.1775630">
        <ele>1169.6</ele>
        <time>2019-07-06T09:10:36Z</time>
      </trkpt>
      <trkpt lat="40.8078660" lon="-2.1774650">
        <ele>1169.0</ele>
        <time>2019-07-06T09:10:37Z</time>
      </trkpt>
      <trkpt lat="40.8079160" lon="-2.1773740">
        <ele>1168.6</ele>
        <time>2019-07-06T09:10:38Z</time>
      </trkpt>
      <trkpt lat="40.8079720" lon="-2.1771910">
        <ele>1167.0</ele>
        <time>2019-07-06T09:10:40Z</time>
      </trkpt>
      <trkpt lat="40.8079400" lon="-2.1768980">
        <ele>1166.0</ele>
        <time>2019-07-06T09:10:43Z</time>
      </trkpt>
      <trkpt lat="40.8078790" lon="-2.1765040">
        <ele>1165.2</ele>
        <time>2019-07-06T09:10:47Z</time>
      </trkpt>
      <trkpt lat="40.8078810" lon="-2.1764070">
        <ele>1165.0</ele>
        <time>2019-07-06T09:10:48Z</time>
      </trkpt>
      <trkpt lat="40.8078960" lon="-2.1763090">
        <ele>1164.8</ele>
        <time>2019-07-06T09:10:49Z</time>
      </trkpt>
      <trkpt lat="40.8079430" lon="-2.1761110">
        <ele>1164.4</ele>
        <time>2019-07-06T09:10:51Z</time>
      </trkpt>
      <trkpt lat="40.8079720" lon="-2.1760120">
        <ele>1164.2</ele>
        <time>2019-07-06T09:10:52Z</time>
      </trkpt>
      <trkpt lat="40.8080000" lon="-2.1759130">
        <ele>1163.8</ele>
        <time>2019-07-06T09:10:53Z</time>
      </trkpt>
      <trkpt lat="40.8080620" lon="-2.1757210">
        <ele>1162.6</ele>
        <time>2019-07-06T09:10:55Z</time>
      </trkpt>
      <trkpt lat="40.8081300" lon="-2.1755290">
        <ele>1161.2</ele>
        <time>2019-07-06T09:10:57Z</time>
      </trkpt>
      <trkpt lat="40.8082150" lon="-2.1753230">
        <ele>1159.6</ele>
        <time>2019-07-06T09:10:59Z</time>
      </trkpt>
      <trkpt lat="40.8083070" lon="-2.1751040">
        <ele>1157.8</ele>
        <time>2019-07-06T09:11:01Z</time>
      </trkpt>
      <trkpt lat="40.8083490" lon="-2.1749890">
        <ele>1156.6</ele>
        <time>2019-07-06T09:11:02Z</time>
      </trkpt>
      <trkpt lat="40.8084170" lon="-2.1747590">
        <ele>1155.2</ele>
        <time>2019-07-06T09:11:04Z</time>
      </trkpt>
      <trkpt lat="40.8084730" lon="-2.1745350">
        <ele>1153.0</ele>
        <time>2019-07-06T09:11:06Z</time>
      </trkpt>
      <trkpt lat="40.8085170" lon="-2.1743280">
        <ele>1151.4</ele>
        <time>2019-07-06T09:11:08Z</time>
      </trkpt>
      <trkpt lat="40.8085360" lon="-2.1742290">
        <ele>1150.0</ele>
        <time>2019-07-06T09:11:09Z</time>
      </trkpt>
      <trkpt lat="40.8085480" lon="-2.1741310">
        <ele>1149.4</ele>
        <time>2019-07-06T09:11:10Z</time>
      </trkpt>
      <trkpt lat="40.8085570" lon="-2.1740300">
        <ele>1148.6</ele>
        <time>2019-07-06T09:11:11Z</time>
      </trkpt>
      <trkpt lat="40.8085640" lon="-2.1738370">
        <ele>1146.8</ele>
        <time>2019-07-06T09:11:13Z</time>
      </trkpt>
      <trkpt lat="40.8085560" lon="-2.1737440">
        <ele>1145.8</ele>
        <time>2019-07-06T09:11:14Z</time>
      </trkpt>
      <trkpt lat="40.8085360" lon="-2.1736520">
        <ele>1145.2</ele>
        <time>2019-07-06T09:11:15Z</time>
      </trkpt>
      <trkpt lat="40.8084510" lon="-2.1734670">
        <ele>1143.6</ele>
        <time>2019-07-06T09:11:17Z</time>
      </trkpt>
      <trkpt lat="40.8084000" lon="-2.1733740">
        <ele>1142.8</ele>
        <time>2019-07-06T09:11:18Z</time>
      </trkpt>
      <trkpt lat="40.8083510" lon="-2.1732830">
        <ele>1142.0</ele>
        <time>2019-07-06T09:11:19Z</time>
      </trkpt>
      <trkpt lat="40.8083070" lon="-2.1732050">
        <ele>1141.2</ele>
        <time>2019-07-06T09:11:20Z</time>
      </trkpt>
      <trkpt lat="40.8082600" lon="-2.1731460">
        <ele>1140.6</ele>
        <time>2019-07-06T09:11:21Z</time>
      </trkpt>
      <trkpt lat="40.8081450" lon="-2.1730970">
        <ele>1139.0</ele>
        <time>2019-07-06T09:11:23Z</time>
      </trkpt>
      <trkpt lat="40.8080790" lon="-2.1731110">
        <ele>1138.4</ele>
        <time>2019-07-06T09:11:24Z</time>
      </trkpt>
      <trkpt lat="40.8080120" lon="-2.1731400">
        <ele>1137.0</ele>
        <time>2019-07-06T09:11:25Z</time>
      </trkpt>
      <trkpt lat="40.8078620" lon="-2.1731880">
        <ele>1135.8</ele>
        <time>2019-07-06T09:11:27Z</time>
      </trkpt>
      <trkpt lat="40.8077820" lon="-2.1731980">
        <ele>1135.4</ele>
        <time>2019-07-06T09:11:28Z</time>
      </trkpt>
      <trkpt lat="40.8076270" lon="-2.1731800">
        <ele>1134.2</ele>
        <time>2019-07-06T09:11:30Z</time>
      </trkpt>
      <trkpt lat="40.8075510" lon="-2.1731600">
        <ele>1133.4</ele>
        <time>2019-07-06T09:11:31Z</time>
      </trkpt>
      <trkpt lat="40.8074740" lon="-2.1731290">
        <ele>1132.8</ele>
        <time>2019-07-06T09:11:32Z</time>
      </trkpt>
      <trkpt lat="40.8073990" lon="-2.1730880">
        <ele>1131.6</ele>
        <time>2019-07-06T09:11:33Z</time>
      </trkpt>
      <trkpt lat="40.8072490" lon="-2.1729800">
        <ele>1130.2</ele>
        <time>2019-07-06T09:11:35Z</time>
      </trkpt>
      <trkpt lat="40.8071760" lon="-2.1729170">
        <ele>1129.4</ele>
        <time>2019-07-06T09:11:36Z</time>
      </trkpt>
      <trkpt lat="40.8071070" lon="-2.1728490">
        <ele>1128.2</ele>
        <time>2019-07-06T09:11:37Z</time>
      </trkpt>
      <trkpt lat="40.8069690" lon="-2.1727030">
        <ele>1126.6</ele>
        <time>2019-07-06T09:11:39Z</time>
      </trkpt>
      <trkpt lat="40.8068440" lon="-2.1725580">
        <ele>1124.4</ele>
        <time>2019-07-06T09:11:41Z</time>
      </trkpt>
      <trkpt lat="40.8067780" lon="-2.1725020">
        <ele>1123.6</ele>
        <time>2019-07-06T09:11:42Z</time>
      </trkpt>
      <trkpt lat="40.8067050" lon="-2.1724690">
        <ele>1122.8</ele>
        <time>2019-07-06T09:11:43Z</time>
      </trkpt>
      <trkpt lat="40.8065410" lon="-2.1724490">
        <ele>1120.8</ele>
        <time>2019-07-06T09:11:45Z</time>
      </trkpt>
      <trkpt lat="40.8064600" lon="-2.1724510">
        <ele>1120.0</ele>
        <time>2019-07-06T09:11:46Z</time>
      </trkpt>
      <trkpt lat="40.8063800" lon="-2.1724490">
        <ele>1119.2</ele>
        <time>2019-07-06T09:11:47Z</time>
      </trkpt>
      <trkpt lat="40.8062190" lon="-2.1724210">
        <ele>1118.0</ele>
        <time>2019-07-06T09:11:49Z</time>
      </trkpt>
      <trkpt lat="40.8060640" lon="-2.1723590">
        <ele>1116.4</ele>
        <time>2019-07-06T09:11:51Z</time>
      </trkpt>
      <trkpt lat="40.8059900" lon="-2.1723120">
        <ele>1115.0</ele>
        <time>2019-07-06T09:11:52Z</time>
      </trkpt>
      <trkpt lat="40.8059120" lon="-2.1722620">
        <ele>1114.0</ele>
        <time>2019-07-06T09:11:53Z</time>
      </trkpt>
      <trkpt lat="40.8058320" lon="-2.1722190">
        <ele>1113.4</ele>
        <time>2019-07-06T09:11:54Z</time>
      </trkpt>
      <trkpt lat="40.8056710" lon="-2.1721710">
        <ele>1111.6</ele>
        <time>2019-07-06T09:11:56Z</time>
      </trkpt>
      <trkpt lat="40.8055950" lon="-2.1721580">
        <ele>1110.4</ele>
        <time>2019-07-06T09:11:57Z</time>
      </trkpt>
      <trkpt lat="40.8055250" lon="-2.1721410">
        <ele>1109.2</ele>
        <time>2019-07-06T09:11:58Z</time>
      </trkpt>
      <trkpt lat="40.8054620" lon="-2.1721140">
        <ele>1108.2</ele>
        <time>2019-07-06T09:11:59Z</time>
      </trkpt>
      <trkpt lat="40.8053420" lon="-2.1720280">
        <ele>1106.8</ele>
        <time>2019-07-06T09:12:01Z</time>
      </trkpt>
      <trkpt lat="40.8052220" lon="-2.1719110">
        <ele>1105.6</ele>
        <time>2019-07-06T09:12:03Z</time>
      </trkpt>
      <trkpt lat="40.8050750" lon="-2.1718280">
        <ele>1104.2</ele>
        <time>2019-07-06T09:12:05Z</time>
      </trkpt>
      <trkpt lat="40.8049030" lon="-2.1717770">
        <ele>1103.2</ele>
        <time>2019-07-06T09:12:07Z</time>
      </trkpt>
      <trkpt lat="40.8048150" lon="-2.1717470">
        <ele>1102.6</ele>
        <time>2019-07-06T09:12:08Z</time>
      </trkpt>
      <trkpt lat="40.8047250" lon="-2.1717130">
        <ele>1101.2</ele>
        <time>2019-07-06T09:12:09Z</time>
      </trkpt>
      <trkpt lat="40.8046380" lon="-2.1716860">
        <ele>1100.4</ele>
        <time>2019-07-06T09:12:10Z</time>
      </trkpt>
      <trkpt lat="40.8045530" lon="-2.1716670">
        <ele>1099.8</ele>
        <time>2019-07-06T09:12:11Z</time>
      </trkpt>
      <trkpt lat="40.8043910" lon="-2.1716520">
        <ele>1097.8</ele>
        <time>2019-07-06T09:12:13Z</time>
      </trkpt>
      <trkpt lat="40.8043150" lon="-2.1716410">
        <ele>1097.0</ele>
        <time>2019-07-06T09:12:14Z</time>
      </trkpt>
      <trkpt lat="40.8042440" lon="-2.1716270">
        <ele>1096.6</ele>
        <time>2019-07-06T09:12:15Z</time>
      </trkpt>
      <trkpt lat="40.8041760" lon="-2.1716070">
        <ele>1096.0</ele>
        <time>2019-07-06T09:12:16Z</time>
      </trkpt>
      <trkpt lat="40.8040540" lon="-2.1715370">
        <ele>1094.8</ele>
        <time>2019-07-06T09:12:18Z</time>
      </trkpt>
      <trkpt lat="40.8039560" lon="-2.1714210">
        <ele>1093.8</ele>
        <time>2019-07-06T09:12:20Z</time>
      </trkpt>
      <trkpt lat="40.8039180" lon="-2.1713480">
        <ele>1093.0</ele>
        <time>2019-07-06T09:12:21Z</time>
      </trkpt>
      <trkpt lat="40.8038830" lon="-2.1712650">
        <ele>1092.2</ele>
        <time>2019-07-06T09:12:22Z</time>
      </trkpt>
      <trkpt lat="40.8038480" lon="-2.1711750">
        <ele>1091.6</ele>
        <time>2019-07-06T09:12:23Z</time>
      </trkpt>
      <trkpt lat="40.8038140" lon="-2.1710810">
        <ele>1091.0</ele>
        <time>2019-07-06T09:12:24Z</time>
      </trkpt>
      <trkpt lat="40.8037850" lon="-2.1709960">
        <ele>1090.6</ele>
        <time>2019-07-06T09:12:25Z</time>
      </trkpt>
      <trkpt lat="40.8037340" lon="-2.1708590">
        <ele>1089.8</ele>
        <time>2019-07-06T09:12:27Z</time>
      </trkpt>
      <trkpt lat="40.8037230" lon="-2.1707990">
        <ele>1089.6</ele>
        <time>2019-07-06T09:12:28Z</time>
      </trkpt>
      <trkpt lat="40.8037550" lon="-2.1706970">
        <ele>1088.6</ele>
        <time>2019-07-06T09:12:30Z</time>
      </trkpt>
      <trkpt lat="40.8037920" lon="-2.1706700">
        <ele>1088.2</ele>
        <time>2019-07-06T09:12:31Z</time>
      </trkpt>
      <trkpt lat="40.8039100" lon="-2.1706970">
        <ele>1087.4</ele>
        <time>2019-07-06T09:12:33Z</time>
      </trkpt>
      <trkpt lat="40.8039760" lon="-2.1707260">
        <ele>1086.6</ele>
        <time>2019-07-06T09:12:34Z</time>
      </trkpt>
      <trkpt lat="40.8040500" lon="-2.1707550">
        <ele>1085.8</ele>
        <time>2019-07-06T09:12:35Z</time>
      </trkpt>
      <trkpt lat="40.8042040" lon="-2.1708090">
        <ele>1084.4</ele>
        <time>2019-07-06T09:12:37Z</time>
      </trkpt>
      <trkpt lat="40.8044200" lon="-2.1707760">
        <ele>1082.8</ele>
        <time>2019-07-06T09:12:40Z</time>
      </trkpt>
      <trkpt lat="40.8045610" lon="-2.1706800">
        <ele>1081.4</ele>
        <time>2019-07-06T09:12:42Z</time>
      </trkpt>
      <trkpt lat="40.8047660" lon="-2.1705360">
        <ele>1079.2</ele>
        <time>2019-07-06T09:12:45Z</time>
      </trkpt>
      <trkpt lat="40.8049120" lon="-2.1704360">
        <ele>1078.0</ele>
        <time>2019-07-06T09:12:47Z</time>
      </trkpt>
      <trkpt lat="40.8050620" lon="-2.1703220">
        <ele>1077.0</ele>
        <time>2019-07-06T09:12:49Z</time>
      </trkpt>
      <trkpt lat="40.8051270" lon="-2.1702550">
        <ele>1076.6</ele>
        <time>2019-07-06T09:12:50Z</time>
      </trkpt>
      <trkpt lat="40.8052200" lon="-2.1700960">
        <ele>1076.0</ele>
        <time>2019-07-06T09:12:52Z</time>
      </trkpt>
      <trkpt lat="40.8052520" lon="-2.1700140">
        <ele>1075.8</ele>
        <time>2019-07-06T09:12:53Z</time>
      </trkpt>
      <trkpt lat="40.8053110" lon="-2.1698670">
        <ele>1075.6</ele>
        <time>2019-07-06T09:12:55Z</time>
      </trkpt>
      <trkpt lat="40.8053310" lon="-2.1697980">
        <ele>1075.6</ele>
        <time>2019-07-06T09:12:56Z</time>
      </trkpt>
      <trkpt lat="40.8053480" lon="-2.1697360">
        <ele>1075.6</ele>
        <time>2019-07-06T09:12:57Z</time>
      </trkpt>
      <trkpt lat="40.8053690" lon="-2.1696740">
        <ele>1075.8</ele>
        <time>2019-07-06T09:12:58Z</time>
      </trkpt>
      <trkpt lat="40.8054160" lon="-2.1695620">
        <ele>1076.2</ele>
        <time>2019-07-06T09:13:00Z</time>
      </trkpt>
      <trkpt lat="40.8054360" lon="-2.1695080">
        <ele>1076.4</ele>
        <time>2019-07-06T09:13:01Z</time>
      </trkpt>
      <trkpt lat="40.8055150" lon="-2.1692560">
        <ele>1076.6</ele>
        <time>2019-07-06T09:13:05Z</time>
      </trkpt>
      <trkpt lat="40.8055620" lon="-2.1691080">
        <ele>1076.2</ele>
        <time>2019-07-06T09:13:07Z</time>
      </trkpt>
      <trkpt lat="40.8055900" lon="-2.1690310">
        <ele>1076.0</ele>
        <time>2019-07-06T09:13:08Z</time>
      </trkpt>
      <trkpt lat="40.8056820" lon="-2.1687780">
        <ele>1075.6</ele>
        <time>2019-07-06T09:13:11Z</time>
      </trkpt>
      <trkpt lat="40.8057820" lon="-2.1684860">
        <ele>1074.4</ele>
        <time>2019-07-06T09:13:14Z</time>
      </trkpt>
      <trkpt lat="40.8058520" lon="-2.1682750">
        <ele>1073.4</ele>
        <time>2019-07-06T09:13:16Z</time>
      </trkpt>
      <trkpt lat="40.8059190" lon="-2.1680630">
        <ele>1072.4</ele>
        <time>2019-07-06T09:13:18Z</time>
      </trkpt>
      <trkpt lat="40.8059440" lon="-2.1679630">
        <ele>1072.2</ele>
        <time>2019-07-06T09:13:19Z</time>
      </trkpt>
      <trkpt lat="40.8059600" lon="-2.1677560">
        <ele>1071.2</ele>
        <time>2019-07-06T09:13:21Z</time>
      </trkpt>
      <trkpt lat="40.8059300" lon="-2.1675350">
        <ele>1069.8</ele>
        <time>2019-07-06T09:13:23Z</time>
      </trkpt>
      <trkpt lat="40.8059060" lon="-2.1674200">
        <ele>1069.2</ele>
        <time>2019-07-06T09:13:24Z</time>
      </trkpt>
      <trkpt lat="40.8058840" lon="-2.1673010">
        <ele>1068.8</ele>
        <time>2019-07-06T09:13:25Z</time>
      </trkpt>
      <trkpt lat="40.8058680" lon="-2.1671760">
        <ele>1068.4</ele>
        <time>2019-07-06T09:13:26Z</time>
      </trkpt>
      <trkpt lat="40.8058320" lon="-2.1667850">
        <ele>1067.0</ele>
        <time>2019-07-06T09:13:29Z</time>
      </trkpt>
      <trkpt lat="40.8058260" lon="-2.1666510">
        <ele>1066.4</ele>
        <time>2019-07-06T09:13:30Z</time>
      </trkpt>
      <trkpt lat="40.8058230" lon="-2.1665150">
        <ele>1065.8</ele>
        <time>2019-07-06T09:13:31Z</time>
      </trkpt>
      <trkpt lat="40.8058160" lon="-2.1662450">
        <ele>1064.6</ele>
        <time>2019-07-06T09:13:33Z</time>
      </trkpt>
      <trkpt lat="40.8058160" lon="-2.1659670">
        <ele>1063.0</ele>
        <time>2019-07-06T09:13:35Z</time>
      </trkpt>
      <trkpt lat="40.8058160" lon="-2.1656880">
        <ele>1062.0</ele>
        <time>2019-07-06T09:13:37Z</time>
      </trkpt>
      <trkpt lat="40.8058240" lon="-2.1651910">
        <ele>1060.4</ele>
        <time>2019-07-06T09:13:41Z</time>
      </trkpt>
      <trkpt lat="40.8058610" lon="-2.1649670">
        <ele>1059.4</ele>
        <time>2019-07-06T09:13:43Z</time>
      </trkpt>
      <trkpt lat="40.8058870" lon="-2.1648640">
        <ele>1059.0</ele>
        <time>2019-07-06T09:13:44Z</time>
      </trkpt>
      <trkpt lat="40.8059170" lon="-2.1647660">
        <ele>1058.8</ele>
        <time>2019-07-06T09:13:45Z</time>
      </trkpt>
      <trkpt lat="40.8060780" lon="-2.1643140">
        <ele>1059.2</ele>
        <time>2019-07-06T09:13:50Z</time>
      </trkpt>
      <trkpt lat="40.8061860" lon="-2.1640790">
        <ele>1058.8</ele>
        <time>2019-07-06T09:13:53Z</time>
      </trkpt>
      <trkpt lat="40.8062280" lon="-2.1640140">
        <ele>1058.6</ele>
        <time>2019-07-06T09:13:54Z</time>
      </trkpt>
      <trkpt lat="40.8064520" lon="-2.1638450">
        <ele>1059.0</ele>
        <time>2019-07-06T09:13:58Z</time>
      </trkpt>
      <trkpt lat="40.8065160" lon="-2.1638280">
        <ele>1059.0</ele>
        <time>2019-07-06T09:13:59Z</time>
      </trkpt>
      <trkpt lat="40.8069070" lon="-2.1637200">
        <ele>1058.6</ele>
        <time>2019-07-06T09:14:05Z</time>
      </trkpt>
      <trkpt lat="40.8069690" lon="-2.1636940">
        <ele>1058.6</ele>
        <time>2019-07-06T09:14:06Z</time>
      </trkpt>
      <trkpt lat="40.8072230" lon="-2.1635510">
        <ele>1057.6</ele>
        <time>2019-07-06T09:14:10Z</time>
      </trkpt>
      <trkpt lat="40.8074030" lon="-2.1634130">
        <ele>1056.0</ele>
        <time>2019-07-06T09:14:13Z</time>
      </trkpt>
      <trkpt lat="40.8074520" lon="-2.1633600">
        <ele>1055.8</ele>
        <time>2019-07-06T09:14:14Z</time>
      </trkpt>
      <trkpt lat="40.8074890" lon="-2.1632950">
        <ele>1055.4</ele>
        <time>2019-07-06T09:14:15Z</time>
      </trkpt>
      <trkpt lat="40.8075430" lon="-2.1631370">
        <ele>1055.0</ele>
        <time>2019-07-06T09:14:17Z</time>
      </trkpt>
      <trkpt lat="40.8075970" lon="-2.1629590">
        <ele>1054.6</ele>
        <time>2019-07-06T09:14:19Z</time>
      </trkpt>
      <trkpt lat="40.8076540" lon="-2.1627820">
        <ele>1053.8</ele>
        <time>2019-07-06T09:14:21Z</time>
      </trkpt>
      <trkpt lat="40.8077220" lon="-2.1626090">
        <ele>1052.8</ele>
        <time>2019-07-06T09:14:23Z</time>
      </trkpt>
      <trkpt lat="40.8077650" lon="-2.1625330">
        <ele>1052.6</ele>
        <time>2019-07-06T09:14:24Z</time>
      </trkpt>
      <trkpt lat="40.8078080" lon="-2.1624620">
        <ele>1052.2</ele>
        <time>2019-07-06T09:14:25Z</time>
      </trkpt>
      <trkpt lat="40.8078630" lon="-2.1623100">
        <ele>1051.4</ele>
        <time>2019-07-06T09:14:27Z</time>
      </trkpt>
      <trkpt lat="40.8078770" lon="-2.1622240">
        <ele>1051.2</ele>
        <time>2019-07-06T09:14:28Z</time>
      </trkpt>
      <trkpt lat="40.8078750" lon="-2.1620340">
        <ele>1050.6</ele>
        <time>2019-07-06T09:14:30Z</time>
      </trkpt>
      <trkpt lat="40.8078670" lon="-2.1619340">
        <ele>1050.2</ele>
        <time>2019-07-06T09:14:31Z</time>
      </trkpt>
      <trkpt lat="40.8078570" lon="-2.1618320">
        <ele>1050.0</ele>
        <time>2019-07-06T09:14:32Z</time>
      </trkpt>
      <trkpt lat="40.8078280" lon="-2.1616220">
        <ele>1049.0</ele>
        <time>2019-07-06T09:14:34Z</time>
      </trkpt>
      <trkpt lat="40.8078030" lon="-2.1615190">
        <ele>1048.6</ele>
        <time>2019-07-06T09:14:35Z</time>
      </trkpt>
      <trkpt lat="40.8077390" lon="-2.1613120">
        <ele>1047.2</ele>
        <time>2019-07-06T09:14:37Z</time>
      </trkpt>
      <trkpt lat="40.8076780" lon="-2.1610870">
        <ele>1046.0</ele>
        <time>2019-07-06T09:14:39Z</time>
      </trkpt>
      <trkpt lat="40.8076420" lon="-2.1608450">
        <ele>1044.8</ele>
        <time>2019-07-06T09:14:41Z</time>
      </trkpt>
      <trkpt lat="40.8076160" lon="-2.1606170">
        <ele>1043.4</ele>
        <time>2019-07-06T09:14:43Z</time>
      </trkpt>
      <trkpt lat="40.8075890" lon="-2.1604200">
        <ele>1042.4</ele>
        <time>2019-07-06T09:14:45Z</time>
      </trkpt>
      <trkpt lat="40.8075570" lon="-2.1602360">
        <ele>1041.0</ele>
        <time>2019-07-06T09:14:47Z</time>
      </trkpt>
      <trkpt lat="40.8075480" lon="-2.1601490">
        <ele>1040.4</ele>
        <time>2019-07-06T09:14:48Z</time>
      </trkpt>
      <trkpt lat="40.8075410" lon="-2.1599790">
        <ele>1039.8</ele>
        <time>2019-07-06T09:14:50Z</time>
      </trkpt>
      <trkpt lat="40.8075470" lon="-2.1597110">
        <ele>1038.6</ele>
        <time>2019-07-06T09:14:53Z</time>
      </trkpt>
      <trkpt lat="40.8075640" lon="-2.1596200">
        <ele>1038.6</ele>
        <time>2019-07-06T09:14:54Z</time>
      </trkpt>
      <trkpt lat="40.8075910" lon="-2.1595350">
        <ele>1038.4</ele>
        <time>2019-07-06T09:14:55Z</time>
      </trkpt>
      <trkpt lat="40.8077720" lon="-2.1591430">
        <ele>1037.6</ele>
        <time>2019-07-06T09:15:00Z</time>
      </trkpt>
      <trkpt lat="40.8077890" lon="-2.1590530">
        <ele>1037.6</ele>
        <time>2019-07-06T09:15:01Z</time>
      </trkpt>
      <trkpt lat="40.8077860" lon="-2.1587200">
        <ele>1036.6</ele>
        <time>2019-07-06T09:15:05Z</time>
      </trkpt>
      <trkpt lat="40.8077910" lon="-2.1586440">
        <ele>1036.6</ele>
        <time>2019-07-06T09:15:06Z</time>
      </trkpt>
      <trkpt lat="40.8078050" lon="-2.1585740">
        <ele>1036.6</ele>
        <time>2019-07-06T09:15:07Z</time>
      </trkpt>
      <trkpt lat="40.8078460" lon="-2.1584460">
        <ele>1037.0</ele>
        <time>2019-07-06T09:15:09Z</time>
      </trkpt>
      <trkpt lat="40.8078700" lon="-2.1583880">
        <ele>1037.2</ele>
        <time>2019-07-06T09:15:10Z</time>
      </trkpt>
      <trkpt lat="40.8078920" lon="-2.1583290">
        <ele>1037.4</ele>
        <time>2019-07-06T09:15:11Z</time>
      </trkpt>
      <trkpt lat="40.8079130" lon="-2.1582690">
        <ele>1037.8</ele>
        <time>2019-07-06T09:15:12Z</time>
      </trkpt>
      <trkpt lat="40.8079510" lon="-2.1581520">
        <ele>1038.2</ele>
        <time>2019-07-06T09:15:14Z</time>
      </trkpt>
      <trkpt lat="40.8079880" lon="-2.1580380">
        <ele>1038.4</ele>
        <time>2019-07-06T09:15:16Z</time>
      </trkpt>
      <trkpt lat="40.8080090" lon="-2.1579780">
        <ele>1038.8</ele>
        <time>2019-07-06T09:15:17Z</time>
      </trkpt>
      <trkpt lat="40.8080550" lon="-2.1578540">
        <ele>1038.8</ele>
        <time>2019-07-06T09:15:19Z</time>
      </trkpt>
      <trkpt lat="40.8081540" lon="-2.1575990">
        <ele>1039.2</ele>
        <time>2019-07-06T09:15:23Z</time>
      </trkpt>
      <trkpt lat="40.8082070" lon="-2.1574680">
        <ele>1039.6</ele>
        <time>2019-07-06T09:15:25Z</time>
      </trkpt>
      <trkpt lat="40.8082790" lon="-2.1572660">
        <ele>1039.4</ele>
        <time>2019-07-06T09:15:28Z</time>
      </trkpt>
      <trkpt lat="40.8082960" lon="-2.1571950">
        <ele>1039.4</ele>
        <time>2019-07-06T09:15:29Z</time>
      </trkpt>
      <trkpt lat="40.8082960" lon="-2.1570440">
        <ele>1039.2</ele>
        <time>2019-07-06T09:15:31Z</time>
      </trkpt>
      <trkpt lat="40.8081970" lon="-2.1568470">
        <ele>1038.8</ele>
        <time>2019-07-06T09:15:34Z</time>
      </trkpt>
      <trkpt lat="40.8080510" lon="-2.1567050">
        <ele>1038.6</ele>
        <time>2019-07-06T09:15:37Z</time>
      </trkpt>
      <trkpt lat="40.8080060" lon="-2.1566500">
        <ele>1038.4</ele>
        <time>2019-07-06T09:15:38Z</time>
      </trkpt>
      <trkpt lat="40.8079140" lon="-2.1565330">
        <ele>1038.0</ele>
        <time>2019-07-06T09:15:40Z</time>
      </trkpt>
      <trkpt lat="40.8078570" lon="-2.1564820">
        <ele>1037.6</ele>
        <time>2019-07-06T09:15:41Z</time>
      </trkpt>
      <trkpt lat="40.8077960" lon="-2.1564440">
        <ele>1037.6</ele>
        <time>2019-07-06T09:15:42Z</time>
      </trkpt>
      <trkpt lat="40.8076700" lon="-2.1563920">
        <ele>1037.0</ele>
        <time>2019-07-06T09:15:44Z</time>
      </trkpt>
      <trkpt lat="40.8075390" lon="-2.1563380">
        <ele>1036.8</ele>
        <time>2019-07-06T09:15:46Z</time>
      </trkpt>
      <trkpt lat="40.8074760" lon="-2.1563010">
        <ele>1036.6</ele>
        <time>2019-07-06T09:15:47Z</time>
      </trkpt>
      <trkpt lat="40.8074130" lon="-2.1562580">
        <ele>1036.6</ele>
        <time>2019-07-06T09:15:48Z</time>
      </trkpt>
      <trkpt lat="40.8073000" lon="-2.1561740">
        <ele>1036.2</ele>
        <time>2019-07-06T09:15:50Z</time>
      </trkpt>
      <trkpt lat="40.8072550" lon="-2.1561330">
        <ele>1036.0</ele>
        <time>2019-07-06T09:15:51Z</time>
      </trkpt>
      <trkpt lat="40.8072250" lon="-2.1560880">
        <ele>1035.8</ele>
        <time>2019-07-06T09:15:52Z</time>
      </trkpt>
      <trkpt lat="40.8072120" lon="-2.1559770">
        <ele>1035.4</ele>
        <time>2019-07-06T09:15:54Z</time>
      </trkpt>
      <trkpt lat="40.8072290" lon="-2.1559190">
        <ele>1035.2</ele>
        <time>2019-07-06T09:15:55Z</time>
      </trkpt>
      <trkpt lat="40.8073580" lon="-2.1558140">
        <ele>1034.4</ele>
        <time>2019-07-06T09:15:58Z</time>
      </trkpt>
      <trkpt lat="40.8075300" lon="-2.1557200">
        <ele>1033.0</ele>
        <time>2019-07-06T09:16:01Z</time>
      </trkpt>
      <trkpt lat="40.8075910" lon="-2.1556870">
        <ele>1032.8</ele>
        <time>2019-07-06T09:16:02Z</time>
      </trkpt>
      <trkpt lat="40.8076560" lon="-2.1556580">
        <ele>1032.6</ele>
        <time>2019-07-06T09:16:03Z</time>
      </trkpt>
      <trkpt lat="40.8078660" lon="-2.1555720">
        <ele>1032.2</ele>
        <time>2019-07-06T09:16:06Z</time>
      </trkpt>
      <trkpt lat="40.8079380" lon="-2.1555380">
        <ele>1032.0</ele>
        <time>2019-07-06T09:16:07Z</time>
      </trkpt>
      <trkpt lat="40.8080830" lon="-2.1554640">
        <ele>1031.4</ele>
        <time>2019-07-06T09:16:09Z</time>
      </trkpt>
      <trkpt lat="40.8082270" lon="-2.1553850">
        <ele>1031.0</ele>
        <time>2019-07-06T09:16:11Z</time>
      </trkpt>
      <trkpt lat="40.8083520" lon="-2.1552660">
        <ele>1030.4</ele>
        <time>2019-07-06T09:16:13Z</time>
      </trkpt>
      <trkpt lat="40.8084490" lon="-2.1551200">
        <ele>1029.6</ele>
        <time>2019-07-06T09:16:15Z</time>
      </trkpt>
      <trkpt lat="40.8085130" lon="-2.1549730">
        <ele>1028.8</ele>
        <time>2019-07-06T09:16:17Z</time>
      </trkpt>
      <trkpt lat="40.8085230" lon="-2.1548950">
        <ele>1028.4</ele>
        <time>2019-07-06T09:16:18Z</time>
      </trkpt>
      <trkpt lat="40.8084860" lon="-2.1547550">
        <ele>1027.6</ele>
        <time>2019-07-06T09:16:20Z</time>
      </trkpt>
      <trkpt lat="40.8084450" lon="-2.1547170">
        <ele>1027.0</ele>
        <time>2019-07-06T09:16:21Z</time>
      </trkpt>
      <trkpt lat="40.8083560" lon="-2.1547010">
        <ele>1026.4</ele>
        <time>2019-07-06T09:16:23Z</time>
      </trkpt>
      <trkpt lat="40.8083120" lon="-2.1547060">
        <ele>1026.4</ele>
        <time>2019-07-06T09:16:24Z</time>
      </trkpt>
      <trkpt lat="40.8082680" lon="-2.1547060">
        <ele>1026.4</ele>
        <time>2019-07-06T09:16:25Z</time>
      </trkpt>
      <trkpt lat="40.8082240" lon="-2.1547000">
        <ele>1026.8</ele>
        <time>2019-07-06T09:16:26Z</time>
      </trkpt>
      <trkpt lat="40.8081810" lon="-2.1546910">
        <ele>1027.2</ele>
        <time>2019-07-06T09:16:27Z</time>
      </trkpt>
      <trkpt lat="40.8080980" lon="-2.1546670">
        <ele>1027.8</ele>
        <time>2019-07-06T09:16:29Z</time>
      </trkpt>
      <trkpt lat="40.8080570" lon="-2.1546390">
        <ele>1028.2</ele>
        <time>2019-07-06T09:16:30Z</time>
      </trkpt>
      <trkpt lat="40.8079820" lon="-2.1545790">
        <ele>1028.6</ele>
        <time>2019-07-06T09:16:32Z</time>
      </trkpt>
      <trkpt lat="40.8079070" lon="-2.1545220">
        <ele>1029.2</ele>
        <time>2019-07-06T09:16:34Z</time>
      </trkpt>
      <trkpt lat="40.8078680" lon="-2.1544970">
        <ele>1029.2</ele>
        <time>2019-07-06T09:16:35Z</time>
      </trkpt>
      <trkpt lat="40.8078280" lon="-2.1544760">
        <ele>1029.4</ele>
        <time>2019-07-06T09:16:36Z</time>
      </trkpt>
      <trkpt lat="40.8076550" lon="-2.1544390">
        <ele>1029.2</ele>
        <time>2019-07-06T09:16:40Z</time>
      </trkpt>
      <trkpt lat="40.8074710" lon="-2.1544410">
        <ele>1029.6</ele>
        <time>2019-07-06T09:16:44Z</time>
      </trkpt>
      <trkpt lat="40.8074290" lon="-2.1544450">
        <ele>1029.6</ele>
        <time>2019-07-06T09:16:45Z</time>
      </trkpt>
      <trkpt lat="40.8073480" lon="-2.1544620">
        <ele>1029.8</ele>
        <time>2019-07-06T09:16:47Z</time>
      </trkpt>
      <trkpt lat="40.8071450" lon="-2.1544810">
        <ele>1030.2</ele>
        <time>2019-07-06T09:16:52Z</time>
      </trkpt>
      <trkpt lat="40.8071050" lon="-2.1544790">
        <ele>1030.2</ele>
        <time>2019-07-06T09:16:53Z</time>
      </trkpt>
      <trkpt lat="40.8070630" lon="-2.1544700">
        <ele>1030.4</ele>
        <time>2019-07-06T09:16:54Z</time>
      </trkpt>
      <trkpt lat="40.8069560" lon="-2.1543910">
        <ele>1031.2</ele>
        <time>2019-07-06T09:16:57Z</time>
      </trkpt>
      <trkpt lat="40.8069030" lon="-2.1543120">
        <ele>1031.6</ele>
        <time>2019-07-06T09:16:59Z</time>
      </trkpt>
      <trkpt lat="40.8068620" lon="-2.1542120">
        <ele>1031.6</ele>
        <time>2019-07-06T09:17:01Z</time>
      </trkpt>
      <trkpt lat="40.8066930" lon="-2.1538500">
        <ele>1032.0</ele>
        <time>2019-07-06T09:17:08Z</time>
      </trkpt>
      <trkpt lat="40.8065660" lon="-2.1536530">
        <ele>1032.2</ele>
        <time>2019-07-06T09:17:12Z</time>
      </trkpt>
      <trkpt lat="40.8065250" lon="-2.1536150">
        <ele>1032.2</ele>
        <time>2019-07-06T09:17:13Z</time>
      </trkpt>
      <trkpt lat="40.8062010" lon="-2.1534300">
        <ele>1032.2</ele>
        <time>2019-07-06T09:17:20Z</time>
      </trkpt>
      <trkpt lat="40.8059670" lon="-2.1532880">
        <ele>1032.6</ele>
        <time>2019-07-06T09:17:25Z</time>
      </trkpt>
      <trkpt lat="40.8057730" lon="-2.1531540">
        <ele>1032.6</ele>
        <time>2019-07-06T09:17:29Z</time>
      </trkpt>
      <trkpt lat="40.8055700" lon="-2.1530370">
        <ele>1032.2</ele>
        <time>2019-07-06T09:17:33Z</time>
      </trkpt>
      <trkpt lat="40.8054620" lon="-2.1529990">
        <ele>1032.2</ele>
        <time>2019-07-06T09:17:35Z</time>
      </trkpt>
      <trkpt lat="40.8053520" lon="-2.1529690">
        <ele>1032.4</ele>
        <time>2019-07-06T09:17:37Z</time>
      </trkpt>
      <trkpt lat="40.8052450" lon="-2.1529810">
        <ele>1032.4</ele>
        <time>2019-07-06T09:17:39Z</time>
      </trkpt>
      <trkpt lat="40.8051420" lon="-2.1530470">
        <ele>1032.4</ele>
        <time>2019-07-06T09:17:41Z</time>
      </trkpt>
      <trkpt lat="40.8051040" lon="-2.1531050">
        <ele>1032.6</ele>
        <time>2019-07-06T09:17:42Z</time>
      </trkpt>
      <trkpt lat="40.8050460" lon="-2.1532400">
        <ele>1032.4</ele>
        <time>2019-07-06T09:17:44Z</time>
      </trkpt>
      <trkpt lat="40.8049870" lon="-2.1533710">
        <ele>1032.0</ele>
        <time>2019-07-06T09:17:46Z</time>
      </trkpt>
      <trkpt lat="40.8049510" lon="-2.1534340">
        <ele>1032.0</ele>
        <time>2019-07-06T09:17:47Z</time>
      </trkpt>
      <trkpt lat="40.8048670" lon="-2.1535500">
        <ele>1031.6</ele>
        <time>2019-07-06T09:17:49Z</time>
      </trkpt>
      <trkpt lat="40.8047630" lon="-2.1536420">
        <ele>1031.4</ele>
        <time>2019-07-06T09:17:51Z</time>
      </trkpt>
      <trkpt lat="40.8047020" lon="-2.1536750">
        <ele>1031.4</ele>
        <time>2019-07-06T09:17:52Z</time>
      </trkpt>
      <trkpt lat="40.8046380" lon="-2.1536990">
        <ele>1031.2</ele>
        <time>2019-07-06T09:17:53Z</time>
      </trkpt>
      <trkpt lat="40.8045150" lon="-2.1537020">
        <ele>1030.8</ele>
        <time>2019-07-06T09:17:55Z</time>
      </trkpt>
      <trkpt lat="40.8043950" lon="-2.1536430">
        <ele>1030.0</ele>
        <time>2019-07-06T09:17:57Z</time>
      </trkpt>
      <trkpt lat="40.8043450" lon="-2.1535960">
        <ele>1029.4</ele>
        <time>2019-07-06T09:17:58Z</time>
      </trkpt>
      <trkpt lat="40.8043050" lon="-2.1535390">
        <ele>1029.0</ele>
        <time>2019-07-06T09:17:59Z</time>
      </trkpt>
      <trkpt lat="40.8042590" lon="-2.1533970">
        <ele>1027.6</ele>
        <time>2019-07-06T09:18:01Z</time>
      </trkpt>
      <trkpt lat="40.8042540" lon="-2.1532210">
        <ele>1026.4</ele>
        <time>2019-07-06T09:18:03Z</time>
      </trkpt>
      <trkpt lat="40.8042610" lon="-2.1531280">
        <ele>1026.2</ele>
        <time>2019-07-06T09:18:04Z</time>
      </trkpt>
      <trkpt lat="40.8042690" lon="-2.1530310">
        <ele>1026.0</ele>
        <time>2019-07-06T09:18:05Z</time>
      </trkpt>
      <trkpt lat="40.8042790" lon="-2.1528340">
        <ele>1025.2</ele>
        <time>2019-07-06T09:18:07Z</time>
      </trkpt>
      <trkpt lat="40.8042780" lon="-2.1527400">
        <ele>1024.8</ele>
        <time>2019-07-06T09:18:08Z</time>
      </trkpt>
      <trkpt lat="40.8042510" lon="-2.1525680">
        <ele>1023.4</ele>
        <time>2019-07-06T09:18:10Z</time>
      </trkpt>
      <trkpt lat="40.8041740" lon="-2.1524390">
        <ele>1022.6</ele>
        <time>2019-07-06T09:18:12Z</time>
      </trkpt>
      <trkpt lat="40.8041230" lon="-2.1523920">
        <ele>1022.6</ele>
        <time>2019-07-06T09:18:13Z</time>
      </trkpt>
      <trkpt lat="40.8038720" lon="-2.1522930">
        <ele>1021.8</ele>
        <time>2019-07-06T09:18:17Z</time>
      </trkpt>
      <trkpt lat="40.8037290" lon="-2.1523040">
        <ele>1021.2</ele>
        <time>2019-07-06T09:18:19Z</time>
      </trkpt>
      <trkpt lat="40.8035950" lon="-2.1523580">
        <ele>1021.0</ele>
        <time>2019-07-06T09:18:21Z</time>
      </trkpt>
      <trkpt lat="40.8035310" lon="-2.1523990">
        <ele>1020.6</ele>
        <time>2019-07-06T09:18:22Z</time>
      </trkpt>
      <trkpt lat="40.8034670" lon="-2.1524450">
        <ele>1020.2</ele>
        <time>2019-07-06T09:18:23Z</time>
      </trkpt>
      <trkpt lat="40.8033360" lon="-2.1525340">
        <ele>1018.8</ele>
        <time>2019-07-06T09:18:25Z</time>
      </trkpt>
      <trkpt lat="40.8031930" lon="-2.1525830">
        <ele>1017.8</ele>
        <time>2019-07-06T09:18:27Z</time>
      </trkpt>
      <trkpt lat="40.8030410" lon="-2.1526020">
        <ele>1016.8</ele>
        <time>2019-07-06T09:18:29Z</time>
      </trkpt>
      <trkpt lat="40.8029050" lon="-2.1526550">
        <ele>1015.6</ele>
        <time>2019-07-06T09:18:31Z</time>
      </trkpt>
      <trkpt lat="40.8027860" lon="-2.1527440">
        <ele>1014.6</ele>
        <time>2019-07-06T09:18:33Z</time>
      </trkpt>
      <trkpt lat="40.8027230" lon="-2.1527850">
        <ele>1014.2</ele>
        <time>2019-07-06T09:18:34Z</time>
      </trkpt>
      <trkpt lat="40.8025780" lon="-2.1528500">
        <ele>1013.2</ele>
        <time>2019-07-06T09:18:36Z</time>
      </trkpt>
      <trkpt lat="40.8024160" lon="-2.1528970">
        <ele>1012.2</ele>
        <time>2019-07-06T09:18:38Z</time>
      </trkpt>
      <trkpt lat="40.8022610" lon="-2.1529520">
        <ele>1010.8</ele>
        <time>2019-07-06T09:18:40Z</time>
      </trkpt>
      <trkpt lat="40.8021930" lon="-2.1529920">
        <ele>1010.0</ele>
        <time>2019-07-06T09:18:41Z</time>
      </trkpt>
      <trkpt lat="40.8021280" lon="-2.1530450">
        <ele>1009.6</ele>
        <time>2019-07-06T09:18:42Z</time>
      </trkpt>
      <trkpt lat="40.8019320" lon="-2.1532670">
        <ele>1008.2</ele>
        <time>2019-07-06T09:18:45Z</time>
      </trkpt>
      <trkpt lat="40.8018210" lon="-2.1534420">
        <ele>1006.8</ele>
        <time>2019-07-06T09:18:47Z</time>
      </trkpt>
      <trkpt lat="40.8017700" lon="-2.1535350">
        <ele>1006.0</ele>
        <time>2019-07-06T09:18:48Z</time>
      </trkpt>
      <trkpt lat="40.8017250" lon="-2.1536260">
        <ele>1005.2</ele>
        <time>2019-07-06T09:18:49Z</time>
      </trkpt>
      <trkpt lat="40.8016890" lon="-2.1537160">
        <ele>1004.4</ele>
        <time>2019-07-06T09:18:50Z</time>
      </trkpt>
      <trkpt lat="40.8016600" lon="-2.1538030">
        <ele>1003.6</ele>
        <time>2019-07-06T09:18:51Z</time>
      </trkpt>
      <trkpt lat="40.8015930" lon="-2.1540400">
        <ele>1002.0</ele>
        <time>2019-07-06T09:18:54Z</time>
      </trkpt>
      <trkpt lat="40.8015620" lon="-2.1541030">
        <ele>1001.4</ele>
        <time>2019-07-06T09:18:55Z</time>
      </trkpt>
      <trkpt lat="40.8014550" lon="-2.1541810">
        <ele>1000.6</ele>
        <time>2019-07-06T09:18:57Z</time>
      </trkpt>
      <trkpt lat="40.8013850" lon="-2.1541920">
        <ele>1000.2</ele>
        <time>2019-07-06T09:18:58Z</time>
      </trkpt>
      <trkpt lat="40.8012230" lon="-2.1541960">
        <ele>999.2</ele>
        <time>2019-07-06T09:19:00Z</time>
      </trkpt>
      <trkpt lat="40.8011390" lon="-2.1542060">
        <ele>998.2</ele>
        <time>2019-07-06T09:19:01Z</time>
      </trkpt>
      <trkpt lat="40.8010590" lon="-2.1542100">
        <ele>997.4</ele>
        <time>2019-07-06T09:19:02Z</time>
      </trkpt>
      <trkpt lat="40.8008960" lon="-2.1541620">
        <ele>996.4</ele>
        <time>2019-07-06T09:19:04Z</time>
      </trkpt>
      <trkpt lat="40.8008180" lon="-2.1541210">
        <ele>995.6</ele>
        <time>2019-07-06T09:19:05Z</time>
      </trkpt>
      <trkpt lat="40.8007520" lon="-2.1540870">
        <ele>994.8</ele>
        <time>2019-07-06T09:19:06Z</time>
      </trkpt>
      <trkpt lat="40.8006310" lon="-2.1540540">
        <ele>993.6</ele>
        <time>2019-07-06T09:19:08Z</time>
      </trkpt>
      <trkpt lat="40.8005020" lon="-2.1540810">
        <ele>992.6</ele>
        <time>2019-07-06T09:19:10Z</time>
      </trkpt>
      <trkpt lat="40.8004340" lon="-2.1541140">
        <ele>992.0</ele>
        <time>2019-07-06T09:19:11Z</time>
      </trkpt>
      <trkpt lat="40.8003620" lon="-2.1541550">
        <ele>991.2</ele>
        <time>2019-07-06T09:19:12Z</time>
      </trkpt>
      <trkpt lat="40.8002050" lon="-2.1542330">
        <ele>990.0</ele>
        <time>2019-07-06T09:19:14Z</time>
      </trkpt>
      <trkpt lat="40.8001250" lon="-2.1542670">
        <ele>989.6</ele>
        <time>2019-07-06T09:19:15Z</time>
      </trkpt>
      <trkpt lat="40.7999840" lon="-2.1543490">
        <ele>988.8</ele>
        <time>2019-07-06T09:19:17Z</time>
      </trkpt>
      <trkpt lat="40.7998780" lon="-2.1544710">
        <ele>987.4</ele>
        <time>2019-07-06T09:19:19Z</time>
      </trkpt>
      <trkpt lat="40.7998010" lon="-2.1546220">
        <ele>986.6</ele>
        <time>2019-07-06T09:19:21Z</time>
      </trkpt>
      <trkpt lat="40.7997660" lon="-2.1546950">
        <ele>986.0</ele>
        <time>2019-07-06T09:19:22Z</time>
      </trkpt>
      <trkpt lat="40.7996960" lon="-2.1548310">
        <ele>984.8</ele>
        <time>2019-07-06T09:19:24Z</time>
      </trkpt>
      <trkpt lat="40.7996620" lon="-2.1548910">
        <ele>984.2</ele>
        <time>2019-07-06T09:19:25Z</time>
      </trkpt>
      <trkpt lat="40.7996250" lon="-2.1549340">
        <ele>983.4</ele>
        <time>2019-07-06T09:19:26Z</time>
      </trkpt>
      <trkpt lat="40.7995840" lon="-2.1549550">
        <ele>982.6</ele>
        <time>2019-07-06T09:19:27Z</time>
      </trkpt>
      <trkpt lat="40.7995380" lon="-2.1549450">
        <ele>982.0</ele>
        <time>2019-07-06T09:19:28Z</time>
      </trkpt>
      <trkpt lat="40.7994960" lon="-2.1549040">
        <ele>981.6</ele>
        <time>2019-07-06T09:19:29Z</time>
      </trkpt>
      <trkpt lat="40.7994460" lon="-2.1547600">
        <ele>980.8</ele>
        <time>2019-07-06T09:19:31Z</time>
      </trkpt>
      <trkpt lat="40.7994380" lon="-2.1546660">
        <ele>980.6</ele>
        <time>2019-07-06T09:19:32Z</time>
      </trkpt>
      <trkpt lat="40.7994380" lon="-2.1544600">
        <ele>979.4</ele>
        <time>2019-07-06T09:19:34Z</time>
      </trkpt>
      <trkpt lat="40.7994580" lon="-2.1542360">
        <ele>978.2</ele>
        <time>2019-07-06T09:19:36Z</time>
      </trkpt>
      <trkpt lat="40.7994750" lon="-2.1541220">
        <ele>977.8</ele>
        <time>2019-07-06T09:19:37Z</time>
      </trkpt>
      <trkpt lat="40.7995210" lon="-2.1538950">
        <ele>976.2</ele>
        <time>2019-07-06T09:19:39Z</time>
      </trkpt>
      <trkpt lat="40.7995750" lon="-2.1536650">
        <ele>974.6</ele>
        <time>2019-07-06T09:19:41Z</time>
      </trkpt>
      <trkpt lat="40.7996080" lon="-2.1535540">
        <ele>973.6</ele>
        <time>2019-07-06T09:19:42Z</time>
      </trkpt>
      <trkpt lat="40.7996440" lon="-2.1534520">
        <ele>973.2</ele>
        <time>2019-07-06T09:19:43Z</time>
      </trkpt>
      <trkpt lat="40.7997110" lon="-2.1532400">
        <ele>971.8</ele>
        <time>2019-07-06T09:19:45Z</time>
      </trkpt>
      <trkpt lat="40.7997620" lon="-2.1530140">
        <ele>970.6</ele>
        <time>2019-07-06T09:19:47Z</time>
      </trkpt>
      <trkpt lat="40.7998030" lon="-2.1527720">
        <ele>969.6</ele>
        <time>2019-07-06T09:19:49Z</time>
      </trkpt>
      <trkpt lat="40.7998530" lon="-2.1523960">
        <ele>968.4</ele>
        <time>2019-07-06T09:19:52Z</time>
      </trkpt>
      <trkpt lat="40.7998650" lon="-2.1522750">
        <ele>968.0</ele>
        <time>2019-07-06T09:19:53Z</time>
      </trkpt>
      <trkpt lat="40.7998740" lon="-2.1520400">
        <ele>967.0</ele>
        <time>2019-07-06T09:19:55Z</time>
      </trkpt>
      <trkpt lat="40.7998650" lon="-2.1518270">
        <ele>966.0</ele>
        <time>2019-07-06T09:19:57Z</time>
      </trkpt>
      <trkpt lat="40.7998560" lon="-2.1516410">
        <ele>964.6</ele>
        <time>2019-07-06T09:19:59Z</time>
      </trkpt>
      <trkpt lat="40.7998870" lon="-2.1514750">
        <ele>963.8</ele>
        <time>2019-07-06T09:20:01Z</time>
      </trkpt>
      <trkpt lat="40.7999270" lon="-2.1514060">
        <ele>963.4</ele>
        <time>2019-07-06T09:20:02Z</time>
      </trkpt>
      <trkpt lat="40.8000130" lon="-2.1512680">
        <ele>962.6</ele>
        <time>2019-07-06T09:20:04Z</time>
      </trkpt>
      <trkpt lat="40.8000400" lon="-2.1511900">
        <ele>962.0</ele>
        <time>2019-07-06T09:20:05Z</time>
      </trkpt>
      <trkpt lat="40.8000470" lon="-2.1510260">
        <ele>960.0</ele>
        <time>2019-07-06T09:20:07Z</time>
      </trkpt>
      <trkpt lat="40.8000490" lon="-2.1509430">
        <ele>959.0</ele>
        <time>2019-07-06T09:20:08Z</time>
      </trkpt>
      <trkpt lat="40.8001010" lon="-2.1507750">
        <ele>957.8</ele>
        <time>2019-07-06T09:20:10Z</time>
      </trkpt>
      <trkpt lat="40.8001900" lon="-2.1506170">
        <ele>956.6</ele>
        <time>2019-07-06T09:20:12Z</time>
      </trkpt>
      <trkpt lat="40.8002190" lon="-2.1505380">
        <ele>956.0</ele>
        <time>2019-07-06T09:20:13Z</time>
      </trkpt>
      <trkpt lat="40.8002280" lon="-2.1504620">
        <ele>955.2</ele>
        <time>2019-07-06T09:20:14Z</time>
      </trkpt>
      <trkpt lat="40.8002140" lon="-2.1503170">
        <ele>954.0</ele>
        <time>2019-07-06T09:20:16Z</time>
      </trkpt>
      <trkpt lat="40.8002100" lon="-2.1502470">
        <ele>953.8</ele>
        <time>2019-07-06T09:20:17Z</time>
      </trkpt>
      <trkpt lat="40.8002300" lon="-2.1501040">
        <ele>953.6</ele>
        <time>2019-07-06T09:20:19Z</time>
      </trkpt>
      <trkpt lat="40.8002970" lon="-2.1499530">
        <ele>953.2</ele>
        <time>2019-07-06T09:20:21Z</time>
      </trkpt>
      <trkpt lat="40.8003410" lon="-2.1498690">
        <ele>952.8</ele>
        <time>2019-07-06T09:20:22Z</time>
      </trkpt>
      <trkpt lat="40.8003870" lon="-2.1497750">
        <ele>952.4</ele>
        <time>2019-07-06T09:20:23Z</time>
      </trkpt>
      <trkpt lat="40.8004380" lon="-2.1496720">
        <ele>951.8</ele>
        <time>2019-07-06T09:20:24Z</time>
      </trkpt>
      <trkpt lat="40.8005340" lon="-2.1494550">
        <ele>949.8</ele>
        <time>2019-07-06T09:20:26Z</time>
      </trkpt>
      <trkpt lat="40.8005780" lon="-2.1493440">
        <ele>948.8</ele>
        <time>2019-07-06T09:20:27Z</time>
      </trkpt>
      <trkpt lat="40.8006200" lon="-2.1492280">
        <ele>947.6</ele>
        <time>2019-07-06T09:20:28Z</time>
      </trkpt>
      <trkpt lat="40.8006640" lon="-2.1491110">
        <ele>946.6</ele>
        <time>2019-07-06T09:20:29Z</time>
      </trkpt>
      <trkpt lat="40.8007060" lon="-2.1489990">
        <ele>945.2</ele>
        <time>2019-07-06T09:20:30Z</time>
      </trkpt>
      <trkpt lat="40.8007860" lon="-2.1487940">
        <ele>944.0</ele>
        <time>2019-07-06T09:20:32Z</time>
      </trkpt>
      <trkpt lat="40.8008430" lon="-2.1485920">
        <ele>942.6</ele>
        <time>2019-07-06T09:20:34Z</time>
      </trkpt>
      <trkpt lat="40.8008940" lon="-2.1483740">
        <ele>940.8</ele>
        <time>2019-07-06T09:20:36Z</time>
      </trkpt>
      <trkpt lat="40.8009180" lon="-2.1482690">
        <ele>940.4</ele>
        <time>2019-07-06T09:20:37Z</time>
      </trkpt>
      <trkpt lat="40.8009410" lon="-2.1481680">
        <ele>939.6</ele>
        <time>2019-07-06T09:20:38Z</time>
      </trkpt>
      <trkpt lat="40.8009910" lon="-2.1479690">
        <ele>938.4</ele>
        <time>2019-07-06T09:20:40Z</time>
      </trkpt>
      <trkpt lat="40.8010460" lon="-2.1477730">
        <ele>937.0</ele>
        <time>2019-07-06T09:20:42Z</time>
      </trkpt>
      <trkpt lat="40.8010770" lon="-2.1476840">
        <ele>936.4</ele>
        <time>2019-07-06T09:20:43Z</time>
      </trkpt>
      <trkpt lat="40.8011090" lon="-2.1476030">
        <ele>935.8</ele>
        <time>2019-07-06T09:20:44Z</time>
      </trkpt>
      <trkpt lat="40.8011610" lon="-2.1474710">
        <ele>934.8</ele>
        <time>2019-07-06T09:20:46Z</time>
      </trkpt>
      <trkpt lat="40.8011750" lon="-2.1474190">
        <ele>934.0</ele>
        <time>2019-07-06T09:20:47Z</time>
      </trkpt>
      <trkpt lat="40.8011740" lon="-2.1473790">
        <ele>933.2</ele>
        <time>2019-07-06T09:20:48Z</time>
      </trkpt>
      <trkpt lat="40.8011400" lon="-2.1473320">
        <ele>932.2</ele>
        <time>2019-07-06T09:20:50Z</time>
      </trkpt>
      <trkpt lat="40.8010530" lon="-2.1473900">
        <ele>931.2</ele>
        <time>2019-07-06T09:20:53Z</time>
      </trkpt>
      <trkpt lat="40.8010130" lon="-2.1474930">
        <ele>931.0</ele>
        <time>2019-07-06T09:20:55Z</time>
      </trkpt>
      <trkpt lat="40.8009920" lon="-2.1475500">
        <ele>931.0</ele>
        <time>2019-07-06T09:20:56Z</time>
      </trkpt>
      <trkpt lat="40.8009390" lon="-2.1476570">
        <ele>930.8</ele>
        <time>2019-07-06T09:20:58Z</time>
      </trkpt>
      <trkpt lat="40.8009080" lon="-2.1477090">
        <ele>930.8</ele>
        <time>2019-07-06T09:20:59Z</time>
      </trkpt>
      <trkpt lat="40.8008160" lon="-2.1478680">
        <ele>931.0</ele>
        <time>2019-07-06T09:21:02Z</time>
      </trkpt>
      <trkpt lat="40.8006920" lon="-2.1480890">
        <ele>931.4</ele>
        <time>2019-07-06T09:21:06Z</time>
      </trkpt>
      <trkpt lat="40.8005990" lon="-2.1482560">
        <ele>931.4</ele>
        <time>2019-07-06T09:21:09Z</time>
      </trkpt>
      <trkpt lat="40.8004490" lon="-2.1485680">
        <ele>930.8</ele>
        <time>2019-07-06T09:21:14Z</time>
      </trkpt>
      <trkpt lat="40.8003940" lon="-2.1487010">
        <ele>930.8</ele>
        <time>2019-07-06T09:21:16Z</time>
      </trkpt>
      <trkpt lat="40.8003080" lon="-2.1488990">
        <ele>931.0</ele>
        <time>2019-07-06T09:21:19Z</time>
      </trkpt>
      <trkpt lat="40.8001590" lon="-2.1492370">
        <ele>931.2</ele>
        <time>2019-07-06T09:21:24Z</time>
      </trkpt>
      <trkpt lat="40.8000780" lon="-2.1494550">
        <ele>931.0</ele>
        <time>2019-07-06T09:21:27Z</time>
      </trkpt>
      <trkpt lat="40.7998660" lon="-2.1499420">
        <ele>930.4</ele>
        <time>2019-07-06T09:21:34Z</time>
      </trkpt>
      <trkpt lat="40.7996710" lon="-2.1504370">
        <ele>930.4</ele>
        <time>2019-07-06T09:21:41Z</time>
      </trkpt>
      <trkpt lat="40.7995090" lon="-2.1507970">
        <ele>930.6</ele>
        <time>2019-07-06T09:21:46Z</time>
      </trkpt>
      <trkpt lat="40.7993400" lon="-2.1511710">
        <ele>930.2</ele>
        <time>2019-07-06T09:21:51Z</time>
      </trkpt>
      <trkpt lat="40.7990770" lon="-2.1517290">
        <ele>929.4</ele>
        <time>2019-07-06T09:21:59Z</time>
      </trkpt>
      <trkpt lat="40.7988940" lon="-2.1521390">
        <ele>929.6</ele>
        <time>2019-07-06T09:22:05Z</time>
      </trkpt>
      <trkpt lat="40.7987060" lon="-2.1525490">
        <ele>929.6</ele>
        <time>2019-07-06T09:22:11Z</time>
      </trkpt>
      <trkpt lat="40.7985360" lon="-2.1529610">
        <ele>930.0</ele>
        <time>2019-07-06T09:22:17Z</time>
      </trkpt>
      <trkpt lat="40.7984840" lon="-2.1531040">
        <ele>930.2</ele>
        <time>2019-07-06T09:22:19Z</time>
      </trkpt>
      <trkpt lat="40.7984000" lon="-2.1534060">
        <ele>930.4</ele>
        <time>2019-07-06T09:22:23Z</time>
      </trkpt>
      <trkpt lat="40.7982750" lon="-2.1539130">
        <ele>930.8</ele>
        <time>2019-07-06T09:22:30Z</time>
      </trkpt>
      <trkpt lat="40.7982010" lon="-2.1542000">
        <ele>930.8</ele>
        <time>2019-07-06T09:22:34Z</time>
      </trkpt>
      <trkpt lat="40.7981210" lon="-2.1544120">
        <ele>930.8</ele>
        <time>2019-07-06T09:22:37Z</time>
      </trkpt>
      <trkpt lat="40.7980570" lon="-2.1545500">
        <ele>930.8</ele>
        <time>2019-07-06T09:22:39Z</time>
      </trkpt>
      <trkpt lat="40.7979110" lon="-2.1548110">
        <ele>930.6</ele>
        <time>2019-07-06T09:22:43Z</time>
      </trkpt>
      <trkpt lat="40.7977000" lon="-2.1551000">
        <ele>930.2</ele>
        <time>2019-07-06T09:22:48Z</time>
      </trkpt>
      <trkpt lat="40.7974420" lon="-2.1553430">
        <ele>930.0</ele>
        <time>2019-07-06T09:22:53Z</time>
      </trkpt>
      <trkpt lat="40.7973840" lon="-2.1553800">
        <ele>930.0</ele>
        <time>2019-07-06T09:22:54Z</time>
      </trkpt>
      <trkpt lat="40.7969140" lon="-2.1556220">
        <ele>929.4</ele>
        <time>2019-07-06T09:23:02Z</time>
      </trkpt>
      <trkpt lat="40.7966140" lon="-2.1556880">
        <ele>929.0</ele>
        <time>2019-07-06T09:23:07Z</time>
      </trkpt>
      <trkpt lat="40.7965510" lon="-2.1556960">
        <ele>929.0</ele>
        <time>2019-07-06T09:23:08Z</time>
      </trkpt>
      <trkpt lat="40.7961010" lon="-2.1556980">
        <ele>928.6</ele>
        <time>2019-07-06T09:23:15Z</time>
      </trkpt>
      <trkpt lat="40.7956740" lon="-2.1557050">
        <ele>929.0</ele>
        <time>2019-07-06T09:23:22Z</time>
      </trkpt>
      <trkpt lat="40.7956150" lon="-2.1557070">
        <ele>929.0</ele>
        <time>2019-07-06T09:23:23Z</time>
      </trkpt>
      <trkpt lat="40.7951800" lon="-2.1557120">
        <ele>930.2</ele>
        <time>2019-07-06T09:23:31Z</time>
      </trkpt>
      <trkpt lat="40.7951270" lon="-2.1557170">
        <ele>930.4</ele>
        <time>2019-07-06T09:23:32Z</time>
      </trkpt>
      <trkpt lat="40.7948210" lon="-2.1557370">
        <ele>930.6</ele>
        <time>2019-07-06T09:23:38Z</time>
      </trkpt>
      <trkpt lat="40.7945870" lon="-2.1557540">
        <ele>931.0</ele>
        <time>2019-07-06T09:23:43Z</time>
      </trkpt>
      <trkpt lat="40.7945010" lon="-2.1557540">
        <ele>931.4</ele>
        <time>2019-07-06T09:23:45Z</time>
      </trkpt>
      <trkpt lat="40.7944600" lon="-2.1557540">
        <ele>931.4</ele>
        <time>2019-07-06T09:23:46Z</time>
      </trkpt>
      <trkpt lat="40.7943050" lon="-2.1557530">
        <ele>932.6</ele>
        <time>2019-07-06T09:23:50Z</time>
      </trkpt>
      <trkpt lat="40.7942060" lon="-2.1557540">
        <ele>933.6</ele>
        <time>2019-07-06T09:23:53Z</time>
      </trkpt>
      <trkpt lat="40.7941720" lon="-2.1557580">
        <ele>933.8</ele>
        <time>2019-07-06T09:23:54Z</time>
      </trkpt>
      <trkpt lat="40.7940160" lon="-2.1557570">
        <ele>934.8</ele>
        <time>2019-07-06T09:23:59Z</time>
      </trkpt>
      <trkpt lat="40.7939850" lon="-2.1557590">
        <ele>935.2</ele>
        <time>2019-07-06T09:24:00Z</time>
      </trkpt>
      <trkpt lat="40.7938210" lon="-2.1557590">
        <ele>936.2</ele>
        <time>2019-07-06T09:24:05Z</time>
      </trkpt>
      <trkpt lat="40.7937900" lon="-2.1557590">
        <ele>936.4</ele>
        <time>2019-07-06T09:24:06Z</time>
      </trkpt>
      <trkpt lat="40.7936570" lon="-2.1557660">
        <ele>937.4</ele>
        <time>2019-07-06T09:24:10Z</time>
      </trkpt>
      <trkpt lat="40.7935600" lon="-2.1557690">
        <ele>937.8</ele>
        <time>2019-07-06T09:24:13Z</time>
      </trkpt>
      <trkpt lat="40.7934660" lon="-2.1557720">
        <ele>938.4</ele>
        <time>2019-07-06T09:24:16Z</time>
      </trkpt>
      <trkpt lat="40.7933680" lon="-2.1557780">
        <ele>938.8</ele>
        <time>2019-07-06T09:24:19Z</time>
      </trkpt>
      <trkpt lat="40.7932440" lon="-2.1557780">
        <ele>939.6</ele>
        <time>2019-07-06T09:24:23Z</time>
      </trkpt>
      <trkpt lat="40.7931830" lon="-2.1557830">
        <ele>940.0</ele>
        <time>2019-07-06T09:24:25Z</time>
      </trkpt>
      <trkpt lat="40.7930820" lon="-2.1557830">
        <ele>940.6</ele>
        <time>2019-07-06T09:24:28Z</time>
      </trkpt>
      <trkpt lat="40.7929720" lon="-2.1557870">
        <ele>941.0</ele>
        <time>2019-07-06T09:24:31Z</time>
      </trkpt>
      <trkpt lat="40.7927840" lon="-2.1557490">
        <ele>941.8</ele>
        <time>2019-07-06T09:24:36Z</time>
      </trkpt>
      <trkpt lat="40.7925580" lon="-2.1556170">
        <ele>942.8</ele>
        <time>2019-07-06T09:24:42Z</time>
      </trkpt>
      <trkpt lat="40.7922890" lon="-2.1554940">
        <ele>943.2</ele>
        <time>2019-07-06T09:24:49Z</time>
      </trkpt>
      <trkpt lat="40.7921210" lon="-2.1555010">
        <ele>944.0</ele>
        <time>2019-07-06T09:24:54Z</time>
      </trkpt>
      <trkpt lat="40.7920890" lon="-2.1555070">
        <ele>944.2</ele>
        <time>2019-07-06T09:24:55Z</time>
      </trkpt>
      <trkpt lat="40.7919300" lon="-2.1555510">
        <ele>945.0</ele>
        <time>2019-07-06T09:25:00Z</time>
      </trkpt>
      <trkpt lat="40.7918290" lon="-2.1555890">
        <ele>945.4</ele>
        <time>2019-07-06T09:25:03Z</time>
      </trkpt>
      <trkpt lat="40.7917080" lon="-2.1556580">
        <ele>946.0</ele>
        <time>2019-07-06T09:25:07Z</time>
      </trkpt>
      <trkpt lat="40.7916120" lon="-2.1557260">
        <ele>946.8</ele>
        <time>2019-07-06T09:25:10Z</time>
      </trkpt>
      <trkpt lat="40.7915420" lon="-2.1557710">
        <ele>947.2</ele>
        <time>2019-07-06T09:25:12Z</time>
      </trkpt>
      <trkpt lat="40.7913420" lon="-2.1559260">
        <ele>947.8</ele>
        <time>2019-07-06T09:25:18Z</time>
      </trkpt>
      <trkpt lat="40.7912870" lon="-2.1559940">
        <ele>948.2</ele>
        <time>2019-07-06T09:25:20Z</time>
      </trkpt>
      <trkpt lat="40.7911760" lon="-2.1561610">
        <ele>949.4</ele>
        <time>2019-07-06T09:25:25Z</time>
      </trkpt>
      <trkpt lat="40.7910920" lon="-2.1562920">
        <ele>950.6</ele>
        <time>2019-07-06T09:25:29Z</time>
      </trkpt>
      <trkpt lat="40.7910060" lon="-2.1564150">
        <ele>951.8</ele>
        <time>2019-07-06T09:25:33Z</time>
      </trkpt>
      <trkpt lat="40.7908810" lon="-2.1566070">
        <ele>953.0</ele>
        <time>2019-07-06T09:25:39Z</time>
      </trkpt>
      <trkpt lat="40.7908420" lon="-2.1566710">
        <ele>953.4</ele>
        <time>2019-07-06T09:25:41Z</time>
      </trkpt>
      <trkpt lat="40.7907990" lon="-2.1567830">
        <ele>954.4</ele>
        <time>2019-07-06T09:25:44Z</time>
      </trkpt>
      <trkpt lat="40.7907700" lon="-2.1568990">
        <ele>954.8</ele>
        <time>2019-07-06T09:25:47Z</time>
      </trkpt>
      <trkpt lat="40.7907630" lon="-2.1569810">
        <ele>955.6</ele>
        <time>2019-07-06T09:25:49Z</time>
      </trkpt>
      <trkpt lat="40.7907650" lon="-2.1571340">
        <ele>956.6</ele>
        <time>2019-07-06T09:25:53Z</time>
      </trkpt>
      <trkpt lat="40.7907570" lon="-2.1571500">
        <ele>956.8</ele>
        <time>2019-07-06T09:25:54Z</time>
      </trkpt>
      <trkpt lat="40.7907740" lon="-2.1572070">
        <ele>957.8</ele>
        <time>2019-07-06T09:25:56Z</time>
      </trkpt>
      <trkpt lat="40.7908450" lon="-2.1572910">
        <ele>958.8</ele>
        <time>2019-07-06T09:25:59Z</time>
      </trkpt>
      <trkpt lat="40.7910040" lon="-2.1573780">
        <ele>960.0</ele>
        <time>2019-07-06T09:26:04Z</time>
      </trkpt>
      <trkpt lat="40.7912310" lon="-2.1574250">
        <ele>961.2</ele>
        <time>2019-07-06T09:26:10Z</time>
      </trkpt>
      <trkpt lat="40.7913140" lon="-2.1574340">
        <ele>961.6</ele>
        <time>2019-07-06T09:26:12Z</time>
      </trkpt>
      <trkpt lat="40.7916220" lon="-2.1575210">
        <ele>962.0</ele>
        <time>2019-07-06T09:26:19Z</time>
      </trkpt>
      <trkpt lat="40.7918160" lon="-2.1575870">
        <ele>962.0</ele>
        <time>2019-07-06T09:26:23Z</time>
      </trkpt>
      <trkpt lat="40.7919090" lon="-2.1576510">
        <ele>962.0</ele>
        <time>2019-07-06T09:26:25Z</time>
      </trkpt>
      <trkpt lat="40.7920680" lon="-2.1578790">
        <ele>961.8</ele>
        <time>2019-07-06T09:26:29Z</time>
      </trkpt>
      <trkpt lat="40.7922160" lon="-2.1581620">
        <ele>961.6</ele>
        <time>2019-07-06T09:26:33Z</time>
      </trkpt>
      <trkpt lat="40.7922850" lon="-2.1583170">
        <ele>961.6</ele>
        <time>2019-07-06T09:26:35Z</time>
      </trkpt>
      <trkpt lat="40.7923850" lon="-2.1585530">
        <ele>961.2</ele>
        <time>2019-07-06T09:26:38Z</time>
      </trkpt>
      <trkpt lat="40.7924190" lon="-2.1586330">
        <ele>960.8</ele>
        <time>2019-07-06T09:26:39Z</time>
      </trkpt>
      <trkpt lat="40.7924500" lon="-2.1587130">
        <ele>960.6</ele>
        <time>2019-07-06T09:26:40Z</time>
      </trkpt>
      <trkpt lat="40.7925040" lon="-2.1588760">
        <ele>960.6</ele>
        <time>2019-07-06T09:26:42Z</time>
      </trkpt>
      <trkpt lat="40.7925480" lon="-2.1590460">
        <ele>960.4</ele>
        <time>2019-07-06T09:26:44Z</time>
      </trkpt>
      <trkpt lat="40.7925860" lon="-2.1592190">
        <ele>960.4</ele>
        <time>2019-07-06T09:26:46Z</time>
      </trkpt>
      <trkpt lat="40.7926060" lon="-2.1593070">
        <ele>960.4</ele>
        <time>2019-07-06T09:26:47Z</time>
      </trkpt>
      <trkpt lat="40.7926620" lon="-2.1595590">
        <ele>960.2</ele>
        <time>2019-07-06T09:26:50Z</time>
      </trkpt>
      <trkpt lat="40.7927110" lon="-2.1598990">
        <ele>959.8</ele>
        <time>2019-07-06T09:26:54Z</time>
      </trkpt>
      <trkpt lat="40.7927780" lon="-2.1604000">
        <ele>959.4</ele>
        <time>2019-07-06T09:27:00Z</time>
      </trkpt>
      <trkpt lat="40.7928090" lon="-2.1607720">
        <ele>960.2</ele>
        <time>2019-07-06T09:27:05Z</time>
      </trkpt>
      <trkpt lat="40.7927990" lon="-2.1610710">
        <ele>961.2</ele>
        <time>2019-07-06T09:27:10Z</time>
      </trkpt>
      <trkpt lat="40.7927940" lon="-2.1611230">
        <ele>961.8</ele>
        <time>2019-07-06T09:27:11Z</time>
      </trkpt>
      <trkpt lat="40.7927880" lon="-2.1611730">
        <ele>962.2</ele>
        <time>2019-07-06T09:27:12Z</time>
      </trkpt>
      <trkpt lat="40.7927580" lon="-2.1613670">
        <ele>962.8</ele>
        <time>2019-07-06T09:27:16Z</time>
      </trkpt>
      <trkpt lat="40.7927500" lon="-2.1614570">
        <ele>963.6</ele>
        <time>2019-07-06T09:27:18Z</time>
      </trkpt>
      <trkpt lat="40.7927440" lon="-2.1615010">
        <ele>964.0</ele>
        <time>2019-07-06T09:27:19Z</time>
      </trkpt>
      <trkpt lat="40.7926970" lon="-2.1617520">
        <ele>964.2</ele>
        <time>2019-07-06T09:27:24Z</time>
      </trkpt>
      <trkpt lat="40.7926670" lon="-2.1618970">
        <ele>964.8</ele>
        <time>2019-07-06T09:27:27Z</time>
      </trkpt>
      <trkpt lat="40.7926590" lon="-2.1619470">
        <ele>965.0</ele>
        <time>2019-07-06T09:27:28Z</time>
      </trkpt>
      <trkpt lat="40.7926240" lon="-2.1620980">
        <ele>965.6</ele>
        <time>2019-07-06T09:27:31Z</time>
      </trkpt>
      <trkpt lat="40.7925770" lon="-2.1622970">
        <ele>966.2</ele>
        <time>2019-07-06T09:27:35Z</time>
      </trkpt>
      <trkpt lat="40.7925440" lon="-2.1624100">
        <ele>966.6</ele>
        <time>2019-07-06T09:27:37Z</time>
      </trkpt>
      <trkpt lat="40.7925140" lon="-2.1625160">
        <ele>967.0</ele>
        <time>2019-07-06T09:27:39Z</time>
      </trkpt>
      <trkpt lat="40.7924670" lon="-2.1626740">
        <ele>967.2</ele>
        <time>2019-07-06T09:27:42Z</time>
      </trkpt>
      <trkpt lat="40.7924450" lon="-2.1627240">
        <ele>967.2</ele>
        <time>2019-07-06T09:27:43Z</time>
      </trkpt>
      <trkpt lat="40.7923450" lon="-2.1629090">
        <ele>967.4</ele>
        <time>2019-07-06T09:27:47Z</time>
      </trkpt>
      <trkpt lat="40.7922830" lon="-2.1629860">
        <ele>967.8</ele>
        <time>2019-07-06T09:27:49Z</time>
      </trkpt>
      <trkpt lat="40.7921560" lon="-2.1631290">
        <ele>968.2</ele>
        <time>2019-07-06T09:27:53Z</time>
      </trkpt>
      <trkpt lat="40.7920450" lon="-2.1632910">
        <ele>969.0</ele>
        <time>2019-07-06T09:27:57Z</time>
      </trkpt>
      <trkpt lat="40.7919670" lon="-2.1634510">
        <ele>969.4</ele>
        <time>2019-07-06T09:28:01Z</time>
      </trkpt>
      <trkpt lat="40.7918900" lon="-2.1635980">
        <ele>970.4</ele>
        <time>2019-07-06T09:28:05Z</time>
      </trkpt>
      <trkpt lat="40.7917860" lon="-2.1638150">
        <ele>971.6</ele>
        <time>2019-07-06T09:28:11Z</time>
      </trkpt>
      <trkpt lat="40.7917660" lon="-2.1638510">
        <ele>972.0</ele>
        <time>2019-07-06T09:28:12Z</time>
      </trkpt>
      <trkpt lat="40.7917260" lon="-2.1639180">
        <ele>972.8</ele>
        <time>2019-07-06T09:28:14Z</time>
      </trkpt>
      <trkpt lat="40.7916240" lon="-2.1640530">
        <ele>973.6</ele>
        <time>2019-07-06T09:28:18Z</time>
      </trkpt>
      <trkpt lat="40.7915990" lon="-2.1640880">
        <ele>974.0</ele>
        <time>2019-07-06T09:28:19Z</time>
      </trkpt>
      <trkpt lat="40.7915000" lon="-2.1642250">
        <ele>975.2</ele>
        <time>2019-07-06T09:28:23Z</time>
      </trkpt>
      <trkpt lat="40.7914370" lon="-2.1643390">
        <ele>976.0</ele>
        <time>2019-07-06T09:28:26Z</time>
      </trkpt>
      <trkpt lat="40.7914190" lon="-2.1643780">
        <ele>976.2</ele>
        <time>2019-07-06T09:28:27Z</time>
      </trkpt>
      <trkpt lat="40.7913320" lon="-2.1645960">
        <ele>977.6</ele>
        <time>2019-07-06T09:28:33Z</time>
      </trkpt>
      <trkpt lat="40.7913190" lon="-2.1646320">
        <ele>977.8</ele>
        <time>2019-07-06T09:28:34Z</time>
      </trkpt>
      <trkpt lat="40.7912660" lon="-2.1647780">
        <ele>978.6</ele>
        <time>2019-07-06T09:28:38Z</time>
      </trkpt>
      <trkpt lat="40.7911990" lon="-2.1649720">
        <ele>979.6</ele>
        <time>2019-07-06T09:28:43Z</time>
      </trkpt>
      <trkpt lat="40.7911360" lon="-2.1651600">
        <ele>980.6</ele>
        <time>2019-07-06T09:28:48Z</time>
      </trkpt>
      <trkpt lat="40.7911090" lon="-2.1652740">
        <ele>981.6</ele>
        <time>2019-07-06T09:28:51Z</time>
      </trkpt>
      <trkpt lat="40.7910770" lon="-2.1654210">
        <ele>983.0</ele>
        <time>2019-07-06T09:28:55Z</time>
      </trkpt>
      <trkpt lat="40.7910340" lon="-2.1655750">
        <ele>984.0</ele>
        <time>2019-07-06T09:28:59Z</time>
      </trkpt>
      <trkpt lat="40.7909700" lon="-2.1658180">
        <ele>985.4</ele>
        <time>2019-07-06T09:29:05Z</time>
      </trkpt>
      <trkpt lat="40.7909430" lon="-2.1659000">
        <ele>985.8</ele>
        <time>2019-07-06T09:29:07Z</time>
      </trkpt>
      <trkpt lat="40.7909000" lon="-2.1660240">
        <ele>986.6</ele>
        <time>2019-07-06T09:29:10Z</time>
      </trkpt>
      <trkpt lat="40.7908290" lon="-2.1661910">
        <ele>987.6</ele>
        <time>2019-07-06T09:29:14Z</time>
      </trkpt>
      <trkpt lat="40.7907180" lon="-2.1664480">
        <ele>988.8</ele>
        <time>2019-07-06T09:29:20Z</time>
      </trkpt>
      <trkpt lat="40.7907000" lon="-2.1664870">
        <ele>989.0</ele>
        <time>2019-07-06T09:29:21Z</time>
      </trkpt>
      <trkpt lat="40.7906160" lon="-2.1666310">
        <ele>989.8</ele>
        <time>2019-07-06T09:29:25Z</time>
      </trkpt>
      <trkpt lat="40.7905600" lon="-2.1667380">
        <ele>990.6</ele>
        <time>2019-07-06T09:29:28Z</time>
      </trkpt>
      <trkpt lat="40.7905440" lon="-2.1667740">
        <ele>990.8</ele>
        <time>2019-07-06T09:29:29Z</time>
      </trkpt>
      <trkpt lat="40.7904670" lon="-2.1669190">
        <ele>992.0</ele>
        <time>2019-07-06T09:29:33Z</time>
      </trkpt>
      <trkpt lat="40.7904280" lon="-2.1670010">
        <ele>992.4</ele>
        <time>2019-07-06T09:29:35Z</time>
      </trkpt>
      <trkpt lat="40.7903030" lon="-2.1672240">
        <ele>993.2</ele>
        <time>2019-07-06T09:29:40Z</time>
      </trkpt>
      <trkpt lat="40.7902710" lon="-2.1672680">
        <ele>993.4</ele>
        <time>2019-07-06T09:29:41Z</time>
      </trkpt>
      <trkpt lat="40.7899820" lon="-2.1676350">
        <ele>993.2</ele>
        <time>2019-07-06T09:29:49Z</time>
      </trkpt>
      <trkpt lat="40.7897120" lon="-2.1679700">
        <ele>994.6</ele>
        <time>2019-07-06T09:29:56Z</time>
      </trkpt>
      <trkpt lat="40.7895410" lon="-2.1681390">
        <ele>995.4</ele>
        <time>2019-07-06T09:30:00Z</time>
      </trkpt>
      <trkpt lat="40.7894190" lon="-2.1682600">
        <ele>995.8</ele>
        <time>2019-07-06T09:30:03Z</time>
      </trkpt>
      <trkpt lat="40.7892810" lon="-2.1683620">
        <ele>996.4</ele>
        <time>2019-07-06T09:30:07Z</time>
      </trkpt>
      <trkpt lat="40.7892490" lon="-2.1683760">
        <ele>997.0</ele>
        <time>2019-07-06T09:30:08Z</time>
      </trkpt>
      <trkpt lat="40.7891160" lon="-2.1683900">
        <ele>998.0</ele>
        <time>2019-07-06T09:30:12Z</time>
      </trkpt>
      <trkpt lat="40.7890800" lon="-2.1683830">
        <ele>998.2</ele>
        <time>2019-07-06T09:30:13Z</time>
      </trkpt>
      <trkpt lat="40.7889090" lon="-2.1683180">
        <ele>998.8</ele>
        <time>2019-07-06T09:30:18Z</time>
      </trkpt>
      <trkpt lat="40.7888750" lon="-2.1682960">
        <ele>999.0</ele>
        <time>2019-07-06T09:30:19Z</time>
      </trkpt>
      <trkpt lat="40.7886310" lon="-2.1681700">
        <ele>999.6</ele>
        <time>2019-07-06T09:30:26Z</time>
      </trkpt>
      <trkpt lat="40.7884860" lon="-2.1681170">
        <ele>1000.2</ele>
        <time>2019-07-06T09:30:30Z</time>
      </trkpt>
      <trkpt lat="40.7884530" lon="-2.1681070">
        <ele>1000.4</ele>
        <time>2019-07-06T09:30:31Z</time>
      </trkpt>
      <trkpt lat="40.7883140" lon="-2.1680190">
        <ele>1001.2</ele>
        <time>2019-07-06T09:30:35Z</time>
      </trkpt>
      <trkpt lat="40.7882780" lon="-2.1679860">
        <ele>1001.2</ele>
        <time>2019-07-06T09:30:36Z</time>
      </trkpt>
      <trkpt lat="40.7882010" lon="-2.1679310">
        <ele>1001.4</ele>
        <time>2019-07-06T09:30:38Z</time>
      </trkpt>
      <trkpt lat="40.7880420" lon="-2.1678670">
        <ele>1002.2</ele>
        <time>2019-07-06T09:30:42Z</time>
      </trkpt>
      <trkpt lat="40.7879530" lon="-2.1678510">
        <ele>1002.4</ele>
        <time>2019-07-06T09:30:44Z</time>
      </trkpt>
      <trkpt lat="40.7878140" lon="-2.1678750">
        <ele>1002.2</ele>
        <time>2019-07-06T09:30:47Z</time>
      </trkpt>
      <trkpt lat="40.7877370" lon="-2.1679150">
        <ele>1002.6</ele>
        <time>2019-07-06T09:30:49Z</time>
      </trkpt>
      <trkpt lat="40.7877010" lon="-2.1679270">
        <ele>1002.8</ele>
        <time>2019-07-06T09:30:50Z</time>
      </trkpt>
      <trkpt lat="40.7876610" lon="-2.1679390">
        <ele>1003.0</ele>
        <time>2019-07-06T09:30:51Z</time>
      </trkpt>
      <trkpt lat="40.7875090" lon="-2.1679740">
        <ele>1003.2</ele>
        <time>2019-07-06T09:30:55Z</time>
      </trkpt>
      <trkpt lat="40.7873970" lon="-2.1679740">
        <ele>1003.8</ele>
        <time>2019-07-06T09:30:58Z</time>
      </trkpt>
      <trkpt lat="40.7873220" lon="-2.1679700">
        <ele>1004.2</ele>
        <time>2019-07-06T09:31:00Z</time>
      </trkpt>
      <trkpt lat="40.7872070" lon="-2.1679610">
        <ele>1004.8</ele>
        <time>2019-07-06T09:31:03Z</time>
      </trkpt>
      <trkpt lat="40.7871680" lon="-2.1679520">
        <ele>1005.0</ele>
        <time>2019-07-06T09:31:04Z</time>
      </trkpt>
      <trkpt lat="40.7870500" lon="-2.1679370">
        <ele>1005.8</ele>
        <time>2019-07-06T09:31:07Z</time>
      </trkpt>
      <trkpt lat="40.7870110" lon="-2.1679350">
        <ele>1006.0</ele>
        <time>2019-07-06T09:31:08Z</time>
      </trkpt>
      <trkpt lat="40.7867820" lon="-2.1679250">
        <ele>1006.8</ele>
        <time>2019-07-06T09:31:14Z</time>
      </trkpt>
      <trkpt lat="40.7867440" lon="-2.1679210">
        <ele>1007.0</ele>
        <time>2019-07-06T09:31:15Z</time>
      </trkpt>
      <trkpt lat="40.7866640" lon="-2.1679220">
        <ele>1007.0</ele>
        <time>2019-07-06T09:31:17Z</time>
      </trkpt>
      <trkpt lat="40.7865040" lon="-2.1679290">
        <ele>1007.4</ele>
        <time>2019-07-06T09:31:21Z</time>
      </trkpt>
      <trkpt lat="40.7862700" lon="-2.1679560">
        <ele>1008.0</ele>
        <time>2019-07-06T09:31:27Z</time>
      </trkpt>
      <trkpt lat="40.7861900" lon="-2.1679640">
        <ele>1008.6</ele>
        <time>2019-07-06T09:31:29Z</time>
      </trkpt>
      <trkpt lat="40.7861110" lon="-2.1679740">
        <ele>1008.6</ele>
        <time>2019-07-06T09:31:31Z</time>
      </trkpt>
      <trkpt lat="40.7859900" lon="-2.1679800">
        <ele>1008.6</ele>
        <time>2019-07-06T09:31:34Z</time>
      </trkpt>
      <trkpt lat="40.7859100" lon="-2.1679920">
        <ele>1008.8</ele>
        <time>2019-07-06T09:31:36Z</time>
      </trkpt>
      <trkpt lat="40.7858310" lon="-2.1679980">
        <ele>1009.2</ele>
        <time>2019-07-06T09:31:38Z</time>
      </trkpt>
      <trkpt lat="40.7857140" lon="-2.1679960">
        <ele>1009.8</ele>
        <time>2019-07-06T09:31:41Z</time>
      </trkpt>
      <trkpt lat="40.7856730" lon="-2.1679840">
        <ele>1010.0</ele>
        <time>2019-07-06T09:31:42Z</time>
      </trkpt>
      <trkpt lat="40.7855600" lon="-2.1679280">
        <ele>1010.0</ele>
        <time>2019-07-06T09:31:45Z</time>
      </trkpt>
      <trkpt lat="40.7854560" lon="-2.1678470">
        <ele>1010.6</ele>
        <time>2019-07-06T09:31:48Z</time>
      </trkpt>
      <trkpt lat="40.7853070" lon="-2.1677370">
        <ele>1011.4</ele>
        <time>2019-07-06T09:31:52Z</time>
      </trkpt>
      <trkpt lat="40.7851510" lon="-2.1676140">
        <ele>1012.2</ele>
        <time>2019-07-06T09:31:56Z</time>
      </trkpt>
      <trkpt lat="40.7850700" lon="-2.1675670">
        <ele>1012.2</ele>
        <time>2019-07-06T09:31:58Z</time>
      </trkpt>
      <trkpt lat="40.7848880" lon="-2.1675320">
        <ele>1012.6</ele>
        <time>2019-07-06T09:32:02Z</time>
      </trkpt>
      <trkpt lat="40.7846720" lon="-2.1676160">
        <ele>1013.2</ele>
        <time>2019-07-06T09:32:07Z</time>
      </trkpt>
      <trkpt lat="40.7846320" lon="-2.1676460">
        <ele>1013.2</ele>
        <time>2019-07-06T09:32:08Z</time>
      </trkpt>
      <trkpt lat="40.7845930" lon="-2.1676800">
        <ele>1013.4</ele>
        <time>2019-07-06T09:32:09Z</time>
      </trkpt>
      <trkpt lat="40.7845560" lon="-2.1677180">
        <ele>1013.6</ele>
        <time>2019-07-06T09:32:10Z</time>
      </trkpt>
      <trkpt lat="40.7844880" lon="-2.1678000">
        <ele>1014.0</ele>
        <time>2019-07-06T09:32:12Z</time>
      </trkpt>
      <trkpt lat="40.7844570" lon="-2.1678450">
        <ele>1014.2</ele>
        <time>2019-07-06T09:32:13Z</time>
      </trkpt>
      <trkpt lat="40.7843990" lon="-2.1679400">
        <ele>1014.6</ele>
        <time>2019-07-06T09:32:15Z</time>
      </trkpt>
      <trkpt lat="40.7843080" lon="-2.1681660">
        <ele>1015.0</ele>
        <time>2019-07-06T09:32:19Z</time>
      </trkpt>
      <trkpt lat="40.7842270" lon="-2.1683900">
        <ele>1016.0</ele>
        <time>2019-07-06T09:32:23Z</time>
      </trkpt>
      <trkpt lat="40.7841420" lon="-2.1686160">
        <ele>1016.4</ele>
        <time>2019-07-06T09:32:27Z</time>
      </trkpt>
      <trkpt lat="40.7839530" lon="-2.1688420">
        <ele>1016.6</ele>
        <time>2019-07-06T09:32:32Z</time>
      </trkpt>
      <trkpt lat="40.7837430" lon="-2.1689260">
        <ele>1016.6</ele>
        <time>2019-07-06T09:32:36Z</time>
      </trkpt>
      <trkpt lat="40.7836920" lon="-2.1689420">
        <ele>1016.6</ele>
        <time>2019-07-06T09:32:37Z</time>
      </trkpt>
      <trkpt lat="40.7832680" lon="-2.1690740">
        <ele>1016.4</ele>
        <time>2019-07-06T09:32:45Z</time>
      </trkpt>
      <trkpt lat="40.7830000" lon="-2.1692370">
        <ele>1017.2</ele>
        <time>2019-07-06T09:32:50Z</time>
      </trkpt>
      <trkpt lat="40.7829490" lon="-2.1692830">
        <ele>1017.2</ele>
        <time>2019-07-06T09:32:51Z</time>
      </trkpt>
      <trkpt lat="40.7828220" lon="-2.1694640">
        <ele>1017.2</ele>
        <time>2019-07-06T09:32:54Z</time>
      </trkpt>
      <trkpt lat="40.7825800" lon="-2.1698120">
        <ele>1017.6</ele>
        <time>2019-07-06T09:33:00Z</time>
      </trkpt>
      <trkpt lat="40.7825300" lon="-2.1698550">
        <ele>1018.0</ele>
        <time>2019-07-06T09:33:01Z</time>
      </trkpt>
      <trkpt lat="40.7824790" lon="-2.1698940">
        <ele>1018.4</ele>
        <time>2019-07-06T09:33:02Z</time>
      </trkpt>
      <trkpt lat="40.7822250" lon="-2.1700800">
        <ele>1018.4</ele>
        <time>2019-07-06T09:33:07Z</time>
      </trkpt>
      <trkpt lat="40.7821730" lon="-2.1701100">
        <ele>1018.4</ele>
        <time>2019-07-06T09:33:08Z</time>
      </trkpt>
      <trkpt lat="40.7818280" lon="-2.1703310">
        <ele>1018.8</ele>
        <time>2019-07-06T09:33:15Z</time>
      </trkpt>
      <trkpt lat="40.7817820" lon="-2.1703620">
        <ele>1019.0</ele>
        <time>2019-07-06T09:33:16Z</time>
      </trkpt>
      <trkpt lat="40.7815230" lon="-2.1706090">
        <ele>1019.8</ele>
        <time>2019-07-06T09:33:22Z</time>
      </trkpt>
      <trkpt lat="40.7814840" lon="-2.1706610">
        <ele>1019.8</ele>
        <time>2019-07-06T09:33:23Z</time>
      </trkpt>
      <trkpt lat="40.7814470" lon="-2.1707150">
        <ele>1019.8</ele>
        <time>2019-07-06T09:33:24Z</time>
      </trkpt>
      <trkpt lat="40.7812760" lon="-2.1710100">
        <ele>1020.4</ele>
        <time>2019-07-06T09:33:29Z</time>
      </trkpt>
      <trkpt lat="40.7811040" lon="-2.1713090">
        <ele>1020.8</ele>
        <time>2019-07-06T09:33:34Z</time>
      </trkpt>
      <trkpt lat="40.7809330" lon="-2.1716120">
        <ele>1021.0</ele>
        <time>2019-07-06T09:33:39Z</time>
      </trkpt>
      <trkpt lat="40.7807630" lon="-2.1719150">
        <ele>1021.8</ele>
        <time>2019-07-06T09:33:44Z</time>
      </trkpt>
      <trkpt lat="40.7806220" lon="-2.1721510">
        <ele>1022.2</ele>
        <time>2019-07-06T09:33:48Z</time>
      </trkpt>
      <trkpt lat="40.7804640" lon="-2.1724310">
        <ele>1022.8</ele>
        <time>2019-07-06T09:33:53Z</time>
      </trkpt>
      <trkpt lat="40.7803730" lon="-2.1725860">
        <ele>1022.8</ele>
        <time>2019-07-06T09:33:56Z</time>
      </trkpt>
      <trkpt lat="40.7802620" lon="-2.1727970">
        <ele>1023.8</ele>
        <time>2019-07-06T09:34:01Z</time>
      </trkpt>
      <trkpt lat="40.7802000" lon="-2.1729100">
        <ele>1023.6</ele>
        <time>2019-07-06T09:34:05Z</time>
      </trkpt>
      <trkpt lat="40.7801530" lon="-2.1730070">
        <ele>1023.6</ele>
        <time>2019-07-06T09:34:08Z</time>
      </trkpt>
      <trkpt lat="40.7801110" lon="-2.1731220">
        <ele>1024.0</ele>
        <time>2019-07-06T09:34:11Z</time>
      </trkpt>
      <trkpt lat="40.7800580" lon="-2.1732340">
        <ele>1024.4</ele>
        <time>2019-07-06T09:34:14Z</time>
      </trkpt>
      <trkpt lat="40.7800250" lon="-2.1733150">
        <ele>1024.2</ele>
        <time>2019-07-06T09:34:16Z</time>
      </trkpt>
      <trkpt lat="40.7798980" lon="-2.1736120">
        <ele>1025.2</ele>
        <time>2019-07-06T09:34:23Z</time>
      </trkpt>
      <trkpt lat="40.7798820" lon="-2.1736590">
        <ele>1025.2</ele>
        <time>2019-07-06T09:34:24Z</time>
      </trkpt>
      <trkpt lat="40.7797210" lon="-2.1740650">
        <ele>1025.6</ele>
        <time>2019-07-06T09:34:33Z</time>
      </trkpt>
      <trkpt lat="40.7795810" lon="-2.1743850">
        <ele>1026.0</ele>
        <time>2019-07-06T09:34:40Z</time>
      </trkpt>
      <trkpt lat="40.7795040" lon="-2.1745730">
        <ele>1026.4</ele>
        <time>2019-07-06T09:34:44Z</time>
      </trkpt>
      <trkpt lat="40.7794100" lon="-2.1748080">
        <ele>1027.2</ele>
        <time>2019-07-06T09:34:49Z</time>
      </trkpt>
      <trkpt lat="40.7793210" lon="-2.1750560">
        <ele>1027.4</ele>
        <time>2019-07-06T09:34:54Z</time>
      </trkpt>
      <trkpt lat="40.7792910" lon="-2.1751530">
        <ele>1027.8</ele>
        <time>2019-07-06T09:34:56Z</time>
      </trkpt>
      <trkpt lat="40.7792660" lon="-2.1752530">
        <ele>1028.4</ele>
        <time>2019-07-06T09:34:58Z</time>
      </trkpt>
      <trkpt lat="40.7792480" lon="-2.1753550">
        <ele>1028.8</ele>
        <time>2019-07-06T09:35:00Z</time>
      </trkpt>
      <trkpt lat="40.7792050" lon="-2.1755470">
        <ele>1029.2</ele>
        <time>2019-07-06T09:35:04Z</time>
      </trkpt>
      <trkpt lat="40.7791940" lon="-2.1755930">
        <ele>1029.4</ele>
        <time>2019-07-06T09:35:05Z</time>
      </trkpt>
      <trkpt lat="40.7791540" lon="-2.1757720">
        <ele>1030.6</ele>
        <time>2019-07-06T09:35:09Z</time>
      </trkpt>
      <trkpt lat="40.7791250" lon="-2.1759440">
        <ele>1031.0</ele>
        <time>2019-07-06T09:35:13Z</time>
      </trkpt>
      <trkpt lat="40.7791170" lon="-2.1760000">
        <ele>1031.2</ele>
        <time>2019-07-06T09:35:16Z</time>
      </trkpt>
      <trkpt lat="40.7791170" lon="-2.1759990">
        <ele>1031.4</ele>
        <time>2019-07-06T09:35:17Z</time>
      </trkpt>
      <trkpt lat="40.7791030" lon="-2.1760260">
        <ele>1031.2</ele>
        <time>2019-07-06T09:35:49Z</time>
      </trkpt>
      <trkpt lat="40.7790990" lon="-2.1760480">
        <ele>1031.0</ele>
        <time>2019-07-06T09:35:50Z</time>
      </trkpt>
      <trkpt lat="40.7790930" lon="-2.1760770">
        <ele>1031.2</ele>
        <time>2019-07-06T09:35:51Z</time>
      </trkpt>
      <trkpt lat="40.7790830" lon="-2.1761080">
        <ele>1031.0</ele>
        <time>2019-07-06T09:35:52Z</time>
      </trkpt>
      <trkpt lat="40.7790610" lon="-2.1761810">
        <ele>1031.4</ele>
        <time>2019-07-06T09:35:54Z</time>
      </trkpt>
      <trkpt lat="40.7790470" lon="-2.1762680">
        <ele>1031.8</ele>
        <time>2019-07-06T09:35:56Z</time>
      </trkpt>
      <trkpt lat="40.7790380" lon="-2.1763120">
        <ele>1032.0</ele>
        <time>2019-07-06T09:35:57Z</time>
      </trkpt>
      <trkpt lat="40.7790010" lon="-2.1764410">
        <ele>1033.0</ele>
        <time>2019-07-06T09:36:00Z</time>
      </trkpt>
      <trkpt lat="40.7789600" lon="-2.1765750">
        <ele>1033.4</ele>
        <time>2019-07-06T09:36:03Z</time>
      </trkpt>
      <trkpt lat="40.7788510" lon="-2.1768660">
        <ele>1034.0</ele>
        <time>2019-07-06T09:36:09Z</time>
      </trkpt>
      <trkpt lat="40.7788300" lon="-2.1769170">
        <ele>1034.2</ele>
        <time>2019-07-06T09:36:10Z</time>
      </trkpt>
      <trkpt lat="40.7787010" lon="-2.1772380">
        <ele>1033.6</ele>
        <time>2019-07-06T09:36:16Z</time>
      </trkpt>
      <trkpt lat="40.7786800" lon="-2.1772950">
        <ele>1033.6</ele>
        <time>2019-07-06T09:36:17Z</time>
      </trkpt>
      <trkpt lat="40.7784780" lon="-2.1778750">
        <ele>1034.0</ele>
        <time>2019-07-06T09:36:27Z</time>
      </trkpt>
      <trkpt lat="40.7783590" lon="-2.1784300">
        <ele>1034.8</ele>
        <time>2019-07-06T09:36:36Z</time>
      </trkpt>
      <trkpt lat="40.7782600" lon="-2.1788540">
        <ele>1035.4</ele>
        <time>2019-07-06T09:36:43Z</time>
      </trkpt>
      <trkpt lat="40.7782440" lon="-2.1789120">
        <ele>1035.4</ele>
        <time>2019-07-06T09:36:44Z</time>
      </trkpt>
      <trkpt lat="40.7781140" lon="-2.1793720">
        <ele>1036.4</ele>
        <time>2019-07-06T09:36:52Z</time>
      </trkpt>
      <trkpt lat="40.7780960" lon="-2.1794260">
        <ele>1036.4</ele>
        <time>2019-07-06T09:36:53Z</time>
      </trkpt>
      <trkpt lat="40.7779490" lon="-2.1798550">
        <ele>1037.2</ele>
        <time>2019-07-06T09:37:01Z</time>
      </trkpt>
      <trkpt lat="40.7779090" lon="-2.1799630">
        <ele>1037.4</ele>
        <time>2019-07-06T09:37:03Z</time>
      </trkpt>
      <trkpt lat="40.7778490" lon="-2.1801850">
        <ele>1037.8</ele>
        <time>2019-07-06T09:37:07Z</time>
      </trkpt>
      <trkpt lat="40.7777910" lon="-2.1803410">
        <ele>1038.4</ele>
        <time>2019-07-06T09:37:10Z</time>
      </trkpt>
      <trkpt lat="40.7777490" lon="-2.1804430">
        <ele>1038.8</ele>
        <time>2019-07-06T09:37:12Z</time>
      </trkpt>
      <trkpt lat="40.7776800" lon="-2.1806610">
        <ele>1039.2</ele>
        <time>2019-07-06T09:37:16Z</time>
      </trkpt>
      <trkpt lat="40.7776600" lon="-2.1807110">
        <ele>1039.4</ele>
        <time>2019-07-06T09:37:17Z</time>
      </trkpt>
      <trkpt lat="40.7776420" lon="-2.1807610">
        <ele>1039.4</ele>
        <time>2019-07-06T09:37:18Z</time>
      </trkpt>
      <trkpt lat="40.7775600" lon="-2.1810080">
        <ele>1040.4</ele>
        <time>2019-07-06T09:37:23Z</time>
      </trkpt>
      <trkpt lat="40.7775280" lon="-2.1811010">
        <ele>1040.6</ele>
        <time>2019-07-06T09:37:25Z</time>
      </trkpt>
      <trkpt lat="40.7774470" lon="-2.1814170">
        <ele>1041.2</ele>
        <time>2019-07-06T09:37:31Z</time>
      </trkpt>
      <trkpt lat="40.7773820" lon="-2.1817400">
        <ele>1041.8</ele>
        <time>2019-07-06T09:37:37Z</time>
      </trkpt>
      <trkpt lat="40.7773640" lon="-2.1818450">
        <ele>1042.0</ele>
        <time>2019-07-06T09:37:39Z</time>
      </trkpt>
      <trkpt lat="40.7773190" lon="-2.1820010">
        <ele>1042.6</ele>
        <time>2019-07-06T09:37:42Z</time>
      </trkpt>
      <trkpt lat="40.7772880" lon="-2.1821620">
        <ele>1042.6</ele>
        <time>2019-07-06T09:37:45Z</time>
      </trkpt>
      <trkpt lat="40.7772760" lon="-2.1822150">
        <ele>1043.0</ele>
        <time>2019-07-06T09:37:46Z</time>
      </trkpt>
      <trkpt lat="40.7772030" lon="-2.1825350">
        <ele>1043.0</ele>
        <time>2019-07-06T09:37:52Z</time>
      </trkpt>
      <trkpt lat="40.7771180" lon="-2.1829080">
        <ele>1043.6</ele>
        <time>2019-07-06T09:37:59Z</time>
      </trkpt>
      <trkpt lat="40.7771110" lon="-2.1829570">
        <ele>1044.0</ele>
        <time>2019-07-06T09:38:00Z</time>
      </trkpt>
      <trkpt lat="40.7770630" lon="-2.1832690">
        <ele>1044.8</ele>
        <time>2019-07-06T09:38:07Z</time>
      </trkpt>
      <trkpt lat="40.7770540" lon="-2.1833110">
        <ele>1045.2</ele>
        <time>2019-07-06T09:38:08Z</time>
      </trkpt>
      <trkpt lat="40.7770350" lon="-2.1835230">
        <ele>1046.4</ele>
        <time>2019-07-06T09:38:13Z</time>
      </trkpt>
      <trkpt lat="40.7770200" lon="-2.1836100">
        <ele>1047.0</ele>
        <time>2019-07-06T09:38:15Z</time>
      </trkpt>
      <trkpt lat="40.7769200" lon="-2.1839460">
        <ele>1047.2</ele>
        <time>2019-07-06T09:38:23Z</time>
      </trkpt>
      <trkpt lat="40.7769050" lon="-2.1839870">
        <ele>1047.4</ele>
        <time>2019-07-06T09:38:24Z</time>
      </trkpt>
      <trkpt lat="40.7768310" lon="-2.1841420">
        <ele>1048.8</ele>
        <time>2019-07-06T09:38:28Z</time>
      </trkpt>
      <trkpt lat="40.7767980" lon="-2.1842180">
        <ele>1049.4</ele>
        <time>2019-07-06T09:38:30Z</time>
      </trkpt>
      <trkpt lat="40.7767650" lon="-2.1842940">
        <ele>1050.0</ele>
        <time>2019-07-06T09:38:32Z</time>
      </trkpt>
      <trkpt lat="40.7766490" lon="-2.1845070">
        <ele>1051.0</ele>
        <time>2019-07-06T09:38:38Z</time>
      </trkpt>
      <trkpt lat="40.7766330" lon="-2.1845420">
        <ele>1051.2</ele>
        <time>2019-07-06T09:38:39Z</time>
      </trkpt>
      <trkpt lat="40.7765140" lon="-2.1847990">
        <ele>1052.4</ele>
        <time>2019-07-06T09:38:46Z</time>
      </trkpt>
      <trkpt lat="40.7764760" lon="-2.1848740">
        <ele>1053.0</ele>
        <time>2019-07-06T09:38:48Z</time>
      </trkpt>
      <trkpt lat="40.7764570" lon="-2.1849090">
        <ele>1053.4</ele>
        <time>2019-07-06T09:38:49Z</time>
      </trkpt>
      <trkpt lat="40.7763560" lon="-2.1851280">
        <ele>1054.6</ele>
        <time>2019-07-06T09:38:55Z</time>
      </trkpt>
      <trkpt lat="40.7763230" lon="-2.1852490">
        <ele>1055.8</ele>
        <time>2019-07-06T09:38:58Z</time>
      </trkpt>
      <trkpt lat="40.7763190" lon="-2.1853760">
        <ele>1056.4</ele>
        <time>2019-07-06T09:39:01Z</time>
      </trkpt>
      <trkpt lat="40.7763210" lon="-2.1854620">
        <ele>1057.0</ele>
        <time>2019-07-06T09:39:03Z</time>
      </trkpt>
      <trkpt lat="40.7763510" lon="-2.1856700">
        <ele>1058.0</ele>
        <time>2019-07-06T09:39:08Z</time>
      </trkpt>
      <trkpt lat="40.7763830" lon="-2.1859230">
        <ele>1059.2</ele>
        <time>2019-07-06T09:39:14Z</time>
      </trkpt>
      <trkpt lat="40.7763930" lon="-2.1859650">
        <ele>1059.4</ele>
        <time>2019-07-06T09:39:15Z</time>
      </trkpt>
      <trkpt lat="40.7764280" lon="-2.1861330">
        <ele>1060.4</ele>
        <time>2019-07-06T09:39:19Z</time>
      </trkpt>
      <trkpt lat="40.7764610" lon="-2.1862560">
        <ele>1060.8</ele>
        <time>2019-07-06T09:39:22Z</time>
      </trkpt>
      <trkpt lat="40.7765010" lon="-2.1863810">
        <ele>1061.6</ele>
        <time>2019-07-06T09:39:25Z</time>
      </trkpt>
      <trkpt lat="40.7765590" lon="-2.1865650">
        <ele>1062.4</ele>
        <time>2019-07-06T09:39:29Z</time>
      </trkpt>
      <trkpt lat="40.7766060" lon="-2.1866480">
        <ele>1062.8</ele>
        <time>2019-07-06T09:39:31Z</time>
      </trkpt>
      <trkpt lat="40.7767080" lon="-2.1868120">
        <ele>1063.8</ele>
        <time>2019-07-06T09:39:35Z</time>
      </trkpt>
      <trkpt lat="40.7767610" lon="-2.1868980">
        <ele>1064.0</ele>
        <time>2019-07-06T09:39:37Z</time>
      </trkpt>
      <trkpt lat="40.7768630" lon="-2.1871030">
        <ele>1064.8</ele>
        <time>2019-07-06T09:39:42Z</time>
      </trkpt>
      <trkpt lat="40.7769150" lon="-2.1872300">
        <ele>1065.2</ele>
        <time>2019-07-06T09:39:45Z</time>
      </trkpt>
      <trkpt lat="40.7770040" lon="-2.1873800">
        <ele>1065.8</ele>
        <time>2019-07-06T09:39:49Z</time>
      </trkpt>
      <trkpt lat="40.7770760" lon="-2.1874770">
        <ele>1066.2</ele>
        <time>2019-07-06T09:39:52Z</time>
      </trkpt>
      <trkpt lat="40.7772080" lon="-2.1876060">
        <ele>1067.0</ele>
        <time>2019-07-06T09:39:57Z</time>
      </trkpt>
      <trkpt lat="40.7772600" lon="-2.1876610">
        <ele>1067.4</ele>
        <time>2019-07-06T09:39:59Z</time>
      </trkpt>
      <trkpt lat="40.7773610" lon="-2.1877800">
        <ele>1068.4</ele>
        <time>2019-07-06T09:40:03Z</time>
      </trkpt>
      <trkpt lat="40.7774450" lon="-2.1879780">
        <ele>1069.4</ele>
        <time>2019-07-06T09:40:08Z</time>
      </trkpt>
      <trkpt lat="40.7774440" lon="-2.1880250">
        <ele>1069.8</ele>
        <time>2019-07-06T09:40:09Z</time>
      </trkpt>
      <trkpt lat="40.7774000" lon="-2.1881600">
        <ele>1070.4</ele>
        <time>2019-07-06T09:40:12Z</time>
      </trkpt>
      <trkpt lat="40.7773510" lon="-2.1882340">
        <ele>1071.0</ele>
        <time>2019-07-06T09:40:14Z</time>
      </trkpt>
      <trkpt lat="40.7772670" lon="-2.1883750">
        <ele>1071.8</ele>
        <time>2019-07-06T09:40:18Z</time>
      </trkpt>
      <trkpt lat="40.7772460" lon="-2.1884090">
        <ele>1072.0</ele>
        <time>2019-07-06T09:40:19Z</time>
      </trkpt>
      <trkpt lat="40.7771560" lon="-2.1885870">
        <ele>1073.0</ele>
        <time>2019-07-06T09:40:24Z</time>
      </trkpt>
      <trkpt lat="40.7770830" lon="-2.1888390">
        <ele>1074.2</ele>
        <time>2019-07-06T09:40:30Z</time>
      </trkpt>
      <trkpt lat="40.7770390" lon="-2.1889660">
        <ele>1075.0</ele>
        <time>2019-07-06T09:40:33Z</time>
      </trkpt>
      <trkpt lat="40.7770210" lon="-2.1890060">
        <ele>1075.2</ele>
        <time>2019-07-06T09:40:34Z</time>
      </trkpt>
      <trkpt lat="40.7769460" lon="-2.1891630">
        <ele>1076.4</ele>
        <time>2019-07-06T09:40:38Z</time>
      </trkpt>
      <trkpt lat="40.7769040" lon="-2.1892420">
        <ele>1076.8</ele>
        <time>2019-07-06T09:40:40Z</time>
      </trkpt>
      <trkpt lat="40.7768500" lon="-2.1893720">
        <ele>1077.4</ele>
        <time>2019-07-06T09:40:43Z</time>
      </trkpt>
      <trkpt lat="40.7768140" lon="-2.1895040">
        <ele>1077.6</ele>
        <time>2019-07-06T09:40:46Z</time>
      </trkpt>
      <trkpt lat="40.7768480" lon="-2.1897480">
        <ele>1078.4</ele>
        <time>2019-07-06T09:40:51Z</time>
      </trkpt>
      <trkpt lat="40.7769990" lon="-2.1899840">
        <ele>1079.6</ele>
        <time>2019-07-06T09:40:57Z</time>
      </trkpt>
      <trkpt lat="40.7771900" lon="-2.1901590">
        <ele>1080.6</ele>
        <time>2019-07-06T09:41:03Z</time>
      </trkpt>
      <trkpt lat="40.7772540" lon="-2.1902110">
        <ele>1081.0</ele>
        <time>2019-07-06T09:41:05Z</time>
      </trkpt>
      <trkpt lat="40.7774120" lon="-2.1903510">
        <ele>1081.6</ele>
        <time>2019-07-06T09:41:10Z</time>
      </trkpt>
      <trkpt lat="40.7774760" lon="-2.1904060">
        <ele>1081.6</ele>
        <time>2019-07-06T09:41:12Z</time>
      </trkpt>
      <trkpt lat="40.7776080" lon="-2.1905810">
        <ele>1082.6</ele>
        <time>2019-07-06T09:41:17Z</time>
      </trkpt>
      <trkpt lat="40.7776270" lon="-2.1906210">
        <ele>1082.8</ele>
        <time>2019-07-06T09:41:18Z</time>
      </trkpt>
      <trkpt lat="40.7776890" lon="-2.1908220">
        <ele>1083.6</ele>
        <time>2019-07-06T09:41:23Z</time>
      </trkpt>
      <trkpt lat="40.7777060" lon="-2.1909030">
        <ele>1084.4</ele>
        <time>2019-07-06T09:41:25Z</time>
      </trkpt>
      <trkpt lat="40.7777240" lon="-2.1909840">
        <ele>1084.8</ele>
        <time>2019-07-06T09:41:27Z</time>
      </trkpt>
      <trkpt lat="40.7777510" lon="-2.1912000">
        <ele>1086.0</ele>
        <time>2019-07-06T09:41:32Z</time>
      </trkpt>
      <trkpt lat="40.7777630" lon="-2.1912860">
        <ele>1086.4</ele>
        <time>2019-07-06T09:41:34Z</time>
      </trkpt>
      <trkpt lat="40.7777710" lon="-2.1914180">
        <ele>1087.0</ele>
        <time>2019-07-06T09:41:37Z</time>
      </trkpt>
      <trkpt lat="40.7777500" lon="-2.1915950">
        <ele>1087.8</ele>
        <time>2019-07-06T09:41:41Z</time>
      </trkpt>
      <trkpt lat="40.7777250" lon="-2.1916790">
        <ele>1088.0</ele>
        <time>2019-07-06T09:41:43Z</time>
      </trkpt>
      <trkpt lat="40.7776670" lon="-2.1917820">
        <ele>1089.2</ele>
        <time>2019-07-06T09:41:46Z</time>
      </trkpt>
      <trkpt lat="40.7776430" lon="-2.1918140">
        <ele>1089.4</ele>
        <time>2019-07-06T09:41:47Z</time>
      </trkpt>
      <trkpt lat="40.7775520" lon="-2.1920180">
        <ele>1090.4</ele>
        <time>2019-07-06T09:41:53Z</time>
      </trkpt>
      <trkpt lat="40.7775180" lon="-2.1921910">
        <ele>1091.6</ele>
        <time>2019-07-06T09:41:58Z</time>
      </trkpt>
      <trkpt lat="40.7775090" lon="-2.1923040">
        <ele>1092.4</ele>
        <time>2019-07-06T09:42:01Z</time>
      </trkpt>
      <trkpt lat="40.7775110" lon="-2.1923810">
        <ele>1092.8</ele>
        <time>2019-07-06T09:42:03Z</time>
      </trkpt>
      <trkpt lat="40.7775290" lon="-2.1925390">
        <ele>1093.8</ele>
        <time>2019-07-06T09:42:07Z</time>
      </trkpt>
      <trkpt lat="40.7775470" lon="-2.1926180">
        <ele>1094.2</ele>
        <time>2019-07-06T09:42:09Z</time>
      </trkpt>
      <trkpt lat="40.7775790" lon="-2.1927380">
        <ele>1094.8</ele>
        <time>2019-07-06T09:42:12Z</time>
      </trkpt>
      <trkpt lat="40.7776410" lon="-2.1928840">
        <ele>1095.6</ele>
        <time>2019-07-06T09:42:16Z</time>
      </trkpt>
      <trkpt lat="40.7776860" lon="-2.1929440">
        <ele>1095.8</ele>
        <time>2019-07-06T09:42:18Z</time>
      </trkpt>
      <trkpt lat="40.7777950" lon="-2.1930280">
        <ele>1096.2</ele>
        <time>2019-07-06T09:42:22Z</time>
      </trkpt>
      <trkpt lat="40.7778790" lon="-2.1930910">
        <ele>1097.2</ele>
        <time>2019-07-06T09:42:25Z</time>
      </trkpt>
      <trkpt lat="40.7779880" lon="-2.1931900">
        <ele>1098.0</ele>
        <time>2019-07-06T09:42:29Z</time>
      </trkpt>
      <trkpt lat="40.7780130" lon="-2.1932150">
        <ele>1098.2</ele>
        <time>2019-07-06T09:42:30Z</time>
      </trkpt>
      <trkpt lat="40.7780850" lon="-2.1933280">
        <ele>1099.0</ele>
        <time>2019-07-06T09:42:34Z</time>
      </trkpt>
      <trkpt lat="40.7781980" lon="-2.1935570">
        <ele>1100.2</ele>
        <time>2019-07-06T09:42:41Z</time>
      </trkpt>
      <trkpt lat="40.7782450" lon="-2.1938110">
        <ele>1101.4</ele>
        <time>2019-07-06T09:42:47Z</time>
      </trkpt>
      <trkpt lat="40.7782230" lon="-2.1940690">
        <ele>1102.6</ele>
        <time>2019-07-06T09:42:53Z</time>
      </trkpt>
      <trkpt lat="40.7781960" lon="-2.1941500">
        <ele>1103.2</ele>
        <time>2019-07-06T09:42:55Z</time>
      </trkpt>
      <trkpt lat="40.7781510" lon="-2.1942650">
        <ele>1103.6</ele>
        <time>2019-07-06T09:42:58Z</time>
      </trkpt>
      <trkpt lat="40.7781160" lon="-2.1944310">
        <ele>1104.4</ele>
        <time>2019-07-06T09:43:02Z</time>
      </trkpt>
      <trkpt lat="40.7780940" lon="-2.1945140">
        <ele>1104.8</ele>
        <time>2019-07-06T09:43:04Z</time>
      </trkpt>
      <trkpt lat="40.7780520" lon="-2.1947260">
        <ele>1106.0</ele>
        <time>2019-07-06T09:43:09Z</time>
      </trkpt>
      <trkpt lat="40.7779690" lon="-2.1949250">
        <ele>1107.0</ele>
        <time>2019-07-06T09:43:14Z</time>
      </trkpt>
      <trkpt lat="40.7779310" lon="-2.1949990">
        <ele>1107.2</ele>
        <time>2019-07-06T09:43:16Z</time>
      </trkpt>
      <trkpt lat="40.7778330" lon="-2.1951860">
        <ele>1108.2</ele>
        <time>2019-07-06T09:43:21Z</time>
      </trkpt>
      <trkpt lat="40.7777970" lon="-2.1952680">
        <ele>1108.8</ele>
        <time>2019-07-06T09:43:23Z</time>
      </trkpt>
      <trkpt lat="40.7777750" lon="-2.1954620">
        <ele>1109.4</ele>
        <time>2019-07-06T09:43:27Z</time>
      </trkpt>
      <trkpt lat="40.7777760" lon="-2.1955090">
        <ele>1109.8</ele>
        <time>2019-07-06T09:43:28Z</time>
      </trkpt>
      <trkpt lat="40.7777910" lon="-2.1956460">
        <ele>1110.6</ele>
        <time>2019-07-06T09:43:31Z</time>
      </trkpt>
      <trkpt lat="40.7778140" lon="-2.1958320">
        <ele>1111.2</ele>
        <time>2019-07-06T09:43:35Z</time>
      </trkpt>
      <trkpt lat="40.7778120" lon="-2.1958780">
        <ele>1111.6</ele>
        <time>2019-07-06T09:43:36Z</time>
      </trkpt>
      <trkpt lat="40.7778020" lon="-2.1961560">
        <ele>1112.6</ele>
        <time>2019-07-06T09:43:42Z</time>
      </trkpt>
      <trkpt lat="40.7777810" lon="-2.1963400">
        <ele>1113.8</ele>
        <time>2019-07-06T09:43:46Z</time>
      </trkpt>
      <trkpt lat="40.7777490" lon="-2.1965160">
        <ele>1114.6</ele>
        <time>2019-07-06T09:43:50Z</time>
      </trkpt>
      <trkpt lat="40.7777430" lon="-2.1965590">
        <ele>1114.8</ele>
        <time>2019-07-06T09:43:51Z</time>
      </trkpt>
      <trkpt lat="40.7777390" lon="-2.1967340">
        <ele>1116.0</ele>
        <time>2019-07-06T09:43:55Z</time>
      </trkpt>
      <trkpt lat="40.7777400" lon="-2.1968260">
        <ele>1116.4</ele>
        <time>2019-07-06T09:43:57Z</time>
      </trkpt>
      <trkpt lat="40.7777370" lon="-2.1970070">
        <ele>1117.0</ele>
        <time>2019-07-06T09:44:01Z</time>
      </trkpt>
      <trkpt lat="40.7777480" lon="-2.1971820">
        <ele>1118.0</ele>
        <time>2019-07-06T09:44:05Z</time>
      </trkpt>
      <trkpt lat="40.7777520" lon="-2.1972250">
        <ele>1118.2</ele>
        <time>2019-07-06T09:44:06Z</time>
      </trkpt>
      <trkpt lat="40.7777530" lon="-2.1974780">
        <ele>1119.2</ele>
        <time>2019-07-06T09:44:12Z</time>
      </trkpt>
      <trkpt lat="40.7777430" lon="-2.1977360">
        <ele>1120.4</ele>
        <time>2019-07-06T09:44:18Z</time>
      </trkpt>
      <trkpt lat="40.7777340" lon="-2.1977800">
        <ele>1120.6</ele>
        <time>2019-07-06T09:44:19Z</time>
      </trkpt>
      <trkpt lat="40.7776550" lon="-2.1979890">
        <ele>1121.6</ele>
        <time>2019-07-06T09:44:24Z</time>
      </trkpt>
      <trkpt lat="40.7776300" lon="-2.1980230">
        <ele>1122.0</ele>
        <time>2019-07-06T09:44:25Z</time>
      </trkpt>
      <trkpt lat="40.7775140" lon="-2.1981200">
        <ele>1122.6</ele>
        <time>2019-07-06T09:44:29Z</time>
      </trkpt>
      <trkpt lat="40.7774790" lon="-2.1981350">
        <ele>1122.8</ele>
        <time>2019-07-06T09:44:30Z</time>
      </trkpt>
      <trkpt lat="40.7772250" lon="-2.1982250">
        <ele>1123.8</ele>
        <time>2019-07-06T09:44:37Z</time>
      </trkpt>
      <trkpt lat="40.7770340" lon="-2.1984110">
        <ele>1124.8</ele>
        <time>2019-07-06T09:44:43Z</time>
      </trkpt>
      <trkpt lat="40.7770040" lon="-2.1984450">
        <ele>1124.8</ele>
        <time>2019-07-06T09:44:44Z</time>
      </trkpt>
      <trkpt lat="40.7768230" lon="-2.1987060">
        <ele>1125.6</ele>
        <time>2019-07-06T09:44:51Z</time>
      </trkpt>
      <trkpt lat="40.7767660" lon="-2.1988160">
        <ele>1126.2</ele>
        <time>2019-07-06T09:44:54Z</time>
      </trkpt>
      <trkpt lat="40.7767220" lon="-2.1989260">
        <ele>1127.0</ele>
        <time>2019-07-06T09:44:57Z</time>
      </trkpt>
      <trkpt lat="40.7767010" lon="-2.1989590">
        <ele>1127.2</ele>
        <time>2019-07-06T09:44:58Z</time>
      </trkpt>
      <trkpt lat="40.7765830" lon="-2.1991220">
        <ele>1128.2</ele>
        <time>2019-07-06T09:45:03Z</time>
      </trkpt>
      <trkpt lat="40.7765540" lon="-2.1991510">
        <ele>1128.4</ele>
        <time>2019-07-06T09:45:04Z</time>
      </trkpt>
      <trkpt lat="40.7764290" lon="-2.1993320">
        <ele>1129.4</ele>
        <time>2019-07-06T09:45:09Z</time>
      </trkpt>
      <trkpt lat="40.7764130" lon="-2.1993800">
        <ele>1129.6</ele>
        <time>2019-07-06T09:45:10Z</time>
      </trkpt>
      <trkpt lat="40.7764000" lon="-2.1994300">
        <ele>1129.6</ele>
        <time>2019-07-06T09:45:11Z</time>
      </trkpt>
      <trkpt lat="40.7763700" lon="-2.1996890">
        <ele>1130.6</ele>
        <time>2019-07-06T09:45:16Z</time>
      </trkpt>
      <trkpt lat="40.7763640" lon="-2.1999340">
        <ele>1131.6</ele>
        <time>2019-07-06T09:45:21Z</time>
      </trkpt>
      <trkpt lat="40.7763660" lon="-2.1999830">
        <ele>1131.8</ele>
        <time>2019-07-06T09:45:22Z</time>
      </trkpt>
      <trkpt lat="40.7764090" lon="-2.2002250">
        <ele>1132.8</ele>
        <time>2019-07-06T09:45:27Z</time>
      </trkpt>
      <trkpt lat="40.7764220" lon="-2.2002720">
        <ele>1133.0</ele>
        <time>2019-07-06T09:45:28Z</time>
      </trkpt>
      <trkpt lat="40.7765180" lon="-2.2006510">
        <ele>1134.0</ele>
        <time>2019-07-06T09:45:36Z</time>
      </trkpt>
      <trkpt lat="40.7765630" lon="-2.2008140">
        <ele>1135.0</ele>
        <time>2019-07-06T09:45:40Z</time>
      </trkpt>
      <trkpt lat="40.7765800" lon="-2.2009390">
        <ele>1135.4</ele>
        <time>2019-07-06T09:45:43Z</time>
      </trkpt>
      <trkpt lat="40.7765780" lon="-2.2010620">
        <ele>1136.2</ele>
        <time>2019-07-06T09:45:46Z</time>
      </trkpt>
      <trkpt lat="40.7765520" lon="-2.2011890">
        <ele>1136.8</ele>
        <time>2019-07-06T09:45:49Z</time>
      </trkpt>
      <trkpt lat="40.7764970" lon="-2.2013000">
        <ele>1137.2</ele>
        <time>2019-07-06T09:45:52Z</time>
      </trkpt>
      <trkpt lat="40.7764520" lon="-2.2013500">
        <ele>1137.8</ele>
        <time>2019-07-06T09:45:54Z</time>
      </trkpt>
      <trkpt lat="40.7763760" lon="-2.2013990">
        <ele>1138.4</ele>
        <time>2019-07-06T09:45:57Z</time>
      </trkpt>
      <trkpt lat="40.7763210" lon="-2.2014160">
        <ele>1139.0</ele>
        <time>2019-07-06T09:45:59Z</time>
      </trkpt>
      <trkpt lat="40.7761700" lon="-2.2014480">
        <ele>1139.4</ele>
        <time>2019-07-06T09:46:04Z</time>
      </trkpt>
      <trkpt lat="40.7761070" lon="-2.2014610">
        <ele>1139.6</ele>
        <time>2019-07-06T09:46:06Z</time>
      </trkpt>
      <trkpt lat="40.7758920" lon="-2.2015720">
        <ele>1140.4</ele>
        <time>2019-07-06T09:46:13Z</time>
      </trkpt>
      <trkpt lat="40.7758650" lon="-2.2015980">
        <ele>1140.8</ele>
        <time>2019-07-06T09:46:14Z</time>
      </trkpt>
      <trkpt lat="40.7757500" lon="-2.2017670">
        <ele>1141.6</ele>
        <time>2019-07-06T09:46:19Z</time>
      </trkpt>
      <trkpt lat="40.7757140" lon="-2.2018510">
        <ele>1141.8</ele>
        <time>2019-07-06T09:46:21Z</time>
      </trkpt>
      <trkpt lat="40.7756400" lon="-2.2020120">
        <ele>1142.8</ele>
        <time>2019-07-06T09:46:25Z</time>
      </trkpt>
      <trkpt lat="40.7756130" lon="-2.2020980">
        <ele>1143.4</ele>
        <time>2019-07-06T09:46:27Z</time>
      </trkpt>
      <trkpt lat="40.7755840" lon="-2.2021790">
        <ele>1144.0</ele>
        <time>2019-07-06T09:46:29Z</time>
      </trkpt>
      <trkpt lat="40.7755140" lon="-2.2023240">
        <ele>1144.8</ele>
        <time>2019-07-06T09:46:33Z</time>
      </trkpt>
      <trkpt lat="40.7754990" lon="-2.2023590">
        <ele>1145.0</ele>
        <time>2019-07-06T09:46:34Z</time>
      </trkpt>
      <trkpt lat="40.7753820" lon="-2.2026130">
        <ele>1146.2</ele>
        <time>2019-07-06T09:46:41Z</time>
      </trkpt>
      <trkpt lat="40.7753650" lon="-2.2026490">
        <ele>1146.4</ele>
        <time>2019-07-06T09:46:42Z</time>
      </trkpt>
      <trkpt lat="40.7753170" lon="-2.2027560">
        <ele>1147.2</ele>
        <time>2019-07-06T09:46:45Z</time>
      </trkpt>
      <trkpt lat="40.7752410" lon="-2.2029590">
        <ele>1147.6</ele>
        <time>2019-07-06T09:46:50Z</time>
      </trkpt>
      <trkpt lat="40.7752050" lon="-2.2030890">
        <ele>1148.2</ele>
        <time>2019-07-06T09:46:53Z</time>
      </trkpt>
      <trkpt lat="40.7751600" lon="-2.2032140">
        <ele>1148.8</ele>
        <time>2019-07-06T09:46:56Z</time>
      </trkpt>
      <trkpt lat="40.7751210" lon="-2.2033010">
        <ele>1149.2</ele>
        <time>2019-07-06T09:46:58Z</time>
      </trkpt>
      <trkpt lat="40.7750450" lon="-2.2034240">
        <ele>1149.6</ele>
        <time>2019-07-06T09:47:01Z</time>
      </trkpt>
      <trkpt lat="40.7750130" lon="-2.2034550">
        <ele>1149.8</ele>
        <time>2019-07-06T09:47:02Z</time>
      </trkpt>
      <trkpt lat="40.7749410" lon="-2.2035050">
        <ele>1150.0</ele>
        <time>2019-07-06T09:47:04Z</time>
      </trkpt>
      <trkpt lat="40.7748650" lon="-2.2035280">
        <ele>1150.2</ele>
        <time>2019-07-06T09:47:06Z</time>
      </trkpt>
      <trkpt lat="40.7748280" lon="-2.2035240">
        <ele>1150.6</ele>
        <time>2019-07-06T09:47:07Z</time>
      </trkpt>
      <trkpt lat="40.7747630" lon="-2.2034920">
        <ele>1150.8</ele>
        <time>2019-07-06T09:47:09Z</time>
      </trkpt>
      <trkpt lat="40.7746750" lon="-2.2034320">
        <ele>1151.2</ele>
        <time>2019-07-06T09:47:12Z</time>
      </trkpt>
      <trkpt lat="40.7745740" lon="-2.2033210">
        <ele>1152.4</ele>
        <time>2019-07-06T09:47:16Z</time>
      </trkpt>
      <trkpt lat="40.7745480" lon="-2.2032940">
        <ele>1152.8</ele>
        <time>2019-07-06T09:47:17Z</time>
      </trkpt>
      <trkpt lat="40.7744480" lon="-2.2031800">
        <ele>1153.6</ele>
        <time>2019-07-06T09:47:21Z</time>
      </trkpt>
      <trkpt lat="40.7743370" lon="-2.2030880">
        <ele>1154.4</ele>
        <time>2019-07-06T09:47:25Z</time>
      </trkpt>
      <trkpt lat="40.7742770" lon="-2.2030480">
        <ele>1154.8</ele>
        <time>2019-07-06T09:47:27Z</time>
      </trkpt>
      <trkpt lat="40.7741540" lon="-2.2030020">
        <ele>1155.4</ele>
        <time>2019-07-06T09:47:31Z</time>
      </trkpt>
      <trkpt lat="40.7740340" lon="-2.2029540">
        <ele>1156.0</ele>
        <time>2019-07-06T09:47:35Z</time>
      </trkpt>
      <trkpt lat="40.7739060" lon="-2.2029030">
        <ele>1156.8</ele>
        <time>2019-07-06T09:47:39Z</time>
      </trkpt>
      <trkpt lat="40.7738450" lon="-2.2028720">
        <ele>1157.2</ele>
        <time>2019-07-06T09:47:41Z</time>
      </trkpt>
      <trkpt lat="40.7736900" lon="-2.2028370">
        <ele>1157.8</ele>
        <time>2019-07-06T09:47:46Z</time>
      </trkpt>
      <trkpt lat="40.7736270" lon="-2.2028160">
        <ele>1158.2</ele>
        <time>2019-07-06T09:47:48Z</time>
      </trkpt>
      <trkpt lat="40.7735320" lon="-2.2027610">
        <ele>1158.8</ele>
        <time>2019-07-06T09:47:51Z</time>
      </trkpt>
      <trkpt lat="40.7733910" lon="-2.2027290">
        <ele>1159.2</ele>
        <time>2019-07-06T09:47:55Z</time>
      </trkpt>
      <trkpt lat="40.7733220" lon="-2.2027300">
        <ele>1159.6</ele>
        <time>2019-07-06T09:47:57Z</time>
      </trkpt>
      <trkpt lat="40.7731990" lon="-2.2027700">
        <ele>1160.6</ele>
        <time>2019-07-06T09:48:01Z</time>
      </trkpt>
      <trkpt lat="40.7730860" lon="-2.2028290">
        <ele>1161.2</ele>
        <time>2019-07-06T09:48:05Z</time>
      </trkpt>
      <trkpt lat="40.7730320" lon="-2.2028610">
        <ele>1161.8</ele>
        <time>2019-07-06T09:48:07Z</time>
      </trkpt>
      <trkpt lat="40.7729190" lon="-2.2029090">
        <ele>1162.8</ele>
        <time>2019-07-06T09:48:11Z</time>
      </trkpt>
      <trkpt lat="40.7728900" lon="-2.2029180">
        <ele>1163.2</ele>
        <time>2019-07-06T09:48:12Z</time>
      </trkpt>
      <trkpt lat="40.7727680" lon="-2.2029390">
        <ele>1164.0</ele>
        <time>2019-07-06T09:48:16Z</time>
      </trkpt>
      <trkpt lat="40.7726450" lon="-2.2029210">
        <ele>1164.2</ele>
        <time>2019-07-06T09:48:20Z</time>
      </trkpt>
      <trkpt lat="40.7724960" lon="-2.2028360">
        <ele>1165.0</ele>
        <time>2019-07-06T09:48:25Z</time>
      </trkpt>
      <trkpt lat="40.7724690" lon="-2.2028140">
        <ele>1165.2</ele>
        <time>2019-07-06T09:48:26Z</time>
      </trkpt>
      <trkpt lat="40.7723060" lon="-2.2026680">
        <ele>1166.0</ele>
        <time>2019-07-06T09:48:32Z</time>
      </trkpt>
      <trkpt lat="40.7722590" lon="-2.2026040">
        <ele>1166.4</ele>
        <time>2019-07-06T09:48:34Z</time>
      </trkpt>
      <trkpt lat="40.7721220" lon="-2.2024520">
        <ele>1167.0</ele>
        <time>2019-07-06T09:48:39Z</time>
      </trkpt>
      <trkpt lat="40.7720370" lon="-2.2023570">
        <ele>1168.0</ele>
        <time>2019-07-06T09:48:42Z</time>
      </trkpt>
      <trkpt lat="40.7720100" lon="-2.2023250">
        <ele>1168.2</ele>
        <time>2019-07-06T09:48:43Z</time>
      </trkpt>
      <trkpt lat="40.7718570" lon="-2.2021840">
        <ele>1168.8</ele>
        <time>2019-07-06T09:48:48Z</time>
      </trkpt>
      <trkpt lat="40.7718230" lon="-2.2021670">
        <ele>1169.2</ele>
        <time>2019-07-06T09:48:49Z</time>
      </trkpt>
      <trkpt lat="40.7716460" lon="-2.2021230">
        <ele>1170.4</ele>
        <time>2019-07-06T09:48:54Z</time>
      </trkpt>
      <trkpt lat="40.7714310" lon="-2.2020470">
        <ele>1171.2</ele>
        <time>2019-07-06T09:49:00Z</time>
      </trkpt>
      <trkpt lat="40.7713260" lon="-2.2020220">
        <ele>1171.6</ele>
        <time>2019-07-06T09:49:03Z</time>
      </trkpt>
      <trkpt lat="40.7711860" lon="-2.2019700">
        <ele>1172.8</ele>
        <time>2019-07-06T09:49:07Z</time>
      </trkpt>
      <trkpt lat="40.7710000" lon="-2.2018720">
        <ele>1173.8</ele>
        <time>2019-07-06T09:49:13Z</time>
      </trkpt>
      <trkpt lat="40.7709690" lon="-2.2018500">
        <ele>1174.0</ele>
        <time>2019-07-06T09:49:14Z</time>
      </trkpt>
      <trkpt lat="40.7708490" lon="-2.2016750">
        <ele>1174.8</ele>
        <time>2019-07-06T09:49:19Z</time>
      </trkpt>
      <trkpt lat="40.7708340" lon="-2.2016310">
        <ele>1175.0</ele>
        <time>2019-07-06T09:49:20Z</time>
      </trkpt>
      <trkpt lat="40.7707990" lon="-2.2013950">
        <ele>1175.8</ele>
        <time>2019-07-06T09:49:25Z</time>
      </trkpt>
      <trkpt lat="40.7707990" lon="-2.2013010">
        <ele>1176.0</ele>
        <time>2019-07-06T09:49:27Z</time>
      </trkpt>
      <trkpt lat="40.7708100" lon="-2.2011220">
        <ele>1177.0</ele>
        <time>2019-07-06T09:49:31Z</time>
      </trkpt>
      <trkpt lat="40.7708230" lon="-2.2010360">
        <ele>1177.4</ele>
        <time>2019-07-06T09:49:33Z</time>
      </trkpt>
      <trkpt lat="40.7708610" lon="-2.2008620">
        <ele>1178.0</ele>
        <time>2019-07-06T09:49:37Z</time>
      </trkpt>
      <trkpt lat="40.7708900" lon="-2.2007370">
        <ele>1179.0</ele>
        <time>2019-07-06T09:49:40Z</time>
      </trkpt>
      <trkpt lat="40.7708980" lon="-2.2006960">
        <ele>1179.2</ele>
        <time>2019-07-06T09:49:41Z</time>
      </trkpt>
      <trkpt lat="40.7709090" lon="-2.2004460">
        <ele>1180.4</ele>
        <time>2019-07-06T09:49:47Z</time>
      </trkpt>
      <trkpt lat="40.7708920" lon="-2.2002760">
        <ele>1181.4</ele>
        <time>2019-07-06T09:49:51Z</time>
      </trkpt>
      <trkpt lat="40.7708500" lon="-2.2001610">
        <ele>1182.2</ele>
        <time>2019-07-06T09:49:54Z</time>
      </trkpt>
      <trkpt lat="40.7708330" lon="-2.2001230">
        <ele>1182.6</ele>
        <time>2019-07-06T09:49:55Z</time>
      </trkpt>
      <trkpt lat="40.7707070" lon="-2.1999760">
        <ele>1183.2</ele>
        <time>2019-07-06T09:50:00Z</time>
      </trkpt>
      <trkpt lat="40.7706790" lon="-2.1999490">
        <ele>1183.4</ele>
        <time>2019-07-06T09:50:01Z</time>
      </trkpt>
      <trkpt lat="40.7705000" lon="-2.1998300">
        <ele>1184.8</ele>
        <time>2019-07-06T09:50:07Z</time>
      </trkpt>
      <trkpt lat="40.7703810" lon="-2.1997670">
        <ele>1186.2</ele>
        <time>2019-07-06T09:50:11Z</time>
      </trkpt>
      <trkpt lat="40.7702900" lon="-2.1997470">
        <ele>1187.0</ele>
        <time>2019-07-06T09:50:14Z</time>
      </trkpt>
      <trkpt lat="40.7702590" lon="-2.1997450">
        <ele>1187.2</ele>
        <time>2019-07-06T09:50:15Z</time>
      </trkpt>
      <trkpt lat="40.7701350" lon="-2.1997240">
        <ele>1188.4</ele>
        <time>2019-07-06T09:50:19Z</time>
      </trkpt>
      <trkpt lat="40.7700740" lon="-2.1997120">
        <ele>1189.0</ele>
        <time>2019-07-06T09:50:21Z</time>
      </trkpt>
      <trkpt lat="40.7699510" lon="-2.1996870">
        <ele>1189.4</ele>
        <time>2019-07-06T09:50:25Z</time>
      </trkpt>
      <trkpt lat="40.7697570" lon="-2.1996640">
        <ele>1190.6</ele>
        <time>2019-07-06T09:50:31Z</time>
      </trkpt>
      <trkpt lat="40.7695670" lon="-2.1996850">
        <ele>1191.6</ele>
        <time>2019-07-06T09:50:37Z</time>
      </trkpt>
      <trkpt lat="40.7694060" lon="-2.1997100">
        <ele>1192.8</ele>
        <time>2019-07-06T09:50:42Z</time>
      </trkpt>
      <trkpt lat="40.7692810" lon="-2.1997270">
        <ele>1193.8</ele>
        <time>2019-07-06T09:50:46Z</time>
      </trkpt>
      <trkpt lat="40.7692510" lon="-2.1997280">
        <ele>1194.0</ele>
        <time>2019-07-06T09:50:47Z</time>
      </trkpt>
      <trkpt lat="40.7691230" lon="-2.1997030">
        <ele>1194.8</ele>
        <time>2019-07-06T09:50:51Z</time>
      </trkpt>
      <trkpt lat="40.7690240" lon="-2.1996830">
        <ele>1195.4</ele>
        <time>2019-07-06T09:50:54Z</time>
      </trkpt>
      <trkpt lat="40.7688940" lon="-2.1996490">
        <ele>1195.8</ele>
        <time>2019-07-06T09:50:58Z</time>
      </trkpt>
      <trkpt lat="40.7687360" lon="-2.1995710">
        <ele>1196.8</ele>
        <time>2019-07-06T09:51:03Z</time>
      </trkpt>
      <trkpt lat="40.7687050" lon="-2.1995570">
        <ele>1197.0</ele>
        <time>2019-07-06T09:51:04Z</time>
      </trkpt>
      <trkpt lat="40.7685490" lon="-2.1994770">
        <ele>1198.0</ele>
        <time>2019-07-06T09:51:09Z</time>
      </trkpt>
      <trkpt lat="40.7684810" lon="-2.1994510">
        <ele>1198.2</ele>
        <time>2019-07-06T09:51:11Z</time>
      </trkpt>
      <trkpt lat="40.7683440" lon="-2.1994140">
        <ele>1199.0</ele>
        <time>2019-07-06T09:51:15Z</time>
      </trkpt>
      <trkpt lat="40.7682120" lon="-2.1993810">
        <ele>1200.0</ele>
        <time>2019-07-06T09:51:19Z</time>
      </trkpt>
      <trkpt lat="40.7681780" lon="-2.1993750">
        <ele>1200.0</ele>
        <time>2019-07-06T09:51:20Z</time>
      </trkpt>
      <trkpt lat="40.7679680" lon="-2.1993800">
        <ele>1201.0</ele>
        <time>2019-07-06T09:51:26Z</time>
      </trkpt>
      <trkpt lat="40.7679020" lon="-2.1993840">
        <ele>1201.2</ele>
        <time>2019-07-06T09:51:28Z</time>
      </trkpt>
      <trkpt lat="40.7677750" lon="-2.1994040">
        <ele>1202.0</ele>
        <time>2019-07-06T09:51:32Z</time>
      </trkpt>
      <trkpt lat="40.7677160" lon="-2.1994290">
        <ele>1202.2</ele>
        <time>2019-07-06T09:51:34Z</time>
      </trkpt>
      <trkpt lat="40.7675640" lon="-2.1994750">
        <ele>1203.4</ele>
        <time>2019-07-06T09:51:39Z</time>
      </trkpt>
      <trkpt lat="40.7673300" lon="-2.1994480">
        <ele>1204.4</ele>
        <time>2019-07-06T09:51:46Z</time>
      </trkpt>
      <trkpt lat="40.7671710" lon="-2.1993930">
        <ele>1205.4</ele>
        <time>2019-07-06T09:51:51Z</time>
      </trkpt>
      <trkpt lat="40.7671090" lon="-2.1993780">
        <ele>1206.0</ele>
        <time>2019-07-06T09:51:53Z</time>
      </trkpt>
      <trkpt lat="40.7670450" lon="-2.1993640">
        <ele>1206.4</ele>
        <time>2019-07-06T09:51:55Z</time>
      </trkpt>
      <trkpt lat="40.7668130" lon="-2.1993300">
        <ele>1207.2</ele>
        <time>2019-07-06T09:52:02Z</time>
      </trkpt>
      <trkpt lat="40.7667460" lon="-2.1993300">
        <ele>1207.6</ele>
        <time>2019-07-06T09:52:04Z</time>
      </trkpt>
      <trkpt lat="40.7665820" lon="-2.1993290">
        <ele>1208.6</ele>
        <time>2019-07-06T09:52:09Z</time>
      </trkpt>
      <trkpt lat="40.7665490" lon="-2.1993240">
        <ele>1208.8</ele>
        <time>2019-07-06T09:52:10Z</time>
      </trkpt>
      <trkpt lat="40.7663830" lon="-2.1993250">
        <ele>1209.8</ele>
        <time>2019-07-06T09:52:15Z</time>
      </trkpt>
      <trkpt lat="40.7663160" lon="-2.1993210">
        <ele>1210.0</ele>
        <time>2019-07-06T09:52:17Z</time>
      </trkpt>
      <trkpt lat="40.7661450" lon="-2.1993050">
        <ele>1210.8</ele>
        <time>2019-07-06T09:52:22Z</time>
      </trkpt>
      <trkpt lat="40.7660410" lon="-2.1993060">
        <ele>1211.2</ele>
        <time>2019-07-06T09:52:25Z</time>
      </trkpt>
      <trkpt lat="40.7658290" lon="-2.1993150">
        <ele>1211.8</ele>
        <time>2019-07-06T09:52:31Z</time>
      </trkpt>
      <trkpt lat="40.7657260" lon="-2.1993240">
        <ele>1212.4</ele>
        <time>2019-07-06T09:52:34Z</time>
      </trkpt>
      <trkpt lat="40.7656570" lon="-2.1993310">
        <ele>1213.0</ele>
        <time>2019-07-06T09:52:36Z</time>
      </trkpt>
      <trkpt lat="40.7654280" lon="-2.1993920">
        <ele>1214.0</ele>
        <time>2019-07-06T09:52:43Z</time>
      </trkpt>
      <trkpt lat="40.7652730" lon="-2.1994650">
        <ele>1215.0</ele>
        <time>2019-07-06T09:52:48Z</time>
      </trkpt>
      <trkpt lat="40.7651820" lon="-2.1995160">
        <ele>1215.6</ele>
        <time>2019-07-06T09:52:51Z</time>
      </trkpt>
      <trkpt lat="40.7650380" lon="-2.1996120">
        <ele>1216.0</ele>
        <time>2019-07-06T09:52:56Z</time>
      </trkpt>
      <trkpt lat="40.7649850" lon="-2.1996650">
        <ele>1216.4</ele>
        <time>2019-07-06T09:52:58Z</time>
      </trkpt>
      <trkpt lat="40.7648920" lon="-2.1997950">
        <ele>1217.2</ele>
        <time>2019-07-06T09:53:02Z</time>
      </trkpt>
      <trkpt lat="40.7648200" lon="-2.1999490">
        <ele>1217.8</ele>
        <time>2019-07-06T09:53:06Z</time>
      </trkpt>
      <trkpt lat="40.7647870" lon="-2.2000250">
        <ele>1218.2</ele>
        <time>2019-07-06T09:53:08Z</time>
      </trkpt>
      <trkpt lat="40.7647360" lon="-2.2001430">
        <ele>1218.6</ele>
        <time>2019-07-06T09:53:11Z</time>
      </trkpt>
      <trkpt lat="40.7646890" lon="-2.2002650">
        <ele>1219.2</ele>
        <time>2019-07-06T09:53:14Z</time>
      </trkpt>
      <trkpt lat="40.7646080" lon="-2.2004500">
        <ele>1220.4</ele>
        <time>2019-07-06T09:53:19Z</time>
      </trkpt>
      <trkpt lat="40.7645710" lon="-2.2005240">
        <ele>1220.8</ele>
        <time>2019-07-06T09:53:21Z</time>
      </trkpt>
      <trkpt lat="40.7644070" lon="-2.2006860">
        <ele>1221.6</ele>
        <time>2019-07-06T09:53:27Z</time>
      </trkpt>
      <trkpt lat="40.7642570" lon="-2.2007420">
        <ele>1222.4</ele>
        <time>2019-07-06T09:53:33Z</time>
      </trkpt>
      <trkpt lat="40.7642130" lon="-2.2007420">
        <ele>1222.6</ele>
        <time>2019-07-06T09:53:35Z</time>
      </trkpt>
      <trkpt lat="40.7641080" lon="-2.2007230">
        <ele>1223.0</ele>
        <time>2019-07-06T09:53:40Z</time>
      </trkpt>
      <trkpt lat="40.7640320" lon="-2.2007350">
        <ele>1223.4</ele>
        <time>2019-07-06T09:53:44Z</time>
      </trkpt>
      <trkpt lat="40.7640290" lon="-2.2007370">
        <ele>1223.4</ele>
        <time>2019-07-06T09:53:45Z</time>
      </trkpt>
      <trkpt lat="40.7640300" lon="-2.2007360">
        <ele>1223.6</ele>
        <time>2019-07-06T09:53:46Z</time>
      </trkpt>
      <trkpt lat="40.7639970" lon="-2.2007280">
        <ele>1224.2</ele>
        <time>2019-07-06T09:54:47Z</time>
      </trkpt>
      <trkpt lat="40.7639820" lon="-2.2007250">
        <ele>1224.4</ele>
        <time>2019-07-06T09:54:48Z</time>
      </trkpt>
      <trkpt lat="40.7639460" lon="-2.2007180">
        <ele>1224.4</ele>
        <time>2019-07-06T09:54:50Z</time>
      </trkpt>
      <trkpt lat="40.7637450" lon="-2.2006910">
        <ele>1225.0</ele>
        <time>2019-07-06T09:54:57Z</time>
      </trkpt>
      <trkpt lat="40.7636800" lon="-2.2006720">
        <ele>1225.6</ele>
        <time>2019-07-06T09:54:59Z</time>
      </trkpt>
      <trkpt lat="40.7635460" lon="-2.2006230">
        <ele>1226.2</ele>
        <time>2019-07-06T09:55:03Z</time>
      </trkpt>
      <trkpt lat="40.7634200" lon="-2.2005560">
        <ele>1226.6</ele>
        <time>2019-07-06T09:55:07Z</time>
      </trkpt>
      <trkpt lat="40.7633410" lon="-2.2004840">
        <ele>1227.0</ele>
        <time>2019-07-06T09:55:10Z</time>
      </trkpt>
      <trkpt lat="40.7632790" lon="-2.2003920">
        <ele>1227.6</ele>
        <time>2019-07-06T09:55:13Z</time>
      </trkpt>
      <trkpt lat="40.7632440" lon="-2.2003190">
        <ele>1228.0</ele>
        <time>2019-07-06T09:55:15Z</time>
      </trkpt>
      <trkpt lat="40.7631760" lon="-2.2001740">
        <ele>1228.6</ele>
        <time>2019-07-06T09:55:19Z</time>
      </trkpt>
      <trkpt lat="40.7631050" lon="-2.2000330">
        <ele>1229.4</ele>
        <time>2019-07-06T09:55:23Z</time>
      </trkpt>
      <trkpt lat="40.7630660" lon="-2.1999640">
        <ele>1229.8</ele>
        <time>2019-07-06T09:55:25Z</time>
      </trkpt>
      <trkpt lat="40.7629850" lon="-2.1997740">
        <ele>1230.2</ele>
        <time>2019-07-06T09:55:30Z</time>
      </trkpt>
      <trkpt lat="40.7629320" lon="-2.1996640">
        <ele>1230.6</ele>
        <time>2019-07-06T09:55:33Z</time>
      </trkpt>
      <trkpt lat="40.7628240" lon="-2.1995010">
        <ele>1231.4</ele>
        <time>2019-07-06T09:55:38Z</time>
      </trkpt>
      <trkpt lat="40.7627430" lon="-2.1994340">
        <ele>1232.0</ele>
        <time>2019-07-06T09:55:41Z</time>
      </trkpt>
      <trkpt lat="40.7626540" lon="-2.1994090">
        <ele>1232.8</ele>
        <time>2019-07-06T09:55:44Z</time>
      </trkpt>
      <trkpt lat="40.7626230" lon="-2.1994090">
        <ele>1233.0</ele>
        <time>2019-07-06T09:55:45Z</time>
      </trkpt>
      <trkpt lat="40.7625330" lon="-2.1994490">
        <ele>1233.6</ele>
        <time>2019-07-06T09:55:48Z</time>
      </trkpt>
      <trkpt lat="40.7624820" lon="-2.1994990">
        <ele>1234.2</ele>
        <time>2019-07-06T09:55:50Z</time>
      </trkpt>
      <trkpt lat="40.7623920" lon="-2.1996150">
        <ele>1234.8</ele>
        <time>2019-07-06T09:55:54Z</time>
      </trkpt>
      <trkpt lat="40.7623460" lon="-2.1996750">
        <ele>1235.2</ele>
        <time>2019-07-06T09:55:56Z</time>
      </trkpt>
      <trkpt lat="40.7621840" lon="-2.1998860">
        <ele>1236.2</ele>
        <time>2019-07-06T09:56:03Z</time>
      </trkpt>
      <trkpt lat="40.7621390" lon="-2.1999460">
        <ele>1236.2</ele>
        <time>2019-07-06T09:56:05Z</time>
      </trkpt>
      <trkpt lat="40.7620170" lon="-2.2000950">
        <ele>1236.6</ele>
        <time>2019-07-06T09:56:10Z</time>
      </trkpt>
      <trkpt lat="40.7619920" lon="-2.2001180">
        <ele>1236.6</ele>
        <time>2019-07-06T09:56:11Z</time>
      </trkpt>
      <trkpt lat="40.7619600" lon="-2.2001720">
        <ele>1236.6</ele>
        <time>2019-07-06T09:56:13Z</time>
      </trkpt>
      <trkpt lat="40.7619590" lon="-2.2002390">
        <ele>1236.8</ele>
        <time>2019-07-06T09:56:15Z</time>
      </trkpt>
      <trkpt lat="40.7619780" lon="-2.2003560">
        <ele>1237.0</ele>
        <time>2019-07-06T09:56:18Z</time>
      </trkpt>
      <trkpt lat="40.7619760" lon="-2.2004060">
        <ele>1236.8</ele>
        <time>2019-07-06T09:56:19Z</time>
      </trkpt>
      <trkpt lat="40.7619580" lon="-2.2005050">
        <ele>1236.4</ele>
        <time>2019-07-06T09:56:21Z</time>
      </trkpt>
      <trkpt lat="40.7619530" lon="-2.2005990">
        <ele>1235.2</ele>
        <time>2019-07-06T09:56:24Z</time>
      </trkpt>
      <trkpt lat="40.7619630" lon="-2.2006120">
        <ele>1234.8</ele>
        <time>2019-07-06T09:56:26Z</time>
      </trkpt>
      <trkpt lat="40.7619640" lon="-2.2006140">
        <ele>1234.6</ele>
        <time>2019-07-06T09:56:28Z</time>
      </trkpt>
      <trkpt lat="40.7619510" lon="-2.2006590">
        <ele>1234.2</ele>
        <time>2019-07-06T09:57:04Z</time>
      </trkpt>
      <trkpt lat="40.7618690" lon="-2.2006960">
        <ele>1234.4</ele>
        <time>2019-07-06T09:57:08Z</time>
      </trkpt>
      <trkpt lat="40.7618160" lon="-2.2007710">
        <ele>1234.2</ele>
        <time>2019-07-06T09:57:11Z</time>
      </trkpt>
      <trkpt lat="40.7617840" lon="-2.2008430">
        <ele>1234.2</ele>
        <time>2019-07-06T09:57:13Z</time>
      </trkpt>
      <trkpt lat="40.7617220" lon="-2.2009820">
        <ele>1233.0</ele>
        <time>2019-07-06T09:57:17Z</time>
      </trkpt>
      <trkpt lat="40.7616990" lon="-2.2010220">
        <ele>1232.8</ele>
        <time>2019-07-06T09:57:18Z</time>
      </trkpt>
      <trkpt lat="40.7616220" lon="-2.2011510">
        <ele>1231.8</ele>
        <time>2019-07-06T09:57:21Z</time>
      </trkpt>
      <trkpt lat="40.7615780" lon="-2.2012690">
        <ele>1230.8</ele>
        <time>2019-07-06T09:57:23Z</time>
      </trkpt>
      <trkpt lat="40.7615540" lon="-2.2013240">
        <ele>1230.2</ele>
        <time>2019-07-06T09:57:24Z</time>
      </trkpt>
      <trkpt lat="40.7615080" lon="-2.2014270">
        <ele>1228.6</ele>
        <time>2019-07-06T09:57:26Z</time>
      </trkpt>
      <trkpt lat="40.7614910" lon="-2.2014620">
        <ele>1228.0</ele>
        <time>2019-07-06T09:57:27Z</time>
      </trkpt>
      <trkpt lat="40.7614520" lon="-2.2015170">
        <ele>1227.4</ele>
        <time>2019-07-06T09:57:29Z</time>
      </trkpt>
      <trkpt lat="40.7614160" lon="-2.2015850">
        <ele>1227.2</ele>
        <time>2019-07-06T09:57:31Z</time>
      </trkpt>
      <trkpt lat="40.7613850" lon="-2.2016630">
        <ele>1227.2</ele>
        <time>2019-07-06T09:57:33Z</time>
      </trkpt>
      <trkpt lat="40.7613590" lon="-2.2018070">
        <ele>1227.4</ele>
        <time>2019-07-06T09:57:36Z</time>
      </trkpt>
      <trkpt lat="40.7613510" lon="-2.2018500">
        <ele>1227.4</ele>
        <time>2019-07-06T09:57:37Z</time>
      </trkpt>
      <trkpt lat="40.7613410" lon="-2.2020400">
        <ele>1227.0</ele>
        <time>2019-07-06T09:57:41Z</time>
      </trkpt>
      <trkpt lat="40.7613500" lon="-2.2021500">
        <ele>1226.6</ele>
        <time>2019-07-06T09:57:43Z</time>
      </trkpt>
      <trkpt lat="40.7613830" lon="-2.2022160">
        <ele>1226.4</ele>
        <time>2019-07-06T09:57:45Z</time>
      </trkpt>
      <trkpt lat="40.7614270" lon="-2.2022070">
        <ele>1226.0</ele>
        <time>2019-07-06T09:57:49Z</time>
      </trkpt>
      <trkpt lat="40.7614570" lon="-2.2021650">
        <ele>1225.8</ele>
        <time>2019-07-06T09:57:51Z</time>
      </trkpt>
      <trkpt lat="40.7614870" lon="-2.2021210">
        <ele>1225.4</ele>
        <time>2019-07-06T09:57:53Z</time>
      </trkpt>
      <trkpt lat="40.7615240" lon="-2.2020530">
        <ele>1225.0</ele>
        <time>2019-07-06T09:57:55Z</time>
      </trkpt>
      <trkpt lat="40.7615860" lon="-2.2019340">
        <ele>1224.6</ele>
        <time>2019-07-06T09:57:58Z</time>
      </trkpt>
      <trkpt lat="40.7616360" lon="-2.2018500">
        <ele>1224.2</ele>
        <time>2019-07-06T09:58:00Z</time>
      </trkpt>
      <trkpt lat="40.7616760" lon="-2.2017920">
        <ele>1223.6</ele>
        <time>2019-07-06T09:58:02Z</time>
      </trkpt>
      <trkpt lat="40.7616970" lon="-2.2017620">
        <ele>1223.2</ele>
        <time>2019-07-06T09:58:05Z</time>
      </trkpt>
      <trkpt lat="40.7617250" lon="-2.2017470">
        <ele>1223.2</ele>
        <time>2019-07-06T09:58:07Z</time>
      </trkpt>
      <trkpt lat="40.7617900" lon="-2.2017010">
        <ele>1223.0</ele>
        <time>2019-07-06T09:58:10Z</time>
      </trkpt>
      <trkpt lat="40.7618240" lon="-2.2016940">
        <ele>1223.0</ele>
        <time>2019-07-06T09:58:11Z</time>
      </trkpt>
      <trkpt lat="40.7618880" lon="-2.2017070">
        <ele>1222.8</ele>
        <time>2019-07-06T09:58:13Z</time>
      </trkpt>
      <trkpt lat="40.7619120" lon="-2.2017290">
        <ele>1222.8</ele>
        <time>2019-07-06T09:58:14Z</time>
      </trkpt>
      <trkpt lat="40.7619750" lon="-2.2018560">
        <ele>1223.2</ele>
        <time>2019-07-06T09:58:19Z</time>
      </trkpt>
      <trkpt lat="40.7619970" lon="-2.2018960">
        <ele>1223.6</ele>
        <time>2019-07-06T09:58:21Z</time>
      </trkpt>
      <trkpt lat="40.7620160" lon="-2.2019370">
        <ele>1224.0</ele>
        <time>2019-07-06T09:58:23Z</time>
      </trkpt>
      <trkpt lat="40.7620230" lon="-2.2019600">
        <ele>1224.4</ele>
        <time>2019-07-06T09:58:24Z</time>
      </trkpt>
      <trkpt lat="40.7620340" lon="-2.2020070">
        <ele>1225.0</ele>
        <time>2019-07-06T09:58:26Z</time>
      </trkpt>
      <trkpt lat="40.7620420" lon="-2.2020270">
        <ele>1225.4</ele>
        <time>2019-07-06T09:58:27Z</time>
      </trkpt>
      <trkpt lat="40.7620610" lon="-2.2020740">
        <ele>1225.8</ele>
        <time>2019-07-06T09:58:29Z</time>
      </trkpt>
      <trkpt lat="40.7620810" lon="-2.2021220">
        <ele>1226.2</ele>
        <time>2019-07-06T09:58:31Z</time>
      </trkpt>
      <trkpt lat="40.7620800" lon="-2.2021690">
        <ele>1226.4</ele>
        <time>2019-07-06T09:58:33Z</time>
      </trkpt>
      <trkpt lat="40.7620810" lon="-2.2021870">
        <ele>1226.6</ele>
        <time>2019-07-06T09:58:34Z</time>
      </trkpt>
      <trkpt lat="40.7620650" lon="-2.2022190">
        <ele>1227.2</ele>
        <time>2019-07-06T09:58:36Z</time>
      </trkpt>
      <trkpt lat="40.7620540" lon="-2.2022340">
        <ele>1227.4</ele>
        <time>2019-07-06T09:58:37Z</time>
      </trkpt>
      <trkpt lat="40.7620450" lon="-2.2022510">
        <ele>1227.6</ele>
        <time>2019-07-06T09:58:38Z</time>
      </trkpt>
      <trkpt lat="40.7620430" lon="-2.2022650">
        <ele>1228.2</ele>
        <time>2019-07-06T09:58:39Z</time>
      </trkpt>
      <trkpt lat="40.7620100" lon="-2.2023130">
        <ele>1229.2</ele>
        <time>2019-07-06T09:58:42Z</time>
      </trkpt>
      <trkpt lat="40.7619990" lon="-2.2023270">
        <ele>1229.4</ele>
        <time>2019-07-06T09:58:43Z</time>
      </trkpt>
      <trkpt lat="40.7619530" lon="-2.2023680">
        <ele>1230.2</ele>
        <time>2019-07-06T09:58:47Z</time>
      </trkpt>
      <trkpt lat="40.7619400" lon="-2.2023760">
        <ele>1230.4</ele>
        <time>2019-07-06T09:58:48Z</time>
      </trkpt>
      <trkpt lat="40.7619270" lon="-2.2023860">
        <ele>1230.8</ele>
        <time>2019-07-06T09:58:49Z</time>
      </trkpt>
      <trkpt lat="40.7618870" lon="-2.2024190">
        <ele>1231.2</ele>
        <time>2019-07-06T09:58:52Z</time>
      </trkpt>
      <trkpt lat="40.7618550" lon="-2.2024110">
        <ele>1231.4</ele>
        <time>2019-07-06T09:58:54Z</time>
      </trkpt>
      <trkpt lat="40.7618080" lon="-2.2024260">
        <ele>1231.4</ele>
        <time>2019-07-06T09:58:57Z</time>
      </trkpt>
      <trkpt lat="40.7617860" lon="-2.2024470">
        <ele>1231.6</ele>
        <time>2019-07-06T09:59:01Z</time>
      </trkpt>
      <trkpt lat="40.7618110" lon="-2.2024610">
        <ele>1231.8</ele>
        <time>2019-07-06T10:01:11Z</time>
      </trkpt>
      <trkpt lat="40.7618250" lon="-2.2024640">
        <ele>1231.8</ele>
        <time>2019-07-06T10:01:12Z</time>
      </trkpt>
      <trkpt lat="40.7618600" lon="-2.2024690">
        <ele>1231.6</ele>
        <time>2019-07-06T10:01:14Z</time>
      </trkpt>
      <trkpt lat="40.7618780" lon="-2.2024640">
        <ele>1231.6</ele>
        <time>2019-07-06T10:01:15Z</time>
      </trkpt>
      <trkpt lat="40.7619010" lon="-2.2024150">
        <ele>1231.2</ele>
        <time>2019-07-06T10:01:18Z</time>
      </trkpt>
      <trkpt lat="40.7618410" lon="-2.2023640">
        <ele>1231.0</ele>
        <time>2019-07-06T10:01:22Z</time>
      </trkpt>
      <trkpt lat="40.7617850" lon="-2.2023610">
        <ele>1230.6</ele>
        <time>2019-07-06T10:01:24Z</time>
      </trkpt>
      <trkpt lat="40.7617420" lon="-2.2023660">
        <ele>1230.4</ele>
        <time>2019-07-06T10:01:26Z</time>
      </trkpt>
      <trkpt lat="40.7617300" lon="-2.2023730">
        <ele>1230.2</ele>
        <time>2019-07-06T10:01:27Z</time>
      </trkpt>
      <trkpt lat="40.7617150" lon="-2.2024220">
        <ele>1229.8</ele>
        <time>2019-07-06T10:01:29Z</time>
      </trkpt>
      <trkpt lat="40.7617010" lon="-2.2024410">
        <ele>1229.6</ele>
        <time>2019-07-06T10:01:30Z</time>
      </trkpt>
      <trkpt lat="40.7616530" lon="-2.2024370">
        <ele>1228.8</ele>
        <time>2019-07-06T10:01:32Z</time>
      </trkpt>
      <trkpt lat="40.7616200" lon="-2.2024240">
        <ele>1228.6</ele>
        <time>2019-07-06T10:01:33Z</time>
      </trkpt>
      <trkpt lat="40.7615810" lon="-2.2024030">
        <ele>1228.2</ele>
        <time>2019-07-06T10:01:34Z</time>
      </trkpt>
      <trkpt lat="40.7614980" lon="-2.2023470">
        <ele>1227.2</ele>
        <time>2019-07-06T10:01:36Z</time>
      </trkpt>
      <trkpt lat="40.7614230" lon="-2.2022860">
        <ele>1226.8</ele>
        <time>2019-07-06T10:01:38Z</time>
      </trkpt>
      <trkpt lat="40.7613670" lon="-2.2022210">
        <ele>1226.8</ele>
        <time>2019-07-06T10:01:40Z</time>
      </trkpt>
      <trkpt lat="40.7613570" lon="-2.2021850">
        <ele>1226.6</ele>
        <time>2019-07-06T10:01:41Z</time>
      </trkpt>
      <trkpt lat="40.7613610" lon="-2.2020970">
        <ele>1226.8</ele>
        <time>2019-07-06T10:01:43Z</time>
      </trkpt>
      <trkpt lat="40.7613630" lon="-2.2020250">
        <ele>1227.0</ele>
        <time>2019-07-06T10:01:45Z</time>
      </trkpt>
      <trkpt lat="40.7613780" lon="-2.2019220">
        <ele>1227.4</ele>
        <time>2019-07-06T10:01:48Z</time>
      </trkpt>
      <trkpt lat="40.7613950" lon="-2.2018360">
        <ele>1227.4</ele>
        <time>2019-07-06T10:01:50Z</time>
      </trkpt>
      <trkpt lat="40.7614470" lon="-2.2017130">
        <ele>1227.4</ele>
        <time>2019-07-06T10:01:53Z</time>
      </trkpt>
      <trkpt lat="40.7615300" lon="-2.2015610">
        <ele>1227.2</ele>
        <time>2019-07-06T10:01:57Z</time>
      </trkpt>
      <trkpt lat="40.7616020" lon="-2.2013850">
        <ele>1228.2</ele>
        <time>2019-07-06T10:02:01Z</time>
      </trkpt>
      <trkpt lat="40.7616110" lon="-2.2013550">
        <ele>1228.6</ele>
        <time>2019-07-06T10:02:02Z</time>
      </trkpt>
      <trkpt lat="40.7616370" lon="-2.2012530">
        <ele>1229.0</ele>
        <time>2019-07-06T10:02:06Z</time>
      </trkpt>
      <trkpt lat="40.7616480" lon="-2.2012270">
        <ele>1229.2</ele>
        <time>2019-07-06T10:02:07Z</time>
      </trkpt>
      <trkpt lat="40.7616750" lon="-2.2011710">
        <ele>1229.4</ele>
        <time>2019-07-06T10:02:09Z</time>
      </trkpt>
      <trkpt lat="40.7617210" lon="-2.2011010">
        <ele>1230.2</ele>
        <time>2019-07-06T10:02:12Z</time>
      </trkpt>
      <trkpt lat="40.7617340" lon="-2.2010750">
        <ele>1230.8</ele>
        <time>2019-07-06T10:02:13Z</time>
      </trkpt>
      <trkpt lat="40.7617590" lon="-2.2010020">
        <ele>1231.8</ele>
        <time>2019-07-06T10:02:16Z</time>
      </trkpt>
      <trkpt lat="40.7617650" lon="-2.2009770">
        <ele>1232.0</ele>
        <time>2019-07-06T10:02:17Z</time>
      </trkpt>
      <trkpt lat="40.7617940" lon="-2.2009050">
        <ele>1232.6</ele>
        <time>2019-07-06T10:02:20Z</time>
      </trkpt>
      <trkpt lat="40.7618210" lon="-2.2008610">
        <ele>1233.0</ele>
        <time>2019-07-06T10:02:22Z</time>
      </trkpt>
      <trkpt lat="40.7618490" lon="-2.2007870">
        <ele>1233.6</ele>
        <time>2019-07-06T10:02:25Z</time>
      </trkpt>
      <trkpt lat="40.7618700" lon="-2.2007450">
        <ele>1233.6</ele>
        <time>2019-07-06T10:02:27Z</time>
      </trkpt>
      <trkpt lat="40.7618920" lon="-2.2007010">
        <ele>1234.0</ele>
        <time>2019-07-06T10:02:29Z</time>
      </trkpt>
      <trkpt lat="40.7619350" lon="-2.2005890">
        <ele>1234.6</ele>
        <time>2019-07-06T10:02:33Z</time>
      </trkpt>
      <trkpt lat="40.7619520" lon="-2.2004650">
        <ele>1235.0</ele>
        <time>2019-07-06T10:02:38Z</time>
      </trkpt>
      <trkpt lat="40.7619560" lon="-2.2004360">
        <ele>1235.2</ele>
        <time>2019-07-06T10:02:39Z</time>
      </trkpt>
      <trkpt lat="40.7619950" lon="-2.2002350">
        <ele>1235.8</ele>
        <time>2019-07-06T10:02:46Z</time>
      </trkpt>
      <trkpt lat="40.7620320" lon="-2.2000650">
        <ele>1236.2</ele>
        <time>2019-07-06T10:02:51Z</time>
      </trkpt>
      <trkpt lat="40.7620450" lon="-2.2000260">
        <ele>1236.4</ele>
        <time>2019-07-06T10:02:52Z</time>
      </trkpt>
      <trkpt lat="40.7621160" lon="-2.1997720">
        <ele>1236.4</ele>
        <time>2019-07-06T10:02:58Z</time>
      </trkpt>
      <trkpt lat="40.7621480" lon="-2.1996990">
        <ele>1236.6</ele>
        <time>2019-07-06T10:03:00Z</time>
      </trkpt>
      <trkpt lat="40.7621710" lon="-2.1996390">
        <ele>1236.8</ele>
        <time>2019-07-06T10:03:03Z</time>
      </trkpt>
      <trkpt lat="40.7621950" lon="-2.1995490">
        <ele>1237.0</ele>
        <time>2019-07-06T10:03:06Z</time>
      </trkpt>
      <trkpt lat="40.7622350" lon="-2.1994800">
        <ele>1237.0</ele>
        <time>2019-07-06T10:03:08Z</time>
      </trkpt>
      <trkpt lat="40.7623270" lon="-2.1994000">
        <ele>1236.8</ele>
        <time>2019-07-06T10:03:11Z</time>
      </trkpt>
      <trkpt lat="40.7623970" lon="-2.1993330">
        <ele>1236.6</ele>
        <time>2019-07-06T10:03:13Z</time>
      </trkpt>
      <trkpt lat="40.7624610" lon="-2.1992630">
        <ele>1235.8</ele>
        <time>2019-07-06T10:03:16Z</time>
      </trkpt>
      <trkpt lat="40.7624840" lon="-2.1992140">
        <ele>1235.4</ele>
        <time>2019-07-06T10:03:19Z</time>
      </trkpt>
      <trkpt lat="40.7624990" lon="-2.1992200">
        <ele>1235.4</ele>
        <time>2019-07-06T10:03:20Z</time>
      </trkpt>
      <trkpt lat="40.7624820" lon="-2.1992710">
        <ele>1235.2</ele>
        <time>2019-07-06T10:03:23Z</time>
      </trkpt>
      <trkpt lat="40.7624470" lon="-2.1993130">
        <ele>1235.2</ele>
        <time>2019-07-06T10:03:25Z</time>
      </trkpt>
      <trkpt lat="40.7624040" lon="-2.1993510">
        <ele>1235.4</ele>
        <time>2019-07-06T10:03:27Z</time>
      </trkpt>
      <trkpt lat="40.7623800" lon="-2.1993700">
        <ele>1235.4</ele>
        <time>2019-07-06T10:03:28Z</time>
      </trkpt>
      <trkpt lat="40.7622780" lon="-2.1993690">
        <ele>1236.2</ele>
        <time>2019-07-06T10:03:32Z</time>
      </trkpt>
      <trkpt lat="40.7622810" lon="-2.1992630">
        <ele>1236.6</ele>
        <time>2019-07-06T10:03:35Z</time>
      </trkpt>
      <trkpt lat="40.7622950" lon="-2.1992230">
        <ele>1236.6</ele>
        <time>2019-07-06T10:03:36Z</time>
      </trkpt>
      <trkpt lat="40.7623780" lon="-2.1990020">
        <ele>1236.6</ele>
        <time>2019-07-06T10:03:41Z</time>
      </trkpt>
      <trkpt lat="40.7624180" lon="-2.1989570">
        <ele>1236.4</ele>
        <time>2019-07-06T10:03:44Z</time>
      </trkpt>
      <trkpt lat="40.7624200" lon="-2.1989560">
        <ele>1236.4</ele>
        <time>2019-07-06T10:03:45Z</time>
      </trkpt>
      <trkpt lat="40.7623760" lon="-2.1989810">
        <ele>1235.8</ele>
        <time>2019-07-06T10:07:31Z</time>
      </trkpt>
      <trkpt lat="40.7623660" lon="-2.1990020">
        <ele>1235.8</ele>
        <time>2019-07-06T10:07:32Z</time>
      </trkpt>
      <trkpt lat="40.7623600" lon="-2.1990300">
        <ele>1235.8</ele>
        <time>2019-07-06T10:07:33Z</time>
      </trkpt>
      <trkpt lat="40.7623330" lon="-2.1991280">
        <ele>1236.0</ele>
        <time>2019-07-06T10:07:36Z</time>
      </trkpt>
      <trkpt lat="40.7622870" lon="-2.1992410">
        <ele>1236.2</ele>
        <time>2019-07-06T10:07:39Z</time>
      </trkpt>
      <trkpt lat="40.7622260" lon="-2.1993980">
        <ele>1236.6</ele>
        <time>2019-07-06T10:07:43Z</time>
      </trkpt>
      <trkpt lat="40.7621850" lon="-2.1995200">
        <ele>1236.8</ele>
        <time>2019-07-06T10:07:46Z</time>
      </trkpt>
      <trkpt lat="40.7620930" lon="-2.1997830">
        <ele>1236.6</ele>
        <time>2019-07-06T10:07:52Z</time>
      </trkpt>
      <trkpt lat="40.7620760" lon="-2.1998280">
        <ele>1236.6</ele>
        <time>2019-07-06T10:07:53Z</time>
      </trkpt>
      <trkpt lat="40.7620440" lon="-2.1999240">
        <ele>1236.8</ele>
        <time>2019-07-06T10:07:55Z</time>
      </trkpt>
      <trkpt lat="40.7619880" lon="-2.2000650">
        <ele>1236.8</ele>
        <time>2019-07-06T10:07:58Z</time>
      </trkpt>
      <trkpt lat="40.7618900" lon="-2.2001960">
        <ele>1236.8</ele>
        <time>2019-07-06T10:08:02Z</time>
      </trkpt>
      <trkpt lat="40.7617720" lon="-2.2002490">
        <ele>1237.6</ele>
        <time>2019-07-06T10:08:07Z</time>
      </trkpt>
      <trkpt lat="40.7617370" lon="-2.2002530">
        <ele>1237.8</ele>
        <time>2019-07-06T10:08:09Z</time>
      </trkpt>
      <trkpt lat="40.7616580" lon="-2.2002580">
        <ele>1238.2</ele>
        <time>2019-07-06T10:08:13Z</time>
      </trkpt>
      <trkpt lat="40.7616390" lon="-2.2002730">
        <ele>1238.2</ele>
        <time>2019-07-06T10:08:14Z</time>
      </trkpt>
      <trkpt lat="40.7616090" lon="-2.2003590">
        <ele>1238.4</ele>
        <time>2019-07-06T10:08:17Z</time>
      </trkpt>
      <trkpt lat="40.7616030" lon="-2.2003970">
        <ele>1238.4</ele>
        <time>2019-07-06T10:08:18Z</time>
      </trkpt>
      <trkpt lat="40.7615660" lon="-2.2005310">
        <ele>1238.2</ele>
        <time>2019-07-06T10:08:22Z</time>
      </trkpt>
      <trkpt lat="40.7615610" lon="-2.2005350">
        <ele>1238.2</ele>
        <time>2019-07-06T10:08:24Z</time>
      </trkpt>
      <trkpt lat="40.7615870" lon="-2.2004420">
        <ele>1237.8</ele>
        <time>2019-07-06T10:19:10Z</time>
      </trkpt>
      <trkpt lat="40.7616030" lon="-2.2004270">
        <ele>1237.8</ele>
        <time>2019-07-06T10:19:11Z</time>
      </trkpt>
      <trkpt lat="40.7616370" lon="-2.2003870">
        <ele>1237.8</ele>
        <time>2019-07-06T10:19:13Z</time>
      </trkpt>
      <trkpt lat="40.7616330" lon="-2.2003120">
        <ele>1238.2</ele>
        <time>2019-07-06T10:19:16Z</time>
      </trkpt>
      <trkpt lat="40.7615940" lon="-2.2001830">
        <ele>1238.6</ele>
        <time>2019-07-06T10:19:21Z</time>
      </trkpt>
      <trkpt lat="40.7615350" lon="-2.2001310">
        <ele>1239.2</ele>
        <time>2019-07-06T10:19:24Z</time>
      </trkpt>
      <trkpt lat="40.7615140" lon="-2.2001110">
        <ele>1239.4</ele>
        <time>2019-07-06T10:19:25Z</time>
      </trkpt>
      <trkpt lat="40.7614680" lon="-2.2000730">
        <ele>1239.8</ele>
        <time>2019-07-06T10:19:27Z</time>
      </trkpt>
      <trkpt lat="40.7613890" lon="-2.2000140">
        <ele>1240.2</ele>
        <time>2019-07-06T10:19:30Z</time>
      </trkpt>
      <trkpt lat="40.7612820" lon="-2.1999430">
        <ele>1241.0</ele>
        <time>2019-07-06T10:19:34Z</time>
      </trkpt>
      <trkpt lat="40.7612310" lon="-2.1999050">
        <ele>1241.4</ele>
        <time>2019-07-06T10:19:36Z</time>
      </trkpt>
      <trkpt lat="40.7611270" lon="-2.1998350">
        <ele>1242.2</ele>
        <time>2019-07-06T10:19:40Z</time>
      </trkpt>
      <trkpt lat="40.7611050" lon="-2.1998130">
        <ele>1242.4</ele>
        <time>2019-07-06T10:19:41Z</time>
      </trkpt>
      <trkpt lat="40.7610810" lon="-2.1997890">
        <ele>1242.4</ele>
        <time>2019-07-06T10:19:42Z</time>
      </trkpt>
      <trkpt lat="40.7609730" lon="-2.1997320">
        <ele>1243.0</ele>
        <time>2019-07-06T10:19:46Z</time>
      </trkpt>
      <trkpt lat="40.7609460" lon="-2.1997170">
        <ele>1243.2</ele>
        <time>2019-07-06T10:19:47Z</time>
      </trkpt>
      <trkpt lat="40.7608930" lon="-2.1996830">
        <ele>1243.6</ele>
        <time>2019-07-06T10:19:49Z</time>
      </trkpt>
      <trkpt lat="40.7607620" lon="-2.1995900">
        <ele>1244.4</ele>
        <time>2019-07-06T10:19:54Z</time>
      </trkpt>
      <trkpt lat="40.7607350" lon="-2.1995760">
        <ele>1244.6</ele>
        <time>2019-07-06T10:19:55Z</time>
      </trkpt>
      <trkpt lat="40.7607090" lon="-2.1995610">
        <ele>1244.8</ele>
        <time>2019-07-06T10:19:56Z</time>
      </trkpt>
      <trkpt lat="40.7605520" lon="-2.1994600">
        <ele>1246.0</ele>
        <time>2019-07-06T10:20:02Z</time>
      </trkpt>
      <trkpt lat="40.7605250" lon="-2.1994420">
        <ele>1246.2</ele>
        <time>2019-07-06T10:20:03Z</time>
      </trkpt>
      <trkpt lat="40.7603790" lon="-2.1993380">
        <ele>1247.0</ele>
        <time>2019-07-06T10:20:08Z</time>
      </trkpt>
      <trkpt lat="40.7602800" lon="-2.1992720">
        <ele>1246.8</ele>
        <time>2019-07-06T10:20:11Z</time>
      </trkpt>
      <trkpt lat="40.7600180" lon="-2.1990870">
        <ele>1247.8</ele>
        <time>2019-07-06T10:20:19Z</time>
      </trkpt>
      <trkpt lat="40.7597250" lon="-2.1988790">
        <ele>1248.8</ele>
        <time>2019-07-06T10:20:28Z</time>
      </trkpt>
      <trkpt lat="40.7594860" lon="-2.1987040">
        <ele>1250.0</ele>
        <time>2019-07-06T10:20:35Z</time>
      </trkpt>
      <trkpt lat="40.7594510" lon="-2.1986810">
        <ele>1250.2</ele>
        <time>2019-07-06T10:20:36Z</time>
      </trkpt>
      <trkpt lat="40.7592380" lon="-2.1985290">
        <ele>1251.0</ele>
        <time>2019-07-06T10:20:42Z</time>
      </trkpt>
      <trkpt lat="40.7590910" lon="-2.1984370">
        <ele>1251.6</ele>
        <time>2019-07-06T10:20:46Z</time>
      </trkpt>
      <trkpt lat="40.7589050" lon="-2.1983390">
        <ele>1252.0</ele>
        <time>2019-07-06T10:20:51Z</time>
      </trkpt>
      <trkpt lat="40.7587530" lon="-2.1982660">
        <ele>1252.8</ele>
        <time>2019-07-06T10:20:55Z</time>
      </trkpt>
      <trkpt lat="40.7586400" lon="-2.1982140">
        <ele>1253.2</ele>
        <time>2019-07-06T10:20:58Z</time>
      </trkpt>
      <trkpt lat="40.7584470" lon="-2.1981340">
        <ele>1253.8</ele>
        <time>2019-07-06T10:21:03Z</time>
      </trkpt>
      <trkpt lat="40.7584090" lon="-2.1981150">
        <ele>1253.8</ele>
        <time>2019-07-06T10:21:04Z</time>
      </trkpt>
      <trkpt lat="40.7582930" lon="-2.1980660">
        <ele>1254.2</ele>
        <time>2019-07-06T10:21:07Z</time>
      </trkpt>
      <trkpt lat="40.7581050" lon="-2.1979790">
        <ele>1255.0</ele>
        <time>2019-07-06T10:21:12Z</time>
      </trkpt>
      <trkpt lat="40.7579880" lon="-2.1979440">
        <ele>1255.2</ele>
        <time>2019-07-06T10:21:15Z</time>
      </trkpt>
      <trkpt lat="40.7579090" lon="-2.1979210">
        <ele>1255.4</ele>
        <time>2019-07-06T10:21:17Z</time>
      </trkpt>
      <trkpt lat="40.7578310" lon="-2.1978940">
        <ele>1256.0</ele>
        <time>2019-07-06T10:21:19Z</time>
      </trkpt>
      <trkpt lat="40.7577120" lon="-2.1978480">
        <ele>1256.2</ele>
        <time>2019-07-06T10:21:22Z</time>
      </trkpt>
      <trkpt lat="40.7573900" lon="-2.1977280">
        <ele>1256.6</ele>
        <time>2019-07-06T10:21:30Z</time>
      </trkpt>
      <trkpt lat="40.7571910" lon="-2.1976470">
        <ele>1257.2</ele>
        <time>2019-07-06T10:21:35Z</time>
      </trkpt>
      <trkpt lat="40.7570730" lon="-2.1975950">
        <ele>1257.8</ele>
        <time>2019-07-06T10:21:38Z</time>
      </trkpt>
      <trkpt lat="40.7569540" lon="-2.1975520">
        <ele>1258.2</ele>
        <time>2019-07-06T10:21:41Z</time>
      </trkpt>
      <trkpt lat="40.7567530" lon="-2.1974800">
        <ele>1258.8</ele>
        <time>2019-07-06T10:21:46Z</time>
      </trkpt>
      <trkpt lat="40.7565890" lon="-2.1974150">
        <ele>1259.4</ele>
        <time>2019-07-06T10:21:50Z</time>
      </trkpt>
      <trkpt lat="40.7563780" lon="-2.1973420">
        <ele>1260.2</ele>
        <time>2019-07-06T10:21:55Z</time>
      </trkpt>
      <trkpt lat="40.7562520" lon="-2.1972940">
        <ele>1260.4</ele>
        <time>2019-07-06T10:21:58Z</time>
      </trkpt>
      <trkpt lat="40.7561280" lon="-2.1972380">
        <ele>1260.8</ele>
        <time>2019-07-06T10:22:01Z</time>
      </trkpt>
      <trkpt lat="40.7560850" lon="-2.1972280">
        <ele>1260.8</ele>
        <time>2019-07-06T10:22:02Z</time>
      </trkpt>
      <trkpt lat="40.7559200" lon="-2.1971780">
        <ele>1261.4</ele>
        <time>2019-07-06T10:22:06Z</time>
      </trkpt>
      <trkpt lat="40.7557570" lon="-2.1971210">
        <ele>1261.8</ele>
        <time>2019-07-06T10:22:10Z</time>
      </trkpt>
      <trkpt lat="40.7554340" lon="-2.1970130">
        <ele>1262.6</ele>
        <time>2019-07-06T10:22:18Z</time>
      </trkpt>
      <trkpt lat="40.7551080" lon="-2.1969070">
        <ele>1263.6</ele>
        <time>2019-07-06T10:22:26Z</time>
      </trkpt>
      <trkpt lat="40.7550270" lon="-2.1968810">
        <ele>1263.6</ele>
        <time>2019-07-06T10:22:28Z</time>
      </trkpt>
      <trkpt lat="40.7547720" lon="-2.1968100">
        <ele>1264.0</ele>
        <time>2019-07-06T10:22:34Z</time>
      </trkpt>
      <trkpt lat="40.7545540" lon="-2.1967530">
        <ele>1264.6</ele>
        <time>2019-07-06T10:22:39Z</time>
      </trkpt>
      <trkpt lat="40.7544240" lon="-2.1967100">
        <ele>1264.8</ele>
        <time>2019-07-06T10:22:42Z</time>
      </trkpt>
      <trkpt lat="40.7543810" lon="-2.1966960">
        <ele>1264.8</ele>
        <time>2019-07-06T10:22:43Z</time>
      </trkpt>
      <trkpt lat="40.7541560" lon="-2.1966430">
        <ele>1265.0</ele>
        <time>2019-07-06T10:22:48Z</time>
      </trkpt>
      <trkpt lat="40.7537930" lon="-2.1965600">
        <ele>1265.0</ele>
        <time>2019-07-06T10:22:56Z</time>
      </trkpt>
      <trkpt lat="40.7535680" lon="-2.1965080">
        <ele>1265.2</ele>
        <time>2019-07-06T10:23:01Z</time>
      </trkpt>
      <trkpt lat="40.7534750" lon="-2.1964900">
        <ele>1265.4</ele>
        <time>2019-07-06T10:23:03Z</time>
      </trkpt>
      <trkpt lat="40.7532920" lon="-2.1964540">
        <ele>1265.8</ele>
        <time>2019-07-06T10:23:07Z</time>
      </trkpt>
      <trkpt lat="40.7531070" lon="-2.1964220">
        <ele>1266.0</ele>
        <time>2019-07-06T10:23:11Z</time>
      </trkpt>
      <trkpt lat="40.7527650" lon="-2.1963740">
        <ele>1265.6</ele>
        <time>2019-07-06T10:23:18Z</time>
      </trkpt>
      <trkpt lat="40.7525610" lon="-2.1963500">
        <ele>1266.0</ele>
        <time>2019-07-06T10:23:22Z</time>
      </trkpt>
      <trkpt lat="40.7523530" lon="-2.1963280">
        <ele>1266.0</ele>
        <time>2019-07-06T10:23:26Z</time>
      </trkpt>
      <trkpt lat="40.7518260" lon="-2.1962910">
        <ele>1266.2</ele>
        <time>2019-07-06T10:23:36Z</time>
      </trkpt>
      <trkpt lat="40.7512830" lon="-2.1962750">
        <ele>1265.8</ele>
        <time>2019-07-06T10:23:46Z</time>
      </trkpt>
      <trkpt lat="40.7507080" lon="-2.1962750">
        <ele>1265.6</ele>
        <time>2019-07-06T10:23:56Z</time>
      </trkpt>
      <trkpt lat="40.7502560" lon="-2.1963060">
        <ele>1265.4</ele>
        <time>2019-07-06T10:24:04Z</time>
      </trkpt>
      <trkpt lat="40.7499080" lon="-2.1963350">
        <ele>1264.4</ele>
        <time>2019-07-06T10:24:10Z</time>
      </trkpt>
      <trkpt lat="40.7496700" lon="-2.1963500">
        <ele>1264.0</ele>
        <time>2019-07-06T10:24:14Z</time>
      </trkpt>
      <trkpt lat="40.7492980" lon="-2.1963930">
        <ele>1263.4</ele>
        <time>2019-07-06T10:24:20Z</time>
      </trkpt>
      <trkpt lat="40.7491680" lon="-2.1964140">
        <ele>1263.2</ele>
        <time>2019-07-06T10:24:22Z</time>
      </trkpt>
      <trkpt lat="40.7488390" lon="-2.1964790">
        <ele>1262.4</ele>
        <time>2019-07-06T10:24:27Z</time>
      </trkpt>
      <trkpt lat="40.7486390" lon="-2.1965070">
        <ele>1262.0</ele>
        <time>2019-07-06T10:24:30Z</time>
      </trkpt>
      <trkpt lat="40.7485070" lon="-2.1965350">
        <ele>1262.0</ele>
        <time>2019-07-06T10:24:32Z</time>
      </trkpt>
      <trkpt lat="40.7482480" lon="-2.1966130">
        <ele>1261.8</ele>
        <time>2019-07-06T10:24:36Z</time>
      </trkpt>
      <trkpt lat="40.7477900" lon="-2.1967250">
        <ele>1261.2</ele>
        <time>2019-07-06T10:24:43Z</time>
      </trkpt>
      <trkpt lat="40.7477250" lon="-2.1967450">
        <ele>1260.8</ele>
        <time>2019-07-06T10:24:44Z</time>
      </trkpt>
      <trkpt lat="40.7475960" lon="-2.1967860">
        <ele>1260.6</ele>
        <time>2019-07-06T10:24:46Z</time>
      </trkpt>
      <trkpt lat="40.7473400" lon="-2.1968640">
        <ele>1259.6</ele>
        <time>2019-07-06T10:24:50Z</time>
      </trkpt>
      <trkpt lat="40.7471500" lon="-2.1969300">
        <ele>1258.8</ele>
        <time>2019-07-06T10:24:53Z</time>
      </trkpt>
      <trkpt lat="40.7469650" lon="-2.1969920">
        <ele>1258.4</ele>
        <time>2019-07-06T10:24:56Z</time>
      </trkpt>
      <trkpt lat="40.7465420" lon="-2.1971590">
        <ele>1257.4</ele>
        <time>2019-07-06T10:25:03Z</time>
      </trkpt>
      <trkpt lat="40.7460080" lon="-2.1973790">
        <ele>1258.0</ele>
        <time>2019-07-06T10:25:12Z</time>
      </trkpt>
      <trkpt lat="40.7458960" lon="-2.1974310">
        <ele>1258.0</ele>
        <time>2019-07-06T10:25:14Z</time>
      </trkpt>
      <trkpt lat="40.7454140" lon="-2.1976660">
        <ele>1258.4</ele>
        <time>2019-07-06T10:25:23Z</time>
      </trkpt>
      <trkpt lat="40.7451020" lon="-2.1978240">
        <ele>1258.2</ele>
        <time>2019-07-06T10:25:29Z</time>
      </trkpt>
      <trkpt lat="40.7450000" lon="-2.1978770">
        <ele>1258.4</ele>
        <time>2019-07-06T10:25:31Z</time>
      </trkpt>
      <trkpt lat="40.7448590" lon="-2.1979570">
        <ele>1259.0</ele>
        <time>2019-07-06T10:25:34Z</time>
      </trkpt>
      <trkpt lat="40.7446350" lon="-2.1980850">
        <ele>1259.4</ele>
        <time>2019-07-06T10:25:39Z</time>
      </trkpt>
      <trkpt lat="40.7445480" lon="-2.1981390">
        <ele>1259.4</ele>
        <time>2019-07-06T10:25:41Z</time>
      </trkpt>
      <trkpt lat="40.7445050" lon="-2.1981640">
        <ele>1259.6</ele>
        <time>2019-07-06T10:25:42Z</time>
      </trkpt>
      <trkpt lat="40.7442480" lon="-2.1983220">
        <ele>1260.2</ele>
        <time>2019-07-06T10:25:48Z</time>
      </trkpt>
      <trkpt lat="40.7440870" lon="-2.1984250">
        <ele>1260.6</ele>
        <time>2019-07-06T10:25:52Z</time>
      </trkpt>
      <trkpt lat="40.7437730" lon="-2.1986340">
        <ele>1261.4</ele>
        <time>2019-07-06T10:26:00Z</time>
      </trkpt>
      <trkpt lat="40.7437350" lon="-2.1986620">
        <ele>1261.6</ele>
        <time>2019-07-06T10:26:01Z</time>
      </trkpt>
      <trkpt lat="40.7434600" lon="-2.1988450">
        <ele>1262.6</ele>
        <time>2019-07-06T10:26:08Z</time>
      </trkpt>
      <trkpt lat="40.7434220" lon="-2.1988710">
        <ele>1262.6</ele>
        <time>2019-07-06T10:26:09Z</time>
      </trkpt>
      <trkpt lat="40.7432270" lon="-2.1990050">
        <ele>1263.4</ele>
        <time>2019-07-06T10:26:14Z</time>
      </trkpt>
      <trkpt lat="40.7431460" lon="-2.1990560">
        <ele>1263.8</ele>
        <time>2019-07-06T10:26:16Z</time>
      </trkpt>
      <trkpt lat="40.7429520" lon="-2.1992020">
        <ele>1264.4</ele>
        <time>2019-07-06T10:26:21Z</time>
      </trkpt>
      <trkpt lat="40.7428340" lon="-2.1992890">
        <ele>1264.8</ele>
        <time>2019-07-06T10:26:24Z</time>
      </trkpt>
      <trkpt lat="40.7427950" lon="-2.1993170">
        <ele>1264.8</ele>
        <time>2019-07-06T10:26:25Z</time>
      </trkpt>
      <trkpt lat="40.7426810" lon="-2.1994140">
        <ele>1265.0</ele>
        <time>2019-07-06T10:26:28Z</time>
      </trkpt>
      <trkpt lat="40.7424120" lon="-2.1996300">
        <ele>1265.6</ele>
        <time>2019-07-06T10:26:35Z</time>
      </trkpt>
      <trkpt lat="40.7423360" lon="-2.1996930">
        <ele>1266.0</ele>
        <time>2019-07-06T10:26:37Z</time>
      </trkpt>
      <trkpt lat="40.7421130" lon="-2.1998750">
        <ele>1266.0</ele>
        <time>2019-07-06T10:26:43Z</time>
      </trkpt>
      <trkpt lat="40.7418190" lon="-2.2001600">
        <ele>1266.8</ele>
        <time>2019-07-06T10:26:51Z</time>
      </trkpt>
      <trkpt lat="40.7417810" lon="-2.2001930">
        <ele>1267.0</ele>
        <time>2019-07-06T10:26:52Z</time>
      </trkpt>
      <trkpt lat="40.7414280" lon="-2.2005550">
        <ele>1267.4</ele>
        <time>2019-07-06T10:27:02Z</time>
      </trkpt>
      <trkpt lat="40.7412490" lon="-2.2007410">
        <ele>1267.8</ele>
        <time>2019-07-06T10:27:07Z</time>
      </trkpt>
      <trkpt lat="40.7411050" lon="-2.2008870">
        <ele>1268.4</ele>
        <time>2019-07-06T10:27:11Z</time>
      </trkpt>
      <trkpt lat="40.7407660" lon="-2.2012430">
        <ele>1268.8</ele>
        <time>2019-07-06T10:27:20Z</time>
      </trkpt>
      <trkpt lat="40.7407260" lon="-2.2012840">
        <ele>1269.0</ele>
        <time>2019-07-06T10:27:21Z</time>
      </trkpt>
      <trkpt lat="40.7403620" lon="-2.2016860">
        <ele>1269.8</ele>
        <time>2019-07-06T10:27:30Z</time>
      </trkpt>
      <trkpt lat="40.7402770" lon="-2.2017780">
        <ele>1270.0</ele>
        <time>2019-07-06T10:27:32Z</time>
      </trkpt>
      <trkpt lat="40.7400280" lon="-2.2020720">
        <ele>1270.6</ele>
        <time>2019-07-06T10:27:38Z</time>
      </trkpt>
      <trkpt lat="40.7398160" lon="-2.2023070">
        <ele>1271.2</ele>
        <time>2019-07-06T10:27:43Z</time>
      </trkpt>
      <trkpt lat="40.7396910" lon="-2.2024450">
        <ele>1271.6</ele>
        <time>2019-07-06T10:27:46Z</time>
      </trkpt>
      <trkpt lat="40.7392720" lon="-2.2029260">
        <ele>1271.4</ele>
        <time>2019-07-06T10:27:56Z</time>
      </trkpt>
      <trkpt lat="40.7392310" lon="-2.2029760">
        <ele>1271.4</ele>
        <time>2019-07-06T10:27:57Z</time>
      </trkpt>
      <trkpt lat="40.7388670" lon="-2.2033990">
        <ele>1272.2</ele>
        <time>2019-07-06T10:28:06Z</time>
      </trkpt>
      <trkpt lat="40.7386690" lon="-2.2036360">
        <ele>1272.2</ele>
        <time>2019-07-06T10:28:11Z</time>
      </trkpt>
      <trkpt lat="40.7384690" lon="-2.2038670">
        <ele>1272.2</ele>
        <time>2019-07-06T10:28:16Z</time>
      </trkpt>
      <trkpt lat="40.7381240" lon="-2.2042550">
        <ele>1271.6</ele>
        <time>2019-07-06T10:28:25Z</time>
      </trkpt>
      <trkpt lat="40.7377810" lon="-2.2046600">
        <ele>1272.0</ele>
        <time>2019-07-06T10:28:34Z</time>
      </trkpt>
      <trkpt lat="40.7374940" lon="-2.2049770">
        <ele>1272.6</ele>
        <time>2019-07-06T10:28:41Z</time>
      </trkpt>
      <trkpt lat="40.7371910" lon="-2.2053350">
        <ele>1272.6</ele>
        <time>2019-07-06T10:28:49Z</time>
      </trkpt>
      <trkpt lat="40.7368970" lon="-2.2056650">
        <ele>1272.8</ele>
        <time>2019-07-06T10:28:57Z</time>
      </trkpt>
      <trkpt lat="40.7367570" lon="-2.2058320">
        <ele>1273.0</ele>
        <time>2019-07-06T10:29:01Z</time>
      </trkpt>
      <trkpt lat="40.7365770" lon="-2.2060410">
        <ele>1273.4</ele>
        <time>2019-07-06T10:29:06Z</time>
      </trkpt>
      <trkpt lat="40.7362790" lon="-2.2063860">
        <ele>1272.8</ele>
        <time>2019-07-06T10:29:14Z</time>
      </trkpt>
      <trkpt lat="40.7359110" lon="-2.2068200">
        <ele>1273.4</ele>
        <time>2019-07-06T10:29:24Z</time>
      </trkpt>
      <trkpt lat="40.7356990" lon="-2.2070720">
        <ele>1273.6</ele>
        <time>2019-07-06T10:29:30Z</time>
      </trkpt>
      <trkpt lat="40.7356270" lon="-2.2071520">
        <ele>1273.6</ele>
        <time>2019-07-06T10:29:32Z</time>
      </trkpt>
      <trkpt lat="40.7354170" lon="-2.2073940">
        <ele>1274.0</ele>
        <time>2019-07-06T10:29:38Z</time>
      </trkpt>
      <trkpt lat="40.7351400" lon="-2.2077160">
        <ele>1274.6</ele>
        <time>2019-07-06T10:29:46Z</time>
      </trkpt>
      <trkpt lat="40.7350250" lon="-2.2078460">
        <ele>1274.8</ele>
        <time>2019-07-06T10:29:49Z</time>
      </trkpt>
      <trkpt lat="40.7347970" lon="-2.2081010">
        <ele>1275.2</ele>
        <time>2019-07-06T10:29:55Z</time>
      </trkpt>
      <trkpt lat="40.7346540" lon="-2.2082730">
        <ele>1276.0</ele>
        <time>2019-07-06T10:29:59Z</time>
      </trkpt>
      <trkpt lat="40.7344650" lon="-2.2084840">
        <ele>1276.4</ele>
        <time>2019-07-06T10:30:04Z</time>
      </trkpt>
      <trkpt lat="40.7342360" lon="-2.2087340">
        <ele>1276.8</ele>
        <time>2019-07-06T10:30:10Z</time>
      </trkpt>
      <trkpt lat="40.7342000" lon="-2.2087790">
        <ele>1277.0</ele>
        <time>2019-07-06T10:30:11Z</time>
      </trkpt>
      <trkpt lat="40.7341630" lon="-2.2088220">
        <ele>1277.2</ele>
        <time>2019-07-06T10:30:12Z</time>
      </trkpt>
      <trkpt lat="40.7338940" lon="-2.2091130">
        <ele>1278.0</ele>
        <time>2019-07-06T10:30:19Z</time>
      </trkpt>
      <trkpt lat="40.7338550" lon="-2.2091530">
        <ele>1278.0</ele>
        <time>2019-07-06T10:30:20Z</time>
      </trkpt>
      <trkpt lat="40.7335340" lon="-2.2094500">
        <ele>1278.2</ele>
        <time>2019-07-06T10:30:28Z</time>
      </trkpt>
      <trkpt lat="40.7333680" lon="-2.2095920">
        <ele>1278.8</ele>
        <time>2019-07-06T10:30:32Z</time>
      </trkpt>
      <trkpt lat="40.7332060" lon="-2.2097420">
        <ele>1279.2</ele>
        <time>2019-07-06T10:30:36Z</time>
      </trkpt>
      <trkpt lat="40.7329870" lon="-2.2099110">
        <ele>1280.0</ele>
        <time>2019-07-06T10:30:41Z</time>
      </trkpt>
      <trkpt lat="40.7329010" lon="-2.2099820">
        <ele>1280.2</ele>
        <time>2019-07-06T10:30:43Z</time>
      </trkpt>
      <trkpt lat="40.7324680" lon="-2.2103320">
        <ele>1281.0</ele>
        <time>2019-07-06T10:30:53Z</time>
      </trkpt>
      <trkpt lat="40.7324240" lon="-2.2103660">
        <ele>1281.2</ele>
        <time>2019-07-06T10:30:54Z</time>
      </trkpt>
      <trkpt lat="40.7321560" lon="-2.2105720">
        <ele>1282.0</ele>
        <time>2019-07-06T10:31:00Z</time>
      </trkpt>
      <trkpt lat="40.7319860" lon="-2.2107120">
        <ele>1282.2</ele>
        <time>2019-07-06T10:31:04Z</time>
      </trkpt>
      <trkpt lat="40.7315990" lon="-2.2110220">
        <ele>1283.0</ele>
        <time>2019-07-06T10:31:13Z</time>
      </trkpt>
      <trkpt lat="40.7314690" lon="-2.2111320">
        <ele>1283.0</ele>
        <time>2019-07-06T10:31:16Z</time>
      </trkpt>
      <trkpt lat="40.7312450" lon="-2.2113150">
        <ele>1283.2</ele>
        <time>2019-07-06T10:31:21Z</time>
      </trkpt>
      <trkpt lat="40.7308800" lon="-2.2116030">
        <ele>1283.6</ele>
        <time>2019-07-06T10:31:29Z</time>
      </trkpt>
      <trkpt lat="40.7307870" lon="-2.2116790">
        <ele>1283.6</ele>
        <time>2019-07-06T10:31:31Z</time>
      </trkpt>
      <trkpt lat="40.7303320" lon="-2.2120440">
        <ele>1283.6</ele>
        <time>2019-07-06T10:31:41Z</time>
      </trkpt>
      <trkpt lat="40.7299560" lon="-2.2123410">
        <ele>1283.4</ele>
        <time>2019-07-06T10:31:49Z</time>
      </trkpt>
      <trkpt lat="40.7296190" lon="-2.2126140">
        <ele>1282.2</ele>
        <time>2019-07-06T10:31:56Z</time>
      </trkpt>
      <trkpt lat="40.7293830" lon="-2.2127980">
        <ele>1281.6</ele>
        <time>2019-07-06T10:32:01Z</time>
      </trkpt>
      <trkpt lat="40.7292440" lon="-2.2129110">
        <ele>1281.4</ele>
        <time>2019-07-06T10:32:04Z</time>
      </trkpt>
      <trkpt lat="40.7289500" lon="-2.2131410">
        <ele>1281.2</ele>
        <time>2019-07-06T10:32:10Z</time>
      </trkpt>
      <trkpt lat="40.7288060" lon="-2.2132670">
        <ele>1280.8</ele>
        <time>2019-07-06T10:32:13Z</time>
      </trkpt>
      <trkpt lat="40.7287660" lon="-2.2134770">
        <ele>1280.4</ele>
        <time>2019-07-06T10:32:16Z</time>
      </trkpt>
      <trkpt lat="40.7288080" lon="-2.2136110">
        <ele>1280.4</ele>
        <time>2019-07-06T10:32:18Z</time>
      </trkpt>
      <trkpt lat="40.7288530" lon="-2.2137410">
        <ele>1280.4</ele>
        <time>2019-07-06T10:32:20Z</time>
      </trkpt>
      <trkpt lat="40.7289400" lon="-2.2142070">
        <ele>1280.4</ele>
        <time>2019-07-06T10:32:26Z</time>
      </trkpt>
      <trkpt lat="40.7289530" lon="-2.2146890">
        <ele>1280.0</ele>
        <time>2019-07-06T10:32:31Z</time>
      </trkpt>
      <trkpt lat="40.7289570" lon="-2.2147920">
        <ele>1279.8</ele>
        <time>2019-07-06T10:32:32Z</time>
      </trkpt>
      <trkpt lat="40.7289700" lon="-2.2150020">
        <ele>1279.2</ele>
        <time>2019-07-06T10:32:34Z</time>
      </trkpt>
      <trkpt lat="40.7289820" lon="-2.2154260">
        <ele>1278.4</ele>
        <time>2019-07-06T10:32:38Z</time>
      </trkpt>
      <trkpt lat="40.7289860" lon="-2.2156380">
        <ele>1278.2</ele>
        <time>2019-07-06T10:32:40Z</time>
      </trkpt>
      <trkpt lat="40.7290110" lon="-2.2163790">
        <ele>1277.2</ele>
        <time>2019-07-06T10:32:47Z</time>
      </trkpt>
      <trkpt lat="40.7290150" lon="-2.2165890">
        <ele>1276.4</ele>
        <time>2019-07-06T10:32:49Z</time>
      </trkpt>
      <trkpt lat="40.7290210" lon="-2.2168000">
        <ele>1276.0</ele>
        <time>2019-07-06T10:32:51Z</time>
      </trkpt>
      <trkpt lat="40.7290410" lon="-2.2175470">
        <ele>1275.2</ele>
        <time>2019-07-06T10:32:58Z</time>
      </trkpt>
      <trkpt lat="40.7290520" lon="-2.2177590">
        <ele>1275.0</ele>
        <time>2019-07-06T10:33:00Z</time>
      </trkpt>
      <trkpt lat="40.7290670" lon="-2.2183930">
        <ele>1274.4</ele>
        <time>2019-07-06T10:33:06Z</time>
      </trkpt>
      <trkpt lat="40.7290830" lon="-2.2187080">
        <ele>1273.8</ele>
        <time>2019-07-06T10:33:09Z</time>
      </trkpt>
      <trkpt lat="40.7290890" lon="-2.2192260">
        <ele>1273.4</ele>
        <time>2019-07-06T10:33:14Z</time>
      </trkpt>
      <trkpt lat="40.7291160" lon="-2.2200320">
        <ele>1273.2</ele>
        <time>2019-07-06T10:33:22Z</time>
      </trkpt>
      <trkpt lat="40.7291190" lon="-2.2201270">
        <ele>1273.2</ele>
        <time>2019-07-06T10:33:23Z</time>
      </trkpt>
      <trkpt lat="40.7291260" lon="-2.2204000">
        <ele>1273.6</ele>
        <time>2019-07-06T10:33:26Z</time>
      </trkpt>
      <trkpt lat="40.7291340" lon="-2.2208400">
        <ele>1273.8</ele>
        <time>2019-07-06T10:33:31Z</time>
      </trkpt>
      <trkpt lat="40.7291590" lon="-2.2215530">
        <ele>1274.2</ele>
        <time>2019-07-06T10:33:39Z</time>
      </trkpt>
      <trkpt lat="40.7291660" lon="-2.2218130">
        <ele>1274.2</ele>
        <time>2019-07-06T10:33:42Z</time>
      </trkpt>
      <trkpt lat="40.7291810" lon="-2.2223050">
        <ele>1274.4</ele>
        <time>2019-07-06T10:33:48Z</time>
      </trkpt>
      <trkpt lat="40.7291880" lon="-2.2226000">
        <ele>1275.0</ele>
        <time>2019-07-06T10:33:52Z</time>
      </trkpt>
      <trkpt lat="40.7292050" lon="-2.2230440">
        <ele>1275.0</ele>
        <time>2019-07-06T10:33:58Z</time>
      </trkpt>
      <trkpt lat="40.7292190" lon="-2.2234990">
        <ele>1275.4</ele>
        <time>2019-07-06T10:34:04Z</time>
      </trkpt>
      <trkpt lat="40.7292280" lon="-2.2237250">
        <ele>1276.0</ele>
        <time>2019-07-06T10:34:07Z</time>
      </trkpt>
      <trkpt lat="40.7292300" lon="-2.2240220">
        <ele>1276.4</ele>
        <time>2019-07-06T10:34:11Z</time>
      </trkpt>
      <trkpt lat="40.7292090" lon="-2.2245390">
        <ele>1277.0</ele>
        <time>2019-07-06T10:34:18Z</time>
      </trkpt>
      <trkpt lat="40.7292000" lon="-2.2246870">
        <ele>1277.4</ele>
        <time>2019-07-06T10:34:20Z</time>
      </trkpt>
      <trkpt lat="40.7291180" lon="-2.2253850">
        <ele>1277.4</ele>
        <time>2019-07-06T10:34:29Z</time>
      </trkpt>
      <trkpt lat="40.7290350" lon="-2.2261190">
        <ele>1277.0</ele>
        <time>2019-07-06T10:34:38Z</time>
      </trkpt>
      <trkpt lat="40.7289850" lon="-2.2264970">
        <ele>1277.0</ele>
        <time>2019-07-06T10:34:43Z</time>
      </trkpt>
      <trkpt lat="40.7289710" lon="-2.2266460">
        <ele>1277.2</ele>
        <time>2019-07-06T10:34:45Z</time>
      </trkpt>
      <trkpt lat="40.7288970" lon="-2.2272390">
        <ele>1277.6</ele>
        <time>2019-07-06T10:34:53Z</time>
      </trkpt>
      <trkpt lat="40.7288680" lon="-2.2274590">
        <ele>1278.0</ele>
        <time>2019-07-06T10:34:56Z</time>
      </trkpt>
      <trkpt lat="40.7288610" lon="-2.2277330">
        <ele>1278.6</ele>
        <time>2019-07-06T10:35:00Z</time>
      </trkpt>
      <trkpt lat="40.7288710" lon="-2.2278580">
        <ele>1279.0</ele>
        <time>2019-07-06T10:35:02Z</time>
      </trkpt>
      <trkpt lat="40.7289200" lon="-2.2280300">
        <ele>1279.6</ele>
        <time>2019-07-06T10:35:05Z</time>
      </trkpt>
      <trkpt lat="40.7289440" lon="-2.2280780">
        <ele>1279.8</ele>
        <time>2019-07-06T10:35:06Z</time>
      </trkpt>
      <trkpt lat="40.7289690" lon="-2.2281210">
        <ele>1280.0</ele>
        <time>2019-07-06T10:35:07Z</time>
      </trkpt>
      <trkpt lat="40.7290810" lon="-2.2282660">
        <ele>1280.8</ele>
        <time>2019-07-06T10:35:11Z</time>
      </trkpt>
      <trkpt lat="40.7291360" lon="-2.2283300">
        <ele>1281.2</ele>
        <time>2019-07-06T10:35:13Z</time>
      </trkpt>
      <trkpt lat="40.7292520" lon="-2.2284670">
        <ele>1282.4</ele>
        <time>2019-07-06T10:35:17Z</time>
      </trkpt>
      <trkpt lat="40.7293460" lon="-2.2285990">
        <ele>1283.0</ele>
        <time>2019-07-06T10:35:20Z</time>
      </trkpt>
      <trkpt lat="40.7294340" lon="-2.2287680">
        <ele>1283.4</ele>
        <time>2019-07-06T10:35:23Z</time>
      </trkpt>
      <trkpt lat="40.7295030" lon="-2.2290500">
        <ele>1283.6</ele>
        <time>2019-07-06T10:35:27Z</time>
      </trkpt>
      <trkpt lat="40.7295670" lon="-2.2295380">
        <ele>1283.0</ele>
        <time>2019-07-06T10:35:33Z</time>
      </trkpt>
      <trkpt lat="40.7295850" lon="-2.2298130">
        <ele>1282.4</ele>
        <time>2019-07-06T10:35:36Z</time>
      </trkpt>
      <trkpt lat="40.7296090" lon="-2.2300120">
        <ele>1281.6</ele>
        <time>2019-07-06T10:35:38Z</time>
      </trkpt>
      <trkpt lat="40.7296230" lon="-2.2301170">
        <ele>1281.4</ele>
        <time>2019-07-06T10:35:39Z</time>
      </trkpt>
      <trkpt lat="40.7296670" lon="-2.2304570">
        <ele>1280.4</ele>
        <time>2019-07-06T10:35:42Z</time>
      </trkpt>
      <trkpt lat="40.7296790" lon="-2.2305730">
        <ele>1280.0</ele>
        <time>2019-07-06T10:35:43Z</time>
      </trkpt>
      <trkpt lat="40.7297010" lon="-2.2308130">
        <ele>1279.0</ele>
        <time>2019-07-06T10:35:45Z</time>
      </trkpt>
      <trkpt lat="40.7297220" lon="-2.2310490">
        <ele>1278.2</ele>
        <time>2019-07-06T10:35:47Z</time>
      </trkpt>
      <trkpt lat="40.7297360" lon="-2.2311670">
        <ele>1277.8</ele>
        <time>2019-07-06T10:35:48Z</time>
      </trkpt>
      <trkpt lat="40.7297550" lon="-2.2312780">
        <ele>1277.2</ele>
        <time>2019-07-06T10:35:49Z</time>
      </trkpt>
      <trkpt lat="40.7297770" lon="-2.2313820">
        <ele>1277.0</ele>
        <time>2019-07-06T10:35:50Z</time>
      </trkpt>
      <trkpt lat="40.7298780" lon="-2.2318270">
        <ele>1277.4</ele>
        <time>2019-07-06T10:35:55Z</time>
      </trkpt>
      <trkpt lat="40.7299470" lon="-2.2320280">
        <ele>1278.8</ele>
        <time>2019-07-06T10:35:58Z</time>
      </trkpt>
      <trkpt lat="40.7300060" lon="-2.2321680">
        <ele>1279.0</ele>
        <time>2019-07-06T10:36:00Z</time>
      </trkpt>
      <trkpt lat="40.7302410" lon="-2.2326900">
        <ele>1279.0</ele>
        <time>2019-07-06T10:36:07Z</time>
      </trkpt>
      <trkpt lat="40.7304460" lon="-2.2331940">
        <ele>1278.2</ele>
        <time>2019-07-06T10:36:13Z</time>
      </trkpt>
      <trkpt lat="40.7305530" lon="-2.2334480">
        <ele>1277.8</ele>
        <time>2019-07-06T10:36:16Z</time>
      </trkpt>
      <trkpt lat="40.7306200" lon="-2.2336160">
        <ele>1277.4</ele>
        <time>2019-07-06T10:36:18Z</time>
      </trkpt>
      <trkpt lat="40.7307540" lon="-2.2339460">
        <ele>1277.0</ele>
        <time>2019-07-06T10:36:22Z</time>
      </trkpt>
      <trkpt lat="40.7308270" lon="-2.2341130">
        <ele>1276.8</ele>
        <time>2019-07-06T10:36:24Z</time>
      </trkpt>
      <trkpt lat="40.7308970" lon="-2.2342850">
        <ele>1276.4</ele>
        <time>2019-07-06T10:36:26Z</time>
      </trkpt>
      <trkpt lat="40.7310660" lon="-2.2346150">
        <ele>1276.0</ele>
        <time>2019-07-06T10:36:30Z</time>
      </trkpt>
      <trkpt lat="40.7311230" lon="-2.2346830">
        <ele>1275.8</ele>
        <time>2019-07-06T10:36:31Z</time>
      </trkpt>
      <trkpt lat="40.7313170" lon="-2.2347990">
        <ele>1275.8</ele>
        <time>2019-07-06T10:36:34Z</time>
      </trkpt>
      <trkpt lat="40.7313870" lon="-2.2348150">
        <ele>1275.8</ele>
        <time>2019-07-06T10:36:35Z</time>
      </trkpt>
      <trkpt lat="40.7316430" lon="-2.2348440">
        <ele>1276.2</ele>
        <time>2019-07-06T10:36:39Z</time>
      </trkpt>
      <trkpt lat="40.7317030" lon="-2.2348510">
        <ele>1276.2</ele>
        <time>2019-07-06T10:36:40Z</time>
      </trkpt>
      <trkpt lat="40.7319890" lon="-2.2348660">
        <ele>1276.8</ele>
        <time>2019-07-06T10:36:45Z</time>
      </trkpt>
      <trkpt lat="40.7320460" lon="-2.2348670">
        <ele>1277.0</ele>
        <time>2019-07-06T10:36:46Z</time>
      </trkpt>
      <trkpt lat="40.7322130" lon="-2.2348720">
        <ele>1277.4</ele>
        <time>2019-07-06T10:36:49Z</time>
      </trkpt>
      <trkpt lat="40.7322680" lon="-2.2348770">
        <ele>1277.6</ele>
        <time>2019-07-06T10:36:50Z</time>
      </trkpt>
      <trkpt lat="40.7324270" lon="-2.2348910">
        <ele>1278.2</ele>
        <time>2019-07-06T10:36:53Z</time>
      </trkpt>
      <trkpt lat="40.7324780" lon="-2.2348890">
        <ele>1278.4</ele>
        <time>2019-07-06T10:36:54Z</time>
      </trkpt>
      <trkpt lat="40.7327380" lon="-2.2349140">
        <ele>1279.4</ele>
        <time>2019-07-06T10:36:59Z</time>
      </trkpt>
      <trkpt lat="40.7328420" lon="-2.2349410">
        <ele>1280.0</ele>
        <time>2019-07-06T10:37:01Z</time>
      </trkpt>
      <trkpt lat="40.7330920" lon="-2.2350310">
        <ele>1280.6</ele>
        <time>2019-07-06T10:37:06Z</time>
      </trkpt>
      <trkpt lat="40.7331890" lon="-2.2350720">
        <ele>1280.6</ele>
        <time>2019-07-06T10:37:08Z</time>
      </trkpt>
      <trkpt lat="40.7334680" lon="-2.2352150">
        <ele>1280.6</ele>
        <time>2019-07-06T10:37:14Z</time>
      </trkpt>
      <trkpt lat="40.7338150" lon="-2.2353890">
        <ele>1281.2</ele>
        <time>2019-07-06T10:37:21Z</time>
      </trkpt>
      <trkpt lat="40.7339180" lon="-2.2354500">
        <ele>1281.2</ele>
        <time>2019-07-06T10:37:23Z</time>
      </trkpt>
      <trkpt lat="40.7341940" lon="-2.2355990">
        <ele>1281.2</ele>
        <time>2019-07-06T10:37:28Z</time>
      </trkpt>
      <trkpt lat="40.7343110" lon="-2.2356510">
        <ele>1281.2</ele>
        <time>2019-07-06T10:37:30Z</time>
      </trkpt>
      <trkpt lat="40.7345480" lon="-2.2357760">
        <ele>1280.8</ele>
        <time>2019-07-06T10:37:34Z</time>
      </trkpt>
      <trkpt lat="40.7346630" lon="-2.2358470">
        <ele>1280.8</ele>
        <time>2019-07-06T10:37:36Z</time>
      </trkpt>
      <trkpt lat="40.7347190" lon="-2.2358850">
        <ele>1280.8</ele>
        <time>2019-07-06T10:37:37Z</time>
      </trkpt>
      <trkpt lat="40.7350900" lon="-2.2360740">
        <ele>1280.6</ele>
        <time>2019-07-06T10:37:43Z</time>
      </trkpt>
      <trkpt lat="40.7354060" lon="-2.2362480">
        <ele>1280.2</ele>
        <time>2019-07-06T10:37:48Z</time>
      </trkpt>
      <trkpt lat="40.7355370" lon="-2.2363180">
        <ele>1280.0</ele>
        <time>2019-07-06T10:37:50Z</time>
      </trkpt>
      <trkpt lat="40.7360800" lon="-2.2365970">
        <ele>1279.4</ele>
        <time>2019-07-06T10:37:58Z</time>
      </trkpt>
      <trkpt lat="40.7361470" lon="-2.2366330">
        <ele>1279.2</ele>
        <time>2019-07-06T10:37:59Z</time>
      </trkpt>
      <trkpt lat="40.7365440" lon="-2.2368440">
        <ele>1278.4</ele>
        <time>2019-07-06T10:38:05Z</time>
      </trkpt>
      <trkpt lat="40.7366780" lon="-2.2369130">
        <ele>1278.2</ele>
        <time>2019-07-06T10:38:07Z</time>
      </trkpt>
      <trkpt lat="40.7370740" lon="-2.2371190">
        <ele>1278.0</ele>
        <time>2019-07-06T10:38:13Z</time>
      </trkpt>
      <trkpt lat="40.7374420" lon="-2.2373150">
        <ele>1278.0</ele>
        <time>2019-07-06T10:38:19Z</time>
      </trkpt>
      <trkpt lat="40.7379900" lon="-2.2376080">
        <ele>1278.2</ele>
        <time>2019-07-06T10:38:28Z</time>
      </trkpt>
      <trkpt lat="40.7384280" lon="-2.2378380">
        <ele>1278.2</ele>
        <time>2019-07-06T10:38:35Z</time>
      </trkpt>
      <trkpt lat="40.7389270" lon="-2.2380960">
        <ele>1278.0</ele>
        <time>2019-07-06T10:38:43Z</time>
      </trkpt>
      <trkpt lat="40.7394850" lon="-2.2383970">
        <ele>1277.6</ele>
        <time>2019-07-06T10:38:52Z</time>
      </trkpt>
      <trkpt lat="40.7397910" lon="-2.2385720">
        <ele>1277.2</ele>
        <time>2019-07-06T10:38:57Z</time>
      </trkpt>
      <trkpt lat="40.7399160" lon="-2.2386420">
        <ele>1277.2</ele>
        <time>2019-07-06T10:38:59Z</time>
      </trkpt>
      <trkpt lat="40.7404210" lon="-2.2389250">
        <ele>1275.8</ele>
        <time>2019-07-06T10:39:07Z</time>
      </trkpt>
      <trkpt lat="40.7408480" lon="-2.2391340">
        <ele>1276.2</ele>
        <time>2019-07-06T10:39:14Z</time>
      </trkpt>
      <trkpt lat="40.7413070" lon="-2.2394010">
        <ele>1276.6</ele>
        <time>2019-07-06T10:39:22Z</time>
      </trkpt>
      <trkpt lat="40.7414190" lon="-2.2394770">
        <ele>1276.6</ele>
        <time>2019-07-06T10:39:24Z</time>
      </trkpt>
      <trkpt lat="40.7415780" lon="-2.2396200">
        <ele>1276.4</ele>
        <time>2019-07-06T10:39:27Z</time>
      </trkpt>
      <trkpt lat="40.7418820" lon="-2.2399640">
        <ele>1275.8</ele>
        <time>2019-07-06T10:39:33Z</time>
      </trkpt>
      <trkpt lat="40.7421800" lon="-2.2403260">
        <ele>1275.2</ele>
        <time>2019-07-06T10:39:39Z</time>
      </trkpt>
      <trkpt lat="40.7424300" lon="-2.2406310">
        <ele>1275.0</ele>
        <time>2019-07-06T10:39:44Z</time>
      </trkpt>
      <trkpt lat="40.7425760" lon="-2.2408140">
        <ele>1275.0</ele>
        <time>2019-07-06T10:39:47Z</time>
      </trkpt>
      <trkpt lat="40.7426250" lon="-2.2408730">
        <ele>1274.8</ele>
        <time>2019-07-06T10:39:48Z</time>
      </trkpt>
      <trkpt lat="40.7429480" lon="-2.2412700">
        <ele>1274.8</ele>
        <time>2019-07-06T10:39:55Z</time>
      </trkpt>
      <trkpt lat="40.7433460" lon="-2.2417500">
        <ele>1275.2</ele>
        <time>2019-07-06T10:40:04Z</time>
      </trkpt>
      <trkpt lat="40.7436550" lon="-2.2421170">
        <ele>1275.6</ele>
        <time>2019-07-06T10:40:11Z</time>
      </trkpt>
      <trkpt lat="40.7438320" lon="-2.2423300">
        <ele>1276.0</ele>
        <time>2019-07-06T10:40:15Z</time>
      </trkpt>
      <trkpt lat="40.7439190" lon="-2.2424330">
        <ele>1276.0</ele>
        <time>2019-07-06T10:40:17Z</time>
      </trkpt>
      <trkpt lat="40.7441740" lon="-2.2427450">
        <ele>1276.4</ele>
        <time>2019-07-06T10:40:23Z</time>
      </trkpt>
      <trkpt lat="40.7442610" lon="-2.2428490">
        <ele>1276.6</ele>
        <time>2019-07-06T10:40:25Z</time>
      </trkpt>
      <trkpt lat="40.7446670" lon="-2.2433450">
        <ele>1276.6</ele>
        <time>2019-07-06T10:40:34Z</time>
      </trkpt>
      <trkpt lat="40.7450960" lon="-2.2438760">
        <ele>1276.6</ele>
        <time>2019-07-06T10:40:43Z</time>
      </trkpt>
      <trkpt lat="40.7453430" lon="-2.2441760">
        <ele>1276.0</ele>
        <time>2019-07-06T10:40:48Z</time>
      </trkpt>
      <trkpt lat="40.7454920" lon="-2.2443570">
        <ele>1276.0</ele>
        <time>2019-07-06T10:40:51Z</time>
      </trkpt>
      <trkpt lat="40.7458000" lon="-2.2447280">
        <ele>1275.4</ele>
        <time>2019-07-06T10:40:57Z</time>
      </trkpt>
      <trkpt lat="40.7459600" lon="-2.2449210">
        <ele>1274.8</ele>
        <time>2019-07-06T10:41:00Z</time>
      </trkpt>
      <trkpt lat="40.7463650" lon="-2.2454160">
        <ele>1273.6</ele>
        <time>2019-07-06T10:41:07Z</time>
      </trkpt>
      <trkpt lat="40.7465410" lon="-2.2456380">
        <ele>1272.8</ele>
        <time>2019-07-06T10:41:10Z</time>
      </trkpt>
      <trkpt lat="40.7466010" lon="-2.2457130">
        <ele>1272.4</ele>
        <time>2019-07-06T10:41:11Z</time>
      </trkpt>
      <trkpt lat="40.7468480" lon="-2.2460270">
        <ele>1271.2</ele>
        <time>2019-07-06T10:41:15Z</time>
      </trkpt>
      <trkpt lat="40.7469820" lon="-2.2461980">
        <ele>1270.4</ele>
        <time>2019-07-06T10:41:17Z</time>
      </trkpt>
      <trkpt lat="40.7470540" lon="-2.2462830">
        <ele>1270.0</ele>
        <time>2019-07-06T10:41:18Z</time>
      </trkpt>
      <trkpt lat="40.7472090" lon="-2.2464490">
        <ele>1268.6</ele>
        <time>2019-07-06T10:41:20Z</time>
      </trkpt>
      <trkpt lat="40.7472910" lon="-2.2465290">
        <ele>1268.2</ele>
        <time>2019-07-06T10:41:21Z</time>
      </trkpt>
      <trkpt lat="40.7474640" lon="-2.2466780">
        <ele>1267.2</ele>
        <time>2019-07-06T10:41:23Z</time>
      </trkpt>
      <trkpt lat="40.7475540" lon="-2.2467360">
        <ele>1266.4</ele>
        <time>2019-07-06T10:41:24Z</time>
      </trkpt>
      <trkpt lat="40.7476490" lon="-2.2467760">
        <ele>1265.8</ele>
        <time>2019-07-06T10:41:25Z</time>
      </trkpt>
      <trkpt lat="40.7478450" lon="-2.2468010">
        <ele>1264.6</ele>
        <time>2019-07-06T10:41:27Z</time>
      </trkpt>
      <trkpt lat="40.7479390" lon="-2.2467930">
        <ele>1264.0</ele>
        <time>2019-07-06T10:41:28Z</time>
      </trkpt>
      <trkpt lat="40.7480280" lon="-2.2467790">
        <ele>1263.2</ele>
        <time>2019-07-06T10:41:29Z</time>
      </trkpt>
      <trkpt lat="40.7481810" lon="-2.2467350">
        <ele>1261.8</ele>
        <time>2019-07-06T10:41:31Z</time>
      </trkpt>
      <trkpt lat="40.7482430" lon="-2.2466930">
        <ele>1261.2</ele>
        <time>2019-07-06T10:41:32Z</time>
      </trkpt>
      <trkpt lat="40.7482910" lon="-2.2466320">
        <ele>1260.6</ele>
        <time>2019-07-06T10:41:33Z</time>
      </trkpt>
      <trkpt lat="40.7483290" lon="-2.2464570">
        <ele>1259.2</ele>
        <time>2019-07-06T10:41:35Z</time>
      </trkpt>
      <trkpt lat="40.7482910" lon="-2.2462360">
        <ele>1258.0</ele>
        <time>2019-07-06T10:41:37Z</time>
      </trkpt>
      <trkpt lat="40.7482750" lon="-2.2461240">
        <ele>1257.2</ele>
        <time>2019-07-06T10:41:38Z</time>
      </trkpt>
      <trkpt lat="40.7482720" lon="-2.2460240">
        <ele>1256.4</ele>
        <time>2019-07-06T10:41:39Z</time>
      </trkpt>
      <trkpt lat="40.7483340" lon="-2.2458530">
        <ele>1255.0</ele>
        <time>2019-07-06T10:41:41Z</time>
      </trkpt>
      <trkpt lat="40.7484840" lon="-2.2457130">
        <ele>1252.8</ele>
        <time>2019-07-06T10:41:43Z</time>
      </trkpt>
      <trkpt lat="40.7485770" lon="-2.2456380">
        <ele>1251.6</ele>
        <time>2019-07-06T10:41:44Z</time>
      </trkpt>
      <trkpt lat="40.7486730" lon="-2.2455560">
        <ele>1249.8</ele>
        <time>2019-07-06T10:41:45Z</time>
      </trkpt>
      <trkpt lat="40.7487600" lon="-2.2454610">
        <ele>1248.4</ele>
        <time>2019-07-06T10:41:46Z</time>
      </trkpt>
      <trkpt lat="40.7488350" lon="-2.2453490">
        <ele>1246.8</ele>
        <time>2019-07-06T10:41:47Z</time>
      </trkpt>
      <trkpt lat="40.7488990" lon="-2.2452220">
        <ele>1245.4</ele>
        <time>2019-07-06T10:41:48Z</time>
      </trkpt>
      <trkpt lat="40.7489590" lon="-2.2450920">
        <ele>1244.2</ele>
        <time>2019-07-06T10:41:49Z</time>
      </trkpt>
      <trkpt lat="40.7490320" lon="-2.2449730">
        <ele>1242.6</ele>
        <time>2019-07-06T10:41:50Z</time>
      </trkpt>
      <trkpt lat="40.7491220" lon="-2.2448730">
        <ele>1240.8</ele>
        <time>2019-07-06T10:41:51Z</time>
      </trkpt>
      <trkpt lat="40.7492270" lon="-2.2447860">
        <ele>1239.6</ele>
        <time>2019-07-06T10:41:52Z</time>
      </trkpt>
      <trkpt lat="40.7493390" lon="-2.2447020">
        <ele>1238.4</ele>
        <time>2019-07-06T10:41:53Z</time>
      </trkpt>
      <trkpt lat="40.7494470" lon="-2.2446150">
        <ele>1237.0</ele>
        <time>2019-07-06T10:41:54Z</time>
      </trkpt>
      <trkpt lat="40.7495480" lon="-2.2445140">
        <ele>1235.4</ele>
        <time>2019-07-06T10:41:55Z</time>
      </trkpt>
      <trkpt lat="40.7496420" lon="-2.2444000">
        <ele>1234.0</ele>
        <time>2019-07-06T10:41:56Z</time>
      </trkpt>
      <trkpt lat="40.7497340" lon="-2.2442760">
        <ele>1232.8</ele>
        <time>2019-07-06T10:41:57Z</time>
      </trkpt>
      <trkpt lat="40.7498220" lon="-2.2441400">
        <ele>1231.6</ele>
        <time>2019-07-06T10:41:58Z</time>
      </trkpt>
      <trkpt lat="40.7499010" lon="-2.2439990">
        <ele>1229.6</ele>
        <time>2019-07-06T10:41:59Z</time>
      </trkpt>
      <trkpt lat="40.7499710" lon="-2.2438630">
        <ele>1228.4</ele>
        <time>2019-07-06T10:42:00Z</time>
      </trkpt>
      <trkpt lat="40.7500360" lon="-2.2437420">
        <ele>1227.0</ele>
        <time>2019-07-06T10:42:01Z</time>
      </trkpt>
      <trkpt lat="40.7501030" lon="-2.2436410">
        <ele>1225.2</ele>
        <time>2019-07-06T10:42:02Z</time>
      </trkpt>
      <trkpt lat="40.7501790" lon="-2.2435580">
        <ele>1224.0</ele>
        <time>2019-07-06T10:42:03Z</time>
      </trkpt>
      <trkpt lat="40.7502680" lon="-2.2434910">
        <ele>1223.0</ele>
        <time>2019-07-06T10:42:04Z</time>
      </trkpt>
      <trkpt lat="40.7503690" lon="-2.2434350">
        <ele>1221.8</ele>
        <time>2019-07-06T10:42:05Z</time>
      </trkpt>
      <trkpt lat="40.7504810" lon="-2.2433760">
        <ele>1220.6</ele>
        <time>2019-07-06T10:42:06Z</time>
      </trkpt>
      <trkpt lat="40.7505920" lon="-2.2433060">
        <ele>1219.2</ele>
        <time>2019-07-06T10:42:07Z</time>
      </trkpt>
      <trkpt lat="40.7506950" lon="-2.2432300">
        <ele>1218.0</ele>
        <time>2019-07-06T10:42:08Z</time>
      </trkpt>
      <trkpt lat="40.7507870" lon="-2.2431600">
        <ele>1216.6</ele>
        <time>2019-07-06T10:42:09Z</time>
      </trkpt>
      <trkpt lat="40.7508720" lon="-2.2431040">
        <ele>1215.2</ele>
        <time>2019-07-06T10:42:10Z</time>
      </trkpt>
      <trkpt lat="40.7510460" lon="-2.2430520">
        <ele>1213.0</ele>
        <time>2019-07-06T10:42:12Z</time>
      </trkpt>
      <trkpt lat="40.7511430" lon="-2.2430570">
        <ele>1212.0</ele>
        <time>2019-07-06T10:42:13Z</time>
      </trkpt>
      <trkpt lat="40.7512470" lon="-2.2430690">
        <ele>1210.8</ele>
        <time>2019-07-06T10:42:14Z</time>
      </trkpt>
      <trkpt lat="40.7513570" lon="-2.2430680">
        <ele>1209.4</ele>
        <time>2019-07-06T10:42:15Z</time>
      </trkpt>
      <trkpt lat="40.7514710" lon="-2.2430460">
        <ele>1208.2</ele>
        <time>2019-07-06T10:42:16Z</time>
      </trkpt>
      <trkpt lat="40.7515870" lon="-2.2430090">
        <ele>1207.2</ele>
        <time>2019-07-06T10:42:17Z</time>
      </trkpt>
      <trkpt lat="40.7517000" lon="-2.2429650">
        <ele>1206.2</ele>
        <time>2019-07-06T10:42:18Z</time>
      </trkpt>
      <trkpt lat="40.7518130" lon="-2.2429200">
        <ele>1205.4</ele>
        <time>2019-07-06T10:42:19Z</time>
      </trkpt>
      <trkpt lat="40.7519270" lon="-2.2428800">
        <ele>1204.8</ele>
        <time>2019-07-06T10:42:20Z</time>
      </trkpt>
      <trkpt lat="40.7521500" lon="-2.2428020">
        <ele>1203.8</ele>
        <time>2019-07-06T10:42:22Z</time>
      </trkpt>
      <trkpt lat="40.7523730" lon="-2.2427500">
        <ele>1202.6</ele>
        <time>2019-07-06T10:42:24Z</time>
      </trkpt>
      <trkpt lat="40.7524840" lon="-2.2427420">
        <ele>1201.8</ele>
        <time>2019-07-06T10:42:25Z</time>
      </trkpt>
      <trkpt lat="40.7525930" lon="-2.2427490">
        <ele>1201.4</ele>
        <time>2019-07-06T10:42:26Z</time>
      </trkpt>
      <trkpt lat="40.7527020" lon="-2.2427700">
        <ele>1201.0</ele>
        <time>2019-07-06T10:42:27Z</time>
      </trkpt>
      <trkpt lat="40.7529240" lon="-2.2428200">
        <ele>1200.0</ele>
        <time>2019-07-06T10:42:29Z</time>
      </trkpt>
      <trkpt lat="40.7531540" lon="-2.2428670">
        <ele>1198.6</ele>
        <time>2019-07-06T10:42:31Z</time>
      </trkpt>
      <trkpt lat="40.7532590" lon="-2.2428910">
        <ele>1198.0</ele>
        <time>2019-07-06T10:42:32Z</time>
      </trkpt>
      <trkpt lat="40.7533530" lon="-2.2429060">
        <ele>1197.2</ele>
        <time>2019-07-06T10:42:33Z</time>
      </trkpt>
      <trkpt lat="40.7535130" lon="-2.2429300">
        <ele>1195.8</ele>
        <time>2019-07-06T10:42:35Z</time>
      </trkpt>
      <trkpt lat="40.7536430" lon="-2.2429610">
        <ele>1194.0</ele>
        <time>2019-07-06T10:42:37Z</time>
      </trkpt>
      <trkpt lat="40.7537370" lon="-2.2430200">
        <ele>1192.4</ele>
        <time>2019-07-06T10:42:39Z</time>
      </trkpt>
      <trkpt lat="40.7537680" lon="-2.2431230">
        <ele>1191.4</ele>
        <time>2019-07-06T10:42:41Z</time>
      </trkpt>
      <trkpt lat="40.7537560" lon="-2.2431880">
        <ele>1190.8</ele>
        <time>2019-07-06T10:42:42Z</time>
      </trkpt>
      <trkpt lat="40.7537280" lon="-2.2432530">
        <ele>1190.4</ele>
        <time>2019-07-06T10:42:43Z</time>
      </trkpt>
      <trkpt lat="40.7536160" lon="-2.2433610">
        <ele>1189.4</ele>
        <time>2019-07-06T10:42:45Z</time>
      </trkpt>
      <trkpt lat="40.7535430" lon="-2.2434060">
        <ele>1188.8</ele>
        <time>2019-07-06T10:42:46Z</time>
      </trkpt>
      <trkpt lat="40.7533970" lon="-2.2434910">
        <ele>1187.4</ele>
        <time>2019-07-06T10:42:48Z</time>
      </trkpt>
      <trkpt lat="40.7532890" lon="-2.2435780">
        <ele>1185.8</ele>
        <time>2019-07-06T10:42:50Z</time>
      </trkpt>
      <trkpt lat="40.7532680" lon="-2.2436820">
        <ele>1184.8</ele>
        <time>2019-07-06T10:42:52Z</time>
      </trkpt>
      <trkpt lat="40.7533200" lon="-2.2437650">
        <ele>1183.6</ele>
        <time>2019-07-06T10:42:54Z</time>
      </trkpt>
      <trkpt lat="40.7533720" lon="-2.2437710">
        <ele>1182.8</ele>
        <time>2019-07-06T10:42:55Z</time>
      </trkpt>
      <trkpt lat="40.7534300" lon="-2.2437660">
        <ele>1182.2</ele>
        <time>2019-07-06T10:42:56Z</time>
      </trkpt>
      <trkpt lat="40.7534960" lon="-2.2437590">
        <ele>1181.6</ele>
        <time>2019-07-06T10:42:57Z</time>
      </trkpt>
      <trkpt lat="40.7535680" lon="-2.2437620">
        <ele>1181.0</ele>
        <time>2019-07-06T10:42:58Z</time>
      </trkpt>
      <trkpt lat="40.7536450" lon="-2.2437680">
        <ele>1180.6</ele>
        <time>2019-07-06T10:42:59Z</time>
      </trkpt>
      <trkpt lat="40.7538110" lon="-2.2437720">
        <ele>1179.8</ele>
        <time>2019-07-06T10:43:01Z</time>
      </trkpt>
      <trkpt lat="40.7540010" lon="-2.2437520">
        <ele>1178.4</ele>
        <time>2019-07-06T10:43:03Z</time>
      </trkpt>
      <trkpt lat="40.7542120" lon="-2.2436690">
        <ele>1176.8</ele>
        <time>2019-07-06T10:43:05Z</time>
      </trkpt>
      <trkpt lat="40.7543150" lon="-2.2435980">
        <ele>1175.8</ele>
        <time>2019-07-06T10:43:06Z</time>
      </trkpt>
      <trkpt lat="40.7544160" lon="-2.2435150">
        <ele>1174.4</ele>
        <time>2019-07-06T10:43:07Z</time>
      </trkpt>
      <trkpt lat="40.7545180" lon="-2.2434270">
        <ele>1173.2</ele>
        <time>2019-07-06T10:43:08Z</time>
      </trkpt>
      <trkpt lat="40.7547290" lon="-2.2432720">
        <ele>1171.6</ele>
        <time>2019-07-06T10:43:10Z</time>
      </trkpt>
      <trkpt lat="40.7548340" lon="-2.2432130">
        <ele>1170.0</ele>
        <time>2019-07-06T10:43:11Z</time>
      </trkpt>
      <trkpt lat="40.7549390" lon="-2.2431710">
        <ele>1168.8</ele>
        <time>2019-07-06T10:43:12Z</time>
      </trkpt>
      <trkpt lat="40.7550470" lon="-2.2431440">
        <ele>1168.0</ele>
        <time>2019-07-06T10:43:13Z</time>
      </trkpt>
      <trkpt lat="40.7551530" lon="-2.2431360">
        <ele>1166.8</ele>
        <time>2019-07-06T10:43:14Z</time>
      </trkpt>
      <trkpt lat="40.7553500" lon="-2.2431990">
        <ele>1165.2</ele>
        <time>2019-07-06T10:43:16Z</time>
      </trkpt>
      <trkpt lat="40.7555200" lon="-2.2433260">
        <ele>1164.0</ele>
        <time>2019-07-06T10:43:18Z</time>
      </trkpt>
      <trkpt lat="40.7556010" lon="-2.2433750">
        <ele>1163.6</ele>
        <time>2019-07-06T10:43:19Z</time>
      </trkpt>
      <trkpt lat="40.7558570" lon="-2.2433470">
        <ele>1163.2</ele>
        <time>2019-07-06T10:43:22Z</time>
      </trkpt>
      <trkpt lat="40.7560320" lon="-2.2432370">
        <ele>1162.6</ele>
        <time>2019-07-06T10:43:24Z</time>
      </trkpt>
      <trkpt lat="40.7562060" lon="-2.2430990">
        <ele>1161.2</ele>
        <time>2019-07-06T10:43:26Z</time>
      </trkpt>
      <trkpt lat="40.7563900" lon="-2.2429500">
        <ele>1159.6</ele>
        <time>2019-07-06T10:43:28Z</time>
      </trkpt>
      <trkpt lat="40.7565730" lon="-2.2427910">
        <ele>1158.0</ele>
        <time>2019-07-06T10:43:30Z</time>
      </trkpt>
      <trkpt lat="40.7566660" lon="-2.2427170">
        <ele>1157.4</ele>
        <time>2019-07-06T10:43:31Z</time>
      </trkpt>
      <trkpt lat="40.7567640" lon="-2.2426580">
        <ele>1156.8</ele>
        <time>2019-07-06T10:43:32Z</time>
      </trkpt>
      <trkpt lat="40.7569790" lon="-2.2425980">
        <ele>1155.8</ele>
        <time>2019-07-06T10:43:34Z</time>
      </trkpt>
      <trkpt lat="40.7570960" lon="-2.2425890">
        <ele>1155.0</ele>
        <time>2019-07-06T10:43:35Z</time>
      </trkpt>
      <trkpt lat="40.7572190" lon="-2.2425880">
        <ele>1154.0</ele>
        <time>2019-07-06T10:43:36Z</time>
      </trkpt>
      <trkpt lat="40.7573480" lon="-2.2425900">
        <ele>1152.6</ele>
        <time>2019-07-06T10:43:37Z</time>
      </trkpt>
      <trkpt lat="40.7574760" lon="-2.2425910">
        <ele>1151.8</ele>
        <time>2019-07-06T10:43:38Z</time>
      </trkpt>
      <trkpt lat="40.7576050" lon="-2.2425940">
        <ele>1150.8</ele>
        <time>2019-07-06T10:43:39Z</time>
      </trkpt>
      <trkpt lat="40.7578610" lon="-2.2426060">
        <ele>1149.2</ele>
        <time>2019-07-06T10:43:41Z</time>
      </trkpt>
      <trkpt lat="40.7582150" lon="-2.2426220">
        <ele>1148.4</ele>
        <time>2019-07-06T10:43:44Z</time>
      </trkpt>
      <trkpt lat="40.7584300" lon="-2.2426290">
        <ele>1148.2</ele>
        <time>2019-07-06T10:43:46Z</time>
      </trkpt>
      <trkpt lat="40.7587280" lon="-2.2426350">
        <ele>1148.2</ele>
        <time>2019-07-06T10:43:49Z</time>
      </trkpt>
      <trkpt lat="40.7589990" lon="-2.2426540">
        <ele>1148.0</ele>
        <time>2019-07-06T10:43:52Z</time>
      </trkpt>
      <trkpt lat="40.7591630" lon="-2.2426600">
        <ele>1148.4</ele>
        <time>2019-07-06T10:43:54Z</time>
      </trkpt>
      <trkpt lat="40.7593100" lon="-2.2426600">
        <ele>1148.6</ele>
        <time>2019-07-06T10:43:56Z</time>
      </trkpt>
      <trkpt lat="40.7594360" lon="-2.2426680">
        <ele>1149.2</ele>
        <time>2019-07-06T10:43:58Z</time>
      </trkpt>
      <trkpt lat="40.7594940" lon="-2.2426740">
        <ele>1149.4</ele>
        <time>2019-07-06T10:43:59Z</time>
      </trkpt>
      <trkpt lat="40.7598310" lon="-2.2427400">
        <ele>1149.4</ele>
        <time>2019-07-06T10:44:04Z</time>
      </trkpt>
      <trkpt lat="40.7600650" lon="-2.2428420">
        <ele>1147.8</ele>
        <time>2019-07-06T10:44:07Z</time>
      </trkpt>
      <trkpt lat="40.7601460" lon="-2.2428920">
        <ele>1147.4</ele>
        <time>2019-07-06T10:44:08Z</time>
      </trkpt>
      <trkpt lat="40.7603060" lon="-2.2430280">
        <ele>1146.2</ele>
        <time>2019-07-06T10:44:10Z</time>
      </trkpt>
      <trkpt lat="40.7604530" lon="-2.2432000">
        <ele>1145.4</ele>
        <time>2019-07-06T10:44:12Z</time>
      </trkpt>
      <trkpt lat="40.7605230" lon="-2.2432920">
        <ele>1145.0</ele>
        <time>2019-07-06T10:44:13Z</time>
      </trkpt>
      <trkpt lat="40.7606550" lon="-2.2434870">
        <ele>1143.4</ele>
        <time>2019-07-06T10:44:15Z</time>
      </trkpt>
      <trkpt lat="40.7607730" lon="-2.2436850">
        <ele>1142.4</ele>
        <time>2019-07-06T10:44:17Z</time>
      </trkpt>
      <trkpt lat="40.7608260" lon="-2.2440080">
        <ele>1141.2</ele>
        <time>2019-07-06T10:44:20Z</time>
      </trkpt>
      <trkpt lat="40.7607680" lon="-2.2442390">
        <ele>1139.6</ele>
        <time>2019-07-06T10:44:22Z</time>
      </trkpt>
      <trkpt lat="40.7607220" lon="-2.2443470">
        <ele>1139.0</ele>
        <time>2019-07-06T10:44:23Z</time>
      </trkpt>
      <trkpt lat="40.7606730" lon="-2.2444570">
        <ele>1138.0</ele>
        <time>2019-07-06T10:44:24Z</time>
      </trkpt>
      <trkpt lat="40.7605690" lon="-2.2446890">
        <ele>1136.6</ele>
        <time>2019-07-06T10:44:26Z</time>
      </trkpt>
      <trkpt lat="40.7604590" lon="-2.2449380">
        <ele>1135.0</ele>
        <time>2019-07-06T10:44:28Z</time>
      </trkpt>
      <trkpt lat="40.7604020" lon="-2.2450690">
        <ele>1134.0</ele>
        <time>2019-07-06T10:44:29Z</time>
      </trkpt>
      <trkpt lat="40.7602650" lon="-2.2453270">
        <ele>1132.2</ele>
        <time>2019-07-06T10:44:31Z</time>
      </trkpt>
      <trkpt lat="40.7601930" lon="-2.2454600">
        <ele>1130.8</ele>
        <time>2019-07-06T10:44:32Z</time>
      </trkpt>
      <trkpt lat="40.7601260" lon="-2.2455970">
        <ele>1129.6</ele>
        <time>2019-07-06T10:44:33Z</time>
      </trkpt>
      <trkpt lat="40.7600660" lon="-2.2457340">
        <ele>1128.0</ele>
        <time>2019-07-06T10:44:34Z</time>
      </trkpt>
      <trkpt lat="40.7600120" lon="-2.2458660">
        <ele>1127.0</ele>
        <time>2019-07-06T10:44:35Z</time>
      </trkpt>
      <trkpt lat="40.7599650" lon="-2.2459940">
        <ele>1125.8</ele>
        <time>2019-07-06T10:44:36Z</time>
      </trkpt>
      <trkpt lat="40.7599300" lon="-2.2461170">
        <ele>1124.8</ele>
        <time>2019-07-06T10:44:37Z</time>
      </trkpt>
      <trkpt lat="40.7599050" lon="-2.2462410">
        <ele>1123.8</ele>
        <time>2019-07-06T10:44:38Z</time>
      </trkpt>
      <trkpt lat="40.7598920" lon="-2.2464990">
        <ele>1121.8</ele>
        <time>2019-07-06T10:44:40Z</time>
      </trkpt>
      <trkpt lat="40.7599070" lon="-2.2466300">
        <ele>1120.8</ele>
        <time>2019-07-06T10:44:41Z</time>
      </trkpt>
      <trkpt lat="40.7599340" lon="-2.2467600">
        <ele>1120.0</ele>
        <time>2019-07-06T10:44:42Z</time>
      </trkpt>
      <trkpt lat="40.7599670" lon="-2.2468900">
        <ele>1119.2</ele>
        <time>2019-07-06T10:44:43Z</time>
      </trkpt>
      <trkpt lat="40.7599910" lon="-2.2470170">
        <ele>1118.4</ele>
        <time>2019-07-06T10:44:44Z</time>
      </trkpt>
      <trkpt lat="40.7600010" lon="-2.2471410">
        <ele>1117.8</ele>
        <time>2019-07-06T10:44:45Z</time>
      </trkpt>
      <trkpt lat="40.7599980" lon="-2.2472590">
        <ele>1116.6</ele>
        <time>2019-07-06T10:44:46Z</time>
      </trkpt>
      <trkpt lat="40.7599890" lon="-2.2473670">
        <ele>1115.4</ele>
        <time>2019-07-06T10:44:47Z</time>
      </trkpt>
      <trkpt lat="40.7599840" lon="-2.2474630">
        <ele>1114.4</ele>
        <time>2019-07-06T10:44:48Z</time>
      </trkpt>
      <trkpt lat="40.7599960" lon="-2.2475430">
        <ele>1113.8</ele>
        <time>2019-07-06T10:44:49Z</time>
      </trkpt>
      <trkpt lat="40.7600240" lon="-2.2476070">
        <ele>1113.4</ele>
        <time>2019-07-06T10:44:50Z</time>
      </trkpt>
      <trkpt lat="40.7600630" lon="-2.2476530">
        <ele>1112.8</ele>
        <time>2019-07-06T10:44:51Z</time>
      </trkpt>
      <trkpt lat="40.7601170" lon="-2.2476640">
        <ele>1112.4</ele>
        <time>2019-07-06T10:44:52Z</time>
      </trkpt>
      <trkpt lat="40.7602350" lon="-2.2476010">
        <ele>1111.2</ele>
        <time>2019-07-06T10:44:54Z</time>
      </trkpt>
      <trkpt lat="40.7602940" lon="-2.2475440">
        <ele>1110.6</ele>
        <time>2019-07-06T10:44:55Z</time>
      </trkpt>
      <trkpt lat="40.7603580" lon="-2.2474800">
        <ele>1110.2</ele>
        <time>2019-07-06T10:44:56Z</time>
      </trkpt>
      <trkpt lat="40.7605020" lon="-2.2473600">
        <ele>1109.2</ele>
        <time>2019-07-06T10:44:58Z</time>
      </trkpt>
      <trkpt lat="40.7605790" lon="-2.2473260">
        <ele>1108.6</ele>
        <time>2019-07-06T10:44:59Z</time>
      </trkpt>
      <trkpt lat="40.7607050" lon="-2.2473540">
        <ele>1107.0</ele>
        <time>2019-07-06T10:45:01Z</time>
      </trkpt>
      <trkpt lat="40.7607630" lon="-2.2474720">
        <ele>1106.4</ele>
        <time>2019-07-06T10:45:03Z</time>
      </trkpt>
      <trkpt lat="40.7607450" lon="-2.2477200">
        <ele>1106.2</ele>
        <time>2019-07-06T10:45:07Z</time>
      </trkpt>
      <trkpt lat="40.7607240" lon="-2.2478500">
        <ele>1106.0</ele>
        <time>2019-07-06T10:45:09Z</time>
      </trkpt>
      <trkpt lat="40.7607010" lon="-2.2479940">
        <ele>1105.6</ele>
        <time>2019-07-06T10:45:11Z</time>
      </trkpt>
      <trkpt lat="40.7606790" lon="-2.2481480">
        <ele>1105.0</ele>
        <time>2019-07-06T10:45:13Z</time>
      </trkpt>
      <trkpt lat="40.7606680" lon="-2.2482300">
        <ele>1104.8</ele>
        <time>2019-07-06T10:45:14Z</time>
      </trkpt>
      <trkpt lat="40.7605960" lon="-2.2485540">
        <ele>1104.0</ele>
        <time>2019-07-06T10:45:18Z</time>
      </trkpt>
      <trkpt lat="40.7605890" lon="-2.2486440">
        <ele>1103.8</ele>
        <time>2019-07-06T10:45:19Z</time>
      </trkpt>
      <trkpt lat="40.7606120" lon="-2.2488460">
        <ele>1103.0</ele>
        <time>2019-07-06T10:45:21Z</time>
      </trkpt>
      <trkpt lat="40.7606350" lon="-2.2489590">
        <ele>1102.4</ele>
        <time>2019-07-06T10:45:22Z</time>
      </trkpt>
      <trkpt lat="40.7606560" lon="-2.2490810">
        <ele>1101.4</ele>
        <time>2019-07-06T10:45:23Z</time>
      </trkpt>
      <trkpt lat="40.7606830" lon="-2.2493380">
        <ele>1099.4</ele>
        <time>2019-07-06T10:45:25Z</time>
      </trkpt>
      <trkpt lat="40.7607300" lon="-2.2496050">
        <ele>1098.4</ele>
        <time>2019-07-06T10:45:27Z</time>
      </trkpt>
      <trkpt lat="40.7607680" lon="-2.2497400">
        <ele>1097.2</ele>
        <time>2019-07-06T10:45:28Z</time>
      </trkpt>
      <trkpt lat="40.7608200" lon="-2.2498710">
        <ele>1096.4</ele>
        <time>2019-07-06T10:45:29Z</time>
      </trkpt>
      <trkpt lat="40.7609490" lon="-2.2501070">
        <ele>1094.4</ele>
        <time>2019-07-06T10:45:31Z</time>
      </trkpt>
      <trkpt lat="40.7610580" lon="-2.2503170">
        <ele>1092.0</ele>
        <time>2019-07-06T10:45:33Z</time>
      </trkpt>
      <trkpt lat="40.7611080" lon="-2.2505240">
        <ele>1090.8</ele>
        <time>2019-07-06T10:45:35Z</time>
      </trkpt>
      <trkpt lat="40.7611190" lon="-2.2506270">
        <ele>1090.2</ele>
        <time>2019-07-06T10:45:36Z</time>
      </trkpt>
      <trkpt lat="40.7611320" lon="-2.2507250">
        <ele>1089.8</ele>
        <time>2019-07-06T10:45:37Z</time>
      </trkpt>
      <trkpt lat="40.7611530" lon="-2.2508190">
        <ele>1089.6</ele>
        <time>2019-07-06T10:45:38Z</time>
      </trkpt>
      <trkpt lat="40.7612230" lon="-2.2510070">
        <ele>1089.2</ele>
        <time>2019-07-06T10:45:40Z</time>
      </trkpt>
      <trkpt lat="40.7613160" lon="-2.2511810">
        <ele>1088.6</ele>
        <time>2019-07-06T10:45:42Z</time>
      </trkpt>
      <trkpt lat="40.7614330" lon="-2.2513020">
        <ele>1087.4</ele>
        <time>2019-07-06T10:45:44Z</time>
      </trkpt>
      <trkpt lat="40.7615880" lon="-2.2513340">
        <ele>1085.6</ele>
        <time>2019-07-06T10:45:46Z</time>
      </trkpt>
      <trkpt lat="40.7616710" lon="-2.2513370">
        <ele>1084.8</ele>
        <time>2019-07-06T10:45:47Z</time>
      </trkpt>
      <trkpt lat="40.7618220" lon="-2.2514060">
        <ele>1083.0</ele>
        <time>2019-07-06T10:45:49Z</time>
      </trkpt>
      <trkpt lat="40.7618800" lon="-2.2514820">
        <ele>1082.2</ele>
        <time>2019-07-06T10:45:50Z</time>
      </trkpt>
      <trkpt lat="40.7619250" lon="-2.2515760">
        <ele>1081.6</ele>
        <time>2019-07-06T10:45:51Z</time>
      </trkpt>
      <trkpt lat="40.7619880" lon="-2.2517970">
        <ele>1080.2</ele>
        <time>2019-07-06T10:45:53Z</time>
      </trkpt>
      <trkpt lat="40.7620270" lon="-2.2519070">
        <ele>1079.4</ele>
        <time>2019-07-06T10:45:54Z</time>
      </trkpt>
      <trkpt lat="40.7620820" lon="-2.2520050">
        <ele>1078.8</ele>
        <time>2019-07-06T10:45:55Z</time>
      </trkpt>
      <trkpt lat="40.7621510" lon="-2.2520930">
        <ele>1078.2</ele>
        <time>2019-07-06T10:45:56Z</time>
      </trkpt>
      <trkpt lat="40.7622290" lon="-2.2521760">
        <ele>1077.4</ele>
        <time>2019-07-06T10:45:57Z</time>
      </trkpt>
      <trkpt lat="40.7623070" lon="-2.2522670">
        <ele>1076.6</ele>
        <time>2019-07-06T10:45:58Z</time>
      </trkpt>
      <trkpt lat="40.7623730" lon="-2.2523780">
        <ele>1076.0</ele>
        <time>2019-07-06T10:45:59Z</time>
      </trkpt>
      <trkpt lat="40.7624230" lon="-2.2525000">
        <ele>1074.6</ele>
        <time>2019-07-06T10:46:00Z</time>
      </trkpt>
      <trkpt lat="40.7624660" lon="-2.2526170">
        <ele>1073.6</ele>
        <time>2019-07-06T10:46:01Z</time>
      </trkpt>
      <trkpt lat="40.7625140" lon="-2.2527170">
        <ele>1072.6</ele>
        <time>2019-07-06T10:46:02Z</time>
      </trkpt>
      <trkpt lat="40.7625770" lon="-2.2527980">
        <ele>1072.0</ele>
        <time>2019-07-06T10:46:03Z</time>
      </trkpt>
      <trkpt lat="40.7627430" lon="-2.2529140">
        <ele>1070.6</ele>
        <time>2019-07-06T10:46:05Z</time>
      </trkpt>
      <trkpt lat="40.7628220" lon="-2.2529750">
        <ele>1070.0</ele>
        <time>2019-07-06T10:46:06Z</time>
      </trkpt>
      <trkpt lat="40.7628870" lon="-2.2530510">
        <ele>1069.0</ele>
        <time>2019-07-06T10:46:07Z</time>
      </trkpt>
      <trkpt lat="40.7629340" lon="-2.2531370">
        <ele>1067.4</ele>
        <time>2019-07-06T10:46:08Z</time>
      </trkpt>
      <trkpt lat="40.7629600" lon="-2.2532330">
        <ele>1066.6</ele>
        <time>2019-07-06T10:46:09Z</time>
      </trkpt>
      <trkpt lat="40.7629600" lon="-2.2533290">
        <ele>1066.0</ele>
        <time>2019-07-06T10:46:10Z</time>
      </trkpt>
      <trkpt lat="40.7629360" lon="-2.2534160">
        <ele>1065.4</ele>
        <time>2019-07-06T10:46:11Z</time>
      </trkpt>
      <trkpt lat="40.7628540" lon="-2.2535580">
        <ele>1065.0</ele>
        <time>2019-07-06T10:46:13Z</time>
      </trkpt>
      <trkpt lat="40.7627690" lon="-2.2537050">
        <ele>1064.8</ele>
        <time>2019-07-06T10:46:15Z</time>
      </trkpt>
      <trkpt lat="40.7627330" lon="-2.2537910">
        <ele>1064.8</ele>
        <time>2019-07-06T10:46:16Z</time>
      </trkpt>
      <trkpt lat="40.7626950" lon="-2.2539920">
        <ele>1064.2</ele>
        <time>2019-07-06T10:46:18Z</time>
      </trkpt>
      <trkpt lat="40.7626940" lon="-2.2541020">
        <ele>1063.6</ele>
        <time>2019-07-06T10:46:19Z</time>
      </trkpt>
      <trkpt lat="40.7627180" lon="-2.2543220">
        <ele>1062.6</ele>
        <time>2019-07-06T10:46:21Z</time>
      </trkpt>
      <trkpt lat="40.7627330" lon="-2.2544290">
        <ele>1062.4</ele>
        <time>2019-07-06T10:46:22Z</time>
      </trkpt>
      <trkpt lat="40.7627630" lon="-2.2546390">
        <ele>1061.4</ele>
        <time>2019-07-06T10:46:24Z</time>
      </trkpt>
      <trkpt lat="40.7628530" lon="-2.2550260">
        <ele>1060.8</ele>
        <time>2019-07-06T10:46:28Z</time>
      </trkpt>
      <trkpt lat="40.7629040" lon="-2.2552170">
        <ele>1060.6</ele>
        <time>2019-07-06T10:46:30Z</time>
      </trkpt>
      <trkpt lat="40.7629590" lon="-2.2554060">
        <ele>1060.0</ele>
        <time>2019-07-06T10:46:32Z</time>
      </trkpt>
      <trkpt lat="40.7630430" lon="-2.2556960">
        <ele>1059.2</ele>
        <time>2019-07-06T10:46:35Z</time>
      </trkpt>
      <trkpt lat="40.7630700" lon="-2.2557960">
        <ele>1059.0</ele>
        <time>2019-07-06T10:46:36Z</time>
      </trkpt>
      <trkpt lat="40.7632430" lon="-2.2563760">
        <ele>1058.0</ele>
        <time>2019-07-06T10:46:42Z</time>
      </trkpt>
      <trkpt lat="40.7632730" lon="-2.2564740">
        <ele>1057.8</ele>
        <time>2019-07-06T10:46:43Z</time>
      </trkpt>
      <trkpt lat="40.7634010" lon="-2.2568990">
        <ele>1056.8</ele>
        <time>2019-07-06T10:46:47Z</time>
      </trkpt>
      <trkpt lat="40.7634940" lon="-2.2571250">
        <ele>1055.8</ele>
        <time>2019-07-06T10:46:49Z</time>
      </trkpt>
      <trkpt lat="40.7636180" lon="-2.2573630">
        <ele>1054.2</ele>
        <time>2019-07-06T10:46:51Z</time>
      </trkpt>
      <trkpt lat="40.7637470" lon="-2.2576200">
        <ele>1052.6</ele>
        <time>2019-07-06T10:46:53Z</time>
      </trkpt>
      <trkpt lat="40.7638460" lon="-2.2579050">
        <ele>1051.0</ele>
        <time>2019-07-06T10:46:55Z</time>
      </trkpt>
      <trkpt lat="40.7638770" lon="-2.2580530">
        <ele>1050.2</ele>
        <time>2019-07-06T10:46:56Z</time>
      </trkpt>
      <trkpt lat="40.7639000" lon="-2.2581990">
        <ele>1049.6</ele>
        <time>2019-07-06T10:46:57Z</time>
      </trkpt>
      <trkpt lat="40.7639520" lon="-2.2587520">
        <ele>1049.0</ele>
        <time>2019-07-06T10:47:01Z</time>
      </trkpt>
      <trkpt lat="40.7639440" lon="-2.2590040">
        <ele>1048.6</ele>
        <time>2019-07-06T10:47:03Z</time>
      </trkpt>
      <trkpt lat="40.7639410" lon="-2.2592340">
        <ele>1048.2</ele>
        <time>2019-07-06T10:47:05Z</time>
      </trkpt>
      <trkpt lat="40.7639540" lon="-2.2593400">
        <ele>1048.0</ele>
        <time>2019-07-06T10:47:06Z</time>
      </trkpt>
      <trkpt lat="40.7640210" lon="-2.2595340">
        <ele>1047.6</ele>
        <time>2019-07-06T10:47:08Z</time>
      </trkpt>
      <trkpt lat="40.7640660" lon="-2.2596230">
        <ele>1047.4</ele>
        <time>2019-07-06T10:47:09Z</time>
      </trkpt>
      <trkpt lat="40.7641120" lon="-2.2597120">
        <ele>1047.2</ele>
        <time>2019-07-06T10:47:10Z</time>
      </trkpt>
      <trkpt lat="40.7641980" lon="-2.2598940">
        <ele>1045.8</ele>
        <time>2019-07-06T10:47:12Z</time>
      </trkpt>
      <trkpt lat="40.7642800" lon="-2.2600770">
        <ele>1045.4</ele>
        <time>2019-07-06T10:47:14Z</time>
      </trkpt>
      <trkpt lat="40.7643770" lon="-2.2602560">
        <ele>1044.6</ele>
        <time>2019-07-06T10:47:16Z</time>
      </trkpt>
      <trkpt lat="40.7644950" lon="-2.2604220">
        <ele>1043.4</ele>
        <time>2019-07-06T10:47:18Z</time>
      </trkpt>
      <trkpt lat="40.7645570" lon="-2.2604990">
        <ele>1043.0</ele>
        <time>2019-07-06T10:47:19Z</time>
      </trkpt>
      <trkpt lat="40.7646190" lon="-2.2605740">
        <ele>1042.4</ele>
        <time>2019-07-06T10:47:20Z</time>
      </trkpt>
      <trkpt lat="40.7648100" lon="-2.2607860">
        <ele>1041.2</ele>
        <time>2019-07-06T10:47:23Z</time>
      </trkpt>
      <trkpt lat="40.7650110" lon="-2.2609990">
        <ele>1040.0</ele>
        <time>2019-07-06T10:47:26Z</time>
      </trkpt>
      <trkpt lat="40.7651440" lon="-2.2611500">
        <ele>1039.0</ele>
        <time>2019-07-06T10:47:28Z</time>
      </trkpt>
      <trkpt lat="40.7653560" lon="-2.2613630">
        <ele>1037.8</ele>
        <time>2019-07-06T10:47:31Z</time>
      </trkpt>
      <trkpt lat="40.7655030" lon="-2.2615050">
        <ele>1036.8</ele>
        <time>2019-07-06T10:47:33Z</time>
      </trkpt>
      <trkpt lat="40.7655750" lon="-2.2615800">
        <ele>1036.6</ele>
        <time>2019-07-06T10:47:34Z</time>
      </trkpt>
      <trkpt lat="40.7657930" lon="-2.2618130">
        <ele>1035.4</ele>
        <time>2019-07-06T10:47:37Z</time>
      </trkpt>
      <trkpt lat="40.7659370" lon="-2.2619840">
        <ele>1034.4</ele>
        <time>2019-07-06T10:47:39Z</time>
      </trkpt>
      <trkpt lat="40.7660040" lon="-2.2620810">
        <ele>1034.0</ele>
        <time>2019-07-06T10:47:40Z</time>
      </trkpt>
      <trkpt lat="40.7661520" lon="-2.2624120">
        <ele>1033.4</ele>
        <time>2019-07-06T10:47:43Z</time>
      </trkpt>
      <trkpt lat="40.7662670" lon="-2.2627320">
        <ele>1033.2</ele>
        <time>2019-07-06T10:47:46Z</time>
      </trkpt>
      <trkpt lat="40.7663440" lon="-2.2629360">
        <ele>1033.2</ele>
        <time>2019-07-06T10:47:48Z</time>
      </trkpt>
      <trkpt lat="40.7663810" lon="-2.2630360">
        <ele>1033.2</ele>
        <time>2019-07-06T10:47:49Z</time>
      </trkpt>
      <trkpt lat="40.7664480" lon="-2.2632290">
        <ele>1033.2</ele>
        <time>2019-07-06T10:47:51Z</time>
      </trkpt>
      <trkpt lat="40.7665120" lon="-2.2634170">
        <ele>1033.2</ele>
        <time>2019-07-06T10:47:53Z</time>
      </trkpt>
      <trkpt lat="40.7666030" lon="-2.2637050">
        <ele>1032.8</ele>
        <time>2019-07-06T10:47:56Z</time>
      </trkpt>
      <trkpt lat="40.7666740" lon="-2.2640010">
        <ele>1032.4</ele>
        <time>2019-07-06T10:47:59Z</time>
      </trkpt>
      <trkpt lat="40.7666980" lon="-2.2642000">
        <ele>1032.4</ele>
        <time>2019-07-06T10:48:02Z</time>
      </trkpt>
      <trkpt lat="40.7667080" lon="-2.2644770">
        <ele>1032.4</ele>
        <time>2019-07-06T10:48:05Z</time>
      </trkpt>
      <trkpt lat="40.7667050" lon="-2.2646600">
        <ele>1032.6</ele>
        <time>2019-07-06T10:48:07Z</time>
      </trkpt>
      <trkpt lat="40.7667410" lon="-2.2650320">
        <ele>1032.4</ele>
        <time>2019-07-06T10:48:11Z</time>
      </trkpt>
      <trkpt lat="40.7667700" lon="-2.2653030">
        <ele>1032.4</ele>
        <time>2019-07-06T10:48:14Z</time>
      </trkpt>
      <trkpt lat="40.7667780" lon="-2.2656370">
        <ele>1033.0</ele>
        <time>2019-07-06T10:48:18Z</time>
      </trkpt>
      <trkpt lat="40.7667700" lon="-2.2657870">
        <ele>1033.4</ele>
        <time>2019-07-06T10:48:20Z</time>
      </trkpt>
      <trkpt lat="40.7667710" lon="-2.2658680">
        <ele>1033.4</ele>
        <time>2019-07-06T10:48:21Z</time>
      </trkpt>
      <trkpt lat="40.7668230" lon="-2.2661180">
        <ele>1033.4</ele>
        <time>2019-07-06T10:48:24Z</time>
      </trkpt>
      <trkpt lat="40.7668490" lon="-2.2661980">
        <ele>1033.2</ele>
        <time>2019-07-06T10:48:25Z</time>
      </trkpt>
      <trkpt lat="40.7669600" lon="-2.2665090">
        <ele>1032.8</ele>
        <time>2019-07-06T10:48:29Z</time>
      </trkpt>
      <trkpt lat="40.7670400" lon="-2.2666640">
        <ele>1032.6</ele>
        <time>2019-07-06T10:48:31Z</time>
      </trkpt>
      <trkpt lat="40.7671270" lon="-2.2668420">
        <ele>1031.8</ele>
        <time>2019-07-06T10:48:33Z</time>
      </trkpt>
      <trkpt lat="40.7671620" lon="-2.2669460">
        <ele>1031.4</ele>
        <time>2019-07-06T10:48:34Z</time>
      </trkpt>
      <trkpt lat="40.7671870" lon="-2.2670600">
        <ele>1030.8</ele>
        <time>2019-07-06T10:48:35Z</time>
      </trkpt>
      <trkpt lat="40.7672060" lon="-2.2671820">
        <ele>1030.2</ele>
        <time>2019-07-06T10:48:36Z</time>
      </trkpt>
      <trkpt lat="40.7672210" lon="-2.2673080">
        <ele>1029.8</ele>
        <time>2019-07-06T10:48:37Z</time>
      </trkpt>
      <trkpt lat="40.7672510" lon="-2.2675630">
        <ele>1028.8</ele>
        <time>2019-07-06T10:48:39Z</time>
      </trkpt>
      <trkpt lat="40.7672790" lon="-2.2676850">
        <ele>1028.4</ele>
        <time>2019-07-06T10:48:40Z</time>
      </trkpt>
      <trkpt lat="40.7673850" lon="-2.2679030">
        <ele>1027.6</ele>
        <time>2019-07-06T10:48:42Z</time>
      </trkpt>
      <trkpt lat="40.7674540" lon="-2.2679930">
        <ele>1027.4</ele>
        <time>2019-07-06T10:48:43Z</time>
      </trkpt>
      <trkpt lat="40.7675260" lon="-2.2680790">
        <ele>1027.0</ele>
        <time>2019-07-06T10:48:44Z</time>
      </trkpt>
      <trkpt lat="40.7676600" lon="-2.2682640">
        <ele>1026.4</ele>
        <time>2019-07-06T10:48:46Z</time>
      </trkpt>
      <trkpt lat="40.7677530" lon="-2.2684830">
        <ele>1026.0</ele>
        <time>2019-07-06T10:48:48Z</time>
      </trkpt>
      <trkpt lat="40.7678600" lon="-2.2688170">
        <ele>1025.4</ele>
        <time>2019-07-06T10:48:51Z</time>
      </trkpt>
      <trkpt lat="40.7679100" lon="-2.2689120">
        <ele>1025.2</ele>
        <time>2019-07-06T10:48:52Z</time>
      </trkpt>
      <trkpt lat="40.7680670" lon="-2.2690670">
        <ele>1024.0</ele>
        <time>2019-07-06T10:48:54Z</time>
      </trkpt>
      <trkpt lat="40.7682760" lon="-2.2691480">
        <ele>1022.2</ele>
        <time>2019-07-06T10:48:56Z</time>
      </trkpt>
      <trkpt lat="40.7683790" lon="-2.2691750">
        <ele>1021.2</ele>
        <time>2019-07-06T10:48:57Z</time>
      </trkpt>
      <trkpt lat="40.7687610" lon="-2.2692910">
        <ele>1020.0</ele>
        <time>2019-07-06T10:49:01Z</time>
      </trkpt>
      <trkpt lat="40.7688420" lon="-2.2693500">
        <ele>1019.8</ele>
        <time>2019-07-06T10:49:02Z</time>
      </trkpt>
      <trkpt lat="40.7690360" lon="-2.2695750">
        <ele>1019.2</ele>
        <time>2019-07-06T10:49:05Z</time>
      </trkpt>
      <trkpt lat="40.7690970" lon="-2.2696570">
        <ele>1019.0</ele>
        <time>2019-07-06T10:49:06Z</time>
      </trkpt>
      <trkpt lat="40.7693750" lon="-2.2699670">
        <ele>1018.0</ele>
        <time>2019-07-06T10:49:10Z</time>
      </trkpt>
      <trkpt lat="40.7694470" lon="-2.2700460">
        <ele>1017.8</ele>
        <time>2019-07-06T10:49:11Z</time>
      </trkpt>
      <trkpt lat="40.7696640" lon="-2.2702800">
        <ele>1016.8</ele>
        <time>2019-07-06T10:49:14Z</time>
      </trkpt>
      <trkpt lat="40.7700340" lon="-2.2706190">
        <ele>1016.0</ele>
        <time>2019-07-06T10:49:19Z</time>
      </trkpt>
      <trkpt lat="40.7702480" lon="-2.2707860">
        <ele>1016.2</ele>
        <time>2019-07-06T10:49:22Z</time>
      </trkpt>
      <trkpt lat="40.7704390" lon="-2.2709510">
        <ele>1016.0</ele>
        <time>2019-07-06T10:49:25Z</time>
      </trkpt>
      <trkpt lat="40.7705590" lon="-2.2710650">
        <ele>1016.0</ele>
        <time>2019-07-06T10:49:27Z</time>
      </trkpt>
      <trkpt lat="40.7709510" lon="-2.2713800">
        <ele>1015.0</ele>
        <time>2019-07-06T10:49:33Z</time>
      </trkpt>
      <trkpt lat="40.7710220" lon="-2.2714320">
        <ele>1014.8</ele>
        <time>2019-07-06T10:49:34Z</time>
      </trkpt>
      <trkpt lat="40.7712450" lon="-2.2715820">
        <ele>1013.4</ele>
        <time>2019-07-06T10:49:37Z</time>
      </trkpt>
      <trkpt lat="40.7714700" lon="-2.2717310">
        <ele>1012.4</ele>
        <time>2019-07-06T10:49:40Z</time>
      </trkpt>
      <trkpt lat="40.7715450" lon="-2.2717840">
        <ele>1012.2</ele>
        <time>2019-07-06T10:49:41Z</time>
      </trkpt>
      <trkpt lat="40.7717730" lon="-2.2719410">
        <ele>1011.4</ele>
        <time>2019-07-06T10:49:44Z</time>
      </trkpt>
      <trkpt lat="40.7720750" lon="-2.2721660">
        <ele>1010.2</ele>
        <time>2019-07-06T10:49:48Z</time>
      </trkpt>
      <trkpt lat="40.7721510" lon="-2.2722210">
        <ele>1010.0</ele>
        <time>2019-07-06T10:49:49Z</time>
      </trkpt>
      <trkpt lat="40.7726100" lon="-2.2725210">
        <ele>1009.4</ele>
        <time>2019-07-06T10:49:55Z</time>
      </trkpt>
      <trkpt lat="40.7726850" lon="-2.2725750">
        <ele>1009.2</ele>
        <time>2019-07-06T10:49:56Z</time>
      </trkpt>
      <trkpt lat="40.7729800" lon="-2.2727930">
        <ele>1008.2</ele>
        <time>2019-07-06T10:50:00Z</time>
      </trkpt>
      <trkpt lat="40.7731860" lon="-2.2729830">
        <ele>1007.6</ele>
        <time>2019-07-06T10:50:03Z</time>
      </trkpt>
      <trkpt lat="40.7732530" lon="-2.2730480">
        <ele>1007.4</ele>
        <time>2019-07-06T10:50:04Z</time>
      </trkpt>
      <trkpt lat="40.7734540" lon="-2.2732250">
        <ele>1007.2</ele>
        <time>2019-07-06T10:50:07Z</time>
      </trkpt>
      <trkpt lat="40.7737330" lon="-2.2734190">
        <ele>1006.8</ele>
        <time>2019-07-06T10:50:11Z</time>
      </trkpt>
      <trkpt lat="40.7741590" lon="-2.2736000">
        <ele>1006.8</ele>
        <time>2019-07-06T10:50:17Z</time>
      </trkpt>
      <trkpt lat="40.7745080" lon="-2.2737360">
        <ele>1005.8</ele>
        <time>2019-07-06T10:50:22Z</time>
      </trkpt>
      <trkpt lat="40.7745790" lon="-2.2737640">
        <ele>1004.8</ele>
        <time>2019-07-06T10:50:23Z</time>
      </trkpt>
      <trkpt lat="40.7747210" lon="-2.2738250">
        <ele>1003.6</ele>
        <time>2019-07-06T10:50:25Z</time>
      </trkpt>
      <trkpt lat="40.7747940" lon="-2.2738560">
        <ele>1003.2</ele>
        <time>2019-07-06T10:50:26Z</time>
      </trkpt>
      <trkpt lat="40.7750200" lon="-2.2739450">
        <ele>1002.4</ele>
        <time>2019-07-06T10:50:29Z</time>
      </trkpt>
      <trkpt lat="40.7752510" lon="-2.2740070">
        <ele>1002.0</ele>
        <time>2019-07-06T10:50:32Z</time>
      </trkpt>
      <trkpt lat="40.7753300" lon="-2.2740050">
        <ele>1002.0</ele>
        <time>2019-07-06T10:50:33Z</time>
      </trkpt>
      <trkpt lat="40.7755710" lon="-2.2739800">
        <ele>1001.2</ele>
        <time>2019-07-06T10:50:36Z</time>
      </trkpt>
      <trkpt lat="40.7757400" lon="-2.2740210">
        <ele>1000.6</ele>
        <time>2019-07-06T10:50:38Z</time>
      </trkpt>
      <trkpt lat="40.7758280" lon="-2.2740730">
        <ele>1000.0</ele>
        <time>2019-07-06T10:50:39Z</time>
      </trkpt>
      <trkpt lat="40.7759210" lon="-2.2741350">
        <ele>998.8</ele>
        <time>2019-07-06T10:50:40Z</time>
      </trkpt>
      <trkpt lat="40.7760120" lon="-2.2741970">
        <ele>997.6</ele>
        <time>2019-07-06T10:50:41Z</time>
      </trkpt>
      <trkpt lat="40.7761030" lon="-2.2742540">
        <ele>996.0</ele>
        <time>2019-07-06T10:50:42Z</time>
      </trkpt>
      <trkpt lat="40.7761990" lon="-2.2742990">
        <ele>994.8</ele>
        <time>2019-07-06T10:50:43Z</time>
      </trkpt>
      <trkpt lat="40.7763020" lon="-2.2743240">
        <ele>993.8</ele>
        <time>2019-07-06T10:50:44Z</time>
      </trkpt>
      <trkpt lat="40.7764100" lon="-2.2743300">
        <ele>992.8</ele>
        <time>2019-07-06T10:50:45Z</time>
      </trkpt>
      <trkpt lat="40.7765150" lon="-2.2743220">
        <ele>991.8</ele>
        <time>2019-07-06T10:50:46Z</time>
      </trkpt>
      <trkpt lat="40.7766140" lon="-2.2743130">
        <ele>991.4</ele>
        <time>2019-07-06T10:50:47Z</time>
      </trkpt>
      <trkpt lat="40.7767080" lon="-2.2743150">
        <ele>991.2</ele>
        <time>2019-07-06T10:50:48Z</time>
      </trkpt>
      <trkpt lat="40.7767960" lon="-2.2743330">
        <ele>991.0</ele>
        <time>2019-07-06T10:50:49Z</time>
      </trkpt>
      <trkpt lat="40.7770090" lon="-2.2744790">
        <ele>991.2</ele>
        <time>2019-07-06T10:50:52Z</time>
      </trkpt>
      <trkpt lat="40.7771500" lon="-2.2747540">
        <ele>991.2</ele>
        <time>2019-07-06T10:50:55Z</time>
      </trkpt>
      <trkpt lat="40.7771990" lon="-2.2748580">
        <ele>991.0</ele>
        <time>2019-07-06T10:50:56Z</time>
      </trkpt>
      <trkpt lat="40.7773850" lon="-2.2751490">
        <ele>989.8</ele>
        <time>2019-07-06T10:50:59Z</time>
      </trkpt>
      <trkpt lat="40.7775500" lon="-2.2753140">
        <ele>988.8</ele>
        <time>2019-07-06T10:51:01Z</time>
      </trkpt>
      <trkpt lat="40.7777170" lon="-2.2754510">
        <ele>987.8</ele>
        <time>2019-07-06T10:51:03Z</time>
      </trkpt>
      <trkpt lat="40.7777840" lon="-2.2755200">
        <ele>987.4</ele>
        <time>2019-07-06T10:51:04Z</time>
      </trkpt>
      <trkpt lat="40.7778830" lon="-2.2756450">
        <ele>985.4</ele>
        <time>2019-07-06T10:51:06Z</time>
      </trkpt>
      <trkpt lat="40.7779600" lon="-2.2757370">
        <ele>983.8</ele>
        <time>2019-07-06T10:51:08Z</time>
      </trkpt>
      <trkpt lat="40.7780160" lon="-2.2757670">
        <ele>983.2</ele>
        <time>2019-07-06T10:51:09Z</time>
      </trkpt>
      <trkpt lat="40.7780870" lon="-2.2757930">
        <ele>982.6</ele>
        <time>2019-07-06T10:51:10Z</time>
      </trkpt>
      <trkpt lat="40.7783290" lon="-2.2758730">
        <ele>981.2</ele>
        <time>2019-07-06T10:51:13Z</time>
      </trkpt>
      <trkpt lat="40.7785040" lon="-2.2759310">
        <ele>979.4</ele>
        <time>2019-07-06T10:51:15Z</time>
      </trkpt>
      <trkpt lat="40.7785810" lon="-2.2759740">
        <ele>978.6</ele>
        <time>2019-07-06T10:51:16Z</time>
      </trkpt>
      <trkpt lat="40.7786500" lon="-2.2760280">
        <ele>977.8</ele>
        <time>2019-07-06T10:51:17Z</time>
      </trkpt>
      <trkpt lat="40.7787060" lon="-2.2760940">
        <ele>976.8</ele>
        <time>2019-07-06T10:51:18Z</time>
      </trkpt>
      <trkpt lat="40.7787470" lon="-2.2761680">
        <ele>975.8</ele>
        <time>2019-07-06T10:51:19Z</time>
      </trkpt>
      <trkpt lat="40.7787760" lon="-2.2762460">
        <ele>974.6</ele>
        <time>2019-07-06T10:51:20Z</time>
      </trkpt>
      <trkpt lat="40.7788080" lon="-2.2763200">
        <ele>973.6</ele>
        <time>2019-07-06T10:51:21Z</time>
      </trkpt>
      <trkpt lat="40.7788570" lon="-2.2763870">
        <ele>972.6</ele>
        <time>2019-07-06T10:51:22Z</time>
      </trkpt>
      <trkpt lat="40.7790070" lon="-2.2765140">
        <ele>971.4</ele>
        <time>2019-07-06T10:51:24Z</time>
      </trkpt>
      <trkpt lat="40.7791690" lon="-2.2766760">
        <ele>969.4</ele>
        <time>2019-07-06T10:51:26Z</time>
      </trkpt>
      <trkpt lat="40.7792470" lon="-2.2767450">
        <ele>968.6</ele>
        <time>2019-07-06T10:51:27Z</time>
      </trkpt>
      <trkpt lat="40.7793170" lon="-2.2767920">
        <ele>968.0</ele>
        <time>2019-07-06T10:51:28Z</time>
      </trkpt>
      <trkpt lat="40.7794560" lon="-2.2767860">
        <ele>967.0</ele>
        <time>2019-07-06T10:51:30Z</time>
      </trkpt>
      <trkpt lat="40.7795240" lon="-2.2767530">
        <ele>966.8</ele>
        <time>2019-07-06T10:51:31Z</time>
      </trkpt>
      <trkpt lat="40.7797340" lon="-2.2767300">
        <ele>966.2</ele>
        <time>2019-07-06T10:51:34Z</time>
      </trkpt>
      <trkpt lat="40.7798760" lon="-2.2768100">
        <ele>966.0</ele>
        <time>2019-07-06T10:51:36Z</time>
      </trkpt>
      <trkpt lat="40.7800230" lon="-2.2769020">
        <ele>964.8</ele>
        <time>2019-07-06T10:51:38Z</time>
      </trkpt>
      <trkpt lat="40.7802830" lon="-2.2770350">
        <ele>963.6</ele>
        <time>2019-07-06T10:51:41Z</time>
      </trkpt>
      <trkpt lat="40.7804580" lon="-2.2771500">
        <ele>963.0</ele>
        <time>2019-07-06T10:51:43Z</time>
      </trkpt>
      <trkpt lat="40.7805410" lon="-2.2772050">
        <ele>962.6</ele>
        <time>2019-07-06T10:51:44Z</time>
      </trkpt>
      <trkpt lat="40.7807030" lon="-2.2772930">
        <ele>960.4</ele>
        <time>2019-07-06T10:51:46Z</time>
      </trkpt>
      <trkpt lat="40.7807920" lon="-2.2773230">
        <ele>959.6</ele>
        <time>2019-07-06T10:51:47Z</time>
      </trkpt>
      <trkpt lat="40.7808880" lon="-2.2773460">
        <ele>959.0</ele>
        <time>2019-07-06T10:51:48Z</time>
      </trkpt>
      <trkpt lat="40.7810980" lon="-2.2773690">
        <ele>957.8</ele>
        <time>2019-07-06T10:51:50Z</time>
      </trkpt>
      <trkpt lat="40.7812080" lon="-2.2773730">
        <ele>956.6</ele>
        <time>2019-07-06T10:51:51Z</time>
      </trkpt>
      <trkpt lat="40.7813150" lon="-2.2773750">
        <ele>955.6</ele>
        <time>2019-07-06T10:51:52Z</time>
      </trkpt>
      <trkpt lat="40.7815320" lon="-2.2773790">
        <ele>954.2</ele>
        <time>2019-07-06T10:51:54Z</time>
      </trkpt>
      <trkpt lat="40.7817430" lon="-2.2774040">
        <ele>952.8</ele>
        <time>2019-07-06T10:51:56Z</time>
      </trkpt>
      <trkpt lat="40.7819630" lon="-2.2774690">
        <ele>951.6</ele>
        <time>2019-07-06T10:51:59Z</time>
      </trkpt>
      <trkpt lat="40.7820400" lon="-2.2774900">
        <ele>950.2</ele>
        <time>2019-07-06T10:52:01Z</time>
      </trkpt>
      <trkpt lat="40.7821220" lon="-2.2775130">
        <ele>949.2</ele>
        <time>2019-07-06T10:52:03Z</time>
      </trkpt>
      <trkpt lat="40.7822170" lon="-2.2775510">
        <ele>948.6</ele>
        <time>2019-07-06T10:52:05Z</time>
      </trkpt>
      <trkpt lat="40.7823280" lon="-2.2775800">
        <ele>948.0</ele>
        <time>2019-07-06T10:52:07Z</time>
      </trkpt>
      <trkpt lat="40.7823760" lon="-2.2775950">
        <ele>947.6</ele>
        <time>2019-07-06T10:52:08Z</time>
      </trkpt>
      <trkpt lat="40.7824420" lon="-2.2776190">
        <ele>947.0</ele>
        <time>2019-07-06T10:52:10Z</time>
      </trkpt>
      <trkpt lat="40.7824820" lon="-2.2776180">
        <ele>946.6</ele>
        <time>2019-07-06T10:52:12Z</time>
      </trkpt>
      <trkpt lat="40.7824910" lon="-2.2776270">
        <ele>946.2</ele>
        <time>2019-07-06T10:52:13Z</time>
      </trkpt>
      <trkpt lat="40.7824850" lon="-2.2776460">
        <ele>946.0</ele>
        <time>2019-07-06T10:52:15Z</time>
      </trkpt>
      <trkpt lat="40.7824690" lon="-2.2776450">
        <ele>946.0</ele>
        <time>2019-07-06T10:52:16Z</time>
      </trkpt>
      <trkpt lat="40.7824310" lon="-2.2776230">
        <ele>945.8</ele>
        <time>2019-07-06T10:52:18Z</time>
      </trkpt>
      <trkpt lat="40.7824110" lon="-2.2776100">
        <ele>945.6</ele>
        <time>2019-07-06T10:52:19Z</time>
      </trkpt>
      <trkpt lat="40.7823920" lon="-2.2775970">
        <ele>945.6</ele>
        <time>2019-07-06T10:52:20Z</time>
      </trkpt>
      <trkpt lat="40.7823720" lon="-2.2775860">
        <ele>945.6</ele>
        <time>2019-07-06T10:52:21Z</time>
      </trkpt>
      <trkpt lat="40.7823290" lon="-2.2775650">
        <ele>945.6</ele>
        <time>2019-07-06T10:52:23Z</time>
      </trkpt>
      <trkpt lat="40.7822780" lon="-2.2775440">
        <ele>945.8</ele>
        <time>2019-07-06T10:52:25Z</time>
      </trkpt>
      <trkpt lat="40.7822250" lon="-2.2775270">
        <ele>946.2</ele>
        <time>2019-07-06T10:52:27Z</time>
      </trkpt>
      <trkpt lat="40.7821470" lon="-2.2774990">
        <ele>946.8</ele>
        <time>2019-07-06T10:52:30Z</time>
      </trkpt>
      <trkpt lat="40.7820760" lon="-2.2774710">
        <ele>947.2</ele>
        <time>2019-07-06T10:52:33Z</time>
      </trkpt>
      <trkpt lat="40.7819830" lon="-2.2774430">
        <ele>948.2</ele>
        <time>2019-07-06T10:52:37Z</time>
      </trkpt>
      <trkpt lat="40.7819270" lon="-2.2774310">
        <ele>948.2</ele>
        <time>2019-07-06T10:52:39Z</time>
      </trkpt>
      <trkpt lat="40.7818990" lon="-2.2774250">
        <ele>948.6</ele>
        <time>2019-07-06T10:52:40Z</time>
      </trkpt>
      <trkpt lat="40.7818170" lon="-2.2774100">
        <ele>949.4</ele>
        <time>2019-07-06T10:52:43Z</time>
      </trkpt>
      <trkpt lat="40.7817570" lon="-2.2773990">
        <ele>949.6</ele>
        <time>2019-07-06T10:52:45Z</time>
      </trkpt>
      <trkpt lat="40.7817290" lon="-2.2773890">
        <ele>949.8</ele>
        <time>2019-07-06T10:52:46Z</time>
      </trkpt>
      <trkpt lat="40.7816510" lon="-2.2773650">
        <ele>950.2</ele>
        <time>2019-07-06T10:52:49Z</time>
      </trkpt>
      <trkpt lat="40.7815750" lon="-2.2773720">
        <ele>950.2</ele>
        <time>2019-07-06T10:52:52Z</time>
      </trkpt>
      <trkpt lat="40.7814740" lon="-2.2773620">
        <ele>951.0</ele>
        <time>2019-07-06T10:52:56Z</time>
      </trkpt>
      <trkpt lat="40.7814030" lon="-2.2773670">
        <ele>951.2</ele>
        <time>2019-07-06T10:52:59Z</time>
      </trkpt>
      <trkpt lat="40.7812280" lon="-2.2773970">
        <ele>951.2</ele>
        <time>2019-07-06T10:53:05Z</time>
      </trkpt>
      <trkpt lat="40.7811290" lon="-2.2774660">
        <ele>951.4</ele>
        <time>2019-07-06T10:53:10Z</time>
      </trkpt>
      <trkpt lat="40.7811190" lon="-2.2775940">
        <ele>951.6</ele>
        <time>2019-07-06T10:53:14Z</time>
      </trkpt>
      <trkpt lat="40.7811270" lon="-2.2777060">
        <ele>951.4</ele>
        <time>2019-07-06T10:53:16Z</time>
      </trkpt>
      <trkpt lat="40.7811510" lon="-2.2778110">
        <ele>951.0</ele>
        <time>2019-07-06T10:53:18Z</time>
      </trkpt>
      <trkpt lat="40.7812400" lon="-2.2779810">
        <ele>951.4</ele>
        <time>2019-07-06T10:53:23Z</time>
      </trkpt>
      <trkpt lat="40.7812700" lon="-2.2780040">
        <ele>951.6</ele>
        <time>2019-07-06T10:53:24Z</time>
      </trkpt>
      <trkpt lat="40.7813620" lon="-2.2780630">
        <ele>952.4</ele>
        <time>2019-07-06T10:53:27Z</time>
      </trkpt>
      <trkpt lat="40.7814210" lon="-2.2780970">
        <ele>952.6</ele>
        <time>2019-07-06T10:53:29Z</time>
      </trkpt>
      <trkpt lat="40.7814520" lon="-2.2781100">
        <ele>952.6</ele>
        <time>2019-07-06T10:53:30Z</time>
      </trkpt>
      <trkpt lat="40.7815960" lon="-2.2781870">
        <ele>953.6</ele>
        <time>2019-07-06T10:53:35Z</time>
      </trkpt>
      <trkpt lat="40.7817660" lon="-2.2783120">
        <ele>954.2</ele>
        <time>2019-07-06T10:53:41Z</time>
      </trkpt>
      <trkpt lat="40.7819570" lon="-2.2784440">
        <ele>954.4</ele>
        <time>2019-07-06T10:53:47Z</time>
      </trkpt>
      <trkpt lat="40.7821240" lon="-2.2785500">
        <ele>954.8</ele>
        <time>2019-07-06T10:53:52Z</time>
      </trkpt>
      <trkpt lat="40.7821860" lon="-2.2785880">
        <ele>955.4</ele>
        <time>2019-07-06T10:53:54Z</time>
      </trkpt>
      <trkpt lat="40.7822810" lon="-2.2786410">
        <ele>956.2</ele>
        <time>2019-07-06T10:53:57Z</time>
      </trkpt>
      <trkpt lat="40.7824840" lon="-2.2787470">
        <ele>956.4</ele>
        <time>2019-07-06T10:54:03Z</time>
      </trkpt>
      <trkpt lat="40.7827280" lon="-2.2788740">
        <ele>957.0</ele>
        <time>2019-07-06T10:54:10Z</time>
      </trkpt>
      <trkpt lat="40.7827990" lon="-2.2789100">
        <ele>957.2</ele>
        <time>2019-07-06T10:54:12Z</time>
      </trkpt>
      <trkpt lat="40.7830320" lon="-2.2790540">
        <ele>957.4</ele>
        <time>2019-07-06T10:54:18Z</time>
      </trkpt>
      <trkpt lat="40.7830750" lon="-2.2790830">
        <ele>957.4</ele>
        <time>2019-07-06T10:54:19Z</time>
      </trkpt>
      <trkpt lat="40.7833040" lon="-2.2791980">
        <ele>957.4</ele>
        <time>2019-07-06T10:54:24Z</time>
      </trkpt>
      <trkpt lat="40.7836270" lon="-2.2793130">
        <ele>958.2</ele>
        <time>2019-07-06T10:54:31Z</time>
      </trkpt>
      <trkpt lat="40.7836720" lon="-2.2793260">
        <ele>958.4</ele>
        <time>2019-07-06T10:54:32Z</time>
      </trkpt>
      <trkpt lat="40.7837150" lon="-2.2793400">
        <ele>958.8</ele>
        <time>2019-07-06T10:54:33Z</time>
      </trkpt>
      <trkpt lat="40.7839960" lon="-2.2794200">
        <ele>959.8</ele>
        <time>2019-07-06T10:54:40Z</time>
      </trkpt>
      <trkpt lat="40.7840330" lon="-2.2794260">
        <ele>959.8</ele>
        <time>2019-07-06T10:54:41Z</time>
      </trkpt>
      <trkpt lat="40.7842040" lon="-2.2794740">
        <ele>959.8</ele>
        <time>2019-07-06T10:54:46Z</time>
      </trkpt>
      <trkpt lat="40.7844270" lon="-2.2795550">
        <ele>960.8</ele>
        <time>2019-07-06T10:54:53Z</time>
      </trkpt>
      <trkpt lat="40.7844610" lon="-2.2795640">
        <ele>960.8</ele>
        <time>2019-07-06T10:54:54Z</time>
      </trkpt>
      <trkpt lat="40.7844950" lon="-2.2795710">
        <ele>961.2</ele>
        <time>2019-07-06T10:54:55Z</time>
      </trkpt>
      <trkpt lat="40.7846610" lon="-2.2795750">
        <ele>962.0</ele>
        <time>2019-07-06T10:54:59Z</time>
      </trkpt>
      <trkpt lat="40.7847100" lon="-2.2795640">
        <ele>962.0</ele>
        <time>2019-07-06T10:55:00Z</time>
      </trkpt>
      <trkpt lat="40.7850480" lon="-2.2794420">
        <ele>962.0</ele>
        <time>2019-07-06T10:55:07Z</time>
      </trkpt>
      <trkpt lat="40.7851530" lon="-2.2794100">
        <ele>961.8</ele>
        <time>2019-07-06T10:55:09Z</time>
      </trkpt>
      <trkpt lat="40.7852710" lon="-2.2793820">
        <ele>961.0</ele>
        <time>2019-07-06T10:55:11Z</time>
      </trkpt>
      <trkpt lat="40.7853320" lon="-2.2793560">
        <ele>960.6</ele>
        <time>2019-07-06T10:55:12Z</time>
      </trkpt>
      <trkpt lat="40.7853980" lon="-2.2793260">
        <ele>960.2</ele>
        <time>2019-07-06T10:55:13Z</time>
      </trkpt>
      <trkpt lat="40.7855330" lon="-2.2792650">
        <ele>959.2</ele>
        <time>2019-07-06T10:55:15Z</time>
      </trkpt>
      <trkpt lat="40.7856610" lon="-2.2792590">
        <ele>958.4</ele>
        <time>2019-07-06T10:55:17Z</time>
      </trkpt>
      <trkpt lat="40.7858140" lon="-2.2793010">
        <ele>958.4</ele>
        <time>2019-07-06T10:55:20Z</time>
      </trkpt>
      <trkpt lat="40.7859010" lon="-2.2792960">
        <ele>959.0</ele>
        <time>2019-07-06T10:55:22Z</time>
      </trkpt>
      <trkpt lat="40.7860690" lon="-2.2793130">
        <ele>959.6</ele>
        <time>2019-07-06T10:55:26Z</time>
      </trkpt>
      <trkpt lat="40.7861170" lon="-2.2793350">
        <ele>959.6</ele>
        <time>2019-07-06T10:55:27Z</time>
      </trkpt>
      <trkpt lat="40.7863490" lon="-2.2795400">
        <ele>958.2</ele>
        <time>2019-07-06T10:55:31Z</time>
      </trkpt>
      <trkpt lat="40.7864600" lon="-2.2796850">
        <ele>956.6</ele>
        <time>2019-07-06T10:55:33Z</time>
      </trkpt>
      <trkpt lat="40.7865360" lon="-2.2798060">
        <ele>955.8</ele>
        <time>2019-07-06T10:55:35Z</time>
      </trkpt>
      <trkpt lat="40.7865600" lon="-2.2798640">
        <ele>955.4</ele>
        <time>2019-07-06T10:55:36Z</time>
      </trkpt>
      <trkpt lat="40.7865760" lon="-2.2800630">
        <ele>955.0</ele>
        <time>2019-07-06T10:55:39Z</time>
      </trkpt>
      <trkpt lat="40.7865540" lon="-2.2805230">
        <ele>954.4</ele>
        <time>2019-07-06T10:55:45Z</time>
      </trkpt>
      <trkpt lat="40.7865920" lon="-2.2808780">
        <ele>953.4</ele>
        <time>2019-07-06T10:55:49Z</time>
      </trkpt>
      <trkpt lat="40.7866070" lon="-2.2809740">
        <ele>953.4</ele>
        <time>2019-07-06T10:55:50Z</time>
      </trkpt>
      <trkpt lat="40.7866680" lon="-2.2814710">
        <ele>953.0</ele>
        <time>2019-07-06T10:55:55Z</time>
      </trkpt>
      <trkpt lat="40.7866650" lon="-2.2815610">
        <ele>952.6</ele>
        <time>2019-07-06T10:55:56Z</time>
      </trkpt>
      <trkpt lat="40.7866400" lon="-2.2817170">
        <ele>952.4</ele>
        <time>2019-07-06T10:55:58Z</time>
      </trkpt>
      <trkpt lat="40.7866080" lon="-2.2818410">
        <ele>952.8</ele>
        <time>2019-07-06T10:56:00Z</time>
      </trkpt>
      <trkpt lat="40.7865740" lon="-2.2819470">
        <ele>953.8</ele>
        <time>2019-07-06T10:56:02Z</time>
      </trkpt>
      <trkpt lat="40.7865300" lon="-2.2820400">
        <ele>954.4</ele>
        <time>2019-07-06T10:56:04Z</time>
      </trkpt>
      <trkpt lat="40.7864720" lon="-2.2821180">
        <ele>954.8</ele>
        <time>2019-07-06T10:56:06Z</time>
      </trkpt>
      <trkpt lat="40.7863080" lon="-2.2822500">
        <ele>955.6</ele>
        <time>2019-07-06T10:56:11Z</time>
      </trkpt>
      <trkpt lat="40.7862750" lon="-2.2822740">
        <ele>956.0</ele>
        <time>2019-07-06T10:56:12Z</time>
      </trkpt>
      <trkpt lat="40.7862450" lon="-2.2822990">
        <ele>956.2</ele>
        <time>2019-07-06T10:56:13Z</time>
      </trkpt>
      <trkpt lat="40.7861410" lon="-2.2824380">
        <ele>956.2</ele>
        <time>2019-07-06T10:56:17Z</time>
      </trkpt>
      <trkpt lat="40.7860830" lon="-2.2826770">
        <ele>956.2</ele>
        <time>2019-07-06T10:56:22Z</time>
      </trkpt>
      <trkpt lat="40.7861530" lon="-2.2828370">
        <ele>956.8</ele>
        <time>2019-07-06T10:56:26Z</time>
      </trkpt>
      <trkpt lat="40.7862430" lon="-2.2828930">
        <ele>957.2</ele>
        <time>2019-07-06T10:56:29Z</time>
      </trkpt>
      <trkpt lat="40.7863340" lon="-2.2829170">
        <ele>957.8</ele>
        <time>2019-07-06T10:56:32Z</time>
      </trkpt>
      <trkpt lat="40.7863840" lon="-2.2829290">
        <ele>958.4</ele>
        <time>2019-07-06T10:56:34Z</time>
      </trkpt>
      <trkpt lat="40.7864490" lon="-2.2829470">
        <ele>959.0</ele>
        <time>2019-07-06T10:56:37Z</time>
      </trkpt>
      <trkpt lat="40.7864860" lon="-2.2829590">
        <ele>959.6</ele>
        <time>2019-07-06T10:56:39Z</time>
      </trkpt>
      <trkpt lat="40.7865430" lon="-2.2829730">
        <ele>960.8</ele>
        <time>2019-07-06T10:56:42Z</time>
      </trkpt>
      <trkpt lat="40.7865980" lon="-2.2829900">
        <ele>961.8</ele>
        <time>2019-07-06T10:56:45Z</time>
      </trkpt>
      <trkpt lat="40.7866330" lon="-2.2830020">
        <ele>962.2</ele>
        <time>2019-07-06T10:56:47Z</time>
      </trkpt>
      <trkpt lat="40.7866840" lon="-2.2830180">
        <ele>962.8</ele>
        <time>2019-07-06T10:56:50Z</time>
      </trkpt>
      <trkpt lat="40.7867720" lon="-2.2830320">
        <ele>964.0</ele>
        <time>2019-07-06T10:56:55Z</time>
      </trkpt>
      <trkpt lat="40.7868400" lon="-2.2830630">
        <ele>965.0</ele>
        <time>2019-07-06T10:56:59Z</time>
      </trkpt>
      <trkpt lat="40.7868540" lon="-2.2830700">
        <ele>965.2</ele>
        <time>2019-07-06T10:57:00Z</time>
      </trkpt>
      <trkpt lat="40.7868830" lon="-2.2830840">
        <ele>966.0</ele>
        <time>2019-07-06T10:57:02Z</time>
      </trkpt>
      <trkpt lat="40.7868980" lon="-2.2830920">
        <ele>966.2</ele>
        <time>2019-07-06T10:57:03Z</time>
      </trkpt>
      <trkpt lat="40.7869640" lon="-2.2831130">
        <ele>967.8</ele>
        <time>2019-07-06T10:57:07Z</time>
      </trkpt>
      <trkpt lat="40.7869990" lon="-2.2831220">
        <ele>968.2</ele>
        <time>2019-07-06T10:57:09Z</time>
      </trkpt>
      <trkpt lat="40.7870480" lon="-2.2831350">
        <ele>968.8</ele>
        <time>2019-07-06T10:57:12Z</time>
      </trkpt>
      <trkpt lat="40.7871400" lon="-2.2831410">
        <ele>969.8</ele>
        <time>2019-07-06T10:57:18Z</time>
      </trkpt>
      <trkpt lat="40.7871840" lon="-2.2831370">
        <ele>971.0</ele>
        <time>2019-07-06T10:57:21Z</time>
      </trkpt>
      <trkpt lat="40.7872750" lon="-2.2831470">
        <ele>972.0</ele>
        <time>2019-07-06T10:57:27Z</time>
      </trkpt>
      <trkpt lat="40.7873150" lon="-2.2831590">
        <ele>973.4</ele>
        <time>2019-07-06T10:57:30Z</time>
      </trkpt>
      <trkpt lat="40.7873650" lon="-2.2831850">
        <ele>974.4</ele>
        <time>2019-07-06T10:57:34Z</time>
      </trkpt>
      <trkpt lat="40.7874360" lon="-2.2832290">
        <ele>975.4</ele>
        <time>2019-07-06T10:57:39Z</time>
      </trkpt>
      <trkpt lat="40.7874890" lon="-2.2832760">
        <ele>976.4</ele>
        <time>2019-07-06T10:57:43Z</time>
      </trkpt>
      <trkpt lat="40.7875260" lon="-2.2833220">
        <ele>977.6</ele>
        <time>2019-07-06T10:57:46Z</time>
      </trkpt>
      <trkpt lat="40.7875810" lon="-2.2833690">
        <ele>978.6</ele>
        <time>2019-07-06T10:57:50Z</time>
      </trkpt>
      <trkpt lat="40.7876030" lon="-2.2834010">
        <ele>978.8</ele>
        <time>2019-07-06T10:57:52Z</time>
      </trkpt>
      <trkpt lat="40.7876920" lon="-2.2835490">
        <ele>979.6</ele>
        <time>2019-07-06T10:57:59Z</time>
      </trkpt>
      <trkpt lat="40.7877070" lon="-2.2836140">
        <ele>979.8</ele>
        <time>2019-07-06T10:58:01Z</time>
      </trkpt>
      <trkpt lat="40.7877210" lon="-2.2837480">
        <ele>980.6</ele>
        <time>2019-07-06T10:58:05Z</time>
      </trkpt>
      <trkpt lat="40.7877220" lon="-2.2839220">
        <ele>981.0</ele>
        <time>2019-07-06T10:58:10Z</time>
      </trkpt>
      <trkpt lat="40.7877170" lon="-2.2840330">
        <ele>981.2</ele>
        <time>2019-07-06T10:58:13Z</time>
      </trkpt>
      <trkpt lat="40.7877180" lon="-2.2842210">
        <ele>981.8</ele>
        <time>2019-07-06T10:58:18Z</time>
      </trkpt>
      <trkpt lat="40.7877190" lon="-2.2842990">
        <ele>982.0</ele>
        <time>2019-07-06T10:58:20Z</time>
      </trkpt>
      <trkpt lat="40.7877150" lon="-2.2843750">
        <ele>982.2</ele>
        <time>2019-07-06T10:58:22Z</time>
      </trkpt>
      <trkpt lat="40.7877140" lon="-2.2844140">
        <ele>982.4</ele>
        <time>2019-07-06T10:58:23Z</time>
      </trkpt>
      <trkpt lat="40.7877060" lon="-2.2846590">
        <ele>983.6</ele>
        <time>2019-07-06T10:58:29Z</time>
      </trkpt>
      <trkpt lat="40.7877150" lon="-2.2847800">
        <ele>983.8</ele>
        <time>2019-07-06T10:58:32Z</time>
      </trkpt>
      <trkpt lat="40.7877110" lon="-2.2848640">
        <ele>984.2</ele>
        <time>2019-07-06T10:58:34Z</time>
      </trkpt>
      <trkpt lat="40.7877120" lon="-2.2849420">
        <ele>984.6</ele>
        <time>2019-07-06T10:58:36Z</time>
      </trkpt>
      <trkpt lat="40.7876920" lon="-2.2850470">
        <ele>985.0</ele>
        <time>2019-07-06T10:58:39Z</time>
      </trkpt>
      <trkpt lat="40.7876850" lon="-2.2851820">
        <ele>986.0</ele>
        <time>2019-07-06T10:58:43Z</time>
      </trkpt>
      <trkpt lat="40.7876810" lon="-2.2852140">
        <ele>986.4</ele>
        <time>2019-07-06T10:58:44Z</time>
      </trkpt>
      <trkpt lat="40.7876730" lon="-2.2853480">
        <ele>987.0</ele>
        <time>2019-07-06T10:58:48Z</time>
      </trkpt>
      <trkpt lat="40.7876610" lon="-2.2854100">
        <ele>987.6</ele>
        <time>2019-07-06T10:58:50Z</time>
      </trkpt>
      <trkpt lat="40.7876610" lon="-2.2854400">
        <ele>988.0</ele>
        <time>2019-07-06T10:58:51Z</time>
      </trkpt>
      <trkpt lat="40.7876560" lon="-2.2855600">
        <ele>989.2</ele>
        <time>2019-07-06T10:58:55Z</time>
      </trkpt>
      <trkpt lat="40.7876570" lon="-2.2855900">
        <ele>989.6</ele>
        <time>2019-07-06T10:58:56Z</time>
      </trkpt>
      <trkpt lat="40.7876580" lon="-2.2857120">
        <ele>990.6</ele>
        <time>2019-07-06T10:59:00Z</time>
      </trkpt>
      <trkpt lat="40.7876520" lon="-2.2858010">
        <ele>991.6</ele>
        <time>2019-07-06T10:59:03Z</time>
      </trkpt>
      <trkpt lat="40.7876480" lon="-2.2859200">
        <ele>992.8</ele>
        <time>2019-07-06T10:59:07Z</time>
      </trkpt>
      <trkpt lat="40.7876390" lon="-2.2860200">
        <ele>993.4</ele>
        <time>2019-07-06T10:59:10Z</time>
      </trkpt>
      <trkpt lat="40.7876370" lon="-2.2860880">
        <ele>994.0</ele>
        <time>2019-07-06T10:59:12Z</time>
      </trkpt>
      <trkpt lat="40.7876480" lon="-2.2862280">
        <ele>994.8</ele>
        <time>2019-07-06T10:59:16Z</time>
      </trkpt>
      <trkpt lat="40.7876480" lon="-2.2863020">
        <ele>995.0</ele>
        <time>2019-07-06T10:59:18Z</time>
      </trkpt>
      <trkpt lat="40.7876380" lon="-2.2865190">
        <ele>996.0</ele>
        <time>2019-07-06T10:59:24Z</time>
      </trkpt>
      <trkpt lat="40.7876400" lon="-2.2865550">
        <ele>996.2</ele>
        <time>2019-07-06T10:59:25Z</time>
      </trkpt>
      <trkpt lat="40.7876410" lon="-2.2866250">
        <ele>996.6</ele>
        <time>2019-07-06T10:59:27Z</time>
      </trkpt>
      <trkpt lat="40.7876330" lon="-2.2867670">
        <ele>997.2</ele>
        <time>2019-07-06T10:59:31Z</time>
      </trkpt>
      <trkpt lat="40.7876290" lon="-2.2868010">
        <ele>997.4</ele>
        <time>2019-07-06T10:59:32Z</time>
      </trkpt>
      <trkpt lat="40.7876190" lon="-2.2869810">
        <ele>998.6</ele>
        <time>2019-07-06T10:59:37Z</time>
      </trkpt>
      <trkpt lat="40.7876050" lon="-2.2872310">
        <ele>999.6</ele>
        <time>2019-07-06T10:59:44Z</time>
      </trkpt>
      <trkpt lat="40.7876020" lon="-2.2873060">
        <ele>999.8</ele>
        <time>2019-07-06T10:59:46Z</time>
      </trkpt>
      <trkpt lat="40.7875850" lon="-2.2875120">
        <ele>1000.8</ele>
        <time>2019-07-06T10:59:51Z</time>
      </trkpt>
      <trkpt lat="40.7875650" lon="-2.2877470">
        <ele>1001.8</ele>
        <time>2019-07-06T10:59:56Z</time>
      </trkpt>
      <trkpt lat="40.7875600" lon="-2.2877960">
        <ele>1002.0</ele>
        <time>2019-07-06T10:59:57Z</time>
      </trkpt>
      <trkpt lat="40.7875060" lon="-2.2881120">
        <ele>1002.8</ele>
        <time>2019-07-06T11:00:03Z</time>
      </trkpt>
      <trkpt lat="40.7874730" lon="-2.2883160">
        <ele>1003.0</ele>
        <time>2019-07-06T11:00:07Z</time>
      </trkpt>
      <trkpt lat="40.7874580" lon="-2.2884180">
        <ele>1003.2</ele>
        <time>2019-07-06T11:00:09Z</time>
      </trkpt>
      <trkpt lat="40.7874220" lon="-2.2886720">
        <ele>1004.4</ele>
        <time>2019-07-06T11:00:14Z</time>
      </trkpt>
      <trkpt lat="40.7873770" lon="-2.2888570">
        <ele>1005.2</ele>
        <time>2019-07-06T11:00:18Z</time>
      </trkpt>
      <trkpt lat="40.7873440" lon="-2.2890460">
        <ele>1005.4</ele>
        <time>2019-07-06T11:00:22Z</time>
      </trkpt>
      <trkpt lat="40.7872760" lon="-2.2893450">
        <ele>1006.6</ele>
        <time>2019-07-06T11:00:28Z</time>
      </trkpt>
      <trkpt lat="40.7872710" lon="-2.2893940">
        <ele>1007.0</ele>
        <time>2019-07-06T11:00:29Z</time>
      </trkpt>
      <trkpt lat="40.7872560" lon="-2.2896010">
        <ele>1007.8</ele>
        <time>2019-07-06T11:00:33Z</time>
      </trkpt>
      <trkpt lat="40.7872270" lon="-2.2898740">
        <ele>1008.2</ele>
        <time>2019-07-06T11:00:38Z</time>
      </trkpt>
      <trkpt lat="40.7871550" lon="-2.2900880">
        <ele>1008.4</ele>
        <time>2019-07-06T11:00:42Z</time>
      </trkpt>
      <trkpt lat="40.7870890" lon="-2.2902390">
        <ele>1008.6</ele>
        <time>2019-07-06T11:00:45Z</time>
      </trkpt>
      <trkpt lat="40.7870610" lon="-2.2903440">
        <ele>1008.8</ele>
        <time>2019-07-06T11:00:47Z</time>
      </trkpt>
      <trkpt lat="40.7870410" lon="-2.2905190">
        <ele>1009.4</ele>
        <time>2019-07-06T11:00:50Z</time>
      </trkpt>
      <trkpt lat="40.7870750" lon="-2.2906800">
        <ele>1010.0</ele>
        <time>2019-07-06T11:00:53Z</time>
      </trkpt>
      <trkpt lat="40.7870950" lon="-2.2907250">
        <ele>1010.0</ele>
        <time>2019-07-06T11:00:54Z</time>
      </trkpt>
      <trkpt lat="40.7871820" lon="-2.2908650">
        <ele>1011.4</ele>
        <time>2019-07-06T11:00:58Z</time>
      </trkpt>
      <trkpt lat="40.7872030" lon="-2.2908980">
        <ele>1011.8</ele>
        <time>2019-07-06T11:00:59Z</time>
      </trkpt>
      <trkpt lat="40.7872270" lon="-2.2909290">
        <ele>1012.0</ele>
        <time>2019-07-06T11:01:00Z</time>
      </trkpt>
      <trkpt lat="40.7872860" lon="-2.2910410">
        <ele>1012.6</ele>
        <time>2019-07-06T11:01:03Z</time>
      </trkpt>
      <trkpt lat="40.7873070" lon="-2.2911270">
        <ele>1013.0</ele>
        <time>2019-07-06T11:01:05Z</time>
      </trkpt>
      <trkpt lat="40.7872790" lon="-2.2913340">
        <ele>1013.4</ele>
        <time>2019-07-06T11:01:10Z</time>
      </trkpt>
      <trkpt lat="40.7872550" lon="-2.2914020">
        <ele>1013.8</ele>
        <time>2019-07-06T11:01:12Z</time>
      </trkpt>
      <trkpt lat="40.7872150" lon="-2.2915090">
        <ele>1014.4</ele>
        <time>2019-07-06T11:01:16Z</time>
      </trkpt>
      <trkpt lat="40.7871540" lon="-2.2916280">
        <ele>1014.8</ele>
        <time>2019-07-06T11:01:21Z</time>
      </trkpt>
      <trkpt lat="40.7871410" lon="-2.2916570">
        <ele>1015.0</ele>
        <time>2019-07-06T11:01:22Z</time>
      </trkpt>
      <trkpt lat="40.7870970" lon="-2.2917700">
        <ele>1016.2</ele>
        <time>2019-07-06T11:01:26Z</time>
      </trkpt>
      <trkpt lat="40.7870760" lon="-2.2918320">
        <ele>1016.6</ele>
        <time>2019-07-06T11:01:28Z</time>
      </trkpt>
      <trkpt lat="40.7870460" lon="-2.2919280">
        <ele>1017.4</ele>
        <time>2019-07-06T11:01:31Z</time>
      </trkpt>
      <trkpt lat="40.7870020" lon="-2.2921020">
        <ele>1018.2</ele>
        <time>2019-07-06T11:01:36Z</time>
      </trkpt>
      <trkpt lat="40.7869960" lon="-2.2921760">
        <ele>1018.4</ele>
        <time>2019-07-06T11:01:38Z</time>
      </trkpt>
      <trkpt lat="40.7869890" lon="-2.2923620">
        <ele>1019.0</ele>
        <time>2019-07-06T11:01:43Z</time>
      </trkpt>
      <trkpt lat="40.7869840" lon="-2.2924370">
        <ele>1019.6</ele>
        <time>2019-07-06T11:01:45Z</time>
      </trkpt>
      <trkpt lat="40.7869750" lon="-2.2926260">
        <ele>1020.6</ele>
        <time>2019-07-06T11:01:50Z</time>
      </trkpt>
      <trkpt lat="40.7869650" lon="-2.2926990">
        <ele>1021.0</ele>
        <time>2019-07-06T11:01:52Z</time>
      </trkpt>
      <trkpt lat="40.7869440" lon="-2.2928080">
        <ele>1021.8</ele>
        <time>2019-07-06T11:01:55Z</time>
      </trkpt>
      <trkpt lat="40.7869330" lon="-2.2929960">
        <ele>1022.8</ele>
        <time>2019-07-06T11:02:00Z</time>
      </trkpt>
      <trkpt lat="40.7869320" lon="-2.2930700">
        <ele>1023.0</ele>
        <time>2019-07-06T11:02:02Z</time>
      </trkpt>
      <trkpt lat="40.7869120" lon="-2.2932480">
        <ele>1024.2</ele>
        <time>2019-07-06T11:02:07Z</time>
      </trkpt>
      <trkpt lat="40.7868920" lon="-2.2933390">
        <ele>1025.4</ele>
        <time>2019-07-06T11:02:10Z</time>
      </trkpt>
      <trkpt lat="40.7868200" lon="-2.2935300">
        <ele>1026.8</ele>
        <time>2019-07-06T11:02:17Z</time>
      </trkpt>
      <trkpt lat="40.7868060" lon="-2.2935570">
        <ele>1027.0</ele>
        <time>2019-07-06T11:02:18Z</time>
      </trkpt>
      <trkpt lat="40.7867680" lon="-2.2936330">
        <ele>1027.8</ele>
        <time>2019-07-06T11:02:21Z</time>
      </trkpt>
      <trkpt lat="40.7867220" lon="-2.2937390">
        <ele>1028.8</ele>
        <time>2019-07-06T11:02:25Z</time>
      </trkpt>
      <trkpt lat="40.7865910" lon="-2.2939490">
        <ele>1029.8</ele>
        <time>2019-07-06T11:02:33Z</time>
      </trkpt>
      <trkpt lat="40.7865480" lon="-2.2939990">
        <ele>1030.0</ele>
        <time>2019-07-06T11:02:35Z</time>
      </trkpt>
      <trkpt lat="40.7864350" lon="-2.2941170">
        <ele>1031.0</ele>
        <time>2019-07-06T11:02:40Z</time>
      </trkpt>
      <trkpt lat="40.7864130" lon="-2.2941450">
        <ele>1031.2</ele>
        <time>2019-07-06T11:02:41Z</time>
      </trkpt>
      <trkpt lat="40.7863200" lon="-2.2943450">
        <ele>1032.0</ele>
        <time>2019-07-06T11:02:47Z</time>
      </trkpt>
      <trkpt lat="40.7863080" lon="-2.2943840">
        <ele>1032.2</ele>
        <time>2019-07-06T11:02:48Z</time>
      </trkpt>
      <trkpt lat="40.7862270" lon="-2.2946070">
        <ele>1033.2</ele>
        <time>2019-07-06T11:02:54Z</time>
      </trkpt>
      <trkpt lat="40.7862070" lon="-2.2946390">
        <ele>1033.4</ele>
        <time>2019-07-06T11:02:55Z</time>
      </trkpt>
      <trkpt lat="40.7860150" lon="-2.2948890">
        <ele>1034.4</ele>
        <time>2019-07-06T11:03:03Z</time>
      </trkpt>
      <trkpt lat="40.7859880" lon="-2.2949270">
        <ele>1034.4</ele>
        <time>2019-07-06T11:03:04Z</time>
      </trkpt>
      <trkpt lat="40.7858660" lon="-2.2951480">
        <ele>1035.4</ele>
        <time>2019-07-06T11:03:10Z</time>
      </trkpt>
      <trkpt lat="40.7857650" lon="-2.2954210">
        <ele>1036.2</ele>
        <time>2019-07-06T11:03:16Z</time>
      </trkpt>
      <trkpt lat="40.7856970" lon="-2.2955500">
        <ele>1036.6</ele>
        <time>2019-07-06T11:03:19Z</time>
      </trkpt>
      <trkpt lat="40.7856300" lon="-2.2956860">
        <ele>1037.4</ele>
        <time>2019-07-06T11:03:22Z</time>
      </trkpt>
      <trkpt lat="40.7856090" lon="-2.2957310">
        <ele>1037.8</ele>
        <time>2019-07-06T11:03:23Z</time>
      </trkpt>
      <trkpt lat="40.7855590" lon="-2.2959160">
        <ele>1039.0</ele>
        <time>2019-07-06T11:03:27Z</time>
      </trkpt>
      <trkpt lat="40.7855200" lon="-2.2960910">
        <ele>1040.0</ele>
        <time>2019-07-06T11:03:31Z</time>
      </trkpt>
      <trkpt lat="40.7854930" lon="-2.2962220">
        <ele>1041.0</ele>
        <time>2019-07-06T11:03:34Z</time>
      </trkpt>
      <trkpt lat="40.7854840" lon="-2.2962630">
        <ele>1041.2</ele>
        <time>2019-07-06T11:03:35Z</time>
      </trkpt>
      <trkpt lat="40.7854550" lon="-2.2964400">
        <ele>1042.2</ele>
        <time>2019-07-06T11:03:39Z</time>
      </trkpt>
      <trkpt lat="40.7854290" lon="-2.2966110">
        <ele>1042.6</ele>
        <time>2019-07-06T11:03:43Z</time>
      </trkpt>
      <trkpt lat="40.7854080" lon="-2.2967380">
        <ele>1043.2</ele>
        <time>2019-07-06T11:03:46Z</time>
      </trkpt>
      <trkpt lat="40.7853900" lon="-2.2969150">
        <ele>1044.0</ele>
        <time>2019-07-06T11:03:50Z</time>
      </trkpt>
      <trkpt lat="40.7853880" lon="-2.2969990">
        <ele>1044.4</ele>
        <time>2019-07-06T11:03:52Z</time>
      </trkpt>
      <trkpt lat="40.7853800" lon="-2.2971750">
        <ele>1045.4</ele>
        <time>2019-07-06T11:03:56Z</time>
      </trkpt>
      <trkpt lat="40.7853770" lon="-2.2974670">
        <ele>1046.4</ele>
        <time>2019-07-06T11:04:02Z</time>
      </trkpt>
      <trkpt lat="40.7853800" lon="-2.2975150">
        <ele>1046.8</ele>
        <time>2019-07-06T11:04:03Z</time>
      </trkpt>
      <trkpt lat="40.7853380" lon="-2.2977420">
        <ele>1047.2</ele>
        <time>2019-07-06T11:04:08Z</time>
      </trkpt>
      <trkpt lat="40.7852180" lon="-2.2978410">
        <ele>1046.6</ele>
        <time>2019-07-06T11:04:12Z</time>
      </trkpt>
      <trkpt lat="40.7851810" lon="-2.2978670">
        <ele>1046.0</ele>
        <time>2019-07-06T11:04:13Z</time>
      </trkpt>
      <trkpt lat="40.7851480" lon="-2.2979000">
        <ele>1045.2</ele>
        <time>2019-07-06T11:04:14Z</time>
      </trkpt>
      <trkpt lat="40.7851070" lon="-2.2979900">
        <ele>1044.0</ele>
        <time>2019-07-06T11:04:16Z</time>
      </trkpt>
      <trkpt lat="40.7851010" lon="-2.2981040">
        <ele>1042.8</ele>
        <time>2019-07-06T11:04:18Z</time>
      </trkpt>
      <trkpt lat="40.7851070" lon="-2.2981590">
        <ele>1041.8</ele>
        <time>2019-07-06T11:04:19Z</time>
      </trkpt>
      <trkpt lat="40.7851140" lon="-2.2982120">
        <ele>1041.0</ele>
        <time>2019-07-06T11:04:20Z</time>
      </trkpt>
      <trkpt lat="40.7851300" lon="-2.2983260">
        <ele>1039.8</ele>
        <time>2019-07-06T11:04:22Z</time>
      </trkpt>
      <trkpt lat="40.7851480" lon="-2.2984480">
        <ele>1038.4</ele>
        <time>2019-07-06T11:04:24Z</time>
      </trkpt>
      <trkpt lat="40.7851780" lon="-2.2986340">
        <ele>1036.8</ele>
        <time>2019-07-06T11:04:27Z</time>
      </trkpt>
      <trkpt lat="40.7852090" lon="-2.2987510">
        <ele>1035.6</ele>
        <time>2019-07-06T11:04:29Z</time>
      </trkpt>
      <trkpt lat="40.7852200" lon="-2.2988030">
        <ele>1035.2</ele>
        <time>2019-07-06T11:04:30Z</time>
      </trkpt>
      <trkpt lat="40.7852220" lon="-2.2988470">
        <ele>1034.6</ele>
        <time>2019-07-06T11:04:31Z</time>
      </trkpt>
      <trkpt lat="40.7852120" lon="-2.2988800">
        <ele>1034.2</ele>
        <time>2019-07-06T11:04:32Z</time>
      </trkpt>
      <trkpt lat="40.7851910" lon="-2.2989000">
        <ele>1033.8</ele>
        <time>2019-07-06T11:04:33Z</time>
      </trkpt>
      <trkpt lat="40.7851630" lon="-2.2989020">
        <ele>1033.2</ele>
        <time>2019-07-06T11:04:34Z</time>
      </trkpt>
      <trkpt lat="40.7851340" lon="-2.2988800">
        <ele>1032.8</ele>
        <time>2019-07-06T11:04:35Z</time>
      </trkpt>
      <trkpt lat="40.7850730" lon="-2.2987860">
        <ele>1031.8</ele>
        <time>2019-07-06T11:04:37Z</time>
      </trkpt>
      <trkpt lat="40.7850440" lon="-2.2987220">
        <ele>1031.4</ele>
        <time>2019-07-06T11:04:38Z</time>
      </trkpt>
      <trkpt lat="40.7850130" lon="-2.2986610">
        <ele>1031.2</ele>
        <time>2019-07-06T11:04:39Z</time>
      </trkpt>
      <trkpt lat="40.7849410" lon="-2.2985710">
        <ele>1030.6</ele>
        <time>2019-07-06T11:04:41Z</time>
      </trkpt>
      <trkpt lat="40.7849000" lon="-2.2985470">
        <ele>1029.6</ele>
        <time>2019-07-06T11:04:42Z</time>
      </trkpt>
      <trkpt lat="40.7848610" lon="-2.2985450">
        <ele>1028.8</ele>
        <time>2019-07-06T11:04:43Z</time>
      </trkpt>
      <trkpt lat="40.7847960" lon="-2.2985800">
        <ele>1027.4</ele>
        <time>2019-07-06T11:04:45Z</time>
      </trkpt>
      <trkpt lat="40.7847480" lon="-2.2986580">
        <ele>1026.2</ele>
        <time>2019-07-06T11:04:47Z</time>
      </trkpt>
      <trkpt lat="40.7846850" lon="-2.2987510">
        <ele>1025.2</ele>
        <time>2019-07-06T11:04:49Z</time>
      </trkpt>
      <trkpt lat="40.7846450" lon="-2.2987980">
        <ele>1024.8</ele>
        <time>2019-07-06T11:04:50Z</time>
      </trkpt>
      <trkpt lat="40.7846020" lon="-2.2988410">
        <ele>1024.4</ele>
        <time>2019-07-06T11:04:51Z</time>
      </trkpt>
      <trkpt lat="40.7845060" lon="-2.2989160">
        <ele>1022.2</ele>
        <time>2019-07-06T11:04:53Z</time>
      </trkpt>
      <trkpt lat="40.7844550" lon="-2.2989520">
        <ele>1021.2</ele>
        <time>2019-07-06T11:04:54Z</time>
      </trkpt>
      <trkpt lat="40.7844010" lon="-2.2989880">
        <ele>1020.2</ele>
        <time>2019-07-06T11:04:55Z</time>
      </trkpt>
      <trkpt lat="40.7842870" lon="-2.2990590">
        <ele>1018.4</ele>
        <time>2019-07-06T11:04:57Z</time>
      </trkpt>
      <trkpt lat="40.7842320" lon="-2.2990970">
        <ele>1017.2</ele>
        <time>2019-07-06T11:04:58Z</time>
      </trkpt>
      <trkpt lat="40.7841780" lon="-2.2991400">
        <ele>1016.2</ele>
        <time>2019-07-06T11:04:59Z</time>
      </trkpt>
      <trkpt lat="40.7841250" lon="-2.2991790">
        <ele>1014.8</ele>
        <time>2019-07-06T11:05:00Z</time>
      </trkpt>
      <trkpt lat="40.7840200" lon="-2.2992540">
        <ele>1013.4</ele>
        <time>2019-07-06T11:05:02Z</time>
      </trkpt>
      <trkpt lat="40.7839000" lon="-2.2993190">
        <ele>1012.0</ele>
        <time>2019-07-06T11:05:04Z</time>
      </trkpt>
      <trkpt lat="40.7838410" lon="-2.2993490">
        <ele>1011.6</ele>
        <time>2019-07-06T11:05:05Z</time>
      </trkpt>
      <trkpt lat="40.7837860" lon="-2.2993740">
        <ele>1011.0</ele>
        <time>2019-07-06T11:05:06Z</time>
      </trkpt>
      <trkpt lat="40.7837310" lon="-2.2993980">
        <ele>1010.0</ele>
        <time>2019-07-06T11:05:07Z</time>
      </trkpt>
      <trkpt lat="40.7836740" lon="-2.2994220">
        <ele>1008.8</ele>
        <time>2019-07-06T11:05:08Z</time>
      </trkpt>
      <trkpt lat="40.7835610" lon="-2.2994560">
        <ele>1007.4</ele>
        <time>2019-07-06T11:05:10Z</time>
      </trkpt>
      <trkpt lat="40.7835020" lon="-2.2994700">
        <ele>1006.8</ele>
        <time>2019-07-06T11:05:11Z</time>
      </trkpt>
      <trkpt lat="40.7834410" lon="-2.2994820">
        <ele>1005.8</ele>
        <time>2019-07-06T11:05:12Z</time>
      </trkpt>
      <trkpt lat="40.7833200" lon="-2.2994990">
        <ele>1004.4</ele>
        <time>2019-07-06T11:05:14Z</time>
      </trkpt>
      <trkpt lat="40.7832030" lon="-2.2995120">
        <ele>1002.4</ele>
        <time>2019-07-06T11:05:16Z</time>
      </trkpt>
      <trkpt lat="40.7831510" lon="-2.2995110">
        <ele>1001.4</ele>
        <time>2019-07-06T11:05:17Z</time>
      </trkpt>
      <trkpt lat="40.7830350" lon="-2.2995100">
        <ele>999.6</ele>
        <time>2019-07-06T11:05:19Z</time>
      </trkpt>
      <trkpt lat="40.7829730" lon="-2.2995020">
        <ele>999.0</ele>
        <time>2019-07-06T11:05:20Z</time>
      </trkpt>
      <trkpt lat="40.7829100" lon="-2.2994850">
        <ele>998.2</ele>
        <time>2019-07-06T11:05:21Z</time>
      </trkpt>
      <trkpt lat="40.7827870" lon="-2.2994350">
        <ele>996.8</ele>
        <time>2019-07-06T11:05:23Z</time>
      </trkpt>
      <trkpt lat="40.7827320" lon="-2.2994080">
        <ele>995.6</ele>
        <time>2019-07-06T11:05:24Z</time>
      </trkpt>
      <trkpt lat="40.7826770" lon="-2.2993910">
        <ele>994.8</ele>
        <time>2019-07-06T11:05:25Z</time>
      </trkpt>
      <trkpt lat="40.7826260" lon="-2.2993850">
        <ele>993.8</ele>
        <time>2019-07-06T11:05:26Z</time>
      </trkpt>
      <trkpt lat="40.7825050" lon="-2.2993830">
        <ele>992.4</ele>
        <time>2019-07-06T11:05:28Z</time>
      </trkpt>
      <trkpt lat="40.7823770" lon="-2.2993870">
        <ele>991.0</ele>
        <time>2019-07-06T11:05:30Z</time>
      </trkpt>
      <trkpt lat="40.7823200" lon="-2.2993840">
        <ele>990.0</ele>
        <time>2019-07-06T11:05:31Z</time>
      </trkpt>
      <trkpt lat="40.7822660" lon="-2.2993750">
        <ele>988.8</ele>
        <time>2019-07-06T11:05:32Z</time>
      </trkpt>
      <trkpt lat="40.7821650" lon="-2.2993570">
        <ele>987.4</ele>
        <time>2019-07-06T11:05:34Z</time>
      </trkpt>
      <trkpt lat="40.7821210" lon="-2.2993560">
        <ele>986.8</ele>
        <time>2019-07-06T11:05:35Z</time>
      </trkpt>
      <trkpt lat="40.7820280" lon="-2.2993920">
        <ele>986.0</ele>
        <time>2019-07-06T11:05:37Z</time>
      </trkpt>
      <trkpt lat="40.7819840" lon="-2.2994260">
        <ele>985.4</ele>
        <time>2019-07-06T11:05:38Z</time>
      </trkpt>
      <trkpt lat="40.7819170" lon="-2.2995330">
        <ele>984.4</ele>
        <time>2019-07-06T11:05:40Z</time>
      </trkpt>
      <trkpt lat="40.7818890" lon="-2.2995910">
        <ele>983.8</ele>
        <time>2019-07-06T11:05:41Z</time>
      </trkpt>
      <trkpt lat="40.7818590" lon="-2.2996470">
        <ele>983.2</ele>
        <time>2019-07-06T11:05:42Z</time>
      </trkpt>
      <trkpt lat="40.7818030" lon="-2.2997520">
        <ele>982.0</ele>
        <time>2019-07-06T11:05:44Z</time>
      </trkpt>
      <trkpt lat="40.7817180" lon="-2.2998480">
        <ele>980.8</ele>
        <time>2019-07-06T11:05:46Z</time>
      </trkpt>
      <trkpt lat="40.7816040" lon="-2.2999420">
        <ele>979.6</ele>
        <time>2019-07-06T11:05:48Z</time>
      </trkpt>
      <trkpt lat="40.7815480" lon="-2.2999950">
        <ele>978.4</ele>
        <time>2019-07-06T11:05:49Z</time>
      </trkpt>
      <trkpt lat="40.7814970" lon="-2.3000440">
        <ele>977.6</ele>
        <time>2019-07-06T11:05:50Z</time>
      </trkpt>
      <trkpt lat="40.7814480" lon="-2.3000910">
        <ele>976.8</ele>
        <time>2019-07-06T11:05:51Z</time>
      </trkpt>
      <trkpt lat="40.7814060" lon="-2.3001430">
        <ele>975.8</ele>
        <time>2019-07-06T11:05:52Z</time>
      </trkpt>
      <trkpt lat="40.7813680" lon="-2.3001960">
        <ele>974.2</ele>
        <time>2019-07-06T11:05:53Z</time>
      </trkpt>
      <trkpt lat="40.7813350" lon="-2.3002530">
        <ele>972.8</ele>
        <time>2019-07-06T11:05:54Z</time>
      </trkpt>
      <trkpt lat="40.7813030" lon="-2.3003190">
        <ele>971.8</ele>
        <time>2019-07-06T11:05:55Z</time>
      </trkpt>
      <trkpt lat="40.7812710" lon="-2.3003880">
        <ele>970.8</ele>
        <time>2019-07-06T11:05:56Z</time>
      </trkpt>
      <trkpt lat="40.7812480" lon="-2.3004640">
        <ele>970.0</ele>
        <time>2019-07-06T11:05:57Z</time>
      </trkpt>
      <trkpt lat="40.7812350" lon="-2.3005480">
        <ele>969.6</ele>
        <time>2019-07-06T11:05:58Z</time>
      </trkpt>
      <trkpt lat="40.7812300" lon="-2.3006300">
        <ele>969.2</ele>
        <time>2019-07-06T11:05:59Z</time>
      </trkpt>
      <trkpt lat="40.7813020" lon="-2.3009260">
        <ele>968.8</ele>
        <time>2019-07-06T11:06:03Z</time>
      </trkpt>
      <trkpt lat="40.7814870" lon="-2.3011050">
        <ele>968.8</ele>
        <time>2019-07-06T11:06:07Z</time>
      </trkpt>
      <trkpt lat="40.7815390" lon="-2.3011360">
        <ele>968.6</ele>
        <time>2019-07-06T11:06:08Z</time>
      </trkpt>
      <trkpt lat="40.7817920" lon="-2.3012590">
        <ele>968.0</ele>
        <time>2019-07-06T11:06:12Z</time>
      </trkpt>
      <trkpt lat="40.7818570" lon="-2.3012920">
        <ele>967.6</ele>
        <time>2019-07-06T11:06:13Z</time>
      </trkpt>
      <trkpt lat="40.7820680" lon="-2.3014040">
        <ele>966.6</ele>
        <time>2019-07-06T11:06:16Z</time>
      </trkpt>
      <trkpt lat="40.7821430" lon="-2.3014480">
        <ele>966.0</ele>
        <time>2019-07-06T11:06:17Z</time>
      </trkpt>
      <trkpt lat="40.7822940" lon="-2.3015440">
        <ele>965.2</ele>
        <time>2019-07-06T11:06:19Z</time>
      </trkpt>
      <trkpt lat="40.7824480" lon="-2.3016290">
        <ele>964.4</ele>
        <time>2019-07-06T11:06:21Z</time>
      </trkpt>
      <trkpt lat="40.7825120" lon="-2.3016660">
        <ele>964.0</ele>
        <time>2019-07-06T11:06:22Z</time>
      </trkpt>
      <trkpt lat="40.7825790" lon="-2.3016990">
        <ele>963.4</ele>
        <time>2019-07-06T11:06:23Z</time>
      </trkpt>
      <trkpt lat="40.7826430" lon="-2.3017290">
        <ele>962.8</ele>
        <time>2019-07-06T11:06:24Z</time>
      </trkpt>
      <trkpt lat="40.7828310" lon="-2.3018180">
        <ele>961.6</ele>
        <time>2019-07-06T11:06:27Z</time>
      </trkpt>
      <trkpt lat="40.7829630" lon="-2.3018740">
        <ele>960.6</ele>
        <time>2019-07-06T11:06:29Z</time>
      </trkpt>
      <trkpt lat="40.7830780" lon="-2.3019180">
        <ele>959.2</ele>
        <time>2019-07-06T11:06:31Z</time>
      </trkpt>
      <trkpt lat="40.7831320" lon="-2.3019360">
        <ele>958.6</ele>
        <time>2019-07-06T11:06:32Z</time>
      </trkpt>
      <trkpt lat="40.7831840" lon="-2.3019450">
        <ele>957.8</ele>
        <time>2019-07-06T11:06:33Z</time>
      </trkpt>
      <trkpt lat="40.7832410" lon="-2.3019610">
        <ele>957.2</ele>
        <time>2019-07-06T11:06:34Z</time>
      </trkpt>
      <trkpt lat="40.7833010" lon="-2.3019810">
        <ele>956.6</ele>
        <time>2019-07-06T11:06:35Z</time>
      </trkpt>
      <trkpt lat="40.7833710" lon="-2.3020130">
        <ele>956.0</ele>
        <time>2019-07-06T11:06:36Z</time>
      </trkpt>
      <trkpt lat="40.7834430" lon="-2.3020510">
        <ele>955.4</ele>
        <time>2019-07-06T11:06:37Z</time>
      </trkpt>
      <trkpt lat="40.7836440" lon="-2.3021670">
        <ele>953.8</ele>
        <time>2019-07-06T11:06:40Z</time>
      </trkpt>
      <trkpt lat="40.7836990" lon="-2.3021970">
        <ele>952.6</ele>
        <time>2019-07-06T11:06:41Z</time>
      </trkpt>
      <trkpt lat="40.7837500" lon="-2.3022220">
        <ele>951.6</ele>
        <time>2019-07-06T11:06:42Z</time>
      </trkpt>
      <trkpt lat="40.7838610" lon="-2.3022410">
        <ele>949.8</ele>
        <time>2019-07-06T11:06:44Z</time>
      </trkpt>
      <trkpt lat="40.7839210" lon="-2.3022360">
        <ele>949.4</ele>
        <time>2019-07-06T11:06:45Z</time>
      </trkpt>
      <trkpt lat="40.7840330" lon="-2.3022100">
        <ele>948.6</ele>
        <time>2019-07-06T11:06:47Z</time>
      </trkpt>
      <trkpt lat="40.7840810" lon="-2.3021900">
        <ele>948.4</ele>
        <time>2019-07-06T11:06:48Z</time>
      </trkpt>
      <trkpt lat="40.7841710" lon="-2.3021540">
        <ele>947.4</ele>
        <time>2019-07-06T11:06:50Z</time>
      </trkpt>
      <trkpt lat="40.7843020" lon="-2.3020910">
        <ele>946.0</ele>
        <time>2019-07-06T11:06:53Z</time>
      </trkpt>
      <trkpt lat="40.7843730" lon="-2.3020480">
        <ele>944.6</ele>
        <time>2019-07-06T11:06:55Z</time>
      </trkpt>
      <trkpt lat="40.7844350" lon="-2.3019910">
        <ele>943.6</ele>
        <time>2019-07-06T11:06:57Z</time>
      </trkpt>
      <trkpt lat="40.7845050" lon="-2.3019170">
        <ele>942.4</ele>
        <time>2019-07-06T11:06:59Z</time>
      </trkpt>
      <trkpt lat="40.7845430" lon="-2.3018680">
        <ele>941.6</ele>
        <time>2019-07-06T11:07:00Z</time>
      </trkpt>
      <trkpt lat="40.7845820" lon="-2.3018210">
        <ele>941.0</ele>
        <time>2019-07-06T11:07:01Z</time>
      </trkpt>
      <trkpt lat="40.7846830" lon="-2.3017560">
        <ele>940.2</ele>
        <time>2019-07-06T11:07:03Z</time>
      </trkpt>
      <trkpt lat="40.7847370" lon="-2.3017370">
        <ele>939.6</ele>
        <time>2019-07-06T11:07:04Z</time>
      </trkpt>
      <trkpt lat="40.7848510" lon="-2.3017440">
        <ele>938.8</ele>
        <time>2019-07-06T11:07:06Z</time>
      </trkpt>
      <trkpt lat="40.7848980" lon="-2.3017710">
        <ele>938.4</ele>
        <time>2019-07-06T11:07:07Z</time>
      </trkpt>
      <trkpt lat="40.7849800" lon="-2.3018580">
        <ele>937.0</ele>
        <time>2019-07-06T11:07:09Z</time>
      </trkpt>
      <trkpt lat="40.7850030" lon="-2.3019250">
        <ele>936.2</ele>
        <time>2019-07-06T11:07:10Z</time>
      </trkpt>
      <trkpt lat="40.7850280" lon="-2.3020040">
        <ele>935.6</ele>
        <time>2019-07-06T11:07:11Z</time>
      </trkpt>
      <trkpt lat="40.7850770" lon="-2.3021670">
        <ele>935.0</ele>
        <time>2019-07-06T11:07:13Z</time>
      </trkpt>
      <trkpt lat="40.7851080" lon="-2.3022400">
        <ele>934.4</ele>
        <time>2019-07-06T11:07:14Z</time>
      </trkpt>
      <trkpt lat="40.7851730" lon="-2.3023870">
        <ele>933.0</ele>
        <time>2019-07-06T11:07:16Z</time>
      </trkpt>
      <trkpt lat="40.7852450" lon="-2.3025390">
        <ele>931.8</ele>
        <time>2019-07-06T11:07:18Z</time>
      </trkpt>
      <trkpt lat="40.7853110" lon="-2.3027160">
        <ele>930.6</ele>
        <time>2019-07-06T11:07:20Z</time>
      </trkpt>
      <trkpt lat="40.7853850" lon="-2.3028950">
        <ele>929.2</ele>
        <time>2019-07-06T11:07:22Z</time>
      </trkpt>
      <trkpt lat="40.7854180" lon="-2.3029730">
        <ele>928.6</ele>
        <time>2019-07-06T11:07:23Z</time>
      </trkpt>
      <trkpt lat="40.7854450" lon="-2.3030490">
        <ele>928.0</ele>
        <time>2019-07-06T11:07:24Z</time>
      </trkpt>
      <trkpt lat="40.7854780" lon="-2.3031990">
        <ele>927.2</ele>
        <time>2019-07-06T11:07:26Z</time>
      </trkpt>
      <trkpt lat="40.7854830" lon="-2.3032760">
        <ele>926.8</ele>
        <time>2019-07-06T11:07:27Z</time>
      </trkpt>
      <trkpt lat="40.7854670" lon="-2.3036120">
        <ele>926.4</ele>
        <time>2019-07-06T11:07:32Z</time>
      </trkpt>
      <trkpt lat="40.7855070" lon="-2.3037440">
        <ele>926.4</ele>
        <time>2019-07-06T11:07:35Z</time>
      </trkpt>
      <trkpt lat="40.7855360" lon="-2.3037690">
        <ele>926.2</ele>
        <time>2019-07-06T11:07:36Z</time>
      </trkpt>
      <trkpt lat="40.7856690" lon="-2.3038000">
        <ele>926.2</ele>
        <time>2019-07-06T11:07:39Z</time>
      </trkpt>
      <trkpt lat="40.7857120" lon="-2.3037720">
        <ele>926.0</ele>
        <time>2019-07-06T11:07:40Z</time>
      </trkpt>
      <trkpt lat="40.7857880" lon="-2.3036780">
        <ele>925.4</ele>
        <time>2019-07-06T11:07:42Z</time>
      </trkpt>
      <trkpt lat="40.7858300" lon="-2.3036220">
        <ele>924.8</ele>
        <time>2019-07-06T11:07:43Z</time>
      </trkpt>
      <trkpt lat="40.7858740" lon="-2.3035630">
        <ele>924.4</ele>
        <time>2019-07-06T11:07:44Z</time>
      </trkpt>
      <trkpt lat="40.7859080" lon="-2.3035000">
        <ele>924.0</ele>
        <time>2019-07-06T11:07:45Z</time>
      </trkpt>
      <trkpt lat="40.7859370" lon="-2.3034340">
        <ele>923.2</ele>
        <time>2019-07-06T11:07:46Z</time>
      </trkpt>
      <trkpt lat="40.7859610" lon="-2.3033660">
        <ele>922.4</ele>
        <time>2019-07-06T11:07:47Z</time>
      </trkpt>
      <trkpt lat="40.7859810" lon="-2.3032940">
        <ele>921.4</ele>
        <time>2019-07-06T11:07:48Z</time>
      </trkpt>
      <trkpt lat="40.7860010" lon="-2.3032180">
        <ele>920.8</ele>
        <time>2019-07-06T11:07:49Z</time>
      </trkpt>
      <trkpt lat="40.7860170" lon="-2.3031420">
        <ele>920.4</ele>
        <time>2019-07-06T11:07:50Z</time>
      </trkpt>
      <trkpt lat="40.7860260" lon="-2.3030660">
        <ele>919.8</ele>
        <time>2019-07-06T11:07:51Z</time>
      </trkpt>
      <trkpt lat="40.7860290" lon="-2.3029890">
        <ele>919.4</ele>
        <time>2019-07-06T11:07:52Z</time>
      </trkpt>
      <trkpt lat="40.7860280" lon="-2.3029150">
        <ele>918.6</ele>
        <time>2019-07-06T11:07:53Z</time>
      </trkpt>
      <trkpt lat="40.7860040" lon="-2.3027680">
        <ele>917.2</ele>
        <time>2019-07-06T11:07:55Z</time>
      </trkpt>
      <trkpt lat="40.7859860" lon="-2.3026890">
        <ele>916.8</ele>
        <time>2019-07-06T11:07:56Z</time>
      </trkpt>
      <trkpt lat="40.7859740" lon="-2.3026090">
        <ele>916.6</ele>
        <time>2019-07-06T11:07:57Z</time>
      </trkpt>
      <trkpt lat="40.7859660" lon="-2.3025350">
        <ele>916.2</ele>
        <time>2019-07-06T11:07:58Z</time>
      </trkpt>
      <trkpt lat="40.7859600" lon="-2.3024150">
        <ele>915.6</ele>
        <time>2019-07-06T11:08:00Z</time>
      </trkpt>
      <trkpt lat="40.7859640" lon="-2.3023590">
        <ele>915.0</ele>
        <time>2019-07-06T11:08:01Z</time>
      </trkpt>
      <trkpt lat="40.7860170" lon="-2.3022510">
        <ele>914.4</ele>
        <time>2019-07-06T11:08:03Z</time>
      </trkpt>
      <trkpt lat="40.7860680" lon="-2.3022070">
        <ele>913.4</ele>
        <time>2019-07-06T11:08:04Z</time>
      </trkpt>
      <trkpt lat="40.7861260" lon="-2.3021640">
        <ele>912.8</ele>
        <time>2019-07-06T11:08:05Z</time>
      </trkpt>
      <trkpt lat="40.7861840" lon="-2.3021210">
        <ele>912.2</ele>
        <time>2019-07-06T11:08:06Z</time>
      </trkpt>
      <trkpt lat="40.7862440" lon="-2.3020820">
        <ele>911.6</ele>
        <time>2019-07-06T11:08:07Z</time>
      </trkpt>
      <trkpt lat="40.7863010" lon="-2.3020430">
        <ele>911.0</ele>
        <time>2019-07-06T11:08:08Z</time>
      </trkpt>
      <trkpt lat="40.7864160" lon="-2.3019740">
        <ele>910.0</ele>
        <time>2019-07-06T11:08:10Z</time>
      </trkpt>
      <trkpt lat="40.7864750" lon="-2.3019360">
        <ele>909.2</ele>
        <time>2019-07-06T11:08:11Z</time>
      </trkpt>
      <trkpt lat="40.7865250" lon="-2.3018980">
        <ele>908.4</ele>
        <time>2019-07-06T11:08:12Z</time>
      </trkpt>
      <trkpt lat="40.7865780" lon="-2.3018620">
        <ele>907.8</ele>
        <time>2019-07-06T11:08:13Z</time>
      </trkpt>
      <trkpt lat="40.7866340" lon="-2.3018260">
        <ele>907.2</ele>
        <time>2019-07-06T11:08:14Z</time>
      </trkpt>
      <trkpt lat="40.7866880" lon="-2.3017860">
        <ele>906.6</ele>
        <time>2019-07-06T11:08:15Z</time>
      </trkpt>
      <trkpt lat="40.7867400" lon="-2.3017390">
        <ele>905.4</ele>
        <time>2019-07-06T11:08:16Z</time>
      </trkpt>
      <trkpt lat="40.7868300" lon="-2.3016280">
        <ele>903.6</ele>
        <time>2019-07-06T11:08:18Z</time>
      </trkpt>
      <trkpt lat="40.7868670" lon="-2.3015660">
        <ele>903.0</ele>
        <time>2019-07-06T11:08:19Z</time>
      </trkpt>
      <trkpt lat="40.7869030" lon="-2.3015030">
        <ele>902.4</ele>
        <time>2019-07-06T11:08:20Z</time>
      </trkpt>
      <trkpt lat="40.7869350" lon="-2.3014380">
        <ele>902.0</ele>
        <time>2019-07-06T11:08:21Z</time>
      </trkpt>
      <trkpt lat="40.7869670" lon="-2.3013640">
        <ele>901.4</ele>
        <time>2019-07-06T11:08:22Z</time>
      </trkpt>
      <trkpt lat="40.7870330" lon="-2.3012190">
        <ele>900.0</ele>
        <time>2019-07-06T11:08:24Z</time>
      </trkpt>
      <trkpt lat="40.7870840" lon="-2.3010930">
        <ele>899.0</ele>
        <time>2019-07-06T11:08:26Z</time>
      </trkpt>
      <trkpt lat="40.7871140" lon="-2.3010250">
        <ele>897.8</ele>
        <time>2019-07-06T11:08:27Z</time>
      </trkpt>
      <trkpt lat="40.7871510" lon="-2.3009470">
        <ele>896.6</ele>
        <time>2019-07-06T11:08:28Z</time>
      </trkpt>
      <trkpt lat="40.7871950" lon="-2.3008670">
        <ele>896.0</ele>
        <time>2019-07-06T11:08:29Z</time>
      </trkpt>
      <trkpt lat="40.7872470" lon="-2.3007910">
        <ele>895.2</ele>
        <time>2019-07-06T11:08:30Z</time>
      </trkpt>
      <trkpt lat="40.7873730" lon="-2.3006760">
        <ele>893.6</ele>
        <time>2019-07-06T11:08:32Z</time>
      </trkpt>
      <trkpt lat="40.7874970" lon="-2.3006060">
        <ele>892.2</ele>
        <time>2019-07-06T11:08:34Z</time>
      </trkpt>
      <trkpt lat="40.7876100" lon="-2.3005330">
        <ele>891.4</ele>
        <time>2019-07-06T11:08:36Z</time>
      </trkpt>
      <trkpt lat="40.7876690" lon="-2.3004830">
        <ele>891.0</ele>
        <time>2019-07-06T11:08:37Z</time>
      </trkpt>
      <trkpt lat="40.7877860" lon="-2.3003450">
        <ele>889.2</ele>
        <time>2019-07-06T11:08:39Z</time>
      </trkpt>
      <trkpt lat="40.7878430" lon="-2.3002650">
        <ele>888.0</ele>
        <time>2019-07-06T11:08:40Z</time>
      </trkpt>
      <trkpt lat="40.7879490" lon="-2.3000960">
        <ele>886.8</ele>
        <time>2019-07-06T11:08:42Z</time>
      </trkpt>
      <trkpt lat="40.7880040" lon="-2.3000110">
        <ele>886.6</ele>
        <time>2019-07-06T11:08:43Z</time>
      </trkpt>
      <trkpt lat="40.7881130" lon="-2.2998350">
        <ele>885.6</ele>
        <time>2019-07-06T11:08:45Z</time>
      </trkpt>
      <trkpt lat="40.7882690" lon="-2.2995900">
        <ele>885.0</ele>
        <time>2019-07-06T11:08:48Z</time>
      </trkpt>
      <trkpt lat="40.7883730" lon="-2.2994560">
        <ele>884.4</ele>
        <time>2019-07-06T11:08:50Z</time>
      </trkpt>
      <trkpt lat="40.7884350" lon="-2.2993980">
        <ele>884.0</ele>
        <time>2019-07-06T11:08:51Z</time>
      </trkpt>
      <trkpt lat="40.7885050" lon="-2.2993450">
        <ele>883.4</ele>
        <time>2019-07-06T11:08:52Z</time>
      </trkpt>
      <trkpt lat="40.7887440" lon="-2.2992730">
        <ele>882.0</ele>
        <time>2019-07-06T11:08:55Z</time>
      </trkpt>
      <trkpt lat="40.7888990" lon="-2.2992680">
        <ele>880.8</ele>
        <time>2019-07-06T11:08:57Z</time>
      </trkpt>
      <trkpt lat="40.7890540" lon="-2.2992710">
        <ele>879.6</ele>
        <time>2019-07-06T11:08:59Z</time>
      </trkpt>
      <trkpt lat="40.7891290" lon="-2.2992760">
        <ele>878.6</ele>
        <time>2019-07-06T11:09:00Z</time>
      </trkpt>
      <trkpt lat="40.7892030" lon="-2.2992880">
        <ele>877.8</ele>
        <time>2019-07-06T11:09:01Z</time>
      </trkpt>
      <trkpt lat="40.7893290" lon="-2.2993350">
        <ele>876.4</ele>
        <time>2019-07-06T11:09:03Z</time>
      </trkpt>
      <trkpt lat="40.7893800" lon="-2.2993680">
        <ele>875.8</ele>
        <time>2019-07-06T11:09:04Z</time>
      </trkpt>
      <trkpt lat="40.7894620" lon="-2.2994550">
        <ele>875.4</ele>
        <time>2019-07-06T11:09:06Z</time>
      </trkpt>
      <trkpt lat="40.7895210" lon="-2.2995380">
        <ele>875.2</ele>
        <time>2019-07-06T11:09:08Z</time>
      </trkpt>
      <trkpt lat="40.7895500" lon="-2.2995750">
        <ele>875.2</ele>
        <time>2019-07-06T11:09:09Z</time>
      </trkpt>
      <trkpt lat="40.7895950" lon="-2.2996450">
        <ele>875.4</ele>
        <time>2019-07-06T11:09:11Z</time>
      </trkpt>
      <trkpt lat="40.7896300" lon="-2.2997010">
        <ele>875.8</ele>
        <time>2019-07-06T11:09:13Z</time>
      </trkpt>
      <trkpt lat="40.7896610" lon="-2.2997440">
        <ele>876.2</ele>
        <time>2019-07-06T11:09:15Z</time>
      </trkpt>
      <trkpt lat="40.7896750" lon="-2.2997650">
        <ele>876.8</ele>
        <time>2019-07-06T11:09:16Z</time>
      </trkpt>
      <trkpt lat="40.7897000" lon="-2.2998120">
        <ele>877.2</ele>
        <time>2019-07-06T11:09:18Z</time>
      </trkpt>
      <trkpt lat="40.7897160" lon="-2.2998750">
        <ele>877.4</ele>
        <time>2019-07-06T11:09:20Z</time>
      </trkpt>
      <trkpt lat="40.7897310" lon="-2.2999440">
        <ele>878.0</ele>
        <time>2019-07-06T11:09:22Z</time>
      </trkpt>
      <trkpt lat="40.7897590" lon="-2.3000360">
        <ele>878.4</ele>
        <time>2019-07-06T11:09:25Z</time>
      </trkpt>
      <trkpt lat="40.7897650" lon="-2.3000710">
        <ele>878.6</ele>
        <time>2019-07-06T11:09:26Z</time>
      </trkpt>
      <trkpt lat="40.7897820" lon="-2.3001570">
        <ele>879.2</ele>
        <time>2019-07-06T11:09:29Z</time>
      </trkpt>
      <trkpt lat="40.7897910" lon="-2.3002230">
        <ele>879.6</ele>
        <time>2019-07-06T11:09:31Z</time>
      </trkpt>
      <trkpt lat="40.7898110" lon="-2.3003880">
        <ele>880.4</ele>
        <time>2019-07-06T11:09:36Z</time>
      </trkpt>
      <trkpt lat="40.7898250" lon="-2.3004760">
        <ele>880.8</ele>
        <time>2019-07-06T11:09:39Z</time>
      </trkpt>
      <trkpt lat="40.7898310" lon="-2.3005030">
        <ele>881.0</ele>
        <time>2019-07-06T11:09:40Z</time>
      </trkpt>
      <trkpt lat="40.7898580" lon="-2.3006060">
        <ele>881.6</ele>
        <time>2019-07-06T11:09:44Z</time>
      </trkpt>
      <trkpt lat="40.7898650" lon="-2.3006310">
        <ele>881.6</ele>
        <time>2019-07-06T11:09:45Z</time>
      </trkpt>
      <trkpt lat="40.7898780" lon="-2.3007110">
        <ele>882.6</ele>
        <time>2019-07-06T11:09:48Z</time>
      </trkpt>
      <trkpt lat="40.7899050" lon="-2.3007980">
        <ele>884.0</ele>
        <time>2019-07-06T11:09:52Z</time>
      </trkpt>
      <trkpt lat="40.7899160" lon="-2.3008550">
        <ele>884.2</ele>
        <time>2019-07-06T11:09:55Z</time>
      </trkpt>
      <trkpt lat="40.7899320" lon="-2.3008930">
        <ele>884.6</ele>
        <time>2019-07-06T11:09:57Z</time>
      </trkpt>
      <trkpt lat="40.7899470" lon="-2.3009540">
        <ele>885.0</ele>
        <time>2019-07-06T11:10:00Z</time>
      </trkpt>
      <trkpt lat="40.7899500" lon="-2.3009760">
        <ele>885.2</ele>
        <time>2019-07-06T11:10:01Z</time>
      </trkpt>
      <trkpt lat="40.7899700" lon="-2.3010360">
        <ele>886.0</ele>
        <time>2019-07-06T11:10:04Z</time>
      </trkpt>
      <trkpt lat="40.7899790" lon="-2.3010560">
        <ele>886.2</ele>
        <time>2019-07-06T11:10:05Z</time>
      </trkpt>
      <trkpt lat="40.7899850" lon="-2.3010760">
        <ele>886.4</ele>
        <time>2019-07-06T11:10:06Z</time>
      </trkpt>
      <trkpt lat="40.7900020" lon="-2.3011420">
        <ele>887.2</ele>
        <time>2019-07-06T11:10:09Z</time>
      </trkpt>
      <trkpt lat="40.7900050" lon="-2.3011870">
        <ele>887.4</ele>
        <time>2019-07-06T11:10:11Z</time>
      </trkpt>
      <trkpt lat="40.7900080" lon="-2.3012590">
        <ele>888.0</ele>
        <time>2019-07-06T11:10:14Z</time>
      </trkpt>
      <trkpt lat="40.7900210" lon="-2.3013340">
        <ele>888.6</ele>
        <time>2019-07-06T11:10:17Z</time>
      </trkpt>
      <trkpt lat="40.7900450" lon="-2.3014320">
        <ele>889.4</ele>
        <time>2019-07-06T11:10:21Z</time>
      </trkpt>
      <trkpt lat="40.7900520" lon="-2.3014740">
        <ele>889.8</ele>
        <time>2019-07-06T11:10:23Z</time>
      </trkpt>
      <trkpt lat="40.7900550" lon="-2.3015710">
        <ele>890.4</ele>
        <time>2019-07-06T11:10:27Z</time>
      </trkpt>
      <trkpt lat="40.7900610" lon="-2.3015950">
        <ele>890.8</ele>
        <time>2019-07-06T11:10:28Z</time>
      </trkpt>
      <trkpt lat="40.7900800" lon="-2.3017110">
        <ele>891.8</ele>
        <time>2019-07-06T11:10:33Z</time>
      </trkpt>
      <trkpt lat="40.7900740" lon="-2.3017340">
        <ele>892.0</ele>
        <time>2019-07-06T11:10:34Z</time>
      </trkpt>
      <trkpt lat="40.7900740" lon="-2.3017560">
        <ele>892.2</ele>
        <time>2019-07-06T11:10:35Z</time>
      </trkpt>
      <trkpt lat="40.7900650" lon="-2.3018480">
        <ele>893.4</ele>
        <time>2019-07-06T11:10:39Z</time>
      </trkpt>
      <trkpt lat="40.7900610" lon="-2.3019150">
        <ele>894.0</ele>
        <time>2019-07-06T11:10:42Z</time>
      </trkpt>
      <trkpt lat="40.7900570" lon="-2.3019370">
        <ele>894.4</ele>
        <time>2019-07-06T11:10:43Z</time>
      </trkpt>
      <trkpt lat="40.7900540" lon="-2.3019590">
        <ele>894.8</ele>
        <time>2019-07-06T11:10:44Z</time>
      </trkpt>
      <trkpt lat="40.7900340" lon="-2.3020640">
        <ele>895.6</ele>
        <time>2019-07-06T11:10:49Z</time>
      </trkpt>
      <trkpt lat="40.7900190" lon="-2.3021230">
        <ele>896.4</ele>
        <time>2019-07-06T11:10:52Z</time>
      </trkpt>
      <trkpt lat="40.7900100" lon="-2.3021600">
        <ele>896.8</ele>
        <time>2019-07-06T11:10:54Z</time>
      </trkpt>
      <trkpt lat="40.7899690" lon="-2.3022360">
        <ele>897.8</ele>
        <time>2019-07-06T11:10:59Z</time>
      </trkpt>
      <trkpt lat="40.7899620" lon="-2.3022540">
        <ele>898.2</ele>
        <time>2019-07-06T11:11:00Z</time>
      </trkpt>
      <trkpt lat="40.7899290" lon="-2.3023210">
        <ele>899.0</ele>
        <time>2019-07-06T11:11:04Z</time>
      </trkpt>
      <trkpt lat="40.7898960" lon="-2.3023760">
        <ele>899.4</ele>
        <time>2019-07-06T11:11:07Z</time>
      </trkpt>
      <trkpt lat="40.7898560" lon="-2.3024210">
        <ele>900.0</ele>
        <time>2019-07-06T11:11:10Z</time>
      </trkpt>
      <trkpt lat="40.7898280" lon="-2.3024580">
        <ele>901.0</ele>
        <time>2019-07-06T11:11:13Z</time>
      </trkpt>
      <trkpt lat="40.7898130" lon="-2.3024790">
        <ele>901.4</ele>
        <time>2019-07-06T11:11:15Z</time>
      </trkpt>
      <trkpt lat="40.7897890" lon="-2.3025130">
        <ele>902.2</ele>
        <time>2019-07-06T11:11:18Z</time>
      </trkpt>
      <trkpt lat="40.7897810" lon="-2.3025500">
        <ele>902.6</ele>
        <time>2019-07-06T11:11:21Z</time>
      </trkpt>
      <trkpt lat="40.7897740" lon="-2.3025640">
        <ele>902.8</ele>
        <time>2019-07-06T11:11:22Z</time>
      </trkpt>
      <trkpt lat="40.7897470" lon="-2.3026050">
        <ele>903.6</ele>
        <time>2019-07-06T11:11:25Z</time>
      </trkpt>
      <trkpt lat="40.7897190" lon="-2.3026590">
        <ele>904.2</ele>
        <time>2019-07-06T11:11:28Z</time>
      </trkpt>
      <trkpt lat="40.7896630" lon="-2.3027230">
        <ele>904.8</ele>
        <time>2019-07-06T11:11:32Z</time>
      </trkpt>
      <trkpt lat="40.7896530" lon="-2.3027390">
        <ele>905.0</ele>
        <time>2019-07-06T11:11:33Z</time>
      </trkpt>
      <trkpt lat="40.7896140" lon="-2.3027900">
        <ele>905.8</ele>
        <time>2019-07-06T11:11:36Z</time>
      </trkpt>
      <trkpt lat="40.7895890" lon="-2.3028270">
        <ele>906.4</ele>
        <time>2019-07-06T11:11:38Z</time>
      </trkpt>
      <trkpt lat="40.7895570" lon="-2.3028800">
        <ele>907.2</ele>
        <time>2019-07-06T11:11:41Z</time>
      </trkpt>
      <trkpt lat="40.7895400" lon="-2.3029220">
        <ele>907.6</ele>
        <time>2019-07-06T11:11:43Z</time>
      </trkpt>
      <trkpt lat="40.7895170" lon="-2.3029870">
        <ele>908.4</ele>
        <time>2019-07-06T11:11:46Z</time>
      </trkpt>
      <trkpt lat="40.7894910" lon="-2.3030550">
        <ele>909.0</ele>
        <time>2019-07-06T11:11:49Z</time>
      </trkpt>
      <trkpt lat="40.7894570" lon="-2.3031180">
        <ele>909.6</ele>
        <time>2019-07-06T11:11:52Z</time>
      </trkpt>
      <trkpt lat="40.7894220" lon="-2.3031710">
        <ele>910.2</ele>
        <time>2019-07-06T11:11:54Z</time>
      </trkpt>
      <trkpt lat="40.7893920" lon="-2.3032350">
        <ele>910.8</ele>
        <time>2019-07-06T11:11:57Z</time>
      </trkpt>
      <trkpt lat="40.7893640" lon="-2.3032820">
        <ele>911.0</ele>
        <time>2019-07-06T11:11:59Z</time>
      </trkpt>
      <trkpt lat="40.7893320" lon="-2.3033230">
        <ele>911.6</ele>
        <time>2019-07-06T11:12:01Z</time>
      </trkpt>
      <trkpt lat="40.7893010" lon="-2.3033730">
        <ele>911.8</ele>
        <time>2019-07-06T11:12:03Z</time>
      </trkpt>
      <trkpt lat="40.7892890" lon="-2.3033990">
        <ele>912.0</ele>
        <time>2019-07-06T11:12:04Z</time>
      </trkpt>
      <trkpt lat="40.7892580" lon="-2.3034500">
        <ele>912.2</ele>
        <time>2019-07-06T11:12:06Z</time>
      </trkpt>
      <trkpt lat="40.7892440" lon="-2.3034850">
        <ele>912.2</ele>
        <time>2019-07-06T11:12:08Z</time>
      </trkpt>
      <trkpt lat="40.7892060" lon="-2.3035500">
        <ele>913.2</ele>
        <time>2019-07-06T11:12:11Z</time>
      </trkpt>
      <trkpt lat="40.7891940" lon="-2.3035770">
        <ele>913.4</ele>
        <time>2019-07-06T11:12:12Z</time>
      </trkpt>
      <trkpt lat="40.7891710" lon="-2.3036480">
        <ele>914.4</ele>
        <time>2019-07-06T11:12:15Z</time>
      </trkpt>
      <trkpt lat="40.7891450" lon="-2.3037030">
        <ele>914.6</ele>
        <time>2019-07-06T11:12:17Z</time>
      </trkpt>
      <trkpt lat="40.7891120" lon="-2.3037810">
        <ele>915.6</ele>
        <time>2019-07-06T11:12:20Z</time>
      </trkpt>
      <trkpt lat="40.7890900" lon="-2.3038280">
        <ele>916.0</ele>
        <time>2019-07-06T11:12:22Z</time>
      </trkpt>
      <trkpt lat="40.7890750" lon="-2.3038830">
        <ele>916.8</ele>
        <time>2019-07-06T11:12:24Z</time>
      </trkpt>
      <trkpt lat="40.7890450" lon="-2.3039640">
        <ele>918.0</ele>
        <time>2019-07-06T11:12:27Z</time>
      </trkpt>
      <trkpt lat="40.7890420" lon="-2.3039880">
        <ele>918.4</ele>
        <time>2019-07-06T11:12:28Z</time>
      </trkpt>
      <trkpt lat="40.7890430" lon="-2.3040530">
        <ele>919.2</ele>
        <time>2019-07-06T11:12:31Z</time>
      </trkpt>
      <trkpt lat="40.7890460" lon="-2.3040750">
        <ele>919.6</ele>
        <time>2019-07-06T11:12:32Z</time>
      </trkpt>
      <trkpt lat="40.7890440" lon="-2.3040970">
        <ele>919.6</ele>
        <time>2019-07-06T11:12:33Z</time>
      </trkpt>
      <trkpt lat="40.7890280" lon="-2.3041660">
        <ele>920.4</ele>
        <time>2019-07-06T11:12:36Z</time>
      </trkpt>
      <trkpt lat="40.7889990" lon="-2.3042750">
        <ele>921.0</ele>
        <time>2019-07-06T11:12:40Z</time>
      </trkpt>
      <trkpt lat="40.7889920" lon="-2.3043140">
        <ele>921.4</ele>
        <time>2019-07-06T11:12:41Z</time>
      </trkpt>
      <trkpt lat="40.7889780" lon="-2.3043400">
        <ele>921.6</ele>
        <time>2019-07-06T11:12:42Z</time>
      </trkpt>
      <trkpt lat="40.7889600" lon="-2.3044340">
        <ele>922.2</ele>
        <time>2019-07-06T11:12:45Z</time>
      </trkpt>
      <trkpt lat="40.7889330" lon="-2.3045410">
        <ele>923.0</ele>
        <time>2019-07-06T11:12:50Z</time>
      </trkpt>
      <trkpt lat="40.7889180" lon="-2.3045910">
        <ele>923.8</ele>
        <time>2019-07-06T11:12:53Z</time>
      </trkpt>
      <trkpt lat="40.7889070" lon="-2.3046220">
        <ele>924.2</ele>
        <time>2019-07-06T11:12:55Z</time>
      </trkpt>
      <trkpt lat="40.7888970" lon="-2.3046370">
        <ele>924.4</ele>
        <time>2019-07-06T11:12:56Z</time>
      </trkpt>
      <trkpt lat="40.7888590" lon="-2.3047390">
        <ele>925.2</ele>
        <time>2019-07-06T11:13:02Z</time>
      </trkpt>
      <trkpt lat="40.7888580" lon="-2.3047540">
        <ele>925.6</ele>
        <time>2019-07-06T11:13:03Z</time>
      </trkpt>
      <trkpt lat="40.7888150" lon="-2.3048210">
        <ele>926.8</ele>
        <time>2019-07-06T11:13:08Z</time>
      </trkpt>
      <trkpt lat="40.7887970" lon="-2.3048460">
        <ele>927.4</ele>
        <time>2019-07-06T11:13:10Z</time>
      </trkpt>
      <trkpt lat="40.7887910" lon="-2.3048720">
        <ele>928.0</ele>
        <time>2019-07-06T11:13:12Z</time>
      </trkpt>
      <trkpt lat="40.7887750" lon="-2.3049040">
        <ele>928.4</ele>
        <time>2019-07-06T11:13:14Z</time>
      </trkpt>
      <trkpt lat="40.7887650" lon="-2.3049190">
        <ele>928.6</ele>
        <time>2019-07-06T11:13:15Z</time>
      </trkpt>
      <trkpt lat="40.7887470" lon="-2.3049500">
        <ele>929.0</ele>
        <time>2019-07-06T11:13:17Z</time>
      </trkpt>
      <trkpt lat="40.7887080" lon="-2.3050160">
        <ele>929.8</ele>
        <time>2019-07-06T11:13:20Z</time>
      </trkpt>
      <trkpt lat="40.7886980" lon="-2.3050370">
        <ele>930.0</ele>
        <time>2019-07-06T11:13:21Z</time>
      </trkpt>
      <trkpt lat="40.7886860" lon="-2.3050580">
        <ele>930.2</ele>
        <time>2019-07-06T11:13:22Z</time>
      </trkpt>
      <trkpt lat="40.7886490" lon="-2.3051130">
        <ele>930.8</ele>
        <time>2019-07-06T11:13:25Z</time>
      </trkpt>
      <trkpt lat="40.7886400" lon="-2.3051320">
        <ele>931.2</ele>
        <time>2019-07-06T11:13:26Z</time>
      </trkpt>
      <trkpt lat="40.7886330" lon="-2.3051680">
        <ele>931.6</ele>
        <time>2019-07-06T11:13:27Z</time>
      </trkpt>
      <trkpt lat="40.7886000" lon="-2.3052530">
        <ele>932.2</ele>
        <time>2019-07-06T11:13:31Z</time>
      </trkpt>
      <trkpt lat="40.7885970" lon="-2.3052780">
        <ele>932.6</ele>
        <time>2019-07-06T11:13:32Z</time>
      </trkpt>
      <trkpt lat="40.7885900" lon="-2.3052980">
        <ele>933.0</ele>
        <time>2019-07-06T11:13:33Z</time>
      </trkpt>
      <trkpt lat="40.7885830" lon="-2.3053440">
        <ele>933.8</ele>
        <time>2019-07-06T11:13:35Z</time>
      </trkpt>
      <trkpt lat="40.7885850" lon="-2.3053930">
        <ele>934.0</ele>
        <time>2019-07-06T11:13:37Z</time>
      </trkpt>
      <trkpt lat="40.7885840" lon="-2.3055040">
        <ele>934.8</ele>
        <time>2019-07-06T11:13:41Z</time>
      </trkpt>
      <trkpt lat="40.7885730" lon="-2.3055630">
        <ele>935.2</ele>
        <time>2019-07-06T11:13:43Z</time>
      </trkpt>
      <trkpt lat="40.7885700" lon="-2.3056380">
        <ele>935.8</ele>
        <time>2019-07-06T11:13:46Z</time>
      </trkpt>
      <trkpt lat="40.7885680" lon="-2.3056690">
        <ele>936.0</ele>
        <time>2019-07-06T11:13:47Z</time>
      </trkpt>
      <trkpt lat="40.7885660" lon="-2.3057110">
        <ele>936.4</ele>
        <time>2019-07-06T11:13:49Z</time>
      </trkpt>
      <trkpt lat="40.7885700" lon="-2.3057790">
        <ele>936.8</ele>
        <time>2019-07-06T11:13:52Z</time>
      </trkpt>
      <trkpt lat="40.7885840" lon="-2.3058310">
        <ele>937.2</ele>
        <time>2019-07-06T11:13:54Z</time>
      </trkpt>
      <trkpt lat="40.7885890" lon="-2.3058540">
        <ele>937.4</ele>
        <time>2019-07-06T11:13:55Z</time>
      </trkpt>
      <trkpt lat="40.7886060" lon="-2.3059520">
        <ele>938.4</ele>
        <time>2019-07-06T11:13:59Z</time>
      </trkpt>
      <trkpt lat="40.7886430" lon="-2.3060330">
        <ele>938.8</ele>
        <time>2019-07-06T11:14:03Z</time>
      </trkpt>
      <trkpt lat="40.7886610" lon="-2.3060820">
        <ele>939.4</ele>
        <time>2019-07-06T11:14:06Z</time>
      </trkpt>
      <trkpt lat="40.7887040" lon="-2.3061480">
        <ele>940.2</ele>
        <time>2019-07-06T11:14:10Z</time>
      </trkpt>
      <trkpt lat="40.7887290" lon="-2.3061820">
        <ele>940.6</ele>
        <time>2019-07-06T11:14:12Z</time>
      </trkpt>
      <trkpt lat="40.7887640" lon="-2.3062720">
        <ele>941.6</ele>
        <time>2019-07-06T11:14:16Z</time>
      </trkpt>
      <trkpt lat="40.7887710" lon="-2.3063000">
        <ele>941.8</ele>
        <time>2019-07-06T11:14:17Z</time>
      </trkpt>
      <trkpt lat="40.7888130" lon="-2.3064640">
        <ele>943.0</ele>
        <time>2019-07-06T11:14:23Z</time>
      </trkpt>
      <trkpt lat="40.7888810" lon="-2.3065940">
        <ele>944.2</ele>
        <time>2019-07-06T11:14:29Z</time>
      </trkpt>
      <trkpt lat="40.7889450" lon="-2.3066600">
        <ele>945.2</ele>
        <time>2019-07-06T11:14:34Z</time>
      </trkpt>
      <trkpt lat="40.7889710" lon="-2.3066770">
        <ele>945.8</ele>
        <time>2019-07-06T11:14:36Z</time>
      </trkpt>
      <trkpt lat="40.7889960" lon="-2.3067010">
        <ele>946.4</ele>
        <time>2019-07-06T11:14:38Z</time>
      </trkpt>
      <trkpt lat="40.7890690" lon="-2.3067800">
        <ele>947.6</ele>
        <time>2019-07-06T11:14:44Z</time>
      </trkpt>
      <trkpt lat="40.7891230" lon="-2.3068620">
        <ele>948.8</ele>
        <time>2019-07-06T11:14:49Z</time>
      </trkpt>
      <trkpt lat="40.7891460" lon="-2.3069230">
        <ele>949.6</ele>
        <time>2019-07-06T11:14:52Z</time>
      </trkpt>
      <trkpt lat="40.7891530" lon="-2.3069440">
        <ele>950.0</ele>
        <time>2019-07-06T11:14:53Z</time>
      </trkpt>
      <trkpt lat="40.7891820" lon="-2.3070240">
        <ele>951.2</ele>
        <time>2019-07-06T11:14:57Z</time>
      </trkpt>
      <trkpt lat="40.7891970" lon="-2.3070880">
        <ele>951.8</ele>
        <time>2019-07-06T11:15:00Z</time>
      </trkpt>
      <trkpt lat="40.7892020" lon="-2.3071540">
        <ele>952.4</ele>
        <time>2019-07-06T11:15:03Z</time>
      </trkpt>
      <trkpt lat="40.7891970" lon="-2.3072700">
        <ele>953.2</ele>
        <time>2019-07-06T11:15:08Z</time>
      </trkpt>
      <trkpt lat="40.7891910" lon="-2.3072920">
        <ele>953.4</ele>
        <time>2019-07-06T11:15:09Z</time>
      </trkpt>
      <trkpt lat="40.7891330" lon="-2.3074100">
        <ele>954.6</ele>
        <time>2019-07-06T11:15:14Z</time>
      </trkpt>
      <trkpt lat="40.7890770" lon="-2.3074720">
        <ele>954.8</ele>
        <time>2019-07-06T11:15:17Z</time>
      </trkpt>
      <trkpt lat="40.7890210" lon="-2.3074840">
        <ele>954.8</ele>
        <time>2019-07-06T11:15:19Z</time>
      </trkpt>
      <trkpt lat="40.7888160" lon="-2.3074310">
        <ele>954.6</ele>
        <time>2019-07-06T11:15:25Z</time>
      </trkpt>
      <trkpt lat="40.7886990" lon="-2.3073820">
        <ele>954.6</ele>
        <time>2019-07-06T11:15:28Z</time>
      </trkpt>
      <trkpt lat="40.7886150" lon="-2.3073790">
        <ele>954.6</ele>
        <time>2019-07-06T11:15:30Z</time>
      </trkpt>
      <trkpt lat="40.7884980" lon="-2.3074730">
        <ele>954.8</ele>
        <time>2019-07-06T11:15:34Z</time>
      </trkpt>
      <trkpt lat="40.7884270" lon="-2.3075860">
        <ele>955.0</ele>
        <time>2019-07-06T11:15:37Z</time>
      </trkpt>
      <trkpt lat="40.7883580" lon="-2.3076900">
        <ele>955.4</ele>
        <time>2019-07-06T11:15:40Z</time>
      </trkpt>
      <trkpt lat="40.7883400" lon="-2.3077210">
        <ele>955.8</ele>
        <time>2019-07-06T11:15:41Z</time>
      </trkpt>
      <trkpt lat="40.7882890" lon="-2.3078110">
        <ele>956.2</ele>
        <time>2019-07-06T11:15:44Z</time>
      </trkpt>
      <trkpt lat="40.7881870" lon="-2.3079340">
        <ele>957.0</ele>
        <time>2019-07-06T11:15:49Z</time>
      </trkpt>
      <trkpt lat="40.7881680" lon="-2.3079600">
        <ele>957.2</ele>
        <time>2019-07-06T11:15:50Z</time>
      </trkpt>
      <trkpt lat="40.7880740" lon="-2.3081480">
        <ele>957.8</ele>
        <time>2019-07-06T11:15:56Z</time>
      </trkpt>
      <trkpt lat="40.7880610" lon="-2.3082080">
        <ele>958.2</ele>
        <time>2019-07-06T11:15:58Z</time>
      </trkpt>
      <trkpt lat="40.7880540" lon="-2.3083440">
        <ele>959.0</ele>
        <time>2019-07-06T11:16:02Z</time>
      </trkpt>
      <trkpt lat="40.7880550" lon="-2.3083790">
        <ele>959.4</ele>
        <time>2019-07-06T11:16:03Z</time>
      </trkpt>
      <trkpt lat="40.7880670" lon="-2.3085930">
        <ele>960.4</ele>
        <time>2019-07-06T11:16:09Z</time>
      </trkpt>
      <trkpt lat="40.7880700" lon="-2.3086300">
        <ele>960.6</ele>
        <time>2019-07-06T11:16:10Z</time>
      </trkpt>
      <trkpt lat="40.7880430" lon="-2.3088600">
        <ele>961.0</ele>
        <time>2019-07-06T11:16:16Z</time>
      </trkpt>
      <trkpt lat="40.7879710" lon="-2.3089990">
        <ele>961.6</ele>
        <time>2019-07-06T11:16:20Z</time>
      </trkpt>
      <trkpt lat="40.7879280" lon="-2.3090540">
        <ele>962.0</ele>
        <time>2019-07-06T11:16:22Z</time>
      </trkpt>
      <trkpt lat="40.7877750" lon="-2.3092370">
        <ele>962.6</ele>
        <time>2019-07-06T11:16:28Z</time>
      </trkpt>
      <trkpt lat="40.7877180" lon="-2.3093090">
        <ele>962.8</ele>
        <time>2019-07-06T11:16:30Z</time>
      </trkpt>
      <trkpt lat="40.7876110" lon="-2.3094680">
        <ele>963.0</ele>
        <time>2019-07-06T11:16:34Z</time>
      </trkpt>
      <trkpt lat="40.7874990" lon="-2.3096370">
        <ele>963.2</ele>
        <time>2019-07-06T11:16:38Z</time>
      </trkpt>
      <trkpt lat="40.7873410" lon="-2.3098540">
        <ele>963.8</ele>
        <time>2019-07-06T11:16:44Z</time>
      </trkpt>
      <trkpt lat="40.7873160" lon="-2.3098900">
        <ele>964.0</ele>
        <time>2019-07-06T11:16:45Z</time>
      </trkpt>
      <trkpt lat="40.7872190" lon="-2.3100620">
        <ele>965.0</ele>
        <time>2019-07-06T11:16:50Z</time>
      </trkpt>
      <trkpt lat="40.7872050" lon="-2.3100920">
        <ele>965.2</ele>
        <time>2019-07-06T11:16:51Z</time>
      </trkpt>
      <trkpt lat="40.7871530" lon="-2.3101940">
        <ele>965.8</ele>
        <time>2019-07-06T11:16:55Z</time>
      </trkpt>
      <trkpt lat="40.7871350" lon="-2.3102890">
        <ele>966.2</ele>
        <time>2019-07-06T11:16:58Z</time>
      </trkpt>
      <trkpt lat="40.7871230" lon="-2.3103500">
        <ele>966.8</ele>
        <time>2019-07-06T11:17:00Z</time>
      </trkpt>
      <trkpt lat="40.7871100" lon="-2.3104120">
        <ele>967.2</ele>
        <time>2019-07-06T11:17:02Z</time>
      </trkpt>
      <trkpt lat="40.7870700" lon="-2.3105580">
        <ele>968.0</ele>
        <time>2019-07-06T11:17:07Z</time>
      </trkpt>
      <trkpt lat="40.7870580" lon="-2.3105850">
        <ele>968.2</ele>
        <time>2019-07-06T11:17:08Z</time>
      </trkpt>
      <trkpt lat="40.7869990" lon="-2.3106820">
        <ele>969.4</ele>
        <time>2019-07-06T11:17:12Z</time>
      </trkpt>
      <trkpt lat="40.7869660" lon="-2.3107280">
        <ele>969.6</ele>
        <time>2019-07-06T11:17:14Z</time>
      </trkpt>
      <trkpt lat="40.7868440" lon="-2.3108890">
        <ele>970.4</ele>
        <time>2019-07-06T11:17:21Z</time>
      </trkpt>
      <trkpt lat="40.7868050" lon="-2.3109310">
        <ele>970.6</ele>
        <time>2019-07-06T11:17:23Z</time>
      </trkpt>
      <trkpt lat="40.7867190" lon="-2.3110470">
        <ele>971.4</ele>
        <time>2019-07-06T11:17:28Z</time>
      </trkpt>
      <trkpt lat="40.7867020" lon="-2.3110720">
        <ele>971.8</ele>
        <time>2019-07-06T11:17:29Z</time>
      </trkpt>
      <trkpt lat="40.7866220" lon="-2.3112440">
        <ele>972.4</ele>
        <time>2019-07-06T11:17:35Z</time>
      </trkpt>
      <trkpt lat="40.7866120" lon="-2.3113360">
        <ele>972.8</ele>
        <time>2019-07-06T11:17:38Z</time>
      </trkpt>
      <trkpt lat="40.7866100" lon="-2.3114220">
        <ele>973.2</ele>
        <time>2019-07-06T11:17:41Z</time>
      </trkpt>
      <trkpt lat="40.7866040" lon="-2.3114480">
        <ele>973.4</ele>
        <time>2019-07-06T11:17:42Z</time>
      </trkpt>
      <trkpt lat="40.7865900" lon="-2.3115380">
        <ele>974.2</ele>
        <time>2019-07-06T11:17:45Z</time>
      </trkpt>
      <trkpt lat="40.7865860" lon="-2.3115710">
        <ele>974.8</ele>
        <time>2019-07-06T11:17:46Z</time>
      </trkpt>
      <trkpt lat="40.7865840" lon="-2.3116010">
        <ele>975.4</ele>
        <time>2019-07-06T11:17:47Z</time>
      </trkpt>
      <trkpt lat="40.7865660" lon="-2.3117450">
        <ele>976.4</ele>
        <time>2019-07-06T11:17:52Z</time>
      </trkpt>
      <trkpt lat="40.7865600" lon="-2.3118510">
        <ele>977.6</ele>
        <time>2019-07-06T11:17:56Z</time>
      </trkpt>
      <trkpt lat="40.7865610" lon="-2.3118810">
        <ele>977.8</ele>
        <time>2019-07-06T11:17:57Z</time>
      </trkpt>
      <trkpt lat="40.7865800" lon="-2.3119770">
        <ele>978.6</ele>
        <time>2019-07-06T11:18:01Z</time>
      </trkpt>
      <trkpt lat="40.7866010" lon="-2.3121060">
        <ele>979.4</ele>
        <time>2019-07-06T11:18:06Z</time>
      </trkpt>
      <trkpt lat="40.7866090" lon="-2.3121590">
        <ele>979.8</ele>
        <time>2019-07-06T11:18:08Z</time>
      </trkpt>
      <trkpt lat="40.7866410" lon="-2.3122540">
        <ele>980.2</ele>
        <time>2019-07-06T11:18:11Z</time>
      </trkpt>
      <trkpt lat="40.7866630" lon="-2.3123080">
        <ele>980.8</ele>
        <time>2019-07-06T11:18:13Z</time>
      </trkpt>
      <trkpt lat="40.7867080" lon="-2.3124140">
        <ele>981.4</ele>
        <time>2019-07-06T11:18:17Z</time>
      </trkpt>
      <trkpt lat="40.7867440" lon="-2.3125140">
        <ele>982.2</ele>
        <time>2019-07-06T11:18:21Z</time>
      </trkpt>
      <trkpt lat="40.7867860" lon="-2.3126320">
        <ele>983.0</ele>
        <time>2019-07-06T11:18:26Z</time>
      </trkpt>
      <trkpt lat="40.7867950" lon="-2.3126520">
        <ele>983.2</ele>
        <time>2019-07-06T11:18:27Z</time>
      </trkpt>
      <trkpt lat="40.7868370" lon="-2.3127760">
        <ele>984.4</ele>
        <time>2019-07-06T11:18:33Z</time>
      </trkpt>
      <trkpt lat="40.7868770" lon="-2.3129110">
        <ele>985.4</ele>
        <time>2019-07-06T11:18:39Z</time>
      </trkpt>
      <trkpt lat="40.7868920" lon="-2.3129610">
        <ele>986.2</ele>
        <time>2019-07-06T11:18:41Z</time>
      </trkpt>
      <trkpt lat="40.7868990" lon="-2.3129860">
        <ele>986.6</ele>
        <time>2019-07-06T11:18:42Z</time>
      </trkpt>
      <trkpt lat="40.7869410" lon="-2.3131420">
        <ele>987.2</ele>
        <time>2019-07-06T11:18:48Z</time>
      </trkpt>
      <trkpt lat="40.7869670" lon="-2.3132520">
        <ele>987.8</ele>
        <time>2019-07-06T11:18:52Z</time>
      </trkpt>
      <trkpt lat="40.7869900" lon="-2.3133600">
        <ele>989.0</ele>
        <time>2019-07-06T11:18:56Z</time>
      </trkpt>
      <trkpt lat="40.7869950" lon="-2.3133880">
        <ele>989.2</ele>
        <time>2019-07-06T11:18:57Z</time>
      </trkpt>
      <trkpt lat="40.7870090" lon="-2.3135320">
        <ele>990.0</ele>
        <time>2019-07-06T11:19:02Z</time>
      </trkpt>
      <trkpt lat="40.7870020" lon="-2.3136210">
        <ele>990.4</ele>
        <time>2019-07-06T11:19:05Z</time>
      </trkpt>
      <trkpt lat="40.7869270" lon="-2.3137700">
        <ele>991.0</ele>
        <time>2019-07-06T11:19:10Z</time>
      </trkpt>
      <trkpt lat="40.7868000" lon="-2.3137790">
        <ele>991.4</ele>
        <time>2019-07-06T11:19:14Z</time>
      </trkpt>
      <trkpt lat="40.7866640" lon="-2.3136690">
        <ele>991.6</ele>
        <time>2019-07-06T11:19:18Z</time>
      </trkpt>
      <trkpt lat="40.7865930" lon="-2.3135950">
        <ele>991.4</ele>
        <time>2019-07-06T11:19:20Z</time>
      </trkpt>
      <trkpt lat="40.7864690" lon="-2.3134810">
        <ele>990.8</ele>
        <time>2019-07-06T11:19:23Z</time>
      </trkpt>
      <trkpt lat="40.7863660" lon="-2.3134420">
        <ele>990.4</ele>
        <time>2019-07-06T11:19:25Z</time>
      </trkpt>
      <trkpt lat="40.7863090" lon="-2.3134460">
        <ele>990.2</ele>
        <time>2019-07-06T11:19:26Z</time>
      </trkpt>
      <trkpt lat="40.7862050" lon="-2.3135100">
        <ele>989.8</ele>
        <time>2019-07-06T11:19:28Z</time>
      </trkpt>
      <trkpt lat="40.7860800" lon="-2.3136820">
        <ele>989.4</ele>
        <time>2019-07-06T11:19:31Z</time>
      </trkpt>
      <trkpt lat="40.7860420" lon="-2.3137500">
        <ele>988.8</ele>
        <time>2019-07-06T11:19:32Z</time>
      </trkpt>
      <trkpt lat="40.7859600" lon="-2.3138960">
        <ele>987.8</ele>
        <time>2019-07-06T11:19:34Z</time>
      </trkpt>
      <trkpt lat="40.7858760" lon="-2.3140560">
        <ele>986.6</ele>
        <time>2019-07-06T11:19:36Z</time>
      </trkpt>
      <trkpt lat="40.7857950" lon="-2.3142190">
        <ele>985.6</ele>
        <time>2019-07-06T11:19:38Z</time>
      </trkpt>
      <trkpt lat="40.7857530" lon="-2.3143000">
        <ele>985.2</ele>
        <time>2019-07-06T11:19:39Z</time>
      </trkpt>
      <trkpt lat="40.7856670" lon="-2.3144710">
        <ele>984.0</ele>
        <time>2019-07-06T11:19:41Z</time>
      </trkpt>
      <trkpt lat="40.7855840" lon="-2.3146440">
        <ele>982.6</ele>
        <time>2019-07-06T11:19:43Z</time>
      </trkpt>
      <trkpt lat="40.7855450" lon="-2.3147260">
        <ele>982.0</ele>
        <time>2019-07-06T11:19:44Z</time>
      </trkpt>
      <trkpt lat="40.7854630" lon="-2.3148870">
        <ele>981.0</ele>
        <time>2019-07-06T11:19:46Z</time>
      </trkpt>
      <trkpt lat="40.7853850" lon="-2.3150620">
        <ele>980.0</ele>
        <time>2019-07-06T11:19:48Z</time>
      </trkpt>
      <trkpt lat="40.7853450" lon="-2.3151580">
        <ele>979.6</ele>
        <time>2019-07-06T11:19:49Z</time>
      </trkpt>
      <trkpt lat="40.7852920" lon="-2.3152500">
        <ele>978.6</ele>
        <time>2019-07-06T11:19:50Z</time>
      </trkpt>
      <trkpt lat="40.7852130" lon="-2.3154410">
        <ele>977.8</ele>
        <time>2019-07-06T11:19:52Z</time>
      </trkpt>
      <trkpt lat="40.7851820" lon="-2.3155400">
        <ele>977.6</ele>
        <time>2019-07-06T11:19:53Z</time>
      </trkpt>
      <trkpt lat="40.7851710" lon="-2.3156420">
        <ele>977.4</ele>
        <time>2019-07-06T11:19:54Z</time>
      </trkpt>
      <trkpt lat="40.7851570" lon="-2.3158340">
        <ele>977.2</ele>
        <time>2019-07-06T11:19:56Z</time>
      </trkpt>
      <trkpt lat="40.7851460" lon="-2.3160140">
        <ele>977.2</ele>
        <time>2019-07-06T11:19:58Z</time>
      </trkpt>
      <trkpt lat="40.7851510" lon="-2.3161770">
        <ele>977.6</ele>
        <time>2019-07-06T11:20:00Z</time>
      </trkpt>
      <trkpt lat="40.7851790" lon="-2.3163980">
        <ele>978.0</ele>
        <time>2019-07-06T11:20:03Z</time>
      </trkpt>
      <trkpt lat="40.7851930" lon="-2.3165390">
        <ele>978.4</ele>
        <time>2019-07-06T11:20:05Z</time>
      </trkpt>
      <trkpt lat="40.7852000" lon="-2.3166070">
        <ele>978.8</ele>
        <time>2019-07-06T11:20:06Z</time>
      </trkpt>
      <trkpt lat="40.7852470" lon="-2.3168630">
        <ele>979.4</ele>
        <time>2019-07-06T11:20:10Z</time>
      </trkpt>
      <trkpt lat="40.7852850" lon="-2.3169810">
        <ele>979.6</ele>
        <time>2019-07-06T11:20:12Z</time>
      </trkpt>
      <trkpt lat="40.7853360" lon="-2.3170710">
        <ele>979.8</ele>
        <time>2019-07-06T11:20:14Z</time>
      </trkpt>
      <trkpt lat="40.7853990" lon="-2.3171400">
        <ele>980.2</ele>
        <time>2019-07-06T11:20:16Z</time>
      </trkpt>
      <trkpt lat="40.7855160" lon="-2.3173080">
        <ele>980.8</ele>
        <time>2019-07-06T11:20:21Z</time>
      </trkpt>
      <trkpt lat="40.7855320" lon="-2.3173470">
        <ele>981.0</ele>
        <time>2019-07-06T11:20:22Z</time>
      </trkpt>
      <trkpt lat="40.7855520" lon="-2.3175360">
        <ele>981.2</ele>
        <time>2019-07-06T11:20:26Z</time>
      </trkpt>
      <trkpt lat="40.7855450" lon="-2.3175890">
        <ele>981.2</ele>
        <time>2019-07-06T11:20:27Z</time>
      </trkpt>
      <trkpt lat="40.7855000" lon="-2.3178270">
        <ele>981.0</ele>
        <time>2019-07-06T11:20:31Z</time>
      </trkpt>
      <trkpt lat="40.7853820" lon="-2.3182120">
        <ele>980.0</ele>
        <time>2019-07-06T11:20:36Z</time>
      </trkpt>
      <trkpt lat="40.7853170" lon="-2.3184830">
        <ele>978.6</ele>
        <time>2019-07-06T11:20:39Z</time>
      </trkpt>
      <trkpt lat="40.7852850" lon="-2.3186790">
        <ele>977.0</ele>
        <time>2019-07-06T11:20:41Z</time>
      </trkpt>
      <trkpt lat="40.7852500" lon="-2.3188750">
        <ele>976.4</ele>
        <time>2019-07-06T11:20:43Z</time>
      </trkpt>
      <trkpt lat="40.7852160" lon="-2.3190750">
        <ele>975.8</ele>
        <time>2019-07-06T11:20:45Z</time>
      </trkpt>
      <trkpt lat="40.7851780" lon="-2.3193850">
        <ele>975.4</ele>
        <time>2019-07-06T11:20:48Z</time>
      </trkpt>
      <trkpt lat="40.7851640" lon="-2.3194900">
        <ele>974.8</ele>
        <time>2019-07-06T11:20:49Z</time>
      </trkpt>
      <trkpt lat="40.7850980" lon="-2.3198140">
        <ele>973.4</ele>
        <time>2019-07-06T11:20:52Z</time>
      </trkpt>
      <trkpt lat="40.7850380" lon="-2.3200380">
        <ele>972.8</ele>
        <time>2019-07-06T11:20:54Z</time>
      </trkpt>
      <trkpt lat="40.7850060" lon="-2.3201540">
        <ele>972.6</ele>
        <time>2019-07-06T11:20:55Z</time>
      </trkpt>
      <trkpt lat="40.7849550" lon="-2.3203850">
        <ele>971.8</ele>
        <time>2019-07-06T11:20:57Z</time>
      </trkpt>
      <trkpt lat="40.7849330" lon="-2.3205030">
        <ele>971.4</ele>
        <time>2019-07-06T11:20:58Z</time>
      </trkpt>
      <trkpt lat="40.7849100" lon="-2.3206220">
        <ele>971.0</ele>
        <time>2019-07-06T11:20:59Z</time>
      </trkpt>
      <trkpt lat="40.7848900" lon="-2.3207370">
        <ele>970.6</ele>
        <time>2019-07-06T11:21:00Z</time>
      </trkpt>
      <trkpt lat="40.7848740" lon="-2.3208520">
        <ele>970.0</ele>
        <time>2019-07-06T11:21:01Z</time>
      </trkpt>
      <trkpt lat="40.7848650" lon="-2.3209630">
        <ele>969.6</ele>
        <time>2019-07-06T11:21:02Z</time>
      </trkpt>
      <trkpt lat="40.7848650" lon="-2.3210700">
        <ele>969.6</ele>
        <time>2019-07-06T11:21:03Z</time>
      </trkpt>
      <trkpt lat="40.7849460" lon="-2.3214750">
        <ele>968.8</ele>
        <time>2019-07-06T11:21:07Z</time>
      </trkpt>
      <trkpt lat="40.7850230" lon="-2.3216540">
        <ele>968.0</ele>
        <time>2019-07-06T11:21:09Z</time>
      </trkpt>
      <trkpt lat="40.7850540" lon="-2.3217450">
        <ele>967.4</ele>
        <time>2019-07-06T11:21:10Z</time>
      </trkpt>
      <trkpt lat="40.7850750" lon="-2.3218410">
        <ele>967.2</ele>
        <time>2019-07-06T11:21:11Z</time>
      </trkpt>
      <trkpt lat="40.7850920" lon="-2.3221340">
        <ele>966.4</ele>
        <time>2019-07-06T11:21:14Z</time>
      </trkpt>
      <trkpt lat="40.7850960" lon="-2.3222250">
        <ele>966.2</ele>
        <time>2019-07-06T11:21:15Z</time>
      </trkpt>
      <trkpt lat="40.7851320" lon="-2.3225600">
        <ele>966.6</ele>
        <time>2019-07-06T11:21:19Z</time>
      </trkpt>
      <trkpt lat="40.7851530" lon="-2.3227160">
        <ele>967.2</ele>
        <time>2019-07-06T11:21:21Z</time>
      </trkpt>
      <trkpt lat="40.7851730" lon="-2.3228670">
        <ele>967.4</ele>
        <time>2019-07-06T11:21:23Z</time>
      </trkpt>
      <trkpt lat="40.7851880" lon="-2.3229410">
        <ele>967.4</ele>
        <time>2019-07-06T11:21:24Z</time>
      </trkpt>
      <trkpt lat="40.7852020" lon="-2.3230150">
        <ele>967.4</ele>
        <time>2019-07-06T11:21:25Z</time>
      </trkpt>
      <trkpt lat="40.7852120" lon="-2.3230880">
        <ele>967.6</ele>
        <time>2019-07-06T11:21:26Z</time>
      </trkpt>
      <trkpt lat="40.7852220" lon="-2.3232370">
        <ele>967.4</ele>
        <time>2019-07-06T11:21:28Z</time>
      </trkpt>
      <trkpt lat="40.7852040" lon="-2.3234510">
        <ele>967.2</ele>
        <time>2019-07-06T11:21:31Z</time>
      </trkpt>
      <trkpt lat="40.7851200" lon="-2.3239150">
        <ele>967.4</ele>
        <time>2019-07-06T11:21:38Z</time>
      </trkpt>
      <trkpt lat="40.7850440" lon="-2.3242990">
        <ele>967.8</ele>
        <time>2019-07-06T11:21:44Z</time>
      </trkpt>
      <trkpt lat="40.7850430" lon="-2.3243610">
        <ele>967.8</ele>
        <time>2019-07-06T11:21:45Z</time>
      </trkpt>
      <trkpt lat="40.7850630" lon="-2.3245460">
        <ele>968.2</ele>
        <time>2019-07-06T11:21:48Z</time>
      </trkpt>
      <trkpt lat="40.7850810" lon="-2.3246610">
        <ele>968.6</ele>
        <time>2019-07-06T11:21:50Z</time>
      </trkpt>
      <trkpt lat="40.7850810" lon="-2.3247200">
        <ele>968.6</ele>
        <time>2019-07-06T11:21:51Z</time>
      </trkpt>
      <trkpt lat="40.7850700" lon="-2.3248390">
        <ele>968.6</ele>
        <time>2019-07-06T11:21:53Z</time>
      </trkpt>
      <trkpt lat="40.7850110" lon="-2.3250190">
        <ele>968.6</ele>
        <time>2019-07-06T11:21:56Z</time>
      </trkpt>
      <trkpt lat="40.7849850" lon="-2.3250770">
        <ele>968.6</ele>
        <time>2019-07-06T11:21:57Z</time>
      </trkpt>
      <trkpt lat="40.7849070" lon="-2.3253090">
        <ele>968.8</ele>
        <time>2019-07-06T11:22:01Z</time>
      </trkpt>
      <trkpt lat="40.7848920" lon="-2.3253740">
        <ele>968.8</ele>
        <time>2019-07-06T11:22:02Z</time>
      </trkpt>
      <trkpt lat="40.7848390" lon="-2.3256520">
        <ele>968.4</ele>
        <time>2019-07-06T11:22:06Z</time>
      </trkpt>
      <trkpt lat="40.7847920" lon="-2.3257810">
        <ele>967.8</ele>
        <time>2019-07-06T11:22:08Z</time>
      </trkpt>
      <trkpt lat="40.7847790" lon="-2.3258510">
        <ele>967.6</ele>
        <time>2019-07-06T11:22:09Z</time>
      </trkpt>
      <trkpt lat="40.7847740" lon="-2.3259160">
        <ele>967.6</ele>
        <time>2019-07-06T11:22:10Z</time>
      </trkpt>
      <trkpt lat="40.7847790" lon="-2.3259790">
        <ele>967.2</ele>
        <time>2019-07-06T11:22:11Z</time>
      </trkpt>
      <trkpt lat="40.7848650" lon="-2.3261360">
        <ele>966.6</ele>
        <time>2019-07-06T11:22:14Z</time>
      </trkpt>
      <trkpt lat="40.7849100" lon="-2.3261840">
        <ele>966.6</ele>
        <time>2019-07-06T11:22:15Z</time>
      </trkpt>
      <trkpt lat="40.7849490" lon="-2.3262330">
        <ele>966.6</ele>
        <time>2019-07-06T11:22:16Z</time>
      </trkpt>
      <trkpt lat="40.7850200" lon="-2.3263250">
        <ele>966.6</ele>
        <time>2019-07-06T11:22:18Z</time>
      </trkpt>
      <trkpt lat="40.7850530" lon="-2.3263690">
        <ele>966.6</ele>
        <time>2019-07-06T11:22:19Z</time>
      </trkpt>
      <trkpt lat="40.7851290" lon="-2.3265240">
        <ele>966.8</ele>
        <time>2019-07-06T11:22:22Z</time>
      </trkpt>
      <trkpt lat="40.7851470" lon="-2.3265830">
        <ele>966.8</ele>
        <time>2019-07-06T11:22:23Z</time>
      </trkpt>
      <trkpt lat="40.7851590" lon="-2.3266460">
        <ele>966.8</ele>
        <time>2019-07-06T11:22:24Z</time>
      </trkpt>
      <trkpt lat="40.7851720" lon="-2.3267770">
        <ele>967.0</ele>
        <time>2019-07-06T11:22:26Z</time>
      </trkpt>
      <trkpt lat="40.7851580" lon="-2.3269680">
        <ele>967.2</ele>
        <time>2019-07-06T11:22:29Z</time>
      </trkpt>
      <trkpt lat="40.7850720" lon="-2.3273300">
        <ele>967.6</ele>
        <time>2019-07-06T11:22:35Z</time>
      </trkpt>
      <trkpt lat="40.7850330" lon="-2.3275120">
        <ele>967.6</ele>
        <time>2019-07-06T11:22:38Z</time>
      </trkpt>
      <trkpt lat="40.7850000" lon="-2.3277480">
        <ele>967.8</ele>
        <time>2019-07-06T11:22:42Z</time>
      </trkpt>
      <trkpt lat="40.7849520" lon="-2.3280550">
        <ele>968.4</ele>
        <time>2019-07-06T11:22:48Z</time>
      </trkpt>
      <trkpt lat="40.7849470" lon="-2.3280950">
        <ele>968.6</ele>
        <time>2019-07-06T11:22:49Z</time>
      </trkpt>
      <trkpt lat="40.7848980" lon="-2.3283220">
        <ele>969.4</ele>
        <time>2019-07-06T11:22:54Z</time>
      </trkpt>
      <trkpt lat="40.7848870" lon="-2.3283690">
        <ele>969.6</ele>
        <time>2019-07-06T11:22:55Z</time>
      </trkpt>
      <trkpt lat="40.7848280" lon="-2.3286460">
        <ele>970.2</ele>
        <time>2019-07-06T11:23:01Z</time>
      </trkpt>
      <trkpt lat="40.7847840" lon="-2.3287850">
        <ele>970.8</ele>
        <time>2019-07-06T11:23:04Z</time>
      </trkpt>
      <trkpt lat="40.7846940" lon="-2.3289940">
        <ele>971.4</ele>
        <time>2019-07-06T11:23:09Z</time>
      </trkpt>
      <trkpt lat="40.7846620" lon="-2.3290580">
        <ele>971.8</ele>
        <time>2019-07-06T11:23:11Z</time>
      </trkpt>
      <trkpt lat="40.7846070" lon="-2.3291740">
        <ele>972.2</ele>
        <time>2019-07-06T11:23:15Z</time>
      </trkpt>
      <trkpt lat="40.7845760" lon="-2.3292540">
        <ele>973.0</ele>
        <time>2019-07-06T11:23:18Z</time>
      </trkpt>
      <trkpt lat="40.7845520" lon="-2.3293080">
        <ele>973.4</ele>
        <time>2019-07-06T11:23:20Z</time>
      </trkpt>
      <trkpt lat="40.7845010" lon="-2.3294250">
        <ele>974.0</ele>
        <time>2019-07-06T11:23:24Z</time>
      </trkpt>
      <trkpt lat="40.7844810" lon="-2.3294840">
        <ele>975.0</ele>
        <time>2019-07-06T11:23:26Z</time>
      </trkpt>
      <trkpt lat="40.7844730" lon="-2.3295170">
        <ele>975.4</ele>
        <time>2019-07-06T11:23:27Z</time>
      </trkpt>
      <trkpt lat="40.7844240" lon="-2.3296570">
        <ele>976.2</ele>
        <time>2019-07-06T11:23:32Z</time>
      </trkpt>
      <trkpt lat="40.7844090" lon="-2.3296800">
        <ele>976.4</ele>
        <time>2019-07-06T11:23:33Z</time>
      </trkpt>
      <trkpt lat="40.7842920" lon="-2.3298130">
        <ele>976.8</ele>
        <time>2019-07-06T11:23:39Z</time>
      </trkpt>
      <trkpt lat="40.7842250" lon="-2.3298620">
        <ele>977.6</ele>
        <time>2019-07-06T11:23:42Z</time>
      </trkpt>
      <trkpt lat="40.7841560" lon="-2.3298860">
        <ele>978.0</ele>
        <time>2019-07-06T11:23:45Z</time>
      </trkpt>
      <trkpt lat="40.7840270" lon="-2.3298840">
        <ele>978.4</ele>
        <time>2019-07-06T11:23:49Z</time>
      </trkpt>
      <trkpt lat="40.7839910" lon="-2.3298820">
        <ele>978.6</ele>
        <time>2019-07-06T11:23:50Z</time>
      </trkpt>
      <trkpt lat="40.7839120" lon="-2.3298950">
        <ele>978.8</ele>
        <time>2019-07-06T11:23:52Z</time>
      </trkpt>
      <trkpt lat="40.7838290" lon="-2.3299400">
        <ele>978.6</ele>
        <time>2019-07-06T11:23:54Z</time>
      </trkpt>
      <trkpt lat="40.7837100" lon="-2.3301200">
        <ele>978.8</ele>
        <time>2019-07-06T11:23:58Z</time>
      </trkpt>
      <trkpt lat="40.7836530" lon="-2.3303440">
        <ele>978.6</ele>
        <time>2019-07-06T11:24:02Z</time>
      </trkpt>
      <trkpt lat="40.7835910" lon="-2.3305080">
        <ele>978.8</ele>
        <time>2019-07-06T11:24:06Z</time>
      </trkpt>
      <trkpt lat="40.7835350" lon="-2.3306450">
        <ele>980.2</ele>
        <time>2019-07-06T11:24:10Z</time>
      </trkpt>
      <trkpt lat="40.7835130" lon="-2.3306780">
        <ele>980.6</ele>
        <time>2019-07-06T11:24:11Z</time>
      </trkpt>
      <trkpt lat="40.7834690" lon="-2.3307420">
        <ele>981.2</ele>
        <time>2019-07-06T11:24:13Z</time>
      </trkpt>
      <trkpt lat="40.7833900" lon="-2.3308360">
        <ele>981.6</ele>
        <time>2019-07-06T11:24:16Z</time>
      </trkpt>
      <trkpt lat="40.7832780" lon="-2.3310590">
        <ele>982.0</ele>
        <time>2019-07-06T11:24:22Z</time>
      </trkpt>
      <trkpt lat="40.7832440" lon="-2.3312860">
        <ele>981.8</ele>
        <time>2019-07-06T11:24:27Z</time>
      </trkpt>
      <trkpt lat="40.7831980" lon="-2.3315450">
        <ele>982.2</ele>
        <time>2019-07-06T11:24:33Z</time>
      </trkpt>
      <trkpt lat="40.7831090" lon="-2.3316940">
        <ele>983.4</ele>
        <time>2019-07-06T11:24:38Z</time>
      </trkpt>
      <trkpt lat="40.7830830" lon="-2.3317170">
        <ele>983.6</ele>
        <time>2019-07-06T11:24:39Z</time>
      </trkpt>
      <trkpt lat="40.7829250" lon="-2.3318280">
        <ele>984.6</ele>
        <time>2019-07-06T11:24:45Z</time>
      </trkpt>
      <trkpt lat="40.7828610" lon="-2.3318520">
        <ele>984.8</ele>
        <time>2019-07-06T11:24:47Z</time>
      </trkpt>
      <trkpt lat="40.7827710" lon="-2.3318810">
        <ele>985.6</ele>
        <time>2019-07-06T11:24:50Z</time>
      </trkpt>
      <trkpt lat="40.7826870" lon="-2.3318910">
        <ele>985.8</ele>
        <time>2019-07-06T11:24:53Z</time>
      </trkpt>
      <trkpt lat="40.7825300" lon="-2.3318740">
        <ele>986.2</ele>
        <time>2019-07-06T11:24:59Z</time>
      </trkpt>
      <trkpt lat="40.7824390" lon="-2.3318280">
        <ele>986.8</ele>
        <time>2019-07-06T11:25:03Z</time>
      </trkpt>
      <trkpt lat="40.7823800" lon="-2.3317930">
        <ele>987.2</ele>
        <time>2019-07-06T11:25:06Z</time>
      </trkpt>
      <trkpt lat="40.7823240" lon="-2.3317600">
        <ele>988.0</ele>
        <time>2019-07-06T11:25:09Z</time>
      </trkpt>
      <trkpt lat="40.7822620" lon="-2.3317190">
        <ele>988.6</ele>
        <time>2019-07-06T11:25:12Z</time>
      </trkpt>
      <trkpt lat="40.7822230" lon="-2.3316800">
        <ele>989.0</ele>
        <time>2019-07-06T11:25:14Z</time>
      </trkpt>
      <trkpt lat="40.7821240" lon="-2.3315990">
        <ele>989.6</ele>
        <time>2019-07-06T11:25:18Z</time>
      </trkpt>
      <trkpt lat="40.7820130" lon="-2.3314560">
        <ele>990.2</ele>
        <time>2019-07-06T11:25:23Z</time>
      </trkpt>
      <trkpt lat="40.7819880" lon="-2.3314240">
        <ele>990.4</ele>
        <time>2019-07-06T11:25:24Z</time>
      </trkpt>
      <trkpt lat="40.7818870" lon="-2.3312160">
        <ele>990.4</ele>
        <time>2019-07-06T11:25:29Z</time>
      </trkpt>
      <trkpt lat="40.7817370" lon="-2.3309450">
        <ele>991.0</ele>
        <time>2019-07-06T11:25:36Z</time>
      </trkpt>
      <trkpt lat="40.7817190" lon="-2.3309090">
        <ele>991.2</ele>
        <time>2019-07-06T11:25:37Z</time>
      </trkpt>
      <trkpt lat="40.7816360" lon="-2.3307390">
        <ele>991.8</ele>
        <time>2019-07-06T11:25:42Z</time>
      </trkpt>
      <trkpt lat="40.7815670" lon="-2.3306390">
        <ele>992.6</ele>
        <time>2019-07-06T11:25:46Z</time>
      </trkpt>
      <trkpt lat="40.7815300" lon="-2.3306090">
        <ele>993.4</ele>
        <time>2019-07-06T11:25:48Z</time>
      </trkpt>
      <trkpt lat="40.7814870" lon="-2.3305880">
        <ele>993.8</ele>
        <time>2019-07-06T11:25:50Z</time>
      </trkpt>
      <trkpt lat="40.7814020" lon="-2.3305980">
        <ele>995.0</ele>
        <time>2019-07-06T11:25:53Z</time>
      </trkpt>
      <trkpt lat="40.7813510" lon="-2.3306240">
        <ele>995.4</ele>
        <time>2019-07-06T11:25:55Z</time>
      </trkpt>
      <trkpt lat="40.7812180" lon="-2.3306860">
        <ele>995.8</ele>
        <time>2019-07-06T11:26:00Z</time>
      </trkpt>
      <trkpt lat="40.7811920" lon="-2.3306940">
        <ele>996.0</ele>
        <time>2019-07-06T11:26:01Z</time>
      </trkpt>
      <trkpt lat="40.7810470" lon="-2.3307100">
        <ele>997.0</ele>
        <time>2019-07-06T11:26:07Z</time>
      </trkpt>
      <trkpt lat="40.7810220" lon="-2.3307110">
        <ele>997.4</ele>
        <time>2019-07-06T11:26:08Z</time>
      </trkpt>
      <trkpt lat="40.7809460" lon="-2.3307000">
        <ele>998.4</ele>
        <time>2019-07-06T11:26:12Z</time>
      </trkpt>
      <trkpt lat="40.7808390" lon="-2.3306520">
        <ele>999.6</ele>
        <time>2019-07-06T11:26:17Z</time>
      </trkpt>
      <trkpt lat="40.7808190" lon="-2.3306430">
        <ele>999.8</ele>
        <time>2019-07-06T11:26:18Z</time>
      </trkpt>
      <trkpt lat="40.7807270" lon="-2.3305930">
        <ele>1001.0</ele>
        <time>2019-07-06T11:26:23Z</time>
      </trkpt>
      <trkpt lat="40.7807060" lon="-2.3305840">
        <ele>1001.0</ele>
        <time>2019-07-06T11:26:24Z</time>
      </trkpt>
      <trkpt lat="40.7806220" lon="-2.3305620">
        <ele>1002.2</ele>
        <time>2019-07-06T11:26:28Z</time>
      </trkpt>
      <trkpt lat="40.7805790" lon="-2.3305530">
        <ele>1003.4</ele>
        <time>2019-07-06T11:26:30Z</time>
      </trkpt>
      <trkpt lat="40.7805510" lon="-2.3305460">
        <ele>1003.8</ele>
        <time>2019-07-06T11:26:31Z</time>
      </trkpt>
      <trkpt lat="40.7804010" lon="-2.3305500">
        <ele>1003.2</ele>
        <time>2019-07-06T11:26:36Z</time>
      </trkpt>
      <trkpt lat="40.7802290" lon="-2.3305550">
        <ele>1003.6</ele>
        <time>2019-07-06T11:26:42Z</time>
      </trkpt>
      <trkpt lat="40.7800430" lon="-2.3305640">
        <ele>1004.0</ele>
        <time>2019-07-06T11:26:48Z</time>
      </trkpt>
      <trkpt lat="40.7799810" lon="-2.3305700">
        <ele>1004.4</ele>
        <time>2019-07-06T11:26:50Z</time>
      </trkpt>
      <trkpt lat="40.7798840" lon="-2.3305750">
        <ele>1005.8</ele>
        <time>2019-07-06T11:26:54Z</time>
      </trkpt>
      <trkpt lat="40.7798390" lon="-2.3305790">
        <ele>1006.6</ele>
        <time>2019-07-06T11:26:56Z</time>
      </trkpt>
      <trkpt lat="40.7797880" lon="-2.3305830">
        <ele>1007.0</ele>
        <time>2019-07-06T11:26:58Z</time>
      </trkpt>
      <trkpt lat="40.7796900" lon="-2.3306000">
        <ele>1008.0</ele>
        <time>2019-07-06T11:27:02Z</time>
      </trkpt>
      <trkpt lat="40.7796470" lon="-2.3306050">
        <ele>1008.2</ele>
        <time>2019-07-06T11:27:04Z</time>
      </trkpt>
      <trkpt lat="40.7795340" lon="-2.3306180">
        <ele>1009.4</ele>
        <time>2019-07-06T11:27:09Z</time>
      </trkpt>
      <trkpt lat="40.7794770" lon="-2.3306290">
        <ele>1009.8</ele>
        <time>2019-07-06T11:27:12Z</time>
      </trkpt>
      <trkpt lat="40.7794350" lon="-2.3306300">
        <ele>1010.4</ele>
        <time>2019-07-06T11:27:14Z</time>
      </trkpt>
      <trkpt lat="40.7793180" lon="-2.3306280">
        <ele>1011.4</ele>
        <time>2019-07-06T11:27:19Z</time>
      </trkpt>
      <trkpt lat="40.7792130" lon="-2.3306030">
        <ele>1012.4</ele>
        <time>2019-07-06T11:27:24Z</time>
      </trkpt>
      <trkpt lat="40.7791620" lon="-2.3305750">
        <ele>1013.2</ele>
        <time>2019-07-06T11:27:27Z</time>
      </trkpt>
      <trkpt lat="40.7791300" lon="-2.3305540">
        <ele>1013.8</ele>
        <time>2019-07-06T11:27:29Z</time>
      </trkpt>
      <trkpt lat="40.7790770" lon="-2.3304910">
        <ele>1015.0</ele>
        <time>2019-07-06T11:27:33Z</time>
      </trkpt>
      <trkpt lat="40.7790670" lon="-2.3304740">
        <ele>1015.2</ele>
        <time>2019-07-06T11:27:34Z</time>
      </trkpt>
      <trkpt lat="40.7790500" lon="-2.3304370">
        <ele>1015.6</ele>
        <time>2019-07-06T11:27:36Z</time>
      </trkpt>
      <trkpt lat="40.7790250" lon="-2.3304020">
        <ele>1016.0</ele>
        <time>2019-07-06T11:27:38Z</time>
      </trkpt>
      <trkpt lat="40.7790090" lon="-2.3303870">
        <ele>1016.2</ele>
        <time>2019-07-06T11:27:39Z</time>
      </trkpt>
      <trkpt lat="40.7789370" lon="-2.3303480">
        <ele>1016.8</ele>
        <time>2019-07-06T11:27:43Z</time>
      </trkpt>
      <trkpt lat="40.7789170" lon="-2.3303380">
        <ele>1017.2</ele>
        <time>2019-07-06T11:27:44Z</time>
      </trkpt>
      <trkpt lat="40.7788950" lon="-2.3303310">
        <ele>1017.4</ele>
        <time>2019-07-06T11:27:45Z</time>
      </trkpt>
      <trkpt lat="40.7787230" lon="-2.3303080">
        <ele>1018.4</ele>
        <time>2019-07-06T11:27:52Z</time>
      </trkpt>
      <trkpt lat="40.7786990" lon="-2.3303070">
        <ele>1018.6</ele>
        <time>2019-07-06T11:27:53Z</time>
      </trkpt>
      <trkpt lat="40.7785800" lon="-2.3303020">
        <ele>1019.6</ele>
        <time>2019-07-06T11:27:58Z</time>
      </trkpt>
      <trkpt lat="40.7785110" lon="-2.3303160">
        <ele>1019.8</ele>
        <time>2019-07-06T11:28:01Z</time>
      </trkpt>
      <trkpt lat="40.7784150" lon="-2.3303440">
        <ele>1020.8</ele>
        <time>2019-07-06T11:28:05Z</time>
      </trkpt>
      <trkpt lat="40.7783670" lon="-2.3303600">
        <ele>1021.4</ele>
        <time>2019-07-06T11:28:07Z</time>
      </trkpt>
      <trkpt lat="40.7783120" lon="-2.3303750">
        <ele>1021.8</ele>
        <time>2019-07-06T11:28:09Z</time>
      </trkpt>
      <trkpt lat="40.7781680" lon="-2.3303800">
        <ele>1022.4</ele>
        <time>2019-07-06T11:28:14Z</time>
      </trkpt>
      <trkpt lat="40.7780530" lon="-2.3303460">
        <ele>1022.8</ele>
        <time>2019-07-06T11:28:18Z</time>
      </trkpt>
      <trkpt lat="40.7780000" lon="-2.3303180">
        <ele>1023.2</ele>
        <time>2019-07-06T11:28:20Z</time>
      </trkpt>
      <trkpt lat="40.7779020" lon="-2.3302520">
        <ele>1024.0</ele>
        <time>2019-07-06T11:28:24Z</time>
      </trkpt>
      <trkpt lat="40.7778500" lon="-2.3302180">
        <ele>1024.4</ele>
        <time>2019-07-06T11:28:26Z</time>
      </trkpt>
      <trkpt lat="40.7777560" lon="-2.3301420">
        <ele>1025.2</ele>
        <time>2019-07-06T11:28:30Z</time>
      </trkpt>
      <trkpt lat="40.7776840" lon="-2.3300680">
        <ele>1026.2</ele>
        <time>2019-07-06T11:28:34Z</time>
      </trkpt>
      <trkpt lat="40.7775600" lon="-2.3299420">
        <ele>1027.2</ele>
        <time>2019-07-06T11:28:41Z</time>
      </trkpt>
      <trkpt lat="40.7775460" lon="-2.3299200">
        <ele>1027.4</ele>
        <time>2019-07-06T11:28:42Z</time>
      </trkpt>
      <trkpt lat="40.7774790" lon="-2.3298300">
        <ele>1028.6</ele>
        <time>2019-07-06T11:28:46Z</time>
      </trkpt>
      <trkpt lat="40.7774530" lon="-2.3297770">
        <ele>1029.6</ele>
        <time>2019-07-06T11:28:48Z</time>
      </trkpt>
      <trkpt lat="40.7774340" lon="-2.3297160">
        <ele>1030.0</ele>
        <time>2019-07-06T11:28:50Z</time>
      </trkpt>
      <trkpt lat="40.7774030" lon="-2.3295410">
        <ele>1030.0</ele>
        <time>2019-07-06T11:28:55Z</time>
      </trkpt>
      <trkpt lat="40.7773730" lon="-2.3292680">
        <ele>1030.8</ele>
        <time>2019-07-06T11:29:02Z</time>
      </trkpt>
      <trkpt lat="40.7773660" lon="-2.3292330">
        <ele>1031.2</ele>
        <time>2019-07-06T11:29:03Z</time>
      </trkpt>
      <trkpt lat="40.7773010" lon="-2.3290650">
        <ele>1032.2</ele>
        <time>2019-07-06T11:29:08Z</time>
      </trkpt>
      <trkpt lat="40.7771470" lon="-2.3288660">
        <ele>1033.4</ele>
        <time>2019-07-06T11:29:15Z</time>
      </trkpt>
      <trkpt lat="40.7770650" lon="-2.3288070">
        <ele>1034.6</ele>
        <time>2019-07-06T11:29:18Z</time>
      </trkpt>
      <trkpt lat="40.7769690" lon="-2.3287510">
        <ele>1035.0</ele>
        <time>2019-07-06T11:29:21Z</time>
      </trkpt>
      <trkpt lat="40.7767660" lon="-2.3286330">
        <ele>1035.6</ele>
        <time>2019-07-06T11:29:27Z</time>
      </trkpt>
      <trkpt lat="40.7767310" lon="-2.3286120">
        <ele>1035.6</ele>
        <time>2019-07-06T11:29:28Z</time>
      </trkpt>
      <trkpt lat="40.7764570" lon="-2.3284610">
        <ele>1036.0</ele>
        <time>2019-07-06T11:29:35Z</time>
      </trkpt>
      <trkpt lat="40.7762300" lon="-2.3283400">
        <ele>1036.6</ele>
        <time>2019-07-06T11:29:42Z</time>
      </trkpt>
      <trkpt lat="40.7762020" lon="-2.3283250">
        <ele>1036.8</ele>
        <time>2019-07-06T11:29:43Z</time>
      </trkpt>
      <trkpt lat="40.7760960" lon="-2.3282630">
        <ele>1037.6</ele>
        <time>2019-07-06T11:29:47Z</time>
      </trkpt>
      <trkpt lat="40.7760220" lon="-2.3282110">
        <ele>1038.0</ele>
        <time>2019-07-06T11:29:50Z</time>
      </trkpt>
      <trkpt lat="40.7759710" lon="-2.3281720">
        <ele>1038.2</ele>
        <time>2019-07-06T11:29:52Z</time>
      </trkpt>
      <trkpt lat="40.7758910" lon="-2.3281130">
        <ele>1039.0</ele>
        <time>2019-07-06T11:29:55Z</time>
      </trkpt>
      <trkpt lat="40.7758410" lon="-2.3280660">
        <ele>1039.4</ele>
        <time>2019-07-06T11:29:57Z</time>
      </trkpt>
      <trkpt lat="40.7757460" lon="-2.3279950">
        <ele>1040.2</ele>
        <time>2019-07-06T11:30:01Z</time>
      </trkpt>
      <trkpt lat="40.7756700" lon="-2.3279350">
        <ele>1040.8</ele>
        <time>2019-07-06T11:30:04Z</time>
      </trkpt>
      <trkpt lat="40.7755600" lon="-2.3278740">
        <ele>1041.4</ele>
        <time>2019-07-06T11:30:08Z</time>
      </trkpt>
      <trkpt lat="40.7755040" lon="-2.3278510">
        <ele>1041.6</ele>
        <time>2019-07-06T11:30:10Z</time>
      </trkpt>
      <trkpt lat="40.7753360" lon="-2.3278070">
        <ele>1042.2</ele>
        <time>2019-07-06T11:30:15Z</time>
      </trkpt>
      <trkpt lat="40.7751680" lon="-2.3277620">
        <ele>1042.6</ele>
        <time>2019-07-06T11:30:20Z</time>
      </trkpt>
      <trkpt lat="40.7750220" lon="-2.3277260">
        <ele>1043.0</ele>
        <time>2019-07-06T11:30:24Z</time>
      </trkpt>
      <trkpt lat="40.7747680" lon="-2.3276470">
        <ele>1043.0</ele>
        <time>2019-07-06T11:30:31Z</time>
      </trkpt>
      <trkpt lat="40.7745990" lon="-2.3276120">
        <ele>1043.8</ele>
        <time>2019-07-06T11:30:36Z</time>
      </trkpt>
      <trkpt lat="40.7743500" lon="-2.3275930">
        <ele>1044.6</ele>
        <time>2019-07-06T11:30:43Z</time>
      </trkpt>
      <trkpt lat="40.7741580" lon="-2.3275030">
        <ele>1045.8</ele>
        <time>2019-07-06T11:30:50Z</time>
      </trkpt>
      <trkpt lat="40.7740420" lon="-2.3274100">
        <ele>1047.0</ele>
        <time>2019-07-06T11:30:55Z</time>
      </trkpt>
      <trkpt lat="40.7740200" lon="-2.3273920">
        <ele>1047.0</ele>
        <time>2019-07-06T11:30:56Z</time>
      </trkpt>
      <trkpt lat="40.7738350" lon="-2.3272360">
        <ele>1047.6</ele>
        <time>2019-07-06T11:31:04Z</time>
      </trkpt>
      <trkpt lat="40.7737930" lon="-2.3271870">
        <ele>1048.0</ele>
        <time>2019-07-06T11:31:06Z</time>
      </trkpt>
      <trkpt lat="40.7736930" lon="-2.3270610">
        <ele>1048.4</ele>
        <time>2019-07-06T11:31:11Z</time>
      </trkpt>
      <trkpt lat="40.7736220" lon="-2.3269610">
        <ele>1049.2</ele>
        <time>2019-07-06T11:31:15Z</time>
      </trkpt>
      <trkpt lat="40.7735860" lon="-2.3269160">
        <ele>1049.6</ele>
        <time>2019-07-06T11:31:17Z</time>
      </trkpt>
      <trkpt lat="40.7734830" lon="-2.3268020">
        <ele>1050.6</ele>
        <time>2019-07-06T11:31:22Z</time>
      </trkpt>
      <trkpt lat="40.7734100" lon="-2.3267310">
        <ele>1051.0</ele>
        <time>2019-07-06T11:31:25Z</time>
      </trkpt>
      <trkpt lat="40.7732610" lon="-2.3266270">
        <ele>1051.0</ele>
        <time>2019-07-06T11:31:31Z</time>
      </trkpt>
      <trkpt lat="40.7730950" lon="-2.3265610">
        <ele>1051.2</ele>
        <time>2019-07-06T11:31:36Z</time>
      </trkpt>
      <trkpt lat="40.7730150" lon="-2.3265270">
        <ele>1051.6</ele>
        <time>2019-07-06T11:31:39Z</time>
      </trkpt>
      <trkpt lat="40.7729310" lon="-2.3264990">
        <ele>1052.2</ele>
        <time>2019-07-06T11:31:42Z</time>
      </trkpt>
      <trkpt lat="40.7728390" lon="-2.3264590">
        <ele>1052.8</ele>
        <time>2019-07-06T11:31:45Z</time>
      </trkpt>
      <trkpt lat="40.7727400" lon="-2.3263980">
        <ele>1053.2</ele>
        <time>2019-07-06T11:31:48Z</time>
      </trkpt>
      <trkpt lat="40.7725440" lon="-2.3262310">
        <ele>1052.8</ele>
        <time>2019-07-06T11:31:54Z</time>
      </trkpt>
      <trkpt lat="40.7723100" lon="-2.3259440">
        <ele>1053.8</ele>
        <time>2019-07-06T11:32:02Z</time>
      </trkpt>
      <trkpt lat="40.7721400" lon="-2.3258400">
        <ele>1055.0</ele>
        <time>2019-07-06T11:32:07Z</time>
      </trkpt>
      <trkpt lat="40.7719420" lon="-2.3258680">
        <ele>1055.2</ele>
        <time>2019-07-06T11:32:12Z</time>
      </trkpt>
      <trkpt lat="40.7717030" lon="-2.3259080">
        <ele>1055.4</ele>
        <time>2019-07-06T11:32:18Z</time>
      </trkpt>
      <trkpt lat="40.7714630" lon="-2.3258980">
        <ele>1055.4</ele>
        <time>2019-07-06T11:32:23Z</time>
      </trkpt>
      <trkpt lat="40.7714050" lon="-2.3258870">
        <ele>1055.2</ele>
        <time>2019-07-06T11:32:24Z</time>
      </trkpt>
      <trkpt lat="40.7710480" lon="-2.3258070">
        <ele>1054.0</ele>
        <time>2019-07-06T11:32:30Z</time>
      </trkpt>
      <trkpt lat="40.7708080" lon="-2.3257290">
        <ele>1053.8</ele>
        <time>2019-07-06T11:32:34Z</time>
      </trkpt>
      <trkpt lat="40.7707490" lon="-2.3257080">
        <ele>1053.4</ele>
        <time>2019-07-06T11:32:35Z</time>
      </trkpt>
      <trkpt lat="40.7705700" lon="-2.3256530">
        <ele>1053.0</ele>
        <time>2019-07-06T11:32:38Z</time>
      </trkpt>
      <trkpt lat="40.7704490" lon="-2.3256170">
        <ele>1052.4</ele>
        <time>2019-07-06T11:32:40Z</time>
      </trkpt>
      <trkpt lat="40.7702790" lon="-2.3255870">
        <ele>1052.6</ele>
        <time>2019-07-06T11:32:43Z</time>
      </trkpt>
      <trkpt lat="40.7702270" lon="-2.3255820">
        <ele>1052.6</ele>
        <time>2019-07-06T11:32:44Z</time>
      </trkpt>
      <trkpt lat="40.7700720" lon="-2.3255600">
        <ele>1052.8</ele>
        <time>2019-07-06T11:32:47Z</time>
      </trkpt>
      <trkpt lat="40.7699670" lon="-2.3255210">
        <ele>1053.0</ele>
        <time>2019-07-06T11:32:49Z</time>
      </trkpt>
      <trkpt lat="40.7698700" lon="-2.3254610">
        <ele>1053.2</ele>
        <time>2019-07-06T11:32:51Z</time>
      </trkpt>
      <trkpt lat="40.7697230" lon="-2.3253710">
        <ele>1053.4</ele>
        <time>2019-07-06T11:32:54Z</time>
      </trkpt>
      <trkpt lat="40.7696690" lon="-2.3253490">
        <ele>1053.4</ele>
        <time>2019-07-06T11:32:55Z</time>
      </trkpt>
      <trkpt lat="40.7695040" lon="-2.3253390">
        <ele>1053.6</ele>
        <time>2019-07-06T11:32:58Z</time>
      </trkpt>
      <trkpt lat="40.7694520" lon="-2.3253440">
        <ele>1053.8</ele>
        <time>2019-07-06T11:32:59Z</time>
      </trkpt>
      <trkpt lat="40.7692360" lon="-2.3253820">
        <ele>1054.2</ele>
        <time>2019-07-06T11:33:03Z</time>
      </trkpt>
      <trkpt lat="40.7691310" lon="-2.3254090">
        <ele>1054.2</ele>
        <time>2019-07-06T11:33:05Z</time>
      </trkpt>
      <trkpt lat="40.7688900" lon="-2.3254770">
        <ele>1054.6</ele>
        <time>2019-07-06T11:33:10Z</time>
      </trkpt>
      <trkpt lat="40.7688450" lon="-2.3254990">
        <ele>1054.6</ele>
        <time>2019-07-06T11:33:11Z</time>
      </trkpt>
      <trkpt lat="40.7688020" lon="-2.3255190">
        <ele>1054.8</ele>
        <time>2019-07-06T11:33:12Z</time>
      </trkpt>
      <trkpt lat="40.7687560" lon="-2.3255430">
        <ele>1054.8</ele>
        <time>2019-07-06T11:33:13Z</time>
      </trkpt>
      <trkpt lat="40.7685680" lon="-2.3256200">
        <ele>1055.2</ele>
        <time>2019-07-06T11:33:17Z</time>
      </trkpt>
      <trkpt lat="40.7684550" lon="-2.3256240">
        <ele>1056.0</ele>
        <time>2019-07-06T11:33:20Z</time>
      </trkpt>
      <trkpt lat="40.7684210" lon="-2.3256240">
        <ele>1056.4</ele>
        <time>2019-07-06T11:33:21Z</time>
      </trkpt>
      <trkpt lat="40.7683610" lon="-2.3256120">
        <ele>1057.2</ele>
        <time>2019-07-06T11:33:23Z</time>
      </trkpt>
      <trkpt lat="40.7683370" lon="-2.3256000">
        <ele>1057.4</ele>
        <time>2019-07-06T11:33:24Z</time>
      </trkpt>
      <trkpt lat="40.7682770" lon="-2.3255910">
        <ele>1057.8</ele>
        <time>2019-07-06T11:33:26Z</time>
      </trkpt>
      <trkpt lat="40.7682200" lon="-2.3255770">
        <ele>1058.2</ele>
        <time>2019-07-06T11:33:28Z</time>
      </trkpt>
      <trkpt lat="40.7681360" lon="-2.3255630">
        <ele>1058.8</ele>
        <time>2019-07-06T11:33:31Z</time>
      </trkpt>
      <trkpt lat="40.7680290" lon="-2.3255340">
        <ele>1059.2</ele>
        <time>2019-07-06T11:33:35Z</time>
      </trkpt>
      <trkpt lat="40.7680030" lon="-2.3255230">
        <ele>1059.2</ele>
        <time>2019-07-06T11:33:36Z</time>
      </trkpt>
      <trkpt lat="40.7678550" lon="-2.3254820">
        <ele>1059.8</ele>
        <time>2019-07-06T11:33:41Z</time>
      </trkpt>
      <trkpt lat="40.7676660" lon="-2.3254410">
        <ele>1060.4</ele>
        <time>2019-07-06T11:33:47Z</time>
      </trkpt>
      <trkpt lat="40.7675510" lon="-2.3254180">
        <ele>1061.6</ele>
        <time>2019-07-06T11:33:52Z</time>
      </trkpt>
      <trkpt lat="40.7674460" lon="-2.3253890">
        <ele>1062.6</ele>
        <time>2019-07-06T11:33:57Z</time>
      </trkpt>
      <trkpt lat="40.7674270" lon="-2.3253800">
        <ele>1062.6</ele>
        <time>2019-07-06T11:33:58Z</time>
      </trkpt>
      <trkpt lat="40.7673010" lon="-2.3253200">
        <ele>1063.2</ele>
        <time>2019-07-06T11:34:04Z</time>
      </trkpt>
      <trkpt lat="40.7672550" lon="-2.3253070">
        <ele>1063.4</ele>
        <time>2019-07-06T11:34:06Z</time>
      </trkpt>
      <trkpt lat="40.7671610" lon="-2.3252650">
        <ele>1063.8</ele>
        <time>2019-07-06T11:34:10Z</time>
      </trkpt>
      <trkpt lat="40.7670260" lon="-2.3252070">
        <ele>1064.4</ele>
        <time>2019-07-06T11:34:16Z</time>
      </trkpt>
      <trkpt lat="40.7670050" lon="-2.3252060">
        <ele>1064.8</ele>
        <time>2019-07-06T11:34:17Z</time>
      </trkpt>
      <trkpt lat="40.7669620" lon="-2.3252130">
        <ele>1065.6</ele>
        <time>2019-07-06T11:34:19Z</time>
      </trkpt>
      <trkpt lat="40.7669380" lon="-2.3252030">
        <ele>1066.0</ele>
        <time>2019-07-06T11:34:20Z</time>
      </trkpt>
      <trkpt lat="40.7668630" lon="-2.3251620">
        <ele>1066.6</ele>
        <time>2019-07-06T11:34:23Z</time>
      </trkpt>
      <trkpt lat="40.7667910" lon="-2.3251200">
        <ele>1067.2</ele>
        <time>2019-07-06T11:34:25Z</time>
      </trkpt>
      <trkpt lat="40.7666360" lon="-2.3250380">
        <ele>1067.4</ele>
        <time>2019-07-06T11:34:31Z</time>
      </trkpt>
      <trkpt lat="40.7665930" lon="-2.3250190">
        <ele>1067.6</ele>
        <time>2019-07-06T11:34:32Z</time>
      </trkpt>
      <trkpt lat="40.7664500" lon="-2.3249220">
        <ele>1068.8</ele>
        <time>2019-07-06T11:34:36Z</time>
      </trkpt>
      <trkpt lat="40.7663370" lon="-2.3248550">
        <ele>1069.6</ele>
        <time>2019-07-06T11:34:40Z</time>
      </trkpt>
      <trkpt lat="40.7662790" lon="-2.3248160">
        <ele>1069.8</ele>
        <time>2019-07-06T11:34:42Z</time>
      </trkpt>
      <trkpt lat="40.7661050" lon="-2.3246470">
        <ele>1070.2</ele>
        <time>2019-07-06T11:34:48Z</time>
      </trkpt>
      <trkpt lat="40.7659400" lon="-2.3244540">
        <ele>1070.4</ele>
        <time>2019-07-06T11:34:54Z</time>
      </trkpt>
      <trkpt lat="40.7658300" lon="-2.3242630">
        <ele>1071.0</ele>
        <time>2019-07-06T11:34:59Z</time>
      </trkpt>
      <trkpt lat="40.7657890" lon="-2.3241840">
        <ele>1071.4</ele>
        <time>2019-07-06T11:35:01Z</time>
      </trkpt>
      <trkpt lat="40.7657440" lon="-2.3240540">
        <ele>1071.6</ele>
        <time>2019-07-06T11:35:04Z</time>
      </trkpt>
      <trkpt lat="40.7657020" lon="-2.3238830">
        <ele>1072.0</ele>
        <time>2019-07-06T11:35:09Z</time>
      </trkpt>
      <trkpt lat="40.7656830" lon="-2.3237940">
        <ele>1072.4</ele>
        <time>2019-07-06T11:35:12Z</time>
      </trkpt>
      <trkpt lat="40.7656530" lon="-2.3237480">
        <ele>1072.8</ele>
        <time>2019-07-06T11:35:14Z</time>
      </trkpt>
      <trkpt lat="40.7656420" lon="-2.3237200">
        <ele>1073.2</ele>
        <time>2019-07-06T11:35:15Z</time>
      </trkpt>
      <trkpt lat="40.7656020" lon="-2.3235940">
        <ele>1073.8</ele>
        <time>2019-07-06T11:35:19Z</time>
      </trkpt>
      <trkpt lat="40.7655400" lon="-2.3234620">
        <ele>1074.8</ele>
        <time>2019-07-06T11:35:23Z</time>
      </trkpt>
      <trkpt lat="40.7655090" lon="-2.3234010">
        <ele>1075.2</ele>
        <time>2019-07-06T11:35:25Z</time>
      </trkpt>
      <trkpt lat="40.7654770" lon="-2.3233500">
        <ele>1075.8</ele>
        <time>2019-07-06T11:35:27Z</time>
      </trkpt>
      <trkpt lat="40.7654330" lon="-2.3232710">
        <ele>1076.4</ele>
        <time>2019-07-06T11:35:30Z</time>
      </trkpt>
      <trkpt lat="40.7653180" lon="-2.3230470">
        <ele>1076.8</ele>
        <time>2019-07-06T11:35:37Z</time>
      </trkpt>
      <trkpt lat="40.7652200" lon="-2.3228430">
        <ele>1078.0</ele>
        <time>2019-07-06T11:35:43Z</time>
      </trkpt>
      <trkpt lat="40.7651210" lon="-2.3226790">
        <ele>1078.6</ele>
        <time>2019-07-06T11:35:49Z</time>
      </trkpt>
      <trkpt lat="40.7650930" lon="-2.3226250">
        <ele>1078.8</ele>
        <time>2019-07-06T11:35:51Z</time>
      </trkpt>
      <trkpt lat="40.7650250" lon="-2.3225210">
        <ele>1079.8</ele>
        <time>2019-07-06T11:35:55Z</time>
      </trkpt>
      <trkpt lat="40.7650090" lon="-2.3224980">
        <ele>1080.0</ele>
        <time>2019-07-06T11:35:56Z</time>
      </trkpt>
      <trkpt lat="40.7649480" lon="-2.3223950">
        <ele>1081.0</ele>
        <time>2019-07-06T11:36:00Z</time>
      </trkpt>
      <trkpt lat="40.7649130" lon="-2.3223510">
        <ele>1081.4</ele>
        <time>2019-07-06T11:36:02Z</time>
      </trkpt>
      <trkpt lat="40.7648620" lon="-2.3222830">
        <ele>1082.4</ele>
        <time>2019-07-06T11:36:05Z</time>
      </trkpt>
      <trkpt lat="40.7648110" lon="-2.3222420">
        <ele>1083.0</ele>
        <time>2019-07-06T11:36:08Z</time>
      </trkpt>
      <trkpt lat="40.7647570" lon="-2.3221980">
        <ele>1083.4</ele>
        <time>2019-07-06T11:36:11Z</time>
      </trkpt>
      <trkpt lat="40.7646790" lon="-2.3221400">
        <ele>1084.0</ele>
        <time>2019-07-06T11:36:15Z</time>
      </trkpt>
      <trkpt lat="40.7646190" lon="-2.3220950">
        <ele>1084.6</ele>
        <time>2019-07-06T11:36:18Z</time>
      </trkpt>
      <trkpt lat="40.7645170" lon="-2.3220090">
        <ele>1084.8</ele>
        <time>2019-07-06T11:36:23Z</time>
      </trkpt>
      <trkpt lat="40.7644560" lon="-2.3219530">
        <ele>1085.6</ele>
        <time>2019-07-06T11:36:26Z</time>
      </trkpt>
      <trkpt lat="40.7643200" lon="-2.3218350">
        <ele>1086.4</ele>
        <time>2019-07-06T11:36:32Z</time>
      </trkpt>
      <trkpt lat="40.7643000" lon="-2.3218160">
        <ele>1086.8</ele>
        <time>2019-07-06T11:36:33Z</time>
      </trkpt>
      <trkpt lat="40.7642120" lon="-2.3217470">
        <ele>1087.6</ele>
        <time>2019-07-06T11:36:37Z</time>
      </trkpt>
      <trkpt lat="40.7641370" lon="-2.3216980">
        <ele>1087.8</ele>
        <time>2019-07-06T11:36:40Z</time>
      </trkpt>
      <trkpt lat="40.7640550" lon="-2.3216500">
        <ele>1088.4</ele>
        <time>2019-07-06T11:36:43Z</time>
      </trkpt>
      <trkpt lat="40.7639690" lon="-2.3215990">
        <ele>1088.8</ele>
        <time>2019-07-06T11:36:46Z</time>
      </trkpt>
      <trkpt lat="40.7639120" lon="-2.3215790">
        <ele>1089.6</ele>
        <time>2019-07-06T11:36:48Z</time>
      </trkpt>
      <trkpt lat="40.7638470" lon="-2.3215680">
        <ele>1090.0</ele>
        <time>2019-07-06T11:36:50Z</time>
      </trkpt>
      <trkpt lat="40.7637110" lon="-2.3215810">
        <ele>1091.0</ele>
        <time>2019-07-06T11:36:54Z</time>
      </trkpt>
      <trkpt lat="40.7636770" lon="-2.3215860">
        <ele>1091.2</ele>
        <time>2019-07-06T11:36:55Z</time>
      </trkpt>
      <trkpt lat="40.7635210" lon="-2.3216070">
        <ele>1092.0</ele>
        <time>2019-07-06T11:37:00Z</time>
      </trkpt>
      <trkpt lat="40.7634930" lon="-2.3216070">
        <ele>1092.2</ele>
        <time>2019-07-06T11:37:01Z</time>
      </trkpt>
      <trkpt lat="40.7633630" lon="-2.3216100">
        <ele>1093.0</ele>
        <time>2019-07-06T11:37:05Z</time>
      </trkpt>
      <trkpt lat="40.7632290" lon="-2.3215920">
        <ele>1093.2</ele>
        <time>2019-07-06T11:37:09Z</time>
      </trkpt>
      <trkpt lat="40.7631940" lon="-2.3215880">
        <ele>1093.4</ele>
        <time>2019-07-06T11:37:10Z</time>
      </trkpt>
      <trkpt lat="40.7629930" lon="-2.3215110">
        <ele>1094.2</ele>
        <time>2019-07-06T11:37:16Z</time>
      </trkpt>
      <trkpt lat="40.7628420" lon="-2.3213960">
        <ele>1094.6</ele>
        <time>2019-07-06T11:37:21Z</time>
      </trkpt>
      <trkpt lat="40.7627560" lon="-2.3213230">
        <ele>1095.4</ele>
        <time>2019-07-06T11:37:24Z</time>
      </trkpt>
      <trkpt lat="40.7627020" lon="-2.3212660">
        <ele>1095.6</ele>
        <time>2019-07-06T11:37:26Z</time>
      </trkpt>
      <trkpt lat="40.7625270" lon="-2.3211470">
        <ele>1095.8</ele>
        <time>2019-07-06T11:37:32Z</time>
      </trkpt>
      <trkpt lat="40.7623780" lon="-2.3211380">
        <ele>1096.4</ele>
        <time>2019-07-06T11:37:37Z</time>
      </trkpt>
      <trkpt lat="40.7622480" lon="-2.3211380">
        <ele>1096.8</ele>
        <time>2019-07-06T11:37:41Z</time>
      </trkpt>
      <trkpt lat="40.7621220" lon="-2.3211410">
        <ele>1097.4</ele>
        <time>2019-07-06T11:37:45Z</time>
      </trkpt>
      <trkpt lat="40.7619640" lon="-2.3211490">
        <ele>1098.2</ele>
        <time>2019-07-06T11:37:50Z</time>
      </trkpt>
      <trkpt lat="40.7619330" lon="-2.3211530">
        <ele>1098.4</ele>
        <time>2019-07-06T11:37:51Z</time>
      </trkpt>
      <trkpt lat="40.7618140" lon="-2.3211650">
        <ele>1099.2</ele>
        <time>2019-07-06T11:37:55Z</time>
      </trkpt>
      <trkpt lat="40.7617330" lon="-2.3211660">
        <ele>1099.6</ele>
        <time>2019-07-06T11:37:58Z</time>
      </trkpt>
      <trkpt lat="40.7616400" lon="-2.3211660">
        <ele>1100.6</ele>
        <time>2019-07-06T11:38:02Z</time>
      </trkpt>
      <trkpt lat="40.7614910" lon="-2.3211700">
        <ele>1101.6</ele>
        <time>2019-07-06T11:38:08Z</time>
      </trkpt>
      <trkpt lat="40.7613590" lon="-2.3211500">
        <ele>1102.6</ele>
        <time>2019-07-06T11:38:13Z</time>
      </trkpt>
      <trkpt lat="40.7613320" lon="-2.3211410">
        <ele>1102.6</ele>
        <time>2019-07-06T11:38:14Z</time>
      </trkpt>
      <trkpt lat="40.7612210" lon="-2.3210820">
        <ele>1103.6</ele>
        <time>2019-07-06T11:38:19Z</time>
      </trkpt>
      <trkpt lat="40.7611990" lon="-2.3210660">
        <ele>1104.2</ele>
        <time>2019-07-06T11:38:20Z</time>
      </trkpt>
      <trkpt lat="40.7611290" lon="-2.3210180">
        <ele>1105.0</ele>
        <time>2019-07-06T11:38:23Z</time>
      </trkpt>
      <trkpt lat="40.7610610" lon="-2.3209700">
        <ele>1105.2</ele>
        <time>2019-07-06T11:38:26Z</time>
      </trkpt>
      <trkpt lat="40.7609160" lon="-2.3208990">
        <ele>1106.0</ele>
        <time>2019-07-06T11:38:32Z</time>
      </trkpt>
      <trkpt lat="40.7608920" lon="-2.3208910">
        <ele>1106.0</ele>
        <time>2019-07-06T11:38:33Z</time>
      </trkpt>
      <trkpt lat="40.7608180" lon="-2.3208520">
        <ele>1106.0</ele>
        <time>2019-07-06T11:38:36Z</time>
      </trkpt>
      <trkpt lat="40.7606910" lon="-2.3207980">
        <ele>1107.2</ele>
        <time>2019-07-06T11:38:41Z</time>
      </trkpt>
      <trkpt lat="40.7606680" lon="-2.3207850">
        <ele>1107.6</ele>
        <time>2019-07-06T11:38:42Z</time>
      </trkpt>
      <trkpt lat="40.7605370" lon="-2.3207380">
        <ele>1108.0</ele>
        <time>2019-07-06T11:38:47Z</time>
      </trkpt>
      <trkpt lat="40.7605110" lon="-2.3207230">
        <ele>1108.2</ele>
        <time>2019-07-06T11:38:48Z</time>
      </trkpt>
      <trkpt lat="40.7603670" lon="-2.3207010">
        <ele>1109.2</ele>
        <time>2019-07-06T11:38:53Z</time>
      </trkpt>
      <trkpt lat="40.7601980" lon="-2.3206540">
        <ele>1110.0</ele>
        <time>2019-07-06T11:38:59Z</time>
      </trkpt>
      <trkpt lat="40.7601650" lon="-2.3206470">
        <ele>1110.2</ele>
        <time>2019-07-06T11:39:00Z</time>
      </trkpt>
      <trkpt lat="40.7600030" lon="-2.3206090">
        <ele>1110.8</ele>
        <time>2019-07-06T11:39:06Z</time>
      </trkpt>
      <trkpt lat="40.7599500" lon="-2.3206040">
        <ele>1111.2</ele>
        <time>2019-07-06T11:39:08Z</time>
      </trkpt>
      <trkpt lat="40.7598080" lon="-2.3205930">
        <ele>1112.2</ele>
        <time>2019-07-06T11:39:13Z</time>
      </trkpt>
      <trkpt lat="40.7596290" lon="-2.3205940">
        <ele>1113.4</ele>
        <time>2019-07-06T11:39:20Z</time>
      </trkpt>
      <trkpt lat="40.7595280" lon="-2.3205830">
        <ele>1114.6</ele>
        <time>2019-07-06T11:39:24Z</time>
      </trkpt>
      <trkpt lat="40.7594630" lon="-2.3205890">
        <ele>1116.0</ele>
        <time>2019-07-06T11:39:27Z</time>
      </trkpt>
      <trkpt lat="40.7593250" lon="-2.3205940">
        <ele>1116.8</ele>
        <time>2019-07-06T11:39:33Z</time>
      </trkpt>
      <trkpt lat="40.7593040" lon="-2.3205910">
        <ele>1117.0</ele>
        <time>2019-07-06T11:39:34Z</time>
      </trkpt>
      <trkpt lat="40.7592150" lon="-2.3206020">
        <ele>1118.0</ele>
        <time>2019-07-06T11:39:38Z</time>
      </trkpt>
      <trkpt lat="40.7591480" lon="-2.3206240">
        <ele>1118.8</ele>
        <time>2019-07-06T11:39:41Z</time>
      </trkpt>
      <trkpt lat="40.7591110" lon="-2.3206350">
        <ele>1119.2</ele>
        <time>2019-07-06T11:39:43Z</time>
      </trkpt>
      <trkpt lat="40.7590320" lon="-2.3206720">
        <ele>1120.0</ele>
        <time>2019-07-06T11:39:47Z</time>
      </trkpt>
      <trkpt lat="40.7590100" lon="-2.3206810">
        <ele>1120.2</ele>
        <time>2019-07-06T11:39:48Z</time>
      </trkpt>
      <trkpt lat="40.7589390" lon="-2.3207000">
        <ele>1120.8</ele>
        <time>2019-07-06T11:39:52Z</time>
      </trkpt>
      <trkpt lat="40.7588880" lon="-2.3207000">
        <ele>1121.4</ele>
        <time>2019-07-06T11:39:55Z</time>
      </trkpt>
      <trkpt lat="40.7588530" lon="-2.3207010">
        <ele>1121.8</ele>
        <time>2019-07-06T11:39:57Z</time>
      </trkpt>
      <trkpt lat="40.7588000" lon="-2.3207200">
        <ele>1123.0</ele>
        <time>2019-07-06T11:39:59Z</time>
      </trkpt>
      <trkpt lat="40.7587310" lon="-2.3207350">
        <ele>1123.8</ele>
        <time>2019-07-06T11:40:02Z</time>
      </trkpt>
      <trkpt lat="40.7586860" lon="-2.3207580">
        <ele>1124.0</ele>
        <time>2019-07-06T11:40:04Z</time>
      </trkpt>
      <trkpt lat="40.7586230" lon="-2.3207880">
        <ele>1124.6</ele>
        <time>2019-07-06T11:40:07Z</time>
      </trkpt>
      <trkpt lat="40.7585760" lon="-2.3207990">
        <ele>1125.0</ele>
        <time>2019-07-06T11:40:09Z</time>
      </trkpt>
      <trkpt lat="40.7584900" lon="-2.3208350">
        <ele>1126.2</ele>
        <time>2019-07-06T11:40:13Z</time>
      </trkpt>
      <trkpt lat="40.7584320" lon="-2.3208560">
        <ele>1127.2</ele>
        <time>2019-07-06T11:40:16Z</time>
      </trkpt>
      <trkpt lat="40.7583870" lon="-2.3208750">
        <ele>1127.6</ele>
        <time>2019-07-06T11:40:18Z</time>
      </trkpt>
      <trkpt lat="40.7583100" lon="-2.3209100">
        <ele>1128.4</ele>
        <time>2019-07-06T11:40:21Z</time>
      </trkpt>
      <trkpt lat="40.7582220" lon="-2.3209520">
        <ele>1129.0</ele>
        <time>2019-07-06T11:40:24Z</time>
      </trkpt>
      <trkpt lat="40.7581470" lon="-2.3209830">
        <ele>1129.4</ele>
        <time>2019-07-06T11:40:27Z</time>
      </trkpt>
      <trkpt lat="40.7581060" lon="-2.3209990">
        <ele>1130.0</ele>
        <time>2019-07-06T11:40:29Z</time>
      </trkpt>
      <trkpt lat="40.7580550" lon="-2.3210190">
        <ele>1130.6</ele>
        <time>2019-07-06T11:40:31Z</time>
      </trkpt>
      <trkpt lat="40.7579880" lon="-2.3210510">
        <ele>1131.6</ele>
        <time>2019-07-06T11:40:34Z</time>
      </trkpt>
      <trkpt lat="40.7579450" lon="-2.3210610">
        <ele>1132.2</ele>
        <time>2019-07-06T11:40:36Z</time>
      </trkpt>
      <trkpt lat="40.7578120" lon="-2.3211010">
        <ele>1132.6</ele>
        <time>2019-07-06T11:40:42Z</time>
      </trkpt>
      <trkpt lat="40.7577240" lon="-2.3211200">
        <ele>1133.8</ele>
        <time>2019-07-06T11:40:46Z</time>
      </trkpt>
      <trkpt lat="40.7576720" lon="-2.3211280">
        <ele>1134.4</ele>
        <time>2019-07-06T11:40:48Z</time>
      </trkpt>
      <trkpt lat="40.7576200" lon="-2.3211400">
        <ele>1134.8</ele>
        <time>2019-07-06T11:40:50Z</time>
      </trkpt>
      <trkpt lat="40.7574750" lon="-2.3211650">
        <ele>1136.0</ele>
        <time>2019-07-06T11:40:56Z</time>
      </trkpt>
      <trkpt lat="40.7573430" lon="-2.3211830">
        <ele>1137.0</ele>
        <time>2019-07-06T11:41:01Z</time>
      </trkpt>
      <trkpt lat="40.7573160" lon="-2.3211840">
        <ele>1137.2</ele>
        <time>2019-07-06T11:41:02Z</time>
      </trkpt>
      <trkpt lat="40.7572190" lon="-2.3212000">
        <ele>1138.0</ele>
        <time>2019-07-06T11:41:06Z</time>
      </trkpt>
      <trkpt lat="40.7571500" lon="-2.3212110">
        <ele>1138.4</ele>
        <time>2019-07-06T11:41:09Z</time>
      </trkpt>
      <trkpt lat="40.7570890" lon="-2.3212180">
        <ele>1139.2</ele>
        <time>2019-07-06T11:41:12Z</time>
      </trkpt>
      <trkpt lat="40.7570540" lon="-2.3212350">
        <ele>1139.6</ele>
        <time>2019-07-06T11:41:14Z</time>
      </trkpt>
      <trkpt lat="40.7569900" lon="-2.3212700">
        <ele>1140.4</ele>
        <time>2019-07-06T11:41:17Z</time>
      </trkpt>
      <trkpt lat="40.7569250" lon="-2.3213090">
        <ele>1141.2</ele>
        <time>2019-07-06T11:41:20Z</time>
      </trkpt>
      <trkpt lat="40.7569030" lon="-2.3213240">
        <ele>1141.6</ele>
        <time>2019-07-06T11:41:21Z</time>
      </trkpt>
      <trkpt lat="40.7568460" lon="-2.3213560">
        <ele>1142.6</ele>
        <time>2019-07-06T11:41:24Z</time>
      </trkpt>
      <trkpt lat="40.7568020" lon="-2.3213690">
        <ele>1142.8</ele>
        <time>2019-07-06T11:41:26Z</time>
      </trkpt>
      <trkpt lat="40.7566810" lon="-2.3213950">
        <ele>1143.8</ele>
        <time>2019-07-06T11:41:31Z</time>
      </trkpt>
      <trkpt lat="40.7566310" lon="-2.3214090">
        <ele>1144.4</ele>
        <time>2019-07-06T11:41:33Z</time>
      </trkpt>
      <trkpt lat="40.7565770" lon="-2.3214160">
        <ele>1144.8</ele>
        <time>2019-07-06T11:41:35Z</time>
      </trkpt>
      <trkpt lat="40.7564800" lon="-2.3214210">
        <ele>1145.8</ele>
        <time>2019-07-06T11:41:39Z</time>
      </trkpt>
      <trkpt lat="40.7564550" lon="-2.3214190">
        <ele>1145.8</ele>
        <time>2019-07-06T11:41:40Z</time>
      </trkpt>
      <trkpt lat="40.7563300" lon="-2.3214020">
        <ele>1147.0</ele>
        <time>2019-07-06T11:41:45Z</time>
      </trkpt>
      <trkpt lat="40.7562790" lon="-2.3214040">
        <ele>1147.2</ele>
        <time>2019-07-06T11:41:47Z</time>
      </trkpt>
      <trkpt lat="40.7561320" lon="-2.3214320">
        <ele>1148.0</ele>
        <time>2019-07-06T11:41:53Z</time>
      </trkpt>
      <trkpt lat="40.7561120" lon="-2.3214460">
        <ele>1148.2</ele>
        <time>2019-07-06T11:41:54Z</time>
      </trkpt>
      <trkpt lat="40.7560470" lon="-2.3214990">
        <ele>1149.2</ele>
        <time>2019-07-06T11:41:57Z</time>
      </trkpt>
      <trkpt lat="40.7559630" lon="-2.3215790">
        <ele>1150.0</ele>
        <time>2019-07-06T11:42:01Z</time>
      </trkpt>
      <trkpt lat="40.7559430" lon="-2.3215990">
        <ele>1150.2</ele>
        <time>2019-07-06T11:42:02Z</time>
      </trkpt>
      <trkpt lat="40.7558210" lon="-2.3217180">
        <ele>1151.2</ele>
        <time>2019-07-06T11:42:08Z</time>
      </trkpt>
      <trkpt lat="40.7558040" lon="-2.3217400">
        <ele>1151.6</ele>
        <time>2019-07-06T11:42:09Z</time>
      </trkpt>
      <trkpt lat="40.7557200" lon="-2.3218270">
        <ele>1152.6</ele>
        <time>2019-07-06T11:42:13Z</time>
      </trkpt>
      <trkpt lat="40.7556990" lon="-2.3218460">
        <ele>1152.8</ele>
        <time>2019-07-06T11:42:14Z</time>
      </trkpt>
      <trkpt lat="40.7556390" lon="-2.3218900">
        <ele>1153.8</ele>
        <time>2019-07-06T11:42:17Z</time>
      </trkpt>
      <trkpt lat="40.7555970" lon="-2.3219030">
        <ele>1154.0</ele>
        <time>2019-07-06T11:42:19Z</time>
      </trkpt>
      <trkpt lat="40.7555530" lon="-2.3218930">
        <ele>1154.4</ele>
        <time>2019-07-06T11:42:21Z</time>
      </trkpt>
      <trkpt lat="40.7555010" lon="-2.3218690">
        <ele>1154.6</ele>
        <time>2019-07-06T11:42:23Z</time>
      </trkpt>
      <trkpt lat="40.7554810" lon="-2.3218490">
        <ele>1155.2</ele>
        <time>2019-07-06T11:42:24Z</time>
      </trkpt>
      <trkpt lat="40.7554400" lon="-2.3217230">
        <ele>1155.8</ele>
        <time>2019-07-06T11:42:28Z</time>
      </trkpt>
      <trkpt lat="40.7554450" lon="-2.3215780">
        <ele>1156.2</ele>
        <time>2019-07-06T11:42:32Z</time>
      </trkpt>
      <trkpt lat="40.7554450" lon="-2.3215470">
        <ele>1156.4</ele>
        <time>2019-07-06T11:42:33Z</time>
      </trkpt>
      <trkpt lat="40.7554500" lon="-2.3214510">
        <ele>1157.4</ele>
        <time>2019-07-06T11:42:36Z</time>
      </trkpt>
      <trkpt lat="40.7554500" lon="-2.3213770">
        <ele>1157.6</ele>
        <time>2019-07-06T11:42:38Z</time>
      </trkpt>
      <trkpt lat="40.7554450" lon="-2.3211990">
        <ele>1157.8</ele>
        <time>2019-07-06T11:42:43Z</time>
      </trkpt>
      <trkpt lat="40.7554000" lon="-2.3210830">
        <ele>1158.2</ele>
        <time>2019-07-06T11:42:47Z</time>
      </trkpt>
      <trkpt lat="40.7553720" lon="-2.3210270">
        <ele>1158.6</ele>
        <time>2019-07-06T11:42:49Z</time>
      </trkpt>
      <trkpt lat="40.7553270" lon="-2.3209430">
        <ele>1159.2</ele>
        <time>2019-07-06T11:42:52Z</time>
      </trkpt>
      <trkpt lat="40.7552700" lon="-2.3208780">
        <ele>1159.6</ele>
        <time>2019-07-06T11:42:55Z</time>
      </trkpt>
      <trkpt lat="40.7552000" lon="-2.3207630">
        <ele>1160.6</ele>
        <time>2019-07-06T11:43:00Z</time>
      </trkpt>
      <trkpt lat="40.7551860" lon="-2.3207410">
        <ele>1161.0</ele>
        <time>2019-07-06T11:43:01Z</time>
      </trkpt>
      <trkpt lat="40.7551430" lon="-2.3206720">
        <ele>1161.8</ele>
        <time>2019-07-06T11:43:04Z</time>
      </trkpt>
      <trkpt lat="40.7551180" lon="-2.3206250">
        <ele>1162.4</ele>
        <time>2019-07-06T11:43:06Z</time>
      </trkpt>
      <trkpt lat="40.7550930" lon="-2.3205760">
        <ele>1163.0</ele>
        <time>2019-07-06T11:43:08Z</time>
      </trkpt>
      <trkpt lat="40.7550560" lon="-2.3205000">
        <ele>1163.6</ele>
        <time>2019-07-06T11:43:11Z</time>
      </trkpt>
      <trkpt lat="40.7550160" lon="-2.3204240">
        <ele>1164.0</ele>
        <time>2019-07-06T11:43:14Z</time>
      </trkpt>
      <trkpt lat="40.7549510" lon="-2.3203280">
        <ele>1165.0</ele>
        <time>2019-07-06T11:43:18Z</time>
      </trkpt>
      <trkpt lat="40.7549370" lon="-2.3203050">
        <ele>1165.6</ele>
        <time>2019-07-06T11:43:19Z</time>
      </trkpt>
      <trkpt lat="40.7549250" lon="-2.3202810">
        <ele>1166.2</ele>
        <time>2019-07-06T11:43:20Z</time>
      </trkpt>
      <trkpt lat="40.7548770" lon="-2.3201400">
        <ele>1167.0</ele>
        <time>2019-07-06T11:43:25Z</time>
      </trkpt>
      <trkpt lat="40.7548590" lon="-2.3200640">
        <ele>1167.4</ele>
        <time>2019-07-06T11:43:28Z</time>
      </trkpt>
      <trkpt lat="40.7548330" lon="-2.3200130">
        <ele>1167.8</ele>
        <time>2019-07-06T11:43:30Z</time>
      </trkpt>
      <trkpt lat="40.7547800" lon="-2.3199660">
        <ele>1168.4</ele>
        <time>2019-07-06T11:43:33Z</time>
      </trkpt>
      <trkpt lat="40.7547370" lon="-2.3199460">
        <ele>1169.0</ele>
        <time>2019-07-06T11:43:35Z</time>
      </trkpt>
      <trkpt lat="40.7546960" lon="-2.3199330">
        <ele>1169.6</ele>
        <time>2019-07-06T11:43:37Z</time>
      </trkpt>
      <trkpt lat="40.7546460" lon="-2.3199240">
        <ele>1170.0</ele>
        <time>2019-07-06T11:43:40Z</time>
      </trkpt>
      <trkpt lat="40.7545720" lon="-2.3199000">
        <ele>1170.8</ele>
        <time>2019-07-06T11:43:44Z</time>
      </trkpt>
      <trkpt lat="40.7545320" lon="-2.3198760">
        <ele>1171.0</ele>
        <time>2019-07-06T11:43:46Z</time>
      </trkpt>
      <trkpt lat="40.7544230" lon="-2.3197360">
        <ele>1172.0</ele>
        <time>2019-07-06T11:43:52Z</time>
      </trkpt>
      <trkpt lat="40.7542660" lon="-2.3195570">
        <ele>1173.0</ele>
        <time>2019-07-06T11:44:00Z</time>
      </trkpt>
      <trkpt lat="40.7541400" lon="-2.3194660">
        <ele>1174.0</ele>
        <time>2019-07-06T11:44:06Z</time>
      </trkpt>
      <trkpt lat="40.7540950" lon="-2.3194450">
        <ele>1174.2</ele>
        <time>2019-07-06T11:44:08Z</time>
      </trkpt>
      <trkpt lat="40.7539690" lon="-2.3193980">
        <ele>1175.0</ele>
        <time>2019-07-06T11:44:13Z</time>
      </trkpt>
      <trkpt lat="40.7539410" lon="-2.3193830">
        <ele>1175.0</ele>
        <time>2019-07-06T11:44:14Z</time>
      </trkpt>
      <trkpt lat="40.7537880" lon="-2.3192650">
        <ele>1175.0</ele>
        <time>2019-07-06T11:44:20Z</time>
      </trkpt>
      <trkpt lat="40.7536280" lon="-2.3191360">
        <ele>1175.2</ele>
        <time>2019-07-06T11:44:26Z</time>
      </trkpt>
      <trkpt lat="40.7534730" lon="-2.3191120">
        <ele>1176.2</ele>
        <time>2019-07-06T11:44:32Z</time>
      </trkpt>
      <trkpt lat="40.7534470" lon="-2.3191080">
        <ele>1176.4</ele>
        <time>2019-07-06T11:44:33Z</time>
      </trkpt>
      <trkpt lat="40.7533500" lon="-2.3190770">
        <ele>1177.4</ele>
        <time>2019-07-06T11:44:37Z</time>
      </trkpt>
      <trkpt lat="40.7533050" lon="-2.3190530">
        <ele>1177.6</ele>
        <time>2019-07-06T11:44:39Z</time>
      </trkpt>
      <trkpt lat="40.7532230" lon="-2.3189850">
        <ele>1178.4</ele>
        <time>2019-07-06T11:44:43Z</time>
      </trkpt>
      <trkpt lat="40.7532060" lon="-2.3189670">
        <ele>1178.6</ele>
        <time>2019-07-06T11:44:44Z</time>
      </trkpt>
      <trkpt lat="40.7530970" lon="-2.3187900">
        <ele>1179.8</ele>
        <time>2019-07-06T11:44:51Z</time>
      </trkpt>
      <trkpt lat="40.7530490" lon="-2.3186500">
        <ele>1181.0</ele>
        <time>2019-07-06T11:44:56Z</time>
      </trkpt>
      <trkpt lat="40.7530460" lon="-2.3186180">
        <ele>1181.2</ele>
        <time>2019-07-06T11:44:57Z</time>
      </trkpt>
      <trkpt lat="40.7530570" lon="-2.3184980">
        <ele>1182.0</ele>
        <time>2019-07-06T11:45:01Z</time>
      </trkpt>
      <trkpt lat="40.7530650" lon="-2.3184420">
        <ele>1182.4</ele>
        <time>2019-07-06T11:45:03Z</time>
      </trkpt>
      <trkpt lat="40.7530730" lon="-2.3183860">
        <ele>1183.0</ele>
        <time>2019-07-06T11:45:05Z</time>
      </trkpt>
      <trkpt lat="40.7530690" lon="-2.3182720">
        <ele>1183.4</ele>
        <time>2019-07-06T11:45:09Z</time>
      </trkpt>
      <trkpt lat="40.7530530" lon="-2.3181600">
        <ele>1184.2</ele>
        <time>2019-07-06T11:45:13Z</time>
      </trkpt>
      <trkpt lat="40.7530270" lon="-2.3180400">
        <ele>1184.8</ele>
        <time>2019-07-06T11:45:17Z</time>
      </trkpt>
      <trkpt lat="40.7529490" lon="-2.3179400">
        <ele>1185.2</ele>
        <time>2019-07-06T11:45:22Z</time>
      </trkpt>
      <trkpt lat="40.7529290" lon="-2.3179300">
        <ele>1185.4</ele>
        <time>2019-07-06T11:45:23Z</time>
      </trkpt>
      <trkpt lat="40.7528500" lon="-2.3178910">
        <ele>1186.4</ele>
        <time>2019-07-06T11:45:27Z</time>
      </trkpt>
      <trkpt lat="40.7527900" lon="-2.3178590">
        <ele>1187.2</ele>
        <time>2019-07-06T11:45:30Z</time>
      </trkpt>
      <trkpt lat="40.7527530" lon="-2.3178260">
        <ele>1187.4</ele>
        <time>2019-07-06T11:45:32Z</time>
      </trkpt>
      <trkpt lat="40.7526720" lon="-2.3177830">
        <ele>1187.8</ele>
        <time>2019-07-06T11:45:36Z</time>
      </trkpt>
      <trkpt lat="40.7526100" lon="-2.3177590">
        <ele>1188.6</ele>
        <time>2019-07-06T11:45:39Z</time>
      </trkpt>
      <trkpt lat="40.7525670" lon="-2.3177480">
        <ele>1189.0</ele>
        <time>2019-07-06T11:45:41Z</time>
      </trkpt>
      <trkpt lat="40.7524020" lon="-2.3177330">
        <ele>1189.6</ele>
        <time>2019-07-06T11:45:49Z</time>
      </trkpt>
      <trkpt lat="40.7523840" lon="-2.3177300">
        <ele>1190.0</ele>
        <time>2019-07-06T11:45:50Z</time>
      </trkpt>
      <trkpt lat="40.7523200" lon="-2.3177080">
        <ele>1191.2</ele>
        <time>2019-07-06T11:45:53Z</time>
      </trkpt>
      <trkpt lat="40.7522970" lon="-2.3176980">
        <ele>1191.4</ele>
        <time>2019-07-06T11:45:54Z</time>
      </trkpt>
      <trkpt lat="40.7521630" lon="-2.3176330">
        <ele>1192.4</ele>
        <time>2019-07-06T11:46:00Z</time>
      </trkpt>
      <trkpt lat="40.7521400" lon="-2.3176260">
        <ele>1192.6</ele>
        <time>2019-07-06T11:46:01Z</time>
      </trkpt>
      <trkpt lat="40.7520940" lon="-2.3176140">
        <ele>1193.4</ele>
        <time>2019-07-06T11:46:03Z</time>
      </trkpt>
      <trkpt lat="40.7520140" lon="-2.3175600">
        <ele>1194.0</ele>
        <time>2019-07-06T11:46:07Z</time>
      </trkpt>
      <trkpt lat="40.7519300" lon="-2.3174790">
        <ele>1194.4</ele>
        <time>2019-07-06T11:46:11Z</time>
      </trkpt>
      <trkpt lat="40.7518960" lon="-2.3174260">
        <ele>1194.6</ele>
        <time>2019-07-06T11:46:13Z</time>
      </trkpt>
      <trkpt lat="40.7517930" lon="-2.3172950">
        <ele>1195.6</ele>
        <time>2019-07-06T11:46:18Z</time>
      </trkpt>
      <trkpt lat="40.7517010" lon="-2.3171920">
        <ele>1196.2</ele>
        <time>2019-07-06T11:46:22Z</time>
      </trkpt>
      <trkpt lat="40.7516530" lon="-2.3171410">
        <ele>1196.6</ele>
        <time>2019-07-06T11:46:24Z</time>
      </trkpt>
      <trkpt lat="40.7515270" lon="-2.3170180">
        <ele>1197.2</ele>
        <time>2019-07-06T11:46:29Z</time>
      </trkpt>
      <trkpt lat="40.7513540" lon="-2.3168480">
        <ele>1197.4</ele>
        <time>2019-07-06T11:46:36Z</time>
      </trkpt>
      <trkpt lat="40.7512810" lon="-2.3167720">
        <ele>1197.8</ele>
        <time>2019-07-06T11:46:39Z</time>
      </trkpt>
      <trkpt lat="40.7512060" lon="-2.3166910">
        <ele>1198.8</ele>
        <time>2019-07-06T11:46:42Z</time>
      </trkpt>
      <trkpt lat="40.7511820" lon="-2.3166640">
        <ele>1199.0</ele>
        <time>2019-07-06T11:46:43Z</time>
      </trkpt>
      <trkpt lat="40.7510300" lon="-2.3165240">
        <ele>1200.0</ele>
        <time>2019-07-06T11:46:49Z</time>
      </trkpt>
      <trkpt lat="40.7510020" lon="-2.3165060">
        <ele>1200.2</ele>
        <time>2019-07-06T11:46:50Z</time>
      </trkpt>
      <trkpt lat="40.7508490" lon="-2.3164730">
        <ele>1200.6</ele>
        <time>2019-07-06T11:46:55Z</time>
      </trkpt>
      <trkpt lat="40.7507880" lon="-2.3164900">
        <ele>1200.8</ele>
        <time>2019-07-06T11:46:57Z</time>
      </trkpt>
      <trkpt lat="40.7507060" lon="-2.3165110">
        <ele>1202.2</ele>
        <time>2019-07-06T11:47:00Z</time>
      </trkpt>
      <trkpt lat="40.7505250" lon="-2.3165750">
        <ele>1202.0</ele>
        <time>2019-07-06T11:47:07Z</time>
      </trkpt>
      <trkpt lat="40.7504090" lon="-2.3166270">
        <ele>1203.2</ele>
        <time>2019-07-06T11:47:11Z</time>
      </trkpt>
      <trkpt lat="40.7502990" lon="-2.3166790">
        <ele>1204.4</ele>
        <time>2019-07-06T11:47:15Z</time>
      </trkpt>
      <trkpt lat="40.7501400" lon="-2.3167580">
        <ele>1205.2</ele>
        <time>2019-07-06T11:47:21Z</time>
      </trkpt>
      <trkpt lat="40.7499490" lon="-2.3168220">
        <ele>1205.2</ele>
        <time>2019-07-06T11:47:28Z</time>
      </trkpt>
      <trkpt lat="40.7499210" lon="-2.3168250">
        <ele>1205.6</ele>
        <time>2019-07-06T11:47:29Z</time>
      </trkpt>
      <trkpt lat="40.7497760" lon="-2.3168160">
        <ele>1206.8</ele>
        <time>2019-07-06T11:47:34Z</time>
      </trkpt>
      <trkpt lat="40.7497470" lon="-2.3168080">
        <ele>1206.8</ele>
        <time>2019-07-06T11:47:35Z</time>
      </trkpt>
      <trkpt lat="40.7495830" lon="-2.3167070">
        <ele>1207.2</ele>
        <time>2019-07-06T11:47:41Z</time>
      </trkpt>
      <trkpt lat="40.7494080" lon="-2.3165450">
        <ele>1207.6</ele>
        <time>2019-07-06T11:47:47Z</time>
      </trkpt>
      <trkpt lat="40.7493780" lon="-2.3165150">
        <ele>1207.4</ele>
        <time>2019-07-06T11:47:48Z</time>
      </trkpt>
      <trkpt lat="40.7493160" lon="-2.3164470">
        <ele>1207.6</ele>
        <time>2019-07-06T11:47:50Z</time>
      </trkpt>
      <trkpt lat="40.7491850" lon="-2.3162990">
        <ele>1208.0</ele>
        <time>2019-07-06T11:47:54Z</time>
      </trkpt>
      <trkpt lat="40.7489360" lon="-2.3159690">
        <ele>1208.2</ele>
        <time>2019-07-06T11:48:02Z</time>
      </trkpt>
      <trkpt lat="40.7489000" lon="-2.3159350">
        <ele>1208.6</ele>
        <time>2019-07-06T11:48:03Z</time>
      </trkpt>
      <trkpt lat="40.7488050" lon="-2.3158140">
        <ele>1208.8</ele>
        <time>2019-07-06T11:48:06Z</time>
      </trkpt>
      <trkpt lat="40.7487180" lon="-2.3156900">
        <ele>1209.0</ele>
        <time>2019-07-06T11:48:09Z</time>
      </trkpt>
      <trkpt lat="40.7486110" lon="-2.3155350">
        <ele>1209.4</ele>
        <time>2019-07-06T11:48:13Z</time>
      </trkpt>
      <trkpt lat="40.7484990" lon="-2.3153900">
        <ele>1209.6</ele>
        <time>2019-07-06T11:48:17Z</time>
      </trkpt>
      <trkpt lat="40.7484710" lon="-2.3153610">
        <ele>1209.8</ele>
        <time>2019-07-06T11:48:18Z</time>
      </trkpt>
      <trkpt lat="40.7483930" lon="-2.3152720">
        <ele>1210.6</ele>
        <time>2019-07-06T11:48:21Z</time>
      </trkpt>
      <trkpt lat="40.7482980" lon="-2.3151440">
        <ele>1210.4</ele>
        <time>2019-07-06T11:48:25Z</time>
      </trkpt>
      <trkpt lat="40.7481030" lon="-2.3148990">
        <ele>1210.6</ele>
        <time>2019-07-06T11:48:33Z</time>
      </trkpt>
      <trkpt lat="40.7479880" lon="-2.3147630">
        <ele>1211.6</ele>
        <time>2019-07-06T11:48:38Z</time>
      </trkpt>
      <trkpt lat="40.7478900" lon="-2.3146490">
        <ele>1212.6</ele>
        <time>2019-07-06T11:48:42Z</time>
      </trkpt>
      <trkpt lat="40.7478650" lon="-2.3146190">
        <ele>1212.8</ele>
        <time>2019-07-06T11:48:43Z</time>
      </trkpt>
      <trkpt lat="40.7476150" lon="-2.3143330">
        <ele>1213.2</ele>
        <time>2019-07-06T11:48:53Z</time>
      </trkpt>
      <trkpt lat="40.7474930" lon="-2.3141750">
        <ele>1213.8</ele>
        <time>2019-07-06T11:48:58Z</time>
      </trkpt>
      <trkpt lat="40.7474370" lon="-2.3141150">
        <ele>1214.0</ele>
        <time>2019-07-06T11:49:00Z</time>
      </trkpt>
      <trkpt lat="40.7472590" lon="-2.3139240">
        <ele>1214.6</ele>
        <time>2019-07-06T11:49:06Z</time>
      </trkpt>
      <trkpt lat="40.7472010" lon="-2.3138620">
        <ele>1215.0</ele>
        <time>2019-07-06T11:49:08Z</time>
      </trkpt>
      <trkpt lat="40.7470640" lon="-2.3137300">
        <ele>1215.4</ele>
        <time>2019-07-06T11:49:13Z</time>
      </trkpt>
      <trkpt lat="40.7469860" lon="-2.3136600">
        <ele>1215.8</ele>
        <time>2019-07-06T11:49:16Z</time>
      </trkpt>
      <trkpt lat="40.7468430" lon="-2.3135400">
        <ele>1216.4</ele>
        <time>2019-07-06T11:49:21Z</time>
      </trkpt>
      <trkpt lat="40.7466260" lon="-2.3133490">
        <ele>1216.8</ele>
        <time>2019-07-06T11:49:29Z</time>
      </trkpt>
      <trkpt lat="40.7465670" lon="-2.3133020">
        <ele>1216.8</ele>
        <time>2019-07-06T11:49:31Z</time>
      </trkpt>
      <trkpt lat="40.7464850" lon="-2.3132300">
        <ele>1217.8</ele>
        <time>2019-07-06T11:49:34Z</time>
      </trkpt>
      <trkpt lat="40.7463930" lon="-2.3131730">
        <ele>1218.6</ele>
        <time>2019-07-06T11:49:37Z</time>
      </trkpt>
      <trkpt lat="40.7463230" lon="-2.3131440">
        <ele>1219.0</ele>
        <time>2019-07-06T11:49:39Z</time>
      </trkpt>
      <trkpt lat="40.7461760" lon="-2.3131240">
        <ele>1219.2</ele>
        <time>2019-07-06T11:49:43Z</time>
      </trkpt>
      <trkpt lat="40.7458950" lon="-2.3131240">
        <ele>1219.8</ele>
        <time>2019-07-06T11:49:50Z</time>
      </trkpt>
      <trkpt lat="40.7457760" lon="-2.3130840">
        <ele>1219.8</ele>
        <time>2019-07-06T11:49:53Z</time>
      </trkpt>
      <trkpt lat="40.7456590" lon="-2.3130180">
        <ele>1220.0</ele>
        <time>2019-07-06T11:49:56Z</time>
      </trkpt>
      <trkpt lat="40.7455470" lon="-2.3129470">
        <ele>1220.4</ele>
        <time>2019-07-06T11:49:59Z</time>
      </trkpt>
      <trkpt lat="40.7454720" lon="-2.3128830">
        <ele>1220.4</ele>
        <time>2019-07-06T11:50:01Z</time>
      </trkpt>
      <trkpt lat="40.7453230" lon="-2.3127350">
        <ele>1220.4</ele>
        <time>2019-07-06T11:50:05Z</time>
      </trkpt>
      <trkpt lat="40.7452460" lon="-2.3126670">
        <ele>1220.4</ele>
        <time>2019-07-06T11:50:07Z</time>
      </trkpt>
      <trkpt lat="40.7449700" lon="-2.3123770">
        <ele>1219.6</ele>
        <time>2019-07-06T11:50:14Z</time>
      </trkpt>
      <trkpt lat="40.7449280" lon="-2.3123310">
        <ele>1219.6</ele>
        <time>2019-07-06T11:50:15Z</time>
      </trkpt>
      <trkpt lat="40.7447890" lon="-2.3122060">
        <ele>1219.4</ele>
        <time>2019-07-06T11:50:18Z</time>
      </trkpt>
      <trkpt lat="40.7447420" lon="-2.3121580">
        <ele>1219.4</ele>
        <time>2019-07-06T11:50:19Z</time>
      </trkpt>
      <trkpt lat="40.7445240" lon="-2.3119450">
        <ele>1218.6</ele>
        <time>2019-07-06T11:50:23Z</time>
      </trkpt>
      <trkpt lat="40.7444670" lon="-2.3118870">
        <ele>1218.4</ele>
        <time>2019-07-06T11:50:24Z</time>
      </trkpt>
      <trkpt lat="40.7443490" lon="-2.3117680">
        <ele>1217.2</ele>
        <time>2019-07-06T11:50:26Z</time>
      </trkpt>
      <trkpt lat="40.7442860" lon="-2.3117080">
        <ele>1216.6</ele>
        <time>2019-07-06T11:50:27Z</time>
      </trkpt>
      <trkpt lat="40.7442240" lon="-2.3116450">
        <ele>1216.2</ele>
        <time>2019-07-06T11:50:28Z</time>
      </trkpt>
      <trkpt lat="40.7441620" lon="-2.3115780">
        <ele>1215.6</ele>
        <time>2019-07-06T11:50:29Z</time>
      </trkpt>
      <trkpt lat="40.7441010" lon="-2.3115070">
        <ele>1215.0</ele>
        <time>2019-07-06T11:50:30Z</time>
      </trkpt>
      <trkpt lat="40.7440400" lon="-2.3114330">
        <ele>1214.6</ele>
        <time>2019-07-06T11:50:31Z</time>
      </trkpt>
      <trkpt lat="40.7438690" lon="-2.3112070">
        <ele>1213.4</ele>
        <time>2019-07-06T11:50:34Z</time>
      </trkpt>
      <trkpt lat="40.7437650" lon="-2.3110650">
        <ele>1212.4</ele>
        <time>2019-07-06T11:50:36Z</time>
      </trkpt>
      <trkpt lat="40.7437150" lon="-2.3109960">
        <ele>1212.0</ele>
        <time>2019-07-06T11:50:37Z</time>
      </trkpt>
      <trkpt lat="40.7436250" lon="-2.3108630">
        <ele>1210.8</ele>
        <time>2019-07-06T11:50:39Z</time>
      </trkpt>
      <trkpt lat="40.7435410" lon="-2.3107350">
        <ele>1209.4</ele>
        <time>2019-07-06T11:50:41Z</time>
      </trkpt>
      <trkpt lat="40.7434580" lon="-2.3105880">
        <ele>1208.8</ele>
        <time>2019-07-06T11:50:43Z</time>
      </trkpt>
      <trkpt lat="40.7434150" lon="-2.3105030">
        <ele>1208.2</ele>
        <time>2019-07-06T11:50:44Z</time>
      </trkpt>
      <trkpt lat="40.7433310" lon="-2.3103230">
        <ele>1206.6</ele>
        <time>2019-07-06T11:50:46Z</time>
      </trkpt>
      <trkpt lat="40.7432910" lon="-2.3102320">
        <ele>1205.4</ele>
        <time>2019-07-06T11:50:47Z</time>
      </trkpt>
      <trkpt lat="40.7432080" lon="-2.3100540">
        <ele>1203.6</ele>
        <time>2019-07-06T11:50:49Z</time>
      </trkpt>
      <trkpt lat="40.7431150" lon="-2.3098770">
        <ele>1202.6</ele>
        <time>2019-07-06T11:50:51Z</time>
      </trkpt>
      <trkpt lat="40.7430610" lon="-2.3097960">
        <ele>1202.0</ele>
        <time>2019-07-06T11:50:52Z</time>
      </trkpt>
      <trkpt lat="40.7430010" lon="-2.3097160">
        <ele>1201.4</ele>
        <time>2019-07-06T11:50:53Z</time>
      </trkpt>
      <trkpt lat="40.7429370" lon="-2.3096360">
        <ele>1201.2</ele>
        <time>2019-07-06T11:50:54Z</time>
      </trkpt>
      <trkpt lat="40.7427980" lon="-2.3094780">
        <ele>1199.8</ele>
        <time>2019-07-06T11:50:56Z</time>
      </trkpt>
      <trkpt lat="40.7427250" lon="-2.3094000">
        <ele>1198.6</ele>
        <time>2019-07-06T11:50:57Z</time>
      </trkpt>
      <trkpt lat="40.7426500" lon="-2.3093220">
        <ele>1197.4</ele>
        <time>2019-07-06T11:50:58Z</time>
      </trkpt>
      <trkpt lat="40.7424990" lon="-2.3091640">
        <ele>1196.4</ele>
        <time>2019-07-06T11:51:00Z</time>
      </trkpt>
      <trkpt lat="40.7424220" lon="-2.3090830">
        <ele>1196.0</ele>
        <time>2019-07-06T11:51:01Z</time>
      </trkpt>
      <trkpt lat="40.7421820" lon="-2.3088470">
        <ele>1195.0</ele>
        <time>2019-07-06T11:51:04Z</time>
      </trkpt>
      <trkpt lat="40.7420160" lon="-2.3087100">
        <ele>1193.8</ele>
        <time>2019-07-06T11:51:06Z</time>
      </trkpt>
      <trkpt lat="40.7419300" lon="-2.3086510">
        <ele>1193.2</ele>
        <time>2019-07-06T11:51:07Z</time>
      </trkpt>
      <trkpt lat="40.7418440" lon="-2.3086010">
        <ele>1192.8</ele>
        <time>2019-07-06T11:51:08Z</time>
      </trkpt>
      <trkpt lat="40.7415970" lon="-2.3084920">
        <ele>1192.4</ele>
        <time>2019-07-06T11:51:11Z</time>
      </trkpt>
      <trkpt lat="40.7413160" lon="-2.3084220">
        <ele>1192.4</ele>
        <time>2019-07-06T11:51:15Z</time>
      </trkpt>
      <trkpt lat="40.7410990" lon="-2.3084010">
        <ele>1192.8</ele>
        <time>2019-07-06T11:51:19Z</time>
      </trkpt>
      <trkpt lat="40.7410550" lon="-2.3083970">
        <ele>1193.0</ele>
        <time>2019-07-06T11:51:20Z</time>
      </trkpt>
      <trkpt lat="40.7409100" lon="-2.3083840">
        <ele>1194.0</ele>
        <time>2019-07-06T11:51:24Z</time>
      </trkpt>
      <trkpt lat="40.7408440" lon="-2.3083790">
        <ele>1194.6</ele>
        <time>2019-07-06T11:51:26Z</time>
      </trkpt>
      <trkpt lat="40.7407790" lon="-2.3083720">
        <ele>1194.8</ele>
        <time>2019-07-06T11:51:28Z</time>
      </trkpt>
      <trkpt lat="40.7407150" lon="-2.3083540">
        <ele>1195.0</ele>
        <time>2019-07-06T11:51:30Z</time>
      </trkpt>
      <trkpt lat="40.7405840" lon="-2.3083020">
        <ele>1195.4</ele>
        <time>2019-07-06T11:51:34Z</time>
      </trkpt>
      <trkpt lat="40.7404660" lon="-2.3082210">
        <ele>1195.8</ele>
        <time>2019-07-06T11:51:38Z</time>
      </trkpt>
      <trkpt lat="40.7404180" lon="-2.3081650">
        <ele>1196.2</ele>
        <time>2019-07-06T11:51:40Z</time>
      </trkpt>
      <trkpt lat="40.7403010" lon="-2.3080180">
        <ele>1196.6</ele>
        <time>2019-07-06T11:51:45Z</time>
      </trkpt>
      <trkpt lat="40.7401900" lon="-2.3078680">
        <ele>1197.2</ele>
        <time>2019-07-06T11:51:50Z</time>
      </trkpt>
      <trkpt lat="40.7399850" lon="-2.3075950">
        <ele>1197.6</ele>
        <time>2019-07-06T11:51:59Z</time>
      </trkpt>
      <trkpt lat="40.7399170" lon="-2.3075020">
        <ele>1198.4</ele>
        <time>2019-07-06T11:52:02Z</time>
      </trkpt>
      <trkpt lat="40.7398000" lon="-2.3073560">
        <ele>1199.2</ele>
        <time>2019-07-06T11:52:07Z</time>
      </trkpt>
      <trkpt lat="40.7397120" lon="-2.3072480">
        <ele>1199.6</ele>
        <time>2019-07-06T11:52:11Z</time>
      </trkpt>
      <trkpt lat="40.7395950" lon="-2.3071230">
        <ele>1200.6</ele>
        <time>2019-07-06T11:52:16Z</time>
      </trkpt>
      <trkpt lat="40.7395160" lon="-2.3070410">
        <ele>1200.6</ele>
        <time>2019-07-06T11:52:19Z</time>
      </trkpt>
      <trkpt lat="40.7393690" lon="-2.3068970">
        <ele>1200.2</ele>
        <time>2019-07-06T11:52:23Z</time>
      </trkpt>
      <trkpt lat="40.7392260" lon="-2.3067590">
        <ele>1199.4</ele>
        <time>2019-07-06T11:52:26Z</time>
      </trkpt>
      <trkpt lat="40.7390650" lon="-2.3066090">
        <ele>1198.4</ele>
        <time>2019-07-06T11:52:29Z</time>
      </trkpt>
      <trkpt lat="40.7388960" lon="-2.3064410">
        <ele>1197.4</ele>
        <time>2019-07-06T11:52:32Z</time>
      </trkpt>
      <trkpt lat="40.7388390" lon="-2.3063860">
        <ele>1197.2</ele>
        <time>2019-07-06T11:52:33Z</time>
      </trkpt>
      <trkpt lat="40.7386840" lon="-2.3062260">
        <ele>1196.2</ele>
        <time>2019-07-06T11:52:36Z</time>
      </trkpt>
      <trkpt lat="40.7386340" lon="-2.3061770">
        <ele>1196.0</ele>
        <time>2019-07-06T11:52:37Z</time>
      </trkpt>
      <trkpt lat="40.7385360" lon="-2.3060840">
        <ele>1195.8</ele>
        <time>2019-07-06T11:52:39Z</time>
      </trkpt>
      <trkpt lat="40.7384430" lon="-2.3059910">
        <ele>1195.4</ele>
        <time>2019-07-06T11:52:41Z</time>
      </trkpt>
      <trkpt lat="40.7383520" lon="-2.3059020">
        <ele>1195.0</ele>
        <time>2019-07-06T11:52:43Z</time>
      </trkpt>
      <trkpt lat="40.7380100" lon="-2.3056170">
        <ele>1193.6</ele>
        <time>2019-07-06T11:52:50Z</time>
      </trkpt>
      <trkpt lat="40.7379540" lon="-2.3055870">
        <ele>1193.6</ele>
        <time>2019-07-06T11:52:51Z</time>
      </trkpt>
      <trkpt lat="40.7377750" lon="-2.3055640">
        <ele>1193.4</ele>
        <time>2019-07-06T11:52:54Z</time>
      </trkpt>
      <trkpt lat="40.7375430" lon="-2.3056550">
        <ele>1193.0</ele>
        <time>2019-07-06T11:52:58Z</time>
      </trkpt>
      <trkpt lat="40.7374310" lon="-2.3057050">
        <ele>1192.6</ele>
        <time>2019-07-06T11:53:00Z</time>
      </trkpt>
      <trkpt lat="40.7373730" lon="-2.3057170">
        <ele>1192.4</ele>
        <time>2019-07-06T11:53:01Z</time>
      </trkpt>
      <trkpt lat="40.7372540" lon="-2.3057040">
        <ele>1192.4</ele>
        <time>2019-07-06T11:53:03Z</time>
      </trkpt>
      <trkpt lat="40.7370380" lon="-2.3055830">
        <ele>1192.6</ele>
        <time>2019-07-06T11:53:07Z</time>
      </trkpt>
      <trkpt lat="40.7369490" lon="-2.3054720">
        <ele>1192.4</ele>
        <time>2019-07-06T11:53:09Z</time>
      </trkpt>
      <trkpt lat="40.7369080" lon="-2.3054100">
        <ele>1192.4</ele>
        <time>2019-07-06T11:53:10Z</time>
      </trkpt>
      <trkpt lat="40.7368460" lon="-2.3052700">
        <ele>1192.2</ele>
        <time>2019-07-06T11:53:12Z</time>
      </trkpt>
      <trkpt lat="40.7368200" lon="-2.3051210">
        <ele>1192.4</ele>
        <time>2019-07-06T11:53:14Z</time>
      </trkpt>
      <trkpt lat="40.7368010" lon="-2.3049810">
        <ele>1192.4</ele>
        <time>2019-07-06T11:53:16Z</time>
      </trkpt>
      <trkpt lat="40.7367540" lon="-2.3047100">
        <ele>1192.4</ele>
        <time>2019-07-06T11:53:21Z</time>
      </trkpt>
      <trkpt lat="40.7367500" lon="-2.3046410">
        <ele>1192.2</ele>
        <time>2019-07-06T11:53:24Z</time>
      </trkpt>
      <trkpt lat="40.7367510" lon="-2.3046400">
        <ele>1192.2</ele>
        <time>2019-07-06T11:53:25Z</time>
      </trkpt>
      <trkpt lat="40.7367420" lon="-2.3045800">
        <ele>1192.4</ele>
        <time>2019-07-06T11:55:23Z</time>
      </trkpt>
      <trkpt lat="40.7367260" lon="-2.3045310">
        <ele>1192.4</ele>
        <time>2019-07-06T11:55:25Z</time>
      </trkpt>
      <trkpt lat="40.7366850" lon="-2.3043420">
        <ele>1192.4</ele>
        <time>2019-07-06T11:55:31Z</time>
      </trkpt>
      <trkpt lat="40.7365790" lon="-2.3041830">
        <ele>1192.8</ele>
        <time>2019-07-06T11:55:37Z</time>
      </trkpt>
      <trkpt lat="40.7364770" lon="-2.3041530">
        <ele>1193.4</ele>
        <time>2019-07-06T11:55:41Z</time>
      </trkpt>
      <trkpt lat="40.7363940" lon="-2.3041550">
        <ele>1193.4</ele>
        <time>2019-07-06T11:55:44Z</time>
      </trkpt>
      <trkpt lat="40.7362370" lon="-2.3041800">
        <ele>1193.2</ele>
        <time>2019-07-06T11:55:50Z</time>
      </trkpt>
      <trkpt lat="40.7362120" lon="-2.3041900">
        <ele>1193.2</ele>
        <time>2019-07-06T11:55:51Z</time>
      </trkpt>
      <trkpt lat="40.7360900" lon="-2.3042090">
        <ele>1193.4</ele>
        <time>2019-07-06T11:55:55Z</time>
      </trkpt>
      <trkpt lat="40.7359220" lon="-2.3042110">
        <ele>1193.8</ele>
        <time>2019-07-06T11:56:00Z</time>
      </trkpt>
      <trkpt lat="40.7357910" lon="-2.3042010">
        <ele>1194.4</ele>
        <time>2019-07-06T11:56:04Z</time>
      </trkpt>
      <trkpt lat="40.7356100" lon="-2.3041660">
        <ele>1195.0</ele>
        <time>2019-07-06T11:56:10Z</time>
      </trkpt>
      <trkpt lat="40.7355500" lon="-2.3041390">
        <ele>1195.2</ele>
        <time>2019-07-06T11:56:12Z</time>
      </trkpt>
      <trkpt lat="40.7351400" lon="-2.3038400">
        <ele>1198.6</ele>
        <time>2019-07-06T12:18:17Z</time>
      </trkpt>
      <trkpt lat="40.7351160" lon="-2.3038230">
        <ele>1198.8</ele>
        <time>2019-07-06T12:18:18Z</time>
      </trkpt>
      <trkpt lat="40.7350730" lon="-2.3037780">
        <ele>1199.0</ele>
        <time>2019-07-06T12:18:20Z</time>
      </trkpt>
      <trkpt lat="40.7349510" lon="-2.3036770">
        <ele>1199.0</ele>
        <time>2019-07-06T12:18:25Z</time>
      </trkpt>
      <trkpt lat="40.7349270" lon="-2.3036630">
        <ele>1199.0</ele>
        <time>2019-07-06T12:18:26Z</time>
      </trkpt>
      <trkpt lat="40.7348560" lon="-2.3036290">
        <ele>1199.6</ele>
        <time>2019-07-06T12:18:29Z</time>
      </trkpt>
      <trkpt lat="40.7347590" lon="-2.3036380">
        <ele>1200.2</ele>
        <time>2019-07-06T12:18:33Z</time>
      </trkpt>
      <trkpt lat="40.7346910" lon="-2.3036550">
        <ele>1200.8</ele>
        <time>2019-07-06T12:18:36Z</time>
      </trkpt>
      <trkpt lat="40.7345860" lon="-2.3036940">
        <ele>1201.4</ele>
        <time>2019-07-06T12:18:40Z</time>
      </trkpt>
      <trkpt lat="40.7344710" lon="-2.3036370">
        <ele>1201.8</ele>
        <time>2019-07-06T12:18:44Z</time>
      </trkpt>
      <trkpt lat="40.7343420" lon="-2.3034190">
        <ele>1202.6</ele>
        <time>2019-07-06T12:18:50Z</time>
      </trkpt>
      <trkpt lat="40.7343200" lon="-2.3033860">
        <ele>1202.8</ele>
        <time>2019-07-06T12:18:51Z</time>
      </trkpt>
      <trkpt lat="40.7341430" lon="-2.3031470">
        <ele>1203.8</ele>
        <time>2019-07-06T12:18:58Z</time>
      </trkpt>
      <trkpt lat="40.7341160" lon="-2.3031120">
        <ele>1204.0</ele>
        <time>2019-07-06T12:18:59Z</time>
      </trkpt>
      <trkpt lat="40.7340640" lon="-2.3030330">
        <ele>1204.2</ele>
        <time>2019-07-06T12:19:01Z</time>
      </trkpt>
      <trkpt lat="40.7339790" lon="-2.3028660">
        <ele>1204.6</ele>
        <time>2019-07-06T12:19:05Z</time>
      </trkpt>
      <trkpt lat="40.7339370" lon="-2.3027340">
        <ele>1205.0</ele>
        <time>2019-07-06T12:19:08Z</time>
      </trkpt>
      <trkpt lat="40.7339230" lon="-2.3026000">
        <ele>1205.6</ele>
        <time>2019-07-06T12:19:11Z</time>
      </trkpt>
      <trkpt lat="40.7339790" lon="-2.3024360">
        <ele>1205.6</ele>
        <time>2019-07-06T12:19:15Z</time>
      </trkpt>
      <trkpt lat="40.7340490" lon="-2.3022890">
        <ele>1206.0</ele>
        <time>2019-07-06T12:19:19Z</time>
      </trkpt>
      <trkpt lat="40.7340640" lon="-2.3022060">
        <ele>1206.2</ele>
        <time>2019-07-06T12:19:21Z</time>
      </trkpt>
      <trkpt lat="40.7340340" lon="-2.3020360">
        <ele>1206.6</ele>
        <time>2019-07-06T12:19:25Z</time>
      </trkpt>
      <trkpt lat="40.7339900" lon="-2.3019600">
        <ele>1207.0</ele>
        <time>2019-07-06T12:19:27Z</time>
      </trkpt>
      <trkpt lat="40.7339290" lon="-2.3019100">
        <ele>1207.2</ele>
        <time>2019-07-06T12:19:29Z</time>
      </trkpt>
      <trkpt lat="40.7337410" lon="-2.3018760">
        <ele>1207.8</ele>
        <time>2019-07-06T12:19:34Z</time>
      </trkpt>
      <trkpt lat="40.7337020" lon="-2.3018720">
        <ele>1208.0</ele>
        <time>2019-07-06T12:19:35Z</time>
      </trkpt>
      <trkpt lat="40.7335170" lon="-2.3019280">
        <ele>1208.6</ele>
        <time>2019-07-06T12:19:40Z</time>
      </trkpt>
      <trkpt lat="40.7334720" lon="-2.3019900">
        <ele>1209.0</ele>
        <time>2019-07-06T12:19:42Z</time>
      </trkpt>
      <trkpt lat="40.7333980" lon="-2.3020930">
        <ele>1210.2</ele>
        <time>2019-07-06T12:19:46Z</time>
      </trkpt>
      <trkpt lat="40.7333450" lon="-2.3021630">
        <ele>1211.2</ele>
        <time>2019-07-06T12:19:49Z</time>
      </trkpt>
      <trkpt lat="40.7332680" lon="-2.3022550">
        <ele>1212.2</ele>
        <time>2019-07-06T12:19:53Z</time>
      </trkpt>
      <trkpt lat="40.7332260" lon="-2.3022910">
        <ele>1213.0</ele>
        <time>2019-07-06T12:19:55Z</time>
      </trkpt>
      <trkpt lat="40.7331850" lon="-2.3023190">
        <ele>1213.6</ele>
        <time>2019-07-06T12:19:57Z</time>
      </trkpt>
      <trkpt lat="40.7330530" lon="-2.3023870">
        <ele>1214.0</ele>
        <time>2019-07-06T12:20:03Z</time>
      </trkpt>
      <trkpt lat="40.7329850" lon="-2.3024190">
        <ele>1214.6</ele>
        <time>2019-07-06T12:20:06Z</time>
      </trkpt>
      <trkpt lat="40.7328890" lon="-2.3024550">
        <ele>1215.2</ele>
        <time>2019-07-06T12:20:10Z</time>
      </trkpt>
      <trkpt lat="40.7328190" lon="-2.3024800">
        <ele>1215.8</ele>
        <time>2019-07-06T12:20:13Z</time>
      </trkpt>
      <trkpt lat="40.7327080" lon="-2.3025230">
        <ele>1217.0</ele>
        <time>2019-07-06T12:20:18Z</time>
      </trkpt>
      <trkpt lat="40.7326850" lon="-2.3025310">
        <ele>1217.2</ele>
        <time>2019-07-06T12:20:19Z</time>
      </trkpt>
      <trkpt lat="40.7325780" lon="-2.3025910">
        <ele>1218.0</ele>
        <time>2019-07-06T12:20:24Z</time>
      </trkpt>
      <trkpt lat="40.7325210" lon="-2.3026390">
        <ele>1218.6</ele>
        <time>2019-07-06T12:20:27Z</time>
      </trkpt>
      <trkpt lat="40.7324850" lon="-2.3026800">
        <ele>1219.0</ele>
        <time>2019-07-06T12:20:29Z</time>
      </trkpt>
      <trkpt lat="40.7323650" lon="-2.3027790">
        <ele>1219.6</ele>
        <time>2019-07-06T12:20:35Z</time>
      </trkpt>
      <trkpt lat="40.7323220" lon="-2.3028090">
        <ele>1220.0</ele>
        <time>2019-07-06T12:20:37Z</time>
      </trkpt>
      <trkpt lat="40.7321600" lon="-2.3029020">
        <ele>1220.8</ele>
        <time>2019-07-06T12:20:44Z</time>
      </trkpt>
      <trkpt lat="40.7321140" lon="-2.3029250">
        <ele>1221.2</ele>
        <time>2019-07-06T12:20:46Z</time>
      </trkpt>
      <trkpt lat="40.7320040" lon="-2.3029860">
        <ele>1222.0</ele>
        <time>2019-07-06T12:20:51Z</time>
      </trkpt>
      <trkpt lat="40.7319610" lon="-2.3030110">
        <ele>1222.4</ele>
        <time>2019-07-06T12:20:53Z</time>
      </trkpt>
      <trkpt lat="40.7318710" lon="-2.3030590">
        <ele>1223.4</ele>
        <time>2019-07-06T12:20:57Z</time>
      </trkpt>
      <trkpt lat="40.7318040" lon="-2.3030950">
        <ele>1223.8</ele>
        <time>2019-07-06T12:21:00Z</time>
      </trkpt>
      <trkpt lat="40.7317170" lon="-2.3031520">
        <ele>1224.2</ele>
        <time>2019-07-06T12:21:04Z</time>
      </trkpt>
      <trkpt lat="40.7316350" lon="-2.3032160">
        <ele>1225.4</ele>
        <time>2019-07-06T12:21:08Z</time>
      </trkpt>
      <trkpt lat="40.7315000" lon="-2.3033540">
        <ele>1226.4</ele>
        <time>2019-07-06T12:21:15Z</time>
      </trkpt>
      <trkpt lat="40.7314830" lon="-2.3033770">
        <ele>1226.6</ele>
        <time>2019-07-06T12:21:16Z</time>
      </trkpt>
      <trkpt lat="40.7314200" lon="-2.3034700">
        <ele>1227.4</ele>
        <time>2019-07-06T12:21:20Z</time>
      </trkpt>
      <trkpt lat="40.7313680" lon="-2.3035720">
        <ele>1228.6</ele>
        <time>2019-07-06T12:21:24Z</time>
      </trkpt>
      <trkpt lat="40.7313450" lon="-2.3036270">
        <ele>1229.0</ele>
        <time>2019-07-06T12:21:26Z</time>
      </trkpt>
      <trkpt lat="40.7313010" lon="-2.3037730">
        <ele>1229.6</ele>
        <time>2019-07-06T12:21:31Z</time>
      </trkpt>
      <trkpt lat="40.7312740" lon="-2.3038910">
        <ele>1230.6</ele>
        <time>2019-07-06T12:21:35Z</time>
      </trkpt>
      <trkpt lat="40.7312710" lon="-2.3039200">
        <ele>1230.8</ele>
        <time>2019-07-06T12:21:36Z</time>
      </trkpt>
      <trkpt lat="40.7312380" lon="-2.3040660">
        <ele>1232.0</ele>
        <time>2019-07-06T12:21:41Z</time>
      </trkpt>
      <trkpt lat="40.7312040" lon="-2.3041960">
        <ele>1233.2</ele>
        <time>2019-07-06T12:21:46Z</time>
      </trkpt>
      <trkpt lat="40.7311720" lon="-2.3043030">
        <ele>1234.2</ele>
        <time>2019-07-06T12:21:50Z</time>
      </trkpt>
      <trkpt lat="40.7311390" lon="-2.3043830">
        <ele>1235.2</ele>
        <time>2019-07-06T12:21:53Z</time>
      </trkpt>
      <trkpt lat="40.7310990" lon="-2.3044640">
        <ele>1235.4</ele>
        <time>2019-07-06T12:21:56Z</time>
      </trkpt>
      <trkpt lat="40.7310250" lon="-2.3045870">
        <ele>1236.4</ele>
        <time>2019-07-06T12:22:01Z</time>
      </trkpt>
      <trkpt lat="40.7309690" lon="-2.3046890">
        <ele>1237.4</ele>
        <time>2019-07-06T12:22:05Z</time>
      </trkpt>
      <trkpt lat="40.7308610" lon="-2.3048510">
        <ele>1238.4</ele>
        <time>2019-07-06T12:22:12Z</time>
      </trkpt>
      <trkpt lat="40.7308450" lon="-2.3048730">
        <ele>1238.6</ele>
        <time>2019-07-06T12:22:13Z</time>
      </trkpt>
      <trkpt lat="40.7307490" lon="-2.3050180">
        <ele>1240.0</ele>
        <time>2019-07-06T12:22:19Z</time>
      </trkpt>
      <trkpt lat="40.7307340" lon="-2.3050420">
        <ele>1240.2</ele>
        <time>2019-07-06T12:22:20Z</time>
      </trkpt>
      <trkpt lat="40.7307020" lon="-2.3050900">
        <ele>1241.0</ele>
        <time>2019-07-06T12:22:22Z</time>
      </trkpt>
      <trkpt lat="40.7306130" lon="-2.3052450">
        <ele>1241.4</ele>
        <time>2019-07-06T12:22:28Z</time>
      </trkpt>
      <trkpt lat="40.7305730" lon="-2.3053540">
        <ele>1242.0</ele>
        <time>2019-07-06T12:22:32Z</time>
      </trkpt>
      <trkpt lat="40.7305600" lon="-2.3054080">
        <ele>1242.8</ele>
        <time>2019-07-06T12:22:34Z</time>
      </trkpt>
      <trkpt lat="40.7305490" lon="-2.3054630">
        <ele>1243.2</ele>
        <time>2019-07-06T12:22:36Z</time>
      </trkpt>
      <trkpt lat="40.7305170" lon="-2.3056200">
        <ele>1244.2</ele>
        <time>2019-07-06T12:22:41Z</time>
      </trkpt>
      <trkpt lat="40.7305120" lon="-2.3056520">
        <ele>1244.2</ele>
        <time>2019-07-06T12:22:42Z</time>
      </trkpt>
      <trkpt lat="40.7304990" lon="-2.3059250">
        <ele>1244.8</ele>
        <time>2019-07-06T12:22:51Z</time>
      </trkpt>
      <trkpt lat="40.7304970" lon="-2.3059550">
        <ele>1245.0</ele>
        <time>2019-07-06T12:22:52Z</time>
      </trkpt>
      <trkpt lat="40.7304820" lon="-2.3060760">
        <ele>1246.2</ele>
        <time>2019-07-06T12:22:56Z</time>
      </trkpt>
      <trkpt lat="40.7304540" lon="-2.3062060">
        <ele>1246.8</ele>
        <time>2019-07-06T12:23:00Z</time>
      </trkpt>
      <trkpt lat="40.7304430" lon="-2.3062380">
        <ele>1247.2</ele>
        <time>2019-07-06T12:23:01Z</time>
      </trkpt>
      <trkpt lat="40.7303480" lon="-2.3064360">
        <ele>1247.8</ele>
        <time>2019-07-06T12:23:07Z</time>
      </trkpt>
      <trkpt lat="40.7302650" lon="-2.3065650">
        <ele>1248.2</ele>
        <time>2019-07-06T12:23:11Z</time>
      </trkpt>
      <trkpt lat="40.7302350" lon="-2.3066440">
        <ele>1248.4</ele>
        <time>2019-07-06T12:23:13Z</time>
      </trkpt>
      <trkpt lat="40.7301980" lon="-2.3069060">
        <ele>1248.6</ele>
        <time>2019-07-06T12:23:19Z</time>
      </trkpt>
      <trkpt lat="40.7301650" lon="-2.3071770">
        <ele>1249.4</ele>
        <time>2019-07-06T12:23:26Z</time>
      </trkpt>
      <trkpt lat="40.7300470" lon="-2.3073320">
        <ele>1249.8</ele>
        <time>2019-07-06T12:23:31Z</time>
      </trkpt>
      <trkpt lat="40.7298640" lon="-2.3074630">
        <ele>1250.2</ele>
        <time>2019-07-06T12:23:37Z</time>
      </trkpt>
      <trkpt lat="40.7295730" lon="-2.3076250">
        <ele>1249.8</ele>
        <time>2019-07-06T12:23:44Z</time>
      </trkpt>
      <trkpt lat="40.7293580" lon="-2.3077400">
        <ele>1249.0</ele>
        <time>2019-07-06T12:23:48Z</time>
      </trkpt>
      <trkpt lat="40.7292360" lon="-2.3078000">
        <ele>1248.6</ele>
        <time>2019-07-06T12:23:50Z</time>
      </trkpt>
      <trkpt lat="40.7291740" lon="-2.3078330">
        <ele>1247.8</ele>
        <time>2019-07-06T12:23:51Z</time>
      </trkpt>
      <trkpt lat="40.7290460" lon="-2.3078950">
        <ele>1246.6</ele>
        <time>2019-07-06T12:23:53Z</time>
      </trkpt>
      <trkpt lat="40.7288650" lon="-2.3079950">
        <ele>1246.2</ele>
        <time>2019-07-06T12:23:56Z</time>
      </trkpt>
      <trkpt lat="40.7287490" lon="-2.3080570">
        <ele>1246.0</ele>
        <time>2019-07-06T12:23:58Z</time>
      </trkpt>
      <trkpt lat="40.7284630" lon="-2.3082090">
        <ele>1245.2</ele>
        <time>2019-07-06T12:24:03Z</time>
      </trkpt>
      <trkpt lat="40.7282870" lon="-2.3082970">
        <ele>1244.6</ele>
        <time>2019-07-06T12:24:06Z</time>
      </trkpt>
      <trkpt lat="40.7281740" lon="-2.3083590">
        <ele>1244.6</ele>
        <time>2019-07-06T12:24:08Z</time>
      </trkpt>
      <trkpt lat="40.7280630" lon="-2.3084260">
        <ele>1244.4</ele>
        <time>2019-07-06T12:24:10Z</time>
      </trkpt>
      <trkpt lat="40.7280050" lon="-2.3084610">
        <ele>1244.0</ele>
        <time>2019-07-06T12:24:11Z</time>
      </trkpt>
      <trkpt lat="40.7278920" lon="-2.3085500">
        <ele>1243.6</ele>
        <time>2019-07-06T12:24:13Z</time>
      </trkpt>
      <trkpt lat="40.7277950" lon="-2.3086630">
        <ele>1243.6</ele>
        <time>2019-07-06T12:24:15Z</time>
      </trkpt>
      <trkpt lat="40.7276990" lon="-2.3087800">
        <ele>1243.6</ele>
        <time>2019-07-06T12:24:17Z</time>
      </trkpt>
      <trkpt lat="40.7276080" lon="-2.3089020">
        <ele>1243.0</ele>
        <time>2019-07-06T12:24:19Z</time>
      </trkpt>
      <trkpt lat="40.7274690" lon="-2.3090820">
        <ele>1242.2</ele>
        <time>2019-07-06T12:24:22Z</time>
      </trkpt>
      <trkpt lat="40.7272390" lon="-2.3093670">
        <ele>1242.0</ele>
        <time>2019-07-06T12:24:27Z</time>
      </trkpt>
      <trkpt lat="40.7271930" lon="-2.3094250">
        <ele>1242.0</ele>
        <time>2019-07-06T12:24:28Z</time>
      </trkpt>
      <trkpt lat="40.7270270" lon="-2.3096650">
        <ele>1241.6</ele>
        <time>2019-07-06T12:24:32Z</time>
      </trkpt>
      <trkpt lat="40.7268930" lon="-2.3099080">
        <ele>1241.4</ele>
        <time>2019-07-06T12:24:36Z</time>
      </trkpt>
      <trkpt lat="40.7268380" lon="-2.3100400">
        <ele>1241.0</ele>
        <time>2019-07-06T12:24:38Z</time>
      </trkpt>
      <trkpt lat="40.7267840" lon="-2.3101800">
        <ele>1240.8</ele>
        <time>2019-07-06T12:24:40Z</time>
      </trkpt>
      <trkpt lat="40.7266510" lon="-2.3105530">
        <ele>1240.8</ele>
        <time>2019-07-06T12:24:45Z</time>
      </trkpt>
      <trkpt lat="40.7265750" lon="-2.3107850">
        <ele>1239.8</ele>
        <time>2019-07-06T12:24:48Z</time>
      </trkpt>
      <trkpt lat="40.7264960" lon="-2.3110260">
        <ele>1239.2</ele>
        <time>2019-07-06T12:24:51Z</time>
      </trkpt>
      <trkpt lat="40.7264430" lon="-2.3111750">
        <ele>1239.0</ele>
        <time>2019-07-06T12:24:53Z</time>
      </trkpt>
      <trkpt lat="40.7263660" lon="-2.3113960">
        <ele>1238.6</ele>
        <time>2019-07-06T12:24:56Z</time>
      </trkpt>
      <trkpt lat="40.7262910" lon="-2.3116210">
        <ele>1238.0</ele>
        <time>2019-07-06T12:24:59Z</time>
      </trkpt>
      <trkpt lat="40.7262390" lon="-2.3117720">
        <ele>1237.2</ele>
        <time>2019-07-06T12:25:01Z</time>
      </trkpt>
      <trkpt lat="40.7260590" lon="-2.3122900">
        <ele>1236.0</ele>
        <time>2019-07-06T12:25:08Z</time>
      </trkpt>
      <trkpt lat="40.7259650" lon="-2.3125020">
        <ele>1235.4</ele>
        <time>2019-07-06T12:25:11Z</time>
      </trkpt>
      <trkpt lat="40.7257490" lon="-2.3128930">
        <ele>1235.2</ele>
        <time>2019-07-06T12:25:17Z</time>
      </trkpt>
      <trkpt lat="40.7256480" lon="-2.3130530">
        <ele>1235.6</ele>
        <time>2019-07-06T12:25:20Z</time>
      </trkpt>
      <trkpt lat="40.7255300" lon="-2.3132730">
        <ele>1235.8</ele>
        <time>2019-07-06T12:25:24Z</time>
      </trkpt>
      <trkpt lat="40.7253790" lon="-2.3135300">
        <ele>1235.8</ele>
        <time>2019-07-06T12:25:29Z</time>
      </trkpt>
      <trkpt lat="40.7252850" lon="-2.3136930">
        <ele>1236.0</ele>
        <time>2019-07-06T12:25:32Z</time>
      </trkpt>
      <trkpt lat="40.7250820" lon="-2.3140320">
        <ele>1234.8</ele>
        <time>2019-07-06T12:25:38Z</time>
      </trkpt>
      <trkpt lat="40.7249380" lon="-2.3142740">
        <ele>1234.6</ele>
        <time>2019-07-06T12:25:42Z</time>
      </trkpt>
      <trkpt lat="40.7246680" lon="-2.3147210">
        <ele>1234.0</ele>
        <time>2019-07-06T12:25:49Z</time>
      </trkpt>
      <trkpt lat="40.7246280" lon="-2.3147830">
        <ele>1233.6</ele>
        <time>2019-07-06T12:25:50Z</time>
      </trkpt>
      <trkpt lat="40.7244960" lon="-2.3149700">
        <ele>1232.4</ele>
        <time>2019-07-06T12:25:53Z</time>
      </trkpt>
      <trkpt lat="40.7243510" lon="-2.3151540">
        <ele>1232.0</ele>
        <time>2019-07-06T12:25:56Z</time>
      </trkpt>
      <trkpt lat="40.7241470" lon="-2.3153990">
        <ele>1231.2</ele>
        <time>2019-07-06T12:26:00Z</time>
      </trkpt>
      <trkpt lat="40.7240440" lon="-2.3155200">
        <ele>1231.0</ele>
        <time>2019-07-06T12:26:02Z</time>
      </trkpt>
      <trkpt lat="40.7238940" lon="-2.3156940">
        <ele>1230.0</ele>
        <time>2019-07-06T12:26:05Z</time>
      </trkpt>
      <trkpt lat="40.7236940" lon="-2.3159250">
        <ele>1229.0</ele>
        <time>2019-07-06T12:26:09Z</time>
      </trkpt>
      <trkpt lat="40.7235450" lon="-2.3160950">
        <ele>1228.4</ele>
        <time>2019-07-06T12:26:12Z</time>
      </trkpt>
      <trkpt lat="40.7234440" lon="-2.3162130">
        <ele>1228.2</ele>
        <time>2019-07-06T12:26:14Z</time>
      </trkpt>
      <trkpt lat="40.7233910" lon="-2.3162710">
        <ele>1227.8</ele>
        <time>2019-07-06T12:26:15Z</time>
      </trkpt>
      <trkpt lat="40.7231870" lon="-2.3164930">
        <ele>1226.8</ele>
        <time>2019-07-06T12:26:19Z</time>
      </trkpt>
      <trkpt lat="40.7230320" lon="-2.3166570">
        <ele>1226.0</ele>
        <time>2019-07-06T12:26:22Z</time>
      </trkpt>
      <trkpt lat="40.7229250" lon="-2.3167620">
        <ele>1225.8</ele>
        <time>2019-07-06T12:26:24Z</time>
      </trkpt>
      <trkpt lat="40.7227620" lon="-2.3169180">
        <ele>1224.6</ele>
        <time>2019-07-06T12:26:27Z</time>
      </trkpt>
      <trkpt lat="40.7227050" lon="-2.3169710">
        <ele>1223.6</ele>
        <time>2019-07-06T12:26:28Z</time>
      </trkpt>
      <trkpt lat="40.7226490" lon="-2.3170260">
        <ele>1222.8</ele>
        <time>2019-07-06T12:26:29Z</time>
      </trkpt>
      <trkpt lat="40.7225900" lon="-2.3170830">
        <ele>1222.4</ele>
        <time>2019-07-06T12:26:30Z</time>
      </trkpt>
      <trkpt lat="40.7223080" lon="-2.3173570">
        <ele>1221.8</ele>
        <time>2019-07-06T12:26:35Z</time>
      </trkpt>
      <trkpt lat="40.7221870" lon="-2.3174700">
        <ele>1221.0</ele>
        <time>2019-07-06T12:26:37Z</time>
      </trkpt>
      <trkpt lat="40.7220050" lon="-2.3176490">
        <ele>1219.6</ele>
        <time>2019-07-06T12:26:40Z</time>
      </trkpt>
      <trkpt lat="40.7219440" lon="-2.3177100">
        <ele>1219.6</ele>
        <time>2019-07-06T12:26:41Z</time>
      </trkpt>
      <trkpt lat="40.7218240" lon="-2.3178360">
        <ele>1218.4</ele>
        <time>2019-07-06T12:26:43Z</time>
      </trkpt>
      <trkpt lat="40.7216480" lon="-2.3180130">
        <ele>1217.2</ele>
        <time>2019-07-06T12:26:46Z</time>
      </trkpt>
      <trkpt lat="40.7215860" lon="-2.3180700">
        <ele>1216.8</ele>
        <time>2019-07-06T12:26:47Z</time>
      </trkpt>
      <trkpt lat="40.7212870" lon="-2.3183680">
        <ele>1216.2</ele>
        <time>2019-07-06T12:26:52Z</time>
      </trkpt>
      <trkpt lat="40.7212260" lon="-2.3184290">
        <ele>1215.8</ele>
        <time>2019-07-06T12:26:53Z</time>
      </trkpt>
      <trkpt lat="40.7211050" lon="-2.3185510">
        <ele>1215.0</ele>
        <time>2019-07-06T12:26:55Z</time>
      </trkpt>
      <trkpt lat="40.7208140" lon="-2.3188210">
        <ele>1214.2</ele>
        <time>2019-07-06T12:27:00Z</time>
      </trkpt>
      <trkpt lat="40.7207580" lon="-2.3188670">
        <ele>1213.8</ele>
        <time>2019-07-06T12:27:01Z</time>
      </trkpt>
      <trkpt lat="40.7206540" lon="-2.3189420">
        <ele>1213.4</ele>
        <time>2019-07-06T12:27:03Z</time>
      </trkpt>
      <trkpt lat="40.7205310" lon="-2.3190090">
        <ele>1213.2</ele>
        <time>2019-07-06T12:27:05Z</time>
      </trkpt>
      <trkpt lat="40.7202140" lon="-2.3191370">
        <ele>1212.8</ele>
        <time>2019-07-06T12:27:10Z</time>
      </trkpt>
      <trkpt lat="40.7200820" lon="-2.3191760">
        <ele>1212.4</ele>
        <time>2019-07-06T12:27:12Z</time>
      </trkpt>
      <trkpt lat="40.7198820" lon="-2.3192060">
        <ele>1212.0</ele>
        <time>2019-07-06T12:27:15Z</time>
      </trkpt>
      <trkpt lat="40.7196680" lon="-2.3191970">
        <ele>1210.6</ele>
        <time>2019-07-06T12:27:18Z</time>
      </trkpt>
      <trkpt lat="40.7195960" lon="-2.3191990">
        <ele>1209.4</ele>
        <time>2019-07-06T12:27:19Z</time>
      </trkpt>
      <trkpt lat="40.7195270" lon="-2.3192070">
        <ele>1208.8</ele>
        <time>2019-07-06T12:27:20Z</time>
      </trkpt>
      <trkpt lat="40.7194630" lon="-2.3192200">
        <ele>1208.2</ele>
        <time>2019-07-06T12:27:21Z</time>
      </trkpt>
      <trkpt lat="40.7193350" lon="-2.3192480">
        <ele>1207.6</ele>
        <time>2019-07-06T12:27:23Z</time>
      </trkpt>
      <trkpt lat="40.7192740" lon="-2.3192690">
        <ele>1207.0</ele>
        <time>2019-07-06T12:27:24Z</time>
      </trkpt>
      <trkpt lat="40.7192140" lon="-2.3192940">
        <ele>1206.2</ele>
        <time>2019-07-06T12:27:25Z</time>
      </trkpt>
      <trkpt lat="40.7191560" lon="-2.3193190">
        <ele>1205.6</ele>
        <time>2019-07-06T12:27:26Z</time>
      </trkpt>
      <trkpt lat="40.7190280" lon="-2.3193720">
        <ele>1204.4</ele>
        <time>2019-07-06T12:27:28Z</time>
      </trkpt>
      <trkpt lat="40.7189000" lon="-2.3194250">
        <ele>1203.4</ele>
        <time>2019-07-06T12:27:30Z</time>
      </trkpt>
      <trkpt lat="40.7187300" lon="-2.3195040">
        <ele>1201.8</ele>
        <time>2019-07-06T12:27:33Z</time>
      </trkpt>
      <trkpt lat="40.7186180" lon="-2.3195690">
        <ele>1200.8</ele>
        <time>2019-07-06T12:27:35Z</time>
      </trkpt>
      <trkpt lat="40.7185110" lon="-2.3196550">
        <ele>1199.6</ele>
        <time>2019-07-06T12:27:37Z</time>
      </trkpt>
      <trkpt lat="40.7184150" lon="-2.3197560">
        <ele>1199.0</ele>
        <time>2019-07-06T12:27:39Z</time>
      </trkpt>
      <trkpt lat="40.7183740" lon="-2.3198170">
        <ele>1198.4</ele>
        <time>2019-07-06T12:27:40Z</time>
      </trkpt>
      <trkpt lat="40.7182560" lon="-2.3199860">
        <ele>1197.0</ele>
        <time>2019-07-06T12:27:43Z</time>
      </trkpt>
      <trkpt lat="40.7181620" lon="-2.3201210">
        <ele>1196.0</ele>
        <time>2019-07-06T12:27:45Z</time>
      </trkpt>
      <trkpt lat="40.7181080" lon="-2.3201940">
        <ele>1195.2</ele>
        <time>2019-07-06T12:27:46Z</time>
      </trkpt>
      <trkpt lat="40.7179880" lon="-2.3203420">
        <ele>1194.0</ele>
        <time>2019-07-06T12:27:48Z</time>
      </trkpt>
      <trkpt lat="40.7178670" lon="-2.3204800">
        <ele>1193.2</ele>
        <time>2019-07-06T12:27:50Z</time>
      </trkpt>
      <trkpt lat="40.7178210" lon="-2.3205520">
        <ele>1192.8</ele>
        <time>2019-07-06T12:27:51Z</time>
      </trkpt>
      <trkpt lat="40.7177690" lon="-2.3207110">
        <ele>1192.8</ele>
        <time>2019-07-06T12:27:53Z</time>
      </trkpt>
      <trkpt lat="40.7177520" lon="-2.3208600">
        <ele>1192.4</ele>
        <time>2019-07-06T12:27:55Z</time>
      </trkpt>
      <trkpt lat="40.7177410" lon="-2.3210410">
        <ele>1193.4</ele>
        <time>2019-07-06T12:27:58Z</time>
      </trkpt>
      <trkpt lat="40.7177400" lon="-2.3211340">
        <ele>1193.6</ele>
        <time>2019-07-06T12:28:00Z</time>
      </trkpt>
      <trkpt lat="40.7177430" lon="-2.3212180">
        <ele>1194.4</ele>
        <time>2019-07-06T12:28:02Z</time>
      </trkpt>
      <trkpt lat="40.7177440" lon="-2.3212520">
        <ele>1194.8</ele>
        <time>2019-07-06T12:28:03Z</time>
      </trkpt>
      <trkpt lat="40.7177420" lon="-2.3213270">
        <ele>1195.2</ele>
        <time>2019-07-06T12:28:05Z</time>
      </trkpt>
      <trkpt lat="40.7177220" lon="-2.3214380">
        <ele>1195.6</ele>
        <time>2019-07-06T12:28:08Z</time>
      </trkpt>
      <trkpt lat="40.7177090" lon="-2.3214780">
        <ele>1195.8</ele>
        <time>2019-07-06T12:28:09Z</time>
      </trkpt>
      <trkpt lat="40.7176550" lon="-2.3215800">
        <ele>1196.4</ele>
        <time>2019-07-06T12:28:12Z</time>
      </trkpt>
      <trkpt lat="40.7175990" lon="-2.3216190">
        <ele>1197.0</ele>
        <time>2019-07-06T12:28:14Z</time>
      </trkpt>
      <trkpt lat="40.7175020" lon="-2.3216230">
        <ele>1197.6</ele>
        <time>2019-07-06T12:28:17Z</time>
      </trkpt>
      <trkpt lat="40.7174690" lon="-2.3216060">
        <ele>1197.6</ele>
        <time>2019-07-06T12:28:18Z</time>
      </trkpt>
      <trkpt lat="40.7173210" lon="-2.3214640">
        <ele>1197.6</ele>
        <time>2019-07-06T12:28:23Z</time>
      </trkpt>
      <trkpt lat="40.7172920" lon="-2.3214290">
        <ele>1197.8</ele>
        <time>2019-07-06T12:28:24Z</time>
      </trkpt>
      <trkpt lat="40.7172330" lon="-2.3213570">
        <ele>1198.0</ele>
        <time>2019-07-06T12:28:26Z</time>
      </trkpt>
      <trkpt lat="40.7171130" lon="-2.3212060">
        <ele>1198.4</ele>
        <time>2019-07-06T12:28:30Z</time>
      </trkpt>
      <trkpt lat="40.7170850" lon="-2.3211650">
        <ele>1198.2</ele>
        <time>2019-07-06T12:28:31Z</time>
      </trkpt>
      <trkpt lat="40.7168630" lon="-2.3208760">
        <ele>1198.2</ele>
        <time>2019-07-06T12:28:38Z</time>
      </trkpt>
      <trkpt lat="40.7165720" lon="-2.3205660">
        <ele>1197.4</ele>
        <time>2019-07-06T12:28:45Z</time>
      </trkpt>
      <trkpt lat="40.7164260" lon="-2.3204260">
        <ele>1197.2</ele>
        <time>2019-07-06T12:28:48Z</time>
      </trkpt>
      <trkpt lat="40.7163730" lon="-2.3203780">
        <ele>1197.0</ele>
        <time>2019-07-06T12:28:49Z</time>
      </trkpt>
      <trkpt lat="40.7163180" lon="-2.3203310">
        <ele>1196.8</ele>
        <time>2019-07-06T12:28:50Z</time>
      </trkpt>
      <trkpt lat="40.7162060" lon="-2.3202260">
        <ele>1196.0</ele>
        <time>2019-07-06T12:28:52Z</time>
      </trkpt>
      <trkpt lat="40.7161490" lon="-2.3201690">
        <ele>1195.8</ele>
        <time>2019-07-06T12:28:53Z</time>
      </trkpt>
      <trkpt lat="40.7160240" lon="-2.3200600">
        <ele>1195.4</ele>
        <time>2019-07-06T12:28:55Z</time>
      </trkpt>
      <trkpt lat="40.7159600" lon="-2.3200020">
        <ele>1195.0</ele>
        <time>2019-07-06T12:28:56Z</time>
      </trkpt>
      <trkpt lat="40.7158990" lon="-2.3199430">
        <ele>1194.8</ele>
        <time>2019-07-06T12:28:57Z</time>
      </trkpt>
      <trkpt lat="40.7157470" lon="-2.3198130">
        <ele>1194.6</ele>
        <time>2019-07-06T12:29:00Z</time>
      </trkpt>
      <trkpt lat="40.7156650" lon="-2.3197350">
        <ele>1195.0</ele>
        <time>2019-07-06T12:29:02Z</time>
      </trkpt>
      <trkpt lat="40.7155620" lon="-2.3196390">
        <ele>1195.6</ele>
        <time>2019-07-06T12:29:05Z</time>
      </trkpt>
      <trkpt lat="40.7154940" lon="-2.3195800">
        <ele>1196.0</ele>
        <time>2019-07-06T12:29:07Z</time>
      </trkpt>
      <trkpt lat="40.7153660" lon="-2.3194550">
        <ele>1196.6</ele>
        <time>2019-07-06T12:29:11Z</time>
      </trkpt>
      <trkpt lat="40.7152950" lon="-2.3194030">
        <ele>1196.8</ele>
        <time>2019-07-06T12:29:13Z</time>
      </trkpt>
      <trkpt lat="40.7151890" lon="-2.3193030">
        <ele>1197.0</ele>
        <time>2019-07-06T12:29:16Z</time>
      </trkpt>
      <trkpt lat="40.7150210" lon="-2.3191590">
        <ele>1196.8</ele>
        <time>2019-07-06T12:29:20Z</time>
      </trkpt>
      <trkpt lat="40.7149780" lon="-2.3191150">
        <ele>1196.6</ele>
        <time>2019-07-06T12:29:21Z</time>
      </trkpt>
      <trkpt lat="40.7148050" lon="-2.3189490">
        <ele>1196.2</ele>
        <time>2019-07-06T12:29:25Z</time>
      </trkpt>
      <trkpt lat="40.7147610" lon="-2.3189000">
        <ele>1196.2</ele>
        <time>2019-07-06T12:29:26Z</time>
      </trkpt>
      <trkpt lat="40.7146610" lon="-2.3187960">
        <ele>1195.6</ele>
        <time>2019-07-06T12:29:28Z</time>
      </trkpt>
      <trkpt lat="40.7145240" lon="-2.3186490">
        <ele>1195.4</ele>
        <time>2019-07-06T12:29:31Z</time>
      </trkpt>
      <trkpt lat="40.7144160" lon="-2.3185640">
        <ele>1195.6</ele>
        <time>2019-07-06T12:29:35Z</time>
      </trkpt>
      <trkpt lat="40.7143370" lon="-2.3184780">
        <ele>1196.4</ele>
        <time>2019-07-06T12:29:38Z</time>
      </trkpt>
      <trkpt lat="40.7142820" lon="-2.3184250">
        <ele>1196.6</ele>
        <time>2019-07-06T12:29:40Z</time>
      </trkpt>
      <trkpt lat="40.7142240" lon="-2.3183700">
        <ele>1197.2</ele>
        <time>2019-07-06T12:29:42Z</time>
      </trkpt>
      <trkpt lat="40.7141050" lon="-2.3182460">
        <ele>1197.6</ele>
        <time>2019-07-06T12:29:46Z</time>
      </trkpt>
      <trkpt lat="40.7140410" lon="-2.3182040">
        <ele>1198.0</ele>
        <time>2019-07-06T12:29:48Z</time>
      </trkpt>
      <trkpt lat="40.7139740" lon="-2.3181710">
        <ele>1198.4</ele>
        <time>2019-07-06T12:29:50Z</time>
      </trkpt>
      <trkpt lat="40.7138650" lon="-2.3181310">
        <ele>1198.6</ele>
        <time>2019-07-06T12:29:53Z</time>
      </trkpt>
      <trkpt lat="40.7136160" lon="-2.3179860">
        <ele>1198.4</ele>
        <time>2019-07-06T12:29:59Z</time>
      </trkpt>
      <trkpt lat="40.7133110" lon="-2.3178130">
        <ele>1198.0</ele>
        <time>2019-07-06T12:30:05Z</time>
      </trkpt>
      <trkpt lat="40.7132560" lon="-2.3177900">
        <ele>1198.0</ele>
        <time>2019-07-06T12:30:06Z</time>
      </trkpt>
      <trkpt lat="40.7130940" lon="-2.3177090">
        <ele>1197.8</ele>
        <time>2019-07-06T12:30:09Z</time>
      </trkpt>
      <trkpt lat="40.7130440" lon="-2.3176730">
        <ele>1197.8</ele>
        <time>2019-07-06T12:30:10Z</time>
      </trkpt>
      <trkpt lat="40.7127170" lon="-2.3174760">
        <ele>1197.6</ele>
        <time>2019-07-06T12:30:16Z</time>
      </trkpt>
      <trkpt lat="40.7126570" lon="-2.3174400">
        <ele>1197.4</ele>
        <time>2019-07-06T12:30:17Z</time>
      </trkpt>
      <trkpt lat="40.7124930" lon="-2.3173630">
        <ele>1197.6</ele>
        <time>2019-07-06T12:30:20Z</time>
      </trkpt>
      <trkpt lat="40.7124400" lon="-2.3173430">
        <ele>1197.4</ele>
        <time>2019-07-06T12:30:21Z</time>
      </trkpt>
      <trkpt lat="40.7121800" lon="-2.3172000">
        <ele>1197.6</ele>
        <time>2019-07-06T12:30:26Z</time>
      </trkpt>
      <trkpt lat="40.7118930" lon="-2.3170480">
        <ele>1196.8</ele>
        <time>2019-07-06T12:30:31Z</time>
      </trkpt>
      <trkpt lat="40.7116210" lon="-2.3169030">
        <ele>1197.0</ele>
        <time>2019-07-06T12:30:36Z</time>
      </trkpt>
      <trkpt lat="40.7113130" lon="-2.3166590">
        <ele>1197.6</ele>
        <time>2019-07-06T12:30:43Z</time>
      </trkpt>
      <trkpt lat="40.7111070" lon="-2.3163870">
        <ele>1198.0</ele>
        <time>2019-07-06T12:30:49Z</time>
      </trkpt>
      <trkpt lat="40.7110700" lon="-2.3163410">
        <ele>1198.2</ele>
        <time>2019-07-06T12:30:50Z</time>
      </trkpt>
      <trkpt lat="40.7109030" lon="-2.3161770">
        <ele>1198.8</ele>
        <time>2019-07-06T12:30:54Z</time>
      </trkpt>
      <trkpt lat="40.7108570" lon="-2.3161430">
        <ele>1198.8</ele>
        <time>2019-07-06T12:30:55Z</time>
      </trkpt>
      <trkpt lat="40.7104590" lon="-2.3158740">
        <ele>1198.4</ele>
        <time>2019-07-06T12:31:03Z</time>
      </trkpt>
      <trkpt lat="40.7103080" lon="-2.3157710">
        <ele>1198.2</ele>
        <time>2019-07-06T12:31:06Z</time>
      </trkpt>
      <trkpt lat="40.7102120" lon="-2.3156920">
        <ele>1198.2</ele>
        <time>2019-07-06T12:31:08Z</time>
      </trkpt>
      <trkpt lat="40.7099830" lon="-2.3154540">
        <ele>1198.0</ele>
        <time>2019-07-06T12:31:13Z</time>
      </trkpt>
      <trkpt lat="40.7097740" lon="-2.3151280">
        <ele>1197.2</ele>
        <time>2019-07-06T12:31:18Z</time>
      </trkpt>
      <trkpt lat="40.7097280" lon="-2.3150600">
        <ele>1197.4</ele>
        <time>2019-07-06T12:31:19Z</time>
      </trkpt>
      <trkpt lat="40.7095790" lon="-2.3148320">
        <ele>1197.4</ele>
        <time>2019-07-06T12:31:23Z</time>
      </trkpt>
      <trkpt lat="40.7095060" lon="-2.3146360">
        <ele>1198.0</ele>
        <time>2019-07-06T12:31:27Z</time>
      </trkpt>
      <trkpt lat="40.7094950" lon="-2.3145870">
        <ele>1198.2</ele>
        <time>2019-07-06T12:31:28Z</time>
      </trkpt>
      <trkpt lat="40.7094320" lon="-2.3143370">
        <ele>1199.4</ele>
        <time>2019-07-06T12:31:33Z</time>
      </trkpt>
      <trkpt lat="40.7093160" lon="-2.3139090">
        <ele>1200.4</ele>
        <time>2019-07-06T12:31:41Z</time>
      </trkpt>
      <trkpt lat="40.7092560" lon="-2.3136920">
        <ele>1200.4</ele>
        <time>2019-07-06T12:31:45Z</time>
      </trkpt>
      <trkpt lat="40.7092100" lon="-2.3135290">
        <ele>1200.8</ele>
        <time>2019-07-06T12:31:48Z</time>
      </trkpt>
      <trkpt lat="40.7091990" lon="-2.3134710">
        <ele>1201.0</ele>
        <time>2019-07-06T12:31:49Z</time>
      </trkpt>
      <trkpt lat="40.7091800" lon="-2.3133500">
        <ele>1201.2</ele>
        <time>2019-07-06T12:31:51Z</time>
      </trkpt>
      <trkpt lat="40.7091580" lon="-2.3132250">
        <ele>1201.2</ele>
        <time>2019-07-06T12:31:53Z</time>
      </trkpt>
      <trkpt lat="40.7091290" lon="-2.3131030">
        <ele>1201.4</ele>
        <time>2019-07-06T12:31:55Z</time>
      </trkpt>
      <trkpt lat="40.7090830" lon="-2.3129940">
        <ele>1201.6</ele>
        <time>2019-07-06T12:31:57Z</time>
      </trkpt>
      <trkpt lat="40.7090580" lon="-2.3129390">
        <ele>1201.6</ele>
        <time>2019-07-06T12:31:58Z</time>
      </trkpt>
      <trkpt lat="40.7090320" lon="-2.3128810">
        <ele>1201.8</ele>
        <time>2019-07-06T12:31:59Z</time>
      </trkpt>
      <trkpt lat="40.7089580" lon="-2.3127130">
        <ele>1202.4</ele>
        <time>2019-07-06T12:32:02Z</time>
      </trkpt>
      <trkpt lat="40.7089300" lon="-2.3126580">
        <ele>1202.6</ele>
        <time>2019-07-06T12:32:03Z</time>
      </trkpt>
      <trkpt lat="40.7089020" lon="-2.3126070">
        <ele>1202.6</ele>
        <time>2019-07-06T12:32:04Z</time>
      </trkpt>
      <trkpt lat="40.7087770" lon="-2.3123330">
        <ele>1202.6</ele>
        <time>2019-07-06T12:32:09Z</time>
      </trkpt>
      <trkpt lat="40.7086730" lon="-2.3121170">
        <ele>1202.8</ele>
        <time>2019-07-06T12:32:13Z</time>
      </trkpt>
      <trkpt lat="40.7086380" lon="-2.3120620">
        <ele>1202.8</ele>
        <time>2019-07-06T12:32:14Z</time>
      </trkpt>
      <trkpt lat="40.7084330" lon="-2.3117710">
        <ele>1203.0</ele>
        <time>2019-07-06T12:32:19Z</time>
      </trkpt>
      <trkpt lat="40.7082720" lon="-2.3115470">
        <ele>1203.6</ele>
        <time>2019-07-06T12:32:23Z</time>
      </trkpt>
      <trkpt lat="40.7082300" lon="-2.3114910">
        <ele>1203.6</ele>
        <time>2019-07-06T12:32:24Z</time>
      </trkpt>
      <trkpt lat="40.7079470" lon="-2.3111710">
        <ele>1204.0</ele>
        <time>2019-07-06T12:32:30Z</time>
      </trkpt>
      <trkpt lat="40.7078000" lon="-2.3110220">
        <ele>1203.0</ele>
        <time>2019-07-06T12:32:33Z</time>
      </trkpt>
      <trkpt lat="40.7077550" lon="-2.3109860">
        <ele>1202.8</ele>
        <time>2019-07-06T12:32:34Z</time>
      </trkpt>
      <trkpt lat="40.7075170" lon="-2.3107720">
        <ele>1203.8</ele>
        <time>2019-07-06T12:32:40Z</time>
      </trkpt>
      <trkpt lat="40.7073600" lon="-2.3106350">
        <ele>1204.0</ele>
        <time>2019-07-06T12:32:44Z</time>
      </trkpt>
      <trkpt lat="40.7072770" lon="-2.3105720">
        <ele>1204.4</ele>
        <time>2019-07-06T12:32:46Z</time>
      </trkpt>
      <trkpt lat="40.7069290" lon="-2.3103090">
        <ele>1204.4</ele>
        <time>2019-07-06T12:32:54Z</time>
      </trkpt>
      <trkpt lat="40.7068870" lon="-2.3102760">
        <ele>1204.6</ele>
        <time>2019-07-06T12:32:55Z</time>
      </trkpt>
      <trkpt lat="40.7066190" lon="-2.3100770">
        <ele>1205.2</ele>
        <time>2019-07-06T12:33:01Z</time>
      </trkpt>
      <trkpt lat="40.7063560" lon="-2.3098640">
        <ele>1205.6</ele>
        <time>2019-07-06T12:33:07Z</time>
      </trkpt>
      <trkpt lat="40.7063120" lon="-2.3098230">
        <ele>1205.6</ele>
        <time>2019-07-06T12:33:08Z</time>
      </trkpt>
      <trkpt lat="40.7060150" lon="-2.3095380">
        <ele>1205.4</ele>
        <time>2019-07-06T12:33:14Z</time>
      </trkpt>
      <trkpt lat="40.7057850" lon="-2.3093190">
        <ele>1206.0</ele>
        <time>2019-07-06T12:33:19Z</time>
      </trkpt>
      <trkpt lat="40.7056500" lon="-2.3091790">
        <ele>1206.4</ele>
        <time>2019-07-06T12:33:22Z</time>
      </trkpt>
      <trkpt lat="40.7055150" lon="-2.3090410">
        <ele>1206.2</ele>
        <time>2019-07-06T12:33:25Z</time>
      </trkpt>
      <trkpt lat="40.7053410" lon="-2.3088690">
        <ele>1206.4</ele>
        <time>2019-07-06T12:33:29Z</time>
      </trkpt>
      <trkpt lat="40.7052940" lon="-2.3088300">
        <ele>1206.4</ele>
        <time>2019-07-06T12:33:30Z</time>
      </trkpt>
      <trkpt lat="40.7050490" lon="-2.3086750">
        <ele>1206.2</ele>
        <time>2019-07-06T12:33:35Z</time>
      </trkpt>
      <trkpt lat="40.7047700" lon="-2.3085030">
        <ele>1206.2</ele>
        <time>2019-07-06T12:33:41Z</time>
      </trkpt>
      <trkpt lat="40.7046850" lon="-2.3084520">
        <ele>1206.8</ele>
        <time>2019-07-06T12:33:43Z</time>
      </trkpt>
      <trkpt lat="40.7045310" lon="-2.3083230">
        <ele>1207.2</ele>
        <time>2019-07-06T12:33:47Z</time>
      </trkpt>
      <trkpt lat="40.7043730" lon="-2.3081710">
        <ele>1207.4</ele>
        <time>2019-07-06T12:33:51Z</time>
      </trkpt>
      <trkpt lat="40.7043320" lon="-2.3081260">
        <ele>1207.4</ele>
        <time>2019-07-06T12:33:52Z</time>
      </trkpt>
      <trkpt lat="40.7040710" lon="-2.3078550">
        <ele>1207.8</ele>
        <time>2019-07-06T12:33:58Z</time>
      </trkpt>
      <trkpt lat="40.7040330" lon="-2.3078220">
        <ele>1208.0</ele>
        <time>2019-07-06T12:33:59Z</time>
      </trkpt>
      <trkpt lat="40.7038250" lon="-2.3076050">
        <ele>1208.6</ele>
        <time>2019-07-06T12:34:05Z</time>
      </trkpt>
      <trkpt lat="40.7037320" lon="-2.3074940">
        <ele>1209.2</ele>
        <time>2019-07-06T12:34:08Z</time>
      </trkpt>
      <trkpt lat="40.7036260" lon="-2.3073540">
        <ele>1210.2</ele>
        <time>2019-07-06T12:34:12Z</time>
      </trkpt>
      <trkpt lat="40.7036020" lon="-2.3073140">
        <ele>1210.4</ele>
        <time>2019-07-06T12:34:13Z</time>
      </trkpt>
      <trkpt lat="40.7034450" lon="-2.3070620">
        <ele>1210.6</ele>
        <time>2019-07-06T12:34:19Z</time>
      </trkpt>
      <trkpt lat="40.7033330" lon="-2.3068590">
        <ele>1211.4</ele>
        <time>2019-07-06T12:34:24Z</time>
      </trkpt>
      <trkpt lat="40.7033110" lon="-2.3068180">
        <ele>1211.4</ele>
        <time>2019-07-06T12:34:25Z</time>
      </trkpt>
      <trkpt lat="40.7032140" lon="-2.3066740">
        <ele>1212.4</ele>
        <time>2019-07-06T12:34:29Z</time>
      </trkpt>
      <trkpt lat="40.7030970" lon="-2.3064920">
        <ele>1212.6</ele>
        <time>2019-07-06T12:34:34Z</time>
      </trkpt>
      <trkpt lat="40.7030220" lon="-2.3063730">
        <ele>1212.8</ele>
        <time>2019-07-06T12:34:37Z</time>
      </trkpt>
      <trkpt lat="40.7029750" lon="-2.3062870">
        <ele>1213.0</ele>
        <time>2019-07-06T12:34:39Z</time>
      </trkpt>
      <trkpt lat="40.7029040" lon="-2.3061450">
        <ele>1213.4</ele>
        <time>2019-07-06T12:34:42Z</time>
      </trkpt>
      <trkpt lat="40.7028400" lon="-2.3060500">
        <ele>1213.4</ele>
        <time>2019-07-06T12:34:44Z</time>
      </trkpt>
      <trkpt lat="40.7027780" lon="-2.3059300">
        <ele>1213.4</ele>
        <time>2019-07-06T12:34:46Z</time>
      </trkpt>
      <trkpt lat="40.7026450" lon="-2.3056810">
        <ele>1213.4</ele>
        <time>2019-07-06T12:34:50Z</time>
      </trkpt>
      <trkpt lat="40.7026120" lon="-2.3056220">
        <ele>1213.4</ele>
        <time>2019-07-06T12:34:51Z</time>
      </trkpt>
      <trkpt lat="40.7024300" lon="-2.3053500">
        <ele>1213.6</ele>
        <time>2019-07-06T12:34:56Z</time>
      </trkpt>
      <trkpt lat="40.7022480" lon="-2.3051670">
        <ele>1213.8</ele>
        <time>2019-07-06T12:35:00Z</time>
      </trkpt>
      <trkpt lat="40.7021940" lon="-2.3051300">
        <ele>1213.6</ele>
        <time>2019-07-06T12:35:01Z</time>
      </trkpt>
      <trkpt lat="40.7018980" lon="-2.3050600">
        <ele>1212.8</ele>
        <time>2019-07-06T12:35:06Z</time>
      </trkpt>
      <trkpt lat="40.7016550" lon="-2.3051500">
        <ele>1212.8</ele>
        <time>2019-07-06T12:35:10Z</time>
      </trkpt>
      <trkpt lat="40.7015560" lon="-2.3052330">
        <ele>1213.0</ele>
        <time>2019-07-06T12:35:12Z</time>
      </trkpt>
      <trkpt lat="40.7014180" lon="-2.3053390">
        <ele>1213.0</ele>
        <time>2019-07-06T12:35:15Z</time>
      </trkpt>
      <trkpt lat="40.7012180" lon="-2.3054830">
        <ele>1213.0</ele>
        <time>2019-07-06T12:35:19Z</time>
      </trkpt>
      <trkpt lat="40.7010740" lon="-2.3056020">
        <ele>1212.6</ele>
        <time>2019-07-06T12:35:22Z</time>
      </trkpt>
      <trkpt lat="40.7010230" lon="-2.3056390">
        <ele>1212.4</ele>
        <time>2019-07-06T12:35:23Z</time>
      </trkpt>
      <trkpt lat="40.7009360" lon="-2.3057130">
        <ele>1212.2</ele>
        <time>2019-07-06T12:35:25Z</time>
      </trkpt>
      <trkpt lat="40.7009080" lon="-2.3057600">
        <ele>1212.0</ele>
        <time>2019-07-06T12:35:26Z</time>
      </trkpt>
      <trkpt lat="40.7008890" lon="-2.3059390">
        <ele>1211.4</ele>
        <time>2019-07-06T12:35:29Z</time>
      </trkpt>
      <trkpt lat="40.7009320" lon="-2.3061310">
        <ele>1211.0</ele>
        <time>2019-07-06T12:35:32Z</time>
      </trkpt>
      <trkpt lat="40.7009480" lon="-2.3061980">
        <ele>1211.0</ele>
        <time>2019-07-06T12:35:33Z</time>
      </trkpt>
      <trkpt lat="40.7009650" lon="-2.3062660">
        <ele>1211.0</ele>
        <time>2019-07-06T12:35:34Z</time>
      </trkpt>
      <trkpt lat="40.7009990" lon="-2.3063970">
        <ele>1211.0</ele>
        <time>2019-07-06T12:35:36Z</time>
      </trkpt>
      <trkpt lat="40.7010170" lon="-2.3064690">
        <ele>1211.2</ele>
        <time>2019-07-06T12:35:37Z</time>
      </trkpt>
      <trkpt lat="40.7011400" lon="-2.3068220">
        <ele>1211.2</ele>
        <time>2019-07-06T12:35:42Z</time>
      </trkpt>
      <trkpt lat="40.7012800" lon="-2.3071590">
        <ele>1211.4</ele>
        <time>2019-07-06T12:35:47Z</time>
      </trkpt>
      <trkpt lat="40.7014240" lon="-2.3075240">
        <ele>1212.0</ele>
        <time>2019-07-06T12:35:53Z</time>
      </trkpt>
      <trkpt lat="40.7014470" lon="-2.3075830">
        <ele>1212.2</ele>
        <time>2019-07-06T12:35:54Z</time>
      </trkpt>
      <trkpt lat="40.7015300" lon="-2.3077660">
        <ele>1212.2</ele>
        <time>2019-07-06T12:35:57Z</time>
      </trkpt>
      <trkpt lat="40.7015540" lon="-2.3078260">
        <ele>1212.4</ele>
        <time>2019-07-06T12:35:58Z</time>
      </trkpt>
      <trkpt lat="40.7016820" lon="-2.3081890">
        <ele>1213.4</ele>
        <time>2019-07-06T12:36:04Z</time>
      </trkpt>
      <trkpt lat="40.7017030" lon="-2.3082490">
        <ele>1213.4</ele>
        <time>2019-07-06T12:36:05Z</time>
      </trkpt>
      <trkpt lat="40.7017630" lon="-2.3084270">
        <ele>1214.0</ele>
        <time>2019-07-06T12:36:08Z</time>
      </trkpt>
      <trkpt lat="40.7018000" lon="-2.3085490">
        <ele>1214.2</ele>
        <time>2019-07-06T12:36:10Z</time>
      </trkpt>
      <trkpt lat="40.7018210" lon="-2.3086090">
        <ele>1214.2</ele>
        <time>2019-07-06T12:36:11Z</time>
      </trkpt>
      <trkpt lat="40.7018400" lon="-2.3086660">
        <ele>1214.4</ele>
        <time>2019-07-06T12:36:12Z</time>
      </trkpt>
      <trkpt lat="40.7018910" lon="-2.3088330">
        <ele>1215.2</ele>
        <time>2019-07-06T12:36:15Z</time>
      </trkpt>
      <trkpt lat="40.7019120" lon="-2.3088910">
        <ele>1215.6</ele>
        <time>2019-07-06T12:36:16Z</time>
      </trkpt>
      <trkpt lat="40.7019480" lon="-2.3090000">
        <ele>1215.8</ele>
        <time>2019-07-06T12:36:18Z</time>
      </trkpt>
      <trkpt lat="40.7019850" lon="-2.3091190">
        <ele>1215.8</ele>
        <time>2019-07-06T12:36:20Z</time>
      </trkpt>
      <trkpt lat="40.7020840" lon="-2.3094380">
        <ele>1216.2</ele>
        <time>2019-07-06T12:36:25Z</time>
      </trkpt>
      <trkpt lat="40.7021570" lon="-2.3096570">
        <ele>1216.4</ele>
        <time>2019-07-06T12:36:29Z</time>
      </trkpt>
      <trkpt lat="40.7021800" lon="-2.3097080">
        <ele>1216.6</ele>
        <time>2019-07-06T12:36:30Z</time>
      </trkpt>
      <trkpt lat="40.7021990" lon="-2.3097570">
        <ele>1217.0</ele>
        <time>2019-07-06T12:36:31Z</time>
      </trkpt>
      <trkpt lat="40.7022220" lon="-2.3098050">
        <ele>1217.6</ele>
        <time>2019-07-06T12:36:32Z</time>
      </trkpt>
      <trkpt lat="40.7022680" lon="-2.3098930">
        <ele>1217.8</ele>
        <time>2019-07-06T12:36:34Z</time>
      </trkpt>
      <trkpt lat="40.7023110" lon="-2.3099830">
        <ele>1218.0</ele>
        <time>2019-07-06T12:36:36Z</time>
      </trkpt>
      <trkpt lat="40.7023600" lon="-2.3101160">
        <ele>1218.6</ele>
        <time>2019-07-06T12:36:39Z</time>
      </trkpt>
      <trkpt lat="40.7023890" lon="-2.3101970">
        <ele>1219.2</ele>
        <time>2019-07-06T12:36:41Z</time>
      </trkpt>
      <trkpt lat="40.7024610" lon="-2.3103530">
        <ele>1219.6</ele>
        <time>2019-07-06T12:36:45Z</time>
      </trkpt>
      <trkpt lat="40.7025020" lon="-2.3104240">
        <ele>1220.0</ele>
        <time>2019-07-06T12:36:47Z</time>
      </trkpt>
      <trkpt lat="40.7025660" lon="-2.3105170">
        <ele>1220.8</ele>
        <time>2019-07-06T12:36:50Z</time>
      </trkpt>
      <trkpt lat="40.7026190" lon="-2.3106170">
        <ele>1221.8</ele>
        <time>2019-07-06T12:36:53Z</time>
      </trkpt>
      <trkpt lat="40.7026370" lon="-2.3106530">
        <ele>1222.2</ele>
        <time>2019-07-06T12:36:54Z</time>
      </trkpt>
      <trkpt lat="40.7026700" lon="-2.3107210">
        <ele>1222.8</ele>
        <time>2019-07-06T12:36:56Z</time>
      </trkpt>
      <trkpt lat="40.7027010" lon="-2.3108440">
        <ele>1223.0</ele>
        <time>2019-07-06T12:36:59Z</time>
      </trkpt>
      <trkpt lat="40.7027430" lon="-2.3110060">
        <ele>1223.8</ele>
        <time>2019-07-06T12:37:03Z</time>
      </trkpt>
      <trkpt lat="40.7027720" lon="-2.3110780">
        <ele>1224.6</ele>
        <time>2019-07-06T12:37:05Z</time>
      </trkpt>
      <trkpt lat="40.7028040" lon="-2.3111410">
        <ele>1225.0</ele>
        <time>2019-07-06T12:37:07Z</time>
      </trkpt>
      <trkpt lat="40.7028880" lon="-2.3112630">
        <ele>1226.0</ele>
        <time>2019-07-06T12:37:12Z</time>
      </trkpt>
      <trkpt lat="40.7029650" lon="-2.3113490">
        <ele>1227.2</ele>
        <time>2019-07-06T12:37:17Z</time>
      </trkpt>
      <trkpt lat="40.7029960" lon="-2.3113760">
        <ele>1227.6</ele>
        <time>2019-07-06T12:37:19Z</time>
      </trkpt>
      <trkpt lat="40.7030790" lon="-2.3114430">
        <ele>1228.4</ele>
        <time>2019-07-06T12:37:24Z</time>
      </trkpt>
      <trkpt lat="40.7030970" lon="-2.3114550">
        <ele>1228.6</ele>
        <time>2019-07-06T12:37:25Z</time>
      </trkpt>
      <trkpt lat="40.7031500" lon="-2.3114950">
        <ele>1229.6</ele>
        <time>2019-07-06T12:37:28Z</time>
      </trkpt>
      <trkpt lat="40.7032130" lon="-2.3115590">
        <ele>1230.6</ele>
        <time>2019-07-06T12:37:32Z</time>
      </trkpt>
      <trkpt lat="40.7032810" lon="-2.3116290">
        <ele>1231.8</ele>
        <time>2019-07-06T12:37:36Z</time>
      </trkpt>
      <trkpt lat="40.7033100" lon="-2.3116640">
        <ele>1232.4</ele>
        <time>2019-07-06T12:37:38Z</time>
      </trkpt>
      <trkpt lat="40.7033380" lon="-2.3116960">
        <ele>1232.8</ele>
        <time>2019-07-06T12:37:40Z</time>
      </trkpt>
      <trkpt lat="40.7034000" lon="-2.3117920">
        <ele>1234.0</ele>
        <time>2019-07-06T12:37:45Z</time>
      </trkpt>
      <trkpt lat="40.7034490" lon="-2.3119290">
        <ele>1235.0</ele>
        <time>2019-07-06T12:37:51Z</time>
      </trkpt>
      <trkpt lat="40.7034550" lon="-2.3119530">
        <ele>1235.2</ele>
        <time>2019-07-06T12:37:52Z</time>
      </trkpt>
      <trkpt lat="40.7034940" lon="-2.3120580">
        <ele>1236.0</ele>
        <time>2019-07-06T12:37:57Z</time>
      </trkpt>
      <trkpt lat="40.7035000" lon="-2.3120840">
        <ele>1236.2</ele>
        <time>2019-07-06T12:37:58Z</time>
      </trkpt>
      <trkpt lat="40.7035330" lon="-2.3122180">
        <ele>1237.0</ele>
        <time>2019-07-06T12:38:03Z</time>
      </trkpt>
      <trkpt lat="40.7035450" lon="-2.3122810">
        <ele>1237.4</ele>
        <time>2019-07-06T12:38:05Z</time>
      </trkpt>
      <trkpt lat="40.7035630" lon="-2.3124020">
        <ele>1238.0</ele>
        <time>2019-07-06T12:38:09Z</time>
      </trkpt>
      <trkpt lat="40.7035790" lon="-2.3124900">
        <ele>1238.6</ele>
        <time>2019-07-06T12:38:12Z</time>
      </trkpt>
      <trkpt lat="40.7035900" lon="-2.3126140">
        <ele>1239.2</ele>
        <time>2019-07-06T12:38:16Z</time>
      </trkpt>
      <trkpt lat="40.7035940" lon="-2.3127090">
        <ele>1239.4</ele>
        <time>2019-07-06T12:38:19Z</time>
      </trkpt>
      <trkpt lat="40.7035960" lon="-2.3129150">
        <ele>1240.0</ele>
        <time>2019-07-06T12:38:25Z</time>
      </trkpt>
      <trkpt lat="40.7035980" lon="-2.3129910">
        <ele>1240.6</ele>
        <time>2019-07-06T12:38:27Z</time>
      </trkpt>
      <trkpt lat="40.7036000" lon="-2.3131560">
        <ele>1241.0</ele>
        <time>2019-07-06T12:38:31Z</time>
      </trkpt>
      <trkpt lat="40.7036080" lon="-2.3134250">
        <ele>1242.0</ele>
        <time>2019-07-06T12:38:37Z</time>
      </trkpt>
      <trkpt lat="40.7036090" lon="-2.3134710">
        <ele>1242.2</ele>
        <time>2019-07-06T12:38:38Z</time>
      </trkpt>
      <trkpt lat="40.7036080" lon="-2.3137220">
        <ele>1242.2</ele>
        <time>2019-07-06T12:38:43Z</time>
      </trkpt>
      <trkpt lat="40.7036060" lon="-2.3138310">
        <ele>1242.2</ele>
        <time>2019-07-06T12:38:45Z</time>
      </trkpt>
      <trkpt lat="40.7036030" lon="-2.3142740">
        <ele>1242.4</ele>
        <time>2019-07-06T12:38:52Z</time>
      </trkpt>
      <trkpt lat="40.7036150" lon="-2.3145580">
        <ele>1241.8</ele>
        <time>2019-07-06T12:38:56Z</time>
      </trkpt>
      <trkpt lat="40.7036540" lon="-2.3147710">
        <ele>1241.4</ele>
        <time>2019-07-06T12:38:59Z</time>
      </trkpt>
      <trkpt lat="40.7036900" lon="-2.3149800">
        <ele>1241.2</ele>
        <time>2019-07-06T12:39:02Z</time>
      </trkpt>
      <trkpt lat="40.7036950" lon="-2.3150520">
        <ele>1241.2</ele>
        <time>2019-07-06T12:39:03Z</time>
      </trkpt>
      <trkpt lat="40.7036980" lon="-2.3151210">
        <ele>1241.4</ele>
        <time>2019-07-06T12:39:04Z</time>
      </trkpt>
      <trkpt lat="40.7037000" lon="-2.3155780">
        <ele>1241.4</ele>
        <time>2019-07-06T12:39:11Z</time>
      </trkpt>
      <trkpt lat="40.7037130" lon="-2.3159420">
        <ele>1240.4</ele>
        <time>2019-07-06T12:39:16Z</time>
      </trkpt>
      <trkpt lat="40.7037120" lon="-2.3160230">
        <ele>1240.2</ele>
        <time>2019-07-06T12:39:17Z</time>
      </trkpt>
      <trkpt lat="40.7036960" lon="-2.3165310">
        <ele>1239.8</ele>
        <time>2019-07-06T12:39:23Z</time>
      </trkpt>
      <trkpt lat="40.7036900" lon="-2.3166190">
        <ele>1239.8</ele>
        <time>2019-07-06T12:39:24Z</time>
      </trkpt>
      <trkpt lat="40.7036820" lon="-2.3169800">
        <ele>1239.4</ele>
        <time>2019-07-06T12:39:28Z</time>
      </trkpt>
      <trkpt lat="40.7036930" lon="-2.3171600">
        <ele>1239.2</ele>
        <time>2019-07-06T12:39:30Z</time>
      </trkpt>
      <trkpt lat="40.7037800" lon="-2.3177640">
        <ele>1239.2</ele>
        <time>2019-07-06T12:39:37Z</time>
      </trkpt>
      <trkpt lat="40.7037970" lon="-2.3178440">
        <ele>1239.2</ele>
        <time>2019-07-06T12:39:38Z</time>
      </trkpt>
      <trkpt lat="40.7038410" lon="-2.3180850">
        <ele>1239.0</ele>
        <time>2019-07-06T12:39:41Z</time>
      </trkpt>
      <trkpt lat="40.7038620" lon="-2.3181630">
        <ele>1239.0</ele>
        <time>2019-07-06T12:39:42Z</time>
      </trkpt>
      <trkpt lat="40.7038970" lon="-2.3183170">
        <ele>1239.0</ele>
        <time>2019-07-06T12:39:44Z</time>
      </trkpt>
      <trkpt lat="40.7039280" lon="-2.3185450">
        <ele>1239.2</ele>
        <time>2019-07-06T12:39:47Z</time>
      </trkpt>
      <trkpt lat="40.7040010" lon="-2.3190250">
        <ele>1239.6</ele>
        <time>2019-07-06T12:39:54Z</time>
      </trkpt>
      <trkpt lat="40.7040770" lon="-2.3194480">
        <ele>1240.0</ele>
        <time>2019-07-06T12:40:00Z</time>
      </trkpt>
      <trkpt lat="40.7041000" lon="-2.3195890">
        <ele>1239.8</ele>
        <time>2019-07-06T12:40:02Z</time>
      </trkpt>
      <trkpt lat="40.7041260" lon="-2.3198060">
        <ele>1240.0</ele>
        <time>2019-07-06T12:40:05Z</time>
      </trkpt>
      <trkpt lat="40.7041730" lon="-2.3203480">
        <ele>1239.0</ele>
        <time>2019-07-06T12:40:12Z</time>
      </trkpt>
      <trkpt lat="40.7041730" lon="-2.3205910">
        <ele>1238.6</ele>
        <time>2019-07-06T12:40:15Z</time>
      </trkpt>
      <trkpt lat="40.7041880" lon="-2.3207560">
        <ele>1238.6</ele>
        <time>2019-07-06T12:40:17Z</time>
      </trkpt>
      <trkpt lat="40.7042870" lon="-2.3211450">
        <ele>1238.8</ele>
        <time>2019-07-06T12:40:22Z</time>
      </trkpt>
      <trkpt lat="40.7043620" lon="-2.3214790">
        <ele>1238.8</ele>
        <time>2019-07-06T12:40:27Z</time>
      </trkpt>
      <trkpt lat="40.7044290" lon="-2.3217340">
        <ele>1238.8</ele>
        <time>2019-07-06T12:40:31Z</time>
      </trkpt>
      <trkpt lat="40.7044380" lon="-2.3217970">
        <ele>1238.8</ele>
        <time>2019-07-06T12:40:32Z</time>
      </trkpt>
      <trkpt lat="40.7044530" lon="-2.3218590">
        <ele>1238.6</ele>
        <time>2019-07-06T12:40:33Z</time>
      </trkpt>
      <trkpt lat="40.7044820" lon="-2.3219950">
        <ele>1238.4</ele>
        <time>2019-07-06T12:40:35Z</time>
      </trkpt>
      <trkpt lat="40.7045050" lon="-2.3221440">
        <ele>1238.2</ele>
        <time>2019-07-06T12:40:37Z</time>
      </trkpt>
      <trkpt lat="40.7045390" lon="-2.3222850">
        <ele>1238.2</ele>
        <time>2019-07-06T12:40:39Z</time>
      </trkpt>
      <trkpt lat="40.7045800" lon="-2.3224200">
        <ele>1238.2</ele>
        <time>2019-07-06T12:40:41Z</time>
      </trkpt>
      <trkpt lat="40.7046590" lon="-2.3226860">
        <ele>1238.8</ele>
        <time>2019-07-06T12:40:45Z</time>
      </trkpt>
      <trkpt lat="40.7047130" lon="-2.3228700">
        <ele>1239.0</ele>
        <time>2019-07-06T12:40:48Z</time>
      </trkpt>
      <trkpt lat="40.7047520" lon="-2.3229840">
        <ele>1239.4</ele>
        <time>2019-07-06T12:40:50Z</time>
      </trkpt>
      <trkpt lat="40.7048380" lon="-2.3232480">
        <ele>1240.2</ele>
        <time>2019-07-06T12:40:55Z</time>
      </trkpt>
      <trkpt lat="40.7048540" lon="-2.3233010">
        <ele>1240.6</ele>
        <time>2019-07-06T12:40:56Z</time>
      </trkpt>
      <trkpt lat="40.7049410" lon="-2.3236190">
        <ele>1241.0</ele>
        <time>2019-07-06T12:41:02Z</time>
      </trkpt>
      <trkpt lat="40.7049510" lon="-2.3237990">
        <ele>1241.2</ele>
        <time>2019-07-06T12:41:05Z</time>
      </trkpt>
      <trkpt lat="40.7049240" lon="-2.3239150">
        <ele>1241.2</ele>
        <time>2019-07-06T12:41:07Z</time>
      </trkpt>
      <trkpt lat="40.7048830" lon="-2.3240240">
        <ele>1241.2</ele>
        <time>2019-07-06T12:41:09Z</time>
      </trkpt>
      <trkpt lat="40.7048180" lon="-2.3241920">
        <ele>1241.2</ele>
        <time>2019-07-06T12:41:12Z</time>
      </trkpt>
      <trkpt lat="40.7047940" lon="-2.3242460">
        <ele>1241.2</ele>
        <time>2019-07-06T12:41:13Z</time>
      </trkpt>
      <trkpt lat="40.7047200" lon="-2.3244020">
        <ele>1241.2</ele>
        <time>2019-07-06T12:41:16Z</time>
      </trkpt>
      <trkpt lat="40.7046980" lon="-2.3244630">
        <ele>1241.2</ele>
        <time>2019-07-06T12:41:17Z</time>
      </trkpt>
      <trkpt lat="40.7046490" lon="-2.3245770">
        <ele>1241.4</ele>
        <time>2019-07-06T12:41:19Z</time>
      </trkpt>
      <trkpt lat="40.7045460" lon="-2.3247780">
        <ele>1241.8</ele>
        <time>2019-07-06T12:41:23Z</time>
      </trkpt>
      <trkpt lat="40.7044400" lon="-2.3249550">
        <ele>1242.4</ele>
        <time>2019-07-06T12:41:27Z</time>
      </trkpt>
      <trkpt lat="40.7044110" lon="-2.3249970">
        <ele>1242.8</ele>
        <time>2019-07-06T12:41:28Z</time>
      </trkpt>
      <trkpt lat="40.7043290" lon="-2.3251260">
        <ele>1243.2</ele>
        <time>2019-07-06T12:41:31Z</time>
      </trkpt>
      <trkpt lat="40.7042760" lon="-2.3252120">
        <ele>1243.2</ele>
        <time>2019-07-06T12:41:33Z</time>
      </trkpt>
      <trkpt lat="40.7041720" lon="-2.3253770">
        <ele>1243.6</ele>
        <time>2019-07-06T12:41:37Z</time>
      </trkpt>
      <trkpt lat="40.7040860" lon="-2.3255020">
        <ele>1244.0</ele>
        <time>2019-07-06T12:41:40Z</time>
      </trkpt>
      <trkpt lat="40.7039130" lon="-2.3257850">
        <ele>1244.6</ele>
        <time>2019-07-06T12:41:46Z</time>
      </trkpt>
      <trkpt lat="40.7038850" lon="-2.3258360">
        <ele>1244.8</ele>
        <time>2019-07-06T12:41:47Z</time>
      </trkpt>
      <trkpt lat="40.7036680" lon="-2.3262210">
        <ele>1245.2</ele>
        <time>2019-07-06T12:41:55Z</time>
      </trkpt>
      <trkpt lat="40.7035470" lon="-2.3264940">
        <ele>1246.0</ele>
        <time>2019-07-06T12:42:01Z</time>
      </trkpt>
      <trkpt lat="40.7035210" lon="-2.3265820">
        <ele>1247.0</ele>
        <time>2019-07-06T12:42:03Z</time>
      </trkpt>
      <trkpt lat="40.7034820" lon="-2.3267710">
        <ele>1247.4</ele>
        <time>2019-07-06T12:42:07Z</time>
      </trkpt>
      <trkpt lat="40.7034880" lon="-2.3270700">
        <ele>1247.6</ele>
        <time>2019-07-06T12:42:13Z</time>
      </trkpt>
      <trkpt lat="40.7035570" lon="-2.3273010">
        <ele>1248.2</ele>
        <time>2019-07-06T12:42:18Z</time>
      </trkpt>
      <trkpt lat="40.7035750" lon="-2.3273470">
        <ele>1248.2</ele>
        <time>2019-07-06T12:42:19Z</time>
      </trkpt>
      <trkpt lat="40.7037160" lon="-2.3277610">
        <ele>1249.0</ele>
        <time>2019-07-06T12:42:27Z</time>
      </trkpt>
      <trkpt lat="40.7037360" lon="-2.3278130">
        <ele>1249.0</ele>
        <time>2019-07-06T12:42:28Z</time>
      </trkpt>
      <trkpt lat="40.7037910" lon="-2.3279780">
        <ele>1249.0</ele>
        <time>2019-07-06T12:42:31Z</time>
      </trkpt>
      <trkpt lat="40.7038110" lon="-2.3280350">
        <ele>1249.0</ele>
        <time>2019-07-06T12:42:32Z</time>
      </trkpt>
      <trkpt lat="40.7038650" lon="-2.3282090">
        <ele>1248.8</ele>
        <time>2019-07-06T12:42:35Z</time>
      </trkpt>
      <trkpt lat="40.7038870" lon="-2.3283950">
        <ele>1248.6</ele>
        <time>2019-07-06T12:42:38Z</time>
      </trkpt>
      <trkpt lat="40.7038890" lon="-2.3284550">
        <ele>1248.8</ele>
        <time>2019-07-06T12:42:39Z</time>
      </trkpt>
      <trkpt lat="40.7038880" lon="-2.3285730">
        <ele>1249.2</ele>
        <time>2019-07-06T12:42:41Z</time>
      </trkpt>
      <trkpt lat="40.7038790" lon="-2.3288060">
        <ele>1249.4</ele>
        <time>2019-07-06T12:42:45Z</time>
      </trkpt>
      <trkpt lat="40.7038550" lon="-2.3292940">
        <ele>1249.0</ele>
        <time>2019-07-06T12:42:53Z</time>
      </trkpt>
      <trkpt lat="40.7038140" lon="-2.3298940">
        <ele>1248.8</ele>
        <time>2019-07-06T12:43:02Z</time>
      </trkpt>
      <trkpt lat="40.7037720" lon="-2.3304230">
        <ele>1248.4</ele>
        <time>2019-07-06T12:43:09Z</time>
      </trkpt>
      <trkpt lat="40.7037630" lon="-2.3305750">
        <ele>1248.4</ele>
        <time>2019-07-06T12:43:11Z</time>
      </trkpt>
      <trkpt lat="40.7037530" lon="-2.3308810">
        <ele>1248.6</ele>
        <time>2019-07-06T12:43:15Z</time>
      </trkpt>
      <trkpt lat="40.7037420" lon="-2.3311730">
        <ele>1248.6</ele>
        <time>2019-07-06T12:43:19Z</time>
      </trkpt>
      <trkpt lat="40.7037420" lon="-2.3312420">
        <ele>1248.6</ele>
        <time>2019-07-06T12:43:20Z</time>
      </trkpt>
      <trkpt lat="40.7037440" lon="-2.3313840">
        <ele>1248.2</ele>
        <time>2019-07-06T12:43:22Z</time>
      </trkpt>
      <trkpt lat="40.7037480" lon="-2.3315970">
        <ele>1247.8</ele>
        <time>2019-07-06T12:43:25Z</time>
      </trkpt>
      <trkpt lat="40.7037520" lon="-2.3317360">
        <ele>1247.6</ele>
        <time>2019-07-06T12:43:27Z</time>
      </trkpt>
      <trkpt lat="40.7037510" lon="-2.3318780">
        <ele>1247.2</ele>
        <time>2019-07-06T12:43:29Z</time>
      </trkpt>
      <trkpt lat="40.7037480" lon="-2.3319490">
        <ele>1247.0</ele>
        <time>2019-07-06T12:43:30Z</time>
      </trkpt>
      <trkpt lat="40.7037400" lon="-2.3320910">
        <ele>1246.8</ele>
        <time>2019-07-06T12:43:32Z</time>
      </trkpt>
      <trkpt lat="40.7037360" lon="-2.3323910">
        <ele>1246.2</ele>
        <time>2019-07-06T12:43:36Z</time>
      </trkpt>
      <trkpt lat="40.7037320" lon="-2.3325510">
        <ele>1245.8</ele>
        <time>2019-07-06T12:43:38Z</time>
      </trkpt>
      <trkpt lat="40.7037320" lon="-2.3326310">
        <ele>1245.6</ele>
        <time>2019-07-06T12:43:39Z</time>
      </trkpt>
      <trkpt lat="40.7037320" lon="-2.3327920">
        <ele>1245.6</ele>
        <time>2019-07-06T12:43:41Z</time>
      </trkpt>
      <trkpt lat="40.7036940" lon="-2.3331880">
        <ele>1244.6</ele>
        <time>2019-07-06T12:43:46Z</time>
      </trkpt>
      <trkpt lat="40.7036320" lon="-2.3334860">
        <ele>1243.4</ele>
        <time>2019-07-06T12:43:50Z</time>
      </trkpt>
      <trkpt lat="40.7035840" lon="-2.3337230">
        <ele>1242.4</ele>
        <time>2019-07-06T12:43:53Z</time>
      </trkpt>
      <trkpt lat="40.7034890" lon="-2.3342140">
        <ele>1241.4</ele>
        <time>2019-07-06T12:43:59Z</time>
      </trkpt>
      <trkpt lat="40.7034480" lon="-2.3343790">
        <ele>1241.0</ele>
        <time>2019-07-06T12:44:01Z</time>
      </trkpt>
      <trkpt lat="40.7033720" lon="-2.3347130">
        <ele>1240.2</ele>
        <time>2019-07-06T12:44:05Z</time>
      </trkpt>
      <trkpt lat="40.7033490" lon="-2.3347950">
        <ele>1240.0</ele>
        <time>2019-07-06T12:44:06Z</time>
      </trkpt>
      <trkpt lat="40.7033060" lon="-2.3349500">
        <ele>1239.8</ele>
        <time>2019-07-06T12:44:08Z</time>
      </trkpt>
      <trkpt lat="40.7032950" lon="-2.3350270">
        <ele>1239.6</ele>
        <time>2019-07-06T12:44:09Z</time>
      </trkpt>
      <trkpt lat="40.7032850" lon="-2.3351790">
        <ele>1239.0</ele>
        <time>2019-07-06T12:44:11Z</time>
      </trkpt>
      <trkpt lat="40.7032810" lon="-2.3352570">
        <ele>1238.4</ele>
        <time>2019-07-06T12:44:12Z</time>
      </trkpt>
      <trkpt lat="40.7032820" lon="-2.3354160">
        <ele>1237.8</ele>
        <time>2019-07-06T12:44:14Z</time>
      </trkpt>
      <trkpt lat="40.7033190" lon="-2.3357190">
        <ele>1237.0</ele>
        <time>2019-07-06T12:44:18Z</time>
      </trkpt>
      <trkpt lat="40.7033330" lon="-2.3357940">
        <ele>1236.8</ele>
        <time>2019-07-06T12:44:19Z</time>
      </trkpt>
      <trkpt lat="40.7034290" lon="-2.3362800">
        <ele>1235.4</ele>
        <time>2019-07-06T12:44:25Z</time>
      </trkpt>
      <trkpt lat="40.7034820" lon="-2.3365490">
        <ele>1234.4</ele>
        <time>2019-07-06T12:44:28Z</time>
      </trkpt>
      <trkpt lat="40.7034940" lon="-2.3366420">
        <ele>1233.8</ele>
        <time>2019-07-06T12:44:29Z</time>
      </trkpt>
      <trkpt lat="40.7035030" lon="-2.3368250">
        <ele>1233.0</ele>
        <time>2019-07-06T12:44:31Z</time>
      </trkpt>
      <trkpt lat="40.7035130" lon="-2.3369120">
        <ele>1232.8</ele>
        <time>2019-07-06T12:44:32Z</time>
      </trkpt>
      <trkpt lat="40.7035500" lon="-2.3370800">
        <ele>1231.8</ele>
        <time>2019-07-06T12:44:34Z</time>
      </trkpt>
      <trkpt lat="40.7035700" lon="-2.3371510">
        <ele>1231.6</ele>
        <time>2019-07-06T12:44:35Z</time>
      </trkpt>
      <trkpt lat="40.7036170" lon="-2.3373420">
        <ele>1230.8</ele>
        <time>2019-07-06T12:44:38Z</time>
      </trkpt>
      <trkpt lat="40.7036270" lon="-2.3374110">
        <ele>1230.4</ele>
        <time>2019-07-06T12:44:39Z</time>
      </trkpt>
      <trkpt lat="40.7036390" lon="-2.3375530">
        <ele>1229.8</ele>
        <time>2019-07-06T12:44:41Z</time>
      </trkpt>
      <trkpt lat="40.7036360" lon="-2.3376510">
        <ele>1229.8</ele>
        <time>2019-07-06T12:44:43Z</time>
      </trkpt>
      <trkpt lat="40.7036300" lon="-2.3376850">
        <ele>1229.6</ele>
        <time>2019-07-06T12:44:44Z</time>
      </trkpt>
      <trkpt lat="40.7036260" lon="-2.3377200">
        <ele>1229.2</ele>
        <time>2019-07-06T12:44:45Z</time>
      </trkpt>
      <trkpt lat="40.7036310" lon="-2.3378040">
        <ele>1228.8</ele>
        <time>2019-07-06T12:44:47Z</time>
      </trkpt>
      <trkpt lat="40.7036440" lon="-2.3379030">
        <ele>1228.2</ele>
        <time>2019-07-06T12:44:49Z</time>
      </trkpt>
      <trkpt lat="40.7036470" lon="-2.3379590">
        <ele>1228.2</ele>
        <time>2019-07-06T12:44:50Z</time>
      </trkpt>
      <trkpt lat="40.7036690" lon="-2.3382810">
        <ele>1228.2</ele>
        <time>2019-07-06T12:44:55Z</time>
      </trkpt>
      <trkpt lat="40.7037100" lon="-2.3389490">
        <ele>1228.0</ele>
        <time>2019-07-06T12:45:05Z</time>
      </trkpt>
      <trkpt lat="40.7037290" lon="-2.3394360">
        <ele>1227.4</ele>
        <time>2019-07-06T12:45:12Z</time>
      </trkpt>
      <trkpt lat="40.7037340" lon="-2.3395070">
        <ele>1227.4</ele>
        <time>2019-07-06T12:45:13Z</time>
      </trkpt>
      <trkpt lat="40.7037420" lon="-2.3395780">
        <ele>1227.2</ele>
        <time>2019-07-06T12:45:14Z</time>
      </trkpt>
      <trkpt lat="40.7037620" lon="-2.3397160">
        <ele>1226.8</ele>
        <time>2019-07-06T12:45:16Z</time>
      </trkpt>
      <trkpt lat="40.7037730" lon="-2.3398590">
        <ele>1226.2</ele>
        <time>2019-07-06T12:45:18Z</time>
      </trkpt>
      <trkpt lat="40.7037880" lon="-2.3400850">
        <ele>1225.4</ele>
        <time>2019-07-06T12:45:21Z</time>
      </trkpt>
      <trkpt lat="40.7038210" lon="-2.3404660">
        <ele>1225.0</ele>
        <time>2019-07-06T12:45:26Z</time>
      </trkpt>
      <trkpt lat="40.7038480" lon="-2.3407830">
        <ele>1224.6</ele>
        <time>2019-07-06T12:45:30Z</time>
      </trkpt>
      <trkpt lat="40.7038610" lon="-2.3409400">
        <ele>1224.4</ele>
        <time>2019-07-06T12:45:32Z</time>
      </trkpt>
      <trkpt lat="40.7038690" lon="-2.3410170">
        <ele>1224.4</ele>
        <time>2019-07-06T12:45:33Z</time>
      </trkpt>
      <trkpt lat="40.7038810" lon="-2.3411730">
        <ele>1224.6</ele>
        <time>2019-07-06T12:45:35Z</time>
      </trkpt>
      <trkpt lat="40.7038820" lon="-2.3412510">
        <ele>1224.2</ele>
        <time>2019-07-06T12:45:36Z</time>
      </trkpt>
      <trkpt lat="40.7038730" lon="-2.3414840">
        <ele>1223.0</ele>
        <time>2019-07-06T12:45:39Z</time>
      </trkpt>
      <trkpt lat="40.7038560" lon="-2.3416420">
        <ele>1222.6</ele>
        <time>2019-07-06T12:45:41Z</time>
      </trkpt>
      <trkpt lat="40.7038350" lon="-2.3419610">
        <ele>1222.6</ele>
        <time>2019-07-06T12:45:45Z</time>
      </trkpt>
      <trkpt lat="40.7038280" lon="-2.3420360">
        <ele>1222.6</ele>
        <time>2019-07-06T12:45:46Z</time>
      </trkpt>
      <trkpt lat="40.7037900" lon="-2.3422570">
        <ele>1222.4</ele>
        <time>2019-07-06T12:45:49Z</time>
      </trkpt>
      <trkpt lat="40.7038060" lon="-2.3424760">
        <ele>1221.6</ele>
        <time>2019-07-06T12:45:52Z</time>
      </trkpt>
      <trkpt lat="40.7038180" lon="-2.3425480">
        <ele>1221.0</ele>
        <time>2019-07-06T12:45:53Z</time>
      </trkpt>
      <trkpt lat="40.7038640" lon="-2.3427630">
        <ele>1220.2</ele>
        <time>2019-07-06T12:45:56Z</time>
      </trkpt>
      <trkpt lat="40.7039230" lon="-2.3430590">
        <ele>1219.4</ele>
        <time>2019-07-06T12:46:00Z</time>
      </trkpt>
      <trkpt lat="40.7039350" lon="-2.3431410">
        <ele>1219.0</ele>
        <time>2019-07-06T12:46:01Z</time>
      </trkpt>
      <trkpt lat="40.7039740" lon="-2.3434660">
        <ele>1218.0</ele>
        <time>2019-07-06T12:46:05Z</time>
      </trkpt>
      <trkpt lat="40.7039830" lon="-2.3435480">
        <ele>1217.8</ele>
        <time>2019-07-06T12:46:06Z</time>
      </trkpt>
      <trkpt lat="40.7040040" lon="-2.3437090">
        <ele>1216.8</ele>
        <time>2019-07-06T12:46:08Z</time>
      </trkpt>
      <trkpt lat="40.7040380" lon="-2.3439550">
        <ele>1216.2</ele>
        <time>2019-07-06T12:46:11Z</time>
      </trkpt>
      <trkpt lat="40.7040480" lon="-2.3440380">
        <ele>1216.0</ele>
        <time>2019-07-06T12:46:12Z</time>
      </trkpt>
      <trkpt lat="40.7040820" lon="-2.3443760">
        <ele>1216.0</ele>
        <time>2019-07-06T12:46:16Z</time>
      </trkpt>
      <trkpt lat="40.7040960" lon="-2.3444600">
        <ele>1215.8</ele>
        <time>2019-07-06T12:46:17Z</time>
      </trkpt>
      <trkpt lat="40.7041080" lon="-2.3445440">
        <ele>1215.4</ele>
        <time>2019-07-06T12:46:18Z</time>
      </trkpt>
      <trkpt lat="40.7041480" lon="-2.3448790">
        <ele>1214.2</ele>
        <time>2019-07-06T12:46:22Z</time>
      </trkpt>
      <trkpt lat="40.7041450" lon="-2.3449630">
        <ele>1214.2</ele>
        <time>2019-07-06T12:46:23Z</time>
      </trkpt>
      <trkpt lat="40.7040790" lon="-2.3451920">
        <ele>1213.2</ele>
        <time>2019-07-06T12:46:26Z</time>
      </trkpt>
      <trkpt lat="40.7040580" lon="-2.3452620">
        <ele>1212.8</ele>
        <time>2019-07-06T12:46:27Z</time>
      </trkpt>
      <trkpt lat="40.7040380" lon="-2.3453310">
        <ele>1212.2</ele>
        <time>2019-07-06T12:46:28Z</time>
      </trkpt>
      <trkpt lat="40.7040020" lon="-2.3454710">
        <ele>1211.4</ele>
        <time>2019-07-06T12:46:30Z</time>
      </trkpt>
      <trkpt lat="40.7039550" lon="-2.3456640">
        <ele>1211.2</ele>
        <time>2019-07-06T12:46:33Z</time>
      </trkpt>
      <trkpt lat="40.7039440" lon="-2.3457320">
        <ele>1210.8</ele>
        <time>2019-07-06T12:46:34Z</time>
      </trkpt>
      <trkpt lat="40.7039140" lon="-2.3459490">
        <ele>1209.8</ele>
        <time>2019-07-06T12:46:37Z</time>
      </trkpt>
      <trkpt lat="40.7039020" lon="-2.3460240">
        <ele>1209.4</ele>
        <time>2019-07-06T12:46:38Z</time>
      </trkpt>
      <trkpt lat="40.7038850" lon="-2.3460970">
        <ele>1209.2</ele>
        <time>2019-07-06T12:46:39Z</time>
      </trkpt>
      <trkpt lat="40.7038660" lon="-2.3461710">
        <ele>1208.6</ele>
        <time>2019-07-06T12:46:40Z</time>
      </trkpt>
      <trkpt lat="40.7038510" lon="-2.3462450">
        <ele>1208.2</ele>
        <time>2019-07-06T12:46:41Z</time>
      </trkpt>
      <trkpt lat="40.7038220" lon="-2.3463890">
        <ele>1208.2</ele>
        <time>2019-07-06T12:46:43Z</time>
      </trkpt>
      <trkpt lat="40.7038020" lon="-2.3464600">
        <ele>1208.2</ele>
        <time>2019-07-06T12:46:44Z</time>
      </trkpt>
      <trkpt lat="40.7037190" lon="-2.3468270">
        <ele>1207.4</ele>
        <time>2019-07-06T12:46:49Z</time>
      </trkpt>
      <trkpt lat="40.7036720" lon="-2.3470390">
        <ele>1207.2</ele>
        <time>2019-07-06T12:46:52Z</time>
      </trkpt>
      <trkpt lat="40.7036110" lon="-2.3473060">
        <ele>1206.8</ele>
        <time>2019-07-06T12:46:56Z</time>
      </trkpt>
      <trkpt lat="40.7035750" lon="-2.3474950">
        <ele>1207.0</ele>
        <time>2019-07-06T12:46:59Z</time>
      </trkpt>
      <trkpt lat="40.7035270" lon="-2.3478750">
        <ele>1207.0</ele>
        <time>2019-07-06T12:47:05Z</time>
      </trkpt>
      <trkpt lat="40.7035120" lon="-2.3479390">
        <ele>1207.0</ele>
        <time>2019-07-06T12:47:06Z</time>
      </trkpt>
      <trkpt lat="40.7034690" lon="-2.3480670">
        <ele>1207.0</ele>
        <time>2019-07-06T12:47:08Z</time>
      </trkpt>
      <trkpt lat="40.7034120" lon="-2.3481910">
        <ele>1206.8</ele>
        <time>2019-07-06T12:47:10Z</time>
      </trkpt>
      <trkpt lat="40.7033260" lon="-2.3483880">
        <ele>1206.4</ele>
        <time>2019-07-06T12:47:13Z</time>
      </trkpt>
      <trkpt lat="40.7032100" lon="-2.3486720">
        <ele>1205.6</ele>
        <time>2019-07-06T12:47:17Z</time>
      </trkpt>
      <trkpt lat="40.7031770" lon="-2.3487430">
        <ele>1205.2</ele>
        <time>2019-07-06T12:47:18Z</time>
      </trkpt>
      <trkpt lat="40.7030720" lon="-2.3489500">
        <ele>1204.0</ele>
        <time>2019-07-06T12:47:21Z</time>
      </trkpt>
      <trkpt lat="40.7030280" lon="-2.3490760">
        <ele>1203.4</ele>
        <time>2019-07-06T12:47:23Z</time>
      </trkpt>
      <trkpt lat="40.7030090" lon="-2.3492040">
        <ele>1202.8</ele>
        <time>2019-07-06T12:47:25Z</time>
      </trkpt>
      <trkpt lat="40.7030210" lon="-2.3493410">
        <ele>1202.2</ele>
        <time>2019-07-06T12:47:27Z</time>
      </trkpt>
      <trkpt lat="40.7030540" lon="-2.3494890">
        <ele>1201.2</ele>
        <time>2019-07-06T12:47:29Z</time>
      </trkpt>
      <trkpt lat="40.7030710" lon="-2.3496610">
        <ele>1200.6</ele>
        <time>2019-07-06T12:47:31Z</time>
      </trkpt>
      <trkpt lat="40.7030770" lon="-2.3497550">
        <ele>1200.2</ele>
        <time>2019-07-06T12:47:32Z</time>
      </trkpt>
      <trkpt lat="40.7030840" lon="-2.3498490">
        <ele>1199.8</ele>
        <time>2019-07-06T12:47:33Z</time>
      </trkpt>
      <trkpt lat="40.7031040" lon="-2.3500820">
        <ele>1198.6</ele>
        <time>2019-07-06T12:47:36Z</time>
      </trkpt>
      <trkpt lat="40.7031070" lon="-2.3501450">
        <ele>1198.2</ele>
        <time>2019-07-06T12:47:37Z</time>
      </trkpt>
      <trkpt lat="40.7031370" lon="-2.3502970">
        <ele>1197.4</ele>
        <time>2019-07-06T12:47:40Z</time>
      </trkpt>
      <trkpt lat="40.7031530" lon="-2.3503410">
        <ele>1196.8</ele>
        <time>2019-07-06T12:47:41Z</time>
      </trkpt>
      <trkpt lat="40.7031760" lon="-2.3503770">
        <ele>1196.4</ele>
        <time>2019-07-06T12:47:42Z</time>
      </trkpt>
      <trkpt lat="40.7032600" lon="-2.3504470">
        <ele>1195.2</ele>
        <time>2019-07-06T12:47:45Z</time>
      </trkpt>
      <trkpt lat="40.7033470" lon="-2.3504760">
        <ele>1193.8</ele>
        <time>2019-07-06T12:47:48Z</time>
      </trkpt>
      <trkpt lat="40.7034140" lon="-2.3505000">
        <ele>1193.2</ele>
        <time>2019-07-06T12:47:50Z</time>
      </trkpt>
      <trkpt lat="40.7034950" lon="-2.3505460">
        <ele>1193.0</ele>
        <time>2019-07-06T12:47:52Z</time>
      </trkpt>
      <trkpt lat="40.7035360" lon="-2.3505850">
        <ele>1192.4</ele>
        <time>2019-07-06T12:47:53Z</time>
      </trkpt>
      <trkpt lat="40.7035760" lon="-2.3506340">
        <ele>1192.0</ele>
        <time>2019-07-06T12:47:54Z</time>
      </trkpt>
      <trkpt lat="40.7036090" lon="-2.3506920">
        <ele>1191.4</ele>
        <time>2019-07-06T12:47:55Z</time>
      </trkpt>
      <trkpt lat="40.7036460" lon="-2.3508170">
        <ele>1190.6</ele>
        <time>2019-07-06T12:47:57Z</time>
      </trkpt>
      <trkpt lat="40.7036480" lon="-2.3508810">
        <ele>1190.2</ele>
        <time>2019-07-06T12:47:58Z</time>
      </trkpt>
      <trkpt lat="40.7036450" lon="-2.3509440">
        <ele>1189.8</ele>
        <time>2019-07-06T12:47:59Z</time>
      </trkpt>
      <trkpt lat="40.7036360" lon="-2.3510690">
        <ele>1188.6</ele>
        <time>2019-07-06T12:48:01Z</time>
      </trkpt>
      <trkpt lat="40.7035700" lon="-2.3512620">
        <ele>1187.2</ele>
        <time>2019-07-06T12:48:04Z</time>
      </trkpt>
      <trkpt lat="40.7035390" lon="-2.3513260">
        <ele>1186.8</ele>
        <time>2019-07-06T12:48:05Z</time>
      </trkpt>
      <trkpt lat="40.7034600" lon="-2.3514410">
        <ele>1186.0</ele>
        <time>2019-07-06T12:48:07Z</time>
      </trkpt>
      <trkpt lat="40.7033840" lon="-2.3515510">
        <ele>1185.6</ele>
        <time>2019-07-06T12:48:09Z</time>
      </trkpt>
      <trkpt lat="40.7032990" lon="-2.3516600">
        <ele>1184.8</ele>
        <time>2019-07-06T12:48:11Z</time>
      </trkpt>
      <trkpt lat="40.7032230" lon="-2.3517770">
        <ele>1183.6</ele>
        <time>2019-07-06T12:48:13Z</time>
      </trkpt>
      <trkpt lat="40.7031510" lon="-2.3519060">
        <ele>1182.8</ele>
        <time>2019-07-06T12:48:15Z</time>
      </trkpt>
      <trkpt lat="40.7031040" lon="-2.3519680">
        <ele>1182.4</ele>
        <time>2019-07-06T12:48:16Z</time>
      </trkpt>
      <trkpt lat="40.7030150" lon="-2.3520940">
        <ele>1181.0</ele>
        <time>2019-07-06T12:48:18Z</time>
      </trkpt>
      <trkpt lat="40.7029420" lon="-2.3522140">
        <ele>1179.8</ele>
        <time>2019-07-06T12:48:20Z</time>
      </trkpt>
      <trkpt lat="40.7027620" lon="-2.3523790">
        <ele>1179.6</ele>
        <time>2019-07-06T12:48:24Z</time>
      </trkpt>
      <trkpt lat="40.7027120" lon="-2.3524060">
        <ele>1179.6</ele>
        <time>2019-07-06T12:48:25Z</time>
      </trkpt>
      <trkpt lat="40.7026620" lon="-2.3524280">
        <ele>1179.8</ele>
        <time>2019-07-06T12:48:26Z</time>
      </trkpt>
      <trkpt lat="40.7025570" lon="-2.3524640">
        <ele>1179.8</ele>
        <time>2019-07-06T12:48:28Z</time>
      </trkpt>
      <trkpt lat="40.7025130" lon="-2.3524950">
        <ele>1179.8</ele>
        <time>2019-07-06T12:48:29Z</time>
      </trkpt>
      <trkpt lat="40.7024340" lon="-2.3525850">
        <ele>1180.0</ele>
        <time>2019-07-06T12:48:31Z</time>
      </trkpt>
      <trkpt lat="40.7023980" lon="-2.3526350">
        <ele>1180.0</ele>
        <time>2019-07-06T12:48:32Z</time>
      </trkpt>
      <trkpt lat="40.7023280" lon="-2.3527370">
        <ele>1180.2</ele>
        <time>2019-07-06T12:48:34Z</time>
      </trkpt>
      <trkpt lat="40.7022590" lon="-2.3528290">
        <ele>1180.2</ele>
        <time>2019-07-06T12:48:36Z</time>
      </trkpt>
      <trkpt lat="40.7021410" lon="-2.3529310">
        <ele>1180.4</ele>
        <time>2019-07-06T12:48:39Z</time>
      </trkpt>
      <trkpt lat="40.7020240" lon="-2.3530080">
        <ele>1180.6</ele>
        <time>2019-07-06T12:48:42Z</time>
      </trkpt>
      <trkpt lat="40.7019900" lon="-2.3530290">
        <ele>1180.8</ele>
        <time>2019-07-06T12:48:43Z</time>
      </trkpt>
      <trkpt lat="40.7019610" lon="-2.3530440">
        <ele>1181.0</ele>
        <time>2019-07-06T12:48:44Z</time>
      </trkpt>
      <trkpt lat="40.7018550" lon="-2.3530900">
        <ele>1181.4</ele>
        <time>2019-07-06T12:48:47Z</time>
      </trkpt>
      <trkpt lat="40.7017630" lon="-2.3531080">
        <ele>1181.6</ele>
        <time>2019-07-06T12:48:49Z</time>
      </trkpt>
      <trkpt lat="40.7017140" lon="-2.3531180">
        <ele>1181.4</ele>
        <time>2019-07-06T12:48:50Z</time>
      </trkpt>
      <trkpt lat="40.7015740" lon="-2.3531770">
        <ele>1181.4</ele>
        <time>2019-07-06T12:48:53Z</time>
      </trkpt>
      <trkpt lat="40.7015290" lon="-2.3531950">
        <ele>1181.2</ele>
        <time>2019-07-06T12:48:54Z</time>
      </trkpt>
      <trkpt lat="40.7014840" lon="-2.3532140">
        <ele>1181.2</ele>
        <time>2019-07-06T12:48:55Z</time>
      </trkpt>
      <trkpt lat="40.7013940" lon="-2.3532620">
        <ele>1181.2</ele>
        <time>2019-07-06T12:48:57Z</time>
      </trkpt>
      <trkpt lat="40.7012920" lon="-2.3533040">
        <ele>1181.0</ele>
        <time>2019-07-06T12:48:59Z</time>
      </trkpt>
      <trkpt lat="40.7010350" lon="-2.3534300">
        <ele>1180.8</ele>
        <time>2019-07-06T12:49:04Z</time>
      </trkpt>
      <trkpt lat="40.7009920" lon="-2.3534750">
        <ele>1180.8</ele>
        <time>2019-07-06T12:49:05Z</time>
      </trkpt>
      <trkpt lat="40.7007340" lon="-2.3538620">
        <ele>1180.0</ele>
        <time>2019-07-06T12:49:12Z</time>
      </trkpt>
      <trkpt lat="40.7006980" lon="-2.3539190">
        <ele>1179.6</ele>
        <time>2019-07-06T12:49:13Z</time>
      </trkpt>
      <trkpt lat="40.7006340" lon="-2.3540380">
        <ele>1178.8</ele>
        <time>2019-07-06T12:49:15Z</time>
      </trkpt>
      <trkpt lat="40.7006070" lon="-2.3540980">
        <ele>1178.8</ele>
        <time>2019-07-06T12:49:16Z</time>
      </trkpt>
      <trkpt lat="40.7005860" lon="-2.3541580">
        <ele>1178.6</ele>
        <time>2019-07-06T12:49:17Z</time>
      </trkpt>
      <trkpt lat="40.7005640" lon="-2.3542170">
        <ele>1178.4</ele>
        <time>2019-07-06T12:49:18Z</time>
      </trkpt>
      <trkpt lat="40.7004870" lon="-2.3543710">
        <ele>1177.6</ele>
        <time>2019-07-06T12:49:21Z</time>
      </trkpt>
      <trkpt lat="40.7004580" lon="-2.3544200">
        <ele>1177.4</ele>
        <time>2019-07-06T12:49:22Z</time>
      </trkpt>
      <trkpt lat="40.7004020" lon="-2.3545230">
        <ele>1177.4</ele>
        <time>2019-07-06T12:49:24Z</time>
      </trkpt>
      <trkpt lat="40.7003800" lon="-2.3545780">
        <ele>1177.2</ele>
        <time>2019-07-06T12:49:25Z</time>
      </trkpt>
      <trkpt lat="40.7002970" lon="-2.3548600">
        <ele>1177.4</ele>
        <time>2019-07-06T12:49:30Z</time>
      </trkpt>
      <trkpt lat="40.7002810" lon="-2.3550230">
        <ele>1177.4</ele>
        <time>2019-07-06T12:49:33Z</time>
      </trkpt>
      <trkpt lat="40.7002710" lon="-2.3550660">
        <ele>1177.4</ele>
        <time>2019-07-06T12:49:34Z</time>
      </trkpt>
      <trkpt lat="40.7001760" lon="-2.3551900">
        <ele>1176.8</ele>
        <time>2019-07-06T12:49:38Z</time>
      </trkpt>
      <trkpt lat="40.7001390" lon="-2.3552350">
        <ele>1176.4</ele>
        <time>2019-07-06T12:49:39Z</time>
      </trkpt>
      <trkpt lat="40.7000460" lon="-2.3553560">
        <ele>1175.0</ele>
        <time>2019-07-06T12:49:42Z</time>
      </trkpt>
      <trkpt lat="40.7000200" lon="-2.3554020">
        <ele>1174.6</ele>
        <time>2019-07-06T12:49:43Z</time>
      </trkpt>
      <trkpt lat="40.6999900" lon="-2.3555100">
        <ele>1173.6</ele>
        <time>2019-07-06T12:49:45Z</time>
      </trkpt>
      <trkpt lat="40.6999680" lon="-2.3556470">
        <ele>1172.2</ele>
        <time>2019-07-06T12:49:47Z</time>
      </trkpt>
      <trkpt lat="40.6999580" lon="-2.3557660">
        <ele>1170.6</ele>
        <time>2019-07-06T12:49:49Z</time>
      </trkpt>
      <trkpt lat="40.6999540" lon="-2.3558630">
        <ele>1169.8</ele>
        <time>2019-07-06T12:49:51Z</time>
      </trkpt>
      <trkpt lat="40.6999520" lon="-2.3559200">
        <ele>1169.6</ele>
        <time>2019-07-06T12:49:52Z</time>
      </trkpt>
      <trkpt lat="40.6999600" lon="-2.3560230">
        <ele>1168.4</ele>
        <time>2019-07-06T12:49:54Z</time>
      </trkpt>
      <trkpt lat="40.6999570" lon="-2.3561090">
        <ele>1167.2</ele>
        <time>2019-07-06T12:49:56Z</time>
      </trkpt>
      <trkpt lat="40.6999270" lon="-2.3562330">
        <ele>1166.0</ele>
        <time>2019-07-06T12:49:59Z</time>
      </trkpt>
      <trkpt lat="40.6999130" lon="-2.3563260">
        <ele>1164.6</ele>
        <time>2019-07-06T12:50:01Z</time>
      </trkpt>
      <trkpt lat="40.6999110" lon="-2.3563750">
        <ele>1163.8</ele>
        <time>2019-07-06T12:50:02Z</time>
      </trkpt>
      <trkpt lat="40.6999130" lon="-2.3564240">
        <ele>1163.4</ele>
        <time>2019-07-06T12:50:03Z</time>
      </trkpt>
      <trkpt lat="40.6999620" lon="-2.3565410">
        <ele>1162.2</ele>
        <time>2019-07-06T12:50:06Z</time>
      </trkpt>
      <trkpt lat="40.7000520" lon="-2.3566070">
        <ele>1160.6</ele>
        <time>2019-07-06T12:50:09Z</time>
      </trkpt>
      <trkpt lat="40.7001080" lon="-2.3566320">
        <ele>1159.4</ele>
        <time>2019-07-06T12:50:11Z</time>
      </trkpt>
      <trkpt lat="40.7001790" lon="-2.3566630">
        <ele>1157.8</ele>
        <time>2019-07-06T12:50:14Z</time>
      </trkpt>
      <trkpt lat="40.7002240" lon="-2.3566910">
        <ele>1156.6</ele>
        <time>2019-07-06T12:50:17Z</time>
      </trkpt>
      <trkpt lat="40.7002340" lon="-2.3567010">
        <ele>1156.0</ele>
        <time>2019-07-06T12:50:18Z</time>
      </trkpt>
      <trkpt lat="40.7002410" lon="-2.3567120">
        <ele>1155.6</ele>
        <time>2019-07-06T12:50:20Z</time>
      </trkpt>
      <trkpt lat="40.7002440" lon="-2.3567130">
        <ele>1155.4</ele>
        <time>2019-07-06T12:50:21Z</time>
      </trkpt>
      <trkpt lat="40.7003940" lon="-2.3567380">
        <ele>1153.4</ele>
        <time>2019-07-06T12:50:34Z</time>
      </trkpt>
      <trkpt lat="40.7004080" lon="-2.3567430">
        <ele>1153.0</ele>
        <time>2019-07-06T12:50:35Z</time>
      </trkpt>
      <trkpt lat="40.7004370" lon="-2.3567550">
        <ele>1152.2</ele>
        <time>2019-07-06T12:50:39Z</time>
      </trkpt>
      <trkpt lat="40.7004340" lon="-2.3567590">
        <ele>1152.0</ele>
        <time>2019-07-06T12:50:40Z</time>
      </trkpt>
      <trkpt lat="40.7004940" lon="-2.3568280">
        <ele>1151.0</ele>
        <time>2019-07-06T12:51:15Z</time>
      </trkpt>
      <trkpt lat="40.7005600" lon="-2.3569520">
        <ele>1149.8</ele>
        <time>2019-07-06T12:51:18Z</time>
      </trkpt>
      <trkpt lat="40.7005720" lon="-2.3569910">
        <ele>1149.2</ele>
        <time>2019-07-06T12:51:19Z</time>
      </trkpt>
      <trkpt lat="40.7005770" lon="-2.3570270">
        <ele>1148.6</ele>
        <time>2019-07-06T12:51:20Z</time>
      </trkpt>
      <trkpt lat="40.7005780" lon="-2.3570620">
        <ele>1148.2</ele>
        <time>2019-07-06T12:51:21Z</time>
      </trkpt>
      <trkpt lat="40.7005740" lon="-2.3570950">
        <ele>1147.6</ele>
        <time>2019-07-06T12:51:22Z</time>
      </trkpt>
      <trkpt lat="40.7005580" lon="-2.3571440">
        <ele>1147.0</ele>
        <time>2019-07-06T12:51:24Z</time>
      </trkpt>
      <trkpt lat="40.7005320" lon="-2.3571850">
        <ele>1146.4</ele>
        <time>2019-07-06T12:51:26Z</time>
      </trkpt>
      <trkpt lat="40.7004960" lon="-2.3572910">
        <ele>1146.0</ele>
        <time>2019-07-06T12:51:29Z</time>
      </trkpt>
      <trkpt lat="40.7005070" lon="-2.3573760">
        <ele>1145.6</ele>
        <time>2019-07-06T12:51:31Z</time>
      </trkpt>
      <trkpt lat="40.7005290" lon="-2.3574040">
        <ele>1145.0</ele>
        <time>2019-07-06T12:51:32Z</time>
      </trkpt>
      <trkpt lat="40.7006240" lon="-2.3574380">
        <ele>1144.0</ele>
        <time>2019-07-06T12:51:35Z</time>
      </trkpt>
      <trkpt lat="40.7006630" lon="-2.3574420">
        <ele>1143.6</ele>
        <time>2019-07-06T12:51:36Z</time>
      </trkpt>
      <trkpt lat="40.7007020" lon="-2.3574450">
        <ele>1143.0</ele>
        <time>2019-07-06T12:51:37Z</time>
      </trkpt>
      <trkpt lat="40.7007390" lon="-2.3574490">
        <ele>1142.6</ele>
        <time>2019-07-06T12:51:38Z</time>
      </trkpt>
      <trkpt lat="40.7008380" lon="-2.3574400">
        <ele>1141.2</ele>
        <time>2019-07-06T12:51:41Z</time>
      </trkpt>
      <trkpt lat="40.7008730" lon="-2.3574390">
        <ele>1140.4</ele>
        <time>2019-07-06T12:51:42Z</time>
      </trkpt>
      <trkpt lat="40.7009040" lon="-2.3574400">
        <ele>1140.0</ele>
        <time>2019-07-06T12:51:43Z</time>
      </trkpt>
      <trkpt lat="40.7009720" lon="-2.3574390">
        <ele>1138.6</ele>
        <time>2019-07-06T12:51:46Z</time>
      </trkpt>
      <trkpt lat="40.7010450" lon="-2.3574540">
        <ele>1137.6</ele>
        <time>2019-07-06T12:51:51Z</time>
      </trkpt>
      <trkpt lat="40.7010890" lon="-2.3574300">
        <ele>1137.0</ele>
        <time>2019-07-06T12:51:54Z</time>
      </trkpt>
      <trkpt lat="40.7011100" lon="-2.3574150">
        <ele>1136.8</ele>
        <time>2019-07-06T12:51:55Z</time>
      </trkpt>
      <trkpt lat="40.7011290" lon="-2.3574010">
        <ele>1136.6</ele>
        <time>2019-07-06T12:51:56Z</time>
      </trkpt>
      <trkpt lat="40.7011720" lon="-2.3573640">
        <ele>1135.0</ele>
        <time>2019-07-06T12:51:59Z</time>
      </trkpt>
      <trkpt lat="40.7011910" lon="-2.3573470">
        <ele>1134.6</ele>
        <time>2019-07-06T12:52:00Z</time>
      </trkpt>
      <trkpt lat="40.7012710" lon="-2.3572710">
        <ele>1134.0</ele>
        <time>2019-07-06T12:52:03Z</time>
      </trkpt>
      <trkpt lat="40.7013220" lon="-2.3572140">
        <ele>1133.0</ele>
        <time>2019-07-06T12:52:05Z</time>
      </trkpt>
      <trkpt lat="40.7013660" lon="-2.3571530">
        <ele>1131.8</ele>
        <time>2019-07-06T12:52:07Z</time>
      </trkpt>
      <trkpt lat="40.7014080" lon="-2.3570970">
        <ele>1130.4</ele>
        <time>2019-07-06T12:52:09Z</time>
      </trkpt>
      <trkpt lat="40.7014930" lon="-2.3570010">
        <ele>1128.8</ele>
        <time>2019-07-06T12:52:12Z</time>
      </trkpt>
      <trkpt lat="40.7015580" lon="-2.3569330">
        <ele>1128.0</ele>
        <time>2019-07-06T12:52:14Z</time>
      </trkpt>
      <trkpt lat="40.7015960" lon="-2.3569040">
        <ele>1127.4</ele>
        <time>2019-07-06T12:52:15Z</time>
      </trkpt>
      <trkpt lat="40.7016760" lon="-2.3568570">
        <ele>1125.8</ele>
        <time>2019-07-06T12:52:17Z</time>
      </trkpt>
      <trkpt lat="40.7017190" lon="-2.3568410">
        <ele>1125.0</ele>
        <time>2019-07-06T12:52:18Z</time>
      </trkpt>
      <trkpt lat="40.7017630" lon="-2.3568280">
        <ele>1124.4</ele>
        <time>2019-07-06T12:52:19Z</time>
      </trkpt>
      <trkpt lat="40.7018090" lon="-2.3568180">
        <ele>1124.0</ele>
        <time>2019-07-06T12:52:20Z</time>
      </trkpt>
      <trkpt lat="40.7018860" lon="-2.3568120">
        <ele>1123.4</ele>
        <time>2019-07-06T12:52:22Z</time>
      </trkpt>
      <trkpt lat="40.7019190" lon="-2.3568090">
        <ele>1123.0</ele>
        <time>2019-07-06T12:52:23Z</time>
      </trkpt>
      <trkpt lat="40.7019850" lon="-2.3568080">
        <ele>1121.8</ele>
        <time>2019-07-06T12:52:25Z</time>
      </trkpt>
      <trkpt lat="40.7020530" lon="-2.3568110">
        <ele>1120.4</ele>
        <time>2019-07-06T12:52:27Z</time>
      </trkpt>
      <trkpt lat="40.7020780" lon="-2.3568150">
        <ele>1120.0</ele>
        <time>2019-07-06T12:52:28Z</time>
      </trkpt>
      <trkpt lat="40.7021010" lon="-2.3568160">
        <ele>1119.4</ele>
        <time>2019-07-06T12:52:30Z</time>
      </trkpt>
      <trkpt lat="40.7021130" lon="-2.3568110">
        <ele>1119.4</ele>
        <time>2019-07-06T12:52:31Z</time>
      </trkpt>
      <trkpt lat="40.7021320" lon="-2.3568050">
        <ele>1119.2</ele>
        <time>2019-07-06T12:52:32Z</time>
      </trkpt>
      <trkpt lat="40.7022410" lon="-2.3567590">
        <ele>1119.0</ele>
        <time>2019-07-06T12:52:36Z</time>
      </trkpt>
      <trkpt lat="40.7022730" lon="-2.3567470">
        <ele>1118.8</ele>
        <time>2019-07-06T12:52:37Z</time>
      </trkpt>
      <trkpt lat="40.7023560" lon="-2.3566930">
        <ele>1118.4</ele>
        <time>2019-07-06T12:52:40Z</time>
      </trkpt>
      <trkpt lat="40.7023860" lon="-2.3566730">
        <ele>1118.2</ele>
        <time>2019-07-06T12:52:41Z</time>
      </trkpt>
      <trkpt lat="40.7024590" lon="-2.3566550">
        <ele>1117.8</ele>
        <time>2019-07-06T12:52:43Z</time>
      </trkpt>
      <trkpt lat="40.7025010" lon="-2.3566640">
        <ele>1117.4</ele>
        <time>2019-07-06T12:52:44Z</time>
      </trkpt>
      <trkpt lat="40.7025410" lon="-2.3566820">
        <ele>1117.0</ele>
        <time>2019-07-06T12:52:45Z</time>
      </trkpt>
      <trkpt lat="40.7026130" lon="-2.3567320">
        <ele>1116.4</ele>
        <time>2019-07-06T12:52:47Z</time>
      </trkpt>
      <trkpt lat="40.7026540" lon="-2.3567700">
        <ele>1116.0</ele>
        <time>2019-07-06T12:52:48Z</time>
      </trkpt>
      <trkpt lat="40.7026920" lon="-2.3568250">
        <ele>1115.4</ele>
        <time>2019-07-06T12:52:49Z</time>
      </trkpt>
      <trkpt lat="40.7027290" lon="-2.3568940">
        <ele>1114.6</ele>
        <time>2019-07-06T12:52:50Z</time>
      </trkpt>
      <trkpt lat="40.7027940" lon="-2.3570240">
        <ele>1113.8</ele>
        <time>2019-07-06T12:52:52Z</time>
      </trkpt>
      <trkpt lat="40.7028280" lon="-2.3570750">
        <ele>1113.6</ele>
        <time>2019-07-06T12:52:53Z</time>
      </trkpt>
      <trkpt lat="40.7029090" lon="-2.3571550">
        <ele>1112.6</ele>
        <time>2019-07-06T12:52:55Z</time>
      </trkpt>
      <trkpt lat="40.7029460" lon="-2.3571810">
        <ele>1111.8</ele>
        <time>2019-07-06T12:52:56Z</time>
      </trkpt>
      <trkpt lat="40.7029810" lon="-2.3572080">
        <ele>1111.2</ele>
        <time>2019-07-06T12:52:57Z</time>
      </trkpt>
      <trkpt lat="40.7030990" lon="-2.3572930">
        <ele>1110.0</ele>
        <time>2019-07-06T12:53:00Z</time>
      </trkpt>
      <trkpt lat="40.7031820" lon="-2.3573720">
        <ele>1109.2</ele>
        <time>2019-07-06T12:53:02Z</time>
      </trkpt>
      <trkpt lat="40.7032210" lon="-2.3574080">
        <ele>1108.8</ele>
        <time>2019-07-06T12:53:03Z</time>
      </trkpt>
      <trkpt lat="40.7033320" lon="-2.3575080">
        <ele>1107.0</ele>
        <time>2019-07-06T12:53:06Z</time>
      </trkpt>
      <trkpt lat="40.7033760" lon="-2.3575380">
        <ele>1106.8</ele>
        <time>2019-07-06T12:53:07Z</time>
      </trkpt>
      <trkpt lat="40.7034840" lon="-2.3576020">
        <ele>1105.8</ele>
        <time>2019-07-06T12:53:10Z</time>
      </trkpt>
      <trkpt lat="40.7035060" lon="-2.3576210">
        <ele>1105.4</ele>
        <time>2019-07-06T12:53:11Z</time>
      </trkpt>
      <trkpt lat="40.7035600" lon="-2.3576880">
        <ele>1104.8</ele>
        <time>2019-07-06T12:53:14Z</time>
      </trkpt>
      <trkpt lat="40.7036010" lon="-2.3577830">
        <ele>1103.8</ele>
        <time>2019-07-06T12:53:17Z</time>
      </trkpt>
      <trkpt lat="40.7036170" lon="-2.3578270">
        <ele>1103.6</ele>
        <time>2019-07-06T12:53:18Z</time>
      </trkpt>
      <trkpt lat="40.7036900" lon="-2.3580070">
        <ele>1102.6</ele>
        <time>2019-07-06T12:53:22Z</time>
      </trkpt>
      <trkpt lat="40.7037640" lon="-2.3581220">
        <ele>1101.4</ele>
        <time>2019-07-06T12:53:25Z</time>
      </trkpt>
      <trkpt lat="40.7038590" lon="-2.3582100">
        <ele>1100.4</ele>
        <time>2019-07-06T12:53:28Z</time>
      </trkpt>
      <trkpt lat="40.7039870" lon="-2.3583340">
        <ele>1099.4</ele>
        <time>2019-07-06T12:53:32Z</time>
      </trkpt>
      <trkpt lat="40.7040230" lon="-2.3583660">
        <ele>1099.0</ele>
        <time>2019-07-06T12:53:33Z</time>
      </trkpt>
      <trkpt lat="40.7042180" lon="-2.3585450">
        <ele>1097.8</ele>
        <time>2019-07-06T12:53:39Z</time>
      </trkpt>
      <trkpt lat="40.7042500" lon="-2.3585840">
        <ele>1097.4</ele>
        <time>2019-07-06T12:53:40Z</time>
      </trkpt>
      <trkpt lat="40.7043050" lon="-2.3586850">
        <ele>1096.6</ele>
        <time>2019-07-06T12:53:42Z</time>
      </trkpt>
      <trkpt lat="40.7043510" lon="-2.3587930">
        <ele>1096.4</ele>
        <time>2019-07-06T12:53:44Z</time>
      </trkpt>
      <trkpt lat="40.7045280" lon="-2.3591100">
        <ele>1096.0</ele>
        <time>2019-07-06T12:53:50Z</time>
      </trkpt>
      <trkpt lat="40.7046410" lon="-2.3592460">
        <ele>1095.6</ele>
        <time>2019-07-06T12:53:53Z</time>
      </trkpt>
      <trkpt lat="40.7046880" lon="-2.3592810">
        <ele>1095.4</ele>
        <time>2019-07-06T12:53:54Z</time>
      </trkpt>
      <trkpt lat="40.7047330" lon="-2.3593170">
        <ele>1095.4</ele>
        <time>2019-07-06T12:53:55Z</time>
      </trkpt>
      <trkpt lat="40.7047830" lon="-2.3593460">
        <ele>1095.2</ele>
        <time>2019-07-06T12:53:56Z</time>
      </trkpt>
      <trkpt lat="40.7049280" lon="-2.3594450">
        <ele>1094.4</ele>
        <time>2019-07-06T12:53:59Z</time>
      </trkpt>
      <trkpt lat="40.7049740" lon="-2.3594780">
        <ele>1094.4</ele>
        <time>2019-07-06T12:54:00Z</time>
      </trkpt>
      <trkpt lat="40.7051180" lon="-2.3595670">
        <ele>1093.4</ele>
        <time>2019-07-06T12:54:03Z</time>
      </trkpt>
      <trkpt lat="40.7052040" lon="-2.3596310">
        <ele>1092.0</ele>
        <time>2019-07-06T12:54:05Z</time>
      </trkpt>
      <trkpt lat="40.7052330" lon="-2.3596780">
        <ele>1091.6</ele>
        <time>2019-07-06T12:54:06Z</time>
      </trkpt>
      <trkpt lat="40.7052540" lon="-2.3598610">
        <ele>1091.0</ele>
        <time>2019-07-06T12:54:09Z</time>
      </trkpt>
      <trkpt lat="40.7052460" lon="-2.3599340">
        <ele>1090.8</ele>
        <time>2019-07-06T12:54:10Z</time>
      </trkpt>
      <trkpt lat="40.7052360" lon="-2.3600060">
        <ele>1090.6</ele>
        <time>2019-07-06T12:54:11Z</time>
      </trkpt>
      <trkpt lat="40.7052290" lon="-2.3600760">
        <ele>1090.6</ele>
        <time>2019-07-06T12:54:12Z</time>
      </trkpt>
      <trkpt lat="40.7052330" lon="-2.3602150">
        <ele>1089.8</ele>
        <time>2019-07-06T12:54:14Z</time>
      </trkpt>
      <trkpt lat="40.7052440" lon="-2.3602870">
        <ele>1089.4</ele>
        <time>2019-07-06T12:54:15Z</time>
      </trkpt>
      <trkpt lat="40.7052550" lon="-2.3603570">
        <ele>1089.2</ele>
        <time>2019-07-06T12:54:16Z</time>
      </trkpt>
      <trkpt lat="40.7052580" lon="-2.3604290">
        <ele>1089.0</ele>
        <time>2019-07-06T12:54:17Z</time>
      </trkpt>
      <trkpt lat="40.7052290" lon="-2.3605760">
        <ele>1088.4</ele>
        <time>2019-07-06T12:54:19Z</time>
      </trkpt>
      <trkpt lat="40.7052170" lon="-2.3607490">
        <ele>1088.2</ele>
        <time>2019-07-06T12:54:22Z</time>
      </trkpt>
      <trkpt lat="40.7052850" lon="-2.3608110">
        <ele>1088.0</ele>
        <time>2019-07-06T12:54:25Z</time>
      </trkpt>
      <trkpt lat="40.7053490" lon="-2.3608620">
        <ele>1087.8</ele>
        <time>2019-07-06T12:54:28Z</time>
      </trkpt>
      <trkpt lat="40.7053840" lon="-2.3609320">
        <ele>1088.0</ele>
        <time>2019-07-06T12:54:30Z</time>
      </trkpt>
      <trkpt lat="40.7054230" lon="-2.3610180">
        <ele>1088.2</ele>
        <time>2019-07-06T12:54:32Z</time>
      </trkpt>
      <trkpt lat="40.7054800" lon="-2.3612000">
        <ele>1088.2</ele>
        <time>2019-07-06T12:54:36Z</time>
      </trkpt>
      <trkpt lat="40.7054860" lon="-2.3612530">
        <ele>1088.2</ele>
        <time>2019-07-06T12:54:37Z</time>
      </trkpt>
      <trkpt lat="40.7054670" lon="-2.3614290">
        <ele>1087.6</ele>
        <time>2019-07-06T12:54:40Z</time>
      </trkpt>
      <trkpt lat="40.7054620" lon="-2.3614810">
        <ele>1087.2</ele>
        <time>2019-07-06T12:54:41Z</time>
      </trkpt>
      <trkpt lat="40.7054790" lon="-2.3615540">
        <ele>1086.2</ele>
        <time>2019-07-06T12:54:43Z</time>
      </trkpt>
      <trkpt lat="40.7055020" lon="-2.3615700">
        <ele>1086.0</ele>
        <time>2019-07-06T12:54:44Z</time>
      </trkpt>
      <trkpt lat="40.7055480" lon="-2.3615620">
        <ele>1085.4</ele>
        <time>2019-07-06T12:54:46Z</time>
      </trkpt>
      <trkpt lat="40.7055770" lon="-2.3615150">
        <ele>1084.6</ele>
        <time>2019-07-06T12:54:48Z</time>
      </trkpt>
      <trkpt lat="40.7055860" lon="-2.3614830">
        <ele>1084.6</ele>
        <time>2019-07-06T12:54:49Z</time>
      </trkpt>
      <trkpt lat="40.7055960" lon="-2.3614530">
        <ele>1084.2</ele>
        <time>2019-07-06T12:54:50Z</time>
      </trkpt>
      <trkpt lat="40.7056160" lon="-2.3613970">
        <ele>1083.6</ele>
        <time>2019-07-06T12:54:52Z</time>
      </trkpt>
      <trkpt lat="40.7056400" lon="-2.3613480">
        <ele>1082.6</ele>
        <time>2019-07-06T12:54:54Z</time>
      </trkpt>
      <trkpt lat="40.7056610" lon="-2.3612770">
        <ele>1081.8</ele>
        <time>2019-07-06T12:54:56Z</time>
      </trkpt>
      <trkpt lat="40.7056780" lon="-2.3611760">
        <ele>1081.0</ele>
        <time>2019-07-06T12:54:58Z</time>
      </trkpt>
      <trkpt lat="40.7056780" lon="-2.3610900">
        <ele>1079.8</ele>
        <time>2019-07-06T12:55:00Z</time>
      </trkpt>
      <trkpt lat="40.7056730" lon="-2.3610550">
        <ele>1079.6</ele>
        <time>2019-07-06T12:55:01Z</time>
      </trkpt>
      <trkpt lat="40.7056550" lon="-2.3609910">
        <ele>1078.8</ele>
        <time>2019-07-06T12:55:03Z</time>
      </trkpt>
      <trkpt lat="40.7056480" lon="-2.3608460">
        <ele>1077.4</ele>
        <time>2019-07-06T12:55:06Z</time>
      </trkpt>
      <trkpt lat="40.7056490" lon="-2.3607480">
        <ele>1076.4</ele>
        <time>2019-07-06T12:55:08Z</time>
      </trkpt>
      <trkpt lat="40.7056510" lon="-2.3607060">
        <ele>1076.0</ele>
        <time>2019-07-06T12:55:09Z</time>
      </trkpt>
      <trkpt lat="40.7056640" lon="-2.3606380">
        <ele>1075.0</ele>
        <time>2019-07-06T12:55:11Z</time>
      </trkpt>
      <trkpt lat="40.7056800" lon="-2.3606280">
        <ele>1074.6</ele>
        <time>2019-07-06T12:55:12Z</time>
      </trkpt>
      <trkpt lat="40.7057380" lon="-2.3606590">
        <ele>1073.8</ele>
        <time>2019-07-06T12:55:15Z</time>
      </trkpt>
      <trkpt lat="40.7057540" lon="-2.3606900">
        <ele>1073.6</ele>
        <time>2019-07-06T12:55:16Z</time>
      </trkpt>
      <trkpt lat="40.7058250" lon="-2.3608480">
        <ele>1072.4</ele>
        <time>2019-07-06T12:55:20Z</time>
      </trkpt>
      <trkpt lat="40.7058930" lon="-2.3611240">
        <ele>1071.4</ele>
        <time>2019-07-06T12:55:26Z</time>
      </trkpt>
      <trkpt lat="40.7059010" lon="-2.3611810">
        <ele>1071.0</ele>
        <time>2019-07-06T12:55:27Z</time>
      </trkpt>
      <trkpt lat="40.7059430" lon="-2.3613890">
        <ele>1069.8</ele>
        <time>2019-07-06T12:55:30Z</time>
      </trkpt>
      <trkpt lat="40.7060000" lon="-2.3616280">
        <ele>1068.4</ele>
        <time>2019-07-06T12:55:33Z</time>
      </trkpt>
      <trkpt lat="40.7060400" lon="-2.3617650">
        <ele>1067.2</ele>
        <time>2019-07-06T12:55:35Z</time>
      </trkpt>
      <trkpt lat="40.7061800" lon="-2.3621320">
        <ele>1066.8</ele>
        <time>2019-07-06T12:55:41Z</time>
      </trkpt>
      <trkpt lat="40.7062520" lon="-2.3624090">
        <ele>1066.2</ele>
        <time>2019-07-06T12:55:46Z</time>
      </trkpt>
      <trkpt lat="40.7062760" lon="-2.3625580">
        <ele>1065.8</ele>
        <time>2019-07-06T12:55:49Z</time>
      </trkpt>
      <trkpt lat="40.7062880" lon="-2.3625960">
        <ele>1065.8</ele>
        <time>2019-07-06T12:55:50Z</time>
      </trkpt>
      <trkpt lat="40.7063190" lon="-2.3626760">
        <ele>1065.0</ele>
        <time>2019-07-06T12:55:52Z</time>
      </trkpt>
      <trkpt lat="40.7063510" lon="-2.3627390">
        <ele>1064.0</ele>
        <time>2019-07-06T12:55:54Z</time>
      </trkpt>
      <trkpt lat="40.7064000" lon="-2.3628100">
        <ele>1063.2</ele>
        <time>2019-07-06T12:55:56Z</time>
      </trkpt>
      <trkpt lat="40.7064720" lon="-2.3628890">
        <ele>1062.8</ele>
        <time>2019-07-06T12:55:58Z</time>
      </trkpt>
      <trkpt lat="40.7065860" lon="-2.3629930">
        <ele>1062.0</ele>
        <time>2019-07-06T12:56:01Z</time>
      </trkpt>
      <trkpt lat="40.7066220" lon="-2.3630180">
        <ele>1061.4</ele>
        <time>2019-07-06T12:56:02Z</time>
      </trkpt>
      <trkpt lat="40.7067300" lon="-2.3630710">
        <ele>1060.2</ele>
        <time>2019-07-06T12:56:05Z</time>
      </trkpt>
      <trkpt lat="40.7068130" lon="-2.3631090">
        <ele>1059.8</ele>
        <time>2019-07-06T12:56:07Z</time>
      </trkpt>
      <trkpt lat="40.7068930" lon="-2.3631680">
        <ele>1059.4</ele>
        <time>2019-07-06T12:56:09Z</time>
      </trkpt>
      <trkpt lat="40.7070440" lon="-2.3632960">
        <ele>1058.2</ele>
        <time>2019-07-06T12:56:12Z</time>
      </trkpt>
      <trkpt lat="40.7071990" lon="-2.3634170">
        <ele>1056.6</ele>
        <time>2019-07-06T12:56:15Z</time>
      </trkpt>
      <trkpt lat="40.7072520" lon="-2.3634560">
        <ele>1056.4</ele>
        <time>2019-07-06T12:56:16Z</time>
      </trkpt>
      <trkpt lat="40.7073650" lon="-2.3635350">
        <ele>1055.4</ele>
        <time>2019-07-06T12:56:18Z</time>
      </trkpt>
      <trkpt lat="40.7074840" lon="-2.3636210">
        <ele>1054.0</ele>
        <time>2019-07-06T12:56:20Z</time>
      </trkpt>
      <trkpt lat="40.7075910" lon="-2.3637100">
        <ele>1053.2</ele>
        <time>2019-07-06T12:56:22Z</time>
      </trkpt>
      <trkpt lat="40.7076880" lon="-2.3638050">
        <ele>1052.8</ele>
        <time>2019-07-06T12:56:24Z</time>
      </trkpt>
      <trkpt lat="40.7077830" lon="-2.3638990">
        <ele>1052.0</ele>
        <time>2019-07-06T12:56:26Z</time>
      </trkpt>
      <trkpt lat="40.7078350" lon="-2.3639400">
        <ele>1051.8</ele>
        <time>2019-07-06T12:56:27Z</time>
      </trkpt>
      <trkpt lat="40.7078920" lon="-2.3639770">
        <ele>1051.4</ele>
        <time>2019-07-06T12:56:28Z</time>
      </trkpt>
      <trkpt lat="40.7081910" lon="-2.3641330">
        <ele>1050.8</ele>
        <time>2019-07-06T12:56:33Z</time>
      </trkpt>
      <trkpt lat="40.7082450" lon="-2.3641580">
        <ele>1050.6</ele>
        <time>2019-07-06T12:56:34Z</time>
      </trkpt>
      <trkpt lat="40.7083890" lon="-2.3642320">
        <ele>1049.6</ele>
        <time>2019-07-06T12:56:37Z</time>
      </trkpt>
      <trkpt lat="40.7085310" lon="-2.3643400">
        <ele>1048.6</ele>
        <time>2019-07-06T12:56:40Z</time>
      </trkpt>
      <trkpt lat="40.7086490" lon="-2.3644540">
        <ele>1047.8</ele>
        <time>2019-07-06T12:56:43Z</time>
      </trkpt>
      <trkpt lat="40.7086860" lon="-2.3644930">
        <ele>1047.2</ele>
        <time>2019-07-06T12:56:44Z</time>
      </trkpt>
      <trkpt lat="40.7087970" lon="-2.3645980">
        <ele>1046.0</ele>
        <time>2019-07-06T12:56:47Z</time>
      </trkpt>
      <trkpt lat="40.7088610" lon="-2.3647020">
        <ele>1045.8</ele>
        <time>2019-07-06T12:56:49Z</time>
      </trkpt>
      <trkpt lat="40.7088910" lon="-2.3647590">
        <ele>1045.6</ele>
        <time>2019-07-06T12:56:50Z</time>
      </trkpt>
      <trkpt lat="40.7089450" lon="-2.3648780">
        <ele>1045.2</ele>
        <time>2019-07-06T12:56:52Z</time>
      </trkpt>
      <trkpt lat="40.7090080" lon="-2.3649650">
        <ele>1044.8</ele>
        <time>2019-07-06T12:56:54Z</time>
      </trkpt>
      <trkpt lat="40.7090570" lon="-2.3650190">
        <ele>1043.6</ele>
        <time>2019-07-06T12:56:56Z</time>
      </trkpt>
      <trkpt lat="40.7090950" lon="-2.3650700">
        <ele>1043.0</ele>
        <time>2019-07-06T12:56:58Z</time>
      </trkpt>
      <trkpt lat="40.7091220" lon="-2.3650960">
        <ele>1042.6</ele>
        <time>2019-07-06T12:56:59Z</time>
      </trkpt>
      <trkpt lat="40.7092200" lon="-2.3651570">
        <ele>1041.8</ele>
        <time>2019-07-06T12:57:02Z</time>
      </trkpt>
      <trkpt lat="40.7092550" lon="-2.3651800">
        <ele>1041.4</ele>
        <time>2019-07-06T12:57:03Z</time>
      </trkpt>
      <trkpt lat="40.7093370" lon="-2.3652230">
        <ele>1040.4</ele>
        <time>2019-07-06T12:57:05Z</time>
      </trkpt>
      <trkpt lat="40.7094200" lon="-2.3652660">
        <ele>1039.6</ele>
        <time>2019-07-06T12:57:07Z</time>
      </trkpt>
      <trkpt lat="40.7095170" lon="-2.3653100">
        <ele>1039.0</ele>
        <time>2019-07-06T12:57:09Z</time>
      </trkpt>
      <trkpt lat="40.7096190" lon="-2.3653460">
        <ele>1038.0</ele>
        <time>2019-07-06T12:57:11Z</time>
      </trkpt>
      <trkpt lat="40.7097060" lon="-2.3653820">
        <ele>1037.2</ele>
        <time>2019-07-06T12:57:13Z</time>
      </trkpt>
      <trkpt lat="40.7097470" lon="-2.3654090">
        <ele>1037.0</ele>
        <time>2019-07-06T12:57:14Z</time>
      </trkpt>
      <trkpt lat="40.7097900" lon="-2.3654350">
        <ele>1036.6</ele>
        <time>2019-07-06T12:57:15Z</time>
      </trkpt>
      <trkpt lat="40.7098750" lon="-2.3654870">
        <ele>1035.4</ele>
        <time>2019-07-06T12:57:17Z</time>
      </trkpt>
      <trkpt lat="40.7099860" lon="-2.3655770">
        <ele>1034.4</ele>
        <time>2019-07-06T12:57:20Z</time>
      </trkpt>
      <trkpt lat="40.7100650" lon="-2.3656550">
        <ele>1033.4</ele>
        <time>2019-07-06T12:57:22Z</time>
      </trkpt>
      <trkpt lat="40.7101340" lon="-2.3657640">
        <ele>1032.6</ele>
        <time>2019-07-06T12:57:24Z</time>
      </trkpt>
      <trkpt lat="40.7101660" lon="-2.3658130">
        <ele>1031.8</ele>
        <time>2019-07-06T12:57:25Z</time>
      </trkpt>
      <trkpt lat="40.7101980" lon="-2.3658610">
        <ele>1031.0</ele>
        <time>2019-07-06T12:57:26Z</time>
      </trkpt>
      <trkpt lat="40.7102300" lon="-2.3659100">
        <ele>1030.6</ele>
        <time>2019-07-06T12:57:27Z</time>
      </trkpt>
      <trkpt lat="40.7103020" lon="-2.3660050">
        <ele>1029.6</ele>
        <time>2019-07-06T12:57:29Z</time>
      </trkpt>
      <trkpt lat="40.7103660" lon="-2.3660910">
        <ele>1028.6</ele>
        <time>2019-07-06T12:57:31Z</time>
      </trkpt>
      <trkpt lat="40.7103970" lon="-2.3661230">
        <ele>1028.2</ele>
        <time>2019-07-06T12:57:32Z</time>
      </trkpt>
      <trkpt lat="40.7104520" lon="-2.3661920">
        <ele>1027.2</ele>
        <time>2019-07-06T12:57:34Z</time>
      </trkpt>
      <trkpt lat="40.7104990" lon="-2.3662970">
        <ele>1026.4</ele>
        <time>2019-07-06T12:57:36Z</time>
      </trkpt>
      <trkpt lat="40.7105260" lon="-2.3664030">
        <ele>1026.2</ele>
        <time>2019-07-06T12:57:38Z</time>
      </trkpt>
      <trkpt lat="40.7105470" lon="-2.3664990">
        <ele>1026.2</ele>
        <time>2019-07-06T12:57:40Z</time>
      </trkpt>
      <trkpt lat="40.7105820" lon="-2.3665750">
        <ele>1026.2</ele>
        <time>2019-07-06T12:57:42Z</time>
      </trkpt>
      <trkpt lat="40.7106230" lon="-2.3666690">
        <ele>1026.2</ele>
        <time>2019-07-06T12:57:44Z</time>
      </trkpt>
      <trkpt lat="40.7106390" lon="-2.3667230">
        <ele>1026.2</ele>
        <time>2019-07-06T12:57:45Z</time>
      </trkpt>
      <trkpt lat="40.7106600" lon="-2.3669170">
        <ele>1025.4</ele>
        <time>2019-07-06T12:57:48Z</time>
      </trkpt>
      <trkpt lat="40.7106620" lon="-2.3669930">
        <ele>1024.8</ele>
        <time>2019-07-06T12:57:49Z</time>
      </trkpt>
      <trkpt lat="40.7106620" lon="-2.3670660">
        <ele>1024.4</ele>
        <time>2019-07-06T12:57:50Z</time>
      </trkpt>
      <trkpt lat="40.7106610" lon="-2.3672000">
        <ele>1023.6</ele>
        <time>2019-07-06T12:57:52Z</time>
      </trkpt>
      <trkpt lat="40.7106580" lon="-2.3672640">
        <ele>1023.2</ele>
        <time>2019-07-06T12:57:53Z</time>
      </trkpt>
      <trkpt lat="40.7106450" lon="-2.3673870">
        <ele>1022.4</ele>
        <time>2019-07-06T12:57:55Z</time>
      </trkpt>
      <trkpt lat="40.7106320" lon="-2.3675820">
        <ele>1020.8</ele>
        <time>2019-07-06T12:57:58Z</time>
      </trkpt>
      <trkpt lat="40.7106340" lon="-2.3676370">
        <ele>1020.4</ele>
        <time>2019-07-06T12:57:59Z</time>
      </trkpt>
      <trkpt lat="40.7106290" lon="-2.3677480">
        <ele>1019.6</ele>
        <time>2019-07-06T12:58:01Z</time>
      </trkpt>
      <trkpt lat="40.7106290" lon="-2.3678760">
        <ele>1018.6</ele>
        <time>2019-07-06T12:58:03Z</time>
      </trkpt>
      <trkpt lat="40.7106320" lon="-2.3679340">
        <ele>1018.0</ele>
        <time>2019-07-06T12:58:04Z</time>
      </trkpt>
      <trkpt lat="40.7106330" lon="-2.3679860">
        <ele>1016.8</ele>
        <time>2019-07-06T12:58:05Z</time>
      </trkpt>
      <trkpt lat="40.7106270" lon="-2.3680690">
        <ele>1015.4</ele>
        <time>2019-07-06T12:58:07Z</time>
      </trkpt>
      <trkpt lat="40.7106270" lon="-2.3680950">
        <ele>1015.0</ele>
        <time>2019-07-06T12:58:08Z</time>
      </trkpt>
      <trkpt lat="40.7106260" lon="-2.3681210">
        <ele>1014.8</ele>
        <time>2019-07-06T12:58:09Z</time>
      </trkpt>
      <trkpt lat="40.7106180" lon="-2.3682230">
        <ele>1014.8</ele>
        <time>2019-07-06T12:58:12Z</time>
      </trkpt>
      <trkpt lat="40.7106130" lon="-2.3683040">
        <ele>1015.2</ele>
        <time>2019-07-06T12:58:14Z</time>
      </trkpt>
      <trkpt lat="40.7106070" lon="-2.3683830">
        <ele>1015.6</ele>
        <time>2019-07-06T12:58:16Z</time>
      </trkpt>
      <trkpt lat="40.7106060" lon="-2.3684860">
        <ele>1015.8</ele>
        <time>2019-07-06T12:58:18Z</time>
      </trkpt>
      <trkpt lat="40.7106050" lon="-2.3685950">
        <ele>1015.8</ele>
        <time>2019-07-06T12:58:20Z</time>
      </trkpt>
      <trkpt lat="40.7106240" lon="-2.3687100">
        <ele>1015.8</ele>
        <time>2019-07-06T12:58:22Z</time>
      </trkpt>
      <trkpt lat="40.7107310" lon="-2.3689020">
        <ele>1015.4</ele>
        <time>2019-07-06T12:58:26Z</time>
      </trkpt>
      <trkpt lat="40.7107700" lon="-2.3689440">
        <ele>1015.2</ele>
        <time>2019-07-06T12:58:27Z</time>
      </trkpt>
      <trkpt lat="40.7109150" lon="-2.3690780">
        <ele>1013.8</ele>
        <time>2019-07-06T12:58:30Z</time>
      </trkpt>
      <trkpt lat="40.7110130" lon="-2.3691910">
        <ele>1013.0</ele>
        <time>2019-07-06T12:58:32Z</time>
      </trkpt>
      <trkpt lat="40.7110590" lon="-2.3692560">
        <ele>1012.6</ele>
        <time>2019-07-06T12:58:33Z</time>
      </trkpt>
      <trkpt lat="40.7110980" lon="-2.3693160">
        <ele>1012.4</ele>
        <time>2019-07-06T12:58:34Z</time>
      </trkpt>
      <trkpt lat="40.7111560" lon="-2.3694340">
        <ele>1012.0</ele>
        <time>2019-07-06T12:58:36Z</time>
      </trkpt>
      <trkpt lat="40.7111880" lon="-2.3695700">
        <ele>1011.4</ele>
        <time>2019-07-06T12:58:38Z</time>
      </trkpt>
      <trkpt lat="40.7112190" lon="-2.3697060">
        <ele>1011.0</ele>
        <time>2019-07-06T12:58:40Z</time>
      </trkpt>
      <trkpt lat="40.7112880" lon="-2.3699020">
        <ele>1011.0</ele>
        <time>2019-07-06T12:58:43Z</time>
      </trkpt>
      <trkpt lat="40.7114380" lon="-2.3701200">
        <ele>1010.6</ele>
        <time>2019-07-06T12:58:47Z</time>
      </trkpt>
      <trkpt lat="40.7115340" lon="-2.3701980">
        <ele>1010.4</ele>
        <time>2019-07-06T12:58:49Z</time>
      </trkpt>
      <trkpt lat="40.7115860" lon="-2.3702320">
        <ele>1010.0</ele>
        <time>2019-07-06T12:58:50Z</time>
      </trkpt>
      <trkpt lat="40.7116380" lon="-2.3702530">
        <ele>1009.8</ele>
        <time>2019-07-06T12:58:51Z</time>
      </trkpt>
      <trkpt lat="40.7117830" lon="-2.3702250">
        <ele>1009.6</ele>
        <time>2019-07-06T12:58:54Z</time>
      </trkpt>
      <trkpt lat="40.7119420" lon="-2.3701340">
        <ele>1009.6</ele>
        <time>2019-07-06T12:58:58Z</time>
      </trkpt>
      <trkpt lat="40.7121560" lon="-2.3701320">
        <ele>1008.6</ele>
        <time>2019-07-06T12:59:02Z</time>
      </trkpt>
      <trkpt lat="40.7122480" lon="-2.3701720">
        <ele>1007.6</ele>
        <time>2019-07-06T12:59:04Z</time>
      </trkpt>
      <trkpt lat="40.7122910" lon="-2.3702040">
        <ele>1007.0</ele>
        <time>2019-07-06T12:59:05Z</time>
      </trkpt>
      <trkpt lat="40.7123370" lon="-2.3702440">
        <ele>1006.0</ele>
        <time>2019-07-06T12:59:06Z</time>
      </trkpt>
      <trkpt lat="40.7124290" lon="-2.3703320">
        <ele>1004.6</ele>
        <time>2019-07-06T12:59:08Z</time>
      </trkpt>
      <trkpt lat="40.7125200" lon="-2.3704210">
        <ele>1003.2</ele>
        <time>2019-07-06T12:59:10Z</time>
      </trkpt>
      <trkpt lat="40.7125610" lon="-2.3704650">
        <ele>1002.6</ele>
        <time>2019-07-06T12:59:11Z</time>
      </trkpt>
      <trkpt lat="40.7126020" lon="-2.3705230">
        <ele>1002.2</ele>
        <time>2019-07-06T12:59:12Z</time>
      </trkpt>
      <trkpt lat="40.7126410" lon="-2.3705870">
        <ele>1001.6</ele>
        <time>2019-07-06T12:59:13Z</time>
      </trkpt>
      <trkpt lat="40.7127140" lon="-2.3707060">
        <ele>1000.0</ele>
        <time>2019-07-06T12:59:15Z</time>
      </trkpt>
      <trkpt lat="40.7127700" lon="-2.3708110">
        <ele>999.0</ele>
        <time>2019-07-06T12:59:17Z</time>
      </trkpt>
      <trkpt lat="40.7127960" lon="-2.3708660">
        <ele>998.2</ele>
        <time>2019-07-06T12:59:18Z</time>
      </trkpt>
      <trkpt lat="40.7128520" lon="-2.3709820">
        <ele>997.2</ele>
        <time>2019-07-06T12:59:20Z</time>
      </trkpt>
      <trkpt lat="40.7128820" lon="-2.3710340">
        <ele>996.6</ele>
        <time>2019-07-06T12:59:21Z</time>
      </trkpt>
      <trkpt lat="40.7129470" lon="-2.3711320">
        <ele>995.6</ele>
        <time>2019-07-06T12:59:23Z</time>
      </trkpt>
      <trkpt lat="40.7130160" lon="-2.3712170">
        <ele>994.6</ele>
        <time>2019-07-06T12:59:25Z</time>
      </trkpt>
      <trkpt lat="40.7130470" lon="-2.3712610">
        <ele>994.2</ele>
        <time>2019-07-06T12:59:26Z</time>
      </trkpt>
      <trkpt lat="40.7131390" lon="-2.3714130">
        <ele>993.2</ele>
        <time>2019-07-06T12:59:29Z</time>
      </trkpt>
      <trkpt lat="40.7131740" lon="-2.3714690">
        <ele>992.6</ele>
        <time>2019-07-06T12:59:30Z</time>
      </trkpt>
      <trkpt lat="40.7132430" lon="-2.3715750">
        <ele>992.0</ele>
        <time>2019-07-06T12:59:32Z</time>
      </trkpt>
      <trkpt lat="40.7133390" lon="-2.3717310">
        <ele>990.8</ele>
        <time>2019-07-06T12:59:35Z</time>
      </trkpt>
      <trkpt lat="40.7133740" lon="-2.3717840">
        <ele>990.0</ele>
        <time>2019-07-06T12:59:36Z</time>
      </trkpt>
      <trkpt lat="40.7134090" lon="-2.3718290">
        <ele>989.4</ele>
        <time>2019-07-06T12:59:37Z</time>
      </trkpt>
      <trkpt lat="40.7134430" lon="-2.3718690">
        <ele>988.2</ele>
        <time>2019-07-06T12:59:38Z</time>
      </trkpt>
      <trkpt lat="40.7135240" lon="-2.3719460">
        <ele>987.0</ele>
        <time>2019-07-06T12:59:40Z</time>
      </trkpt>
      <trkpt lat="40.7135640" lon="-2.3719850">
        <ele>986.8</ele>
        <time>2019-07-06T12:59:41Z</time>
      </trkpt>
      <trkpt lat="40.7136090" lon="-2.3720210">
        <ele>986.4</ele>
        <time>2019-07-06T12:59:42Z</time>
      </trkpt>
      <trkpt lat="40.7137020" lon="-2.3721010">
        <ele>985.6</ele>
        <time>2019-07-06T12:59:44Z</time>
      </trkpt>
      <trkpt lat="40.7137440" lon="-2.3721530">
        <ele>985.2</ele>
        <time>2019-07-06T12:59:45Z</time>
      </trkpt>
      <trkpt lat="40.7138180" lon="-2.3722720">
        <ele>984.6</ele>
        <time>2019-07-06T12:59:47Z</time>
      </trkpt>
      <trkpt lat="40.7138560" lon="-2.3723250">
        <ele>984.0</ele>
        <time>2019-07-06T12:59:48Z</time>
      </trkpt>
      <trkpt lat="40.7138920" lon="-2.3723680">
        <ele>983.4</ele>
        <time>2019-07-06T12:59:49Z</time>
      </trkpt>
      <trkpt lat="40.7139290" lon="-2.3724250">
        <ele>983.2</ele>
        <time>2019-07-06T12:59:50Z</time>
      </trkpt>
      <trkpt lat="40.7140070" lon="-2.3725580">
        <ele>982.2</ele>
        <time>2019-07-06T12:59:52Z</time>
      </trkpt>
      <trkpt lat="40.7140430" lon="-2.3726180">
        <ele>981.8</ele>
        <time>2019-07-06T12:59:53Z</time>
      </trkpt>
      <trkpt lat="40.7141270" lon="-2.3727260">
        <ele>981.0</ele>
        <time>2019-07-06T12:59:55Z</time>
      </trkpt>
      <trkpt lat="40.7141610" lon="-2.3727850">
        <ele>980.6</ele>
        <time>2019-07-06T12:59:56Z</time>
      </trkpt>
      <trkpt lat="40.7142540" lon="-2.3729810">
        <ele>979.6</ele>
        <time>2019-07-06T12:59:59Z</time>
      </trkpt>
      <trkpt lat="40.7142870" lon="-2.3730560">
        <ele>978.8</ele>
        <time>2019-07-06T13:00:00Z</time>
      </trkpt>
      <trkpt lat="40.7143140" lon="-2.3731360">
        <ele>978.2</ele>
        <time>2019-07-06T13:00:01Z</time>
      </trkpt>
      <trkpt lat="40.7144200" lon="-2.3734370">
        <ele>977.6</ele>
        <time>2019-07-06T13:00:05Z</time>
      </trkpt>
      <trkpt lat="40.7145730" lon="-2.3736410">
        <ele>976.8</ele>
        <time>2019-07-06T13:00:09Z</time>
      </trkpt>
      <trkpt lat="40.7146080" lon="-2.3737000">
        <ele>976.4</ele>
        <time>2019-07-06T13:00:10Z</time>
      </trkpt>
      <trkpt lat="40.7146430" lon="-2.3737660">
        <ele>976.0</ele>
        <time>2019-07-06T13:00:11Z</time>
      </trkpt>
      <trkpt lat="40.7146790" lon="-2.3738340">
        <ele>975.6</ele>
        <time>2019-07-06T13:00:12Z</time>
      </trkpt>
      <trkpt lat="40.7147160" lon="-2.3738960">
        <ele>975.4</ele>
        <time>2019-07-06T13:00:13Z</time>
      </trkpt>
      <trkpt lat="40.7147940" lon="-2.3739930">
        <ele>974.8</ele>
        <time>2019-07-06T13:00:15Z</time>
      </trkpt>
      <trkpt lat="40.7148340" lon="-2.3740360">
        <ele>974.4</ele>
        <time>2019-07-06T13:00:16Z</time>
      </trkpt>
      <trkpt lat="40.7149150" lon="-2.3741110">
        <ele>973.0</ele>
        <time>2019-07-06T13:00:18Z</time>
      </trkpt>
      <trkpt lat="40.7150010" lon="-2.3741730">
        <ele>972.2</ele>
        <time>2019-07-06T13:00:20Z</time>
      </trkpt>
      <trkpt lat="40.7150470" lon="-2.3742050">
        <ele>972.0</ele>
        <time>2019-07-06T13:00:21Z</time>
      </trkpt>
      <trkpt lat="40.7150950" lon="-2.3742400">
        <ele>971.8</ele>
        <time>2019-07-06T13:00:22Z</time>
      </trkpt>
      <trkpt lat="40.7151890" lon="-2.3743060">
        <ele>970.8</ele>
        <time>2019-07-06T13:00:24Z</time>
      </trkpt>
      <trkpt lat="40.7152340" lon="-2.3743340">
        <ele>970.4</ele>
        <time>2019-07-06T13:00:25Z</time>
      </trkpt>
      <trkpt lat="40.7152790" lon="-2.3743590">
        <ele>970.2</ele>
        <time>2019-07-06T13:00:26Z</time>
      </trkpt>
      <trkpt lat="40.7153810" lon="-2.3744000">
        <ele>969.8</ele>
        <time>2019-07-06T13:00:28Z</time>
      </trkpt>
      <trkpt lat="40.7154290" lon="-2.3744230">
        <ele>969.4</ele>
        <time>2019-07-06T13:00:29Z</time>
      </trkpt>
      <trkpt lat="40.7155480" lon="-2.3745340">
        <ele>968.6</ele>
        <time>2019-07-06T13:00:32Z</time>
      </trkpt>
      <trkpt lat="40.7156270" lon="-2.3746200">
        <ele>967.4</ele>
        <time>2019-07-06T13:00:34Z</time>
      </trkpt>
      <trkpt lat="40.7156990" lon="-2.3746880">
        <ele>966.0</ele>
        <time>2019-07-06T13:00:36Z</time>
      </trkpt>
      <trkpt lat="40.7157510" lon="-2.3747500">
        <ele>965.2</ele>
        <time>2019-07-06T13:00:38Z</time>
      </trkpt>
      <trkpt lat="40.7157720" lon="-2.3747950">
        <ele>965.0</ele>
        <time>2019-07-06T13:00:39Z</time>
      </trkpt>
      <trkpt lat="40.7157990" lon="-2.3748500">
        <ele>964.8</ele>
        <time>2019-07-06T13:00:40Z</time>
      </trkpt>
      <trkpt lat="40.7158230" lon="-2.3749070">
        <ele>964.4</ele>
        <time>2019-07-06T13:00:41Z</time>
      </trkpt>
      <trkpt lat="40.7158770" lon="-2.3750760">
        <ele>963.8</ele>
        <time>2019-07-06T13:00:44Z</time>
      </trkpt>
      <trkpt lat="40.7159280" lon="-2.3751660">
        <ele>963.4</ele>
        <time>2019-07-06T13:00:46Z</time>
      </trkpt>
      <trkpt lat="40.7159850" lon="-2.3752620">
        <ele>962.4</ele>
        <time>2019-07-06T13:00:48Z</time>
      </trkpt>
      <trkpt lat="40.7160180" lon="-2.3753070">
        <ele>961.8</ele>
        <time>2019-07-06T13:00:49Z</time>
      </trkpt>
      <trkpt lat="40.7160530" lon="-2.3753530">
        <ele>960.8</ele>
        <time>2019-07-06T13:00:50Z</time>
      </trkpt>
      <trkpt lat="40.7160910" lon="-2.3753970">
        <ele>960.0</ele>
        <time>2019-07-06T13:00:51Z</time>
      </trkpt>
      <trkpt lat="40.7161290" lon="-2.3754360">
        <ele>959.6</ele>
        <time>2019-07-06T13:00:52Z</time>
      </trkpt>
      <trkpt lat="40.7162160" lon="-2.3755080">
        <ele>958.2</ele>
        <time>2019-07-06T13:00:54Z</time>
      </trkpt>
      <trkpt lat="40.7162950" lon="-2.3755720">
        <ele>957.4</ele>
        <time>2019-07-06T13:00:56Z</time>
      </trkpt>
      <trkpt lat="40.7163380" lon="-2.3756040">
        <ele>957.2</ele>
        <time>2019-07-06T13:00:57Z</time>
      </trkpt>
      <trkpt lat="40.7164360" lon="-2.3756690">
        <ele>956.0</ele>
        <time>2019-07-06T13:00:59Z</time>
      </trkpt>
      <trkpt lat="40.7165130" lon="-2.3757380">
        <ele>955.4</ele>
        <time>2019-07-06T13:01:01Z</time>
      </trkpt>
      <trkpt lat="40.7165550" lon="-2.3757950">
        <ele>955.2</ele>
        <time>2019-07-06T13:01:02Z</time>
      </trkpt>
      <trkpt lat="40.7165900" lon="-2.3758510">
        <ele>954.6</ele>
        <time>2019-07-06T13:01:03Z</time>
      </trkpt>
      <trkpt lat="40.7166210" lon="-2.3759170">
        <ele>954.0</ele>
        <time>2019-07-06T13:01:04Z</time>
      </trkpt>
      <trkpt lat="40.7166530" lon="-2.3759890">
        <ele>953.6</ele>
        <time>2019-07-06T13:01:05Z</time>
      </trkpt>
      <trkpt lat="40.7166890" lon="-2.3760620">
        <ele>953.2</ele>
        <time>2019-07-06T13:01:06Z</time>
      </trkpt>
      <trkpt lat="40.7167210" lon="-2.3761350">
        <ele>952.2</ele>
        <time>2019-07-06T13:01:07Z</time>
      </trkpt>
      <trkpt lat="40.7168280" lon="-2.3763350">
        <ele>952.0</ele>
        <time>2019-07-06T13:01:10Z</time>
      </trkpt>
      <trkpt lat="40.7169020" lon="-2.3764430">
        <ele>951.0</ele>
        <time>2019-07-06T13:01:12Z</time>
      </trkpt>
      <trkpt lat="40.7169400" lon="-2.3764940">
        <ele>950.0</ele>
        <time>2019-07-06T13:01:13Z</time>
      </trkpt>
      <trkpt lat="40.7169800" lon="-2.3765390">
        <ele>949.4</ele>
        <time>2019-07-06T13:01:14Z</time>
      </trkpt>
      <trkpt lat="40.7170570" lon="-2.3766350">
        <ele>948.8</ele>
        <time>2019-07-06T13:01:16Z</time>
      </trkpt>
      <trkpt lat="40.7171680" lon="-2.3768180">
        <ele>948.4</ele>
        <time>2019-07-06T13:01:19Z</time>
      </trkpt>
      <trkpt lat="40.7172450" lon="-2.3769600">
        <ele>947.4</ele>
        <time>2019-07-06T13:01:21Z</time>
      </trkpt>
      <trkpt lat="40.7172850" lon="-2.3770330">
        <ele>946.8</ele>
        <time>2019-07-06T13:01:22Z</time>
      </trkpt>
      <trkpt lat="40.7173630" lon="-2.3771820">
        <ele>945.6</ele>
        <time>2019-07-06T13:01:24Z</time>
      </trkpt>
      <trkpt lat="40.7174350" lon="-2.3773250">
        <ele>945.0</ele>
        <time>2019-07-06T13:01:26Z</time>
      </trkpt>
      <trkpt lat="40.7175130" lon="-2.3774670">
        <ele>944.6</ele>
        <time>2019-07-06T13:01:28Z</time>
      </trkpt>
      <trkpt lat="40.7176300" lon="-2.3776540">
        <ele>943.6</ele>
        <time>2019-07-06T13:01:31Z</time>
      </trkpt>
      <trkpt lat="40.7176490" lon="-2.3777210">
        <ele>943.2</ele>
        <time>2019-07-06T13:01:32Z</time>
      </trkpt>
      <trkpt lat="40.7176560" lon="-2.3778560">
        <ele>943.0</ele>
        <time>2019-07-06T13:01:34Z</time>
      </trkpt>
      <trkpt lat="40.7176540" lon="-2.3779270">
        <ele>943.0</ele>
        <time>2019-07-06T13:01:35Z</time>
      </trkpt>
      <trkpt lat="40.7176460" lon="-2.3780760">
        <ele>942.8</ele>
        <time>2019-07-06T13:01:37Z</time>
      </trkpt>
      <trkpt lat="40.7176370" lon="-2.3781530">
        <ele>942.6</ele>
        <time>2019-07-06T13:01:38Z</time>
      </trkpt>
      <trkpt lat="40.7176210" lon="-2.3782320">
        <ele>942.4</ele>
        <time>2019-07-06T13:01:39Z</time>
      </trkpt>
      <trkpt lat="40.7175980" lon="-2.3783090">
        <ele>942.2</ele>
        <time>2019-07-06T13:01:40Z</time>
      </trkpt>
      <trkpt lat="40.7174910" lon="-2.3785170">
        <ele>941.4</ele>
        <time>2019-07-06T13:01:43Z</time>
      </trkpt>
      <trkpt lat="40.7172910" lon="-2.3788750">
        <ele>941.4</ele>
        <time>2019-07-06T13:01:48Z</time>
      </trkpt>
      <trkpt lat="40.7172550" lon="-2.3789530">
        <ele>941.2</ele>
        <time>2019-07-06T13:01:49Z</time>
      </trkpt>
      <trkpt lat="40.7171130" lon="-2.3792640">
        <ele>940.4</ele>
        <time>2019-07-06T13:01:53Z</time>
      </trkpt>
      <trkpt lat="40.7170280" lon="-2.3794010">
        <ele>939.2</ele>
        <time>2019-07-06T13:01:55Z</time>
      </trkpt>
      <trkpt lat="40.7168220" lon="-2.3795990">
        <ele>938.4</ele>
        <time>2019-07-06T13:01:59Z</time>
      </trkpt>
      <trkpt lat="40.7166670" lon="-2.3798240">
        <ele>938.2</ele>
        <time>2019-07-06T13:02:03Z</time>
      </trkpt>
      <trkpt lat="40.7166630" lon="-2.3798920">
        <ele>937.8</ele>
        <time>2019-07-06T13:02:04Z</time>
      </trkpt>
      <trkpt lat="40.7166930" lon="-2.3800190">
        <ele>937.2</ele>
        <time>2019-07-06T13:02:06Z</time>
      </trkpt>
      <trkpt lat="40.7167180" lon="-2.3800790">
        <ele>937.0</ele>
        <time>2019-07-06T13:02:07Z</time>
      </trkpt>
      <trkpt lat="40.7167420" lon="-2.3801390">
        <ele>937.0</ele>
        <time>2019-07-06T13:02:08Z</time>
      </trkpt>
      <trkpt lat="40.7167880" lon="-2.3802600">
        <ele>936.6</ele>
        <time>2019-07-06T13:02:10Z</time>
      </trkpt>
      <trkpt lat="40.7168070" lon="-2.3803230">
        <ele>936.2</ele>
        <time>2019-07-06T13:02:11Z</time>
      </trkpt>
      <trkpt lat="40.7168250" lon="-2.3803920">
        <ele>935.8</ele>
        <time>2019-07-06T13:02:12Z</time>
      </trkpt>
      <trkpt lat="40.7168560" lon="-2.3805290">
        <ele>935.6</ele>
        <time>2019-07-06T13:02:14Z</time>
      </trkpt>
      <trkpt lat="40.7168560" lon="-2.3807410">
        <ele>935.0</ele>
        <time>2019-07-06T13:02:17Z</time>
      </trkpt>
      <trkpt lat="40.7168390" lon="-2.3808130">
        <ele>935.0</ele>
        <time>2019-07-06T13:02:18Z</time>
      </trkpt>
      <trkpt lat="40.7168190" lon="-2.3808800">
        <ele>934.8</ele>
        <time>2019-07-06T13:02:19Z</time>
      </trkpt>
      <trkpt lat="40.7167950" lon="-2.3810310">
        <ele>933.6</ele>
        <time>2019-07-06T13:02:21Z</time>
      </trkpt>
      <trkpt lat="40.7167850" lon="-2.3812020">
        <ele>932.6</ele>
        <time>2019-07-06T13:02:23Z</time>
      </trkpt>
      <trkpt lat="40.7167770" lon="-2.3812900">
        <ele>932.2</ele>
        <time>2019-07-06T13:02:24Z</time>
      </trkpt>
      <trkpt lat="40.7167620" lon="-2.3814780">
        <ele>931.6</ele>
        <time>2019-07-06T13:02:26Z</time>
      </trkpt>
      <trkpt lat="40.7167400" lon="-2.3817190">
        <ele>930.6</ele>
        <time>2019-07-06T13:02:29Z</time>
      </trkpt>
      <trkpt lat="40.7167330" lon="-2.3817940">
        <ele>930.4</ele>
        <time>2019-07-06T13:02:30Z</time>
      </trkpt>
      <trkpt lat="40.7167260" lon="-2.3818710">
        <ele>930.2</ele>
        <time>2019-07-06T13:02:31Z</time>
      </trkpt>
      <trkpt lat="40.7167070" lon="-2.3820280">
        <ele>929.0</ele>
        <time>2019-07-06T13:02:33Z</time>
      </trkpt>
      <trkpt lat="40.7166960" lon="-2.3821820">
        <ele>927.4</ele>
        <time>2019-07-06T13:02:35Z</time>
      </trkpt>
      <trkpt lat="40.7166980" lon="-2.3822690">
        <ele>927.0</ele>
        <time>2019-07-06T13:02:36Z</time>
      </trkpt>
      <trkpt lat="40.7167060" lon="-2.3823550">
        <ele>926.4</ele>
        <time>2019-07-06T13:02:37Z</time>
      </trkpt>
      <trkpt lat="40.7167100" lon="-2.3824300">
        <ele>926.0</ele>
        <time>2019-07-06T13:02:38Z</time>
      </trkpt>
      <trkpt lat="40.7166970" lon="-2.3825760">
        <ele>925.4</ele>
        <time>2019-07-06T13:02:40Z</time>
      </trkpt>
      <trkpt lat="40.7166780" lon="-2.3826500">
        <ele>925.2</ele>
        <time>2019-07-06T13:02:41Z</time>
      </trkpt>
      <trkpt lat="40.7166560" lon="-2.3827260">
        <ele>925.2</ele>
        <time>2019-07-06T13:02:42Z</time>
      </trkpt>
      <trkpt lat="40.7166220" lon="-2.3828740">
        <ele>924.6</ele>
        <time>2019-07-06T13:02:44Z</time>
      </trkpt>
      <trkpt lat="40.7166160" lon="-2.3829440">
        <ele>924.2</ele>
        <time>2019-07-06T13:02:45Z</time>
      </trkpt>
      <trkpt lat="40.7166580" lon="-2.3831640">
        <ele>922.6</ele>
        <time>2019-07-06T13:02:48Z</time>
      </trkpt>
      <trkpt lat="40.7166900" lon="-2.3833770">
        <ele>921.4</ele>
        <time>2019-07-06T13:02:51Z</time>
      </trkpt>
      <trkpt lat="40.7166890" lon="-2.3834460">
        <ele>920.8</ele>
        <time>2019-07-06T13:02:52Z</time>
      </trkpt>
      <trkpt lat="40.7166900" lon="-2.3835070">
        <ele>920.6</ele>
        <time>2019-07-06T13:02:53Z</time>
      </trkpt>
      <trkpt lat="40.7167020" lon="-2.3835690">
        <ele>920.0</ele>
        <time>2019-07-06T13:02:54Z</time>
      </trkpt>
      <trkpt lat="40.7167270" lon="-2.3836310">
        <ele>919.8</ele>
        <time>2019-07-06T13:02:55Z</time>
      </trkpt>
      <trkpt lat="40.7168020" lon="-2.3837530">
        <ele>919.0</ele>
        <time>2019-07-06T13:02:57Z</time>
      </trkpt>
      <trkpt lat="40.7168890" lon="-2.3838760">
        <ele>918.2</ele>
        <time>2019-07-06T13:02:59Z</time>
      </trkpt>
      <trkpt lat="40.7169290" lon="-2.3839430">
        <ele>917.8</ele>
        <time>2019-07-06T13:03:00Z</time>
      </trkpt>
      <trkpt lat="40.7169630" lon="-2.3840100">
        <ele>917.4</ele>
        <time>2019-07-06T13:03:01Z</time>
      </trkpt>
      <trkpt lat="40.7170260" lon="-2.3842340">
        <ele>916.4</ele>
        <time>2019-07-06T13:03:04Z</time>
      </trkpt>
      <trkpt lat="40.7170290" lon="-2.3843230">
        <ele>916.0</ele>
        <time>2019-07-06T13:03:05Z</time>
      </trkpt>
      <trkpt lat="40.7170310" lon="-2.3845220">
        <ele>914.8</ele>
        <time>2019-07-06T13:03:07Z</time>
      </trkpt>
      <trkpt lat="40.7170320" lon="-2.3847210">
        <ele>913.6</ele>
        <time>2019-07-06T13:03:09Z</time>
      </trkpt>
      <trkpt lat="40.7170200" lon="-2.3849080">
        <ele>912.0</ele>
        <time>2019-07-06T13:03:11Z</time>
      </trkpt>
      <trkpt lat="40.7170070" lon="-2.3849990">
        <ele>911.4</ele>
        <time>2019-07-06T13:03:12Z</time>
      </trkpt>
      <trkpt lat="40.7169900" lon="-2.3850790">
        <ele>911.0</ele>
        <time>2019-07-06T13:03:13Z</time>
      </trkpt>
      <trkpt lat="40.7169670" lon="-2.3851440">
        <ele>910.8</ele>
        <time>2019-07-06T13:03:14Z</time>
      </trkpt>
      <trkpt lat="40.7168990" lon="-2.3852270">
        <ele>910.2</ele>
        <time>2019-07-06T13:03:16Z</time>
      </trkpt>
      <trkpt lat="40.7168560" lon="-2.3852460">
        <ele>909.8</ele>
        <time>2019-07-06T13:03:17Z</time>
      </trkpt>
      <trkpt lat="40.7167590" lon="-2.3852350">
        <ele>909.0</ele>
        <time>2019-07-06T13:03:19Z</time>
      </trkpt>
      <trkpt lat="40.7167060" lon="-2.3852240">
        <ele>908.6</ele>
        <time>2019-07-06T13:03:20Z</time>
      </trkpt>
      <trkpt lat="40.7165940" lon="-2.3852020">
        <ele>908.2</ele>
        <time>2019-07-06T13:03:22Z</time>
      </trkpt>
      <trkpt lat="40.7164680" lon="-2.3851760">
        <ele>907.6</ele>
        <time>2019-07-06T13:03:24Z</time>
      </trkpt>
      <trkpt lat="40.7164030" lon="-2.3851600">
        <ele>907.4</ele>
        <time>2019-07-06T13:03:25Z</time>
      </trkpt>
      <trkpt lat="40.7161990" lon="-2.3851060">
        <ele>907.0</ele>
        <time>2019-07-06T13:03:28Z</time>
      </trkpt>
      <trkpt lat="40.7160640" lon="-2.3850470">
        <ele>906.6</ele>
        <time>2019-07-06T13:03:30Z</time>
      </trkpt>
      <trkpt lat="40.7159980" lon="-2.3850200">
        <ele>906.2</ele>
        <time>2019-07-06T13:03:31Z</time>
      </trkpt>
      <trkpt lat="40.7159320" lon="-2.3850040">
        <ele>906.0</ele>
        <time>2019-07-06T13:03:32Z</time>
      </trkpt>
      <trkpt lat="40.7158150" lon="-2.3850210">
        <ele>905.8</ele>
        <time>2019-07-06T13:03:34Z</time>
      </trkpt>
      <trkpt lat="40.7156920" lon="-2.3851450">
        <ele>905.4</ele>
        <time>2019-07-06T13:03:37Z</time>
      </trkpt>
      <trkpt lat="40.7156700" lon="-2.3853330">
        <ele>904.8</ele>
        <time>2019-07-06T13:03:40Z</time>
      </trkpt>
      <trkpt lat="40.7156980" lon="-2.3854670">
        <ele>904.4</ele>
        <time>2019-07-06T13:03:42Z</time>
      </trkpt>
      <trkpt lat="40.7157190" lon="-2.3855340">
        <ele>904.4</ele>
        <time>2019-07-06T13:03:43Z</time>
      </trkpt>
      <trkpt lat="40.7157640" lon="-2.3856640">
        <ele>904.2</ele>
        <time>2019-07-06T13:03:45Z</time>
      </trkpt>
      <trkpt lat="40.7157830" lon="-2.3857380">
        <ele>904.2</ele>
        <time>2019-07-06T13:03:46Z</time>
      </trkpt>
      <trkpt lat="40.7157910" lon="-2.3859700">
        <ele>904.0</ele>
        <time>2019-07-06T13:03:49Z</time>
      </trkpt>
      <trkpt lat="40.7157750" lon="-2.3862180">
        <ele>903.6</ele>
        <time>2019-07-06T13:03:52Z</time>
      </trkpt>
      <trkpt lat="40.7157820" lon="-2.3863030">
        <ele>903.6</ele>
        <time>2019-07-06T13:03:53Z</time>
      </trkpt>
      <trkpt lat="40.7157980" lon="-2.3863860">
        <ele>903.4</ele>
        <time>2019-07-06T13:03:54Z</time>
      </trkpt>
      <trkpt lat="40.7158350" lon="-2.3866470">
        <ele>903.0</ele>
        <time>2019-07-06T13:03:57Z</time>
      </trkpt>
      <trkpt lat="40.7158340" lon="-2.3868170">
        <ele>902.8</ele>
        <time>2019-07-06T13:03:59Z</time>
      </trkpt>
      <trkpt lat="40.7158240" lon="-2.3869880">
        <ele>902.4</ele>
        <time>2019-07-06T13:04:01Z</time>
      </trkpt>
      <trkpt lat="40.7158320" lon="-2.3873090">
        <ele>903.4</ele>
        <time>2019-07-06T13:04:05Z</time>
      </trkpt>
      <trkpt lat="40.7158240" lon="-2.3874430">
        <ele>903.6</ele>
        <time>2019-07-06T13:04:07Z</time>
      </trkpt>
      <trkpt lat="40.7157810" lon="-2.3875650">
        <ele>903.8</ele>
        <time>2019-07-06T13:04:09Z</time>
      </trkpt>
      <trkpt lat="40.7157150" lon="-2.3876680">
        <ele>903.8</ele>
        <time>2019-07-06T13:04:11Z</time>
      </trkpt>
      <trkpt lat="40.7156480" lon="-2.3877790">
        <ele>903.8</ele>
        <time>2019-07-06T13:04:13Z</time>
      </trkpt>
      <trkpt lat="40.7156180" lon="-2.3878380">
        <ele>904.0</ele>
        <time>2019-07-06T13:04:14Z</time>
      </trkpt>
      <trkpt lat="40.7155820" lon="-2.3878930">
        <ele>904.2</ele>
        <time>2019-07-06T13:04:15Z</time>
      </trkpt>
      <trkpt lat="40.7154520" lon="-2.3880110">
        <ele>904.2</ele>
        <time>2019-07-06T13:04:18Z</time>
      </trkpt>
      <trkpt lat="40.7153470" lon="-2.3880780">
        <ele>904.0</ele>
        <time>2019-07-06T13:04:20Z</time>
      </trkpt>
      <trkpt lat="40.7151300" lon="-2.3882360">
        <ele>903.2</ele>
        <time>2019-07-06T13:04:24Z</time>
      </trkpt>
      <trkpt lat="40.7150810" lon="-2.3882900">
        <ele>902.8</ele>
        <time>2019-07-06T13:04:25Z</time>
      </trkpt>
      <trkpt lat="40.7150410" lon="-2.3883560">
        <ele>902.8</ele>
        <time>2019-07-06T13:04:26Z</time>
      </trkpt>
      <trkpt lat="40.7150100" lon="-2.3884240">
        <ele>902.6</ele>
        <time>2019-07-06T13:04:27Z</time>
      </trkpt>
      <trkpt lat="40.7149820" lon="-2.3886380">
        <ele>902.2</ele>
        <time>2019-07-06T13:04:30Z</time>
      </trkpt>
      <trkpt lat="40.7150460" lon="-2.3888370">
        <ele>901.4</ele>
        <time>2019-07-06T13:04:33Z</time>
      </trkpt>
      <trkpt lat="40.7150880" lon="-2.3888800">
        <ele>901.2</ele>
        <time>2019-07-06T13:04:34Z</time>
      </trkpt>
      <trkpt lat="40.7151850" lon="-2.3889270">
        <ele>900.8</ele>
        <time>2019-07-06T13:04:36Z</time>
      </trkpt>
      <trkpt lat="40.7152800" lon="-2.3889590">
        <ele>900.4</ele>
        <time>2019-07-06T13:04:38Z</time>
      </trkpt>
      <trkpt lat="40.7153730" lon="-2.3889940">
        <ele>900.6</ele>
        <time>2019-07-06T13:04:40Z</time>
      </trkpt>
      <trkpt lat="40.7155600" lon="-2.3890950">
        <ele>901.4</ele>
        <time>2019-07-06T13:04:44Z</time>
      </trkpt>
      <trkpt lat="40.7156060" lon="-2.3891260">
        <ele>901.2</ele>
        <time>2019-07-06T13:04:45Z</time>
      </trkpt>
      <trkpt lat="40.7157910" lon="-2.3892770">
        <ele>901.0</ele>
        <time>2019-07-06T13:04:49Z</time>
      </trkpt>
      <trkpt lat="40.7158330" lon="-2.3893290">
        <ele>901.0</ele>
        <time>2019-07-06T13:04:50Z</time>
      </trkpt>
      <trkpt lat="40.7158620" lon="-2.3895170">
        <ele>900.6</ele>
        <time>2019-07-06T13:04:53Z</time>
      </trkpt>
      <trkpt lat="40.7158100" lon="-2.3896480">
        <ele>900.4</ele>
        <time>2019-07-06T13:04:55Z</time>
      </trkpt>
      <trkpt lat="40.7157410" lon="-2.3897870">
        <ele>899.8</ele>
        <time>2019-07-06T13:04:57Z</time>
      </trkpt>
      <trkpt lat="40.7157000" lon="-2.3898520">
        <ele>899.4</ele>
        <time>2019-07-06T13:04:58Z</time>
      </trkpt>
      <trkpt lat="40.7156560" lon="-2.3899080">
        <ele>898.4</ele>
        <time>2019-07-06T13:04:59Z</time>
      </trkpt>
      <trkpt lat="40.7155600" lon="-2.3899990">
        <ele>897.2</ele>
        <time>2019-07-06T13:05:01Z</time>
      </trkpt>
      <trkpt lat="40.7155140" lon="-2.3900390">
        <ele>897.0</ele>
        <time>2019-07-06T13:05:02Z</time>
      </trkpt>
      <trkpt lat="40.7154720" lon="-2.3900830">
        <ele>896.4</ele>
        <time>2019-07-06T13:05:03Z</time>
      </trkpt>
      <trkpt lat="40.7154380" lon="-2.3901350">
        <ele>895.8</ele>
        <time>2019-07-06T13:05:04Z</time>
      </trkpt>
      <trkpt lat="40.7154110" lon="-2.3901920">
        <ele>895.4</ele>
        <time>2019-07-06T13:05:05Z</time>
      </trkpt>
      <trkpt lat="40.7153910" lon="-2.3903130">
        <ele>894.6</ele>
        <time>2019-07-06T13:05:07Z</time>
      </trkpt>
      <trkpt lat="40.7153960" lon="-2.3903780">
        <ele>894.4</ele>
        <time>2019-07-06T13:05:08Z</time>
      </trkpt>
      <trkpt lat="40.7154240" lon="-2.3905080">
        <ele>893.8</ele>
        <time>2019-07-06T13:05:10Z</time>
      </trkpt>
      <trkpt lat="40.7154410" lon="-2.3905740">
        <ele>893.6</ele>
        <time>2019-07-06T13:05:11Z</time>
      </trkpt>
      <trkpt lat="40.7154740" lon="-2.3907030">
        <ele>892.6</ele>
        <time>2019-07-06T13:05:13Z</time>
      </trkpt>
      <trkpt lat="40.7154980" lon="-2.3907640">
        <ele>892.2</ele>
        <time>2019-07-06T13:05:14Z</time>
      </trkpt>
      <trkpt lat="40.7155640" lon="-2.3908610">
        <ele>891.4</ele>
        <time>2019-07-06T13:05:16Z</time>
      </trkpt>
      <trkpt lat="40.7156070" lon="-2.3908950">
        <ele>891.0</ele>
        <time>2019-07-06T13:05:17Z</time>
      </trkpt>
      <trkpt lat="40.7157640" lon="-2.3909390">
        <ele>890.4</ele>
        <time>2019-07-06T13:05:20Z</time>
      </trkpt>
      <trkpt lat="40.7158220" lon="-2.3909530">
        <ele>890.0</ele>
        <time>2019-07-06T13:05:21Z</time>
      </trkpt>
      <trkpt lat="40.7160010" lon="-2.3910190">
        <ele>889.0</ele>
        <time>2019-07-06T13:05:24Z</time>
      </trkpt>
      <trkpt lat="40.7160970" lon="-2.3910830">
        <ele>888.2</ele>
        <time>2019-07-06T13:05:26Z</time>
      </trkpt>
      <trkpt lat="40.7161360" lon="-2.3911290">
        <ele>887.8</ele>
        <time>2019-07-06T13:05:27Z</time>
      </trkpt>
      <trkpt lat="40.7161890" lon="-2.3912610">
        <ele>887.4</ele>
        <time>2019-07-06T13:05:29Z</time>
      </trkpt>
      <trkpt lat="40.7162050" lon="-2.3913370">
        <ele>887.2</ele>
        <time>2019-07-06T13:05:30Z</time>
      </trkpt>
      <trkpt lat="40.7162200" lon="-2.3914170">
        <ele>887.0</ele>
        <time>2019-07-06T13:05:31Z</time>
      </trkpt>
      <trkpt lat="40.7162320" lon="-2.3914960">
        <ele>886.2</ele>
        <time>2019-07-06T13:05:32Z</time>
      </trkpt>
      <trkpt lat="40.7162370" lon="-2.3915670">
        <ele>885.6</ele>
        <time>2019-07-06T13:05:33Z</time>
      </trkpt>
      <trkpt lat="40.7162370" lon="-2.3916280">
        <ele>884.6</ele>
        <time>2019-07-06T13:05:34Z</time>
      </trkpt>
      <trkpt lat="40.7162300" lon="-2.3916830">
        <ele>884.2</ele>
        <time>2019-07-06T13:05:35Z</time>
      </trkpt>
      <trkpt lat="40.7161820" lon="-2.3917740">
        <ele>884.0</ele>
        <time>2019-07-06T13:05:37Z</time>
      </trkpt>
      <trkpt lat="40.7161030" lon="-2.3918420">
        <ele>884.2</ele>
        <time>2019-07-06T13:05:39Z</time>
      </trkpt>
      <trkpt lat="40.7160570" lon="-2.3918720">
        <ele>884.2</ele>
        <time>2019-07-06T13:05:40Z</time>
      </trkpt>
      <trkpt lat="40.7160070" lon="-2.3918990">
        <ele>884.2</ele>
        <time>2019-07-06T13:05:41Z</time>
      </trkpt>
      <trkpt lat="40.7159040" lon="-2.3919540">
        <ele>883.2</ele>
        <time>2019-07-06T13:05:43Z</time>
      </trkpt>
      <trkpt lat="40.7158510" lon="-2.3919820">
        <ele>883.0</ele>
        <time>2019-07-06T13:05:44Z</time>
      </trkpt>
      <trkpt lat="40.7155730" lon="-2.3921310">
        <ele>882.0</ele>
        <time>2019-07-06T13:05:49Z</time>
      </trkpt>
      <trkpt lat="40.7153950" lon="-2.3922210">
        <ele>881.8</ele>
        <time>2019-07-06T13:05:52Z</time>
      </trkpt>
      <trkpt lat="40.7152640" lon="-2.3922290">
        <ele>881.6</ele>
        <time>2019-07-06T13:05:54Z</time>
      </trkpt>
      <trkpt lat="40.7151970" lon="-2.3922130">
        <ele>881.2</ele>
        <time>2019-07-06T13:05:55Z</time>
      </trkpt>
      <trkpt lat="40.7151310" lon="-2.3921930">
        <ele>881.0</ele>
        <time>2019-07-06T13:05:56Z</time>
      </trkpt>
      <trkpt lat="40.7150610" lon="-2.3921770">
        <ele>880.8</ele>
        <time>2019-07-06T13:05:57Z</time>
      </trkpt>
      <trkpt lat="40.7149240" lon="-2.3921870">
        <ele>880.4</ele>
        <time>2019-07-06T13:05:59Z</time>
      </trkpt>
      <trkpt lat="40.7148650" lon="-2.3922220">
        <ele>880.2</ele>
        <time>2019-07-06T13:06:00Z</time>
      </trkpt>
      <trkpt lat="40.7147660" lon="-2.3923210">
        <ele>879.8</ele>
        <time>2019-07-06T13:06:02Z</time>
      </trkpt>
      <trkpt lat="40.7147170" lon="-2.3923680">
        <ele>880.0</ele>
        <time>2019-07-06T13:06:03Z</time>
      </trkpt>
      <trkpt lat="40.7146160" lon="-2.3924520">
        <ele>880.0</ele>
        <time>2019-07-06T13:06:05Z</time>
      </trkpt>
      <trkpt lat="40.7145280" lon="-2.3925560">
        <ele>879.8</ele>
        <time>2019-07-06T13:06:07Z</time>
      </trkpt>
      <trkpt lat="40.7144880" lon="-2.3926120">
        <ele>879.8</ele>
        <time>2019-07-06T13:06:08Z</time>
      </trkpt>
      <trkpt lat="40.7144100" lon="-2.3927350">
        <ele>879.8</ele>
        <time>2019-07-06T13:06:10Z</time>
      </trkpt>
      <trkpt lat="40.7143510" lon="-2.3928730">
        <ele>879.4</ele>
        <time>2019-07-06T13:06:12Z</time>
      </trkpt>
      <trkpt lat="40.7143690" lon="-2.3930880">
        <ele>879.4</ele>
        <time>2019-07-06T13:06:15Z</time>
      </trkpt>
      <trkpt lat="40.7144090" lon="-2.3931390">
        <ele>879.0</ele>
        <time>2019-07-06T13:06:16Z</time>
      </trkpt>
      <trkpt lat="40.7145040" lon="-2.3932160">
        <ele>878.8</ele>
        <time>2019-07-06T13:06:18Z</time>
      </trkpt>
      <trkpt lat="40.7147780" lon="-2.3934690">
        <ele>879.0</ele>
        <time>2019-07-06T13:06:24Z</time>
      </trkpt>
      <trkpt lat="40.7149180" lon="-2.3937010">
        <ele>879.0</ele>
        <time>2019-07-06T13:06:28Z</time>
      </trkpt>
      <trkpt lat="40.7149500" lon="-2.3937610">
        <ele>879.0</ele>
        <time>2019-07-06T13:06:29Z</time>
      </trkpt>
      <trkpt lat="40.7150470" lon="-2.3940190">
        <ele>879.2</ele>
        <time>2019-07-06T13:06:33Z</time>
      </trkpt>
      <trkpt lat="40.7150520" lon="-2.3940890">
        <ele>879.2</ele>
        <time>2019-07-06T13:06:34Z</time>
      </trkpt>
      <trkpt lat="40.7149900" lon="-2.3943850">
        <ele>879.0</ele>
        <time>2019-07-06T13:06:38Z</time>
      </trkpt>
      <trkpt lat="40.7149280" lon="-2.3945300">
        <ele>878.6</ele>
        <time>2019-07-06T13:06:40Z</time>
      </trkpt>
      <trkpt lat="40.7148930" lon="-2.3945990">
        <ele>878.4</ele>
        <time>2019-07-06T13:06:41Z</time>
      </trkpt>
      <trkpt lat="40.7148200" lon="-2.3947400">
        <ele>877.8</ele>
        <time>2019-07-06T13:06:43Z</time>
      </trkpt>
      <trkpt lat="40.7147850" lon="-2.3948930">
        <ele>877.6</ele>
        <time>2019-07-06T13:06:45Z</time>
      </trkpt>
      <trkpt lat="40.7147860" lon="-2.3949680">
        <ele>877.6</ele>
        <time>2019-07-06T13:06:46Z</time>
      </trkpt>
      <trkpt lat="40.7147690" lon="-2.3952590">
        <ele>877.4</ele>
        <time>2019-07-06T13:06:50Z</time>
      </trkpt>
      <trkpt lat="40.7147570" lon="-2.3953300">
        <ele>877.4</ele>
        <time>2019-07-06T13:06:51Z</time>
      </trkpt>
      <trkpt lat="40.7147430" lon="-2.3954020">
        <ele>877.2</ele>
        <time>2019-07-06T13:06:52Z</time>
      </trkpt>
      <trkpt lat="40.7146770" lon="-2.3956050">
        <ele>877.0</ele>
        <time>2019-07-06T13:06:55Z</time>
      </trkpt>
      <trkpt lat="40.7146490" lon="-2.3956710">
        <ele>877.2</ele>
        <time>2019-07-06T13:06:56Z</time>
      </trkpt>
      <trkpt lat="40.7144420" lon="-2.3961390">
        <ele>876.6</ele>
        <time>2019-07-06T13:07:03Z</time>
      </trkpt>
      <trkpt lat="40.7143440" lon="-2.3963400">
        <ele>876.4</ele>
        <time>2019-07-06T13:07:06Z</time>
      </trkpt>
      <trkpt lat="40.7142330" lon="-2.3966120">
        <ele>876.0</ele>
        <time>2019-07-06T13:07:10Z</time>
      </trkpt>
      <trkpt lat="40.7142100" lon="-2.3966810">
        <ele>876.2</ele>
        <time>2019-07-06T13:07:11Z</time>
      </trkpt>
      <trkpt lat="40.7141950" lon="-2.3968870">
        <ele>876.0</ele>
        <time>2019-07-06T13:07:14Z</time>
      </trkpt>
      <trkpt lat="40.7143050" lon="-2.3970750">
        <ele>876.6</ele>
        <time>2019-07-06T13:07:18Z</time>
      </trkpt>
      <trkpt lat="40.7143700" lon="-2.3971520">
        <ele>877.0</ele>
        <time>2019-07-06T13:07:20Z</time>
      </trkpt>
      <trkpt lat="40.7144900" lon="-2.3973200">
        <ele>877.6</ele>
        <time>2019-07-06T13:07:24Z</time>
      </trkpt>
      <trkpt lat="40.7145490" lon="-2.3974040">
        <ele>878.2</ele>
        <time>2019-07-06T13:07:26Z</time>
      </trkpt>
      <trkpt lat="40.7146710" lon="-2.3975700">
        <ele>878.6</ele>
        <time>2019-07-06T13:07:30Z</time>
      </trkpt>
      <trkpt lat="40.7147460" lon="-2.3976330">
        <ele>879.0</ele>
        <time>2019-07-06T13:07:32Z</time>
      </trkpt>
      <trkpt lat="40.7147850" lon="-2.3976620">
        <ele>879.2</ele>
        <time>2019-07-06T13:07:33Z</time>
      </trkpt>
      <trkpt lat="40.7148230" lon="-2.3976910">
        <ele>879.2</ele>
        <time>2019-07-06T13:07:34Z</time>
      </trkpt>
      <trkpt lat="40.7148590" lon="-2.3977230">
        <ele>879.4</ele>
        <time>2019-07-06T13:07:35Z</time>
      </trkpt>
      <trkpt lat="40.7149220" lon="-2.3977960">
        <ele>879.4</ele>
        <time>2019-07-06T13:07:37Z</time>
      </trkpt>
      <trkpt lat="40.7149700" lon="-2.3978880">
        <ele>879.6</ele>
        <time>2019-07-06T13:07:39Z</time>
      </trkpt>
      <trkpt lat="40.7149830" lon="-2.3979420">
        <ele>880.0</ele>
        <time>2019-07-06T13:07:40Z</time>
      </trkpt>
      <trkpt lat="40.7150010" lon="-2.3980660">
        <ele>880.4</ele>
        <time>2019-07-06T13:07:42Z</time>
      </trkpt>
      <trkpt lat="40.7150220" lon="-2.3982100">
        <ele>880.4</ele>
        <time>2019-07-06T13:07:44Z</time>
      </trkpt>
      <trkpt lat="40.7150460" lon="-2.3984140">
        <ele>879.6</ele>
        <time>2019-07-06T13:07:47Z</time>
      </trkpt>
      <trkpt lat="40.7150360" lon="-2.3985330">
        <ele>879.2</ele>
        <time>2019-07-06T13:07:49Z</time>
      </trkpt>
      <trkpt lat="40.7150180" lon="-2.3985920">
        <ele>878.8</ele>
        <time>2019-07-06T13:07:50Z</time>
      </trkpt>
      <trkpt lat="40.7149110" lon="-2.3987690">
        <ele>878.0</ele>
        <time>2019-07-06T13:07:53Z</time>
      </trkpt>
      <trkpt lat="40.7148610" lon="-2.3988270">
        <ele>877.4</ele>
        <time>2019-07-06T13:07:54Z</time>
      </trkpt>
      <trkpt lat="40.7148120" lon="-2.3988880">
        <ele>876.8</ele>
        <time>2019-07-06T13:07:55Z</time>
      </trkpt>
      <trkpt lat="40.7147660" lon="-2.3989500">
        <ele>876.4</ele>
        <time>2019-07-06T13:07:56Z</time>
      </trkpt>
      <trkpt lat="40.7146740" lon="-2.3990750">
        <ele>875.6</ele>
        <time>2019-07-06T13:07:58Z</time>
      </trkpt>
      <trkpt lat="40.7146280" lon="-2.3991330">
        <ele>875.6</ele>
        <time>2019-07-06T13:07:59Z</time>
      </trkpt>
      <trkpt lat="40.7145440" lon="-2.3992230">
        <ele>875.4</ele>
        <time>2019-07-06T13:08:01Z</time>
      </trkpt>
      <trkpt lat="40.7145090" lon="-2.3992530">
        <ele>875.2</ele>
        <time>2019-07-06T13:08:02Z</time>
      </trkpt>
      <trkpt lat="40.7144750" lon="-2.3992710">
        <ele>875.0</ele>
        <time>2019-07-06T13:08:03Z</time>
      </trkpt>
      <trkpt lat="40.7144470" lon="-2.3992910">
        <ele>875.0</ele>
        <time>2019-07-06T13:08:04Z</time>
      </trkpt>
      <trkpt lat="40.7144120" lon="-2.3993630">
        <ele>874.8</ele>
        <time>2019-07-06T13:08:06Z</time>
      </trkpt>
      <trkpt lat="40.7144080" lon="-2.3996230">
        <ele>875.2</ele>
        <time>2019-07-06T13:08:11Z</time>
      </trkpt>
      <trkpt lat="40.7144170" lon="-2.3996750">
        <ele>875.4</ele>
        <time>2019-07-06T13:08:12Z</time>
      </trkpt>
      <trkpt lat="40.7144800" lon="-2.3999550">
        <ele>876.6</ele>
        <time>2019-07-06T13:08:18Z</time>
      </trkpt>
      <trkpt lat="40.7144890" lon="-2.4000010">
        <ele>876.8</ele>
        <time>2019-07-06T13:08:19Z</time>
      </trkpt>
      <trkpt lat="40.7144930" lon="-2.4001480">
        <ele>877.4</ele>
        <time>2019-07-06T13:08:22Z</time>
      </trkpt>
      <trkpt lat="40.7144910" lon="-2.4001990">
        <ele>877.6</ele>
        <time>2019-07-06T13:08:23Z</time>
      </trkpt>
      <trkpt lat="40.7144910" lon="-2.4002510">
        <ele>878.0</ele>
        <time>2019-07-06T13:08:24Z</time>
      </trkpt>
      <trkpt lat="40.7144970" lon="-2.4004160">
        <ele>878.6</ele>
        <time>2019-07-06T13:08:27Z</time>
      </trkpt>
      <trkpt lat="40.7145070" lon="-2.4005310">
        <ele>879.0</ele>
        <time>2019-07-06T13:08:29Z</time>
      </trkpt>
      <trkpt lat="40.7145270" lon="-2.4007540">
        <ele>879.2</ele>
        <time>2019-07-06T13:08:33Z</time>
      </trkpt>
      <trkpt lat="40.7145370" lon="-2.4008730">
        <ele>879.4</ele>
        <time>2019-07-06T13:08:35Z</time>
      </trkpt>
      <trkpt lat="40.7145110" lon="-2.4010560">
        <ele>879.4</ele>
        <time>2019-07-06T13:08:38Z</time>
      </trkpt>
      <trkpt lat="40.7144940" lon="-2.4011150">
        <ele>879.4</ele>
        <time>2019-07-06T13:08:39Z</time>
      </trkpt>
      <trkpt lat="40.7144410" lon="-2.4012990">
        <ele>878.8</ele>
        <time>2019-07-06T13:08:42Z</time>
      </trkpt>
      <trkpt lat="40.7144190" lon="-2.4014910">
        <ele>878.4</ele>
        <time>2019-07-06T13:08:45Z</time>
      </trkpt>
      <trkpt lat="40.7144160" lon="-2.4015570">
        <ele>878.0</ele>
        <time>2019-07-06T13:08:47Z</time>
      </trkpt>
      <trkpt lat="40.7144200" lon="-2.4015800">
        <ele>877.6</ele>
        <time>2019-07-06T13:08:48Z</time>
      </trkpt>
      <trkpt lat="40.7144280" lon="-2.4017100">
        <ele>877.2</ele>
        <time>2019-07-06T13:08:52Z</time>
      </trkpt>
      <trkpt lat="40.7144270" lon="-2.4017520">
        <ele>877.2</ele>
        <time>2019-07-06T13:08:53Z</time>
      </trkpt>
      <trkpt lat="40.7144220" lon="-2.4018730">
        <ele>877.0</ele>
        <time>2019-07-06T13:08:56Z</time>
      </trkpt>
      <trkpt lat="40.7144460" lon="-2.4019300">
        <ele>877.0</ele>
        <time>2019-07-06T13:08:58Z</time>
      </trkpt>
      <trkpt lat="40.7145120" lon="-2.4019290">
        <ele>877.6</ele>
        <time>2019-07-06T13:09:01Z</time>
      </trkpt>
      <trkpt lat="40.7145290" lon="-2.4019060">
        <ele>877.8</ele>
        <time>2019-07-06T13:09:02Z</time>
      </trkpt>
      <trkpt lat="40.7145620" lon="-2.4018630">
        <ele>878.0</ele>
        <time>2019-07-06T13:09:06Z</time>
      </trkpt>
      <trkpt lat="40.7145610" lon="-2.4018640">
        <ele>877.8</ele>
        <time>2019-07-06T13:09:07Z</time>
      </trkpt>
      <trkpt lat="40.7145830" lon="-2.4018580">
        <ele>877.6</ele>
        <time>2019-07-06T13:09:50Z</time>
      </trkpt>
      <trkpt lat="40.7146030" lon="-2.4018490">
        <ele>877.6</ele>
        <time>2019-07-06T13:09:51Z</time>
      </trkpt>
      <trkpt lat="40.7146230" lon="-2.4018250">
        <ele>877.4</ele>
        <time>2019-07-06T13:09:52Z</time>
      </trkpt>
      <trkpt lat="40.7146420" lon="-2.4017160">
        <ele>876.8</ele>
        <time>2019-07-06T13:09:55Z</time>
      </trkpt>
      <trkpt lat="40.7146290" lon="-2.4016520">
        <ele>876.6</ele>
        <time>2019-07-06T13:09:57Z</time>
      </trkpt>
      <trkpt lat="40.7145980" lon="-2.4016240">
        <ele>876.6</ele>
        <time>2019-07-06T13:09:59Z</time>
      </trkpt>
      <trkpt lat="40.7145810" lon="-2.4016200">
        <ele>876.6</ele>
        <time>2019-07-06T13:10:00Z</time>
      </trkpt>
      <trkpt lat="40.7145260" lon="-2.4016060">
        <ele>877.2</ele>
        <time>2019-07-06T13:10:03Z</time>
      </trkpt>
      <trkpt lat="40.7144820" lon="-2.4016110">
        <ele>877.4</ele>
        <time>2019-07-06T13:10:05Z</time>
      </trkpt>
      <trkpt lat="40.7144570" lon="-2.4016140">
        <ele>877.6</ele>
        <time>2019-07-06T13:10:06Z</time>
      </trkpt>
      <trkpt lat="40.7142600" lon="-2.4016090">
        <ele>877.4</ele>
        <time>2019-07-06T13:10:13Z</time>
      </trkpt>
      <trkpt lat="40.7140560" lon="-2.4016060">
        <ele>877.6</ele>
        <time>2019-07-06T13:10:20Z</time>
      </trkpt>
      <trkpt lat="40.7140310" lon="-2.4016020">
        <ele>877.0</ele>
        <time>2019-07-06T13:10:23Z</time>
      </trkpt>
      <trkpt lat="40.7140050" lon="-2.4016060">
        <ele>877.0</ele>
        <time>2019-07-06T13:11:55Z</time>
      </trkpt>
      <trkpt lat="40.7139870" lon="-2.4016030">
        <ele>877.0</ele>
        <time>2019-07-06T13:11:56Z</time>
      </trkpt>
      <trkpt lat="40.7139660" lon="-2.4016010">
        <ele>877.0</ele>
        <time>2019-07-06T13:11:57Z</time>
      </trkpt>
      <trkpt lat="40.7139140" lon="-2.4015890">
        <ele>877.2</ele>
        <time>2019-07-06T13:11:59Z</time>
      </trkpt>
      <trkpt lat="40.7138470" lon="-2.4015490">
        <ele>877.2</ele>
        <time>2019-07-06T13:12:01Z</time>
      </trkpt>
      <trkpt lat="40.7138100" lon="-2.4015190">
        <ele>877.0</ele>
        <time>2019-07-06T13:12:02Z</time>
      </trkpt>
      <trkpt lat="40.7136970" lon="-2.4013810">
        <ele>876.0</ele>
        <time>2019-07-06T13:12:05Z</time>
      </trkpt>
      <trkpt lat="40.7135600" lon="-2.4012160">
        <ele>875.2</ele>
        <time>2019-07-06T13:12:08Z</time>
      </trkpt>
      <trkpt lat="40.7135020" lon="-2.4011680">
        <ele>874.8</ele>
        <time>2019-07-06T13:12:09Z</time>
      </trkpt>
      <trkpt lat="40.7134360" lon="-2.4011350">
        <ele>874.4</ele>
        <time>2019-07-06T13:12:10Z</time>
      </trkpt>
      <trkpt lat="40.7132870" lon="-2.4011610">
        <ele>873.8</ele>
        <time>2019-07-06T13:12:12Z</time>
      </trkpt>
      <trkpt lat="40.7131710" lon="-2.4013010">
        <ele>873.0</ele>
        <time>2019-07-06T13:12:14Z</time>
      </trkpt>
      <trkpt lat="40.7131390" lon="-2.4013970">
        <ele>872.6</ele>
        <time>2019-07-06T13:12:15Z</time>
      </trkpt>
      <trkpt lat="40.7131050" lon="-2.4016020">
        <ele>872.0</ele>
        <time>2019-07-06T13:12:17Z</time>
      </trkpt>
      <trkpt lat="40.7130870" lon="-2.4016970">
        <ele>871.6</ele>
        <time>2019-07-06T13:12:18Z</time>
      </trkpt>
      <trkpt lat="40.7130620" lon="-2.4017830">
        <ele>871.2</ele>
        <time>2019-07-06T13:12:19Z</time>
      </trkpt>
      <trkpt lat="40.7130270" lon="-2.4018580">
        <ele>870.8</ele>
        <time>2019-07-06T13:12:20Z</time>
      </trkpt>
      <trkpt lat="40.7129210" lon="-2.4019650">
        <ele>870.2</ele>
        <time>2019-07-06T13:12:22Z</time>
      </trkpt>
      <trkpt lat="40.7128540" lon="-2.4019840">
        <ele>869.8</ele>
        <time>2019-07-06T13:12:23Z</time>
      </trkpt>
      <trkpt lat="40.7126500" lon="-2.4019150">
        <ele>868.8</ele>
        <time>2019-07-06T13:12:26Z</time>
      </trkpt>
      <trkpt lat="40.7125860" lon="-2.4018790">
        <ele>868.6</ele>
        <time>2019-07-06T13:12:27Z</time>
      </trkpt>
      <trkpt lat="40.7124620" lon="-2.4018110">
        <ele>868.0</ele>
        <time>2019-07-06T13:12:29Z</time>
      </trkpt>
      <trkpt lat="40.7124030" lon="-2.4017790">
        <ele>867.8</ele>
        <time>2019-07-06T13:12:30Z</time>
      </trkpt>
      <trkpt lat="40.7122870" lon="-2.4017120">
        <ele>867.8</ele>
        <time>2019-07-06T13:12:32Z</time>
      </trkpt>
      <trkpt lat="40.7122300" lon="-2.4016770">
        <ele>867.8</ele>
        <time>2019-07-06T13:12:33Z</time>
      </trkpt>
      <trkpt lat="40.7121770" lon="-2.4016370">
        <ele>867.8</ele>
        <time>2019-07-06T13:12:34Z</time>
      </trkpt>
      <trkpt lat="40.7120010" lon="-2.4014450">
        <ele>868.2</ele>
        <time>2019-07-06T13:12:38Z</time>
      </trkpt>
      <trkpt lat="40.7118340" lon="-2.4011980">
        <ele>868.8</ele>
        <time>2019-07-06T13:12:43Z</time>
      </trkpt>
      <trkpt lat="40.7117690" lon="-2.4011060">
        <ele>868.8</ele>
        <time>2019-07-06T13:12:45Z</time>
      </trkpt>
      <trkpt lat="40.7117120" lon="-2.4010200">
        <ele>869.2</ele>
        <time>2019-07-06T13:12:47Z</time>
      </trkpt>
      <trkpt lat="40.7116080" lon="-2.4008620">
        <ele>869.0</ele>
        <time>2019-07-06T13:12:51Z</time>
      </trkpt>
      <trkpt lat="40.7115830" lon="-2.4008230">
        <ele>869.0</ele>
        <time>2019-07-06T13:12:52Z</time>
      </trkpt>
      <trkpt lat="40.7115080" lon="-2.4007030">
        <ele>869.2</ele>
        <time>2019-07-06T13:12:55Z</time>
      </trkpt>
      <trkpt lat="40.7114110" lon="-2.4005470">
        <ele>869.8</ele>
        <time>2019-07-06T13:12:59Z</time>
      </trkpt>
      <trkpt lat="40.7113280" lon="-2.4004330">
        <ele>870.2</ele>
        <time>2019-07-06T13:13:02Z</time>
      </trkpt>
      <trkpt lat="40.7112720" lon="-2.4003560">
        <ele>870.4</ele>
        <time>2019-07-06T13:13:04Z</time>
      </trkpt>
      <trkpt lat="40.7111880" lon="-2.4002440">
        <ele>870.6</ele>
        <time>2019-07-06T13:13:07Z</time>
      </trkpt>
      <trkpt lat="40.7110890" lon="-2.4001520">
        <ele>870.8</ele>
        <time>2019-07-06T13:13:10Z</time>
      </trkpt>
      <trkpt lat="40.7109770" lon="-2.4000870">
        <ele>870.8</ele>
        <time>2019-07-06T13:13:13Z</time>
      </trkpt>
      <trkpt lat="40.7109370" lon="-2.4000730">
        <ele>870.8</ele>
        <time>2019-07-06T13:13:14Z</time>
      </trkpt>
      <trkpt lat="40.7107310" lon="-2.4000540">
        <ele>871.0</ele>
        <time>2019-07-06T13:13:19Z</time>
      </trkpt>
      <trkpt lat="40.7104020" lon="-2.4000820">
        <ele>871.2</ele>
        <time>2019-07-06T13:13:27Z</time>
      </trkpt>
      <trkpt lat="40.7100620" lon="-2.4000960">
        <ele>871.8</ele>
        <time>2019-07-06T13:13:35Z</time>
      </trkpt>
      <trkpt lat="40.7099370" lon="-2.4001030">
        <ele>872.0</ele>
        <time>2019-07-06T13:13:38Z</time>
      </trkpt>
      <trkpt lat="40.7096020" lon="-2.4001180">
        <ele>873.0</ele>
        <time>2019-07-06T13:13:46Z</time>
      </trkpt>
      <trkpt lat="40.7094760" lon="-2.4001280">
        <ele>873.2</ele>
        <time>2019-07-06T13:13:49Z</time>
      </trkpt>
      <trkpt lat="40.7092430" lon="-2.4001540">
        <ele>874.2</ele>
        <time>2019-07-06T13:13:55Z</time>
      </trkpt>
      <trkpt lat="40.7092060" lon="-2.4001560">
        <ele>874.4</ele>
        <time>2019-07-06T13:13:56Z</time>
      </trkpt>
      <trkpt lat="40.7090350" lon="-2.4001680">
        <ele>875.4</ele>
        <time>2019-07-06T13:14:01Z</time>
      </trkpt>
      <trkpt lat="40.7089690" lon="-2.4001750">
        <ele>875.8</ele>
        <time>2019-07-06T13:14:03Z</time>
      </trkpt>
      <trkpt lat="40.7089060" lon="-2.4001840">
        <ele>876.4</ele>
        <time>2019-07-06T13:14:05Z</time>
      </trkpt>
      <trkpt lat="40.7087170" lon="-2.4002040">
        <ele>877.4</ele>
        <time>2019-07-06T13:14:11Z</time>
      </trkpt>
      <trkpt lat="40.7086840" lon="-2.4002050">
        <ele>877.4</ele>
        <time>2019-07-06T13:14:12Z</time>
      </trkpt>
      <trkpt lat="40.7086520" lon="-2.4002080">
        <ele>877.6</ele>
        <time>2019-07-06T13:14:13Z</time>
      </trkpt>
      <trkpt lat="40.7084930" lon="-2.4002360">
        <ele>878.6</ele>
        <time>2019-07-06T13:14:18Z</time>
      </trkpt>
      <trkpt lat="40.7083680" lon="-2.4002630">
        <ele>879.8</ele>
        <time>2019-07-06T13:14:22Z</time>
      </trkpt>
      <trkpt lat="40.7081790" lon="-2.4003200">
        <ele>880.8</ele>
        <time>2019-07-06T13:14:28Z</time>
      </trkpt>
      <trkpt lat="40.7081470" lon="-2.4003310">
        <ele>881.2</ele>
        <time>2019-07-06T13:14:29Z</time>
      </trkpt>
      <trkpt lat="40.7079980" lon="-2.4004110">
        <ele>882.2</ele>
        <time>2019-07-06T13:14:34Z</time>
      </trkpt>
      <trkpt lat="40.7079680" lon="-2.4004260">
        <ele>882.8</ele>
        <time>2019-07-06T13:14:35Z</time>
      </trkpt>
      <trkpt lat="40.7079380" lon="-2.4004410">
        <ele>883.4</ele>
        <time>2019-07-06T13:14:36Z</time>
      </trkpt>
      <trkpt lat="40.7077920" lon="-2.4005030">
        <ele>884.4</ele>
        <time>2019-07-06T13:14:41Z</time>
      </trkpt>
      <trkpt lat="40.7077130" lon="-2.4005540">
        <ele>885.2</ele>
        <time>2019-07-06T13:14:44Z</time>
      </trkpt>
      <trkpt lat="40.7076380" lon="-2.4006120">
        <ele>885.6</ele>
        <time>2019-07-06T13:14:47Z</time>
      </trkpt>
      <trkpt lat="40.7075730" lon="-2.4006910">
        <ele>886.0</ele>
        <time>2019-07-06T13:14:50Z</time>
      </trkpt>
      <trkpt lat="40.7075200" lon="-2.4007800">
        <ele>886.6</ele>
        <time>2019-07-06T13:14:53Z</time>
      </trkpt>
      <trkpt lat="40.7074850" lon="-2.4008850">
        <ele>887.4</ele>
        <time>2019-07-06T13:14:56Z</time>
      </trkpt>
      <trkpt lat="40.7074640" lon="-2.4009590">
        <ele>887.6</ele>
        <time>2019-07-06T13:14:58Z</time>
      </trkpt>
      <trkpt lat="40.7074050" lon="-2.4011380">
        <ele>888.6</ele>
        <time>2019-07-06T13:15:03Z</time>
      </trkpt>
      <trkpt lat="40.7073940" lon="-2.4011740">
        <ele>888.8</ele>
        <time>2019-07-06T13:15:04Z</time>
      </trkpt>
      <trkpt lat="40.7073400" lon="-2.4013530">
        <ele>890.0</ele>
        <time>2019-07-06T13:15:09Z</time>
      </trkpt>
      <trkpt lat="40.7072910" lon="-2.4014890">
        <ele>890.6</ele>
        <time>2019-07-06T13:15:13Z</time>
      </trkpt>
      <trkpt lat="40.7072670" lon="-2.4015540">
        <ele>891.0</ele>
        <time>2019-07-06T13:15:15Z</time>
      </trkpt>
      <trkpt lat="40.7072140" lon="-2.4017310">
        <ele>892.4</ele>
        <time>2019-07-06T13:15:20Z</time>
      </trkpt>
      <trkpt lat="40.7071310" lon="-2.4019830">
        <ele>893.6</ele>
        <time>2019-07-06T13:15:27Z</time>
      </trkpt>
      <trkpt lat="40.7071190" lon="-2.4020170">
        <ele>893.8</ele>
        <time>2019-07-06T13:15:28Z</time>
      </trkpt>
      <trkpt lat="40.7070750" lon="-2.4021540">
        <ele>894.6</ele>
        <time>2019-07-06T13:15:32Z</time>
      </trkpt>
      <trkpt lat="40.7070400" lon="-2.4022910">
        <ele>895.6</ele>
        <time>2019-07-06T13:15:36Z</time>
      </trkpt>
      <trkpt lat="40.7070730" lon="-2.4025140">
        <ele>896.8</ele>
        <time>2019-07-06T13:15:42Z</time>
      </trkpt>
      <trkpt lat="40.7071060" lon="-2.4026200">
        <ele>898.0</ele>
        <time>2019-07-06T13:15:45Z</time>
      </trkpt>
      <trkpt lat="40.7071290" lon="-2.4028120">
        <ele>899.0</ele>
        <time>2019-07-06T13:15:50Z</time>
      </trkpt>
      <trkpt lat="40.7071250" lon="-2.4028510">
        <ele>899.2</ele>
        <time>2019-07-06T13:15:51Z</time>
      </trkpt>
      <trkpt lat="40.7070950" lon="-2.4030800">
        <ele>900.4</ele>
        <time>2019-07-06T13:15:57Z</time>
      </trkpt>
      <trkpt lat="40.7070800" lon="-2.4031600">
        <ele>901.0</ele>
        <time>2019-07-06T13:15:59Z</time>
      </trkpt>
      <trkpt lat="40.7070500" lon="-2.4032820">
        <ele>901.6</ele>
        <time>2019-07-06T13:16:02Z</time>
      </trkpt>
      <trkpt lat="40.7069820" lon="-2.4034850">
        <ele>902.4</ele>
        <time>2019-07-06T13:16:07Z</time>
      </trkpt>
      <trkpt lat="40.7069370" lon="-2.4036680">
        <ele>903.0</ele>
        <time>2019-07-06T13:16:11Z</time>
      </trkpt>
      <trkpt lat="40.7069420" lon="-2.4037620">
        <ele>903.6</ele>
        <time>2019-07-06T13:16:13Z</time>
      </trkpt>
      <trkpt lat="40.7069890" lon="-2.4038910">
        <ele>904.2</ele>
        <time>2019-07-06T13:16:16Z</time>
      </trkpt>
      <trkpt lat="40.7070370" lon="-2.4039600">
        <ele>904.4</ele>
        <time>2019-07-06T13:16:18Z</time>
      </trkpt>
      <trkpt lat="40.7071340" lon="-2.4040710">
        <ele>905.2</ele>
        <time>2019-07-06T13:16:22Z</time>
      </trkpt>
      <trkpt lat="40.7071800" lon="-2.4041360">
        <ele>906.0</ele>
        <time>2019-07-06T13:16:24Z</time>
      </trkpt>
      <trkpt lat="40.7072020" lon="-2.4041720">
        <ele>906.4</ele>
        <time>2019-07-06T13:16:25Z</time>
      </trkpt>
      <trkpt lat="40.7073240" lon="-2.4044000">
        <ele>907.2</ele>
        <time>2019-07-06T13:16:31Z</time>
      </trkpt>
      <trkpt lat="40.7073360" lon="-2.4044410">
        <ele>907.6</ele>
        <time>2019-07-06T13:16:32Z</time>
      </trkpt>
      <trkpt lat="40.7073560" lon="-2.4046530">
        <ele>908.8</ele>
        <time>2019-07-06T13:16:37Z</time>
      </trkpt>
      <trkpt lat="40.7073410" lon="-2.4049080">
        <ele>909.8</ele>
        <time>2019-07-06T13:16:43Z</time>
      </trkpt>
      <trkpt lat="40.7073330" lon="-2.4049490">
        <ele>910.0</ele>
        <time>2019-07-06T13:16:44Z</time>
      </trkpt>
      <trkpt lat="40.7072910" lon="-2.4051560">
        <ele>911.0</ele>
        <time>2019-07-06T13:16:49Z</time>
      </trkpt>
      <trkpt lat="40.7072720" lon="-2.4052390">
        <ele>911.4</ele>
        <time>2019-07-06T13:16:51Z</time>
      </trkpt>
      <trkpt lat="40.7072520" lon="-2.4053680">
        <ele>912.2</ele>
        <time>2019-07-06T13:16:54Z</time>
      </trkpt>
      <trkpt lat="40.7072450" lon="-2.4055770">
        <ele>913.0</ele>
        <time>2019-07-06T13:16:59Z</time>
      </trkpt>
      <trkpt lat="40.7072520" lon="-2.4056160">
        <ele>913.6</ele>
        <time>2019-07-06T13:17:00Z</time>
      </trkpt>
      <trkpt lat="40.7072970" lon="-2.4057300">
        <ele>914.8</ele>
        <time>2019-07-06T13:17:03Z</time>
      </trkpt>
      <trkpt lat="40.7073240" lon="-2.4057600">
        <ele>914.8</ele>
        <time>2019-07-06T13:17:04Z</time>
      </trkpt>
      <trkpt lat="40.7074560" lon="-2.4057980">
        <ele>915.4</ele>
        <time>2019-07-06T13:17:08Z</time>
      </trkpt>
      <trkpt lat="40.7075520" lon="-2.4057400">
        <ele>915.8</ele>
        <time>2019-07-06T13:17:11Z</time>
      </trkpt>
      <trkpt lat="40.7076070" lon="-2.4056770">
        <ele>916.2</ele>
        <time>2019-07-06T13:17:13Z</time>
      </trkpt>
      <trkpt lat="40.7077050" lon="-2.4055410">
        <ele>916.8</ele>
        <time>2019-07-06T13:17:17Z</time>
      </trkpt>
      <trkpt lat="40.7077690" lon="-2.4054880">
        <ele>916.8</ele>
        <time>2019-07-06T13:17:19Z</time>
      </trkpt>
      <trkpt lat="40.7078850" lon="-2.4054300">
        <ele>916.8</ele>
        <time>2019-07-06T13:17:22Z</time>
      </trkpt>
      <trkpt lat="40.7079690" lon="-2.4054130">
        <ele>917.0</ele>
        <time>2019-07-06T13:17:24Z</time>
      </trkpt>
      <trkpt lat="40.7081620" lon="-2.4054970">
        <ele>917.4</ele>
        <time>2019-07-06T13:17:29Z</time>
      </trkpt>
      <trkpt lat="40.7081950" lon="-2.4055220">
        <ele>917.6</ele>
        <time>2019-07-06T13:17:30Z</time>
      </trkpt>
      <trkpt lat="40.7082560" lon="-2.4055720">
        <ele>917.8</ele>
        <time>2019-07-06T13:17:32Z</time>
      </trkpt>
      <trkpt lat="40.7083660" lon="-2.4056750">
        <ele>918.8</ele>
        <time>2019-07-06T13:17:36Z</time>
      </trkpt>
      <trkpt lat="40.7083940" lon="-2.4057020">
        <ele>919.2</ele>
        <time>2019-07-06T13:17:37Z</time>
      </trkpt>
      <trkpt lat="40.7084810" lon="-2.4058460">
        <ele>920.4</ele>
        <time>2019-07-06T13:17:41Z</time>
      </trkpt>
      <trkpt lat="40.7084950" lon="-2.4058880">
        <ele>920.4</ele>
        <time>2019-07-06T13:17:42Z</time>
      </trkpt>
      <trkpt lat="40.7085050" lon="-2.4060610">
        <ele>921.2</ele>
        <time>2019-07-06T13:17:46Z</time>
      </trkpt>
      <trkpt lat="40.7084910" lon="-2.4061470">
        <ele>921.8</ele>
        <time>2019-07-06T13:17:48Z</time>
      </trkpt>
      <trkpt lat="40.7084690" lon="-2.4062310">
        <ele>923.0</ele>
        <time>2019-07-06T13:17:50Z</time>
      </trkpt>
      <trkpt lat="40.7084290" lon="-2.4063490">
        <ele>924.2</ele>
        <time>2019-07-06T13:17:53Z</time>
      </trkpt>
      <trkpt lat="40.7084110" lon="-2.4063850">
        <ele>924.4</ele>
        <time>2019-07-06T13:17:54Z</time>
      </trkpt>
      <trkpt lat="40.7083160" lon="-2.4065980">
        <ele>925.4</ele>
        <time>2019-07-06T13:18:00Z</time>
      </trkpt>
      <trkpt lat="40.7083120" lon="-2.4068100">
        <ele>926.6</ele>
        <time>2019-07-06T13:18:05Z</time>
      </trkpt>
      <trkpt lat="40.7083840" lon="-2.4070210">
        <ele>928.0</ele>
        <time>2019-07-06T13:18:10Z</time>
      </trkpt>
      <trkpt lat="40.7083980" lon="-2.4071050">
        <ele>928.4</ele>
        <time>2019-07-06T13:18:12Z</time>
      </trkpt>
      <trkpt lat="40.7083950" lon="-2.4071920">
        <ele>929.0</ele>
        <time>2019-07-06T13:18:14Z</time>
      </trkpt>
      <trkpt lat="40.7083610" lon="-2.4073120">
        <ele>929.6</ele>
        <time>2019-07-06T13:18:17Z</time>
      </trkpt>
      <trkpt lat="40.7083230" lon="-2.4073800">
        <ele>930.2</ele>
        <time>2019-07-06T13:18:19Z</time>
      </trkpt>
      <trkpt lat="40.7082270" lon="-2.4075620">
        <ele>930.8</ele>
        <time>2019-07-06T13:18:24Z</time>
      </trkpt>
      <trkpt lat="40.7082150" lon="-2.4076040">
        <ele>931.2</ele>
        <time>2019-07-06T13:18:25Z</time>
      </trkpt>
      <trkpt lat="40.7081930" lon="-2.4077670">
        <ele>932.4</ele>
        <time>2019-07-06T13:18:29Z</time>
      </trkpt>
      <trkpt lat="40.7081860" lon="-2.4078490">
        <ele>933.0</ele>
        <time>2019-07-06T13:18:31Z</time>
      </trkpt>
      <trkpt lat="40.7081660" lon="-2.4079720">
        <ele>933.6</ele>
        <time>2019-07-06T13:18:34Z</time>
      </trkpt>
      <trkpt lat="40.7081170" lon="-2.4081230">
        <ele>934.8</ele>
        <time>2019-07-06T13:18:38Z</time>
      </trkpt>
      <trkpt lat="40.7080990" lon="-2.4081590">
        <ele>935.0</ele>
        <time>2019-07-06T13:18:39Z</time>
      </trkpt>
      <trkpt lat="40.7079990" lon="-2.4083840">
        <ele>935.6</ele>
        <time>2019-07-06T13:18:45Z</time>
      </trkpt>
      <trkpt lat="40.7079830" lon="-2.4084190">
        <ele>935.8</ele>
        <time>2019-07-06T13:18:46Z</time>
      </trkpt>
      <trkpt lat="40.7079100" lon="-2.4085990">
        <ele>936.8</ele>
        <time>2019-07-06T13:18:51Z</time>
      </trkpt>
      <trkpt lat="40.7078780" lon="-2.4086640">
        <ele>938.2</ele>
        <time>2019-07-06T13:18:53Z</time>
      </trkpt>
      <trkpt lat="40.7078450" lon="-2.4088430">
        <ele>939.0</ele>
        <time>2019-07-06T13:18:58Z</time>
      </trkpt>
      <trkpt lat="40.7078370" lon="-2.4089170">
        <ele>939.4</ele>
        <time>2019-07-06T13:19:00Z</time>
      </trkpt>
      <trkpt lat="40.7078050" lon="-2.4090940">
        <ele>940.6</ele>
        <time>2019-07-06T13:19:05Z</time>
      </trkpt>
      <trkpt lat="40.7077970" lon="-2.4091290">
        <ele>940.8</ele>
        <time>2019-07-06T13:19:06Z</time>
      </trkpt>
      <trkpt lat="40.7077520" lon="-2.4093010">
        <ele>941.6</ele>
        <time>2019-07-06T13:19:11Z</time>
      </trkpt>
      <trkpt lat="40.7077200" lon="-2.4093630">
        <ele>942.0</ele>
        <time>2019-07-06T13:19:13Z</time>
      </trkpt>
      <trkpt lat="40.7076840" lon="-2.4094660">
        <ele>942.8</ele>
        <time>2019-07-06T13:19:16Z</time>
      </trkpt>
      <trkpt lat="40.7076680" lon="-2.4095760">
        <ele>943.2</ele>
        <time>2019-07-06T13:19:19Z</time>
      </trkpt>
      <trkpt lat="40.7076740" lon="-2.4096890">
        <ele>944.0</ele>
        <time>2019-07-06T13:19:22Z</time>
      </trkpt>
      <trkpt lat="40.7077010" lon="-2.4098380">
        <ele>945.0</ele>
        <time>2019-07-06T13:19:26Z</time>
      </trkpt>
      <trkpt lat="40.7077070" lon="-2.4098760">
        <ele>945.2</ele>
        <time>2019-07-06T13:19:27Z</time>
      </trkpt>
      <trkpt lat="40.7077170" lon="-2.4099900">
        <ele>946.4</ele>
        <time>2019-07-06T13:19:30Z</time>
      </trkpt>
      <trkpt lat="40.7076950" lon="-2.4100630">
        <ele>946.8</ele>
        <time>2019-07-06T13:19:32Z</time>
      </trkpt>
      <trkpt lat="40.7075880" lon="-2.4102110">
        <ele>947.4</ele>
        <time>2019-07-06T13:19:37Z</time>
      </trkpt>
      <trkpt lat="40.7075630" lon="-2.4102350">
        <ele>947.6</ele>
        <time>2019-07-06T13:19:38Z</time>
      </trkpt>
      <trkpt lat="40.7074840" lon="-2.4102920">
        <ele>948.8</ele>
        <time>2019-07-06T13:19:41Z</time>
      </trkpt>
      <trkpt lat="40.7073910" lon="-2.4103770">
        <ele>950.0</ele>
        <time>2019-07-06T13:19:45Z</time>
      </trkpt>
      <trkpt lat="40.7073500" lon="-2.4104300">
        <ele>950.4</ele>
        <time>2019-07-06T13:19:47Z</time>
      </trkpt>
      <trkpt lat="40.7072940" lon="-2.4106010">
        <ele>951.0</ele>
        <time>2019-07-06T13:19:52Z</time>
      </trkpt>
      <trkpt lat="40.7073410" lon="-2.4107830">
        <ele>952.4</ele>
        <time>2019-07-06T13:19:57Z</time>
      </trkpt>
      <trkpt lat="40.7073550" lon="-2.4108160">
        <ele>953.0</ele>
        <time>2019-07-06T13:19:58Z</time>
      </trkpt>
      <trkpt lat="40.7074010" lon="-2.4109930">
        <ele>953.6</ele>
        <time>2019-07-06T13:20:03Z</time>
      </trkpt>
      <trkpt lat="40.7074020" lon="-2.4110320">
        <ele>953.8</ele>
        <time>2019-07-06T13:20:04Z</time>
      </trkpt>
      <trkpt lat="40.7073980" lon="-2.4112260">
        <ele>954.8</ele>
        <time>2019-07-06T13:20:09Z</time>
      </trkpt>
      <trkpt lat="40.7073830" lon="-2.4113000">
        <ele>955.2</ele>
        <time>2019-07-06T13:20:11Z</time>
      </trkpt>
      <trkpt lat="40.7073360" lon="-2.4114800">
        <ele>956.0</ele>
        <time>2019-07-06T13:20:16Z</time>
      </trkpt>
      <trkpt lat="40.7072880" lon="-2.4116750">
        <ele>957.2</ele>
        <time>2019-07-06T13:20:21Z</time>
      </trkpt>
      <trkpt lat="40.7072890" lon="-2.4118510">
        <ele>958.6</ele>
        <time>2019-07-06T13:20:25Z</time>
      </trkpt>
      <trkpt lat="40.7072980" lon="-2.4118960">
        <ele>958.8</ele>
        <time>2019-07-06T13:20:26Z</time>
      </trkpt>
      <trkpt lat="40.7073320" lon="-2.4120250">
        <ele>959.8</ele>
        <time>2019-07-06T13:20:29Z</time>
      </trkpt>
      <trkpt lat="40.7073960" lon="-2.4122420">
        <ele>960.8</ele>
        <time>2019-07-06T13:20:34Z</time>
      </trkpt>
      <trkpt lat="40.7074900" lon="-2.4125020">
        <ele>962.0</ele>
        <time>2019-07-06T13:20:40Z</time>
      </trkpt>
      <trkpt lat="40.7075260" lon="-2.4125850">
        <ele>962.2</ele>
        <time>2019-07-06T13:20:42Z</time>
      </trkpt>
      <trkpt lat="40.7076060" lon="-2.4127330">
        <ele>963.0</ele>
        <time>2019-07-06T13:20:46Z</time>
      </trkpt>
      <trkpt lat="40.7077100" lon="-2.4129090">
        <ele>964.0</ele>
        <time>2019-07-06T13:20:51Z</time>
      </trkpt>
      <trkpt lat="40.7077310" lon="-2.4129430">
        <ele>964.0</ele>
        <time>2019-07-06T13:20:52Z</time>
      </trkpt>
      <trkpt lat="40.7077980" lon="-2.4130980">
        <ele>965.2</ele>
        <time>2019-07-06T13:20:56Z</time>
      </trkpt>
      <trkpt lat="40.7078110" lon="-2.4131780">
        <ele>965.8</ele>
        <time>2019-07-06T13:20:58Z</time>
      </trkpt>
      <trkpt lat="40.7078000" lon="-2.4132890">
        <ele>966.8</ele>
        <time>2019-07-06T13:21:01Z</time>
      </trkpt>
      <trkpt lat="40.7077760" lon="-2.4133560">
        <ele>967.2</ele>
        <time>2019-07-06T13:21:03Z</time>
      </trkpt>
      <trkpt lat="40.7077390" lon="-2.4134150">
        <ele>968.0</ele>
        <time>2019-07-06T13:21:05Z</time>
      </trkpt>
      <trkpt lat="40.7076490" lon="-2.4135020">
        <ele>968.6</ele>
        <time>2019-07-06T13:21:09Z</time>
      </trkpt>
      <trkpt lat="40.7076010" lon="-2.4135340">
        <ele>969.0</ele>
        <time>2019-07-06T13:21:11Z</time>
      </trkpt>
      <trkpt lat="40.7074680" lon="-2.4135970">
        <ele>969.8</ele>
        <time>2019-07-06T13:21:16Z</time>
      </trkpt>
      <trkpt lat="40.7073760" lon="-2.4136310">
        <ele>970.2</ele>
        <time>2019-07-06T13:21:19Z</time>
      </trkpt>
      <trkpt lat="40.7072540" lon="-2.4136920">
        <ele>971.2</ele>
        <time>2019-07-06T13:21:23Z</time>
      </trkpt>
      <trkpt lat="40.7072240" lon="-2.4137030">
        <ele>971.4</ele>
        <time>2019-07-06T13:21:24Z</time>
      </trkpt>
      <trkpt lat="40.7071060" lon="-2.4137660">
        <ele>972.4</ele>
        <time>2019-07-06T13:21:28Z</time>
      </trkpt>
      <trkpt lat="40.7070210" lon="-2.4138270">
        <ele>973.2</ele>
        <time>2019-07-06T13:21:31Z</time>
      </trkpt>
      <trkpt lat="40.7069940" lon="-2.4138500">
        <ele>973.4</ele>
        <time>2019-07-06T13:21:32Z</time>
      </trkpt>
      <trkpt lat="40.7068650" lon="-2.4139610">
        <ele>974.4</ele>
        <time>2019-07-06T13:21:37Z</time>
      </trkpt>
      <trkpt lat="40.7067890" lon="-2.4140260">
        <ele>975.8</ele>
        <time>2019-07-06T13:21:40Z</time>
      </trkpt>
      <trkpt lat="40.7066850" lon="-2.4141140">
        <ele>976.8</ele>
        <time>2019-07-06T13:21:44Z</time>
      </trkpt>
      <trkpt lat="40.7066590" lon="-2.4141360">
        <ele>977.0</ele>
        <time>2019-07-06T13:21:45Z</time>
      </trkpt>
      <trkpt lat="40.7065290" lon="-2.4142240">
        <ele>978.2</ele>
        <time>2019-07-06T13:21:50Z</time>
      </trkpt>
      <trkpt lat="40.7064770" lon="-2.4142690">
        <ele>978.6</ele>
        <time>2019-07-06T13:21:52Z</time>
      </trkpt>
      <trkpt lat="40.7063770" lon="-2.4143670">
        <ele>979.4</ele>
        <time>2019-07-06T13:21:56Z</time>
      </trkpt>
      <trkpt lat="40.7062990" lon="-2.4144390">
        <ele>979.8</ele>
        <time>2019-07-06T13:21:59Z</time>
      </trkpt>
      <trkpt lat="40.7062340" lon="-2.4145300">
        <ele>980.4</ele>
        <time>2019-07-06T13:22:02Z</time>
      </trkpt>
      <trkpt lat="40.7062140" lon="-2.4145620">
        <ele>980.6</ele>
        <time>2019-07-06T13:22:03Z</time>
      </trkpt>
      <trkpt lat="40.7061430" lon="-2.4146960">
        <ele>981.8</ele>
        <time>2019-07-06T13:22:07Z</time>
      </trkpt>
      <trkpt lat="40.7061050" lon="-2.4147600">
        <ele>982.4</ele>
        <time>2019-07-06T13:22:09Z</time>
      </trkpt>
      <trkpt lat="40.7060430" lon="-2.4148420">
        <ele>983.0</ele>
        <time>2019-07-06T13:22:12Z</time>
      </trkpt>
      <trkpt lat="40.7059590" lon="-2.4149470">
        <ele>984.4</ele>
        <time>2019-07-06T13:22:16Z</time>
      </trkpt>
      <trkpt lat="40.7059390" lon="-2.4149750">
        <ele>984.6</ele>
        <time>2019-07-06T13:22:17Z</time>
      </trkpt>
      <trkpt lat="40.7058420" lon="-2.4150640">
        <ele>985.4</ele>
        <time>2019-07-06T13:22:21Z</time>
      </trkpt>
      <trkpt lat="40.7057700" lon="-2.4151310">
        <ele>985.8</ele>
        <time>2019-07-06T13:22:24Z</time>
      </trkpt>
      <trkpt lat="40.7056970" lon="-2.4151980">
        <ele>986.6</ele>
        <time>2019-07-06T13:22:27Z</time>
      </trkpt>
      <trkpt lat="40.7056010" lon="-2.4152990">
        <ele>987.2</ele>
        <time>2019-07-06T13:22:31Z</time>
      </trkpt>
      <trkpt lat="40.7055370" lon="-2.4153890">
        <ele>987.6</ele>
        <time>2019-07-06T13:22:34Z</time>
      </trkpt>
      <trkpt lat="40.7054460" lon="-2.4155530">
        <ele>988.8</ele>
        <time>2019-07-06T13:22:39Z</time>
      </trkpt>
      <trkpt lat="40.7053670" lon="-2.4157120">
        <ele>989.8</ele>
        <time>2019-07-06T13:22:44Z</time>
      </trkpt>
      <trkpt lat="40.7053520" lon="-2.4157470">
        <ele>990.0</ele>
        <time>2019-07-06T13:22:45Z</time>
      </trkpt>
      <trkpt lat="40.7052710" lon="-2.4159240">
        <ele>990.8</ele>
        <time>2019-07-06T13:22:50Z</time>
      </trkpt>
      <trkpt lat="40.7051990" lon="-2.4160580">
        <ele>991.6</ele>
        <time>2019-07-06T13:22:54Z</time>
      </trkpt>
      <trkpt lat="40.7051670" lon="-2.4161280">
        <ele>992.0</ele>
        <time>2019-07-06T13:22:56Z</time>
      </trkpt>
      <trkpt lat="40.7051140" lon="-2.4162240">
        <ele>993.2</ele>
        <time>2019-07-06T13:22:59Z</time>
      </trkpt>
      <trkpt lat="40.7050810" lon="-2.4162900">
        <ele>993.4</ele>
        <time>2019-07-06T13:23:01Z</time>
      </trkpt>
      <trkpt lat="40.7049630" lon="-2.4165110">
        <ele>994.2</ele>
        <time>2019-07-06T13:23:08Z</time>
      </trkpt>
      <trkpt lat="40.7048500" lon="-2.4166940">
        <ele>995.0</ele>
        <time>2019-07-06T13:23:14Z</time>
      </trkpt>
      <trkpt lat="40.7048110" lon="-2.4167560">
        <ele>995.4</ele>
        <time>2019-07-06T13:23:16Z</time>
      </trkpt>
      <trkpt lat="40.7047050" lon="-2.4169000">
        <ele>996.4</ele>
        <time>2019-07-06T13:23:21Z</time>
      </trkpt>
      <trkpt lat="40.7046260" lon="-2.4170660">
        <ele>997.6</ele>
        <time>2019-07-06T13:23:26Z</time>
      </trkpt>
      <trkpt lat="40.7045880" lon="-2.4171260">
        <ele>998.4</ele>
        <time>2019-07-06T13:23:28Z</time>
      </trkpt>
      <trkpt lat="40.7045490" lon="-2.4171840">
        <ele>998.8</ele>
        <time>2019-07-06T13:23:30Z</time>
      </trkpt>
      <trkpt lat="40.7044610" lon="-2.4172880">
        <ele>1000.0</ele>
        <time>2019-07-06T13:23:34Z</time>
      </trkpt>
      <trkpt lat="40.7044120" lon="-2.4173410">
        <ele>1000.4</ele>
        <time>2019-07-06T13:23:36Z</time>
      </trkpt>
      <trkpt lat="40.7042490" lon="-2.4173740">
        <ele>1001.0</ele>
        <time>2019-07-06T13:23:41Z</time>
      </trkpt>
      <trkpt lat="40.7042150" lon="-2.4173630">
        <ele>1001.0</ele>
        <time>2019-07-06T13:23:42Z</time>
      </trkpt>
      <trkpt lat="40.7041340" lon="-2.4172780">
        <ele>1001.4</ele>
        <time>2019-07-06T13:23:45Z</time>
      </trkpt>
      <trkpt lat="40.7041030" lon="-2.4170890">
        <ele>1002.0</ele>
        <time>2019-07-06T13:23:49Z</time>
      </trkpt>
      <trkpt lat="40.7041080" lon="-2.4170410">
        <ele>1002.2</ele>
        <time>2019-07-06T13:23:50Z</time>
      </trkpt>
      <trkpt lat="40.7041620" lon="-2.4168610">
        <ele>1002.6</ele>
        <time>2019-07-06T13:23:54Z</time>
      </trkpt>
      <trkpt lat="40.7042230" lon="-2.4166790">
        <ele>1003.2</ele>
        <time>2019-07-06T13:23:58Z</time>
      </trkpt>
      <trkpt lat="40.7042410" lon="-2.4166290">
        <ele>1003.4</ele>
        <time>2019-07-06T13:23:59Z</time>
      </trkpt>
      <trkpt lat="40.7042590" lon="-2.4165800">
        <ele>1003.8</ele>
        <time>2019-07-06T13:24:00Z</time>
      </trkpt>
      <trkpt lat="40.7042980" lon="-2.4164280">
        <ele>1004.2</ele>
        <time>2019-07-06T13:24:03Z</time>
      </trkpt>
      <trkpt lat="40.7043210" lon="-2.4163280">
        <ele>1004.4</ele>
        <time>2019-07-06T13:24:05Z</time>
      </trkpt>
      <trkpt lat="40.7043420" lon="-2.4162260">
        <ele>1004.6</ele>
        <time>2019-07-06T13:24:07Z</time>
      </trkpt>
      <trkpt lat="40.7043800" lon="-2.4159730">
        <ele>1005.4</ele>
        <time>2019-07-06T13:24:12Z</time>
      </trkpt>
      <trkpt lat="40.7044010" lon="-2.4158720">
        <ele>1006.0</ele>
        <time>2019-07-06T13:24:14Z</time>
      </trkpt>
      <trkpt lat="40.7044620" lon="-2.4156690">
        <ele>1006.4</ele>
        <time>2019-07-06T13:24:18Z</time>
      </trkpt>
      <trkpt lat="40.7045270" lon="-2.4155360">
        <ele>1007.2</ele>
        <time>2019-07-06T13:24:21Z</time>
      </trkpt>
      <trkpt lat="40.7045710" lon="-2.4154490">
        <ele>1007.6</ele>
        <time>2019-07-06T13:24:23Z</time>
      </trkpt>
      <trkpt lat="40.7046660" lon="-2.4152290">
        <ele>1008.4</ele>
        <time>2019-07-06T13:24:28Z</time>
      </trkpt>
      <trkpt lat="40.7047080" lon="-2.4151430">
        <ele>1009.0</ele>
        <time>2019-07-06T13:24:30Z</time>
      </trkpt>
      <trkpt lat="40.7048070" lon="-2.4149250">
        <ele>1009.6</ele>
        <time>2019-07-06T13:24:35Z</time>
      </trkpt>
      <trkpt lat="40.7048460" lon="-2.4148420">
        <ele>1010.0</ele>
        <time>2019-07-06T13:24:37Z</time>
      </trkpt>
      <trkpt lat="40.7049140" lon="-2.4146860">
        <ele>1011.2</ele>
        <time>2019-07-06T13:24:41Z</time>
      </trkpt>
      <trkpt lat="40.7049270" lon="-2.4146470">
        <ele>1011.4</ele>
        <time>2019-07-06T13:24:42Z</time>
      </trkpt>
      <trkpt lat="40.7049660" lon="-2.4144790">
        <ele>1012.4</ele>
        <time>2019-07-06T13:24:46Z</time>
      </trkpt>
      <trkpt lat="40.7049940" lon="-2.4143480">
        <ele>1013.4</ele>
        <time>2019-07-06T13:24:49Z</time>
      </trkpt>
      <trkpt lat="40.7050000" lon="-2.4143040">
        <ele>1013.6</ele>
        <time>2019-07-06T13:24:50Z</time>
      </trkpt>
      <trkpt lat="40.7050160" lon="-2.4141310">
        <ele>1014.8</ele>
        <time>2019-07-06T13:24:54Z</time>
      </trkpt>
      <trkpt lat="40.7050130" lon="-2.4139960">
        <ele>1015.4</ele>
        <time>2019-07-06T13:24:57Z</time>
      </trkpt>
      <trkpt lat="40.7049960" lon="-2.4139110">
        <ele>1015.8</ele>
        <time>2019-07-06T13:24:59Z</time>
      </trkpt>
      <trkpt lat="40.7049510" lon="-2.4137390">
        <ele>1017.0</ele>
        <time>2019-07-06T13:25:03Z</time>
      </trkpt>
      <trkpt lat="40.7049370" lon="-2.4136980">
        <ele>1017.0</ele>
        <time>2019-07-06T13:25:04Z</time>
      </trkpt>
      <trkpt lat="40.7048230" lon="-2.4134070">
        <ele>1017.6</ele>
        <time>2019-07-06T13:25:11Z</time>
      </trkpt>
      <trkpt lat="40.7047510" lon="-2.4132400">
        <ele>1018.0</ele>
        <time>2019-07-06T13:25:15Z</time>
      </trkpt>
      <trkpt lat="40.7046710" lon="-2.4130810">
        <ele>1018.6</ele>
        <time>2019-07-06T13:25:19Z</time>
      </trkpt>
      <trkpt lat="40.7045590" lon="-2.4128540">
        <ele>1019.0</ele>
        <time>2019-07-06T13:25:25Z</time>
      </trkpt>
      <trkpt lat="40.7045420" lon="-2.4128180">
        <ele>1019.2</ele>
        <time>2019-07-06T13:25:26Z</time>
      </trkpt>
      <trkpt lat="40.7045240" lon="-2.4127800">
        <ele>1019.4</ele>
        <time>2019-07-06T13:25:27Z</time>
      </trkpt>
      <trkpt lat="40.7044500" lon="-2.4126390">
        <ele>1020.4</ele>
        <time>2019-07-06T13:25:31Z</time>
      </trkpt>
      <trkpt lat="40.7044360" lon="-2.4126010">
        <ele>1020.6</ele>
        <time>2019-07-06T13:25:32Z</time>
      </trkpt>
      <trkpt lat="40.7043970" lon="-2.4124890">
        <ele>1021.8</ele>
        <time>2019-07-06T13:25:35Z</time>
      </trkpt>
      <trkpt lat="40.7043400" lon="-2.4123350">
        <ele>1022.8</ele>
        <time>2019-07-06T13:25:39Z</time>
      </trkpt>
      <trkpt lat="40.7043270" lon="-2.4122970">
        <ele>1023.2</ele>
        <time>2019-07-06T13:25:40Z</time>
      </trkpt>
      <trkpt lat="40.7042870" lon="-2.4121880">
        <ele>1023.8</ele>
        <time>2019-07-06T13:25:43Z</time>
      </trkpt>
      <trkpt lat="40.7042580" lon="-2.4120770">
        <ele>1024.4</ele>
        <time>2019-07-06T13:25:46Z</time>
      </trkpt>
      <trkpt lat="40.7042460" lon="-2.4120000">
        <ele>1024.8</ele>
        <time>2019-07-06T13:25:48Z</time>
      </trkpt>
      <trkpt lat="40.7042060" lon="-2.4118460">
        <ele>1025.6</ele>
        <time>2019-07-06T13:25:52Z</time>
      </trkpt>
      <trkpt lat="40.7041920" lon="-2.4117660">
        <ele>1026.0</ele>
        <time>2019-07-06T13:25:54Z</time>
      </trkpt>
      <trkpt lat="40.7041660" lon="-2.4116150">
        <ele>1026.2</ele>
        <time>2019-07-06T13:25:58Z</time>
      </trkpt>
      <trkpt lat="40.7041520" lon="-2.4115420">
        <ele>1027.0</ele>
        <time>2019-07-06T13:26:00Z</time>
      </trkpt>
      <trkpt lat="40.7041120" lon="-2.4113560">
        <ele>1028.0</ele>
        <time>2019-07-06T13:26:05Z</time>
      </trkpt>
      <trkpt lat="40.7040990" lon="-2.4112780">
        <ele>1028.8</ele>
        <time>2019-07-06T13:26:07Z</time>
      </trkpt>
      <trkpt lat="40.7040860" lon="-2.4112040">
        <ele>1029.2</ele>
        <time>2019-07-06T13:26:09Z</time>
      </trkpt>
      <trkpt lat="40.7040420" lon="-2.4110140">
        <ele>1030.4</ele>
        <time>2019-07-06T13:26:14Z</time>
      </trkpt>
      <trkpt lat="40.7040340" lon="-2.4109740">
        <ele>1030.8</ele>
        <time>2019-07-06T13:26:15Z</time>
      </trkpt>
      <trkpt lat="40.7039810" lon="-2.4107750">
        <ele>1031.6</ele>
        <time>2019-07-06T13:26:20Z</time>
      </trkpt>
      <trkpt lat="40.7039330" lon="-2.4106600">
        <ele>1032.4</ele>
        <time>2019-07-06T13:26:23Z</time>
      </trkpt>
      <trkpt lat="40.7038900" lon="-2.4105900">
        <ele>1032.6</ele>
        <time>2019-07-06T13:26:25Z</time>
      </trkpt>
      <trkpt lat="40.7037790" lon="-2.4104210">
        <ele>1033.4</ele>
        <time>2019-07-06T13:26:30Z</time>
      </trkpt>
      <trkpt lat="40.7037520" lon="-2.4103880">
        <ele>1033.6</ele>
        <time>2019-07-06T13:26:31Z</time>
      </trkpt>
      <trkpt lat="40.7036260" lon="-2.4102240">
        <ele>1034.2</ele>
        <time>2019-07-06T13:26:36Z</time>
      </trkpt>
      <trkpt lat="40.7035460" lon="-2.4101410">
        <ele>1034.8</ele>
        <time>2019-07-06T13:26:39Z</time>
      </trkpt>
      <trkpt lat="40.7034100" lon="-2.4099990">
        <ele>1035.8</ele>
        <time>2019-07-06T13:26:44Z</time>
      </trkpt>
      <trkpt lat="40.7032480" lon="-2.4097860">
        <ele>1036.8</ele>
        <time>2019-07-06T13:26:51Z</time>
      </trkpt>
      <trkpt lat="40.7031190" lon="-2.4096280">
        <ele>1037.8</ele>
        <time>2019-07-06T13:26:56Z</time>
      </trkpt>
      <trkpt lat="40.7030920" lon="-2.4095970">
        <ele>1038.0</ele>
        <time>2019-07-06T13:26:57Z</time>
      </trkpt>
      <trkpt lat="40.7029790" lon="-2.4094980">
        <ele>1039.0</ele>
        <time>2019-07-06T13:27:01Z</time>
      </trkpt>
      <trkpt lat="40.7029180" lon="-2.4094520">
        <ele>1039.6</ele>
        <time>2019-07-06T13:27:03Z</time>
      </trkpt>
      <trkpt lat="40.7028270" lon="-2.4093700">
        <ele>1040.0</ele>
        <time>2019-07-06T13:27:06Z</time>
      </trkpt>
      <trkpt lat="40.7027620" lon="-2.4092570">
        <ele>1040.8</ele>
        <time>2019-07-06T13:27:09Z</time>
      </trkpt>
      <trkpt lat="40.7027510" lon="-2.4092140">
        <ele>1041.2</ele>
        <time>2019-07-06T13:27:10Z</time>
      </trkpt>
      <trkpt lat="40.7027420" lon="-2.4090350">
        <ele>1042.2</ele>
        <time>2019-07-06T13:27:14Z</time>
      </trkpt>
      <trkpt lat="40.7027440" lon="-2.4089920">
        <ele>1042.2</ele>
        <time>2019-07-06T13:27:15Z</time>
      </trkpt>
      <trkpt lat="40.7027530" lon="-2.4086750">
        <ele>1043.4</ele>
        <time>2019-07-06T13:27:22Z</time>
      </trkpt>
      <trkpt lat="40.7027590" lon="-2.4086280">
        <ele>1043.6</ele>
        <time>2019-07-06T13:27:23Z</time>
      </trkpt>
      <trkpt lat="40.7027460" lon="-2.4084970">
        <ele>1044.4</ele>
        <time>2019-07-06T13:27:26Z</time>
      </trkpt>
      <trkpt lat="40.7027250" lon="-2.4084170">
        <ele>1045.2</ele>
        <time>2019-07-06T13:27:28Z</time>
      </trkpt>
      <trkpt lat="40.7027180" lon="-2.4083740">
        <ele>1045.4</ele>
        <time>2019-07-06T13:27:29Z</time>
      </trkpt>
      <trkpt lat="40.7026740" lon="-2.4081550">
        <ele>1046.4</ele>
        <time>2019-07-06T13:27:34Z</time>
      </trkpt>
      <trkpt lat="40.7026410" lon="-2.4080760">
        <ele>1046.8</ele>
        <time>2019-07-06T13:27:36Z</time>
      </trkpt>
      <trkpt lat="40.7025670" lon="-2.4078880">
        <ele>1047.6</ele>
        <time>2019-07-06T13:27:41Z</time>
      </trkpt>
      <trkpt lat="40.7025480" lon="-2.4078520">
        <ele>1047.8</ele>
        <time>2019-07-06T13:27:42Z</time>
      </trkpt>
      <trkpt lat="40.7024550" lon="-2.4076720">
        <ele>1048.8</ele>
        <time>2019-07-06T13:27:47Z</time>
      </trkpt>
      <trkpt lat="40.7024360" lon="-2.4076370">
        <ele>1049.0</ele>
        <time>2019-07-06T13:27:48Z</time>
      </trkpt>
      <trkpt lat="40.7023260" lon="-2.4074960">
        <ele>1049.8</ele>
        <time>2019-07-06T13:27:53Z</time>
      </trkpt>
      <trkpt lat="40.7022180" lon="-2.4073480">
        <ele>1051.0</ele>
        <time>2019-07-06T13:27:58Z</time>
      </trkpt>
      <trkpt lat="40.7021400" lon="-2.4072310">
        <ele>1052.2</ele>
        <time>2019-07-06T13:28:02Z</time>
      </trkpt>
      <trkpt lat="40.7020620" lon="-2.4071160">
        <ele>1053.2</ele>
        <time>2019-07-06T13:28:06Z</time>
      </trkpt>
      <trkpt lat="40.7020020" lon="-2.4070320">
        <ele>1054.0</ele>
        <time>2019-07-06T13:28:09Z</time>
      </trkpt>
      <trkpt lat="40.7019670" lon="-2.4069710">
        <ele>1054.2</ele>
        <time>2019-07-06T13:28:11Z</time>
      </trkpt>
      <trkpt lat="40.7018550" lon="-2.4067750">
        <ele>1055.4</ele>
        <time>2019-07-06T13:28:17Z</time>
      </trkpt>
      <trkpt lat="40.7017590" lon="-2.4066120">
        <ele>1056.4</ele>
        <time>2019-07-06T13:28:22Z</time>
      </trkpt>
      <trkpt lat="40.7017210" lon="-2.4065520">
        <ele>1057.0</ele>
        <time>2019-07-06T13:28:24Z</time>
      </trkpt>
      <trkpt lat="40.7016840" lon="-2.4064880">
        <ele>1057.4</ele>
        <time>2019-07-06T13:28:26Z</time>
      </trkpt>
      <trkpt lat="40.7015920" lon="-2.4063240">
        <ele>1058.6</ele>
        <time>2019-07-06T13:28:31Z</time>
      </trkpt>
      <trkpt lat="40.7015740" lon="-2.4062930">
        <ele>1058.6</ele>
        <time>2019-07-06T13:28:32Z</time>
      </trkpt>
      <trkpt lat="40.7015090" lon="-2.4062020">
        <ele>1059.6</ele>
        <time>2019-07-06T13:28:35Z</time>
      </trkpt>
      <trkpt lat="40.7014450" lon="-2.4061100">
        <ele>1060.0</ele>
        <time>2019-07-06T13:28:38Z</time>
      </trkpt>
      <trkpt lat="40.7013770" lon="-2.4060170">
        <ele>1060.8</ele>
        <time>2019-07-06T13:28:41Z</time>
      </trkpt>
      <trkpt lat="40.7012950" lon="-2.4059300">
        <ele>1061.4</ele>
        <time>2019-07-06T13:28:44Z</time>
      </trkpt>
      <trkpt lat="40.7012430" lon="-2.4058810">
        <ele>1061.8</ele>
        <time>2019-07-06T13:28:46Z</time>
      </trkpt>
      <trkpt lat="40.7011010" lon="-2.4057690">
        <ele>1063.0</ele>
        <time>2019-07-06T13:28:51Z</time>
      </trkpt>
      <trkpt lat="40.7010450" lon="-2.4057210">
        <ele>1063.4</ele>
        <time>2019-07-06T13:28:53Z</time>
      </trkpt>
      <trkpt lat="40.7008860" lon="-2.4055850">
        <ele>1064.2</ele>
        <time>2019-07-06T13:28:59Z</time>
      </trkpt>
      <trkpt lat="40.7008330" lon="-2.4055400">
        <ele>1064.4</ele>
        <time>2019-07-06T13:29:01Z</time>
      </trkpt>
      <trkpt lat="40.7007560" lon="-2.4054680">
        <ele>1065.4</ele>
        <time>2019-07-06T13:29:04Z</time>
      </trkpt>
      <trkpt lat="40.7005970" lon="-2.4053250">
        <ele>1066.2</ele>
        <time>2019-07-06T13:29:10Z</time>
      </trkpt>
      <trkpt lat="40.7005470" lon="-2.4052790">
        <ele>1066.4</ele>
        <time>2019-07-06T13:29:12Z</time>
      </trkpt>
      <trkpt lat="40.7004600" lon="-2.4051610">
        <ele>1067.6</ele>
        <time>2019-07-06T13:29:16Z</time>
      </trkpt>
      <trkpt lat="40.7004410" lon="-2.4051300">
        <ele>1067.8</ele>
        <time>2019-07-06T13:29:17Z</time>
      </trkpt>
      <trkpt lat="40.7003600" lon="-2.4050060">
        <ele>1068.6</ele>
        <time>2019-07-06T13:29:21Z</time>
      </trkpt>
      <trkpt lat="40.7002930" lon="-2.4049140">
        <ele>1069.4</ele>
        <time>2019-07-06T13:29:24Z</time>
      </trkpt>
      <trkpt lat="40.7002200" lon="-2.4048240">
        <ele>1069.8</ele>
        <time>2019-07-06T13:29:27Z</time>
      </trkpt>
      <trkpt lat="40.7001180" lon="-2.4047060">
        <ele>1071.0</ele>
        <time>2019-07-06T13:29:31Z</time>
      </trkpt>
      <trkpt lat="40.7000690" lon="-2.4046490">
        <ele>1071.4</ele>
        <time>2019-07-06T13:29:33Z</time>
      </trkpt>
      <trkpt lat="40.6999760" lon="-2.4045250">
        <ele>1072.0</ele>
        <time>2019-07-06T13:29:37Z</time>
      </trkpt>
      <trkpt lat="40.6998910" lon="-2.4044550">
        <ele>1072.6</ele>
        <time>2019-07-06T13:29:40Z</time>
      </trkpt>
      <trkpt lat="40.6998340" lon="-2.4044110">
        <ele>1073.0</ele>
        <time>2019-07-06T13:29:42Z</time>
      </trkpt>
      <trkpt lat="40.6996510" lon="-2.4042920">
        <ele>1074.0</ele>
        <time>2019-07-06T13:29:48Z</time>
      </trkpt>
      <trkpt lat="40.6994310" lon="-2.4041780">
        <ele>1074.4</ele>
        <time>2019-07-06T13:29:55Z</time>
      </trkpt>
      <trkpt lat="40.6993300" lon="-2.4041350">
        <ele>1075.0</ele>
        <time>2019-07-06T13:29:58Z</time>
      </trkpt>
      <trkpt lat="40.6992340" lon="-2.4040860">
        <ele>1075.4</ele>
        <time>2019-07-06T13:30:01Z</time>
      </trkpt>
      <trkpt lat="40.6990030" lon="-2.4039570">
        <ele>1075.8</ele>
        <time>2019-07-06T13:30:08Z</time>
      </trkpt>
      <trkpt lat="40.6989710" lon="-2.4039360">
        <ele>1076.0</ele>
        <time>2019-07-06T13:30:09Z</time>
      </trkpt>
      <trkpt lat="40.6989040" lon="-2.4039060">
        <ele>1076.0</ele>
        <time>2019-07-06T13:30:11Z</time>
      </trkpt>
      <trkpt lat="40.6987510" lon="-2.4038530">
        <ele>1076.4</ele>
        <time>2019-07-06T13:30:15Z</time>
      </trkpt>
      <trkpt lat="40.6987120" lon="-2.4038410">
        <ele>1076.4</ele>
        <time>2019-07-06T13:30:16Z</time>
      </trkpt>
      <trkpt lat="40.6984950" lon="-2.4037760">
        <ele>1076.4</ele>
        <time>2019-07-06T13:30:21Z</time>
      </trkpt>
      <trkpt lat="40.6981240" lon="-2.4036650">
        <ele>1076.6</ele>
        <time>2019-07-06T13:30:29Z</time>
      </trkpt>
      <trkpt lat="40.6979310" lon="-2.4036700">
        <ele>1076.6</ele>
        <time>2019-07-06T13:30:33Z</time>
      </trkpt>
      <trkpt lat="40.6978800" lon="-2.4036730">
        <ele>1076.6</ele>
        <time>2019-07-06T13:30:34Z</time>
      </trkpt>
      <trkpt lat="40.6977780" lon="-2.4036880">
        <ele>1076.6</ele>
        <time>2019-07-06T13:30:36Z</time>
      </trkpt>
      <trkpt lat="40.6975540" lon="-2.4037610">
        <ele>1076.0</ele>
        <time>2019-07-06T13:30:40Z</time>
      </trkpt>
      <trkpt lat="40.6973530" lon="-2.4038400">
        <ele>1074.8</ele>
        <time>2019-07-06T13:30:43Z</time>
      </trkpt>
      <trkpt lat="40.6972070" lon="-2.4039020">
        <ele>1074.0</ele>
        <time>2019-07-06T13:30:45Z</time>
      </trkpt>
      <trkpt lat="40.6971320" lon="-2.4039340">
        <ele>1073.6</ele>
        <time>2019-07-06T13:30:46Z</time>
      </trkpt>
      <trkpt lat="40.6969770" lon="-2.4039970">
        <ele>1072.6</ele>
        <time>2019-07-06T13:30:48Z</time>
      </trkpt>
      <trkpt lat="40.6968950" lon="-2.4040310">
        <ele>1071.4</ele>
        <time>2019-07-06T13:30:49Z</time>
      </trkpt>
      <trkpt lat="40.6968090" lon="-2.4040610">
        <ele>1070.6</ele>
        <time>2019-07-06T13:30:50Z</time>
      </trkpt>
      <trkpt lat="40.6967200" lon="-2.4040830">
        <ele>1069.8</ele>
        <time>2019-07-06T13:30:51Z</time>
      </trkpt>
      <trkpt lat="40.6966260" lon="-2.4040890">
        <ele>1069.4</ele>
        <time>2019-07-06T13:30:52Z</time>
      </trkpt>
      <trkpt lat="40.6964300" lon="-2.4040430">
        <ele>1068.6</ele>
        <time>2019-07-06T13:30:54Z</time>
      </trkpt>
      <trkpt lat="40.6963320" lon="-2.4040030">
        <ele>1067.8</ele>
        <time>2019-07-06T13:30:55Z</time>
      </trkpt>
      <trkpt lat="40.6961340" lon="-2.4039110">
        <ele>1066.4</ele>
        <time>2019-07-06T13:30:57Z</time>
      </trkpt>
      <trkpt lat="40.6959340" lon="-2.4037900">
        <ele>1064.6</ele>
        <time>2019-07-06T13:30:59Z</time>
      </trkpt>
      <trkpt lat="40.6957420" lon="-2.4036250">
        <ele>1063.2</ele>
        <time>2019-07-06T13:31:01Z</time>
      </trkpt>
      <trkpt lat="40.6955460" lon="-2.4034390">
        <ele>1061.2</ele>
        <time>2019-07-06T13:31:03Z</time>
      </trkpt>
      <trkpt lat="40.6954460" lon="-2.4033410">
        <ele>1060.2</ele>
        <time>2019-07-06T13:31:04Z</time>
      </trkpt>
      <trkpt lat="40.6952400" lon="-2.4031410">
        <ele>1058.6</ele>
        <time>2019-07-06T13:31:06Z</time>
      </trkpt>
      <trkpt lat="40.6950320" lon="-2.4029340">
        <ele>1057.0</ele>
        <time>2019-07-06T13:31:08Z</time>
      </trkpt>
      <trkpt lat="40.6948260" lon="-2.4027300">
        <ele>1055.6</ele>
        <time>2019-07-06T13:31:10Z</time>
      </trkpt>
      <trkpt lat="40.6947260" lon="-2.4026310">
        <ele>1054.0</ele>
        <time>2019-07-06T13:31:11Z</time>
      </trkpt>
      <trkpt lat="40.6945380" lon="-2.4024380">
        <ele>1052.6</ele>
        <time>2019-07-06T13:31:13Z</time>
      </trkpt>
      <trkpt lat="40.6943520" lon="-2.4022510">
        <ele>1050.8</ele>
        <time>2019-07-06T13:31:15Z</time>
      </trkpt>
      <trkpt lat="40.6941470" lon="-2.4021220">
        <ele>1048.6</ele>
        <time>2019-07-06T13:31:17Z</time>
      </trkpt>
      <trkpt lat="40.6940380" lon="-2.4020800">
        <ele>1047.8</ele>
        <time>2019-07-06T13:31:18Z</time>
      </trkpt>
      <trkpt lat="40.6939340" lon="-2.4020320">
        <ele>1047.0</ele>
        <time>2019-07-06T13:31:19Z</time>
      </trkpt>
      <trkpt lat="40.6937580" lon="-2.4018710">
        <ele>1045.6</ele>
        <time>2019-07-06T13:31:21Z</time>
      </trkpt>
      <trkpt lat="40.6936840" lon="-2.4017680">
        <ele>1044.8</ele>
        <time>2019-07-06T13:31:22Z</time>
      </trkpt>
      <trkpt lat="40.6936100" lon="-2.4016750">
        <ele>1044.0</ele>
        <time>2019-07-06T13:31:23Z</time>
      </trkpt>
      <trkpt lat="40.6934360" lon="-2.4015450">
        <ele>1042.0</ele>
        <time>2019-07-06T13:31:25Z</time>
      </trkpt>
      <trkpt lat="40.6933390" lon="-2.4015110">
        <ele>1041.0</ele>
        <time>2019-07-06T13:31:26Z</time>
      </trkpt>
      <trkpt lat="40.6931550" lon="-2.4014180">
        <ele>1039.4</ele>
        <time>2019-07-06T13:31:28Z</time>
      </trkpt>
      <trkpt lat="40.6930170" lon="-2.4012370">
        <ele>1038.0</ele>
        <time>2019-07-06T13:31:30Z</time>
      </trkpt>
      <trkpt lat="40.6929620" lon="-2.4011310">
        <ele>1037.2</ele>
        <time>2019-07-06T13:31:31Z</time>
      </trkpt>
      <trkpt lat="40.6929210" lon="-2.4010230">
        <ele>1036.6</ele>
        <time>2019-07-06T13:31:32Z</time>
      </trkpt>
      <trkpt lat="40.6929080" lon="-2.4007930">
        <ele>1035.4</ele>
        <time>2019-07-06T13:31:34Z</time>
      </trkpt>
      <trkpt lat="40.6930110" lon="-2.4004580">
        <ele>1034.2</ele>
        <time>2019-07-06T13:31:37Z</time>
      </trkpt>
      <trkpt lat="40.6931660" lon="-2.4000240">
        <ele>1033.0</ele>
        <time>2019-07-06T13:31:41Z</time>
      </trkpt>
      <trkpt lat="40.6932040" lon="-2.3997990">
        <ele>1032.6</ele>
        <time>2019-07-06T13:31:43Z</time>
      </trkpt>
      <trkpt lat="40.6931440" lon="-2.3995060">
        <ele>1032.4</ele>
        <time>2019-07-06T13:31:46Z</time>
      </trkpt>
      <trkpt lat="40.6929980" lon="-2.3994700">
        <ele>1032.0</ele>
        <time>2019-07-06T13:31:48Z</time>
      </trkpt>
      <trkpt lat="40.6929200" lon="-2.3995220">
        <ele>1031.8</ele>
        <time>2019-07-06T13:31:49Z</time>
      </trkpt>
      <trkpt lat="40.6928570" lon="-2.3996000">
        <ele>1031.8</ele>
        <time>2019-07-06T13:31:50Z</time>
      </trkpt>
      <trkpt lat="40.6928110" lon="-2.3996960">
        <ele>1031.4</ele>
        <time>2019-07-06T13:31:51Z</time>
      </trkpt>
      <trkpt lat="40.6927720" lon="-2.3998000">
        <ele>1031.0</ele>
        <time>2019-07-06T13:31:52Z</time>
      </trkpt>
      <trkpt lat="40.6927240" lon="-2.3999040">
        <ele>1030.6</ele>
        <time>2019-07-06T13:31:53Z</time>
      </trkpt>
      <trkpt lat="40.6925840" lon="-2.4000880">
        <ele>1029.4</ele>
        <time>2019-07-06T13:31:55Z</time>
      </trkpt>
      <trkpt lat="40.6925020" lon="-2.4001640">
        <ele>1028.4</ele>
        <time>2019-07-06T13:31:56Z</time>
      </trkpt>
      <trkpt lat="40.6924100" lon="-2.4002290">
        <ele>1027.8</ele>
        <time>2019-07-06T13:31:57Z</time>
      </trkpt>
      <trkpt lat="40.6922140" lon="-2.4003280">
        <ele>1026.0</ele>
        <time>2019-07-06T13:31:59Z</time>
      </trkpt>
      <trkpt lat="40.6921100" lon="-2.4003700">
        <ele>1025.6</ele>
        <time>2019-07-06T13:32:00Z</time>
      </trkpt>
      <trkpt lat="40.6920030" lon="-2.4004080">
        <ele>1025.0</ele>
        <time>2019-07-06T13:32:01Z</time>
      </trkpt>
      <trkpt lat="40.6917830" lon="-2.4004810">
        <ele>1023.2</ele>
        <time>2019-07-06T13:32:03Z</time>
      </trkpt>
      <trkpt lat="40.6916720" lon="-2.4005170">
        <ele>1022.0</ele>
        <time>2019-07-06T13:32:04Z</time>
      </trkpt>
      <trkpt lat="40.6914440" lon="-2.4005860">
        <ele>1020.4</ele>
        <time>2019-07-06T13:32:06Z</time>
      </trkpt>
      <trkpt lat="40.6913290" lon="-2.4006150">
        <ele>1019.0</ele>
        <time>2019-07-06T13:32:07Z</time>
      </trkpt>
      <trkpt lat="40.6912110" lon="-2.4006300">
        <ele>1018.2</ele>
        <time>2019-07-06T13:32:08Z</time>
      </trkpt>
      <trkpt lat="40.6910930" lon="-2.4006330">
        <ele>1017.4</ele>
        <time>2019-07-06T13:32:09Z</time>
      </trkpt>
      <trkpt lat="40.6909790" lon="-2.4006410">
        <ele>1016.8</ele>
        <time>2019-07-06T13:32:10Z</time>
      </trkpt>
      <trkpt lat="40.6908740" lon="-2.4006590">
        <ele>1016.0</ele>
        <time>2019-07-06T13:32:11Z</time>
      </trkpt>
      <trkpt lat="40.6907030" lon="-2.4006870">
        <ele>1014.6</ele>
        <time>2019-07-06T13:32:13Z</time>
      </trkpt>
      <trkpt lat="40.6905710" lon="-2.4006120">
        <ele>1013.4</ele>
        <time>2019-07-06T13:32:15Z</time>
      </trkpt>
      <trkpt lat="40.6904860" lon="-2.4004200">
        <ele>1012.0</ele>
        <time>2019-07-06T13:32:17Z</time>
      </trkpt>
      <trkpt lat="40.6904530" lon="-2.4003040">
        <ele>1011.4</ele>
        <time>2019-07-06T13:32:18Z</time>
      </trkpt>
      <trkpt lat="40.6904100" lon="-2.4001890">
        <ele>1010.6</ele>
        <time>2019-07-06T13:32:19Z</time>
      </trkpt>
      <trkpt lat="40.6902930" lon="-2.3999710">
        <ele>1009.0</ele>
        <time>2019-07-06T13:32:21Z</time>
      </trkpt>
      <trkpt lat="40.6901510" lon="-2.3997550">
        <ele>1007.4</ele>
        <time>2019-07-06T13:32:23Z</time>
      </trkpt>
      <trkpt lat="40.6900790" lon="-2.3996440">
        <ele>1006.4</ele>
        <time>2019-07-06T13:32:24Z</time>
      </trkpt>
      <trkpt lat="40.6899450" lon="-2.3994040">
        <ele>1005.0</ele>
        <time>2019-07-06T13:32:26Z</time>
      </trkpt>
      <trkpt lat="40.6898870" lon="-2.3992730">
        <ele>1004.2</ele>
        <time>2019-07-06T13:32:27Z</time>
      </trkpt>
      <trkpt lat="40.6898300" lon="-2.3991380">
        <ele>1003.8</ele>
        <time>2019-07-06T13:32:28Z</time>
      </trkpt>
      <trkpt lat="40.6897040" lon="-2.3988860">
        <ele>1002.4</ele>
        <time>2019-07-06T13:32:30Z</time>
      </trkpt>
      <trkpt lat="40.6895670" lon="-2.3986740">
        <ele>1000.6</ele>
        <time>2019-07-06T13:32:32Z</time>
      </trkpt>
      <trkpt lat="40.6894960" lon="-2.3985900">
        <ele>999.8</ele>
        <time>2019-07-06T13:32:33Z</time>
      </trkpt>
      <trkpt lat="40.6894200" lon="-2.3985360">
        <ele>998.8</ele>
        <time>2019-07-06T13:32:34Z</time>
      </trkpt>
      <trkpt lat="40.6893400" lon="-2.3985140">
        <ele>998.0</ele>
        <time>2019-07-06T13:32:35Z</time>
      </trkpt>
      <trkpt lat="40.6892590" lon="-2.3985100">
        <ele>997.4</ele>
        <time>2019-07-06T13:32:36Z</time>
      </trkpt>
      <trkpt lat="40.6891150" lon="-2.3986200">
        <ele>996.2</ele>
        <time>2019-07-06T13:32:38Z</time>
      </trkpt>
      <trkpt lat="40.6890520" lon="-2.3988220">
        <ele>995.2</ele>
        <time>2019-07-06T13:32:40Z</time>
      </trkpt>
      <trkpt lat="40.6890550" lon="-2.3989320">
        <ele>995.0</ele>
        <time>2019-07-06T13:32:41Z</time>
      </trkpt>
      <trkpt lat="40.6891060" lon="-2.3991380">
        <ele>994.4</ele>
        <time>2019-07-06T13:32:43Z</time>
      </trkpt>
      <trkpt lat="40.6892270" lon="-2.3994230">
        <ele>994.0</ele>
        <time>2019-07-06T13:32:46Z</time>
      </trkpt>
      <trkpt lat="40.6892970" lon="-2.3996300">
        <ele>993.2</ele>
        <time>2019-07-06T13:32:48Z</time>
      </trkpt>
      <trkpt lat="40.6893310" lon="-2.3997300">
        <ele>993.0</ele>
        <time>2019-07-06T13:32:49Z</time>
      </trkpt>
      <trkpt lat="40.6894070" lon="-2.3999290">
        <ele>992.8</ele>
        <time>2019-07-06T13:32:51Z</time>
      </trkpt>
      <trkpt lat="40.6895270" lon="-2.4002190">
        <ele>992.2</ele>
        <time>2019-07-06T13:32:54Z</time>
      </trkpt>
      <trkpt lat="40.6895640" lon="-2.4003130">
        <ele>992.2</ele>
        <time>2019-07-06T13:32:55Z</time>
      </trkpt>
      <trkpt lat="40.6896030" lon="-2.4005150">
        <ele>991.8</ele>
        <time>2019-07-06T13:32:57Z</time>
      </trkpt>
      <trkpt lat="40.6895990" lon="-2.4006260">
        <ele>991.4</ele>
        <time>2019-07-06T13:32:58Z</time>
      </trkpt>
      <trkpt lat="40.6895370" lon="-2.4008250">
        <ele>990.4</ele>
        <time>2019-07-06T13:33:00Z</time>
      </trkpt>
      <trkpt lat="40.6894820" lon="-2.4009050">
        <ele>990.2</ele>
        <time>2019-07-06T13:33:01Z</time>
      </trkpt>
      <trkpt lat="40.6894210" lon="-2.4009820">
        <ele>990.0</ele>
        <time>2019-07-06T13:33:02Z</time>
      </trkpt>
      <trkpt lat="40.6893570" lon="-2.4010570">
        <ele>989.8</ele>
        <time>2019-07-06T13:33:03Z</time>
      </trkpt>
      <trkpt lat="40.6892290" lon="-2.4012120">
        <ele>989.0</ele>
        <time>2019-07-06T13:33:05Z</time>
      </trkpt>
      <trkpt lat="40.6891710" lon="-2.4012970">
        <ele>988.8</ele>
        <time>2019-07-06T13:33:06Z</time>
      </trkpt>
      <trkpt lat="40.6891200" lon="-2.4013880">
        <ele>988.6</ele>
        <time>2019-07-06T13:33:07Z</time>
      </trkpt>
      <trkpt lat="40.6890780" lon="-2.4014810">
        <ele>988.2</ele>
        <time>2019-07-06T13:33:08Z</time>
      </trkpt>
      <trkpt lat="40.6890420" lon="-2.4015750">
        <ele>988.0</ele>
        <time>2019-07-06T13:33:09Z</time>
      </trkpt>
      <trkpt lat="40.6889320" lon="-2.4019150">
        <ele>988.0</ele>
        <time>2019-07-06T13:33:13Z</time>
      </trkpt>
      <trkpt lat="40.6888940" lon="-2.4020720">
        <ele>988.2</ele>
        <time>2019-07-06T13:33:15Z</time>
      </trkpt>
      <trkpt lat="40.6888390" lon="-2.4022900">
        <ele>988.6</ele>
        <time>2019-07-06T13:33:18Z</time>
      </trkpt>
      <trkpt lat="40.6888010" lon="-2.4024210">
        <ele>988.8</ele>
        <time>2019-07-06T13:33:20Z</time>
      </trkpt>
      <trkpt lat="40.6887810" lon="-2.4024820">
        <ele>989.0</ele>
        <time>2019-07-06T13:33:21Z</time>
      </trkpt>
      <trkpt lat="40.6887100" lon="-2.4027250">
        <ele>989.6</ele>
        <time>2019-07-06T13:33:25Z</time>
      </trkpt>
      <trkpt lat="40.6886970" lon="-2.4027900">
        <ele>989.8</ele>
        <time>2019-07-06T13:33:26Z</time>
      </trkpt>
      <trkpt lat="40.6886800" lon="-2.4029180">
        <ele>990.0</ele>
        <time>2019-07-06T13:33:28Z</time>
      </trkpt>
      <trkpt lat="40.6886640" lon="-2.4032170">
        <ele>990.8</ele>
        <time>2019-07-06T13:33:33Z</time>
      </trkpt>
      <trkpt lat="40.6886680" lon="-2.4034380">
        <ele>991.2</ele>
        <time>2019-07-06T13:33:37Z</time>
      </trkpt>
      <trkpt lat="40.6886700" lon="-2.4034940">
        <ele>991.4</ele>
        <time>2019-07-06T13:33:38Z</time>
      </trkpt>
      <trkpt lat="40.6886680" lon="-2.4035490">
        <ele>991.4</ele>
        <time>2019-07-06T13:33:39Z</time>
      </trkpt>
      <trkpt lat="40.6886540" lon="-2.4036590">
        <ele>991.6</ele>
        <time>2019-07-06T13:33:41Z</time>
      </trkpt>
      <trkpt lat="40.6885980" lon="-2.4038080">
        <ele>992.6</ele>
        <time>2019-07-06T13:33:44Z</time>
      </trkpt>
      <trkpt lat="40.6885270" lon="-2.4039510">
        <ele>992.8</ele>
        <time>2019-07-06T13:33:47Z</time>
      </trkpt>
      <trkpt lat="40.6883230" lon="-2.4042370">
        <ele>993.6</ele>
        <time>2019-07-06T13:33:54Z</time>
      </trkpt>
      <trkpt lat="40.6881500" lon="-2.4042610">
        <ele>994.2</ele>
        <time>2019-07-06T13:33:58Z</time>
      </trkpt>
      <trkpt lat="40.6881010" lon="-2.4042480">
        <ele>994.2</ele>
        <time>2019-07-06T13:33:59Z</time>
      </trkpt>
      <trkpt lat="40.6878640" lon="-2.4042220">
        <ele>992.8</ele>
        <time>2019-07-06T13:34:03Z</time>
      </trkpt>
      <trkpt lat="40.6877960" lon="-2.4042310">
        <ele>992.4</ele>
        <time>2019-07-06T13:34:04Z</time>
      </trkpt>
      <trkpt lat="40.6875920" lon="-2.4043290">
        <ele>990.8</ele>
        <time>2019-07-06T13:34:07Z</time>
      </trkpt>
      <trkpt lat="40.6874440" lon="-2.4044110">
        <ele>989.6</ele>
        <time>2019-07-06T13:34:09Z</time>
      </trkpt>
      <trkpt lat="40.6872860" lon="-2.4044890">
        <ele>988.8</ele>
        <time>2019-07-06T13:34:11Z</time>
      </trkpt>
      <trkpt lat="40.6872010" lon="-2.4045180">
        <ele>988.4</ele>
        <time>2019-07-06T13:34:12Z</time>
      </trkpt>
      <trkpt lat="40.6870220" lon="-2.4045590">
        <ele>987.4</ele>
        <time>2019-07-06T13:34:14Z</time>
      </trkpt>
      <trkpt lat="40.6868300" lon="-2.4045890">
        <ele>986.0</ele>
        <time>2019-07-06T13:34:16Z</time>
      </trkpt>
      <trkpt lat="40.6867320" lon="-2.4046090">
        <ele>985.6</ele>
        <time>2019-07-06T13:34:17Z</time>
      </trkpt>
      <trkpt lat="40.6865350" lon="-2.4046720">
        <ele>984.6</ele>
        <time>2019-07-06T13:34:19Z</time>
      </trkpt>
      <trkpt lat="40.6863370" lon="-2.4047260">
        <ele>983.4</ele>
        <time>2019-07-06T13:34:21Z</time>
      </trkpt>
      <trkpt lat="40.6859500" lon="-2.4047150">
        <ele>982.4</ele>
        <time>2019-07-06T13:34:25Z</time>
      </trkpt>
      <trkpt lat="40.6855070" lon="-2.4046550">
        <ele>982.2</ele>
        <time>2019-07-06T13:34:30Z</time>
      </trkpt>
      <trkpt lat="40.6854290" lon="-2.4046460">
        <ele>982.2</ele>
        <time>2019-07-06T13:34:31Z</time>
      </trkpt>
      <trkpt lat="40.6852190" lon="-2.4045990">
        <ele>982.4</ele>
        <time>2019-07-06T13:34:34Z</time>
      </trkpt>
      <trkpt lat="40.6851600" lon="-2.4045590">
        <ele>982.6</ele>
        <time>2019-07-06T13:34:35Z</time>
      </trkpt>
      <trkpt lat="40.6850590" lon="-2.4044450">
        <ele>982.6</ele>
        <time>2019-07-06T13:34:37Z</time>
      </trkpt>
      <trkpt lat="40.6850090" lon="-2.4043790">
        <ele>982.4</ele>
        <time>2019-07-06T13:34:38Z</time>
      </trkpt>
      <trkpt lat="40.6849580" lon="-2.4043060">
        <ele>982.2</ele>
        <time>2019-07-06T13:34:39Z</time>
      </trkpt>
      <trkpt lat="40.6848570" lon="-2.4041440">
        <ele>981.2</ele>
        <time>2019-07-06T13:34:41Z</time>
      </trkpt>
      <trkpt lat="40.6847740" lon="-2.4039470">
        <ele>980.0</ele>
        <time>2019-07-06T13:34:43Z</time>
      </trkpt>
      <trkpt lat="40.6846920" lon="-2.4037320">
        <ele>978.2</ele>
        <time>2019-07-06T13:34:45Z</time>
      </trkpt>
      <trkpt lat="40.6845720" lon="-2.4035340">
        <ele>976.8</ele>
        <time>2019-07-06T13:34:47Z</time>
      </trkpt>
      <trkpt lat="40.6844290" lon="-2.4033520">
        <ele>975.4</ele>
        <time>2019-07-06T13:34:49Z</time>
      </trkpt>
      <trkpt lat="40.6843460" lon="-2.4032690">
        <ele>974.6</ele>
        <time>2019-07-06T13:34:50Z</time>
      </trkpt>
      <trkpt lat="40.6842570" lon="-2.4031970">
        <ele>974.2</ele>
        <time>2019-07-06T13:34:51Z</time>
      </trkpt>
      <trkpt lat="40.6840520" lon="-2.4030870">
        <ele>973.0</ele>
        <time>2019-07-06T13:34:53Z</time>
      </trkpt>
      <trkpt lat="40.6839350" lon="-2.4030550">
        <ele>972.2</ele>
        <time>2019-07-06T13:34:54Z</time>
      </trkpt>
      <trkpt lat="40.6838140" lon="-2.4030380">
        <ele>971.4</ele>
        <time>2019-07-06T13:34:55Z</time>
      </trkpt>
      <trkpt lat="40.6836940" lon="-2.4030380">
        <ele>970.2</ele>
        <time>2019-07-06T13:34:56Z</time>
      </trkpt>
      <trkpt lat="40.6835720" lon="-2.4030570">
        <ele>969.2</ele>
        <time>2019-07-06T13:34:57Z</time>
      </trkpt>
      <trkpt lat="40.6834500" lon="-2.4030840">
        <ele>968.6</ele>
        <time>2019-07-06T13:34:58Z</time>
      </trkpt>
      <trkpt lat="40.6832090" lon="-2.4031540">
        <ele>967.2</ele>
        <time>2019-07-06T13:35:00Z</time>
      </trkpt>
      <trkpt lat="40.6829810" lon="-2.4032500">
        <ele>966.0</ele>
        <time>2019-07-06T13:35:02Z</time>
      </trkpt>
      <trkpt lat="40.6825640" lon="-2.4034390">
        <ele>965.2</ele>
        <time>2019-07-06T13:35:06Z</time>
      </trkpt>
      <trkpt lat="40.6824620" lon="-2.4034690">
        <ele>965.2</ele>
        <time>2019-07-06T13:35:07Z</time>
      </trkpt>
      <trkpt lat="40.6820720" lon="-2.4034650">
        <ele>965.0</ele>
        <time>2019-07-06T13:35:11Z</time>
      </trkpt>
      <trkpt lat="40.6818260" lon="-2.4033180">
        <ele>965.0</ele>
        <time>2019-07-06T13:35:14Z</time>
      </trkpt>
      <trkpt lat="40.6817030" lon="-2.4031610">
        <ele>965.0</ele>
        <time>2019-07-06T13:35:16Z</time>
      </trkpt>
      <trkpt lat="40.6816600" lon="-2.4030650">
        <ele>965.0</ele>
        <time>2019-07-06T13:35:17Z</time>
      </trkpt>
      <trkpt lat="40.6816250" lon="-2.4027690">
        <ele>964.8</ele>
        <time>2019-07-06T13:35:20Z</time>
      </trkpt>
      <trkpt lat="40.6816280" lon="-2.4026730">
        <ele>964.8</ele>
        <time>2019-07-06T13:35:21Z</time>
      </trkpt>
      <trkpt lat="40.6816290" lon="-2.4025770">
        <ele>964.8</ele>
        <time>2019-07-06T13:35:22Z</time>
      </trkpt>
      <trkpt lat="40.6816270" lon="-2.4024850">
        <ele>964.8</ele>
        <time>2019-07-06T13:35:23Z</time>
      </trkpt>
      <trkpt lat="40.6816180" lon="-2.4023100">
        <ele>964.8</ele>
        <time>2019-07-06T13:35:25Z</time>
      </trkpt>
      <trkpt lat="40.6816100" lon="-2.4022240">
        <ele>964.8</ele>
        <time>2019-07-06T13:35:26Z</time>
      </trkpt>
      <trkpt lat="40.6815740" lon="-2.4019850">
        <ele>965.4</ele>
        <time>2019-07-06T13:35:29Z</time>
      </trkpt>
      <trkpt lat="40.6815540" lon="-2.4019160">
        <ele>965.6</ele>
        <time>2019-07-06T13:35:30Z</time>
      </trkpt>
      <trkpt lat="40.6815270" lon="-2.4018530">
        <ele>965.6</ele>
        <time>2019-07-06T13:35:31Z</time>
      </trkpt>
      <trkpt lat="40.6813530" lon="-2.4016810">
        <ele>966.2</ele>
        <time>2019-07-06T13:35:35Z</time>
      </trkpt>
      <trkpt lat="40.6813030" lon="-2.4016510">
        <ele>966.4</ele>
        <time>2019-07-06T13:35:36Z</time>
      </trkpt>
      <trkpt lat="40.6811350" lon="-2.4016090">
        <ele>966.4</ele>
        <time>2019-07-06T13:35:39Z</time>
      </trkpt>
      <trkpt lat="40.6809590" lon="-2.4016970">
        <ele>966.4</ele>
        <time>2019-07-06T13:35:42Z</time>
      </trkpt>
      <trkpt lat="40.6809060" lon="-2.4017430">
        <ele>966.2</ele>
        <time>2019-07-06T13:35:43Z</time>
      </trkpt>
      <trkpt lat="40.6808490" lon="-2.4017870">
        <ele>966.2</ele>
        <time>2019-07-06T13:35:44Z</time>
      </trkpt>
      <trkpt lat="40.6807240" lon="-2.4018410">
        <ele>966.2</ele>
        <time>2019-07-06T13:35:46Z</time>
      </trkpt>
      <trkpt lat="40.6804660" lon="-2.4018030">
        <ele>966.0</ele>
        <time>2019-07-06T13:35:50Z</time>
      </trkpt>
      <trkpt lat="40.6804070" lon="-2.4017790">
        <ele>966.2</ele>
        <time>2019-07-06T13:35:51Z</time>
      </trkpt>
      <trkpt lat="40.6803470" lon="-2.4017480">
        <ele>966.2</ele>
        <time>2019-07-06T13:35:52Z</time>
      </trkpt>
      <trkpt lat="40.6801770" lon="-2.4016330">
        <ele>966.2</ele>
        <time>2019-07-06T13:35:55Z</time>
      </trkpt>
      <trkpt lat="40.6798460" lon="-2.4013860">
        <ele>966.2</ele>
        <time>2019-07-06T13:36:01Z</time>
      </trkpt>
      <trkpt lat="40.6797920" lon="-2.4013490">
        <ele>966.2</ele>
        <time>2019-07-06T13:36:02Z</time>
      </trkpt>
      <trkpt lat="40.6795770" lon="-2.4012080">
        <ele>966.2</ele>
        <time>2019-07-06T13:36:06Z</time>
      </trkpt>
      <trkpt lat="40.6795250" lon="-2.4011730">
        <ele>966.0</ele>
        <time>2019-07-06T13:36:07Z</time>
      </trkpt>
      <trkpt lat="40.6792250" lon="-2.4009270">
        <ele>966.4</ele>
        <time>2019-07-06T13:36:13Z</time>
      </trkpt>
      <trkpt lat="40.6790960" lon="-2.4007640">
        <ele>966.6</ele>
        <time>2019-07-06T13:36:16Z</time>
      </trkpt>
      <trkpt lat="40.6789880" lon="-2.4005880">
        <ele>966.8</ele>
        <time>2019-07-06T13:36:19Z</time>
      </trkpt>
      <trkpt lat="40.6787630" lon="-2.4002090">
        <ele>967.4</ele>
        <time>2019-07-06T13:36:26Z</time>
      </trkpt>
      <trkpt lat="40.6785780" lon="-2.3998920">
        <ele>967.8</ele>
        <time>2019-07-06T13:36:32Z</time>
      </trkpt>
      <trkpt lat="40.6785050" lon="-2.3997300">
        <ele>968.0</ele>
        <time>2019-07-06T13:36:35Z</time>
      </trkpt>
      <trkpt lat="40.6784520" lon="-2.3995540">
        <ele>968.4</ele>
        <time>2019-07-06T13:36:38Z</time>
      </trkpt>
      <trkpt lat="40.6784290" lon="-2.3994340">
        <ele>968.8</ele>
        <time>2019-07-06T13:36:40Z</time>
      </trkpt>
      <trkpt lat="40.6784190" lon="-2.3993720">
        <ele>968.8</ele>
        <time>2019-07-06T13:36:41Z</time>
      </trkpt>
      <trkpt lat="40.6784130" lon="-2.3993090">
        <ele>969.0</ele>
        <time>2019-07-06T13:36:42Z</time>
      </trkpt>
      <trkpt lat="40.6783870" lon="-2.3991260">
        <ele>969.2</ele>
        <time>2019-07-06T13:36:45Z</time>
      </trkpt>
      <trkpt lat="40.6783570" lon="-2.3990040">
        <ele>969.2</ele>
        <time>2019-07-06T13:36:47Z</time>
      </trkpt>
      <trkpt lat="40.6782720" lon="-2.3986880">
        <ele>969.4</ele>
        <time>2019-07-06T13:36:52Z</time>
      </trkpt>
      <trkpt lat="40.6782610" lon="-2.3986220">
        <ele>969.4</ele>
        <time>2019-07-06T13:36:53Z</time>
      </trkpt>
      <trkpt lat="40.6782500" lon="-2.3985510">
        <ele>969.4</ele>
        <time>2019-07-06T13:36:54Z</time>
      </trkpt>
      <trkpt lat="40.6782400" lon="-2.3984070">
        <ele>969.4</ele>
        <time>2019-07-06T13:36:56Z</time>
      </trkpt>
      <trkpt lat="40.6782620" lon="-2.3981860">
        <ele>969.4</ele>
        <time>2019-07-06T13:36:59Z</time>
      </trkpt>
      <trkpt lat="40.6783250" lon="-2.3977090">
        <ele>969.4</ele>
        <time>2019-07-06T13:37:06Z</time>
      </trkpt>
      <trkpt lat="40.6783490" lon="-2.3975170">
        <ele>969.4</ele>
        <time>2019-07-06T13:37:09Z</time>
      </trkpt>
      <trkpt lat="40.6783300" lon="-2.3973970">
        <ele>969.6</ele>
        <time>2019-07-06T13:37:11Z</time>
      </trkpt>
      <trkpt lat="40.6781700" lon="-2.3971540">
        <ele>969.4</ele>
        <time>2019-07-06T13:37:16Z</time>
      </trkpt>
      <trkpt lat="40.6779290" lon="-2.3970650">
        <ele>969.6</ele>
        <time>2019-07-06T13:37:21Z</time>
      </trkpt>
      <trkpt lat="40.6775620" lon="-2.3970110">
        <ele>969.6</ele>
        <time>2019-07-06T13:37:28Z</time>
      </trkpt>
      <trkpt lat="40.6772770" lon="-2.3969310">
        <ele>970.0</ele>
        <time>2019-07-06T13:37:34Z</time>
      </trkpt>
      <trkpt lat="40.6772350" lon="-2.3969130">
        <ele>970.0</ele>
        <time>2019-07-06T13:37:35Z</time>
      </trkpt>
      <trkpt lat="40.6770750" lon="-2.3968440">
        <ele>971.2</ele>
        <time>2019-07-06T13:37:39Z</time>
      </trkpt>
      <trkpt lat="40.6769590" lon="-2.3968000">
        <ele>972.0</ele>
        <time>2019-07-06T13:37:42Z</time>
      </trkpt>
      <trkpt lat="40.6769200" lon="-2.3967880">
        <ele>972.2</ele>
        <time>2019-07-06T13:37:43Z</time>
      </trkpt>
      <trkpt lat="40.6768010" lon="-2.3967750">
        <ele>972.8</ele>
        <time>2019-07-06T13:37:46Z</time>
      </trkpt>
      <trkpt lat="40.6766820" lon="-2.3967940">
        <ele>973.2</ele>
        <time>2019-07-06T13:37:49Z</time>
      </trkpt>
      <trkpt lat="40.6766460" lon="-2.3968130">
        <ele>973.2</ele>
        <time>2019-07-06T13:37:50Z</time>
      </trkpt>
      <trkpt lat="40.6764680" lon="-2.3969340">
        <ele>973.4</ele>
        <time>2019-07-06T13:37:55Z</time>
      </trkpt>
      <trkpt lat="40.6762530" lon="-2.3970850">
        <ele>974.6</ele>
        <time>2019-07-06T13:38:01Z</time>
      </trkpt>
      <trkpt lat="40.6762170" lon="-2.3971090">
        <ele>975.0</ele>
        <time>2019-07-06T13:38:02Z</time>
      </trkpt>
      <trkpt lat="40.6759460" lon="-2.3972180">
        <ele>976.2</ele>
        <time>2019-07-06T13:38:09Z</time>
      </trkpt>
      <trkpt lat="40.6759060" lon="-2.3972310">
        <ele>976.4</ele>
        <time>2019-07-06T13:38:10Z</time>
      </trkpt>
      <trkpt lat="40.6756650" lon="-2.3973010">
        <ele>977.2</ele>
        <time>2019-07-06T13:38:16Z</time>
      </trkpt>
      <trkpt lat="40.6755830" lon="-2.3973400">
        <ele>977.4</ele>
        <time>2019-07-06T13:38:18Z</time>
      </trkpt>
      <trkpt lat="40.6752740" lon="-2.3976080">
        <ele>977.2</ele>
        <time>2019-07-06T13:38:26Z</time>
      </trkpt>
      <trkpt lat="40.6750080" lon="-2.3978540">
        <ele>977.0</ele>
        <time>2019-07-06T13:38:33Z</time>
      </trkpt>
      <trkpt lat="40.6747830" lon="-2.3980590">
        <ele>977.0</ele>
        <time>2019-07-06T13:38:39Z</time>
      </trkpt>
      <trkpt lat="40.6746790" lon="-2.3981380">
        <ele>977.6</ele>
        <time>2019-07-06T13:38:42Z</time>
      </trkpt>
      <trkpt lat="40.6745430" lon="-2.3982480">
        <ele>978.2</ele>
        <time>2019-07-06T13:38:46Z</time>
      </trkpt>
      <trkpt lat="40.6744030" lon="-2.3983610">
        <ele>979.0</ele>
        <time>2019-07-06T13:38:50Z</time>
      </trkpt>
      <trkpt lat="40.6743340" lon="-2.3984210">
        <ele>979.4</ele>
        <time>2019-07-06T13:38:52Z</time>
      </trkpt>
      <trkpt lat="40.6741020" lon="-2.3986470">
        <ele>979.8</ele>
        <time>2019-07-06T13:38:59Z</time>
      </trkpt>
      <trkpt lat="40.6740040" lon="-2.3987600">
        <ele>980.2</ele>
        <time>2019-07-06T13:39:02Z</time>
      </trkpt>
      <trkpt lat="40.6738920" lon="-2.3989310">
        <ele>980.2</ele>
        <time>2019-07-06T13:39:06Z</time>
      </trkpt>
      <trkpt lat="40.6737690" lon="-2.3992590">
        <ele>980.4</ele>
        <time>2019-07-06T13:39:13Z</time>
      </trkpt>
      <trkpt lat="40.6737500" lon="-2.3993030">
        <ele>980.6</ele>
        <time>2019-07-06T13:39:14Z</time>
      </trkpt>
      <trkpt lat="40.6736190" lon="-2.3995570">
        <ele>981.2</ele>
        <time>2019-07-06T13:39:20Z</time>
      </trkpt>
      <trkpt lat="40.6734930" lon="-2.3997560">
        <ele>981.6</ele>
        <time>2019-07-06T13:39:25Z</time>
      </trkpt>
      <trkpt lat="40.6734020" lon="-2.3998720">
        <ele>981.6</ele>
        <time>2019-07-06T13:39:28Z</time>
      </trkpt>
      <trkpt lat="40.6732990" lon="-2.3999680">
        <ele>981.6</ele>
        <time>2019-07-06T13:39:31Z</time>
      </trkpt>
      <trkpt lat="40.6731850" lon="-2.4000330">
        <ele>981.8</ele>
        <time>2019-07-06T13:39:34Z</time>
      </trkpt>
      <trkpt lat="40.6729840" lon="-2.4001560">
        <ele>982.8</ele>
        <time>2019-07-06T13:39:40Z</time>
      </trkpt>
      <trkpt lat="40.6729570" lon="-2.4001880">
        <ele>983.0</ele>
        <time>2019-07-06T13:39:41Z</time>
      </trkpt>
      <trkpt lat="40.6727920" lon="-2.4004330">
        <ele>984.0</ele>
        <time>2019-07-06T13:39:48Z</time>
      </trkpt>
      <trkpt lat="40.6727730" lon="-2.4004690">
        <ele>984.2</ele>
        <time>2019-07-06T13:39:49Z</time>
      </trkpt>
      <trkpt lat="40.6726480" lon="-2.4006900">
        <ele>985.2</ele>
        <time>2019-07-06T13:39:55Z</time>
      </trkpt>
      <trkpt lat="40.6726310" lon="-2.4007280">
        <ele>985.4</ele>
        <time>2019-07-06T13:39:56Z</time>
      </trkpt>
      <trkpt lat="40.6725440" lon="-2.4009110">
        <ele>986.4</ele>
        <time>2019-07-06T13:40:01Z</time>
      </trkpt>
      <trkpt lat="40.6724610" lon="-2.4011060">
        <ele>987.2</ele>
        <time>2019-07-06T13:40:06Z</time>
      </trkpt>
      <trkpt lat="40.6723350" lon="-2.4013820">
        <ele>987.0</ele>
        <time>2019-07-06T13:40:13Z</time>
      </trkpt>
      <trkpt lat="40.6722450" lon="-2.4015240">
        <ele>987.6</ele>
        <time>2019-07-06T13:40:17Z</time>
      </trkpt>
      <trkpt lat="40.6721900" lon="-2.4015820">
        <ele>987.8</ele>
        <time>2019-07-06T13:40:19Z</time>
      </trkpt>
      <trkpt lat="40.6720750" lon="-2.4016770">
        <ele>988.6</ele>
        <time>2019-07-06T13:40:23Z</time>
      </trkpt>
      <trkpt lat="40.6719390" lon="-2.4017820">
        <ele>989.0</ele>
        <time>2019-07-06T13:40:28Z</time>
      </trkpt>
      <trkpt lat="40.6718290" lon="-2.4018650">
        <ele>989.6</ele>
        <time>2019-07-06T13:40:32Z</time>
      </trkpt>
      <trkpt lat="40.6717420" lon="-2.4019180">
        <ele>989.8</ele>
        <time>2019-07-06T13:40:35Z</time>
      </trkpt>
      <trkpt lat="40.6715980" lon="-2.4020120">
        <ele>990.0</ele>
        <time>2019-07-06T13:40:40Z</time>
      </trkpt>
      <trkpt lat="40.6715180" lon="-2.4020900">
        <ele>990.8</ele>
        <time>2019-07-06T13:40:43Z</time>
      </trkpt>
      <trkpt lat="40.6714380" lon="-2.4021510">
        <ele>991.6</ele>
        <time>2019-07-06T13:40:46Z</time>
      </trkpt>
      <trkpt lat="40.6714110" lon="-2.4021720">
        <ele>992.0</ele>
        <time>2019-07-06T13:40:47Z</time>
      </trkpt>
      <trkpt lat="40.6712340" lon="-2.4023790">
        <ele>992.8</ele>
        <time>2019-07-06T13:40:55Z</time>
      </trkpt>
      <trkpt lat="40.6711920" lon="-2.4024300">
        <ele>993.2</ele>
        <time>2019-07-06T13:40:57Z</time>
      </trkpt>
      <trkpt lat="40.6710810" lon="-2.4025440">
        <ele>994.4</ele>
        <time>2019-07-06T13:41:02Z</time>
      </trkpt>
      <trkpt lat="40.6710360" lon="-2.4025890">
        <ele>995.0</ele>
        <time>2019-07-06T13:41:04Z</time>
      </trkpt>
      <trkpt lat="40.6709340" lon="-2.4026570">
        <ele>995.6</ele>
        <time>2019-07-06T13:41:08Z</time>
      </trkpt>
      <trkpt lat="40.6708780" lon="-2.4026790">
        <ele>996.0</ele>
        <time>2019-07-06T13:41:10Z</time>
      </trkpt>
      <trkpt lat="40.6707650" lon="-2.4027070">
        <ele>996.6</ele>
        <time>2019-07-06T13:41:14Z</time>
      </trkpt>
      <trkpt lat="40.6706810" lon="-2.4027340">
        <ele>997.0</ele>
        <time>2019-07-06T13:41:17Z</time>
      </trkpt>
      <trkpt lat="40.6705270" lon="-2.4027700">
        <ele>997.8</ele>
        <time>2019-07-06T13:41:22Z</time>
      </trkpt>
      <trkpt lat="40.6704460" lon="-2.4028950">
        <ele>998.8</ele>
        <time>2019-07-06T13:41:26Z</time>
      </trkpt>
      <trkpt lat="40.6703930" lon="-2.4031270">
        <ele>1000.0</ele>
        <time>2019-07-06T13:41:32Z</time>
      </trkpt>
      <trkpt lat="40.6703820" lon="-2.4031650">
        <ele>1000.2</ele>
        <time>2019-07-06T13:41:33Z</time>
      </trkpt>
      <trkpt lat="40.6703420" lon="-2.4034020">
        <ele>1001.2</ele>
        <time>2019-07-06T13:41:39Z</time>
      </trkpt>
      <trkpt lat="40.6703360" lon="-2.4034430">
        <ele>1001.4</ele>
        <time>2019-07-06T13:41:40Z</time>
      </trkpt>
      <trkpt lat="40.6702960" lon="-2.4036040">
        <ele>1002.2</ele>
        <time>2019-07-06T13:41:44Z</time>
      </trkpt>
      <trkpt lat="40.6702510" lon="-2.4037230">
        <ele>1003.0</ele>
        <time>2019-07-06T13:41:47Z</time>
      </trkpt>
      <trkpt lat="40.6700970" lon="-2.4039200">
        <ele>1003.4</ele>
        <time>2019-07-06T13:41:53Z</time>
      </trkpt>
      <trkpt lat="40.6700680" lon="-2.4039510">
        <ele>1003.6</ele>
        <time>2019-07-06T13:41:54Z</time>
      </trkpt>
      <trkpt lat="40.6699030" lon="-2.4040910">
        <ele>1004.0</ele>
        <time>2019-07-06T13:41:59Z</time>
      </trkpt>
      <trkpt lat="40.6697640" lon="-2.4041500">
        <ele>1004.0</ele>
        <time>2019-07-06T13:42:03Z</time>
      </trkpt>
      <trkpt lat="40.6697460" lon="-2.4041210">
        <ele>1004.0</ele>
        <time>2019-07-06T13:42:04Z</time>
      </trkpt>
      <trkpt lat="40.6697610" lon="-2.4040330">
        <ele>1004.0</ele>
        <time>2019-07-06T13:42:07Z</time>
      </trkpt>
      <trkpt lat="40.6698040" lon="-2.4039990">
        <ele>1004.8</ele>
        <time>2019-07-06T13:42:09Z</time>
      </trkpt>
      <trkpt lat="40.6698640" lon="-2.4039410">
        <ele>1005.8</ele>
        <time>2019-07-06T13:42:12Z</time>
      </trkpt>
      <trkpt lat="40.6699120" lon="-2.4038860">
        <ele>1007.0</ele>
        <time>2019-07-06T13:42:15Z</time>
      </trkpt>
      <trkpt lat="40.6699750" lon="-2.4038290">
        <ele>1007.8</ele>
        <time>2019-07-06T13:42:18Z</time>
      </trkpt>
      <trkpt lat="40.6699990" lon="-2.4038100">
        <ele>1008.0</ele>
        <time>2019-07-06T13:42:19Z</time>
      </trkpt>
      <trkpt lat="40.6700670" lon="-2.4036800">
        <ele>1008.8</ele>
        <time>2019-07-06T13:42:23Z</time>
      </trkpt>
      <trkpt lat="40.6700960" lon="-2.4035590">
        <ele>1009.0</ele>
        <time>2019-07-06T13:42:26Z</time>
      </trkpt>
      <trkpt lat="40.6701260" lon="-2.4033940">
        <ele>1009.4</ele>
        <time>2019-07-06T13:42:30Z</time>
      </trkpt>
      <trkpt lat="40.6701230" lon="-2.4032320">
        <ele>1010.2</ele>
        <time>2019-07-06T13:42:34Z</time>
      </trkpt>
      <trkpt lat="40.6701170" lon="-2.4031690">
        <ele>1010.8</ele>
        <time>2019-07-06T13:42:36Z</time>
      </trkpt>
      <trkpt lat="40.6701130" lon="-2.4031430">
        <ele>1011.4</ele>
        <time>2019-07-06T13:42:37Z</time>
      </trkpt>
      <trkpt lat="40.6700960" lon="-2.4030240">
        <ele>1012.4</ele>
        <time>2019-07-06T13:42:41Z</time>
      </trkpt>
      <trkpt lat="40.6700910" lon="-2.4029680">
        <ele>1013.0</ele>
        <time>2019-07-06T13:42:43Z</time>
      </trkpt>
      <trkpt lat="40.6700800" lon="-2.4029140">
        <ele>1013.6</ele>
        <time>2019-07-06T13:42:45Z</time>
      </trkpt>
      <trkpt lat="40.6700580" lon="-2.4028760">
        <ele>1014.4</ele>
        <time>2019-07-06T13:42:47Z</time>
      </trkpt>
      <trkpt lat="40.6700360" lon="-2.4028740">
        <ele>1014.6</ele>
        <time>2019-07-06T13:42:48Z</time>
      </trkpt>
      <trkpt lat="40.6700190" lon="-2.4028840">
        <ele>1015.0</ele>
        <time>2019-07-06T13:42:49Z</time>
      </trkpt>
      <trkpt lat="40.6700140" lon="-2.4029040">
        <ele>1015.4</ele>
        <time>2019-07-06T13:42:51Z</time>
      </trkpt>
      <trkpt lat="40.6700050" lon="-2.4029100">
        <ele>1015.8</ele>
        <time>2019-07-06T13:42:55Z</time>
      </trkpt>
      <trkpt lat="40.6700110" lon="-2.4028930">
        <ele>1015.8</ele>
        <time>2019-07-06T13:42:56Z</time>
      </trkpt>
      <trkpt lat="40.6700650" lon="-2.4027930">
        <ele>1015.8</ele>
        <time>2019-07-06T13:43:00Z</time>
      </trkpt>
      <trkpt lat="40.6700250" lon="-2.4027060">
        <ele>1016.0</ele>
        <time>2019-07-06T13:43:04Z</time>
      </trkpt>
      <trkpt lat="40.6699570" lon="-2.4026820">
        <ele>1016.6</ele>
        <time>2019-07-06T13:43:07Z</time>
      </trkpt>
      <trkpt lat="40.6699170" lon="-2.4026720">
        <ele>1017.2</ele>
        <time>2019-07-06T13:43:09Z</time>
      </trkpt>
      <trkpt lat="40.6698980" lon="-2.4026730">
        <ele>1017.4</ele>
        <time>2019-07-06T13:43:10Z</time>
      </trkpt>
      <trkpt lat="40.6698800" lon="-2.4026790">
        <ele>1017.6</ele>
        <time>2019-07-06T13:43:11Z</time>
      </trkpt>
      <trkpt lat="40.6698560" lon="-2.4026710">
        <ele>1018.0</ele>
        <time>2019-07-06T13:43:13Z</time>
      </trkpt>
      <trkpt lat="40.6698480" lon="-2.4026490">
        <ele>1018.2</ele>
        <time>2019-07-06T13:43:14Z</time>
      </trkpt>
      <trkpt lat="40.6698790" lon="-2.4026050">
        <ele>1018.6</ele>
        <time>2019-07-06T13:43:17Z</time>
      </trkpt>
      <trkpt lat="40.6698990" lon="-2.4026150">
        <ele>1018.0</ele>
        <time>2019-07-06T13:43:21Z</time>
      </trkpt>
      <trkpt lat="40.6699140" lon="-2.4026160">
        <ele>1019.4</ele>
        <time>2019-07-06T14:10:17Z</time>
      </trkpt>
      <trkpt lat="40.6699130" lon="-2.4026370">
        <ele>1019.6</ele>
        <time>2019-07-06T14:10:18Z</time>
      </trkpt>
      <trkpt lat="40.6699110" lon="-2.4026610">
        <ele>1019.6</ele>
        <time>2019-07-06T14:10:19Z</time>
      </trkpt>
      <trkpt lat="40.6698940" lon="-2.4027150">
        <ele>1020.0</ele>
        <time>2019-07-06T14:10:21Z</time>
      </trkpt>
      <trkpt lat="40.6698850" lon="-2.4027450">
        <ele>1020.0</ele>
        <time>2019-07-06T14:10:22Z</time>
      </trkpt>
      <trkpt lat="40.6698680" lon="-2.4028360">
        <ele>1020.2</ele>
        <time>2019-07-06T14:10:25Z</time>
      </trkpt>
      <trkpt lat="40.6698580" lon="-2.4029940">
        <ele>1020.6</ele>
        <time>2019-07-06T14:10:30Z</time>
      </trkpt>
      <trkpt lat="40.6698560" lon="-2.4030730">
        <ele>1020.6</ele>
        <time>2019-07-06T14:10:32Z</time>
      </trkpt>
      <trkpt lat="40.6698440" lon="-2.4032710">
        <ele>1020.4</ele>
        <time>2019-07-06T14:10:37Z</time>
      </trkpt>
      <trkpt lat="40.6697770" lon="-2.4034680">
        <ele>1020.6</ele>
        <time>2019-07-06T14:10:42Z</time>
      </trkpt>
      <trkpt lat="40.6697350" lon="-2.4035530">
        <ele>1020.4</ele>
        <time>2019-07-06T14:10:44Z</time>
      </trkpt>
      <trkpt lat="40.6696760" lon="-2.4036590">
        <ele>1019.4</ele>
        <time>2019-07-06T14:10:47Z</time>
      </trkpt>
      <trkpt lat="40.6696170" lon="-2.4037250">
        <ele>1019.0</ele>
        <time>2019-07-06T14:10:49Z</time>
      </trkpt>
      <trkpt lat="40.6695730" lon="-2.4037510">
        <ele>1018.6</ele>
        <time>2019-07-06T14:10:50Z</time>
      </trkpt>
      <trkpt lat="40.6694650" lon="-2.4037660">
        <ele>1017.2</ele>
        <time>2019-07-06T14:10:52Z</time>
      </trkpt>
      <trkpt lat="40.6694070" lon="-2.4037560">
        <ele>1016.4</ele>
        <time>2019-07-06T14:10:53Z</time>
      </trkpt>
      <trkpt lat="40.6693610" lon="-2.4037540">
        <ele>1015.8</ele>
        <time>2019-07-06T14:10:54Z</time>
      </trkpt>
      <trkpt lat="40.6692880" lon="-2.4037860">
        <ele>1015.4</ele>
        <time>2019-07-06T14:10:56Z</time>
      </trkpt>
      <trkpt lat="40.6691690" lon="-2.4038560">
        <ele>1014.6</ele>
        <time>2019-07-06T14:10:59Z</time>
      </trkpt>
      <trkpt lat="40.6691210" lon="-2.4038700">
        <ele>1014.4</ele>
        <time>2019-07-06T14:11:00Z</time>
      </trkpt>
      <trkpt lat="40.6690430" lon="-2.4038830">
        <ele>1013.6</ele>
        <time>2019-07-06T14:11:02Z</time>
      </trkpt>
      <trkpt lat="40.6689800" lon="-2.4039190">
        <ele>1012.8</ele>
        <time>2019-07-06T14:11:04Z</time>
      </trkpt>
      <trkpt lat="40.6689530" lon="-2.4039470">
        <ele>1012.2</ele>
        <time>2019-07-06T14:11:05Z</time>
      </trkpt>
      <trkpt lat="40.6689200" lon="-2.4039960">
        <ele>1011.2</ele>
        <time>2019-07-06T14:11:07Z</time>
      </trkpt>
      <trkpt lat="40.6689080" lon="-2.4040200">
        <ele>1010.4</ele>
        <time>2019-07-06T14:11:08Z</time>
      </trkpt>
      <trkpt lat="40.6688940" lon="-2.4040380">
        <ele>1010.0</ele>
        <time>2019-07-06T14:11:09Z</time>
      </trkpt>
      <trkpt lat="40.6688460" lon="-2.4040400">
        <ele>1008.8</ele>
        <time>2019-07-06T14:11:11Z</time>
      </trkpt>
      <trkpt lat="40.6688150" lon="-2.4040250">
        <ele>1008.6</ele>
        <time>2019-07-06T14:11:12Z</time>
      </trkpt>
      <trkpt lat="40.6687820" lon="-2.4040070">
        <ele>1008.6</ele>
        <time>2019-07-06T14:11:13Z</time>
      </trkpt>
      <trkpt lat="40.6687050" lon="-2.4039780">
        <ele>1008.4</ele>
        <time>2019-07-06T14:11:15Z</time>
      </trkpt>
      <trkpt lat="40.6686620" lon="-2.4039660">
        <ele>1008.4</ele>
        <time>2019-07-06T14:11:16Z</time>
      </trkpt>
      <trkpt lat="40.6685750" lon="-2.4039350">
        <ele>1008.4</ele>
        <time>2019-07-06T14:11:18Z</time>
      </trkpt>
      <trkpt lat="40.6684420" lon="-2.4038810">
        <ele>1008.0</ele>
        <time>2019-07-06T14:11:21Z</time>
      </trkpt>
      <trkpt lat="40.6682240" lon="-2.4037820">
        <ele>1008.2</ele>
        <time>2019-07-06T14:11:26Z</time>
      </trkpt>
      <trkpt lat="40.6681390" lon="-2.4037420">
        <ele>1008.2</ele>
        <time>2019-07-06T14:11:28Z</time>
      </trkpt>
      <trkpt lat="40.6680110" lon="-2.4036920">
        <ele>1008.2</ele>
        <time>2019-07-06T14:11:31Z</time>
      </trkpt>
      <trkpt lat="40.6679330" lon="-2.4036650">
        <ele>1008.2</ele>
        <time>2019-07-06T14:11:33Z</time>
      </trkpt>
      <trkpt lat="40.6678610" lon="-2.4036760">
        <ele>1008.2</ele>
        <time>2019-07-06T14:11:35Z</time>
      </trkpt>
      <trkpt lat="40.6678300" lon="-2.4037060">
        <ele>1008.4</ele>
        <time>2019-07-06T14:11:36Z</time>
      </trkpt>
      <trkpt lat="40.6676980" lon="-2.4039510">
        <ele>1008.8</ele>
        <time>2019-07-06T14:11:41Z</time>
      </trkpt>
      <trkpt lat="40.6674690" lon="-2.4043810">
        <ele>1009.2</ele>
        <time>2019-07-06T14:11:49Z</time>
      </trkpt>
      <trkpt lat="40.6673060" lon="-2.4046110">
        <ele>1009.0</ele>
        <time>2019-07-06T14:11:54Z</time>
      </trkpt>
      <trkpt lat="40.6672780" lon="-2.4046620">
        <ele>1009.0</ele>
        <time>2019-07-06T14:11:55Z</time>
      </trkpt>
      <trkpt lat="40.6672280" lon="-2.4047680">
        <ele>1008.8</ele>
        <time>2019-07-06T14:11:57Z</time>
      </trkpt>
      <trkpt lat="40.6670770" lon="-2.4051960">
        <ele>1009.6</ele>
        <time>2019-07-06T14:12:05Z</time>
      </trkpt>
      <trkpt lat="40.6670590" lon="-2.4052500">
        <ele>1009.6</ele>
        <time>2019-07-06T14:12:06Z</time>
      </trkpt>
      <trkpt lat="40.6669770" lon="-2.4055110">
        <ele>1010.2</ele>
        <time>2019-07-06T14:12:11Z</time>
      </trkpt>
      <trkpt lat="40.6669460" lon="-2.4056100">
        <ele>1010.4</ele>
        <time>2019-07-06T14:12:13Z</time>
      </trkpt>
      <trkpt lat="40.6669140" lon="-2.4057060">
        <ele>1011.0</ele>
        <time>2019-07-06T14:12:15Z</time>
      </trkpt>
      <trkpt lat="40.6668410" lon="-2.4059310">
        <ele>1011.0</ele>
        <time>2019-07-06T14:12:20Z</time>
      </trkpt>
      <trkpt lat="40.6668480" lon="-2.4059750">
        <ele>1010.8</ele>
        <time>2019-07-06T14:12:21Z</time>
      </trkpt>
      <trkpt lat="40.6669390" lon="-2.4060770">
        <ele>1010.2</ele>
        <time>2019-07-06T14:12:24Z</time>
      </trkpt>
      <trkpt lat="40.6669860" lon="-2.4060970">
        <ele>1009.8</ele>
        <time>2019-07-06T14:12:25Z</time>
      </trkpt>
      <trkpt lat="40.6670370" lon="-2.4061170">
        <ele>1009.4</ele>
        <time>2019-07-06T14:12:26Z</time>
      </trkpt>
      <trkpt lat="40.6670890" lon="-2.4061340">
        <ele>1009.0</ele>
        <time>2019-07-06T14:12:27Z</time>
      </trkpt>
      <trkpt lat="40.6671450" lon="-2.4061490">
        <ele>1008.6</ele>
        <time>2019-07-06T14:12:28Z</time>
      </trkpt>
      <trkpt lat="40.6672010" lon="-2.4061640">
        <ele>1008.4</ele>
        <time>2019-07-06T14:12:29Z</time>
      </trkpt>
      <trkpt lat="40.6673160" lon="-2.4061960">
        <ele>1008.4</ele>
        <time>2019-07-06T14:12:31Z</time>
      </trkpt>
      <trkpt lat="40.6675960" lon="-2.4063200">
        <ele>1008.4</ele>
        <time>2019-07-06T14:12:36Z</time>
      </trkpt>
      <trkpt lat="40.6679230" lon="-2.4065510">
        <ele>1008.2</ele>
        <time>2019-07-06T14:12:43Z</time>
      </trkpt>
      <trkpt lat="40.6681560" lon="-2.4067060">
        <ele>1009.4</ele>
        <time>2019-07-06T14:12:50Z</time>
      </trkpt>
      <trkpt lat="40.6681810" lon="-2.4067180">
        <ele>1009.4</ele>
        <time>2019-07-06T14:12:51Z</time>
      </trkpt>
      <trkpt lat="40.6682470" lon="-2.4067450">
        <ele>1010.8</ele>
        <time>2019-07-06T14:12:54Z</time>
      </trkpt>
      <trkpt lat="40.6682920" lon="-2.4067560">
        <ele>1011.2</ele>
        <time>2019-07-06T14:12:56Z</time>
      </trkpt>
      <trkpt lat="40.6683590" lon="-2.4067590">
        <ele>1011.8</ele>
        <time>2019-07-06T14:12:59Z</time>
      </trkpt>
      <trkpt lat="40.6683980" lon="-2.4067400">
        <ele>1012.6</ele>
        <time>2019-07-06T14:13:01Z</time>
      </trkpt>
      <trkpt lat="40.6684170" lon="-2.4067240">
        <ele>1013.0</ele>
        <time>2019-07-06T14:13:02Z</time>
      </trkpt>
      <trkpt lat="40.6684750" lon="-2.4066380">
        <ele>1013.8</ele>
        <time>2019-07-06T14:13:06Z</time>
      </trkpt>
      <trkpt lat="40.6684890" lon="-2.4066160">
        <ele>1014.2</ele>
        <time>2019-07-06T14:13:07Z</time>
      </trkpt>
      <trkpt lat="40.6685040" lon="-2.4065960">
        <ele>1014.8</ele>
        <time>2019-07-06T14:13:08Z</time>
      </trkpt>
      <trkpt lat="40.6685210" lon="-2.4065780">
        <ele>1015.2</ele>
        <time>2019-07-06T14:13:09Z</time>
      </trkpt>
      <trkpt lat="40.6685730" lon="-2.4065140">
        <ele>1016.4</ele>
        <time>2019-07-06T14:13:12Z</time>
      </trkpt>
      <trkpt lat="40.6686190" lon="-2.4064890">
        <ele>1016.8</ele>
        <time>2019-07-06T14:13:14Z</time>
      </trkpt>
      <trkpt lat="40.6687530" lon="-2.4065110">
        <ele>1017.2</ele>
        <time>2019-07-06T14:13:19Z</time>
      </trkpt>
      <trkpt lat="40.6687800" lon="-2.4065270">
        <ele>1017.6</ele>
        <time>2019-07-06T14:13:20Z</time>
      </trkpt>
      <trkpt lat="40.6688450" lon="-2.4066130">
        <ele>1017.6</ele>
        <time>2019-07-06T14:13:23Z</time>
      </trkpt>
      <trkpt lat="40.6689840" lon="-2.4068380">
        <ele>1017.6</ele>
        <time>2019-07-06T14:13:29Z</time>
      </trkpt>
      <trkpt lat="40.6690010" lon="-2.4068890">
        <ele>1017.4</ele>
        <time>2019-07-06T14:13:30Z</time>
      </trkpt>
      <trkpt lat="40.6690210" lon="-2.4070700">
        <ele>1017.0</ele>
        <time>2019-07-06T14:13:33Z</time>
      </trkpt>
      <trkpt lat="40.6690210" lon="-2.4071370">
        <ele>1016.6</ele>
        <time>2019-07-06T14:13:34Z</time>
      </trkpt>
      <trkpt lat="40.6690210" lon="-2.4072040">
        <ele>1016.6</ele>
        <time>2019-07-06T14:13:35Z</time>
      </trkpt>
      <trkpt lat="40.6690360" lon="-2.4075670">
        <ele>1015.8</ele>
        <time>2019-07-06T14:13:41Z</time>
      </trkpt>
      <trkpt lat="40.6690400" lon="-2.4077660">
        <ele>1017.6</ele>
        <time>2019-07-06T14:13:46Z</time>
      </trkpt>
      <trkpt lat="40.6690400" lon="-2.4078020">
        <ele>1017.8</ele>
        <time>2019-07-06T14:13:47Z</time>
      </trkpt>
      <trkpt lat="40.6690500" lon="-2.4080720">
        <ele>1019.0</ele>
        <time>2019-07-06T14:13:54Z</time>
      </trkpt>
      <trkpt lat="40.6690570" lon="-2.4081550">
        <ele>1019.4</ele>
        <time>2019-07-06T14:13:56Z</time>
      </trkpt>
      <trkpt lat="40.6690700" lon="-2.4082390">
        <ele>1020.0</ele>
        <time>2019-07-06T14:13:58Z</time>
      </trkpt>
      <trkpt lat="40.6691370" lon="-2.4085600">
        <ele>1021.2</ele>
        <time>2019-07-06T14:14:06Z</time>
      </trkpt>
      <trkpt lat="40.6691840" lon="-2.4089590">
        <ele>1021.8</ele>
        <time>2019-07-06T14:14:16Z</time>
      </trkpt>
      <trkpt lat="40.6691800" lon="-2.4090310">
        <ele>1022.2</ele>
        <time>2019-07-06T14:14:18Z</time>
      </trkpt>
      <trkpt lat="40.6691730" lon="-2.4091330">
        <ele>1023.2</ele>
        <time>2019-07-06T14:14:21Z</time>
      </trkpt>
      <trkpt lat="40.6691760" lon="-2.4092250">
        <ele>1024.0</ele>
        <time>2019-07-06T14:14:24Z</time>
      </trkpt>
      <trkpt lat="40.6691860" lon="-2.4093170">
        <ele>1024.4</ele>
        <time>2019-07-06T14:14:27Z</time>
      </trkpt>
      <trkpt lat="40.6692030" lon="-2.4094260">
        <ele>1025.6</ele>
        <time>2019-07-06T14:14:31Z</time>
      </trkpt>
      <trkpt lat="40.6692090" lon="-2.4094760">
        <ele>1026.0</ele>
        <time>2019-07-06T14:14:33Z</time>
      </trkpt>
      <trkpt lat="40.6692170" lon="-2.4095230">
        <ele>1026.8</ele>
        <time>2019-07-06T14:14:35Z</time>
      </trkpt>
      <trkpt lat="40.6692300" lon="-2.4095880">
        <ele>1028.2</ele>
        <time>2019-07-06T14:14:38Z</time>
      </trkpt>
      <trkpt lat="40.6692430" lon="-2.4096820">
        <ele>1028.4</ele>
        <time>2019-07-06T14:14:42Z</time>
      </trkpt>
      <trkpt lat="40.6692580" lon="-2.4097830">
        <ele>1029.2</ele>
        <time>2019-07-06T14:14:46Z</time>
      </trkpt>
      <trkpt lat="40.6692730" lon="-2.4098930">
        <ele>1029.8</ele>
        <time>2019-07-06T14:14:50Z</time>
      </trkpt>
      <trkpt lat="40.6692840" lon="-2.4099770">
        <ele>1030.4</ele>
        <time>2019-07-06T14:14:53Z</time>
      </trkpt>
      <trkpt lat="40.6693190" lon="-2.4101710">
        <ele>1031.2</ele>
        <time>2019-07-06T14:15:00Z</time>
      </trkpt>
      <trkpt lat="40.6693340" lon="-2.4102230">
        <ele>1031.4</ele>
        <time>2019-07-06T14:15:02Z</time>
      </trkpt>
      <trkpt lat="40.6693810" lon="-2.4103800">
        <ele>1032.4</ele>
        <time>2019-07-06T14:15:08Z</time>
      </trkpt>
      <trkpt lat="40.6694150" lon="-2.4104830">
        <ele>1033.8</ele>
        <time>2019-07-06T14:15:12Z</time>
      </trkpt>
      <trkpt lat="40.6694560" lon="-2.4105760">
        <ele>1034.6</ele>
        <time>2019-07-06T14:15:16Z</time>
      </trkpt>
      <trkpt lat="40.6694660" lon="-2.4105980">
        <ele>1034.8</ele>
        <time>2019-07-06T14:15:17Z</time>
      </trkpt>
      <trkpt lat="40.6695390" lon="-2.4107720">
        <ele>1035.6</ele>
        <time>2019-07-06T14:15:24Z</time>
      </trkpt>
      <trkpt lat="40.6696190" lon="-2.4109140">
        <ele>1036.6</ele>
        <time>2019-07-06T14:15:30Z</time>
      </trkpt>
      <trkpt lat="40.6696350" lon="-2.4109360">
        <ele>1036.6</ele>
        <time>2019-07-06T14:15:31Z</time>
      </trkpt>
      <trkpt lat="40.6697230" lon="-2.4110790">
        <ele>1037.6</ele>
        <time>2019-07-06T14:15:37Z</time>
      </trkpt>
      <trkpt lat="40.6697580" lon="-2.4111560">
        <ele>1037.8</ele>
        <time>2019-07-06T14:15:40Z</time>
      </trkpt>
      <trkpt lat="40.6698020" lon="-2.4112590">
        <ele>1038.8</ele>
        <time>2019-07-06T14:15:44Z</time>
      </trkpt>
      <trkpt lat="40.6698120" lon="-2.4112860">
        <ele>1039.0</ele>
        <time>2019-07-06T14:15:45Z</time>
      </trkpt>
      <trkpt lat="40.6698540" lon="-2.4114160">
        <ele>1039.8</ele>
        <time>2019-07-06T14:15:50Z</time>
      </trkpt>
      <trkpt lat="40.6698780" lon="-2.4114940">
        <ele>1040.6</ele>
        <time>2019-07-06T14:15:53Z</time>
      </trkpt>
      <trkpt lat="40.6698940" lon="-2.4115470">
        <ele>1041.0</ele>
        <time>2019-07-06T14:15:55Z</time>
      </trkpt>
      <trkpt lat="40.6699320" lon="-2.4116700">
        <ele>1042.2</ele>
        <time>2019-07-06T14:16:00Z</time>
      </trkpt>
      <trkpt lat="40.6699430" lon="-2.4116930">
        <ele>1042.6</ele>
        <time>2019-07-06T14:16:01Z</time>
      </trkpt>
      <trkpt lat="40.6699700" lon="-2.4117360">
        <ele>1043.2</ele>
        <time>2019-07-06T14:16:03Z</time>
      </trkpt>
      <trkpt lat="40.6700330" lon="-2.4118150">
        <ele>1044.2</ele>
        <time>2019-07-06T14:16:07Z</time>
      </trkpt>
      <trkpt lat="40.6700490" lon="-2.4118330">
        <ele>1044.4</ele>
        <time>2019-07-06T14:16:08Z</time>
      </trkpt>
      <trkpt lat="40.6700810" lon="-2.4118660">
        <ele>1045.4</ele>
        <time>2019-07-06T14:16:10Z</time>
      </trkpt>
      <trkpt lat="40.6701620" lon="-2.4119410">
        <ele>1046.6</ele>
        <time>2019-07-06T14:16:15Z</time>
      </trkpt>
      <trkpt lat="40.6701970" lon="-2.4119650">
        <ele>1046.8</ele>
        <time>2019-07-06T14:16:17Z</time>
      </trkpt>
      <trkpt lat="40.6702440" lon="-2.4120040">
        <ele>1047.6</ele>
        <time>2019-07-06T14:16:20Z</time>
      </trkpt>
      <trkpt lat="40.6703010" lon="-2.4120580">
        <ele>1048.6</ele>
        <time>2019-07-06T14:16:24Z</time>
      </trkpt>
      <trkpt lat="40.6703130" lon="-2.4120750">
        <ele>1049.0</ele>
        <time>2019-07-06T14:16:25Z</time>
      </trkpt>
      <trkpt lat="40.6703770" lon="-2.4121490">
        <ele>1049.8</ele>
        <time>2019-07-06T14:16:30Z</time>
      </trkpt>
      <trkpt lat="40.6704210" lon="-2.4122130">
        <ele>1051.0</ele>
        <time>2019-07-06T14:16:34Z</time>
      </trkpt>
      <trkpt lat="40.6704880" lon="-2.4122940">
        <ele>1052.0</ele>
        <time>2019-07-06T14:16:39Z</time>
      </trkpt>
      <trkpt lat="40.6705380" lon="-2.4123650">
        <ele>1052.4</ele>
        <time>2019-07-06T14:16:43Z</time>
      </trkpt>
      <trkpt lat="40.6705520" lon="-2.4123820">
        <ele>1052.6</ele>
        <time>2019-07-06T14:16:44Z</time>
      </trkpt>
      <trkpt lat="40.6706100" lon="-2.4124450">
        <ele>1053.0</ele>
        <time>2019-07-06T14:16:48Z</time>
      </trkpt>
      <trkpt lat="40.6706610" lon="-2.4125110">
        <ele>1053.8</ele>
        <time>2019-07-06T14:16:52Z</time>
      </trkpt>
      <trkpt lat="40.6706740" lon="-2.4125270">
        <ele>1054.0</ele>
        <time>2019-07-06T14:16:53Z</time>
      </trkpt>
      <trkpt lat="40.6707140" lon="-2.4125780">
        <ele>1055.2</ele>
        <time>2019-07-06T14:16:56Z</time>
      </trkpt>
      <trkpt lat="40.6707930" lon="-2.4126930">
        <ele>1056.2</ele>
        <time>2019-07-06T14:17:02Z</time>
      </trkpt>
      <trkpt lat="40.6708650" lon="-2.4127710">
        <ele>1057.2</ele>
        <time>2019-07-06T14:17:06Z</time>
      </trkpt>
      <trkpt lat="40.6709190" lon="-2.4128440">
        <ele>1057.8</ele>
        <time>2019-07-06T14:17:09Z</time>
      </trkpt>
      <trkpt lat="40.6710280" lon="-2.4129600">
        <ele>1058.2</ele>
        <time>2019-07-06T14:17:14Z</time>
      </trkpt>
      <trkpt lat="40.6710760" lon="-2.4130100">
        <ele>1058.6</ele>
        <time>2019-07-06T14:17:16Z</time>
      </trkpt>
      <trkpt lat="40.6711440" lon="-2.4130840">
        <ele>1059.4</ele>
        <time>2019-07-06T14:17:19Z</time>
      </trkpt>
      <trkpt lat="40.6712600" lon="-2.4132360">
        <ele>1059.8</ele>
        <time>2019-07-06T14:17:25Z</time>
      </trkpt>
      <trkpt lat="40.6712970" lon="-2.4132790">
        <ele>1060.2</ele>
        <time>2019-07-06T14:17:27Z</time>
      </trkpt>
      <trkpt lat="40.6713610" lon="-2.4133640">
        <ele>1061.4</ele>
        <time>2019-07-06T14:17:31Z</time>
      </trkpt>
      <trkpt lat="40.6714090" lon="-2.4134300">
        <ele>1061.8</ele>
        <time>2019-07-06T14:17:34Z</time>
      </trkpt>
      <trkpt lat="40.6714750" lon="-2.4135360">
        <ele>1062.6</ele>
        <time>2019-07-06T14:17:38Z</time>
      </trkpt>
      <trkpt lat="40.6715480" lon="-2.4136360">
        <ele>1063.8</ele>
        <time>2019-07-06T14:17:42Z</time>
      </trkpt>
      <trkpt lat="40.6716430" lon="-2.4137580">
        <ele>1065.0</ele>
        <time>2019-07-06T14:17:47Z</time>
      </trkpt>
      <trkpt lat="40.6717170" lon="-2.4138610">
        <ele>1066.2</ele>
        <time>2019-07-06T14:17:51Z</time>
      </trkpt>
      <trkpt lat="40.6717580" lon="-2.4139100">
        <ele>1066.8</ele>
        <time>2019-07-06T14:17:53Z</time>
      </trkpt>
      <trkpt lat="40.6718570" lon="-2.4140250">
        <ele>1067.4</ele>
        <time>2019-07-06T14:17:58Z</time>
      </trkpt>
      <trkpt lat="40.6719100" lon="-2.4140960">
        <ele>1068.6</ele>
        <time>2019-07-06T14:18:01Z</time>
      </trkpt>
      <trkpt lat="40.6719290" lon="-2.4141180">
        <ele>1068.8</ele>
        <time>2019-07-06T14:18:02Z</time>
      </trkpt>
      <trkpt lat="40.6720370" lon="-2.4142630">
        <ele>1069.6</ele>
        <time>2019-07-06T14:18:08Z</time>
      </trkpt>
      <trkpt lat="40.6720800" lon="-2.4143120">
        <ele>1069.8</ele>
        <time>2019-07-06T14:18:10Z</time>
      </trkpt>
      <trkpt lat="40.6721950" lon="-2.4144360">
        <ele>1070.4</ele>
        <time>2019-07-06T14:18:15Z</time>
      </trkpt>
      <trkpt lat="40.6722570" lon="-2.4145140">
        <ele>1070.8</ele>
        <time>2019-07-06T14:18:18Z</time>
      </trkpt>
      <trkpt lat="40.6723260" lon="-2.4146250">
        <ele>1071.6</ele>
        <time>2019-07-06T14:18:22Z</time>
      </trkpt>
      <trkpt lat="40.6723890" lon="-2.4147240">
        <ele>1072.2</ele>
        <time>2019-07-06T14:18:26Z</time>
      </trkpt>
      <trkpt lat="40.6724200" lon="-2.4147670">
        <ele>1072.8</ele>
        <time>2019-07-06T14:18:28Z</time>
      </trkpt>
      <trkpt lat="40.6724970" lon="-2.4148760">
        <ele>1073.8</ele>
        <time>2019-07-06T14:18:33Z</time>
      </trkpt>
      <trkpt lat="40.6725580" lon="-2.4149650">
        <ele>1074.6</ele>
        <time>2019-07-06T14:18:37Z</time>
      </trkpt>
      <trkpt lat="40.6725880" lon="-2.4150120">
        <ele>1075.0</ele>
        <time>2019-07-06T14:18:39Z</time>
      </trkpt>
      <trkpt lat="40.6726760" lon="-2.4151580">
        <ele>1075.8</ele>
        <time>2019-07-06T14:18:45Z</time>
      </trkpt>
      <trkpt lat="40.6726890" lon="-2.4151860">
        <ele>1076.0</ele>
        <time>2019-07-06T14:18:46Z</time>
      </trkpt>
      <trkpt lat="40.6727400" lon="-2.4153500">
        <ele>1077.0</ele>
        <time>2019-07-06T14:18:51Z</time>
      </trkpt>
      <trkpt lat="40.6727500" lon="-2.4153860">
        <ele>1077.2</ele>
        <time>2019-07-06T14:18:52Z</time>
      </trkpt>
      <trkpt lat="40.6728150" lon="-2.4156180">
        <ele>1078.2</ele>
        <time>2019-07-06T14:18:58Z</time>
      </trkpt>
      <trkpt lat="40.6728350" lon="-2.4157000">
        <ele>1078.4</ele>
        <time>2019-07-06T14:19:00Z</time>
      </trkpt>
      <trkpt lat="40.6729040" lon="-2.4159350">
        <ele>1079.0</ele>
        <time>2019-07-06T14:19:06Z</time>
      </trkpt>
      <trkpt lat="40.6729150" lon="-2.4159760">
        <ele>1079.2</ele>
        <time>2019-07-06T14:19:07Z</time>
      </trkpt>
      <trkpt lat="40.6729830" lon="-2.4161650">
        <ele>1080.2</ele>
        <time>2019-07-06T14:19:12Z</time>
      </trkpt>
      <trkpt lat="40.6730130" lon="-2.4162400">
        <ele>1080.6</ele>
        <time>2019-07-06T14:19:14Z</time>
      </trkpt>
      <trkpt lat="40.6730720" lon="-2.4163830">
        <ele>1081.4</ele>
        <time>2019-07-06T14:19:18Z</time>
      </trkpt>
      <trkpt lat="40.6731530" lon="-2.4165860">
        <ele>1082.4</ele>
        <time>2019-07-06T14:19:24Z</time>
      </trkpt>
      <trkpt lat="40.6732010" lon="-2.4167140">
        <ele>1083.8</ele>
        <time>2019-07-06T14:19:28Z</time>
      </trkpt>
      <trkpt lat="40.6732770" lon="-2.4169000">
        <ele>1084.4</ele>
        <time>2019-07-06T14:19:34Z</time>
      </trkpt>
      <trkpt lat="40.6732870" lon="-2.4169310">
        <ele>1084.8</ele>
        <time>2019-07-06T14:19:35Z</time>
      </trkpt>
      <trkpt lat="40.6733410" lon="-2.4171530">
        <ele>1086.0</ele>
        <time>2019-07-06T14:19:42Z</time>
      </trkpt>
      <trkpt lat="40.6733540" lon="-2.4172780">
        <ele>1087.0</ele>
        <time>2019-07-06T14:19:46Z</time>
      </trkpt>
      <trkpt lat="40.6733590" lon="-2.4173650">
        <ele>1087.8</ele>
        <time>2019-07-06T14:19:49Z</time>
      </trkpt>
      <trkpt lat="40.6733620" lon="-2.4174210">
        <ele>1088.4</ele>
        <time>2019-07-06T14:19:51Z</time>
      </trkpt>
      <trkpt lat="40.6733610" lon="-2.4176220">
        <ele>1089.2</ele>
        <time>2019-07-06T14:19:58Z</time>
      </trkpt>
      <trkpt lat="40.6733600" lon="-2.4176500">
        <ele>1089.6</ele>
        <time>2019-07-06T14:19:59Z</time>
      </trkpt>
      <trkpt lat="40.6733590" lon="-2.4177920">
        <ele>1091.0</ele>
        <time>2019-07-06T14:20:04Z</time>
      </trkpt>
      <trkpt lat="40.6733630" lon="-2.4178790">
        <ele>1092.0</ele>
        <time>2019-07-06T14:20:07Z</time>
      </trkpt>
      <trkpt lat="40.6733690" lon="-2.4179680">
        <ele>1093.2</ele>
        <time>2019-07-06T14:20:10Z</time>
      </trkpt>
      <trkpt lat="40.6733730" lon="-2.4180920">
        <ele>1094.2</ele>
        <time>2019-07-06T14:20:14Z</time>
      </trkpt>
      <trkpt lat="40.6733770" lon="-2.4182110">
        <ele>1095.0</ele>
        <time>2019-07-06T14:20:18Z</time>
      </trkpt>
      <trkpt lat="40.6733780" lon="-2.4182390">
        <ele>1095.2</ele>
        <time>2019-07-06T14:20:19Z</time>
      </trkpt>
      <trkpt lat="40.6733860" lon="-2.4183250">
        <ele>1096.4</ele>
        <time>2019-07-06T14:20:22Z</time>
      </trkpt>
      <trkpt lat="40.6733820" lon="-2.4184440">
        <ele>1097.2</ele>
        <time>2019-07-06T14:20:26Z</time>
      </trkpt>
      <trkpt lat="40.6733830" lon="-2.4184730">
        <ele>1097.6</ele>
        <time>2019-07-06T14:20:27Z</time>
      </trkpt>
      <trkpt lat="40.6733740" lon="-2.4185870">
        <ele>1098.6</ele>
        <time>2019-07-06T14:20:31Z</time>
      </trkpt>
      <trkpt lat="40.6733720" lon="-2.4186150">
        <ele>1098.8</ele>
        <time>2019-07-06T14:20:32Z</time>
      </trkpt>
      <trkpt lat="40.6733530" lon="-2.4187240">
        <ele>1099.6</ele>
        <time>2019-07-06T14:20:36Z</time>
      </trkpt>
      <trkpt lat="40.6733400" lon="-2.4188090">
        <ele>1100.6</ele>
        <time>2019-07-06T14:20:39Z</time>
      </trkpt>
      <trkpt lat="40.6733060" lon="-2.4189990">
        <ele>1101.6</ele>
        <time>2019-07-06T14:20:46Z</time>
      </trkpt>
      <trkpt lat="40.6733040" lon="-2.4190290">
        <ele>1102.0</ele>
        <time>2019-07-06T14:20:47Z</time>
      </trkpt>
      <trkpt lat="40.6733010" lon="-2.4192070">
        <ele>1102.8</ele>
        <time>2019-07-06T14:20:53Z</time>
      </trkpt>
      <trkpt lat="40.6733040" lon="-2.4193010">
        <ele>1103.2</ele>
        <time>2019-07-06T14:20:56Z</time>
      </trkpt>
      <trkpt lat="40.6733100" lon="-2.4194780">
        <ele>1104.2</ele>
        <time>2019-07-06T14:21:01Z</time>
      </trkpt>
      <trkpt lat="40.6733230" lon="-2.4197620">
        <ele>1105.2</ele>
        <time>2019-07-06T14:21:08Z</time>
      </trkpt>
      <trkpt lat="40.6733240" lon="-2.4198030">
        <ele>1105.6</ele>
        <time>2019-07-06T14:21:09Z</time>
      </trkpt>
      <trkpt lat="40.6733290" lon="-2.4200330">
        <ele>1106.4</ele>
        <time>2019-07-06T14:21:15Z</time>
      </trkpt>
      <trkpt lat="40.6733310" lon="-2.4200700">
        <ele>1106.4</ele>
        <time>2019-07-06T14:21:16Z</time>
      </trkpt>
      <trkpt lat="40.6733400" lon="-2.4202510">
        <ele>1107.6</ele>
        <time>2019-07-06T14:21:21Z</time>
      </trkpt>
      <trkpt lat="40.6733400" lon="-2.4203570">
        <ele>1108.0</ele>
        <time>2019-07-06T14:21:24Z</time>
      </trkpt>
      <trkpt lat="40.6733420" lon="-2.4205420">
        <ele>1108.6</ele>
        <time>2019-07-06T14:21:29Z</time>
      </trkpt>
      <trkpt lat="40.6733460" lon="-2.4206500">
        <ele>1109.6</ele>
        <time>2019-07-06T14:21:32Z</time>
      </trkpt>
      <trkpt lat="40.6733470" lon="-2.4206870">
        <ele>1109.8</ele>
        <time>2019-07-06T14:21:33Z</time>
      </trkpt>
      <trkpt lat="40.6733480" lon="-2.4209360">
        <ele>1110.8</ele>
        <time>2019-07-06T14:21:40Z</time>
      </trkpt>
      <trkpt lat="40.6733500" lon="-2.4210420">
        <ele>1111.6</ele>
        <time>2019-07-06T14:21:43Z</time>
      </trkpt>
      <trkpt lat="40.6733540" lon="-2.4211140">
        <ele>1112.0</ele>
        <time>2019-07-06T14:21:45Z</time>
      </trkpt>
      <trkpt lat="40.6733710" lon="-2.4213210">
        <ele>1113.0</ele>
        <time>2019-07-06T14:21:51Z</time>
      </trkpt>
      <trkpt lat="40.6733750" lon="-2.4213540">
        <ele>1113.4</ele>
        <time>2019-07-06T14:21:52Z</time>
      </trkpt>
      <trkpt lat="40.6733820" lon="-2.4214430">
        <ele>1114.2</ele>
        <time>2019-07-06T14:21:55Z</time>
      </trkpt>
      <trkpt lat="40.6733920" lon="-2.4215610">
        <ele>1115.6</ele>
        <time>2019-07-06T14:21:59Z</time>
      </trkpt>
      <trkpt lat="40.6733950" lon="-2.4215920">
        <ele>1115.8</ele>
        <time>2019-07-06T14:22:00Z</time>
      </trkpt>
      <trkpt lat="40.6734020" lon="-2.4217920">
        <ele>1116.6</ele>
        <time>2019-07-06T14:22:06Z</time>
      </trkpt>
      <trkpt lat="40.6734020" lon="-2.4218280">
        <ele>1116.8</ele>
        <time>2019-07-06T14:22:07Z</time>
      </trkpt>
      <trkpt lat="40.6734060" lon="-2.4221860">
        <ele>1117.6</ele>
        <time>2019-07-06T14:22:16Z</time>
      </trkpt>
      <trkpt lat="40.6734080" lon="-2.4222270">
        <ele>1117.8</ele>
        <time>2019-07-06T14:22:17Z</time>
      </trkpt>
      <trkpt lat="40.6734240" lon="-2.4225140">
        <ele>1119.0</ele>
        <time>2019-07-06T14:22:24Z</time>
      </trkpt>
      <trkpt lat="40.6734250" lon="-2.4225550">
        <ele>1119.0</ele>
        <time>2019-07-06T14:22:25Z</time>
      </trkpt>
      <trkpt lat="40.6734310" lon="-2.4228650">
        <ele>1119.2</ele>
        <time>2019-07-06T14:22:32Z</time>
      </trkpt>
      <trkpt lat="40.6734310" lon="-2.4229560">
        <ele>1119.2</ele>
        <time>2019-07-06T14:22:34Z</time>
      </trkpt>
      <trkpt lat="40.6734530" lon="-2.4232070">
        <ele>1119.8</ele>
        <time>2019-07-06T14:22:40Z</time>
      </trkpt>
      <trkpt lat="40.6734550" lon="-2.4232440">
        <ele>1120.0</ele>
        <time>2019-07-06T14:22:41Z</time>
      </trkpt>
      <trkpt lat="40.6734640" lon="-2.4235360">
        <ele>1121.0</ele>
        <time>2019-07-06T14:22:49Z</time>
      </trkpt>
      <trkpt lat="40.6734630" lon="-2.4235730">
        <ele>1121.4</ele>
        <time>2019-07-06T14:22:50Z</time>
      </trkpt>
      <trkpt lat="40.6734700" lon="-2.4236890">
        <ele>1122.2</ele>
        <time>2019-07-06T14:22:53Z</time>
      </trkpt>
      <trkpt lat="40.6734780" lon="-2.4238420">
        <ele>1122.8</ele>
        <time>2019-07-06T14:22:57Z</time>
      </trkpt>
      <trkpt lat="40.6734930" lon="-2.4239870">
        <ele>1123.2</ele>
        <time>2019-07-06T14:23:01Z</time>
      </trkpt>
      <trkpt lat="40.6735080" lon="-2.4241150">
        <ele>1124.4</ele>
        <time>2019-07-06T14:23:05Z</time>
      </trkpt>
      <trkpt lat="40.6735260" lon="-2.4242350">
        <ele>1125.6</ele>
        <time>2019-07-06T14:23:09Z</time>
      </trkpt>
      <trkpt lat="40.6735440" lon="-2.4243860">
        <ele>1126.8</ele>
        <time>2019-07-06T14:23:14Z</time>
      </trkpt>
      <trkpt lat="40.6735840" lon="-2.4245610">
        <ele>1127.8</ele>
        <time>2019-07-06T14:23:20Z</time>
      </trkpt>
      <trkpt lat="40.6735930" lon="-2.4245890">
        <ele>1128.0</ele>
        <time>2019-07-06T14:23:21Z</time>
      </trkpt>
      <trkpt lat="40.6736500" lon="-2.4246840">
        <ele>1128.8</ele>
        <time>2019-07-06T14:23:25Z</time>
      </trkpt>
      <trkpt lat="40.6737120" lon="-2.4247410">
        <ele>1129.2</ele>
        <time>2019-07-06T14:23:28Z</time>
      </trkpt>
      <trkpt lat="40.6738120" lon="-2.4247850">
        <ele>1129.6</ele>
        <time>2019-07-06T14:23:32Z</time>
      </trkpt>
      <trkpt lat="40.6738930" lon="-2.4248270">
        <ele>1130.2</ele>
        <time>2019-07-06T14:23:35Z</time>
      </trkpt>
      <trkpt lat="40.6740670" lon="-2.4249080">
        <ele>1130.6</ele>
        <time>2019-07-06T14:23:41Z</time>
      </trkpt>
      <trkpt lat="40.6741240" lon="-2.4249380">
        <ele>1131.0</ele>
        <time>2019-07-06T14:23:43Z</time>
      </trkpt>
      <trkpt lat="40.6742020" lon="-2.4250150">
        <ele>1131.6</ele>
        <time>2019-07-06T14:23:46Z</time>
      </trkpt>
      <trkpt lat="40.6742740" lon="-2.4251240">
        <ele>1131.8</ele>
        <time>2019-07-06T14:23:49Z</time>
      </trkpt>
      <trkpt lat="40.6744230" lon="-2.4253240">
        <ele>1131.8</ele>
        <time>2019-07-06T14:23:55Z</time>
      </trkpt>
      <trkpt lat="40.6745750" lon="-2.4254090">
        <ele>1132.2</ele>
        <time>2019-07-06T14:24:00Z</time>
      </trkpt>
      <trkpt lat="40.6747920" lon="-2.4254300">
        <ele>1132.6</ele>
        <time>2019-07-06T14:24:06Z</time>
      </trkpt>
      <trkpt lat="40.6748290" lon="-2.4254310">
        <ele>1132.6</ele>
        <time>2019-07-06T14:24:07Z</time>
      </trkpt>
      <trkpt lat="40.6750590" lon="-2.4254600">
        <ele>1133.8</ele>
        <time>2019-07-06T14:24:13Z</time>
      </trkpt>
      <trkpt lat="40.6751380" lon="-2.4254770">
        <ele>1134.0</ele>
        <time>2019-07-06T14:24:15Z</time>
      </trkpt>
      <trkpt lat="40.6753520" lon="-2.4255510">
        <ele>1134.2</ele>
        <time>2019-07-06T14:24:21Z</time>
      </trkpt>
      <trkpt lat="40.6754410" lon="-2.4256060">
        <ele>1135.0</ele>
        <time>2019-07-06T14:24:24Z</time>
      </trkpt>
      <trkpt lat="40.6755400" lon="-2.4257000">
        <ele>1136.0</ele>
        <time>2019-07-06T14:24:28Z</time>
      </trkpt>
      <trkpt lat="40.6755620" lon="-2.4257290">
        <ele>1136.0</ele>
        <time>2019-07-06T14:24:29Z</time>
      </trkpt>
      <trkpt lat="40.6756620" lon="-2.4259390">
        <ele>1137.2</ele>
        <time>2019-07-06T14:24:35Z</time>
      </trkpt>
      <trkpt lat="40.6757050" lon="-2.4261030">
        <ele>1138.6</ele>
        <time>2019-07-06T14:24:40Z</time>
      </trkpt>
      <trkpt lat="40.6757200" lon="-2.4261670">
        <ele>1139.2</ele>
        <time>2019-07-06T14:24:42Z</time>
      </trkpt>
      <trkpt lat="40.6757350" lon="-2.4262330">
        <ele>1139.8</ele>
        <time>2019-07-06T14:24:44Z</time>
      </trkpt>
      <trkpt lat="40.6757580" lon="-2.4263730">
        <ele>1141.0</ele>
        <time>2019-07-06T14:24:48Z</time>
      </trkpt>
      <trkpt lat="40.6757650" lon="-2.4264090">
        <ele>1141.0</ele>
        <time>2019-07-06T14:24:49Z</time>
      </trkpt>
      <trkpt lat="40.6758040" lon="-2.4266240">
        <ele>1141.8</ele>
        <time>2019-07-06T14:24:55Z</time>
      </trkpt>
      <trkpt lat="40.6758350" lon="-2.4267210">
        <ele>1142.4</ele>
        <time>2019-07-06T14:24:58Z</time>
      </trkpt>
      <trkpt lat="40.6758600" lon="-2.4268190">
        <ele>1143.0</ele>
        <time>2019-07-06T14:25:01Z</time>
      </trkpt>
      <trkpt lat="40.6758890" lon="-2.4269860">
        <ele>1144.0</ele>
        <time>2019-07-06T14:25:06Z</time>
      </trkpt>
      <trkpt lat="40.6758970" lon="-2.4270210">
        <ele>1144.2</ele>
        <time>2019-07-06T14:25:07Z</time>
      </trkpt>
      <trkpt lat="40.6759200" lon="-2.4271900">
        <ele>1145.2</ele>
        <time>2019-07-06T14:25:12Z</time>
      </trkpt>
      <trkpt lat="40.6759290" lon="-2.4272530">
        <ele>1145.6</ele>
        <time>2019-07-06T14:25:14Z</time>
      </trkpt>
      <trkpt lat="40.6759380" lon="-2.4273470">
        <ele>1146.4</ele>
        <time>2019-07-06T14:25:17Z</time>
      </trkpt>
      <trkpt lat="40.6759490" lon="-2.4274780">
        <ele>1147.4</ele>
        <time>2019-07-06T14:25:21Z</time>
      </trkpt>
      <trkpt lat="40.6759600" lon="-2.4275810">
        <ele>1148.2</ele>
        <time>2019-07-06T14:25:24Z</time>
      </trkpt>
      <trkpt lat="40.6759720" lon="-2.4276540">
        <ele>1148.4</ele>
        <time>2019-07-06T14:25:26Z</time>
      </trkpt>
      <trkpt lat="40.6760190" lon="-2.4277480">
        <ele>1148.6</ele>
        <time>2019-07-06T14:25:29Z</time>
      </trkpt>
      <trkpt lat="40.6760930" lon="-2.4278500">
        <ele>1149.8</ele>
        <time>2019-07-06T14:25:33Z</time>
      </trkpt>
      <trkpt lat="40.6761480" lon="-2.4279310">
        <ele>1150.2</ele>
        <time>2019-07-06T14:25:36Z</time>
      </trkpt>
      <trkpt lat="40.6761740" lon="-2.4281900">
        <ele>1150.6</ele>
        <time>2019-07-06T14:25:42Z</time>
      </trkpt>
      <trkpt lat="40.6760770" lon="-2.4284540">
        <ele>1150.4</ele>
        <time>2019-07-06T14:25:47Z</time>
      </trkpt>
      <trkpt lat="40.6758930" lon="-2.4287730">
        <ele>1150.4</ele>
        <time>2019-07-06T14:25:53Z</time>
      </trkpt>
      <trkpt lat="40.6757270" lon="-2.4290670">
        <ele>1150.4</ele>
        <time>2019-07-06T14:25:59Z</time>
      </trkpt>
      <trkpt lat="40.6757000" lon="-2.4291170">
        <ele>1150.6</ele>
        <time>2019-07-06T14:26:00Z</time>
      </trkpt>
      <trkpt lat="40.6756730" lon="-2.4291680">
        <ele>1150.6</ele>
        <time>2019-07-06T14:26:01Z</time>
      </trkpt>
      <trkpt lat="40.6755190" lon="-2.4294650">
        <ele>1151.4</ele>
        <time>2019-07-06T14:26:07Z</time>
      </trkpt>
      <trkpt lat="40.6754970" lon="-2.4295080">
        <ele>1151.6</ele>
        <time>2019-07-06T14:26:08Z</time>
      </trkpt>
      <trkpt lat="40.6753870" lon="-2.4297180">
        <ele>1152.8</ele>
        <time>2019-07-06T14:26:13Z</time>
      </trkpt>
      <trkpt lat="40.6753460" lon="-2.4297990">
        <ele>1153.2</ele>
        <time>2019-07-06T14:26:15Z</time>
      </trkpt>
      <trkpt lat="40.6752370" lon="-2.4300200">
        <ele>1153.6</ele>
        <time>2019-07-06T14:26:21Z</time>
      </trkpt>
      <trkpt lat="40.6752030" lon="-2.4300940">
        <ele>1153.6</ele>
        <time>2019-07-06T14:26:23Z</time>
      </trkpt>
      <trkpt lat="40.6750950" lon="-2.4303090">
        <ele>1154.4</ele>
        <time>2019-07-06T14:26:29Z</time>
      </trkpt>
      <trkpt lat="40.6750420" lon="-2.4304120">
        <ele>1154.8</ele>
        <time>2019-07-06T14:26:32Z</time>
      </trkpt>
      <trkpt lat="40.6749800" lon="-2.4305460">
        <ele>1155.8</ele>
        <time>2019-07-06T14:26:36Z</time>
      </trkpt>
      <trkpt lat="40.6749680" lon="-2.4305760">
        <ele>1156.0</ele>
        <time>2019-07-06T14:26:37Z</time>
      </trkpt>
      <trkpt lat="40.6748750" lon="-2.4307710">
        <ele>1157.0</ele>
        <time>2019-07-06T14:26:44Z</time>
      </trkpt>
      <trkpt lat="40.6748140" lon="-2.4309000">
        <ele>1158.2</ele>
        <time>2019-07-06T14:26:49Z</time>
      </trkpt>
      <trkpt lat="40.6747750" lon="-2.4309730">
        <ele>1158.8</ele>
        <time>2019-07-06T14:26:52Z</time>
      </trkpt>
      <trkpt lat="40.6747460" lon="-2.4310180">
        <ele>1159.2</ele>
        <time>2019-07-06T14:26:54Z</time>
      </trkpt>
      <trkpt lat="40.6746500" lon="-2.4311840">
        <ele>1160.4</ele>
        <time>2019-07-06T14:27:01Z</time>
      </trkpt>
      <trkpt lat="40.6746030" lon="-2.4312420">
        <ele>1161.4</ele>
        <time>2019-07-06T14:27:04Z</time>
      </trkpt>
      <trkpt lat="40.6745640" lon="-2.4313090">
        <ele>1162.2</ele>
        <time>2019-07-06T14:27:07Z</time>
      </trkpt>
      <trkpt lat="40.6745300" lon="-2.4313760">
        <ele>1162.6</ele>
        <time>2019-07-06T14:27:10Z</time>
      </trkpt>
      <trkpt lat="40.6744740" lon="-2.4314920">
        <ele>1163.8</ele>
        <time>2019-07-06T14:27:15Z</time>
      </trkpt>
      <trkpt lat="40.6744390" lon="-2.4315590">
        <ele>1165.2</ele>
        <time>2019-07-06T14:27:18Z</time>
      </trkpt>
      <trkpt lat="40.6744290" lon="-2.4315810">
        <ele>1165.6</ele>
        <time>2019-07-06T14:27:19Z</time>
      </trkpt>
      <trkpt lat="40.6744250" lon="-2.4316040">
        <ele>1165.8</ele>
        <time>2019-07-06T14:27:20Z</time>
      </trkpt>
      <trkpt lat="40.6744170" lon="-2.4316520">
        <ele>1166.4</ele>
        <time>2019-07-06T14:27:22Z</time>
      </trkpt>
      <trkpt lat="40.6744130" lon="-2.4317020">
        <ele>1166.6</ele>
        <time>2019-07-06T14:27:24Z</time>
      </trkpt>
      <trkpt lat="40.6744120" lon="-2.4318470">
        <ele>1167.6</ele>
        <time>2019-07-06T14:27:29Z</time>
      </trkpt>
      <trkpt lat="40.6744210" lon="-2.4319070">
        <ele>1167.8</ele>
        <time>2019-07-06T14:27:31Z</time>
      </trkpt>
      <trkpt lat="40.6744460" lon="-2.4321410">
        <ele>1168.4</ele>
        <time>2019-07-06T14:27:37Z</time>
      </trkpt>
      <trkpt lat="40.6744480" lon="-2.4321850">
        <ele>1168.6</ele>
        <time>2019-07-06T14:27:38Z</time>
      </trkpt>
      <trkpt lat="40.6744820" lon="-2.4325490">
        <ele>1169.4</ele>
        <time>2019-07-06T14:27:46Z</time>
      </trkpt>
      <trkpt lat="40.6745010" lon="-2.4326760">
        <ele>1169.8</ele>
        <time>2019-07-06T14:27:49Z</time>
      </trkpt>
      <trkpt lat="40.6745260" lon="-2.4327560">
        <ele>1170.0</ele>
        <time>2019-07-06T14:27:51Z</time>
      </trkpt>
      <trkpt lat="40.6746500" lon="-2.4328970">
        <ele>1170.2</ele>
        <time>2019-07-06T14:27:56Z</time>
      </trkpt>
      <trkpt lat="40.6747700" lon="-2.4329450">
        <ele>1170.8</ele>
        <time>2019-07-06T14:28:00Z</time>
      </trkpt>
      <trkpt lat="40.6748560" lon="-2.4329740">
        <ele>1171.2</ele>
        <time>2019-07-06T14:28:03Z</time>
      </trkpt>
      <trkpt lat="40.6749520" lon="-2.4330160">
        <ele>1172.0</ele>
        <time>2019-07-06T14:28:07Z</time>
      </trkpt>
      <trkpt lat="40.6750450" lon="-2.4330460">
        <ele>1172.8</ele>
        <time>2019-07-06T14:28:11Z</time>
      </trkpt>
      <trkpt lat="40.6751530" lon="-2.4330800">
        <ele>1174.0</ele>
        <time>2019-07-06T14:28:16Z</time>
      </trkpt>
      <trkpt lat="40.6751950" lon="-2.4330890">
        <ele>1174.6</ele>
        <time>2019-07-06T14:28:18Z</time>
      </trkpt>
      <trkpt lat="40.6752150" lon="-2.4330960">
        <ele>1175.0</ele>
        <time>2019-07-06T14:28:19Z</time>
      </trkpt>
      <trkpt lat="40.6753370" lon="-2.4331400">
        <ele>1176.0</ele>
        <time>2019-07-06T14:28:25Z</time>
      </trkpt>
      <trkpt lat="40.6753750" lon="-2.4331560">
        <ele>1177.2</ele>
        <time>2019-07-06T14:28:27Z</time>
      </trkpt>
      <trkpt lat="40.6754590" lon="-2.4331890">
        <ele>1178.4</ele>
        <time>2019-07-06T14:28:32Z</time>
      </trkpt>
      <trkpt lat="40.6755100" lon="-2.4332070">
        <ele>1179.2</ele>
        <time>2019-07-06T14:28:35Z</time>
      </trkpt>
      <trkpt lat="40.6755270" lon="-2.4332140">
        <ele>1179.6</ele>
        <time>2019-07-06T14:28:36Z</time>
      </trkpt>
      <trkpt lat="40.6756130" lon="-2.4332520">
        <ele>1180.8</ele>
        <time>2019-07-06T14:28:41Z</time>
      </trkpt>
      <trkpt lat="40.6756810" lon="-2.4332730">
        <ele>1181.8</ele>
        <time>2019-07-06T14:28:45Z</time>
      </trkpt>
      <trkpt lat="40.6756970" lon="-2.4332800">
        <ele>1182.2</ele>
        <time>2019-07-06T14:28:46Z</time>
      </trkpt>
      <trkpt lat="40.6757550" lon="-2.4333190">
        <ele>1183.0</ele>
        <time>2019-07-06T14:28:50Z</time>
      </trkpt>
      <trkpt lat="40.6758010" lon="-2.4333410">
        <ele>1183.6</ele>
        <time>2019-07-06T14:28:53Z</time>
      </trkpt>
      <trkpt lat="40.6758170" lon="-2.4333480">
        <ele>1184.2</ele>
        <time>2019-07-06T14:28:54Z</time>
      </trkpt>
      <trkpt lat="40.6758850" lon="-2.4333740">
        <ele>1185.2</ele>
        <time>2019-07-06T14:28:58Z</time>
      </trkpt>
      <trkpt lat="40.6759550" lon="-2.4333960">
        <ele>1186.2</ele>
        <time>2019-07-06T14:29:02Z</time>
      </trkpt>
      <trkpt lat="40.6759910" lon="-2.4334020">
        <ele>1186.8</ele>
        <time>2019-07-06T14:29:04Z</time>
      </trkpt>
      <trkpt lat="40.6760090" lon="-2.4334050">
        <ele>1187.2</ele>
        <time>2019-07-06T14:29:05Z</time>
      </trkpt>
      <trkpt lat="40.6760960" lon="-2.4334140">
        <ele>1188.2</ele>
        <time>2019-07-06T14:29:10Z</time>
      </trkpt>
      <trkpt lat="40.6761130" lon="-2.4334190">
        <ele>1188.4</ele>
        <time>2019-07-06T14:29:11Z</time>
      </trkpt>
      <trkpt lat="40.6761790" lon="-2.4334370">
        <ele>1189.4</ele>
        <time>2019-07-06T14:29:15Z</time>
      </trkpt>
      <trkpt lat="40.6762510" lon="-2.4334470">
        <ele>1190.4</ele>
        <time>2019-07-06T14:29:19Z</time>
      </trkpt>
      <trkpt lat="40.6762710" lon="-2.4334510">
        <ele>1190.8</ele>
        <time>2019-07-06T14:29:20Z</time>
      </trkpt>
      <trkpt lat="40.6763310" lon="-2.4334650">
        <ele>1191.2</ele>
        <time>2019-07-06T14:29:23Z</time>
      </trkpt>
      <trkpt lat="40.6764460" lon="-2.4334930">
        <ele>1192.2</ele>
        <time>2019-07-06T14:29:29Z</time>
      </trkpt>
      <trkpt lat="40.6764850" lon="-2.4334970">
        <ele>1192.6</ele>
        <time>2019-07-06T14:29:31Z</time>
      </trkpt>
      <trkpt lat="40.6765750" lon="-2.4335180">
        <ele>1193.2</ele>
        <time>2019-07-06T14:29:36Z</time>
      </trkpt>
      <trkpt lat="40.6766100" lon="-2.4335230">
        <ele>1193.6</ele>
        <time>2019-07-06T14:29:38Z</time>
      </trkpt>
      <trkpt lat="40.6767290" lon="-2.4335460">
        <ele>1194.8</ele>
        <time>2019-07-06T14:29:44Z</time>
      </trkpt>
      <trkpt lat="40.6767520" lon="-2.4335490">
        <ele>1195.4</ele>
        <time>2019-07-06T14:29:45Z</time>
      </trkpt>
      <trkpt lat="40.6767740" lon="-2.4335510">
        <ele>1195.8</ele>
        <time>2019-07-06T14:29:46Z</time>
      </trkpt>
      <trkpt lat="40.6768840" lon="-2.4335620">
        <ele>1196.8</ele>
        <time>2019-07-06T14:29:51Z</time>
      </trkpt>
      <trkpt lat="40.6769510" lon="-2.4335690">
        <ele>1196.8</ele>
        <time>2019-07-06T14:29:54Z</time>
      </trkpt>
      <trkpt lat="40.6770900" lon="-2.4335660">
        <ele>1197.8</ele>
        <time>2019-07-06T14:30:00Z</time>
      </trkpt>
      <trkpt lat="40.6771380" lon="-2.4335650">
        <ele>1198.2</ele>
        <time>2019-07-06T14:30:02Z</time>
      </trkpt>
      <trkpt lat="40.6772550" lon="-2.4335670">
        <ele>1198.8</ele>
        <time>2019-07-06T14:30:07Z</time>
      </trkpt>
      <trkpt lat="40.6773050" lon="-2.4335590">
        <ele>1199.4</ele>
        <time>2019-07-06T14:30:09Z</time>
      </trkpt>
      <trkpt lat="40.6774370" lon="-2.4335280">
        <ele>1200.0</ele>
        <time>2019-07-06T14:30:14Z</time>
      </trkpt>
      <trkpt lat="40.6774920" lon="-2.4335160">
        <ele>1200.2</ele>
        <time>2019-07-06T14:30:16Z</time>
      </trkpt>
      <trkpt lat="40.6776340" lon="-2.4334720">
        <ele>1201.0</ele>
        <time>2019-07-06T14:30:21Z</time>
      </trkpt>
      <trkpt lat="40.6776650" lon="-2.4334610">
        <ele>1201.0</ele>
        <time>2019-07-06T14:30:22Z</time>
      </trkpt>
      <trkpt lat="40.6778930" lon="-2.4333320">
        <ele>1202.0</ele>
        <time>2019-07-06T14:30:29Z</time>
      </trkpt>
      <trkpt lat="40.6779970" lon="-2.4332420">
        <ele>1202.2</ele>
        <time>2019-07-06T14:30:32Z</time>
      </trkpt>
      <trkpt lat="40.6780970" lon="-2.4331190">
        <ele>1202.4</ele>
        <time>2019-07-06T14:30:35Z</time>
      </trkpt>
      <trkpt lat="40.6782010" lon="-2.4329840">
        <ele>1202.4</ele>
        <time>2019-07-06T14:30:38Z</time>
      </trkpt>
      <trkpt lat="40.6783000" lon="-2.4328230">
        <ele>1202.0</ele>
        <time>2019-07-06T14:30:41Z</time>
      </trkpt>
      <trkpt lat="40.6784360" lon="-2.4325950">
        <ele>1201.8</ele>
        <time>2019-07-06T14:30:45Z</time>
      </trkpt>
      <trkpt lat="40.6786080" lon="-2.4322870">
        <ele>1201.4</ele>
        <time>2019-07-06T14:30:50Z</time>
      </trkpt>
      <trkpt lat="40.6788550" lon="-2.4318500">
        <ele>1201.6</ele>
        <time>2019-07-06T14:30:57Z</time>
      </trkpt>
      <trkpt lat="40.6789300" lon="-2.4317210">
        <ele>1201.6</ele>
        <time>2019-07-06T14:30:59Z</time>
      </trkpt>
      <trkpt lat="40.6790830" lon="-2.4314470">
        <ele>1200.6</ele>
        <time>2019-07-06T14:31:03Z</time>
      </trkpt>
      <trkpt lat="40.6792750" lon="-2.4311100">
        <ele>1200.2</ele>
        <time>2019-07-06T14:31:08Z</time>
      </trkpt>
      <trkpt lat="40.6796340" lon="-2.4305100">
        <ele>1199.8</ele>
        <time>2019-07-06T14:31:17Z</time>
      </trkpt>
      <trkpt lat="40.6796750" lon="-2.4304470">
        <ele>1199.4</ele>
        <time>2019-07-06T14:31:18Z</time>
      </trkpt>
      <trkpt lat="40.6799120" lon="-2.4300480">
        <ele>1200.0</ele>
        <time>2019-07-06T14:31:25Z</time>
      </trkpt>
      <trkpt lat="40.6799870" lon="-2.4299060">
        <ele>1200.6</ele>
        <time>2019-07-06T14:31:28Z</time>
      </trkpt>
      <trkpt lat="40.6800760" lon="-2.4297150">
        <ele>1201.4</ele>
        <time>2019-07-06T14:31:32Z</time>
      </trkpt>
      <trkpt lat="40.6800960" lon="-2.4296650">
        <ele>1201.6</ele>
        <time>2019-07-06T14:31:33Z</time>
      </trkpt>
      <trkpt lat="40.6801170" lon="-2.4296160">
        <ele>1201.8</ele>
        <time>2019-07-06T14:31:34Z</time>
      </trkpt>
      <trkpt lat="40.6801600" lon="-2.4295190">
        <ele>1202.4</ele>
        <time>2019-07-06T14:31:36Z</time>
      </trkpt>
      <trkpt lat="40.6803310" lon="-2.4291280">
        <ele>1203.4</ele>
        <time>2019-07-06T14:31:44Z</time>
      </trkpt>
      <trkpt lat="40.6803800" lon="-2.4290260">
        <ele>1203.6</ele>
        <time>2019-07-06T14:31:46Z</time>
      </trkpt>
      <trkpt lat="40.6805820" lon="-2.4285850">
        <ele>1203.0</ele>
        <time>2019-07-06T14:31:54Z</time>
      </trkpt>
      <trkpt lat="40.6807700" lon="-2.4281320">
        <ele>1202.6</ele>
        <time>2019-07-06T14:32:01Z</time>
      </trkpt>
      <trkpt lat="40.6807990" lon="-2.4280710">
        <ele>1202.4</ele>
        <time>2019-07-06T14:32:02Z</time>
      </trkpt>
      <trkpt lat="40.6808880" lon="-2.4278990">
        <ele>1202.2</ele>
        <time>2019-07-06T14:32:05Z</time>
      </trkpt>
      <trkpt lat="40.6809770" lon="-2.4277320">
        <ele>1202.0</ele>
        <time>2019-07-06T14:32:08Z</time>
      </trkpt>
      <trkpt lat="40.6810690" lon="-2.4275650">
        <ele>1201.8</ele>
        <time>2019-07-06T14:32:11Z</time>
      </trkpt>
      <trkpt lat="40.6811340" lon="-2.4274540">
        <ele>1201.8</ele>
        <time>2019-07-06T14:32:13Z</time>
      </trkpt>
      <trkpt lat="40.6812350" lon="-2.4272760">
        <ele>1201.4</ele>
        <time>2019-07-06T14:32:16Z</time>
      </trkpt>
      <trkpt lat="40.6813470" lon="-2.4270810">
        <ele>1201.4</ele>
        <time>2019-07-06T14:32:19Z</time>
      </trkpt>
      <trkpt lat="40.6815470" lon="-2.4267180">
        <ele>1200.2</ele>
        <time>2019-07-06T14:32:24Z</time>
      </trkpt>
      <trkpt lat="40.6816210" lon="-2.4265680">
        <ele>1199.8</ele>
        <time>2019-07-06T14:32:26Z</time>
      </trkpt>
      <trkpt lat="40.6817260" lon="-2.4263500">
        <ele>1199.2</ele>
        <time>2019-07-06T14:32:29Z</time>
      </trkpt>
      <trkpt lat="40.6817600" lon="-2.4262830">
        <ele>1199.0</ele>
        <time>2019-07-06T14:32:30Z</time>
      </trkpt>
      <trkpt lat="40.6818270" lon="-2.4261560">
        <ele>1199.0</ele>
        <time>2019-07-06T14:32:32Z</time>
      </trkpt>
      <trkpt lat="40.6819210" lon="-2.4259780">
        <ele>1199.0</ele>
        <time>2019-07-06T14:32:35Z</time>
      </trkpt>
      <trkpt lat="40.6821020" lon="-2.4256470">
        <ele>1199.4</ele>
        <time>2019-07-06T14:32:41Z</time>
      </trkpt>
      <trkpt lat="40.6823280" lon="-2.4252060">
        <ele>1199.4</ele>
        <time>2019-07-06T14:32:50Z</time>
      </trkpt>
      <trkpt lat="40.6824000" lon="-2.4250580">
        <ele>1199.2</ele>
        <time>2019-07-06T14:32:53Z</time>
      </trkpt>
      <trkpt lat="40.6825540" lon="-2.4247430">
        <ele>1198.2</ele>
        <time>2019-07-06T14:32:59Z</time>
      </trkpt>
      <trkpt lat="40.6826730" lon="-2.4244910">
        <ele>1197.6</ele>
        <time>2019-07-06T14:33:03Z</time>
      </trkpt>
      <trkpt lat="40.6827390" lon="-2.4243570">
        <ele>1197.2</ele>
        <time>2019-07-06T14:33:05Z</time>
      </trkpt>
      <trkpt lat="40.6827750" lon="-2.4242890">
        <ele>1196.8</ele>
        <time>2019-07-06T14:33:06Z</time>
      </trkpt>
      <trkpt lat="40.6828930" lon="-2.4240860">
        <ele>1196.6</ele>
        <time>2019-07-06T14:33:09Z</time>
      </trkpt>
      <trkpt lat="40.6829680" lon="-2.4239390">
        <ele>1196.4</ele>
        <time>2019-07-06T14:33:11Z</time>
      </trkpt>
      <trkpt lat="40.6830430" lon="-2.4237810">
        <ele>1195.6</ele>
        <time>2019-07-06T14:33:13Z</time>
      </trkpt>
      <trkpt lat="40.6831740" lon="-2.4234730">
        <ele>1194.4</ele>
        <time>2019-07-06T14:33:17Z</time>
      </trkpt>
      <trkpt lat="40.6832490" lon="-2.4233140">
        <ele>1193.8</ele>
        <time>2019-07-06T14:33:19Z</time>
      </trkpt>
      <trkpt lat="40.6833330" lon="-2.4231670">
        <ele>1193.0</ele>
        <time>2019-07-06T14:33:21Z</time>
      </trkpt>
      <trkpt lat="40.6834180" lon="-2.4230290">
        <ele>1191.8</ele>
        <time>2019-07-06T14:33:23Z</time>
      </trkpt>
      <trkpt lat="40.6834610" lon="-2.4229700">
        <ele>1191.4</ele>
        <time>2019-07-06T14:33:24Z</time>
      </trkpt>
      <trkpt lat="40.6836220" lon="-2.4228330">
        <ele>1190.6</ele>
        <time>2019-07-06T14:33:27Z</time>
      </trkpt>
      <trkpt lat="40.6836940" lon="-2.4227960">
        <ele>1190.2</ele>
        <time>2019-07-06T14:33:28Z</time>
      </trkpt>
      <trkpt lat="40.6837660" lon="-2.4227660">
        <ele>1188.6</ele>
        <time>2019-07-06T14:33:29Z</time>
      </trkpt>
      <trkpt lat="40.6838320" lon="-2.4227430">
        <ele>1186.8</ele>
        <time>2019-07-06T14:33:30Z</time>
      </trkpt>
      <trkpt lat="40.6839700" lon="-2.4227000">
        <ele>1186.0</ele>
        <time>2019-07-06T14:33:32Z</time>
      </trkpt>
      <trkpt lat="40.6840430" lon="-2.4226800">
        <ele>1185.4</ele>
        <time>2019-07-06T14:33:33Z</time>
      </trkpt>
      <trkpt lat="40.6841880" lon="-2.4226490">
        <ele>1184.2</ele>
        <time>2019-07-06T14:33:35Z</time>
      </trkpt>
      <trkpt lat="40.6843900" lon="-2.4226210">
        <ele>1182.2</ele>
        <time>2019-07-06T14:33:38Z</time>
      </trkpt>
      <trkpt lat="40.6844610" lon="-2.4226160">
        <ele>1181.2</ele>
        <time>2019-07-06T14:33:39Z</time>
      </trkpt>
      <trkpt lat="40.6846800" lon="-2.4226320">
        <ele>1179.6</ele>
        <time>2019-07-06T14:33:42Z</time>
      </trkpt>
      <trkpt lat="40.6847550" lon="-2.4226480">
        <ele>1179.2</ele>
        <time>2019-07-06T14:33:43Z</time>
      </trkpt>
      <trkpt lat="40.6849880" lon="-2.4226980">
        <ele>1178.6</ele>
        <time>2019-07-06T14:33:46Z</time>
      </trkpt>
      <trkpt lat="40.6852280" lon="-2.4227450">
        <ele>1177.0</ele>
        <time>2019-07-06T14:33:49Z</time>
      </trkpt>
      <trkpt lat="40.6853910" lon="-2.4227760">
        <ele>1176.0</ele>
        <time>2019-07-06T14:33:51Z</time>
      </trkpt>
      <trkpt lat="40.6856100" lon="-2.4228260">
        <ele>1174.8</ele>
        <time>2019-07-06T14:33:54Z</time>
      </trkpt>
      <trkpt lat="40.6857540" lon="-2.4228570">
        <ele>1174.0</ele>
        <time>2019-07-06T14:33:56Z</time>
      </trkpt>
      <trkpt lat="40.6858240" lon="-2.4228800">
        <ele>1173.6</ele>
        <time>2019-07-06T14:33:57Z</time>
      </trkpt>
      <trkpt lat="40.6859680" lon="-2.4229450">
        <ele>1172.6</ele>
        <time>2019-07-06T14:33:59Z</time>
      </trkpt>
      <trkpt lat="40.6861190" lon="-2.4230340">
        <ele>1171.6</ele>
        <time>2019-07-06T14:34:01Z</time>
      </trkpt>
      <trkpt lat="40.6861930" lon="-2.4230850">
        <ele>1170.4</ele>
        <time>2019-07-06T14:34:02Z</time>
      </trkpt>
      <trkpt lat="40.6863370" lon="-2.4231850">
        <ele>1169.2</ele>
        <time>2019-07-06T14:34:04Z</time>
      </trkpt>
      <trkpt lat="40.6864790" lon="-2.4232640">
        <ele>1168.6</ele>
        <time>2019-07-06T14:34:06Z</time>
      </trkpt>
      <trkpt lat="40.6866130" lon="-2.4233300">
        <ele>1168.0</ele>
        <time>2019-07-06T14:34:08Z</time>
      </trkpt>
      <trkpt lat="40.6868580" lon="-2.4234390">
        <ele>1166.4</ele>
        <time>2019-07-06T14:34:12Z</time>
      </trkpt>
      <trkpt lat="40.6870190" lon="-2.4235080">
        <ele>1164.8</ele>
        <time>2019-07-06T14:34:15Z</time>
      </trkpt>
      <trkpt lat="40.6871180" lon="-2.4235460">
        <ele>1163.8</ele>
        <time>2019-07-06T14:34:17Z</time>
      </trkpt>
      <trkpt lat="40.6871650" lon="-2.4235620">
        <ele>1163.0</ele>
        <time>2019-07-06T14:34:18Z</time>
      </trkpt>
      <trkpt lat="40.6872120" lon="-2.4235780">
        <ele>1162.4</ele>
        <time>2019-07-06T14:34:19Z</time>
      </trkpt>
      <trkpt lat="40.6873100" lon="-2.4236120">
        <ele>1160.8</ele>
        <time>2019-07-06T14:34:21Z</time>
      </trkpt>
      <trkpt lat="40.6874180" lon="-2.4236540">
        <ele>1159.4</ele>
        <time>2019-07-06T14:34:23Z</time>
      </trkpt>
      <trkpt lat="40.6875380" lon="-2.4237080">
        <ele>1158.6</ele>
        <time>2019-07-06T14:34:25Z</time>
      </trkpt>
      <trkpt lat="40.6876020" lon="-2.4237440">
        <ele>1157.6</ele>
        <time>2019-07-06T14:34:26Z</time>
      </trkpt>
      <trkpt lat="40.6877300" lon="-2.4238290">
        <ele>1155.8</ele>
        <time>2019-07-06T14:34:28Z</time>
      </trkpt>
      <trkpt lat="40.6878530" lon="-2.4239190">
        <ele>1155.2</ele>
        <time>2019-07-06T14:34:30Z</time>
      </trkpt>
      <trkpt lat="40.6879820" lon="-2.4239910">
        <ele>1154.4</ele>
        <time>2019-07-06T14:34:32Z</time>
      </trkpt>
      <trkpt lat="40.6881250" lon="-2.4240520">
        <ele>1152.8</ele>
        <time>2019-07-06T14:34:34Z</time>
      </trkpt>
      <trkpt lat="40.6881960" lon="-2.4240750">
        <ele>1152.0</ele>
        <time>2019-07-06T14:34:35Z</time>
      </trkpt>
      <trkpt lat="40.6882630" lon="-2.4240920">
        <ele>1151.6</ele>
        <time>2019-07-06T14:34:36Z</time>
      </trkpt>
      <trkpt lat="40.6884610" lon="-2.4241200">
        <ele>1150.4</ele>
        <time>2019-07-06T14:34:39Z</time>
      </trkpt>
      <trkpt lat="40.6885310" lon="-2.4241260">
        <ele>1150.0</ele>
        <time>2019-07-06T14:34:40Z</time>
      </trkpt>
      <trkpt lat="40.6887390" lon="-2.4241330">
        <ele>1149.4</ele>
        <time>2019-07-06T14:34:43Z</time>
      </trkpt>
      <trkpt lat="40.6888840" lon="-2.4241320">
        <ele>1147.6</ele>
        <time>2019-07-06T14:34:45Z</time>
      </trkpt>
      <trkpt lat="40.6889550" lon="-2.4241300">
        <ele>1147.2</ele>
        <time>2019-07-06T14:34:46Z</time>
      </trkpt>
      <trkpt lat="40.6891030" lon="-2.4241240">
        <ele>1146.4</ele>
        <time>2019-07-06T14:34:48Z</time>
      </trkpt>
      <trkpt lat="40.6892680" lon="-2.4241140">
        <ele>1145.0</ele>
        <time>2019-07-06T14:34:50Z</time>
      </trkpt>
      <trkpt lat="40.6893530" lon="-2.4241100">
        <ele>1144.6</ele>
        <time>2019-07-06T14:34:51Z</time>
      </trkpt>
      <trkpt lat="40.6896730" lon="-2.4241420">
        <ele>1143.8</ele>
        <time>2019-07-06T14:34:55Z</time>
      </trkpt>
      <trkpt lat="40.6897460" lon="-2.4241620">
        <ele>1143.6</ele>
        <time>2019-07-06T14:34:56Z</time>
      </trkpt>
      <trkpt lat="40.6900970" lon="-2.4242080">
        <ele>1143.0</ele>
        <time>2019-07-06T14:35:01Z</time>
      </trkpt>
      <trkpt lat="40.6904620" lon="-2.4241840">
        <ele>1142.8</ele>
        <time>2019-07-06T14:35:06Z</time>
      </trkpt>
      <trkpt lat="40.6905290" lon="-2.4241820">
        <ele>1142.0</ele>
        <time>2019-07-06T14:35:07Z</time>
      </trkpt>
      <trkpt lat="40.6907070" lon="-2.4242060">
        <ele>1140.8</ele>
        <time>2019-07-06T14:35:10Z</time>
      </trkpt>
      <trkpt lat="40.6907650" lon="-2.4242260">
        <ele>1140.4</ele>
        <time>2019-07-06T14:35:11Z</time>
      </trkpt>
      <trkpt lat="40.6908660" lon="-2.4242710">
        <ele>1139.0</ele>
        <time>2019-07-06T14:35:13Z</time>
      </trkpt>
      <trkpt lat="40.6909620" lon="-2.4243190">
        <ele>1137.6</ele>
        <time>2019-07-06T14:35:15Z</time>
      </trkpt>
      <trkpt lat="40.6910070" lon="-2.4243440">
        <ele>1137.2</ele>
        <time>2019-07-06T14:35:16Z</time>
      </trkpt>
      <trkpt lat="40.6910880" lon="-2.4243940">
        <ele>1136.2</ele>
        <time>2019-07-06T14:35:18Z</time>
      </trkpt>
      <trkpt lat="40.6912030" lon="-2.4244680">
        <ele>1135.0</ele>
        <time>2019-07-06T14:35:21Z</time>
      </trkpt>
      <trkpt lat="40.6912780" lon="-2.4245140">
        <ele>1133.4</ele>
        <time>2019-07-06T14:35:23Z</time>
      </trkpt>
      <trkpt lat="40.6913520" lon="-2.4245660">
        <ele>1131.4</ele>
        <time>2019-07-06T14:35:25Z</time>
      </trkpt>
      <trkpt lat="40.6914280" lon="-2.4246260">
        <ele>1130.0</ele>
        <time>2019-07-06T14:35:27Z</time>
      </trkpt>
      <trkpt lat="40.6915280" lon="-2.4247220">
        <ele>1128.6</ele>
        <time>2019-07-06T14:35:30Z</time>
      </trkpt>
      <trkpt lat="40.6915870" lon="-2.4247820">
        <ele>1127.4</ele>
        <time>2019-07-06T14:35:32Z</time>
      </trkpt>
      <trkpt lat="40.6916410" lon="-2.4248460">
        <ele>1126.4</ele>
        <time>2019-07-06T14:35:34Z</time>
      </trkpt>
      <trkpt lat="40.6917150" lon="-2.4249480">
        <ele>1124.8</ele>
        <time>2019-07-06T14:35:37Z</time>
      </trkpt>
      <trkpt lat="40.6917370" lon="-2.4249820">
        <ele>1124.4</ele>
        <time>2019-07-06T14:35:38Z</time>
      </trkpt>
      <trkpt lat="40.6917770" lon="-2.4250470">
        <ele>1123.4</ele>
        <time>2019-07-06T14:35:40Z</time>
      </trkpt>
      <trkpt lat="40.6918440" lon="-2.4251340">
        <ele>1122.4</ele>
        <time>2019-07-06T14:35:43Z</time>
      </trkpt>
      <trkpt lat="40.6918900" lon="-2.4252020">
        <ele>1121.2</ele>
        <time>2019-07-06T14:35:45Z</time>
      </trkpt>
      <trkpt lat="40.6919120" lon="-2.4252440">
        <ele>1120.8</ele>
        <time>2019-07-06T14:35:46Z</time>
      </trkpt>
      <trkpt lat="40.6919350" lon="-2.4252870">
        <ele>1120.0</ele>
        <time>2019-07-06T14:35:47Z</time>
      </trkpt>
      <trkpt lat="40.6919770" lon="-2.4253690">
        <ele>1119.0</ele>
        <time>2019-07-06T14:35:49Z</time>
      </trkpt>
      <trkpt lat="40.6920030" lon="-2.4254400">
        <ele>1117.6</ele>
        <time>2019-07-06T14:35:51Z</time>
      </trkpt>
      <trkpt lat="40.6920070" lon="-2.4254780">
        <ele>1117.0</ele>
        <time>2019-07-06T14:35:52Z</time>
      </trkpt>
      <trkpt lat="40.6920090" lon="-2.4255220">
        <ele>1116.4</ele>
        <time>2019-07-06T14:35:53Z</time>
      </trkpt>
      <trkpt lat="40.6920000" lon="-2.4256080">
        <ele>1115.4</ele>
        <time>2019-07-06T14:35:55Z</time>
      </trkpt>
      <trkpt lat="40.6919850" lon="-2.4256470">
        <ele>1114.8</ele>
        <time>2019-07-06T14:35:56Z</time>
      </trkpt>
      <trkpt lat="40.6919380" lon="-2.4257200">
        <ele>1114.4</ele>
        <time>2019-07-06T14:35:58Z</time>
      </trkpt>
      <trkpt lat="40.6918470" lon="-2.4258000">
        <ele>1113.8</ele>
        <time>2019-07-06T14:36:01Z</time>
      </trkpt>
      <trkpt lat="40.6918100" lon="-2.4258270">
        <ele>1113.0</ele>
        <time>2019-07-06T14:36:02Z</time>
      </trkpt>
      <trkpt lat="40.6917710" lon="-2.4258510">
        <ele>1112.2</ele>
        <time>2019-07-06T14:36:03Z</time>
      </trkpt>
      <trkpt lat="40.6917290" lon="-2.4258700">
        <ele>1112.0</ele>
        <time>2019-07-06T14:36:04Z</time>
      </trkpt>
      <trkpt lat="40.6915880" lon="-2.4259050">
        <ele>1111.0</ele>
        <time>2019-07-06T14:36:07Z</time>
      </trkpt>
      <trkpt lat="40.6915330" lon="-2.4259110">
        <ele>1110.2</ele>
        <time>2019-07-06T14:36:08Z</time>
      </trkpt>
      <trkpt lat="40.6914160" lon="-2.4259110">
        <ele>1109.2</ele>
        <time>2019-07-06T14:36:10Z</time>
      </trkpt>
      <trkpt lat="40.6913000" lon="-2.4259200">
        <ele>1108.4</ele>
        <time>2019-07-06T14:36:12Z</time>
      </trkpt>
      <trkpt lat="40.6912430" lon="-2.4259270">
        <ele>1108.4</ele>
        <time>2019-07-06T14:36:13Z</time>
      </trkpt>
      <trkpt lat="40.6911170" lon="-2.4259420">
        <ele>1107.2</ele>
        <time>2019-07-06T14:36:15Z</time>
      </trkpt>
      <trkpt lat="40.6909840" lon="-2.4259660">
        <ele>1105.6</ele>
        <time>2019-07-06T14:36:17Z</time>
      </trkpt>
      <trkpt lat="40.6908590" lon="-2.4259880">
        <ele>1104.2</ele>
        <time>2019-07-06T14:36:19Z</time>
      </trkpt>
      <trkpt lat="40.6907320" lon="-2.4260090">
        <ele>1102.6</ele>
        <time>2019-07-06T14:36:21Z</time>
      </trkpt>
      <trkpt lat="40.6905900" lon="-2.4260380">
        <ele>1101.2</ele>
        <time>2019-07-06T14:36:23Z</time>
      </trkpt>
      <trkpt lat="40.6904450" lon="-2.4260850">
        <ele>1100.2</ele>
        <time>2019-07-06T14:36:25Z</time>
      </trkpt>
      <trkpt lat="40.6903090" lon="-2.4261440">
        <ele>1099.2</ele>
        <time>2019-07-06T14:36:27Z</time>
      </trkpt>
      <trkpt lat="40.6901850" lon="-2.4261980">
        <ele>1098.6</ele>
        <time>2019-07-06T14:36:29Z</time>
      </trkpt>
      <trkpt lat="40.6900540" lon="-2.4262470">
        <ele>1097.8</ele>
        <time>2019-07-06T14:36:31Z</time>
      </trkpt>
      <trkpt lat="40.6898800" lon="-2.4263000">
        <ele>1096.6</ele>
        <time>2019-07-06T14:36:34Z</time>
      </trkpt>
      <trkpt lat="40.6898310" lon="-2.4263110">
        <ele>1096.0</ele>
        <time>2019-07-06T14:36:35Z</time>
      </trkpt>
      <trkpt lat="40.6897820" lon="-2.4263190">
        <ele>1095.4</ele>
        <time>2019-07-06T14:36:36Z</time>
      </trkpt>
      <trkpt lat="40.6896230" lon="-2.4263270">
        <ele>1093.8</ele>
        <time>2019-07-06T14:36:39Z</time>
      </trkpt>
      <trkpt lat="40.6895730" lon="-2.4263200">
        <ele>1093.0</ele>
        <time>2019-07-06T14:36:40Z</time>
      </trkpt>
      <trkpt lat="40.6895240" lon="-2.4263150">
        <ele>1092.6</ele>
        <time>2019-07-06T14:36:41Z</time>
      </trkpt>
      <trkpt lat="40.6894780" lon="-2.4263160">
        <ele>1092.2</ele>
        <time>2019-07-06T14:36:42Z</time>
      </trkpt>
      <trkpt lat="40.6893980" lon="-2.4263420">
        <ele>1091.4</ele>
        <time>2019-07-06T14:36:44Z</time>
      </trkpt>
      <trkpt lat="40.6893390" lon="-2.4264200">
        <ele>1091.2</ele>
        <time>2019-07-06T14:36:46Z</time>
      </trkpt>
      <trkpt lat="40.6892870" lon="-2.4265060">
        <ele>1090.6</ele>
        <time>2019-07-06T14:36:48Z</time>
      </trkpt>
      <trkpt lat="40.6892470" lon="-2.4265660">
        <ele>1090.2</ele>
        <time>2019-07-06T14:36:50Z</time>
      </trkpt>
      <trkpt lat="40.6892060" lon="-2.4266070">
        <ele>1088.8</ele>
        <time>2019-07-06T14:36:52Z</time>
      </trkpt>
      <trkpt lat="40.6891420" lon="-2.4266600">
        <ele>1087.6</ele>
        <time>2019-07-06T14:36:55Z</time>
      </trkpt>
      <trkpt lat="40.6890550" lon="-2.4267110">
        <ele>1086.8</ele>
        <time>2019-07-06T14:36:58Z</time>
      </trkpt>
      <trkpt lat="40.6890230" lon="-2.4267310">
        <ele>1086.6</ele>
        <time>2019-07-06T14:36:59Z</time>
      </trkpt>
      <trkpt lat="40.6889150" lon="-2.4268060">
        <ele>1085.2</ele>
        <time>2019-07-06T14:37:03Z</time>
      </trkpt>
      <trkpt lat="40.6888740" lon="-2.4268260">
        <ele>1084.4</ele>
        <time>2019-07-06T14:37:04Z</time>
      </trkpt>
      <trkpt lat="40.6888250" lon="-2.4268490">
        <ele>1084.0</ele>
        <time>2019-07-06T14:37:05Z</time>
      </trkpt>
      <trkpt lat="40.6887140" lon="-2.4268960">
        <ele>1082.6</ele>
        <time>2019-07-06T14:37:07Z</time>
      </trkpt>
      <trkpt lat="40.6885910" lon="-2.4269490">
        <ele>1081.0</ele>
        <time>2019-07-06T14:37:09Z</time>
      </trkpt>
      <trkpt lat="40.6885270" lon="-2.4269810">
        <ele>1080.0</ele>
        <time>2019-07-06T14:37:10Z</time>
      </trkpt>
      <trkpt lat="40.6884110" lon="-2.4270460">
        <ele>1078.6</ele>
        <time>2019-07-06T14:37:12Z</time>
      </trkpt>
      <trkpt lat="40.6883210" lon="-2.4270970">
        <ele>1077.6</ele>
        <time>2019-07-06T14:37:14Z</time>
      </trkpt>
      <trkpt lat="40.6882840" lon="-2.4271180">
        <ele>1076.4</ele>
        <time>2019-07-06T14:37:15Z</time>
      </trkpt>
      <trkpt lat="40.6881830" lon="-2.4271800">
        <ele>1075.2</ele>
        <time>2019-07-06T14:37:18Z</time>
      </trkpt>
      <trkpt lat="40.6881480" lon="-2.4271910">
        <ele>1074.8</ele>
        <time>2019-07-06T14:37:19Z</time>
      </trkpt>
      <trkpt lat="40.6880770" lon="-2.4272000">
        <ele>1073.6</ele>
        <time>2019-07-06T14:37:21Z</time>
      </trkpt>
      <trkpt lat="40.6880100" lon="-2.4271980">
        <ele>1072.0</ele>
        <time>2019-07-06T14:37:23Z</time>
      </trkpt>
      <trkpt lat="40.6879210" lon="-2.4271820">
        <ele>1071.0</ele>
        <time>2019-07-06T14:37:26Z</time>
      </trkpt>
      <trkpt lat="40.6879000" lon="-2.4271880">
        <ele>1070.6</ele>
        <time>2019-07-06T14:37:27Z</time>
      </trkpt>
      <trkpt lat="40.6878820" lon="-2.4272310">
        <ele>1070.2</ele>
        <time>2019-07-06T14:37:29Z</time>
      </trkpt>
      <trkpt lat="40.6879040" lon="-2.4272910">
        <ele>1069.8</ele>
        <time>2019-07-06T14:37:31Z</time>
      </trkpt>
      <trkpt lat="40.6879330" lon="-2.4273200">
        <ele>1069.6</ele>
        <time>2019-07-06T14:37:32Z</time>
      </trkpt>
      <trkpt lat="40.6880680" lon="-2.4273840">
        <ele>1068.4</ele>
        <time>2019-07-06T14:37:35Z</time>
      </trkpt>
      <trkpt lat="40.6881170" lon="-2.4274130">
        <ele>1068.0</ele>
        <time>2019-07-06T14:37:36Z</time>
      </trkpt>
      <trkpt lat="40.6881970" lon="-2.4275070">
        <ele>1067.4</ele>
        <time>2019-07-06T14:37:38Z</time>
      </trkpt>
      <trkpt lat="40.6882750" lon="-2.4276170">
        <ele>1066.6</ele>
        <time>2019-07-06T14:37:40Z</time>
      </trkpt>
      <trkpt lat="40.6883170" lon="-2.4276680">
        <ele>1066.2</ele>
        <time>2019-07-06T14:37:41Z</time>
      </trkpt>
      <trkpt lat="40.6883610" lon="-2.4277100">
        <ele>1066.0</ele>
        <time>2019-07-06T14:37:42Z</time>
      </trkpt>
      <trkpt lat="40.6884520" lon="-2.4277720">
        <ele>1065.4</ele>
        <time>2019-07-06T14:37:44Z</time>
      </trkpt>
      <trkpt lat="40.6884970" lon="-2.4277950">
        <ele>1065.0</ele>
        <time>2019-07-06T14:37:45Z</time>
      </trkpt>
      <trkpt lat="40.6885960" lon="-2.4278530">
        <ele>1063.6</ele>
        <time>2019-07-06T14:37:47Z</time>
      </trkpt>
      <trkpt lat="40.6887010" lon="-2.4279080">
        <ele>1062.2</ele>
        <time>2019-07-06T14:37:49Z</time>
      </trkpt>
      <trkpt lat="40.6887560" lon="-2.4279320">
        <ele>1061.6</ele>
        <time>2019-07-06T14:37:50Z</time>
      </trkpt>
      <trkpt lat="40.6888160" lon="-2.4279600">
        <ele>1060.8</ele>
        <time>2019-07-06T14:37:51Z</time>
      </trkpt>
      <trkpt lat="40.6889330" lon="-2.4280300">
        <ele>1059.4</ele>
        <time>2019-07-06T14:37:53Z</time>
      </trkpt>
      <trkpt lat="40.6890330" lon="-2.4281360">
        <ele>1058.4</ele>
        <time>2019-07-06T14:37:55Z</time>
      </trkpt>
      <trkpt lat="40.6892510" lon="-2.4283550">
        <ele>1058.0</ele>
        <time>2019-07-06T14:38:00Z</time>
      </trkpt>
      <trkpt lat="40.6894310" lon="-2.4284480">
        <ele>1057.2</ele>
        <time>2019-07-06T14:38:04Z</time>
      </trkpt>
      <trkpt lat="40.6895210" lon="-2.4284860">
        <ele>1056.2</ele>
        <time>2019-07-06T14:38:06Z</time>
      </trkpt>
      <trkpt lat="40.6895640" lon="-2.4285030">
        <ele>1055.8</ele>
        <time>2019-07-06T14:38:07Z</time>
      </trkpt>
      <trkpt lat="40.6896830" lon="-2.4285310">
        <ele>1054.2</ele>
        <time>2019-07-06T14:38:10Z</time>
      </trkpt>
      <trkpt lat="40.6897630" lon="-2.4285320">
        <ele>1052.6</ele>
        <time>2019-07-06T14:38:12Z</time>
      </trkpt>
      <trkpt lat="40.6899330" lon="-2.4285290">
        <ele>1051.4</ele>
        <time>2019-07-06T14:38:15Z</time>
      </trkpt>
      <trkpt lat="40.6900020" lon="-2.4285400">
        <ele>1051.0</ele>
        <time>2019-07-06T14:38:16Z</time>
      </trkpt>
      <trkpt lat="40.6901950" lon="-2.4286230">
        <ele>1049.8</ele>
        <time>2019-07-06T14:38:19Z</time>
      </trkpt>
      <trkpt lat="40.6902510" lon="-2.4286580">
        <ele>1049.4</ele>
        <time>2019-07-06T14:38:20Z</time>
      </trkpt>
      <trkpt lat="40.6903010" lon="-2.4286930">
        <ele>1048.8</ele>
        <time>2019-07-06T14:38:21Z</time>
      </trkpt>
      <trkpt lat="40.6903480" lon="-2.4287310">
        <ele>1047.8</ele>
        <time>2019-07-06T14:38:22Z</time>
      </trkpt>
      <trkpt lat="40.6904440" lon="-2.4288170">
        <ele>1046.4</ele>
        <time>2019-07-06T14:38:24Z</time>
      </trkpt>
      <trkpt lat="40.6904940" lon="-2.4288680">
        <ele>1045.8</ele>
        <time>2019-07-06T14:38:25Z</time>
      </trkpt>
      <trkpt lat="40.6905390" lon="-2.4289210">
        <ele>1045.0</ele>
        <time>2019-07-06T14:38:26Z</time>
      </trkpt>
      <trkpt lat="40.6906160" lon="-2.4290210">
        <ele>1043.6</ele>
        <time>2019-07-06T14:38:28Z</time>
      </trkpt>
      <trkpt lat="40.6906810" lon="-2.4291130">
        <ele>1042.4</ele>
        <time>2019-07-06T14:38:30Z</time>
      </trkpt>
      <trkpt lat="40.6907430" lon="-2.4292050">
        <ele>1041.4</ele>
        <time>2019-07-06T14:38:32Z</time>
      </trkpt>
      <trkpt lat="40.6908340" lon="-2.4293570">
        <ele>1039.8</ele>
        <time>2019-07-06T14:38:35Z</time>
      </trkpt>
      <trkpt lat="40.6908920" lon="-2.4294600">
        <ele>1037.8</ele>
        <time>2019-07-06T14:38:37Z</time>
      </trkpt>
      <trkpt lat="40.6909470" lon="-2.4295640">
        <ele>1036.4</ele>
        <time>2019-07-06T14:38:39Z</time>
      </trkpt>
      <trkpt lat="40.6910010" lon="-2.4296700">
        <ele>1035.0</ele>
        <time>2019-07-06T14:38:41Z</time>
      </trkpt>
      <trkpt lat="40.6910550" lon="-2.4297760">
        <ele>1033.6</ele>
        <time>2019-07-06T14:38:43Z</time>
      </trkpt>
      <trkpt lat="40.6911500" lon="-2.4299260">
        <ele>1031.4</ele>
        <time>2019-07-06T14:38:46Z</time>
      </trkpt>
      <trkpt lat="40.6911870" lon="-2.4299700">
        <ele>1030.8</ele>
        <time>2019-07-06T14:38:47Z</time>
      </trkpt>
      <trkpt lat="40.6912250" lon="-2.4300130">
        <ele>1030.0</ele>
        <time>2019-07-06T14:38:48Z</time>
      </trkpt>
      <trkpt lat="40.6913060" lon="-2.4301080">
        <ele>1028.8</ele>
        <time>2019-07-06T14:38:50Z</time>
      </trkpt>
      <trkpt lat="40.6914060" lon="-2.4301990">
        <ele>1028.2</ele>
        <time>2019-07-06T14:38:52Z</time>
      </trkpt>
      <trkpt lat="40.6914650" lon="-2.4302380">
        <ele>1027.6</ele>
        <time>2019-07-06T14:38:53Z</time>
      </trkpt>
      <trkpt lat="40.6916000" lon="-2.4303040">
        <ele>1026.4</ele>
        <time>2019-07-06T14:38:55Z</time>
      </trkpt>
      <trkpt lat="40.6916740" lon="-2.4303410">
        <ele>1026.0</ele>
        <time>2019-07-06T14:38:56Z</time>
      </trkpt>
      <trkpt lat="40.6918280" lon="-2.4304240">
        <ele>1025.0</ele>
        <time>2019-07-06T14:38:58Z</time>
      </trkpt>
      <trkpt lat="40.6919750" lon="-2.4305110">
        <ele>1024.0</ele>
        <time>2019-07-06T14:39:00Z</time>
      </trkpt>
      <trkpt lat="40.6921230" lon="-2.4306050">
        <ele>1023.0</ele>
        <time>2019-07-06T14:39:02Z</time>
      </trkpt>
      <trkpt lat="40.6921950" lon="-2.4306520">
        <ele>1022.4</ele>
        <time>2019-07-06T14:39:03Z</time>
      </trkpt>
      <trkpt lat="40.6923480" lon="-2.4307520">
        <ele>1021.2</ele>
        <time>2019-07-06T14:39:05Z</time>
      </trkpt>
      <trkpt lat="40.6925020" lon="-2.4308550">
        <ele>1019.4</ele>
        <time>2019-07-06T14:39:07Z</time>
      </trkpt>
      <trkpt lat="40.6925730" lon="-2.4309040">
        <ele>1019.0</ele>
        <time>2019-07-06T14:39:08Z</time>
      </trkpt>
      <trkpt lat="40.6926400" lon="-2.4309500">
        <ele>1018.4</ele>
        <time>2019-07-06T14:39:09Z</time>
      </trkpt>
      <trkpt lat="40.6927770" lon="-2.4310530">
        <ele>1017.0</ele>
        <time>2019-07-06T14:39:11Z</time>
      </trkpt>
      <trkpt lat="40.6929220" lon="-2.4311530">
        <ele>1015.2</ele>
        <time>2019-07-06T14:39:13Z</time>
      </trkpt>
      <trkpt lat="40.6929960" lon="-2.4312050">
        <ele>1014.4</ele>
        <time>2019-07-06T14:39:14Z</time>
      </trkpt>
      <trkpt lat="40.6930710" lon="-2.4312540">
        <ele>1013.2</ele>
        <time>2019-07-06T14:39:15Z</time>
      </trkpt>
      <trkpt lat="40.6932140" lon="-2.4313440">
        <ele>1011.6</ele>
        <time>2019-07-06T14:39:17Z</time>
      </trkpt>
      <trkpt lat="40.6934270" lon="-2.4314430">
        <ele>1010.4</ele>
        <time>2019-07-06T14:39:20Z</time>
      </trkpt>
      <trkpt lat="40.6935660" lon="-2.4314850">
        <ele>1009.0</ele>
        <time>2019-07-06T14:39:22Z</time>
      </trkpt>
      <trkpt lat="40.6936980" lon="-2.4315190">
        <ele>1008.0</ele>
        <time>2019-07-06T14:39:24Z</time>
      </trkpt>
      <trkpt lat="40.6937650" lon="-2.4315390">
        <ele>1007.6</ele>
        <time>2019-07-06T14:39:25Z</time>
      </trkpt>
      <trkpt lat="40.6939030" lon="-2.4315920">
        <ele>1006.6</ele>
        <time>2019-07-06T14:39:27Z</time>
      </trkpt>
      <trkpt lat="40.6940800" lon="-2.4316680">
        <ele>1005.4</ele>
        <time>2019-07-06T14:39:30Z</time>
      </trkpt>
      <trkpt lat="40.6941400" lon="-2.4316900">
        <ele>1004.2</ele>
        <time>2019-07-06T14:39:31Z</time>
      </trkpt>
      <trkpt lat="40.6942590" lon="-2.4317340">
        <ele>1003.0</ele>
        <time>2019-07-06T14:39:33Z</time>
      </trkpt>
      <trkpt lat="40.6943730" lon="-2.4317720">
        <ele>1001.4</ele>
        <time>2019-07-06T14:39:35Z</time>
      </trkpt>
      <trkpt lat="40.6944790" lon="-2.4318030">
        <ele>1000.0</ele>
        <time>2019-07-06T14:39:37Z</time>
      </trkpt>
      <trkpt lat="40.6945810" lon="-2.4318240">
        <ele>998.6</ele>
        <time>2019-07-06T14:39:39Z</time>
      </trkpt>
      <trkpt lat="40.6946310" lon="-2.4318350">
        <ele>997.4</ele>
        <time>2019-07-06T14:39:40Z</time>
      </trkpt>
      <trkpt lat="40.6946780" lon="-2.4318470">
        <ele>996.4</ele>
        <time>2019-07-06T14:39:41Z</time>
      </trkpt>
      <trkpt lat="40.6947250" lon="-2.4318550">
        <ele>995.8</ele>
        <time>2019-07-06T14:39:42Z</time>
      </trkpt>
      <trkpt lat="40.6947750" lon="-2.4318610">
        <ele>995.2</ele>
        <time>2019-07-06T14:39:43Z</time>
      </trkpt>
      <trkpt lat="40.6948950" lon="-2.4318780">
        <ele>993.6</ele>
        <time>2019-07-06T14:39:45Z</time>
      </trkpt>
      <trkpt lat="40.6949570" lon="-2.4318860">
        <ele>992.4</ele>
        <time>2019-07-06T14:39:46Z</time>
      </trkpt>
      <trkpt lat="40.6950120" lon="-2.4318920">
        <ele>991.2</ele>
        <time>2019-07-06T14:39:47Z</time>
      </trkpt>
      <trkpt lat="40.6950880" lon="-2.4318990">
        <ele>989.8</ele>
        <time>2019-07-06T14:39:49Z</time>
      </trkpt>
      <trkpt lat="40.6951120" lon="-2.4319020">
        <ele>989.4</ele>
        <time>2019-07-06T14:39:50Z</time>
      </trkpt>
      <trkpt lat="40.6952220" lon="-2.4319540">
        <ele>988.8</ele>
        <time>2019-07-06T14:39:54Z</time>
      </trkpt>
      <trkpt lat="40.6952440" lon="-2.4319920">
        <ele>988.6</ele>
        <time>2019-07-06T14:39:55Z</time>
      </trkpt>
      <trkpt lat="40.6952240" lon="-2.4321170">
        <ele>988.4</ele>
        <time>2019-07-06T14:39:58Z</time>
      </trkpt>
      <trkpt lat="40.6951730" lon="-2.4321640">
        <ele>988.2</ele>
        <time>2019-07-06T14:40:00Z</time>
      </trkpt>
      <trkpt lat="40.6951310" lon="-2.4322100">
        <ele>988.4</ele>
        <time>2019-07-06T14:40:02Z</time>
      </trkpt>
      <trkpt lat="40.6951100" lon="-2.4322340">
        <ele>988.6</ele>
        <time>2019-07-06T14:40:03Z</time>
      </trkpt>
      <trkpt lat="40.6950700" lon="-2.4322790">
        <ele>989.0</ele>
        <time>2019-07-06T14:40:05Z</time>
      </trkpt>
      <trkpt lat="40.6950040" lon="-2.4323530">
        <ele>989.6</ele>
        <time>2019-07-06T14:40:08Z</time>
      </trkpt>
      <trkpt lat="40.6949570" lon="-2.4324010">
        <ele>989.8</ele>
        <time>2019-07-06T14:40:10Z</time>
      </trkpt>
      <trkpt lat="40.6948480" lon="-2.4324940">
        <ele>989.8</ele>
        <time>2019-07-06T14:40:14Z</time>
      </trkpt>
      <trkpt lat="40.6947910" lon="-2.4325420">
        <ele>990.0</ele>
        <time>2019-07-06T14:40:16Z</time>
      </trkpt>
      <trkpt lat="40.6946220" lon="-2.4326560">
        <ele>991.0</ele>
        <time>2019-07-06T14:40:22Z</time>
      </trkpt>
      <trkpt lat="40.6945910" lon="-2.4326730">
        <ele>991.2</ele>
        <time>2019-07-06T14:40:23Z</time>
      </trkpt>
      <trkpt lat="40.6944650" lon="-2.4327290">
        <ele>991.8</ele>
        <time>2019-07-06T14:40:27Z</time>
      </trkpt>
      <trkpt lat="40.6944350" lon="-2.4327430">
        <ele>992.0</ele>
        <time>2019-07-06T14:40:28Z</time>
      </trkpt>
      <trkpt lat="40.6944040" lon="-2.4327560">
        <ele>992.2</ele>
        <time>2019-07-06T14:40:29Z</time>
      </trkpt>
      <trkpt lat="40.6942080" lon="-2.4328230">
        <ele>992.8</ele>
        <time>2019-07-06T14:40:35Z</time>
      </trkpt>
      <trkpt lat="40.6940710" lon="-2.4328390">
        <ele>993.2</ele>
        <time>2019-07-06T14:40:39Z</time>
      </trkpt>
      <trkpt lat="40.6940330" lon="-2.4328460">
        <ele>993.4</ele>
        <time>2019-07-06T14:40:40Z</time>
      </trkpt>
      <trkpt lat="40.6938660" lon="-2.4329370">
        <ele>993.8</ele>
        <time>2019-07-06T14:40:45Z</time>
      </trkpt>
      <trkpt lat="40.6936560" lon="-2.4331160">
        <ele>994.8</ele>
        <time>2019-07-06T14:40:53Z</time>
      </trkpt>
      <trkpt lat="40.6934910" lon="-2.4333020">
        <ele>995.6</ele>
        <time>2019-07-06T14:41:00Z</time>
      </trkpt>
      <trkpt lat="40.6934650" lon="-2.4333240">
        <ele>995.8</ele>
        <time>2019-07-06T14:41:01Z</time>
      </trkpt>
      <trkpt lat="40.6933360" lon="-2.4334260">
        <ele>997.0</ele>
        <time>2019-07-06T14:41:06Z</time>
      </trkpt>
      <trkpt lat="40.6933100" lon="-2.4334430">
        <ele>997.4</ele>
        <time>2019-07-06T14:41:07Z</time>
      </trkpt>
      <trkpt lat="40.6931070" lon="-2.4335820">
        <ele>997.2</ele>
        <time>2019-07-06T14:41:14Z</time>
      </trkpt>
      <trkpt lat="40.6929570" lon="-2.4336780">
        <ele>997.8</ele>
        <time>2019-07-06T14:41:19Z</time>
      </trkpt>
      <trkpt lat="40.6928970" lon="-2.4337090">
        <ele>998.4</ele>
        <time>2019-07-06T14:41:21Z</time>
      </trkpt>
      <trkpt lat="40.6928390" lon="-2.4337440">
        <ele>998.8</ele>
        <time>2019-07-06T14:41:23Z</time>
      </trkpt>
      <trkpt lat="40.6927630" lon="-2.4337930">
        <ele>999.4</ele>
        <time>2019-07-06T14:41:26Z</time>
      </trkpt>
      <trkpt lat="40.6926660" lon="-2.4338490">
        <ele>999.8</ele>
        <time>2019-07-06T14:41:30Z</time>
      </trkpt>
      <trkpt lat="40.6925690" lon="-2.4339230">
        <ele>1000.4</ele>
        <time>2019-07-06T14:41:34Z</time>
      </trkpt>
      <trkpt lat="40.6925060" lon="-2.4339970">
        <ele>1000.8</ele>
        <time>2019-07-06T14:41:37Z</time>
      </trkpt>
      <trkpt lat="40.6924510" lon="-2.4340760">
        <ele>1001.8</ele>
        <time>2019-07-06T14:41:40Z</time>
      </trkpt>
      <trkpt lat="40.6923890" lon="-2.4341990">
        <ele>1002.8</ele>
        <time>2019-07-06T14:41:44Z</time>
      </trkpt>
      <trkpt lat="40.6923260" lon="-2.4343290">
        <ele>1004.2</ele>
        <time>2019-07-06T14:41:48Z</time>
      </trkpt>
      <trkpt lat="40.6922430" lon="-2.4344930">
        <ele>1005.2</ele>
        <time>2019-07-06T14:41:53Z</time>
      </trkpt>
      <trkpt lat="40.6922250" lon="-2.4345250">
        <ele>1005.4</ele>
        <time>2019-07-06T14:41:54Z</time>
      </trkpt>
      <trkpt lat="40.6920980" lon="-2.4347620">
        <ele>1006.2</ele>
        <time>2019-07-06T14:42:01Z</time>
      </trkpt>
      <trkpt lat="40.6920740" lon="-2.4348050">
        <ele>1006.2</ele>
        <time>2019-07-06T14:42:02Z</time>
      </trkpt>
      <trkpt lat="40.6919880" lon="-2.4349190">
        <ele>1004.6</ele>
        <time>2019-07-06T14:42:05Z</time>
      </trkpt>
      <trkpt lat="40.6919520" lon="-2.4349420">
        <ele>1004.0</ele>
        <time>2019-07-06T14:42:06Z</time>
      </trkpt>
      <trkpt lat="40.6919070" lon="-2.4349640">
        <ele>1003.4</ele>
        <time>2019-07-06T14:42:07Z</time>
      </trkpt>
      <trkpt lat="40.6918010" lon="-2.4349870">
        <ele>1002.2</ele>
        <time>2019-07-06T14:42:09Z</time>
      </trkpt>
      <trkpt lat="40.6917510" lon="-2.4349900">
        <ele>1001.4</ele>
        <time>2019-07-06T14:42:10Z</time>
      </trkpt>
      <trkpt lat="40.6917060" lon="-2.4349970">
        <ele>1000.6</ele>
        <time>2019-07-06T14:42:11Z</time>
      </trkpt>
      <trkpt lat="40.6916300" lon="-2.4350330">
        <ele>999.0</ele>
        <time>2019-07-06T14:42:13Z</time>
      </trkpt>
      <trkpt lat="40.6916000" lon="-2.4350620">
        <ele>998.4</ele>
        <time>2019-07-06T14:42:14Z</time>
      </trkpt>
      <trkpt lat="40.6915730" lon="-2.4350970">
        <ele>997.6</ele>
        <time>2019-07-06T14:42:15Z</time>
      </trkpt>
      <trkpt lat="40.6915310" lon="-2.4351810">
        <ele>995.6</ele>
        <time>2019-07-06T14:42:17Z</time>
      </trkpt>
      <trkpt lat="40.6915160" lon="-2.4352340">
        <ele>994.6</ele>
        <time>2019-07-06T14:42:18Z</time>
      </trkpt>
      <trkpt lat="40.6915020" lon="-2.4352950">
        <ele>993.8</ele>
        <time>2019-07-06T14:42:19Z</time>
      </trkpt>
      <trkpt lat="40.6914920" lon="-2.4353600">
        <ele>993.0</ele>
        <time>2019-07-06T14:42:20Z</time>
      </trkpt>
      <trkpt lat="40.6914750" lon="-2.4354890">
        <ele>991.2</ele>
        <time>2019-07-06T14:42:22Z</time>
      </trkpt>
      <trkpt lat="40.6914620" lon="-2.4355560">
        <ele>990.0</ele>
        <time>2019-07-06T14:42:23Z</time>
      </trkpt>
      <trkpt lat="40.6914450" lon="-2.4356220">
        <ele>988.8</ele>
        <time>2019-07-06T14:42:24Z</time>
      </trkpt>
      <trkpt lat="40.6914240" lon="-2.4356860">
        <ele>988.0</ele>
        <time>2019-07-06T14:42:25Z</time>
      </trkpt>
      <trkpt lat="40.6913980" lon="-2.4357470">
        <ele>987.2</ele>
        <time>2019-07-06T14:42:26Z</time>
      </trkpt>
      <trkpt lat="40.6913330" lon="-2.4358830">
        <ele>985.6</ele>
        <time>2019-07-06T14:42:28Z</time>
      </trkpt>
      <trkpt lat="40.6912620" lon="-2.4360580">
        <ele>984.0</ele>
        <time>2019-07-06T14:42:30Z</time>
      </trkpt>
      <trkpt lat="40.6912270" lon="-2.4361550">
        <ele>982.6</ele>
        <time>2019-07-06T14:42:31Z</time>
      </trkpt>
      <trkpt lat="40.6911920" lon="-2.4362490">
        <ele>981.4</ele>
        <time>2019-07-06T14:42:32Z</time>
      </trkpt>
      <trkpt lat="40.6911620" lon="-2.4363450">
        <ele>980.4</ele>
        <time>2019-07-06T14:42:33Z</time>
      </trkpt>
      <trkpt lat="40.6911190" lon="-2.4365590">
        <ele>978.8</ele>
        <time>2019-07-06T14:42:35Z</time>
      </trkpt>
      <trkpt lat="40.6911040" lon="-2.4366800">
        <ele>977.8</ele>
        <time>2019-07-06T14:42:36Z</time>
      </trkpt>
      <trkpt lat="40.6910730" lon="-2.4369270">
        <ele>976.4</ele>
        <time>2019-07-06T14:42:38Z</time>
      </trkpt>
      <trkpt lat="40.6910240" lon="-2.4372760">
        <ele>975.4</ele>
        <time>2019-07-06T14:42:41Z</time>
      </trkpt>
      <trkpt lat="40.6909960" lon="-2.4373790">
        <ele>975.2</ele>
        <time>2019-07-06T14:42:42Z</time>
      </trkpt>
      <trkpt lat="40.6909340" lon="-2.4375860">
        <ele>973.6</ele>
        <time>2019-07-06T14:42:44Z</time>
      </trkpt>
      <trkpt lat="40.6908810" lon="-2.4378940">
        <ele>973.0</ele>
        <time>2019-07-06T14:42:47Z</time>
      </trkpt>
      <trkpt lat="40.6908790" lon="-2.4379930">
        <ele>973.0</ele>
        <time>2019-07-06T14:42:48Z</time>
      </trkpt>
      <trkpt lat="40.6908780" lon="-2.4382580">
        <ele>973.4</ele>
        <time>2019-07-06T14:42:51Z</time>
      </trkpt>
      <trkpt lat="40.6908660" lon="-2.4383410">
        <ele>973.4</ele>
        <time>2019-07-06T14:42:52Z</time>
      </trkpt>
      <trkpt lat="40.6908270" lon="-2.4386320">
        <ele>973.0</ele>
        <time>2019-07-06T14:42:55Z</time>
      </trkpt>
      <trkpt lat="40.6908050" lon="-2.4387370">
        <ele>972.4</ele>
        <time>2019-07-06T14:42:56Z</time>
      </trkpt>
      <trkpt lat="40.6907780" lon="-2.4388370">
        <ele>971.8</ele>
        <time>2019-07-06T14:42:57Z</time>
      </trkpt>
      <trkpt lat="40.6907450" lon="-2.4389320">
        <ele>971.4</ele>
        <time>2019-07-06T14:42:58Z</time>
      </trkpt>
      <trkpt lat="40.6907020" lon="-2.4390140">
        <ele>971.0</ele>
        <time>2019-07-06T14:42:59Z</time>
      </trkpt>
      <trkpt lat="40.6906230" lon="-2.4391590">
        <ele>970.4</ele>
        <time>2019-07-06T14:43:01Z</time>
      </trkpt>
      <trkpt lat="40.6905860" lon="-2.4392250">
        <ele>970.4</ele>
        <time>2019-07-06T14:43:02Z</time>
      </trkpt>
      <trkpt lat="40.6905500" lon="-2.4392890">
        <ele>970.6</ele>
        <time>2019-07-06T14:43:03Z</time>
      </trkpt>
      <trkpt lat="40.6904820" lon="-2.4394090">
        <ele>970.8</ele>
        <time>2019-07-06T14:43:05Z</time>
      </trkpt>
      <trkpt lat="40.6903510" lon="-2.4396160">
        <ele>972.2</ele>
        <time>2019-07-06T14:43:09Z</time>
      </trkpt>
      <trkpt lat="40.6902890" lon="-2.4397100">
        <ele>972.6</ele>
        <time>2019-07-06T14:43:11Z</time>
      </trkpt>
      <trkpt lat="40.6901980" lon="-2.4398680">
        <ele>972.0</ele>
        <time>2019-07-06T14:43:14Z</time>
      </trkpt>
      <trkpt lat="40.6901770" lon="-2.4399330">
        <ele>971.6</ele>
        <time>2019-07-06T14:43:15Z</time>
      </trkpt>
      <trkpt lat="40.6901680" lon="-2.4400050">
        <ele>970.6</ele>
        <time>2019-07-06T14:43:16Z</time>
      </trkpt>
      <trkpt lat="40.6901710" lon="-2.4400780">
        <ele>970.2</ele>
        <time>2019-07-06T14:43:17Z</time>
      </trkpt>
      <trkpt lat="40.6902220" lon="-2.4402810">
        <ele>969.0</ele>
        <time>2019-07-06T14:43:20Z</time>
      </trkpt>
      <trkpt lat="40.6902720" lon="-2.4404020">
        <ele>968.6</ele>
        <time>2019-07-06T14:43:22Z</time>
      </trkpt>
      <trkpt lat="40.6903360" lon="-2.4405070">
        <ele>967.4</ele>
        <time>2019-07-06T14:43:24Z</time>
      </trkpt>
      <trkpt lat="40.6903680" lon="-2.4405560">
        <ele>966.8</ele>
        <time>2019-07-06T14:43:25Z</time>
      </trkpt>
      <trkpt lat="40.6903940" lon="-2.4406060">
        <ele>966.4</ele>
        <time>2019-07-06T14:43:26Z</time>
      </trkpt>
      <trkpt lat="40.6904090" lon="-2.4406600">
        <ele>966.0</ele>
        <time>2019-07-06T14:43:27Z</time>
      </trkpt>
      <trkpt lat="40.6904060" lon="-2.4407140">
        <ele>965.6</ele>
        <time>2019-07-06T14:43:28Z</time>
      </trkpt>
      <trkpt lat="40.6903630" lon="-2.4408080">
        <ele>964.6</ele>
        <time>2019-07-06T14:43:30Z</time>
      </trkpt>
      <trkpt lat="40.6902970" lon="-2.4408830">
        <ele>964.4</ele>
        <time>2019-07-06T14:43:32Z</time>
      </trkpt>
      <trkpt lat="40.6901700" lon="-2.4409660">
        <ele>964.6</ele>
        <time>2019-07-06T14:43:35Z</time>
      </trkpt>
      <trkpt lat="40.6900360" lon="-2.4410400">
        <ele>964.6</ele>
        <time>2019-07-06T14:43:38Z</time>
      </trkpt>
      <trkpt lat="40.6899930" lon="-2.4410700">
        <ele>964.6</ele>
        <time>2019-07-06T14:43:39Z</time>
      </trkpt>
      <trkpt lat="40.6898820" lon="-2.4411790">
        <ele>964.4</ele>
        <time>2019-07-06T14:43:42Z</time>
      </trkpt>
      <trkpt lat="40.6898510" lon="-2.4412210">
        <ele>964.2</ele>
        <time>2019-07-06T14:43:43Z</time>
      </trkpt>
      <trkpt lat="40.6897840" lon="-2.4413720">
        <ele>964.4</ele>
        <time>2019-07-06T14:43:46Z</time>
      </trkpt>
      <trkpt lat="40.6897730" lon="-2.4414350">
        <ele>964.6</ele>
        <time>2019-07-06T14:43:47Z</time>
      </trkpt>
      <trkpt lat="40.6897730" lon="-2.4415680">
        <ele>964.8</ele>
        <time>2019-07-06T14:43:49Z</time>
      </trkpt>
      <trkpt lat="40.6897730" lon="-2.4417070">
        <ele>964.8</ele>
        <time>2019-07-06T14:43:51Z</time>
      </trkpt>
      <trkpt lat="40.6897690" lon="-2.4417810">
        <ele>964.6</ele>
        <time>2019-07-06T14:43:52Z</time>
      </trkpt>
      <trkpt lat="40.6897520" lon="-2.4419270">
        <ele>964.4</ele>
        <time>2019-07-06T14:43:54Z</time>
      </trkpt>
      <trkpt lat="40.6897120" lon="-2.4420640">
        <ele>964.0</ele>
        <time>2019-07-06T14:43:56Z</time>
      </trkpt>
      <trkpt lat="40.6896820" lon="-2.4421300">
        <ele>963.6</ele>
        <time>2019-07-06T14:43:57Z</time>
      </trkpt>
      <trkpt lat="40.6896050" lon="-2.4422670">
        <ele>962.6</ele>
        <time>2019-07-06T14:43:59Z</time>
      </trkpt>
      <trkpt lat="40.6895260" lon="-2.4424000">
        <ele>961.8</ele>
        <time>2019-07-06T14:44:01Z</time>
      </trkpt>
      <trkpt lat="40.6894890" lon="-2.4424680">
        <ele>961.4</ele>
        <time>2019-07-06T14:44:02Z</time>
      </trkpt>
      <trkpt lat="40.6894570" lon="-2.4425410">
        <ele>960.6</ele>
        <time>2019-07-06T14:44:03Z</time>
      </trkpt>
      <trkpt lat="40.6894290" lon="-2.4426190">
        <ele>959.4</ele>
        <time>2019-07-06T14:44:04Z</time>
      </trkpt>
      <trkpt lat="40.6893710" lon="-2.4427850">
        <ele>958.4</ele>
        <time>2019-07-06T14:44:06Z</time>
      </trkpt>
      <trkpt lat="40.6892560" lon="-2.4430340">
        <ele>957.0</ele>
        <time>2019-07-06T14:44:09Z</time>
      </trkpt>
      <trkpt lat="40.6891630" lon="-2.4431900">
        <ele>955.8</ele>
        <time>2019-07-06T14:44:11Z</time>
      </trkpt>
      <trkpt lat="40.6889610" lon="-2.4434690">
        <ele>954.8</ele>
        <time>2019-07-06T14:44:15Z</time>
      </trkpt>
      <trkpt lat="40.6889200" lon="-2.4435380">
        <ele>954.6</ele>
        <time>2019-07-06T14:44:16Z</time>
      </trkpt>
      <trkpt lat="40.6888760" lon="-2.4437740">
        <ele>954.0</ele>
        <time>2019-07-06T14:44:19Z</time>
      </trkpt>
      <trkpt lat="40.6888920" lon="-2.4439340">
        <ele>953.8</ele>
        <time>2019-07-06T14:44:21Z</time>
      </trkpt>
      <trkpt lat="40.6888960" lon="-2.4440200">
        <ele>953.6</ele>
        <time>2019-07-06T14:44:22Z</time>
      </trkpt>
      <trkpt lat="40.6888940" lon="-2.4442040">
        <ele>952.6</ele>
        <time>2019-07-06T14:44:24Z</time>
      </trkpt>
      <trkpt lat="40.6888480" lon="-2.4446790">
        <ele>952.6</ele>
        <time>2019-07-06T14:44:30Z</time>
      </trkpt>
      <trkpt lat="40.6888030" lon="-2.4447800">
        <ele>952.4</ele>
        <time>2019-07-06T14:44:32Z</time>
      </trkpt>
      <trkpt lat="40.6887420" lon="-2.4448780">
        <ele>952.2</ele>
        <time>2019-07-06T14:44:34Z</time>
      </trkpt>
      <trkpt lat="40.6887060" lon="-2.4449250">
        <ele>952.2</ele>
        <time>2019-07-06T14:44:35Z</time>
      </trkpt>
      <trkpt lat="40.6885330" lon="-2.4451540">
        <ele>951.8</ele>
        <time>2019-07-06T14:44:40Z</time>
      </trkpt>
      <trkpt lat="40.6884530" lon="-2.4452610">
        <ele>951.0</ele>
        <time>2019-07-06T14:44:42Z</time>
      </trkpt>
      <trkpt lat="40.6884110" lon="-2.4453210">
        <ele>950.6</ele>
        <time>2019-07-06T14:44:43Z</time>
      </trkpt>
      <trkpt lat="40.6883320" lon="-2.4454370">
        <ele>949.4</ele>
        <time>2019-07-06T14:44:45Z</time>
      </trkpt>
      <trkpt lat="40.6882250" lon="-2.4456040">
        <ele>948.2</ele>
        <time>2019-07-06T14:44:48Z</time>
      </trkpt>
      <trkpt lat="40.6881860" lon="-2.4456610">
        <ele>947.6</ele>
        <time>2019-07-06T14:44:49Z</time>
      </trkpt>
      <trkpt lat="40.6881030" lon="-2.4457950">
        <ele>947.0</ele>
        <time>2019-07-06T14:44:51Z</time>
      </trkpt>
      <trkpt lat="40.6880090" lon="-2.4459380">
        <ele>946.0</ele>
        <time>2019-07-06T14:44:53Z</time>
      </trkpt>
      <trkpt lat="40.6879610" lon="-2.4460050">
        <ele>945.4</ele>
        <time>2019-07-06T14:44:54Z</time>
      </trkpt>
      <trkpt lat="40.6879110" lon="-2.4460630">
        <ele>944.8</ele>
        <time>2019-07-06T14:44:55Z</time>
      </trkpt>
      <trkpt lat="40.6877380" lon="-2.4461640">
        <ele>944.0</ele>
        <time>2019-07-06T14:44:58Z</time>
      </trkpt>
      <trkpt lat="40.6876050" lon="-2.4461760">
        <ele>943.6</ele>
        <time>2019-07-06T14:45:00Z</time>
      </trkpt>
      <trkpt lat="40.6875380" lon="-2.4461710">
        <ele>943.2</ele>
        <time>2019-07-06T14:45:01Z</time>
      </trkpt>
      <trkpt lat="40.6874720" lon="-2.4461610">
        <ele>942.8</ele>
        <time>2019-07-06T14:45:02Z</time>
      </trkpt>
      <trkpt lat="40.6874060" lon="-2.4461450">
        <ele>942.4</ele>
        <time>2019-07-06T14:45:03Z</time>
      </trkpt>
      <trkpt lat="40.6872400" lon="-2.4460710">
        <ele>941.2</ele>
        <time>2019-07-06T14:45:06Z</time>
      </trkpt>
      <trkpt lat="40.6872040" lon="-2.4460390">
        <ele>941.0</ele>
        <time>2019-07-06T14:45:07Z</time>
      </trkpt>
      <trkpt lat="40.6871510" lon="-2.4459400">
        <ele>940.4</ele>
        <time>2019-07-06T14:45:09Z</time>
      </trkpt>
      <trkpt lat="40.6871310" lon="-2.4458000">
        <ele>940.0</ele>
        <time>2019-07-06T14:45:11Z</time>
      </trkpt>
      <trkpt lat="40.6871130" lon="-2.4456480">
        <ele>939.6</ele>
        <time>2019-07-06T14:45:13Z</time>
      </trkpt>
      <trkpt lat="40.6870980" lon="-2.4455750">
        <ele>939.6</ele>
        <time>2019-07-06T14:45:14Z</time>
      </trkpt>
      <trkpt lat="40.6870380" lon="-2.4454510">
        <ele>939.4</ele>
        <time>2019-07-06T14:45:16Z</time>
      </trkpt>
      <trkpt lat="40.6868970" lon="-2.4453890">
        <ele>939.4</ele>
        <time>2019-07-06T14:45:19Z</time>
      </trkpt>
      <trkpt lat="40.6868000" lon="-2.4454190">
        <ele>941.2</ele>
        <time>2019-07-06T14:45:22Z</time>
      </trkpt>
      <trkpt lat="40.6867760" lon="-2.4454350">
        <ele>941.6</ele>
        <time>2019-07-06T14:45:23Z</time>
      </trkpt>
      <trkpt lat="40.6867530" lon="-2.4454490">
        <ele>942.2</ele>
        <time>2019-07-06T14:45:24Z</time>
      </trkpt>
      <trkpt lat="40.6867300" lon="-2.4454600">
        <ele>942.2</ele>
        <time>2019-07-06T14:45:25Z</time>
      </trkpt>
      <trkpt lat="40.6866870" lon="-2.4454860">
        <ele>942.8</ele>
        <time>2019-07-06T14:45:27Z</time>
      </trkpt>
      <trkpt lat="40.6866500" lon="-2.4455230">
        <ele>943.4</ele>
        <time>2019-07-06T14:45:29Z</time>
      </trkpt>
      <trkpt lat="40.6866160" lon="-2.4455700">
        <ele>944.2</ele>
        <time>2019-07-06T14:45:31Z</time>
      </trkpt>
      <trkpt lat="40.6866010" lon="-2.4455950">
        <ele>944.6</ele>
        <time>2019-07-06T14:45:32Z</time>
      </trkpt>
      <trkpt lat="40.6865730" lon="-2.4456760">
        <ele>945.4</ele>
        <time>2019-07-06T14:45:35Z</time>
      </trkpt>
      <trkpt lat="40.6865700" lon="-2.4457070">
        <ele>945.6</ele>
        <time>2019-07-06T14:45:36Z</time>
      </trkpt>
      <trkpt lat="40.6865830" lon="-2.4458350">
        <ele>946.8</ele>
        <time>2019-07-06T14:45:40Z</time>
      </trkpt>
      <trkpt lat="40.6866190" lon="-2.4459190">
        <ele>947.2</ele>
        <time>2019-07-06T14:45:43Z</time>
      </trkpt>
      <trkpt lat="40.6866600" lon="-2.4460010">
        <ele>948.0</ele>
        <time>2019-07-06T14:45:46Z</time>
      </trkpt>
      <trkpt lat="40.6867400" lon="-2.4461290">
        <ele>949.0</ele>
        <time>2019-07-06T14:45:51Z</time>
      </trkpt>
      <trkpt lat="40.6868660" lon="-2.4463760">
        <ele>949.0</ele>
        <time>2019-07-06T14:45:58Z</time>
      </trkpt>
      <trkpt lat="40.6868980" lon="-2.4464560">
        <ele>949.2</ele>
        <time>2019-07-06T14:46:00Z</time>
      </trkpt>
      <trkpt lat="40.6869530" lon="-2.4466000">
        <ele>949.0</ele>
        <time>2019-07-06T14:46:03Z</time>
      </trkpt>
      <trkpt lat="40.6869690" lon="-2.4466570">
        <ele>949.0</ele>
        <time>2019-07-06T14:46:04Z</time>
      </trkpt>
      <trkpt lat="40.6869830" lon="-2.4467160">
        <ele>948.8</ele>
        <time>2019-07-06T14:46:05Z</time>
      </trkpt>
      <trkpt lat="40.6870000" lon="-2.4468470">
        <ele>948.8</ele>
        <time>2019-07-06T14:46:07Z</time>
      </trkpt>
      <trkpt lat="40.6869910" lon="-2.4469860">
        <ele>948.2</ele>
        <time>2019-07-06T14:46:09Z</time>
      </trkpt>
      <trkpt lat="40.6869770" lon="-2.4470540">
        <ele>947.8</ele>
        <time>2019-07-06T14:46:10Z</time>
      </trkpt>
      <trkpt lat="40.6869100" lon="-2.4472380">
        <ele>947.0</ele>
        <time>2019-07-06T14:46:13Z</time>
      </trkpt>
      <trkpt lat="40.6868800" lon="-2.4472940">
        <ele>946.8</ele>
        <time>2019-07-06T14:46:14Z</time>
      </trkpt>
      <trkpt lat="40.6867350" lon="-2.4474750">
        <ele>946.8</ele>
        <time>2019-07-06T14:46:18Z</time>
      </trkpt>
      <trkpt lat="40.6866970" lon="-2.4475140">
        <ele>946.8</ele>
        <time>2019-07-06T14:46:19Z</time>
      </trkpt>
      <trkpt lat="40.6865800" lon="-2.4476130">
        <ele>947.4</ele>
        <time>2019-07-06T14:46:22Z</time>
      </trkpt>
      <trkpt lat="40.6864220" lon="-2.4477490">
        <ele>947.6</ele>
        <time>2019-07-06T14:46:26Z</time>
      </trkpt>
      <trkpt lat="40.6862280" lon="-2.4479310">
        <ele>947.0</ele>
        <time>2019-07-06T14:46:31Z</time>
      </trkpt>
      <trkpt lat="40.6861580" lon="-2.4480090">
        <ele>947.2</ele>
        <time>2019-07-06T14:46:33Z</time>
      </trkpt>
      <trkpt lat="40.6859470" lon="-2.4483390">
        <ele>947.4</ele>
        <time>2019-07-06T14:46:40Z</time>
      </trkpt>
      <trkpt lat="40.6858680" lon="-2.4485190">
        <ele>947.2</ele>
        <time>2019-07-06T14:46:43Z</time>
      </trkpt>
      <trkpt lat="40.6858540" lon="-2.4485800">
        <ele>947.0</ele>
        <time>2019-07-06T14:46:44Z</time>
      </trkpt>
      <trkpt lat="40.6858460" lon="-2.4486440">
        <ele>946.2</ele>
        <time>2019-07-06T14:46:45Z</time>
      </trkpt>
      <trkpt lat="40.6858390" lon="-2.4487130">
        <ele>945.6</ele>
        <time>2019-07-06T14:46:46Z</time>
      </trkpt>
      <trkpt lat="40.6858240" lon="-2.4488610">
        <ele>944.6</ele>
        <time>2019-07-06T14:46:48Z</time>
      </trkpt>
      <trkpt lat="40.6858130" lon="-2.4489360">
        <ele>944.2</ele>
        <time>2019-07-06T14:46:49Z</time>
      </trkpt>
      <trkpt lat="40.6857970" lon="-2.4490080">
        <ele>944.0</ele>
        <time>2019-07-06T14:46:50Z</time>
      </trkpt>
      <trkpt lat="40.6857420" lon="-2.4491490">
        <ele>942.6</ele>
        <time>2019-07-06T14:46:52Z</time>
      </trkpt>
      <trkpt lat="40.6856590" lon="-2.4492690">
        <ele>941.2</ele>
        <time>2019-07-06T14:46:54Z</time>
      </trkpt>
      <trkpt lat="40.6855030" lon="-2.4493890">
        <ele>940.0</ele>
        <time>2019-07-06T14:46:57Z</time>
      </trkpt>
      <trkpt lat="40.6854410" lon="-2.4494070">
        <ele>939.8</ele>
        <time>2019-07-06T14:46:58Z</time>
      </trkpt>
      <trkpt lat="40.6853090" lon="-2.4494250">
        <ele>939.4</ele>
        <time>2019-07-06T14:47:00Z</time>
      </trkpt>
      <trkpt lat="40.6852420" lon="-2.4494450">
        <ele>939.0</ele>
        <time>2019-07-06T14:47:01Z</time>
      </trkpt>
      <trkpt lat="40.6851820" lon="-2.4494810">
        <ele>938.6</ele>
        <time>2019-07-06T14:47:02Z</time>
      </trkpt>
      <trkpt lat="40.6850590" lon="-2.4496270">
        <ele>938.4</ele>
        <time>2019-07-06T14:47:05Z</time>
      </trkpt>
      <trkpt lat="40.6850280" lon="-2.4496690">
        <ele>938.2</ele>
        <time>2019-07-06T14:47:06Z</time>
      </trkpt>
      <trkpt lat="40.6849570" lon="-2.4497430">
        <ele>938.4</ele>
        <time>2019-07-06T14:47:08Z</time>
      </trkpt>
      <trkpt lat="40.6848760" lon="-2.4498110">
        <ele>939.0</ele>
        <time>2019-07-06T14:47:10Z</time>
      </trkpt>
      <trkpt lat="40.6848280" lon="-2.4498440">
        <ele>939.0</ele>
        <time>2019-07-06T14:47:11Z</time>
      </trkpt>
      <trkpt lat="40.6845040" lon="-2.4500610">
        <ele>938.4</ele>
        <time>2019-07-06T14:47:17Z</time>
      </trkpt>
      <trkpt lat="40.6843650" lon="-2.4501470">
        <ele>938.8</ele>
        <time>2019-07-06T14:47:20Z</time>
      </trkpt>
      <trkpt lat="40.6841990" lon="-2.4502320">
        <ele>939.4</ele>
        <time>2019-07-06T14:47:24Z</time>
      </trkpt>
      <trkpt lat="40.6839140" lon="-2.4503070">
        <ele>939.6</ele>
        <time>2019-07-06T14:47:30Z</time>
      </trkpt>
      <trkpt lat="40.6838680" lon="-2.4503290">
        <ele>939.6</ele>
        <time>2019-07-06T14:47:31Z</time>
      </trkpt>
      <trkpt lat="40.6837070" lon="-2.4504370">
        <ele>940.4</ele>
        <time>2019-07-06T14:47:35Z</time>
      </trkpt>
      <trkpt lat="40.6835920" lon="-2.4505330">
        <ele>940.2</ele>
        <time>2019-07-06T14:47:38Z</time>
      </trkpt>
      <trkpt lat="40.6835570" lon="-2.4505710">
        <ele>940.2</ele>
        <time>2019-07-06T14:47:39Z</time>
      </trkpt>
      <trkpt lat="40.6834840" lon="-2.4507040">
        <ele>940.2</ele>
        <time>2019-07-06T14:47:42Z</time>
      </trkpt>
      <trkpt lat="40.6834670" lon="-2.4507490">
        <ele>940.2</ele>
        <time>2019-07-06T14:47:43Z</time>
      </trkpt>
      <trkpt lat="40.6833250" lon="-2.4510950">
        <ele>940.4</ele>
        <time>2019-07-06T14:47:50Z</time>
      </trkpt>
      <trkpt lat="40.6831150" lon="-2.4514250">
        <ele>939.8</ele>
        <time>2019-07-06T14:47:56Z</time>
      </trkpt>
      <trkpt lat="40.6829470" lon="-2.4516550">
        <ele>939.6</ele>
        <time>2019-07-06T14:48:00Z</time>
      </trkpt>
      <trkpt lat="40.6828690" lon="-2.4517420">
        <ele>939.6</ele>
        <time>2019-07-06T14:48:02Z</time>
      </trkpt>
      <trkpt lat="40.6827180" lon="-2.4518570">
        <ele>940.0</ele>
        <time>2019-07-06T14:48:06Z</time>
      </trkpt>
      <trkpt lat="40.6826750" lon="-2.4518770">
        <ele>940.2</ele>
        <time>2019-07-06T14:48:07Z</time>
      </trkpt>
      <trkpt lat="40.6825920" lon="-2.4519240">
        <ele>940.0</ele>
        <time>2019-07-06T14:48:09Z</time>
      </trkpt>
      <trkpt lat="40.6825070" lon="-2.4520510">
        <ele>940.2</ele>
        <time>2019-07-06T14:48:12Z</time>
      </trkpt>
      <trkpt lat="40.6824760" lon="-2.4521590">
        <ele>940.6</ele>
        <time>2019-07-06T14:48:14Z</time>
      </trkpt>
      <trkpt lat="40.6823830" lon="-2.4524960">
        <ele>941.4</ele>
        <time>2019-07-06T14:48:20Z</time>
      </trkpt>
      <trkpt lat="40.6823320" lon="-2.4526710">
        <ele>941.8</ele>
        <time>2019-07-06T14:48:23Z</time>
      </trkpt>
      <trkpt lat="40.6822400" lon="-2.4530140">
        <ele>942.6</ele>
        <time>2019-07-06T14:48:29Z</time>
      </trkpt>
      <trkpt lat="40.6822120" lon="-2.4531300">
        <ele>942.8</ele>
        <time>2019-07-06T14:48:31Z</time>
      </trkpt>
      <trkpt lat="40.6821760" lon="-2.4534590">
        <ele>943.0</ele>
        <time>2019-07-06T14:48:36Z</time>
      </trkpt>
      <trkpt lat="40.6822010" lon="-2.4537800">
        <ele>943.4</ele>
        <time>2019-07-06T14:48:41Z</time>
      </trkpt>
      <trkpt lat="40.6822530" lon="-2.4541200">
        <ele>944.0</ele>
        <time>2019-07-06T14:48:47Z</time>
      </trkpt>
      <trkpt lat="40.6822980" lon="-2.4543480">
        <ele>944.2</ele>
        <time>2019-07-06T14:48:51Z</time>
      </trkpt>
      <trkpt lat="40.6824020" lon="-2.4547640">
        <ele>943.6</ele>
        <time>2019-07-06T14:48:58Z</time>
      </trkpt>
      <trkpt lat="40.6824620" lon="-2.4550400">
        <ele>944.4</ele>
        <time>2019-07-06T14:49:04Z</time>
      </trkpt>
      <trkpt lat="40.6824540" lon="-2.4550790">
        <ele>944.6</ele>
        <time>2019-07-06T14:49:05Z</time>
      </trkpt>
      <trkpt lat="40.6824120" lon="-2.4551450">
        <ele>945.2</ele>
        <time>2019-07-06T14:49:07Z</time>
      </trkpt>
      <trkpt lat="40.6823060" lon="-2.4552080">
        <ele>945.8</ele>
        <time>2019-07-06T14:49:10Z</time>
      </trkpt>
      <trkpt lat="40.6822250" lon="-2.4552430">
        <ele>946.4</ele>
        <time>2019-07-06T14:49:12Z</time>
      </trkpt>
      <trkpt lat="40.6819390" lon="-2.4553990">
        <ele>946.4</ele>
        <time>2019-07-06T14:49:19Z</time>
      </trkpt>
      <trkpt lat="40.6818570" lon="-2.4554400">
        <ele>946.6</ele>
        <time>2019-07-06T14:49:21Z</time>
      </trkpt>
      <trkpt lat="40.6815720" lon="-2.4555770">
        <ele>947.6</ele>
        <time>2019-07-06T14:49:28Z</time>
      </trkpt>
      <trkpt lat="40.6815320" lon="-2.4555990">
        <ele>947.6</ele>
        <time>2019-07-06T14:49:29Z</time>
      </trkpt>
      <trkpt lat="40.6814930" lon="-2.4556270">
        <ele>947.6</ele>
        <time>2019-07-06T14:49:30Z</time>
      </trkpt>
      <trkpt lat="40.6812730" lon="-2.4558100">
        <ele>948.4</ele>
        <time>2019-07-06T14:49:36Z</time>
      </trkpt>
      <trkpt lat="40.6811790" lon="-2.4558920">
        <ele>948.8</ele>
        <time>2019-07-06T14:49:39Z</time>
      </trkpt>
      <trkpt lat="40.6810140" lon="-2.4560110">
        <ele>949.8</ele>
        <time>2019-07-06T14:49:44Z</time>
      </trkpt>
      <trkpt lat="40.6809030" lon="-2.4560800">
        <ele>950.0</ele>
        <time>2019-07-06T14:49:47Z</time>
      </trkpt>
      <trkpt lat="40.6806520" lon="-2.4562320">
        <ele>950.8</ele>
        <time>2019-07-06T14:49:54Z</time>
      </trkpt>
      <trkpt lat="40.6806200" lon="-2.4562420">
        <ele>951.0</ele>
        <time>2019-07-06T14:49:55Z</time>
      </trkpt>
      <trkpt lat="40.6804900" lon="-2.4562180">
        <ele>952.2</ele>
        <time>2019-07-06T14:49:59Z</time>
      </trkpt>
      <trkpt lat="40.6803790" lon="-2.4560700">
        <ele>952.6</ele>
        <time>2019-07-06T14:50:03Z</time>
      </trkpt>
      <trkpt lat="40.6802230" lon="-2.4560090">
        <ele>952.4</ele>
        <time>2019-07-06T14:50:07Z</time>
      </trkpt>
      <trkpt lat="40.6800850" lon="-2.4561190">
        <ele>953.0</ele>
        <time>2019-07-06T14:50:11Z</time>
      </trkpt>
      <trkpt lat="40.6800220" lon="-2.4561750">
        <ele>953.4</ele>
        <time>2019-07-06T14:50:13Z</time>
      </trkpt>
      <trkpt lat="40.6798790" lon="-2.4562460">
        <ele>954.2</ele>
        <time>2019-07-06T14:50:17Z</time>
      </trkpt>
      <trkpt lat="40.6797980" lon="-2.4562380">
        <ele>954.4</ele>
        <time>2019-07-06T14:50:19Z</time>
      </trkpt>
      <trkpt lat="40.6797240" lon="-2.4561900">
        <ele>954.6</ele>
        <time>2019-07-06T14:50:21Z</time>
      </trkpt>
      <trkpt lat="40.6796900" lon="-2.4561570">
        <ele>954.8</ele>
        <time>2019-07-06T14:50:22Z</time>
      </trkpt>
      <trkpt lat="40.6796550" lon="-2.4561280">
        <ele>954.8</ele>
        <time>2019-07-06T14:50:23Z</time>
      </trkpt>
      <trkpt lat="40.6795300" lon="-2.4561110">
        <ele>955.2</ele>
        <time>2019-07-06T14:50:26Z</time>
      </trkpt>
      <trkpt lat="40.6794560" lon="-2.4561570">
        <ele>955.8</ele>
        <time>2019-07-06T14:50:28Z</time>
      </trkpt>
      <trkpt lat="40.6793880" lon="-2.4562150">
        <ele>956.0</ele>
        <time>2019-07-06T14:50:30Z</time>
      </trkpt>
      <trkpt lat="40.6791760" lon="-2.4564200">
        <ele>956.8</ele>
        <time>2019-07-06T14:50:37Z</time>
      </trkpt>
      <trkpt lat="40.6790720" lon="-2.4565840">
        <ele>957.4</ele>
        <time>2019-07-06T14:50:42Z</time>
      </trkpt>
      <trkpt lat="40.6790090" lon="-2.4567440">
        <ele>958.2</ele>
        <time>2019-07-06T14:50:47Z</time>
      </trkpt>
      <trkpt lat="40.6789980" lon="-2.4567750">
        <ele>958.6</ele>
        <time>2019-07-06T14:50:48Z</time>
      </trkpt>
      <trkpt lat="40.6789760" lon="-2.4568410">
        <ele>959.2</ele>
        <time>2019-07-06T14:50:50Z</time>
      </trkpt>
      <trkpt lat="40.6788800" lon="-2.4571060">
        <ele>960.2</ele>
        <time>2019-07-06T14:50:58Z</time>
      </trkpt>
      <trkpt lat="40.6788670" lon="-2.4571400">
        <ele>960.4</ele>
        <time>2019-07-06T14:50:59Z</time>
      </trkpt>
      <trkpt lat="40.6788100" lon="-2.4573510">
        <ele>961.2</ele>
        <time>2019-07-06T14:51:05Z</time>
      </trkpt>
      <trkpt lat="40.6787810" lon="-2.4574940">
        <ele>961.4</ele>
        <time>2019-07-06T14:51:09Z</time>
      </trkpt>
      <trkpt lat="40.6787190" lon="-2.4577130">
        <ele>961.0</ele>
        <time>2019-07-06T14:51:15Z</time>
      </trkpt>
      <trkpt lat="40.6786120" lon="-2.4580420">
        <ele>962.8</ele>
        <time>2019-07-06T14:51:24Z</time>
      </trkpt>
      <trkpt lat="40.6785690" lon="-2.4581400">
        <ele>964.0</ele>
        <time>2019-07-06T14:51:27Z</time>
      </trkpt>
      <trkpt lat="40.6785080" lon="-2.4582840">
        <ele>964.6</ele>
        <time>2019-07-06T14:51:31Z</time>
      </trkpt>
      <trkpt lat="40.6784710" lon="-2.4583590">
        <ele>965.0</ele>
        <time>2019-07-06T14:51:33Z</time>
      </trkpt>
      <trkpt lat="40.6783550" lon="-2.4585840">
        <ele>966.0</ele>
        <time>2019-07-06T14:51:39Z</time>
      </trkpt>
      <trkpt lat="40.6782970" lon="-2.4587010">
        <ele>966.6</ele>
        <time>2019-07-06T14:51:42Z</time>
      </trkpt>
      <trkpt lat="40.6782260" lon="-2.4588560">
        <ele>967.2</ele>
        <time>2019-07-06T14:51:46Z</time>
      </trkpt>
      <trkpt lat="40.6781430" lon="-2.4590580">
        <ele>968.0</ele>
        <time>2019-07-06T14:51:51Z</time>
      </trkpt>
      <trkpt lat="40.6780370" lon="-2.4592710">
        <ele>968.4</ele>
        <time>2019-07-06T14:51:56Z</time>
      </trkpt>
      <trkpt lat="40.6779780" lon="-2.4593380">
        <ele>969.0</ele>
        <time>2019-07-06T14:51:58Z</time>
      </trkpt>
      <trkpt lat="40.6778530" lon="-2.4594550">
        <ele>969.6</ele>
        <time>2019-07-06T14:52:02Z</time>
      </trkpt>
      <trkpt lat="40.6777580" lon="-2.4595340">
        <ele>970.0</ele>
        <time>2019-07-06T14:52:05Z</time>
      </trkpt>
      <trkpt lat="40.6776440" lon="-2.4596460">
        <ele>970.8</ele>
        <time>2019-07-06T14:52:09Z</time>
      </trkpt>
      <trkpt lat="40.6775730" lon="-2.4597290">
        <ele>971.2</ele>
        <time>2019-07-06T14:52:12Z</time>
      </trkpt>
      <trkpt lat="40.6775100" lon="-2.4598070">
        <ele>971.8</ele>
        <time>2019-07-06T14:52:15Z</time>
      </trkpt>
      <trkpt lat="40.6774510" lon="-2.4598920">
        <ele>973.0</ele>
        <time>2019-07-06T14:52:18Z</time>
      </trkpt>
      <trkpt lat="40.6774320" lon="-2.4599160">
        <ele>973.6</ele>
        <time>2019-07-06T14:52:19Z</time>
      </trkpt>
      <trkpt lat="40.6773910" lon="-2.4599650">
        <ele>974.0</ele>
        <time>2019-07-06T14:52:21Z</time>
      </trkpt>
      <trkpt lat="40.6773280" lon="-2.4600430">
        <ele>975.4</ele>
        <time>2019-07-06T14:52:24Z</time>
      </trkpt>
      <trkpt lat="40.6772880" lon="-2.4600910">
        <ele>975.8</ele>
        <time>2019-07-06T14:52:26Z</time>
      </trkpt>
      <trkpt lat="40.6772280" lon="-2.4601550">
        <ele>976.4</ele>
        <time>2019-07-06T14:52:29Z</time>
      </trkpt>
      <trkpt lat="40.6771460" lon="-2.4602290">
        <ele>977.6</ele>
        <time>2019-07-06T14:52:33Z</time>
      </trkpt>
      <trkpt lat="40.6770270" lon="-2.4603550">
        <ele>978.8</ele>
        <time>2019-07-06T14:52:39Z</time>
      </trkpt>
      <trkpt lat="40.6770060" lon="-2.4603750">
        <ele>979.0</ele>
        <time>2019-07-06T14:52:40Z</time>
      </trkpt>
      <trkpt lat="40.6769310" lon="-2.4604620">
        <ele>979.8</ele>
        <time>2019-07-06T14:52:44Z</time>
      </trkpt>
      <trkpt lat="40.6768740" lon="-2.4605530">
        <ele>981.0</ele>
        <time>2019-07-06T14:52:48Z</time>
      </trkpt>
      <trkpt lat="40.6767800" lon="-2.4606930">
        <ele>982.4</ele>
        <time>2019-07-06T14:52:54Z</time>
      </trkpt>
      <trkpt lat="40.6767610" lon="-2.4607140">
        <ele>982.8</ele>
        <time>2019-07-06T14:52:55Z</time>
      </trkpt>
      <trkpt lat="40.6767000" lon="-2.4607660">
        <ele>983.6</ele>
        <time>2019-07-06T14:52:58Z</time>
      </trkpt>
      <trkpt lat="40.6765820" lon="-2.4608560">
        <ele>984.0</ele>
        <time>2019-07-06T14:53:03Z</time>
      </trkpt>
      <trkpt lat="40.6763700" lon="-2.4610120">
        <ele>985.0</ele>
        <time>2019-07-06T14:53:10Z</time>
      </trkpt>
      <trkpt lat="40.6763370" lon="-2.4610390">
        <ele>985.0</ele>
        <time>2019-07-06T14:53:11Z</time>
      </trkpt>
      <trkpt lat="40.6760760" lon="-2.4612430">
        <ele>985.8</ele>
        <time>2019-07-06T14:53:19Z</time>
      </trkpt>
      <trkpt lat="40.6760430" lon="-2.4612630">
        <ele>986.0</ele>
        <time>2019-07-06T14:53:20Z</time>
      </trkpt>
      <trkpt lat="40.6758690" lon="-2.4613770">
        <ele>986.4</ele>
        <time>2019-07-06T14:53:25Z</time>
      </trkpt>
      <trkpt lat="40.6758330" lon="-2.4613970">
        <ele>986.8</ele>
        <time>2019-07-06T14:53:26Z</time>
      </trkpt>
      <trkpt lat="40.6757950" lon="-2.4614160">
        <ele>986.8</ele>
        <time>2019-07-06T14:53:27Z</time>
      </trkpt>
      <trkpt lat="40.6757170" lon="-2.4614630">
        <ele>987.2</ele>
        <time>2019-07-06T14:53:29Z</time>
      </trkpt>
      <trkpt lat="40.6756870" lon="-2.4615060">
        <ele>987.2</ele>
        <time>2019-07-06T14:53:30Z</time>
      </trkpt>
      <trkpt lat="40.6757030" lon="-2.4616720">
        <ele>987.2</ele>
        <time>2019-07-06T14:53:33Z</time>
      </trkpt>
      <trkpt lat="40.6758340" lon="-2.4618050">
        <ele>987.6</ele>
        <time>2019-07-06T14:53:37Z</time>
      </trkpt>
      <trkpt lat="40.6759160" lon="-2.4618780">
        <ele>988.4</ele>
        <time>2019-07-06T14:53:40Z</time>
      </trkpt>
      <trkpt lat="40.6759800" lon="-2.4619600">
        <ele>989.4</ele>
        <time>2019-07-06T14:53:43Z</time>
      </trkpt>
      <trkpt lat="40.6760020" lon="-2.4619860">
        <ele>989.6</ele>
        <time>2019-07-06T14:53:44Z</time>
      </trkpt>
      <trkpt lat="40.6761220" lon="-2.4621430">
        <ele>990.2</ele>
        <time>2019-07-06T14:53:50Z</time>
      </trkpt>
      <trkpt lat="40.6761440" lon="-2.4622000">
        <ele>990.8</ele>
        <time>2019-07-06T14:53:52Z</time>
      </trkpt>
      <trkpt lat="40.6761690" lon="-2.4622850">
        <ele>991.8</ele>
        <time>2019-07-06T14:53:55Z</time>
      </trkpt>
      <trkpt lat="40.6761720" lon="-2.4623130">
        <ele>992.2</ele>
        <time>2019-07-06T14:53:56Z</time>
      </trkpt>
      <trkpt lat="40.6761870" lon="-2.4623700">
        <ele>992.8</ele>
        <time>2019-07-06T14:53:58Z</time>
      </trkpt>
      <trkpt lat="40.6762410" lon="-2.4624790">
        <ele>994.0</ele>
        <time>2019-07-06T14:54:02Z</time>
      </trkpt>
      <trkpt lat="40.6762940" lon="-2.4625430">
        <ele>994.2</ele>
        <time>2019-07-06T14:54:05Z</time>
      </trkpt>
      <trkpt lat="40.6763540" lon="-2.4625970">
        <ele>995.2</ele>
        <time>2019-07-06T14:54:08Z</time>
      </trkpt>
      <trkpt lat="40.6763780" lon="-2.4626040">
        <ele>995.4</ele>
        <time>2019-07-06T14:54:09Z</time>
      </trkpt>
      <trkpt lat="40.6764570" lon="-2.4626030">
        <ele>996.2</ele>
        <time>2019-07-06T14:54:12Z</time>
      </trkpt>
      <trkpt lat="40.6765590" lon="-2.4625770">
        <ele>997.4</ele>
        <time>2019-07-06T14:54:16Z</time>
      </trkpt>
      <trkpt lat="40.6765850" lon="-2.4625720">
        <ele>997.4</ele>
        <time>2019-07-06T14:54:17Z</time>
      </trkpt>
      <trkpt lat="40.6767610" lon="-2.4625850">
        <ele>998.2</ele>
        <time>2019-07-06T14:54:23Z</time>
      </trkpt>
      <trkpt lat="40.6767950" lon="-2.4626020">
        <ele>998.4</ele>
        <time>2019-07-06T14:54:24Z</time>
      </trkpt>
      <trkpt lat="40.6768720" lon="-2.4627080">
        <ele>999.0</ele>
        <time>2019-07-06T14:54:27Z</time>
      </trkpt>
      <trkpt lat="40.6769510" lon="-2.4629580">
        <ele>999.2</ele>
        <time>2019-07-06T14:54:32Z</time>
      </trkpt>
      <trkpt lat="40.6769710" lon="-2.4630090">
        <ele>999.2</ele>
        <time>2019-07-06T14:54:33Z</time>
      </trkpt>
      <trkpt lat="40.6770120" lon="-2.4631160">
        <ele>999.6</ele>
        <time>2019-07-06T14:54:35Z</time>
      </trkpt>
      <trkpt lat="40.6770530" lon="-2.4632250">
        <ele>999.8</ele>
        <time>2019-07-06T14:54:37Z</time>
      </trkpt>
      <trkpt lat="40.6771390" lon="-2.4633710">
        <ele>1000.0</ele>
        <time>2019-07-06T14:54:40Z</time>
      </trkpt>
      <trkpt lat="40.6772750" lon="-2.4635380">
        <ele>1000.0</ele>
        <time>2019-07-06T14:54:44Z</time>
      </trkpt>
      <trkpt lat="40.6773520" lon="-2.4635910">
        <ele>1000.2</ele>
        <time>2019-07-06T14:54:46Z</time>
      </trkpt>
      <trkpt lat="40.6774770" lon="-2.4636200">
        <ele>1000.2</ele>
        <time>2019-07-06T14:54:49Z</time>
      </trkpt>
      <trkpt lat="40.6775600" lon="-2.4636240">
        <ele>1000.2</ele>
        <time>2019-07-06T14:54:51Z</time>
      </trkpt>
      <trkpt lat="40.6778750" lon="-2.4635570">
        <ele>1000.4</ele>
        <time>2019-07-06T14:54:58Z</time>
      </trkpt>
      <trkpt lat="40.6779700" lon="-2.4635320">
        <ele>1000.6</ele>
        <time>2019-07-06T14:55:00Z</time>
      </trkpt>
      <trkpt lat="40.6781620" lon="-2.4634680">
        <ele>1000.6</ele>
        <time>2019-07-06T14:55:04Z</time>
      </trkpt>
      <trkpt lat="40.6782610" lon="-2.4634420">
        <ele>1000.6</ele>
        <time>2019-07-06T14:55:06Z</time>
      </trkpt>
      <trkpt lat="40.6783140" lon="-2.4634370">
        <ele>1000.4</ele>
        <time>2019-07-06T14:55:07Z</time>
      </trkpt>
      <trkpt lat="40.6784930" lon="-2.4634490">
        <ele>1000.2</ele>
        <time>2019-07-06T14:55:10Z</time>
      </trkpt>
      <trkpt lat="40.6786180" lon="-2.4634700">
        <ele>999.8</ele>
        <time>2019-07-06T14:55:12Z</time>
      </trkpt>
      <trkpt lat="40.6786800" lon="-2.4634840">
        <ele>999.6</ele>
        <time>2019-07-06T14:55:13Z</time>
      </trkpt>
      <trkpt lat="40.6790000" lon="-2.4635140">
        <ele>999.4</ele>
        <time>2019-07-06T14:55:18Z</time>
      </trkpt>
      <trkpt lat="40.6791260" lon="-2.4635020">
        <ele>999.2</ele>
        <time>2019-07-06T14:55:20Z</time>
      </trkpt>
      <trkpt lat="40.6793860" lon="-2.4634410">
        <ele>998.8</ele>
        <time>2019-07-06T14:55:24Z</time>
      </trkpt>
      <trkpt lat="40.6795890" lon="-2.4633860">
        <ele>998.2</ele>
        <time>2019-07-06T14:55:27Z</time>
      </trkpt>
      <trkpt lat="40.6797020" lon="-2.4633520">
        <ele>997.6</ele>
        <time>2019-07-06T14:55:29Z</time>
      </trkpt>
      <trkpt lat="40.6797350" lon="-2.4633380">
        <ele>997.4</ele>
        <time>2019-07-06T14:55:30Z</time>
      </trkpt>
      <trkpt lat="40.6798130" lon="-2.4633060">
        <ele>997.2</ele>
        <time>2019-07-06T14:55:34Z</time>
      </trkpt>
      <trkpt lat="40.6798220" lon="-2.4633060">
        <ele>997.0</ele>
        <time>2019-07-06T14:55:35Z</time>
      </trkpt>
      <trkpt lat="40.6798220" lon="-2.4633040">
        <ele>997.0</ele>
        <time>2019-07-06T14:55:37Z</time>
      </trkpt>
      <trkpt lat="40.6798500" lon="-2.4632930">
        <ele>997.0</ele>
        <time>2019-07-06T14:55:46Z</time>
      </trkpt>
      <trkpt lat="40.6798870" lon="-2.4632710">
        <ele>996.8</ele>
        <time>2019-07-06T14:55:48Z</time>
      </trkpt>
      <trkpt lat="40.6800720" lon="-2.4631600">
        <ele>997.2</ele>
        <time>2019-07-06T14:55:55Z</time>
      </trkpt>
      <trkpt lat="40.6801520" lon="-2.4631310">
        <ele>997.2</ele>
        <time>2019-07-06T14:55:57Z</time>
      </trkpt>
      <trkpt lat="40.6802540" lon="-2.4631280">
        <ele>996.8</ele>
        <time>2019-07-06T14:55:59Z</time>
      </trkpt>
      <trkpt lat="40.6804290" lon="-2.4631710">
        <ele>996.0</ele>
        <time>2019-07-06T14:56:02Z</time>
      </trkpt>
      <trkpt lat="40.6806110" lon="-2.4632230">
        <ele>995.4</ele>
        <time>2019-07-06T14:56:05Z</time>
      </trkpt>
      <trkpt lat="40.6806690" lon="-2.4632470">
        <ele>995.0</ele>
        <time>2019-07-06T14:56:06Z</time>
      </trkpt>
      <trkpt lat="40.6807250" lon="-2.4632770">
        <ele>994.8</ele>
        <time>2019-07-06T14:56:07Z</time>
      </trkpt>
      <trkpt lat="40.6808940" lon="-2.4633550">
        <ele>994.4</ele>
        <time>2019-07-06T14:56:10Z</time>
      </trkpt>
      <trkpt lat="40.6810620" lon="-2.4634180">
        <ele>993.8</ele>
        <time>2019-07-06T14:56:13Z</time>
      </trkpt>
      <trkpt lat="40.6811210" lon="-2.4634290">
        <ele>993.6</ele>
        <time>2019-07-06T14:56:14Z</time>
      </trkpt>
      <trkpt lat="40.6811810" lon="-2.4634340">
        <ele>993.2</ele>
        <time>2019-07-06T14:56:15Z</time>
      </trkpt>
      <trkpt lat="40.6812420" lon="-2.4634400">
        <ele>992.6</ele>
        <time>2019-07-06T14:56:16Z</time>
      </trkpt>
      <trkpt lat="40.6813770" lon="-2.4634490">
        <ele>991.4</ele>
        <time>2019-07-06T14:56:18Z</time>
      </trkpt>
      <trkpt lat="40.6815280" lon="-2.4634510">
        <ele>990.4</ele>
        <time>2019-07-06T14:56:20Z</time>
      </trkpt>
      <trkpt lat="40.6816020" lon="-2.4634540">
        <ele>990.2</ele>
        <time>2019-07-06T14:56:21Z</time>
      </trkpt>
      <trkpt lat="40.6818200" lon="-2.4634550">
        <ele>989.0</ele>
        <time>2019-07-06T14:56:24Z</time>
      </trkpt>
      <trkpt lat="40.6818890" lon="-2.4634340">
        <ele>988.6</ele>
        <time>2019-07-06T14:56:25Z</time>
      </trkpt>
      <trkpt lat="40.6820800" lon="-2.4633130">
        <ele>987.8</ele>
        <time>2019-07-06T14:56:28Z</time>
      </trkpt>
      <trkpt lat="40.6822000" lon="-2.4632360">
        <ele>987.4</ele>
        <time>2019-07-06T14:56:30Z</time>
      </trkpt>
      <trkpt lat="40.6823630" lon="-2.4632230">
        <ele>987.0</ele>
        <time>2019-07-06T14:56:33Z</time>
      </trkpt>
      <trkpt lat="40.6824650" lon="-2.4632520">
        <ele>986.6</ele>
        <time>2019-07-06T14:56:35Z</time>
      </trkpt>
      <trkpt lat="40.6825670" lon="-2.4632820">
        <ele>986.6</ele>
        <time>2019-07-06T14:56:37Z</time>
      </trkpt>
      <trkpt lat="40.6826660" lon="-2.4633070">
        <ele>986.6</ele>
        <time>2019-07-06T14:56:39Z</time>
      </trkpt>
      <trkpt lat="40.6827160" lon="-2.4633120">
        <ele>986.6</ele>
        <time>2019-07-06T14:56:40Z</time>
      </trkpt>
      <trkpt lat="40.6828140" lon="-2.4633140">
        <ele>986.6</ele>
        <time>2019-07-06T14:56:42Z</time>
      </trkpt>
      <trkpt lat="40.6829160" lon="-2.4633020">
        <ele>986.4</ele>
        <time>2019-07-06T14:56:44Z</time>
      </trkpt>
      <trkpt lat="40.6829680" lon="-2.4632870">
        <ele>986.2</ele>
        <time>2019-07-06T14:56:45Z</time>
      </trkpt>
      <trkpt lat="40.6830740" lon="-2.4632560">
        <ele>986.0</ele>
        <time>2019-07-06T14:56:47Z</time>
      </trkpt>
      <trkpt lat="40.6831820" lon="-2.4632180">
        <ele>985.8</ele>
        <time>2019-07-06T14:56:49Z</time>
      </trkpt>
      <trkpt lat="40.6832380" lon="-2.4631930">
        <ele>985.6</ele>
        <time>2019-07-06T14:56:50Z</time>
      </trkpt>
      <trkpt lat="40.6833530" lon="-2.4631530">
        <ele>985.4</ele>
        <time>2019-07-06T14:56:52Z</time>
      </trkpt>
      <trkpt lat="40.6834090" lon="-2.4631430">
        <ele>985.4</ele>
        <time>2019-07-06T14:56:53Z</time>
      </trkpt>
      <trkpt lat="40.6835730" lon="-2.4631740">
        <ele>985.4</ele>
        <time>2019-07-06T14:56:56Z</time>
      </trkpt>
      <trkpt lat="40.6836270" lon="-2.4631980">
        <ele>985.4</ele>
        <time>2019-07-06T14:56:57Z</time>
      </trkpt>
      <trkpt lat="40.6839410" lon="-2.4633620">
        <ele>985.4</ele>
        <time>2019-07-06T14:57:03Z</time>
      </trkpt>
      <trkpt lat="40.6841530" lon="-2.4634730">
        <ele>985.0</ele>
        <time>2019-07-06T14:57:07Z</time>
      </trkpt>
      <trkpt lat="40.6842530" lon="-2.4635660">
        <ele>984.8</ele>
        <time>2019-07-06T14:57:09Z</time>
      </trkpt>
      <trkpt lat="40.6843550" lon="-2.4636650">
        <ele>984.2</ele>
        <time>2019-07-06T14:57:11Z</time>
      </trkpt>
      <trkpt lat="40.6845880" lon="-2.4638610">
        <ele>983.0</ele>
        <time>2019-07-06T14:57:15Z</time>
      </trkpt>
      <trkpt lat="40.6846900" lon="-2.4639460">
        <ele>982.6</ele>
        <time>2019-07-06T14:57:17Z</time>
      </trkpt>
      <trkpt lat="40.6847790" lon="-2.4640030">
        <ele>982.8</ele>
        <time>2019-07-06T14:57:19Z</time>
      </trkpt>
      <trkpt lat="40.6848190" lon="-2.4640270">
        <ele>983.0</ele>
        <time>2019-07-06T14:57:20Z</time>
      </trkpt>
      <trkpt lat="40.6848900" lon="-2.4640700">
        <ele>983.8</ele>
        <time>2019-07-06T14:57:22Z</time>
      </trkpt>
      <trkpt lat="40.6849510" lon="-2.4641200">
        <ele>984.4</ele>
        <time>2019-07-06T14:57:24Z</time>
      </trkpt>
      <trkpt lat="40.6850130" lon="-2.4641600">
        <ele>985.0</ele>
        <time>2019-07-06T14:57:26Z</time>
      </trkpt>
      <trkpt lat="40.6851430" lon="-2.4642570">
        <ele>985.2</ele>
        <time>2019-07-06T14:57:30Z</time>
      </trkpt>
      <trkpt lat="40.6854190" lon="-2.4644720">
        <ele>984.8</ele>
        <time>2019-07-06T14:57:37Z</time>
      </trkpt>
      <trkpt lat="40.6854800" lon="-2.4646380">
        <ele>985.2</ele>
        <time>2019-07-06T14:57:40Z</time>
      </trkpt>
      <trkpt lat="40.6854790" lon="-2.4647590">
        <ele>985.6</ele>
        <time>2019-07-06T14:57:42Z</time>
      </trkpt>
      <trkpt lat="40.6854800" lon="-2.4648180">
        <ele>985.6</ele>
        <time>2019-07-06T14:57:43Z</time>
      </trkpt>
      <trkpt lat="40.6854940" lon="-2.4649320">
        <ele>985.6</ele>
        <time>2019-07-06T14:57:45Z</time>
      </trkpt>
      <trkpt lat="40.6855230" lon="-2.4650480">
        <ele>985.6</ele>
        <time>2019-07-06T14:57:47Z</time>
      </trkpt>
      <trkpt lat="40.6856030" lon="-2.4652880">
        <ele>985.4</ele>
        <time>2019-07-06T14:57:51Z</time>
      </trkpt>
      <trkpt lat="40.6857130" lon="-2.4655990">
        <ele>984.2</ele>
        <time>2019-07-06T14:57:55Z</time>
      </trkpt>
      <trkpt lat="40.6857410" lon="-2.4656860">
        <ele>984.0</ele>
        <time>2019-07-06T14:57:56Z</time>
      </trkpt>
      <trkpt lat="40.6858050" lon="-2.4659210">
        <ele>983.0</ele>
        <time>2019-07-06T14:57:59Z</time>
      </trkpt>
      <trkpt lat="40.6858240" lon="-2.4660020">
        <ele>982.2</ele>
        <time>2019-07-06T14:58:00Z</time>
      </trkpt>
      <trkpt lat="40.6858440" lon="-2.4660830">
        <ele>981.6</ele>
        <time>2019-07-06T14:58:01Z</time>
      </trkpt>
      <trkpt lat="40.6858920" lon="-2.4662560">
        <ele>980.6</ele>
        <time>2019-07-06T14:58:03Z</time>
      </trkpt>
      <trkpt lat="40.6859580" lon="-2.4665100">
        <ele>979.4</ele>
        <time>2019-07-06T14:58:06Z</time>
      </trkpt>
      <trkpt lat="40.6859870" lon="-2.4666640">
        <ele>977.8</ele>
        <time>2019-07-06T14:58:08Z</time>
      </trkpt>
      <trkpt lat="40.6860240" lon="-2.4668560">
        <ele>977.0</ele>
        <time>2019-07-06T14:58:11Z</time>
      </trkpt>
      <trkpt lat="40.6860380" lon="-2.4669130">
        <ele>976.6</ele>
        <time>2019-07-06T14:58:12Z</time>
      </trkpt>
      <trkpt lat="40.6861160" lon="-2.4670530">
        <ele>975.4</ele>
        <time>2019-07-06T14:58:15Z</time>
      </trkpt>
      <trkpt lat="40.6861550" lon="-2.4670940">
        <ele>975.2</ele>
        <time>2019-07-06T14:58:16Z</time>
      </trkpt>
      <trkpt lat="40.6861940" lon="-2.4671420">
        <ele>974.8</ele>
        <time>2019-07-06T14:58:17Z</time>
      </trkpt>
      <trkpt lat="40.6862250" lon="-2.4671970">
        <ele>974.4</ele>
        <time>2019-07-06T14:58:18Z</time>
      </trkpt>
      <trkpt lat="40.6862470" lon="-2.4672540">
        <ele>974.4</ele>
        <time>2019-07-06T14:58:19Z</time>
      </trkpt>
      <trkpt lat="40.6862680" lon="-2.4674290">
        <ele>973.8</ele>
        <time>2019-07-06T14:58:22Z</time>
      </trkpt>
      <trkpt lat="40.6862770" lon="-2.4674850">
        <ele>973.8</ele>
        <time>2019-07-06T14:58:23Z</time>
      </trkpt>
      <trkpt lat="40.6863440" lon="-2.4675960">
        <ele>972.6</ele>
        <time>2019-07-06T14:58:25Z</time>
      </trkpt>
      <trkpt lat="40.6863970" lon="-2.4676530">
        <ele>971.8</ele>
        <time>2019-07-06T14:58:26Z</time>
      </trkpt>
      <trkpt lat="40.6864510" lon="-2.4677140">
        <ele>971.2</ele>
        <time>2019-07-06T14:58:27Z</time>
      </trkpt>
      <trkpt lat="40.6865220" lon="-2.4678530">
        <ele>970.2</ele>
        <time>2019-07-06T14:58:29Z</time>
      </trkpt>
      <trkpt lat="40.6865380" lon="-2.4679260">
        <ele>970.0</ele>
        <time>2019-07-06T14:58:30Z</time>
      </trkpt>
      <trkpt lat="40.6865530" lon="-2.4679990">
        <ele>969.8</ele>
        <time>2019-07-06T14:58:31Z</time>
      </trkpt>
      <trkpt lat="40.6865710" lon="-2.4680640">
        <ele>969.6</ele>
        <time>2019-07-06T14:58:32Z</time>
      </trkpt>
      <trkpt lat="40.6866240" lon="-2.4681490">
        <ele>969.6</ele>
        <time>2019-07-06T14:58:34Z</time>
      </trkpt>
      <trkpt lat="40.6867670" lon="-2.4681890">
        <ele>969.4</ele>
        <time>2019-07-06T14:58:38Z</time>
      </trkpt>
      <trkpt lat="40.6868660" lon="-2.4682040">
        <ele>970.2</ele>
        <time>2019-07-06T14:58:41Z</time>
      </trkpt>
      <trkpt lat="40.6869130" lon="-2.4682110">
        <ele>970.6</ele>
        <time>2019-07-06T14:58:43Z</time>
      </trkpt>
      <trkpt lat="40.6870130" lon="-2.4682360">
        <ele>970.8</ele>
        <time>2019-07-06T14:58:47Z</time>
      </trkpt>
      <trkpt lat="40.6870370" lon="-2.4682510">
        <ele>970.6</ele>
        <time>2019-07-06T14:58:49Z</time>
      </trkpt>
      <trkpt lat="40.6870390" lon="-2.4682520">
        <ele>970.4</ele>
        <time>2019-07-06T14:58:51Z</time>
      </trkpt>
      <trkpt lat="40.6870640" lon="-2.4682640">
        <ele>969.8</ele>
        <time>2019-07-06T14:59:31Z</time>
      </trkpt>
      <trkpt lat="40.6870870" lon="-2.4682740">
        <ele>969.8</ele>
        <time>2019-07-06T14:59:32Z</time>
      </trkpt>
      <trkpt lat="40.6871840" lon="-2.4683300">
        <ele>969.4</ele>
        <time>2019-07-06T14:59:35Z</time>
      </trkpt>
      <trkpt lat="40.6872690" lon="-2.4683730">
        <ele>969.0</ele>
        <time>2019-07-06T14:59:37Z</time>
      </trkpt>
      <trkpt lat="40.6873570" lon="-2.4684280">
        <ele>968.4</ele>
        <time>2019-07-06T14:59:39Z</time>
      </trkpt>
      <trkpt lat="40.6873960" lon="-2.4684680">
        <ele>968.4</ele>
        <time>2019-07-06T14:59:40Z</time>
      </trkpt>
      <trkpt lat="40.6874590" lon="-2.4685560">
        <ele>968.2</ele>
        <time>2019-07-06T14:59:42Z</time>
      </trkpt>
      <trkpt lat="40.6875080" lon="-2.4686500">
        <ele>968.4</ele>
        <time>2019-07-06T14:59:44Z</time>
      </trkpt>
      <trkpt lat="40.6875440" lon="-2.4687740">
        <ele>968.2</ele>
        <time>2019-07-06T14:59:46Z</time>
      </trkpt>
      <trkpt lat="40.6875590" lon="-2.4688420">
        <ele>968.0</ele>
        <time>2019-07-06T14:59:47Z</time>
      </trkpt>
      <trkpt lat="40.6875950" lon="-2.4690480">
        <ele>967.2</ele>
        <time>2019-07-06T14:59:50Z</time>
      </trkpt>
      <trkpt lat="40.6876210" lon="-2.4691700">
        <ele>965.8</ele>
        <time>2019-07-06T14:59:52Z</time>
      </trkpt>
      <trkpt lat="40.6876370" lon="-2.4692230">
        <ele>965.2</ele>
        <time>2019-07-06T14:59:53Z</time>
      </trkpt>
      <trkpt lat="40.6876560" lon="-2.4692740">
        <ele>964.4</ele>
        <time>2019-07-06T14:59:54Z</time>
      </trkpt>
      <trkpt lat="40.6877140" lon="-2.4693770">
        <ele>963.0</ele>
        <time>2019-07-06T14:59:56Z</time>
      </trkpt>
      <trkpt lat="40.6877530" lon="-2.4694250">
        <ele>962.4</ele>
        <time>2019-07-06T14:59:57Z</time>
      </trkpt>
      <trkpt lat="40.6878480" lon="-2.4694950">
        <ele>961.0</ele>
        <time>2019-07-06T14:59:59Z</time>
      </trkpt>
      <trkpt lat="40.6879020" lon="-2.4695260">
        <ele>960.2</ele>
        <time>2019-07-06T15:00:00Z</time>
      </trkpt>
      <trkpt lat="40.6879610" lon="-2.4695590">
        <ele>959.4</ele>
        <time>2019-07-06T15:00:01Z</time>
      </trkpt>
      <trkpt lat="40.6880200" lon="-2.4696000">
        <ele>959.0</ele>
        <time>2019-07-06T15:00:02Z</time>
      </trkpt>
      <trkpt lat="40.6881620" lon="-2.4697760">
        <ele>958.6</ele>
        <time>2019-07-06T15:00:05Z</time>
      </trkpt>
      <trkpt lat="40.6882090" lon="-2.4699130">
        <ele>958.6</ele>
        <time>2019-07-06T15:00:07Z</time>
      </trkpt>
      <trkpt lat="40.6882290" lon="-2.4699750">
        <ele>958.8</ele>
        <time>2019-07-06T15:00:08Z</time>
      </trkpt>
      <trkpt lat="40.6882510" lon="-2.4700340">
        <ele>958.8</ele>
        <time>2019-07-06T15:00:09Z</time>
      </trkpt>
      <trkpt lat="40.6883490" lon="-2.4702100">
        <ele>958.4</ele>
        <time>2019-07-06T15:00:12Z</time>
      </trkpt>
      <trkpt lat="40.6883860" lon="-2.4702740">
        <ele>958.2</ele>
        <time>2019-07-06T15:00:13Z</time>
      </trkpt>
      <trkpt lat="40.6884190" lon="-2.4703380">
        <ele>957.8</ele>
        <time>2019-07-06T15:00:14Z</time>
      </trkpt>
      <trkpt lat="40.6884520" lon="-2.4703910">
        <ele>957.6</ele>
        <time>2019-07-06T15:00:15Z</time>
      </trkpt>
      <trkpt lat="40.6885410" lon="-2.4704610">
        <ele>956.8</ele>
        <time>2019-07-06T15:00:17Z</time>
      </trkpt>
      <trkpt lat="40.6886030" lon="-2.4704810">
        <ele>956.6</ele>
        <time>2019-07-06T15:00:18Z</time>
      </trkpt>
      <trkpt lat="40.6886670" lon="-2.4705020">
        <ele>955.6</ele>
        <time>2019-07-06T15:00:19Z</time>
      </trkpt>
      <trkpt lat="40.6887340" lon="-2.4705270">
        <ele>954.8</ele>
        <time>2019-07-06T15:00:20Z</time>
      </trkpt>
      <trkpt lat="40.6888050" lon="-2.4705510">
        <ele>954.2</ele>
        <time>2019-07-06T15:00:21Z</time>
      </trkpt>
      <trkpt lat="40.6888760" lon="-2.4705790">
        <ele>953.6</ele>
        <time>2019-07-06T15:00:22Z</time>
      </trkpt>
      <trkpt lat="40.6889410" lon="-2.4706160">
        <ele>952.6</ele>
        <time>2019-07-06T15:00:23Z</time>
      </trkpt>
      <trkpt lat="40.6889960" lon="-2.4706630">
        <ele>952.2</ele>
        <time>2019-07-06T15:00:24Z</time>
      </trkpt>
      <trkpt lat="40.6890410" lon="-2.4707200">
        <ele>951.6</ele>
        <time>2019-07-06T15:00:25Z</time>
      </trkpt>
      <trkpt lat="40.6890740" lon="-2.4707830">
        <ele>951.2</ele>
        <time>2019-07-06T15:00:26Z</time>
      </trkpt>
      <trkpt lat="40.6890950" lon="-2.4709190">
        <ele>950.8</ele>
        <time>2019-07-06T15:00:28Z</time>
      </trkpt>
      <trkpt lat="40.6890440" lon="-2.4711530">
        <ele>949.8</ele>
        <time>2019-07-06T15:00:31Z</time>
      </trkpt>
      <trkpt lat="40.6889710" lon="-2.4713140">
        <ele>949.0</ele>
        <time>2019-07-06T15:00:33Z</time>
      </trkpt>
      <trkpt lat="40.6889320" lon="-2.4713870">
        <ele>948.4</ele>
        <time>2019-07-06T15:00:34Z</time>
      </trkpt>
      <trkpt lat="40.6888550" lon="-2.4715100">
        <ele>947.6</ele>
        <time>2019-07-06T15:00:36Z</time>
      </trkpt>
      <trkpt lat="40.6888170" lon="-2.4715690">
        <ele>947.4</ele>
        <time>2019-07-06T15:00:37Z</time>
      </trkpt>
      <trkpt lat="40.6886430" lon="-2.4718080">
        <ele>946.2</ele>
        <time>2019-07-06T15:00:41Z</time>
      </trkpt>
      <trkpt lat="40.6885470" lon="-2.4719270">
        <ele>945.6</ele>
        <time>2019-07-06T15:00:43Z</time>
      </trkpt>
      <trkpt lat="40.6884970" lon="-2.4719940">
        <ele>945.0</ele>
        <time>2019-07-06T15:00:44Z</time>
      </trkpt>
      <trkpt lat="40.6884040" lon="-2.4721480">
        <ele>944.0</ele>
        <time>2019-07-06T15:00:46Z</time>
      </trkpt>
      <trkpt lat="40.6883680" lon="-2.4722340">
        <ele>943.2</ele>
        <time>2019-07-06T15:00:47Z</time>
      </trkpt>
      <trkpt lat="40.6883410" lon="-2.4723280">
        <ele>942.6</ele>
        <time>2019-07-06T15:00:48Z</time>
      </trkpt>
      <trkpt lat="40.6883090" lon="-2.4725420">
        <ele>941.6</ele>
        <time>2019-07-06T15:00:50Z</time>
      </trkpt>
      <trkpt lat="40.6882950" lon="-2.4726580">
        <ele>941.0</ele>
        <time>2019-07-06T15:00:51Z</time>
      </trkpt>
      <trkpt lat="40.6882780" lon="-2.4727770">
        <ele>940.4</ele>
        <time>2019-07-06T15:00:52Z</time>
      </trkpt>
      <trkpt lat="40.6882400" lon="-2.4730000">
        <ele>939.2</ele>
        <time>2019-07-06T15:00:54Z</time>
      </trkpt>
      <trkpt lat="40.6882110" lon="-2.4731840">
        <ele>938.0</ele>
        <time>2019-07-06T15:00:56Z</time>
      </trkpt>
      <trkpt lat="40.6881860" lon="-2.4733320">
        <ele>937.4</ele>
        <time>2019-07-06T15:00:58Z</time>
      </trkpt>
      <trkpt lat="40.6881400" lon="-2.4734660">
        <ele>936.8</ele>
        <time>2019-07-06T15:01:00Z</time>
      </trkpt>
      <trkpt lat="40.6880990" lon="-2.4736240">
        <ele>935.8</ele>
        <time>2019-07-06T15:01:02Z</time>
      </trkpt>
      <trkpt lat="40.6880910" lon="-2.4737150">
        <ele>935.2</ele>
        <time>2019-07-06T15:01:03Z</time>
      </trkpt>
      <trkpt lat="40.6880900" lon="-2.4738030">
        <ele>934.6</ele>
        <time>2019-07-06T15:01:04Z</time>
      </trkpt>
      <trkpt lat="40.6880960" lon="-2.4739840">
        <ele>933.2</ele>
        <time>2019-07-06T15:01:06Z</time>
      </trkpt>
      <trkpt lat="40.6881160" lon="-2.4741710">
        <ele>931.8</ele>
        <time>2019-07-06T15:01:08Z</time>
      </trkpt>
      <trkpt lat="40.6881700" lon="-2.4743510">
        <ele>930.2</ele>
        <time>2019-07-06T15:01:10Z</time>
      </trkpt>
      <trkpt lat="40.6882170" lon="-2.4744910">
        <ele>929.0</ele>
        <time>2019-07-06T15:01:12Z</time>
      </trkpt>
      <trkpt lat="40.6882530" lon="-2.4745820">
        <ele>927.6</ele>
        <time>2019-07-06T15:01:14Z</time>
      </trkpt>
      <trkpt lat="40.6882710" lon="-2.4746150">
        <ele>927.2</ele>
        <time>2019-07-06T15:01:15Z</time>
      </trkpt>
      <trkpt lat="40.6883380" lon="-2.4747120">
        <ele>926.4</ele>
        <time>2019-07-06T15:01:18Z</time>
      </trkpt>
      <trkpt lat="40.6883630" lon="-2.4747270">
        <ele>926.2</ele>
        <time>2019-07-06T15:01:19Z</time>
      </trkpt>
      <trkpt lat="40.6884020" lon="-2.4747250">
        <ele>925.8</ele>
        <time>2019-07-06T15:01:22Z</time>
      </trkpt>
      <trkpt lat="40.6884030" lon="-2.4747240">
        <ele>925.8</ele>
        <time>2019-07-06T15:01:23Z</time>
      </trkpt>
      <trkpt lat="40.6884300" lon="-2.4747110">
        <ele>925.2</ele>
        <time>2019-07-06T15:02:22Z</time>
      </trkpt>
      <trkpt lat="40.6884500" lon="-2.4747110">
        <ele>925.0</ele>
        <time>2019-07-06T15:02:23Z</time>
      </trkpt>
      <trkpt lat="40.6884740" lon="-2.4747150">
        <ele>925.0</ele>
        <time>2019-07-06T15:02:24Z</time>
      </trkpt>
      <trkpt lat="40.6885520" lon="-2.4747890">
        <ele>924.4</ele>
        <time>2019-07-06T15:02:29Z</time>
      </trkpt>
      <trkpt lat="40.6885780" lon="-2.4748280">
        <ele>924.2</ele>
        <time>2019-07-06T15:02:31Z</time>
      </trkpt>
      <trkpt lat="40.6886150" lon="-2.4748630">
        <ele>924.2</ele>
        <time>2019-07-06T15:02:33Z</time>
      </trkpt>
      <trkpt lat="40.6886430" lon="-2.4748730">
        <ele>924.2</ele>
        <time>2019-07-06T15:02:34Z</time>
      </trkpt>
      <trkpt lat="40.6887080" lon="-2.4748880">
        <ele>924.2</ele>
        <time>2019-07-06T15:02:36Z</time>
      </trkpt>
      <trkpt lat="40.6887920" lon="-2.4749060">
        <ele>924.2</ele>
        <time>2019-07-06T15:02:39Z</time>
      </trkpt>
      <trkpt lat="40.6888160" lon="-2.4748870">
        <ele>924.2</ele>
        <time>2019-07-06T15:02:40Z</time>
      </trkpt>
      <trkpt lat="40.6888320" lon="-2.4748120">
        <ele>924.8</ele>
        <time>2019-07-06T15:02:43Z</time>
      </trkpt>
      <trkpt lat="40.6888750" lon="-2.4747610">
        <ele>925.4</ele>
        <time>2019-07-06T15:02:47Z</time>
      </trkpt>
      <trkpt lat="40.6888860" lon="-2.4747490">
        <ele>925.4</ele>
        <time>2019-07-06T15:02:48Z</time>
      </trkpt>
      <trkpt lat="40.6889330" lon="-2.4747460">
        <ele>925.4</ele>
        <time>2019-07-06T15:02:52Z</time>
      </trkpt>
      <trkpt lat="40.6889120" lon="-2.4747470">
        <ele>925.4</ele>
        <time>2019-07-06T15:02:55Z</time>
      </trkpt>
      <trkpt lat="40.6889000" lon="-2.4747450">
        <ele>925.4</ele>
        <time>2019-07-06T15:02:56Z</time>
      </trkpt>
      <trkpt lat="40.6888260" lon="-2.4747650">
        <ele>925.2</ele>
        <time>2019-07-06T15:03:00Z</time>
      </trkpt>
      <trkpt lat="40.6888150" lon="-2.4747650">
        <ele>925.2</ele>
        <time>2019-07-06T15:03:03Z</time>
      </trkpt>
      <trkpt lat="40.6888290" lon="-2.4748610">
        <ele>927.4</ele>
        <time>2019-07-06T15:30:07Z</time>
      </trkpt>
      <trkpt lat="40.6888260" lon="-2.4748880">
        <ele>927.4</ele>
        <time>2019-07-06T15:30:08Z</time>
      </trkpt>
      <trkpt lat="40.6887660" lon="-2.4749160">
        <ele>927.0</ele>
        <time>2019-07-06T15:30:11Z</time>
      </trkpt>
      <trkpt lat="40.6886590" lon="-2.4748590">
        <ele>927.2</ele>
        <time>2019-07-06T15:30:16Z</time>
      </trkpt>
      <trkpt lat="40.6885730" lon="-2.4747700">
        <ele>927.4</ele>
        <time>2019-07-06T15:30:21Z</time>
      </trkpt>
      <trkpt lat="40.6884750" lon="-2.4747000">
        <ele>927.4</ele>
        <time>2019-07-06T15:30:27Z</time>
      </trkpt>
      <trkpt lat="40.6883370" lon="-2.4746470">
        <ele>927.6</ele>
        <time>2019-07-06T15:30:33Z</time>
      </trkpt>
      <trkpt lat="40.6882730" lon="-2.4745230">
        <ele>928.2</ele>
        <time>2019-07-06T15:30:38Z</time>
      </trkpt>
      <trkpt lat="40.6882400" lon="-2.4744510">
        <ele>928.2</ele>
        <time>2019-07-06T15:30:42Z</time>
      </trkpt>
      <trkpt lat="40.6882470" lon="-2.4744640">
        <ele>928.4</ele>
        <time>2019-07-06T15:30:43Z</time>
      </trkpt>
      <trkpt lat="40.6882620" lon="-2.4745380">
        <ele>928.4</ele>
        <time>2019-07-06T15:30:46Z</time>
      </trkpt>
      <trkpt lat="40.6882690" lon="-2.4745720">
        <ele>928.8</ele>
        <time>2019-07-06T15:30:47Z</time>
      </trkpt>
      <trkpt lat="40.6882630" lon="-2.4746580">
        <ele>928.6</ele>
        <time>2019-07-06T15:30:49Z</time>
      </trkpt>
      <trkpt lat="40.6882390" lon="-2.4746990">
        <ele>928.4</ele>
        <time>2019-07-06T15:30:50Z</time>
      </trkpt>
      <trkpt lat="40.6880360" lon="-2.4749200">
        <ele>928.0</ele>
        <time>2019-07-06T15:30:56Z</time>
      </trkpt>
      <trkpt lat="40.6878580" lon="-2.4751210">
        <ele>928.0</ele>
        <time>2019-07-06T15:31:01Z</time>
      </trkpt>
      <trkpt lat="40.6878180" lon="-2.4751650">
        <ele>927.8</ele>
        <time>2019-07-06T15:31:02Z</time>
      </trkpt>
      <trkpt lat="40.6877730" lon="-2.4752010">
        <ele>927.6</ele>
        <time>2019-07-06T15:31:03Z</time>
      </trkpt>
      <trkpt lat="40.6876280" lon="-2.4752860">
        <ele>926.6</ele>
        <time>2019-07-06T15:31:06Z</time>
      </trkpt>
      <trkpt lat="40.6874850" lon="-2.4753550">
        <ele>926.0</ele>
        <time>2019-07-06T15:31:10Z</time>
      </trkpt>
      <trkpt lat="40.6874480" lon="-2.4755260">
        <ele>925.2</ele>
        <time>2019-07-06T15:31:14Z</time>
      </trkpt>
      <trkpt lat="40.6873170" lon="-2.4756620">
        <ele>924.4</ele>
        <time>2019-07-06T15:31:18Z</time>
      </trkpt>
      <trkpt lat="40.6872670" lon="-2.4756660">
        <ele>924.2</ele>
        <time>2019-07-06T15:31:19Z</time>
      </trkpt>
      <trkpt lat="40.6872170" lon="-2.4756650">
        <ele>923.6</ele>
        <time>2019-07-06T15:31:20Z</time>
      </trkpt>
      <trkpt lat="40.6871720" lon="-2.4756540">
        <ele>923.2</ele>
        <time>2019-07-06T15:31:21Z</time>
      </trkpt>
      <trkpt lat="40.6871350" lon="-2.4756290">
        <ele>923.0</ele>
        <time>2019-07-06T15:31:22Z</time>
      </trkpt>
      <trkpt lat="40.6870820" lon="-2.4754900">
        <ele>922.8</ele>
        <time>2019-07-06T15:31:25Z</time>
      </trkpt>
      <trkpt lat="40.6870640" lon="-2.4752900">
        <ele>922.0</ele>
        <time>2019-07-06T15:31:29Z</time>
      </trkpt>
      <trkpt lat="40.6870460" lon="-2.4752260">
        <ele>921.8</ele>
        <time>2019-07-06T15:31:30Z</time>
      </trkpt>
      <trkpt lat="40.6869250" lon="-2.4750850">
        <ele>921.2</ele>
        <time>2019-07-06T15:31:33Z</time>
      </trkpt>
      <trkpt lat="40.6868200" lon="-2.4750350">
        <ele>921.0</ele>
        <time>2019-07-06T15:31:35Z</time>
      </trkpt>
      <trkpt lat="40.6866610" lon="-2.4749660">
        <ele>920.6</ele>
        <time>2019-07-06T15:31:38Z</time>
      </trkpt>
      <trkpt lat="40.6865000" lon="-2.4748800">
        <ele>920.4</ele>
        <time>2019-07-06T15:31:41Z</time>
      </trkpt>
      <trkpt lat="40.6863540" lon="-2.4747470">
        <ele>920.0</ele>
        <time>2019-07-06T15:31:44Z</time>
      </trkpt>
      <trkpt lat="40.6862150" lon="-2.4745090">
        <ele>918.6</ele>
        <time>2019-07-06T15:31:48Z</time>
      </trkpt>
      <trkpt lat="40.6861890" lon="-2.4744420">
        <ele>918.2</ele>
        <time>2019-07-06T15:31:49Z</time>
      </trkpt>
      <trkpt lat="40.6861530" lon="-2.4742950">
        <ele>917.8</ele>
        <time>2019-07-06T15:31:51Z</time>
      </trkpt>
      <trkpt lat="40.6861270" lon="-2.4741430">
        <ele>917.6</ele>
        <time>2019-07-06T15:31:53Z</time>
      </trkpt>
      <trkpt lat="40.6861190" lon="-2.4740660">
        <ele>917.6</ele>
        <time>2019-07-06T15:31:54Z</time>
      </trkpt>
      <trkpt lat="40.6861030" lon="-2.4737570">
        <ele>917.0</ele>
        <time>2019-07-06T15:31:58Z</time>
      </trkpt>
      <trkpt lat="40.6860650" lon="-2.4736060">
        <ele>916.8</ele>
        <time>2019-07-06T15:32:00Z</time>
      </trkpt>
      <trkpt lat="40.6859380" lon="-2.4734340">
        <ele>916.6</ele>
        <time>2019-07-06T15:32:03Z</time>
      </trkpt>
      <trkpt lat="40.6858160" lon="-2.4734370">
        <ele>916.4</ele>
        <time>2019-07-06T15:32:05Z</time>
      </trkpt>
      <trkpt lat="40.6856850" lon="-2.4736440">
        <ele>915.4</ele>
        <time>2019-07-06T15:32:08Z</time>
      </trkpt>
      <trkpt lat="40.6857010" lon="-2.4738600">
        <ele>914.0</ele>
        <time>2019-07-06T15:32:10Z</time>
      </trkpt>
      <trkpt lat="40.6857830" lon="-2.4740840">
        <ele>912.4</ele>
        <time>2019-07-06T15:32:12Z</time>
      </trkpt>
      <trkpt lat="40.6858160" lon="-2.4742050">
        <ele>911.4</ele>
        <time>2019-07-06T15:32:13Z</time>
      </trkpt>
      <trkpt lat="40.6858350" lon="-2.4743360">
        <ele>910.6</ele>
        <time>2019-07-06T15:32:14Z</time>
      </trkpt>
      <trkpt lat="40.6858510" lon="-2.4746250">
        <ele>909.2</ele>
        <time>2019-07-06T15:32:16Z</time>
      </trkpt>
      <trkpt lat="40.6858760" lon="-2.4749310">
        <ele>908.0</ele>
        <time>2019-07-06T15:32:18Z</time>
      </trkpt>
      <trkpt lat="40.6858950" lon="-2.4750760">
        <ele>907.0</ele>
        <time>2019-07-06T15:32:19Z</time>
      </trkpt>
      <trkpt lat="40.6859220" lon="-2.4752130">
        <ele>904.8</ele>
        <time>2019-07-06T15:32:20Z</time>
      </trkpt>
      <trkpt lat="40.6859520" lon="-2.4753420">
        <ele>903.6</ele>
        <time>2019-07-06T15:32:21Z</time>
      </trkpt>
      <trkpt lat="40.6859750" lon="-2.4754690">
        <ele>902.6</ele>
        <time>2019-07-06T15:32:22Z</time>
      </trkpt>
      <trkpt lat="40.6859780" lon="-2.4756050">
        <ele>902.0</ele>
        <time>2019-07-06T15:32:23Z</time>
      </trkpt>
      <trkpt lat="40.6859110" lon="-2.4758790">
        <ele>900.2</ele>
        <time>2019-07-06T15:32:25Z</time>
      </trkpt>
      <trkpt lat="40.6858570" lon="-2.4760020">
        <ele>899.4</ele>
        <time>2019-07-06T15:32:26Z</time>
      </trkpt>
      <trkpt lat="40.6858180" lon="-2.4761160">
        <ele>898.2</ele>
        <time>2019-07-06T15:32:27Z</time>
      </trkpt>
      <trkpt lat="40.6858020" lon="-2.4762270">
        <ele>897.0</ele>
        <time>2019-07-06T15:32:28Z</time>
      </trkpt>
      <trkpt lat="40.6858130" lon="-2.4763470">
        <ele>895.8</ele>
        <time>2019-07-06T15:32:29Z</time>
      </trkpt>
      <trkpt lat="40.6858480" lon="-2.4764690">
        <ele>894.6</ele>
        <time>2019-07-06T15:32:30Z</time>
      </trkpt>
      <trkpt lat="40.6858990" lon="-2.4765880">
        <ele>893.4</ele>
        <time>2019-07-06T15:32:31Z</time>
      </trkpt>
      <trkpt lat="40.6859610" lon="-2.4767060">
        <ele>892.0</ele>
        <time>2019-07-06T15:32:32Z</time>
      </trkpt>
      <trkpt lat="40.6860300" lon="-2.4768250">
        <ele>890.8</ele>
        <time>2019-07-06T15:32:33Z</time>
      </trkpt>
      <trkpt lat="40.6861970" lon="-2.4770570">
        <ele>889.0</ele>
        <time>2019-07-06T15:32:35Z</time>
      </trkpt>
      <trkpt lat="40.6862860" lon="-2.4771750">
        <ele>887.4</ele>
        <time>2019-07-06T15:32:36Z</time>
      </trkpt>
      <trkpt lat="40.6863730" lon="-2.4773030">
        <ele>886.6</ele>
        <time>2019-07-06T15:32:37Z</time>
      </trkpt>
      <trkpt lat="40.6864510" lon="-2.4774420">
        <ele>885.8</ele>
        <time>2019-07-06T15:32:38Z</time>
      </trkpt>
      <trkpt lat="40.6866080" lon="-2.4777280">
        <ele>884.0</ele>
        <time>2019-07-06T15:32:40Z</time>
      </trkpt>
      <trkpt lat="40.6866970" lon="-2.4778680">
        <ele>882.6</ele>
        <time>2019-07-06T15:32:41Z</time>
      </trkpt>
      <trkpt lat="40.6867900" lon="-2.4780090">
        <ele>881.6</ele>
        <time>2019-07-06T15:32:42Z</time>
      </trkpt>
      <trkpt lat="40.6868840" lon="-2.4781520">
        <ele>880.2</ele>
        <time>2019-07-06T15:32:43Z</time>
      </trkpt>
      <trkpt lat="40.6869800" lon="-2.4782930">
        <ele>878.4</ele>
        <time>2019-07-06T15:32:44Z</time>
      </trkpt>
      <trkpt lat="40.6870750" lon="-2.4784310">
        <ele>877.4</ele>
        <time>2019-07-06T15:32:45Z</time>
      </trkpt>
      <trkpt lat="40.6871660" lon="-2.4785640">
        <ele>876.2</ele>
        <time>2019-07-06T15:32:46Z</time>
      </trkpt>
      <trkpt lat="40.6872550" lon="-2.4786910">
        <ele>875.2</ele>
        <time>2019-07-06T15:32:47Z</time>
      </trkpt>
      <trkpt lat="40.6873400" lon="-2.4787980">
        <ele>874.2</ele>
        <time>2019-07-06T15:32:48Z</time>
      </trkpt>
      <trkpt lat="40.6875240" lon="-2.4789310">
        <ele>872.6</ele>
        <time>2019-07-06T15:32:50Z</time>
      </trkpt>
      <trkpt lat="40.6876280" lon="-2.4789570">
        <ele>871.4</ele>
        <time>2019-07-06T15:32:51Z</time>
      </trkpt>
      <trkpt lat="40.6877330" lon="-2.4789710">
        <ele>870.6</ele>
        <time>2019-07-06T15:32:52Z</time>
      </trkpt>
      <trkpt lat="40.6878380" lon="-2.4789890">
        <ele>870.2</ele>
        <time>2019-07-06T15:32:53Z</time>
      </trkpt>
      <trkpt lat="40.6879380" lon="-2.4790270">
        <ele>869.6</ele>
        <time>2019-07-06T15:32:54Z</time>
      </trkpt>
      <trkpt lat="40.6881130" lon="-2.4791840">
        <ele>868.8</ele>
        <time>2019-07-06T15:32:56Z</time>
      </trkpt>
      <trkpt lat="40.6882790" lon="-2.4795670">
        <ele>867.6</ele>
        <time>2019-07-06T15:32:59Z</time>
      </trkpt>
      <trkpt lat="40.6884200" lon="-2.4799920">
        <ele>866.2</ele>
        <time>2019-07-06T15:33:02Z</time>
      </trkpt>
      <trkpt lat="40.6885060" lon="-2.4802920">
        <ele>864.8</ele>
        <time>2019-07-06T15:33:04Z</time>
      </trkpt>
      <trkpt lat="40.6885380" lon="-2.4804510">
        <ele>864.2</ele>
        <time>2019-07-06T15:33:05Z</time>
      </trkpt>
      <trkpt lat="40.6885560" lon="-2.4806130">
        <ele>863.2</ele>
        <time>2019-07-06T15:33:06Z</time>
      </trkpt>
      <trkpt lat="40.6886140" lon="-2.4809240">
        <ele>861.0</ele>
        <time>2019-07-06T15:33:08Z</time>
      </trkpt>
      <trkpt lat="40.6886690" lon="-2.4810670">
        <ele>860.0</ele>
        <time>2019-07-06T15:33:09Z</time>
      </trkpt>
      <trkpt lat="40.6887320" lon="-2.4812010">
        <ele>859.2</ele>
        <time>2019-07-06T15:33:10Z</time>
      </trkpt>
      <trkpt lat="40.6888010" lon="-2.4813290">
        <ele>858.6</ele>
        <time>2019-07-06T15:33:11Z</time>
      </trkpt>
      <trkpt lat="40.6888750" lon="-2.4814410">
        <ele>858.0</ele>
        <time>2019-07-06T15:33:12Z</time>
      </trkpt>
      <trkpt lat="40.6889520" lon="-2.4815310">
        <ele>857.4</ele>
        <time>2019-07-06T15:33:13Z</time>
      </trkpt>
      <trkpt lat="40.6890330" lon="-2.4815980">
        <ele>857.2</ele>
        <time>2019-07-06T15:33:14Z</time>
      </trkpt>
      <trkpt lat="40.6891220" lon="-2.4816380">
        <ele>856.4</ele>
        <time>2019-07-06T15:33:15Z</time>
      </trkpt>
      <trkpt lat="40.6893260" lon="-2.4816570">
        <ele>854.6</ele>
        <time>2019-07-06T15:33:17Z</time>
      </trkpt>
      <trkpt lat="40.6895360" lon="-2.4816770">
        <ele>853.0</ele>
        <time>2019-07-06T15:33:19Z</time>
      </trkpt>
      <trkpt lat="40.6897030" lon="-2.4817580">
        <ele>851.0</ele>
        <time>2019-07-06T15:33:21Z</time>
      </trkpt>
      <trkpt lat="40.6898070" lon="-2.4819010">
        <ele>849.8</ele>
        <time>2019-07-06T15:33:23Z</time>
      </trkpt>
      <trkpt lat="40.6898410" lon="-2.4819870">
        <ele>849.6</ele>
        <time>2019-07-06T15:33:24Z</time>
      </trkpt>
      <trkpt lat="40.6898590" lon="-2.4821840">
        <ele>848.8</ele>
        <time>2019-07-06T15:33:26Z</time>
      </trkpt>
      <trkpt lat="40.6898420" lon="-2.4822890">
        <ele>848.4</ele>
        <time>2019-07-06T15:33:27Z</time>
      </trkpt>
      <trkpt lat="40.6898150" lon="-2.4823940">
        <ele>848.0</ele>
        <time>2019-07-06T15:33:28Z</time>
      </trkpt>
      <trkpt lat="40.6897870" lon="-2.4825030">
        <ele>847.6</ele>
        <time>2019-07-06T15:33:29Z</time>
      </trkpt>
      <trkpt lat="40.6896950" lon="-2.4828340">
        <ele>846.4</ele>
        <time>2019-07-06T15:33:32Z</time>
      </trkpt>
      <trkpt lat="40.6896610" lon="-2.4829450">
        <ele>846.0</ele>
        <time>2019-07-06T15:33:33Z</time>
      </trkpt>
      <trkpt lat="40.6895960" lon="-2.4831680">
        <ele>845.4</ele>
        <time>2019-07-06T15:33:35Z</time>
      </trkpt>
      <trkpt lat="40.6895080" lon="-2.4834960">
        <ele>844.4</ele>
        <time>2019-07-06T15:33:38Z</time>
      </trkpt>
      <trkpt lat="40.6894970" lon="-2.4836040">
        <ele>844.4</ele>
        <time>2019-07-06T15:33:39Z</time>
      </trkpt>
      <trkpt lat="40.6895000" lon="-2.4837050">
        <ele>844.2</ele>
        <time>2019-07-06T15:33:40Z</time>
      </trkpt>
      <trkpt lat="40.6895220" lon="-2.4838920">
        <ele>844.6</ele>
        <time>2019-07-06T15:33:42Z</time>
      </trkpt>
      <trkpt lat="40.6895480" lon="-2.4840650">
        <ele>845.4</ele>
        <time>2019-07-06T15:33:44Z</time>
      </trkpt>
      <trkpt lat="40.6895630" lon="-2.4841470">
        <ele>845.8</ele>
        <time>2019-07-06T15:33:45Z</time>
      </trkpt>
      <trkpt lat="40.6895850" lon="-2.4842230">
        <ele>846.0</ele>
        <time>2019-07-06T15:33:46Z</time>
      </trkpt>
      <trkpt lat="40.6896650" lon="-2.4843440">
        <ele>846.2</ele>
        <time>2019-07-06T15:33:48Z</time>
      </trkpt>
      <trkpt lat="40.6898240" lon="-2.4844430">
        <ele>846.4</ele>
        <time>2019-07-06T15:33:51Z</time>
      </trkpt>
      <trkpt lat="40.6898800" lon="-2.4844680">
        <ele>846.4</ele>
        <time>2019-07-06T15:33:52Z</time>
      </trkpt>
      <trkpt lat="40.6899330" lon="-2.4844980">
        <ele>846.4</ele>
        <time>2019-07-06T15:33:53Z</time>
      </trkpt>
      <trkpt lat="40.6899830" lon="-2.4845330">
        <ele>846.6</ele>
        <time>2019-07-06T15:33:54Z</time>
      </trkpt>
      <trkpt lat="40.6901160" lon="-2.4846720">
        <ele>846.6</ele>
        <time>2019-07-06T15:33:57Z</time>
      </trkpt>
      <trkpt lat="40.6904150" lon="-2.4849900">
        <ele>847.6</ele>
        <time>2019-07-06T15:34:04Z</time>
      </trkpt>
      <trkpt lat="40.6904590" lon="-2.4850260">
        <ele>847.6</ele>
        <time>2019-07-06T15:34:05Z</time>
      </trkpt>
      <trkpt lat="40.6906710" lon="-2.4851920">
        <ele>848.0</ele>
        <time>2019-07-06T15:34:10Z</time>
      </trkpt>
      <trkpt lat="40.6907040" lon="-2.4852300">
        <ele>848.2</ele>
        <time>2019-07-06T15:34:11Z</time>
      </trkpt>
      <trkpt lat="40.6907300" lon="-2.4852730">
        <ele>848.4</ele>
        <time>2019-07-06T15:34:12Z</time>
      </trkpt>
      <trkpt lat="40.6907740" lon="-2.4854060">
        <ele>849.0</ele>
        <time>2019-07-06T15:34:15Z</time>
      </trkpt>
      <trkpt lat="40.6907850" lon="-2.4854980">
        <ele>849.2</ele>
        <time>2019-07-06T15:34:17Z</time>
      </trkpt>
      <trkpt lat="40.6908820" lon="-2.4856880">
        <ele>850.2</ele>
        <time>2019-07-06T15:34:22Z</time>
      </trkpt>
      <trkpt lat="40.6909100" lon="-2.4857090">
        <ele>850.4</ele>
        <time>2019-07-06T15:34:23Z</time>
      </trkpt>
      <trkpt lat="40.6910580" lon="-2.4857840">
        <ele>851.2</ele>
        <time>2019-07-06T15:34:28Z</time>
      </trkpt>
      <trkpt lat="40.6911750" lon="-2.4858590">
        <ele>852.4</ele>
        <time>2019-07-06T15:34:32Z</time>
      </trkpt>
      <trkpt lat="40.6912210" lon="-2.4858960">
        <ele>852.8</ele>
        <time>2019-07-06T15:34:34Z</time>
      </trkpt>
      <trkpt lat="40.6912380" lon="-2.4858980">
        <ele>852.8</ele>
        <time>2019-07-06T15:34:35Z</time>
      </trkpt>
      <trkpt lat="40.6912460" lon="-2.4859000">
        <ele>852.4</ele>
        <time>2019-07-06T15:34:37Z</time>
      </trkpt>
      <trkpt lat="40.6912290" lon="-2.4859230">
        <ele>852.4</ele>
        <time>2019-07-06T15:35:02Z</time>
      </trkpt>
      <trkpt lat="40.6912130" lon="-2.4859190">
        <ele>852.4</ele>
        <time>2019-07-06T15:35:03Z</time>
      </trkpt>
      <trkpt lat="40.6911830" lon="-2.4858960">
        <ele>852.6</ele>
        <time>2019-07-06T15:35:07Z</time>
      </trkpt>
      <trkpt lat="40.6911800" lon="-2.4858600">
        <ele>852.4</ele>
        <time>2019-07-06T15:36:38Z</time>
      </trkpt>
      <trkpt lat="40.6911940" lon="-2.4858500">
        <ele>852.2</ele>
        <time>2019-07-06T15:36:39Z</time>
      </trkpt>
      <trkpt lat="40.6912120" lon="-2.4858540">
        <ele>852.2</ele>
        <time>2019-07-06T15:36:40Z</time>
      </trkpt>
      <trkpt lat="40.6912560" lon="-2.4859150">
        <ele>852.2</ele>
        <time>2019-07-06T15:36:43Z</time>
      </trkpt>
      <trkpt lat="40.6912880" lon="-2.4859630">
        <ele>852.6</ele>
        <time>2019-07-06T15:36:45Z</time>
      </trkpt>
      <trkpt lat="40.6913440" lon="-2.4860700">
        <ele>853.0</ele>
        <time>2019-07-06T15:36:49Z</time>
      </trkpt>
      <trkpt lat="40.6913740" lon="-2.4861750">
        <ele>853.4</ele>
        <time>2019-07-06T15:36:52Z</time>
      </trkpt>
      <trkpt lat="40.6913760" lon="-2.4862680">
        <ele>853.6</ele>
        <time>2019-07-06T15:36:54Z</time>
      </trkpt>
      <trkpt lat="40.6913410" lon="-2.4863820">
        <ele>853.8</ele>
        <time>2019-07-06T15:36:56Z</time>
      </trkpt>
      <trkpt lat="40.6912230" lon="-2.4865610">
        <ele>853.4</ele>
        <time>2019-07-06T15:36:59Z</time>
      </trkpt>
      <trkpt lat="40.6911720" lon="-2.4866260">
        <ele>853.2</ele>
        <time>2019-07-06T15:37:00Z</time>
      </trkpt>
      <trkpt lat="40.6911220" lon="-2.4866980">
        <ele>852.6</ele>
        <time>2019-07-06T15:37:01Z</time>
      </trkpt>
      <trkpt lat="40.6910410" lon="-2.4868710">
        <ele>851.2</ele>
        <time>2019-07-06T15:37:03Z</time>
      </trkpt>
      <trkpt lat="40.6910090" lon="-2.4869650">
        <ele>851.0</ele>
        <time>2019-07-06T15:37:04Z</time>
      </trkpt>
      <trkpt lat="40.6909730" lon="-2.4870570">
        <ele>850.8</ele>
        <time>2019-07-06T15:37:05Z</time>
      </trkpt>
      <trkpt lat="40.6908760" lon="-2.4872260">
        <ele>850.2</ele>
        <time>2019-07-06T15:37:07Z</time>
      </trkpt>
      <trkpt lat="40.6908200" lon="-2.4873010">
        <ele>850.0</ele>
        <time>2019-07-06T15:37:08Z</time>
      </trkpt>
      <trkpt lat="40.6907630" lon="-2.4873700">
        <ele>849.8</ele>
        <time>2019-07-06T15:37:09Z</time>
      </trkpt>
      <trkpt lat="40.6905780" lon="-2.4876110">
        <ele>850.0</ele>
        <time>2019-07-06T15:37:13Z</time>
      </trkpt>
      <trkpt lat="40.6904440" lon="-2.4877460">
        <ele>850.8</ele>
        <time>2019-07-06T15:37:16Z</time>
      </trkpt>
      <trkpt lat="40.6903980" lon="-2.4877770">
        <ele>851.2</ele>
        <time>2019-07-06T15:37:17Z</time>
      </trkpt>
      <trkpt lat="40.6903510" lon="-2.4878040">
        <ele>851.2</ele>
        <time>2019-07-06T15:37:18Z</time>
      </trkpt>
      <trkpt lat="40.6900740" lon="-2.4879410">
        <ele>852.0</ele>
        <time>2019-07-06T15:37:24Z</time>
      </trkpt>
      <trkpt lat="40.6900280" lon="-2.4879620">
        <ele>852.2</ele>
        <time>2019-07-06T15:37:25Z</time>
      </trkpt>
      <trkpt lat="40.6898870" lon="-2.4880170">
        <ele>852.8</ele>
        <time>2019-07-06T15:37:28Z</time>
      </trkpt>
      <trkpt lat="40.6897050" lon="-2.4880780">
        <ele>853.6</ele>
        <time>2019-07-06T15:37:32Z</time>
      </trkpt>
      <trkpt lat="40.6895880" lon="-2.4881130">
        <ele>854.4</ele>
        <time>2019-07-06T15:37:35Z</time>
      </trkpt>
      <trkpt lat="40.6895520" lon="-2.4881230">
        <ele>854.6</ele>
        <time>2019-07-06T15:37:36Z</time>
      </trkpt>
      <trkpt lat="40.6894410" lon="-2.4881380">
        <ele>855.8</ele>
        <time>2019-07-06T15:37:39Z</time>
      </trkpt>
      <trkpt lat="40.6892980" lon="-2.4881410">
        <ele>856.8</ele>
        <time>2019-07-06T15:37:43Z</time>
      </trkpt>
      <trkpt lat="40.6892640" lon="-2.4881480">
        <ele>857.2</ele>
        <time>2019-07-06T15:37:44Z</time>
      </trkpt>
      <trkpt lat="40.6890970" lon="-2.4881930">
        <ele>858.2</ele>
        <time>2019-07-06T15:37:49Z</time>
      </trkpt>
      <trkpt lat="40.6890690" lon="-2.4882010">
        <ele>858.4</ele>
        <time>2019-07-06T15:37:50Z</time>
      </trkpt>
      <trkpt lat="40.6889710" lon="-2.4882680">
        <ele>859.2</ele>
        <time>2019-07-06T15:37:54Z</time>
      </trkpt>
      <trkpt lat="40.6889500" lon="-2.4882940">
        <ele>859.6</ele>
        <time>2019-07-06T15:37:55Z</time>
      </trkpt>
      <trkpt lat="40.6889170" lon="-2.4884810">
        <ele>860.2</ele>
        <time>2019-07-06T15:38:00Z</time>
      </trkpt>
      <trkpt lat="40.6889280" lon="-2.4885180">
        <ele>860.4</ele>
        <time>2019-07-06T15:38:01Z</time>
      </trkpt>
      <trkpt lat="40.6889900" lon="-2.4886000">
        <ele>861.0</ele>
        <time>2019-07-06T15:38:04Z</time>
      </trkpt>
      <trkpt lat="40.6890430" lon="-2.4886330">
        <ele>861.6</ele>
        <time>2019-07-06T15:38:06Z</time>
      </trkpt>
      <trkpt lat="40.6892210" lon="-2.4887060">
        <ele>862.8</ele>
        <time>2019-07-06T15:38:12Z</time>
      </trkpt>
      <trkpt lat="40.6894030" lon="-2.4887630">
        <ele>863.8</ele>
        <time>2019-07-06T15:38:18Z</time>
      </trkpt>
      <trkpt lat="40.6894340" lon="-2.4887760">
        <ele>864.2</ele>
        <time>2019-07-06T15:38:19Z</time>
      </trkpt>
      <trkpt lat="40.6895510" lon="-2.4888220">
        <ele>865.0</ele>
        <time>2019-07-06T15:38:23Z</time>
      </trkpt>
      <trkpt lat="40.6896440" lon="-2.4889030">
        <ele>865.8</ele>
        <time>2019-07-06T15:38:27Z</time>
      </trkpt>
      <trkpt lat="40.6896690" lon="-2.4889320">
        <ele>866.0</ele>
        <time>2019-07-06T15:38:28Z</time>
      </trkpt>
      <trkpt lat="40.6897930" lon="-2.4891420">
        <ele>867.2</ele>
        <time>2019-07-06T15:38:34Z</time>
      </trkpt>
      <trkpt lat="40.6899490" lon="-2.4894700">
        <ele>867.8</ele>
        <time>2019-07-06T15:38:41Z</time>
      </trkpt>
      <trkpt lat="40.6899800" lon="-2.4895170">
        <ele>867.8</ele>
        <time>2019-07-06T15:38:42Z</time>
      </trkpt>
      <trkpt lat="40.6900960" lon="-2.4896200">
        <ele>868.2</ele>
        <time>2019-07-06T15:38:45Z</time>
      </trkpt>
      <trkpt lat="40.6901390" lon="-2.4896420">
        <ele>868.4</ele>
        <time>2019-07-06T15:38:46Z</time>
      </trkpt>
      <trkpt lat="40.6903010" lon="-2.4897290">
        <ele>869.2</ele>
        <time>2019-07-06T15:38:50Z</time>
      </trkpt>
      <trkpt lat="40.6903380" lon="-2.4897580">
        <ele>869.4</ele>
        <time>2019-07-06T15:38:51Z</time>
      </trkpt>
      <trkpt lat="40.6904150" lon="-2.4898140">
        <ele>870.0</ele>
        <time>2019-07-06T15:38:53Z</time>
      </trkpt>
      <trkpt lat="40.6904540" lon="-2.4898400">
        <ele>870.0</ele>
        <time>2019-07-06T15:38:54Z</time>
      </trkpt>
      <trkpt lat="40.6907200" lon="-2.4900490">
        <ele>870.6</ele>
        <time>2019-07-06T15:39:01Z</time>
      </trkpt>
      <trkpt lat="40.6907620" lon="-2.4900710">
        <ele>870.8</ele>
        <time>2019-07-06T15:39:02Z</time>
      </trkpt>
      <trkpt lat="40.6908040" lon="-2.4900880">
        <ele>871.0</ele>
        <time>2019-07-06T15:39:03Z</time>
      </trkpt>
      <trkpt lat="40.6909810" lon="-2.4901130">
        <ele>871.8</ele>
        <time>2019-07-06T15:39:07Z</time>
      </trkpt>
      <trkpt lat="40.6910690" lon="-2.4901370">
        <ele>872.0</ele>
        <time>2019-07-06T15:39:09Z</time>
      </trkpt>
      <trkpt lat="40.6911950" lon="-2.4901920">
        <ele>872.4</ele>
        <time>2019-07-06T15:39:12Z</time>
      </trkpt>
      <trkpt lat="40.6912340" lon="-2.4902200">
        <ele>872.4</ele>
        <time>2019-07-06T15:39:13Z</time>
      </trkpt>
      <trkpt lat="40.6913450" lon="-2.4903160">
        <ele>872.8</ele>
        <time>2019-07-06T15:39:16Z</time>
      </trkpt>
      <trkpt lat="40.6914210" lon="-2.4904540">
        <ele>873.0</ele>
        <time>2019-07-06T15:39:19Z</time>
      </trkpt>
      <trkpt lat="40.6914570" lon="-2.4907100">
        <ele>872.8</ele>
        <time>2019-07-06T15:39:23Z</time>
      </trkpt>
      <trkpt lat="40.6914530" lon="-2.4907900">
        <ele>872.4</ele>
        <time>2019-07-06T15:39:24Z</time>
      </trkpt>
      <trkpt lat="40.6914290" lon="-2.4910640">
        <ele>871.2</ele>
        <time>2019-07-06T15:39:27Z</time>
      </trkpt>
      <trkpt lat="40.6914150" lon="-2.4911610">
        <ele>870.8</ele>
        <time>2019-07-06T15:39:28Z</time>
      </trkpt>
      <trkpt lat="40.6913830" lon="-2.4913610">
        <ele>870.0</ele>
        <time>2019-07-06T15:39:30Z</time>
      </trkpt>
      <trkpt lat="40.6913380" lon="-2.4916800">
        <ele>868.6</ele>
        <time>2019-07-06T15:39:33Z</time>
      </trkpt>
      <trkpt lat="40.6913000" lon="-2.4919050">
        <ele>867.4</ele>
        <time>2019-07-06T15:39:35Z</time>
      </trkpt>
      <trkpt lat="40.6912480" lon="-2.4922660">
        <ele>866.0</ele>
        <time>2019-07-06T15:39:38Z</time>
      </trkpt>
      <trkpt lat="40.6912290" lon="-2.4925260">
        <ele>864.8</ele>
        <time>2019-07-06T15:39:40Z</time>
      </trkpt>
      <trkpt lat="40.6912290" lon="-2.4926610">
        <ele>864.0</ele>
        <time>2019-07-06T15:39:41Z</time>
      </trkpt>
      <trkpt lat="40.6912350" lon="-2.4927970">
        <ele>863.4</ele>
        <time>2019-07-06T15:39:42Z</time>
      </trkpt>
      <trkpt lat="40.6912480" lon="-2.4930640">
        <ele>862.4</ele>
        <time>2019-07-06T15:39:44Z</time>
      </trkpt>
      <trkpt lat="40.6912390" lon="-2.4933060">
        <ele>861.6</ele>
        <time>2019-07-06T15:39:46Z</time>
      </trkpt>
      <trkpt lat="40.6912120" lon="-2.4933980">
        <ele>861.2</ele>
        <time>2019-07-06T15:39:47Z</time>
      </trkpt>
      <trkpt lat="40.6911670" lon="-2.4934650">
        <ele>860.8</ele>
        <time>2019-07-06T15:39:48Z</time>
      </trkpt>
      <trkpt lat="40.6911090" lon="-2.4935100">
        <ele>860.0</ele>
        <time>2019-07-06T15:39:49Z</time>
      </trkpt>
      <trkpt lat="40.6909770" lon="-2.4935630">
        <ele>858.8</ele>
        <time>2019-07-06T15:39:51Z</time>
      </trkpt>
      <trkpt lat="40.6909050" lon="-2.4935800">
        <ele>858.0</ele>
        <time>2019-07-06T15:39:52Z</time>
      </trkpt>
      <trkpt lat="40.6908300" lon="-2.4935960">
        <ele>857.4</ele>
        <time>2019-07-06T15:39:53Z</time>
      </trkpt>
      <trkpt lat="40.6906660" lon="-2.4936320">
        <ele>856.4</ele>
        <time>2019-07-06T15:39:55Z</time>
      </trkpt>
      <trkpt lat="40.6905800" lon="-2.4936540">
        <ele>855.8</ele>
        <time>2019-07-06T15:39:56Z</time>
      </trkpt>
      <trkpt lat="40.6904930" lon="-2.4936820">
        <ele>855.2</ele>
        <time>2019-07-06T15:39:57Z</time>
      </trkpt>
      <trkpt lat="40.6903220" lon="-2.4937550">
        <ele>854.6</ele>
        <time>2019-07-06T15:39:59Z</time>
      </trkpt>
      <trkpt lat="40.6902410" lon="-2.4938040">
        <ele>854.0</ele>
        <time>2019-07-06T15:40:00Z</time>
      </trkpt>
      <trkpt lat="40.6901650" lon="-2.4938690">
        <ele>853.0</ele>
        <time>2019-07-06T15:40:01Z</time>
      </trkpt>
      <trkpt lat="40.6901000" lon="-2.4939480">
        <ele>852.4</ele>
        <time>2019-07-06T15:40:02Z</time>
      </trkpt>
      <trkpt lat="40.6900100" lon="-2.4941310">
        <ele>851.4</ele>
        <time>2019-07-06T15:40:04Z</time>
      </trkpt>
      <trkpt lat="40.6899800" lon="-2.4942270">
        <ele>850.8</ele>
        <time>2019-07-06T15:40:05Z</time>
      </trkpt>
      <trkpt lat="40.6898940" lon="-2.4945330">
        <ele>850.0</ele>
        <time>2019-07-06T15:40:08Z</time>
      </trkpt>
      <trkpt lat="40.6898600" lon="-2.4946400">
        <ele>849.0</ele>
        <time>2019-07-06T15:40:09Z</time>
      </trkpt>
      <trkpt lat="40.6898250" lon="-2.4947520">
        <ele>848.2</ele>
        <time>2019-07-06T15:40:10Z</time>
      </trkpt>
      <trkpt lat="40.6897920" lon="-2.4948680">
        <ele>847.4</ele>
        <time>2019-07-06T15:40:11Z</time>
      </trkpt>
      <trkpt lat="40.6897260" lon="-2.4951050">
        <ele>845.6</ele>
        <time>2019-07-06T15:40:13Z</time>
      </trkpt>
      <trkpt lat="40.6896360" lon="-2.4954360">
        <ele>845.2</ele>
        <time>2019-07-06T15:40:16Z</time>
      </trkpt>
      <trkpt lat="40.6895590" lon="-2.4957110">
        <ele>845.4</ele>
        <time>2019-07-06T15:40:19Z</time>
      </trkpt>
      <trkpt lat="40.6895190" lon="-2.4958670">
        <ele>846.0</ele>
        <time>2019-07-06T15:40:21Z</time>
      </trkpt>
      <trkpt lat="40.6894740" lon="-2.4960010">
        <ele>847.0</ele>
        <time>2019-07-06T15:40:23Z</time>
      </trkpt>
      <trkpt lat="40.6894150" lon="-2.4961870">
        <ele>847.8</ele>
        <time>2019-07-06T15:40:26Z</time>
      </trkpt>
      <trkpt lat="40.6894000" lon="-2.4962480">
        <ele>848.0</ele>
        <time>2019-07-06T15:40:27Z</time>
      </trkpt>
      <trkpt lat="40.6893860" lon="-2.4963090">
        <ele>848.2</ele>
        <time>2019-07-06T15:40:28Z</time>
      </trkpt>
      <trkpt lat="40.6893120" lon="-2.4965940">
        <ele>848.8</ele>
        <time>2019-07-06T15:40:33Z</time>
      </trkpt>
      <trkpt lat="40.6892780" lon="-2.4967070">
        <ele>849.2</ele>
        <time>2019-07-06T15:40:35Z</time>
      </trkpt>
      <trkpt lat="40.6892590" lon="-2.4967600">
        <ele>849.2</ele>
        <time>2019-07-06T15:40:36Z</time>
      </trkpt>
      <trkpt lat="40.6892270" lon="-2.4968690">
        <ele>849.4</ele>
        <time>2019-07-06T15:40:38Z</time>
      </trkpt>
      <trkpt lat="40.6891690" lon="-2.4970690">
        <ele>849.8</ele>
        <time>2019-07-06T15:40:42Z</time>
      </trkpt>
      <trkpt lat="40.6891290" lon="-2.4972100">
        <ele>850.6</ele>
        <time>2019-07-06T15:40:45Z</time>
      </trkpt>
      <trkpt lat="40.6890920" lon="-2.4973890">
        <ele>851.6</ele>
        <time>2019-07-06T15:40:49Z</time>
      </trkpt>
      <trkpt lat="40.6890720" lon="-2.4974750">
        <ele>851.8</ele>
        <time>2019-07-06T15:40:51Z</time>
      </trkpt>
      <trkpt lat="40.6890420" lon="-2.4976410">
        <ele>852.8</ele>
        <time>2019-07-06T15:40:55Z</time>
      </trkpt>
      <trkpt lat="40.6890560" lon="-2.4977210">
        <ele>853.4</ele>
        <time>2019-07-06T15:40:57Z</time>
      </trkpt>
      <trkpt lat="40.6890690" lon="-2.4977560">
        <ele>853.8</ele>
        <time>2019-07-06T15:40:58Z</time>
      </trkpt>
      <trkpt lat="40.6891320" lon="-2.4978350">
        <ele>855.2</ele>
        <time>2019-07-06T15:41:01Z</time>
      </trkpt>
      <trkpt lat="40.6891570" lon="-2.4978520">
        <ele>855.4</ele>
        <time>2019-07-06T15:41:02Z</time>
      </trkpt>
      <trkpt lat="40.6892400" lon="-2.4978670">
        <ele>856.4</ele>
        <time>2019-07-06T15:41:05Z</time>
      </trkpt>
      <trkpt lat="40.6892990" lon="-2.4978720">
        <ele>856.8</ele>
        <time>2019-07-06T15:41:07Z</time>
      </trkpt>
      <trkpt lat="40.6893790" lon="-2.4978730">
        <ele>857.6</ele>
        <time>2019-07-06T15:41:10Z</time>
      </trkpt>
      <trkpt lat="40.6894900" lon="-2.4978710">
        <ele>858.4</ele>
        <time>2019-07-06T15:41:14Z</time>
      </trkpt>
      <trkpt lat="40.6895170" lon="-2.4978660">
        <ele>858.6</ele>
        <time>2019-07-06T15:41:15Z</time>
      </trkpt>
      <trkpt lat="40.6896510" lon="-2.4978470">
        <ele>860.0</ele>
        <time>2019-07-06T15:41:20Z</time>
      </trkpt>
      <trkpt lat="40.6897340" lon="-2.4978350">
        <ele>860.4</ele>
        <time>2019-07-06T15:41:23Z</time>
      </trkpt>
      <trkpt lat="40.6897870" lon="-2.4978350">
        <ele>861.0</ele>
        <time>2019-07-06T15:41:25Z</time>
      </trkpt>
      <trkpt lat="40.6899070" lon="-2.4978650">
        <ele>862.2</ele>
        <time>2019-07-06T15:41:30Z</time>
      </trkpt>
      <trkpt lat="40.6899330" lon="-2.4979250">
        <ele>863.0</ele>
        <time>2019-07-06T15:41:32Z</time>
      </trkpt>
      <trkpt lat="40.6899340" lon="-2.4979620">
        <ele>863.6</ele>
        <time>2019-07-06T15:41:33Z</time>
      </trkpt>
      <trkpt lat="40.6899280" lon="-2.4979990">
        <ele>863.8</ele>
        <time>2019-07-06T15:41:34Z</time>
      </trkpt>
      <trkpt lat="40.6899080" lon="-2.4980640">
        <ele>864.2</ele>
        <time>2019-07-06T15:41:36Z</time>
      </trkpt>
      <trkpt lat="40.6898820" lon="-2.4981240">
        <ele>864.6</ele>
        <time>2019-07-06T15:41:38Z</time>
      </trkpt>
      <trkpt lat="40.6898270" lon="-2.4982040">
        <ele>865.4</ele>
        <time>2019-07-06T15:41:41Z</time>
      </trkpt>
      <trkpt lat="40.6897820" lon="-2.4982530">
        <ele>865.6</ele>
        <time>2019-07-06T15:41:43Z</time>
      </trkpt>
      <trkpt lat="40.6896990" lon="-2.4983530">
        <ele>867.0</ele>
        <time>2019-07-06T15:41:47Z</time>
      </trkpt>
      <trkpt lat="40.6896770" lon="-2.4983730">
        <ele>867.2</ele>
        <time>2019-07-06T15:41:48Z</time>
      </trkpt>
      <trkpt lat="40.6896040" lon="-2.4984680">
        <ele>868.2</ele>
        <time>2019-07-06T15:41:52Z</time>
      </trkpt>
      <trkpt lat="40.6895600" lon="-2.4985450">
        <ele>868.8</ele>
        <time>2019-07-06T15:41:55Z</time>
      </trkpt>
      <trkpt lat="40.6895180" lon="-2.4986250">
        <ele>869.4</ele>
        <time>2019-07-06T15:41:58Z</time>
      </trkpt>
      <trkpt lat="40.6894680" lon="-2.4987430">
        <ele>870.4</ele>
        <time>2019-07-06T15:42:02Z</time>
      </trkpt>
      <trkpt lat="40.6894550" lon="-2.4987730">
        <ele>870.6</ele>
        <time>2019-07-06T15:42:03Z</time>
      </trkpt>
      <trkpt lat="40.6894000" lon="-2.4989250">
        <ele>871.4</ele>
        <time>2019-07-06T15:42:08Z</time>
      </trkpt>
      <trkpt lat="40.6893880" lon="-2.4989560">
        <ele>871.6</ele>
        <time>2019-07-06T15:42:09Z</time>
      </trkpt>
      <trkpt lat="40.6892950" lon="-2.4992050">
        <ele>872.6</ele>
        <time>2019-07-06T15:42:17Z</time>
      </trkpt>
      <trkpt lat="40.6892380" lon="-2.4994100">
        <ele>873.2</ele>
        <time>2019-07-06T15:42:23Z</time>
      </trkpt>
      <trkpt lat="40.6891790" lon="-2.4996550">
        <ele>873.8</ele>
        <time>2019-07-06T15:42:30Z</time>
      </trkpt>
      <trkpt lat="40.6891710" lon="-2.4997280">
        <ele>874.4</ele>
        <time>2019-07-06T15:42:32Z</time>
      </trkpt>
      <trkpt lat="40.6891690" lon="-2.4998400">
        <ele>875.0</ele>
        <time>2019-07-06T15:42:35Z</time>
      </trkpt>
      <trkpt lat="40.6891900" lon="-2.4999510">
        <ele>875.8</ele>
        <time>2019-07-06T15:42:38Z</time>
      </trkpt>
      <trkpt lat="40.6892110" lon="-2.5000630">
        <ele>876.2</ele>
        <time>2019-07-06T15:42:41Z</time>
      </trkpt>
      <trkpt lat="40.6892260" lon="-2.5001720">
        <ele>877.4</ele>
        <time>2019-07-06T15:42:44Z</time>
      </trkpt>
      <trkpt lat="40.6892460" lon="-2.5002720">
        <ele>877.8</ele>
        <time>2019-07-06T15:42:47Z</time>
      </trkpt>
      <trkpt lat="40.6892710" lon="-2.5005240">
        <ele>878.6</ele>
        <time>2019-07-06T15:42:54Z</time>
      </trkpt>
      <trkpt lat="40.6892700" lon="-2.5006030">
        <ele>879.0</ele>
        <time>2019-07-06T15:42:56Z</time>
      </trkpt>
      <trkpt lat="40.6892660" lon="-2.5007230">
        <ele>879.6</ele>
        <time>2019-07-06T15:42:59Z</time>
      </trkpt>
      <trkpt lat="40.6892390" lon="-2.5008380">
        <ele>881.0</ele>
        <time>2019-07-06T15:43:02Z</time>
      </trkpt>
      <trkpt lat="40.6892270" lon="-2.5008750">
        <ele>881.2</ele>
        <time>2019-07-06T15:43:03Z</time>
      </trkpt>
      <trkpt lat="40.6891710" lon="-2.5010660">
        <ele>882.2</ele>
        <time>2019-07-06T15:43:08Z</time>
      </trkpt>
      <trkpt lat="40.6891220" lon="-2.5012110">
        <ele>883.0</ele>
        <time>2019-07-06T15:43:12Z</time>
      </trkpt>
      <trkpt lat="40.6891050" lon="-2.5012450">
        <ele>883.4</ele>
        <time>2019-07-06T15:43:13Z</time>
      </trkpt>
      <trkpt lat="40.6890300" lon="-2.5013710">
        <ele>884.4</ele>
        <time>2019-07-06T15:43:17Z</time>
      </trkpt>
      <trkpt lat="40.6889550" lon="-2.5014950">
        <ele>885.8</ele>
        <time>2019-07-06T15:43:21Z</time>
      </trkpt>
      <trkpt lat="40.6888460" lon="-2.5016400">
        <ele>886.8</ele>
        <time>2019-07-06T15:43:26Z</time>
      </trkpt>
      <trkpt lat="40.6887770" lon="-2.5017680">
        <ele>887.6</ele>
        <time>2019-07-06T15:43:30Z</time>
      </trkpt>
      <trkpt lat="40.6887630" lon="-2.5018040">
        <ele>887.8</ele>
        <time>2019-07-06T15:43:31Z</time>
      </trkpt>
      <trkpt lat="40.6887310" lon="-2.5019160">
        <ele>889.2</ele>
        <time>2019-07-06T15:43:34Z</time>
      </trkpt>
      <trkpt lat="40.6886960" lon="-2.5020240">
        <ele>889.8</ele>
        <time>2019-07-06T15:43:37Z</time>
      </trkpt>
      <trkpt lat="40.6886540" lon="-2.5021360">
        <ele>890.2</ele>
        <time>2019-07-06T15:43:40Z</time>
      </trkpt>
      <trkpt lat="40.6885940" lon="-2.5022850">
        <ele>891.2</ele>
        <time>2019-07-06T15:43:44Z</time>
      </trkpt>
      <trkpt lat="40.6885510" lon="-2.5024030">
        <ele>891.4</ele>
        <time>2019-07-06T15:43:47Z</time>
      </trkpt>
      <trkpt lat="40.6884330" lon="-2.5027460">
        <ele>892.2</ele>
        <time>2019-07-06T15:43:56Z</time>
      </trkpt>
      <trkpt lat="40.6883720" lon="-2.5028840">
        <ele>893.4</ele>
        <time>2019-07-06T15:44:00Z</time>
      </trkpt>
      <trkpt lat="40.6883430" lon="-2.5029560">
        <ele>894.2</ele>
        <time>2019-07-06T15:44:02Z</time>
      </trkpt>
      <trkpt lat="40.6883310" lon="-2.5029930">
        <ele>894.4</ele>
        <time>2019-07-06T15:44:03Z</time>
      </trkpt>
      <trkpt lat="40.6882530" lon="-2.5032040">
        <ele>895.6</ele>
        <time>2019-07-06T15:44:09Z</time>
      </trkpt>
      <trkpt lat="40.6882420" lon="-2.5032380">
        <ele>895.6</ele>
        <time>2019-07-06T15:44:10Z</time>
      </trkpt>
      <trkpt lat="40.6881890" lon="-2.5033720">
        <ele>896.8</ele>
        <time>2019-07-06T15:44:14Z</time>
      </trkpt>
      <trkpt lat="40.6881430" lon="-2.5035030">
        <ele>897.4</ele>
        <time>2019-07-06T15:44:18Z</time>
      </trkpt>
      <trkpt lat="40.6881170" lon="-2.5035670">
        <ele>897.8</ele>
        <time>2019-07-06T15:44:20Z</time>
      </trkpt>
      <trkpt lat="40.6880380" lon="-2.5037140">
        <ele>899.0</ele>
        <time>2019-07-06T15:44:25Z</time>
      </trkpt>
      <trkpt lat="40.6879970" lon="-2.5037660">
        <ele>899.2</ele>
        <time>2019-07-06T15:44:27Z</time>
      </trkpt>
      <trkpt lat="40.6879410" lon="-2.5038500">
        <ele>900.2</ele>
        <time>2019-07-06T15:44:30Z</time>
      </trkpt>
      <trkpt lat="40.6878380" lon="-2.5039370">
        <ele>901.0</ele>
        <time>2019-07-06T15:44:34Z</time>
      </trkpt>
      <trkpt lat="40.6877800" lon="-2.5039660">
        <ele>901.2</ele>
        <time>2019-07-06T15:44:36Z</time>
      </trkpt>
      <trkpt lat="40.6876340" lon="-2.5039950">
        <ele>902.4</ele>
        <time>2019-07-06T15:44:41Z</time>
      </trkpt>
      <trkpt lat="40.6876040" lon="-2.5039950">
        <ele>902.4</ele>
        <time>2019-07-06T15:44:42Z</time>
      </trkpt>
      <trkpt lat="40.6874680" lon="-2.5039740">
        <ele>903.6</ele>
        <time>2019-07-06T15:44:47Z</time>
      </trkpt>
      <trkpt lat="40.6873650" lon="-2.5039710">
        <ele>904.8</ele>
        <time>2019-07-06T15:44:51Z</time>
      </trkpt>
      <trkpt lat="40.6873130" lon="-2.5039730">
        <ele>906.0</ele>
        <time>2019-07-06T15:44:53Z</time>
      </trkpt>
      <trkpt lat="40.6872600" lon="-2.5039940">
        <ele>906.6</ele>
        <time>2019-07-06T15:44:55Z</time>
      </trkpt>
      <trkpt lat="40.6872120" lon="-2.5040280">
        <ele>907.2</ele>
        <time>2019-07-06T15:44:57Z</time>
      </trkpt>
      <trkpt lat="40.6871520" lon="-2.5041030">
        <ele>907.6</ele>
        <time>2019-07-06T15:45:00Z</time>
      </trkpt>
      <trkpt lat="40.6870240" lon="-2.5042870">
        <ele>908.2</ele>
        <time>2019-07-06T15:45:06Z</time>
      </trkpt>
      <trkpt lat="40.6869830" lon="-2.5043560">
        <ele>908.2</ele>
        <time>2019-07-06T15:45:08Z</time>
      </trkpt>
      <trkpt lat="40.6869350" lon="-2.5046200">
        <ele>908.8</ele>
        <time>2019-07-06T15:45:14Z</time>
      </trkpt>
      <trkpt lat="40.6869520" lon="-2.5048510">
        <ele>908.8</ele>
        <time>2019-07-06T15:45:18Z</time>
      </trkpt>
      <trkpt lat="40.6869460" lon="-2.5049110">
        <ele>908.8</ele>
        <time>2019-07-06T15:45:19Z</time>
      </trkpt>
      <trkpt lat="40.6868670" lon="-2.5051190">
        <ele>909.2</ele>
        <time>2019-07-06T15:45:23Z</time>
      </trkpt>
      <trkpt lat="40.6867650" lon="-2.5052280">
        <ele>909.6</ele>
        <time>2019-07-06T15:45:26Z</time>
      </trkpt>
      <trkpt lat="40.6866950" lon="-2.5052800">
        <ele>910.0</ele>
        <time>2019-07-06T15:45:28Z</time>
      </trkpt>
      <trkpt lat="40.6866610" lon="-2.5053010">
        <ele>910.2</ele>
        <time>2019-07-06T15:45:29Z</time>
      </trkpt>
      <trkpt lat="40.6865340" lon="-2.5054000">
        <ele>911.2</ele>
        <time>2019-07-06T15:45:33Z</time>
      </trkpt>
      <trkpt lat="40.6864920" lon="-2.5054770">
        <ele>912.0</ele>
        <time>2019-07-06T15:45:35Z</time>
      </trkpt>
      <trkpt lat="40.6864750" lon="-2.5055780">
        <ele>912.4</ele>
        <time>2019-07-06T15:45:37Z</time>
      </trkpt>
      <trkpt lat="40.6864790" lon="-2.5056970">
        <ele>912.6</ele>
        <time>2019-07-06T15:45:39Z</time>
      </trkpt>
      <trkpt lat="40.6865380" lon="-2.5061200">
        <ele>912.2</ele>
        <time>2019-07-06T15:45:45Z</time>
      </trkpt>
      <trkpt lat="40.6866140" lon="-2.5066200">
        <ele>912.2</ele>
        <time>2019-07-06T15:45:51Z</time>
      </trkpt>
      <trkpt lat="40.6866280" lon="-2.5067020">
        <ele>912.2</ele>
        <time>2019-07-06T15:45:52Z</time>
      </trkpt>
      <trkpt lat="40.6866740" lon="-2.5070510">
        <ele>911.2</ele>
        <time>2019-07-06T15:45:56Z</time>
      </trkpt>
      <trkpt lat="40.6867030" lon="-2.5072380">
        <ele>910.6</ele>
        <time>2019-07-06T15:45:58Z</time>
      </trkpt>
      <trkpt lat="40.6867500" lon="-2.5075190">
        <ele>910.4</ele>
        <time>2019-07-06T15:46:01Z</time>
      </trkpt>
      <trkpt lat="40.6867770" lon="-2.5077020">
        <ele>910.4</ele>
        <time>2019-07-06T15:46:03Z</time>
      </trkpt>
      <trkpt lat="40.6868450" lon="-2.5080430">
        <ele>910.4</ele>
        <time>2019-07-06T15:46:07Z</time>
      </trkpt>
      <trkpt lat="40.6868710" lon="-2.5081200">
        <ele>910.6</ele>
        <time>2019-07-06T15:46:08Z</time>
      </trkpt>
      <trkpt lat="40.6870070" lon="-2.5083790">
        <ele>911.4</ele>
        <time>2019-07-06T15:46:12Z</time>
      </trkpt>
      <trkpt lat="40.6871910" lon="-2.5086560">
        <ele>912.6</ele>
        <time>2019-07-06T15:46:17Z</time>
      </trkpt>
      <trkpt lat="40.6872970" lon="-2.5088130">
        <ele>913.4</ele>
        <time>2019-07-06T15:46:20Z</time>
      </trkpt>
      <trkpt lat="40.6873330" lon="-2.5088640">
        <ele>913.6</ele>
        <time>2019-07-06T15:46:21Z</time>
      </trkpt>
      <trkpt lat="40.6875020" lon="-2.5091010">
        <ele>914.4</ele>
        <time>2019-07-06T15:46:26Z</time>
      </trkpt>
      <trkpt lat="40.6875300" lon="-2.5091490">
        <ele>914.6</ele>
        <time>2019-07-06T15:46:27Z</time>
      </trkpt>
      <trkpt lat="40.6877010" lon="-2.5095440">
        <ele>915.6</ele>
        <time>2019-07-06T15:46:34Z</time>
      </trkpt>
      <trkpt lat="40.6878720" lon="-2.5100710">
        <ele>914.8</ele>
        <time>2019-07-06T15:46:41Z</time>
      </trkpt>
      <trkpt lat="40.6880120" lon="-2.5105050">
        <ele>914.0</ele>
        <time>2019-07-06T15:46:47Z</time>
      </trkpt>
      <trkpt lat="40.6880630" lon="-2.5106680">
        <ele>913.6</ele>
        <time>2019-07-06T15:46:49Z</time>
      </trkpt>
      <trkpt lat="40.6880890" lon="-2.5107510">
        <ele>913.6</ele>
        <time>2019-07-06T15:46:50Z</time>
      </trkpt>
      <trkpt lat="40.6881790" lon="-2.5110690">
        <ele>913.4</ele>
        <time>2019-07-06T15:46:54Z</time>
      </trkpt>
      <trkpt lat="40.6881880" lon="-2.5111480">
        <ele>913.2</ele>
        <time>2019-07-06T15:46:55Z</time>
      </trkpt>
      <trkpt lat="40.6881440" lon="-2.5113890">
        <ele>913.0</ele>
        <time>2019-07-06T15:46:58Z</time>
      </trkpt>
      <trkpt lat="40.6880710" lon="-2.5115510">
        <ele>912.6</ele>
        <time>2019-07-06T15:47:00Z</time>
      </trkpt>
      <trkpt lat="40.6880300" lon="-2.5116370">
        <ele>912.2</ele>
        <time>2019-07-06T15:47:01Z</time>
      </trkpt>
      <trkpt lat="40.6879520" lon="-2.5118170">
        <ele>911.2</ele>
        <time>2019-07-06T15:47:03Z</time>
      </trkpt>
      <trkpt lat="40.6878860" lon="-2.5120160">
        <ele>910.4</ele>
        <time>2019-07-06T15:47:05Z</time>
      </trkpt>
      <trkpt lat="40.6878640" lon="-2.5121260">
        <ele>910.2</ele>
        <time>2019-07-06T15:47:06Z</time>
      </trkpt>
      <trkpt lat="40.6878520" lon="-2.5122430">
        <ele>909.8</ele>
        <time>2019-07-06T15:47:07Z</time>
      </trkpt>
      <trkpt lat="40.6878620" lon="-2.5124750">
        <ele>909.0</ele>
        <time>2019-07-06T15:47:09Z</time>
      </trkpt>
      <trkpt lat="40.6878900" lon="-2.5125820">
        <ele>908.8</ele>
        <time>2019-07-06T15:47:10Z</time>
      </trkpt>
      <trkpt lat="40.6880660" lon="-2.5127960">
        <ele>908.0</ele>
        <time>2019-07-06T15:47:13Z</time>
      </trkpt>
      <trkpt lat="40.6881450" lon="-2.5128220">
        <ele>908.0</ele>
        <time>2019-07-06T15:47:14Z</time>
      </trkpt>
      <trkpt lat="40.6882220" lon="-2.5128410">
        <ele>908.2</ele>
        <time>2019-07-06T15:47:15Z</time>
      </trkpt>
      <trkpt lat="40.6883650" lon="-2.5128730">
        <ele>908.6</ele>
        <time>2019-07-06T15:47:17Z</time>
      </trkpt>
      <trkpt lat="40.6884900" lon="-2.5128900">
        <ele>909.4</ele>
        <time>2019-07-06T15:47:19Z</time>
      </trkpt>
      <trkpt lat="40.6885940" lon="-2.5129010">
        <ele>910.4</ele>
        <time>2019-07-06T15:47:21Z</time>
      </trkpt>
      <trkpt lat="40.6886390" lon="-2.5129060">
        <ele>910.8</ele>
        <time>2019-07-06T15:47:22Z</time>
      </trkpt>
      <trkpt lat="40.6888090" lon="-2.5129270">
        <ele>911.8</ele>
        <time>2019-07-06T15:47:26Z</time>
      </trkpt>
      <trkpt lat="40.6889330" lon="-2.5129570">
        <ele>912.8</ele>
        <time>2019-07-06T15:47:29Z</time>
      </trkpt>
      <trkpt lat="40.6892060" lon="-2.5131030">
        <ele>913.2</ele>
        <time>2019-07-06T15:47:35Z</time>
      </trkpt>
      <trkpt lat="40.6894230" lon="-2.5133630">
        <ele>912.8</ele>
        <time>2019-07-06T15:47:40Z</time>
      </trkpt>
      <trkpt lat="40.6894540" lon="-2.5134320">
        <ele>912.6</ele>
        <time>2019-07-06T15:47:41Z</time>
      </trkpt>
      <trkpt lat="40.6894750" lon="-2.5136710">
        <ele>912.6</ele>
        <time>2019-07-06T15:47:44Z</time>
      </trkpt>
      <trkpt lat="40.6894010" lon="-2.5138920">
        <ele>912.6</ele>
        <time>2019-07-06T15:47:47Z</time>
      </trkpt>
      <trkpt lat="40.6893690" lon="-2.5139620">
        <ele>912.6</ele>
        <time>2019-07-06T15:47:48Z</time>
      </trkpt>
      <trkpt lat="40.6892260" lon="-2.5142400">
        <ele>911.6</ele>
        <time>2019-07-06T15:47:52Z</time>
      </trkpt>
      <trkpt lat="40.6891130" lon="-2.5144470">
        <ele>911.4</ele>
        <time>2019-07-06T15:47:55Z</time>
      </trkpt>
      <trkpt lat="40.6889930" lon="-2.5148310">
        <ele>911.6</ele>
        <time>2019-07-06T15:48:00Z</time>
      </trkpt>
      <trkpt lat="40.6888680" lon="-2.5152960">
        <ele>912.4</ele>
        <time>2019-07-06T15:48:07Z</time>
      </trkpt>
      <trkpt lat="40.6888140" lon="-2.5154750">
        <ele>912.8</ele>
        <time>2019-07-06T15:48:10Z</time>
      </trkpt>
      <trkpt lat="40.6887920" lon="-2.5155310">
        <ele>913.0</ele>
        <time>2019-07-06T15:48:11Z</time>
      </trkpt>
      <trkpt lat="40.6887260" lon="-2.5156230">
        <ele>913.2</ele>
        <time>2019-07-06T15:48:13Z</time>
      </trkpt>
      <trkpt lat="40.6886390" lon="-2.5156800">
        <ele>913.8</ele>
        <time>2019-07-06T15:48:15Z</time>
      </trkpt>
      <trkpt lat="40.6885440" lon="-2.5157050">
        <ele>914.2</ele>
        <time>2019-07-06T15:48:17Z</time>
      </trkpt>
      <trkpt lat="40.6884430" lon="-2.5157000">
        <ele>914.6</ele>
        <time>2019-07-06T15:48:19Z</time>
      </trkpt>
      <trkpt lat="40.6882190" lon="-2.5156770">
        <ele>914.6</ele>
        <time>2019-07-06T15:48:23Z</time>
      </trkpt>
      <trkpt lat="40.6881570" lon="-2.5156770">
        <ele>914.4</ele>
        <time>2019-07-06T15:48:24Z</time>
      </trkpt>
      <trkpt lat="40.6879620" lon="-2.5157240">
        <ele>913.4</ele>
        <time>2019-07-06T15:48:27Z</time>
      </trkpt>
      <trkpt lat="40.6878250" lon="-2.5157730">
        <ele>912.8</ele>
        <time>2019-07-06T15:48:29Z</time>
      </trkpt>
      <trkpt lat="40.6875980" lon="-2.5158620">
        <ele>912.0</ele>
        <time>2019-07-06T15:48:32Z</time>
      </trkpt>
      <trkpt lat="40.6875230" lon="-2.5159100">
        <ele>911.6</ele>
        <time>2019-07-06T15:48:33Z</time>
      </trkpt>
      <trkpt lat="40.6874110" lon="-2.5160570">
        <ele>910.6</ele>
        <time>2019-07-06T15:48:35Z</time>
      </trkpt>
      <trkpt lat="40.6874010" lon="-2.5162520">
        <ele>909.2</ele>
        <time>2019-07-06T15:48:37Z</time>
      </trkpt>
      <trkpt lat="40.6874590" lon="-2.5164360">
        <ele>908.6</ele>
        <time>2019-07-06T15:48:39Z</time>
      </trkpt>
      <trkpt lat="40.6874780" lon="-2.5165390">
        <ele>908.2</ele>
        <time>2019-07-06T15:48:40Z</time>
      </trkpt>
      <trkpt lat="40.6874660" lon="-2.5167660">
        <ele>907.4</ele>
        <time>2019-07-06T15:48:42Z</time>
      </trkpt>
      <trkpt lat="40.6874320" lon="-2.5168790">
        <ele>906.8</ele>
        <time>2019-07-06T15:48:43Z</time>
      </trkpt>
      <trkpt lat="40.6873820" lon="-2.5169890">
        <ele>905.8</ele>
        <time>2019-07-06T15:48:44Z</time>
      </trkpt>
      <trkpt lat="40.6873260" lon="-2.5170970">
        <ele>905.0</ele>
        <time>2019-07-06T15:48:45Z</time>
      </trkpt>
      <trkpt lat="40.6872670" lon="-2.5172050">
        <ele>904.2</ele>
        <time>2019-07-06T15:48:46Z</time>
      </trkpt>
      <trkpt lat="40.6872080" lon="-2.5173140">
        <ele>903.4</ele>
        <time>2019-07-06T15:48:47Z</time>
      </trkpt>
      <trkpt lat="40.6871470" lon="-2.5174200">
        <ele>903.0</ele>
        <time>2019-07-06T15:48:48Z</time>
      </trkpt>
      <trkpt lat="40.6869870" lon="-2.5177470">
        <ele>901.6</ele>
        <time>2019-07-06T15:48:51Z</time>
      </trkpt>
      <trkpt lat="40.6869530" lon="-2.5178680">
        <ele>901.2</ele>
        <time>2019-07-06T15:48:52Z</time>
      </trkpt>
      <trkpt lat="40.6869670" lon="-2.5182420">
        <ele>900.4</ele>
        <time>2019-07-06T15:48:55Z</time>
      </trkpt>
      <trkpt lat="40.6869950" lon="-2.5183590">
        <ele>900.2</ele>
        <time>2019-07-06T15:48:56Z</time>
      </trkpt>
      <trkpt lat="40.6870810" lon="-2.5186940">
        <ele>899.2</ele>
        <time>2019-07-06T15:48:59Z</time>
      </trkpt>
      <trkpt lat="40.6871640" lon="-2.5190090">
        <ele>898.8</ele>
        <time>2019-07-06T15:49:01Z</time>
      </trkpt>
      <trkpt lat="40.6872080" lon="-2.5192140">
        <ele>898.8</ele>
        <time>2019-07-06T15:49:04Z</time>
      </trkpt>
      <trkpt lat="40.6872080" lon="-2.5194220">
        <ele>899.0</ele>
        <time>2019-07-06T15:49:06Z</time>
      </trkpt>
      <trkpt lat="40.6871050" lon="-2.5196920">
        <ele>899.2</ele>
        <time>2019-07-06T15:49:09Z</time>
      </trkpt>
      <trkpt lat="40.6870590" lon="-2.5197710">
        <ele>899.4</ele>
        <time>2019-07-06T15:49:10Z</time>
      </trkpt>
      <trkpt lat="40.6868870" lon="-2.5200870">
        <ele>899.0</ele>
        <time>2019-07-06T15:49:14Z</time>
      </trkpt>
      <trkpt lat="40.6868580" lon="-2.5201730">
        <ele>898.8</ele>
        <time>2019-07-06T15:49:15Z</time>
      </trkpt>
      <trkpt lat="40.6868270" lon="-2.5204440">
        <ele>898.6</ele>
        <time>2019-07-06T15:49:18Z</time>
      </trkpt>
      <trkpt lat="40.6868480" lon="-2.5206220">
        <ele>898.6</ele>
        <time>2019-07-06T15:49:20Z</time>
      </trkpt>
      <trkpt lat="40.6868760" lon="-2.5208770">
        <ele>898.8</ele>
        <time>2019-07-06T15:49:23Z</time>
      </trkpt>
      <trkpt lat="40.6868780" lon="-2.5209550">
        <ele>899.0</ele>
        <time>2019-07-06T15:49:24Z</time>
      </trkpt>
      <trkpt lat="40.6868750" lon="-2.5210300">
        <ele>899.4</ele>
        <time>2019-07-06T15:49:25Z</time>
      </trkpt>
      <trkpt lat="40.6868340" lon="-2.5212210">
        <ele>900.4</ele>
        <time>2019-07-06T15:49:28Z</time>
      </trkpt>
      <trkpt lat="40.6868120" lon="-2.5212760">
        <ele>900.8</ele>
        <time>2019-07-06T15:49:29Z</time>
      </trkpt>
      <trkpt lat="40.6867500" lon="-2.5214200">
        <ele>901.6</ele>
        <time>2019-07-06T15:49:32Z</time>
      </trkpt>
      <trkpt lat="40.6867110" lon="-2.5215010">
        <ele>902.2</ele>
        <time>2019-07-06T15:49:34Z</time>
      </trkpt>
      <trkpt lat="40.6866780" lon="-2.5215740">
        <ele>902.6</ele>
        <time>2019-07-06T15:49:36Z</time>
      </trkpt>
      <trkpt lat="40.6866060" lon="-2.5217350">
        <ele>903.8</ele>
        <time>2019-07-06T15:49:41Z</time>
      </trkpt>
      <trkpt lat="40.6865010" lon="-2.5220090">
        <ele>904.4</ele>
        <time>2019-07-06T15:49:48Z</time>
      </trkpt>
      <trkpt lat="40.6863620" lon="-2.5224140">
        <ele>903.8</ele>
        <time>2019-07-06T15:49:55Z</time>
      </trkpt>
      <trkpt lat="40.6862950" lon="-2.5228940">
        <ele>903.2</ele>
        <time>2019-07-06T15:50:02Z</time>
      </trkpt>
      <trkpt lat="40.6862760" lon="-2.5233950">
        <ele>903.2</ele>
        <time>2019-07-06T15:50:09Z</time>
      </trkpt>
      <trkpt lat="40.6862700" lon="-2.5235390">
        <ele>903.6</ele>
        <time>2019-07-06T15:50:11Z</time>
      </trkpt>
      <trkpt lat="40.6862540" lon="-2.5239630">
        <ele>903.6</ele>
        <time>2019-07-06T15:50:17Z</time>
      </trkpt>
      <trkpt lat="40.6862470" lon="-2.5240330">
        <ele>903.6</ele>
        <time>2019-07-06T15:50:18Z</time>
      </trkpt>
      <trkpt lat="40.6861760" lon="-2.5245550">
        <ele>903.6</ele>
        <time>2019-07-06T15:50:25Z</time>
      </trkpt>
      <trkpt lat="40.6861300" lon="-2.5248930">
        <ele>902.8</ele>
        <time>2019-07-06T15:50:29Z</time>
      </trkpt>
      <trkpt lat="40.6860780" lon="-2.5252530">
        <ele>901.8</ele>
        <time>2019-07-06T15:50:33Z</time>
      </trkpt>
      <trkpt lat="40.6860710" lon="-2.5253450">
        <ele>901.8</ele>
        <time>2019-07-06T15:50:34Z</time>
      </trkpt>
      <trkpt lat="40.6860660" lon="-2.5254360">
        <ele>901.6</ele>
        <time>2019-07-06T15:50:35Z</time>
      </trkpt>
      <trkpt lat="40.6860210" lon="-2.5258890">
        <ele>901.4</ele>
        <time>2019-07-06T15:50:40Z</time>
      </trkpt>
      <trkpt lat="40.6860090" lon="-2.5259810">
        <ele>901.2</ele>
        <time>2019-07-06T15:50:41Z</time>
      </trkpt>
      <trkpt lat="40.6859550" lon="-2.5265890">
        <ele>901.4</ele>
        <time>2019-07-06T15:50:48Z</time>
      </trkpt>
      <trkpt lat="40.6858870" lon="-2.5272100">
        <ele>902.0</ele>
        <time>2019-07-06T15:50:55Z</time>
      </trkpt>
      <trkpt lat="40.6858870" lon="-2.5272100">
        <ele>901.8</ele>
        <time>2019-07-06T15:50:56Z</time>
      </trkpt>
      <trkpt lat="40.6858520" lon="-2.5274880">
        <ele>900.8</ele>
        <time>2019-07-06T15:50:59Z</time>
      </trkpt>
      <trkpt lat="40.6857860" lon="-2.5278870">
        <ele>899.4</ele>
        <time>2019-07-06T15:51:03Z</time>
      </trkpt>
      <trkpt lat="40.6857290" lon="-2.5281900">
        <ele>898.2</ele>
        <time>2019-07-06T15:51:06Z</time>
      </trkpt>
      <trkpt lat="40.6856440" lon="-2.5285780">
        <ele>897.0</ele>
        <time>2019-07-06T15:51:10Z</time>
      </trkpt>
      <trkpt lat="40.6856170" lon="-2.5286710">
        <ele>896.8</ele>
        <time>2019-07-06T15:51:11Z</time>
      </trkpt>
      <trkpt lat="40.6855840" lon="-2.5287610">
        <ele>896.6</ele>
        <time>2019-07-06T15:51:12Z</time>
      </trkpt>
      <trkpt lat="40.6854580" lon="-2.5290170">
        <ele>896.2</ele>
        <time>2019-07-06T15:51:15Z</time>
      </trkpt>
      <trkpt lat="40.6853710" lon="-2.5291950">
        <ele>895.8</ele>
        <time>2019-07-06T15:51:17Z</time>
      </trkpt>
      <trkpt lat="40.6853330" lon="-2.5292930">
        <ele>895.4</ele>
        <time>2019-07-06T15:51:18Z</time>
      </trkpt>
      <trkpt lat="40.6853050" lon="-2.5293990">
        <ele>894.8</ele>
        <time>2019-07-06T15:51:19Z</time>
      </trkpt>
      <trkpt lat="40.6852880" lon="-2.5295100">
        <ele>894.6</ele>
        <time>2019-07-06T15:51:20Z</time>
      </trkpt>
      <trkpt lat="40.6852920" lon="-2.5298360">
        <ele>893.8</ele>
        <time>2019-07-06T15:51:23Z</time>
      </trkpt>
      <trkpt lat="40.6852970" lon="-2.5299360">
        <ele>893.8</ele>
        <time>2019-07-06T15:51:24Z</time>
      </trkpt>
      <trkpt lat="40.6853220" lon="-2.5303710">
        <ele>894.8</ele>
        <time>2019-07-06T15:51:29Z</time>
      </trkpt>
      <trkpt lat="40.6853280" lon="-2.5304510">
        <ele>894.8</ele>
        <time>2019-07-06T15:51:30Z</time>
      </trkpt>
      <trkpt lat="40.6853450" lon="-2.5309190">
        <ele>895.8</ele>
        <time>2019-07-06T15:51:36Z</time>
      </trkpt>
      <trkpt lat="40.6853540" lon="-2.5310690">
        <ele>896.2</ele>
        <time>2019-07-06T15:51:38Z</time>
      </trkpt>
      <trkpt lat="40.6853920" lon="-2.5317080">
        <ele>897.0</ele>
        <time>2019-07-06T15:51:47Z</time>
      </trkpt>
      <trkpt lat="40.6854410" lon="-2.5320940">
        <ele>898.0</ele>
        <time>2019-07-06T15:51:53Z</time>
      </trkpt>
      <trkpt lat="40.6854690" lon="-2.5322870">
        <ele>898.4</ele>
        <time>2019-07-06T15:51:56Z</time>
      </trkpt>
      <trkpt lat="40.6855020" lon="-2.5324790">
        <ele>899.2</ele>
        <time>2019-07-06T15:51:59Z</time>
      </trkpt>
      <trkpt lat="40.6855750" lon="-2.5328480">
        <ele>900.4</ele>
        <time>2019-07-06T15:52:05Z</time>
      </trkpt>
      <trkpt lat="40.6855910" lon="-2.5329050">
        <ele>900.4</ele>
        <time>2019-07-06T15:52:06Z</time>
      </trkpt>
      <trkpt lat="40.6856350" lon="-2.5330780">
        <ele>901.6</ele>
        <time>2019-07-06T15:52:09Z</time>
      </trkpt>
      <trkpt lat="40.6856750" lon="-2.5333650">
        <ele>902.6</ele>
        <time>2019-07-06T15:52:14Z</time>
      </trkpt>
      <trkpt lat="40.6856760" lon="-2.5334230">
        <ele>902.8</ele>
        <time>2019-07-06T15:52:15Z</time>
      </trkpt>
      <trkpt lat="40.6856230" lon="-2.5336890">
        <ele>904.0</ele>
        <time>2019-07-06T15:52:19Z</time>
      </trkpt>
      <trkpt lat="40.6855710" lon="-2.5338370">
        <ele>905.2</ele>
        <time>2019-07-06T15:52:23Z</time>
      </trkpt>
      <trkpt lat="40.6855060" lon="-2.5339830">
        <ele>905.4</ele>
        <time>2019-07-06T15:52:25Z</time>
      </trkpt>
      <trkpt lat="40.6854780" lon="-2.5340280">
        <ele>905.6</ele>
        <time>2019-07-06T15:52:27Z</time>
      </trkpt>
      <trkpt lat="40.6854450" lon="-2.5340680">
        <ele>905.8</ele>
        <time>2019-07-06T15:52:28Z</time>
      </trkpt>
      <trkpt lat="40.6853100" lon="-2.5341600">
        <ele>905.8</ele>
        <time>2019-07-06T15:52:31Z</time>
      </trkpt>
      <trkpt lat="40.6851920" lon="-2.5341930">
        <ele>905.0</ele>
        <time>2019-07-06T15:52:33Z</time>
      </trkpt>
      <trkpt lat="40.6851280" lon="-2.5342140">
        <ele>904.6</ele>
        <time>2019-07-06T15:52:34Z</time>
      </trkpt>
      <trkpt lat="40.6850690" lon="-2.5342540">
        <ele>904.0</ele>
        <time>2019-07-06T15:52:35Z</time>
      </trkpt>
      <trkpt lat="40.6849960" lon="-2.5344240">
        <ele>902.6</ele>
        <time>2019-07-06T15:52:37Z</time>
      </trkpt>
      <trkpt lat="40.6850280" lon="-2.5346430">
        <ele>901.0</ele>
        <time>2019-07-06T15:52:39Z</time>
      </trkpt>
      <trkpt lat="40.6851240" lon="-2.5348570">
        <ele>899.4</ele>
        <time>2019-07-06T15:52:41Z</time>
      </trkpt>
      <trkpt lat="40.6852250" lon="-2.5350850">
        <ele>898.6</ele>
        <time>2019-07-06T15:52:43Z</time>
      </trkpt>
      <trkpt lat="40.6852680" lon="-2.5352100">
        <ele>898.0</ele>
        <time>2019-07-06T15:52:44Z</time>
      </trkpt>
      <trkpt lat="40.6853430" lon="-2.5354780">
        <ele>896.4</ele>
        <time>2019-07-06T15:52:46Z</time>
      </trkpt>
      <trkpt lat="40.6853830" lon="-2.5356160">
        <ele>895.8</ele>
        <time>2019-07-06T15:52:47Z</time>
      </trkpt>
      <trkpt lat="40.6854310" lon="-2.5357510">
        <ele>894.6</ele>
        <time>2019-07-06T15:52:48Z</time>
      </trkpt>
      <trkpt lat="40.6854870" lon="-2.5358820">
        <ele>893.4</ele>
        <time>2019-07-06T15:52:49Z</time>
      </trkpt>
      <trkpt lat="40.6855670" lon="-2.5360800">
        <ele>892.4</ele>
        <time>2019-07-06T15:52:50Z</time>
      </trkpt>
      <trkpt lat="40.6855910" lon="-2.5361460">
        <ele>891.6</ele>
        <time>2019-07-06T15:52:51Z</time>
      </trkpt>
      <trkpt lat="40.6856390" lon="-2.5362780">
        <ele>891.0</ele>
        <time>2019-07-06T15:52:52Z</time>
      </trkpt>
      <trkpt lat="40.6856800" lon="-2.5365150">
        <ele>889.4</ele>
        <time>2019-07-06T15:52:54Z</time>
      </trkpt>
      <trkpt lat="40.6856480" lon="-2.5367180">
        <ele>888.0</ele>
        <time>2019-07-06T15:52:56Z</time>
      </trkpt>
      <trkpt lat="40.6855940" lon="-2.5368000">
        <ele>887.6</ele>
        <time>2019-07-06T15:52:57Z</time>
      </trkpt>
      <trkpt lat="40.6855180" lon="-2.5368570">
        <ele>886.8</ele>
        <time>2019-07-06T15:52:58Z</time>
      </trkpt>
      <trkpt lat="40.6853300" lon="-2.5369070">
        <ele>885.2</ele>
        <time>2019-07-06T15:53:00Z</time>
      </trkpt>
      <trkpt lat="40.6852280" lon="-2.5369210">
        <ele>884.4</ele>
        <time>2019-07-06T15:53:01Z</time>
      </trkpt>
      <trkpt lat="40.6851240" lon="-2.5369410">
        <ele>883.8</ele>
        <time>2019-07-06T15:53:02Z</time>
      </trkpt>
      <trkpt lat="40.6849160" lon="-2.5370080">
        <ele>882.4</ele>
        <time>2019-07-06T15:53:04Z</time>
      </trkpt>
      <trkpt lat="40.6848110" lon="-2.5370500">
        <ele>881.8</ele>
        <time>2019-07-06T15:53:05Z</time>
      </trkpt>
      <trkpt lat="40.6847020" lon="-2.5370910">
        <ele>881.0</ele>
        <time>2019-07-06T15:53:06Z</time>
      </trkpt>
      <trkpt lat="40.6844770" lon="-2.5371700">
        <ele>879.4</ele>
        <time>2019-07-06T15:53:08Z</time>
      </trkpt>
      <trkpt lat="40.6842460" lon="-2.5372620">
        <ele>878.0</ele>
        <time>2019-07-06T15:53:10Z</time>
      </trkpt>
      <trkpt lat="40.6841300" lon="-2.5373100">
        <ele>877.0</ele>
        <time>2019-07-06T15:53:11Z</time>
      </trkpt>
      <trkpt lat="40.6840160" lon="-2.5373620">
        <ele>875.8</ele>
        <time>2019-07-06T15:53:12Z</time>
      </trkpt>
      <trkpt lat="40.6838110" lon="-2.5374760">
        <ele>874.2</ele>
        <time>2019-07-06T15:53:14Z</time>
      </trkpt>
      <trkpt lat="40.6837330" lon="-2.5375350">
        <ele>873.6</ele>
        <time>2019-07-06T15:53:15Z</time>
      </trkpt>
      <trkpt lat="40.6836750" lon="-2.5376040">
        <ele>873.0</ele>
        <time>2019-07-06T15:53:16Z</time>
      </trkpt>
      <trkpt lat="40.6836380" lon="-2.5376920">
        <ele>872.2</ele>
        <time>2019-07-06T15:53:17Z</time>
      </trkpt>
      <trkpt lat="40.6836260" lon="-2.5377990">
        <ele>871.4</ele>
        <time>2019-07-06T15:53:18Z</time>
      </trkpt>
      <trkpt lat="40.6836330" lon="-2.5379170">
        <ele>870.2</ele>
        <time>2019-07-06T15:53:19Z</time>
      </trkpt>
      <trkpt lat="40.6836510" lon="-2.5380420">
        <ele>869.0</ele>
        <time>2019-07-06T15:53:20Z</time>
      </trkpt>
      <trkpt lat="40.6836940" lon="-2.5383130">
        <ele>867.2</ele>
        <time>2019-07-06T15:53:22Z</time>
      </trkpt>
      <trkpt lat="40.6837140" lon="-2.5384570">
        <ele>866.4</ele>
        <time>2019-07-06T15:53:23Z</time>
      </trkpt>
      <trkpt lat="40.6837350" lon="-2.5386040">
        <ele>865.4</ele>
        <time>2019-07-06T15:53:24Z</time>
      </trkpt>
      <trkpt lat="40.6837840" lon="-2.5388970">
        <ele>863.6</ele>
        <time>2019-07-06T15:53:26Z</time>
      </trkpt>
      <trkpt lat="40.6838310" lon="-2.5391860">
        <ele>862.4</ele>
        <time>2019-07-06T15:53:28Z</time>
      </trkpt>
      <trkpt lat="40.6838480" lon="-2.5393280">
        <ele>862.0</ele>
        <time>2019-07-06T15:53:29Z</time>
      </trkpt>
      <trkpt lat="40.6838570" lon="-2.5394700">
        <ele>861.2</ele>
        <time>2019-07-06T15:53:30Z</time>
      </trkpt>
      <trkpt lat="40.6838450" lon="-2.5397460">
        <ele>860.4</ele>
        <time>2019-07-06T15:53:32Z</time>
      </trkpt>
      <trkpt lat="40.6838270" lon="-2.5398770">
        <ele>859.8</ele>
        <time>2019-07-06T15:53:33Z</time>
      </trkpt>
      <trkpt lat="40.6838050" lon="-2.5400050">
        <ele>859.4</ele>
        <time>2019-07-06T15:53:34Z</time>
      </trkpt>
      <trkpt lat="40.6837600" lon="-2.5402510">
        <ele>859.0</ele>
        <time>2019-07-06T15:53:36Z</time>
      </trkpt>
      <trkpt lat="40.6837180" lon="-2.5404830">
        <ele>859.0</ele>
        <time>2019-07-06T15:53:37Z</time>
      </trkpt>
      <trkpt lat="40.6836800" lon="-2.5406990">
        <ele>859.0</ele>
        <time>2019-07-06T15:53:40Z</time>
      </trkpt>
      <trkpt lat="40.6836140" lon="-2.5410850">
        <ele>859.0</ele>
        <time>2019-07-06T15:53:44Z</time>
      </trkpt>
      <trkpt lat="40.6835780" lon="-2.5413240">
        <ele>858.8</ele>
        <time>2019-07-06T15:53:47Z</time>
      </trkpt>
      <trkpt lat="40.6835820" lon="-2.5413890">
        <ele>858.6</ele>
        <time>2019-07-06T15:53:48Z</time>
      </trkpt>
      <trkpt lat="40.6836760" lon="-2.5415470">
        <ele>858.6</ele>
        <time>2019-07-06T15:53:51Z</time>
      </trkpt>
      <trkpt lat="40.6838600" lon="-2.5416150">
        <ele>858.2</ele>
        <time>2019-07-06T15:53:54Z</time>
      </trkpt>
      <trkpt lat="40.6839290" lon="-2.5416350">
        <ele>858.0</ele>
        <time>2019-07-06T15:53:55Z</time>
      </trkpt>
      <trkpt lat="40.6840000" lon="-2.5416620">
        <ele>857.6</ele>
        <time>2019-07-06T15:53:56Z</time>
      </trkpt>
      <trkpt lat="40.6842230" lon="-2.5417650">
        <ele>856.6</ele>
        <time>2019-07-06T15:53:59Z</time>
      </trkpt>
      <trkpt lat="40.6843020" lon="-2.5417970">
        <ele>856.0</ele>
        <time>2019-07-06T15:54:00Z</time>
      </trkpt>
      <trkpt lat="40.6844710" lon="-2.5418580">
        <ele>855.2</ele>
        <time>2019-07-06T15:54:02Z</time>
      </trkpt>
      <trkpt lat="40.6848330" lon="-2.5420060">
        <ele>854.2</ele>
        <time>2019-07-06T15:54:06Z</time>
      </trkpt>
      <trkpt lat="40.6851200" lon="-2.5421350">
        <ele>853.0</ele>
        <time>2019-07-06T15:54:09Z</time>
      </trkpt>
      <trkpt lat="40.6854300" lon="-2.5422500">
        <ele>852.0</ele>
        <time>2019-07-06T15:54:12Z</time>
      </trkpt>
      <trkpt lat="40.6855400" lon="-2.5422810">
        <ele>851.4</ele>
        <time>2019-07-06T15:54:13Z</time>
      </trkpt>
      <trkpt lat="40.6858700" lon="-2.5423740">
        <ele>849.8</ele>
        <time>2019-07-06T15:54:16Z</time>
      </trkpt>
      <trkpt lat="40.6860880" lon="-2.5424170">
        <ele>849.4</ele>
        <time>2019-07-06T15:54:18Z</time>
      </trkpt>
      <trkpt lat="40.6864940" lon="-2.5424900">
        <ele>849.0</ele>
        <time>2019-07-06T15:54:22Z</time>
      </trkpt>
      <trkpt lat="40.6865890" lon="-2.5425160">
        <ele>849.0</ele>
        <time>2019-07-06T15:54:23Z</time>
      </trkpt>
      <trkpt lat="40.6867650" lon="-2.5425910">
        <ele>848.8</ele>
        <time>2019-07-06T15:54:25Z</time>
      </trkpt>
      <trkpt lat="40.6869180" lon="-2.5427040">
        <ele>848.8</ele>
        <time>2019-07-06T15:54:27Z</time>
      </trkpt>
      <trkpt lat="40.6870980" lon="-2.5429280">
        <ele>849.4</ele>
        <time>2019-07-06T15:54:30Z</time>
      </trkpt>
      <trkpt lat="40.6871930" lon="-2.5430840">
        <ele>849.6</ele>
        <time>2019-07-06T15:54:31Z</time>
      </trkpt>
      <trkpt lat="40.6872370" lon="-2.5431600">
        <ele>850.2</ele>
        <time>2019-07-06T15:54:33Z</time>
      </trkpt>
      <trkpt lat="40.6874160" lon="-2.5434920">
        <ele>851.2</ele>
        <time>2019-07-06T15:54:37Z</time>
      </trkpt>
      <trkpt lat="40.6874160" lon="-2.5434920">
        <ele>851.4</ele>
        <time>2019-07-06T15:54:38Z</time>
      </trkpt>
      <trkpt lat="40.6875320" lon="-2.5437110">
        <ele>852.4</ele>
        <time>2019-07-06T15:54:42Z</time>
      </trkpt>
      <trkpt lat="40.6875790" lon="-2.5438130">
        <ele>852.8</ele>
        <time>2019-07-06T15:54:43Z</time>
      </trkpt>
      <trkpt lat="40.6875790" lon="-2.5438130">
        <ele>853.0</ele>
        <time>2019-07-06T15:54:44Z</time>
      </trkpt>
      <trkpt lat="40.6876370" lon="-2.5439710">
        <ele>853.6</ele>
        <time>2019-07-06T15:54:47Z</time>
      </trkpt>
      <trkpt lat="40.6876820" lon="-2.5441330">
        <ele>853.8</ele>
        <time>2019-07-06T15:54:49Z</time>
      </trkpt>
      <trkpt lat="40.6877010" lon="-2.5442450">
        <ele>854.4</ele>
        <time>2019-07-06T15:54:52Z</time>
      </trkpt>
      <trkpt lat="40.6877090" lon="-2.5443030">
        <ele>854.6</ele>
        <time>2019-07-06T15:54:53Z</time>
      </trkpt>
      <trkpt lat="40.6877200" lon="-2.5444800">
        <ele>854.8</ele>
        <time>2019-07-06T15:54:55Z</time>
      </trkpt>
      <trkpt lat="40.6877090" lon="-2.5446560">
        <ele>855.2</ele>
        <time>2019-07-06T15:54:59Z</time>
      </trkpt>
      <trkpt lat="40.6877010" lon="-2.5447130">
        <ele>855.4</ele>
        <time>2019-07-06T15:55:00Z</time>
      </trkpt>
      <trkpt lat="40.6876800" lon="-2.5448240">
        <ele>855.8</ele>
        <time>2019-07-06T15:55:02Z</time>
      </trkpt>
      <trkpt lat="40.6876180" lon="-2.5450380">
        <ele>856.2</ele>
        <time>2019-07-06T15:55:06Z</time>
      </trkpt>
      <trkpt lat="40.6875620" lon="-2.5452040">
        <ele>856.2</ele>
        <time>2019-07-06T15:55:09Z</time>
      </trkpt>
      <trkpt lat="40.6874470" lon="-2.5454910">
        <ele>855.8</ele>
        <time>2019-07-06T15:55:13Z</time>
      </trkpt>
      <trkpt lat="40.6872090" lon="-2.5461080">
        <ele>856.0</ele>
        <time>2019-07-06T15:55:24Z</time>
      </trkpt>
      <trkpt lat="40.6870260" lon="-2.5465690">
        <ele>856.8</ele>
        <time>2019-07-06T15:55:31Z</time>
      </trkpt>
      <trkpt lat="40.6870050" lon="-2.5466250">
        <ele>857.0</ele>
        <time>2019-07-06T15:55:33Z</time>
      </trkpt>
      <trkpt lat="40.6868390" lon="-2.5470580">
        <ele>858.2</ele>
        <time>2019-07-06T15:55:41Z</time>
      </trkpt>
      <trkpt lat="40.6867570" lon="-2.5472690">
        <ele>859.2</ele>
        <time>2019-07-06T15:55:45Z</time>
      </trkpt>
      <trkpt lat="40.6866620" lon="-2.5475060">
        <ele>860.2</ele>
        <time>2019-07-06T15:55:49Z</time>
      </trkpt>
      <trkpt lat="40.6866620" lon="-2.5475060">
        <ele>860.6</ele>
        <time>2019-07-06T15:55:50Z</time>
      </trkpt>
      <trkpt lat="40.6866130" lon="-2.5476410">
        <ele>861.4</ele>
        <time>2019-07-06T15:55:53Z</time>
      </trkpt>
      <trkpt lat="40.6865100" lon="-2.5479120">
        <ele>862.4</ele>
        <time>2019-07-06T15:55:59Z</time>
      </trkpt>
      <trkpt lat="40.6864940" lon="-2.5479580">
        <ele>862.6</ele>
        <time>2019-07-06T15:56:00Z</time>
      </trkpt>
      <trkpt lat="40.6864120" lon="-2.5482400">
        <ele>863.8</ele>
        <time>2019-07-06T15:56:06Z</time>
      </trkpt>
      <trkpt lat="40.6863830" lon="-2.5483850">
        <ele>864.6</ele>
        <time>2019-07-06T15:56:09Z</time>
      </trkpt>
      <trkpt lat="40.6863760" lon="-2.5484330">
        <ele>865.0</ele>
        <time>2019-07-06T15:56:10Z</time>
      </trkpt>
      <trkpt lat="40.6863610" lon="-2.5486160">
        <ele>866.2</ele>
        <time>2019-07-06T15:56:13Z</time>
      </trkpt>
      <trkpt lat="40.6863610" lon="-2.5487050">
        <ele>866.6</ele>
        <time>2019-07-06T15:56:16Z</time>
      </trkpt>
      <trkpt lat="40.6863650" lon="-2.5488750">
        <ele>867.2</ele>
        <time>2019-07-06T15:56:19Z</time>
      </trkpt>
      <trkpt lat="40.6863710" lon="-2.5489930">
        <ele>868.2</ele>
        <time>2019-07-06T15:56:23Z</time>
      </trkpt>
      <trkpt lat="40.6863790" lon="-2.5491500">
        <ele>869.2</ele>
        <time>2019-07-06T15:56:27Z</time>
      </trkpt>
      <trkpt lat="40.6863800" lon="-2.5491900">
        <ele>869.6</ele>
        <time>2019-07-06T15:56:28Z</time>
      </trkpt>
      <trkpt lat="40.6864160" lon="-2.5495720">
        <ele>870.2</ele>
        <time>2019-07-06T15:56:37Z</time>
      </trkpt>
      <trkpt lat="40.6864300" lon="-2.5496500">
        <ele>870.6</ele>
        <time>2019-07-06T15:56:40Z</time>
      </trkpt>
      <trkpt lat="40.6864720" lon="-2.5497970">
        <ele>871.0</ele>
        <time>2019-07-06T15:56:44Z</time>
      </trkpt>
      <trkpt lat="40.6865570" lon="-2.5500120">
        <ele>871.8</ele>
        <time>2019-07-06T15:56:49Z</time>
      </trkpt>
      <trkpt lat="40.6866100" lon="-2.5501080">
        <ele>872.6</ele>
        <time>2019-07-06T15:56:53Z</time>
      </trkpt>
      <trkpt lat="40.6866310" lon="-2.5501380">
        <ele>872.8</ele>
        <time>2019-07-06T15:56:54Z</time>
      </trkpt>
      <trkpt lat="40.6867360" lon="-2.5502910">
        <ele>873.8</ele>
        <time>2019-07-06T15:56:59Z</time>
      </trkpt>
      <trkpt lat="40.6868080" lon="-2.5503770">
        <ele>874.8</ele>
        <time>2019-07-06T15:57:02Z</time>
      </trkpt>
      <trkpt lat="40.6870030" lon="-2.5506010">
        <ele>875.8</ele>
        <time>2019-07-06T15:57:10Z</time>
      </trkpt>
      <trkpt lat="40.6870480" lon="-2.5506600">
        <ele>876.2</ele>
        <time>2019-07-06T15:57:12Z</time>
      </trkpt>
      <trkpt lat="40.6872130" lon="-2.5508660">
        <ele>877.0</ele>
        <time>2019-07-06T15:57:19Z</time>
      </trkpt>
      <trkpt lat="40.6872610" lon="-2.5509250">
        <ele>877.2</ele>
        <time>2019-07-06T15:57:21Z</time>
      </trkpt>
      <trkpt lat="40.6873800" lon="-2.5510780">
        <ele>878.2</ele>
        <time>2019-07-06T15:57:26Z</time>
      </trkpt>
      <trkpt lat="40.6875040" lon="-2.5512830">
        <ele>878.6</ele>
        <time>2019-07-06T15:57:31Z</time>
      </trkpt>
      <trkpt lat="40.6876050" lon="-2.5515100">
        <ele>879.2</ele>
        <time>2019-07-06T15:57:38Z</time>
      </trkpt>
      <trkpt lat="40.6876480" lon="-2.5516420">
        <ele>880.0</ele>
        <time>2019-07-06T15:57:41Z</time>
      </trkpt>
      <trkpt lat="40.6876870" lon="-2.5517900">
        <ele>880.6</ele>
        <time>2019-07-06T15:57:43Z</time>
      </trkpt>
      <trkpt lat="40.6877440" lon="-2.5521030">
        <ele>881.2</ele>
        <time>2019-07-06T15:57:49Z</time>
      </trkpt>
      <trkpt lat="40.6877480" lon="-2.5521560">
        <ele>881.6</ele>
        <time>2019-07-06T15:57:51Z</time>
      </trkpt>
      <trkpt lat="40.6877500" lon="-2.5522110">
        <ele>881.8</ele>
        <time>2019-07-06T15:57:52Z</time>
      </trkpt>
      <trkpt lat="40.6877580" lon="-2.5524460">
        <ele>882.0</ele>
        <time>2019-07-06T15:57:56Z</time>
      </trkpt>
      <trkpt lat="40.6877660" lon="-2.5529850">
        <ele>881.4</ele>
        <time>2019-07-06T15:58:04Z</time>
      </trkpt>
      <trkpt lat="40.6877630" lon="-2.5533540">
        <ele>880.8</ele>
        <time>2019-07-06T15:58:09Z</time>
      </trkpt>
      <trkpt lat="40.6877940" lon="-2.5537490">
        <ele>880.2</ele>
        <time>2019-07-06T15:58:14Z</time>
      </trkpt>
      <trkpt lat="40.6878600" lon="-2.5539970">
        <ele>880.0</ele>
        <time>2019-07-06T15:58:17Z</time>
      </trkpt>
      <trkpt lat="40.6879580" lon="-2.5542310">
        <ele>879.6</ele>
        <time>2019-07-06T15:58:19Z</time>
      </trkpt>
      <trkpt lat="40.6879580" lon="-2.5542310">
        <ele>879.2</ele>
        <time>2019-07-06T15:58:20Z</time>
      </trkpt>
      <trkpt lat="40.6880980" lon="-2.5544480">
        <ele>878.6</ele>
        <time>2019-07-06T15:58:23Z</time>
      </trkpt>
      <trkpt lat="40.6882770" lon="-2.5546300">
        <ele>878.2</ele>
        <time>2019-07-06T15:58:25Z</time>
      </trkpt>
      <trkpt lat="40.6883450" lon="-2.5546800">
        <ele>877.4</ele>
        <time>2019-07-06T15:58:27Z</time>
      </trkpt>
      <trkpt lat="40.6884870" lon="-2.5547830">
        <ele>876.4</ele>
        <time>2019-07-06T15:58:29Z</time>
      </trkpt>
      <trkpt lat="40.6887100" lon="-2.5549350">
        <ele>875.6</ele>
        <time>2019-07-06T15:58:32Z</time>
      </trkpt>
      <trkpt lat="40.6888650" lon="-2.5550250">
        <ele>875.4</ele>
        <time>2019-07-06T15:58:34Z</time>
      </trkpt>
      <trkpt lat="40.6890230" lon="-2.5551160">
        <ele>874.4</ele>
        <time>2019-07-06T15:58:36Z</time>
      </trkpt>
      <trkpt lat="40.6891820" lon="-2.5552220">
        <ele>873.4</ele>
        <time>2019-07-06T15:58:38Z</time>
      </trkpt>
      <trkpt lat="40.6893430" lon="-2.5553350">
        <ele>872.4</ele>
        <time>2019-07-06T15:58:40Z</time>
      </trkpt>
      <trkpt lat="40.6894270" lon="-2.5553890">
        <ele>872.0</ele>
        <time>2019-07-06T15:58:41Z</time>
      </trkpt>
      <trkpt lat="40.6896900" lon="-2.5555400">
        <ele>871.2</ele>
        <time>2019-07-06T15:58:43Z</time>
      </trkpt>
      <trkpt lat="40.6897360" lon="-2.5555650">
        <ele>870.6</ele>
        <time>2019-07-06T15:58:44Z</time>
      </trkpt>
      <trkpt lat="40.6897810" lon="-2.5555900">
        <ele>870.4</ele>
        <time>2019-07-06T15:58:45Z</time>
      </trkpt>
      <trkpt lat="40.6900640" lon="-2.5557280">
        <ele>869.4</ele>
        <time>2019-07-06T15:58:48Z</time>
      </trkpt>
      <trkpt lat="40.6901620" lon="-2.5557560">
        <ele>869.2</ele>
        <time>2019-07-06T15:58:49Z</time>
      </trkpt>
      <trkpt lat="40.6902600" lon="-2.5557850">
        <ele>869.0</ele>
        <time>2019-07-06T15:58:50Z</time>
      </trkpt>
      <trkpt lat="40.6906500" lon="-2.5558490">
        <ele>867.8</ele>
        <time>2019-07-06T15:58:54Z</time>
      </trkpt>
      <trkpt lat="40.6908410" lon="-2.5558960">
        <ele>867.4</ele>
        <time>2019-07-06T15:58:55Z</time>
      </trkpt>
      <trkpt lat="40.6909350" lon="-2.5559290">
        <ele>867.0</ele>
        <time>2019-07-06T15:58:57Z</time>
      </trkpt>
      <trkpt lat="40.6910280" lon="-2.5559680">
        <ele>866.8</ele>
        <time>2019-07-06T15:58:58Z</time>
      </trkpt>
      <trkpt lat="40.6913980" lon="-2.5561630">
        <ele>865.4</ele>
        <time>2019-07-06T15:59:01Z</time>
      </trkpt>
      <trkpt lat="40.6914920" lon="-2.5562170">
        <ele>864.4</ele>
        <time>2019-07-06T15:59:03Z</time>
      </trkpt>
      <trkpt lat="40.6915870" lon="-2.5562690">
        <ele>863.8</ele>
        <time>2019-07-06T15:59:04Z</time>
      </trkpt>
      <trkpt lat="40.6919720" lon="-2.5564830">
        <ele>862.6</ele>
        <time>2019-07-06T15:59:08Z</time>
      </trkpt>
      <trkpt lat="40.6921620" lon="-2.5566060">
        <ele>862.0</ele>
        <time>2019-07-06T15:59:10Z</time>
      </trkpt>
      <trkpt lat="40.6922570" lon="-2.5566640">
        <ele>861.4</ele>
        <time>2019-07-06T15:59:11Z</time>
      </trkpt>
      <trkpt lat="40.6924430" lon="-2.5567910">
        <ele>860.6</ele>
        <time>2019-07-06T15:59:13Z</time>
      </trkpt>
      <trkpt lat="40.6925310" lon="-2.5568670">
        <ele>860.2</ele>
        <time>2019-07-06T15:59:14Z</time>
      </trkpt>
      <trkpt lat="40.6926120" lon="-2.5569520">
        <ele>860.0</ele>
        <time>2019-07-06T15:59:15Z</time>
      </trkpt>
      <trkpt lat="40.6928340" lon="-2.5572390">
        <ele>859.0</ele>
        <time>2019-07-06T15:59:18Z</time>
      </trkpt>
      <trkpt lat="40.6929700" lon="-2.5574440">
        <ele>858.0</ele>
        <time>2019-07-06T15:59:20Z</time>
      </trkpt>
      <trkpt lat="40.6930350" lon="-2.5575490">
        <ele>857.2</ele>
        <time>2019-07-06T15:59:21Z</time>
      </trkpt>
      <trkpt lat="40.6931590" lon="-2.5577590">
        <ele>856.0</ele>
        <time>2019-07-06T15:59:23Z</time>
      </trkpt>
      <trkpt lat="40.6932750" lon="-2.5579770">
        <ele>854.4</ele>
        <time>2019-07-06T15:59:25Z</time>
      </trkpt>
      <trkpt lat="40.6933710" lon="-2.5582150">
        <ele>853.2</ele>
        <time>2019-07-06T15:59:27Z</time>
      </trkpt>
      <trkpt lat="40.6934450" lon="-2.5584750">
        <ele>852.0</ele>
        <time>2019-07-06T15:59:29Z</time>
      </trkpt>
      <trkpt lat="40.6934680" lon="-2.5586090">
        <ele>851.6</ele>
        <time>2019-07-06T15:59:30Z</time>
      </trkpt>
      <trkpt lat="40.6934770" lon="-2.5587430">
        <ele>851.2</ele>
        <time>2019-07-06T15:59:31Z</time>
      </trkpt>
      <trkpt lat="40.6934850" lon="-2.5588780">
        <ele>850.8</ele>
        <time>2019-07-06T15:59:32Z</time>
      </trkpt>
      <trkpt lat="40.6934820" lon="-2.5592730">
        <ele>849.8</ele>
        <time>2019-07-06T15:59:35Z</time>
      </trkpt>
      <trkpt lat="40.6934780" lon="-2.5596570">
        <ele>849.2</ele>
        <time>2019-07-06T15:59:38Z</time>
      </trkpt>
      <trkpt lat="40.6934740" lon="-2.5597840">
        <ele>848.8</ele>
        <time>2019-07-06T15:59:39Z</time>
      </trkpt>
      <trkpt lat="40.6934720" lon="-2.5599100">
        <ele>848.4</ele>
        <time>2019-07-06T15:59:40Z</time>
      </trkpt>
      <trkpt lat="40.6934910" lon="-2.5604170">
        <ele>847.2</ele>
        <time>2019-07-06T15:59:44Z</time>
      </trkpt>
      <trkpt lat="40.6935100" lon="-2.5605450">
        <ele>846.8</ele>
        <time>2019-07-06T15:59:45Z</time>
      </trkpt>
      <trkpt lat="40.6935340" lon="-2.5606710">
        <ele>846.6</ele>
        <time>2019-07-06T15:59:46Z</time>
      </trkpt>
      <trkpt lat="40.6935760" lon="-2.5608370">
        <ele>846.0</ele>
        <time>2019-07-06T15:59:47Z</time>
      </trkpt>
      <trkpt lat="40.6936600" lon="-2.5611680">
        <ele>845.2</ele>
        <time>2019-07-06T15:59:49Z</time>
      </trkpt>
      <trkpt lat="40.6936910" lon="-2.5612440">
        <ele>844.4</ele>
        <time>2019-07-06T15:59:50Z</time>
      </trkpt>
      <trkpt lat="40.6937220" lon="-2.5613210">
        <ele>844.0</ele>
        <time>2019-07-06T15:59:51Z</time>
      </trkpt>
      <trkpt lat="40.6938470" lon="-2.5616260">
        <ele>842.6</ele>
        <time>2019-07-06T15:59:53Z</time>
      </trkpt>
      <trkpt lat="40.6939660" lon="-2.5618360">
        <ele>841.4</ele>
        <time>2019-07-06T15:59:55Z</time>
      </trkpt>
      <trkpt lat="40.6940000" lon="-2.5618880">
        <ele>840.8</ele>
        <time>2019-07-06T15:59:56Z</time>
      </trkpt>
      <trkpt lat="40.6940340" lon="-2.5619400">
        <ele>840.0</ele>
        <time>2019-07-06T15:59:57Z</time>
      </trkpt>
      <trkpt lat="40.6941690" lon="-2.5621470">
        <ele>838.6</ele>
        <time>2019-07-06T15:59:59Z</time>
      </trkpt>
      <trkpt lat="40.6943890" lon="-2.5624600">
        <ele>836.8</ele>
        <time>2019-07-06T16:00:01Z</time>
      </trkpt>
      <trkpt lat="40.6944270" lon="-2.5625120">
        <ele>836.0</ele>
        <time>2019-07-06T16:00:02Z</time>
      </trkpt>
      <trkpt lat="40.6944640" lon="-2.5625650">
        <ele>835.2</ele>
        <time>2019-07-06T16:00:03Z</time>
      </trkpt>
      <trkpt lat="40.6946130" lon="-2.5627760">
        <ele>834.2</ele>
        <time>2019-07-06T16:00:05Z</time>
      </trkpt>
      <trkpt lat="40.6948350" lon="-2.5631010">
        <ele>833.0</ele>
        <time>2019-07-06T16:00:07Z</time>
      </trkpt>
      <trkpt lat="40.6949000" lon="-2.5632190">
        <ele>831.4</ele>
        <time>2019-07-06T16:00:09Z</time>
      </trkpt>
      <trkpt lat="40.6950840" lon="-2.5635760">
        <ele>830.2</ele>
        <time>2019-07-06T16:00:11Z</time>
      </trkpt>
      <trkpt lat="40.6951930" lon="-2.5638110">
        <ele>829.2</ele>
        <time>2019-07-06T16:00:13Z</time>
      </trkpt>
      <trkpt lat="40.6952140" lon="-2.5638700">
        <ele>828.6</ele>
        <time>2019-07-06T16:00:14Z</time>
      </trkpt>
      <trkpt lat="40.6952340" lon="-2.5639290">
        <ele>828.4</ele>
        <time>2019-07-06T16:00:15Z</time>
      </trkpt>
      <trkpt lat="40.6953560" lon="-2.5642830">
        <ele>827.6</ele>
        <time>2019-07-06T16:00:18Z</time>
      </trkpt>
      <trkpt lat="40.6954190" lon="-2.5645130">
        <ele>827.4</ele>
        <time>2019-07-06T16:00:20Z</time>
      </trkpt>
      <trkpt lat="40.6954660" lon="-2.5647350">
        <ele>827.2</ele>
        <time>2019-07-06T16:00:22Z</time>
      </trkpt>
      <trkpt lat="40.6955020" lon="-2.5649460">
        <ele>827.0</ele>
        <time>2019-07-06T16:00:24Z</time>
      </trkpt>
      <trkpt lat="40.6955330" lon="-2.5651430">
        <ele>827.0</ele>
        <time>2019-07-06T16:00:25Z</time>
      </trkpt>
      <trkpt lat="40.6955760" lon="-2.5655140">
        <ele>827.0</ele>
        <time>2019-07-06T16:00:30Z</time>
      </trkpt>
      <trkpt lat="40.6956010" lon="-2.5657760">
        <ele>826.8</ele>
        <time>2019-07-06T16:00:33Z</time>
      </trkpt>
      <trkpt lat="40.6956530" lon="-2.5664800">
        <ele>826.4</ele>
        <time>2019-07-06T16:00:41Z</time>
      </trkpt>
      <trkpt lat="40.6956550" lon="-2.5665700">
        <ele>826.2</ele>
        <time>2019-07-06T16:00:42Z</time>
      </trkpt>
      <trkpt lat="40.6956670" lon="-2.5667530">
        <ele>826.2</ele>
        <time>2019-07-06T16:00:43Z</time>
      </trkpt>
      <trkpt lat="40.6956760" lon="-2.5668470">
        <ele>825.4</ele>
        <time>2019-07-06T16:00:45Z</time>
      </trkpt>
      <trkpt lat="40.6956860" lon="-2.5670390">
        <ele>824.6</ele>
        <time>2019-07-06T16:00:47Z</time>
      </trkpt>
      <trkpt lat="40.6956860" lon="-2.5671370">
        <ele>824.4</ele>
        <time>2019-07-06T16:00:48Z</time>
      </trkpt>
      <trkpt lat="40.6956470" lon="-2.5677210">
        <ele>823.8</ele>
        <time>2019-07-06T16:00:54Z</time>
      </trkpt>
      <trkpt lat="40.6955830" lon="-2.5682100">
        <ele>823.6</ele>
        <time>2019-07-06T16:01:00Z</time>
      </trkpt>
      <trkpt lat="40.6955320" lon="-2.5685610">
        <ele>824.2</ele>
        <time>2019-07-06T16:01:05Z</time>
      </trkpt>
      <trkpt lat="40.6955100" lon="-2.5686890">
        <ele>824.6</ele>
        <time>2019-07-06T16:01:07Z</time>
      </trkpt>
      <trkpt lat="40.6954820" lon="-2.5688720">
        <ele>824.6</ele>
        <time>2019-07-06T16:01:10Z</time>
      </trkpt>
      <trkpt lat="40.6954490" lon="-2.5691200">
        <ele>824.6</ele>
        <time>2019-07-06T16:01:13Z</time>
      </trkpt>
      <trkpt lat="40.6954350" lon="-2.5691810">
        <ele>824.8</ele>
        <time>2019-07-06T16:01:15Z</time>
      </trkpt>
      <trkpt lat="40.6953850" lon="-2.5694920">
        <ele>825.8</ele>
        <time>2019-07-06T16:01:19Z</time>
      </trkpt>
      <trkpt lat="40.6953640" lon="-2.5696220">
        <ele>826.4</ele>
        <time>2019-07-06T16:01:22Z</time>
      </trkpt>
      <trkpt lat="40.6953210" lon="-2.5698750">
        <ele>826.8</ele>
        <time>2019-07-06T16:01:25Z</time>
      </trkpt>
      <trkpt lat="40.6952910" lon="-2.5700690">
        <ele>827.2</ele>
        <time>2019-07-06T16:01:29Z</time>
      </trkpt>
      <trkpt lat="40.6952160" lon="-2.5705510">
        <ele>827.2</ele>
        <time>2019-07-06T16:01:36Z</time>
      </trkpt>
      <trkpt lat="40.6951950" lon="-2.5706930">
        <ele>827.2</ele>
        <time>2019-07-06T16:01:37Z</time>
      </trkpt>
      <trkpt lat="40.6951100" lon="-2.5712020">
        <ele>827.2</ele>
        <time>2019-07-06T16:01:45Z</time>
      </trkpt>
      <trkpt lat="40.6950480" lon="-2.5715650">
        <ele>827.0</ele>
        <time>2019-07-06T16:01:49Z</time>
      </trkpt>
      <trkpt lat="40.6950100" lon="-2.5718540">
        <ele>827.4</ele>
        <time>2019-07-06T16:01:54Z</time>
      </trkpt>
      <trkpt lat="40.6949220" lon="-2.5724120">
        <ele>827.8</ele>
        <time>2019-07-06T16:02:02Z</time>
      </trkpt>
      <trkpt lat="40.6948640" lon="-2.5728100">
        <ele>828.2</ele>
        <time>2019-07-06T16:02:07Z</time>
      </trkpt>
      <trkpt lat="40.6947990" lon="-2.5732190">
        <ele>828.4</ele>
        <time>2019-07-06T16:02:13Z</time>
      </trkpt>
      <trkpt lat="40.6947000" lon="-2.5737920">
        <ele>828.8</ele>
        <time>2019-07-06T16:02:22Z</time>
      </trkpt>
      <trkpt lat="40.6946800" lon="-2.5739870">
        <ele>828.8</ele>
        <time>2019-07-06T16:02:26Z</time>
      </trkpt>
      <trkpt lat="40.6946870" lon="-2.5740130">
        <ele>828.6</ele>
        <time>2019-07-06T16:02:28Z</time>
      </trkpt>
      <trkpt lat="40.6946860" lon="-2.5740490">
        <ele>828.2</ele>
        <time>2019-07-06T16:02:32Z</time>
      </trkpt>
      <trkpt lat="40.6946470" lon="-2.5741240">
        <ele>828.6</ele>
        <time>2019-07-06T16:02:55Z</time>
      </trkpt>
      <trkpt lat="40.6946470" lon="-2.5741240">
        <ele>828.6</ele>
        <time>2019-07-06T16:02:56Z</time>
      </trkpt>
      <trkpt lat="40.6946410" lon="-2.5741560">
        <ele>828.8</ele>
        <time>2019-07-06T16:02:57Z</time>
      </trkpt>
      <trkpt lat="40.6945960" lon="-2.5743890">
        <ele>829.0</ele>
        <time>2019-07-06T16:03:02Z</time>
      </trkpt>
      <trkpt lat="40.6944840" lon="-2.5747520">
        <ele>828.4</ele>
        <time>2019-07-06T16:03:08Z</time>
      </trkpt>
      <trkpt lat="40.6943320" lon="-2.5751550">
        <ele>827.8</ele>
        <time>2019-07-06T16:03:14Z</time>
      </trkpt>
      <trkpt lat="40.6942260" lon="-2.5753630">
        <ele>827.4</ele>
        <time>2019-07-06T16:03:17Z</time>
      </trkpt>
      <trkpt lat="40.6940920" lon="-2.5755660">
        <ele>827.2</ele>
        <time>2019-07-06T16:03:20Z</time>
      </trkpt>
      <trkpt lat="40.6939430" lon="-2.5757630">
        <ele>826.4</ele>
        <time>2019-07-06T16:03:23Z</time>
      </trkpt>
      <trkpt lat="40.6937130" lon="-2.5760180">
        <ele>825.4</ele>
        <time>2019-07-06T16:03:27Z</time>
      </trkpt>
      <trkpt lat="40.6935210" lon="-2.5762180">
        <ele>824.2</ele>
        <time>2019-07-06T16:03:30Z</time>
      </trkpt>
      <trkpt lat="40.6933850" lon="-2.5763580">
        <ele>823.0</ele>
        <time>2019-07-06T16:03:32Z</time>
      </trkpt>
      <trkpt lat="40.6933140" lon="-2.5764290">
        <ele>822.6</ele>
        <time>2019-07-06T16:03:33Z</time>
      </trkpt>
      <trkpt lat="40.6932410" lon="-2.5765000">
        <ele>822.0</ele>
        <time>2019-07-06T16:03:34Z</time>
      </trkpt>
      <trkpt lat="40.6930930" lon="-2.5766480">
        <ele>820.8</ele>
        <time>2019-07-06T16:03:36Z</time>
      </trkpt>
      <trkpt lat="40.6929420" lon="-2.5768030">
        <ele>819.4</ele>
        <time>2019-07-06T16:03:38Z</time>
      </trkpt>
      <trkpt lat="40.6927880" lon="-2.5769660">
        <ele>818.4</ele>
        <time>2019-07-06T16:03:40Z</time>
      </trkpt>
      <trkpt lat="40.6926390" lon="-2.5771250">
        <ele>817.2</ele>
        <time>2019-07-06T16:03:42Z</time>
      </trkpt>
      <trkpt lat="40.6925000" lon="-2.5772680">
        <ele>815.8</ele>
        <time>2019-07-06T16:03:44Z</time>
      </trkpt>
      <trkpt lat="40.6924310" lon="-2.5773340">
        <ele>815.0</ele>
        <time>2019-07-06T16:03:45Z</time>
      </trkpt>
      <trkpt lat="40.6923610" lon="-2.5774020">
        <ele>814.4</ele>
        <time>2019-07-06T16:03:46Z</time>
      </trkpt>
      <trkpt lat="40.6922270" lon="-2.5775520">
        <ele>813.4</ele>
        <time>2019-07-06T16:03:48Z</time>
      </trkpt>
      <trkpt lat="40.6921090" lon="-2.5776940">
        <ele>812.8</ele>
        <time>2019-07-06T16:03:50Z</time>
      </trkpt>
      <trkpt lat="40.6919420" lon="-2.5778920">
        <ele>812.2</ele>
        <time>2019-07-06T16:03:53Z</time>
      </trkpt>
      <trkpt lat="40.6918390" lon="-2.5780510">
        <ele>810.6</ele>
        <time>2019-07-06T16:03:55Z</time>
      </trkpt>
      <trkpt lat="40.6918230" lon="-2.5780830">
        <ele>809.6</ele>
        <time>2019-07-06T16:03:57Z</time>
      </trkpt>
      <trkpt lat="40.6918170" lon="-2.5781090">
        <ele>809.2</ele>
        <time>2019-07-06T16:03:58Z</time>
      </trkpt>
      <trkpt lat="40.6918240" lon="-2.5781350">
        <ele>809.0</ele>
        <time>2019-07-06T16:03:59Z</time>
      </trkpt>
      <trkpt lat="40.6918450" lon="-2.5781480">
        <ele>808.6</ele>
        <time>2019-07-06T16:04:00Z</time>
      </trkpt>
      <trkpt lat="40.6918960" lon="-2.5781290">
        <ele>808.2</ele>
        <time>2019-07-06T16:04:02Z</time>
      </trkpt>
      <trkpt lat="40.6920060" lon="-2.5780900">
        <ele>808.0</ele>
        <time>2019-07-06T16:04:05Z</time>
      </trkpt>
      <trkpt lat="40.6920620" lon="-2.5780840">
        <ele>807.8</ele>
        <time>2019-07-06T16:04:06Z</time>
      </trkpt>
      <trkpt lat="40.6922020" lon="-2.5780750">
        <ele>807.4</ele>
        <time>2019-07-06T16:04:07Z</time>
      </trkpt>
      <trkpt lat="40.6922730" lon="-2.5780720">
        <ele>806.0</ele>
        <time>2019-07-06T16:04:09Z</time>
      </trkpt>
      <trkpt lat="40.6923370" lon="-2.5780730">
        <ele>805.2</ele>
        <time>2019-07-06T16:04:10Z</time>
      </trkpt>
      <trkpt lat="40.6924000" lon="-2.5780810">
        <ele>804.6</ele>
        <time>2019-07-06T16:04:11Z</time>
      </trkpt>
      <trkpt lat="40.6926070" lon="-2.5781800">
        <ele>803.4</ele>
        <time>2019-07-06T16:04:14Z</time>
      </trkpt>
      <trkpt lat="40.6927470" lon="-2.5782860">
        <ele>801.8</ele>
        <time>2019-07-06T16:04:16Z</time>
      </trkpt>
      <trkpt lat="40.6928590" lon="-2.5783640">
        <ele>799.8</ele>
        <time>2019-07-06T16:04:18Z</time>
      </trkpt>
      <trkpt lat="40.6929790" lon="-2.5784580">
        <ele>798.2</ele>
        <time>2019-07-06T16:04:20Z</time>
      </trkpt>
      <trkpt lat="40.6931200" lon="-2.5785520">
        <ele>797.2</ele>
        <time>2019-07-06T16:04:22Z</time>
      </trkpt>
      <trkpt lat="40.6932800" lon="-2.5786430">
        <ele>795.8</ele>
        <time>2019-07-06T16:04:24Z</time>
      </trkpt>
      <trkpt lat="40.6934310" lon="-2.5787210">
        <ele>794.8</ele>
        <time>2019-07-06T16:04:26Z</time>
      </trkpt>
      <trkpt lat="40.6935430" lon="-2.5788000">
        <ele>793.8</ele>
        <time>2019-07-06T16:04:28Z</time>
      </trkpt>
      <trkpt lat="40.6935750" lon="-2.5788450">
        <ele>793.2</ele>
        <time>2019-07-06T16:04:29Z</time>
      </trkpt>
      <trkpt lat="40.6935900" lon="-2.5788900">
        <ele>792.6</ele>
        <time>2019-07-06T16:04:30Z</time>
      </trkpt>
      <trkpt lat="40.6935670" lon="-2.5789690">
        <ele>791.8</ele>
        <time>2019-07-06T16:04:32Z</time>
      </trkpt>
      <trkpt lat="40.6935360" lon="-2.5790040">
        <ele>791.4</ele>
        <time>2019-07-06T16:04:33Z</time>
      </trkpt>
      <trkpt lat="40.6933980" lon="-2.5790890">
        <ele>790.4</ele>
        <time>2019-07-06T16:04:36Z</time>
      </trkpt>
      <trkpt lat="40.6932780" lon="-2.5791390">
        <ele>789.4</ele>
        <time>2019-07-06T16:04:38Z</time>
      </trkpt>
      <trkpt lat="40.6930810" lon="-2.5792420">
        <ele>788.2</ele>
        <time>2019-07-06T16:04:41Z</time>
      </trkpt>
      <trkpt lat="40.6926170" lon="-2.5794800">
        <ele>787.4</ele>
        <time>2019-07-06T16:04:47Z</time>
      </trkpt>
      <trkpt lat="40.6921580" lon="-2.5797370">
        <ele>786.2</ele>
        <time>2019-07-06T16:04:53Z</time>
      </trkpt>
      <trkpt lat="40.6920860" lon="-2.5797810">
        <ele>786.0</ele>
        <time>2019-07-06T16:04:54Z</time>
      </trkpt>
      <trkpt lat="40.6918140" lon="-2.5799340">
        <ele>785.0</ele>
        <time>2019-07-06T16:04:58Z</time>
      </trkpt>
      <trkpt lat="40.6916940" lon="-2.5800080">
        <ele>784.8</ele>
        <time>2019-07-06T16:05:00Z</time>
      </trkpt>
      <trkpt lat="40.6914670" lon="-2.5801530">
        <ele>784.0</ele>
        <time>2019-07-06T16:05:04Z</time>
      </trkpt>
      <trkpt lat="40.6912600" lon="-2.5802810">
        <ele>783.8</ele>
        <time>2019-07-06T16:05:08Z</time>
      </trkpt>
      <trkpt lat="40.6911220" lon="-2.5803770">
        <ele>783.6</ele>
        <time>2019-07-06T16:05:11Z</time>
      </trkpt>
      <trkpt lat="40.6909930" lon="-2.5804870">
        <ele>783.8</ele>
        <time>2019-07-06T16:05:13Z</time>
      </trkpt>
      <trkpt lat="40.6909930" lon="-2.5804870">
        <ele>783.8</ele>
        <time>2019-07-06T16:05:14Z</time>
      </trkpt>
      <trkpt lat="40.6909190" lon="-2.5805750">
        <ele>784.0</ele>
        <time>2019-07-06T16:05:16Z</time>
      </trkpt>
      <trkpt lat="40.6908530" lon="-2.5806650">
        <ele>784.2</ele>
        <time>2019-07-06T16:05:18Z</time>
      </trkpt>
      <trkpt lat="40.6907630" lon="-2.5807880">
        <ele>784.2</ele>
        <time>2019-07-06T16:05:20Z</time>
      </trkpt>
      <trkpt lat="40.6904320" lon="-2.5819680">
        <ele>786.0</ele>
        <time>2019-07-06T16:05:48Z</time>
      </trkpt>
      <trkpt lat="40.6904090" lon="-2.5820450">
        <ele>786.2</ele>
        <time>2019-07-06T16:05:50Z</time>
      </trkpt>
      <trkpt lat="40.6904020" lon="-2.5820690">
        <ele>786.2</ele>
        <time>2019-07-06T16:05:53Z</time>
      </trkpt>
      <trkpt lat="40.6904030" lon="-2.5821300">
        <ele>786.0</ele>
        <time>2019-07-06T16:06:05Z</time>
      </trkpt>
      <trkpt lat="40.6903900" lon="-2.5822290">
        <ele>785.8</ele>
        <time>2019-07-06T16:06:07Z</time>
      </trkpt>
      <trkpt lat="40.6903390" lon="-2.5824740">
        <ele>787.2</ele>
        <time>2019-07-06T16:06:15Z</time>
      </trkpt>
      <trkpt lat="40.6903330" lon="-2.5825630">
        <ele>787.2</ele>
        <time>2019-07-06T16:06:17Z</time>
      </trkpt>
      <trkpt lat="40.6903190" lon="-2.5827000">
        <ele>787.2</ele>
        <time>2019-07-06T16:06:20Z</time>
      </trkpt>
      <trkpt lat="40.6903190" lon="-2.5827420">
        <ele>787.2</ele>
        <time>2019-07-06T16:06:21Z</time>
      </trkpt>
      <trkpt lat="40.6903400" lon="-2.5828890">
        <ele>786.8</ele>
        <time>2019-07-06T16:06:25Z</time>
      </trkpt>
      <trkpt lat="40.6903400" lon="-2.5828890">
        <ele>786.6</ele>
        <time>2019-07-06T16:06:26Z</time>
      </trkpt>
      <trkpt lat="40.6904230" lon="-2.5829750">
        <ele>786.2</ele>
        <time>2019-07-06T16:06:30Z</time>
      </trkpt>
      <trkpt lat="40.6904440" lon="-2.5829940">
        <ele>786.0</ele>
        <time>2019-07-06T16:06:31Z</time>
      </trkpt>
      <trkpt lat="40.6905150" lon="-2.5830910">
        <ele>785.0</ele>
        <time>2019-07-06T16:06:35Z</time>
      </trkpt>
      <trkpt lat="40.6905300" lon="-2.5831210">
        <ele>784.8</ele>
        <time>2019-07-06T16:06:36Z</time>
      </trkpt>
      <trkpt lat="40.6906000" lon="-2.5832510">
        <ele>783.6</ele>
        <time>2019-07-06T16:06:40Z</time>
      </trkpt>
      <trkpt lat="40.6906350" lon="-2.5833060">
        <ele>782.4</ele>
        <time>2019-07-06T16:06:42Z</time>
      </trkpt>
      <trkpt lat="40.6906580" lon="-2.5833440">
        <ele>781.4</ele>
        <time>2019-07-06T16:06:44Z</time>
      </trkpt>
      <trkpt lat="40.6906600" lon="-2.5833520">
        <ele>781.2</ele>
        <time>2019-07-06T16:06:45Z</time>
      </trkpt>
      <trkpt lat="40.6906600" lon="-2.5833530">
        <ele>781.2</ele>
        <time>2019-07-06T16:06:46Z</time>
      </trkpt>
      <trkpt lat="40.6903390" lon="-2.5832600">
        <ele>788.0</ele>
        <time>2019-07-06T16:26:07Z</time>
      </trkpt>
      <trkpt lat="40.6903470" lon="-2.5833040">
        <ele>788.2</ele>
        <time>2019-07-06T16:26:08Z</time>
      </trkpt>
      <trkpt lat="40.6904400" lon="-2.5836790">
        <ele>788.4</ele>
        <time>2019-07-06T16:26:16Z</time>
      </trkpt>
      <trkpt lat="40.6905580" lon="-2.5839850">
        <ele>789.0</ele>
        <time>2019-07-06T16:26:23Z</time>
      </trkpt>
      <trkpt lat="40.6906780" lon="-2.5841820">
        <ele>789.2</ele>
        <time>2019-07-06T16:26:28Z</time>
      </trkpt>
      <trkpt lat="40.6909070" lon="-2.5844830">
        <ele>789.4</ele>
        <time>2019-07-06T16:26:36Z</time>
      </trkpt>
      <trkpt lat="40.6909360" lon="-2.5845230">
        <ele>789.4</ele>
        <time>2019-07-06T16:26:37Z</time>
      </trkpt>
      <trkpt lat="40.6910850" lon="-2.5847060">
        <ele>789.6</ele>
        <time>2019-07-06T16:26:42Z</time>
      </trkpt>
      <trkpt lat="40.6911730" lon="-2.5848210">
        <ele>789.8</ele>
        <time>2019-07-06T16:26:45Z</time>
      </trkpt>
      <trkpt lat="40.6912670" lon="-2.5849350">
        <ele>789.8</ele>
        <time>2019-07-06T16:26:48Z</time>
      </trkpt>
      <trkpt lat="40.6915240" lon="-2.5852490">
        <ele>790.4</ele>
        <time>2019-07-06T16:26:56Z</time>
      </trkpt>
      <trkpt lat="40.6918470" lon="-2.5855980">
        <ele>790.4</ele>
        <time>2019-07-06T16:27:05Z</time>
      </trkpt>
      <trkpt lat="40.6920110" lon="-2.5857340">
        <ele>790.4</ele>
        <time>2019-07-06T16:27:09Z</time>
      </trkpt>
      <trkpt lat="40.6920990" lon="-2.5857830">
        <ele>790.2</ele>
        <time>2019-07-06T16:27:11Z</time>
      </trkpt>
      <trkpt lat="40.6925140" lon="-2.5859220">
        <ele>790.2</ele>
        <time>2019-07-06T16:27:20Z</time>
      </trkpt>
      <trkpt lat="40.6926170" lon="-2.5859320">
        <ele>790.0</ele>
        <time>2019-07-06T16:27:22Z</time>
      </trkpt>
      <trkpt lat="40.6928940" lon="-2.5859200">
        <ele>789.6</ele>
        <time>2019-07-06T16:27:27Z</time>
      </trkpt>
      <trkpt lat="40.6932990" lon="-2.5858720">
        <ele>789.4</ele>
        <time>2019-07-06T16:27:34Z</time>
      </trkpt>
      <trkpt lat="40.6936730" lon="-2.5858510">
        <ele>789.4</ele>
        <time>2019-07-06T16:27:41Z</time>
      </trkpt>
      <trkpt lat="40.6940090" lon="-2.5858760">
        <ele>790.0</ele>
        <time>2019-07-06T16:27:48Z</time>
      </trkpt>
      <trkpt lat="40.6943060" lon="-2.5859210">
        <ele>790.0</ele>
        <time>2019-07-06T16:27:55Z</time>
      </trkpt>
      <trkpt lat="40.6945910" lon="-2.5859770">
        <ele>790.4</ele>
        <time>2019-07-06T16:28:02Z</time>
      </trkpt>
      <trkpt lat="40.6949520" lon="-2.5860600">
        <ele>790.0</ele>
        <time>2019-07-06T16:28:10Z</time>
      </trkpt>
      <trkpt lat="40.6953870" lon="-2.5861560">
        <ele>789.0</ele>
        <time>2019-07-06T16:28:18Z</time>
      </trkpt>
      <trkpt lat="40.6956190" lon="-2.5862130">
        <ele>788.6</ele>
        <time>2019-07-06T16:28:22Z</time>
      </trkpt>
      <trkpt lat="40.6959020" lon="-2.5862790">
        <ele>788.6</ele>
        <time>2019-07-06T16:28:27Z</time>
      </trkpt>
      <trkpt lat="40.6962580" lon="-2.5863750">
        <ele>788.6</ele>
        <time>2019-07-06T16:28:34Z</time>
      </trkpt>
      <trkpt lat="40.6964860" lon="-2.5864430">
        <ele>788.8</ele>
        <time>2019-07-06T16:28:40Z</time>
      </trkpt>
      <trkpt lat="40.6966400" lon="-2.5864940">
        <ele>789.0</ele>
        <time>2019-07-06T16:28:46Z</time>
      </trkpt>
      <trkpt lat="40.6967920" lon="-2.5865300">
        <ele>788.8</ele>
        <time>2019-07-06T16:28:52Z</time>
      </trkpt>
      <trkpt lat="40.6969940" lon="-2.5864620">
        <ele>789.0</ele>
        <time>2019-07-06T16:28:59Z</time>
      </trkpt>
      <trkpt lat="40.6971700" lon="-2.5863170">
        <ele>788.6</ele>
        <time>2019-07-06T16:29:04Z</time>
      </trkpt>
      <trkpt lat="40.6972890" lon="-2.5863290">
        <ele>788.4</ele>
        <time>2019-07-06T16:29:07Z</time>
      </trkpt>
      <trkpt lat="40.6973550" lon="-2.5864590">
        <ele>788.4</ele>
        <time>2019-07-06T16:29:10Z</time>
      </trkpt>
      <trkpt lat="40.6973680" lon="-2.5865110">
        <ele>788.6</ele>
        <time>2019-07-06T16:29:11Z</time>
      </trkpt>
      <trkpt lat="40.6974780" lon="-2.5867740">
        <ele>789.4</ele>
        <time>2019-07-06T16:29:17Z</time>
      </trkpt>
      <trkpt lat="40.6976220" lon="-2.5868310">
        <ele>789.6</ele>
        <time>2019-07-06T16:29:21Z</time>
      </trkpt>
      <trkpt lat="40.6976970" lon="-2.5868640">
        <ele>790.0</ele>
        <time>2019-07-06T16:29:23Z</time>
      </trkpt>
      <trkpt lat="40.6978180" lon="-2.5869260">
        <ele>790.2</ele>
        <time>2019-07-06T16:29:26Z</time>
      </trkpt>
      <trkpt lat="40.6978610" lon="-2.5869400">
        <ele>790.0</ele>
        <time>2019-07-06T16:29:27Z</time>
      </trkpt>
      <trkpt lat="40.6979480" lon="-2.5869690">
        <ele>789.8</ele>
        <time>2019-07-06T16:29:29Z</time>
      </trkpt>
      <trkpt lat="40.6980360" lon="-2.5870040">
        <ele>789.8</ele>
        <time>2019-07-06T16:29:31Z</time>
      </trkpt>
      <trkpt lat="40.6981280" lon="-2.5870300">
        <ele>790.0</ele>
        <time>2019-07-06T16:29:33Z</time>
      </trkpt>
      <trkpt lat="40.6984330" lon="-2.5871570">
        <ele>790.4</ele>
        <time>2019-07-06T16:29:40Z</time>
      </trkpt>
      <trkpt lat="40.6985150" lon="-2.5871890">
        <ele>790.6</ele>
        <time>2019-07-06T16:29:42Z</time>
      </trkpt>
      <trkpt lat="40.6985920" lon="-2.5872290">
        <ele>791.2</ele>
        <time>2019-07-06T16:29:44Z</time>
      </trkpt>
      <trkpt lat="40.6987100" lon="-2.5872830">
        <ele>791.4</ele>
        <time>2019-07-06T16:29:47Z</time>
      </trkpt>
      <trkpt lat="40.6990500" lon="-2.5874440">
        <ele>791.4</ele>
        <time>2019-07-06T16:29:55Z</time>
      </trkpt>
      <trkpt lat="40.6991640" lon="-2.5875270">
        <ele>791.6</ele>
        <time>2019-07-06T16:29:58Z</time>
      </trkpt>
      <trkpt lat="40.6992680" lon="-2.5876370">
        <ele>791.8</ele>
        <time>2019-07-06T16:30:01Z</time>
      </trkpt>
      <trkpt lat="40.6995170" lon="-2.5879510">
        <ele>791.8</ele>
        <time>2019-07-06T16:30:08Z</time>
      </trkpt>
      <trkpt lat="40.6997170" lon="-2.5883440">
        <ele>791.4</ele>
        <time>2019-07-06T16:30:15Z</time>
      </trkpt>
      <trkpt lat="40.6998910" lon="-2.5888010">
        <ele>791.2</ele>
        <time>2019-07-06T16:30:23Z</time>
      </trkpt>
      <trkpt lat="40.6999150" lon="-2.5888610">
        <ele>791.2</ele>
        <time>2019-07-06T16:30:24Z</time>
      </trkpt>
      <trkpt lat="40.7000590" lon="-2.5892920">
        <ele>790.6</ele>
        <time>2019-07-06T16:30:31Z</time>
      </trkpt>
      <trkpt lat="40.7001370" lon="-2.5895340">
        <ele>790.2</ele>
        <time>2019-07-06T16:30:35Z</time>
      </trkpt>
      <trkpt lat="40.7002500" lon="-2.5898920">
        <ele>789.8</ele>
        <time>2019-07-06T16:30:41Z</time>
      </trkpt>
      <trkpt lat="40.7003180" lon="-2.5901410">
        <ele>789.2</ele>
        <time>2019-07-06T16:30:45Z</time>
      </trkpt>
      <trkpt lat="40.7003840" lon="-2.5904140">
        <ele>789.0</ele>
        <time>2019-07-06T16:30:49Z</time>
      </trkpt>
      <trkpt lat="40.7004810" lon="-2.5908350">
        <ele>788.4</ele>
        <time>2019-07-06T16:30:55Z</time>
      </trkpt>
      <trkpt lat="40.7004930" lon="-2.5909070">
        <ele>788.2</ele>
        <time>2019-07-06T16:30:56Z</time>
      </trkpt>
      <trkpt lat="40.7006000" lon="-2.5914500">
        <ele>787.8</ele>
        <time>2019-07-06T16:31:04Z</time>
      </trkpt>
      <trkpt lat="40.7006770" lon="-2.5917330">
        <ele>787.8</ele>
        <time>2019-07-06T16:31:09Z</time>
      </trkpt>
      <trkpt lat="40.7006960" lon="-2.5917750">
        <ele>787.8</ele>
        <time>2019-07-06T16:31:10Z</time>
      </trkpt>
      <trkpt lat="40.7007740" lon="-2.5918630">
        <ele>788.2</ele>
        <time>2019-07-06T16:31:14Z</time>
      </trkpt>
      <trkpt lat="40.7008330" lon="-2.5919200">
        <ele>788.2</ele>
        <time>2019-07-06T16:31:18Z</time>
      </trkpt>
      <trkpt lat="40.7008280" lon="-2.5919330">
        <ele>788.2</ele>
        <time>2019-07-06T16:31:19Z</time>
      </trkpt>
      <trkpt lat="40.7007780" lon="-2.5919330">
        <ele>788.2</ele>
        <time>2019-07-06T16:31:22Z</time>
      </trkpt>
      <trkpt lat="40.7007590" lon="-2.5919320">
        <ele>788.2</ele>
        <time>2019-07-06T16:31:23Z</time>
      </trkpt>
      <trkpt lat="40.7007180" lon="-2.5919450">
        <ele>788.4</ele>
        <time>2019-07-06T16:31:25Z</time>
      </trkpt>
      <trkpt lat="40.7007450" lon="-2.5952080">
        <ele>742.4</ele>
        <time>2019-07-07T04:19:26Z</time>
      </trkpt>
      <trkpt lat="40.7007580" lon="-2.5951780">
        <ele>742.8</ele>
        <time>2019-07-07T04:19:27Z</time>
      </trkpt>
      <trkpt lat="40.7008490" lon="-2.5950260">
        <ele>743.0</ele>
        <time>2019-07-07T04:19:32Z</time>
      </trkpt>
      <trkpt lat="40.7009840" lon="-2.5947830">
        <ele>743.2</ele>
        <time>2019-07-07T04:19:39Z</time>
      </trkpt>
      <trkpt lat="40.7010860" lon="-2.5944700">
        <ele>743.2</ele>
        <time>2019-07-07T04:19:46Z</time>
      </trkpt>
      <trkpt lat="40.7011280" lon="-2.5942760">
        <ele>743.0</ele>
        <time>2019-07-07T04:19:50Z</time>
      </trkpt>
      <trkpt lat="40.7011390" lon="-2.5941740">
        <ele>743.2</ele>
        <time>2019-07-07T04:19:52Z</time>
      </trkpt>
      <trkpt lat="40.7011710" lon="-2.5938590">
        <ele>743.4</ele>
        <time>2019-07-07T04:19:58Z</time>
      </trkpt>
      <trkpt lat="40.7011950" lon="-2.5934720">
        <ele>743.8</ele>
        <time>2019-07-07T04:20:06Z</time>
      </trkpt>
      <trkpt lat="40.7012260" lon="-2.5931730">
        <ele>744.0</ele>
        <time>2019-07-07T04:20:12Z</time>
      </trkpt>
      <trkpt lat="40.7012520" lon="-2.5928450">
        <ele>744.4</ele>
        <time>2019-07-07T04:20:19Z</time>
      </trkpt>
      <trkpt lat="40.7012710" lon="-2.5926100">
        <ele>744.2</ele>
        <time>2019-07-07T04:20:23Z</time>
      </trkpt>
      <trkpt lat="40.7012840" lon="-2.5925530">
        <ele>744.2</ele>
        <time>2019-07-07T04:20:24Z</time>
      </trkpt>
      <trkpt lat="40.7013150" lon="-2.5924470">
        <ele>744.0</ele>
        <time>2019-07-07T04:20:26Z</time>
      </trkpt>
      <trkpt lat="40.7013550" lon="-2.5923150">
        <ele>744.0</ele>
        <time>2019-07-07T04:20:29Z</time>
      </trkpt>
      <trkpt lat="40.7013570" lon="-2.5922790">
        <ele>744.0</ele>
        <time>2019-07-07T04:20:30Z</time>
      </trkpt>
      <trkpt lat="40.7013450" lon="-2.5922160">
        <ele>744.2</ele>
        <time>2019-07-07T04:20:32Z</time>
      </trkpt>
      <trkpt lat="40.7013380" lon="-2.5921860">
        <ele>744.4</ele>
        <time>2019-07-07T04:20:33Z</time>
      </trkpt>
      <trkpt lat="40.7013240" lon="-2.5921330">
        <ele>745.4</ele>
        <time>2019-07-07T04:20:35Z</time>
      </trkpt>
      <trkpt lat="40.7013040" lon="-2.5920560">
        <ele>746.4</ele>
        <time>2019-07-07T04:20:38Z</time>
      </trkpt>
      <trkpt lat="40.7012960" lon="-2.5920300">
        <ele>746.6</ele>
        <time>2019-07-07T04:20:39Z</time>
      </trkpt>
      <trkpt lat="40.7012780" lon="-2.5919840">
        <ele>747.4</ele>
        <time>2019-07-07T04:20:41Z</time>
      </trkpt>
      <trkpt lat="40.7012680" lon="-2.5919630">
        <ele>747.8</ele>
        <time>2019-07-07T04:20:42Z</time>
      </trkpt>
      <trkpt lat="40.7012490" lon="-2.5919210">
        <ele>748.6</ele>
        <time>2019-07-07T04:20:44Z</time>
      </trkpt>
      <trkpt lat="40.7012260" lon="-2.5918840">
        <ele>749.0</ele>
        <time>2019-07-07T04:20:46Z</time>
      </trkpt>
      <trkpt lat="40.7012060" lon="-2.5918710">
        <ele>749.2</ele>
        <time>2019-07-07T04:20:47Z</time>
      </trkpt>
      <trkpt lat="40.7011340" lon="-2.5918780">
        <ele>749.6</ele>
        <time>2019-07-07T04:20:50Z</time>
      </trkpt>
      <trkpt lat="40.7011100" lon="-2.5918870">
        <ele>749.8</ele>
        <time>2019-07-07T04:20:51Z</time>
      </trkpt>
      <trkpt lat="40.7010620" lon="-2.5918980">
        <ele>750.0</ele>
        <time>2019-07-07T04:20:53Z</time>
      </trkpt>
      <trkpt lat="40.7009320" lon="-2.5918920">
        <ele>750.6</ele>
        <time>2019-07-07T04:20:58Z</time>
      </trkpt>
      <trkpt lat="40.7007810" lon="-2.5918930">
        <ele>750.4</ele>
        <time>2019-07-07T04:21:02Z</time>
      </trkpt>
      <trkpt lat="40.7007380" lon="-2.5919040">
        <ele>750.2</ele>
        <time>2019-07-07T04:21:03Z</time>
      </trkpt>
      <trkpt lat="40.7006540" lon="-2.5920230">
        <ele>749.6</ele>
        <time>2019-07-07T04:21:06Z</time>
      </trkpt>
      <trkpt lat="40.7006450" lon="-2.5921590">
        <ele>749.2</ele>
        <time>2019-07-07T04:21:08Z</time>
      </trkpt>
      <trkpt lat="40.7006510" lon="-2.5922340">
        <ele>748.8</ele>
        <time>2019-07-07T04:21:09Z</time>
      </trkpt>
      <trkpt lat="40.7006650" lon="-2.5923850">
        <ele>748.2</ele>
        <time>2019-07-07T04:21:11Z</time>
      </trkpt>
      <trkpt lat="40.7006790" lon="-2.5925330">
        <ele>747.8</ele>
        <time>2019-07-07T04:21:13Z</time>
      </trkpt>
      <trkpt lat="40.7006830" lon="-2.5926900">
        <ele>747.4</ele>
        <time>2019-07-07T04:21:15Z</time>
      </trkpt>
      <trkpt lat="40.7006400" lon="-2.5929290">
        <ele>747.2</ele>
        <time>2019-07-07T04:21:18Z</time>
      </trkpt>
      <trkpt lat="40.7006230" lon="-2.5930090">
        <ele>747.0</ele>
        <time>2019-07-07T04:21:19Z</time>
      </trkpt>
      <trkpt lat="40.7005850" lon="-2.5931630">
        <ele>746.8</ele>
        <time>2019-07-07T04:21:21Z</time>
      </trkpt>
      <trkpt lat="40.7005080" lon="-2.5933750">
        <ele>747.0</ele>
        <time>2019-07-07T04:21:24Z</time>
      </trkpt>
      <trkpt lat="40.7004530" lon="-2.5935020">
        <ele>747.4</ele>
        <time>2019-07-07T04:21:26Z</time>
      </trkpt>
      <trkpt lat="40.7003410" lon="-2.5937420">
        <ele>747.2</ele>
        <time>2019-07-07T04:21:30Z</time>
      </trkpt>
      <trkpt lat="40.7001400" lon="-2.5942520">
        <ele>748.0</ele>
        <time>2019-07-07T04:21:38Z</time>
      </trkpt>
      <trkpt lat="40.6999870" lon="-2.5946680">
        <ele>747.6</ele>
        <time>2019-07-07T04:21:44Z</time>
      </trkpt>
      <trkpt lat="40.6999570" lon="-2.5947350">
        <ele>747.6</ele>
        <time>2019-07-07T04:21:45Z</time>
      </trkpt>
      <trkpt lat="40.6997650" lon="-2.5952160">
        <ele>747.6</ele>
        <time>2019-07-07T04:21:52Z</time>
      </trkpt>
      <trkpt lat="40.6995980" lon="-2.5955390">
        <ele>747.2</ele>
        <time>2019-07-07T04:21:57Z</time>
      </trkpt>
      <trkpt lat="40.6995140" lon="-2.5956460">
        <ele>747.2</ele>
        <time>2019-07-07T04:21:59Z</time>
      </trkpt>
      <trkpt lat="40.6991590" lon="-2.5961310">
        <ele>747.2</ele>
        <time>2019-07-07T04:22:08Z</time>
      </trkpt>
      <trkpt lat="40.6989230" lon="-2.5965160">
        <ele>747.4</ele>
        <time>2019-07-07T04:22:15Z</time>
      </trkpt>
      <trkpt lat="40.6988040" lon="-2.5967000">
        <ele>747.6</ele>
        <time>2019-07-07T04:22:19Z</time>
      </trkpt>
      <trkpt lat="40.6987450" lon="-2.5967890">
        <ele>747.8</ele>
        <time>2019-07-07T04:22:21Z</time>
      </trkpt>
      <trkpt lat="40.6986610" lon="-2.5969100">
        <ele>748.2</ele>
        <time>2019-07-07T04:22:24Z</time>
      </trkpt>
      <trkpt lat="40.6986290" lon="-2.5969470">
        <ele>748.4</ele>
        <time>2019-07-07T04:22:25Z</time>
      </trkpt>
      <trkpt lat="40.6985950" lon="-2.5969800">
        <ele>748.8</ele>
        <time>2019-07-07T04:22:26Z</time>
      </trkpt>
      <trkpt lat="40.6985270" lon="-2.5970490">
        <ele>749.0</ele>
        <time>2019-07-07T04:22:28Z</time>
      </trkpt>
      <trkpt lat="40.6984950" lon="-2.5970850">
        <ele>749.0</ele>
        <time>2019-07-07T04:22:29Z</time>
      </trkpt>
      <trkpt lat="40.6983880" lon="-2.5972660">
        <ele>749.2</ele>
        <time>2019-07-07T04:22:33Z</time>
      </trkpt>
      <trkpt lat="40.6982260" lon="-2.5976360">
        <ele>748.6</ele>
        <time>2019-07-07T04:22:39Z</time>
      </trkpt>
      <trkpt lat="40.6981380" lon="-2.5978360">
        <ele>748.2</ele>
        <time>2019-07-07T04:22:42Z</time>
      </trkpt>
      <trkpt lat="40.6980370" lon="-2.5981120">
        <ele>747.6</ele>
        <time>2019-07-07T04:22:46Z</time>
      </trkpt>
      <trkpt lat="40.6980140" lon="-2.5981810">
        <ele>747.6</ele>
        <time>2019-07-07T04:22:47Z</time>
      </trkpt>
      <trkpt lat="40.6978080" lon="-2.5986380">
        <ele>747.4</ele>
        <time>2019-07-07T04:22:54Z</time>
      </trkpt>
      <trkpt lat="40.6977000" lon="-2.5988170">
        <ele>747.2</ele>
        <time>2019-07-07T04:22:57Z</time>
      </trkpt>
      <trkpt lat="40.6976290" lon="-2.5989360">
        <ele>746.8</ele>
        <time>2019-07-07T04:22:59Z</time>
      </trkpt>
      <trkpt lat="40.6974670" lon="-2.5992320">
        <ele>746.6</ele>
        <time>2019-07-07T04:23:04Z</time>
      </trkpt>
      <trkpt lat="40.6973960" lon="-2.5993380">
        <ele>746.6</ele>
        <time>2019-07-07T04:23:06Z</time>
      </trkpt>
      <trkpt lat="40.6972380" lon="-2.5995220">
        <ele>747.0</ele>
        <time>2019-07-07T04:23:10Z</time>
      </trkpt>
      <trkpt lat="40.6969800" lon="-2.5998080">
        <ele>747.2</ele>
        <time>2019-07-07T04:23:17Z</time>
      </trkpt>
      <trkpt lat="40.6969110" lon="-2.5998830">
        <ele>747.4</ele>
        <time>2019-07-07T04:23:19Z</time>
      </trkpt>
      <trkpt lat="40.6968750" lon="-2.5999120">
        <ele>747.4</ele>
        <time>2019-07-07T04:23:20Z</time>
      </trkpt>
      <trkpt lat="40.6967590" lon="-2.5999560">
        <ele>748.2</ele>
        <time>2019-07-07T04:23:23Z</time>
      </trkpt>
      <trkpt lat="40.6966140" lon="-2.5999800">
        <ele>748.8</ele>
        <time>2019-07-07T04:23:27Z</time>
      </trkpt>
      <trkpt lat="40.6965770" lon="-2.5999890">
        <ele>749.2</ele>
        <time>2019-07-07T04:23:28Z</time>
      </trkpt>
      <trkpt lat="40.6965070" lon="-2.6000080">
        <ele>749.6</ele>
        <time>2019-07-07T04:23:30Z</time>
      </trkpt>
      <trkpt lat="40.6964380" lon="-2.6000240">
        <ele>750.2</ele>
        <time>2019-07-07T04:23:32Z</time>
      </trkpt>
      <trkpt lat="40.6963320" lon="-2.6000350">
        <ele>751.2</ele>
        <time>2019-07-07T04:23:35Z</time>
      </trkpt>
      <trkpt lat="40.6962980" lon="-2.6000380">
        <ele>751.6</ele>
        <time>2019-07-07T04:23:36Z</time>
      </trkpt>
      <trkpt lat="40.6962310" lon="-2.6000440">
        <ele>752.2</ele>
        <time>2019-07-07T04:23:38Z</time>
      </trkpt>
      <trkpt lat="40.6962000" lon="-2.6000470">
        <ele>752.6</ele>
        <time>2019-07-07T04:23:39Z</time>
      </trkpt>
      <trkpt lat="40.6961430" lon="-2.6000560">
        <ele>753.8</ele>
        <time>2019-07-07T04:23:41Z</time>
      </trkpt>
      <trkpt lat="40.6960610" lon="-2.6000670">
        <ele>754.6</ele>
        <time>2019-07-07T04:23:44Z</time>
      </trkpt>
      <trkpt lat="40.6960350" lon="-2.6000710">
        <ele>754.8</ele>
        <time>2019-07-07T04:23:45Z</time>
      </trkpt>
      <trkpt lat="40.6959590" lon="-2.6000730">
        <ele>755.6</ele>
        <time>2019-07-07T04:23:48Z</time>
      </trkpt>
      <trkpt lat="40.6959320" lon="-2.6000720">
        <ele>756.0</ele>
        <time>2019-07-07T04:23:49Z</time>
      </trkpt>
      <trkpt lat="40.6959050" lon="-2.6000730">
        <ele>756.2</ele>
        <time>2019-07-07T04:23:50Z</time>
      </trkpt>
      <trkpt lat="40.6958090" lon="-2.6001020">
        <ele>757.4</ele>
        <time>2019-07-07T04:23:54Z</time>
      </trkpt>
      <trkpt lat="40.6957570" lon="-2.6001180">
        <ele>757.8</ele>
        <time>2019-07-07T04:23:56Z</time>
      </trkpt>
      <trkpt lat="40.6956790" lon="-2.6001530">
        <ele>758.6</ele>
        <time>2019-07-07T04:23:59Z</time>
      </trkpt>
      <trkpt lat="40.6955590" lon="-2.6002110">
        <ele>759.0</ele>
        <time>2019-07-07T04:24:03Z</time>
      </trkpt>
      <trkpt lat="40.6953010" lon="-2.6003550">
        <ele>759.0</ele>
        <time>2019-07-07T04:24:10Z</time>
      </trkpt>
      <trkpt lat="40.6949740" lon="-2.6005830">
        <ele>758.2</ele>
        <time>2019-07-07T04:24:17Z</time>
      </trkpt>
      <trkpt lat="40.6948670" lon="-2.6006570">
        <ele>758.0</ele>
        <time>2019-07-07T04:24:19Z</time>
      </trkpt>
      <trkpt lat="40.6947560" lon="-2.6007410">
        <ele>757.4</ele>
        <time>2019-07-07T04:24:21Z</time>
      </trkpt>
      <trkpt lat="40.6946370" lon="-2.6008320">
        <ele>757.0</ele>
        <time>2019-07-07T04:24:23Z</time>
      </trkpt>
      <trkpt lat="40.6945730" lon="-2.6008750">
        <ele>756.8</ele>
        <time>2019-07-07T04:24:24Z</time>
      </trkpt>
      <trkpt lat="40.6945060" lon="-2.6009150">
        <ele>756.4</ele>
        <time>2019-07-07T04:24:25Z</time>
      </trkpt>
      <trkpt lat="40.6942930" lon="-2.6010330">
        <ele>755.4</ele>
        <time>2019-07-07T04:24:28Z</time>
      </trkpt>
      <trkpt lat="40.6941420" lon="-2.6011070">
        <ele>754.6</ele>
        <time>2019-07-07T04:24:30Z</time>
      </trkpt>
      <trkpt lat="40.6940640" lon="-2.6011430">
        <ele>754.2</ele>
        <time>2019-07-07T04:24:31Z</time>
      </trkpt>
      <trkpt lat="40.6939050" lon="-2.6012040">
        <ele>753.4</ele>
        <time>2019-07-07T04:24:33Z</time>
      </trkpt>
      <trkpt lat="40.6938280" lon="-2.6012390">
        <ele>753.0</ele>
        <time>2019-07-07T04:24:34Z</time>
      </trkpt>
      <trkpt lat="40.6937530" lon="-2.6012810">
        <ele>752.6</ele>
        <time>2019-07-07T04:24:35Z</time>
      </trkpt>
      <trkpt lat="40.6936820" lon="-2.6013330">
        <ele>752.4</ele>
        <time>2019-07-07T04:24:36Z</time>
      </trkpt>
      <trkpt lat="40.6936150" lon="-2.6013940">
        <ele>752.2</ele>
        <time>2019-07-07T04:24:37Z</time>
      </trkpt>
      <trkpt lat="40.6935100" lon="-2.6015500">
        <ele>751.6</ele>
        <time>2019-07-07T04:24:39Z</time>
      </trkpt>
      <trkpt lat="40.6934380" lon="-2.6017430">
        <ele>750.8</ele>
        <time>2019-07-07T04:24:41Z</time>
      </trkpt>
      <trkpt lat="40.6933690" lon="-2.6019400">
        <ele>749.6</ele>
        <time>2019-07-07T04:24:43Z</time>
      </trkpt>
      <trkpt lat="40.6933330" lon="-2.6020350">
        <ele>748.8</ele>
        <time>2019-07-07T04:24:44Z</time>
      </trkpt>
      <trkpt lat="40.6933020" lon="-2.6021190">
        <ele>748.2</ele>
        <time>2019-07-07T04:24:45Z</time>
      </trkpt>
      <trkpt lat="40.6932530" lon="-2.6022470">
        <ele>747.4</ele>
        <time>2019-07-07T04:24:47Z</time>
      </trkpt>
      <trkpt lat="40.6932310" lon="-2.6022990">
        <ele>747.2</ele>
        <time>2019-07-07T04:24:48Z</time>
      </trkpt>
      <trkpt lat="40.6931250" lon="-2.6025480">
        <ele>746.4</ele>
        <time>2019-07-07T04:24:53Z</time>
      </trkpt>
      <trkpt lat="40.6930570" lon="-2.6026740">
        <ele>746.2</ele>
        <time>2019-07-07T04:24:56Z</time>
      </trkpt>
      <trkpt lat="40.6930490" lon="-2.6026870">
        <ele>746.2</ele>
        <time>2019-07-07T04:24:57Z</time>
      </trkpt>
      <trkpt lat="40.6930530" lon="-2.6026850">
        <ele>746.0</ele>
        <time>2019-07-07T04:24:59Z</time>
      </trkpt>
      <trkpt lat="40.6930370" lon="-2.6027110">
        <ele>746.0</ele>
        <time>2019-07-07T04:25:08Z</time>
      </trkpt>
      <trkpt lat="40.6930250" lon="-2.6027330">
        <ele>746.0</ele>
        <time>2019-07-07T04:25:09Z</time>
      </trkpt>
      <trkpt lat="40.6929300" lon="-2.6029140">
        <ele>746.0</ele>
        <time>2019-07-07T04:25:15Z</time>
      </trkpt>
      <trkpt lat="40.6928340" lon="-2.6031270">
        <ele>746.4</ele>
        <time>2019-07-07T04:25:20Z</time>
      </trkpt>
      <trkpt lat="40.6927880" lon="-2.6032260">
        <ele>746.2</ele>
        <time>2019-07-07T04:25:22Z</time>
      </trkpt>
      <trkpt lat="40.6927370" lon="-2.6033260">
        <ele>746.2</ele>
        <time>2019-07-07T04:25:24Z</time>
      </trkpt>
      <trkpt lat="40.6925750" lon="-2.6036740">
        <ele>746.4</ele>
        <time>2019-07-07T04:25:31Z</time>
      </trkpt>
      <trkpt lat="40.6924570" lon="-2.6039840">
        <ele>746.8</ele>
        <time>2019-07-07T04:25:37Z</time>
      </trkpt>
      <trkpt lat="40.6923890" lon="-2.6042140">
        <ele>747.2</ele>
        <time>2019-07-07T04:25:41Z</time>
      </trkpt>
      <trkpt lat="40.6923640" lon="-2.6043370">
        <ele>747.4</ele>
        <time>2019-07-07T04:25:43Z</time>
      </trkpt>
      <trkpt lat="40.6923300" lon="-2.6047940">
        <ele>747.6</ele>
        <time>2019-07-07T04:25:50Z</time>
      </trkpt>
      <trkpt lat="40.6923590" lon="-2.6052710">
        <ele>747.8</ele>
        <time>2019-07-07T04:25:57Z</time>
      </trkpt>
      <trkpt lat="40.6923590" lon="-2.6055470">
        <ele>748.0</ele>
        <time>2019-07-07T04:26:01Z</time>
      </trkpt>
      <trkpt lat="40.6923530" lon="-2.6057630">
        <ele>747.8</ele>
        <time>2019-07-07T04:26:04Z</time>
      </trkpt>
      <trkpt lat="40.6923660" lon="-2.6059840">
        <ele>747.6</ele>
        <time>2019-07-07T04:26:07Z</time>
      </trkpt>
      <trkpt lat="40.6923890" lon="-2.6062910">
        <ele>747.6</ele>
        <time>2019-07-07T04:26:11Z</time>
      </trkpt>
      <trkpt lat="40.6924500" lon="-2.6068530">
        <ele>747.0</ele>
        <time>2019-07-07T04:26:18Z</time>
      </trkpt>
      <trkpt lat="40.6924550" lon="-2.6069340">
        <ele>746.8</ele>
        <time>2019-07-07T04:26:19Z</time>
      </trkpt>
      <trkpt lat="40.6924390" lon="-2.6075010">
        <ele>746.6</ele>
        <time>2019-07-07T04:26:26Z</time>
      </trkpt>
      <trkpt lat="40.6923640" lon="-2.6080650">
        <ele>746.4</ele>
        <time>2019-07-07T04:26:33Z</time>
      </trkpt>
      <trkpt lat="40.6922450" lon="-2.6085230">
        <ele>746.4</ele>
        <time>2019-07-07T04:26:39Z</time>
      </trkpt>
      <trkpt lat="40.6920680" lon="-2.6092140">
        <ele>746.2</ele>
        <time>2019-07-07T04:26:48Z</time>
      </trkpt>
      <trkpt lat="40.6920460" lon="-2.6092870">
        <ele>746.2</ele>
        <time>2019-07-07T04:26:49Z</time>
      </trkpt>
      <trkpt lat="40.6919330" lon="-2.6096400">
        <ele>746.0</ele>
        <time>2019-07-07T04:26:54Z</time>
      </trkpt>
      <trkpt lat="40.6918850" lon="-2.6097790">
        <ele>746.2</ele>
        <time>2019-07-07T04:26:56Z</time>
      </trkpt>
      <trkpt lat="40.6916550" lon="-2.6102410">
        <ele>746.6</ele>
        <time>2019-07-07T04:27:03Z</time>
      </trkpt>
      <trkpt lat="40.6914700" lon="-2.6104670">
        <ele>746.0</ele>
        <time>2019-07-07T04:27:07Z</time>
      </trkpt>
      <trkpt lat="40.6914140" lon="-2.6105100">
        <ele>746.0</ele>
        <time>2019-07-07T04:27:08Z</time>
      </trkpt>
      <trkpt lat="40.6911770" lon="-2.6105730">
        <ele>745.8</ele>
        <time>2019-07-07T04:27:12Z</time>
      </trkpt>
      <trkpt lat="40.6910230" lon="-2.6104570">
        <ele>745.8</ele>
        <time>2019-07-07T04:27:16Z</time>
      </trkpt>
      <trkpt lat="40.6908690" lon="-2.6102540">
        <ele>746.6</ele>
        <time>2019-07-07T04:27:21Z</time>
      </trkpt>
      <trkpt lat="40.6907710" lon="-2.6101200">
        <ele>746.6</ele>
        <time>2019-07-07T04:27:24Z</time>
      </trkpt>
      <trkpt lat="40.6905520" lon="-2.6097980">
        <ele>747.0</ele>
        <time>2019-07-07T04:27:31Z</time>
      </trkpt>
      <trkpt lat="40.6905200" lon="-2.6097480">
        <ele>747.0</ele>
        <time>2019-07-07T04:27:32Z</time>
      </trkpt>
      <trkpt lat="40.6903120" lon="-2.6094320">
        <ele>746.8</ele>
        <time>2019-07-07T04:27:38Z</time>
      </trkpt>
      <trkpt lat="40.6901040" lon="-2.6091180">
        <ele>746.6</ele>
        <time>2019-07-07T04:27:44Z</time>
      </trkpt>
      <trkpt lat="40.6900720" lon="-2.6090650">
        <ele>746.4</ele>
        <time>2019-07-07T04:27:45Z</time>
      </trkpt>
      <trkpt lat="40.6900450" lon="-2.6090100">
        <ele>746.2</ele>
        <time>2019-07-07T04:27:46Z</time>
      </trkpt>
      <trkpt lat="40.6899650" lon="-2.6088270">
        <ele>746.0</ele>
        <time>2019-07-07T04:27:49Z</time>
      </trkpt>
      <trkpt lat="40.6899030" lon="-2.6086340">
        <ele>746.0</ele>
        <time>2019-07-07T04:27:52Z</time>
      </trkpt>
      <trkpt lat="40.6898810" lon="-2.6085770">
        <ele>745.8</ele>
        <time>2019-07-07T04:27:53Z</time>
      </trkpt>
      <trkpt lat="40.6897840" lon="-2.6083780">
        <ele>746.4</ele>
        <time>2019-07-07T04:27:57Z</time>
      </trkpt>
      <trkpt lat="40.6896810" lon="-2.6080860">
        <ele>746.2</ele>
        <time>2019-07-07T04:28:02Z</time>
      </trkpt>
      <trkpt lat="40.6896730" lon="-2.6080210">
        <ele>746.2</ele>
        <time>2019-07-07T04:28:03Z</time>
      </trkpt>
      <trkpt lat="40.6896670" lon="-2.6078150">
        <ele>746.2</ele>
        <time>2019-07-07T04:28:06Z</time>
      </trkpt>
      <trkpt lat="40.6896690" lon="-2.6076110">
        <ele>746.0</ele>
        <time>2019-07-07T04:28:09Z</time>
      </trkpt>
      <trkpt lat="40.6896730" lon="-2.6075430">
        <ele>746.0</ele>
        <time>2019-07-07T04:28:10Z</time>
      </trkpt>
      <trkpt lat="40.6896830" lon="-2.6073410">
        <ele>746.0</ele>
        <time>2019-07-07T04:28:13Z</time>
      </trkpt>
      <trkpt lat="40.6896750" lon="-2.6072170">
        <ele>746.0</ele>
        <time>2019-07-07T04:28:15Z</time>
      </trkpt>
      <trkpt lat="40.6896620" lon="-2.6070920">
        <ele>746.2</ele>
        <time>2019-07-07T04:28:17Z</time>
      </trkpt>
      <trkpt lat="40.6896470" lon="-2.6069630">
        <ele>746.2</ele>
        <time>2019-07-07T04:28:19Z</time>
      </trkpt>
      <trkpt lat="40.6896420" lon="-2.6068340">
        <ele>746.4</ele>
        <time>2019-07-07T04:28:21Z</time>
      </trkpt>
      <trkpt lat="40.6896460" lon="-2.6064720">
        <ele>747.0</ele>
        <time>2019-07-07T04:28:27Z</time>
      </trkpt>
      <trkpt lat="40.6896310" lon="-2.6061610">
        <ele>747.0</ele>
        <time>2019-07-07T04:28:32Z</time>
      </trkpt>
      <trkpt lat="40.6896320" lon="-2.6060980">
        <ele>747.0</ele>
        <time>2019-07-07T04:28:33Z</time>
      </trkpt>
      <trkpt lat="40.6896400" lon="-2.6059790">
        <ele>746.8</ele>
        <time>2019-07-07T04:28:35Z</time>
      </trkpt>
      <trkpt lat="40.6896620" lon="-2.6058050">
        <ele>746.6</ele>
        <time>2019-07-07T04:28:38Z</time>
      </trkpt>
      <trkpt lat="40.6897220" lon="-2.6055270">
        <ele>746.6</ele>
        <time>2019-07-07T04:28:43Z</time>
      </trkpt>
      <trkpt lat="40.6897560" lon="-2.6054270">
        <ele>746.8</ele>
        <time>2019-07-07T04:28:45Z</time>
      </trkpt>
      <trkpt lat="40.6898380" lon="-2.6052250">
        <ele>747.2</ele>
        <time>2019-07-07T04:28:49Z</time>
      </trkpt>
      <trkpt lat="40.6899160" lon="-2.6049930">
        <ele>747.2</ele>
        <time>2019-07-07T04:28:53Z</time>
      </trkpt>
      <trkpt lat="40.6900320" lon="-2.6046900">
        <ele>747.2</ele>
        <time>2019-07-07T04:28:58Z</time>
      </trkpt>
      <trkpt lat="40.6900610" lon="-2.6046280">
        <ele>747.2</ele>
        <time>2019-07-07T04:28:59Z</time>
      </trkpt>
      <trkpt lat="40.6901700" lon="-2.6043760">
        <ele>746.8</ele>
        <time>2019-07-07T04:29:03Z</time>
      </trkpt>
      <trkpt lat="40.6902630" lon="-2.6042080">
        <ele>746.8</ele>
        <time>2019-07-07T04:29:06Z</time>
      </trkpt>
      <trkpt lat="40.6904890" lon="-2.6038200">
        <ele>747.0</ele>
        <time>2019-07-07T04:29:13Z</time>
      </trkpt>
      <trkpt lat="40.6906830" lon="-2.6034030">
        <ele>746.8</ele>
        <time>2019-07-07T04:29:20Z</time>
      </trkpt>
      <trkpt lat="40.6908330" lon="-2.6031080">
        <ele>746.6</ele>
        <time>2019-07-07T04:29:25Z</time>
      </trkpt>
      <trkpt lat="40.6909050" lon="-2.6029500">
        <ele>746.8</ele>
        <time>2019-07-07T04:29:28Z</time>
      </trkpt>
      <trkpt lat="40.6909400" lon="-2.6028300">
        <ele>747.0</ele>
        <time>2019-07-07T04:29:30Z</time>
      </trkpt>
      <trkpt lat="40.6909840" lon="-2.6027140">
        <ele>747.0</ele>
        <time>2019-07-07T04:29:32Z</time>
      </trkpt>
      <trkpt lat="40.6910680" lon="-2.6024780">
        <ele>746.8</ele>
        <time>2019-07-07T04:29:36Z</time>
      </trkpt>
      <trkpt lat="40.6911290" lon="-2.6022860">
        <ele>746.6</ele>
        <time>2019-07-07T04:29:39Z</time>
      </trkpt>
      <trkpt lat="40.6911730" lon="-2.6021550">
        <ele>746.6</ele>
        <time>2019-07-07T04:29:41Z</time>
      </trkpt>
      <trkpt lat="40.6913220" lon="-2.6016730">
        <ele>746.0</ele>
        <time>2019-07-07T04:29:48Z</time>
      </trkpt>
      <trkpt lat="40.6914270" lon="-2.6013650">
        <ele>746.4</ele>
        <time>2019-07-07T04:29:53Z</time>
      </trkpt>
      <trkpt lat="40.6914720" lon="-2.6012490">
        <ele>746.8</ele>
        <time>2019-07-07T04:29:55Z</time>
      </trkpt>
      <trkpt lat="40.6915620" lon="-2.6010170">
        <ele>747.4</ele>
        <time>2019-07-07T04:29:59Z</time>
      </trkpt>
      <trkpt lat="40.6916220" lon="-2.6008440">
        <ele>747.6</ele>
        <time>2019-07-07T04:30:02Z</time>
      </trkpt>
      <trkpt lat="40.6917280" lon="-2.6005510">
        <ele>747.8</ele>
        <time>2019-07-07T04:30:07Z</time>
      </trkpt>
      <trkpt lat="40.6917470" lon="-2.6004860">
        <ele>747.8</ele>
        <time>2019-07-07T04:30:08Z</time>
      </trkpt>
      <trkpt lat="40.6918670" lon="-2.5999580">
        <ele>747.0</ele>
        <time>2019-07-07T04:30:15Z</time>
      </trkpt>
      <trkpt lat="40.6919290" lon="-2.5996540">
        <ele>746.2</ele>
        <time>2019-07-07T04:30:19Z</time>
      </trkpt>
      <trkpt lat="40.6919480" lon="-2.5994980">
        <ele>746.2</ele>
        <time>2019-07-07T04:30:21Z</time>
      </trkpt>
      <trkpt lat="40.6919530" lon="-2.5994220">
        <ele>746.2</ele>
        <time>2019-07-07T04:30:22Z</time>
      </trkpt>
      <trkpt lat="40.6919620" lon="-2.5990700">
        <ele>746.6</ele>
        <time>2019-07-07T04:30:27Z</time>
      </trkpt>
      <trkpt lat="40.6919530" lon="-2.5987370">
        <ele>747.2</ele>
        <time>2019-07-07T04:30:32Z</time>
      </trkpt>
      <trkpt lat="40.6919500" lon="-2.5986720">
        <ele>747.2</ele>
        <time>2019-07-07T04:30:33Z</time>
      </trkpt>
      <trkpt lat="40.6919170" lon="-2.5983570">
        <ele>747.8</ele>
        <time>2019-07-07T04:30:38Z</time>
      </trkpt>
      <trkpt lat="40.6918830" lon="-2.5981720">
        <ele>748.0</ele>
        <time>2019-07-07T04:30:41Z</time>
      </trkpt>
      <trkpt lat="40.6918290" lon="-2.5979880">
        <ele>748.2</ele>
        <time>2019-07-07T04:30:44Z</time>
      </trkpt>
      <trkpt lat="40.6917200" lon="-2.5976970">
        <ele>748.4</ele>
        <time>2019-07-07T04:30:49Z</time>
      </trkpt>
      <trkpt lat="40.6916900" lon="-2.5976420">
        <ele>748.6</ele>
        <time>2019-07-07T04:30:50Z</time>
      </trkpt>
      <trkpt lat="40.6915160" lon="-2.5973850">
        <ele>749.2</ele>
        <time>2019-07-07T04:30:55Z</time>
      </trkpt>
      <trkpt lat="40.6914290" lon="-2.5973060">
        <ele>749.0</ele>
        <time>2019-07-07T04:30:57Z</time>
      </trkpt>
      <trkpt lat="40.6913340" lon="-2.5972380">
        <ele>749.2</ele>
        <time>2019-07-07T04:30:59Z</time>
      </trkpt>
      <trkpt lat="40.6911840" lon="-2.5971480">
        <ele>749.0</ele>
        <time>2019-07-07T04:31:02Z</time>
      </trkpt>
      <trkpt lat="40.6908850" lon="-2.5970070">
        <ele>749.6</ele>
        <time>2019-07-07T04:31:08Z</time>
      </trkpt>
      <trkpt lat="40.6905680" lon="-2.5968880">
        <ele>749.6</ele>
        <time>2019-07-07T04:31:14Z</time>
      </trkpt>
      <trkpt lat="40.6905140" lon="-2.5968640">
        <ele>749.4</ele>
        <time>2019-07-07T04:31:15Z</time>
      </trkpt>
      <trkpt lat="40.6902860" lon="-2.5967560">
        <ele>748.6</ele>
        <time>2019-07-07T04:31:19Z</time>
      </trkpt>
      <trkpt lat="40.6901630" lon="-2.5967090">
        <ele>748.4</ele>
        <time>2019-07-07T04:31:21Z</time>
      </trkpt>
      <trkpt lat="40.6900370" lon="-2.5966730">
        <ele>748.0</ele>
        <time>2019-07-07T04:31:23Z</time>
      </trkpt>
      <trkpt lat="40.6899770" lon="-2.5966620">
        <ele>747.8</ele>
        <time>2019-07-07T04:31:24Z</time>
      </trkpt>
      <trkpt lat="40.6899160" lon="-2.5966480">
        <ele>747.6</ele>
        <time>2019-07-07T04:31:25Z</time>
      </trkpt>
      <trkpt lat="40.6896580" lon="-2.5966060">
        <ele>746.6</ele>
        <time>2019-07-07T04:31:29Z</time>
      </trkpt>
      <trkpt lat="40.6895340" lon="-2.5966030">
        <ele>746.4</ele>
        <time>2019-07-07T04:31:31Z</time>
      </trkpt>
      <trkpt lat="40.6894180" lon="-2.5965970">
        <ele>746.2</ele>
        <time>2019-07-07T04:31:33Z</time>
      </trkpt>
      <trkpt lat="40.6893060" lon="-2.5965940">
        <ele>746.2</ele>
        <time>2019-07-07T04:31:35Z</time>
      </trkpt>
      <trkpt lat="40.6890790" lon="-2.5966150">
        <ele>746.4</ele>
        <time>2019-07-07T04:31:39Z</time>
      </trkpt>
      <trkpt lat="40.6889720" lon="-2.5966370">
        <ele>746.4</ele>
        <time>2019-07-07T04:31:41Z</time>
      </trkpt>
      <trkpt lat="40.6887690" lon="-2.5966690">
        <ele>746.8</ele>
        <time>2019-07-07T04:31:45Z</time>
      </trkpt>
      <trkpt lat="40.6886620" lon="-2.5966760">
        <ele>746.8</ele>
        <time>2019-07-07T04:31:47Z</time>
      </trkpt>
      <trkpt lat="40.6886090" lon="-2.5966840">
        <ele>746.8</ele>
        <time>2019-07-07T04:31:48Z</time>
      </trkpt>
      <trkpt lat="40.6884070" lon="-2.5967320">
        <ele>747.4</ele>
        <time>2019-07-07T04:31:52Z</time>
      </trkpt>
      <trkpt lat="40.6883050" lon="-2.5967660">
        <ele>747.8</ele>
        <time>2019-07-07T04:31:54Z</time>
      </trkpt>
      <trkpt lat="40.6882120" lon="-2.5968210">
        <ele>747.8</ele>
        <time>2019-07-07T04:31:56Z</time>
      </trkpt>
      <trkpt lat="40.6881670" lon="-2.5968540">
        <ele>747.8</ele>
        <time>2019-07-07T04:31:57Z</time>
      </trkpt>
      <trkpt lat="40.6877980" lon="-2.5971210">
        <ele>748.0</ele>
        <time>2019-07-07T04:32:05Z</time>
      </trkpt>
      <trkpt lat="40.6874800" lon="-2.5973590">
        <ele>748.4</ele>
        <time>2019-07-07T04:32:12Z</time>
      </trkpt>
      <trkpt lat="40.6872190" lon="-2.5976200">
        <ele>748.2</ele>
        <time>2019-07-07T04:32:18Z</time>
      </trkpt>
      <trkpt lat="40.6869920" lon="-2.5978670">
        <ele>747.8</ele>
        <time>2019-07-07T04:32:23Z</time>
      </trkpt>
      <trkpt lat="40.6868950" lon="-2.5979790">
        <ele>747.4</ele>
        <time>2019-07-07T04:32:25Z</time>
      </trkpt>
      <trkpt lat="40.6867890" lon="-2.5980920">
        <ele>746.6</ele>
        <time>2019-07-07T04:32:27Z</time>
      </trkpt>
      <trkpt lat="40.6866300" lon="-2.5982840">
        <ele>745.2</ele>
        <time>2019-07-07T04:32:30Z</time>
      </trkpt>
      <trkpt lat="40.6863530" lon="-2.5986140">
        <ele>744.2</ele>
        <time>2019-07-07T04:32:35Z</time>
      </trkpt>
      <trkpt lat="40.6862500" lon="-2.5987430">
        <ele>744.0</ele>
        <time>2019-07-07T04:32:37Z</time>
      </trkpt>
      <trkpt lat="40.6861980" lon="-2.5988010">
        <ele>744.0</ele>
        <time>2019-07-07T04:32:38Z</time>
      </trkpt>
      <trkpt lat="40.6860430" lon="-2.5989640">
        <ele>743.8</ele>
        <time>2019-07-07T04:32:41Z</time>
      </trkpt>
      <trkpt lat="40.6857360" lon="-2.5992270">
        <ele>744.0</ele>
        <time>2019-07-07T04:32:47Z</time>
      </trkpt>
      <trkpt lat="40.6855890" lon="-2.5993600">
        <ele>744.0</ele>
        <time>2019-07-07T04:32:50Z</time>
      </trkpt>
      <trkpt lat="40.6854890" lon="-2.5994540">
        <ele>744.0</ele>
        <time>2019-07-07T04:32:52Z</time>
      </trkpt>
      <trkpt lat="40.6852780" lon="-2.5996470">
        <ele>743.6</ele>
        <time>2019-07-07T04:32:56Z</time>
      </trkpt>
      <trkpt lat="40.6852170" lon="-2.5996850">
        <ele>743.4</ele>
        <time>2019-07-07T04:32:57Z</time>
      </trkpt>
      <trkpt lat="40.6851560" lon="-2.5997180">
        <ele>743.2</ele>
        <time>2019-07-07T04:32:58Z</time>
      </trkpt>
      <trkpt lat="40.6848420" lon="-2.5998290">
        <ele>742.6</ele>
        <time>2019-07-07T04:33:03Z</time>
      </trkpt>
      <trkpt lat="40.6847250" lon="-2.5998530">
        <ele>742.6</ele>
        <time>2019-07-07T04:33:05Z</time>
      </trkpt>
      <trkpt lat="40.6846110" lon="-2.5998540">
        <ele>742.6</ele>
        <time>2019-07-07T04:33:07Z</time>
      </trkpt>
      <trkpt lat="40.6843930" lon="-2.5997350">
        <ele>742.6</ele>
        <time>2019-07-07T04:33:11Z</time>
      </trkpt>
      <trkpt lat="40.6842480" lon="-2.5995180">
        <ele>743.0</ele>
        <time>2019-07-07T04:33:15Z</time>
      </trkpt>
      <trkpt lat="40.6841760" lon="-2.5993550">
        <ele>743.6</ele>
        <time>2019-07-07T04:33:18Z</time>
      </trkpt>
      <trkpt lat="40.6841060" lon="-2.5991890">
        <ele>743.6</ele>
        <time>2019-07-07T04:33:21Z</time>
      </trkpt>
      <trkpt lat="40.6840310" lon="-2.5989300">
        <ele>743.6</ele>
        <time>2019-07-07T04:33:25Z</time>
      </trkpt>
      <trkpt lat="40.6839920" lon="-2.5987280">
        <ele>743.6</ele>
        <time>2019-07-07T04:33:28Z</time>
      </trkpt>
      <trkpt lat="40.6839770" lon="-2.5986620">
        <ele>743.4</ele>
        <time>2019-07-07T04:33:29Z</time>
      </trkpt>
      <trkpt lat="40.6839220" lon="-2.5984680">
        <ele>743.4</ele>
        <time>2019-07-07T04:33:32Z</time>
      </trkpt>
      <trkpt lat="40.6838730" lon="-2.5983470">
        <ele>743.2</ele>
        <time>2019-07-07T04:33:34Z</time>
      </trkpt>
      <trkpt lat="40.6837430" lon="-2.5979690">
        <ele>743.2</ele>
        <time>2019-07-07T04:33:40Z</time>
      </trkpt>
      <trkpt lat="40.6836530" lon="-2.5976090">
        <ele>742.8</ele>
        <time>2019-07-07T04:33:45Z</time>
      </trkpt>
      <trkpt lat="40.6836120" lon="-2.5974520">
        <ele>742.4</ele>
        <time>2019-07-07T04:33:47Z</time>
      </trkpt>
      <trkpt lat="40.6835530" lon="-2.5972210">
        <ele>742.2</ele>
        <time>2019-07-07T04:33:50Z</time>
      </trkpt>
      <trkpt lat="40.6833610" lon="-2.5965420">
        <ele>742.2</ele>
        <time>2019-07-07T04:33:59Z</time>
      </trkpt>
      <trkpt lat="40.6833170" lon="-2.5964180">
        <ele>742.4</ele>
        <time>2019-07-07T04:34:01Z</time>
      </trkpt>
      <trkpt lat="40.6832260" lon="-2.5961050">
        <ele>742.8</ele>
        <time>2019-07-07T04:34:06Z</time>
      </trkpt>
      <trkpt lat="40.6830990" lon="-2.5956210">
        <ele>743.8</ele>
        <time>2019-07-07T04:34:14Z</time>
      </trkpt>
      <trkpt lat="40.6830890" lon="-2.5955610">
        <ele>743.8</ele>
        <time>2019-07-07T04:34:15Z</time>
      </trkpt>
      <trkpt lat="40.6830450" lon="-2.5952550">
        <ele>744.2</ele>
        <time>2019-07-07T04:34:20Z</time>
      </trkpt>
      <trkpt lat="40.6830170" lon="-2.5950650">
        <ele>744.6</ele>
        <time>2019-07-07T04:34:23Z</time>
      </trkpt>
      <trkpt lat="40.6829540" lon="-2.5946730">
        <ele>744.8</ele>
        <time>2019-07-07T04:34:29Z</time>
      </trkpt>
      <trkpt lat="40.6829430" lon="-2.5946100">
        <ele>744.8</ele>
        <time>2019-07-07T04:34:30Z</time>
      </trkpt>
      <trkpt lat="40.6829050" lon="-2.5944210">
        <ele>745.2</ele>
        <time>2019-07-07T04:34:33Z</time>
      </trkpt>
      <trkpt lat="40.6828420" lon="-2.5941850">
        <ele>745.6</ele>
        <time>2019-07-07T04:34:37Z</time>
      </trkpt>
      <trkpt lat="40.6827370" lon="-2.5939100">
        <ele>746.2</ele>
        <time>2019-07-07T04:34:42Z</time>
      </trkpt>
      <trkpt lat="40.6827120" lon="-2.5938560">
        <ele>746.4</ele>
        <time>2019-07-07T04:34:43Z</time>
      </trkpt>
      <trkpt lat="40.6826860" lon="-2.5938010">
        <ele>746.4</ele>
        <time>2019-07-07T04:34:44Z</time>
      </trkpt>
      <trkpt lat="40.6826330" lon="-2.5936900">
        <ele>746.6</ele>
        <time>2019-07-07T04:34:46Z</time>
      </trkpt>
      <trkpt lat="40.6824100" lon="-2.5933080">
        <ele>747.2</ele>
        <time>2019-07-07T04:34:53Z</time>
      </trkpt>
      <trkpt lat="40.6821670" lon="-2.5931110">
        <ele>746.6</ele>
        <time>2019-07-07T04:34:58Z</time>
      </trkpt>
      <trkpt lat="40.6818090" lon="-2.5928160">
        <ele>746.0</ele>
        <time>2019-07-07T04:35:05Z</time>
      </trkpt>
      <trkpt lat="40.6815970" lon="-2.5926420">
        <ele>745.4</ele>
        <time>2019-07-07T04:35:09Z</time>
      </trkpt>
      <trkpt lat="40.6814790" lon="-2.5925860">
        <ele>745.2</ele>
        <time>2019-07-07T04:35:11Z</time>
      </trkpt>
      <trkpt lat="40.6812900" lon="-2.5925360">
        <ele>745.2</ele>
        <time>2019-07-07T04:35:14Z</time>
      </trkpt>
      <trkpt lat="40.6811050" lon="-2.5925220">
        <ele>745.2</ele>
        <time>2019-07-07T04:35:17Z</time>
      </trkpt>
      <trkpt lat="40.6810420" lon="-2.5925280">
        <ele>745.2</ele>
        <time>2019-07-07T04:35:18Z</time>
      </trkpt>
      <trkpt lat="40.6808030" lon="-2.5925820">
        <ele>745.2</ele>
        <time>2019-07-07T04:35:22Z</time>
      </trkpt>
      <trkpt lat="40.6806830" lon="-2.5926020">
        <ele>745.2</ele>
        <time>2019-07-07T04:35:24Z</time>
      </trkpt>
      <trkpt lat="40.6805040" lon="-2.5926480">
        <ele>745.0</ele>
        <time>2019-07-07T04:35:27Z</time>
      </trkpt>
      <trkpt lat="40.6801520" lon="-2.5927930">
        <ele>744.4</ele>
        <time>2019-07-07T04:35:33Z</time>
      </trkpt>
      <trkpt lat="40.6800930" lon="-2.5928250">
        <ele>744.4</ele>
        <time>2019-07-07T04:35:34Z</time>
      </trkpt>
      <trkpt lat="40.6796810" lon="-2.5930680">
        <ele>744.4</ele>
        <time>2019-07-07T04:35:41Z</time>
      </trkpt>
      <trkpt lat="40.6792700" lon="-2.5933400">
        <ele>743.6</ele>
        <time>2019-07-07T04:35:48Z</time>
      </trkpt>
      <trkpt lat="40.6792140" lon="-2.5933810">
        <ele>743.6</ele>
        <time>2019-07-07T04:35:49Z</time>
      </trkpt>
      <trkpt lat="40.6788420" lon="-2.5936490">
        <ele>743.8</ele>
        <time>2019-07-07T04:35:56Z</time>
      </trkpt>
      <trkpt lat="40.6785510" lon="-2.5938910">
        <ele>744.2</ele>
        <time>2019-07-07T04:36:02Z</time>
      </trkpt>
      <trkpt lat="40.6782740" lon="-2.5940890">
        <ele>744.4</ele>
        <time>2019-07-07T04:36:08Z</time>
      </trkpt>
      <trkpt lat="40.6781930" lon="-2.5941360">
        <ele>744.8</ele>
        <time>2019-07-07T04:36:10Z</time>
      </trkpt>
      <trkpt lat="40.6780610" lon="-2.5941700">
        <ele>745.2</ele>
        <time>2019-07-07T04:36:13Z</time>
      </trkpt>
      <trkpt lat="40.6778680" lon="-2.5942380">
        <ele>745.6</ele>
        <time>2019-07-07T04:36:17Z</time>
      </trkpt>
      <trkpt lat="40.6778240" lon="-2.5942720">
        <ele>745.6</ele>
        <time>2019-07-07T04:36:18Z</time>
      </trkpt>
      <trkpt lat="40.6777650" lon="-2.5944360">
        <ele>745.6</ele>
        <time>2019-07-07T04:36:21Z</time>
      </trkpt>
      <trkpt lat="40.6777710" lon="-2.5945680">
        <ele>745.6</ele>
        <time>2019-07-07T04:36:23Z</time>
      </trkpt>
      <trkpt lat="40.6777680" lon="-2.5948620">
        <ele>745.4</ele>
        <time>2019-07-07T04:36:27Z</time>
      </trkpt>
      <trkpt lat="40.6777440" lon="-2.5950930">
        <ele>745.0</ele>
        <time>2019-07-07T04:36:30Z</time>
      </trkpt>
      <trkpt lat="40.6777070" lon="-2.5954040">
        <ele>744.6</ele>
        <time>2019-07-07T04:36:34Z</time>
      </trkpt>
      <trkpt lat="40.6776480" lon="-2.5959030">
        <ele>744.0</ele>
        <time>2019-07-07T04:36:40Z</time>
      </trkpt>
      <trkpt lat="40.6776270" lon="-2.5960780">
        <ele>743.4</ele>
        <time>2019-07-07T04:36:42Z</time>
      </trkpt>
      <trkpt lat="40.6776010" lon="-2.5963470">
        <ele>742.8</ele>
        <time>2019-07-07T04:36:45Z</time>
      </trkpt>
      <trkpt lat="40.6775690" lon="-2.5966940">
        <ele>742.4</ele>
        <time>2019-07-07T04:36:49Z</time>
      </trkpt>
      <trkpt lat="40.6774910" lon="-2.5973990">
        <ele>742.0</ele>
        <time>2019-07-07T04:36:57Z</time>
      </trkpt>
      <trkpt lat="40.6774800" lon="-2.5974850">
        <ele>742.0</ele>
        <time>2019-07-07T04:36:58Z</time>
      </trkpt>
      <trkpt lat="40.6773640" lon="-2.5982440">
        <ele>741.4</ele>
        <time>2019-07-07T04:37:07Z</time>
      </trkpt>
      <trkpt lat="40.6772390" lon="-2.5987800">
        <ele>742.0</ele>
        <time>2019-07-07T04:37:14Z</time>
      </trkpt>
      <trkpt lat="40.6771840" lon="-2.5992280">
        <ele>742.4</ele>
        <time>2019-07-07T04:37:20Z</time>
      </trkpt>
      <trkpt lat="40.6771780" lon="-2.5993080">
        <ele>742.4</ele>
        <time>2019-07-07T04:37:21Z</time>
      </trkpt>
      <trkpt lat="40.6771270" lon="-2.5999700">
        <ele>741.4</ele>
        <time>2019-07-07T04:37:29Z</time>
      </trkpt>
      <trkpt lat="40.6770890" lon="-2.6005120">
        <ele>741.6</ele>
        <time>2019-07-07T04:37:36Z</time>
      </trkpt>
      <trkpt lat="40.6770790" lon="-2.6008900">
        <ele>741.6</ele>
        <time>2019-07-07T04:37:41Z</time>
      </trkpt>
      <trkpt lat="40.6770810" lon="-2.6010390">
        <ele>742.0</ele>
        <time>2019-07-07T04:37:43Z</time>
      </trkpt>
      <trkpt lat="40.6770990" lon="-2.6011910">
        <ele>742.2</ele>
        <time>2019-07-07T04:37:45Z</time>
      </trkpt>
      <trkpt lat="40.6771310" lon="-2.6014170">
        <ele>742.4</ele>
        <time>2019-07-07T04:37:48Z</time>
      </trkpt>
      <trkpt lat="40.6771760" lon="-2.6018690">
        <ele>742.2</ele>
        <time>2019-07-07T04:37:54Z</time>
      </trkpt>
      <trkpt lat="40.6771840" lon="-2.6022250">
        <ele>743.0</ele>
        <time>2019-07-07T04:37:59Z</time>
      </trkpt>
      <trkpt lat="40.6771800" lon="-2.6023640">
        <ele>743.0</ele>
        <time>2019-07-07T04:38:01Z</time>
      </trkpt>
      <trkpt lat="40.6772230" lon="-2.6029450">
        <ele>742.8</ele>
        <time>2019-07-07T04:38:09Z</time>
      </trkpt>
      <trkpt lat="40.6772780" lon="-2.6032900">
        <ele>743.6</ele>
        <time>2019-07-07T04:38:14Z</time>
      </trkpt>
      <trkpt lat="40.6772910" lon="-2.6033580">
        <ele>743.6</ele>
        <time>2019-07-07T04:38:15Z</time>
      </trkpt>
      <trkpt lat="40.6773170" lon="-2.6034890">
        <ele>743.6</ele>
        <time>2019-07-07T04:38:17Z</time>
      </trkpt>
      <trkpt lat="40.6773940" lon="-2.6037980">
        <ele>744.6</ele>
        <time>2019-07-07T04:38:22Z</time>
      </trkpt>
      <trkpt lat="40.6774420" lon="-2.6039180">
        <ele>744.6</ele>
        <time>2019-07-07T04:38:24Z</time>
      </trkpt>
      <trkpt lat="40.6774930" lon="-2.6040370">
        <ele>744.6</ele>
        <time>2019-07-07T04:38:26Z</time>
      </trkpt>
      <trkpt lat="40.6776070" lon="-2.6042650">
        <ele>744.4</ele>
        <time>2019-07-07T04:38:30Z</time>
      </trkpt>
      <trkpt lat="40.6777810" lon="-2.6046110">
        <ele>744.6</ele>
        <time>2019-07-07T04:38:36Z</time>
      </trkpt>
      <trkpt lat="40.6779330" lon="-2.6049740">
        <ele>744.8</ele>
        <time>2019-07-07T04:38:42Z</time>
      </trkpt>
      <trkpt lat="40.6780800" lon="-2.6052640">
        <ele>745.0</ele>
        <time>2019-07-07T04:38:47Z</time>
      </trkpt>
      <trkpt lat="40.6781730" lon="-2.6054300">
        <ele>744.8</ele>
        <time>2019-07-07T04:38:50Z</time>
      </trkpt>
      <trkpt lat="40.6784080" lon="-2.6058160">
        <ele>744.6</ele>
        <time>2019-07-07T04:38:57Z</time>
      </trkpt>
      <trkpt lat="40.6787270" lon="-2.6063390">
        <ele>744.6</ele>
        <time>2019-07-07T04:39:06Z</time>
      </trkpt>
      <trkpt lat="40.6789440" lon="-2.6066220">
        <ele>743.8</ele>
        <time>2019-07-07T04:39:11Z</time>
      </trkpt>
      <trkpt lat="40.6789940" lon="-2.6066800">
        <ele>743.6</ele>
        <time>2019-07-07T04:39:12Z</time>
      </trkpt>
      <trkpt lat="40.6791800" lon="-2.6069290">
        <ele>742.8</ele>
        <time>2019-07-07T04:39:16Z</time>
      </trkpt>
      <trkpt lat="40.6792630" lon="-2.6070650">
        <ele>742.6</ele>
        <time>2019-07-07T04:39:18Z</time>
      </trkpt>
      <trkpt lat="40.6793480" lon="-2.6071980">
        <ele>742.4</ele>
        <time>2019-07-07T04:39:20Z</time>
      </trkpt>
      <trkpt lat="40.6794380" lon="-2.6073150">
        <ele>741.8</ele>
        <time>2019-07-07T04:39:22Z</time>
      </trkpt>
      <trkpt lat="40.6795300" lon="-2.6074230">
        <ele>741.6</ele>
        <time>2019-07-07T04:39:24Z</time>
      </trkpt>
      <trkpt lat="40.6797490" lon="-2.6076680">
        <ele>742.0</ele>
        <time>2019-07-07T04:39:29Z</time>
      </trkpt>
      <trkpt lat="40.6798260" lon="-2.6077580">
        <ele>742.2</ele>
        <time>2019-07-07T04:39:31Z</time>
      </trkpt>
      <trkpt lat="40.6799360" lon="-2.6078900">
        <ele>743.2</ele>
        <time>2019-07-07T04:39:34Z</time>
      </trkpt>
      <trkpt lat="40.6800390" lon="-2.6079980">
        <ele>744.0</ele>
        <time>2019-07-07T04:39:37Z</time>
      </trkpt>
      <trkpt lat="40.6800770" lon="-2.6080300">
        <ele>744.4</ele>
        <time>2019-07-07T04:39:38Z</time>
      </trkpt>
      <trkpt lat="40.6802000" lon="-2.6081190">
        <ele>744.8</ele>
        <time>2019-07-07T04:39:41Z</time>
      </trkpt>
      <trkpt lat="40.6803460" lon="-2.6081800">
        <ele>744.6</ele>
        <time>2019-07-07T04:39:44Z</time>
      </trkpt>
      <trkpt lat="40.6805330" lon="-2.6082240">
        <ele>743.8</ele>
        <time>2019-07-07T04:39:47Z</time>
      </trkpt>
      <trkpt lat="40.6806020" lon="-2.6082560">
        <ele>743.4</ele>
        <time>2019-07-07T04:39:48Z</time>
      </trkpt>
      <trkpt lat="40.6806700" lon="-2.6083040">
        <ele>743.0</ele>
        <time>2019-07-07T04:39:49Z</time>
      </trkpt>
      <trkpt lat="40.6807850" lon="-2.6084230">
        <ele>742.4</ele>
        <time>2019-07-07T04:39:51Z</time>
      </trkpt>
      <trkpt lat="40.6808810" lon="-2.6085320">
        <ele>741.8</ele>
        <time>2019-07-07T04:39:53Z</time>
      </trkpt>
      <trkpt lat="40.6810110" lon="-2.6086680">
        <ele>742.0</ele>
        <time>2019-07-07T04:39:56Z</time>
      </trkpt>
      <trkpt lat="40.6812250" lon="-2.6087950">
        <ele>741.8</ele>
        <time>2019-07-07T04:40:00Z</time>
      </trkpt>
      <trkpt lat="40.6813320" lon="-2.6089080">
        <ele>740.8</ele>
        <time>2019-07-07T04:40:02Z</time>
      </trkpt>
      <trkpt lat="40.6813840" lon="-2.6089710">
        <ele>740.6</ele>
        <time>2019-07-07T04:40:03Z</time>
      </trkpt>
      <trkpt lat="40.6814770" lon="-2.6090980">
        <ele>740.2</ele>
        <time>2019-07-07T04:40:05Z</time>
      </trkpt>
      <trkpt lat="40.6816070" lon="-2.6092800">
        <ele>739.8</ele>
        <time>2019-07-07T04:40:08Z</time>
      </trkpt>
      <trkpt lat="40.6816890" lon="-2.6093930">
        <ele>740.0</ele>
        <time>2019-07-07T04:40:10Z</time>
      </trkpt>
      <trkpt lat="40.6817660" lon="-2.6095000">
        <ele>740.0</ele>
        <time>2019-07-07T04:40:12Z</time>
      </trkpt>
      <trkpt lat="40.6819660" lon="-2.6097970">
        <ele>740.8</ele>
        <time>2019-07-07T04:40:18Z</time>
      </trkpt>
      <trkpt lat="40.6819990" lon="-2.6098420">
        <ele>741.0</ele>
        <time>2019-07-07T04:40:19Z</time>
      </trkpt>
      <trkpt lat="40.6821670" lon="-2.6100750">
        <ele>741.4</ele>
        <time>2019-07-07T04:40:24Z</time>
      </trkpt>
      <trkpt lat="40.6822470" lon="-2.6101750">
        <ele>741.2</ele>
        <time>2019-07-07T04:40:26Z</time>
      </trkpt>
      <trkpt lat="40.6824830" lon="-2.6105070">
        <ele>741.0</ele>
        <time>2019-07-07T04:40:32Z</time>
      </trkpt>
      <trkpt lat="40.6825570" lon="-2.6106170">
        <ele>741.0</ele>
        <time>2019-07-07T04:40:34Z</time>
      </trkpt>
      <trkpt lat="40.6828210" lon="-2.6109940">
        <ele>741.2</ele>
        <time>2019-07-07T04:40:41Z</time>
      </trkpt>
      <trkpt lat="40.6829510" lon="-2.6111550">
        <ele>741.0</ele>
        <time>2019-07-07T04:40:44Z</time>
      </trkpt>
      <trkpt lat="40.6830260" lon="-2.6112840">
        <ele>741.0</ele>
        <time>2019-07-07T04:40:46Z</time>
      </trkpt>
      <trkpt lat="40.6832840" lon="-2.6118100">
        <ele>740.8</ele>
        <time>2019-07-07T04:40:54Z</time>
      </trkpt>
      <trkpt lat="40.6835340" lon="-2.6124450">
        <ele>740.6</ele>
        <time>2019-07-07T04:41:03Z</time>
      </trkpt>
      <trkpt lat="40.6835990" lon="-2.6126660">
        <ele>740.4</ele>
        <time>2019-07-07T04:41:06Z</time>
      </trkpt>
      <trkpt lat="40.6836130" lon="-2.6128220">
        <ele>740.4</ele>
        <time>2019-07-07T04:41:08Z</time>
      </trkpt>
      <trkpt lat="40.6836120" lon="-2.6128990">
        <ele>740.2</ele>
        <time>2019-07-07T04:41:09Z</time>
      </trkpt>
      <trkpt lat="40.6836070" lon="-2.6129760">
        <ele>740.2</ele>
        <time>2019-07-07T04:41:10Z</time>
      </trkpt>
      <trkpt lat="40.6835670" lon="-2.6132740">
        <ele>740.4</ele>
        <time>2019-07-07T04:41:14Z</time>
      </trkpt>
      <trkpt lat="40.6834550" lon="-2.6138730">
        <ele>740.4</ele>
        <time>2019-07-07T04:41:22Z</time>
      </trkpt>
      <trkpt lat="40.6833130" lon="-2.6146270">
        <ele>740.2</ele>
        <time>2019-07-07T04:41:32Z</time>
      </trkpt>
      <trkpt lat="40.6831190" lon="-2.6153560">
        <ele>740.6</ele>
        <time>2019-07-07T04:41:42Z</time>
      </trkpt>
      <trkpt lat="40.6829340" lon="-2.6158360">
        <ele>740.2</ele>
        <time>2019-07-07T04:41:49Z</time>
      </trkpt>
      <trkpt lat="40.6826870" lon="-2.6162610">
        <ele>740.4</ele>
        <time>2019-07-07T04:41:56Z</time>
      </trkpt>
      <trkpt lat="40.6826470" lon="-2.6163160">
        <ele>740.2</ele>
        <time>2019-07-07T04:41:57Z</time>
      </trkpt>
      <trkpt lat="40.6823230" lon="-2.6166520">
        <ele>740.6</ele>
        <time>2019-07-07T04:42:04Z</time>
      </trkpt>
      <trkpt lat="40.6820590" lon="-2.6168230">
        <ele>740.4</ele>
        <time>2019-07-07T04:42:09Z</time>
      </trkpt>
      <trkpt lat="40.6820110" lon="-2.6168680">
        <ele>740.4</ele>
        <time>2019-07-07T04:42:10Z</time>
      </trkpt>
      <trkpt lat="40.6819130" lon="-2.6169540">
        <ele>740.6</ele>
        <time>2019-07-07T04:42:12Z</time>
      </trkpt>
      <trkpt lat="40.6817550" lon="-2.6170470">
        <ele>740.6</ele>
        <time>2019-07-07T04:42:15Z</time>
      </trkpt>
      <trkpt lat="40.6816450" lon="-2.6170950">
        <ele>740.4</ele>
        <time>2019-07-07T04:42:17Z</time>
      </trkpt>
      <trkpt lat="40.6814120" lon="-2.6171590">
        <ele>740.2</ele>
        <time>2019-07-07T04:42:21Z</time>
      </trkpt>
      <trkpt lat="40.6810610" lon="-2.6171930">
        <ele>740.4</ele>
        <time>2019-07-07T04:42:27Z</time>
      </trkpt>
      <trkpt lat="40.6806940" lon="-2.6171360">
        <ele>740.0</ele>
        <time>2019-07-07T04:42:33Z</time>
      </trkpt>
      <trkpt lat="40.6805120" lon="-2.6170970">
        <ele>739.8</ele>
        <time>2019-07-07T04:42:36Z</time>
      </trkpt>
      <trkpt lat="40.6803340" lon="-2.6170190">
        <ele>740.0</ele>
        <time>2019-07-07T04:42:39Z</time>
      </trkpt>
      <trkpt lat="40.6802790" lon="-2.6169800">
        <ele>740.0</ele>
        <time>2019-07-07T04:42:40Z</time>
      </trkpt>
      <trkpt lat="40.6801280" lon="-2.6168090">
        <ele>739.8</ele>
        <time>2019-07-07T04:42:43Z</time>
      </trkpt>
      <trkpt lat="40.6800810" lon="-2.6167480">
        <ele>739.8</ele>
        <time>2019-07-07T04:42:44Z</time>
      </trkpt>
      <trkpt lat="40.6798330" lon="-2.6163480">
        <ele>740.0</ele>
        <time>2019-07-07T04:42:50Z</time>
      </trkpt>
      <trkpt lat="40.6796670" lon="-2.6160760">
        <ele>739.6</ele>
        <time>2019-07-07T04:42:54Z</time>
      </trkpt>
      <trkpt lat="40.6794400" lon="-2.6156620">
        <ele>739.4</ele>
        <time>2019-07-07T04:43:00Z</time>
      </trkpt>
      <trkpt lat="40.6792180" lon="-2.6150970">
        <ele>739.8</ele>
        <time>2019-07-07T04:43:08Z</time>
      </trkpt>
      <trkpt lat="40.6790490" lon="-2.6146050">
        <ele>740.4</ele>
        <time>2019-07-07T04:43:15Z</time>
      </trkpt>
      <trkpt lat="40.6789410" lon="-2.6141440">
        <ele>740.2</ele>
        <time>2019-07-07T04:43:21Z</time>
      </trkpt>
      <trkpt lat="40.6788760" lon="-2.6136150">
        <ele>740.6</ele>
        <time>2019-07-07T04:43:28Z</time>
      </trkpt>
      <trkpt lat="40.6787790" lon="-2.6130780">
        <ele>740.8</ele>
        <time>2019-07-07T04:43:35Z</time>
      </trkpt>
      <trkpt lat="40.6786410" lon="-2.6126290">
        <ele>740.6</ele>
        <time>2019-07-07T04:43:41Z</time>
      </trkpt>
      <trkpt lat="40.6784240" lon="-2.6121200">
        <ele>740.6</ele>
        <time>2019-07-07T04:43:48Z</time>
      </trkpt>
      <trkpt lat="40.6782490" lon="-2.6118640">
        <ele>740.4</ele>
        <time>2019-07-07T04:43:52Z</time>
      </trkpt>
      <trkpt lat="40.6782040" lon="-2.6118100">
        <ele>740.4</ele>
        <time>2019-07-07T04:43:53Z</time>
      </trkpt>
      <trkpt lat="40.6779230" lon="-2.6115170">
        <ele>740.2</ele>
        <time>2019-07-07T04:43:59Z</time>
      </trkpt>
      <trkpt lat="40.6775240" lon="-2.6111480">
        <ele>740.4</ele>
        <time>2019-07-07T04:44:07Z</time>
      </trkpt>
      <trkpt lat="40.6772420" lon="-2.6109560">
        <ele>740.2</ele>
        <time>2019-07-07T04:44:12Z</time>
      </trkpt>
      <trkpt lat="40.6768730" lon="-2.6107760">
        <ele>739.8</ele>
        <time>2019-07-07T04:44:18Z</time>
      </trkpt>
      <trkpt lat="40.6766980" lon="-2.6107460">
        <ele>740.0</ele>
        <time>2019-07-07T04:44:21Z</time>
      </trkpt>
      <trkpt lat="40.6764720" lon="-2.6107550">
        <ele>740.4</ele>
        <time>2019-07-07T04:44:25Z</time>
      </trkpt>
      <trkpt lat="40.6761430" lon="-2.6107850">
        <ele>740.8</ele>
        <time>2019-07-07T04:44:31Z</time>
      </trkpt>
      <trkpt lat="40.6760920" lon="-2.6107810">
        <ele>741.0</ele>
        <time>2019-07-07T04:44:32Z</time>
      </trkpt>
      <trkpt lat="40.6760010" lon="-2.6107720">
        <ele>741.4</ele>
        <time>2019-07-07T04:44:34Z</time>
      </trkpt>
      <trkpt lat="40.6759260" lon="-2.6107800">
        <ele>742.2</ele>
        <time>2019-07-07T04:44:36Z</time>
      </trkpt>
      <trkpt lat="40.6758490" lon="-2.6108030">
        <ele>743.0</ele>
        <time>2019-07-07T04:44:38Z</time>
      </trkpt>
      <trkpt lat="40.6758080" lon="-2.6108190">
        <ele>743.2</ele>
        <time>2019-07-07T04:44:39Z</time>
      </trkpt>
      <trkpt lat="40.6757200" lon="-2.6108550">
        <ele>743.6</ele>
        <time>2019-07-07T04:44:41Z</time>
      </trkpt>
      <trkpt lat="40.6755830" lon="-2.6109430">
        <ele>744.0</ele>
        <time>2019-07-07T04:44:44Z</time>
      </trkpt>
      <trkpt lat="40.6755400" lon="-2.6109750">
        <ele>744.0</ele>
        <time>2019-07-07T04:44:45Z</time>
      </trkpt>
      <trkpt lat="40.6754540" lon="-2.6110350">
        <ele>744.4</ele>
        <time>2019-07-07T04:44:47Z</time>
      </trkpt>
      <trkpt lat="40.6753240" lon="-2.6111540">
        <ele>744.6</ele>
        <time>2019-07-07T04:44:50Z</time>
      </trkpt>
      <trkpt lat="40.6752350" lon="-2.6112720">
        <ele>744.6</ele>
        <time>2019-07-07T04:44:52Z</time>
      </trkpt>
      <trkpt lat="40.6750800" lon="-2.6114960">
        <ele>743.0</ele>
        <time>2019-07-07T04:44:55Z</time>
      </trkpt>
      <trkpt lat="40.6749640" lon="-2.6116690">
        <ele>741.8</ele>
        <time>2019-07-07T04:44:57Z</time>
      </trkpt>
      <trkpt lat="40.6748460" lon="-2.6118440">
        <ele>740.2</ele>
        <time>2019-07-07T04:44:59Z</time>
      </trkpt>
      <trkpt lat="40.6746800" lon="-2.6120960">
        <ele>739.4</ele>
        <time>2019-07-07T04:45:02Z</time>
      </trkpt>
      <trkpt lat="40.6745860" lon="-2.6122400">
        <ele>739.4</ele>
        <time>2019-07-07T04:45:04Z</time>
      </trkpt>
      <trkpt lat="40.6744340" lon="-2.6124860">
        <ele>740.4</ele>
        <time>2019-07-07T04:45:08Z</time>
      </trkpt>
      <trkpt lat="40.6743740" lon="-2.6126050">
        <ele>741.0</ele>
        <time>2019-07-07T04:45:10Z</time>
      </trkpt>
      <trkpt lat="40.6742110" lon="-2.6130140">
        <ele>741.0</ele>
        <time>2019-07-07T04:45:16Z</time>
      </trkpt>
      <trkpt lat="40.6740890" lon="-2.6132760">
        <ele>740.8</ele>
        <time>2019-07-07T04:45:20Z</time>
      </trkpt>
      <trkpt lat="40.6740630" lon="-2.6133300">
        <ele>740.8</ele>
        <time>2019-07-07T04:45:21Z</time>
      </trkpt>
      <trkpt lat="40.6739900" lon="-2.6135100">
        <ele>741.2</ele>
        <time>2019-07-07T04:45:24Z</time>
      </trkpt>
      <trkpt lat="40.6739370" lon="-2.6136540">
        <ele>740.8</ele>
        <time>2019-07-07T04:45:26Z</time>
      </trkpt>
      <trkpt lat="40.6736930" lon="-2.6143410">
        <ele>739.8</ele>
        <time>2019-07-07T04:45:35Z</time>
      </trkpt>
      <trkpt lat="40.6735790" lon="-2.6146340">
        <ele>739.4</ele>
        <time>2019-07-07T04:45:39Z</time>
      </trkpt>
      <trkpt lat="40.6734270" lon="-2.6150640">
        <ele>738.8</ele>
        <time>2019-07-07T04:45:45Z</time>
      </trkpt>
      <trkpt lat="40.6732450" lon="-2.6154690">
        <ele>739.2</ele>
        <time>2019-07-07T04:45:51Z</time>
      </trkpt>
      <trkpt lat="40.6729640" lon="-2.6159290">
        <ele>739.6</ele>
        <time>2019-07-07T04:45:59Z</time>
      </trkpt>
      <trkpt lat="40.6728570" lon="-2.6160920">
        <ele>739.8</ele>
        <time>2019-07-07T04:46:02Z</time>
      </trkpt>
      <trkpt lat="40.6727360" lon="-2.6162430">
        <ele>739.8</ele>
        <time>2019-07-07T04:46:05Z</time>
      </trkpt>
      <trkpt lat="40.6724990" lon="-2.6164090">
        <ele>740.0</ele>
        <time>2019-07-07T04:46:10Z</time>
      </trkpt>
      <trkpt lat="40.6724480" lon="-2.6164310">
        <ele>740.0</ele>
        <time>2019-07-07T04:46:11Z</time>
      </trkpt>
      <trkpt lat="40.6722310" lon="-2.6164870">
        <ele>740.4</ele>
        <time>2019-07-07T04:46:15Z</time>
      </trkpt>
      <trkpt lat="40.6721760" lon="-2.6164820">
        <ele>740.2</ele>
        <time>2019-07-07T04:46:16Z</time>
      </trkpt>
      <trkpt lat="40.6720490" lon="-2.6163990">
        <ele>740.6</ele>
        <time>2019-07-07T04:46:19Z</time>
      </trkpt>
      <trkpt lat="40.6720130" lon="-2.6163250">
        <ele>741.0</ele>
        <time>2019-07-07T04:46:21Z</time>
      </trkpt>
      <trkpt lat="40.6719890" lon="-2.6162630">
        <ele>742.2</ele>
        <time>2019-07-07T04:46:23Z</time>
      </trkpt>
      <trkpt lat="40.6719770" lon="-2.6162330">
        <ele>742.6</ele>
        <time>2019-07-07T04:46:24Z</time>
      </trkpt>
      <trkpt lat="40.6719370" lon="-2.6161370">
        <ele>743.6</ele>
        <time>2019-07-07T04:46:27Z</time>
      </trkpt>
      <trkpt lat="40.6718990" lon="-2.6160470">
        <ele>744.8</ele>
        <time>2019-07-07T04:46:30Z</time>
      </trkpt>
      <trkpt lat="40.6718660" lon="-2.6159570">
        <ele>745.8</ele>
        <time>2019-07-07T04:46:33Z</time>
      </trkpt>
      <trkpt lat="40.6718550" lon="-2.6159290">
        <ele>746.0</ele>
        <time>2019-07-07T04:46:34Z</time>
      </trkpt>
      <trkpt lat="40.6718110" lon="-2.6158530">
        <ele>747.2</ele>
        <time>2019-07-07T04:46:37Z</time>
      </trkpt>
      <trkpt lat="40.6717770" lon="-2.6158120">
        <ele>748.2</ele>
        <time>2019-07-07T04:46:39Z</time>
      </trkpt>
      <trkpt lat="40.6717390" lon="-2.6157820">
        <ele>749.0</ele>
        <time>2019-07-07T04:46:41Z</time>
      </trkpt>
      <trkpt lat="40.6717210" lon="-2.6157690">
        <ele>749.4</ele>
        <time>2019-07-07T04:46:42Z</time>
      </trkpt>
      <trkpt lat="40.6716730" lon="-2.6157350">
        <ele>750.4</ele>
        <time>2019-07-07T04:46:45Z</time>
      </trkpt>
      <trkpt lat="40.6716560" lon="-2.6157280">
        <ele>750.8</ele>
        <time>2019-07-07T04:46:46Z</time>
      </trkpt>
      <trkpt lat="40.6716380" lon="-2.6157240">
        <ele>751.0</ele>
        <time>2019-07-07T04:46:47Z</time>
      </trkpt>
      <trkpt lat="40.6715670" lon="-2.6156920">
        <ele>752.2</ele>
        <time>2019-07-07T04:46:51Z</time>
      </trkpt>
      <trkpt lat="40.6715430" lon="-2.6156880">
        <ele>752.4</ele>
        <time>2019-07-07T04:46:52Z</time>
      </trkpt>
      <trkpt lat="40.6714220" lon="-2.6155840">
        <ele>752.8</ele>
        <time>2019-07-07T04:46:57Z</time>
      </trkpt>
      <trkpt lat="40.6713240" lon="-2.6153170">
        <ele>752.2</ele>
        <time>2019-07-07T04:47:02Z</time>
      </trkpt>
      <trkpt lat="40.6713070" lon="-2.6152480">
        <ele>751.8</ele>
        <time>2019-07-07T04:47:03Z</time>
      </trkpt>
      <trkpt lat="40.6712710" lon="-2.6150320">
        <ele>751.0</ele>
        <time>2019-07-07T04:47:06Z</time>
      </trkpt>
      <trkpt lat="40.6712590" lon="-2.6149580">
        <ele>750.8</ele>
        <time>2019-07-07T04:47:07Z</time>
      </trkpt>
      <trkpt lat="40.6712380" lon="-2.6147260">
        <ele>749.8</ele>
        <time>2019-07-07T04:47:10Z</time>
      </trkpt>
      <trkpt lat="40.6712150" lon="-2.6145550">
        <ele>748.8</ele>
        <time>2019-07-07T04:47:12Z</time>
      </trkpt>
      <trkpt lat="40.6711950" lon="-2.6144620">
        <ele>748.2</ele>
        <time>2019-07-07T04:47:13Z</time>
      </trkpt>
      <trkpt lat="40.6711730" lon="-2.6143690">
        <ele>747.4</ele>
        <time>2019-07-07T04:47:14Z</time>
      </trkpt>
      <trkpt lat="40.6711190" lon="-2.6141890">
        <ele>745.8</ele>
        <time>2019-07-07T04:47:16Z</time>
      </trkpt>
      <trkpt lat="40.6710540" lon="-2.6139990">
        <ele>744.6</ele>
        <time>2019-07-07T04:47:18Z</time>
      </trkpt>
      <trkpt lat="40.6709950" lon="-2.6138120">
        <ele>743.4</ele>
        <time>2019-07-07T04:47:20Z</time>
      </trkpt>
      <trkpt lat="40.6709520" lon="-2.6136350">
        <ele>743.2</ele>
        <time>2019-07-07T04:47:22Z</time>
      </trkpt>
      <trkpt lat="40.6709360" lon="-2.6135520">
        <ele>743.0</ele>
        <time>2019-07-07T04:47:23Z</time>
      </trkpt>
      <trkpt lat="40.6708660" lon="-2.6131320">
        <ele>743.4</ele>
        <time>2019-07-07T04:47:29Z</time>
      </trkpt>
      <trkpt lat="40.6708490" lon="-2.6130130">
        <ele>743.8</ele>
        <time>2019-07-07T04:47:31Z</time>
      </trkpt>
      <trkpt lat="40.6708390" lon="-2.6127460">
        <ele>744.0</ele>
        <time>2019-07-07T04:47:35Z</time>
      </trkpt>
      <trkpt lat="40.6708690" lon="-2.6124380">
        <ele>743.8</ele>
        <time>2019-07-07T04:47:39Z</time>
      </trkpt>
      <trkpt lat="40.6708820" lon="-2.6122860">
        <ele>743.8</ele>
        <time>2019-07-07T04:47:41Z</time>
      </trkpt>
      <trkpt lat="40.6709010" lon="-2.6119860">
        <ele>743.2</ele>
        <time>2019-07-07T04:47:45Z</time>
      </trkpt>
      <trkpt lat="40.6709450" lon="-2.6117730">
        <ele>742.8</ele>
        <time>2019-07-07T04:47:48Z</time>
      </trkpt>
      <trkpt lat="40.6709590" lon="-2.6117010">
        <ele>742.6</ele>
        <time>2019-07-07T04:47:49Z</time>
      </trkpt>
      <trkpt lat="40.6709940" lon="-2.6112930">
        <ele>741.4</ele>
        <time>2019-07-07T04:47:54Z</time>
      </trkpt>
      <trkpt lat="40.6710490" lon="-2.6109360">
        <ele>740.0</ele>
        <time>2019-07-07T04:47:58Z</time>
      </trkpt>
      <trkpt lat="40.6710650" lon="-2.6108520">
        <ele>739.6</ele>
        <time>2019-07-07T04:47:59Z</time>
      </trkpt>
      <trkpt lat="40.6711930" lon="-2.6102910">
        <ele>739.6</ele>
        <time>2019-07-07T04:48:06Z</time>
      </trkpt>
      <trkpt lat="40.6713240" lon="-2.6098690">
        <ele>740.0</ele>
        <time>2019-07-07T04:48:12Z</time>
      </trkpt>
      <trkpt lat="40.6713940" lon="-2.6096540">
        <ele>740.0</ele>
        <time>2019-07-07T04:48:15Z</time>
      </trkpt>
      <trkpt lat="40.6716180" lon="-2.6089870">
        <ele>739.0</ele>
        <time>2019-07-07T04:48:24Z</time>
      </trkpt>
      <trkpt lat="40.6718310" lon="-2.6084110">
        <ele>739.4</ele>
        <time>2019-07-07T04:48:32Z</time>
      </trkpt>
      <trkpt lat="40.6720380" lon="-2.6078540">
        <ele>739.8</ele>
        <time>2019-07-07T04:48:40Z</time>
      </trkpt>
      <trkpt lat="40.6722110" lon="-2.6073350">
        <ele>739.4</ele>
        <time>2019-07-07T04:48:47Z</time>
      </trkpt>
      <trkpt lat="40.6723540" lon="-2.6067670">
        <ele>740.2</ele>
        <time>2019-07-07T04:48:55Z</time>
      </trkpt>
      <trkpt lat="40.6725170" lon="-2.6062640">
        <ele>741.0</ele>
        <time>2019-07-07T04:49:03Z</time>
      </trkpt>
      <trkpt lat="40.6725370" lon="-2.6062100">
        <ele>741.4</ele>
        <time>2019-07-07T04:49:04Z</time>
      </trkpt>
      <trkpt lat="40.6726100" lon="-2.6060490">
        <ele>742.2</ele>
        <time>2019-07-07T04:49:07Z</time>
      </trkpt>
      <trkpt lat="40.6726600" lon="-2.6059210">
        <ele>742.2</ele>
        <time>2019-07-07T04:49:09Z</time>
      </trkpt>
      <trkpt lat="40.6726800" lon="-2.6058470">
        <ele>742.2</ele>
        <time>2019-07-07T04:49:10Z</time>
      </trkpt>
      <trkpt lat="40.6727670" lon="-2.6055250">
        <ele>741.2</ele>
        <time>2019-07-07T04:49:14Z</time>
      </trkpt>
      <trkpt lat="40.6728610" lon="-2.6051330">
        <ele>740.6</ele>
        <time>2019-07-07T04:49:19Z</time>
      </trkpt>
      <trkpt lat="40.6728810" lon="-2.6050740">
        <ele>740.8</ele>
        <time>2019-07-07T04:49:20Z</time>
      </trkpt>
      <trkpt lat="40.6729440" lon="-2.6049840">
        <ele>741.0</ele>
        <time>2019-07-07T04:49:22Z</time>
      </trkpt>
      <trkpt lat="40.6730110" lon="-2.6048860">
        <ele>741.4</ele>
        <time>2019-07-07T04:49:24Z</time>
      </trkpt>
      <trkpt lat="40.6730770" lon="-2.6047060">
        <ele>727.8</ele>
        <time>2019-07-07T04:49:27Z</time>
      </trkpt>
      <trkpt lat="40.6731300" lon="-2.6043840">
        <ele>742.4</ele>
        <time>2019-07-07T04:49:32Z</time>
      </trkpt>
      <trkpt lat="40.6731340" lon="-2.6043200">
        <ele>742.6</ele>
        <time>2019-07-07T04:49:33Z</time>
      </trkpt>
      <trkpt lat="40.6731490" lon="-2.6038910">
        <ele>743.0</ele>
        <time>2019-07-07T04:49:39Z</time>
      </trkpt>
      <trkpt lat="40.6731470" lon="-2.6038130">
        <ele>743.0</ele>
        <time>2019-07-07T04:49:40Z</time>
      </trkpt>
      <trkpt lat="40.6731260" lon="-2.6032670">
        <ele>742.8</ele>
        <time>2019-07-07T04:49:47Z</time>
      </trkpt>
      <trkpt lat="40.6730960" lon="-2.6029040">
        <ele>741.6</ele>
        <time>2019-07-07T04:49:51Z</time>
      </trkpt>
      <trkpt lat="40.6730900" lon="-2.6028070">
        <ele>741.2</ele>
        <time>2019-07-07T04:49:52Z</time>
      </trkpt>
      <trkpt lat="40.6730830" lon="-2.6026200">
        <ele>740.4</ele>
        <time>2019-07-07T04:49:54Z</time>
      </trkpt>
      <trkpt lat="40.6730730" lon="-2.6024430">
        <ele>740.2</ele>
        <time>2019-07-07T04:49:56Z</time>
      </trkpt>
      <trkpt lat="40.6730670" lon="-2.6023590">
        <ele>740.2</ele>
        <time>2019-07-07T04:49:57Z</time>
      </trkpt>
      <trkpt lat="40.6730570" lon="-2.6022790">
        <ele>740.2</ele>
        <time>2019-07-07T04:49:58Z</time>
      </trkpt>
      <trkpt lat="40.6730240" lon="-2.6020570">
        <ele>740.4</ele>
        <time>2019-07-07T04:50:01Z</time>
      </trkpt>
      <trkpt lat="40.6729800" lon="-2.6018490">
        <ele>740.6</ele>
        <time>2019-07-07T04:50:04Z</time>
      </trkpt>
      <trkpt lat="40.6728960" lon="-2.6015360">
        <ele>740.6</ele>
        <time>2019-07-07T04:50:08Z</time>
      </trkpt>
      <trkpt lat="40.6728470" lon="-2.6013820">
        <ele>740.2</ele>
        <time>2019-07-07T04:50:10Z</time>
      </trkpt>
      <trkpt lat="40.6726410" lon="-2.6008450">
        <ele>739.8</ele>
        <time>2019-07-07T04:50:17Z</time>
      </trkpt>
      <trkpt lat="40.6725900" lon="-2.6006990">
        <ele>739.4</ele>
        <time>2019-07-07T04:50:19Z</time>
      </trkpt>
      <trkpt lat="40.6725500" lon="-2.6004920">
        <ele>739.8</ele>
        <time>2019-07-07T04:50:22Z</time>
      </trkpt>
      <trkpt lat="40.6725300" lon="-2.6003350">
        <ele>740.4</ele>
        <time>2019-07-07T04:50:25Z</time>
      </trkpt>
      <trkpt lat="40.6725170" lon="-2.6002530">
        <ele>741.2</ele>
        <time>2019-07-07T04:50:27Z</time>
      </trkpt>
      <trkpt lat="40.6725090" lon="-2.6002120">
        <ele>741.4</ele>
        <time>2019-07-07T04:50:28Z</time>
      </trkpt>
      <trkpt lat="40.6724530" lon="-2.5999540">
        <ele>742.4</ele>
        <time>2019-07-07T04:50:33Z</time>
      </trkpt>
      <trkpt lat="40.6722780" lon="-2.5993530">
        <ele>742.0</ele>
        <time>2019-07-07T04:50:42Z</time>
      </trkpt>
      <trkpt lat="40.6721210" lon="-2.5990030">
        <ele>741.0</ele>
        <time>2019-07-07T04:50:47Z</time>
      </trkpt>
      <trkpt lat="40.6720420" lon="-2.5988730">
        <ele>740.8</ele>
        <time>2019-07-07T04:50:49Z</time>
      </trkpt>
      <trkpt lat="40.6720030" lon="-2.5988060">
        <ele>740.6</ele>
        <time>2019-07-07T04:50:50Z</time>
      </trkpt>
      <trkpt lat="40.6718600" lon="-2.5984680">
        <ele>740.6</ele>
        <time>2019-07-07T04:50:55Z</time>
      </trkpt>
      <trkpt lat="40.6716990" lon="-2.5980870">
        <ele>741.2</ele>
        <time>2019-07-07T04:51:01Z</time>
      </trkpt>
      <trkpt lat="40.6715880" lon="-2.5978020">
        <ele>740.8</ele>
        <time>2019-07-07T04:51:05Z</time>
      </trkpt>
      <trkpt lat="40.6715510" lon="-2.5977310">
        <ele>740.8</ele>
        <time>2019-07-07T04:51:06Z</time>
      </trkpt>
      <trkpt lat="40.6714570" lon="-2.5976140">
        <ele>740.4</ele>
        <time>2019-07-07T04:51:08Z</time>
      </trkpt>
      <trkpt lat="40.6713680" lon="-2.5975410">
        <ele>740.4</ele>
        <time>2019-07-07T04:51:10Z</time>
      </trkpt>
      <trkpt lat="40.6712800" lon="-2.5974770">
        <ele>740.4</ele>
        <time>2019-07-07T04:51:12Z</time>
      </trkpt>
      <trkpt lat="40.6711310" lon="-2.5974090">
        <ele>740.8</ele>
        <time>2019-07-07T04:51:15Z</time>
      </trkpt>
      <trkpt lat="40.6710840" lon="-2.5973880">
        <ele>740.8</ele>
        <time>2019-07-07T04:51:16Z</time>
      </trkpt>
      <trkpt lat="40.6707390" lon="-2.5972090">
        <ele>741.2</ele>
        <time>2019-07-07T04:51:23Z</time>
      </trkpt>
      <trkpt lat="40.6705420" lon="-2.5970650">
        <ele>741.0</ele>
        <time>2019-07-07T04:51:27Z</time>
      </trkpt>
      <trkpt lat="40.6704700" lon="-2.5969560">
        <ele>741.0</ele>
        <time>2019-07-07T04:51:29Z</time>
      </trkpt>
      <trkpt lat="40.6704160" lon="-2.5968320">
        <ele>741.2</ele>
        <time>2019-07-07T04:51:31Z</time>
      </trkpt>
      <trkpt lat="40.6703860" lon="-2.5967710">
        <ele>741.2</ele>
        <time>2019-07-07T04:51:32Z</time>
      </trkpt>
      <trkpt lat="40.6702940" lon="-2.5966880">
        <ele>741.0</ele>
        <time>2019-07-07T04:51:34Z</time>
      </trkpt>
      <trkpt lat="40.6700540" lon="-2.5966820">
        <ele>740.6</ele>
        <time>2019-07-07T04:51:38Z</time>
      </trkpt>
      <trkpt lat="40.6696530" lon="-2.5966960">
        <ele>741.0</ele>
        <time>2019-07-07T04:51:45Z</time>
      </trkpt>
      <trkpt lat="40.6695970" lon="-2.5966920">
        <ele>741.2</ele>
        <time>2019-07-07T04:51:46Z</time>
      </trkpt>
      <trkpt lat="40.6692560" lon="-2.5967560">
        <ele>741.6</ele>
        <time>2019-07-07T04:51:52Z</time>
      </trkpt>
      <trkpt lat="40.6690860" lon="-2.5967820">
        <ele>741.8</ele>
        <time>2019-07-07T04:51:55Z</time>
      </trkpt>
      <trkpt lat="40.6689820" lon="-2.5967400">
        <ele>741.8</ele>
        <time>2019-07-07T04:51:57Z</time>
      </trkpt>
      <trkpt lat="40.6688930" lon="-2.5966530">
        <ele>742.0</ele>
        <time>2019-07-07T04:51:59Z</time>
      </trkpt>
      <trkpt lat="40.6688090" lon="-2.5965700">
        <ele>742.0</ele>
        <time>2019-07-07T04:52:01Z</time>
      </trkpt>
      <trkpt lat="40.6687630" lon="-2.5965410">
        <ele>742.0</ele>
        <time>2019-07-07T04:52:02Z</time>
      </trkpt>
      <trkpt lat="40.6686420" lon="-2.5965560">
        <ele>742.0</ele>
        <time>2019-07-07T04:52:05Z</time>
      </trkpt>
      <trkpt lat="40.6686150" lon="-2.5967080">
        <ele>742.0</ele>
        <time>2019-07-07T04:52:08Z</time>
      </trkpt>
      <trkpt lat="40.6686360" lon="-2.5968290">
        <ele>742.0</ele>
        <time>2019-07-07T04:52:10Z</time>
      </trkpt>
      <trkpt lat="40.6686600" lon="-2.5970330">
        <ele>742.0</ele>
        <time>2019-07-07T04:52:13Z</time>
      </trkpt>
      <trkpt lat="40.6686500" lon="-2.5972330">
        <ele>742.0</ele>
        <time>2019-07-07T04:52:16Z</time>
      </trkpt>
      <trkpt lat="40.6686050" lon="-2.5973740">
        <ele>741.8</ele>
        <time>2019-07-07T04:52:18Z</time>
      </trkpt>
      <trkpt lat="40.6684080" lon="-2.5978080">
        <ele>741.0</ele>
        <time>2019-07-07T04:52:24Z</time>
      </trkpt>
      <trkpt lat="40.6683350" lon="-2.5979410">
        <ele>740.8</ele>
        <time>2019-07-07T04:52:26Z</time>
      </trkpt>
      <trkpt lat="40.6682440" lon="-2.5981430">
        <ele>740.6</ele>
        <time>2019-07-07T04:52:29Z</time>
      </trkpt>
      <trkpt lat="40.6682130" lon="-2.5982070">
        <ele>740.6</ele>
        <time>2019-07-07T04:52:30Z</time>
      </trkpt>
      <trkpt lat="40.6681010" lon="-2.5984980">
        <ele>740.6</ele>
        <time>2019-07-07T04:52:34Z</time>
      </trkpt>
      <trkpt lat="40.6680850" lon="-2.5985770">
        <ele>740.6</ele>
        <time>2019-07-07T04:52:35Z</time>
      </trkpt>
      <trkpt lat="40.6680000" lon="-2.5989800">
        <ele>741.0</ele>
        <time>2019-07-07T04:52:41Z</time>
      </trkpt>
      <trkpt lat="40.6679240" lon="-2.5993880">
        <ele>741.2</ele>
        <time>2019-07-07T04:52:47Z</time>
      </trkpt>
      <trkpt lat="40.6679150" lon="-2.5994590">
        <ele>741.2</ele>
        <time>2019-07-07T04:52:48Z</time>
      </trkpt>
      <trkpt lat="40.6678480" lon="-2.5997350">
        <ele>741.4</ele>
        <time>2019-07-07T04:52:52Z</time>
      </trkpt>
      <trkpt lat="40.6678130" lon="-2.5998720">
        <ele>741.4</ele>
        <time>2019-07-07T04:52:54Z</time>
      </trkpt>
      <trkpt lat="40.6677650" lon="-2.6001510">
        <ele>741.2</ele>
        <time>2019-07-07T04:52:58Z</time>
      </trkpt>
      <trkpt lat="40.6677410" lon="-2.6003660">
        <ele>741.0</ele>
        <time>2019-07-07T04:53:01Z</time>
      </trkpt>
      <trkpt lat="40.6677360" lon="-2.6004390">
        <ele>740.8</ele>
        <time>2019-07-07T04:53:02Z</time>
      </trkpt>
      <trkpt lat="40.6677240" lon="-2.6005880">
        <ele>740.8</ele>
        <time>2019-07-07T04:53:04Z</time>
      </trkpt>
      <trkpt lat="40.6676700" lon="-2.6012740">
        <ele>740.4</ele>
        <time>2019-07-07T04:53:13Z</time>
      </trkpt>
      <trkpt lat="40.6675720" lon="-2.6017750">
        <ele>740.2</ele>
        <time>2019-07-07T04:53:20Z</time>
      </trkpt>
      <trkpt lat="40.6675520" lon="-2.6019920">
        <ele>740.2</ele>
        <time>2019-07-07T04:53:23Z</time>
      </trkpt>
      <trkpt lat="40.6675390" lon="-2.6020610">
        <ele>740.2</ele>
        <time>2019-07-07T04:53:24Z</time>
      </trkpt>
      <trkpt lat="40.6674950" lon="-2.6021900">
        <ele>740.4</ele>
        <time>2019-07-07T04:53:26Z</time>
      </trkpt>
      <trkpt lat="40.6674360" lon="-2.6023050">
        <ele>740.8</ele>
        <time>2019-07-07T04:53:28Z</time>
      </trkpt>
      <trkpt lat="40.6673170" lon="-2.6024300">
        <ele>740.6</ele>
        <time>2019-07-07T04:53:31Z</time>
      </trkpt>
      <trkpt lat="40.6672270" lon="-2.6025020">
        <ele>740.4</ele>
        <time>2019-07-07T04:53:33Z</time>
      </trkpt>
      <trkpt lat="40.6670800" lon="-2.6025900">
        <ele>740.4</ele>
        <time>2019-07-07T04:53:36Z</time>
      </trkpt>
      <trkpt lat="40.6668370" lon="-2.6027500">
        <ele>740.4</ele>
        <time>2019-07-07T04:53:41Z</time>
      </trkpt>
      <trkpt lat="40.6667440" lon="-2.6028320">
        <ele>740.4</ele>
        <time>2019-07-07T04:53:43Z</time>
      </trkpt>
      <trkpt lat="40.6667050" lon="-2.6028720">
        <ele>740.2</ele>
        <time>2019-07-07T04:53:44Z</time>
      </trkpt>
      <trkpt lat="40.6666630" lon="-2.6029510">
        <ele>740.4</ele>
        <time>2019-07-07T04:53:46Z</time>
      </trkpt>
      <trkpt lat="40.6667150" lon="-2.6030300">
        <ele>740.8</ele>
        <time>2019-07-07T04:53:49Z</time>
      </trkpt>
      <trkpt lat="40.6667770" lon="-2.6030300">
        <ele>741.2</ele>
        <time>2019-07-07T04:53:51Z</time>
      </trkpt>
      <trkpt lat="40.6668130" lon="-2.6030230">
        <ele>741.2</ele>
        <time>2019-07-07T04:53:52Z</time>
      </trkpt>
      <trkpt lat="40.6668540" lon="-2.6030180">
        <ele>741.4</ele>
        <time>2019-07-07T04:53:53Z</time>
      </trkpt>
      <trkpt lat="40.6669380" lon="-2.6030040">
        <ele>741.4</ele>
        <time>2019-07-07T04:53:55Z</time>
      </trkpt>
      <trkpt lat="40.6671410" lon="-2.6029690">
        <ele>741.2</ele>
        <time>2019-07-07T04:53:59Z</time>
      </trkpt>
      <trkpt lat="40.6674190" lon="-2.6028940">
        <ele>740.4</ele>
        <time>2019-07-07T04:54:04Z</time>
      </trkpt>
      <trkpt lat="40.6674730" lon="-2.6028810">
        <ele>740.4</ele>
        <time>2019-07-07T04:54:05Z</time>
      </trkpt>
      <trkpt lat="40.6675270" lon="-2.6028750">
        <ele>740.2</ele>
        <time>2019-07-07T04:54:06Z</time>
      </trkpt>
      <trkpt lat="40.6676080" lon="-2.6028970">
        <ele>740.0</ele>
        <time>2019-07-07T04:54:08Z</time>
      </trkpt>
      <trkpt lat="40.6676290" lon="-2.6029320">
        <ele>740.0</ele>
        <time>2019-07-07T04:54:09Z</time>
      </trkpt>
      <trkpt lat="40.6676540" lon="-2.6031050">
        <ele>739.8</ele>
        <time>2019-07-07T04:54:12Z</time>
      </trkpt>
      <trkpt lat="40.6676570" lon="-2.6031690">
        <ele>739.6</ele>
        <time>2019-07-07T04:54:13Z</time>
      </trkpt>
      <trkpt lat="40.6676840" lon="-2.6035580">
        <ele>739.4</ele>
        <time>2019-07-07T04:54:19Z</time>
      </trkpt>
      <trkpt lat="40.6677050" lon="-2.6040270">
        <ele>739.2</ele>
        <time>2019-07-07T04:54:26Z</time>
      </trkpt>
      <trkpt lat="40.6676900" lon="-2.6045140">
        <ele>739.4</ele>
        <time>2019-07-07T04:54:33Z</time>
      </trkpt>
      <trkpt lat="40.6676940" lon="-2.6045870">
        <ele>739.4</ele>
        <time>2019-07-07T04:54:34Z</time>
      </trkpt>
      <trkpt lat="40.6676970" lon="-2.6048050">
        <ele>739.4</ele>
        <time>2019-07-07T04:54:37Z</time>
      </trkpt>
      <trkpt lat="40.6676760" lon="-2.6049490">
        <ele>739.4</ele>
        <time>2019-07-07T04:54:39Z</time>
      </trkpt>
      <trkpt lat="40.6675910" lon="-2.6053560">
        <ele>739.2</ele>
        <time>2019-07-07T04:54:45Z</time>
      </trkpt>
      <trkpt lat="40.6675510" lon="-2.6054830">
        <ele>739.2</ele>
        <time>2019-07-07T04:54:47Z</time>
      </trkpt>
      <trkpt lat="40.6674890" lon="-2.6056670">
        <ele>739.6</ele>
        <time>2019-07-07T04:54:50Z</time>
      </trkpt>
      <trkpt lat="40.6674400" lon="-2.6057880">
        <ele>740.0</ele>
        <time>2019-07-07T04:54:52Z</time>
      </trkpt>
      <trkpt lat="40.6672770" lon="-2.6063400">
        <ele>739.8</ele>
        <time>2019-07-07T04:55:00Z</time>
      </trkpt>
      <trkpt lat="40.6670880" lon="-2.6068210">
        <ele>740.0</ele>
        <time>2019-07-07T04:55:07Z</time>
      </trkpt>
      <trkpt lat="40.6670640" lon="-2.6068940">
        <ele>740.0</ele>
        <time>2019-07-07T04:55:08Z</time>
      </trkpt>
      <trkpt lat="40.6670420" lon="-2.6069690">
        <ele>740.0</ele>
        <time>2019-07-07T04:55:09Z</time>
      </trkpt>
      <trkpt lat="40.6670150" lon="-2.6070400">
        <ele>740.0</ele>
        <time>2019-07-07T04:55:10Z</time>
      </trkpt>
      <trkpt lat="40.6669080" lon="-2.6072330">
        <ele>739.2</ele>
        <time>2019-07-07T04:55:13Z</time>
      </trkpt>
      <trkpt lat="40.6666730" lon="-2.6076420">
        <ele>739.2</ele>
        <time>2019-07-07T04:55:20Z</time>
      </trkpt>
      <trkpt lat="40.6665370" lon="-2.6077010">
        <ele>739.2</ele>
        <time>2019-07-07T04:55:23Z</time>
      </trkpt>
      <trkpt lat="40.6663820" lon="-2.6076080">
        <ele>739.0</ele>
        <time>2019-07-07T04:55:26Z</time>
      </trkpt>
      <trkpt lat="40.6662890" lon="-2.6075080">
        <ele>739.0</ele>
        <time>2019-07-07T04:55:28Z</time>
      </trkpt>
      <trkpt lat="40.6661600" lon="-2.6073390">
        <ele>739.0</ele>
        <time>2019-07-07T04:55:31Z</time>
      </trkpt>
      <trkpt lat="40.6660720" lon="-2.6072350">
        <ele>739.0</ele>
        <time>2019-07-07T04:55:33Z</time>
      </trkpt>
      <trkpt lat="40.6659770" lon="-2.6071430">
        <ele>739.0</ele>
        <time>2019-07-07T04:55:35Z</time>
      </trkpt>
      <trkpt lat="40.6658770" lon="-2.6070550">
        <ele>739.0</ele>
        <time>2019-07-07T04:55:37Z</time>
      </trkpt>
      <trkpt lat="40.6655870" lon="-2.6068150">
        <ele>739.0</ele>
        <time>2019-07-07T04:55:43Z</time>
      </trkpt>
      <trkpt lat="40.6654600" lon="-2.6068460">
        <ele>739.0</ele>
        <time>2019-07-07T04:55:46Z</time>
      </trkpt>
      <trkpt lat="40.6654220" lon="-2.6069270">
        <ele>739.0</ele>
        <time>2019-07-07T04:55:48Z</time>
      </trkpt>
      <trkpt lat="40.6654350" lon="-2.6069690">
        <ele>739.0</ele>
        <time>2019-07-07T04:55:49Z</time>
      </trkpt>
      <trkpt lat="40.6655400" lon="-2.6070730">
        <ele>739.6</ele>
        <time>2019-07-07T04:55:52Z</time>
      </trkpt>
      <trkpt lat="40.6656120" lon="-2.6071590">
        <ele>739.8</ele>
        <time>2019-07-07T04:55:54Z</time>
      </trkpt>
      <trkpt lat="40.6656470" lon="-2.6072090">
        <ele>739.8</ele>
        <time>2019-07-07T04:55:55Z</time>
      </trkpt>
      <trkpt lat="40.6657160" lon="-2.6073080">
        <ele>739.8</ele>
        <time>2019-07-07T04:55:57Z</time>
      </trkpt>
      <trkpt lat="40.6658750" lon="-2.6075650">
        <ele>740.0</ele>
        <time>2019-07-07T04:56:02Z</time>
      </trkpt>
      <trkpt lat="40.6659010" lon="-2.6076210">
        <ele>740.0</ele>
        <time>2019-07-07T04:56:03Z</time>
      </trkpt>
      <trkpt lat="40.6659250" lon="-2.6076790">
        <ele>740.2</ele>
        <time>2019-07-07T04:56:04Z</time>
      </trkpt>
      <trkpt lat="40.6660260" lon="-2.6079620">
        <ele>740.4</ele>
        <time>2019-07-07T04:56:09Z</time>
      </trkpt>
      <trkpt lat="40.6660440" lon="-2.6080160">
        <ele>740.4</ele>
        <time>2019-07-07T04:56:10Z</time>
      </trkpt>
      <trkpt lat="40.6660900" lon="-2.6081040">
        <ele>740.8</ele>
        <time>2019-07-07T04:56:12Z</time>
      </trkpt>
      <trkpt lat="40.6661380" lon="-2.6081990">
        <ele>741.0</ele>
        <time>2019-07-07T04:56:14Z</time>
      </trkpt>
      <trkpt lat="40.6661630" lon="-2.6084520">
        <ele>741.0</ele>
        <time>2019-07-07T04:56:18Z</time>
      </trkpt>
      <trkpt lat="40.6660390" lon="-2.6086920">
        <ele>740.0</ele>
        <time>2019-07-07T04:56:22Z</time>
      </trkpt>
      <trkpt lat="40.6659950" lon="-2.6087470">
        <ele>739.8</ele>
        <time>2019-07-07T04:56:23Z</time>
      </trkpt>
      <trkpt lat="40.6659480" lon="-2.6088020">
        <ele>739.4</ele>
        <time>2019-07-07T04:56:24Z</time>
      </trkpt>
      <trkpt lat="40.6658950" lon="-2.6088510">
        <ele>739.0</ele>
        <time>2019-07-07T04:56:25Z</time>
      </trkpt>
      <trkpt lat="40.6657800" lon="-2.6089220">
        <ele>738.4</ele>
        <time>2019-07-07T04:56:27Z</time>
      </trkpt>
      <trkpt lat="40.6655500" lon="-2.6090910">
        <ele>738.0</ele>
        <time>2019-07-07T04:56:31Z</time>
      </trkpt>
      <trkpt lat="40.6654960" lon="-2.6091370">
        <ele>737.8</ele>
        <time>2019-07-07T04:56:32Z</time>
      </trkpt>
      <trkpt lat="40.6653840" lon="-2.6092090">
        <ele>737.6</ele>
        <time>2019-07-07T04:56:34Z</time>
      </trkpt>
      <trkpt lat="40.6652060" lon="-2.6092760">
        <ele>737.6</ele>
        <time>2019-07-07T04:56:37Z</time>
      </trkpt>
      <trkpt lat="40.6648030" lon="-2.6094110">
        <ele>738.2</ele>
        <time>2019-07-07T04:56:44Z</time>
      </trkpt>
      <trkpt lat="40.6643780" lon="-2.6096180">
        <ele>738.4</ele>
        <time>2019-07-07T04:56:52Z</time>
      </trkpt>
      <trkpt lat="40.6642230" lon="-2.6097080">
        <ele>738.6</ele>
        <time>2019-07-07T04:56:55Z</time>
      </trkpt>
      <trkpt lat="40.6640630" lon="-2.6097470">
        <ele>739.0</ele>
        <time>2019-07-07T04:56:58Z</time>
      </trkpt>
      <trkpt lat="40.6637260" lon="-2.6097940">
        <ele>739.0</ele>
        <time>2019-07-07T04:57:04Z</time>
      </trkpt>
      <trkpt lat="40.6636720" lon="-2.6098140">
        <ele>739.0</ele>
        <time>2019-07-07T04:57:05Z</time>
      </trkpt>
      <trkpt lat="40.6633070" lon="-2.6099710">
        <ele>739.2</ele>
        <time>2019-07-07T04:57:12Z</time>
      </trkpt>
      <trkpt lat="40.6631990" lon="-2.6100090">
        <ele>739.4</ele>
        <time>2019-07-07T04:57:14Z</time>
      </trkpt>
      <trkpt lat="40.6630390" lon="-2.6100680">
        <ele>739.6</ele>
        <time>2019-07-07T04:57:17Z</time>
      </trkpt>
      <trkpt lat="40.6628200" lon="-2.6101200">
        <ele>739.8</ele>
        <time>2019-07-07T04:57:21Z</time>
      </trkpt>
      <trkpt lat="40.6627640" lon="-2.6101170">
        <ele>739.8</ele>
        <time>2019-07-07T04:57:22Z</time>
      </trkpt>
      <trkpt lat="40.6623860" lon="-2.6100540">
        <ele>740.4</ele>
        <time>2019-07-07T04:57:29Z</time>
      </trkpt>
      <trkpt lat="40.6622780" lon="-2.6100400">
        <ele>740.4</ele>
        <time>2019-07-07T04:57:31Z</time>
      </trkpt>
      <trkpt lat="40.6621220" lon="-2.6099780">
        <ele>740.4</ele>
        <time>2019-07-07T04:57:34Z</time>
      </trkpt>
      <trkpt lat="40.6619840" lon="-2.6099020">
        <ele>740.8</ele>
        <time>2019-07-07T04:57:37Z</time>
      </trkpt>
      <trkpt lat="40.6618590" lon="-2.6098340">
        <ele>741.4</ele>
        <time>2019-07-07T04:57:40Z</time>
      </trkpt>
      <trkpt lat="40.6618190" lon="-2.6098120">
        <ele>741.6</ele>
        <time>2019-07-07T04:57:41Z</time>
      </trkpt>
      <trkpt lat="40.6617830" lon="-2.6097880">
        <ele>742.0</ele>
        <time>2019-07-07T04:57:42Z</time>
      </trkpt>
      <trkpt lat="40.6616690" lon="-2.6097300">
        <ele>742.8</ele>
        <time>2019-07-07T04:57:45Z</time>
      </trkpt>
      <trkpt lat="40.6616340" lon="-2.6097020">
        <ele>743.0</ele>
        <time>2019-07-07T04:57:46Z</time>
      </trkpt>
      <trkpt lat="40.6614690" lon="-2.6095620">
        <ele>743.4</ele>
        <time>2019-07-07T04:57:50Z</time>
      </trkpt>
      <trkpt lat="40.6613160" lon="-2.6095880">
        <ele>743.0</ele>
        <time>2019-07-07T04:57:53Z</time>
      </trkpt>
      <trkpt lat="40.6612660" lon="-2.6096040">
        <ele>743.0</ele>
        <time>2019-07-07T04:57:54Z</time>
      </trkpt>
      <trkpt lat="40.6611270" lon="-2.6095850">
        <ele>743.2</ele>
        <time>2019-07-07T04:57:57Z</time>
      </trkpt>
      <trkpt lat="40.6610800" lon="-2.6095680">
        <ele>743.2</ele>
        <time>2019-07-07T04:57:58Z</time>
      </trkpt>
      <trkpt lat="40.6609750" lon="-2.6095470">
        <ele>743.4</ele>
        <time>2019-07-07T04:58:00Z</time>
      </trkpt>
      <trkpt lat="40.6609230" lon="-2.6095650">
        <ele>743.2</ele>
        <time>2019-07-07T04:58:01Z</time>
      </trkpt>
      <trkpt lat="40.6608340" lon="-2.6096410">
        <ele>742.6</ele>
        <time>2019-07-07T04:58:03Z</time>
      </trkpt>
      <trkpt lat="40.6607290" lon="-2.6096920">
        <ele>742.0</ele>
        <time>2019-07-07T04:58:05Z</time>
      </trkpt>
      <trkpt lat="40.6606700" lon="-2.6097030">
        <ele>741.8</ele>
        <time>2019-07-07T04:58:06Z</time>
      </trkpt>
      <trkpt lat="40.6605490" lon="-2.6097120">
        <ele>741.4</ele>
        <time>2019-07-07T04:58:08Z</time>
      </trkpt>
      <trkpt lat="40.6604320" lon="-2.6097340">
        <ele>741.2</ele>
        <time>2019-07-07T04:58:10Z</time>
      </trkpt>
      <trkpt lat="40.6603760" lon="-2.6097540">
        <ele>741.2</ele>
        <time>2019-07-07T04:58:11Z</time>
      </trkpt>
      <trkpt lat="40.6602660" lon="-2.6098030">
        <ele>741.0</ele>
        <time>2019-07-07T04:58:13Z</time>
      </trkpt>
      <trkpt lat="40.6601600" lon="-2.6098490">
        <ele>741.0</ele>
        <time>2019-07-07T04:58:15Z</time>
      </trkpt>
      <trkpt lat="40.6599270" lon="-2.6099500">
        <ele>741.8</ele>
        <time>2019-07-07T04:58:20Z</time>
      </trkpt>
      <trkpt lat="40.6598370" lon="-2.6100200">
        <ele>743.0</ele>
        <time>2019-07-07T04:58:23Z</time>
      </trkpt>
      <trkpt lat="40.6597570" lon="-2.6100930">
        <ele>744.4</ele>
        <time>2019-07-07T04:58:26Z</time>
      </trkpt>
      <trkpt lat="40.6596300" lon="-2.6101870">
        <ele>745.4</ele>
        <time>2019-07-07T04:58:30Z</time>
      </trkpt>
      <trkpt lat="40.6595630" lon="-2.6102440">
        <ele>745.6</ele>
        <time>2019-07-07T04:58:32Z</time>
      </trkpt>
      <trkpt lat="40.6593220" lon="-2.6104690">
        <ele>745.4</ele>
        <time>2019-07-07T04:58:38Z</time>
      </trkpt>
      <trkpt lat="40.6591850" lon="-2.6106420">
        <ele>744.2</ele>
        <time>2019-07-07T04:58:41Z</time>
      </trkpt>
      <trkpt lat="40.6590860" lon="-2.6107680">
        <ele>743.6</ele>
        <time>2019-07-07T04:58:43Z</time>
      </trkpt>
      <trkpt lat="40.6590330" lon="-2.6108270">
        <ele>743.4</ele>
        <time>2019-07-07T04:58:44Z</time>
      </trkpt>
      <trkpt lat="40.6589800" lon="-2.6108820">
        <ele>743.0</ele>
        <time>2019-07-07T04:58:45Z</time>
      </trkpt>
      <trkpt lat="40.6588680" lon="-2.6109800">
        <ele>742.4</ele>
        <time>2019-07-07T04:58:47Z</time>
      </trkpt>
      <trkpt lat="40.6587500" lon="-2.6110690">
        <ele>742.0</ele>
        <time>2019-07-07T04:58:49Z</time>
      </trkpt>
      <trkpt lat="40.6586900" lon="-2.6111060">
        <ele>741.8</ele>
        <time>2019-07-07T04:58:50Z</time>
      </trkpt>
      <trkpt lat="40.6585700" lon="-2.6111670">
        <ele>741.8</ele>
        <time>2019-07-07T04:58:52Z</time>
      </trkpt>
      <trkpt lat="40.6585120" lon="-2.6111820">
        <ele>741.8</ele>
        <time>2019-07-07T04:58:53Z</time>
      </trkpt>
      <trkpt lat="40.6584580" lon="-2.6111830">
        <ele>742.0</ele>
        <time>2019-07-07T04:58:54Z</time>
      </trkpt>
      <trkpt lat="40.6583550" lon="-2.6111820">
        <ele>742.0</ele>
        <time>2019-07-07T04:58:56Z</time>
      </trkpt>
      <trkpt lat="40.6582810" lon="-2.6112530">
        <ele>741.8</ele>
        <time>2019-07-07T04:58:58Z</time>
      </trkpt>
      <trkpt lat="40.6582610" lon="-2.6114290">
        <ele>741.6</ele>
        <time>2019-07-07T04:59:01Z</time>
      </trkpt>
      <trkpt lat="40.6583360" lon="-2.6115900">
        <ele>741.8</ele>
        <time>2019-07-07T04:59:04Z</time>
      </trkpt>
      <trkpt lat="40.6583580" lon="-2.6116500">
        <ele>741.8</ele>
        <time>2019-07-07T04:59:05Z</time>
      </trkpt>
      <trkpt lat="40.6583770" lon="-2.6118530">
        <ele>742.0</ele>
        <time>2019-07-07T04:59:08Z</time>
      </trkpt>
      <trkpt lat="40.6583720" lon="-2.6119240">
        <ele>742.0</ele>
        <time>2019-07-07T04:59:09Z</time>
      </trkpt>
      <trkpt lat="40.6583650" lon="-2.6119940">
        <ele>742.0</ele>
        <time>2019-07-07T04:59:10Z</time>
      </trkpt>
      <trkpt lat="40.6583100" lon="-2.6124330">
        <ele>741.8</ele>
        <time>2019-07-07T04:59:16Z</time>
      </trkpt>
      <trkpt lat="40.6582520" lon="-2.6128310">
        <ele>742.0</ele>
        <time>2019-07-07T04:59:22Z</time>
      </trkpt>
      <trkpt lat="40.6582200" lon="-2.6130350">
        <ele>742.2</ele>
        <time>2019-07-07T04:59:25Z</time>
      </trkpt>
      <trkpt lat="40.6581970" lon="-2.6133270">
        <ele>742.0</ele>
        <time>2019-07-07T04:59:29Z</time>
      </trkpt>
      <trkpt lat="40.6581820" lon="-2.6135420">
        <ele>741.8</ele>
        <time>2019-07-07T04:59:32Z</time>
      </trkpt>
      <trkpt lat="40.6581820" lon="-2.6136980">
        <ele>741.8</ele>
        <time>2019-07-07T04:59:34Z</time>
      </trkpt>
      <trkpt lat="40.6581700" lon="-2.6140210">
        <ele>741.4</ele>
        <time>2019-07-07T04:59:38Z</time>
      </trkpt>
      <trkpt lat="40.6581770" lon="-2.6141040">
        <ele>741.2</ele>
        <time>2019-07-07T04:59:39Z</time>
      </trkpt>
      <trkpt lat="40.6582120" lon="-2.6144910">
        <ele>741.4</ele>
        <time>2019-07-07T04:59:44Z</time>
      </trkpt>
      <trkpt lat="40.6582280" lon="-2.6145700">
        <ele>741.6</ele>
        <time>2019-07-07T04:59:45Z</time>
      </trkpt>
      <trkpt lat="40.6582660" lon="-2.6148970">
        <ele>741.8</ele>
        <time>2019-07-07T04:59:49Z</time>
      </trkpt>
      <trkpt lat="40.6582590" lon="-2.6149810">
        <ele>741.8</ele>
        <time>2019-07-07T04:59:50Z</time>
      </trkpt>
      <trkpt lat="40.6582060" lon="-2.6152300">
        <ele>741.4</ele>
        <time>2019-07-07T04:59:53Z</time>
      </trkpt>
      <trkpt lat="40.6581710" lon="-2.6153920">
        <ele>741.0</ele>
        <time>2019-07-07T04:59:55Z</time>
      </trkpt>
      <trkpt lat="40.6581980" lon="-2.6156420">
        <ele>741.0</ele>
        <time>2019-07-07T04:59:58Z</time>
      </trkpt>
      <trkpt lat="40.6582060" lon="-2.6157240">
        <ele>741.0</ele>
        <time>2019-07-07T04:59:59Z</time>
      </trkpt>
      <trkpt lat="40.6582250" lon="-2.6159740">
        <ele>740.8</ele>
        <time>2019-07-07T05:00:02Z</time>
      </trkpt>
      <trkpt lat="40.6582270" lon="-2.6160570">
        <ele>741.0</ele>
        <time>2019-07-07T05:00:03Z</time>
      </trkpt>
      <trkpt lat="40.6582300" lon="-2.6161400">
        <ele>741.0</ele>
        <time>2019-07-07T05:00:04Z</time>
      </trkpt>
      <trkpt lat="40.6582180" lon="-2.6164600">
        <ele>740.8</ele>
        <time>2019-07-07T05:00:08Z</time>
      </trkpt>
      <trkpt lat="40.6581990" lon="-2.6166970">
        <ele>740.6</ele>
        <time>2019-07-07T05:00:11Z</time>
      </trkpt>
      <trkpt lat="40.6581860" lon="-2.6167740">
        <ele>740.6</ele>
        <time>2019-07-07T05:00:12Z</time>
      </trkpt>
      <trkpt lat="40.6581010" lon="-2.6169840">
        <ele>740.4</ele>
        <time>2019-07-07T05:00:15Z</time>
      </trkpt>
      <trkpt lat="40.6580100" lon="-2.6170960">
        <ele>740.2</ele>
        <time>2019-07-07T05:00:17Z</time>
      </trkpt>
      <trkpt lat="40.6578240" lon="-2.6173250">
        <ele>740.0</ele>
        <time>2019-07-07T05:00:21Z</time>
      </trkpt>
      <trkpt lat="40.6577300" lon="-2.6174370">
        <ele>740.0</ele>
        <time>2019-07-07T05:00:23Z</time>
      </trkpt>
      <trkpt lat="40.6576280" lon="-2.6175320">
        <ele>739.8</ele>
        <time>2019-07-07T05:00:25Z</time>
      </trkpt>
      <trkpt lat="40.6575710" lon="-2.6175670">
        <ele>739.8</ele>
        <time>2019-07-07T05:00:26Z</time>
      </trkpt>
      <trkpt lat="40.6573930" lon="-2.6176230">
        <ele>739.6</ele>
        <time>2019-07-07T05:00:29Z</time>
      </trkpt>
      <trkpt lat="40.6572740" lon="-2.6176530">
        <ele>739.8</ele>
        <time>2019-07-07T05:00:31Z</time>
      </trkpt>
      <trkpt lat="40.6572160" lon="-2.6176650">
        <ele>739.8</ele>
        <time>2019-07-07T05:00:32Z</time>
      </trkpt>
      <trkpt lat="40.6570360" lon="-2.6176700">
        <ele>739.8</ele>
        <time>2019-07-07T05:00:35Z</time>
      </trkpt>
      <trkpt lat="40.6569870" lon="-2.6176970">
        <ele>739.6</ele>
        <time>2019-07-07T05:00:36Z</time>
      </trkpt>
      <trkpt lat="40.6569380" lon="-2.6178000">
        <ele>739.6</ele>
        <time>2019-07-07T05:00:38Z</time>
      </trkpt>
      <trkpt lat="40.6569760" lon="-2.6179480">
        <ele>739.2</ele>
        <time>2019-07-07T05:00:41Z</time>
      </trkpt>
      <trkpt lat="40.6570780" lon="-2.6180410">
        <ele>739.8</ele>
        <time>2019-07-07T05:00:44Z</time>
      </trkpt>
      <trkpt lat="40.6571160" lon="-2.6180610">
        <ele>740.0</ele>
        <time>2019-07-07T05:00:45Z</time>
      </trkpt>
      <trkpt lat="40.6571940" lon="-2.6180950">
        <ele>740.2</ele>
        <time>2019-07-07T05:00:47Z</time>
      </trkpt>
      <trkpt lat="40.6572620" lon="-2.6181410">
        <ele>740.2</ele>
        <time>2019-07-07T05:00:49Z</time>
      </trkpt>
      <trkpt lat="40.6572920" lon="-2.6181790">
        <ele>740.4</ele>
        <time>2019-07-07T05:00:50Z</time>
      </trkpt>
      <trkpt lat="40.6573940" lon="-2.6183670">
        <ele>741.0</ele>
        <time>2019-07-07T05:00:54Z</time>
      </trkpt>
      <trkpt lat="40.6574410" lon="-2.6184740">
        <ele>741.2</ele>
        <time>2019-07-07T05:00:56Z</time>
      </trkpt>
      <trkpt lat="40.6574680" lon="-2.6185260">
        <ele>741.2</ele>
        <time>2019-07-07T05:00:57Z</time>
      </trkpt>
      <trkpt lat="40.6576170" lon="-2.6187910">
        <ele>741.4</ele>
        <time>2019-07-07T05:01:02Z</time>
      </trkpt>
      <trkpt lat="40.6577800" lon="-2.6191030">
        <ele>740.8</ele>
        <time>2019-07-07T05:01:07Z</time>
      </trkpt>
      <trkpt lat="40.6578100" lon="-2.6191780">
        <ele>740.6</ele>
        <time>2019-07-07T05:01:08Z</time>
      </trkpt>
      <trkpt lat="40.6578910" lon="-2.6194270">
        <ele>740.0</ele>
        <time>2019-07-07T05:01:11Z</time>
      </trkpt>
      <trkpt lat="40.6579410" lon="-2.6195960">
        <ele>739.4</ele>
        <time>2019-07-07T05:01:13Z</time>
      </trkpt>
      <trkpt lat="40.6579980" lon="-2.6197550">
        <ele>739.2</ele>
        <time>2019-07-07T05:01:15Z</time>
      </trkpt>
      <trkpt lat="40.6581030" lon="-2.6199690">
        <ele>739.0</ele>
        <time>2019-07-07T05:01:18Z</time>
      </trkpt>
      <trkpt lat="40.6583280" lon="-2.6201840">
        <ele>738.8</ele>
        <time>2019-07-07T05:01:23Z</time>
      </trkpt>
      <trkpt lat="40.6583750" lon="-2.6202010">
        <ele>739.0</ele>
        <time>2019-07-07T05:01:24Z</time>
      </trkpt>
      <trkpt lat="40.6585400" lon="-2.6202530">
        <ele>740.0</ele>
        <time>2019-07-07T05:01:28Z</time>
      </trkpt>
      <trkpt lat="40.6586310" lon="-2.6203460">
        <ele>740.8</ele>
        <time>2019-07-07T05:01:31Z</time>
      </trkpt>
      <trkpt lat="40.6586590" lon="-2.6203930">
        <ele>741.0</ele>
        <time>2019-07-07T05:01:32Z</time>
      </trkpt>
      <trkpt lat="40.6587420" lon="-2.6206340">
        <ele>741.0</ele>
        <time>2019-07-07T05:01:36Z</time>
      </trkpt>
      <trkpt lat="40.6587450" lon="-2.6207020">
        <ele>740.8</ele>
        <time>2019-07-07T05:01:37Z</time>
      </trkpt>
      <trkpt lat="40.6587100" lon="-2.6209930">
        <ele>740.8</ele>
        <time>2019-07-07T05:01:41Z</time>
      </trkpt>
      <trkpt lat="40.6586920" lon="-2.6210660">
        <ele>740.6</ele>
        <time>2019-07-07T05:01:42Z</time>
      </trkpt>
      <trkpt lat="40.6586180" lon="-2.6212680">
        <ele>740.6</ele>
        <time>2019-07-07T05:01:45Z</time>
      </trkpt>
      <trkpt lat="40.6585490" lon="-2.6213860">
        <ele>740.6</ele>
        <time>2019-07-07T05:01:47Z</time>
      </trkpt>
      <trkpt lat="40.6585210" lon="-2.6214500">
        <ele>740.8</ele>
        <time>2019-07-07T05:01:48Z</time>
      </trkpt>
      <trkpt lat="40.6585080" lon="-2.6215990">
        <ele>740.6</ele>
        <time>2019-07-07T05:01:50Z</time>
      </trkpt>
      <trkpt lat="40.6585090" lon="-2.6217480">
        <ele>740.6</ele>
        <time>2019-07-07T05:01:52Z</time>
      </trkpt>
      <trkpt lat="40.6584830" lon="-2.6220550">
        <ele>740.6</ele>
        <time>2019-07-07T05:01:56Z</time>
      </trkpt>
      <trkpt lat="40.6584610" lon="-2.6223540">
        <ele>740.6</ele>
        <time>2019-07-07T05:02:00Z</time>
      </trkpt>
      <trkpt lat="40.6584520" lon="-2.6225690">
        <ele>740.4</ele>
        <time>2019-07-07T05:02:03Z</time>
      </trkpt>
      <trkpt lat="40.6584380" lon="-2.6231350">
        <ele>741.4</ele>
        <time>2019-07-07T05:02:11Z</time>
      </trkpt>
      <trkpt lat="40.6584430" lon="-2.6232080">
        <ele>741.6</ele>
        <time>2019-07-07T05:02:12Z</time>
      </trkpt>
      <trkpt lat="40.6584520" lon="-2.6237290">
        <ele>741.8</ele>
        <time>2019-07-07T05:02:19Z</time>
      </trkpt>
      <trkpt lat="40.6584370" lon="-2.6239300">
        <ele>742.2</ele>
        <time>2019-07-07T05:02:22Z</time>
      </trkpt>
      <trkpt lat="40.6584020" lon="-2.6240430">
        <ele>742.4</ele>
        <time>2019-07-07T05:02:24Z</time>
      </trkpt>
      <trkpt lat="40.6582600" lon="-2.6242000">
        <ele>743.2</ele>
        <time>2019-07-07T05:02:28Z</time>
      </trkpt>
      <trkpt lat="40.6582200" lon="-2.6242250">
        <ele>743.6</ele>
        <time>2019-07-07T05:02:29Z</time>
      </trkpt>
      <trkpt lat="40.6580760" lon="-2.6243100">
        <ele>744.2</ele>
        <time>2019-07-07T05:02:33Z</time>
      </trkpt>
      <trkpt lat="40.6580430" lon="-2.6243310">
        <ele>744.8</ele>
        <time>2019-07-07T05:02:34Z</time>
      </trkpt>
      <trkpt lat="40.6579740" lon="-2.6243830">
        <ele>744.8</ele>
        <time>2019-07-07T05:02:36Z</time>
      </trkpt>
      <trkpt lat="40.6578950" lon="-2.6244130">
        <ele>745.4</ele>
        <time>2019-07-07T05:02:38Z</time>
      </trkpt>
      <trkpt lat="40.6577800" lon="-2.6244620">
        <ele>745.6</ele>
        <time>2019-07-07T05:02:41Z</time>
      </trkpt>
      <trkpt lat="40.6577160" lon="-2.6245290">
        <ele>745.8</ele>
        <time>2019-07-07T05:02:43Z</time>
      </trkpt>
      <trkpt lat="40.6576770" lon="-2.6247150">
        <ele>745.2</ele>
        <time>2019-07-07T05:02:47Z</time>
      </trkpt>
      <trkpt lat="40.6577380" lon="-2.6247650">
        <ele>744.6</ele>
        <time>2019-07-07T05:02:49Z</time>
      </trkpt>
      <trkpt lat="40.6577770" lon="-2.6247730">
        <ele>744.6</ele>
        <time>2019-07-07T05:02:50Z</time>
      </trkpt>
      <trkpt lat="40.6578170" lon="-2.6247790">
        <ele>744.4</ele>
        <time>2019-07-07T05:02:51Z</time>
      </trkpt>
      <trkpt lat="40.6580400" lon="-2.6248370">
        <ele>745.8</ele>
        <time>2019-07-07T05:02:57Z</time>
      </trkpt>
      <trkpt lat="40.6582030" lon="-2.6248680">
        <ele>746.2</ele>
        <time>2019-07-07T05:03:01Z</time>
      </trkpt>
      <trkpt lat="40.6582860" lon="-2.6248660">
        <ele>746.4</ele>
        <time>2019-07-07T05:03:03Z</time>
      </trkpt>
      <trkpt lat="40.6584200" lon="-2.6248680">
        <ele>746.4</ele>
        <time>2019-07-07T05:03:06Z</time>
      </trkpt>
      <trkpt lat="40.6584990" lon="-2.6249270">
        <ele>746.2</ele>
        <time>2019-07-07T05:03:08Z</time>
      </trkpt>
      <trkpt lat="40.6585360" lon="-2.6250680">
        <ele>745.8</ele>
        <time>2019-07-07T05:03:11Z</time>
      </trkpt>
      <trkpt lat="40.6586020" lon="-2.6253930">
        <ele>746.0</ele>
        <time>2019-07-07T05:03:17Z</time>
      </trkpt>
      <trkpt lat="40.6586720" lon="-2.6256820">
        <ele>746.8</ele>
        <time>2019-07-07T05:03:23Z</time>
      </trkpt>
      <trkpt lat="40.6586810" lon="-2.6257250">
        <ele>747.0</ele>
        <time>2019-07-07T05:03:24Z</time>
      </trkpt>
      <trkpt lat="40.6586970" lon="-2.6258530">
        <ele>748.2</ele>
        <time>2019-07-07T05:03:27Z</time>
      </trkpt>
      <trkpt lat="40.6587080" lon="-2.6259780">
        <ele>749.0</ele>
        <time>2019-07-07T05:03:30Z</time>
      </trkpt>
      <trkpt lat="40.6587130" lon="-2.6260210">
        <ele>749.2</ele>
        <time>2019-07-07T05:03:31Z</time>
      </trkpt>
      <trkpt lat="40.6587250" lon="-2.6260970">
        <ele>750.2</ele>
        <time>2019-07-07T05:03:33Z</time>
      </trkpt>
      <trkpt lat="40.6587300" lon="-2.6261310">
        <ele>750.4</ele>
        <time>2019-07-07T05:03:34Z</time>
      </trkpt>
      <trkpt lat="40.6587390" lon="-2.6261960">
        <ele>751.2</ele>
        <time>2019-07-07T05:03:36Z</time>
      </trkpt>
      <trkpt lat="40.6587440" lon="-2.6262280">
        <ele>751.6</ele>
        <time>2019-07-07T05:03:37Z</time>
      </trkpt>
      <trkpt lat="40.6587710" lon="-2.6263450">
        <ele>752.4</ele>
        <time>2019-07-07T05:03:40Z</time>
      </trkpt>
      <trkpt lat="40.6587960" lon="-2.6264300">
        <ele>752.6</ele>
        <time>2019-07-07T05:03:42Z</time>
      </trkpt>
      <trkpt lat="40.6588280" lon="-2.6265090">
        <ele>753.0</ele>
        <time>2019-07-07T05:03:44Z</time>
      </trkpt>
      <trkpt lat="40.6589200" lon="-2.6266580">
        <ele>754.0</ele>
        <time>2019-07-07T05:03:48Z</time>
      </trkpt>
      <trkpt lat="40.6589440" lon="-2.6266950">
        <ele>754.2</ele>
        <time>2019-07-07T05:03:49Z</time>
      </trkpt>
      <trkpt lat="40.6590980" lon="-2.6269600">
        <ele>755.2</ele>
        <time>2019-07-07T05:03:56Z</time>
      </trkpt>
      <trkpt lat="40.6592410" lon="-2.6271950">
        <ele>756.2</ele>
        <time>2019-07-07T05:04:02Z</time>
      </trkpt>
      <trkpt lat="40.6593030" lon="-2.6273170">
        <ele>756.6</ele>
        <time>2019-07-07T05:04:05Z</time>
      </trkpt>
      <trkpt lat="40.6593850" lon="-2.6274810">
        <ele>757.2</ele>
        <time>2019-07-07T05:04:09Z</time>
      </trkpt>
      <trkpt lat="40.6594470" lon="-2.6275640">
        <ele>758.2</ele>
        <time>2019-07-07T05:04:12Z</time>
      </trkpt>
      <trkpt lat="40.6594650" lon="-2.6275870">
        <ele>758.4</ele>
        <time>2019-07-07T05:04:13Z</time>
      </trkpt>
      <trkpt lat="40.6595460" lon="-2.6276860">
        <ele>759.4</ele>
        <time>2019-07-07T05:04:17Z</time>
      </trkpt>
      <trkpt lat="40.6595880" lon="-2.6277340">
        <ele>760.2</ele>
        <time>2019-07-07T05:04:19Z</time>
      </trkpt>
      <trkpt lat="40.6596290" lon="-2.6277740">
        <ele>760.6</ele>
        <time>2019-07-07T05:04:21Z</time>
      </trkpt>
      <trkpt lat="40.6597300" lon="-2.6278880">
        <ele>761.6</ele>
        <time>2019-07-07T05:04:26Z</time>
      </trkpt>
      <trkpt lat="40.6597490" lon="-2.6279110">
        <ele>761.8</ele>
        <time>2019-07-07T05:04:27Z</time>
      </trkpt>
      <trkpt lat="40.6598320" lon="-2.6280080">
        <ele>762.8</ele>
        <time>2019-07-07T05:04:31Z</time>
      </trkpt>
      <trkpt lat="40.6598930" lon="-2.6280700">
        <ele>764.0</ele>
        <time>2019-07-07T05:04:34Z</time>
      </trkpt>
      <trkpt lat="40.6599160" lon="-2.6280870">
        <ele>764.2</ele>
        <time>2019-07-07T05:04:35Z</time>
      </trkpt>
      <trkpt lat="40.6599920" lon="-2.6281200">
        <ele>765.2</ele>
        <time>2019-07-07T05:04:38Z</time>
      </trkpt>
      <trkpt lat="40.6601040" lon="-2.6281510">
        <ele>766.0</ele>
        <time>2019-07-07T05:04:42Z</time>
      </trkpt>
      <trkpt lat="40.6601610" lon="-2.6281790">
        <ele>766.4</ele>
        <time>2019-07-07T05:04:44Z</time>
      </trkpt>
      <trkpt lat="40.6603580" lon="-2.6282970">
        <ele>767.2</ele>
        <time>2019-07-07T05:04:51Z</time>
      </trkpt>
      <trkpt lat="40.6603870" lon="-2.6283120">
        <ele>767.4</ele>
        <time>2019-07-07T05:04:52Z</time>
      </trkpt>
      <trkpt lat="40.6605440" lon="-2.6283530">
        <ele>768.4</ele>
        <time>2019-07-07T05:04:57Z</time>
      </trkpt>
      <trkpt lat="40.6605750" lon="-2.6283600">
        <ele>768.6</ele>
        <time>2019-07-07T05:04:58Z</time>
      </trkpt>
      <trkpt lat="40.6607350" lon="-2.6284230">
        <ele>769.4</ele>
        <time>2019-07-07T05:05:03Z</time>
      </trkpt>
      <trkpt lat="40.6607980" lon="-2.6284630">
        <ele>769.8</ele>
        <time>2019-07-07T05:05:05Z</time>
      </trkpt>
      <trkpt lat="40.6609960" lon="-2.6285430">
        <ele>770.4</ele>
        <time>2019-07-07T05:05:11Z</time>
      </trkpt>
      <trkpt lat="40.6611040" lon="-2.6286410">
        <ele>771.2</ele>
        <time>2019-07-07T05:05:15Z</time>
      </trkpt>
      <trkpt lat="40.6611080" lon="-2.6286850">
        <ele>771.4</ele>
        <time>2019-07-07T05:05:16Z</time>
      </trkpt>
      <trkpt lat="40.6610970" lon="-2.6287280">
        <ele>771.4</ele>
        <time>2019-07-07T05:05:17Z</time>
      </trkpt>
      <trkpt lat="40.6610720" lon="-2.6287690">
        <ele>771.6</ele>
        <time>2019-07-07T05:05:18Z</time>
      </trkpt>
      <trkpt lat="40.6609400" lon="-2.6288510">
        <ele>771.8</ele>
        <time>2019-07-07T05:05:21Z</time>
      </trkpt>
      <trkpt lat="40.6607330" lon="-2.6289670">
        <ele>771.0</ele>
        <time>2019-07-07T05:05:25Z</time>
      </trkpt>
      <trkpt lat="40.6606390" lon="-2.6290630">
        <ele>770.8</ele>
        <time>2019-07-07T05:05:27Z</time>
      </trkpt>
      <trkpt lat="40.6604390" lon="-2.6292440">
        <ele>770.6</ele>
        <time>2019-07-07T05:05:31Z</time>
      </trkpt>
      <trkpt lat="40.6603810" lon="-2.6292790">
        <ele>770.6</ele>
        <time>2019-07-07T05:05:32Z</time>
      </trkpt>
      <trkpt lat="40.6603190" lon="-2.6293060">
        <ele>770.4</ele>
        <time>2019-07-07T05:05:33Z</time>
      </trkpt>
      <trkpt lat="40.6601200" lon="-2.6293540">
        <ele>770.2</ele>
        <time>2019-07-07T05:05:36Z</time>
      </trkpt>
      <trkpt lat="40.6600530" lon="-2.6293530">
        <ele>770.0</ele>
        <time>2019-07-07T05:05:37Z</time>
      </trkpt>
      <trkpt lat="40.6599870" lon="-2.6293340">
        <ele>769.6</ele>
        <time>2019-07-07T05:05:38Z</time>
      </trkpt>
      <trkpt lat="40.6599260" lon="-2.6292980">
        <ele>769.4</ele>
        <time>2019-07-07T05:05:39Z</time>
      </trkpt>
      <trkpt lat="40.6598280" lon="-2.6291820">
        <ele>769.2</ele>
        <time>2019-07-07T05:05:41Z</time>
      </trkpt>
      <trkpt lat="40.6597860" lon="-2.6291160">
        <ele>769.0</ele>
        <time>2019-07-07T05:05:42Z</time>
      </trkpt>
      <trkpt lat="40.6596630" lon="-2.6289220">
        <ele>769.0</ele>
        <time>2019-07-07T05:05:45Z</time>
      </trkpt>
      <trkpt lat="40.6595520" lon="-2.6287130">
        <ele>768.8</ele>
        <time>2019-07-07T05:05:48Z</time>
      </trkpt>
      <trkpt lat="40.6595100" lon="-2.6286480">
        <ele>768.6</ele>
        <time>2019-07-07T05:05:49Z</time>
      </trkpt>
      <trkpt lat="40.6593630" lon="-2.6284970">
        <ele>768.6</ele>
        <time>2019-07-07T05:05:52Z</time>
      </trkpt>
      <trkpt lat="40.6591480" lon="-2.6284470">
        <ele>769.2</ele>
        <time>2019-07-07T05:05:56Z</time>
      </trkpt>
      <trkpt lat="40.6589630" lon="-2.6285580">
        <ele>770.0</ele>
        <time>2019-07-07T05:06:00Z</time>
      </trkpt>
      <trkpt lat="40.6589270" lon="-2.6286000">
        <ele>770.0</ele>
        <time>2019-07-07T05:06:01Z</time>
      </trkpt>
      <trkpt lat="40.6588560" lon="-2.6286840">
        <ele>770.6</ele>
        <time>2019-07-07T05:06:03Z</time>
      </trkpt>
      <trkpt lat="40.6587720" lon="-2.6287410">
        <ele>771.0</ele>
        <time>2019-07-07T05:06:05Z</time>
      </trkpt>
      <trkpt lat="40.6585970" lon="-2.6288530">
        <ele>771.4</ele>
        <time>2019-07-07T05:06:09Z</time>
      </trkpt>
      <trkpt lat="40.6585270" lon="-2.6290330">
        <ele>771.4</ele>
        <time>2019-07-07T05:06:12Z</time>
      </trkpt>
      <trkpt lat="40.6585020" lon="-2.6290940">
        <ele>771.4</ele>
        <time>2019-07-07T05:06:13Z</time>
      </trkpt>
      <trkpt lat="40.6583800" lon="-2.6292570">
        <ele>770.8</ele>
        <time>2019-07-07T05:06:16Z</time>
      </trkpt>
      <trkpt lat="40.6582110" lon="-2.6293120">
        <ele>770.6</ele>
        <time>2019-07-07T05:06:19Z</time>
      </trkpt>
      <trkpt lat="40.6580900" lon="-2.6293030">
        <ele>770.4</ele>
        <time>2019-07-07T05:06:21Z</time>
      </trkpt>
      <trkpt lat="40.6579100" lon="-2.6293110">
        <ele>770.4</ele>
        <time>2019-07-07T05:06:24Z</time>
      </trkpt>
      <trkpt lat="40.6578550" lon="-2.6293260">
        <ele>770.4</ele>
        <time>2019-07-07T05:06:25Z</time>
      </trkpt>
      <trkpt lat="40.6575650" lon="-2.6294650">
        <ele>771.0</ele>
        <time>2019-07-07T05:06:31Z</time>
      </trkpt>
      <trkpt lat="40.6574200" lon="-2.6295180">
        <ele>771.8</ele>
        <time>2019-07-07T05:06:34Z</time>
      </trkpt>
      <trkpt lat="40.6572160" lon="-2.6295630">
        <ele>772.2</ele>
        <time>2019-07-07T05:06:38Z</time>
      </trkpt>
      <trkpt lat="40.6569080" lon="-2.6296660">
        <ele>772.4</ele>
        <time>2019-07-07T05:06:44Z</time>
      </trkpt>
      <trkpt lat="40.6568590" lon="-2.6297000">
        <ele>772.4</ele>
        <time>2019-07-07T05:06:45Z</time>
      </trkpt>
      <trkpt lat="40.6567150" lon="-2.6299300">
        <ele>772.2</ele>
        <time>2019-07-07T05:06:49Z</time>
      </trkpt>
      <trkpt lat="40.6566440" lon="-2.6300530">
        <ele>772.2</ele>
        <time>2019-07-07T05:06:51Z</time>
      </trkpt>
      <trkpt lat="40.6565510" lon="-2.6301570">
        <ele>772.2</ele>
        <time>2019-07-07T05:06:53Z</time>
      </trkpt>
      <trkpt lat="40.6564110" lon="-2.6303130">
        <ele>772.0</ele>
        <time>2019-07-07T05:06:56Z</time>
      </trkpt>
      <trkpt lat="40.6563490" lon="-2.6304350">
        <ele>772.0</ele>
        <time>2019-07-07T05:06:58Z</time>
      </trkpt>
      <trkpt lat="40.6562550" lon="-2.6306370">
        <ele>773.2</ele>
        <time>2019-07-07T05:07:02Z</time>
      </trkpt>
      <trkpt lat="40.6562260" lon="-2.6306790">
        <ele>773.6</ele>
        <time>2019-07-07T05:07:03Z</time>
      </trkpt>
      <trkpt lat="40.6560990" lon="-2.6308360">
        <ele>774.2</ele>
        <time>2019-07-07T05:07:07Z</time>
      </trkpt>
      <trkpt lat="40.6559900" lon="-2.6309320">
        <ele>774.6</ele>
        <time>2019-07-07T05:07:10Z</time>
      </trkpt>
      <trkpt lat="40.6558640" lon="-2.6310100">
        <ele>775.2</ele>
        <time>2019-07-07T05:07:13Z</time>
      </trkpt>
      <trkpt lat="40.6558170" lon="-2.6310290">
        <ele>775.4</ele>
        <time>2019-07-07T05:07:14Z</time>
      </trkpt>
      <trkpt lat="40.6557700" lon="-2.6310500">
        <ele>775.4</ele>
        <time>2019-07-07T05:07:15Z</time>
      </trkpt>
      <trkpt lat="40.6557260" lon="-2.6310800">
        <ele>775.6</ele>
        <time>2019-07-07T05:07:16Z</time>
      </trkpt>
      <trkpt lat="40.6555260" lon="-2.6313040">
        <ele>775.6</ele>
        <time>2019-07-07T05:07:21Z</time>
      </trkpt>
      <trkpt lat="40.6553090" lon="-2.6315100">
        <ele>775.8</ele>
        <time>2019-07-07T05:07:26Z</time>
      </trkpt>
      <trkpt lat="40.6552350" lon="-2.6316050">
        <ele>775.6</ele>
        <time>2019-07-07T05:07:28Z</time>
      </trkpt>
      <trkpt lat="40.6549950" lon="-2.6318810">
        <ele>776.2</ele>
        <time>2019-07-07T05:07:34Z</time>
      </trkpt>
      <trkpt lat="40.6549520" lon="-2.6319260">
        <ele>776.4</ele>
        <time>2019-07-07T05:07:35Z</time>
      </trkpt>
      <trkpt lat="40.6548600" lon="-2.6320000">
        <ele>776.4</ele>
        <time>2019-07-07T05:07:37Z</time>
      </trkpt>
      <trkpt lat="40.6547210" lon="-2.6321070">
        <ele>776.4</ele>
        <time>2019-07-07T05:07:40Z</time>
      </trkpt>
      <trkpt lat="40.6545150" lon="-2.6324080">
        <ele>776.8</ele>
        <time>2019-07-07T05:07:46Z</time>
      </trkpt>
      <trkpt lat="40.6543460" lon="-2.6326530">
        <ele>777.4</ele>
        <time>2019-07-07T05:07:51Z</time>
      </trkpt>
      <trkpt lat="40.6541980" lon="-2.6328430">
        <ele>778.0</ele>
        <time>2019-07-07T05:07:55Z</time>
      </trkpt>
      <trkpt lat="40.6540540" lon="-2.6330280">
        <ele>778.4</ele>
        <time>2019-07-07T05:07:59Z</time>
      </trkpt>
      <trkpt lat="40.6539250" lon="-2.6332270">
        <ele>779.0</ele>
        <time>2019-07-07T05:08:03Z</time>
      </trkpt>
      <trkpt lat="40.6536700" lon="-2.6335680">
        <ele>779.8</ele>
        <time>2019-07-07T05:08:10Z</time>
      </trkpt>
      <trkpt lat="40.6536400" lon="-2.6336250">
        <ele>779.8</ele>
        <time>2019-07-07T05:08:11Z</time>
      </trkpt>
      <trkpt lat="40.6535700" lon="-2.6338190">
        <ele>780.0</ele>
        <time>2019-07-07T05:08:14Z</time>
      </trkpt>
      <trkpt lat="40.6535450" lon="-2.6338870">
        <ele>780.0</ele>
        <time>2019-07-07T05:08:15Z</time>
      </trkpt>
      <trkpt lat="40.6534200" lon="-2.6340290">
        <ele>779.8</ele>
        <time>2019-07-07T05:08:18Z</time>
      </trkpt>
      <trkpt lat="40.6533120" lon="-2.6340650">
        <ele>779.6</ele>
        <time>2019-07-07T05:08:20Z</time>
      </trkpt>
      <trkpt lat="40.6532630" lon="-2.6340850">
        <ele>779.6</ele>
        <time>2019-07-07T05:08:21Z</time>
      </trkpt>
      <trkpt lat="40.6531750" lon="-2.6341510">
        <ele>780.0</ele>
        <time>2019-07-07T05:08:23Z</time>
      </trkpt>
      <trkpt lat="40.6531020" lon="-2.6342370">
        <ele>780.2</ele>
        <time>2019-07-07T05:08:25Z</time>
      </trkpt>
      <trkpt lat="40.6530110" lon="-2.6343710">
        <ele>781.0</ele>
        <time>2019-07-07T05:08:28Z</time>
      </trkpt>
      <trkpt lat="40.6529800" lon="-2.6344170">
        <ele>781.0</ele>
        <time>2019-07-07T05:08:29Z</time>
      </trkpt>
      <trkpt lat="40.6528480" lon="-2.6346020">
        <ele>782.0</ele>
        <time>2019-07-07T05:08:34Z</time>
      </trkpt>
      <trkpt lat="40.6527160" lon="-2.6346570">
        <ele>782.8</ele>
        <time>2019-07-07T05:08:38Z</time>
      </trkpt>
      <trkpt lat="40.6526810" lon="-2.6346630">
        <ele>783.0</ele>
        <time>2019-07-07T05:08:39Z</time>
      </trkpt>
      <trkpt lat="40.6525660" lon="-2.6346360">
        <ele>783.8</ele>
        <time>2019-07-07T05:08:42Z</time>
      </trkpt>
      <trkpt lat="40.6525270" lon="-2.6346210">
        <ele>783.8</ele>
        <time>2019-07-07T05:08:43Z</time>
      </trkpt>
      <trkpt lat="40.6524890" lon="-2.6346040">
        <ele>784.0</ele>
        <time>2019-07-07T05:08:44Z</time>
      </trkpt>
      <trkpt lat="40.6523420" lon="-2.6345600">
        <ele>784.6</ele>
        <time>2019-07-07T05:08:48Z</time>
      </trkpt>
      <trkpt lat="40.6522820" lon="-2.6345970">
        <ele>784.6</ele>
        <time>2019-07-07T05:08:50Z</time>
      </trkpt>
      <trkpt lat="40.6522430" lon="-2.6346620">
        <ele>785.2</ele>
        <time>2019-07-07T05:08:52Z</time>
      </trkpt>
      <trkpt lat="40.6521940" lon="-2.6347720">
        <ele>786.0</ele>
        <time>2019-07-07T05:08:55Z</time>
      </trkpt>
      <trkpt lat="40.6521760" lon="-2.6348110">
        <ele>786.2</ele>
        <time>2019-07-07T05:08:56Z</time>
      </trkpt>
      <trkpt lat="40.6521300" lon="-2.6348850">
        <ele>786.4</ele>
        <time>2019-07-07T05:08:58Z</time>
      </trkpt>
      <trkpt lat="40.6520790" lon="-2.6349530">
        <ele>787.2</ele>
        <time>2019-07-07T05:09:00Z</time>
      </trkpt>
      <trkpt lat="40.6519580" lon="-2.6350670">
        <ele>788.0</ele>
        <time>2019-07-07T05:09:04Z</time>
      </trkpt>
      <trkpt lat="40.6518960" lon="-2.6351080">
        <ele>788.4</ele>
        <time>2019-07-07T05:09:06Z</time>
      </trkpt>
      <trkpt lat="40.6517790" lon="-2.6351810">
        <ele>789.0</ele>
        <time>2019-07-07T05:09:10Z</time>
      </trkpt>
      <trkpt lat="40.6517270" lon="-2.6352210">
        <ele>789.4</ele>
        <time>2019-07-07T05:09:12Z</time>
      </trkpt>
      <trkpt lat="40.6516560" lon="-2.6352720">
        <ele>790.2</ele>
        <time>2019-07-07T05:09:15Z</time>
      </trkpt>
      <trkpt lat="40.6516330" lon="-2.6352890">
        <ele>790.6</ele>
        <time>2019-07-07T05:09:16Z</time>
      </trkpt>
      <trkpt lat="40.6515800" lon="-2.6353390">
        <ele>791.8</ele>
        <time>2019-07-07T05:09:19Z</time>
      </trkpt>
      <trkpt lat="40.6515380" lon="-2.6353650">
        <ele>792.6</ele>
        <time>2019-07-07T05:09:21Z</time>
      </trkpt>
      <trkpt lat="40.6515170" lon="-2.6353760">
        <ele>793.0</ele>
        <time>2019-07-07T05:09:22Z</time>
      </trkpt>
      <trkpt lat="40.6514030" lon="-2.6354050">
        <ele>794.2</ele>
        <time>2019-07-07T05:09:27Z</time>
      </trkpt>
      <trkpt lat="40.6512770" lon="-2.6353890">
        <ele>795.4</ele>
        <time>2019-07-07T05:09:32Z</time>
      </trkpt>
      <trkpt lat="40.6512250" lon="-2.6353970">
        <ele>795.6</ele>
        <time>2019-07-07T05:09:34Z</time>
      </trkpt>
      <trkpt lat="40.6510920" lon="-2.6354600">
        <ele>796.4</ele>
        <time>2019-07-07T05:09:40Z</time>
      </trkpt>
      <trkpt lat="40.6510190" lon="-2.6355110">
        <ele>797.6</ele>
        <time>2019-07-07T05:09:44Z</time>
      </trkpt>
      <trkpt lat="40.6510020" lon="-2.6355280">
        <ele>797.8</ele>
        <time>2019-07-07T05:09:45Z</time>
      </trkpt>
      <trkpt lat="40.6509410" lon="-2.6355670">
        <ele>798.8</ele>
        <time>2019-07-07T05:09:48Z</time>
      </trkpt>
      <trkpt lat="40.6508540" lon="-2.6356060">
        <ele>800.0</ele>
        <time>2019-07-07T05:09:52Z</time>
      </trkpt>
      <trkpt lat="40.6507150" lon="-2.6356290">
        <ele>801.0</ele>
        <time>2019-07-07T05:09:58Z</time>
      </trkpt>
      <trkpt lat="40.6506940" lon="-2.6356300">
        <ele>801.2</ele>
        <time>2019-07-07T05:09:59Z</time>
      </trkpt>
      <trkpt lat="40.6506120" lon="-2.6356400">
        <ele>802.4</ele>
        <time>2019-07-07T05:10:03Z</time>
      </trkpt>
      <trkpt lat="40.6505470" lon="-2.6356560">
        <ele>803.0</ele>
        <time>2019-07-07T05:10:06Z</time>
      </trkpt>
      <trkpt lat="40.6505260" lon="-2.6356620">
        <ele>803.4</ele>
        <time>2019-07-07T05:10:07Z</time>
      </trkpt>
      <trkpt lat="40.6504850" lon="-2.6356790">
        <ele>804.0</ele>
        <time>2019-07-07T05:10:09Z</time>
      </trkpt>
      <trkpt lat="40.6504400" lon="-2.6356930">
        <ele>804.6</ele>
        <time>2019-07-07T05:10:11Z</time>
      </trkpt>
      <trkpt lat="40.6503750" lon="-2.6357140">
        <ele>805.2</ele>
        <time>2019-07-07T05:10:14Z</time>
      </trkpt>
      <trkpt lat="40.6503340" lon="-2.6357310">
        <ele>805.6</ele>
        <time>2019-07-07T05:10:16Z</time>
      </trkpt>
      <trkpt lat="40.6502460" lon="-2.6357680">
        <ele>806.8</ele>
        <time>2019-07-07T05:10:20Z</time>
      </trkpt>
      <trkpt lat="40.6502060" lon="-2.6357920">
        <ele>807.4</ele>
        <time>2019-07-07T05:10:22Z</time>
      </trkpt>
      <trkpt lat="40.6501430" lon="-2.6358280">
        <ele>808.2</ele>
        <time>2019-07-07T05:10:25Z</time>
      </trkpt>
      <trkpt lat="40.6500590" lon="-2.6358760">
        <ele>808.8</ele>
        <time>2019-07-07T05:10:29Z</time>
      </trkpt>
      <trkpt lat="40.6500200" lon="-2.6358990">
        <ele>809.4</ele>
        <time>2019-07-07T05:10:31Z</time>
      </trkpt>
      <trkpt lat="40.6499490" lon="-2.6359570">
        <ele>810.6</ele>
        <time>2019-07-07T05:10:35Z</time>
      </trkpt>
      <trkpt lat="40.6499300" lon="-2.6359730">
        <ele>810.8</ele>
        <time>2019-07-07T05:10:36Z</time>
      </trkpt>
      <trkpt lat="40.6498760" lon="-2.6360170">
        <ele>811.6</ele>
        <time>2019-07-07T05:10:39Z</time>
      </trkpt>
      <trkpt lat="40.6498540" lon="-2.6360310">
        <ele>811.8</ele>
        <time>2019-07-07T05:10:40Z</time>
      </trkpt>
      <trkpt lat="40.6498340" lon="-2.6360460">
        <ele>812.0</ele>
        <time>2019-07-07T05:10:41Z</time>
      </trkpt>
      <trkpt lat="40.6497710" lon="-2.6360850">
        <ele>812.8</ele>
        <time>2019-07-07T05:10:44Z</time>
      </trkpt>
      <trkpt lat="40.6497100" lon="-2.6361260">
        <ele>813.6</ele>
        <time>2019-07-07T05:10:47Z</time>
      </trkpt>
      <trkpt lat="40.6496650" lon="-2.6361470">
        <ele>814.0</ele>
        <time>2019-07-07T05:10:49Z</time>
      </trkpt>
      <trkpt lat="40.6495710" lon="-2.6361910">
        <ele>815.0</ele>
        <time>2019-07-07T05:10:53Z</time>
      </trkpt>
      <trkpt lat="40.6495160" lon="-2.6362360">
        <ele>816.2</ele>
        <time>2019-07-07T05:10:56Z</time>
      </trkpt>
      <trkpt lat="40.6494650" lon="-2.6362750">
        <ele>817.0</ele>
        <time>2019-07-07T05:10:59Z</time>
      </trkpt>
      <trkpt lat="40.6494480" lon="-2.6362870">
        <ele>817.2</ele>
        <time>2019-07-07T05:11:00Z</time>
      </trkpt>
      <trkpt lat="40.6493720" lon="-2.6363290">
        <ele>818.4</ele>
        <time>2019-07-07T05:11:04Z</time>
      </trkpt>
      <trkpt lat="40.6493530" lon="-2.6363400">
        <ele>818.6</ele>
        <time>2019-07-07T05:11:05Z</time>
      </trkpt>
      <trkpt lat="40.6492760" lon="-2.6363850">
        <ele>819.4</ele>
        <time>2019-07-07T05:11:09Z</time>
      </trkpt>
      <trkpt lat="40.6491890" lon="-2.6364260">
        <ele>820.0</ele>
        <time>2019-07-07T05:11:13Z</time>
      </trkpt>
      <trkpt lat="40.6490040" lon="-2.6364800">
        <ele>820.4</ele>
        <time>2019-07-07T05:11:19Z</time>
      </trkpt>
      <trkpt lat="40.6488490" lon="-2.6364940">
        <ele>820.2</ele>
        <time>2019-07-07T05:11:23Z</time>
      </trkpt>
      <trkpt lat="40.6487400" lon="-2.6364990">
        <ele>819.8</ele>
        <time>2019-07-07T05:11:26Z</time>
      </trkpt>
      <trkpt lat="40.6486250" lon="-2.6365040">
        <ele>819.8</ele>
        <time>2019-07-07T05:11:29Z</time>
      </trkpt>
      <trkpt lat="40.6485430" lon="-2.6365160">
        <ele>819.8</ele>
        <time>2019-07-07T05:11:31Z</time>
      </trkpt>
      <trkpt lat="40.6484550" lon="-2.6365340">
        <ele>819.8</ele>
        <time>2019-07-07T05:11:33Z</time>
      </trkpt>
      <trkpt lat="40.6483590" lon="-2.6365580">
        <ele>819.4</ele>
        <time>2019-07-07T05:11:35Z</time>
      </trkpt>
      <trkpt lat="40.6482590" lon="-2.6365850">
        <ele>819.0</ele>
        <time>2019-07-07T05:11:37Z</time>
      </trkpt>
      <trkpt lat="40.6482070" lon="-2.6365890">
        <ele>818.8</ele>
        <time>2019-07-07T05:11:38Z</time>
      </trkpt>
      <trkpt lat="40.6481560" lon="-2.6365840">
        <ele>818.8</ele>
        <time>2019-07-07T05:11:39Z</time>
      </trkpt>
      <trkpt lat="40.6480560" lon="-2.6365570">
        <ele>818.6</ele>
        <time>2019-07-07T05:11:41Z</time>
      </trkpt>
      <trkpt lat="40.6480090" lon="-2.6365400">
        <ele>818.6</ele>
        <time>2019-07-07T05:11:42Z</time>
      </trkpt>
      <trkpt lat="40.6478600" lon="-2.6364890">
        <ele>818.4</ele>
        <time>2019-07-07T05:11:45Z</time>
      </trkpt>
      <trkpt lat="40.6478100" lon="-2.6364720">
        <ele>818.4</ele>
        <time>2019-07-07T05:11:46Z</time>
      </trkpt>
      <trkpt lat="40.6477620" lon="-2.6364500">
        <ele>818.2</ele>
        <time>2019-07-07T05:11:47Z</time>
      </trkpt>
      <trkpt lat="40.6477130" lon="-2.6364390">
        <ele>818.2</ele>
        <time>2019-07-07T05:11:48Z</time>
      </trkpt>
      <trkpt lat="40.6476650" lon="-2.6364490">
        <ele>818.2</ele>
        <time>2019-07-07T05:11:49Z</time>
      </trkpt>
      <trkpt lat="40.6475980" lon="-2.6365280">
        <ele>818.2</ele>
        <time>2019-07-07T05:11:51Z</time>
      </trkpt>
      <trkpt lat="40.6475850" lon="-2.6365780">
        <ele>818.4</ele>
        <time>2019-07-07T05:11:52Z</time>
      </trkpt>
      <trkpt lat="40.6475900" lon="-2.6366890">
        <ele>818.6</ele>
        <time>2019-07-07T05:11:54Z</time>
      </trkpt>
      <trkpt lat="40.6476020" lon="-2.6368100">
        <ele>818.6</ele>
        <time>2019-07-07T05:11:56Z</time>
      </trkpt>
      <trkpt lat="40.6476810" lon="-2.6372150">
        <ele>818.4</ele>
        <time>2019-07-07T05:12:02Z</time>
      </trkpt>
      <trkpt lat="40.6477750" lon="-2.6375240">
        <ele>818.8</ele>
        <time>2019-07-07T05:12:07Z</time>
      </trkpt>
      <trkpt lat="40.6478010" lon="-2.6376480">
        <ele>819.0</ele>
        <time>2019-07-07T05:12:09Z</time>
      </trkpt>
      <trkpt lat="40.6478260" lon="-2.6377620">
        <ele>819.6</ele>
        <time>2019-07-07T05:12:11Z</time>
      </trkpt>
      <trkpt lat="40.6478410" lon="-2.6378180">
        <ele>819.8</ele>
        <time>2019-07-07T05:12:12Z</time>
      </trkpt>
      <trkpt lat="40.6478830" lon="-2.6379800">
        <ele>819.8</ele>
        <time>2019-07-07T05:12:15Z</time>
      </trkpt>
      <trkpt lat="40.6479120" lon="-2.6381960">
        <ele>820.4</ele>
        <time>2019-07-07T05:12:19Z</time>
      </trkpt>
      <trkpt lat="40.6479130" lon="-2.6382590">
        <ele>820.6</ele>
        <time>2019-07-07T05:12:20Z</time>
      </trkpt>
      <trkpt lat="40.6479190" lon="-2.6383250">
        <ele>820.6</ele>
        <time>2019-07-07T05:12:21Z</time>
      </trkpt>
      <trkpt lat="40.6479930" lon="-2.6384830">
        <ele>821.0</ele>
        <time>2019-07-07T05:12:24Z</time>
      </trkpt>
      <trkpt lat="40.6480260" lon="-2.6385210">
        <ele>821.0</ele>
        <time>2019-07-07T05:12:25Z</time>
      </trkpt>
      <trkpt lat="40.6480910" lon="-2.6385990">
        <ele>821.2</ele>
        <time>2019-07-07T05:12:27Z</time>
      </trkpt>
      <trkpt lat="40.6481490" lon="-2.6386840">
        <ele>821.8</ele>
        <time>2019-07-07T05:12:29Z</time>
      </trkpt>
      <trkpt lat="40.6482040" lon="-2.6387780">
        <ele>822.0</ele>
        <time>2019-07-07T05:12:31Z</time>
      </trkpt>
      <trkpt lat="40.6483370" lon="-2.6390360">
        <ele>822.2</ele>
        <time>2019-07-07T05:12:36Z</time>
      </trkpt>
      <trkpt lat="40.6483960" lon="-2.6391990">
        <ele>822.6</ele>
        <time>2019-07-07T05:12:39Z</time>
      </trkpt>
      <trkpt lat="40.6484110" lon="-2.6393160">
        <ele>822.8</ele>
        <time>2019-07-07T05:12:41Z</time>
      </trkpt>
      <trkpt lat="40.6484290" lon="-2.6394350">
        <ele>823.2</ele>
        <time>2019-07-07T05:12:43Z</time>
      </trkpt>
      <trkpt lat="40.6484480" lon="-2.6394940">
        <ele>823.2</ele>
        <time>2019-07-07T05:12:44Z</time>
      </trkpt>
      <trkpt lat="40.6486120" lon="-2.6398280">
        <ele>822.8</ele>
        <time>2019-07-07T05:12:50Z</time>
      </trkpt>
      <trkpt lat="40.6486460" lon="-2.6398610">
        <ele>822.6</ele>
        <time>2019-07-07T05:12:51Z</time>
      </trkpt>
      <trkpt lat="40.6487290" lon="-2.6399080">
        <ele>821.6</ele>
        <time>2019-07-07T05:12:53Z</time>
      </trkpt>
      <trkpt lat="40.6487770" lon="-2.6399240">
        <ele>821.0</ele>
        <time>2019-07-07T05:12:54Z</time>
      </trkpt>
      <trkpt lat="40.6488820" lon="-2.6399620">
        <ele>820.6</ele>
        <time>2019-07-07T05:12:56Z</time>
      </trkpt>
      <trkpt lat="40.6490410" lon="-2.6400560">
        <ele>819.4</ele>
        <time>2019-07-07T05:12:59Z</time>
      </trkpt>
      <trkpt lat="40.6491720" lon="-2.6402320">
        <ele>818.6</ele>
        <time>2019-07-07T05:13:02Z</time>
      </trkpt>
      <trkpt lat="40.6492020" lon="-2.6403080">
        <ele>818.4</ele>
        <time>2019-07-07T05:13:03Z</time>
      </trkpt>
      <trkpt lat="40.6492290" lon="-2.6403880">
        <ele>818.2</ele>
        <time>2019-07-07T05:13:04Z</time>
      </trkpt>
      <trkpt lat="40.6493370" lon="-2.6407170">
        <ele>817.0</ele>
        <time>2019-07-07T05:13:08Z</time>
      </trkpt>
      <trkpt lat="40.6493550" lon="-2.6408040">
        <ele>816.8</ele>
        <time>2019-07-07T05:13:09Z</time>
      </trkpt>
      <trkpt lat="40.6493770" lon="-2.6409770">
        <ele>816.4</ele>
        <time>2019-07-07T05:13:11Z</time>
      </trkpt>
      <trkpt lat="40.6493810" lon="-2.6411430">
        <ele>816.4</ele>
        <time>2019-07-07T05:13:13Z</time>
      </trkpt>
      <trkpt lat="40.6493830" lon="-2.6412230">
        <ele>816.2</ele>
        <time>2019-07-07T05:13:14Z</time>
      </trkpt>
      <trkpt lat="40.6494330" lon="-2.6414430">
        <ele>816.0</ele>
        <time>2019-07-07T05:13:17Z</time>
      </trkpt>
      <trkpt lat="40.6494990" lon="-2.6415610">
        <ele>815.8</ele>
        <time>2019-07-07T05:13:19Z</time>
      </trkpt>
      <trkpt lat="40.6495270" lon="-2.6416190">
        <ele>815.8</ele>
        <time>2019-07-07T05:13:20Z</time>
      </trkpt>
      <trkpt lat="40.6495720" lon="-2.6417370">
        <ele>815.8</ele>
        <time>2019-07-07T05:13:22Z</time>
      </trkpt>
      <trkpt lat="40.6496660" lon="-2.6418640">
        <ele>816.4</ele>
        <time>2019-07-07T05:13:25Z</time>
      </trkpt>
      <trkpt lat="40.6496990" lon="-2.6418930">
        <ele>816.6</ele>
        <time>2019-07-07T05:13:26Z</time>
      </trkpt>
      <trkpt lat="40.6497670" lon="-2.6419580">
        <ele>817.0</ele>
        <time>2019-07-07T05:13:28Z</time>
      </trkpt>
      <trkpt lat="40.6498800" lon="-2.6420890">
        <ele>817.4</ele>
        <time>2019-07-07T05:13:32Z</time>
      </trkpt>
      <trkpt lat="40.6499650" lon="-2.6422420">
        <ele>817.8</ele>
        <time>2019-07-07T05:13:36Z</time>
      </trkpt>
      <trkpt lat="40.6499790" lon="-2.6422850">
        <ele>818.0</ele>
        <time>2019-07-07T05:13:37Z</time>
      </trkpt>
      <trkpt lat="40.6499930" lon="-2.6423310">
        <ele>818.2</ele>
        <time>2019-07-07T05:13:38Z</time>
      </trkpt>
      <trkpt lat="40.6500410" lon="-2.6424680">
        <ele>819.2</ele>
        <time>2019-07-07T05:13:41Z</time>
      </trkpt>
      <trkpt lat="40.6501240" lon="-2.6425980">
        <ele>819.8</ele>
        <time>2019-07-07T05:13:44Z</time>
      </trkpt>
      <trkpt lat="40.6501580" lon="-2.6426370">
        <ele>820.0</ele>
        <time>2019-07-07T05:13:45Z</time>
      </trkpt>
      <trkpt lat="40.6502720" lon="-2.6427170">
        <ele>820.0</ele>
        <time>2019-07-07T05:13:48Z</time>
      </trkpt>
      <trkpt lat="40.6503830" lon="-2.6427940">
        <ele>820.0</ele>
        <time>2019-07-07T05:13:51Z</time>
      </trkpt>
      <trkpt lat="40.6504460" lon="-2.6428730">
        <ele>820.2</ele>
        <time>2019-07-07T05:13:53Z</time>
      </trkpt>
      <trkpt lat="40.6504730" lon="-2.6429210">
        <ele>820.4</ele>
        <time>2019-07-07T05:13:54Z</time>
      </trkpt>
      <trkpt lat="40.6505190" lon="-2.6430190">
        <ele>820.4</ele>
        <time>2019-07-07T05:13:56Z</time>
      </trkpt>
      <trkpt lat="40.6505590" lon="-2.6431920">
        <ele>820.6</ele>
        <time>2019-07-07T05:13:59Z</time>
      </trkpt>
      <trkpt lat="40.6505690" lon="-2.6432600">
        <ele>820.6</ele>
        <time>2019-07-07T05:14:00Z</time>
      </trkpt>
      <trkpt lat="40.6506330" lon="-2.6436260">
        <ele>820.2</ele>
        <time>2019-07-07T05:14:05Z</time>
      </trkpt>
      <trkpt lat="40.6507380" lon="-2.6441640">
        <ele>819.4</ele>
        <time>2019-07-07T05:14:12Z</time>
      </trkpt>
      <trkpt lat="40.6507850" lon="-2.6443100">
        <ele>819.2</ele>
        <time>2019-07-07T05:14:14Z</time>
      </trkpt>
      <trkpt lat="40.6508570" lon="-2.6445950">
        <ele>818.6</ele>
        <time>2019-07-07T05:14:18Z</time>
      </trkpt>
      <trkpt lat="40.6508480" lon="-2.6448150">
        <ele>818.2</ele>
        <time>2019-07-07T05:14:21Z</time>
      </trkpt>
      <trkpt lat="40.6508410" lon="-2.6448860">
        <ele>818.2</ele>
        <time>2019-07-07T05:14:22Z</time>
      </trkpt>
      <trkpt lat="40.6508380" lon="-2.6451670">
        <ele>818.4</ele>
        <time>2019-07-07T05:14:26Z</time>
      </trkpt>
      <trkpt lat="40.6508540" lon="-2.6453100">
        <ele>818.4</ele>
        <time>2019-07-07T05:14:28Z</time>
      </trkpt>
      <trkpt lat="40.6508870" lon="-2.6455380">
        <ele>818.0</ele>
        <time>2019-07-07T05:14:31Z</time>
      </trkpt>
      <trkpt lat="40.6509010" lon="-2.6456140">
        <ele>817.8</ele>
        <time>2019-07-07T05:14:32Z</time>
      </trkpt>
      <trkpt lat="40.6509440" lon="-2.6457670">
        <ele>817.6</ele>
        <time>2019-07-07T05:14:34Z</time>
      </trkpt>
      <trkpt lat="40.6510200" lon="-2.6459980">
        <ele>817.2</ele>
        <time>2019-07-07T05:14:37Z</time>
      </trkpt>
      <trkpt lat="40.6511130" lon="-2.6463980">
        <ele>816.4</ele>
        <time>2019-07-07T05:14:42Z</time>
      </trkpt>
      <trkpt lat="40.6511560" lon="-2.6466330">
        <ele>816.0</ele>
        <time>2019-07-07T05:14:45Z</time>
      </trkpt>
      <trkpt lat="40.6511710" lon="-2.6467880">
        <ele>816.0</ele>
        <time>2019-07-07T05:14:47Z</time>
      </trkpt>
      <trkpt lat="40.6511700" lon="-2.6468660">
        <ele>816.0</ele>
        <time>2019-07-07T05:14:48Z</time>
      </trkpt>
      <trkpt lat="40.6510920" lon="-2.6471600">
        <ele>815.8</ele>
        <time>2019-07-07T05:14:52Z</time>
      </trkpt>
      <trkpt lat="40.6509250" lon="-2.6473800">
        <ele>815.4</ele>
        <time>2019-07-07T05:14:56Z</time>
      </trkpt>
      <trkpt lat="40.6508810" lon="-2.6474280">
        <ele>815.2</ele>
        <time>2019-07-07T05:14:57Z</time>
      </trkpt>
      <trkpt lat="40.6505450" lon="-2.6477590">
        <ele>815.0</ele>
        <time>2019-07-07T05:15:04Z</time>
      </trkpt>
      <trkpt lat="40.6504910" lon="-2.6478050">
        <ele>814.6</ele>
        <time>2019-07-07T05:15:05Z</time>
      </trkpt>
      <trkpt lat="40.6502590" lon="-2.6479800">
        <ele>813.8</ele>
        <time>2019-07-07T05:15:09Z</time>
      </trkpt>
      <trkpt lat="40.6500880" lon="-2.6481050">
        <ele>813.4</ele>
        <time>2019-07-07T05:15:12Z</time>
      </trkpt>
      <trkpt lat="40.6500360" lon="-2.6481450">
        <ele>813.4</ele>
        <time>2019-07-07T05:15:13Z</time>
      </trkpt>
      <trkpt lat="40.6498780" lon="-2.6482570">
        <ele>813.4</ele>
        <time>2019-07-07T05:15:16Z</time>
      </trkpt>
      <trkpt lat="40.6497710" lon="-2.6483160">
        <ele>813.4</ele>
        <time>2019-07-07T05:15:18Z</time>
      </trkpt>
      <trkpt lat="40.6497210" lon="-2.6483460">
        <ele>813.4</ele>
        <time>2019-07-07T05:15:19Z</time>
      </trkpt>
      <trkpt lat="40.6495840" lon="-2.6485260">
        <ele>813.8</ele>
        <time>2019-07-07T05:15:23Z</time>
      </trkpt>
      <trkpt lat="40.6495380" lon="-2.6488570">
        <ele>813.8</ele>
        <time>2019-07-07T05:15:28Z</time>
      </trkpt>
      <trkpt lat="40.6496150" lon="-2.6491070">
        <ele>813.6</ele>
        <time>2019-07-07T05:15:32Z</time>
      </trkpt>
      <trkpt lat="40.6497480" lon="-2.6493870">
        <ele>814.0</ele>
        <time>2019-07-07T05:15:37Z</time>
      </trkpt>
      <trkpt lat="40.6497200" lon="-2.6495850">
        <ele>814.0</ele>
        <time>2019-07-07T05:15:40Z</time>
      </trkpt>
      <trkpt lat="40.6496410" lon="-2.6497450">
        <ele>814.0</ele>
        <time>2019-07-07T05:15:43Z</time>
      </trkpt>
      <trkpt lat="40.6495850" lon="-2.6498590">
        <ele>814.0</ele>
        <time>2019-07-07T05:15:45Z</time>
      </trkpt>
      <trkpt lat="40.6494970" lon="-2.6500400">
        <ele>814.2</ele>
        <time>2019-07-07T05:15:48Z</time>
      </trkpt>
      <trkpt lat="40.6494390" lon="-2.6501620">
        <ele>814.2</ele>
        <time>2019-07-07T05:15:50Z</time>
      </trkpt>
      <trkpt lat="40.6493850" lon="-2.6502840">
        <ele>814.4</ele>
        <time>2019-07-07T05:15:52Z</time>
      </trkpt>
      <trkpt lat="40.6492700" lon="-2.6505820">
        <ele>814.8</ele>
        <time>2019-07-07T05:15:57Z</time>
      </trkpt>
      <trkpt lat="40.6492500" lon="-2.6506430">
        <ele>814.8</ele>
        <time>2019-07-07T05:15:58Z</time>
      </trkpt>
      <trkpt lat="40.6492080" lon="-2.6507790">
        <ele>814.8</ele>
        <time>2019-07-07T05:16:00Z</time>
      </trkpt>
      <trkpt lat="40.6490160" lon="-2.6513190">
        <ele>813.6</ele>
        <time>2019-07-07T05:16:07Z</time>
      </trkpt>
      <trkpt lat="40.6489730" lon="-2.6514650">
        <ele>813.4</ele>
        <time>2019-07-07T05:16:09Z</time>
      </trkpt>
      <trkpt lat="40.6489610" lon="-2.6515210">
        <ele>813.2</ele>
        <time>2019-07-07T05:16:10Z</time>
      </trkpt>
      <trkpt lat="40.6489530" lon="-2.6515720">
        <ele>813.0</ele>
        <time>2019-07-07T05:16:11Z</time>
      </trkpt>
      <trkpt lat="40.6489460" lon="-2.6516240">
        <ele>812.8</ele>
        <time>2019-07-07T05:16:12Z</time>
      </trkpt>
      <trkpt lat="40.6489450" lon="-2.6516800">
        <ele>812.6</ele>
        <time>2019-07-07T05:16:13Z</time>
      </trkpt>
      <trkpt lat="40.6489610" lon="-2.6517940">
        <ele>812.4</ele>
        <time>2019-07-07T05:16:15Z</time>
      </trkpt>
      <trkpt lat="40.6489710" lon="-2.6518510">
        <ele>812.4</ele>
        <time>2019-07-07T05:16:16Z</time>
      </trkpt>
      <trkpt lat="40.6489850" lon="-2.6519080">
        <ele>812.4</ele>
        <time>2019-07-07T05:16:17Z</time>
      </trkpt>
      <trkpt lat="40.6490540" lon="-2.6521400">
        <ele>812.6</ele>
        <time>2019-07-07T05:16:21Z</time>
      </trkpt>
      <trkpt lat="40.6491110" lon="-2.6522940">
        <ele>813.0</ele>
        <time>2019-07-07T05:16:24Z</time>
      </trkpt>
      <trkpt lat="40.6491610" lon="-2.6524390">
        <ele>813.6</ele>
        <time>2019-07-07T05:16:27Z</time>
      </trkpt>
      <trkpt lat="40.6491780" lon="-2.6524830">
        <ele>813.8</ele>
        <time>2019-07-07T05:16:28Z</time>
      </trkpt>
      <trkpt lat="40.6492460" lon="-2.6526420">
        <ele>814.6</ele>
        <time>2019-07-07T05:16:32Z</time>
      </trkpt>
      <trkpt lat="40.6492790" lon="-2.6527240">
        <ele>814.8</ele>
        <time>2019-07-07T05:16:34Z</time>
      </trkpt>
      <trkpt lat="40.6493160" lon="-2.6528110">
        <ele>815.0</ele>
        <time>2019-07-07T05:16:36Z</time>
      </trkpt>
      <trkpt lat="40.6493660" lon="-2.6529210">
        <ele>816.2</ele>
        <time>2019-07-07T05:16:39Z</time>
      </trkpt>
      <trkpt lat="40.6493820" lon="-2.6529520">
        <ele>816.4</ele>
        <time>2019-07-07T05:16:40Z</time>
      </trkpt>
      <trkpt lat="40.6494410" lon="-2.6530690">
        <ele>817.6</ele>
        <time>2019-07-07T05:16:44Z</time>
      </trkpt>
      <trkpt lat="40.6494850" lon="-2.6531720">
        <ele>818.4</ele>
        <time>2019-07-07T05:16:48Z</time>
      </trkpt>
      <trkpt lat="40.6494940" lon="-2.6531990">
        <ele>818.6</ele>
        <time>2019-07-07T05:16:49Z</time>
      </trkpt>
      <trkpt lat="40.6495310" lon="-2.6533020">
        <ele>819.8</ele>
        <time>2019-07-07T05:16:53Z</time>
      </trkpt>
      <trkpt lat="40.6495660" lon="-2.6533800">
        <ele>820.6</ele>
        <time>2019-07-07T05:16:56Z</time>
      </trkpt>
      <trkpt lat="40.6495780" lon="-2.6534060">
        <ele>821.0</ele>
        <time>2019-07-07T05:16:57Z</time>
      </trkpt>
      <trkpt lat="40.6496160" lon="-2.6534830">
        <ele>821.8</ele>
        <time>2019-07-07T05:17:00Z</time>
      </trkpt>
      <trkpt lat="40.6496280" lon="-2.6535090">
        <ele>822.2</ele>
        <time>2019-07-07T05:17:01Z</time>
      </trkpt>
      <trkpt lat="40.6496680" lon="-2.6535840">
        <ele>822.8</ele>
        <time>2019-07-07T05:17:04Z</time>
      </trkpt>
      <trkpt lat="40.6497250" lon="-2.6536640">
        <ele>823.2</ele>
        <time>2019-07-07T05:17:07Z</time>
      </trkpt>
      <trkpt lat="40.6498010" lon="-2.6537640">
        <ele>823.8</ele>
        <time>2019-07-07T05:17:11Z</time>
      </trkpt>
      <trkpt lat="40.6498370" lon="-2.6538160">
        <ele>824.4</ele>
        <time>2019-07-07T05:17:13Z</time>
      </trkpt>
      <trkpt lat="40.6499020" lon="-2.6539640">
        <ele>824.8</ele>
        <time>2019-07-07T05:17:17Z</time>
      </trkpt>
      <trkpt lat="40.6499150" lon="-2.6542320">
        <ele>824.4</ele>
        <time>2019-07-07T05:17:22Z</time>
      </trkpt>
      <trkpt lat="40.6499170" lon="-2.6544120">
        <ele>823.8</ele>
        <time>2019-07-07T05:17:25Z</time>
      </trkpt>
      <trkpt lat="40.6499150" lon="-2.6545430">
        <ele>823.6</ele>
        <time>2019-07-07T05:17:27Z</time>
      </trkpt>
      <trkpt lat="40.6499150" lon="-2.6546110">
        <ele>823.4</ele>
        <time>2019-07-07T05:17:28Z</time>
      </trkpt>
      <trkpt lat="40.6499140" lon="-2.6546800">
        <ele>823.2</ele>
        <time>2019-07-07T05:17:29Z</time>
      </trkpt>
      <trkpt lat="40.6498920" lon="-2.6548880">
        <ele>822.8</ele>
        <time>2019-07-07T05:17:32Z</time>
      </trkpt>
      <trkpt lat="40.6498550" lon="-2.6550170">
        <ele>822.4</ele>
        <time>2019-07-07T05:17:34Z</time>
      </trkpt>
      <trkpt lat="40.6498250" lon="-2.6550730">
        <ele>822.0</ele>
        <time>2019-07-07T05:17:35Z</time>
      </trkpt>
      <trkpt lat="40.6497460" lon="-2.6551700">
        <ele>821.2</ele>
        <time>2019-07-07T05:17:37Z</time>
      </trkpt>
      <trkpt lat="40.6496520" lon="-2.6552510">
        <ele>820.8</ele>
        <time>2019-07-07T05:17:39Z</time>
      </trkpt>
      <trkpt lat="40.6496100" lon="-2.6552960">
        <ele>820.8</ele>
        <time>2019-07-07T05:17:40Z</time>
      </trkpt>
      <trkpt lat="40.6495690" lon="-2.6554010">
        <ele>820.6</ele>
        <time>2019-07-07T05:17:42Z</time>
      </trkpt>
      <trkpt lat="40.6495860" lon="-2.6555020">
        <ele>820.4</ele>
        <time>2019-07-07T05:17:44Z</time>
      </trkpt>
      <trkpt lat="40.6496080" lon="-2.6555450">
        <ele>820.4</ele>
        <time>2019-07-07T05:17:45Z</time>
      </trkpt>
      <trkpt lat="40.6496340" lon="-2.6555870">
        <ele>820.4</ele>
        <time>2019-07-07T05:17:46Z</time>
      </trkpt>
      <trkpt lat="40.6497230" lon="-2.6557150">
        <ele>820.4</ele>
        <time>2019-07-07T05:17:49Z</time>
      </trkpt>
      <trkpt lat="40.6497830" lon="-2.6558020">
        <ele>820.6</ele>
        <time>2019-07-07T05:17:51Z</time>
      </trkpt>
      <trkpt lat="40.6498080" lon="-2.6558480">
        <ele>820.6</ele>
        <time>2019-07-07T05:17:52Z</time>
      </trkpt>
      <trkpt lat="40.6498300" lon="-2.6558950">
        <ele>820.8</ele>
        <time>2019-07-07T05:17:53Z</time>
      </trkpt>
      <trkpt lat="40.6499220" lon="-2.6560860">
        <ele>821.6</ele>
        <time>2019-07-07T05:17:57Z</time>
      </trkpt>
      <trkpt lat="40.6500150" lon="-2.6561910">
        <ele>822.2</ele>
        <time>2019-07-07T05:18:00Z</time>
      </trkpt>
      <trkpt lat="40.6500500" lon="-2.6562180">
        <ele>822.4</ele>
        <time>2019-07-07T05:18:01Z</time>
      </trkpt>
      <trkpt lat="40.6502640" lon="-2.6563360">
        <ele>823.6</ele>
        <time>2019-07-07T05:18:07Z</time>
      </trkpt>
      <trkpt lat="40.6504730" lon="-2.6564800">
        <ele>824.2</ele>
        <time>2019-07-07T05:18:13Z</time>
      </trkpt>
      <trkpt lat="40.6507480" lon="-2.6567390">
        <ele>824.0</ele>
        <time>2019-07-07T05:18:20Z</time>
      </trkpt>
      <trkpt lat="40.6509270" lon="-2.6569360">
        <ele>824.0</ele>
        <time>2019-07-07T05:18:25Z</time>
      </trkpt>
      <trkpt lat="40.6510250" lon="-2.6570700">
        <ele>824.4</ele>
        <time>2019-07-07T05:18:28Z</time>
      </trkpt>
      <trkpt lat="40.6510770" lon="-2.6571720">
        <ele>824.6</ele>
        <time>2019-07-07T05:18:30Z</time>
      </trkpt>
      <trkpt lat="40.6511010" lon="-2.6572330">
        <ele>824.6</ele>
        <time>2019-07-07T05:18:31Z</time>
      </trkpt>
      <trkpt lat="40.6511820" lon="-2.6574320">
        <ele>824.4</ele>
        <time>2019-07-07T05:18:34Z</time>
      </trkpt>
      <trkpt lat="40.6513090" lon="-2.6577620">
        <ele>824.0</ele>
        <time>2019-07-07T05:18:39Z</time>
      </trkpt>
      <trkpt lat="40.6514220" lon="-2.6580980">
        <ele>825.0</ele>
        <time>2019-07-07T05:18:45Z</time>
      </trkpt>
      <trkpt lat="40.6515060" lon="-2.6584070">
        <ele>825.6</ele>
        <time>2019-07-07T05:18:51Z</time>
      </trkpt>
      <trkpt lat="40.6515150" lon="-2.6585180">
        <ele>826.2</ele>
        <time>2019-07-07T05:18:53Z</time>
      </trkpt>
      <trkpt lat="40.6515110" lon="-2.6585750">
        <ele>826.4</ele>
        <time>2019-07-07T05:18:54Z</time>
      </trkpt>
      <trkpt lat="40.6515050" lon="-2.6586300">
        <ele>826.6</ele>
        <time>2019-07-07T05:18:55Z</time>
      </trkpt>
      <trkpt lat="40.6514660" lon="-2.6588400">
        <ele>827.4</ele>
        <time>2019-07-07T05:18:59Z</time>
      </trkpt>
      <trkpt lat="40.6514580" lon="-2.6588930">
        <ele>827.6</ele>
        <time>2019-07-07T05:19:00Z</time>
      </trkpt>
      <trkpt lat="40.6514390" lon="-2.6590740">
        <ele>828.4</ele>
        <time>2019-07-07T05:19:04Z</time>
      </trkpt>
      <trkpt lat="40.6514360" lon="-2.6591160">
        <ele>828.6</ele>
        <time>2019-07-07T05:19:05Z</time>
      </trkpt>
      <trkpt lat="40.6514340" lon="-2.6592540">
        <ele>829.4</ele>
        <time>2019-07-07T05:19:08Z</time>
      </trkpt>
      <trkpt lat="40.6514340" lon="-2.6593050">
        <ele>829.8</ele>
        <time>2019-07-07T05:19:09Z</time>
      </trkpt>
      <trkpt lat="40.6514340" lon="-2.6594130">
        <ele>829.8</ele>
        <time>2019-07-07T05:19:11Z</time>
      </trkpt>
      <trkpt lat="40.6514640" lon="-2.6596940">
        <ele>829.6</ele>
        <time>2019-07-07T05:19:15Z</time>
      </trkpt>
      <trkpt lat="40.6515620" lon="-2.6601320">
        <ele>829.0</ele>
        <time>2019-07-07T05:19:21Z</time>
      </trkpt>
      <trkpt lat="40.6515940" lon="-2.6602690">
        <ele>828.8</ele>
        <time>2019-07-07T05:19:23Z</time>
      </trkpt>
      <trkpt lat="40.6516220" lon="-2.6604200">
        <ele>828.4</ele>
        <time>2019-07-07T05:19:25Z</time>
      </trkpt>
      <trkpt lat="40.6516340" lon="-2.6604950">
        <ele>828.0</ele>
        <time>2019-07-07T05:19:26Z</time>
      </trkpt>
      <trkpt lat="40.6516450" lon="-2.6605670">
        <ele>828.0</ele>
        <time>2019-07-07T05:19:27Z</time>
      </trkpt>
      <trkpt lat="40.6516540" lon="-2.6606350">
        <ele>827.2</ele>
        <time>2019-07-07T05:19:28Z</time>
      </trkpt>
      <trkpt lat="40.6516550" lon="-2.6607590">
        <ele>825.8</ele>
        <time>2019-07-07T05:19:30Z</time>
      </trkpt>
      <trkpt lat="40.6516380" lon="-2.6608190">
        <ele>825.2</ele>
        <time>2019-07-07T05:19:31Z</time>
      </trkpt>
      <trkpt lat="40.6515730" lon="-2.6609150">
        <ele>824.4</ele>
        <time>2019-07-07T05:19:33Z</time>
      </trkpt>
      <trkpt lat="40.6515300" lon="-2.6609480">
        <ele>824.2</ele>
        <time>2019-07-07T05:19:34Z</time>
      </trkpt>
      <trkpt lat="40.6513700" lon="-2.6609520">
        <ele>823.0</ele>
        <time>2019-07-07T05:19:37Z</time>
      </trkpt>
      <trkpt lat="40.6512020" lon="-2.6609380">
        <ele>821.8</ele>
        <time>2019-07-07T05:19:40Z</time>
      </trkpt>
      <trkpt lat="40.6511510" lon="-2.6609580">
        <ele>820.4</ele>
        <time>2019-07-07T05:19:41Z</time>
      </trkpt>
      <trkpt lat="40.6510390" lon="-2.6610730">
        <ele>819.2</ele>
        <time>2019-07-07T05:19:44Z</time>
      </trkpt>
      <trkpt lat="40.6510090" lon="-2.6611230">
        <ele>819.0</ele>
        <time>2019-07-07T05:19:45Z</time>
      </trkpt>
      <trkpt lat="40.6509790" lon="-2.6611770">
        <ele>818.6</ele>
        <time>2019-07-07T05:19:46Z</time>
      </trkpt>
      <trkpt lat="40.6509470" lon="-2.6612370">
        <ele>817.8</ele>
        <time>2019-07-07T05:19:47Z</time>
      </trkpt>
      <trkpt lat="40.6508810" lon="-2.6613610">
        <ele>816.4</ele>
        <time>2019-07-07T05:19:49Z</time>
      </trkpt>
      <trkpt lat="40.6508490" lon="-2.6614300">
        <ele>815.8</ele>
        <time>2019-07-07T05:19:50Z</time>
      </trkpt>
      <trkpt lat="40.6508230" lon="-2.6615000">
        <ele>815.2</ele>
        <time>2019-07-07T05:19:51Z</time>
      </trkpt>
      <trkpt lat="40.6507240" lon="-2.6617090">
        <ele>813.8</ele>
        <time>2019-07-07T05:19:54Z</time>
      </trkpt>
      <trkpt lat="40.6506040" lon="-2.6619260">
        <ele>812.4</ele>
        <time>2019-07-07T05:19:57Z</time>
      </trkpt>
      <trkpt lat="40.6504870" lon="-2.6621700">
        <ele>810.8</ele>
        <time>2019-07-07T05:20:00Z</time>
      </trkpt>
      <trkpt lat="40.6504120" lon="-2.6623320">
        <ele>809.4</ele>
        <time>2019-07-07T05:20:02Z</time>
      </trkpt>
      <trkpt lat="40.6503320" lon="-2.6624740">
        <ele>807.8</ele>
        <time>2019-07-07T05:20:04Z</time>
      </trkpt>
      <trkpt lat="40.6502550" lon="-2.6626210">
        <ele>806.8</ele>
        <time>2019-07-07T05:20:06Z</time>
      </trkpt>
      <trkpt lat="40.6501620" lon="-2.6628600">
        <ele>805.6</ele>
        <time>2019-07-07T05:20:09Z</time>
      </trkpt>
      <trkpt lat="40.6501050" lon="-2.6630310">
        <ele>805.0</ele>
        <time>2019-07-07T05:20:11Z</time>
      </trkpt>
      <trkpt lat="40.6500590" lon="-2.6632090">
        <ele>804.4</ele>
        <time>2019-07-07T05:20:13Z</time>
      </trkpt>
      <trkpt lat="40.6500230" lon="-2.6634830">
        <ele>803.8</ele>
        <time>2019-07-07T05:20:16Z</time>
      </trkpt>
      <trkpt lat="40.6500230" lon="-2.6636670">
        <ele>803.4</ele>
        <time>2019-07-07T05:20:18Z</time>
      </trkpt>
      <trkpt lat="40.6500350" lon="-2.6638550">
        <ele>803.0</ele>
        <time>2019-07-07T05:20:20Z</time>
      </trkpt>
      <trkpt lat="40.6500590" lon="-2.6640350">
        <ele>802.2</ele>
        <time>2019-07-07T05:20:22Z</time>
      </trkpt>
      <trkpt lat="40.6501190" lon="-2.6644560">
        <ele>801.8</ele>
        <time>2019-07-07T05:20:28Z</time>
      </trkpt>
      <trkpt lat="40.6501370" lon="-2.6645760">
        <ele>802.0</ele>
        <time>2019-07-07T05:20:30Z</time>
      </trkpt>
      <trkpt lat="40.6501550" lon="-2.6646810">
        <ele>802.2</ele>
        <time>2019-07-07T05:20:32Z</time>
      </trkpt>
      <trkpt lat="40.6501680" lon="-2.6647670">
        <ele>802.6</ele>
        <time>2019-07-07T05:20:34Z</time>
      </trkpt>
      <trkpt lat="40.6501830" lon="-2.6648730">
        <ele>803.6</ele>
        <time>2019-07-07T05:20:37Z</time>
      </trkpt>
      <trkpt lat="40.6501910" lon="-2.6649690">
        <ele>804.6</ele>
        <time>2019-07-07T05:20:40Z</time>
      </trkpt>
      <trkpt lat="40.6501920" lon="-2.6650030">
        <ele>804.8</ele>
        <time>2019-07-07T05:20:41Z</time>
      </trkpt>
      <trkpt lat="40.6501920" lon="-2.6650370">
        <ele>804.8</ele>
        <time>2019-07-07T05:20:42Z</time>
      </trkpt>
      <trkpt lat="40.6501910" lon="-2.6650740">
        <ele>805.2</ele>
        <time>2019-07-07T05:20:43Z</time>
      </trkpt>
      <trkpt lat="40.6501790" lon="-2.6651830">
        <ele>805.6</ele>
        <time>2019-07-07T05:20:46Z</time>
      </trkpt>
      <trkpt lat="40.6501670" lon="-2.6652580">
        <ele>805.8</ele>
        <time>2019-07-07T05:20:48Z</time>
      </trkpt>
      <trkpt lat="40.6501610" lon="-2.6652960">
        <ele>806.0</ele>
        <time>2019-07-07T05:20:49Z</time>
      </trkpt>
      <trkpt lat="40.6501350" lon="-2.6654060">
        <ele>806.8</ele>
        <time>2019-07-07T05:20:52Z</time>
      </trkpt>
      <trkpt lat="40.6501250" lon="-2.6654400">
        <ele>807.2</ele>
        <time>2019-07-07T05:20:53Z</time>
      </trkpt>
      <trkpt lat="40.6501030" lon="-2.6655040">
        <ele>807.6</ele>
        <time>2019-07-07T05:20:55Z</time>
      </trkpt>
      <trkpt lat="40.6500680" lon="-2.6655920">
        <ele>808.2</ele>
        <time>2019-07-07T05:20:58Z</time>
      </trkpt>
      <trkpt lat="40.6500590" lon="-2.6656230">
        <ele>808.2</ele>
        <time>2019-07-07T05:20:59Z</time>
      </trkpt>
      <trkpt lat="40.6500190" lon="-2.6657060">
        <ele>809.2</ele>
        <time>2019-07-07T05:21:02Z</time>
      </trkpt>
      <trkpt lat="40.6500030" lon="-2.6657300">
        <ele>809.4</ele>
        <time>2019-07-07T05:21:03Z</time>
      </trkpt>
      <trkpt lat="40.6499680" lon="-2.6658070">
        <ele>810.2</ele>
        <time>2019-07-07T05:21:06Z</time>
      </trkpt>
      <trkpt lat="40.6499610" lon="-2.6658330">
        <ele>810.4</ele>
        <time>2019-07-07T05:21:07Z</time>
      </trkpt>
      <trkpt lat="40.6499220" lon="-2.6659610">
        <ele>811.8</ele>
        <time>2019-07-07T05:21:12Z</time>
      </trkpt>
      <trkpt lat="40.6498880" lon="-2.6660790">
        <ele>813.0</ele>
        <time>2019-07-07T05:21:16Z</time>
      </trkpt>
      <trkpt lat="40.6498410" lon="-2.6662300">
        <ele>813.8</ele>
        <time>2019-07-07T05:21:21Z</time>
      </trkpt>
      <trkpt lat="40.6498270" lon="-2.6662560">
        <ele>814.2</ele>
        <time>2019-07-07T05:21:22Z</time>
      </trkpt>
      <trkpt lat="40.6498160" lon="-2.6662830">
        <ele>814.4</ele>
        <time>2019-07-07T05:21:23Z</time>
      </trkpt>
      <trkpt lat="40.6497830" lon="-2.6663970">
        <ele>815.2</ele>
        <time>2019-07-07T05:21:27Z</time>
      </trkpt>
      <trkpt lat="40.6497340" lon="-2.6665200">
        <ele>816.2</ele>
        <time>2019-07-07T05:21:31Z</time>
      </trkpt>
      <trkpt lat="40.6497080" lon="-2.6665860">
        <ele>816.4</ele>
        <time>2019-07-07T05:21:33Z</time>
      </trkpt>
      <trkpt lat="40.6496420" lon="-2.6667520">
        <ele>816.2</ele>
        <time>2019-07-07T05:21:37Z</time>
      </trkpt>
      <trkpt lat="40.6495270" lon="-2.6671440">
        <ele>815.6</ele>
        <time>2019-07-07T05:21:44Z</time>
      </trkpt>
      <trkpt lat="40.6494750" lon="-2.6673150">
        <ele>815.2</ele>
        <time>2019-07-07T05:21:47Z</time>
      </trkpt>
      <trkpt lat="40.6494150" lon="-2.6674820">
        <ele>815.2</ele>
        <time>2019-07-07T05:21:50Z</time>
      </trkpt>
      <trkpt lat="40.6493950" lon="-2.6675380">
        <ele>815.4</ele>
        <time>2019-07-07T05:21:51Z</time>
      </trkpt>
      <trkpt lat="40.6493080" lon="-2.6677570">
        <ele>815.8</ele>
        <time>2019-07-07T05:21:55Z</time>
      </trkpt>
      <trkpt lat="40.6492230" lon="-2.6679710">
        <ele>816.0</ele>
        <time>2019-07-07T05:21:59Z</time>
      </trkpt>
      <trkpt lat="40.6491450" lon="-2.6681240">
        <ele>816.4</ele>
        <time>2019-07-07T05:22:02Z</time>
      </trkpt>
      <trkpt lat="40.6490390" lon="-2.6682760">
        <ele>816.6</ele>
        <time>2019-07-07T05:22:05Z</time>
      </trkpt>
      <trkpt lat="40.6489080" lon="-2.6684190">
        <ele>816.4</ele>
        <time>2019-07-07T05:22:08Z</time>
      </trkpt>
      <trkpt lat="40.6488080" lon="-2.6684950">
        <ele>816.2</ele>
        <time>2019-07-07T05:22:10Z</time>
      </trkpt>
      <trkpt lat="40.6484800" lon="-2.6686880">
        <ele>816.6</ele>
        <time>2019-07-07T05:22:17Z</time>
      </trkpt>
      <trkpt lat="40.6483190" lon="-2.6687380">
        <ele>817.6</ele>
        <time>2019-07-07T05:22:21Z</time>
      </trkpt>
      <trkpt lat="40.6482450" lon="-2.6687540">
        <ele>818.2</ele>
        <time>2019-07-07T05:22:23Z</time>
      </trkpt>
      <trkpt lat="40.6481750" lon="-2.6687680">
        <ele>818.8</ele>
        <time>2019-07-07T05:22:25Z</time>
      </trkpt>
      <trkpt lat="40.6480720" lon="-2.6687930">
        <ele>819.4</ele>
        <time>2019-07-07T05:22:28Z</time>
      </trkpt>
      <trkpt lat="40.6480010" lon="-2.6688130">
        <ele>819.8</ele>
        <time>2019-07-07T05:22:30Z</time>
      </trkpt>
      <trkpt lat="40.6479280" lon="-2.6688350">
        <ele>820.2</ele>
        <time>2019-07-07T05:22:32Z</time>
      </trkpt>
      <trkpt lat="40.6477910" lon="-2.6688850">
        <ele>821.2</ele>
        <time>2019-07-07T05:22:36Z</time>
      </trkpt>
      <trkpt lat="40.6476970" lon="-2.6689290">
        <ele>822.2</ele>
        <time>2019-07-07T05:22:39Z</time>
      </trkpt>
      <trkpt lat="40.6476650" lon="-2.6689510">
        <ele>822.4</ele>
        <time>2019-07-07T05:22:40Z</time>
      </trkpt>
      <trkpt lat="40.6475190" lon="-2.6690760">
        <ele>823.4</ele>
        <time>2019-07-07T05:22:45Z</time>
      </trkpt>
      <trkpt lat="40.6474430" lon="-2.6691370">
        <ele>824.4</ele>
        <time>2019-07-07T05:22:48Z</time>
      </trkpt>
      <trkpt lat="40.6473330" lon="-2.6692240">
        <ele>825.6</ele>
        <time>2019-07-07T05:22:53Z</time>
      </trkpt>
      <trkpt lat="40.6472860" lon="-2.6692520">
        <ele>826.4</ele>
        <time>2019-07-07T05:22:55Z</time>
      </trkpt>
      <trkpt lat="40.6472590" lon="-2.6692630">
        <ele>826.8</ele>
        <time>2019-07-07T05:22:56Z</time>
      </trkpt>
      <trkpt lat="40.6471370" lon="-2.6692980">
        <ele>827.6</ele>
        <time>2019-07-07T05:23:00Z</time>
      </trkpt>
      <trkpt lat="40.6470650" lon="-2.6693090">
        <ele>827.8</ele>
        <time>2019-07-07T05:23:02Z</time>
      </trkpt>
      <trkpt lat="40.6467780" lon="-2.6693750">
        <ele>828.2</ele>
        <time>2019-07-07T05:23:09Z</time>
      </trkpt>
      <trkpt lat="40.6466660" lon="-2.6694080">
        <ele>828.8</ele>
        <time>2019-07-07T05:23:12Z</time>
      </trkpt>
      <trkpt lat="40.6464830" lon="-2.6694530">
        <ele>830.0</ele>
        <time>2019-07-07T05:23:17Z</time>
      </trkpt>
      <trkpt lat="40.6462050" lon="-2.6694170">
        <ele>830.2</ele>
        <time>2019-07-07T05:23:23Z</time>
      </trkpt>
      <trkpt lat="40.6461030" lon="-2.6693850">
        <ele>829.8</ele>
        <time>2019-07-07T05:23:25Z</time>
      </trkpt>
      <trkpt lat="40.6460010" lon="-2.6693630">
        <ele>828.6</ele>
        <time>2019-07-07T05:23:27Z</time>
      </trkpt>
      <trkpt lat="40.6458900" lon="-2.6693460">
        <ele>828.0</ele>
        <time>2019-07-07T05:23:29Z</time>
      </trkpt>
      <trkpt lat="40.6458280" lon="-2.6693400">
        <ele>827.4</ele>
        <time>2019-07-07T05:23:30Z</time>
      </trkpt>
      <trkpt lat="40.6456850" lon="-2.6693300">
        <ele>826.0</ele>
        <time>2019-07-07T05:23:32Z</time>
      </trkpt>
      <trkpt lat="40.6455470" lon="-2.6693210">
        <ele>824.2</ele>
        <time>2019-07-07T05:23:34Z</time>
      </trkpt>
      <trkpt lat="40.6454860" lon="-2.6693180">
        <ele>823.4</ele>
        <time>2019-07-07T05:23:35Z</time>
      </trkpt>
      <trkpt lat="40.6454280" lon="-2.6693210">
        <ele>822.8</ele>
        <time>2019-07-07T05:23:36Z</time>
      </trkpt>
      <trkpt lat="40.6453050" lon="-2.6693520">
        <ele>822.0</ele>
        <time>2019-07-07T05:23:38Z</time>
      </trkpt>
      <trkpt lat="40.6452440" lon="-2.6693810">
        <ele>821.4</ele>
        <time>2019-07-07T05:23:39Z</time>
      </trkpt>
      <trkpt lat="40.6451820" lon="-2.6694140">
        <ele>821.2</ele>
        <time>2019-07-07T05:23:40Z</time>
      </trkpt>
      <trkpt lat="40.6449930" lon="-2.6695190">
        <ele>820.4</ele>
        <time>2019-07-07T05:23:43Z</time>
      </trkpt>
      <trkpt lat="40.6448660" lon="-2.6695800">
        <ele>820.0</ele>
        <time>2019-07-07T05:23:45Z</time>
      </trkpt>
      <trkpt lat="40.6448030" lon="-2.6696060">
        <ele>819.8</ele>
        <time>2019-07-07T05:23:46Z</time>
      </trkpt>
      <trkpt lat="40.6446750" lon="-2.6696480">
        <ele>819.6</ele>
        <time>2019-07-07T05:23:48Z</time>
      </trkpt>
      <trkpt lat="40.6445350" lon="-2.6696880">
        <ele>819.2</ele>
        <time>2019-07-07T05:23:50Z</time>
      </trkpt>
      <trkpt lat="40.6444000" lon="-2.6697270">
        <ele>818.6</ele>
        <time>2019-07-07T05:23:52Z</time>
      </trkpt>
      <trkpt lat="40.6441450" lon="-2.6697740">
        <ele>818.8</ele>
        <time>2019-07-07T05:23:57Z</time>
      </trkpt>
      <trkpt lat="40.6440590" lon="-2.6697740">
        <ele>819.4</ele>
        <time>2019-07-07T05:23:59Z</time>
      </trkpt>
      <trkpt lat="40.6440130" lon="-2.6697720">
        <ele>819.6</ele>
        <time>2019-07-07T05:24:00Z</time>
      </trkpt>
      <trkpt lat="40.6439670" lon="-2.6697720">
        <ele>819.8</ele>
        <time>2019-07-07T05:24:01Z</time>
      </trkpt>
      <trkpt lat="40.6438650" lon="-2.6697700">
        <ele>819.8</ele>
        <time>2019-07-07T05:24:03Z</time>
      </trkpt>
      <trkpt lat="40.6434500" lon="-2.6698090">
        <ele>819.2</ele>
        <time>2019-07-07T05:24:10Z</time>
      </trkpt>
      <trkpt lat="40.6433080" lon="-2.6698040">
        <ele>818.6</ele>
        <time>2019-07-07T05:24:12Z</time>
      </trkpt>
      <trkpt lat="40.6431630" lon="-2.6697850">
        <ele>817.6</ele>
        <time>2019-07-07T05:24:14Z</time>
      </trkpt>
      <trkpt lat="40.6430950" lon="-2.6697730">
        <ele>817.2</ele>
        <time>2019-07-07T05:24:15Z</time>
      </trkpt>
      <trkpt lat="40.6429000" lon="-2.6697260">
        <ele>816.4</ele>
        <time>2019-07-07T05:24:18Z</time>
      </trkpt>
      <trkpt lat="40.6427200" lon="-2.6696470">
        <ele>814.8</ele>
        <time>2019-07-07T05:24:21Z</time>
      </trkpt>
      <trkpt lat="40.6426040" lon="-2.6695570">
        <ele>813.8</ele>
        <time>2019-07-07T05:24:23Z</time>
      </trkpt>
      <trkpt lat="40.6424940" lon="-2.6694380">
        <ele>813.0</ele>
        <time>2019-07-07T05:24:25Z</time>
      </trkpt>
      <trkpt lat="40.6424400" lon="-2.6693700">
        <ele>812.6</ele>
        <time>2019-07-07T05:24:26Z</time>
      </trkpt>
      <trkpt lat="40.6422970" lon="-2.6691470">
        <ele>811.6</ele>
        <time>2019-07-07T05:24:29Z</time>
      </trkpt>
      <trkpt lat="40.6422600" lon="-2.6690640">
        <ele>811.4</ele>
        <time>2019-07-07T05:24:30Z</time>
      </trkpt>
      <trkpt lat="40.6421520" lon="-2.6687990">
        <ele>810.6</ele>
        <time>2019-07-07T05:24:33Z</time>
      </trkpt>
      <trkpt lat="40.6421140" lon="-2.6687160">
        <ele>810.4</ele>
        <time>2019-07-07T05:24:34Z</time>
      </trkpt>
      <trkpt lat="40.6420790" lon="-2.6686380">
        <ele>810.2</ele>
        <time>2019-07-07T05:24:35Z</time>
      </trkpt>
      <trkpt lat="40.6420240" lon="-2.6684850">
        <ele>809.8</ele>
        <time>2019-07-07T05:24:37Z</time>
      </trkpt>
      <trkpt lat="40.6420050" lon="-2.6683340">
        <ele>810.0</ele>
        <time>2019-07-07T05:24:39Z</time>
      </trkpt>
      <trkpt lat="40.6419990" lon="-2.6681930">
        <ele>810.2</ele>
        <time>2019-07-07T05:24:41Z</time>
      </trkpt>
      <trkpt lat="40.6419530" lon="-2.6680740">
        <ele>810.4</ele>
        <time>2019-07-07T05:24:43Z</time>
      </trkpt>
      <trkpt lat="40.6418310" lon="-2.6679750">
        <ele>809.8</ele>
        <time>2019-07-07T05:24:46Z</time>
      </trkpt>
      <trkpt lat="40.6417910" lon="-2.6679450">
        <ele>809.8</ele>
        <time>2019-07-07T05:24:47Z</time>
      </trkpt>
      <trkpt lat="40.6416510" lon="-2.6678730">
        <ele>809.6</ele>
        <time>2019-07-07T05:24:50Z</time>
      </trkpt>
      <trkpt lat="40.6415380" lon="-2.6678880">
        <ele>809.0</ele>
        <time>2019-07-07T05:24:52Z</time>
      </trkpt>
      <trkpt lat="40.6414100" lon="-2.6680070">
        <ele>808.6</ele>
        <time>2019-07-07T05:24:55Z</time>
      </trkpt>
      <trkpt lat="40.6413870" lon="-2.6680560">
        <ele>808.6</ele>
        <time>2019-07-07T05:24:56Z</time>
      </trkpt>
      <trkpt lat="40.6413680" lon="-2.6681050">
        <ele>808.8</ele>
        <time>2019-07-07T05:24:57Z</time>
      </trkpt>
      <trkpt lat="40.6413500" lon="-2.6681530">
        <ele>809.2</ele>
        <time>2019-07-07T05:24:58Z</time>
      </trkpt>
      <trkpt lat="40.6413300" lon="-2.6681960">
        <ele>809.4</ele>
        <time>2019-07-07T05:24:59Z</time>
      </trkpt>
      <trkpt lat="40.6412900" lon="-2.6682740">
        <ele>810.0</ele>
        <time>2019-07-07T05:25:01Z</time>
      </trkpt>
      <trkpt lat="40.6412670" lon="-2.6683090">
        <ele>810.4</ele>
        <time>2019-07-07T05:25:02Z</time>
      </trkpt>
      <trkpt lat="40.6412230" lon="-2.6683750">
        <ele>811.0</ele>
        <time>2019-07-07T05:25:04Z</time>
      </trkpt>
      <trkpt lat="40.6411980" lon="-2.6684040">
        <ele>811.2</ele>
        <time>2019-07-07T05:25:05Z</time>
      </trkpt>
      <trkpt lat="40.6411740" lon="-2.6684320">
        <ele>811.4</ele>
        <time>2019-07-07T05:25:06Z</time>
      </trkpt>
      <trkpt lat="40.6411080" lon="-2.6685230">
        <ele>812.2</ele>
        <time>2019-07-07T05:25:09Z</time>
      </trkpt>
      <trkpt lat="40.6410860" lon="-2.6685500">
        <ele>812.6</ele>
        <time>2019-07-07T05:25:10Z</time>
      </trkpt>
      <trkpt lat="40.6410440" lon="-2.6686050">
        <ele>813.0</ele>
        <time>2019-07-07T05:25:12Z</time>
      </trkpt>
      <trkpt lat="40.6410030" lon="-2.6686580">
        <ele>813.4</ele>
        <time>2019-07-07T05:25:14Z</time>
      </trkpt>
      <trkpt lat="40.6409820" lon="-2.6686830">
        <ele>813.8</ele>
        <time>2019-07-07T05:25:15Z</time>
      </trkpt>
      <trkpt lat="40.6409210" lon="-2.6687560">
        <ele>814.8</ele>
        <time>2019-07-07T05:25:18Z</time>
      </trkpt>
      <trkpt lat="40.6408820" lon="-2.6687990">
        <ele>815.4</ele>
        <time>2019-07-07T05:25:20Z</time>
      </trkpt>
      <trkpt lat="40.6408360" lon="-2.6688320">
        <ele>815.8</ele>
        <time>2019-07-07T05:25:22Z</time>
      </trkpt>
      <trkpt lat="40.6407660" lon="-2.6688790">
        <ele>816.6</ele>
        <time>2019-07-07T05:25:25Z</time>
      </trkpt>
      <trkpt lat="40.6407370" lon="-2.6688940">
        <ele>817.0</ele>
        <time>2019-07-07T05:25:26Z</time>
      </trkpt>
      <trkpt lat="40.6406470" lon="-2.6689220">
        <ele>817.4</ele>
        <time>2019-07-07T05:25:29Z</time>
      </trkpt>
      <trkpt lat="40.6406150" lon="-2.6689310">
        <ele>817.4</ele>
        <time>2019-07-07T05:25:30Z</time>
      </trkpt>
      <trkpt lat="40.6405330" lon="-2.6689940">
        <ele>818.0</ele>
        <time>2019-07-07T05:25:33Z</time>
      </trkpt>
      <trkpt lat="40.6404990" lon="-2.6690590">
        <ele>818.2</ele>
        <time>2019-07-07T05:25:35Z</time>
      </trkpt>
      <trkpt lat="40.6404780" lon="-2.6693050">
        <ele>818.8</ele>
        <time>2019-07-07T05:25:41Z</time>
      </trkpt>
      <trkpt lat="40.6404770" lon="-2.6693510">
        <ele>819.0</ele>
        <time>2019-07-07T05:25:42Z</time>
      </trkpt>
      <trkpt lat="40.6404640" lon="-2.6695670">
        <ele>818.8</ele>
        <time>2019-07-07T05:25:46Z</time>
      </trkpt>
      <trkpt lat="40.6404640" lon="-2.6696250">
        <ele>818.8</ele>
        <time>2019-07-07T05:25:47Z</time>
      </trkpt>
      <trkpt lat="40.6405070" lon="-2.6698500">
        <ele>819.4</ele>
        <time>2019-07-07T05:25:52Z</time>
      </trkpt>
      <trkpt lat="40.6405210" lon="-2.6699830">
        <ele>820.4</ele>
        <time>2019-07-07T05:25:55Z</time>
      </trkpt>
      <trkpt lat="40.6404990" lon="-2.6700810">
        <ele>820.8</ele>
        <time>2019-07-07T05:25:57Z</time>
      </trkpt>
      <trkpt lat="40.6404390" lon="-2.6702120">
        <ele>821.4</ele>
        <time>2019-07-07T05:26:00Z</time>
      </trkpt>
      <trkpt lat="40.6403690" lon="-2.6703150">
        <ele>821.8</ele>
        <time>2019-07-07T05:26:03Z</time>
      </trkpt>
      <trkpt lat="40.6402720" lon="-2.6704510">
        <ele>822.6</ele>
        <time>2019-07-07T05:26:07Z</time>
      </trkpt>
      <trkpt lat="40.6402040" lon="-2.6705590">
        <ele>822.6</ele>
        <time>2019-07-07T05:26:10Z</time>
      </trkpt>
      <trkpt lat="40.6401310" lon="-2.6707100">
        <ele>823.6</ele>
        <time>2019-07-07T05:26:14Z</time>
      </trkpt>
      <trkpt lat="40.6400850" lon="-2.6707780">
        <ele>824.2</ele>
        <time>2019-07-07T05:26:16Z</time>
      </trkpt>
      <trkpt lat="40.6399960" lon="-2.6708920">
        <ele>824.8</ele>
        <time>2019-07-07T05:26:20Z</time>
      </trkpt>
      <trkpt lat="40.6399510" lon="-2.6709350">
        <ele>825.2</ele>
        <time>2019-07-07T05:26:22Z</time>
      </trkpt>
      <trkpt lat="40.6398590" lon="-2.6710340">
        <ele>826.0</ele>
        <time>2019-07-07T05:26:26Z</time>
      </trkpt>
      <trkpt lat="40.6397840" lon="-2.6711370">
        <ele>827.2</ele>
        <time>2019-07-07T05:26:30Z</time>
      </trkpt>
      <trkpt lat="40.6397010" lon="-2.6713020">
        <ele>828.2</ele>
        <time>2019-07-07T05:26:36Z</time>
      </trkpt>
      <trkpt lat="40.6396420" lon="-2.6714110">
        <ele>829.4</ele>
        <time>2019-07-07T05:26:40Z</time>
      </trkpt>
      <trkpt lat="40.6396260" lon="-2.6714410">
        <ele>829.6</ele>
        <time>2019-07-07T05:26:41Z</time>
      </trkpt>
      <trkpt lat="40.6395490" lon="-2.6716170">
        <ele>830.6</ele>
        <time>2019-07-07T05:26:47Z</time>
      </trkpt>
      <trkpt lat="40.6395280" lon="-2.6716650">
        <ele>831.6</ele>
        <time>2019-07-07T05:26:49Z</time>
      </trkpt>
      <trkpt lat="40.6394990" lon="-2.6717480">
        <ele>832.4</ele>
        <time>2019-07-07T05:26:52Z</time>
      </trkpt>
      <trkpt lat="40.6394740" lon="-2.6718070">
        <ele>832.6</ele>
        <time>2019-07-07T05:26:54Z</time>
      </trkpt>
      <trkpt lat="40.6394540" lon="-2.6719850">
        <ele>833.8</ele>
        <time>2019-07-07T05:26:59Z</time>
      </trkpt>
      <trkpt lat="40.6394590" lon="-2.6721600">
        <ele>834.8</ele>
        <time>2019-07-07T05:27:04Z</time>
      </trkpt>
      <trkpt lat="40.6394370" lon="-2.6722290">
        <ele>835.4</ele>
        <time>2019-07-07T05:27:06Z</time>
      </trkpt>
      <trkpt lat="40.6393980" lon="-2.6723060">
        <ele>836.0</ele>
        <time>2019-07-07T05:27:09Z</time>
      </trkpt>
      <trkpt lat="40.6393790" lon="-2.6723620">
        <ele>836.2</ele>
        <time>2019-07-07T05:27:11Z</time>
      </trkpt>
      <trkpt lat="40.6393020" lon="-2.6725180">
        <ele>836.2</ele>
        <time>2019-07-07T05:27:15Z</time>
      </trkpt>
      <trkpt lat="40.6392440" lon="-2.6726250">
        <ele>835.8</ele>
        <time>2019-07-07T05:27:17Z</time>
      </trkpt>
      <trkpt lat="40.6391700" lon="-2.6727460">
        <ele>835.2</ele>
        <time>2019-07-07T05:27:19Z</time>
      </trkpt>
      <trkpt lat="40.6391350" lon="-2.6728090">
        <ele>834.8</ele>
        <time>2019-07-07T05:27:20Z</time>
      </trkpt>
      <trkpt lat="40.6390960" lon="-2.6728700">
        <ele>834.6</ele>
        <time>2019-07-07T05:27:21Z</time>
      </trkpt>
      <trkpt lat="40.6390100" lon="-2.6729690">
        <ele>834.4</ele>
        <time>2019-07-07T05:27:23Z</time>
      </trkpt>
      <trkpt lat="40.6389580" lon="-2.6730120">
        <ele>834.2</ele>
        <time>2019-07-07T05:27:24Z</time>
      </trkpt>
      <trkpt lat="40.6389030" lon="-2.6730530">
        <ele>833.8</ele>
        <time>2019-07-07T05:27:25Z</time>
      </trkpt>
      <trkpt lat="40.6388450" lon="-2.6730920">
        <ele>833.6</ele>
        <time>2019-07-07T05:27:26Z</time>
      </trkpt>
      <trkpt lat="40.6386760" lon="-2.6731960">
        <ele>833.0</ele>
        <time>2019-07-07T05:27:29Z</time>
      </trkpt>
      <trkpt lat="40.6386220" lon="-2.6732240">
        <ele>832.8</ele>
        <time>2019-07-07T05:27:30Z</time>
      </trkpt>
      <trkpt lat="40.6384760" lon="-2.6732760">
        <ele>832.6</ele>
        <time>2019-07-07T05:27:33Z</time>
      </trkpt>
      <trkpt lat="40.6383750" lon="-2.6732930">
        <ele>832.8</ele>
        <time>2019-07-07T05:27:35Z</time>
      </trkpt>
      <trkpt lat="40.6379990" lon="-2.6733770">
        <ele>832.8</ele>
        <time>2019-07-07T05:27:42Z</time>
      </trkpt>
      <trkpt lat="40.6379440" lon="-2.6734030">
        <ele>832.4</ele>
        <time>2019-07-07T05:27:43Z</time>
      </trkpt>
      <trkpt lat="40.6378800" lon="-2.6734960">
        <ele>832.0</ele>
        <time>2019-07-07T05:27:45Z</time>
      </trkpt>
      <trkpt lat="40.6378860" lon="-2.6736710">
        <ele>831.2</ele>
        <time>2019-07-07T05:27:48Z</time>
      </trkpt>
      <trkpt lat="40.6379360" lon="-2.6737840">
        <ele>830.8</ele>
        <time>2019-07-07T05:27:50Z</time>
      </trkpt>
      <trkpt lat="40.6379640" lon="-2.6738360">
        <ele>830.4</ele>
        <time>2019-07-07T05:27:51Z</time>
      </trkpt>
      <trkpt lat="40.6379930" lon="-2.6738860">
        <ele>829.8</ele>
        <time>2019-07-07T05:27:52Z</time>
      </trkpt>
      <trkpt lat="40.6380440" lon="-2.6740010">
        <ele>828.2</ele>
        <time>2019-07-07T05:27:54Z</time>
      </trkpt>
      <trkpt lat="40.6380690" lon="-2.6740630">
        <ele>827.6</ele>
        <time>2019-07-07T05:27:55Z</time>
      </trkpt>
      <trkpt lat="40.6380920" lon="-2.6741240">
        <ele>826.6</ele>
        <time>2019-07-07T05:27:56Z</time>
      </trkpt>
      <trkpt lat="40.6381110" lon="-2.6741860">
        <ele>825.8</ele>
        <time>2019-07-07T05:27:57Z</time>
      </trkpt>
      <trkpt lat="40.6381250" lon="-2.6742460">
        <ele>825.4</ele>
        <time>2019-07-07T05:27:58Z</time>
      </trkpt>
      <trkpt lat="40.6381340" lon="-2.6743040">
        <ele>824.6</ele>
        <time>2019-07-07T05:27:59Z</time>
      </trkpt>
      <trkpt lat="40.6381350" lon="-2.6743580">
        <ele>823.8</ele>
        <time>2019-07-07T05:28:00Z</time>
      </trkpt>
      <trkpt lat="40.6381270" lon="-2.6744130">
        <ele>823.2</ele>
        <time>2019-07-07T05:28:01Z</time>
      </trkpt>
      <trkpt lat="40.6381160" lon="-2.6744720">
        <ele>822.6</ele>
        <time>2019-07-07T05:28:02Z</time>
      </trkpt>
      <trkpt lat="40.6380370" lon="-2.6746570">
        <ele>821.4</ele>
        <time>2019-07-07T05:28:05Z</time>
      </trkpt>
      <trkpt lat="40.6379540" lon="-2.6747590">
        <ele>819.8</ele>
        <time>2019-07-07T05:28:07Z</time>
      </trkpt>
      <trkpt lat="40.6379110" lon="-2.6747980">
        <ele>818.8</ele>
        <time>2019-07-07T05:28:08Z</time>
      </trkpt>
      <trkpt lat="40.6378700" lon="-2.6748310">
        <ele>818.2</ele>
        <time>2019-07-07T05:28:09Z</time>
      </trkpt>
      <trkpt lat="40.6377910" lon="-2.6748840">
        <ele>817.6</ele>
        <time>2019-07-07T05:28:11Z</time>
      </trkpt>
      <trkpt lat="40.6377500" lon="-2.6749120">
        <ele>817.4</ele>
        <time>2019-07-07T05:28:12Z</time>
      </trkpt>
      <trkpt lat="40.6376580" lon="-2.6749520">
        <ele>817.4</ele>
        <time>2019-07-07T05:28:14Z</time>
      </trkpt>
      <trkpt lat="40.6375740" lon="-2.6749770">
        <ele>817.4</ele>
        <time>2019-07-07T05:28:16Z</time>
      </trkpt>
      <trkpt lat="40.6374210" lon="-2.6750060">
        <ele>817.8</ele>
        <time>2019-07-07T05:28:20Z</time>
      </trkpt>
      <trkpt lat="40.6373460" lon="-2.6750120">
        <ele>818.4</ele>
        <time>2019-07-07T05:28:22Z</time>
      </trkpt>
      <trkpt lat="40.6373100" lon="-2.6750180">
        <ele>818.8</ele>
        <time>2019-07-07T05:28:23Z</time>
      </trkpt>
      <trkpt lat="40.6372010" lon="-2.6750320">
        <ele>819.0</ele>
        <time>2019-07-07T05:28:26Z</time>
      </trkpt>
      <trkpt lat="40.6371610" lon="-2.6750340">
        <ele>819.2</ele>
        <time>2019-07-07T05:28:27Z</time>
      </trkpt>
      <trkpt lat="40.6370840" lon="-2.6750240">
        <ele>819.6</ele>
        <time>2019-07-07T05:28:29Z</time>
      </trkpt>
      <trkpt lat="40.6369700" lon="-2.6749940">
        <ele>820.2</ele>
        <time>2019-07-07T05:28:32Z</time>
      </trkpt>
      <trkpt lat="40.6368680" lon="-2.6749470">
        <ele>820.6</ele>
        <time>2019-07-07T05:28:35Z</time>
      </trkpt>
      <trkpt lat="40.6367320" lon="-2.6748710">
        <ele>821.2</ele>
        <time>2019-07-07T05:28:39Z</time>
      </trkpt>
      <trkpt lat="40.6365930" lon="-2.6748300">
        <ele>821.8</ele>
        <time>2019-07-07T05:28:43Z</time>
      </trkpt>
      <trkpt lat="40.6365230" lon="-2.6748480">
        <ele>822.2</ele>
        <time>2019-07-07T05:28:45Z</time>
      </trkpt>
      <trkpt lat="40.6364410" lon="-2.6749070">
        <ele>823.0</ele>
        <time>2019-07-07T05:28:48Z</time>
      </trkpt>
      <trkpt lat="40.6364180" lon="-2.6749290">
        <ele>823.2</ele>
        <time>2019-07-07T05:28:49Z</time>
      </trkpt>
      <trkpt lat="40.6362070" lon="-2.6750740">
        <ele>823.8</ele>
        <time>2019-07-07T05:28:56Z</time>
      </trkpt>
      <trkpt lat="40.6360170" lon="-2.6750200">
        <ele>823.6</ele>
        <time>2019-07-07T05:29:00Z</time>
      </trkpt>
      <trkpt lat="40.6358800" lon="-2.6748430">
        <ele>823.0</ele>
        <time>2019-07-07T05:29:04Z</time>
      </trkpt>
      <trkpt lat="40.6358590" lon="-2.6747890">
        <ele>823.2</ele>
        <time>2019-07-07T05:29:05Z</time>
      </trkpt>
      <trkpt lat="40.6358200" lon="-2.6746830">
        <ele>823.2</ele>
        <time>2019-07-07T05:29:07Z</time>
      </trkpt>
      <trkpt lat="40.6357690" lon="-2.6745950">
        <ele>823.4</ele>
        <time>2019-07-07T05:29:09Z</time>
      </trkpt>
      <trkpt lat="40.6356800" lon="-2.6744990">
        <ele>823.8</ele>
        <time>2019-07-07T05:29:12Z</time>
      </trkpt>
      <trkpt lat="40.6356480" lon="-2.6744770">
        <ele>824.2</ele>
        <time>2019-07-07T05:29:13Z</time>
      </trkpt>
      <trkpt lat="40.6354040" lon="-2.6743600">
        <ele>825.4</ele>
        <time>2019-07-07T05:29:20Z</time>
      </trkpt>
      <trkpt lat="40.6351690" lon="-2.6742510">
        <ele>826.0</ele>
        <time>2019-07-07T05:29:27Z</time>
      </trkpt>
      <trkpt lat="40.6351420" lon="-2.6742470">
        <ele>826.4</ele>
        <time>2019-07-07T05:29:28Z</time>
      </trkpt>
      <trkpt lat="40.6350290" lon="-2.6742560">
        <ele>827.6</ele>
        <time>2019-07-07T05:29:32Z</time>
      </trkpt>
      <trkpt lat="40.6349980" lon="-2.6742670">
        <ele>827.8</ele>
        <time>2019-07-07T05:29:33Z</time>
      </trkpt>
      <trkpt lat="40.6348820" lon="-2.6743350">
        <ele>828.6</ele>
        <time>2019-07-07T05:29:37Z</time>
      </trkpt>
      <trkpt lat="40.6348520" lon="-2.6743550">
        <ele>828.6</ele>
        <time>2019-07-07T05:29:38Z</time>
      </trkpt>
      <trkpt lat="40.6347870" lon="-2.6743990">
        <ele>828.8</ele>
        <time>2019-07-07T05:29:40Z</time>
      </trkpt>
      <trkpt lat="40.6345710" lon="-2.6745420">
        <ele>829.6</ele>
        <time>2019-07-07T05:29:46Z</time>
      </trkpt>
      <trkpt lat="40.6343740" lon="-2.6746690">
        <ele>829.8</ele>
        <time>2019-07-07T05:29:51Z</time>
      </trkpt>
      <trkpt lat="40.6342860" lon="-2.6747080">
        <ele>830.0</ele>
        <time>2019-07-07T05:29:53Z</time>
      </trkpt>
      <trkpt lat="40.6341940" lon="-2.6747380">
        <ele>830.2</ele>
        <time>2019-07-07T05:29:55Z</time>
      </trkpt>
      <trkpt lat="40.6341500" lon="-2.6747550">
        <ele>830.2</ele>
        <time>2019-07-07T05:29:56Z</time>
      </trkpt>
      <trkpt lat="40.6340250" lon="-2.6748310">
        <ele>830.2</ele>
        <time>2019-07-07T05:29:59Z</time>
      </trkpt>
      <trkpt lat="40.6338480" lon="-2.6749840">
        <ele>830.2</ele>
        <time>2019-07-07T05:30:04Z</time>
      </trkpt>
      <trkpt lat="40.6336710" lon="-2.6751810">
        <ele>830.2</ele>
        <time>2019-07-07T05:30:09Z</time>
      </trkpt>
      <trkpt lat="40.6335810" lon="-2.6752590">
        <ele>830.0</ele>
        <time>2019-07-07T05:30:11Z</time>
      </trkpt>
      <trkpt lat="40.6335350" lon="-2.6752960">
        <ele>830.0</ele>
        <time>2019-07-07T05:30:12Z</time>
      </trkpt>
      <trkpt lat="40.6334280" lon="-2.6753630">
        <ele>829.6</ele>
        <time>2019-07-07T05:30:14Z</time>
      </trkpt>
      <trkpt lat="40.6333100" lon="-2.6754280">
        <ele>829.0</ele>
        <time>2019-07-07T05:30:16Z</time>
      </trkpt>
      <trkpt lat="40.6332530" lon="-2.6754570">
        <ele>828.6</ele>
        <time>2019-07-07T05:30:17Z</time>
      </trkpt>
      <trkpt lat="40.6332020" lon="-2.6754900">
        <ele>828.2</ele>
        <time>2019-07-07T05:30:18Z</time>
      </trkpt>
      <trkpt lat="40.6331090" lon="-2.6755750">
        <ele>827.6</ele>
        <time>2019-07-07T05:30:20Z</time>
      </trkpt>
      <trkpt lat="40.6329770" lon="-2.6757080">
        <ele>827.4</ele>
        <time>2019-07-07T05:30:23Z</time>
      </trkpt>
      <trkpt lat="40.6328750" lon="-2.6757760">
        <ele>827.4</ele>
        <time>2019-07-07T05:30:25Z</time>
      </trkpt>
      <trkpt lat="40.6327250" lon="-2.6758910">
        <ele>827.2</ele>
        <time>2019-07-07T05:30:28Z</time>
      </trkpt>
      <trkpt lat="40.6326230" lon="-2.6759720">
        <ele>826.6</ele>
        <time>2019-07-07T05:30:30Z</time>
      </trkpt>
      <trkpt lat="40.6325670" lon="-2.6760040">
        <ele>826.2</ele>
        <time>2019-07-07T05:30:31Z</time>
      </trkpt>
      <trkpt lat="40.6324530" lon="-2.6760740">
        <ele>825.2</ele>
        <time>2019-07-07T05:30:33Z</time>
      </trkpt>
      <trkpt lat="40.6323460" lon="-2.6761700">
        <ele>824.6</ele>
        <time>2019-07-07T05:30:35Z</time>
      </trkpt>
      <trkpt lat="40.6322540" lon="-2.6762920">
        <ele>823.8</ele>
        <time>2019-07-07T05:30:37Z</time>
      </trkpt>
      <trkpt lat="40.6322110" lon="-2.6763500">
        <ele>823.4</ele>
        <time>2019-07-07T05:30:38Z</time>
      </trkpt>
      <trkpt lat="40.6321680" lon="-2.6763970">
        <ele>822.8</ele>
        <time>2019-07-07T05:30:39Z</time>
      </trkpt>
      <trkpt lat="40.6321160" lon="-2.6764380">
        <ele>822.4</ele>
        <time>2019-07-07T05:30:40Z</time>
      </trkpt>
      <trkpt lat="40.6319340" lon="-2.6765040">
        <ele>821.4</ele>
        <time>2019-07-07T05:30:43Z</time>
      </trkpt>
      <trkpt lat="40.6318880" lon="-2.6765080">
        <ele>821.2</ele>
        <time>2019-07-07T05:30:44Z</time>
      </trkpt>
      <trkpt lat="40.6318290" lon="-2.6765290">
        <ele>820.6</ele>
        <time>2019-07-07T05:30:46Z</time>
      </trkpt>
      <trkpt lat="40.6317720" lon="-2.6765550">
        <ele>820.2</ele>
        <time>2019-07-07T05:30:48Z</time>
      </trkpt>
      <trkpt lat="40.6316730" lon="-2.6765860">
        <ele>820.0</ele>
        <time>2019-07-07T05:30:51Z</time>
      </trkpt>
      <trkpt lat="40.6316360" lon="-2.6765970">
        <ele>820.0</ele>
        <time>2019-07-07T05:30:52Z</time>
      </trkpt>
      <trkpt lat="40.6315570" lon="-2.6766210">
        <ele>819.8</ele>
        <time>2019-07-07T05:30:54Z</time>
      </trkpt>
      <trkpt lat="40.6313480" lon="-2.6766820">
        <ele>819.4</ele>
        <time>2019-07-07T05:30:59Z</time>
      </trkpt>
      <trkpt lat="40.6312180" lon="-2.6767080">
        <ele>819.2</ele>
        <time>2019-07-07T05:31:02Z</time>
      </trkpt>
      <trkpt lat="40.6311760" lon="-2.6767150">
        <ele>819.0</ele>
        <time>2019-07-07T05:31:03Z</time>
      </trkpt>
      <trkpt lat="40.6310380" lon="-2.6767350">
        <ele>817.6</ele>
        <time>2019-07-07T05:31:06Z</time>
      </trkpt>
      <trkpt lat="40.6309920" lon="-2.6767360">
        <ele>817.2</ele>
        <time>2019-07-07T05:31:07Z</time>
      </trkpt>
      <trkpt lat="40.6309460" lon="-2.6767340">
        <ele>816.4</ele>
        <time>2019-07-07T05:31:08Z</time>
      </trkpt>
      <trkpt lat="40.6308570" lon="-2.6767280">
        <ele>815.0</ele>
        <time>2019-07-07T05:31:10Z</time>
      </trkpt>
      <trkpt lat="40.6307580" lon="-2.6767190">
        <ele>814.0</ele>
        <time>2019-07-07T05:31:12Z</time>
      </trkpt>
      <trkpt lat="40.6307070" lon="-2.6767110">
        <ele>813.0</ele>
        <time>2019-07-07T05:31:13Z</time>
      </trkpt>
      <trkpt lat="40.6306560" lon="-2.6767040">
        <ele>812.0</ele>
        <time>2019-07-07T05:31:14Z</time>
      </trkpt>
      <trkpt lat="40.6306030" lon="-2.6766980">
        <ele>811.2</ele>
        <time>2019-07-07T05:31:15Z</time>
      </trkpt>
      <trkpt lat="40.6304890" lon="-2.6767010">
        <ele>810.0</ele>
        <time>2019-07-07T05:31:17Z</time>
      </trkpt>
      <trkpt lat="40.6304300" lon="-2.6767100">
        <ele>809.6</ele>
        <time>2019-07-07T05:31:18Z</time>
      </trkpt>
      <trkpt lat="40.6303710" lon="-2.6767240">
        <ele>809.2</ele>
        <time>2019-07-07T05:31:19Z</time>
      </trkpt>
      <trkpt lat="40.6301240" lon="-2.6767950">
        <ele>809.0</ele>
        <time>2019-07-07T05:31:23Z</time>
      </trkpt>
      <trkpt lat="40.6299630" lon="-2.6768250">
        <ele>808.2</ele>
        <time>2019-07-07T05:31:26Z</time>
      </trkpt>
      <trkpt lat="40.6299190" lon="-2.6768230">
        <ele>807.6</ele>
        <time>2019-07-07T05:31:27Z</time>
      </trkpt>
      <trkpt lat="40.6298030" lon="-2.6767630">
        <ele>807.0</ele>
        <time>2019-07-07T05:31:30Z</time>
      </trkpt>
      <trkpt lat="40.6297560" lon="-2.6766830">
        <ele>806.6</ele>
        <time>2019-07-07T05:31:32Z</time>
      </trkpt>
      <trkpt lat="40.6297230" lon="-2.6765780">
        <ele>806.2</ele>
        <time>2019-07-07T05:31:34Z</time>
      </trkpt>
      <trkpt lat="40.6297070" lon="-2.6765130">
        <ele>806.0</ele>
        <time>2019-07-07T05:31:35Z</time>
      </trkpt>
      <trkpt lat="40.6296890" lon="-2.6764400">
        <ele>805.6</ele>
        <time>2019-07-07T05:31:36Z</time>
      </trkpt>
      <trkpt lat="40.6296640" lon="-2.6762710">
        <ele>804.2</ele>
        <time>2019-07-07T05:31:38Z</time>
      </trkpt>
      <trkpt lat="40.6296670" lon="-2.6758620">
        <ele>803.0</ele>
        <time>2019-07-07T05:31:43Z</time>
      </trkpt>
      <trkpt lat="40.6297470" lon="-2.6754240">
        <ele>802.2</ele>
        <time>2019-07-07T05:31:49Z</time>
      </trkpt>
      <trkpt lat="40.6297730" lon="-2.6753460">
        <ele>802.0</ele>
        <time>2019-07-07T05:31:50Z</time>
      </trkpt>
      <trkpt lat="40.6298580" lon="-2.6750830">
        <ele>800.6</ele>
        <time>2019-07-07T05:31:53Z</time>
      </trkpt>
      <trkpt lat="40.6298820" lon="-2.6749870">
        <ele>800.2</ele>
        <time>2019-07-07T05:31:54Z</time>
      </trkpt>
      <trkpt lat="40.6299470" lon="-2.6746980">
        <ele>799.0</ele>
        <time>2019-07-07T05:31:57Z</time>
      </trkpt>
      <trkpt lat="40.6300020" lon="-2.6745280">
        <ele>797.8</ele>
        <time>2019-07-07T05:31:59Z</time>
      </trkpt>
      <trkpt lat="40.6301830" lon="-2.6742560">
        <ele>797.2</ele>
        <time>2019-07-07T05:32:03Z</time>
      </trkpt>
      <trkpt lat="40.6302700" lon="-2.6741450">
        <ele>797.2</ele>
        <time>2019-07-07T05:32:05Z</time>
      </trkpt>
      <trkpt lat="40.6303500" lon="-2.6740500">
        <ele>797.6</ele>
        <time>2019-07-07T05:32:07Z</time>
      </trkpt>
      <trkpt lat="40.6303860" lon="-2.6740070">
        <ele>798.0</ele>
        <time>2019-07-07T05:32:08Z</time>
      </trkpt>
      <trkpt lat="40.6304190" lon="-2.6739650">
        <ele>798.0</ele>
        <time>2019-07-07T05:32:09Z</time>
      </trkpt>
      <trkpt lat="40.6304860" lon="-2.6738700">
        <ele>798.2</ele>
        <time>2019-07-07T05:32:11Z</time>
      </trkpt>
      <trkpt lat="40.6306530" lon="-2.6736750">
        <ele>798.2</ele>
        <time>2019-07-07T05:32:15Z</time>
      </trkpt>
      <trkpt lat="40.6309210" lon="-2.6732830">
        <ele>796.8</ele>
        <time>2019-07-07T05:32:21Z</time>
      </trkpt>
      <trkpt lat="40.6309570" lon="-2.6732160">
        <ele>796.4</ele>
        <time>2019-07-07T05:32:22Z</time>
      </trkpt>
      <trkpt lat="40.6310100" lon="-2.6731090">
        <ele>795.8</ele>
        <time>2019-07-07T05:32:24Z</time>
      </trkpt>
      <trkpt lat="40.6310200" lon="-2.6730550">
        <ele>795.8</ele>
        <time>2019-07-07T05:32:25Z</time>
      </trkpt>
      <trkpt lat="40.6309850" lon="-2.6729160">
        <ele>795.4</ele>
        <time>2019-07-07T05:32:28Z</time>
      </trkpt>
      <trkpt lat="40.6309570" lon="-2.6728810">
        <ele>795.2</ele>
        <time>2019-07-07T05:32:29Z</time>
      </trkpt>
      <trkpt lat="40.6309260" lon="-2.6728510">
        <ele>794.8</ele>
        <time>2019-07-07T05:32:30Z</time>
      </trkpt>
      <trkpt lat="40.6308540" lon="-2.6727870">
        <ele>794.2</ele>
        <time>2019-07-07T05:32:32Z</time>
      </trkpt>
      <trkpt lat="40.6308190" lon="-2.6727610">
        <ele>793.8</ele>
        <time>2019-07-07T05:32:33Z</time>
      </trkpt>
      <trkpt lat="40.6307230" lon="-2.6726840">
        <ele>792.8</ele>
        <time>2019-07-07T05:32:36Z</time>
      </trkpt>
      <trkpt lat="40.6306920" lon="-2.6726560">
        <ele>792.6</ele>
        <time>2019-07-07T05:32:37Z</time>
      </trkpt>
      <trkpt lat="40.6306260" lon="-2.6725800">
        <ele>791.0</ele>
        <time>2019-07-07T05:32:39Z</time>
      </trkpt>
      <trkpt lat="40.6305750" lon="-2.6724780">
        <ele>790.2</ele>
        <time>2019-07-07T05:32:41Z</time>
      </trkpt>
      <trkpt lat="40.6305540" lon="-2.6724210">
        <ele>789.4</ele>
        <time>2019-07-07T05:32:42Z</time>
      </trkpt>
      <trkpt lat="40.6305330" lon="-2.6722790">
        <ele>788.6</ele>
        <time>2019-07-07T05:32:44Z</time>
      </trkpt>
      <trkpt lat="40.6305360" lon="-2.6722020">
        <ele>788.2</ele>
        <time>2019-07-07T05:32:45Z</time>
      </trkpt>
      <trkpt lat="40.6305420" lon="-2.6719740">
        <ele>787.4</ele>
        <time>2019-07-07T05:32:48Z</time>
      </trkpt>
      <trkpt lat="40.6305530" lon="-2.6718190">
        <ele>787.0</ele>
        <time>2019-07-07T05:32:50Z</time>
      </trkpt>
      <trkpt lat="40.6305880" lon="-2.6715720">
        <ele>786.0</ele>
        <time>2019-07-07T05:32:53Z</time>
      </trkpt>
      <trkpt lat="40.6306230" lon="-2.6713150">
        <ele>785.6</ele>
        <time>2019-07-07T05:32:56Z</time>
      </trkpt>
      <trkpt lat="40.6306420" lon="-2.6710510">
        <ele>785.0</ele>
        <time>2019-07-07T05:32:59Z</time>
      </trkpt>
      <trkpt lat="40.6306460" lon="-2.6707480">
        <ele>784.6</ele>
        <time>2019-07-07T05:33:03Z</time>
      </trkpt>
      <trkpt lat="40.6306570" lon="-2.6706140">
        <ele>784.8</ele>
        <time>2019-07-07T05:33:05Z</time>
      </trkpt>
      <trkpt lat="40.6306950" lon="-2.6704270">
        <ele>784.6</ele>
        <time>2019-07-07T05:33:08Z</time>
      </trkpt>
      <trkpt lat="40.6307050" lon="-2.6703860">
        <ele>784.4</ele>
        <time>2019-07-07T05:33:09Z</time>
      </trkpt>
      <trkpt lat="40.6307130" lon="-2.6703610">
        <ele>784.4</ele>
        <time>2019-07-07T05:33:11Z</time>
      </trkpt>
      <trkpt lat="40.6307150" lon="-2.6703590">
        <ele>784.4</ele>
        <time>2019-07-07T05:33:12Z</time>
      </trkpt>
      <trkpt lat="40.6307330" lon="-2.6703130">
        <ele>784.4</ele>
        <time>2019-07-07T05:33:16Z</time>
      </trkpt>
      <trkpt lat="40.6307410" lon="-2.6702360">
        <ele>784.2</ele>
        <time>2019-07-07T05:33:19Z</time>
      </trkpt>
      <trkpt lat="40.6307660" lon="-2.6699880">
        <ele>784.4</ele>
        <time>2019-07-07T05:33:25Z</time>
      </trkpt>
      <trkpt lat="40.6307760" lon="-2.6697440">
        <ele>784.6</ele>
        <time>2019-07-07T05:33:30Z</time>
      </trkpt>
      <trkpt lat="40.6307820" lon="-2.6696630">
        <ele>784.8</ele>
        <time>2019-07-07T05:33:32Z</time>
      </trkpt>
      <trkpt lat="40.6308440" lon="-2.6694470">
        <ele>786.0</ele>
        <time>2019-07-07T05:33:38Z</time>
      </trkpt>
      <trkpt lat="40.6308700" lon="-2.6693920">
        <ele>786.0</ele>
        <time>2019-07-07T05:33:39Z</time>
      </trkpt>
      <trkpt lat="40.6309750" lon="-2.6692010">
        <ele>784.0</ele>
        <time>2019-07-07T05:33:42Z</time>
      </trkpt>
      <trkpt lat="40.6310140" lon="-2.6691390">
        <ele>782.8</ele>
        <time>2019-07-07T05:33:43Z</time>
      </trkpt>
      <trkpt lat="40.6310910" lon="-2.6690310">
        <ele>780.8</ele>
        <time>2019-07-07T05:33:45Z</time>
      </trkpt>
      <trkpt lat="40.6311820" lon="-2.6689490">
        <ele>779.2</ele>
        <time>2019-07-07T05:33:47Z</time>
      </trkpt>
      <trkpt lat="40.6312740" lon="-2.6688880">
        <ele>777.8</ele>
        <time>2019-07-07T05:33:49Z</time>
      </trkpt>
      <trkpt lat="40.6313130" lon="-2.6688550">
        <ele>777.2</ele>
        <time>2019-07-07T05:33:50Z</time>
      </trkpt>
      <trkpt lat="40.6313510" lon="-2.6688110">
        <ele>776.8</ele>
        <time>2019-07-07T05:33:51Z</time>
      </trkpt>
      <trkpt lat="40.6313840" lon="-2.6687610">
        <ele>775.8</ele>
        <time>2019-07-07T05:33:52Z</time>
      </trkpt>
      <trkpt lat="40.6314080" lon="-2.6687050">
        <ele>775.0</ele>
        <time>2019-07-07T05:33:53Z</time>
      </trkpt>
      <trkpt lat="40.6314280" lon="-2.6685870">
        <ele>773.6</ele>
        <time>2019-07-07T05:33:55Z</time>
      </trkpt>
      <trkpt lat="40.6314240" lon="-2.6685280">
        <ele>773.0</ele>
        <time>2019-07-07T05:33:56Z</time>
      </trkpt>
      <trkpt lat="40.6313640" lon="-2.6684020">
        <ele>772.6</ele>
        <time>2019-07-07T05:33:59Z</time>
      </trkpt>
      <trkpt lat="40.6313400" lon="-2.6683690">
        <ele>772.6</ele>
        <time>2019-07-07T05:34:00Z</time>
      </trkpt>
      <trkpt lat="40.6312800" lon="-2.6683200">
        <ele>773.0</ele>
        <time>2019-07-07T05:34:02Z</time>
      </trkpt>
      <trkpt lat="40.6312300" lon="-2.6682660">
        <ele>773.6</ele>
        <time>2019-07-07T05:34:04Z</time>
      </trkpt>
      <trkpt lat="40.6311630" lon="-2.6681480">
        <ele>774.2</ele>
        <time>2019-07-07T05:34:07Z</time>
      </trkpt>
      <trkpt lat="40.6311180" lon="-2.6680350">
        <ele>774.4</ele>
        <time>2019-07-07T05:34:09Z</time>
      </trkpt>
      <trkpt lat="40.6310100" lon="-2.6677030">
        <ele>773.6</ele>
        <time>2019-07-07T05:34:14Z</time>
      </trkpt>
      <trkpt lat="40.6309960" lon="-2.6676300">
        <ele>773.4</ele>
        <time>2019-07-07T05:34:15Z</time>
      </trkpt>
      <trkpt lat="40.6309790" lon="-2.6674730">
        <ele>772.4</ele>
        <time>2019-07-07T05:34:17Z</time>
      </trkpt>
      <trkpt lat="40.6309910" lon="-2.6673070">
        <ele>771.2</ele>
        <time>2019-07-07T05:34:19Z</time>
      </trkpt>
      <trkpt lat="40.6309930" lon="-2.6672310">
        <ele>770.8</ele>
        <time>2019-07-07T05:34:20Z</time>
      </trkpt>
      <trkpt lat="40.6309690" lon="-2.6670970">
        <ele>770.2</ele>
        <time>2019-07-07T05:34:22Z</time>
      </trkpt>
      <trkpt lat="40.6308850" lon="-2.6669380">
        <ele>769.6</ele>
        <time>2019-07-07T05:34:25Z</time>
      </trkpt>
      <trkpt lat="40.6308260" lon="-2.6668190">
        <ele>769.4</ele>
        <time>2019-07-07T05:34:27Z</time>
      </trkpt>
      <trkpt lat="40.6307970" lon="-2.6667450">
        <ele>769.2</ele>
        <time>2019-07-07T05:34:28Z</time>
      </trkpt>
      <trkpt lat="40.6307710" lon="-2.6666630">
        <ele>769.0</ele>
        <time>2019-07-07T05:34:29Z</time>
      </trkpt>
      <trkpt lat="40.6307270" lon="-2.6664680">
        <ele>767.4</ele>
        <time>2019-07-07T05:34:31Z</time>
      </trkpt>
      <trkpt lat="40.6307080" lon="-2.6663630">
        <ele>766.4</ele>
        <time>2019-07-07T05:34:32Z</time>
      </trkpt>
      <trkpt lat="40.6306880" lon="-2.6662580">
        <ele>765.8</ele>
        <time>2019-07-07T05:34:33Z</time>
      </trkpt>
      <trkpt lat="40.6306570" lon="-2.6660610">
        <ele>765.2</ele>
        <time>2019-07-07T05:34:35Z</time>
      </trkpt>
      <trkpt lat="40.6306450" lon="-2.6659730">
        <ele>765.2</ele>
        <time>2019-07-07T05:34:36Z</time>
      </trkpt>
      <trkpt lat="40.6306410" lon="-2.6658860">
        <ele>765.2</ele>
        <time>2019-07-07T05:34:37Z</time>
      </trkpt>
      <trkpt lat="40.6306630" lon="-2.6656130">
        <ele>764.2</ele>
        <time>2019-07-07T05:34:40Z</time>
      </trkpt>
      <trkpt lat="40.6306850" lon="-2.6655260">
        <ele>763.6</ele>
        <time>2019-07-07T05:34:41Z</time>
      </trkpt>
      <trkpt lat="40.6307500" lon="-2.6653580">
        <ele>762.6</ele>
        <time>2019-07-07T05:34:43Z</time>
      </trkpt>
      <trkpt lat="40.6307890" lon="-2.6652790">
        <ele>762.2</ele>
        <time>2019-07-07T05:34:44Z</time>
      </trkpt>
      <trkpt lat="40.6308240" lon="-2.6652010">
        <ele>761.8</ele>
        <time>2019-07-07T05:34:45Z</time>
      </trkpt>
      <trkpt lat="40.6308500" lon="-2.6651230">
        <ele>761.4</ele>
        <time>2019-07-07T05:34:46Z</time>
      </trkpt>
      <trkpt lat="40.6308750" lon="-2.6649670">
        <ele>761.0</ele>
        <time>2019-07-07T05:34:48Z</time>
      </trkpt>
      <trkpt lat="40.6308710" lon="-2.6647740">
        <ele>761.2</ele>
        <time>2019-07-07T05:34:51Z</time>
      </trkpt>
      <trkpt lat="40.6308670" lon="-2.6646600">
        <ele>762.0</ele>
        <time>2019-07-07T05:34:53Z</time>
      </trkpt>
      <trkpt lat="40.6308720" lon="-2.6645460">
        <ele>762.2</ele>
        <time>2019-07-07T05:34:55Z</time>
      </trkpt>
      <trkpt lat="40.6309040" lon="-2.6643590">
        <ele>762.0</ele>
        <time>2019-07-07T05:34:58Z</time>
      </trkpt>
      <trkpt lat="40.6310170" lon="-2.6639500">
        <ele>760.2</ele>
        <time>2019-07-07T05:35:03Z</time>
      </trkpt>
      <trkpt lat="40.6310650" lon="-2.6637740">
        <ele>759.0</ele>
        <time>2019-07-07T05:35:05Z</time>
      </trkpt>
      <trkpt lat="40.6310940" lon="-2.6636900">
        <ele>758.4</ele>
        <time>2019-07-07T05:35:06Z</time>
      </trkpt>
      <trkpt lat="40.6311500" lon="-2.6635140">
        <ele>757.8</ele>
        <time>2019-07-07T05:35:08Z</time>
      </trkpt>
      <trkpt lat="40.6312190" lon="-2.6631260">
        <ele>757.2</ele>
        <time>2019-07-07T05:35:13Z</time>
      </trkpt>
      <trkpt lat="40.6312450" lon="-2.6629300">
        <ele>757.8</ele>
        <time>2019-07-07T05:35:16Z</time>
      </trkpt>
      <trkpt lat="40.6312630" lon="-2.6626840">
        <ele>758.6</ele>
        <time>2019-07-07T05:35:20Z</time>
      </trkpt>
      <trkpt lat="40.6312720" lon="-2.6625060">
        <ele>758.8</ele>
        <time>2019-07-07T05:35:23Z</time>
      </trkpt>
      <trkpt lat="40.6312790" lon="-2.6622870">
        <ele>759.2</ele>
        <time>2019-07-07T05:35:27Z</time>
      </trkpt>
      <trkpt lat="40.6312800" lon="-2.6622360">
        <ele>759.6</ele>
        <time>2019-07-07T05:35:28Z</time>
      </trkpt>
      <trkpt lat="40.6312830" lon="-2.6621860">
        <ele>759.8</ele>
        <time>2019-07-07T05:35:29Z</time>
      </trkpt>
      <trkpt lat="40.6312940" lon="-2.6621040">
        <ele>760.6</ele>
        <time>2019-07-07T05:35:31Z</time>
      </trkpt>
      <trkpt lat="40.6312980" lon="-2.6620700">
        <ele>760.8</ele>
        <time>2019-07-07T05:35:32Z</time>
      </trkpt>
      <trkpt lat="40.6312990" lon="-2.6620400">
        <ele>761.2</ele>
        <time>2019-07-07T05:35:33Z</time>
      </trkpt>
      <trkpt lat="40.6313000" lon="-2.6619530">
        <ele>762.2</ele>
        <time>2019-07-07T05:35:36Z</time>
      </trkpt>
      <trkpt lat="40.6312960" lon="-2.6618960">
        <ele>763.0</ele>
        <time>2019-07-07T05:35:38Z</time>
      </trkpt>
      <trkpt lat="40.6312940" lon="-2.6618690">
        <ele>763.4</ele>
        <time>2019-07-07T05:35:39Z</time>
      </trkpt>
      <trkpt lat="40.6312860" lon="-2.6618140">
        <ele>763.8</ele>
        <time>2019-07-07T05:35:41Z</time>
      </trkpt>
      <trkpt lat="40.6312760" lon="-2.6617630">
        <ele>764.0</ele>
        <time>2019-07-07T05:35:43Z</time>
      </trkpt>
      <trkpt lat="40.6312730" lon="-2.6617390">
        <ele>764.4</ele>
        <time>2019-07-07T05:35:44Z</time>
      </trkpt>
      <trkpt lat="40.6312660" lon="-2.6616880">
        <ele>764.8</ele>
        <time>2019-07-07T05:35:46Z</time>
      </trkpt>
      <trkpt lat="40.6312640" lon="-2.6616150">
        <ele>765.4</ele>
        <time>2019-07-07T05:35:49Z</time>
      </trkpt>
      <trkpt lat="40.6312590" lon="-2.6615100">
        <ele>766.4</ele>
        <time>2019-07-07T05:35:53Z</time>
      </trkpt>
      <trkpt lat="40.6312470" lon="-2.6613160">
        <ele>767.4</ele>
        <time>2019-07-07T05:35:59Z</time>
      </trkpt>
      <trkpt lat="40.6312670" lon="-2.6610820">
        <ele>768.4</ele>
        <time>2019-07-07T05:36:06Z</time>
      </trkpt>
      <trkpt lat="40.6312780" lon="-2.6610470">
        <ele>768.6</ele>
        <time>2019-07-07T05:36:07Z</time>
      </trkpt>
      <trkpt lat="40.6313860" lon="-2.6609080">
        <ele>768.8</ele>
        <time>2019-07-07T05:36:12Z</time>
      </trkpt>
      <trkpt lat="40.6314960" lon="-2.6609140">
        <ele>768.8</ele>
        <time>2019-07-07T05:36:15Z</time>
      </trkpt>
      <trkpt lat="40.6316360" lon="-2.6609820">
        <ele>768.4</ele>
        <time>2019-07-07T05:36:18Z</time>
      </trkpt>
      <trkpt lat="40.6317530" lon="-2.6610360">
        <ele>767.6</ele>
        <time>2019-07-07T05:36:20Z</time>
      </trkpt>
      <trkpt lat="40.6318210" lon="-2.6610650">
        <ele>767.0</ele>
        <time>2019-07-07T05:36:21Z</time>
      </trkpt>
      <trkpt lat="40.6319540" lon="-2.6611120">
        <ele>765.6</ele>
        <time>2019-07-07T05:36:23Z</time>
      </trkpt>
      <trkpt lat="40.6320140" lon="-2.6611250">
        <ele>764.6</ele>
        <time>2019-07-07T05:36:24Z</time>
      </trkpt>
      <trkpt lat="40.6320700" lon="-2.6611280">
        <ele>764.0</ele>
        <time>2019-07-07T05:36:25Z</time>
      </trkpt>
      <trkpt lat="40.6321250" lon="-2.6611190">
        <ele>763.4</ele>
        <time>2019-07-07T05:36:26Z</time>
      </trkpt>
      <trkpt lat="40.6321740" lon="-2.6610990">
        <ele>763.2</ele>
        <time>2019-07-07T05:36:27Z</time>
      </trkpt>
      <trkpt lat="40.6322120" lon="-2.6610700">
        <ele>762.8</ele>
        <time>2019-07-07T05:36:28Z</time>
      </trkpt>
      <trkpt lat="40.6322360" lon="-2.6610330">
        <ele>762.4</ele>
        <time>2019-07-07T05:36:29Z</time>
      </trkpt>
      <trkpt lat="40.6322500" lon="-2.6609500">
        <ele>762.0</ele>
        <time>2019-07-07T05:36:31Z</time>
      </trkpt>
      <trkpt lat="40.6322260" lon="-2.6608730">
        <ele>761.6</ele>
        <time>2019-07-07T05:36:33Z</time>
      </trkpt>
      <trkpt lat="40.6322020" lon="-2.6608380">
        <ele>761.2</ele>
        <time>2019-07-07T05:36:34Z</time>
      </trkpt>
      <trkpt lat="40.6321720" lon="-2.6608070">
        <ele>760.8</ele>
        <time>2019-07-07T05:36:35Z</time>
      </trkpt>
      <trkpt lat="40.6321360" lon="-2.6607740">
        <ele>760.6</ele>
        <time>2019-07-07T05:36:36Z</time>
      </trkpt>
      <trkpt lat="40.6320920" lon="-2.6607380">
        <ele>760.2</ele>
        <time>2019-07-07T05:36:37Z</time>
      </trkpt>
      <trkpt lat="40.6320000" lon="-2.6606540">
        <ele>759.0</ele>
        <time>2019-07-07T05:36:39Z</time>
      </trkpt>
      <trkpt lat="40.6319150" lon="-2.6605690">
        <ele>757.8</ele>
        <time>2019-07-07T05:36:41Z</time>
      </trkpt>
      <trkpt lat="40.6318780" lon="-2.6605170">
        <ele>757.4</ele>
        <time>2019-07-07T05:36:42Z</time>
      </trkpt>
      <trkpt lat="40.6318470" lon="-2.6604600">
        <ele>756.8</ele>
        <time>2019-07-07T05:36:43Z</time>
      </trkpt>
      <trkpt lat="40.6318210" lon="-2.6604000">
        <ele>756.0</ele>
        <time>2019-07-07T05:36:44Z</time>
      </trkpt>
      <trkpt lat="40.6317830" lon="-2.6602700">
        <ele>755.2</ele>
        <time>2019-07-07T05:36:46Z</time>
      </trkpt>
      <trkpt lat="40.6317670" lon="-2.6602030">
        <ele>754.6</ele>
        <time>2019-07-07T05:36:47Z</time>
      </trkpt>
      <trkpt lat="40.6317510" lon="-2.6601380">
        <ele>753.4</ele>
        <time>2019-07-07T05:36:48Z</time>
      </trkpt>
      <trkpt lat="40.6317230" lon="-2.6600190">
        <ele>752.4</ele>
        <time>2019-07-07T05:36:50Z</time>
      </trkpt>
      <trkpt lat="40.6317070" lon="-2.6599630">
        <ele>752.0</ele>
        <time>2019-07-07T05:36:51Z</time>
      </trkpt>
      <trkpt lat="40.6316910" lon="-2.6599080">
        <ele>751.4</ele>
        <time>2019-07-07T05:36:52Z</time>
      </trkpt>
      <trkpt lat="40.6316790" lon="-2.6598550">
        <ele>750.2</ele>
        <time>2019-07-07T05:36:53Z</time>
      </trkpt>
      <trkpt lat="40.6316720" lon="-2.6598020">
        <ele>749.4</ele>
        <time>2019-07-07T05:36:54Z</time>
      </trkpt>
      <trkpt lat="40.6316730" lon="-2.6597480">
        <ele>748.6</ele>
        <time>2019-07-07T05:36:55Z</time>
      </trkpt>
      <trkpt lat="40.6316830" lon="-2.6596910">
        <ele>747.6</ele>
        <time>2019-07-07T05:36:56Z</time>
      </trkpt>
      <trkpt lat="40.6317020" lon="-2.6596370">
        <ele>746.4</ele>
        <time>2019-07-07T05:36:57Z</time>
      </trkpt>
      <trkpt lat="40.6317280" lon="-2.6595890">
        <ele>745.6</ele>
        <time>2019-07-07T05:36:58Z</time>
      </trkpt>
      <trkpt lat="40.6317610" lon="-2.6595500">
        <ele>745.4</ele>
        <time>2019-07-07T05:36:59Z</time>
      </trkpt>
      <trkpt lat="40.6318540" lon="-2.6594930">
        <ele>744.8</ele>
        <time>2019-07-07T05:37:01Z</time>
      </trkpt>
      <trkpt lat="40.6319080" lon="-2.6594690">
        <ele>744.6</ele>
        <time>2019-07-07T05:37:02Z</time>
      </trkpt>
      <trkpt lat="40.6319610" lon="-2.6594460">
        <ele>744.2</ele>
        <time>2019-07-07T05:37:03Z</time>
      </trkpt>
      <trkpt lat="40.6321120" lon="-2.6593930">
        <ele>743.2</ele>
        <time>2019-07-07T05:37:06Z</time>
      </trkpt>
      <trkpt lat="40.6321580" lon="-2.6593830">
        <ele>743.2</ele>
        <time>2019-07-07T05:37:07Z</time>
      </trkpt>
      <trkpt lat="40.6322050" lon="-2.6593820">
        <ele>743.0</ele>
        <time>2019-07-07T05:37:08Z</time>
      </trkpt>
      <trkpt lat="40.6323660" lon="-2.6594160">
        <ele>743.0</ele>
        <time>2019-07-07T05:37:11Z</time>
      </trkpt>
      <trkpt lat="40.6324670" lon="-2.6594320">
        <ele>741.8</ele>
        <time>2019-07-07T05:37:13Z</time>
      </trkpt>
      <trkpt lat="40.6325050" lon="-2.6594140">
        <ele>740.8</ele>
        <time>2019-07-07T05:37:14Z</time>
      </trkpt>
      <trkpt lat="40.6325320" lon="-2.6593830">
        <ele>740.4</ele>
        <time>2019-07-07T05:37:15Z</time>
      </trkpt>
      <trkpt lat="40.6325680" lon="-2.6593060">
        <ele>740.0</ele>
        <time>2019-07-07T05:37:17Z</time>
      </trkpt>
      <trkpt lat="40.6325810" lon="-2.6592610">
        <ele>739.8</ele>
        <time>2019-07-07T05:37:18Z</time>
      </trkpt>
      <trkpt lat="40.6326070" lon="-2.6590900">
        <ele>739.4</ele>
        <time>2019-07-07T05:37:21Z</time>
      </trkpt>
      <trkpt lat="40.6326160" lon="-2.6590230">
        <ele>739.2</ele>
        <time>2019-07-07T05:37:22Z</time>
      </trkpt>
      <trkpt lat="40.6326270" lon="-2.6589540">
        <ele>739.0</ele>
        <time>2019-07-07T05:37:23Z</time>
      </trkpt>
      <trkpt lat="40.6327510" lon="-2.6585160">
        <ele>738.2</ele>
        <time>2019-07-07T05:37:29Z</time>
      </trkpt>
      <trkpt lat="40.6329210" lon="-2.6579690">
        <ele>737.2</ele>
        <time>2019-07-07T05:37:37Z</time>
      </trkpt>
      <trkpt lat="40.6329470" lon="-2.6579050">
        <ele>737.2</ele>
        <time>2019-07-07T05:37:38Z</time>
      </trkpt>
      <trkpt lat="40.6330260" lon="-2.6577130">
        <ele>737.2</ele>
        <time>2019-07-07T05:37:41Z</time>
      </trkpt>
      <trkpt lat="40.6330910" lon="-2.6575890">
        <ele>737.2</ele>
        <time>2019-07-07T05:37:43Z</time>
      </trkpt>
      <trkpt lat="40.6331670" lon="-2.6574820">
        <ele>737.2</ele>
        <time>2019-07-07T05:37:45Z</time>
      </trkpt>
      <trkpt lat="40.6332400" lon="-2.6573790">
        <ele>737.6</ele>
        <time>2019-07-07T05:37:47Z</time>
      </trkpt>
      <trkpt lat="40.6333070" lon="-2.6572830">
        <ele>738.0</ele>
        <time>2019-07-07T05:37:49Z</time>
      </trkpt>
      <trkpt lat="40.6333590" lon="-2.6571880">
        <ele>738.2</ele>
        <time>2019-07-07T05:37:51Z</time>
      </trkpt>
      <trkpt lat="40.6333850" lon="-2.6571430">
        <ele>738.4</ele>
        <time>2019-07-07T05:37:52Z</time>
      </trkpt>
      <trkpt lat="40.6334710" lon="-2.6569640">
        <ele>739.2</ele>
        <time>2019-07-07T05:37:56Z</time>
      </trkpt>
      <trkpt lat="40.6334930" lon="-2.6569220">
        <ele>739.4</ele>
        <time>2019-07-07T05:37:57Z</time>
      </trkpt>
      <trkpt lat="40.6335970" lon="-2.6567620">
        <ele>739.6</ele>
        <time>2019-07-07T05:38:01Z</time>
      </trkpt>
      <trkpt lat="40.6336310" lon="-2.6567170">
        <ele>739.6</ele>
        <time>2019-07-07T05:38:02Z</time>
      </trkpt>
      <trkpt lat="40.6338830" lon="-2.6564410">
        <ele>739.4</ele>
        <time>2019-07-07T05:38:08Z</time>
      </trkpt>
      <trkpt lat="40.6339890" lon="-2.6562970">
        <ele>739.2</ele>
        <time>2019-07-07T05:38:11Z</time>
      </trkpt>
      <trkpt lat="40.6340410" lon="-2.6561930">
        <ele>739.2</ele>
        <time>2019-07-07T05:38:13Z</time>
      </trkpt>
      <trkpt lat="40.6341200" lon="-2.6560300">
        <ele>739.2</ele>
        <time>2019-07-07T05:38:16Z</time>
      </trkpt>
      <trkpt lat="40.6342240" lon="-2.6557720">
        <ele>738.6</ele>
        <time>2019-07-07T05:38:20Z</time>
      </trkpt>
      <trkpt lat="40.6342750" lon="-2.6556400">
        <ele>738.4</ele>
        <time>2019-07-07T05:38:22Z</time>
      </trkpt>
      <trkpt lat="40.6343410" lon="-2.6554560">
        <ele>738.2</ele>
        <time>2019-07-07T05:38:25Z</time>
      </trkpt>
      <trkpt lat="40.6343720" lon="-2.6553430">
        <ele>737.8</ele>
        <time>2019-07-07T05:38:27Z</time>
      </trkpt>
      <trkpt lat="40.6344200" lon="-2.6550510">
        <ele>738.0</ele>
        <time>2019-07-07T05:38:32Z</time>
      </trkpt>
      <trkpt lat="40.6344840" lon="-2.6547510">
        <ele>737.8</ele>
        <time>2019-07-07T05:38:37Z</time>
      </trkpt>
      <trkpt lat="40.6346060" lon="-2.6543650">
        <ele>737.0</ele>
        <time>2019-07-07T05:38:44Z</time>
      </trkpt>
      <trkpt lat="40.6346970" lon="-2.6541780">
        <ele>737.6</ele>
        <time>2019-07-07T05:38:48Z</time>
      </trkpt>
      <trkpt lat="40.6347690" lon="-2.6540510">
        <ele>737.8</ele>
        <time>2019-07-07T05:38:51Z</time>
      </trkpt>
      <trkpt lat="40.6348520" lon="-2.6539330">
        <ele>737.8</ele>
        <time>2019-07-07T05:38:54Z</time>
      </trkpt>
      <trkpt lat="40.6349320" lon="-2.6538110">
        <ele>737.8</ele>
        <time>2019-07-07T05:38:57Z</time>
      </trkpt>
      <trkpt lat="40.6350440" lon="-2.6536280">
        <ele>738.0</ele>
        <time>2019-07-07T05:39:01Z</time>
      </trkpt>
      <trkpt lat="40.6350860" lon="-2.6535000">
        <ele>737.8</ele>
        <time>2019-07-07T05:39:03Z</time>
      </trkpt>
      <trkpt lat="40.6351030" lon="-2.6534340">
        <ele>737.6</ele>
        <time>2019-07-07T05:39:04Z</time>
      </trkpt>
      <trkpt lat="40.6351290" lon="-2.6532980">
        <ele>737.6</ele>
        <time>2019-07-07T05:39:06Z</time>
      </trkpt>
      <trkpt lat="40.6351350" lon="-2.6531000">
        <ele>737.4</ele>
        <time>2019-07-07T05:39:09Z</time>
      </trkpt>
      <trkpt lat="40.6351120" lon="-2.6529070">
        <ele>737.2</ele>
        <time>2019-07-07T05:39:12Z</time>
      </trkpt>
      <trkpt lat="40.6350770" lon="-2.6527100">
        <ele>737.0</ele>
        <time>2019-07-07T05:39:15Z</time>
      </trkpt>
      <trkpt lat="40.6350620" lon="-2.6526400">
        <ele>737.0</ele>
        <time>2019-07-07T05:39:16Z</time>
      </trkpt>
      <trkpt lat="40.6349570" lon="-2.6521670">
        <ele>736.0</ele>
        <time>2019-07-07T05:39:22Z</time>
      </trkpt>
      <trkpt lat="40.6349350" lon="-2.6520870">
        <ele>735.8</ele>
        <time>2019-07-07T05:39:23Z</time>
      </trkpt>
      <trkpt lat="40.6347910" lon="-2.6516210">
        <ele>735.4</ele>
        <time>2019-07-07T05:39:29Z</time>
      </trkpt>
      <trkpt lat="40.6347430" lon="-2.6514580">
        <ele>735.2</ele>
        <time>2019-07-07T05:39:31Z</time>
      </trkpt>
      <trkpt lat="40.6346880" lon="-2.6510400">
        <ele>735.0</ele>
        <time>2019-07-07T05:39:36Z</time>
      </trkpt>
      <trkpt lat="40.6346770" lon="-2.6508150">
        <ele>735.4</ele>
        <time>2019-07-07T05:39:39Z</time>
      </trkpt>
      <trkpt lat="40.6346510" lon="-2.6505480">
        <ele>735.8</ele>
        <time>2019-07-07T05:39:43Z</time>
      </trkpt>
      <trkpt lat="40.6345980" lon="-2.6502630">
        <ele>736.8</ele>
        <time>2019-07-07T05:39:48Z</time>
      </trkpt>
      <trkpt lat="40.6345840" lon="-2.6502260">
        <ele>737.0</ele>
        <time>2019-07-07T05:39:49Z</time>
      </trkpt>
      <trkpt lat="40.6345310" lon="-2.6501340">
        <ele>738.0</ele>
        <time>2019-07-07T05:39:53Z</time>
      </trkpt>
      <trkpt lat="40.6345230" lon="-2.6501040">
        <ele>738.2</ele>
        <time>2019-07-07T05:39:54Z</time>
      </trkpt>
      <trkpt lat="40.6345500" lon="-2.6498850">
        <ele>738.8</ele>
        <time>2019-07-07T05:39:59Z</time>
      </trkpt>
      <trkpt lat="40.6345810" lon="-2.6497860">
        <ele>738.8</ele>
        <time>2019-07-07T05:40:01Z</time>
      </trkpt>
      <trkpt lat="40.6346140" lon="-2.6496810">
        <ele>739.0</ele>
        <time>2019-07-07T05:40:03Z</time>
      </trkpt>
      <trkpt lat="40.6347030" lon="-2.6494180">
        <ele>739.0</ele>
        <time>2019-07-07T05:40:08Z</time>
      </trkpt>
      <trkpt lat="40.6347960" lon="-2.6491850">
        <ele>739.2</ele>
        <time>2019-07-07T05:40:13Z</time>
      </trkpt>
      <trkpt lat="40.6348190" lon="-2.6491380">
        <ele>739.2</ele>
        <time>2019-07-07T05:40:14Z</time>
      </trkpt>
      <trkpt lat="40.6348620" lon="-2.6490390">
        <ele>739.4</ele>
        <time>2019-07-07T05:40:16Z</time>
      </trkpt>
      <trkpt lat="40.6350660" lon="-2.6485880">
        <ele>739.6</ele>
        <time>2019-07-07T05:40:25Z</time>
      </trkpt>
      <trkpt lat="40.6352570" lon="-2.6481850">
        <ele>740.0</ele>
        <time>2019-07-07T05:40:33Z</time>
      </trkpt>
      <trkpt lat="40.6354440" lon="-2.6477990">
        <ele>740.8</ele>
        <time>2019-07-07T05:40:41Z</time>
      </trkpt>
      <trkpt lat="40.6355350" lon="-2.6476090">
        <ele>741.0</ele>
        <time>2019-07-07T05:40:45Z</time>
      </trkpt>
      <trkpt lat="40.6356310" lon="-2.6474140">
        <ele>741.0</ele>
        <time>2019-07-07T05:40:49Z</time>
      </trkpt>
      <trkpt lat="40.6356930" lon="-2.6472650">
        <ele>741.2</ele>
        <time>2019-07-07T05:40:52Z</time>
      </trkpt>
      <trkpt lat="40.6357840" lon="-2.6470040">
        <ele>741.8</ele>
        <time>2019-07-07T05:40:57Z</time>
      </trkpt>
      <trkpt lat="40.6358600" lon="-2.6467220">
        <ele>742.0</ele>
        <time>2019-07-07T05:41:02Z</time>
      </trkpt>
      <trkpt lat="40.6358930" lon="-2.6466120">
        <ele>742.4</ele>
        <time>2019-07-07T05:41:04Z</time>
      </trkpt>
      <trkpt lat="40.6359150" lon="-2.6463190">
        <ele>742.8</ele>
        <time>2019-07-07T05:41:09Z</time>
      </trkpt>
      <trkpt lat="40.6359110" lon="-2.6462220">
        <ele>742.8</ele>
        <time>2019-07-07T05:41:11Z</time>
      </trkpt>
      <trkpt lat="40.6358910" lon="-2.6461800">
        <ele>742.8</ele>
        <time>2019-07-07T05:41:12Z</time>
      </trkpt>
      <trkpt lat="40.6357480" lon="-2.6460570">
        <ele>743.2</ele>
        <time>2019-07-07T05:41:17Z</time>
      </trkpt>
      <trkpt lat="40.6357200" lon="-2.6460400">
        <ele>743.4</ele>
        <time>2019-07-07T05:41:18Z</time>
      </trkpt>
      <trkpt lat="40.6356390" lon="-2.6460000">
        <ele>744.6</ele>
        <time>2019-07-07T05:41:21Z</time>
      </trkpt>
      <trkpt lat="40.6355410" lon="-2.6459460">
        <ele>745.6</ele>
        <time>2019-07-07T05:41:25Z</time>
      </trkpt>
      <trkpt lat="40.6355150" lon="-2.6459320">
        <ele>745.8</ele>
        <time>2019-07-07T05:41:26Z</time>
      </trkpt>
      <trkpt lat="40.6353780" lon="-2.6458670">
        <ele>746.6</ele>
        <time>2019-07-07T05:41:31Z</time>
      </trkpt>
      <trkpt lat="40.6353480" lon="-2.6458540">
        <ele>746.8</ele>
        <time>2019-07-07T05:41:32Z</time>
      </trkpt>
      <trkpt lat="40.6353210" lon="-2.6458380">
        <ele>747.0</ele>
        <time>2019-07-07T05:41:33Z</time>
      </trkpt>
      <trkpt lat="40.6352060" lon="-2.6457920">
        <ele>748.0</ele>
        <time>2019-07-07T05:41:37Z</time>
      </trkpt>
      <trkpt lat="40.6351180" lon="-2.6457580">
        <ele>748.4</ele>
        <time>2019-07-07T05:41:40Z</time>
      </trkpt>
      <trkpt lat="40.6350310" lon="-2.6457220">
        <ele>749.0</ele>
        <time>2019-07-07T05:41:43Z</time>
      </trkpt>
      <trkpt lat="40.6348770" lon="-2.6456840">
        <ele>750.0</ele>
        <time>2019-07-07T05:41:48Z</time>
      </trkpt>
      <trkpt lat="40.6348480" lon="-2.6456720">
        <ele>750.2</ele>
        <time>2019-07-07T05:41:49Z</time>
      </trkpt>
      <trkpt lat="40.6347440" lon="-2.6455990">
        <ele>750.8</ele>
        <time>2019-07-07T05:41:53Z</time>
      </trkpt>
      <trkpt lat="40.6347180" lon="-2.6455810">
        <ele>751.0</ele>
        <time>2019-07-07T05:41:54Z</time>
      </trkpt>
      <trkpt lat="40.6346930" lon="-2.6455620">
        <ele>751.2</ele>
        <time>2019-07-07T05:41:55Z</time>
      </trkpt>
      <trkpt lat="40.6345530" lon="-2.6454200">
        <ele>752.4</ele>
        <time>2019-07-07T05:42:01Z</time>
      </trkpt>
      <trkpt lat="40.6344760" lon="-2.6453000">
        <ele>753.6</ele>
        <time>2019-07-07T05:42:05Z</time>
      </trkpt>
      <trkpt lat="40.6344110" lon="-2.6452150">
        <ele>754.4</ele>
        <time>2019-07-07T05:42:08Z</time>
      </trkpt>
      <trkpt lat="40.6343880" lon="-2.6451880">
        <ele>754.8</ele>
        <time>2019-07-07T05:42:09Z</time>
      </trkpt>
      <trkpt lat="40.6343210" lon="-2.6451050">
        <ele>755.4</ele>
        <time>2019-07-07T05:42:12Z</time>
      </trkpt>
      <trkpt lat="40.6342790" lon="-2.6450390">
        <ele>755.8</ele>
        <time>2019-07-07T05:42:14Z</time>
      </trkpt>
      <trkpt lat="40.6342400" lon="-2.6449660">
        <ele>756.0</ele>
        <time>2019-07-07T05:42:16Z</time>
      </trkpt>
      <trkpt lat="40.6340930" lon="-2.6447840">
        <ele>756.8</ele>
        <time>2019-07-07T05:42:22Z</time>
      </trkpt>
      <trkpt lat="40.6340670" lon="-2.6447590">
        <ele>756.8</ele>
        <time>2019-07-07T05:42:23Z</time>
      </trkpt>
      <trkpt lat="40.6339340" lon="-2.6446360">
        <ele>757.8</ele>
        <time>2019-07-07T05:42:28Z</time>
      </trkpt>
      <trkpt lat="40.6339070" lon="-2.6446070">
        <ele>757.8</ele>
        <time>2019-07-07T05:42:29Z</time>
      </trkpt>
      <trkpt lat="40.6338460" lon="-2.6444660">
        <ele>758.8</ele>
        <time>2019-07-07T05:42:33Z</time>
      </trkpt>
      <trkpt lat="40.6338380" lon="-2.6444270">
        <ele>759.0</ele>
        <time>2019-07-07T05:42:34Z</time>
      </trkpt>
      <trkpt lat="40.6338090" lon="-2.6441910">
        <ele>760.2</ele>
        <time>2019-07-07T05:42:40Z</time>
      </trkpt>
      <trkpt lat="40.6337980" lon="-2.6441520">
        <ele>760.2</ele>
        <time>2019-07-07T05:42:41Z</time>
      </trkpt>
      <trkpt lat="40.6337150" lon="-2.6439770">
        <ele>761.4</ele>
        <time>2019-07-07T05:42:46Z</time>
      </trkpt>
      <trkpt lat="40.6336960" lon="-2.6439470">
        <ele>761.4</ele>
        <time>2019-07-07T05:42:47Z</time>
      </trkpt>
      <trkpt lat="40.6335680" lon="-2.6438390">
        <ele>762.6</ele>
        <time>2019-07-07T05:42:52Z</time>
      </trkpt>
      <trkpt lat="40.6335400" lon="-2.6438210">
        <ele>762.8</ele>
        <time>2019-07-07T05:42:53Z</time>
      </trkpt>
      <trkpt lat="40.6334030" lon="-2.6437320">
        <ele>763.8</ele>
        <time>2019-07-07T05:42:58Z</time>
      </trkpt>
      <trkpt lat="40.6333250" lon="-2.6436690">
        <ele>764.2</ele>
        <time>2019-07-07T05:43:01Z</time>
      </trkpt>
      <trkpt lat="40.6332510" lon="-2.6436020">
        <ele>765.0</ele>
        <time>2019-07-07T05:43:04Z</time>
      </trkpt>
      <trkpt lat="40.6332220" lon="-2.6435260">
        <ele>765.4</ele>
        <time>2019-07-07T05:43:06Z</time>
      </trkpt>
      <trkpt lat="40.6332210" lon="-2.6434790">
        <ele>765.6</ele>
        <time>2019-07-07T05:43:07Z</time>
      </trkpt>
      <trkpt lat="40.6332320" lon="-2.6434370">
        <ele>766.2</ele>
        <time>2019-07-07T05:43:08Z</time>
      </trkpt>
      <trkpt lat="40.6332470" lon="-2.6434040">
        <ele>766.4</ele>
        <time>2019-07-07T05:43:09Z</time>
      </trkpt>
      <trkpt lat="40.6333500" lon="-2.6433120">
        <ele>767.2</ele>
        <time>2019-07-07T05:43:13Z</time>
      </trkpt>
      <trkpt lat="40.6334600" lon="-2.6432400">
        <ele>768.2</ele>
        <time>2019-07-07T05:43:17Z</time>
      </trkpt>
      <trkpt lat="40.6335170" lon="-2.6432140">
        <ele>768.6</ele>
        <time>2019-07-07T05:43:19Z</time>
      </trkpt>
      <trkpt lat="40.6336340" lon="-2.6431750">
        <ele>769.4</ele>
        <time>2019-07-07T05:43:23Z</time>
      </trkpt>
      <trkpt lat="40.6337100" lon="-2.6431360">
        <ele>770.0</ele>
        <time>2019-07-07T05:43:26Z</time>
      </trkpt>
      <trkpt lat="40.6337800" lon="-2.6430740">
        <ele>770.6</ele>
        <time>2019-07-07T05:43:29Z</time>
      </trkpt>
      <trkpt lat="40.6338350" lon="-2.6429980">
        <ele>771.2</ele>
        <time>2019-07-07T05:43:32Z</time>
      </trkpt>
      <trkpt lat="40.6338810" lon="-2.6429010">
        <ele>772.0</ele>
        <time>2019-07-07T05:43:35Z</time>
      </trkpt>
      <trkpt lat="40.6339000" lon="-2.6427870">
        <ele>772.8</ele>
        <time>2019-07-07T05:43:38Z</time>
      </trkpt>
      <trkpt lat="40.6339040" lon="-2.6427480">
        <ele>773.0</ele>
        <time>2019-07-07T05:43:39Z</time>
      </trkpt>
      <trkpt lat="40.6338770" lon="-2.6426000">
        <ele>774.0</ele>
        <time>2019-07-07T05:43:43Z</time>
      </trkpt>
      <trkpt lat="40.6338680" lon="-2.6425620">
        <ele>774.2</ele>
        <time>2019-07-07T05:43:44Z</time>
      </trkpt>
      <trkpt lat="40.6337730" lon="-2.6423900">
        <ele>775.4</ele>
        <time>2019-07-07T05:43:49Z</time>
      </trkpt>
      <trkpt lat="40.6336450" lon="-2.6422540">
        <ele>776.4</ele>
        <time>2019-07-07T05:43:54Z</time>
      </trkpt>
      <trkpt lat="40.6335550" lon="-2.6421210">
        <ele>776.8</ele>
        <time>2019-07-07T05:43:58Z</time>
      </trkpt>
      <trkpt lat="40.6335120" lon="-2.6419520">
        <ele>777.6</ele>
        <time>2019-07-07T05:44:02Z</time>
      </trkpt>
      <trkpt lat="40.6335050" lon="-2.6419100">
        <ele>777.8</ele>
        <time>2019-07-07T05:44:03Z</time>
      </trkpt>
      <trkpt lat="40.6334780" lon="-2.6417130">
        <ele>778.8</ele>
        <time>2019-07-07T05:44:08Z</time>
      </trkpt>
      <trkpt lat="40.6334900" lon="-2.6415180">
        <ele>780.0</ele>
        <time>2019-07-07T05:44:13Z</time>
      </trkpt>
      <trkpt lat="40.6334890" lon="-2.6414430">
        <ele>780.4</ele>
        <time>2019-07-07T05:44:15Z</time>
      </trkpt>
      <trkpt lat="40.6334910" lon="-2.6413290">
        <ele>781.0</ele>
        <time>2019-07-07T05:44:18Z</time>
      </trkpt>
      <trkpt lat="40.6334670" lon="-2.6412220">
        <ele>781.6</ele>
        <time>2019-07-07T05:44:21Z</time>
      </trkpt>
      <trkpt lat="40.6334370" lon="-2.6411580">
        <ele>782.2</ele>
        <time>2019-07-07T05:44:23Z</time>
      </trkpt>
      <trkpt lat="40.6333570" lon="-2.6410670">
        <ele>783.2</ele>
        <time>2019-07-07T05:44:27Z</time>
      </trkpt>
      <trkpt lat="40.6332800" lon="-2.6410330">
        <ele>784.2</ele>
        <time>2019-07-07T05:44:30Z</time>
      </trkpt>
      <trkpt lat="40.6332030" lon="-2.6410000">
        <ele>785.0</ele>
        <time>2019-07-07T05:44:33Z</time>
      </trkpt>
      <trkpt lat="40.6331740" lon="-2.6409940">
        <ele>785.4</ele>
        <time>2019-07-07T05:44:34Z</time>
      </trkpt>
      <trkpt lat="40.6330260" lon="-2.6409840">
        <ele>786.8</ele>
        <time>2019-07-07T05:44:39Z</time>
      </trkpt>
      <trkpt lat="40.6329110" lon="-2.6409680">
        <ele>787.8</ele>
        <time>2019-07-07T05:44:43Z</time>
      </trkpt>
      <trkpt lat="40.6328540" lon="-2.6409630">
        <ele>788.2</ele>
        <time>2019-07-07T05:44:45Z</time>
      </trkpt>
      <trkpt lat="40.6327730" lon="-2.6409460">
        <ele>789.0</ele>
        <time>2019-07-07T05:44:48Z</time>
      </trkpt>
      <trkpt lat="40.6326660" lon="-2.6409110">
        <ele>790.0</ele>
        <time>2019-07-07T05:44:52Z</time>
      </trkpt>
      <trkpt lat="40.6326130" lon="-2.6408930">
        <ele>790.4</ele>
        <time>2019-07-07T05:44:54Z</time>
      </trkpt>
      <trkpt lat="40.6325290" lon="-2.6408760">
        <ele>791.2</ele>
        <time>2019-07-07T05:44:57Z</time>
      </trkpt>
      <trkpt lat="40.6323900" lon="-2.6408540">
        <ele>792.4</ele>
        <time>2019-07-07T05:45:02Z</time>
      </trkpt>
      <trkpt lat="40.6323330" lon="-2.6408430">
        <ele>792.8</ele>
        <time>2019-07-07T05:45:04Z</time>
      </trkpt>
      <trkpt lat="40.6322770" lon="-2.6408440">
        <ele>793.4</ele>
        <time>2019-07-07T05:45:06Z</time>
      </trkpt>
      <trkpt lat="40.6321340" lon="-2.6408810">
        <ele>794.4</ele>
        <time>2019-07-07T05:45:11Z</time>
      </trkpt>
      <trkpt lat="40.6320750" lon="-2.6410190">
        <ele>795.4</ele>
        <time>2019-07-07T05:45:15Z</time>
      </trkpt>
      <trkpt lat="40.6320690" lon="-2.6410600">
        <ele>795.6</ele>
        <time>2019-07-07T05:45:16Z</time>
      </trkpt>
      <trkpt lat="40.6320590" lon="-2.6412270">
        <ele>796.6</ele>
        <time>2019-07-07T05:45:20Z</time>
      </trkpt>
      <trkpt lat="40.6320530" lon="-2.6413550">
        <ele>797.0</ele>
        <time>2019-07-07T05:45:23Z</time>
      </trkpt>
      <trkpt lat="40.6320450" lon="-2.6415840">
        <ele>797.6</ele>
        <time>2019-07-07T05:45:28Z</time>
      </trkpt>
      <trkpt lat="40.6320450" lon="-2.6416800">
        <ele>797.8</ele>
        <time>2019-07-07T05:45:30Z</time>
      </trkpt>
      <trkpt lat="40.6320460" lon="-2.6419680">
        <ele>798.8</ele>
        <time>2019-07-07T05:45:36Z</time>
      </trkpt>
      <trkpt lat="40.6320460" lon="-2.6421130">
        <ele>799.4</ele>
        <time>2019-07-07T05:45:39Z</time>
      </trkpt>
      <trkpt lat="40.6320430" lon="-2.6421610">
        <ele>799.6</ele>
        <time>2019-07-07T05:45:40Z</time>
      </trkpt>
      <trkpt lat="40.6320370" lon="-2.6422580">
        <ele>800.0</ele>
        <time>2019-07-07T05:45:42Z</time>
      </trkpt>
      <trkpt lat="40.6320240" lon="-2.6425490">
        <ele>801.2</ele>
        <time>2019-07-07T05:45:48Z</time>
      </trkpt>
      <trkpt lat="40.6320230" lon="-2.6426370">
        <ele>801.6</ele>
        <time>2019-07-07T05:45:50Z</time>
      </trkpt>
      <trkpt lat="40.6320100" lon="-2.6427570">
        <ele>802.2</ele>
        <time>2019-07-07T05:45:53Z</time>
      </trkpt>
      <trkpt lat="40.6319630" lon="-2.6428540">
        <ele>803.0</ele>
        <time>2019-07-07T05:45:56Z</time>
      </trkpt>
      <trkpt lat="40.6319350" lon="-2.6428610">
        <ele>803.4</ele>
        <time>2019-07-07T05:45:57Z</time>
      </trkpt>
      <trkpt lat="40.6318890" lon="-2.6428230">
        <ele>804.2</ele>
        <time>2019-07-07T05:45:59Z</time>
      </trkpt>
      <trkpt lat="40.6318720" lon="-2.6427920">
        <ele>804.6</ele>
        <time>2019-07-07T05:46:00Z</time>
      </trkpt>
      <trkpt lat="40.6318340" lon="-2.6426830">
        <ele>805.8</ele>
        <time>2019-07-07T05:46:03Z</time>
      </trkpt>
      <trkpt lat="40.6318250" lon="-2.6425980">
        <ele>806.2</ele>
        <time>2019-07-07T05:46:05Z</time>
      </trkpt>
      <trkpt lat="40.6318100" lon="-2.6424280">
        <ele>806.8</ele>
        <time>2019-07-07T05:46:09Z</time>
      </trkpt>
      <trkpt lat="40.6317970" lon="-2.6422570">
        <ele>807.6</ele>
        <time>2019-07-07T05:46:13Z</time>
      </trkpt>
      <trkpt lat="40.6317950" lon="-2.6422150">
        <ele>807.8</ele>
        <time>2019-07-07T05:46:14Z</time>
      </trkpt>
      <trkpt lat="40.6317820" lon="-2.6419490">
        <ele>808.8</ele>
        <time>2019-07-07T05:46:20Z</time>
      </trkpt>
      <trkpt lat="40.6317830" lon="-2.6418560">
        <ele>809.4</ele>
        <time>2019-07-07T05:46:22Z</time>
      </trkpt>
      <trkpt lat="40.6317630" lon="-2.6417170">
        <ele>810.0</ele>
        <time>2019-07-07T05:46:25Z</time>
      </trkpt>
      <trkpt lat="40.6317350" lon="-2.6415410">
        <ele>810.6</ele>
        <time>2019-07-07T05:46:29Z</time>
      </trkpt>
      <trkpt lat="40.6316980" lon="-2.6414210">
        <ele>811.2</ele>
        <time>2019-07-07T05:46:32Z</time>
      </trkpt>
      <trkpt lat="40.6316110" lon="-2.6412500">
        <ele>812.0</ele>
        <time>2019-07-07T05:46:37Z</time>
      </trkpt>
      <trkpt lat="40.6315850" lon="-2.6412280">
        <ele>812.2</ele>
        <time>2019-07-07T05:46:38Z</time>
      </trkpt>
      <trkpt lat="40.6314690" lon="-2.6411770">
        <ele>813.6</ele>
        <time>2019-07-07T05:46:42Z</time>
      </trkpt>
      <trkpt lat="40.6314400" lon="-2.6411700">
        <ele>813.8</ele>
        <time>2019-07-07T05:46:43Z</time>
      </trkpt>
      <trkpt lat="40.6313220" lon="-2.6411510">
        <ele>814.6</ele>
        <time>2019-07-07T05:46:47Z</time>
      </trkpt>
      <trkpt lat="40.6312370" lon="-2.6411340">
        <ele>815.8</ele>
        <time>2019-07-07T05:46:50Z</time>
      </trkpt>
      <trkpt lat="40.6311500" lon="-2.6411200">
        <ele>816.6</ele>
        <time>2019-07-07T05:46:53Z</time>
      </trkpt>
      <trkpt lat="40.6311220" lon="-2.6411080">
        <ele>816.8</ele>
        <time>2019-07-07T05:46:54Z</time>
      </trkpt>
      <trkpt lat="40.6309860" lon="-2.6410290">
        <ele>818.0</ele>
        <time>2019-07-07T05:46:59Z</time>
      </trkpt>
      <trkpt lat="40.6309330" lon="-2.6410010">
        <ele>818.4</ele>
        <time>2019-07-07T05:47:01Z</time>
      </trkpt>
      <trkpt lat="40.6308480" lon="-2.6409730">
        <ele>819.2</ele>
        <time>2019-07-07T05:47:04Z</time>
      </trkpt>
      <trkpt lat="40.6307300" lon="-2.6409500">
        <ele>820.4</ele>
        <time>2019-07-07T05:47:08Z</time>
      </trkpt>
      <trkpt lat="40.6307000" lon="-2.6409490">
        <ele>820.6</ele>
        <time>2019-07-07T05:47:09Z</time>
      </trkpt>
      <trkpt lat="40.6305800" lon="-2.6409470">
        <ele>821.4</ele>
        <time>2019-07-07T05:47:13Z</time>
      </trkpt>
      <trkpt lat="40.6304600" lon="-2.6409440">
        <ele>822.2</ele>
        <time>2019-07-07T05:47:17Z</time>
      </trkpt>
      <trkpt lat="40.6304300" lon="-2.6409430">
        <ele>822.4</ele>
        <time>2019-07-07T05:47:18Z</time>
      </trkpt>
      <trkpt lat="40.6302860" lon="-2.6409330">
        <ele>823.6</ele>
        <time>2019-07-07T05:47:23Z</time>
      </trkpt>
      <trkpt lat="40.6302290" lon="-2.6409370">
        <ele>824.0</ele>
        <time>2019-07-07T05:47:25Z</time>
      </trkpt>
      <trkpt lat="40.6301140" lon="-2.6409290">
        <ele>824.6</ele>
        <time>2019-07-07T05:47:29Z</time>
      </trkpt>
      <trkpt lat="40.6300040" lon="-2.6409360">
        <ele>825.4</ele>
        <time>2019-07-07T05:47:33Z</time>
      </trkpt>
      <trkpt lat="40.6299780" lon="-2.6409390">
        <ele>825.6</ele>
        <time>2019-07-07T05:47:34Z</time>
      </trkpt>
      <trkpt lat="40.6298740" lon="-2.6409540">
        <ele>826.8</ele>
        <time>2019-07-07T05:47:38Z</time>
      </trkpt>
      <trkpt lat="40.6297680" lon="-2.6409690">
        <ele>827.8</ele>
        <time>2019-07-07T05:47:42Z</time>
      </trkpt>
      <trkpt lat="40.6296650" lon="-2.6409790">
        <ele>829.0</ele>
        <time>2019-07-07T05:47:46Z</time>
      </trkpt>
      <trkpt lat="40.6295620" lon="-2.6410000">
        <ele>830.2</ele>
        <time>2019-07-07T05:47:50Z</time>
      </trkpt>
      <trkpt lat="40.6295380" lon="-2.6410070">
        <ele>830.4</ele>
        <time>2019-07-07T05:47:51Z</time>
      </trkpt>
      <trkpt lat="40.6294640" lon="-2.6410200">
        <ele>831.2</ele>
        <time>2019-07-07T05:47:54Z</time>
      </trkpt>
      <trkpt lat="40.6293660" lon="-2.6410460">
        <ele>832.4</ele>
        <time>2019-07-07T05:47:58Z</time>
      </trkpt>
      <trkpt lat="40.6293170" lon="-2.6410430">
        <ele>832.8</ele>
        <time>2019-07-07T05:48:00Z</time>
      </trkpt>
      <trkpt lat="40.6292440" lon="-2.6410280">
        <ele>833.8</ele>
        <time>2019-07-07T05:48:03Z</time>
      </trkpt>
      <trkpt lat="40.6291450" lon="-2.6410170">
        <ele>834.8</ele>
        <time>2019-07-07T05:48:07Z</time>
      </trkpt>
      <trkpt lat="40.6291190" lon="-2.6410140">
        <ele>835.0</ele>
        <time>2019-07-07T05:48:08Z</time>
      </trkpt>
      <trkpt lat="40.6290450" lon="-2.6409980">
        <ele>835.8</ele>
        <time>2019-07-07T05:48:11Z</time>
      </trkpt>
      <trkpt lat="40.6289460" lon="-2.6409840">
        <ele>837.0</ele>
        <time>2019-07-07T05:48:15Z</time>
      </trkpt>
      <trkpt lat="40.6288450" lon="-2.6409650">
        <ele>838.2</ele>
        <time>2019-07-07T05:48:19Z</time>
      </trkpt>
      <trkpt lat="40.6287140" lon="-2.6409590">
        <ele>839.4</ele>
        <time>2019-07-07T05:48:24Z</time>
      </trkpt>
      <trkpt lat="40.6286880" lon="-2.6409600">
        <ele>839.6</ele>
        <time>2019-07-07T05:48:25Z</time>
      </trkpt>
      <trkpt lat="40.6286090" lon="-2.6409690">
        <ele>840.4</ele>
        <time>2019-07-07T05:48:28Z</time>
      </trkpt>
      <trkpt lat="40.6285030" lon="-2.6409850">
        <ele>841.2</ele>
        <time>2019-07-07T05:48:32Z</time>
      </trkpt>
      <trkpt lat="40.6284160" lon="-2.6409900">
        <ele>841.6</ele>
        <time>2019-07-07T05:48:35Z</time>
      </trkpt>
      <trkpt lat="40.6282580" lon="-2.6409410">
        <ele>842.2</ele>
        <time>2019-07-07T05:48:40Z</time>
      </trkpt>
      <trkpt lat="40.6282070" lon="-2.6408790">
        <ele>842.6</ele>
        <time>2019-07-07T05:48:42Z</time>
      </trkpt>
      <trkpt lat="40.6281400" lon="-2.6407820">
        <ele>843.0</ele>
        <time>2019-07-07T05:48:45Z</time>
      </trkpt>
      <trkpt lat="40.6280580" lon="-2.6405910">
        <ele>843.6</ele>
        <time>2019-07-07T05:48:50Z</time>
      </trkpt>
      <trkpt lat="40.6280230" lon="-2.6405200">
        <ele>844.2</ele>
        <time>2019-07-07T05:48:52Z</time>
      </trkpt>
      <trkpt lat="40.6279800" lon="-2.6404560">
        <ele>844.8</ele>
        <time>2019-07-07T05:48:54Z</time>
      </trkpt>
      <trkpt lat="40.6278750" lon="-2.6403760">
        <ele>845.8</ele>
        <time>2019-07-07T05:48:58Z</time>
      </trkpt>
      <trkpt lat="40.6277340" lon="-2.6403290">
        <ele>847.0</ele>
        <time>2019-07-07T05:49:03Z</time>
      </trkpt>
      <trkpt lat="40.6276490" lon="-2.6403010">
        <ele>847.8</ele>
        <time>2019-07-07T05:49:06Z</time>
      </trkpt>
      <trkpt lat="40.6276210" lon="-2.6402920">
        <ele>848.0</ele>
        <time>2019-07-07T05:49:07Z</time>
      </trkpt>
      <trkpt lat="40.6274640" lon="-2.6402210">
        <ele>849.2</ele>
        <time>2019-07-07T05:49:13Z</time>
      </trkpt>
      <trkpt lat="40.6273540" lon="-2.6401470">
        <ele>850.4</ele>
        <time>2019-07-07T05:49:18Z</time>
      </trkpt>
      <trkpt lat="40.6272880" lon="-2.6401040">
        <ele>851.0</ele>
        <time>2019-07-07T05:49:21Z</time>
      </trkpt>
      <trkpt lat="40.6272450" lon="-2.6400750">
        <ele>851.6</ele>
        <time>2019-07-07T05:49:23Z</time>
      </trkpt>
      <trkpt lat="40.6271410" lon="-2.6399920">
        <ele>852.8</ele>
        <time>2019-07-07T05:49:28Z</time>
      </trkpt>
      <trkpt lat="40.6270470" lon="-2.6399030">
        <ele>853.8</ele>
        <time>2019-07-07T05:49:33Z</time>
      </trkpt>
      <trkpt lat="40.6270290" lon="-2.6398850">
        <ele>854.0</ele>
        <time>2019-07-07T05:49:34Z</time>
      </trkpt>
      <trkpt lat="40.6269430" lon="-2.6398300">
        <ele>855.0</ele>
        <time>2019-07-07T05:49:38Z</time>
      </trkpt>
      <trkpt lat="40.6268980" lon="-2.6398030">
        <ele>855.4</ele>
        <time>2019-07-07T05:49:40Z</time>
      </trkpt>
      <trkpt lat="40.6268550" lon="-2.6397720">
        <ele>856.0</ele>
        <time>2019-07-07T05:49:42Z</time>
      </trkpt>
      <trkpt lat="40.6267390" lon="-2.6397050">
        <ele>857.4</ele>
        <time>2019-07-07T05:49:47Z</time>
      </trkpt>
      <trkpt lat="40.6266620" lon="-2.6396250">
        <ele>858.4</ele>
        <time>2019-07-07T05:49:51Z</time>
      </trkpt>
      <trkpt lat="40.6266250" lon="-2.6395770">
        <ele>858.8</ele>
        <time>2019-07-07T05:49:53Z</time>
      </trkpt>
      <trkpt lat="40.6266010" lon="-2.6395220">
        <ele>859.4</ele>
        <time>2019-07-07T05:49:55Z</time>
      </trkpt>
      <trkpt lat="40.6265350" lon="-2.6393860">
        <ele>860.6</ele>
        <time>2019-07-07T05:50:00Z</time>
      </trkpt>
      <trkpt lat="40.6264760" lon="-2.6392380">
        <ele>861.8</ele>
        <time>2019-07-07T05:50:05Z</time>
      </trkpt>
      <trkpt lat="40.6264160" lon="-2.6391370">
        <ele>862.6</ele>
        <time>2019-07-07T05:50:09Z</time>
      </trkpt>
      <trkpt lat="40.6263970" lon="-2.6391170">
        <ele>862.8</ele>
        <time>2019-07-07T05:50:10Z</time>
      </trkpt>
      <trkpt lat="40.6263400" lon="-2.6390570">
        <ele>864.0</ele>
        <time>2019-07-07T05:50:13Z</time>
      </trkpt>
      <trkpt lat="40.6262670" lon="-2.6390140">
        <ele>864.6</ele>
        <time>2019-07-07T05:50:16Z</time>
      </trkpt>
      <trkpt lat="40.6262140" lon="-2.6389940">
        <ele>865.2</ele>
        <time>2019-07-07T05:50:18Z</time>
      </trkpt>
      <trkpt lat="40.6261190" lon="-2.6389460">
        <ele>866.4</ele>
        <time>2019-07-07T05:50:22Z</time>
      </trkpt>
      <trkpt lat="40.6260710" lon="-2.6389310">
        <ele>866.8</ele>
        <time>2019-07-07T05:50:24Z</time>
      </trkpt>
      <trkpt lat="40.6259980" lon="-2.6389150">
        <ele>867.8</ele>
        <time>2019-07-07T05:50:27Z</time>
      </trkpt>
      <trkpt lat="40.6259220" lon="-2.6389080">
        <ele>868.8</ele>
        <time>2019-07-07T05:50:30Z</time>
      </trkpt>
      <trkpt lat="40.6258730" lon="-2.6389080">
        <ele>869.4</ele>
        <time>2019-07-07T05:50:32Z</time>
      </trkpt>
      <trkpt lat="40.6258230" lon="-2.6389140">
        <ele>870.0</ele>
        <time>2019-07-07T05:50:34Z</time>
      </trkpt>
      <trkpt lat="40.6257230" lon="-2.6389280">
        <ele>871.2</ele>
        <time>2019-07-07T05:50:38Z</time>
      </trkpt>
      <trkpt lat="40.6256470" lon="-2.6389530">
        <ele>871.8</ele>
        <time>2019-07-07T05:50:41Z</time>
      </trkpt>
      <trkpt lat="40.6255450" lon="-2.6389750">
        <ele>872.2</ele>
        <time>2019-07-07T05:50:45Z</time>
      </trkpt>
      <trkpt lat="40.6254430" lon="-2.6389830">
        <ele>873.4</ele>
        <time>2019-07-07T05:50:49Z</time>
      </trkpt>
      <trkpt lat="40.6253420" lon="-2.6389820">
        <ele>874.4</ele>
        <time>2019-07-07T05:50:53Z</time>
      </trkpt>
      <trkpt lat="40.6251930" lon="-2.6389710">
        <ele>875.6</ele>
        <time>2019-07-07T05:50:59Z</time>
      </trkpt>
      <trkpt lat="40.6251690" lon="-2.6389720">
        <ele>876.0</ele>
        <time>2019-07-07T05:51:00Z</time>
      </trkpt>
      <trkpt lat="40.6251200" lon="-2.6389750">
        <ele>876.6</ele>
        <time>2019-07-07T05:51:02Z</time>
      </trkpt>
      <trkpt lat="40.6249670" lon="-2.6389600">
        <ele>877.8</ele>
        <time>2019-07-07T05:51:08Z</time>
      </trkpt>
      <trkpt lat="40.6249410" lon="-2.6389540">
        <ele>878.0</ele>
        <time>2019-07-07T05:51:09Z</time>
      </trkpt>
      <trkpt lat="40.6248650" lon="-2.6389330">
        <ele>878.8</ele>
        <time>2019-07-07T05:51:12Z</time>
      </trkpt>
      <trkpt lat="40.6247490" lon="-2.6389260">
        <ele>879.6</ele>
        <time>2019-07-07T05:51:16Z</time>
      </trkpt>
      <trkpt lat="40.6246910" lon="-2.6389270">
        <ele>879.8</ele>
        <time>2019-07-07T05:51:18Z</time>
      </trkpt>
      <trkpt lat="40.6245520" lon="-2.6389460">
        <ele>881.0</ele>
        <time>2019-07-07T05:51:23Z</time>
      </trkpt>
      <trkpt lat="40.6244780" lon="-2.6389610">
        <ele>881.8</ele>
        <time>2019-07-07T05:51:26Z</time>
      </trkpt>
      <trkpt lat="40.6244530" lon="-2.6389620">
        <ele>882.2</ele>
        <time>2019-07-07T05:51:27Z</time>
      </trkpt>
      <trkpt lat="40.6243630" lon="-2.6389900">
        <ele>883.0</ele>
        <time>2019-07-07T05:51:31Z</time>
      </trkpt>
      <trkpt lat="40.6243010" lon="-2.6390110">
        <ele>884.2</ele>
        <time>2019-07-07T05:51:34Z</time>
      </trkpt>
      <trkpt lat="40.6242150" lon="-2.6390440">
        <ele>885.4</ele>
        <time>2019-07-07T05:51:38Z</time>
      </trkpt>
      <trkpt lat="40.6241310" lon="-2.6390580">
        <ele>886.4</ele>
        <time>2019-07-07T05:51:42Z</time>
      </trkpt>
      <trkpt lat="40.6240290" lon="-2.6390920">
        <ele>887.6</ele>
        <time>2019-07-07T05:51:47Z</time>
      </trkpt>
      <trkpt lat="40.6239650" lon="-2.6391120">
        <ele>888.2</ele>
        <time>2019-07-07T05:51:50Z</time>
      </trkpt>
      <trkpt lat="40.6239020" lon="-2.6391380">
        <ele>888.8</ele>
        <time>2019-07-07T05:51:53Z</time>
      </trkpt>
      <trkpt lat="40.6237710" lon="-2.6391890">
        <ele>889.8</ele>
        <time>2019-07-07T05:51:59Z</time>
      </trkpt>
      <trkpt lat="40.6236770" lon="-2.6392150">
        <ele>890.8</ele>
        <time>2019-07-07T05:52:03Z</time>
      </trkpt>
      <trkpt lat="40.6235560" lon="-2.6392460">
        <ele>892.0</ele>
        <time>2019-07-07T05:52:08Z</time>
      </trkpt>
      <trkpt lat="40.6234430" lon="-2.6392980">
        <ele>893.2</ele>
        <time>2019-07-07T05:52:13Z</time>
      </trkpt>
      <trkpt lat="40.6233950" lon="-2.6393080">
        <ele>893.6</ele>
        <time>2019-07-07T05:52:15Z</time>
      </trkpt>
      <trkpt lat="40.6233280" lon="-2.6393270">
        <ele>894.4</ele>
        <time>2019-07-07T05:52:18Z</time>
      </trkpt>
      <trkpt lat="40.6232580" lon="-2.6393510">
        <ele>895.6</ele>
        <time>2019-07-07T05:52:21Z</time>
      </trkpt>
      <trkpt lat="40.6232360" lon="-2.6393660">
        <ele>895.8</ele>
        <time>2019-07-07T05:52:22Z</time>
      </trkpt>
      <trkpt lat="40.6231740" lon="-2.6394020">
        <ele>896.8</ele>
        <time>2019-07-07T05:52:25Z</time>
      </trkpt>
      <trkpt lat="40.6231110" lon="-2.6394270">
        <ele>897.8</ele>
        <time>2019-07-07T05:52:28Z</time>
      </trkpt>
      <trkpt lat="40.6230490" lon="-2.6394530">
        <ele>898.4</ele>
        <time>2019-07-07T05:52:31Z</time>
      </trkpt>
      <trkpt lat="40.6230070" lon="-2.6394780">
        <ele>899.0</ele>
        <time>2019-07-07T05:52:33Z</time>
      </trkpt>
      <trkpt lat="40.6228960" lon="-2.6395280">
        <ele>900.0</ele>
        <time>2019-07-07T05:52:38Z</time>
      </trkpt>
      <trkpt lat="40.6228080" lon="-2.6395640">
        <ele>901.0</ele>
        <time>2019-07-07T05:52:42Z</time>
      </trkpt>
      <trkpt lat="40.6227850" lon="-2.6395720">
        <ele>901.4</ele>
        <time>2019-07-07T05:52:43Z</time>
      </trkpt>
      <trkpt lat="40.6226930" lon="-2.6396000">
        <ele>902.2</ele>
        <time>2019-07-07T05:52:47Z</time>
      </trkpt>
      <trkpt lat="40.6226040" lon="-2.6396100">
        <ele>903.0</ele>
        <time>2019-07-07T05:52:51Z</time>
      </trkpt>
      <trkpt lat="40.6225830" lon="-2.6396050">
        <ele>903.2</ele>
        <time>2019-07-07T05:52:52Z</time>
      </trkpt>
      <trkpt lat="40.6225240" lon="-2.6395710">
        <ele>904.2</ele>
        <time>2019-07-07T05:52:55Z</time>
      </trkpt>
      <trkpt lat="40.6225070" lon="-2.6395580">
        <ele>904.4</ele>
        <time>2019-07-07T05:52:56Z</time>
      </trkpt>
      <trkpt lat="40.6224470" lon="-2.6395300">
        <ele>905.4</ele>
        <time>2019-07-07T05:52:59Z</time>
      </trkpt>
      <trkpt lat="40.6223570" lon="-2.6395010">
        <ele>906.4</ele>
        <time>2019-07-07T05:53:03Z</time>
      </trkpt>
      <trkpt lat="40.6223370" lon="-2.6394910">
        <ele>906.6</ele>
        <time>2019-07-07T05:53:04Z</time>
      </trkpt>
      <trkpt lat="40.6222590" lon="-2.6394370">
        <ele>907.6</ele>
        <time>2019-07-07T05:53:08Z</time>
      </trkpt>
      <trkpt lat="40.6222350" lon="-2.6394330">
        <ele>907.8</ele>
        <time>2019-07-07T05:53:09Z</time>
      </trkpt>
      <trkpt lat="40.6221250" lon="-2.6393730">
        <ele>908.8</ele>
        <time>2019-07-07T05:53:14Z</time>
      </trkpt>
      <trkpt lat="40.6221020" lon="-2.6393600">
        <ele>909.0</ele>
        <time>2019-07-07T05:53:15Z</time>
      </trkpt>
      <trkpt lat="40.6219660" lon="-2.6393040">
        <ele>910.0</ele>
        <time>2019-07-07T05:53:21Z</time>
      </trkpt>
      <trkpt lat="40.6219210" lon="-2.6392840">
        <ele>910.4</ele>
        <time>2019-07-07T05:53:23Z</time>
      </trkpt>
      <trkpt lat="40.6218400" lon="-2.6392210">
        <ele>911.2</ele>
        <time>2019-07-07T05:53:27Z</time>
      </trkpt>
      <trkpt lat="40.6217650" lon="-2.6391540">
        <ele>912.0</ele>
        <time>2019-07-07T05:53:31Z</time>
      </trkpt>
      <trkpt lat="40.6217320" lon="-2.6391100">
        <ele>912.4</ele>
        <time>2019-07-07T05:53:33Z</time>
      </trkpt>
      <trkpt lat="40.6216650" lon="-2.6390300">
        <ele>913.4</ele>
        <time>2019-07-07T05:53:37Z</time>
      </trkpt>
      <trkpt lat="40.6216200" lon="-2.6389240">
        <ele>914.8</ele>
        <time>2019-07-07T05:53:41Z</time>
      </trkpt>
      <trkpt lat="40.6215960" lon="-2.6388720">
        <ele>915.2</ele>
        <time>2019-07-07T05:53:43Z</time>
      </trkpt>
      <trkpt lat="40.6215560" lon="-2.6387950">
        <ele>915.8</ele>
        <time>2019-07-07T05:53:46Z</time>
      </trkpt>
      <trkpt lat="40.6215140" lon="-2.6387210">
        <ele>916.8</ele>
        <time>2019-07-07T05:53:49Z</time>
      </trkpt>
      <trkpt lat="40.6214510" lon="-2.6386360">
        <ele>917.8</ele>
        <time>2019-07-07T05:53:53Z</time>
      </trkpt>
      <trkpt lat="40.6214330" lon="-2.6386180">
        <ele>918.0</ele>
        <time>2019-07-07T05:53:54Z</time>
      </trkpt>
      <trkpt lat="40.6213790" lon="-2.6385680">
        <ele>918.6</ele>
        <time>2019-07-07T05:53:57Z</time>
      </trkpt>
      <trkpt lat="40.6213600" lon="-2.6385500">
        <ele>919.0</ele>
        <time>2019-07-07T05:53:58Z</time>
      </trkpt>
      <trkpt lat="40.6212800" lon="-2.6384900">
        <ele>920.2</ele>
        <time>2019-07-07T05:54:02Z</time>
      </trkpt>
      <trkpt lat="40.6211800" lon="-2.6383920">
        <ele>921.4</ele>
        <time>2019-07-07T05:54:07Z</time>
      </trkpt>
      <trkpt lat="40.6211120" lon="-2.6383410">
        <ele>922.0</ele>
        <time>2019-07-07T05:54:10Z</time>
      </trkpt>
      <trkpt lat="40.6210870" lon="-2.6383290">
        <ele>922.4</ele>
        <time>2019-07-07T05:54:11Z</time>
      </trkpt>
      <trkpt lat="40.6209690" lon="-2.6382500">
        <ele>923.4</ele>
        <time>2019-07-07T05:54:16Z</time>
      </trkpt>
      <trkpt lat="40.6209260" lon="-2.6382100">
        <ele>923.8</ele>
        <time>2019-07-07T05:54:18Z</time>
      </trkpt>
      <trkpt lat="40.6208280" lon="-2.6381290">
        <ele>924.4</ele>
        <time>2019-07-07T05:54:22Z</time>
      </trkpt>
      <trkpt lat="40.6207580" lon="-2.6380620">
        <ele>924.8</ele>
        <time>2019-07-07T05:54:25Z</time>
      </trkpt>
      <trkpt lat="40.6206700" lon="-2.6379630">
        <ele>925.4</ele>
        <time>2019-07-07T05:54:29Z</time>
      </trkpt>
      <trkpt lat="40.6206060" lon="-2.6378730">
        <ele>925.6</ele>
        <time>2019-07-07T05:54:32Z</time>
      </trkpt>
      <trkpt lat="40.6205730" lon="-2.6378000">
        <ele>925.8</ele>
        <time>2019-07-07T05:54:34Z</time>
      </trkpt>
      <trkpt lat="40.6205280" lon="-2.6376370">
        <ele>926.2</ele>
        <time>2019-07-07T05:54:38Z</time>
      </trkpt>
      <trkpt lat="40.6205220" lon="-2.6375890">
        <ele>926.2</ele>
        <time>2019-07-07T05:54:39Z</time>
      </trkpt>
      <trkpt lat="40.6205180" lon="-2.6375380">
        <ele>926.2</ele>
        <time>2019-07-07T05:54:40Z</time>
      </trkpt>
      <trkpt lat="40.6205370" lon="-2.6373640">
        <ele>925.8</ele>
        <time>2019-07-07T05:54:43Z</time>
      </trkpt>
      <trkpt lat="40.6205570" lon="-2.6373070">
        <ele>925.8</ele>
        <time>2019-07-07T05:54:44Z</time>
      </trkpt>
      <trkpt lat="40.6206640" lon="-2.6371550">
        <ele>926.0</ele>
        <time>2019-07-07T05:54:48Z</time>
      </trkpt>
      <trkpt lat="40.6207070" lon="-2.6371240">
        <ele>926.6</ele>
        <time>2019-07-07T05:54:50Z</time>
      </trkpt>
      <trkpt lat="40.6207400" lon="-2.6371150">
        <ele>927.4</ele>
        <time>2019-07-07T05:54:52Z</time>
      </trkpt>
      <trkpt lat="40.6207560" lon="-2.6371120">
        <ele>927.8</ele>
        <time>2019-07-07T05:54:53Z</time>
      </trkpt>
      <trkpt lat="40.6207710" lon="-2.6371020">
        <ele>928.0</ele>
        <time>2019-07-07T05:54:54Z</time>
      </trkpt>
      <trkpt lat="40.6208070" lon="-2.6370440">
        <ele>928.4</ele>
        <time>2019-07-07T05:54:57Z</time>
      </trkpt>
      <trkpt lat="40.6208350" lon="-2.6370020">
        <ele>928.8</ele>
        <time>2019-07-07T05:54:59Z</time>
      </trkpt>
      <trkpt lat="40.6208510" lon="-2.6369820">
        <ele>928.8</ele>
        <time>2019-07-07T05:55:00Z</time>
      </trkpt>
      <trkpt lat="40.6209010" lon="-2.6369350">
        <ele>929.6</ele>
        <time>2019-07-07T05:55:03Z</time>
      </trkpt>
      <trkpt lat="40.6209290" lon="-2.6368970">
        <ele>930.0</ele>
        <time>2019-07-07T05:55:05Z</time>
      </trkpt>
      <trkpt lat="40.6209760" lon="-2.6368060">
        <ele>930.6</ele>
        <time>2019-07-07T05:55:09Z</time>
      </trkpt>
      <trkpt lat="40.6209920" lon="-2.6367850">
        <ele>930.8</ele>
        <time>2019-07-07T05:55:10Z</time>
      </trkpt>
      <trkpt lat="40.6210510" lon="-2.6366790">
        <ele>931.8</ele>
        <time>2019-07-07T05:55:15Z</time>
      </trkpt>
      <trkpt lat="40.6210710" lon="-2.6366440">
        <ele>932.2</ele>
        <time>2019-07-07T05:55:17Z</time>
      </trkpt>
      <trkpt lat="40.6210880" lon="-2.6365900">
        <ele>932.8</ele>
        <time>2019-07-07T05:55:20Z</time>
      </trkpt>
      <trkpt lat="40.6210980" lon="-2.6365770">
        <ele>933.0</ele>
        <time>2019-07-07T05:55:21Z</time>
      </trkpt>
      <trkpt lat="40.6211350" lon="-2.6365160">
        <ele>934.0</ele>
        <time>2019-07-07T05:55:26Z</time>
      </trkpt>
      <trkpt lat="40.6211460" lon="-2.6364840">
        <ele>934.2</ele>
        <time>2019-07-07T05:55:28Z</time>
      </trkpt>
      <trkpt lat="40.6212020" lon="-2.6364120">
        <ele>935.0</ele>
        <time>2019-07-07T05:55:33Z</time>
      </trkpt>
      <trkpt lat="40.6212170" lon="-2.6363720">
        <ele>935.4</ele>
        <time>2019-07-07T05:55:35Z</time>
      </trkpt>
      <trkpt lat="40.6212340" lon="-2.6362830">
        <ele>936.0</ele>
        <time>2019-07-07T05:55:39Z</time>
      </trkpt>
      <trkpt lat="40.6212720" lon="-2.6362130">
        <ele>937.2</ele>
        <time>2019-07-07T05:55:43Z</time>
      </trkpt>
      <trkpt lat="40.6213190" lon="-2.6361030">
        <ele>938.4</ele>
        <time>2019-07-07T05:55:48Z</time>
      </trkpt>
      <trkpt lat="40.6213310" lon="-2.6360820">
        <ele>938.8</ele>
        <time>2019-07-07T05:55:49Z</time>
      </trkpt>
      <trkpt lat="40.6213830" lon="-2.6359990">
        <ele>939.6</ele>
        <time>2019-07-07T05:55:53Z</time>
      </trkpt>
      <trkpt lat="40.6214050" lon="-2.6359610">
        <ele>940.0</ele>
        <time>2019-07-07T05:55:55Z</time>
      </trkpt>
      <trkpt lat="40.6214370" lon="-2.6358660">
        <ele>940.6</ele>
        <time>2019-07-07T05:55:59Z</time>
      </trkpt>
      <trkpt lat="40.6214840" lon="-2.6357820">
        <ele>941.4</ele>
        <time>2019-07-07T05:56:03Z</time>
      </trkpt>
      <trkpt lat="40.6215040" lon="-2.6357380">
        <ele>941.8</ele>
        <time>2019-07-07T05:56:05Z</time>
      </trkpt>
      <trkpt lat="40.6215410" lon="-2.6356390">
        <ele>942.4</ele>
        <time>2019-07-07T05:56:09Z</time>
      </trkpt>
      <trkpt lat="40.6215850" lon="-2.6355650">
        <ele>942.8</ele>
        <time>2019-07-07T05:56:12Z</time>
      </trkpt>
      <trkpt lat="40.6216170" lon="-2.6355040">
        <ele>943.4</ele>
        <time>2019-07-07T05:56:15Z</time>
      </trkpt>
      <trkpt lat="40.6216390" lon="-2.6354700">
        <ele>943.8</ele>
        <time>2019-07-07T05:56:17Z</time>
      </trkpt>
      <trkpt lat="40.6216950" lon="-2.6353860">
        <ele>944.6</ele>
        <time>2019-07-07T05:56:22Z</time>
      </trkpt>
      <trkpt lat="40.6217210" lon="-2.6353550">
        <ele>945.0</ele>
        <time>2019-07-07T05:56:24Z</time>
      </trkpt>
      <trkpt lat="40.6217580" lon="-2.6352940">
        <ele>945.8</ele>
        <time>2019-07-07T05:56:28Z</time>
      </trkpt>
      <trkpt lat="40.6217660" lon="-2.6352860">
        <ele>945.8</ele>
        <time>2019-07-07T05:56:29Z</time>
      </trkpt>
      <trkpt lat="40.6217890" lon="-2.6352660">
        <ele>946.0</ele>
        <time>2019-07-07T05:56:31Z</time>
      </trkpt>
      <trkpt lat="40.6218150" lon="-2.6352470">
        <ele>946.0</ele>
        <time>2019-07-07T05:56:33Z</time>
      </trkpt>
      <trkpt lat="40.6218350" lon="-2.6352260">
        <ele>946.0</ele>
        <time>2019-07-07T05:56:35Z</time>
      </trkpt>
      <trkpt lat="40.6218420" lon="-2.6352260">
        <ele>946.0</ele>
        <time>2019-07-07T05:56:36Z</time>
      </trkpt>
      <trkpt lat="40.6218470" lon="-2.6352320">
        <ele>946.0</ele>
        <time>2019-07-07T05:56:39Z</time>
      </trkpt>
      <trkpt lat="40.6218260" lon="-2.6352610">
        <ele>946.0</ele>
        <time>2019-07-07T05:57:26Z</time>
      </trkpt>
      <trkpt lat="40.6218100" lon="-2.6352740">
        <ele>946.2</ele>
        <time>2019-07-07T05:57:27Z</time>
      </trkpt>
      <trkpt lat="40.6217550" lon="-2.6353410">
        <ele>946.2</ele>
        <time>2019-07-07T05:57:30Z</time>
      </trkpt>
      <trkpt lat="40.6217310" lon="-2.6353730">
        <ele>946.0</ele>
        <time>2019-07-07T05:57:31Z</time>
      </trkpt>
      <trkpt lat="40.6216390" lon="-2.6355060">
        <ele>945.2</ele>
        <time>2019-07-07T05:57:34Z</time>
      </trkpt>
      <trkpt lat="40.6216030" lon="-2.6355630">
        <ele>945.0</ele>
        <time>2019-07-07T05:57:35Z</time>
      </trkpt>
      <trkpt lat="40.6215350" lon="-2.6356820">
        <ele>944.2</ele>
        <time>2019-07-07T05:57:37Z</time>
      </trkpt>
      <trkpt lat="40.6214360" lon="-2.6358770">
        <ele>942.8</ele>
        <time>2019-07-07T05:57:40Z</time>
      </trkpt>
      <trkpt lat="40.6213770" lon="-2.6360210">
        <ele>941.6</ele>
        <time>2019-07-07T05:57:42Z</time>
      </trkpt>
      <trkpt lat="40.6213090" lon="-2.6361790">
        <ele>940.6</ele>
        <time>2019-07-07T05:57:44Z</time>
      </trkpt>
      <trkpt lat="40.6212770" lon="-2.6362570">
        <ele>940.0</ele>
        <time>2019-07-07T05:57:45Z</time>
      </trkpt>
      <trkpt lat="40.6212430" lon="-2.6363350">
        <ele>939.4</ele>
        <time>2019-07-07T05:57:46Z</time>
      </trkpt>
      <trkpt lat="40.6211690" lon="-2.6364990">
        <ele>937.6</ele>
        <time>2019-07-07T05:57:48Z</time>
      </trkpt>
      <trkpt lat="40.6210760" lon="-2.6366770">
        <ele>935.8</ele>
        <time>2019-07-07T05:57:50Z</time>
      </trkpt>
      <trkpt lat="40.6209620" lon="-2.6368610">
        <ele>934.0</ele>
        <time>2019-07-07T05:57:52Z</time>
      </trkpt>
      <trkpt lat="40.6208400" lon="-2.6370180">
        <ele>932.4</ele>
        <time>2019-07-07T05:57:54Z</time>
      </trkpt>
      <trkpt lat="40.6207210" lon="-2.6371440">
        <ele>930.6</ele>
        <time>2019-07-07T05:57:56Z</time>
      </trkpt>
      <trkpt lat="40.6206130" lon="-2.6372670">
        <ele>929.0</ele>
        <time>2019-07-07T05:57:58Z</time>
      </trkpt>
      <trkpt lat="40.6205690" lon="-2.6373410">
        <ele>928.2</ele>
        <time>2019-07-07T05:57:59Z</time>
      </trkpt>
      <trkpt lat="40.6205410" lon="-2.6374320">
        <ele>927.2</ele>
        <time>2019-07-07T05:58:00Z</time>
      </trkpt>
      <trkpt lat="40.6205270" lon="-2.6376100">
        <ele>926.2</ele>
        <time>2019-07-07T05:58:02Z</time>
      </trkpt>
      <trkpt lat="40.6205370" lon="-2.6376870">
        <ele>926.0</ele>
        <time>2019-07-07T05:58:03Z</time>
      </trkpt>
      <trkpt lat="40.6206040" lon="-2.6378890">
        <ele>926.0</ele>
        <time>2019-07-07T05:58:06Z</time>
      </trkpt>
      <trkpt lat="40.6207640" lon="-2.6380980">
        <ele>925.8</ele>
        <time>2019-07-07T05:58:10Z</time>
      </trkpt>
      <trkpt lat="40.6208670" lon="-2.6381780">
        <ele>925.4</ele>
        <time>2019-07-07T05:58:12Z</time>
      </trkpt>
      <trkpt lat="40.6209460" lon="-2.6382340">
        <ele>925.0</ele>
        <time>2019-07-07T05:58:14Z</time>
      </trkpt>
      <trkpt lat="40.6209980" lon="-2.6382830">
        <ele>924.2</ele>
        <time>2019-07-07T05:58:18Z</time>
      </trkpt>
      <trkpt lat="40.6210380" lon="-2.6383280">
        <ele>923.8</ele>
        <time>2019-07-07T05:58:20Z</time>
      </trkpt>
      <trkpt lat="40.6211060" lon="-2.6383670">
        <ele>923.6</ele>
        <time>2019-07-07T05:58:22Z</time>
      </trkpt>
      <trkpt lat="40.6211480" lon="-2.6383880">
        <ele>923.6</ele>
        <time>2019-07-07T05:58:23Z</time>
      </trkpt>
      <trkpt lat="40.6212710" lon="-2.6384800">
        <ele>922.6</ele>
        <time>2019-07-07T05:58:26Z</time>
      </trkpt>
      <trkpt lat="40.6213150" lon="-2.6385110">
        <ele>922.2</ele>
        <time>2019-07-07T05:58:27Z</time>
      </trkpt>
      <trkpt lat="40.6214050" lon="-2.6385760">
        <ele>921.2</ele>
        <time>2019-07-07T05:58:29Z</time>
      </trkpt>
      <trkpt lat="40.6214980" lon="-2.6386490">
        <ele>920.4</ele>
        <time>2019-07-07T05:58:31Z</time>
      </trkpt>
      <trkpt lat="40.6215440" lon="-2.6387000">
        <ele>920.0</ele>
        <time>2019-07-07T05:58:32Z</time>
      </trkpt>
      <trkpt lat="40.6215870" lon="-2.6387670">
        <ele>919.6</ele>
        <time>2019-07-07T05:58:33Z</time>
      </trkpt>
      <trkpt lat="40.6216680" lon="-2.6389420">
        <ele>918.2</ele>
        <time>2019-07-07T05:58:35Z</time>
      </trkpt>
      <trkpt lat="40.6217110" lon="-2.6390330">
        <ele>917.0</ele>
        <time>2019-07-07T05:58:36Z</time>
      </trkpt>
      <trkpt lat="40.6217580" lon="-2.6391140">
        <ele>916.2</ele>
        <time>2019-07-07T05:58:37Z</time>
      </trkpt>
      <trkpt lat="40.6218120" lon="-2.6391810">
        <ele>915.4</ele>
        <time>2019-07-07T05:58:38Z</time>
      </trkpt>
      <trkpt lat="40.6219340" lon="-2.6392680">
        <ele>913.8</ele>
        <time>2019-07-07T05:58:40Z</time>
      </trkpt>
      <trkpt lat="40.6219960" lon="-2.6392980">
        <ele>913.0</ele>
        <time>2019-07-07T05:58:41Z</time>
      </trkpt>
      <trkpt lat="40.6220560" lon="-2.6393270">
        <ele>912.6</ele>
        <time>2019-07-07T05:58:42Z</time>
      </trkpt>
      <trkpt lat="40.6221110" lon="-2.6393630">
        <ele>911.8</ele>
        <time>2019-07-07T05:58:43Z</time>
      </trkpt>
      <trkpt lat="40.6221580" lon="-2.6394110">
        <ele>911.0</ele>
        <time>2019-07-07T05:58:44Z</time>
      </trkpt>
      <trkpt lat="40.6221970" lon="-2.6394700">
        <ele>910.4</ele>
        <time>2019-07-07T05:58:45Z</time>
      </trkpt>
      <trkpt lat="40.6222680" lon="-2.6395940">
        <ele>909.8</ele>
        <time>2019-07-07T05:58:47Z</time>
      </trkpt>
      <trkpt lat="40.6223480" lon="-2.6396980">
        <ele>909.4</ele>
        <time>2019-07-07T05:58:49Z</time>
      </trkpt>
      <trkpt lat="40.6223920" lon="-2.6397430">
        <ele>909.4</ele>
        <time>2019-07-07T05:58:50Z</time>
      </trkpt>
      <trkpt lat="40.6225330" lon="-2.6398600">
        <ele>908.8</ele>
        <time>2019-07-07T05:58:53Z</time>
      </trkpt>
      <trkpt lat="40.6226330" lon="-2.6399200">
        <ele>908.4</ele>
        <time>2019-07-07T05:58:55Z</time>
      </trkpt>
      <trkpt lat="40.6226830" lon="-2.6399460">
        <ele>908.4</ele>
        <time>2019-07-07T05:58:56Z</time>
      </trkpt>
      <trkpt lat="40.6227780" lon="-2.6399980">
        <ele>908.6</ele>
        <time>2019-07-07T05:58:58Z</time>
      </trkpt>
      <trkpt lat="40.6228940" lon="-2.6400790">
        <ele>909.0</ele>
        <time>2019-07-07T05:59:01Z</time>
      </trkpt>
      <trkpt lat="40.6229230" lon="-2.6401060">
        <ele>909.2</ele>
        <time>2019-07-07T05:59:02Z</time>
      </trkpt>
      <trkpt lat="40.6229710" lon="-2.6401650">
        <ele>909.8</ele>
        <time>2019-07-07T05:59:04Z</time>
      </trkpt>
      <trkpt lat="40.6229900" lon="-2.6401970">
        <ele>910.0</ele>
        <time>2019-07-07T05:59:05Z</time>
      </trkpt>
      <trkpt lat="40.6230270" lon="-2.6402600">
        <ele>910.8</ele>
        <time>2019-07-07T05:59:07Z</time>
      </trkpt>
      <trkpt lat="40.6230440" lon="-2.6402910">
        <ele>911.2</ele>
        <time>2019-07-07T05:59:08Z</time>
      </trkpt>
      <trkpt lat="40.6230900" lon="-2.6403980">
        <ele>911.8</ele>
        <time>2019-07-07T05:59:11Z</time>
      </trkpt>
      <trkpt lat="40.6231350" lon="-2.6405230">
        <ele>912.2</ele>
        <time>2019-07-07T05:59:14Z</time>
      </trkpt>
      <trkpt lat="40.6231460" lon="-2.6405660">
        <ele>912.4</ele>
        <time>2019-07-07T05:59:15Z</time>
      </trkpt>
      <trkpt lat="40.6231930" lon="-2.6407500">
        <ele>913.2</ele>
        <time>2019-07-07T05:59:20Z</time>
      </trkpt>
      <trkpt lat="40.6231980" lon="-2.6407820">
        <ele>913.4</ele>
        <time>2019-07-07T05:59:21Z</time>
      </trkpt>
      <trkpt lat="40.6232230" lon="-2.6408780">
        <ele>914.4</ele>
        <time>2019-07-07T05:59:24Z</time>
      </trkpt>
      <trkpt lat="40.6232530" lon="-2.6409750">
        <ele>915.0</ele>
        <time>2019-07-07T05:59:27Z</time>
      </trkpt>
      <trkpt lat="40.6232920" lon="-2.6410690">
        <ele>915.0</ele>
        <time>2019-07-07T05:59:30Z</time>
      </trkpt>
      <trkpt lat="40.6233410" lon="-2.6411570">
        <ele>915.4</ele>
        <time>2019-07-07T05:59:33Z</time>
      </trkpt>
      <trkpt lat="40.6233560" lon="-2.6411870">
        <ele>915.6</ele>
        <time>2019-07-07T05:59:34Z</time>
      </trkpt>
      <trkpt lat="40.6234050" lon="-2.6413470">
        <ele>916.4</ele>
        <time>2019-07-07T05:59:39Z</time>
      </trkpt>
      <trkpt lat="40.6234130" lon="-2.6413730">
        <ele>916.8</ele>
        <time>2019-07-07T05:59:40Z</time>
      </trkpt>
      <trkpt lat="40.6234510" lon="-2.6414970">
        <ele>917.6</ele>
        <time>2019-07-07T05:59:45Z</time>
      </trkpt>
      <trkpt lat="40.6234610" lon="-2.6415210">
        <ele>917.8</ele>
        <time>2019-07-07T05:59:46Z</time>
      </trkpt>
      <trkpt lat="40.6234710" lon="-2.6415460">
        <ele>918.0</ele>
        <time>2019-07-07T05:59:47Z</time>
      </trkpt>
      <trkpt lat="40.6234920" lon="-2.6415980">
        <ele>918.8</ele>
        <time>2019-07-07T05:59:49Z</time>
      </trkpt>
      <trkpt lat="40.6235630" lon="-2.6417390">
        <ele>920.0</ele>
        <time>2019-07-07T05:59:55Z</time>
      </trkpt>
      <trkpt lat="40.6236520" lon="-2.6419670">
        <ele>920.8</ele>
        <time>2019-07-07T06:00:03Z</time>
      </trkpt>
      <trkpt lat="40.6236620" lon="-2.6420030">
        <ele>921.0</ele>
        <time>2019-07-07T06:00:04Z</time>
      </trkpt>
      <trkpt lat="40.6237300" lon="-2.6422430">
        <ele>921.4</ele>
        <time>2019-07-07T06:00:11Z</time>
      </trkpt>
      <trkpt lat="40.6237390" lon="-2.6422740">
        <ele>922.0</ele>
        <time>2019-07-07T06:00:12Z</time>
      </trkpt>
      <trkpt lat="40.6237640" lon="-2.6423870">
        <ele>923.0</ele>
        <time>2019-07-07T06:00:16Z</time>
      </trkpt>
      <trkpt lat="40.6237750" lon="-2.6424400">
        <ele>923.8</ele>
        <time>2019-07-07T06:00:18Z</time>
      </trkpt>
      <trkpt lat="40.6237820" lon="-2.6424650">
        <ele>924.0</ele>
        <time>2019-07-07T06:00:19Z</time>
      </trkpt>
      <trkpt lat="40.6238070" lon="-2.6425660">
        <ele>925.2</ele>
        <time>2019-07-07T06:00:23Z</time>
      </trkpt>
      <trkpt lat="40.6238300" lon="-2.6426430">
        <ele>925.8</ele>
        <time>2019-07-07T06:00:26Z</time>
      </trkpt>
      <trkpt lat="40.6238530" lon="-2.6427150">
        <ele>926.2</ele>
        <time>2019-07-07T06:00:29Z</time>
      </trkpt>
      <trkpt lat="40.6238910" lon="-2.6428050">
        <ele>926.8</ele>
        <time>2019-07-07T06:00:33Z</time>
      </trkpt>
      <trkpt lat="40.6239140" lon="-2.6428400">
        <ele>927.4</ele>
        <time>2019-07-07T06:00:35Z</time>
      </trkpt>
      <trkpt lat="40.6239650" lon="-2.6429030">
        <ele>928.6</ele>
        <time>2019-07-07T06:00:39Z</time>
      </trkpt>
      <trkpt lat="40.6240010" lon="-2.6429560">
        <ele>929.2</ele>
        <time>2019-07-07T06:00:42Z</time>
      </trkpt>
      <trkpt lat="40.6240260" lon="-2.6429950">
        <ele>929.8</ele>
        <time>2019-07-07T06:00:44Z</time>
      </trkpt>
      <trkpt lat="40.6240680" lon="-2.6431050">
        <ele>931.0</ele>
        <time>2019-07-07T06:00:49Z</time>
      </trkpt>
      <trkpt lat="40.6240750" lon="-2.6431260">
        <ele>931.2</ele>
        <time>2019-07-07T06:00:50Z</time>
      </trkpt>
      <trkpt lat="40.6240960" lon="-2.6431910">
        <ele>932.0</ele>
        <time>2019-07-07T06:00:53Z</time>
      </trkpt>
      <trkpt lat="40.6241190" lon="-2.6432730">
        <ele>933.0</ele>
        <time>2019-07-07T06:00:57Z</time>
      </trkpt>
      <trkpt lat="40.6241150" lon="-2.6432880">
        <ele>933.4</ele>
        <time>2019-07-07T06:00:58Z</time>
      </trkpt>
      <trkpt lat="40.6240760" lon="-2.6433390">
        <ele>933.8</ele>
        <time>2019-07-07T06:01:02Z</time>
      </trkpt>
      <trkpt lat="40.6240750" lon="-2.6433580">
        <ele>934.2</ele>
        <time>2019-07-07T06:01:03Z</time>
      </trkpt>
      <trkpt lat="40.6240800" lon="-2.6433780">
        <ele>934.4</ele>
        <time>2019-07-07T06:01:04Z</time>
      </trkpt>
      <trkpt lat="40.6240910" lon="-2.6434650">
        <ele>935.2</ele>
        <time>2019-07-07T06:01:08Z</time>
      </trkpt>
      <trkpt lat="40.6241040" lon="-2.6435140">
        <ele>935.6</ele>
        <time>2019-07-07T06:01:10Z</time>
      </trkpt>
      <trkpt lat="40.6241110" lon="-2.6435690">
        <ele>935.8</ele>
        <time>2019-07-07T06:01:12Z</time>
      </trkpt>
      <trkpt lat="40.6241300" lon="-2.6436490">
        <ele>936.4</ele>
        <time>2019-07-07T06:01:15Z</time>
      </trkpt>
      <trkpt lat="40.6241370" lon="-2.6436780">
        <ele>937.0</ele>
        <time>2019-07-07T06:01:16Z</time>
      </trkpt>
      <trkpt lat="40.6241630" lon="-2.6437700">
        <ele>937.4</ele>
        <time>2019-07-07T06:01:19Z</time>
      </trkpt>
      <trkpt lat="40.6241960" lon="-2.6438790">
        <ele>937.6</ele>
        <time>2019-07-07T06:01:22Z</time>
      </trkpt>
      <trkpt lat="40.6242530" lon="-2.6440350">
        <ele>937.6</ele>
        <time>2019-07-07T06:01:26Z</time>
      </trkpt>
      <trkpt lat="40.6242890" lon="-2.6441630">
        <ele>937.4</ele>
        <time>2019-07-07T06:01:29Z</time>
      </trkpt>
      <trkpt lat="40.6243220" lon="-2.6442870">
        <ele>937.8</ele>
        <time>2019-07-07T06:01:32Z</time>
      </trkpt>
      <trkpt lat="40.6243660" lon="-2.6444940">
        <ele>938.4</ele>
        <time>2019-07-07T06:01:37Z</time>
      </trkpt>
      <trkpt lat="40.6243750" lon="-2.6445330">
        <ele>938.4</ele>
        <time>2019-07-07T06:01:38Z</time>
      </trkpt>
      <trkpt lat="40.6243840" lon="-2.6445700">
        <ele>938.4</ele>
        <time>2019-07-07T06:01:39Z</time>
      </trkpt>
      <trkpt lat="40.6244560" lon="-2.6447310">
        <ele>939.4</ele>
        <time>2019-07-07T06:01:44Z</time>
      </trkpt>
      <trkpt lat="40.6244720" lon="-2.6447640">
        <ele>939.4</ele>
        <time>2019-07-07T06:01:45Z</time>
      </trkpt>
      <trkpt lat="40.6244860" lon="-2.6448020">
        <ele>939.4</ele>
        <time>2019-07-07T06:01:46Z</time>
      </trkpt>
      <trkpt lat="40.6245110" lon="-2.6449550">
        <ele>940.0</ele>
        <time>2019-07-07T06:01:50Z</time>
      </trkpt>
      <trkpt lat="40.6245370" lon="-2.6451000">
        <ele>940.6</ele>
        <time>2019-07-07T06:01:54Z</time>
      </trkpt>
      <trkpt lat="40.6245760" lon="-2.6452360">
        <ele>941.2</ele>
        <time>2019-07-07T06:01:58Z</time>
      </trkpt>
      <trkpt lat="40.6245890" lon="-2.6452940">
        <ele>941.6</ele>
        <time>2019-07-07T06:02:00Z</time>
      </trkpt>
      <trkpt lat="40.6246190" lon="-2.6453950">
        <ele>942.8</ele>
        <time>2019-07-07T06:02:04Z</time>
      </trkpt>
      <trkpt lat="40.6246280" lon="-2.6454390">
        <ele>943.4</ele>
        <time>2019-07-07T06:02:06Z</time>
      </trkpt>
      <trkpt lat="40.6246370" lon="-2.6454830">
        <ele>943.8</ele>
        <time>2019-07-07T06:02:08Z</time>
      </trkpt>
      <trkpt lat="40.6246550" lon="-2.6455690">
        <ele>944.8</ele>
        <time>2019-07-07T06:02:12Z</time>
      </trkpt>
      <trkpt lat="40.6246600" lon="-2.6455900">
        <ele>945.0</ele>
        <time>2019-07-07T06:02:13Z</time>
      </trkpt>
      <trkpt lat="40.6246850" lon="-2.6456840">
        <ele>946.2</ele>
        <time>2019-07-07T06:02:18Z</time>
      </trkpt>
      <trkpt lat="40.6246960" lon="-2.6457450">
        <ele>947.0</ele>
        <time>2019-07-07T06:02:21Z</time>
      </trkpt>
      <trkpt lat="40.6247070" lon="-2.6457810">
        <ele>947.4</ele>
        <time>2019-07-07T06:02:23Z</time>
      </trkpt>
      <trkpt lat="40.6247190" lon="-2.6458550">
        <ele>948.4</ele>
        <time>2019-07-07T06:02:27Z</time>
      </trkpt>
      <trkpt lat="40.6247380" lon="-2.6459500">
        <ele>949.4</ele>
        <time>2019-07-07T06:02:32Z</time>
      </trkpt>
      <trkpt lat="40.6247380" lon="-2.6459740">
        <ele>949.6</ele>
        <time>2019-07-07T06:02:33Z</time>
      </trkpt>
      <trkpt lat="40.6247490" lon="-2.6460400">
        <ele>950.6</ele>
        <time>2019-07-07T06:02:36Z</time>
      </trkpt>
      <trkpt lat="40.6247880" lon="-2.6461400">
        <ele>951.8</ele>
        <time>2019-07-07T06:02:41Z</time>
      </trkpt>
      <trkpt lat="40.6248210" lon="-2.6462170">
        <ele>952.8</ele>
        <time>2019-07-07T06:02:45Z</time>
      </trkpt>
      <trkpt lat="40.6248440" lon="-2.6462670">
        <ele>954.0</ele>
        <time>2019-07-07T06:02:48Z</time>
      </trkpt>
      <trkpt lat="40.6248900" lon="-2.6463600">
        <ele>955.2</ele>
        <time>2019-07-07T06:02:53Z</time>
      </trkpt>
      <trkpt lat="40.6249080" lon="-2.6463960">
        <ele>955.6</ele>
        <time>2019-07-07T06:02:55Z</time>
      </trkpt>
      <trkpt lat="40.6249270" lon="-2.6464310">
        <ele>956.2</ele>
        <time>2019-07-07T06:02:57Z</time>
      </trkpt>
      <trkpt lat="40.6249910" lon="-2.6465140">
        <ele>957.2</ele>
        <time>2019-07-07T06:03:02Z</time>
      </trkpt>
      <trkpt lat="40.6250050" lon="-2.6465280">
        <ele>957.4</ele>
        <time>2019-07-07T06:03:03Z</time>
      </trkpt>
      <trkpt lat="40.6250650" lon="-2.6466090">
        <ele>958.2</ele>
        <time>2019-07-07T06:03:08Z</time>
      </trkpt>
      <trkpt lat="40.6251070" lon="-2.6466750">
        <ele>959.0</ele>
        <time>2019-07-07T06:03:12Z</time>
      </trkpt>
      <trkpt lat="40.6251190" lon="-2.6466910">
        <ele>959.4</ele>
        <time>2019-07-07T06:03:13Z</time>
      </trkpt>
      <trkpt lat="40.6251800" lon="-2.6467610">
        <ele>960.4</ele>
        <time>2019-07-07T06:03:18Z</time>
      </trkpt>
      <trkpt lat="40.6252860" lon="-2.6468340">
        <ele>961.2</ele>
        <time>2019-07-07T06:03:24Z</time>
      </trkpt>
      <trkpt lat="40.6253410" lon="-2.6468690">
        <ele>961.4</ele>
        <time>2019-07-07T06:03:27Z</time>
      </trkpt>
      <trkpt lat="40.6254040" lon="-2.6468850">
        <ele>962.0</ele>
        <time>2019-07-07T06:03:30Z</time>
      </trkpt>
      <trkpt lat="40.6255310" lon="-2.6469300">
        <ele>962.6</ele>
        <time>2019-07-07T06:03:36Z</time>
      </trkpt>
      <trkpt lat="40.6255750" lon="-2.6469480">
        <ele>963.2</ele>
        <time>2019-07-07T06:03:38Z</time>
      </trkpt>
      <trkpt lat="40.6256400" lon="-2.6469760">
        <ele>963.6</ele>
        <time>2019-07-07T06:03:41Z</time>
      </trkpt>
      <trkpt lat="40.6257460" lon="-2.6470120">
        <ele>964.8</ele>
        <time>2019-07-07T06:03:46Z</time>
      </trkpt>
      <trkpt lat="40.6258520" lon="-2.6470560">
        <ele>966.0</ele>
        <time>2019-07-07T06:03:51Z</time>
      </trkpt>
      <trkpt lat="40.6258890" lon="-2.6470740">
        <ele>966.4</ele>
        <time>2019-07-07T06:03:53Z</time>
      </trkpt>
      <trkpt lat="40.6259360" lon="-2.6471130">
        <ele>967.0</ele>
        <time>2019-07-07T06:03:56Z</time>
      </trkpt>
      <trkpt lat="40.6259830" lon="-2.6471480">
        <ele>967.6</ele>
        <time>2019-07-07T06:03:59Z</time>
      </trkpt>
      <trkpt lat="40.6260230" lon="-2.6471850">
        <ele>968.0</ele>
        <time>2019-07-07T06:04:02Z</time>
      </trkpt>
      <trkpt lat="40.6260760" lon="-2.6472430">
        <ele>969.2</ele>
        <time>2019-07-07T06:04:06Z</time>
      </trkpt>
      <trkpt lat="40.6260870" lon="-2.6472590">
        <ele>969.4</ele>
        <time>2019-07-07T06:04:07Z</time>
      </trkpt>
      <trkpt lat="40.6261180" lon="-2.6473080">
        <ele>970.4</ele>
        <time>2019-07-07T06:04:10Z</time>
      </trkpt>
      <trkpt lat="40.6261520" lon="-2.6473520">
        <ele>971.6</ele>
        <time>2019-07-07T06:04:13Z</time>
      </trkpt>
      <trkpt lat="40.6261880" lon="-2.6473990">
        <ele>972.4</ele>
        <time>2019-07-07T06:04:16Z</time>
      </trkpt>
      <trkpt lat="40.6262000" lon="-2.6474140">
        <ele>972.6</ele>
        <time>2019-07-07T06:04:17Z</time>
      </trkpt>
      <trkpt lat="40.6262370" lon="-2.6474880">
        <ele>974.0</ele>
        <time>2019-07-07T06:04:21Z</time>
      </trkpt>
      <trkpt lat="40.6262500" lon="-2.6475570">
        <ele>974.8</ele>
        <time>2019-07-07T06:04:24Z</time>
      </trkpt>
      <trkpt lat="40.6262190" lon="-2.6476350">
        <ele>974.6</ele>
        <time>2019-07-07T06:04:27Z</time>
      </trkpt>
      <trkpt lat="40.6261920" lon="-2.6476540">
        <ele>974.8</ele>
        <time>2019-07-07T06:04:28Z</time>
      </trkpt>
      <trkpt lat="40.6260770" lon="-2.6476910">
        <ele>974.0</ele>
        <time>2019-07-07T06:04:31Z</time>
      </trkpt>
      <trkpt lat="40.6259880" lon="-2.6477110">
        <ele>973.4</ele>
        <time>2019-07-07T06:04:33Z</time>
      </trkpt>
      <trkpt lat="40.6258490" lon="-2.6477330">
        <ele>972.8</ele>
        <time>2019-07-07T06:04:36Z</time>
      </trkpt>
      <trkpt lat="40.6257990" lon="-2.6477410">
        <ele>972.4</ele>
        <time>2019-07-07T06:04:37Z</time>
      </trkpt>
      <trkpt lat="40.6256940" lon="-2.6477620">
        <ele>971.4</ele>
        <time>2019-07-07T06:04:39Z</time>
      </trkpt>
      <trkpt lat="40.6256400" lon="-2.6477730">
        <ele>971.2</ele>
        <time>2019-07-07T06:04:40Z</time>
      </trkpt>
      <trkpt lat="40.6255850" lon="-2.6477840">
        <ele>970.8</ele>
        <time>2019-07-07T06:04:41Z</time>
      </trkpt>
      <trkpt lat="40.6254660" lon="-2.6478180">
        <ele>970.0</ele>
        <time>2019-07-07T06:04:43Z</time>
      </trkpt>
      <trkpt lat="40.6254080" lon="-2.6478380">
        <ele>969.6</ele>
        <time>2019-07-07T06:04:44Z</time>
      </trkpt>
      <trkpt lat="40.6253540" lon="-2.6478610">
        <ele>968.4</ele>
        <time>2019-07-07T06:04:45Z</time>
      </trkpt>
      <trkpt lat="40.6252540" lon="-2.6479120">
        <ele>966.8</ele>
        <time>2019-07-07T06:04:47Z</time>
      </trkpt>
      <trkpt lat="40.6251460" lon="-2.6479710">
        <ele>965.0</ele>
        <time>2019-07-07T06:04:49Z</time>
      </trkpt>
      <trkpt lat="40.6250920" lon="-2.6480040">
        <ele>964.2</ele>
        <time>2019-07-07T06:04:50Z</time>
      </trkpt>
      <trkpt lat="40.6250390" lon="-2.6480430">
        <ele>963.2</ele>
        <time>2019-07-07T06:04:51Z</time>
      </trkpt>
      <trkpt lat="40.6249400" lon="-2.6481270">
        <ele>961.0</ele>
        <time>2019-07-07T06:04:53Z</time>
      </trkpt>
      <trkpt lat="40.6248890" lon="-2.6481710">
        <ele>959.8</ele>
        <time>2019-07-07T06:04:54Z</time>
      </trkpt>
      <trkpt lat="40.6248380" lon="-2.6482200">
        <ele>959.2</ele>
        <time>2019-07-07T06:04:55Z</time>
      </trkpt>
      <trkpt lat="40.6247870" lon="-2.6482680">
        <ele>958.2</ele>
        <time>2019-07-07T06:04:56Z</time>
      </trkpt>
      <trkpt lat="40.6246880" lon="-2.6483510">
        <ele>956.4</ele>
        <time>2019-07-07T06:04:58Z</time>
      </trkpt>
      <trkpt lat="40.6245710" lon="-2.6484120">
        <ele>955.4</ele>
        <time>2019-07-07T06:05:00Z</time>
      </trkpt>
      <trkpt lat="40.6244240" lon="-2.6484760">
        <ele>954.0</ele>
        <time>2019-07-07T06:05:02Z</time>
      </trkpt>
      <trkpt lat="40.6242680" lon="-2.6485440">
        <ele>952.6</ele>
        <time>2019-07-07T06:05:04Z</time>
      </trkpt>
      <trkpt lat="40.6242000" lon="-2.6485760">
        <ele>951.8</ele>
        <time>2019-07-07T06:05:05Z</time>
      </trkpt>
      <trkpt lat="40.6241420" lon="-2.6486120">
        <ele>951.4</ele>
        <time>2019-07-07T06:05:06Z</time>
      </trkpt>
      <trkpt lat="40.6240450" lon="-2.6487130">
        <ele>950.8</ele>
        <time>2019-07-07T06:05:08Z</time>
      </trkpt>
      <trkpt lat="40.6240060" lon="-2.6487780">
        <ele>950.4</ele>
        <time>2019-07-07T06:05:09Z</time>
      </trkpt>
      <trkpt lat="40.6239690" lon="-2.6488490">
        <ele>950.0</ele>
        <time>2019-07-07T06:05:10Z</time>
      </trkpt>
      <trkpt lat="40.6239360" lon="-2.6489200">
        <ele>949.6</ele>
        <time>2019-07-07T06:05:11Z</time>
      </trkpt>
      <trkpt lat="40.6239100" lon="-2.6489880">
        <ele>949.2</ele>
        <time>2019-07-07T06:05:12Z</time>
      </trkpt>
      <trkpt lat="40.6238890" lon="-2.6490570">
        <ele>949.0</ele>
        <time>2019-07-07T06:05:13Z</time>
      </trkpt>
      <trkpt lat="40.6238170" lon="-2.6492740">
        <ele>948.2</ele>
        <time>2019-07-07T06:05:16Z</time>
      </trkpt>
      <trkpt lat="40.6237550" lon="-2.6494150">
        <ele>946.2</ele>
        <time>2019-07-07T06:05:18Z</time>
      </trkpt>
      <trkpt lat="40.6237250" lon="-2.6494810">
        <ele>945.2</ele>
        <time>2019-07-07T06:05:19Z</time>
      </trkpt>
      <trkpt lat="40.6236730" lon="-2.6495990">
        <ele>944.0</ele>
        <time>2019-07-07T06:05:21Z</time>
      </trkpt>
      <trkpt lat="40.6236000" lon="-2.6497340">
        <ele>942.0</ele>
        <time>2019-07-07T06:05:24Z</time>
      </trkpt>
      <trkpt lat="40.6235350" lon="-2.6497800">
        <ele>940.8</ele>
        <time>2019-07-07T06:05:26Z</time>
      </trkpt>
      <trkpt lat="40.6234620" lon="-2.6497880">
        <ele>940.0</ele>
        <time>2019-07-07T06:05:28Z</time>
      </trkpt>
      <trkpt lat="40.6234250" lon="-2.6497820">
        <ele>939.4</ele>
        <time>2019-07-07T06:05:29Z</time>
      </trkpt>
      <trkpt lat="40.6233410" lon="-2.6497760">
        <ele>938.2</ele>
        <time>2019-07-07T06:05:31Z</time>
      </trkpt>
      <trkpt lat="40.6232600" lon="-2.6497720">
        <ele>937.0</ele>
        <time>2019-07-07T06:05:33Z</time>
      </trkpt>
      <trkpt lat="40.6232260" lon="-2.6497710">
        <ele>936.8</ele>
        <time>2019-07-07T06:05:34Z</time>
      </trkpt>
      <trkpt lat="40.6231600" lon="-2.6497730">
        <ele>936.6</ele>
        <time>2019-07-07T06:05:36Z</time>
      </trkpt>
      <trkpt lat="40.6230910" lon="-2.6497870">
        <ele>937.0</ele>
        <time>2019-07-07T06:05:38Z</time>
      </trkpt>
      <trkpt lat="40.6229840" lon="-2.6498360">
        <ele>937.6</ele>
        <time>2019-07-07T06:05:41Z</time>
      </trkpt>
      <trkpt lat="40.6228320" lon="-2.6499900">
        <ele>938.0</ele>
        <time>2019-07-07T06:05:46Z</time>
      </trkpt>
      <trkpt lat="40.6227990" lon="-2.6500250">
        <ele>938.0</ele>
        <time>2019-07-07T06:05:47Z</time>
      </trkpt>
      <trkpt lat="40.6226750" lon="-2.6501430">
        <ele>937.8</ele>
        <time>2019-07-07T06:05:50Z</time>
      </trkpt>
      <trkpt lat="40.6225720" lon="-2.6502320">
        <ele>937.2</ele>
        <time>2019-07-07T06:05:52Z</time>
      </trkpt>
      <trkpt lat="40.6225170" lon="-2.6502750">
        <ele>936.8</ele>
        <time>2019-07-07T06:05:53Z</time>
      </trkpt>
      <trkpt lat="40.6223530" lon="-2.6504090">
        <ele>935.6</ele>
        <time>2019-07-07T06:05:56Z</time>
      </trkpt>
      <trkpt lat="40.6222180" lon="-2.6505360">
        <ele>935.8</ele>
        <time>2019-07-07T06:05:59Z</time>
      </trkpt>
      <trkpt lat="40.6221560" lon="-2.6506040">
        <ele>936.4</ele>
        <time>2019-07-07T06:06:01Z</time>
      </trkpt>
      <trkpt lat="40.6221290" lon="-2.6506350">
        <ele>936.6</ele>
        <time>2019-07-07T06:06:02Z</time>
      </trkpt>
      <trkpt lat="40.6221040" lon="-2.6506650">
        <ele>937.2</ele>
        <time>2019-07-07T06:06:03Z</time>
      </trkpt>
      <trkpt lat="40.6220810" lon="-2.6506950">
        <ele>937.8</ele>
        <time>2019-07-07T06:06:04Z</time>
      </trkpt>
      <trkpt lat="40.6220390" lon="-2.6507530">
        <ele>938.2</ele>
        <time>2019-07-07T06:06:06Z</time>
      </trkpt>
      <trkpt lat="40.6219940" lon="-2.6508180">
        <ele>938.6</ele>
        <time>2019-07-07T06:06:08Z</time>
      </trkpt>
      <trkpt lat="40.6219720" lon="-2.6508600">
        <ele>939.0</ele>
        <time>2019-07-07T06:06:09Z</time>
      </trkpt>
      <trkpt lat="40.6219480" lon="-2.6509130">
        <ele>939.0</ele>
        <time>2019-07-07T06:06:10Z</time>
      </trkpt>
      <trkpt lat="40.6219260" lon="-2.6509750">
        <ele>938.8</ele>
        <time>2019-07-07T06:06:11Z</time>
      </trkpt>
      <trkpt lat="40.6218680" lon="-2.6512250">
        <ele>938.2</ele>
        <time>2019-07-07T06:06:15Z</time>
      </trkpt>
      <trkpt lat="40.6218340" lon="-2.6513810">
        <ele>939.4</ele>
        <time>2019-07-07T06:06:19Z</time>
      </trkpt>
      <trkpt lat="40.6218250" lon="-2.6514060">
        <ele>939.8</ele>
        <time>2019-07-07T06:06:20Z</time>
      </trkpt>
      <trkpt lat="40.6218180" lon="-2.6514290">
        <ele>940.4</ele>
        <time>2019-07-07T06:06:21Z</time>
      </trkpt>
      <trkpt lat="40.6217990" lon="-2.6515130">
        <ele>940.8</ele>
        <time>2019-07-07T06:06:24Z</time>
      </trkpt>
      <trkpt lat="40.6217930" lon="-2.6515430">
        <ele>941.0</ele>
        <time>2019-07-07T06:06:25Z</time>
      </trkpt>
      <trkpt lat="40.6217600" lon="-2.6516700">
        <ele>942.0</ele>
        <time>2019-07-07T06:06:29Z</time>
      </trkpt>
      <trkpt lat="40.6216990" lon="-2.6518310">
        <ele>942.8</ele>
        <time>2019-07-07T06:06:34Z</time>
      </trkpt>
      <trkpt lat="40.6216800" lon="-2.6518660">
        <ele>943.0</ele>
        <time>2019-07-07T06:06:35Z</time>
      </trkpt>
      <trkpt lat="40.6216270" lon="-2.6519550">
        <ele>943.0</ele>
        <time>2019-07-07T06:06:37Z</time>
      </trkpt>
      <trkpt lat="40.6216010" lon="-2.6520120">
        <ele>942.8</ele>
        <time>2019-07-07T06:06:38Z</time>
      </trkpt>
      <trkpt lat="40.6215540" lon="-2.6521850">
        <ele>942.2</ele>
        <time>2019-07-07T06:06:41Z</time>
      </trkpt>
      <trkpt lat="40.6215420" lon="-2.6522330">
        <ele>942.2</ele>
        <time>2019-07-07T06:06:42Z</time>
      </trkpt>
      <trkpt lat="40.6214420" lon="-2.6524530">
        <ele>943.6</ele>
        <time>2019-07-07T06:06:48Z</time>
      </trkpt>
      <trkpt lat="40.6213150" lon="-2.6526520">
        <ele>943.2</ele>
        <time>2019-07-07T06:06:52Z</time>
      </trkpt>
      <trkpt lat="40.6212240" lon="-2.6527930">
        <ele>942.6</ele>
        <time>2019-07-07T06:06:54Z</time>
      </trkpt>
      <trkpt lat="40.6211210" lon="-2.6529560">
        <ele>942.0</ele>
        <time>2019-07-07T06:06:56Z</time>
      </trkpt>
      <trkpt lat="40.6210180" lon="-2.6531350">
        <ele>940.0</ele>
        <time>2019-07-07T06:06:58Z</time>
      </trkpt>
      <trkpt lat="40.6209330" lon="-2.6533250">
        <ele>939.2</ele>
        <time>2019-07-07T06:07:00Z</time>
      </trkpt>
      <trkpt lat="40.6209030" lon="-2.6534160">
        <ele>939.0</ele>
        <time>2019-07-07T06:07:01Z</time>
      </trkpt>
      <trkpt lat="40.6208100" lon="-2.6537250">
        <ele>939.2</ele>
        <time>2019-07-07T06:07:05Z</time>
      </trkpt>
      <trkpt lat="40.6207840" lon="-2.6537870">
        <ele>939.2</ele>
        <time>2019-07-07T06:07:06Z</time>
      </trkpt>
      <trkpt lat="40.6206860" lon="-2.6539660">
        <ele>940.2</ele>
        <time>2019-07-07T06:07:10Z</time>
      </trkpt>
      <trkpt lat="40.6206490" lon="-2.6541610">
        <ele>940.8</ele>
        <time>2019-07-07T06:07:14Z</time>
      </trkpt>
      <trkpt lat="40.6206510" lon="-2.6542170">
        <ele>940.8</ele>
        <time>2019-07-07T06:07:15Z</time>
      </trkpt>
      <trkpt lat="40.6206830" lon="-2.6545760">
        <ele>941.2</ele>
        <time>2019-07-07T06:07:21Z</time>
      </trkpt>
      <trkpt lat="40.6206790" lon="-2.6547150">
        <ele>941.0</ele>
        <time>2019-07-07T06:07:23Z</time>
      </trkpt>
      <trkpt lat="40.6206590" lon="-2.6549320">
        <ele>940.8</ele>
        <time>2019-07-07T06:07:26Z</time>
      </trkpt>
      <trkpt lat="40.6206580" lon="-2.6550020">
        <ele>940.8</ele>
        <time>2019-07-07T06:07:27Z</time>
      </trkpt>
      <trkpt lat="40.6206900" lon="-2.6552380">
        <ele>940.8</ele>
        <time>2019-07-07T06:07:31Z</time>
      </trkpt>
      <trkpt lat="40.6207050" lon="-2.6553110">
        <ele>941.8</ele>
        <time>2019-07-07T06:07:33Z</time>
      </trkpt>
      <trkpt lat="40.6207130" lon="-2.6553780">
        <ele>943.0</ele>
        <time>2019-07-07T06:07:35Z</time>
      </trkpt>
      <trkpt lat="40.6207180" lon="-2.6554130">
        <ele>943.2</ele>
        <time>2019-07-07T06:07:36Z</time>
      </trkpt>
      <trkpt lat="40.6207450" lon="-2.6556320">
        <ele>943.6</ele>
        <time>2019-07-07T06:07:41Z</time>
      </trkpt>
      <trkpt lat="40.6207550" lon="-2.6556890">
        <ele>943.4</ele>
        <time>2019-07-07T06:07:42Z</time>
      </trkpt>
      <trkpt lat="40.6207980" lon="-2.6558830">
        <ele>943.0</ele>
        <time>2019-07-07T06:07:45Z</time>
      </trkpt>
      <trkpt lat="40.6208180" lon="-2.6560210">
        <ele>942.4</ele>
        <time>2019-07-07T06:07:47Z</time>
      </trkpt>
      <trkpt lat="40.6208150" lon="-2.6561440">
        <ele>941.2</ele>
        <time>2019-07-07T06:07:49Z</time>
      </trkpt>
      <trkpt lat="40.6207730" lon="-2.6562650">
        <ele>940.0</ele>
        <time>2019-07-07T06:07:51Z</time>
      </trkpt>
      <trkpt lat="40.6206810" lon="-2.6563900">
        <ele>938.8</ele>
        <time>2019-07-07T06:07:53Z</time>
      </trkpt>
      <trkpt lat="40.6206290" lon="-2.6564510">
        <ele>938.0</ele>
        <time>2019-07-07T06:07:54Z</time>
      </trkpt>
      <trkpt lat="40.6205840" lon="-2.6565110">
        <ele>937.4</ele>
        <time>2019-07-07T06:07:55Z</time>
      </trkpt>
      <trkpt lat="40.6205280" lon="-2.6566480">
        <ele>936.6</ele>
        <time>2019-07-07T06:07:57Z</time>
      </trkpt>
      <trkpt lat="40.6205170" lon="-2.6567940">
        <ele>936.4</ele>
        <time>2019-07-07T06:07:59Z</time>
      </trkpt>
      <trkpt lat="40.6205130" lon="-2.6569970">
        <ele>936.4</ele>
        <time>2019-07-07T06:08:02Z</time>
      </trkpt>
      <trkpt lat="40.6205260" lon="-2.6571600">
        <ele>936.2</ele>
        <time>2019-07-07T06:08:04Z</time>
      </trkpt>
      <trkpt lat="40.6205520" lon="-2.6573430">
        <ele>935.2</ele>
        <time>2019-07-07T06:08:06Z</time>
      </trkpt>
      <trkpt lat="40.6205650" lon="-2.6574290">
        <ele>934.8</ele>
        <time>2019-07-07T06:08:07Z</time>
      </trkpt>
      <trkpt lat="40.6205780" lon="-2.6575780">
        <ele>934.8</ele>
        <time>2019-07-07T06:08:09Z</time>
      </trkpt>
      <trkpt lat="40.6205750" lon="-2.6576400">
        <ele>934.8</ele>
        <time>2019-07-07T06:08:10Z</time>
      </trkpt>
      <trkpt lat="40.6205680" lon="-2.6576980">
        <ele>935.0</ele>
        <time>2019-07-07T06:08:11Z</time>
      </trkpt>
      <trkpt lat="40.6205120" lon="-2.6578940">
        <ele>935.0</ele>
        <time>2019-07-07T06:08:14Z</time>
      </trkpt>
      <trkpt lat="40.6204240" lon="-2.6581180">
        <ele>933.6</ele>
        <time>2019-07-07T06:08:17Z</time>
      </trkpt>
      <trkpt lat="40.6203870" lon="-2.6581850">
        <ele>933.4</ele>
        <time>2019-07-07T06:08:18Z</time>
      </trkpt>
      <trkpt lat="40.6203390" lon="-2.6582560">
        <ele>932.8</ele>
        <time>2019-07-07T06:08:19Z</time>
      </trkpt>
      <trkpt lat="40.6202800" lon="-2.6583300">
        <ele>932.2</ele>
        <time>2019-07-07T06:08:20Z</time>
      </trkpt>
      <trkpt lat="40.6202170" lon="-2.6584100">
        <ele>931.2</ele>
        <time>2019-07-07T06:08:21Z</time>
      </trkpt>
      <trkpt lat="40.6201540" lon="-2.6584940">
        <ele>929.8</ele>
        <time>2019-07-07T06:08:22Z</time>
      </trkpt>
      <trkpt lat="40.6200920" lon="-2.6585770">
        <ele>929.0</ele>
        <time>2019-07-07T06:08:23Z</time>
      </trkpt>
      <trkpt lat="40.6200350" lon="-2.6586540">
        <ele>928.4</ele>
        <time>2019-07-07T06:08:24Z</time>
      </trkpt>
      <trkpt lat="40.6199930" lon="-2.6587290">
        <ele>928.2</ele>
        <time>2019-07-07T06:08:25Z</time>
      </trkpt>
      <trkpt lat="40.6199720" lon="-2.6588030">
        <ele>928.0</ele>
        <time>2019-07-07T06:08:26Z</time>
      </trkpt>
      <trkpt lat="40.6199690" lon="-2.6589820">
        <ele>928.2</ele>
        <time>2019-07-07T06:08:29Z</time>
      </trkpt>
      <trkpt lat="40.6199590" lon="-2.6590910">
        <ele>928.6</ele>
        <time>2019-07-07T06:08:31Z</time>
      </trkpt>
      <trkpt lat="40.6199540" lon="-2.6591450">
        <ele>928.6</ele>
        <time>2019-07-07T06:08:32Z</time>
      </trkpt>
      <trkpt lat="40.6199360" lon="-2.6592440">
        <ele>928.8</ele>
        <time>2019-07-07T06:08:34Z</time>
      </trkpt>
      <trkpt lat="40.6199230" lon="-2.6592900">
        <ele>929.0</ele>
        <time>2019-07-07T06:08:35Z</time>
      </trkpt>
      <trkpt lat="40.6198990" lon="-2.6593800">
        <ele>929.4</ele>
        <time>2019-07-07T06:08:37Z</time>
      </trkpt>
      <trkpt lat="40.6198920" lon="-2.6595540">
        <ele>930.0</ele>
        <time>2019-07-07T06:08:41Z</time>
      </trkpt>
      <trkpt lat="40.6199040" lon="-2.6597270">
        <ele>929.8</ele>
        <time>2019-07-07T06:08:46Z</time>
      </trkpt>
      <trkpt lat="40.6198990" lon="-2.6599170">
        <ele>930.2</ele>
        <time>2019-07-07T06:08:51Z</time>
      </trkpt>
      <trkpt lat="40.6198860" lon="-2.6599930">
        <ele>930.6</ele>
        <time>2019-07-07T06:08:53Z</time>
      </trkpt>
      <trkpt lat="40.6198670" lon="-2.6600980">
        <ele>931.2</ele>
        <time>2019-07-07T06:08:56Z</time>
      </trkpt>
      <trkpt lat="40.6198480" lon="-2.6601610">
        <ele>931.8</ele>
        <time>2019-07-07T06:08:58Z</time>
      </trkpt>
      <trkpt lat="40.6198300" lon="-2.6602210">
        <ele>932.2</ele>
        <time>2019-07-07T06:09:00Z</time>
      </trkpt>
      <trkpt lat="40.6198050" lon="-2.6603110">
        <ele>933.0</ele>
        <time>2019-07-07T06:09:03Z</time>
      </trkpt>
      <trkpt lat="40.6197930" lon="-2.6603740">
        <ele>933.6</ele>
        <time>2019-07-07T06:09:05Z</time>
      </trkpt>
      <trkpt lat="40.6197690" lon="-2.6604320">
        <ele>934.2</ele>
        <time>2019-07-07T06:09:07Z</time>
      </trkpt>
      <trkpt lat="40.6197180" lon="-2.6604970">
        <ele>934.8</ele>
        <time>2019-07-07T06:09:10Z</time>
      </trkpt>
      <trkpt lat="40.6196840" lon="-2.6605410">
        <ele>935.2</ele>
        <time>2019-07-07T06:09:12Z</time>
      </trkpt>
      <trkpt lat="40.6196280" lon="-2.6606000">
        <ele>935.6</ele>
        <time>2019-07-07T06:09:15Z</time>
      </trkpt>
      <trkpt lat="40.6195880" lon="-2.6606370">
        <ele>935.8</ele>
        <time>2019-07-07T06:09:17Z</time>
      </trkpt>
      <trkpt lat="40.6195330" lon="-2.6607030">
        <ele>936.2</ele>
        <time>2019-07-07T06:09:20Z</time>
      </trkpt>
      <trkpt lat="40.6194720" lon="-2.6607660">
        <ele>936.8</ele>
        <time>2019-07-07T06:09:23Z</time>
      </trkpt>
      <trkpt lat="40.6194050" lon="-2.6608150">
        <ele>937.6</ele>
        <time>2019-07-07T06:09:26Z</time>
      </trkpt>
      <trkpt lat="40.6193130" lon="-2.6608700">
        <ele>938.2</ele>
        <time>2019-07-07T06:09:30Z</time>
      </trkpt>
      <trkpt lat="40.6192220" lon="-2.6609520">
        <ele>938.6</ele>
        <time>2019-07-07T06:09:34Z</time>
      </trkpt>
      <trkpt lat="40.6191210" lon="-2.6610460">
        <ele>939.0</ele>
        <time>2019-07-07T06:09:38Z</time>
      </trkpt>
      <trkpt lat="40.6190230" lon="-2.6612070">
        <ele>939.4</ele>
        <time>2019-07-07T06:09:43Z</time>
      </trkpt>
      <trkpt lat="40.6190190" lon="-2.6612390">
        <ele>939.4</ele>
        <time>2019-07-07T06:09:44Z</time>
      </trkpt>
      <trkpt lat="40.6190170" lon="-2.6613050">
        <ele>939.6</ele>
        <time>2019-07-07T06:09:46Z</time>
      </trkpt>
      <trkpt lat="40.6190080" lon="-2.6614250">
        <ele>939.6</ele>
        <time>2019-07-07T06:09:49Z</time>
      </trkpt>
      <trkpt lat="40.6190090" lon="-2.6615690">
        <ele>939.4</ele>
        <time>2019-07-07T06:09:52Z</time>
      </trkpt>
      <trkpt lat="40.6190070" lon="-2.6616720">
        <ele>939.4</ele>
        <time>2019-07-07T06:09:54Z</time>
      </trkpt>
      <trkpt lat="40.6190060" lon="-2.6617270">
        <ele>939.2</ele>
        <time>2019-07-07T06:09:55Z</time>
      </trkpt>
      <trkpt lat="40.6190110" lon="-2.6618320">
        <ele>939.2</ele>
        <time>2019-07-07T06:09:57Z</time>
      </trkpt>
      <trkpt lat="40.6190060" lon="-2.6619410">
        <ele>939.0</ele>
        <time>2019-07-07T06:09:59Z</time>
      </trkpt>
      <trkpt lat="40.6189990" lon="-2.6620780">
        <ele>938.6</ele>
        <time>2019-07-07T06:10:02Z</time>
      </trkpt>
      <trkpt lat="40.6189980" lon="-2.6621230">
        <ele>938.6</ele>
        <time>2019-07-07T06:10:03Z</time>
      </trkpt>
      <trkpt lat="40.6189820" lon="-2.6622490">
        <ele>938.4</ele>
        <time>2019-07-07T06:10:06Z</time>
      </trkpt>
      <trkpt lat="40.6189800" lon="-2.6622830">
        <ele>938.4</ele>
        <time>2019-07-07T06:10:07Z</time>
      </trkpt>
      <trkpt lat="40.6190560" lon="-2.6623760">
        <ele>938.6</ele>
        <time>2019-07-07T06:10:11Z</time>
      </trkpt>
      <trkpt lat="40.6191330" lon="-2.6624550">
        <ele>938.2</ele>
        <time>2019-07-07T06:10:14Z</time>
      </trkpt>
      <trkpt lat="40.6191750" lon="-2.6624850">
        <ele>938.0</ele>
        <time>2019-07-07T06:10:16Z</time>
      </trkpt>
      <trkpt lat="40.6192830" lon="-2.6625390">
        <ele>937.4</ele>
        <time>2019-07-07T06:10:22Z</time>
      </trkpt>
      <trkpt lat="40.6192840" lon="-2.6625500">
        <ele>937.4</ele>
        <time>2019-07-07T06:10:24Z</time>
      </trkpt>
      <trkpt lat="40.6193480" lon="-2.6625740">
        <ele>936.8</ele>
        <time>2019-07-07T06:10:40Z</time>
      </trkpt>
      <trkpt lat="40.6193750" lon="-2.6625820">
        <ele>936.8</ele>
        <time>2019-07-07T06:10:41Z</time>
      </trkpt>
      <trkpt lat="40.6194390" lon="-2.6626160">
        <ele>936.4</ele>
        <time>2019-07-07T06:10:43Z</time>
      </trkpt>
      <trkpt lat="40.6195600" lon="-2.6626640">
        <ele>935.2</ele>
        <time>2019-07-07T06:10:46Z</time>
      </trkpt>
      <trkpt lat="40.6196410" lon="-2.6627140">
        <ele>934.0</ele>
        <time>2019-07-07T06:10:48Z</time>
      </trkpt>
      <trkpt lat="40.6196970" lon="-2.6627740">
        <ele>932.8</ele>
        <time>2019-07-07T06:10:50Z</time>
      </trkpt>
      <trkpt lat="40.6197200" lon="-2.6628050">
        <ele>932.0</ele>
        <time>2019-07-07T06:10:51Z</time>
      </trkpt>
      <trkpt lat="40.6197390" lon="-2.6628430">
        <ele>931.6</ele>
        <time>2019-07-07T06:10:52Z</time>
      </trkpt>
      <trkpt lat="40.6197890" lon="-2.6630080">
        <ele>930.4</ele>
        <time>2019-07-07T06:10:56Z</time>
      </trkpt>
      <trkpt lat="40.6198170" lon="-2.6631390">
        <ele>929.2</ele>
        <time>2019-07-07T06:10:59Z</time>
      </trkpt>
      <trkpt lat="40.6198500" lon="-2.6632250">
        <ele>928.6</ele>
        <time>2019-07-07T06:11:02Z</time>
      </trkpt>
      <trkpt lat="40.6198550" lon="-2.6632730">
        <ele>928.2</ele>
        <time>2019-07-07T06:11:04Z</time>
      </trkpt>
      <trkpt lat="40.6198190" lon="-2.6633050">
        <ele>928.0</ele>
        <time>2019-07-07T06:11:06Z</time>
      </trkpt>
      <trkpt lat="40.6197650" lon="-2.6632430">
        <ele>927.8</ele>
        <time>2019-07-07T06:11:09Z</time>
      </trkpt>
      <trkpt lat="40.6197700" lon="-2.6632100">
        <ele>927.8</ele>
        <time>2019-07-07T06:11:10Z</time>
      </trkpt>
      <trkpt lat="40.6197760" lon="-2.6631800">
        <ele>927.8</ele>
        <time>2019-07-07T06:11:11Z</time>
      </trkpt>
      <trkpt lat="40.6197790" lon="-2.6631470">
        <ele>928.0</ele>
        <time>2019-07-07T06:11:12Z</time>
      </trkpt>
      <trkpt lat="40.6197820" lon="-2.6631150">
        <ele>928.2</ele>
        <time>2019-07-07T06:11:13Z</time>
      </trkpt>
      <trkpt lat="40.6197810" lon="-2.6630840">
        <ele>928.4</ele>
        <time>2019-07-07T06:11:14Z</time>
      </trkpt>
      <trkpt lat="40.6197750" lon="-2.6630260">
        <ele>928.8</ele>
        <time>2019-07-07T06:11:16Z</time>
      </trkpt>
      <trkpt lat="40.6197650" lon="-2.6629710">
        <ele>929.2</ele>
        <time>2019-07-07T06:11:18Z</time>
      </trkpt>
      <trkpt lat="40.6197500" lon="-2.6629200">
        <ele>929.6</ele>
        <time>2019-07-07T06:11:20Z</time>
      </trkpt>
      <trkpt lat="40.6197390" lon="-2.6628980">
        <ele>929.8</ele>
        <time>2019-07-07T06:11:21Z</time>
      </trkpt>
      <trkpt lat="40.6197180" lon="-2.6628570">
        <ele>930.4</ele>
        <time>2019-07-07T06:11:23Z</time>
      </trkpt>
      <trkpt lat="40.6197050" lon="-2.6628130">
        <ele>931.0</ele>
        <time>2019-07-07T06:11:25Z</time>
      </trkpt>
      <trkpt lat="40.6196920" lon="-2.6627970">
        <ele>931.4</ele>
        <time>2019-07-07T06:11:26Z</time>
      </trkpt>
      <trkpt lat="40.6196780" lon="-2.6627870">
        <ele>931.6</ele>
        <time>2019-07-07T06:11:27Z</time>
      </trkpt>
      <trkpt lat="40.6196460" lon="-2.6627700">
        <ele>931.8</ele>
        <time>2019-07-07T06:11:29Z</time>
      </trkpt>
      <trkpt lat="40.6196060" lon="-2.6627280">
        <ele>932.4</ele>
        <time>2019-07-07T06:11:32Z</time>
      </trkpt>
      <trkpt lat="40.6195560" lon="-2.6627130">
        <ele>933.2</ele>
        <time>2019-07-07T06:11:35Z</time>
      </trkpt>
      <trkpt lat="40.6195270" lon="-2.6626970">
        <ele>933.6</ele>
        <time>2019-07-07T06:11:37Z</time>
      </trkpt>
      <trkpt lat="40.6194800" lon="-2.6626900">
        <ele>934.4</ele>
        <time>2019-07-07T06:11:40Z</time>
      </trkpt>
      <trkpt lat="40.6194680" lon="-2.6626830">
        <ele>934.6</ele>
        <time>2019-07-07T06:11:41Z</time>
      </trkpt>
      <trkpt lat="40.6194570" lon="-2.6626750">
        <ele>935.0</ele>
        <time>2019-07-07T06:11:42Z</time>
      </trkpt>
      <trkpt lat="40.6194470" lon="-2.6626690">
        <ele>935.2</ele>
        <time>2019-07-07T06:11:43Z</time>
      </trkpt>
      <trkpt lat="40.6194160" lon="-2.6626420">
        <ele>935.6</ele>
        <time>2019-07-07T06:11:46Z</time>
      </trkpt>
      <trkpt lat="40.6193710" lon="-2.6626160">
        <ele>936.2</ele>
        <time>2019-07-07T06:11:49Z</time>
      </trkpt>
      <trkpt lat="40.6193350" lon="-2.6626020">
        <ele>936.6</ele>
        <time>2019-07-07T06:11:51Z</time>
      </trkpt>
      <trkpt lat="40.6192190" lon="-2.6625550">
        <ele>936.6</ele>
        <time>2019-07-07T06:11:57Z</time>
      </trkpt>
      <trkpt lat="40.6191600" lon="-2.6625140">
        <ele>937.0</ele>
        <time>2019-07-07T06:12:00Z</time>
      </trkpt>
      <trkpt lat="40.6191240" lon="-2.6624700">
        <ele>937.4</ele>
        <time>2019-07-07T06:12:02Z</time>
      </trkpt>
      <trkpt lat="40.6190400" lon="-2.6624190">
        <ele>937.8</ele>
        <time>2019-07-07T06:12:06Z</time>
      </trkpt>
      <trkpt lat="40.6190200" lon="-2.6624200">
        <ele>938.0</ele>
        <time>2019-07-07T06:12:07Z</time>
      </trkpt>
      <trkpt lat="40.6189850" lon="-2.6624310">
        <ele>938.2</ele>
        <time>2019-07-07T06:12:09Z</time>
      </trkpt>
      <trkpt lat="40.6189700" lon="-2.6624870">
        <ele>938.8</ele>
        <time>2019-07-07T06:12:12Z</time>
      </trkpt>
      <trkpt lat="40.6189760" lon="-2.6625310">
        <ele>939.0</ele>
        <time>2019-07-07T06:12:14Z</time>
      </trkpt>
      <trkpt lat="40.6189780" lon="-2.6625530">
        <ele>939.2</ele>
        <time>2019-07-07T06:12:15Z</time>
      </trkpt>
      <trkpt lat="40.6189880" lon="-2.6626390">
        <ele>940.2</ele>
        <time>2019-07-07T06:12:19Z</time>
      </trkpt>
      <trkpt lat="40.6189910" lon="-2.6626590">
        <ele>940.4</ele>
        <time>2019-07-07T06:12:20Z</time>
      </trkpt>
      <trkpt lat="40.6189790" lon="-2.6627690">
        <ele>941.2</ele>
        <time>2019-07-07T06:12:26Z</time>
      </trkpt>
      <trkpt lat="40.6189680" lon="-2.6627800">
        <ele>941.4</ele>
        <time>2019-07-07T06:12:27Z</time>
      </trkpt>
      <trkpt lat="40.6189110" lon="-2.6627790">
        <ele>941.6</ele>
        <time>2019-07-07T06:12:30Z</time>
      </trkpt>
      <trkpt lat="40.6188610" lon="-2.6627650">
        <ele>942.0</ele>
        <time>2019-07-07T06:12:33Z</time>
      </trkpt>
      <trkpt lat="40.6188310" lon="-2.6627610">
        <ele>942.4</ele>
        <time>2019-07-07T06:12:35Z</time>
      </trkpt>
      <trkpt lat="40.6188200" lon="-2.6627570">
        <ele>942.8</ele>
        <time>2019-07-07T06:12:36Z</time>
      </trkpt>
      <trkpt lat="40.6187820" lon="-2.6627350">
        <ele>943.6</ele>
        <time>2019-07-07T06:12:39Z</time>
      </trkpt>
      <trkpt lat="40.6187480" lon="-2.6627150">
        <ele>944.4</ele>
        <time>2019-07-07T06:12:42Z</time>
      </trkpt>
      <trkpt lat="40.6187360" lon="-2.6627080">
        <ele>944.6</ele>
        <time>2019-07-07T06:12:43Z</time>
      </trkpt>
      <trkpt lat="40.6186460" lon="-2.6626840">
        <ele>945.4</ele>
        <time>2019-07-07T06:12:48Z</time>
      </trkpt>
      <trkpt lat="40.6185830" lon="-2.6626640">
        <ele>946.2</ele>
        <time>2019-07-07T06:12:52Z</time>
      </trkpt>
      <trkpt lat="40.6185510" lon="-2.6626440">
        <ele>946.6</ele>
        <time>2019-07-07T06:12:54Z</time>
      </trkpt>
      <trkpt lat="40.6185350" lon="-2.6626320">
        <ele>946.8</ele>
        <time>2019-07-07T06:12:55Z</time>
      </trkpt>
      <trkpt lat="40.6184740" lon="-2.6625710">
        <ele>947.8</ele>
        <time>2019-07-07T06:12:59Z</time>
      </trkpt>
      <trkpt lat="40.6184600" lon="-2.6625460">
        <ele>948.2</ele>
        <time>2019-07-07T06:13:00Z</time>
      </trkpt>
      <trkpt lat="40.6183930" lon="-2.6624430">
        <ele>949.2</ele>
        <time>2019-07-07T06:13:05Z</time>
      </trkpt>
      <trkpt lat="40.6182940" lon="-2.6623600">
        <ele>950.4</ele>
        <time>2019-07-07T06:13:11Z</time>
      </trkpt>
      <trkpt lat="40.6182190" lon="-2.6622640">
        <ele>951.6</ele>
        <time>2019-07-07T06:13:16Z</time>
      </trkpt>
      <trkpt lat="40.6181870" lon="-2.6622080">
        <ele>952.4</ele>
        <time>2019-07-07T06:13:19Z</time>
      </trkpt>
      <trkpt lat="40.6181770" lon="-2.6621900">
        <ele>952.6</ele>
        <time>2019-07-07T06:13:20Z</time>
      </trkpt>
      <trkpt lat="40.6181450" lon="-2.6621050">
        <ele>953.4</ele>
        <time>2019-07-07T06:13:26Z</time>
      </trkpt>
      <trkpt lat="40.6181430" lon="-2.6621040">
        <ele>953.6</ele>
        <time>2019-07-07T06:13:27Z</time>
      </trkpt>
      <trkpt lat="40.6181690" lon="-2.6620970">
        <ele>953.8</ele>
        <time>2019-07-07T06:13:39Z</time>
      </trkpt>
      <trkpt lat="40.6181820" lon="-2.6621300">
        <ele>953.4</ele>
        <time>2019-07-07T06:13:41Z</time>
      </trkpt>
      <trkpt lat="40.6181400" lon="-2.6621630">
        <ele>953.4</ele>
        <time>2019-07-07T06:13:46Z</time>
      </trkpt>
      <trkpt lat="40.6180960" lon="-2.6621320">
        <ele>953.6</ele>
        <time>2019-07-07T06:13:50Z</time>
      </trkpt>
      <trkpt lat="40.6180880" lon="-2.6621370">
        <ele>953.8</ele>
        <time>2019-07-07T06:13:51Z</time>
      </trkpt>
      <trkpt lat="40.6180760" lon="-2.6621520">
        <ele>954.8</ele>
        <time>2019-07-07T06:13:54Z</time>
      </trkpt>
      <trkpt lat="40.6180690" lon="-2.6621690">
        <ele>955.0</ele>
        <time>2019-07-07T06:13:56Z</time>
      </trkpt>
      <trkpt lat="40.6180300" lon="-2.6622190">
        <ele>955.8</ele>
        <time>2019-07-07T06:14:03Z</time>
      </trkpt>
      <trkpt lat="40.6180040" lon="-2.6622770">
        <ele>956.6</ele>
        <time>2019-07-07T06:14:08Z</time>
      </trkpt>
      <trkpt lat="40.6179930" lon="-2.6623000">
        <ele>957.0</ele>
        <time>2019-07-07T06:14:10Z</time>
      </trkpt>
      <trkpt lat="40.6179580" lon="-2.6623790">
        <ele>957.4</ele>
        <time>2019-07-07T06:14:16Z</time>
      </trkpt>
      <trkpt lat="40.6179300" lon="-2.6624430">
        <ele>957.8</ele>
        <time>2019-07-07T06:14:21Z</time>
      </trkpt>
      <trkpt lat="40.6179300" lon="-2.6624440">
        <ele>958.0</ele>
        <time>2019-07-07T06:14:22Z</time>
      </trkpt>
      <trkpt lat="40.6179670" lon="-2.6623900">
        <ele>957.6</ele>
        <time>2019-07-07T06:14:52Z</time>
      </trkpt>
      <trkpt lat="40.6179790" lon="-2.6623590">
        <ele>957.6</ele>
        <time>2019-07-07T06:14:53Z</time>
      </trkpt>
      <trkpt lat="40.6179920" lon="-2.6623250">
        <ele>957.4</ele>
        <time>2019-07-07T06:14:54Z</time>
      </trkpt>
      <trkpt lat="40.6180190" lon="-2.6622580">
        <ele>957.2</ele>
        <time>2019-07-07T06:14:56Z</time>
      </trkpt>
      <trkpt lat="40.6180720" lon="-2.6621480">
        <ele>956.0</ele>
        <time>2019-07-07T06:15:00Z</time>
      </trkpt>
      <trkpt lat="40.6180940" lon="-2.6621310">
        <ele>955.6</ele>
        <time>2019-07-07T06:15:01Z</time>
      </trkpt>
      <trkpt lat="40.6181400" lon="-2.6621450">
        <ele>954.6</ele>
        <time>2019-07-07T06:15:03Z</time>
      </trkpt>
      <trkpt lat="40.6181570" lon="-2.6622330">
        <ele>953.4</ele>
        <time>2019-07-07T06:15:06Z</time>
      </trkpt>
      <trkpt lat="40.6181750" lon="-2.6622720">
        <ele>953.2</ele>
        <time>2019-07-07T06:15:07Z</time>
      </trkpt>
      <trkpt lat="40.6182780" lon="-2.6624080">
        <ele>952.2</ele>
        <time>2019-07-07T06:15:10Z</time>
      </trkpt>
      <trkpt lat="40.6183180" lon="-2.6624470">
        <ele>951.8</ele>
        <time>2019-07-07T06:15:11Z</time>
      </trkpt>
      <trkpt lat="40.6183550" lon="-2.6624890">
        <ele>951.0</ele>
        <time>2019-07-07T06:15:12Z</time>
      </trkpt>
      <trkpt lat="40.6184300" lon="-2.6625790">
        <ele>949.6</ele>
        <time>2019-07-07T06:15:14Z</time>
      </trkpt>
      <trkpt lat="40.6184700" lon="-2.6626160">
        <ele>948.8</ele>
        <time>2019-07-07T06:15:15Z</time>
      </trkpt>
      <trkpt lat="40.6185070" lon="-2.6626480">
        <ele>948.4</ele>
        <time>2019-07-07T06:15:16Z</time>
      </trkpt>
      <trkpt lat="40.6185960" lon="-2.6627120">
        <ele>947.0</ele>
        <time>2019-07-07T06:15:18Z</time>
      </trkpt>
      <trkpt lat="40.6186950" lon="-2.6627510">
        <ele>945.4</ele>
        <time>2019-07-07T06:15:20Z</time>
      </trkpt>
      <trkpt lat="40.6187850" lon="-2.6627760">
        <ele>944.0</ele>
        <time>2019-07-07T06:15:22Z</time>
      </trkpt>
      <trkpt lat="40.6188310" lon="-2.6627810">
        <ele>943.6</ele>
        <time>2019-07-07T06:15:23Z</time>
      </trkpt>
      <trkpt lat="40.6189010" lon="-2.6627830">
        <ele>942.2</ele>
        <time>2019-07-07T06:15:25Z</time>
      </trkpt>
      <trkpt lat="40.6189400" lon="-2.6627930">
        <ele>941.4</ele>
        <time>2019-07-07T06:15:27Z</time>
      </trkpt>
      <trkpt lat="40.6189530" lon="-2.6628170">
        <ele>941.2</ele>
        <time>2019-07-07T06:15:28Z</time>
      </trkpt>
      <trkpt lat="40.6189560" lon="-2.6628500">
        <ele>941.2</ele>
        <time>2019-07-07T06:15:29Z</time>
      </trkpt>
      <trkpt lat="40.6189390" lon="-2.6630720">
        <ele>940.2</ele>
        <time>2019-07-07T06:15:34Z</time>
      </trkpt>
      <trkpt lat="40.6189250" lon="-2.6631120">
        <ele>939.6</ele>
        <time>2019-07-07T06:15:35Z</time>
      </trkpt>
      <trkpt lat="40.6189130" lon="-2.6631920">
        <ele>938.2</ele>
        <time>2019-07-07T06:15:37Z</time>
      </trkpt>
      <trkpt lat="40.6189200" lon="-2.6632810">
        <ele>937.0</ele>
        <time>2019-07-07T06:15:39Z</time>
      </trkpt>
      <trkpt lat="40.6189430" lon="-2.6633770">
        <ele>935.8</ele>
        <time>2019-07-07T06:15:41Z</time>
      </trkpt>
      <trkpt lat="40.6189570" lon="-2.6634270">
        <ele>934.8</ele>
        <time>2019-07-07T06:15:42Z</time>
      </trkpt>
      <trkpt lat="40.6189930" lon="-2.6635290">
        <ele>933.2</ele>
        <time>2019-07-07T06:15:44Z</time>
      </trkpt>
      <trkpt lat="40.6190140" lon="-2.6635920">
        <ele>932.4</ele>
        <time>2019-07-07T06:15:45Z</time>
      </trkpt>
      <trkpt lat="40.6190330" lon="-2.6636570">
        <ele>931.6</ele>
        <time>2019-07-07T06:15:46Z</time>
      </trkpt>
      <trkpt lat="40.6190500" lon="-2.6637330">
        <ele>930.6</ele>
        <time>2019-07-07T06:15:47Z</time>
      </trkpt>
      <trkpt lat="40.6190660" lon="-2.6638170">
        <ele>929.4</ele>
        <time>2019-07-07T06:15:48Z</time>
      </trkpt>
      <trkpt lat="40.6190830" lon="-2.6639060">
        <ele>928.2</ele>
        <time>2019-07-07T06:15:49Z</time>
      </trkpt>
      <trkpt lat="40.6191000" lon="-2.6639880">
        <ele>926.4</ele>
        <time>2019-07-07T06:15:50Z</time>
      </trkpt>
      <trkpt lat="40.6191150" lon="-2.6640630">
        <ele>925.4</ele>
        <time>2019-07-07T06:15:51Z</time>
      </trkpt>
      <trkpt lat="40.6191430" lon="-2.6642010">
        <ele>923.8</ele>
        <time>2019-07-07T06:15:53Z</time>
      </trkpt>
      <trkpt lat="40.6191560" lon="-2.6643070">
        <ele>922.2</ele>
        <time>2019-07-07T06:15:55Z</time>
      </trkpt>
      <trkpt lat="40.6191540" lon="-2.6643460">
        <ele>921.4</ele>
        <time>2019-07-07T06:15:56Z</time>
      </trkpt>
      <trkpt lat="40.6191520" lon="-2.6643780">
        <ele>920.6</ele>
        <time>2019-07-07T06:15:57Z</time>
      </trkpt>
      <trkpt lat="40.6191530" lon="-2.6644250">
        <ele>919.4</ele>
        <time>2019-07-07T06:15:59Z</time>
      </trkpt>
      <trkpt lat="40.6191480" lon="-2.6644800">
        <ele>918.2</ele>
        <time>2019-07-07T06:16:01Z</time>
      </trkpt>
      <trkpt lat="40.6191420" lon="-2.6645240">
        <ele>917.2</ele>
        <time>2019-07-07T06:16:29Z</time>
      </trkpt>
      <trkpt lat="40.6191360" lon="-2.6645680">
        <ele>917.2</ele>
        <time>2019-07-07T06:16:30Z</time>
      </trkpt>
      <trkpt lat="40.6191050" lon="-2.6647100">
        <ele>916.6</ele>
        <time>2019-07-07T06:16:32Z</time>
      </trkpt>
      <trkpt lat="40.6190820" lon="-2.6647860">
        <ele>916.2</ele>
        <time>2019-07-07T06:16:33Z</time>
      </trkpt>
      <trkpt lat="40.6190580" lon="-2.6648670">
        <ele>915.6</ele>
        <time>2019-07-07T06:16:34Z</time>
      </trkpt>
      <trkpt lat="40.6190400" lon="-2.6649530">
        <ele>915.2</ele>
        <time>2019-07-07T06:16:35Z</time>
      </trkpt>
      <trkpt lat="40.6190270" lon="-2.6652460">
        <ele>913.8</ele>
        <time>2019-07-07T06:16:38Z</time>
      </trkpt>
      <trkpt lat="40.6190390" lon="-2.6656590">
        <ele>912.4</ele>
        <time>2019-07-07T06:16:42Z</time>
      </trkpt>
      <trkpt lat="40.6190660" lon="-2.6661700">
        <ele>911.6</ele>
        <time>2019-07-07T06:16:47Z</time>
      </trkpt>
      <trkpt lat="40.6190720" lon="-2.6662700">
        <ele>911.4</ele>
        <time>2019-07-07T06:16:48Z</time>
      </trkpt>
      <trkpt lat="40.6190870" lon="-2.6669530">
        <ele>910.6</ele>
        <time>2019-07-07T06:16:55Z</time>
      </trkpt>
      <trkpt lat="40.6190790" lon="-2.6670490">
        <ele>910.4</ele>
        <time>2019-07-07T06:16:56Z</time>
      </trkpt>
      <trkpt lat="40.6190540" lon="-2.6672430">
        <ele>910.0</ele>
        <time>2019-07-07T06:16:58Z</time>
      </trkpt>
      <trkpt lat="40.6190050" lon="-2.6675410">
        <ele>909.2</ele>
        <time>2019-07-07T06:17:01Z</time>
      </trkpt>
      <trkpt lat="40.6189320" lon="-2.6679570">
        <ele>908.2</ele>
        <time>2019-07-07T06:17:05Z</time>
      </trkpt>
      <trkpt lat="40.6188820" lon="-2.6682840">
        <ele>906.6</ele>
        <time>2019-07-07T06:17:08Z</time>
      </trkpt>
      <trkpt lat="40.6188620" lon="-2.6683940">
        <ele>906.2</ele>
        <time>2019-07-07T06:17:09Z</time>
      </trkpt>
      <trkpt lat="40.6188230" lon="-2.6686140">
        <ele>905.6</ele>
        <time>2019-07-07T06:17:11Z</time>
      </trkpt>
      <trkpt lat="40.6187160" lon="-2.6691900">
        <ele>904.2</ele>
        <time>2019-07-07T06:17:16Z</time>
      </trkpt>
      <trkpt lat="40.6186530" lon="-2.6694240">
        <ele>903.2</ele>
        <time>2019-07-07T06:17:18Z</time>
      </trkpt>
      <trkpt lat="40.6186110" lon="-2.6695400">
        <ele>902.4</ele>
        <time>2019-07-07T06:17:19Z</time>
      </trkpt>
      <trkpt lat="40.6185040" lon="-2.6697660">
        <ele>901.0</ele>
        <time>2019-07-07T06:17:21Z</time>
      </trkpt>
      <trkpt lat="40.6184460" lon="-2.6698790">
        <ele>900.2</ele>
        <time>2019-07-07T06:17:22Z</time>
      </trkpt>
      <trkpt lat="40.6183860" lon="-2.6699880">
        <ele>899.6</ele>
        <time>2019-07-07T06:17:23Z</time>
      </trkpt>
      <trkpt lat="40.6182720" lon="-2.6701970">
        <ele>898.0</ele>
        <time>2019-07-07T06:17:25Z</time>
      </trkpt>
      <trkpt lat="40.6182230" lon="-2.6703040">
        <ele>897.0</ele>
        <time>2019-07-07T06:17:26Z</time>
      </trkpt>
      <trkpt lat="40.6181880" lon="-2.6704210">
        <ele>896.4</ele>
        <time>2019-07-07T06:17:27Z</time>
      </trkpt>
      <trkpt lat="40.6181690" lon="-2.6705510">
        <ele>895.8</ele>
        <time>2019-07-07T06:17:28Z</time>
      </trkpt>
      <trkpt lat="40.6181810" lon="-2.6708250">
        <ele>894.2</ele>
        <time>2019-07-07T06:17:30Z</time>
      </trkpt>
      <trkpt lat="40.6182050" lon="-2.6709650">
        <ele>892.8</ele>
        <time>2019-07-07T06:17:31Z</time>
      </trkpt>
      <trkpt lat="40.6182320" lon="-2.6711070">
        <ele>891.8</ele>
        <time>2019-07-07T06:17:32Z</time>
      </trkpt>
      <trkpt lat="40.6182590" lon="-2.6712490">
        <ele>891.2</ele>
        <time>2019-07-07T06:17:33Z</time>
      </trkpt>
      <trkpt lat="40.6183110" lon="-2.6715390">
        <ele>889.6</ele>
        <time>2019-07-07T06:17:35Z</time>
      </trkpt>
      <trkpt lat="40.6183640" lon="-2.6718320">
        <ele>888.4</ele>
        <time>2019-07-07T06:17:37Z</time>
      </trkpt>
      <trkpt lat="40.6184200" lon="-2.6721290">
        <ele>887.0</ele>
        <time>2019-07-07T06:17:39Z</time>
      </trkpt>
      <trkpt lat="40.6184750" lon="-2.6724300">
        <ele>885.4</ele>
        <time>2019-07-07T06:17:41Z</time>
      </trkpt>
      <trkpt lat="40.6185260" lon="-2.6727330">
        <ele>884.4</ele>
        <time>2019-07-07T06:17:43Z</time>
      </trkpt>
      <trkpt lat="40.6185540" lon="-2.6728860">
        <ele>883.8</ele>
        <time>2019-07-07T06:17:44Z</time>
      </trkpt>
      <trkpt lat="40.6185840" lon="-2.6730400">
        <ele>883.0</ele>
        <time>2019-07-07T06:17:45Z</time>
      </trkpt>
      <trkpt lat="40.6186160" lon="-2.6731920">
        <ele>882.0</ele>
        <time>2019-07-07T06:17:46Z</time>
      </trkpt>
      <trkpt lat="40.6186730" lon="-2.6734910">
        <ele>880.2</ele>
        <time>2019-07-07T06:17:48Z</time>
      </trkpt>
      <trkpt lat="40.6187260" lon="-2.6737890">
        <ele>878.8</ele>
        <time>2019-07-07T06:17:50Z</time>
      </trkpt>
      <trkpt lat="40.6187510" lon="-2.6739380">
        <ele>878.2</ele>
        <time>2019-07-07T06:17:51Z</time>
      </trkpt>
      <trkpt lat="40.6187770" lon="-2.6740780">
        <ele>877.8</ele>
        <time>2019-07-07T06:17:52Z</time>
      </trkpt>
      <trkpt lat="40.6188270" lon="-2.6743430">
        <ele>876.2</ele>
        <time>2019-07-07T06:17:54Z</time>
      </trkpt>
      <trkpt lat="40.6188560" lon="-2.6746020">
        <ele>874.6</ele>
        <time>2019-07-07T06:17:56Z</time>
      </trkpt>
      <trkpt lat="40.6188460" lon="-2.6748780">
        <ele>872.8</ele>
        <time>2019-07-07T06:17:58Z</time>
      </trkpt>
      <trkpt lat="40.6188070" lon="-2.6751650">
        <ele>871.4</ele>
        <time>2019-07-07T06:18:00Z</time>
      </trkpt>
      <trkpt lat="40.6187820" lon="-2.6753120">
        <ele>870.2</ele>
        <time>2019-07-07T06:18:01Z</time>
      </trkpt>
      <trkpt lat="40.6187210" lon="-2.6756110">
        <ele>868.4</ele>
        <time>2019-07-07T06:18:03Z</time>
      </trkpt>
      <trkpt lat="40.6186430" lon="-2.6759140">
        <ele>866.8</ele>
        <time>2019-07-07T06:18:05Z</time>
      </trkpt>
      <trkpt lat="40.6186010" lon="-2.6760680">
        <ele>865.4</ele>
        <time>2019-07-07T06:18:06Z</time>
      </trkpt>
      <trkpt lat="40.6185150" lon="-2.6763840">
        <ele>863.8</ele>
        <time>2019-07-07T06:18:08Z</time>
      </trkpt>
      <trkpt lat="40.6184680" lon="-2.6765440">
        <ele>862.8</ele>
        <time>2019-07-07T06:18:09Z</time>
      </trkpt>
      <trkpt lat="40.6183810" lon="-2.6768730">
        <ele>860.8</ele>
        <time>2019-07-07T06:18:11Z</time>
      </trkpt>
      <trkpt lat="40.6183380" lon="-2.6770410">
        <ele>859.4</ele>
        <time>2019-07-07T06:18:12Z</time>
      </trkpt>
      <trkpt lat="40.6182470" lon="-2.6773740">
        <ele>857.2</ele>
        <time>2019-07-07T06:18:14Z</time>
      </trkpt>
      <trkpt lat="40.6181550" lon="-2.6777000">
        <ele>855.4</ele>
        <time>2019-07-07T06:18:16Z</time>
      </trkpt>
      <trkpt lat="40.6181120" lon="-2.6778570">
        <ele>854.4</ele>
        <time>2019-07-07T06:18:17Z</time>
      </trkpt>
      <trkpt lat="40.6180730" lon="-2.6780060">
        <ele>853.0</ele>
        <time>2019-07-07T06:18:18Z</time>
      </trkpt>
      <trkpt lat="40.6180370" lon="-2.6781500">
        <ele>851.6</ele>
        <time>2019-07-07T06:18:19Z</time>
      </trkpt>
      <trkpt lat="40.6179660" lon="-2.6784240">
        <ele>849.8</ele>
        <time>2019-07-07T06:18:21Z</time>
      </trkpt>
      <trkpt lat="40.6179270" lon="-2.6785430">
        <ele>849.0</ele>
        <time>2019-07-07T06:18:22Z</time>
      </trkpt>
      <trkpt lat="40.6178820" lon="-2.6786470">
        <ele>848.0</ele>
        <time>2019-07-07T06:18:23Z</time>
      </trkpt>
      <trkpt lat="40.6177560" lon="-2.6788160">
        <ele>846.2</ele>
        <time>2019-07-07T06:18:25Z</time>
      </trkpt>
      <trkpt lat="40.6176740" lon="-2.6788810">
        <ele>845.6</ele>
        <time>2019-07-07T06:18:26Z</time>
      </trkpt>
      <trkpt lat="40.6175850" lon="-2.6789360">
        <ele>845.2</ele>
        <time>2019-07-07T06:18:27Z</time>
      </trkpt>
      <trkpt lat="40.6174930" lon="-2.6789900">
        <ele>844.4</ele>
        <time>2019-07-07T06:18:28Z</time>
      </trkpt>
      <trkpt lat="40.6174000" lon="-2.6790470">
        <ele>843.8</ele>
        <time>2019-07-07T06:18:29Z</time>
      </trkpt>
      <trkpt lat="40.6173110" lon="-2.6791180">
        <ele>842.6</ele>
        <time>2019-07-07T06:18:30Z</time>
      </trkpt>
      <trkpt lat="40.6171780" lon="-2.6793120">
        <ele>841.0</ele>
        <time>2019-07-07T06:18:32Z</time>
      </trkpt>
      <trkpt lat="40.6171450" lon="-2.6794310">
        <ele>840.4</ele>
        <time>2019-07-07T06:18:33Z</time>
      </trkpt>
      <trkpt lat="40.6171320" lon="-2.6795580">
        <ele>840.0</ele>
        <time>2019-07-07T06:18:34Z</time>
      </trkpt>
      <trkpt lat="40.6171360" lon="-2.6798170">
        <ele>839.4</ele>
        <time>2019-07-07T06:18:36Z</time>
      </trkpt>
      <trkpt lat="40.6171400" lon="-2.6800780">
        <ele>838.4</ele>
        <time>2019-07-07T06:18:38Z</time>
      </trkpt>
      <trkpt lat="40.6171430" lon="-2.6804780">
        <ele>836.8</ele>
        <time>2019-07-07T06:18:41Z</time>
      </trkpt>
      <trkpt lat="40.6171440" lon="-2.6807500">
        <ele>835.8</ele>
        <time>2019-07-07T06:18:43Z</time>
      </trkpt>
      <trkpt lat="40.6171460" lon="-2.6811540">
        <ele>834.2</ele>
        <time>2019-07-07T06:18:46Z</time>
      </trkpt>
      <trkpt lat="40.6171710" lon="-2.6815640">
        <ele>833.0</ele>
        <time>2019-07-07T06:18:49Z</time>
      </trkpt>
      <trkpt lat="40.6172000" lon="-2.6818460">
        <ele>831.8</ele>
        <time>2019-07-07T06:18:51Z</time>
      </trkpt>
      <trkpt lat="40.6172270" lon="-2.6821360">
        <ele>830.2</ele>
        <time>2019-07-07T06:18:53Z</time>
      </trkpt>
      <trkpt lat="40.6172520" lon="-2.6824270">
        <ele>828.6</ele>
        <time>2019-07-07T06:18:55Z</time>
      </trkpt>
      <trkpt lat="40.6172720" lon="-2.6826990">
        <ele>826.6</ele>
        <time>2019-07-07T06:18:57Z</time>
      </trkpt>
      <trkpt lat="40.6172740" lon="-2.6829470">
        <ele>825.2</ele>
        <time>2019-07-07T06:18:59Z</time>
      </trkpt>
      <trkpt lat="40.6172550" lon="-2.6830660">
        <ele>824.8</ele>
        <time>2019-07-07T06:19:00Z</time>
      </trkpt>
      <trkpt lat="40.6171680" lon="-2.6832880">
        <ele>823.8</ele>
        <time>2019-07-07T06:19:02Z</time>
      </trkpt>
      <trkpt lat="40.6171130" lon="-2.6833920">
        <ele>823.2</ele>
        <time>2019-07-07T06:19:03Z</time>
      </trkpt>
      <trkpt lat="40.6170550" lon="-2.6834850">
        <ele>822.6</ele>
        <time>2019-07-07T06:19:04Z</time>
      </trkpt>
      <trkpt lat="40.6169090" lon="-2.6836190">
        <ele>821.2</ele>
        <time>2019-07-07T06:19:06Z</time>
      </trkpt>
      <trkpt lat="40.6166340" lon="-2.6836770">
        <ele>819.8</ele>
        <time>2019-07-07T06:19:09Z</time>
      </trkpt>
      <trkpt lat="40.6163570" lon="-2.6837530">
        <ele>818.2</ele>
        <time>2019-07-07T06:19:12Z</time>
      </trkpt>
      <trkpt lat="40.6162270" lon="-2.6839470">
        <ele>816.8</ele>
        <time>2019-07-07T06:19:14Z</time>
      </trkpt>
      <trkpt lat="40.6161360" lon="-2.6841830">
        <ele>815.4</ele>
        <time>2019-07-07T06:19:16Z</time>
      </trkpt>
      <trkpt lat="40.6160340" lon="-2.6844180">
        <ele>814.2</ele>
        <time>2019-07-07T06:19:18Z</time>
      </trkpt>
      <trkpt lat="40.6159300" lon="-2.6846480">
        <ele>812.8</ele>
        <time>2019-07-07T06:19:20Z</time>
      </trkpt>
      <trkpt lat="40.6158910" lon="-2.6847670">
        <ele>811.8</ele>
        <time>2019-07-07T06:19:21Z</time>
      </trkpt>
      <trkpt lat="40.6158670" lon="-2.6848960">
        <ele>811.6</ele>
        <time>2019-07-07T06:19:22Z</time>
      </trkpt>
      <trkpt lat="40.6158240" lon="-2.6852860">
        <ele>810.4</ele>
        <time>2019-07-07T06:19:25Z</time>
      </trkpt>
      <trkpt lat="40.6157890" lon="-2.6854050">
        <ele>809.8</ele>
        <time>2019-07-07T06:19:26Z</time>
      </trkpt>
      <trkpt lat="40.6157030" lon="-2.6856150">
        <ele>809.0</ele>
        <time>2019-07-07T06:19:28Z</time>
      </trkpt>
      <trkpt lat="40.6156340" lon="-2.6858040">
        <ele>808.6</ele>
        <time>2019-07-07T06:19:30Z</time>
      </trkpt>
      <trkpt lat="40.6155990" lon="-2.6860640">
        <ele>808.0</ele>
        <time>2019-07-07T06:19:33Z</time>
      </trkpt>
      <trkpt lat="40.6155970" lon="-2.6861350">
        <ele>807.6</ele>
        <time>2019-07-07T06:19:34Z</time>
      </trkpt>
      <trkpt lat="40.6155910" lon="-2.6861980">
        <ele>807.6</ele>
        <time>2019-07-07T06:19:35Z</time>
      </trkpt>
      <trkpt lat="40.6155580" lon="-2.6863010">
        <ele>807.4</ele>
        <time>2019-07-07T06:19:37Z</time>
      </trkpt>
      <trkpt lat="40.6155120" lon="-2.6863800">
        <ele>807.8</ele>
        <time>2019-07-07T06:19:39Z</time>
      </trkpt>
      <trkpt lat="40.6154560" lon="-2.6864370">
        <ele>808.0</ele>
        <time>2019-07-07T06:19:41Z</time>
      </trkpt>
      <trkpt lat="40.6154260" lon="-2.6864630">
        <ele>808.4</ele>
        <time>2019-07-07T06:19:42Z</time>
      </trkpt>
      <trkpt lat="40.6153960" lon="-2.6864880">
        <ele>808.4</ele>
        <time>2019-07-07T06:19:43Z</time>
      </trkpt>
      <trkpt lat="40.6153660" lon="-2.6865120">
        <ele>808.6</ele>
        <time>2019-07-07T06:19:44Z</time>
      </trkpt>
      <trkpt lat="40.6153070" lon="-2.6865610">
        <ele>808.8</ele>
        <time>2019-07-07T06:19:46Z</time>
      </trkpt>
      <trkpt lat="40.6152470" lon="-2.6866060">
        <ele>809.2</ele>
        <time>2019-07-07T06:19:48Z</time>
      </trkpt>
      <trkpt lat="40.6151870" lon="-2.6866540">
        <ele>809.8</ele>
        <time>2019-07-07T06:19:50Z</time>
      </trkpt>
      <trkpt lat="40.6151250" lon="-2.6866950">
        <ele>810.0</ele>
        <time>2019-07-07T06:19:52Z</time>
      </trkpt>
      <trkpt lat="40.6150630" lon="-2.6867330">
        <ele>810.4</ele>
        <time>2019-07-07T06:19:54Z</time>
      </trkpt>
      <trkpt lat="40.6149730" lon="-2.6867970">
        <ele>810.8</ele>
        <time>2019-07-07T06:19:57Z</time>
      </trkpt>
      <trkpt lat="40.6149110" lon="-2.6868380">
        <ele>811.4</ele>
        <time>2019-07-07T06:19:59Z</time>
      </trkpt>
      <trkpt lat="40.6147860" lon="-2.6869220">
        <ele>812.2</ele>
        <time>2019-07-07T06:20:03Z</time>
      </trkpt>
      <trkpt lat="40.6147250" lon="-2.6869630">
        <ele>812.6</ele>
        <time>2019-07-07T06:20:05Z</time>
      </trkpt>
      <trkpt lat="40.6146640" lon="-2.6870010">
        <ele>813.2</ele>
        <time>2019-07-07T06:20:07Z</time>
      </trkpt>
      <trkpt lat="40.6145690" lon="-2.6870470">
        <ele>813.6</ele>
        <time>2019-07-07T06:20:10Z</time>
      </trkpt>
      <trkpt lat="40.6145370" lon="-2.6870610">
        <ele>813.6</ele>
        <time>2019-07-07T06:20:11Z</time>
      </trkpt>
      <trkpt lat="40.6144740" lon="-2.6870960">
        <ele>814.0</ele>
        <time>2019-07-07T06:20:13Z</time>
      </trkpt>
      <trkpt lat="40.6144110" lon="-2.6871250">
        <ele>814.8</ele>
        <time>2019-07-07T06:20:15Z</time>
      </trkpt>
      <trkpt lat="40.6143130" lon="-2.6871630">
        <ele>815.2</ele>
        <time>2019-07-07T06:20:18Z</time>
      </trkpt>
      <trkpt lat="40.6142140" lon="-2.6871950">
        <ele>815.8</ele>
        <time>2019-07-07T06:20:21Z</time>
      </trkpt>
      <trkpt lat="40.6141790" lon="-2.6872020">
        <ele>816.2</ele>
        <time>2019-07-07T06:20:22Z</time>
      </trkpt>
      <trkpt lat="40.6140050" lon="-2.6872340">
        <ele>817.2</ele>
        <time>2019-07-07T06:20:27Z</time>
      </trkpt>
      <trkpt lat="40.6139710" lon="-2.6872370">
        <ele>817.2</ele>
        <time>2019-07-07T06:20:28Z</time>
      </trkpt>
      <trkpt lat="40.6137990" lon="-2.6872260">
        <ele>818.2</ele>
        <time>2019-07-07T06:20:33Z</time>
      </trkpt>
      <trkpt lat="40.6136970" lon="-2.6872010">
        <ele>818.8</ele>
        <time>2019-07-07T06:20:36Z</time>
      </trkpt>
      <trkpt lat="40.6136270" lon="-2.6871800">
        <ele>819.2</ele>
        <time>2019-07-07T06:20:38Z</time>
      </trkpt>
      <trkpt lat="40.6134500" lon="-2.6871490">
        <ele>820.0</ele>
        <time>2019-07-07T06:20:43Z</time>
      </trkpt>
      <trkpt lat="40.6133800" lon="-2.6871510">
        <ele>820.4</ele>
        <time>2019-07-07T06:20:45Z</time>
      </trkpt>
      <trkpt lat="40.6132460" lon="-2.6871900">
        <ele>821.2</ele>
        <time>2019-07-07T06:20:49Z</time>
      </trkpt>
      <trkpt lat="40.6132140" lon="-2.6872090">
        <ele>821.4</ele>
        <time>2019-07-07T06:20:50Z</time>
      </trkpt>
      <trkpt lat="40.6130630" lon="-2.6873430">
        <ele>822.6</ele>
        <time>2019-07-07T06:20:55Z</time>
      </trkpt>
      <trkpt lat="40.6129200" lon="-2.6874780">
        <ele>823.6</ele>
        <time>2019-07-07T06:21:00Z</time>
      </trkpt>
      <trkpt lat="40.6128920" lon="-2.6875070">
        <ele>823.8</ele>
        <time>2019-07-07T06:21:01Z</time>
      </trkpt>
      <trkpt lat="40.6128370" lon="-2.6875690">
        <ele>824.0</ele>
        <time>2019-07-07T06:21:03Z</time>
      </trkpt>
      <trkpt lat="40.6126610" lon="-2.6878430">
        <ele>824.6</ele>
        <time>2019-07-07T06:21:10Z</time>
      </trkpt>
      <trkpt lat="40.6126410" lon="-2.6878920">
        <ele>824.6</ele>
        <time>2019-07-07T06:21:11Z</time>
      </trkpt>
      <trkpt lat="40.6126260" lon="-2.6879430">
        <ele>824.8</ele>
        <time>2019-07-07T06:21:12Z</time>
      </trkpt>
      <trkpt lat="40.6125750" lon="-2.6881500">
        <ele>825.0</ele>
        <time>2019-07-07T06:21:16Z</time>
      </trkpt>
      <trkpt lat="40.6125120" lon="-2.6883610">
        <ele>825.4</ele>
        <time>2019-07-07T06:21:20Z</time>
      </trkpt>
      <trkpt lat="40.6124450" lon="-2.6885220">
        <ele>825.2</ele>
        <time>2019-07-07T06:21:23Z</time>
      </trkpt>
      <trkpt lat="40.6124160" lon="-2.6885740">
        <ele>825.2</ele>
        <time>2019-07-07T06:21:24Z</time>
      </trkpt>
      <trkpt lat="40.6123100" lon="-2.6887220">
        <ele>825.0</ele>
        <time>2019-07-07T06:21:27Z</time>
      </trkpt>
      <trkpt lat="40.6122700" lon="-2.6887710">
        <ele>825.0</ele>
        <time>2019-07-07T06:21:28Z</time>
      </trkpt>
      <trkpt lat="40.6121410" lon="-2.6889180">
        <ele>825.0</ele>
        <time>2019-07-07T06:21:31Z</time>
      </trkpt>
      <trkpt lat="40.6120400" lon="-2.6890170">
        <ele>824.8</ele>
        <time>2019-07-07T06:21:33Z</time>
      </trkpt>
      <trkpt lat="40.6119380" lon="-2.6891180">
        <ele>824.2</ele>
        <time>2019-07-07T06:21:35Z</time>
      </trkpt>
      <trkpt lat="40.6117860" lon="-2.6892870">
        <ele>823.8</ele>
        <time>2019-07-07T06:21:38Z</time>
      </trkpt>
      <trkpt lat="40.6117370" lon="-2.6893470">
        <ele>823.6</ele>
        <time>2019-07-07T06:21:39Z</time>
      </trkpt>
      <trkpt lat="40.6116890" lon="-2.6894110">
        <ele>823.6</ele>
        <time>2019-07-07T06:21:40Z</time>
      </trkpt>
      <trkpt lat="40.6116410" lon="-2.6894790">
        <ele>823.4</ele>
        <time>2019-07-07T06:21:41Z</time>
      </trkpt>
      <trkpt lat="40.6115920" lon="-2.6895460">
        <ele>823.2</ele>
        <time>2019-07-07T06:21:42Z</time>
      </trkpt>
      <trkpt lat="40.6114940" lon="-2.6896840">
        <ele>822.6</ele>
        <time>2019-07-07T06:21:44Z</time>
      </trkpt>
      <trkpt lat="40.6112890" lon="-2.6899610">
        <ele>822.2</ele>
        <time>2019-07-07T06:21:48Z</time>
      </trkpt>
      <trkpt lat="40.6111830" lon="-2.6900910">
        <ele>822.0</ele>
        <time>2019-07-07T06:21:50Z</time>
      </trkpt>
      <trkpt lat="40.6110720" lon="-2.6902110">
        <ele>821.6</ele>
        <time>2019-07-07T06:21:52Z</time>
      </trkpt>
      <trkpt lat="40.6106670" lon="-2.6905440">
        <ele>821.8</ele>
        <time>2019-07-07T06:21:59Z</time>
      </trkpt>
      <trkpt lat="40.6102860" lon="-2.6907690">
        <ele>822.4</ele>
        <time>2019-07-07T06:22:06Z</time>
      </trkpt>
      <trkpt lat="40.6102340" lon="-2.6907930">
        <ele>822.8</ele>
        <time>2019-07-07T06:22:07Z</time>
      </trkpt>
      <trkpt lat="40.6100810" lon="-2.6908560">
        <ele>823.2</ele>
        <time>2019-07-07T06:22:10Z</time>
      </trkpt>
      <trkpt lat="40.6099860" lon="-2.6909030">
        <ele>823.4</ele>
        <time>2019-07-07T06:22:12Z</time>
      </trkpt>
      <trkpt lat="40.6099420" lon="-2.6909340">
        <ele>823.4</ele>
        <time>2019-07-07T06:22:13Z</time>
      </trkpt>
      <trkpt lat="40.6098580" lon="-2.6909980">
        <ele>823.8</ele>
        <time>2019-07-07T06:22:15Z</time>
      </trkpt>
      <trkpt lat="40.6097450" lon="-2.6911140">
        <ele>824.2</ele>
        <time>2019-07-07T06:22:18Z</time>
      </trkpt>
      <trkpt lat="40.6097130" lon="-2.6911590">
        <ele>824.4</ele>
        <time>2019-07-07T06:22:19Z</time>
      </trkpt>
      <trkpt lat="40.6096550" lon="-2.6912560">
        <ele>824.8</ele>
        <time>2019-07-07T06:22:21Z</time>
      </trkpt>
      <trkpt lat="40.6096280" lon="-2.6913080">
        <ele>825.0</ele>
        <time>2019-07-07T06:22:22Z</time>
      </trkpt>
      <trkpt lat="40.6095600" lon="-2.6914690">
        <ele>825.6</ele>
        <time>2019-07-07T06:22:25Z</time>
      </trkpt>
      <trkpt lat="40.6095400" lon="-2.6915250">
        <ele>825.6</ele>
        <time>2019-07-07T06:22:26Z</time>
      </trkpt>
      <trkpt lat="40.6094990" lon="-2.6916340">
        <ele>826.0</ele>
        <time>2019-07-07T06:22:28Z</time>
      </trkpt>
      <trkpt lat="40.6094320" lon="-2.6917960">
        <ele>826.8</ele>
        <time>2019-07-07T06:22:31Z</time>
      </trkpt>
      <trkpt lat="40.6093780" lon="-2.6918960">
        <ele>827.0</ele>
        <time>2019-07-07T06:22:33Z</time>
      </trkpt>
      <trkpt lat="40.6093480" lon="-2.6919430">
        <ele>827.2</ele>
        <time>2019-07-07T06:22:34Z</time>
      </trkpt>
      <trkpt lat="40.6091880" lon="-2.6921560">
        <ele>828.2</ele>
        <time>2019-07-07T06:22:39Z</time>
      </trkpt>
      <trkpt lat="40.6090760" lon="-2.6922680">
        <ele>828.4</ele>
        <time>2019-07-07T06:22:42Z</time>
      </trkpt>
      <trkpt lat="40.6088920" lon="-2.6924570">
        <ele>829.2</ele>
        <time>2019-07-07T06:22:47Z</time>
      </trkpt>
      <trkpt lat="40.6087180" lon="-2.6926500">
        <ele>830.2</ele>
        <time>2019-07-07T06:22:52Z</time>
      </trkpt>
      <trkpt lat="40.6086850" lon="-2.6926900">
        <ele>830.6</ele>
        <time>2019-07-07T06:22:53Z</time>
      </trkpt>
      <trkpt lat="40.6085320" lon="-2.6928840">
        <ele>831.6</ele>
        <time>2019-07-07T06:22:58Z</time>
      </trkpt>
      <trkpt lat="40.6084470" lon="-2.6930090">
        <ele>832.0</ele>
        <time>2019-07-07T06:23:01Z</time>
      </trkpt>
      <trkpt lat="40.6083420" lon="-2.6931750">
        <ele>832.6</ele>
        <time>2019-07-07T06:23:05Z</time>
      </trkpt>
      <trkpt lat="40.6082070" lon="-2.6933790">
        <ele>833.6</ele>
        <time>2019-07-07T06:23:10Z</time>
      </trkpt>
      <trkpt lat="40.6081230" lon="-2.6935020">
        <ele>834.4</ele>
        <time>2019-07-07T06:23:13Z</time>
      </trkpt>
      <trkpt lat="40.6080110" lon="-2.6936670">
        <ele>834.8</ele>
        <time>2019-07-07T06:23:17Z</time>
      </trkpt>
      <trkpt lat="40.6078890" lon="-2.6938180">
        <ele>835.4</ele>
        <time>2019-07-07T06:23:21Z</time>
      </trkpt>
      <trkpt lat="40.6078010" lon="-2.6939350">
        <ele>835.8</ele>
        <time>2019-07-07T06:23:24Z</time>
      </trkpt>
      <trkpt lat="40.6076450" lon="-2.6941380">
        <ele>836.2</ele>
        <time>2019-07-07T06:23:29Z</time>
      </trkpt>
      <trkpt lat="40.6076130" lon="-2.6941770">
        <ele>836.2</ele>
        <time>2019-07-07T06:23:30Z</time>
      </trkpt>
      <trkpt lat="40.6073380" lon="-2.6945180">
        <ele>836.8</ele>
        <time>2019-07-07T06:23:38Z</time>
      </trkpt>
      <trkpt lat="40.6073050" lon="-2.6945640">
        <ele>836.8</ele>
        <time>2019-07-07T06:23:39Z</time>
      </trkpt>
      <trkpt lat="40.6072670" lon="-2.6946070">
        <ele>836.8</ele>
        <time>2019-07-07T06:23:40Z</time>
      </trkpt>
      <trkpt lat="40.6071870" lon="-2.6946950">
        <ele>836.6</ele>
        <time>2019-07-07T06:23:42Z</time>
      </trkpt>
      <trkpt lat="40.6071050" lon="-2.6947920">
        <ele>836.6</ele>
        <time>2019-07-07T06:23:44Z</time>
      </trkpt>
      <trkpt lat="40.6070610" lon="-2.6948410">
        <ele>836.6</ele>
        <time>2019-07-07T06:23:45Z</time>
      </trkpt>
      <trkpt lat="40.6069230" lon="-2.6949800">
        <ele>836.6</ele>
        <time>2019-07-07T06:23:48Z</time>
      </trkpt>
      <trkpt lat="40.6068740" lon="-2.6950280">
        <ele>836.4</ele>
        <time>2019-07-07T06:23:49Z</time>
      </trkpt>
      <trkpt lat="40.6067760" lon="-2.6951280">
        <ele>836.2</ele>
        <time>2019-07-07T06:23:51Z</time>
      </trkpt>
      <trkpt lat="40.6067290" lon="-2.6951830">
        <ele>836.0</ele>
        <time>2019-07-07T06:23:52Z</time>
      </trkpt>
      <trkpt lat="40.6066790" lon="-2.6952390">
        <ele>835.8</ele>
        <time>2019-07-07T06:23:53Z</time>
      </trkpt>
      <trkpt lat="40.6066250" lon="-2.6952890">
        <ele>835.6</ele>
        <time>2019-07-07T06:23:54Z</time>
      </trkpt>
      <trkpt lat="40.6064370" lon="-2.6954230">
        <ele>835.0</ele>
        <time>2019-07-07T06:23:57Z</time>
      </trkpt>
      <trkpt lat="40.6063700" lon="-2.6954670">
        <ele>834.4</ele>
        <time>2019-07-07T06:23:58Z</time>
      </trkpt>
      <trkpt lat="40.6062280" lon="-2.6955680">
        <ele>833.6</ele>
        <time>2019-07-07T06:24:00Z</time>
      </trkpt>
      <trkpt lat="40.6061530" lon="-2.6956170">
        <ele>833.2</ele>
        <time>2019-07-07T06:24:01Z</time>
      </trkpt>
      <trkpt lat="40.6060730" lon="-2.6956650">
        <ele>832.6</ele>
        <time>2019-07-07T06:24:02Z</time>
      </trkpt>
      <trkpt lat="40.6059900" lon="-2.6957090">
        <ele>832.0</ele>
        <time>2019-07-07T06:24:03Z</time>
      </trkpt>
      <trkpt lat="40.6057240" lon="-2.6958340">
        <ele>830.4</ele>
        <time>2019-07-07T06:24:06Z</time>
      </trkpt>
      <trkpt lat="40.6055300" lon="-2.6958980">
        <ele>829.2</ele>
        <time>2019-07-07T06:24:08Z</time>
      </trkpt>
      <trkpt lat="40.6053230" lon="-2.6959380">
        <ele>828.0</ele>
        <time>2019-07-07T06:24:10Z</time>
      </trkpt>
      <trkpt lat="40.6051090" lon="-2.6959570">
        <ele>826.4</ele>
        <time>2019-07-07T06:24:12Z</time>
      </trkpt>
      <trkpt lat="40.6049990" lon="-2.6959570">
        <ele>825.6</ele>
        <time>2019-07-07T06:24:13Z</time>
      </trkpt>
      <trkpt lat="40.6048880" lon="-2.6959530">
        <ele>825.0</ele>
        <time>2019-07-07T06:24:14Z</time>
      </trkpt>
      <trkpt lat="40.6046620" lon="-2.6959450">
        <ele>823.4</ele>
        <time>2019-07-07T06:24:16Z</time>
      </trkpt>
      <trkpt lat="40.6044300" lon="-2.6959300">
        <ele>822.2</ele>
        <time>2019-07-07T06:24:18Z</time>
      </trkpt>
      <trkpt lat="40.6041950" lon="-2.6959160">
        <ele>820.4</ele>
        <time>2019-07-07T06:24:20Z</time>
      </trkpt>
      <trkpt lat="40.6040750" lon="-2.6959130">
        <ele>819.8</ele>
        <time>2019-07-07T06:24:21Z</time>
      </trkpt>
      <trkpt lat="40.6039540" lon="-2.6959130">
        <ele>819.0</ele>
        <time>2019-07-07T06:24:22Z</time>
      </trkpt>
      <trkpt lat="40.6038330" lon="-2.6959150">
        <ele>818.0</ele>
        <time>2019-07-07T06:24:23Z</time>
      </trkpt>
      <trkpt lat="40.6035890" lon="-2.6959340">
        <ele>816.4</ele>
        <time>2019-07-07T06:24:25Z</time>
      </trkpt>
      <trkpt lat="40.6033440" lon="-2.6959630">
        <ele>814.8</ele>
        <time>2019-07-07T06:24:27Z</time>
      </trkpt>
      <trkpt lat="40.6031000" lon="-2.6960030">
        <ele>813.4</ele>
        <time>2019-07-07T06:24:29Z</time>
      </trkpt>
      <trkpt lat="40.6028600" lon="-2.6960660">
        <ele>812.2</ele>
        <time>2019-07-07T06:24:31Z</time>
      </trkpt>
      <trkpt lat="40.6027410" lon="-2.6961050">
        <ele>811.4</ele>
        <time>2019-07-07T06:24:32Z</time>
      </trkpt>
      <trkpt lat="40.6026240" lon="-2.6961470">
        <ele>811.0</ele>
        <time>2019-07-07T06:24:33Z</time>
      </trkpt>
      <trkpt lat="40.6023900" lon="-2.6962200">
        <ele>809.8</ele>
        <time>2019-07-07T06:24:35Z</time>
      </trkpt>
      <trkpt lat="40.6021570" lon="-2.6962910">
        <ele>808.4</ele>
        <time>2019-07-07T06:24:37Z</time>
      </trkpt>
      <trkpt lat="40.6020430" lon="-2.6963320">
        <ele>808.2</ele>
        <time>2019-07-07T06:24:38Z</time>
      </trkpt>
      <trkpt lat="40.6019290" lon="-2.6963730">
        <ele>807.4</ele>
        <time>2019-07-07T06:24:39Z</time>
      </trkpt>
      <trkpt lat="40.6017020" lon="-2.6964540">
        <ele>806.4</ele>
        <time>2019-07-07T06:24:41Z</time>
      </trkpt>
      <trkpt lat="40.6014760" lon="-2.6965330">
        <ele>805.2</ele>
        <time>2019-07-07T06:24:43Z</time>
      </trkpt>
      <trkpt lat="40.6011410" lon="-2.6966470">
        <ele>804.0</ele>
        <time>2019-07-07T06:24:46Z</time>
      </trkpt>
      <trkpt lat="40.6009210" lon="-2.6967260">
        <ele>802.8</ele>
        <time>2019-07-07T06:24:48Z</time>
      </trkpt>
      <trkpt lat="40.6007020" lon="-2.6968060">
        <ele>801.8</ele>
        <time>2019-07-07T06:24:50Z</time>
      </trkpt>
      <trkpt lat="40.6003780" lon="-2.6969230">
        <ele>800.4</ele>
        <time>2019-07-07T06:24:53Z</time>
      </trkpt>
      <trkpt lat="40.6001620" lon="-2.6969980">
        <ele>799.0</ele>
        <time>2019-07-07T06:24:55Z</time>
      </trkpt>
      <trkpt lat="40.5999470" lon="-2.6970740">
        <ele>798.0</ele>
        <time>2019-07-07T06:24:57Z</time>
      </trkpt>
      <trkpt lat="40.5998410" lon="-2.6971140">
        <ele>797.6</ele>
        <time>2019-07-07T06:24:58Z</time>
      </trkpt>
      <trkpt lat="40.5996280" lon="-2.6971930">
        <ele>796.4</ele>
        <time>2019-07-07T06:25:00Z</time>
      </trkpt>
      <trkpt lat="40.5994120" lon="-2.6972620">
        <ele>795.4</ele>
        <time>2019-07-07T06:25:02Z</time>
      </trkpt>
      <trkpt lat="40.5990910" lon="-2.6973690">
        <ele>794.4</ele>
        <time>2019-07-07T06:25:05Z</time>
      </trkpt>
      <trkpt lat="40.5989860" lon="-2.6974080">
        <ele>794.0</ele>
        <time>2019-07-07T06:25:06Z</time>
      </trkpt>
      <trkpt lat="40.5988800" lon="-2.6974450">
        <ele>793.4</ele>
        <time>2019-07-07T06:25:07Z</time>
      </trkpt>
      <trkpt lat="40.5986700" lon="-2.6975150">
        <ele>792.0</ele>
        <time>2019-07-07T06:25:09Z</time>
      </trkpt>
      <trkpt lat="40.5983550" lon="-2.6976040">
        <ele>791.0</ele>
        <time>2019-07-07T06:25:12Z</time>
      </trkpt>
      <trkpt lat="40.5981450" lon="-2.6976310">
        <ele>790.0</ele>
        <time>2019-07-07T06:25:14Z</time>
      </trkpt>
      <trkpt lat="40.5980400" lon="-2.6976380">
        <ele>789.6</ele>
        <time>2019-07-07T06:25:15Z</time>
      </trkpt>
      <trkpt lat="40.5976280" lon="-2.6976760">
        <ele>788.4</ele>
        <time>2019-07-07T06:25:19Z</time>
      </trkpt>
      <trkpt lat="40.5974260" lon="-2.6976980">
        <ele>787.2</ele>
        <time>2019-07-07T06:25:21Z</time>
      </trkpt>
      <trkpt lat="40.5973250" lon="-2.6977000">
        <ele>786.8</ele>
        <time>2019-07-07T06:25:22Z</time>
      </trkpt>
      <trkpt lat="40.5970240" lon="-2.6977020">
        <ele>785.8</ele>
        <time>2019-07-07T06:25:25Z</time>
      </trkpt>
      <trkpt lat="40.5966290" lon="-2.6977240">
        <ele>784.6</ele>
        <time>2019-07-07T06:25:29Z</time>
      </trkpt>
      <trkpt lat="40.5964330" lon="-2.6977340">
        <ele>783.8</ele>
        <time>2019-07-07T06:25:31Z</time>
      </trkpt>
      <trkpt lat="40.5963350" lon="-2.6977410">
        <ele>783.2</ele>
        <time>2019-07-07T06:25:32Z</time>
      </trkpt>
      <trkpt lat="40.5960430" lon="-2.6977610">
        <ele>782.4</ele>
        <time>2019-07-07T06:25:35Z</time>
      </trkpt>
      <trkpt lat="40.5959470" lon="-2.6977680">
        <ele>782.0</ele>
        <time>2019-07-07T06:25:36Z</time>
      </trkpt>
      <trkpt lat="40.5956860" lon="-2.6977910">
        <ele>780.8</ele>
        <time>2019-07-07T06:25:39Z</time>
      </trkpt>
      <trkpt lat="40.5955200" lon="-2.6977930">
        <ele>779.8</ele>
        <time>2019-07-07T06:25:42Z</time>
      </trkpt>
      <trkpt lat="40.5954340" lon="-2.6976630">
        <ele>779.2</ele>
        <time>2019-07-07T06:25:45Z</time>
      </trkpt>
      <trkpt lat="40.5954160" lon="-2.6975970">
        <ele>779.0</ele>
        <time>2019-07-07T06:25:46Z</time>
      </trkpt>
      <trkpt lat="40.5953790" lon="-2.6974630">
        <ele>779.0</ele>
        <time>2019-07-07T06:25:48Z</time>
      </trkpt>
      <trkpt lat="40.5953370" lon="-2.6973270">
        <ele>778.8</ele>
        <time>2019-07-07T06:25:50Z</time>
      </trkpt>
      <trkpt lat="40.5953160" lon="-2.6972590">
        <ele>778.8</ele>
        <time>2019-07-07T06:25:51Z</time>
      </trkpt>
      <trkpt lat="40.5952740" lon="-2.6971210">
        <ele>778.8</ele>
        <time>2019-07-07T06:25:53Z</time>
      </trkpt>
      <trkpt lat="40.5952130" lon="-2.6968290">
        <ele>778.6</ele>
        <time>2019-07-07T06:25:57Z</time>
      </trkpt>
      <trkpt lat="40.5951910" lon="-2.6965980">
        <ele>778.2</ele>
        <time>2019-07-07T06:26:00Z</time>
      </trkpt>
      <trkpt lat="40.5952120" lon="-2.6963100">
        <ele>778.0</ele>
        <time>2019-07-07T06:26:04Z</time>
      </trkpt>
      <trkpt lat="40.5952220" lon="-2.6962450">
        <ele>778.2</ele>
        <time>2019-07-07T06:26:05Z</time>
      </trkpt>
      <trkpt lat="40.5952870" lon="-2.6960010">
        <ele>778.8</ele>
        <time>2019-07-07T06:26:09Z</time>
      </trkpt>
      <trkpt lat="40.5953270" lon="-2.6958880">
        <ele>779.0</ele>
        <time>2019-07-07T06:26:11Z</time>
      </trkpt>
      <trkpt lat="40.5953600" lon="-2.6957850">
        <ele>779.6</ele>
        <time>2019-07-07T06:26:13Z</time>
      </trkpt>
      <trkpt lat="40.5953890" lon="-2.6956900">
        <ele>780.2</ele>
        <time>2019-07-07T06:26:15Z</time>
      </trkpt>
      <trkpt lat="40.5954170" lon="-2.6956030">
        <ele>781.0</ele>
        <time>2019-07-07T06:26:17Z</time>
      </trkpt>
      <trkpt lat="40.5954310" lon="-2.6955620">
        <ele>781.2</ele>
        <time>2019-07-07T06:26:18Z</time>
      </trkpt>
      <trkpt lat="40.5954600" lon="-2.6954850">
        <ele>781.8</ele>
        <time>2019-07-07T06:26:20Z</time>
      </trkpt>
      <trkpt lat="40.5954810" lon="-2.6954120">
        <ele>782.4</ele>
        <time>2019-07-07T06:26:22Z</time>
      </trkpt>
      <trkpt lat="40.5954930" lon="-2.6953740">
        <ele>783.0</ele>
        <time>2019-07-07T06:26:23Z</time>
      </trkpt>
      <trkpt lat="40.5955200" lon="-2.6953020">
        <ele>783.8</ele>
        <time>2019-07-07T06:26:25Z</time>
      </trkpt>
      <trkpt lat="40.5955720" lon="-2.6952120">
        <ele>784.6</ele>
        <time>2019-07-07T06:26:28Z</time>
      </trkpt>
      <trkpt lat="40.5955900" lon="-2.6951870">
        <ele>785.0</ele>
        <time>2019-07-07T06:26:29Z</time>
      </trkpt>
      <trkpt lat="40.5956470" lon="-2.6951070">
        <ele>786.0</ele>
        <time>2019-07-07T06:26:32Z</time>
      </trkpt>
      <trkpt lat="40.5956690" lon="-2.6950800">
        <ele>786.2</ele>
        <time>2019-07-07T06:26:33Z</time>
      </trkpt>
      <trkpt lat="40.5957570" lon="-2.6949740">
        <ele>787.2</ele>
        <time>2019-07-07T06:26:37Z</time>
      </trkpt>
      <trkpt lat="40.5957820" lon="-2.6949480">
        <ele>787.4</ele>
        <time>2019-07-07T06:26:38Z</time>
      </trkpt>
      <trkpt lat="40.5958880" lon="-2.6948110">
        <ele>788.2</ele>
        <time>2019-07-07T06:26:43Z</time>
      </trkpt>
      <trkpt lat="40.5959110" lon="-2.6947840">
        <ele>788.4</ele>
        <time>2019-07-07T06:26:44Z</time>
      </trkpt>
      <trkpt lat="40.5959370" lon="-2.6947600">
        <ele>788.6</ele>
        <time>2019-07-07T06:26:45Z</time>
      </trkpt>
      <trkpt lat="40.5961650" lon="-2.6944990">
        <ele>789.4</ele>
        <time>2019-07-07T06:26:54Z</time>
      </trkpt>
      <trkpt lat="40.5962550" lon="-2.6943610">
        <ele>789.4</ele>
        <time>2019-07-07T06:26:58Z</time>
      </trkpt>
      <trkpt lat="40.5963290" lon="-2.6942100">
        <ele>789.8</ele>
        <time>2019-07-07T06:27:02Z</time>
      </trkpt>
      <trkpt lat="40.5964070" lon="-2.6939960">
        <ele>790.6</ele>
        <time>2019-07-07T06:27:07Z</time>
      </trkpt>
      <trkpt lat="40.5964760" lon="-2.6938240">
        <ele>791.0</ele>
        <time>2019-07-07T06:27:11Z</time>
      </trkpt>
      <trkpt lat="40.5965340" lon="-2.6936500">
        <ele>791.2</ele>
        <time>2019-07-07T06:27:15Z</time>
      </trkpt>
      <trkpt lat="40.5965840" lon="-2.6935280">
        <ele>791.6</ele>
        <time>2019-07-07T06:27:18Z</time>
      </trkpt>
      <trkpt lat="40.5966420" lon="-2.6933120">
        <ele>792.8</ele>
        <time>2019-07-07T06:27:23Z</time>
      </trkpt>
      <trkpt lat="40.5966620" lon="-2.6932280">
        <ele>793.0</ele>
        <time>2019-07-07T06:27:25Z</time>
      </trkpt>
      <trkpt lat="40.5967290" lon="-2.6930350">
        <ele>794.0</ele>
        <time>2019-07-07T06:27:30Z</time>
      </trkpt>
      <trkpt lat="40.5968030" lon="-2.6928000">
        <ele>794.8</ele>
        <time>2019-07-07T06:27:36Z</time>
      </trkpt>
      <trkpt lat="40.5968530" lon="-2.6926050">
        <ele>795.0</ele>
        <time>2019-07-07T06:27:41Z</time>
      </trkpt>
      <trkpt lat="40.5968630" lon="-2.6925630">
        <ele>795.0</ele>
        <time>2019-07-07T06:27:42Z</time>
      </trkpt>
      <trkpt lat="40.5969030" lon="-2.6923470">
        <ele>795.4</ele>
        <time>2019-07-07T06:27:47Z</time>
      </trkpt>
      <trkpt lat="40.5969360" lon="-2.6922150">
        <ele>795.6</ele>
        <time>2019-07-07T06:27:50Z</time>
      </trkpt>
      <trkpt lat="40.5969450" lon="-2.6921680">
        <ele>795.8</ele>
        <time>2019-07-07T06:27:51Z</time>
      </trkpt>
      <trkpt lat="40.5970100" lon="-2.6918900">
        <ele>796.0</ele>
        <time>2019-07-07T06:27:57Z</time>
      </trkpt>
      <trkpt lat="40.5970190" lon="-2.6918400">
        <ele>796.0</ele>
        <time>2019-07-07T06:27:58Z</time>
      </trkpt>
      <trkpt lat="40.5970650" lon="-2.6916440">
        <ele>796.0</ele>
        <time>2019-07-07T06:28:02Z</time>
      </trkpt>
      <trkpt lat="40.5970800" lon="-2.6915960">
        <ele>796.0</ele>
        <time>2019-07-07T06:28:03Z</time>
      </trkpt>
      <trkpt lat="40.5971070" lon="-2.6915010">
        <ele>796.2</ele>
        <time>2019-07-07T06:28:05Z</time>
      </trkpt>
      <trkpt lat="40.5971520" lon="-2.6913610">
        <ele>796.4</ele>
        <time>2019-07-07T06:28:08Z</time>
      </trkpt>
      <trkpt lat="40.5971700" lon="-2.6912670">
        <ele>796.4</ele>
        <time>2019-07-07T06:28:10Z</time>
      </trkpt>
      <trkpt lat="40.5972160" lon="-2.6910790">
        <ele>796.6</ele>
        <time>2019-07-07T06:28:15Z</time>
      </trkpt>
      <trkpt lat="40.5972180" lon="-2.6910490">
        <ele>796.6</ele>
        <time>2019-07-07T06:28:16Z</time>
      </trkpt>
      <trkpt lat="40.5972260" lon="-2.6909900">
        <ele>796.8</ele>
        <time>2019-07-07T06:28:18Z</time>
      </trkpt>
      <trkpt lat="40.5972230" lon="-2.6909590">
        <ele>796.8</ele>
        <time>2019-07-07T06:28:19Z</time>
      </trkpt>
      <trkpt lat="40.5972290" lon="-2.6909240">
        <ele>797.0</ele>
        <time>2019-07-07T06:28:21Z</time>
      </trkpt>
      <trkpt lat="40.5972310" lon="-2.6909200">
        <ele>797.0</ele>
        <time>2019-07-07T06:28:22Z</time>
      </trkpt>
      <trkpt lat="40.5972310" lon="-2.6909190">
        <ele>797.0</ele>
        <time>2019-07-07T06:28:24Z</time>
      </trkpt>
      <trkpt lat="40.5971820" lon="-2.6909760">
        <ele>797.0</ele>
        <time>2019-07-07T06:28:41Z</time>
      </trkpt>
      <trkpt lat="40.5971600" lon="-2.6909740">
        <ele>797.0</ele>
        <time>2019-07-07T06:28:42Z</time>
      </trkpt>
      <trkpt lat="40.5970930" lon="-2.6909090">
        <ele>796.8</ele>
        <time>2019-07-07T06:28:46Z</time>
      </trkpt>
      <trkpt lat="40.5969290" lon="-2.6908400">
        <ele>796.4</ele>
        <time>2019-07-07T06:28:51Z</time>
      </trkpt>
      <trkpt lat="40.5968380" lon="-2.6908110">
        <ele>796.2</ele>
        <time>2019-07-07T06:28:53Z</time>
      </trkpt>
      <trkpt lat="40.5966450" lon="-2.6907530">
        <ele>796.0</ele>
        <time>2019-07-07T06:28:57Z</time>
      </trkpt>
      <trkpt lat="40.5964110" lon="-2.6906750">
        <ele>796.6</ele>
        <time>2019-07-07T06:29:02Z</time>
      </trkpt>
      <trkpt lat="40.5963720" lon="-2.6906590">
        <ele>796.6</ele>
        <time>2019-07-07T06:29:03Z</time>
      </trkpt>
      <trkpt lat="40.5961770" lon="-2.6906120">
        <ele>797.4</ele>
        <time>2019-07-07T06:29:09Z</time>
      </trkpt>
      <trkpt lat="40.5960630" lon="-2.6907190">
        <ele>797.2</ele>
        <time>2019-07-07T06:29:13Z</time>
      </trkpt>
      <trkpt lat="40.5959080" lon="-2.6909410">
        <ele>796.6</ele>
        <time>2019-07-07T06:29:19Z</time>
      </trkpt>
      <trkpt lat="40.5957600" lon="-2.6911590">
        <ele>796.6</ele>
        <time>2019-07-07T06:29:24Z</time>
      </trkpt>
      <trkpt lat="40.5957010" lon="-2.6912270">
        <ele>796.8</ele>
        <time>2019-07-07T06:29:26Z</time>
      </trkpt>
      <trkpt lat="40.5955600" lon="-2.6913380">
        <ele>797.0</ele>
        <time>2019-07-07T06:29:30Z</time>
      </trkpt>
      <trkpt lat="40.5954850" lon="-2.6913790">
        <ele>797.2</ele>
        <time>2019-07-07T06:29:32Z</time>
      </trkpt>
      <trkpt lat="40.5954100" lon="-2.6914250">
        <ele>797.2</ele>
        <time>2019-07-07T06:29:34Z</time>
      </trkpt>
      <trkpt lat="40.5953040" lon="-2.6915340">
        <ele>797.0</ele>
        <time>2019-07-07T06:29:37Z</time>
      </trkpt>
      <trkpt lat="40.5951950" lon="-2.6916850">
        <ele>796.6</ele>
        <time>2019-07-07T06:29:40Z</time>
      </trkpt>
      <trkpt lat="40.5951460" lon="-2.6918300">
        <ele>796.2</ele>
        <time>2019-07-07T06:29:42Z</time>
      </trkpt>
      <trkpt lat="40.5951130" lon="-2.6920050">
        <ele>795.2</ele>
        <time>2019-07-07T06:29:44Z</time>
      </trkpt>
      <trkpt lat="40.5950530" lon="-2.6923110">
        <ele>794.0</ele>
        <time>2019-07-07T06:29:47Z</time>
      </trkpt>
      <trkpt lat="40.5949970" lon="-2.6925340">
        <ele>792.8</ele>
        <time>2019-07-07T06:29:49Z</time>
      </trkpt>
      <trkpt lat="40.5949140" lon="-2.6927620">
        <ele>791.6</ele>
        <time>2019-07-07T06:29:51Z</time>
      </trkpt>
      <trkpt lat="40.5948110" lon="-2.6929890">
        <ele>790.2</ele>
        <time>2019-07-07T06:29:53Z</time>
      </trkpt>
      <trkpt lat="40.5947110" lon="-2.6932190">
        <ele>789.2</ele>
        <time>2019-07-07T06:29:55Z</time>
      </trkpt>
      <trkpt lat="40.5946040" lon="-2.6934490">
        <ele>788.2</ele>
        <time>2019-07-07T06:29:57Z</time>
      </trkpt>
      <trkpt lat="40.5944370" lon="-2.6937960">
        <ele>786.6</ele>
        <time>2019-07-07T06:30:00Z</time>
      </trkpt>
      <trkpt lat="40.5942700" lon="-2.6941600">
        <ele>785.2</ele>
        <time>2019-07-07T06:30:03Z</time>
      </trkpt>
      <trkpt lat="40.5941620" lon="-2.6944050">
        <ele>784.0</ele>
        <time>2019-07-07T06:30:05Z</time>
      </trkpt>
      <trkpt lat="40.5941060" lon="-2.6945260">
        <ele>783.6</ele>
        <time>2019-07-07T06:30:06Z</time>
      </trkpt>
      <trkpt lat="40.5939820" lon="-2.6947490">
        <ele>782.4</ele>
        <time>2019-07-07T06:30:08Z</time>
      </trkpt>
      <trkpt lat="40.5938400" lon="-2.6949310">
        <ele>782.0</ele>
        <time>2019-07-07T06:30:10Z</time>
      </trkpt>
      <trkpt lat="40.5935700" lon="-2.6952170">
        <ele>781.8</ele>
        <time>2019-07-07T06:30:14Z</time>
      </trkpt>
      <trkpt lat="40.5934660" lon="-2.6953620">
        <ele>782.2</ele>
        <time>2019-07-07T06:30:16Z</time>
      </trkpt>
      <trkpt lat="40.5933980" lon="-2.6955310">
        <ele>782.4</ele>
        <time>2019-07-07T06:30:18Z</time>
      </trkpt>
      <trkpt lat="40.5932640" lon="-2.6960010">
        <ele>781.8</ele>
        <time>2019-07-07T06:30:23Z</time>
      </trkpt>
      <trkpt lat="40.5931430" lon="-2.6961410">
        <ele>781.0</ele>
        <time>2019-07-07T06:30:25Z</time>
      </trkpt>
      <trkpt lat="40.5930680" lon="-2.6961890">
        <ele>780.4</ele>
        <time>2019-07-07T06:30:26Z</time>
      </trkpt>
      <trkpt lat="40.5929900" lon="-2.6962340">
        <ele>780.0</ele>
        <time>2019-07-07T06:30:27Z</time>
      </trkpt>
      <trkpt lat="40.5927420" lon="-2.6963560">
        <ele>778.8</ele>
        <time>2019-07-07T06:30:30Z</time>
      </trkpt>
      <trkpt lat="40.5926580" lon="-2.6963990">
        <ele>778.6</ele>
        <time>2019-07-07T06:30:31Z</time>
      </trkpt>
      <trkpt lat="40.5925750" lon="-2.6964460">
        <ele>778.2</ele>
        <time>2019-07-07T06:30:32Z</time>
      </trkpt>
      <trkpt lat="40.5924130" lon="-2.6965600">
        <ele>777.6</ele>
        <time>2019-07-07T06:30:34Z</time>
      </trkpt>
      <trkpt lat="40.5922730" lon="-2.6967240">
        <ele>776.8</ele>
        <time>2019-07-07T06:30:36Z</time>
      </trkpt>
      <trkpt lat="40.5922050" lon="-2.6968160">
        <ele>776.4</ele>
        <time>2019-07-07T06:30:37Z</time>
      </trkpt>
      <trkpt lat="40.5920570" lon="-2.6969860">
        <ele>775.6</ele>
        <time>2019-07-07T06:30:39Z</time>
      </trkpt>
      <trkpt lat="40.5919740" lon="-2.6970600">
        <ele>774.6</ele>
        <time>2019-07-07T06:30:40Z</time>
      </trkpt>
      <trkpt lat="40.5918880" lon="-2.6971280">
        <ele>774.0</ele>
        <time>2019-07-07T06:30:41Z</time>
      </trkpt>
      <trkpt lat="40.5917140" lon="-2.6972640">
        <ele>773.2</ele>
        <time>2019-07-07T06:30:43Z</time>
      </trkpt>
      <trkpt lat="40.5914590" lon="-2.6974520">
        <ele>772.0</ele>
        <time>2019-07-07T06:30:46Z</time>
      </trkpt>
      <trkpt lat="40.5912090" lon="-2.6976340">
        <ele>771.0</ele>
        <time>2019-07-07T06:30:49Z</time>
      </trkpt>
      <trkpt lat="40.5907590" lon="-2.6980410">
        <ele>769.8</ele>
        <time>2019-07-07T06:30:55Z</time>
      </trkpt>
      <trkpt lat="40.5906210" lon="-2.6981800">
        <ele>769.4</ele>
        <time>2019-07-07T06:30:57Z</time>
      </trkpt>
      <trkpt lat="40.5904940" lon="-2.6983270">
        <ele>769.2</ele>
        <time>2019-07-07T06:30:59Z</time>
      </trkpt>
      <trkpt lat="40.5903650" lon="-2.6984720">
        <ele>769.0</ele>
        <time>2019-07-07T06:31:01Z</time>
      </trkpt>
      <trkpt lat="40.5903010" lon="-2.6985440">
        <ele>768.8</ele>
        <time>2019-07-07T06:31:02Z</time>
      </trkpt>
      <trkpt lat="40.5898820" lon="-2.6990450">
        <ele>768.2</ele>
        <time>2019-07-07T06:31:09Z</time>
      </trkpt>
      <trkpt lat="40.5897310" lon="-2.6992740">
        <ele>768.0</ele>
        <time>2019-07-07T06:31:12Z</time>
      </trkpt>
      <trkpt lat="40.5895940" lon="-2.6995190">
        <ele>768.0</ele>
        <time>2019-07-07T06:31:15Z</time>
      </trkpt>
      <trkpt lat="40.5894300" lon="-2.6998560">
        <ele>767.8</ele>
        <time>2019-07-07T06:31:19Z</time>
      </trkpt>
      <trkpt lat="40.5892690" lon="-2.7002080">
        <ele>767.0</ele>
        <time>2019-07-07T06:31:23Z</time>
      </trkpt>
      <trkpt lat="40.5891860" lon="-2.7003950">
        <ele>766.8</ele>
        <time>2019-07-07T06:31:25Z</time>
      </trkpt>
      <trkpt lat="40.5889850" lon="-2.7007640">
        <ele>765.6</ele>
        <time>2019-07-07T06:31:29Z</time>
      </trkpt>
      <trkpt lat="40.5887320" lon="-2.7011000">
        <ele>764.2</ele>
        <time>2019-07-07T06:31:33Z</time>
      </trkpt>
      <trkpt lat="40.5885910" lon="-2.7012560">
        <ele>763.4</ele>
        <time>2019-07-07T06:31:35Z</time>
      </trkpt>
      <trkpt lat="40.5885190" lon="-2.7013290">
        <ele>763.0</ele>
        <time>2019-07-07T06:31:36Z</time>
      </trkpt>
      <trkpt lat="40.5882160" lon="-2.7016010">
        <ele>761.8</ele>
        <time>2019-07-07T06:31:40Z</time>
      </trkpt>
      <trkpt lat="40.5880670" lon="-2.7017360">
        <ele>761.4</ele>
        <time>2019-07-07T06:31:42Z</time>
      </trkpt>
      <trkpt lat="40.5879190" lon="-2.7018690">
        <ele>760.8</ele>
        <time>2019-07-07T06:31:44Z</time>
      </trkpt>
      <trkpt lat="40.5877760" lon="-2.7020000">
        <ele>760.2</ele>
        <time>2019-07-07T06:31:46Z</time>
      </trkpt>
      <trkpt lat="40.5876330" lon="-2.7021310">
        <ele>759.6</ele>
        <time>2019-07-07T06:31:48Z</time>
      </trkpt>
      <trkpt lat="40.5873580" lon="-2.7023970">
        <ele>758.8</ele>
        <time>2019-07-07T06:31:52Z</time>
      </trkpt>
      <trkpt lat="40.5872900" lon="-2.7024650">
        <ele>758.6</ele>
        <time>2019-07-07T06:31:53Z</time>
      </trkpt>
      <trkpt lat="40.5869570" lon="-2.7027950">
        <ele>757.4</ele>
        <time>2019-07-07T06:31:58Z</time>
      </trkpt>
      <trkpt lat="40.5868880" lon="-2.7028610">
        <ele>757.2</ele>
        <time>2019-07-07T06:31:59Z</time>
      </trkpt>
      <trkpt lat="40.5866830" lon="-2.7030630">
        <ele>756.6</ele>
        <time>2019-07-07T06:32:02Z</time>
      </trkpt>
      <trkpt lat="40.5865480" lon="-2.7031980">
        <ele>756.2</ele>
        <time>2019-07-07T06:32:04Z</time>
      </trkpt>
      <trkpt lat="40.5863440" lon="-2.7033990">
        <ele>755.6</ele>
        <time>2019-07-07T06:32:07Z</time>
      </trkpt>
      <trkpt lat="40.5862090" lon="-2.7035320">
        <ele>755.2</ele>
        <time>2019-07-07T06:32:09Z</time>
      </trkpt>
      <trkpt lat="40.5858800" lon="-2.7038620">
        <ele>754.2</ele>
        <time>2019-07-07T06:32:14Z</time>
      </trkpt>
      <trkpt lat="40.5857050" lon="-2.7040550">
        <ele>754.0</ele>
        <time>2019-07-07T06:32:17Z</time>
      </trkpt>
      <trkpt lat="40.5854430" lon="-2.7043370">
        <ele>754.6</ele>
        <time>2019-07-07T06:32:22Z</time>
      </trkpt>
      <trkpt lat="40.5853450" lon="-2.7044450">
        <ele>755.0</ele>
        <time>2019-07-07T06:32:24Z</time>
      </trkpt>
      <trkpt lat="40.5852560" lon="-2.7045500">
        <ele>755.2</ele>
        <time>2019-07-07T06:32:26Z</time>
      </trkpt>
      <trkpt lat="40.5852170" lon="-2.7046040">
        <ele>755.4</ele>
        <time>2019-07-07T06:32:27Z</time>
      </trkpt>
      <trkpt lat="40.5851210" lon="-2.7047620">
        <ele>755.6</ele>
        <time>2019-07-07T06:32:30Z</time>
      </trkpt>
      <trkpt lat="40.5850570" lon="-2.7049190">
        <ele>756.4</ele>
        <time>2019-07-07T06:32:33Z</time>
      </trkpt>
      <trkpt lat="40.5850450" lon="-2.7049710">
        <ele>756.6</ele>
        <time>2019-07-07T06:32:34Z</time>
      </trkpt>
      <trkpt lat="40.5850390" lon="-2.7050240">
        <ele>756.8</ele>
        <time>2019-07-07T06:32:35Z</time>
      </trkpt>
      <trkpt lat="40.5850410" lon="-2.7051290">
        <ele>757.6</ele>
        <time>2019-07-07T06:32:37Z</time>
      </trkpt>
      <trkpt lat="40.5850470" lon="-2.7051770">
        <ele>757.8</ele>
        <time>2019-07-07T06:32:38Z</time>
      </trkpt>
      <trkpt lat="40.5850570" lon="-2.7052230">
        <ele>758.0</ele>
        <time>2019-07-07T06:32:39Z</time>
      </trkpt>
      <trkpt lat="40.5850700" lon="-2.7052690">
        <ele>758.2</ele>
        <time>2019-07-07T06:32:40Z</time>
      </trkpt>
      <trkpt lat="40.5850990" lon="-2.7053540">
        <ele>758.8</ele>
        <time>2019-07-07T06:32:42Z</time>
      </trkpt>
      <trkpt lat="40.5851150" lon="-2.7053940">
        <ele>759.0</ele>
        <time>2019-07-07T06:32:43Z</time>
      </trkpt>
      <trkpt lat="40.5851530" lon="-2.7054740">
        <ele>759.6</ele>
        <time>2019-07-07T06:32:45Z</time>
      </trkpt>
      <trkpt lat="40.5851720" lon="-2.7055170">
        <ele>759.8</ele>
        <time>2019-07-07T06:32:46Z</time>
      </trkpt>
      <trkpt lat="40.5851970" lon="-2.7055600">
        <ele>760.0</ele>
        <time>2019-07-07T06:32:47Z</time>
      </trkpt>
      <trkpt lat="40.5852450" lon="-2.7056530">
        <ele>760.2</ele>
        <time>2019-07-07T06:32:49Z</time>
      </trkpt>
      <trkpt lat="40.5853180" lon="-2.7058130">
        <ele>760.0</ele>
        <time>2019-07-07T06:32:52Z</time>
      </trkpt>
      <trkpt lat="40.5853450" lon="-2.7058700">
        <ele>759.8</ele>
        <time>2019-07-07T06:32:53Z</time>
      </trkpt>
      <trkpt lat="40.5854430" lon="-2.7061330">
        <ele>759.0</ele>
        <time>2019-07-07T06:32:57Z</time>
      </trkpt>
      <trkpt lat="40.5854870" lon="-2.7062840">
        <ele>758.6</ele>
        <time>2019-07-07T06:32:59Z</time>
      </trkpt>
      <trkpt lat="40.5855560" lon="-2.7066110">
        <ele>757.8</ele>
        <time>2019-07-07T06:33:03Z</time>
      </trkpt>
      <trkpt lat="40.5855810" lon="-2.7067800">
        <ele>757.4</ele>
        <time>2019-07-07T06:33:05Z</time>
      </trkpt>
      <trkpt lat="40.5855910" lon="-2.7068650">
        <ele>757.0</ele>
        <time>2019-07-07T06:33:06Z</time>
      </trkpt>
      <trkpt lat="40.5855990" lon="-2.7069510">
        <ele>756.8</ele>
        <time>2019-07-07T06:33:07Z</time>
      </trkpt>
      <trkpt lat="40.5856070" lon="-2.7070360">
        <ele>756.6</ele>
        <time>2019-07-07T06:33:08Z</time>
      </trkpt>
      <trkpt lat="40.5856170" lon="-2.7072040">
        <ele>756.4</ele>
        <time>2019-07-07T06:33:10Z</time>
      </trkpt>
      <trkpt lat="40.5856310" lon="-2.7073700">
        <ele>756.2</ele>
        <time>2019-07-07T06:33:12Z</time>
      </trkpt>
      <trkpt lat="40.5856370" lon="-2.7074520">
        <ele>756.0</ele>
        <time>2019-07-07T06:33:13Z</time>
      </trkpt>
      <trkpt lat="40.5856630" lon="-2.7076980">
        <ele>755.8</ele>
        <time>2019-07-07T06:33:16Z</time>
      </trkpt>
      <trkpt lat="40.5857010" lon="-2.7079470">
        <ele>755.6</ele>
        <time>2019-07-07T06:33:19Z</time>
      </trkpt>
      <trkpt lat="40.5857180" lon="-2.7080330">
        <ele>755.2</ele>
        <time>2019-07-07T06:33:20Z</time>
      </trkpt>
      <trkpt lat="40.5857410" lon="-2.7081200">
        <ele>755.2</ele>
        <time>2019-07-07T06:33:21Z</time>
      </trkpt>
      <trkpt lat="40.5858010" lon="-2.7083010">
        <ele>754.6</ele>
        <time>2019-07-07T06:33:23Z</time>
      </trkpt>
      <trkpt lat="40.5858770" lon="-2.7084890">
        <ele>754.0</ele>
        <time>2019-07-07T06:33:25Z</time>
      </trkpt>
      <trkpt lat="40.5859720" lon="-2.7086820">
        <ele>753.2</ele>
        <time>2019-07-07T06:33:27Z</time>
      </trkpt>
      <trkpt lat="40.5861250" lon="-2.7089790">
        <ele>751.8</ele>
        <time>2019-07-07T06:33:30Z</time>
      </trkpt>
      <trkpt lat="40.5861780" lon="-2.7090770">
        <ele>751.2</ele>
        <time>2019-07-07T06:33:31Z</time>
      </trkpt>
      <trkpt lat="40.5862760" lon="-2.7092660">
        <ele>750.6</ele>
        <time>2019-07-07T06:33:33Z</time>
      </trkpt>
      <trkpt lat="40.5864480" lon="-2.7095970">
        <ele>750.8</ele>
        <time>2019-07-07T06:33:37Z</time>
      </trkpt>
      <trkpt lat="40.5864860" lon="-2.7096680">
        <ele>751.0</ele>
        <time>2019-07-07T06:33:38Z</time>
      </trkpt>
      <trkpt lat="40.5865570" lon="-2.7097950">
        <ele>751.8</ele>
        <time>2019-07-07T06:33:40Z</time>
      </trkpt>
      <trkpt lat="40.5866190" lon="-2.7099080">
        <ele>752.4</ele>
        <time>2019-07-07T06:33:42Z</time>
      </trkpt>
      <trkpt lat="40.5866480" lon="-2.7099610">
        <ele>752.8</ele>
        <time>2019-07-07T06:33:43Z</time>
      </trkpt>
      <trkpt lat="40.5867560" lon="-2.7101650">
        <ele>754.0</ele>
        <time>2019-07-07T06:33:47Z</time>
      </trkpt>
      <trkpt lat="40.5868300" lon="-2.7103070">
        <ele>754.8</ele>
        <time>2019-07-07T06:33:50Z</time>
      </trkpt>
      <trkpt lat="40.5868560" lon="-2.7103520">
        <ele>755.0</ele>
        <time>2019-07-07T06:33:51Z</time>
      </trkpt>
      <trkpt lat="40.5869130" lon="-2.7104350">
        <ele>755.4</ele>
        <time>2019-07-07T06:33:53Z</time>
      </trkpt>
      <trkpt lat="40.5869790" lon="-2.7105110">
        <ele>755.8</ele>
        <time>2019-07-07T06:33:55Z</time>
      </trkpt>
      <trkpt lat="40.5870140" lon="-2.7105450">
        <ele>756.2</ele>
        <time>2019-07-07T06:33:56Z</time>
      </trkpt>
      <trkpt lat="40.5871230" lon="-2.7106470">
        <ele>756.6</ele>
        <time>2019-07-07T06:33:59Z</time>
      </trkpt>
      <trkpt lat="40.5872040" lon="-2.7107080">
        <ele>756.6</ele>
        <time>2019-07-07T06:34:01Z</time>
      </trkpt>
      <trkpt lat="40.5872980" lon="-2.7107590">
        <ele>756.6</ele>
        <time>2019-07-07T06:34:03Z</time>
      </trkpt>
      <trkpt lat="40.5876700" lon="-2.7109750">
        <ele>755.8</ele>
        <time>2019-07-07T06:34:10Z</time>
      </trkpt>
      <trkpt lat="40.5877820" lon="-2.7110420">
        <ele>755.2</ele>
        <time>2019-07-07T06:34:12Z</time>
      </trkpt>
      <trkpt lat="40.5879530" lon="-2.7111410">
        <ele>754.8</ele>
        <time>2019-07-07T06:34:15Z</time>
      </trkpt>
      <trkpt lat="40.5881290" lon="-2.7112370">
        <ele>754.2</ele>
        <time>2019-07-07T06:34:18Z</time>
      </trkpt>
      <trkpt lat="40.5881870" lon="-2.7112710">
        <ele>753.8</ele>
        <time>2019-07-07T06:34:19Z</time>
      </trkpt>
      <trkpt lat="40.5882450" lon="-2.7113080">
        <ele>753.8</ele>
        <time>2019-07-07T06:34:20Z</time>
      </trkpt>
      <trkpt lat="40.5883030" lon="-2.7113450">
        <ele>753.6</ele>
        <time>2019-07-07T06:34:21Z</time>
      </trkpt>
      <trkpt lat="40.5884220" lon="-2.7114130">
        <ele>753.4</ele>
        <time>2019-07-07T06:34:23Z</time>
      </trkpt>
      <trkpt lat="40.5885420" lon="-2.7114750">
        <ele>753.0</ele>
        <time>2019-07-07T06:34:25Z</time>
      </trkpt>
      <trkpt lat="40.5887200" lon="-2.7115750">
        <ele>752.4</ele>
        <time>2019-07-07T06:34:28Z</time>
      </trkpt>
      <trkpt lat="40.5889000" lon="-2.7116840">
        <ele>752.0</ele>
        <time>2019-07-07T06:34:31Z</time>
      </trkpt>
      <trkpt lat="40.5889600" lon="-2.7117260">
        <ele>751.8</ele>
        <time>2019-07-07T06:34:32Z</time>
      </trkpt>
      <trkpt lat="40.5891450" lon="-2.7118580">
        <ele>751.2</ele>
        <time>2019-07-07T06:34:35Z</time>
      </trkpt>
      <trkpt lat="40.5892750" lon="-2.7119540">
        <ele>750.6</ele>
        <time>2019-07-07T06:34:37Z</time>
      </trkpt>
      <trkpt lat="40.5894770" lon="-2.7121010">
        <ele>749.8</ele>
        <time>2019-07-07T06:34:40Z</time>
      </trkpt>
      <trkpt lat="40.5895440" lon="-2.7121530">
        <ele>749.6</ele>
        <time>2019-07-07T06:34:41Z</time>
      </trkpt>
      <trkpt lat="40.5896770" lon="-2.7122570">
        <ele>749.2</ele>
        <time>2019-07-07T06:34:43Z</time>
      </trkpt>
      <trkpt lat="40.5899360" lon="-2.7124440">
        <ele>748.4</ele>
        <time>2019-07-07T06:34:47Z</time>
      </trkpt>
      <trkpt lat="40.5900590" lon="-2.7125290">
        <ele>748.4</ele>
        <time>2019-07-07T06:34:49Z</time>
      </trkpt>
      <trkpt lat="40.5901800" lon="-2.7126150">
        <ele>748.4</ele>
        <time>2019-07-07T06:34:51Z</time>
      </trkpt>
      <trkpt lat="40.5902980" lon="-2.7126970">
        <ele>748.4</ele>
        <time>2019-07-07T06:34:53Z</time>
      </trkpt>
      <trkpt lat="40.5906460" lon="-2.7129050">
        <ele>748.4</ele>
        <time>2019-07-07T06:34:59Z</time>
      </trkpt>
      <trkpt lat="40.5908770" lon="-2.7129940">
        <ele>748.6</ele>
        <time>2019-07-07T06:35:03Z</time>
      </trkpt>
      <trkpt lat="40.5910550" lon="-2.7130430">
        <ele>748.4</ele>
        <time>2019-07-07T06:35:06Z</time>
      </trkpt>
      <trkpt lat="40.5914340" lon="-2.7131490">
        <ele>747.6</ele>
        <time>2019-07-07T06:35:12Z</time>
      </trkpt>
      <trkpt lat="40.5915640" lon="-2.7131780">
        <ele>747.4</ele>
        <time>2019-07-07T06:35:14Z</time>
      </trkpt>
      <trkpt lat="40.5916300" lon="-2.7131900">
        <ele>747.4</ele>
        <time>2019-07-07T06:35:15Z</time>
      </trkpt>
      <trkpt lat="40.5921880" lon="-2.7132930">
        <ele>746.4</ele>
        <time>2019-07-07T06:35:23Z</time>
      </trkpt>
      <trkpt lat="40.5924160" lon="-2.7133290">
        <ele>745.6</ele>
        <time>2019-07-07T06:35:26Z</time>
      </trkpt>
      <trkpt lat="40.5924930" lon="-2.7133430">
        <ele>745.2</ele>
        <time>2019-07-07T06:35:27Z</time>
      </trkpt>
      <trkpt lat="40.5927280" lon="-2.7133810">
        <ele>744.2</ele>
        <time>2019-07-07T06:35:30Z</time>
      </trkpt>
      <trkpt lat="40.5928900" lon="-2.7133940">
        <ele>743.6</ele>
        <time>2019-07-07T06:35:32Z</time>
      </trkpt>
      <trkpt lat="40.5930540" lon="-2.7133850">
        <ele>743.0</ele>
        <time>2019-07-07T06:35:34Z</time>
      </trkpt>
      <trkpt lat="40.5933030" lon="-2.7133550">
        <ele>741.6</ele>
        <time>2019-07-07T06:35:37Z</time>
      </trkpt>
      <trkpt lat="40.5933870" lon="-2.7133460">
        <ele>741.2</ele>
        <time>2019-07-07T06:35:38Z</time>
      </trkpt>
      <trkpt lat="40.5935590" lon="-2.7133320">
        <ele>740.4</ele>
        <time>2019-07-07T06:35:40Z</time>
      </trkpt>
      <trkpt lat="40.5938220" lon="-2.7133410">
        <ele>739.2</ele>
        <time>2019-07-07T06:35:43Z</time>
      </trkpt>
      <trkpt lat="40.5939080" lon="-2.7133490">
        <ele>738.6</ele>
        <time>2019-07-07T06:35:44Z</time>
      </trkpt>
      <trkpt lat="40.5941560" lon="-2.7133670">
        <ele>738.0</ele>
        <time>2019-07-07T06:35:47Z</time>
      </trkpt>
      <trkpt lat="40.5943160" lon="-2.7133740">
        <ele>737.6</ele>
        <time>2019-07-07T06:35:49Z</time>
      </trkpt>
      <trkpt lat="40.5944740" lon="-2.7133870">
        <ele>737.6</ele>
        <time>2019-07-07T06:35:51Z</time>
      </trkpt>
      <trkpt lat="40.5945520" lon="-2.7133940">
        <ele>737.4</ele>
        <time>2019-07-07T06:35:52Z</time>
      </trkpt>
      <trkpt lat="40.5951390" lon="-2.7134520">
        <ele>737.0</ele>
        <time>2019-07-07T06:36:00Z</time>
      </trkpt>
      <trkpt lat="40.5952090" lon="-2.7134570">
        <ele>737.0</ele>
        <time>2019-07-07T06:36:01Z</time>
      </trkpt>
      <trkpt lat="40.5954120" lon="-2.7134790">
        <ele>736.8</ele>
        <time>2019-07-07T06:36:04Z</time>
      </trkpt>
      <trkpt lat="40.5956130" lon="-2.7135000">
        <ele>736.8</ele>
        <time>2019-07-07T06:36:07Z</time>
      </trkpt>
      <trkpt lat="40.5958720" lon="-2.7135390">
        <ele>737.2</ele>
        <time>2019-07-07T06:36:11Z</time>
      </trkpt>
      <trkpt lat="40.5961130" lon="-2.7136340">
        <ele>737.4</ele>
        <time>2019-07-07T06:36:15Z</time>
      </trkpt>
      <trkpt lat="40.5961670" lon="-2.7136730">
        <ele>737.4</ele>
        <time>2019-07-07T06:36:16Z</time>
      </trkpt>
      <trkpt lat="40.5963460" lon="-2.7139000">
        <ele>737.2</ele>
        <time>2019-07-07T06:36:20Z</time>
      </trkpt>
      <trkpt lat="40.5965410" lon="-2.7142330">
        <ele>737.0</ele>
        <time>2019-07-07T06:36:25Z</time>
      </trkpt>
      <trkpt lat="40.5966810" lon="-2.7143960">
        <ele>737.0</ele>
        <time>2019-07-07T06:36:28Z</time>
      </trkpt>
      <trkpt lat="40.5968350" lon="-2.7145310">
        <ele>737.0</ele>
        <time>2019-07-07T06:36:31Z</time>
      </trkpt>
      <trkpt lat="40.5970480" lon="-2.7146980">
        <ele>737.2</ele>
        <time>2019-07-07T06:36:35Z</time>
      </trkpt>
      <trkpt lat="40.5974900" lon="-2.7150160">
        <ele>737.0</ele>
        <time>2019-07-07T06:36:43Z</time>
      </trkpt>
      <trkpt lat="40.5979470" lon="-2.7154030">
        <ele>737.6</ele>
        <time>2019-07-07T06:36:52Z</time>
      </trkpt>
      <trkpt lat="40.5979880" lon="-2.7154590">
        <ele>737.6</ele>
        <time>2019-07-07T06:36:53Z</time>
      </trkpt>
      <trkpt lat="40.5981230" lon="-2.7157120">
        <ele>737.8</ele>
        <time>2019-07-07T06:36:57Z</time>
      </trkpt>
      <trkpt lat="40.5981940" lon="-2.7159210">
        <ele>738.0</ele>
        <time>2019-07-07T06:37:00Z</time>
      </trkpt>
      <trkpt lat="40.5982280" lon="-2.7161480">
        <ele>738.0</ele>
        <time>2019-07-07T06:37:03Z</time>
      </trkpt>
      <trkpt lat="40.5982230" lon="-2.7164680">
        <ele>737.8</ele>
        <time>2019-07-07T06:37:07Z</time>
      </trkpt>
      <trkpt lat="40.5982090" lon="-2.7165480">
        <ele>737.6</ele>
        <time>2019-07-07T06:37:08Z</time>
      </trkpt>
      <trkpt lat="40.5980510" lon="-2.7169920">
        <ele>737.6</ele>
        <time>2019-07-07T06:37:14Z</time>
      </trkpt>
      <trkpt lat="40.5977720" lon="-2.7174520">
        <ele>737.2</ele>
        <time>2019-07-07T06:37:21Z</time>
      </trkpt>
      <trkpt lat="40.5976010" lon="-2.7176990">
        <ele>737.0</ele>
        <time>2019-07-07T06:37:25Z</time>
      </trkpt>
      <trkpt lat="40.5975650" lon="-2.7177650">
        <ele>737.4</ele>
        <time>2019-07-07T06:37:26Z</time>
      </trkpt>
      <trkpt lat="40.5975090" lon="-2.7179090">
        <ele>737.4</ele>
        <time>2019-07-07T06:37:28Z</time>
      </trkpt>
      <trkpt lat="40.5974100" lon="-2.7183600">
        <ele>737.6</ele>
        <time>2019-07-07T06:37:34Z</time>
      </trkpt>
      <trkpt lat="40.5974100" lon="-2.7185910">
        <ele>737.6</ele>
        <time>2019-07-07T06:37:37Z</time>
      </trkpt>
      <trkpt lat="40.5974260" lon="-2.7187360">
        <ele>737.6</ele>
        <time>2019-07-07T06:37:39Z</time>
      </trkpt>
      <trkpt lat="40.5974370" lon="-2.7188080">
        <ele>737.6</ele>
        <time>2019-07-07T06:37:40Z</time>
      </trkpt>
      <trkpt lat="40.5974670" lon="-2.7189500">
        <ele>737.4</ele>
        <time>2019-07-07T06:37:42Z</time>
      </trkpt>
      <trkpt lat="40.5975490" lon="-2.7191570">
        <ele>737.4</ele>
        <time>2019-07-07T06:37:45Z</time>
      </trkpt>
      <trkpt lat="40.5976150" lon="-2.7192920">
        <ele>737.4</ele>
        <time>2019-07-07T06:37:47Z</time>
      </trkpt>
      <trkpt lat="40.5978080" lon="-2.7197050">
        <ele>737.4</ele>
        <time>2019-07-07T06:37:53Z</time>
      </trkpt>
      <trkpt lat="40.5979720" lon="-2.7200390">
        <ele>737.4</ele>
        <time>2019-07-07T06:37:58Z</time>
      </trkpt>
      <trkpt lat="40.5980680" lon="-2.7202420">
        <ele>737.4</ele>
        <time>2019-07-07T06:38:01Z</time>
      </trkpt>
      <trkpt lat="40.5983830" lon="-2.7209120">
        <ele>737.4</ele>
        <time>2019-07-07T06:38:11Z</time>
      </trkpt>
      <trkpt lat="40.5984150" lon="-2.7209790">
        <ele>737.4</ele>
        <time>2019-07-07T06:38:12Z</time>
      </trkpt>
      <trkpt lat="40.5986130" lon="-2.7213870">
        <ele>737.4</ele>
        <time>2019-07-07T06:38:18Z</time>
      </trkpt>
      <trkpt lat="40.5987130" lon="-2.7215860">
        <ele>737.2</ele>
        <time>2019-07-07T06:38:21Z</time>
      </trkpt>
      <trkpt lat="40.5988500" lon="-2.7218400">
        <ele>737.2</ele>
        <time>2019-07-07T06:38:25Z</time>
      </trkpt>
      <trkpt lat="40.5988770" lon="-2.7219020">
        <ele>737.2</ele>
        <time>2019-07-07T06:38:26Z</time>
      </trkpt>
      <trkpt lat="40.5988950" lon="-2.7220130">
        <ele>737.2</ele>
        <time>2019-07-07T06:38:28Z</time>
      </trkpt>
      <trkpt lat="40.5988710" lon="-2.7220810">
        <ele>737.0</ele>
        <time>2019-07-07T06:38:30Z</time>
      </trkpt>
      <trkpt lat="40.5988510" lon="-2.7220990">
        <ele>737.0</ele>
        <time>2019-07-07T06:38:31Z</time>
      </trkpt>
      <trkpt lat="40.5987350" lon="-2.7220850">
        <ele>737.2</ele>
        <time>2019-07-07T06:38:35Z</time>
      </trkpt>
      <trkpt lat="40.5986550" lon="-2.7220610">
        <ele>737.2</ele>
        <time>2019-07-07T06:38:37Z</time>
      </trkpt>
      <trkpt lat="40.5986110" lon="-2.7220570">
        <ele>737.2</ele>
        <time>2019-07-07T06:38:38Z</time>
      </trkpt>
      <trkpt lat="40.5985160" lon="-2.7220710">
        <ele>737.0</ele>
        <time>2019-07-07T06:38:40Z</time>
      </trkpt>
      <trkpt lat="40.5984390" lon="-2.7220950">
        <ele>737.0</ele>
        <time>2019-07-07T06:38:42Z</time>
      </trkpt>
      <trkpt lat="40.5983780" lon="-2.7221190">
        <ele>737.0</ele>
        <time>2019-07-07T06:38:44Z</time>
      </trkpt>
      <trkpt lat="40.5981510" lon="-2.7222050">
        <ele>737.4</ele>
        <time>2019-07-07T06:38:50Z</time>
      </trkpt>
      <trkpt lat="40.5980610" lon="-2.7222390">
        <ele>737.4</ele>
        <time>2019-07-07T06:38:52Z</time>
      </trkpt>
      <trkpt lat="40.5978580" lon="-2.7223460">
        <ele>737.4</ele>
        <time>2019-07-07T06:38:57Z</time>
      </trkpt>
      <trkpt lat="40.5977250" lon="-2.7223990">
        <ele>737.4</ele>
        <time>2019-07-07T06:39:00Z</time>
      </trkpt>
      <trkpt lat="40.5976300" lon="-2.7224600">
        <ele>737.0</ele>
        <time>2019-07-07T06:39:02Z</time>
      </trkpt>
      <trkpt lat="40.5975100" lon="-2.7225940">
        <ele>736.6</ele>
        <time>2019-07-07T06:39:05Z</time>
      </trkpt>
      <trkpt lat="40.5974760" lon="-2.7226460">
        <ele>736.4</ele>
        <time>2019-07-07T06:39:06Z</time>
      </trkpt>
      <trkpt lat="40.5974500" lon="-2.7226970">
        <ele>736.4</ele>
        <time>2019-07-07T06:39:07Z</time>
      </trkpt>
      <trkpt lat="40.5974220" lon="-2.7228020">
        <ele>736.0</ele>
        <time>2019-07-07T06:39:09Z</time>
      </trkpt>
      <trkpt lat="40.5974210" lon="-2.7229230">
        <ele>735.8</ele>
        <time>2019-07-07T06:39:11Z</time>
      </trkpt>
      <trkpt lat="40.5974290" lon="-2.7231090">
        <ele>735.2</ele>
        <time>2019-07-07T06:39:14Z</time>
      </trkpt>
      <trkpt lat="40.5974380" lon="-2.7233070">
        <ele>734.2</ele>
        <time>2019-07-07T06:39:17Z</time>
      </trkpt>
      <trkpt lat="40.5974350" lon="-2.7233660">
        <ele>734.0</ele>
        <time>2019-07-07T06:39:18Z</time>
      </trkpt>
      <trkpt lat="40.5974070" lon="-2.7235740">
        <ele>732.8</ele>
        <time>2019-07-07T06:39:22Z</time>
      </trkpt>
      <trkpt lat="40.5974090" lon="-2.7236030">
        <ele>732.4</ele>
        <time>2019-07-07T06:39:23Z</time>
      </trkpt>
      <trkpt lat="40.5974310" lon="-2.7236260">
        <ele>731.8</ele>
        <time>2019-07-07T06:39:25Z</time>
      </trkpt>
      <trkpt lat="40.5974420" lon="-2.7236230">
        <ele>731.6</ele>
        <time>2019-07-07T06:39:26Z</time>
      </trkpt>
      <trkpt lat="40.5974470" lon="-2.7235770">
        <ele>731.6</ele>
        <time>2019-07-07T06:39:29Z</time>
      </trkpt>
      <trkpt lat="40.5974390" lon="-2.7235580">
        <ele>731.6</ele>
        <time>2019-07-07T06:39:30Z</time>
      </trkpt>
      <trkpt lat="40.5974270" lon="-2.7234750">
        <ele>731.8</ele>
        <time>2019-07-07T06:39:33Z</time>
      </trkpt>
      <trkpt lat="40.5974310" lon="-2.7234090">
        <ele>731.8</ele>
        <time>2019-07-07T06:39:35Z</time>
      </trkpt>
      <trkpt lat="40.5974480" lon="-2.7233450">
        <ele>732.0</ele>
        <time>2019-07-07T06:39:37Z</time>
      </trkpt>
      <trkpt lat="40.5974530" lon="-2.7232100">
        <ele>733.0</ele>
        <time>2019-07-07T06:39:41Z</time>
      </trkpt>
      <trkpt lat="40.5974240" lon="-2.7229710">
        <ele>734.2</ele>
        <time>2019-07-07T06:39:48Z</time>
      </trkpt>
      <trkpt lat="40.5974190" lon="-2.7228670">
        <ele>735.0</ele>
        <time>2019-07-07T06:39:51Z</time>
      </trkpt>
      <trkpt lat="40.5974200" lon="-2.7227980">
        <ele>735.6</ele>
        <time>2019-07-07T06:39:53Z</time>
      </trkpt>
      <trkpt lat="40.5974280" lon="-2.7227320">
        <ele>735.8</ele>
        <time>2019-07-07T06:39:55Z</time>
      </trkpt>
      <trkpt lat="40.5974620" lon="-2.7226350">
        <ele>736.4</ele>
        <time>2019-07-07T06:39:58Z</time>
      </trkpt>
      <trkpt lat="40.5975050" lon="-2.7225680">
        <ele>736.4</ele>
        <time>2019-07-07T06:40:00Z</time>
      </trkpt>
      <trkpt lat="40.5975820" lon="-2.7224670">
        <ele>736.4</ele>
        <time>2019-07-07T06:40:03Z</time>
      </trkpt>
      <trkpt lat="40.5976740" lon="-2.7223850">
        <ele>736.6</ele>
        <time>2019-07-07T06:40:06Z</time>
      </trkpt>
      <trkpt lat="40.5977080" lon="-2.7223640">
        <ele>736.6</ele>
        <time>2019-07-07T06:40:07Z</time>
      </trkpt>
      <trkpt lat="40.5979710" lon="-2.7222460">
        <ele>736.6</ele>
        <time>2019-07-07T06:40:15Z</time>
      </trkpt>
      <trkpt lat="40.5982610" lon="-2.7221220">
        <ele>736.8</ele>
        <time>2019-07-07T06:40:22Z</time>
      </trkpt>
      <trkpt lat="40.5984290" lon="-2.7220660">
        <ele>736.8</ele>
        <time>2019-07-07T06:40:26Z</time>
      </trkpt>
      <trkpt lat="40.5985590" lon="-2.7220320">
        <ele>736.8</ele>
        <time>2019-07-07T06:40:29Z</time>
      </trkpt>
      <trkpt lat="40.5986480" lon="-2.7220250">
        <ele>736.8</ele>
        <time>2019-07-07T06:40:31Z</time>
      </trkpt>
      <trkpt lat="40.5987760" lon="-2.7220620">
        <ele>737.2</ele>
        <time>2019-07-07T06:40:34Z</time>
      </trkpt>
      <trkpt lat="40.5988130" lon="-2.7220800">
        <ele>737.2</ele>
        <time>2019-07-07T06:40:35Z</time>
      </trkpt>
      <trkpt lat="40.5988840" lon="-2.7221110">
        <ele>737.2</ele>
        <time>2019-07-07T06:40:37Z</time>
      </trkpt>
      <trkpt lat="40.5989500" lon="-2.7221530">
        <ele>737.2</ele>
        <time>2019-07-07T06:40:39Z</time>
      </trkpt>
      <trkpt lat="40.5989790" lon="-2.7221840">
        <ele>737.2</ele>
        <time>2019-07-07T06:40:40Z</time>
      </trkpt>
      <trkpt lat="40.5990720" lon="-2.7223590">
        <ele>737.4</ele>
        <time>2019-07-07T06:40:44Z</time>
      </trkpt>
      <trkpt lat="40.5990880" lon="-2.7224120">
        <ele>737.4</ele>
        <time>2019-07-07T06:40:45Z</time>
      </trkpt>
      <trkpt lat="40.5991370" lon="-2.7227100">
        <ele>737.4</ele>
        <time>2019-07-07T06:40:50Z</time>
      </trkpt>
      <trkpt lat="40.5991370" lon="-2.7227740">
        <ele>737.4</ele>
        <time>2019-07-07T06:40:51Z</time>
      </trkpt>
      <trkpt lat="40.5991170" lon="-2.7229640">
        <ele>737.6</ele>
        <time>2019-07-07T06:40:54Z</time>
      </trkpt>
      <trkpt lat="40.5991030" lon="-2.7230270">
        <ele>737.8</ele>
        <time>2019-07-07T06:40:55Z</time>
      </trkpt>
      <trkpt lat="40.5990700" lon="-2.7231510">
        <ele>737.8</ele>
        <time>2019-07-07T06:40:57Z</time>
      </trkpt>
      <trkpt lat="40.5989710" lon="-2.7235120">
        <ele>738.2</ele>
        <time>2019-07-07T06:41:03Z</time>
      </trkpt>
      <trkpt lat="40.5989440" lon="-2.7236240">
        <ele>738.4</ele>
        <time>2019-07-07T06:41:05Z</time>
      </trkpt>
      <trkpt lat="40.5989320" lon="-2.7236780">
        <ele>738.6</ele>
        <time>2019-07-07T06:41:06Z</time>
      </trkpt>
      <trkpt lat="40.5988620" lon="-2.7239250">
        <ele>739.8</ele>
        <time>2019-07-07T06:41:11Z</time>
      </trkpt>
      <trkpt lat="40.5988400" lon="-2.7240220">
        <ele>740.2</ele>
        <time>2019-07-07T06:41:13Z</time>
      </trkpt>
      <trkpt lat="40.5988020" lon="-2.7242220">
        <ele>740.8</ele>
        <time>2019-07-07T06:41:17Z</time>
      </trkpt>
      <trkpt lat="40.5987500" lon="-2.7244690">
        <ele>741.6</ele>
        <time>2019-07-07T06:41:22Z</time>
      </trkpt>
      <trkpt lat="40.5987370" lon="-2.7245170">
        <ele>741.6</ele>
        <time>2019-07-07T06:41:23Z</time>
      </trkpt>
      <trkpt lat="40.5987250" lon="-2.7245650">
        <ele>741.8</ele>
        <time>2019-07-07T06:41:24Z</time>
      </trkpt>
      <trkpt lat="40.5986680" lon="-2.7248010">
        <ele>742.8</ele>
        <time>2019-07-07T06:41:29Z</time>
      </trkpt>
      <trkpt lat="40.5986610" lon="-2.7248500">
        <ele>742.8</ele>
        <time>2019-07-07T06:41:30Z</time>
      </trkpt>
      <trkpt lat="40.5986460" lon="-2.7249490">
        <ele>743.2</ele>
        <time>2019-07-07T06:41:32Z</time>
      </trkpt>
      <trkpt lat="40.5985960" lon="-2.7251350">
        <ele>744.0</ele>
        <time>2019-07-07T06:41:36Z</time>
      </trkpt>
      <trkpt lat="40.5985400" lon="-2.7253660">
        <ele>745.2</ele>
        <time>2019-07-07T06:41:41Z</time>
      </trkpt>
      <trkpt lat="40.5985330" lon="-2.7254140">
        <ele>745.4</ele>
        <time>2019-07-07T06:41:42Z</time>
      </trkpt>
      <trkpt lat="40.5984860" lon="-2.7256980">
        <ele>746.2</ele>
        <time>2019-07-07T06:41:48Z</time>
      </trkpt>
      <trkpt lat="40.5983790" lon="-2.7257810">
        <ele>747.2</ele>
        <time>2019-07-07T06:41:52Z</time>
      </trkpt>
      <trkpt lat="40.5982650" lon="-2.7257790">
        <ele>748.4</ele>
        <time>2019-07-07T06:41:56Z</time>
      </trkpt>
      <trkpt lat="40.5982050" lon="-2.7257560">
        <ele>748.8</ele>
        <time>2019-07-07T06:41:58Z</time>
      </trkpt>
      <trkpt lat="40.5981250" lon="-2.7256820">
        <ele>749.4</ele>
        <time>2019-07-07T06:42:01Z</time>
      </trkpt>
      <trkpt lat="40.5980400" lon="-2.7256140">
        <ele>750.0</ele>
        <time>2019-07-07T06:42:04Z</time>
      </trkpt>
      <trkpt lat="40.5979500" lon="-2.7255400">
        <ele>750.6</ele>
        <time>2019-07-07T06:42:07Z</time>
      </trkpt>
      <trkpt lat="40.5978300" lon="-2.7254410">
        <ele>751.2</ele>
        <time>2019-07-07T06:42:11Z</time>
      </trkpt>
      <trkpt lat="40.5977450" lon="-2.7253630">
        <ele>751.6</ele>
        <time>2019-07-07T06:42:14Z</time>
      </trkpt>
      <trkpt lat="40.5976050" lon="-2.7252340">
        <ele>752.8</ele>
        <time>2019-07-07T06:42:19Z</time>
      </trkpt>
      <trkpt lat="40.5974530" lon="-2.7251330">
        <ele>754.0</ele>
        <time>2019-07-07T06:42:24Z</time>
      </trkpt>
      <trkpt lat="40.5973300" lon="-2.7250440">
        <ele>754.8</ele>
        <time>2019-07-07T06:42:28Z</time>
      </trkpt>
      <trkpt lat="40.5972640" lon="-2.7250070">
        <ele>755.2</ele>
        <time>2019-07-07T06:42:30Z</time>
      </trkpt>
      <trkpt lat="40.5970720" lon="-2.7248780">
        <ele>756.2</ele>
        <time>2019-07-07T06:42:36Z</time>
      </trkpt>
      <trkpt lat="40.5970100" lon="-2.7248340">
        <ele>756.6</ele>
        <time>2019-07-07T06:42:38Z</time>
      </trkpt>
      <trkpt lat="40.5968860" lon="-2.7247740">
        <ele>757.2</ele>
        <time>2019-07-07T06:42:42Z</time>
      </trkpt>
      <trkpt lat="40.5967500" lon="-2.7247570">
        <ele>758.0</ele>
        <time>2019-07-07T06:42:46Z</time>
      </trkpt>
      <trkpt lat="40.5966790" lon="-2.7247800">
        <ele>758.4</ele>
        <time>2019-07-07T06:42:48Z</time>
      </trkpt>
      <trkpt lat="40.5965900" lon="-2.7248610">
        <ele>759.2</ele>
        <time>2019-07-07T06:42:51Z</time>
      </trkpt>
      <trkpt lat="40.5965410" lon="-2.7249300">
        <ele>759.6</ele>
        <time>2019-07-07T06:42:53Z</time>
      </trkpt>
      <trkpt lat="40.5964930" lon="-2.7250940">
        <ele>760.6</ele>
        <time>2019-07-07T06:42:57Z</time>
      </trkpt>
      <trkpt lat="40.5964870" lon="-2.7251380">
        <ele>760.8</ele>
        <time>2019-07-07T06:42:58Z</time>
      </trkpt>
      <trkpt lat="40.5965040" lon="-2.7253080">
        <ele>761.6</ele>
        <time>2019-07-07T06:43:02Z</time>
      </trkpt>
      <trkpt lat="40.5965340" lon="-2.7253910">
        <ele>762.0</ele>
        <time>2019-07-07T06:43:04Z</time>
      </trkpt>
      <trkpt lat="40.5966380" lon="-2.7255890">
        <ele>762.8</ele>
        <time>2019-07-07T06:43:09Z</time>
      </trkpt>
      <trkpt lat="40.5966600" lon="-2.7256300">
        <ele>763.0</ele>
        <time>2019-07-07T06:43:10Z</time>
      </trkpt>
      <trkpt lat="40.5967540" lon="-2.7259050">
        <ele>764.0</ele>
        <time>2019-07-07T06:43:16Z</time>
      </trkpt>
      <trkpt lat="40.5967490" lon="-2.7261090">
        <ele>765.0</ele>
        <time>2019-07-07T06:43:20Z</time>
      </trkpt>
      <trkpt lat="40.5967430" lon="-2.7261620">
        <ele>765.4</ele>
        <time>2019-07-07T06:43:21Z</time>
      </trkpt>
      <trkpt lat="40.5967300" lon="-2.7262710">
        <ele>765.8</ele>
        <time>2019-07-07T06:43:23Z</time>
      </trkpt>
      <trkpt lat="40.5966890" lon="-2.7264240">
        <ele>766.2</ele>
        <time>2019-07-07T06:43:26Z</time>
      </trkpt>
      <trkpt lat="40.5966720" lon="-2.7264720">
        <ele>766.4</ele>
        <time>2019-07-07T06:43:27Z</time>
      </trkpt>
      <trkpt lat="40.5965840" lon="-2.7267080">
        <ele>767.4</ele>
        <time>2019-07-07T06:43:32Z</time>
      </trkpt>
      <trkpt lat="40.5964750" lon="-2.7269290">
        <ele>768.6</ele>
        <time>2019-07-07T06:43:37Z</time>
      </trkpt>
      <trkpt lat="40.5963780" lon="-2.7270980">
        <ele>769.6</ele>
        <time>2019-07-07T06:43:41Z</time>
      </trkpt>
      <trkpt lat="40.5962610" lon="-2.7273080">
        <ele>770.8</ele>
        <time>2019-07-07T06:43:46Z</time>
      </trkpt>
      <trkpt lat="40.5962120" lon="-2.7273900">
        <ele>771.0</ele>
        <time>2019-07-07T06:43:48Z</time>
      </trkpt>
      <trkpt lat="40.5960920" lon="-2.7276010">
        <ele>772.0</ele>
        <time>2019-07-07T06:43:53Z</time>
      </trkpt>
      <trkpt lat="40.5960140" lon="-2.7277290">
        <ele>772.4</ele>
        <time>2019-07-07T06:43:56Z</time>
      </trkpt>
      <trkpt lat="40.5958820" lon="-2.7278680">
        <ele>773.0</ele>
        <time>2019-07-07T06:44:00Z</time>
      </trkpt>
      <trkpt lat="40.5957720" lon="-2.7279500">
        <ele>773.6</ele>
        <time>2019-07-07T06:44:03Z</time>
      </trkpt>
      <trkpt lat="40.5957000" lon="-2.7279950">
        <ele>774.2</ele>
        <time>2019-07-07T06:44:05Z</time>
      </trkpt>
      <trkpt lat="40.5955160" lon="-2.7280930">
        <ele>775.4</ele>
        <time>2019-07-07T06:44:10Z</time>
      </trkpt>
      <trkpt lat="40.5954800" lon="-2.7281070">
        <ele>775.6</ele>
        <time>2019-07-07T06:44:11Z</time>
      </trkpt>
      <trkpt lat="40.5953450" lon="-2.7281710">
        <ele>776.4</ele>
        <time>2019-07-07T06:44:15Z</time>
      </trkpt>
      <trkpt lat="40.5952430" lon="-2.7282130">
        <ele>777.2</ele>
        <time>2019-07-07T06:44:18Z</time>
      </trkpt>
      <trkpt lat="40.5951170" lon="-2.7283010">
        <ele>777.6</ele>
        <time>2019-07-07T06:44:22Z</time>
      </trkpt>
      <trkpt lat="40.5950470" lon="-2.7283310">
        <ele>777.8</ele>
        <time>2019-07-07T06:44:24Z</time>
      </trkpt>
      <trkpt lat="40.5949120" lon="-2.7284050">
        <ele>778.6</ele>
        <time>2019-07-07T06:44:28Z</time>
      </trkpt>
      <trkpt lat="40.5947780" lon="-2.7284700">
        <ele>779.4</ele>
        <time>2019-07-07T06:44:32Z</time>
      </trkpt>
      <trkpt lat="40.5947100" lon="-2.7285010">
        <ele>779.8</ele>
        <time>2019-07-07T06:44:34Z</time>
      </trkpt>
      <trkpt lat="40.5945200" lon="-2.7286420">
        <ele>781.0</ele>
        <time>2019-07-07T06:44:40Z</time>
      </trkpt>
      <trkpt lat="40.5943860" lon="-2.7288250">
        <ele>782.2</ele>
        <time>2019-07-07T06:44:45Z</time>
      </trkpt>
      <trkpt lat="40.5943420" lon="-2.7289190">
        <ele>782.6</ele>
        <time>2019-07-07T06:44:47Z</time>
      </trkpt>
      <trkpt lat="40.5942950" lon="-2.7290630">
        <ele>783.2</ele>
        <time>2019-07-07T06:44:50Z</time>
      </trkpt>
      <trkpt lat="40.5942500" lon="-2.7292050">
        <ele>783.6</ele>
        <time>2019-07-07T06:44:53Z</time>
      </trkpt>
      <trkpt lat="40.5941930" lon="-2.7294520">
        <ele>784.4</ele>
        <time>2019-07-07T06:44:58Z</time>
      </trkpt>
      <trkpt lat="40.5941570" lon="-2.7296040">
        <ele>785.0</ele>
        <time>2019-07-07T06:45:01Z</time>
      </trkpt>
      <trkpt lat="40.5941150" lon="-2.7297600">
        <ele>785.6</ele>
        <time>2019-07-07T06:45:04Z</time>
      </trkpt>
      <trkpt lat="40.5940340" lon="-2.7300190">
        <ele>786.6</ele>
        <time>2019-07-07T06:45:09Z</time>
      </trkpt>
      <trkpt lat="40.5940140" lon="-2.7300680">
        <ele>786.8</ele>
        <time>2019-07-07T06:45:10Z</time>
      </trkpt>
      <trkpt lat="40.5938880" lon="-2.7302280">
        <ele>787.4</ele>
        <time>2019-07-07T06:45:14Z</time>
      </trkpt>
      <trkpt lat="40.5938010" lon="-2.7302580">
        <ele>787.6</ele>
        <time>2019-07-07T06:45:16Z</time>
      </trkpt>
      <trkpt lat="40.5937560" lon="-2.7302520">
        <ele>787.6</ele>
        <time>2019-07-07T06:45:17Z</time>
      </trkpt>
      <trkpt lat="40.5937110" lon="-2.7302380">
        <ele>787.8</ele>
        <time>2019-07-07T06:45:18Z</time>
      </trkpt>
      <trkpt lat="40.5936670" lon="-2.7302200">
        <ele>787.8</ele>
        <time>2019-07-07T06:45:19Z</time>
      </trkpt>
      <trkpt lat="40.5934990" lon="-2.7301210">
        <ele>788.4</ele>
        <time>2019-07-07T06:45:23Z</time>
      </trkpt>
      <trkpt lat="40.5934160" lon="-2.7300920">
        <ele>788.6</ele>
        <time>2019-07-07T06:45:25Z</time>
      </trkpt>
      <trkpt lat="40.5932910" lon="-2.7300780">
        <ele>789.0</ele>
        <time>2019-07-07T06:45:28Z</time>
      </trkpt>
      <trkpt lat="40.5932510" lon="-2.7300910">
        <ele>789.2</ele>
        <time>2019-07-07T06:45:29Z</time>
      </trkpt>
      <trkpt lat="40.5931760" lon="-2.7301380">
        <ele>789.8</ele>
        <time>2019-07-07T06:45:31Z</time>
      </trkpt>
      <trkpt lat="40.5930250" lon="-2.7302260">
        <ele>790.4</ele>
        <time>2019-07-07T06:45:35Z</time>
      </trkpt>
      <trkpt lat="40.5929880" lon="-2.7302500">
        <ele>790.8</ele>
        <time>2019-07-07T06:45:36Z</time>
      </trkpt>
      <trkpt lat="40.5929520" lon="-2.7302770">
        <ele>790.8</ele>
        <time>2019-07-07T06:45:37Z</time>
      </trkpt>
      <trkpt lat="40.5927710" lon="-2.7304220">
        <ele>791.4</ele>
        <time>2019-07-07T06:45:42Z</time>
      </trkpt>
      <trkpt lat="40.5926250" lon="-2.7305310">
        <ele>792.0</ele>
        <time>2019-07-07T06:45:46Z</time>
      </trkpt>
      <trkpt lat="40.5924410" lon="-2.7306590">
        <ele>792.6</ele>
        <time>2019-07-07T06:45:51Z</time>
      </trkpt>
      <trkpt lat="40.5923320" lon="-2.7307430">
        <ele>793.0</ele>
        <time>2019-07-07T06:45:54Z</time>
      </trkpt>
      <trkpt lat="40.5921810" lon="-2.7308390">
        <ele>793.6</ele>
        <time>2019-07-07T06:45:58Z</time>
      </trkpt>
      <trkpt lat="40.5920390" lon="-2.7309410">
        <ele>794.2</ele>
        <time>2019-07-07T06:46:02Z</time>
      </trkpt>
      <trkpt lat="40.5918990" lon="-2.7310380">
        <ele>794.8</ele>
        <time>2019-07-07T06:46:06Z</time>
      </trkpt>
      <trkpt lat="40.5918430" lon="-2.7311070">
        <ele>795.4</ele>
        <time>2019-07-07T06:46:08Z</time>
      </trkpt>
      <trkpt lat="40.5917870" lon="-2.7312300">
        <ele>796.2</ele>
        <time>2019-07-07T06:46:11Z</time>
      </trkpt>
      <trkpt lat="40.5917710" lon="-2.7312780">
        <ele>796.4</ele>
        <time>2019-07-07T06:46:12Z</time>
      </trkpt>
      <trkpt lat="40.5917510" lon="-2.7315220">
        <ele>797.6</ele>
        <time>2019-07-07T06:46:17Z</time>
      </trkpt>
      <trkpt lat="40.5917660" lon="-2.7317140">
        <ele>798.8</ele>
        <time>2019-07-07T06:46:21Z</time>
      </trkpt>
      <trkpt lat="40.5917800" lon="-2.7318070">
        <ele>799.4</ele>
        <time>2019-07-07T06:46:23Z</time>
      </trkpt>
      <trkpt lat="40.5917990" lon="-2.7319010">
        <ele>799.8</ele>
        <time>2019-07-07T06:46:25Z</time>
      </trkpt>
      <trkpt lat="40.5918170" lon="-2.7320470">
        <ele>800.2</ele>
        <time>2019-07-07T06:46:28Z</time>
      </trkpt>
      <trkpt lat="40.5918260" lon="-2.7322460">
        <ele>800.8</ele>
        <time>2019-07-07T06:46:32Z</time>
      </trkpt>
      <trkpt lat="40.5918440" lon="-2.7323930">
        <ele>801.6</ele>
        <time>2019-07-07T06:46:35Z</time>
      </trkpt>
      <trkpt lat="40.5918560" lon="-2.7325410">
        <ele>802.0</ele>
        <time>2019-07-07T06:46:38Z</time>
      </trkpt>
      <trkpt lat="40.5918510" lon="-2.7327880">
        <ele>803.0</ele>
        <time>2019-07-07T06:46:43Z</time>
      </trkpt>
      <trkpt lat="40.5918390" lon="-2.7329760">
        <ele>804.0</ele>
        <time>2019-07-07T06:46:47Z</time>
      </trkpt>
      <trkpt lat="40.5918190" lon="-2.7330710">
        <ele>804.4</ele>
        <time>2019-07-07T06:46:49Z</time>
      </trkpt>
      <trkpt lat="40.5917760" lon="-2.7332620">
        <ele>805.0</ele>
        <time>2019-07-07T06:46:53Z</time>
      </trkpt>
      <trkpt lat="40.5917250" lon="-2.7333940">
        <ele>805.6</ele>
        <time>2019-07-07T06:46:56Z</time>
      </trkpt>
      <trkpt lat="40.5916470" lon="-2.7335070">
        <ele>806.4</ele>
        <time>2019-07-07T06:46:59Z</time>
      </trkpt>
      <trkpt lat="40.5915370" lon="-2.7336470">
        <ele>806.6</ele>
        <time>2019-07-07T06:47:03Z</time>
      </trkpt>
      <trkpt lat="40.5914750" lon="-2.7337580">
        <ele>807.6</ele>
        <time>2019-07-07T06:47:06Z</time>
      </trkpt>
      <trkpt lat="40.5913910" lon="-2.7338980">
        <ele>808.4</ele>
        <time>2019-07-07T06:47:10Z</time>
      </trkpt>
      <trkpt lat="40.5913660" lon="-2.7339290">
        <ele>808.8</ele>
        <time>2019-07-07T06:47:11Z</time>
      </trkpt>
      <trkpt lat="40.5912570" lon="-2.7341050">
        <ele>810.0</ele>
        <time>2019-07-07T06:47:16Z</time>
      </trkpt>
      <trkpt lat="40.5911460" lon="-2.7343460">
        <ele>811.2</ele>
        <time>2019-07-07T06:47:22Z</time>
      </trkpt>
      <trkpt lat="40.5911010" lon="-2.7344210">
        <ele>811.4</ele>
        <time>2019-07-07T06:47:24Z</time>
      </trkpt>
      <trkpt lat="40.5909350" lon="-2.7345560">
        <ele>812.2</ele>
        <time>2019-07-07T06:47:29Z</time>
      </trkpt>
      <trkpt lat="40.5908910" lon="-2.7345660">
        <ele>812.2</ele>
        <time>2019-07-07T06:47:30Z</time>
      </trkpt>
      <trkpt lat="40.5907160" lon="-2.7345460">
        <ele>812.6</ele>
        <time>2019-07-07T06:47:34Z</time>
      </trkpt>
      <trkpt lat="40.5905800" lon="-2.7345230">
        <ele>812.8</ele>
        <time>2019-07-07T06:47:37Z</time>
      </trkpt>
      <trkpt lat="40.5904420" lon="-2.7345510">
        <ele>813.0</ele>
        <time>2019-07-07T06:47:40Z</time>
      </trkpt>
      <trkpt lat="40.5903270" lon="-2.7346330">
        <ele>813.0</ele>
        <time>2019-07-07T06:47:43Z</time>
      </trkpt>
      <trkpt lat="40.5902940" lon="-2.7346680">
        <ele>813.2</ele>
        <time>2019-07-07T06:47:44Z</time>
      </trkpt>
      <trkpt lat="40.5901650" lon="-2.7348710">
        <ele>814.0</ele>
        <time>2019-07-07T06:47:49Z</time>
      </trkpt>
      <trkpt lat="40.5901480" lon="-2.7349210">
        <ele>814.2</ele>
        <time>2019-07-07T06:47:50Z</time>
      </trkpt>
      <trkpt lat="40.5901350" lon="-2.7349730">
        <ele>814.4</ele>
        <time>2019-07-07T06:47:51Z</time>
      </trkpt>
      <trkpt lat="40.5900750" lon="-2.7353070">
        <ele>815.2</ele>
        <time>2019-07-07T06:47:57Z</time>
      </trkpt>
      <trkpt lat="40.5900090" lon="-2.7355690">
        <ele>816.2</ele>
        <time>2019-07-07T06:48:02Z</time>
      </trkpt>
      <trkpt lat="40.5899870" lon="-2.7356750">
        <ele>816.2</ele>
        <time>2019-07-07T06:48:04Z</time>
      </trkpt>
      <trkpt lat="40.5899370" lon="-2.7358910">
        <ele>816.8</ele>
        <time>2019-07-07T06:48:08Z</time>
      </trkpt>
      <trkpt lat="40.5898950" lon="-2.7359900">
        <ele>817.2</ele>
        <time>2019-07-07T06:48:10Z</time>
      </trkpt>
      <trkpt lat="40.5898720" lon="-2.7360350">
        <ele>817.2</ele>
        <time>2019-07-07T06:48:11Z</time>
      </trkpt>
      <trkpt lat="40.5897860" lon="-2.7361620">
        <ele>817.6</ele>
        <time>2019-07-07T06:48:14Z</time>
      </trkpt>
      <trkpt lat="40.5896810" lon="-2.7362620">
        <ele>818.0</ele>
        <time>2019-07-07T06:48:17Z</time>
      </trkpt>
      <trkpt lat="40.5896450" lon="-2.7362840">
        <ele>818.2</ele>
        <time>2019-07-07T06:48:18Z</time>
      </trkpt>
      <trkpt lat="40.5895170" lon="-2.7363040">
        <ele>818.4</ele>
        <time>2019-07-07T06:48:21Z</time>
      </trkpt>
      <trkpt lat="40.5894120" lon="-2.7362010">
        <ele>818.8</ele>
        <time>2019-07-07T06:48:24Z</time>
      </trkpt>
      <trkpt lat="40.5893850" lon="-2.7361570">
        <ele>819.0</ele>
        <time>2019-07-07T06:48:25Z</time>
      </trkpt>
      <trkpt lat="40.5893600" lon="-2.7361130">
        <ele>819.2</ele>
        <time>2019-07-07T06:48:26Z</time>
      </trkpt>
      <trkpt lat="40.5892480" lon="-2.7359080">
        <ele>820.2</ele>
        <time>2019-07-07T06:48:31Z</time>
      </trkpt>
      <trkpt lat="40.5892250" lon="-2.7358700">
        <ele>820.4</ele>
        <time>2019-07-07T06:48:32Z</time>
      </trkpt>
      <trkpt lat="40.5890560" lon="-2.7356670">
        <ele>821.2</ele>
        <time>2019-07-07T06:48:38Z</time>
      </trkpt>
      <trkpt lat="40.5890200" lon="-2.7356480">
        <ele>821.2</ele>
        <time>2019-07-07T06:48:39Z</time>
      </trkpt>
      <trkpt lat="40.5888310" lon="-2.7356050">
        <ele>822.6</ele>
        <time>2019-07-07T06:48:44Z</time>
      </trkpt>
      <trkpt lat="40.5886580" lon="-2.7356110">
        <ele>823.6</ele>
        <time>2019-07-07T06:48:49Z</time>
      </trkpt>
      <trkpt lat="40.5885900" lon="-2.7356300">
        <ele>824.0</ele>
        <time>2019-07-07T06:48:51Z</time>
      </trkpt>
      <trkpt lat="40.5884880" lon="-2.7356800">
        <ele>824.8</ele>
        <time>2019-07-07T06:48:54Z</time>
      </trkpt>
      <trkpt lat="40.5884280" lon="-2.7357350">
        <ele>825.2</ele>
        <time>2019-07-07T06:48:56Z</time>
      </trkpt>
      <trkpt lat="40.5883770" lon="-2.7357990">
        <ele>826.0</ele>
        <time>2019-07-07T06:48:58Z</time>
      </trkpt>
      <trkpt lat="40.5882460" lon="-2.7360080">
        <ele>827.0</ele>
        <time>2019-07-07T06:49:04Z</time>
      </trkpt>
      <trkpt lat="40.5882250" lon="-2.7360440">
        <ele>827.2</ele>
        <time>2019-07-07T06:49:05Z</time>
      </trkpt>
      <trkpt lat="40.5881180" lon="-2.7362180">
        <ele>828.0</ele>
        <time>2019-07-07T06:49:10Z</time>
      </trkpt>
      <trkpt lat="40.5880020" lon="-2.7363820">
        <ele>829.0</ele>
        <time>2019-07-07T06:49:15Z</time>
      </trkpt>
      <trkpt lat="40.5879740" lon="-2.7364090">
        <ele>829.2</ele>
        <time>2019-07-07T06:49:16Z</time>
      </trkpt>
      <trkpt lat="40.5878090" lon="-2.7365230">
        <ele>829.8</ele>
        <time>2019-07-07T06:49:21Z</time>
      </trkpt>
      <trkpt lat="40.5876590" lon="-2.7365570">
        <ele>830.2</ele>
        <time>2019-07-07T06:49:25Z</time>
      </trkpt>
      <trkpt lat="40.5875880" lon="-2.7365620">
        <ele>830.6</ele>
        <time>2019-07-07T06:49:27Z</time>
      </trkpt>
      <trkpt lat="40.5874760" lon="-2.7365530">
        <ele>831.2</ele>
        <time>2019-07-07T06:49:30Z</time>
      </trkpt>
      <trkpt lat="40.5872900" lon="-2.7365420">
        <ele>832.0</ele>
        <time>2019-07-07T06:49:35Z</time>
      </trkpt>
      <trkpt lat="40.5872170" lon="-2.7365510">
        <ele>832.2</ele>
        <time>2019-07-07T06:49:37Z</time>
      </trkpt>
      <trkpt lat="40.5871160" lon="-2.7366050">
        <ele>833.0</ele>
        <time>2019-07-07T06:49:40Z</time>
      </trkpt>
      <trkpt lat="40.5870530" lon="-2.7366490">
        <ele>833.4</ele>
        <time>2019-07-07T06:49:42Z</time>
      </trkpt>
      <trkpt lat="40.5869260" lon="-2.7367810">
        <ele>834.6</ele>
        <time>2019-07-07T06:49:47Z</time>
      </trkpt>
      <trkpt lat="40.5868040" lon="-2.7370210">
        <ele>835.6</ele>
        <time>2019-07-07T06:49:54Z</time>
      </trkpt>
      <trkpt lat="40.5867880" lon="-2.7370560">
        <ele>835.8</ele>
        <time>2019-07-07T06:49:55Z</time>
      </trkpt>
      <trkpt lat="40.5867710" lon="-2.7370920">
        <ele>836.0</ele>
        <time>2019-07-07T06:49:56Z</time>
      </trkpt>
      <trkpt lat="40.5867250" lon="-2.7372090">
        <ele>836.6</ele>
        <time>2019-07-07T06:49:59Z</time>
      </trkpt>
      <trkpt lat="40.5866600" lon="-2.7374130">
        <ele>837.2</ele>
        <time>2019-07-07T06:50:04Z</time>
      </trkpt>
      <trkpt lat="40.5866040" lon="-2.7375240">
        <ele>837.8</ele>
        <time>2019-07-07T06:50:07Z</time>
      </trkpt>
      <trkpt lat="40.5865300" lon="-2.7376310">
        <ele>838.4</ele>
        <time>2019-07-07T06:50:10Z</time>
      </trkpt>
      <trkpt lat="40.5864420" lon="-2.7377260">
        <ele>839.0</ele>
        <time>2019-07-07T06:50:13Z</time>
      </trkpt>
      <trkpt lat="40.5863100" lon="-2.7378250">
        <ele>839.4</ele>
        <time>2019-07-07T06:50:17Z</time>
      </trkpt>
      <trkpt lat="40.5860970" lon="-2.7379610">
        <ele>839.8</ele>
        <time>2019-07-07T06:50:23Z</time>
      </trkpt>
      <trkpt lat="40.5860610" lon="-2.7379820">
        <ele>840.0</ele>
        <time>2019-07-07T06:50:24Z</time>
      </trkpt>
      <trkpt lat="40.5860240" lon="-2.7380020">
        <ele>840.0</ele>
        <time>2019-07-07T06:50:25Z</time>
      </trkpt>
      <trkpt lat="40.5858210" lon="-2.7381170">
        <ele>841.0</ele>
        <time>2019-07-07T06:50:31Z</time>
      </trkpt>
      <trkpt lat="40.5857910" lon="-2.7381450">
        <ele>841.2</ele>
        <time>2019-07-07T06:50:32Z</time>
      </trkpt>
      <trkpt lat="40.5856800" lon="-2.7383070">
        <ele>842.2</ele>
        <time>2019-07-07T06:50:37Z</time>
      </trkpt>
      <trkpt lat="40.5856630" lon="-2.7383420">
        <ele>842.4</ele>
        <time>2019-07-07T06:50:38Z</time>
      </trkpt>
      <trkpt lat="40.5855400" lon="-2.7384980">
        <ele>843.4</ele>
        <time>2019-07-07T06:50:43Z</time>
      </trkpt>
      <trkpt lat="40.5855100" lon="-2.7385260">
        <ele>843.6</ele>
        <time>2019-07-07T06:50:44Z</time>
      </trkpt>
      <trkpt lat="40.5853030" lon="-2.7386070">
        <ele>844.4</ele>
        <time>2019-07-07T06:50:50Z</time>
      </trkpt>
      <trkpt lat="40.5851580" lon="-2.7386270">
        <ele>845.6</ele>
        <time>2019-07-07T06:50:54Z</time>
      </trkpt>
      <trkpt lat="40.5850180" lon="-2.7386720">
        <ele>846.2</ele>
        <time>2019-07-07T06:50:58Z</time>
      </trkpt>
      <trkpt lat="40.5849520" lon="-2.7387110">
        <ele>846.6</ele>
        <time>2019-07-07T06:51:00Z</time>
      </trkpt>
      <trkpt lat="40.5848010" lon="-2.7388170">
        <ele>847.4</ele>
        <time>2019-07-07T06:51:05Z</time>
      </trkpt>
      <trkpt lat="40.5847730" lon="-2.7388420">
        <ele>847.6</ele>
        <time>2019-07-07T06:51:06Z</time>
      </trkpt>
      <trkpt lat="40.5845810" lon="-2.7389920">
        <ele>848.8</ele>
        <time>2019-07-07T06:51:13Z</time>
      </trkpt>
      <trkpt lat="40.5844360" lon="-2.7390900">
        <ele>849.8</ele>
        <time>2019-07-07T06:51:18Z</time>
      </trkpt>
      <trkpt lat="40.5843480" lon="-2.7391620">
        <ele>850.6</ele>
        <time>2019-07-07T06:51:21Z</time>
      </trkpt>
      <trkpt lat="40.5842910" lon="-2.7392140">
        <ele>851.0</ele>
        <time>2019-07-07T06:51:23Z</time>
      </trkpt>
      <trkpt lat="40.5841480" lon="-2.7393530">
        <ele>852.0</ele>
        <time>2019-07-07T06:51:28Z</time>
      </trkpt>
      <trkpt lat="40.5840920" lon="-2.7394170">
        <ele>852.4</ele>
        <time>2019-07-07T06:51:30Z</time>
      </trkpt>
      <trkpt lat="40.5840030" lon="-2.7395650">
        <ele>853.0</ele>
        <time>2019-07-07T06:51:34Z</time>
      </trkpt>
      <trkpt lat="40.5839490" lon="-2.7396890">
        <ele>853.6</ele>
        <time>2019-07-07T06:51:37Z</time>
      </trkpt>
      <trkpt lat="40.5839000" lon="-2.7398190">
        <ele>854.2</ele>
        <time>2019-07-07T06:51:40Z</time>
      </trkpt>
      <trkpt lat="40.5837490" lon="-2.7401710">
        <ele>855.2</ele>
        <time>2019-07-07T06:51:48Z</time>
      </trkpt>
      <trkpt lat="40.5837110" lon="-2.7402570">
        <ele>855.2</ele>
        <time>2019-07-07T06:51:50Z</time>
      </trkpt>
      <trkpt lat="40.5836230" lon="-2.7405360">
        <ele>856.2</ele>
        <time>2019-07-07T06:51:56Z</time>
      </trkpt>
      <trkpt lat="40.5835830" lon="-2.7406200">
        <ele>856.4</ele>
        <time>2019-07-07T06:51:58Z</time>
      </trkpt>
      <trkpt lat="40.5835150" lon="-2.7407430">
        <ele>856.6</ele>
        <time>2019-07-07T06:52:01Z</time>
      </trkpt>
      <trkpt lat="40.5834850" lon="-2.7407790">
        <ele>856.6</ele>
        <time>2019-07-07T06:52:02Z</time>
      </trkpt>
      <trkpt lat="40.5833270" lon="-2.7408770">
        <ele>856.8</ele>
        <time>2019-07-07T06:52:06Z</time>
      </trkpt>
      <trkpt lat="40.5832810" lon="-2.7408880">
        <ele>856.8</ele>
        <time>2019-07-07T06:52:07Z</time>
      </trkpt>
      <trkpt lat="40.5831300" lon="-2.7409040">
        <ele>856.6</ele>
        <time>2019-07-07T06:52:10Z</time>
      </trkpt>
      <trkpt lat="40.5830230" lon="-2.7409210">
        <ele>856.6</ele>
        <time>2019-07-07T06:52:12Z</time>
      </trkpt>
      <trkpt lat="40.5828110" lon="-2.7409780">
        <ele>856.6</ele>
        <time>2019-07-07T06:52:16Z</time>
      </trkpt>
      <trkpt lat="40.5826090" lon="-2.7410460">
        <ele>856.8</ele>
        <time>2019-07-07T06:52:20Z</time>
      </trkpt>
      <trkpt lat="40.5824620" lon="-2.7410730">
        <ele>857.0</ele>
        <time>2019-07-07T06:52:23Z</time>
      </trkpt>
      <trkpt lat="40.5823680" lon="-2.7410630">
        <ele>857.2</ele>
        <time>2019-07-07T06:52:25Z</time>
      </trkpt>
      <trkpt lat="40.5823220" lon="-2.7410560">
        <ele>857.4</ele>
        <time>2019-07-07T06:52:26Z</time>
      </trkpt>
      <trkpt lat="40.5820520" lon="-2.7409560">
        <ele>858.0</ele>
        <time>2019-07-07T06:52:32Z</time>
      </trkpt>
      <trkpt lat="40.5819670" lon="-2.7409060">
        <ele>858.2</ele>
        <time>2019-07-07T06:52:34Z</time>
      </trkpt>
      <trkpt lat="40.5819270" lon="-2.7408730">
        <ele>858.4</ele>
        <time>2019-07-07T06:52:35Z</time>
      </trkpt>
      <trkpt lat="40.5818070" lon="-2.7407590">
        <ele>858.6</ele>
        <time>2019-07-07T06:52:38Z</time>
      </trkpt>
      <trkpt lat="40.5815580" lon="-2.7404230">
        <ele>858.4</ele>
        <time>2019-07-07T06:52:45Z</time>
      </trkpt>
      <trkpt lat="40.5813170" lon="-2.7401470">
        <ele>858.2</ele>
        <time>2019-07-07T06:52:51Z</time>
      </trkpt>
      <trkpt lat="40.5810630" lon="-2.7400200">
        <ele>858.2</ele>
        <time>2019-07-07T06:52:56Z</time>
      </trkpt>
      <trkpt lat="40.5810110" lon="-2.7399960">
        <ele>858.2</ele>
        <time>2019-07-07T06:52:57Z</time>
      </trkpt>
      <trkpt lat="40.5805500" lon="-2.7398350">
        <ele>858.4</ele>
        <time>2019-07-07T06:53:06Z</time>
      </trkpt>
      <trkpt lat="40.5802010" lon="-2.7397180">
        <ele>858.8</ele>
        <time>2019-07-07T06:53:13Z</time>
      </trkpt>
      <trkpt lat="40.5800560" lon="-2.7396830">
        <ele>859.2</ele>
        <time>2019-07-07T06:53:16Z</time>
      </trkpt>
      <trkpt lat="40.5798750" lon="-2.7396380">
        <ele>859.8</ele>
        <time>2019-07-07T06:53:20Z</time>
      </trkpt>
      <trkpt lat="40.5798300" lon="-2.7396380">
        <ele>860.0</ele>
        <time>2019-07-07T06:53:21Z</time>
      </trkpt>
      <trkpt lat="40.5797430" lon="-2.7396530">
        <ele>860.4</ele>
        <time>2019-07-07T06:53:23Z</time>
      </trkpt>
      <trkpt lat="40.5796660" lon="-2.7396820">
        <ele>860.8</ele>
        <time>2019-07-07T06:53:25Z</time>
      </trkpt>
      <trkpt lat="40.5795380" lon="-2.7397610">
        <ele>861.2</ele>
        <time>2019-07-07T06:53:29Z</time>
      </trkpt>
      <trkpt lat="40.5794160" lon="-2.7398460">
        <ele>862.6</ele>
        <time>2019-07-07T06:53:33Z</time>
      </trkpt>
      <trkpt lat="40.5793280" lon="-2.7399260">
        <ele>863.4</ele>
        <time>2019-07-07T06:53:36Z</time>
      </trkpt>
      <trkpt lat="40.5793040" lon="-2.7399570">
        <ele>863.6</ele>
        <time>2019-07-07T06:53:37Z</time>
      </trkpt>
      <trkpt lat="40.5792330" lon="-2.7400440">
        <ele>864.4</ele>
        <time>2019-07-07T06:53:40Z</time>
      </trkpt>
      <trkpt lat="40.5791900" lon="-2.7401030">
        <ele>864.8</ele>
        <time>2019-07-07T06:53:42Z</time>
      </trkpt>
      <trkpt lat="40.5791130" lon="-2.7402860">
        <ele>865.8</ele>
        <time>2019-07-07T06:53:47Z</time>
      </trkpt>
      <trkpt lat="40.5790710" lon="-2.7404910">
        <ele>866.8</ele>
        <time>2019-07-07T06:53:52Z</time>
      </trkpt>
      <trkpt lat="40.5790370" lon="-2.7406500">
        <ele>868.0</ele>
        <time>2019-07-07T06:53:56Z</time>
      </trkpt>
      <trkpt lat="40.5789730" lon="-2.7408410">
        <ele>869.0</ele>
        <time>2019-07-07T06:54:01Z</time>
      </trkpt>
      <trkpt lat="40.5789510" lon="-2.7409610">
        <ele>869.4</ele>
        <time>2019-07-07T06:54:04Z</time>
      </trkpt>
      <trkpt lat="40.5789070" lon="-2.7410690">
        <ele>870.2</ele>
        <time>2019-07-07T06:54:07Z</time>
      </trkpt>
      <trkpt lat="40.5788680" lon="-2.7411320">
        <ele>870.8</ele>
        <time>2019-07-07T06:54:09Z</time>
      </trkpt>
      <trkpt lat="40.5788350" lon="-2.7411980">
        <ele>871.4</ele>
        <time>2019-07-07T06:54:11Z</time>
      </trkpt>
      <trkpt lat="40.5787710" lon="-2.7412780">
        <ele>872.0</ele>
        <time>2019-07-07T06:54:14Z</time>
      </trkpt>
      <trkpt lat="40.5787510" lon="-2.7413090">
        <ele>872.4</ele>
        <time>2019-07-07T06:54:15Z</time>
      </trkpt>
      <trkpt lat="40.5786590" lon="-2.7414160">
        <ele>873.4</ele>
        <time>2019-07-07T06:54:19Z</time>
      </trkpt>
      <trkpt lat="40.5786170" lon="-2.7414760">
        <ele>874.0</ele>
        <time>2019-07-07T06:54:21Z</time>
      </trkpt>
      <trkpt lat="40.5785760" lon="-2.7415390">
        <ele>874.4</ele>
        <time>2019-07-07T06:54:23Z</time>
      </trkpt>
      <trkpt lat="40.5784690" lon="-2.7417390">
        <ele>875.4</ele>
        <time>2019-07-07T06:54:29Z</time>
      </trkpt>
      <trkpt lat="40.5784360" lon="-2.7418090">
        <ele>876.0</ele>
        <time>2019-07-07T06:54:31Z</time>
      </trkpt>
      <trkpt lat="40.5783760" lon="-2.7419540">
        <ele>876.4</ele>
        <time>2019-07-07T06:54:35Z</time>
      </trkpt>
      <trkpt lat="40.5783280" lon="-2.7421120">
        <ele>877.0</ele>
        <time>2019-07-07T06:54:39Z</time>
      </trkpt>
      <trkpt lat="40.5783040" lon="-2.7421900">
        <ele>877.4</ele>
        <time>2019-07-07T06:54:41Z</time>
      </trkpt>
      <trkpt lat="40.5782690" lon="-2.7423500">
        <ele>878.6</ele>
        <time>2019-07-07T06:54:45Z</time>
      </trkpt>
      <trkpt lat="40.5782450" lon="-2.7424720">
        <ele>879.2</ele>
        <time>2019-07-07T06:54:48Z</time>
      </trkpt>
      <trkpt lat="40.5782390" lon="-2.7425550">
        <ele>879.8</ele>
        <time>2019-07-07T06:54:50Z</time>
      </trkpt>
      <trkpt lat="40.5782310" lon="-2.7427490">
        <ele>880.8</ele>
        <time>2019-07-07T06:54:55Z</time>
      </trkpt>
      <trkpt lat="40.5782050" lon="-2.7429380">
        <ele>882.0</ele>
        <time>2019-07-07T06:55:00Z</time>
      </trkpt>
      <trkpt lat="40.5781950" lon="-2.7430150">
        <ele>882.2</ele>
        <time>2019-07-07T06:55:02Z</time>
      </trkpt>
      <trkpt lat="40.5781640" lon="-2.7431710">
        <ele>883.0</ele>
        <time>2019-07-07T06:55:06Z</time>
      </trkpt>
      <trkpt lat="40.5781120" lon="-2.7432810">
        <ele>883.6</ele>
        <time>2019-07-07T06:55:09Z</time>
      </trkpt>
      <trkpt lat="40.5780360" lon="-2.7433750">
        <ele>884.0</ele>
        <time>2019-07-07T06:55:12Z</time>
      </trkpt>
      <trkpt lat="40.5779170" lon="-2.7434830">
        <ele>884.8</ele>
        <time>2019-07-07T06:55:16Z</time>
      </trkpt>
      <trkpt lat="40.5778500" lon="-2.7435250">
        <ele>885.0</ele>
        <time>2019-07-07T06:55:18Z</time>
      </trkpt>
      <trkpt lat="40.5776680" lon="-2.7436230">
        <ele>885.4</ele>
        <time>2019-07-07T06:55:23Z</time>
      </trkpt>
      <trkpt lat="40.5775250" lon="-2.7437050">
        <ele>886.0</ele>
        <time>2019-07-07T06:55:27Z</time>
      </trkpt>
      <trkpt lat="40.5773100" lon="-2.7438300">
        <ele>887.2</ele>
        <time>2019-07-07T06:55:33Z</time>
      </trkpt>
      <trkpt lat="40.5772750" lon="-2.7438540">
        <ele>887.2</ele>
        <time>2019-07-07T06:55:34Z</time>
      </trkpt>
      <trkpt lat="40.5769830" lon="-2.7440070">
        <ele>888.2</ele>
        <time>2019-07-07T06:55:42Z</time>
      </trkpt>
      <trkpt lat="40.5769450" lon="-2.7440280">
        <ele>888.4</ele>
        <time>2019-07-07T06:55:43Z</time>
      </trkpt>
      <trkpt lat="40.5765800" lon="-2.7441790">
        <ele>889.2</ele>
        <time>2019-07-07T06:55:52Z</time>
      </trkpt>
      <trkpt lat="40.5764960" lon="-2.7442110">
        <ele>889.6</ele>
        <time>2019-07-07T06:55:54Z</time>
      </trkpt>
      <trkpt lat="40.5763660" lon="-2.7442400">
        <ele>889.8</ele>
        <time>2019-07-07T06:55:57Z</time>
      </trkpt>
      <trkpt lat="40.5761950" lon="-2.7442810">
        <ele>890.2</ele>
        <time>2019-07-07T06:56:01Z</time>
      </trkpt>
      <trkpt lat="40.5761550" lon="-2.7442980">
        <ele>890.2</ele>
        <time>2019-07-07T06:56:02Z</time>
      </trkpt>
      <trkpt lat="40.5759070" lon="-2.7443690">
        <ele>891.4</ele>
        <time>2019-07-07T06:56:08Z</time>
      </trkpt>
      <trkpt lat="40.5756240" lon="-2.7445040">
        <ele>892.4</ele>
        <time>2019-07-07T06:56:15Z</time>
      </trkpt>
      <trkpt lat="40.5755860" lon="-2.7445300">
        <ele>892.6</ele>
        <time>2019-07-07T06:56:16Z</time>
      </trkpt>
      <trkpt lat="40.5754000" lon="-2.7446790">
        <ele>893.2</ele>
        <time>2019-07-07T06:56:21Z</time>
      </trkpt>
      <trkpt lat="40.5752580" lon="-2.7447960">
        <ele>894.0</ele>
        <time>2019-07-07T06:56:25Z</time>
      </trkpt>
      <trkpt lat="40.5751930" lon="-2.7448580">
        <ele>894.4</ele>
        <time>2019-07-07T06:56:27Z</time>
      </trkpt>
      <trkpt lat="40.5750260" lon="-2.7449780">
        <ele>895.4</ele>
        <time>2019-07-07T06:56:32Z</time>
      </trkpt>
      <trkpt lat="40.5749950" lon="-2.7450040">
        <ele>895.6</ele>
        <time>2019-07-07T06:56:33Z</time>
      </trkpt>
      <trkpt lat="40.5748120" lon="-2.7451480">
        <ele>896.6</ele>
        <time>2019-07-07T06:56:39Z</time>
      </trkpt>
      <trkpt lat="40.5747850" lon="-2.7451750">
        <ele>896.8</ele>
        <time>2019-07-07T06:56:40Z</time>
      </trkpt>
      <trkpt lat="40.5746220" lon="-2.7453220">
        <ele>897.6</ele>
        <time>2019-07-07T06:56:46Z</time>
      </trkpt>
      <trkpt lat="40.5745930" lon="-2.7453460">
        <ele>898.0</ele>
        <time>2019-07-07T06:56:47Z</time>
      </trkpt>
      <trkpt lat="40.5744390" lon="-2.7454740">
        <ele>899.0</ele>
        <time>2019-07-07T06:56:52Z</time>
      </trkpt>
      <trkpt lat="40.5743810" lon="-2.7455280">
        <ele>899.4</ele>
        <time>2019-07-07T06:56:54Z</time>
      </trkpt>
      <trkpt lat="40.5742640" lon="-2.7456450">
        <ele>900.2</ele>
        <time>2019-07-07T06:56:58Z</time>
      </trkpt>
      <trkpt lat="40.5741630" lon="-2.7457950">
        <ele>900.8</ele>
        <time>2019-07-07T06:57:02Z</time>
      </trkpt>
      <trkpt lat="40.5741270" lon="-2.7458880">
        <ele>901.2</ele>
        <time>2019-07-07T06:57:04Z</time>
      </trkpt>
      <trkpt lat="40.5740580" lon="-2.7461850">
        <ele>902.2</ele>
        <time>2019-07-07T06:57:10Z</time>
      </trkpt>
      <trkpt lat="40.5740480" lon="-2.7462350">
        <ele>902.4</ele>
        <time>2019-07-07T06:57:11Z</time>
      </trkpt>
      <trkpt lat="40.5739840" lon="-2.7465230">
        <ele>903.4</ele>
        <time>2019-07-07T06:57:17Z</time>
      </trkpt>
      <trkpt lat="40.5739580" lon="-2.7466180">
        <ele>903.8</ele>
        <time>2019-07-07T06:57:19Z</time>
      </trkpt>
      <trkpt lat="40.5738830" lon="-2.7468500">
        <ele>904.4</ele>
        <time>2019-07-07T06:57:24Z</time>
      </trkpt>
      <trkpt lat="40.5738300" lon="-2.7469780">
        <ele>905.0</ele>
        <time>2019-07-07T06:57:27Z</time>
      </trkpt>
      <trkpt lat="40.5737700" lon="-2.7470890">
        <ele>905.6</ele>
        <time>2019-07-07T06:57:30Z</time>
      </trkpt>
      <trkpt lat="40.5736480" lon="-2.7472980">
        <ele>906.6</ele>
        <time>2019-07-07T06:57:36Z</time>
      </trkpt>
      <trkpt lat="40.5736240" lon="-2.7473280">
        <ele>906.8</ele>
        <time>2019-07-07T06:57:37Z</time>
      </trkpt>
      <trkpt lat="40.5735110" lon="-2.7474890">
        <ele>907.8</ele>
        <time>2019-07-07T06:57:42Z</time>
      </trkpt>
      <trkpt lat="40.5734510" lon="-2.7475930">
        <ele>908.2</ele>
        <time>2019-07-07T06:57:45Z</time>
      </trkpt>
      <trkpt lat="40.5733780" lon="-2.7476880">
        <ele>908.8</ele>
        <time>2019-07-07T06:57:48Z</time>
      </trkpt>
      <trkpt lat="40.5732900" lon="-2.7478260">
        <ele>909.6</ele>
        <time>2019-07-07T06:57:52Z</time>
      </trkpt>
      <trkpt lat="40.5732500" lon="-2.7478980">
        <ele>910.0</ele>
        <time>2019-07-07T06:57:54Z</time>
      </trkpt>
      <trkpt lat="40.5731130" lon="-2.7480950">
        <ele>911.2</ele>
        <time>2019-07-07T06:58:00Z</time>
      </trkpt>
      <trkpt lat="40.5730870" lon="-2.7481290">
        <ele>911.4</ele>
        <time>2019-07-07T06:58:01Z</time>
      </trkpt>
      <trkpt lat="40.5729250" lon="-2.7483260">
        <ele>912.2</ele>
        <time>2019-07-07T06:58:07Z</time>
      </trkpt>
      <trkpt lat="40.5728470" lon="-2.7484270">
        <ele>912.8</ele>
        <time>2019-07-07T06:58:10Z</time>
      </trkpt>
      <trkpt lat="40.5727920" lon="-2.7484920">
        <ele>913.4</ele>
        <time>2019-07-07T06:58:12Z</time>
      </trkpt>
      <trkpt lat="40.5726280" lon="-2.7486070">
        <ele>914.2</ele>
        <time>2019-07-07T06:58:17Z</time>
      </trkpt>
      <trkpt lat="40.5725900" lon="-2.7486200">
        <ele>914.4</ele>
        <time>2019-07-07T06:58:18Z</time>
      </trkpt>
      <trkpt lat="40.5723160" lon="-2.7486580">
        <ele>915.6</ele>
        <time>2019-07-07T06:58:25Z</time>
      </trkpt>
      <trkpt lat="40.5721520" lon="-2.7486610">
        <ele>916.0</ele>
        <time>2019-07-07T06:58:29Z</time>
      </trkpt>
      <trkpt lat="40.5720700" lon="-2.7486460">
        <ele>916.2</ele>
        <time>2019-07-07T06:58:31Z</time>
      </trkpt>
      <trkpt lat="40.5719080" lon="-2.7485760">
        <ele>916.2</ele>
        <time>2019-07-07T06:58:35Z</time>
      </trkpt>
      <trkpt lat="40.5717910" lon="-2.7484930">
        <ele>916.2</ele>
        <time>2019-07-07T06:58:38Z</time>
      </trkpt>
      <trkpt lat="40.5717530" lon="-2.7484610">
        <ele>916.4</ele>
        <time>2019-07-07T06:58:39Z</time>
      </trkpt>
      <trkpt lat="40.5717160" lon="-2.7484250">
        <ele>916.4</ele>
        <time>2019-07-07T06:58:40Z</time>
      </trkpt>
      <trkpt lat="40.5715450" lon="-2.7482230">
        <ele>916.8</ele>
        <time>2019-07-07T06:58:45Z</time>
      </trkpt>
      <trkpt lat="40.5713950" lon="-2.7480800">
        <ele>917.4</ele>
        <time>2019-07-07T06:58:49Z</time>
      </trkpt>
      <trkpt lat="40.5713100" lon="-2.7480360">
        <ele>917.6</ele>
        <time>2019-07-07T06:58:51Z</time>
      </trkpt>
      <trkpt lat="40.5712220" lon="-2.7480110">
        <ele>917.8</ele>
        <time>2019-07-07T06:58:53Z</time>
      </trkpt>
      <trkpt lat="40.5710020" lon="-2.7479830">
        <ele>918.4</ele>
        <time>2019-07-07T06:58:58Z</time>
      </trkpt>
      <trkpt lat="40.5706850" lon="-2.7479440">
        <ele>919.6</ele>
        <time>2019-07-07T06:59:06Z</time>
      </trkpt>
      <trkpt lat="40.5704650" lon="-2.7479180">
        <ele>920.6</ele>
        <time>2019-07-07T06:59:12Z</time>
      </trkpt>
      <trkpt lat="40.5703530" lon="-2.7479020">
        <ele>921.0</ele>
        <time>2019-07-07T06:59:15Z</time>
      </trkpt>
      <trkpt lat="40.5701680" lon="-2.7478670">
        <ele>921.8</ele>
        <time>2019-07-07T06:59:20Z</time>
      </trkpt>
      <trkpt lat="40.5699970" lon="-2.7478230">
        <ele>922.6</ele>
        <time>2019-07-07T06:59:25Z</time>
      </trkpt>
      <trkpt lat="40.5699290" lon="-2.7478050">
        <ele>922.8</ele>
        <time>2019-07-07T06:59:27Z</time>
      </trkpt>
      <trkpt lat="40.5697570" lon="-2.7477720">
        <ele>923.8</ele>
        <time>2019-07-07T06:59:32Z</time>
      </trkpt>
      <trkpt lat="40.5696550" lon="-2.7477500">
        <ele>924.4</ele>
        <time>2019-07-07T06:59:35Z</time>
      </trkpt>
      <trkpt lat="40.5695160" lon="-2.7477240">
        <ele>925.0</ele>
        <time>2019-07-07T06:59:39Z</time>
      </trkpt>
      <trkpt lat="40.5693450" lon="-2.7477000">
        <ele>926.0</ele>
        <time>2019-07-07T06:59:44Z</time>
      </trkpt>
      <trkpt lat="40.5693130" lon="-2.7476920">
        <ele>926.2</ele>
        <time>2019-07-07T06:59:45Z</time>
      </trkpt>
      <trkpt lat="40.5691880" lon="-2.7476700">
        <ele>927.4</ele>
        <time>2019-07-07T06:59:49Z</time>
      </trkpt>
      <trkpt lat="40.5691260" lon="-2.7476540">
        <ele>928.0</ele>
        <time>2019-07-07T06:59:51Z</time>
      </trkpt>
      <trkpt lat="40.5690580" lon="-2.7476370">
        <ele>928.6</ele>
        <time>2019-07-07T06:59:53Z</time>
      </trkpt>
      <trkpt lat="40.5688880" lon="-2.7475900">
        <ele>929.4</ele>
        <time>2019-07-07T06:59:58Z</time>
      </trkpt>
      <trkpt lat="40.5687920" lon="-2.7475240">
        <ele>929.6</ele>
        <time>2019-07-07T07:00:01Z</time>
      </trkpt>
      <trkpt lat="40.5686980" lon="-2.7474250">
        <ele>929.8</ele>
        <time>2019-07-07T07:00:04Z</time>
      </trkpt>
      <trkpt lat="40.5684470" lon="-2.7471140">
        <ele>929.8</ele>
        <time>2019-07-07T07:00:12Z</time>
      </trkpt>
      <trkpt lat="40.5683280" lon="-2.7469800">
        <ele>930.4</ele>
        <time>2019-07-07T07:00:16Z</time>
      </trkpt>
      <trkpt lat="40.5683010" lon="-2.7469550">
        <ele>930.4</ele>
        <time>2019-07-07T07:00:17Z</time>
      </trkpt>
      <trkpt lat="40.5682770" lon="-2.7469340">
        <ele>930.4</ele>
        <time>2019-07-07T07:00:18Z</time>
      </trkpt>
      <trkpt lat="40.5682010" lon="-2.7468840">
        <ele>930.6</ele>
        <time>2019-07-07T07:00:21Z</time>
      </trkpt>
      <trkpt lat="40.5680690" lon="-2.7468620">
        <ele>931.4</ele>
        <time>2019-07-07T07:00:26Z</time>
      </trkpt>
      <trkpt lat="40.5680260" lon="-2.7468660">
        <ele>931.6</ele>
        <time>2019-07-07T07:00:28Z</time>
      </trkpt>
      <trkpt lat="40.5679600" lon="-2.7468800">
        <ele>931.8</ele>
        <time>2019-07-07T07:00:32Z</time>
      </trkpt>
      <trkpt lat="40.5679190" lon="-2.7468890">
        <ele>932.0</ele>
        <time>2019-07-07T07:00:34Z</time>
      </trkpt>
      <trkpt lat="40.5678750" lon="-2.7469140">
        <ele>931.8</ele>
        <time>2019-07-07T07:00:36Z</time>
      </trkpt>
      <trkpt lat="40.5678290" lon="-2.7469430">
        <ele>932.0</ele>
        <time>2019-07-07T07:00:38Z</time>
      </trkpt>
      <trkpt lat="40.5677900" lon="-2.7469740">
        <ele>932.0</ele>
        <time>2019-07-07T07:00:40Z</time>
      </trkpt>
      <trkpt lat="40.5676930" lon="-2.7470480">
        <ele>932.2</ele>
        <time>2019-07-07T07:00:44Z</time>
      </trkpt>
      <trkpt lat="40.5675890" lon="-2.7471150">
        <ele>932.4</ele>
        <time>2019-07-07T07:00:47Z</time>
      </trkpt>
      <trkpt lat="40.5675530" lon="-2.7471340">
        <ele>932.6</ele>
        <time>2019-07-07T07:00:48Z</time>
      </trkpt>
      <trkpt lat="40.5674360" lon="-2.7471960">
        <ele>933.0</ele>
        <time>2019-07-07T07:00:51Z</time>
      </trkpt>
      <trkpt lat="40.5671250" lon="-2.7473320">
        <ele>932.8</ele>
        <time>2019-07-07T07:00:58Z</time>
      </trkpt>
      <trkpt lat="40.5667330" lon="-2.7474990">
        <ele>933.2</ele>
        <time>2019-07-07T07:01:06Z</time>
      </trkpt>
      <trkpt lat="40.5666340" lon="-2.7475410">
        <ele>933.4</ele>
        <time>2019-07-07T07:01:08Z</time>
      </trkpt>
      <trkpt lat="40.5664380" lon="-2.7476380">
        <ele>934.0</ele>
        <time>2019-07-07T07:01:12Z</time>
      </trkpt>
      <trkpt lat="40.5663940" lon="-2.7476750">
        <ele>934.0</ele>
        <time>2019-07-07T07:01:13Z</time>
      </trkpt>
      <trkpt lat="40.5662770" lon="-2.7478140">
        <ele>934.2</ele>
        <time>2019-07-07T07:01:16Z</time>
      </trkpt>
      <trkpt lat="40.5662110" lon="-2.7479250">
        <ele>934.2</ele>
        <time>2019-07-07T07:01:18Z</time>
      </trkpt>
      <trkpt lat="40.5661510" lon="-2.7480360">
        <ele>934.6</ele>
        <time>2019-07-07T07:01:20Z</time>
      </trkpt>
      <trkpt lat="40.5659210" lon="-2.7484500">
        <ele>935.6</ele>
        <time>2019-07-07T07:01:28Z</time>
      </trkpt>
      <trkpt lat="40.5658130" lon="-2.7486430">
        <ele>936.6</ele>
        <time>2019-07-07T07:01:32Z</time>
      </trkpt>
      <trkpt lat="40.5657830" lon="-2.7486880">
        <ele>936.8</ele>
        <time>2019-07-07T07:01:33Z</time>
      </trkpt>
      <trkpt lat="40.5656850" lon="-2.7488170">
        <ele>937.4</ele>
        <time>2019-07-07T07:01:36Z</time>
      </trkpt>
      <trkpt lat="40.5655810" lon="-2.7489490">
        <ele>937.8</ele>
        <time>2019-07-07T07:01:39Z</time>
      </trkpt>
      <trkpt lat="40.5653470" lon="-2.7492570">
        <ele>939.0</ele>
        <time>2019-07-07T07:01:46Z</time>
      </trkpt>
      <trkpt lat="40.5652240" lon="-2.7494530">
        <ele>939.6</ele>
        <time>2019-07-07T07:01:50Z</time>
      </trkpt>
      <trkpt lat="40.5651630" lon="-2.7496370">
        <ele>940.0</ele>
        <time>2019-07-07T07:01:53Z</time>
      </trkpt>
      <trkpt lat="40.5651520" lon="-2.7497060">
        <ele>940.0</ele>
        <time>2019-07-07T07:01:54Z</time>
      </trkpt>
      <trkpt lat="40.5651460" lon="-2.7497770">
        <ele>940.2</ele>
        <time>2019-07-07T07:01:55Z</time>
      </trkpt>
      <trkpt lat="40.5651330" lon="-2.7499980">
        <ele>940.2</ele>
        <time>2019-07-07T07:01:58Z</time>
      </trkpt>
      <trkpt lat="40.5651190" lon="-2.7503860">
        <ele>940.0</ele>
        <time>2019-07-07T07:02:03Z</time>
      </trkpt>
      <trkpt lat="40.5651030" lon="-2.7504630">
        <ele>939.8</ele>
        <time>2019-07-07T07:02:04Z</time>
      </trkpt>
      <trkpt lat="40.5649980" lon="-2.7506520">
        <ele>939.6</ele>
        <time>2019-07-07T07:02:07Z</time>
      </trkpt>
      <trkpt lat="40.5648910" lon="-2.7507340">
        <ele>939.2</ele>
        <time>2019-07-07T07:02:09Z</time>
      </trkpt>
      <trkpt lat="40.5647720" lon="-2.7508140">
        <ele>938.8</ele>
        <time>2019-07-07T07:02:11Z</time>
      </trkpt>
      <trkpt lat="40.5647090" lon="-2.7508550">
        <ele>938.6</ele>
        <time>2019-07-07T07:02:12Z</time>
      </trkpt>
      <trkpt lat="40.5645140" lon="-2.7509770">
        <ele>938.2</ele>
        <time>2019-07-07T07:02:15Z</time>
      </trkpt>
      <trkpt lat="40.5643780" lon="-2.7510560">
        <ele>938.0</ele>
        <time>2019-07-07T07:02:17Z</time>
      </trkpt>
      <trkpt lat="40.5643110" lon="-2.7510990">
        <ele>938.0</ele>
        <time>2019-07-07T07:02:18Z</time>
      </trkpt>
      <trkpt lat="40.5641790" lon="-2.7511950">
        <ele>937.6</ele>
        <time>2019-07-07T07:02:20Z</time>
      </trkpt>
      <trkpt lat="40.5641130" lon="-2.7512450">
        <ele>937.6</ele>
        <time>2019-07-07T07:02:21Z</time>
      </trkpt>
      <trkpt lat="40.5637500" lon="-2.7515730">
        <ele>937.4</ele>
        <time>2019-07-07T07:02:27Z</time>
      </trkpt>
      <trkpt lat="40.5633280" lon="-2.7520290">
        <ele>937.4</ele>
        <time>2019-07-07T07:02:35Z</time>
      </trkpt>
      <trkpt lat="40.5632820" lon="-2.7520830">
        <ele>937.6</ele>
        <time>2019-07-07T07:02:36Z</time>
      </trkpt>
      <trkpt lat="40.5631530" lon="-2.7522420">
        <ele>938.0</ele>
        <time>2019-07-07T07:02:39Z</time>
      </trkpt>
      <trkpt lat="40.5630620" lon="-2.7524400">
        <ele>938.0</ele>
        <time>2019-07-07T07:02:42Z</time>
      </trkpt>
      <trkpt lat="40.5630040" lon="-2.7527740">
        <ele>937.8</ele>
        <time>2019-07-07T07:02:46Z</time>
      </trkpt>
      <trkpt lat="40.5629990" lon="-2.7528670">
        <ele>937.8</ele>
        <time>2019-07-07T07:02:47Z</time>
      </trkpt>
      <trkpt lat="40.5629860" lon="-2.7531580">
        <ele>936.8</ele>
        <time>2019-07-07T07:02:50Z</time>
      </trkpt>
      <trkpt lat="40.5629830" lon="-2.7532570">
        <ele>936.6</ele>
        <time>2019-07-07T07:02:51Z</time>
      </trkpt>
      <trkpt lat="40.5629730" lon="-2.7534540">
        <ele>936.0</ele>
        <time>2019-07-07T07:02:53Z</time>
      </trkpt>
      <trkpt lat="40.5629520" lon="-2.7536430">
        <ele>935.4</ele>
        <time>2019-07-07T07:02:55Z</time>
      </trkpt>
      <trkpt lat="40.5629010" lon="-2.7538220">
        <ele>935.2</ele>
        <time>2019-07-07T07:02:57Z</time>
      </trkpt>
      <trkpt lat="40.5627070" lon="-2.7542020">
        <ele>935.2</ele>
        <time>2019-07-07T07:03:02Z</time>
      </trkpt>
      <trkpt lat="40.5624250" lon="-2.7545300">
        <ele>935.4</ele>
        <time>2019-07-07T07:03:08Z</time>
      </trkpt>
      <trkpt lat="40.5622650" lon="-2.7547710">
        <ele>935.8</ele>
        <time>2019-07-07T07:03:12Z</time>
      </trkpt>
      <trkpt lat="40.5621960" lon="-2.7549000">
        <ele>936.0</ele>
        <time>2019-07-07T07:03:14Z</time>
      </trkpt>
      <trkpt lat="40.5620490" lon="-2.7552430">
        <ele>936.4</ele>
        <time>2019-07-07T07:03:19Z</time>
      </trkpt>
      <trkpt lat="40.5619950" lon="-2.7553820">
        <ele>936.8</ele>
        <time>2019-07-07T07:03:21Z</time>
      </trkpt>
      <trkpt lat="40.5617650" lon="-2.7560230">
        <ele>937.4</ele>
        <time>2019-07-07T07:03:30Z</time>
      </trkpt>
      <trkpt lat="40.5617340" lon="-2.7560870">
        <ele>937.4</ele>
        <time>2019-07-07T07:03:31Z</time>
      </trkpt>
      <trkpt lat="40.5616560" lon="-2.7561960">
        <ele>937.6</ele>
        <time>2019-07-07T07:03:33Z</time>
      </trkpt>
      <trkpt lat="40.5615490" lon="-2.7562570">
        <ele>937.8</ele>
        <time>2019-07-07T07:03:35Z</time>
      </trkpt>
      <trkpt lat="40.5613650" lon="-2.7562380">
        <ele>938.2</ele>
        <time>2019-07-07T07:03:38Z</time>
      </trkpt>
      <trkpt lat="40.5611390" lon="-2.7560660">
        <ele>938.2</ele>
        <time>2019-07-07T07:03:42Z</time>
      </trkpt>
      <trkpt lat="40.5609240" lon="-2.7557190">
        <ele>938.0</ele>
        <time>2019-07-07T07:03:47Z</time>
      </trkpt>
      <trkpt lat="40.5608270" lon="-2.7553820">
        <ele>937.4</ele>
        <time>2019-07-07T07:03:51Z</time>
      </trkpt>
      <trkpt lat="40.5608130" lon="-2.7552950">
        <ele>937.4</ele>
        <time>2019-07-07T07:03:52Z</time>
      </trkpt>
      <trkpt lat="40.5607880" lon="-2.7551200">
        <ele>937.0</ele>
        <time>2019-07-07T07:03:54Z</time>
      </trkpt>
      <trkpt lat="40.5607240" lon="-2.7548680">
        <ele>936.4</ele>
        <time>2019-07-07T07:03:57Z</time>
      </trkpt>
      <trkpt lat="40.5606950" lon="-2.7547880">
        <ele>936.2</ele>
        <time>2019-07-07T07:03:58Z</time>
      </trkpt>
      <trkpt lat="40.5606620" lon="-2.7547100">
        <ele>936.2</ele>
        <time>2019-07-07T07:03:59Z</time>
      </trkpt>
      <trkpt lat="40.5605450" lon="-2.7544820">
        <ele>935.8</ele>
        <time>2019-07-07T07:04:02Z</time>
      </trkpt>
      <trkpt lat="40.5605040" lon="-2.7544060">
        <ele>935.4</ele>
        <time>2019-07-07T07:04:03Z</time>
      </trkpt>
      <trkpt lat="40.5604620" lon="-2.7543290">
        <ele>935.2</ele>
        <time>2019-07-07T07:04:04Z</time>
      </trkpt>
      <trkpt lat="40.5602750" lon="-2.7540140">
        <ele>934.4</ele>
        <time>2019-07-07T07:04:08Z</time>
      </trkpt>
      <trkpt lat="40.5602360" lon="-2.7539280">
        <ele>934.2</ele>
        <time>2019-07-07T07:04:09Z</time>
      </trkpt>
      <trkpt lat="40.5601000" lon="-2.7536900">
        <ele>933.6</ele>
        <time>2019-07-07T07:04:12Z</time>
      </trkpt>
      <trkpt lat="40.5600520" lon="-2.7536120">
        <ele>933.4</ele>
        <time>2019-07-07T07:04:13Z</time>
      </trkpt>
      <trkpt lat="40.5599480" lon="-2.7534660">
        <ele>933.2</ele>
        <time>2019-07-07T07:04:15Z</time>
      </trkpt>
      <trkpt lat="40.5597710" lon="-2.7532640">
        <ele>932.6</ele>
        <time>2019-07-07T07:04:18Z</time>
      </trkpt>
      <trkpt lat="40.5596050" lon="-2.7530620">
        <ele>932.0</ele>
        <time>2019-07-07T07:04:21Z</time>
      </trkpt>
      <trkpt lat="40.5594450" lon="-2.7528820">
        <ele>931.4</ele>
        <time>2019-07-07T07:04:24Z</time>
      </trkpt>
      <trkpt lat="40.5593840" lon="-2.7528380">
        <ele>931.0</ele>
        <time>2019-07-07T07:04:25Z</time>
      </trkpt>
      <trkpt lat="40.5592480" lon="-2.7527790">
        <ele>930.4</ele>
        <time>2019-07-07T07:04:27Z</time>
      </trkpt>
      <trkpt lat="40.5590980" lon="-2.7527580">
        <ele>930.2</ele>
        <time>2019-07-07T07:04:29Z</time>
      </trkpt>
      <trkpt lat="40.5588650" lon="-2.7527230">
        <ele>929.8</ele>
        <time>2019-07-07T07:04:32Z</time>
      </trkpt>
      <trkpt lat="40.5587160" lon="-2.7526740">
        <ele>929.6</ele>
        <time>2019-07-07T07:04:34Z</time>
      </trkpt>
      <trkpt lat="40.5585830" lon="-2.7526020">
        <ele>929.4</ele>
        <time>2019-07-07T07:04:36Z</time>
      </trkpt>
      <trkpt lat="40.5584650" lon="-2.7525140">
        <ele>929.2</ele>
        <time>2019-07-07T07:04:38Z</time>
      </trkpt>
      <trkpt lat="40.5583500" lon="-2.7524260">
        <ele>929.2</ele>
        <time>2019-07-07T07:04:40Z</time>
      </trkpt>
      <trkpt lat="40.5581670" lon="-2.7523410">
        <ele>929.4</ele>
        <time>2019-07-07T07:04:43Z</time>
      </trkpt>
      <trkpt lat="40.5580420" lon="-2.7523100">
        <ele>929.2</ele>
        <time>2019-07-07T07:04:45Z</time>
      </trkpt>
      <trkpt lat="40.5577980" lon="-2.7522990">
        <ele>929.4</ele>
        <time>2019-07-07T07:04:49Z</time>
      </trkpt>
      <trkpt lat="40.5575020" lon="-2.7523060">
        <ele>929.8</ele>
        <time>2019-07-07T07:04:54Z</time>
      </trkpt>
      <trkpt lat="40.5574460" lon="-2.7522960">
        <ele>929.8</ele>
        <time>2019-07-07T07:04:55Z</time>
      </trkpt>
      <trkpt lat="40.5573930" lon="-2.7522810">
        <ele>930.0</ele>
        <time>2019-07-07T07:04:56Z</time>
      </trkpt>
      <trkpt lat="40.5571090" lon="-2.7521250">
        <ele>930.8</ele>
        <time>2019-07-07T07:05:02Z</time>
      </trkpt>
      <trkpt lat="40.5570670" lon="-2.7520820">
        <ele>931.0</ele>
        <time>2019-07-07T07:05:03Z</time>
      </trkpt>
      <trkpt lat="40.5569870" lon="-2.7519890">
        <ele>931.0</ele>
        <time>2019-07-07T07:05:05Z</time>
      </trkpt>
      <trkpt lat="40.5569100" lon="-2.7518950">
        <ele>931.4</ele>
        <time>2019-07-07T07:05:07Z</time>
      </trkpt>
      <trkpt lat="40.5568680" lon="-2.7518520">
        <ele>931.4</ele>
        <time>2019-07-07T07:05:08Z</time>
      </trkpt>
      <trkpt lat="40.5567390" lon="-2.7517330">
        <ele>932.0</ele>
        <time>2019-07-07T07:05:11Z</time>
      </trkpt>
      <trkpt lat="40.5566190" lon="-2.7516100">
        <ele>932.4</ele>
        <time>2019-07-07T07:05:14Z</time>
      </trkpt>
      <trkpt lat="40.5565360" lon="-2.7515320">
        <ele>932.6</ele>
        <time>2019-07-07T07:05:16Z</time>
      </trkpt>
      <trkpt lat="40.5563590" lon="-2.7513840">
        <ele>933.0</ele>
        <time>2019-07-07T07:05:20Z</time>
      </trkpt>
      <trkpt lat="40.5561510" lon="-2.7511790">
        <ele>933.4</ele>
        <time>2019-07-07T07:05:25Z</time>
      </trkpt>
      <trkpt lat="40.5558850" lon="-2.7507770">
        <ele>933.8</ele>
        <time>2019-07-07T07:05:33Z</time>
      </trkpt>
      <trkpt lat="40.5557500" lon="-2.7505780">
        <ele>934.0</ele>
        <time>2019-07-07T07:05:37Z</time>
      </trkpt>
      <trkpt lat="40.5556790" lon="-2.7504790">
        <ele>934.2</ele>
        <time>2019-07-07T07:05:39Z</time>
      </trkpt>
      <trkpt lat="40.5553580" lon="-2.7501460">
        <ele>934.8</ele>
        <time>2019-07-07T07:05:47Z</time>
      </trkpt>
      <trkpt lat="40.5553160" lon="-2.7501030">
        <ele>935.0</ele>
        <time>2019-07-07T07:05:48Z</time>
      </trkpt>
      <trkpt lat="40.5550960" lon="-2.7499250">
        <ele>935.4</ele>
        <time>2019-07-07T07:05:53Z</time>
      </trkpt>
      <trkpt lat="40.5550510" lon="-2.7499010">
        <ele>935.6</ele>
        <time>2019-07-07T07:05:54Z</time>
      </trkpt>
      <trkpt lat="40.5549570" lon="-2.7498680">
        <ele>935.6</ele>
        <time>2019-07-07T07:05:56Z</time>
      </trkpt>
      <trkpt lat="40.5548170" lon="-2.7498730">
        <ele>935.8</ele>
        <time>2019-07-07T07:05:59Z</time>
      </trkpt>
      <trkpt lat="40.5547290" lon="-2.7499150">
        <ele>936.0</ele>
        <time>2019-07-07T07:06:01Z</time>
      </trkpt>
      <trkpt lat="40.5546470" lon="-2.7499740">
        <ele>936.4</ele>
        <time>2019-07-07T07:06:03Z</time>
      </trkpt>
      <trkpt lat="40.5546070" lon="-2.7500070">
        <ele>936.6</ele>
        <time>2019-07-07T07:06:04Z</time>
      </trkpt>
      <trkpt lat="40.5545300" lon="-2.7500840">
        <ele>937.0</ele>
        <time>2019-07-07T07:06:06Z</time>
      </trkpt>
      <trkpt lat="40.5543030" lon="-2.7503170">
        <ele>937.8</ele>
        <time>2019-07-07T07:06:12Z</time>
      </trkpt>
      <trkpt lat="40.5542220" lon="-2.7503920">
        <ele>938.0</ele>
        <time>2019-07-07T07:06:14Z</time>
      </trkpt>
      <trkpt lat="40.5540290" lon="-2.7505950">
        <ele>938.4</ele>
        <time>2019-07-07T07:06:19Z</time>
      </trkpt>
      <trkpt lat="40.5539130" lon="-2.7507100">
        <ele>938.6</ele>
        <time>2019-07-07T07:06:22Z</time>
      </trkpt>
      <trkpt lat="40.5536930" lon="-2.7508550">
        <ele>939.0</ele>
        <time>2019-07-07T07:06:27Z</time>
      </trkpt>
      <trkpt lat="40.5536450" lon="-2.7508770">
        <ele>939.0</ele>
        <time>2019-07-07T07:06:28Z</time>
      </trkpt>
      <trkpt lat="40.5535960" lon="-2.7508920">
        <ele>939.4</ele>
        <time>2019-07-07T07:06:29Z</time>
      </trkpt>
      <trkpt lat="40.5534940" lon="-2.7508850">
        <ele>939.6</ele>
        <time>2019-07-07T07:06:31Z</time>
      </trkpt>
      <trkpt lat="40.5533930" lon="-2.7508330">
        <ele>939.8</ele>
        <time>2019-07-07T07:06:33Z</time>
      </trkpt>
      <trkpt lat="40.5532510" lon="-2.7507260">
        <ele>940.0</ele>
        <time>2019-07-07T07:06:36Z</time>
      </trkpt>
      <trkpt lat="40.5529380" lon="-2.7504150">
        <ele>940.0</ele>
        <time>2019-07-07T07:06:43Z</time>
      </trkpt>
      <trkpt lat="40.5526310" lon="-2.7501970">
        <ele>939.8</ele>
        <time>2019-07-07T07:06:49Z</time>
      </trkpt>
      <trkpt lat="40.5524050" lon="-2.7501110">
        <ele>939.4</ele>
        <time>2019-07-07T07:06:53Z</time>
      </trkpt>
      <trkpt lat="40.5522890" lon="-2.7500870">
        <ele>939.4</ele>
        <time>2019-07-07T07:06:55Z</time>
      </trkpt>
      <trkpt lat="40.5521050" lon="-2.7500670">
        <ele>939.0</ele>
        <time>2019-07-07T07:06:58Z</time>
      </trkpt>
      <trkpt lat="40.5519780" lon="-2.7500570">
        <ele>938.4</ele>
        <time>2019-07-07T07:07:00Z</time>
      </trkpt>
      <trkpt lat="40.5518430" lon="-2.7500430">
        <ele>937.8</ele>
        <time>2019-07-07T07:07:02Z</time>
      </trkpt>
      <trkpt lat="40.5517020" lon="-2.7500460">
        <ele>937.2</ele>
        <time>2019-07-07T07:07:04Z</time>
      </trkpt>
      <trkpt lat="40.5516280" lon="-2.7500500">
        <ele>936.6</ele>
        <time>2019-07-07T07:07:05Z</time>
      </trkpt>
      <trkpt lat="40.5514010" lon="-2.7500520">
        <ele>935.8</ele>
        <time>2019-07-07T07:07:08Z</time>
      </trkpt>
      <trkpt lat="40.5513210" lon="-2.7500590">
        <ele>935.6</ele>
        <time>2019-07-07T07:07:09Z</time>
      </trkpt>
      <trkpt lat="40.5510720" lon="-2.7501050">
        <ele>934.4</ele>
        <time>2019-07-07T07:07:12Z</time>
      </trkpt>
      <trkpt lat="40.5509010" lon="-2.7501490">
        <ele>933.8</ele>
        <time>2019-07-07T07:07:14Z</time>
      </trkpt>
      <trkpt lat="40.5508130" lon="-2.7501720">
        <ele>933.4</ele>
        <time>2019-07-07T07:07:15Z</time>
      </trkpt>
      <trkpt lat="40.5507200" lon="-2.7501940">
        <ele>933.0</ele>
        <time>2019-07-07T07:07:16Z</time>
      </trkpt>
      <trkpt lat="40.5505330" lon="-2.7502470">
        <ele>931.6</ele>
        <time>2019-07-07T07:07:18Z</time>
      </trkpt>
      <trkpt lat="40.5503440" lon="-2.7503060">
        <ele>930.8</ele>
        <time>2019-07-07T07:07:20Z</time>
      </trkpt>
      <trkpt lat="40.5502540" lon="-2.7503480">
        <ele>930.4</ele>
        <time>2019-07-07T07:07:21Z</time>
      </trkpt>
      <trkpt lat="40.5500890" lon="-2.7504810">
        <ele>929.4</ele>
        <time>2019-07-07T07:07:23Z</time>
      </trkpt>
      <trkpt lat="40.5500190" lon="-2.7505650">
        <ele>929.0</ele>
        <time>2019-07-07T07:07:24Z</time>
      </trkpt>
      <trkpt lat="40.5499540" lon="-2.7506540">
        <ele>928.6</ele>
        <time>2019-07-07T07:07:25Z</time>
      </trkpt>
      <trkpt lat="40.5498310" lon="-2.7508390">
        <ele>928.0</ele>
        <time>2019-07-07T07:07:27Z</time>
      </trkpt>
      <trkpt lat="40.5494600" lon="-2.7513400">
        <ele>926.8</ele>
        <time>2019-07-07T07:07:33Z</time>
      </trkpt>
      <trkpt lat="40.5492030" lon="-2.7516360">
        <ele>926.2</ele>
        <time>2019-07-07T07:07:37Z</time>
      </trkpt>
      <trkpt lat="40.5490740" lon="-2.7517680">
        <ele>926.0</ele>
        <time>2019-07-07T07:07:39Z</time>
      </trkpt>
      <trkpt lat="40.5490100" lon="-2.7518310">
        <ele>925.8</ele>
        <time>2019-07-07T07:07:40Z</time>
      </trkpt>
      <trkpt lat="40.5488920" lon="-2.7519590">
        <ele>925.8</ele>
        <time>2019-07-07T07:07:42Z</time>
      </trkpt>
      <trkpt lat="40.5488420" lon="-2.7520310">
        <ele>925.6</ele>
        <time>2019-07-07T07:07:43Z</time>
      </trkpt>
      <trkpt lat="40.5487970" lon="-2.7521100">
        <ele>925.6</ele>
        <time>2019-07-07T07:07:44Z</time>
      </trkpt>
      <trkpt lat="40.5487610" lon="-2.7521960">
        <ele>925.6</ele>
        <time>2019-07-07T07:07:45Z</time>
      </trkpt>
      <trkpt lat="40.5487340" lon="-2.7523890">
        <ele>925.4</ele>
        <time>2019-07-07T07:07:47Z</time>
      </trkpt>
      <trkpt lat="40.5487870" lon="-2.7525730">
        <ele>925.0</ele>
        <time>2019-07-07T07:07:49Z</time>
      </trkpt>
      <trkpt lat="40.5489530" lon="-2.7527700">
        <ele>925.0</ele>
        <time>2019-07-07T07:07:52Z</time>
      </trkpt>
      <trkpt lat="40.5490700" lon="-2.7528790">
        <ele>925.0</ele>
        <time>2019-07-07T07:07:54Z</time>
      </trkpt>
      <trkpt lat="40.5492280" lon="-2.7530550">
        <ele>925.0</ele>
        <time>2019-07-07T07:07:57Z</time>
      </trkpt>
      <trkpt lat="40.5492640" lon="-2.7531280">
        <ele>925.2</ele>
        <time>2019-07-07T07:07:58Z</time>
      </trkpt>
      <trkpt lat="40.5492690" lon="-2.7533700">
        <ele>925.4</ele>
        <time>2019-07-07T07:08:01Z</time>
      </trkpt>
      <trkpt lat="40.5491560" lon="-2.7535350">
        <ele>925.6</ele>
        <time>2019-07-07T07:08:04Z</time>
      </trkpt>
      <trkpt lat="40.5490510" lon="-2.7535940">
        <ele>925.8</ele>
        <time>2019-07-07T07:08:06Z</time>
      </trkpt>
      <trkpt lat="40.5488360" lon="-2.7536940">
        <ele>926.0</ele>
        <time>2019-07-07T07:08:10Z</time>
      </trkpt>
      <trkpt lat="40.5482760" lon="-2.7539200">
        <ele>925.8</ele>
        <time>2019-07-07T07:08:20Z</time>
      </trkpt>
      <trkpt lat="40.5478200" lon="-2.7541170">
        <ele>925.2</ele>
        <time>2019-07-07T07:08:28Z</time>
      </trkpt>
      <trkpt lat="40.5475240" lon="-2.7542160">
        <ele>924.6</ele>
        <time>2019-07-07T07:08:33Z</time>
      </trkpt>
      <trkpt lat="40.5474600" lon="-2.7542160">
        <ele>924.4</ele>
        <time>2019-07-07T07:08:34Z</time>
      </trkpt>
      <trkpt lat="40.5472720" lon="-2.7541430">
        <ele>923.8</ele>
        <time>2019-07-07T07:08:37Z</time>
      </trkpt>
      <trkpt lat="40.5472140" lon="-2.7540940">
        <ele>923.6</ele>
        <time>2019-07-07T07:08:38Z</time>
      </trkpt>
      <trkpt lat="40.5471580" lon="-2.7540340">
        <ele>923.2</ele>
        <time>2019-07-07T07:08:39Z</time>
      </trkpt>
      <trkpt lat="40.5470490" lon="-2.7538930">
        <ele>922.6</ele>
        <time>2019-07-07T07:08:41Z</time>
      </trkpt>
      <trkpt lat="40.5469430" lon="-2.7537390">
        <ele>922.0</ele>
        <time>2019-07-07T07:08:43Z</time>
      </trkpt>
      <trkpt lat="40.5467800" lon="-2.7534920">
        <ele>920.6</ele>
        <time>2019-07-07T07:08:46Z</time>
      </trkpt>
      <trkpt lat="40.5467210" lon="-2.7534130">
        <ele>920.4</ele>
        <time>2019-07-07T07:08:47Z</time>
      </trkpt>
      <trkpt lat="40.5465880" lon="-2.7532790">
        <ele>919.6</ele>
        <time>2019-07-07T07:08:49Z</time>
      </trkpt>
      <trkpt lat="40.5465090" lon="-2.7532370">
        <ele>919.2</ele>
        <time>2019-07-07T07:08:50Z</time>
      </trkpt>
      <trkpt lat="40.5463340" lon="-2.7532050">
        <ele>918.4</ele>
        <time>2019-07-07T07:08:52Z</time>
      </trkpt>
      <trkpt lat="40.5462430" lon="-2.7532020">
        <ele>918.0</ele>
        <time>2019-07-07T07:08:53Z</time>
      </trkpt>
      <trkpt lat="40.5460650" lon="-2.7532060">
        <ele>917.0</ele>
        <time>2019-07-07T07:08:55Z</time>
      </trkpt>
      <trkpt lat="40.5458050" lon="-2.7532240">
        <ele>916.2</ele>
        <time>2019-07-07T07:08:58Z</time>
      </trkpt>
      <trkpt lat="40.5456350" lon="-2.7532310">
        <ele>915.8</ele>
        <time>2019-07-07T07:09:00Z</time>
      </trkpt>
      <trkpt lat="40.5453890" lon="-2.7532020">
        <ele>915.2</ele>
        <time>2019-07-07T07:09:03Z</time>
      </trkpt>
      <trkpt lat="40.5452430" lon="-2.7531220">
        <ele>914.8</ele>
        <time>2019-07-07T07:09:05Z</time>
      </trkpt>
      <trkpt lat="40.5451850" lon="-2.7530540">
        <ele>914.6</ele>
        <time>2019-07-07T07:09:06Z</time>
      </trkpt>
      <trkpt lat="40.5450930" lon="-2.7527880">
        <ele>914.4</ele>
        <time>2019-07-07T07:09:09Z</time>
      </trkpt>
      <trkpt lat="40.5450820" lon="-2.7526960">
        <ele>914.4</ele>
        <time>2019-07-07T07:09:10Z</time>
      </trkpt>
      <trkpt lat="40.5450750" lon="-2.7526050">
        <ele>914.4</ele>
        <time>2019-07-07T07:09:11Z</time>
      </trkpt>
      <trkpt lat="40.5450660" lon="-2.7523510">
        <ele>914.4</ele>
        <time>2019-07-07T07:09:14Z</time>
      </trkpt>
      <trkpt lat="40.5450630" lon="-2.7522000">
        <ele>914.8</ele>
        <time>2019-07-07T07:09:16Z</time>
      </trkpt>
      <trkpt lat="40.5450710" lon="-2.7520530">
        <ele>915.2</ele>
        <time>2019-07-07T07:09:18Z</time>
      </trkpt>
      <trkpt lat="40.5450790" lon="-2.7519170">
        <ele>915.4</ele>
        <time>2019-07-07T07:09:20Z</time>
      </trkpt>
      <trkpt lat="40.5450970" lon="-2.7517950">
        <ele>915.8</ele>
        <time>2019-07-07T07:09:22Z</time>
      </trkpt>
      <trkpt lat="40.5451510" lon="-2.7516290">
        <ele>916.2</ele>
        <time>2019-07-07T07:09:25Z</time>
      </trkpt>
      <trkpt lat="40.5452330" lon="-2.7514190">
        <ele>916.8</ele>
        <time>2019-07-07T07:09:29Z</time>
      </trkpt>
      <trkpt lat="40.5452510" lon="-2.7513690">
        <ele>917.0</ele>
        <time>2019-07-07T07:09:30Z</time>
      </trkpt>
      <trkpt lat="40.5452740" lon="-2.7513230">
        <ele>917.2</ele>
        <time>2019-07-07T07:09:31Z</time>
      </trkpt>
      <trkpt lat="40.5452970" lon="-2.7512780">
        <ele>917.4</ele>
        <time>2019-07-07T07:09:32Z</time>
      </trkpt>
      <trkpt lat="40.5453600" lon="-2.7511430">
        <ele>918.0</ele>
        <time>2019-07-07T07:09:35Z</time>
      </trkpt>
      <trkpt lat="40.5453970" lon="-2.7510390">
        <ele>918.4</ele>
        <time>2019-07-07T07:09:37Z</time>
      </trkpt>
      <trkpt lat="40.5454200" lon="-2.7509870">
        <ele>918.4</ele>
        <time>2019-07-07T07:09:38Z</time>
      </trkpt>
      <trkpt lat="40.5454940" lon="-2.7508340">
        <ele>919.0</ele>
        <time>2019-07-07T07:09:41Z</time>
      </trkpt>
      <trkpt lat="40.5455210" lon="-2.7507830">
        <ele>919.0</ele>
        <time>2019-07-07T07:09:42Z</time>
      </trkpt>
      <trkpt lat="40.5455920" lon="-2.7506250">
        <ele>919.2</ele>
        <time>2019-07-07T07:09:45Z</time>
      </trkpt>
      <trkpt lat="40.5456170" lon="-2.7505730">
        <ele>919.4</ele>
        <time>2019-07-07T07:09:46Z</time>
      </trkpt>
      <trkpt lat="40.5457440" lon="-2.7503150">
        <ele>919.8</ele>
        <time>2019-07-07T07:09:51Z</time>
      </trkpt>
      <trkpt lat="40.5457930" lon="-2.7502120">
        <ele>920.0</ele>
        <time>2019-07-07T07:09:53Z</time>
      </trkpt>
      <trkpt lat="40.5458390" lon="-2.7501090">
        <ele>920.6</ele>
        <time>2019-07-07T07:09:55Z</time>
      </trkpt>
      <trkpt lat="40.5459360" lon="-2.7499130">
        <ele>921.2</ele>
        <time>2019-07-07T07:09:59Z</time>
      </trkpt>
      <trkpt lat="40.5459600" lon="-2.7498680">
        <ele>921.2</ele>
        <time>2019-07-07T07:10:00Z</time>
      </trkpt>
      <trkpt lat="40.5460540" lon="-2.7496480">
        <ele>922.0</ele>
        <time>2019-07-07T07:10:05Z</time>
      </trkpt>
      <trkpt lat="40.5460740" lon="-2.7496120">
        <ele>922.2</ele>
        <time>2019-07-07T07:10:06Z</time>
      </trkpt>
      <trkpt lat="40.5461180" lon="-2.7495050">
        <ele>922.8</ele>
        <time>2019-07-07T07:10:09Z</time>
      </trkpt>
      <trkpt lat="40.5461310" lon="-2.7494720">
        <ele>923.0</ele>
        <time>2019-07-07T07:10:10Z</time>
      </trkpt>
      <trkpt lat="40.5461520" lon="-2.7494000">
        <ele>923.2</ele>
        <time>2019-07-07T07:10:12Z</time>
      </trkpt>
      <trkpt lat="40.5461760" lon="-2.7492340">
        <ele>923.6</ele>
        <time>2019-07-07T07:10:16Z</time>
      </trkpt>
      <trkpt lat="40.5461510" lon="-2.7490120">
        <ele>924.0</ele>
        <time>2019-07-07T07:10:21Z</time>
      </trkpt>
      <trkpt lat="40.5460970" lon="-2.7488810">
        <ele>924.2</ele>
        <time>2019-07-07T07:10:24Z</time>
      </trkpt>
      <trkpt lat="40.5460620" lon="-2.7487380">
        <ele>924.4</ele>
        <time>2019-07-07T07:10:27Z</time>
      </trkpt>
      <trkpt lat="40.5460490" lon="-2.7485870">
        <ele>925.0</ele>
        <time>2019-07-07T07:10:31Z</time>
      </trkpt>
      <trkpt lat="40.5460480" lon="-2.7485610">
        <ele>925.0</ele>
        <time>2019-07-07T07:10:32Z</time>
      </trkpt>
      <trkpt lat="40.5460550" lon="-2.7485150">
        <ele>925.2</ele>
        <time>2019-07-07T07:10:35Z</time>
      </trkpt>
      <trkpt lat="40.5460540" lon="-2.7485070">
        <ele>925.2</ele>
        <time>2019-07-07T07:10:36Z</time>
      </trkpt>
      <trkpt lat="40.5460550" lon="-2.7485060">
        <ele>925.4</ele>
        <time>2019-07-07T07:10:37Z</time>
      </trkpt>
      <trkpt lat="40.5460620" lon="-2.7484870">
        <ele>925.6</ele>
        <time>2019-07-07T07:13:26Z</time>
      </trkpt>
      <trkpt lat="40.5460680" lon="-2.7484690">
        <ele>925.6</ele>
        <time>2019-07-07T07:13:27Z</time>
      </trkpt>
      <trkpt lat="40.5460780" lon="-2.7484220">
        <ele>925.6</ele>
        <time>2019-07-07T07:13:29Z</time>
      </trkpt>
      <trkpt lat="40.5460990" lon="-2.7483600">
        <ele>925.6</ele>
        <time>2019-07-07T07:13:31Z</time>
      </trkpt>
      <trkpt lat="40.5461120" lon="-2.7483260">
        <ele>925.6</ele>
        <time>2019-07-07T07:13:32Z</time>
      </trkpt>
      <trkpt lat="40.5461230" lon="-2.7482880">
        <ele>925.6</ele>
        <time>2019-07-07T07:13:33Z</time>
      </trkpt>
      <trkpt lat="40.5461520" lon="-2.7482100">
        <ele>925.8</ele>
        <time>2019-07-07T07:13:35Z</time>
      </trkpt>
      <trkpt lat="40.5462030" lon="-2.7480360">
        <ele>926.2</ele>
        <time>2019-07-07T07:13:39Z</time>
      </trkpt>
      <trkpt lat="40.5462520" lon="-2.7479130">
        <ele>926.6</ele>
        <time>2019-07-07T07:13:42Z</time>
      </trkpt>
      <trkpt lat="40.5463580" lon="-2.7475740">
        <ele>927.0</ele>
        <time>2019-07-07T07:13:49Z</time>
      </trkpt>
      <trkpt lat="40.5464120" lon="-2.7474840">
        <ele>927.0</ele>
        <time>2019-07-07T07:13:51Z</time>
      </trkpt>
      <trkpt lat="40.5464640" lon="-2.7473980">
        <ele>927.2</ele>
        <time>2019-07-07T07:13:53Z</time>
      </trkpt>
      <trkpt lat="40.5465200" lon="-2.7473140">
        <ele>927.4</ele>
        <time>2019-07-07T07:13:55Z</time>
      </trkpt>
      <trkpt lat="40.5466910" lon="-2.7470580">
        <ele>928.0</ele>
        <time>2019-07-07T07:14:01Z</time>
      </trkpt>
      <trkpt lat="40.5467210" lon="-2.7470130">
        <ele>928.0</ele>
        <time>2019-07-07T07:14:02Z</time>
      </trkpt>
      <trkpt lat="40.5467640" lon="-2.7469100">
        <ele>928.4</ele>
        <time>2019-07-07T07:14:04Z</time>
      </trkpt>
      <trkpt lat="40.5467840" lon="-2.7467970">
        <ele>928.4</ele>
        <time>2019-07-07T07:14:06Z</time>
      </trkpt>
      <trkpt lat="40.5467860" lon="-2.7467390">
        <ele>928.4</ele>
        <time>2019-07-07T07:14:07Z</time>
      </trkpt>
      <trkpt lat="40.5467710" lon="-2.7463740">
        <ele>928.4</ele>
        <time>2019-07-07T07:14:13Z</time>
      </trkpt>
      <trkpt lat="40.5467580" lon="-2.7462510">
        <ele>928.6</ele>
        <time>2019-07-07T07:14:15Z</time>
      </trkpt>
      <trkpt lat="40.5467360" lon="-2.7461270">
        <ele>928.6</ele>
        <time>2019-07-07T07:14:17Z</time>
      </trkpt>
      <trkpt lat="40.5467260" lon="-2.7460050">
        <ele>928.6</ele>
        <time>2019-07-07T07:14:19Z</time>
      </trkpt>
      <trkpt lat="40.5467080" lon="-2.7455940">
        <ele>928.4</ele>
        <time>2019-07-07T07:14:25Z</time>
      </trkpt>
      <trkpt lat="40.5467110" lon="-2.7455230">
        <ele>928.2</ele>
        <time>2019-07-07T07:14:26Z</time>
      </trkpt>
      <trkpt lat="40.5467410" lon="-2.7453800">
        <ele>928.0</ele>
        <time>2019-07-07T07:14:28Z</time>
      </trkpt>
      <trkpt lat="40.5467910" lon="-2.7452400">
        <ele>927.4</ele>
        <time>2019-07-07T07:14:30Z</time>
      </trkpt>
      <trkpt lat="40.5468170" lon="-2.7451660">
        <ele>927.2</ele>
        <time>2019-07-07T07:14:31Z</time>
      </trkpt>
      <trkpt lat="40.5470340" lon="-2.7446400">
        <ele>926.6</ele>
        <time>2019-07-07T07:14:38Z</time>
      </trkpt>
      <trkpt lat="40.5471130" lon="-2.7444990">
        <ele>926.4</ele>
        <time>2019-07-07T07:14:40Z</time>
      </trkpt>
      <trkpt lat="40.5471610" lon="-2.7444350">
        <ele>926.2</ele>
        <time>2019-07-07T07:14:41Z</time>
      </trkpt>
      <trkpt lat="40.5472160" lon="-2.7443800">
        <ele>926.2</ele>
        <time>2019-07-07T07:14:42Z</time>
      </trkpt>
      <trkpt lat="40.5473360" lon="-2.7442910">
        <ele>926.0</ele>
        <time>2019-07-07T07:14:44Z</time>
      </trkpt>
      <trkpt lat="40.5475840" lon="-2.7441410">
        <ele>925.6</ele>
        <time>2019-07-07T07:14:48Z</time>
      </trkpt>
      <trkpt lat="40.5479530" lon="-2.7439090">
        <ele>925.2</ele>
        <time>2019-07-07T07:14:54Z</time>
      </trkpt>
      <trkpt lat="40.5480950" lon="-2.7436890">
        <ele>924.6</ele>
        <time>2019-07-07T07:14:57Z</time>
      </trkpt>
      <trkpt lat="40.5481340" lon="-2.7436010">
        <ele>924.2</ele>
        <time>2019-07-07T07:14:58Z</time>
      </trkpt>
      <trkpt lat="40.5481690" lon="-2.7435100">
        <ele>924.0</ele>
        <time>2019-07-07T07:14:59Z</time>
      </trkpt>
      <trkpt lat="40.5482690" lon="-2.7432150">
        <ele>923.4</ele>
        <time>2019-07-07T07:15:02Z</time>
      </trkpt>
      <trkpt lat="40.5483250" lon="-2.7430070">
        <ele>922.8</ele>
        <time>2019-07-07T07:15:04Z</time>
      </trkpt>
      <trkpt lat="40.5484080" lon="-2.7426750">
        <ele>921.8</ele>
        <time>2019-07-07T07:15:07Z</time>
      </trkpt>
      <trkpt lat="40.5484390" lon="-2.7425620">
        <ele>921.4</ele>
        <time>2019-07-07T07:15:08Z</time>
      </trkpt>
      <trkpt lat="40.5485020" lon="-2.7423350">
        <ele>920.6</ele>
        <time>2019-07-07T07:15:10Z</time>
      </trkpt>
      <trkpt lat="40.5485990" lon="-2.7419870">
        <ele>919.4</ele>
        <time>2019-07-07T07:15:13Z</time>
      </trkpt>
      <trkpt lat="40.5486340" lon="-2.7418710">
        <ele>919.0</ele>
        <time>2019-07-07T07:15:14Z</time>
      </trkpt>
      <trkpt lat="40.5486990" lon="-2.7416350">
        <ele>918.2</ele>
        <time>2019-07-07T07:15:16Z</time>
      </trkpt>
      <trkpt lat="40.5487650" lon="-2.7413950">
        <ele>917.2</ele>
        <time>2019-07-07T07:15:18Z</time>
      </trkpt>
      <trkpt lat="40.5487980" lon="-2.7412750">
        <ele>916.6</ele>
        <time>2019-07-07T07:15:19Z</time>
      </trkpt>
      <trkpt lat="40.5488670" lon="-2.7410330">
        <ele>916.0</ele>
        <time>2019-07-07T07:15:21Z</time>
      </trkpt>
      <trkpt lat="40.5489640" lon="-2.7406700">
        <ele>914.8</ele>
        <time>2019-07-07T07:15:24Z</time>
      </trkpt>
      <trkpt lat="40.5489820" lon="-2.7405500">
        <ele>914.4</ele>
        <time>2019-07-07T07:15:25Z</time>
      </trkpt>
      <trkpt lat="40.5489720" lon="-2.7403200">
        <ele>913.4</ele>
        <time>2019-07-07T07:15:27Z</time>
      </trkpt>
      <trkpt lat="40.5489390" lon="-2.7402140">
        <ele>913.2</ele>
        <time>2019-07-07T07:15:28Z</time>
      </trkpt>
      <trkpt lat="40.5487490" lon="-2.7399560">
        <ele>912.2</ele>
        <time>2019-07-07T07:15:31Z</time>
      </trkpt>
      <trkpt lat="40.5485790" lon="-2.7398270">
        <ele>911.0</ele>
        <time>2019-07-07T07:15:33Z</time>
      </trkpt>
      <trkpt lat="40.5484960" lon="-2.7397620">
        <ele>910.6</ele>
        <time>2019-07-07T07:15:34Z</time>
      </trkpt>
      <trkpt lat="40.5484240" lon="-2.7396810">
        <ele>910.0</ele>
        <time>2019-07-07T07:15:35Z</time>
      </trkpt>
      <trkpt lat="40.5483340" lon="-2.7394600">
        <ele>908.8</ele>
        <time>2019-07-07T07:15:37Z</time>
      </trkpt>
      <trkpt lat="40.5482950" lon="-2.7392120">
        <ele>907.8</ele>
        <time>2019-07-07T07:15:39Z</time>
      </trkpt>
      <trkpt lat="40.5482770" lon="-2.7390860">
        <ele>907.6</ele>
        <time>2019-07-07T07:15:40Z</time>
      </trkpt>
      <trkpt lat="40.5482550" lon="-2.7389600">
        <ele>907.2</ele>
        <time>2019-07-07T07:15:41Z</time>
      </trkpt>
      <trkpt lat="40.5482240" lon="-2.7388390">
        <ele>906.6</ele>
        <time>2019-07-07T07:15:42Z</time>
      </trkpt>
      <trkpt lat="40.5481360" lon="-2.7386090">
        <ele>905.2</ele>
        <time>2019-07-07T07:15:44Z</time>
      </trkpt>
      <trkpt lat="40.5479420" lon="-2.7381570">
        <ele>904.0</ele>
        <time>2019-07-07T07:15:48Z</time>
      </trkpt>
      <trkpt lat="40.5478380" lon="-2.7379360">
        <ele>903.2</ele>
        <time>2019-07-07T07:15:50Z</time>
      </trkpt>
      <trkpt lat="40.5477830" lon="-2.7378280">
        <ele>902.8</ele>
        <time>2019-07-07T07:15:51Z</time>
      </trkpt>
      <trkpt lat="40.5476370" lon="-2.7376570">
        <ele>902.0</ele>
        <time>2019-07-07T07:15:53Z</time>
      </trkpt>
      <trkpt lat="40.5475450" lon="-2.7376130">
        <ele>901.6</ele>
        <time>2019-07-07T07:15:54Z</time>
      </trkpt>
      <trkpt lat="40.5473460" lon="-2.7375860">
        <ele>900.8</ele>
        <time>2019-07-07T07:15:56Z</time>
      </trkpt>
      <trkpt lat="40.5472450" lon="-2.7375950">
        <ele>900.4</ele>
        <time>2019-07-07T07:15:57Z</time>
      </trkpt>
      <trkpt lat="40.5471450" lon="-2.7376100">
        <ele>900.0</ele>
        <time>2019-07-07T07:15:58Z</time>
      </trkpt>
      <trkpt lat="40.5469470" lon="-2.7376450">
        <ele>899.2</ele>
        <time>2019-07-07T07:16:00Z</time>
      </trkpt>
      <trkpt lat="40.5468470" lon="-2.7376540">
        <ele>898.8</ele>
        <time>2019-07-07T07:16:01Z</time>
      </trkpt>
      <trkpt lat="40.5466570" lon="-2.7376180">
        <ele>898.0</ele>
        <time>2019-07-07T07:16:03Z</time>
      </trkpt>
      <trkpt lat="40.5464260" lon="-2.7374160">
        <ele>897.0</ele>
        <time>2019-07-07T07:16:06Z</time>
      </trkpt>
      <trkpt lat="40.5463670" lon="-2.7373300">
        <ele>896.8</ele>
        <time>2019-07-07T07:16:07Z</time>
      </trkpt>
      <trkpt lat="40.5461000" lon="-2.7369200">
        <ele>896.2</ele>
        <time>2019-07-07T07:16:12Z</time>
      </trkpt>
      <trkpt lat="40.5458460" lon="-2.7367250">
        <ele>896.2</ele>
        <time>2019-07-07T07:16:16Z</time>
      </trkpt>
      <trkpt lat="40.5456270" lon="-2.7367050">
        <ele>896.2</ele>
        <time>2019-07-07T07:16:19Z</time>
      </trkpt>
      <trkpt lat="40.5454310" lon="-2.7368310">
        <ele>895.6</ele>
        <time>2019-07-07T07:16:22Z</time>
      </trkpt>
      <trkpt lat="40.5453390" lon="-2.7370880">
        <ele>895.2</ele>
        <time>2019-07-07T07:16:25Z</time>
      </trkpt>
      <trkpt lat="40.5453260" lon="-2.7371850">
        <ele>895.0</ele>
        <time>2019-07-07T07:16:26Z</time>
      </trkpt>
      <trkpt lat="40.5452670" lon="-2.7374790">
        <ele>894.6</ele>
        <time>2019-07-07T07:16:29Z</time>
      </trkpt>
      <trkpt lat="40.5452270" lon="-2.7375650">
        <ele>894.2</ele>
        <time>2019-07-07T07:16:30Z</time>
      </trkpt>
      <trkpt lat="40.5450380" lon="-2.7377490">
        <ele>893.8</ele>
        <time>2019-07-07T07:16:33Z</time>
      </trkpt>
      <trkpt lat="40.5448870" lon="-2.7378140">
        <ele>893.2</ele>
        <time>2019-07-07T07:16:35Z</time>
      </trkpt>
      <trkpt lat="40.5448080" lon="-2.7378370">
        <ele>893.0</ele>
        <time>2019-07-07T07:16:36Z</time>
      </trkpt>
      <trkpt lat="40.5447260" lon="-2.7378520">
        <ele>892.6</ele>
        <time>2019-07-07T07:16:37Z</time>
      </trkpt>
      <trkpt lat="40.5444800" lon="-2.7378610">
        <ele>891.8</ele>
        <time>2019-07-07T07:16:40Z</time>
      </trkpt>
      <trkpt lat="40.5442240" lon="-2.7378560">
        <ele>891.0</ele>
        <time>2019-07-07T07:16:43Z</time>
      </trkpt>
      <trkpt lat="40.5441360" lon="-2.7378530">
        <ele>890.6</ele>
        <time>2019-07-07T07:16:44Z</time>
      </trkpt>
      <trkpt lat="40.5438680" lon="-2.7378540">
        <ele>889.6</ele>
        <time>2019-07-07T07:16:47Z</time>
      </trkpt>
      <trkpt lat="40.5436820" lon="-2.7378710">
        <ele>888.8</ele>
        <time>2019-07-07T07:16:49Z</time>
      </trkpt>
      <trkpt lat="40.5435880" lon="-2.7378870">
        <ele>888.4</ele>
        <time>2019-07-07T07:16:50Z</time>
      </trkpt>
      <trkpt lat="40.5432010" lon="-2.7379500">
        <ele>887.0</ele>
        <time>2019-07-07T07:16:54Z</time>
      </trkpt>
      <trkpt lat="40.5429990" lon="-2.7379710">
        <ele>885.4</ele>
        <time>2019-07-07T07:16:56Z</time>
      </trkpt>
      <trkpt lat="40.5427900" lon="-2.7379970">
        <ele>884.2</ele>
        <time>2019-07-07T07:16:58Z</time>
      </trkpt>
      <trkpt lat="40.5425830" lon="-2.7380190">
        <ele>882.6</ele>
        <time>2019-07-07T07:17:00Z</time>
      </trkpt>
      <trkpt lat="40.5423860" lon="-2.7379650">
        <ele>881.0</ele>
        <time>2019-07-07T07:17:02Z</time>
      </trkpt>
      <trkpt lat="40.5422970" lon="-2.7378980">
        <ele>880.2</ele>
        <time>2019-07-07T07:17:03Z</time>
      </trkpt>
      <trkpt lat="40.5422150" lon="-2.7378090">
        <ele>879.6</ele>
        <time>2019-07-07T07:17:04Z</time>
      </trkpt>
      <trkpt lat="40.5421370" lon="-2.7377090">
        <ele>878.8</ele>
        <time>2019-07-07T07:17:05Z</time>
      </trkpt>
      <trkpt lat="40.5420600" lon="-2.7376030">
        <ele>878.2</ele>
        <time>2019-07-07T07:17:06Z</time>
      </trkpt>
      <trkpt lat="40.5419100" lon="-2.7373900">
        <ele>876.6</ele>
        <time>2019-07-07T07:17:08Z</time>
      </trkpt>
      <trkpt lat="40.5417670" lon="-2.7372200">
        <ele>875.2</ele>
        <time>2019-07-07T07:17:10Z</time>
      </trkpt>
      <trkpt lat="40.5416870" lon="-2.7371620">
        <ele>874.2</ele>
        <time>2019-07-07T07:17:11Z</time>
      </trkpt>
      <trkpt lat="40.5416010" lon="-2.7371300">
        <ele>873.6</ele>
        <time>2019-07-07T07:17:12Z</time>
      </trkpt>
      <trkpt lat="40.5415100" lon="-2.7371290">
        <ele>873.0</ele>
        <time>2019-07-07T07:17:13Z</time>
      </trkpt>
      <trkpt lat="40.5414180" lon="-2.7371600">
        <ele>872.4</ele>
        <time>2019-07-07T07:17:14Z</time>
      </trkpt>
      <trkpt lat="40.5413330" lon="-2.7372210">
        <ele>871.4</ele>
        <time>2019-07-07T07:17:15Z</time>
      </trkpt>
      <trkpt lat="40.5412620" lon="-2.7373010">
        <ele>871.2</ele>
        <time>2019-07-07T07:17:16Z</time>
      </trkpt>
      <trkpt lat="40.5412080" lon="-2.7374060">
        <ele>870.2</ele>
        <time>2019-07-07T07:17:17Z</time>
      </trkpt>
      <trkpt lat="40.5411670" lon="-2.7375240">
        <ele>869.2</ele>
        <time>2019-07-07T07:17:18Z</time>
      </trkpt>
      <trkpt lat="40.5411350" lon="-2.7376540">
        <ele>868.2</ele>
        <time>2019-07-07T07:17:19Z</time>
      </trkpt>
      <trkpt lat="40.5411050" lon="-2.7377900">
        <ele>867.4</ele>
        <time>2019-07-07T07:17:20Z</time>
      </trkpt>
      <trkpt lat="40.5410770" lon="-2.7379320">
        <ele>866.6</ele>
        <time>2019-07-07T07:17:21Z</time>
      </trkpt>
      <trkpt lat="40.5410290" lon="-2.7382290">
        <ele>864.8</ele>
        <time>2019-07-07T07:17:23Z</time>
      </trkpt>
      <trkpt lat="40.5409750" lon="-2.7385300">
        <ele>863.2</ele>
        <time>2019-07-07T07:17:25Z</time>
      </trkpt>
      <trkpt lat="40.5409450" lon="-2.7388200">
        <ele>861.6</ele>
        <time>2019-07-07T07:17:27Z</time>
      </trkpt>
      <trkpt lat="40.5409510" lon="-2.7389550">
        <ele>860.8</ele>
        <time>2019-07-07T07:17:28Z</time>
      </trkpt>
      <trkpt lat="40.5409660" lon="-2.7390860">
        <ele>859.8</ele>
        <time>2019-07-07T07:17:29Z</time>
      </trkpt>
      <trkpt lat="40.5409830" lon="-2.7393300">
        <ele>858.4</ele>
        <time>2019-07-07T07:17:31Z</time>
      </trkpt>
      <trkpt lat="40.5409720" lon="-2.7394510">
        <ele>858.0</ele>
        <time>2019-07-07T07:17:32Z</time>
      </trkpt>
      <trkpt lat="40.5409430" lon="-2.7395630">
        <ele>857.4</ele>
        <time>2019-07-07T07:17:33Z</time>
      </trkpt>
      <trkpt lat="40.5408310" lon="-2.7397390">
        <ele>856.4</ele>
        <time>2019-07-07T07:17:35Z</time>
      </trkpt>
      <trkpt lat="40.5406620" lon="-2.7398150">
        <ele>855.2</ele>
        <time>2019-07-07T07:17:37Z</time>
      </trkpt>
      <trkpt lat="40.5405700" lon="-2.7398250">
        <ele>855.0</ele>
        <time>2019-07-07T07:17:38Z</time>
      </trkpt>
      <trkpt lat="40.5404730" lon="-2.7398260">
        <ele>854.4</ele>
        <time>2019-07-07T07:17:39Z</time>
      </trkpt>
      <trkpt lat="40.5402750" lon="-2.7398250">
        <ele>853.4</ele>
        <time>2019-07-07T07:17:41Z</time>
      </trkpt>
      <trkpt lat="40.5399720" lon="-2.7398450">
        <ele>852.0</ele>
        <time>2019-07-07T07:17:44Z</time>
      </trkpt>
      <trkpt lat="40.5397660" lon="-2.7398520">
        <ele>850.8</ele>
        <time>2019-07-07T07:17:46Z</time>
      </trkpt>
      <trkpt lat="40.5395630" lon="-2.7398630">
        <ele>850.0</ele>
        <time>2019-07-07T07:17:48Z</time>
      </trkpt>
      <trkpt lat="40.5394640" lon="-2.7398660">
        <ele>849.4</ele>
        <time>2019-07-07T07:17:49Z</time>
      </trkpt>
      <trkpt lat="40.5391870" lon="-2.7399050">
        <ele>849.0</ele>
        <time>2019-07-07T07:17:52Z</time>
      </trkpt>
      <trkpt lat="40.5391220" lon="-2.7399650">
        <ele>848.8</ele>
        <time>2019-07-07T07:17:53Z</time>
      </trkpt>
      <trkpt lat="40.5390650" lon="-2.7401380">
        <ele>848.6</ele>
        <time>2019-07-07T07:17:55Z</time>
      </trkpt>
      <trkpt lat="40.5391350" lon="-2.7404210">
        <ele>848.2</ele>
        <time>2019-07-07T07:17:58Z</time>
      </trkpt>
      <trkpt lat="40.5392050" lon="-2.7406110">
        <ele>847.8</ele>
        <time>2019-07-07T07:18:00Z</time>
      </trkpt>
      <trkpt lat="40.5392430" lon="-2.7407080">
        <ele>847.6</ele>
        <time>2019-07-07T07:18:01Z</time>
      </trkpt>
      <trkpt lat="40.5392820" lon="-2.7408050">
        <ele>847.4</ele>
        <time>2019-07-07T07:18:02Z</time>
      </trkpt>
      <trkpt lat="40.5393230" lon="-2.7409020">
        <ele>847.0</ele>
        <time>2019-07-07T07:18:03Z</time>
      </trkpt>
      <trkpt lat="40.5394040" lon="-2.7410990">
        <ele>846.4</ele>
        <time>2019-07-07T07:18:05Z</time>
      </trkpt>
      <trkpt lat="40.5394540" lon="-2.7413070">
        <ele>845.8</ele>
        <time>2019-07-07T07:18:07Z</time>
      </trkpt>
      <trkpt lat="40.5394400" lon="-2.7414070">
        <ele>845.4</ele>
        <time>2019-07-07T07:18:08Z</time>
      </trkpt>
      <trkpt lat="40.5393430" lon="-2.7415400">
        <ele>844.6</ele>
        <time>2019-07-07T07:18:10Z</time>
      </trkpt>
      <trkpt lat="40.5392730" lon="-2.7415740">
        <ele>844.4</ele>
        <time>2019-07-07T07:18:11Z</time>
      </trkpt>
      <trkpt lat="40.5391210" lon="-2.7416030">
        <ele>843.8</ele>
        <time>2019-07-07T07:18:13Z</time>
      </trkpt>
      <trkpt lat="40.5390400" lon="-2.7416150">
        <ele>843.8</ele>
        <time>2019-07-07T07:18:14Z</time>
      </trkpt>
      <trkpt lat="40.5388750" lon="-2.7416440">
        <ele>843.2</ele>
        <time>2019-07-07T07:18:16Z</time>
      </trkpt>
      <trkpt lat="40.5387930" lon="-2.7416750">
        <ele>843.0</ele>
        <time>2019-07-07T07:18:17Z</time>
      </trkpt>
      <trkpt lat="40.5387140" lon="-2.7417160">
        <ele>842.8</ele>
        <time>2019-07-07T07:18:18Z</time>
      </trkpt>
      <trkpt lat="40.5385650" lon="-2.7418250">
        <ele>842.2</ele>
        <time>2019-07-07T07:18:20Z</time>
      </trkpt>
      <trkpt lat="40.5384250" lon="-2.7419600">
        <ele>841.6</ele>
        <time>2019-07-07T07:18:22Z</time>
      </trkpt>
      <trkpt lat="40.5382910" lon="-2.7421200">
        <ele>841.0</ele>
        <time>2019-07-07T07:18:24Z</time>
      </trkpt>
      <trkpt lat="40.5381920" lon="-2.7423250">
        <ele>840.0</ele>
        <time>2019-07-07T07:18:26Z</time>
      </trkpt>
      <trkpt lat="40.5381610" lon="-2.7424430">
        <ele>839.6</ele>
        <time>2019-07-07T07:18:27Z</time>
      </trkpt>
      <trkpt lat="40.5381180" lon="-2.7426990">
        <ele>838.4</ele>
        <time>2019-07-07T07:18:29Z</time>
      </trkpt>
      <trkpt lat="40.5381020" lon="-2.7428260">
        <ele>837.8</ele>
        <time>2019-07-07T07:18:30Z</time>
      </trkpt>
      <trkpt lat="40.5380820" lon="-2.7429440">
        <ele>837.0</ele>
        <time>2019-07-07T07:18:31Z</time>
      </trkpt>
      <trkpt lat="40.5380540" lon="-2.7430540">
        <ele>836.2</ele>
        <time>2019-07-07T07:18:32Z</time>
      </trkpt>
      <trkpt lat="40.5380090" lon="-2.7431500">
        <ele>835.6</ele>
        <time>2019-07-07T07:18:33Z</time>
      </trkpt>
      <trkpt lat="40.5378640" lon="-2.7432760">
        <ele>834.4</ele>
        <time>2019-07-07T07:18:35Z</time>
      </trkpt>
      <trkpt lat="40.5376810" lon="-2.7432880">
        <ele>833.0</ele>
        <time>2019-07-07T07:18:37Z</time>
      </trkpt>
      <trkpt lat="40.5375850" lon="-2.7433050">
        <ele>832.6</ele>
        <time>2019-07-07T07:18:38Z</time>
      </trkpt>
      <trkpt lat="40.5374950" lon="-2.7433550">
        <ele>831.8</ele>
        <time>2019-07-07T07:18:39Z</time>
      </trkpt>
      <trkpt lat="40.5374140" lon="-2.7434300">
        <ele>831.2</ele>
        <time>2019-07-07T07:18:40Z</time>
      </trkpt>
      <trkpt lat="40.5373390" lon="-2.7435220">
        <ele>830.4</ele>
        <time>2019-07-07T07:18:41Z</time>
      </trkpt>
      <trkpt lat="40.5372650" lon="-2.7436240">
        <ele>829.6</ele>
        <time>2019-07-07T07:18:42Z</time>
      </trkpt>
      <trkpt lat="40.5371890" lon="-2.7437270">
        <ele>828.8</ele>
        <time>2019-07-07T07:18:43Z</time>
      </trkpt>
      <trkpt lat="40.5371110" lon="-2.7438290">
        <ele>827.8</ele>
        <time>2019-07-07T07:18:44Z</time>
      </trkpt>
      <trkpt lat="40.5370330" lon="-2.7439260">
        <ele>827.2</ele>
        <time>2019-07-07T07:18:45Z</time>
      </trkpt>
      <trkpt lat="40.5368750" lon="-2.7441110">
        <ele>825.0</ele>
        <time>2019-07-07T07:18:47Z</time>
      </trkpt>
      <trkpt lat="40.5367930" lon="-2.7441840">
        <ele>824.2</ele>
        <time>2019-07-07T07:18:48Z</time>
      </trkpt>
      <trkpt lat="40.5367090" lon="-2.7442290">
        <ele>823.4</ele>
        <time>2019-07-07T07:18:49Z</time>
      </trkpt>
      <trkpt lat="40.5365390" lon="-2.7442340">
        <ele>821.8</ele>
        <time>2019-07-07T07:18:51Z</time>
      </trkpt>
      <trkpt lat="40.5364680" lon="-2.7441820">
        <ele>820.8</ele>
        <time>2019-07-07T07:18:52Z</time>
      </trkpt>
      <trkpt lat="40.5364040" lon="-2.7441060">
        <ele>820.2</ele>
        <time>2019-07-07T07:18:53Z</time>
      </trkpt>
      <trkpt lat="40.5363400" lon="-2.7440170">
        <ele>819.8</ele>
        <time>2019-07-07T07:18:54Z</time>
      </trkpt>
      <trkpt lat="40.5362090" lon="-2.7438450">
        <ele>819.2</ele>
        <time>2019-07-07T07:18:56Z</time>
      </trkpt>
      <trkpt lat="40.5361400" lon="-2.7437520">
        <ele>819.0</ele>
        <time>2019-07-07T07:18:57Z</time>
      </trkpt>
      <trkpt lat="40.5360130" lon="-2.7435630">
        <ele>818.2</ele>
        <time>2019-07-07T07:18:59Z</time>
      </trkpt>
      <trkpt lat="40.5359570" lon="-2.7434580">
        <ele>817.8</ele>
        <time>2019-07-07T07:19:00Z</time>
      </trkpt>
      <trkpt lat="40.5359140" lon="-2.7433410">
        <ele>817.2</ele>
        <time>2019-07-07T07:19:01Z</time>
      </trkpt>
      <trkpt lat="40.5358830" lon="-2.7432170">
        <ele>816.6</ele>
        <time>2019-07-07T07:19:02Z</time>
      </trkpt>
      <trkpt lat="40.5358610" lon="-2.7430920">
        <ele>816.0</ele>
        <time>2019-07-07T07:19:03Z</time>
      </trkpt>
      <trkpt lat="40.5358430" lon="-2.7429640">
        <ele>815.6</ele>
        <time>2019-07-07T07:19:04Z</time>
      </trkpt>
      <trkpt lat="40.5358180" lon="-2.7428370">
        <ele>815.2</ele>
        <time>2019-07-07T07:19:05Z</time>
      </trkpt>
      <trkpt lat="40.5357460" lon="-2.7425840">
        <ele>814.2</ele>
        <time>2019-07-07T07:19:07Z</time>
      </trkpt>
      <trkpt lat="40.5356510" lon="-2.7423360">
        <ele>813.0</ele>
        <time>2019-07-07T07:19:09Z</time>
      </trkpt>
      <trkpt lat="40.5355890" lon="-2.7422190">
        <ele>812.4</ele>
        <time>2019-07-07T07:19:10Z</time>
      </trkpt>
      <trkpt lat="40.5355180" lon="-2.7421100">
        <ele>811.4</ele>
        <time>2019-07-07T07:19:11Z</time>
      </trkpt>
      <trkpt lat="40.5354380" lon="-2.7420120">
        <ele>810.6</ele>
        <time>2019-07-07T07:19:12Z</time>
      </trkpt>
      <trkpt lat="40.5353510" lon="-2.7419220">
        <ele>810.0</ele>
        <time>2019-07-07T07:19:13Z</time>
      </trkpt>
      <trkpt lat="40.5352620" lon="-2.7418330">
        <ele>809.4</ele>
        <time>2019-07-07T07:19:14Z</time>
      </trkpt>
      <trkpt lat="40.5351700" lon="-2.7417480">
        <ele>808.6</ele>
        <time>2019-07-07T07:19:15Z</time>
      </trkpt>
      <trkpt lat="40.5349840" lon="-2.7415830">
        <ele>807.2</ele>
        <time>2019-07-07T07:19:17Z</time>
      </trkpt>
      <trkpt lat="40.5348950" lon="-2.7414910">
        <ele>806.6</ele>
        <time>2019-07-07T07:19:18Z</time>
      </trkpt>
      <trkpt lat="40.5348180" lon="-2.7413810">
        <ele>805.8</ele>
        <time>2019-07-07T07:19:19Z</time>
      </trkpt>
      <trkpt lat="40.5347590" lon="-2.7412520">
        <ele>805.0</ele>
        <time>2019-07-07T07:19:20Z</time>
      </trkpt>
      <trkpt lat="40.5347180" lon="-2.7411100">
        <ele>804.4</ele>
        <time>2019-07-07T07:19:21Z</time>
      </trkpt>
      <trkpt lat="40.5346740" lon="-2.7408210">
        <ele>803.2</ele>
        <time>2019-07-07T07:19:23Z</time>
      </trkpt>
      <trkpt lat="40.5345890" lon="-2.7404000">
        <ele>802.0</ele>
        <time>2019-07-07T07:19:26Z</time>
      </trkpt>
      <trkpt lat="40.5345380" lon="-2.7402740">
        <ele>801.4</ele>
        <time>2019-07-07T07:19:27Z</time>
      </trkpt>
      <trkpt lat="40.5344760" lon="-2.7401560">
        <ele>801.0</ele>
        <time>2019-07-07T07:19:28Z</time>
      </trkpt>
      <trkpt lat="40.5344060" lon="-2.7400440">
        <ele>800.6</ele>
        <time>2019-07-07T07:19:29Z</time>
      </trkpt>
      <trkpt lat="40.5343330" lon="-2.7399330">
        <ele>799.6</ele>
        <time>2019-07-07T07:19:30Z</time>
      </trkpt>
      <trkpt lat="40.5342570" lon="-2.7398240">
        <ele>798.8</ele>
        <time>2019-07-07T07:19:31Z</time>
      </trkpt>
      <trkpt lat="40.5341790" lon="-2.7397180">
        <ele>798.0</ele>
        <time>2019-07-07T07:19:32Z</time>
      </trkpt>
      <trkpt lat="40.5340190" lon="-2.7395090">
        <ele>796.8</ele>
        <time>2019-07-07T07:19:34Z</time>
      </trkpt>
      <trkpt lat="40.5338740" lon="-2.7392880">
        <ele>795.4</ele>
        <time>2019-07-07T07:19:36Z</time>
      </trkpt>
      <trkpt lat="40.5338050" lon="-2.7391830">
        <ele>795.0</ele>
        <time>2019-07-07T07:19:37Z</time>
      </trkpt>
      <trkpt lat="40.5337290" lon="-2.7390910">
        <ele>794.6</ele>
        <time>2019-07-07T07:19:38Z</time>
      </trkpt>
      <trkpt lat="40.5336430" lon="-2.7390180">
        <ele>794.2</ele>
        <time>2019-07-07T07:19:39Z</time>
      </trkpt>
      <trkpt lat="40.5335490" lon="-2.7389660">
        <ele>793.8</ele>
        <time>2019-07-07T07:19:40Z</time>
      </trkpt>
      <trkpt lat="40.5333500" lon="-2.7389250">
        <ele>793.0</ele>
        <time>2019-07-07T07:19:42Z</time>
      </trkpt>
      <trkpt lat="40.5332490" lon="-2.7389220">
        <ele>792.4</ele>
        <time>2019-07-07T07:19:43Z</time>
      </trkpt>
      <trkpt lat="40.5330520" lon="-2.7389340">
        <ele>791.8</ele>
        <time>2019-07-07T07:19:45Z</time>
      </trkpt>
      <trkpt lat="40.5328630" lon="-2.7389550">
        <ele>791.4</ele>
        <time>2019-07-07T07:19:47Z</time>
      </trkpt>
      <trkpt lat="40.5327710" lon="-2.7389630">
        <ele>791.4</ele>
        <time>2019-07-07T07:19:48Z</time>
      </trkpt>
      <trkpt lat="40.5325110" lon="-2.7389810">
        <ele>791.4</ele>
        <time>2019-07-07T07:19:51Z</time>
      </trkpt>
      <trkpt lat="40.5323490" lon="-2.7390230">
        <ele>791.4</ele>
        <time>2019-07-07T07:19:53Z</time>
      </trkpt>
      <trkpt lat="40.5322010" lon="-2.7390810">
        <ele>791.4</ele>
        <time>2019-07-07T07:19:55Z</time>
      </trkpt>
      <trkpt lat="40.5320560" lon="-2.7391200">
        <ele>791.4</ele>
        <time>2019-07-07T07:19:57Z</time>
      </trkpt>
      <trkpt lat="40.5319830" lon="-2.7391300">
        <ele>791.4</ele>
        <time>2019-07-07T07:19:58Z</time>
      </trkpt>
      <trkpt lat="40.5316260" lon="-2.7391080">
        <ele>791.6</ele>
        <time>2019-07-07T07:20:03Z</time>
      </trkpt>
      <trkpt lat="40.5315540" lon="-2.7391110">
        <ele>791.6</ele>
        <time>2019-07-07T07:20:04Z</time>
      </trkpt>
      <trkpt lat="40.5314170" lon="-2.7391610">
        <ele>791.4</ele>
        <time>2019-07-07T07:20:06Z</time>
      </trkpt>
      <trkpt lat="40.5312400" lon="-2.7393180">
        <ele>791.4</ele>
        <time>2019-07-07T07:20:09Z</time>
      </trkpt>
      <trkpt lat="40.5311830" lon="-2.7393750">
        <ele>791.4</ele>
        <time>2019-07-07T07:20:10Z</time>
      </trkpt>
      <trkpt lat="40.5310130" lon="-2.7395460">
        <ele>791.0</ele>
        <time>2019-07-07T07:20:13Z</time>
      </trkpt>
      <trkpt lat="40.5308790" lon="-2.7396280">
        <ele>790.6</ele>
        <time>2019-07-07T07:20:15Z</time>
      </trkpt>
      <trkpt lat="40.5306610" lon="-2.7396540">
        <ele>790.0</ele>
        <time>2019-07-07T07:20:18Z</time>
      </trkpt>
      <trkpt lat="40.5305140" lon="-2.7396180">
        <ele>789.8</ele>
        <time>2019-07-07T07:20:20Z</time>
      </trkpt>
      <trkpt lat="40.5304400" lon="-2.7395960">
        <ele>789.6</ele>
        <time>2019-07-07T07:20:21Z</time>
      </trkpt>
      <trkpt lat="40.5302920" lon="-2.7395490">
        <ele>789.4</ele>
        <time>2019-07-07T07:20:23Z</time>
      </trkpt>
      <trkpt lat="40.5301470" lon="-2.7395170">
        <ele>788.8</ele>
        <time>2019-07-07T07:20:25Z</time>
      </trkpt>
      <trkpt lat="40.5300100" lon="-2.7395620">
        <ele>788.6</ele>
        <time>2019-07-07T07:20:27Z</time>
      </trkpt>
      <trkpt lat="40.5298770" lon="-2.7397860">
        <ele>788.2</ele>
        <time>2019-07-07T07:20:30Z</time>
      </trkpt>
      <trkpt lat="40.5298200" lon="-2.7399720">
        <ele>787.8</ele>
        <time>2019-07-07T07:20:32Z</time>
      </trkpt>
      <trkpt lat="40.5297700" lon="-2.7401600">
        <ele>787.4</ele>
        <time>2019-07-07T07:20:34Z</time>
      </trkpt>
      <trkpt lat="40.5297210" lon="-2.7403520">
        <ele>787.0</ele>
        <time>2019-07-07T07:20:36Z</time>
      </trkpt>
      <trkpt lat="40.5296970" lon="-2.7404510">
        <ele>786.8</ele>
        <time>2019-07-07T07:20:37Z</time>
      </trkpt>
      <trkpt lat="40.5296720" lon="-2.7405500">
        <ele>786.6</ele>
        <time>2019-07-07T07:20:38Z</time>
      </trkpt>
      <trkpt lat="40.5296470" lon="-2.7406500">
        <ele>786.2</ele>
        <time>2019-07-07T07:20:39Z</time>
      </trkpt>
      <trkpt lat="40.5295380" lon="-2.7410550">
        <ele>785.2</ele>
        <time>2019-07-07T07:20:43Z</time>
      </trkpt>
      <trkpt lat="40.5294430" lon="-2.7413480">
        <ele>784.6</ele>
        <time>2019-07-07T07:20:46Z</time>
      </trkpt>
      <trkpt lat="40.5293620" lon="-2.7415270">
        <ele>784.2</ele>
        <time>2019-07-07T07:20:48Z</time>
      </trkpt>
      <trkpt lat="40.5292240" lon="-2.7417760">
        <ele>783.6</ele>
        <time>2019-07-07T07:20:51Z</time>
      </trkpt>
      <trkpt lat="40.5291730" lon="-2.7418540">
        <ele>783.4</ele>
        <time>2019-07-07T07:20:52Z</time>
      </trkpt>
      <trkpt lat="40.5290700" lon="-2.7420040">
        <ele>783.2</ele>
        <time>2019-07-07T07:20:54Z</time>
      </trkpt>
      <trkpt lat="40.5289050" lon="-2.7422160">
        <ele>782.4</ele>
        <time>2019-07-07T07:20:57Z</time>
      </trkpt>
      <trkpt lat="40.5287650" lon="-2.7422980">
        <ele>782.0</ele>
        <time>2019-07-07T07:20:59Z</time>
      </trkpt>
      <trkpt lat="40.5286900" lon="-2.7423280">
        <ele>781.8</ele>
        <time>2019-07-07T07:21:00Z</time>
      </trkpt>
      <trkpt lat="40.5285330" lon="-2.7423730">
        <ele>781.2</ele>
        <time>2019-07-07T07:21:02Z</time>
      </trkpt>
      <trkpt lat="40.5284490" lon="-2.7423820">
        <ele>780.8</ele>
        <time>2019-07-07T07:21:03Z</time>
      </trkpt>
      <trkpt lat="40.5283660" lon="-2.7423840">
        <ele>780.4</ele>
        <time>2019-07-07T07:21:04Z</time>
      </trkpt>
      <trkpt lat="40.5282810" lon="-2.7423780">
        <ele>780.2</ele>
        <time>2019-07-07T07:21:05Z</time>
      </trkpt>
      <trkpt lat="40.5281960" lon="-2.7423640">
        <ele>779.8</ele>
        <time>2019-07-07T07:21:06Z</time>
      </trkpt>
      <trkpt lat="40.5280230" lon="-2.7423200">
        <ele>778.8</ele>
        <time>2019-07-07T07:21:08Z</time>
      </trkpt>
      <trkpt lat="40.5277630" lon="-2.7422570">
        <ele>777.8</ele>
        <time>2019-07-07T07:21:11Z</time>
      </trkpt>
      <trkpt lat="40.5276770" lon="-2.7422380">
        <ele>777.8</ele>
        <time>2019-07-07T07:21:12Z</time>
      </trkpt>
      <trkpt lat="40.5275920" lon="-2.7422170">
        <ele>777.6</ele>
        <time>2019-07-07T07:21:13Z</time>
      </trkpt>
      <trkpt lat="40.5275060" lon="-2.7421960">
        <ele>777.4</ele>
        <time>2019-07-07T07:21:14Z</time>
      </trkpt>
      <trkpt lat="40.5273350" lon="-2.7421520">
        <ele>777.4</ele>
        <time>2019-07-07T07:21:16Z</time>
      </trkpt>
      <trkpt lat="40.5269220" lon="-2.7420620">
        <ele>776.8</ele>
        <time>2019-07-07T07:21:21Z</time>
      </trkpt>
      <trkpt lat="40.5267620" lon="-2.7420610">
        <ele>776.6</ele>
        <time>2019-07-07T07:21:23Z</time>
      </trkpt>
      <trkpt lat="40.5266030" lon="-2.7420870">
        <ele>776.4</ele>
        <time>2019-07-07T07:21:25Z</time>
      </trkpt>
      <trkpt lat="40.5263630" lon="-2.7421560">
        <ele>775.4</ele>
        <time>2019-07-07T07:21:28Z</time>
      </trkpt>
      <trkpt lat="40.5259510" lon="-2.7422760">
        <ele>774.4</ele>
        <time>2019-07-07T07:21:33Z</time>
      </trkpt>
      <trkpt lat="40.5256410" lon="-2.7423770">
        <ele>774.0</ele>
        <time>2019-07-07T07:21:37Z</time>
      </trkpt>
      <trkpt lat="40.5254200" lon="-2.7424560">
        <ele>773.8</ele>
        <time>2019-07-07T07:21:40Z</time>
      </trkpt>
      <trkpt lat="40.5252120" lon="-2.7425590">
        <ele>773.6</ele>
        <time>2019-07-07T07:21:43Z</time>
      </trkpt>
      <trkpt lat="40.5248830" lon="-2.7427800">
        <ele>773.4</ele>
        <time>2019-07-07T07:21:48Z</time>
      </trkpt>
      <trkpt lat="40.5246770" lon="-2.7429220">
        <ele>772.6</ele>
        <time>2019-07-07T07:21:51Z</time>
      </trkpt>
      <trkpt lat="40.5246070" lon="-2.7429730">
        <ele>772.2</ele>
        <time>2019-07-07T07:21:52Z</time>
      </trkpt>
      <trkpt lat="40.5242410" lon="-2.7431800">
        <ele>771.4</ele>
        <time>2019-07-07T07:21:57Z</time>
      </trkpt>
      <trkpt lat="40.5240860" lon="-2.7432050">
        <ele>771.2</ele>
        <time>2019-07-07T07:21:59Z</time>
      </trkpt>
      <trkpt lat="40.5239340" lon="-2.7432090">
        <ele>771.0</ele>
        <time>2019-07-07T07:22:01Z</time>
      </trkpt>
      <trkpt lat="40.5235000" lon="-2.7431670">
        <ele>770.6</ele>
        <time>2019-07-07T07:22:07Z</time>
      </trkpt>
      <trkpt lat="40.5231970" lon="-2.7431450">
        <ele>771.4</ele>
        <time>2019-07-07T07:22:12Z</time>
      </trkpt>
      <trkpt lat="40.5231400" lon="-2.7431500">
        <ele>771.6</ele>
        <time>2019-07-07T07:22:13Z</time>
      </trkpt>
      <trkpt lat="40.5228680" lon="-2.7432240">
        <ele>772.0</ele>
        <time>2019-07-07T07:22:18Z</time>
      </trkpt>
      <trkpt lat="40.5228170" lon="-2.7432450">
        <ele>772.2</ele>
        <time>2019-07-07T07:22:19Z</time>
      </trkpt>
      <trkpt lat="40.5226660" lon="-2.7433100">
        <ele>772.6</ele>
        <time>2019-07-07T07:22:22Z</time>
      </trkpt>
      <trkpt lat="40.5224200" lon="-2.7434280">
        <ele>772.8</ele>
        <time>2019-07-07T07:22:27Z</time>
      </trkpt>
      <trkpt lat="40.5222100" lon="-2.7435180">
        <ele>773.0</ele>
        <time>2019-07-07T07:22:31Z</time>
      </trkpt>
      <trkpt lat="40.5221550" lon="-2.7435250">
        <ele>773.4</ele>
        <time>2019-07-07T07:22:32Z</time>
      </trkpt>
      <trkpt lat="40.5220980" lon="-2.7435310">
        <ele>773.4</ele>
        <time>2019-07-07T07:22:33Z</time>
      </trkpt>
      <trkpt lat="40.5219810" lon="-2.7435340">
        <ele>773.6</ele>
        <time>2019-07-07T07:22:35Z</time>
      </trkpt>
      <trkpt lat="40.5218050" lon="-2.7435060">
        <ele>773.8</ele>
        <time>2019-07-07T07:22:38Z</time>
      </trkpt>
      <trkpt lat="40.5212960" lon="-2.7434050">
        <ele>774.0</ele>
        <time>2019-07-07T07:22:47Z</time>
      </trkpt>
      <trkpt lat="40.5208430" lon="-2.7433430">
        <ele>774.4</ele>
        <time>2019-07-07T07:22:55Z</time>
      </trkpt>
      <trkpt lat="40.5204840" lon="-2.7433690">
        <ele>774.6</ele>
        <time>2019-07-07T07:23:01Z</time>
      </trkpt>
      <trkpt lat="40.5199770" lon="-2.7434290">
        <ele>774.6</ele>
        <time>2019-07-07T07:23:09Z</time>
      </trkpt>
      <trkpt lat="40.5197930" lon="-2.7434560">
        <ele>774.6</ele>
        <time>2019-07-07T07:23:12Z</time>
      </trkpt>
      <trkpt lat="40.5196230" lon="-2.7434640">
        <ele>774.8</ele>
        <time>2019-07-07T07:23:15Z</time>
      </trkpt>
      <trkpt lat="40.5194100" lon="-2.7434470">
        <ele>775.2</ele>
        <time>2019-07-07T07:23:19Z</time>
      </trkpt>
      <trkpt lat="40.5193140" lon="-2.7434260">
        <ele>775.4</ele>
        <time>2019-07-07T07:23:21Z</time>
      </trkpt>
      <trkpt lat="40.5192220" lon="-2.7434010">
        <ele>776.0</ele>
        <time>2019-07-07T07:23:23Z</time>
      </trkpt>
      <trkpt lat="40.5190920" lon="-2.7433510">
        <ele>776.4</ele>
        <time>2019-07-07T07:23:26Z</time>
      </trkpt>
      <trkpt lat="40.5190070" lon="-2.7433180">
        <ele>776.6</ele>
        <time>2019-07-07T07:23:28Z</time>
      </trkpt>
      <trkpt lat="40.5188410" lon="-2.7432470">
        <ele>777.6</ele>
        <time>2019-07-07T07:23:32Z</time>
      </trkpt>
      <trkpt lat="40.5187990" lon="-2.7432310">
        <ele>777.8</ele>
        <time>2019-07-07T07:23:33Z</time>
      </trkpt>
      <trkpt lat="40.5186310" lon="-2.7431980">
        <ele>779.0</ele>
        <time>2019-07-07T07:23:37Z</time>
      </trkpt>
      <trkpt lat="40.5185860" lon="-2.7431940">
        <ele>778.8</ele>
        <time>2019-07-07T07:23:38Z</time>
      </trkpt>
      <trkpt lat="40.5184960" lon="-2.7431880">
        <ele>779.4</ele>
        <time>2019-07-07T07:23:40Z</time>
      </trkpt>
      <trkpt lat="40.5184500" lon="-2.7431890">
        <ele>779.4</ele>
        <time>2019-07-07T07:23:41Z</time>
      </trkpt>
      <trkpt lat="40.5183570" lon="-2.7431990">
        <ele>779.6</ele>
        <time>2019-07-07T07:23:43Z</time>
      </trkpt>
      <trkpt lat="40.5183100" lon="-2.7432080">
        <ele>780.0</ele>
        <time>2019-07-07T07:23:44Z</time>
      </trkpt>
      <trkpt lat="40.5182180" lon="-2.7432220">
        <ele>780.0</ele>
        <time>2019-07-07T07:23:46Z</time>
      </trkpt>
      <trkpt lat="40.5180280" lon="-2.7432340">
        <ele>780.4</ele>
        <time>2019-07-07T07:23:50Z</time>
      </trkpt>
      <trkpt lat="40.5179350" lon="-2.7432390">
        <ele>780.6</ele>
        <time>2019-07-07T07:23:52Z</time>
      </trkpt>
      <trkpt lat="40.5175930" lon="-2.7432480">
        <ele>780.8</ele>
        <time>2019-07-07T07:23:59Z</time>
      </trkpt>
      <trkpt lat="40.5175420" lon="-2.7432550">
        <ele>781.0</ele>
        <time>2019-07-07T07:24:00Z</time>
      </trkpt>
      <trkpt lat="40.5173880" lon="-2.7432720">
        <ele>781.2</ele>
        <time>2019-07-07T07:24:03Z</time>
      </trkpt>
      <trkpt lat="40.5172820" lon="-2.7432750">
        <ele>781.2</ele>
        <time>2019-07-07T07:24:05Z</time>
      </trkpt>
      <trkpt lat="40.5171670" lon="-2.7432440">
        <ele>781.2</ele>
        <time>2019-07-07T07:24:07Z</time>
      </trkpt>
      <trkpt lat="40.5169520" lon="-2.7430910">
        <ele>781.0</ele>
        <time>2019-07-07T07:24:11Z</time>
      </trkpt>
      <trkpt lat="40.5168620" lon="-2.7429750">
        <ele>781.0</ele>
        <time>2019-07-07T07:24:13Z</time>
      </trkpt>
      <trkpt lat="40.5167040" lon="-2.7427470">
        <ele>781.0</ele>
        <time>2019-07-07T07:24:17Z</time>
      </trkpt>
      <trkpt lat="40.5165220" lon="-2.7424570">
        <ele>781.6</ele>
        <time>2019-07-07T07:24:23Z</time>
      </trkpt>
      <trkpt lat="40.5164220" lon="-2.7422680">
        <ele>782.4</ele>
        <time>2019-07-07T07:24:27Z</time>
      </trkpt>
      <trkpt lat="40.5163720" lon="-2.7421770">
        <ele>783.0</ele>
        <time>2019-07-07T07:24:29Z</time>
      </trkpt>
      <trkpt lat="40.5163130" lon="-2.7420960">
        <ele>783.6</ele>
        <time>2019-07-07T07:24:31Z</time>
      </trkpt>
      <trkpt lat="40.5162210" lon="-2.7419870">
        <ele>784.2</ele>
        <time>2019-07-07T07:24:34Z</time>
      </trkpt>
      <trkpt lat="40.5161900" lon="-2.7419550">
        <ele>784.6</ele>
        <time>2019-07-07T07:24:35Z</time>
      </trkpt>
      <trkpt lat="40.5161240" lon="-2.7418930">
        <ele>785.2</ele>
        <time>2019-07-07T07:24:37Z</time>
      </trkpt>
      <trkpt lat="40.5160570" lon="-2.7418400">
        <ele>785.8</ele>
        <time>2019-07-07T07:24:39Z</time>
      </trkpt>
      <trkpt lat="40.5159550" lon="-2.7417720">
        <ele>786.4</ele>
        <time>2019-07-07T07:24:42Z</time>
      </trkpt>
      <trkpt lat="40.5159210" lon="-2.7417480">
        <ele>786.6</ele>
        <time>2019-07-07T07:24:43Z</time>
      </trkpt>
      <trkpt lat="40.5158870" lon="-2.7417250">
        <ele>786.8</ele>
        <time>2019-07-07T07:24:44Z</time>
      </trkpt>
      <trkpt lat="40.5157540" lon="-2.7416490">
        <ele>788.0</ele>
        <time>2019-07-07T07:24:48Z</time>
      </trkpt>
      <trkpt lat="40.5157260" lon="-2.7416280">
        <ele>788.4</ele>
        <time>2019-07-07T07:24:49Z</time>
      </trkpt>
      <trkpt lat="40.5156330" lon="-2.7415590">
        <ele>789.2</ele>
        <time>2019-07-07T07:24:52Z</time>
      </trkpt>
      <trkpt lat="40.5154950" lon="-2.7414870">
        <ele>790.2</ele>
        <time>2019-07-07T07:24:56Z</time>
      </trkpt>
      <trkpt lat="40.5154600" lon="-2.7414730">
        <ele>790.4</ele>
        <time>2019-07-07T07:24:57Z</time>
      </trkpt>
      <trkpt lat="40.5153160" lon="-2.7414470">
        <ele>791.4</ele>
        <time>2019-07-07T07:25:01Z</time>
      </trkpt>
      <trkpt lat="40.5152410" lon="-2.7414610">
        <ele>791.8</ele>
        <time>2019-07-07T07:25:03Z</time>
      </trkpt>
      <trkpt lat="40.5151320" lon="-2.7414800">
        <ele>792.4</ele>
        <time>2019-07-07T07:25:06Z</time>
      </trkpt>
      <trkpt lat="40.5149980" lon="-2.7415220">
        <ele>793.0</ele>
        <time>2019-07-07T07:25:10Z</time>
      </trkpt>
      <trkpt lat="40.5148960" lon="-2.7415580">
        <ele>793.6</ele>
        <time>2019-07-07T07:25:13Z</time>
      </trkpt>
      <trkpt lat="40.5147450" lon="-2.7416670">
        <ele>794.2</ele>
        <time>2019-07-07T07:25:18Z</time>
      </trkpt>
      <trkpt lat="40.5146640" lon="-2.7417720">
        <ele>794.4</ele>
        <time>2019-07-07T07:25:21Z</time>
      </trkpt>
      <trkpt lat="40.5146190" lon="-2.7418640">
        <ele>795.0</ele>
        <time>2019-07-07T07:25:23Z</time>
      </trkpt>
      <trkpt lat="40.5146040" lon="-2.7419160">
        <ele>795.0</ele>
        <time>2019-07-07T07:25:24Z</time>
      </trkpt>
      <trkpt lat="40.5145780" lon="-2.7421540">
        <ele>795.2</ele>
        <time>2019-07-07T07:25:28Z</time>
      </trkpt>
      <trkpt lat="40.5145770" lon="-2.7422790">
        <ele>795.0</ele>
        <time>2019-07-07T07:25:30Z</time>
      </trkpt>
      <trkpt lat="40.5145810" lon="-2.7423430">
        <ele>794.8</ele>
        <time>2019-07-07T07:25:31Z</time>
      </trkpt>
      <trkpt lat="40.5146210" lon="-2.7425290">
        <ele>794.8</ele>
        <time>2019-07-07T07:25:34Z</time>
      </trkpt>
      <trkpt lat="40.5146500" lon="-2.7425870">
        <ele>794.8</ele>
        <time>2019-07-07T07:25:35Z</time>
      </trkpt>
      <trkpt lat="40.5147780" lon="-2.7427350">
        <ele>794.6</ele>
        <time>2019-07-07T07:25:38Z</time>
      </trkpt>
      <trkpt lat="40.5148300" lon="-2.7427770">
        <ele>794.8</ele>
        <time>2019-07-07T07:25:39Z</time>
      </trkpt>
      <trkpt lat="40.5148810" lon="-2.7428260">
        <ele>794.4</ele>
        <time>2019-07-07T07:25:40Z</time>
      </trkpt>
      <trkpt lat="40.5149700" lon="-2.7429470">
        <ele>794.2</ele>
        <time>2019-07-07T07:25:42Z</time>
      </trkpt>
      <trkpt lat="40.5150020" lon="-2.7430250">
        <ele>794.0</ele>
        <time>2019-07-07T07:25:43Z</time>
      </trkpt>
      <trkpt lat="40.5150130" lon="-2.7432000">
        <ele>793.2</ele>
        <time>2019-07-07T07:25:45Z</time>
      </trkpt>
      <trkpt lat="40.5149810" lon="-2.7432850">
        <ele>793.0</ele>
        <time>2019-07-07T07:25:46Z</time>
      </trkpt>
      <trkpt lat="40.5149300" lon="-2.7433580">
        <ele>792.6</ele>
        <time>2019-07-07T07:25:47Z</time>
      </trkpt>
      <trkpt lat="40.5148000" lon="-2.7434530">
        <ele>792.0</ele>
        <time>2019-07-07T07:25:49Z</time>
      </trkpt>
      <trkpt lat="40.5147270" lon="-2.7434800">
        <ele>792.0</ele>
        <time>2019-07-07T07:25:50Z</time>
      </trkpt>
      <trkpt lat="40.5145760" lon="-2.7435140">
        <ele>791.6</ele>
        <time>2019-07-07T07:25:52Z</time>
      </trkpt>
      <trkpt lat="40.5145000" lon="-2.7435290">
        <ele>791.2</ele>
        <time>2019-07-07T07:25:53Z</time>
      </trkpt>
      <trkpt lat="40.5144230" lon="-2.7435400">
        <ele>790.8</ele>
        <time>2019-07-07T07:25:54Z</time>
      </trkpt>
      <trkpt lat="40.5141080" lon="-2.7436010">
        <ele>790.0</ele>
        <time>2019-07-07T07:25:58Z</time>
      </trkpt>
      <trkpt lat="40.5139370" lon="-2.7436250">
        <ele>789.0</ele>
        <time>2019-07-07T07:26:00Z</time>
      </trkpt>
      <trkpt lat="40.5138490" lon="-2.7436350">
        <ele>788.6</ele>
        <time>2019-07-07T07:26:01Z</time>
      </trkpt>
      <trkpt lat="40.5134800" lon="-2.7436420">
        <ele>787.4</ele>
        <time>2019-07-07T07:26:05Z</time>
      </trkpt>
      <trkpt lat="40.5133880" lon="-2.7436380">
        <ele>787.0</ele>
        <time>2019-07-07T07:26:06Z</time>
      </trkpt>
      <trkpt lat="40.5132070" lon="-2.7436240">
        <ele>786.2</ele>
        <time>2019-07-07T07:26:08Z</time>
      </trkpt>
      <trkpt lat="40.5129360" lon="-2.7436080">
        <ele>785.6</ele>
        <time>2019-07-07T07:26:11Z</time>
      </trkpt>
      <trkpt lat="40.5127540" lon="-2.7435960">
        <ele>785.0</ele>
        <time>2019-07-07T07:26:13Z</time>
      </trkpt>
      <trkpt lat="40.5126630" lon="-2.7435890">
        <ele>784.6</ele>
        <time>2019-07-07T07:26:14Z</time>
      </trkpt>
      <trkpt lat="40.5124800" lon="-2.7435530">
        <ele>783.6</ele>
        <time>2019-07-07T07:26:16Z</time>
      </trkpt>
      <trkpt lat="40.5123910" lon="-2.7435200">
        <ele>783.4</ele>
        <time>2019-07-07T07:26:17Z</time>
      </trkpt>
      <trkpt lat="40.5123080" lon="-2.7434760">
        <ele>783.2</ele>
        <time>2019-07-07T07:26:18Z</time>
      </trkpt>
      <trkpt lat="40.5121110" lon="-2.7432680">
        <ele>782.8</ele>
        <time>2019-07-07T07:26:21Z</time>
      </trkpt>
      <trkpt lat="40.5120610" lon="-2.7431820">
        <ele>782.8</ele>
        <time>2019-07-07T07:26:22Z</time>
      </trkpt>
      <trkpt lat="40.5120110" lon="-2.7430980">
        <ele>782.6</ele>
        <time>2019-07-07T07:26:23Z</time>
      </trkpt>
      <trkpt lat="40.5117810" lon="-2.7426600">
        <ele>781.6</ele>
        <time>2019-07-07T07:26:28Z</time>
      </trkpt>
      <trkpt lat="40.5115780" lon="-2.7424720">
        <ele>780.8</ele>
        <time>2019-07-07T07:26:31Z</time>
      </trkpt>
      <trkpt lat="40.5114950" lon="-2.7424360">
        <ele>780.2</ele>
        <time>2019-07-07T07:26:32Z</time>
      </trkpt>
      <trkpt lat="40.5114090" lon="-2.7424060">
        <ele>779.8</ele>
        <time>2019-07-07T07:26:33Z</time>
      </trkpt>
      <trkpt lat="40.5113210" lon="-2.7423810">
        <ele>779.2</ele>
        <time>2019-07-07T07:26:34Z</time>
      </trkpt>
      <trkpt lat="40.5112290" lon="-2.7423590">
        <ele>778.6</ele>
        <time>2019-07-07T07:26:35Z</time>
      </trkpt>
      <trkpt lat="40.5110390" lon="-2.7423080">
        <ele>777.6</ele>
        <time>2019-07-07T07:26:37Z</time>
      </trkpt>
      <trkpt lat="40.5107620" lon="-2.7421920">
        <ele>776.2</ele>
        <time>2019-07-07T07:26:40Z</time>
      </trkpt>
      <trkpt lat="40.5105350" lon="-2.7419760">
        <ele>775.0</ele>
        <time>2019-07-07T07:26:43Z</time>
      </trkpt>
      <trkpt lat="40.5104320" lon="-2.7417830">
        <ele>774.8</ele>
        <time>2019-07-07T07:26:45Z</time>
      </trkpt>
      <trkpt lat="40.5103790" lon="-2.7416950">
        <ele>774.6</ele>
        <time>2019-07-07T07:26:46Z</time>
      </trkpt>
      <trkpt lat="40.5103190" lon="-2.7416160">
        <ele>774.4</ele>
        <time>2019-07-07T07:26:47Z</time>
      </trkpt>
      <trkpt lat="40.5101740" lon="-2.7415340">
        <ele>774.2</ele>
        <time>2019-07-07T07:26:49Z</time>
      </trkpt>
      <trkpt lat="40.5100950" lon="-2.7415500">
        <ele>774.0</ele>
        <time>2019-07-07T07:26:50Z</time>
      </trkpt>
      <trkpt lat="40.5100230" lon="-2.7415910">
        <ele>773.8</ele>
        <time>2019-07-07T07:26:51Z</time>
      </trkpt>
      <trkpt lat="40.5098370" lon="-2.7417870">
        <ele>773.2</ele>
        <time>2019-07-07T07:26:54Z</time>
      </trkpt>
      <trkpt lat="40.5097770" lon="-2.7418590">
        <ele>772.8</ele>
        <time>2019-07-07T07:26:55Z</time>
      </trkpt>
      <trkpt lat="40.5095650" lon="-2.7421680">
        <ele>772.0</ele>
        <time>2019-07-07T07:26:59Z</time>
      </trkpt>
      <trkpt lat="40.5095380" lon="-2.7422650">
        <ele>771.8</ele>
        <time>2019-07-07T07:27:00Z</time>
      </trkpt>
      <trkpt lat="40.5095630" lon="-2.7424790">
        <ele>771.2</ele>
        <time>2019-07-07T07:27:02Z</time>
      </trkpt>
      <trkpt lat="40.5096020" lon="-2.7425800">
        <ele>770.8</ele>
        <time>2019-07-07T07:27:03Z</time>
      </trkpt>
      <trkpt lat="40.5096460" lon="-2.7426760">
        <ele>770.6</ele>
        <time>2019-07-07T07:27:04Z</time>
      </trkpt>
      <trkpt lat="40.5096850" lon="-2.7427770">
        <ele>770.2</ele>
        <time>2019-07-07T07:27:05Z</time>
      </trkpt>
      <trkpt lat="40.5097090" lon="-2.7430030">
        <ele>769.6</ele>
        <time>2019-07-07T07:27:07Z</time>
      </trkpt>
      <trkpt lat="40.5096850" lon="-2.7431140">
        <ele>769.0</ele>
        <time>2019-07-07T07:27:08Z</time>
      </trkpt>
      <trkpt lat="40.5095840" lon="-2.7433060">
        <ele>768.4</ele>
        <time>2019-07-07T07:27:10Z</time>
      </trkpt>
      <trkpt lat="40.5095100" lon="-2.7433710">
        <ele>768.0</ele>
        <time>2019-07-07T07:27:11Z</time>
      </trkpt>
      <trkpt lat="40.5093490" lon="-2.7434630">
        <ele>767.4</ele>
        <time>2019-07-07T07:27:13Z</time>
      </trkpt>
      <trkpt lat="40.5091930" lon="-2.7435260">
        <ele>767.2</ele>
        <time>2019-07-07T07:27:15Z</time>
      </trkpt>
      <trkpt lat="40.5089680" lon="-2.7435980">
        <ele>767.2</ele>
        <time>2019-07-07T07:27:18Z</time>
      </trkpt>
      <trkpt lat="40.5088260" lon="-2.7436520">
        <ele>767.0</ele>
        <time>2019-07-07T07:27:20Z</time>
      </trkpt>
      <trkpt lat="40.5087550" lon="-2.7436750">
        <ele>766.8</ele>
        <time>2019-07-07T07:27:21Z</time>
      </trkpt>
      <trkpt lat="40.5084620" lon="-2.7437690">
        <ele>766.2</ele>
        <time>2019-07-07T07:27:25Z</time>
      </trkpt>
      <trkpt lat="40.5083860" lon="-2.7437840">
        <ele>766.0</ele>
        <time>2019-07-07T07:27:26Z</time>
      </trkpt>
      <trkpt lat="40.5082360" lon="-2.7438000">
        <ele>765.8</ele>
        <time>2019-07-07T07:27:28Z</time>
      </trkpt>
      <trkpt lat="40.5077540" lon="-2.7438660">
        <ele>765.2</ele>
        <time>2019-07-07T07:27:35Z</time>
      </trkpt>
      <trkpt lat="40.5076260" lon="-2.7439000">
        <ele>765.2</ele>
        <time>2019-07-07T07:27:37Z</time>
      </trkpt>
      <trkpt lat="40.5075610" lon="-2.7439210">
        <ele>765.2</ele>
        <time>2019-07-07T07:27:38Z</time>
      </trkpt>
      <trkpt lat="40.5074300" lon="-2.7439720">
        <ele>765.0</ele>
        <time>2019-07-07T07:27:40Z</time>
      </trkpt>
      <trkpt lat="40.5072930" lon="-2.7440200">
        <ele>764.6</ele>
        <time>2019-07-07T07:27:42Z</time>
      </trkpt>
      <trkpt lat="40.5070890" lon="-2.7441060">
        <ele>764.2</ele>
        <time>2019-07-07T07:27:45Z</time>
      </trkpt>
      <trkpt lat="40.5068120" lon="-2.7442070">
        <ele>763.4</ele>
        <time>2019-07-07T07:27:49Z</time>
      </trkpt>
      <trkpt lat="40.5067350" lon="-2.7442150">
        <ele>763.2</ele>
        <time>2019-07-07T07:27:50Z</time>
      </trkpt>
      <trkpt lat="40.5065820" lon="-2.7441890">
        <ele>762.8</ele>
        <time>2019-07-07T07:27:52Z</time>
      </trkpt>
      <trkpt lat="40.5064440" lon="-2.7441280">
        <ele>762.8</ele>
        <time>2019-07-07T07:27:54Z</time>
      </trkpt>
      <trkpt lat="40.5061720" lon="-2.7440240">
        <ele>762.8</ele>
        <time>2019-07-07T07:27:58Z</time>
      </trkpt>
      <trkpt lat="40.5059570" lon="-2.7440480">
        <ele>762.4</ele>
        <time>2019-07-07T07:28:01Z</time>
      </trkpt>
      <trkpt lat="40.5058190" lon="-2.7441310">
        <ele>762.0</ele>
        <time>2019-07-07T07:28:03Z</time>
      </trkpt>
      <trkpt lat="40.5056700" lon="-2.7442210">
        <ele>761.4</ele>
        <time>2019-07-07T07:28:05Z</time>
      </trkpt>
      <trkpt lat="40.5055120" lon="-2.7442930">
        <ele>760.8</ele>
        <time>2019-07-07T07:28:07Z</time>
      </trkpt>
      <trkpt lat="40.5052800" lon="-2.7443780">
        <ele>759.6</ele>
        <time>2019-07-07T07:28:10Z</time>
      </trkpt>
      <trkpt lat="40.5051190" lon="-2.7444080">
        <ele>759.4</ele>
        <time>2019-07-07T07:28:12Z</time>
      </trkpt>
      <trkpt lat="40.5048740" lon="-2.7443940">
        <ele>758.8</ele>
        <time>2019-07-07T07:28:15Z</time>
      </trkpt>
      <trkpt lat="40.5047920" lon="-2.7443720">
        <ele>758.4</ele>
        <time>2019-07-07T07:28:16Z</time>
      </trkpt>
      <trkpt lat="40.5047120" lon="-2.7443480">
        <ele>758.2</ele>
        <time>2019-07-07T07:28:17Z</time>
      </trkpt>
      <trkpt lat="40.5045480" lon="-2.7443100">
        <ele>757.4</ele>
        <time>2019-07-07T07:28:19Z</time>
      </trkpt>
      <trkpt lat="40.5044640" lon="-2.7443060">
        <ele>757.0</ele>
        <time>2019-07-07T07:28:20Z</time>
      </trkpt>
      <trkpt lat="40.5042100" lon="-2.7443500">
        <ele>756.0</ele>
        <time>2019-07-07T07:28:23Z</time>
      </trkpt>
      <trkpt lat="40.5041260" lon="-2.7443790">
        <ele>755.8</ele>
        <time>2019-07-07T07:28:24Z</time>
      </trkpt>
      <trkpt lat="40.5038730" lon="-2.7444780">
        <ele>754.8</ele>
        <time>2019-07-07T07:28:27Z</time>
      </trkpt>
      <trkpt lat="40.5037870" lon="-2.7445030">
        <ele>754.4</ele>
        <time>2019-07-07T07:28:28Z</time>
      </trkpt>
      <trkpt lat="40.5036080" lon="-2.7445090">
        <ele>753.4</ele>
        <time>2019-07-07T07:28:30Z</time>
      </trkpt>
      <trkpt lat="40.5033360" lon="-2.7444190">
        <ele>752.2</ele>
        <time>2019-07-07T07:28:33Z</time>
      </trkpt>
      <trkpt lat="40.5032430" lon="-2.7443860">
        <ele>751.6</ele>
        <time>2019-07-07T07:28:34Z</time>
      </trkpt>
      <trkpt lat="40.5031460" lon="-2.7443650">
        <ele>751.2</ele>
        <time>2019-07-07T07:28:35Z</time>
      </trkpt>
      <trkpt lat="40.5030500" lon="-2.7443570">
        <ele>750.6</ele>
        <time>2019-07-07T07:28:36Z</time>
      </trkpt>
      <trkpt lat="40.5029540" lon="-2.7443640">
        <ele>750.2</ele>
        <time>2019-07-07T07:28:37Z</time>
      </trkpt>
      <trkpt lat="40.5027730" lon="-2.7444350">
        <ele>749.6</ele>
        <time>2019-07-07T07:28:39Z</time>
      </trkpt>
      <trkpt lat="40.5026850" lon="-2.7444880">
        <ele>749.2</ele>
        <time>2019-07-07T07:28:40Z</time>
      </trkpt>
      <trkpt lat="40.5025160" lon="-2.7446020">
        <ele>748.4</ele>
        <time>2019-07-07T07:28:42Z</time>
      </trkpt>
      <trkpt lat="40.5022710" lon="-2.7447740">
        <ele>747.2</ele>
        <time>2019-07-07T07:28:45Z</time>
      </trkpt>
      <trkpt lat="40.5021930" lon="-2.7448320">
        <ele>747.0</ele>
        <time>2019-07-07T07:28:46Z</time>
      </trkpt>
      <trkpt lat="40.5019670" lon="-2.7450010">
        <ele>746.4</ele>
        <time>2019-07-07T07:28:49Z</time>
      </trkpt>
      <trkpt lat="40.5018940" lon="-2.7450550">
        <ele>746.0</ele>
        <time>2019-07-07T07:28:50Z</time>
      </trkpt>
      <trkpt lat="40.5017500" lon="-2.7451460">
        <ele>745.8</ele>
        <time>2019-07-07T07:28:52Z</time>
      </trkpt>
      <trkpt lat="40.5016020" lon="-2.7452050">
        <ele>745.6</ele>
        <time>2019-07-07T07:28:54Z</time>
      </trkpt>
      <trkpt lat="40.5014630" lon="-2.7452080">
        <ele>745.8</ele>
        <time>2019-07-07T07:28:56Z</time>
      </trkpt>
      <trkpt lat="40.5014010" lon="-2.7451940">
        <ele>746.4</ele>
        <time>2019-07-07T07:28:57Z</time>
      </trkpt>
      <trkpt lat="40.5013450" lon="-2.7451770">
        <ele>746.6</ele>
        <time>2019-07-07T07:28:58Z</time>
      </trkpt>
      <trkpt lat="40.5012910" lon="-2.7451600">
        <ele>747.0</ele>
        <time>2019-07-07T07:28:59Z</time>
      </trkpt>
      <trkpt lat="40.5012390" lon="-2.7451450">
        <ele>747.4</ele>
        <time>2019-07-07T07:29:00Z</time>
      </trkpt>
      <trkpt lat="40.5011870" lon="-2.7451330">
        <ele>747.6</ele>
        <time>2019-07-07T07:29:01Z</time>
      </trkpt>
      <trkpt lat="40.5010850" lon="-2.7451300">
        <ele>748.2</ele>
        <time>2019-07-07T07:29:03Z</time>
      </trkpt>
      <trkpt lat="40.5010350" lon="-2.7451430">
        <ele>748.6</ele>
        <time>2019-07-07T07:29:04Z</time>
      </trkpt>
      <trkpt lat="40.5009850" lon="-2.7451640">
        <ele>749.0</ele>
        <time>2019-07-07T07:29:05Z</time>
      </trkpt>
      <trkpt lat="40.5008920" lon="-2.7452270">
        <ele>749.4</ele>
        <time>2019-07-07T07:29:07Z</time>
      </trkpt>
      <trkpt lat="40.5008130" lon="-2.7453130">
        <ele>749.8</ele>
        <time>2019-07-07T07:29:09Z</time>
      </trkpt>
      <trkpt lat="40.5007750" lon="-2.7453590">
        <ele>750.0</ele>
        <time>2019-07-07T07:29:10Z</time>
      </trkpt>
      <trkpt lat="40.5007050" lon="-2.7454510">
        <ele>750.6</ele>
        <time>2019-07-07T07:29:12Z</time>
      </trkpt>
      <trkpt lat="40.5006710" lon="-2.7454970">
        <ele>751.0</ele>
        <time>2019-07-07T07:29:13Z</time>
      </trkpt>
      <trkpt lat="40.5005590" lon="-2.7456240">
        <ele>751.6</ele>
        <time>2019-07-07T07:29:16Z</time>
      </trkpt>
      <trkpt lat="40.5005150" lon="-2.7456540">
        <ele>751.8</ele>
        <time>2019-07-07T07:29:17Z</time>
      </trkpt>
      <trkpt lat="40.5004660" lon="-2.7456740">
        <ele>752.0</ele>
        <time>2019-07-07T07:29:18Z</time>
      </trkpt>
      <trkpt lat="40.5003620" lon="-2.7456880">
        <ele>752.2</ele>
        <time>2019-07-07T07:29:20Z</time>
      </trkpt>
      <trkpt lat="40.5003090" lon="-2.7456800">
        <ele>752.2</ele>
        <time>2019-07-07T07:29:21Z</time>
      </trkpt>
      <trkpt lat="40.5001170" lon="-2.7455880">
        <ele>752.6</ele>
        <time>2019-07-07T07:29:25Z</time>
      </trkpt>
      <trkpt lat="40.5000750" lon="-2.7455570">
        <ele>752.6</ele>
        <time>2019-07-07T07:29:26Z</time>
      </trkpt>
      <trkpt lat="40.4999090" lon="-2.7454320">
        <ele>753.2</ele>
        <time>2019-07-07T07:29:30Z</time>
      </trkpt>
      <trkpt lat="40.4997860" lon="-2.7453540">
        <ele>753.6</ele>
        <time>2019-07-07T07:29:33Z</time>
      </trkpt>
      <trkpt lat="40.4996670" lon="-2.7452650">
        <ele>754.0</ele>
        <time>2019-07-07T07:29:36Z</time>
      </trkpt>
      <trkpt lat="40.4995500" lon="-2.7451890">
        <ele>754.8</ele>
        <time>2019-07-07T07:29:39Z</time>
      </trkpt>
      <trkpt lat="40.4994740" lon="-2.7451310">
        <ele>755.0</ele>
        <time>2019-07-07T07:29:41Z</time>
      </trkpt>
      <trkpt lat="40.4993970" lon="-2.7450730">
        <ele>755.4</ele>
        <time>2019-07-07T07:29:43Z</time>
      </trkpt>
      <trkpt lat="40.4993090" lon="-2.7450290">
        <ele>756.2</ele>
        <time>2019-07-07T07:29:45Z</time>
      </trkpt>
      <trkpt lat="40.4992660" lon="-2.7450230">
        <ele>756.4</ele>
        <time>2019-07-07T07:29:46Z</time>
      </trkpt>
      <trkpt lat="40.4991360" lon="-2.7450450">
        <ele>757.2</ele>
        <time>2019-07-07T07:29:49Z</time>
      </trkpt>
      <trkpt lat="40.4990680" lon="-2.7450980">
        <ele>757.8</ele>
        <time>2019-07-07T07:29:51Z</time>
      </trkpt>
      <trkpt lat="40.4990120" lon="-2.7451770">
        <ele>758.2</ele>
        <time>2019-07-07T07:29:53Z</time>
      </trkpt>
      <trkpt lat="40.4989490" lon="-2.7453750">
        <ele>758.8</ele>
        <time>2019-07-07T07:29:57Z</time>
      </trkpt>
      <trkpt lat="40.4989360" lon="-2.7454270">
        <ele>759.0</ele>
        <time>2019-07-07T07:29:58Z</time>
      </trkpt>
      <trkpt lat="40.4988870" lon="-2.7456500">
        <ele>759.4</ele>
        <time>2019-07-07T07:30:02Z</time>
      </trkpt>
      <trkpt lat="40.4988650" lon="-2.7457530">
        <ele>759.8</ele>
        <time>2019-07-07T07:30:04Z</time>
      </trkpt>
      <trkpt lat="40.4988500" lon="-2.7458030">
        <ele>760.0</ele>
        <time>2019-07-07T07:30:05Z</time>
      </trkpt>
      <trkpt lat="40.4988320" lon="-2.7458520">
        <ele>760.2</ele>
        <time>2019-07-07T07:30:06Z</time>
      </trkpt>
      <trkpt lat="40.4987710" lon="-2.7460480">
        <ele>761.0</ele>
        <time>2019-07-07T07:30:10Z</time>
      </trkpt>
      <trkpt lat="40.4987490" lon="-2.7460930">
        <ele>761.2</ele>
        <time>2019-07-07T07:30:11Z</time>
      </trkpt>
      <trkpt lat="40.4986410" lon="-2.7462580">
        <ele>761.8</ele>
        <time>2019-07-07T07:30:15Z</time>
      </trkpt>
      <trkpt lat="40.4985840" lon="-2.7463380">
        <ele>762.4</ele>
        <time>2019-07-07T07:30:17Z</time>
      </trkpt>
      <trkpt lat="40.4984770" lon="-2.7464370">
        <ele>762.6</ele>
        <time>2019-07-07T07:30:20Z</time>
      </trkpt>
      <trkpt lat="40.4984380" lon="-2.7464650">
        <ele>762.8</ele>
        <time>2019-07-07T07:30:21Z</time>
      </trkpt>
      <trkpt lat="40.4982380" lon="-2.7465780">
        <ele>763.4</ele>
        <time>2019-07-07T07:30:26Z</time>
      </trkpt>
      <trkpt lat="40.4981580" lon="-2.7466210">
        <ele>763.8</ele>
        <time>2019-07-07T07:30:28Z</time>
      </trkpt>
      <trkpt lat="40.4978970" lon="-2.7467280">
        <ele>764.4</ele>
        <time>2019-07-07T07:30:34Z</time>
      </trkpt>
      <trkpt lat="40.4978480" lon="-2.7467390">
        <ele>764.4</ele>
        <time>2019-07-07T07:30:35Z</time>
      </trkpt>
      <trkpt lat="40.4975570" lon="-2.7468000">
        <ele>765.0</ele>
        <time>2019-07-07T07:30:41Z</time>
      </trkpt>
      <trkpt lat="40.4975100" lon="-2.7468130">
        <ele>765.0</ele>
        <time>2019-07-07T07:30:42Z</time>
      </trkpt>
      <trkpt lat="40.4973470" lon="-2.7469570">
        <ele>765.4</ele>
        <time>2019-07-07T07:30:46Z</time>
      </trkpt>
      <trkpt lat="40.4973150" lon="-2.7471640">
        <ele>765.4</ele>
        <time>2019-07-07T07:30:49Z</time>
      </trkpt>
      <trkpt lat="40.4973830" lon="-2.7473800">
        <ele>765.4</ele>
        <time>2019-07-07T07:30:52Z</time>
      </trkpt>
      <trkpt lat="40.4974150" lon="-2.7474530">
        <ele>765.2</ele>
        <time>2019-07-07T07:30:53Z</time>
      </trkpt>
      <trkpt lat="40.4974770" lon="-2.7476080">
        <ele>764.8</ele>
        <time>2019-07-07T07:30:55Z</time>
      </trkpt>
      <trkpt lat="40.4975030" lon="-2.7477900">
        <ele>764.4</ele>
        <time>2019-07-07T07:30:57Z</time>
      </trkpt>
      <trkpt lat="40.4974770" lon="-2.7479800">
        <ele>764.2</ele>
        <time>2019-07-07T07:30:59Z</time>
      </trkpt>
      <trkpt lat="40.4974400" lon="-2.7480640">
        <ele>764.0</ele>
        <time>2019-07-07T07:31:00Z</time>
      </trkpt>
      <trkpt lat="40.4973180" lon="-2.7481700">
        <ele>763.4</ele>
        <time>2019-07-07T07:31:02Z</time>
      </trkpt>
      <trkpt lat="40.4972420" lon="-2.7481840">
        <ele>763.2</ele>
        <time>2019-07-07T07:31:03Z</time>
      </trkpt>
      <trkpt lat="40.4970900" lon="-2.7481500">
        <ele>762.8</ele>
        <time>2019-07-07T07:31:05Z</time>
      </trkpt>
      <trkpt lat="40.4970170" lon="-2.7481140">
        <ele>762.6</ele>
        <time>2019-07-07T07:31:06Z</time>
      </trkpt>
      <trkpt lat="40.4968730" lon="-2.7480390">
        <ele>762.2</ele>
        <time>2019-07-07T07:31:08Z</time>
      </trkpt>
      <trkpt lat="40.4968010" lon="-2.7480080">
        <ele>762.2</ele>
        <time>2019-07-07T07:31:09Z</time>
      </trkpt>
      <trkpt lat="40.4966620" lon="-2.7479470">
        <ele>762.2</ele>
        <time>2019-07-07T07:31:11Z</time>
      </trkpt>
      <trkpt lat="40.4965980" lon="-2.7479120">
        <ele>762.4</ele>
        <time>2019-07-07T07:31:12Z</time>
      </trkpt>
      <trkpt lat="40.4963700" lon="-2.7477420">
        <ele>762.4</ele>
        <time>2019-07-07T07:31:16Z</time>
      </trkpt>
      <trkpt lat="40.4962090" lon="-2.7476080">
        <ele>762.4</ele>
        <time>2019-07-07T07:31:19Z</time>
      </trkpt>
      <trkpt lat="40.4960990" lon="-2.7475250">
        <ele>762.6</ele>
        <time>2019-07-07T07:31:21Z</time>
      </trkpt>
      <trkpt lat="40.4960400" lon="-2.7474950">
        <ele>762.8</ele>
        <time>2019-07-07T07:31:22Z</time>
      </trkpt>
      <trkpt lat="40.4958040" lon="-2.7474380">
        <ele>763.2</ele>
        <time>2019-07-07T07:31:26Z</time>
      </trkpt>
      <trkpt lat="40.4957470" lon="-2.7474410">
        <ele>763.4</ele>
        <time>2019-07-07T07:31:27Z</time>
      </trkpt>
      <trkpt lat="40.4956320" lon="-2.7474620">
        <ele>763.4</ele>
        <time>2019-07-07T07:31:29Z</time>
      </trkpt>
      <trkpt lat="40.4953810" lon="-2.7475240">
        <ele>763.2</ele>
        <time>2019-07-07T07:31:33Z</time>
      </trkpt>
      <trkpt lat="40.4950260" lon="-2.7476180">
        <ele>762.4</ele>
        <time>2019-07-07T07:31:38Z</time>
      </trkpt>
      <trkpt lat="40.4949540" lon="-2.7476440">
        <ele>762.0</ele>
        <time>2019-07-07T07:31:39Z</time>
      </trkpt>
      <trkpt lat="40.4948810" lon="-2.7476680">
        <ele>761.8</ele>
        <time>2019-07-07T07:31:40Z</time>
      </trkpt>
      <trkpt lat="40.4946530" lon="-2.7477360">
        <ele>760.8</ele>
        <time>2019-07-07T07:31:43Z</time>
      </trkpt>
      <trkpt lat="40.4944280" lon="-2.7478350">
        <ele>759.6</ele>
        <time>2019-07-07T07:31:46Z</time>
      </trkpt>
      <trkpt lat="40.4942460" lon="-2.7480500">
        <ele>758.6</ele>
        <time>2019-07-07T07:31:49Z</time>
      </trkpt>
      <trkpt lat="40.4942120" lon="-2.7481510">
        <ele>758.2</ele>
        <time>2019-07-07T07:31:50Z</time>
      </trkpt>
      <trkpt lat="40.4941800" lon="-2.7483710">
        <ele>757.6</ele>
        <time>2019-07-07T07:31:52Z</time>
      </trkpt>
      <trkpt lat="40.4941860" lon="-2.7484850">
        <ele>757.2</ele>
        <time>2019-07-07T07:31:53Z</time>
      </trkpt>
      <trkpt lat="40.4942350" lon="-2.7487080">
        <ele>756.6</ele>
        <time>2019-07-07T07:31:55Z</time>
      </trkpt>
      <trkpt lat="40.4942670" lon="-2.7488180">
        <ele>756.4</ele>
        <time>2019-07-07T07:31:56Z</time>
      </trkpt>
      <trkpt lat="40.4943010" lon="-2.7489260">
        <ele>756.0</ele>
        <time>2019-07-07T07:31:57Z</time>
      </trkpt>
      <trkpt lat="40.4943680" lon="-2.7491460">
        <ele>755.4</ele>
        <time>2019-07-07T07:31:59Z</time>
      </trkpt>
      <trkpt lat="40.4943950" lon="-2.7492590">
        <ele>755.0</ele>
        <time>2019-07-07T07:32:00Z</time>
      </trkpt>
      <trkpt lat="40.4944190" lon="-2.7493720">
        <ele>754.6</ele>
        <time>2019-07-07T07:32:01Z</time>
      </trkpt>
      <trkpt lat="40.4944840" lon="-2.7499410">
        <ele>754.0</ele>
        <time>2019-07-07T07:32:06Z</time>
      </trkpt>
      <trkpt lat="40.4944830" lon="-2.7501690">
        <ele>753.2</ele>
        <time>2019-07-07T07:32:08Z</time>
      </trkpt>
      <trkpt lat="40.4944850" lon="-2.7502740">
        <ele>752.6</ele>
        <time>2019-07-07T07:32:09Z</time>
      </trkpt>
      <trkpt lat="40.4944980" lon="-2.7504790">
        <ele>752.2</ele>
        <time>2019-07-07T07:32:11Z</time>
      </trkpt>
      <trkpt lat="40.4945100" lon="-2.7505810">
        <ele>752.0</ele>
        <time>2019-07-07T07:32:12Z</time>
      </trkpt>
      <trkpt lat="40.4945300" lon="-2.7506810">
        <ele>752.0</ele>
        <time>2019-07-07T07:32:13Z</time>
      </trkpt>
      <trkpt lat="40.4945580" lon="-2.7507780">
        <ele>751.6</ele>
        <time>2019-07-07T07:32:14Z</time>
      </trkpt>
      <trkpt lat="40.4946240" lon="-2.7509670">
        <ele>751.2</ele>
        <time>2019-07-07T07:32:16Z</time>
      </trkpt>
      <trkpt lat="40.4947380" lon="-2.7513430">
        <ele>750.6</ele>
        <time>2019-07-07T07:32:20Z</time>
      </trkpt>
      <trkpt lat="40.4947880" lon="-2.7515340">
        <ele>750.0</ele>
        <time>2019-07-07T07:32:22Z</time>
      </trkpt>
      <trkpt lat="40.4948180" lon="-2.7517200">
        <ele>749.6</ele>
        <time>2019-07-07T07:32:24Z</time>
      </trkpt>
      <trkpt lat="40.4948210" lon="-2.7518930">
        <ele>749.2</ele>
        <time>2019-07-07T07:32:26Z</time>
      </trkpt>
      <trkpt lat="40.4947860" lon="-2.7521390">
        <ele>749.6</ele>
        <time>2019-07-07T07:32:30Z</time>
      </trkpt>
      <trkpt lat="40.4947340" lon="-2.7522370">
        <ele>750.2</ele>
        <time>2019-07-07T07:32:33Z</time>
      </trkpt>
      <trkpt lat="40.4947120" lon="-2.7522600">
        <ele>750.2</ele>
        <time>2019-07-07T07:32:34Z</time>
      </trkpt>
      <trkpt lat="40.4946710" lon="-2.7523050">
        <ele>750.6</ele>
        <time>2019-07-07T07:32:36Z</time>
      </trkpt>
      <trkpt lat="40.4946350" lon="-2.7523520">
        <ele>750.8</ele>
        <time>2019-07-07T07:32:38Z</time>
      </trkpt>
      <trkpt lat="40.4946100" lon="-2.7524060">
        <ele>751.0</ele>
        <time>2019-07-07T07:32:40Z</time>
      </trkpt>
      <trkpt lat="40.4946030" lon="-2.7524290">
        <ele>751.2</ele>
        <time>2019-07-07T07:32:41Z</time>
      </trkpt>
      <trkpt lat="40.4945870" lon="-2.7524770">
        <ele>751.4</ele>
        <time>2019-07-07T07:32:44Z</time>
      </trkpt>
      <trkpt lat="40.4945790" lon="-2.7524880">
        <ele>751.6</ele>
        <time>2019-07-07T07:32:45Z</time>
      </trkpt>
      <trkpt lat="40.4945730" lon="-2.7524890">
        <ele>751.8</ele>
        <time>2019-07-07T07:32:46Z</time>
      </trkpt>
      <trkpt lat="40.4945710" lon="-2.7524830">
        <ele>752.0</ele>
        <time>2019-07-07T07:32:48Z</time>
      </trkpt>
      <trkpt lat="40.4945950" lon="-2.7524370">
        <ele>752.2</ele>
        <time>2019-07-07T07:32:59Z</time>
      </trkpt>
      <trkpt lat="40.4946280" lon="-2.7523860">
        <ele>752.2</ele>
        <time>2019-07-07T07:33:01Z</time>
      </trkpt>
      <trkpt lat="40.4947480" lon="-2.7522390">
        <ele>751.2</ele>
        <time>2019-07-07T07:33:06Z</time>
      </trkpt>
      <trkpt lat="40.4948260" lon="-2.7521400">
        <ele>750.6</ele>
        <time>2019-07-07T07:33:09Z</time>
      </trkpt>
      <trkpt lat="40.4949080" lon="-2.7520300">
        <ele>750.4</ele>
        <time>2019-07-07T07:33:12Z</time>
      </trkpt>
      <trkpt lat="40.4950180" lon="-2.7518860">
        <ele>750.0</ele>
        <time>2019-07-07T07:33:17Z</time>
      </trkpt>
      <trkpt lat="40.4950250" lon="-2.7518820">
        <ele>749.6</ele>
        <time>2019-07-07T07:33:19Z</time>
      </trkpt>
      <trkpt lat="40.4950490" lon="-2.7518400">
        <ele>749.6</ele>
        <time>2019-07-07T07:34:01Z</time>
      </trkpt>
      <trkpt lat="40.4950660" lon="-2.7518110">
        <ele>749.6</ele>
        <time>2019-07-07T07:34:02Z</time>
      </trkpt>
      <trkpt lat="40.4951140" lon="-2.7517520">
        <ele>749.4</ele>
        <time>2019-07-07T07:34:04Z</time>
      </trkpt>
      <trkpt lat="40.4951430" lon="-2.7517180">
        <ele>749.4</ele>
        <time>2019-07-07T07:34:05Z</time>
      </trkpt>
      <trkpt lat="40.4952370" lon="-2.7516040">
        <ele>749.0</ele>
        <time>2019-07-07T07:34:08Z</time>
      </trkpt>
      <trkpt lat="40.4952920" lon="-2.7515110">
        <ele>748.6</ele>
        <time>2019-07-07T07:34:10Z</time>
      </trkpt>
      <trkpt lat="40.4954100" lon="-2.7513310">
        <ele>747.8</ele>
        <time>2019-07-07T07:34:14Z</time>
      </trkpt>
      <trkpt lat="40.4954390" lon="-2.7512850">
        <ele>747.6</ele>
        <time>2019-07-07T07:34:15Z</time>
      </trkpt>
      <trkpt lat="40.4955240" lon="-2.7511480">
        <ele>746.6</ele>
        <time>2019-07-07T07:34:18Z</time>
      </trkpt>
      <trkpt lat="40.4955530" lon="-2.7511030">
        <ele>746.4</ele>
        <time>2019-07-07T07:34:19Z</time>
      </trkpt>
      <trkpt lat="40.4955530" lon="-2.7511030">
        <ele>745.6</ele>
        <time>2019-07-07T07:34:22Z</time>
      </trkpt>
      <trkpt lat="40.4955170" lon="-2.7510740">
        <ele>745.4</ele>
        <time>2019-07-07T07:34:23Z</time>
      </trkpt>
      <trkpt lat="40.4954800" lon="-2.7510460">
        <ele>745.2</ele>
        <time>2019-07-07T07:34:24Z</time>
      </trkpt>
      <trkpt lat="40.4954440" lon="-2.7510170">
        <ele>744.4</ele>
        <time>2019-07-07T07:34:26Z</time>
      </trkpt>
      <trkpt lat="40.4954080" lon="-2.7509890">
        <ele>744.0</ele>
        <time>2019-07-07T07:34:27Z</time>
      </trkpt>
      <trkpt lat="40.4953710" lon="-2.7509600">
        <ele>743.8</ele>
        <time>2019-07-07T07:34:28Z</time>
      </trkpt>
      <trkpt lat="40.4953350" lon="-2.7509310">
        <ele>743.2</ele>
        <time>2019-07-07T07:34:30Z</time>
      </trkpt>
      <trkpt lat="40.4952990" lon="-2.7509030">
        <ele>742.8</ele>
        <time>2019-07-07T07:34:31Z</time>
      </trkpt>
      <trkpt lat="40.4952620" lon="-2.7508740">
        <ele>742.4</ele>
        <time>2019-07-07T07:34:33Z</time>
      </trkpt>
      <trkpt lat="40.4952260" lon="-2.7508460">
        <ele>741.8</ele>
        <time>2019-07-07T07:34:35Z</time>
      </trkpt>
      <trkpt lat="40.4951900" lon="-2.7508170">
        <ele>741.2</ele>
        <time>2019-07-07T07:34:36Z</time>
      </trkpt>
      <trkpt lat="40.4951530" lon="-2.7507890">
        <ele>741.0</ele>
        <time>2019-07-07T07:34:37Z</time>
      </trkpt>
      <trkpt lat="40.4951170" lon="-2.7507600">
        <ele>740.8</ele>
        <time>2019-07-07T07:34:38Z</time>
      </trkpt>
      <trkpt lat="40.4938090" lon="-2.7497300">
        <ele>740.2</ele>
        <time>2019-07-07T07:34:41Z</time>
      </trkpt>
      <trkpt lat="40.4936970" lon="-2.7497390">
        <ele>740.2</ele>
        <time>2019-07-07T07:34:43Z</time>
      </trkpt>
      <trkpt lat="40.4935680" lon="-2.7497980">
        <ele>740.2</ele>
        <time>2019-07-07T07:34:45Z</time>
      </trkpt>
      <trkpt lat="40.4934420" lon="-2.7498620">
        <ele>740.0</ele>
        <time>2019-07-07T07:34:47Z</time>
      </trkpt>
      <trkpt lat="40.4929200" lon="-2.7500730">
        <ele>740.0</ele>
        <time>2019-07-07T07:34:55Z</time>
      </trkpt>
      <trkpt lat="40.4928560" lon="-2.7501010">
        <ele>740.2</ele>
        <time>2019-07-07T07:34:56Z</time>
      </trkpt>
      <trkpt lat="40.4926710" lon="-2.7501760">
        <ele>740.2</ele>
        <time>2019-07-07T07:34:59Z</time>
      </trkpt>
      <trkpt lat="40.4924340" lon="-2.7502730">
        <ele>739.8</ele>
        <time>2019-07-07T07:35:03Z</time>
      </trkpt>
      <trkpt lat="40.4922010" lon="-2.7503610">
        <ele>739.8</ele>
        <time>2019-07-07T07:35:07Z</time>
      </trkpt>
      <trkpt lat="40.4920290" lon="-2.7504270">
        <ele>739.8</ele>
        <time>2019-07-07T07:35:10Z</time>
      </trkpt>
      <trkpt lat="40.4919140" lon="-2.7504700">
        <ele>739.6</ele>
        <time>2019-07-07T07:35:12Z</time>
      </trkpt>
      <trkpt lat="40.4914520" lon="-2.7505930">
        <ele>739.6</ele>
        <time>2019-07-07T07:35:20Z</time>
      </trkpt>
      <trkpt lat="40.4912850" lon="-2.7506040">
        <ele>739.8</ele>
        <time>2019-07-07T07:35:23Z</time>
      </trkpt>
      <trkpt lat="40.4911770" lon="-2.7505920">
        <ele>739.8</ele>
        <time>2019-07-07T07:35:25Z</time>
      </trkpt>
      <trkpt lat="40.4908110" lon="-2.7505970">
        <ele>740.2</ele>
        <time>2019-07-07T07:35:31Z</time>
      </trkpt>
      <trkpt lat="40.4906240" lon="-2.7506170">
        <ele>740.6</ele>
        <time>2019-07-07T07:35:34Z</time>
      </trkpt>
      <trkpt lat="40.4901960" lon="-2.7506690">
        <ele>741.4</ele>
        <time>2019-07-07T07:35:41Z</time>
      </trkpt>
      <trkpt lat="40.4901960" lon="-2.7506690">
        <ele>741.6</ele>
        <time>2019-07-07T07:35:44Z</time>
      </trkpt>
      <trkpt lat="40.4901960" lon="-2.7506690">
        <ele>741.6</ele>
        <time>2019-07-07T07:35:45Z</time>
      </trkpt>
      <trkpt lat="40.4901960" lon="-2.7506690">
        <ele>741.8</ele>
        <time>2019-07-07T07:35:48Z</time>
      </trkpt>
      <trkpt lat="40.4901960" lon="-2.7506690">
        <ele>742.6</ele>
        <time>2019-07-07T07:35:55Z</time>
      </trkpt>
      <trkpt lat="40.4901960" lon="-2.7506690">
        <ele>743.0</ele>
        <time>2019-07-07T07:35:59Z</time>
      </trkpt>
      <trkpt lat="40.4891260" lon="-2.7503140">
        <ele>743.6</ele>
        <time>2019-07-07T07:36:05Z</time>
      </trkpt>
      <trkpt lat="40.4892880" lon="-2.7497530">
        <ele>743.6</ele>
        <time>2019-07-07T07:36:06Z</time>
      </trkpt>
      <trkpt lat="40.4892930" lon="-2.7494630">
        <ele>744.0</ele>
        <time>2019-07-07T07:36:08Z</time>
      </trkpt>
      <trkpt lat="40.4892580" lon="-2.7493940">
        <ele>744.2</ele>
        <time>2019-07-07T07:36:09Z</time>
      </trkpt>
      <trkpt lat="40.4891950" lon="-2.7492900">
        <ele>744.4</ele>
        <time>2019-07-07T07:36:11Z</time>
      </trkpt>
      <trkpt lat="40.4891280" lon="-2.7492000">
        <ele>744.8</ele>
        <time>2019-07-07T07:36:13Z</time>
      </trkpt>
      <trkpt lat="40.4890900" lon="-2.7491630">
        <ele>744.8</ele>
        <time>2019-07-07T07:36:14Z</time>
      </trkpt>
      <trkpt lat="40.4890550" lon="-2.7491250">
        <ele>744.8</ele>
        <time>2019-07-07T07:36:15Z</time>
      </trkpt>
      <trkpt lat="40.4888690" lon="-2.7489070">
        <ele>745.8</ele>
        <time>2019-07-07T07:36:21Z</time>
      </trkpt>
      <trkpt lat="40.4886340" lon="-2.7486160">
        <ele>746.8</ele>
        <time>2019-07-07T07:36:29Z</time>
      </trkpt>
      <trkpt lat="40.4885640" lon="-2.7485280">
        <ele>747.0</ele>
        <time>2019-07-07T07:36:32Z</time>
      </trkpt>
      <trkpt lat="40.4885300" lon="-2.7484750">
        <ele>747.2</ele>
        <time>2019-07-07T07:36:34Z</time>
      </trkpt>
      <trkpt lat="40.4885130" lon="-2.7484500">
        <ele>747.4</ele>
        <time>2019-07-07T07:36:38Z</time>
      </trkpt>
      <trkpt lat="40.4884890" lon="-2.7483990">
        <ele>747.4</ele>
        <time>2019-07-07T07:37:11Z</time>
      </trkpt>
      <trkpt lat="40.4884720" lon="-2.7483760">
        <ele>747.4</ele>
        <time>2019-07-07T07:37:12Z</time>
      </trkpt>
      <trkpt lat="40.4884540" lon="-2.7483480">
        <ele>747.6</ele>
        <time>2019-07-07T07:37:13Z</time>
      </trkpt>
      <trkpt lat="40.4884360" lon="-2.7483140">
        <ele>747.6</ele>
        <time>2019-07-07T07:37:14Z</time>
      </trkpt>
      <trkpt lat="40.4883800" lon="-2.7481940">
        <ele>748.0</ele>
        <time>2019-07-07T07:37:17Z</time>
      </trkpt>
      <trkpt lat="40.4883380" lon="-2.7481170">
        <ele>748.4</ele>
        <time>2019-07-07T07:37:19Z</time>
      </trkpt>
      <trkpt lat="40.4882550" lon="-2.7479130">
        <ele>748.6</ele>
        <time>2019-07-07T07:37:24Z</time>
      </trkpt>
      <trkpt lat="40.4882240" lon="-2.7478290">
        <ele>748.8</ele>
        <time>2019-07-07T07:37:26Z</time>
      </trkpt>
      <trkpt lat="40.4882080" lon="-2.7477870">
        <ele>749.0</ele>
        <time>2019-07-07T07:37:27Z</time>
      </trkpt>
      <trkpt lat="40.4881200" lon="-2.7474850">
        <ele>750.0</ele>
        <time>2019-07-07T07:37:34Z</time>
      </trkpt>
      <trkpt lat="40.4881100" lon="-2.7474390">
        <ele>750.2</ele>
        <time>2019-07-07T07:37:35Z</time>
      </trkpt>
      <trkpt lat="40.4880770" lon="-2.7473020">
        <ele>750.6</ele>
        <time>2019-07-07T07:37:38Z</time>
      </trkpt>
      <trkpt lat="40.4880540" lon="-2.7471640">
        <ele>751.0</ele>
        <time>2019-07-07T07:37:41Z</time>
      </trkpt>
      <trkpt lat="40.4880460" lon="-2.7471180">
        <ele>751.2</ele>
        <time>2019-07-07T07:37:42Z</time>
      </trkpt>
      <trkpt lat="40.4880310" lon="-2.7469800">
        <ele>751.6</ele>
        <time>2019-07-07T07:37:45Z</time>
      </trkpt>
      <trkpt lat="40.4880100" lon="-2.7467900">
        <ele>752.2</ele>
        <time>2019-07-07T07:37:49Z</time>
      </trkpt>
      <trkpt lat="40.4880080" lon="-2.7467420">
        <ele>752.4</ele>
        <time>2019-07-07T07:37:50Z</time>
      </trkpt>
      <trkpt lat="40.4880060" lon="-2.7466940">
        <ele>752.4</ele>
        <time>2019-07-07T07:37:51Z</time>
      </trkpt>
      <trkpt lat="40.4880050" lon="-2.7464580">
        <ele>753.4</ele>
        <time>2019-07-07T07:37:56Z</time>
      </trkpt>
      <trkpt lat="40.4880200" lon="-2.7462210">
        <ele>754.0</ele>
        <time>2019-07-07T07:38:01Z</time>
      </trkpt>
      <trkpt lat="40.4880260" lon="-2.7460760">
        <ele>754.6</ele>
        <time>2019-07-07T07:38:04Z</time>
      </trkpt>
      <trkpt lat="40.4880590" lon="-2.7458340">
        <ele>755.4</ele>
        <time>2019-07-07T07:38:09Z</time>
      </trkpt>
      <trkpt lat="40.4880670" lon="-2.7457860">
        <ele>755.4</ele>
        <time>2019-07-07T07:38:10Z</time>
      </trkpt>
      <trkpt lat="40.4880760" lon="-2.7457380">
        <ele>755.6</ele>
        <time>2019-07-07T07:38:11Z</time>
      </trkpt>
      <trkpt lat="40.4881700" lon="-2.7454060">
        <ele>756.8</ele>
        <time>2019-07-07T07:38:18Z</time>
      </trkpt>
      <trkpt lat="40.4883030" lon="-2.7450440">
        <ele>758.0</ele>
        <time>2019-07-07T07:38:26Z</time>
      </trkpt>
      <trkpt lat="40.4884260" lon="-2.7447820">
        <ele>759.0</ele>
        <time>2019-07-07T07:38:32Z</time>
      </trkpt>
      <trkpt lat="40.4884660" lon="-2.7446920">
        <ele>759.4</ele>
        <time>2019-07-07T07:38:34Z</time>
      </trkpt>
      <trkpt lat="40.4886190" lon="-2.7443830">
        <ele>760.2</ele>
        <time>2019-07-07T07:38:41Z</time>
      </trkpt>
      <trkpt lat="40.4887970" lon="-2.7440240">
        <ele>761.4</ele>
        <time>2019-07-07T07:38:49Z</time>
      </trkpt>
      <trkpt lat="40.4888190" lon="-2.7439800">
        <ele>761.6</ele>
        <time>2019-07-07T07:38:50Z</time>
      </trkpt>
      <trkpt lat="40.4889730" lon="-2.7436690">
        <ele>762.4</ele>
        <time>2019-07-07T07:38:57Z</time>
      </trkpt>
      <trkpt lat="40.4890380" lon="-2.7435380">
        <ele>762.8</ele>
        <time>2019-07-07T07:39:00Z</time>
      </trkpt>
      <trkpt lat="40.4891280" lon="-2.7433650">
        <ele>763.6</ele>
        <time>2019-07-07T07:39:04Z</time>
      </trkpt>
      <trkpt lat="40.4891930" lon="-2.7432300">
        <ele>764.0</ele>
        <time>2019-07-07T07:39:07Z</time>
      </trkpt>
      <trkpt lat="40.4892990" lon="-2.7430030">
        <ele>764.6</ele>
        <time>2019-07-07T07:39:12Z</time>
      </trkpt>
      <trkpt lat="40.4893860" lon="-2.7428180">
        <ele>765.4</ele>
        <time>2019-07-07T07:39:16Z</time>
      </trkpt>
      <trkpt lat="40.4894510" lon="-2.7426750">
        <ele>765.8</ele>
        <time>2019-07-07T07:39:19Z</time>
      </trkpt>
      <trkpt lat="40.4895530" lon="-2.7424200">
        <ele>766.2</ele>
        <time>2019-07-07T07:39:24Z</time>
      </trkpt>
      <trkpt lat="40.4895920" lon="-2.7423130">
        <ele>766.4</ele>
        <time>2019-07-07T07:39:26Z</time>
      </trkpt>
      <trkpt lat="40.4896090" lon="-2.7422560">
        <ele>766.4</ele>
        <time>2019-07-07T07:39:27Z</time>
      </trkpt>
      <trkpt lat="40.4897170" lon="-2.7418930">
        <ele>766.6</ele>
        <time>2019-07-07T07:39:33Z</time>
      </trkpt>
      <trkpt lat="40.4897310" lon="-2.7418280">
        <ele>766.4</ele>
        <time>2019-07-07T07:39:34Z</time>
      </trkpt>
      <trkpt lat="40.4897710" lon="-2.7416240">
        <ele>766.6</ele>
        <time>2019-07-07T07:39:37Z</time>
      </trkpt>
      <trkpt lat="40.4898080" lon="-2.7414120">
        <ele>766.4</ele>
        <time>2019-07-07T07:39:40Z</time>
      </trkpt>
      <trkpt lat="40.4898360" lon="-2.7411900">
        <ele>766.2</ele>
        <time>2019-07-07T07:39:43Z</time>
      </trkpt>
      <trkpt lat="40.4898520" lon="-2.7407830">
        <ele>765.6</ele>
        <time>2019-07-07T07:39:48Z</time>
      </trkpt>
      <trkpt lat="40.4898510" lon="-2.7406970">
        <ele>765.4</ele>
        <time>2019-07-07T07:39:49Z</time>
      </trkpt>
      <trkpt lat="40.4898480" lon="-2.7405250">
        <ele>765.0</ele>
        <time>2019-07-07T07:39:51Z</time>
      </trkpt>
      <trkpt lat="40.4898480" lon="-2.7403510">
        <ele>764.6</ele>
        <time>2019-07-07T07:39:53Z</time>
      </trkpt>
      <trkpt lat="40.4898500" lon="-2.7401610">
        <ele>763.8</ele>
        <time>2019-07-07T07:39:55Z</time>
      </trkpt>
      <trkpt lat="40.4898530" lon="-2.7399520">
        <ele>763.6</ele>
        <time>2019-07-07T07:39:57Z</time>
      </trkpt>
      <trkpt lat="40.4898440" lon="-2.7398460">
        <ele>763.4</ele>
        <time>2019-07-07T07:39:58Z</time>
      </trkpt>
      <trkpt lat="40.4898310" lon="-2.7393960">
        <ele>762.2</ele>
        <time>2019-07-07T07:40:02Z</time>
      </trkpt>
      <trkpt lat="40.4898330" lon="-2.7392800">
        <ele>762.0</ele>
        <time>2019-07-07T07:40:03Z</time>
      </trkpt>
      <trkpt lat="40.4898420" lon="-2.7391670">
        <ele>761.6</ele>
        <time>2019-07-07T07:40:04Z</time>
      </trkpt>
      <trkpt lat="40.4898120" lon="-2.7390960">
        <ele>761.2</ele>
        <time>2019-07-07T07:40:06Z</time>
      </trkpt>
      <trkpt lat="40.4897820" lon="-2.7390250">
        <ele>760.8</ele>
        <time>2019-07-07T07:40:07Z</time>
      </trkpt>
      <trkpt lat="40.4897510" lon="-2.7389550">
        <ele>760.6</ele>
        <time>2019-07-07T07:40:08Z</time>
      </trkpt>
      <trkpt lat="40.4897210" lon="-2.7388840">
        <ele>760.4</ele>
        <time>2019-07-07T07:40:09Z</time>
      </trkpt>
      <trkpt lat="40.4896910" lon="-2.7388130">
        <ele>760.2</ele>
        <time>2019-07-07T07:40:10Z</time>
      </trkpt>
      <trkpt lat="40.4896610" lon="-2.7387420">
        <ele>759.8</ele>
        <time>2019-07-07T07:40:11Z</time>
      </trkpt>
      <trkpt lat="40.4896300" lon="-2.7386720">
        <ele>759.2</ele>
        <time>2019-07-07T07:40:13Z</time>
      </trkpt>
      <trkpt lat="40.4896000" lon="-2.7386010">
        <ele>758.8</ele>
        <time>2019-07-07T07:40:14Z</time>
      </trkpt>
      <trkpt lat="40.4893570" lon="-2.7380360">
        <ele>758.6</ele>
        <time>2019-07-07T07:40:15Z</time>
      </trkpt>
      <trkpt lat="40.4891570" lon="-2.7379330">
        <ele>758.2</ele>
        <time>2019-07-07T07:40:17Z</time>
      </trkpt>
      <trkpt lat="40.4890280" lon="-2.7378560">
        <ele>757.6</ele>
        <time>2019-07-07T07:40:19Z</time>
      </trkpt>
      <trkpt lat="40.4888970" lon="-2.7377600">
        <ele>757.0</ele>
        <time>2019-07-07T07:40:21Z</time>
      </trkpt>
      <trkpt lat="40.4888320" lon="-2.7376940">
        <ele>756.4</ele>
        <time>2019-07-07T07:40:22Z</time>
      </trkpt>
      <trkpt lat="40.4886350" lon="-2.7374670">
        <ele>755.4</ele>
        <time>2019-07-07T07:40:25Z</time>
      </trkpt>
      <trkpt lat="40.4885690" lon="-2.7373850">
        <ele>755.0</ele>
        <time>2019-07-07T07:40:26Z</time>
      </trkpt>
      <trkpt lat="40.4885020" lon="-2.7373050">
        <ele>754.6</ele>
        <time>2019-07-07T07:40:27Z</time>
      </trkpt>
      <trkpt lat="40.4883670" lon="-2.7371460">
        <ele>754.0</ele>
        <time>2019-07-07T07:40:29Z</time>
      </trkpt>
      <trkpt lat="40.4881060" lon="-2.7368410">
        <ele>753.4</ele>
        <time>2019-07-07T07:40:33Z</time>
      </trkpt>
      <trkpt lat="40.4880410" lon="-2.7367670">
        <ele>753.0</ele>
        <time>2019-07-07T07:40:34Z</time>
      </trkpt>
      <trkpt lat="40.4879760" lon="-2.7366960">
        <ele>752.8</ele>
        <time>2019-07-07T07:40:35Z</time>
      </trkpt>
      <trkpt lat="40.4878400" lon="-2.7365620">
        <ele>751.8</ele>
        <time>2019-07-07T07:40:37Z</time>
      </trkpt>
      <trkpt lat="40.4875370" lon="-2.7363360">
        <ele>750.6</ele>
        <time>2019-07-07T07:40:41Z</time>
      </trkpt>
      <trkpt lat="40.4872180" lon="-2.7361840">
        <ele>749.6</ele>
        <time>2019-07-07T07:40:45Z</time>
      </trkpt>
      <trkpt lat="40.4870670" lon="-2.7361200">
        <ele>749.2</ele>
        <time>2019-07-07T07:40:47Z</time>
      </trkpt>
      <trkpt lat="40.4869220" lon="-2.7360560">
        <ele>749.0</ele>
        <time>2019-07-07T07:40:49Z</time>
      </trkpt>
      <trkpt lat="40.4867830" lon="-2.7359820">
        <ele>748.8</ele>
        <time>2019-07-07T07:40:51Z</time>
      </trkpt>
      <trkpt lat="40.4865830" lon="-2.7358520">
        <ele>748.6</ele>
        <time>2019-07-07T07:40:54Z</time>
      </trkpt>
      <trkpt lat="40.4864560" lon="-2.7357550">
        <ele>748.4</ele>
        <time>2019-07-07T07:40:56Z</time>
      </trkpt>
      <trkpt lat="40.4860840" lon="-2.7354810">
        <ele>748.4</ele>
        <time>2019-07-07T07:41:02Z</time>
      </trkpt>
      <trkpt lat="40.4859000" lon="-2.7353610">
        <ele>748.4</ele>
        <time>2019-07-07T07:41:05Z</time>
      </trkpt>
      <trkpt lat="40.4857090" lon="-2.7352920">
        <ele>748.4</ele>
        <time>2019-07-07T07:41:08Z</time>
      </trkpt>
      <trkpt lat="40.4853430" lon="-2.7352410">
        <ele>748.6</ele>
        <time>2019-07-07T07:41:14Z</time>
      </trkpt>
      <trkpt lat="40.4851730" lon="-2.7352080">
        <ele>748.8</ele>
        <time>2019-07-07T07:41:17Z</time>
      </trkpt>
      <trkpt lat="40.4848480" lon="-2.7351310">
        <ele>749.2</ele>
        <time>2019-07-07T07:41:23Z</time>
      </trkpt>
      <trkpt lat="40.4846460" lon="-2.7351120">
        <ele>749.6</ele>
        <time>2019-07-07T07:41:27Z</time>
      </trkpt>
      <trkpt lat="40.4845460" lon="-2.7351130">
        <ele>749.8</ele>
        <time>2019-07-07T07:41:29Z</time>
      </trkpt>
      <trkpt lat="40.4843430" lon="-2.7351410">
        <ele>750.4</ele>
        <time>2019-07-07T07:41:33Z</time>
      </trkpt>
      <trkpt lat="40.4842910" lon="-2.7351510">
        <ele>750.6</ele>
        <time>2019-07-07T07:41:34Z</time>
      </trkpt>
      <trkpt lat="40.4841900" lon="-2.7351800">
        <ele>751.0</ele>
        <time>2019-07-07T07:41:36Z</time>
      </trkpt>
      <trkpt lat="40.4840530" lon="-2.7352590">
        <ele>751.4</ele>
        <time>2019-07-07T07:41:39Z</time>
      </trkpt>
      <trkpt lat="40.4840060" lon="-2.7352690">
        <ele>751.6</ele>
        <time>2019-07-07T07:41:40Z</time>
      </trkpt>
      <trkpt lat="40.4839570" lon="-2.7352640">
        <ele>751.6</ele>
        <time>2019-07-07T07:41:41Z</time>
      </trkpt>
      <trkpt lat="40.4838500" lon="-2.7352640">
        <ele>751.8</ele>
        <time>2019-07-07T07:41:43Z</time>
      </trkpt>
      <trkpt lat="40.4837990" lon="-2.7352820">
        <ele>751.6</ele>
        <time>2019-07-07T07:41:44Z</time>
      </trkpt>
      <trkpt lat="40.4837470" lon="-2.7352930">
        <ele>751.4</ele>
        <time>2019-07-07T07:41:45Z</time>
      </trkpt>
      <trkpt lat="40.4836450" lon="-2.7352600">
        <ele>751.2</ele>
        <time>2019-07-07T07:41:47Z</time>
      </trkpt>
      <trkpt lat="40.4835110" lon="-2.7351190">
        <ele>750.6</ele>
        <time>2019-07-07T07:41:50Z</time>
      </trkpt>
      <trkpt lat="40.4834740" lon="-2.7350540">
        <ele>750.4</ele>
        <time>2019-07-07T07:41:51Z</time>
      </trkpt>
      <trkpt lat="40.4834080" lon="-2.7349020">
        <ele>750.2</ele>
        <time>2019-07-07T07:41:53Z</time>
      </trkpt>
      <trkpt lat="40.4833800" lon="-2.7348150">
        <ele>750.0</ele>
        <time>2019-07-07T07:41:54Z</time>
      </trkpt>
      <trkpt lat="40.4833540" lon="-2.7347220">
        <ele>749.6</ele>
        <time>2019-07-07T07:41:55Z</time>
      </trkpt>
      <trkpt lat="40.4833090" lon="-2.7345240">
        <ele>748.6</ele>
        <time>2019-07-07T07:41:57Z</time>
      </trkpt>
      <trkpt lat="40.4832890" lon="-2.7344190">
        <ele>748.2</ele>
        <time>2019-07-07T07:41:58Z</time>
      </trkpt>
      <trkpt lat="40.4832550" lon="-2.7341980">
        <ele>747.4</ele>
        <time>2019-07-07T07:42:00Z</time>
      </trkpt>
      <trkpt lat="40.4832380" lon="-2.7340850">
        <ele>747.0</ele>
        <time>2019-07-07T07:42:01Z</time>
      </trkpt>
      <trkpt lat="40.4832030" lon="-2.7338570">
        <ele>746.0</ele>
        <time>2019-07-07T07:42:03Z</time>
      </trkpt>
      <trkpt lat="40.4831660" lon="-2.7336270">
        <ele>745.0</ele>
        <time>2019-07-07T07:42:05Z</time>
      </trkpt>
      <trkpt lat="40.4831460" lon="-2.7335100">
        <ele>744.4</ele>
        <time>2019-07-07T07:42:06Z</time>
      </trkpt>
      <trkpt lat="40.4830940" lon="-2.7331760">
        <ele>743.4</ele>
        <time>2019-07-07T07:42:09Z</time>
      </trkpt>
      <trkpt lat="40.4830660" lon="-2.7329900">
        <ele>742.2</ele>
        <time>2019-07-07T07:42:11Z</time>
      </trkpt>
      <trkpt lat="40.4830510" lon="-2.7329170">
        <ele>741.6</ele>
        <time>2019-07-07T07:42:12Z</time>
      </trkpt>
      <trkpt lat="40.4830370" lon="-2.7328510">
        <ele>741.2</ele>
        <time>2019-07-07T07:42:13Z</time>
      </trkpt>
      <trkpt lat="40.4830270" lon="-2.7327870">
        <ele>741.0</ele>
        <time>2019-07-07T07:42:14Z</time>
      </trkpt>
      <trkpt lat="40.4830020" lon="-2.7326090">
        <ele>740.6</ele>
        <time>2019-07-07T07:42:17Z</time>
      </trkpt>
      <trkpt lat="40.4829710" lon="-2.7324700">
        <ele>740.4</ele>
        <time>2019-07-07T07:42:21Z</time>
      </trkpt>
      <trkpt lat="40.4829600" lon="-2.7324560">
        <ele>740.4</ele>
        <time>2019-07-07T07:42:22Z</time>
      </trkpt>
      <trkpt lat="40.4828440" lon="-2.7330110">
        <ele>741.2</ele>
        <time>2019-07-07T07:45:22Z</time>
      </trkpt>
      <trkpt lat="40.4828320" lon="-2.7330390">
        <ele>741.4</ele>
        <time>2019-07-07T07:45:23Z</time>
      </trkpt>
      <trkpt lat="40.4828000" lon="-2.7330910">
        <ele>741.8</ele>
        <time>2019-07-07T07:45:25Z</time>
      </trkpt>
      <trkpt lat="40.4827100" lon="-2.7332070">
        <ele>742.6</ele>
        <time>2019-07-07T07:45:30Z</time>
      </trkpt>
      <trkpt lat="40.4826940" lon="-2.7332300">
        <ele>742.8</ele>
        <time>2019-07-07T07:45:31Z</time>
      </trkpt>
      <trkpt lat="40.4826740" lon="-2.7332470">
        <ele>743.0</ele>
        <time>2019-07-07T07:45:32Z</time>
      </trkpt>
      <trkpt lat="40.4826150" lon="-2.7332920">
        <ele>744.2</ele>
        <time>2019-07-07T07:45:35Z</time>
      </trkpt>
      <trkpt lat="40.4825520" lon="-2.7333330">
        <ele>745.0</ele>
        <time>2019-07-07T07:45:38Z</time>
      </trkpt>
      <trkpt lat="40.4825290" lon="-2.7333460">
        <ele>745.2</ele>
        <time>2019-07-07T07:45:39Z</time>
      </trkpt>
      <trkpt lat="40.4824830" lon="-2.7333700">
        <ele>745.6</ele>
        <time>2019-07-07T07:45:41Z</time>
      </trkpt>
      <trkpt lat="40.4824330" lon="-2.7333980">
        <ele>746.0</ele>
        <time>2019-07-07T07:45:43Z</time>
      </trkpt>
      <trkpt lat="40.4823880" lon="-2.7334270">
        <ele>746.4</ele>
        <time>2019-07-07T07:45:45Z</time>
      </trkpt>
      <trkpt lat="40.4823630" lon="-2.7334410">
        <ele>746.4</ele>
        <time>2019-07-07T07:45:46Z</time>
      </trkpt>
      <trkpt lat="40.4823030" lon="-2.7334780">
        <ele>746.6</ele>
        <time>2019-07-07T07:45:49Z</time>
      </trkpt>
      <trkpt lat="40.4822210" lon="-2.7335490">
        <ele>747.2</ele>
        <time>2019-07-07T07:45:54Z</time>
      </trkpt>
      <trkpt lat="40.4822010" lon="-2.7335630">
        <ele>747.4</ele>
        <time>2019-07-07T07:45:55Z</time>
      </trkpt>
      <trkpt lat="40.4821760" lon="-2.7335760">
        <ele>747.4</ele>
        <time>2019-07-07T07:45:56Z</time>
      </trkpt>
      <trkpt lat="40.4820500" lon="-2.7336840">
        <ele>748.2</ele>
        <time>2019-07-07T07:46:02Z</time>
      </trkpt>
      <trkpt lat="40.4819670" lon="-2.7337040">
        <ele>748.4</ele>
        <time>2019-07-07T07:46:05Z</time>
      </trkpt>
      <trkpt lat="40.4818740" lon="-2.7337250">
        <ele>748.8</ele>
        <time>2019-07-07T07:46:08Z</time>
      </trkpt>
      <trkpt lat="40.4817320" lon="-2.7337760">
        <ele>749.4</ele>
        <time>2019-07-07T07:46:13Z</time>
      </trkpt>
      <trkpt lat="40.4816780" lon="-2.7337840">
        <ele>749.6</ele>
        <time>2019-07-07T07:46:15Z</time>
      </trkpt>
      <trkpt lat="40.4816780" lon="-2.7337840">
        <ele>753.6</ele>
        <time>2019-07-07T08:25:39Z</time>
      </trkpt>
      <trkpt lat="40.4813720" lon="-2.7330320">
        <ele>753.6</ele>
        <time>2019-07-07T08:25:40Z</time>
      </trkpt>
      <trkpt lat="40.4813770" lon="-2.7330590">
        <ele>752.8</ele>
        <time>2019-07-07T08:25:42Z</time>
      </trkpt>
      <trkpt lat="40.4814580" lon="-2.7331390">
        <ele>752.4</ele>
        <time>2019-07-07T08:25:43Z</time>
      </trkpt>
      <trkpt lat="40.4814760" lon="-2.7334670">
        <ele>751.6</ele>
        <time>2019-07-07T08:25:46Z</time>
      </trkpt>
      <trkpt lat="40.4815510" lon="-2.7335600">
        <ele>751.4</ele>
        <time>2019-07-07T08:25:47Z</time>
      </trkpt>
      <trkpt lat="40.4816540" lon="-2.7336840">
        <ele>751.2</ele>
        <time>2019-07-07T08:25:48Z</time>
      </trkpt>
      <trkpt lat="40.4816830" lon="-2.7337140">
        <ele>751.2</ele>
        <time>2019-07-07T08:25:49Z</time>
      </trkpt>
      <trkpt lat="40.4817630" lon="-2.7337890">
        <ele>751.2</ele>
        <time>2019-07-07T08:25:52Z</time>
      </trkpt>
      <trkpt lat="40.4818570" lon="-2.7338130">
        <ele>751.0</ele>
        <time>2019-07-07T08:25:54Z</time>
      </trkpt>
      <trkpt lat="40.4819270" lon="-2.7338170">
        <ele>750.6</ele>
        <time>2019-07-07T08:25:56Z</time>
      </trkpt>
      <trkpt lat="40.4820160" lon="-2.7337980">
        <ele>750.2</ele>
        <time>2019-07-07T08:25:58Z</time>
      </trkpt>
      <trkpt lat="40.4822060" lon="-2.7337330">
        <ele>749.6</ele>
        <time>2019-07-07T08:26:02Z</time>
      </trkpt>
      <trkpt lat="40.4823230" lon="-2.7336680">
        <ele>749.2</ele>
        <time>2019-07-07T08:26:06Z</time>
      </trkpt>
      <trkpt lat="40.4823310" lon="-2.7336530">
        <ele>748.8</ele>
        <time>2019-07-07T08:26:09Z</time>
      </trkpt>
      <trkpt lat="40.4823410" lon="-2.7336020">
        <ele>748.4</ele>
        <time>2019-07-07T08:26:14Z</time>
      </trkpt>
      <trkpt lat="40.4824120" lon="-2.7335290">
        <ele>748.4</ele>
        <time>2019-07-07T08:26:17Z</time>
      </trkpt>
      <trkpt lat="40.4824840" lon="-2.7334810">
        <ele>748.0</ele>
        <time>2019-07-07T08:26:19Z</time>
      </trkpt>
      <trkpt lat="40.4826710" lon="-2.7333460">
        <ele>747.4</ele>
        <time>2019-07-07T08:26:23Z</time>
      </trkpt>
      <trkpt lat="40.4827170" lon="-2.7332950">
        <ele>747.0</ele>
        <time>2019-07-07T08:26:24Z</time>
      </trkpt>
      <trkpt lat="40.4828120" lon="-2.7331700">
        <ele>745.8</ele>
        <time>2019-07-07T08:26:26Z</time>
      </trkpt>
      <trkpt lat="40.4829000" lon="-2.7330570">
        <ele>744.8</ele>
        <time>2019-07-07T08:26:28Z</time>
      </trkpt>
      <trkpt lat="40.4829410" lon="-2.7330110">
        <ele>744.2</ele>
        <time>2019-07-07T08:26:29Z</time>
      </trkpt>
      <trkpt lat="40.4829780" lon="-2.7329790">
        <ele>743.6</ele>
        <time>2019-07-07T08:26:30Z</time>
      </trkpt>
      <trkpt lat="40.4830340" lon="-2.7329470">
        <ele>742.6</ele>
        <time>2019-07-07T08:26:32Z</time>
      </trkpt>
      <trkpt lat="40.4830510" lon="-2.7329470">
        <ele>742.2</ele>
        <time>2019-07-07T08:26:33Z</time>
      </trkpt>
      <trkpt lat="40.4831100" lon="-2.7329900">
        <ele>741.8</ele>
        <time>2019-07-07T08:26:38Z</time>
      </trkpt>
      <trkpt lat="40.4831650" lon="-2.7330780">
        <ele>742.2</ele>
        <time>2019-07-07T08:26:41Z</time>
      </trkpt>
      <trkpt lat="40.4831760" lon="-2.7331180">
        <ele>742.2</ele>
        <time>2019-07-07T08:26:42Z</time>
      </trkpt>
      <trkpt lat="40.4831830" lon="-2.7332080">
        <ele>742.4</ele>
        <time>2019-07-07T08:26:44Z</time>
      </trkpt>
      <trkpt lat="40.4831940" lon="-2.7332980">
        <ele>742.4</ele>
        <time>2019-07-07T08:26:46Z</time>
      </trkpt>
      <trkpt lat="40.4832030" lon="-2.7333430">
        <ele>742.4</ele>
        <time>2019-07-07T08:26:47Z</time>
      </trkpt>
      <trkpt lat="40.4832140" lon="-2.7334330">
        <ele>742.8</ele>
        <time>2019-07-07T08:26:49Z</time>
      </trkpt>
      <trkpt lat="40.4832350" lon="-2.7336150">
        <ele>743.6</ele>
        <time>2019-07-07T08:26:53Z</time>
      </trkpt>
      <trkpt lat="40.4832420" lon="-2.7337030">
        <ele>743.8</ele>
        <time>2019-07-07T08:26:55Z</time>
      </trkpt>
      <trkpt lat="40.4832670" lon="-2.7338840">
        <ele>744.6</ele>
        <time>2019-07-07T08:26:59Z</time>
      </trkpt>
      <trkpt lat="40.4832760" lon="-2.7339300">
        <ele>744.8</ele>
        <time>2019-07-07T08:27:00Z</time>
      </trkpt>
      <trkpt lat="40.4832980" lon="-2.7340600">
        <ele>745.4</ele>
        <time>2019-07-07T08:27:03Z</time>
      </trkpt>
      <trkpt lat="40.4833140" lon="-2.7341940">
        <ele>745.8</ele>
        <time>2019-07-07T08:27:06Z</time>
      </trkpt>
      <trkpt lat="40.4833270" lon="-2.7342830">
        <ele>746.2</ele>
        <time>2019-07-07T08:27:08Z</time>
      </trkpt>
      <trkpt lat="40.4833450" lon="-2.7344130">
        <ele>746.8</ele>
        <time>2019-07-07T08:27:11Z</time>
      </trkpt>
      <trkpt lat="40.4833490" lon="-2.7344550">
        <ele>747.0</ele>
        <time>2019-07-07T08:27:12Z</time>
      </trkpt>
      <trkpt lat="40.4833780" lon="-2.7346220">
        <ele>747.8</ele>
        <time>2019-07-07T08:27:16Z</time>
      </trkpt>
      <trkpt lat="40.4833880" lon="-2.7346640">
        <ele>748.0</ele>
        <time>2019-07-07T08:27:17Z</time>
      </trkpt>
      <trkpt lat="40.4834490" lon="-2.7348950">
        <ele>749.0</ele>
        <time>2019-07-07T08:27:23Z</time>
      </trkpt>
      <trkpt lat="40.4834810" lon="-2.7349600">
        <ele>749.2</ele>
        <time>2019-07-07T08:27:25Z</time>
      </trkpt>
      <trkpt lat="40.4835470" lon="-2.7350470">
        <ele>750.2</ele>
        <time>2019-07-07T08:27:28Z</time>
      </trkpt>
      <trkpt lat="40.4836320" lon="-2.7351150">
        <ele>750.6</ele>
        <time>2019-07-07T08:27:31Z</time>
      </trkpt>
      <trkpt lat="40.4837270" lon="-2.7351630">
        <ele>751.2</ele>
        <time>2019-07-07T08:27:34Z</time>
      </trkpt>
      <trkpt lat="40.4838280" lon="-2.7351900">
        <ele>751.8</ele>
        <time>2019-07-07T08:27:37Z</time>
      </trkpt>
      <trkpt lat="40.4839400" lon="-2.7352710">
        <ele>752.4</ele>
        <time>2019-07-07T08:27:41Z</time>
      </trkpt>
      <trkpt lat="40.4839630" lon="-2.7352960">
        <ele>752.6</ele>
        <time>2019-07-07T08:27:42Z</time>
      </trkpt>
      <trkpt lat="40.4840210" lon="-2.7354150">
        <ele>753.6</ele>
        <time>2019-07-07T08:27:46Z</time>
      </trkpt>
      <trkpt lat="40.4840320" lon="-2.7354490">
        <ele>753.8</ele>
        <time>2019-07-07T08:27:47Z</time>
      </trkpt>
      <trkpt lat="40.4841330" lon="-2.7356200">
        <ele>754.8</ele>
        <time>2019-07-07T08:27:53Z</time>
      </trkpt>
      <trkpt lat="40.4842570" lon="-2.7357250">
        <ele>755.8</ele>
        <time>2019-07-07T08:27:58Z</time>
      </trkpt>
      <trkpt lat="40.4843300" lon="-2.7357870">
        <ele>756.4</ele>
        <time>2019-07-07T08:28:01Z</time>
      </trkpt>
      <trkpt lat="40.4844110" lon="-2.7358420">
        <ele>756.8</ele>
        <time>2019-07-07T08:28:04Z</time>
      </trkpt>
      <trkpt lat="40.4845360" lon="-2.7359490">
        <ele>757.6</ele>
        <time>2019-07-07T08:28:09Z</time>
      </trkpt>
      <trkpt lat="40.4845620" lon="-2.7359680">
        <ele>758.0</ele>
        <time>2019-07-07T08:28:10Z</time>
      </trkpt>
      <trkpt lat="40.4847340" lon="-2.7361090">
        <ele>758.8</ele>
        <time>2019-07-07T08:28:17Z</time>
      </trkpt>
      <trkpt lat="40.4847590" lon="-2.7361320">
        <ele>759.0</ele>
        <time>2019-07-07T08:28:18Z</time>
      </trkpt>
      <trkpt lat="40.4849160" lon="-2.7362450">
        <ele>760.2</ele>
        <time>2019-07-07T08:28:24Z</time>
      </trkpt>
      <trkpt lat="40.4849400" lon="-2.7362660">
        <ele>760.4</ele>
        <time>2019-07-07T08:28:25Z</time>
      </trkpt>
      <trkpt lat="40.4850680" lon="-2.7363660">
        <ele>761.0</ele>
        <time>2019-07-07T08:28:30Z</time>
      </trkpt>
      <trkpt lat="40.4851180" lon="-2.7364150">
        <ele>761.6</ele>
        <time>2019-07-07T08:28:32Z</time>
      </trkpt>
      <trkpt lat="40.4852200" lon="-2.7365090">
        <ele>762.2</ele>
        <time>2019-07-07T08:28:36Z</time>
      </trkpt>
      <trkpt lat="40.4853300" lon="-2.7366010">
        <ele>762.8</ele>
        <time>2019-07-07T08:28:40Z</time>
      </trkpt>
      <trkpt lat="40.4853840" lon="-2.7366450">
        <ele>763.4</ele>
        <time>2019-07-07T08:28:42Z</time>
      </trkpt>
      <trkpt lat="40.4855560" lon="-2.7367790">
        <ele>764.2</ele>
        <time>2019-07-07T08:28:48Z</time>
      </trkpt>
      <trkpt lat="40.4855820" lon="-2.7368050">
        <ele>764.4</ele>
        <time>2019-07-07T08:28:49Z</time>
      </trkpt>
      <trkpt lat="40.4857140" lon="-2.7369170">
        <ele>765.4</ele>
        <time>2019-07-07T08:28:54Z</time>
      </trkpt>
      <trkpt lat="40.4857640" lon="-2.7369620">
        <ele>765.8</ele>
        <time>2019-07-07T08:28:56Z</time>
      </trkpt>
      <trkpt lat="40.4858690" lon="-2.7370500">
        <ele>766.4</ele>
        <time>2019-07-07T08:29:00Z</time>
      </trkpt>
      <trkpt lat="40.4860090" lon="-2.7371510">
        <ele>767.2</ele>
        <time>2019-07-07T08:29:05Z</time>
      </trkpt>
      <trkpt lat="40.4860650" lon="-2.7371940">
        <ele>767.8</ele>
        <time>2019-07-07T08:29:07Z</time>
      </trkpt>
      <trkpt lat="40.4862270" lon="-2.7373230">
        <ele>769.0</ele>
        <time>2019-07-07T08:29:13Z</time>
      </trkpt>
      <trkpt lat="40.4862530" lon="-2.7373470">
        <ele>769.2</ele>
        <time>2019-07-07T08:29:14Z</time>
      </trkpt>
      <trkpt lat="40.4863680" lon="-2.7374270">
        <ele>770.2</ele>
        <time>2019-07-07T08:29:18Z</time>
      </trkpt>
      <trkpt lat="40.4864540" lon="-2.7374890">
        <ele>770.6</ele>
        <time>2019-07-07T08:29:21Z</time>
      </trkpt>
      <trkpt lat="40.4865420" lon="-2.7375530">
        <ele>771.2</ele>
        <time>2019-07-07T08:29:24Z</time>
      </trkpt>
      <trkpt lat="40.4867030" lon="-2.7376360">
        <ele>772.2</ele>
        <time>2019-07-07T08:29:29Z</time>
      </trkpt>
      <trkpt lat="40.4868890" lon="-2.7377370">
        <ele>773.2</ele>
        <time>2019-07-07T08:29:35Z</time>
      </trkpt>
      <trkpt lat="40.4870050" lon="-2.7378100">
        <ele>773.8</ele>
        <time>2019-07-07T08:29:39Z</time>
      </trkpt>
      <trkpt lat="40.4870940" lon="-2.7378450">
        <ele>774.4</ele>
        <time>2019-07-07T08:29:42Z</time>
      </trkpt>
      <trkpt lat="40.4871820" lon="-2.7378970">
        <ele>775.2</ele>
        <time>2019-07-07T08:29:45Z</time>
      </trkpt>
      <trkpt lat="40.4872100" lon="-2.7379110">
        <ele>775.4</ele>
        <time>2019-07-07T08:29:46Z</time>
      </trkpt>
      <trkpt lat="40.4872920" lon="-2.7379510">
        <ele>776.6</ele>
        <time>2019-07-07T08:29:49Z</time>
      </trkpt>
      <trkpt lat="40.4873980" lon="-2.7380170">
        <ele>777.4</ele>
        <time>2019-07-07T08:29:53Z</time>
      </trkpt>
      <trkpt lat="40.4874250" lon="-2.7380280">
        <ele>777.6</ele>
        <time>2019-07-07T08:29:54Z</time>
      </trkpt>
      <trkpt lat="40.4875890" lon="-2.7381120">
        <ele>778.6</ele>
        <time>2019-07-07T08:30:00Z</time>
      </trkpt>
      <trkpt lat="40.4876400" lon="-2.7381420">
        <ele>779.0</ele>
        <time>2019-07-07T08:30:02Z</time>
      </trkpt>
      <trkpt lat="40.4877490" lon="-2.7381880">
        <ele>779.8</ele>
        <time>2019-07-07T08:30:06Z</time>
      </trkpt>
      <trkpt lat="40.4878280" lon="-2.7382340">
        <ele>780.6</ele>
        <time>2019-07-07T08:30:09Z</time>
      </trkpt>
      <trkpt lat="40.4878550" lon="-2.7382480">
        <ele>781.0</ele>
        <time>2019-07-07T08:30:10Z</time>
      </trkpt>
      <trkpt lat="40.4880240" lon="-2.7383430">
        <ele>782.2</ele>
        <time>2019-07-07T08:30:16Z</time>
      </trkpt>
      <trkpt lat="40.4881650" lon="-2.7384310">
        <ele>783.2</ele>
        <time>2019-07-07T08:30:21Z</time>
      </trkpt>
      <trkpt lat="40.4882550" lon="-2.7384770">
        <ele>783.6</ele>
        <time>2019-07-07T08:30:24Z</time>
      </trkpt>
      <trkpt lat="40.4883760" lon="-2.7385350">
        <ele>784.4</ele>
        <time>2019-07-07T08:30:28Z</time>
      </trkpt>
      <trkpt lat="40.4884950" lon="-2.7385900">
        <ele>784.8</ele>
        <time>2019-07-07T08:30:32Z</time>
      </trkpt>
      <trkpt lat="40.4885540" lon="-2.7386220">
        <ele>785.2</ele>
        <time>2019-07-07T08:30:34Z</time>
      </trkpt>
      <trkpt lat="40.4887040" lon="-2.7386980">
        <ele>786.2</ele>
        <time>2019-07-07T08:30:39Z</time>
      </trkpt>
      <trkpt lat="40.4888530" lon="-2.7388000">
        <ele>787.4</ele>
        <time>2019-07-07T08:30:44Z</time>
      </trkpt>
      <trkpt lat="40.4889460" lon="-2.7388640">
        <ele>788.2</ele>
        <time>2019-07-07T08:30:47Z</time>
      </trkpt>
      <trkpt lat="40.4890080" lon="-2.7389020">
        <ele>788.6</ele>
        <time>2019-07-07T08:30:49Z</time>
      </trkpt>
      <trkpt lat="40.4891760" lon="-2.7390470">
        <ele>789.6</ele>
        <time>2019-07-07T08:30:55Z</time>
      </trkpt>
      <trkpt lat="40.4892000" lon="-2.7390750">
        <ele>789.8</ele>
        <time>2019-07-07T08:30:56Z</time>
      </trkpt>
      <trkpt lat="40.4893510" lon="-2.7392220">
        <ele>791.0</ele>
        <time>2019-07-07T08:31:02Z</time>
      </trkpt>
      <trkpt lat="40.4893800" lon="-2.7392390">
        <ele>791.2</ele>
        <time>2019-07-07T08:31:03Z</time>
      </trkpt>
      <trkpt lat="40.4895290" lon="-2.7392860">
        <ele>792.2</ele>
        <time>2019-07-07T08:31:08Z</time>
      </trkpt>
      <trkpt lat="40.4895930" lon="-2.7392900">
        <ele>792.4</ele>
        <time>2019-07-07T08:31:10Z</time>
      </trkpt>
      <trkpt lat="40.4896900" lon="-2.7392800">
        <ele>793.4</ele>
        <time>2019-07-07T08:31:13Z</time>
      </trkpt>
      <trkpt lat="40.4898100" lon="-2.7392320">
        <ele>794.2</ele>
        <time>2019-07-07T08:31:17Z</time>
      </trkpt>
      <trkpt lat="40.4898390" lon="-2.7392190">
        <ele>794.4</ele>
        <time>2019-07-07T08:31:18Z</time>
      </trkpt>
      <trkpt lat="40.4900130" lon="-2.7391650">
        <ele>795.6</ele>
        <time>2019-07-07T08:31:24Z</time>
      </trkpt>
      <trkpt lat="40.4901600" lon="-2.7391030">
        <ele>796.6</ele>
        <time>2019-07-07T08:31:29Z</time>
      </trkpt>
      <trkpt lat="40.4902190" lon="-2.7390850">
        <ele>797.2</ele>
        <time>2019-07-07T08:31:31Z</time>
      </trkpt>
      <trkpt lat="40.4902780" lon="-2.7390680">
        <ele>797.8</ele>
        <time>2019-07-07T08:31:33Z</time>
      </trkpt>
      <trkpt lat="40.4904240" lon="-2.7390290">
        <ele>799.0</ele>
        <time>2019-07-07T08:31:38Z</time>
      </trkpt>
      <trkpt lat="40.4905440" lon="-2.7390250">
        <ele>800.0</ele>
        <time>2019-07-07T08:31:42Z</time>
      </trkpt>
      <trkpt lat="40.4906300" lon="-2.7390360">
        <ele>800.8</ele>
        <time>2019-07-07T08:31:45Z</time>
      </trkpt>
      <trkpt lat="40.4906850" lon="-2.7390570">
        <ele>801.0</ele>
        <time>2019-07-07T08:31:47Z</time>
      </trkpt>
      <trkpt lat="40.4907870" lon="-2.7391420">
        <ele>802.0</ele>
        <time>2019-07-07T08:31:51Z</time>
      </trkpt>
      <trkpt lat="40.4908100" lon="-2.7391680">
        <ele>802.2</ele>
        <time>2019-07-07T08:31:52Z</time>
      </trkpt>
      <trkpt lat="40.4908860" lon="-2.7393430">
        <ele>803.2</ele>
        <time>2019-07-07T08:31:57Z</time>
      </trkpt>
      <trkpt lat="40.4909140" lon="-2.7395540">
        <ele>804.6</ele>
        <time>2019-07-07T08:32:02Z</time>
      </trkpt>
      <trkpt lat="40.4909100" lon="-2.7395930">
        <ele>804.8</ele>
        <time>2019-07-07T08:32:03Z</time>
      </trkpt>
      <trkpt lat="40.4908580" lon="-2.7397380">
        <ele>805.6</ele>
        <time>2019-07-07T08:32:07Z</time>
      </trkpt>
      <trkpt lat="40.4908090" lon="-2.7398020">
        <ele>806.0</ele>
        <time>2019-07-07T08:32:09Z</time>
      </trkpt>
      <trkpt lat="40.4907040" lon="-2.7398970">
        <ele>806.0</ele>
        <time>2019-07-07T08:32:12Z</time>
      </trkpt>
      <trkpt lat="40.4906110" lon="-2.7399540">
        <ele>806.0</ele>
        <time>2019-07-07T08:32:14Z</time>
      </trkpt>
      <trkpt lat="40.4903110" lon="-2.7400900">
        <ele>804.6</ele>
        <time>2019-07-07T08:32:19Z</time>
      </trkpt>
      <trkpt lat="40.4900950" lon="-2.7401880">
        <ele>803.4</ele>
        <time>2019-07-07T08:32:22Z</time>
      </trkpt>
      <trkpt lat="40.4898560" lon="-2.7402940">
        <ele>802.2</ele>
        <time>2019-07-07T08:32:25Z</time>
      </trkpt>
      <trkpt lat="40.4896020" lon="-2.7404100">
        <ele>801.0</ele>
        <time>2019-07-07T08:32:28Z</time>
      </trkpt>
      <trkpt lat="40.4894270" lon="-2.7404970">
        <ele>799.8</ele>
        <time>2019-07-07T08:32:30Z</time>
      </trkpt>
      <trkpt lat="40.4892440" lon="-2.7405840">
        <ele>799.2</ele>
        <time>2019-07-07T08:32:32Z</time>
      </trkpt>
      <trkpt lat="40.4891510" lon="-2.7406270">
        <ele>798.6</ele>
        <time>2019-07-07T08:32:33Z</time>
      </trkpt>
      <trkpt lat="40.4889640" lon="-2.7407320">
        <ele>797.0</ele>
        <time>2019-07-07T08:32:35Z</time>
      </trkpt>
      <trkpt lat="40.4887810" lon="-2.7408690">
        <ele>795.8</ele>
        <time>2019-07-07T08:32:37Z</time>
      </trkpt>
      <trkpt lat="40.4886150" lon="-2.7410410">
        <ele>794.6</ele>
        <time>2019-07-07T08:32:39Z</time>
      </trkpt>
      <trkpt lat="40.4885500" lon="-2.7411520">
        <ele>794.2</ele>
        <time>2019-07-07T08:32:40Z</time>
      </trkpt>
      <trkpt lat="40.4884740" lon="-2.7414160">
        <ele>793.2</ele>
        <time>2019-07-07T08:32:42Z</time>
      </trkpt>
      <trkpt lat="40.4884550" lon="-2.7415580">
        <ele>792.4</ele>
        <time>2019-07-07T08:32:43Z</time>
      </trkpt>
      <trkpt lat="40.4884380" lon="-2.7417020">
        <ele>791.8</ele>
        <time>2019-07-07T08:32:44Z</time>
      </trkpt>
      <trkpt lat="40.4884080" lon="-2.7419940">
        <ele>790.6</ele>
        <time>2019-07-07T08:32:46Z</time>
      </trkpt>
      <trkpt lat="40.4884060" lon="-2.7421430">
        <ele>790.0</ele>
        <time>2019-07-07T08:32:47Z</time>
      </trkpt>
      <trkpt lat="40.4884190" lon="-2.7422860">
        <ele>789.4</ele>
        <time>2019-07-07T08:32:48Z</time>
      </trkpt>
      <trkpt lat="40.4884700" lon="-2.7424130">
        <ele>788.2</ele>
        <time>2019-07-07T08:32:49Z</time>
      </trkpt>
      <trkpt lat="40.4885380" lon="-2.7425260">
        <ele>787.4</ele>
        <time>2019-07-07T08:32:50Z</time>
      </trkpt>
      <trkpt lat="40.4886120" lon="-2.7426320">
        <ele>787.0</ele>
        <time>2019-07-07T08:32:51Z</time>
      </trkpt>
      <trkpt lat="40.4886760" lon="-2.7427440">
        <ele>786.4</ele>
        <time>2019-07-07T08:32:52Z</time>
      </trkpt>
      <trkpt lat="40.4887240" lon="-2.7428670">
        <ele>786.0</ele>
        <time>2019-07-07T08:32:53Z</time>
      </trkpt>
      <trkpt lat="40.4887560" lon="-2.7430000">
        <ele>785.4</ele>
        <time>2019-07-07T08:32:54Z</time>
      </trkpt>
      <trkpt lat="40.4887690" lon="-2.7432770">
        <ele>784.8</ele>
        <time>2019-07-07T08:32:56Z</time>
      </trkpt>
      <trkpt lat="40.4887510" lon="-2.7434160">
        <ele>784.4</ele>
        <time>2019-07-07T08:32:57Z</time>
      </trkpt>
      <trkpt lat="40.4886660" lon="-2.7436710">
        <ele>783.6</ele>
        <time>2019-07-07T08:32:59Z</time>
      </trkpt>
      <trkpt lat="40.4886030" lon="-2.7437810">
        <ele>783.2</ele>
        <time>2019-07-07T08:33:00Z</time>
      </trkpt>
      <trkpt lat="40.4883000" lon="-2.7441140">
        <ele>782.6</ele>
        <time>2019-07-07T08:33:04Z</time>
      </trkpt>
      <trkpt lat="40.4882180" lon="-2.7441800">
        <ele>782.6</ele>
        <time>2019-07-07T08:33:05Z</time>
      </trkpt>
      <trkpt lat="40.4881380" lon="-2.7442460">
        <ele>782.4</ele>
        <time>2019-07-07T08:33:06Z</time>
      </trkpt>
      <trkpt lat="40.4878290" lon="-2.7445030">
        <ele>781.6</ele>
        <time>2019-07-07T08:33:10Z</time>
      </trkpt>
      <trkpt lat="40.4876010" lon="-2.7446850">
        <ele>781.4</ele>
        <time>2019-07-07T08:33:13Z</time>
      </trkpt>
      <trkpt lat="40.4874470" lon="-2.7448090">
        <ele>781.2</ele>
        <time>2019-07-07T08:33:15Z</time>
      </trkpt>
      <trkpt lat="40.4871340" lon="-2.7450800">
        <ele>779.8</ele>
        <time>2019-07-07T08:33:19Z</time>
      </trkpt>
      <trkpt lat="40.4870590" lon="-2.7451610">
        <ele>779.2</ele>
        <time>2019-07-07T08:33:20Z</time>
      </trkpt>
      <trkpt lat="40.4869850" lon="-2.7452490">
        <ele>778.6</ele>
        <time>2019-07-07T08:33:21Z</time>
      </trkpt>
      <trkpt lat="40.4868360" lon="-2.7454400">
        <ele>777.0</ele>
        <time>2019-07-07T08:33:23Z</time>
      </trkpt>
      <trkpt lat="40.4866840" lon="-2.7456350">
        <ele>775.8</ele>
        <time>2019-07-07T08:33:25Z</time>
      </trkpt>
      <trkpt lat="40.4865480" lon="-2.7458280">
        <ele>774.4</ele>
        <time>2019-07-07T08:33:27Z</time>
      </trkpt>
      <trkpt lat="40.4865010" lon="-2.7459420">
        <ele>773.8</ele>
        <time>2019-07-07T08:33:28Z</time>
      </trkpt>
      <trkpt lat="40.4864770" lon="-2.7462010">
        <ele>772.6</ele>
        <time>2019-07-07T08:33:30Z</time>
      </trkpt>
      <trkpt lat="40.4865530" lon="-2.7464520">
        <ele>771.8</ele>
        <time>2019-07-07T08:33:32Z</time>
      </trkpt>
      <trkpt lat="40.4867070" lon="-2.7466490">
        <ele>770.6</ele>
        <time>2019-07-07T08:33:34Z</time>
      </trkpt>
      <trkpt lat="40.4867990" lon="-2.7467280">
        <ele>770.0</ele>
        <time>2019-07-07T08:33:35Z</time>
      </trkpt>
      <trkpt lat="40.4868950" lon="-2.7468030">
        <ele>769.2</ele>
        <time>2019-07-07T08:33:36Z</time>
      </trkpt>
      <trkpt lat="40.4870840" lon="-2.7469540">
        <ele>767.6</ele>
        <time>2019-07-07T08:33:38Z</time>
      </trkpt>
      <trkpt lat="40.4873260" lon="-2.7471670">
        <ele>766.0</ele>
        <time>2019-07-07T08:33:41Z</time>
      </trkpt>
      <trkpt lat="40.4873830" lon="-2.7472340">
        <ele>765.4</ele>
        <time>2019-07-07T08:33:42Z</time>
      </trkpt>
      <trkpt lat="40.4874260" lon="-2.7473000">
        <ele>764.8</ele>
        <time>2019-07-07T08:33:43Z</time>
      </trkpt>
      <trkpt lat="40.4874620" lon="-2.7473640">
        <ele>764.4</ele>
        <time>2019-07-07T08:33:44Z</time>
      </trkpt>
      <trkpt lat="40.4874950" lon="-2.7474180">
        <ele>764.0</ele>
        <time>2019-07-07T08:33:45Z</time>
      </trkpt>
      <trkpt lat="40.4875330" lon="-2.7474560">
        <ele>763.6</ele>
        <time>2019-07-07T08:33:46Z</time>
      </trkpt>
      <trkpt lat="40.4875760" lon="-2.7474820">
        <ele>763.0</ele>
        <time>2019-07-07T08:33:47Z</time>
      </trkpt>
      <trkpt lat="40.4876780" lon="-2.7474750">
        <ele>762.6</ele>
        <time>2019-07-07T08:33:49Z</time>
      </trkpt>
      <trkpt lat="40.4877250" lon="-2.7474310">
        <ele>762.4</ele>
        <time>2019-07-07T08:33:50Z</time>
      </trkpt>
      <trkpt lat="40.4877800" lon="-2.7471590">
        <ele>761.2</ele>
        <time>2019-07-07T08:33:53Z</time>
      </trkpt>
      <trkpt lat="40.4877740" lon="-2.7470430">
        <ele>760.2</ele>
        <time>2019-07-07T08:33:54Z</time>
      </trkpt>
      <trkpt lat="40.4877660" lon="-2.7469230">
        <ele>759.0</ele>
        <time>2019-07-07T08:33:55Z</time>
      </trkpt>
      <trkpt lat="40.4877590" lon="-2.7468030">
        <ele>757.8</ele>
        <time>2019-07-07T08:33:56Z</time>
      </trkpt>
      <trkpt lat="40.4877520" lon="-2.7466860">
        <ele>756.8</ele>
        <time>2019-07-07T08:33:57Z</time>
      </trkpt>
      <trkpt lat="40.4877540" lon="-2.7465720">
        <ele>755.4</ele>
        <time>2019-07-07T08:33:58Z</time>
      </trkpt>
      <trkpt lat="40.4877660" lon="-2.7464620">
        <ele>754.0</ele>
        <time>2019-07-07T08:33:59Z</time>
      </trkpt>
      <trkpt lat="40.4877970" lon="-2.7463650">
        <ele>753.0</ele>
        <time>2019-07-07T08:34:00Z</time>
      </trkpt>
      <trkpt lat="40.4878500" lon="-2.7462870">
        <ele>752.0</ele>
        <time>2019-07-07T08:34:01Z</time>
      </trkpt>
      <trkpt lat="40.4879930" lon="-2.7462090">
        <ele>750.6</ele>
        <time>2019-07-07T08:34:03Z</time>
      </trkpt>
      <trkpt lat="40.4881340" lon="-2.7462100">
        <ele>750.0</ele>
        <time>2019-07-07T08:34:05Z</time>
      </trkpt>
      <trkpt lat="40.4881910" lon="-2.7462270">
        <ele>749.8</ele>
        <time>2019-07-07T08:34:06Z</time>
      </trkpt>
      <trkpt lat="40.4882320" lon="-2.7462660">
        <ele>749.8</ele>
        <time>2019-07-07T08:34:07Z</time>
      </trkpt>
      <trkpt lat="40.4882520" lon="-2.7463290">
        <ele>749.6</ele>
        <time>2019-07-07T08:34:08Z</time>
      </trkpt>
      <trkpt lat="40.4882570" lon="-2.7464750">
        <ele>749.4</ele>
        <time>2019-07-07T08:34:10Z</time>
      </trkpt>
      <trkpt lat="40.4882500" lon="-2.7465500">
        <ele>749.4</ele>
        <time>2019-07-07T08:34:11Z</time>
      </trkpt>
      <trkpt lat="40.4882380" lon="-2.7467020">
        <ele>749.6</ele>
        <time>2019-07-07T08:34:13Z</time>
      </trkpt>
      <trkpt lat="40.4882250" lon="-2.7468430">
        <ele>749.8</ele>
        <time>2019-07-07T08:34:15Z</time>
      </trkpt>
      <trkpt lat="40.4882220" lon="-2.7469790">
        <ele>750.0</ele>
        <time>2019-07-07T08:34:17Z</time>
      </trkpt>
      <trkpt lat="40.4882290" lon="-2.7471120">
        <ele>750.4</ele>
        <time>2019-07-07T08:34:19Z</time>
      </trkpt>
      <trkpt lat="40.4882360" lon="-2.7472440">
        <ele>750.8</ele>
        <time>2019-07-07T08:34:21Z</time>
      </trkpt>
      <trkpt lat="40.4882630" lon="-2.7474420">
        <ele>751.4</ele>
        <time>2019-07-07T08:34:24Z</time>
      </trkpt>
      <trkpt lat="40.4882730" lon="-2.7475090">
        <ele>751.4</ele>
        <time>2019-07-07T08:34:25Z</time>
      </trkpt>
      <trkpt lat="40.4883320" lon="-2.7478030">
        <ele>751.4</ele>
        <time>2019-07-07T08:34:29Z</time>
      </trkpt>
      <trkpt lat="40.4883820" lon="-2.7479550">
        <ele>751.2</ele>
        <time>2019-07-07T08:34:31Z</time>
      </trkpt>
      <trkpt lat="40.4886120" lon="-2.7484030">
        <ele>749.6</ele>
        <time>2019-07-07T08:34:37Z</time>
      </trkpt>
      <trkpt lat="40.4888540" lon="-2.7487480">
        <ele>748.4</ele>
        <time>2019-07-07T08:34:42Z</time>
      </trkpt>
      <trkpt lat="40.4889570" lon="-2.7488740">
        <ele>748.0</ele>
        <time>2019-07-07T08:34:44Z</time>
      </trkpt>
      <trkpt lat="40.4890660" lon="-2.7489880">
        <ele>747.6</ele>
        <time>2019-07-07T08:34:46Z</time>
      </trkpt>
      <trkpt lat="40.4891960" lon="-2.7490740">
        <ele>747.2</ele>
        <time>2019-07-07T08:34:48Z</time>
      </trkpt>
      <trkpt lat="40.4892690" lon="-2.7491090">
        <ele>747.0</ele>
        <time>2019-07-07T08:34:49Z</time>
      </trkpt>
      <trkpt lat="40.4894950" lon="-2.7491290">
        <ele>746.2</ele>
        <time>2019-07-07T08:34:52Z</time>
      </trkpt>
      <trkpt lat="40.4895680" lon="-2.7490960">
        <ele>746.2</ele>
        <time>2019-07-07T08:34:53Z</time>
      </trkpt>
      <trkpt lat="40.4896370" lon="-2.7490550">
        <ele>745.8</ele>
        <time>2019-07-07T08:34:54Z</time>
      </trkpt>
      <trkpt lat="40.4897000" lon="-2.7490150">
        <ele>745.6</ele>
        <time>2019-07-07T08:34:55Z</time>
      </trkpt>
      <trkpt lat="40.4898200" lon="-2.7489450">
        <ele>745.4</ele>
        <time>2019-07-07T08:34:57Z</time>
      </trkpt>
      <trkpt lat="40.4898810" lon="-2.7489180">
        <ele>744.8</ele>
        <time>2019-07-07T08:34:58Z</time>
      </trkpt>
      <trkpt lat="40.4899410" lon="-2.7488980">
        <ele>744.4</ele>
        <time>2019-07-07T08:34:59Z</time>
      </trkpt>
      <trkpt lat="40.4900040" lon="-2.7488850">
        <ele>744.4</ele>
        <time>2019-07-07T08:35:00Z</time>
      </trkpt>
      <trkpt lat="40.4902640" lon="-2.7488630">
        <ele>743.8</ele>
        <time>2019-07-07T08:35:04Z</time>
      </trkpt>
      <trkpt lat="40.4903940" lon="-2.7488370">
        <ele>743.4</ele>
        <time>2019-07-07T08:35:06Z</time>
      </trkpt>
      <trkpt lat="40.4906520" lon="-2.7487360">
        <ele>742.6</ele>
        <time>2019-07-07T08:35:10Z</time>
      </trkpt>
      <trkpt lat="40.4907180" lon="-2.7487210">
        <ele>742.4</ele>
        <time>2019-07-07T08:35:11Z</time>
      </trkpt>
      <trkpt lat="40.4908510" lon="-2.7487260">
        <ele>742.0</ele>
        <time>2019-07-07T08:35:13Z</time>
      </trkpt>
      <trkpt lat="40.4909140" lon="-2.7487490">
        <ele>741.8</ele>
        <time>2019-07-07T08:35:14Z</time>
      </trkpt>
      <trkpt lat="40.4910780" lon="-2.7488960">
        <ele>741.6</ele>
        <time>2019-07-07T08:35:17Z</time>
      </trkpt>
      <trkpt lat="40.4911670" lon="-2.7491360">
        <ele>740.8</ele>
        <time>2019-07-07T08:35:20Z</time>
      </trkpt>
      <trkpt lat="40.4911830" lon="-2.7492240">
        <ele>740.4</ele>
        <time>2019-07-07T08:35:21Z</time>
      </trkpt>
      <trkpt lat="40.4912540" lon="-2.7496830">
        <ele>739.6</ele>
        <time>2019-07-07T08:35:26Z</time>
      </trkpt>
      <trkpt lat="40.4912870" lon="-2.7498740">
        <ele>739.2</ele>
        <time>2019-07-07T08:35:28Z</time>
      </trkpt>
      <trkpt lat="40.4913710" lon="-2.7502570">
        <ele>738.4</ele>
        <time>2019-07-07T08:35:32Z</time>
      </trkpt>
      <trkpt lat="40.4914040" lon="-2.7503470">
        <ele>738.0</ele>
        <time>2019-07-07T08:35:33Z</time>
      </trkpt>
      <trkpt lat="40.4915360" lon="-2.7505940">
        <ele>736.8</ele>
        <time>2019-07-07T08:35:36Z</time>
      </trkpt>
      <trkpt lat="40.4916480" lon="-2.7507480">
        <ele>736.4</ele>
        <time>2019-07-07T08:35:38Z</time>
      </trkpt>
      <trkpt lat="40.4917070" lon="-2.7508180">
        <ele>736.2</ele>
        <time>2019-07-07T08:35:39Z</time>
      </trkpt>
      <trkpt lat="40.4918260" lon="-2.7509450">
        <ele>736.0</ele>
        <time>2019-07-07T08:35:41Z</time>
      </trkpt>
      <trkpt lat="40.4918800" lon="-2.7510110">
        <ele>736.0</ele>
        <time>2019-07-07T08:35:42Z</time>
      </trkpt>
      <trkpt lat="40.4919220" lon="-2.7510800">
        <ele>735.8</ele>
        <time>2019-07-07T08:35:43Z</time>
      </trkpt>
      <trkpt lat="40.4919980" lon="-2.7512340">
        <ele>735.6</ele>
        <time>2019-07-07T08:35:45Z</time>
      </trkpt>
      <trkpt lat="40.4920260" lon="-2.7513150">
        <ele>735.6</ele>
        <time>2019-07-07T08:35:46Z</time>
      </trkpt>
      <trkpt lat="40.4920670" lon="-2.7515690">
        <ele>735.6</ele>
        <time>2019-07-07T08:35:49Z</time>
      </trkpt>
      <trkpt lat="40.4920390" lon="-2.7519110">
        <ele>735.8</ele>
        <time>2019-07-07T08:35:53Z</time>
      </trkpt>
      <trkpt lat="40.4919120" lon="-2.7521980">
        <ele>736.2</ele>
        <time>2019-07-07T08:35:57Z</time>
      </trkpt>
      <trkpt lat="40.4918380" lon="-2.7523260">
        <ele>736.0</ele>
        <time>2019-07-07T08:35:59Z</time>
      </trkpt>
      <trkpt lat="40.4917990" lon="-2.7524700">
        <ele>735.4</ele>
        <time>2019-07-07T08:36:01Z</time>
      </trkpt>
      <trkpt lat="40.4918080" lon="-2.7526340">
        <ele>734.6</ele>
        <time>2019-07-07T08:36:03Z</time>
      </trkpt>
      <trkpt lat="40.4918230" lon="-2.7527100">
        <ele>734.4</ele>
        <time>2019-07-07T08:36:04Z</time>
      </trkpt>
      <trkpt lat="40.4918670" lon="-2.7528430">
        <ele>733.6</ele>
        <time>2019-07-07T08:36:07Z</time>
      </trkpt>
      <trkpt lat="40.4919050" lon="-2.7528910">
        <ele>733.2</ele>
        <time>2019-07-07T08:36:11Z</time>
      </trkpt>
      <trkpt lat="40.4919050" lon="-2.7528890">
        <ele>733.2</ele>
        <time>2019-07-07T08:36:12Z</time>
      </trkpt>
      <trkpt lat="40.4918620" lon="-2.7528910">
        <ele>733.0</ele>
        <time>2019-07-07T08:37:06Z</time>
      </trkpt>
      <trkpt lat="40.4918100" lon="-2.7529330">
        <ele>732.6</ele>
        <time>2019-07-07T08:37:08Z</time>
      </trkpt>
      <trkpt lat="40.4917830" lon="-2.7529670">
        <ele>732.4</ele>
        <time>2019-07-07T08:37:09Z</time>
      </trkpt>
      <trkpt lat="40.4917540" lon="-2.7530050">
        <ele>732.4</ele>
        <time>2019-07-07T08:37:10Z</time>
      </trkpt>
      <trkpt lat="40.4916610" lon="-2.7531410">
        <ele>732.2</ele>
        <time>2019-07-07T08:37:13Z</time>
      </trkpt>
      <trkpt lat="40.4916020" lon="-2.7532490">
        <ele>731.6</ele>
        <time>2019-07-07T08:37:15Z</time>
      </trkpt>
      <trkpt lat="40.4915680" lon="-2.7533070">
        <ele>731.2</ele>
        <time>2019-07-07T08:37:16Z</time>
      </trkpt>
      <trkpt lat="40.4915070" lon="-2.7534290">
        <ele>731.0</ele>
        <time>2019-07-07T08:37:18Z</time>
      </trkpt>
      <trkpt lat="40.4914850" lon="-2.7534990">
        <ele>730.8</ele>
        <time>2019-07-07T08:37:19Z</time>
      </trkpt>
      <trkpt lat="40.4914110" lon="-2.7536360">
        <ele>730.0</ele>
        <time>2019-07-07T08:37:21Z</time>
      </trkpt>
      <trkpt lat="40.4913790" lon="-2.7537090">
        <ele>729.4</ele>
        <time>2019-07-07T08:37:22Z</time>
      </trkpt>
      <trkpt lat="40.4913420" lon="-2.7537810">
        <ele>729.0</ele>
        <time>2019-07-07T08:37:23Z</time>
      </trkpt>
      <trkpt lat="40.4911460" lon="-2.7541550">
        <ele>728.2</ele>
        <time>2019-07-07T08:37:28Z</time>
      </trkpt>
      <trkpt lat="40.4910950" lon="-2.7543180">
        <ele>728.0</ele>
        <time>2019-07-07T08:37:30Z</time>
      </trkpt>
      <trkpt lat="40.4910330" lon="-2.7544780">
        <ele>727.6</ele>
        <time>2019-07-07T08:37:32Z</time>
      </trkpt>
      <trkpt lat="40.4909980" lon="-2.7546390">
        <ele>727.6</ele>
        <time>2019-07-07T08:37:34Z</time>
      </trkpt>
      <trkpt lat="40.4909030" lon="-2.7548480">
        <ele>727.0</ele>
        <time>2019-07-07T08:37:37Z</time>
      </trkpt>
      <trkpt lat="40.4908140" lon="-2.7551250">
        <ele>727.2</ele>
        <time>2019-07-07T08:37:41Z</time>
      </trkpt>
      <trkpt lat="40.4907560" lon="-2.7553540">
        <ele>727.0</ele>
        <time>2019-07-07T08:37:44Z</time>
      </trkpt>
      <trkpt lat="40.4907410" lon="-2.7554380">
        <ele>726.8</ele>
        <time>2019-07-07T08:37:45Z</time>
      </trkpt>
      <trkpt lat="40.4907120" lon="-2.7556110">
        <ele>726.4</ele>
        <time>2019-07-07T08:37:47Z</time>
      </trkpt>
      <trkpt lat="40.4906960" lon="-2.7558910">
        <ele>725.8</ele>
        <time>2019-07-07T08:37:50Z</time>
      </trkpt>
      <trkpt lat="40.4906790" lon="-2.7561730">
        <ele>724.6</ele>
        <time>2019-07-07T08:37:53Z</time>
      </trkpt>
      <trkpt lat="40.4906440" lon="-2.7563620">
        <ele>723.4</ele>
        <time>2019-07-07T08:37:55Z</time>
      </trkpt>
      <trkpt lat="40.4906380" lon="-2.7564610">
        <ele>723.0</ele>
        <time>2019-07-07T08:37:56Z</time>
      </trkpt>
      <trkpt lat="40.4906300" lon="-2.7566450">
        <ele>722.0</ele>
        <time>2019-07-07T08:37:58Z</time>
      </trkpt>
      <trkpt lat="40.4905890" lon="-2.7568930">
        <ele>721.2</ele>
        <time>2019-07-07T08:38:01Z</time>
      </trkpt>
      <trkpt lat="40.4905580" lon="-2.7569700">
        <ele>720.6</ele>
        <time>2019-07-07T08:38:02Z</time>
      </trkpt>
      <trkpt lat="40.4904770" lon="-2.7571140">
        <ele>719.6</ele>
        <time>2019-07-07T08:38:04Z</time>
      </trkpt>
      <trkpt lat="40.4904230" lon="-2.7571770">
        <ele>719.2</ele>
        <time>2019-07-07T08:38:05Z</time>
      </trkpt>
      <trkpt lat="40.4903090" lon="-2.7572690">
        <ele>718.0</ele>
        <time>2019-07-07T08:38:07Z</time>
      </trkpt>
      <trkpt lat="40.4901870" lon="-2.7573270">
        <ele>717.2</ele>
        <time>2019-07-07T08:38:09Z</time>
      </trkpt>
      <trkpt lat="40.4901240" lon="-2.7573620">
        <ele>717.0</ele>
        <time>2019-07-07T08:38:10Z</time>
      </trkpt>
      <trkpt lat="40.4900610" lon="-2.7574080">
        <ele>716.6</ele>
        <time>2019-07-07T08:38:11Z</time>
      </trkpt>
      <trkpt lat="40.4899510" lon="-2.7575150">
        <ele>715.8</ele>
        <time>2019-07-07T08:38:13Z</time>
      </trkpt>
      <trkpt lat="40.4899080" lon="-2.7575770">
        <ele>715.0</ele>
        <time>2019-07-07T08:38:14Z</time>
      </trkpt>
      <trkpt lat="40.4898480" lon="-2.7577200">
        <ele>714.2</ele>
        <time>2019-07-07T08:38:16Z</time>
      </trkpt>
      <trkpt lat="40.4898360" lon="-2.7577970">
        <ele>713.8</ele>
        <time>2019-07-07T08:38:17Z</time>
      </trkpt>
      <trkpt lat="40.4898830" lon="-2.7579400">
        <ele>712.6</ele>
        <time>2019-07-07T08:38:19Z</time>
      </trkpt>
      <trkpt lat="40.4899870" lon="-2.7580580">
        <ele>711.2</ele>
        <time>2019-07-07T08:38:21Z</time>
      </trkpt>
      <trkpt lat="40.4900360" lon="-2.7581190">
        <ele>710.8</ele>
        <time>2019-07-07T08:38:22Z</time>
      </trkpt>
      <trkpt lat="40.4900810" lon="-2.7581880">
        <ele>710.2</ele>
        <time>2019-07-07T08:38:23Z</time>
      </trkpt>
      <trkpt lat="40.4901250" lon="-2.7582640">
        <ele>710.0</ele>
        <time>2019-07-07T08:38:24Z</time>
      </trkpt>
      <trkpt lat="40.4901590" lon="-2.7583490">
        <ele>709.8</ele>
        <time>2019-07-07T08:38:25Z</time>
      </trkpt>
      <trkpt lat="40.4901730" lon="-2.7585480">
        <ele>709.2</ele>
        <time>2019-07-07T08:38:27Z</time>
      </trkpt>
      <trkpt lat="40.4901590" lon="-2.7586570">
        <ele>708.4</ele>
        <time>2019-07-07T08:38:28Z</time>
      </trkpt>
      <trkpt lat="40.4901380" lon="-2.7587680">
        <ele>707.0</ele>
        <time>2019-07-07T08:38:29Z</time>
      </trkpt>
      <trkpt lat="40.4901150" lon="-2.7589780">
        <ele>705.6</ele>
        <time>2019-07-07T08:38:31Z</time>
      </trkpt>
      <trkpt lat="40.4901180" lon="-2.7591880">
        <ele>704.8</ele>
        <time>2019-07-07T08:38:33Z</time>
      </trkpt>
      <trkpt lat="40.4901170" lon="-2.7592890">
        <ele>704.4</ele>
        <time>2019-07-07T08:38:34Z</time>
      </trkpt>
      <trkpt lat="40.4901050" lon="-2.7593840">
        <ele>704.0</ele>
        <time>2019-07-07T08:38:35Z</time>
      </trkpt>
      <trkpt lat="40.4900450" lon="-2.7595700">
        <ele>702.8</ele>
        <time>2019-07-07T08:38:37Z</time>
      </trkpt>
      <trkpt lat="40.4900180" lon="-2.7596630">
        <ele>702.2</ele>
        <time>2019-07-07T08:38:38Z</time>
      </trkpt>
      <trkpt lat="40.4900000" lon="-2.7597560">
        <ele>701.4</ele>
        <time>2019-07-07T08:38:39Z</time>
      </trkpt>
      <trkpt lat="40.4899830" lon="-2.7600480">
        <ele>700.2</ele>
        <time>2019-07-07T08:38:42Z</time>
      </trkpt>
      <trkpt lat="40.4899740" lon="-2.7601380">
        <ele>699.2</ele>
        <time>2019-07-07T08:38:43Z</time>
      </trkpt>
      <trkpt lat="40.4899580" lon="-2.7602290">
        <ele>698.6</ele>
        <time>2019-07-07T08:38:44Z</time>
      </trkpt>
      <trkpt lat="40.4898990" lon="-2.7604100">
        <ele>697.4</ele>
        <time>2019-07-07T08:38:46Z</time>
      </trkpt>
      <trkpt lat="40.4898570" lon="-2.7604970">
        <ele>696.8</ele>
        <time>2019-07-07T08:38:47Z</time>
      </trkpt>
      <trkpt lat="40.4898150" lon="-2.7605840">
        <ele>696.2</ele>
        <time>2019-07-07T08:38:48Z</time>
      </trkpt>
      <trkpt lat="40.4897840" lon="-2.7606730">
        <ele>695.6</ele>
        <time>2019-07-07T08:38:49Z</time>
      </trkpt>
      <trkpt lat="40.4897680" lon="-2.7607640">
        <ele>694.8</ele>
        <time>2019-07-07T08:38:50Z</time>
      </trkpt>
      <trkpt lat="40.4897620" lon="-2.7608580">
        <ele>693.8</ele>
        <time>2019-07-07T08:38:51Z</time>
      </trkpt>
      <trkpt lat="40.4897620" lon="-2.7609550">
        <ele>693.4</ele>
        <time>2019-07-07T08:38:52Z</time>
      </trkpt>
      <trkpt lat="40.4897670" lon="-2.7610570">
        <ele>693.0</ele>
        <time>2019-07-07T08:38:53Z</time>
      </trkpt>
      <trkpt lat="40.4897640" lon="-2.7611650">
        <ele>692.2</ele>
        <time>2019-07-07T08:38:54Z</time>
      </trkpt>
      <trkpt lat="40.4897540" lon="-2.7612740">
        <ele>691.6</ele>
        <time>2019-07-07T08:38:55Z</time>
      </trkpt>
      <trkpt lat="40.4897410" lon="-2.7613850">
        <ele>691.0</ele>
        <time>2019-07-07T08:38:56Z</time>
      </trkpt>
      <trkpt lat="40.4897010" lon="-2.7617100">
        <ele>689.6</ele>
        <time>2019-07-07T08:38:59Z</time>
      </trkpt>
      <trkpt lat="40.4896700" lon="-2.7619260">
        <ele>688.2</ele>
        <time>2019-07-07T08:39:01Z</time>
      </trkpt>
      <trkpt lat="40.4896500" lon="-2.7620300">
        <ele>687.8</ele>
        <time>2019-07-07T08:39:02Z</time>
      </trkpt>
      <trkpt lat="40.4896050" lon="-2.7623460">
        <ele>686.8</ele>
        <time>2019-07-07T08:39:05Z</time>
      </trkpt>
      <trkpt lat="40.4895900" lon="-2.7625680">
        <ele>685.0</ele>
        <time>2019-07-07T08:39:07Z</time>
      </trkpt>
      <trkpt lat="40.4895860" lon="-2.7628100">
        <ele>683.6</ele>
        <time>2019-07-07T08:39:09Z</time>
      </trkpt>
      <trkpt lat="40.4895830" lon="-2.7630580">
        <ele>682.2</ele>
        <time>2019-07-07T08:39:11Z</time>
      </trkpt>
      <trkpt lat="40.4895800" lon="-2.7631760">
        <ele>681.6</ele>
        <time>2019-07-07T08:39:12Z</time>
      </trkpt>
      <trkpt lat="40.4895750" lon="-2.7632880">
        <ele>681.0</ele>
        <time>2019-07-07T08:39:13Z</time>
      </trkpt>
      <trkpt lat="40.4895630" lon="-2.7635020">
        <ele>679.4</ele>
        <time>2019-07-07T08:39:15Z</time>
      </trkpt>
      <trkpt lat="40.4895380" lon="-2.7637270">
        <ele>678.4</ele>
        <time>2019-07-07T08:39:17Z</time>
      </trkpt>
      <trkpt lat="40.4895100" lon="-2.7639500">
        <ele>677.2</ele>
        <time>2019-07-07T08:39:19Z</time>
      </trkpt>
      <trkpt lat="40.4894910" lon="-2.7641400">
        <ele>675.6</ele>
        <time>2019-07-07T08:39:21Z</time>
      </trkpt>
      <trkpt lat="40.4894830" lon="-2.7642250">
        <ele>675.0</ele>
        <time>2019-07-07T08:39:22Z</time>
      </trkpt>
      <trkpt lat="40.4894780" lon="-2.7643020">
        <ele>674.4</ele>
        <time>2019-07-07T08:39:23Z</time>
      </trkpt>
      <trkpt lat="40.4894850" lon="-2.7643750">
        <ele>673.8</ele>
        <time>2019-07-07T08:39:24Z</time>
      </trkpt>
      <trkpt lat="40.4895020" lon="-2.7644420">
        <ele>673.4</ele>
        <time>2019-07-07T08:39:25Z</time>
      </trkpt>
      <trkpt lat="40.4895880" lon="-2.7646230">
        <ele>672.2</ele>
        <time>2019-07-07T08:39:28Z</time>
      </trkpt>
      <trkpt lat="40.4896290" lon="-2.7646680">
        <ele>671.8</ele>
        <time>2019-07-07T08:39:29Z</time>
      </trkpt>
      <trkpt lat="40.4897180" lon="-2.7647340">
        <ele>671.2</ele>
        <time>2019-07-07T08:39:31Z</time>
      </trkpt>
      <trkpt lat="40.4898650" lon="-2.7647950">
        <ele>670.4</ele>
        <time>2019-07-07T08:39:34Z</time>
      </trkpt>
      <trkpt lat="40.4899540" lon="-2.7648150">
        <ele>670.4</ele>
        <time>2019-07-07T08:39:36Z</time>
      </trkpt>
      <trkpt lat="40.4900720" lon="-2.7648450">
        <ele>670.2</ele>
        <time>2019-07-07T08:39:39Z</time>
      </trkpt>
      <trkpt lat="40.4901500" lon="-2.7648610">
        <ele>670.4</ele>
        <time>2019-07-07T08:39:41Z</time>
      </trkpt>
      <trkpt lat="40.4902400" lon="-2.7648830">
        <ele>670.4</ele>
        <time>2019-07-07T08:39:43Z</time>
      </trkpt>
      <trkpt lat="40.4903380" lon="-2.7649110">
        <ele>670.4</ele>
        <time>2019-07-07T08:39:45Z</time>
      </trkpt>
      <trkpt lat="40.4904430" lon="-2.7649420">
        <ele>670.0</ele>
        <time>2019-07-07T08:39:47Z</time>
      </trkpt>
      <trkpt lat="40.4904950" lon="-2.7649660">
        <ele>669.8</ele>
        <time>2019-07-07T08:39:48Z</time>
      </trkpt>
      <trkpt lat="40.4905720" lon="-2.7650600">
        <ele>669.6</ele>
        <time>2019-07-07T08:39:50Z</time>
      </trkpt>
      <trkpt lat="40.4906030" lon="-2.7652610">
        <ele>669.2</ele>
        <time>2019-07-07T08:39:53Z</time>
      </trkpt>
      <trkpt lat="40.4906040" lon="-2.7653300">
        <ele>669.2</ele>
        <time>2019-07-07T08:39:54Z</time>
      </trkpt>
      <trkpt lat="40.4906280" lon="-2.7655330">
        <ele>669.2</ele>
        <time>2019-07-07T08:39:57Z</time>
      </trkpt>
      <trkpt lat="40.4906410" lon="-2.7656660">
        <ele>669.6</ele>
        <time>2019-07-07T08:39:59Z</time>
      </trkpt>
      <trkpt lat="40.4906450" lon="-2.7657320">
        <ele>669.6</ele>
        <time>2019-07-07T08:40:00Z</time>
      </trkpt>
      <trkpt lat="40.4906600" lon="-2.7659970">
        <ele>670.0</ele>
        <time>2019-07-07T08:40:04Z</time>
      </trkpt>
      <trkpt lat="40.4906540" lon="-2.7662080">
        <ele>670.2</ele>
        <time>2019-07-07T08:40:07Z</time>
      </trkpt>
      <trkpt lat="40.4906090" lon="-2.7668220">
        <ele>669.8</ele>
        <time>2019-07-07T08:40:15Z</time>
      </trkpt>
      <trkpt lat="40.4905670" lon="-2.7674000">
        <ele>669.2</ele>
        <time>2019-07-07T08:40:22Z</time>
      </trkpt>
      <trkpt lat="40.4904910" lon="-2.7678070">
        <ele>668.8</ele>
        <time>2019-07-07T08:40:27Z</time>
      </trkpt>
      <trkpt lat="40.4904500" lon="-2.7679660">
        <ele>668.6</ele>
        <time>2019-07-07T08:40:29Z</time>
      </trkpt>
      <trkpt lat="40.4903390" lon="-2.7683700">
        <ele>668.0</ele>
        <time>2019-07-07T08:40:34Z</time>
      </trkpt>
      <trkpt lat="40.4903150" lon="-2.7684510">
        <ele>668.0</ele>
        <time>2019-07-07T08:40:35Z</time>
      </trkpt>
      <trkpt lat="40.4902410" lon="-2.7686950">
        <ele>667.8</ele>
        <time>2019-07-07T08:40:38Z</time>
      </trkpt>
      <trkpt lat="40.4901210" lon="-2.7692580">
        <ele>667.6</ele>
        <time>2019-07-07T08:40:45Z</time>
      </trkpt>
      <trkpt lat="40.4901080" lon="-2.7694160">
        <ele>667.6</ele>
        <time>2019-07-07T08:40:47Z</time>
      </trkpt>
      <trkpt lat="40.4901090" lon="-2.7696450">
        <ele>667.8</ele>
        <time>2019-07-07T08:40:50Z</time>
      </trkpt>
      <trkpt lat="40.4901650" lon="-2.7700830">
        <ele>667.6</ele>
        <time>2019-07-07T08:40:56Z</time>
      </trkpt>
      <trkpt lat="40.4902250" lon="-2.7707310">
        <ele>668.4</ele>
        <time>2019-07-07T08:41:05Z</time>
      </trkpt>
      <trkpt lat="40.4902930" lon="-2.7712300">
        <ele>668.8</ele>
        <time>2019-07-07T08:41:12Z</time>
      </trkpt>
      <trkpt lat="40.4903600" lon="-2.7716640">
        <ele>668.6</ele>
        <time>2019-07-07T08:41:18Z</time>
      </trkpt>
      <trkpt lat="40.4904040" lon="-2.7718770">
        <ele>668.6</ele>
        <time>2019-07-07T08:41:21Z</time>
      </trkpt>
      <trkpt lat="40.4904350" lon="-2.7720110">
        <ele>669.0</ele>
        <time>2019-07-07T08:41:23Z</time>
      </trkpt>
      <trkpt lat="40.4904940" lon="-2.7722700">
        <ele>669.2</ele>
        <time>2019-07-07T08:41:27Z</time>
      </trkpt>
      <trkpt lat="40.4905420" lon="-2.7724620">
        <ele>669.6</ele>
        <time>2019-07-07T08:41:30Z</time>
      </trkpt>
      <trkpt lat="40.4905590" lon="-2.7725250">
        <ele>669.8</ele>
        <time>2019-07-07T08:41:31Z</time>
      </trkpt>
      <trkpt lat="40.4905780" lon="-2.7725850">
        <ele>670.0</ele>
        <time>2019-07-07T08:41:32Z</time>
      </trkpt>
      <trkpt lat="40.4906620" lon="-2.7728940">
        <ele>670.8</ele>
        <time>2019-07-07T08:41:37Z</time>
      </trkpt>
      <trkpt lat="40.4907090" lon="-2.7730860">
        <ele>670.8</ele>
        <time>2019-07-07T08:41:40Z</time>
      </trkpt>
      <trkpt lat="40.4908320" lon="-2.7735420">
        <ele>671.0</ele>
        <time>2019-07-07T08:41:47Z</time>
      </trkpt>
      <trkpt lat="40.4908520" lon="-2.7736050">
        <ele>671.2</ele>
        <time>2019-07-07T08:41:48Z</time>
      </trkpt>
      <trkpt lat="40.4909480" lon="-2.7738480">
        <ele>671.2</ele>
        <time>2019-07-07T08:41:52Z</time>
      </trkpt>
      <trkpt lat="40.4910170" lon="-2.7739530">
        <ele>671.0</ele>
        <time>2019-07-07T08:41:54Z</time>
      </trkpt>
      <trkpt lat="40.4912590" lon="-2.7742010">
        <ele>671.8</ele>
        <time>2019-07-07T08:42:00Z</time>
      </trkpt>
      <trkpt lat="40.4915190" lon="-2.7743760">
        <ele>672.0</ele>
        <time>2019-07-07T08:42:06Z</time>
      </trkpt>
      <trkpt lat="40.4916400" lon="-2.7745590">
        <ele>672.2</ele>
        <time>2019-07-07T08:42:10Z</time>
      </trkpt>
      <trkpt lat="40.4916800" lon="-2.7748390">
        <ele>672.0</ele>
        <time>2019-07-07T08:42:14Z</time>
      </trkpt>
      <trkpt lat="40.4916980" lon="-2.7750860">
        <ele>671.6</ele>
        <time>2019-07-07T08:42:17Z</time>
      </trkpt>
      <trkpt lat="40.4917050" lon="-2.7751730">
        <ele>671.2</ele>
        <time>2019-07-07T08:42:18Z</time>
      </trkpt>
      <trkpt lat="40.4917220" lon="-2.7753450">
        <ele>670.4</ele>
        <time>2019-07-07T08:42:20Z</time>
      </trkpt>
      <trkpt lat="40.4917270" lon="-2.7754250">
        <ele>670.0</ele>
        <time>2019-07-07T08:42:21Z</time>
      </trkpt>
      <trkpt lat="40.4917370" lon="-2.7755590">
        <ele>669.4</ele>
        <time>2019-07-07T08:42:23Z</time>
      </trkpt>
      <trkpt lat="40.4917350" lon="-2.7756150">
        <ele>669.0</ele>
        <time>2019-07-07T08:42:24Z</time>
      </trkpt>
      <trkpt lat="40.4917290" lon="-2.7756700">
        <ele>668.8</ele>
        <time>2019-07-07T08:42:25Z</time>
      </trkpt>
      <trkpt lat="40.4916280" lon="-2.7759850">
        <ele>667.8</ele>
        <time>2019-07-07T08:42:30Z</time>
      </trkpt>
      <trkpt lat="40.4915550" lon="-2.7761160">
        <ele>667.6</ele>
        <time>2019-07-07T08:42:32Z</time>
      </trkpt>
      <trkpt lat="40.4914130" lon="-2.7764000">
        <ele>667.0</ele>
        <time>2019-07-07T08:42:36Z</time>
      </trkpt>
      <trkpt lat="40.4913790" lon="-2.7764740">
        <ele>667.0</ele>
        <time>2019-07-07T08:42:37Z</time>
      </trkpt>
      <trkpt lat="40.4910500" lon="-2.7771130">
        <ele>666.6</ele>
        <time>2019-07-07T08:42:46Z</time>
      </trkpt>
      <trkpt lat="40.4907560" lon="-2.7775510">
        <ele>666.6</ele>
        <time>2019-07-07T08:42:53Z</time>
      </trkpt>
      <trkpt lat="40.4906730" lon="-2.7776680">
        <ele>666.6</ele>
        <time>2019-07-07T08:42:55Z</time>
      </trkpt>
      <trkpt lat="40.4904480" lon="-2.7779230">
        <ele>667.0</ele>
        <time>2019-07-07T08:43:00Z</time>
      </trkpt>
      <trkpt lat="40.4903530" lon="-2.7780210">
        <ele>667.0</ele>
        <time>2019-07-07T08:43:02Z</time>
      </trkpt>
      <trkpt lat="40.4901620" lon="-2.7782040">
        <ele>667.2</ele>
        <time>2019-07-07T08:43:06Z</time>
      </trkpt>
      <trkpt lat="40.4899660" lon="-2.7783660">
        <ele>667.4</ele>
        <time>2019-07-07T08:43:10Z</time>
      </trkpt>
      <trkpt lat="40.4896190" lon="-2.7786420">
        <ele>667.6</ele>
        <time>2019-07-07T08:43:17Z</time>
      </trkpt>
      <trkpt lat="40.4892290" lon="-2.7789860">
        <ele>667.8</ele>
        <time>2019-07-07T08:43:25Z</time>
      </trkpt>
      <trkpt lat="40.4891820" lon="-2.7790330">
        <ele>667.8</ele>
        <time>2019-07-07T08:43:26Z</time>
      </trkpt>
      <trkpt lat="40.4890490" lon="-2.7791820">
        <ele>668.2</ele>
        <time>2019-07-07T08:43:29Z</time>
      </trkpt>
      <trkpt lat="40.4888320" lon="-2.7794460">
        <ele>668.4</ele>
        <time>2019-07-07T08:43:34Z</time>
      </trkpt>
      <trkpt lat="40.4884500" lon="-2.7799460">
        <ele>668.6</ele>
        <time>2019-07-07T08:43:43Z</time>
      </trkpt>
      <trkpt lat="40.4880190" lon="-2.7804810">
        <ele>668.8</ele>
        <time>2019-07-07T08:43:53Z</time>
      </trkpt>
      <trkpt lat="40.4879330" lon="-2.7805840">
        <ele>669.0</ele>
        <time>2019-07-07T08:43:55Z</time>
      </trkpt>
      <trkpt lat="40.4877500" lon="-2.7807790">
        <ele>669.4</ele>
        <time>2019-07-07T08:43:59Z</time>
      </trkpt>
      <trkpt lat="40.4875070" lon="-2.7810050">
        <ele>669.4</ele>
        <time>2019-07-07T08:44:04Z</time>
      </trkpt>
      <trkpt lat="40.4870190" lon="-2.7813710">
        <ele>669.2</ele>
        <time>2019-07-07T08:44:13Z</time>
      </trkpt>
      <trkpt lat="40.4869620" lon="-2.7814100">
        <ele>669.2</ele>
        <time>2019-07-07T08:44:14Z</time>
      </trkpt>
      <trkpt lat="40.4865510" lon="-2.7816750">
        <ele>668.6</ele>
        <time>2019-07-07T08:44:21Z</time>
      </trkpt>
      <trkpt lat="40.4863120" lon="-2.7818270">
        <ele>668.2</ele>
        <time>2019-07-07T08:44:25Z</time>
      </trkpt>
      <trkpt lat="40.4859510" lon="-2.7820570">
        <ele>667.6</ele>
        <time>2019-07-07T08:44:31Z</time>
      </trkpt>
      <trkpt lat="40.4857040" lon="-2.7822040">
        <ele>667.2</ele>
        <time>2019-07-07T08:44:35Z</time>
      </trkpt>
      <trkpt lat="40.4856420" lon="-2.7822420">
        <ele>667.0</ele>
        <time>2019-07-07T08:44:36Z</time>
      </trkpt>
      <trkpt lat="40.4851440" lon="-2.7825560">
        <ele>666.6</ele>
        <time>2019-07-07T08:44:44Z</time>
      </trkpt>
      <trkpt lat="40.4850830" lon="-2.7825950">
        <ele>666.4</ele>
        <time>2019-07-07T08:44:45Z</time>
      </trkpt>
      <trkpt lat="40.4847680" lon="-2.7827880">
        <ele>666.4</ele>
        <time>2019-07-07T08:44:50Z</time>
      </trkpt>
      <trkpt lat="40.4846400" lon="-2.7828650">
        <ele>666.0</ele>
        <time>2019-07-07T08:44:52Z</time>
      </trkpt>
      <trkpt lat="40.4843140" lon="-2.7830640">
        <ele>665.4</ele>
        <time>2019-07-07T08:44:57Z</time>
      </trkpt>
      <trkpt lat="40.4841880" lon="-2.7831460">
        <ele>665.2</ele>
        <time>2019-07-07T08:44:59Z</time>
      </trkpt>
      <trkpt lat="40.4839390" lon="-2.7833050">
        <ele>665.2</ele>
        <time>2019-07-07T08:45:03Z</time>
      </trkpt>
      <trkpt lat="40.4837550" lon="-2.7834170">
        <ele>665.2</ele>
        <time>2019-07-07T08:45:06Z</time>
      </trkpt>
      <trkpt lat="40.4833510" lon="-2.7836810">
        <ele>665.0</ele>
        <time>2019-07-07T08:45:13Z</time>
      </trkpt>
      <trkpt lat="40.4830170" lon="-2.7839040">
        <ele>665.0</ele>
        <time>2019-07-07T08:45:19Z</time>
      </trkpt>
      <trkpt lat="40.4828990" lon="-2.7839690">
        <ele>665.0</ele>
        <time>2019-07-07T08:45:21Z</time>
      </trkpt>
      <trkpt lat="40.4823390" lon="-2.7841590">
        <ele>665.2</ele>
        <time>2019-07-07T08:45:30Z</time>
      </trkpt>
      <trkpt lat="40.4818300" lon="-2.7842090">
        <ele>665.2</ele>
        <time>2019-07-07T08:45:38Z</time>
      </trkpt>
      <trkpt lat="40.4814560" lon="-2.7842310">
        <ele>665.0</ele>
        <time>2019-07-07T08:45:44Z</time>
      </trkpt>
      <trkpt lat="40.4810360" lon="-2.7842580">
        <ele>665.4</ele>
        <time>2019-07-07T08:45:51Z</time>
      </trkpt>
      <trkpt lat="40.4805730" lon="-2.7842810">
        <ele>665.8</ele>
        <time>2019-07-07T08:45:59Z</time>
      </trkpt>
      <trkpt lat="40.4802880" lon="-2.7843070">
        <ele>666.4</ele>
        <time>2019-07-07T08:46:04Z</time>
      </trkpt>
      <trkpt lat="40.4801760" lon="-2.7843180">
        <ele>666.6</ele>
        <time>2019-07-07T08:46:06Z</time>
      </trkpt>
      <trkpt lat="40.4800080" lon="-2.7843360">
        <ele>666.8</ele>
        <time>2019-07-07T08:46:09Z</time>
      </trkpt>
      <trkpt lat="40.4797830" lon="-2.7843510">
        <ele>667.0</ele>
        <time>2019-07-07T08:46:13Z</time>
      </trkpt>
      <trkpt lat="40.4793190" lon="-2.7843850">
        <ele>667.0</ele>
        <time>2019-07-07T08:46:21Z</time>
      </trkpt>
      <trkpt lat="40.4787250" lon="-2.7844170">
        <ele>667.0</ele>
        <time>2019-07-07T08:46:31Z</time>
      </trkpt>
      <trkpt lat="40.4782450" lon="-2.7844480">
        <ele>666.8</ele>
        <time>2019-07-07T08:46:39Z</time>
      </trkpt>
      <trkpt lat="40.4776950" lon="-2.7844850">
        <ele>667.4</ele>
        <time>2019-07-07T08:46:48Z</time>
      </trkpt>
      <trkpt lat="40.4771120" lon="-2.7845250">
        <ele>667.8</ele>
        <time>2019-07-07T08:46:58Z</time>
      </trkpt>
      <trkpt lat="40.4770560" lon="-2.7845290">
        <ele>667.8</ele>
        <time>2019-07-07T08:46:59Z</time>
      </trkpt>
      <trkpt lat="40.4769420" lon="-2.7845320">
        <ele>668.2</ele>
        <time>2019-07-07T08:47:01Z</time>
      </trkpt>
      <trkpt lat="40.4766520" lon="-2.7845150">
        <ele>668.6</ele>
        <time>2019-07-07T08:47:06Z</time>
      </trkpt>
      <trkpt lat="40.4762070" lon="-2.7844130">
        <ele>668.8</ele>
        <time>2019-07-07T08:47:14Z</time>
      </trkpt>
      <trkpt lat="40.4761550" lon="-2.7843940">
        <ele>668.8</ele>
        <time>2019-07-07T08:47:15Z</time>
      </trkpt>
      <trkpt lat="40.4760050" lon="-2.7843210">
        <ele>669.2</ele>
        <time>2019-07-07T08:47:18Z</time>
      </trkpt>
      <trkpt lat="40.4758100" lon="-2.7842140">
        <ele>669.4</ele>
        <time>2019-07-07T08:47:22Z</time>
      </trkpt>
      <trkpt lat="40.4755850" lon="-2.7840510">
        <ele>670.2</ele>
        <time>2019-07-07T08:47:27Z</time>
      </trkpt>
      <trkpt lat="40.4754990" lon="-2.7839810">
        <ele>670.4</ele>
        <time>2019-07-07T08:47:29Z</time>
      </trkpt>
      <trkpt lat="40.4752050" lon="-2.7837400">
        <ele>671.2</ele>
        <time>2019-07-07T08:47:36Z</time>
      </trkpt>
      <trkpt lat="40.4751650" lon="-2.7837040">
        <ele>671.4</ele>
        <time>2019-07-07T08:47:37Z</time>
      </trkpt>
      <trkpt lat="40.4749620" lon="-2.7835260">
        <ele>672.4</ele>
        <time>2019-07-07T08:47:42Z</time>
      </trkpt>
      <trkpt lat="40.4748010" lon="-2.7833930">
        <ele>673.2</ele>
        <time>2019-07-07T08:47:46Z</time>
      </trkpt>
      <trkpt lat="40.4747250" lon="-2.7833280">
        <ele>673.6</ele>
        <time>2019-07-07T08:47:48Z</time>
      </trkpt>
      <trkpt lat="40.4745440" lon="-2.7831620">
        <ele>674.2</ele>
        <time>2019-07-07T08:47:53Z</time>
      </trkpt>
      <trkpt lat="40.4744720" lon="-2.7830980">
        <ele>674.6</ele>
        <time>2019-07-07T08:47:55Z</time>
      </trkpt>
      <trkpt lat="40.4743270" lon="-2.7829770">
        <ele>675.4</ele>
        <time>2019-07-07T08:47:59Z</time>
      </trkpt>
      <trkpt lat="40.4742910" lon="-2.7829460">
        <ele>675.8</ele>
        <time>2019-07-07T08:48:00Z</time>
      </trkpt>
      <trkpt lat="40.4742540" lon="-2.7829150">
        <ele>676.0</ele>
        <time>2019-07-07T08:48:01Z</time>
      </trkpt>
      <trkpt lat="40.4740750" lon="-2.7827560">
        <ele>676.8</ele>
        <time>2019-07-07T08:48:06Z</time>
      </trkpt>
      <trkpt lat="40.4739630" lon="-2.7826620">
        <ele>677.4</ele>
        <time>2019-07-07T08:48:09Z</time>
      </trkpt>
      <trkpt lat="40.4738880" lon="-2.7826030">
        <ele>677.8</ele>
        <time>2019-07-07T08:48:11Z</time>
      </trkpt>
      <trkpt lat="40.4736300" lon="-2.7823890">
        <ele>678.6</ele>
        <time>2019-07-07T08:48:18Z</time>
      </trkpt>
      <trkpt lat="40.4735920" lon="-2.7823610">
        <ele>678.8</ele>
        <time>2019-07-07T08:48:19Z</time>
      </trkpt>
      <trkpt lat="40.4733180" lon="-2.7821790">
        <ele>679.8</ele>
        <time>2019-07-07T08:48:26Z</time>
      </trkpt>
      <trkpt lat="40.4729160" lon="-2.7819970">
        <ele>681.0</ele>
        <time>2019-07-07T08:48:35Z</time>
      </trkpt>
      <trkpt lat="40.4725680" lon="-2.7819160">
        <ele>681.0</ele>
        <time>2019-07-07T08:48:42Z</time>
      </trkpt>
      <trkpt lat="40.4725180" lon="-2.7819140">
        <ele>681.0</ele>
        <time>2019-07-07T08:48:43Z</time>
      </trkpt>
      <trkpt lat="40.4722350" lon="-2.7818970">
        <ele>680.8</ele>
        <time>2019-07-07T08:48:48Z</time>
      </trkpt>
      <trkpt lat="40.4721760" lon="-2.7818960">
        <ele>680.6</ele>
        <time>2019-07-07T08:48:49Z</time>
      </trkpt>
      <trkpt lat="40.4719950" lon="-2.7819060">
        <ele>680.0</ele>
        <time>2019-07-07T08:48:52Z</time>
      </trkpt>
      <trkpt lat="40.4718710" lon="-2.7819230">
        <ele>679.6</ele>
        <time>2019-07-07T08:48:54Z</time>
      </trkpt>
      <trkpt lat="40.4717420" lon="-2.7819520">
        <ele>679.2</ele>
        <time>2019-07-07T08:48:56Z</time>
      </trkpt>
      <trkpt lat="40.4716740" lon="-2.7819720">
        <ele>678.8</ele>
        <time>2019-07-07T08:48:57Z</time>
      </trkpt>
      <trkpt lat="40.4714600" lon="-2.7820500">
        <ele>677.8</ele>
        <time>2019-07-07T08:49:00Z</time>
      </trkpt>
      <trkpt lat="40.4713860" lon="-2.7820840">
        <ele>677.4</ele>
        <time>2019-07-07T08:49:01Z</time>
      </trkpt>
      <trkpt lat="40.4713120" lon="-2.7821250">
        <ele>677.0</ele>
        <time>2019-07-07T08:49:02Z</time>
      </trkpt>
      <trkpt lat="40.4711580" lon="-2.7822160">
        <ele>676.4</ele>
        <time>2019-07-07T08:49:04Z</time>
      </trkpt>
      <trkpt lat="40.4710020" lon="-2.7823190">
        <ele>675.6</ele>
        <time>2019-07-07T08:49:06Z</time>
      </trkpt>
      <trkpt lat="40.4709240" lon="-2.7823770">
        <ele>675.2</ele>
        <time>2019-07-07T08:49:07Z</time>
      </trkpt>
      <trkpt lat="40.4708440" lon="-2.7824370">
        <ele>674.6</ele>
        <time>2019-07-07T08:49:08Z</time>
      </trkpt>
      <trkpt lat="40.4707650" lon="-2.7825010">
        <ele>674.2</ele>
        <time>2019-07-07T08:49:09Z</time>
      </trkpt>
      <trkpt lat="40.4706100" lon="-2.7826460">
        <ele>673.0</ele>
        <time>2019-07-07T08:49:11Z</time>
      </trkpt>
      <trkpt lat="40.4704600" lon="-2.7828080">
        <ele>672.2</ele>
        <time>2019-07-07T08:49:13Z</time>
      </trkpt>
      <trkpt lat="40.4703880" lon="-2.7828950">
        <ele>671.8</ele>
        <time>2019-07-07T08:49:14Z</time>
      </trkpt>
      <trkpt lat="40.4702490" lon="-2.7830790">
        <ele>670.6</ele>
        <time>2019-07-07T08:49:16Z</time>
      </trkpt>
      <trkpt lat="40.4701200" lon="-2.7832690">
        <ele>669.6</ele>
        <time>2019-07-07T08:49:18Z</time>
      </trkpt>
      <trkpt lat="40.4700620" lon="-2.7833690">
        <ele>669.4</ele>
        <time>2019-07-07T08:49:19Z</time>
      </trkpt>
      <trkpt lat="40.4700080" lon="-2.7834720">
        <ele>669.2</ele>
        <time>2019-07-07T08:49:20Z</time>
      </trkpt>
      <trkpt lat="40.4698510" lon="-2.7837760">
        <ele>668.4</ele>
        <time>2019-07-07T08:49:23Z</time>
      </trkpt>
      <trkpt lat="40.4697020" lon="-2.7840640">
        <ele>667.8</ele>
        <time>2019-07-07T08:49:26Z</time>
      </trkpt>
      <trkpt lat="40.4694720" lon="-2.7845040">
        <ele>667.2</ele>
        <time>2019-07-07T08:49:31Z</time>
      </trkpt>
      <trkpt lat="40.4694280" lon="-2.7845860">
        <ele>667.2</ele>
        <time>2019-07-07T08:49:32Z</time>
      </trkpt>
      <trkpt lat="40.4692580" lon="-2.7849060">
        <ele>667.2</ele>
        <time>2019-07-07T08:49:36Z</time>
      </trkpt>
      <trkpt lat="40.4690900" lon="-2.7852070">
        <ele>667.0</ele>
        <time>2019-07-07T08:49:40Z</time>
      </trkpt>
      <trkpt lat="40.4689000" lon="-2.7855690">
        <ele>667.4</ele>
        <time>2019-07-07T08:49:45Z</time>
      </trkpt>
      <trkpt lat="40.4687860" lon="-2.7857730">
        <ele>667.6</ele>
        <time>2019-07-07T08:49:48Z</time>
      </trkpt>
      <trkpt lat="40.4687120" lon="-2.7859080">
        <ele>667.6</ele>
        <time>2019-07-07T08:49:50Z</time>
      </trkpt>
      <trkpt lat="40.4685680" lon="-2.7861790">
        <ele>668.0</ele>
        <time>2019-07-07T08:49:54Z</time>
      </trkpt>
      <trkpt lat="40.4684600" lon="-2.7863760">
        <ele>668.2</ele>
        <time>2019-07-07T08:49:57Z</time>
      </trkpt>
      <trkpt lat="40.4682870" lon="-2.7866970">
        <ele>668.6</ele>
        <time>2019-07-07T08:50:02Z</time>
      </trkpt>
      <trkpt lat="40.4682210" lon="-2.7868200">
        <ele>669.0</ele>
        <time>2019-07-07T08:50:04Z</time>
      </trkpt>
      <trkpt lat="40.4679900" lon="-2.7872450">
        <ele>669.4</ele>
        <time>2019-07-07T08:50:11Z</time>
      </trkpt>
      <trkpt lat="40.4679560" lon="-2.7873050">
        <ele>669.6</ele>
        <time>2019-07-07T08:50:12Z</time>
      </trkpt>
      <trkpt lat="40.4679230" lon="-2.7873650">
        <ele>669.6</ele>
        <time>2019-07-07T08:50:13Z</time>
      </trkpt>
      <trkpt lat="40.4676020" lon="-2.7878110">
        <ele>670.0</ele>
        <time>2019-07-07T08:50:21Z</time>
      </trkpt>
      <trkpt lat="40.4671810" lon="-2.7882270">
        <ele>669.4</ele>
        <time>2019-07-07T08:50:29Z</time>
      </trkpt>
      <trkpt lat="40.4667130" lon="-2.7886410">
        <ele>668.6</ele>
        <time>2019-07-07T08:50:37Z</time>
      </trkpt>
      <trkpt lat="40.4666570" lon="-2.7886930">
        <ele>668.6</ele>
        <time>2019-07-07T08:50:38Z</time>
      </trkpt>
      <trkpt lat="40.4666000" lon="-2.7887440">
        <ele>668.4</ele>
        <time>2019-07-07T08:50:39Z</time>
      </trkpt>
      <trkpt lat="40.4661500" lon="-2.7891460">
        <ele>668.2</ele>
        <time>2019-07-07T08:50:47Z</time>
      </trkpt>
      <trkpt lat="40.4659240" lon="-2.7893340">
        <ele>668.2</ele>
        <time>2019-07-07T08:50:51Z</time>
      </trkpt>
      <trkpt lat="40.4657590" lon="-2.7894790">
        <ele>668.2</ele>
        <time>2019-07-07T08:50:54Z</time>
      </trkpt>
      <trkpt lat="40.4653850" lon="-2.7898120">
        <ele>668.2</ele>
        <time>2019-07-07T08:51:01Z</time>
      </trkpt>
      <trkpt lat="40.4649430" lon="-2.7902040">
        <ele>669.2</ele>
        <time>2019-07-07T08:51:10Z</time>
      </trkpt>
      <trkpt lat="40.4647450" lon="-2.7903730">
        <ele>669.4</ele>
        <time>2019-07-07T08:51:14Z</time>
      </trkpt>
      <trkpt lat="40.4645540" lon="-2.7905450">
        <ele>669.8</ele>
        <time>2019-07-07T08:51:18Z</time>
      </trkpt>
      <trkpt lat="40.4642800" lon="-2.7908060">
        <ele>670.0</ele>
        <time>2019-07-07T08:51:24Z</time>
      </trkpt>
      <trkpt lat="40.4639150" lon="-2.7910780">
        <ele>670.0</ele>
        <time>2019-07-07T08:51:31Z</time>
      </trkpt>
      <trkpt lat="40.4635620" lon="-2.7912590">
        <ele>670.0</ele>
        <time>2019-07-07T08:51:37Z</time>
      </trkpt>
      <trkpt lat="40.4630830" lon="-2.7914040">
        <ele>670.4</ele>
        <time>2019-07-07T08:51:45Z</time>
      </trkpt>
      <trkpt lat="40.4625450" lon="-2.7914130">
        <ele>670.8</ele>
        <time>2019-07-07T08:51:54Z</time>
      </trkpt>
      <trkpt lat="40.4620460" lon="-2.7913010">
        <ele>670.8</ele>
        <time>2019-07-07T08:52:02Z</time>
      </trkpt>
      <trkpt lat="40.4615300" lon="-2.7911350">
        <ele>670.6</ele>
        <time>2019-07-07T08:52:10Z</time>
      </trkpt>
      <trkpt lat="40.4610540" lon="-2.7909860">
        <ele>670.4</ele>
        <time>2019-07-07T08:52:17Z</time>
      </trkpt>
      <trkpt lat="40.4606210" lon="-2.7908540">
        <ele>669.8</ele>
        <time>2019-07-07T08:52:23Z</time>
      </trkpt>
      <trkpt lat="40.4604750" lon="-2.7908070">
        <ele>669.4</ele>
        <time>2019-07-07T08:52:25Z</time>
      </trkpt>
      <trkpt lat="40.4599670" lon="-2.7906430">
        <ele>669.0</ele>
        <time>2019-07-07T08:52:32Z</time>
      </trkpt>
      <trkpt lat="40.4598950" lon="-2.7906210">
        <ele>668.8</ele>
        <time>2019-07-07T08:52:33Z</time>
      </trkpt>
      <trkpt lat="40.4596780" lon="-2.7905520">
        <ele>668.6</ele>
        <time>2019-07-07T08:52:36Z</time>
      </trkpt>
      <trkpt lat="40.4591210" lon="-2.7903810">
        <ele>668.2</ele>
        <time>2019-07-07T08:52:44Z</time>
      </trkpt>
      <trkpt lat="40.4585780" lon="-2.7902200">
        <ele>668.2</ele>
        <time>2019-07-07T08:52:52Z</time>
      </trkpt>
      <trkpt lat="40.4580530" lon="-2.7900670">
        <ele>668.0</ele>
        <time>2019-07-07T08:53:00Z</time>
      </trkpt>
      <trkpt lat="40.4574930" lon="-2.7898410">
        <ele>668.2</ele>
        <time>2019-07-07T08:53:09Z</time>
      </trkpt>
      <trkpt lat="40.4569970" lon="-2.7895070">
        <ele>668.2</ele>
        <time>2019-07-07T08:53:17Z</time>
      </trkpt>
      <trkpt lat="40.4568790" lon="-2.7894140">
        <ele>668.0</ele>
        <time>2019-07-07T08:53:19Z</time>
      </trkpt>
      <trkpt lat="40.4565500" lon="-2.7891500">
        <ele>668.0</ele>
        <time>2019-07-07T08:53:25Z</time>
      </trkpt>
      <trkpt lat="40.4560700" lon="-2.7888300">
        <ele>668.4</ele>
        <time>2019-07-07T08:53:34Z</time>
      </trkpt>
      <trkpt lat="40.4556140" lon="-2.7886820">
        <ele>668.6</ele>
        <time>2019-07-07T08:53:42Z</time>
      </trkpt>
      <trkpt lat="40.4551890" lon="-2.7886480">
        <ele>668.8</ele>
        <time>2019-07-07T08:53:49Z</time>
      </trkpt>
      <trkpt lat="40.4549990" lon="-2.7886740">
        <ele>668.6</ele>
        <time>2019-07-07T08:53:52Z</time>
      </trkpt>
      <trkpt lat="40.4546860" lon="-2.7887640">
        <ele>668.8</ele>
        <time>2019-07-07T08:53:57Z</time>
      </trkpt>
      <trkpt lat="40.4544510" lon="-2.7888680">
        <ele>669.0</ele>
        <time>2019-07-07T08:54:01Z</time>
      </trkpt>
      <trkpt lat="40.4542280" lon="-2.7890000">
        <ele>669.6</ele>
        <time>2019-07-07T08:54:05Z</time>
      </trkpt>
      <trkpt lat="40.4539060" lon="-2.7892160">
        <ele>670.0</ele>
        <time>2019-07-07T08:54:11Z</time>
      </trkpt>
      <trkpt lat="40.4537530" lon="-2.7893210">
        <ele>670.2</ele>
        <time>2019-07-07T08:54:14Z</time>
      </trkpt>
      <trkpt lat="40.4533360" lon="-2.7895970">
        <ele>671.2</ele>
        <time>2019-07-07T08:54:22Z</time>
      </trkpt>
      <trkpt lat="40.4530820" lon="-2.7897900">
        <ele>671.6</ele>
        <time>2019-07-07T08:54:27Z</time>
      </trkpt>
      <trkpt lat="40.4528730" lon="-2.7899360">
        <ele>671.8</ele>
        <time>2019-07-07T08:54:31Z</time>
      </trkpt>
      <trkpt lat="40.4526590" lon="-2.7900760">
        <ele>671.8</ele>
        <time>2019-07-07T08:54:35Z</time>
      </trkpt>
      <trkpt lat="40.4524460" lon="-2.7902250">
        <ele>672.2</ele>
        <time>2019-07-07T08:54:39Z</time>
      </trkpt>
      <trkpt lat="40.4523920" lon="-2.7902640">
        <ele>672.4</ele>
        <time>2019-07-07T08:54:40Z</time>
      </trkpt>
      <trkpt lat="40.4519660" lon="-2.7905660">
        <ele>673.2</ele>
        <time>2019-07-07T08:54:48Z</time>
      </trkpt>
      <trkpt lat="40.4519160" lon="-2.7906050">
        <ele>673.4</ele>
        <time>2019-07-07T08:54:49Z</time>
      </trkpt>
      <trkpt lat="40.4516360" lon="-2.7908590">
        <ele>674.6</ele>
        <time>2019-07-07T08:54:55Z</time>
      </trkpt>
      <trkpt lat="40.4515890" lon="-2.7909020">
        <ele>674.8</ele>
        <time>2019-07-07T08:54:56Z</time>
      </trkpt>
      <trkpt lat="40.4514050" lon="-2.7910670">
        <ele>676.0</ele>
        <time>2019-07-07T08:55:00Z</time>
      </trkpt>
      <trkpt lat="40.4512320" lon="-2.7912280">
        <ele>677.2</ele>
        <time>2019-07-07T08:55:04Z</time>
      </trkpt>
      <trkpt lat="40.4511900" lon="-2.7912670">
        <ele>677.4</ele>
        <time>2019-07-07T08:55:05Z</time>
      </trkpt>
      <trkpt lat="40.4510670" lon="-2.7913940">
        <ele>678.2</ele>
        <time>2019-07-07T08:55:08Z</time>
      </trkpt>
      <trkpt lat="40.4509000" lon="-2.7915850">
        <ele>679.2</ele>
        <time>2019-07-07T08:55:12Z</time>
      </trkpt>
      <trkpt lat="40.4508570" lon="-2.7916340">
        <ele>679.4</ele>
        <time>2019-07-07T08:55:13Z</time>
      </trkpt>
      <trkpt lat="40.4506860" lon="-2.7918300">
        <ele>680.6</ele>
        <time>2019-07-07T08:55:17Z</time>
      </trkpt>
      <trkpt lat="40.4505230" lon="-2.7920300">
        <ele>681.0</ele>
        <time>2019-07-07T08:55:21Z</time>
      </trkpt>
      <trkpt lat="40.4503610" lon="-2.7922380">
        <ele>681.6</ele>
        <time>2019-07-07T08:55:25Z</time>
      </trkpt>
      <trkpt lat="40.4502010" lon="-2.7924520">
        <ele>681.8</ele>
        <time>2019-07-07T08:55:29Z</time>
      </trkpt>
      <trkpt lat="40.4498750" lon="-2.7929410">
        <ele>682.0</ele>
        <time>2019-07-07T08:55:37Z</time>
      </trkpt>
      <trkpt lat="40.4496160" lon="-2.7933670">
        <ele>681.4</ele>
        <time>2019-07-07T08:55:43Z</time>
      </trkpt>
      <trkpt lat="40.4495310" lon="-2.7935180">
        <ele>681.2</ele>
        <time>2019-07-07T08:55:45Z</time>
      </trkpt>
      <trkpt lat="40.4494890" lon="-2.7935940">
        <ele>681.2</ele>
        <time>2019-07-07T08:55:46Z</time>
      </trkpt>
      <trkpt lat="40.4494020" lon="-2.7937470">
        <ele>681.0</ele>
        <time>2019-07-07T08:55:48Z</time>
      </trkpt>
      <trkpt lat="40.4492650" lon="-2.7939770">
        <ele>680.8</ele>
        <time>2019-07-07T08:55:51Z</time>
      </trkpt>
      <trkpt lat="40.4492220" lon="-2.7940580">
        <ele>680.6</ele>
        <time>2019-07-07T08:55:52Z</time>
      </trkpt>
      <trkpt lat="40.4491360" lon="-2.7942200">
        <ele>680.6</ele>
        <time>2019-07-07T08:55:54Z</time>
      </trkpt>
      <trkpt lat="40.4490460" lon="-2.7943790">
        <ele>680.6</ele>
        <time>2019-07-07T08:55:56Z</time>
      </trkpt>
      <trkpt lat="40.4489130" lon="-2.7946100">
        <ele>680.8</ele>
        <time>2019-07-07T08:55:59Z</time>
      </trkpt>
      <trkpt lat="40.4487020" lon="-2.7949840">
        <ele>681.0</ele>
        <time>2019-07-07T08:56:04Z</time>
      </trkpt>
      <trkpt lat="40.4485810" lon="-2.7952000">
        <ele>681.2</ele>
        <time>2019-07-07T08:56:07Z</time>
      </trkpt>
      <trkpt lat="40.4484290" lon="-2.7954750">
        <ele>681.6</ele>
        <time>2019-07-07T08:56:11Z</time>
      </trkpt>
      <trkpt lat="40.4483140" lon="-2.7956800">
        <ele>682.0</ele>
        <time>2019-07-07T08:56:14Z</time>
      </trkpt>
      <trkpt lat="40.4480850" lon="-2.7960850">
        <ele>682.8</ele>
        <time>2019-07-07T08:56:20Z</time>
      </trkpt>
      <trkpt lat="40.4479750" lon="-2.7962800">
        <ele>683.4</ele>
        <time>2019-07-07T08:56:23Z</time>
      </trkpt>
      <trkpt lat="40.4477610" lon="-2.7966550">
        <ele>684.0</ele>
        <time>2019-07-07T08:56:29Z</time>
      </trkpt>
      <trkpt lat="40.4477240" lon="-2.7967130">
        <ele>684.2</ele>
        <time>2019-07-07T08:56:30Z</time>
      </trkpt>
      <trkpt lat="40.4476130" lon="-2.7968900">
        <ele>685.0</ele>
        <time>2019-07-07T08:56:33Z</time>
      </trkpt>
      <trkpt lat="40.4474180" lon="-2.7971730">
        <ele>686.2</ele>
        <time>2019-07-07T08:56:38Z</time>
      </trkpt>
      <trkpt lat="40.4473750" lon="-2.7972250">
        <ele>686.2</ele>
        <time>2019-07-07T08:56:39Z</time>
      </trkpt>
      <trkpt lat="40.4472390" lon="-2.7973690">
        <ele>686.6</ele>
        <time>2019-07-07T08:56:42Z</time>
      </trkpt>
      <trkpt lat="40.4470960" lon="-2.7974950">
        <ele>687.4</ele>
        <time>2019-07-07T08:56:45Z</time>
      </trkpt>
      <trkpt lat="40.4467740" lon="-2.7977750">
        <ele>688.4</ele>
        <time>2019-07-07T08:56:52Z</time>
      </trkpt>
      <trkpt lat="40.4467260" lon="-2.7978150">
        <ele>688.4</ele>
        <time>2019-07-07T08:56:53Z</time>
      </trkpt>
      <trkpt lat="40.4462720" lon="-2.7981720">
        <ele>689.2</ele>
        <time>2019-07-07T08:57:02Z</time>
      </trkpt>
      <trkpt lat="40.4458980" lon="-2.7984850">
        <ele>689.2</ele>
        <time>2019-07-07T08:57:09Z</time>
      </trkpt>
      <trkpt lat="40.4455100" lon="-2.7987950">
        <ele>689.0</ele>
        <time>2019-07-07T08:57:16Z</time>
      </trkpt>
      <trkpt lat="40.4453540" lon="-2.7989270">
        <ele>689.6</ele>
        <time>2019-07-07T08:57:19Z</time>
      </trkpt>
      <trkpt lat="40.4451550" lon="-2.7990850">
        <ele>690.0</ele>
        <time>2019-07-07T08:57:23Z</time>
      </trkpt>
      <trkpt lat="40.4449120" lon="-2.7992880">
        <ele>690.6</ele>
        <time>2019-07-07T08:57:28Z</time>
      </trkpt>
      <trkpt lat="40.4446650" lon="-2.7994810">
        <ele>691.6</ele>
        <time>2019-07-07T08:57:33Z</time>
      </trkpt>
      <trkpt lat="40.4446160" lon="-2.7995190">
        <ele>691.8</ele>
        <time>2019-07-07T08:57:34Z</time>
      </trkpt>
      <trkpt lat="40.4443390" lon="-2.7997500">
        <ele>692.8</ele>
        <time>2019-07-07T08:57:40Z</time>
      </trkpt>
      <trkpt lat="40.4442490" lon="-2.7998250">
        <ele>693.2</ele>
        <time>2019-07-07T08:57:42Z</time>
      </trkpt>
      <trkpt lat="40.4440760" lon="-2.7999650">
        <ele>694.0</ele>
        <time>2019-07-07T08:57:46Z</time>
      </trkpt>
      <trkpt lat="40.4439050" lon="-2.8000970">
        <ele>695.0</ele>
        <time>2019-07-07T08:57:50Z</time>
      </trkpt>
      <trkpt lat="40.4438640" lon="-2.8001320">
        <ele>695.2</ele>
        <time>2019-07-07T08:57:51Z</time>
      </trkpt>
      <trkpt lat="40.4436940" lon="-2.8002720">
        <ele>696.2</ele>
        <time>2019-07-07T08:57:55Z</time>
      </trkpt>
      <trkpt lat="40.4435170" lon="-2.8004180">
        <ele>697.0</ele>
        <time>2019-07-07T08:57:59Z</time>
      </trkpt>
      <trkpt lat="40.4434260" lon="-2.8004920">
        <ele>697.2</ele>
        <time>2019-07-07T08:58:01Z</time>
      </trkpt>
      <trkpt lat="40.4430560" lon="-2.8007840">
        <ele>697.8</ele>
        <time>2019-07-07T08:58:09Z</time>
      </trkpt>
      <trkpt lat="40.4426870" lon="-2.8010630">
        <ele>698.2</ele>
        <time>2019-07-07T08:58:17Z</time>
      </trkpt>
      <trkpt lat="40.4425970" lon="-2.8011350">
        <ele>698.6</ele>
        <time>2019-07-07T08:58:19Z</time>
      </trkpt>
      <trkpt lat="40.4423260" lon="-2.8013490">
        <ele>699.4</ele>
        <time>2019-07-07T08:58:25Z</time>
      </trkpt>
      <trkpt lat="40.4421980" lon="-2.8014580">
        <ele>700.0</ele>
        <time>2019-07-07T08:58:28Z</time>
      </trkpt>
      <trkpt lat="40.4419800" lon="-2.8016250">
        <ele>700.4</ele>
        <time>2019-07-07T08:58:33Z</time>
      </trkpt>
      <trkpt lat="40.4418060" lon="-2.8017650">
        <ele>701.2</ele>
        <time>2019-07-07T08:58:37Z</time>
      </trkpt>
      <trkpt lat="40.4417630" lon="-2.8017990">
        <ele>701.4</ele>
        <time>2019-07-07T08:58:38Z</time>
      </trkpt>
      <trkpt lat="40.4414670" lon="-2.8020230">
        <ele>702.4</ele>
        <time>2019-07-07T08:58:45Z</time>
      </trkpt>
      <trkpt lat="40.4414260" lon="-2.8020560">
        <ele>702.4</ele>
        <time>2019-07-07T08:58:46Z</time>
      </trkpt>
      <trkpt lat="40.4411460" lon="-2.8022910">
        <ele>703.6</ele>
        <time>2019-07-07T08:58:53Z</time>
      </trkpt>
      <trkpt lat="40.4408240" lon="-2.8025520">
        <ele>704.8</ele>
        <time>2019-07-07T08:59:01Z</time>
      </trkpt>
      <trkpt lat="40.4407410" lon="-2.8026170">
        <ele>705.0</ele>
        <time>2019-07-07T08:59:03Z</time>
      </trkpt>
      <trkpt lat="40.4404880" lon="-2.8028200">
        <ele>705.8</ele>
        <time>2019-07-07T08:59:09Z</time>
      </trkpt>
      <trkpt lat="40.4403680" lon="-2.8029290">
        <ele>706.2</ele>
        <time>2019-07-07T08:59:12Z</time>
      </trkpt>
      <trkpt lat="40.4400860" lon="-2.8031910">
        <ele>707.0</ele>
        <time>2019-07-07T08:59:19Z</time>
      </trkpt>
      <trkpt lat="40.4400090" lon="-2.8032690">
        <ele>707.2</ele>
        <time>2019-07-07T08:59:21Z</time>
      </trkpt>
      <trkpt lat="40.4398210" lon="-2.8034910">
        <ele>708.2</ele>
        <time>2019-07-07T08:59:26Z</time>
      </trkpt>
      <trkpt lat="40.4397020" lon="-2.8036110">
        <ele>708.8</ele>
        <time>2019-07-07T08:59:29Z</time>
      </trkpt>
      <trkpt lat="40.4395500" lon="-2.8037750">
        <ele>709.4</ele>
        <time>2019-07-07T08:59:33Z</time>
      </trkpt>
      <trkpt lat="40.4393340" lon="-2.8040240">
        <ele>710.2</ele>
        <time>2019-07-07T08:59:39Z</time>
      </trkpt>
      <trkpt lat="40.4392960" lon="-2.8040650">
        <ele>710.4</ele>
        <time>2019-07-07T08:59:40Z</time>
      </trkpt>
      <trkpt lat="40.4391110" lon="-2.8042640">
        <ele>711.6</ele>
        <time>2019-07-07T08:59:45Z</time>
      </trkpt>
      <trkpt lat="40.4389660" lon="-2.8044160">
        <ele>712.0</ele>
        <time>2019-07-07T08:59:49Z</time>
      </trkpt>
      <trkpt lat="40.4388970" lon="-2.8044970">
        <ele>712.6</ele>
        <time>2019-07-07T08:59:51Z</time>
      </trkpt>
      <trkpt lat="40.4387220" lon="-2.8046850">
        <ele>713.8</ele>
        <time>2019-07-07T08:59:56Z</time>
      </trkpt>
      <trkpt lat="40.4386860" lon="-2.8047210">
        <ele>714.2</ele>
        <time>2019-07-07T08:59:57Z</time>
      </trkpt>
      <trkpt lat="40.4385820" lon="-2.8048330">
        <ele>715.0</ele>
        <time>2019-07-07T09:00:00Z</time>
      </trkpt>
      <trkpt lat="40.4384130" lon="-2.8050340">
        <ele>716.2</ele>
        <time>2019-07-07T09:00:05Z</time>
      </trkpt>
      <trkpt lat="40.4382320" lon="-2.8052230">
        <ele>717.2</ele>
        <time>2019-07-07T09:00:10Z</time>
      </trkpt>
      <trkpt lat="40.4381240" lon="-2.8053500">
        <ele>717.4</ele>
        <time>2019-07-07T09:00:13Z</time>
      </trkpt>
      <trkpt lat="40.4378580" lon="-2.8056540">
        <ele>718.2</ele>
        <time>2019-07-07T09:00:20Z</time>
      </trkpt>
      <trkpt lat="40.4377810" lon="-2.8057470">
        <ele>718.4</ele>
        <time>2019-07-07T09:00:22Z</time>
      </trkpt>
      <trkpt lat="40.4374870" lon="-2.8060560">
        <ele>718.8</ele>
        <time>2019-07-07T09:00:29Z</time>
      </trkpt>
      <trkpt lat="40.4372030" lon="-2.8062930">
        <ele>719.2</ele>
        <time>2019-07-07T09:00:35Z</time>
      </trkpt>
      <trkpt lat="40.4368800" lon="-2.8064790">
        <ele>719.6</ele>
        <time>2019-07-07T09:00:41Z</time>
      </trkpt>
      <trkpt lat="40.4364860" lon="-2.8066560">
        <ele>720.4</ele>
        <time>2019-07-07T09:00:48Z</time>
      </trkpt>
      <trkpt lat="40.4364270" lon="-2.8066790">
        <ele>720.4</ele>
        <time>2019-07-07T09:00:49Z</time>
      </trkpt>
      <trkpt lat="40.4361340" lon="-2.8068020">
        <ele>720.8</ele>
        <time>2019-07-07T09:00:54Z</time>
      </trkpt>
      <trkpt lat="40.4359000" lon="-2.8069030">
        <ele>721.0</ele>
        <time>2019-07-07T09:00:58Z</time>
      </trkpt>
      <trkpt lat="40.4353460" lon="-2.8071750">
        <ele>720.8</ele>
        <time>2019-07-07T09:01:07Z</time>
      </trkpt>
      <trkpt lat="40.4350240" lon="-2.8073550">
        <ele>719.8</ele>
        <time>2019-07-07T09:01:12Z</time>
      </trkpt>
      <trkpt lat="40.4348970" lon="-2.8074360">
        <ele>719.4</ele>
        <time>2019-07-07T09:01:14Z</time>
      </trkpt>
      <trkpt lat="40.4348310" lon="-2.8074730">
        <ele>719.0</ele>
        <time>2019-07-07T09:01:15Z</time>
      </trkpt>
      <trkpt lat="40.4345600" lon="-2.8076270">
        <ele>717.6</ele>
        <time>2019-07-07T09:01:19Z</time>
      </trkpt>
      <trkpt lat="40.4344910" lon="-2.8076780">
        <ele>717.4</ele>
        <time>2019-07-07T09:01:20Z</time>
      </trkpt>
      <trkpt lat="40.4341900" lon="-2.8078870">
        <ele>716.6</ele>
        <time>2019-07-07T09:01:24Z</time>
      </trkpt>
      <trkpt lat="40.4340290" lon="-2.8079980">
        <ele>715.8</ele>
        <time>2019-07-07T09:01:26Z</time>
      </trkpt>
      <trkpt lat="40.4339480" lon="-2.8080600">
        <ele>715.2</ele>
        <time>2019-07-07T09:01:27Z</time>
      </trkpt>
      <trkpt lat="40.4337010" lon="-2.8082540">
        <ele>713.8</ele>
        <time>2019-07-07T09:01:30Z</time>
      </trkpt>
      <trkpt lat="40.4335320" lon="-2.8083880">
        <ele>713.0</ele>
        <time>2019-07-07T09:01:32Z</time>
      </trkpt>
      <trkpt lat="40.4334470" lon="-2.8084570">
        <ele>712.6</ele>
        <time>2019-07-07T09:01:33Z</time>
      </trkpt>
      <trkpt lat="40.4333610" lon="-2.8085280">
        <ele>712.0</ele>
        <time>2019-07-07T09:01:34Z</time>
      </trkpt>
      <trkpt lat="40.4331850" lon="-2.8086720">
        <ele>710.8</ele>
        <time>2019-07-07T09:01:36Z</time>
      </trkpt>
      <trkpt lat="40.4330090" lon="-2.8088220">
        <ele>709.6</ele>
        <time>2019-07-07T09:01:38Z</time>
      </trkpt>
      <trkpt lat="40.4329220" lon="-2.8089010">
        <ele>709.4</ele>
        <time>2019-07-07T09:01:39Z</time>
      </trkpt>
      <trkpt lat="40.4326690" lon="-2.8091380">
        <ele>708.0</ele>
        <time>2019-07-07T09:01:42Z</time>
      </trkpt>
      <trkpt lat="40.4325100" lon="-2.8092940">
        <ele>707.4</ele>
        <time>2019-07-07T09:01:44Z</time>
      </trkpt>
      <trkpt lat="40.4322920" lon="-2.8095290">
        <ele>706.8</ele>
        <time>2019-07-07T09:01:47Z</time>
      </trkpt>
      <trkpt lat="40.4322230" lon="-2.8096030">
        <ele>706.6</ele>
        <time>2019-07-07T09:01:48Z</time>
      </trkpt>
      <trkpt lat="40.4321550" lon="-2.8096750">
        <ele>706.4</ele>
        <time>2019-07-07T09:01:49Z</time>
      </trkpt>
      <trkpt lat="40.4320250" lon="-2.8098160">
        <ele>706.4</ele>
        <time>2019-07-07T09:01:51Z</time>
      </trkpt>
      <trkpt lat="40.4317900" lon="-2.8100900">
        <ele>706.2</ele>
        <time>2019-07-07T09:01:55Z</time>
      </trkpt>
      <trkpt lat="40.4313600" lon="-2.8106190">
        <ele>705.8</ele>
        <time>2019-07-07T09:02:03Z</time>
      </trkpt>
      <trkpt lat="40.4312570" lon="-2.8107540">
        <ele>705.8</ele>
        <time>2019-07-07T09:02:05Z</time>
      </trkpt>
      <trkpt lat="40.4311100" lon="-2.8109560">
        <ele>705.8</ele>
        <time>2019-07-07T09:02:08Z</time>
      </trkpt>
      <trkpt lat="40.4309180" lon="-2.8112280">
        <ele>705.8</ele>
        <time>2019-07-07T09:02:12Z</time>
      </trkpt>
      <trkpt lat="40.4307230" lon="-2.8115050">
        <ele>705.8</ele>
        <time>2019-07-07T09:02:16Z</time>
      </trkpt>
      <trkpt lat="40.4305250" lon="-2.8117910">
        <ele>705.8</ele>
        <time>2019-07-07T09:02:20Z</time>
      </trkpt>
      <trkpt lat="40.4301280" lon="-2.8123770">
        <ele>705.8</ele>
        <time>2019-07-07T09:02:28Z</time>
      </trkpt>
      <trkpt lat="40.4300780" lon="-2.8124510">
        <ele>705.8</ele>
        <time>2019-07-07T09:02:29Z</time>
      </trkpt>
      <trkpt lat="40.4296690" lon="-2.8130420">
        <ele>705.2</ele>
        <time>2019-07-07T09:02:37Z</time>
      </trkpt>
      <trkpt lat="40.4292680" lon="-2.8136320">
        <ele>705.4</ele>
        <time>2019-07-07T09:02:45Z</time>
      </trkpt>
      <trkpt lat="40.4291250" lon="-2.8138460">
        <ele>705.8</ele>
        <time>2019-07-07T09:02:48Z</time>
      </trkpt>
      <trkpt lat="40.4289400" lon="-2.8141250">
        <ele>706.4</ele>
        <time>2019-07-07T09:02:52Z</time>
      </trkpt>
      <trkpt lat="40.4287590" lon="-2.8143940">
        <ele>706.8</ele>
        <time>2019-07-07T09:02:56Z</time>
      </trkpt>
      <trkpt lat="40.4287160" lon="-2.8144620">
        <ele>706.8</ele>
        <time>2019-07-07T09:02:57Z</time>
      </trkpt>
      <trkpt lat="40.4283160" lon="-2.8150400">
        <ele>708.0</ele>
        <time>2019-07-07T09:03:06Z</time>
      </trkpt>
      <trkpt lat="40.4280590" lon="-2.8154160">
        <ele>708.4</ele>
        <time>2019-07-07T09:03:12Z</time>
      </trkpt>
      <trkpt lat="40.4279750" lon="-2.8155390">
        <ele>708.6</ele>
        <time>2019-07-07T09:03:14Z</time>
      </trkpt>
      <trkpt lat="40.4278130" lon="-2.8157790">
        <ele>709.0</ele>
        <time>2019-07-07T09:03:18Z</time>
      </trkpt>
      <trkpt lat="40.4276170" lon="-2.8160710">
        <ele>710.0</ele>
        <time>2019-07-07T09:03:23Z</time>
      </trkpt>
      <trkpt lat="40.4275810" lon="-2.8161280">
        <ele>710.2</ele>
        <time>2019-07-07T09:03:24Z</time>
      </trkpt>
      <trkpt lat="40.4272870" lon="-2.8165600">
        <ele>711.2</ele>
        <time>2019-07-07T09:03:32Z</time>
      </trkpt>
      <trkpt lat="40.4272490" lon="-2.8166150">
        <ele>711.2</ele>
        <time>2019-07-07T09:03:33Z</time>
      </trkpt>
      <trkpt lat="40.4269460" lon="-2.8170590">
        <ele>712.4</ele>
        <time>2019-07-07T09:03:41Z</time>
      </trkpt>
      <trkpt lat="40.4268730" lon="-2.8171710">
        <ele>712.8</ele>
        <time>2019-07-07T09:03:43Z</time>
      </trkpt>
      <trkpt lat="40.4267240" lon="-2.8173790">
        <ele>713.4</ele>
        <time>2019-07-07T09:03:47Z</time>
      </trkpt>
      <trkpt lat="40.4265800" lon="-2.8175920">
        <ele>714.2</ele>
        <time>2019-07-07T09:03:51Z</time>
      </trkpt>
      <trkpt lat="40.4265070" lon="-2.8177000">
        <ele>714.4</ele>
        <time>2019-07-07T09:03:53Z</time>
      </trkpt>
      <trkpt lat="40.4263250" lon="-2.8179640">
        <ele>715.6</ele>
        <time>2019-07-07T09:03:58Z</time>
      </trkpt>
      <trkpt lat="40.4262550" lon="-2.8180660">
        <ele>716.0</ele>
        <time>2019-07-07T09:04:00Z</time>
      </trkpt>
      <trkpt lat="40.4260860" lon="-2.8183160">
        <ele>716.6</ele>
        <time>2019-07-07T09:04:05Z</time>
      </trkpt>
      <trkpt lat="40.4259550" lon="-2.8185050">
        <ele>717.4</ele>
        <time>2019-07-07T09:04:09Z</time>
      </trkpt>
      <trkpt lat="40.4259240" lon="-2.8185530">
        <ele>717.8</ele>
        <time>2019-07-07T09:04:10Z</time>
      </trkpt>
      <trkpt lat="40.4257640" lon="-2.8187870">
        <ele>718.8</ele>
        <time>2019-07-07T09:04:15Z</time>
      </trkpt>
      <trkpt lat="40.4256380" lon="-2.8189780">
        <ele>719.4</ele>
        <time>2019-07-07T09:04:19Z</time>
      </trkpt>
      <trkpt lat="40.4255080" lon="-2.8191630">
        <ele>720.0</ele>
        <time>2019-07-07T09:04:23Z</time>
      </trkpt>
      <trkpt lat="40.4253760" lon="-2.8193530">
        <ele>720.4</ele>
        <time>2019-07-07T09:04:27Z</time>
      </trkpt>
      <trkpt lat="40.4251740" lon="-2.8196520">
        <ele>721.0</ele>
        <time>2019-07-07T09:04:33Z</time>
      </trkpt>
      <trkpt lat="40.4250670" lon="-2.8197920">
        <ele>721.4</ele>
        <time>2019-07-07T09:04:36Z</time>
      </trkpt>
      <trkpt lat="40.4248900" lon="-2.8200230">
        <ele>722.2</ele>
        <time>2019-07-07T09:04:41Z</time>
      </trkpt>
      <trkpt lat="40.4247390" lon="-2.8201910">
        <ele>722.8</ele>
        <time>2019-07-07T09:04:45Z</time>
      </trkpt>
      <trkpt lat="40.4246590" lon="-2.8202680">
        <ele>723.2</ele>
        <time>2019-07-07T09:04:47Z</time>
      </trkpt>
      <trkpt lat="40.4244230" lon="-2.8204860">
        <ele>724.2</ele>
        <time>2019-07-07T09:04:53Z</time>
      </trkpt>
      <trkpt lat="40.4243850" lon="-2.8205230">
        <ele>724.4</ele>
        <time>2019-07-07T09:04:54Z</time>
      </trkpt>
      <trkpt lat="40.4241850" lon="-2.8206920">
        <ele>725.6</ele>
        <time>2019-07-07T09:04:59Z</time>
      </trkpt>
      <trkpt lat="40.4241140" lon="-2.8207630">
        <ele>726.0</ele>
        <time>2019-07-07T09:05:01Z</time>
      </trkpt>
      <trkpt lat="40.4239630" lon="-2.8208880">
        <ele>726.8</ele>
        <time>2019-07-07T09:05:05Z</time>
      </trkpt>
      <trkpt lat="40.4238160" lon="-2.8210160">
        <ele>727.6</ele>
        <time>2019-07-07T09:05:09Z</time>
      </trkpt>
      <trkpt lat="40.4237790" lon="-2.8210480">
        <ele>727.8</ele>
        <time>2019-07-07T09:05:10Z</time>
      </trkpt>
      <trkpt lat="40.4235940" lon="-2.8212070">
        <ele>728.8</ele>
        <time>2019-07-07T09:05:15Z</time>
      </trkpt>
      <trkpt lat="40.4234840" lon="-2.8213080">
        <ele>729.8</ele>
        <time>2019-07-07T09:05:18Z</time>
      </trkpt>
      <trkpt lat="40.4234470" lon="-2.8213410">
        <ele>730.0</ele>
        <time>2019-07-07T09:05:19Z</time>
      </trkpt>
      <trkpt lat="40.4233390" lon="-2.8214380">
        <ele>731.0</ele>
        <time>2019-07-07T09:05:22Z</time>
      </trkpt>
      <trkpt lat="40.4231700" lon="-2.8215920">
        <ele>732.2</ele>
        <time>2019-07-07T09:05:27Z</time>
      </trkpt>
      <trkpt lat="40.4229730" lon="-2.8217420">
        <ele>733.4</ele>
        <time>2019-07-07T09:05:33Z</time>
      </trkpt>
      <trkpt lat="40.4229390" lon="-2.8217630">
        <ele>733.6</ele>
        <time>2019-07-07T09:05:34Z</time>
      </trkpt>
      <trkpt lat="40.4227810" lon="-2.8219000">
        <ele>734.6</ele>
        <time>2019-07-07T09:05:39Z</time>
      </trkpt>
      <trkpt lat="40.4227160" lon="-2.8219520">
        <ele>735.0</ele>
        <time>2019-07-07T09:05:41Z</time>
      </trkpt>
      <trkpt lat="40.4226490" lon="-2.8220060">
        <ele>735.6</ele>
        <time>2019-07-07T09:05:43Z</time>
      </trkpt>
      <trkpt lat="40.4225160" lon="-2.8221120">
        <ele>736.6</ele>
        <time>2019-07-07T09:05:47Z</time>
      </trkpt>
      <trkpt lat="40.4224250" lon="-2.8221870">
        <ele>737.6</ele>
        <time>2019-07-07T09:05:50Z</time>
      </trkpt>
      <trkpt lat="40.4223930" lon="-2.8222120">
        <ele>737.8</ele>
        <time>2019-07-07T09:05:51Z</time>
      </trkpt>
      <trkpt lat="40.4222310" lon="-2.8223250">
        <ele>739.0</ele>
        <time>2019-07-07T09:05:56Z</time>
      </trkpt>
      <trkpt lat="40.4221660" lon="-2.8223660">
        <ele>739.2</ele>
        <time>2019-07-07T09:05:58Z</time>
      </trkpt>
      <trkpt lat="40.4220710" lon="-2.8224410">
        <ele>740.0</ele>
        <time>2019-07-07T09:06:01Z</time>
      </trkpt>
      <trkpt lat="40.4218710" lon="-2.8225740">
        <ele>741.0</ele>
        <time>2019-07-07T09:06:07Z</time>
      </trkpt>
      <trkpt lat="40.4217060" lon="-2.8226900">
        <ele>742.2</ele>
        <time>2019-07-07T09:06:12Z</time>
      </trkpt>
      <trkpt lat="40.4216380" lon="-2.8227410">
        <ele>742.6</ele>
        <time>2019-07-07T09:06:14Z</time>
      </trkpt>
      <trkpt lat="40.4215370" lon="-2.8228130">
        <ele>743.4</ele>
        <time>2019-07-07T09:06:17Z</time>
      </trkpt>
      <trkpt lat="40.4213680" lon="-2.8229230">
        <ele>744.4</ele>
        <time>2019-07-07T09:06:22Z</time>
      </trkpt>
      <trkpt lat="40.4213350" lon="-2.8229460">
        <ele>744.6</ele>
        <time>2019-07-07T09:06:23Z</time>
      </trkpt>
      <trkpt lat="40.4212330" lon="-2.8230080">
        <ele>745.4</ele>
        <time>2019-07-07T09:06:26Z</time>
      </trkpt>
      <trkpt lat="40.4210640" lon="-2.8231320">
        <ele>746.8</ele>
        <time>2019-07-07T09:06:31Z</time>
      </trkpt>
      <trkpt lat="40.4208640" lon="-2.8232630">
        <ele>747.8</ele>
        <time>2019-07-07T09:06:37Z</time>
      </trkpt>
      <trkpt lat="40.4207680" lon="-2.8233310">
        <ele>748.6</ele>
        <time>2019-07-07T09:06:40Z</time>
      </trkpt>
      <trkpt lat="40.4206700" lon="-2.8233940">
        <ele>749.0</ele>
        <time>2019-07-07T09:06:43Z</time>
      </trkpt>
      <trkpt lat="40.4205430" lon="-2.8234760">
        <ele>750.0</ele>
        <time>2019-07-07T09:06:47Z</time>
      </trkpt>
      <trkpt lat="40.4204090" lon="-2.8235710">
        <ele>751.0</ele>
        <time>2019-07-07T09:06:51Z</time>
      </trkpt>
      <trkpt lat="40.4202810" lon="-2.8236590">
        <ele>752.2</ele>
        <time>2019-07-07T09:06:55Z</time>
      </trkpt>
      <trkpt lat="40.4201490" lon="-2.8237480">
        <ele>753.2</ele>
        <time>2019-07-07T09:06:59Z</time>
      </trkpt>
      <trkpt lat="40.4200470" lon="-2.8238150">
        <ele>754.0</ele>
        <time>2019-07-07T09:07:02Z</time>
      </trkpt>
      <trkpt lat="40.4200130" lon="-2.8238390">
        <ele>754.4</ele>
        <time>2019-07-07T09:07:03Z</time>
      </trkpt>
      <trkpt lat="40.4198460" lon="-2.8239490">
        <ele>755.2</ele>
        <time>2019-07-07T09:07:08Z</time>
      </trkpt>
      <trkpt lat="40.4198130" lon="-2.8239700">
        <ele>755.6</ele>
        <time>2019-07-07T09:07:09Z</time>
      </trkpt>
      <trkpt lat="40.4196550" lon="-2.8240870">
        <ele>756.6</ele>
        <time>2019-07-07T09:07:14Z</time>
      </trkpt>
      <trkpt lat="40.4195900" lon="-2.8241320">
        <ele>757.2</ele>
        <time>2019-07-07T09:07:16Z</time>
      </trkpt>
      <trkpt lat="40.4194940" lon="-2.8241960">
        <ele>757.8</ele>
        <time>2019-07-07T09:07:19Z</time>
      </trkpt>
      <trkpt lat="40.4193600" lon="-2.8242840">
        <ele>758.4</ele>
        <time>2019-07-07T09:07:23Z</time>
      </trkpt>
      <trkpt lat="40.4192940" lon="-2.8243300">
        <ele>758.8</ele>
        <time>2019-07-07T09:07:25Z</time>
      </trkpt>
      <trkpt lat="40.4191300" lon="-2.8244360">
        <ele>760.0</ele>
        <time>2019-07-07T09:07:30Z</time>
      </trkpt>
      <trkpt lat="40.4189670" lon="-2.8245420">
        <ele>761.0</ele>
        <time>2019-07-07T09:07:35Z</time>
      </trkpt>
      <trkpt lat="40.4188740" lon="-2.8246150">
        <ele>762.0</ele>
        <time>2019-07-07T09:07:38Z</time>
      </trkpt>
      <trkpt lat="40.4188410" lon="-2.8246380">
        <ele>762.2</ele>
        <time>2019-07-07T09:07:39Z</time>
      </trkpt>
      <trkpt lat="40.4186770" lon="-2.8247390">
        <ele>763.2</ele>
        <time>2019-07-07T09:07:44Z</time>
      </trkpt>
      <trkpt lat="40.4186440" lon="-2.8247620">
        <ele>763.4</ele>
        <time>2019-07-07T09:07:45Z</time>
      </trkpt>
      <trkpt lat="40.4184680" lon="-2.8248640">
        <ele>764.4</ele>
        <time>2019-07-07T09:07:50Z</time>
      </trkpt>
      <trkpt lat="40.4184330" lon="-2.8248850">
        <ele>764.6</ele>
        <time>2019-07-07T09:07:51Z</time>
      </trkpt>
      <trkpt lat="40.4183350" lon="-2.8249460">
        <ele>765.4</ele>
        <time>2019-07-07T09:07:54Z</time>
      </trkpt>
      <trkpt lat="40.4182110" lon="-2.8250380">
        <ele>766.2</ele>
        <time>2019-07-07T09:07:58Z</time>
      </trkpt>
      <trkpt lat="40.4181790" lon="-2.8250580">
        <ele>766.6</ele>
        <time>2019-07-07T09:07:59Z</time>
      </trkpt>
      <trkpt lat="40.4179990" lon="-2.8251670">
        <ele>767.6</ele>
        <time>2019-07-07T09:08:04Z</time>
      </trkpt>
      <trkpt lat="40.4179240" lon="-2.8252050">
        <ele>768.2</ele>
        <time>2019-07-07T09:08:06Z</time>
      </trkpt>
      <trkpt lat="40.4178460" lon="-2.8252460">
        <ele>768.8</ele>
        <time>2019-07-07T09:08:08Z</time>
      </trkpt>
      <trkpt lat="40.4176100" lon="-2.8253760">
        <ele>770.0</ele>
        <time>2019-07-07T09:08:14Z</time>
      </trkpt>
      <trkpt lat="40.4174110" lon="-2.8254640">
        <ele>770.8</ele>
        <time>2019-07-07T09:08:19Z</time>
      </trkpt>
      <trkpt lat="40.4172890" lon="-2.8254940">
        <ele>771.2</ele>
        <time>2019-07-07T09:08:22Z</time>
      </trkpt>
      <trkpt lat="40.4170780" lon="-2.8255500">
        <ele>772.0</ele>
        <time>2019-07-07T09:08:27Z</time>
      </trkpt>
      <trkpt lat="40.4170360" lon="-2.8255550">
        <ele>772.0</ele>
        <time>2019-07-07T09:08:28Z</time>
      </trkpt>
      <trkpt lat="40.4169920" lon="-2.8255580">
        <ele>772.2</ele>
        <time>2019-07-07T09:08:29Z</time>
      </trkpt>
      <trkpt lat="40.4167010" lon="-2.8255740">
        <ele>773.0</ele>
        <time>2019-07-07T09:08:35Z</time>
      </trkpt>
      <trkpt lat="40.4166010" lon="-2.8255760">
        <ele>773.2</ele>
        <time>2019-07-07T09:08:37Z</time>
      </trkpt>
      <trkpt lat="40.4163970" lon="-2.8255680">
        <ele>773.2</ele>
        <time>2019-07-07T09:08:41Z</time>
      </trkpt>
      <trkpt lat="40.4161920" lon="-2.8255350">
        <ele>773.2</ele>
        <time>2019-07-07T09:08:45Z</time>
      </trkpt>
      <trkpt lat="40.4159790" lon="-2.8254730">
        <ele>773.2</ele>
        <time>2019-07-07T09:08:49Z</time>
      </trkpt>
      <trkpt lat="40.4158700" lon="-2.8254340">
        <ele>773.2</ele>
        <time>2019-07-07T09:08:51Z</time>
      </trkpt>
      <trkpt lat="40.4157140" lon="-2.8253820">
        <ele>773.2</ele>
        <time>2019-07-07T09:08:54Z</time>
      </trkpt>
      <trkpt lat="40.4154450" lon="-2.8252720">
        <ele>772.8</ele>
        <time>2019-07-07T09:08:59Z</time>
      </trkpt>
      <trkpt lat="40.4152150" lon="-2.8251710">
        <ele>772.8</ele>
        <time>2019-07-07T09:09:03Z</time>
      </trkpt>
      <trkpt lat="40.4150420" lon="-2.8250810">
        <ele>772.4</ele>
        <time>2019-07-07T09:09:06Z</time>
      </trkpt>
      <trkpt lat="40.4147940" lon="-2.8250020">
        <ele>772.2</ele>
        <time>2019-07-07T09:09:10Z</time>
      </trkpt>
      <trkpt lat="40.4145990" lon="-2.8249540">
        <ele>772.0</ele>
        <time>2019-07-07T09:09:13Z</time>
      </trkpt>
      <trkpt lat="40.4145340" lon="-2.8249390">
        <ele>772.0</ele>
        <time>2019-07-07T09:09:14Z</time>
      </trkpt>
      <trkpt lat="40.4142730" lon="-2.8249070">
        <ele>771.8</ele>
        <time>2019-07-07T09:09:18Z</time>
      </trkpt>
      <trkpt lat="40.4141400" lon="-2.8249090">
        <ele>771.6</ele>
        <time>2019-07-07T09:09:20Z</time>
      </trkpt>
      <trkpt lat="40.4140040" lon="-2.8249150">
        <ele>771.2</ele>
        <time>2019-07-07T09:09:22Z</time>
      </trkpt>
      <trkpt lat="40.4137330" lon="-2.8249680">
        <ele>770.6</ele>
        <time>2019-07-07T09:09:26Z</time>
      </trkpt>
      <trkpt lat="40.4133670" lon="-2.8250540">
        <ele>770.2</ele>
        <time>2019-07-07T09:09:31Z</time>
      </trkpt>
      <trkpt lat="40.4132130" lon="-2.8250970">
        <ele>770.0</ele>
        <time>2019-07-07T09:09:33Z</time>
      </trkpt>
      <trkpt lat="40.4129740" lon="-2.8251670">
        <ele>769.2</ele>
        <time>2019-07-07T09:09:36Z</time>
      </trkpt>
      <trkpt lat="40.4127320" lon="-2.8252260">
        <ele>768.2</ele>
        <time>2019-07-07T09:09:39Z</time>
      </trkpt>
      <trkpt lat="40.4126520" lon="-2.8252460">
        <ele>768.0</ele>
        <time>2019-07-07T09:09:40Z</time>
      </trkpt>
      <trkpt lat="40.4121290" lon="-2.8253780">
        <ele>767.4</ele>
        <time>2019-07-07T09:09:47Z</time>
      </trkpt>
      <trkpt lat="40.4116600" lon="-2.8254260">
        <ele>767.6</ele>
        <time>2019-07-07T09:09:54Z</time>
      </trkpt>
      <trkpt lat="40.4111350" lon="-2.8254200">
        <ele>767.8</ele>
        <time>2019-07-07T09:10:02Z</time>
      </trkpt>
      <trkpt lat="40.4107220" lon="-2.8254050">
        <ele>767.2</ele>
        <time>2019-07-07T09:10:08Z</time>
      </trkpt>
      <trkpt lat="40.4105770" lon="-2.8253910">
        <ele>767.0</ele>
        <time>2019-07-07T09:10:10Z</time>
      </trkpt>
      <trkpt lat="40.4104340" lon="-2.8253760">
        <ele>766.4</ele>
        <time>2019-07-07T09:10:12Z</time>
      </trkpt>
      <trkpt lat="40.4102100" lon="-2.8253540">
        <ele>765.2</ele>
        <time>2019-07-07T09:10:15Z</time>
      </trkpt>
      <trkpt lat="40.4100510" lon="-2.8253390">
        <ele>764.0</ele>
        <time>2019-07-07T09:10:17Z</time>
      </trkpt>
      <trkpt lat="40.4098890" lon="-2.8253260">
        <ele>762.8</ele>
        <time>2019-07-07T09:10:19Z</time>
      </trkpt>
      <trkpt lat="40.4096310" lon="-2.8253010">
        <ele>761.8</ele>
        <time>2019-07-07T09:10:22Z</time>
      </trkpt>
      <trkpt lat="40.4094460" lon="-2.8252900">
        <ele>760.4</ele>
        <time>2019-07-07T09:10:24Z</time>
      </trkpt>
      <trkpt lat="40.4091560" lon="-2.8252860">
        <ele>759.2</ele>
        <time>2019-07-07T09:10:27Z</time>
      </trkpt>
      <trkpt lat="40.4089570" lon="-2.8252950">
        <ele>758.0</ele>
        <time>2019-07-07T09:10:29Z</time>
      </trkpt>
      <trkpt lat="40.4087580" lon="-2.8253330">
        <ele>756.6</ele>
        <time>2019-07-07T09:10:31Z</time>
      </trkpt>
      <trkpt lat="40.4085600" lon="-2.8253930">
        <ele>755.0</ele>
        <time>2019-07-07T09:10:33Z</time>
      </trkpt>
      <trkpt lat="40.4083650" lon="-2.8254740">
        <ele>754.0</ele>
        <time>2019-07-07T09:10:35Z</time>
      </trkpt>
      <trkpt lat="40.4081730" lon="-2.8255850">
        <ele>752.8</ele>
        <time>2019-07-07T09:10:37Z</time>
      </trkpt>
      <trkpt lat="40.4080810" lon="-2.8256530">
        <ele>752.2</ele>
        <time>2019-07-07T09:10:38Z</time>
      </trkpt>
      <trkpt lat="40.4079890" lon="-2.8257270">
        <ele>751.8</ele>
        <time>2019-07-07T09:10:39Z</time>
      </trkpt>
      <trkpt lat="40.4078100" lon="-2.8258880">
        <ele>750.0</ele>
        <time>2019-07-07T09:10:41Z</time>
      </trkpt>
      <trkpt lat="40.4075490" lon="-2.8261510">
        <ele>748.6</ele>
        <time>2019-07-07T09:10:44Z</time>
      </trkpt>
      <trkpt lat="40.4073770" lon="-2.8263360">
        <ele>747.6</ele>
        <time>2019-07-07T09:10:46Z</time>
      </trkpt>
      <trkpt lat="40.4072020" lon="-2.8265180">
        <ele>746.2</ele>
        <time>2019-07-07T09:10:48Z</time>
      </trkpt>
      <trkpt lat="40.4070330" lon="-2.8267140">
        <ele>744.8</ele>
        <time>2019-07-07T09:10:50Z</time>
      </trkpt>
      <trkpt lat="40.4069480" lon="-2.8268130">
        <ele>744.2</ele>
        <time>2019-07-07T09:10:51Z</time>
      </trkpt>
      <trkpt lat="40.4068610" lon="-2.8269100">
        <ele>743.6</ele>
        <time>2019-07-07T09:10:52Z</time>
      </trkpt>
      <trkpt lat="40.4066830" lon="-2.8270970">
        <ele>742.0</ele>
        <time>2019-07-07T09:10:54Z</time>
      </trkpt>
      <trkpt lat="40.4065060" lon="-2.8272880">
        <ele>740.6</ele>
        <time>2019-07-07T09:10:56Z</time>
      </trkpt>
      <trkpt lat="40.4063310" lon="-2.8274850">
        <ele>739.4</ele>
        <time>2019-07-07T09:10:58Z</time>
      </trkpt>
      <trkpt lat="40.4061560" lon="-2.8276820">
        <ele>738.2</ele>
        <time>2019-07-07T09:11:00Z</time>
      </trkpt>
      <trkpt lat="40.4059790" lon="-2.8278730">
        <ele>737.0</ele>
        <time>2019-07-07T09:11:02Z</time>
      </trkpt>
      <trkpt lat="40.4058020" lon="-2.8280580">
        <ele>735.2</ele>
        <time>2019-07-07T09:11:04Z</time>
      </trkpt>
      <trkpt lat="40.4056250" lon="-2.8282390">
        <ele>734.2</ele>
        <time>2019-07-07T09:11:06Z</time>
      </trkpt>
      <trkpt lat="40.4054360" lon="-2.8283950">
        <ele>733.2</ele>
        <time>2019-07-07T09:11:08Z</time>
      </trkpt>
      <trkpt lat="40.4052380" lon="-2.8285350">
        <ele>732.0</ele>
        <time>2019-07-07T09:11:10Z</time>
      </trkpt>
      <trkpt lat="40.4051370" lon="-2.8285970">
        <ele>731.4</ele>
        <time>2019-07-07T09:11:11Z</time>
      </trkpt>
      <trkpt lat="40.4050330" lon="-2.8286560">
        <ele>730.8</ele>
        <time>2019-07-07T09:11:12Z</time>
      </trkpt>
      <trkpt lat="40.4048250" lon="-2.8287620">
        <ele>729.6</ele>
        <time>2019-07-07T09:11:14Z</time>
      </trkpt>
      <trkpt lat="40.4046200" lon="-2.8288600">
        <ele>728.4</ele>
        <time>2019-07-07T09:11:16Z</time>
      </trkpt>
      <trkpt lat="40.4044170" lon="-2.8289570">
        <ele>727.6</ele>
        <time>2019-07-07T09:11:18Z</time>
      </trkpt>
      <trkpt lat="40.4043190" lon="-2.8290080">
        <ele>727.2</ele>
        <time>2019-07-07T09:11:19Z</time>
      </trkpt>
      <trkpt lat="40.4038430" lon="-2.8292340">
        <ele>726.0</ele>
        <time>2019-07-07T09:11:24Z</time>
      </trkpt>
      <trkpt lat="40.4037520" lon="-2.8292750">
        <ele>726.0</ele>
        <time>2019-07-07T09:11:25Z</time>
      </trkpt>
      <trkpt lat="40.4035760" lon="-2.8293640">
        <ele>725.4</ele>
        <time>2019-07-07T09:11:27Z</time>
      </trkpt>
      <trkpt lat="40.4034910" lon="-2.8294120">
        <ele>725.2</ele>
        <time>2019-07-07T09:11:28Z</time>
      </trkpt>
      <trkpt lat="40.4034070" lon="-2.8294630">
        <ele>724.8</ele>
        <time>2019-07-07T09:11:29Z</time>
      </trkpt>
      <trkpt lat="40.4031640" lon="-2.8296340">
        <ele>724.2</ele>
        <time>2019-07-07T09:11:32Z</time>
      </trkpt>
      <trkpt lat="40.4030100" lon="-2.8297670">
        <ele>723.6</ele>
        <time>2019-07-07T09:11:34Z</time>
      </trkpt>
      <trkpt lat="40.4027950" lon="-2.8299990">
        <ele>722.8</ele>
        <time>2019-07-07T09:11:37Z</time>
      </trkpt>
      <trkpt lat="40.4027260" lon="-2.8300840">
        <ele>722.6</ele>
        <time>2019-07-07T09:11:38Z</time>
      </trkpt>
      <trkpt lat="40.4024600" lon="-2.8304470">
        <ele>721.2</ele>
        <time>2019-07-07T09:11:42Z</time>
      </trkpt>
      <trkpt lat="40.4023300" lon="-2.8306460">
        <ele>720.0</ele>
        <time>2019-07-07T09:11:44Z</time>
      </trkpt>
      <trkpt lat="40.4021280" lon="-2.8309510">
        <ele>718.4</ele>
        <time>2019-07-07T09:11:47Z</time>
      </trkpt>
      <trkpt lat="40.4019200" lon="-2.8312630">
        <ele>717.0</ele>
        <time>2019-07-07T09:11:50Z</time>
      </trkpt>
      <trkpt lat="40.4017770" lon="-2.8314730">
        <ele>715.8</ele>
        <time>2019-07-07T09:11:52Z</time>
      </trkpt>
      <trkpt lat="40.4017060" lon="-2.8315780">
        <ele>715.4</ele>
        <time>2019-07-07T09:11:53Z</time>
      </trkpt>
      <trkpt lat="40.4016330" lon="-2.8316830">
        <ele>714.8</ele>
        <time>2019-07-07T09:11:54Z</time>
      </trkpt>
      <trkpt lat="40.4014180" lon="-2.8319920">
        <ele>713.6</ele>
        <time>2019-07-07T09:11:57Z</time>
      </trkpt>
      <trkpt lat="40.4012090" lon="-2.8323000">
        <ele>712.6</ele>
        <time>2019-07-07T09:12:00Z</time>
      </trkpt>
      <trkpt lat="40.4011420" lon="-2.8324040">
        <ele>712.2</ele>
        <time>2019-07-07T09:12:01Z</time>
      </trkpt>
      <trkpt lat="40.4009400" lon="-2.8327120">
        <ele>711.4</ele>
        <time>2019-07-07T09:12:04Z</time>
      </trkpt>
      <trkpt lat="40.4008000" lon="-2.8329110">
        <ele>710.2</ele>
        <time>2019-07-07T09:12:06Z</time>
      </trkpt>
      <trkpt lat="40.4005970" lon="-2.8332030">
        <ele>709.0</ele>
        <time>2019-07-07T09:12:09Z</time>
      </trkpt>
      <trkpt lat="40.4005340" lon="-2.8333030">
        <ele>708.6</ele>
        <time>2019-07-07T09:12:10Z</time>
      </trkpt>
      <trkpt lat="40.4004030" lon="-2.8334990">
        <ele>707.8</ele>
        <time>2019-07-07T09:12:12Z</time>
      </trkpt>
      <trkpt lat="40.4003370" lon="-2.8335960">
        <ele>707.6</ele>
        <time>2019-07-07T09:12:13Z</time>
      </trkpt>
      <trkpt lat="40.4002020" lon="-2.8337910">
        <ele>707.0</ele>
        <time>2019-07-07T09:12:15Z</time>
      </trkpt>
      <trkpt lat="40.4001350" lon="-2.8338910">
        <ele>706.6</ele>
        <time>2019-07-07T09:12:16Z</time>
      </trkpt>
      <trkpt lat="40.4000020" lon="-2.8340890">
        <ele>706.2</ele>
        <time>2019-07-07T09:12:18Z</time>
      </trkpt>
      <trkpt lat="40.3998630" lon="-2.8342820">
        <ele>705.2</ele>
        <time>2019-07-07T09:12:20Z</time>
      </trkpt>
      <trkpt lat="40.3995680" lon="-2.8346490">
        <ele>704.0</ele>
        <time>2019-07-07T09:12:24Z</time>
      </trkpt>
      <trkpt lat="40.3994900" lon="-2.8347390">
        <ele>703.4</ele>
        <time>2019-07-07T09:12:25Z</time>
      </trkpt>
      <trkpt lat="40.3993380" lon="-2.8349160">
        <ele>703.0</ele>
        <time>2019-07-07T09:12:27Z</time>
      </trkpt>
      <trkpt lat="40.3991850" lon="-2.8350940">
        <ele>702.2</ele>
        <time>2019-07-07T09:12:29Z</time>
      </trkpt>
      <trkpt lat="40.3991080" lon="-2.8351810">
        <ele>701.6</ele>
        <time>2019-07-07T09:12:30Z</time>
      </trkpt>
      <trkpt lat="40.3988730" lon="-2.8354290">
        <ele>700.6</ele>
        <time>2019-07-07T09:12:33Z</time>
      </trkpt>
      <trkpt lat="40.3987190" lon="-2.8355890">
        <ele>700.0</ele>
        <time>2019-07-07T09:12:35Z</time>
      </trkpt>
      <trkpt lat="40.3984170" lon="-2.8358760">
        <ele>699.4</ele>
        <time>2019-07-07T09:12:39Z</time>
      </trkpt>
      <trkpt lat="40.3981800" lon="-2.8360620">
        <ele>698.0</ele>
        <time>2019-07-07T09:12:42Z</time>
      </trkpt>
      <trkpt lat="40.3979340" lon="-2.8362450">
        <ele>696.8</ele>
        <time>2019-07-07T09:12:45Z</time>
      </trkpt>
      <trkpt lat="40.3976860" lon="-2.8364310">
        <ele>695.8</ele>
        <time>2019-07-07T09:12:48Z</time>
      </trkpt>
      <trkpt lat="40.3976040" lon="-2.8364910">
        <ele>695.4</ele>
        <time>2019-07-07T09:12:49Z</time>
      </trkpt>
      <trkpt lat="40.3973550" lon="-2.8366630">
        <ele>694.6</ele>
        <time>2019-07-07T09:12:52Z</time>
      </trkpt>
      <trkpt lat="40.3972770" lon="-2.8367200">
        <ele>694.4</ele>
        <time>2019-07-07T09:12:53Z</time>
      </trkpt>
      <trkpt lat="40.3969810" lon="-2.8369570">
        <ele>693.4</ele>
        <time>2019-07-07T09:12:57Z</time>
      </trkpt>
      <trkpt lat="40.3969070" lon="-2.8370130">
        <ele>693.2</ele>
        <time>2019-07-07T09:12:58Z</time>
      </trkpt>
      <trkpt lat="40.3966220" lon="-2.8372330">
        <ele>692.8</ele>
        <time>2019-07-07T09:13:02Z</time>
      </trkpt>
      <trkpt lat="40.3964810" lon="-2.8373420">
        <ele>692.4</ele>
        <time>2019-07-07T09:13:04Z</time>
      </trkpt>
      <trkpt lat="40.3962600" lon="-2.8374980">
        <ele>691.8</ele>
        <time>2019-07-07T09:13:07Z</time>
      </trkpt>
      <trkpt lat="40.3959630" lon="-2.8377040">
        <ele>691.0</ele>
        <time>2019-07-07T09:13:11Z</time>
      </trkpt>
      <trkpt lat="40.3958850" lon="-2.8377540">
        <ele>690.8</ele>
        <time>2019-07-07T09:13:12Z</time>
      </trkpt>
      <trkpt lat="40.3955620" lon="-2.8379360">
        <ele>689.6</ele>
        <time>2019-07-07T09:13:16Z</time>
      </trkpt>
      <trkpt lat="40.3953980" lon="-2.8380270">
        <ele>689.2</ele>
        <time>2019-07-07T09:13:18Z</time>
      </trkpt>
      <trkpt lat="40.3950710" lon="-2.8382110">
        <ele>688.6</ele>
        <time>2019-07-07T09:13:22Z</time>
      </trkpt>
      <trkpt lat="40.3947440" lon="-2.8383970">
        <ele>687.8</ele>
        <time>2019-07-07T09:13:26Z</time>
      </trkpt>
      <trkpt lat="40.3945800" lon="-2.8384880">
        <ele>687.4</ele>
        <time>2019-07-07T09:13:28Z</time>
      </trkpt>
      <trkpt lat="40.3940410" lon="-2.8387880">
        <ele>686.8</ele>
        <time>2019-07-07T09:13:35Z</time>
      </trkpt>
      <trkpt lat="40.3936770" lon="-2.8389880">
        <ele>686.4</ele>
        <time>2019-07-07T09:13:40Z</time>
      </trkpt>
      <trkpt lat="40.3933860" lon="-2.8391440">
        <ele>686.0</ele>
        <time>2019-07-07T09:13:44Z</time>
      </trkpt>
      <trkpt lat="40.3928780" lon="-2.8394020">
        <ele>685.4</ele>
        <time>2019-07-07T09:13:51Z</time>
      </trkpt>
      <trkpt lat="40.3928040" lon="-2.8394380">
        <ele>685.2</ele>
        <time>2019-07-07T09:13:52Z</time>
      </trkpt>
      <trkpt lat="40.3925040" lon="-2.8395850">
        <ele>684.0</ele>
        <time>2019-07-07T09:13:56Z</time>
      </trkpt>
      <trkpt lat="40.3921070" lon="-2.8397740">
        <ele>683.0</ele>
        <time>2019-07-07T09:14:01Z</time>
      </trkpt>
      <trkpt lat="40.3918500" lon="-2.8398990">
        <ele>681.8</ele>
        <time>2019-07-07T09:14:04Z</time>
      </trkpt>
      <trkpt lat="40.3914880" lon="-2.8400740">
        <ele>680.2</ele>
        <time>2019-07-07T09:14:08Z</time>
      </trkpt>
      <trkpt lat="40.3913000" lon="-2.8401610">
        <ele>679.2</ele>
        <time>2019-07-07T09:14:10Z</time>
      </trkpt>
      <trkpt lat="40.3911170" lon="-2.8402540">
        <ele>678.0</ele>
        <time>2019-07-07T09:14:12Z</time>
      </trkpt>
      <trkpt lat="40.3908460" lon="-2.8403910">
        <ele>677.0</ele>
        <time>2019-07-07T09:14:15Z</time>
      </trkpt>
      <trkpt lat="40.3907580" lon="-2.8404330">
        <ele>676.8</ele>
        <time>2019-07-07T09:14:16Z</time>
      </trkpt>
      <trkpt lat="40.3904130" lon="-2.8406020">
        <ele>675.8</ele>
        <time>2019-07-07T09:14:20Z</time>
      </trkpt>
      <trkpt lat="40.3900730" lon="-2.8407700">
        <ele>674.6</ele>
        <time>2019-07-07T09:14:24Z</time>
      </trkpt>
      <trkpt lat="40.3899020" lon="-2.8408560">
        <ele>674.0</ele>
        <time>2019-07-07T09:14:26Z</time>
      </trkpt>
      <trkpt lat="40.3897300" lon="-2.8409420">
        <ele>673.6</ele>
        <time>2019-07-07T09:14:28Z</time>
      </trkpt>
      <trkpt lat="40.3893840" lon="-2.8411150">
        <ele>672.4</ele>
        <time>2019-07-07T09:14:32Z</time>
      </trkpt>
      <trkpt lat="40.3890490" lon="-2.8412770">
        <ele>671.6</ele>
        <time>2019-07-07T09:14:36Z</time>
      </trkpt>
      <trkpt lat="40.3889680" lon="-2.8413190">
        <ele>671.4</ele>
        <time>2019-07-07T09:14:37Z</time>
      </trkpt>
      <trkpt lat="40.3885900" lon="-2.8415150">
        <ele>671.2</ele>
        <time>2019-07-07T09:14:42Z</time>
      </trkpt>
      <trkpt lat="40.3885210" lon="-2.8415510">
        <ele>671.2</ele>
        <time>2019-07-07T09:14:43Z</time>
      </trkpt>
      <trkpt lat="40.3881670" lon="-2.8417330">
        <ele>671.8</ele>
        <time>2019-07-07T09:14:49Z</time>
      </trkpt>
      <trkpt lat="40.3879660" lon="-2.8418340">
        <ele>672.2</ele>
        <time>2019-07-07T09:14:53Z</time>
      </trkpt>
      <trkpt lat="40.3879170" lon="-2.8418590">
        <ele>672.2</ele>
        <time>2019-07-07T09:14:54Z</time>
      </trkpt>
      <trkpt lat="40.3878180" lon="-2.8419080">
        <ele>672.6</ele>
        <time>2019-07-07T09:14:56Z</time>
      </trkpt>
      <trkpt lat="40.3876670" lon="-2.8419820">
        <ele>672.8</ele>
        <time>2019-07-07T09:14:59Z</time>
      </trkpt>
      <trkpt lat="40.3874530" lon="-2.8420870">
        <ele>673.0</ele>
        <time>2019-07-07T09:15:03Z</time>
      </trkpt>
      <trkpt lat="40.3873970" lon="-2.8421140">
        <ele>673.0</ele>
        <time>2019-07-07T09:15:04Z</time>
      </trkpt>
      <trkpt lat="40.3871710" lon="-2.8422190">
        <ele>673.0</ele>
        <time>2019-07-07T09:15:08Z</time>
      </trkpt>
      <trkpt lat="40.3868340" lon="-2.8423960">
        <ele>672.6</ele>
        <time>2019-07-07T09:15:14Z</time>
      </trkpt>
      <trkpt lat="40.3863250" lon="-2.8426490">
        <ele>672.4</ele>
        <time>2019-07-07T09:15:23Z</time>
      </trkpt>
      <trkpt lat="40.3862670" lon="-2.8426770">
        <ele>672.2</ele>
        <time>2019-07-07T09:15:24Z</time>
      </trkpt>
      <trkpt lat="40.3858050" lon="-2.8429100">
        <ele>671.6</ele>
        <time>2019-07-07T09:15:32Z</time>
      </trkpt>
      <trkpt lat="40.3856820" lon="-2.8429690">
        <ele>671.4</ele>
        <time>2019-07-07T09:15:34Z</time>
      </trkpt>
      <trkpt lat="40.3856190" lon="-2.8430000">
        <ele>671.2</ele>
        <time>2019-07-07T09:15:35Z</time>
      </trkpt>
      <trkpt lat="40.3853550" lon="-2.8431320">
        <ele>670.4</ele>
        <time>2019-07-07T09:15:39Z</time>
      </trkpt>
      <trkpt lat="40.3852850" lon="-2.8431660">
        <ele>670.0</ele>
        <time>2019-07-07T09:15:40Z</time>
      </trkpt>
      <trkpt lat="40.3851430" lon="-2.8432340">
        <ele>669.6</ele>
        <time>2019-07-07T09:15:42Z</time>
      </trkpt>
      <trkpt lat="40.3850000" lon="-2.8433020">
        <ele>669.0</ele>
        <time>2019-07-07T09:15:44Z</time>
      </trkpt>
      <trkpt lat="40.3848580" lon="-2.8433710">
        <ele>668.4</ele>
        <time>2019-07-07T09:15:46Z</time>
      </trkpt>
      <trkpt lat="40.3846450" lon="-2.8434720">
        <ele>667.8</ele>
        <time>2019-07-07T09:15:49Z</time>
      </trkpt>
      <trkpt lat="40.3845030" lon="-2.8435440">
        <ele>667.2</ele>
        <time>2019-07-07T09:15:51Z</time>
      </trkpt>
      <trkpt lat="40.3843590" lon="-2.8436190">
        <ele>666.8</ele>
        <time>2019-07-07T09:15:53Z</time>
      </trkpt>
      <trkpt lat="40.3839950" lon="-2.8438010">
        <ele>666.4</ele>
        <time>2019-07-07T09:15:58Z</time>
      </trkpt>
      <trkpt lat="40.3838480" lon="-2.8438730">
        <ele>666.2</ele>
        <time>2019-07-07T09:16:00Z</time>
      </trkpt>
      <trkpt lat="40.3833190" lon="-2.8441380">
        <ele>665.6</ele>
        <time>2019-07-07T09:16:07Z</time>
      </trkpt>
      <trkpt lat="40.3831570" lon="-2.8442160">
        <ele>665.0</ele>
        <time>2019-07-07T09:16:09Z</time>
      </trkpt>
      <trkpt lat="40.3830770" lon="-2.8442560">
        <ele>664.6</ele>
        <time>2019-07-07T09:16:10Z</time>
      </trkpt>
      <trkpt lat="40.3827480" lon="-2.8444240">
        <ele>663.4</ele>
        <time>2019-07-07T09:16:14Z</time>
      </trkpt>
      <trkpt lat="40.3824170" lon="-2.8445890">
        <ele>662.2</ele>
        <time>2019-07-07T09:16:18Z</time>
      </trkpt>
      <trkpt lat="40.3823350" lon="-2.8446290">
        <ele>661.8</ele>
        <time>2019-07-07T09:16:19Z</time>
      </trkpt>
      <trkpt lat="40.3820870" lon="-2.8447520">
        <ele>661.0</ele>
        <time>2019-07-07T09:16:22Z</time>
      </trkpt>
      <trkpt lat="40.3815310" lon="-2.8450260">
        <ele>659.8</ele>
        <time>2019-07-07T09:16:29Z</time>
      </trkpt>
      <trkpt lat="40.3814540" lon="-2.8450660">
        <ele>659.6</ele>
        <time>2019-07-07T09:16:30Z</time>
      </trkpt>
      <trkpt lat="40.3809140" lon="-2.8453300">
        <ele>659.0</ele>
        <time>2019-07-07T09:16:37Z</time>
      </trkpt>
      <trkpt lat="40.3808390" lon="-2.8453650">
        <ele>659.0</ele>
        <time>2019-07-07T09:16:38Z</time>
      </trkpt>
      <trkpt lat="40.3804740" lon="-2.8455540">
        <ele>658.8</ele>
        <time>2019-07-07T09:16:43Z</time>
      </trkpt>
      <trkpt lat="40.3801850" lon="-2.8456950">
        <ele>658.2</ele>
        <time>2019-07-07T09:16:47Z</time>
      </trkpt>
      <trkpt lat="40.3797520" lon="-2.8459070">
        <ele>657.8</ele>
        <time>2019-07-07T09:16:53Z</time>
      </trkpt>
      <trkpt lat="40.3796070" lon="-2.8459800">
        <ele>657.6</ele>
        <time>2019-07-07T09:16:55Z</time>
      </trkpt>
      <trkpt lat="40.3790340" lon="-2.8462650">
        <ele>656.8</ele>
        <time>2019-07-07T09:17:03Z</time>
      </trkpt>
      <trkpt lat="40.3785400" lon="-2.8464530">
        <ele>656.0</ele>
        <time>2019-07-07T09:17:10Z</time>
      </trkpt>
      <trkpt lat="40.3780510" lon="-2.8465550">
        <ele>656.0</ele>
        <time>2019-07-07T09:17:17Z</time>
      </trkpt>
      <trkpt lat="40.3776070" lon="-2.8466510">
        <ele>656.2</ele>
        <time>2019-07-07T09:17:24Z</time>
      </trkpt>
      <trkpt lat="40.3775480" lon="-2.8466630">
        <ele>656.2</ele>
        <time>2019-07-07T09:17:25Z</time>
      </trkpt>
      <trkpt lat="40.3770920" lon="-2.8467910">
        <ele>656.0</ele>
        <time>2019-07-07T09:17:33Z</time>
      </trkpt>
      <trkpt lat="40.3766150" lon="-2.8469490">
        <ele>656.2</ele>
        <time>2019-07-07T09:17:41Z</time>
      </trkpt>
      <trkpt lat="40.3762710" lon="-2.8471350">
        <ele>656.2</ele>
        <time>2019-07-07T09:17:47Z</time>
      </trkpt>
      <trkpt lat="40.3761670" lon="-2.8472240">
        <ele>656.2</ele>
        <time>2019-07-07T09:17:49Z</time>
      </trkpt>
      <trkpt lat="40.3757450" lon="-2.8476230">
        <ele>656.2</ele>
        <time>2019-07-07T09:17:57Z</time>
      </trkpt>
      <trkpt lat="40.3754860" lon="-2.8479170">
        <ele>655.6</ele>
        <time>2019-07-07T09:18:02Z</time>
      </trkpt>
      <trkpt lat="40.3753790" lon="-2.8480410">
        <ele>655.2</ele>
        <time>2019-07-07T09:18:04Z</time>
      </trkpt>
      <trkpt lat="40.3752160" lon="-2.8482480">
        <ele>654.6</ele>
        <time>2019-07-07T09:18:07Z</time>
      </trkpt>
      <trkpt lat="40.3750500" lon="-2.8484830">
        <ele>654.0</ele>
        <time>2019-07-07T09:18:10Z</time>
      </trkpt>
      <trkpt lat="40.3749990" lon="-2.8485700">
        <ele>653.2</ele>
        <time>2019-07-07T09:18:11Z</time>
      </trkpt>
      <trkpt lat="40.3748990" lon="-2.8487570">
        <ele>651.4</ele>
        <time>2019-07-07T09:18:13Z</time>
      </trkpt>
      <trkpt lat="40.3748180" lon="-2.8489420">
        <ele>650.0</ele>
        <time>2019-07-07T09:18:15Z</time>
      </trkpt>
      <trkpt lat="40.3747660" lon="-2.8490760">
        <ele>648.6</ele>
        <time>2019-07-07T09:18:17Z</time>
      </trkpt>
      <trkpt lat="40.3747450" lon="-2.8491210">
        <ele>648.0</ele>
        <time>2019-07-07T09:18:18Z</time>
      </trkpt>
      <trkpt lat="40.3747170" lon="-2.8491530">
        <ele>647.4</ele>
        <time>2019-07-07T09:18:19Z</time>
      </trkpt>
      <trkpt lat="40.3746480" lon="-2.8491570">
        <ele>647.0</ele>
        <time>2019-07-07T09:18:21Z</time>
      </trkpt>
      <trkpt lat="40.3745920" lon="-2.8490290">
        <ele>646.6</ele>
        <time>2019-07-07T09:18:24Z</time>
      </trkpt>
      <trkpt lat="40.3745770" lon="-2.8489010">
        <ele>646.4</ele>
        <time>2019-07-07T09:18:26Z</time>
      </trkpt>
      <trkpt lat="40.3745670" lon="-2.8488240">
        <ele>646.4</ele>
        <time>2019-07-07T09:18:27Z</time>
      </trkpt>
      <trkpt lat="40.3745570" lon="-2.8487380">
        <ele>646.0</ele>
        <time>2019-07-07T09:18:28Z</time>
      </trkpt>
      <trkpt lat="40.3745180" lon="-2.8484440">
        <ele>644.8</ele>
        <time>2019-07-07T09:18:31Z</time>
      </trkpt>
      <trkpt lat="40.3744780" lon="-2.8482290">
        <ele>643.2</ele>
        <time>2019-07-07T09:18:33Z</time>
      </trkpt>
      <trkpt lat="40.3744170" lon="-2.8478910">
        <ele>642.2</ele>
        <time>2019-07-07T09:18:36Z</time>
      </trkpt>
      <trkpt lat="40.3743910" lon="-2.8475470">
        <ele>641.4</ele>
        <time>2019-07-07T09:18:39Z</time>
      </trkpt>
      <trkpt lat="40.3743940" lon="-2.8474320">
        <ele>641.2</ele>
        <time>2019-07-07T09:18:40Z</time>
      </trkpt>
      <trkpt lat="40.3744060" lon="-2.8473190">
        <ele>641.0</ele>
        <time>2019-07-07T09:18:41Z</time>
      </trkpt>
      <trkpt lat="40.3744530" lon="-2.8470990">
        <ele>640.4</ele>
        <time>2019-07-07T09:18:43Z</time>
      </trkpt>
      <trkpt lat="40.3745100" lon="-2.8468850">
        <ele>640.0</ele>
        <time>2019-07-07T09:18:45Z</time>
      </trkpt>
      <trkpt lat="40.3745320" lon="-2.8467770">
        <ele>640.0</ele>
        <time>2019-07-07T09:18:46Z</time>
      </trkpt>
      <trkpt lat="40.3745450" lon="-2.8465640">
        <ele>639.8</ele>
        <time>2019-07-07T09:18:48Z</time>
      </trkpt>
      <trkpt lat="40.3745000" lon="-2.8461930">
        <ele>640.0</ele>
        <time>2019-07-07T09:18:52Z</time>
      </trkpt>
      <trkpt lat="40.3744830" lon="-2.8461100">
        <ele>640.0</ele>
        <time>2019-07-07T09:18:53Z</time>
      </trkpt>
      <trkpt lat="40.3744480" lon="-2.8459530">
        <ele>640.0</ele>
        <time>2019-07-07T09:18:55Z</time>
      </trkpt>
      <trkpt lat="40.3743930" lon="-2.8456400">
        <ele>640.8</ele>
        <time>2019-07-07T09:18:59Z</time>
      </trkpt>
      <trkpt lat="40.3743800" lon="-2.8455660">
        <ele>641.0</ele>
        <time>2019-07-07T09:19:00Z</time>
      </trkpt>
      <trkpt lat="40.3743650" lon="-2.8454940">
        <ele>641.2</ele>
        <time>2019-07-07T09:19:01Z</time>
      </trkpt>
      <trkpt lat="40.3743170" lon="-2.8452790">
        <ele>641.6</ele>
        <time>2019-07-07T09:19:04Z</time>
      </trkpt>
      <trkpt lat="40.3742580" lon="-2.8449870">
        <ele>641.8</ele>
        <time>2019-07-07T09:19:08Z</time>
      </trkpt>
      <trkpt lat="40.3741930" lon="-2.8446880">
        <ele>642.2</ele>
        <time>2019-07-07T09:19:12Z</time>
      </trkpt>
      <trkpt lat="40.3741400" lon="-2.8443860">
        <ele>642.2</ele>
        <time>2019-07-07T09:19:16Z</time>
      </trkpt>
      <trkpt lat="40.3741260" lon="-2.8443140">
        <ele>642.2</ele>
        <time>2019-07-07T09:19:17Z</time>
      </trkpt>
      <trkpt lat="40.3740460" lon="-2.8439470">
        <ele>642.2</ele>
        <time>2019-07-07T09:19:22Z</time>
      </trkpt>
      <trkpt lat="40.3740190" lon="-2.8438000">
        <ele>642.4</ele>
        <time>2019-07-07T09:19:24Z</time>
      </trkpt>
      <trkpt lat="40.3739330" lon="-2.8433590">
        <ele>643.0</ele>
        <time>2019-07-07T09:19:30Z</time>
      </trkpt>
      <trkpt lat="40.3739060" lon="-2.8432160">
        <ele>643.0</ele>
        <time>2019-07-07T09:19:32Z</time>
      </trkpt>
      <trkpt lat="40.3738730" lon="-2.8430780">
        <ele>643.2</ele>
        <time>2019-07-07T09:19:34Z</time>
      </trkpt>
      <trkpt lat="40.3737910" lon="-2.8426590">
        <ele>643.6</ele>
        <time>2019-07-07T09:19:40Z</time>
      </trkpt>
      <trkpt lat="40.3737000" lon="-2.8419800">
        <ele>644.0</ele>
        <time>2019-07-07T09:19:49Z</time>
      </trkpt>
      <trkpt lat="40.3737390" lon="-2.8416720">
        <ele>643.8</ele>
        <time>2019-07-07T09:19:53Z</time>
      </trkpt>
      <trkpt lat="40.3737610" lon="-2.8414440">
        <ele>643.8</ele>
        <time>2019-07-07T09:19:56Z</time>
      </trkpt>
      <trkpt lat="40.3737390" lon="-2.8412980">
        <ele>644.0</ele>
        <time>2019-07-07T09:19:58Z</time>
      </trkpt>
      <trkpt lat="40.3737140" lon="-2.8412340">
        <ele>644.0</ele>
        <time>2019-07-07T09:19:59Z</time>
      </trkpt>
      <trkpt lat="40.3736300" lon="-2.8411370">
        <ele>644.4</ele>
        <time>2019-07-07T09:20:01Z</time>
      </trkpt>
      <trkpt lat="40.3734610" lon="-2.8411160">
        <ele>644.6</ele>
        <time>2019-07-07T09:20:04Z</time>
      </trkpt>
      <trkpt lat="40.3733090" lon="-2.8411760">
        <ele>645.0</ele>
        <time>2019-07-07T09:20:07Z</time>
      </trkpt>
      <trkpt lat="40.3732600" lon="-2.8411960">
        <ele>645.2</ele>
        <time>2019-07-07T09:20:08Z</time>
      </trkpt>
      <trkpt lat="40.3732120" lon="-2.8412140">
        <ele>645.4</ele>
        <time>2019-07-07T09:20:09Z</time>
      </trkpt>
      <trkpt lat="40.3730630" lon="-2.8412440">
        <ele>646.0</ele>
        <time>2019-07-07T09:20:12Z</time>
      </trkpt>
      <trkpt lat="40.3730140" lon="-2.8412400">
        <ele>646.2</ele>
        <time>2019-07-07T09:20:13Z</time>
      </trkpt>
      <trkpt lat="40.3729660" lon="-2.8412300">
        <ele>646.4</ele>
        <time>2019-07-07T09:20:14Z</time>
      </trkpt>
      <trkpt lat="40.3727560" lon="-2.8410770">
        <ele>647.2</ele>
        <time>2019-07-07T09:20:19Z</time>
      </trkpt>
      <trkpt lat="40.3726930" lon="-2.8409800">
        <ele>647.8</ele>
        <time>2019-07-07T09:20:21Z</time>
      </trkpt>
      <trkpt lat="40.3725980" lon="-2.8408320">
        <ele>648.4</ele>
        <time>2019-07-07T09:20:24Z</time>
      </trkpt>
      <trkpt lat="40.3725270" lon="-2.8407410">
        <ele>648.6</ele>
        <time>2019-07-07T09:20:26Z</time>
      </trkpt>
      <trkpt lat="40.3724880" lon="-2.8407010">
        <ele>648.8</ele>
        <time>2019-07-07T09:20:27Z</time>
      </trkpt>
      <trkpt lat="40.3723220" lon="-2.8405950">
        <ele>649.2</ele>
        <time>2019-07-07T09:20:31Z</time>
      </trkpt>
      <trkpt lat="40.3722850" lon="-2.8405760">
        <ele>649.4</ele>
        <time>2019-07-07T09:20:32Z</time>
      </trkpt>
      <trkpt lat="40.3721110" lon="-2.8404940">
        <ele>650.6</ele>
        <time>2019-07-07T09:20:37Z</time>
      </trkpt>
      <trkpt lat="40.3720780" lon="-2.8404710">
        <ele>650.8</ele>
        <time>2019-07-07T09:20:38Z</time>
      </trkpt>
      <trkpt lat="40.3719430" lon="-2.8403880">
        <ele>651.8</ele>
        <time>2019-07-07T09:20:42Z</time>
      </trkpt>
      <trkpt lat="40.3718760" lon="-2.8403390">
        <ele>652.2</ele>
        <time>2019-07-07T09:20:44Z</time>
      </trkpt>
      <trkpt lat="40.3717760" lon="-2.8402680">
        <ele>652.8</ele>
        <time>2019-07-07T09:20:47Z</time>
      </trkpt>
      <trkpt lat="40.3716590" lon="-2.8401550">
        <ele>653.6</ele>
        <time>2019-07-07T09:20:51Z</time>
      </trkpt>
      <trkpt lat="40.3716080" lon="-2.8400820">
        <ele>654.0</ele>
        <time>2019-07-07T09:20:53Z</time>
      </trkpt>
      <trkpt lat="40.3715080" lon="-2.8398590">
        <ele>655.0</ele>
        <time>2019-07-07T09:20:58Z</time>
      </trkpt>
      <trkpt lat="40.3714940" lon="-2.8398080">
        <ele>655.2</ele>
        <time>2019-07-07T09:20:59Z</time>
      </trkpt>
      <trkpt lat="40.3714740" lon="-2.8397060">
        <ele>655.4</ele>
        <time>2019-07-07T09:21:01Z</time>
      </trkpt>
      <trkpt lat="40.3714310" lon="-2.8394550">
        <ele>656.2</ele>
        <time>2019-07-07T09:21:06Z</time>
      </trkpt>
      <trkpt lat="40.3714240" lon="-2.8394030">
        <ele>656.2</ele>
        <time>2019-07-07T09:21:07Z</time>
      </trkpt>
      <trkpt lat="40.3713720" lon="-2.8390300">
        <ele>656.8</ele>
        <time>2019-07-07T09:21:14Z</time>
      </trkpt>
      <trkpt lat="40.3712370" lon="-2.8388090">
        <ele>657.2</ele>
        <time>2019-07-07T09:21:19Z</time>
      </trkpt>
      <trkpt lat="40.3712000" lon="-2.8387790">
        <ele>657.4</ele>
        <time>2019-07-07T09:21:20Z</time>
      </trkpt>
      <trkpt lat="40.3709360" lon="-2.8385800">
        <ele>658.4</ele>
        <time>2019-07-07T09:21:27Z</time>
      </trkpt>
      <trkpt lat="40.3708380" lon="-2.8384560">
        <ele>659.0</ele>
        <time>2019-07-07T09:21:30Z</time>
      </trkpt>
      <trkpt lat="40.3707610" lon="-2.8383070">
        <ele>659.4</ele>
        <time>2019-07-07T09:21:33Z</time>
      </trkpt>
      <trkpt lat="40.3706010" lon="-2.8378750">
        <ele>660.2</ele>
        <time>2019-07-07T09:21:41Z</time>
      </trkpt>
      <trkpt lat="40.3705810" lon="-2.8378220">
        <ele>660.4</ele>
        <time>2019-07-07T09:21:42Z</time>
      </trkpt>
      <trkpt lat="40.3704600" lon="-2.8375250">
        <ele>661.6</ele>
        <time>2019-07-07T09:21:48Z</time>
      </trkpt>
      <trkpt lat="40.3703780" lon="-2.8373400">
        <ele>662.6</ele>
        <time>2019-07-07T09:21:52Z</time>
      </trkpt>
      <trkpt lat="40.3703620" lon="-2.8372900">
        <ele>663.0</ele>
        <time>2019-07-07T09:21:53Z</time>
      </trkpt>
      <trkpt lat="40.3703280" lon="-2.8371950">
        <ele>663.4</ele>
        <time>2019-07-07T09:21:55Z</time>
      </trkpt>
      <trkpt lat="40.3702930" lon="-2.8371000">
        <ele>664.0</ele>
        <time>2019-07-07T09:21:57Z</time>
      </trkpt>
      <trkpt lat="40.3702380" lon="-2.8368490">
        <ele>665.0</ele>
        <time>2019-07-07T09:22:02Z</time>
      </trkpt>
      <trkpt lat="40.3702190" lon="-2.8366870">
        <ele>665.4</ele>
        <time>2019-07-07T09:22:05Z</time>
      </trkpt>
      <trkpt lat="40.3702350" lon="-2.8365190">
        <ele>665.8</ele>
        <time>2019-07-07T09:22:08Z</time>
      </trkpt>
      <trkpt lat="40.3702460" lon="-2.8364600">
        <ele>666.0</ele>
        <time>2019-07-07T09:22:09Z</time>
      </trkpt>
      <trkpt lat="40.3702810" lon="-2.8363400">
        <ele>666.2</ele>
        <time>2019-07-07T09:22:11Z</time>
      </trkpt>
      <trkpt lat="40.3703370" lon="-2.8362270">
        <ele>666.2</ele>
        <time>2019-07-07T09:22:13Z</time>
      </trkpt>
      <trkpt lat="40.3705320" lon="-2.8358740">
        <ele>666.2</ele>
        <time>2019-07-07T09:22:19Z</time>
      </trkpt>
      <trkpt lat="40.3707410" lon="-2.8355090">
        <ele>666.0</ele>
        <time>2019-07-07T09:22:25Z</time>
      </trkpt>
      <trkpt lat="40.3709140" lon="-2.8352070">
        <ele>666.0</ele>
        <time>2019-07-07T09:22:30Z</time>
      </trkpt>
      <trkpt lat="40.3711510" lon="-2.8347770">
        <ele>666.4</ele>
        <time>2019-07-07T09:22:37Z</time>
      </trkpt>
      <trkpt lat="40.3711820" lon="-2.8347120">
        <ele>666.2</ele>
        <time>2019-07-07T09:22:38Z</time>
      </trkpt>
      <trkpt lat="40.3712640" lon="-2.8345040">
        <ele>666.0</ele>
        <time>2019-07-07T09:22:41Z</time>
      </trkpt>
      <trkpt lat="40.3712710" lon="-2.8343470">
        <ele>666.0</ele>
        <time>2019-07-07T09:22:43Z</time>
      </trkpt>
      <trkpt lat="40.3712350" lon="-2.8341930">
        <ele>666.0</ele>
        <time>2019-07-07T09:22:45Z</time>
      </trkpt>
      <trkpt lat="40.3711740" lon="-2.8340580">
        <ele>666.0</ele>
        <time>2019-07-07T09:22:47Z</time>
      </trkpt>
      <trkpt lat="40.3711000" lon="-2.8339390">
        <ele>666.2</ele>
        <time>2019-07-07T09:22:49Z</time>
      </trkpt>
      <trkpt lat="40.3709090" lon="-2.8336600">
        <ele>666.8</ele>
        <time>2019-07-07T09:22:54Z</time>
      </trkpt>
      <trkpt lat="40.3708700" lon="-2.8336060">
        <ele>666.8</ele>
        <time>2019-07-07T09:22:55Z</time>
      </trkpt>
      <trkpt lat="40.3705420" lon="-2.8331600">
        <ele>667.0</ele>
        <time>2019-07-07T09:23:03Z</time>
      </trkpt>
      <trkpt lat="40.3705000" lon="-2.8331000">
        <ele>666.8</ele>
        <time>2019-07-07T09:23:04Z</time>
      </trkpt>
      <trkpt lat="40.3704130" lon="-2.8329860">
        <ele>666.6</ele>
        <time>2019-07-07T09:23:06Z</time>
      </trkpt>
      <trkpt lat="40.3702060" lon="-2.8328060">
        <ele>666.6</ele>
        <time>2019-07-07T09:23:10Z</time>
      </trkpt>
      <trkpt lat="40.3699810" lon="-2.8326980">
        <ele>667.2</ele>
        <time>2019-07-07T09:23:14Z</time>
      </trkpt>
      <trkpt lat="40.3698690" lon="-2.8326580">
        <ele>667.4</ele>
        <time>2019-07-07T09:23:16Z</time>
      </trkpt>
      <trkpt lat="40.3696540" lon="-2.8325710">
        <ele>668.0</ele>
        <time>2019-07-07T09:23:20Z</time>
      </trkpt>
      <trkpt lat="40.3694940" lon="-2.8325120">
        <ele>668.4</ele>
        <time>2019-07-07T09:23:23Z</time>
      </trkpt>
      <trkpt lat="40.3692870" lon="-2.8324110">
        <ele>668.6</ele>
        <time>2019-07-07T09:23:27Z</time>
      </trkpt>
      <trkpt lat="40.3691900" lon="-2.8323410">
        <ele>668.8</ele>
        <time>2019-07-07T09:23:29Z</time>
      </trkpt>
      <trkpt lat="40.3691460" lon="-2.8323000">
        <ele>669.0</ele>
        <time>2019-07-07T09:23:30Z</time>
      </trkpt>
      <trkpt lat="40.3690270" lon="-2.8321440">
        <ele>669.4</ele>
        <time>2019-07-07T09:23:33Z</time>
      </trkpt>
      <trkpt lat="40.3688150" lon="-2.8317700">
        <ele>670.0</ele>
        <time>2019-07-07T09:23:39Z</time>
      </trkpt>
      <trkpt lat="40.3687830" lon="-2.8317060">
        <ele>670.0</ele>
        <time>2019-07-07T09:23:40Z</time>
      </trkpt>
      <trkpt lat="40.3686070" lon="-2.8314090">
        <ele>670.2</ele>
        <time>2019-07-07T09:23:45Z</time>
      </trkpt>
      <trkpt lat="40.3685700" lon="-2.8313570">
        <ele>670.2</ele>
        <time>2019-07-07T09:23:46Z</time>
      </trkpt>
      <trkpt lat="40.3684450" lon="-2.8312180">
        <ele>670.2</ele>
        <time>2019-07-07T09:23:49Z</time>
      </trkpt>
      <trkpt lat="40.3683980" lon="-2.8311710">
        <ele>670.2</ele>
        <time>2019-07-07T09:23:50Z</time>
      </trkpt>
      <trkpt lat="40.3681060" lon="-2.8309500">
        <ele>670.4</ele>
        <time>2019-07-07T09:23:56Z</time>
      </trkpt>
      <trkpt lat="40.3678320" lon="-2.8308250">
        <ele>670.6</ele>
        <time>2019-07-07T09:24:01Z</time>
      </trkpt>
      <trkpt lat="40.3674270" lon="-2.8306570">
        <ele>670.0</ele>
        <time>2019-07-07T09:24:08Z</time>
      </trkpt>
      <trkpt lat="40.3672430" lon="-2.8305600">
        <ele>669.8</ele>
        <time>2019-07-07T09:24:11Z</time>
      </trkpt>
      <trkpt lat="40.3671230" lon="-2.8304760">
        <ele>669.6</ele>
        <time>2019-07-07T09:24:13Z</time>
      </trkpt>
      <trkpt lat="40.3670690" lon="-2.8304210">
        <ele>669.4</ele>
        <time>2019-07-07T09:24:14Z</time>
      </trkpt>
      <trkpt lat="40.3669430" lon="-2.8302060">
        <ele>669.0</ele>
        <time>2019-07-07T09:24:17Z</time>
      </trkpt>
      <trkpt lat="40.3669080" lon="-2.8301310">
        <ele>668.8</ele>
        <time>2019-07-07T09:24:18Z</time>
      </trkpt>
      <trkpt lat="40.3668470" lon="-2.8299790">
        <ele>668.4</ele>
        <time>2019-07-07T09:24:20Z</time>
      </trkpt>
      <trkpt lat="40.3667770" lon="-2.8297280">
        <ele>668.2</ele>
        <time>2019-07-07T09:24:23Z</time>
      </trkpt>
      <trkpt lat="40.3666920" lon="-2.8293900">
        <ele>667.8</ele>
        <time>2019-07-07T09:24:27Z</time>
      </trkpt>
      <trkpt lat="40.3666280" lon="-2.8291130">
        <ele>667.4</ele>
        <time>2019-07-07T09:24:30Z</time>
      </trkpt>
      <trkpt lat="40.3665900" lon="-2.8289000">
        <ele>666.4</ele>
        <time>2019-07-07T09:24:32Z</time>
      </trkpt>
      <trkpt lat="40.3665490" lon="-2.8286670">
        <ele>665.4</ele>
        <time>2019-07-07T09:24:34Z</time>
      </trkpt>
      <trkpt lat="40.3665240" lon="-2.8285440">
        <ele>664.6</ele>
        <time>2019-07-07T09:24:35Z</time>
      </trkpt>
      <trkpt lat="40.3664990" lon="-2.8284190">
        <ele>664.0</ele>
        <time>2019-07-07T09:24:36Z</time>
      </trkpt>
      <trkpt lat="40.3664300" lon="-2.8281600">
        <ele>662.6</ele>
        <time>2019-07-07T09:24:38Z</time>
      </trkpt>
      <trkpt lat="40.3663330" lon="-2.8278950">
        <ele>660.8</ele>
        <time>2019-07-07T09:24:40Z</time>
      </trkpt>
      <trkpt lat="40.3662820" lon="-2.8277550">
        <ele>659.4</ele>
        <time>2019-07-07T09:24:41Z</time>
      </trkpt>
      <trkpt lat="40.3661960" lon="-2.8274580">
        <ele>657.4</ele>
        <time>2019-07-07T09:24:43Z</time>
      </trkpt>
      <trkpt lat="40.3661580" lon="-2.8273020">
        <ele>656.4</ele>
        <time>2019-07-07T09:24:44Z</time>
      </trkpt>
      <trkpt lat="40.3660790" lon="-2.8269880">
        <ele>654.4</ele>
        <time>2019-07-07T09:24:46Z</time>
      </trkpt>
      <trkpt lat="40.3659780" lon="-2.8266720">
        <ele>652.8</ele>
        <time>2019-07-07T09:24:48Z</time>
      </trkpt>
      <trkpt lat="40.3659250" lon="-2.8265220">
        <ele>651.0</ele>
        <time>2019-07-07T09:24:49Z</time>
      </trkpt>
      <trkpt lat="40.3658690" lon="-2.8263820">
        <ele>649.8</ele>
        <time>2019-07-07T09:24:50Z</time>
      </trkpt>
      <trkpt lat="40.3657330" lon="-2.8261350">
        <ele>648.4</ele>
        <time>2019-07-07T09:24:52Z</time>
      </trkpt>
      <trkpt lat="40.3655430" lon="-2.8259820">
        <ele>647.2</ele>
        <time>2019-07-07T09:24:54Z</time>
      </trkpt>
      <trkpt lat="40.3654390" lon="-2.8259220">
        <ele>646.4</ele>
        <time>2019-07-07T09:24:55Z</time>
      </trkpt>
      <trkpt lat="40.3653370" lon="-2.8258600">
        <ele>645.8</ele>
        <time>2019-07-07T09:24:56Z</time>
      </trkpt>
      <trkpt lat="40.3652400" lon="-2.8257870">
        <ele>645.0</ele>
        <time>2019-07-07T09:24:57Z</time>
      </trkpt>
      <trkpt lat="40.3651460" lon="-2.8257040">
        <ele>644.4</ele>
        <time>2019-07-07T09:24:58Z</time>
      </trkpt>
      <trkpt lat="40.3650540" lon="-2.8256160">
        <ele>644.0</ele>
        <time>2019-07-07T09:24:59Z</time>
      </trkpt>
      <trkpt lat="40.3649630" lon="-2.8255310">
        <ele>643.4</ele>
        <time>2019-07-07T09:25:00Z</time>
      </trkpt>
      <trkpt lat="40.3646930" lon="-2.8252670">
        <ele>642.2</ele>
        <time>2019-07-07T09:25:03Z</time>
      </trkpt>
      <trkpt lat="40.3645200" lon="-2.8250880">
        <ele>641.0</ele>
        <time>2019-07-07T09:25:05Z</time>
      </trkpt>
      <trkpt lat="40.3644360" lon="-2.8249970">
        <ele>640.6</ele>
        <time>2019-07-07T09:25:06Z</time>
      </trkpt>
      <trkpt lat="40.3642680" lon="-2.8248120">
        <ele>639.8</ele>
        <time>2019-07-07T09:25:08Z</time>
      </trkpt>
      <trkpt lat="40.3641000" lon="-2.8246220">
        <ele>638.6</ele>
        <time>2019-07-07T09:25:10Z</time>
      </trkpt>
      <trkpt lat="40.3640220" lon="-2.8245240">
        <ele>638.2</ele>
        <time>2019-07-07T09:25:11Z</time>
      </trkpt>
      <trkpt lat="40.3639460" lon="-2.8244290">
        <ele>637.6</ele>
        <time>2019-07-07T09:25:12Z</time>
      </trkpt>
      <trkpt lat="40.3638110" lon="-2.8242380">
        <ele>636.4</ele>
        <time>2019-07-07T09:25:14Z</time>
      </trkpt>
      <trkpt lat="40.3636980" lon="-2.8240480">
        <ele>635.4</ele>
        <time>2019-07-07T09:25:16Z</time>
      </trkpt>
      <trkpt lat="40.3636530" lon="-2.8239600">
        <ele>635.2</ele>
        <time>2019-07-07T09:25:17Z</time>
      </trkpt>
      <trkpt lat="40.3635800" lon="-2.8238020">
        <ele>634.0</ele>
        <time>2019-07-07T09:25:19Z</time>
      </trkpt>
      <trkpt lat="40.3635510" lon="-2.8237260">
        <ele>633.6</ele>
        <time>2019-07-07T09:25:20Z</time>
      </trkpt>
      <trkpt lat="40.3634880" lon="-2.8235680">
        <ele>632.8</ele>
        <time>2019-07-07T09:25:22Z</time>
      </trkpt>
      <trkpt lat="40.3633970" lon="-2.8234560">
        <ele>632.2</ele>
        <time>2019-07-07T09:25:24Z</time>
      </trkpt>
      <trkpt lat="40.3632870" lon="-2.8233910">
        <ele>631.8</ele>
        <time>2019-07-07T09:25:26Z</time>
      </trkpt>
      <trkpt lat="40.3632290" lon="-2.8233610">
        <ele>631.4</ele>
        <time>2019-07-07T09:25:27Z</time>
      </trkpt>
      <trkpt lat="40.3631070" lon="-2.8233350">
        <ele>631.2</ele>
        <time>2019-07-07T09:25:29Z</time>
      </trkpt>
      <trkpt lat="40.3629850" lon="-2.8233470">
        <ele>630.8</ele>
        <time>2019-07-07T09:25:31Z</time>
      </trkpt>
      <trkpt lat="40.3629260" lon="-2.8233560">
        <ele>630.6</ele>
        <time>2019-07-07T09:25:32Z</time>
      </trkpt>
      <trkpt lat="40.3627600" lon="-2.8233770">
        <ele>630.4</ele>
        <time>2019-07-07T09:25:35Z</time>
      </trkpt>
      <trkpt lat="40.3626060" lon="-2.8234130">
        <ele>629.6</ele>
        <time>2019-07-07T09:25:39Z</time>
      </trkpt>
      <trkpt lat="40.3625680" lon="-2.8235220">
        <ele>629.2</ele>
        <time>2019-07-07T09:25:42Z</time>
      </trkpt>
      <trkpt lat="40.3626380" lon="-2.8236800">
        <ele>629.0</ele>
        <time>2019-07-07T09:25:45Z</time>
      </trkpt>
      <trkpt lat="40.3626730" lon="-2.8237400">
        <ele>628.6</ele>
        <time>2019-07-07T09:25:46Z</time>
      </trkpt>
      <trkpt lat="40.3627080" lon="-2.8238040">
        <ele>628.2</ele>
        <time>2019-07-07T09:25:47Z</time>
      </trkpt>
      <trkpt lat="40.3628030" lon="-2.8240030">
        <ele>627.6</ele>
        <time>2019-07-07T09:25:50Z</time>
      </trkpt>
      <trkpt lat="40.3628210" lon="-2.8240690">
        <ele>627.4</ele>
        <time>2019-07-07T09:25:51Z</time>
      </trkpt>
      <trkpt lat="40.3628240" lon="-2.8242630">
        <ele>627.0</ele>
        <time>2019-07-07T09:25:54Z</time>
      </trkpt>
      <trkpt lat="40.3628160" lon="-2.8243790">
        <ele>627.0</ele>
        <time>2019-07-07T09:25:56Z</time>
      </trkpt>
      <trkpt lat="40.3627980" lon="-2.8244850">
        <ele>627.2</ele>
        <time>2019-07-07T09:25:58Z</time>
      </trkpt>
      <trkpt lat="40.3627880" lon="-2.8245460">
        <ele>627.4</ele>
        <time>2019-07-07T09:25:59Z</time>
      </trkpt>
      <trkpt lat="40.3627810" lon="-2.8246100">
        <ele>627.4</ele>
        <time>2019-07-07T09:26:00Z</time>
      </trkpt>
      <trkpt lat="40.3627630" lon="-2.8248220">
        <ele>627.6</ele>
        <time>2019-07-07T09:26:03Z</time>
      </trkpt>
      <trkpt lat="40.3627660" lon="-2.8248990">
        <ele>627.6</ele>
        <time>2019-07-07T09:26:04Z</time>
      </trkpt>
      <trkpt lat="40.3627720" lon="-2.8250390">
        <ele>627.6</ele>
        <time>2019-07-07T09:26:06Z</time>
      </trkpt>
      <trkpt lat="40.3627780" lon="-2.8251000">
        <ele>627.8</ele>
        <time>2019-07-07T09:26:07Z</time>
      </trkpt>
      <trkpt lat="40.3627960" lon="-2.8252060">
        <ele>628.4</ele>
        <time>2019-07-07T09:26:09Z</time>
      </trkpt>
      <trkpt lat="40.3628030" lon="-2.8252520">
        <ele>628.6</ele>
        <time>2019-07-07T09:26:10Z</time>
      </trkpt>
      <trkpt lat="40.3628150" lon="-2.8253390">
        <ele>629.2</ele>
        <time>2019-07-07T09:26:12Z</time>
      </trkpt>
      <trkpt lat="40.3628310" lon="-2.8254200">
        <ele>629.8</ele>
        <time>2019-07-07T09:26:14Z</time>
      </trkpt>
      <trkpt lat="40.3628360" lon="-2.8254630">
        <ele>630.0</ele>
        <time>2019-07-07T09:26:15Z</time>
      </trkpt>
      <trkpt lat="40.3628450" lon="-2.8255490">
        <ele>630.8</ele>
        <time>2019-07-07T09:26:17Z</time>
      </trkpt>
      <trkpt lat="40.3628660" lon="-2.8256820">
        <ele>631.4</ele>
        <time>2019-07-07T09:26:20Z</time>
      </trkpt>
      <trkpt lat="40.3628720" lon="-2.8257710">
        <ele>632.0</ele>
        <time>2019-07-07T09:26:22Z</time>
      </trkpt>
      <trkpt lat="40.3628820" lon="-2.8258530">
        <ele>632.4</ele>
        <time>2019-07-07T09:26:24Z</time>
      </trkpt>
      <trkpt lat="40.3628910" lon="-2.8259590">
        <ele>633.2</ele>
        <time>2019-07-07T09:26:27Z</time>
      </trkpt>
      <trkpt lat="40.3629040" lon="-2.8260630">
        <ele>633.6</ele>
        <time>2019-07-07T09:26:30Z</time>
      </trkpt>
      <trkpt lat="40.3629100" lon="-2.8261710">
        <ele>634.0</ele>
        <time>2019-07-07T09:26:33Z</time>
      </trkpt>
      <trkpt lat="40.3628990" lon="-2.8262490">
        <ele>634.2</ele>
        <time>2019-07-07T09:26:35Z</time>
      </trkpt>
      <trkpt lat="40.3628770" lon="-2.8264080">
        <ele>635.2</ele>
        <time>2019-07-07T09:26:39Z</time>
      </trkpt>
      <trkpt lat="40.3628600" lon="-2.8265100">
        <ele>635.8</ele>
        <time>2019-07-07T09:26:42Z</time>
      </trkpt>
      <trkpt lat="40.3628500" lon="-2.8265800">
        <ele>636.0</ele>
        <time>2019-07-07T09:26:44Z</time>
      </trkpt>
      <trkpt lat="40.3628460" lon="-2.8266160">
        <ele>636.4</ele>
        <time>2019-07-07T09:26:45Z</time>
      </trkpt>
      <trkpt lat="40.3628360" lon="-2.8266600">
        <ele>636.4</ele>
        <time>2019-07-07T09:26:46Z</time>
      </trkpt>
      <trkpt lat="40.3628170" lon="-2.8267400">
        <ele>637.0</ele>
        <time>2019-07-07T09:26:48Z</time>
      </trkpt>
      <trkpt lat="40.3628080" lon="-2.8267780">
        <ele>637.4</ele>
        <time>2019-07-07T09:26:49Z</time>
      </trkpt>
      <trkpt lat="40.3627840" lon="-2.8269020">
        <ele>637.8</ele>
        <time>2019-07-07T09:26:52Z</time>
      </trkpt>
      <trkpt lat="40.3627370" lon="-2.8270700">
        <ele>638.6</ele>
        <time>2019-07-07T09:26:56Z</time>
      </trkpt>
      <trkpt lat="40.3627070" lon="-2.8271860">
        <ele>639.4</ele>
        <time>2019-07-07T09:26:59Z</time>
      </trkpt>
      <trkpt lat="40.3626810" lon="-2.8272660">
        <ele>639.8</ele>
        <time>2019-07-07T09:27:01Z</time>
      </trkpt>
      <trkpt lat="40.3626420" lon="-2.8273740">
        <ele>640.8</ele>
        <time>2019-07-07T09:27:04Z</time>
      </trkpt>
      <trkpt lat="40.3626320" lon="-2.8274090">
        <ele>641.2</ele>
        <time>2019-07-07T09:27:05Z</time>
      </trkpt>
      <trkpt lat="40.3625770" lon="-2.8276010">
        <ele>642.0</ele>
        <time>2019-07-07T09:27:10Z</time>
      </trkpt>
      <trkpt lat="40.3625650" lon="-2.8276400">
        <ele>642.2</ele>
        <time>2019-07-07T09:27:11Z</time>
      </trkpt>
      <trkpt lat="40.3625380" lon="-2.8277170">
        <ele>642.6</ele>
        <time>2019-07-07T09:27:13Z</time>
      </trkpt>
      <trkpt lat="40.3625080" lon="-2.8278470">
        <ele>643.0</ele>
        <time>2019-07-07T09:27:16Z</time>
      </trkpt>
      <trkpt lat="40.3624710" lon="-2.8280430">
        <ele>643.4</ele>
        <time>2019-07-07T09:27:20Z</time>
      </trkpt>
      <trkpt lat="40.3624260" lon="-2.8281930">
        <ele>644.0</ele>
        <time>2019-07-07T09:27:23Z</time>
      </trkpt>
      <trkpt lat="40.3624260" lon="-2.8283060">
        <ele>644.2</ele>
        <time>2019-07-07T09:27:25Z</time>
      </trkpt>
      <trkpt lat="40.3624520" lon="-2.8284090">
        <ele>644.4</ele>
        <time>2019-07-07T09:27:27Z</time>
      </trkpt>
      <trkpt lat="40.3625020" lon="-2.8285650">
        <ele>644.6</ele>
        <time>2019-07-07T09:27:30Z</time>
      </trkpt>
      <trkpt lat="40.3625660" lon="-2.8287770">
        <ele>645.0</ele>
        <time>2019-07-07T09:27:34Z</time>
      </trkpt>
      <trkpt lat="40.3625820" lon="-2.8288280">
        <ele>645.0</ele>
        <time>2019-07-07T09:27:35Z</time>
      </trkpt>
      <trkpt lat="40.3626200" lon="-2.8289250">
        <ele>645.0</ele>
        <time>2019-07-07T09:27:37Z</time>
      </trkpt>
      <trkpt lat="40.3626830" lon="-2.8290780">
        <ele>645.2</ele>
        <time>2019-07-07T09:27:40Z</time>
      </trkpt>
      <trkpt lat="40.3627180" lon="-2.8291880">
        <ele>645.4</ele>
        <time>2019-07-07T09:27:42Z</time>
      </trkpt>
      <trkpt lat="40.3627280" lon="-2.8292480">
        <ele>645.6</ele>
        <time>2019-07-07T09:27:43Z</time>
      </trkpt>
      <trkpt lat="40.3627400" lon="-2.8293650">
        <ele>645.6</ele>
        <time>2019-07-07T09:27:45Z</time>
      </trkpt>
      <trkpt lat="40.3627360" lon="-2.8294940">
        <ele>645.6</ele>
        <time>2019-07-07T09:27:47Z</time>
      </trkpt>
      <trkpt lat="40.3627280" lon="-2.8295620">
        <ele>645.6</ele>
        <time>2019-07-07T09:27:48Z</time>
      </trkpt>
      <trkpt lat="40.3626750" lon="-2.8297700">
        <ele>645.6</ele>
        <time>2019-07-07T09:27:51Z</time>
      </trkpt>
      <trkpt lat="40.3626310" lon="-2.8299110">
        <ele>645.6</ele>
        <time>2019-07-07T09:27:53Z</time>
      </trkpt>
      <trkpt lat="40.3626090" lon="-2.8299810">
        <ele>645.6</ele>
        <time>2019-07-07T09:27:54Z</time>
      </trkpt>
      <trkpt lat="40.3624260" lon="-2.8305610">
        <ele>645.2</ele>
        <time>2019-07-07T09:28:02Z</time>
      </trkpt>
      <trkpt lat="40.3624070" lon="-2.8306340">
        <ele>645.2</ele>
        <time>2019-07-07T09:28:03Z</time>
      </trkpt>
      <trkpt lat="40.3622340" lon="-2.8312330">
        <ele>644.6</ele>
        <time>2019-07-07T09:28:11Z</time>
      </trkpt>
      <trkpt lat="40.3620500" lon="-2.8318340">
        <ele>645.0</ele>
        <time>2019-07-07T09:28:19Z</time>
      </trkpt>
      <trkpt lat="40.3619060" lon="-2.8324420">
        <ele>645.4</ele>
        <time>2019-07-07T09:28:27Z</time>
      </trkpt>
      <trkpt lat="40.3618800" lon="-2.8325980">
        <ele>645.4</ele>
        <time>2019-07-07T09:28:29Z</time>
      </trkpt>
      <trkpt lat="40.3617760" lon="-2.8331610">
        <ele>645.6</ele>
        <time>2019-07-07T09:28:36Z</time>
      </trkpt>
      <trkpt lat="40.3616450" lon="-2.8338210">
        <ele>645.6</ele>
        <time>2019-07-07T09:28:44Z</time>
      </trkpt>
      <trkpt lat="40.3615500" lon="-2.8342980">
        <ele>646.0</ele>
        <time>2019-07-07T09:28:50Z</time>
      </trkpt>
      <trkpt lat="40.3615190" lon="-2.8344580">
        <ele>646.2</ele>
        <time>2019-07-07T09:28:52Z</time>
      </trkpt>
      <trkpt lat="40.3613860" lon="-2.8351250">
        <ele>645.8</ele>
        <time>2019-07-07T09:29:00Z</time>
      </trkpt>
      <trkpt lat="40.3612380" lon="-2.8358900">
        <ele>645.8</ele>
        <time>2019-07-07T09:29:09Z</time>
      </trkpt>
      <trkpt lat="40.3610630" lon="-2.8366070">
        <ele>646.2</ele>
        <time>2019-07-07T09:29:18Z</time>
      </trkpt>
      <trkpt lat="40.3608850" lon="-2.8371090">
        <ele>646.6</ele>
        <time>2019-07-07T09:29:25Z</time>
      </trkpt>
      <trkpt lat="40.3607450" lon="-2.8375150">
        <ele>647.0</ele>
        <time>2019-07-07T09:29:31Z</time>
      </trkpt>
      <trkpt lat="40.3607060" lon="-2.8376430">
        <ele>647.0</ele>
        <time>2019-07-07T09:29:33Z</time>
      </trkpt>
      <trkpt lat="40.3606430" lon="-2.8378230">
        <ele>647.2</ele>
        <time>2019-07-07T09:29:36Z</time>
      </trkpt>
      <trkpt lat="40.3605140" lon="-2.8381710">
        <ele>648.0</ele>
        <time>2019-07-07T09:29:42Z</time>
      </trkpt>
      <trkpt lat="40.3604690" lon="-2.8382750">
        <ele>648.2</ele>
        <time>2019-07-07T09:29:44Z</time>
      </trkpt>
      <trkpt lat="40.3603570" lon="-2.8385060">
        <ele>649.2</ele>
        <time>2019-07-07T09:29:49Z</time>
      </trkpt>
      <trkpt lat="40.3603350" lon="-2.8385460">
        <ele>649.4</ele>
        <time>2019-07-07T09:29:50Z</time>
      </trkpt>
      <trkpt lat="40.3602560" lon="-2.8386950">
        <ele>650.4</ele>
        <time>2019-07-07T09:29:54Z</time>
      </trkpt>
      <trkpt lat="40.3601930" lon="-2.8387870">
        <ele>651.2</ele>
        <time>2019-07-07T09:29:57Z</time>
      </trkpt>
      <trkpt lat="40.3601710" lon="-2.8388160">
        <ele>651.6</ele>
        <time>2019-07-07T09:29:58Z</time>
      </trkpt>
      <trkpt lat="40.3600520" lon="-2.8389610">
        <ele>652.4</ele>
        <time>2019-07-07T09:30:03Z</time>
      </trkpt>
      <trkpt lat="40.3600280" lon="-2.8389910">
        <ele>652.6</ele>
        <time>2019-07-07T09:30:04Z</time>
      </trkpt>
      <trkpt lat="40.3599300" lon="-2.8391030">
        <ele>653.6</ele>
        <time>2019-07-07T09:30:08Z</time>
      </trkpt>
      <trkpt lat="40.3599050" lon="-2.8391290">
        <ele>653.8</ele>
        <time>2019-07-07T09:30:09Z</time>
      </trkpt>
      <trkpt lat="40.3597740" lon="-2.8392670">
        <ele>654.6</ele>
        <time>2019-07-07T09:30:14Z</time>
      </trkpt>
      <trkpt lat="40.3597480" lon="-2.8392960">
        <ele>654.8</ele>
        <time>2019-07-07T09:30:15Z</time>
      </trkpt>
      <trkpt lat="40.3596000" lon="-2.8394670">
        <ele>655.8</ele>
        <time>2019-07-07T09:30:21Z</time>
      </trkpt>
      <trkpt lat="40.3595800" lon="-2.8395000">
        <ele>656.0</ele>
        <time>2019-07-07T09:30:22Z</time>
      </trkpt>
      <trkpt lat="40.3595460" lon="-2.8395680">
        <ele>656.8</ele>
        <time>2019-07-07T09:30:24Z</time>
      </trkpt>
      <trkpt lat="40.3595180" lon="-2.8396360">
        <ele>657.4</ele>
        <time>2019-07-07T09:30:26Z</time>
      </trkpt>
      <trkpt lat="40.3594670" lon="-2.8398040">
        <ele>658.6</ele>
        <time>2019-07-07T09:30:31Z</time>
      </trkpt>
      <trkpt lat="40.3594570" lon="-2.8398370">
        <ele>658.8</ele>
        <time>2019-07-07T09:30:32Z</time>
      </trkpt>
      <trkpt lat="40.3594330" lon="-2.8399360">
        <ele>659.6</ele>
        <time>2019-07-07T09:30:35Z</time>
      </trkpt>
      <trkpt lat="40.3594310" lon="-2.8400670">
        <ele>660.8</ele>
        <time>2019-07-07T09:30:39Z</time>
      </trkpt>
      <trkpt lat="40.3594410" lon="-2.8402380">
        <ele>662.0</ele>
        <time>2019-07-07T09:30:44Z</time>
      </trkpt>
      <trkpt lat="40.3594660" lon="-2.8403380">
        <ele>663.0</ele>
        <time>2019-07-07T09:30:47Z</time>
      </trkpt>
      <trkpt lat="40.3595250" lon="-2.8405120">
        <ele>664.2</ele>
        <time>2019-07-07T09:30:52Z</time>
      </trkpt>
      <trkpt lat="40.3595490" lon="-2.8405830">
        <ele>664.8</ele>
        <time>2019-07-07T09:30:54Z</time>
      </trkpt>
      <trkpt lat="40.3595810" lon="-2.8406940">
        <ele>665.4</ele>
        <time>2019-07-07T09:30:57Z</time>
      </trkpt>
      <trkpt lat="40.3596340" lon="-2.8408880">
        <ele>666.8</ele>
        <time>2019-07-07T09:31:02Z</time>
      </trkpt>
      <trkpt lat="40.3596640" lon="-2.8410920">
        <ele>667.8</ele>
        <time>2019-07-07T09:31:07Z</time>
      </trkpt>
      <trkpt lat="40.3596680" lon="-2.8412160">
        <ele>668.4</ele>
        <time>2019-07-07T09:31:10Z</time>
      </trkpt>
      <trkpt lat="40.3596650" lon="-2.8413010">
        <ele>668.8</ele>
        <time>2019-07-07T09:31:12Z</time>
      </trkpt>
      <trkpt lat="40.3596410" lon="-2.8415530">
        <ele>669.8</ele>
        <time>2019-07-07T09:31:18Z</time>
      </trkpt>
      <trkpt lat="40.3596320" lon="-2.8415960">
        <ele>669.8</ele>
        <time>2019-07-07T09:31:19Z</time>
      </trkpt>
      <trkpt lat="40.3595370" lon="-2.8419410">
        <ele>670.8</ele>
        <time>2019-07-07T09:31:27Z</time>
      </trkpt>
      <trkpt lat="40.3595200" lon="-2.8419810">
        <ele>671.0</ele>
        <time>2019-07-07T09:31:28Z</time>
      </trkpt>
      <trkpt lat="40.3593680" lon="-2.8422550">
        <ele>672.0</ele>
        <time>2019-07-07T09:31:35Z</time>
      </trkpt>
      <trkpt lat="40.3591310" lon="-2.8426040">
        <ele>672.6</ele>
        <time>2019-07-07T09:31:43Z</time>
      </trkpt>
      <trkpt lat="40.3590160" lon="-2.8427520">
        <ele>672.4</ele>
        <time>2019-07-07T09:31:46Z</time>
      </trkpt>
      <trkpt lat="40.3589350" lon="-2.8428570">
        <ele>672.4</ele>
        <time>2019-07-07T09:31:48Z</time>
      </trkpt>
      <trkpt lat="40.3588490" lon="-2.8429670">
        <ele>672.4</ele>
        <time>2019-07-07T09:31:50Z</time>
      </trkpt>
      <trkpt lat="40.3587160" lon="-2.8431310">
        <ele>672.2</ele>
        <time>2019-07-07T09:31:53Z</time>
      </trkpt>
      <trkpt lat="40.3586210" lon="-2.8432300">
        <ele>671.8</ele>
        <time>2019-07-07T09:31:55Z</time>
      </trkpt>
      <trkpt lat="40.3584620" lon="-2.8433670">
        <ele>671.4</ele>
        <time>2019-07-07T09:31:58Z</time>
      </trkpt>
      <trkpt lat="40.3582830" lon="-2.8434860">
        <ele>671.0</ele>
        <time>2019-07-07T09:32:01Z</time>
      </trkpt>
      <trkpt lat="40.3582210" lon="-2.8435240">
        <ele>670.8</ele>
        <time>2019-07-07T09:32:02Z</time>
      </trkpt>
      <trkpt lat="40.3580950" lon="-2.8436040">
        <ele>670.4</ele>
        <time>2019-07-07T09:32:04Z</time>
      </trkpt>
      <trkpt lat="40.3579690" lon="-2.8436860">
        <ele>670.2</ele>
        <time>2019-07-07T09:32:06Z</time>
      </trkpt>
      <trkpt lat="40.3579050" lon="-2.8437260">
        <ele>670.0</ele>
        <time>2019-07-07T09:32:07Z</time>
      </trkpt>
      <trkpt lat="40.3577100" lon="-2.8438420">
        <ele>669.2</ele>
        <time>2019-07-07T09:32:10Z</time>
      </trkpt>
      <trkpt lat="40.3575840" lon="-2.8439270">
        <ele>669.2</ele>
        <time>2019-07-07T09:32:12Z</time>
      </trkpt>
      <trkpt lat="40.3571880" lon="-2.8441620">
        <ele>668.6</ele>
        <time>2019-07-07T09:32:18Z</time>
      </trkpt>
      <trkpt lat="40.3571230" lon="-2.8442050">
        <ele>668.4</ele>
        <time>2019-07-07T09:32:19Z</time>
      </trkpt>
      <trkpt lat="40.3568630" lon="-2.8443830">
        <ele>668.2</ele>
        <time>2019-07-07T09:32:23Z</time>
      </trkpt>
      <trkpt lat="40.3566670" lon="-2.8445060">
        <ele>668.0</ele>
        <time>2019-07-07T09:32:26Z</time>
      </trkpt>
      <trkpt lat="40.3564700" lon="-2.8446370">
        <ele>667.8</ele>
        <time>2019-07-07T09:32:29Z</time>
      </trkpt>
      <trkpt lat="40.3559570" lon="-2.8449710">
        <ele>667.2</ele>
        <time>2019-07-07T09:32:37Z</time>
      </trkpt>
      <trkpt lat="40.3558940" lon="-2.8450100">
        <ele>667.4</ele>
        <time>2019-07-07T09:32:38Z</time>
      </trkpt>
      <trkpt lat="40.3553790" lon="-2.8452670">
        <ele>667.4</ele>
        <time>2019-07-07T09:32:46Z</time>
      </trkpt>
      <trkpt lat="40.3553130" lon="-2.8452900">
        <ele>667.2</ele>
        <time>2019-07-07T09:32:47Z</time>
      </trkpt>
      <trkpt lat="40.3551170" lon="-2.8453680">
        <ele>667.0</ele>
        <time>2019-07-07T09:32:50Z</time>
      </trkpt>
      <trkpt lat="40.3548540" lon="-2.8454840">
        <ele>666.8</ele>
        <time>2019-07-07T09:32:54Z</time>
      </trkpt>
      <trkpt lat="40.3542730" lon="-2.8457170">
        <ele>666.8</ele>
        <time>2019-07-07T09:33:03Z</time>
      </trkpt>
      <trkpt lat="40.3537470" lon="-2.8459420">
        <ele>666.8</ele>
        <time>2019-07-07T09:33:11Z</time>
      </trkpt>
      <trkpt lat="40.3532250" lon="-2.8461910">
        <ele>667.4</ele>
        <time>2019-07-07T09:33:19Z</time>
      </trkpt>
      <trkpt lat="40.3528820" lon="-2.8464660">
        <ele>667.6</ele>
        <time>2019-07-07T09:33:25Z</time>
      </trkpt>
      <trkpt lat="40.3524220" lon="-2.8468890">
        <ele>667.4</ele>
        <time>2019-07-07T09:33:33Z</time>
      </trkpt>
      <trkpt lat="40.3521950" lon="-2.8470880">
        <ele>667.6</ele>
        <time>2019-07-07T09:33:37Z</time>
      </trkpt>
      <trkpt lat="40.3517310" lon="-2.8474400">
        <ele>667.6</ele>
        <time>2019-07-07T09:33:45Z</time>
      </trkpt>
      <trkpt lat="40.3512020" lon="-2.8477620">
        <ele>667.8</ele>
        <time>2019-07-07T09:33:54Z</time>
      </trkpt>
      <trkpt lat="40.3511450" lon="-2.8477980">
        <ele>667.8</ele>
        <time>2019-07-07T09:33:55Z</time>
      </trkpt>
      <trkpt lat="40.3508490" lon="-2.8479590">
        <ele>668.4</ele>
        <time>2019-07-07T09:34:00Z</time>
      </trkpt>
      <trkpt lat="40.3506680" lon="-2.8480300">
        <ele>668.6</ele>
        <time>2019-07-07T09:34:03Z</time>
      </trkpt>
      <trkpt lat="40.3501910" lon="-2.8481890">
        <ele>668.8</ele>
        <time>2019-07-07T09:34:11Z</time>
      </trkpt>
      <trkpt lat="40.3498470" lon="-2.8483790">
        <ele>669.2</ele>
        <time>2019-07-07T09:34:17Z</time>
      </trkpt>
      <trkpt lat="40.3496830" lon="-2.8484970">
        <ele>669.6</ele>
        <time>2019-07-07T09:34:20Z</time>
      </trkpt>
      <trkpt lat="40.3494150" lon="-2.8486880">
        <ele>670.0</ele>
        <time>2019-07-07T09:34:25Z</time>
      </trkpt>
      <trkpt lat="40.3488970" lon="-2.8489650">
        <ele>670.6</ele>
        <time>2019-07-07T09:34:34Z</time>
      </trkpt>
      <trkpt lat="40.3485640" lon="-2.8491200">
        <ele>671.4</ele>
        <time>2019-07-07T09:34:40Z</time>
      </trkpt>
      <trkpt lat="40.3484000" lon="-2.8491910">
        <ele>671.8</ele>
        <time>2019-07-07T09:34:43Z</time>
      </trkpt>
      <trkpt lat="40.3482940" lon="-2.8492440">
        <ele>671.8</ele>
        <time>2019-07-07T09:34:45Z</time>
      </trkpt>
      <trkpt lat="40.3479200" lon="-2.8494200">
        <ele>672.0</ele>
        <time>2019-07-07T09:34:52Z</time>
      </trkpt>
      <trkpt lat="40.3475410" lon="-2.8495970">
        <ele>672.6</ele>
        <time>2019-07-07T09:34:59Z</time>
      </trkpt>
      <trkpt lat="40.3473710" lon="-2.8496710">
        <ele>673.0</ele>
        <time>2019-07-07T09:35:02Z</time>
      </trkpt>
      <trkpt lat="40.3470900" lon="-2.8497850">
        <ele>673.8</ele>
        <time>2019-07-07T09:35:07Z</time>
      </trkpt>
      <trkpt lat="40.3469230" lon="-2.8498510">
        <ele>674.0</ele>
        <time>2019-07-07T09:35:10Z</time>
      </trkpt>
      <trkpt lat="40.3465990" lon="-2.8499600">
        <ele>674.8</ele>
        <time>2019-07-07T09:35:16Z</time>
      </trkpt>
      <trkpt lat="40.3464380" lon="-2.8500110">
        <ele>675.0</ele>
        <time>2019-07-07T09:35:19Z</time>
      </trkpt>
      <trkpt lat="40.3460650" lon="-2.8501290">
        <ele>675.6</ele>
        <time>2019-07-07T09:35:26Z</time>
      </trkpt>
      <trkpt lat="40.3457930" lon="-2.8501960">
        <ele>676.2</ele>
        <time>2019-07-07T09:35:31Z</time>
      </trkpt>
      <trkpt lat="40.3455690" lon="-2.8502400">
        <ele>676.4</ele>
        <time>2019-07-07T09:35:35Z</time>
      </trkpt>
      <trkpt lat="40.3450580" lon="-2.8503220">
        <ele>676.6</ele>
        <time>2019-07-07T09:35:44Z</time>
      </trkpt>
      <trkpt lat="40.3445910" lon="-2.8503770">
        <ele>677.2</ele>
        <time>2019-07-07T09:35:52Z</time>
      </trkpt>
      <trkpt lat="40.3445330" lon="-2.8503820">
        <ele>677.2</ele>
        <time>2019-07-07T09:35:53Z</time>
      </trkpt>
      <trkpt lat="40.3439480" lon="-2.8503970">
        <ele>678.0</ele>
        <time>2019-07-07T09:36:03Z</time>
      </trkpt>
      <trkpt lat="40.3434730" lon="-2.8503740">
        <ele>678.4</ele>
        <time>2019-07-07T09:36:11Z</time>
      </trkpt>
      <trkpt lat="40.3434130" lon="-2.8503730">
        <ele>678.4</ele>
        <time>2019-07-07T09:36:12Z</time>
      </trkpt>
      <trkpt lat="40.3428730" lon="-2.8504170">
        <ele>678.8</ele>
        <time>2019-07-07T09:36:21Z</time>
      </trkpt>
      <trkpt lat="40.3428120" lon="-2.8504300">
        <ele>678.8</ele>
        <time>2019-07-07T09:36:22Z</time>
      </trkpt>
      <trkpt lat="40.3422710" lon="-2.8505440">
        <ele>679.2</ele>
        <time>2019-07-07T09:36:31Z</time>
      </trkpt>
      <trkpt lat="40.3422110" lon="-2.8505530">
        <ele>679.4</ele>
        <time>2019-07-07T09:36:32Z</time>
      </trkpt>
      <trkpt lat="40.3420880" lon="-2.8505780">
        <ele>679.4</ele>
        <time>2019-07-07T09:36:34Z</time>
      </trkpt>
      <trkpt lat="40.3417820" lon="-2.8506300">
        <ele>679.8</ele>
        <time>2019-07-07T09:36:39Z</time>
      </trkpt>
      <trkpt lat="40.3412290" lon="-2.8507000">
        <ele>680.0</ele>
        <time>2019-07-07T09:36:48Z</time>
      </trkpt>
      <trkpt lat="40.3406780" lon="-2.8507380">
        <ele>680.6</ele>
        <time>2019-07-07T09:36:57Z</time>
      </trkpt>
      <trkpt lat="40.3405570" lon="-2.8507410">
        <ele>680.6</ele>
        <time>2019-07-07T09:36:59Z</time>
      </trkpt>
      <trkpt lat="40.3401260" lon="-2.8507580">
        <ele>680.6</ele>
        <time>2019-07-07T09:37:06Z</time>
      </trkpt>
      <trkpt lat="40.3396910" lon="-2.8507180">
        <ele>681.0</ele>
        <time>2019-07-07T09:37:13Z</time>
      </trkpt>
      <trkpt lat="40.3391860" lon="-2.8506800">
        <ele>681.6</ele>
        <time>2019-07-07T09:37:21Z</time>
      </trkpt>
      <trkpt lat="40.3391230" lon="-2.8506770">
        <ele>681.8</ele>
        <time>2019-07-07T09:37:22Z</time>
      </trkpt>
      <trkpt lat="40.3388070" lon="-2.8506180">
        <ele>682.0</ele>
        <time>2019-07-07T09:37:27Z</time>
      </trkpt>
      <trkpt lat="40.3383600" lon="-2.8505400">
        <ele>682.6</ele>
        <time>2019-07-07T09:37:34Z</time>
      </trkpt>
      <trkpt lat="40.3381750" lon="-2.8504880">
        <ele>683.0</ele>
        <time>2019-07-07T09:37:37Z</time>
      </trkpt>
      <trkpt lat="40.3378190" lon="-2.8503800">
        <ele>683.6</ele>
        <time>2019-07-07T09:37:43Z</time>
      </trkpt>
      <trkpt lat="40.3375860" lon="-2.8503160">
        <ele>684.2</ele>
        <time>2019-07-07T09:37:47Z</time>
      </trkpt>
      <trkpt lat="40.3373500" lon="-2.8502530">
        <ele>684.6</ele>
        <time>2019-07-07T09:37:51Z</time>
      </trkpt>
      <trkpt lat="40.3371160" lon="-2.8502130">
        <ele>685.2</ele>
        <time>2019-07-07T09:37:55Z</time>
      </trkpt>
      <trkpt lat="40.3370600" lon="-2.8502090">
        <ele>685.4</ele>
        <time>2019-07-07T09:37:56Z</time>
      </trkpt>
      <trkpt lat="40.3369530" lon="-2.8502200">
        <ele>685.8</ele>
        <time>2019-07-07T09:37:58Z</time>
      </trkpt>
      <trkpt lat="40.3367990" lon="-2.8502330">
        <ele>686.4</ele>
        <time>2019-07-07T09:38:01Z</time>
      </trkpt>
      <trkpt lat="40.3365430" lon="-2.8502570">
        <ele>687.4</ele>
        <time>2019-07-07T09:38:06Z</time>
      </trkpt>
      <trkpt lat="40.3362910" lon="-2.8502560">
        <ele>688.4</ele>
        <time>2019-07-07T09:38:11Z</time>
      </trkpt>
      <trkpt lat="40.3361890" lon="-2.8502590">
        <ele>688.6</ele>
        <time>2019-07-07T09:38:13Z</time>
      </trkpt>
      <trkpt lat="40.3358350" lon="-2.8502440">
        <ele>689.6</ele>
        <time>2019-07-07T09:38:20Z</time>
      </trkpt>
      <trkpt lat="40.3357340" lon="-2.8502370">
        <ele>689.8</ele>
        <time>2019-07-07T09:38:22Z</time>
      </trkpt>
      <trkpt lat="40.3355410" lon="-2.8502340">
        <ele>690.4</ele>
        <time>2019-07-07T09:38:26Z</time>
      </trkpt>
      <trkpt lat="40.3352530" lon="-2.8502200">
        <ele>690.8</ele>
        <time>2019-07-07T09:38:32Z</time>
      </trkpt>
      <trkpt lat="40.3351590" lon="-2.8502080">
        <ele>691.2</ele>
        <time>2019-07-07T09:38:34Z</time>
      </trkpt>
      <trkpt lat="40.3349220" lon="-2.8502090">
        <ele>691.8</ele>
        <time>2019-07-07T09:38:39Z</time>
      </trkpt>
      <trkpt lat="40.3347300" lon="-2.8502000">
        <ele>692.4</ele>
        <time>2019-07-07T09:38:43Z</time>
      </trkpt>
      <trkpt lat="40.3345860" lon="-2.8502050">
        <ele>693.0</ele>
        <time>2019-07-07T09:38:46Z</time>
      </trkpt>
      <trkpt lat="40.3344450" lon="-2.8502080">
        <ele>693.4</ele>
        <time>2019-07-07T09:38:49Z</time>
      </trkpt>
      <trkpt lat="40.3343530" lon="-2.8502240">
        <ele>693.6</ele>
        <time>2019-07-07T09:38:51Z</time>
      </trkpt>
      <trkpt lat="40.3342150" lon="-2.8502550">
        <ele>694.0</ele>
        <time>2019-07-07T09:38:54Z</time>
      </trkpt>
      <trkpt lat="40.3341190" lon="-2.8502760">
        <ele>694.2</ele>
        <time>2019-07-07T09:38:56Z</time>
      </trkpt>
      <trkpt lat="40.3338920" lon="-2.8503130">
        <ele>695.0</ele>
        <time>2019-07-07T09:39:01Z</time>
      </trkpt>
      <trkpt lat="40.3337600" lon="-2.8503440">
        <ele>695.6</ele>
        <time>2019-07-07T09:39:04Z</time>
      </trkpt>
      <trkpt lat="40.3335860" lon="-2.8504060">
        <ele>696.0</ele>
        <time>2019-07-07T09:39:08Z</time>
      </trkpt>
      <trkpt lat="40.3333700" lon="-2.8504920">
        <ele>696.8</ele>
        <time>2019-07-07T09:39:13Z</time>
      </trkpt>
      <trkpt lat="40.3332830" lon="-2.8505240">
        <ele>697.2</ele>
        <time>2019-07-07T09:39:15Z</time>
      </trkpt>
      <trkpt lat="40.3330260" lon="-2.8506170">
        <ele>698.4</ele>
        <time>2019-07-07T09:39:21Z</time>
      </trkpt>
      <trkpt lat="40.3329840" lon="-2.8506330">
        <ele>698.6</ele>
        <time>2019-07-07T09:39:22Z</time>
      </trkpt>
      <trkpt lat="40.3328570" lon="-2.8506810">
        <ele>699.6</ele>
        <time>2019-07-07T09:39:25Z</time>
      </trkpt>
      <trkpt lat="40.3326320" lon="-2.8507740">
        <ele>700.8</ele>
        <time>2019-07-07T09:39:30Z</time>
      </trkpt>
      <trkpt lat="40.3325860" lon="-2.8507920">
        <ele>700.8</ele>
        <time>2019-07-07T09:39:31Z</time>
      </trkpt>
      <trkpt lat="40.3322690" lon="-2.8509030">
        <ele>701.6</ele>
        <time>2019-07-07T09:39:38Z</time>
      </trkpt>
      <trkpt lat="40.3318290" lon="-2.8510130">
        <ele>702.4</ele>
        <time>2019-07-07T09:39:47Z</time>
      </trkpt>
      <trkpt lat="40.3317790" lon="-2.8510160">
        <ele>702.6</ele>
        <time>2019-07-07T09:39:48Z</time>
      </trkpt>
      <trkpt lat="40.3314960" lon="-2.8510470">
        <ele>703.4</ele>
        <time>2019-07-07T09:39:54Z</time>
      </trkpt>
      <trkpt lat="40.3314010" lon="-2.8510470">
        <ele>703.8</ele>
        <time>2019-07-07T09:39:56Z</time>
      </trkpt>
      <trkpt lat="40.3311680" lon="-2.8510510">
        <ele>704.8</ele>
        <time>2019-07-07T09:40:02Z</time>
      </trkpt>
      <trkpt lat="40.3309740" lon="-2.8510340">
        <ele>705.8</ele>
        <time>2019-07-07T09:40:08Z</time>
      </trkpt>
      <trkpt lat="40.3307220" lon="-2.8510450">
        <ele>706.8</ele>
        <time>2019-07-07T09:40:15Z</time>
      </trkpt>
      <trkpt lat="40.3306870" lon="-2.8510470">
        <ele>707.0</ele>
        <time>2019-07-07T09:40:16Z</time>
      </trkpt>
      <trkpt lat="40.3306110" lon="-2.8510970">
        <ele>707.0</ele>
        <time>2019-07-07T09:40:19Z</time>
      </trkpt>
      <trkpt lat="40.3306060" lon="-2.8511420">
        <ele>706.8</ele>
        <time>2019-07-07T09:40:20Z</time>
      </trkpt>
      <trkpt lat="40.3306550" lon="-2.8513180">
        <ele>706.4</ele>
        <time>2019-07-07T09:40:23Z</time>
      </trkpt>
      <trkpt lat="40.3306860" lon="-2.8513840">
        <ele>706.0</ele>
        <time>2019-07-07T09:40:24Z</time>
      </trkpt>
      <trkpt lat="40.3307230" lon="-2.8514550">
        <ele>705.8</ele>
        <time>2019-07-07T09:40:25Z</time>
      </trkpt>
      <trkpt lat="40.3308400" lon="-2.8516680">
        <ele>704.8</ele>
        <time>2019-07-07T09:40:28Z</time>
      </trkpt>
      <trkpt lat="40.3308780" lon="-2.8517450">
        <ele>704.4</ele>
        <time>2019-07-07T09:40:29Z</time>
      </trkpt>
      <trkpt lat="40.3309480" lon="-2.8519020">
        <ele>703.2</ele>
        <time>2019-07-07T09:40:31Z</time>
      </trkpt>
      <trkpt lat="40.3310000" lon="-2.8520210">
        <ele>702.0</ele>
        <time>2019-07-07T09:40:33Z</time>
      </trkpt>
      <trkpt lat="40.3310100" lon="-2.8520700">
        <ele>701.8</ele>
        <time>2019-07-07T09:40:34Z</time>
      </trkpt>
      <trkpt lat="40.3309940" lon="-2.8521750">
        <ele>701.2</ele>
        <time>2019-07-07T09:40:36Z</time>
      </trkpt>
      <trkpt lat="40.3309660" lon="-2.8522240">
        <ele>700.8</ele>
        <time>2019-07-07T09:40:37Z</time>
      </trkpt>
      <trkpt lat="40.3308950" lon="-2.8523180">
        <ele>700.6</ele>
        <time>2019-07-07T09:40:39Z</time>
      </trkpt>
      <trkpt lat="40.3308570" lon="-2.8523680">
        <ele>700.4</ele>
        <time>2019-07-07T09:40:40Z</time>
      </trkpt>
      <trkpt lat="40.3305550" lon="-2.8528140">
        <ele>700.0</ele>
        <time>2019-07-07T09:40:48Z</time>
      </trkpt>
      <trkpt lat="40.3304400" lon="-2.8529780">
        <ele>699.8</ele>
        <time>2019-07-07T09:40:51Z</time>
      </trkpt>
      <trkpt lat="40.3303990" lon="-2.8530280">
        <ele>699.8</ele>
        <time>2019-07-07T09:40:52Z</time>
      </trkpt>
      <trkpt lat="40.3303510" lon="-2.8530710">
        <ele>699.8</ele>
        <time>2019-07-07T09:40:53Z</time>
      </trkpt>
      <trkpt lat="40.3302980" lon="-2.8531050">
        <ele>699.6</ele>
        <time>2019-07-07T09:40:54Z</time>
      </trkpt>
      <trkpt lat="40.3301720" lon="-2.8531570">
        <ele>699.0</ele>
        <time>2019-07-07T09:40:57Z</time>
      </trkpt>
      <trkpt lat="40.3301490" lon="-2.8531640">
        <ele>698.6</ele>
        <time>2019-07-07T09:40:58Z</time>
      </trkpt>
      <trkpt lat="40.3301300" lon="-2.8531800">
        <ele>698.4</ele>
        <time>2019-07-07T09:40:59Z</time>
      </trkpt>
      <trkpt lat="40.3301100" lon="-2.8532540">
        <ele>698.2</ele>
        <time>2019-07-07T09:41:01Z</time>
      </trkpt>
      <trkpt lat="40.3301150" lon="-2.8533620">
        <ele>697.8</ele>
        <time>2019-07-07T09:41:03Z</time>
      </trkpt>
      <trkpt lat="40.3301120" lon="-2.8534220">
        <ele>697.6</ele>
        <time>2019-07-07T09:41:04Z</time>
      </trkpt>
      <trkpt lat="40.3300950" lon="-2.8534800">
        <ele>697.6</ele>
        <time>2019-07-07T09:41:05Z</time>
      </trkpt>
      <trkpt lat="40.3299840" lon="-2.8535940">
        <ele>697.4</ele>
        <time>2019-07-07T09:41:08Z</time>
      </trkpt>
      <trkpt lat="40.3299400" lon="-2.8536230">
        <ele>697.4</ele>
        <time>2019-07-07T09:41:09Z</time>
      </trkpt>
      <trkpt lat="40.3298550" lon="-2.8536830">
        <ele>697.6</ele>
        <time>2019-07-07T09:41:11Z</time>
      </trkpt>
      <trkpt lat="40.3297280" lon="-2.8537800">
        <ele>697.6</ele>
        <time>2019-07-07T09:41:14Z</time>
      </trkpt>
      <trkpt lat="40.3296820" lon="-2.8538070">
        <ele>697.6</ele>
        <time>2019-07-07T09:41:15Z</time>
      </trkpt>
      <trkpt lat="40.3293920" lon="-2.8539230">
        <ele>697.4</ele>
        <time>2019-07-07T09:41:21Z</time>
      </trkpt>
      <trkpt lat="40.3293460" lon="-2.8539470">
        <ele>697.4</ele>
        <time>2019-07-07T09:41:22Z</time>
      </trkpt>
      <trkpt lat="40.3292800" lon="-2.8540300">
        <ele>697.4</ele>
        <time>2019-07-07T09:41:24Z</time>
      </trkpt>
      <trkpt lat="40.3292160" lon="-2.8541920">
        <ele>697.4</ele>
        <time>2019-07-07T09:41:27Z</time>
      </trkpt>
      <trkpt lat="40.3291730" lon="-2.8543210">
        <ele>697.2</ele>
        <time>2019-07-07T09:41:29Z</time>
      </trkpt>
      <trkpt lat="40.3291570" lon="-2.8543930">
        <ele>697.2</ele>
        <time>2019-07-07T09:41:30Z</time>
      </trkpt>
      <trkpt lat="40.3291050" lon="-2.8547070">
        <ele>696.4</ele>
        <time>2019-07-07T09:41:34Z</time>
      </trkpt>
      <trkpt lat="40.3290640" lon="-2.8549650">
        <ele>695.6</ele>
        <time>2019-07-07T09:41:37Z</time>
      </trkpt>
      <trkpt lat="40.3290500" lon="-2.8550510">
        <ele>695.0</ele>
        <time>2019-07-07T09:41:38Z</time>
      </trkpt>
      <trkpt lat="40.3290060" lon="-2.8553130">
        <ele>694.2</ele>
        <time>2019-07-07T09:41:41Z</time>
      </trkpt>
      <trkpt lat="40.3289910" lon="-2.8554000">
        <ele>694.2</ele>
        <time>2019-07-07T09:41:42Z</time>
      </trkpt>
      <trkpt lat="40.3289420" lon="-2.8556670">
        <ele>693.2</ele>
        <time>2019-07-07T09:41:45Z</time>
      </trkpt>
      <trkpt lat="40.3289250" lon="-2.8557580">
        <ele>693.0</ele>
        <time>2019-07-07T09:41:46Z</time>
      </trkpt>
      <trkpt lat="40.3288750" lon="-2.8560340">
        <ele>692.6</ele>
        <time>2019-07-07T09:41:49Z</time>
      </trkpt>
      <trkpt lat="40.3287700" lon="-2.8564810">
        <ele>692.0</ele>
        <time>2019-07-07T09:41:54Z</time>
      </trkpt>
      <trkpt lat="40.3287520" lon="-2.8565680">
        <ele>691.8</ele>
        <time>2019-07-07T09:41:55Z</time>
      </trkpt>
      <trkpt lat="40.3286630" lon="-2.8571440">
        <ele>691.4</ele>
        <time>2019-07-07T09:42:02Z</time>
      </trkpt>
      <trkpt lat="40.3286460" lon="-2.8573070">
        <ele>691.0</ele>
        <time>2019-07-07T09:42:04Z</time>
      </trkpt>
      <trkpt lat="40.3286340" lon="-2.8573880">
        <ele>691.0</ele>
        <time>2019-07-07T09:42:05Z</time>
      </trkpt>
      <trkpt lat="40.3285750" lon="-2.8576160">
        <ele>691.0</ele>
        <time>2019-07-07T09:42:08Z</time>
      </trkpt>
      <trkpt lat="40.3283980" lon="-2.8581050">
        <ele>691.2</ele>
        <time>2019-07-07T09:42:15Z</time>
      </trkpt>
      <trkpt lat="40.3283750" lon="-2.8581670">
        <ele>691.2</ele>
        <time>2019-07-07T09:42:16Z</time>
      </trkpt>
      <trkpt lat="40.3282880" lon="-2.8584010">
        <ele>691.8</ele>
        <time>2019-07-07T09:42:20Z</time>
      </trkpt>
      <trkpt lat="40.3282510" lon="-2.8585090">
        <ele>692.4</ele>
        <time>2019-07-07T09:42:22Z</time>
      </trkpt>
      <trkpt lat="40.3282140" lon="-2.8586100">
        <ele>692.6</ele>
        <time>2019-07-07T09:42:24Z</time>
      </trkpt>
      <trkpt lat="40.3281240" lon="-2.8588330">
        <ele>693.8</ele>
        <time>2019-07-07T09:42:29Z</time>
      </trkpt>
      <trkpt lat="40.3280920" lon="-2.8589140">
        <ele>694.4</ele>
        <time>2019-07-07T09:42:31Z</time>
      </trkpt>
      <trkpt lat="40.3280510" lon="-2.8590280">
        <ele>695.0</ele>
        <time>2019-07-07T09:42:34Z</time>
      </trkpt>
      <trkpt lat="40.3280060" lon="-2.8591380">
        <ele>696.2</ele>
        <time>2019-07-07T09:42:37Z</time>
      </trkpt>
      <trkpt lat="40.3279930" lon="-2.8591680">
        <ele>696.6</ele>
        <time>2019-07-07T09:42:38Z</time>
      </trkpt>
      <trkpt lat="40.3279680" lon="-2.8592170">
        <ele>697.4</ele>
        <time>2019-07-07T09:42:40Z</time>
      </trkpt>
      <trkpt lat="40.3279480" lon="-2.8592630">
        <ele>697.8</ele>
        <time>2019-07-07T09:42:42Z</time>
      </trkpt>
      <trkpt lat="40.3279090" lon="-2.8593380">
        <ele>698.6</ele>
        <time>2019-07-07T09:42:45Z</time>
      </trkpt>
      <trkpt lat="40.3278680" lon="-2.8594110">
        <ele>699.6</ele>
        <time>2019-07-07T09:42:48Z</time>
      </trkpt>
      <trkpt lat="40.3278550" lon="-2.8594360">
        <ele>699.8</ele>
        <time>2019-07-07T09:42:49Z</time>
      </trkpt>
      <trkpt lat="40.3278120" lon="-2.8595070">
        <ele>700.6</ele>
        <time>2019-07-07T09:42:52Z</time>
      </trkpt>
      <trkpt lat="40.3277980" lon="-2.8595300">
        <ele>701.0</ele>
        <time>2019-07-07T09:42:53Z</time>
      </trkpt>
      <trkpt lat="40.3277820" lon="-2.8595520">
        <ele>701.4</ele>
        <time>2019-07-07T09:42:54Z</time>
      </trkpt>
      <trkpt lat="40.3277380" lon="-2.8596140">
        <ele>702.0</ele>
        <time>2019-07-07T09:42:57Z</time>
      </trkpt>
      <trkpt lat="40.3277090" lon="-2.8596520">
        <ele>703.2</ele>
        <time>2019-07-07T09:42:59Z</time>
      </trkpt>
      <trkpt lat="40.3276470" lon="-2.8597440">
        <ele>704.4</ele>
        <time>2019-07-07T09:43:04Z</time>
      </trkpt>
      <trkpt lat="40.3276140" lon="-2.8598040">
        <ele>705.4</ele>
        <time>2019-07-07T09:43:07Z</time>
      </trkpt>
      <trkpt lat="40.3275730" lon="-2.8598510">
        <ele>706.0</ele>
        <time>2019-07-07T09:43:10Z</time>
      </trkpt>
      <trkpt lat="40.3275480" lon="-2.8598820">
        <ele>706.6</ele>
        <time>2019-07-07T09:43:12Z</time>
      </trkpt>
      <trkpt lat="40.3275150" lon="-2.8599350">
        <ele>707.8</ele>
        <time>2019-07-07T09:43:15Z</time>
      </trkpt>
      <trkpt lat="40.3274920" lon="-2.8599760">
        <ele>708.2</ele>
        <time>2019-07-07T09:43:17Z</time>
      </trkpt>
      <trkpt lat="40.3274660" lon="-2.8600110">
        <ele>708.8</ele>
        <time>2019-07-07T09:43:19Z</time>
      </trkpt>
      <trkpt lat="40.3274220" lon="-2.8600890">
        <ele>710.2</ele>
        <time>2019-07-07T09:43:23Z</time>
      </trkpt>
      <trkpt lat="40.3273870" lon="-2.8601530">
        <ele>710.8</ele>
        <time>2019-07-07T09:43:26Z</time>
      </trkpt>
      <trkpt lat="40.3273600" lon="-2.8601910">
        <ele>711.4</ele>
        <time>2019-07-07T09:43:28Z</time>
      </trkpt>
      <trkpt lat="40.3273200" lon="-2.8602720">
        <ele>712.4</ele>
        <time>2019-07-07T09:43:32Z</time>
      </trkpt>
      <trkpt lat="40.3273060" lon="-2.8602920">
        <ele>712.8</ele>
        <time>2019-07-07T09:43:33Z</time>
      </trkpt>
      <trkpt lat="40.3272710" lon="-2.8603560">
        <ele>713.6</ele>
        <time>2019-07-07T09:43:36Z</time>
      </trkpt>
      <trkpt lat="40.3272340" lon="-2.8604190">
        <ele>714.6</ele>
        <time>2019-07-07T09:43:39Z</time>
      </trkpt>
      <trkpt lat="40.3272220" lon="-2.8604380">
        <ele>715.0</ele>
        <time>2019-07-07T09:43:40Z</time>
      </trkpt>
      <trkpt lat="40.3271750" lon="-2.8605170">
        <ele>716.0</ele>
        <time>2019-07-07T09:43:44Z</time>
      </trkpt>
      <trkpt lat="40.3271310" lon="-2.8605960">
        <ele>717.0</ele>
        <time>2019-07-07T09:43:48Z</time>
      </trkpt>
      <trkpt lat="40.3271230" lon="-2.8606200">
        <ele>717.4</ele>
        <time>2019-07-07T09:43:49Z</time>
      </trkpt>
      <trkpt lat="40.3270840" lon="-2.8607060">
        <ele>718.4</ele>
        <time>2019-07-07T09:43:53Z</time>
      </trkpt>
      <trkpt lat="40.3270520" lon="-2.8607700">
        <ele>719.6</ele>
        <time>2019-07-07T09:43:56Z</time>
      </trkpt>
      <trkpt lat="40.3269980" lon="-2.8608740">
        <ele>721.0</ele>
        <time>2019-07-07T09:44:01Z</time>
      </trkpt>
      <trkpt lat="40.3269660" lon="-2.8609270">
        <ele>721.6</ele>
        <time>2019-07-07T09:44:04Z</time>
      </trkpt>
      <trkpt lat="40.3269460" lon="-2.8609680">
        <ele>722.0</ele>
        <time>2019-07-07T09:44:06Z</time>
      </trkpt>
      <trkpt lat="40.3269160" lon="-2.8610670">
        <ele>723.0</ele>
        <time>2019-07-07T09:44:10Z</time>
      </trkpt>
      <trkpt lat="40.3269070" lon="-2.8610900">
        <ele>723.4</ele>
        <time>2019-07-07T09:44:11Z</time>
      </trkpt>
      <trkpt lat="40.3268720" lon="-2.8612110">
        <ele>724.0</ele>
        <time>2019-07-07T09:44:16Z</time>
      </trkpt>
      <trkpt lat="40.3268510" lon="-2.8612890">
        <ele>724.6</ele>
        <time>2019-07-07T09:44:19Z</time>
      </trkpt>
      <trkpt lat="40.3268360" lon="-2.8613450">
        <ele>725.2</ele>
        <time>2019-07-07T09:44:21Z</time>
      </trkpt>
      <trkpt lat="40.3268060" lon="-2.8615330">
        <ele>726.2</ele>
        <time>2019-07-07T09:44:27Z</time>
      </trkpt>
      <trkpt lat="40.3267860" lon="-2.8617390">
        <ele>727.2</ele>
        <time>2019-07-07T09:44:33Z</time>
      </trkpt>
      <trkpt lat="40.3267910" lon="-2.8618820">
        <ele>728.4</ele>
        <time>2019-07-07T09:44:37Z</time>
      </trkpt>
      <trkpt lat="40.3268170" lon="-2.8619900">
        <ele>728.6</ele>
        <time>2019-07-07T09:44:40Z</time>
      </trkpt>
      <trkpt lat="40.3268990" lon="-2.8622140">
        <ele>728.6</ele>
        <time>2019-07-07T09:44:45Z</time>
      </trkpt>
      <trkpt lat="40.3270460" lon="-2.8625870">
        <ele>727.2</ele>
        <time>2019-07-07T09:44:51Z</time>
      </trkpt>
      <trkpt lat="40.3270680" lon="-2.8626630">
        <ele>726.8</ele>
        <time>2019-07-07T09:44:52Z</time>
      </trkpt>
      <trkpt lat="40.3270890" lon="-2.8627420">
        <ele>726.4</ele>
        <time>2019-07-07T09:44:53Z</time>
      </trkpt>
      <trkpt lat="40.3271120" lon="-2.8628230">
        <ele>726.0</ele>
        <time>2019-07-07T09:44:54Z</time>
      </trkpt>
      <trkpt lat="40.3271590" lon="-2.8629920">
        <ele>725.6</ele>
        <time>2019-07-07T09:44:56Z</time>
      </trkpt>
      <trkpt lat="40.3271810" lon="-2.8630800">
        <ele>725.4</ele>
        <time>2019-07-07T09:44:57Z</time>
      </trkpt>
      <trkpt lat="40.3272270" lon="-2.8632620">
        <ele>725.0</ele>
        <time>2019-07-07T09:44:59Z</time>
      </trkpt>
      <trkpt lat="40.3272500" lon="-2.8633550">
        <ele>725.2</ele>
        <time>2019-07-07T09:45:00Z</time>
      </trkpt>
      <trkpt lat="40.3273350" lon="-2.8636330">
        <ele>724.4</ele>
        <time>2019-07-07T09:45:03Z</time>
      </trkpt>
      <trkpt lat="40.3273690" lon="-2.8637250">
        <ele>724.2</ele>
        <time>2019-07-07T09:45:04Z</time>
      </trkpt>
      <trkpt lat="40.3274920" lon="-2.8639930">
        <ele>723.0</ele>
        <time>2019-07-07T09:45:07Z</time>
      </trkpt>
      <trkpt lat="40.3275910" lon="-2.8641620">
        <ele>722.2</ele>
        <time>2019-07-07T09:45:09Z</time>
      </trkpt>
      <trkpt lat="40.3276980" lon="-2.8643280">
        <ele>721.8</ele>
        <time>2019-07-07T09:45:11Z</time>
      </trkpt>
      <trkpt lat="40.3279320" lon="-2.8646640">
        <ele>721.4</ele>
        <time>2019-07-07T09:45:15Z</time>
      </trkpt>
      <trkpt lat="40.3279890" lon="-2.8647530">
        <ele>721.2</ele>
        <time>2019-07-07T09:45:16Z</time>
      </trkpt>
      <trkpt lat="40.3280930" lon="-2.8649400">
        <ele>720.8</ele>
        <time>2019-07-07T09:45:18Z</time>
      </trkpt>
      <trkpt lat="40.3281850" lon="-2.8651390">
        <ele>720.2</ele>
        <time>2019-07-07T09:45:20Z</time>
      </trkpt>
      <trkpt lat="40.3283080" lon="-2.8654580">
        <ele>719.6</ele>
        <time>2019-07-07T09:45:23Z</time>
      </trkpt>
      <trkpt lat="40.3284840" lon="-2.8658950">
        <ele>718.2</ele>
        <time>2019-07-07T09:45:27Z</time>
      </trkpt>
      <trkpt lat="40.3286940" lon="-2.8661830">
        <ele>716.8</ele>
        <time>2019-07-07T09:45:30Z</time>
      </trkpt>
      <trkpt lat="40.3287790" lon="-2.8662690">
        <ele>716.0</ele>
        <time>2019-07-07T09:45:31Z</time>
      </trkpt>
      <trkpt lat="40.3288720" lon="-2.8663480">
        <ele>715.4</ele>
        <time>2019-07-07T09:45:32Z</time>
      </trkpt>
      <trkpt lat="40.3290640" lon="-2.8665050">
        <ele>713.0</ele>
        <time>2019-07-07T09:45:34Z</time>
      </trkpt>
      <trkpt lat="40.3291590" lon="-2.8665900">
        <ele>711.8</ele>
        <time>2019-07-07T09:45:35Z</time>
      </trkpt>
      <trkpt lat="40.3292520" lon="-2.8666840">
        <ele>710.6</ele>
        <time>2019-07-07T09:45:36Z</time>
      </trkpt>
      <trkpt lat="40.3293400" lon="-2.8667880">
        <ele>709.6</ele>
        <time>2019-07-07T09:45:37Z</time>
      </trkpt>
      <trkpt lat="40.3294190" lon="-2.8669030">
        <ele>708.6</ele>
        <time>2019-07-07T09:45:38Z</time>
      </trkpt>
      <trkpt lat="40.3294880" lon="-2.8670300">
        <ele>707.6</ele>
        <time>2019-07-07T09:45:39Z</time>
      </trkpt>
      <trkpt lat="40.3295450" lon="-2.8671680">
        <ele>706.4</ele>
        <time>2019-07-07T09:45:40Z</time>
      </trkpt>
      <trkpt lat="40.3296160" lon="-2.8674690">
        <ele>704.8</ele>
        <time>2019-07-07T09:45:42Z</time>
      </trkpt>
      <trkpt lat="40.3296290" lon="-2.8676260">
        <ele>703.6</ele>
        <time>2019-07-07T09:45:43Z</time>
      </trkpt>
      <trkpt lat="40.3296340" lon="-2.8677860">
        <ele>702.8</ele>
        <time>2019-07-07T09:45:44Z</time>
      </trkpt>
      <trkpt lat="40.3296360" lon="-2.8679460">
        <ele>702.0</ele>
        <time>2019-07-07T09:45:45Z</time>
      </trkpt>
      <trkpt lat="40.3296410" lon="-2.8681080">
        <ele>701.0</ele>
        <time>2019-07-07T09:45:46Z</time>
      </trkpt>
      <trkpt lat="40.3296520" lon="-2.8682700">
        <ele>700.2</ele>
        <time>2019-07-07T09:45:47Z</time>
      </trkpt>
      <trkpt lat="40.3296690" lon="-2.8684320">
        <ele>699.0</ele>
        <time>2019-07-07T09:45:48Z</time>
      </trkpt>
      <trkpt lat="40.3296880" lon="-2.8685930">
        <ele>698.0</ele>
        <time>2019-07-07T09:45:49Z</time>
      </trkpt>
      <trkpt lat="40.3297070" lon="-2.8687540">
        <ele>697.0</ele>
        <time>2019-07-07T09:45:50Z</time>
      </trkpt>
      <trkpt lat="40.3297290" lon="-2.8689140">
        <ele>696.2</ele>
        <time>2019-07-07T09:45:51Z</time>
      </trkpt>
      <trkpt lat="40.3297560" lon="-2.8690710">
        <ele>695.6</ele>
        <time>2019-07-07T09:45:52Z</time>
      </trkpt>
      <trkpt lat="40.3298250" lon="-2.8693770">
        <ele>694.0</ele>
        <time>2019-07-07T09:45:54Z</time>
      </trkpt>
      <trkpt lat="40.3298950" lon="-2.8696780">
        <ele>692.4</ele>
        <time>2019-07-07T09:45:56Z</time>
      </trkpt>
      <trkpt lat="40.3299640" lon="-2.8699780">
        <ele>691.0</ele>
        <time>2019-07-07T09:45:58Z</time>
      </trkpt>
      <trkpt lat="40.3300310" lon="-2.8702750">
        <ele>689.6</ele>
        <time>2019-07-07T09:46:00Z</time>
      </trkpt>
      <trkpt lat="40.3300850" lon="-2.8705730">
        <ele>688.2</ele>
        <time>2019-07-07T09:46:02Z</time>
      </trkpt>
      <trkpt lat="40.3301270" lon="-2.8708740">
        <ele>686.6</ele>
        <time>2019-07-07T09:46:04Z</time>
      </trkpt>
      <trkpt lat="40.3301680" lon="-2.8711730">
        <ele>685.6</ele>
        <time>2019-07-07T09:46:06Z</time>
      </trkpt>
      <trkpt lat="40.3302120" lon="-2.8714710">
        <ele>684.2</ele>
        <time>2019-07-07T09:46:08Z</time>
      </trkpt>
      <trkpt lat="40.3302610" lon="-2.8717690">
        <ele>683.0</ele>
        <time>2019-07-07T09:46:10Z</time>
      </trkpt>
      <trkpt lat="40.3303220" lon="-2.8720700">
        <ele>681.4</ele>
        <time>2019-07-07T09:46:12Z</time>
      </trkpt>
      <trkpt lat="40.3303570" lon="-2.8722220">
        <ele>680.4</ele>
        <time>2019-07-07T09:46:13Z</time>
      </trkpt>
      <trkpt lat="40.3303940" lon="-2.8723750">
        <ele>679.6</ele>
        <time>2019-07-07T09:46:14Z</time>
      </trkpt>
      <trkpt lat="40.3304330" lon="-2.8725300">
        <ele>678.4</ele>
        <time>2019-07-07T09:46:15Z</time>
      </trkpt>
      <trkpt lat="40.3304740" lon="-2.8726850">
        <ele>677.2</ele>
        <time>2019-07-07T09:46:16Z</time>
      </trkpt>
      <trkpt lat="40.3305620" lon="-2.8729970">
        <ele>675.6</ele>
        <time>2019-07-07T09:46:18Z</time>
      </trkpt>
      <trkpt lat="40.3306090" lon="-2.8731550">
        <ele>674.4</ele>
        <time>2019-07-07T09:46:19Z</time>
      </trkpt>
      <trkpt lat="40.3306510" lon="-2.8733150">
        <ele>673.4</ele>
        <time>2019-07-07T09:46:20Z</time>
      </trkpt>
      <trkpt lat="40.3306870" lon="-2.8734780">
        <ele>672.0</ele>
        <time>2019-07-07T09:46:21Z</time>
      </trkpt>
      <trkpt lat="40.3307160" lon="-2.8736460">
        <ele>670.8</ele>
        <time>2019-07-07T09:46:22Z</time>
      </trkpt>
      <trkpt lat="40.3307370" lon="-2.8738150">
        <ele>669.8</ele>
        <time>2019-07-07T09:46:23Z</time>
      </trkpt>
      <trkpt lat="40.3307530" lon="-2.8739840">
        <ele>668.6</ele>
        <time>2019-07-07T09:46:24Z</time>
      </trkpt>
      <trkpt lat="40.3307700" lon="-2.8741520">
        <ele>667.4</ele>
        <time>2019-07-07T09:46:25Z</time>
      </trkpt>
      <trkpt lat="40.3307950" lon="-2.8743210">
        <ele>666.2</ele>
        <time>2019-07-07T09:46:26Z</time>
      </trkpt>
      <trkpt lat="40.3308320" lon="-2.8744890">
        <ele>665.2</ele>
        <time>2019-07-07T09:46:27Z</time>
      </trkpt>
      <trkpt lat="40.3308830" lon="-2.8746520">
        <ele>663.6</ele>
        <time>2019-07-07T09:46:28Z</time>
      </trkpt>
      <trkpt lat="40.3309500" lon="-2.8748040">
        <ele>662.4</ele>
        <time>2019-07-07T09:46:29Z</time>
      </trkpt>
      <trkpt lat="40.3310340" lon="-2.8749400">
        <ele>661.2</ele>
        <time>2019-07-07T09:46:30Z</time>
      </trkpt>
      <trkpt lat="40.3311320" lon="-2.8750580">
        <ele>660.0</ele>
        <time>2019-07-07T09:46:31Z</time>
      </trkpt>
      <trkpt lat="40.3312430" lon="-2.8751550">
        <ele>659.0</ele>
        <time>2019-07-07T09:46:32Z</time>
      </trkpt>
      <trkpt lat="40.3313610" lon="-2.8752360">
        <ele>658.0</ele>
        <time>2019-07-07T09:46:33Z</time>
      </trkpt>
      <trkpt lat="40.3314790" lon="-2.8753130">
        <ele>657.2</ele>
        <time>2019-07-07T09:46:34Z</time>
      </trkpt>
      <trkpt lat="40.3315930" lon="-2.8753950">
        <ele>656.6</ele>
        <time>2019-07-07T09:46:35Z</time>
      </trkpt>
      <trkpt lat="40.3316970" lon="-2.8754880">
        <ele>655.4</ele>
        <time>2019-07-07T09:46:36Z</time>
      </trkpt>
      <trkpt lat="40.3317910" lon="-2.8755930">
        <ele>654.8</ele>
        <time>2019-07-07T09:46:37Z</time>
      </trkpt>
      <trkpt lat="40.3318680" lon="-2.8757120">
        <ele>654.2</ele>
        <time>2019-07-07T09:46:38Z</time>
      </trkpt>
      <trkpt lat="40.3319250" lon="-2.8758450">
        <ele>654.0</ele>
        <time>2019-07-07T09:46:39Z</time>
      </trkpt>
      <trkpt lat="40.3320030" lon="-2.8761230">
        <ele>653.4</ele>
        <time>2019-07-07T09:46:41Z</time>
      </trkpt>
      <trkpt lat="40.3320630" lon="-2.8763920">
        <ele>653.2</ele>
        <time>2019-07-07T09:46:43Z</time>
      </trkpt>
      <trkpt lat="40.3320890" lon="-2.8765230">
        <ele>653.0</ele>
        <time>2019-07-07T09:46:44Z</time>
      </trkpt>
      <trkpt lat="40.3321380" lon="-2.8767750">
        <ele>652.8</ele>
        <time>2019-07-07T09:46:46Z</time>
      </trkpt>
      <trkpt lat="40.3322280" lon="-2.8771240">
        <ele>652.4</ele>
        <time>2019-07-07T09:46:49Z</time>
      </trkpt>
      <trkpt lat="40.3323020" lon="-2.8773380">
        <ele>652.0</ele>
        <time>2019-07-07T09:46:51Z</time>
      </trkpt>
      <trkpt lat="40.3324510" lon="-2.8777410">
        <ele>651.4</ele>
        <time>2019-07-07T09:46:55Z</time>
      </trkpt>
      <trkpt lat="40.3325690" lon="-2.8780290">
        <ele>651.2</ele>
        <time>2019-07-07T09:46:58Z</time>
      </trkpt>
      <trkpt lat="40.3326030" lon="-2.8781260">
        <ele>651.0</ele>
        <time>2019-07-07T09:46:59Z</time>
      </trkpt>
      <trkpt lat="40.3326590" lon="-2.8783210">
        <ele>650.6</ele>
        <time>2019-07-07T09:47:01Z</time>
      </trkpt>
      <trkpt lat="40.3327640" lon="-2.8789270">
        <ele>650.4</ele>
        <time>2019-07-07T09:47:07Z</time>
      </trkpt>
      <trkpt lat="40.3327700" lon="-2.8793420">
        <ele>650.4</ele>
        <time>2019-07-07T09:47:11Z</time>
      </trkpt>
      <trkpt lat="40.3327460" lon="-2.8795480">
        <ele>650.2</ele>
        <time>2019-07-07T09:47:13Z</time>
      </trkpt>
      <trkpt lat="40.3327030" lon="-2.8798570">
        <ele>649.6</ele>
        <time>2019-07-07T09:47:16Z</time>
      </trkpt>
      <trkpt lat="40.3325980" lon="-2.8805870">
        <ele>649.0</ele>
        <time>2019-07-07T09:47:23Z</time>
      </trkpt>
      <trkpt lat="40.3325790" lon="-2.8807980">
        <ele>648.6</ele>
        <time>2019-07-07T09:47:25Z</time>
      </trkpt>
      <trkpt lat="40.3325290" lon="-2.8813270">
        <ele>648.4</ele>
        <time>2019-07-07T09:47:30Z</time>
      </trkpt>
      <trkpt lat="40.3324910" lon="-2.8816410">
        <ele>648.0</ele>
        <time>2019-07-07T09:47:33Z</time>
      </trkpt>
      <trkpt lat="40.3324230" lon="-2.8820560">
        <ele>647.6</ele>
        <time>2019-07-07T09:47:37Z</time>
      </trkpt>
      <trkpt lat="40.3323280" lon="-2.8825690">
        <ele>647.0</ele>
        <time>2019-07-07T09:47:42Z</time>
      </trkpt>
      <trkpt lat="40.3323030" lon="-2.8826680">
        <ele>646.8</ele>
        <time>2019-07-07T09:47:43Z</time>
      </trkpt>
      <trkpt lat="40.3322040" lon="-2.8829600">
        <ele>646.2</ele>
        <time>2019-07-07T09:47:46Z</time>
      </trkpt>
      <trkpt lat="40.3321600" lon="-2.8830510">
        <ele>646.2</ele>
        <time>2019-07-07T09:47:47Z</time>
      </trkpt>
      <trkpt lat="40.3319390" lon="-2.8833770">
        <ele>645.6</ele>
        <time>2019-07-07T09:47:51Z</time>
      </trkpt>
      <trkpt lat="40.3316720" lon="-2.8836450">
        <ele>644.4</ele>
        <time>2019-07-07T09:47:55Z</time>
      </trkpt>
      <trkpt lat="40.3316110" lon="-2.8837240">
        <ele>644.0</ele>
        <time>2019-07-07T09:47:56Z</time>
      </trkpt>
      <trkpt lat="40.3315060" lon="-2.8839030">
        <ele>643.4</ele>
        <time>2019-07-07T09:47:58Z</time>
      </trkpt>
      <trkpt lat="40.3314620" lon="-2.8840040">
        <ele>643.4</ele>
        <time>2019-07-07T09:47:59Z</time>
      </trkpt>
      <trkpt lat="40.3314250" lon="-2.8841100">
        <ele>643.2</ele>
        <time>2019-07-07T09:48:00Z</time>
      </trkpt>
      <trkpt lat="40.3313620" lon="-2.8844600">
        <ele>642.4</ele>
        <time>2019-07-07T09:48:03Z</time>
      </trkpt>
      <trkpt lat="40.3313600" lon="-2.8845860">
        <ele>641.8</ele>
        <time>2019-07-07T09:48:04Z</time>
      </trkpt>
      <trkpt lat="40.3313770" lon="-2.8848470">
        <ele>641.0</ele>
        <time>2019-07-07T09:48:06Z</time>
      </trkpt>
      <trkpt lat="40.3313930" lon="-2.8849800">
        <ele>640.6</ele>
        <time>2019-07-07T09:48:07Z</time>
      </trkpt>
      <trkpt lat="40.3314150" lon="-2.8851160">
        <ele>640.0</ele>
        <time>2019-07-07T09:48:08Z</time>
      </trkpt>
      <trkpt lat="40.3314450" lon="-2.8852540">
        <ele>639.2</ele>
        <time>2019-07-07T09:48:09Z</time>
      </trkpt>
      <trkpt lat="40.3315250" lon="-2.8855270">
        <ele>637.8</ele>
        <time>2019-07-07T09:48:11Z</time>
      </trkpt>
      <trkpt lat="40.3315710" lon="-2.8856640">
        <ele>636.4</ele>
        <time>2019-07-07T09:48:12Z</time>
      </trkpt>
      <trkpt lat="40.3316160" lon="-2.8857980">
        <ele>635.2</ele>
        <time>2019-07-07T09:48:13Z</time>
      </trkpt>
      <trkpt lat="40.3316570" lon="-2.8859250">
        <ele>634.0</ele>
        <time>2019-07-07T09:48:14Z</time>
      </trkpt>
      <trkpt lat="40.3317090" lon="-2.8861560">
        <ele>632.6</ele>
        <time>2019-07-07T09:48:16Z</time>
      </trkpt>
      <trkpt lat="40.3316840" lon="-2.8863750">
        <ele>631.6</ele>
        <time>2019-07-07T09:48:18Z</time>
      </trkpt>
      <trkpt lat="40.3315050" lon="-2.8865750">
        <ele>630.8</ele>
        <time>2019-07-07T09:48:21Z</time>
      </trkpt>
      <trkpt lat="40.3313690" lon="-2.8866100">
        <ele>631.0</ele>
        <time>2019-07-07T09:48:23Z</time>
      </trkpt>
      <trkpt lat="40.3313060" lon="-2.8866170">
        <ele>631.4</ele>
        <time>2019-07-07T09:48:24Z</time>
      </trkpt>
      <trkpt lat="40.3312450" lon="-2.8866230">
        <ele>632.0</ele>
        <time>2019-07-07T09:48:25Z</time>
      </trkpt>
      <trkpt lat="40.3311880" lon="-2.8866280">
        <ele>632.6</ele>
        <time>2019-07-07T09:48:26Z</time>
      </trkpt>
      <trkpt lat="40.3311340" lon="-2.8866320">
        <ele>633.2</ele>
        <time>2019-07-07T09:48:27Z</time>
      </trkpt>
      <trkpt lat="40.3310830" lon="-2.8866350">
        <ele>633.8</ele>
        <time>2019-07-07T09:48:28Z</time>
      </trkpt>
      <trkpt lat="40.3310350" lon="-2.8866380">
        <ele>634.2</ele>
        <time>2019-07-07T09:48:29Z</time>
      </trkpt>
      <trkpt lat="40.3309560" lon="-2.8866450">
        <ele>635.0</ele>
        <time>2019-07-07T09:48:31Z</time>
      </trkpt>
      <trkpt lat="40.3309210" lon="-2.8866460">
        <ele>635.4</ele>
        <time>2019-07-07T09:48:32Z</time>
      </trkpt>
      <trkpt lat="40.3308220" lon="-2.8866590">
        <ele>636.0</ele>
        <time>2019-07-07T09:48:35Z</time>
      </trkpt>
      <trkpt lat="40.3307860" lon="-2.8866660">
        <ele>636.4</ele>
        <time>2019-07-07T09:48:36Z</time>
      </trkpt>
      <trkpt lat="40.3307100" lon="-2.8866840">
        <ele>636.8</ele>
        <time>2019-07-07T09:48:38Z</time>
      </trkpt>
      <trkpt lat="40.3306690" lon="-2.8866970">
        <ele>636.8</ele>
        <time>2019-07-07T09:48:39Z</time>
      </trkpt>
      <trkpt lat="40.3305450" lon="-2.8867840">
        <ele>636.8</ele>
        <time>2019-07-07T09:48:42Z</time>
      </trkpt>
      <trkpt lat="40.3305040" lon="-2.8868300">
        <ele>636.6</ele>
        <time>2019-07-07T09:48:43Z</time>
      </trkpt>
      <trkpt lat="40.3304090" lon="-2.8869170">
        <ele>635.8</ele>
        <time>2019-07-07T09:48:45Z</time>
      </trkpt>
      <trkpt lat="40.3303450" lon="-2.8869470">
        <ele>635.4</ele>
        <time>2019-07-07T09:48:46Z</time>
      </trkpt>
      <trkpt lat="40.3301870" lon="-2.8869610">
        <ele>634.2</ele>
        <time>2019-07-07T09:48:48Z</time>
      </trkpt>
      <trkpt lat="40.3300970" lon="-2.8869590">
        <ele>633.6</ele>
        <time>2019-07-07T09:48:49Z</time>
      </trkpt>
      <trkpt lat="40.3300010" lon="-2.8869590">
        <ele>632.6</ele>
        <time>2019-07-07T09:48:50Z</time>
      </trkpt>
      <trkpt lat="40.3297920" lon="-2.8869630">
        <ele>630.6</ele>
        <time>2019-07-07T09:48:52Z</time>
      </trkpt>
      <trkpt lat="40.3296810" lon="-2.8869660">
        <ele>629.4</ele>
        <time>2019-07-07T09:48:53Z</time>
      </trkpt>
      <trkpt lat="40.3295670" lon="-2.8869730">
        <ele>628.4</ele>
        <time>2019-07-07T09:48:54Z</time>
      </trkpt>
      <trkpt lat="40.3294520" lon="-2.8869860">
        <ele>627.0</ele>
        <time>2019-07-07T09:48:55Z</time>
      </trkpt>
      <trkpt lat="40.3293420" lon="-2.8870030">
        <ele>626.0</ele>
        <time>2019-07-07T09:48:56Z</time>
      </trkpt>
      <trkpt lat="40.3291430" lon="-2.8870310">
        <ele>623.8</ele>
        <time>2019-07-07T09:48:58Z</time>
      </trkpt>
      <trkpt lat="40.3289660" lon="-2.8870310">
        <ele>622.2</ele>
        <time>2019-07-07T09:49:00Z</time>
      </trkpt>
      <trkpt lat="40.3288080" lon="-2.8870180">
        <ele>620.2</ele>
        <time>2019-07-07T09:49:02Z</time>
      </trkpt>
      <trkpt lat="40.3287380" lon="-2.8870210">
        <ele>619.6</ele>
        <time>2019-07-07T09:49:03Z</time>
      </trkpt>
      <trkpt lat="40.3286740" lon="-2.8870350">
        <ele>619.0</ele>
        <time>2019-07-07T09:49:04Z</time>
      </trkpt>
      <trkpt lat="40.3286190" lon="-2.8870590">
        <ele>618.4</ele>
        <time>2019-07-07T09:49:05Z</time>
      </trkpt>
      <trkpt lat="40.3285700" lon="-2.8870870">
        <ele>617.6</ele>
        <time>2019-07-07T09:49:06Z</time>
      </trkpt>
      <trkpt lat="40.3285200" lon="-2.8871110">
        <ele>617.2</ele>
        <time>2019-07-07T09:49:07Z</time>
      </trkpt>
      <trkpt lat="40.3284670" lon="-2.8871300">
        <ele>616.6</ele>
        <time>2019-07-07T09:49:08Z</time>
      </trkpt>
      <trkpt lat="40.3283590" lon="-2.8871470">
        <ele>616.4</ele>
        <time>2019-07-07T09:49:10Z</time>
      </trkpt>
      <trkpt lat="40.3282640" lon="-2.8871340">
        <ele>616.4</ele>
        <time>2019-07-07T09:49:12Z</time>
      </trkpt>
      <trkpt lat="40.3281790" lon="-2.8870980">
        <ele>616.8</ele>
        <time>2019-07-07T09:49:14Z</time>
      </trkpt>
      <trkpt lat="40.3280940" lon="-2.8870780">
        <ele>617.4</ele>
        <time>2019-07-07T09:49:16Z</time>
      </trkpt>
      <trkpt lat="40.3280530" lon="-2.8870720">
        <ele>617.6</ele>
        <time>2019-07-07T09:49:17Z</time>
      </trkpt>
      <trkpt lat="40.3278970" lon="-2.8870460">
        <ele>618.6</ele>
        <time>2019-07-07T09:49:21Z</time>
      </trkpt>
      <trkpt lat="40.3278580" lon="-2.8870380">
        <ele>618.8</ele>
        <time>2019-07-07T09:49:22Z</time>
      </trkpt>
      <trkpt lat="40.3277360" lon="-2.8870080">
        <ele>619.4</ele>
        <time>2019-07-07T09:49:25Z</time>
      </trkpt>
      <trkpt lat="40.3276100" lon="-2.8869860">
        <ele>620.0</ele>
        <time>2019-07-07T09:49:28Z</time>
      </trkpt>
      <trkpt lat="40.3273000" lon="-2.8869040">
        <ele>620.6</ele>
        <time>2019-07-07T09:49:35Z</time>
      </trkpt>
      <trkpt lat="40.3270650" lon="-2.8868640">
        <ele>621.2</ele>
        <time>2019-07-07T09:49:40Z</time>
      </trkpt>
      <trkpt lat="40.3270190" lon="-2.8868670">
        <ele>621.4</ele>
        <time>2019-07-07T09:49:41Z</time>
      </trkpt>
      <trkpt lat="40.3268880" lon="-2.8869030">
        <ele>621.8</ele>
        <time>2019-07-07T09:49:44Z</time>
      </trkpt>
      <trkpt lat="40.3268020" lon="-2.8869340">
        <ele>622.4</ele>
        <time>2019-07-07T09:49:46Z</time>
      </trkpt>
      <trkpt lat="40.3267190" lon="-2.8869720">
        <ele>622.6</ele>
        <time>2019-07-07T09:49:48Z</time>
      </trkpt>
      <trkpt lat="40.3264570" lon="-2.8871010">
        <ele>623.0</ele>
        <time>2019-07-07T09:49:54Z</time>
      </trkpt>
      <trkpt lat="40.3264110" lon="-2.8871230">
        <ele>623.0</ele>
        <time>2019-07-07T09:49:55Z</time>
      </trkpt>
      <trkpt lat="40.3261250" lon="-2.8872680">
        <ele>623.2</ele>
        <time>2019-07-07T09:50:01Z</time>
      </trkpt>
      <trkpt lat="40.3257040" lon="-2.8874170">
        <ele>623.2</ele>
        <time>2019-07-07T09:50:09Z</time>
      </trkpt>
      <trkpt lat="40.3255550" lon="-2.8874900">
        <ele>623.6</ele>
        <time>2019-07-07T09:50:12Z</time>
      </trkpt>
      <trkpt lat="40.3253300" lon="-2.8876360">
        <ele>624.2</ele>
        <time>2019-07-07T09:50:17Z</time>
      </trkpt>
      <trkpt lat="40.3252510" lon="-2.8877060">
        <ele>624.4</ele>
        <time>2019-07-07T09:50:19Z</time>
      </trkpt>
      <trkpt lat="40.3251780" lon="-2.8877890">
        <ele>624.8</ele>
        <time>2019-07-07T09:50:21Z</time>
      </trkpt>
      <trkpt lat="40.3251050" lon="-2.8878750">
        <ele>625.0</ele>
        <time>2019-07-07T09:50:23Z</time>
      </trkpt>
      <trkpt lat="40.3248100" lon="-2.8882720">
        <ele>625.4</ele>
        <time>2019-07-07T09:50:31Z</time>
      </trkpt>
      <trkpt lat="40.3247710" lon="-2.8883270">
        <ele>625.4</ele>
        <time>2019-07-07T09:50:32Z</time>
      </trkpt>
      <trkpt lat="40.3246280" lon="-2.8885850">
        <ele>625.2</ele>
        <time>2019-07-07T09:50:36Z</time>
      </trkpt>
      <trkpt lat="40.3244220" lon="-2.8889310">
        <ele>624.4</ele>
        <time>2019-07-07T09:50:41Z</time>
      </trkpt>
      <trkpt lat="40.3242880" lon="-2.8891590">
        <ele>623.8</ele>
        <time>2019-07-07T09:50:44Z</time>
      </trkpt>
      <trkpt lat="40.3241420" lon="-2.8893790">
        <ele>623.0</ele>
        <time>2019-07-07T09:50:47Z</time>
      </trkpt>
      <trkpt lat="40.3240400" lon="-2.8895170">
        <ele>622.6</ele>
        <time>2019-07-07T09:50:49Z</time>
      </trkpt>
      <trkpt lat="40.3239350" lon="-2.8896500">
        <ele>622.2</ele>
        <time>2019-07-07T09:50:51Z</time>
      </trkpt>
      <trkpt lat="40.3236290" lon="-2.8900430">
        <ele>621.6</ele>
        <time>2019-07-07T09:50:57Z</time>
      </trkpt>
      <trkpt lat="40.3234330" lon="-2.8903030">
        <ele>621.2</ele>
        <time>2019-07-07T09:51:01Z</time>
      </trkpt>
      <trkpt lat="40.3232220" lon="-2.8905910">
        <ele>620.6</ele>
        <time>2019-07-07T09:51:05Z</time>
      </trkpt>
      <trkpt lat="40.3231000" lon="-2.8907520">
        <ele>619.6</ele>
        <time>2019-07-07T09:51:07Z</time>
      </trkpt>
      <trkpt lat="40.3230390" lon="-2.8908410">
        <ele>619.2</ele>
        <time>2019-07-07T09:51:08Z</time>
      </trkpt>
      <trkpt lat="40.3229300" lon="-2.8910420">
        <ele>618.2</ele>
        <time>2019-07-07T09:51:10Z</time>
      </trkpt>
      <trkpt lat="40.3228870" lon="-2.8911530">
        <ele>617.6</ele>
        <time>2019-07-07T09:51:11Z</time>
      </trkpt>
      <trkpt lat="40.3228190" lon="-2.8913790">
        <ele>617.0</ele>
        <time>2019-07-07T09:51:13Z</time>
      </trkpt>
      <trkpt lat="40.3226870" lon="-2.8918120">
        <ele>616.4</ele>
        <time>2019-07-07T09:51:17Z</time>
      </trkpt>
      <trkpt lat="40.3224790" lon="-2.8923760">
        <ele>617.4</ele>
        <time>2019-07-07T09:51:23Z</time>
      </trkpt>
      <trkpt lat="40.3223800" lon="-2.8927020">
        <ele>618.4</ele>
        <time>2019-07-07T09:51:27Z</time>
      </trkpt>
      <trkpt lat="40.3223410" lon="-2.8928510">
        <ele>618.8</ele>
        <time>2019-07-07T09:51:29Z</time>
      </trkpt>
      <trkpt lat="40.3222920" lon="-2.8932970">
        <ele>619.2</ele>
        <time>2019-07-07T09:51:35Z</time>
      </trkpt>
      <trkpt lat="40.3222740" lon="-2.8935290">
        <ele>619.0</ele>
        <time>2019-07-07T09:51:38Z</time>
      </trkpt>
      <trkpt lat="40.3222370" lon="-2.8939600">
        <ele>619.0</ele>
        <time>2019-07-07T09:51:43Z</time>
      </trkpt>
      <trkpt lat="40.3221960" lon="-2.8944220">
        <ele>618.4</ele>
        <time>2019-07-07T09:51:48Z</time>
      </trkpt>
      <trkpt lat="40.3221740" lon="-2.8946000">
        <ele>618.2</ele>
        <time>2019-07-07T09:51:50Z</time>
      </trkpt>
      <trkpt lat="40.3221620" lon="-2.8946870">
        <ele>618.0</ele>
        <time>2019-07-07T09:51:51Z</time>
      </trkpt>
      <trkpt lat="40.3220890" lon="-2.8953400">
        <ele>618.0</ele>
        <time>2019-07-07T09:51:59Z</time>
      </trkpt>
      <trkpt lat="40.3219970" lon="-2.8959080">
        <ele>619.0</ele>
        <time>2019-07-07T09:52:07Z</time>
      </trkpt>
      <trkpt lat="40.3218730" lon="-2.8965000">
        <ele>619.6</ele>
        <time>2019-07-07T09:52:16Z</time>
      </trkpt>
      <trkpt lat="40.3217090" lon="-2.8971840">
        <ele>619.4</ele>
        <time>2019-07-07T09:52:26Z</time>
      </trkpt>
      <trkpt lat="40.3216440" lon="-2.8974800">
        <ele>619.6</ele>
        <time>2019-07-07T09:52:30Z</time>
      </trkpt>
      <trkpt lat="40.3215910" lon="-2.8977850">
        <ele>619.4</ele>
        <time>2019-07-07T09:52:34Z</time>
      </trkpt>
      <trkpt lat="40.3215690" lon="-2.8984340">
        <ele>619.8</ele>
        <time>2019-07-07T09:52:42Z</time>
      </trkpt>
      <trkpt lat="40.3216300" lon="-2.8990390">
        <ele>618.8</ele>
        <time>2019-07-07T09:52:49Z</time>
      </trkpt>
      <trkpt lat="40.3217710" lon="-2.8997320">
        <ele>618.2</ele>
        <time>2019-07-07T09:52:57Z</time>
      </trkpt>
      <trkpt lat="40.3218080" lon="-2.8999020">
        <ele>618.2</ele>
        <time>2019-07-07T09:52:59Z</time>
      </trkpt>
      <trkpt lat="40.3218960" lon="-2.9004650">
        <ele>618.6</ele>
        <time>2019-07-07T09:53:06Z</time>
      </trkpt>
      <trkpt lat="40.3219660" lon="-2.9010800">
        <ele>618.4</ele>
        <time>2019-07-07T09:53:14Z</time>
      </trkpt>
      <trkpt lat="40.3220260" lon="-2.9018130">
        <ele>618.2</ele>
        <time>2019-07-07T09:53:24Z</time>
      </trkpt>
      <trkpt lat="40.3220220" lon="-2.9023430">
        <ele>618.4</ele>
        <time>2019-07-07T09:53:31Z</time>
      </trkpt>
      <trkpt lat="40.3219420" lon="-2.9029530">
        <ele>618.4</ele>
        <time>2019-07-07T09:53:39Z</time>
      </trkpt>
      <trkpt lat="40.3219250" lon="-2.9030290">
        <ele>618.4</ele>
        <time>2019-07-07T09:53:40Z</time>
      </trkpt>
      <trkpt lat="40.3218300" lon="-2.9034090">
        <ele>618.2</ele>
        <time>2019-07-07T09:53:45Z</time>
      </trkpt>
      <trkpt lat="40.3217770" lon="-2.9035570">
        <ele>618.0</ele>
        <time>2019-07-07T09:53:47Z</time>
      </trkpt>
      <trkpt lat="40.3215740" lon="-2.9040670">
        <ele>618.0</ele>
        <time>2019-07-07T09:53:54Z</time>
      </trkpt>
      <trkpt lat="40.3213680" lon="-2.9044410">
        <ele>617.6</ele>
        <time>2019-07-07T09:54:00Z</time>
      </trkpt>
      <trkpt lat="40.3212760" lon="-2.9045740">
        <ele>617.2</ele>
        <time>2019-07-07T09:54:03Z</time>
      </trkpt>
      <trkpt lat="40.3210980" lon="-2.9048060">
        <ele>617.0</ele>
        <time>2019-07-07T09:54:08Z</time>
      </trkpt>
      <trkpt lat="40.3209310" lon="-2.9049790">
        <ele>616.8</ele>
        <time>2019-07-07T09:54:12Z</time>
      </trkpt>
      <trkpt lat="40.3208940" lon="-2.9049990">
        <ele>616.8</ele>
        <time>2019-07-07T09:54:13Z</time>
      </trkpt>
      <trkpt lat="40.3207810" lon="-2.9049990">
        <ele>616.4</ele>
        <time>2019-07-07T09:54:17Z</time>
      </trkpt>
      <trkpt lat="40.3207270" lon="-2.9050130">
        <ele>616.0</ele>
        <time>2019-07-07T09:54:19Z</time>
      </trkpt>
      <trkpt lat="40.3207040" lon="-2.9050310">
        <ele>615.8</ele>
        <time>2019-07-07T09:54:20Z</time>
      </trkpt>
      <trkpt lat="40.3206750" lon="-2.9050500">
        <ele>615.4</ele>
        <time>2019-07-07T09:54:21Z</time>
      </trkpt>
      <trkpt lat="40.3205930" lon="-2.9050960">
        <ele>614.8</ele>
        <time>2019-07-07T09:54:23Z</time>
      </trkpt>
      <trkpt lat="40.3204890" lon="-2.9051620">
        <ele>614.2</ele>
        <time>2019-07-07T09:54:25Z</time>
      </trkpt>
      <trkpt lat="40.3203960" lon="-2.9052260">
        <ele>613.8</ele>
        <time>2019-07-07T09:54:27Z</time>
      </trkpt>
      <trkpt lat="40.3203560" lon="-2.9052480">
        <ele>613.4</ele>
        <time>2019-07-07T09:54:28Z</time>
      </trkpt>
      <trkpt lat="40.3203160" lon="-2.9052600">
        <ele>612.8</ele>
        <time>2019-07-07T09:54:29Z</time>
      </trkpt>
      <trkpt lat="40.3202760" lon="-2.9052600">
        <ele>612.2</ele>
        <time>2019-07-07T09:54:30Z</time>
      </trkpt>
      <trkpt lat="40.3202020" lon="-2.9052320">
        <ele>611.4</ele>
        <time>2019-07-07T09:54:32Z</time>
      </trkpt>
      <trkpt lat="40.3201650" lon="-2.9052140">
        <ele>611.4</ele>
        <time>2019-07-07T09:54:33Z</time>
      </trkpt>
      <trkpt lat="40.3200440" lon="-2.9051530">
        <ele>611.2</ele>
        <time>2019-07-07T09:54:36Z</time>
      </trkpt>
      <trkpt lat="40.3199990" lon="-2.9051290">
        <ele>611.0</ele>
        <time>2019-07-07T09:54:37Z</time>
      </trkpt>
      <trkpt lat="40.3199050" lon="-2.9050750">
        <ele>611.0</ele>
        <time>2019-07-07T09:54:39Z</time>
      </trkpt>
      <trkpt lat="40.3198590" lon="-2.9050410">
        <ele>611.0</ele>
        <time>2019-07-07T09:54:40Z</time>
      </trkpt>
      <trkpt lat="40.3197460" lon="-2.9049020">
        <ele>610.6</ele>
        <time>2019-07-07T09:54:43Z</time>
      </trkpt>
      <trkpt lat="40.3195840" lon="-2.9048010">
        <ele>610.8</ele>
        <time>2019-07-07T09:54:47Z</time>
      </trkpt>
      <trkpt lat="40.3195020" lon="-2.9047410">
        <ele>611.0</ele>
        <time>2019-07-07T09:54:49Z</time>
      </trkpt>
      <trkpt lat="40.3194590" lon="-2.9047120">
        <ele>611.0</ele>
        <time>2019-07-07T09:54:50Z</time>
      </trkpt>
      <trkpt lat="40.3193730" lon="-2.9046680">
        <ele>610.6</ele>
        <time>2019-07-07T09:54:52Z</time>
      </trkpt>
      <trkpt lat="40.3191130" lon="-2.9045070">
        <ele>610.8</ele>
        <time>2019-07-07T09:54:58Z</time>
      </trkpt>
      <trkpt lat="40.3190680" lon="-2.9044870">
        <ele>610.8</ele>
        <time>2019-07-07T09:54:59Z</time>
      </trkpt>
      <trkpt lat="40.3186780" lon="-2.9043180">
        <ele>610.6</ele>
        <time>2019-07-07T09:55:08Z</time>
      </trkpt>
      <trkpt lat="40.3184500" lon="-2.9042010">
        <ele>611.0</ele>
        <time>2019-07-07T09:55:15Z</time>
      </trkpt>
      <trkpt lat="40.3183550" lon="-2.9041420">
        <ele>611.8</ele>
        <time>2019-07-07T09:55:19Z</time>
      </trkpt>
      <trkpt lat="40.3182870" lon="-2.9040920">
        <ele>612.0</ele>
        <time>2019-07-07T09:55:22Z</time>
      </trkpt>
      <trkpt lat="40.3182430" lon="-2.9040590">
        <ele>612.6</ele>
        <time>2019-07-07T09:55:24Z</time>
      </trkpt>
      <trkpt lat="40.3181720" lon="-2.9039960">
        <ele>613.6</ele>
        <time>2019-07-07T09:55:28Z</time>
      </trkpt>
      <trkpt lat="40.3181380" lon="-2.9039680">
        <ele>614.2</ele>
        <time>2019-07-07T09:55:30Z</time>
      </trkpt>
      <trkpt lat="40.3180550" lon="-2.9039140">
        <ele>614.6</ele>
        <time>2019-07-07T09:55:34Z</time>
      </trkpt>
      <trkpt lat="40.3179900" lon="-2.9038910">
        <ele>614.4</ele>
        <time>2019-07-07T09:55:37Z</time>
      </trkpt>
      <trkpt lat="40.3178930" lon="-2.9038530">
        <ele>614.6</ele>
        <time>2019-07-07T09:55:44Z</time>
      </trkpt>
      <trkpt lat="40.3178870" lon="-2.9038500">
        <ele>614.6</ele>
        <time>2019-07-07T09:55:45Z</time>
      </trkpt>
      <trkpt lat="40.3178760" lon="-2.9038470">
        <ele>614.8</ele>
        <time>2019-07-07T09:55:46Z</time>
      </trkpt>
      <trkpt lat="40.3178500" lon="-2.9038410">
        <ele>615.0</ele>
        <time>2019-07-07T09:55:48Z</time>
      </trkpt>
      <trkpt lat="40.3178430" lon="-2.9038370">
        <ele>615.0</ele>
        <time>2019-07-07T09:55:49Z</time>
      </trkpt>
      <trkpt lat="40.3177950" lon="-2.9037900">
        <ele>615.8</ele>
        <time>2019-07-07T09:55:56Z</time>
      </trkpt>
      <trkpt lat="40.3177870" lon="-2.9037830">
        <ele>615.8</ele>
        <time>2019-07-07T09:55:57Z</time>
      </trkpt>
      <trkpt lat="40.3177420" lon="-2.9037550">
        <ele>616.4</ele>
        <time>2019-07-07T09:56:02Z</time>
      </trkpt>
      <trkpt lat="40.3176770" lon="-2.9037000">
        <ele>617.0</ele>
        <time>2019-07-07T09:56:08Z</time>
      </trkpt>
      <trkpt lat="40.3176120" lon="-2.9036350">
        <ele>617.4</ele>
        <time>2019-07-07T09:56:13Z</time>
      </trkpt>
      <trkpt lat="40.3174590" lon="-2.9035560">
        <ele>617.6</ele>
        <time>2019-07-07T09:56:18Z</time>
      </trkpt>
      <trkpt lat="40.3173130" lon="-2.9035420">
        <ele>617.2</ele>
        <time>2019-07-07T09:56:22Z</time>
      </trkpt>
      <trkpt lat="40.3172760" lon="-2.9035330">
        <ele>617.2</ele>
        <time>2019-07-07T09:56:23Z</time>
      </trkpt>
      <trkpt lat="40.3170370" lon="-2.9034560">
        <ele>617.0</ele>
        <time>2019-07-07T09:56:29Z</time>
      </trkpt>
      <trkpt lat="40.3169960" lon="-2.9034490">
        <ele>617.2</ele>
        <time>2019-07-07T09:56:30Z</time>
      </trkpt>
      <trkpt lat="40.3169150" lon="-2.9034470">
        <ele>617.0</ele>
        <time>2019-07-07T09:56:32Z</time>
      </trkpt>
      <trkpt lat="40.3167470" lon="-2.9034700">
        <ele>617.6</ele>
        <time>2019-07-07T09:56:36Z</time>
      </trkpt>
      <trkpt lat="40.3164720" lon="-2.9034480">
        <ele>618.2</ele>
        <time>2019-07-07T09:56:42Z</time>
      </trkpt>
      <trkpt lat="40.3164240" lon="-2.9034400">
        <ele>618.4</ele>
        <time>2019-07-07T09:56:43Z</time>
      </trkpt>
      <trkpt lat="40.3161750" lon="-2.9034400">
        <ele>618.4</ele>
        <time>2019-07-07T09:56:48Z</time>
      </trkpt>
      <trkpt lat="40.3159730" lon="-2.9034280">
        <ele>618.2</ele>
        <time>2019-07-07T09:56:52Z</time>
      </trkpt>
      <trkpt lat="40.3158170" lon="-2.9034090">
        <ele>617.4</ele>
        <time>2019-07-07T09:56:55Z</time>
      </trkpt>
      <trkpt lat="40.3157640" lon="-2.9033940">
        <ele>617.2</ele>
        <time>2019-07-07T09:56:56Z</time>
      </trkpt>
      <trkpt lat="40.3155530" lon="-2.9033250">
        <ele>617.0</ele>
        <time>2019-07-07T09:57:00Z</time>
      </trkpt>
      <trkpt lat="40.3154650" lon="-2.9032840">
        <ele>616.8</ele>
        <time>2019-07-07T09:57:02Z</time>
      </trkpt>
      <trkpt lat="40.3153460" lon="-2.9032650">
        <ele>616.6</ele>
        <time>2019-07-07T09:57:05Z</time>
      </trkpt>
      <trkpt lat="40.3152430" lon="-2.9032680">
        <ele>616.6</ele>
        <time>2019-07-07T09:57:07Z</time>
      </trkpt>
      <trkpt lat="40.3151330" lon="-2.9032640">
        <ele>616.4</ele>
        <time>2019-07-07T09:57:09Z</time>
      </trkpt>
      <trkpt lat="40.3149760" lon="-2.9032290">
        <ele>616.2</ele>
        <time>2019-07-07T09:57:12Z</time>
      </trkpt>
      <trkpt lat="40.3148220" lon="-2.9031720">
        <ele>615.2</ele>
        <time>2019-07-07T09:57:15Z</time>
      </trkpt>
      <trkpt lat="40.3146220" lon="-2.9031160">
        <ele>614.8</ele>
        <time>2019-07-07T09:57:19Z</time>
      </trkpt>
      <trkpt lat="40.3145330" lon="-2.9031070">
        <ele>614.8</ele>
        <time>2019-07-07T09:57:21Z</time>
      </trkpt>
      <trkpt lat="40.3144020" lon="-2.9031220">
        <ele>614.8</ele>
        <time>2019-07-07T09:57:24Z</time>
      </trkpt>
      <trkpt lat="40.3143560" lon="-2.9031180">
        <ele>614.4</ele>
        <time>2019-07-07T09:57:25Z</time>
      </trkpt>
      <trkpt lat="40.3142210" lon="-2.9030510">
        <ele>614.6</ele>
        <time>2019-07-07T09:57:28Z</time>
      </trkpt>
      <trkpt lat="40.3141320" lon="-2.9030100">
        <ele>614.4</ele>
        <time>2019-07-07T09:57:30Z</time>
      </trkpt>
      <trkpt lat="40.3140350" lon="-2.9029940">
        <ele>614.0</ele>
        <time>2019-07-07T09:57:32Z</time>
      </trkpt>
      <trkpt lat="40.3139820" lon="-2.9029860">
        <ele>613.8</ele>
        <time>2019-07-07T09:57:33Z</time>
      </trkpt>
      <trkpt lat="40.3136490" lon="-2.9029160">
        <ele>613.0</ele>
        <time>2019-07-07T09:57:39Z</time>
      </trkpt>
      <trkpt lat="40.3135970" lon="-2.9028910">
        <ele>612.8</ele>
        <time>2019-07-07T09:57:40Z</time>
      </trkpt>
      <trkpt lat="40.3135090" lon="-2.9028100">
        <ele>611.4</ele>
        <time>2019-07-07T09:57:42Z</time>
      </trkpt>
      <trkpt lat="40.3134730" lon="-2.9027610">
        <ele>611.0</ele>
        <time>2019-07-07T09:57:43Z</time>
      </trkpt>
      <trkpt lat="40.3134370" lon="-2.9027110">
        <ele>611.0</ele>
        <time>2019-07-07T09:57:44Z</time>
      </trkpt>
      <trkpt lat="40.3133280" lon="-2.9025540">
        <ele>611.2</ele>
        <time>2019-07-07T09:57:47Z</time>
      </trkpt>
      <trkpt lat="40.3132240" lon="-2.9023890">
        <ele>611.8</ele>
        <time>2019-07-07T09:57:50Z</time>
      </trkpt>
      <trkpt lat="40.3129950" lon="-2.9020610">
        <ele>611.4</ele>
        <time>2019-07-07T09:57:56Z</time>
      </trkpt>
      <trkpt lat="40.3127740" lon="-2.9016370">
        <ele>611.6</ele>
        <time>2019-07-07T09:58:03Z</time>
      </trkpt>
      <trkpt lat="40.3126620" lon="-2.9013920">
        <ele>611.0</ele>
        <time>2019-07-07T09:58:07Z</time>
      </trkpt>
      <trkpt lat="40.3125930" lon="-2.9012090">
        <ele>610.8</ele>
        <time>2019-07-07T09:58:10Z</time>
      </trkpt>
      <trkpt lat="40.3125290" lon="-2.9010210">
        <ele>611.0</ele>
        <time>2019-07-07T09:58:13Z</time>
      </trkpt>
      <trkpt lat="40.3124940" lon="-2.9008430">
        <ele>611.2</ele>
        <time>2019-07-07T09:58:16Z</time>
      </trkpt>
      <trkpt lat="40.3124130" lon="-2.9005510">
        <ele>611.6</ele>
        <time>2019-07-07T09:58:21Z</time>
      </trkpt>
      <trkpt lat="40.3123760" lon="-2.9004340">
        <ele>611.4</ele>
        <time>2019-07-07T09:58:23Z</time>
      </trkpt>
      <trkpt lat="40.3123080" lon="-2.9002600">
        <ele>611.4</ele>
        <time>2019-07-07T09:58:26Z</time>
      </trkpt>
      <trkpt lat="40.3122390" lon="-2.9001600">
        <ele>611.6</ele>
        <time>2019-07-07T09:58:28Z</time>
      </trkpt>
      <trkpt lat="40.3120310" lon="-2.8998330">
        <ele>611.2</ele>
        <time>2019-07-07T09:58:34Z</time>
      </trkpt>
      <trkpt lat="40.3120060" lon="-2.8997750">
        <ele>611.2</ele>
        <time>2019-07-07T09:58:35Z</time>
      </trkpt>
      <trkpt lat="40.3119330" lon="-2.8995440">
        <ele>610.6</ele>
        <time>2019-07-07T09:58:39Z</time>
      </trkpt>
      <trkpt lat="40.3119140" lon="-2.8994900">
        <ele>610.6</ele>
        <time>2019-07-07T09:58:40Z</time>
      </trkpt>
      <trkpt lat="40.3118940" lon="-2.8994380">
        <ele>610.6</ele>
        <time>2019-07-07T09:58:41Z</time>
      </trkpt>
      <trkpt lat="40.3118460" lon="-2.8993390">
        <ele>610.8</ele>
        <time>2019-07-07T09:58:43Z</time>
      </trkpt>
      <trkpt lat="40.3117340" lon="-2.8991530">
        <ele>611.2</ele>
        <time>2019-07-07T09:58:47Z</time>
      </trkpt>
      <trkpt lat="40.3115120" lon="-2.8987660">
        <ele>610.6</ele>
        <time>2019-07-07T09:58:55Z</time>
      </trkpt>
      <trkpt lat="40.3112620" lon="-2.8982500">
        <ele>610.4</ele>
        <time>2019-07-07T09:59:05Z</time>
      </trkpt>
      <trkpt lat="40.3110880" lon="-2.8981220">
        <ele>610.2</ele>
        <time>2019-07-07T09:59:09Z</time>
      </trkpt>
      <trkpt lat="40.3110150" lon="-2.8980350">
        <ele>610.2</ele>
        <time>2019-07-07T09:59:11Z</time>
      </trkpt>
      <trkpt lat="40.3109860" lon="-2.8979880">
        <ele>610.2</ele>
        <time>2019-07-07T09:59:12Z</time>
      </trkpt>
      <trkpt lat="40.3109570" lon="-2.8979400">
        <ele>610.4</ele>
        <time>2019-07-07T09:59:13Z</time>
      </trkpt>
      <trkpt lat="40.3108180" lon="-2.8976790">
        <ele>610.2</ele>
        <time>2019-07-07T09:59:18Z</time>
      </trkpt>
      <trkpt lat="40.3107740" lon="-2.8975720">
        <ele>610.0</ele>
        <time>2019-07-07T09:59:20Z</time>
      </trkpt>
      <trkpt lat="40.3107150" lon="-2.8974970">
        <ele>610.2</ele>
        <time>2019-07-07T09:59:22Z</time>
      </trkpt>
      <trkpt lat="40.3106640" lon="-2.8974240">
        <ele>610.4</ele>
        <time>2019-07-07T09:59:24Z</time>
      </trkpt>
      <trkpt lat="40.3106390" lon="-2.8973930">
        <ele>610.4</ele>
        <time>2019-07-07T09:59:25Z</time>
      </trkpt>
      <trkpt lat="40.3105310" lon="-2.8972590">
        <ele>610.4</ele>
        <time>2019-07-07T09:59:29Z</time>
      </trkpt>
      <trkpt lat="40.3104850" lon="-2.8971800">
        <ele>610.2</ele>
        <time>2019-07-07T09:59:31Z</time>
      </trkpt>
      <trkpt lat="40.3103700" lon="-2.8970160">
        <ele>610.2</ele>
        <time>2019-07-07T09:59:36Z</time>
      </trkpt>
      <trkpt lat="40.3103150" lon="-2.8969090">
        <ele>610.0</ele>
        <time>2019-07-07T09:59:39Z</time>
      </trkpt>
      <trkpt lat="40.3102730" lon="-2.8967780">
        <ele>610.0</ele>
        <time>2019-07-07T09:59:42Z</time>
      </trkpt>
      <trkpt lat="40.3102060" lon="-2.8966000">
        <ele>610.0</ele>
        <time>2019-07-07T09:59:46Z</time>
      </trkpt>
      <trkpt lat="40.3100740" lon="-2.8963430">
        <ele>610.0</ele>
        <time>2019-07-07T09:59:52Z</time>
      </trkpt>
      <trkpt lat="40.3100110" lon="-2.8961990">
        <ele>609.6</ele>
        <time>2019-07-07T09:59:55Z</time>
      </trkpt>
      <trkpt lat="40.3099460" lon="-2.8960570">
        <ele>609.6</ele>
        <time>2019-07-07T09:59:59Z</time>
      </trkpt>
      <trkpt lat="40.3099180" lon="-2.8959660">
        <ele>609.8</ele>
        <time>2019-07-07T10:00:03Z</time>
      </trkpt>
      <trkpt lat="40.3099150" lon="-2.8959160">
        <ele>610.0</ele>
        <time>2019-07-07T10:00:05Z</time>
      </trkpt>
      <trkpt lat="40.3099280" lon="-2.8958460">
        <ele>610.4</ele>
        <time>2019-07-07T10:00:08Z</time>
      </trkpt>
      <trkpt lat="40.3099310" lon="-2.8958250">
        <ele>610.6</ele>
        <time>2019-07-07T10:00:09Z</time>
      </trkpt>
      <trkpt lat="40.3099420" lon="-2.8957550">
        <ele>611.0</ele>
        <time>2019-07-07T10:00:12Z</time>
      </trkpt>
      <trkpt lat="40.3099500" lon="-2.8957030">
        <ele>611.4</ele>
        <time>2019-07-07T10:00:14Z</time>
      </trkpt>
      <trkpt lat="40.3099390" lon="-2.8956490">
        <ele>612.0</ele>
        <time>2019-07-07T10:00:16Z</time>
      </trkpt>
      <trkpt lat="40.3099110" lon="-2.8955510">
        <ele>612.2</ele>
        <time>2019-07-07T10:00:19Z</time>
      </trkpt>
      <trkpt lat="40.3098540" lon="-2.8953340">
        <ele>612.6</ele>
        <time>2019-07-07T10:00:24Z</time>
      </trkpt>
      <trkpt lat="40.3097310" lon="-2.8951560">
        <ele>612.2</ele>
        <time>2019-07-07T10:00:29Z</time>
      </trkpt>
      <trkpt lat="40.3096820" lon="-2.8950390">
        <ele>612.2</ele>
        <time>2019-07-07T10:00:32Z</time>
      </trkpt>
      <trkpt lat="40.3096140" lon="-2.8949060">
        <ele>613.0</ele>
        <time>2019-07-07T10:00:35Z</time>
      </trkpt>
      <trkpt lat="40.3095930" lon="-2.8948560">
        <ele>613.0</ele>
        <time>2019-07-07T10:00:36Z</time>
      </trkpt>
      <trkpt lat="40.3095160" lon="-2.8946590">
        <ele>612.6</ele>
        <time>2019-07-07T10:00:40Z</time>
      </trkpt>
      <trkpt lat="40.3094930" lon="-2.8946150">
        <ele>612.4</ele>
        <time>2019-07-07T10:00:41Z</time>
      </trkpt>
      <trkpt lat="40.3094290" lon="-2.8944470">
        <ele>612.4</ele>
        <time>2019-07-07T10:00:45Z</time>
      </trkpt>
      <trkpt lat="40.3094220" lon="-2.8944040">
        <ele>612.6</ele>
        <time>2019-07-07T10:00:46Z</time>
      </trkpt>
      <trkpt lat="40.3093230" lon="-2.8942680">
        <ele>613.0</ele>
        <time>2019-07-07T10:00:50Z</time>
      </trkpt>
      <trkpt lat="40.3092910" lon="-2.8942310">
        <ele>612.8</ele>
        <time>2019-07-07T10:00:51Z</time>
      </trkpt>
      <trkpt lat="40.3092180" lon="-2.8940890">
        <ele>612.4</ele>
        <time>2019-07-07T10:00:54Z</time>
      </trkpt>
      <trkpt lat="40.3091950" lon="-2.8940340">
        <ele>612.4</ele>
        <time>2019-07-07T10:00:55Z</time>
      </trkpt>
      <trkpt lat="40.3090340" lon="-2.8936430">
        <ele>613.0</ele>
        <time>2019-07-07T10:01:02Z</time>
      </trkpt>
      <trkpt lat="40.3089730" lon="-2.8934790">
        <ele>613.2</ele>
        <time>2019-07-07T10:01:05Z</time>
      </trkpt>
      <trkpt lat="40.3088810" lon="-2.8933340">
        <ele>613.2</ele>
        <time>2019-07-07T10:01:08Z</time>
      </trkpt>
      <trkpt lat="40.3088520" lon="-2.8932800">
        <ele>613.4</ele>
        <time>2019-07-07T10:01:09Z</time>
      </trkpt>
      <trkpt lat="40.3087320" lon="-2.8929810">
        <ele>612.8</ele>
        <time>2019-07-07T10:01:14Z</time>
      </trkpt>
      <trkpt lat="40.3085600" lon="-2.8925540">
        <ele>613.2</ele>
        <time>2019-07-07T10:01:21Z</time>
      </trkpt>
      <trkpt lat="40.3084140" lon="-2.8922850">
        <ele>612.0</ele>
        <time>2019-07-07T10:01:26Z</time>
      </trkpt>
      <trkpt lat="40.3083910" lon="-2.8921430">
        <ele>611.4</ele>
        <time>2019-07-07T10:01:30Z</time>
      </trkpt>
      <trkpt lat="40.3083920" lon="-2.8921130">
        <ele>611.0</ele>
        <time>2019-07-07T10:01:31Z</time>
      </trkpt>
      <trkpt lat="40.3083420" lon="-2.8919750">
        <ele>610.2</ele>
        <time>2019-07-07T10:01:35Z</time>
      </trkpt>
      <trkpt lat="40.3082820" lon="-2.8918850">
        <ele>610.0</ele>
        <time>2019-07-07T10:01:38Z</time>
      </trkpt>
      <trkpt lat="40.3082410" lon="-2.8917940">
        <ele>610.6</ele>
        <time>2019-07-07T10:01:41Z</time>
      </trkpt>
      <trkpt lat="40.3081860" lon="-2.8917170">
        <ele>611.2</ele>
        <time>2019-07-07T10:01:44Z</time>
      </trkpt>
      <trkpt lat="40.3081380" lon="-2.8916640">
        <ele>611.4</ele>
        <time>2019-07-07T10:01:46Z</time>
      </trkpt>
      <trkpt lat="40.3080150" lon="-2.8914430">
        <ele>611.6</ele>
        <time>2019-07-07T10:01:52Z</time>
      </trkpt>
      <trkpt lat="40.3079840" lon="-2.8912050">
        <ele>611.6</ele>
        <time>2019-07-07T10:01:57Z</time>
      </trkpt>
      <trkpt lat="40.3079370" lon="-2.8910830">
        <ele>612.0</ele>
        <time>2019-07-07T10:02:00Z</time>
      </trkpt>
      <trkpt lat="40.3078760" lon="-2.8909470">
        <ele>612.6</ele>
        <time>2019-07-07T10:02:03Z</time>
      </trkpt>
      <trkpt lat="40.3077370" lon="-2.8906180">
        <ele>612.8</ele>
        <time>2019-07-07T10:02:10Z</time>
      </trkpt>
      <trkpt lat="40.3077140" lon="-2.8905820">
        <ele>612.6</ele>
        <time>2019-07-07T10:02:11Z</time>
      </trkpt>
      <trkpt lat="40.3076240" lon="-2.8904920">
        <ele>612.0</ele>
        <time>2019-07-07T10:02:14Z</time>
      </trkpt>
      <trkpt lat="40.3075990" lon="-2.8904520">
        <ele>612.0</ele>
        <time>2019-07-07T10:02:15Z</time>
      </trkpt>
      <trkpt lat="40.3074710" lon="-2.8902080">
        <ele>611.6</ele>
        <time>2019-07-07T10:02:21Z</time>
      </trkpt>
      <trkpt lat="40.3074550" lon="-2.8901690">
        <ele>611.8</ele>
        <time>2019-07-07T10:02:24Z</time>
      </trkpt>
      <trkpt lat="40.3074560" lon="-2.8901690">
        <ele>611.8</ele>
        <time>2019-07-07T10:02:25Z</time>
      </trkpt>
      <trkpt lat="40.3074420" lon="-2.8901320">
        <ele>611.6</ele>
        <time>2019-07-07T10:02:39Z</time>
      </trkpt>
      <trkpt lat="40.3074240" lon="-2.8900780">
        <ele>611.6</ele>
        <time>2019-07-07T10:02:41Z</time>
      </trkpt>
      <trkpt lat="40.3073110" lon="-2.8898130">
        <ele>611.6</ele>
        <time>2019-07-07T10:02:48Z</time>
      </trkpt>
      <trkpt lat="40.3072630" lon="-2.8897120">
        <ele>611.6</ele>
        <time>2019-07-07T10:02:50Z</time>
      </trkpt>
      <trkpt lat="40.3072150" lon="-2.8896010">
        <ele>611.2</ele>
        <time>2019-07-07T10:02:52Z</time>
      </trkpt>
      <trkpt lat="40.3071950" lon="-2.8895490">
        <ele>611.2</ele>
        <time>2019-07-07T10:02:53Z</time>
      </trkpt>
      <trkpt lat="40.3071770" lon="-2.8895020">
        <ele>611.2</ele>
        <time>2019-07-07T10:02:54Z</time>
      </trkpt>
      <trkpt lat="40.3071280" lon="-2.8893840">
        <ele>611.2</ele>
        <time>2019-07-07T10:02:57Z</time>
      </trkpt>
      <trkpt lat="40.3071080" lon="-2.8893530">
        <ele>611.2</ele>
        <time>2019-07-07T10:02:58Z</time>
      </trkpt>
      <trkpt lat="40.3069750" lon="-2.8892530">
        <ele>611.2</ele>
        <time>2019-07-07T10:03:02Z</time>
      </trkpt>
      <trkpt lat="40.3068940" lon="-2.8891850">
        <ele>611.0</ele>
        <time>2019-07-07T10:03:04Z</time>
      </trkpt>
      <trkpt lat="40.3067850" lon="-2.8890500">
        <ele>610.8</ele>
        <time>2019-07-07T10:03:07Z</time>
      </trkpt>
      <trkpt lat="40.3066430" lon="-2.8888570">
        <ele>610.8</ele>
        <time>2019-07-07T10:03:11Z</time>
      </trkpt>
      <trkpt lat="40.3065720" lon="-2.8887580">
        <ele>610.8</ele>
        <time>2019-07-07T10:03:13Z</time>
      </trkpt>
      <trkpt lat="40.3065310" lon="-2.8887160">
        <ele>610.8</ele>
        <time>2019-07-07T10:03:14Z</time>
      </trkpt>
      <trkpt lat="40.3063720" lon="-2.8885510">
        <ele>611.0</ele>
        <time>2019-07-07T10:03:18Z</time>
      </trkpt>
      <trkpt lat="40.3063330" lon="-2.8885070">
        <ele>611.0</ele>
        <time>2019-07-07T10:03:19Z</time>
      </trkpt>
      <trkpt lat="40.3060040" lon="-2.8881540">
        <ele>611.2</ele>
        <time>2019-07-07T10:03:27Z</time>
      </trkpt>
      <trkpt lat="40.3057010" lon="-2.8878550">
        <ele>610.8</ele>
        <time>2019-07-07T10:03:34Z</time>
      </trkpt>
      <trkpt lat="40.3053970" lon="-2.8875990">
        <ele>611.2</ele>
        <time>2019-07-07T10:03:41Z</time>
      </trkpt>
      <trkpt lat="40.3051510" lon="-2.8874420">
        <ele>611.0</ele>
        <time>2019-07-07T10:03:46Z</time>
      </trkpt>
      <trkpt lat="40.3051000" lon="-2.8874210">
        <ele>610.8</ele>
        <time>2019-07-07T10:03:47Z</time>
      </trkpt>
      <trkpt lat="40.3047290" lon="-2.8873000">
        <ele>611.2</ele>
        <time>2019-07-07T10:03:54Z</time>
      </trkpt>
      <trkpt lat="40.3042960" lon="-2.8872360">
        <ele>611.2</ele>
        <time>2019-07-07T10:04:02Z</time>
      </trkpt>
      <trkpt lat="40.3038100" lon="-2.8873000">
        <ele>611.4</ele>
        <time>2019-07-07T10:04:11Z</time>
      </trkpt>
      <trkpt lat="40.3036810" lon="-2.8874080">
        <ele>612.2</ele>
        <time>2019-07-07T10:04:15Z</time>
      </trkpt>
      <trkpt lat="40.3036430" lon="-2.8874690">
        <ele>612.4</ele>
        <time>2019-07-07T10:04:17Z</time>
      </trkpt>
      <trkpt lat="40.3035270" lon="-2.8876610">
        <ele>613.0</ele>
        <time>2019-07-07T10:04:22Z</time>
      </trkpt>
      <trkpt lat="40.3034670" lon="-2.8877500">
        <ele>613.2</ele>
        <time>2019-07-07T10:04:24Z</time>
      </trkpt>
      <trkpt lat="40.3033390" lon="-2.8879380">
        <ele>613.2</ele>
        <time>2019-07-07T10:04:28Z</time>
      </trkpt>
      <trkpt lat="40.3031260" lon="-2.8882110">
        <ele>613.0</ele>
        <time>2019-07-07T10:04:34Z</time>
      </trkpt>
      <trkpt lat="40.3029930" lon="-2.8884040">
        <ele>613.6</ele>
        <time>2019-07-07T10:04:39Z</time>
      </trkpt>
      <trkpt lat="40.3029460" lon="-2.8884830">
        <ele>614.6</ele>
        <time>2019-07-07T10:04:42Z</time>
      </trkpt>
      <trkpt lat="40.3029270" lon="-2.8885040">
        <ele>614.6</ele>
        <time>2019-07-07T10:04:43Z</time>
      </trkpt>
      <trkpt lat="40.3028890" lon="-2.8885460">
        <ele>614.8</ele>
        <time>2019-07-07T10:04:45Z</time>
      </trkpt>
      <trkpt lat="40.3028390" lon="-2.8886250">
        <ele>615.6</ele>
        <time>2019-07-07T10:04:48Z</time>
      </trkpt>
      <trkpt lat="40.3027890" lon="-2.8887090">
        <ele>616.8</ele>
        <time>2019-07-07T10:04:51Z</time>
      </trkpt>
      <trkpt lat="40.3027340" lon="-2.8887940">
        <ele>617.6</ele>
        <time>2019-07-07T10:04:54Z</time>
      </trkpt>
      <trkpt lat="40.3026820" lon="-2.8888890">
        <ele>617.8</ele>
        <time>2019-07-07T10:04:57Z</time>
      </trkpt>
      <trkpt lat="40.3026650" lon="-2.8889210">
        <ele>618.0</ele>
        <time>2019-07-07T10:04:58Z</time>
      </trkpt>
      <trkpt lat="40.3025910" lon="-2.8890500">
        <ele>618.4</ele>
        <time>2019-07-07T10:05:02Z</time>
      </trkpt>
      <trkpt lat="40.3024580" lon="-2.8892360">
        <ele>617.6</ele>
        <time>2019-07-07T10:05:07Z</time>
      </trkpt>
      <trkpt lat="40.3023850" lon="-2.8892940">
        <ele>616.6</ele>
        <time>2019-07-07T10:05:09Z</time>
      </trkpt>
      <trkpt lat="40.3022620" lon="-2.8893780">
        <ele>615.8</ele>
        <time>2019-07-07T10:05:12Z</time>
      </trkpt>
      <trkpt lat="40.3022220" lon="-2.8894190">
        <ele>615.6</ele>
        <time>2019-07-07T10:05:13Z</time>
      </trkpt>
      <trkpt lat="40.3021460" lon="-2.8895970">
        <ele>615.2</ele>
        <time>2019-07-07T10:05:16Z</time>
      </trkpt>
      <trkpt lat="40.3021290" lon="-2.8896630">
        <ele>615.0</ele>
        <time>2019-07-07T10:05:17Z</time>
      </trkpt>
      <trkpt lat="40.3020880" lon="-2.8897880">
        <ele>615.0</ele>
        <time>2019-07-07T10:05:19Z</time>
      </trkpt>
      <trkpt lat="40.3020170" lon="-2.8898750">
        <ele>615.2</ele>
        <time>2019-07-07T10:05:21Z</time>
      </trkpt>
      <trkpt lat="40.3018840" lon="-2.8898990">
        <ele>615.6</ele>
        <time>2019-07-07T10:05:24Z</time>
      </trkpt>
      <trkpt lat="40.3017890" lon="-2.8898950">
        <ele>615.8</ele>
        <time>2019-07-07T10:05:26Z</time>
      </trkpt>
      <trkpt lat="40.3015890" lon="-2.8898830">
        <ele>616.6</ele>
        <time>2019-07-07T10:05:30Z</time>
      </trkpt>
      <trkpt lat="40.3014860" lon="-2.8899000">
        <ele>616.8</ele>
        <time>2019-07-07T10:05:32Z</time>
      </trkpt>
      <trkpt lat="40.3013340" lon="-2.8899810">
        <ele>616.6</ele>
        <time>2019-07-07T10:05:35Z</time>
      </trkpt>
      <trkpt lat="40.3012800" lon="-2.8901240">
        <ele>616.0</ele>
        <time>2019-07-07T10:05:37Z</time>
      </trkpt>
      <trkpt lat="40.3013310" lon="-2.8902760">
        <ele>615.6</ele>
        <time>2019-07-07T10:05:39Z</time>
      </trkpt>
      <trkpt lat="40.3014870" lon="-2.8904040">
        <ele>615.6</ele>
        <time>2019-07-07T10:05:42Z</time>
      </trkpt>
      <trkpt lat="40.3016290" lon="-2.8905350">
        <ele>615.8</ele>
        <time>2019-07-07T10:05:45Z</time>
      </trkpt>
      <trkpt lat="40.3016960" lon="-2.8906440">
        <ele>615.8</ele>
        <time>2019-07-07T10:05:47Z</time>
      </trkpt>
      <trkpt lat="40.3017020" lon="-2.8908360">
        <ele>616.6</ele>
        <time>2019-07-07T10:05:50Z</time>
      </trkpt>
      <trkpt lat="40.3016510" lon="-2.8909590">
        <ele>616.8</ele>
        <time>2019-07-07T10:05:52Z</time>
      </trkpt>
      <trkpt lat="40.3015620" lon="-2.8911420">
        <ele>616.8</ele>
        <time>2019-07-07T10:05:55Z</time>
      </trkpt>
      <trkpt lat="40.3014950" lon="-2.8912610">
        <ele>616.6</ele>
        <time>2019-07-07T10:05:57Z</time>
      </trkpt>
      <trkpt lat="40.3014040" lon="-2.8913550">
        <ele>616.6</ele>
        <time>2019-07-07T10:05:59Z</time>
      </trkpt>
      <trkpt lat="40.3013020" lon="-2.8914470">
        <ele>616.4</ele>
        <time>2019-07-07T10:06:01Z</time>
      </trkpt>
      <trkpt lat="40.3012240" lon="-2.8915800">
        <ele>616.2</ele>
        <time>2019-07-07T10:06:03Z</time>
      </trkpt>
      <trkpt lat="40.3011660" lon="-2.8918160">
        <ele>616.0</ele>
        <time>2019-07-07T10:06:06Z</time>
      </trkpt>
      <trkpt lat="40.3011450" lon="-2.8918890">
        <ele>616.2</ele>
        <time>2019-07-07T10:06:07Z</time>
      </trkpt>
      <trkpt lat="40.3011190" lon="-2.8919560">
        <ele>616.2</ele>
        <time>2019-07-07T10:06:08Z</time>
      </trkpt>
      <trkpt lat="40.3010250" lon="-2.8921110">
        <ele>616.8</ele>
        <time>2019-07-07T10:06:11Z</time>
      </trkpt>
      <trkpt lat="40.3009930" lon="-2.8921550">
        <ele>617.0</ele>
        <time>2019-07-07T10:06:12Z</time>
      </trkpt>
      <trkpt lat="40.3009630" lon="-2.8921970">
        <ele>617.4</ele>
        <time>2019-07-07T10:06:13Z</time>
      </trkpt>
      <trkpt lat="40.3008520" lon="-2.8923550">
        <ele>618.2</ele>
        <time>2019-07-07T10:06:17Z</time>
      </trkpt>
      <trkpt lat="40.3007470" lon="-2.8925020">
        <ele>619.2</ele>
        <time>2019-07-07T10:06:21Z</time>
      </trkpt>
      <trkpt lat="40.3006550" lon="-2.8926550">
        <ele>620.0</ele>
        <time>2019-07-07T10:06:25Z</time>
      </trkpt>
      <trkpt lat="40.3006300" lon="-2.8926910">
        <ele>620.4</ele>
        <time>2019-07-07T10:06:26Z</time>
      </trkpt>
      <trkpt lat="40.3006020" lon="-2.8927230">
        <ele>620.6</ele>
        <time>2019-07-07T10:06:27Z</time>
      </trkpt>
      <trkpt lat="40.3005720" lon="-2.8927530">
        <ele>620.8</ele>
        <time>2019-07-07T10:06:28Z</time>
      </trkpt>
      <trkpt lat="40.3005100" lon="-2.8928160">
        <ele>621.4</ele>
        <time>2019-07-07T10:06:30Z</time>
      </trkpt>
      <trkpt lat="40.3004730" lon="-2.8928430">
        <ele>621.8</ele>
        <time>2019-07-07T10:06:31Z</time>
      </trkpt>
      <trkpt lat="40.3003700" lon="-2.8929200">
        <ele>622.4</ele>
        <time>2019-07-07T10:06:34Z</time>
      </trkpt>
      <trkpt lat="40.3003390" lon="-2.8929470">
        <ele>622.6</ele>
        <time>2019-07-07T10:06:35Z</time>
      </trkpt>
      <trkpt lat="40.3002410" lon="-2.8930110">
        <ele>623.2</ele>
        <time>2019-07-07T10:06:38Z</time>
      </trkpt>
      <trkpt lat="40.3002040" lon="-2.8930270">
        <ele>623.4</ele>
        <time>2019-07-07T10:06:39Z</time>
      </trkpt>
      <trkpt lat="40.3001640" lon="-2.8930380">
        <ele>623.6</ele>
        <time>2019-07-07T10:06:40Z</time>
      </trkpt>
      <trkpt lat="40.2999720" lon="-2.8931230">
        <ele>624.0</ele>
        <time>2019-07-07T10:06:45Z</time>
      </trkpt>
      <trkpt lat="40.2999370" lon="-2.8933160">
        <ele>623.8</ele>
        <time>2019-07-07T10:06:48Z</time>
      </trkpt>
      <trkpt lat="40.2999080" lon="-2.8935800">
        <ele>623.8</ele>
        <time>2019-07-07T10:06:52Z</time>
      </trkpt>
      <trkpt lat="40.2998580" lon="-2.8937030">
        <ele>623.8</ele>
        <time>2019-07-07T10:06:54Z</time>
      </trkpt>
      <trkpt lat="40.2996680" lon="-2.8940250">
        <ele>622.6</ele>
        <time>2019-07-07T10:06:59Z</time>
      </trkpt>
      <trkpt lat="40.2996230" lon="-2.8940940">
        <ele>622.4</ele>
        <time>2019-07-07T10:07:00Z</time>
      </trkpt>
      <trkpt lat="40.2995730" lon="-2.8941610">
        <ele>622.0</ele>
        <time>2019-07-07T10:07:01Z</time>
      </trkpt>
      <trkpt lat="40.2995160" lon="-2.8942230">
        <ele>621.6</ele>
        <time>2019-07-07T10:07:02Z</time>
      </trkpt>
      <trkpt lat="40.2994560" lon="-2.8942770">
        <ele>620.8</ele>
        <time>2019-07-07T10:07:03Z</time>
      </trkpt>
      <trkpt lat="40.2993920" lon="-2.8943230">
        <ele>620.6</ele>
        <time>2019-07-07T10:07:04Z</time>
      </trkpt>
      <trkpt lat="40.2993290" lon="-2.8943670">
        <ele>620.0</ele>
        <time>2019-07-07T10:07:05Z</time>
      </trkpt>
      <trkpt lat="40.2992650" lon="-2.8944110">
        <ele>619.4</ele>
        <time>2019-07-07T10:07:06Z</time>
      </trkpt>
      <trkpt lat="40.2992050" lon="-2.8944680">
        <ele>619.2</ele>
        <time>2019-07-07T10:07:07Z</time>
      </trkpt>
      <trkpt lat="40.2991550" lon="-2.8945410">
        <ele>618.8</ele>
        <time>2019-07-07T10:07:08Z</time>
      </trkpt>
      <trkpt lat="40.2991130" lon="-2.8946240">
        <ele>618.8</ele>
        <time>2019-07-07T10:07:09Z</time>
      </trkpt>
      <trkpt lat="40.2990380" lon="-2.8947990">
        <ele>618.6</ele>
        <time>2019-07-07T10:07:11Z</time>
      </trkpt>
      <trkpt lat="40.2989520" lon="-2.8949680">
        <ele>618.4</ele>
        <time>2019-07-07T10:07:13Z</time>
      </trkpt>
      <trkpt lat="40.2989130" lon="-2.8950530">
        <ele>618.2</ele>
        <time>2019-07-07T10:07:14Z</time>
      </trkpt>
      <trkpt lat="40.2988520" lon="-2.8952350">
        <ele>617.2</ele>
        <time>2019-07-07T10:07:16Z</time>
      </trkpt>
      <trkpt lat="40.2988300" lon="-2.8953290">
        <ele>617.0</ele>
        <time>2019-07-07T10:07:17Z</time>
      </trkpt>
      <trkpt lat="40.2987800" lon="-2.8957810">
        <ele>616.4</ele>
        <time>2019-07-07T10:07:22Z</time>
      </trkpt>
      <trkpt lat="40.2986900" lon="-2.8961070">
        <ele>616.2</ele>
        <time>2019-07-07T10:07:26Z</time>
      </trkpt>
      <trkpt lat="40.2986560" lon="-2.8961830">
        <ele>616.0</ele>
        <time>2019-07-07T10:07:27Z</time>
      </trkpt>
      <trkpt lat="40.2985310" lon="-2.8963830">
        <ele>615.6</ele>
        <time>2019-07-07T10:07:30Z</time>
      </trkpt>
      <trkpt lat="40.2984410" lon="-2.8965020">
        <ele>615.6</ele>
        <time>2019-07-07T10:07:32Z</time>
      </trkpt>
      <trkpt lat="40.2983600" lon="-2.8966220">
        <ele>616.0</ele>
        <time>2019-07-07T10:07:34Z</time>
      </trkpt>
      <trkpt lat="40.2982150" lon="-2.8968610">
        <ele>616.0</ele>
        <time>2019-07-07T10:07:38Z</time>
      </trkpt>
      <trkpt lat="40.2978600" lon="-2.8973470">
        <ele>615.6</ele>
        <time>2019-07-07T10:07:47Z</time>
      </trkpt>
      <trkpt lat="40.2975810" lon="-2.8977230">
        <ele>615.6</ele>
        <time>2019-07-07T10:07:54Z</time>
      </trkpt>
      <trkpt lat="40.2975510" lon="-2.8977870">
        <ele>615.6</ele>
        <time>2019-07-07T10:07:55Z</time>
      </trkpt>
      <trkpt lat="40.2974840" lon="-2.8980620">
        <ele>615.0</ele>
        <time>2019-07-07T10:07:59Z</time>
      </trkpt>
      <trkpt lat="40.2975030" lon="-2.8982770">
        <ele>614.8</ele>
        <time>2019-07-07T10:08:02Z</time>
      </trkpt>
      <trkpt lat="40.2975200" lon="-2.8983390">
        <ele>614.8</ele>
        <time>2019-07-07T10:08:03Z</time>
      </trkpt>
      <trkpt lat="40.2975390" lon="-2.8983950">
        <ele>615.2</ele>
        <time>2019-07-07T10:08:04Z</time>
      </trkpt>
      <trkpt lat="40.2975890" lon="-2.8985530">
        <ele>615.8</ele>
        <time>2019-07-07T10:08:07Z</time>
      </trkpt>
      <trkpt lat="40.2976140" lon="-2.8986680">
        <ele>615.6</ele>
        <time>2019-07-07T10:08:09Z</time>
      </trkpt>
      <trkpt lat="40.2976470" lon="-2.8988610">
        <ele>615.6</ele>
        <time>2019-07-07T10:08:12Z</time>
      </trkpt>
      <trkpt lat="40.2976600" lon="-2.8990570">
        <ele>615.2</ele>
        <time>2019-07-07T10:08:15Z</time>
      </trkpt>
      <trkpt lat="40.2976460" lon="-2.8995600">
        <ele>615.6</ele>
        <time>2019-07-07T10:08:23Z</time>
      </trkpt>
      <trkpt lat="40.2976100" lon="-2.8997400">
        <ele>616.2</ele>
        <time>2019-07-07T10:08:26Z</time>
      </trkpt>
      <trkpt lat="40.2975270" lon="-2.8999580">
        <ele>616.4</ele>
        <time>2019-07-07T10:08:30Z</time>
      </trkpt>
      <trkpt lat="40.2973960" lon="-2.9001830">
        <ele>616.0</ele>
        <time>2019-07-07T10:08:34Z</time>
      </trkpt>
      <trkpt lat="40.2973160" lon="-2.9002950">
        <ele>616.0</ele>
        <time>2019-07-07T10:08:36Z</time>
      </trkpt>
      <trkpt lat="40.2972240" lon="-2.9005340">
        <ele>616.2</ele>
        <time>2019-07-07T10:08:40Z</time>
      </trkpt>
      <trkpt lat="40.2972030" lon="-2.9006530">
        <ele>616.6</ele>
        <time>2019-07-07T10:08:42Z</time>
      </trkpt>
      <trkpt lat="40.2971600" lon="-2.9008910">
        <ele>616.4</ele>
        <time>2019-07-07T10:08:46Z</time>
      </trkpt>
      <trkpt lat="40.2971480" lon="-2.9009490">
        <ele>616.4</ele>
        <time>2019-07-07T10:08:47Z</time>
      </trkpt>
      <trkpt lat="40.2970330" lon="-2.9013220">
        <ele>616.4</ele>
        <time>2019-07-07T10:08:54Z</time>
      </trkpt>
      <trkpt lat="40.2969270" lon="-2.9016740">
        <ele>617.2</ele>
        <time>2019-07-07T10:09:01Z</time>
      </trkpt>
      <trkpt lat="40.2969050" lon="-2.9017820">
        <ele>617.0</ele>
        <time>2019-07-07T10:09:03Z</time>
      </trkpt>
      <trkpt lat="40.2968400" lon="-2.9021940">
        <ele>617.6</ele>
        <time>2019-07-07T10:09:11Z</time>
      </trkpt>
      <trkpt lat="40.2968190" lon="-2.9024010">
        <ele>618.4</ele>
        <time>2019-07-07T10:09:15Z</time>
      </trkpt>
      <trkpt lat="40.2968100" lon="-2.9025780">
        <ele>618.6</ele>
        <time>2019-07-07T10:09:18Z</time>
      </trkpt>
      <trkpt lat="40.2967490" lon="-2.9030150">
        <ele>617.8</ele>
        <time>2019-07-07T10:09:25Z</time>
      </trkpt>
      <trkpt lat="40.2967300" lon="-2.9031490">
        <ele>617.8</ele>
        <time>2019-07-07T10:09:27Z</time>
      </trkpt>
      <trkpt lat="40.2967140" lon="-2.9032800">
        <ele>617.6</ele>
        <time>2019-07-07T10:09:29Z</time>
      </trkpt>
      <trkpt lat="40.2966950" lon="-2.9034100">
        <ele>617.4</ele>
        <time>2019-07-07T10:09:31Z</time>
      </trkpt>
      <trkpt lat="40.2966840" lon="-2.9034760">
        <ele>617.4</ele>
        <time>2019-07-07T10:09:32Z</time>
      </trkpt>
      <trkpt lat="40.2966590" lon="-2.9036660">
        <ele>617.2</ele>
        <time>2019-07-07T10:09:35Z</time>
      </trkpt>
      <trkpt lat="40.2966340" lon="-2.9039990">
        <ele>616.4</ele>
        <time>2019-07-07T10:09:40Z</time>
      </trkpt>
      <trkpt lat="40.2965830" lon="-2.9044460">
        <ele>616.4</ele>
        <time>2019-07-07T10:09:47Z</time>
      </trkpt>
      <trkpt lat="40.2965610" lon="-2.9047550">
        <ele>616.8</ele>
        <time>2019-07-07T10:09:52Z</time>
      </trkpt>
      <trkpt lat="40.2965400" lon="-2.9048610">
        <ele>616.8</ele>
        <time>2019-07-07T10:09:54Z</time>
      </trkpt>
      <trkpt lat="40.2964540" lon="-2.9051650">
        <ele>617.8</ele>
        <time>2019-07-07T10:10:00Z</time>
      </trkpt>
      <trkpt lat="40.2963460" lon="-2.9055910">
        <ele>618.4</ele>
        <time>2019-07-07T10:10:08Z</time>
      </trkpt>
      <trkpt lat="40.2962160" lon="-2.9060470">
        <ele>618.4</ele>
        <time>2019-07-07T10:10:16Z</time>
      </trkpt>
      <trkpt lat="40.2961890" lon="-2.9061760">
        <ele>618.4</ele>
        <time>2019-07-07T10:10:18Z</time>
      </trkpt>
      <trkpt lat="40.2960410" lon="-2.9067180">
        <ele>618.0</ele>
        <time>2019-07-07T10:10:26Z</time>
      </trkpt>
      <trkpt lat="40.2959570" lon="-2.9070600">
        <ele>617.8</ele>
        <time>2019-07-07T10:10:31Z</time>
      </trkpt>
      <trkpt lat="40.2959180" lon="-2.9071930">
        <ele>617.8</ele>
        <time>2019-07-07T10:10:33Z</time>
      </trkpt>
      <trkpt lat="40.2958010" lon="-2.9077250">
        <ele>618.0</ele>
        <time>2019-07-07T10:10:41Z</time>
      </trkpt>
      <trkpt lat="40.2957930" lon="-2.9077930">
        <ele>618.0</ele>
        <time>2019-07-07T10:10:42Z</time>
      </trkpt>
      <trkpt lat="40.2957320" lon="-2.9083320">
        <ele>617.4</ele>
        <time>2019-07-07T10:10:50Z</time>
      </trkpt>
      <trkpt lat="40.2957060" lon="-2.9085350">
        <ele>617.6</ele>
        <time>2019-07-07T10:10:53Z</time>
      </trkpt>
      <trkpt lat="40.2956220" lon="-2.9091970">
        <ele>617.4</ele>
        <time>2019-07-07T10:11:03Z</time>
      </trkpt>
      <trkpt lat="40.2956110" lon="-2.9096420">
        <ele>617.8</ele>
        <time>2019-07-07T10:11:10Z</time>
      </trkpt>
      <trkpt lat="40.2956070" lon="-2.9097050">
        <ele>617.6</ele>
        <time>2019-07-07T10:11:11Z</time>
      </trkpt>
      <trkpt lat="40.2955860" lon="-2.9099680">
        <ele>617.2</ele>
        <time>2019-07-07T10:11:15Z</time>
      </trkpt>
      <trkpt lat="40.2955660" lon="-2.9102470">
        <ele>617.4</ele>
        <time>2019-07-07T10:11:19Z</time>
      </trkpt>
      <trkpt lat="40.2954300" lon="-2.9109420">
        <ele>617.4</ele>
        <time>2019-07-07T10:11:29Z</time>
      </trkpt>
      <trkpt lat="40.2954160" lon="-2.9110130">
        <ele>617.4</ele>
        <time>2019-07-07T10:11:30Z</time>
      </trkpt>
      <trkpt lat="40.2953540" lon="-2.9112940">
        <ele>617.0</ele>
        <time>2019-07-07T10:11:34Z</time>
      </trkpt>
      <trkpt lat="40.2952270" lon="-2.9117970">
        <ele>616.4</ele>
        <time>2019-07-07T10:11:41Z</time>
      </trkpt>
      <trkpt lat="40.2951310" lon="-2.9121760">
        <ele>616.0</ele>
        <time>2019-07-07T10:11:46Z</time>
      </trkpt>
      <trkpt lat="40.2950910" lon="-2.9124140">
        <ele>615.8</ele>
        <time>2019-07-07T10:11:49Z</time>
      </trkpt>
      <trkpt lat="40.2949400" lon="-2.9131110">
        <ele>615.0</ele>
        <time>2019-07-07T10:11:58Z</time>
      </trkpt>
      <trkpt lat="40.2949230" lon="-2.9131860">
        <ele>615.2</ele>
        <time>2019-07-07T10:11:59Z</time>
      </trkpt>
      <trkpt lat="40.2948480" lon="-2.9135590">
        <ele>615.0</ele>
        <time>2019-07-07T10:12:04Z</time>
      </trkpt>
      <trkpt lat="40.2947910" lon="-2.9138540">
        <ele>614.8</ele>
        <time>2019-07-07T10:12:08Z</time>
      </trkpt>
      <trkpt lat="40.2946240" lon="-2.9145360">
        <ele>615.4</ele>
        <time>2019-07-07T10:12:18Z</time>
      </trkpt>
      <trkpt lat="40.2945130" lon="-2.9148720">
        <ele>615.8</ele>
        <time>2019-07-07T10:12:23Z</time>
      </trkpt>
      <trkpt lat="40.2944640" lon="-2.9150010">
        <ele>616.2</ele>
        <time>2019-07-07T10:12:25Z</time>
      </trkpt>
      <trkpt lat="40.2943540" lon="-2.9152500">
        <ele>616.2</ele>
        <time>2019-07-07T10:12:29Z</time>
      </trkpt>
      <trkpt lat="40.2942020" lon="-2.9155550">
        <ele>615.8</ele>
        <time>2019-07-07T10:12:34Z</time>
      </trkpt>
      <trkpt lat="40.2938390" lon="-2.9161390">
        <ele>615.6</ele>
        <time>2019-07-07T10:12:44Z</time>
      </trkpt>
      <trkpt lat="40.2935370" lon="-2.9165840">
        <ele>615.4</ele>
        <time>2019-07-07T10:12:52Z</time>
      </trkpt>
      <trkpt lat="40.2932100" lon="-2.9170720">
        <ele>615.8</ele>
        <time>2019-07-07T10:13:01Z</time>
      </trkpt>
      <trkpt lat="40.2929610" lon="-2.9174690">
        <ele>615.4</ele>
        <time>2019-07-07T10:13:08Z</time>
      </trkpt>
      <trkpt lat="40.2926240" lon="-2.9180600">
        <ele>615.6</ele>
        <time>2019-07-07T10:13:18Z</time>
      </trkpt>
      <trkpt lat="40.2925880" lon="-2.9181180">
        <ele>615.6</ele>
        <time>2019-07-07T10:13:19Z</time>
      </trkpt>
      <trkpt lat="40.2924240" lon="-2.9184040">
        <ele>615.0</ele>
        <time>2019-07-07T10:13:24Z</time>
      </trkpt>
      <trkpt lat="40.2923180" lon="-2.9185670">
        <ele>615.6</ele>
        <time>2019-07-07T10:13:27Z</time>
      </trkpt>
      <trkpt lat="40.2919540" lon="-2.9190920">
        <ele>615.8</ele>
        <time>2019-07-07T10:13:37Z</time>
      </trkpt>
      <trkpt lat="40.2918500" lon="-2.9192600">
        <ele>616.4</ele>
        <time>2019-07-07T10:13:40Z</time>
      </trkpt>
      <trkpt lat="40.2916010" lon="-2.9196230">
        <ele>616.2</ele>
        <time>2019-07-07T10:13:47Z</time>
      </trkpt>
      <trkpt lat="40.2913000" lon="-2.9201240">
        <ele>616.6</ele>
        <time>2019-07-07T10:13:56Z</time>
      </trkpt>
      <trkpt lat="40.2911160" lon="-2.9205590">
        <ele>616.8</ele>
        <time>2019-07-07T10:14:03Z</time>
      </trkpt>
      <trkpt lat="40.2910930" lon="-2.9206240">
        <ele>616.6</ele>
        <time>2019-07-07T10:14:04Z</time>
      </trkpt>
      <trkpt lat="40.2908850" lon="-2.9211920">
        <ele>616.6</ele>
        <time>2019-07-07T10:14:13Z</time>
      </trkpt>
      <trkpt lat="40.2908610" lon="-2.9212560">
        <ele>616.4</ele>
        <time>2019-07-07T10:14:14Z</time>
      </trkpt>
      <trkpt lat="40.2907010" lon="-2.9216860">
        <ele>617.0</ele>
        <time>2019-07-07T10:14:21Z</time>
      </trkpt>
      <trkpt lat="40.2905790" lon="-2.9219760">
        <ele>617.4</ele>
        <time>2019-07-07T10:14:26Z</time>
      </trkpt>
      <trkpt lat="40.2905290" lon="-2.9220930">
        <ele>617.6</ele>
        <time>2019-07-07T10:14:28Z</time>
      </trkpt>
      <trkpt lat="40.2905070" lon="-2.9221530">
        <ele>617.6</ele>
        <time>2019-07-07T10:14:29Z</time>
      </trkpt>
      <trkpt lat="40.2904840" lon="-2.9222120">
        <ele>617.8</ele>
        <time>2019-07-07T10:14:30Z</time>
      </trkpt>
      <trkpt lat="40.2904350" lon="-2.9223310">
        <ele>617.2</ele>
        <time>2019-07-07T10:14:32Z</time>
      </trkpt>
      <trkpt lat="40.2904000" lon="-2.9224560">
        <ele>617.6</ele>
        <time>2019-07-07T10:14:34Z</time>
      </trkpt>
      <trkpt lat="40.2902920" lon="-2.9229000">
        <ele>618.4</ele>
        <time>2019-07-07T10:14:41Z</time>
      </trkpt>
      <trkpt lat="40.2902730" lon="-2.9230310">
        <ele>618.6</ele>
        <time>2019-07-07T10:14:43Z</time>
      </trkpt>
      <trkpt lat="40.2902210" lon="-2.9232210">
        <ele>618.4</ele>
        <time>2019-07-07T10:14:46Z</time>
      </trkpt>
      <trkpt lat="40.2900380" lon="-2.9236890">
        <ele>618.2</ele>
        <time>2019-07-07T10:14:54Z</time>
      </trkpt>
      <trkpt lat="40.2899890" lon="-2.9238040">
        <ele>618.4</ele>
        <time>2019-07-07T10:14:56Z</time>
      </trkpt>
      <trkpt lat="40.2898770" lon="-2.9240870">
        <ele>618.4</ele>
        <time>2019-07-07T10:15:01Z</time>
      </trkpt>
      <trkpt lat="40.2897860" lon="-2.9242840">
        <ele>618.4</ele>
        <time>2019-07-07T10:15:05Z</time>
      </trkpt>
      <trkpt lat="40.2897360" lon="-2.9243840">
        <ele>618.8</ele>
        <time>2019-07-07T10:15:07Z</time>
      </trkpt>
      <trkpt lat="40.2895610" lon="-2.9248380">
        <ele>618.2</ele>
        <time>2019-07-07T10:15:15Z</time>
      </trkpt>
      <trkpt lat="40.2893840" lon="-2.9253400">
        <ele>618.4</ele>
        <time>2019-07-07T10:15:23Z</time>
      </trkpt>
      <trkpt lat="40.2892000" lon="-2.9257870">
        <ele>618.2</ele>
        <time>2019-07-07T10:15:30Z</time>
      </trkpt>
      <trkpt lat="40.2890440" lon="-2.9262770">
        <ele>617.8</ele>
        <time>2019-07-07T10:15:37Z</time>
      </trkpt>
      <trkpt lat="40.2890190" lon="-2.9263480">
        <ele>617.8</ele>
        <time>2019-07-07T10:15:38Z</time>
      </trkpt>
      <trkpt lat="40.2888590" lon="-2.9267540">
        <ele>617.0</ele>
        <time>2019-07-07T10:15:44Z</time>
      </trkpt>
      <trkpt lat="40.2886340" lon="-2.9273700">
        <ele>617.4</ele>
        <time>2019-07-07T10:15:53Z</time>
      </trkpt>
      <trkpt lat="40.2885490" lon="-2.9275710">
        <ele>616.6</ele>
        <time>2019-07-07T10:15:56Z</time>
      </trkpt>
      <trkpt lat="40.2883660" lon="-2.9278730">
        <ele>616.0</ele>
        <time>2019-07-07T10:16:01Z</time>
      </trkpt>
      <trkpt lat="40.2880500" lon="-2.9284260">
        <ele>616.0</ele>
        <time>2019-07-07T10:16:10Z</time>
      </trkpt>
      <trkpt lat="40.2880230" lon="-2.9284880">
        <ele>615.8</ele>
        <time>2019-07-07T10:16:11Z</time>
      </trkpt>
      <trkpt lat="40.2878590" lon="-2.9287710">
        <ele>616.4</ele>
        <time>2019-07-07T10:16:16Z</time>
      </trkpt>
      <trkpt lat="40.2876280" lon="-2.9291580">
        <ele>616.2</ele>
        <time>2019-07-07T10:16:23Z</time>
      </trkpt>
      <trkpt lat="40.2873820" lon="-2.9295850">
        <ele>616.0</ele>
        <time>2019-07-07T10:16:31Z</time>
      </trkpt>
      <trkpt lat="40.2872200" lon="-2.9298520">
        <ele>616.2</ele>
        <time>2019-07-07T10:16:36Z</time>
      </trkpt>
      <trkpt lat="40.2870860" lon="-2.9300730">
        <ele>616.0</ele>
        <time>2019-07-07T10:16:40Z</time>
      </trkpt>
      <trkpt lat="40.2867230" lon="-2.9305960">
        <ele>615.6</ele>
        <time>2019-07-07T10:16:50Z</time>
      </trkpt>
      <trkpt lat="40.2865090" lon="-2.9309380">
        <ele>615.4</ele>
        <time>2019-07-07T10:16:56Z</time>
      </trkpt>
      <trkpt lat="40.2861980" lon="-2.9313880">
        <ele>615.6</ele>
        <time>2019-07-07T10:17:04Z</time>
      </trkpt>
      <trkpt lat="40.2858420" lon="-2.9319140">
        <ele>614.8</ele>
        <time>2019-07-07T10:17:13Z</time>
      </trkpt>
      <trkpt lat="40.2854950" lon="-2.9324400">
        <ele>614.4</ele>
        <time>2019-07-07T10:17:22Z</time>
      </trkpt>
      <trkpt lat="40.2852650" lon="-2.9327620">
        <ele>614.4</ele>
        <time>2019-07-07T10:17:28Z</time>
      </trkpt>
      <trkpt lat="40.2851450" lon="-2.9329090">
        <ele>614.4</ele>
        <time>2019-07-07T10:17:31Z</time>
      </trkpt>
      <trkpt lat="40.2850480" lon="-2.9330810">
        <ele>614.6</ele>
        <time>2019-07-07T10:17:34Z</time>
      </trkpt>
      <trkpt lat="40.2850140" lon="-2.9331380">
        <ele>614.6</ele>
        <time>2019-07-07T10:17:35Z</time>
      </trkpt>
      <trkpt lat="40.2848220" lon="-2.9333920">
        <ele>614.8</ele>
        <time>2019-07-07T10:17:40Z</time>
      </trkpt>
      <trkpt lat="40.2847410" lon="-2.9334860">
        <ele>615.0</ele>
        <time>2019-07-07T10:17:42Z</time>
      </trkpt>
      <trkpt lat="40.2846430" lon="-2.9336590">
        <ele>615.2</ele>
        <time>2019-07-07T10:17:45Z</time>
      </trkpt>
      <trkpt lat="40.2845400" lon="-2.9338230">
        <ele>615.2</ele>
        <time>2019-07-07T10:17:48Z</time>
      </trkpt>
      <trkpt lat="40.2844300" lon="-2.9339610">
        <ele>615.2</ele>
        <time>2019-07-07T10:17:51Z</time>
      </trkpt>
      <trkpt lat="40.2841800" lon="-2.9342920">
        <ele>615.2</ele>
        <time>2019-07-07T10:17:58Z</time>
      </trkpt>
      <trkpt lat="40.2838910" lon="-2.9346740">
        <ele>615.8</ele>
        <time>2019-07-07T10:18:06Z</time>
      </trkpt>
      <trkpt lat="40.2837850" lon="-2.9348190">
        <ele>616.2</ele>
        <time>2019-07-07T10:18:09Z</time>
      </trkpt>
      <trkpt lat="40.2835850" lon="-2.9351330">
        <ele>615.2</ele>
        <time>2019-07-07T10:18:15Z</time>
      </trkpt>
      <trkpt lat="40.2834510" lon="-2.9353460">
        <ele>615.0</ele>
        <time>2019-07-07T10:18:19Z</time>
      </trkpt>
      <trkpt lat="40.2832610" lon="-2.9356800">
        <ele>614.8</ele>
        <time>2019-07-07T10:18:25Z</time>
      </trkpt>
      <trkpt lat="40.2832400" lon="-2.9357410">
        <ele>614.8</ele>
        <time>2019-07-07T10:18:26Z</time>
      </trkpt>
      <trkpt lat="40.2832050" lon="-2.9358690">
        <ele>615.0</ele>
        <time>2019-07-07T10:18:28Z</time>
      </trkpt>
      <trkpt lat="40.2831790" lon="-2.9359320">
        <ele>615.2</ele>
        <time>2019-07-07T10:18:29Z</time>
      </trkpt>
      <trkpt lat="40.2830670" lon="-2.9360940">
        <ele>615.0</ele>
        <time>2019-07-07T10:18:32Z</time>
      </trkpt>
      <trkpt lat="40.2830240" lon="-2.9361420">
        <ele>615.0</ele>
        <time>2019-07-07T10:18:33Z</time>
      </trkpt>
      <trkpt lat="40.2829800" lon="-2.9361820">
        <ele>615.0</ele>
        <time>2019-07-07T10:18:34Z</time>
      </trkpt>
      <trkpt lat="40.2828380" lon="-2.9362220">
        <ele>615.2</ele>
        <time>2019-07-07T10:18:37Z</time>
      </trkpt>
      <trkpt lat="40.2827490" lon="-2.9361920">
        <ele>615.4</ele>
        <time>2019-07-07T10:18:39Z</time>
      </trkpt>
      <trkpt lat="40.2825700" lon="-2.9361300">
        <ele>615.2</ele>
        <time>2019-07-07T10:18:43Z</time>
      </trkpt>
      <trkpt lat="40.2822260" lon="-2.9359940">
        <ele>615.6</ele>
        <time>2019-07-07T10:18:51Z</time>
      </trkpt>
      <trkpt lat="40.2819220" lon="-2.9359590">
        <ele>616.6</ele>
        <time>2019-07-07T10:18:58Z</time>
      </trkpt>
      <trkpt lat="40.2817900" lon="-2.9359670">
        <ele>617.2</ele>
        <time>2019-07-07T10:19:01Z</time>
      </trkpt>
      <trkpt lat="40.2816520" lon="-2.9359710">
        <ele>617.4</ele>
        <time>2019-07-07T10:19:04Z</time>
      </trkpt>
      <trkpt lat="40.2815190" lon="-2.9359690">
        <ele>617.6</ele>
        <time>2019-07-07T10:19:07Z</time>
      </trkpt>
      <trkpt lat="40.2812980" lon="-2.9359540">
        <ele>618.2</ele>
        <time>2019-07-07T10:19:12Z</time>
      </trkpt>
      <trkpt lat="40.2812070" lon="-2.9359450">
        <ele>618.4</ele>
        <time>2019-07-07T10:19:14Z</time>
      </trkpt>
      <trkpt lat="40.2808740" lon="-2.9359310">
        <ele>618.2</ele>
        <time>2019-07-07T10:19:21Z</time>
      </trkpt>
      <trkpt lat="40.2805440" lon="-2.9359710">
        <ele>618.8</ele>
        <time>2019-07-07T10:19:28Z</time>
      </trkpt>
      <trkpt lat="40.2804050" lon="-2.9359780">
        <ele>619.6</ele>
        <time>2019-07-07T10:19:31Z</time>
      </trkpt>
      <trkpt lat="40.2801390" lon="-2.9359520">
        <ele>620.0</ele>
        <time>2019-07-07T10:19:37Z</time>
      </trkpt>
      <trkpt lat="40.2800010" lon="-2.9359310">
        <ele>620.0</ele>
        <time>2019-07-07T10:19:40Z</time>
      </trkpt>
      <trkpt lat="40.2795400" lon="-2.9359080">
        <ele>620.2</ele>
        <time>2019-07-07T10:19:50Z</time>
      </trkpt>
      <trkpt lat="40.2793370" lon="-2.9359530">
        <ele>621.2</ele>
        <time>2019-07-07T10:19:55Z</time>
      </trkpt>
      <trkpt lat="40.2793020" lon="-2.9359760">
        <ele>621.2</ele>
        <time>2019-07-07T10:19:56Z</time>
      </trkpt>
      <trkpt lat="40.2791720" lon="-2.9361010">
        <ele>622.0</ele>
        <time>2019-07-07T10:20:00Z</time>
      </trkpt>
      <trkpt lat="40.2791440" lon="-2.9361390">
        <ele>622.4</ele>
        <time>2019-07-07T10:20:01Z</time>
      </trkpt>
      <trkpt lat="40.2791190" lon="-2.9361820">
        <ele>622.4</ele>
        <time>2019-07-07T10:20:02Z</time>
      </trkpt>
      <trkpt lat="40.2790960" lon="-2.9362280">
        <ele>622.4</ele>
        <time>2019-07-07T10:20:03Z</time>
      </trkpt>
      <trkpt lat="40.2790170" lon="-2.9364680">
        <ele>622.8</ele>
        <time>2019-07-07T10:20:08Z</time>
      </trkpt>
      <trkpt lat="40.2789540" lon="-2.9366450">
        <ele>623.4</ele>
        <time>2019-07-07T10:20:12Z</time>
      </trkpt>
      <trkpt lat="40.2788900" lon="-2.9367520">
        <ele>623.8</ele>
        <time>2019-07-07T10:20:15Z</time>
      </trkpt>
      <trkpt lat="40.2788080" lon="-2.9368320">
        <ele>624.6</ele>
        <time>2019-07-07T10:20:18Z</time>
      </trkpt>
      <trkpt lat="40.2787000" lon="-2.9369250">
        <ele>625.6</ele>
        <time>2019-07-07T10:20:22Z</time>
      </trkpt>
      <trkpt lat="40.2786230" lon="-2.9370000">
        <ele>626.6</ele>
        <time>2019-07-07T10:20:25Z</time>
      </trkpt>
      <trkpt lat="40.2785970" lon="-2.9370250">
        <ele>626.8</ele>
        <time>2019-07-07T10:20:26Z</time>
      </trkpt>
      <trkpt lat="40.2784970" lon="-2.9371250">
        <ele>627.6</ele>
        <time>2019-07-07T10:20:30Z</time>
      </trkpt>
      <trkpt lat="40.2784750" lon="-2.9371570">
        <ele>627.8</ele>
        <time>2019-07-07T10:20:31Z</time>
      </trkpt>
      <trkpt lat="40.2783800" lon="-2.9373400">
        <ele>628.4</ele>
        <time>2019-07-07T10:20:36Z</time>
      </trkpt>
      <trkpt lat="40.2782720" lon="-2.9374940">
        <ele>629.2</ele>
        <time>2019-07-07T10:20:41Z</time>
      </trkpt>
      <trkpt lat="40.2782240" lon="-2.9375500">
        <ele>629.4</ele>
        <time>2019-07-07T10:20:43Z</time>
      </trkpt>
      <trkpt lat="40.2781190" lon="-2.9376420">
        <ele>630.2</ele>
        <time>2019-07-07T10:20:47Z</time>
      </trkpt>
      <trkpt lat="40.2780330" lon="-2.9376920">
        <ele>631.0</ele>
        <time>2019-07-07T10:20:50Z</time>
      </trkpt>
      <trkpt lat="40.2780060" lon="-2.9377100">
        <ele>631.2</ele>
        <time>2019-07-07T10:20:51Z</time>
      </trkpt>
      <trkpt lat="40.2778650" lon="-2.9377910">
        <ele>632.4</ele>
        <time>2019-07-07T10:20:56Z</time>
      </trkpt>
      <trkpt lat="40.2777650" lon="-2.9378740">
        <ele>633.6</ele>
        <time>2019-07-07T10:21:00Z</time>
      </trkpt>
      <trkpt lat="40.2777020" lon="-2.9380350">
        <ele>634.8</ele>
        <time>2019-07-07T10:21:05Z</time>
      </trkpt>
      <trkpt lat="40.2776970" lon="-2.9380700">
        <ele>635.0</ele>
        <time>2019-07-07T10:21:06Z</time>
      </trkpt>
      <trkpt lat="40.2776910" lon="-2.9381430">
        <ele>635.8</ele>
        <time>2019-07-07T10:21:08Z</time>
      </trkpt>
      <trkpt lat="40.2776660" lon="-2.9383250">
        <ele>637.0</ele>
        <time>2019-07-07T10:21:13Z</time>
      </trkpt>
      <trkpt lat="40.2776420" lon="-2.9383890">
        <ele>637.2</ele>
        <time>2019-07-07T10:21:15Z</time>
      </trkpt>
      <trkpt lat="40.2775960" lon="-2.9384790">
        <ele>638.0</ele>
        <time>2019-07-07T10:21:18Z</time>
      </trkpt>
      <trkpt lat="40.2775150" lon="-2.9385760">
        <ele>639.2</ele>
        <time>2019-07-07T10:21:22Z</time>
      </trkpt>
      <trkpt lat="40.2774910" lon="-2.9385970">
        <ele>639.6</ele>
        <time>2019-07-07T10:21:23Z</time>
      </trkpt>
      <trkpt lat="40.2773900" lon="-2.9386700">
        <ele>640.4</ele>
        <time>2019-07-07T10:21:27Z</time>
      </trkpt>
      <trkpt lat="40.2773080" lon="-2.9387170">
        <ele>640.6</ele>
        <time>2019-07-07T10:21:30Z</time>
      </trkpt>
      <trkpt lat="40.2772320" lon="-2.9387840">
        <ele>641.4</ele>
        <time>2019-07-07T10:21:33Z</time>
      </trkpt>
      <trkpt lat="40.2771650" lon="-2.9388730">
        <ele>642.0</ele>
        <time>2019-07-07T10:21:36Z</time>
      </trkpt>
      <trkpt lat="40.2771430" lon="-2.9388990">
        <ele>642.4</ele>
        <time>2019-07-07T10:21:37Z</time>
      </trkpt>
      <trkpt lat="40.2770980" lon="-2.9389490">
        <ele>643.4</ele>
        <time>2019-07-07T10:21:39Z</time>
      </trkpt>
      <trkpt lat="40.2770040" lon="-2.9390340">
        <ele>644.6</ele>
        <time>2019-07-07T10:21:43Z</time>
      </trkpt>
      <trkpt lat="40.2768830" lon="-2.9391090">
        <ele>645.6</ele>
        <time>2019-07-07T10:21:48Z</time>
      </trkpt>
      <trkpt lat="40.2767840" lon="-2.9392190">
        <ele>646.8</ele>
        <time>2019-07-07T10:21:53Z</time>
      </trkpt>
      <trkpt lat="40.2767560" lon="-2.9392810">
        <ele>647.4</ele>
        <time>2019-07-07T10:21:55Z</time>
      </trkpt>
      <trkpt lat="40.2767340" lon="-2.9393840">
        <ele>647.8</ele>
        <time>2019-07-07T10:21:58Z</time>
      </trkpt>
      <trkpt lat="40.2767310" lon="-2.9394940">
        <ele>648.8</ele>
        <time>2019-07-07T10:22:01Z</time>
      </trkpt>
      <trkpt lat="40.2767380" lon="-2.9395290">
        <ele>649.0</ele>
        <time>2019-07-07T10:22:02Z</time>
      </trkpt>
      <trkpt lat="40.2767400" lon="-2.9396370">
        <ele>650.0</ele>
        <time>2019-07-07T10:22:05Z</time>
      </trkpt>
      <trkpt lat="40.2767290" lon="-2.9397050">
        <ele>650.6</ele>
        <time>2019-07-07T10:22:07Z</time>
      </trkpt>
      <trkpt lat="40.2767100" lon="-2.9397690">
        <ele>651.2</ele>
        <time>2019-07-07T10:22:09Z</time>
      </trkpt>
      <trkpt lat="40.2766460" lon="-2.9399260">
        <ele>652.0</ele>
        <time>2019-07-07T10:22:14Z</time>
      </trkpt>
      <trkpt lat="40.2766300" lon="-2.9399580">
        <ele>652.4</ele>
        <time>2019-07-07T10:22:15Z</time>
      </trkpt>
      <trkpt lat="40.2765950" lon="-2.9400180">
        <ele>653.4</ele>
        <time>2019-07-07T10:22:17Z</time>
      </trkpt>
      <trkpt lat="40.2765070" lon="-2.9401130">
        <ele>654.4</ele>
        <time>2019-07-07T10:22:21Z</time>
      </trkpt>
      <trkpt lat="40.2764800" lon="-2.9401310">
        <ele>654.6</ele>
        <time>2019-07-07T10:22:22Z</time>
      </trkpt>
      <trkpt lat="40.2763440" lon="-2.9402040">
        <ele>655.0</ele>
        <time>2019-07-07T10:22:27Z</time>
      </trkpt>
      <trkpt lat="40.2762810" lon="-2.9402040">
        <ele>655.8</ele>
        <time>2019-07-07T10:22:29Z</time>
      </trkpt>
      <trkpt lat="40.2761960" lon="-2.9402320">
        <ele>656.8</ele>
        <time>2019-07-07T10:22:32Z</time>
      </trkpt>
      <trkpt lat="40.2760710" lon="-2.9403880">
        <ele>657.8</ele>
        <time>2019-07-07T10:22:38Z</time>
      </trkpt>
      <trkpt lat="40.2760250" lon="-2.9405200">
        <ele>659.0</ele>
        <time>2019-07-07T10:22:42Z</time>
      </trkpt>
      <trkpt lat="40.2760000" lon="-2.9406660">
        <ele>659.8</ele>
        <time>2019-07-07T10:22:46Z</time>
      </trkpt>
      <trkpt lat="40.2759960" lon="-2.9407010">
        <ele>660.0</ele>
        <time>2019-07-07T10:22:47Z</time>
      </trkpt>
      <trkpt lat="40.2759820" lon="-2.9408410">
        <ele>661.2</ele>
        <time>2019-07-07T10:22:51Z</time>
      </trkpt>
      <trkpt lat="40.2759720" lon="-2.9409080">
        <ele>661.4</ele>
        <time>2019-07-07T10:22:53Z</time>
      </trkpt>
      <trkpt lat="40.2759210" lon="-2.9410620">
        <ele>662.6</ele>
        <time>2019-07-07T10:22:58Z</time>
      </trkpt>
      <trkpt lat="40.2758930" lon="-2.9411230">
        <ele>663.4</ele>
        <time>2019-07-07T10:23:00Z</time>
      </trkpt>
      <trkpt lat="40.2758560" lon="-2.9411740">
        <ele>663.6</ele>
        <time>2019-07-07T10:23:02Z</time>
      </trkpt>
      <trkpt lat="40.2757540" lon="-2.9412910">
        <ele>664.8</ele>
        <time>2019-07-07T10:23:07Z</time>
      </trkpt>
      <trkpt lat="40.2756370" lon="-2.9413760">
        <ele>666.0</ele>
        <time>2019-07-07T10:23:12Z</time>
      </trkpt>
      <trkpt lat="40.2755640" lon="-2.9414090">
        <ele>666.8</ele>
        <time>2019-07-07T10:23:15Z</time>
      </trkpt>
      <trkpt lat="40.2755380" lon="-2.9414150">
        <ele>667.2</ele>
        <time>2019-07-07T10:23:16Z</time>
      </trkpt>
      <trkpt lat="40.2754370" lon="-2.9414180">
        <ele>668.2</ele>
        <time>2019-07-07T10:23:20Z</time>
      </trkpt>
      <trkpt lat="40.2753640" lon="-2.9414040">
        <ele>669.2</ele>
        <time>2019-07-07T10:23:23Z</time>
      </trkpt>
      <trkpt lat="40.2753400" lon="-2.9413930">
        <ele>669.4</ele>
        <time>2019-07-07T10:23:24Z</time>
      </trkpt>
      <trkpt lat="40.2752380" lon="-2.9413560">
        <ele>670.8</ele>
        <time>2019-07-07T10:23:28Z</time>
      </trkpt>
      <trkpt lat="40.2751870" lon="-2.9413500">
        <ele>671.2</ele>
        <time>2019-07-07T10:23:30Z</time>
      </trkpt>
      <trkpt lat="40.2751080" lon="-2.9413480">
        <ele>672.0</ele>
        <time>2019-07-07T10:23:33Z</time>
      </trkpt>
      <trkpt lat="40.2749810" lon="-2.9413810">
        <ele>672.8</ele>
        <time>2019-07-07T10:23:38Z</time>
      </trkpt>
      <trkpt lat="40.2749580" lon="-2.9413950">
        <ele>673.0</ele>
        <time>2019-07-07T10:23:39Z</time>
      </trkpt>
      <trkpt lat="40.2748620" lon="-2.9414940">
        <ele>674.0</ele>
        <time>2019-07-07T10:23:44Z</time>
      </trkpt>
      <trkpt lat="40.2748470" lon="-2.9415170">
        <ele>674.2</ele>
        <time>2019-07-07T10:23:45Z</time>
      </trkpt>
      <trkpt lat="40.2748100" lon="-2.9416020">
        <ele>675.4</ele>
        <time>2019-07-07T10:23:48Z</time>
      </trkpt>
      <trkpt lat="40.2747880" lon="-2.9416640">
        <ele>676.0</ele>
        <time>2019-07-07T10:23:50Z</time>
      </trkpt>
      <trkpt lat="40.2747720" lon="-2.9417300">
        <ele>676.6</ele>
        <time>2019-07-07T10:23:52Z</time>
      </trkpt>
      <trkpt lat="40.2747620" lon="-2.9419100">
        <ele>677.8</ele>
        <time>2019-07-07T10:23:57Z</time>
      </trkpt>
      <trkpt lat="40.2747880" lon="-2.9421160">
        <ele>679.0</ele>
        <time>2019-07-07T10:24:03Z</time>
      </trkpt>
      <trkpt lat="40.2747960" lon="-2.9421500">
        <ele>679.2</ele>
        <time>2019-07-07T10:24:04Z</time>
      </trkpt>
      <trkpt lat="40.2748140" lon="-2.9422550">
        <ele>680.0</ele>
        <time>2019-07-07T10:24:07Z</time>
      </trkpt>
      <trkpt lat="40.2748330" lon="-2.9423900">
        <ele>680.6</ele>
        <time>2019-07-07T10:24:11Z</time>
      </trkpt>
      <trkpt lat="40.2748360" lon="-2.9424240">
        <ele>681.2</ele>
        <time>2019-07-07T10:24:12Z</time>
      </trkpt>
      <trkpt lat="40.2748390" lon="-2.9425270">
        <ele>682.2</ele>
        <time>2019-07-07T10:24:15Z</time>
      </trkpt>
      <trkpt lat="40.2748290" lon="-2.9426350">
        <ele>683.0</ele>
        <time>2019-07-07T10:24:18Z</time>
      </trkpt>
      <trkpt lat="40.2748060" lon="-2.9427020">
        <ele>683.4</ele>
        <time>2019-07-07T10:24:20Z</time>
      </trkpt>
      <trkpt lat="40.2747500" lon="-2.9427810">
        <ele>684.4</ele>
        <time>2019-07-07T10:24:23Z</time>
      </trkpt>
      <trkpt lat="40.2746790" lon="-2.9428380">
        <ele>685.6</ele>
        <time>2019-07-07T10:24:26Z</time>
      </trkpt>
      <trkpt lat="40.2745760" lon="-2.9429220">
        <ele>686.2</ele>
        <time>2019-07-07T10:24:30Z</time>
      </trkpt>
      <trkpt lat="40.2744880" lon="-2.9430370">
        <ele>686.8</ele>
        <time>2019-07-07T10:24:34Z</time>
      </trkpt>
      <trkpt lat="40.2744390" lon="-2.9431550">
        <ele>687.2</ele>
        <time>2019-07-07T10:24:37Z</time>
      </trkpt>
      <trkpt lat="40.2744140" lon="-2.9432500">
        <ele>687.2</ele>
        <time>2019-07-07T10:24:39Z</time>
      </trkpt>
      <trkpt lat="40.2744180" lon="-2.9434370">
        <ele>686.6</ele>
        <time>2019-07-07T10:24:42Z</time>
      </trkpt>
      <trkpt lat="40.2744270" lon="-2.9435070">
        <ele>686.4</ele>
        <time>2019-07-07T10:24:43Z</time>
      </trkpt>
      <trkpt lat="40.2744820" lon="-2.9438010">
        <ele>686.2</ele>
        <time>2019-07-07T10:24:47Z</time>
      </trkpt>
      <trkpt lat="40.2744900" lon="-2.9438750">
        <ele>686.2</ele>
        <time>2019-07-07T10:24:48Z</time>
      </trkpt>
      <trkpt lat="40.2744770" lon="-2.9440710">
        <ele>686.4</ele>
        <time>2019-07-07T10:24:51Z</time>
      </trkpt>
      <trkpt lat="40.2744480" lon="-2.9441820">
        <ele>686.2</ele>
        <time>2019-07-07T10:24:53Z</time>
      </trkpt>
      <trkpt lat="40.2744340" lon="-2.9442370">
        <ele>686.2</ele>
        <time>2019-07-07T10:24:54Z</time>
      </trkpt>
      <trkpt lat="40.2744110" lon="-2.9443540">
        <ele>686.6</ele>
        <time>2019-07-07T10:24:56Z</time>
      </trkpt>
      <trkpt lat="40.2743620" lon="-2.9445880">
        <ele>687.0</ele>
        <time>2019-07-07T10:25:00Z</time>
      </trkpt>
      <trkpt lat="40.2743290" lon="-2.9447060">
        <ele>687.0</ele>
        <time>2019-07-07T10:25:02Z</time>
      </trkpt>
      <trkpt lat="40.2743080" lon="-2.9447660">
        <ele>687.2</ele>
        <time>2019-07-07T10:25:03Z</time>
      </trkpt>
      <trkpt lat="40.2742380" lon="-2.9449340">
        <ele>687.0</ele>
        <time>2019-07-07T10:25:06Z</time>
      </trkpt>
      <trkpt lat="40.2741530" lon="-2.9450600">
        <ele>687.2</ele>
        <time>2019-07-07T10:25:09Z</time>
      </trkpt>
      <trkpt lat="40.2739740" lon="-2.9451700">
        <ele>687.6</ele>
        <time>2019-07-07T10:25:14Z</time>
      </trkpt>
      <trkpt lat="40.2739340" lon="-2.9451830">
        <ele>688.0</ele>
        <time>2019-07-07T10:25:15Z</time>
      </trkpt>
      <trkpt lat="40.2737540" lon="-2.9451760">
        <ele>688.6</ele>
        <time>2019-07-07T10:25:19Z</time>
      </trkpt>
      <trkpt lat="40.2735900" lon="-2.9451480">
        <ele>688.2</ele>
        <time>2019-07-07T10:25:22Z</time>
      </trkpt>
      <trkpt lat="40.2734690" lon="-2.9451690">
        <ele>687.6</ele>
        <time>2019-07-07T10:25:24Z</time>
      </trkpt>
      <trkpt lat="40.2733570" lon="-2.9452380">
        <ele>687.4</ele>
        <time>2019-07-07T10:25:26Z</time>
      </trkpt>
      <trkpt lat="40.2732720" lon="-2.9453470">
        <ele>687.2</ele>
        <time>2019-07-07T10:25:28Z</time>
      </trkpt>
      <trkpt lat="40.2732230" lon="-2.9454700">
        <ele>687.2</ele>
        <time>2019-07-07T10:25:30Z</time>
      </trkpt>
      <trkpt lat="40.2731870" lon="-2.9455790">
        <ele>687.4</ele>
        <time>2019-07-07T10:25:32Z</time>
      </trkpt>
      <trkpt lat="40.2730550" lon="-2.9459480">
        <ele>688.4</ele>
        <time>2019-07-07T10:25:40Z</time>
      </trkpt>
      <trkpt lat="40.2729320" lon="-2.9462550">
        <ele>688.6</ele>
        <time>2019-07-07T10:25:47Z</time>
      </trkpt>
      <trkpt lat="40.2729050" lon="-2.9463010">
        <ele>688.6</ele>
        <time>2019-07-07T10:25:48Z</time>
      </trkpt>
      <trkpt lat="40.2727890" lon="-2.9464180">
        <ele>688.4</ele>
        <time>2019-07-07T10:25:51Z</time>
      </trkpt>
      <trkpt lat="40.2726860" lon="-2.9464410">
        <ele>688.2</ele>
        <time>2019-07-07T10:25:53Z</time>
      </trkpt>
      <trkpt lat="40.2726300" lon="-2.9464280">
        <ele>687.8</ele>
        <time>2019-07-07T10:25:54Z</time>
      </trkpt>
      <trkpt lat="40.2725220" lon="-2.9463510">
        <ele>687.0</ele>
        <time>2019-07-07T10:25:56Z</time>
      </trkpt>
      <trkpt lat="40.2724710" lon="-2.9462930">
        <ele>686.8</ele>
        <time>2019-07-07T10:25:57Z</time>
      </trkpt>
      <trkpt lat="40.2722150" lon="-2.9461060">
        <ele>685.2</ele>
        <time>2019-07-07T10:26:01Z</time>
      </trkpt>
      <trkpt lat="40.2720730" lon="-2.9460960">
        <ele>684.2</ele>
        <time>2019-07-07T10:26:03Z</time>
      </trkpt>
      <trkpt lat="40.2720090" lon="-2.9461020">
        <ele>684.2</ele>
        <time>2019-07-07T10:26:04Z</time>
      </trkpt>
      <trkpt lat="40.2719500" lon="-2.9461090">
        <ele>684.2</ele>
        <time>2019-07-07T10:26:05Z</time>
      </trkpt>
      <trkpt lat="40.2717370" lon="-2.9461290">
        <ele>684.6</ele>
        <time>2019-07-07T10:26:09Z</time>
      </trkpt>
      <trkpt lat="40.2716850" lon="-2.9461240">
        <ele>684.8</ele>
        <time>2019-07-07T10:26:10Z</time>
      </trkpt>
      <trkpt lat="40.2716320" lon="-2.9461120">
        <ele>685.2</ele>
        <time>2019-07-07T10:26:11Z</time>
      </trkpt>
      <trkpt lat="40.2715770" lon="-2.9460960">
        <ele>685.4</ele>
        <time>2019-07-07T10:26:12Z</time>
      </trkpt>
      <trkpt lat="40.2714660" lon="-2.9460530">
        <ele>685.2</ele>
        <time>2019-07-07T10:26:14Z</time>
      </trkpt>
      <trkpt lat="40.2713430" lon="-2.9460180">
        <ele>685.2</ele>
        <time>2019-07-07T10:26:16Z</time>
      </trkpt>
      <trkpt lat="40.2712230" lon="-2.9460330">
        <ele>684.2</ele>
        <time>2019-07-07T10:26:18Z</time>
      </trkpt>
      <trkpt lat="40.2711700" lon="-2.9460560">
        <ele>684.0</ele>
        <time>2019-07-07T10:26:19Z</time>
      </trkpt>
      <trkpt lat="40.2710540" lon="-2.9461780">
        <ele>683.8</ele>
        <time>2019-07-07T10:26:22Z</time>
      </trkpt>
      <trkpt lat="40.2710020" lon="-2.9464170">
        <ele>685.0</ele>
        <time>2019-07-07T10:26:26Z</time>
      </trkpt>
      <trkpt lat="40.2710170" lon="-2.9465380">
        <ele>685.2</ele>
        <time>2019-07-07T10:26:28Z</time>
      </trkpt>
      <trkpt lat="40.2710480" lon="-2.9466860">
        <ele>685.6</ele>
        <time>2019-07-07T10:26:31Z</time>
      </trkpt>
      <trkpt lat="40.2710540" lon="-2.9468390">
        <ele>686.4</ele>
        <time>2019-07-07T10:26:34Z</time>
      </trkpt>
      <trkpt lat="40.2710460" lon="-2.9468900">
        <ele>686.6</ele>
        <time>2019-07-07T10:26:35Z</time>
      </trkpt>
      <trkpt lat="40.2710310" lon="-2.9469410">
        <ele>686.4</ele>
        <time>2019-07-07T10:26:36Z</time>
      </trkpt>
      <trkpt lat="40.2709170" lon="-2.9471560">
        <ele>686.0</ele>
        <time>2019-07-07T10:26:40Z</time>
      </trkpt>
      <trkpt lat="40.2708220" lon="-2.9472680">
        <ele>685.0</ele>
        <time>2019-07-07T10:26:42Z</time>
      </trkpt>
      <trkpt lat="40.2707120" lon="-2.9473920">
        <ele>684.0</ele>
        <time>2019-07-07T10:26:44Z</time>
      </trkpt>
      <trkpt lat="40.2706550" lon="-2.9474610">
        <ele>683.6</ele>
        <time>2019-07-07T10:26:45Z</time>
      </trkpt>
      <trkpt lat="40.2705410" lon="-2.9476130">
        <ele>682.4</ele>
        <time>2019-07-07T10:26:47Z</time>
      </trkpt>
      <trkpt lat="40.2703780" lon="-2.9478550">
        <ele>681.2</ele>
        <time>2019-07-07T10:26:50Z</time>
      </trkpt>
      <trkpt lat="40.2703290" lon="-2.9479380">
        <ele>681.0</ele>
        <time>2019-07-07T10:26:51Z</time>
      </trkpt>
      <trkpt lat="40.2702440" lon="-2.9481110">
        <ele>680.6</ele>
        <time>2019-07-07T10:26:53Z</time>
      </trkpt>
      <trkpt lat="40.2701910" lon="-2.9482930">
        <ele>680.4</ele>
        <time>2019-07-07T10:26:55Z</time>
      </trkpt>
      <trkpt lat="40.2701690" lon="-2.9486090">
        <ele>680.8</ele>
        <time>2019-07-07T10:26:59Z</time>
      </trkpt>
      <trkpt lat="40.2701630" lon="-2.9487840">
        <ele>681.6</ele>
        <time>2019-07-07T10:27:02Z</time>
      </trkpt>
      <trkpt lat="40.2701550" lon="-2.9488750">
        <ele>682.0</ele>
        <time>2019-07-07T10:27:04Z</time>
      </trkpt>
      <trkpt lat="40.2701470" lon="-2.9489190">
        <ele>682.4</ele>
        <time>2019-07-07T10:27:05Z</time>
      </trkpt>
      <trkpt lat="40.2701020" lon="-2.9491370">
        <ele>683.4</ele>
        <time>2019-07-07T10:27:10Z</time>
      </trkpt>
      <trkpt lat="40.2700280" lon="-2.9494210">
        <ele>683.8</ele>
        <time>2019-07-07T10:27:16Z</time>
      </trkpt>
      <trkpt lat="40.2699240" lon="-2.9498570">
        <ele>682.8</ele>
        <time>2019-07-07T10:27:23Z</time>
      </trkpt>
      <trkpt lat="40.2699090" lon="-2.9499260">
        <ele>682.4</ele>
        <time>2019-07-07T10:27:24Z</time>
      </trkpt>
      <trkpt lat="40.2697810" lon="-2.9503860">
        <ele>682.0</ele>
        <time>2019-07-07T10:27:31Z</time>
      </trkpt>
      <trkpt lat="40.2696630" lon="-2.9507000">
        <ele>681.2</ele>
        <time>2019-07-07T10:27:36Z</time>
      </trkpt>
      <trkpt lat="40.2695940" lon="-2.9509030">
        <ele>680.8</ele>
        <time>2019-07-07T10:27:39Z</time>
      </trkpt>
      <trkpt lat="40.2695500" lon="-2.9510450">
        <ele>680.6</ele>
        <time>2019-07-07T10:27:41Z</time>
      </trkpt>
      <trkpt lat="40.2694760" lon="-2.9512710">
        <ele>679.8</ele>
        <time>2019-07-07T10:27:44Z</time>
      </trkpt>
      <trkpt lat="40.2694100" lon="-2.9514280">
        <ele>679.0</ele>
        <time>2019-07-07T10:27:46Z</time>
      </trkpt>
      <trkpt lat="40.2693710" lon="-2.9515080">
        <ele>678.6</ele>
        <time>2019-07-07T10:27:47Z</time>
      </trkpt>
      <trkpt lat="40.2692090" lon="-2.9518400">
        <ele>677.4</ele>
        <time>2019-07-07T10:27:51Z</time>
      </trkpt>
      <trkpt lat="40.2691740" lon="-2.9519310">
        <ele>677.2</ele>
        <time>2019-07-07T10:27:52Z</time>
      </trkpt>
      <trkpt lat="40.2691180" lon="-2.9521260">
        <ele>675.8</ele>
        <time>2019-07-07T10:27:54Z</time>
      </trkpt>
      <trkpt lat="40.2690890" lon="-2.9523350">
        <ele>674.8</ele>
        <time>2019-07-07T10:27:56Z</time>
      </trkpt>
      <trkpt lat="40.2690870" lon="-2.9525390">
        <ele>673.6</ele>
        <time>2019-07-07T10:27:58Z</time>
      </trkpt>
      <trkpt lat="40.2690940" lon="-2.9526380">
        <ele>673.2</ele>
        <time>2019-07-07T10:27:59Z</time>
      </trkpt>
      <trkpt lat="40.2691040" lon="-2.9527350">
        <ele>672.8</ele>
        <time>2019-07-07T10:28:00Z</time>
      </trkpt>
      <trkpt lat="40.2691130" lon="-2.9528280">
        <ele>672.6</ele>
        <time>2019-07-07T10:28:01Z</time>
      </trkpt>
      <trkpt lat="40.2691240" lon="-2.9530860">
        <ele>672.4</ele>
        <time>2019-07-07T10:28:04Z</time>
      </trkpt>
      <trkpt lat="40.2691320" lon="-2.9531630">
        <ele>672.4</ele>
        <time>2019-07-07T10:28:05Z</time>
      </trkpt>
      <trkpt lat="40.2691530" lon="-2.9533030">
        <ele>672.6</ele>
        <time>2019-07-07T10:28:07Z</time>
      </trkpt>
      <trkpt lat="40.2691880" lon="-2.9535310">
        <ele>673.2</ele>
        <time>2019-07-07T10:28:11Z</time>
      </trkpt>
      <trkpt lat="40.2692030" lon="-2.9536250">
        <ele>673.8</ele>
        <time>2019-07-07T10:28:13Z</time>
      </trkpt>
      <trkpt lat="40.2692260" lon="-2.9537460">
        <ele>674.4</ele>
        <time>2019-07-07T10:28:16Z</time>
      </trkpt>
      <trkpt lat="40.2692320" lon="-2.9537820">
        <ele>674.4</ele>
        <time>2019-07-07T10:28:17Z</time>
      </trkpt>
      <trkpt lat="40.2692630" lon="-2.9539240">
        <ele>675.2</ele>
        <time>2019-07-07T10:28:21Z</time>
      </trkpt>
      <trkpt lat="40.2692930" lon="-2.9540280">
        <ele>676.4</ele>
        <time>2019-07-07T10:28:24Z</time>
      </trkpt>
      <trkpt lat="40.2693030" lon="-2.9540620">
        <ele>676.6</ele>
        <time>2019-07-07T10:28:25Z</time>
      </trkpt>
      <trkpt lat="40.2693390" lon="-2.9541610">
        <ele>677.4</ele>
        <time>2019-07-07T10:28:28Z</time>
      </trkpt>
      <trkpt lat="40.2693530" lon="-2.9541950">
        <ele>677.6</ele>
        <time>2019-07-07T10:28:29Z</time>
      </trkpt>
      <trkpt lat="40.2694010" lon="-2.9542980">
        <ele>678.0</ele>
        <time>2019-07-07T10:28:32Z</time>
      </trkpt>
      <trkpt lat="40.2694540" lon="-2.9544000">
        <ele>678.2</ele>
        <time>2019-07-07T10:28:35Z</time>
      </trkpt>
      <trkpt lat="40.2695470" lon="-2.9546070">
        <ele>678.4</ele>
        <time>2019-07-07T10:28:40Z</time>
      </trkpt>
      <trkpt lat="40.2695640" lon="-2.9546550">
        <ele>678.6</ele>
        <time>2019-07-07T10:28:41Z</time>
      </trkpt>
      <trkpt lat="40.2695790" lon="-2.9547080">
        <ele>678.8</ele>
        <time>2019-07-07T10:28:42Z</time>
      </trkpt>
      <trkpt lat="40.2696460" lon="-2.9550170">
        <ele>678.2</ele>
        <time>2019-07-07T10:28:47Z</time>
      </trkpt>
      <trkpt lat="40.2696560" lon="-2.9550910">
        <ele>677.6</ele>
        <time>2019-07-07T10:28:48Z</time>
      </trkpt>
      <trkpt lat="40.2696730" lon="-2.9553350">
        <ele>676.6</ele>
        <time>2019-07-07T10:28:51Z</time>
      </trkpt>
      <trkpt lat="40.2696760" lon="-2.9554230">
        <ele>676.2</ele>
        <time>2019-07-07T10:28:52Z</time>
      </trkpt>
      <trkpt lat="40.2696940" lon="-2.9557790">
        <ele>675.0</ele>
        <time>2019-07-07T10:28:56Z</time>
      </trkpt>
      <trkpt lat="40.2697230" lon="-2.9560410">
        <ele>673.6</ele>
        <time>2019-07-07T10:28:59Z</time>
      </trkpt>
      <trkpt lat="40.2697330" lon="-2.9561220">
        <ele>673.4</ele>
        <time>2019-07-07T10:29:00Z</time>
      </trkpt>
      <trkpt lat="40.2697580" lon="-2.9562820">
        <ele>673.2</ele>
        <time>2019-07-07T10:29:02Z</time>
      </trkpt>
      <trkpt lat="40.2697800" lon="-2.9564370">
        <ele>673.0</ele>
        <time>2019-07-07T10:29:04Z</time>
      </trkpt>
      <trkpt lat="40.2698190" lon="-2.9566540">
        <ele>673.0</ele>
        <time>2019-07-07T10:29:07Z</time>
      </trkpt>
      <trkpt lat="40.2698710" lon="-2.9569930">
        <ele>673.2</ele>
        <time>2019-07-07T10:29:12Z</time>
      </trkpt>
      <trkpt lat="40.2698970" lon="-2.9571110">
        <ele>673.6</ele>
        <time>2019-07-07T10:29:14Z</time>
      </trkpt>
      <trkpt lat="40.2699220" lon="-2.9572170">
        <ele>673.4</ele>
        <time>2019-07-07T10:29:16Z</time>
      </trkpt>
      <trkpt lat="40.2699920" lon="-2.9573600">
        <ele>673.4</ele>
        <time>2019-07-07T10:29:19Z</time>
      </trkpt>
      <trkpt lat="40.2700520" lon="-2.9574410">
        <ele>673.2</ele>
        <time>2019-07-07T10:29:21Z</time>
      </trkpt>
      <trkpt lat="40.2701120" lon="-2.9575090">
        <ele>672.4</ele>
        <time>2019-07-07T10:29:23Z</time>
      </trkpt>
      <trkpt lat="40.2701450" lon="-2.9575480">
        <ele>672.0</ele>
        <time>2019-07-07T10:29:24Z</time>
      </trkpt>
      <trkpt lat="40.2701800" lon="-2.9575870">
        <ele>671.6</ele>
        <time>2019-07-07T10:29:25Z</time>
      </trkpt>
      <trkpt lat="40.2702530" lon="-2.9576570">
        <ele>670.8</ele>
        <time>2019-07-07T10:29:27Z</time>
      </trkpt>
      <trkpt lat="40.2702910" lon="-2.9576860">
        <ele>670.4</ele>
        <time>2019-07-07T10:29:28Z</time>
      </trkpt>
      <trkpt lat="40.2703280" lon="-2.9577210">
        <ele>670.0</ele>
        <time>2019-07-07T10:29:29Z</time>
      </trkpt>
      <trkpt lat="40.2703640" lon="-2.9577610">
        <ele>669.4</ele>
        <time>2019-07-07T10:29:30Z</time>
      </trkpt>
      <trkpt lat="40.2704430" lon="-2.9578460">
        <ele>668.2</ele>
        <time>2019-07-07T10:29:32Z</time>
      </trkpt>
      <trkpt lat="40.2705150" lon="-2.9579370">
        <ele>666.8</ele>
        <time>2019-07-07T10:29:34Z</time>
      </trkpt>
      <trkpt lat="40.2705430" lon="-2.9579870">
        <ele>666.0</ele>
        <time>2019-07-07T10:29:35Z</time>
      </trkpt>
      <trkpt lat="40.2705670" lon="-2.9580460">
        <ele>665.4</ele>
        <time>2019-07-07T10:29:36Z</time>
      </trkpt>
      <trkpt lat="40.2706260" lon="-2.9582810">
        <ele>664.0</ele>
        <time>2019-07-07T10:29:39Z</time>
      </trkpt>
      <trkpt lat="40.2706430" lon="-2.9583730">
        <ele>663.4</ele>
        <time>2019-07-07T10:29:40Z</time>
      </trkpt>
      <trkpt lat="40.2706810" lon="-2.9585700">
        <ele>662.8</ele>
        <time>2019-07-07T10:29:42Z</time>
      </trkpt>
      <trkpt lat="40.2707610" lon="-2.9588650">
        <ele>661.0</ele>
        <time>2019-07-07T10:29:45Z</time>
      </trkpt>
      <trkpt lat="40.2708020" lon="-2.9589550">
        <ele>660.2</ele>
        <time>2019-07-07T10:29:46Z</time>
      </trkpt>
      <trkpt lat="40.2708500" lon="-2.9590380">
        <ele>658.8</ele>
        <time>2019-07-07T10:29:47Z</time>
      </trkpt>
      <trkpt lat="40.2709700" lon="-2.9591620">
        <ele>657.0</ele>
        <time>2019-07-07T10:29:49Z</time>
      </trkpt>
      <trkpt lat="40.2710390" lon="-2.9592000">
        <ele>655.8</ele>
        <time>2019-07-07T10:29:50Z</time>
      </trkpt>
      <trkpt lat="40.2711100" lon="-2.9592210">
        <ele>654.8</ele>
        <time>2019-07-07T10:29:51Z</time>
      </trkpt>
      <trkpt lat="40.2711820" lon="-2.9592270">
        <ele>654.2</ele>
        <time>2019-07-07T10:29:52Z</time>
      </trkpt>
      <trkpt lat="40.2712530" lon="-2.9592130">
        <ele>653.6</ele>
        <time>2019-07-07T10:29:53Z</time>
      </trkpt>
      <trkpt lat="40.2713850" lon="-2.9591180">
        <ele>652.2</ele>
        <time>2019-07-07T10:29:55Z</time>
      </trkpt>
      <trkpt lat="40.2714960" lon="-2.9589980">
        <ele>651.0</ele>
        <time>2019-07-07T10:29:57Z</time>
      </trkpt>
      <trkpt lat="40.2715410" lon="-2.9589550">
        <ele>650.2</ele>
        <time>2019-07-07T10:29:58Z</time>
      </trkpt>
      <trkpt lat="40.2715850" lon="-2.9589290">
        <ele>649.6</ele>
        <time>2019-07-07T10:29:59Z</time>
      </trkpt>
      <trkpt lat="40.2716710" lon="-2.9589490">
        <ele>648.2</ele>
        <time>2019-07-07T10:30:01Z</time>
      </trkpt>
      <trkpt lat="40.2717060" lon="-2.9590010">
        <ele>647.8</ele>
        <time>2019-07-07T10:30:02Z</time>
      </trkpt>
      <trkpt lat="40.2717320" lon="-2.9590730">
        <ele>647.0</ele>
        <time>2019-07-07T10:30:03Z</time>
      </trkpt>
      <trkpt lat="40.2717670" lon="-2.9592540">
        <ele>646.0</ele>
        <time>2019-07-07T10:30:05Z</time>
      </trkpt>
      <trkpt lat="40.2718060" lon="-2.9594670">
        <ele>644.6</ele>
        <time>2019-07-07T10:30:07Z</time>
      </trkpt>
      <trkpt lat="40.2718440" lon="-2.9597030">
        <ele>643.2</ele>
        <time>2019-07-07T10:30:09Z</time>
      </trkpt>
      <trkpt lat="40.2718680" lon="-2.9598130">
        <ele>642.4</ele>
        <time>2019-07-07T10:30:10Z</time>
      </trkpt>
      <trkpt lat="40.2718940" lon="-2.9599100">
        <ele>641.4</ele>
        <time>2019-07-07T10:30:11Z</time>
      </trkpt>
      <trkpt lat="40.2719250" lon="-2.9599970">
        <ele>640.4</ele>
        <time>2019-07-07T10:30:12Z</time>
      </trkpt>
      <trkpt lat="40.2719650" lon="-2.9600770">
        <ele>639.4</ele>
        <time>2019-07-07T10:30:13Z</time>
      </trkpt>
      <trkpt lat="40.2720200" lon="-2.9601470">
        <ele>638.8</ele>
        <time>2019-07-07T10:30:14Z</time>
      </trkpt>
      <trkpt lat="40.2720890" lon="-2.9602070">
        <ele>638.0</ele>
        <time>2019-07-07T10:30:15Z</time>
      </trkpt>
      <trkpt lat="40.2722500" lon="-2.9603000">
        <ele>636.6</ele>
        <time>2019-07-07T10:30:17Z</time>
      </trkpt>
      <trkpt lat="40.2724370" lon="-2.9603520">
        <ele>634.2</ele>
        <time>2019-07-07T10:30:19Z</time>
      </trkpt>
      <trkpt lat="40.2725360" lon="-2.9603630">
        <ele>633.2</ele>
        <time>2019-07-07T10:30:20Z</time>
      </trkpt>
      <trkpt lat="40.2727160" lon="-2.9603590">
        <ele>631.4</ele>
        <time>2019-07-07T10:30:22Z</time>
      </trkpt>
      <trkpt lat="40.2727950" lon="-2.9603380">
        <ele>630.6</ele>
        <time>2019-07-07T10:30:23Z</time>
      </trkpt>
      <trkpt lat="40.2728640" lon="-2.9603030">
        <ele>629.8</ele>
        <time>2019-07-07T10:30:24Z</time>
      </trkpt>
      <trkpt lat="40.2729710" lon="-2.9602070">
        <ele>628.4</ele>
        <time>2019-07-07T10:30:26Z</time>
      </trkpt>
      <trkpt lat="40.2730590" lon="-2.9601310">
        <ele>627.0</ele>
        <time>2019-07-07T10:30:28Z</time>
      </trkpt>
      <trkpt lat="40.2731330" lon="-2.9601010">
        <ele>626.4</ele>
        <time>2019-07-07T10:30:30Z</time>
      </trkpt>
      <trkpt lat="40.2731840" lon="-2.9600850">
        <ele>626.0</ele>
        <time>2019-07-07T10:30:32Z</time>
      </trkpt>
      <trkpt lat="40.2732030" lon="-2.9600810">
        <ele>625.6</ele>
        <time>2019-07-07T10:30:34Z</time>
      </trkpt>
      <trkpt lat="40.2732030" lon="-2.9600810">
        <ele>625.4</ele>
        <time>2019-07-07T10:30:35Z</time>
      </trkpt>
      <trkpt lat="40.2731870" lon="-2.9601270">
        <ele>625.2</ele>
        <time>2019-07-07T10:34:36Z</time>
      </trkpt>
      <trkpt lat="40.2731740" lon="-2.9601780">
        <ele>625.0</ele>
        <time>2019-07-07T10:34:38Z</time>
      </trkpt>
      <trkpt lat="40.2731290" lon="-2.9603780">
        <ele>624.6</ele>
        <time>2019-07-07T10:34:42Z</time>
      </trkpt>
      <trkpt lat="40.2730760" lon="-2.9605220">
        <ele>623.6</ele>
        <time>2019-07-07T10:34:44Z</time>
      </trkpt>
      <trkpt lat="40.2729990" lon="-2.9606820">
        <ele>622.6</ele>
        <time>2019-07-07T10:34:46Z</time>
      </trkpt>
      <trkpt lat="40.2729000" lon="-2.9608440">
        <ele>621.6</ele>
        <time>2019-07-07T10:34:48Z</time>
      </trkpt>
      <trkpt lat="40.2727780" lon="-2.9609930">
        <ele>620.4</ele>
        <time>2019-07-07T10:34:50Z</time>
      </trkpt>
      <trkpt lat="40.2726430" lon="-2.9611300">
        <ele>619.4</ele>
        <time>2019-07-07T10:34:52Z</time>
      </trkpt>
      <trkpt lat="40.2725750" lon="-2.9611980">
        <ele>619.0</ele>
        <time>2019-07-07T10:34:53Z</time>
      </trkpt>
      <trkpt lat="40.2722990" lon="-2.9614520">
        <ele>618.4</ele>
        <time>2019-07-07T10:34:57Z</time>
      </trkpt>
      <trkpt lat="40.2722310" lon="-2.9615110">
        <ele>618.0</ele>
        <time>2019-07-07T10:34:58Z</time>
      </trkpt>
      <trkpt lat="40.2721630" lon="-2.9615650">
        <ele>617.8</ele>
        <time>2019-07-07T10:34:59Z</time>
      </trkpt>
      <trkpt lat="40.2717870" lon="-2.9618640">
        <ele>617.2</ele>
        <time>2019-07-07T10:35:05Z</time>
      </trkpt>
      <trkpt lat="40.2716140" lon="-2.9619970">
        <ele>616.8</ele>
        <time>2019-07-07T10:35:08Z</time>
      </trkpt>
      <trkpt lat="40.2713460" lon="-2.9621940">
        <ele>616.2</ele>
        <time>2019-07-07T10:35:13Z</time>
      </trkpt>
      <trkpt lat="40.2711560" lon="-2.9623370">
        <ele>616.0</ele>
        <time>2019-07-07T10:35:17Z</time>
      </trkpt>
      <trkpt lat="40.2711210" lon="-2.9623790">
        <ele>616.0</ele>
        <time>2019-07-07T10:35:18Z</time>
      </trkpt>
      <trkpt lat="40.2711020" lon="-2.9624250">
        <ele>616.0</ele>
        <time>2019-07-07T10:35:19Z</time>
      </trkpt>
      <trkpt lat="40.2711260" lon="-2.9625490">
        <ele>616.0</ele>
        <time>2019-07-07T10:35:22Z</time>
      </trkpt>
      <trkpt lat="40.2711440" lon="-2.9625710">
        <ele>616.0</ele>
        <time>2019-07-07T10:35:23Z</time>
      </trkpt>
      <trkpt lat="40.2711930" lon="-2.9627260">
        <ele>615.8</ele>
        <time>2019-07-07T10:35:28Z</time>
      </trkpt>
      <trkpt lat="40.2712080" lon="-2.9627710">
        <ele>615.8</ele>
        <time>2019-07-07T10:35:30Z</time>
      </trkpt>
      <trkpt lat="40.2712250" lon="-2.9627770">
        <ele>615.8</ele>
        <time>2019-07-07T10:35:31Z</time>
      </trkpt>
      <trkpt lat="40.2712620" lon="-2.9627300">
        <ele>615.8</ele>
        <time>2019-07-07T10:35:34Z</time>
      </trkpt>
      <trkpt lat="40.2712500" lon="-2.9627040">
        <ele>615.8</ele>
        <time>2019-07-07T10:35:35Z</time>
      </trkpt>
      <trkpt lat="40.2711730" lon="-2.9626470">
        <ele>615.8</ele>
        <time>2019-07-07T10:35:38Z</time>
      </trkpt>
      <trkpt lat="40.2711470" lon="-2.9626150">
        <ele>615.8</ele>
        <time>2019-07-07T10:35:39Z</time>
      </trkpt>
      <trkpt lat="40.2711240" lon="-2.9625780">
        <ele>615.8</ele>
        <time>2019-07-07T10:35:40Z</time>
      </trkpt>
      <trkpt lat="40.2711000" lon="-2.9625360">
        <ele>615.8</ele>
        <time>2019-07-07T10:35:41Z</time>
      </trkpt>
      <trkpt lat="40.2710420" lon="-2.9624540">
        <ele>616.0</ele>
        <time>2019-07-07T10:35:43Z</time>
      </trkpt>
      <trkpt lat="40.2710050" lon="-2.9624200">
        <ele>616.0</ele>
        <time>2019-07-07T10:35:44Z</time>
      </trkpt>
      <trkpt lat="40.2708200" lon="-2.9623480">
        <ele>616.0</ele>
        <time>2019-07-07T10:35:48Z</time>
      </trkpt>
      <trkpt lat="40.2706560" lon="-2.9623720">
        <ele>616.0</ele>
        <time>2019-07-07T10:35:51Z</time>
      </trkpt>
      <trkpt lat="40.2706010" lon="-2.9623950">
        <ele>616.0</ele>
        <time>2019-07-07T10:35:52Z</time>
      </trkpt>
      <trkpt lat="40.2704930" lon="-2.9624570">
        <ele>615.8</ele>
        <time>2019-07-07T10:35:54Z</time>
      </trkpt>
      <trkpt lat="40.2702840" lon="-2.9626030">
        <ele>615.6</ele>
        <time>2019-07-07T10:35:58Z</time>
      </trkpt>
      <trkpt lat="40.2699250" lon="-2.9629320">
        <ele>615.6</ele>
        <time>2019-07-07T10:36:06Z</time>
      </trkpt>
      <trkpt lat="40.2696950" lon="-2.9631420">
        <ele>616.0</ele>
        <time>2019-07-07T10:36:11Z</time>
      </trkpt>
      <trkpt lat="40.2695540" lon="-2.9632640">
        <ele>616.0</ele>
        <time>2019-07-07T10:36:14Z</time>
      </trkpt>
      <trkpt lat="40.2692220" lon="-2.9635700">
        <ele>616.2</ele>
        <time>2019-07-07T10:36:21Z</time>
      </trkpt>
      <trkpt lat="40.2687370" lon="-2.9640060">
        <ele>616.4</ele>
        <time>2019-07-07T10:36:31Z</time>
      </trkpt>
      <trkpt lat="40.2683900" lon="-2.9643320">
        <ele>616.8</ele>
        <time>2019-07-07T10:36:38Z</time>
      </trkpt>
      <trkpt lat="40.2680320" lon="-2.9646450">
        <ele>616.6</ele>
        <time>2019-07-07T10:36:45Z</time>
      </trkpt>
      <trkpt lat="40.2675830" lon="-2.9649830">
        <ele>616.2</ele>
        <time>2019-07-07T10:36:53Z</time>
      </trkpt>
      <trkpt lat="40.2670560" lon="-2.9653790">
        <ele>615.6</ele>
        <time>2019-07-07T10:37:02Z</time>
      </trkpt>
      <trkpt lat="40.2669270" lon="-2.9654750">
        <ele>615.4</ele>
        <time>2019-07-07T10:37:04Z</time>
      </trkpt>
      <trkpt lat="40.2667150" lon="-2.9656270">
        <ele>614.4</ele>
        <time>2019-07-07T10:37:07Z</time>
      </trkpt>
      <trkpt lat="40.2665670" lon="-2.9657410">
        <ele>613.4</ele>
        <time>2019-07-07T10:37:09Z</time>
      </trkpt>
      <trkpt lat="40.2664910" lon="-2.9658010">
        <ele>613.0</ele>
        <time>2019-07-07T10:37:10Z</time>
      </trkpt>
      <trkpt lat="40.2662570" lon="-2.9659690">
        <ele>612.2</ele>
        <time>2019-07-07T10:37:13Z</time>
      </trkpt>
      <trkpt lat="40.2660300" lon="-2.9661390">
        <ele>611.6</ele>
        <time>2019-07-07T10:37:16Z</time>
      </trkpt>
      <trkpt lat="40.2656630" lon="-2.9664220">
        <ele>611.2</ele>
        <time>2019-07-07T10:37:21Z</time>
      </trkpt>
      <trkpt lat="40.2655960" lon="-2.9664750">
        <ele>611.0</ele>
        <time>2019-07-07T10:37:22Z</time>
      </trkpt>
      <trkpt lat="40.2652720" lon="-2.9667730">
        <ele>610.8</ele>
        <time>2019-07-07T10:37:27Z</time>
      </trkpt>
      <trkpt lat="40.2652050" lon="-2.9668210">
        <ele>610.6</ele>
        <time>2019-07-07T10:37:28Z</time>
      </trkpt>
      <trkpt lat="40.2649790" lon="-2.9669310">
        <ele>610.4</ele>
        <time>2019-07-07T10:37:31Z</time>
      </trkpt>
      <trkpt lat="40.2648930" lon="-2.9669620">
        <ele>609.8</ele>
        <time>2019-07-07T10:37:32Z</time>
      </trkpt>
      <trkpt lat="40.2646130" lon="-2.9670630">
        <ele>608.6</ele>
        <time>2019-07-07T10:37:35Z</time>
      </trkpt>
      <trkpt lat="40.2645120" lon="-2.9670980">
        <ele>608.2</ele>
        <time>2019-07-07T10:37:36Z</time>
      </trkpt>
      <trkpt lat="40.2643090" lon="-2.9671590">
        <ele>607.4</ele>
        <time>2019-07-07T10:37:38Z</time>
      </trkpt>
      <trkpt lat="40.2640120" lon="-2.9672420">
        <ele>606.2</ele>
        <time>2019-07-07T10:37:41Z</time>
      </trkpt>
      <trkpt lat="40.2639160" lon="-2.9672700">
        <ele>606.0</ele>
        <time>2019-07-07T10:37:42Z</time>
      </trkpt>
      <trkpt lat="40.2637290" lon="-2.9673150">
        <ele>605.6</ele>
        <time>2019-07-07T10:37:44Z</time>
      </trkpt>
      <trkpt lat="40.2633820" lon="-2.9674200">
        <ele>605.2</ele>
        <time>2019-07-07T10:37:48Z</time>
      </trkpt>
      <trkpt lat="40.2628970" lon="-2.9675390">
        <ele>604.8</ele>
        <time>2019-07-07T10:37:54Z</time>
      </trkpt>
      <trkpt lat="40.2624570" lon="-2.9676500">
        <ele>605.2</ele>
        <time>2019-07-07T10:38:00Z</time>
      </trkpt>
      <trkpt lat="40.2623860" lon="-2.9676670">
        <ele>605.0</ele>
        <time>2019-07-07T10:38:01Z</time>
      </trkpt>
      <trkpt lat="40.2620340" lon="-2.9677560">
        <ele>605.0</ele>
        <time>2019-07-07T10:38:06Z</time>
      </trkpt>
      <trkpt lat="40.2618290" lon="-2.9678030">
        <ele>605.2</ele>
        <time>2019-07-07T10:38:09Z</time>
      </trkpt>
      <trkpt lat="40.2615630" lon="-2.9678670">
        <ele>605.6</ele>
        <time>2019-07-07T10:38:13Z</time>
      </trkpt>
      <trkpt lat="40.2611830" lon="-2.9679700">
        <ele>605.6</ele>
        <time>2019-07-07T10:38:19Z</time>
      </trkpt>
      <trkpt lat="40.2609300" lon="-2.9680420">
        <ele>605.6</ele>
        <time>2019-07-07T10:38:23Z</time>
      </trkpt>
      <trkpt lat="40.2607360" lon="-2.9680920">
        <ele>605.6</ele>
        <time>2019-07-07T10:38:26Z</time>
      </trkpt>
      <trkpt lat="40.2603550" lon="-2.9681740">
        <ele>606.4</ele>
        <time>2019-07-07T10:38:32Z</time>
      </trkpt>
      <trkpt lat="40.2599860" lon="-2.9682590">
        <ele>606.2</ele>
        <time>2019-07-07T10:38:37Z</time>
      </trkpt>
      <trkpt lat="40.2599250" lon="-2.9682770">
        <ele>606.2</ele>
        <time>2019-07-07T10:38:39Z</time>
      </trkpt>
      <trkpt lat="40.2594450" lon="-2.9683720">
        <ele>606.4</ele>
        <time>2019-07-07T10:38:47Z</time>
      </trkpt>
      <trkpt lat="40.2591200" lon="-2.9683960">
        <ele>607.6</ele>
        <time>2019-07-07T10:38:53Z</time>
      </trkpt>
      <trkpt lat="40.2589720" lon="-2.9684040">
        <ele>607.8</ele>
        <time>2019-07-07T10:38:55Z</time>
      </trkpt>
      <trkpt lat="40.2588280" lon="-2.9684170">
        <ele>608.8</ele>
        <time>2019-07-07T10:38:59Z</time>
      </trkpt>
      <trkpt lat="40.2587800" lon="-2.9684260">
        <ele>609.0</ele>
        <time>2019-07-07T10:39:00Z</time>
      </trkpt>
      <trkpt lat="40.2586300" lon="-2.9684710">
        <ele>609.4</ele>
        <time>2019-07-07T10:39:03Z</time>
      </trkpt>
      <trkpt lat="40.2583040" lon="-2.9685860">
        <ele>609.6</ele>
        <time>2019-07-07T10:39:09Z</time>
      </trkpt>
      <trkpt lat="40.2581400" lon="-2.9686600">
        <ele>609.6</ele>
        <time>2019-07-07T10:39:12Z</time>
      </trkpt>
      <trkpt lat="40.2576840" lon="-2.9689080">
        <ele>609.0</ele>
        <time>2019-07-07T10:39:20Z</time>
      </trkpt>
      <trkpt lat="40.2575090" lon="-2.9690140">
        <ele>608.6</ele>
        <time>2019-07-07T10:39:23Z</time>
      </trkpt>
      <trkpt lat="40.2572170" lon="-2.9691810">
        <ele>608.6</ele>
        <time>2019-07-07T10:39:28Z</time>
      </trkpt>
      <trkpt lat="40.2571610" lon="-2.9692150">
        <ele>608.8</ele>
        <time>2019-07-07T10:39:29Z</time>
      </trkpt>
      <trkpt lat="40.2568430" lon="-2.9694070">
        <ele>609.6</ele>
        <time>2019-07-07T10:39:35Z</time>
      </trkpt>
      <trkpt lat="40.2566890" lon="-2.9694890">
        <ele>610.0</ele>
        <time>2019-07-07T10:39:38Z</time>
      </trkpt>
      <trkpt lat="40.2561780" lon="-2.9697940">
        <ele>610.4</ele>
        <time>2019-07-07T10:39:48Z</time>
      </trkpt>
      <trkpt lat="40.2560770" lon="-2.9698520">
        <ele>610.4</ele>
        <time>2019-07-07T10:39:50Z</time>
      </trkpt>
      <trkpt lat="40.2557750" lon="-2.9700240">
        <ele>610.8</ele>
        <time>2019-07-07T10:39:56Z</time>
      </trkpt>
      <trkpt lat="40.2556710" lon="-2.9700810">
        <ele>611.0</ele>
        <time>2019-07-07T10:39:58Z</time>
      </trkpt>
      <trkpt lat="40.2552540" lon="-2.9703140">
        <ele>611.4</ele>
        <time>2019-07-07T10:40:06Z</time>
      </trkpt>
      <trkpt lat="40.2547700" lon="-2.9705890">
        <ele>611.6</ele>
        <time>2019-07-07T10:40:15Z</time>
      </trkpt>
      <trkpt lat="40.2542660" lon="-2.9708670">
        <ele>611.2</ele>
        <time>2019-07-07T10:40:24Z</time>
      </trkpt>
      <trkpt lat="40.2537410" lon="-2.9711680">
        <ele>611.0</ele>
        <time>2019-07-07T10:40:33Z</time>
      </trkpt>
      <trkpt lat="40.2531940" lon="-2.9714680">
        <ele>610.8</ele>
        <time>2019-07-07T10:40:42Z</time>
      </trkpt>
      <trkpt lat="40.2526940" lon="-2.9717630">
        <ele>611.0</ele>
        <time>2019-07-07T10:40:49Z</time>
      </trkpt>
      <trkpt lat="40.2526940" lon="-2.9717630">
        <ele>611.0</ele>
        <time>2019-07-07T10:40:50Z</time>
      </trkpt>
      <trkpt lat="40.2521940" lon="-2.9720450">
        <ele>610.8</ele>
        <time>2019-07-07T10:40:58Z</time>
      </trkpt>
      <trkpt lat="40.2520720" lon="-2.9721140">
        <ele>610.8</ele>
        <time>2019-07-07T10:41:00Z</time>
      </trkpt>
      <trkpt lat="40.2515250" lon="-2.9724390">
        <ele>610.6</ele>
        <time>2019-07-07T10:41:09Z</time>
      </trkpt>
      <trkpt lat="40.2514050" lon="-2.9725130">
        <ele>610.8</ele>
        <time>2019-07-07T10:41:11Z</time>
      </trkpt>
      <trkpt lat="40.2509070" lon="-2.9727930">
        <ele>610.8</ele>
        <time>2019-07-07T10:41:19Z</time>
      </trkpt>
      <trkpt lat="40.2508440" lon="-2.9728280">
        <ele>610.8</ele>
        <time>2019-07-07T10:41:20Z</time>
      </trkpt>
      <trkpt lat="40.2503990" lon="-2.9730840">
        <ele>610.8</ele>
        <time>2019-07-07T10:41:27Z</time>
      </trkpt>
      <trkpt lat="40.2499400" lon="-2.9733350">
        <ele>610.6</ele>
        <time>2019-07-07T10:41:34Z</time>
      </trkpt>
      <trkpt lat="40.2498050" lon="-2.9734070">
        <ele>610.4</ele>
        <time>2019-07-07T10:41:36Z</time>
      </trkpt>
      <trkpt lat="40.2494680" lon="-2.9735940">
        <ele>610.2</ele>
        <time>2019-07-07T10:41:41Z</time>
      </trkpt>
      <trkpt lat="40.2492650" lon="-2.9737030">
        <ele>610.0</ele>
        <time>2019-07-07T10:41:44Z</time>
      </trkpt>
      <trkpt lat="40.2488050" lon="-2.9739760">
        <ele>609.6</ele>
        <time>2019-07-07T10:41:51Z</time>
      </trkpt>
      <trkpt lat="40.2484770" lon="-2.9741710">
        <ele>609.0</ele>
        <time>2019-07-07T10:41:56Z</time>
      </trkpt>
      <trkpt lat="40.2482130" lon="-2.9743170">
        <ele>608.8</ele>
        <time>2019-07-07T10:42:00Z</time>
      </trkpt>
      <trkpt lat="40.2476720" lon="-2.9746260">
        <ele>608.2</ele>
        <time>2019-07-07T10:42:07Z</time>
      </trkpt>
      <trkpt lat="40.2476720" lon="-2.9746260">
        <ele>608.2</ele>
        <time>2019-07-07T10:42:08Z</time>
      </trkpt>
      <trkpt lat="40.2472460" lon="-2.9748580">
        <ele>608.0</ele>
        <time>2019-07-07T10:42:14Z</time>
      </trkpt>
      <trkpt lat="40.2471790" lon="-2.9749030">
        <ele>608.2</ele>
        <time>2019-07-07T10:42:15Z</time>
      </trkpt>
      <trkpt lat="40.2467140" lon="-2.9751710">
        <ele>607.8</ele>
        <time>2019-07-07T10:42:22Z</time>
      </trkpt>
      <trkpt lat="40.2462100" lon="-2.9754610">
        <ele>607.2</ele>
        <time>2019-07-07T10:42:30Z</time>
      </trkpt>
      <trkpt lat="40.2459410" lon="-2.9755640">
        <ele>606.8</ele>
        <time>2019-07-07T10:42:34Z</time>
      </trkpt>
      <trkpt lat="40.2458720" lon="-2.9755700">
        <ele>606.8</ele>
        <time>2019-07-07T10:42:35Z</time>
      </trkpt>
      <trkpt lat="40.2456720" lon="-2.9755280">
        <ele>606.4</ele>
        <time>2019-07-07T10:42:38Z</time>
      </trkpt>
      <trkpt lat="40.2456050" lon="-2.9755070">
        <ele>606.2</ele>
        <time>2019-07-07T10:42:39Z</time>
      </trkpt>
      <trkpt lat="40.2451980" lon="-2.9753810">
        <ele>606.0</ele>
        <time>2019-07-07T10:42:45Z</time>
      </trkpt>
      <trkpt lat="40.2451290" lon="-2.9753740">
        <ele>606.0</ele>
        <time>2019-07-07T10:42:46Z</time>
      </trkpt>
      <trkpt lat="40.2445530" lon="-2.9753270">
        <ele>605.2</ele>
        <time>2019-07-07T10:42:54Z</time>
      </trkpt>
      <trkpt lat="40.2444050" lon="-2.9753240">
        <ele>605.2</ele>
        <time>2019-07-07T10:42:56Z</time>
      </trkpt>
      <trkpt lat="40.2438240" lon="-2.9752850">
        <ele>605.4</ele>
        <time>2019-07-07T10:43:04Z</time>
      </trkpt>
      <trkpt lat="40.2436790" lon="-2.9752710">
        <ele>605.0</ele>
        <time>2019-07-07T10:43:06Z</time>
      </trkpt>
      <trkpt lat="40.2431090" lon="-2.9752460">
        <ele>604.4</ele>
        <time>2019-07-07T10:43:13Z</time>
      </trkpt>
      <trkpt lat="40.2431090" lon="-2.9752460">
        <ele>604.4</ele>
        <time>2019-07-07T10:43:14Z</time>
      </trkpt>
      <trkpt lat="40.2426840" lon="-2.9752090">
        <ele>604.4</ele>
        <time>2019-07-07T10:43:20Z</time>
      </trkpt>
      <trkpt lat="40.2426150" lon="-2.9752020">
        <ele>604.4</ele>
        <time>2019-07-07T10:43:21Z</time>
      </trkpt>
      <trkpt lat="40.2423340" lon="-2.9751650">
        <ele>604.4</ele>
        <time>2019-07-07T10:43:25Z</time>
      </trkpt>
      <trkpt lat="40.2418400" lon="-2.9750920">
        <ele>603.6</ele>
        <time>2019-07-07T10:43:31Z</time>
      </trkpt>
      <trkpt lat="40.2412460" lon="-2.9750160">
        <ele>603.8</ele>
        <time>2019-07-07T10:43:41Z</time>
      </trkpt>
      <trkpt lat="40.2410580" lon="-2.9750030">
        <ele>604.0</ele>
        <time>2019-07-07T10:43:44Z</time>
      </trkpt>
      <trkpt lat="40.2406850" lon="-2.9750040">
        <ele>603.8</ele>
        <time>2019-07-07T10:43:49Z</time>
      </trkpt>
      <trkpt lat="40.2401430" lon="-2.9750660">
        <ele>603.8</ele>
        <time>2019-07-07T10:43:59Z</time>
      </trkpt>
      <trkpt lat="40.2396040" lon="-2.9751720">
        <ele>604.2</ele>
        <time>2019-07-07T10:44:08Z</time>
      </trkpt>
      <trkpt lat="40.2395430" lon="-2.9751840">
        <ele>604.2</ele>
        <time>2019-07-07T10:44:09Z</time>
      </trkpt>
      <trkpt lat="40.2390830" lon="-2.9752980">
        <ele>604.6</ele>
        <time>2019-07-07T10:44:17Z</time>
      </trkpt>
      <trkpt lat="40.2387760" lon="-2.9753810">
        <ele>605.8</ele>
        <time>2019-07-07T10:44:23Z</time>
      </trkpt>
      <trkpt lat="40.2386780" lon="-2.9754080">
        <ele>606.0</ele>
        <time>2019-07-07T10:44:25Z</time>
      </trkpt>
      <trkpt lat="40.2382280" lon="-2.9755250">
        <ele>606.4</ele>
        <time>2019-07-07T10:44:34Z</time>
      </trkpt>
      <trkpt lat="40.2379430" lon="-2.9755780">
        <ele>606.2</ele>
        <time>2019-07-07T10:44:39Z</time>
      </trkpt>
      <trkpt lat="40.2378330" lon="-2.9756290">
        <ele>606.2</ele>
        <time>2019-07-07T10:44:41Z</time>
      </trkpt>
      <trkpt lat="40.2376880" lon="-2.9757390">
        <ele>606.2</ele>
        <time>2019-07-07T10:44:43Z</time>
      </trkpt>
      <trkpt lat="40.2376080" lon="-2.9758270">
        <ele>606.2</ele>
        <time>2019-07-07T10:44:46Z</time>
      </trkpt>
      <trkpt lat="40.2375450" lon="-2.9759230">
        <ele>606.4</ele>
        <time>2019-07-07T10:44:48Z</time>
      </trkpt>
      <trkpt lat="40.2374740" lon="-2.9760680">
        <ele>607.0</ele>
        <time>2019-07-07T10:44:51Z</time>
      </trkpt>
      <trkpt lat="40.2374510" lon="-2.9761110">
        <ele>607.2</ele>
        <time>2019-07-07T10:44:52Z</time>
      </trkpt>
      <trkpt lat="40.2373750" lon="-2.9762700">
        <ele>608.2</ele>
        <time>2019-07-07T10:44:56Z</time>
      </trkpt>
      <trkpt lat="40.2373160" lon="-2.9763760">
        <ele>609.2</ele>
        <time>2019-07-07T10:44:59Z</time>
      </trkpt>
      <trkpt lat="40.2372960" lon="-2.9764090">
        <ele>609.6</ele>
        <time>2019-07-07T10:45:00Z</time>
      </trkpt>
      <trkpt lat="40.2372420" lon="-2.9765010">
        <ele>610.4</ele>
        <time>2019-07-07T10:45:03Z</time>
      </trkpt>
      <trkpt lat="40.2372270" lon="-2.9765330">
        <ele>610.6</ele>
        <time>2019-07-07T10:45:04Z</time>
      </trkpt>
      <trkpt lat="40.2371960" lon="-2.9765930">
        <ele>611.0</ele>
        <time>2019-07-07T10:45:06Z</time>
      </trkpt>
      <trkpt lat="40.2371440" lon="-2.9766640">
        <ele>611.6</ele>
        <time>2019-07-07T10:45:09Z</time>
      </trkpt>
      <trkpt lat="40.2370540" lon="-2.9767730">
        <ele>612.6</ele>
        <time>2019-07-07T10:45:13Z</time>
      </trkpt>
      <trkpt lat="40.2370040" lon="-2.9768390">
        <ele>613.6</ele>
        <time>2019-07-07T10:45:17Z</time>
      </trkpt>
      <trkpt lat="40.2369590" lon="-2.9769070">
        <ele>614.2</ele>
        <time>2019-07-07T10:45:19Z</time>
      </trkpt>
      <trkpt lat="40.2369020" lon="-2.9769660">
        <ele>614.8</ele>
        <time>2019-07-07T10:45:22Z</time>
      </trkpt>
      <trkpt lat="40.2368360" lon="-2.9770520">
        <ele>615.8</ele>
        <time>2019-07-07T10:45:27Z</time>
      </trkpt>
      <trkpt lat="40.2367920" lon="-2.9771140">
        <ele>616.6</ele>
        <time>2019-07-07T10:45:30Z</time>
      </trkpt>
      <trkpt lat="40.2367610" lon="-2.9771560">
        <ele>617.0</ele>
        <time>2019-07-07T10:45:31Z</time>
      </trkpt>
      <trkpt lat="40.2367470" lon="-2.9771780">
        <ele>617.8</ele>
        <time>2019-07-07T10:45:33Z</time>
      </trkpt>
      <trkpt lat="40.2367330" lon="-2.9771990">
        <ele>618.0</ele>
        <time>2019-07-07T10:45:34Z</time>
      </trkpt>
      <trkpt lat="40.2366540" lon="-2.9773180">
        <ele>619.0</ele>
        <time>2019-07-07T10:45:39Z</time>
      </trkpt>
      <trkpt lat="40.2365790" lon="-2.9774370">
        <ele>620.4</ele>
        <time>2019-07-07T10:45:44Z</time>
      </trkpt>
      <trkpt lat="40.2365640" lon="-2.9774630">
        <ele>620.6</ele>
        <time>2019-07-07T10:45:45Z</time>
      </trkpt>
      <trkpt lat="40.2365200" lon="-2.9775420">
        <ele>621.4</ele>
        <time>2019-07-07T10:45:48Z</time>
      </trkpt>
      <trkpt lat="40.2364330" lon="-2.9776920">
        <ele>622.4</ele>
        <time>2019-07-07T10:45:54Z</time>
      </trkpt>
      <trkpt lat="40.2363800" lon="-2.9777980">
        <ele>623.4</ele>
        <time>2019-07-07T10:45:58Z</time>
      </trkpt>
      <trkpt lat="40.2363300" lon="-2.9778960">
        <ele>624.0</ele>
        <time>2019-07-07T10:46:01Z</time>
      </trkpt>
      <trkpt lat="40.2363180" lon="-2.9779220">
        <ele>624.6</ele>
        <time>2019-07-07T10:46:03Z</time>
      </trkpt>
      <trkpt lat="40.2362710" lon="-2.9780310">
        <ele>625.6</ele>
        <time>2019-07-07T10:46:07Z</time>
      </trkpt>
      <trkpt lat="40.2362340" lon="-2.9781040">
        <ele>626.4</ele>
        <time>2019-07-07T10:46:10Z</time>
      </trkpt>
      <trkpt lat="40.2362040" lon="-2.9781450">
        <ele>627.0</ele>
        <time>2019-07-07T10:46:12Z</time>
      </trkpt>
      <trkpt lat="40.2361640" lon="-2.9782160">
        <ele>627.6</ele>
        <time>2019-07-07T10:46:15Z</time>
      </trkpt>
      <trkpt lat="40.2361360" lon="-2.9782610">
        <ele>628.0</ele>
        <time>2019-07-07T10:46:17Z</time>
      </trkpt>
      <trkpt lat="40.2360560" lon="-2.9783570">
        <ele>629.2</ele>
        <time>2019-07-07T10:46:22Z</time>
      </trkpt>
      <trkpt lat="40.2359780" lon="-2.9784390">
        <ele>630.4</ele>
        <time>2019-07-07T10:46:27Z</time>
      </trkpt>
      <trkpt lat="40.2359620" lon="-2.9784530">
        <ele>630.6</ele>
        <time>2019-07-07T10:46:28Z</time>
      </trkpt>
      <trkpt lat="40.2358760" lon="-2.9785240">
        <ele>631.8</ele>
        <time>2019-07-07T10:46:33Z</time>
      </trkpt>
      <trkpt lat="40.2357890" lon="-2.9785870">
        <ele>632.8</ele>
        <time>2019-07-07T10:46:38Z</time>
      </trkpt>
      <trkpt lat="40.2357090" lon="-2.9786590">
        <ele>633.8</ele>
        <time>2019-07-07T10:46:43Z</time>
      </trkpt>
      <trkpt lat="40.2356920" lon="-2.9786740">
        <ele>634.0</ele>
        <time>2019-07-07T10:46:44Z</time>
      </trkpt>
      <trkpt lat="40.2356160" lon="-2.9787260">
        <ele>635.0</ele>
        <time>2019-07-07T10:46:48Z</time>
      </trkpt>
      <trkpt lat="40.2355380" lon="-2.9787860">
        <ele>635.8</ele>
        <time>2019-07-07T10:46:52Z</time>
      </trkpt>
      <trkpt lat="40.2355190" lon="-2.9788070">
        <ele>636.0</ele>
        <time>2019-07-07T10:46:53Z</time>
      </trkpt>
      <trkpt lat="40.2354150" lon="-2.9788820">
        <ele>637.0</ele>
        <time>2019-07-07T10:46:58Z</time>
      </trkpt>
      <trkpt lat="40.2353920" lon="-2.9788980">
        <ele>637.2</ele>
        <time>2019-07-07T10:46:59Z</time>
      </trkpt>
      <trkpt lat="40.2353000" lon="-2.9789500">
        <ele>638.2</ele>
        <time>2019-07-07T10:47:03Z</time>
      </trkpt>
      <trkpt lat="40.2352330" lon="-2.9789980">
        <ele>638.8</ele>
        <time>2019-07-07T10:47:06Z</time>
      </trkpt>
      <trkpt lat="40.2351590" lon="-2.9790330">
        <ele>639.2</ele>
        <time>2019-07-07T10:47:09Z</time>
      </trkpt>
      <trkpt lat="40.2350230" lon="-2.9790740">
        <ele>640.2</ele>
        <time>2019-07-07T10:47:14Z</time>
      </trkpt>
      <trkpt lat="40.2349940" lon="-2.9790840">
        <ele>640.4</ele>
        <time>2019-07-07T10:47:15Z</time>
      </trkpt>
      <trkpt lat="40.2348010" lon="-2.9791330">
        <ele>641.0</ele>
        <time>2019-07-07T10:47:21Z</time>
      </trkpt>
      <trkpt lat="40.2347260" lon="-2.9791210">
        <ele>641.2</ele>
        <time>2019-07-07T10:47:23Z</time>
      </trkpt>
      <trkpt lat="40.2346000" lon="-2.9790700">
        <ele>641.0</ele>
        <time>2019-07-07T10:47:26Z</time>
      </trkpt>
      <trkpt lat="40.2344570" lon="-2.9789830">
        <ele>640.6</ele>
        <time>2019-07-07T10:47:29Z</time>
      </trkpt>
      <trkpt lat="40.2343560" lon="-2.9789180">
        <ele>640.2</ele>
        <time>2019-07-07T10:47:31Z</time>
      </trkpt>
      <trkpt lat="40.2343060" lon="-2.9788800">
        <ele>640.2</ele>
        <time>2019-07-07T10:47:32Z</time>
      </trkpt>
      <trkpt lat="40.2342020" lon="-2.9788030">
        <ele>640.0</ele>
        <time>2019-07-07T10:47:34Z</time>
      </trkpt>
      <trkpt lat="40.2340960" lon="-2.9787190">
        <ele>639.8</ele>
        <time>2019-07-07T10:47:36Z</time>
      </trkpt>
      <trkpt lat="40.2339850" lon="-2.9786280">
        <ele>639.6</ele>
        <time>2019-07-07T10:47:38Z</time>
      </trkpt>
      <trkpt lat="40.2339290" lon="-2.9785840">
        <ele>639.4</ele>
        <time>2019-07-07T10:47:39Z</time>
      </trkpt>
      <trkpt lat="40.2336440" lon="-2.9783800">
        <ele>639.4</ele>
        <time>2019-07-07T10:47:44Z</time>
      </trkpt>
      <trkpt lat="40.2334780" lon="-2.9782710">
        <ele>640.0</ele>
        <time>2019-07-07T10:47:47Z</time>
      </trkpt>
      <trkpt lat="40.2330880" lon="-2.9780200">
        <ele>639.2</ele>
        <time>2019-07-07T10:47:54Z</time>
      </trkpt>
      <trkpt lat="40.2328330" lon="-2.9778320">
        <ele>638.6</ele>
        <time>2019-07-07T10:47:58Z</time>
      </trkpt>
      <trkpt lat="40.2327610" lon="-2.9777810">
        <ele>638.2</ele>
        <time>2019-07-07T10:47:59Z</time>
      </trkpt>
      <trkpt lat="40.2325290" lon="-2.9776080">
        <ele>637.6</ele>
        <time>2019-07-07T10:48:01Z</time>
      </trkpt>
      <trkpt lat="40.2324470" lon="-2.9775520">
        <ele>636.4</ele>
        <time>2019-07-07T10:48:03Z</time>
      </trkpt>
      <trkpt lat="40.2322830" lon="-2.9774430">
        <ele>635.4</ele>
        <time>2019-07-07T10:48:05Z</time>
      </trkpt>
      <trkpt lat="40.2322050" lon="-2.9773880">
        <ele>635.0</ele>
        <time>2019-07-07T10:48:06Z</time>
      </trkpt>
      <trkpt lat="40.2318370" lon="-2.9771190">
        <ele>634.2</ele>
        <time>2019-07-07T10:48:11Z</time>
      </trkpt>
      <trkpt lat="40.2313560" lon="-2.9767940">
        <ele>634.8</ele>
        <time>2019-07-07T10:48:18Z</time>
      </trkpt>
      <trkpt lat="40.2312280" lon="-2.9767150">
        <ele>634.8</ele>
        <time>2019-07-07T10:48:19Z</time>
      </trkpt>
      <trkpt lat="40.2311050" lon="-2.9766430">
        <ele>634.2</ele>
        <time>2019-07-07T10:48:22Z</time>
      </trkpt>
      <trkpt lat="40.2308630" lon="-2.9765840">
        <ele>634.4</ele>
        <time>2019-07-07T10:48:25Z</time>
      </trkpt>
      <trkpt lat="40.2308630" lon="-2.9765840">
        <ele>634.6</ele>
        <time>2019-07-07T10:48:26Z</time>
      </trkpt>
      <trkpt lat="40.2307140" lon="-2.9765920">
        <ele>635.4</ele>
        <time>2019-07-07T10:48:29Z</time>
      </trkpt>
      <trkpt lat="40.2305940" lon="-2.9766340">
        <ele>636.4</ele>
        <time>2019-07-07T10:48:31Z</time>
      </trkpt>
      <trkpt lat="40.2305210" lon="-2.9766720">
        <ele>637.6</ele>
        <time>2019-07-07T10:48:34Z</time>
      </trkpt>
      <trkpt lat="40.2304500" lon="-2.9767190">
        <ele>638.4</ele>
        <time>2019-07-07T10:48:36Z</time>
      </trkpt>
      <trkpt lat="40.2303830" lon="-2.9767770">
        <ele>638.8</ele>
        <time>2019-07-07T10:48:37Z</time>
      </trkpt>
      <trkpt lat="40.2303500" lon="-2.9768100">
        <ele>639.6</ele>
        <time>2019-07-07T10:48:39Z</time>
      </trkpt>
      <trkpt lat="40.2303170" lon="-2.9768440">
        <ele>639.8</ele>
        <time>2019-07-07T10:48:40Z</time>
      </trkpt>
      <trkpt lat="40.2302560" lon="-2.9769240">
        <ele>640.4</ele>
        <time>2019-07-07T10:48:42Z</time>
      </trkpt>
      <trkpt lat="40.2302090" lon="-2.9770260">
        <ele>640.8</ele>
        <time>2019-07-07T10:48:44Z</time>
      </trkpt>
      <trkpt lat="40.2301900" lon="-2.9770830">
        <ele>641.0</ele>
        <time>2019-07-07T10:48:45Z</time>
      </trkpt>
      <trkpt lat="40.2300950" lon="-2.9773990">
        <ele>641.2</ele>
        <time>2019-07-07T10:48:49Z</time>
      </trkpt>
      <trkpt lat="40.2300570" lon="-2.9775340">
        <ele>640.8</ele>
        <time>2019-07-07T10:48:52Z</time>
      </trkpt>
      <trkpt lat="40.2299610" lon="-2.9778700">
        <ele>640.4</ele>
        <time>2019-07-07T10:48:57Z</time>
      </trkpt>
      <trkpt lat="40.2298530" lon="-2.9782290">
        <ele>640.4</ele>
        <time>2019-07-07T10:49:01Z</time>
      </trkpt>
      <trkpt lat="40.2297940" lon="-2.9783740">
        <ele>640.4</ele>
        <time>2019-07-07T10:49:04Z</time>
      </trkpt>
      <trkpt lat="40.2296600" lon="-2.9786620">
        <ele>640.0</ele>
        <time>2019-07-07T10:49:07Z</time>
      </trkpt>
      <trkpt lat="40.2296410" lon="-2.9786980">
        <ele>640.0</ele>
        <time>2019-07-07T10:49:08Z</time>
      </trkpt>
      <trkpt lat="40.2296210" lon="-2.9787330">
        <ele>639.8</ele>
        <time>2019-07-07T10:49:09Z</time>
      </trkpt>
      <trkpt lat="40.2294590" lon="-2.9790130">
        <ele>639.6</ele>
        <time>2019-07-07T10:49:12Z</time>
      </trkpt>
      <trkpt lat="40.2293710" lon="-2.9791490">
        <ele>639.4</ele>
        <time>2019-07-07T10:49:15Z</time>
      </trkpt>
      <trkpt lat="40.2292290" lon="-2.9793400">
        <ele>639.0</ele>
        <time>2019-07-07T10:49:18Z</time>
      </trkpt>
      <trkpt lat="40.2291310" lon="-2.9794630">
        <ele>639.0</ele>
        <time>2019-07-07T10:49:19Z</time>
      </trkpt>
      <trkpt lat="40.2290840" lon="-2.9795240">
        <ele>638.8</ele>
        <time>2019-07-07T10:49:21Z</time>
      </trkpt>
      <trkpt lat="40.2287840" lon="-2.9798590">
        <ele>638.2</ele>
        <time>2019-07-07T10:49:27Z</time>
      </trkpt>
      <trkpt lat="40.2284350" lon="-2.9802090">
        <ele>637.8</ele>
        <time>2019-07-07T10:49:34Z</time>
      </trkpt>
      <trkpt lat="40.2283240" lon="-2.9802990">
        <ele>637.8</ele>
        <time>2019-07-07T10:49:36Z</time>
      </trkpt>
      <trkpt lat="40.2279330" lon="-2.9806620">
        <ele>637.0</ele>
        <time>2019-07-07T10:49:42Z</time>
      </trkpt>
      <trkpt lat="40.2278790" lon="-2.9807210">
        <ele>636.8</ele>
        <time>2019-07-07T10:49:43Z</time>
      </trkpt>
      <trkpt lat="40.2276190" lon="-2.9810520">
        <ele>636.2</ele>
        <time>2019-07-07T10:49:48Z</time>
      </trkpt>
      <trkpt lat="40.2275110" lon="-2.9811820">
        <ele>635.8</ele>
        <time>2019-07-07T10:49:51Z</time>
      </trkpt>
      <trkpt lat="40.2272850" lon="-2.9814340">
        <ele>635.4</ele>
        <time>2019-07-07T10:49:54Z</time>
      </trkpt>
      <trkpt lat="40.2271680" lon="-2.9815530">
        <ele>635.2</ele>
        <time>2019-07-07T10:49:57Z</time>
      </trkpt>
      <trkpt lat="40.2268140" lon="-2.9819020">
        <ele>634.8</ele>
        <time>2019-07-07T10:50:03Z</time>
      </trkpt>
      <trkpt lat="40.2267030" lon="-2.9820280">
        <ele>634.8</ele>
        <time>2019-07-07T10:50:04Z</time>
      </trkpt>
      <trkpt lat="40.2265440" lon="-2.9822250">
        <ele>634.4</ele>
        <time>2019-07-07T10:50:07Z</time>
      </trkpt>
      <trkpt lat="40.2263880" lon="-2.9824270">
        <ele>634.2</ele>
        <time>2019-07-07T10:50:11Z</time>
      </trkpt>
      <trkpt lat="40.2263350" lon="-2.9824930">
        <ele>633.8</ele>
        <time>2019-07-07T10:50:12Z</time>
      </trkpt>
      <trkpt lat="40.2261840" lon="-2.9827050">
        <ele>633.0</ele>
        <time>2019-07-07T10:50:15Z</time>
      </trkpt>
      <trkpt lat="40.2260850" lon="-2.9828490">
        <ele>632.8</ele>
        <time>2019-07-07T10:50:16Z</time>
      </trkpt>
      <trkpt lat="40.2258990" lon="-2.9831480">
        <ele>632.0</ele>
        <time>2019-07-07T10:50:21Z</time>
      </trkpt>
      <trkpt lat="40.2257640" lon="-2.9833770">
        <ele>631.6</ele>
        <time>2019-07-07T10:50:24Z</time>
      </trkpt>
      <trkpt lat="40.2256710" lon="-2.9835320">
        <ele>631.6</ele>
        <time>2019-07-07T10:50:25Z</time>
      </trkpt>
      <trkpt lat="40.2254220" lon="-2.9839080">
        <ele>631.0</ele>
        <time>2019-07-07T10:50:30Z</time>
      </trkpt>
      <trkpt lat="40.2253200" lon="-2.9840540">
        <ele>630.6</ele>
        <time>2019-07-07T10:50:33Z</time>
      </trkpt>
      <trkpt lat="40.2252070" lon="-2.9841900">
        <ele>630.6</ele>
        <time>2019-07-07T10:50:35Z</time>
      </trkpt>
      <trkpt lat="40.2250070" lon="-2.9843230">
        <ele>630.4</ele>
        <time>2019-07-07T10:50:37Z</time>
      </trkpt>
      <trkpt lat="40.2247910" lon="-2.9843980">
        <ele>630.0</ele>
        <time>2019-07-07T10:50:40Z</time>
      </trkpt>
      <trkpt lat="40.2247190" lon="-2.9844130">
        <ele>629.6</ele>
        <time>2019-07-07T10:50:42Z</time>
      </trkpt>
      <trkpt lat="40.2246350" lon="-2.9844280">
        <ele>629.4</ele>
        <time>2019-07-07T10:50:43Z</time>
      </trkpt>
      <trkpt lat="40.2241300" lon="-2.9845170">
        <ele>628.8</ele>
        <time>2019-07-07T10:50:49Z</time>
      </trkpt>
      <trkpt lat="40.2240530" lon="-2.9845270">
        <ele>628.6</ele>
        <time>2019-07-07T10:50:51Z</time>
      </trkpt>
      <trkpt lat="40.2239740" lon="-2.9845400">
        <ele>628.2</ele>
        <time>2019-07-07T10:50:52Z</time>
      </trkpt>
      <trkpt lat="40.2238150" lon="-2.9845740">
        <ele>627.4</ele>
        <time>2019-07-07T10:50:54Z</time>
      </trkpt>
      <trkpt lat="40.2234050" lon="-2.9846540">
        <ele>626.4</ele>
        <time>2019-07-07T10:50:59Z</time>
      </trkpt>
      <trkpt lat="40.2233240" lon="-2.9846720">
        <ele>626.4</ele>
        <time>2019-07-07T10:51:00Z</time>
      </trkpt>
      <trkpt lat="40.2231650" lon="-2.9847010">
        <ele>626.2</ele>
        <time>2019-07-07T10:51:01Z</time>
      </trkpt>
      <trkpt lat="40.2230870" lon="-2.9847040">
        <ele>626.0</ele>
        <time>2019-07-07T10:51:03Z</time>
      </trkpt>
      <trkpt lat="40.2229330" lon="-2.9846900">
        <ele>626.0</ele>
        <time>2019-07-07T10:51:05Z</time>
      </trkpt>
      <trkpt lat="40.2224220" lon="-2.9845630">
        <ele>626.0</ele>
        <time>2019-07-07T10:51:12Z</time>
      </trkpt>
      <trkpt lat="40.2220870" lon="-2.9844640">
        <ele>626.0</ele>
        <time>2019-07-07T10:51:17Z</time>
      </trkpt>
      <trkpt lat="40.2219060" lon="-2.9844060">
        <ele>626.2</ele>
        <time>2019-07-07T10:51:19Z</time>
      </trkpt>
      <trkpt lat="40.2216750" lon="-2.9843430">
        <ele>626.8</ele>
        <time>2019-07-07T10:51:24Z</time>
      </trkpt>
      <trkpt lat="40.2215080" lon="-2.9842990">
        <ele>627.2</ele>
        <time>2019-07-07T10:51:26Z</time>
      </trkpt>
      <trkpt lat="40.2210440" lon="-2.9841790">
        <ele>627.2</ele>
        <time>2019-07-07T10:51:35Z</time>
      </trkpt>
      <trkpt lat="40.2209800" lon="-2.9841660">
        <ele>627.0</ele>
        <time>2019-07-07T10:51:36Z</time>
      </trkpt>
      <trkpt lat="40.2204360" lon="-2.9840260">
        <ele>626.2</ele>
        <time>2019-07-07T10:51:43Z</time>
      </trkpt>
      <trkpt lat="40.2203000" lon="-2.9839950">
        <ele>625.4</ele>
        <time>2019-07-07T10:51:46Z</time>
      </trkpt>
      <trkpt lat="40.2200420" lon="-2.9839290">
        <ele>624.8</ele>
        <time>2019-07-07T10:51:49Z</time>
      </trkpt>
      <trkpt lat="40.2199800" lon="-2.9839160">
        <ele>624.6</ele>
        <time>2019-07-07T10:51:51Z</time>
      </trkpt>
      <trkpt lat="40.2198570" lon="-2.9838890">
        <ele>624.4</ele>
        <time>2019-07-07T10:51:53Z</time>
      </trkpt>
      <trkpt lat="40.2196710" lon="-2.9838430">
        <ele>624.4</ele>
        <time>2019-07-07T10:51:55Z</time>
      </trkpt>
      <trkpt lat="40.2193720" lon="-2.9837720">
        <ele>624.0</ele>
        <time>2019-07-07T10:52:00Z</time>
      </trkpt>
      <trkpt lat="40.2193120" lon="-2.9837590">
        <ele>624.2</ele>
        <time>2019-07-07T10:52:01Z</time>
      </trkpt>
      <trkpt lat="40.2190680" lon="-2.9836970">
        <ele>624.2</ele>
        <time>2019-07-07T10:52:06Z</time>
      </trkpt>
      <trkpt lat="40.2187610" lon="-2.9836230">
        <ele>624.2</ele>
        <time>2019-07-07T10:52:11Z</time>
      </trkpt>
      <trkpt lat="40.2182070" lon="-2.9834930">
        <ele>624.2</ele>
        <time>2019-07-07T10:52:19Z</time>
      </trkpt>
      <trkpt lat="40.2180220" lon="-2.9834420">
        <ele>624.2</ele>
        <time>2019-07-07T10:52:23Z</time>
      </trkpt>
      <trkpt lat="40.2175620" lon="-2.9833520">
        <ele>624.2</ele>
        <time>2019-07-07T10:52:30Z</time>
      </trkpt>
      <trkpt lat="40.2169880" lon="-2.9833120">
        <ele>623.6</ele>
        <time>2019-07-07T10:52:37Z</time>
      </trkpt>
      <trkpt lat="40.2169880" lon="-2.9833120">
        <ele>623.4</ele>
        <time>2019-07-07T10:52:38Z</time>
      </trkpt>
      <trkpt lat="40.2164880" lon="-2.9833680">
        <ele>623.2</ele>
        <time>2019-07-07T10:52:45Z</time>
      </trkpt>
      <trkpt lat="40.2160200" lon="-2.9834070">
        <ele>623.4</ele>
        <time>2019-07-07T10:52:52Z</time>
      </trkpt>
      <trkpt lat="40.2157710" lon="-2.9833850">
        <ele>623.6</ele>
        <time>2019-07-07T10:52:55Z</time>
      </trkpt>
      <trkpt lat="40.2156480" lon="-2.9833590">
        <ele>623.8</ele>
        <time>2019-07-07T10:52:58Z</time>
      </trkpt>
      <trkpt lat="40.2151850" lon="-2.9832230">
        <ele>624.4</ele>
        <time>2019-07-07T10:53:06Z</time>
      </trkpt>
      <trkpt lat="40.2147760" lon="-2.9829750">
        <ele>625.6</ele>
        <time>2019-07-07T10:53:13Z</time>
      </trkpt>
      <trkpt lat="40.2147270" lon="-2.9829430">
        <ele>625.6</ele>
        <time>2019-07-07T10:53:14Z</time>
      </trkpt>
      <trkpt lat="40.2144410" lon="-2.9827250">
        <ele>626.4</ele>
        <time>2019-07-07T10:53:21Z</time>
      </trkpt>
      <trkpt lat="40.2143920" lon="-2.9826890">
        <ele>626.4</ele>
        <time>2019-07-07T10:53:22Z</time>
      </trkpt>
      <trkpt lat="40.2138600" lon="-2.9823630">
        <ele>626.4</ele>
        <time>2019-07-07T10:53:31Z</time>
      </trkpt>
      <trkpt lat="40.2135810" lon="-2.9822280">
        <ele>626.6</ele>
        <time>2019-07-07T10:53:36Z</time>
      </trkpt>
      <trkpt lat="40.2134710" lon="-2.9821660">
        <ele>626.8</ele>
        <time>2019-07-07T10:53:38Z</time>
      </trkpt>
      <trkpt lat="40.2129610" lon="-2.9819180">
        <ele>627.2</ele>
        <time>2019-07-07T10:53:48Z</time>
      </trkpt>
      <trkpt lat="40.2128460" lon="-2.9818660">
        <ele>627.2</ele>
        <time>2019-07-07T10:53:49Z</time>
      </trkpt>
      <trkpt lat="40.2123300" lon="-2.9816150">
        <ele>627.4</ele>
        <time>2019-07-07T10:53:58Z</time>
      </trkpt>
      <trkpt lat="40.2121580" lon="-2.9815420">
        <ele>627.8</ele>
        <time>2019-07-07T10:54:01Z</time>
      </trkpt>
      <trkpt lat="40.2116790" lon="-2.9812660">
        <ele>628.4</ele>
        <time>2019-07-07T10:54:10Z</time>
      </trkpt>
      <trkpt lat="40.2112150" lon="-2.9809620">
        <ele>629.2</ele>
        <time>2019-07-07T10:54:19Z</time>
      </trkpt>
      <trkpt lat="40.2110640" lon="-2.9808580">
        <ele>629.4</ele>
        <time>2019-07-07T10:54:22Z</time>
      </trkpt>
      <trkpt lat="40.2106940" lon="-2.9806080">
        <ele>629.4</ele>
        <time>2019-07-07T10:54:30Z</time>
      </trkpt>
      <trkpt lat="40.2101760" lon="-2.9802890">
        <ele>629.4</ele>
        <time>2019-07-07T10:54:38Z</time>
      </trkpt>
      <trkpt lat="40.2100660" lon="-2.9802140">
        <ele>629.4</ele>
        <time>2019-07-07T10:54:41Z</time>
      </trkpt>
      <trkpt lat="40.2096160" lon="-2.9798150">
        <ele>629.8</ele>
        <time>2019-07-07T10:54:49Z</time>
      </trkpt>
      <trkpt lat="40.2096160" lon="-2.9798150">
        <ele>629.8</ele>
        <time>2019-07-07T10:54:50Z</time>
      </trkpt>
      <trkpt lat="40.2093440" lon="-2.9795240">
        <ele>630.0</ele>
        <time>2019-07-07T10:54:55Z</time>
      </trkpt>
      <trkpt lat="40.2092460" lon="-2.9794330">
        <ele>630.0</ele>
        <time>2019-07-07T10:54:58Z</time>
      </trkpt>
      <trkpt lat="40.2091470" lon="-2.9793370">
        <ele>630.2</ele>
        <time>2019-07-07T10:55:00Z</time>
      </trkpt>
      <trkpt lat="40.2088170" lon="-2.9790400">
        <ele>629.6</ele>
        <time>2019-07-07T10:55:06Z</time>
      </trkpt>
      <trkpt lat="40.2085720" lon="-2.9788560">
        <ele>629.2</ele>
        <time>2019-07-07T10:55:10Z</time>
      </trkpt>
      <trkpt lat="40.2083280" lon="-2.9787000">
        <ele>628.8</ele>
        <time>2019-07-07T10:55:13Z</time>
      </trkpt>
      <trkpt lat="40.2078380" lon="-2.9783540">
        <ele>628.6</ele>
        <time>2019-07-07T10:55:22Z</time>
      </trkpt>
      <trkpt lat="40.2076770" lon="-2.9782410">
        <ele>628.2</ele>
        <time>2019-07-07T10:55:25Z</time>
      </trkpt>
      <trkpt lat="40.2073680" lon="-2.9779950">
        <ele>628.6</ele>
        <time>2019-07-07T10:55:31Z</time>
      </trkpt>
      <trkpt lat="40.2070220" lon="-2.9777330">
        <ele>628.6</ele>
        <time>2019-07-07T10:55:38Z</time>
      </trkpt>
      <trkpt lat="40.2070220" lon="-2.9777330">
        <ele>628.6</ele>
        <time>2019-07-07T10:55:39Z</time>
      </trkpt>
      <trkpt lat="40.2068960" lon="-2.9776200">
        <ele>628.4</ele>
        <time>2019-07-07T10:55:42Z</time>
      </trkpt>
      <trkpt lat="40.2068470" lon="-2.9776050">
        <ele>628.4</ele>
        <time>2019-07-07T10:55:43Z</time>
      </trkpt>
      <trkpt lat="40.2067390" lon="-2.9776320">
        <ele>628.0</ele>
        <time>2019-07-07T10:55:45Z</time>
      </trkpt>
      <trkpt lat="40.2066870" lon="-2.9776710">
        <ele>627.8</ele>
        <time>2019-07-07T10:55:46Z</time>
      </trkpt>
      <trkpt lat="40.2065820" lon="-2.9777820">
        <ele>627.4</ele>
        <time>2019-07-07T10:55:48Z</time>
      </trkpt>
      <trkpt lat="40.2064650" lon="-2.9779100">
        <ele>626.6</ele>
        <time>2019-07-07T10:55:50Z</time>
      </trkpt>
      <trkpt lat="40.2062700" lon="-2.9781130">
        <ele>625.4</ele>
        <time>2019-07-07T10:55:53Z</time>
      </trkpt>
      <trkpt lat="40.2059990" lon="-2.9783910">
        <ele>624.2</ele>
        <time>2019-07-07T10:55:57Z</time>
      </trkpt>
      <trkpt lat="40.2059330" lon="-2.9784550">
        <ele>623.8</ele>
        <time>2019-07-07T10:55:58Z</time>
      </trkpt>
      <trkpt lat="40.2056780" lon="-2.9786620">
        <ele>624.2</ele>
        <time>2019-07-07T10:56:01Z</time>
      </trkpt>
      <trkpt lat="40.2056160" lon="-2.9787060">
        <ele>624.6</ele>
        <time>2019-07-07T10:56:03Z</time>
      </trkpt>
      <trkpt lat="40.2054920" lon="-2.9787920">
        <ele>625.0</ele>
        <time>2019-07-07T10:56:05Z</time>
      </trkpt>
      <trkpt lat="40.2053030" lon="-2.9789190">
        <ele>625.0</ele>
        <time>2019-07-07T10:56:08Z</time>
      </trkpt>
      <trkpt lat="40.2049270" lon="-2.9791840">
        <ele>625.0</ele>
        <time>2019-07-07T10:56:13Z</time>
      </trkpt>
      <trkpt lat="40.2044470" lon="-2.9795240">
        <ele>625.2</ele>
        <time>2019-07-07T10:56:22Z</time>
      </trkpt>
      <trkpt lat="40.2043320" lon="-2.9795990">
        <ele>625.4</ele>
        <time>2019-07-07T10:56:24Z</time>
      </trkpt>
      <trkpt lat="40.2041620" lon="-2.9797100">
        <ele>625.6</ele>
        <time>2019-07-07T10:56:27Z</time>
      </trkpt>
      <trkpt lat="40.2039980" lon="-2.9798260">
        <ele>625.8</ele>
        <time>2019-07-07T10:56:30Z</time>
      </trkpt>
      <trkpt lat="40.2037290" lon="-2.9800190">
        <ele>626.4</ele>
        <time>2019-07-07T10:56:35Z</time>
      </trkpt>
      <trkpt lat="40.2032520" lon="-2.9803710">
        <ele>627.0</ele>
        <time>2019-07-07T10:56:43Z</time>
      </trkpt>
      <trkpt lat="40.2032520" lon="-2.9803710">
        <ele>627.0</ele>
        <time>2019-07-07T10:56:44Z</time>
      </trkpt>
      <trkpt lat="40.2029660" lon="-2.9806760">
        <ele>627.4</ele>
        <time>2019-07-07T10:56:49Z</time>
      </trkpt>
      <trkpt lat="40.2029660" lon="-2.9806760">
        <ele>627.6</ele>
        <time>2019-07-07T10:56:50Z</time>
      </trkpt>
      <trkpt lat="40.2025810" lon="-2.9811330">
        <ele>626.8</ele>
        <time>2019-07-07T10:56:58Z</time>
      </trkpt>
      <trkpt lat="40.2023790" lon="-2.9813770">
        <ele>626.4</ele>
        <time>2019-07-07T10:57:01Z</time>
      </trkpt>
      <trkpt lat="40.2021770" lon="-2.9816240">
        <ele>626.4</ele>
        <time>2019-07-07T10:57:06Z</time>
      </trkpt>
      <trkpt lat="40.2017760" lon="-2.9821010">
        <ele>626.6</ele>
        <time>2019-07-07T10:57:13Z</time>
      </trkpt>
      <trkpt lat="40.2017290" lon="-2.9821620">
        <ele>626.8</ele>
        <time>2019-07-07T10:57:15Z</time>
      </trkpt>
      <trkpt lat="40.2014940" lon="-2.9824570">
        <ele>627.0</ele>
        <time>2019-07-07T10:57:19Z</time>
      </trkpt>
      <trkpt lat="40.2013460" lon="-2.9826210">
        <ele>627.2</ele>
        <time>2019-07-07T10:57:23Z</time>
      </trkpt>
      <trkpt lat="40.2012260" lon="-2.9828130">
        <ele>627.4</ele>
        <time>2019-07-07T10:57:25Z</time>
      </trkpt>
      <trkpt lat="40.2012060" lon="-2.9828870">
        <ele>627.4</ele>
        <time>2019-07-07T10:57:27Z</time>
      </trkpt>
      <trkpt lat="40.2012580" lon="-2.9831180">
        <ele>627.4</ele>
        <time>2019-07-07T10:57:30Z</time>
      </trkpt>
      <trkpt lat="40.2013610" lon="-2.9832520">
        <ele>627.0</ele>
        <time>2019-07-07T10:57:32Z</time>
      </trkpt>
      <trkpt lat="40.2014820" lon="-2.9833810">
        <ele>626.4</ele>
        <time>2019-07-07T10:57:34Z</time>
      </trkpt>
      <trkpt lat="40.2016110" lon="-2.9835140">
        <ele>626.0</ele>
        <time>2019-07-07T10:57:36Z</time>
      </trkpt>
      <trkpt lat="40.2017470" lon="-2.9836430">
        <ele>625.8</ele>
        <time>2019-07-07T10:57:38Z</time>
      </trkpt>
      <trkpt lat="40.2018140" lon="-2.9837060">
        <ele>625.4</ele>
        <time>2019-07-07T10:57:39Z</time>
      </trkpt>
      <trkpt lat="40.2019450" lon="-2.9838290">
        <ele>624.4</ele>
        <time>2019-07-07T10:57:41Z</time>
      </trkpt>
      <trkpt lat="40.2021340" lon="-2.9840000">
        <ele>622.8</ele>
        <time>2019-07-07T10:57:43Z</time>
      </trkpt>
      <trkpt lat="40.2022940" lon="-2.9841450">
        <ele>621.8</ele>
        <time>2019-07-07T10:57:47Z</time>
      </trkpt>
      <trkpt lat="40.2024190" lon="-2.9842530">
        <ele>621.4</ele>
        <time>2019-07-07T10:57:49Z</time>
      </trkpt>
      <trkpt lat="40.2024540" lon="-2.9842890">
        <ele>621.0</ele>
        <time>2019-07-07T10:57:51Z</time>
      </trkpt>
      <trkpt lat="40.2024820" lon="-2.9843310">
        <ele>620.8</ele>
        <time>2019-07-07T10:57:52Z</time>
      </trkpt>
      <trkpt lat="40.2024680" lon="-2.9845470">
        <ele>620.2</ele>
        <time>2019-07-07T10:57:55Z</time>
      </trkpt>
      <trkpt lat="40.2024680" lon="-2.9845470">
        <ele>620.0</ele>
        <time>2019-07-07T10:57:56Z</time>
      </trkpt>
      <trkpt lat="40.2024130" lon="-2.9846460">
        <ele>620.0</ele>
        <time>2019-07-07T10:57:58Z</time>
      </trkpt>
      <trkpt lat="40.2023460" lon="-2.9847450">
        <ele>620.2</ele>
        <time>2019-07-07T10:58:00Z</time>
      </trkpt>
      <trkpt lat="40.2022840" lon="-2.9848580">
        <ele>620.2</ele>
        <time>2019-07-07T10:58:01Z</time>
      </trkpt>
      <trkpt lat="40.2021630" lon="-2.9851030">
        <ele>619.8</ele>
        <time>2019-07-07T10:58:06Z</time>
      </trkpt>
      <trkpt lat="40.2021010" lon="-2.9852280">
        <ele>619.6</ele>
        <time>2019-07-07T10:58:07Z</time>
      </trkpt>
      <trkpt lat="40.2021010" lon="-2.9852280">
        <ele>619.6</ele>
        <time>2019-07-07T10:58:08Z</time>
      </trkpt>
      <trkpt lat="40.2020150" lon="-2.9854830">
        <ele>619.4</ele>
        <time>2019-07-07T10:58:12Z</time>
      </trkpt>
      <trkpt lat="40.2019920" lon="-2.9856170">
        <ele>619.2</ele>
        <time>2019-07-07T10:58:14Z</time>
      </trkpt>
      <trkpt lat="40.2019350" lon="-2.9858610">
        <ele>618.8</ele>
        <time>2019-07-07T10:58:18Z</time>
      </trkpt>
      <trkpt lat="40.2018790" lon="-2.9860230">
        <ele>619.2</ele>
        <time>2019-07-07T10:58:21Z</time>
      </trkpt>
      <trkpt lat="40.2018410" lon="-2.9861230">
        <ele>620.0</ele>
        <time>2019-07-07T10:58:23Z</time>
      </trkpt>
      <trkpt lat="40.2017550" lon="-2.9862930">
        <ele>620.6</ele>
        <time>2019-07-07T10:58:27Z</time>
      </trkpt>
      <trkpt lat="40.2017130" lon="-2.9863770">
        <ele>620.8</ele>
        <time>2019-07-07T10:58:29Z</time>
      </trkpt>
      <trkpt lat="40.2016130" lon="-2.9865740">
        <ele>621.0</ele>
        <time>2019-07-07T10:58:34Z</time>
      </trkpt>
      <trkpt lat="40.2015390" lon="-2.9867260">
        <ele>621.2</ele>
        <time>2019-07-07T10:58:38Z</time>
      </trkpt>
      <trkpt lat="40.2014850" lon="-2.9868410">
        <ele>621.6</ele>
        <time>2019-07-07T10:58:41Z</time>
      </trkpt>
      <trkpt lat="40.2014320" lon="-2.9869500">
        <ele>622.0</ele>
        <time>2019-07-07T10:58:44Z</time>
      </trkpt>
      <trkpt lat="40.2014150" lon="-2.9869840">
        <ele>622.2</ele>
        <time>2019-07-07T10:58:45Z</time>
      </trkpt>
      <trkpt lat="40.2013170" lon="-2.9871950">
        <ele>623.0</ele>
        <time>2019-07-07T10:58:51Z</time>
      </trkpt>
      <trkpt lat="40.2012860" lon="-2.9872660">
        <ele>623.4</ele>
        <time>2019-07-07T10:58:53Z</time>
      </trkpt>
      <trkpt lat="40.2012710" lon="-2.9873010">
        <ele>623.8</ele>
        <time>2019-07-07T10:58:54Z</time>
      </trkpt>
      <trkpt lat="40.2012370" lon="-2.9874080">
        <ele>624.4</ele>
        <time>2019-07-07T10:58:57Z</time>
      </trkpt>
      <trkpt lat="40.2011940" lon="-2.9875940">
        <ele>625.2</ele>
        <time>2019-07-07T10:59:01Z</time>
      </trkpt>
      <trkpt lat="40.2011940" lon="-2.9875940">
        <ele>625.6</ele>
        <time>2019-07-07T10:59:02Z</time>
      </trkpt>
      <trkpt lat="40.2010950" lon="-2.9879460">
        <ele>626.0</ele>
        <time>2019-07-07T10:59:11Z</time>
      </trkpt>
      <trkpt lat="40.2010810" lon="-2.9879820">
        <ele>626.2</ele>
        <time>2019-07-07T10:59:12Z</time>
      </trkpt>
      <trkpt lat="40.2010480" lon="-2.9880530">
        <ele>626.8</ele>
        <time>2019-07-07T10:59:14Z</time>
      </trkpt>
      <trkpt lat="40.2009820" lon="-2.9881930">
        <ele>627.8</ele>
        <time>2019-07-07T10:59:18Z</time>
      </trkpt>
      <trkpt lat="40.2009420" lon="-2.9882590">
        <ele>628.0</ele>
        <time>2019-07-07T10:59:19Z</time>
      </trkpt>
      <trkpt lat="40.2007830" lon="-2.9884890">
        <ele>628.8</ele>
        <time>2019-07-07T10:59:27Z</time>
      </trkpt>
      <trkpt lat="40.2007580" lon="-2.9885190">
        <ele>629.0</ele>
        <time>2019-07-07T10:59:28Z</time>
      </trkpt>
      <trkpt lat="40.2006320" lon="-2.9886400">
        <ele>629.2</ele>
        <time>2019-07-07T10:59:31Z</time>
      </trkpt>
      <trkpt lat="40.2006040" lon="-2.9886800">
        <ele>629.0</ele>
        <time>2019-07-07T10:59:33Z</time>
      </trkpt>
      <trkpt lat="40.2005570" lon="-2.9888170">
        <ele>628.4</ele>
        <time>2019-07-07T10:59:36Z</time>
      </trkpt>
      <trkpt lat="40.2005580" lon="-2.9889080">
        <ele>628.4</ele>
        <time>2019-07-07T10:59:37Z</time>
      </trkpt>
      <trkpt lat="40.2005580" lon="-2.9889080">
        <ele>628.4</ele>
        <time>2019-07-07T10:59:38Z</time>
      </trkpt>
      <trkpt lat="40.2005980" lon="-2.9890720">
        <ele>628.6</ele>
        <time>2019-07-07T10:59:42Z</time>
      </trkpt>
      <trkpt lat="40.2006280" lon="-2.9891500">
        <ele>628.6</ele>
        <time>2019-07-07T10:59:43Z</time>
      </trkpt>
      <trkpt lat="40.2006480" lon="-2.9891860">
        <ele>628.4</ele>
        <time>2019-07-07T10:59:45Z</time>
      </trkpt>
      <trkpt lat="40.2007120" lon="-2.9892890">
        <ele>628.0</ele>
        <time>2019-07-07T10:59:48Z</time>
      </trkpt>
      <trkpt lat="40.2007480" lon="-2.9893680">
        <ele>628.0</ele>
        <time>2019-07-07T10:59:50Z</time>
      </trkpt>
      <trkpt lat="40.2008090" lon="-2.9895240">
        <ele>628.2</ele>
        <time>2019-07-07T10:59:54Z</time>
      </trkpt>
      <trkpt lat="40.2008480" lon="-2.9897090">
        <ele>627.8</ele>
        <time>2019-07-07T10:59:58Z</time>
      </trkpt>
      <trkpt lat="40.2008730" lon="-2.9899720">
        <ele>628.2</ele>
        <time>2019-07-07T11:00:03Z</time>
      </trkpt>
      <trkpt lat="40.2008610" lon="-2.9900800">
        <ele>628.2</ele>
        <time>2019-07-07T11:00:05Z</time>
      </trkpt>
      <trkpt lat="40.2007560" lon="-2.9906210">
        <ele>628.4</ele>
        <time>2019-07-07T11:00:15Z</time>
      </trkpt>
      <trkpt lat="40.2007470" lon="-2.9906810">
        <ele>628.2</ele>
        <time>2019-07-07T11:00:16Z</time>
      </trkpt>
      <trkpt lat="40.2007210" lon="-2.9909500">
        <ele>628.6</ele>
        <time>2019-07-07T11:00:19Z</time>
      </trkpt>
      <trkpt lat="40.2007230" lon="-2.9910190">
        <ele>628.6</ele>
        <time>2019-07-07T11:00:21Z</time>
      </trkpt>
      <trkpt lat="40.2007690" lon="-2.9912110">
        <ele>627.8</ele>
        <time>2019-07-07T11:00:24Z</time>
      </trkpt>
      <trkpt lat="40.2008140" lon="-2.9913150">
        <ele>627.6</ele>
        <time>2019-07-07T11:00:26Z</time>
      </trkpt>
      <trkpt lat="40.2008460" lon="-2.9914040">
        <ele>627.2</ele>
        <time>2019-07-07T11:00:28Z</time>
      </trkpt>
      <trkpt lat="40.2009240" lon="-2.9915770">
        <ele>626.8</ele>
        <time>2019-07-07T11:00:31Z</time>
      </trkpt>
      <trkpt lat="40.2009610" lon="-2.9916170">
        <ele>626.4</ele>
        <time>2019-07-07T11:00:33Z</time>
      </trkpt>
      <trkpt lat="40.2010500" lon="-2.9916960">
        <ele>626.0</ele>
        <time>2019-07-07T11:00:35Z</time>
      </trkpt>
      <trkpt lat="40.2012050" lon="-2.9918510">
        <ele>624.4</ele>
        <time>2019-07-07T11:00:38Z</time>
      </trkpt>
      <trkpt lat="40.2013300" lon="-2.9919730">
        <ele>623.4</ele>
        <time>2019-07-07T11:00:40Z</time>
      </trkpt>
      <trkpt lat="40.2014060" lon="-2.9920320">
        <ele>623.0</ele>
        <time>2019-07-07T11:00:41Z</time>
      </trkpt>
      <trkpt lat="40.2014900" lon="-2.9920840">
        <ele>622.4</ele>
        <time>2019-07-07T11:00:42Z</time>
      </trkpt>
      <trkpt lat="40.2016800" lon="-2.9921660">
        <ele>621.2</ele>
        <time>2019-07-07T11:00:44Z</time>
      </trkpt>
      <trkpt lat="40.2017840" lon="-2.9921960">
        <ele>620.4</ele>
        <time>2019-07-07T11:00:45Z</time>
      </trkpt>
      <trkpt lat="40.2018920" lon="-2.9922220">
        <ele>619.0</ele>
        <time>2019-07-07T11:00:46Z</time>
      </trkpt>
      <trkpt lat="40.2021120" lon="-2.9922770">
        <ele>617.6</ele>
        <time>2019-07-07T11:00:48Z</time>
      </trkpt>
      <trkpt lat="40.2022210" lon="-2.9923160">
        <ele>617.0</ele>
        <time>2019-07-07T11:00:49Z</time>
      </trkpt>
      <trkpt lat="40.2024330" lon="-2.9924100">
        <ele>616.6</ele>
        <time>2019-07-07T11:00:50Z</time>
      </trkpt>
      <trkpt lat="40.2025360" lon="-2.9924650">
        <ele>615.2</ele>
        <time>2019-07-07T11:00:52Z</time>
      </trkpt>
      <trkpt lat="40.2027280" lon="-2.9926050">
        <ele>613.8</ele>
        <time>2019-07-07T11:00:54Z</time>
      </trkpt>
      <trkpt lat="40.2028120" lon="-2.9926900">
        <ele>613.4</ele>
        <time>2019-07-07T11:00:55Z</time>
      </trkpt>
      <trkpt lat="40.2029810" lon="-2.9928610">
        <ele>612.6</ele>
        <time>2019-07-07T11:00:57Z</time>
      </trkpt>
      <trkpt lat="40.2030570" lon="-2.9929550">
        <ele>612.2</ele>
        <time>2019-07-07T11:00:58Z</time>
      </trkpt>
      <trkpt lat="40.2032020" lon="-2.9931440">
        <ele>611.8</ele>
        <time>2019-07-07T11:01:00Z</time>
      </trkpt>
      <trkpt lat="40.2033330" lon="-2.9933360">
        <ele>611.6</ele>
        <time>2019-07-07T11:01:01Z</time>
      </trkpt>
      <trkpt lat="40.2034620" lon="-2.9935130">
        <ele>611.0</ele>
        <time>2019-07-07T11:01:04Z</time>
      </trkpt>
      <trkpt lat="40.2037600" lon="-2.9939170">
        <ele>610.8</ele>
        <time>2019-07-07T11:01:09Z</time>
      </trkpt>
      <trkpt lat="40.2038160" lon="-2.9939900">
        <ele>610.6</ele>
        <time>2019-07-07T11:01:10Z</time>
      </trkpt>
      <trkpt lat="40.2039230" lon="-2.9941350">
        <ele>610.4</ele>
        <time>2019-07-07T11:01:12Z</time>
      </trkpt>
      <trkpt lat="40.2041200" lon="-2.9944140">
        <ele>610.2</ele>
        <time>2019-07-07T11:01:16Z</time>
      </trkpt>
      <trkpt lat="40.2041660" lon="-2.9944840">
        <ele>610.0</ele>
        <time>2019-07-07T11:01:17Z</time>
      </trkpt>
      <trkpt lat="40.2044170" lon="-2.9948700">
        <ele>610.0</ele>
        <time>2019-07-07T11:01:23Z</time>
      </trkpt>
      <trkpt lat="40.2046180" lon="-2.9951620">
        <ele>609.2</ele>
        <time>2019-07-07T11:01:28Z</time>
      </trkpt>
      <trkpt lat="40.2047900" lon="-2.9954140">
        <ele>608.2</ele>
        <time>2019-07-07T11:01:32Z</time>
      </trkpt>
      <trkpt lat="40.2048360" lon="-2.9954770">
        <ele>608.0</ele>
        <time>2019-07-07T11:01:33Z</time>
      </trkpt>
      <trkpt lat="40.2050480" lon="-2.9958120">
        <ele>607.4</ele>
        <time>2019-07-07T11:01:37Z</time>
      </trkpt>
      <trkpt lat="40.2050900" lon="-2.9958760">
        <ele>607.0</ele>
        <time>2019-07-07T11:01:39Z</time>
      </trkpt>
      <trkpt lat="40.2051310" lon="-2.9959400">
        <ele>606.8</ele>
        <time>2019-07-07T11:01:40Z</time>
      </trkpt>
      <trkpt lat="40.2051690" lon="-2.9960020">
        <ele>606.6</ele>
        <time>2019-07-07T11:01:41Z</time>
      </trkpt>
      <trkpt lat="40.2052770" lon="-2.9961760">
        <ele>606.4</ele>
        <time>2019-07-07T11:01:43Z</time>
      </trkpt>
      <trkpt lat="40.2053820" lon="-2.9963360">
        <ele>606.0</ele>
        <time>2019-07-07T11:01:47Z</time>
      </trkpt>
      <trkpt lat="40.2054930" lon="-2.9965000">
        <ele>605.8</ele>
        <time>2019-07-07T11:01:49Z</time>
      </trkpt>
      <trkpt lat="40.2055310" lon="-2.9965540">
        <ele>605.8</ele>
        <time>2019-07-07T11:01:51Z</time>
      </trkpt>
      <trkpt lat="40.2055670" lon="-2.9966120">
        <ele>605.8</ele>
        <time>2019-07-07T11:01:52Z</time>
      </trkpt>
      <trkpt lat="40.2055900" lon="-2.9966750">
        <ele>605.6</ele>
        <time>2019-07-07T11:01:53Z</time>
      </trkpt>
      <trkpt lat="40.2055470" lon="-2.9968760">
        <ele>605.6</ele>
        <time>2019-07-07T11:01:55Z</time>
      </trkpt>
      <trkpt lat="40.2055470" lon="-2.9968760">
        <ele>605.6</ele>
        <time>2019-07-07T11:01:56Z</time>
      </trkpt>
      <trkpt lat="40.2054110" lon="-2.9970290">
        <ele>605.2</ele>
        <time>2019-07-07T11:01:59Z</time>
      </trkpt>
      <trkpt lat="40.2052680" lon="-2.9971720">
        <ele>605.2</ele>
        <time>2019-07-07T11:02:01Z</time>
      </trkpt>
      <trkpt lat="40.2052680" lon="-2.9971720">
        <ele>605.0</ele>
        <time>2019-07-07T11:02:02Z</time>
      </trkpt>
      <trkpt lat="40.2051240" lon="-2.9973170">
        <ele>605.0</ele>
        <time>2019-07-07T11:02:05Z</time>
      </trkpt>
      <trkpt lat="40.2048390" lon="-2.9976070">
        <ele>604.6</ele>
        <time>2019-07-07T11:02:11Z</time>
      </trkpt>
      <trkpt lat="40.2046980" lon="-2.9977570">
        <ele>604.6</ele>
        <time>2019-07-07T11:02:13Z</time>
      </trkpt>
      <trkpt lat="40.2042820" lon="-2.9982190">
        <ele>604.6</ele>
        <time>2019-07-07T11:02:23Z</time>
      </trkpt>
      <trkpt lat="40.2041400" lon="-2.9983690">
        <ele>604.4</ele>
        <time>2019-07-07T11:02:25Z</time>
      </trkpt>
      <trkpt lat="40.2037110" lon="-2.9988180">
        <ele>604.6</ele>
        <time>2019-07-07T11:02:35Z</time>
      </trkpt>
      <trkpt lat="40.2035700" lon="-2.9989740">
        <ele>604.6</ele>
        <time>2019-07-07T11:02:37Z</time>
      </trkpt>
      <trkpt lat="40.2031330" lon="-2.9994360">
        <ele>604.8</ele>
        <time>2019-07-07T11:02:46Z</time>
      </trkpt>
      <trkpt lat="40.2031330" lon="-2.9994360">
        <ele>604.8</ele>
        <time>2019-07-07T11:02:47Z</time>
      </trkpt>
      <trkpt lat="40.2026960" lon="-2.9998790">
        <ele>604.8</ele>
        <time>2019-07-07T11:02:55Z</time>
      </trkpt>
      <trkpt lat="40.2023620" lon="-3.0002490">
        <ele>604.8</ele>
        <time>2019-07-07T11:03:03Z</time>
      </trkpt>
      <trkpt lat="40.2022110" lon="-3.0004100">
        <ele>604.8</ele>
        <time>2019-07-07T11:03:06Z</time>
      </trkpt>
      <trkpt lat="40.2020200" lon="-3.0006200">
        <ele>605.0</ele>
        <time>2019-07-07T11:03:10Z</time>
      </trkpt>
      <trkpt lat="40.2017070" lon="-3.0009470">
        <ele>604.8</ele>
        <time>2019-07-07T11:03:17Z</time>
      </trkpt>
      <trkpt lat="40.2014640" lon="-3.0011970">
        <ele>604.8</ele>
        <time>2019-07-07T11:03:23Z</time>
      </trkpt>
      <trkpt lat="40.2010840" lon="-3.0015490">
        <ele>604.6</ele>
        <time>2019-07-07T11:03:32Z</time>
      </trkpt>
      <trkpt lat="40.2008320" lon="-3.0017940">
        <ele>604.6</ele>
        <time>2019-07-07T11:03:37Z</time>
      </trkpt>
      <trkpt lat="40.2007060" lon="-3.0018990">
        <ele>604.6</ele>
        <time>2019-07-07T11:03:41Z</time>
      </trkpt>
      <trkpt lat="40.2003260" lon="-3.0022490">
        <ele>604.2</ele>
        <time>2019-07-07T11:03:49Z</time>
      </trkpt>
      <trkpt lat="40.1998810" lon="-3.0026910">
        <ele>604.0</ele>
        <time>2019-07-07T11:04:00Z</time>
      </trkpt>
      <trkpt lat="40.1996940" lon="-3.0028660">
        <ele>603.8</ele>
        <time>2019-07-07T11:04:04Z</time>
      </trkpt>
      <trkpt lat="40.1995960" lon="-3.0029420">
        <ele>603.8</ele>
        <time>2019-07-07T11:04:06Z</time>
      </trkpt>
      <trkpt lat="40.1995070" lon="-3.0030320">
        <ele>603.8</ele>
        <time>2019-07-07T11:04:07Z</time>
      </trkpt>
      <trkpt lat="40.1994590" lon="-3.0030730">
        <ele>603.6</ele>
        <time>2019-07-07T11:04:09Z</time>
      </trkpt>
      <trkpt lat="40.1992280" lon="-3.0032730">
        <ele>604.2</ele>
        <time>2019-07-07T11:04:13Z</time>
      </trkpt>
      <trkpt lat="40.1989760" lon="-3.0033990">
        <ele>604.2</ele>
        <time>2019-07-07T11:04:18Z</time>
      </trkpt>
      <trkpt lat="40.1989230" lon="-3.0034100">
        <ele>603.8</ele>
        <time>2019-07-07T11:04:20Z</time>
      </trkpt>
      <trkpt lat="40.1988710" lon="-3.0034150">
        <ele>603.6</ele>
        <time>2019-07-07T11:04:21Z</time>
      </trkpt>
      <trkpt lat="40.1987150" lon="-3.0034250">
        <ele>603.8</ele>
        <time>2019-07-07T11:04:24Z</time>
      </trkpt>
      <trkpt lat="40.1986110" lon="-3.0034070">
        <ele>604.2</ele>
        <time>2019-07-07T11:04:26Z</time>
      </trkpt>
      <trkpt lat="40.1985110" lon="-3.0033900">
        <ele>604.2</ele>
        <time>2019-07-07T11:04:28Z</time>
      </trkpt>
      <trkpt lat="40.1984580" lon="-3.0033970">
        <ele>604.0</ele>
        <time>2019-07-07T11:04:29Z</time>
      </trkpt>
      <trkpt lat="40.1982990" lon="-3.0033840">
        <ele>603.8</ele>
        <time>2019-07-07T11:04:32Z</time>
      </trkpt>
      <trkpt lat="40.1982460" lon="-3.0033770">
        <ele>603.6</ele>
        <time>2019-07-07T11:04:33Z</time>
      </trkpt>
      <trkpt lat="40.1978880" lon="-3.0033590">
        <ele>604.4</ele>
        <time>2019-07-07T11:04:40Z</time>
      </trkpt>
      <trkpt lat="40.1974880" lon="-3.0033170">
        <ele>604.8</ele>
        <time>2019-07-07T11:04:48Z</time>
      </trkpt>
      <trkpt lat="40.1969480" lon="-3.0032820">
        <ele>604.8</ele>
        <time>2019-07-07T11:04:58Z</time>
      </trkpt>
      <trkpt lat="40.1968980" lon="-3.0032790">
        <ele>605.0</ele>
        <time>2019-07-07T11:05:00Z</time>
      </trkpt>
      <trkpt lat="40.1968010" lon="-3.0032730">
        <ele>605.2</ele>
        <time>2019-07-07T11:05:01Z</time>
      </trkpt>
      <trkpt lat="40.1963650" lon="-3.0032370">
        <ele>605.4</ele>
        <time>2019-07-07T11:05:11Z</time>
      </trkpt>
      <trkpt lat="40.1962200" lon="-3.0032240">
        <ele>605.8</ele>
        <time>2019-07-07T11:05:13Z</time>
      </trkpt>
      <trkpt lat="40.1962200" lon="-3.0032240">
        <ele>606.0</ele>
        <time>2019-07-07T11:05:14Z</time>
      </trkpt>
      <trkpt lat="40.1960750" lon="-3.0032280">
        <ele>607.0</ele>
        <time>2019-07-07T11:05:17Z</time>
      </trkpt>
      <trkpt lat="40.1960280" lon="-3.0032260">
        <ele>607.2</ele>
        <time>2019-07-07T11:05:18Z</time>
      </trkpt>
      <trkpt lat="40.1958010" lon="-3.0032140">
        <ele>607.2</ele>
        <time>2019-07-07T11:05:22Z</time>
      </trkpt>
      <trkpt lat="40.1957230" lon="-3.0031970">
        <ele>607.0</ele>
        <time>2019-07-07T11:05:24Z</time>
      </trkpt>
      <trkpt lat="40.1955580" lon="-3.0031880">
        <ele>607.2</ele>
        <time>2019-07-07T11:05:28Z</time>
      </trkpt>
      <trkpt lat="40.1955150" lon="-3.0031870">
        <ele>607.2</ele>
        <time>2019-07-07T11:05:29Z</time>
      </trkpt>
      <trkpt lat="40.1954710" lon="-3.0031860">
        <ele>607.4</ele>
        <time>2019-07-07T11:05:30Z</time>
      </trkpt>
      <trkpt lat="40.1952970" lon="-3.0031640">
        <ele>607.4</ele>
        <time>2019-07-07T11:05:34Z</time>
      </trkpt>
      <trkpt lat="40.1949120" lon="-3.0031490">
        <ele>607.8</ele>
        <time>2019-07-07T11:05:43Z</time>
      </trkpt>
      <trkpt lat="40.1948760" lon="-3.0031590">
        <ele>607.8</ele>
        <time>2019-07-07T11:05:45Z</time>
      </trkpt>
      <trkpt lat="40.1948370" lon="-3.0032290">
        <ele>608.2</ele>
        <time>2019-07-07T11:05:47Z</time>
      </trkpt>
      <trkpt lat="40.1948540" lon="-3.0033830">
        <ele>608.2</ele>
        <time>2019-07-07T11:05:50Z</time>
      </trkpt>
      <trkpt lat="40.1948680" lon="-3.0034400">
        <ele>607.8</ele>
        <time>2019-07-07T11:05:51Z</time>
      </trkpt>
      <trkpt lat="40.1949920" lon="-3.0038170">
        <ele>607.2</ele>
        <time>2019-07-07T11:05:57Z</time>
      </trkpt>
      <trkpt lat="40.1952110" lon="-3.0044320">
        <ele>606.2</ele>
        <time>2019-07-07T11:06:06Z</time>
      </trkpt>
      <trkpt lat="40.1952790" lon="-3.0046460">
        <ele>605.6</ele>
        <time>2019-07-07T11:06:08Z</time>
      </trkpt>
      <trkpt lat="40.1953800" lon="-3.0050130">
        <ele>605.2</ele>
        <time>2019-07-07T11:06:13Z</time>
      </trkpt>
      <trkpt lat="40.1953800" lon="-3.0050130">
        <ele>605.2</ele>
        <time>2019-07-07T11:06:14Z</time>
      </trkpt>
      <trkpt lat="40.1954080" lon="-3.0051710">
        <ele>604.8</ele>
        <time>2019-07-07T11:06:16Z</time>
      </trkpt>
      <trkpt lat="40.1954720" lon="-3.0055000">
        <ele>604.2</ele>
        <time>2019-07-07T11:06:19Z</time>
      </trkpt>
      <trkpt lat="40.1955010" lon="-3.0055840">
        <ele>603.4</ele>
        <time>2019-07-07T11:06:21Z</time>
      </trkpt>
      <trkpt lat="40.1955500" lon="-3.0056930">
        <ele>602.8</ele>
        <time>2019-07-07T11:06:22Z</time>
      </trkpt>
      <trkpt lat="40.1956490" lon="-3.0059100">
        <ele>601.8</ele>
        <time>2019-07-07T11:06:24Z</time>
      </trkpt>
      <trkpt lat="40.1956970" lon="-3.0060770">
        <ele>602.0</ele>
        <time>2019-07-07T11:06:27Z</time>
      </trkpt>
      <trkpt lat="40.1957540" lon="-3.0063610">
        <ele>601.2</ele>
        <time>2019-07-07T11:06:30Z</time>
      </trkpt>
      <trkpt lat="40.1957620" lon="-3.0064260">
        <ele>601.0</ele>
        <time>2019-07-07T11:06:31Z</time>
      </trkpt>
      <trkpt lat="40.1957840" lon="-3.0066150">
        <ele>600.8</ele>
        <time>2019-07-07T11:06:34Z</time>
      </trkpt>
      <trkpt lat="40.1958110" lon="-3.0067330">
        <ele>601.0</ele>
        <time>2019-07-07T11:06:36Z</time>
      </trkpt>
      <trkpt lat="40.1958520" lon="-3.0068480">
        <ele>601.0</ele>
        <time>2019-07-07T11:06:38Z</time>
      </trkpt>
      <trkpt lat="40.1959010" lon="-3.0069590">
        <ele>601.2</ele>
        <time>2019-07-07T11:06:40Z</time>
      </trkpt>
      <trkpt lat="40.1960650" lon="-3.0072930">
        <ele>602.0</ele>
        <time>2019-07-07T11:06:46Z</time>
      </trkpt>
      <trkpt lat="40.1961400" lon="-3.0074730">
        <ele>602.2</ele>
        <time>2019-07-07T11:06:49Z</time>
      </trkpt>
      <trkpt lat="40.1961760" lon="-3.0076040">
        <ele>602.0</ele>
        <time>2019-07-07T11:06:52Z</time>
      </trkpt>
      <trkpt lat="40.1962050" lon="-3.0077380">
        <ele>601.8</ele>
        <time>2019-07-07T11:06:54Z</time>
      </trkpt>
      <trkpt lat="40.1963490" lon="-3.0083180">
        <ele>601.6</ele>
        <time>2019-07-07T11:07:02Z</time>
      </trkpt>
      <trkpt lat="40.1964520" lon="-3.0086730">
        <ele>601.6</ele>
        <time>2019-07-07T11:07:09Z</time>
      </trkpt>
      <trkpt lat="40.1965230" lon="-3.0090310">
        <ele>601.2</ele>
        <time>2019-07-07T11:07:15Z</time>
      </trkpt>
      <trkpt lat="40.1965280" lon="-3.0090900">
        <ele>601.0</ele>
        <time>2019-07-07T11:07:16Z</time>
      </trkpt>
      <trkpt lat="40.1965780" lon="-3.0095710">
        <ele>600.4</ele>
        <time>2019-07-07T11:07:24Z</time>
      </trkpt>
      <trkpt lat="40.1965790" lon="-3.0097020">
        <ele>600.4</ele>
        <time>2019-07-07T11:07:25Z</time>
      </trkpt>
      <trkpt lat="40.1965740" lon="-3.0098310">
        <ele>600.4</ele>
        <time>2019-07-07T11:07:28Z</time>
      </trkpt>
      <trkpt lat="40.1965690" lon="-3.0098940">
        <ele>600.4</ele>
        <time>2019-07-07T11:07:29Z</time>
      </trkpt>
      <trkpt lat="40.1964830" lon="-3.0102380">
        <ele>600.2</ele>
        <time>2019-07-07T11:07:34Z</time>
      </trkpt>
      <trkpt lat="40.1963280" lon="-3.0104790">
        <ele>600.4</ele>
        <time>2019-07-07T11:07:40Z</time>
      </trkpt>
      <trkpt lat="40.1962510" lon="-3.0105600">
        <ele>600.6</ele>
        <time>2019-07-07T11:07:42Z</time>
      </trkpt>
      <trkpt lat="40.1959290" lon="-3.0108250">
        <ele>600.8</ele>
        <time>2019-07-07T11:07:49Z</time>
      </trkpt>
      <trkpt lat="40.1958890" lon="-3.0108490">
        <ele>601.0</ele>
        <time>2019-07-07T11:07:51Z</time>
      </trkpt>
      <trkpt lat="40.1957100" lon="-3.0109260">
        <ele>601.6</ele>
        <time>2019-07-07T11:07:54Z</time>
      </trkpt>
      <trkpt lat="40.1956650" lon="-3.0109370">
        <ele>601.6</ele>
        <time>2019-07-07T11:07:56Z</time>
      </trkpt>
      <trkpt lat="40.1954550" lon="-3.0109830">
        <ele>602.2</ele>
        <time>2019-07-07T11:08:00Z</time>
      </trkpt>
      <trkpt lat="40.1953730" lon="-3.0110090">
        <ele>602.4</ele>
        <time>2019-07-07T11:08:03Z</time>
      </trkpt>
      <trkpt lat="40.1951640" lon="-3.0110820">
        <ele>602.2</ele>
        <time>2019-07-07T11:08:07Z</time>
      </trkpt>
      <trkpt lat="40.1951230" lon="-3.0111030">
        <ele>602.2</ele>
        <time>2019-07-07T11:08:09Z</time>
      </trkpt>
      <trkpt lat="40.1949010" lon="-3.0112260">
        <ele>602.6</ele>
        <time>2019-07-07T11:08:13Z</time>
      </trkpt>
      <trkpt lat="40.1947710" lon="-3.0113180">
        <ele>603.2</ele>
        <time>2019-07-07T11:08:16Z</time>
      </trkpt>
      <trkpt lat="40.1947710" lon="-3.0113180">
        <ele>603.2</ele>
        <time>2019-07-07T11:08:17Z</time>
      </trkpt>
      <trkpt lat="40.1944590" lon="-3.0116410">
        <ele>602.8</ele>
        <time>2019-07-07T11:08:24Z</time>
      </trkpt>
      <trkpt lat="40.1944210" lon="-3.0116870">
        <ele>602.8</ele>
        <time>2019-07-07T11:08:25Z</time>
      </trkpt>
      <trkpt lat="40.1940990" lon="-3.0120120">
        <ele>602.8</ele>
        <time>2019-07-07T11:08:34Z</time>
      </trkpt>
      <trkpt lat="40.1940560" lon="-3.0120440">
        <ele>603.2</ele>
        <time>2019-07-07T11:08:35Z</time>
      </trkpt>
      <trkpt lat="40.1937870" lon="-3.0122070">
        <ele>603.2</ele>
        <time>2019-07-07T11:08:40Z</time>
      </trkpt>
      <trkpt lat="40.1936940" lon="-3.0122560">
        <ele>603.2</ele>
        <time>2019-07-07T11:08:42Z</time>
      </trkpt>
      <trkpt lat="40.1935080" lon="-3.0123410">
        <ele>603.0</ele>
        <time>2019-07-07T11:08:46Z</time>
      </trkpt>
      <trkpt lat="40.1934660" lon="-3.0123610">
        <ele>603.0</ele>
        <time>2019-07-07T11:08:47Z</time>
      </trkpt>
      <trkpt lat="40.1934240" lon="-3.0123800">
        <ele>602.8</ele>
        <time>2019-07-07T11:08:48Z</time>
      </trkpt>
      <trkpt lat="40.1933580" lon="-3.0124160">
        <ele>602.8</ele>
        <time>2019-07-07T11:08:50Z</time>
      </trkpt>
      <trkpt lat="40.1931510" lon="-3.0125260">
        <ele>602.8</ele>
        <time>2019-07-07T11:08:56Z</time>
      </trkpt>
      <trkpt lat="40.1931090" lon="-3.0125420">
        <ele>603.0</ele>
        <time>2019-07-07T11:08:57Z</time>
      </trkpt>
      <trkpt lat="40.1930670" lon="-3.0125580">
        <ele>603.0</ele>
        <time>2019-07-07T11:08:58Z</time>
      </trkpt>
      <trkpt lat="40.1929040" lon="-3.0126520">
        <ele>603.2</ele>
        <time>2019-07-07T11:09:02Z</time>
      </trkpt>
      <trkpt lat="40.1929040" lon="-3.0126520">
        <ele>603.0</ele>
        <time>2019-07-07T11:09:03Z</time>
      </trkpt>
      <trkpt lat="40.1925670" lon="-3.0128750">
        <ele>602.8</ele>
        <time>2019-07-07T11:09:11Z</time>
      </trkpt>
      <trkpt lat="40.1922060" lon="-3.0132090">
        <ele>603.2</ele>
        <time>2019-07-07T11:09:19Z</time>
      </trkpt>
      <trkpt lat="40.1918700" lon="-3.0135310">
        <ele>603.4</ele>
        <time>2019-07-07T11:09:28Z</time>
      </trkpt>
      <trkpt lat="40.1917380" lon="-3.0136660">
        <ele>603.6</ele>
        <time>2019-07-07T11:09:32Z</time>
      </trkpt>
      <trkpt lat="40.1915750" lon="-3.0137790">
        <ele>603.6</ele>
        <time>2019-07-07T11:09:36Z</time>
      </trkpt>
      <trkpt lat="40.1912910" lon="-3.0139140">
        <ele>603.2</ele>
        <time>2019-07-07T11:09:42Z</time>
      </trkpt>
      <trkpt lat="40.1912440" lon="-3.0139270">
        <ele>603.2</ele>
        <time>2019-07-07T11:09:43Z</time>
      </trkpt>
      <trkpt lat="40.1911980" lon="-3.0139360">
        <ele>603.6</ele>
        <time>2019-07-07T11:09:44Z</time>
      </trkpt>
      <trkpt lat="40.1910010" lon="-3.0139830">
        <ele>604.2</ele>
        <time>2019-07-07T11:09:49Z</time>
      </trkpt>
      <trkpt lat="40.1909140" lon="-3.0140290">
        <ele>604.6</ele>
        <time>2019-07-07T11:09:52Z</time>
      </trkpt>
      <trkpt lat="40.1908230" lon="-3.0140940">
        <ele>605.0</ele>
        <time>2019-07-07T11:09:56Z</time>
      </trkpt>
      <trkpt lat="40.1907820" lon="-3.0141310">
        <ele>605.8</ele>
        <time>2019-07-07T11:09:59Z</time>
      </trkpt>
      <trkpt lat="40.1907020" lon="-3.0142020">
        <ele>606.8</ele>
        <time>2019-07-07T11:10:03Z</time>
      </trkpt>
      <trkpt lat="40.1906610" lon="-3.0142330">
        <ele>607.0</ele>
        <time>2019-07-07T11:10:04Z</time>
      </trkpt>
      <trkpt lat="40.1905330" lon="-3.0143310">
        <ele>607.8</ele>
        <time>2019-07-07T11:10:11Z</time>
      </trkpt>
      <trkpt lat="40.1904700" lon="-3.0143750">
        <ele>608.2</ele>
        <time>2019-07-07T11:10:13Z</time>
      </trkpt>
      <trkpt lat="40.1903500" lon="-3.0144570">
        <ele>609.2</ele>
        <time>2019-07-07T11:10:19Z</time>
      </trkpt>
      <trkpt lat="40.1903310" lon="-3.0144730">
        <ele>609.4</ele>
        <time>2019-07-07T11:10:21Z</time>
      </trkpt>
      <trkpt lat="40.1902890" lon="-3.0145020">
        <ele>610.2</ele>
        <time>2019-07-07T11:10:23Z</time>
      </trkpt>
      <trkpt lat="40.1902150" lon="-3.0145570">
        <ele>611.2</ele>
        <time>2019-07-07T11:10:26Z</time>
      </trkpt>
      <trkpt lat="40.1902150" lon="-3.0145570">
        <ele>611.4</ele>
        <time>2019-07-07T11:10:27Z</time>
      </trkpt>
      <trkpt lat="40.1901770" lon="-3.0145850">
        <ele>612.0</ele>
        <time>2019-07-07T11:10:29Z</time>
      </trkpt>
      <trkpt lat="40.1901220" lon="-3.0146230">
        <ele>612.4</ele>
        <time>2019-07-07T11:10:31Z</time>
      </trkpt>
      <trkpt lat="40.1900670" lon="-3.0146520">
        <ele>613.6</ele>
        <time>2019-07-07T11:10:35Z</time>
      </trkpt>
      <trkpt lat="40.1899890" lon="-3.0146850">
        <ele>614.6</ele>
        <time>2019-07-07T11:10:39Z</time>
      </trkpt>
      <trkpt lat="40.1897830" lon="-3.0147280">
        <ele>615.4</ele>
        <time>2019-07-07T11:10:46Z</time>
      </trkpt>
      <trkpt lat="40.1896680" lon="-3.0147570">
        <ele>615.8</ele>
        <time>2019-07-07T11:10:51Z</time>
      </trkpt>
      <trkpt lat="40.1894740" lon="-3.0148260">
        <ele>616.2</ele>
        <time>2019-07-07T11:10:56Z</time>
      </trkpt>
      <trkpt lat="40.1893310" lon="-3.0148740">
        <ele>617.0</ele>
        <time>2019-07-07T11:11:00Z</time>
      </trkpt>
      <trkpt lat="40.1892560" lon="-3.0148950">
        <ele>617.4</ele>
        <time>2019-07-07T11:11:03Z</time>
      </trkpt>
      <trkpt lat="40.1891770" lon="-3.0149320">
        <ele>617.8</ele>
        <time>2019-07-07T11:11:04Z</time>
      </trkpt>
      <trkpt lat="40.1890980" lon="-3.0149770">
        <ele>618.0</ele>
        <time>2019-07-07T11:11:06Z</time>
      </trkpt>
      <trkpt lat="40.1888230" lon="-3.0151540">
        <ele>618.2</ele>
        <time>2019-07-07T11:11:13Z</time>
      </trkpt>
      <trkpt lat="40.1887840" lon="-3.0151780">
        <ele>618.2</ele>
        <time>2019-07-07T11:11:14Z</time>
      </trkpt>
      <trkpt lat="40.1887010" lon="-3.0152300">
        <ele>618.0</ele>
        <time>2019-07-07T11:11:16Z</time>
      </trkpt>
      <trkpt lat="40.1886190" lon="-3.0152900">
        <ele>618.0</ele>
        <time>2019-07-07T11:11:18Z</time>
      </trkpt>
      <trkpt lat="40.1885320" lon="-3.0153400">
        <ele>618.2</ele>
        <time>2019-07-07T11:11:21Z</time>
      </trkpt>
      <trkpt lat="40.1884370" lon="-3.0153830">
        <ele>618.2</ele>
        <time>2019-07-07T11:11:22Z</time>
      </trkpt>
      <trkpt lat="40.1883400" lon="-3.0154230">
        <ele>618.2</ele>
        <time>2019-07-07T11:11:24Z</time>
      </trkpt>
      <trkpt lat="40.1882910" lon="-3.0154440">
        <ele>618.4</ele>
        <time>2019-07-07T11:11:25Z</time>
      </trkpt>
      <trkpt lat="40.1881960" lon="-3.0154890">
        <ele>618.4</ele>
        <time>2019-07-07T11:11:27Z</time>
      </trkpt>
      <trkpt lat="40.1880550" lon="-3.0155430">
        <ele>618.4</ele>
        <time>2019-07-07T11:11:30Z</time>
      </trkpt>
      <trkpt lat="40.1879580" lon="-3.0155690">
        <ele>618.2</ele>
        <time>2019-07-07T11:11:32Z</time>
      </trkpt>
      <trkpt lat="40.1878620" lon="-3.0156030">
        <ele>618.0</ele>
        <time>2019-07-07T11:11:35Z</time>
      </trkpt>
      <trkpt lat="40.1876290" lon="-3.0156820">
        <ele>618.4</ele>
        <time>2019-07-07T11:11:39Z</time>
      </trkpt>
      <trkpt lat="40.1872950" lon="-3.0157930">
        <ele>618.4</ele>
        <time>2019-07-07T11:11:46Z</time>
      </trkpt>
      <trkpt lat="40.1872950" lon="-3.0157930">
        <ele>618.6</ele>
        <time>2019-07-07T11:11:47Z</time>
      </trkpt>
      <trkpt lat="40.1870860" lon="-3.0158350">
        <ele>618.4</ele>
        <time>2019-07-07T11:11:50Z</time>
      </trkpt>
      <trkpt lat="40.1869900" lon="-3.0158840">
        <ele>618.6</ele>
        <time>2019-07-07T11:11:52Z</time>
      </trkpt>
      <trkpt lat="40.1868850" lon="-3.0159210">
        <ele>618.8</ele>
        <time>2019-07-07T11:11:54Z</time>
      </trkpt>
      <trkpt lat="40.1867330" lon="-3.0159710">
        <ele>619.0</ele>
        <time>2019-07-07T11:11:57Z</time>
      </trkpt>
      <trkpt lat="40.1866880" lon="-3.0159920">
        <ele>618.8</ele>
        <time>2019-07-07T11:11:58Z</time>
      </trkpt>
      <trkpt lat="40.1865990" lon="-3.0160320">
        <ele>618.4</ele>
        <time>2019-07-07T11:12:00Z</time>
      </trkpt>
      <trkpt lat="40.1863660" lon="-3.0161230">
        <ele>618.6</ele>
        <time>2019-07-07T11:12:05Z</time>
      </trkpt>
      <trkpt lat="40.1859840" lon="-3.0161430">
        <ele>618.4</ele>
        <time>2019-07-07T11:12:13Z</time>
      </trkpt>
      <trkpt lat="40.1856350" lon="-3.0160920">
        <ele>618.4</ele>
        <time>2019-07-07T11:12:20Z</time>
      </trkpt>
      <trkpt lat="40.1855870" lon="-3.0160970">
        <ele>618.4</ele>
        <time>2019-07-07T11:12:21Z</time>
      </trkpt>
      <trkpt lat="40.1855010" lon="-3.0162080">
        <ele>618.4</ele>
        <time>2019-07-07T11:12:24Z</time>
      </trkpt>
      <trkpt lat="40.1855020" lon="-3.0163710">
        <ele>618.8</ele>
        <time>2019-07-07T11:12:27Z</time>
      </trkpt>
      <trkpt lat="40.1855050" lon="-3.0164270">
        <ele>619.0</ele>
        <time>2019-07-07T11:12:28Z</time>
      </trkpt>
      <trkpt lat="40.1854980" lon="-3.0166000">
        <ele>619.2</ele>
        <time>2019-07-07T11:12:31Z</time>
      </trkpt>
      <trkpt lat="40.1854640" lon="-3.0167050">
        <ele>619.2</ele>
        <time>2019-07-07T11:12:33Z</time>
      </trkpt>
      <trkpt lat="40.1853740" lon="-3.0168350">
        <ele>619.2</ele>
        <time>2019-07-07T11:12:36Z</time>
      </trkpt>
      <trkpt lat="40.1853090" lon="-3.0169150">
        <ele>619.4</ele>
        <time>2019-07-07T11:12:38Z</time>
      </trkpt>
      <trkpt lat="40.1851750" lon="-3.0170540">
        <ele>619.6</ele>
        <time>2019-07-07T11:12:42Z</time>
      </trkpt>
      <trkpt lat="40.1850380" lon="-3.0171930">
        <ele>620.0</ele>
        <time>2019-07-07T11:12:46Z</time>
      </trkpt>
      <trkpt lat="40.1849660" lon="-3.0172610">
        <ele>620.4</ele>
        <time>2019-07-07T11:12:48Z</time>
      </trkpt>
      <trkpt lat="40.1846800" lon="-3.0175370">
        <ele>621.0</ele>
        <time>2019-07-07T11:12:56Z</time>
      </trkpt>
      <trkpt lat="40.1846440" lon="-3.0175660">
        <ele>621.6</ele>
        <time>2019-07-07T11:12:57Z</time>
      </trkpt>
      <trkpt lat="40.1846070" lon="-3.0175920">
        <ele>621.8</ele>
        <time>2019-07-07T11:12:58Z</time>
      </trkpt>
      <trkpt lat="40.1844110" lon="-3.0176800">
        <ele>621.8</ele>
        <time>2019-07-07T11:13:03Z</time>
      </trkpt>
      <trkpt lat="40.1842340" lon="-3.0177070">
        <ele>623.0</ele>
        <time>2019-07-07T11:13:07Z</time>
      </trkpt>
      <trkpt lat="40.1841420" lon="-3.0177190">
        <ele>623.8</ele>
        <time>2019-07-07T11:13:09Z</time>
      </trkpt>
      <trkpt lat="40.1840940" lon="-3.0177270">
        <ele>623.6</ele>
        <time>2019-07-07T11:13:10Z</time>
      </trkpt>
      <trkpt lat="40.1839480" lon="-3.0177410">
        <ele>622.8</ele>
        <time>2019-07-07T11:13:13Z</time>
      </trkpt>
      <trkpt lat="40.1838500" lon="-3.0177540">
        <ele>622.6</ele>
        <time>2019-07-07T11:13:15Z</time>
      </trkpt>
      <trkpt lat="40.1838010" lon="-3.0177650">
        <ele>622.4</ele>
        <time>2019-07-07T11:13:16Z</time>
      </trkpt>
      <trkpt lat="40.1836040" lon="-3.0177930">
        <ele>622.6</ele>
        <time>2019-07-07T11:13:20Z</time>
      </trkpt>
      <trkpt lat="40.1835060" lon="-3.0178100">
        <ele>622.6</ele>
        <time>2019-07-07T11:13:22Z</time>
      </trkpt>
      <trkpt lat="40.1831300" lon="-3.0178690">
        <ele>623.4</ele>
        <time>2019-07-07T11:13:30Z</time>
      </trkpt>
      <trkpt lat="40.1830820" lon="-3.0178690">
        <ele>623.6</ele>
        <time>2019-07-07T11:13:31Z</time>
      </trkpt>
      <trkpt lat="40.1827010" lon="-3.0178730">
        <ele>623.8</ele>
        <time>2019-07-07T11:13:39Z</time>
      </trkpt>
      <trkpt lat="40.1826550" lon="-3.0178730">
        <ele>623.8</ele>
        <time>2019-07-07T11:13:40Z</time>
      </trkpt>
      <trkpt lat="40.1824310" lon="-3.0178740">
        <ele>623.8</ele>
        <time>2019-07-07T11:13:45Z</time>
      </trkpt>
      <trkpt lat="40.1822990" lon="-3.0178800">
        <ele>624.0</ele>
        <time>2019-07-07T11:13:48Z</time>
      </trkpt>
      <trkpt lat="40.1821270" lon="-3.0179010">
        <ele>624.6</ele>
        <time>2019-07-07T11:13:52Z</time>
      </trkpt>
      <trkpt lat="40.1820840" lon="-3.0179030">
        <ele>624.8</ele>
        <time>2019-07-07T11:13:53Z</time>
      </trkpt>
      <trkpt lat="40.1820010" lon="-3.0179100">
        <ele>625.2</ele>
        <time>2019-07-07T11:13:55Z</time>
      </trkpt>
      <trkpt lat="40.1817540" lon="-3.0179320">
        <ele>625.8</ele>
        <time>2019-07-07T11:14:01Z</time>
      </trkpt>
      <trkpt lat="40.1814230" lon="-3.0179470">
        <ele>626.4</ele>
        <time>2019-07-07T11:14:09Z</time>
      </trkpt>
      <trkpt lat="40.1813820" lon="-3.0179520">
        <ele>626.6</ele>
        <time>2019-07-07T11:14:10Z</time>
      </trkpt>
      <trkpt lat="40.1810990" lon="-3.0179850">
        <ele>627.0</ele>
        <time>2019-07-07T11:14:17Z</time>
      </trkpt>
      <trkpt lat="40.1809880" lon="-3.0179960">
        <ele>627.4</ele>
        <time>2019-07-07T11:14:20Z</time>
      </trkpt>
      <trkpt lat="40.1808470" lon="-3.0180110">
        <ele>628.6</ele>
        <time>2019-07-07T11:14:24Z</time>
      </trkpt>
      <trkpt lat="40.1806490" lon="-3.0180460">
        <ele>629.0</ele>
        <time>2019-07-07T11:14:30Z</time>
      </trkpt>
      <trkpt lat="40.1805540" lon="-3.0180500">
        <ele>630.0</ele>
        <time>2019-07-07T11:14:33Z</time>
      </trkpt>
      <trkpt lat="40.1803220" lon="-3.0180650">
        <ele>630.8</ele>
        <time>2019-07-07T11:14:40Z</time>
      </trkpt>
      <trkpt lat="40.1802890" lon="-3.0180660">
        <ele>630.8</ele>
        <time>2019-07-07T11:14:41Z</time>
      </trkpt>
      <trkpt lat="40.1802270" lon="-3.0180700">
        <ele>631.0</ele>
        <time>2019-07-07T11:14:43Z</time>
      </trkpt>
      <trkpt lat="40.1800660" lon="-3.0180930">
        <ele>632.2</ele>
        <time>2019-07-07T11:14:48Z</time>
      </trkpt>
      <trkpt lat="40.1800010" lon="-3.0181080">
        <ele>632.6</ele>
        <time>2019-07-07T11:14:50Z</time>
      </trkpt>
      <trkpt lat="40.1799360" lon="-3.0181230">
        <ele>633.2</ele>
        <time>2019-07-07T11:14:52Z</time>
      </trkpt>
      <trkpt lat="40.1797400" lon="-3.0181860">
        <ele>634.0</ele>
        <time>2019-07-07T11:14:58Z</time>
      </trkpt>
      <trkpt lat="40.1795680" lon="-3.0182330">
        <ele>634.2</ele>
        <time>2019-07-07T11:15:03Z</time>
      </trkpt>
      <trkpt lat="40.1794680" lon="-3.0182750">
        <ele>634.8</ele>
        <time>2019-07-07T11:15:06Z</time>
      </trkpt>
      <trkpt lat="40.1792840" lon="-3.0184080">
        <ele>635.2</ele>
        <time>2019-07-07T11:15:12Z</time>
      </trkpt>
      <trkpt lat="40.1792210" lon="-3.0184540">
        <ele>635.6</ele>
        <time>2019-07-07T11:15:14Z</time>
      </trkpt>
      <trkpt lat="40.1789540" lon="-3.0186290">
        <ele>636.4</ele>
        <time>2019-07-07T11:15:21Z</time>
      </trkpt>
      <trkpt lat="40.1785530" lon="-3.0188650">
        <ele>636.8</ele>
        <time>2019-07-07T11:15:30Z</time>
      </trkpt>
      <trkpt lat="40.1783530" lon="-3.0189710">
        <ele>636.6</ele>
        <time>2019-07-07T11:15:34Z</time>
      </trkpt>
      <trkpt lat="40.1781900" lon="-3.0190320">
        <ele>635.8</ele>
        <time>2019-07-07T11:15:37Z</time>
      </trkpt>
      <trkpt lat="40.1780720" lon="-3.0190530">
        <ele>635.6</ele>
        <time>2019-07-07T11:15:39Z</time>
      </trkpt>
      <trkpt lat="40.1779550" lon="-3.0190420">
        <ele>635.2</ele>
        <time>2019-07-07T11:15:41Z</time>
      </trkpt>
      <trkpt lat="40.1778980" lon="-3.0190210">
        <ele>634.8</ele>
        <time>2019-07-07T11:15:42Z</time>
      </trkpt>
      <trkpt lat="40.1777900" lon="-3.0189580">
        <ele>634.4</ele>
        <time>2019-07-07T11:15:44Z</time>
      </trkpt>
      <trkpt lat="40.1776840" lon="-3.0188860">
        <ele>634.4</ele>
        <time>2019-07-07T11:15:46Z</time>
      </trkpt>
      <trkpt lat="40.1775850" lon="-3.0188100">
        <ele>634.2</ele>
        <time>2019-07-07T11:15:48Z</time>
      </trkpt>
      <trkpt lat="40.1774410" lon="-3.0186940">
        <ele>634.8</ele>
        <time>2019-07-07T11:15:51Z</time>
      </trkpt>
      <trkpt lat="40.1773400" lon="-3.0186390">
        <ele>634.6</ele>
        <time>2019-07-07T11:15:53Z</time>
      </trkpt>
      <trkpt lat="40.1772410" lon="-3.0185790">
        <ele>634.4</ele>
        <time>2019-07-07T11:15:55Z</time>
      </trkpt>
      <trkpt lat="40.1770960" lon="-3.0184930">
        <ele>634.0</ele>
        <time>2019-07-07T11:15:58Z</time>
      </trkpt>
      <trkpt lat="40.1768730" lon="-3.0183630">
        <ele>634.4</ele>
        <time>2019-07-07T11:16:03Z</time>
      </trkpt>
      <trkpt lat="40.1767940" lon="-3.0183160">
        <ele>634.6</ele>
        <time>2019-07-07T11:16:05Z</time>
      </trkpt>
      <trkpt lat="40.1765910" lon="-3.0182070">
        <ele>635.6</ele>
        <time>2019-07-07T11:16:11Z</time>
      </trkpt>
      <trkpt lat="40.1765660" lon="-3.0182000">
        <ele>635.8</ele>
        <time>2019-07-07T11:16:12Z</time>
      </trkpt>
      <trkpt lat="40.1765450" lon="-3.0182020">
        <ele>636.0</ele>
        <time>2019-07-07T11:16:13Z</time>
      </trkpt>
      <trkpt lat="40.1765100" lon="-3.0182460">
        <ele>636.4</ele>
        <time>2019-07-07T11:16:15Z</time>
      </trkpt>
      <trkpt lat="40.1764760" lon="-3.0183260">
        <ele>636.6</ele>
        <time>2019-07-07T11:16:17Z</time>
      </trkpt>
      <trkpt lat="40.1764590" lon="-3.0183720">
        <ele>636.6</ele>
        <time>2019-07-07T11:16:18Z</time>
      </trkpt>
      <trkpt lat="40.1764120" lon="-3.0184720">
        <ele>636.6</ele>
        <time>2019-07-07T11:16:20Z</time>
      </trkpt>
      <trkpt lat="40.1762440" lon="-3.0188430">
        <ele>635.8</ele>
        <time>2019-07-07T11:16:26Z</time>
      </trkpt>
      <trkpt lat="40.1761850" lon="-3.0189870">
        <ele>635.6</ele>
        <time>2019-07-07T11:16:28Z</time>
      </trkpt>
      <trkpt lat="40.1759820" lon="-3.0194560">
        <ele>634.8</ele>
        <time>2019-07-07T11:16:34Z</time>
      </trkpt>
      <trkpt lat="40.1759450" lon="-3.0195370">
        <ele>634.6</ele>
        <time>2019-07-07T11:16:35Z</time>
      </trkpt>
      <trkpt lat="40.1757220" lon="-3.0200060">
        <ele>634.0</ele>
        <time>2019-07-07T11:16:41Z</time>
      </trkpt>
      <trkpt lat="40.1756250" lon="-3.0202250">
        <ele>633.8</ele>
        <time>2019-07-07T11:16:44Z</time>
      </trkpt>
      <trkpt lat="40.1753800" lon="-3.0207890">
        <ele>634.2</ele>
        <time>2019-07-07T11:16:52Z</time>
      </trkpt>
      <trkpt lat="40.1751350" lon="-3.0213300">
        <ele>634.6</ele>
        <time>2019-07-07T11:17:00Z</time>
      </trkpt>
      <trkpt lat="40.1751030" lon="-3.0213900">
        <ele>634.6</ele>
        <time>2019-07-07T11:17:01Z</time>
      </trkpt>
      <trkpt lat="40.1749630" lon="-3.0215910">
        <ele>634.6</ele>
        <time>2019-07-07T11:17:05Z</time>
      </trkpt>
      <trkpt lat="40.1746700" lon="-3.0218700">
        <ele>634.6</ele>
        <time>2019-07-07T11:17:12Z</time>
      </trkpt>
      <trkpt lat="40.1745720" lon="-3.0219580">
        <ele>634.6</ele>
        <time>2019-07-07T11:17:14Z</time>
      </trkpt>
      <trkpt lat="40.1744660" lon="-3.0220500">
        <ele>634.4</ele>
        <time>2019-07-07T11:17:16Z</time>
      </trkpt>
      <trkpt lat="40.1742940" lon="-3.0221860">
        <ele>633.8</ele>
        <time>2019-07-07T11:17:19Z</time>
      </trkpt>
      <trkpt lat="40.1742360" lon="-3.0222310">
        <ele>633.6</ele>
        <time>2019-07-07T11:17:20Z</time>
      </trkpt>
      <trkpt lat="40.1739610" lon="-3.0224780">
        <ele>632.6</ele>
        <time>2019-07-07T11:17:25Z</time>
      </trkpt>
      <trkpt lat="40.1739060" lon="-3.0225240">
        <ele>632.6</ele>
        <time>2019-07-07T11:17:26Z</time>
      </trkpt>
      <trkpt lat="40.1738530" lon="-3.0225690">
        <ele>632.4</ele>
        <time>2019-07-07T11:17:27Z</time>
      </trkpt>
      <trkpt lat="40.1735910" lon="-3.0228080">
        <ele>631.8</ele>
        <time>2019-07-07T11:17:32Z</time>
      </trkpt>
      <trkpt lat="40.1734290" lon="-3.0229440">
        <ele>631.4</ele>
        <time>2019-07-07T11:17:35Z</time>
      </trkpt>
      <trkpt lat="40.1733210" lon="-3.0230380">
        <ele>631.4</ele>
        <time>2019-07-07T11:17:37Z</time>
      </trkpt>
      <trkpt lat="40.1731660" lon="-3.0232060">
        <ele>631.4</ele>
        <time>2019-07-07T11:17:40Z</time>
      </trkpt>
      <trkpt lat="40.1730800" lon="-3.0233480">
        <ele>631.2</ele>
        <time>2019-07-07T11:17:42Z</time>
      </trkpt>
      <trkpt lat="40.1729770" lon="-3.0236720">
        <ele>630.4</ele>
        <time>2019-07-07T11:17:46Z</time>
      </trkpt>
      <trkpt lat="40.1729600" lon="-3.0237570">
        <ele>630.4</ele>
        <time>2019-07-07T11:17:47Z</time>
      </trkpt>
      <trkpt lat="40.1728660" lon="-3.0242760">
        <ele>630.0</ele>
        <time>2019-07-07T11:17:53Z</time>
      </trkpt>
      <trkpt lat="40.1728200" lon="-3.0245410">
        <ele>630.0</ele>
        <time>2019-07-07T11:17:56Z</time>
      </trkpt>
      <trkpt lat="40.1728050" lon="-3.0247360">
        <ele>629.8</ele>
        <time>2019-07-07T11:17:58Z</time>
      </trkpt>
      <trkpt lat="40.1727890" lon="-3.0249460">
        <ele>629.2</ele>
        <time>2019-07-07T11:18:00Z</time>
      </trkpt>
      <trkpt lat="40.1727680" lon="-3.0251690">
        <ele>628.2</ele>
        <time>2019-07-07T11:18:02Z</time>
      </trkpt>
      <trkpt lat="40.1727550" lon="-3.0252850">
        <ele>627.8</ele>
        <time>2019-07-07T11:18:03Z</time>
      </trkpt>
      <trkpt lat="40.1727170" lon="-3.0256500">
        <ele>626.6</ele>
        <time>2019-07-07T11:18:06Z</time>
      </trkpt>
      <trkpt lat="40.1726910" lon="-3.0259070">
        <ele>625.6</ele>
        <time>2019-07-07T11:18:08Z</time>
      </trkpt>
      <trkpt lat="40.1726760" lon="-3.0260380">
        <ele>625.4</ele>
        <time>2019-07-07T11:18:09Z</time>
      </trkpt>
      <trkpt lat="40.1726440" lon="-3.0263070">
        <ele>624.0</ele>
        <time>2019-07-07T11:18:11Z</time>
      </trkpt>
      <trkpt lat="40.1725780" lon="-3.0267200">
        <ele>622.4</ele>
        <time>2019-07-07T11:18:14Z</time>
      </trkpt>
      <trkpt lat="40.1725550" lon="-3.0268620">
        <ele>621.8</ele>
        <time>2019-07-07T11:18:15Z</time>
      </trkpt>
      <trkpt lat="40.1725310" lon="-3.0270040">
        <ele>620.8</ele>
        <time>2019-07-07T11:18:16Z</time>
      </trkpt>
      <trkpt lat="40.1725070" lon="-3.0271470">
        <ele>620.2</ele>
        <time>2019-07-07T11:18:17Z</time>
      </trkpt>
      <trkpt lat="40.1724540" lon="-3.0274320">
        <ele>619.4</ele>
        <time>2019-07-07T11:18:19Z</time>
      </trkpt>
      <trkpt lat="40.1723700" lon="-3.0278520">
        <ele>617.8</ele>
        <time>2019-07-07T11:18:22Z</time>
      </trkpt>
      <trkpt lat="40.1723240" lon="-3.0281280">
        <ele>616.4</ele>
        <time>2019-07-07T11:18:24Z</time>
      </trkpt>
      <trkpt lat="40.1722450" lon="-3.0285270">
        <ele>615.0</ele>
        <time>2019-07-07T11:18:27Z</time>
      </trkpt>
      <trkpt lat="40.1721650" lon="-3.0289160">
        <ele>613.4</ele>
        <time>2019-07-07T11:18:30Z</time>
      </trkpt>
      <trkpt lat="40.1721450" lon="-3.0290450">
        <ele>613.0</ele>
        <time>2019-07-07T11:18:31Z</time>
      </trkpt>
      <trkpt lat="40.1721260" lon="-3.0291710">
        <ele>612.6</ele>
        <time>2019-07-07T11:18:32Z</time>
      </trkpt>
      <trkpt lat="40.1720500" lon="-3.0296590">
        <ele>611.4</ele>
        <time>2019-07-07T11:18:36Z</time>
      </trkpt>
      <trkpt lat="40.1719890" lon="-3.0300060">
        <ele>610.8</ele>
        <time>2019-07-07T11:18:39Z</time>
      </trkpt>
      <trkpt lat="40.1719480" lon="-3.0302290">
        <ele>610.2</ele>
        <time>2019-07-07T11:18:41Z</time>
      </trkpt>
      <trkpt lat="40.1718710" lon="-3.0306620">
        <ele>609.4</ele>
        <time>2019-07-07T11:18:45Z</time>
      </trkpt>
      <trkpt lat="40.1718510" lon="-3.0307680">
        <ele>609.2</ele>
        <time>2019-07-07T11:18:46Z</time>
      </trkpt>
      <trkpt lat="40.1717930" lon="-3.0310910">
        <ele>608.6</ele>
        <time>2019-07-07T11:18:49Z</time>
      </trkpt>
      <trkpt lat="40.1717370" lon="-3.0314150">
        <ele>608.0</ele>
        <time>2019-07-07T11:18:52Z</time>
      </trkpt>
      <trkpt lat="40.1716440" lon="-3.0319390">
        <ele>607.2</ele>
        <time>2019-07-07T11:18:57Z</time>
      </trkpt>
      <trkpt lat="40.1715940" lon="-3.0323380">
        <ele>607.0</ele>
        <time>2019-07-07T11:19:01Z</time>
      </trkpt>
      <trkpt lat="40.1715920" lon="-3.0325350">
        <ele>606.8</ele>
        <time>2019-07-07T11:19:03Z</time>
      </trkpt>
      <trkpt lat="40.1716300" lon="-3.0328090">
        <ele>606.6</ele>
        <time>2019-07-07T11:19:06Z</time>
      </trkpt>
      <trkpt lat="40.1716540" lon="-3.0328930">
        <ele>606.6</ele>
        <time>2019-07-07T11:19:07Z</time>
      </trkpt>
      <trkpt lat="40.1717300" lon="-3.0331390">
        <ele>606.8</ele>
        <time>2019-07-07T11:19:10Z</time>
      </trkpt>
      <trkpt lat="40.1719100" lon="-3.0337030">
        <ele>606.6</ele>
        <time>2019-07-07T11:19:17Z</time>
      </trkpt>
      <trkpt lat="40.1721310" lon="-3.0344000">
        <ele>607.0</ele>
        <time>2019-07-07T11:19:26Z</time>
      </trkpt>
      <trkpt lat="40.1722060" lon="-3.0346310">
        <ele>607.0</ele>
        <time>2019-07-07T11:19:29Z</time>
      </trkpt>
      <trkpt lat="40.1722800" lon="-3.0348540">
        <ele>607.2</ele>
        <time>2019-07-07T11:19:32Z</time>
      </trkpt>
      <trkpt lat="40.1723250" lon="-3.0350010">
        <ele>607.2</ele>
        <time>2019-07-07T11:19:34Z</time>
      </trkpt>
      <trkpt lat="40.1724360" lon="-3.0353600">
        <ele>606.8</ele>
        <time>2019-07-07T11:19:39Z</time>
      </trkpt>
      <trkpt lat="40.1724980" lon="-3.0355740">
        <ele>606.8</ele>
        <time>2019-07-07T11:19:42Z</time>
      </trkpt>
      <trkpt lat="40.1727220" lon="-3.0362700">
        <ele>606.4</ele>
        <time>2019-07-07T11:19:52Z</time>
      </trkpt>
      <trkpt lat="40.1728070" lon="-3.0365450">
        <ele>606.2</ele>
        <time>2019-07-07T11:19:56Z</time>
      </trkpt>
      <trkpt lat="40.1729080" lon="-3.0368920">
        <ele>606.2</ele>
        <time>2019-07-07T11:20:01Z</time>
      </trkpt>
      <trkpt lat="40.1730640" lon="-3.0373910">
        <ele>605.6</ele>
        <time>2019-07-07T11:20:08Z</time>
      </trkpt>
      <trkpt lat="40.1730860" lon="-3.0374620">
        <ele>605.6</ele>
        <time>2019-07-07T11:20:09Z</time>
      </trkpt>
      <trkpt lat="40.1731940" lon="-3.0378080">
        <ele>605.6</ele>
        <time>2019-07-07T11:20:14Z</time>
      </trkpt>
      <trkpt lat="40.1732040" lon="-3.0379350">
        <ele>605.4</ele>
        <time>2019-07-07T11:20:16Z</time>
      </trkpt>
      <trkpt lat="40.1731220" lon="-3.0380460">
        <ele>605.4</ele>
        <time>2019-07-07T11:20:19Z</time>
      </trkpt>
      <trkpt lat="40.1729330" lon="-3.0380790">
        <ele>605.6</ele>
        <time>2019-07-07T11:20:24Z</time>
      </trkpt>
      <trkpt lat="40.1728230" lon="-3.0379980">
        <ele>606.0</ele>
        <time>2019-07-07T11:20:27Z</time>
      </trkpt>
      <trkpt lat="40.1727870" lon="-3.0379610">
        <ele>606.0</ele>
        <time>2019-07-07T11:20:28Z</time>
      </trkpt>
      <trkpt lat="40.1725720" lon="-3.0377230">
        <ele>605.8</ele>
        <time>2019-07-07T11:20:34Z</time>
      </trkpt>
      <trkpt lat="40.1725090" lon="-3.0376420">
        <ele>606.0</ele>
        <time>2019-07-07T11:20:36Z</time>
      </trkpt>
      <trkpt lat="40.1724050" lon="-3.0375270">
        <ele>606.4</ele>
        <time>2019-07-07T11:20:39Z</time>
      </trkpt>
      <trkpt lat="40.1722640" lon="-3.0373650">
        <ele>606.6</ele>
        <time>2019-07-07T11:20:43Z</time>
      </trkpt>
      <trkpt lat="40.1720720" lon="-3.0371300">
        <ele>606.8</ele>
        <time>2019-07-07T11:20:49Z</time>
      </trkpt>
      <trkpt lat="40.1720020" lon="-3.0370600">
        <ele>607.2</ele>
        <time>2019-07-07T11:20:51Z</time>
      </trkpt>
      <trkpt lat="40.1719340" lon="-3.0369900">
        <ele>607.4</ele>
        <time>2019-07-07T11:20:53Z</time>
      </trkpt>
      <trkpt lat="40.1717580" lon="-3.0368130">
        <ele>607.6</ele>
        <time>2019-07-07T11:20:58Z</time>
      </trkpt>
      <trkpt lat="40.1717220" lon="-3.0367750">
        <ele>607.6</ele>
        <time>2019-07-07T11:20:59Z</time>
      </trkpt>
      <trkpt lat="40.1715830" lon="-3.0366140">
        <ele>608.0</ele>
        <time>2019-07-07T11:21:03Z</time>
      </trkpt>
      <trkpt lat="40.1714310" lon="-3.0364580">
        <ele>608.6</ele>
        <time>2019-07-07T11:21:07Z</time>
      </trkpt>
      <trkpt lat="40.1710870" lon="-3.0360620">
        <ele>608.8</ele>
        <time>2019-07-07T11:21:16Z</time>
      </trkpt>
      <trkpt lat="40.1708970" lon="-3.0358510">
        <ele>609.0</ele>
        <time>2019-07-07T11:21:21Z</time>
      </trkpt>
      <trkpt lat="40.1707820" lon="-3.0357320">
        <ele>609.0</ele>
        <time>2019-07-07T11:21:24Z</time>
      </trkpt>
      <trkpt lat="40.1705690" lon="-3.0354810">
        <ele>609.8</ele>
        <time>2019-07-07T11:21:30Z</time>
      </trkpt>
      <trkpt lat="40.1704580" lon="-3.0353640">
        <ele>610.0</ele>
        <time>2019-07-07T11:21:33Z</time>
      </trkpt>
      <trkpt lat="40.1703110" lon="-3.0352100">
        <ele>610.0</ele>
        <time>2019-07-07T11:21:37Z</time>
      </trkpt>
      <trkpt lat="40.1702000" lon="-3.0350890">
        <ele>610.2</ele>
        <time>2019-07-07T11:21:40Z</time>
      </trkpt>
      <trkpt lat="40.1701670" lon="-3.0350440">
        <ele>610.4</ele>
        <time>2019-07-07T11:21:41Z</time>
      </trkpt>
      <trkpt lat="40.1699440" lon="-3.0348020">
        <ele>610.8</ele>
        <time>2019-07-07T11:21:47Z</time>
      </trkpt>
      <trkpt lat="40.1699050" lon="-3.0347620">
        <ele>610.8</ele>
        <time>2019-07-07T11:21:48Z</time>
      </trkpt>
      <trkpt lat="40.1696110" lon="-3.0344480">
        <ele>611.6</ele>
        <time>2019-07-07T11:21:56Z</time>
      </trkpt>
      <trkpt lat="40.1695730" lon="-3.0344120">
        <ele>611.8</ele>
        <time>2019-07-07T11:21:57Z</time>
      </trkpt>
      <trkpt lat="40.1695370" lon="-3.0343730">
        <ele>611.8</ele>
        <time>2019-07-07T11:21:58Z</time>
      </trkpt>
      <trkpt lat="40.1694980" lon="-3.0343380">
        <ele>612.0</ele>
        <time>2019-07-07T11:21:59Z</time>
      </trkpt>
      <trkpt lat="40.1694140" lon="-3.0342940">
        <ele>612.2</ele>
        <time>2019-07-07T11:22:01Z</time>
      </trkpt>
      <trkpt lat="40.1692800" lon="-3.0342500">
        <ele>612.4</ele>
        <time>2019-07-07T11:22:04Z</time>
      </trkpt>
      <trkpt lat="40.1691020" lon="-3.0342280">
        <ele>613.0</ele>
        <time>2019-07-07T11:22:08Z</time>
      </trkpt>
      <trkpt lat="40.1689710" lon="-3.0341940">
        <ele>613.6</ele>
        <time>2019-07-07T11:22:11Z</time>
      </trkpt>
      <trkpt lat="40.1688890" lon="-3.0341840">
        <ele>614.2</ele>
        <time>2019-07-07T11:22:13Z</time>
      </trkpt>
      <trkpt lat="40.1688080" lon="-3.0341680">
        <ele>614.6</ele>
        <time>2019-07-07T11:22:15Z</time>
      </trkpt>
      <trkpt lat="40.1686410" lon="-3.0341290">
        <ele>615.2</ele>
        <time>2019-07-07T11:22:19Z</time>
      </trkpt>
      <trkpt lat="40.1685590" lon="-3.0341110">
        <ele>615.4</ele>
        <time>2019-07-07T11:22:21Z</time>
      </trkpt>
      <trkpt lat="40.1685180" lon="-3.0340970">
        <ele>615.6</ele>
        <time>2019-07-07T11:22:22Z</time>
      </trkpt>
      <trkpt lat="40.1683570" lon="-3.0340580">
        <ele>616.4</ele>
        <time>2019-07-07T11:22:26Z</time>
      </trkpt>
      <trkpt lat="40.1681960" lon="-3.0340190">
        <ele>617.2</ele>
        <time>2019-07-07T11:22:30Z</time>
      </trkpt>
      <trkpt lat="40.1681570" lon="-3.0340150">
        <ele>617.4</ele>
        <time>2019-07-07T11:22:31Z</time>
      </trkpt>
      <trkpt lat="40.1679990" lon="-3.0339770">
        <ele>618.6</ele>
        <time>2019-07-07T11:22:35Z</time>
      </trkpt>
      <trkpt lat="40.1679200" lon="-3.0339610">
        <ele>618.8</ele>
        <time>2019-07-07T11:22:37Z</time>
      </trkpt>
      <trkpt lat="40.1677290" lon="-3.0339380">
        <ele>619.6</ele>
        <time>2019-07-07T11:22:42Z</time>
      </trkpt>
      <trkpt lat="40.1676120" lon="-3.0339090">
        <ele>620.0</ele>
        <time>2019-07-07T11:22:45Z</time>
      </trkpt>
      <trkpt lat="40.1674600" lon="-3.0338720">
        <ele>620.8</ele>
        <time>2019-07-07T11:22:49Z</time>
      </trkpt>
      <trkpt lat="40.1673100" lon="-3.0338300">
        <ele>621.8</ele>
        <time>2019-07-07T11:22:53Z</time>
      </trkpt>
      <trkpt lat="40.1672720" lon="-3.0338220">
        <ele>622.2</ele>
        <time>2019-07-07T11:22:54Z</time>
      </trkpt>
      <trkpt lat="40.1671630" lon="-3.0337970">
        <ele>623.2</ele>
        <time>2019-07-07T11:22:57Z</time>
      </trkpt>
      <trkpt lat="40.1670190" lon="-3.0337740">
        <ele>623.8</ele>
        <time>2019-07-07T11:23:01Z</time>
      </trkpt>
      <trkpt lat="40.1669460" lon="-3.0337680">
        <ele>624.2</ele>
        <time>2019-07-07T11:23:03Z</time>
      </trkpt>
      <trkpt lat="40.1667510" lon="-3.0337890">
        <ele>625.4</ele>
        <time>2019-07-07T11:23:08Z</time>
      </trkpt>
      <trkpt lat="40.1665520" lon="-3.0338450">
        <ele>626.4</ele>
        <time>2019-07-07T11:23:13Z</time>
      </trkpt>
      <trkpt lat="40.1663890" lon="-3.0339040">
        <ele>627.2</ele>
        <time>2019-07-07T11:23:17Z</time>
      </trkpt>
      <trkpt lat="40.1663460" lon="-3.0339170">
        <ele>627.4</ele>
        <time>2019-07-07T11:23:18Z</time>
      </trkpt>
      <trkpt lat="40.1660910" lon="-3.0340080">
        <ele>627.8</ele>
        <time>2019-07-07T11:23:24Z</time>
      </trkpt>
      <trkpt lat="40.1657040" lon="-3.0340960">
        <ele>628.0</ele>
        <time>2019-07-07T11:23:32Z</time>
      </trkpt>
      <trkpt lat="40.1654390" lon="-3.0341270">
        <ele>628.6</ele>
        <time>2019-07-07T11:23:38Z</time>
      </trkpt>
      <trkpt lat="40.1653980" lon="-3.0341320">
        <ele>628.8</ele>
        <time>2019-07-07T11:23:39Z</time>
      </trkpt>
      <trkpt lat="40.1653570" lon="-3.0341410">
        <ele>629.2</ele>
        <time>2019-07-07T11:23:40Z</time>
      </trkpt>
      <trkpt lat="40.1652760" lon="-3.0341610">
        <ele>629.8</ele>
        <time>2019-07-07T11:23:42Z</time>
      </trkpt>
      <trkpt lat="40.1652360" lon="-3.0341730">
        <ele>630.0</ele>
        <time>2019-07-07T11:23:43Z</time>
      </trkpt>
      <trkpt lat="40.1650710" lon="-3.0342480">
        <ele>631.0</ele>
        <time>2019-07-07T11:23:47Z</time>
      </trkpt>
      <trkpt lat="40.1650300" lon="-3.0342690">
        <ele>631.0</ele>
        <time>2019-07-07T11:23:48Z</time>
      </trkpt>
      <trkpt lat="40.1647680" lon="-3.0343890">
        <ele>631.2</ele>
        <time>2019-07-07T11:23:54Z</time>
      </trkpt>
      <trkpt lat="40.1647190" lon="-3.0344030">
        <ele>631.0</ele>
        <time>2019-07-07T11:23:55Z</time>
      </trkpt>
      <trkpt lat="40.1642910" lon="-3.0344790">
        <ele>630.8</ele>
        <time>2019-07-07T11:24:03Z</time>
      </trkpt>
      <trkpt lat="40.1638530" lon="-3.0344650">
        <ele>630.6</ele>
        <time>2019-07-07T11:24:10Z</time>
      </trkpt>
      <trkpt lat="40.1636400" lon="-3.0344470">
        <ele>631.2</ele>
        <time>2019-07-07T11:24:14Z</time>
      </trkpt>
      <trkpt lat="40.1635480" lon="-3.0344400">
        <ele>631.4</ele>
        <time>2019-07-07T11:24:16Z</time>
      </trkpt>
      <trkpt lat="40.1635050" lon="-3.0344340">
        <ele>631.8</ele>
        <time>2019-07-07T11:24:17Z</time>
      </trkpt>
      <trkpt lat="40.1634160" lon="-3.0344180">
        <ele>632.2</ele>
        <time>2019-07-07T11:24:19Z</time>
      </trkpt>
      <trkpt lat="40.1632850" lon="-3.0344030">
        <ele>633.0</ele>
        <time>2019-07-07T11:24:22Z</time>
      </trkpt>
      <trkpt lat="40.1632400" lon="-3.0344010">
        <ele>633.2</ele>
        <time>2019-07-07T11:24:23Z</time>
      </trkpt>
      <trkpt lat="40.1631040" lon="-3.0343980">
        <ele>634.4</ele>
        <time>2019-07-07T11:24:26Z</time>
      </trkpt>
      <trkpt lat="40.1629170" lon="-3.0343870">
        <ele>635.2</ele>
        <time>2019-07-07T11:24:30Z</time>
      </trkpt>
      <trkpt lat="40.1628710" lon="-3.0343830">
        <ele>635.2</ele>
        <time>2019-07-07T11:24:31Z</time>
      </trkpt>
      <trkpt lat="40.1627760" lon="-3.0343780">
        <ele>635.4</ele>
        <time>2019-07-07T11:24:33Z</time>
      </trkpt>
      <trkpt lat="40.1624840" lon="-3.0343660">
        <ele>635.4</ele>
        <time>2019-07-07T11:24:38Z</time>
      </trkpt>
      <trkpt lat="40.1620310" lon="-3.0343110">
        <ele>634.6</ele>
        <time>2019-07-07T11:24:45Z</time>
      </trkpt>
      <trkpt lat="40.1617220" lon="-3.0342820">
        <ele>634.8</ele>
        <time>2019-07-07T11:24:50Z</time>
      </trkpt>
      <trkpt lat="40.1616090" lon="-3.0342560">
        <ele>635.0</ele>
        <time>2019-07-07T11:24:52Z</time>
      </trkpt>
      <trkpt lat="40.1612270" lon="-3.0342110">
        <ele>635.8</ele>
        <time>2019-07-07T11:24:59Z</time>
      </trkpt>
      <trkpt lat="40.1610770" lon="-3.0341860">
        <ele>636.0</ele>
        <time>2019-07-07T11:25:02Z</time>
      </trkpt>
      <trkpt lat="40.1609450" lon="-3.0341370">
        <ele>636.8</ele>
        <time>2019-07-07T11:25:05Z</time>
      </trkpt>
      <trkpt lat="40.1608010" lon="-3.0340970">
        <ele>637.4</ele>
        <time>2019-07-07T11:25:08Z</time>
      </trkpt>
      <trkpt lat="40.1606160" lon="-3.0340730">
        <ele>638.0</ele>
        <time>2019-07-07T11:25:12Z</time>
      </trkpt>
      <trkpt lat="40.1604470" lon="-3.0340840">
        <ele>638.6</ele>
        <time>2019-07-07T11:25:16Z</time>
      </trkpt>
      <trkpt lat="40.1603300" lon="-3.0341170">
        <ele>639.0</ele>
        <time>2019-07-07T11:25:19Z</time>
      </trkpt>
      <trkpt lat="40.1602180" lon="-3.0341590">
        <ele>640.0</ele>
        <time>2019-07-07T11:25:22Z</time>
      </trkpt>
      <trkpt lat="40.1600750" lon="-3.0342060">
        <ele>641.2</ele>
        <time>2019-07-07T11:25:26Z</time>
      </trkpt>
      <trkpt lat="40.1599350" lon="-3.0342460">
        <ele>642.0</ele>
        <time>2019-07-07T11:25:30Z</time>
      </trkpt>
      <trkpt lat="40.1598630" lon="-3.0342440">
        <ele>642.2</ele>
        <time>2019-07-07T11:25:32Z</time>
      </trkpt>
      <trkpt lat="40.1597870" lon="-3.0342360">
        <ele>642.8</ele>
        <time>2019-07-07T11:25:34Z</time>
      </trkpt>
      <trkpt lat="40.1597110" lon="-3.0342240">
        <ele>643.2</ele>
        <time>2019-07-07T11:25:36Z</time>
      </trkpt>
      <trkpt lat="40.1595270" lon="-3.0342120">
        <ele>644.6</ele>
        <time>2019-07-07T11:25:41Z</time>
      </trkpt>
      <trkpt lat="40.1594560" lon="-3.0342220">
        <ele>645.0</ele>
        <time>2019-07-07T11:25:43Z</time>
      </trkpt>
      <trkpt lat="40.1593520" lon="-3.0342630">
        <ele>646.0</ele>
        <time>2019-07-07T11:25:46Z</time>
      </trkpt>
      <trkpt lat="40.1592870" lon="-3.0343110">
        <ele>646.4</ele>
        <time>2019-07-07T11:25:48Z</time>
      </trkpt>
      <trkpt lat="40.1592240" lon="-3.0343560">
        <ele>647.0</ele>
        <time>2019-07-07T11:25:50Z</time>
      </trkpt>
      <trkpt lat="40.1591340" lon="-3.0344200">
        <ele>648.2</ele>
        <time>2019-07-07T11:25:53Z</time>
      </trkpt>
      <trkpt lat="40.1590750" lon="-3.0344600">
        <ele>649.0</ele>
        <time>2019-07-07T11:25:55Z</time>
      </trkpt>
      <trkpt lat="40.1590140" lon="-3.0344940">
        <ele>649.4</ele>
        <time>2019-07-07T11:25:57Z</time>
      </trkpt>
      <trkpt lat="40.1589310" lon="-3.0345530">
        <ele>650.6</ele>
        <time>2019-07-07T11:26:00Z</time>
      </trkpt>
      <trkpt lat="40.1589090" lon="-3.0345700">
        <ele>651.0</ele>
        <time>2019-07-07T11:26:01Z</time>
      </trkpt>
      <trkpt lat="40.1588440" lon="-3.0346160">
        <ele>651.6</ele>
        <time>2019-07-07T11:26:04Z</time>
      </trkpt>
      <trkpt lat="40.1587770" lon="-3.0346620">
        <ele>652.6</ele>
        <time>2019-07-07T11:26:07Z</time>
      </trkpt>
      <trkpt lat="40.1587520" lon="-3.0346750">
        <ele>652.8</ele>
        <time>2019-07-07T11:26:08Z</time>
      </trkpt>
      <trkpt lat="40.1586790" lon="-3.0347210">
        <ele>653.8</ele>
        <time>2019-07-07T11:26:11Z</time>
      </trkpt>
      <trkpt lat="40.1585600" lon="-3.0348020">
        <ele>654.8</ele>
        <time>2019-07-07T11:26:16Z</time>
      </trkpt>
      <trkpt lat="40.1584650" lon="-3.0348630">
        <ele>656.0</ele>
        <time>2019-07-07T11:26:20Z</time>
      </trkpt>
      <trkpt lat="40.1583950" lon="-3.0349050">
        <ele>656.6</ele>
        <time>2019-07-07T11:26:23Z</time>
      </trkpt>
      <trkpt lat="40.1583220" lon="-3.0349540">
        <ele>657.0</ele>
        <time>2019-07-07T11:26:26Z</time>
      </trkpt>
      <trkpt lat="40.1582160" lon="-3.0350550">
        <ele>658.2</ele>
        <time>2019-07-07T11:26:31Z</time>
      </trkpt>
      <trkpt lat="40.1581090" lon="-3.0351740">
        <ele>659.2</ele>
        <time>2019-07-07T11:26:35Z</time>
      </trkpt>
      <trkpt lat="40.1580800" lon="-3.0352140">
        <ele>659.2</ele>
        <time>2019-07-07T11:26:36Z</time>
      </trkpt>
      <trkpt lat="40.1578360" lon="-3.0355210">
        <ele>658.6</ele>
        <time>2019-07-07T11:26:43Z</time>
      </trkpt>
      <trkpt lat="40.1576570" lon="-3.0357030">
        <ele>658.0</ele>
        <time>2019-07-07T11:26:47Z</time>
      </trkpt>
      <trkpt lat="40.1575060" lon="-3.0358340">
        <ele>657.4</ele>
        <time>2019-07-07T11:26:50Z</time>
      </trkpt>
      <trkpt lat="40.1572990" lon="-3.0359940">
        <ele>656.8</ele>
        <time>2019-07-07T11:26:54Z</time>
      </trkpt>
      <trkpt lat="40.1571480" lon="-3.0361170">
        <ele>656.6</ele>
        <time>2019-07-07T11:26:57Z</time>
      </trkpt>
      <trkpt lat="40.1570980" lon="-3.0361670">
        <ele>656.6</ele>
        <time>2019-07-07T11:26:58Z</time>
      </trkpt>
      <trkpt lat="40.1570490" lon="-3.0362260">
        <ele>656.6</ele>
        <time>2019-07-07T11:26:59Z</time>
      </trkpt>
      <trkpt lat="40.1570040" lon="-3.0362950">
        <ele>656.4</ele>
        <time>2019-07-07T11:27:00Z</time>
      </trkpt>
      <trkpt lat="40.1569590" lon="-3.0363720">
        <ele>656.0</ele>
        <time>2019-07-07T11:27:01Z</time>
      </trkpt>
      <trkpt lat="40.1569150" lon="-3.0364490">
        <ele>655.2</ele>
        <time>2019-07-07T11:27:02Z</time>
      </trkpt>
      <trkpt lat="40.1568740" lon="-3.0365220">
        <ele>654.6</ele>
        <time>2019-07-07T11:27:03Z</time>
      </trkpt>
      <trkpt lat="40.1568330" lon="-3.0365920">
        <ele>654.0</ele>
        <time>2019-07-07T11:27:04Z</time>
      </trkpt>
      <trkpt lat="40.1567320" lon="-3.0367760">
        <ele>653.6</ele>
        <time>2019-07-07T11:27:07Z</time>
      </trkpt>
      <trkpt lat="40.1566560" lon="-3.0369090">
        <ele>655.6</ele>
        <time>2019-07-07T11:27:11Z</time>
      </trkpt>
      <trkpt lat="40.1565730" lon="-3.0370410">
        <ele>656.6</ele>
        <time>2019-07-07T11:27:16Z</time>
      </trkpt>
      <trkpt lat="40.1565080" lon="-3.0371280">
        <ele>657.4</ele>
        <time>2019-07-07T11:27:19Z</time>
      </trkpt>
      <trkpt lat="40.1564570" lon="-3.0371880">
        <ele>657.8</ele>
        <time>2019-07-07T11:27:21Z</time>
      </trkpt>
      <trkpt lat="40.1563760" lon="-3.0373000">
        <ele>658.0</ele>
        <time>2019-07-07T11:27:24Z</time>
      </trkpt>
      <trkpt lat="40.1563520" lon="-3.0373470">
        <ele>658.0</ele>
        <time>2019-07-07T11:27:25Z</time>
      </trkpt>
      <trkpt lat="40.1562360" lon="-3.0375550">
        <ele>658.6</ele>
        <time>2019-07-07T11:27:30Z</time>
      </trkpt>
      <trkpt lat="40.1561960" lon="-3.0376230">
        <ele>658.6</ele>
        <time>2019-07-07T11:27:32Z</time>
      </trkpt>
      <trkpt lat="40.1561420" lon="-3.0377160">
        <ele>658.8</ele>
        <time>2019-07-07T11:27:35Z</time>
      </trkpt>
      <trkpt lat="40.1560610" lon="-3.0378260">
        <ele>659.8</ele>
        <time>2019-07-07T11:27:39Z</time>
      </trkpt>
      <trkpt lat="40.1559080" lon="-3.0380190">
        <ele>661.0</ele>
        <time>2019-07-07T11:27:46Z</time>
      </trkpt>
      <trkpt lat="40.1558420" lon="-3.0381050">
        <ele>661.4</ele>
        <time>2019-07-07T11:27:49Z</time>
      </trkpt>
      <trkpt lat="40.1557740" lon="-3.0381920">
        <ele>662.4</ele>
        <time>2019-07-07T11:27:52Z</time>
      </trkpt>
      <trkpt lat="40.1556440" lon="-3.0383640">
        <ele>663.4</ele>
        <time>2019-07-07T11:27:58Z</time>
      </trkpt>
      <trkpt lat="40.1555360" lon="-3.0385110">
        <ele>664.4</ele>
        <time>2019-07-07T11:28:03Z</time>
      </trkpt>
      <trkpt lat="40.1554700" lon="-3.0385960">
        <ele>664.6</ele>
        <time>2019-07-07T11:28:06Z</time>
      </trkpt>
      <trkpt lat="40.1553430" lon="-3.0387770">
        <ele>665.4</ele>
        <time>2019-07-07T11:28:12Z</time>
      </trkpt>
      <trkpt lat="40.1553220" lon="-3.0388080">
        <ele>665.4</ele>
        <time>2019-07-07T11:28:13Z</time>
      </trkpt>
      <trkpt lat="40.1551860" lon="-3.0390500">
        <ele>666.4</ele>
        <time>2019-07-07T11:28:20Z</time>
      </trkpt>
      <trkpt lat="40.1551640" lon="-3.0390870">
        <ele>666.6</ele>
        <time>2019-07-07T11:28:21Z</time>
      </trkpt>
      <trkpt lat="40.1550640" lon="-3.0392490">
        <ele>666.8</ele>
        <time>2019-07-07T11:28:24Z</time>
      </trkpt>
      <trkpt lat="40.1549710" lon="-3.0393890">
        <ele>665.8</ele>
        <time>2019-07-07T11:28:26Z</time>
      </trkpt>
      <trkpt lat="40.1549190" lon="-3.0394680">
        <ele>665.2</ele>
        <time>2019-07-07T11:28:27Z</time>
      </trkpt>
      <trkpt lat="40.1548620" lon="-3.0395500">
        <ele>664.6</ele>
        <time>2019-07-07T11:28:28Z</time>
      </trkpt>
      <trkpt lat="40.1548030" lon="-3.0396360">
        <ele>664.0</ele>
        <time>2019-07-07T11:28:29Z</time>
      </trkpt>
      <trkpt lat="40.1546790" lon="-3.0398220">
        <ele>662.8</ele>
        <time>2019-07-07T11:28:31Z</time>
      </trkpt>
      <trkpt lat="40.1545500" lon="-3.0400170">
        <ele>661.4</ele>
        <time>2019-07-07T11:28:33Z</time>
      </trkpt>
      <trkpt lat="40.1544850" lon="-3.0401160">
        <ele>660.8</ele>
        <time>2019-07-07T11:28:34Z</time>
      </trkpt>
      <trkpt lat="40.1544220" lon="-3.0402160">
        <ele>660.0</ele>
        <time>2019-07-07T11:28:35Z</time>
      </trkpt>
      <trkpt lat="40.1543040" lon="-3.0404110">
        <ele>658.8</ele>
        <time>2019-07-07T11:28:37Z</time>
      </trkpt>
      <trkpt lat="40.1541900" lon="-3.0405870">
        <ele>658.2</ele>
        <time>2019-07-07T11:28:39Z</time>
      </trkpt>
      <trkpt lat="40.1541370" lon="-3.0406690">
        <ele>658.0</ele>
        <time>2019-07-07T11:28:40Z</time>
      </trkpt>
      <trkpt lat="40.1539180" lon="-3.0410130">
        <ele>658.6</ele>
        <time>2019-07-07T11:28:45Z</time>
      </trkpt>
      <trkpt lat="40.1537710" lon="-3.0412400">
        <ele>659.8</ele>
        <time>2019-07-07T11:28:50Z</time>
      </trkpt>
      <trkpt lat="40.1537520" lon="-3.0412750">
        <ele>660.0</ele>
        <time>2019-07-07T11:28:51Z</time>
      </trkpt>
      <trkpt lat="40.1536030" lon="-3.0415040">
        <ele>660.2</ele>
        <time>2019-07-07T11:28:57Z</time>
      </trkpt>
      <trkpt lat="40.1535320" lon="-3.0415970">
        <ele>660.2</ele>
        <time>2019-07-07T11:28:59Z</time>
      </trkpt>
      <trkpt lat="40.1534460" lon="-3.0417020">
        <ele>660.2</ele>
        <time>2019-07-07T11:29:01Z</time>
      </trkpt>
      <trkpt lat="40.1534040" lon="-3.0417570">
        <ele>659.8</ele>
        <time>2019-07-07T11:29:02Z</time>
      </trkpt>
      <trkpt lat="40.1533190" lon="-3.0418710">
        <ele>658.6</ele>
        <time>2019-07-07T11:29:04Z</time>
      </trkpt>
      <trkpt lat="40.1532250" lon="-3.0420060">
        <ele>657.2</ele>
        <time>2019-07-07T11:29:06Z</time>
      </trkpt>
      <trkpt lat="40.1531810" lon="-3.0420880">
        <ele>656.4</ele>
        <time>2019-07-07T11:29:07Z</time>
      </trkpt>
      <trkpt lat="40.1531380" lon="-3.0421690">
        <ele>655.8</ele>
        <time>2019-07-07T11:29:08Z</time>
      </trkpt>
      <trkpt lat="40.1529460" lon="-3.0425260">
        <ele>654.8</ele>
        <time>2019-07-07T11:29:13Z</time>
      </trkpt>
      <trkpt lat="40.1528480" lon="-3.0427040">
        <ele>654.8</ele>
        <time>2019-07-07T11:29:16Z</time>
      </trkpt>
      <trkpt lat="40.1527640" lon="-3.0428410">
        <ele>655.2</ele>
        <time>2019-07-07T11:29:19Z</time>
      </trkpt>
      <trkpt lat="40.1526840" lon="-3.0429530">
        <ele>656.4</ele>
        <time>2019-07-07T11:29:22Z</time>
      </trkpt>
      <trkpt lat="40.1526130" lon="-3.0430640">
        <ele>657.0</ele>
        <time>2019-07-07T11:29:25Z</time>
      </trkpt>
      <trkpt lat="40.1525870" lon="-3.0431010">
        <ele>657.0</ele>
        <time>2019-07-07T11:29:26Z</time>
      </trkpt>
      <trkpt lat="40.1524480" lon="-3.0433340">
        <ele>657.2</ele>
        <time>2019-07-07T11:29:31Z</time>
      </trkpt>
      <trkpt lat="40.1524210" lon="-3.0433930">
        <ele>657.2</ele>
        <time>2019-07-07T11:29:32Z</time>
      </trkpt>
      <trkpt lat="40.1522670" lon="-3.0438610">
        <ele>656.6</ele>
        <time>2019-07-07T11:29:39Z</time>
      </trkpt>
      <trkpt lat="40.1520440" lon="-3.0444930">
        <ele>655.6</ele>
        <time>2019-07-07T11:29:48Z</time>
      </trkpt>
      <trkpt lat="40.1518950" lon="-3.0448890">
        <ele>655.6</ele>
        <time>2019-07-07T11:29:54Z</time>
      </trkpt>
      <trkpt lat="40.1518520" lon="-3.0450230">
        <ele>655.2</ele>
        <time>2019-07-07T11:29:56Z</time>
      </trkpt>
      <trkpt lat="40.1517010" lon="-3.0454590">
        <ele>654.8</ele>
        <time>2019-07-07T11:30:02Z</time>
      </trkpt>
      <trkpt lat="40.1515630" lon="-3.0458670">
        <ele>654.0</ele>
        <time>2019-07-07T11:30:07Z</time>
      </trkpt>
      <trkpt lat="40.1514760" lon="-3.0461020">
        <ele>653.0</ele>
        <time>2019-07-07T11:30:10Z</time>
      </trkpt>
      <trkpt lat="40.1513090" lon="-3.0465270">
        <ele>653.2</ele>
        <time>2019-07-07T11:30:16Z</time>
      </trkpt>
      <trkpt lat="40.1511740" lon="-3.0469060">
        <ele>654.0</ele>
        <time>2019-07-07T11:30:22Z</time>
      </trkpt>
      <trkpt lat="40.1511510" lon="-3.0469640">
        <ele>654.2</ele>
        <time>2019-07-07T11:30:23Z</time>
      </trkpt>
      <trkpt lat="40.1510660" lon="-3.0472060">
        <ele>654.0</ele>
        <time>2019-07-07T11:30:27Z</time>
      </trkpt>
      <trkpt lat="40.1509860" lon="-3.0474720">
        <ele>654.0</ele>
        <time>2019-07-07T11:30:31Z</time>
      </trkpt>
      <trkpt lat="40.1508300" lon="-3.0480340">
        <ele>653.8</ele>
        <time>2019-07-07T11:30:39Z</time>
      </trkpt>
      <trkpt lat="40.1506580" lon="-3.0486750">
        <ele>653.6</ele>
        <time>2019-07-07T11:30:48Z</time>
      </trkpt>
      <trkpt lat="40.1506000" lon="-3.0490190">
        <ele>653.6</ele>
        <time>2019-07-07T11:30:53Z</time>
      </trkpt>
      <trkpt lat="40.1505670" lon="-3.0491440">
        <ele>653.2</ele>
        <time>2019-07-07T11:30:55Z</time>
      </trkpt>
      <trkpt lat="40.1504930" lon="-3.0493290">
        <ele>653.0</ele>
        <time>2019-07-07T11:30:58Z</time>
      </trkpt>
      <trkpt lat="40.1503870" lon="-3.0496030">
        <ele>652.2</ele>
        <time>2019-07-07T11:31:02Z</time>
      </trkpt>
      <trkpt lat="40.1503580" lon="-3.0496710">
        <ele>651.8</ele>
        <time>2019-07-07T11:31:03Z</time>
      </trkpt>
      <trkpt lat="40.1502390" lon="-3.0499530">
        <ele>650.8</ele>
        <time>2019-07-07T11:31:07Z</time>
      </trkpt>
      <trkpt lat="40.1501760" lon="-3.0500920">
        <ele>650.6</ele>
        <time>2019-07-07T11:31:09Z</time>
      </trkpt>
      <trkpt lat="40.1500760" lon="-3.0502960">
        <ele>649.8</ele>
        <time>2019-07-07T11:31:12Z</time>
      </trkpt>
      <trkpt lat="40.1499560" lon="-3.0505600">
        <ele>649.2</ele>
        <time>2019-07-07T11:31:16Z</time>
      </trkpt>
      <trkpt lat="40.1498340" lon="-3.0509660">
        <ele>649.0</ele>
        <time>2019-07-07T11:31:22Z</time>
      </trkpt>
      <trkpt lat="40.1498230" lon="-3.0510350">
        <ele>648.8</ele>
        <time>2019-07-07T11:31:23Z</time>
      </trkpt>
      <trkpt lat="40.1498160" lon="-3.0511060">
        <ele>648.8</ele>
        <time>2019-07-07T11:31:24Z</time>
      </trkpt>
      <trkpt lat="40.1498080" lon="-3.0513990">
        <ele>649.2</ele>
        <time>2019-07-07T11:31:28Z</time>
      </trkpt>
      <trkpt lat="40.1497900" lon="-3.0515770">
        <ele>648.8</ele>
        <time>2019-07-07T11:31:31Z</time>
      </trkpt>
      <trkpt lat="40.1497720" lon="-3.0516280">
        <ele>648.4</ele>
        <time>2019-07-07T11:31:32Z</time>
      </trkpt>
      <trkpt lat="40.1496490" lon="-3.0517750">
        <ele>647.8</ele>
        <time>2019-07-07T11:31:35Z</time>
      </trkpt>
      <trkpt lat="40.1495880" lon="-3.0518260">
        <ele>647.2</ele>
        <time>2019-07-07T11:31:36Z</time>
      </trkpt>
      <trkpt lat="40.1494530" lon="-3.0519460">
        <ele>646.4</ele>
        <time>2019-07-07T11:31:38Z</time>
      </trkpt>
      <trkpt lat="40.1493890" lon="-3.0520160">
        <ele>646.2</ele>
        <time>2019-07-07T11:31:39Z</time>
      </trkpt>
      <trkpt lat="40.1492440" lon="-3.0522610">
        <ele>645.2</ele>
        <time>2019-07-07T11:31:42Z</time>
      </trkpt>
      <trkpt lat="40.1492190" lon="-3.0523490">
        <ele>644.6</ele>
        <time>2019-07-07T11:31:43Z</time>
      </trkpt>
      <trkpt lat="40.1491990" lon="-3.0524340">
        <ele>644.2</ele>
        <time>2019-07-07T11:31:44Z</time>
      </trkpt>
      <trkpt lat="40.1491410" lon="-3.0526470">
        <ele>643.8</ele>
        <time>2019-07-07T11:31:47Z</time>
      </trkpt>
      <trkpt lat="40.1491170" lon="-3.0527050">
        <ele>644.0</ele>
        <time>2019-07-07T11:31:48Z</time>
      </trkpt>
      <trkpt lat="40.1490660" lon="-3.0528110">
        <ele>644.4</ele>
        <time>2019-07-07T11:31:50Z</time>
      </trkpt>
      <trkpt lat="40.1489870" lon="-3.0529690">
        <ele>644.8</ele>
        <time>2019-07-07T11:31:53Z</time>
      </trkpt>
      <trkpt lat="40.1489630" lon="-3.0530280">
        <ele>644.8</ele>
        <time>2019-07-07T11:31:54Z</time>
      </trkpt>
      <trkpt lat="40.1489450" lon="-3.0530910">
        <ele>644.8</ele>
        <time>2019-07-07T11:31:55Z</time>
      </trkpt>
      <trkpt lat="40.1489210" lon="-3.0533060">
        <ele>644.8</ele>
        <time>2019-07-07T11:31:58Z</time>
      </trkpt>
      <trkpt lat="40.1489160" lon="-3.0534580">
        <ele>644.8</ele>
        <time>2019-07-07T11:32:00Z</time>
      </trkpt>
      <trkpt lat="40.1489030" lon="-3.0540350">
        <ele>644.0</ele>
        <time>2019-07-07T11:32:07Z</time>
      </trkpt>
      <trkpt lat="40.1488880" lon="-3.0545670">
        <ele>644.4</ele>
        <time>2019-07-07T11:32:14Z</time>
      </trkpt>
      <trkpt lat="40.1488890" lon="-3.0546340">
        <ele>644.4</ele>
        <time>2019-07-07T11:32:15Z</time>
      </trkpt>
      <trkpt lat="40.1488880" lon="-3.0548180">
        <ele>644.8</ele>
        <time>2019-07-07T11:32:18Z</time>
      </trkpt>
      <trkpt lat="40.1488850" lon="-3.0549720">
        <ele>645.0</ele>
        <time>2019-07-07T11:32:21Z</time>
      </trkpt>
      <trkpt lat="40.1488750" lon="-3.0551120">
        <ele>645.6</ele>
        <time>2019-07-07T11:32:24Z</time>
      </trkpt>
      <trkpt lat="40.1488690" lon="-3.0553400">
        <ele>646.2</ele>
        <time>2019-07-07T11:32:28Z</time>
      </trkpt>
      <trkpt lat="40.1488560" lon="-3.0557990">
        <ele>644.4</ele>
        <time>2019-07-07T11:32:34Z</time>
      </trkpt>
      <trkpt lat="40.1488220" lon="-3.0562290">
        <ele>643.4</ele>
        <time>2019-07-07T11:32:39Z</time>
      </trkpt>
      <trkpt lat="40.1487980" lon="-3.0563120">
        <ele>643.2</ele>
        <time>2019-07-07T11:32:40Z</time>
      </trkpt>
      <trkpt lat="40.1486740" lon="-3.0564880">
        <ele>642.4</ele>
        <time>2019-07-07T11:32:43Z</time>
      </trkpt>
      <trkpt lat="40.1486230" lon="-3.0565180">
        <ele>642.2</ele>
        <time>2019-07-07T11:32:44Z</time>
      </trkpt>
      <trkpt lat="40.1484640" lon="-3.0565800">
        <ele>641.8</ele>
        <time>2019-07-07T11:32:47Z</time>
      </trkpt>
      <trkpt lat="40.1484150" lon="-3.0565990">
        <ele>641.8</ele>
        <time>2019-07-07T11:32:48Z</time>
      </trkpt>
      <trkpt lat="40.1482850" lon="-3.0566630">
        <ele>642.4</ele>
        <time>2019-07-07T11:32:51Z</time>
      </trkpt>
      <trkpt lat="40.1481320" lon="-3.0567310">
        <ele>643.6</ele>
        <time>2019-07-07T11:32:55Z</time>
      </trkpt>
      <trkpt lat="40.1479630" lon="-3.0568050">
        <ele>644.6</ele>
        <time>2019-07-07T11:33:00Z</time>
      </trkpt>
      <trkpt lat="40.1478670" lon="-3.0568450">
        <ele>645.2</ele>
        <time>2019-07-07T11:33:03Z</time>
      </trkpt>
      <trkpt lat="40.1477760" lon="-3.0568840">
        <ele>645.8</ele>
        <time>2019-07-07T11:33:06Z</time>
      </trkpt>
      <trkpt lat="40.1476870" lon="-3.0569210">
        <ele>647.0</ele>
        <time>2019-07-07T11:33:09Z</time>
      </trkpt>
      <trkpt lat="40.1476240" lon="-3.0569530">
        <ele>647.2</ele>
        <time>2019-07-07T11:33:11Z</time>
      </trkpt>
      <trkpt lat="40.1474970" lon="-3.0570000">
        <ele>647.8</ele>
        <time>2019-07-07T11:33:15Z</time>
      </trkpt>
      <trkpt lat="40.1474620" lon="-3.0570130">
        <ele>648.0</ele>
        <time>2019-07-07T11:33:16Z</time>
      </trkpt>
      <trkpt lat="40.1473870" lon="-3.0570340">
        <ele>648.0</ele>
        <time>2019-07-07T11:33:18Z</time>
      </trkpt>
      <trkpt lat="40.1470990" lon="-3.0571570">
        <ele>648.2</ele>
        <time>2019-07-07T11:33:25Z</time>
      </trkpt>
      <trkpt lat="40.1467700" lon="-3.0573560">
        <ele>648.6</ele>
        <time>2019-07-07T11:33:33Z</time>
      </trkpt>
      <trkpt lat="40.1466480" lon="-3.0574360">
        <ele>649.2</ele>
        <time>2019-07-07T11:33:36Z</time>
      </trkpt>
      <trkpt lat="40.1463800" lon="-3.0576070">
        <ele>649.2</ele>
        <time>2019-07-07T11:33:42Z</time>
      </trkpt>
      <trkpt lat="40.1461240" lon="-3.0578070">
        <ele>648.4</ele>
        <time>2019-07-07T11:33:47Z</time>
      </trkpt>
      <trkpt lat="40.1460680" lon="-3.0578580">
        <ele>648.2</ele>
        <time>2019-07-07T11:33:48Z</time>
      </trkpt>
      <trkpt lat="40.1460150" lon="-3.0579150">
        <ele>648.0</ele>
        <time>2019-07-07T11:33:49Z</time>
      </trkpt>
      <trkpt lat="40.1459650" lon="-3.0579750">
        <ele>647.6</ele>
        <time>2019-07-07T11:33:50Z</time>
      </trkpt>
      <trkpt lat="40.1459170" lon="-3.0580350">
        <ele>647.0</ele>
        <time>2019-07-07T11:33:51Z</time>
      </trkpt>
      <trkpt lat="40.1458320" lon="-3.0581550">
        <ele>646.8</ele>
        <time>2019-07-07T11:33:53Z</time>
      </trkpt>
      <trkpt lat="40.1457610" lon="-3.0582720">
        <ele>647.0</ele>
        <time>2019-07-07T11:33:55Z</time>
      </trkpt>
      <trkpt lat="40.1457050" lon="-3.0583860">
        <ele>646.8</ele>
        <time>2019-07-07T11:33:57Z</time>
      </trkpt>
      <trkpt lat="40.1456770" lon="-3.0584380">
        <ele>646.8</ele>
        <time>2019-07-07T11:33:58Z</time>
      </trkpt>
      <trkpt lat="40.1456480" lon="-3.0584870">
        <ele>646.8</ele>
        <time>2019-07-07T11:33:59Z</time>
      </trkpt>
      <trkpt lat="40.1455640" lon="-3.0586300">
        <ele>647.4</ele>
        <time>2019-07-07T11:34:02Z</time>
      </trkpt>
      <trkpt lat="40.1454750" lon="-3.0587660">
        <ele>648.0</ele>
        <time>2019-07-07T11:34:05Z</time>
      </trkpt>
      <trkpt lat="40.1454410" lon="-3.0588180">
        <ele>648.2</ele>
        <time>2019-07-07T11:34:06Z</time>
      </trkpt>
      <trkpt lat="40.1452270" lon="-3.0591500">
        <ele>648.0</ele>
        <time>2019-07-07T11:34:12Z</time>
      </trkpt>
      <trkpt lat="40.1451230" lon="-3.0593120">
        <ele>647.8</ele>
        <time>2019-07-07T11:34:15Z</time>
      </trkpt>
      <trkpt lat="40.1449360" lon="-3.0596570">
        <ele>648.4</ele>
        <time>2019-07-07T11:34:22Z</time>
      </trkpt>
      <trkpt lat="40.1449150" lon="-3.0597070">
        <ele>648.4</ele>
        <time>2019-07-07T11:34:23Z</time>
      </trkpt>
      <trkpt lat="40.1448210" lon="-3.0599900">
        <ele>649.0</ele>
        <time>2019-07-07T11:34:28Z</time>
      </trkpt>
      <trkpt lat="40.1446720" lon="-3.0604780">
        <ele>648.0</ele>
        <time>2019-07-07T11:34:35Z</time>
      </trkpt>
      <trkpt lat="40.1445960" lon="-3.0608350">
        <ele>646.8</ele>
        <time>2019-07-07T11:34:39Z</time>
      </trkpt>
      <trkpt lat="40.1445610" lon="-3.0610340">
        <ele>646.6</ele>
        <time>2019-07-07T11:34:41Z</time>
      </trkpt>
      <trkpt lat="40.1445320" lon="-3.0612370">
        <ele>645.8</ele>
        <time>2019-07-07T11:34:43Z</time>
      </trkpt>
      <trkpt lat="40.1444920" lon="-3.0616310">
        <ele>644.6</ele>
        <time>2019-07-07T11:34:47Z</time>
      </trkpt>
      <trkpt lat="40.1444850" lon="-3.0617250">
        <ele>644.4</ele>
        <time>2019-07-07T11:34:48Z</time>
      </trkpt>
      <trkpt lat="40.1444780" lon="-3.0619090">
        <ele>644.2</ele>
        <time>2019-07-07T11:34:50Z</time>
      </trkpt>
      <trkpt lat="40.1444770" lon="-3.0620830">
        <ele>644.0</ele>
        <time>2019-07-07T11:34:52Z</time>
      </trkpt>
      <trkpt lat="40.1444750" lon="-3.0622470">
        <ele>644.0</ele>
        <time>2019-07-07T11:34:54Z</time>
      </trkpt>
      <trkpt lat="40.1444580" lon="-3.0624840">
        <ele>643.6</ele>
        <time>2019-07-07T11:34:57Z</time>
      </trkpt>
      <trkpt lat="40.1444050" lon="-3.0627970">
        <ele>643.8</ele>
        <time>2019-07-07T11:35:01Z</time>
      </trkpt>
      <trkpt lat="40.1443020" lon="-3.0632810">
        <ele>642.6</ele>
        <time>2019-07-07T11:35:07Z</time>
      </trkpt>
      <trkpt lat="40.1442450" lon="-3.0635290">
        <ele>642.6</ele>
        <time>2019-07-07T11:35:10Z</time>
      </trkpt>
      <trkpt lat="40.1440810" lon="-3.0642120">
        <ele>642.2</ele>
        <time>2019-07-07T11:35:18Z</time>
      </trkpt>
      <trkpt lat="40.1440600" lon="-3.0642980">
        <ele>642.0</ele>
        <time>2019-07-07T11:35:19Z</time>
      </trkpt>
      <trkpt lat="40.1439940" lon="-3.0645600">
        <ele>641.4</ele>
        <time>2019-07-07T11:35:22Z</time>
      </trkpt>
      <trkpt lat="40.1438940" lon="-3.0649780">
        <ele>640.8</ele>
        <time>2019-07-07T11:35:27Z</time>
      </trkpt>
      <trkpt lat="40.1437320" lon="-3.0656710">
        <ele>640.6</ele>
        <time>2019-07-07T11:35:36Z</time>
      </trkpt>
      <trkpt lat="40.1437140" lon="-3.0657410">
        <ele>640.4</ele>
        <time>2019-07-07T11:35:37Z</time>
      </trkpt>
      <trkpt lat="40.1436110" lon="-3.0661590">
        <ele>640.4</ele>
        <time>2019-07-07T11:35:43Z</time>
      </trkpt>
      <trkpt lat="40.1435260" lon="-3.0664900">
        <ele>640.2</ele>
        <time>2019-07-07T11:35:48Z</time>
      </trkpt>
      <trkpt lat="40.1434380" lon="-3.0668110">
        <ele>640.8</ele>
        <time>2019-07-07T11:35:53Z</time>
      </trkpt>
      <trkpt lat="40.1433910" lon="-3.0669460">
        <ele>640.6</ele>
        <time>2019-07-07T11:35:55Z</time>
      </trkpt>
      <trkpt lat="40.1432870" lon="-3.0673550">
        <ele>639.2</ele>
        <time>2019-07-07T11:36:00Z</time>
      </trkpt>
      <trkpt lat="40.1431870" lon="-3.0676500">
        <ele>638.0</ele>
        <time>2019-07-07T11:36:03Z</time>
      </trkpt>
      <trkpt lat="40.1430970" lon="-3.0678540">
        <ele>636.8</ele>
        <time>2019-07-07T11:36:05Z</time>
      </trkpt>
      <trkpt lat="40.1429930" lon="-3.0680330">
        <ele>635.4</ele>
        <time>2019-07-07T11:36:07Z</time>
      </trkpt>
      <trkpt lat="40.1428520" lon="-3.0681730">
        <ele>634.8</ele>
        <time>2019-07-07T11:36:09Z</time>
      </trkpt>
      <trkpt lat="40.1426740" lon="-3.0682870">
        <ele>633.8</ele>
        <time>2019-07-07T11:36:11Z</time>
      </trkpt>
      <trkpt lat="40.1424720" lon="-3.0683720">
        <ele>632.0</ele>
        <time>2019-07-07T11:36:13Z</time>
      </trkpt>
      <trkpt lat="40.1423640" lon="-3.0684180">
        <ele>631.2</ele>
        <time>2019-07-07T11:36:14Z</time>
      </trkpt>
      <trkpt lat="40.1422560" lon="-3.0684780">
        <ele>630.4</ele>
        <time>2019-07-07T11:36:15Z</time>
      </trkpt>
      <trkpt lat="40.1421490" lon="-3.0685480">
        <ele>629.2</ele>
        <time>2019-07-07T11:36:16Z</time>
      </trkpt>
      <trkpt lat="40.1420460" lon="-3.0686230">
        <ele>628.0</ele>
        <time>2019-07-07T11:36:17Z</time>
      </trkpt>
      <trkpt lat="40.1418590" lon="-3.0687970">
        <ele>625.6</ele>
        <time>2019-07-07T11:36:19Z</time>
      </trkpt>
      <trkpt lat="40.1416930" lon="-3.0690220">
        <ele>623.4</ele>
        <time>2019-07-07T11:36:21Z</time>
      </trkpt>
      <trkpt lat="40.1415590" lon="-3.0693030">
        <ele>621.8</ele>
        <time>2019-07-07T11:36:23Z</time>
      </trkpt>
      <trkpt lat="40.1415020" lon="-3.0694550">
        <ele>620.6</ele>
        <time>2019-07-07T11:36:24Z</time>
      </trkpt>
      <trkpt lat="40.1414470" lon="-3.0696090">
        <ele>619.4</ele>
        <time>2019-07-07T11:36:25Z</time>
      </trkpt>
      <trkpt lat="40.1413410" lon="-3.0699220">
        <ele>617.4</ele>
        <time>2019-07-07T11:36:27Z</time>
      </trkpt>
      <trkpt lat="40.1412470" lon="-3.0702380">
        <ele>615.8</ele>
        <time>2019-07-07T11:36:29Z</time>
      </trkpt>
      <trkpt lat="40.1412000" lon="-3.0703930">
        <ele>614.6</ele>
        <time>2019-07-07T11:36:30Z</time>
      </trkpt>
      <trkpt lat="40.1411070" lon="-3.0706860">
        <ele>613.2</ele>
        <time>2019-07-07T11:36:32Z</time>
      </trkpt>
      <trkpt lat="40.1409800" lon="-3.0710920">
        <ele>612.8</ele>
        <time>2019-07-07T11:36:35Z</time>
      </trkpt>
      <trkpt lat="40.1407510" lon="-3.0718030">
        <ele>612.4</ele>
        <time>2019-07-07T11:36:41Z</time>
      </trkpt>
      <trkpt lat="40.1406800" lon="-3.0720320">
        <ele>612.0</ele>
        <time>2019-07-07T11:36:43Z</time>
      </trkpt>
      <trkpt lat="40.1405360" lon="-3.0724420">
        <ele>611.2</ele>
        <time>2019-07-07T11:36:47Z</time>
      </trkpt>
      <trkpt lat="40.1404970" lon="-3.0725270">
        <ele>611.2</ele>
        <time>2019-07-07T11:36:48Z</time>
      </trkpt>
      <trkpt lat="40.1404260" lon="-3.0726950">
        <ele>610.8</ele>
        <time>2019-07-07T11:36:50Z</time>
      </trkpt>
      <trkpt lat="40.1404070" lon="-3.0727910">
        <ele>610.4</ele>
        <time>2019-07-07T11:36:51Z</time>
      </trkpt>
      <trkpt lat="40.1404650" lon="-3.0730820">
        <ele>609.6</ele>
        <time>2019-07-07T11:36:54Z</time>
      </trkpt>
      <trkpt lat="40.1405540" lon="-3.0732130">
        <ele>609.4</ele>
        <time>2019-07-07T11:36:56Z</time>
      </trkpt>
      <trkpt lat="40.1406350" lon="-3.0733180">
        <ele>609.6</ele>
        <time>2019-07-07T11:36:58Z</time>
      </trkpt>
      <trkpt lat="40.1406690" lon="-3.0733670">
        <ele>610.0</ele>
        <time>2019-07-07T11:36:59Z</time>
      </trkpt>
      <trkpt lat="40.1407010" lon="-3.0734150">
        <ele>610.2</ele>
        <time>2019-07-07T11:37:00Z</time>
      </trkpt>
      <trkpt lat="40.1407650" lon="-3.0735090">
        <ele>611.0</ele>
        <time>2019-07-07T11:37:02Z</time>
      </trkpt>
      <trkpt lat="40.1407940" lon="-3.0735580">
        <ele>611.2</ele>
        <time>2019-07-07T11:37:03Z</time>
      </trkpt>
      <trkpt lat="40.1408200" lon="-3.0736080">
        <ele>611.6</ele>
        <time>2019-07-07T11:37:04Z</time>
      </trkpt>
      <trkpt lat="40.1408610" lon="-3.0737140">
        <ele>612.2</ele>
        <time>2019-07-07T11:37:06Z</time>
      </trkpt>
      <trkpt lat="40.1408830" lon="-3.0738220">
        <ele>613.2</ele>
        <time>2019-07-07T11:37:08Z</time>
      </trkpt>
      <trkpt lat="40.1408900" lon="-3.0738710">
        <ele>613.6</ele>
        <time>2019-07-07T11:37:09Z</time>
      </trkpt>
      <trkpt lat="40.1408940" lon="-3.0739190">
        <ele>614.0</ele>
        <time>2019-07-07T11:37:10Z</time>
      </trkpt>
      <trkpt lat="40.1409120" lon="-3.0740150">
        <ele>615.0</ele>
        <time>2019-07-07T11:37:12Z</time>
      </trkpt>
      <trkpt lat="40.1409440" lon="-3.0741640">
        <ele>615.8</ele>
        <time>2019-07-07T11:37:15Z</time>
      </trkpt>
      <trkpt lat="40.1409590" lon="-3.0742110">
        <ele>616.4</ele>
        <time>2019-07-07T11:37:16Z</time>
      </trkpt>
      <trkpt lat="40.1410110" lon="-3.0743480">
        <ele>617.0</ele>
        <time>2019-07-07T11:37:19Z</time>
      </trkpt>
      <trkpt lat="40.1410420" lon="-3.0744270">
        <ele>617.4</ele>
        <time>2019-07-07T11:37:21Z</time>
      </trkpt>
      <trkpt lat="40.1410760" lon="-3.0745510">
        <ele>618.4</ele>
        <time>2019-07-07T11:37:24Z</time>
      </trkpt>
      <trkpt lat="40.1410830" lon="-3.0745930">
        <ele>618.8</ele>
        <time>2019-07-07T11:37:25Z</time>
      </trkpt>
      <trkpt lat="40.1411140" lon="-3.0747620">
        <ele>619.6</ele>
        <time>2019-07-07T11:37:29Z</time>
      </trkpt>
      <trkpt lat="40.1411310" lon="-3.0748450">
        <ele>620.0</ele>
        <time>2019-07-07T11:37:31Z</time>
      </trkpt>
      <trkpt lat="40.1411840" lon="-3.0751510">
        <ele>621.4</ele>
        <time>2019-07-07T11:37:38Z</time>
      </trkpt>
      <trkpt lat="40.1411920" lon="-3.0751930">
        <ele>621.6</ele>
        <time>2019-07-07T11:37:39Z</time>
      </trkpt>
      <trkpt lat="40.1412360" lon="-3.0753750">
        <ele>622.6</ele>
        <time>2019-07-07T11:37:44Z</time>
      </trkpt>
      <trkpt lat="40.1412760" lon="-3.0755120">
        <ele>623.6</ele>
        <time>2019-07-07T11:37:48Z</time>
      </trkpt>
      <trkpt lat="40.1413290" lon="-3.0756730">
        <ele>624.8</ele>
        <time>2019-07-07T11:37:53Z</time>
      </trkpt>
      <trkpt lat="40.1413370" lon="-3.0757050">
        <ele>624.8</ele>
        <time>2019-07-07T11:37:54Z</time>
      </trkpt>
      <trkpt lat="40.1413770" lon="-3.0758220">
        <ele>625.8</ele>
        <time>2019-07-07T11:37:58Z</time>
      </trkpt>
      <trkpt lat="40.1414230" lon="-3.0759410">
        <ele>626.8</ele>
        <time>2019-07-07T11:38:02Z</time>
      </trkpt>
      <trkpt lat="40.1414340" lon="-3.0759710">
        <ele>627.0</ele>
        <time>2019-07-07T11:38:03Z</time>
      </trkpt>
      <trkpt lat="40.1414710" lon="-3.0760930">
        <ele>628.2</ele>
        <time>2019-07-07T11:38:07Z</time>
      </trkpt>
      <trkpt lat="40.1415040" lon="-3.0761810">
        <ele>628.8</ele>
        <time>2019-07-07T11:38:10Z</time>
      </trkpt>
      <trkpt lat="40.1415260" lon="-3.0762410">
        <ele>629.4</ele>
        <time>2019-07-07T11:38:12Z</time>
      </trkpt>
      <trkpt lat="40.1415630" lon="-3.0763620">
        <ele>630.4</ele>
        <time>2019-07-07T11:38:16Z</time>
      </trkpt>
      <trkpt lat="40.1415720" lon="-3.0763910">
        <ele>630.8</ele>
        <time>2019-07-07T11:38:17Z</time>
      </trkpt>
      <trkpt lat="40.1416060" lon="-3.0765080">
        <ele>631.6</ele>
        <time>2019-07-07T11:38:21Z</time>
      </trkpt>
      <trkpt lat="40.1416360" lon="-3.0765980">
        <ele>632.2</ele>
        <time>2019-07-07T11:38:24Z</time>
      </trkpt>
      <trkpt lat="40.1416570" lon="-3.0766550">
        <ele>632.6</ele>
        <time>2019-07-07T11:38:26Z</time>
      </trkpt>
      <trkpt lat="40.1416930" lon="-3.0767810">
        <ele>633.6</ele>
        <time>2019-07-07T11:38:30Z</time>
      </trkpt>
      <trkpt lat="40.1417020" lon="-3.0768120">
        <ele>633.8</ele>
        <time>2019-07-07T11:38:31Z</time>
      </trkpt>
      <trkpt lat="40.1417470" lon="-3.0769380">
        <ele>634.8</ele>
        <time>2019-07-07T11:38:35Z</time>
      </trkpt>
      <trkpt lat="40.1417840" lon="-3.0770360">
        <ele>635.4</ele>
        <time>2019-07-07T11:38:38Z</time>
      </trkpt>
      <trkpt lat="40.1418100" lon="-3.0771460">
        <ele>636.0</ele>
        <time>2019-07-07T11:38:41Z</time>
      </trkpt>
      <trkpt lat="40.1418530" lon="-3.0773330">
        <ele>637.0</ele>
        <time>2019-07-07T11:38:46Z</time>
      </trkpt>
      <trkpt lat="40.1418610" lon="-3.0774110">
        <ele>637.6</ele>
        <time>2019-07-07T11:38:48Z</time>
      </trkpt>
      <trkpt lat="40.1418820" lon="-3.0775350">
        <ele>638.4</ele>
        <time>2019-07-07T11:38:51Z</time>
      </trkpt>
      <trkpt lat="40.1418880" lon="-3.0776200">
        <ele>638.8</ele>
        <time>2019-07-07T11:38:53Z</time>
      </trkpt>
      <trkpt lat="40.1419210" lon="-3.0778220">
        <ele>639.4</ele>
        <time>2019-07-07T11:38:58Z</time>
      </trkpt>
      <trkpt lat="40.1419260" lon="-3.0778630">
        <ele>639.8</ele>
        <time>2019-07-07T11:38:59Z</time>
      </trkpt>
      <trkpt lat="40.1419510" lon="-3.0780170">
        <ele>640.6</ele>
        <time>2019-07-07T11:39:03Z</time>
      </trkpt>
      <trkpt lat="40.1419660" lon="-3.0780910">
        <ele>641.0</ele>
        <time>2019-07-07T11:39:05Z</time>
      </trkpt>
      <trkpt lat="40.1419910" lon="-3.0782060">
        <ele>641.6</ele>
        <time>2019-07-07T11:39:08Z</time>
      </trkpt>
      <trkpt lat="40.1420330" lon="-3.0783990">
        <ele>642.4</ele>
        <time>2019-07-07T11:39:13Z</time>
      </trkpt>
      <trkpt lat="40.1420650" lon="-3.0784730">
        <ele>642.8</ele>
        <time>2019-07-07T11:39:15Z</time>
      </trkpt>
      <trkpt lat="40.1421190" lon="-3.0786300">
        <ele>643.2</ele>
        <time>2019-07-07T11:39:19Z</time>
      </trkpt>
      <trkpt lat="40.1421710" lon="-3.0787840">
        <ele>643.8</ele>
        <time>2019-07-07T11:39:23Z</time>
      </trkpt>
      <trkpt lat="40.1422240" lon="-3.0789440">
        <ele>644.4</ele>
        <time>2019-07-07T11:39:27Z</time>
      </trkpt>
      <trkpt lat="40.1422670" lon="-3.0791050">
        <ele>644.8</ele>
        <time>2019-07-07T11:39:31Z</time>
      </trkpt>
      <trkpt lat="40.1423190" lon="-3.0792650">
        <ele>645.4</ele>
        <time>2019-07-07T11:39:35Z</time>
      </trkpt>
      <trkpt lat="40.1423460" lon="-3.0793440">
        <ele>645.8</ele>
        <time>2019-07-07T11:39:37Z</time>
      </trkpt>
      <trkpt lat="40.1424260" lon="-3.0795730">
        <ele>646.4</ele>
        <time>2019-07-07T11:39:43Z</time>
      </trkpt>
      <trkpt lat="40.1424380" lon="-3.0796130">
        <ele>646.4</ele>
        <time>2019-07-07T11:39:44Z</time>
      </trkpt>
      <trkpt lat="40.1425040" lon="-3.0798200">
        <ele>646.8</ele>
        <time>2019-07-07T11:39:49Z</time>
      </trkpt>
      <trkpt lat="40.1425440" lon="-3.0799550">
        <ele>647.2</ele>
        <time>2019-07-07T11:39:52Z</time>
      </trkpt>
      <trkpt lat="40.1425580" lon="-3.0800050">
        <ele>647.4</ele>
        <time>2019-07-07T11:39:53Z</time>
      </trkpt>
      <trkpt lat="40.1426780" lon="-3.0803760">
        <ele>647.4</ele>
        <time>2019-07-07T11:40:00Z</time>
      </trkpt>
      <trkpt lat="40.1426930" lon="-3.0804310">
        <ele>647.4</ele>
        <time>2019-07-07T11:40:01Z</time>
      </trkpt>
      <trkpt lat="40.1427040" lon="-3.0804870">
        <ele>647.4</ele>
        <time>2019-07-07T11:40:02Z</time>
      </trkpt>
      <trkpt lat="40.1427180" lon="-3.0805420">
        <ele>647.4</ele>
        <time>2019-07-07T11:40:03Z</time>
      </trkpt>
      <trkpt lat="40.1427590" lon="-3.0806460">
        <ele>647.4</ele>
        <time>2019-07-07T11:40:05Z</time>
      </trkpt>
      <trkpt lat="40.1427770" lon="-3.0806980">
        <ele>647.4</ele>
        <time>2019-07-07T11:40:06Z</time>
      </trkpt>
      <trkpt lat="40.1428250" lon="-3.0808660">
        <ele>647.4</ele>
        <time>2019-07-07T11:40:09Z</time>
      </trkpt>
      <trkpt lat="40.1428640" lon="-3.0809770">
        <ele>647.2</ele>
        <time>2019-07-07T11:40:11Z</time>
      </trkpt>
      <trkpt lat="40.1428810" lon="-3.0810330">
        <ele>647.0</ele>
        <time>2019-07-07T11:40:12Z</time>
      </trkpt>
      <trkpt lat="40.1429180" lon="-3.0811500">
        <ele>646.8</ele>
        <time>2019-07-07T11:40:14Z</time>
      </trkpt>
      <trkpt lat="40.1429770" lon="-3.0813300">
        <ele>646.4</ele>
        <time>2019-07-07T11:40:17Z</time>
      </trkpt>
      <trkpt lat="40.1430350" lon="-3.0815230">
        <ele>646.0</ele>
        <time>2019-07-07T11:40:20Z</time>
      </trkpt>
      <trkpt lat="40.1431580" lon="-3.0818720">
        <ele>645.4</ele>
        <time>2019-07-07T11:40:25Z</time>
      </trkpt>
      <trkpt lat="40.1432380" lon="-3.0820990">
        <ele>645.0</ele>
        <time>2019-07-07T11:40:28Z</time>
      </trkpt>
      <trkpt lat="40.1433660" lon="-3.0824830">
        <ele>644.4</ele>
        <time>2019-07-07T11:40:33Z</time>
      </trkpt>
      <trkpt lat="40.1434570" lon="-3.0827740">
        <ele>644.2</ele>
        <time>2019-07-07T11:40:37Z</time>
      </trkpt>
      <trkpt lat="40.1435420" lon="-3.0830400">
        <ele>644.0</ele>
        <time>2019-07-07T11:40:41Z</time>
      </trkpt>
      <trkpt lat="40.1436370" lon="-3.0833450">
        <ele>644.0</ele>
        <time>2019-07-07T11:40:46Z</time>
      </trkpt>
      <trkpt lat="40.1436760" lon="-3.0834680">
        <ele>644.2</ele>
        <time>2019-07-07T11:40:48Z</time>
      </trkpt>
      <trkpt lat="40.1437380" lon="-3.0836630">
        <ele>644.2</ele>
        <time>2019-07-07T11:40:51Z</time>
      </trkpt>
      <trkpt lat="40.1437710" lon="-3.0837920">
        <ele>644.2</ele>
        <time>2019-07-07T11:40:53Z</time>
      </trkpt>
      <trkpt lat="40.1437950" lon="-3.0839260">
        <ele>644.0</ele>
        <time>2019-07-07T11:40:55Z</time>
      </trkpt>
      <trkpt lat="40.1438120" lon="-3.0840640">
        <ele>644.0</ele>
        <time>2019-07-07T11:40:57Z</time>
      </trkpt>
      <trkpt lat="40.1438130" lon="-3.0841330">
        <ele>644.0</ele>
        <time>2019-07-07T11:40:58Z</time>
      </trkpt>
      <trkpt lat="40.1438060" lon="-3.0842790">
        <ele>643.6</ele>
        <time>2019-07-07T11:41:00Z</time>
      </trkpt>
      <trkpt lat="40.1437730" lon="-3.0845120">
        <ele>643.4</ele>
        <time>2019-07-07T11:41:03Z</time>
      </trkpt>
      <trkpt lat="40.1437240" lon="-3.0846710">
        <ele>643.0</ele>
        <time>2019-07-07T11:41:05Z</time>
      </trkpt>
      <trkpt lat="40.1436940" lon="-3.0847540">
        <ele>642.8</ele>
        <time>2019-07-07T11:41:06Z</time>
      </trkpt>
      <trkpt lat="40.1436250" lon="-3.0849300">
        <ele>641.8</ele>
        <time>2019-07-07T11:41:08Z</time>
      </trkpt>
      <trkpt lat="40.1435820" lon="-3.0850220">
        <ele>641.4</ele>
        <time>2019-07-07T11:41:09Z</time>
      </trkpt>
      <trkpt lat="40.1435340" lon="-3.0851180">
        <ele>640.8</ele>
        <time>2019-07-07T11:41:10Z</time>
      </trkpt>
      <trkpt lat="40.1434860" lon="-3.0852190">
        <ele>640.4</ele>
        <time>2019-07-07T11:41:11Z</time>
      </trkpt>
      <trkpt lat="40.1433910" lon="-3.0854360">
        <ele>639.0</ele>
        <time>2019-07-07T11:41:13Z</time>
      </trkpt>
      <trkpt lat="40.1433040" lon="-3.0856690">
        <ele>637.8</ele>
        <time>2019-07-07T11:41:15Z</time>
      </trkpt>
      <trkpt lat="40.1432300" lon="-3.0859220">
        <ele>636.0</ele>
        <time>2019-07-07T11:41:17Z</time>
      </trkpt>
      <trkpt lat="40.1431790" lon="-3.0861790">
        <ele>634.0</ele>
        <time>2019-07-07T11:41:19Z</time>
      </trkpt>
      <trkpt lat="40.1431350" lon="-3.0864280">
        <ele>632.4</ele>
        <time>2019-07-07T11:41:21Z</time>
      </trkpt>
      <trkpt lat="40.1430390" lon="-3.0868170">
        <ele>630.6</ele>
        <time>2019-07-07T11:41:24Z</time>
      </trkpt>
      <trkpt lat="40.1430000" lon="-3.0869490">
        <ele>630.2</ele>
        <time>2019-07-07T11:41:25Z</time>
      </trkpt>
      <trkpt lat="40.1429630" lon="-3.0870840">
        <ele>629.0</ele>
        <time>2019-07-07T11:41:26Z</time>
      </trkpt>
      <trkpt lat="40.1429310" lon="-3.0872250">
        <ele>628.2</ele>
        <time>2019-07-07T11:41:27Z</time>
      </trkpt>
      <trkpt lat="40.1429030" lon="-3.0873690">
        <ele>627.4</ele>
        <time>2019-07-07T11:41:28Z</time>
      </trkpt>
      <trkpt lat="40.1428640" lon="-3.0876630">
        <ele>625.8</ele>
        <time>2019-07-07T11:41:30Z</time>
      </trkpt>
      <trkpt lat="40.1428710" lon="-3.0879660">
        <ele>623.8</ele>
        <time>2019-07-07T11:41:32Z</time>
      </trkpt>
      <trkpt lat="40.1428760" lon="-3.0881160">
        <ele>623.2</ele>
        <time>2019-07-07T11:41:33Z</time>
      </trkpt>
      <trkpt lat="40.1428790" lon="-3.0882580">
        <ele>622.6</ele>
        <time>2019-07-07T11:41:34Z</time>
      </trkpt>
      <trkpt lat="40.1428640" lon="-3.0885190">
        <ele>621.4</ele>
        <time>2019-07-07T11:41:36Z</time>
      </trkpt>
      <trkpt lat="40.1428440" lon="-3.0886340">
        <ele>620.8</ele>
        <time>2019-07-07T11:41:37Z</time>
      </trkpt>
      <trkpt lat="40.1428140" lon="-3.0887400">
        <ele>619.8</ele>
        <time>2019-07-07T11:41:38Z</time>
      </trkpt>
      <trkpt lat="40.1427120" lon="-3.0889420">
        <ele>618.2</ele>
        <time>2019-07-07T11:41:40Z</time>
      </trkpt>
      <trkpt lat="40.1425680" lon="-3.0891080">
        <ele>616.6</ele>
        <time>2019-07-07T11:41:42Z</time>
      </trkpt>
      <trkpt lat="40.1424890" lon="-3.0891800">
        <ele>616.0</ele>
        <time>2019-07-07T11:41:43Z</time>
      </trkpt>
      <trkpt lat="40.1424150" lon="-3.0892630">
        <ele>614.8</ele>
        <time>2019-07-07T11:41:44Z</time>
      </trkpt>
      <trkpt lat="40.1423000" lon="-3.0894850">
        <ele>613.0</ele>
        <time>2019-07-07T11:41:46Z</time>
      </trkpt>
      <trkpt lat="40.1422290" lon="-3.0897570">
        <ele>610.8</ele>
        <time>2019-07-07T11:41:48Z</time>
      </trkpt>
      <trkpt lat="40.1421640" lon="-3.0900440">
        <ele>609.0</ele>
        <time>2019-07-07T11:41:50Z</time>
      </trkpt>
      <trkpt lat="40.1421320" lon="-3.0901880">
        <ele>608.0</ele>
        <time>2019-07-07T11:41:51Z</time>
      </trkpt>
      <trkpt lat="40.1420680" lon="-3.0904770">
        <ele>606.4</ele>
        <time>2019-07-07T11:41:53Z</time>
      </trkpt>
      <trkpt lat="40.1419900" lon="-3.0907600">
        <ele>604.8</ele>
        <time>2019-07-07T11:41:55Z</time>
      </trkpt>
      <trkpt lat="40.1419390" lon="-3.0908930">
        <ele>603.6</ele>
        <time>2019-07-07T11:41:56Z</time>
      </trkpt>
      <trkpt lat="40.1418830" lon="-3.0910190">
        <ele>602.6</ele>
        <time>2019-07-07T11:41:57Z</time>
      </trkpt>
      <trkpt lat="40.1418230" lon="-3.0911390">
        <ele>602.2</ele>
        <time>2019-07-07T11:41:58Z</time>
      </trkpt>
      <trkpt lat="40.1415780" lon="-3.0915860">
        <ele>601.2</ele>
        <time>2019-07-07T11:42:02Z</time>
      </trkpt>
      <trkpt lat="40.1414800" lon="-3.0918120">
        <ele>600.2</ele>
        <time>2019-07-07T11:42:04Z</time>
      </trkpt>
      <trkpt lat="40.1414360" lon="-3.0919260">
        <ele>600.0</ele>
        <time>2019-07-07T11:42:05Z</time>
      </trkpt>
      <trkpt lat="40.1413180" lon="-3.0922600">
        <ele>599.0</ele>
        <time>2019-07-07T11:42:08Z</time>
      </trkpt>
      <trkpt lat="40.1412820" lon="-3.0923680">
        <ele>598.8</ele>
        <time>2019-07-07T11:42:09Z</time>
      </trkpt>
      <trkpt lat="40.1411800" lon="-3.0926870">
        <ele>597.8</ele>
        <time>2019-07-07T11:42:12Z</time>
      </trkpt>
      <trkpt lat="40.1411130" lon="-3.0930090">
        <ele>596.8</ele>
        <time>2019-07-07T11:42:15Z</time>
      </trkpt>
      <trkpt lat="40.1410990" lon="-3.0931180">
        <ele>596.4</ele>
        <time>2019-07-07T11:42:16Z</time>
      </trkpt>
      <trkpt lat="40.1410750" lon="-3.0934520">
        <ele>595.4</ele>
        <time>2019-07-07T11:42:19Z</time>
      </trkpt>
      <trkpt lat="40.1410650" lon="-3.0936700">
        <ele>594.4</ele>
        <time>2019-07-07T11:42:21Z</time>
      </trkpt>
      <trkpt lat="40.1410620" lon="-3.0937760">
        <ele>594.2</ele>
        <time>2019-07-07T11:42:22Z</time>
      </trkpt>
      <trkpt lat="40.1410540" lon="-3.0940780">
        <ele>593.2</ele>
        <time>2019-07-07T11:42:25Z</time>
      </trkpt>
      <trkpt lat="40.1410520" lon="-3.0941740">
        <ele>593.2</ele>
        <time>2019-07-07T11:42:26Z</time>
      </trkpt>
      <trkpt lat="40.1410440" lon="-3.0943550">
        <ele>593.0</ele>
        <time>2019-07-07T11:42:28Z</time>
      </trkpt>
      <trkpt lat="40.1409950" lon="-3.0946680">
        <ele>593.4</ele>
        <time>2019-07-07T11:42:32Z</time>
      </trkpt>
      <trkpt lat="40.1409720" lon="-3.0947300">
        <ele>593.6</ele>
        <time>2019-07-07T11:42:33Z</time>
      </trkpt>
      <trkpt lat="40.1409080" lon="-3.0948980">
        <ele>594.2</ele>
        <time>2019-07-07T11:42:36Z</time>
      </trkpt>
      <trkpt lat="40.1408630" lon="-3.0949960">
        <ele>594.8</ele>
        <time>2019-07-07T11:42:38Z</time>
      </trkpt>
      <trkpt lat="40.1408410" lon="-3.0950410">
        <ele>594.8</ele>
        <time>2019-07-07T11:42:39Z</time>
      </trkpt>
      <trkpt lat="40.1407980" lon="-3.0951240">
        <ele>595.4</ele>
        <time>2019-07-07T11:42:41Z</time>
      </trkpt>
      <trkpt lat="40.1407360" lon="-3.0952370">
        <ele>596.2</ele>
        <time>2019-07-07T11:42:44Z</time>
      </trkpt>
      <trkpt lat="40.1406950" lon="-3.0953100">
        <ele>596.8</ele>
        <time>2019-07-07T11:42:46Z</time>
      </trkpt>
      <trkpt lat="40.1406520" lon="-3.0953820">
        <ele>597.0</ele>
        <time>2019-07-07T11:42:48Z</time>
      </trkpt>
      <trkpt lat="40.1405580" lon="-3.0954540">
        <ele>597.6</ele>
        <time>2019-07-07T11:42:51Z</time>
      </trkpt>
      <trkpt lat="40.1405240" lon="-3.0954740">
        <ele>597.8</ele>
        <time>2019-07-07T11:42:52Z</time>
      </trkpt>
      <trkpt lat="40.1404200" lon="-3.0955360">
        <ele>598.4</ele>
        <time>2019-07-07T11:42:55Z</time>
      </trkpt>
      <trkpt lat="40.1403150" lon="-3.0955930">
        <ele>598.6</ele>
        <time>2019-07-07T11:42:58Z</time>
      </trkpt>
      <trkpt lat="40.1402430" lon="-3.0956340">
        <ele>599.0</ele>
        <time>2019-07-07T11:43:00Z</time>
      </trkpt>
      <trkpt lat="40.1401030" lon="-3.0957100">
        <ele>599.6</ele>
        <time>2019-07-07T11:43:04Z</time>
      </trkpt>
      <trkpt lat="40.1400280" lon="-3.0957450">
        <ele>599.8</ele>
        <time>2019-07-07T11:43:06Z</time>
      </trkpt>
      <trkpt lat="40.1399920" lon="-3.0957690">
        <ele>600.0</ele>
        <time>2019-07-07T11:43:07Z</time>
      </trkpt>
      <trkpt lat="40.1398180" lon="-3.0958720">
        <ele>600.8</ele>
        <time>2019-07-07T11:43:12Z</time>
      </trkpt>
      <trkpt lat="40.1397500" lon="-3.0959110">
        <ele>601.0</ele>
        <time>2019-07-07T11:43:14Z</time>
      </trkpt>
      <trkpt lat="40.1395470" lon="-3.0960380">
        <ele>602.0</ele>
        <time>2019-07-07T11:43:20Z</time>
      </trkpt>
      <trkpt lat="40.1395120" lon="-3.0960600">
        <ele>602.2</ele>
        <time>2019-07-07T11:43:21Z</time>
      </trkpt>
      <trkpt lat="40.1392550" lon="-3.0962020">
        <ele>603.0</ele>
        <time>2019-07-07T11:43:28Z</time>
      </trkpt>
      <trkpt lat="40.1391840" lon="-3.0962380">
        <ele>603.2</ele>
        <time>2019-07-07T11:43:30Z</time>
      </trkpt>
      <trkpt lat="40.1389930" lon="-3.0963070">
        <ele>603.2</ele>
        <time>2019-07-07T11:43:35Z</time>
      </trkpt>
      <trkpt lat="40.1386910" lon="-3.0963440">
        <ele>603.6</ele>
        <time>2019-07-07T11:43:42Z</time>
      </trkpt>
      <trkpt lat="40.1384230" lon="-3.0963640">
        <ele>604.0</ele>
        <time>2019-07-07T11:43:48Z</time>
      </trkpt>
      <trkpt lat="40.1383800" lon="-3.0963660">
        <ele>604.2</ele>
        <time>2019-07-07T11:43:49Z</time>
      </trkpt>
      <trkpt lat="40.1383360" lon="-3.0963670">
        <ele>604.4</ele>
        <time>2019-07-07T11:43:50Z</time>
      </trkpt>
      <trkpt lat="40.1379840" lon="-3.0963880">
        <ele>605.0</ele>
        <time>2019-07-07T11:43:58Z</time>
      </trkpt>
      <trkpt lat="40.1379420" lon="-3.0963910">
        <ele>605.0</ele>
        <time>2019-07-07T11:43:59Z</time>
      </trkpt>
      <trkpt lat="40.1378620" lon="-3.0963960">
        <ele>605.2</ele>
        <time>2019-07-07T11:44:01Z</time>
      </trkpt>
      <trkpt lat="40.1377400" lon="-3.0964140">
        <ele>605.4</ele>
        <time>2019-07-07T11:44:04Z</time>
      </trkpt>
      <trkpt lat="40.1376620" lon="-3.0964560">
        <ele>605.6</ele>
        <time>2019-07-07T11:44:06Z</time>
      </trkpt>
      <trkpt lat="40.1375820" lon="-3.0965250">
        <ele>605.8</ele>
        <time>2019-07-07T11:44:08Z</time>
      </trkpt>
      <trkpt lat="40.1374470" lon="-3.0966670">
        <ele>605.8</ele>
        <time>2019-07-07T11:44:11Z</time>
      </trkpt>
      <trkpt lat="40.1373050" lon="-3.0968510">
        <ele>604.8</ele>
        <time>2019-07-07T11:44:14Z</time>
      </trkpt>
      <trkpt lat="40.1372380" lon="-3.0970170">
        <ele>604.2</ele>
        <time>2019-07-07T11:44:16Z</time>
      </trkpt>
      <trkpt lat="40.1372150" lon="-3.0971080">
        <ele>604.0</ele>
        <time>2019-07-07T11:44:17Z</time>
      </trkpt>
      <trkpt lat="40.1371980" lon="-3.0972020">
        <ele>603.8</ele>
        <time>2019-07-07T11:44:18Z</time>
      </trkpt>
      <trkpt lat="40.1371580" lon="-3.0974760">
        <ele>603.4</ele>
        <time>2019-07-07T11:44:21Z</time>
      </trkpt>
      <trkpt lat="40.1371020" lon="-3.0979480">
        <ele>603.8</ele>
        <time>2019-07-07T11:44:27Z</time>
      </trkpt>
      <trkpt lat="40.1370390" lon="-3.0984940">
        <ele>605.0</ele>
        <time>2019-07-07T11:44:35Z</time>
      </trkpt>
      <trkpt lat="40.1370310" lon="-3.0985640">
        <ele>605.4</ele>
        <time>2019-07-07T11:44:36Z</time>
      </trkpt>
      <trkpt lat="40.1369370" lon="-3.0991190">
        <ele>605.0</ele>
        <time>2019-07-07T11:44:44Z</time>
      </trkpt>
      <trkpt lat="40.1368320" lon="-3.0995310">
        <ele>605.2</ele>
        <time>2019-07-07T11:44:50Z</time>
      </trkpt>
      <trkpt lat="40.1367650" lon="-3.1000300">
        <ele>605.0</ele>
        <time>2019-07-07T11:44:57Z</time>
      </trkpt>
      <trkpt lat="40.1367360" lon="-3.1005880">
        <ele>604.8</ele>
        <time>2019-07-07T11:45:05Z</time>
      </trkpt>
      <trkpt lat="40.1367360" lon="-3.1011270">
        <ele>604.8</ele>
        <time>2019-07-07T11:45:13Z</time>
      </trkpt>
      <trkpt lat="40.1366900" lon="-3.1016290">
        <ele>604.8</ele>
        <time>2019-07-07T11:45:21Z</time>
      </trkpt>
      <trkpt lat="40.1366550" lon="-3.1020310">
        <ele>604.8</ele>
        <time>2019-07-07T11:45:27Z</time>
      </trkpt>
      <trkpt lat="40.1365740" lon="-3.1024230">
        <ele>604.8</ele>
        <time>2019-07-07T11:45:33Z</time>
      </trkpt>
      <trkpt lat="40.1365060" lon="-3.1028030">
        <ele>604.2</ele>
        <time>2019-07-07T11:45:38Z</time>
      </trkpt>
      <trkpt lat="40.1364970" lon="-3.1028870">
        <ele>603.8</ele>
        <time>2019-07-07T11:45:39Z</time>
      </trkpt>
      <trkpt lat="40.1364890" lon="-3.1030570">
        <ele>603.6</ele>
        <time>2019-07-07T11:45:41Z</time>
      </trkpt>
      <trkpt lat="40.1364920" lon="-3.1032170">
        <ele>603.4</ele>
        <time>2019-07-07T11:45:43Z</time>
      </trkpt>
      <trkpt lat="40.1364920" lon="-3.1032920">
        <ele>602.8</ele>
        <time>2019-07-07T11:45:44Z</time>
      </trkpt>
      <trkpt lat="40.1364850" lon="-3.1034390">
        <ele>601.8</ele>
        <time>2019-07-07T11:45:46Z</time>
      </trkpt>
      <trkpt lat="40.1364510" lon="-3.1036670">
        <ele>600.6</ele>
        <time>2019-07-07T11:45:49Z</time>
      </trkpt>
      <trkpt lat="40.1364330" lon="-3.1037400">
        <ele>600.4</ele>
        <time>2019-07-07T11:45:50Z</time>
      </trkpt>
      <trkpt lat="40.1363970" lon="-3.1038790">
        <ele>600.4</ele>
        <time>2019-07-07T11:45:52Z</time>
      </trkpt>
      <trkpt lat="40.1363660" lon="-3.1040830">
        <ele>599.6</ele>
        <time>2019-07-07T11:45:55Z</time>
      </trkpt>
      <trkpt lat="40.1363580" lon="-3.1041520">
        <ele>599.4</ele>
        <time>2019-07-07T11:45:56Z</time>
      </trkpt>
      <trkpt lat="40.1363210" lon="-3.1045340">
        <ele>598.8</ele>
        <time>2019-07-07T11:46:01Z</time>
      </trkpt>
      <trkpt lat="40.1363160" lon="-3.1046130">
        <ele>598.4</ele>
        <time>2019-07-07T11:46:02Z</time>
      </trkpt>
      <trkpt lat="40.1363080" lon="-3.1046920">
        <ele>598.2</ele>
        <time>2019-07-07T11:46:03Z</time>
      </trkpt>
      <trkpt lat="40.1363000" lon="-3.1047710">
        <ele>598.2</ele>
        <time>2019-07-07T11:46:04Z</time>
      </trkpt>
      <trkpt lat="40.1362610" lon="-3.1051570">
        <ele>597.6</ele>
        <time>2019-07-07T11:46:09Z</time>
      </trkpt>
      <trkpt lat="40.1362530" lon="-3.1052340">
        <ele>597.4</ele>
        <time>2019-07-07T11:46:10Z</time>
      </trkpt>
      <trkpt lat="40.1362340" lon="-3.1053930">
        <ele>597.4</ele>
        <time>2019-07-07T11:46:12Z</time>
      </trkpt>
      <trkpt lat="40.1361620" lon="-3.1058900">
        <ele>596.6</ele>
        <time>2019-07-07T11:46:18Z</time>
      </trkpt>
      <trkpt lat="40.1361120" lon="-3.1061410">
        <ele>596.6</ele>
        <time>2019-07-07T11:46:21Z</time>
      </trkpt>
      <trkpt lat="40.1360230" lon="-3.1064590">
        <ele>596.2</ele>
        <time>2019-07-07T11:46:25Z</time>
      </trkpt>
      <trkpt lat="40.1359470" lon="-3.1066860">
        <ele>595.2</ele>
        <time>2019-07-07T11:46:28Z</time>
      </trkpt>
      <trkpt lat="40.1358180" lon="-3.1071300">
        <ele>595.2</ele>
        <time>2019-07-07T11:46:34Z</time>
      </trkpt>
      <trkpt lat="40.1357230" lon="-3.1074740">
        <ele>595.4</ele>
        <time>2019-07-07T11:46:39Z</time>
      </trkpt>
      <trkpt lat="40.1357040" lon="-3.1075420">
        <ele>595.4</ele>
        <time>2019-07-07T11:46:40Z</time>
      </trkpt>
      <trkpt lat="40.1356100" lon="-3.1080340">
        <ele>595.6</ele>
        <time>2019-07-07T11:46:47Z</time>
      </trkpt>
      <trkpt lat="40.1355690" lon="-3.1082930">
        <ele>596.0</ele>
        <time>2019-07-07T11:46:51Z</time>
      </trkpt>
      <trkpt lat="40.1355600" lon="-3.1083550">
        <ele>596.4</ele>
        <time>2019-07-07T11:46:52Z</time>
      </trkpt>
      <trkpt lat="40.1355360" lon="-3.1085430">
        <ele>596.2</ele>
        <time>2019-07-07T11:46:55Z</time>
      </trkpt>
      <trkpt lat="40.1354970" lon="-3.1088770">
        <ele>596.0</ele>
        <time>2019-07-07T11:47:00Z</time>
      </trkpt>
      <trkpt lat="40.1354780" lon="-3.1090180">
        <ele>596.0</ele>
        <time>2019-07-07T11:47:02Z</time>
      </trkpt>
      <trkpt lat="40.1354130" lon="-3.1095450">
        <ele>596.2</ele>
        <time>2019-07-07T11:47:10Z</time>
      </trkpt>
      <trkpt lat="40.1353610" lon="-3.1098500">
        <ele>596.8</ele>
        <time>2019-07-07T11:47:15Z</time>
      </trkpt>
      <trkpt lat="40.1353150" lon="-3.1100920">
        <ele>597.0</ele>
        <time>2019-07-07T11:47:19Z</time>
      </trkpt>
      <trkpt lat="40.1352050" lon="-3.1106910">
        <ele>596.6</ele>
        <time>2019-07-07T11:47:28Z</time>
      </trkpt>
      <trkpt lat="40.1350910" lon="-3.1112330">
        <ele>595.8</ele>
        <time>2019-07-07T11:47:36Z</time>
      </trkpt>
      <trkpt lat="40.1350050" lon="-3.1115260">
        <ele>595.2</ele>
        <time>2019-07-07T11:47:40Z</time>
      </trkpt>
      <trkpt lat="40.1349310" lon="-3.1117440">
        <ele>595.6</ele>
        <time>2019-07-07T11:47:43Z</time>
      </trkpt>
      <trkpt lat="40.1348820" lon="-3.1118830">
        <ele>596.4</ele>
        <time>2019-07-07T11:47:45Z</time>
      </trkpt>
      <trkpt lat="40.1347610" lon="-3.1122740">
        <ele>595.8</ele>
        <time>2019-07-07T11:47:51Z</time>
      </trkpt>
      <trkpt lat="40.1345600" lon="-3.1127990">
        <ele>596.4</ele>
        <time>2019-07-07T11:48:00Z</time>
      </trkpt>
      <trkpt lat="40.1343660" lon="-3.1133370">
        <ele>597.0</ele>
        <time>2019-07-07T11:48:09Z</time>
      </trkpt>
      <trkpt lat="40.1342380" lon="-3.1139450">
        <ele>597.0</ele>
        <time>2019-07-07T11:48:18Z</time>
      </trkpt>
      <trkpt lat="40.1341100" lon="-3.1145210">
        <ele>596.8</ele>
        <time>2019-07-07T11:48:26Z</time>
      </trkpt>
      <trkpt lat="40.1339930" lon="-3.1152000">
        <ele>596.4</ele>
        <time>2019-07-07T11:48:35Z</time>
      </trkpt>
      <trkpt lat="40.1339770" lon="-3.1152800">
        <ele>596.4</ele>
        <time>2019-07-07T11:48:36Z</time>
      </trkpt>
      <trkpt lat="40.1339120" lon="-3.1155950">
        <ele>596.0</ele>
        <time>2019-07-07T11:48:40Z</time>
      </trkpt>
      <trkpt lat="40.1338540" lon="-3.1159800">
        <ele>595.8</ele>
        <time>2019-07-07T11:48:45Z</time>
      </trkpt>
      <trkpt lat="40.1338460" lon="-3.1161380">
        <ele>595.4</ele>
        <time>2019-07-07T11:48:47Z</time>
      </trkpt>
      <trkpt lat="40.1338420" lon="-3.1162180">
        <ele>595.4</ele>
        <time>2019-07-07T11:48:48Z</time>
      </trkpt>
      <trkpt lat="40.1338240" lon="-3.1163690">
        <ele>594.4</ele>
        <time>2019-07-07T11:48:50Z</time>
      </trkpt>
      <trkpt lat="40.1338100" lon="-3.1164400">
        <ele>594.2</ele>
        <time>2019-07-07T11:48:51Z</time>
      </trkpt>
      <trkpt lat="40.1337620" lon="-3.1166400">
        <ele>594.2</ele>
        <time>2019-07-07T11:48:54Z</time>
      </trkpt>
      <trkpt lat="40.1337320" lon="-3.1167670">
        <ele>594.8</ele>
        <time>2019-07-07T11:48:56Z</time>
      </trkpt>
      <trkpt lat="40.1336280" lon="-3.1172310">
        <ele>593.6</ele>
        <time>2019-07-07T11:49:03Z</time>
      </trkpt>
      <trkpt lat="40.1336140" lon="-3.1173000">
        <ele>593.4</ele>
        <time>2019-07-07T11:49:04Z</time>
      </trkpt>
      <trkpt lat="40.1335170" lon="-3.1176220">
        <ele>593.4</ele>
        <time>2019-07-07T11:49:09Z</time>
      </trkpt>
      <trkpt lat="40.1334910" lon="-3.1176780">
        <ele>593.4</ele>
        <time>2019-07-07T11:49:10Z</time>
      </trkpt>
      <trkpt lat="40.1334370" lon="-3.1177780">
        <ele>593.6</ele>
        <time>2019-07-07T11:49:12Z</time>
      </trkpt>
      <trkpt lat="40.1333460" lon="-3.1179010">
        <ele>594.2</ele>
        <time>2019-07-07T11:49:15Z</time>
      </trkpt>
      <trkpt lat="40.1333130" lon="-3.1179330">
        <ele>594.4</ele>
        <time>2019-07-07T11:49:16Z</time>
      </trkpt>
      <trkpt lat="40.1332810" lon="-3.1179600">
        <ele>594.4</ele>
        <time>2019-07-07T11:49:17Z</time>
      </trkpt>
      <trkpt lat="40.1331520" lon="-3.1180410">
        <ele>595.6</ele>
        <time>2019-07-07T11:49:21Z</time>
      </trkpt>
      <trkpt lat="40.1331180" lon="-3.1180510">
        <ele>596.0</ele>
        <time>2019-07-07T11:49:22Z</time>
      </trkpt>
      <trkpt lat="40.1330250" lon="-3.1180590">
        <ele>596.4</ele>
        <time>2019-07-07T11:49:25Z</time>
      </trkpt>
      <trkpt lat="40.1329670" lon="-3.1180440">
        <ele>596.8</ele>
        <time>2019-07-07T11:49:27Z</time>
      </trkpt>
      <trkpt lat="40.1328900" lon="-3.1179970">
        <ele>597.4</ele>
        <time>2019-07-07T11:49:30Z</time>
      </trkpt>
      <trkpt lat="40.1328430" lon="-3.1179560">
        <ele>597.8</ele>
        <time>2019-07-07T11:49:32Z</time>
      </trkpt>
      <trkpt lat="40.1328190" lon="-3.1179390">
        <ele>598.0</ele>
        <time>2019-07-07T11:49:33Z</time>
      </trkpt>
      <trkpt lat="40.1327380" lon="-3.1179050">
        <ele>598.6</ele>
        <time>2019-07-07T11:49:36Z</time>
      </trkpt>
      <trkpt lat="40.1326500" lon="-3.1178980">
        <ele>598.6</ele>
        <time>2019-07-07T11:49:39Z</time>
      </trkpt>
      <trkpt lat="40.1325600" lon="-3.1179110">
        <ele>599.2</ele>
        <time>2019-07-07T11:49:42Z</time>
      </trkpt>
      <trkpt lat="40.1324650" lon="-3.1179530">
        <ele>599.8</ele>
        <time>2019-07-07T11:49:45Z</time>
      </trkpt>
      <trkpt lat="40.1322710" lon="-3.1180310">
        <ele>600.0</ele>
        <time>2019-07-07T11:49:51Z</time>
      </trkpt>
      <trkpt lat="40.1322380" lon="-3.1180420">
        <ele>600.0</ele>
        <time>2019-07-07T11:49:52Z</time>
      </trkpt>
      <trkpt lat="40.1321700" lon="-3.1180610">
        <ele>600.2</ele>
        <time>2019-07-07T11:49:54Z</time>
      </trkpt>
      <trkpt lat="40.1319890" lon="-3.1181460">
        <ele>600.8</ele>
        <time>2019-07-07T11:49:59Z</time>
      </trkpt>
      <trkpt lat="40.1317140" lon="-3.1183740">
        <ele>600.8</ele>
        <time>2019-07-07T11:50:06Z</time>
      </trkpt>
      <trkpt lat="40.1315300" lon="-3.1185400">
        <ele>599.8</ele>
        <time>2019-07-07T11:50:10Z</time>
      </trkpt>
      <trkpt lat="40.1314440" lon="-3.1186370">
        <ele>599.6</ele>
        <time>2019-07-07T11:50:12Z</time>
      </trkpt>
      <trkpt lat="40.1314070" lon="-3.1186880">
        <ele>599.6</ele>
        <time>2019-07-07T11:50:13Z</time>
      </trkpt>
      <trkpt lat="40.1313400" lon="-3.1188150">
        <ele>599.4</ele>
        <time>2019-07-07T11:50:15Z</time>
      </trkpt>
      <trkpt lat="40.1313050" lon="-3.1188890">
        <ele>599.2</ele>
        <time>2019-07-07T11:50:16Z</time>
      </trkpt>
      <trkpt lat="40.1312670" lon="-3.1189670">
        <ele>598.6</ele>
        <time>2019-07-07T11:50:17Z</time>
      </trkpt>
      <trkpt lat="40.1312270" lon="-3.1190440">
        <ele>597.6</ele>
        <time>2019-07-07T11:50:18Z</time>
      </trkpt>
      <trkpt lat="40.1311490" lon="-3.1191820">
        <ele>596.4</ele>
        <time>2019-07-07T11:50:20Z</time>
      </trkpt>
      <trkpt lat="40.1310630" lon="-3.1193180">
        <ele>594.6</ele>
        <time>2019-07-07T11:50:22Z</time>
      </trkpt>
      <trkpt lat="40.1310230" lon="-3.1193930">
        <ele>594.0</ele>
        <time>2019-07-07T11:50:23Z</time>
      </trkpt>
      <trkpt lat="40.1309540" lon="-3.1195530">
        <ele>593.4</ele>
        <time>2019-07-07T11:50:25Z</time>
      </trkpt>
      <trkpt lat="40.1309290" lon="-3.1196370">
        <ele>593.4</ele>
        <time>2019-07-07T11:50:26Z</time>
      </trkpt>
      <trkpt lat="40.1309120" lon="-3.1197240">
        <ele>593.4</ele>
        <time>2019-07-07T11:50:27Z</time>
      </trkpt>
      <trkpt lat="40.1308800" lon="-3.1199030">
        <ele>592.8</ele>
        <time>2019-07-07T11:50:29Z</time>
      </trkpt>
      <trkpt lat="40.1308020" lon="-3.1200480">
        <ele>592.4</ele>
        <time>2019-07-07T11:50:31Z</time>
      </trkpt>
      <trkpt lat="40.1306880" lon="-3.1201460">
        <ele>591.8</ele>
        <time>2019-07-07T11:50:33Z</time>
      </trkpt>
      <trkpt lat="40.1306250" lon="-3.1201760">
        <ele>591.6</ele>
        <time>2019-07-07T11:50:34Z</time>
      </trkpt>
      <trkpt lat="40.1305610" lon="-3.1201960">
        <ele>591.2</ele>
        <time>2019-07-07T11:50:35Z</time>
      </trkpt>
      <trkpt lat="40.1304980" lon="-3.1202100">
        <ele>591.2</ele>
        <time>2019-07-07T11:50:36Z</time>
      </trkpt>
      <trkpt lat="40.1303280" lon="-3.1202480">
        <ele>591.0</ele>
        <time>2019-07-07T11:50:39Z</time>
      </trkpt>
      <trkpt lat="40.1302790" lon="-3.1202660">
        <ele>591.0</ele>
        <time>2019-07-07T11:50:40Z</time>
      </trkpt>
      <trkpt lat="40.1301940" lon="-3.1203080">
        <ele>591.2</ele>
        <time>2019-07-07T11:50:42Z</time>
      </trkpt>
      <trkpt lat="40.1301230" lon="-3.1203500">
        <ele>591.6</ele>
        <time>2019-07-07T11:50:44Z</time>
      </trkpt>
      <trkpt lat="40.1300330" lon="-3.1204100">
        <ele>592.4</ele>
        <time>2019-07-07T11:50:47Z</time>
      </trkpt>
      <trkpt lat="40.1299150" lon="-3.1204850">
        <ele>593.4</ele>
        <time>2019-07-07T11:50:51Z</time>
      </trkpt>
      <trkpt lat="40.1298880" lon="-3.1205070">
        <ele>593.6</ele>
        <time>2019-07-07T11:50:52Z</time>
      </trkpt>
      <trkpt lat="40.1297870" lon="-3.1206100">
        <ele>594.0</ele>
        <time>2019-07-07T11:50:56Z</time>
      </trkpt>
      <trkpt lat="40.1297400" lon="-3.1206690">
        <ele>594.0</ele>
        <time>2019-07-07T11:50:58Z</time>
      </trkpt>
      <trkpt lat="40.1296520" lon="-3.1208040">
        <ele>594.8</ele>
        <time>2019-07-07T11:51:02Z</time>
      </trkpt>
      <trkpt lat="40.1295710" lon="-3.1209650">
        <ele>595.6</ele>
        <time>2019-07-07T11:51:06Z</time>
      </trkpt>
      <trkpt lat="40.1295310" lon="-3.1210570">
        <ele>595.8</ele>
        <time>2019-07-07T11:51:08Z</time>
      </trkpt>
      <trkpt lat="40.1293780" lon="-3.1213970">
        <ele>596.2</ele>
        <time>2019-07-07T11:51:15Z</time>
      </trkpt>
      <trkpt lat="40.1291930" lon="-3.1217790">
        <ele>596.6</ele>
        <time>2019-07-07T11:51:23Z</time>
      </trkpt>
      <trkpt lat="40.1290450" lon="-3.1220460">
        <ele>596.4</ele>
        <time>2019-07-07T11:51:29Z</time>
      </trkpt>
      <trkpt lat="40.1289430" lon="-3.1222180">
        <ele>596.8</ele>
        <time>2019-07-07T11:51:33Z</time>
      </trkpt>
      <trkpt lat="40.1289170" lon="-3.1222600">
        <ele>597.2</ele>
        <time>2019-07-07T11:51:34Z</time>
      </trkpt>
      <trkpt lat="40.1287060" lon="-3.1226000">
        <ele>597.4</ele>
        <time>2019-07-07T11:51:42Z</time>
      </trkpt>
      <trkpt lat="40.1285020" lon="-3.1229130">
        <ele>598.0</ele>
        <time>2019-07-07T11:51:49Z</time>
      </trkpt>
      <trkpt lat="40.1284130" lon="-3.1230560">
        <ele>598.0</ele>
        <time>2019-07-07T11:51:52Z</time>
      </trkpt>
      <trkpt lat="40.1281400" lon="-3.1235050">
        <ele>597.4</ele>
        <time>2019-07-07T11:52:01Z</time>
      </trkpt>
      <trkpt lat="40.1279900" lon="-3.1237790">
        <ele>597.2</ele>
        <time>2019-07-07T11:52:06Z</time>
      </trkpt>
      <trkpt lat="40.1278670" lon="-3.1239860">
        <ele>597.2</ele>
        <time>2019-07-07T11:52:10Z</time>
      </trkpt>
      <trkpt lat="40.1277530" lon="-3.1241850">
        <ele>597.0</ele>
        <time>2019-07-07T11:52:14Z</time>
      </trkpt>
      <trkpt lat="40.1276540" lon="-3.1243210">
        <ele>597.0</ele>
        <time>2019-07-07T11:52:17Z</time>
      </trkpt>
      <trkpt lat="40.1273380" lon="-3.1246650">
        <ele>597.0</ele>
        <time>2019-07-07T11:52:25Z</time>
      </trkpt>
      <trkpt lat="40.1271500" lon="-3.1249880">
        <ele>596.8</ele>
        <time>2019-07-07T11:52:31Z</time>
      </trkpt>
      <trkpt lat="40.1269490" lon="-3.1252720">
        <ele>597.4</ele>
        <time>2019-07-07T11:52:37Z</time>
      </trkpt>
      <trkpt lat="40.1267650" lon="-3.1254860">
        <ele>598.4</ele>
        <time>2019-07-07T11:52:43Z</time>
      </trkpt>
      <trkpt lat="40.1267350" lon="-3.1255170">
        <ele>598.6</ele>
        <time>2019-07-07T11:52:44Z</time>
      </trkpt>
      <trkpt lat="40.1265470" lon="-3.1256860">
        <ele>599.4</ele>
        <time>2019-07-07T11:52:50Z</time>
      </trkpt>
      <trkpt lat="40.1265140" lon="-3.1257180">
        <ele>599.6</ele>
        <time>2019-07-07T11:52:51Z</time>
      </trkpt>
      <trkpt lat="40.1263300" lon="-3.1259170">
        <ele>599.8</ele>
        <time>2019-07-07T11:52:57Z</time>
      </trkpt>
      <trkpt lat="40.1261070" lon="-3.1262620">
        <ele>600.6</ele>
        <time>2019-07-07T11:53:06Z</time>
      </trkpt>
      <trkpt lat="40.1260450" lon="-3.1265570">
        <ele>601.6</ele>
        <time>2019-07-07T11:53:12Z</time>
      </trkpt>
      <trkpt lat="40.1260370" lon="-3.1266080">
        <ele>601.8</ele>
        <time>2019-07-07T11:53:13Z</time>
      </trkpt>
      <trkpt lat="40.1259460" lon="-3.1268910">
        <ele>602.4</ele>
        <time>2019-07-07T11:53:19Z</time>
      </trkpt>
      <trkpt lat="40.1258910" lon="-3.1270000">
        <ele>603.0</ele>
        <time>2019-07-07T11:53:22Z</time>
      </trkpt>
      <trkpt lat="40.1258210" lon="-3.1271400">
        <ele>603.8</ele>
        <time>2019-07-07T11:53:26Z</time>
      </trkpt>
      <trkpt lat="40.1258040" lon="-3.1271750">
        <ele>604.0</ele>
        <time>2019-07-07T11:53:27Z</time>
      </trkpt>
      <trkpt lat="40.1257410" lon="-3.1273300">
        <ele>605.4</ele>
        <time>2019-07-07T11:53:31Z</time>
      </trkpt>
      <trkpt lat="40.1256860" lon="-3.1275050">
        <ele>605.8</ele>
        <time>2019-07-07T11:53:35Z</time>
      </trkpt>
      <trkpt lat="40.1255380" lon="-3.1278680">
        <ele>605.8</ele>
        <time>2019-07-07T11:53:43Z</time>
      </trkpt>
      <trkpt lat="40.1253620" lon="-3.1282490">
        <ele>604.8</ele>
        <time>2019-07-07T11:53:50Z</time>
      </trkpt>
      <trkpt lat="40.1252530" lon="-3.1284970">
        <ele>604.6</ele>
        <time>2019-07-07T11:53:54Z</time>
      </trkpt>
      <trkpt lat="40.1251770" lon="-3.1286900">
        <ele>604.2</ele>
        <time>2019-07-07T11:53:57Z</time>
      </trkpt>
      <trkpt lat="40.1251320" lon="-3.1288210">
        <ele>603.8</ele>
        <time>2019-07-07T11:53:59Z</time>
      </trkpt>
      <trkpt lat="40.1250810" lon="-3.1289480">
        <ele>603.6</ele>
        <time>2019-07-07T11:54:01Z</time>
      </trkpt>
      <trkpt lat="40.1250400" lon="-3.1290810">
        <ele>604.0</ele>
        <time>2019-07-07T11:54:03Z</time>
      </trkpt>
      <trkpt lat="40.1249810" lon="-3.1292570">
        <ele>604.0</ele>
        <time>2019-07-07T11:54:06Z</time>
      </trkpt>
      <trkpt lat="40.1249570" lon="-3.1293080">
        <ele>604.0</ele>
        <time>2019-07-07T11:54:07Z</time>
      </trkpt>
      <trkpt lat="40.1249030" lon="-3.1294080">
        <ele>603.4</ele>
        <time>2019-07-07T11:54:09Z</time>
      </trkpt>
      <trkpt lat="40.1248200" lon="-3.1295660">
        <ele>603.6</ele>
        <time>2019-07-07T11:54:12Z</time>
      </trkpt>
      <trkpt lat="40.1246300" lon="-3.1299670">
        <ele>603.8</ele>
        <time>2019-07-07T11:54:19Z</time>
      </trkpt>
      <trkpt lat="40.1245660" lon="-3.1301550">
        <ele>603.2</ele>
        <time>2019-07-07T11:54:22Z</time>
      </trkpt>
      <trkpt lat="40.1244660" lon="-3.1304750">
        <ele>603.4</ele>
        <time>2019-07-07T11:54:27Z</time>
      </trkpt>
      <trkpt lat="40.1243040" lon="-3.1309110">
        <ele>603.4</ele>
        <time>2019-07-07T11:54:34Z</time>
      </trkpt>
      <trkpt lat="40.1240840" lon="-3.1314520">
        <ele>603.2</ele>
        <time>2019-07-07T11:54:42Z</time>
      </trkpt>
      <trkpt lat="40.1239320" lon="-3.1317990">
        <ele>602.2</ele>
        <time>2019-07-07T11:54:47Z</time>
      </trkpt>
      <trkpt lat="40.1238760" lon="-3.1319240">
        <ele>601.8</ele>
        <time>2019-07-07T11:54:49Z</time>
      </trkpt>
      <trkpt lat="40.1238530" lon="-3.1319860">
        <ele>601.8</ele>
        <time>2019-07-07T11:54:50Z</time>
      </trkpt>
      <trkpt lat="40.1237950" lon="-3.1321750">
        <ele>601.6</ele>
        <time>2019-07-07T11:54:53Z</time>
      </trkpt>
      <trkpt lat="40.1237690" lon="-3.1322350">
        <ele>601.6</ele>
        <time>2019-07-07T11:54:54Z</time>
      </trkpt>
      <trkpt lat="40.1236930" lon="-3.1324100">
        <ele>601.6</ele>
        <time>2019-07-07T11:54:57Z</time>
      </trkpt>
      <trkpt lat="40.1236190" lon="-3.1325860">
        <ele>601.2</ele>
        <time>2019-07-07T11:55:00Z</time>
      </trkpt>
      <trkpt lat="40.1235950" lon="-3.1326470">
        <ele>601.0</ele>
        <time>2019-07-07T11:55:01Z</time>
      </trkpt>
      <trkpt lat="40.1234200" lon="-3.1330770">
        <ele>601.4</ele>
        <time>2019-07-07T11:55:08Z</time>
      </trkpt>
      <trkpt lat="40.1234010" lon="-3.1331400">
        <ele>601.4</ele>
        <time>2019-07-07T11:55:09Z</time>
      </trkpt>
      <trkpt lat="40.1233140" lon="-3.1335150">
        <ele>601.0</ele>
        <time>2019-07-07T11:55:15Z</time>
      </trkpt>
      <trkpt lat="40.1233000" lon="-3.1335740">
        <ele>601.0</ele>
        <time>2019-07-07T11:55:16Z</time>
      </trkpt>
      <trkpt lat="40.1231970" lon="-3.1337860">
        <ele>601.4</ele>
        <time>2019-07-07T11:55:20Z</time>
      </trkpt>
      <trkpt lat="40.1228970" lon="-3.1342690">
        <ele>601.0</ele>
        <time>2019-07-07T11:55:29Z</time>
      </trkpt>
      <trkpt lat="40.1226480" lon="-3.1346490">
        <ele>600.4</ele>
        <time>2019-07-07T11:55:36Z</time>
      </trkpt>
      <trkpt lat="40.1225780" lon="-3.1347560">
        <ele>600.4</ele>
        <time>2019-07-07T11:55:38Z</time>
      </trkpt>
      <trkpt lat="40.1225440" lon="-3.1348100">
        <ele>600.2</ele>
        <time>2019-07-07T11:55:39Z</time>
      </trkpt>
      <trkpt lat="40.1223860" lon="-3.1350050">
        <ele>599.2</ele>
        <time>2019-07-07T11:55:43Z</time>
      </trkpt>
      <trkpt lat="40.1223460" lon="-3.1350460">
        <ele>598.6</ele>
        <time>2019-07-07T11:55:44Z</time>
      </trkpt>
      <trkpt lat="40.1222390" lon="-3.1351630">
        <ele>597.6</ele>
        <time>2019-07-07T11:55:47Z</time>
      </trkpt>
      <trkpt lat="40.1221540" lon="-3.1352610">
        <ele>596.2</ele>
        <time>2019-07-07T11:55:50Z</time>
      </trkpt>
      <trkpt lat="40.1220700" lon="-3.1353850">
        <ele>595.2</ele>
        <time>2019-07-07T11:55:54Z</time>
      </trkpt>
      <trkpt lat="40.1220390" lon="-3.1354550">
        <ele>594.2</ele>
        <time>2019-07-07T11:55:56Z</time>
      </trkpt>
      <trkpt lat="40.1220240" lon="-3.1354950">
        <ele>594.0</ele>
        <time>2019-07-07T11:55:57Z</time>
      </trkpt>
      <trkpt lat="40.1219710" lon="-3.1357520">
        <ele>593.0</ele>
        <time>2019-07-07T11:56:02Z</time>
      </trkpt>
      <trkpt lat="40.1219570" lon="-3.1358110">
        <ele>592.6</ele>
        <time>2019-07-07T11:56:03Z</time>
      </trkpt>
      <trkpt lat="40.1219220" lon="-3.1359330">
        <ele>591.8</ele>
        <time>2019-07-07T11:56:05Z</time>
      </trkpt>
      <trkpt lat="40.1218660" lon="-3.1361120">
        <ele>591.8</ele>
        <time>2019-07-07T11:56:08Z</time>
      </trkpt>
      <trkpt lat="40.1217490" lon="-3.1364740">
        <ele>591.6</ele>
        <time>2019-07-07T11:56:14Z</time>
      </trkpt>
      <trkpt lat="40.1216990" lon="-3.1365880">
        <ele>591.2</ele>
        <time>2019-07-07T11:56:16Z</time>
      </trkpt>
      <trkpt lat="40.1216470" lon="-3.1367010">
        <ele>591.0</ele>
        <time>2019-07-07T11:56:18Z</time>
      </trkpt>
      <trkpt lat="40.1215930" lon="-3.1368150">
        <ele>590.8</ele>
        <time>2019-07-07T11:56:20Z</time>
      </trkpt>
      <trkpt lat="40.1214560" lon="-3.1370360">
        <ele>591.0</ele>
        <time>2019-07-07T11:56:24Z</time>
      </trkpt>
      <trkpt lat="40.1213730" lon="-3.1371390">
        <ele>590.8</ele>
        <time>2019-07-07T11:56:26Z</time>
      </trkpt>
      <trkpt lat="40.1212670" lon="-3.1373140">
        <ele>590.4</ele>
        <time>2019-07-07T11:56:29Z</time>
      </trkpt>
      <trkpt lat="40.1210520" lon="-3.1377430">
        <ele>590.0</ele>
        <time>2019-07-07T11:56:36Z</time>
      </trkpt>
      <trkpt lat="40.1209640" lon="-3.1379190">
        <ele>590.4</ele>
        <time>2019-07-07T11:56:39Z</time>
      </trkpt>
      <trkpt lat="40.1208690" lon="-3.1380800">
        <ele>590.8</ele>
        <time>2019-07-07T11:56:42Z</time>
      </trkpt>
      <trkpt lat="40.1206760" lon="-3.1384280">
        <ele>590.8</ele>
        <time>2019-07-07T11:56:49Z</time>
      </trkpt>
      <trkpt lat="40.1206490" lon="-3.1384750">
        <ele>590.8</ele>
        <time>2019-07-07T11:56:50Z</time>
      </trkpt>
      <trkpt lat="40.1204180" lon="-3.1388530">
        <ele>590.6</ele>
        <time>2019-07-07T11:56:57Z</time>
      </trkpt>
      <trkpt lat="40.1203300" lon="-3.1390280">
        <ele>591.0</ele>
        <time>2019-07-07T11:57:00Z</time>
      </trkpt>
      <trkpt lat="40.1202860" lon="-3.1391450">
        <ele>591.2</ele>
        <time>2019-07-07T11:57:02Z</time>
      </trkpt>
      <trkpt lat="40.1202700" lon="-3.1392040">
        <ele>591.2</ele>
        <time>2019-07-07T11:57:03Z</time>
      </trkpt>
      <trkpt lat="40.1202370" lon="-3.1394440">
        <ele>590.6</ele>
        <time>2019-07-07T11:57:07Z</time>
      </trkpt>
      <trkpt lat="40.1202160" lon="-3.1396430">
        <ele>590.0</ele>
        <time>2019-07-07T11:57:10Z</time>
      </trkpt>
      <trkpt lat="40.1202120" lon="-3.1397770">
        <ele>590.0</ele>
        <time>2019-07-07T11:57:12Z</time>
      </trkpt>
      <trkpt lat="40.1202030" lon="-3.1401950">
        <ele>589.8</ele>
        <time>2019-07-07T11:57:18Z</time>
      </trkpt>
      <trkpt lat="40.1201980" lon="-3.1404050">
        <ele>589.2</ele>
        <time>2019-07-07T11:57:21Z</time>
      </trkpt>
      <trkpt lat="40.1202130" lon="-3.1409610">
        <ele>589.2</ele>
        <time>2019-07-07T11:57:29Z</time>
      </trkpt>
      <trkpt lat="40.1201820" lon="-3.1413690">
        <ele>588.6</ele>
        <time>2019-07-07T11:57:35Z</time>
      </trkpt>
      <trkpt lat="40.1201700" lon="-3.1414340">
        <ele>588.4</ele>
        <time>2019-07-07T11:57:36Z</time>
      </trkpt>
      <trkpt lat="40.1200600" lon="-3.1420860">
        <ele>589.0</ele>
        <time>2019-07-07T11:57:46Z</time>
      </trkpt>
      <trkpt lat="40.1199490" lon="-3.1424510">
        <ele>589.0</ele>
        <time>2019-07-07T11:57:52Z</time>
      </trkpt>
      <trkpt lat="40.1197690" lon="-3.1429040">
        <ele>589.0</ele>
        <time>2019-07-07T11:58:00Z</time>
      </trkpt>
      <trkpt lat="40.1197540" lon="-3.1429650">
        <ele>589.2</ele>
        <time>2019-07-07T11:58:01Z</time>
      </trkpt>
      <trkpt lat="40.1196050" lon="-3.1434910">
        <ele>589.2</ele>
        <time>2019-07-07T11:58:10Z</time>
      </trkpt>
      <trkpt lat="40.1194320" lon="-3.1439930">
        <ele>587.8</ele>
        <time>2019-07-07T11:58:19Z</time>
      </trkpt>
      <trkpt lat="40.1194080" lon="-3.1440490">
        <ele>587.8</ele>
        <time>2019-07-07T11:58:20Z</time>
      </trkpt>
      <trkpt lat="40.1192420" lon="-3.1443710">
        <ele>588.2</ele>
        <time>2019-07-07T11:58:26Z</time>
      </trkpt>
      <trkpt lat="40.1191520" lon="-3.1445120">
        <ele>588.2</ele>
        <time>2019-07-07T11:58:29Z</time>
      </trkpt>
      <trkpt lat="40.1190610" lon="-3.1446420">
        <ele>588.2</ele>
        <time>2019-07-07T11:58:32Z</time>
      </trkpt>
      <trkpt lat="40.1189530" lon="-3.1448420">
        <ele>588.2</ele>
        <time>2019-07-07T11:58:36Z</time>
      </trkpt>
      <trkpt lat="40.1189140" lon="-3.1449550">
        <ele>588.2</ele>
        <time>2019-07-07T11:58:38Z</time>
      </trkpt>
      <trkpt lat="40.1188840" lon="-3.1450720">
        <ele>588.2</ele>
        <time>2019-07-07T11:58:40Z</time>
      </trkpt>
      <trkpt lat="40.1188390" lon="-3.1453140">
        <ele>588.4</ele>
        <time>2019-07-07T11:58:44Z</time>
      </trkpt>
      <trkpt lat="40.1187590" lon="-3.1458240">
        <ele>588.4</ele>
        <time>2019-07-07T11:58:52Z</time>
      </trkpt>
      <trkpt lat="40.1187030" lon="-3.1463460">
        <ele>587.0</ele>
        <time>2019-07-07T11:59:00Z</time>
      </trkpt>
      <trkpt lat="40.1187010" lon="-3.1464080">
        <ele>586.8</ele>
        <time>2019-07-07T11:59:01Z</time>
      </trkpt>
      <trkpt lat="40.1186870" lon="-3.1466430">
        <ele>587.4</ele>
        <time>2019-07-07T11:59:05Z</time>
      </trkpt>
      <trkpt lat="40.1186600" lon="-3.1468020">
        <ele>587.6</ele>
        <time>2019-07-07T11:59:08Z</time>
      </trkpt>
      <trkpt lat="40.1186140" lon="-3.1469580">
        <ele>587.6</ele>
        <time>2019-07-07T11:59:11Z</time>
      </trkpt>
      <trkpt lat="40.1185750" lon="-3.1470630">
        <ele>588.0</ele>
        <time>2019-07-07T11:59:13Z</time>
      </trkpt>
      <trkpt lat="40.1185060" lon="-3.1472240">
        <ele>588.4</ele>
        <time>2019-07-07T11:59:16Z</time>
      </trkpt>
      <trkpt lat="40.1183070" lon="-3.1476430">
        <ele>587.8</ele>
        <time>2019-07-07T11:59:24Z</time>
      </trkpt>
      <trkpt lat="40.1180630" lon="-3.1480180">
        <ele>588.4</ele>
        <time>2019-07-07T11:59:32Z</time>
      </trkpt>
      <trkpt lat="40.1178500" lon="-3.1483490">
        <ele>588.0</ele>
        <time>2019-07-07T11:59:39Z</time>
      </trkpt>
      <trkpt lat="40.1175990" lon="-3.1487660">
        <ele>587.8</ele>
        <time>2019-07-07T11:59:47Z</time>
      </trkpt>
      <trkpt lat="40.1173970" lon="-3.1491540">
        <ele>587.8</ele>
        <time>2019-07-07T11:59:54Z</time>
      </trkpt>
      <trkpt lat="40.1173420" lon="-3.1492660">
        <ele>587.8</ele>
        <time>2019-07-07T11:59:56Z</time>
      </trkpt>
      <trkpt lat="40.1173300" lon="-3.1494300">
        <ele>587.4</ele>
        <time>2019-07-07T11:59:59Z</time>
      </trkpt>
      <trkpt lat="40.1174210" lon="-3.1495060">
        <ele>587.2</ele>
        <time>2019-07-07T12:00:02Z</time>
      </trkpt>
      <trkpt lat="40.1174600" lon="-3.1495200">
        <ele>587.2</ele>
        <time>2019-07-07T12:00:03Z</time>
      </trkpt>
      <trkpt lat="40.1177190" lon="-3.1496190">
        <ele>587.6</ele>
        <time>2019-07-07T12:00:09Z</time>
      </trkpt>
      <trkpt lat="40.1181230" lon="-3.1498010">
        <ele>587.2</ele>
        <time>2019-07-07T12:00:18Z</time>
      </trkpt>
      <trkpt lat="40.1182620" lon="-3.1498140">
        <ele>587.0</ele>
        <time>2019-07-07T12:00:21Z</time>
      </trkpt>
      <trkpt lat="40.1183390" lon="-3.1498560">
        <ele>586.8</ele>
        <time>2019-07-07T12:00:23Z</time>
      </trkpt>
      <trkpt lat="40.1184020" lon="-3.1499780">
        <ele>585.8</ele>
        <time>2019-07-07T12:00:27Z</time>
      </trkpt>
      <trkpt lat="40.1183980" lon="-3.1500610">
        <ele>585.0</ele>
        <time>2019-07-07T12:00:29Z</time>
      </trkpt>
      <trkpt lat="40.1183940" lon="-3.1501050">
        <ele>584.6</ele>
        <time>2019-07-07T12:00:30Z</time>
      </trkpt>
      <trkpt lat="40.1183850" lon="-3.1501410">
        <ele>584.4</ele>
        <time>2019-07-07T12:00:31Z</time>
      </trkpt>
      <trkpt lat="40.1183440" lon="-3.1503270">
        <ele>584.0</ele>
        <time>2019-07-07T12:00:36Z</time>
      </trkpt>
      <trkpt lat="40.1183080" lon="-3.1504460">
        <ele>584.4</ele>
        <time>2019-07-07T12:00:40Z</time>
      </trkpt>
      <trkpt lat="40.1182160" lon="-3.1505160">
        <ele>585.2</ele>
        <time>2019-07-07T12:00:45Z</time>
      </trkpt>
      <trkpt lat="40.1181540" lon="-3.1504640">
        <ele>586.0</ele>
        <time>2019-07-07T12:00:50Z</time>
      </trkpt>
      <trkpt lat="40.1180440" lon="-3.1503810">
        <ele>586.0</ele>
        <time>2019-07-07T12:00:56Z</time>
      </trkpt>
      <trkpt lat="40.1180200" lon="-3.1503620">
        <ele>586.2</ele>
        <time>2019-07-07T12:00:57Z</time>
      </trkpt>
      <trkpt lat="40.1178580" lon="-3.1502560">
        <ele>586.4</ele>
        <time>2019-07-07T12:01:03Z</time>
      </trkpt>
      <trkpt lat="40.1176270" lon="-3.1501340">
        <ele>586.8</ele>
        <time>2019-07-07T12:01:10Z</time>
      </trkpt>
      <trkpt lat="40.1174760" lon="-3.1500700">
        <ele>586.2</ele>
        <time>2019-07-07T12:01:14Z</time>
      </trkpt>
      <trkpt lat="40.1173560" lon="-3.1500320">
        <ele>586.0</ele>
        <time>2019-07-07T12:01:17Z</time>
      </trkpt>
      <trkpt lat="40.1173130" lon="-3.1500230">
        <ele>586.0</ele>
        <time>2019-07-07T12:01:18Z</time>
      </trkpt>
      <trkpt lat="40.1171030" lon="-3.1499580">
        <ele>587.0</ele>
        <time>2019-07-07T12:01:23Z</time>
      </trkpt>
      <trkpt lat="40.1170620" lon="-3.1499540">
        <ele>587.0</ele>
        <time>2019-07-07T12:01:24Z</time>
      </trkpt>
      <trkpt lat="40.1170210" lon="-3.1499580">
        <ele>587.0</ele>
        <time>2019-07-07T12:01:25Z</time>
      </trkpt>
      <trkpt lat="40.1168770" lon="-3.1500580">
        <ele>587.2</ele>
        <time>2019-07-07T12:01:29Z</time>
      </trkpt>
      <trkpt lat="40.1168260" lon="-3.1501440">
        <ele>587.0</ele>
        <time>2019-07-07T12:01:31Z</time>
      </trkpt>
      <trkpt lat="40.1167700" lon="-3.1502320">
        <ele>587.2</ele>
        <time>2019-07-07T12:01:33Z</time>
      </trkpt>
      <trkpt lat="40.1167120" lon="-3.1503260">
        <ele>587.0</ele>
        <time>2019-07-07T12:01:35Z</time>
      </trkpt>
      <trkpt lat="40.1166790" lon="-3.1504350">
        <ele>587.0</ele>
        <time>2019-07-07T12:01:37Z</time>
      </trkpt>
      <trkpt lat="40.1166680" lon="-3.1505300">
        <ele>587.2</ele>
        <time>2019-07-07T12:01:39Z</time>
      </trkpt>
      <trkpt lat="40.1166880" lon="-3.1506400">
        <ele>587.2</ele>
        <time>2019-07-07T12:01:42Z</time>
      </trkpt>
      <trkpt lat="40.1166940" lon="-3.1506960">
        <ele>587.6</ele>
        <time>2019-07-07T12:01:44Z</time>
      </trkpt>
      <trkpt lat="40.1166410" lon="-3.1507390">
        <ele>587.8</ele>
        <time>2019-07-07T12:01:47Z</time>
      </trkpt>
      <trkpt lat="40.1164980" lon="-3.1508280">
        <ele>587.8</ele>
        <time>2019-07-07T12:01:51Z</time>
      </trkpt>
      <trkpt lat="40.1164160" lon="-3.1509350">
        <ele>587.4</ele>
        <time>2019-07-07T12:01:53Z</time>
      </trkpt>
      <trkpt lat="40.1162780" lon="-3.1511240">
        <ele>586.6</ele>
        <time>2019-07-07T12:01:56Z</time>
      </trkpt>
      <trkpt lat="40.1161870" lon="-3.1512600">
        <ele>585.8</ele>
        <time>2019-07-07T12:01:58Z</time>
      </trkpt>
      <trkpt lat="40.1161460" lon="-3.1513290">
        <ele>585.6</ele>
        <time>2019-07-07T12:01:59Z</time>
      </trkpt>
      <trkpt lat="40.1160310" lon="-3.1515290">
        <ele>585.0</ele>
        <time>2019-07-07T12:02:02Z</time>
      </trkpt>
      <trkpt lat="40.1158780" lon="-3.1517710">
        <ele>585.0</ele>
        <time>2019-07-07T12:02:06Z</time>
      </trkpt>
      <trkpt lat="40.1158020" lon="-3.1518960">
        <ele>584.8</ele>
        <time>2019-07-07T12:02:08Z</time>
      </trkpt>
      <trkpt lat="40.1157600" lon="-3.1519550">
        <ele>584.8</ele>
        <time>2019-07-07T12:02:09Z</time>
      </trkpt>
      <trkpt lat="40.1154900" lon="-3.1523080">
        <ele>584.6</ele>
        <time>2019-07-07T12:02:15Z</time>
      </trkpt>
      <trkpt lat="40.1152490" lon="-3.1526190">
        <ele>584.2</ele>
        <time>2019-07-07T12:02:20Z</time>
      </trkpt>
      <trkpt lat="40.1151120" lon="-3.1528230">
        <ele>584.2</ele>
        <time>2019-07-07T12:02:23Z</time>
      </trkpt>
      <trkpt lat="40.1148830" lon="-3.1531770">
        <ele>584.2</ele>
        <time>2019-07-07T12:02:28Z</time>
      </trkpt>
      <trkpt lat="40.1147600" lon="-3.1533880">
        <ele>584.6</ele>
        <time>2019-07-07T12:02:31Z</time>
      </trkpt>
      <trkpt lat="40.1144170" lon="-3.1538810">
        <ele>584.2</ele>
        <time>2019-07-07T12:02:39Z</time>
      </trkpt>
      <trkpt lat="40.1141990" lon="-3.1541090">
        <ele>584.4</ele>
        <time>2019-07-07T12:02:44Z</time>
      </trkpt>
      <trkpt lat="40.1140880" lon="-3.1542140">
        <ele>585.2</ele>
        <time>2019-07-07T12:02:47Z</time>
      </trkpt>
      <trkpt lat="40.1140390" lon="-3.1543090">
        <ele>585.6</ele>
        <time>2019-07-07T12:02:49Z</time>
      </trkpt>
      <trkpt lat="40.1139820" lon="-3.1545070">
        <ele>586.0</ele>
        <time>2019-07-07T12:02:53Z</time>
      </trkpt>
      <trkpt lat="40.1139360" lon="-3.1546330">
        <ele>586.2</ele>
        <time>2019-07-07T12:02:56Z</time>
      </trkpt>
      <trkpt lat="40.1138490" lon="-3.1547940">
        <ele>586.8</ele>
        <time>2019-07-07T12:03:01Z</time>
      </trkpt>
      <trkpt lat="40.1138330" lon="-3.1548290">
        <ele>586.8</ele>
        <time>2019-07-07T12:03:02Z</time>
      </trkpt>
      <trkpt lat="40.1137180" lon="-3.1551120">
        <ele>586.8</ele>
        <time>2019-07-07T12:03:09Z</time>
      </trkpt>
      <trkpt lat="40.1135900" lon="-3.1554090">
        <ele>586.8</ele>
        <time>2019-07-07T12:03:16Z</time>
      </trkpt>
      <trkpt lat="40.1131660" lon="-3.1551320">
        <ele>585.6</ele>
        <time>2019-07-07T12:22:23Z</time>
      </trkpt>
      <trkpt lat="40.1131760" lon="-3.1551970">
        <ele>585.8</ele>
        <time>2019-07-07T12:22:25Z</time>
      </trkpt>
      <trkpt lat="40.1132210" lon="-3.1552440">
        <ele>586.0</ele>
        <time>2019-07-07T12:22:28Z</time>
      </trkpt>
      <trkpt lat="40.1132840" lon="-3.1553270">
        <ele>586.2</ele>
        <time>2019-07-07T12:22:31Z</time>
      </trkpt>
      <trkpt lat="40.1133460" lon="-3.1554160">
        <ele>586.2</ele>
        <time>2019-07-07T12:22:35Z</time>
      </trkpt>
      <trkpt lat="40.1134160" lon="-3.1555420">
        <ele>587.2</ele>
        <time>2019-07-07T12:22:40Z</time>
      </trkpt>
      <trkpt lat="40.1134390" lon="-3.1555830">
        <ele>587.4</ele>
        <time>2019-07-07T12:22:42Z</time>
      </trkpt>
      <trkpt lat="40.1135010" lon="-3.1557190">
        <ele>588.4</ele>
        <time>2019-07-07T12:22:48Z</time>
      </trkpt>
      <trkpt lat="40.1135590" lon="-3.1558740">
        <ele>589.0</ele>
        <time>2019-07-07T12:22:53Z</time>
      </trkpt>
      <trkpt lat="40.1136100" lon="-3.1559810">
        <ele>589.4</ele>
        <time>2019-07-07T12:22:56Z</time>
      </trkpt>
      <trkpt lat="40.1136730" lon="-3.1561410">
        <ele>589.4</ele>
        <time>2019-07-07T12:23:00Z</time>
      </trkpt>
      <trkpt lat="40.1136880" lon="-3.1561820">
        <ele>589.4</ele>
        <time>2019-07-07T12:23:01Z</time>
      </trkpt>
      <trkpt lat="40.1138300" lon="-3.1564620">
        <ele>589.8</ele>
        <time>2019-07-07T12:23:08Z</time>
      </trkpt>
      <trkpt lat="40.1141110" lon="-3.1567860">
        <ele>589.8</ele>
        <time>2019-07-07T12:23:17Z</time>
      </trkpt>
      <trkpt lat="40.1143720" lon="-3.1570820">
        <ele>590.0</ele>
        <time>2019-07-07T12:23:25Z</time>
      </trkpt>
      <trkpt lat="40.1145090" lon="-3.1572170">
        <ele>590.0</ele>
        <time>2019-07-07T12:23:29Z</time>
      </trkpt>
      <trkpt lat="40.1146090" lon="-3.1573190">
        <ele>590.2</ele>
        <time>2019-07-07T12:23:32Z</time>
      </trkpt>
      <trkpt lat="40.1146400" lon="-3.1573520">
        <ele>590.2</ele>
        <time>2019-07-07T12:23:33Z</time>
      </trkpt>
      <trkpt lat="40.1148260" lon="-3.1575530">
        <ele>590.6</ele>
        <time>2019-07-07T12:23:39Z</time>
      </trkpt>
      <trkpt lat="40.1148890" lon="-3.1576170">
        <ele>590.6</ele>
        <time>2019-07-07T12:23:41Z</time>
      </trkpt>
      <trkpt lat="40.1150980" lon="-3.1578370">
        <ele>591.8</ele>
        <time>2019-07-07T12:23:48Z</time>
      </trkpt>
      <trkpt lat="40.1152510" lon="-3.1580220">
        <ele>592.4</ele>
        <time>2019-07-07T12:23:54Z</time>
      </trkpt>
      <trkpt lat="40.1153900" lon="-3.1581700">
        <ele>593.0</ele>
        <time>2019-07-07T12:24:00Z</time>
      </trkpt>
      <trkpt lat="40.1154130" lon="-3.1581940">
        <ele>593.0</ele>
        <time>2019-07-07T12:24:01Z</time>
      </trkpt>
      <trkpt lat="40.1155630" lon="-3.1583350">
        <ele>593.8</ele>
        <time>2019-07-07T12:24:07Z</time>
      </trkpt>
      <trkpt lat="40.1156120" lon="-3.1583890">
        <ele>594.0</ele>
        <time>2019-07-07T12:24:09Z</time>
      </trkpt>
      <trkpt lat="40.1157490" lon="-3.1585290">
        <ele>594.8</ele>
        <time>2019-07-07T12:24:15Z</time>
      </trkpt>
      <trkpt lat="40.1158220" lon="-3.1586130">
        <ele>595.2</ele>
        <time>2019-07-07T12:24:18Z</time>
      </trkpt>
      <trkpt lat="40.1159020" lon="-3.1586800">
        <ele>595.8</ele>
        <time>2019-07-07T12:24:21Z</time>
      </trkpt>
      <trkpt lat="40.1159280" lon="-3.1587040">
        <ele>595.8</ele>
        <time>2019-07-07T12:24:22Z</time>
      </trkpt>
      <trkpt lat="40.1160220" lon="-3.1588070">
        <ele>596.2</ele>
        <time>2019-07-07T12:24:26Z</time>
      </trkpt>
      <trkpt lat="40.1160800" lon="-3.1588940">
        <ele>596.8</ele>
        <time>2019-07-07T12:24:29Z</time>
      </trkpt>
      <trkpt lat="40.1161570" lon="-3.1589570">
        <ele>597.2</ele>
        <time>2019-07-07T12:24:32Z</time>
      </trkpt>
      <trkpt lat="40.1162320" lon="-3.1590210">
        <ele>597.8</ele>
        <time>2019-07-07T12:24:35Z</time>
      </trkpt>
      <trkpt lat="40.1163940" lon="-3.1592110">
        <ele>598.6</ele>
        <time>2019-07-07T12:24:42Z</time>
      </trkpt>
      <trkpt lat="40.1164450" lon="-3.1592560">
        <ele>599.0</ele>
        <time>2019-07-07T12:24:44Z</time>
      </trkpt>
      <trkpt lat="40.1165610" lon="-3.1593970">
        <ele>599.8</ele>
        <time>2019-07-07T12:24:49Z</time>
      </trkpt>
      <trkpt lat="40.1165870" lon="-3.1594250">
        <ele>599.8</ele>
        <time>2019-07-07T12:24:50Z</time>
      </trkpt>
      <trkpt lat="40.1167930" lon="-3.1596580">
        <ele>600.6</ele>
        <time>2019-07-07T12:24:58Z</time>
      </trkpt>
      <trkpt lat="40.1168500" lon="-3.1597130">
        <ele>600.8</ele>
        <time>2019-07-07T12:25:00Z</time>
      </trkpt>
      <trkpt lat="40.1170380" lon="-3.1599100">
        <ele>601.4</ele>
        <time>2019-07-07T12:25:07Z</time>
      </trkpt>
      <trkpt lat="40.1171430" lon="-3.1600290">
        <ele>601.8</ele>
        <time>2019-07-07T12:25:11Z</time>
      </trkpt>
      <trkpt lat="40.1172250" lon="-3.1601170">
        <ele>602.0</ele>
        <time>2019-07-07T12:25:14Z</time>
      </trkpt>
      <trkpt lat="40.1173800" lon="-3.1602830">
        <ele>602.4</ele>
        <time>2019-07-07T12:25:20Z</time>
      </trkpt>
      <trkpt lat="40.1174280" lon="-3.1603380">
        <ele>602.4</ele>
        <time>2019-07-07T12:25:22Z</time>
      </trkpt>
      <trkpt lat="40.1175960" lon="-3.1605510">
        <ele>602.8</ele>
        <time>2019-07-07T12:25:29Z</time>
      </trkpt>
      <trkpt lat="40.1176340" lon="-3.1605980">
        <ele>603.2</ele>
        <time>2019-07-07T12:25:31Z</time>
      </trkpt>
      <trkpt lat="40.1176610" lon="-3.1606010">
        <ele>603.2</ele>
        <time>2019-07-07T12:25:32Z</time>
      </trkpt>
      <trkpt lat="40.1177100" lon="-3.1605720">
        <ele>603.4</ele>
        <time>2019-07-07T12:25:34Z</time>
      </trkpt>
      <trkpt lat="40.1177480" lon="-3.1605070">
        <ele>603.4</ele>
        <time>2019-07-07T12:25:36Z</time>
      </trkpt>
      <trkpt lat="40.1178490" lon="-3.1603840">
        <ele>603.6</ele>
        <time>2019-07-07T12:25:40Z</time>
      </trkpt>
      <trkpt lat="40.1182550" lon="-3.1602570">
        <ele>604.6</ele>
        <time>2019-07-07T12:29:45Z</time>
      </trkpt>
      <trkpt lat="40.1182790" lon="-3.1602850">
        <ele>604.6</ele>
        <time>2019-07-07T12:29:46Z</time>
      </trkpt>
      <trkpt lat="40.1184650" lon="-3.1605050">
        <ele>605.2</ele>
        <time>2019-07-07T12:29:54Z</time>
      </trkpt>
      <trkpt lat="40.1185910" lon="-3.1606360">
        <ele>605.6</ele>
        <time>2019-07-07T12:29:59Z</time>
      </trkpt>
      <trkpt lat="40.1186420" lon="-3.1606850">
        <ele>605.6</ele>
        <time>2019-07-07T12:30:01Z</time>
      </trkpt>
      <trkpt lat="40.1186690" lon="-3.1607070">
        <ele>605.8</ele>
        <time>2019-07-07T12:30:02Z</time>
      </trkpt>
      <trkpt lat="40.1188290" lon="-3.1608430">
        <ele>606.4</ele>
        <time>2019-07-07T12:30:08Z</time>
      </trkpt>
      <trkpt lat="40.1188560" lon="-3.1608710">
        <ele>606.4</ele>
        <time>2019-07-07T12:30:09Z</time>
      </trkpt>
      <trkpt lat="40.1189330" lon="-3.1609530">
        <ele>606.8</ele>
        <time>2019-07-07T12:30:12Z</time>
      </trkpt>
      <trkpt lat="40.1189970" lon="-3.1610550">
        <ele>607.0</ele>
        <time>2019-07-07T12:30:15Z</time>
      </trkpt>
      <trkpt lat="40.1191570" lon="-3.1612840">
        <ele>607.6</ele>
        <time>2019-07-07T12:30:22Z</time>
      </trkpt>
      <trkpt lat="40.1192670" lon="-3.1614330">
        <ele>607.8</ele>
        <time>2019-07-07T12:30:27Z</time>
      </trkpt>
      <trkpt lat="40.1192870" lon="-3.1614630">
        <ele>607.8</ele>
        <time>2019-07-07T12:30:28Z</time>
      </trkpt>
      <trkpt lat="40.1194260" lon="-3.1616530">
        <ele>608.6</ele>
        <time>2019-07-07T12:30:35Z</time>
      </trkpt>
      <trkpt lat="40.1194660" lon="-3.1617090">
        <ele>608.8</ele>
        <time>2019-07-07T12:30:37Z</time>
      </trkpt>
      <trkpt lat="40.1195650" lon="-3.1618440">
        <ele>609.4</ele>
        <time>2019-07-07T12:30:42Z</time>
      </trkpt>
      <trkpt lat="40.1196050" lon="-3.1618920">
        <ele>610.0</ele>
        <time>2019-07-07T12:30:44Z</time>
      </trkpt>
      <trkpt lat="40.1197180" lon="-3.1620220">
        <ele>610.6</ele>
        <time>2019-07-07T12:30:50Z</time>
      </trkpt>
      <trkpt lat="40.1197580" lon="-3.1620690">
        <ele>611.0</ele>
        <time>2019-07-07T12:30:52Z</time>
      </trkpt>
      <trkpt lat="40.1198480" lon="-3.1621880">
        <ele>612.0</ele>
        <time>2019-07-07T12:30:57Z</time>
      </trkpt>
      <trkpt lat="40.1198650" lon="-3.1622100">
        <ele>612.2</ele>
        <time>2019-07-07T12:30:58Z</time>
      </trkpt>
      <trkpt lat="40.1199670" lon="-3.1622930">
        <ele>613.0</ele>
        <time>2019-07-07T12:31:05Z</time>
      </trkpt>
      <trkpt lat="40.1199830" lon="-3.1622890">
        <ele>613.0</ele>
        <time>2019-07-07T12:31:06Z</time>
      </trkpt>
      <trkpt lat="40.1183190" lon="-3.1613500">
        <ele>610.0</ele>
        <time>2019-07-07T12:51:59Z</time>
      </trkpt>
      <trkpt lat="40.1182970" lon="-3.1613260">
        <ele>609.8</ele>
        <time>2019-07-07T12:52:00Z</time>
      </trkpt>
      <trkpt lat="40.1182120" lon="-3.1612390">
        <ele>609.8</ele>
        <time>2019-07-07T12:52:03Z</time>
      </trkpt>
      <trkpt lat="40.1181600" lon="-3.1611760">
        <ele>609.4</ele>
        <time>2019-07-07T12:52:05Z</time>
      </trkpt>
      <trkpt lat="40.1181000" lon="-3.1610960">
        <ele>608.8</ele>
        <time>2019-07-07T12:52:08Z</time>
      </trkpt>
      <trkpt lat="40.1180630" lon="-3.1610300">
        <ele>608.8</ele>
        <time>2019-07-07T12:52:10Z</time>
      </trkpt>
      <trkpt lat="40.1179330" lon="-3.1608910">
        <ele>608.0</ele>
        <time>2019-07-07T12:52:15Z</time>
      </trkpt>
      <trkpt lat="40.1179000" lon="-3.1608550">
        <ele>607.8</ele>
        <time>2019-07-07T12:52:16Z</time>
      </trkpt>
      <trkpt lat="40.1177250" lon="-3.1606710">
        <ele>607.2</ele>
        <time>2019-07-07T12:52:21Z</time>
      </trkpt>
      <trkpt lat="40.1176120" lon="-3.1606880">
        <ele>606.8</ele>
        <time>2019-07-07T12:52:24Z</time>
      </trkpt>
      <trkpt lat="40.1175170" lon="-3.1608260">
        <ele>606.4</ele>
        <time>2019-07-07T12:52:27Z</time>
      </trkpt>
      <trkpt lat="40.1174430" lon="-3.1609280">
        <ele>606.4</ele>
        <time>2019-07-07T12:52:29Z</time>
      </trkpt>
      <trkpt lat="40.1171320" lon="-3.1613340">
        <ele>606.0</ele>
        <time>2019-07-07T12:52:37Z</time>
      </trkpt>
      <trkpt lat="40.1168580" lon="-3.1617030">
        <ele>605.8</ele>
        <time>2019-07-07T12:52:44Z</time>
      </trkpt>
      <trkpt lat="40.1167450" lon="-3.1618640">
        <ele>606.0</ele>
        <time>2019-07-07T12:52:47Z</time>
      </trkpt>
      <trkpt lat="40.1164890" lon="-3.1623280">
        <ele>605.6</ele>
        <time>2019-07-07T12:52:55Z</time>
      </trkpt>
      <trkpt lat="40.1164610" lon="-3.1623880">
        <ele>605.6</ele>
        <time>2019-07-07T12:52:56Z</time>
      </trkpt>
      <trkpt lat="40.1162210" lon="-3.1628500">
        <ele>605.4</ele>
        <time>2019-07-07T12:53:04Z</time>
      </trkpt>
      <trkpt lat="40.1160750" lon="-3.1631390">
        <ele>605.0</ele>
        <time>2019-07-07T12:53:09Z</time>
      </trkpt>
      <trkpt lat="40.1159600" lon="-3.1633620">
        <ele>605.2</ele>
        <time>2019-07-07T12:53:13Z</time>
      </trkpt>
      <trkpt lat="40.1157200" lon="-3.1638020">
        <ele>605.0</ele>
        <time>2019-07-07T12:53:21Z</time>
      </trkpt>
      <trkpt lat="40.1156570" lon="-3.1639230">
        <ele>605.0</ele>
        <time>2019-07-07T12:53:23Z</time>
      </trkpt>
      <trkpt lat="40.1153930" lon="-3.1644230">
        <ele>605.8</ele>
        <time>2019-07-07T12:53:32Z</time>
      </trkpt>
      <trkpt lat="40.1153640" lon="-3.1644790">
        <ele>606.0</ele>
        <time>2019-07-07T12:53:33Z</time>
      </trkpt>
      <trkpt lat="40.1152200" lon="-3.1647520">
        <ele>606.2</ele>
        <time>2019-07-07T12:53:38Z</time>
      </trkpt>
      <trkpt lat="40.1151760" lon="-3.1648500">
        <ele>606.2</ele>
        <time>2019-07-07T12:53:40Z</time>
      </trkpt>
      <trkpt lat="40.1151320" lon="-3.1649390">
        <ele>605.6</ele>
        <time>2019-07-07T12:53:44Z</time>
      </trkpt>
      <trkpt lat="40.1151320" lon="-3.1649390">
        <ele>605.6</ele>
        <time>2019-07-07T12:53:45Z</time>
      </trkpt>
      <trkpt lat="40.1151110" lon="-3.1649560">
        <ele>605.6</ele>
        <time>2019-07-07T12:54:16Z</time>
      </trkpt>
      <trkpt lat="40.1150990" lon="-3.1649810">
        <ele>605.6</ele>
        <time>2019-07-07T12:54:17Z</time>
      </trkpt>
      <trkpt lat="40.1150850" lon="-3.1650100">
        <ele>605.6</ele>
        <time>2019-07-07T12:54:18Z</time>
      </trkpt>
      <trkpt lat="40.1150350" lon="-3.1651130">
        <ele>606.0</ele>
        <time>2019-07-07T12:54:21Z</time>
      </trkpt>
      <trkpt lat="40.1149990" lon="-3.1651900">
        <ele>606.0</ele>
        <time>2019-07-07T12:54:23Z</time>
      </trkpt>
      <trkpt lat="40.1149580" lon="-3.1652750">
        <ele>606.2</ele>
        <time>2019-07-07T12:54:25Z</time>
      </trkpt>
      <trkpt lat="40.1147920" lon="-3.1656710">
        <ele>606.0</ele>
        <time>2019-07-07T12:54:33Z</time>
      </trkpt>
      <trkpt lat="40.1147260" lon="-3.1658360">
        <ele>606.0</ele>
        <time>2019-07-07T12:54:36Z</time>
      </trkpt>
      <trkpt lat="40.1146240" lon="-3.1660590">
        <ele>606.2</ele>
        <time>2019-07-07T12:54:40Z</time>
      </trkpt>
      <trkpt lat="40.1144580" lon="-3.1664200">
        <ele>606.2</ele>
        <time>2019-07-07T12:54:46Z</time>
      </trkpt>
      <trkpt lat="40.1143970" lon="-3.1665540">
        <ele>606.0</ele>
        <time>2019-07-07T12:54:48Z</time>
      </trkpt>
      <trkpt lat="40.1141300" lon="-3.1670860">
        <ele>606.4</ele>
        <time>2019-07-07T12:54:56Z</time>
      </trkpt>
      <trkpt lat="40.1139540" lon="-3.1674230">
        <ele>606.2</ele>
        <time>2019-07-07T12:55:01Z</time>
      </trkpt>
      <trkpt lat="40.1138160" lon="-3.1676960">
        <ele>605.8</ele>
        <time>2019-07-07T12:55:05Z</time>
      </trkpt>
      <trkpt lat="40.1136330" lon="-3.1680350">
        <ele>605.4</ele>
        <time>2019-07-07T12:55:10Z</time>
      </trkpt>
      <trkpt lat="40.1135250" lon="-3.1682430">
        <ele>605.2</ele>
        <time>2019-07-07T12:55:13Z</time>
      </trkpt>
      <trkpt lat="40.1132680" lon="-3.1687330">
        <ele>605.6</ele>
        <time>2019-07-07T12:55:20Z</time>
      </trkpt>
      <trkpt lat="40.1132310" lon="-3.1688060">
        <ele>605.6</ele>
        <time>2019-07-07T12:55:21Z</time>
      </trkpt>
      <trkpt lat="40.1129670" lon="-3.1693110">
        <ele>605.4</ele>
        <time>2019-07-07T12:55:28Z</time>
      </trkpt>
      <trkpt lat="40.1128930" lon="-3.1694540">
        <ele>605.4</ele>
        <time>2019-07-07T12:55:30Z</time>
      </trkpt>
      <trkpt lat="40.1125320" lon="-3.1700770">
        <ele>605.2</ele>
        <time>2019-07-07T12:55:39Z</time>
      </trkpt>
      <trkpt lat="40.1120960" lon="-3.1706140">
        <ele>605.4</ele>
        <time>2019-07-07T12:55:48Z</time>
      </trkpt>
      <trkpt lat="40.1117380" lon="-3.1709990">
        <ele>604.8</ele>
        <time>2019-07-07T12:55:55Z</time>
      </trkpt>
      <trkpt lat="40.1112910" lon="-3.1715080">
        <ele>605.4</ele>
        <time>2019-07-07T12:56:04Z</time>
      </trkpt>
      <trkpt lat="40.1108520" lon="-3.1719980">
        <ele>605.0</ele>
        <time>2019-07-07T12:56:13Z</time>
      </trkpt>
      <trkpt lat="40.1108040" lon="-3.1720550">
        <ele>605.0</ele>
        <time>2019-07-07T12:56:14Z</time>
      </trkpt>
      <trkpt lat="40.1103560" lon="-3.1725570">
        <ele>605.2</ele>
        <time>2019-07-07T12:56:23Z</time>
      </trkpt>
      <trkpt lat="40.1103070" lon="-3.1726140">
        <ele>605.4</ele>
        <time>2019-07-07T12:56:24Z</time>
      </trkpt>
      <trkpt lat="40.1098710" lon="-3.1731140">
        <ele>604.8</ele>
        <time>2019-07-07T12:56:33Z</time>
      </trkpt>
      <trkpt lat="40.1098220" lon="-3.1731670">
        <ele>604.8</ele>
        <time>2019-07-07T12:56:34Z</time>
      </trkpt>
      <trkpt lat="40.1097730" lon="-3.1732190">
        <ele>604.8</ele>
        <time>2019-07-07T12:56:35Z</time>
      </trkpt>
      <trkpt lat="40.1093400" lon="-3.1737250">
        <ele>604.4</ele>
        <time>2019-07-07T12:56:44Z</time>
      </trkpt>
      <trkpt lat="40.1090390" lon="-3.1741830">
        <ele>604.4</ele>
        <time>2019-07-07T12:56:51Z</time>
      </trkpt>
      <trkpt lat="40.1089980" lon="-3.1742510">
        <ele>604.4</ele>
        <time>2019-07-07T12:56:52Z</time>
      </trkpt>
      <trkpt lat="40.1086240" lon="-3.1748660">
        <ele>604.6</ele>
        <time>2019-07-07T12:57:01Z</time>
      </trkpt>
      <trkpt lat="40.1085840" lon="-3.1749330">
        <ele>604.8</ele>
        <time>2019-07-07T12:57:02Z</time>
      </trkpt>
      <trkpt lat="40.1082230" lon="-3.1755210">
        <ele>605.2</ele>
        <time>2019-07-07T12:57:11Z</time>
      </trkpt>
      <trkpt lat="40.1079210" lon="-3.1760220">
        <ele>605.4</ele>
        <time>2019-07-07T12:57:19Z</time>
      </trkpt>
      <trkpt lat="40.1078470" lon="-3.1761470">
        <ele>605.2</ele>
        <time>2019-07-07T12:57:21Z</time>
      </trkpt>
      <trkpt lat="40.1074970" lon="-3.1767200">
        <ele>605.2</ele>
        <time>2019-07-07T12:57:30Z</time>
      </trkpt>
      <trkpt lat="40.1074170" lon="-3.1768500">
        <ele>605.2</ele>
        <time>2019-07-07T12:57:32Z</time>
      </trkpt>
      <trkpt lat="40.1070710" lon="-3.1774200">
        <ele>606.2</ele>
        <time>2019-07-07T12:57:41Z</time>
      </trkpt>
      <trkpt lat="40.1067750" lon="-3.1779100">
        <ele>606.2</ele>
        <time>2019-07-07T12:57:49Z</time>
      </trkpt>
      <trkpt lat="40.1064160" lon="-3.1785090">
        <ele>606.4</ele>
        <time>2019-07-07T12:57:59Z</time>
      </trkpt>
      <trkpt lat="40.1060920" lon="-3.1790460">
        <ele>606.6</ele>
        <time>2019-07-07T12:58:08Z</time>
      </trkpt>
      <trkpt lat="40.1057200" lon="-3.1795300">
        <ele>606.6</ele>
        <time>2019-07-07T12:58:17Z</time>
      </trkpt>
      <trkpt lat="40.1053460" lon="-3.1799330">
        <ele>606.2</ele>
        <time>2019-07-07T12:58:25Z</time>
      </trkpt>
      <trkpt lat="40.1049230" lon="-3.1804030">
        <ele>606.2</ele>
        <time>2019-07-07T12:58:34Z</time>
      </trkpt>
      <trkpt lat="40.1044910" lon="-3.1808810">
        <ele>606.2</ele>
        <time>2019-07-07T12:58:43Z</time>
      </trkpt>
      <trkpt lat="40.1043950" lon="-3.1809850">
        <ele>606.2</ele>
        <time>2019-07-07T12:58:45Z</time>
      </trkpt>
      <trkpt lat="40.1039550" lon="-3.1814630">
        <ele>605.8</ele>
        <time>2019-07-07T12:58:54Z</time>
      </trkpt>
      <trkpt lat="40.1038550" lon="-3.1815720">
        <ele>606.2</ele>
        <time>2019-07-07T12:58:56Z</time>
      </trkpt>
      <trkpt lat="40.1033960" lon="-3.1820790">
        <ele>606.0</ele>
        <time>2019-07-07T12:59:05Z</time>
      </trkpt>
      <trkpt lat="40.1030110" lon="-3.1824110">
        <ele>605.8</ele>
        <time>2019-07-07T12:59:12Z</time>
      </trkpt>
      <trkpt lat="40.1027040" lon="-3.1826020">
        <ele>605.8</ele>
        <time>2019-07-07T12:59:17Z</time>
      </trkpt>
      <trkpt lat="40.1025030" lon="-3.1827150">
        <ele>605.4</ele>
        <time>2019-07-07T12:59:20Z</time>
      </trkpt>
      <trkpt lat="40.1024360" lon="-3.1827540">
        <ele>605.2</ele>
        <time>2019-07-07T12:59:21Z</time>
      </trkpt>
      <trkpt lat="40.1018940" lon="-3.1830690">
        <ele>604.4</ele>
        <time>2019-07-07T12:59:29Z</time>
      </trkpt>
      <trkpt lat="40.1016220" lon="-3.1832580">
        <ele>604.2</ele>
        <time>2019-07-07T12:59:33Z</time>
      </trkpt>
      <trkpt lat="40.1014270" lon="-3.1834270">
        <ele>603.6</ele>
        <time>2019-07-07T12:59:36Z</time>
      </trkpt>
      <trkpt lat="40.1013640" lon="-3.1834870">
        <ele>603.4</ele>
        <time>2019-07-07T12:59:37Z</time>
      </trkpt>
      <trkpt lat="40.1009280" lon="-3.1839290">
        <ele>602.6</ele>
        <time>2019-07-07T12:59:44Z</time>
      </trkpt>
      <trkpt lat="40.1008660" lon="-3.1839950">
        <ele>602.4</ele>
        <time>2019-07-07T12:59:45Z</time>
      </trkpt>
      <trkpt lat="40.1008020" lon="-3.1840600">
        <ele>602.4</ele>
        <time>2019-07-07T12:59:46Z</time>
      </trkpt>
      <trkpt lat="40.1004180" lon="-3.1844580">
        <ele>601.2</ele>
        <time>2019-07-07T12:59:52Z</time>
      </trkpt>
      <trkpt lat="40.1000970" lon="-3.1847810">
        <ele>600.2</ele>
        <time>2019-07-07T12:59:57Z</time>
      </trkpt>
      <trkpt lat="40.1000320" lon="-3.1848420">
        <ele>600.2</ele>
        <time>2019-07-07T12:59:58Z</time>
      </trkpt>
      <trkpt lat="40.0997830" lon="-3.1850920">
        <ele>599.8</ele>
        <time>2019-07-07T13:00:02Z</time>
      </trkpt>
      <trkpt lat="40.0996030" lon="-3.1852790">
        <ele>599.2</ele>
        <time>2019-07-07T13:00:05Z</time>
      </trkpt>
      <trkpt lat="40.0994860" lon="-3.1854050">
        <ele>599.0</ele>
        <time>2019-07-07T13:00:07Z</time>
      </trkpt>
      <trkpt lat="40.0991790" lon="-3.1857000">
        <ele>598.6</ele>
        <time>2019-07-07T13:00:12Z</time>
      </trkpt>
      <trkpt lat="40.0990480" lon="-3.1858160">
        <ele>598.2</ele>
        <time>2019-07-07T13:00:14Z</time>
      </trkpt>
      <trkpt lat="40.0989810" lon="-3.1858720">
        <ele>598.2</ele>
        <time>2019-07-07T13:00:15Z</time>
      </trkpt>
      <trkpt lat="40.0985020" lon="-3.1862330">
        <ele>597.4</ele>
        <time>2019-07-07T13:00:22Z</time>
      </trkpt>
      <trkpt lat="40.0984340" lon="-3.1862820">
        <ele>597.2</ele>
        <time>2019-07-07T13:00:23Z</time>
      </trkpt>
      <trkpt lat="40.0983670" lon="-3.1863290">
        <ele>597.2</ele>
        <time>2019-07-07T13:00:24Z</time>
      </trkpt>
      <trkpt lat="40.0978440" lon="-3.1867020">
        <ele>596.8</ele>
        <time>2019-07-07T13:00:32Z</time>
      </trkpt>
      <trkpt lat="40.0977800" lon="-3.1867460">
        <ele>596.6</ele>
        <time>2019-07-07T13:00:33Z</time>
      </trkpt>
      <trkpt lat="40.0973330" lon="-3.1870600">
        <ele>596.2</ele>
        <time>2019-07-07T13:00:40Z</time>
      </trkpt>
      <trkpt lat="40.0972090" lon="-3.1871560">
        <ele>596.0</ele>
        <time>2019-07-07T13:00:42Z</time>
      </trkpt>
      <trkpt lat="40.0967660" lon="-3.1874800">
        <ele>595.8</ele>
        <time>2019-07-07T13:00:49Z</time>
      </trkpt>
      <trkpt lat="40.0962720" lon="-3.1878840">
        <ele>595.6</ele>
        <time>2019-07-07T13:00:57Z</time>
      </trkpt>
      <trkpt lat="40.0961450" lon="-3.1879890">
        <ele>595.4</ele>
        <time>2019-07-07T13:00:59Z</time>
      </trkpt>
      <trkpt lat="40.0960800" lon="-3.1880390">
        <ele>595.2</ele>
        <time>2019-07-07T13:01:00Z</time>
      </trkpt>
      <trkpt lat="40.0956870" lon="-3.1883600">
        <ele>594.4</ele>
        <time>2019-07-07T13:01:06Z</time>
      </trkpt>
      <trkpt lat="40.0954860" lon="-3.1885260">
        <ele>593.6</ele>
        <time>2019-07-07T13:01:09Z</time>
      </trkpt>
      <trkpt lat="40.0952810" lon="-3.1886960">
        <ele>593.4</ele>
        <time>2019-07-07T13:01:12Z</time>
      </trkpt>
      <trkpt lat="40.0950770" lon="-3.1888650">
        <ele>592.8</ele>
        <time>2019-07-07T13:01:15Z</time>
      </trkpt>
      <trkpt lat="40.0948800" lon="-3.1890240">
        <ele>592.6</ele>
        <time>2019-07-07T13:01:18Z</time>
      </trkpt>
      <trkpt lat="40.0945670" lon="-3.1892900">
        <ele>592.2</ele>
        <time>2019-07-07T13:01:23Z</time>
      </trkpt>
      <trkpt lat="40.0942570" lon="-3.1895470">
        <ele>592.0</ele>
        <time>2019-07-07T13:01:28Z</time>
      </trkpt>
      <trkpt lat="40.0937720" lon="-3.1899440">
        <ele>591.8</ele>
        <time>2019-07-07T13:01:36Z</time>
      </trkpt>
      <trkpt lat="40.0935940" lon="-3.1900910">
        <ele>592.0</ele>
        <time>2019-07-07T13:01:39Z</time>
      </trkpt>
      <trkpt lat="40.0931290" lon="-3.1904770">
        <ele>592.6</ele>
        <time>2019-07-07T13:01:47Z</time>
      </trkpt>
      <trkpt lat="40.0930190" lon="-3.1905790">
        <ele>592.4</ele>
        <time>2019-07-07T13:01:49Z</time>
      </trkpt>
      <trkpt lat="40.0926210" lon="-3.1910040">
        <ele>592.2</ele>
        <time>2019-07-07T13:01:57Z</time>
      </trkpt>
      <trkpt lat="40.0923080" lon="-3.1913660">
        <ele>592.2</ele>
        <time>2019-07-07T13:02:04Z</time>
      </trkpt>
      <trkpt lat="40.0922170" lon="-3.1914630">
        <ele>592.4</ele>
        <time>2019-07-07T13:02:06Z</time>
      </trkpt>
      <trkpt lat="40.0920870" lon="-3.1916140">
        <ele>592.4</ele>
        <time>2019-07-07T13:02:09Z</time>
      </trkpt>
      <trkpt lat="40.0919130" lon="-3.1918140">
        <ele>592.6</ele>
        <time>2019-07-07T13:02:13Z</time>
      </trkpt>
      <trkpt lat="40.0918680" lon="-3.1918620">
        <ele>592.6</ele>
        <time>2019-07-07T13:02:14Z</time>
      </trkpt>
      <trkpt lat="40.0916340" lon="-3.1921000">
        <ele>593.0</ele>
        <time>2019-07-07T13:02:19Z</time>
      </trkpt>
      <trkpt lat="40.0915000" lon="-3.1922580">
        <ele>593.0</ele>
        <time>2019-07-07T13:02:22Z</time>
      </trkpt>
      <trkpt lat="40.0912800" lon="-3.1925250">
        <ele>593.0</ele>
        <time>2019-07-07T13:02:27Z</time>
      </trkpt>
      <trkpt lat="40.0911710" lon="-3.1927160">
        <ele>592.8</ele>
        <time>2019-07-07T13:02:30Z</time>
      </trkpt>
      <trkpt lat="40.0909570" lon="-3.1932080">
        <ele>593.0</ele>
        <time>2019-07-07T13:02:37Z</time>
      </trkpt>
      <trkpt lat="40.0907680" lon="-3.1937090">
        <ele>593.0</ele>
        <time>2019-07-07T13:02:44Z</time>
      </trkpt>
      <trkpt lat="40.0906850" lon="-3.1939190">
        <ele>592.8</ele>
        <time>2019-07-07T13:02:47Z</time>
      </trkpt>
      <trkpt lat="40.0905750" lon="-3.1942060">
        <ele>592.4</ele>
        <time>2019-07-07T13:02:51Z</time>
      </trkpt>
      <trkpt lat="40.0903290" lon="-3.1948570">
        <ele>592.2</ele>
        <time>2019-07-07T13:03:00Z</time>
      </trkpt>
      <trkpt lat="40.0901120" lon="-3.1954220">
        <ele>592.8</ele>
        <time>2019-07-07T13:03:08Z</time>
      </trkpt>
      <trkpt lat="40.0898730" lon="-3.1960330">
        <ele>593.6</ele>
        <time>2019-07-07T13:03:17Z</time>
      </trkpt>
      <trkpt lat="40.0896800" lon="-3.1965100">
        <ele>594.4</ele>
        <time>2019-07-07T13:03:25Z</time>
      </trkpt>
      <trkpt lat="40.0896330" lon="-3.1966240">
        <ele>594.8</ele>
        <time>2019-07-07T13:03:27Z</time>
      </trkpt>
      <trkpt lat="40.0895450" lon="-3.1968470">
        <ele>595.4</ele>
        <time>2019-07-07T13:03:31Z</time>
      </trkpt>
      <trkpt lat="40.0894840" lon="-3.1970070">
        <ele>596.0</ele>
        <time>2019-07-07T13:03:34Z</time>
      </trkpt>
      <trkpt lat="40.0894430" lon="-3.1971140">
        <ele>596.4</ele>
        <time>2019-07-07T13:03:36Z</time>
      </trkpt>
      <trkpt lat="40.0893360" lon="-3.1974180">
        <ele>597.2</ele>
        <time>2019-07-07T13:04:16Z</time>
      </trkpt>
      <trkpt lat="40.0893260" lon="-3.1974450">
        <ele>597.4</ele>
        <time>2019-07-07T13:04:17Z</time>
      </trkpt>
      <trkpt lat="40.0892850" lon="-3.1975580">
        <ele>597.8</ele>
        <time>2019-07-07T13:04:19Z</time>
      </trkpt>
      <trkpt lat="40.0891860" lon="-3.1979070">
        <ele>598.6</ele>
        <time>2019-07-07T13:04:25Z</time>
      </trkpt>
      <trkpt lat="40.0891700" lon="-3.1979650">
        <ele>598.8</ele>
        <time>2019-07-07T13:04:26Z</time>
      </trkpt>
      <trkpt lat="40.0891450" lon="-3.1980870">
        <ele>599.0</ele>
        <time>2019-07-07T13:04:28Z</time>
      </trkpt>
      <trkpt lat="40.0891060" lon="-3.1983360">
        <ele>599.6</ele>
        <time>2019-07-07T13:04:32Z</time>
      </trkpt>
      <trkpt lat="40.0890940" lon="-3.1986970">
        <ele>600.6</ele>
        <time>2019-07-07T13:04:38Z</time>
      </trkpt>
      <trkpt lat="40.0890940" lon="-3.1987550">
        <ele>600.8</ele>
        <time>2019-07-07T13:04:39Z</time>
      </trkpt>
      <trkpt lat="40.0891050" lon="-3.1988710">
        <ele>601.2</ele>
        <time>2019-07-07T13:04:41Z</time>
      </trkpt>
      <trkpt lat="40.0891430" lon="-3.1990410">
        <ele>601.8</ele>
        <time>2019-07-07T13:04:44Z</time>
      </trkpt>
      <trkpt lat="40.0891550" lon="-3.1990980">
        <ele>602.0</ele>
        <time>2019-07-07T13:04:45Z</time>
      </trkpt>
      <trkpt lat="40.0892050" lon="-3.1993300">
        <ele>603.0</ele>
        <time>2019-07-07T13:04:49Z</time>
      </trkpt>
      <trkpt lat="40.0892820" lon="-3.1996780">
        <ele>604.0</ele>
        <time>2019-07-07T13:04:55Z</time>
      </trkpt>
      <trkpt lat="40.0892930" lon="-3.1997370">
        <ele>604.4</ele>
        <time>2019-07-07T13:04:56Z</time>
      </trkpt>
      <trkpt lat="40.0893010" lon="-3.1997950">
        <ele>604.6</ele>
        <time>2019-07-07T13:04:57Z</time>
      </trkpt>
      <trkpt lat="40.0893030" lon="-3.2000850">
        <ele>605.0</ele>
        <time>2019-07-07T13:05:02Z</time>
      </trkpt>
      <trkpt lat="40.0892950" lon="-3.2001420">
        <ele>605.2</ele>
        <time>2019-07-07T13:05:03Z</time>
      </trkpt>
      <trkpt lat="40.0892490" lon="-3.2004250">
        <ele>606.2</ele>
        <time>2019-07-07T13:05:08Z</time>
      </trkpt>
      <trkpt lat="40.0892360" lon="-3.2004800">
        <ele>606.4</ele>
        <time>2019-07-07T13:05:09Z</time>
      </trkpt>
      <trkpt lat="40.0891030" lon="-3.2008860">
        <ele>607.2</ele>
        <time>2019-07-07T13:05:16Z</time>
      </trkpt>
      <trkpt lat="40.0890780" lon="-3.2009470">
        <ele>607.2</ele>
        <time>2019-07-07T13:05:17Z</time>
      </trkpt>
      <trkpt lat="40.0890230" lon="-3.2010690">
        <ele>607.2</ele>
        <time>2019-07-07T13:05:19Z</time>
      </trkpt>
      <trkpt lat="40.0888620" lon="-3.2013760">
        <ele>607.0</ele>
        <time>2019-07-07T13:05:24Z</time>
      </trkpt>
      <trkpt lat="40.0885870" lon="-3.2018740">
        <ele>607.0</ele>
        <time>2019-07-07T13:05:32Z</time>
      </trkpt>
      <trkpt lat="40.0885180" lon="-3.2020010">
        <ele>607.0</ele>
        <time>2019-07-07T13:05:34Z</time>
      </trkpt>
      <trkpt lat="40.0884120" lon="-3.2021820">
        <ele>606.8</ele>
        <time>2019-07-07T13:05:37Z</time>
      </trkpt>
      <trkpt lat="40.0883820" lon="-3.2022460">
        <ele>606.8</ele>
        <time>2019-07-07T13:05:38Z</time>
      </trkpt>
      <trkpt lat="40.0883260" lon="-3.2023860">
        <ele>606.8</ele>
        <time>2019-07-07T13:05:40Z</time>
      </trkpt>
      <trkpt lat="40.0882790" lon="-3.2025430">
        <ele>606.8</ele>
        <time>2019-07-07T13:05:42Z</time>
      </trkpt>
      <trkpt lat="40.0882510" lon="-3.2027130">
        <ele>606.8</ele>
        <time>2019-07-07T13:05:44Z</time>
      </trkpt>
      <trkpt lat="40.0882240" lon="-3.2028850">
        <ele>606.6</ele>
        <time>2019-07-07T13:05:46Z</time>
      </trkpt>
      <trkpt lat="40.0881920" lon="-3.2030600">
        <ele>606.6</ele>
        <time>2019-07-07T13:05:48Z</time>
      </trkpt>
      <trkpt lat="40.0881620" lon="-3.2032370">
        <ele>606.4</ele>
        <time>2019-07-07T13:05:50Z</time>
      </trkpt>
      <trkpt lat="40.0881000" lon="-3.2034990">
        <ele>605.8</ele>
        <time>2019-07-07T13:05:53Z</time>
      </trkpt>
      <trkpt lat="40.0880730" lon="-3.2035820">
        <ele>605.6</ele>
        <time>2019-07-07T13:05:54Z</time>
      </trkpt>
      <trkpt lat="40.0879600" lon="-3.2038070">
        <ele>605.4</ele>
        <time>2019-07-07T13:05:57Z</time>
      </trkpt>
      <trkpt lat="40.0879140" lon="-3.2038740">
        <ele>605.2</ele>
        <time>2019-07-07T13:05:58Z</time>
      </trkpt>
      <trkpt lat="40.0878180" lon="-3.2039980">
        <ele>604.8</ele>
        <time>2019-07-07T13:06:00Z</time>
      </trkpt>
      <trkpt lat="40.0877640" lon="-3.2040510">
        <ele>604.8</ele>
        <time>2019-07-07T13:06:01Z</time>
      </trkpt>
      <trkpt lat="40.0877050" lon="-3.2040950">
        <ele>604.8</ele>
        <time>2019-07-07T13:06:02Z</time>
      </trkpt>
      <trkpt lat="40.0874370" lon="-3.2041630">
        <ele>604.4</ele>
        <time>2019-07-07T13:06:06Z</time>
      </trkpt>
      <trkpt lat="40.0871790" lon="-3.2040570">
        <ele>604.4</ele>
        <time>2019-07-07T13:06:10Z</time>
      </trkpt>
      <trkpt lat="40.0869720" lon="-3.2038420">
        <ele>604.6</ele>
        <time>2019-07-07T13:06:14Z</time>
      </trkpt>
      <trkpt lat="40.0869240" lon="-3.2037800">
        <ele>604.6</ele>
        <time>2019-07-07T13:06:15Z</time>
      </trkpt>
      <trkpt lat="40.0867850" lon="-3.2035770">
        <ele>604.4</ele>
        <time>2019-07-07T13:06:18Z</time>
      </trkpt>
      <trkpt lat="40.0866910" lon="-3.2034480">
        <ele>604.2</ele>
        <time>2019-07-07T13:06:20Z</time>
      </trkpt>
      <trkpt lat="40.0866400" lon="-3.2033910">
        <ele>604.2</ele>
        <time>2019-07-07T13:06:21Z</time>
      </trkpt>
      <trkpt lat="40.0863900" lon="-3.2032310">
        <ele>603.8</ele>
        <time>2019-07-07T13:06:25Z</time>
      </trkpt>
      <trkpt lat="40.0863180" lon="-3.2032060">
        <ele>603.6</ele>
        <time>2019-07-07T13:06:26Z</time>
      </trkpt>
      <trkpt lat="40.0862430" lon="-3.2031840">
        <ele>603.2</ele>
        <time>2019-07-07T13:06:27Z</time>
      </trkpt>
      <trkpt lat="40.0859250" lon="-3.2030810">
        <ele>602.4</ele>
        <time>2019-07-07T13:06:31Z</time>
      </trkpt>
      <trkpt lat="40.0858410" lon="-3.2030570">
        <ele>602.2</ele>
        <time>2019-07-07T13:06:32Z</time>
      </trkpt>
      <trkpt lat="40.0854820" lon="-3.2029830">
        <ele>600.8</ele>
        <time>2019-07-07T13:06:36Z</time>
      </trkpt>
      <trkpt lat="40.0853860" lon="-3.2029840">
        <ele>600.4</ele>
        <time>2019-07-07T13:06:37Z</time>
      </trkpt>
      <trkpt lat="40.0852900" lon="-3.2029940">
        <ele>600.0</ele>
        <time>2019-07-07T13:06:38Z</time>
      </trkpt>
      <trkpt lat="40.0851940" lon="-3.2030140">
        <ele>599.6</ele>
        <time>2019-07-07T13:06:39Z</time>
      </trkpt>
      <trkpt lat="40.0849980" lon="-3.2030630">
        <ele>599.0</ele>
        <time>2019-07-07T13:06:41Z</time>
      </trkpt>
      <trkpt lat="40.0848980" lon="-3.2030890">
        <ele>598.6</ele>
        <time>2019-07-07T13:06:42Z</time>
      </trkpt>
      <trkpt lat="40.0846960" lon="-3.2031650">
        <ele>598.0</ele>
        <time>2019-07-07T13:06:44Z</time>
      </trkpt>
      <trkpt lat="40.0845030" lon="-3.2032880">
        <ele>597.2</ele>
        <time>2019-07-07T13:06:46Z</time>
      </trkpt>
      <trkpt lat="40.0843200" lon="-3.2034410">
        <ele>596.2</ele>
        <time>2019-07-07T13:06:48Z</time>
      </trkpt>
      <trkpt lat="40.0841340" lon="-3.2035870">
        <ele>594.8</ele>
        <time>2019-07-07T13:06:50Z</time>
      </trkpt>
      <trkpt lat="40.0840320" lon="-3.2036470">
        <ele>594.4</ele>
        <time>2019-07-07T13:06:51Z</time>
      </trkpt>
      <trkpt lat="40.0838220" lon="-3.2037470">
        <ele>593.6</ele>
        <time>2019-07-07T13:06:53Z</time>
      </trkpt>
      <trkpt lat="40.0836090" lon="-3.2038330">
        <ele>592.4</ele>
        <time>2019-07-07T13:06:55Z</time>
      </trkpt>
      <trkpt lat="40.0835010" lon="-3.2038700">
        <ele>592.2</ele>
        <time>2019-07-07T13:06:56Z</time>
      </trkpt>
      <trkpt lat="40.0831920" lon="-3.2039770">
        <ele>591.4</ele>
        <time>2019-07-07T13:06:59Z</time>
      </trkpt>
      <trkpt lat="40.0830960" lon="-3.2040160">
        <ele>591.2</ele>
        <time>2019-07-07T13:07:00Z</time>
      </trkpt>
      <trkpt lat="40.0830040" lon="-3.2040510">
        <ele>591.0</ele>
        <time>2019-07-07T13:07:01Z</time>
      </trkpt>
      <trkpt lat="40.0827470" lon="-3.2041500">
        <ele>591.0</ele>
        <time>2019-07-07T13:07:04Z</time>
      </trkpt>
      <trkpt lat="40.0825870" lon="-3.2042180">
        <ele>591.0</ele>
        <time>2019-07-07T13:07:06Z</time>
      </trkpt>
      <trkpt lat="40.0823610" lon="-3.2043230">
        <ele>590.8</ele>
        <time>2019-07-07T13:07:09Z</time>
      </trkpt>
      <trkpt lat="40.0822870" lon="-3.2043550">
        <ele>590.8</ele>
        <time>2019-07-07T13:07:10Z</time>
      </trkpt>
      <trkpt lat="40.0821430" lon="-3.2044270">
        <ele>590.8</ele>
        <time>2019-07-07T13:07:12Z</time>
      </trkpt>
      <trkpt lat="40.0820740" lon="-3.2044670">
        <ele>590.6</ele>
        <time>2019-07-07T13:07:13Z</time>
      </trkpt>
      <trkpt lat="40.0817380" lon="-3.2046630">
        <ele>590.4</ele>
        <time>2019-07-07T13:07:18Z</time>
      </trkpt>
      <trkpt lat="40.0816070" lon="-3.2047440">
        <ele>590.2</ele>
        <time>2019-07-07T13:07:20Z</time>
      </trkpt>
      <trkpt lat="40.0810890" lon="-3.2050520">
        <ele>590.0</ele>
        <time>2019-07-07T13:07:28Z</time>
      </trkpt>
      <trkpt lat="40.0806980" lon="-3.2052770">
        <ele>589.8</ele>
        <time>2019-07-07T13:07:34Z</time>
      </trkpt>
      <trkpt lat="40.0806360" lon="-3.2053130">
        <ele>589.6</ele>
        <time>2019-07-07T13:07:35Z</time>
      </trkpt>
      <trkpt lat="40.0804490" lon="-3.2054330">
        <ele>590.0</ele>
        <time>2019-07-07T13:07:38Z</time>
      </trkpt>
      <trkpt lat="40.0802750" lon="-3.2055950">
        <ele>589.6</ele>
        <time>2019-07-07T13:07:41Z</time>
      </trkpt>
      <trkpt lat="40.0801540" lon="-3.2058210">
        <ele>589.2</ele>
        <time>2019-07-07T13:07:44Z</time>
      </trkpt>
      <trkpt lat="40.0801240" lon="-3.2059060">
        <ele>589.2</ele>
        <time>2019-07-07T13:07:45Z</time>
      </trkpt>
      <trkpt lat="40.0799270" lon="-3.2064130">
        <ele>589.4</ele>
        <time>2019-07-07T13:07:51Z</time>
      </trkpt>
      <trkpt lat="40.0798300" lon="-3.2066720">
        <ele>589.2</ele>
        <time>2019-07-07T13:07:54Z</time>
      </trkpt>
      <trkpt lat="40.0795520" lon="-3.2073400">
        <ele>588.8</ele>
        <time>2019-07-07T13:08:02Z</time>
      </trkpt>
      <trkpt lat="40.0794170" lon="-3.2076730">
        <ele>588.4</ele>
        <time>2019-07-07T13:08:06Z</time>
      </trkpt>
      <trkpt lat="40.0792420" lon="-3.2080810">
        <ele>588.4</ele>
        <time>2019-07-07T13:08:11Z</time>
      </trkpt>
      <trkpt lat="40.0789590" lon="-3.2087010">
        <ele>588.2</ele>
        <time>2019-07-07T13:08:19Z</time>
      </trkpt>
      <trkpt lat="40.0789260" lon="-3.2087760">
        <ele>588.0</ele>
        <time>2019-07-07T13:08:20Z</time>
      </trkpt>
      <trkpt lat="40.0787650" lon="-3.2091330">
        <ele>588.0</ele>
        <time>2019-07-07T13:08:25Z</time>
      </trkpt>
      <trkpt lat="40.0786020" lon="-3.2094890">
        <ele>588.2</ele>
        <time>2019-07-07T13:08:30Z</time>
      </trkpt>
      <trkpt lat="40.0783160" lon="-3.2101010">
        <ele>588.2</ele>
        <time>2019-07-07T13:08:39Z</time>
      </trkpt>
      <trkpt lat="40.0782840" lon="-3.2101670">
        <ele>588.2</ele>
        <time>2019-07-07T13:08:40Z</time>
      </trkpt>
      <trkpt lat="40.0779840" lon="-3.2108250">
        <ele>588.2</ele>
        <time>2019-07-07T13:08:50Z</time>
      </trkpt>
      <trkpt lat="40.0779270" lon="-3.2109560">
        <ele>588.2</ele>
        <time>2019-07-07T13:08:52Z</time>
      </trkpt>
      <trkpt lat="40.0776670" lon="-3.2115140">
        <ele>588.6</ele>
        <time>2019-07-07T13:09:01Z</time>
      </trkpt>
      <trkpt lat="40.0774390" lon="-3.2120040">
        <ele>588.4</ele>
        <time>2019-07-07T13:09:09Z</time>
      </trkpt>
      <trkpt lat="40.0771440" lon="-3.2126550">
        <ele>588.4</ele>
        <time>2019-07-07T13:09:19Z</time>
      </trkpt>
      <trkpt lat="40.0769840" lon="-3.2129890">
        <ele>588.4</ele>
        <time>2019-07-07T13:09:24Z</time>
      </trkpt>
      <trkpt lat="40.0768860" lon="-3.2132020">
        <ele>588.4</ele>
        <time>2019-07-07T13:09:27Z</time>
      </trkpt>
      <trkpt lat="40.0768520" lon="-3.2132730">
        <ele>588.8</ele>
        <time>2019-07-07T13:09:28Z</time>
      </trkpt>
      <trkpt lat="40.0765630" lon="-3.2139140">
        <ele>588.6</ele>
        <time>2019-07-07T13:09:37Z</time>
      </trkpt>
      <trkpt lat="40.0765300" lon="-3.2139870">
        <ele>588.8</ele>
        <time>2019-07-07T13:09:38Z</time>
      </trkpt>
      <trkpt lat="40.0762310" lon="-3.2146340">
        <ele>588.8</ele>
        <time>2019-07-07T13:09:47Z</time>
      </trkpt>
      <trkpt lat="40.0761000" lon="-3.2149170">
        <ele>588.8</ele>
        <time>2019-07-07T13:09:51Z</time>
      </trkpt>
      <trkpt lat="40.0759030" lon="-3.2153340">
        <ele>588.8</ele>
        <time>2019-07-07T13:09:57Z</time>
      </trkpt>
      <trkpt lat="40.0756460" lon="-3.2158820">
        <ele>589.0</ele>
        <time>2019-07-07T13:10:05Z</time>
      </trkpt>
      <trkpt lat="40.0754210" lon="-3.2163790">
        <ele>589.0</ele>
        <time>2019-07-07T13:10:12Z</time>
      </trkpt>
      <trkpt lat="40.0751270" lon="-3.2170210">
        <ele>588.8</ele>
        <time>2019-07-07T13:10:21Z</time>
      </trkpt>
      <trkpt lat="40.0748190" lon="-3.2176860">
        <ele>589.2</ele>
        <time>2019-07-07T13:10:30Z</time>
      </trkpt>
      <trkpt lat="40.0745410" lon="-3.2182940">
        <ele>589.2</ele>
        <time>2019-07-07T13:10:38Z</time>
      </trkpt>
      <trkpt lat="40.0745080" lon="-3.2183680">
        <ele>589.4</ele>
        <time>2019-07-07T13:10:39Z</time>
      </trkpt>
      <trkpt lat="40.0742220" lon="-3.2189820">
        <ele>589.6</ele>
        <time>2019-07-07T13:10:48Z</time>
      </trkpt>
      <trkpt lat="40.0740110" lon="-3.2194220">
        <ele>589.2</ele>
        <time>2019-07-07T13:10:55Z</time>
      </trkpt>
      <trkpt lat="40.0739840" lon="-3.2194850">
        <ele>589.2</ele>
        <time>2019-07-07T13:10:56Z</time>
      </trkpt>
      <trkpt lat="40.0738470" lon="-3.2198030">
        <ele>589.4</ele>
        <time>2019-07-07T13:11:01Z</time>
      </trkpt>
      <trkpt lat="40.0737940" lon="-3.2199250">
        <ele>589.4</ele>
        <time>2019-07-07T13:11:03Z</time>
      </trkpt>
      <trkpt lat="40.0737000" lon="-3.2201780">
        <ele>589.6</ele>
        <time>2019-07-07T13:11:07Z</time>
      </trkpt>
      <trkpt lat="40.0736540" lon="-3.2203790">
        <ele>589.6</ele>
        <time>2019-07-07T13:11:10Z</time>
      </trkpt>
      <trkpt lat="40.0734840" lon="-3.2210410">
        <ele>590.0</ele>
        <time>2019-07-07T13:11:20Z</time>
      </trkpt>
      <trkpt lat="40.0733500" lon="-3.2215980">
        <ele>590.2</ele>
        <time>2019-07-07T13:11:28Z</time>
      </trkpt>
      <trkpt lat="40.0732270" lon="-3.2221130">
        <ele>590.6</ele>
        <time>2019-07-07T13:11:35Z</time>
      </trkpt>
      <trkpt lat="40.0732100" lon="-3.2221860">
        <ele>590.8</ele>
        <time>2019-07-07T13:11:36Z</time>
      </trkpt>
      <trkpt lat="40.0730840" lon="-3.2227090">
        <ele>590.8</ele>
        <time>2019-07-07T13:11:43Z</time>
      </trkpt>
      <trkpt lat="40.0729500" lon="-3.2232560">
        <ele>591.2</ele>
        <time>2019-07-07T13:11:50Z</time>
      </trkpt>
      <trkpt lat="40.0729340" lon="-3.2233350">
        <ele>591.2</ele>
        <time>2019-07-07T13:11:51Z</time>
      </trkpt>
      <trkpt lat="40.0728490" lon="-3.2239630">
        <ele>591.6</ele>
        <time>2019-07-07T13:11:59Z</time>
      </trkpt>
      <trkpt lat="40.0728340" lon="-3.2241930">
        <ele>591.8</ele>
        <time>2019-07-07T13:12:02Z</time>
      </trkpt>
      <trkpt lat="40.0728060" lon="-3.2247340">
        <ele>592.8</ele>
        <time>2019-07-07T13:12:09Z</time>
      </trkpt>
      <trkpt lat="40.0728030" lon="-3.2248120">
        <ele>593.0</ele>
        <time>2019-07-07T13:12:10Z</time>
      </trkpt>
      <trkpt lat="40.0727770" lon="-3.2253960">
        <ele>594.0</ele>
        <time>2019-07-07T13:12:18Z</time>
      </trkpt>
      <trkpt lat="40.0727560" lon="-3.2257140">
        <ele>593.8</ele>
        <time>2019-07-07T13:12:23Z</time>
      </trkpt>
      <trkpt lat="40.0727540" lon="-3.2258420">
        <ele>594.0</ele>
        <time>2019-07-07T13:12:25Z</time>
      </trkpt>
      <trkpt lat="40.0727380" lon="-3.2260460">
        <ele>594.4</ele>
        <time>2019-07-07T13:12:28Z</time>
      </trkpt>
      <trkpt lat="40.0727190" lon="-3.2263240">
        <ele>594.8</ele>
        <time>2019-07-07T13:12:32Z</time>
      </trkpt>
      <trkpt lat="40.0727010" lon="-3.2266040">
        <ele>595.2</ele>
        <time>2019-07-07T13:12:36Z</time>
      </trkpt>
      <trkpt lat="40.0726800" lon="-3.2268130">
        <ele>595.4</ele>
        <time>2019-07-07T13:12:39Z</time>
      </trkpt>
      <trkpt lat="40.0726470" lon="-3.2271010">
        <ele>595.8</ele>
        <time>2019-07-07T13:12:43Z</time>
      </trkpt>
      <trkpt lat="40.0725280" lon="-3.2278540">
        <ele>596.0</ele>
        <time>2019-07-07T13:12:53Z</time>
      </trkpt>
      <trkpt lat="40.0724750" lon="-3.2282280">
        <ele>596.6</ele>
        <time>2019-07-07T13:12:58Z</time>
      </trkpt>
      <trkpt lat="40.0724320" lon="-3.2285350">
        <ele>596.6</ele>
        <time>2019-07-07T13:13:02Z</time>
      </trkpt>
      <trkpt lat="40.0723550" lon="-3.2290000">
        <ele>596.8</ele>
        <time>2019-07-07T13:13:08Z</time>
      </trkpt>
      <trkpt lat="40.0723220" lon="-3.2292380">
        <ele>597.0</ele>
        <time>2019-07-07T13:13:11Z</time>
      </trkpt>
      <trkpt lat="40.0722170" lon="-3.2299650">
        <ele>597.0</ele>
        <time>2019-07-07T13:13:20Z</time>
      </trkpt>
      <trkpt lat="40.0721960" lon="-3.2301280">
        <ele>597.0</ele>
        <time>2019-07-07T13:13:22Z</time>
      </trkpt>
      <trkpt lat="40.0721720" lon="-3.2307790">
        <ele>597.4</ele>
        <time>2019-07-07T13:13:30Z</time>
      </trkpt>
      <trkpt lat="40.0721670" lon="-3.2314990">
        <ele>597.4</ele>
        <time>2019-07-07T13:13:39Z</time>
      </trkpt>
      <trkpt lat="40.0721660" lon="-3.2315790">
        <ele>597.4</ele>
        <time>2019-07-07T13:13:40Z</time>
      </trkpt>
      <trkpt lat="40.0721520" lon="-3.2323060">
        <ele>597.4</ele>
        <time>2019-07-07T13:13:49Z</time>
      </trkpt>
      <trkpt lat="40.0721550" lon="-3.2324690">
        <ele>597.4</ele>
        <time>2019-07-07T13:13:51Z</time>
      </trkpt>
      <trkpt lat="40.0721450" lon="-3.2330460">
        <ele>597.6</ele>
        <time>2019-07-07T13:13:58Z</time>
      </trkpt>
      <trkpt lat="40.0720530" lon="-3.2337810">
        <ele>597.6</ele>
        <time>2019-07-07T13:14:07Z</time>
      </trkpt>
      <trkpt lat="40.0718620" lon="-3.2344990">
        <ele>597.4</ele>
        <time>2019-07-07T13:14:16Z</time>
      </trkpt>
      <trkpt lat="40.0716680" lon="-3.2352280">
        <ele>597.8</ele>
        <time>2019-07-07T13:14:25Z</time>
      </trkpt>
      <trkpt lat="40.0716420" lon="-3.2353070">
        <ele>597.8</ele>
        <time>2019-07-07T13:14:26Z</time>
      </trkpt>
      <trkpt lat="40.0714870" lon="-3.2358770">
        <ele>597.6</ele>
        <time>2019-07-07T13:14:33Z</time>
      </trkpt>
      <trkpt lat="40.0713350" lon="-3.2364690">
        <ele>597.8</ele>
        <time>2019-07-07T13:14:40Z</time>
      </trkpt>
      <trkpt lat="40.0711690" lon="-3.2370680">
        <ele>597.8</ele>
        <time>2019-07-07T13:14:47Z</time>
      </trkpt>
      <trkpt lat="40.0711040" lon="-3.2372360">
        <ele>597.6</ele>
        <time>2019-07-07T13:14:49Z</time>
      </trkpt>
      <trkpt lat="40.0709840" lon="-3.2374740">
        <ele>597.8</ele>
        <time>2019-07-07T13:14:52Z</time>
      </trkpt>
      <trkpt lat="40.0707020" lon="-3.2379140">
        <ele>597.2</ele>
        <time>2019-07-07T13:14:58Z</time>
      </trkpt>
      <trkpt lat="40.0703870" lon="-3.2384070">
        <ele>596.8</ele>
        <time>2019-07-07T13:15:05Z</time>
      </trkpt>
      <trkpt lat="40.0702970" lon="-3.2385350">
        <ele>596.6</ele>
        <time>2019-07-07T13:15:07Z</time>
      </trkpt>
      <trkpt lat="40.0701150" lon="-3.2387820">
        <ele>596.8</ele>
        <time>2019-07-07T13:15:11Z</time>
      </trkpt>
      <trkpt lat="40.0698720" lon="-3.2390830">
        <ele>597.0</ele>
        <time>2019-07-07T13:15:16Z</time>
      </trkpt>
      <trkpt lat="40.0697670" lon="-3.2391910">
        <ele>596.8</ele>
        <time>2019-07-07T13:15:18Z</time>
      </trkpt>
      <trkpt lat="40.0697110" lon="-3.2392410">
        <ele>596.6</ele>
        <time>2019-07-07T13:15:19Z</time>
      </trkpt>
      <trkpt lat="40.0694770" lon="-3.2394120">
        <ele>596.4</ele>
        <time>2019-07-07T13:15:23Z</time>
      </trkpt>
      <trkpt lat="40.0692410" lon="-3.2395770">
        <ele>596.6</ele>
        <time>2019-07-07T13:15:27Z</time>
      </trkpt>
      <trkpt lat="40.0690710" lon="-3.2397090">
        <ele>596.4</ele>
        <time>2019-07-07T13:15:30Z</time>
      </trkpt>
      <trkpt lat="40.0689590" lon="-3.2397870">
        <ele>596.2</ele>
        <time>2019-07-07T13:15:32Z</time>
      </trkpt>
      <trkpt lat="40.0687010" lon="-3.2399850">
        <ele>596.4</ele>
        <time>2019-07-07T13:15:37Z</time>
      </trkpt>
      <trkpt lat="40.0685980" lon="-3.2400640">
        <ele>596.4</ele>
        <time>2019-07-07T13:15:39Z</time>
      </trkpt>
      <trkpt lat="40.0683740" lon="-3.2403160">
        <ele>596.4</ele>
        <time>2019-07-07T13:15:44Z</time>
      </trkpt>
      <trkpt lat="40.0680310" lon="-3.2407330">
        <ele>596.6</ele>
        <time>2019-07-07T13:15:52Z</time>
      </trkpt>
      <trkpt lat="40.0677590" lon="-3.2410470">
        <ele>596.4</ele>
        <time>2019-07-07T13:15:58Z</time>
      </trkpt>
      <trkpt lat="40.0677150" lon="-3.2411060">
        <ele>596.4</ele>
        <time>2019-07-07T13:15:59Z</time>
      </trkpt>
      <trkpt lat="40.0675180" lon="-3.2413590">
        <ele>595.8</ele>
        <time>2019-07-07T13:16:03Z</time>
      </trkpt>
      <trkpt lat="40.0673470" lon="-3.2415590">
        <ele>594.8</ele>
        <time>2019-07-07T13:16:06Z</time>
      </trkpt>
      <trkpt lat="40.0671660" lon="-3.2417700">
        <ele>594.2</ele>
        <time>2019-07-07T13:16:09Z</time>
      </trkpt>
      <trkpt lat="40.0671040" lon="-3.2418420">
        <ele>593.8</ele>
        <time>2019-07-07T13:16:10Z</time>
      </trkpt>
      <trkpt lat="40.0668610" lon="-3.2421480">
        <ele>592.4</ele>
        <time>2019-07-07T13:16:14Z</time>
      </trkpt>
      <trkpt lat="40.0667330" lon="-3.2422960">
        <ele>591.6</ele>
        <time>2019-07-07T13:16:16Z</time>
      </trkpt>
      <trkpt lat="40.0666690" lon="-3.2423730">
        <ele>591.2</ele>
        <time>2019-07-07T13:16:17Z</time>
      </trkpt>
      <trkpt lat="40.0666070" lon="-3.2424510">
        <ele>590.8</ele>
        <time>2019-07-07T13:16:18Z</time>
      </trkpt>
      <trkpt lat="40.0664240" lon="-3.2426890">
        <ele>590.0</ele>
        <time>2019-07-07T13:16:21Z</time>
      </trkpt>
      <trkpt lat="40.0663700" lon="-3.2427770">
        <ele>589.6</ele>
        <time>2019-07-07T13:16:22Z</time>
      </trkpt>
      <trkpt lat="40.0663250" lon="-3.2428720">
        <ele>589.2</ele>
        <time>2019-07-07T13:16:23Z</time>
      </trkpt>
      <trkpt lat="40.0662550" lon="-3.2430750">
        <ele>588.8</ele>
        <time>2019-07-07T13:16:25Z</time>
      </trkpt>
      <trkpt lat="40.0662110" lon="-3.2432860">
        <ele>588.6</ele>
        <time>2019-07-07T13:16:27Z</time>
      </trkpt>
      <trkpt lat="40.0661510" lon="-3.2436120">
        <ele>588.0</ele>
        <time>2019-07-07T13:16:30Z</time>
      </trkpt>
      <trkpt lat="40.0661300" lon="-3.2437200">
        <ele>587.6</ele>
        <time>2019-07-07T13:16:31Z</time>
      </trkpt>
      <trkpt lat="40.0660330" lon="-3.2442320">
        <ele>587.6</ele>
        <time>2019-07-07T13:16:36Z</time>
      </trkpt>
      <trkpt lat="40.0659270" lon="-3.2447900">
        <ele>588.2</ele>
        <time>2019-07-07T13:16:42Z</time>
      </trkpt>
      <trkpt lat="40.0659070" lon="-3.2448820">
        <ele>588.2</ele>
        <time>2019-07-07T13:16:43Z</time>
      </trkpt>
      <trkpt lat="40.0657790" lon="-3.2455370">
        <ele>588.2</ele>
        <time>2019-07-07T13:16:50Z</time>
      </trkpt>
      <trkpt lat="40.0656330" lon="-3.2462800">
        <ele>587.6</ele>
        <time>2019-07-07T13:16:58Z</time>
      </trkpt>
      <trkpt lat="40.0656140" lon="-3.2463720">
        <ele>587.6</ele>
        <time>2019-07-07T13:16:59Z</time>
      </trkpt>
      <trkpt lat="40.0654780" lon="-3.2470950">
        <ele>587.4</ele>
        <time>2019-07-07T13:17:07Z</time>
      </trkpt>
      <trkpt lat="40.0653560" lon="-3.2477330">
        <ele>587.8</ele>
        <time>2019-07-07T13:17:14Z</time>
      </trkpt>
      <trkpt lat="40.0652710" lon="-3.2481820">
        <ele>586.8</ele>
        <time>2019-07-07T13:17:19Z</time>
      </trkpt>
      <trkpt lat="40.0652370" lon="-3.2483570">
        <ele>586.6</ele>
        <time>2019-07-07T13:17:21Z</time>
      </trkpt>
      <trkpt lat="40.0651030" lon="-3.2490580">
        <ele>586.4</ele>
        <time>2019-07-07T13:17:29Z</time>
      </trkpt>
      <trkpt lat="40.0650700" lon="-3.2492390">
        <ele>586.4</ele>
        <time>2019-07-07T13:17:31Z</time>
      </trkpt>
      <trkpt lat="40.0649300" lon="-3.2499810">
        <ele>586.2</ele>
        <time>2019-07-07T13:17:39Z</time>
      </trkpt>
      <trkpt lat="40.0648950" lon="-3.2501720">
        <ele>586.2</ele>
        <time>2019-07-07T13:17:41Z</time>
      </trkpt>
      <trkpt lat="40.0647660" lon="-3.2509430">
        <ele>586.2</ele>
        <time>2019-07-07T13:17:49Z</time>
      </trkpt>
      <trkpt lat="40.0647530" lon="-3.2510390">
        <ele>586.0</ele>
        <time>2019-07-07T13:17:50Z</time>
      </trkpt>
      <trkpt lat="40.0646400" lon="-3.2518020">
        <ele>586.0</ele>
        <time>2019-07-07T13:17:58Z</time>
      </trkpt>
      <trkpt lat="40.0646250" lon="-3.2518960">
        <ele>586.0</ele>
        <time>2019-07-07T13:17:59Z</time>
      </trkpt>
      <trkpt lat="40.0645830" lon="-3.2521760">
        <ele>585.8</ele>
        <time>2019-07-07T13:18:02Z</time>
      </trkpt>
      <trkpt lat="40.0644710" lon="-3.2529310">
        <ele>586.0</ele>
        <time>2019-07-07T13:18:10Z</time>
      </trkpt>
      <trkpt lat="40.0644570" lon="-3.2530240">
        <ele>586.0</ele>
        <time>2019-07-07T13:18:11Z</time>
      </trkpt>
      <trkpt lat="40.0643450" lon="-3.2537640">
        <ele>585.8</ele>
        <time>2019-07-07T13:18:19Z</time>
      </trkpt>
      <trkpt lat="40.0642870" lon="-3.2541310">
        <ele>585.8</ele>
        <time>2019-07-07T13:18:23Z</time>
      </trkpt>
      <trkpt lat="40.0641840" lon="-3.2548780">
        <ele>585.8</ele>
        <time>2019-07-07T13:18:31Z</time>
      </trkpt>
      <trkpt lat="40.0641560" lon="-3.2550660">
        <ele>585.8</ele>
        <time>2019-07-07T13:18:33Z</time>
      </trkpt>
      <trkpt lat="40.0640440" lon="-3.2558110">
        <ele>586.0</ele>
        <time>2019-07-07T13:18:41Z</time>
      </trkpt>
      <trkpt lat="40.0640300" lon="-3.2559040">
        <ele>586.0</ele>
        <time>2019-07-07T13:18:42Z</time>
      </trkpt>
      <trkpt lat="40.0639210" lon="-3.2566240">
        <ele>586.2</ele>
        <time>2019-07-07T13:18:50Z</time>
      </trkpt>
      <trkpt lat="40.0639090" lon="-3.2567150">
        <ele>586.2</ele>
        <time>2019-07-07T13:18:51Z</time>
      </trkpt>
      <trkpt lat="40.0638080" lon="-3.2574130">
        <ele>586.4</ele>
        <time>2019-07-07T13:18:59Z</time>
      </trkpt>
      <trkpt lat="40.0637960" lon="-3.2574970">
        <ele>586.2</ele>
        <time>2019-07-07T13:19:00Z</time>
      </trkpt>
      <trkpt lat="40.0637270" lon="-3.2581460">
        <ele>586.6</ele>
        <time>2019-07-07T13:19:08Z</time>
      </trkpt>
      <trkpt lat="40.0637130" lon="-3.2582980">
        <ele>586.8</ele>
        <time>2019-07-07T13:19:10Z</time>
      </trkpt>
      <trkpt lat="40.0637000" lon="-3.2587440">
        <ele>587.0</ele>
        <time>2019-07-07T13:19:16Z</time>
      </trkpt>
      <trkpt lat="40.0636950" lon="-3.2589670">
        <ele>587.0</ele>
        <time>2019-07-07T13:19:19Z</time>
      </trkpt>
      <trkpt lat="40.0636790" lon="-3.2592640">
        <ele>587.4</ele>
        <time>2019-07-07T13:19:23Z</time>
      </trkpt>
      <trkpt lat="40.0636670" lon="-3.2596460">
        <ele>587.8</ele>
        <time>2019-07-07T13:19:28Z</time>
      </trkpt>
      <trkpt lat="40.0636440" lon="-3.2603650">
        <ele>587.6</ele>
        <time>2019-07-07T13:19:37Z</time>
      </trkpt>
      <trkpt lat="40.0636400" lon="-3.2604460">
        <ele>587.6</ele>
        <time>2019-07-07T13:19:38Z</time>
      </trkpt>
      <trkpt lat="40.0636280" lon="-3.2608650">
        <ele>587.6</ele>
        <time>2019-07-07T13:19:43Z</time>
      </trkpt>
      <trkpt lat="40.0636130" lon="-3.2611200">
        <ele>587.6</ele>
        <time>2019-07-07T13:19:46Z</time>
      </trkpt>
      <trkpt lat="40.0635970" lon="-3.2618050">
        <ele>587.4</ele>
        <time>2019-07-07T13:19:54Z</time>
      </trkpt>
      <trkpt lat="40.0635780" lon="-3.2624850">
        <ele>587.4</ele>
        <time>2019-07-07T13:20:02Z</time>
      </trkpt>
      <trkpt lat="40.0635630" lon="-3.2629770">
        <ele>587.4</ele>
        <time>2019-07-07T13:20:08Z</time>
      </trkpt>
      <trkpt lat="40.0635530" lon="-3.2633800">
        <ele>587.2</ele>
        <time>2019-07-07T13:20:13Z</time>
      </trkpt>
      <trkpt lat="40.0635290" lon="-3.2640890">
        <ele>587.4</ele>
        <time>2019-07-07T13:20:22Z</time>
      </trkpt>
      <trkpt lat="40.0635290" lon="-3.2641610">
        <ele>587.4</ele>
        <time>2019-07-07T13:20:23Z</time>
      </trkpt>
      <trkpt lat="40.0635390" lon="-3.2643570">
        <ele>587.8</ele>
        <time>2019-07-07T13:20:26Z</time>
      </trkpt>
      <trkpt lat="40.0635700" lon="-3.2644740">
        <ele>587.6</ele>
        <time>2019-07-07T13:20:28Z</time>
      </trkpt>
      <trkpt lat="40.0636100" lon="-3.2645760">
        <ele>587.8</ele>
        <time>2019-07-07T13:20:30Z</time>
      </trkpt>
      <trkpt lat="40.0636970" lon="-3.2647040">
        <ele>588.4</ele>
        <time>2019-07-07T13:20:33Z</time>
      </trkpt>
      <trkpt lat="40.0637580" lon="-3.2647830">
        <ele>589.0</ele>
        <time>2019-07-07T13:20:35Z</time>
      </trkpt>
      <trkpt lat="40.0639590" lon="-3.2650070">
        <ele>589.6</ele>
        <time>2019-07-07T13:20:41Z</time>
      </trkpt>
      <trkpt lat="40.0640870" lon="-3.2651610">
        <ele>590.0</ele>
        <time>2019-07-07T13:20:45Z</time>
      </trkpt>
      <trkpt lat="40.0641530" lon="-3.2652380">
        <ele>590.6</ele>
        <time>2019-07-07T13:20:47Z</time>
      </trkpt>
      <trkpt lat="40.0641820" lon="-3.2652800">
        <ele>590.8</ele>
        <time>2019-07-07T13:20:48Z</time>
      </trkpt>
      <trkpt lat="40.0642340" lon="-3.2653680">
        <ele>591.2</ele>
        <time>2019-07-07T13:20:50Z</time>
      </trkpt>
      <trkpt lat="40.0642570" lon="-3.2654150">
        <ele>591.2</ele>
        <time>2019-07-07T13:20:51Z</time>
      </trkpt>
      <trkpt lat="40.0643400" lon="-3.2656100">
        <ele>592.0</ele>
        <time>2019-07-07T13:20:55Z</time>
      </trkpt>
      <trkpt lat="40.0643540" lon="-3.2656610">
        <ele>592.2</ele>
        <time>2019-07-07T13:20:56Z</time>
      </trkpt>
      <trkpt lat="40.0644250" lon="-3.2659710">
        <ele>592.6</ele>
        <time>2019-07-07T13:21:02Z</time>
      </trkpt>
      <trkpt lat="40.0644420" lon="-3.2660740">
        <ele>592.8</ele>
        <time>2019-07-07T13:21:04Z</time>
      </trkpt>
      <trkpt lat="40.0644680" lon="-3.2662250">
        <ele>593.6</ele>
        <time>2019-07-07T13:21:07Z</time>
      </trkpt>
      <trkpt lat="40.0645220" lon="-3.2665180">
        <ele>594.4</ele>
        <time>2019-07-07T13:21:13Z</time>
      </trkpt>
      <trkpt lat="40.0645370" lon="-3.2666000">
        <ele>594.6</ele>
        <time>2019-07-07T13:21:15Z</time>
      </trkpt>
      <trkpt lat="40.0645710" lon="-3.2667310">
        <ele>595.0</ele>
        <time>2019-07-07T13:21:19Z</time>
      </trkpt>
      <trkpt lat="40.0645800" lon="-3.2667750">
        <ele>595.4</ele>
        <time>2019-07-07T13:21:23Z</time>
      </trkpt>
      <trkpt lat="40.0645840" lon="-3.2668050">
        <ele>596.0</ele>
        <time>2019-07-07T13:24:05Z</time>
      </trkpt>
      <trkpt lat="40.0645840" lon="-3.2668130">
        <ele>596.0</ele>
        <time>2019-07-07T13:24:06Z</time>
      </trkpt>
      <trkpt lat="40.0645840" lon="-3.2668130">
        <ele>596.0</ele>
        <time>2019-07-07T13:24:07Z</time>
      </trkpt>
      <trkpt lat="40.0646000" lon="-3.2668560">
        <ele>596.2</ele>
        <time>2019-07-07T13:24:24Z</time>
      </trkpt>
      <trkpt lat="40.0646080" lon="-3.2669100">
        <ele>596.2</ele>
        <time>2019-07-07T13:24:26Z</time>
      </trkpt>
      <trkpt lat="40.0646170" lon="-3.2669820">
        <ele>596.6</ele>
        <time>2019-07-07T13:24:28Z</time>
      </trkpt>
      <trkpt lat="40.0646420" lon="-3.2671490">
        <ele>597.2</ele>
        <time>2019-07-07T13:24:32Z</time>
      </trkpt>
      <trkpt lat="40.0646570" lon="-3.2672320">
        <ele>597.4</ele>
        <time>2019-07-07T13:24:34Z</time>
      </trkpt>
      <trkpt lat="40.0646960" lon="-3.2674570">
        <ele>598.0</ele>
        <time>2019-07-07T13:24:39Z</time>
      </trkpt>
      <trkpt lat="40.0647260" lon="-3.2676020">
        <ele>598.6</ele>
        <time>2019-07-07T13:24:42Z</time>
      </trkpt>
      <trkpt lat="40.0647890" lon="-3.2678470">
        <ele>599.4</ele>
        <time>2019-07-07T13:24:47Z</time>
      </trkpt>
      <trkpt lat="40.0648220" lon="-3.2679390">
        <ele>599.6</ele>
        <time>2019-07-07T13:24:49Z</time>
      </trkpt>
      <trkpt lat="40.0649060" lon="-3.2681020">
        <ele>600.0</ele>
        <time>2019-07-07T13:24:53Z</time>
      </trkpt>
      <trkpt lat="40.0650570" lon="-3.2683240">
        <ele>600.8</ele>
        <time>2019-07-07T13:24:59Z</time>
      </trkpt>
      <trkpt lat="40.0651100" lon="-3.2683950">
        <ele>601.0</ele>
        <time>2019-07-07T13:25:01Z</time>
      </trkpt>
      <trkpt lat="40.0652560" lon="-3.2686380">
        <ele>601.6</ele>
        <time>2019-07-07T13:25:07Z</time>
      </trkpt>
      <trkpt lat="40.0653310" lon="-3.2687480">
        <ele>602.0</ele>
        <time>2019-07-07T13:25:10Z</time>
      </trkpt>
      <trkpt lat="40.0653540" lon="-3.2687820">
        <ele>602.2</ele>
        <time>2019-07-07T13:25:11Z</time>
      </trkpt>
      <trkpt lat="40.0654670" lon="-3.2689540">
        <ele>603.0</ele>
        <time>2019-07-07T13:25:16Z</time>
      </trkpt>
      <trkpt lat="40.0655190" lon="-3.2690190">
        <ele>603.2</ele>
        <time>2019-07-07T13:25:18Z</time>
      </trkpt>
      <trkpt lat="40.0656580" lon="-3.2692380">
        <ele>604.0</ele>
        <time>2019-07-07T13:25:24Z</time>
      </trkpt>
      <trkpt lat="40.0656810" lon="-3.2692760">
        <ele>604.2</ele>
        <time>2019-07-07T13:25:25Z</time>
      </trkpt>
      <trkpt lat="40.0658290" lon="-3.2694900">
        <ele>604.6</ele>
        <time>2019-07-07T13:25:31Z</time>
      </trkpt>
      <trkpt lat="40.0659000" lon="-3.2696030">
        <ele>605.2</ele>
        <time>2019-07-07T13:25:34Z</time>
      </trkpt>
      <trkpt lat="40.0660200" lon="-3.2697810">
        <ele>605.8</ele>
        <time>2019-07-07T13:25:39Z</time>
      </trkpt>
      <trkpt lat="40.0661710" lon="-3.2700090">
        <ele>606.4</ele>
        <time>2019-07-07T13:25:45Z</time>
      </trkpt>
      <trkpt lat="40.0662210" lon="-3.2700880">
        <ele>606.8</ele>
        <time>2019-07-07T13:25:47Z</time>
      </trkpt>
      <trkpt lat="40.0663220" lon="-3.2702470">
        <ele>607.4</ele>
        <time>2019-07-07T13:25:51Z</time>
      </trkpt>
      <trkpt lat="40.0664760" lon="-3.2704720">
        <ele>608.4</ele>
        <time>2019-07-07T13:25:57Z</time>
      </trkpt>
      <trkpt lat="40.0667040" lon="-3.2708110">
        <ele>609.6</ele>
        <time>2019-07-07T13:26:06Z</time>
      </trkpt>
      <trkpt lat="40.0668570" lon="-3.2710470">
        <ele>610.6</ele>
        <time>2019-07-07T13:26:12Z</time>
      </trkpt>
      <trkpt lat="40.0669640" lon="-3.2712070">
        <ele>611.4</ele>
        <time>2019-07-07T13:26:16Z</time>
      </trkpt>
      <trkpt lat="40.0670200" lon="-3.2712830">
        <ele>611.8</ele>
        <time>2019-07-07T13:26:18Z</time>
      </trkpt>
      <trkpt lat="40.0672060" lon="-3.2715640">
        <ele>612.4</ele>
        <time>2019-07-07T13:26:25Z</time>
      </trkpt>
      <trkpt lat="40.0672590" lon="-3.2716430">
        <ele>612.8</ele>
        <time>2019-07-07T13:26:27Z</time>
      </trkpt>
      <trkpt lat="40.0675190" lon="-3.2720330">
        <ele>614.0</ele>
        <time>2019-07-07T13:26:37Z</time>
      </trkpt>
      <trkpt lat="40.0675430" lon="-3.2720730">
        <ele>614.2</ele>
        <time>2019-07-07T13:26:38Z</time>
      </trkpt>
      <trkpt lat="40.0677010" lon="-3.2723040">
        <ele>615.2</ele>
        <time>2019-07-07T13:26:44Z</time>
      </trkpt>
      <trkpt lat="40.0678050" lon="-3.2724560">
        <ele>615.6</ele>
        <time>2019-07-07T13:26:48Z</time>
      </trkpt>
      <trkpt lat="40.0678820" lon="-3.2725700">
        <ele>616.2</ele>
        <time>2019-07-07T13:26:51Z</time>
      </trkpt>
      <trkpt lat="40.0680320" lon="-3.2727930">
        <ele>617.0</ele>
        <time>2019-07-07T13:26:57Z</time>
      </trkpt>
      <trkpt lat="40.0681280" lon="-3.2729420">
        <ele>617.4</ele>
        <time>2019-07-07T13:27:01Z</time>
      </trkpt>
      <trkpt lat="40.0682160" lon="-3.2730910">
        <ele>618.2</ele>
        <time>2019-07-07T13:27:05Z</time>
      </trkpt>
      <trkpt lat="40.0682830" lon="-3.2731940">
        <ele>618.8</ele>
        <time>2019-07-07T13:27:08Z</time>
      </trkpt>
      <trkpt lat="40.0684180" lon="-3.2734060">
        <ele>619.8</ele>
        <time>2019-07-07T13:27:14Z</time>
      </trkpt>
      <trkpt lat="40.0684410" lon="-3.2734400">
        <ele>619.8</ele>
        <time>2019-07-07T13:27:15Z</time>
      </trkpt>
      <trkpt lat="40.0686220" lon="-3.2737070">
        <ele>620.4</ele>
        <time>2019-07-07T13:27:23Z</time>
      </trkpt>
      <trkpt lat="40.0686920" lon="-3.2738100">
        <ele>620.8</ele>
        <time>2019-07-07T13:27:26Z</time>
      </trkpt>
      <trkpt lat="40.0688600" lon="-3.2740610">
        <ele>622.0</ele>
        <time>2019-07-07T13:27:33Z</time>
      </trkpt>
      <trkpt lat="40.0690010" lon="-3.2742790">
        <ele>623.0</ele>
        <time>2019-07-07T13:27:39Z</time>
      </trkpt>
      <trkpt lat="40.0691470" lon="-3.2744960">
        <ele>624.0</ele>
        <time>2019-07-07T13:27:45Z</time>
      </trkpt>
      <trkpt lat="40.0691710" lon="-3.2745310">
        <ele>624.2</ele>
        <time>2019-07-07T13:27:46Z</time>
      </trkpt>
      <trkpt lat="40.0692900" lon="-3.2747120">
        <ele>625.4</ele>
        <time>2019-07-07T13:27:51Z</time>
      </trkpt>
      <trkpt lat="40.0693570" lon="-3.2748260">
        <ele>625.8</ele>
        <time>2019-07-07T13:27:54Z</time>
      </trkpt>
      <trkpt lat="40.0694340" lon="-3.2749320">
        <ele>626.4</ele>
        <time>2019-07-07T13:27:57Z</time>
      </trkpt>
      <trkpt lat="40.0695570" lon="-3.2751170">
        <ele>627.2</ele>
        <time>2019-07-07T13:28:02Z</time>
      </trkpt>
      <trkpt lat="40.0696400" lon="-3.2752200">
        <ele>627.8</ele>
        <time>2019-07-07T13:28:05Z</time>
      </trkpt>
      <trkpt lat="40.0697300" lon="-3.2753040">
        <ele>628.4</ele>
        <time>2019-07-07T13:28:08Z</time>
      </trkpt>
      <trkpt lat="40.0698500" lon="-3.2754090">
        <ele>629.0</ele>
        <time>2019-07-07T13:28:12Z</time>
      </trkpt>
      <trkpt lat="40.0699760" lon="-3.2755010">
        <ele>630.0</ele>
        <time>2019-07-07T13:28:16Z</time>
      </trkpt>
      <trkpt lat="40.0700090" lon="-3.2755250">
        <ele>630.0</ele>
        <time>2019-07-07T13:28:17Z</time>
      </trkpt>
      <trkpt lat="40.0702070" lon="-3.2756770">
        <ele>631.0</ele>
        <time>2019-07-07T13:28:23Z</time>
      </trkpt>
      <trkpt lat="40.0702420" lon="-3.2757020">
        <ele>631.2</ele>
        <time>2019-07-07T13:28:24Z</time>
      </trkpt>
      <trkpt lat="40.0704050" lon="-3.2758270">
        <ele>632.0</ele>
        <time>2019-07-07T13:28:29Z</time>
      </trkpt>
      <trkpt lat="40.0705040" lon="-3.2758960">
        <ele>632.4</ele>
        <time>2019-07-07T13:28:32Z</time>
      </trkpt>
      <trkpt lat="40.0706780" lon="-3.2759940">
        <ele>633.2</ele>
        <time>2019-07-07T13:28:37Z</time>
      </trkpt>
      <trkpt lat="40.0707500" lon="-3.2760140">
        <ele>633.4</ele>
        <time>2019-07-07T13:28:39Z</time>
      </trkpt>
      <trkpt lat="40.0709350" lon="-3.2760410">
        <ele>634.4</ele>
        <time>2019-07-07T13:28:44Z</time>
      </trkpt>
      <trkpt lat="40.0711180" lon="-3.2760590">
        <ele>635.0</ele>
        <time>2019-07-07T13:28:49Z</time>
      </trkpt>
      <trkpt lat="40.0711920" lon="-3.2760590">
        <ele>635.6</ele>
        <time>2019-07-07T13:28:51Z</time>
      </trkpt>
      <trkpt lat="40.0713430" lon="-3.2760630">
        <ele>636.6</ele>
        <time>2019-07-07T13:28:55Z</time>
      </trkpt>
      <trkpt lat="40.0715260" lon="-3.2760770">
        <ele>637.6</ele>
        <time>2019-07-07T13:29:00Z</time>
      </trkpt>
      <trkpt lat="40.0715620" lon="-3.2760800">
        <ele>637.6</ele>
        <time>2019-07-07T13:29:01Z</time>
      </trkpt>
      <trkpt lat="40.0718150" lon="-3.2760940">
        <ele>638.6</ele>
        <time>2019-07-07T13:29:08Z</time>
      </trkpt>
      <trkpt lat="40.0719220" lon="-3.2761020">
        <ele>639.2</ele>
        <time>2019-07-07T13:29:11Z</time>
      </trkpt>
      <trkpt lat="40.0719570" lon="-3.2761040">
        <ele>639.6</ele>
        <time>2019-07-07T13:29:12Z</time>
      </trkpt>
      <trkpt lat="40.0721370" lon="-3.2761150">
        <ele>640.8</ele>
        <time>2019-07-07T13:29:17Z</time>
      </trkpt>
      <trkpt lat="40.0722480" lon="-3.2761290">
        <ele>641.4</ele>
        <time>2019-07-07T13:29:20Z</time>
      </trkpt>
      <trkpt lat="40.0723990" lon="-3.2761380">
        <ele>642.0</ele>
        <time>2019-07-07T13:29:24Z</time>
      </trkpt>
      <trkpt lat="40.0725980" lon="-3.2761460">
        <ele>642.8</ele>
        <time>2019-07-07T13:29:29Z</time>
      </trkpt>
      <trkpt lat="40.0726770" lon="-3.2761550">
        <ele>643.0</ele>
        <time>2019-07-07T13:29:31Z</time>
      </trkpt>
      <trkpt lat="40.0727560" lon="-3.2761580">
        <ele>643.2</ele>
        <time>2019-07-07T13:29:33Z</time>
      </trkpt>
      <trkpt lat="40.0728750" lon="-3.2761680">
        <ele>643.8</ele>
        <time>2019-07-07T13:29:36Z</time>
      </trkpt>
      <trkpt lat="40.0729160" lon="-3.2761670">
        <ele>644.0</ele>
        <time>2019-07-07T13:29:37Z</time>
      </trkpt>
      <trkpt lat="40.0731540" lon="-3.2761930">
        <ele>645.4</ele>
        <time>2019-07-07T13:29:43Z</time>
      </trkpt>
      <trkpt lat="40.0731930" lon="-3.2762010">
        <ele>645.4</ele>
        <time>2019-07-07T13:29:44Z</time>
      </trkpt>
      <trkpt lat="40.0733390" lon="-3.2762820">
        <ele>646.4</ele>
        <time>2019-07-07T13:29:48Z</time>
      </trkpt>
      <trkpt lat="40.0733710" lon="-3.2763120">
        <ele>646.4</ele>
        <time>2019-07-07T13:29:49Z</time>
      </trkpt>
      <trkpt lat="40.0735300" lon="-3.2765410">
        <ele>647.0</ele>
        <time>2019-07-07T13:29:55Z</time>
      </trkpt>
      <trkpt lat="40.0735510" lon="-3.2765850">
        <ele>647.4</ele>
        <time>2019-07-07T13:29:56Z</time>
      </trkpt>
      <trkpt lat="40.0736350" lon="-3.2768120">
        <ele>648.4</ele>
        <time>2019-07-07T13:30:01Z</time>
      </trkpt>
      <trkpt lat="40.0736500" lon="-3.2768580">
        <ele>648.6</ele>
        <time>2019-07-07T13:30:02Z</time>
      </trkpt>
      <trkpt lat="40.0737290" lon="-3.2770850">
        <ele>649.6</ele>
        <time>2019-07-07T13:30:07Z</time>
      </trkpt>
      <trkpt lat="40.0738120" lon="-3.2773120">
        <ele>650.6</ele>
        <time>2019-07-07T13:30:12Z</time>
      </trkpt>
      <trkpt lat="40.0738270" lon="-3.2773580">
        <ele>650.6</ele>
        <time>2019-07-07T13:30:13Z</time>
      </trkpt>
      <trkpt lat="40.0739060" lon="-3.2775800">
        <ele>651.8</ele>
        <time>2019-07-07T13:30:18Z</time>
      </trkpt>
      <trkpt lat="40.0739420" lon="-3.2776670">
        <ele>652.0</ele>
        <time>2019-07-07T13:30:20Z</time>
      </trkpt>
      <trkpt lat="40.0740540" lon="-3.2779800">
        <ele>652.8</ele>
        <time>2019-07-07T13:30:27Z</time>
      </trkpt>
      <trkpt lat="40.0740720" lon="-3.2780230">
        <ele>653.2</ele>
        <time>2019-07-07T13:30:28Z</time>
      </trkpt>
      <trkpt lat="40.0741430" lon="-3.2782000">
        <ele>653.8</ele>
        <time>2019-07-07T13:30:32Z</time>
      </trkpt>
      <trkpt lat="40.0742070" lon="-3.2783830">
        <ele>654.6</ele>
        <time>2019-07-07T13:30:36Z</time>
      </trkpt>
      <trkpt lat="40.0742390" lon="-3.2784720">
        <ele>654.8</ele>
        <time>2019-07-07T13:30:38Z</time>
      </trkpt>
      <trkpt lat="40.0743510" lon="-3.2787790">
        <ele>656.0</ele>
        <time>2019-07-07T13:30:45Z</time>
      </trkpt>
      <trkpt lat="40.0744330" lon="-3.2790050">
        <ele>657.2</ele>
        <time>2019-07-07T13:30:50Z</time>
      </trkpt>
      <trkpt lat="40.0744880" lon="-3.2791410">
        <ele>657.6</ele>
        <time>2019-07-07T13:30:53Z</time>
      </trkpt>
      <trkpt lat="40.0745360" lon="-3.2792740">
        <ele>658.2</ele>
        <time>2019-07-07T13:30:56Z</time>
      </trkpt>
      <trkpt lat="40.0746160" lon="-3.2795050">
        <ele>658.6</ele>
        <time>2019-07-07T13:31:01Z</time>
      </trkpt>
      <trkpt lat="40.0747190" lon="-3.2798960">
        <ele>658.8</ele>
        <time>2019-07-07T13:31:08Z</time>
      </trkpt>
      <trkpt lat="40.0748240" lon="-3.2803100">
        <ele>658.8</ele>
        <time>2019-07-07T13:31:15Z</time>
      </trkpt>
      <trkpt lat="40.0748460" lon="-3.2804350">
        <ele>658.8</ele>
        <time>2019-07-07T13:31:17Z</time>
      </trkpt>
      <trkpt lat="40.0749040" lon="-3.2806900">
        <ele>658.8</ele>
        <time>2019-07-07T13:31:21Z</time>
      </trkpt>
      <trkpt lat="40.0749610" lon="-3.2809800">
        <ele>658.6</ele>
        <time>2019-07-07T13:31:25Z</time>
      </trkpt>
      <trkpt lat="40.0750100" lon="-3.2812140">
        <ele>658.0</ele>
        <time>2019-07-07T13:31:28Z</time>
      </trkpt>
      <trkpt lat="40.0750660" lon="-3.2814550">
        <ele>657.6</ele>
        <time>2019-07-07T13:31:31Z</time>
      </trkpt>
      <trkpt lat="40.0751040" lon="-3.2816250">
        <ele>657.0</ele>
        <time>2019-07-07T13:31:33Z</time>
      </trkpt>
      <trkpt lat="40.0751630" lon="-3.2818900">
        <ele>656.2</ele>
        <time>2019-07-07T13:31:36Z</time>
      </trkpt>
      <trkpt lat="40.0751800" lon="-3.2819800">
        <ele>656.2</ele>
        <time>2019-07-07T13:31:37Z</time>
      </trkpt>
      <trkpt lat="40.0752180" lon="-3.2821570">
        <ele>655.8</ele>
        <time>2019-07-07T13:31:39Z</time>
      </trkpt>
      <trkpt lat="40.0752540" lon="-3.2823280">
        <ele>655.6</ele>
        <time>2019-07-07T13:31:41Z</time>
      </trkpt>
      <trkpt lat="40.0753260" lon="-3.2826560">
        <ele>655.2</ele>
        <time>2019-07-07T13:31:45Z</time>
      </trkpt>
      <trkpt lat="40.0754070" lon="-3.2830420">
        <ele>655.2</ele>
        <time>2019-07-07T13:31:50Z</time>
      </trkpt>
      <trkpt lat="40.0755400" lon="-3.2836760">
        <ele>655.4</ele>
        <time>2019-07-07T13:31:59Z</time>
      </trkpt>
      <trkpt lat="40.0756170" lon="-3.2840140">
        <ele>656.0</ele>
        <time>2019-07-07T13:32:04Z</time>
      </trkpt>
      <trkpt lat="40.0756600" lon="-3.2842010">
        <ele>656.2</ele>
        <time>2019-07-07T13:32:07Z</time>
      </trkpt>
      <trkpt lat="40.0757350" lon="-3.2845420">
        <ele>657.2</ele>
        <time>2019-07-07T13:32:13Z</time>
      </trkpt>
      <trkpt lat="40.0757460" lon="-3.2845990">
        <ele>657.4</ele>
        <time>2019-07-07T13:32:14Z</time>
      </trkpt>
      <trkpt lat="40.0758020" lon="-3.2848840">
        <ele>658.2</ele>
        <time>2019-07-07T13:32:19Z</time>
      </trkpt>
      <trkpt lat="40.0758650" lon="-3.2851680">
        <ele>658.8</ele>
        <time>2019-07-07T13:32:24Z</time>
      </trkpt>
      <trkpt lat="40.0759000" lon="-3.2853360">
        <ele>659.4</ele>
        <time>2019-07-07T13:32:27Z</time>
      </trkpt>
      <trkpt lat="40.0759680" lon="-3.2856150">
        <ele>660.6</ele>
        <time>2019-07-07T13:32:32Z</time>
      </trkpt>
      <trkpt lat="40.0759800" lon="-3.2856690">
        <ele>660.6</ele>
        <time>2019-07-07T13:32:33Z</time>
      </trkpt>
      <trkpt lat="40.0760520" lon="-3.2860070">
        <ele>661.4</ele>
        <time>2019-07-07T13:32:39Z</time>
      </trkpt>
      <trkpt lat="40.0760750" lon="-3.2861210">
        <ele>661.6</ele>
        <time>2019-07-07T13:32:41Z</time>
      </trkpt>
      <trkpt lat="40.0761300" lon="-3.2864010">
        <ele>662.8</ele>
        <time>2019-07-07T13:32:46Z</time>
      </trkpt>
      <trkpt lat="40.0761740" lon="-3.2866450">
        <ele>662.8</ele>
        <time>2019-07-07T13:32:50Z</time>
      </trkpt>
      <trkpt lat="40.0762730" lon="-3.2872680">
        <ele>662.2</ele>
        <time>2019-07-07T13:32:59Z</time>
      </trkpt>
      <trkpt lat="40.0763030" lon="-3.2874920">
        <ele>661.8</ele>
        <time>2019-07-07T13:33:02Z</time>
      </trkpt>
      <trkpt lat="40.0763510" lon="-3.2877980">
        <ele>661.2</ele>
        <time>2019-07-07T13:33:06Z</time>
      </trkpt>
      <trkpt lat="40.0763780" lon="-3.2879610">
        <ele>661.0</ele>
        <time>2019-07-07T13:33:08Z</time>
      </trkpt>
      <trkpt lat="40.0764020" lon="-3.2881280">
        <ele>660.8</ele>
        <time>2019-07-07T13:33:10Z</time>
      </trkpt>
      <trkpt lat="40.0764230" lon="-3.2882960">
        <ele>660.6</ele>
        <time>2019-07-07T13:33:12Z</time>
      </trkpt>
      <trkpt lat="40.0764710" lon="-3.2886390">
        <ele>660.4</ele>
        <time>2019-07-07T13:33:16Z</time>
      </trkpt>
      <trkpt lat="40.0764930" lon="-3.2888110">
        <ele>660.2</ele>
        <time>2019-07-07T13:33:18Z</time>
      </trkpt>
      <trkpt lat="40.0765410" lon="-3.2891410">
        <ele>659.8</ele>
        <time>2019-07-07T13:33:22Z</time>
      </trkpt>
      <trkpt lat="40.0765630" lon="-3.2893040">
        <ele>659.6</ele>
        <time>2019-07-07T13:33:24Z</time>
      </trkpt>
      <trkpt lat="40.0765830" lon="-3.2894720">
        <ele>659.6</ele>
        <time>2019-07-07T13:33:26Z</time>
      </trkpt>
      <trkpt lat="40.0766830" lon="-3.2901550">
        <ele>660.4</ele>
        <time>2019-07-07T13:33:34Z</time>
      </trkpt>
      <trkpt lat="40.0766940" lon="-3.2902420">
        <ele>660.4</ele>
        <time>2019-07-07T13:33:35Z</time>
      </trkpt>
      <trkpt lat="40.0767290" lon="-3.2904980">
        <ele>660.6</ele>
        <time>2019-07-07T13:33:38Z</time>
      </trkpt>
      <trkpt lat="40.0768000" lon="-3.2909940">
        <ele>660.8</ele>
        <time>2019-07-07T13:33:44Z</time>
      </trkpt>
      <trkpt lat="40.0768610" lon="-3.2913480">
        <ele>661.8</ele>
        <time>2019-07-07T13:33:49Z</time>
      </trkpt>
      <trkpt lat="40.0768870" lon="-3.2914800">
        <ele>662.2</ele>
        <time>2019-07-07T13:33:51Z</time>
      </trkpt>
      <trkpt lat="40.0769370" lon="-3.2916690">
        <ele>662.8</ele>
        <time>2019-07-07T13:33:54Z</time>
      </trkpt>
      <trkpt lat="40.0769780" lon="-3.2917800">
        <ele>663.2</ele>
        <time>2019-07-07T13:33:56Z</time>
      </trkpt>
      <trkpt lat="40.0770020" lon="-3.2918330">
        <ele>663.6</ele>
        <time>2019-07-07T13:33:57Z</time>
      </trkpt>
      <trkpt lat="40.0771130" lon="-3.2920220">
        <ele>664.2</ele>
        <time>2019-07-07T13:34:01Z</time>
      </trkpt>
      <trkpt lat="40.0771430" lon="-3.2920630">
        <ele>664.2</ele>
        <time>2019-07-07T13:34:02Z</time>
      </trkpt>
      <trkpt lat="40.0772000" lon="-3.2921450">
        <ele>664.6</ele>
        <time>2019-07-07T13:34:04Z</time>
      </trkpt>
      <trkpt lat="40.0772570" lon="-3.2922220">
        <ele>665.4</ele>
        <time>2019-07-07T13:34:06Z</time>
      </trkpt>
      <trkpt lat="40.0773670" lon="-3.2923750">
        <ele>666.4</ele>
        <time>2019-07-07T13:34:10Z</time>
      </trkpt>
      <trkpt lat="40.0773950" lon="-3.2924150">
        <ele>666.6</ele>
        <time>2019-07-07T13:34:11Z</time>
      </trkpt>
      <trkpt lat="40.0774830" lon="-3.2925370">
        <ele>667.0</ele>
        <time>2019-07-07T13:34:14Z</time>
      </trkpt>
      <trkpt lat="40.0776190" lon="-3.2927270">
        <ele>667.6</ele>
        <time>2019-07-07T13:34:19Z</time>
      </trkpt>
      <trkpt lat="40.0777020" lon="-3.2928300">
        <ele>668.2</ele>
        <time>2019-07-07T13:34:22Z</time>
      </trkpt>
      <trkpt lat="40.0777850" lon="-3.2929420">
        <ele>668.8</ele>
        <time>2019-07-07T13:34:25Z</time>
      </trkpt>
      <trkpt lat="40.0779170" lon="-3.2931280">
        <ele>669.8</ele>
        <time>2019-07-07T13:34:30Z</time>
      </trkpt>
      <trkpt lat="40.0780530" lon="-3.2933100">
        <ele>670.8</ele>
        <time>2019-07-07T13:34:35Z</time>
      </trkpt>
      <trkpt lat="40.0781640" lon="-3.2934660">
        <ele>671.4</ele>
        <time>2019-07-07T13:34:39Z</time>
      </trkpt>
      <trkpt lat="40.0782770" lon="-3.2936240">
        <ele>672.0</ele>
        <time>2019-07-07T13:34:43Z</time>
      </trkpt>
      <trkpt lat="40.0783900" lon="-3.2938040">
        <ele>672.6</ele>
        <time>2019-07-07T13:34:47Z</time>
      </trkpt>
      <trkpt lat="40.0785570" lon="-3.2942150">
        <ele>672.8</ele>
        <time>2019-07-07T13:34:54Z</time>
      </trkpt>
      <trkpt lat="40.0787330" lon="-3.2947700">
        <ele>672.2</ele>
        <time>2019-07-07T13:35:02Z</time>
      </trkpt>
      <trkpt lat="40.0788440" lon="-3.2951110">
        <ele>671.2</ele>
        <time>2019-07-07T13:35:06Z</time>
      </trkpt>
      <trkpt lat="40.0788750" lon="-3.2952030">
        <ele>670.8</ele>
        <time>2019-07-07T13:35:07Z</time>
      </trkpt>
      <trkpt lat="40.0789070" lon="-3.2952990">
        <ele>670.6</ele>
        <time>2019-07-07T13:35:08Z</time>
      </trkpt>
      <trkpt lat="40.0789700" lon="-3.2955000">
        <ele>669.8</ele>
        <time>2019-07-07T13:35:10Z</time>
      </trkpt>
      <trkpt lat="40.0790590" lon="-3.2958350">
        <ele>668.4</ele>
        <time>2019-07-07T13:35:13Z</time>
      </trkpt>
      <trkpt lat="40.0790870" lon="-3.2959580">
        <ele>667.8</ele>
        <time>2019-07-07T13:35:14Z</time>
      </trkpt>
      <trkpt lat="40.0791370" lon="-3.2962200">
        <ele>667.0</ele>
        <time>2019-07-07T13:35:16Z</time>
      </trkpt>
      <trkpt lat="40.0791600" lon="-3.2963580">
        <ele>666.0</ele>
        <time>2019-07-07T13:35:17Z</time>
      </trkpt>
      <trkpt lat="40.0792060" lon="-3.2966390">
        <ele>664.6</ele>
        <time>2019-07-07T13:35:19Z</time>
      </trkpt>
      <trkpt lat="40.0792310" lon="-3.2967820">
        <ele>664.0</ele>
        <time>2019-07-07T13:35:20Z</time>
      </trkpt>
      <trkpt lat="40.0792580" lon="-3.2969280">
        <ele>663.4</ele>
        <time>2019-07-07T13:35:21Z</time>
      </trkpt>
      <trkpt lat="40.0793330" lon="-3.2973740">
        <ele>662.0</ele>
        <time>2019-07-07T13:35:24Z</time>
      </trkpt>
      <trkpt lat="40.0793810" lon="-3.2976790">
        <ele>660.2</ele>
        <time>2019-07-07T13:35:26Z</time>
      </trkpt>
      <trkpt lat="40.0794190" lon="-3.2979930">
        <ele>659.2</ele>
        <time>2019-07-07T13:35:28Z</time>
      </trkpt>
      <trkpt lat="40.0794260" lon="-3.2981530">
        <ele>658.2</ele>
        <time>2019-07-07T13:35:29Z</time>
      </trkpt>
      <trkpt lat="40.0794020" lon="-3.2984750">
        <ele>656.8</ele>
        <time>2019-07-07T13:35:31Z</time>
      </trkpt>
      <trkpt lat="40.0793520" lon="-3.2987960">
        <ele>655.6</ele>
        <time>2019-07-07T13:35:33Z</time>
      </trkpt>
      <trkpt lat="40.0793000" lon="-3.2991230">
        <ele>654.2</ele>
        <time>2019-07-07T13:35:35Z</time>
      </trkpt>
      <trkpt lat="40.0792520" lon="-3.2994490">
        <ele>653.4</ele>
        <time>2019-07-07T13:35:37Z</time>
      </trkpt>
      <trkpt lat="40.0792270" lon="-3.2996110">
        <ele>653.0</ele>
        <time>2019-07-07T13:35:38Z</time>
      </trkpt>
      <trkpt lat="40.0792030" lon="-3.2997710">
        <ele>652.2</ele>
        <time>2019-07-07T13:35:39Z</time>
      </trkpt>
      <trkpt lat="40.0791790" lon="-3.2999280">
        <ele>651.4</ele>
        <time>2019-07-07T13:35:40Z</time>
      </trkpt>
      <trkpt lat="40.0791560" lon="-3.3000850">
        <ele>650.4</ele>
        <time>2019-07-07T13:35:41Z</time>
      </trkpt>
      <trkpt lat="40.0791320" lon="-3.3003960">
        <ele>649.0</ele>
        <time>2019-07-07T13:35:43Z</time>
      </trkpt>
      <trkpt lat="40.0791410" lon="-3.3005490">
        <ele>648.4</ele>
        <time>2019-07-07T13:35:44Z</time>
      </trkpt>
      <trkpt lat="40.0791690" lon="-3.3006950">
        <ele>647.8</ele>
        <time>2019-07-07T13:35:45Z</time>
      </trkpt>
      <trkpt lat="40.0792570" lon="-3.3009540">
        <ele>646.6</ele>
        <time>2019-07-07T13:35:47Z</time>
      </trkpt>
      <trkpt lat="40.0793060" lon="-3.3010730">
        <ele>646.4</ele>
        <time>2019-07-07T13:35:48Z</time>
      </trkpt>
      <trkpt lat="40.0795290" lon="-3.3016220">
        <ele>646.2</ele>
        <time>2019-07-07T13:35:53Z</time>
      </trkpt>
      <trkpt lat="40.0797260" lon="-3.3020730">
        <ele>646.2</ele>
        <time>2019-07-07T13:35:58Z</time>
      </trkpt>
      <trkpt lat="40.0798330" lon="-3.3021960">
        <ele>646.2</ele>
        <time>2019-07-07T13:36:00Z</time>
      </trkpt>
      <trkpt lat="40.0798920" lon="-3.3022400">
        <ele>646.4</ele>
        <time>2019-07-07T13:36:01Z</time>
      </trkpt>
      <trkpt lat="40.0800130" lon="-3.3023050">
        <ele>646.6</ele>
        <time>2019-07-07T13:36:03Z</time>
      </trkpt>
      <trkpt lat="40.0801850" lon="-3.3023750">
        <ele>647.0</ele>
        <time>2019-07-07T13:36:06Z</time>
      </trkpt>
      <trkpt lat="40.0804080" lon="-3.3024670">
        <ele>647.4</ele>
        <time>2019-07-07T13:36:10Z</time>
      </trkpt>
      <trkpt lat="40.0805170" lon="-3.3025060">
        <ele>647.8</ele>
        <time>2019-07-07T13:36:12Z</time>
      </trkpt>
      <trkpt lat="40.0805710" lon="-3.3025300">
        <ele>648.0</ele>
        <time>2019-07-07T13:36:13Z</time>
      </trkpt>
      <trkpt lat="40.0806760" lon="-3.3025720">
        <ele>648.4</ele>
        <time>2019-07-07T13:36:15Z</time>
      </trkpt>
      <trkpt lat="40.0808790" lon="-3.3026590">
        <ele>648.8</ele>
        <time>2019-07-07T13:36:19Z</time>
      </trkpt>
      <trkpt lat="40.0812970" lon="-3.3028340">
        <ele>649.8</ele>
        <time>2019-07-07T13:36:28Z</time>
      </trkpt>
      <trkpt lat="40.0813410" lon="-3.3028530">
        <ele>650.0</ele>
        <time>2019-07-07T13:36:29Z</time>
      </trkpt>
      <trkpt lat="40.0816410" lon="-3.3029910">
        <ele>650.8</ele>
        <time>2019-07-07T13:36:36Z</time>
      </trkpt>
      <trkpt lat="40.0817290" lon="-3.3030300">
        <ele>651.2</ele>
        <time>2019-07-07T13:36:38Z</time>
      </trkpt>
      <trkpt lat="40.0819970" lon="-3.3031310">
        <ele>651.4</ele>
        <time>2019-07-07T13:36:44Z</time>
      </trkpt>
      <trkpt lat="40.0824220" lon="-3.3032250">
        <ele>652.4</ele>
        <time>2019-07-07T13:36:53Z</time>
      </trkpt>
      <trkpt lat="40.0824700" lon="-3.3032360">
        <ele>652.4</ele>
        <time>2019-07-07T13:36:54Z</time>
      </trkpt>
      <trkpt lat="40.0828560" lon="-3.3033160">
        <ele>653.6</ele>
        <time>2019-07-07T13:37:02Z</time>
      </trkpt>
      <trkpt lat="40.0829540" lon="-3.3033380">
        <ele>653.6</ele>
        <time>2019-07-07T13:37:04Z</time>
      </trkpt>
      <trkpt lat="40.0832400" lon="-3.3034160">
        <ele>654.4</ele>
        <time>2019-07-07T13:37:10Z</time>
      </trkpt>
      <trkpt lat="40.0833320" lon="-3.3034590">
        <ele>654.6</ele>
        <time>2019-07-07T13:37:12Z</time>
      </trkpt>
      <trkpt lat="40.0837550" lon="-3.3036520">
        <ele>655.6</ele>
        <time>2019-07-07T13:37:21Z</time>
      </trkpt>
      <trkpt lat="40.0838000" lon="-3.3036740">
        <ele>655.6</ele>
        <time>2019-07-07T13:37:22Z</time>
      </trkpt>
      <trkpt lat="40.0840250" lon="-3.3037840">
        <ele>656.2</ele>
        <time>2019-07-07T13:37:27Z</time>
      </trkpt>
      <trkpt lat="40.0842150" lon="-3.3038750">
        <ele>656.6</ele>
        <time>2019-07-07T13:37:31Z</time>
      </trkpt>
      <trkpt lat="40.0845330" lon="-3.3041100">
        <ele>657.2</ele>
        <time>2019-07-07T13:37:38Z</time>
      </trkpt>
      <trkpt lat="40.0846940" lon="-3.3042810">
        <ele>657.6</ele>
        <time>2019-07-07T13:37:42Z</time>
      </trkpt>
      <trkpt lat="40.0848080" lon="-3.3044110">
        <ele>657.8</ele>
        <time>2019-07-07T13:37:45Z</time>
      </trkpt>
      <trkpt lat="40.0851360" lon="-3.3048360">
        <ele>658.6</ele>
        <time>2019-07-07T13:37:54Z</time>
      </trkpt>
      <trkpt lat="40.0853760" lon="-3.3051610">
        <ele>659.2</ele>
        <time>2019-07-07T13:38:01Z</time>
      </trkpt>
      <trkpt lat="40.0855060" lon="-3.3053300">
        <ele>659.8</ele>
        <time>2019-07-07T13:38:05Z</time>
      </trkpt>
      <trkpt lat="40.0856160" lon="-3.3054880">
        <ele>660.6</ele>
        <time>2019-07-07T13:38:09Z</time>
      </trkpt>
      <trkpt lat="40.0856460" lon="-3.3055260">
        <ele>660.8</ele>
        <time>2019-07-07T13:38:10Z</time>
      </trkpt>
      <trkpt lat="40.0858400" lon="-3.3057790">
        <ele>662.2</ele>
        <time>2019-07-07T13:38:17Z</time>
      </trkpt>
      <trkpt lat="40.0859990" lon="-3.3060010">
        <ele>663.2</ele>
        <time>2019-07-07T13:38:23Z</time>
      </trkpt>
      <trkpt lat="40.0860500" lon="-3.3060730">
        <ele>663.4</ele>
        <time>2019-07-07T13:38:25Z</time>
      </trkpt>
      <trkpt lat="40.0861750" lon="-3.3062420">
        <ele>664.2</ele>
        <time>2019-07-07T13:38:30Z</time>
      </trkpt>
      <trkpt lat="40.0862310" lon="-3.3063050">
        <ele>664.8</ele>
        <time>2019-07-07T13:38:32Z</time>
      </trkpt>
      <trkpt lat="40.0863450" lon="-3.3064350">
        <ele>665.2</ele>
        <time>2019-07-07T13:38:36Z</time>
      </trkpt>
      <trkpt lat="40.0864340" lon="-3.3065260">
        <ele>666.0</ele>
        <time>2019-07-07T13:38:39Z</time>
      </trkpt>
      <trkpt lat="40.0865260" lon="-3.3066000">
        <ele>666.4</ele>
        <time>2019-07-07T13:38:42Z</time>
      </trkpt>
      <trkpt lat="40.0866650" lon="-3.3066640">
        <ele>667.2</ele>
        <time>2019-07-07T13:38:46Z</time>
      </trkpt>
      <trkpt lat="40.0867350" lon="-3.3066900">
        <ele>667.6</ele>
        <time>2019-07-07T13:38:48Z</time>
      </trkpt>
      <trkpt lat="40.0869190" lon="-3.3067510">
        <ele>668.6</ele>
        <time>2019-07-07T13:38:53Z</time>
      </trkpt>
      <trkpt lat="40.0869560" lon="-3.3067620">
        <ele>668.8</ele>
        <time>2019-07-07T13:38:54Z</time>
      </trkpt>
      <trkpt lat="40.0871750" lon="-3.3068370">
        <ele>669.6</ele>
        <time>2019-07-07T13:39:00Z</time>
      </trkpt>
      <trkpt lat="40.0872830" lon="-3.3068620">
        <ele>670.4</ele>
        <time>2019-07-07T13:39:03Z</time>
      </trkpt>
      <trkpt lat="40.0873570" lon="-3.3068810">
        <ele>670.6</ele>
        <time>2019-07-07T13:39:05Z</time>
      </trkpt>
      <trkpt lat="40.0876140" lon="-3.3069700">
        <ele>671.8</ele>
        <time>2019-07-07T13:39:12Z</time>
      </trkpt>
      <trkpt lat="40.0878900" lon="-3.3070470">
        <ele>672.6</ele>
        <time>2019-07-07T13:39:19Z</time>
      </trkpt>
      <trkpt lat="40.0879300" lon="-3.3070610">
        <ele>672.8</ele>
        <time>2019-07-07T13:39:20Z</time>
      </trkpt>
      <trkpt lat="40.0882020" lon="-3.3071730">
        <ele>673.8</ele>
        <time>2019-07-07T13:39:27Z</time>
      </trkpt>
      <trkpt lat="40.0884710" lon="-3.3073130">
        <ele>674.6</ele>
        <time>2019-07-07T13:39:34Z</time>
      </trkpt>
      <trkpt lat="40.0886420" lon="-3.3074530">
        <ele>675.0</ele>
        <time>2019-07-07T13:39:39Z</time>
      </trkpt>
      <trkpt lat="40.0887360" lon="-3.3075500">
        <ele>675.2</ele>
        <time>2019-07-07T13:39:42Z</time>
      </trkpt>
      <trkpt lat="40.0888800" lon="-3.3077210">
        <ele>676.2</ele>
        <time>2019-07-07T13:39:47Z</time>
      </trkpt>
      <trkpt lat="40.0889600" lon="-3.3078400">
        <ele>676.2</ele>
        <time>2019-07-07T13:39:50Z</time>
      </trkpt>
      <trkpt lat="40.0891200" lon="-3.3080940">
        <ele>677.2</ele>
        <time>2019-07-07T13:39:56Z</time>
      </trkpt>
      <trkpt lat="40.0892240" lon="-3.3082700">
        <ele>677.8</ele>
        <time>2019-07-07T13:40:00Z</time>
      </trkpt>
      <trkpt lat="40.0892770" lon="-3.3083570">
        <ele>678.2</ele>
        <time>2019-07-07T13:40:02Z</time>
      </trkpt>
      <trkpt lat="40.0894270" lon="-3.3086130">
        <ele>679.4</ele>
        <time>2019-07-07T13:40:08Z</time>
      </trkpt>
      <trkpt lat="40.0896280" lon="-3.3089530">
        <ele>680.6</ele>
        <time>2019-07-07T13:40:16Z</time>
      </trkpt>
      <trkpt lat="40.0896760" lon="-3.3090450">
        <ele>680.8</ele>
        <time>2019-07-07T13:40:18Z</time>
      </trkpt>
      <trkpt lat="40.0897830" lon="-3.3093460">
        <ele>681.6</ele>
        <time>2019-07-07T13:40:24Z</time>
      </trkpt>
      <trkpt lat="40.0898020" lon="-3.3093950">
        <ele>681.6</ele>
        <time>2019-07-07T13:40:25Z</time>
      </trkpt>
      <trkpt lat="40.0899360" lon="-3.3097950">
        <ele>682.6</ele>
        <time>2019-07-07T13:40:33Z</time>
      </trkpt>
      <trkpt lat="40.0900340" lon="-3.3100770">
        <ele>683.6</ele>
        <time>2019-07-07T13:40:39Z</time>
      </trkpt>
      <trkpt lat="40.0901040" lon="-3.3103180">
        <ele>684.8</ele>
        <time>2019-07-07T13:40:44Z</time>
      </trkpt>
      <trkpt lat="40.0901760" lon="-3.3105410">
        <ele>685.8</ele>
        <time>2019-07-07T13:40:49Z</time>
      </trkpt>
      <trkpt lat="40.0902080" lon="-3.3106230">
        <ele>686.2</ele>
        <time>2019-07-07T13:40:51Z</time>
      </trkpt>
      <trkpt lat="40.0902610" lon="-3.3107960">
        <ele>687.0</ele>
        <time>2019-07-07T13:40:55Z</time>
      </trkpt>
      <trkpt lat="40.0902800" lon="-3.3108340">
        <ele>687.2</ele>
        <time>2019-07-07T13:40:56Z</time>
      </trkpt>
      <trkpt lat="40.0903540" lon="-3.3110460">
        <ele>688.0</ele>
        <time>2019-07-07T13:41:01Z</time>
      </trkpt>
      <trkpt lat="40.0903710" lon="-3.3110850">
        <ele>688.2</ele>
        <time>2019-07-07T13:41:02Z</time>
      </trkpt>
      <trkpt lat="40.0904700" lon="-3.3113650">
        <ele>689.2</ele>
        <time>2019-07-07T13:41:09Z</time>
      </trkpt>
      <trkpt lat="40.0904810" lon="-3.3114080">
        <ele>689.2</ele>
        <time>2019-07-07T13:41:10Z</time>
      </trkpt>
      <trkpt lat="40.0905510" lon="-3.3116150">
        <ele>690.2</ele>
        <time>2019-07-07T13:41:15Z</time>
      </trkpt>
      <trkpt lat="40.0905680" lon="-3.3116560">
        <ele>690.4</ele>
        <time>2019-07-07T13:41:16Z</time>
      </trkpt>
      <trkpt lat="40.0906760" lon="-3.3119450">
        <ele>691.4</ele>
        <time>2019-07-07T13:41:23Z</time>
      </trkpt>
      <trkpt lat="40.0907550" lon="-3.3121740">
        <ele>692.4</ele>
        <time>2019-07-07T13:41:29Z</time>
      </trkpt>
      <trkpt lat="40.0908140" lon="-3.3123860">
        <ele>693.6</ele>
        <time>2019-07-07T13:41:35Z</time>
      </trkpt>
      <trkpt lat="40.0909130" lon="-3.3126050">
        <ele>694.2</ele>
        <time>2019-07-07T13:41:41Z</time>
      </trkpt>
      <trkpt lat="40.0909640" lon="-3.3127680">
        <ele>694.6</ele>
        <time>2019-07-07T13:41:45Z</time>
      </trkpt>
      <trkpt lat="40.0910050" lon="-3.3129350">
        <ele>695.2</ele>
        <time>2019-07-07T13:41:49Z</time>
      </trkpt>
      <trkpt lat="40.0910350" lon="-3.3130140">
        <ele>695.8</ele>
        <time>2019-07-07T13:41:51Z</time>
      </trkpt>
      <trkpt lat="40.0910940" lon="-3.3131820">
        <ele>696.4</ele>
        <time>2019-07-07T13:41:55Z</time>
      </trkpt>
      <trkpt lat="40.0911240" lon="-3.3133610">
        <ele>697.0</ele>
        <time>2019-07-07T13:41:59Z</time>
      </trkpt>
      <trkpt lat="40.0911350" lon="-3.3135440">
        <ele>697.4</ele>
        <time>2019-07-07T13:42:03Z</time>
      </trkpt>
      <trkpt lat="40.0911440" lon="-3.3137260">
        <ele>698.0</ele>
        <time>2019-07-07T13:42:07Z</time>
      </trkpt>
      <trkpt lat="40.0911510" lon="-3.3139080">
        <ele>698.2</ele>
        <time>2019-07-07T13:42:11Z</time>
      </trkpt>
      <trkpt lat="40.0911750" lon="-3.3142170">
        <ele>699.0</ele>
        <time>2019-07-07T13:42:18Z</time>
      </trkpt>
      <trkpt lat="40.0911990" lon="-3.3145440">
        <ele>699.6</ele>
        <time>2019-07-07T13:42:25Z</time>
      </trkpt>
      <trkpt lat="40.0912120" lon="-3.3147370">
        <ele>700.0</ele>
        <time>2019-07-07T13:42:29Z</time>
      </trkpt>
      <trkpt lat="40.0912230" lon="-3.3149240">
        <ele>700.4</ele>
        <time>2019-07-07T13:42:33Z</time>
      </trkpt>
      <trkpt lat="40.0912450" lon="-3.3151570">
        <ele>701.0</ele>
        <time>2019-07-07T13:42:38Z</time>
      </trkpt>
      <trkpt lat="40.0912510" lon="-3.3153430">
        <ele>701.4</ele>
        <time>2019-07-07T13:42:42Z</time>
      </trkpt>
      <trkpt lat="40.0912780" lon="-3.3156590">
        <ele>702.0</ele>
        <time>2019-07-07T13:42:49Z</time>
      </trkpt>
      <trkpt lat="40.0912860" lon="-3.3156980">
        <ele>702.4</ele>
        <time>2019-07-07T13:42:53Z</time>
      </trkpt>
      <trkpt lat="40.0912830" lon="-3.3157320">
        <ele>702.2</ele>
        <time>2019-07-07T13:43:14Z</time>
      </trkpt>
      <trkpt lat="40.0912830" lon="-3.3157510">
        <ele>702.2</ele>
        <time>2019-07-07T13:43:15Z</time>
      </trkpt>
      <trkpt lat="40.0912880" lon="-3.3158050">
        <ele>702.2</ele>
        <time>2019-07-07T13:43:17Z</time>
      </trkpt>
      <trkpt lat="40.0912940" lon="-3.3158730">
        <ele>702.4</ele>
        <time>2019-07-07T13:43:19Z</time>
      </trkpt>
      <trkpt lat="40.0913010" lon="-3.3159880">
        <ele>702.6</ele>
        <time>2019-07-07T13:43:22Z</time>
      </trkpt>
      <trkpt lat="40.0913090" lon="-3.3161140">
        <ele>703.0</ele>
        <time>2019-07-07T13:43:25Z</time>
      </trkpt>
      <trkpt lat="40.0913140" lon="-3.3161590">
        <ele>703.2</ele>
        <time>2019-07-07T13:43:26Z</time>
      </trkpt>
      <trkpt lat="40.0913370" lon="-3.3164630">
        <ele>703.2</ele>
        <time>2019-07-07T13:43:32Z</time>
      </trkpt>
      <trkpt lat="40.0913450" lon="-3.3166920">
        <ele>703.2</ele>
        <time>2019-07-07T13:43:36Z</time>
      </trkpt>
      <trkpt lat="40.0913660" lon="-3.3168760">
        <ele>703.0</ele>
        <time>2019-07-07T13:43:39Z</time>
      </trkpt>
      <trkpt lat="40.0913850" lon="-3.3171990">
        <ele>703.0</ele>
        <time>2019-07-07T13:43:44Z</time>
      </trkpt>
      <trkpt lat="40.0914010" lon="-3.3173290">
        <ele>703.0</ele>
        <time>2019-07-07T13:43:46Z</time>
      </trkpt>
      <trkpt lat="40.0914240" lon="-3.3178230">
        <ele>702.8</ele>
        <time>2019-07-07T13:43:53Z</time>
      </trkpt>
      <trkpt lat="40.0914540" lon="-3.3182560">
        <ele>703.0</ele>
        <time>2019-07-07T13:43:59Z</time>
      </trkpt>
      <trkpt lat="40.0914680" lon="-3.3184760">
        <ele>702.8</ele>
        <time>2019-07-07T13:44:02Z</time>
      </trkpt>
      <trkpt lat="40.0915110" lon="-3.3191160">
        <ele>703.2</ele>
        <time>2019-07-07T13:44:11Z</time>
      </trkpt>
      <trkpt lat="40.0915580" lon="-3.3197780">
        <ele>702.4</ele>
        <time>2019-07-07T13:44:20Z</time>
      </trkpt>
      <trkpt lat="40.0915920" lon="-3.3203140">
        <ele>702.2</ele>
        <time>2019-07-07T13:44:27Z</time>
      </trkpt>
      <trkpt lat="40.0916290" lon="-3.3208160">
        <ele>702.8</ele>
        <time>2019-07-07T13:44:35Z</time>
      </trkpt>
      <trkpt lat="40.0916610" lon="-3.3212690">
        <ele>703.6</ele>
        <time>2019-07-07T13:44:43Z</time>
      </trkpt>
      <trkpt lat="40.0916760" lon="-3.3214830">
        <ele>703.6</ele>
        <time>2019-07-07T13:44:47Z</time>
      </trkpt>
      <trkpt lat="40.0916840" lon="-3.3216440">
        <ele>703.8</ele>
        <time>2019-07-07T13:44:50Z</time>
      </trkpt>
      <trkpt lat="40.0916880" lon="-3.3216980">
        <ele>703.8</ele>
        <time>2019-07-07T13:44:51Z</time>
      </trkpt>
      <trkpt lat="40.0916990" lon="-3.3218070">
        <ele>704.0</ele>
        <time>2019-07-07T13:44:53Z</time>
      </trkpt>
      <trkpt lat="40.0917080" lon="-3.3219820">
        <ele>704.2</ele>
        <time>2019-07-07T13:44:56Z</time>
      </trkpt>
      <trkpt lat="40.0917120" lon="-3.3220400">
        <ele>704.2</ele>
        <time>2019-07-07T13:44:57Z</time>
      </trkpt>
      <trkpt lat="40.0917210" lon="-3.3221540">
        <ele>704.6</ele>
        <time>2019-07-07T13:44:59Z</time>
      </trkpt>
      <trkpt lat="40.0917410" lon="-3.3224940">
        <ele>705.2</ele>
        <time>2019-07-07T13:45:05Z</time>
      </trkpt>
      <trkpt lat="40.0917440" lon="-3.3225510">
        <ele>705.2</ele>
        <time>2019-07-07T13:45:06Z</time>
      </trkpt>
      <trkpt lat="40.0917490" lon="-3.3226070">
        <ele>705.4</ele>
        <time>2019-07-07T13:45:07Z</time>
      </trkpt>
      <trkpt lat="40.0917710" lon="-3.3228840">
        <ele>706.2</ele>
        <time>2019-07-07T13:45:12Z</time>
      </trkpt>
      <trkpt lat="40.0917940" lon="-3.3232080">
        <ele>707.0</ele>
        <time>2019-07-07T13:45:18Z</time>
      </trkpt>
      <trkpt lat="40.0918080" lon="-3.3233630">
        <ele>707.4</ele>
        <time>2019-07-07T13:45:21Z</time>
      </trkpt>
      <trkpt lat="40.0918410" lon="-3.3238400">
        <ele>708.4</ele>
        <time>2019-07-07T13:45:30Z</time>
      </trkpt>
      <trkpt lat="40.0918440" lon="-3.3242770">
        <ele>708.4</ele>
        <time>2019-07-07T13:45:37Z</time>
      </trkpt>
      <trkpt lat="40.0918230" lon="-3.3244140">
        <ele>708.2</ele>
        <time>2019-07-07T13:45:39Z</time>
      </trkpt>
      <trkpt lat="40.0917590" lon="-3.3246320">
        <ele>707.4</ele>
        <time>2019-07-07T13:45:42Z</time>
      </trkpt>
      <trkpt lat="40.0916580" lon="-3.3249500">
        <ele>706.4</ele>
        <time>2019-07-07T13:45:46Z</time>
      </trkpt>
      <trkpt lat="40.0915770" lon="-3.3252100">
        <ele>705.6</ele>
        <time>2019-07-07T13:45:49Z</time>
      </trkpt>
      <trkpt lat="40.0915450" lon="-3.3252990">
        <ele>705.4</ele>
        <time>2019-07-07T13:45:50Z</time>
      </trkpt>
      <trkpt lat="40.0914570" lon="-3.3255760">
        <ele>704.2</ele>
        <time>2019-07-07T13:45:53Z</time>
      </trkpt>
      <trkpt lat="40.0913390" lon="-3.3259600">
        <ele>703.4</ele>
        <time>2019-07-07T13:45:57Z</time>
      </trkpt>
      <trkpt lat="40.0912800" lon="-3.3261500">
        <ele>703.0</ele>
        <time>2019-07-07T13:45:59Z</time>
      </trkpt>
      <trkpt lat="40.0911470" lon="-3.3265860">
        <ele>702.6</ele>
        <time>2019-07-07T13:46:04Z</time>
      </trkpt>
      <trkpt lat="40.0909840" lon="-3.3270960">
        <ele>703.8</ele>
        <time>2019-07-07T13:46:11Z</time>
      </trkpt>
      <trkpt lat="40.0909450" lon="-3.3272240">
        <ele>704.0</ele>
        <time>2019-07-07T13:46:13Z</time>
      </trkpt>
      <trkpt lat="40.0908510" lon="-3.3275160">
        <ele>704.4</ele>
        <time>2019-07-07T13:46:18Z</time>
      </trkpt>
      <trkpt lat="40.0907680" lon="-3.3277960">
        <ele>704.6</ele>
        <time>2019-07-07T13:46:23Z</time>
      </trkpt>
      <trkpt lat="40.0906900" lon="-3.3280060">
        <ele>705.0</ele>
        <time>2019-07-07T13:46:27Z</time>
      </trkpt>
      <trkpt lat="40.0906660" lon="-3.3280550">
        <ele>705.2</ele>
        <time>2019-07-07T13:46:28Z</time>
      </trkpt>
      <trkpt lat="40.0905800" lon="-3.3281860">
        <ele>705.6</ele>
        <time>2019-07-07T13:46:31Z</time>
      </trkpt>
      <trkpt lat="40.0905060" lon="-3.3282520">
        <ele>705.8</ele>
        <time>2019-07-07T13:46:33Z</time>
      </trkpt>
      <trkpt lat="40.0904190" lon="-3.3282900">
        <ele>706.2</ele>
        <time>2019-07-07T13:46:35Z</time>
      </trkpt>
      <trkpt lat="40.0903270" lon="-3.3283010">
        <ele>706.6</ele>
        <time>2019-07-07T13:46:37Z</time>
      </trkpt>
      <trkpt lat="40.0902800" lon="-3.3283040">
        <ele>706.6</ele>
        <time>2019-07-07T13:46:38Z</time>
      </trkpt>
      <trkpt lat="40.0900940" lon="-3.3283000">
        <ele>707.2</ele>
        <time>2019-07-07T13:46:42Z</time>
      </trkpt>
      <trkpt lat="40.0899230" lon="-3.3283010">
        <ele>707.6</ele>
        <time>2019-07-07T13:46:46Z</time>
      </trkpt>
      <trkpt lat="40.0898050" lon="-3.3282910">
        <ele>708.4</ele>
        <time>2019-07-07T13:46:49Z</time>
      </trkpt>
      <trkpt lat="40.0896460" lon="-3.3282800">
        <ele>709.2</ele>
        <time>2019-07-07T13:46:53Z</time>
      </trkpt>
      <trkpt lat="40.0895300" lon="-3.3282670">
        <ele>709.8</ele>
        <time>2019-07-07T13:46:56Z</time>
      </trkpt>
      <trkpt lat="40.0893720" lon="-3.3282480">
        <ele>710.8</ele>
        <time>2019-07-07T13:47:00Z</time>
      </trkpt>
      <trkpt lat="40.0893340" lon="-3.3282450">
        <ele>710.8</ele>
        <time>2019-07-07T13:47:01Z</time>
      </trkpt>
      <trkpt lat="40.0891820" lon="-3.3282320">
        <ele>711.8</ele>
        <time>2019-07-07T13:47:05Z</time>
      </trkpt>
      <trkpt lat="40.0890740" lon="-3.3282220">
        <ele>712.6</ele>
        <time>2019-07-07T13:47:08Z</time>
      </trkpt>
      <trkpt lat="40.0890380" lon="-3.3282220">
        <ele>712.8</ele>
        <time>2019-07-07T13:47:09Z</time>
      </trkpt>
      <trkpt lat="40.0888330" lon="-3.3281980">
        <ele>713.8</ele>
        <time>2019-07-07T13:47:15Z</time>
      </trkpt>
      <trkpt lat="40.0888000" lon="-3.3281920">
        <ele>714.0</ele>
        <time>2019-07-07T13:47:16Z</time>
      </trkpt>
      <trkpt lat="40.0886230" lon="-3.3281840">
        <ele>715.0</ele>
        <time>2019-07-07T13:47:21Z</time>
      </trkpt>
      <trkpt lat="40.0885870" lon="-3.3281860">
        <ele>715.0</ele>
        <time>2019-07-07T13:47:22Z</time>
      </trkpt>
      <trkpt lat="40.0883800" lon="-3.3281840">
        <ele>716.0</ele>
        <time>2019-07-07T13:47:28Z</time>
      </trkpt>
      <trkpt lat="40.0883120" lon="-3.3281750">
        <ele>716.4</ele>
        <time>2019-07-07T13:47:30Z</time>
      </trkpt>
      <trkpt lat="40.0882040" lon="-3.3281630">
        <ele>717.0</ele>
        <time>2019-07-07T13:47:33Z</time>
      </trkpt>
      <trkpt lat="40.0880950" lon="-3.3281680">
        <ele>717.6</ele>
        <time>2019-07-07T13:47:36Z</time>
      </trkpt>
      <trkpt lat="40.0879220" lon="-3.3282140">
        <ele>718.2</ele>
        <time>2019-07-07T13:47:41Z</time>
      </trkpt>
      <trkpt lat="40.0878650" lon="-3.3282550">
        <ele>718.8</ele>
        <time>2019-07-07T13:47:43Z</time>
      </trkpt>
      <trkpt lat="40.0878120" lon="-3.3283120">
        <ele>719.2</ele>
        <time>2019-07-07T13:47:45Z</time>
      </trkpt>
      <trkpt lat="40.0877330" lon="-3.3284600">
        <ele>720.2</ele>
        <time>2019-07-07T13:47:49Z</time>
      </trkpt>
      <trkpt lat="40.0877190" lon="-3.3285030">
        <ele>720.4</ele>
        <time>2019-07-07T13:47:50Z</time>
      </trkpt>
      <trkpt lat="40.0876510" lon="-3.3287720">
        <ele>721.4</ele>
        <time>2019-07-07T13:47:56Z</time>
      </trkpt>
      <trkpt lat="40.0876430" lon="-3.3288170">
        <ele>721.6</ele>
        <time>2019-07-07T13:47:57Z</time>
      </trkpt>
      <trkpt lat="40.0876270" lon="-3.3290000">
        <ele>722.6</ele>
        <time>2019-07-07T13:48:01Z</time>
      </trkpt>
      <trkpt lat="40.0876320" lon="-3.3291550">
        <ele>723.0</ele>
        <time>2019-07-07T13:48:04Z</time>
      </trkpt>
      <trkpt lat="40.0876510" lon="-3.3293530">
        <ele>723.8</ele>
        <time>2019-07-07T13:48:08Z</time>
      </trkpt>
      <trkpt lat="40.0876850" lon="-3.3295420">
        <ele>724.6</ele>
        <time>2019-07-07T13:48:12Z</time>
      </trkpt>
      <trkpt lat="40.0876990" lon="-3.3296390">
        <ele>725.0</ele>
        <time>2019-07-07T13:48:14Z</time>
      </trkpt>
      <trkpt lat="40.0877450" lon="-3.3299240">
        <ele>726.2</ele>
        <time>2019-07-07T13:48:20Z</time>
      </trkpt>
      <trkpt lat="40.0877980" lon="-3.3301960">
        <ele>727.2</ele>
        <time>2019-07-07T13:48:26Z</time>
      </trkpt>
      <trkpt lat="40.0878070" lon="-3.3302380">
        <ele>727.4</ele>
        <time>2019-07-07T13:48:27Z</time>
      </trkpt>
      <trkpt lat="40.0878390" lon="-3.3304560">
        <ele>728.4</ele>
        <time>2019-07-07T13:48:32Z</time>
      </trkpt>
      <trkpt lat="40.0878460" lon="-3.3305920">
        <ele>729.2</ele>
        <time>2019-07-07T13:48:35Z</time>
      </trkpt>
      <trkpt lat="40.0878580" lon="-3.3307320">
        <ele>729.6</ele>
        <time>2019-07-07T13:48:38Z</time>
      </trkpt>
      <trkpt lat="40.0878720" lon="-3.3309220">
        <ele>730.6</ele>
        <time>2019-07-07T13:48:42Z</time>
      </trkpt>
      <trkpt lat="40.0878850" lon="-3.3311600">
        <ele>731.8</ele>
        <time>2019-07-07T13:48:47Z</time>
      </trkpt>
      <trkpt lat="40.0878930" lon="-3.3312570">
        <ele>732.2</ele>
        <time>2019-07-07T13:48:49Z</time>
      </trkpt>
      <trkpt lat="40.0878990" lon="-3.3313520">
        <ele>732.8</ele>
        <time>2019-07-07T13:48:51Z</time>
      </trkpt>
      <trkpt lat="40.0879280" lon="-3.3315500">
        <ele>733.8</ele>
        <time>2019-07-07T13:48:55Z</time>
      </trkpt>
      <trkpt lat="40.0879460" lon="-3.3316500">
        <ele>734.4</ele>
        <time>2019-07-07T13:48:57Z</time>
      </trkpt>
      <trkpt lat="40.0879700" lon="-3.3317400">
        <ele>735.0</ele>
        <time>2019-07-07T13:48:59Z</time>
      </trkpt>
      <trkpt lat="40.0880330" lon="-3.3319660">
        <ele>735.8</ele>
        <time>2019-07-07T13:49:04Z</time>
      </trkpt>
      <trkpt lat="40.0880690" lon="-3.3321060">
        <ele>736.0</ele>
        <time>2019-07-07T13:49:07Z</time>
      </trkpt>
      <trkpt lat="40.0881250" lon="-3.3322880">
        <ele>736.6</ele>
        <time>2019-07-07T13:49:11Z</time>
      </trkpt>
      <trkpt lat="40.0881560" lon="-3.3324160">
        <ele>737.2</ele>
        <time>2019-07-07T13:49:14Z</time>
      </trkpt>
      <trkpt lat="40.0881850" lon="-3.3324970">
        <ele>737.6</ele>
        <time>2019-07-07T13:49:16Z</time>
      </trkpt>
      <trkpt lat="40.0882340" lon="-3.3326320">
        <ele>738.2</ele>
        <time>2019-07-07T13:49:19Z</time>
      </trkpt>
      <trkpt lat="40.0882910" lon="-3.3328130">
        <ele>738.6</ele>
        <time>2019-07-07T13:49:23Z</time>
      </trkpt>
      <trkpt lat="40.0884400" lon="-3.3330630">
        <ele>738.8</ele>
        <time>2019-07-07T13:49:29Z</time>
      </trkpt>
      <trkpt lat="40.0885560" lon="-3.3332120">
        <ele>739.2</ele>
        <time>2019-07-07T13:49:33Z</time>
      </trkpt>
      <trkpt lat="40.0886560" lon="-3.3333110">
        <ele>739.4</ele>
        <time>2019-07-07T13:49:36Z</time>
      </trkpt>
      <trkpt lat="40.0886930" lon="-3.3333360">
        <ele>739.4</ele>
        <time>2019-07-07T13:49:37Z</time>
      </trkpt>
      <trkpt lat="40.0888240" lon="-3.3333590">
        <ele>739.4</ele>
        <time>2019-07-07T13:49:40Z</time>
      </trkpt>
      <trkpt lat="40.0889600" lon="-3.3333160">
        <ele>739.6</ele>
        <time>2019-07-07T13:49:43Z</time>
      </trkpt>
      <trkpt lat="40.0890430" lon="-3.3332770">
        <ele>739.8</ele>
        <time>2019-07-07T13:49:45Z</time>
      </trkpt>
      <trkpt lat="40.0891270" lon="-3.3332390">
        <ele>739.8</ele>
        <time>2019-07-07T13:49:47Z</time>
      </trkpt>
      <trkpt lat="40.0893480" lon="-3.3331650">
        <ele>740.2</ele>
        <time>2019-07-07T13:49:52Z</time>
      </trkpt>
      <trkpt lat="40.0894300" lon="-3.3331480">
        <ele>740.4</ele>
        <time>2019-07-07T13:49:54Z</time>
      </trkpt>
      <trkpt lat="40.0896880" lon="-3.3331600">
        <ele>741.6</ele>
        <time>2019-07-07T13:50:01Z</time>
      </trkpt>
      <trkpt lat="40.0898920" lon="-3.3332420">
        <ele>742.6</ele>
        <time>2019-07-07T13:50:07Z</time>
      </trkpt>
      <trkpt lat="40.0899570" lon="-3.3332750">
        <ele>743.0</ele>
        <time>2019-07-07T13:50:09Z</time>
      </trkpt>
      <trkpt lat="40.0900910" lon="-3.3333520">
        <ele>743.4</ele>
        <time>2019-07-07T13:50:13Z</time>
      </trkpt>
      <trkpt lat="40.0901550" lon="-3.3333930">
        <ele>743.8</ele>
        <time>2019-07-07T13:50:15Z</time>
      </trkpt>
      <trkpt lat="40.0902510" lon="-3.3334490">
        <ele>744.6</ele>
        <time>2019-07-07T13:50:18Z</time>
      </trkpt>
      <trkpt lat="40.0903800" lon="-3.3335360">
        <ele>745.4</ele>
        <time>2019-07-07T13:50:22Z</time>
      </trkpt>
      <trkpt lat="40.0904150" lon="-3.3335590">
        <ele>745.6</ele>
        <time>2019-07-07T13:50:23Z</time>
      </trkpt>
      <trkpt lat="40.0905550" lon="-3.3336300">
        <ele>746.8</ele>
        <time>2019-07-07T13:50:27Z</time>
      </trkpt>
      <trkpt lat="40.0905920" lon="-3.3336530">
        <ele>747.0</ele>
        <time>2019-07-07T13:50:28Z</time>
      </trkpt>
      <trkpt lat="40.0906990" lon="-3.3337370">
        <ele>747.8</ele>
        <time>2019-07-07T13:50:31Z</time>
      </trkpt>
      <trkpt lat="40.0908130" lon="-3.3338780">
        <ele>748.4</ele>
        <time>2019-07-07T13:50:35Z</time>
      </trkpt>
      <trkpt lat="40.0908550" lon="-3.3339610">
        <ele>749.0</ele>
        <time>2019-07-07T13:50:37Z</time>
      </trkpt>
      <trkpt lat="40.0909200" lon="-3.3340850">
        <ele>750.0</ele>
        <time>2019-07-07T13:50:40Z</time>
      </trkpt>
      <trkpt lat="40.0909560" lon="-3.3341670">
        <ele>750.4</ele>
        <time>2019-07-07T13:50:42Z</time>
      </trkpt>
      <trkpt lat="40.0910060" lon="-3.3343410">
        <ele>751.2</ele>
        <time>2019-07-07T13:50:46Z</time>
      </trkpt>
      <trkpt lat="40.0910250" lon="-3.3344240">
        <ele>751.4</ele>
        <time>2019-07-07T13:50:48Z</time>
      </trkpt>
      <trkpt lat="40.0910580" lon="-3.3345500">
        <ele>752.4</ele>
        <time>2019-07-07T13:50:51Z</time>
      </trkpt>
      <trkpt lat="40.0910790" lon="-3.3346840">
        <ele>753.0</ele>
        <time>2019-07-07T13:50:54Z</time>
      </trkpt>
      <trkpt lat="40.0910860" lon="-3.3347300">
        <ele>753.2</ele>
        <time>2019-07-07T13:50:55Z</time>
      </trkpt>
      <trkpt lat="40.0911180" lon="-3.3349590">
        <ele>754.2</ele>
        <time>2019-07-07T13:51:00Z</time>
      </trkpt>
      <trkpt lat="40.0911330" lon="-3.3350480">
        <ele>754.8</ele>
        <time>2019-07-07T13:51:02Z</time>
      </trkpt>
      <trkpt lat="40.0911570" lon="-3.3351390">
        <ele>755.4</ele>
        <time>2019-07-07T13:51:04Z</time>
      </trkpt>
      <trkpt lat="40.0912330" lon="-3.3353130">
        <ele>756.6</ele>
        <time>2019-07-07T13:51:08Z</time>
      </trkpt>
      <trkpt lat="40.0913790" lon="-3.3354500">
        <ele>757.6</ele>
        <time>2019-07-07T13:51:13Z</time>
      </trkpt>
      <trkpt lat="40.0915380" lon="-3.3355950">
        <ele>758.8</ele>
        <time>2019-07-07T13:51:18Z</time>
      </trkpt>
      <trkpt lat="40.0915980" lon="-3.3356620">
        <ele>759.4</ele>
        <time>2019-07-07T13:51:20Z</time>
      </trkpt>
      <trkpt lat="40.0916480" lon="-3.3357380">
        <ele>759.8</ele>
        <time>2019-07-07T13:51:22Z</time>
      </trkpt>
      <trkpt lat="40.0917310" lon="-3.3358970">
        <ele>760.2</ele>
        <time>2019-07-07T13:51:26Z</time>
      </trkpt>
      <trkpt lat="40.0917800" lon="-3.3360240">
        <ele>761.0</ele>
        <time>2019-07-07T13:51:29Z</time>
      </trkpt>
      <trkpt lat="40.0918410" lon="-3.3361980">
        <ele>761.8</ele>
        <time>2019-07-07T13:51:33Z</time>
      </trkpt>
      <trkpt lat="40.0918590" lon="-3.3362400">
        <ele>762.2</ele>
        <time>2019-07-07T13:51:34Z</time>
      </trkpt>
      <trkpt lat="40.0919470" lon="-3.3364570">
        <ele>763.2</ele>
        <time>2019-07-07T13:51:39Z</time>
      </trkpt>
      <trkpt lat="40.0919670" lon="-3.3364960">
        <ele>763.4</ele>
        <time>2019-07-07T13:51:40Z</time>
      </trkpt>
      <trkpt lat="40.0920440" lon="-3.3366530">
        <ele>764.2</ele>
        <time>2019-07-07T13:51:44Z</time>
      </trkpt>
      <trkpt lat="40.0920880" lon="-3.3367820">
        <ele>765.0</ele>
        <time>2019-07-07T13:51:47Z</time>
      </trkpt>
      <trkpt lat="40.0921350" lon="-3.3369150">
        <ele>765.4</ele>
        <time>2019-07-07T13:51:50Z</time>
      </trkpt>
      <trkpt lat="40.0921900" lon="-3.3370960">
        <ele>766.6</ele>
        <time>2019-07-07T13:51:54Z</time>
      </trkpt>
      <trkpt lat="40.0922740" lon="-3.3374260">
        <ele>767.8</ele>
        <time>2019-07-07T13:52:01Z</time>
      </trkpt>
      <trkpt lat="40.0923340" lon="-3.3377050">
        <ele>769.0</ele>
        <time>2019-07-07T13:52:07Z</time>
      </trkpt>
      <trkpt lat="40.0923530" lon="-3.3378000">
        <ele>769.6</ele>
        <time>2019-07-07T13:52:09Z</time>
      </trkpt>
      <trkpt lat="40.0923700" lon="-3.3378970">
        <ele>770.0</ele>
        <time>2019-07-07T13:52:11Z</time>
      </trkpt>
      <trkpt lat="40.0924110" lon="-3.3381320">
        <ele>771.4</ele>
        <time>2019-07-07T13:52:16Z</time>
      </trkpt>
      <trkpt lat="40.0924410" lon="-3.3382640">
        <ele>772.6</ele>
        <time>2019-07-07T13:52:19Z</time>
      </trkpt>
      <trkpt lat="40.0924700" lon="-3.3384780">
        <ele>773.6</ele>
        <time>2019-07-07T13:52:24Z</time>
      </trkpt>
      <trkpt lat="40.0924670" lon="-3.3386470">
        <ele>774.8</ele>
        <time>2019-07-07T13:52:28Z</time>
      </trkpt>
      <trkpt lat="40.0924650" lon="-3.3387710">
        <ele>775.6</ele>
        <time>2019-07-07T13:52:31Z</time>
      </trkpt>
      <trkpt lat="40.0924680" lon="-3.3388110">
        <ele>776.0</ele>
        <time>2019-07-07T13:52:32Z</time>
      </trkpt>
      <trkpt lat="40.0924600" lon="-3.3389820">
        <ele>777.0</ele>
        <time>2019-07-07T13:52:36Z</time>
      </trkpt>
      <trkpt lat="40.0924600" lon="-3.3390240">
        <ele>777.2</ele>
        <time>2019-07-07T13:52:37Z</time>
      </trkpt>
      <trkpt lat="40.0924780" lon="-3.3391880">
        <ele>778.0</ele>
        <time>2019-07-07T13:52:41Z</time>
      </trkpt>
      <trkpt lat="40.0924830" lon="-3.3392270">
        <ele>778.4</ele>
        <time>2019-07-07T13:52:42Z</time>
      </trkpt>
      <trkpt lat="40.0925180" lon="-3.3393870">
        <ele>779.2</ele>
        <time>2019-07-07T13:52:46Z</time>
      </trkpt>
      <trkpt lat="40.0925480" lon="-3.3394670">
        <ele>779.6</ele>
        <time>2019-07-07T13:52:48Z</time>
      </trkpt>
      <trkpt lat="40.0926010" lon="-3.3395850">
        <ele>780.2</ele>
        <time>2019-07-07T13:52:51Z</time>
      </trkpt>
      <trkpt lat="40.0926740" lon="-3.3397360">
        <ele>781.4</ele>
        <time>2019-07-07T13:52:55Z</time>
      </trkpt>
      <trkpt lat="40.0926960" lon="-3.3397710">
        <ele>781.4</ele>
        <time>2019-07-07T13:52:56Z</time>
      </trkpt>
      <trkpt lat="40.0927910" lon="-3.3399610">
        <ele>782.4</ele>
        <time>2019-07-07T13:53:01Z</time>
      </trkpt>
      <trkpt lat="40.0928740" lon="-3.3401540">
        <ele>783.8</ele>
        <time>2019-07-07T13:53:06Z</time>
      </trkpt>
      <trkpt lat="40.0928900" lon="-3.3402360">
        <ele>784.0</ele>
        <time>2019-07-07T13:53:08Z</time>
      </trkpt>
      <trkpt lat="40.0928900" lon="-3.3403690">
        <ele>784.8</ele>
        <time>2019-07-07T13:53:11Z</time>
      </trkpt>
      <trkpt lat="40.0928810" lon="-3.3404550">
        <ele>785.4</ele>
        <time>2019-07-07T13:53:13Z</time>
      </trkpt>
      <trkpt lat="40.0928730" lon="-3.3405450">
        <ele>785.8</ele>
        <time>2019-07-07T13:53:15Z</time>
      </trkpt>
      <trkpt lat="40.0928220" lon="-3.3407720">
        <ele>786.8</ele>
        <time>2019-07-07T13:53:20Z</time>
      </trkpt>
      <trkpt lat="40.0928190" lon="-3.3408170">
        <ele>787.0</ele>
        <time>2019-07-07T13:53:21Z</time>
      </trkpt>
      <trkpt lat="40.0928500" lon="-3.3409890">
        <ele>787.8</ele>
        <time>2019-07-07T13:53:25Z</time>
      </trkpt>
      <trkpt lat="40.0928690" lon="-3.3410290">
        <ele>788.0</ele>
        <time>2019-07-07T13:53:26Z</time>
      </trkpt>
      <trkpt lat="40.0929760" lon="-3.3411450">
        <ele>788.8</ele>
        <time>2019-07-07T13:53:30Z</time>
      </trkpt>
      <trkpt lat="40.0930060" lon="-3.3411680">
        <ele>789.0</ele>
        <time>2019-07-07T13:53:31Z</time>
      </trkpt>
      <trkpt lat="40.0931250" lon="-3.3412490">
        <ele>790.2</ele>
        <time>2019-07-07T13:53:35Z</time>
      </trkpt>
      <trkpt lat="40.0931550" lon="-3.3412680">
        <ele>790.4</ele>
        <time>2019-07-07T13:53:36Z</time>
      </trkpt>
      <trkpt lat="40.0932430" lon="-3.3413290">
        <ele>791.2</ele>
        <time>2019-07-07T13:53:39Z</time>
      </trkpt>
      <trkpt lat="40.0933670" lon="-3.3413960">
        <ele>792.2</ele>
        <time>2019-07-07T13:53:43Z</time>
      </trkpt>
      <trkpt lat="40.0933970" lon="-3.3414140">
        <ele>792.4</ele>
        <time>2019-07-07T13:53:44Z</time>
      </trkpt>
      <trkpt lat="40.0935520" lon="-3.3415120">
        <ele>793.4</ele>
        <time>2019-07-07T13:53:49Z</time>
      </trkpt>
      <trkpt lat="40.0935830" lon="-3.3415320">
        <ele>793.6</ele>
        <time>2019-07-07T13:53:50Z</time>
      </trkpt>
      <trkpt lat="40.0937220" lon="-3.3416330">
        <ele>794.6</ele>
        <time>2019-07-07T13:53:55Z</time>
      </trkpt>
      <trkpt lat="40.0937490" lon="-3.3416510">
        <ele>794.6</ele>
        <time>2019-07-07T13:53:56Z</time>
      </trkpt>
      <trkpt lat="40.0939030" lon="-3.3417900">
        <ele>795.8</ele>
        <time>2019-07-07T13:54:02Z</time>
      </trkpt>
      <trkpt lat="40.0939300" lon="-3.3418160">
        <ele>795.8</ele>
        <time>2019-07-07T13:54:03Z</time>
      </trkpt>
      <trkpt lat="40.0941170" lon="-3.3420190">
        <ele>796.8</ele>
        <time>2019-07-07T13:54:10Z</time>
      </trkpt>
      <trkpt lat="40.0941640" lon="-3.3420880">
        <ele>797.0</ele>
        <time>2019-07-07T13:54:12Z</time>
      </trkpt>
      <trkpt lat="40.0942370" lon="-3.3422020">
        <ele>797.6</ele>
        <time>2019-07-07T13:54:15Z</time>
      </trkpt>
      <trkpt lat="40.0942620" lon="-3.3422440">
        <ele>797.8</ele>
        <time>2019-07-07T13:54:16Z</time>
      </trkpt>
      <trkpt lat="40.0943560" lon="-3.3424240">
        <ele>798.2</ele>
        <time>2019-07-07T13:54:20Z</time>
      </trkpt>
      <trkpt lat="40.0944700" lon="-3.3426950">
        <ele>797.8</ele>
        <time>2019-07-07T13:54:25Z</time>
      </trkpt>
      <trkpt lat="40.0944930" lon="-3.3427540">
        <ele>797.8</ele>
        <time>2019-07-07T13:54:26Z</time>
      </trkpt>
      <trkpt lat="40.0946490" lon="-3.3431340">
        <ele>797.6</ele>
        <time>2019-07-07T13:54:32Z</time>
      </trkpt>
      <trkpt lat="40.0947240" lon="-3.3433360">
        <ele>797.6</ele>
        <time>2019-07-07T13:54:35Z</time>
      </trkpt>
      <trkpt lat="40.0948280" lon="-3.3436050">
        <ele>797.4</ele>
        <time>2019-07-07T13:54:39Z</time>
      </trkpt>
      <trkpt lat="40.0949070" lon="-3.3438150">
        <ele>797.4</ele>
        <time>2019-07-07T13:54:42Z</time>
      </trkpt>
      <trkpt lat="40.0949580" lon="-3.3439600">
        <ele>797.4</ele>
        <time>2019-07-07T13:54:44Z</time>
      </trkpt>
      <trkpt lat="40.0951210" lon="-3.3444050">
        <ele>797.2</ele>
        <time>2019-07-07T13:54:50Z</time>
      </trkpt>
      <trkpt lat="40.0952070" lon="-3.3446270">
        <ele>797.2</ele>
        <time>2019-07-07T13:54:53Z</time>
      </trkpt>
      <trkpt lat="40.0953730" lon="-3.3450850">
        <ele>796.8</ele>
        <time>2019-07-07T13:54:59Z</time>
      </trkpt>
      <trkpt lat="40.0954020" lon="-3.3451630">
        <ele>796.6</ele>
        <time>2019-07-07T13:55:00Z</time>
      </trkpt>
      <trkpt lat="40.0954910" lon="-3.3453980">
        <ele>796.6</ele>
        <time>2019-07-07T13:55:03Z</time>
      </trkpt>
      <trkpt lat="40.0956590" lon="-3.3458280">
        <ele>797.2</ele>
        <time>2019-07-07T13:55:09Z</time>
      </trkpt>
      <trkpt lat="40.0957060" lon="-3.3459500">
        <ele>797.6</ele>
        <time>2019-07-07T13:55:11Z</time>
      </trkpt>
      <trkpt lat="40.0957830" lon="-3.3461650">
        <ele>798.4</ele>
        <time>2019-07-07T13:55:15Z</time>
      </trkpt>
      <trkpt lat="40.0958020" lon="-3.3462150">
        <ele>798.8</ele>
        <time>2019-07-07T13:55:16Z</time>
      </trkpt>
      <trkpt lat="40.0958950" lon="-3.3464550">
        <ele>800.0</ele>
        <time>2019-07-07T13:55:21Z</time>
      </trkpt>
      <trkpt lat="40.0959560" lon="-3.3465920">
        <ele>800.8</ele>
        <time>2019-07-07T13:55:24Z</time>
      </trkpt>
      <trkpt lat="40.0959810" lon="-3.3466340">
        <ele>801.0</ele>
        <time>2019-07-07T13:55:25Z</time>
      </trkpt>
      <trkpt lat="40.0960050" lon="-3.3466760">
        <ele>801.0</ele>
        <time>2019-07-07T13:55:26Z</time>
      </trkpt>
      <trkpt lat="40.0960820" lon="-3.3467990">
        <ele>801.8</ele>
        <time>2019-07-07T13:55:29Z</time>
      </trkpt>
      <trkpt lat="40.0961080" lon="-3.3468400">
        <ele>802.2</ele>
        <time>2019-07-07T13:55:30Z</time>
      </trkpt>
      <trkpt lat="40.0961640" lon="-3.3469170">
        <ele>802.4</ele>
        <time>2019-07-07T13:55:32Z</time>
      </trkpt>
      <trkpt lat="40.0962870" lon="-3.3470600">
        <ele>802.8</ele>
        <time>2019-07-07T13:55:36Z</time>
      </trkpt>
      <trkpt lat="40.0963500" lon="-3.3471280">
        <ele>803.2</ele>
        <time>2019-07-07T13:55:38Z</time>
      </trkpt>
      <trkpt lat="40.0964870" lon="-3.3472510">
        <ele>804.2</ele>
        <time>2019-07-07T13:55:42Z</time>
      </trkpt>
      <trkpt lat="40.0966350" lon="-3.3473580">
        <ele>805.4</ele>
        <time>2019-07-07T13:55:46Z</time>
      </trkpt>
      <trkpt lat="40.0967910" lon="-3.3474640">
        <ele>806.2</ele>
        <time>2019-07-07T13:55:50Z</time>
      </trkpt>
      <trkpt lat="40.0968680" lon="-3.3475160">
        <ele>806.4</ele>
        <time>2019-07-07T13:55:52Z</time>
      </trkpt>
      <trkpt lat="40.0970520" lon="-3.3476500">
        <ele>807.2</ele>
        <time>2019-07-07T13:55:57Z</time>
      </trkpt>
      <trkpt lat="40.0970890" lon="-3.3476730">
        <ele>807.6</ele>
        <time>2019-07-07T13:55:58Z</time>
      </trkpt>
      <trkpt lat="40.0971280" lon="-3.3476950">
        <ele>807.8</ele>
        <time>2019-07-07T13:55:59Z</time>
      </trkpt>
      <trkpt lat="40.0973200" lon="-3.3478140">
        <ele>808.4</ele>
        <time>2019-07-07T13:56:04Z</time>
      </trkpt>
      <trkpt lat="40.0974680" lon="-3.3479230">
        <ele>809.0</ele>
        <time>2019-07-07T13:56:08Z</time>
      </trkpt>
      <trkpt lat="40.0975420" lon="-3.3479780">
        <ele>809.4</ele>
        <time>2019-07-07T13:56:10Z</time>
      </trkpt>
      <trkpt lat="40.0977660" lon="-3.3481290">
        <ele>810.2</ele>
        <time>2019-07-07T13:56:16Z</time>
      </trkpt>
      <trkpt lat="40.0979900" lon="-3.3482760">
        <ele>810.6</ele>
        <time>2019-07-07T13:56:22Z</time>
      </trkpt>
      <trkpt lat="40.0981420" lon="-3.3483740">
        <ele>810.8</ele>
        <time>2019-07-07T13:56:26Z</time>
      </trkpt>
      <trkpt lat="40.0984430" lon="-3.3485810">
        <ele>811.0</ele>
        <time>2019-07-07T13:56:33Z</time>
      </trkpt>
      <trkpt lat="40.0984900" lon="-3.3486130">
        <ele>811.0</ele>
        <time>2019-07-07T13:56:34Z</time>
      </trkpt>
      <trkpt lat="40.0986370" lon="-3.3487090">
        <ele>810.8</ele>
        <time>2019-07-07T13:56:37Z</time>
      </trkpt>
      <trkpt lat="40.0987890" lon="-3.3488110">
        <ele>810.8</ele>
        <time>2019-07-07T13:56:40Z</time>
      </trkpt>
      <trkpt lat="40.0988880" lon="-3.3488870">
        <ele>810.8</ele>
        <time>2019-07-07T13:56:42Z</time>
      </trkpt>
      <trkpt lat="40.0991490" lon="-3.3490700">
        <ele>810.6</ele>
        <time>2019-07-07T13:56:47Z</time>
      </trkpt>
      <trkpt lat="40.0993150" lon="-3.3491770">
        <ele>810.2</ele>
        <time>2019-07-07T13:56:50Z</time>
      </trkpt>
      <trkpt lat="40.0993710" lon="-3.3492140">
        <ele>810.2</ele>
        <time>2019-07-07T13:56:51Z</time>
      </trkpt>
      <trkpt lat="40.0996750" lon="-3.3494220">
        <ele>809.4</ele>
        <time>2019-07-07T13:56:56Z</time>
      </trkpt>
      <trkpt lat="40.0997400" lon="-3.3494660">
        <ele>809.2</ele>
        <time>2019-07-07T13:56:57Z</time>
      </trkpt>
      <trkpt lat="40.0998060" lon="-3.3495120">
        <ele>808.8</ele>
        <time>2019-07-07T13:56:58Z</time>
      </trkpt>
      <trkpt lat="40.1000130" lon="-3.3496520">
        <ele>808.0</ele>
        <time>2019-07-07T13:57:01Z</time>
      </trkpt>
      <trkpt lat="40.1002330" lon="-3.3498010">
        <ele>806.8</ele>
        <time>2019-07-07T13:57:04Z</time>
      </trkpt>
      <trkpt lat="40.1003850" lon="-3.3499100">
        <ele>806.2</ele>
        <time>2019-07-07T13:57:06Z</time>
      </trkpt>
      <trkpt lat="40.1005420" lon="-3.3500190">
        <ele>805.8</ele>
        <time>2019-07-07T13:57:08Z</time>
      </trkpt>
      <trkpt lat="40.1009550" lon="-3.3502980">
        <ele>804.8</ele>
        <time>2019-07-07T13:57:13Z</time>
      </trkpt>
      <trkpt lat="40.1011260" lon="-3.3504100">
        <ele>804.2</ele>
        <time>2019-07-07T13:57:15Z</time>
      </trkpt>
      <trkpt lat="40.1012950" lon="-3.3505320">
        <ele>803.8</ele>
        <time>2019-07-07T13:57:17Z</time>
      </trkpt>
      <trkpt lat="40.1015540" lon="-3.3507130">
        <ele>802.6</ele>
        <time>2019-07-07T13:57:20Z</time>
      </trkpt>
      <trkpt lat="40.1018160" lon="-3.3508860">
        <ele>801.2</ele>
        <time>2019-07-07T13:57:23Z</time>
      </trkpt>
      <trkpt lat="40.1021520" lon="-3.3511190">
        <ele>800.2</ele>
        <time>2019-07-07T13:57:27Z</time>
      </trkpt>
      <trkpt lat="40.1024010" lon="-3.3512810">
        <ele>799.4</ele>
        <time>2019-07-07T13:57:30Z</time>
      </trkpt>
      <trkpt lat="40.1026400" lon="-3.3514430">
        <ele>799.0</ele>
        <time>2019-07-07T13:57:33Z</time>
      </trkpt>
      <trkpt lat="40.1028720" lon="-3.3516050">
        <ele>798.0</ele>
        <time>2019-07-07T13:57:36Z</time>
      </trkpt>
      <trkpt lat="40.1029500" lon="-3.3516590">
        <ele>797.8</ele>
        <time>2019-07-07T13:57:37Z</time>
      </trkpt>
      <trkpt lat="40.1030280" lon="-3.3517130">
        <ele>797.6</ele>
        <time>2019-07-07T13:57:38Z</time>
      </trkpt>
      <trkpt lat="40.1031850" lon="-3.3518250">
        <ele>797.4</ele>
        <time>2019-07-07T13:57:40Z</time>
      </trkpt>
      <trkpt lat="40.1033450" lon="-3.3519340">
        <ele>796.6</ele>
        <time>2019-07-07T13:57:42Z</time>
      </trkpt>
      <trkpt lat="40.1036540" lon="-3.3521520">
        <ele>795.6</ele>
        <time>2019-07-07T13:57:46Z</time>
      </trkpt>
      <trkpt lat="40.1037270" lon="-3.3522110">
        <ele>795.6</ele>
        <time>2019-07-07T13:57:47Z</time>
      </trkpt>
      <trkpt lat="40.1040610" lon="-3.3525460">
        <ele>794.4</ele>
        <time>2019-07-07T13:57:52Z</time>
      </trkpt>
      <trkpt lat="40.1043810" lon="-3.3530580">
        <ele>794.6</ele>
        <time>2019-07-07T13:57:58Z</time>
      </trkpt>
      <trkpt lat="40.1047350" lon="-3.3536950">
        <ele>794.2</ele>
        <time>2019-07-07T13:58:06Z</time>
      </trkpt>
      <trkpt lat="40.1049150" lon="-3.3540190">
        <ele>794.8</ele>
        <time>2019-07-07T13:58:11Z</time>
      </trkpt>
      <trkpt lat="40.1050300" lon="-3.3542340">
        <ele>795.6</ele>
        <time>2019-07-07T13:58:15Z</time>
      </trkpt>
      <trkpt lat="40.1050840" lon="-3.3543310">
        <ele>796.0</ele>
        <time>2019-07-07T13:58:17Z</time>
      </trkpt>
      <trkpt lat="40.1051400" lon="-3.3544190">
        <ele>796.6</ele>
        <time>2019-07-07T13:58:19Z</time>
      </trkpt>
      <trkpt lat="40.1052370" lon="-3.3545930">
        <ele>797.6</ele>
        <time>2019-07-07T13:58:23Z</time>
      </trkpt>
      <trkpt lat="40.1052590" lon="-3.3546330">
        <ele>797.8</ele>
        <time>2019-07-07T13:58:24Z</time>
      </trkpt>
      <trkpt lat="40.1052800" lon="-3.3546740">
        <ele>798.0</ele>
        <time>2019-07-07T13:58:25Z</time>
      </trkpt>
      <trkpt lat="40.1053690" lon="-3.3548270">
        <ele>798.8</ele>
        <time>2019-07-07T13:58:29Z</time>
      </trkpt>
      <trkpt lat="40.1054800" lon="-3.3550260">
        <ele>799.6</ele>
        <time>2019-07-07T13:58:34Z</time>
      </trkpt>
      <trkpt lat="40.1055440" lon="-3.3551460">
        <ele>800.0</ele>
        <time>2019-07-07T13:58:37Z</time>
      </trkpt>
      <trkpt lat="40.1056380" lon="-3.3552980">
        <ele>800.6</ele>
        <time>2019-07-07T13:58:41Z</time>
      </trkpt>
      <trkpt lat="40.1056610" lon="-3.3553370">
        <ele>800.6</ele>
        <time>2019-07-07T13:58:42Z</time>
      </trkpt>
      <trkpt lat="40.1057080" lon="-3.3554170">
        <ele>801.0</ele>
        <time>2019-07-07T13:58:44Z</time>
      </trkpt>
      <trkpt lat="40.1059130" lon="-3.3557120">
        <ele>800.8</ele>
        <time>2019-07-07T13:58:51Z</time>
      </trkpt>
      <trkpt lat="40.1062370" lon="-3.3561270">
        <ele>800.6</ele>
        <time>2019-07-07T13:59:00Z</time>
      </trkpt>
      <trkpt lat="40.1064790" lon="-3.3564280">
        <ele>800.8</ele>
        <time>2019-07-07T13:59:06Z</time>
      </trkpt>
      <trkpt lat="40.1066480" lon="-3.3566300">
        <ele>801.2</ele>
        <time>2019-07-07T13:59:10Z</time>
      </trkpt>
      <trkpt lat="40.1066900" lon="-3.3566830">
        <ele>801.2</ele>
        <time>2019-07-07T13:59:11Z</time>
      </trkpt>
      <trkpt lat="40.1067750" lon="-3.3567920">
        <ele>801.2</ele>
        <time>2019-07-07T13:59:13Z</time>
      </trkpt>
      <trkpt lat="40.1069970" lon="-3.3570590">
        <ele>801.2</ele>
        <time>2019-07-07T13:59:18Z</time>
      </trkpt>
      <trkpt lat="40.1071310" lon="-3.3572210">
        <ele>801.4</ele>
        <time>2019-07-07T13:59:21Z</time>
      </trkpt>
      <trkpt lat="40.1074070" lon="-3.3575690">
        <ele>801.4</ele>
        <time>2019-07-07T13:59:27Z</time>
      </trkpt>
      <trkpt lat="40.1074460" lon="-3.3576340">
        <ele>801.6</ele>
        <time>2019-07-07T13:59:28Z</time>
      </trkpt>
      <trkpt lat="40.1075460" lon="-3.3579260">
        <ele>801.4</ele>
        <time>2019-07-07T13:59:32Z</time>
      </trkpt>
      <trkpt lat="40.1075020" lon="-3.3582240">
        <ele>800.8</ele>
        <time>2019-07-07T13:59:36Z</time>
      </trkpt>
      <trkpt lat="40.1074060" lon="-3.3584150">
        <ele>800.6</ele>
        <time>2019-07-07T13:59:39Z</time>
      </trkpt>
      <trkpt lat="40.1073310" lon="-3.3585350">
        <ele>800.6</ele>
        <time>2019-07-07T13:59:41Z</time>
      </trkpt>
      <trkpt lat="40.1069710" lon="-3.3590080">
        <ele>800.6</ele>
        <time>2019-07-07T13:59:49Z</time>
      </trkpt>
      <trkpt lat="40.1066040" lon="-3.3595040">
        <ele>799.6</ele>
        <time>2019-07-07T13:59:57Z</time>
      </trkpt>
      <trkpt lat="40.1065150" lon="-3.3596300">
        <ele>799.6</ele>
        <time>2019-07-07T13:59:59Z</time>
      </trkpt>
      <trkpt lat="40.1064310" lon="-3.3597560">
        <ele>798.6</ele>
        <time>2019-07-07T14:00:01Z</time>
      </trkpt>
      <trkpt lat="40.1062980" lon="-3.3599350">
        <ele>797.4</ele>
        <time>2019-07-07T14:00:04Z</time>
      </trkpt>
      <trkpt lat="40.1061270" lon="-3.3601700">
        <ele>797.0</ele>
        <time>2019-07-07T14:00:08Z</time>
      </trkpt>
      <trkpt lat="40.1057200" lon="-3.3607380">
        <ele>797.0</ele>
        <time>2019-07-07T14:00:18Z</time>
      </trkpt>
      <trkpt lat="40.1054350" lon="-3.3611270">
        <ele>797.0</ele>
        <time>2019-07-07T14:00:25Z</time>
      </trkpt>
      <trkpt lat="40.1053560" lon="-3.3612390">
        <ele>797.2</ele>
        <time>2019-07-07T14:00:27Z</time>
      </trkpt>
      <trkpt lat="40.1049610" lon="-3.3617760">
        <ele>797.2</ele>
        <time>2019-07-07T14:00:37Z</time>
      </trkpt>
      <trkpt lat="40.1046400" lon="-3.3622350">
        <ele>797.4</ele>
        <time>2019-07-07T14:00:46Z</time>
      </trkpt>
      <trkpt lat="40.1043450" lon="-3.3626630">
        <ele>798.0</ele>
        <time>2019-07-07T14:00:55Z</time>
      </trkpt>
      <trkpt lat="40.1041850" lon="-3.3628800">
        <ele>798.2</ele>
        <time>2019-07-07T14:01:00Z</time>
      </trkpt>
      <trkpt lat="40.1040640" lon="-3.3630530">
        <ele>798.4</ele>
        <time>2019-07-07T14:01:04Z</time>
      </trkpt>
      <trkpt lat="40.1038900" lon="-3.3633020">
        <ele>799.4</ele>
        <time>2019-07-07T14:01:10Z</time>
      </trkpt>
      <trkpt lat="40.1038300" lon="-3.3633830">
        <ele>799.6</ele>
        <time>2019-07-07T14:01:12Z</time>
      </trkpt>
      <trkpt lat="40.1035910" lon="-3.3637210">
        <ele>800.2</ele>
        <time>2019-07-07T14:01:20Z</time>
      </trkpt>
      <trkpt lat="40.1035290" lon="-3.3638050">
        <ele>800.4</ele>
        <time>2019-07-07T14:01:22Z</time>
      </trkpt>
      <trkpt lat="40.1032500" lon="-3.3641910">
        <ele>801.2</ele>
        <time>2019-07-07T14:01:31Z</time>
      </trkpt>
      <trkpt lat="40.1031560" lon="-3.3643200">
        <ele>801.4</ele>
        <time>2019-07-07T14:01:34Z</time>
      </trkpt>
      <trkpt lat="40.1029790" lon="-3.3645880">
        <ele>802.0</ele>
        <time>2019-07-07T14:01:40Z</time>
      </trkpt>
      <trkpt lat="40.1029540" lon="-3.3646360">
        <ele>802.2</ele>
        <time>2019-07-07T14:01:41Z</time>
      </trkpt>
      <trkpt lat="40.1028380" lon="-3.3648830">
        <ele>802.4</ele>
        <time>2019-07-07T14:01:46Z</time>
      </trkpt>
      <trkpt lat="40.1027790" lon="-3.3650440">
        <ele>802.6</ele>
        <time>2019-07-07T14:01:49Z</time>
      </trkpt>
      <trkpt lat="40.1026510" lon="-3.3655880">
        <ele>802.8</ele>
        <time>2019-07-07T14:01:58Z</time>
      </trkpt>
      <trkpt lat="40.1025570" lon="-3.3661060">
        <ele>803.0</ele>
        <time>2019-07-07T14:02:06Z</time>
      </trkpt>
      <trkpt lat="40.1025020" lon="-3.3664330">
        <ele>803.2</ele>
        <time>2019-07-07T14:02:11Z</time>
      </trkpt>
      <trkpt lat="40.1024790" lon="-3.3665670">
        <ele>803.4</ele>
        <time>2019-07-07T14:02:13Z</time>
      </trkpt>
      <trkpt lat="40.1024470" lon="-3.3669300">
        <ele>803.2</ele>
        <time>2019-07-07T14:02:18Z</time>
      </trkpt>
      <trkpt lat="40.1024510" lon="-3.3670050">
        <ele>803.2</ele>
        <time>2019-07-07T14:02:19Z</time>
      </trkpt>
      <trkpt lat="40.1025280" lon="-3.3673720">
        <ele>803.4</ele>
        <time>2019-07-07T14:02:24Z</time>
      </trkpt>
      <trkpt lat="40.1025520" lon="-3.3674420">
        <ele>803.4</ele>
        <time>2019-07-07T14:02:25Z</time>
      </trkpt>
      <trkpt lat="40.1026750" lon="-3.3677880">
        <ele>803.4</ele>
        <time>2019-07-07T14:02:30Z</time>
      </trkpt>
      <trkpt lat="40.1027820" lon="-3.3680610">
        <ele>803.4</ele>
        <time>2019-07-07T14:02:34Z</time>
      </trkpt>
      <trkpt lat="40.1029370" lon="-3.3684740">
        <ele>803.4</ele>
        <time>2019-07-07T14:02:40Z</time>
      </trkpt>
      <trkpt lat="40.1029860" lon="-3.3686120">
        <ele>803.6</ele>
        <time>2019-07-07T14:02:42Z</time>
      </trkpt>
      <trkpt lat="40.1031290" lon="-3.3690640">
        <ele>804.0</ele>
        <time>2019-07-07T14:02:49Z</time>
      </trkpt>
      <trkpt lat="40.1031400" lon="-3.3691290">
        <ele>804.2</ele>
        <time>2019-07-07T14:02:50Z</time>
      </trkpt>
      <trkpt lat="40.1031550" lon="-3.3692610">
        <ele>804.4</ele>
        <time>2019-07-07T14:02:52Z</time>
      </trkpt>
      <trkpt lat="40.1031630" lon="-3.3694560">
        <ele>804.8</ele>
        <time>2019-07-07T14:02:55Z</time>
      </trkpt>
      <trkpt lat="40.1031440" lon="-3.3699620">
        <ele>805.0</ele>
        <time>2019-07-07T14:03:03Z</time>
      </trkpt>
      <trkpt lat="40.1031330" lon="-3.3700900">
        <ele>805.4</ele>
        <time>2019-07-07T14:03:05Z</time>
      </trkpt>
      <trkpt lat="40.1031240" lon="-3.3704010">
        <ele>805.8</ele>
        <time>2019-07-07T14:03:10Z</time>
      </trkpt>
      <trkpt lat="40.1031050" lon="-3.3708500">
        <ele>806.6</ele>
        <time>2019-07-07T14:03:17Z</time>
      </trkpt>
      <trkpt lat="40.1031000" lon="-3.3709150">
        <ele>806.6</ele>
        <time>2019-07-07T14:03:18Z</time>
      </trkpt>
      <trkpt lat="40.1030920" lon="-3.3714520">
        <ele>806.4</ele>
        <time>2019-07-07T14:03:26Z</time>
      </trkpt>
      <trkpt lat="40.1031390" lon="-3.3718010">
        <ele>805.8</ele>
        <time>2019-07-07T14:03:31Z</time>
      </trkpt>
      <trkpt lat="40.1031570" lon="-3.3718700">
        <ele>806.0</ele>
        <time>2019-07-07T14:03:32Z</time>
      </trkpt>
      <trkpt lat="40.1033420" lon="-3.3723460">
        <ele>805.4</ele>
        <time>2019-07-07T14:03:39Z</time>
      </trkpt>
      <trkpt lat="40.1033720" lon="-3.3724130">
        <ele>805.2</ele>
        <time>2019-07-07T14:03:40Z</time>
      </trkpt>
      <trkpt lat="40.1036160" lon="-3.3729710">
        <ele>805.6</ele>
        <time>2019-07-07T14:03:48Z</time>
      </trkpt>
      <trkpt lat="40.1036470" lon="-3.3730400">
        <ele>805.6</ele>
        <time>2019-07-07T14:03:49Z</time>
      </trkpt>
      <trkpt lat="40.1038920" lon="-3.3736230">
        <ele>805.0</ele>
        <time>2019-07-07T14:03:57Z</time>
      </trkpt>
      <trkpt lat="40.1040160" lon="-3.3740450">
        <ele>804.8</ele>
        <time>2019-07-07T14:04:02Z</time>
      </trkpt>
      <trkpt lat="40.1040970" lon="-3.3743850">
        <ele>804.6</ele>
        <time>2019-07-07T14:04:06Z</time>
      </trkpt>
      <trkpt lat="40.1041730" lon="-3.3747280">
        <ele>804.2</ele>
        <time>2019-07-07T14:04:10Z</time>
      </trkpt>
      <trkpt lat="40.1041920" lon="-3.3748150">
        <ele>804.0</ele>
        <time>2019-07-07T14:04:11Z</time>
      </trkpt>
      <trkpt lat="40.1042810" lon="-3.3751790">
        <ele>803.0</ele>
        <time>2019-07-07T14:04:15Z</time>
      </trkpt>
      <trkpt lat="40.1043500" lon="-3.3754560">
        <ele>802.6</ele>
        <time>2019-07-07T14:04:18Z</time>
      </trkpt>
      <trkpt lat="40.1044420" lon="-3.3759370">
        <ele>801.8</ele>
        <time>2019-07-07T14:04:23Z</time>
      </trkpt>
      <trkpt lat="40.1044660" lon="-3.3761370">
        <ele>801.6</ele>
        <time>2019-07-07T14:04:25Z</time>
      </trkpt>
      <trkpt lat="40.1045320" lon="-3.3768300">
        <ele>800.6</ele>
        <time>2019-07-07T14:04:32Z</time>
      </trkpt>
      <trkpt lat="40.1045500" lon="-3.3770210">
        <ele>800.4</ele>
        <time>2019-07-07T14:04:34Z</time>
      </trkpt>
      <trkpt lat="40.1046280" lon="-3.3777730">
        <ele>800.0</ele>
        <time>2019-07-07T14:04:42Z</time>
      </trkpt>
      <trkpt lat="40.1046580" lon="-3.3779550">
        <ele>799.8</ele>
        <time>2019-07-07T14:04:44Z</time>
      </trkpt>
      <trkpt lat="40.1047090" lon="-3.3781250">
        <ele>799.6</ele>
        <time>2019-07-07T14:04:46Z</time>
      </trkpt>
      <trkpt lat="40.1047760" lon="-3.3782870">
        <ele>799.2</ele>
        <time>2019-07-07T14:04:48Z</time>
      </trkpt>
      <trkpt lat="40.1048170" lon="-3.3783630">
        <ele>799.2</ele>
        <time>2019-07-07T14:04:49Z</time>
      </trkpt>
      <trkpt lat="40.1051550" lon="-3.3788560">
        <ele>798.6</ele>
        <time>2019-07-07T14:04:56Z</time>
      </trkpt>
      <trkpt lat="40.1053030" lon="-3.3790660">
        <ele>798.4</ele>
        <time>2019-07-07T14:04:59Z</time>
      </trkpt>
      <trkpt lat="40.1054800" lon="-3.3793600">
        <ele>798.2</ele>
        <time>2019-07-07T14:05:03Z</time>
      </trkpt>
      <trkpt lat="40.1056020" lon="-3.3797840">
        <ele>798.6</ele>
        <time>2019-07-07T14:05:08Z</time>
      </trkpt>
      <trkpt lat="40.1057080" lon="-3.3803630">
        <ele>798.8</ele>
        <time>2019-07-07T14:05:15Z</time>
      </trkpt>
      <trkpt lat="40.1058100" lon="-3.3809990">
        <ele>798.6</ele>
        <time>2019-07-07T14:05:23Z</time>
      </trkpt>
      <trkpt lat="40.1059330" lon="-3.3814550">
        <ele>798.6</ele>
        <time>2019-07-07T14:05:29Z</time>
      </trkpt>
      <trkpt lat="40.1061390" lon="-3.3820170">
        <ele>799.2</ele>
        <time>2019-07-07T14:05:37Z</time>
      </trkpt>
      <trkpt lat="40.1062960" lon="-3.3824300">
        <ele>799.4</ele>
        <time>2019-07-07T14:05:44Z</time>
      </trkpt>
      <trkpt lat="40.1063240" lon="-3.3824860">
        <ele>799.6</ele>
        <time>2019-07-07T14:05:46Z</time>
      </trkpt>
      <trkpt lat="40.1063780" lon="-3.3825530">
        <ele>799.8</ele>
        <time>2019-07-07T14:05:49Z</time>
      </trkpt>
      <trkpt lat="40.1065190" lon="-3.3826690">
        <ele>799.6</ele>
        <time>2019-07-07T14:05:54Z</time>
      </trkpt>
      <trkpt lat="40.1067090" lon="-3.3828050">
        <ele>799.8</ele>
        <time>2019-07-07T14:06:01Z</time>
      </trkpt>
      <trkpt lat="40.1068090" lon="-3.3829050">
        <ele>800.0</ele>
        <time>2019-07-07T14:06:06Z</time>
      </trkpt>
      <trkpt lat="40.1068210" lon="-3.3829160">
        <ele>800.0</ele>
        <time>2019-07-07T14:06:07Z</time>
      </trkpt>
      <trkpt lat="40.1068230" lon="-3.3829210">
        <ele>800.0</ele>
        <time>2019-07-07T14:06:09Z</time>
      </trkpt>
      <trkpt lat="40.1068480" lon="-3.3829380">
        <ele>800.0</ele>
        <time>2019-07-07T14:07:18Z</time>
      </trkpt>
      <trkpt lat="40.1068630" lon="-3.3829480">
        <ele>800.0</ele>
        <time>2019-07-07T14:07:19Z</time>
      </trkpt>
      <trkpt lat="40.1069160" lon="-3.3829880">
        <ele>800.2</ele>
        <time>2019-07-07T14:07:22Z</time>
      </trkpt>
      <trkpt lat="40.1069400" lon="-3.3829970">
        <ele>800.4</ele>
        <time>2019-07-07T14:07:23Z</time>
      </trkpt>
      <trkpt lat="40.1069710" lon="-3.3830060">
        <ele>800.4</ele>
        <time>2019-07-07T14:07:24Z</time>
      </trkpt>
      <trkpt lat="40.1070760" lon="-3.3830800">
        <ele>800.6</ele>
        <time>2019-07-07T14:07:27Z</time>
      </trkpt>
      <trkpt lat="40.1071420" lon="-3.3831530">
        <ele>800.6</ele>
        <time>2019-07-07T14:07:29Z</time>
      </trkpt>
      <trkpt lat="40.1073860" lon="-3.3834250">
        <ele>801.0</ele>
        <time>2019-07-07T14:07:36Z</time>
      </trkpt>
      <trkpt lat="40.1075260" lon="-3.3835850">
        <ele>801.4</ele>
        <time>2019-07-07T14:07:40Z</time>
      </trkpt>
      <trkpt lat="40.1076960" lon="-3.3837990">
        <ele>801.8</ele>
        <time>2019-07-07T14:07:45Z</time>
      </trkpt>
      <trkpt lat="40.1079490" lon="-3.3841520">
        <ele>802.4</ele>
        <time>2019-07-07T14:07:53Z</time>
      </trkpt>
      <trkpt lat="40.1079810" lon="-3.3841960">
        <ele>802.6</ele>
        <time>2019-07-07T14:07:54Z</time>
      </trkpt>
      <trkpt lat="40.1081820" lon="-3.3844750">
        <ele>802.2</ele>
        <time>2019-07-07T14:08:00Z</time>
      </trkpt>
      <trkpt lat="40.1084630" lon="-3.3848810">
        <ele>801.8</ele>
        <time>2019-07-07T14:08:08Z</time>
      </trkpt>
      <trkpt lat="40.1085070" lon="-3.3849300">
        <ele>801.4</ele>
        <time>2019-07-07T14:08:09Z</time>
      </trkpt>
      <trkpt lat="40.1085600" lon="-3.3849720">
        <ele>801.2</ele>
        <time>2019-07-07T14:08:10Z</time>
      </trkpt>
      <trkpt lat="40.1086830" lon="-3.3850220">
        <ele>800.8</ele>
        <time>2019-07-07T14:08:12Z</time>
      </trkpt>
      <trkpt lat="40.1088710" lon="-3.3850380">
        <ele>800.4</ele>
        <time>2019-07-07T14:08:15Z</time>
      </trkpt>
      <trkpt lat="40.1089290" lon="-3.3850420">
        <ele>800.2</ele>
        <time>2019-07-07T14:08:16Z</time>
      </trkpt>
      <trkpt lat="40.1089880" lon="-3.3850440">
        <ele>800.0</ele>
        <time>2019-07-07T14:08:17Z</time>
      </trkpt>
      <trkpt lat="40.1091050" lon="-3.3850440">
        <ele>799.8</ele>
        <time>2019-07-07T14:08:19Z</time>
      </trkpt>
      <trkpt lat="40.1093170" lon="-3.3850110">
        <ele>799.8</ele>
        <time>2019-07-07T14:08:23Z</time>
      </trkpt>
      <trkpt lat="40.1093680" lon="-3.3849960">
        <ele>799.8</ele>
        <time>2019-07-07T14:08:24Z</time>
      </trkpt>
      <trkpt lat="40.1095220" lon="-3.3849390">
        <ele>799.6</ele>
        <time>2019-07-07T14:08:27Z</time>
      </trkpt>
      <trkpt lat="40.1095720" lon="-3.3849280">
        <ele>799.6</ele>
        <time>2019-07-07T14:08:28Z</time>
      </trkpt>
      <trkpt lat="40.1096710" lon="-3.3849050">
        <ele>799.4</ele>
        <time>2019-07-07T14:08:30Z</time>
      </trkpt>
      <trkpt lat="40.1098290" lon="-3.3848460">
        <ele>799.4</ele>
        <time>2019-07-07T14:08:33Z</time>
      </trkpt>
      <trkpt lat="40.1098820" lon="-3.3848260">
        <ele>799.2</ele>
        <time>2019-07-07T14:08:34Z</time>
      </trkpt>
      <trkpt lat="40.1099880" lon="-3.3847890">
        <ele>799.2</ele>
        <time>2019-07-07T14:08:36Z</time>
      </trkpt>
      <trkpt lat="40.1100860" lon="-3.3847660">
        <ele>799.2</ele>
        <time>2019-07-07T14:08:38Z</time>
      </trkpt>
      <trkpt lat="40.1101260" lon="-3.3847760">
        <ele>799.2</ele>
        <time>2019-07-07T14:08:39Z</time>
      </trkpt>
      <trkpt lat="40.1101560" lon="-3.3847930">
        <ele>799.2</ele>
        <time>2019-07-07T14:08:40Z</time>
      </trkpt>
      <trkpt lat="40.1101860" lon="-3.3848070">
        <ele>799.0</ele>
        <time>2019-07-07T14:08:42Z</time>
      </trkpt>
      <trkpt lat="40.1101940" lon="-3.3848090">
        <ele>798.8</ele>
        <time>2019-07-07T14:08:44Z</time>
      </trkpt>
      <trkpt lat="40.1102670" lon="-3.3848080">
        <ele>798.8</ele>
        <time>2019-07-07T14:09:16Z</time>
      </trkpt>
      <trkpt lat="40.1102830" lon="-3.3848050">
        <ele>798.8</ele>
        <time>2019-07-07T14:09:17Z</time>
      </trkpt>
      <trkpt lat="40.1102990" lon="-3.3848100">
        <ele>799.0</ele>
        <time>2019-07-07T14:09:18Z</time>
      </trkpt>
      <trkpt lat="40.1103270" lon="-3.3848500">
        <ele>799.2</ele>
        <time>2019-07-07T14:09:20Z</time>
      </trkpt>
      <trkpt lat="40.1103560" lon="-3.3849090">
        <ele>799.2</ele>
        <time>2019-07-07T14:09:22Z</time>
      </trkpt>
      <trkpt lat="40.1104570" lon="-3.3851690">
        <ele>799.6</ele>
        <time>2019-07-07T14:09:28Z</time>
      </trkpt>
      <trkpt lat="40.1105410" lon="-3.3854640">
        <ele>800.0</ele>
        <time>2019-07-07T14:09:34Z</time>
      </trkpt>
      <trkpt lat="40.1105490" lon="-3.3855150">
        <ele>800.2</ele>
        <time>2019-07-07T14:09:35Z</time>
      </trkpt>
      <trkpt lat="40.1105860" lon="-3.3857080">
        <ele>801.0</ele>
        <time>2019-07-07T14:09:39Z</time>
      </trkpt>
      <trkpt lat="40.1106110" lon="-3.3858020">
        <ele>801.4</ele>
        <time>2019-07-07T14:09:41Z</time>
      </trkpt>
      <trkpt lat="40.1106240" lon="-3.3858430">
        <ele>801.6</ele>
        <time>2019-07-07T14:09:42Z</time>
      </trkpt>
      <trkpt lat="40.1106570" lon="-3.3859700">
        <ele>801.8</ele>
        <time>2019-07-07T14:09:45Z</time>
      </trkpt>
      <trkpt lat="40.1106860" lon="-3.3860940">
        <ele>802.4</ele>
        <time>2019-07-07T14:09:48Z</time>
      </trkpt>
      <trkpt lat="40.1107070" lon="-3.3861770">
        <ele>802.8</ele>
        <time>2019-07-07T14:09:50Z</time>
      </trkpt>
      <trkpt lat="40.1107470" lon="-3.3863430">
        <ele>803.6</ele>
        <time>2019-07-07T14:09:54Z</time>
      </trkpt>
      <trkpt lat="40.1107910" lon="-3.3865170">
        <ele>804.0</ele>
        <time>2019-07-07T14:09:58Z</time>
      </trkpt>
      <trkpt lat="40.1108550" lon="-3.3867910">
        <ele>804.6</ele>
        <time>2019-07-07T14:10:04Z</time>
      </trkpt>
      <trkpt lat="40.1108840" lon="-3.3868800">
        <ele>804.8</ele>
        <time>2019-07-07T14:10:06Z</time>
      </trkpt>
      <trkpt lat="40.1109540" lon="-3.3872120">
        <ele>805.6</ele>
        <time>2019-07-07T14:10:13Z</time>
      </trkpt>
      <trkpt lat="40.1109740" lon="-3.3873150">
        <ele>805.6</ele>
        <time>2019-07-07T14:10:15Z</time>
      </trkpt>
      <trkpt lat="40.1110160" lon="-3.3875270">
        <ele>805.8</ele>
        <time>2019-07-07T14:10:19Z</time>
      </trkpt>
      <trkpt lat="40.1110280" lon="-3.3875770">
        <ele>805.8</ele>
        <time>2019-07-07T14:10:20Z</time>
      </trkpt>
      <trkpt lat="40.1111190" lon="-3.3879640">
        <ele>806.4</ele>
        <time>2019-07-07T14:10:27Z</time>
      </trkpt>
      <trkpt lat="40.1111790" lon="-3.3882370">
        <ele>806.6</ele>
        <time>2019-07-07T14:10:32Z</time>
      </trkpt>
      <trkpt lat="40.1112040" lon="-3.3883560">
        <ele>806.6</ele>
        <time>2019-07-07T14:10:34Z</time>
      </trkpt>
      <trkpt lat="40.1113040" lon="-3.3888030">
        <ele>806.4</ele>
        <time>2019-07-07T14:10:41Z</time>
      </trkpt>
      <trkpt lat="40.1113970" lon="-3.3892950">
        <ele>806.0</ele>
        <time>2019-07-07T14:10:48Z</time>
      </trkpt>
      <trkpt lat="40.1114150" lon="-3.3894300">
        <ele>805.8</ele>
        <time>2019-07-07T14:10:50Z</time>
      </trkpt>
      <trkpt lat="40.1114100" lon="-3.3896320">
        <ele>805.6</ele>
        <time>2019-07-07T14:10:53Z</time>
      </trkpt>
      <trkpt lat="40.1114120" lon="-3.3897660">
        <ele>805.6</ele>
        <time>2019-07-07T14:10:55Z</time>
      </trkpt>
      <trkpt lat="40.1114100" lon="-3.3898320">
        <ele>805.6</ele>
        <time>2019-07-07T14:10:56Z</time>
      </trkpt>
      <trkpt lat="40.1113980" lon="-3.3901020">
        <ele>805.0</ele>
        <time>2019-07-07T14:11:00Z</time>
      </trkpt>
      <trkpt lat="40.1114180" lon="-3.3902000">
        <ele>804.8</ele>
        <time>2019-07-07T14:11:02Z</time>
      </trkpt>
      <trkpt lat="40.1114260" lon="-3.3902300">
        <ele>804.8</ele>
        <time>2019-07-07T14:11:03Z</time>
      </trkpt>
      <trkpt lat="40.1113980" lon="-3.3902990">
        <ele>804.8</ele>
        <time>2019-07-07T14:11:06Z</time>
      </trkpt>
      <trkpt lat="40.1112970" lon="-3.3903420">
        <ele>804.8</ele>
        <time>2019-07-07T14:11:10Z</time>
      </trkpt>
      <trkpt lat="40.1112350" lon="-3.3903850">
        <ele>804.6</ele>
        <time>2019-07-07T14:11:12Z</time>
      </trkpt>
      <trkpt lat="40.1111450" lon="-3.3904420">
        <ele>804.4</ele>
        <time>2019-07-07T14:11:15Z</time>
      </trkpt>
      <trkpt lat="40.1110240" lon="-3.3905310">
        <ele>804.2</ele>
        <time>2019-07-07T14:11:21Z</time>
      </trkpt>
      <trkpt lat="40.1108610" lon="-3.3906860">
        <ele>804.2</ele>
        <time>2019-07-07T14:11:26Z</time>
      </trkpt>
      <trkpt lat="40.1105400" lon="-3.3909560">
        <ele>804.2</ele>
        <time>2019-07-07T14:11:33Z</time>
      </trkpt>
      <trkpt lat="40.1103440" lon="-3.3911210">
        <ele>804.0</ele>
        <time>2019-07-07T14:11:37Z</time>
      </trkpt>
      <trkpt lat="40.1101400" lon="-3.3912760">
        <ele>803.8</ele>
        <time>2019-07-07T14:11:41Z</time>
      </trkpt>
      <trkpt lat="40.1100900" lon="-3.3913220">
        <ele>803.6</ele>
        <time>2019-07-07T14:11:42Z</time>
      </trkpt>
      <trkpt lat="40.1099180" lon="-3.3915320">
        <ele>803.2</ele>
        <time>2019-07-07T14:11:46Z</time>
      </trkpt>
      <trkpt lat="40.1096210" lon="-3.3919500">
        <ele>803.4</ele>
        <time>2019-07-07T14:11:53Z</time>
      </trkpt>
      <trkpt lat="40.1094910" lon="-3.3923200">
        <ele>803.8</ele>
        <time>2019-07-07T14:11:58Z</time>
      </trkpt>
      <trkpt lat="40.1093680" lon="-3.3927620">
        <ele>803.4</ele>
        <time>2019-07-07T14:12:04Z</time>
      </trkpt>
      <trkpt lat="40.1092040" lon="-3.3933230">
        <ele>802.8</ele>
        <time>2019-07-07T14:12:11Z</time>
      </trkpt>
      <trkpt lat="40.1090970" lon="-3.3935560">
        <ele>802.2</ele>
        <time>2019-07-07T14:12:14Z</time>
      </trkpt>
      <trkpt lat="40.1090030" lon="-3.3936970">
        <ele>801.6</ele>
        <time>2019-07-07T14:12:16Z</time>
      </trkpt>
      <trkpt lat="40.1089020" lon="-3.3938300">
        <ele>801.2</ele>
        <time>2019-07-07T14:12:18Z</time>
      </trkpt>
      <trkpt lat="40.1086910" lon="-3.3940830">
        <ele>800.4</ele>
        <time>2019-07-07T14:12:22Z</time>
      </trkpt>
      <trkpt lat="40.1086360" lon="-3.3941360">
        <ele>800.0</ele>
        <time>2019-07-07T14:12:23Z</time>
      </trkpt>
      <trkpt lat="40.1085130" lon="-3.3942320">
        <ele>799.6</ele>
        <time>2019-07-07T14:12:25Z</time>
      </trkpt>
      <trkpt lat="40.1083740" lon="-3.3942800">
        <ele>799.2</ele>
        <time>2019-07-07T14:12:27Z</time>
      </trkpt>
      <trkpt lat="40.1083040" lon="-3.3942790">
        <ele>798.8</ele>
        <time>2019-07-07T14:12:28Z</time>
      </trkpt>
      <trkpt lat="40.1081710" lon="-3.3942410">
        <ele>798.2</ele>
        <time>2019-07-07T14:12:30Z</time>
      </trkpt>
      <trkpt lat="40.1081050" lon="-3.3942100">
        <ele>798.0</ele>
        <time>2019-07-07T14:12:31Z</time>
      </trkpt>
      <trkpt lat="40.1080400" lon="-3.3941720">
        <ele>797.8</ele>
        <time>2019-07-07T14:12:32Z</time>
      </trkpt>
      <trkpt lat="40.1078440" lon="-3.3940400">
        <ele>797.6</ele>
        <time>2019-07-07T14:12:35Z</time>
      </trkpt>
      <trkpt lat="40.1076790" lon="-3.3938740">
        <ele>797.8</ele>
        <time>2019-07-07T14:12:38Z</time>
      </trkpt>
      <trkpt lat="40.1076340" lon="-3.3938080">
        <ele>797.8</ele>
        <time>2019-07-07T14:12:39Z</time>
      </trkpt>
      <trkpt lat="40.1074800" lon="-3.3936400">
        <ele>797.8</ele>
        <time>2019-07-07T14:12:42Z</time>
      </trkpt>
      <trkpt lat="40.1074140" lon="-3.3936250">
        <ele>797.8</ele>
        <time>2019-07-07T14:12:43Z</time>
      </trkpt>
      <trkpt lat="40.1072130" lon="-3.3936800">
        <ele>797.4</ele>
        <time>2019-07-07T14:12:46Z</time>
      </trkpt>
      <trkpt lat="40.1069960" lon="-3.3937600">
        <ele>796.6</ele>
        <time>2019-07-07T14:12:49Z</time>
      </trkpt>
      <trkpt lat="40.1067680" lon="-3.3938340">
        <ele>795.0</ele>
        <time>2019-07-07T14:12:52Z</time>
      </trkpt>
      <trkpt lat="40.1066870" lon="-3.3938530">
        <ele>794.6</ele>
        <time>2019-07-07T14:12:53Z</time>
      </trkpt>
      <trkpt lat="40.1065210" lon="-3.3939000">
        <ele>793.8</ele>
        <time>2019-07-07T14:12:55Z</time>
      </trkpt>
      <trkpt lat="40.1063500" lon="-3.3939530">
        <ele>792.8</ele>
        <time>2019-07-07T14:12:57Z</time>
      </trkpt>
      <trkpt lat="40.1061740" lon="-3.3940180">
        <ele>791.4</ele>
        <time>2019-07-07T14:12:59Z</time>
      </trkpt>
      <trkpt lat="40.1060000" lon="-3.3941240">
        <ele>790.2</ele>
        <time>2019-07-07T14:13:01Z</time>
      </trkpt>
      <trkpt lat="40.1058330" lon="-3.3942680">
        <ele>789.6</ele>
        <time>2019-07-07T14:13:03Z</time>
      </trkpt>
      <trkpt lat="40.1057510" lon="-3.3943430">
        <ele>789.0</ele>
        <time>2019-07-07T14:13:04Z</time>
      </trkpt>
      <trkpt lat="40.1055090" lon="-3.3945760">
        <ele>787.6</ele>
        <time>2019-07-07T14:13:07Z</time>
      </trkpt>
      <trkpt lat="40.1053550" lon="-3.3947520">
        <ele>786.6</ele>
        <time>2019-07-07T14:13:09Z</time>
      </trkpt>
      <trkpt lat="40.1052850" lon="-3.3948520">
        <ele>786.0</ele>
        <time>2019-07-07T14:13:10Z</time>
      </trkpt>
      <trkpt lat="40.1051580" lon="-3.3950750">
        <ele>785.2</ele>
        <time>2019-07-07T14:13:12Z</time>
      </trkpt>
      <trkpt lat="40.1050340" lon="-3.3953040">
        <ele>784.0</ele>
        <time>2019-07-07T14:13:14Z</time>
      </trkpt>
      <trkpt lat="40.1049080" lon="-3.3955390">
        <ele>782.8</ele>
        <time>2019-07-07T14:13:16Z</time>
      </trkpt>
      <trkpt lat="40.1047760" lon="-3.3957750">
        <ele>781.4</ele>
        <time>2019-07-07T14:13:18Z</time>
      </trkpt>
      <trkpt lat="40.1046350" lon="-3.3960050">
        <ele>779.6</ele>
        <time>2019-07-07T14:13:20Z</time>
      </trkpt>
      <trkpt lat="40.1044920" lon="-3.3962390">
        <ele>778.0</ele>
        <time>2019-07-07T14:13:22Z</time>
      </trkpt>
      <trkpt lat="40.1043440" lon="-3.3964690">
        <ele>776.2</ele>
        <time>2019-07-07T14:13:24Z</time>
      </trkpt>
      <trkpt lat="40.1042670" lon="-3.3965710">
        <ele>775.4</ele>
        <time>2019-07-07T14:13:25Z</time>
      </trkpt>
      <trkpt lat="40.1041800" lon="-3.3966550">
        <ele>774.6</ele>
        <time>2019-07-07T14:13:26Z</time>
      </trkpt>
      <trkpt lat="40.1039700" lon="-3.3967510">
        <ele>773.0</ele>
        <time>2019-07-07T14:13:28Z</time>
      </trkpt>
      <trkpt lat="40.1037340" lon="-3.3967760">
        <ele>771.2</ele>
        <time>2019-07-07T14:13:30Z</time>
      </trkpt>
      <trkpt lat="40.1036110" lon="-3.3967810">
        <ele>770.2</ele>
        <time>2019-07-07T14:13:31Z</time>
      </trkpt>
      <trkpt lat="40.1034870" lon="-3.3967870">
        <ele>769.0</ele>
        <time>2019-07-07T14:13:32Z</time>
      </trkpt>
      <trkpt lat="40.1033610" lon="-3.3967970">
        <ele>767.8</ele>
        <time>2019-07-07T14:13:33Z</time>
      </trkpt>
      <trkpt lat="40.1032340" lon="-3.3968060">
        <ele>766.6</ele>
        <time>2019-07-07T14:13:34Z</time>
      </trkpt>
      <trkpt lat="40.1029770" lon="-3.3968230">
        <ele>764.4</ele>
        <time>2019-07-07T14:13:36Z</time>
      </trkpt>
      <trkpt lat="40.1028490" lon="-3.3968320">
        <ele>763.0</ele>
        <time>2019-07-07T14:13:37Z</time>
      </trkpt>
      <trkpt lat="40.1027210" lon="-3.3968400">
        <ele>761.6</ele>
        <time>2019-07-07T14:13:38Z</time>
      </trkpt>
      <trkpt lat="40.1025940" lon="-3.3968470">
        <ele>760.8</ele>
        <time>2019-07-07T14:13:39Z</time>
      </trkpt>
      <trkpt lat="40.1024730" lon="-3.3968540">
        <ele>759.4</ele>
        <time>2019-07-07T14:13:40Z</time>
      </trkpt>
      <trkpt lat="40.1023550" lon="-3.3968600">
        <ele>758.4</ele>
        <time>2019-07-07T14:13:41Z</time>
      </trkpt>
      <trkpt lat="40.1022420" lon="-3.3968670">
        <ele>756.8</ele>
        <time>2019-07-07T14:13:42Z</time>
      </trkpt>
      <trkpt lat="40.1021310" lon="-3.3968780">
        <ele>755.8</ele>
        <time>2019-07-07T14:13:43Z</time>
      </trkpt>
      <trkpt lat="40.1020210" lon="-3.3968930">
        <ele>754.6</ele>
        <time>2019-07-07T14:13:44Z</time>
      </trkpt>
      <trkpt lat="40.1017930" lon="-3.3969410">
        <ele>752.2</ele>
        <time>2019-07-07T14:13:46Z</time>
      </trkpt>
      <trkpt lat="40.1016790" lon="-3.3969660">
        <ele>750.6</ele>
        <time>2019-07-07T14:13:47Z</time>
      </trkpt>
      <trkpt lat="40.1015690" lon="-3.3969890">
        <ele>748.4</ele>
        <time>2019-07-07T14:13:48Z</time>
      </trkpt>
      <trkpt lat="40.1014630" lon="-3.3970130">
        <ele>747.4</ele>
        <time>2019-07-07T14:13:49Z</time>
      </trkpt>
      <trkpt lat="40.1012660" lon="-3.3970860">
        <ele>745.8</ele>
        <time>2019-07-07T14:13:51Z</time>
      </trkpt>
      <trkpt lat="40.1011740" lon="-3.3971420">
        <ele>744.2</ele>
        <time>2019-07-07T14:13:52Z</time>
      </trkpt>
      <trkpt lat="40.1010870" lon="-3.3972170">
        <ele>742.8</ele>
        <time>2019-07-07T14:13:53Z</time>
      </trkpt>
      <trkpt lat="40.1010090" lon="-3.3973110">
        <ele>741.6</ele>
        <time>2019-07-07T14:13:54Z</time>
      </trkpt>
      <trkpt lat="40.1009440" lon="-3.3974220">
        <ele>740.4</ele>
        <time>2019-07-07T14:13:55Z</time>
      </trkpt>
      <trkpt lat="40.1008930" lon="-3.3975450">
        <ele>739.6</ele>
        <time>2019-07-07T14:13:56Z</time>
      </trkpt>
      <trkpt lat="40.1008510" lon="-3.3976740">
        <ele>738.6</ele>
        <time>2019-07-07T14:13:57Z</time>
      </trkpt>
      <trkpt lat="40.1007400" lon="-3.3980480">
        <ele>737.6</ele>
        <time>2019-07-07T14:14:00Z</time>
      </trkpt>
      <trkpt lat="40.1007020" lon="-3.3981610">
        <ele>737.4</ele>
        <time>2019-07-07T14:14:01Z</time>
      </trkpt>
      <trkpt lat="40.1005760" lon="-3.3984640">
        <ele>737.4</ele>
        <time>2019-07-07T14:14:04Z</time>
      </trkpt>
      <trkpt lat="40.1004910" lon="-3.3986350">
        <ele>737.6</ele>
        <time>2019-07-07T14:14:06Z</time>
      </trkpt>
      <trkpt lat="40.1004050" lon="-3.3987830">
        <ele>738.2</ele>
        <time>2019-07-07T14:14:08Z</time>
      </trkpt>
      <trkpt lat="40.1002710" lon="-3.3989640">
        <ele>738.8</ele>
        <time>2019-07-07T14:14:11Z</time>
      </trkpt>
      <trkpt lat="40.1000380" lon="-3.3992650">
        <ele>739.6</ele>
        <time>2019-07-07T14:14:17Z</time>
      </trkpt>
      <trkpt lat="40.0999610" lon="-3.3993480">
        <ele>740.0</ele>
        <time>2019-07-07T14:14:19Z</time>
      </trkpt>
      <trkpt lat="40.0998610" lon="-3.3994800">
        <ele>740.4</ele>
        <time>2019-07-07T14:14:22Z</time>
      </trkpt>
      <trkpt lat="40.0997990" lon="-3.3995660">
        <ele>740.6</ele>
        <time>2019-07-07T14:14:24Z</time>
      </trkpt>
      <trkpt lat="40.0997390" lon="-3.3996450">
        <ele>740.8</ele>
        <time>2019-07-07T14:14:26Z</time>
      </trkpt>
      <trkpt lat="40.0996820" lon="-3.3997240">
        <ele>741.2</ele>
        <time>2019-07-07T14:14:28Z</time>
      </trkpt>
      <trkpt lat="40.0996050" lon="-3.3998420">
        <ele>741.6</ele>
        <time>2019-07-07T14:14:31Z</time>
      </trkpt>
      <trkpt lat="40.0995820" lon="-3.3998820">
        <ele>741.8</ele>
        <time>2019-07-07T14:14:32Z</time>
      </trkpt>
      <trkpt lat="40.0995220" lon="-3.4000050">
        <ele>742.0</ele>
        <time>2019-07-07T14:14:35Z</time>
      </trkpt>
      <trkpt lat="40.0994870" lon="-3.4000890">
        <ele>742.4</ele>
        <time>2019-07-07T14:14:37Z</time>
      </trkpt>
      <trkpt lat="40.0994260" lon="-3.4002590">
        <ele>743.0</ele>
        <time>2019-07-07T14:14:41Z</time>
      </trkpt>
      <trkpt lat="40.0994120" lon="-3.4003020">
        <ele>743.2</ele>
        <time>2019-07-07T14:14:42Z</time>
      </trkpt>
      <trkpt lat="40.0993850" lon="-3.4003870">
        <ele>743.4</ele>
        <time>2019-07-07T14:14:44Z</time>
      </trkpt>
      <trkpt lat="40.0993260" lon="-3.4006500">
        <ele>744.2</ele>
        <time>2019-07-07T14:14:50Z</time>
      </trkpt>
      <trkpt lat="40.0993110" lon="-3.4007410">
        <ele>744.6</ele>
        <time>2019-07-07T14:14:52Z</time>
      </trkpt>
      <trkpt lat="40.0992540" lon="-3.4010750">
        <ele>745.6</ele>
        <time>2019-07-07T14:14:59Z</time>
      </trkpt>
      <trkpt lat="40.0991850" lon="-3.4015000">
        <ele>746.2</ele>
        <time>2019-07-07T14:15:07Z</time>
      </trkpt>
      <trkpt lat="40.0991050" lon="-3.4018890">
        <ele>745.6</ele>
        <time>2019-07-07T14:15:13Z</time>
      </trkpt>
      <trkpt lat="40.0990480" lon="-3.4021940">
        <ele>744.8</ele>
        <time>2019-07-07T14:15:17Z</time>
      </trkpt>
      <trkpt lat="40.0990210" lon="-3.4023580">
        <ele>744.4</ele>
        <time>2019-07-07T14:15:19Z</time>
      </trkpt>
      <trkpt lat="40.0990090" lon="-3.4024440">
        <ele>744.2</ele>
        <time>2019-07-07T14:15:20Z</time>
      </trkpt>
      <trkpt lat="40.0989810" lon="-3.4026210">
        <ele>743.6</ele>
        <time>2019-07-07T14:15:22Z</time>
      </trkpt>
      <trkpt lat="40.0989470" lon="-3.4028020">
        <ele>743.2</ele>
        <time>2019-07-07T14:15:24Z</time>
      </trkpt>
      <trkpt lat="40.0989140" lon="-3.4029920">
        <ele>742.2</ele>
        <time>2019-07-07T14:15:26Z</time>
      </trkpt>
      <trkpt lat="40.0988970" lon="-3.4030880">
        <ele>741.8</ele>
        <time>2019-07-07T14:15:27Z</time>
      </trkpt>
      <trkpt lat="40.0988780" lon="-3.4031880">
        <ele>741.6</ele>
        <time>2019-07-07T14:15:28Z</time>
      </trkpt>
      <trkpt lat="40.0988400" lon="-3.4033940">
        <ele>740.4</ele>
        <time>2019-07-07T14:15:30Z</time>
      </trkpt>
      <trkpt lat="40.0987860" lon="-3.4037250">
        <ele>738.8</ele>
        <time>2019-07-07T14:15:33Z</time>
      </trkpt>
      <trkpt lat="40.0987500" lon="-3.4039520">
        <ele>737.8</ele>
        <time>2019-07-07T14:15:35Z</time>
      </trkpt>
      <trkpt lat="40.0987110" lon="-3.4041810">
        <ele>736.6</ele>
        <time>2019-07-07T14:15:37Z</time>
      </trkpt>
      <trkpt lat="40.0986710" lon="-3.4044130">
        <ele>735.6</ele>
        <time>2019-07-07T14:15:39Z</time>
      </trkpt>
      <trkpt lat="40.0986090" lon="-3.4047660">
        <ele>734.2</ele>
        <time>2019-07-07T14:15:42Z</time>
      </trkpt>
      <trkpt lat="40.0985590" lon="-3.4050020">
        <ele>733.2</ele>
        <time>2019-07-07T14:15:44Z</time>
      </trkpt>
      <trkpt lat="40.0985290" lon="-3.4051190">
        <ele>732.8</ele>
        <time>2019-07-07T14:15:45Z</time>
      </trkpt>
      <trkpt lat="40.0984540" lon="-3.4053460">
        <ele>732.0</ele>
        <time>2019-07-07T14:15:47Z</time>
      </trkpt>
      <trkpt lat="40.0983590" lon="-3.4055620">
        <ele>731.0</ele>
        <time>2019-07-07T14:15:49Z</time>
      </trkpt>
      <trkpt lat="40.0983030" lon="-3.4056630">
        <ele>730.4</ele>
        <time>2019-07-07T14:15:50Z</time>
      </trkpt>
      <trkpt lat="40.0982390" lon="-3.4057570">
        <ele>729.8</ele>
        <time>2019-07-07T14:15:51Z</time>
      </trkpt>
      <trkpt lat="40.0980220" lon="-3.4060140">
        <ele>728.4</ele>
        <time>2019-07-07T14:15:54Z</time>
      </trkpt>
      <trkpt lat="40.0977660" lon="-3.4062320">
        <ele>727.0</ele>
        <time>2019-07-07T14:15:57Z</time>
      </trkpt>
      <trkpt lat="40.0975910" lon="-3.4063750">
        <ele>726.0</ele>
        <time>2019-07-07T14:15:59Z</time>
      </trkpt>
      <trkpt lat="40.0975010" lon="-3.4064460">
        <ele>725.4</ele>
        <time>2019-07-07T14:16:00Z</time>
      </trkpt>
      <trkpt lat="40.0973200" lon="-3.4065870">
        <ele>724.4</ele>
        <time>2019-07-07T14:16:02Z</time>
      </trkpt>
      <trkpt lat="40.0970410" lon="-3.4068010">
        <ele>722.6</ele>
        <time>2019-07-07T14:16:05Z</time>
      </trkpt>
      <trkpt lat="40.0967590" lon="-3.4070160">
        <ele>721.2</ele>
        <time>2019-07-07T14:16:08Z</time>
      </trkpt>
      <trkpt lat="40.0965710" lon="-3.4071620">
        <ele>720.0</ele>
        <time>2019-07-07T14:16:10Z</time>
      </trkpt>
      <trkpt lat="40.0963850" lon="-3.4073090">
        <ele>718.8</ele>
        <time>2019-07-07T14:16:12Z</time>
      </trkpt>
      <trkpt lat="40.0961120" lon="-3.4075220">
        <ele>717.6</ele>
        <time>2019-07-07T14:16:15Z</time>
      </trkpt>
      <trkpt lat="40.0958520" lon="-3.4077320">
        <ele>716.8</ele>
        <time>2019-07-07T14:16:18Z</time>
      </trkpt>
      <trkpt lat="40.0956870" lon="-3.4078590">
        <ele>716.4</ele>
        <time>2019-07-07T14:16:20Z</time>
      </trkpt>
      <trkpt lat="40.0952990" lon="-3.4081640">
        <ele>715.6</ele>
        <time>2019-07-07T14:16:25Z</time>
      </trkpt>
      <trkpt lat="40.0952260" lon="-3.4082230">
        <ele>715.4</ele>
        <time>2019-07-07T14:16:26Z</time>
      </trkpt>
      <trkpt lat="40.0948810" lon="-3.4085040">
        <ele>714.4</ele>
        <time>2019-07-07T14:16:31Z</time>
      </trkpt>
      <trkpt lat="40.0948150" lon="-3.4085570">
        <ele>714.2</ele>
        <time>2019-07-07T14:16:32Z</time>
      </trkpt>
      <trkpt lat="40.0945700" lon="-3.4087690">
        <ele>714.0</ele>
        <time>2019-07-07T14:16:36Z</time>
      </trkpt>
      <trkpt lat="40.0944590" lon="-3.4088850">
        <ele>713.8</ele>
        <time>2019-07-07T14:16:38Z</time>
      </trkpt>
      <trkpt lat="40.0941700" lon="-3.4092730">
        <ele>713.4</ele>
        <time>2019-07-07T14:16:44Z</time>
      </trkpt>
      <trkpt lat="40.0941290" lon="-3.4093500">
        <ele>713.0</ele>
        <time>2019-07-07T14:16:45Z</time>
      </trkpt>
      <trkpt lat="40.0940130" lon="-3.4096080">
        <ele>712.4</ele>
        <time>2019-07-07T14:16:48Z</time>
      </trkpt>
      <trkpt lat="40.0939750" lon="-3.4097020">
        <ele>712.0</ele>
        <time>2019-07-07T14:16:49Z</time>
      </trkpt>
      <trkpt lat="40.0939380" lon="-3.4098000">
        <ele>711.6</ele>
        <time>2019-07-07T14:16:50Z</time>
      </trkpt>
      <trkpt lat="40.0938670" lon="-3.4100050">
        <ele>711.0</ele>
        <time>2019-07-07T14:16:52Z</time>
      </trkpt>
      <trkpt lat="40.0937570" lon="-3.4103290">
        <ele>709.8</ele>
        <time>2019-07-07T14:16:55Z</time>
      </trkpt>
      <trkpt lat="40.0936800" lon="-3.4105540">
        <ele>708.6</ele>
        <time>2019-07-07T14:16:57Z</time>
      </trkpt>
      <trkpt lat="40.0935610" lon="-3.4109030">
        <ele>707.0</ele>
        <time>2019-07-07T14:17:00Z</time>
      </trkpt>
      <trkpt lat="40.0934820" lon="-3.4111410">
        <ele>706.2</ele>
        <time>2019-07-07T14:17:02Z</time>
      </trkpt>
      <trkpt lat="40.0933980" lon="-3.4113810">
        <ele>705.0</ele>
        <time>2019-07-07T14:17:04Z</time>
      </trkpt>
      <trkpt lat="40.0933570" lon="-3.4115020">
        <ele>704.6</ele>
        <time>2019-07-07T14:17:05Z</time>
      </trkpt>
      <trkpt lat="40.0932780" lon="-3.4117430">
        <ele>704.0</ele>
        <time>2019-07-07T14:17:07Z</time>
      </trkpt>
      <trkpt lat="40.0931960" lon="-3.4119790">
        <ele>702.8</ele>
        <time>2019-07-07T14:17:09Z</time>
      </trkpt>
      <trkpt lat="40.0930410" lon="-3.4124280">
        <ele>701.6</ele>
        <time>2019-07-07T14:17:13Z</time>
      </trkpt>
      <trkpt lat="40.0929280" lon="-3.4127550">
        <ele>701.2</ele>
        <time>2019-07-07T14:17:16Z</time>
      </trkpt>
      <trkpt lat="40.0927370" lon="-3.4132950">
        <ele>701.8</ele>
        <time>2019-07-07T14:17:21Z</time>
      </trkpt>
      <trkpt lat="40.0924910" lon="-3.4140180">
        <ele>701.2</ele>
        <time>2019-07-07T14:17:28Z</time>
      </trkpt>
      <trkpt lat="40.0924570" lon="-3.4141170">
        <ele>701.0</ele>
        <time>2019-07-07T14:17:29Z</time>
      </trkpt>
      <trkpt lat="40.0923870" lon="-3.4143130">
        <ele>700.4</ele>
        <time>2019-07-07T14:17:31Z</time>
      </trkpt>
      <trkpt lat="40.0922520" lon="-3.4147040">
        <ele>699.4</ele>
        <time>2019-07-07T14:17:35Z</time>
      </trkpt>
      <trkpt lat="40.0921170" lon="-3.4150940">
        <ele>699.0</ele>
        <time>2019-07-07T14:17:39Z</time>
      </trkpt>
      <trkpt lat="40.0920510" lon="-3.4152910">
        <ele>698.6</ele>
        <time>2019-07-07T14:17:41Z</time>
      </trkpt>
      <trkpt lat="40.0918780" lon="-3.4157840">
        <ele>697.8</ele>
        <time>2019-07-07T14:17:46Z</time>
      </trkpt>
      <trkpt lat="40.0918130" lon="-3.4159750">
        <ele>697.6</ele>
        <time>2019-07-07T14:17:48Z</time>
      </trkpt>
      <trkpt lat="40.0917510" lon="-3.4161660">
        <ele>696.4</ele>
        <time>2019-07-07T14:17:50Z</time>
      </trkpt>
      <trkpt lat="40.0916850" lon="-3.4163540">
        <ele>695.0</ele>
        <time>2019-07-07T14:17:52Z</time>
      </trkpt>
      <trkpt lat="40.0915890" lon="-3.4166490">
        <ele>694.0</ele>
        <time>2019-07-07T14:17:55Z</time>
      </trkpt>
      <trkpt lat="40.0914920" lon="-3.4169490">
        <ele>692.6</ele>
        <time>2019-07-07T14:17:58Z</time>
      </trkpt>
      <trkpt lat="40.0914090" lon="-3.4172650">
        <ele>691.4</ele>
        <time>2019-07-07T14:18:01Z</time>
      </trkpt>
      <trkpt lat="40.0913750" lon="-3.4173710">
        <ele>691.0</ele>
        <time>2019-07-07T14:18:02Z</time>
      </trkpt>
      <trkpt lat="40.0913100" lon="-3.4175880">
        <ele>690.0</ele>
        <time>2019-07-07T14:18:04Z</time>
      </trkpt>
      <trkpt lat="40.0912170" lon="-3.4179230">
        <ele>688.4</ele>
        <time>2019-07-07T14:18:07Z</time>
      </trkpt>
      <trkpt lat="40.0911540" lon="-3.4181450">
        <ele>687.4</ele>
        <time>2019-07-07T14:18:09Z</time>
      </trkpt>
      <trkpt lat="40.0911220" lon="-3.4182540">
        <ele>687.0</ele>
        <time>2019-07-07T14:18:10Z</time>
      </trkpt>
      <trkpt lat="40.0910270" lon="-3.4185760">
        <ele>685.6</ele>
        <time>2019-07-07T14:18:13Z</time>
      </trkpt>
      <trkpt lat="40.0909200" lon="-3.4188810">
        <ele>684.4</ele>
        <time>2019-07-07T14:18:16Z</time>
      </trkpt>
      <trkpt lat="40.0908850" lon="-3.4189810">
        <ele>684.2</ele>
        <time>2019-07-07T14:18:17Z</time>
      </trkpt>
      <trkpt lat="40.0907690" lon="-3.4192720">
        <ele>683.2</ele>
        <time>2019-07-07T14:18:20Z</time>
      </trkpt>
      <trkpt lat="40.0906160" lon="-3.4196420">
        <ele>682.2</ele>
        <time>2019-07-07T14:18:24Z</time>
      </trkpt>
      <trkpt lat="40.0905780" lon="-3.4197300">
        <ele>682.0</ele>
        <time>2019-07-07T14:18:25Z</time>
      </trkpt>
      <trkpt lat="40.0903310" lon="-3.4203010">
        <ele>682.0</ele>
        <time>2019-07-07T14:18:32Z</time>
      </trkpt>
      <trkpt lat="40.0900910" lon="-3.4208480">
        <ele>682.0</ele>
        <time>2019-07-07T14:18:39Z</time>
      </trkpt>
      <trkpt lat="40.0899940" lon="-3.4210800">
        <ele>682.0</ele>
        <time>2019-07-07T14:18:42Z</time>
      </trkpt>
      <trkpt lat="40.0897270" lon="-3.4217770">
        <ele>681.6</ele>
        <time>2019-07-07T14:18:51Z</time>
      </trkpt>
      <trkpt lat="40.0896980" lon="-3.4218530">
        <ele>681.4</ele>
        <time>2019-07-07T14:18:52Z</time>
      </trkpt>
      <trkpt lat="40.0894520" lon="-3.4225390">
        <ele>681.4</ele>
        <time>2019-07-07T14:19:01Z</time>
      </trkpt>
      <trkpt lat="40.0892590" lon="-3.4231560">
        <ele>681.2</ele>
        <time>2019-07-07T14:19:09Z</time>
      </trkpt>
      <trkpt lat="40.0892090" lon="-3.4233130">
        <ele>681.2</ele>
        <time>2019-07-07T14:19:11Z</time>
      </trkpt>
      <trkpt lat="40.0889780" lon="-3.4240110">
        <ele>681.8</ele>
        <time>2019-07-07T14:19:20Z</time>
      </trkpt>
      <trkpt lat="40.0889500" lon="-3.4240850">
        <ele>681.8</ele>
        <time>2019-07-07T14:19:21Z</time>
      </trkpt>
      <trkpt lat="40.0888170" lon="-3.4244510">
        <ele>682.4</ele>
        <time>2019-07-07T14:19:26Z</time>
      </trkpt>
      <trkpt lat="40.0887030" lon="-3.4247340">
        <ele>682.6</ele>
        <time>2019-07-07T14:19:30Z</time>
      </trkpt>
      <trkpt lat="40.0885140" lon="-3.4252490">
        <ele>682.6</ele>
        <time>2019-07-07T14:19:37Z</time>
      </trkpt>
      <trkpt lat="40.0884590" lon="-3.4253980">
        <ele>683.0</ele>
        <time>2019-07-07T14:19:39Z</time>
      </trkpt>
      <trkpt lat="40.0882060" lon="-3.4260660">
        <ele>683.6</ele>
        <time>2019-07-07T14:19:48Z</time>
      </trkpt>
      <trkpt lat="40.0879440" lon="-3.4267720">
        <ele>683.2</ele>
        <time>2019-07-07T14:19:57Z</time>
      </trkpt>
      <trkpt lat="40.0879140" lon="-3.4268510">
        <ele>683.0</ele>
        <time>2019-07-07T14:19:58Z</time>
      </trkpt>
      <trkpt lat="40.0876630" lon="-3.4275170">
        <ele>682.0</ele>
        <time>2019-07-07T14:20:06Z</time>
      </trkpt>
      <trkpt lat="40.0875570" lon="-3.4277950">
        <ele>681.6</ele>
        <time>2019-07-07T14:20:09Z</time>
      </trkpt>
      <trkpt lat="40.0874060" lon="-3.4281900">
        <ele>681.2</ele>
        <time>2019-07-07T14:20:13Z</time>
      </trkpt>
      <trkpt lat="40.0872980" lon="-3.4284990">
        <ele>681.0</ele>
        <time>2019-07-07T14:20:16Z</time>
      </trkpt>
      <trkpt lat="40.0871880" lon="-3.4288080">
        <ele>680.6</ele>
        <time>2019-07-07T14:20:19Z</time>
      </trkpt>
      <trkpt lat="40.0871100" lon="-3.4290110">
        <ele>680.0</ele>
        <time>2019-07-07T14:20:21Z</time>
      </trkpt>
      <trkpt lat="40.0870330" lon="-3.4292150">
        <ele>679.2</ele>
        <time>2019-07-07T14:20:23Z</time>
      </trkpt>
      <trkpt lat="40.0867890" lon="-3.4298340">
        <ele>678.2</ele>
        <time>2019-07-07T14:20:29Z</time>
      </trkpt>
      <trkpt lat="40.0867520" lon="-3.4299390">
        <ele>678.0</ele>
        <time>2019-07-07T14:20:30Z</time>
      </trkpt>
      <trkpt lat="40.0867150" lon="-3.4300450">
        <ele>678.2</ele>
        <time>2019-07-07T14:20:31Z</time>
      </trkpt>
      <trkpt lat="40.0864790" lon="-3.4306720">
        <ele>677.4</ele>
        <time>2019-07-07T14:20:37Z</time>
      </trkpt>
      <trkpt lat="40.0864410" lon="-3.4307770">
        <ele>677.2</ele>
        <time>2019-07-07T14:20:38Z</time>
      </trkpt>
      <trkpt lat="40.0864010" lon="-3.4308810">
        <ele>677.0</ele>
        <time>2019-07-07T14:20:39Z</time>
      </trkpt>
      <trkpt lat="40.0862400" lon="-3.4313050">
        <ele>676.0</ele>
        <time>2019-07-07T14:20:43Z</time>
      </trkpt>
      <trkpt lat="40.0861130" lon="-3.4316360">
        <ele>674.8</ele>
        <time>2019-07-07T14:20:46Z</time>
      </trkpt>
      <trkpt lat="40.0859870" lon="-3.4319750">
        <ele>674.0</ele>
        <time>2019-07-07T14:20:49Z</time>
      </trkpt>
      <trkpt lat="40.0859440" lon="-3.4320890">
        <ele>673.8</ele>
        <time>2019-07-07T14:20:50Z</time>
      </trkpt>
      <trkpt lat="40.0858140" lon="-3.4324310">
        <ele>672.6</ele>
        <time>2019-07-07T14:20:53Z</time>
      </trkpt>
      <trkpt lat="40.0857280" lon="-3.4326580">
        <ele>671.8</ele>
        <time>2019-07-07T14:20:55Z</time>
      </trkpt>
      <trkpt lat="40.0856400" lon="-3.4328810">
        <ele>671.2</ele>
        <time>2019-07-07T14:20:57Z</time>
      </trkpt>
      <trkpt lat="40.0855970" lon="-3.4329920">
        <ele>670.8</ele>
        <time>2019-07-07T14:20:58Z</time>
      </trkpt>
      <trkpt lat="40.0855540" lon="-3.4331030">
        <ele>670.2</ele>
        <time>2019-07-07T14:20:59Z</time>
      </trkpt>
      <trkpt lat="40.0855120" lon="-3.4332130">
        <ele>669.6</ele>
        <time>2019-07-07T14:21:00Z</time>
      </trkpt>
      <trkpt lat="40.0854320" lon="-3.4334330">
        <ele>669.0</ele>
        <time>2019-07-07T14:21:02Z</time>
      </trkpt>
      <trkpt lat="40.0852340" lon="-3.4339610">
        <ele>668.2</ele>
        <time>2019-07-07T14:21:07Z</time>
      </trkpt>
      <trkpt lat="40.0851940" lon="-3.4340660">
        <ele>667.6</ele>
        <time>2019-07-07T14:21:08Z</time>
      </trkpt>
      <trkpt lat="40.0849990" lon="-3.4345860">
        <ele>666.8</ele>
        <time>2019-07-07T14:21:13Z</time>
      </trkpt>
      <trkpt lat="40.0848930" lon="-3.4348800">
        <ele>666.6</ele>
        <time>2019-07-07T14:21:16Z</time>
      </trkpt>
      <trkpt lat="40.0848570" lon="-3.4349730">
        <ele>666.4</ele>
        <time>2019-07-07T14:21:17Z</time>
      </trkpt>
      <trkpt lat="40.0846840" lon="-3.4354200">
        <ele>665.2</ele>
        <time>2019-07-07T14:21:22Z</time>
      </trkpt>
      <trkpt lat="40.0846190" lon="-3.4355930">
        <ele>664.8</ele>
        <time>2019-07-07T14:21:24Z</time>
      </trkpt>
      <trkpt lat="40.0844920" lon="-3.4359330">
        <ele>664.6</ele>
        <time>2019-07-07T14:21:28Z</time>
      </trkpt>
      <trkpt lat="40.0843420" lon="-3.4363450">
        <ele>664.6</ele>
        <time>2019-07-07T14:21:33Z</time>
      </trkpt>
      <trkpt lat="40.0841650" lon="-3.4368210">
        <ele>664.8</ele>
        <time>2019-07-07T14:21:39Z</time>
      </trkpt>
      <trkpt lat="40.0841360" lon="-3.4368980">
        <ele>664.8</ele>
        <time>2019-07-07T14:21:40Z</time>
      </trkpt>
      <trkpt lat="40.0839330" lon="-3.4374500">
        <ele>665.0</ele>
        <time>2019-07-07T14:21:48Z</time>
      </trkpt>
      <trkpt lat="40.0836720" lon="-3.4381320">
        <ele>665.4</ele>
        <time>2019-07-07T14:21:59Z</time>
      </trkpt>
      <trkpt lat="40.0836500" lon="-3.4381940">
        <ele>665.6</ele>
        <time>2019-07-07T14:22:00Z</time>
      </trkpt>
      <trkpt lat="40.0834330" lon="-3.4387430">
        <ele>665.8</ele>
        <time>2019-07-07T14:22:09Z</time>
      </trkpt>
      <trkpt lat="40.0832390" lon="-3.4392680">
        <ele>666.6</ele>
        <time>2019-07-07T14:22:17Z</time>
      </trkpt>
      <trkpt lat="40.0832140" lon="-3.4393330">
        <ele>666.6</ele>
        <time>2019-07-07T14:22:18Z</time>
      </trkpt>
      <trkpt lat="40.0829690" lon="-3.4399830">
        <ele>667.0</ele>
        <time>2019-07-07T14:22:28Z</time>
      </trkpt>
      <trkpt lat="40.0827670" lon="-3.4405210">
        <ele>666.6</ele>
        <time>2019-07-07T14:22:36Z</time>
      </trkpt>
      <trkpt lat="40.0827150" lon="-3.4406620">
        <ele>666.4</ele>
        <time>2019-07-07T14:22:38Z</time>
      </trkpt>
      <trkpt lat="40.0825800" lon="-3.4410250">
        <ele>666.0</ele>
        <time>2019-07-07T14:22:43Z</time>
      </trkpt>
      <trkpt lat="40.0825240" lon="-3.4411720">
        <ele>665.6</ele>
        <time>2019-07-07T14:22:45Z</time>
      </trkpt>
      <trkpt lat="40.0823830" lon="-3.4415440">
        <ele>665.2</ele>
        <time>2019-07-07T14:22:50Z</time>
      </trkpt>
      <trkpt lat="40.0821570" lon="-3.4421480">
        <ele>665.6</ele>
        <time>2019-07-07T14:22:58Z</time>
      </trkpt>
      <trkpt lat="40.0818800" lon="-3.4428320">
        <ele>664.8</ele>
        <time>2019-07-07T14:23:07Z</time>
      </trkpt>
      <trkpt lat="40.0818490" lon="-3.4429100">
        <ele>664.6</ele>
        <time>2019-07-07T14:23:08Z</time>
      </trkpt>
      <trkpt lat="40.0815730" lon="-3.4435220">
        <ele>664.0</ele>
        <time>2019-07-07T14:23:16Z</time>
      </trkpt>
      <trkpt lat="40.0815350" lon="-3.4435990">
        <ele>663.8</ele>
        <time>2019-07-07T14:23:17Z</time>
      </trkpt>
      <trkpt lat="40.0813430" lon="-3.4439910">
        <ele>663.6</ele>
        <time>2019-07-07T14:23:22Z</time>
      </trkpt>
      <trkpt lat="40.0811850" lon="-3.4443210">
        <ele>662.4</ele>
        <time>2019-07-07T14:23:26Z</time>
      </trkpt>
      <trkpt lat="40.0811470" lon="-3.4444060">
        <ele>662.2</ele>
        <time>2019-07-07T14:23:27Z</time>
      </trkpt>
      <trkpt lat="40.0810660" lon="-3.4445720">
        <ele>661.2</ele>
        <time>2019-07-07T14:23:29Z</time>
      </trkpt>
      <trkpt lat="40.0809490" lon="-3.4448170">
        <ele>660.4</ele>
        <time>2019-07-07T14:23:32Z</time>
      </trkpt>
      <trkpt lat="40.0809070" lon="-3.4448970">
        <ele>660.2</ele>
        <time>2019-07-07T14:23:33Z</time>
      </trkpt>
      <trkpt lat="40.0807910" lon="-3.4451430">
        <ele>659.0</ele>
        <time>2019-07-07T14:23:36Z</time>
      </trkpt>
      <trkpt lat="40.0807150" lon="-3.4453110">
        <ele>657.8</ele>
        <time>2019-07-07T14:23:38Z</time>
      </trkpt>
      <trkpt lat="40.0805950" lon="-3.4455690">
        <ele>656.8</ele>
        <time>2019-07-07T14:23:41Z</time>
      </trkpt>
      <trkpt lat="40.0804450" lon="-3.4459390">
        <ele>655.6</ele>
        <time>2019-07-07T14:23:45Z</time>
      </trkpt>
      <trkpt lat="40.0803420" lon="-3.4462270">
        <ele>654.4</ele>
        <time>2019-07-07T14:23:48Z</time>
      </trkpt>
      <trkpt lat="40.0802770" lon="-3.4464170">
        <ele>653.6</ele>
        <time>2019-07-07T14:23:50Z</time>
      </trkpt>
      <trkpt lat="40.0802470" lon="-3.4465120">
        <ele>653.2</ele>
        <time>2019-07-07T14:23:51Z</time>
      </trkpt>
      <trkpt lat="40.0801390" lon="-3.4468890">
        <ele>652.2</ele>
        <time>2019-07-07T14:23:55Z</time>
      </trkpt>
      <trkpt lat="40.0800810" lon="-3.4470760">
        <ele>651.8</ele>
        <time>2019-07-07T14:23:57Z</time>
      </trkpt>
      <trkpt lat="40.0799950" lon="-3.4473570">
        <ele>651.0</ele>
        <time>2019-07-07T14:24:00Z</time>
      </trkpt>
      <trkpt lat="40.0798790" lon="-3.4477430">
        <ele>649.6</ele>
        <time>2019-07-07T14:24:04Z</time>
      </trkpt>
      <trkpt lat="40.0798190" lon="-3.4479460">
        <ele>648.6</ele>
        <time>2019-07-07T14:24:06Z</time>
      </trkpt>
      <trkpt lat="40.0797860" lon="-3.4480480">
        <ele>647.8</ele>
        <time>2019-07-07T14:24:07Z</time>
      </trkpt>
      <trkpt lat="40.0797550" lon="-3.4481540">
        <ele>647.4</ele>
        <time>2019-07-07T14:24:08Z</time>
      </trkpt>
      <trkpt lat="40.0796950" lon="-3.4483700">
        <ele>646.2</ele>
        <time>2019-07-07T14:24:10Z</time>
      </trkpt>
      <trkpt lat="40.0795950" lon="-3.4487000">
        <ele>645.0</ele>
        <time>2019-07-07T14:24:13Z</time>
      </trkpt>
      <trkpt lat="40.0795190" lon="-3.4489200">
        <ele>643.8</ele>
        <time>2019-07-07T14:24:15Z</time>
      </trkpt>
      <trkpt lat="40.0793860" lon="-3.4492450">
        <ele>642.2</ele>
        <time>2019-07-07T14:24:18Z</time>
      </trkpt>
      <trkpt lat="40.0792310" lon="-3.4495510">
        <ele>641.0</ele>
        <time>2019-07-07T14:24:21Z</time>
      </trkpt>
      <trkpt lat="40.0791120" lon="-3.4497350">
        <ele>639.6</ele>
        <time>2019-07-07T14:24:23Z</time>
      </trkpt>
      <trkpt lat="40.0789770" lon="-3.4498940">
        <ele>638.8</ele>
        <time>2019-07-07T14:24:25Z</time>
      </trkpt>
      <trkpt lat="40.0787570" lon="-3.4500980">
        <ele>637.4</ele>
        <time>2019-07-07T14:24:28Z</time>
      </trkpt>
      <trkpt lat="40.0785290" lon="-3.4502700">
        <ele>636.4</ele>
        <time>2019-07-07T14:24:31Z</time>
      </trkpt>
      <trkpt lat="40.0784510" lon="-3.4503200">
        <ele>636.2</ele>
        <time>2019-07-07T14:24:32Z</time>
      </trkpt>
      <trkpt lat="40.0782130" lon="-3.4504400">
        <ele>635.0</ele>
        <time>2019-07-07T14:24:35Z</time>
      </trkpt>
      <trkpt lat="40.0781300" lon="-3.4504650">
        <ele>634.6</ele>
        <time>2019-07-07T14:24:36Z</time>
      </trkpt>
      <trkpt lat="40.0779620" lon="-3.4505050">
        <ele>634.0</ele>
        <time>2019-07-07T14:24:38Z</time>
      </trkpt>
      <trkpt lat="40.0775430" lon="-3.4505490">
        <ele>632.8</ele>
        <time>2019-07-07T14:24:43Z</time>
      </trkpt>
      <trkpt lat="40.0772140" lon="-3.4505420">
        <ele>631.4</ele>
        <time>2019-07-07T14:24:47Z</time>
      </trkpt>
      <trkpt lat="40.0769670" lon="-3.4505380">
        <ele>630.4</ele>
        <time>2019-07-07T14:24:50Z</time>
      </trkpt>
      <trkpt lat="40.0768060" lon="-3.4505400">
        <ele>629.4</ele>
        <time>2019-07-07T14:24:52Z</time>
      </trkpt>
      <trkpt lat="40.0764920" lon="-3.4505570">
        <ele>628.8</ele>
        <time>2019-07-07T14:24:56Z</time>
      </trkpt>
      <trkpt lat="40.0764170" lon="-3.4505760">
        <ele>628.6</ele>
        <time>2019-07-07T14:24:57Z</time>
      </trkpt>
      <trkpt lat="40.0762720" lon="-3.4506340">
        <ele>628.6</ele>
        <time>2019-07-07T14:24:59Z</time>
      </trkpt>
      <trkpt lat="40.0759890" lon="-3.4507520">
        <ele>628.4</ele>
        <time>2019-07-07T14:25:03Z</time>
      </trkpt>
      <trkpt lat="40.0758480" lon="-3.4508100">
        <ele>627.6</ele>
        <time>2019-07-07T14:25:05Z</time>
      </trkpt>
      <trkpt lat="40.0756350" lon="-3.4508990">
        <ele>626.6</ele>
        <time>2019-07-07T14:25:08Z</time>
      </trkpt>
      <trkpt lat="40.0754190" lon="-3.4509890">
        <ele>625.4</ele>
        <time>2019-07-07T14:25:11Z</time>
      </trkpt>
      <trkpt lat="40.0753470" lon="-3.4510200">
        <ele>625.0</ele>
        <time>2019-07-07T14:25:12Z</time>
      </trkpt>
      <trkpt lat="40.0749920" lon="-3.4512010">
        <ele>624.4</ele>
        <time>2019-07-07T14:25:17Z</time>
      </trkpt>
      <trkpt lat="40.0748620" lon="-3.4512950">
        <ele>624.2</ele>
        <time>2019-07-07T14:25:19Z</time>
      </trkpt>
      <trkpt lat="40.0746210" lon="-3.4515000">
        <ele>623.4</ele>
        <time>2019-07-07T14:25:23Z</time>
      </trkpt>
      <trkpt lat="40.0744460" lon="-3.4516610">
        <ele>622.2</ele>
        <time>2019-07-07T14:25:26Z</time>
      </trkpt>
      <trkpt lat="40.0743210" lon="-3.4517710">
        <ele>621.2</ele>
        <time>2019-07-07T14:25:28Z</time>
      </trkpt>
      <trkpt lat="40.0741960" lon="-3.4518880">
        <ele>621.0</ele>
        <time>2019-07-07T14:25:30Z</time>
      </trkpt>
      <trkpt lat="40.0740110" lon="-3.4520670">
        <ele>620.6</ele>
        <time>2019-07-07T14:25:33Z</time>
      </trkpt>
      <trkpt lat="40.0738870" lon="-3.4521850">
        <ele>620.2</ele>
        <time>2019-07-07T14:25:35Z</time>
      </trkpt>
      <trkpt lat="40.0735700" lon="-3.4524800">
        <ele>619.2</ele>
        <time>2019-07-07T14:25:40Z</time>
      </trkpt>
      <trkpt lat="40.0734420" lon="-3.4525960">
        <ele>618.8</ele>
        <time>2019-07-07T14:25:42Z</time>
      </trkpt>
      <trkpt lat="40.0732560" lon="-3.4527670">
        <ele>618.2</ele>
        <time>2019-07-07T14:25:45Z</time>
      </trkpt>
      <trkpt lat="40.0731950" lon="-3.4528230">
        <ele>617.8</ele>
        <time>2019-07-07T14:25:46Z</time>
      </trkpt>
      <trkpt lat="40.0730190" lon="-3.4529910">
        <ele>617.2</ele>
        <time>2019-07-07T14:25:49Z</time>
      </trkpt>
      <trkpt lat="40.0729620" lon="-3.4530470">
        <ele>617.0</ele>
        <time>2019-07-07T14:25:50Z</time>
      </trkpt>
      <trkpt lat="40.0726800" lon="-3.4533070">
        <ele>616.0</ele>
        <time>2019-07-07T14:25:55Z</time>
      </trkpt>
      <trkpt lat="40.0725110" lon="-3.4534640">
        <ele>615.6</ele>
        <time>2019-07-07T14:25:58Z</time>
      </trkpt>
      <trkpt lat="40.0724540" lon="-3.4535190">
        <ele>615.4</ele>
        <time>2019-07-07T14:25:59Z</time>
      </trkpt>
      <trkpt lat="40.0723380" lon="-3.4536280">
        <ele>615.0</ele>
        <time>2019-07-07T14:26:01Z</time>
      </trkpt>
      <trkpt lat="40.0720500" lon="-3.4538920">
        <ele>613.6</ele>
        <time>2019-07-07T14:26:06Z</time>
      </trkpt>
      <trkpt lat="40.0719920" lon="-3.4539430">
        <ele>613.2</ele>
        <time>2019-07-07T14:26:07Z</time>
      </trkpt>
      <trkpt lat="40.0718190" lon="-3.4541020">
        <ele>612.6</ele>
        <time>2019-07-07T14:26:10Z</time>
      </trkpt>
      <trkpt lat="40.0715120" lon="-3.4543410">
        <ele>612.0</ele>
        <time>2019-07-07T14:26:15Z</time>
      </trkpt>
      <trkpt lat="40.0713750" lon="-3.4544090">
        <ele>611.6</ele>
        <time>2019-07-07T14:26:17Z</time>
      </trkpt>
      <trkpt lat="40.0710260" lon="-3.4545820">
        <ele>610.6</ele>
        <time>2019-07-07T14:26:22Z</time>
      </trkpt>
      <trkpt lat="40.0706590" lon="-3.4547480">
        <ele>609.4</ele>
        <time>2019-07-07T14:26:27Z</time>
      </trkpt>
      <trkpt lat="40.0703560" lon="-3.4548860">
        <ele>608.6</ele>
        <time>2019-07-07T14:26:31Z</time>
      </trkpt>
      <trkpt lat="40.0701230" lon="-3.4549980">
        <ele>608.2</ele>
        <time>2019-07-07T14:26:34Z</time>
      </trkpt>
      <trkpt lat="40.0698880" lon="-3.4551020">
        <ele>607.2</ele>
        <time>2019-07-07T14:26:37Z</time>
      </trkpt>
      <trkpt lat="40.0694900" lon="-3.4552840">
        <ele>606.0</ele>
        <time>2019-07-07T14:26:42Z</time>
      </trkpt>
      <trkpt lat="40.0690970" lon="-3.4554550">
        <ele>605.2</ele>
        <time>2019-07-07T14:26:47Z</time>
      </trkpt>
      <trkpt lat="40.0690200" lon="-3.4554900">
        <ele>605.0</ele>
        <time>2019-07-07T14:26:48Z</time>
      </trkpt>
      <trkpt lat="40.0688670" lon="-3.4555610">
        <ele>604.6</ele>
        <time>2019-07-07T14:26:50Z</time>
      </trkpt>
      <trkpt lat="40.0686420" lon="-3.4556690">
        <ele>604.4</ele>
        <time>2019-07-07T14:26:53Z</time>
      </trkpt>
      <trkpt lat="40.0683510" lon="-3.4558230">
        <ele>604.0</ele>
        <time>2019-07-07T14:26:57Z</time>
      </trkpt>
      <trkpt lat="40.0679440" lon="-3.4560680">
        <ele>602.8</ele>
        <time>2019-07-07T14:27:03Z</time>
      </trkpt>
      <trkpt lat="40.0674770" lon="-3.4563480">
        <ele>602.0</ele>
        <time>2019-07-07T14:27:10Z</time>
      </trkpt>
      <trkpt lat="40.0671500" lon="-3.4565510">
        <ele>600.8</ele>
        <time>2019-07-07T14:27:15Z</time>
      </trkpt>
      <trkpt lat="40.0668980" lon="-3.4567430">
        <ele>600.4</ele>
        <time>2019-07-07T14:27:19Z</time>
      </trkpt>
      <trkpt lat="40.0666730" lon="-3.4569990">
        <ele>599.8</ele>
        <time>2019-07-07T14:27:23Z</time>
      </trkpt>
      <trkpt lat="40.0665190" lon="-3.4572200">
        <ele>599.4</ele>
        <time>2019-07-07T14:27:26Z</time>
      </trkpt>
      <trkpt lat="40.0662950" lon="-3.4574850">
        <ele>598.8</ele>
        <time>2019-07-07T14:27:30Z</time>
      </trkpt>
      <trkpt lat="40.0661080" lon="-3.4576590">
        <ele>598.4</ele>
        <time>2019-07-07T14:27:33Z</time>
      </trkpt>
      <trkpt lat="40.0658350" lon="-3.4578340">
        <ele>598.0</ele>
        <time>2019-07-07T14:27:37Z</time>
      </trkpt>
      <trkpt lat="40.0656300" lon="-3.4579510">
        <ele>597.6</ele>
        <time>2019-07-07T14:27:40Z</time>
      </trkpt>
      <trkpt lat="40.0651810" lon="-3.4582320">
        <ele>597.4</ele>
        <time>2019-07-07T14:27:47Z</time>
      </trkpt>
      <trkpt lat="40.0649220" lon="-3.4585030">
        <ele>597.0</ele>
        <time>2019-07-07T14:27:52Z</time>
      </trkpt>
      <trkpt lat="40.0647600" lon="-3.4587740">
        <ele>595.6</ele>
        <time>2019-07-07T14:27:56Z</time>
      </trkpt>
      <trkpt lat="40.0646390" lon="-3.4589850">
        <ele>595.0</ele>
        <time>2019-07-07T14:27:59Z</time>
      </trkpt>
      <trkpt lat="40.0645580" lon="-3.4591290">
        <ele>594.6</ele>
        <time>2019-07-07T14:28:01Z</time>
      </trkpt>
      <trkpt lat="40.0642320" lon="-3.4597280">
        <ele>594.2</ele>
        <time>2019-07-07T14:28:09Z</time>
      </trkpt>
      <trkpt lat="40.0641500" lon="-3.4598790">
        <ele>593.8</ele>
        <time>2019-07-07T14:28:11Z</time>
      </trkpt>
      <trkpt lat="40.0638620" lon="-3.4604020">
        <ele>592.8</ele>
        <time>2019-07-07T14:28:18Z</time>
      </trkpt>
      <trkpt lat="40.0637790" lon="-3.4605500">
        <ele>592.6</ele>
        <time>2019-07-07T14:28:20Z</time>
      </trkpt>
      <trkpt lat="40.0634530" lon="-3.4611210">
        <ele>592.8</ele>
        <time>2019-07-07T14:28:28Z</time>
      </trkpt>
      <trkpt lat="40.0631190" lon="-3.4616740">
        <ele>592.2</ele>
        <time>2019-07-07T14:28:36Z</time>
      </trkpt>
      <trkpt lat="40.0627660" lon="-3.4621920">
        <ele>592.4</ele>
        <time>2019-07-07T14:28:44Z</time>
      </trkpt>
      <trkpt lat="40.0624620" lon="-3.4625970">
        <ele>592.0</ele>
        <time>2019-07-07T14:28:51Z</time>
      </trkpt>
      <trkpt lat="40.0624190" lon="-3.4626550">
        <ele>591.8</ele>
        <time>2019-07-07T14:28:52Z</time>
      </trkpt>
      <trkpt lat="40.0620430" lon="-3.4631580">
        <ele>591.0</ele>
        <time>2019-07-07T14:29:01Z</time>
      </trkpt>
      <trkpt lat="40.0619580" lon="-3.4632680">
        <ele>590.8</ele>
        <time>2019-07-07T14:29:03Z</time>
      </trkpt>
      <trkpt lat="40.0616240" lon="-3.4637070">
        <ele>590.8</ele>
        <time>2019-07-07T14:29:11Z</time>
      </trkpt>
      <trkpt lat="40.0612470" lon="-3.4641920">
        <ele>590.8</ele>
        <time>2019-07-07T14:29:20Z</time>
      </trkpt>
      <trkpt lat="40.0609300" lon="-3.4646460">
        <ele>590.4</ele>
        <time>2019-07-07T14:29:28Z</time>
      </trkpt>
      <trkpt lat="40.0607240" lon="-3.4650410">
        <ele>590.2</ele>
        <time>2019-07-07T14:29:34Z</time>
      </trkpt>
      <trkpt lat="40.0606970" lon="-3.4651130">
        <ele>590.0</ele>
        <time>2019-07-07T14:29:35Z</time>
      </trkpt>
      <trkpt lat="40.0605700" lon="-3.4656590">
        <ele>590.0</ele>
        <time>2019-07-07T14:29:42Z</time>
      </trkpt>
      <trkpt lat="40.0604980" lon="-3.4662100">
        <ele>590.2</ele>
        <time>2019-07-07T14:29:49Z</time>
      </trkpt>
      <trkpt lat="40.0604200" lon="-3.4668430">
        <ele>589.8</ele>
        <time>2019-07-07T14:29:57Z</time>
      </trkpt>
      <trkpt lat="40.0603960" lon="-3.4671630">
        <ele>589.4</ele>
        <time>2019-07-07T14:30:01Z</time>
      </trkpt>
      <trkpt lat="40.0604050" lon="-3.4674050">
        <ele>589.0</ele>
        <time>2019-07-07T14:30:04Z</time>
      </trkpt>
      <trkpt lat="40.0604870" lon="-3.4679550">
        <ele>589.2</ele>
        <time>2019-07-07T14:30:11Z</time>
      </trkpt>
      <trkpt lat="40.0606240" lon="-3.4685660">
        <ele>588.8</ele>
        <time>2019-07-07T14:30:19Z</time>
      </trkpt>
      <trkpt lat="40.0607820" lon="-3.4692660">
        <ele>588.8</ele>
        <time>2019-07-07T14:30:28Z</time>
      </trkpt>
      <trkpt lat="40.0608200" lon="-3.4694230">
        <ele>588.4</ele>
        <time>2019-07-07T14:30:30Z</time>
      </trkpt>
      <trkpt lat="40.0609460" lon="-3.4699930">
        <ele>587.8</ele>
        <time>2019-07-07T14:30:37Z</time>
      </trkpt>
      <trkpt lat="40.0610610" lon="-3.4705070">
        <ele>587.6</ele>
        <time>2019-07-07T14:30:43Z</time>
      </trkpt>
      <trkpt lat="40.0611060" lon="-3.4706750">
        <ele>587.6</ele>
        <time>2019-07-07T14:30:45Z</time>
      </trkpt>
      <trkpt lat="40.0612310" lon="-3.4712530">
        <ele>587.4</ele>
        <time>2019-07-07T14:30:52Z</time>
      </trkpt>
      <trkpt lat="40.0613700" lon="-3.4718880">
        <ele>587.2</ele>
        <time>2019-07-07T14:31:00Z</time>
      </trkpt>
      <trkpt lat="40.0615190" lon="-3.4725350">
        <ele>587.0</ele>
        <time>2019-07-07T14:31:08Z</time>
      </trkpt>
      <trkpt lat="40.0616750" lon="-3.4732600">
        <ele>586.8</ele>
        <time>2019-07-07T14:31:17Z</time>
      </trkpt>
      <trkpt lat="40.0617250" lon="-3.4734910">
        <ele>586.8</ele>
        <time>2019-07-07T14:31:20Z</time>
      </trkpt>
      <trkpt lat="40.0618650" lon="-3.4740910">
        <ele>586.0</ele>
        <time>2019-07-07T14:31:28Z</time>
      </trkpt>
      <trkpt lat="40.0618820" lon="-3.4741630">
        <ele>585.8</ele>
        <time>2019-07-07T14:31:29Z</time>
      </trkpt>
      <trkpt lat="40.0619460" lon="-3.4744550">
        <ele>585.4</ele>
        <time>2019-07-07T14:31:33Z</time>
      </trkpt>
      <trkpt lat="40.0620370" lon="-3.4748850">
        <ele>585.2</ele>
        <time>2019-07-07T14:31:39Z</time>
      </trkpt>
      <trkpt lat="40.0621830" lon="-3.4755370">
        <ele>585.2</ele>
        <time>2019-07-07T14:31:48Z</time>
      </trkpt>
      <trkpt lat="40.0623280" lon="-3.4762050">
        <ele>585.4</ele>
        <time>2019-07-07T14:31:57Z</time>
      </trkpt>
      <trkpt lat="40.0624400" lon="-3.4766770">
        <ele>585.0</ele>
        <time>2019-07-07T14:32:03Z</time>
      </trkpt>
      <trkpt lat="40.0624560" lon="-3.4767580">
        <ele>585.0</ele>
        <time>2019-07-07T14:32:04Z</time>
      </trkpt>
      <trkpt lat="40.0624940" lon="-3.4769190">
        <ele>584.8</ele>
        <time>2019-07-07T14:32:06Z</time>
      </trkpt>
      <trkpt lat="40.0626360" lon="-3.4775490">
        <ele>585.2</ele>
        <time>2019-07-07T14:32:14Z</time>
      </trkpt>
      <trkpt lat="40.0627060" lon="-3.4778530">
        <ele>584.8</ele>
        <time>2019-07-07T14:32:18Z</time>
      </trkpt>
      <trkpt lat="40.0627900" lon="-3.4782320">
        <ele>584.4</ele>
        <time>2019-07-07T14:32:23Z</time>
      </trkpt>
      <trkpt lat="40.0629340" lon="-3.4789010">
        <ele>584.6</ele>
        <time>2019-07-07T14:32:32Z</time>
      </trkpt>
      <trkpt lat="40.0630740" lon="-3.4795210">
        <ele>584.4</ele>
        <time>2019-07-07T14:32:40Z</time>
      </trkpt>
      <trkpt lat="40.0630920" lon="-3.4796000">
        <ele>584.4</ele>
        <time>2019-07-07T14:32:41Z</time>
      </trkpt>
      <trkpt lat="40.0631630" lon="-3.4799210">
        <ele>584.4</ele>
        <time>2019-07-07T14:32:45Z</time>
      </trkpt>
      <trkpt lat="40.0632740" lon="-3.4804090">
        <ele>584.4</ele>
        <time>2019-07-07T14:32:51Z</time>
      </trkpt>
      <trkpt lat="40.0634310" lon="-3.4811150">
        <ele>584.0</ele>
        <time>2019-07-07T14:33:00Z</time>
      </trkpt>
      <trkpt lat="40.0634630" lon="-3.4812730">
        <ele>583.8</ele>
        <time>2019-07-07T14:33:02Z</time>
      </trkpt>
      <trkpt lat="40.0636130" lon="-3.4819200">
        <ele>583.4</ele>
        <time>2019-07-07T14:33:10Z</time>
      </trkpt>
      <trkpt lat="40.0636470" lon="-3.4820850">
        <ele>583.6</ele>
        <time>2019-07-07T14:33:12Z</time>
      </trkpt>
      <trkpt lat="40.0637800" lon="-3.4826650">
        <ele>583.4</ele>
        <time>2019-07-07T14:33:19Z</time>
      </trkpt>
      <trkpt lat="40.0639310" lon="-3.4833470">
        <ele>583.4</ele>
        <time>2019-07-07T14:33:27Z</time>
      </trkpt>
      <trkpt lat="40.0639710" lon="-3.4835190">
        <ele>583.4</ele>
        <time>2019-07-07T14:33:29Z</time>
      </trkpt>
      <trkpt lat="40.0641300" lon="-3.4842770">
        <ele>583.6</ele>
        <time>2019-07-07T14:33:38Z</time>
      </trkpt>
      <trkpt lat="40.0641880" lon="-3.4847880">
        <ele>583.0</ele>
        <time>2019-07-07T14:33:44Z</time>
      </trkpt>
      <trkpt lat="40.0641340" lon="-3.4853790">
        <ele>582.8</ele>
        <time>2019-07-07T14:33:51Z</time>
      </trkpt>
      <trkpt lat="40.0641010" lon="-3.4855410">
        <ele>582.6</ele>
        <time>2019-07-07T14:33:53Z</time>
      </trkpt>
      <trkpt lat="40.0639750" lon="-3.4861230">
        <ele>581.6</ele>
        <time>2019-07-07T14:34:00Z</time>
      </trkpt>
      <trkpt lat="40.0638250" lon="-3.4867420">
        <ele>581.2</ele>
        <time>2019-07-07T14:34:07Z</time>
      </trkpt>
      <trkpt lat="40.0638050" lon="-3.4868330">
        <ele>581.0</ele>
        <time>2019-07-07T14:34:08Z</time>
      </trkpt>
      <trkpt lat="40.0637830" lon="-3.4869230">
        <ele>580.8</ele>
        <time>2019-07-07T14:34:09Z</time>
      </trkpt>
      <trkpt lat="40.0635980" lon="-3.4876630">
        <ele>580.4</ele>
        <time>2019-07-07T14:34:17Z</time>
      </trkpt>
      <trkpt lat="40.0635750" lon="-3.4877570">
        <ele>580.6</ele>
        <time>2019-07-07T14:34:18Z</time>
      </trkpt>
      <trkpt lat="40.0633890" lon="-3.4885160">
        <ele>580.0</ele>
        <time>2019-07-07T14:34:26Z</time>
      </trkpt>
      <trkpt lat="40.0633650" lon="-3.4886120">
        <ele>579.8</ele>
        <time>2019-07-07T14:34:27Z</time>
      </trkpt>
      <trkpt lat="40.0631820" lon="-3.4893680">
        <ele>580.0</ele>
        <time>2019-07-07T14:34:35Z</time>
      </trkpt>
      <trkpt lat="40.0630020" lon="-3.4901160">
        <ele>580.0</ele>
        <time>2019-07-07T14:34:43Z</time>
      </trkpt>
      <trkpt lat="40.0629780" lon="-3.4902090">
        <ele>580.0</ele>
        <time>2019-07-07T14:34:44Z</time>
      </trkpt>
      <trkpt lat="40.0628250" lon="-3.4908600">
        <ele>579.8</ele>
        <time>2019-07-07T14:34:51Z</time>
      </trkpt>
      <trkpt lat="40.0627780" lon="-3.4910440">
        <ele>579.6</ele>
        <time>2019-07-07T14:34:53Z</time>
      </trkpt>
      <trkpt lat="40.0626180" lon="-3.4917030">
        <ele>579.2</ele>
        <time>2019-07-07T14:35:00Z</time>
      </trkpt>
      <trkpt lat="40.0624520" lon="-3.4923770">
        <ele>579.4</ele>
        <time>2019-07-07T14:35:07Z</time>
      </trkpt>
      <trkpt lat="40.0623390" lon="-3.4928490">
        <ele>579.4</ele>
        <time>2019-07-07T14:35:12Z</time>
      </trkpt>
      <trkpt lat="40.0622080" lon="-3.4934080">
        <ele>579.0</ele>
        <time>2019-07-07T14:35:18Z</time>
      </trkpt>
      <trkpt lat="40.0620740" lon="-3.4939550">
        <ele>578.6</ele>
        <time>2019-07-07T14:35:24Z</time>
      </trkpt>
      <trkpt lat="40.0619230" lon="-3.4945810">
        <ele>579.0</ele>
        <time>2019-07-07T14:35:31Z</time>
      </trkpt>
      <trkpt lat="40.0618570" lon="-3.4948390">
        <ele>579.0</ele>
        <time>2019-07-07T14:35:34Z</time>
      </trkpt>
      <trkpt lat="40.0616880" lon="-3.4955240">
        <ele>578.6</ele>
        <time>2019-07-07T14:35:42Z</time>
      </trkpt>
      <trkpt lat="40.0616280" lon="-3.4957770">
        <ele>578.4</ele>
        <time>2019-07-07T14:35:45Z</time>
      </trkpt>
      <trkpt lat="40.0614610" lon="-3.4964610">
        <ele>578.4</ele>
        <time>2019-07-07T14:35:53Z</time>
      </trkpt>
      <trkpt lat="40.0614090" lon="-3.4967210">
        <ele>578.2</ele>
        <time>2019-07-07T14:35:56Z</time>
      </trkpt>
      <trkpt lat="40.0612350" lon="-3.4974390">
        <ele>578.2</ele>
        <time>2019-07-07T14:36:04Z</time>
      </trkpt>
      <trkpt lat="40.0610960" lon="-3.4980080">
        <ele>577.8</ele>
        <time>2019-07-07T14:36:10Z</time>
      </trkpt>
      <trkpt lat="40.0609840" lon="-3.4983840">
        <ele>578.0</ele>
        <time>2019-07-07T14:36:14Z</time>
      </trkpt>
      <trkpt lat="40.0607430" lon="-3.4989000">
        <ele>578.2</ele>
        <time>2019-07-07T14:36:20Z</time>
      </trkpt>
      <trkpt lat="40.0603640" lon="-3.4994100">
        <ele>577.8</ele>
        <time>2019-07-07T14:36:27Z</time>
      </trkpt>
      <trkpt lat="40.0599200" lon="-3.4999390">
        <ele>577.8</ele>
        <time>2019-07-07T14:36:35Z</time>
      </trkpt>
      <trkpt lat="40.0598650" lon="-3.5000030">
        <ele>578.0</ele>
        <time>2019-07-07T14:36:36Z</time>
      </trkpt>
      <trkpt lat="40.0596440" lon="-3.5002660">
        <ele>577.6</ele>
        <time>2019-07-07T14:36:40Z</time>
      </trkpt>
      <trkpt lat="40.0592510" lon="-3.5007510">
        <ele>576.8</ele>
        <time>2019-07-07T14:36:47Z</time>
      </trkpt>
      <trkpt lat="40.0591940" lon="-3.5008200">
        <ele>576.6</ele>
        <time>2019-07-07T14:36:48Z</time>
      </trkpt>
      <trkpt lat="40.0587950" lon="-3.5013110">
        <ele>575.8</ele>
        <time>2019-07-07T14:36:55Z</time>
      </trkpt>
      <trkpt lat="40.0586880" lon="-3.5014630">
        <ele>575.4</ele>
        <time>2019-07-07T14:36:57Z</time>
      </trkpt>
      <trkpt lat="40.0584530" lon="-3.5018900">
        <ele>574.4</ele>
        <time>2019-07-07T14:37:02Z</time>
      </trkpt>
      <trkpt lat="40.0584140" lon="-3.5019830">
        <ele>574.4</ele>
        <time>2019-07-07T14:37:03Z</time>
      </trkpt>
      <trkpt lat="40.0582420" lon="-3.5025610">
        <ele>574.2</ele>
        <time>2019-07-07T14:37:09Z</time>
      </trkpt>
      <trkpt lat="40.0580670" lon="-3.5033260">
        <ele>573.8</ele>
        <time>2019-07-07T14:37:17Z</time>
      </trkpt>
      <trkpt lat="40.0580470" lon="-3.5034210">
        <ele>573.8</ele>
        <time>2019-07-07T14:37:18Z</time>
      </trkpt>
      <trkpt lat="40.0579400" lon="-3.5038990">
        <ele>573.6</ele>
        <time>2019-07-07T14:37:23Z</time>
      </trkpt>
      <trkpt lat="40.0578600" lon="-3.5042750">
        <ele>573.6</ele>
        <time>2019-07-07T14:37:27Z</time>
      </trkpt>
      <trkpt lat="40.0576970" lon="-3.5050050">
        <ele>573.4</ele>
        <time>2019-07-07T14:37:35Z</time>
      </trkpt>
      <trkpt lat="40.0576770" lon="-3.5050960">
        <ele>573.4</ele>
        <time>2019-07-07T14:37:36Z</time>
      </trkpt>
      <trkpt lat="40.0575130" lon="-3.5058090">
        <ele>573.6</ele>
        <time>2019-07-07T14:37:44Z</time>
      </trkpt>
      <trkpt lat="40.0574760" lon="-3.5059820">
        <ele>573.6</ele>
        <time>2019-07-07T14:37:46Z</time>
      </trkpt>
      <trkpt lat="40.0573210" lon="-3.5066590">
        <ele>573.4</ele>
        <time>2019-07-07T14:37:54Z</time>
      </trkpt>
      <trkpt lat="40.0572630" lon="-3.5069100">
        <ele>573.2</ele>
        <time>2019-07-07T14:37:57Z</time>
      </trkpt>
      <trkpt lat="40.0572180" lon="-3.5071680">
        <ele>573.0</ele>
        <time>2019-07-07T14:38:00Z</time>
      </trkpt>
      <trkpt lat="40.0571720" lon="-3.5076180">
        <ele>573.0</ele>
        <time>2019-07-07T14:38:05Z</time>
      </trkpt>
      <trkpt lat="40.0571900" lon="-3.5082650">
        <ele>572.2</ele>
        <time>2019-07-07T14:38:12Z</time>
      </trkpt>
      <trkpt lat="40.0572130" lon="-3.5085480">
        <ele>572.0</ele>
        <time>2019-07-07T14:38:15Z</time>
      </trkpt>
      <trkpt lat="40.0572730" lon="-3.5092070">
        <ele>571.2</ele>
        <time>2019-07-07T14:38:22Z</time>
      </trkpt>
      <trkpt lat="40.0572860" lon="-3.5093930">
        <ele>571.0</ele>
        <time>2019-07-07T14:38:24Z</time>
      </trkpt>
      <trkpt lat="40.0573170" lon="-3.5098280">
        <ele>570.2</ele>
        <time>2019-07-07T14:38:29Z</time>
      </trkpt>
      <trkpt lat="40.0573250" lon="-3.5099130">
        <ele>570.2</ele>
        <time>2019-07-07T14:38:30Z</time>
      </trkpt>
      <trkpt lat="40.0573830" lon="-3.5106650">
        <ele>569.8</ele>
        <time>2019-07-07T14:38:39Z</time>
      </trkpt>
      <trkpt lat="40.0573890" lon="-3.5107460">
        <ele>569.8</ele>
        <time>2019-07-07T14:38:40Z</time>
      </trkpt>
      <trkpt lat="40.0574120" lon="-3.5109820">
        <ele>570.0</ele>
        <time>2019-07-07T14:38:43Z</time>
      </trkpt>
      <trkpt lat="40.0574480" lon="-3.5114520">
        <ele>570.2</ele>
        <time>2019-07-07T14:38:49Z</time>
      </trkpt>
      <trkpt lat="40.0575000" lon="-3.5121610">
        <ele>570.2</ele>
        <time>2019-07-07T14:38:58Z</time>
      </trkpt>
      <trkpt lat="40.0575160" lon="-3.5123210">
        <ele>570.4</ele>
        <time>2019-07-07T14:39:00Z</time>
      </trkpt>
      <trkpt lat="40.0575600" lon="-3.5128480">
        <ele>570.2</ele>
        <time>2019-07-07T14:39:07Z</time>
      </trkpt>
      <trkpt lat="40.0575820" lon="-3.5132020">
        <ele>570.2</ele>
        <time>2019-07-07T14:39:12Z</time>
      </trkpt>
      <trkpt lat="40.0575950" lon="-3.5134090">
        <ele>570.4</ele>
        <time>2019-07-07T14:39:15Z</time>
      </trkpt>
      <trkpt lat="40.0576390" lon="-3.5139680">
        <ele>570.0</ele>
        <time>2019-07-07T14:39:23Z</time>
      </trkpt>
      <trkpt lat="40.0576540" lon="-3.5141840">
        <ele>570.2</ele>
        <time>2019-07-07T14:39:26Z</time>
      </trkpt>
      <trkpt lat="40.0576790" lon="-3.5143230">
        <ele>570.4</ele>
        <time>2019-07-07T14:39:28Z</time>
      </trkpt>
      <trkpt lat="40.0577820" lon="-3.5148220">
        <ele>570.2</ele>
        <time>2019-07-07T14:39:35Z</time>
      </trkpt>
      <trkpt lat="40.0577980" lon="-3.5148940">
        <ele>570.6</ele>
        <time>2019-07-07T14:39:36Z</time>
      </trkpt>
      <trkpt lat="40.0579280" lon="-3.5154900">
        <ele>570.2</ele>
        <time>2019-07-07T14:39:44Z</time>
      </trkpt>
      <trkpt lat="40.0580700" lon="-3.5161810">
        <ele>570.2</ele>
        <time>2019-07-07T14:39:53Z</time>
      </trkpt>
      <trkpt lat="40.0581450" lon="-3.5165790">
        <ele>569.8</ele>
        <time>2019-07-07T14:39:58Z</time>
      </trkpt>
      <trkpt lat="40.0582030" lon="-3.5168090">
        <ele>569.8</ele>
        <time>2019-07-07T14:40:01Z</time>
      </trkpt>
      <trkpt lat="40.0583150" lon="-3.5172820">
        <ele>569.4</ele>
        <time>2019-07-07T14:40:07Z</time>
      </trkpt>
      <trkpt lat="40.0583670" lon="-3.5175290">
        <ele>569.6</ele>
        <time>2019-07-07T14:40:10Z</time>
      </trkpt>
      <trkpt lat="40.0585250" lon="-3.5182890">
        <ele>569.6</ele>
        <time>2019-07-07T14:40:19Z</time>
      </trkpt>
      <trkpt lat="40.0586910" lon="-3.5190240">
        <ele>569.4</ele>
        <time>2019-07-07T14:40:28Z</time>
      </trkpt>
      <trkpt lat="40.0587230" lon="-3.5191850">
        <ele>569.4</ele>
        <time>2019-07-07T14:40:30Z</time>
      </trkpt>
      <trkpt lat="40.0588790" lon="-3.5199150">
        <ele>569.6</ele>
        <time>2019-07-07T14:40:39Z</time>
      </trkpt>
      <trkpt lat="40.0588960" lon="-3.5199930">
        <ele>569.6</ele>
        <time>2019-07-07T14:40:40Z</time>
      </trkpt>
      <trkpt lat="40.0590240" lon="-3.5206110">
        <ele>569.4</ele>
        <time>2019-07-07T14:40:48Z</time>
      </trkpt>
      <trkpt lat="40.0591670" lon="-3.5213120">
        <ele>569.4</ele>
        <time>2019-07-07T14:40:57Z</time>
      </trkpt>
      <trkpt lat="40.0591850" lon="-3.5213900">
        <ele>569.4</ele>
        <time>2019-07-07T14:40:58Z</time>
      </trkpt>
      <trkpt lat="40.0593350" lon="-3.5221110">
        <ele>569.2</ele>
        <time>2019-07-07T14:41:07Z</time>
      </trkpt>
      <trkpt lat="40.0593650" lon="-3.5222760">
        <ele>569.0</ele>
        <time>2019-07-07T14:41:09Z</time>
      </trkpt>
      <trkpt lat="40.0594320" lon="-3.5228690">
        <ele>569.0</ele>
        <time>2019-07-07T14:41:16Z</time>
      </trkpt>
      <trkpt lat="40.0594250" lon="-3.5230440">
        <ele>569.0</ele>
        <time>2019-07-07T14:41:18Z</time>
      </trkpt>
      <trkpt lat="40.0593820" lon="-3.5233010">
        <ele>569.0</ele>
        <time>2019-07-07T14:41:21Z</time>
      </trkpt>
      <trkpt lat="40.0592060" lon="-3.5238760">
        <ele>569.0</ele>
        <time>2019-07-07T14:41:28Z</time>
      </trkpt>
      <trkpt lat="40.0590630" lon="-3.5242710">
        <ele>568.6</ele>
        <time>2019-07-07T14:41:33Z</time>
      </trkpt>
      <trkpt lat="40.0589420" lon="-3.5245730">
        <ele>568.2</ele>
        <time>2019-07-07T14:41:37Z</time>
      </trkpt>
      <trkpt lat="40.0589120" lon="-3.5246470">
        <ele>568.0</ele>
        <time>2019-07-07T14:41:38Z</time>
      </trkpt>
      <trkpt lat="40.0586520" lon="-3.5253000">
        <ele>568.4</ele>
        <time>2019-07-07T14:41:47Z</time>
      </trkpt>
      <trkpt lat="40.0585000" lon="-3.5257260">
        <ele>568.0</ele>
        <time>2019-07-07T14:41:53Z</time>
      </trkpt>
      <trkpt lat="40.0583170" lon="-3.5263970">
        <ele>568.4</ele>
        <time>2019-07-07T14:42:02Z</time>
      </trkpt>
      <trkpt lat="40.0581940" lon="-3.5271170">
        <ele>568.2</ele>
        <time>2019-07-07T14:42:11Z</time>
      </trkpt>
      <trkpt lat="40.0581650" lon="-3.5272790">
        <ele>568.4</ele>
        <time>2019-07-07T14:42:13Z</time>
      </trkpt>
      <trkpt lat="40.0580810" lon="-3.5278260">
        <ele>568.0</ele>
        <time>2019-07-07T14:42:20Z</time>
      </trkpt>
      <trkpt lat="40.0580610" lon="-3.5280320">
        <ele>567.6</ele>
        <time>2019-07-07T14:42:23Z</time>
      </trkpt>
      <trkpt lat="40.0580550" lon="-3.5282900">
        <ele>567.0</ele>
        <time>2019-07-07T14:42:27Z</time>
      </trkpt>
      <trkpt lat="40.0580380" lon="-3.5284100">
        <ele>566.8</ele>
        <time>2019-07-07T14:42:29Z</time>
      </trkpt>
      <trkpt lat="40.0579920" lon="-3.5285000">
        <ele>566.6</ele>
        <time>2019-07-07T14:42:31Z</time>
      </trkpt>
      <trkpt lat="40.0579140" lon="-3.5285490">
        <ele>566.6</ele>
        <time>2019-07-07T14:42:33Z</time>
      </trkpt>
      <trkpt lat="40.0578670" lon="-3.5285670">
        <ele>566.4</ele>
        <time>2019-07-07T14:42:34Z</time>
      </trkpt>
      <trkpt lat="40.0578160" lon="-3.5285780">
        <ele>566.4</ele>
        <time>2019-07-07T14:42:35Z</time>
      </trkpt>
      <trkpt lat="40.0575820" lon="-3.5285380">
        <ele>566.0</ele>
        <time>2019-07-07T14:42:39Z</time>
      </trkpt>
      <trkpt lat="40.0572800" lon="-3.5284200">
        <ele>565.6</ele>
        <time>2019-07-07T14:42:44Z</time>
      </trkpt>
      <trkpt lat="40.0571450" lon="-3.5283760">
        <ele>565.4</ele>
        <time>2019-07-07T14:42:46Z</time>
      </trkpt>
      <trkpt lat="40.0567940" lon="-3.5283090">
        <ele>564.4</ele>
        <time>2019-07-07T14:42:51Z</time>
      </trkpt>
      <trkpt lat="40.0565860" lon="-3.5282830">
        <ele>564.2</ele>
        <time>2019-07-07T14:42:54Z</time>
      </trkpt>
      <trkpt lat="40.0560270" lon="-3.5282590">
        <ele>563.4</ele>
        <time>2019-07-07T14:43:02Z</time>
      </trkpt>
      <trkpt lat="40.0558870" lon="-3.5282590">
        <ele>563.0</ele>
        <time>2019-07-07T14:43:04Z</time>
      </trkpt>
      <trkpt lat="40.0553380" lon="-3.5282590">
        <ele>562.8</ele>
        <time>2019-07-07T14:43:12Z</time>
      </trkpt>
      <trkpt lat="40.0551330" lon="-3.5282650">
        <ele>562.8</ele>
        <time>2019-07-07T14:43:15Z</time>
      </trkpt>
      <trkpt lat="40.0549940" lon="-3.5282630">
        <ele>562.4</ele>
        <time>2019-07-07T14:43:17Z</time>
      </trkpt>
      <trkpt lat="40.0547150" lon="-3.5282630">
        <ele>562.0</ele>
        <time>2019-07-07T14:43:21Z</time>
      </trkpt>
      <trkpt lat="40.0544380" lon="-3.5282610">
        <ele>561.8</ele>
        <time>2019-07-07T14:43:25Z</time>
      </trkpt>
      <trkpt lat="40.0538760" lon="-3.5282630">
        <ele>562.0</ele>
        <time>2019-07-07T14:43:33Z</time>
      </trkpt>
      <trkpt lat="40.0537360" lon="-3.5282630">
        <ele>561.8</ele>
        <time>2019-07-07T14:43:35Z</time>
      </trkpt>
      <trkpt lat="40.0535960" lon="-3.5282620">
        <ele>561.6</ele>
        <time>2019-07-07T14:43:37Z</time>
      </trkpt>
      <trkpt lat="40.0532500" lon="-3.5283000">
        <ele>561.4</ele>
        <time>2019-07-07T14:43:42Z</time>
      </trkpt>
      <trkpt lat="40.0531850" lon="-3.5283320">
        <ele>561.2</ele>
        <time>2019-07-07T14:43:43Z</time>
      </trkpt>
      <trkpt lat="40.0529810" lon="-3.5285580">
        <ele>560.8</ele>
        <time>2019-07-07T14:43:47Z</time>
      </trkpt>
      <trkpt lat="40.0529010" lon="-3.5288690">
        <ele>561.0</ele>
        <time>2019-07-07T14:43:51Z</time>
      </trkpt>
      <trkpt lat="40.0528110" lon="-3.5294430">
        <ele>561.2</ele>
        <time>2019-07-07T14:43:58Z</time>
      </trkpt>
      <trkpt lat="40.0527520" lon="-3.5297720">
        <ele>561.4</ele>
        <time>2019-07-07T14:44:02Z</time>
      </trkpt>
      <trkpt lat="40.0526350" lon="-3.5305060">
        <ele>561.4</ele>
        <time>2019-07-07T14:44:11Z</time>
      </trkpt>
      <trkpt lat="40.0525130" lon="-3.5312200">
        <ele>561.6</ele>
        <time>2019-07-07T14:44:20Z</time>
      </trkpt>
      <trkpt lat="40.0524130" lon="-3.5318560">
        <ele>561.2</ele>
        <time>2019-07-07T14:44:28Z</time>
      </trkpt>
      <trkpt lat="40.0522940" lon="-3.5325050">
        <ele>561.0</ele>
        <time>2019-07-07T14:44:36Z</time>
      </trkpt>
      <trkpt lat="40.0521770" lon="-3.5331660">
        <ele>561.2</ele>
        <time>2019-07-07T14:44:44Z</time>
      </trkpt>
      <trkpt lat="40.0520770" lon="-3.5337660">
        <ele>561.6</ele>
        <time>2019-07-07T14:44:51Z</time>
      </trkpt>
      <trkpt lat="40.0520680" lon="-3.5342900">
        <ele>561.4</ele>
        <time>2019-07-07T14:44:57Z</time>
      </trkpt>
      <trkpt lat="40.0520980" lon="-3.5350720">
        <ele>561.2</ele>
        <time>2019-07-07T14:45:06Z</time>
      </trkpt>
      <trkpt lat="40.0521030" lon="-3.5351570">
        <ele>561.0</ele>
        <time>2019-07-07T14:45:07Z</time>
      </trkpt>
      <trkpt lat="40.0521220" lon="-3.5357510">
        <ele>561.0</ele>
        <time>2019-07-07T14:45:14Z</time>
      </trkpt>
      <trkpt lat="40.0521460" lon="-3.5364360">
        <ele>560.6</ele>
        <time>2019-07-07T14:45:22Z</time>
      </trkpt>
      <trkpt lat="40.0521560" lon="-3.5370710">
        <ele>560.4</ele>
        <time>2019-07-07T14:45:29Z</time>
      </trkpt>
      <trkpt lat="40.0521720" lon="-3.5377130">
        <ele>560.6</ele>
        <time>2019-07-07T14:45:36Z</time>
      </trkpt>
      <trkpt lat="40.0521890" lon="-3.5383830">
        <ele>560.4</ele>
        <time>2019-07-07T14:45:43Z</time>
      </trkpt>
      <trkpt lat="40.0521900" lon="-3.5384790">
        <ele>560.4</ele>
        <time>2019-07-07T14:45:44Z</time>
      </trkpt>
      <trkpt lat="40.0522190" lon="-3.5392400">
        <ele>560.4</ele>
        <time>2019-07-07T14:45:52Z</time>
      </trkpt>
      <trkpt lat="40.0522220" lon="-3.5398820">
        <ele>560.2</ele>
        <time>2019-07-07T14:45:59Z</time>
      </trkpt>
      <trkpt lat="40.0522180" lon="-3.5399700">
        <ele>560.0</ele>
        <time>2019-07-07T14:46:00Z</time>
      </trkpt>
      <trkpt lat="40.0521400" lon="-3.5403960">
        <ele>560.2</ele>
        <time>2019-07-07T14:46:05Z</time>
      </trkpt>
      <trkpt lat="40.0519580" lon="-3.5410330">
        <ele>560.2</ele>
        <time>2019-07-07T14:46:13Z</time>
      </trkpt>
      <trkpt lat="40.0517790" lon="-3.5416920">
        <ele>560.2</ele>
        <time>2019-07-07T14:46:21Z</time>
      </trkpt>
      <trkpt lat="40.0515840" lon="-3.5423680">
        <ele>560.6</ele>
        <time>2019-07-07T14:46:29Z</time>
      </trkpt>
      <trkpt lat="40.0513930" lon="-3.5430600">
        <ele>560.6</ele>
        <time>2019-07-07T14:46:37Z</time>
      </trkpt>
      <trkpt lat="40.0513410" lon="-3.5432350">
        <ele>560.6</ele>
        <time>2019-07-07T14:46:39Z</time>
      </trkpt>
      <trkpt lat="40.0511760" lon="-3.5438490">
        <ele>560.6</ele>
        <time>2019-07-07T14:46:46Z</time>
      </trkpt>
      <trkpt lat="40.0509850" lon="-3.5445480">
        <ele>560.4</ele>
        <time>2019-07-07T14:46:54Z</time>
      </trkpt>
      <trkpt lat="40.0509600" lon="-3.5446350">
        <ele>560.4</ele>
        <time>2019-07-07T14:46:55Z</time>
      </trkpt>
      <trkpt lat="40.0507670" lon="-3.5453070">
        <ele>560.6</ele>
        <time>2019-07-07T14:47:03Z</time>
      </trkpt>
      <trkpt lat="40.0507430" lon="-3.5453900">
        <ele>560.4</ele>
        <time>2019-07-07T14:47:04Z</time>
      </trkpt>
      <trkpt lat="40.0506920" lon="-3.5455490">
        <ele>560.2</ele>
        <time>2019-07-07T14:47:06Z</time>
      </trkpt>
      <trkpt lat="40.0505820" lon="-3.5457500">
        <ele>560.2</ele>
        <time>2019-07-07T14:47:09Z</time>
      </trkpt>
      <trkpt lat="40.0503630" lon="-3.5458880">
        <ele>560.2</ele>
        <time>2019-07-07T14:47:13Z</time>
      </trkpt>
      <trkpt lat="40.0502300" lon="-3.5458770">
        <ele>560.0</ele>
        <time>2019-07-07T14:47:15Z</time>
      </trkpt>
      <trkpt lat="40.0499650" lon="-3.5458280">
        <ele>559.6</ele>
        <time>2019-07-07T14:47:19Z</time>
      </trkpt>
      <trkpt lat="40.0495640" lon="-3.5457290">
        <ele>559.2</ele>
        <time>2019-07-07T14:47:25Z</time>
      </trkpt>
      <trkpt lat="40.0493610" lon="-3.5456870">
        <ele>559.2</ele>
        <time>2019-07-07T14:47:28Z</time>
      </trkpt>
      <trkpt lat="40.0489500" lon="-3.5456060">
        <ele>559.2</ele>
        <time>2019-07-07T14:47:34Z</time>
      </trkpt>
      <trkpt lat="40.0487410" lon="-3.5455880">
        <ele>559.4</ele>
        <time>2019-07-07T14:47:37Z</time>
      </trkpt>
      <trkpt lat="40.0486150" lon="-3.5456480">
        <ele>559.2</ele>
        <time>2019-07-07T14:47:39Z</time>
      </trkpt>
      <trkpt lat="40.0484950" lon="-3.5458400">
        <ele>559.2</ele>
        <time>2019-07-07T14:47:42Z</time>
      </trkpt>
      <trkpt lat="40.0484790" lon="-3.5459210">
        <ele>559.2</ele>
        <time>2019-07-07T14:47:43Z</time>
      </trkpt>
      <trkpt lat="40.0483600" lon="-3.5463970">
        <ele>559.2</ele>
        <time>2019-07-07T14:47:49Z</time>
      </trkpt>
      <trkpt lat="40.0481880" lon="-3.5470490">
        <ele>559.4</ele>
        <time>2019-07-07T14:47:57Z</time>
      </trkpt>
      <trkpt lat="40.0480380" lon="-3.5476590">
        <ele>559.6</ele>
        <time>2019-07-07T14:48:04Z</time>
      </trkpt>
      <trkpt lat="40.0478620" lon="-3.5483420">
        <ele>559.8</ele>
        <time>2019-07-07T14:48:12Z</time>
      </trkpt>
      <trkpt lat="40.0477000" lon="-3.5489820">
        <ele>559.6</ele>
        <time>2019-07-07T14:48:20Z</time>
      </trkpt>
      <trkpt lat="40.0475540" lon="-3.5495490">
        <ele>559.4</ele>
        <time>2019-07-07T14:48:27Z</time>
      </trkpt>
      <trkpt lat="40.0474090" lon="-3.5500930">
        <ele>559.2</ele>
        <time>2019-07-07T14:48:34Z</time>
      </trkpt>
      <trkpt lat="40.0472440" lon="-3.5507140">
        <ele>559.2</ele>
        <time>2019-07-07T14:48:42Z</time>
      </trkpt>
      <trkpt lat="40.0471380" lon="-3.5511540">
        <ele>559.2</ele>
        <time>2019-07-07T14:48:48Z</time>
      </trkpt>
      <trkpt lat="40.0470570" lon="-3.5514550">
        <ele>559.0</ele>
        <time>2019-07-07T14:48:52Z</time>
      </trkpt>
      <trkpt lat="40.0469560" lon="-3.5518330">
        <ele>559.0</ele>
        <time>2019-07-07T14:48:57Z</time>
      </trkpt>
      <trkpt lat="40.0468490" lon="-3.5522130">
        <ele>559.4</ele>
        <time>2019-07-07T14:49:02Z</time>
      </trkpt>
      <trkpt lat="40.0467340" lon="-3.5526860">
        <ele>559.0</ele>
        <time>2019-07-07T14:49:08Z</time>
      </trkpt>
      <trkpt lat="40.0466970" lon="-3.5528390">
        <ele>558.8</ele>
        <time>2019-07-07T14:49:10Z</time>
      </trkpt>
      <trkpt lat="40.0466380" lon="-3.5530860">
        <ele>558.8</ele>
        <time>2019-07-07T14:49:13Z</time>
      </trkpt>
      <trkpt lat="40.0464900" lon="-3.5536670">
        <ele>558.8</ele>
        <time>2019-07-07T14:49:20Z</time>
      </trkpt>
      <trkpt lat="40.0463810" lon="-3.5540860">
        <ele>558.8</ele>
        <time>2019-07-07T14:49:25Z</time>
      </trkpt>
      <trkpt lat="40.0463040" lon="-3.5543280">
        <ele>558.8</ele>
        <time>2019-07-07T14:49:28Z</time>
      </trkpt>
      <trkpt lat="40.0462280" lon="-3.5545790">
        <ele>558.8</ele>
        <time>2019-07-07T14:49:31Z</time>
      </trkpt>
      <trkpt lat="40.0460620" lon="-3.5551720">
        <ele>558.4</ele>
        <time>2019-07-07T14:49:38Z</time>
      </trkpt>
      <trkpt lat="40.0459050" lon="-3.5557450">
        <ele>558.6</ele>
        <time>2019-07-07T14:49:45Z</time>
      </trkpt>
      <trkpt lat="40.0457660" lon="-3.5562450">
        <ele>558.4</ele>
        <time>2019-07-07T14:49:51Z</time>
      </trkpt>
      <trkpt lat="40.0455760" lon="-3.5569380">
        <ele>558.2</ele>
        <time>2019-07-07T14:49:59Z</time>
      </trkpt>
      <trkpt lat="40.0454400" lon="-3.5574390">
        <ele>558.8</ele>
        <time>2019-07-07T14:50:05Z</time>
      </trkpt>
      <trkpt lat="40.0452400" lon="-3.5581440">
        <ele>558.4</ele>
        <time>2019-07-07T14:50:14Z</time>
      </trkpt>
      <trkpt lat="40.0450940" lon="-3.5586940">
        <ele>558.2</ele>
        <time>2019-07-07T14:50:21Z</time>
      </trkpt>
      <trkpt lat="40.0449910" lon="-3.5590980">
        <ele>558.0</ele>
        <time>2019-07-07T14:50:26Z</time>
      </trkpt>
      <trkpt lat="40.0449680" lon="-3.5591820">
        <ele>557.8</ele>
        <time>2019-07-07T14:50:27Z</time>
      </trkpt>
      <trkpt lat="40.0448310" lon="-3.5596730">
        <ele>558.4</ele>
        <time>2019-07-07T14:50:33Z</time>
      </trkpt>
      <trkpt lat="40.0447030" lon="-3.5601690">
        <ele>558.2</ele>
        <time>2019-07-07T14:50:39Z</time>
      </trkpt>
      <trkpt lat="40.0446600" lon="-3.5603350">
        <ele>558.0</ele>
        <time>2019-07-07T14:50:41Z</time>
      </trkpt>
      <trkpt lat="40.0445480" lon="-3.5607460">
        <ele>557.8</ele>
        <time>2019-07-07T14:50:46Z</time>
      </trkpt>
      <trkpt lat="40.0444040" lon="-3.5613380">
        <ele>558.0</ele>
        <time>2019-07-07T14:50:53Z</time>
      </trkpt>
      <trkpt lat="40.0442260" lon="-3.5620380">
        <ele>558.4</ele>
        <time>2019-07-07T14:51:01Z</time>
      </trkpt>
      <trkpt lat="40.0440370" lon="-3.5627320">
        <ele>558.6</ele>
        <time>2019-07-07T14:51:09Z</time>
      </trkpt>
      <trkpt lat="40.0440160" lon="-3.5628180">
        <ele>558.6</ele>
        <time>2019-07-07T14:51:10Z</time>
      </trkpt>
      <trkpt lat="40.0439280" lon="-3.5631470">
        <ele>558.4</ele>
        <time>2019-07-07T14:51:14Z</time>
      </trkpt>
      <trkpt lat="40.0438850" lon="-3.5633130">
        <ele>558.2</ele>
        <time>2019-07-07T14:51:16Z</time>
      </trkpt>
      <trkpt lat="40.0437210" lon="-3.5639110">
        <ele>557.8</ele>
        <time>2019-07-07T14:51:23Z</time>
      </trkpt>
      <trkpt lat="40.0435500" lon="-3.5644950">
        <ele>557.6</ele>
        <time>2019-07-07T14:51:30Z</time>
      </trkpt>
      <trkpt lat="40.0433880" lon="-3.5650740">
        <ele>557.6</ele>
        <time>2019-07-07T14:51:37Z</time>
      </trkpt>
      <trkpt lat="40.0432590" lon="-3.5655880">
        <ele>557.6</ele>
        <time>2019-07-07T14:51:43Z</time>
      </trkpt>
      <trkpt lat="40.0430860" lon="-3.5661920">
        <ele>557.6</ele>
        <time>2019-07-07T14:51:50Z</time>
      </trkpt>
      <trkpt lat="40.0428980" lon="-3.5668870">
        <ele>557.8</ele>
        <time>2019-07-07T14:51:58Z</time>
      </trkpt>
      <trkpt lat="40.0427570" lon="-3.5674150">
        <ele>557.6</ele>
        <time>2019-07-07T14:52:04Z</time>
      </trkpt>
      <trkpt lat="40.0426100" lon="-3.5679530">
        <ele>557.6</ele>
        <time>2019-07-07T14:52:10Z</time>
      </trkpt>
      <trkpt lat="40.0424390" lon="-3.5685450">
        <ele>557.8</ele>
        <time>2019-07-07T14:52:17Z</time>
      </trkpt>
      <trkpt lat="40.0423000" lon="-3.5689830">
        <ele>558.0</ele>
        <time>2019-07-07T14:52:23Z</time>
      </trkpt>
      <trkpt lat="40.0421950" lon="-3.5693260">
        <ele>558.8</ele>
        <time>2019-07-07T14:52:28Z</time>
      </trkpt>
      <trkpt lat="40.0421800" lon="-3.5693960">
        <ele>559.0</ele>
        <time>2019-07-07T14:52:29Z</time>
      </trkpt>
      <trkpt lat="40.0421090" lon="-3.5696630">
        <ele>559.4</ele>
        <time>2019-07-07T14:52:33Z</time>
      </trkpt>
      <trkpt lat="40.0420620" lon="-3.5698570">
        <ele>560.0</ele>
        <time>2019-07-07T14:52:36Z</time>
      </trkpt>
      <trkpt lat="40.0420220" lon="-3.5701370">
        <ele>560.4</ele>
        <time>2019-07-07T14:52:40Z</time>
      </trkpt>
      <trkpt lat="40.0419810" lon="-3.5703590">
        <ele>560.4</ele>
        <time>2019-07-07T14:52:43Z</time>
      </trkpt>
      <trkpt lat="40.0419320" lon="-3.5707280">
        <ele>560.2</ele>
        <time>2019-07-07T14:52:48Z</time>
      </trkpt>
      <trkpt lat="40.0419160" lon="-3.5708890">
        <ele>560.0</ele>
        <time>2019-07-07T14:52:50Z</time>
      </trkpt>
      <trkpt lat="40.0418340" lon="-3.5714170">
        <ele>559.6</ele>
        <time>2019-07-07T14:52:56Z</time>
      </trkpt>
      <trkpt lat="40.0418170" lon="-3.5715090">
        <ele>559.4</ele>
        <time>2019-07-07T14:52:57Z</time>
      </trkpt>
      <trkpt lat="40.0417420" lon="-3.5719760">
        <ele>558.4</ele>
        <time>2019-07-07T14:53:02Z</time>
      </trkpt>
      <trkpt lat="40.0416590" lon="-3.5724380">
        <ele>557.8</ele>
        <time>2019-07-07T14:53:07Z</time>
      </trkpt>
      <trkpt lat="40.0416270" lon="-3.5726150">
        <ele>557.6</ele>
        <time>2019-07-07T14:53:09Z</time>
      </trkpt>
      <trkpt lat="40.0415280" lon="-3.5732390">
        <ele>557.6</ele>
        <time>2019-07-07T14:53:16Z</time>
      </trkpt>
      <trkpt lat="40.0415130" lon="-3.5733270">
        <ele>557.6</ele>
        <time>2019-07-07T14:53:17Z</time>
      </trkpt>
      <trkpt lat="40.0414420" lon="-3.5737450">
        <ele>557.4</ele>
        <time>2019-07-07T14:53:22Z</time>
      </trkpt>
      <trkpt lat="40.0414110" lon="-3.5739160">
        <ele>557.4</ele>
        <time>2019-07-07T14:53:24Z</time>
      </trkpt>
      <trkpt lat="40.0413590" lon="-3.5742330">
        <ele>557.4</ele>
        <time>2019-07-07T14:53:28Z</time>
      </trkpt>
      <trkpt lat="40.0412600" lon="-3.5748300">
        <ele>557.4</ele>
        <time>2019-07-07T14:53:36Z</time>
      </trkpt>
      <trkpt lat="40.0411950" lon="-3.5753000">
        <ele>556.8</ele>
        <time>2019-07-07T14:53:42Z</time>
      </trkpt>
      <trkpt lat="40.0411240" lon="-3.5756860">
        <ele>557.2</ele>
        <time>2019-07-07T14:53:47Z</time>
      </trkpt>
      <trkpt lat="40.0410320" lon="-3.5762430">
        <ele>557.4</ele>
        <time>2019-07-07T14:53:54Z</time>
      </trkpt>
      <trkpt lat="40.0409480" lon="-3.5767940">
        <ele>557.2</ele>
        <time>2019-07-07T14:54:01Z</time>
      </trkpt>
      <trkpt lat="40.0408820" lon="-3.5772800">
        <ele>557.4</ele>
        <time>2019-07-07T14:54:07Z</time>
      </trkpt>
      <trkpt lat="40.0408640" lon="-3.5774440">
        <ele>557.4</ele>
        <time>2019-07-07T14:54:09Z</time>
      </trkpt>
      <trkpt lat="40.0408090" lon="-3.5777740">
        <ele>557.6</ele>
        <time>2019-07-07T14:54:13Z</time>
      </trkpt>
      <trkpt lat="40.0407130" lon="-3.5784520">
        <ele>557.6</ele>
        <time>2019-07-07T14:54:21Z</time>
      </trkpt>
      <trkpt lat="40.0406440" lon="-3.5790000">
        <ele>557.6</ele>
        <time>2019-07-07T14:54:27Z</time>
      </trkpt>
      <trkpt lat="40.0405550" lon="-3.5795270">
        <ele>557.6</ele>
        <time>2019-07-07T14:54:33Z</time>
      </trkpt>
      <trkpt lat="40.0404900" lon="-3.5800440">
        <ele>557.4</ele>
        <time>2019-07-07T14:54:39Z</time>
      </trkpt>
      <trkpt lat="40.0403900" lon="-3.5806240">
        <ele>557.4</ele>
        <time>2019-07-07T14:54:46Z</time>
      </trkpt>
      <trkpt lat="40.0403180" lon="-3.5811210">
        <ele>557.8</ele>
        <time>2019-07-07T14:54:52Z</time>
      </trkpt>
      <trkpt lat="40.0402010" lon="-3.5817630">
        <ele>556.6</ele>
        <time>2019-07-07T14:55:00Z</time>
      </trkpt>
      <trkpt lat="40.0401870" lon="-3.5818410">
        <ele>556.6</ele>
        <time>2019-07-07T14:55:01Z</time>
      </trkpt>
      <trkpt lat="40.0400670" lon="-3.5825320">
        <ele>556.6</ele>
        <time>2019-07-07T14:55:10Z</time>
      </trkpt>
      <trkpt lat="40.0400540" lon="-3.5826070">
        <ele>556.6</ele>
        <time>2019-07-07T14:55:11Z</time>
      </trkpt>
      <trkpt lat="40.0399790" lon="-3.5830500">
        <ele>556.6</ele>
        <time>2019-07-07T14:55:17Z</time>
      </trkpt>
      <trkpt lat="40.0398840" lon="-3.5836100">
        <ele>556.4</ele>
        <time>2019-07-07T14:55:24Z</time>
      </trkpt>
      <trkpt lat="40.0398240" lon="-3.5840230">
        <ele>556.4</ele>
        <time>2019-07-07T14:55:29Z</time>
      </trkpt>
      <trkpt lat="40.0397390" lon="-3.5846210">
        <ele>556.8</ele>
        <time>2019-07-07T14:55:36Z</time>
      </trkpt>
      <trkpt lat="40.0396790" lon="-3.5850360">
        <ele>556.8</ele>
        <time>2019-07-07T14:55:41Z</time>
      </trkpt>
      <trkpt lat="40.0396690" lon="-3.5851250">
        <ele>556.8</ele>
        <time>2019-07-07T14:55:42Z</time>
      </trkpt>
      <trkpt lat="40.0396050" lon="-3.5856810">
        <ele>556.8</ele>
        <time>2019-07-07T14:55:48Z</time>
      </trkpt>
      <trkpt lat="40.0395770" lon="-3.5858700">
        <ele>556.4</ele>
        <time>2019-07-07T14:55:50Z</time>
      </trkpt>
      <trkpt lat="40.0395180" lon="-3.5861430">
        <ele>556.0</ele>
        <time>2019-07-07T14:55:53Z</time>
      </trkpt>
      <trkpt lat="40.0395040" lon="-3.5862330">
        <ele>556.0</ele>
        <time>2019-07-07T14:55:54Z</time>
      </trkpt>
      <trkpt lat="40.0394270" lon="-3.5867510">
        <ele>556.0</ele>
        <time>2019-07-07T14:56:00Z</time>
      </trkpt>
      <trkpt lat="40.0393940" lon="-3.5869170">
        <ele>556.0</ele>
        <time>2019-07-07T14:56:02Z</time>
      </trkpt>
      <trkpt lat="40.0393500" lon="-3.5871700">
        <ele>556.0</ele>
        <time>2019-07-07T14:56:05Z</time>
      </trkpt>
      <trkpt lat="40.0392710" lon="-3.5875700">
        <ele>556.0</ele>
        <time>2019-07-07T14:56:10Z</time>
      </trkpt>
      <trkpt lat="40.0391840" lon="-3.5879790">
        <ele>556.0</ele>
        <time>2019-07-07T14:56:15Z</time>
      </trkpt>
      <trkpt lat="40.0391260" lon="-3.5883130">
        <ele>555.8</ele>
        <time>2019-07-07T14:56:19Z</time>
      </trkpt>
      <trkpt lat="40.0390910" lon="-3.5884800">
        <ele>555.8</ele>
        <time>2019-07-07T14:56:21Z</time>
      </trkpt>
      <trkpt lat="40.0389820" lon="-3.5891410">
        <ele>555.8</ele>
        <time>2019-07-07T14:56:29Z</time>
      </trkpt>
      <trkpt lat="40.0388520" lon="-3.5898580">
        <ele>556.4</ele>
        <time>2019-07-07T14:56:38Z</time>
      </trkpt>
      <trkpt lat="40.0387650" lon="-3.5903390">
        <ele>556.4</ele>
        <time>2019-07-07T14:56:44Z</time>
      </trkpt>
      <trkpt lat="40.0387550" lon="-3.5904170">
        <ele>556.4</ele>
        <time>2019-07-07T14:56:45Z</time>
      </trkpt>
      <trkpt lat="40.0386790" lon="-3.5908680">
        <ele>556.4</ele>
        <time>2019-07-07T14:56:51Z</time>
      </trkpt>
      <trkpt lat="40.0386240" lon="-3.5912770">
        <ele>556.6</ele>
        <time>2019-07-07T14:56:56Z</time>
      </trkpt>
      <trkpt lat="40.0385260" lon="-3.5919730">
        <ele>556.4</ele>
        <time>2019-07-07T14:57:04Z</time>
      </trkpt>
      <trkpt lat="40.0384400" lon="-3.5925100">
        <ele>556.6</ele>
        <time>2019-07-07T14:57:11Z</time>
      </trkpt>
      <trkpt lat="40.0383480" lon="-3.5930110">
        <ele>556.4</ele>
        <time>2019-07-07T14:57:18Z</time>
      </trkpt>
      <trkpt lat="40.0383190" lon="-3.5931520">
        <ele>556.2</ele>
        <time>2019-07-07T14:57:20Z</time>
      </trkpt>
      <trkpt lat="40.0382790" lon="-3.5933760">
        <ele>556.0</ele>
        <time>2019-07-07T14:57:23Z</time>
      </trkpt>
      <trkpt lat="40.0382100" lon="-3.5938310">
        <ele>556.0</ele>
        <time>2019-07-07T14:57:29Z</time>
      </trkpt>
      <trkpt lat="40.0381180" lon="-3.5943740">
        <ele>556.0</ele>
        <time>2019-07-07T14:57:36Z</time>
      </trkpt>
      <trkpt lat="40.0380520" lon="-3.5948470">
        <ele>556.4</ele>
        <time>2019-07-07T14:57:42Z</time>
      </trkpt>
      <trkpt lat="40.0379790" lon="-3.5953430">
        <ele>556.2</ele>
        <time>2019-07-07T14:57:48Z</time>
      </trkpt>
      <trkpt lat="40.0378950" lon="-3.5959400">
        <ele>556.2</ele>
        <time>2019-07-07T14:57:55Z</time>
      </trkpt>
      <trkpt lat="40.0378540" lon="-3.5961840">
        <ele>556.4</ele>
        <time>2019-07-07T14:57:58Z</time>
      </trkpt>
      <trkpt lat="40.0378280" lon="-3.5963340">
        <ele>556.4</ele>
        <time>2019-07-07T14:58:00Z</time>
      </trkpt>
      <trkpt lat="40.0378110" lon="-3.5964070">
        <ele>556.2</ele>
        <time>2019-07-07T14:58:01Z</time>
      </trkpt>
      <trkpt lat="40.0377290" lon="-3.5969350">
        <ele>556.0</ele>
        <time>2019-07-07T14:58:08Z</time>
      </trkpt>
      <trkpt lat="40.0376220" lon="-3.5975340">
        <ele>556.0</ele>
        <time>2019-07-07T14:58:16Z</time>
      </trkpt>
      <trkpt lat="40.0375280" lon="-3.5980600">
        <ele>556.0</ele>
        <time>2019-07-07T14:58:23Z</time>
      </trkpt>
      <trkpt lat="40.0374200" lon="-3.5986420">
        <ele>555.8</ele>
        <time>2019-07-07T14:58:31Z</time>
      </trkpt>
      <trkpt lat="40.0373430" lon="-3.5990910">
        <ele>555.8</ele>
        <time>2019-07-07T14:58:37Z</time>
      </trkpt>
      <trkpt lat="40.0373340" lon="-3.5991620">
        <ele>555.8</ele>
        <time>2019-07-07T14:58:38Z</time>
      </trkpt>
      <trkpt lat="40.0373060" lon="-3.5993760">
        <ele>555.8</ele>
        <time>2019-07-07T14:58:41Z</time>
      </trkpt>
      <trkpt lat="40.0372260" lon="-3.5998050">
        <ele>555.8</ele>
        <time>2019-07-07T14:58:47Z</time>
      </trkpt>
      <trkpt lat="40.0371510" lon="-3.6002260">
        <ele>556.0</ele>
        <time>2019-07-07T14:58:53Z</time>
      </trkpt>
      <trkpt lat="40.0371150" lon="-3.6004380">
        <ele>556.0</ele>
        <time>2019-07-07T14:58:56Z</time>
      </trkpt>
      <trkpt lat="40.0370620" lon="-3.6007310">
        <ele>556.0</ele>
        <time>2019-07-07T14:59:00Z</time>
      </trkpt>
      <trkpt lat="40.0369780" lon="-3.6011640">
        <ele>555.8</ele>
        <time>2019-07-07T14:59:06Z</time>
      </trkpt>
      <trkpt lat="40.0368950" lon="-3.6015140">
        <ele>556.0</ele>
        <time>2019-07-07T14:59:11Z</time>
      </trkpt>
      <trkpt lat="40.0368800" lon="-3.6015900">
        <ele>556.0</ele>
        <time>2019-07-07T14:59:12Z</time>
      </trkpt>
      <trkpt lat="40.0368210" lon="-3.6018900">
        <ele>555.8</ele>
        <time>2019-07-07T14:59:16Z</time>
      </trkpt>
      <trkpt lat="40.0367880" lon="-3.6022490">
        <ele>555.8</ele>
        <time>2019-07-07T14:59:21Z</time>
      </trkpt>
      <trkpt lat="40.0367800" lon="-3.6023210">
        <ele>555.8</ele>
        <time>2019-07-07T14:59:22Z</time>
      </trkpt>
      <trkpt lat="40.0367330" lon="-3.6025840">
        <ele>556.0</ele>
        <time>2019-07-07T14:59:26Z</time>
      </trkpt>
      <trkpt lat="40.0366680" lon="-3.6028660">
        <ele>555.8</ele>
        <time>2019-07-07T14:59:31Z</time>
      </trkpt>
      <trkpt lat="40.0366570" lon="-3.6029240">
        <ele>556.0</ele>
        <time>2019-07-07T14:59:32Z</time>
      </trkpt>
      <trkpt lat="40.0366470" lon="-3.6029870">
        <ele>556.0</ele>
        <time>2019-07-07T14:59:33Z</time>
      </trkpt>
      <trkpt lat="40.0366060" lon="-3.6032480">
        <ele>556.0</ele>
        <time>2019-07-07T14:59:38Z</time>
      </trkpt>
      <trkpt lat="40.0365820" lon="-3.6034780">
        <ele>556.0</ele>
        <time>2019-07-07T14:59:43Z</time>
      </trkpt>
      <trkpt lat="40.0365430" lon="-3.6038100">
        <ele>555.8</ele>
        <time>2019-07-07T14:59:49Z</time>
      </trkpt>
      <trkpt lat="40.0365280" lon="-3.6039260">
        <ele>555.8</ele>
        <time>2019-07-07T14:59:51Z</time>
      </trkpt>
      <trkpt lat="40.0364700" lon="-3.6043220">
        <ele>555.6</ele>
        <time>2019-07-07T14:59:58Z</time>
      </trkpt>
      <trkpt lat="40.0363850" lon="-3.6045520">
        <ele>555.4</ele>
        <time>2019-07-07T15:00:03Z</time>
      </trkpt>
      <trkpt lat="40.0351260" lon="-3.6029670">
        <ele>507.8</ele>
        <time>2019-07-08T04:46:13Z</time>
      </trkpt>
      <trkpt lat="40.0351260" lon="-3.6029670">
        <ele>508.2</ele>
        <time>2019-07-08T04:46:14Z</time>
      </trkpt>
      <trkpt lat="40.0351120" lon="-3.6028950">
        <ele>508.2</ele>
        <time>2019-07-08T04:46:17Z</time>
      </trkpt>
      <trkpt lat="40.0351060" lon="-3.6028500">
        <ele>508.2</ele>
        <time>2019-07-08T04:46:18Z</time>
      </trkpt>
      <trkpt lat="40.0350520" lon="-3.6027000">
        <ele>508.0</ele>
        <time>2019-07-08T04:46:22Z</time>
      </trkpt>
      <trkpt lat="40.0348940" lon="-3.6027000">
        <ele>508.4</ele>
        <time>2019-07-08T04:46:26Z</time>
      </trkpt>
      <trkpt lat="40.0347030" lon="-3.6026650">
        <ele>508.6</ele>
        <time>2019-07-08T04:46:30Z</time>
      </trkpt>
      <trkpt lat="40.0346490" lon="-3.6026550">
        <ele>508.6</ele>
        <time>2019-07-08T04:46:31Z</time>
      </trkpt>
      <trkpt lat="40.0344490" lon="-3.6026410">
        <ele>508.6</ele>
        <time>2019-07-08T04:46:35Z</time>
      </trkpt>
      <trkpt lat="40.0343470" lon="-3.6026330">
        <ele>508.4</ele>
        <time>2019-07-08T04:46:37Z</time>
      </trkpt>
      <trkpt lat="40.0342520" lon="-3.6026560">
        <ele>508.4</ele>
        <time>2019-07-08T04:46:39Z</time>
      </trkpt>
      <trkpt lat="40.0340720" lon="-3.6026930">
        <ele>508.2</ele>
        <time>2019-07-08T04:46:43Z</time>
      </trkpt>
      <trkpt lat="40.0339110" lon="-3.6027000">
        <ele>508.2</ele>
        <time>2019-07-08T04:46:46Z</time>
      </trkpt>
      <trkpt lat="40.0338120" lon="-3.6027280">
        <ele>508.4</ele>
        <time>2019-07-08T04:46:48Z</time>
      </trkpt>
      <trkpt lat="40.0335330" lon="-3.6027130">
        <ele>508.2</ele>
        <time>2019-07-08T04:46:54Z</time>
      </trkpt>
      <trkpt lat="40.0334290" lon="-3.6027050">
        <ele>508.2</ele>
        <time>2019-07-08T04:46:57Z</time>
      </trkpt>
      <trkpt lat="40.0333360" lon="-3.6027260">
        <ele>508.2</ele>
        <time>2019-07-08T04:47:00Z</time>
      </trkpt>
      <trkpt lat="40.0332100" lon="-3.6027290">
        <ele>508.6</ele>
        <time>2019-07-08T04:47:03Z</time>
      </trkpt>
      <trkpt lat="40.0330830" lon="-3.6027490">
        <ele>509.0</ele>
        <time>2019-07-08T04:47:06Z</time>
      </trkpt>
      <trkpt lat="40.0328470" lon="-3.6027940">
        <ele>509.2</ele>
        <time>2019-07-08T04:47:11Z</time>
      </trkpt>
      <trkpt lat="40.0327740" lon="-3.6028210">
        <ele>509.4</ele>
        <time>2019-07-08T04:47:13Z</time>
      </trkpt>
      <trkpt lat="40.0327450" lon="-3.6028380">
        <ele>509.4</ele>
        <time>2019-07-08T04:47:14Z</time>
      </trkpt>
      <trkpt lat="40.0325530" lon="-3.6028810">
        <ele>510.0</ele>
        <time>2019-07-08T04:47:20Z</time>
      </trkpt>
      <trkpt lat="40.0325220" lon="-3.6028850">
        <ele>510.0</ele>
        <time>2019-07-08T04:47:21Z</time>
      </trkpt>
      <trkpt lat="40.0324280" lon="-3.6029270">
        <ele>510.4</ele>
        <time>2019-07-08T04:47:26Z</time>
      </trkpt>
      <trkpt lat="40.0323940" lon="-3.6029550">
        <ele>510.4</ele>
        <time>2019-07-08T04:47:28Z</time>
      </trkpt>
      <trkpt lat="40.0323490" lon="-3.6029550">
        <ele>510.8</ele>
        <time>2019-07-08T04:47:30Z</time>
      </trkpt>
      <trkpt lat="40.0322360" lon="-3.6029720">
        <ele>511.0</ele>
        <time>2019-07-08T04:47:34Z</time>
      </trkpt>
      <trkpt lat="40.0321790" lon="-3.6029800">
        <ele>511.0</ele>
        <time>2019-07-08T04:47:36Z</time>
      </trkpt>
      <trkpt lat="40.0321490" lon="-3.6029820">
        <ele>511.2</ele>
        <time>2019-07-08T04:47:37Z</time>
      </trkpt>
      <trkpt lat="40.0319810" lon="-3.6030010">
        <ele>512.0</ele>
        <time>2019-07-08T04:47:42Z</time>
      </trkpt>
      <trkpt lat="40.0318720" lon="-3.6030180">
        <ele>512.4</ele>
        <time>2019-07-08T04:47:45Z</time>
      </trkpt>
      <trkpt lat="40.0317940" lon="-3.6030390">
        <ele>512.6</ele>
        <time>2019-07-08T04:47:47Z</time>
      </trkpt>
      <trkpt lat="40.0316350" lon="-3.6030640">
        <ele>513.2</ele>
        <time>2019-07-08T04:47:51Z</time>
      </trkpt>
      <trkpt lat="40.0315100" lon="-3.6030770">
        <ele>513.4</ele>
        <time>2019-07-08T04:47:54Z</time>
      </trkpt>
      <trkpt lat="40.0312930" lon="-3.6031070">
        <ele>513.8</ele>
        <time>2019-07-08T04:47:59Z</time>
      </trkpt>
      <trkpt lat="40.0312470" lon="-3.6031110">
        <ele>513.8</ele>
        <time>2019-07-08T04:48:00Z</time>
      </trkpt>
      <trkpt lat="40.0310610" lon="-3.6031400">
        <ele>514.4</ele>
        <time>2019-07-08T04:48:04Z</time>
      </trkpt>
      <trkpt lat="40.0309640" lon="-3.6031400">
        <ele>514.6</ele>
        <time>2019-07-08T04:48:06Z</time>
      </trkpt>
      <trkpt lat="40.0309180" lon="-3.6031410">
        <ele>514.6</ele>
        <time>2019-07-08T04:48:07Z</time>
      </trkpt>
      <trkpt lat="40.0307360" lon="-3.6031490">
        <ele>514.8</ele>
        <time>2019-07-08T04:48:11Z</time>
      </trkpt>
      <trkpt lat="40.0306450" lon="-3.6031540">
        <ele>515.0</ele>
        <time>2019-07-08T04:48:13Z</time>
      </trkpt>
      <trkpt lat="40.0304210" lon="-3.6031860">
        <ele>515.6</ele>
        <time>2019-07-08T04:48:18Z</time>
      </trkpt>
      <trkpt lat="40.0303300" lon="-3.6031990">
        <ele>515.6</ele>
        <time>2019-07-08T04:48:20Z</time>
      </trkpt>
      <trkpt lat="40.0302830" lon="-3.6032040">
        <ele>515.6</ele>
        <time>2019-07-08T04:48:21Z</time>
      </trkpt>
      <trkpt lat="40.0301410" lon="-3.6032170">
        <ele>516.0</ele>
        <time>2019-07-08T04:48:24Z</time>
      </trkpt>
      <trkpt lat="40.0299970" lon="-3.6032340">
        <ele>516.2</ele>
        <time>2019-07-08T04:48:27Z</time>
      </trkpt>
      <trkpt lat="40.0298160" lon="-3.6032670">
        <ele>516.6</ele>
        <time>2019-07-08T04:48:31Z</time>
      </trkpt>
      <trkpt lat="40.0297670" lon="-3.6032740">
        <ele>516.8</ele>
        <time>2019-07-08T04:48:32Z</time>
      </trkpt>
      <trkpt lat="40.0295270" lon="-3.6033040">
        <ele>517.2</ele>
        <time>2019-07-08T04:48:37Z</time>
      </trkpt>
      <trkpt lat="40.0294820" lon="-3.6033100">
        <ele>517.2</ele>
        <time>2019-07-08T04:48:38Z</time>
      </trkpt>
      <trkpt lat="40.0293930" lon="-3.6033120">
        <ele>517.4</ele>
        <time>2019-07-08T04:48:40Z</time>
      </trkpt>
      <trkpt lat="40.0292950" lon="-3.6033080">
        <ele>517.6</ele>
        <time>2019-07-08T04:48:42Z</time>
      </trkpt>
      <trkpt lat="40.0289730" lon="-3.6033490">
        <ele>518.4</ele>
        <time>2019-07-08T04:48:49Z</time>
      </trkpt>
      <trkpt lat="40.0286410" lon="-3.6033950">
        <ele>518.6</ele>
        <time>2019-07-08T04:48:56Z</time>
      </trkpt>
      <trkpt lat="40.0285940" lon="-3.6034000">
        <ele>518.6</ele>
        <time>2019-07-08T04:48:57Z</time>
      </trkpt>
      <trkpt lat="40.0284090" lon="-3.6034350">
        <ele>519.0</ele>
        <time>2019-07-08T04:49:01Z</time>
      </trkpt>
      <trkpt lat="40.0283270" lon="-3.6034890">
        <ele>519.0</ele>
        <time>2019-07-08T04:49:03Z</time>
      </trkpt>
      <trkpt lat="40.0282510" lon="-3.6036150">
        <ele>519.0</ele>
        <time>2019-07-08T04:49:06Z</time>
      </trkpt>
      <trkpt lat="40.0282420" lon="-3.6036740">
        <ele>519.0</ele>
        <time>2019-07-08T04:49:07Z</time>
      </trkpt>
      <trkpt lat="40.0281600" lon="-3.6040100">
        <ele>518.8</ele>
        <time>2019-07-08T04:49:12Z</time>
      </trkpt>
      <trkpt lat="40.0281010" lon="-3.6042400">
        <ele>518.4</ele>
        <time>2019-07-08T04:49:15Z</time>
      </trkpt>
      <trkpt lat="40.0280530" lon="-3.6043950">
        <ele>518.2</ele>
        <time>2019-07-08T04:49:17Z</time>
      </trkpt>
      <trkpt lat="40.0279380" lon="-3.6046880">
        <ele>518.0</ele>
        <time>2019-07-08T04:49:21Z</time>
      </trkpt>
      <trkpt lat="40.0278890" lon="-3.6048310">
        <ele>518.0</ele>
        <time>2019-07-08T04:49:23Z</time>
      </trkpt>
      <trkpt lat="40.0278760" lon="-3.6049070">
        <ele>518.0</ele>
        <time>2019-07-08T04:49:24Z</time>
      </trkpt>
      <trkpt lat="40.0278870" lon="-3.6052160">
        <ele>518.0</ele>
        <time>2019-07-08T04:49:28Z</time>
      </trkpt>
      <trkpt lat="40.0279010" lon="-3.6052970">
        <ele>518.0</ele>
        <time>2019-07-08T04:49:29Z</time>
      </trkpt>
      <trkpt lat="40.0279220" lon="-3.6054580">
        <ele>518.0</ele>
        <time>2019-07-08T04:49:31Z</time>
      </trkpt>
      <trkpt lat="40.0279500" lon="-3.6057610">
        <ele>518.0</ele>
        <time>2019-07-08T04:49:35Z</time>
      </trkpt>
      <trkpt lat="40.0279610" lon="-3.6059940">
        <ele>517.8</ele>
        <time>2019-07-08T04:49:38Z</time>
      </trkpt>
      <trkpt lat="40.0279790" lon="-3.6062360">
        <ele>517.4</ele>
        <time>2019-07-08T04:49:41Z</time>
      </trkpt>
      <trkpt lat="40.0279820" lon="-3.6063100">
        <ele>517.2</ele>
        <time>2019-07-08T04:49:42Z</time>
      </trkpt>
      <trkpt lat="40.0279840" lon="-3.6065090">
        <ele>516.8</ele>
        <time>2019-07-08T04:49:45Z</time>
      </trkpt>
      <trkpt lat="40.0279730" lon="-3.6065620">
        <ele>516.6</ele>
        <time>2019-07-08T04:49:46Z</time>
      </trkpt>
      <trkpt lat="40.0278740" lon="-3.6066560">
        <ele>516.6</ele>
        <time>2019-07-08T04:49:49Z</time>
      </trkpt>
      <trkpt lat="40.0277850" lon="-3.6066700">
        <ele>516.6</ele>
        <time>2019-07-08T04:49:51Z</time>
      </trkpt>
      <trkpt lat="40.0277000" lon="-3.6066780">
        <ele>516.8</ele>
        <time>2019-07-08T04:49:53Z</time>
      </trkpt>
      <trkpt lat="40.0276560" lon="-3.6066780">
        <ele>517.0</ele>
        <time>2019-07-08T04:49:54Z</time>
      </trkpt>
      <trkpt lat="40.0274910" lon="-3.6066890">
        <ele>517.8</ele>
        <time>2019-07-08T04:49:58Z</time>
      </trkpt>
      <trkpt lat="40.0273740" lon="-3.6066820">
        <ele>518.0</ele>
        <time>2019-07-08T04:50:01Z</time>
      </trkpt>
      <trkpt lat="40.0271980" lon="-3.6066940">
        <ele>518.8</ele>
        <time>2019-07-08T04:50:05Z</time>
      </trkpt>
      <trkpt lat="40.0270860" lon="-3.6067470">
        <ele>519.2</ele>
        <time>2019-07-08T04:50:07Z</time>
      </trkpt>
      <trkpt lat="40.0270400" lon="-3.6067600">
        <ele>519.2</ele>
        <time>2019-07-08T04:50:08Z</time>
      </trkpt>
      <trkpt lat="40.0268580" lon="-3.6068280">
        <ele>520.0</ele>
        <time>2019-07-08T04:50:13Z</time>
      </trkpt>
      <trkpt lat="40.0268110" lon="-3.6069160">
        <ele>520.2</ele>
        <time>2019-07-08T04:50:15Z</time>
      </trkpt>
      <trkpt lat="40.0267860" lon="-3.6070280">
        <ele>520.4</ele>
        <time>2019-07-08T04:50:17Z</time>
      </trkpt>
      <trkpt lat="40.0267490" lon="-3.6072180">
        <ele>520.6</ele>
        <time>2019-07-08T04:50:20Z</time>
      </trkpt>
      <trkpt lat="40.0267280" lon="-3.6073520">
        <ele>520.6</ele>
        <time>2019-07-08T04:50:22Z</time>
      </trkpt>
      <trkpt lat="40.0266140" lon="-3.6078730">
        <ele>520.8</ele>
        <time>2019-07-08T04:50:30Z</time>
      </trkpt>
      <trkpt lat="40.0265190" lon="-3.6083340">
        <ele>521.0</ele>
        <time>2019-07-08T04:50:37Z</time>
      </trkpt>
      <trkpt lat="40.0264150" lon="-3.6088590">
        <ele>521.4</ele>
        <time>2019-07-08T04:50:45Z</time>
      </trkpt>
      <trkpt lat="40.0263450" lon="-3.6092670">
        <ele>521.8</ele>
        <time>2019-07-08T04:50:51Z</time>
      </trkpt>
      <trkpt lat="40.0263220" lon="-3.6094130">
        <ele>521.8</ele>
        <time>2019-07-08T04:50:53Z</time>
      </trkpt>
      <trkpt lat="40.0262130" lon="-3.6098560">
        <ele>521.8</ele>
        <time>2019-07-08T04:50:59Z</time>
      </trkpt>
      <trkpt lat="40.0261210" lon="-3.6103460">
        <ele>521.4</ele>
        <time>2019-07-08T04:51:05Z</time>
      </trkpt>
      <trkpt lat="40.0260180" lon="-3.6108360">
        <ele>521.0</ele>
        <time>2019-07-08T04:51:11Z</time>
      </trkpt>
      <trkpt lat="40.0260010" lon="-3.6109200">
        <ele>521.0</ele>
        <time>2019-07-08T04:51:12Z</time>
      </trkpt>
      <trkpt lat="40.0259060" lon="-3.6114110">
        <ele>520.8</ele>
        <time>2019-07-08T04:51:18Z</time>
      </trkpt>
      <trkpt lat="40.0258910" lon="-3.6114900">
        <ele>520.8</ele>
        <time>2019-07-08T04:51:19Z</time>
      </trkpt>
      <trkpt lat="40.0258650" lon="-3.6116360">
        <ele>520.6</ele>
        <time>2019-07-08T04:51:21Z</time>
      </trkpt>
      <trkpt lat="40.0258290" lon="-3.6118470">
        <ele>520.8</ele>
        <time>2019-07-08T04:51:24Z</time>
      </trkpt>
      <trkpt lat="40.0258240" lon="-3.6119180">
        <ele>520.8</ele>
        <time>2019-07-08T04:51:25Z</time>
      </trkpt>
      <trkpt lat="40.0257840" lon="-3.6121980">
        <ele>520.6</ele>
        <time>2019-07-08T04:51:29Z</time>
      </trkpt>
      <trkpt lat="40.0257560" lon="-3.6122630">
        <ele>520.6</ele>
        <time>2019-07-08T04:51:30Z</time>
      </trkpt>
      <trkpt lat="40.0257100" lon="-3.6123960">
        <ele>520.6</ele>
        <time>2019-07-08T04:51:32Z</time>
      </trkpt>
      <trkpt lat="40.0256430" lon="-3.6126810">
        <ele>520.8</ele>
        <time>2019-07-08T04:51:36Z</time>
      </trkpt>
      <trkpt lat="40.0255580" lon="-3.6131430">
        <ele>520.6</ele>
        <time>2019-07-08T04:51:42Z</time>
      </trkpt>
      <trkpt lat="40.0254160" lon="-3.6138500">
        <ele>520.8</ele>
        <time>2019-07-08T04:51:51Z</time>
      </trkpt>
      <trkpt lat="40.0253880" lon="-3.6140090">
        <ele>520.8</ele>
        <time>2019-07-08T04:51:53Z</time>
      </trkpt>
      <trkpt lat="40.0253480" lon="-3.6142380">
        <ele>521.0</ele>
        <time>2019-07-08T04:51:56Z</time>
      </trkpt>
      <trkpt lat="40.0253050" lon="-3.6144580">
        <ele>520.6</ele>
        <time>2019-07-08T04:51:59Z</time>
      </trkpt>
      <trkpt lat="40.0252020" lon="-3.6149330">
        <ele>521.0</ele>
        <time>2019-07-08T04:52:06Z</time>
      </trkpt>
      <trkpt lat="40.0251900" lon="-3.6150030">
        <ele>521.0</ele>
        <time>2019-07-08T04:52:07Z</time>
      </trkpt>
      <trkpt lat="40.0250590" lon="-3.6156680">
        <ele>520.6</ele>
        <time>2019-07-08T04:52:16Z</time>
      </trkpt>
      <trkpt lat="40.0249800" lon="-3.6160610">
        <ele>520.4</ele>
        <time>2019-07-08T04:52:21Z</time>
      </trkpt>
      <trkpt lat="40.0249320" lon="-3.6162960">
        <ele>520.2</ele>
        <time>2019-07-08T04:52:24Z</time>
      </trkpt>
      <trkpt lat="40.0247970" lon="-3.6170220">
        <ele>519.8</ele>
        <time>2019-07-08T04:52:33Z</time>
      </trkpt>
      <trkpt lat="40.0247840" lon="-3.6171030">
        <ele>519.8</ele>
        <time>2019-07-08T04:52:34Z</time>
      </trkpt>
      <trkpt lat="40.0247350" lon="-3.6173520">
        <ele>519.4</ele>
        <time>2019-07-08T04:52:37Z</time>
      </trkpt>
      <trkpt lat="40.0246090" lon="-3.6179360">
        <ele>519.2</ele>
        <time>2019-07-08T04:52:44Z</time>
      </trkpt>
      <trkpt lat="40.0244770" lon="-3.6186090">
        <ele>518.6</ele>
        <time>2019-07-08T04:52:52Z</time>
      </trkpt>
      <trkpt lat="40.0244610" lon="-3.6186940">
        <ele>518.6</ele>
        <time>2019-07-08T04:52:53Z</time>
      </trkpt>
      <trkpt lat="40.0244130" lon="-3.6189500">
        <ele>518.4</ele>
        <time>2019-07-08T04:52:56Z</time>
      </trkpt>
      <trkpt lat="40.0243430" lon="-3.6193750">
        <ele>518.0</ele>
        <time>2019-07-08T04:53:01Z</time>
      </trkpt>
      <trkpt lat="40.0243830" lon="-3.6196360">
        <ele>517.6</ele>
        <time>2019-07-08T04:53:04Z</time>
      </trkpt>
      <trkpt lat="40.0243500" lon="-3.6198710">
        <ele>517.0</ele>
        <time>2019-07-08T04:53:07Z</time>
      </trkpt>
      <trkpt lat="40.0242910" lon="-3.6199390">
        <ele>516.8</ele>
        <time>2019-07-08T04:53:09Z</time>
      </trkpt>
      <trkpt lat="40.0242610" lon="-3.6199440">
        <ele>516.6</ele>
        <time>2019-07-08T04:53:10Z</time>
      </trkpt>
      <trkpt lat="40.0242300" lon="-3.6199400">
        <ele>516.4</ele>
        <time>2019-07-08T04:53:11Z</time>
      </trkpt>
      <trkpt lat="40.0241770" lon="-3.6199510">
        <ele>516.4</ele>
        <time>2019-07-08T04:53:13Z</time>
      </trkpt>
      <trkpt lat="40.0241630" lon="-3.6199850">
        <ele>516.4</ele>
        <time>2019-07-08T04:53:14Z</time>
      </trkpt>
      <trkpt lat="40.0241640" lon="-3.6201900">
        <ele>516.4</ele>
        <time>2019-07-08T04:53:18Z</time>
      </trkpt>
      <trkpt lat="40.0241530" lon="-3.6203170">
        <ele>516.4</ele>
        <time>2019-07-08T04:53:20Z</time>
      </trkpt>
      <trkpt lat="40.0241110" lon="-3.6205230">
        <ele>516.2</ele>
        <time>2019-07-08T04:53:23Z</time>
      </trkpt>
      <trkpt lat="40.0239830" lon="-3.6211260">
        <ele>516.2</ele>
        <time>2019-07-08T04:53:31Z</time>
      </trkpt>
      <trkpt lat="40.0239710" lon="-3.6212060">
        <ele>515.8</ele>
        <time>2019-07-08T04:53:32Z</time>
      </trkpt>
      <trkpt lat="40.0238990" lon="-3.6216100">
        <ele>515.6</ele>
        <time>2019-07-08T04:53:37Z</time>
      </trkpt>
      <trkpt lat="40.0237630" lon="-3.6223230">
        <ele>515.6</ele>
        <time>2019-07-08T04:53:46Z</time>
      </trkpt>
      <trkpt lat="40.0236250" lon="-3.6230640">
        <ele>514.8</ele>
        <time>2019-07-08T04:53:55Z</time>
      </trkpt>
      <trkpt lat="40.0236090" lon="-3.6231450">
        <ele>514.8</ele>
        <time>2019-07-08T04:53:56Z</time>
      </trkpt>
      <trkpt lat="40.0235660" lon="-3.6233880">
        <ele>514.4</ele>
        <time>2019-07-08T04:53:59Z</time>
      </trkpt>
      <trkpt lat="40.0235030" lon="-3.6237030">
        <ele>514.2</ele>
        <time>2019-07-08T04:54:03Z</time>
      </trkpt>
      <trkpt lat="40.0234940" lon="-3.6237860">
        <ele>514.2</ele>
        <time>2019-07-08T04:54:04Z</time>
      </trkpt>
      <trkpt lat="40.0234730" lon="-3.6239600">
        <ele>514.2</ele>
        <time>2019-07-08T04:54:06Z</time>
      </trkpt>
      <trkpt lat="40.0234570" lon="-3.6240470">
        <ele>514.0</ele>
        <time>2019-07-08T04:54:07Z</time>
      </trkpt>
      <trkpt lat="40.0233690" lon="-3.6245280">
        <ele>514.0</ele>
        <time>2019-07-08T04:54:13Z</time>
      </trkpt>
      <trkpt lat="40.0233130" lon="-3.6248150">
        <ele>515.0</ele>
        <time>2019-07-08T04:54:18Z</time>
      </trkpt>
      <trkpt lat="40.0232520" lon="-3.6250920">
        <ele>515.6</ele>
        <time>2019-07-08T04:54:25Z</time>
      </trkpt>
      <trkpt lat="40.0232330" lon="-3.6251740">
        <ele>516.0</ele>
        <time>2019-07-08T04:54:27Z</time>
      </trkpt>
      <trkpt lat="40.0231870" lon="-3.6253540">
        <ele>516.6</ele>
        <time>2019-07-08T04:54:31Z</time>
      </trkpt>
      <trkpt lat="40.0231330" lon="-3.6256710">
        <ele>517.0</ele>
        <time>2019-07-08T04:54:37Z</time>
      </trkpt>
      <trkpt lat="40.0231280" lon="-3.6257260">
        <ele>517.0</ele>
        <time>2019-07-08T04:54:38Z</time>
      </trkpt>
      <trkpt lat="40.0231250" lon="-3.6257830">
        <ele>517.2</ele>
        <time>2019-07-08T04:54:39Z</time>
      </trkpt>
      <trkpt lat="40.0230680" lon="-3.6261380">
        <ele>517.4</ele>
        <time>2019-07-08T04:54:45Z</time>
      </trkpt>
      <trkpt lat="40.0229210" lon="-3.6268310">
        <ele>518.0</ele>
        <time>2019-07-08T04:54:57Z</time>
      </trkpt>
      <trkpt lat="40.0228930" lon="-3.6269490">
        <ele>518.0</ele>
        <time>2019-07-08T04:54:59Z</time>
      </trkpt>
      <trkpt lat="40.0227560" lon="-3.6275910">
        <ele>518.2</ele>
        <time>2019-07-08T04:55:10Z</time>
      </trkpt>
      <trkpt lat="40.0227440" lon="-3.6276470">
        <ele>518.4</ele>
        <time>2019-07-08T04:55:11Z</time>
      </trkpt>
      <trkpt lat="40.0227320" lon="-3.6277030">
        <ele>518.4</ele>
        <time>2019-07-08T04:55:12Z</time>
      </trkpt>
      <trkpt lat="40.0226380" lon="-3.6282430">
        <ele>519.0</ele>
        <time>2019-07-08T04:55:22Z</time>
      </trkpt>
      <trkpt lat="40.0225900" lon="-3.6285440">
        <ele>519.6</ele>
        <time>2019-07-08T04:55:28Z</time>
      </trkpt>
      <trkpt lat="40.0225600" lon="-3.6286380">
        <ele>520.0</ele>
        <time>2019-07-08T04:55:30Z</time>
      </trkpt>
      <trkpt lat="40.0225300" lon="-3.6287870">
        <ele>520.2</ele>
        <time>2019-07-08T04:55:33Z</time>
      </trkpt>
      <trkpt lat="40.0225110" lon="-3.6289510">
        <ele>520.4</ele>
        <time>2019-07-08T04:55:36Z</time>
      </trkpt>
      <trkpt lat="40.0224770" lon="-3.6292340">
        <ele>520.6</ele>
        <time>2019-07-08T04:55:41Z</time>
      </trkpt>
      <trkpt lat="40.0224560" lon="-3.6295200">
        <ele>520.4</ele>
        <time>2019-07-08T04:55:46Z</time>
      </trkpt>
      <trkpt lat="40.0224590" lon="-3.6296970">
        <ele>520.4</ele>
        <time>2019-07-08T04:55:49Z</time>
      </trkpt>
      <trkpt lat="40.0224760" lon="-3.6298800">
        <ele>520.4</ele>
        <time>2019-07-08T04:55:52Z</time>
      </trkpt>
      <trkpt lat="40.0225610" lon="-3.6303230">
        <ele>520.4</ele>
        <time>2019-07-08T04:55:59Z</time>
      </trkpt>
      <trkpt lat="40.0227630" lon="-3.6308650">
        <ele>520.4</ele>
        <time>2019-07-08T04:56:08Z</time>
      </trkpt>
      <trkpt lat="40.0230640" lon="-3.6314510">
        <ele>520.4</ele>
        <time>2019-07-08T04:56:18Z</time>
      </trkpt>
      <trkpt lat="40.0231220" lon="-3.6315690">
        <ele>520.4</ele>
        <time>2019-07-08T04:56:20Z</time>
      </trkpt>
      <trkpt lat="40.0232380" lon="-3.6318830">
        <ele>520.0</ele>
        <time>2019-07-08T04:56:25Z</time>
      </trkpt>
      <trkpt lat="40.0233200" lon="-3.6321410">
        <ele>520.0</ele>
        <time>2019-07-08T04:56:29Z</time>
      </trkpt>
      <trkpt lat="40.0234280" lon="-3.6326690">
        <ele>520.0</ele>
        <time>2019-07-08T04:56:37Z</time>
      </trkpt>
      <trkpt lat="40.0234290" lon="-3.6330750">
        <ele>520.0</ele>
        <time>2019-07-08T04:56:43Z</time>
      </trkpt>
      <trkpt lat="40.0234350" lon="-3.6331400">
        <ele>520.0</ele>
        <time>2019-07-08T04:56:44Z</time>
      </trkpt>
      <trkpt lat="40.0234410" lon="-3.6332710">
        <ele>520.0</ele>
        <time>2019-07-08T04:56:46Z</time>
      </trkpt>
      <trkpt lat="40.0234170" lon="-3.6334740">
        <ele>520.2</ele>
        <time>2019-07-08T04:56:49Z</time>
      </trkpt>
      <trkpt lat="40.0234100" lon="-3.6335440">
        <ele>520.2</ele>
        <time>2019-07-08T04:56:50Z</time>
      </trkpt>
      <trkpt lat="40.0234390" lon="-3.6337560">
        <ele>520.2</ele>
        <time>2019-07-08T04:56:53Z</time>
      </trkpt>
      <trkpt lat="40.0234510" lon="-3.6338260">
        <ele>520.2</ele>
        <time>2019-07-08T04:56:54Z</time>
      </trkpt>
      <trkpt lat="40.0234310" lon="-3.6340430">
        <ele>520.0</ele>
        <time>2019-07-08T04:56:57Z</time>
      </trkpt>
      <trkpt lat="40.0233240" lon="-3.6342020">
        <ele>519.8</ele>
        <time>2019-07-08T04:57:00Z</time>
      </trkpt>
      <trkpt lat="40.0232790" lon="-3.6342420">
        <ele>519.8</ele>
        <time>2019-07-08T04:57:01Z</time>
      </trkpt>
      <trkpt lat="40.0232360" lon="-3.6342840">
        <ele>519.8</ele>
        <time>2019-07-08T04:57:02Z</time>
      </trkpt>
      <trkpt lat="40.0231430" lon="-3.6344490">
        <ele>520.0</ele>
        <time>2019-07-08T04:57:05Z</time>
      </trkpt>
      <trkpt lat="40.0231010" lon="-3.6345690">
        <ele>520.2</ele>
        <time>2019-07-08T04:57:07Z</time>
      </trkpt>
      <trkpt lat="40.0229880" lon="-3.6349320">
        <ele>520.8</ele>
        <time>2019-07-08T04:57:13Z</time>
      </trkpt>
      <trkpt lat="40.0229290" lon="-3.6352670">
        <ele>521.0</ele>
        <time>2019-07-08T04:57:18Z</time>
      </trkpt>
      <trkpt lat="40.0229250" lon="-3.6354100">
        <ele>521.0</ele>
        <time>2019-07-08T04:57:20Z</time>
      </trkpt>
      <trkpt lat="40.0229620" lon="-3.6359300">
        <ele>520.8</ele>
        <time>2019-07-08T04:57:27Z</time>
      </trkpt>
      <trkpt lat="40.0229640" lon="-3.6360040">
        <ele>520.6</ele>
        <time>2019-07-08T04:57:28Z</time>
      </trkpt>
      <trkpt lat="40.0229320" lon="-3.6362080">
        <ele>520.4</ele>
        <time>2019-07-08T04:57:31Z</time>
      </trkpt>
      <trkpt lat="40.0228800" lon="-3.6364080">
        <ele>520.2</ele>
        <time>2019-07-08T04:57:34Z</time>
      </trkpt>
      <trkpt lat="40.0228180" lon="-3.6366220">
        <ele>520.0</ele>
        <time>2019-07-08T04:57:37Z</time>
      </trkpt>
      <trkpt lat="40.0226930" lon="-3.6369420">
        <ele>519.4</ele>
        <time>2019-07-08T04:57:42Z</time>
      </trkpt>
      <trkpt lat="40.0226380" lon="-3.6370600">
        <ele>519.4</ele>
        <time>2019-07-08T04:57:44Z</time>
      </trkpt>
      <trkpt lat="40.0224280" lon="-3.6376150">
        <ele>519.8</ele>
        <time>2019-07-08T04:57:53Z</time>
      </trkpt>
      <trkpt lat="40.0224010" lon="-3.6376730">
        <ele>519.8</ele>
        <time>2019-07-08T04:57:54Z</time>
      </trkpt>
      <trkpt lat="40.0222590" lon="-3.6378840">
        <ele>519.8</ele>
        <time>2019-07-08T04:57:58Z</time>
      </trkpt>
      <trkpt lat="40.0220730" lon="-3.6382610">
        <ele>519.4</ele>
        <time>2019-07-08T04:58:04Z</time>
      </trkpt>
      <trkpt lat="40.0220430" lon="-3.6383230">
        <ele>519.4</ele>
        <time>2019-07-08T04:58:05Z</time>
      </trkpt>
      <trkpt lat="40.0219820" lon="-3.6384430">
        <ele>519.0</ele>
        <time>2019-07-08T04:58:07Z</time>
      </trkpt>
      <trkpt lat="40.0218890" lon="-3.6386090">
        <ele>518.8</ele>
        <time>2019-07-08T04:58:10Z</time>
      </trkpt>
      <trkpt lat="40.0218570" lon="-3.6386630">
        <ele>518.4</ele>
        <time>2019-07-08T04:58:11Z</time>
      </trkpt>
      <trkpt lat="40.0217890" lon="-3.6387730">
        <ele>518.2</ele>
        <time>2019-07-08T04:58:13Z</time>
      </trkpt>
      <trkpt lat="40.0216800" lon="-3.6389460">
        <ele>517.4</ele>
        <time>2019-07-08T04:58:16Z</time>
      </trkpt>
      <trkpt lat="40.0215300" lon="-3.6391620">
        <ele>516.6</ele>
        <time>2019-07-08T04:58:20Z</time>
      </trkpt>
      <trkpt lat="40.0214550" lon="-3.6392480">
        <ele>516.2</ele>
        <time>2019-07-08T04:58:22Z</time>
      </trkpt>
      <trkpt lat="40.0213820" lon="-3.6393120">
        <ele>514.8</ele>
        <time>2019-07-08T04:58:24Z</time>
      </trkpt>
      <trkpt lat="40.0213410" lon="-3.6393290">
        <ele>514.4</ele>
        <time>2019-07-08T04:58:25Z</time>
      </trkpt>
      <trkpt lat="40.0212020" lon="-3.6393260">
        <ele>513.8</ele>
        <time>2019-07-08T04:58:28Z</time>
      </trkpt>
      <trkpt lat="40.0211550" lon="-3.6393080">
        <ele>513.6</ele>
        <time>2019-07-08T04:58:29Z</time>
      </trkpt>
      <trkpt lat="40.0210260" lon="-3.6392180">
        <ele>512.6</ele>
        <time>2019-07-08T04:58:32Z</time>
      </trkpt>
      <trkpt lat="40.0209820" lon="-3.6391790">
        <ele>512.0</ele>
        <time>2019-07-08T04:58:33Z</time>
      </trkpt>
      <trkpt lat="40.0209360" lon="-3.6391390">
        <ele>511.6</ele>
        <time>2019-07-08T04:58:34Z</time>
      </trkpt>
      <trkpt lat="40.0208260" lon="-3.6390550">
        <ele>510.6</ele>
        <time>2019-07-08T04:58:36Z</time>
      </trkpt>
      <trkpt lat="40.0207640" lon="-3.6390210">
        <ele>510.2</ele>
        <time>2019-07-08T04:58:37Z</time>
      </trkpt>
      <trkpt lat="40.0207010" lon="-3.6390000">
        <ele>509.6</ele>
        <time>2019-07-08T04:58:38Z</time>
      </trkpt>
      <trkpt lat="40.0206420" lon="-3.6389930">
        <ele>509.0</ele>
        <time>2019-07-08T04:58:39Z</time>
      </trkpt>
      <trkpt lat="40.0205260" lon="-3.6390080">
        <ele>508.6</ele>
        <time>2019-07-08T04:58:41Z</time>
      </trkpt>
      <trkpt lat="40.0204740" lon="-3.6390110">
        <ele>508.6</ele>
        <time>2019-07-08T04:58:42Z</time>
      </trkpt>
      <trkpt lat="40.0203360" lon="-3.6389680">
        <ele>508.2</ele>
        <time>2019-07-08T04:58:46Z</time>
      </trkpt>
      <trkpt lat="40.0202800" lon="-3.6389410">
        <ele>508.6</ele>
        <time>2019-07-08T04:58:48Z</time>
      </trkpt>
      <trkpt lat="40.0202250" lon="-3.6389150">
        <ele>509.2</ele>
        <time>2019-07-08T04:58:50Z</time>
      </trkpt>
      <trkpt lat="40.0201650" lon="-3.6388880">
        <ele>509.6</ele>
        <time>2019-07-08T04:58:52Z</time>
      </trkpt>
      <trkpt lat="40.0201320" lon="-3.6388730">
        <ele>509.6</ele>
        <time>2019-07-08T04:58:53Z</time>
      </trkpt>
      <trkpt lat="40.0200070" lon="-3.6388200">
        <ele>509.6</ele>
        <time>2019-07-08T04:58:57Z</time>
      </trkpt>
      <trkpt lat="40.0199870" lon="-3.6388140">
        <ele>510.0</ele>
        <time>2019-07-08T04:58:59Z</time>
      </trkpt>
      <trkpt lat="40.0199880" lon="-3.6388160">
        <ele>510.2</ele>
        <time>2019-07-08T04:59:00Z</time>
      </trkpt>
      <trkpt lat="40.0200220" lon="-3.6388440">
        <ele>510.0</ele>
        <time>2019-07-08T04:59:05Z</time>
      </trkpt>
      <trkpt lat="40.0200680" lon="-3.6388560">
        <ele>510.0</ele>
        <time>2019-07-08T04:59:07Z</time>
      </trkpt>
      <trkpt lat="40.0201310" lon="-3.6388820">
        <ele>510.0</ele>
        <time>2019-07-08T04:59:09Z</time>
      </trkpt>
      <trkpt lat="40.0202450" lon="-3.6389300">
        <ele>510.0</ele>
        <time>2019-07-08T04:59:12Z</time>
      </trkpt>
      <trkpt lat="40.0203930" lon="-3.6389960">
        <ele>509.4</ele>
        <time>2019-07-08T04:59:16Z</time>
      </trkpt>
      <trkpt lat="40.0204370" lon="-3.6390200">
        <ele>508.6</ele>
        <time>2019-07-08T04:59:18Z</time>
      </trkpt>
      <trkpt lat="40.0204490" lon="-3.6390360">
        <ele>508.2</ele>
        <time>2019-07-08T04:59:19Z</time>
      </trkpt>
      <trkpt lat="40.0204520" lon="-3.6390550">
        <ele>508.0</ele>
        <time>2019-07-08T04:59:20Z</time>
      </trkpt>
      <trkpt lat="40.0204280" lon="-3.6390920">
        <ele>507.6</ele>
        <time>2019-07-08T04:59:22Z</time>
      </trkpt>
      <trkpt lat="40.0203840" lon="-3.6391350">
        <ele>507.6</ele>
        <time>2019-07-08T04:59:24Z</time>
      </trkpt>
      <trkpt lat="40.0202870" lon="-3.6392500">
        <ele>507.6</ele>
        <time>2019-07-08T04:59:28Z</time>
      </trkpt>
      <trkpt lat="40.0201810" lon="-3.6395060">
        <ele>508.6</ele>
        <time>2019-07-08T04:59:34Z</time>
      </trkpt>
      <trkpt lat="40.0201460" lon="-3.6398670">
        <ele>509.0</ele>
        <time>2019-07-08T04:59:41Z</time>
      </trkpt>
      <trkpt lat="40.0201770" lon="-3.6400290">
        <ele>509.4</ele>
        <time>2019-07-08T04:59:44Z</time>
      </trkpt>
      <trkpt lat="40.0202130" lon="-3.6401290">
        <ele>509.6</ele>
        <time>2019-07-08T04:59:46Z</time>
      </trkpt>
      <trkpt lat="40.0202350" lon="-3.6401770">
        <ele>509.8</ele>
        <time>2019-07-08T04:59:47Z</time>
      </trkpt>
      <trkpt lat="40.0202610" lon="-3.6402240">
        <ele>509.8</ele>
        <time>2019-07-08T04:59:48Z</time>
      </trkpt>
      <trkpt lat="40.0204180" lon="-3.6404580">
        <ele>510.2</ele>
        <time>2019-07-08T04:59:53Z</time>
      </trkpt>
      <trkpt lat="40.0204490" lon="-3.6405160">
        <ele>510.2</ele>
        <time>2019-07-08T04:59:54Z</time>
      </trkpt>
      <trkpt lat="40.0204780" lon="-3.6407200">
        <ele>509.8</ele>
        <time>2019-07-08T04:59:57Z</time>
      </trkpt>
      <trkpt lat="40.0204040" lon="-3.6408840">
        <ele>509.4</ele>
        <time>2019-07-08T05:00:00Z</time>
      </trkpt>
      <trkpt lat="40.0203030" lon="-3.6410630">
        <ele>510.0</ele>
        <time>2019-07-08T05:00:04Z</time>
      </trkpt>
      <trkpt lat="40.0202820" lon="-3.6411110">
        <ele>510.2</ele>
        <time>2019-07-08T05:00:05Z</time>
      </trkpt>
      <trkpt lat="40.0202660" lon="-3.6411640">
        <ele>510.2</ele>
        <time>2019-07-08T05:00:06Z</time>
      </trkpt>
      <trkpt lat="40.0202290" lon="-3.6413280">
        <ele>510.4</ele>
        <time>2019-07-08T05:00:09Z</time>
      </trkpt>
      <trkpt lat="40.0201730" lon="-3.6414130">
        <ele>510.4</ele>
        <time>2019-07-08T05:00:11Z</time>
      </trkpt>
      <trkpt lat="40.0201140" lon="-3.6414940">
        <ele>510.2</ele>
        <time>2019-07-08T05:00:13Z</time>
      </trkpt>
      <trkpt lat="40.0200080" lon="-3.6416520">
        <ele>509.8</ele>
        <time>2019-07-08T05:00:17Z</time>
      </trkpt>
      <trkpt lat="40.0199010" lon="-3.6417650">
        <ele>508.8</ele>
        <time>2019-07-08T05:00:21Z</time>
      </trkpt>
      <trkpt lat="40.0198750" lon="-3.6418110">
        <ele>508.6</ele>
        <time>2019-07-08T05:00:22Z</time>
      </trkpt>
      <trkpt lat="40.0198170" lon="-3.6419350">
        <ele>507.8</ele>
        <time>2019-07-08T05:00:24Z</time>
      </trkpt>
      <trkpt lat="40.0197810" lon="-3.6420020">
        <ele>507.6</ele>
        <time>2019-07-08T05:00:25Z</time>
      </trkpt>
      <trkpt lat="40.0197410" lon="-3.6420600">
        <ele>507.0</ele>
        <time>2019-07-08T05:00:26Z</time>
      </trkpt>
      <trkpt lat="40.0196000" lon="-3.6422020">
        <ele>506.4</ele>
        <time>2019-07-08T05:00:29Z</time>
      </trkpt>
      <trkpt lat="40.0192710" lon="-3.6425030">
        <ele>506.0</ele>
        <time>2019-07-08T05:00:36Z</time>
      </trkpt>
      <trkpt lat="40.0192270" lon="-3.6425480">
        <ele>506.0</ele>
        <time>2019-07-08T05:00:37Z</time>
      </trkpt>
      <trkpt lat="40.0190700" lon="-3.6427450">
        <ele>505.8</ele>
        <time>2019-07-08T05:00:41Z</time>
      </trkpt>
      <trkpt lat="40.0190060" lon="-3.6428560">
        <ele>505.8</ele>
        <time>2019-07-08T05:00:43Z</time>
      </trkpt>
      <trkpt lat="40.0187970" lon="-3.6433410">
        <ele>506.0</ele>
        <time>2019-07-08T05:00:51Z</time>
      </trkpt>
      <trkpt lat="40.0186340" lon="-3.6438570">
        <ele>505.8</ele>
        <time>2019-07-08T05:00:59Z</time>
      </trkpt>
      <trkpt lat="40.0184710" lon="-3.6441560">
        <ele>506.2</ele>
        <time>2019-07-08T05:01:05Z</time>
      </trkpt>
      <trkpt lat="40.0184420" lon="-3.6442040">
        <ele>506.2</ele>
        <time>2019-07-08T05:01:06Z</time>
      </trkpt>
      <trkpt lat="40.0183750" lon="-3.6443720">
        <ele>506.4</ele>
        <time>2019-07-08T05:01:09Z</time>
      </trkpt>
      <trkpt lat="40.0183580" lon="-3.6444330">
        <ele>506.4</ele>
        <time>2019-07-08T05:01:10Z</time>
      </trkpt>
      <trkpt lat="40.0183110" lon="-3.6446330">
        <ele>506.0</ele>
        <time>2019-07-08T05:01:13Z</time>
      </trkpt>
      <trkpt lat="40.0182630" lon="-3.6447720">
        <ele>505.8</ele>
        <time>2019-07-08T05:01:15Z</time>
      </trkpt>
      <trkpt lat="40.0180750" lon="-3.6451600">
        <ele>505.2</ele>
        <time>2019-07-08T05:01:21Z</time>
      </trkpt>
      <trkpt lat="40.0180150" lon="-3.6452840">
        <ele>505.2</ele>
        <time>2019-07-08T05:01:23Z</time>
      </trkpt>
      <trkpt lat="40.0178360" lon="-3.6456580">
        <ele>505.4</ele>
        <time>2019-07-08T05:01:29Z</time>
      </trkpt>
      <trkpt lat="40.0177720" lon="-3.6457820">
        <ele>505.4</ele>
        <time>2019-07-08T05:01:31Z</time>
      </trkpt>
      <trkpt lat="40.0175510" lon="-3.6462750">
        <ele>505.4</ele>
        <time>2019-07-08T05:01:39Z</time>
      </trkpt>
      <trkpt lat="40.0175350" lon="-3.6463410">
        <ele>505.4</ele>
        <time>2019-07-08T05:01:40Z</time>
      </trkpt>
      <trkpt lat="40.0175330" lon="-3.6466250">
        <ele>505.6</ele>
        <time>2019-07-08T05:01:44Z</time>
      </trkpt>
      <trkpt lat="40.0175780" lon="-3.6472040">
        <ele>505.4</ele>
        <time>2019-07-08T05:01:52Z</time>
      </trkpt>
      <trkpt lat="40.0175000" lon="-3.6476450">
        <ele>505.4</ele>
        <time>2019-07-08T05:01:58Z</time>
      </trkpt>
      <trkpt lat="40.0174530" lon="-3.6477780">
        <ele>505.4</ele>
        <time>2019-07-08T05:02:00Z</time>
      </trkpt>
      <trkpt lat="40.0173450" lon="-3.6480360">
        <ele>505.2</ele>
        <time>2019-07-08T05:02:04Z</time>
      </trkpt>
      <trkpt lat="40.0171620" lon="-3.6483910">
        <ele>505.0</ele>
        <time>2019-07-08T05:02:10Z</time>
      </trkpt>
      <trkpt lat="40.0171220" lon="-3.6484390">
        <ele>505.0</ele>
        <time>2019-07-08T05:02:11Z</time>
      </trkpt>
      <trkpt lat="40.0168770" lon="-3.6487180">
        <ele>505.2</ele>
        <time>2019-07-08T05:02:17Z</time>
      </trkpt>
      <trkpt lat="40.0166470" lon="-3.6490980">
        <ele>505.8</ele>
        <time>2019-07-08T05:02:24Z</time>
      </trkpt>
      <trkpt lat="40.0166280" lon="-3.6491630">
        <ele>505.8</ele>
        <time>2019-07-08T05:02:25Z</time>
      </trkpt>
      <trkpt lat="40.0166270" lon="-3.6494480">
        <ele>505.6</ele>
        <time>2019-07-08T05:02:29Z</time>
      </trkpt>
      <trkpt lat="40.0166360" lon="-3.6495180">
        <ele>505.6</ele>
        <time>2019-07-08T05:02:30Z</time>
      </trkpt>
      <trkpt lat="40.0166820" lon="-3.6501690">
        <ele>505.4</ele>
        <time>2019-07-08T05:02:39Z</time>
      </trkpt>
      <trkpt lat="40.0166930" lon="-3.6502430">
        <ele>505.4</ele>
        <time>2019-07-08T05:02:40Z</time>
      </trkpt>
      <trkpt lat="40.0167790" lon="-3.6505250">
        <ele>505.4</ele>
        <time>2019-07-08T05:02:44Z</time>
      </trkpt>
      <trkpt lat="40.0168310" lon="-3.6506570">
        <ele>505.4</ele>
        <time>2019-07-08T05:02:46Z</time>
      </trkpt>
      <trkpt lat="40.0168530" lon="-3.6508720">
        <ele>505.4</ele>
        <time>2019-07-08T05:02:49Z</time>
      </trkpt>
      <trkpt lat="40.0168210" lon="-3.6510890">
        <ele>505.2</ele>
        <time>2019-07-08T05:02:52Z</time>
      </trkpt>
      <trkpt lat="40.0167770" lon="-3.6513050">
        <ele>505.4</ele>
        <time>2019-07-08T05:02:55Z</time>
      </trkpt>
      <trkpt lat="40.0166400" lon="-3.6519630">
        <ele>505.2</ele>
        <time>2019-07-08T05:03:04Z</time>
      </trkpt>
      <trkpt lat="40.0165050" lon="-3.6526080">
        <ele>505.4</ele>
        <time>2019-07-08T05:03:13Z</time>
      </trkpt>
      <trkpt lat="40.0164610" lon="-3.6528180">
        <ele>505.2</ele>
        <time>2019-07-08T05:03:16Z</time>
      </trkpt>
      <trkpt lat="40.0163480" lon="-3.6533770">
        <ele>504.8</ele>
        <time>2019-07-08T05:03:24Z</time>
      </trkpt>
      <trkpt lat="40.0163320" lon="-3.6534420">
        <ele>504.8</ele>
        <time>2019-07-08T05:03:25Z</time>
      </trkpt>
      <trkpt lat="40.0162470" lon="-3.6535920">
        <ele>505.0</ele>
        <time>2019-07-08T05:03:28Z</time>
      </trkpt>
      <trkpt lat="40.0162140" lon="-3.6536290">
        <ele>505.2</ele>
        <time>2019-07-08T05:03:29Z</time>
      </trkpt>
      <trkpt lat="40.0161840" lon="-3.6536670">
        <ele>505.0</ele>
        <time>2019-07-08T05:03:30Z</time>
      </trkpt>
      <trkpt lat="40.0161170" lon="-3.6537890">
        <ele>505.6</ele>
        <time>2019-07-08T05:03:33Z</time>
      </trkpt>
      <trkpt lat="40.0160000" lon="-3.6540000">
        <ele>506.4</ele>
        <time>2019-07-08T05:03:39Z</time>
      </trkpt>
      <trkpt lat="40.0159940" lon="-3.6540110">
        <ele>506.6</ele>
        <time>2019-07-08T05:03:42Z</time>
      </trkpt>
      <trkpt lat="40.0160250" lon="-3.6539690">
        <ele>506.6</ele>
        <time>2019-07-08T05:03:53Z</time>
      </trkpt>
      <trkpt lat="40.0160850" lon="-3.6539750">
        <ele>506.2</ele>
        <time>2019-07-08T05:03:57Z</time>
      </trkpt>
      <trkpt lat="40.0160890" lon="-3.6540350">
        <ele>505.8</ele>
        <time>2019-07-08T05:03:59Z</time>
      </trkpt>
      <trkpt lat="40.0160760" lon="-3.6541230">
        <ele>505.4</ele>
        <time>2019-07-08T05:04:01Z</time>
      </trkpt>
      <trkpt lat="40.0160540" lon="-3.6542310">
        <ele>505.0</ele>
        <time>2019-07-08T05:04:03Z</time>
      </trkpt>
      <trkpt lat="40.0159930" lon="-3.6543750">
        <ele>504.8</ele>
        <time>2019-07-08T05:04:06Z</time>
      </trkpt>
      <trkpt lat="40.0159290" lon="-3.6544980">
        <ele>504.6</ele>
        <time>2019-07-08T05:04:09Z</time>
      </trkpt>
      <trkpt lat="40.0158480" lon="-3.6546680">
        <ele>504.8</ele>
        <time>2019-07-08T05:04:13Z</time>
      </trkpt>
      <trkpt lat="40.0158370" lon="-3.6547190">
        <ele>504.8</ele>
        <time>2019-07-08T05:04:14Z</time>
      </trkpt>
      <trkpt lat="40.0158520" lon="-3.6548880">
        <ele>504.8</ele>
        <time>2019-07-08T05:04:17Z</time>
      </trkpt>
      <trkpt lat="40.0158890" lon="-3.6549930">
        <ele>504.8</ele>
        <time>2019-07-08T05:04:19Z</time>
      </trkpt>
      <trkpt lat="40.0159720" lon="-3.6552030">
        <ele>504.8</ele>
        <time>2019-07-08T05:04:23Z</time>
      </trkpt>
      <trkpt lat="40.0160110" lon="-3.6554380">
        <ele>504.6</ele>
        <time>2019-07-08T05:04:27Z</time>
      </trkpt>
      <trkpt lat="40.0160070" lon="-3.6555020">
        <ele>504.6</ele>
        <time>2019-07-08T05:04:28Z</time>
      </trkpt>
      <trkpt lat="40.0159910" lon="-3.6556280">
        <ele>504.6</ele>
        <time>2019-07-08T05:04:30Z</time>
      </trkpt>
      <trkpt lat="40.0159360" lon="-3.6558770">
        <ele>504.8</ele>
        <time>2019-07-08T05:04:34Z</time>
      </trkpt>
      <trkpt lat="40.0158550" lon="-3.6562460">
        <ele>504.6</ele>
        <time>2019-07-08T05:04:40Z</time>
      </trkpt>
      <trkpt lat="40.0158250" lon="-3.6563690">
        <ele>504.8</ele>
        <time>2019-07-08T05:04:42Z</time>
      </trkpt>
      <trkpt lat="40.0157940" lon="-3.6564940">
        <ele>504.8</ele>
        <time>2019-07-08T05:04:44Z</time>
      </trkpt>
      <trkpt lat="40.0156360" lon="-3.6570580">
        <ele>504.8</ele>
        <time>2019-07-08T05:04:53Z</time>
      </trkpt>
      <trkpt lat="40.0154550" lon="-3.6576830">
        <ele>504.4</ele>
        <time>2019-07-08T05:05:03Z</time>
      </trkpt>
      <trkpt lat="40.0152950" lon="-3.6580240">
        <ele>504.4</ele>
        <time>2019-07-08T05:05:09Z</time>
      </trkpt>
      <trkpt lat="40.0152630" lon="-3.6580760">
        <ele>504.6</ele>
        <time>2019-07-08T05:05:10Z</time>
      </trkpt>
      <trkpt lat="40.0149820" lon="-3.6585490">
        <ele>504.4</ele>
        <time>2019-07-08T05:05:19Z</time>
      </trkpt>
      <trkpt lat="40.0149330" lon="-3.6586670">
        <ele>504.4</ele>
        <time>2019-07-08T05:05:21Z</time>
      </trkpt>
      <trkpt lat="40.0148800" lon="-3.6589260">
        <ele>504.6</ele>
        <time>2019-07-08T05:05:25Z</time>
      </trkpt>
      <trkpt lat="40.0147710" lon="-3.6595140">
        <ele>504.4</ele>
        <time>2019-07-08T05:05:34Z</time>
      </trkpt>
      <trkpt lat="40.0147460" lon="-3.6595750">
        <ele>504.4</ele>
        <time>2019-07-08T05:05:35Z</time>
      </trkpt>
      <trkpt lat="40.0147150" lon="-3.6596310">
        <ele>504.2</ele>
        <time>2019-07-08T05:05:36Z</time>
      </trkpt>
      <trkpt lat="40.0146410" lon="-3.6597330">
        <ele>503.8</ele>
        <time>2019-07-08T05:05:38Z</time>
      </trkpt>
      <trkpt lat="40.0146010" lon="-3.6597770">
        <ele>503.8</ele>
        <time>2019-07-08T05:05:39Z</time>
      </trkpt>
      <trkpt lat="40.0144200" lon="-3.6599170">
        <ele>504.2</ele>
        <time>2019-07-08T05:05:43Z</time>
      </trkpt>
      <trkpt lat="40.0143360" lon="-3.6599980">
        <ele>504.2</ele>
        <time>2019-07-08T05:05:45Z</time>
      </trkpt>
      <trkpt lat="40.0142720" lon="-3.6601030">
        <ele>504.0</ele>
        <time>2019-07-08T05:05:47Z</time>
      </trkpt>
      <trkpt lat="40.0142130" lon="-3.6602840">
        <ele>504.4</ele>
        <time>2019-07-08T05:05:50Z</time>
      </trkpt>
      <trkpt lat="40.0141780" lon="-3.6604060">
        <ele>504.2</ele>
        <time>2019-07-08T05:05:52Z</time>
      </trkpt>
      <trkpt lat="40.0140830" lon="-3.6607090">
        <ele>503.8</ele>
        <time>2019-07-08T05:05:57Z</time>
      </trkpt>
      <trkpt lat="40.0140550" lon="-3.6607640">
        <ele>503.8</ele>
        <time>2019-07-08T05:05:58Z</time>
      </trkpt>
      <trkpt lat="40.0138710" lon="-3.6609440">
        <ele>504.2</ele>
        <time>2019-07-08T05:06:03Z</time>
      </trkpt>
      <trkpt lat="40.0138280" lon="-3.6609570">
        <ele>504.2</ele>
        <time>2019-07-08T05:06:04Z</time>
      </trkpt>
      <trkpt lat="40.0137500" lon="-3.6610030">
        <ele>504.2</ele>
        <time>2019-07-08T05:06:07Z</time>
      </trkpt>
      <trkpt lat="40.0137290" lon="-3.6611290">
        <ele>504.4</ele>
        <time>2019-07-08T05:06:11Z</time>
      </trkpt>
      <trkpt lat="40.0137220" lon="-3.6611780">
        <ele>504.2</ele>
        <time>2019-07-08T05:06:12Z</time>
      </trkpt>
      <trkpt lat="40.0136720" lon="-3.6614910">
        <ele>503.6</ele>
        <time>2019-07-08T05:06:17Z</time>
      </trkpt>
      <trkpt lat="40.0136640" lon="-3.6615550">
        <ele>503.6</ele>
        <time>2019-07-08T05:06:18Z</time>
      </trkpt>
      <trkpt lat="40.0136090" lon="-3.6618060">
        <ele>503.4</ele>
        <time>2019-07-08T05:06:22Z</time>
      </trkpt>
      <trkpt lat="40.0135620" lon="-3.6619210">
        <ele>503.6</ele>
        <time>2019-07-08T05:06:24Z</time>
      </trkpt>
      <trkpt lat="40.0135070" lon="-3.6620190">
        <ele>503.8</ele>
        <time>2019-07-08T05:06:26Z</time>
      </trkpt>
      <trkpt lat="40.0134000" lon="-3.6621380">
        <ele>503.8</ele>
        <time>2019-07-08T05:06:29Z</time>
      </trkpt>
      <trkpt lat="40.0131160" lon="-3.6623490">
        <ele>503.6</ele>
        <time>2019-07-08T05:06:36Z</time>
      </trkpt>
      <trkpt lat="40.0130350" lon="-3.6624110">
        <ele>503.4</ele>
        <time>2019-07-08T05:06:38Z</time>
      </trkpt>
      <trkpt lat="40.0128980" lon="-3.6625700">
        <ele>503.4</ele>
        <time>2019-07-08T05:06:42Z</time>
      </trkpt>
      <trkpt lat="40.0126360" lon="-3.6629420">
        <ele>503.4</ele>
        <time>2019-07-08T05:06:50Z</time>
      </trkpt>
      <trkpt lat="40.0126080" lon="-3.6629920">
        <ele>503.4</ele>
        <time>2019-07-08T05:06:51Z</time>
      </trkpt>
      <trkpt lat="40.0124880" lon="-3.6632580">
        <ele>502.8</ele>
        <time>2019-07-08T05:06:56Z</time>
      </trkpt>
      <trkpt lat="40.0124100" lon="-3.6634740">
        <ele>503.2</ele>
        <time>2019-07-08T05:07:00Z</time>
      </trkpt>
      <trkpt lat="40.0123690" lon="-3.6635850">
        <ele>503.4</ele>
        <time>2019-07-08T05:07:02Z</time>
      </trkpt>
      <trkpt lat="40.0123010" lon="-3.6640180">
        <ele>503.6</ele>
        <time>2019-07-08T05:07:09Z</time>
      </trkpt>
      <trkpt lat="40.0123180" lon="-3.6645440">
        <ele>503.2</ele>
        <time>2019-07-08T05:07:17Z</time>
      </trkpt>
      <trkpt lat="40.0122860" lon="-3.6650700">
        <ele>503.8</ele>
        <time>2019-07-08T05:07:25Z</time>
      </trkpt>
      <trkpt lat="40.0121990" lon="-3.6655220">
        <ele>502.8</ele>
        <time>2019-07-08T05:07:32Z</time>
      </trkpt>
      <trkpt lat="40.0121920" lon="-3.6655900">
        <ele>502.8</ele>
        <time>2019-07-08T05:07:33Z</time>
      </trkpt>
      <trkpt lat="40.0121720" lon="-3.6660540">
        <ele>502.8</ele>
        <time>2019-07-08T05:07:40Z</time>
      </trkpt>
      <trkpt lat="40.0121700" lon="-3.6661880">
        <ele>502.8</ele>
        <time>2019-07-08T05:07:42Z</time>
      </trkpt>
      <trkpt lat="40.0121520" lon="-3.6664540">
        <ele>503.6</ele>
        <time>2019-07-08T05:07:46Z</time>
      </trkpt>
      <trkpt lat="40.0120850" lon="-3.6670660">
        <ele>503.0</ele>
        <time>2019-07-08T05:07:55Z</time>
      </trkpt>
      <trkpt lat="40.0120810" lon="-3.6677010">
        <ele>503.4</ele>
        <time>2019-07-08T05:08:04Z</time>
      </trkpt>
      <trkpt lat="40.0120720" lon="-3.6684010">
        <ele>502.8</ele>
        <time>2019-07-08T05:08:14Z</time>
      </trkpt>
      <trkpt lat="40.0120240" lon="-3.6689430">
        <ele>503.0</ele>
        <time>2019-07-08T05:08:22Z</time>
      </trkpt>
      <trkpt lat="40.0119650" lon="-3.6694260">
        <ele>502.6</ele>
        <time>2019-07-08T05:08:29Z</time>
      </trkpt>
      <trkpt lat="40.0119410" lon="-3.6694890">
        <ele>502.4</ele>
        <time>2019-07-08T05:08:30Z</time>
      </trkpt>
      <trkpt lat="40.0118440" lon="-3.6696530">
        <ele>502.8</ele>
        <time>2019-07-08T05:08:33Z</time>
      </trkpt>
      <trkpt lat="40.0117800" lon="-3.6697590">
        <ele>502.8</ele>
        <time>2019-07-08T05:08:35Z</time>
      </trkpt>
      <trkpt lat="40.0116420" lon="-3.6701220">
        <ele>503.0</ele>
        <time>2019-07-08T05:08:41Z</time>
      </trkpt>
      <trkpt lat="40.0114410" lon="-3.6705070">
        <ele>502.8</ele>
        <time>2019-07-08T05:08:48Z</time>
      </trkpt>
      <trkpt lat="40.0111980" lon="-3.6710040">
        <ele>502.6</ele>
        <time>2019-07-08T05:08:57Z</time>
      </trkpt>
      <trkpt lat="40.0111060" lon="-3.6713110">
        <ele>502.8</ele>
        <time>2019-07-08T05:09:02Z</time>
      </trkpt>
      <trkpt lat="40.0110770" lon="-3.6714380">
        <ele>502.8</ele>
        <time>2019-07-08T05:09:04Z</time>
      </trkpt>
      <trkpt lat="40.0109820" lon="-3.6718870">
        <ele>503.2</ele>
        <time>2019-07-08T05:09:11Z</time>
      </trkpt>
      <trkpt lat="40.0109510" lon="-3.6720160">
        <ele>503.2</ele>
        <time>2019-07-08T05:09:13Z</time>
      </trkpt>
      <trkpt lat="40.0109060" lon="-3.6721390">
        <ele>503.0</ele>
        <time>2019-07-08T05:09:15Z</time>
      </trkpt>
      <trkpt lat="40.0108340" lon="-3.6722380">
        <ele>502.8</ele>
        <time>2019-07-08T05:09:17Z</time>
      </trkpt>
      <trkpt lat="40.0107000" lon="-3.6723350">
        <ele>502.8</ele>
        <time>2019-07-08T05:09:20Z</time>
      </trkpt>
      <trkpt lat="40.0106060" lon="-3.6723910">
        <ele>503.0</ele>
        <time>2019-07-08T05:09:22Z</time>
      </trkpt>
      <trkpt lat="40.0102830" lon="-3.6726170">
        <ele>502.8</ele>
        <time>2019-07-08T05:09:29Z</time>
      </trkpt>
      <trkpt lat="40.0102460" lon="-3.6726650">
        <ele>502.8</ele>
        <time>2019-07-08T05:09:30Z</time>
      </trkpt>
      <trkpt lat="40.0101510" lon="-3.6729100">
        <ele>502.8</ele>
        <time>2019-07-08T05:09:34Z</time>
      </trkpt>
      <trkpt lat="40.0100520" lon="-3.6733940">
        <ele>502.8</ele>
        <time>2019-07-08T05:09:41Z</time>
      </trkpt>
      <trkpt lat="40.0100000" lon="-3.6738890">
        <ele>502.4</ele>
        <time>2019-07-08T05:09:48Z</time>
      </trkpt>
      <trkpt lat="40.0099960" lon="-3.6739600">
        <ele>502.2</ele>
        <time>2019-07-08T05:09:49Z</time>
      </trkpt>
      <trkpt lat="40.0099990" lon="-3.6742460">
        <ele>502.2</ele>
        <time>2019-07-08T05:09:53Z</time>
      </trkpt>
      <trkpt lat="40.0100130" lon="-3.6744590">
        <ele>502.2</ele>
        <time>2019-07-08T05:09:56Z</time>
      </trkpt>
      <trkpt lat="40.0100230" lon="-3.6746010">
        <ele>502.4</ele>
        <time>2019-07-08T05:09:58Z</time>
      </trkpt>
      <trkpt lat="40.0100860" lon="-3.6750220">
        <ele>502.2</ele>
        <time>2019-07-08T05:10:04Z</time>
      </trkpt>
      <trkpt lat="40.0101350" lon="-3.6752210">
        <ele>502.4</ele>
        <time>2019-07-08T05:10:07Z</time>
      </trkpt>
      <trkpt lat="40.0101410" lon="-3.6753590">
        <ele>502.6</ele>
        <time>2019-07-08T05:10:09Z</time>
      </trkpt>
      <trkpt lat="40.0101230" lon="-3.6754940">
        <ele>502.4</ele>
        <time>2019-07-08T05:10:11Z</time>
      </trkpt>
      <trkpt lat="40.0101000" lon="-3.6756320">
        <ele>502.4</ele>
        <time>2019-07-08T05:10:13Z</time>
      </trkpt>
      <trkpt lat="40.0100570" lon="-3.6757590">
        <ele>502.2</ele>
        <time>2019-07-08T05:10:15Z</time>
      </trkpt>
      <trkpt lat="40.0099990" lon="-3.6758760">
        <ele>502.2</ele>
        <time>2019-07-08T05:10:17Z</time>
      </trkpt>
      <trkpt lat="40.0098510" lon="-3.6761620">
        <ele>502.0</ele>
        <time>2019-07-08T05:10:22Z</time>
      </trkpt>
      <trkpt lat="40.0097650" lon="-3.6763250">
        <ele>501.8</ele>
        <time>2019-07-08T05:10:25Z</time>
      </trkpt>
      <trkpt lat="40.0096900" lon="-3.6764070">
        <ele>502.0</ele>
        <time>2019-07-08T05:10:27Z</time>
      </trkpt>
      <trkpt lat="40.0096060" lon="-3.6764620">
        <ele>502.0</ele>
        <time>2019-07-08T05:10:29Z</time>
      </trkpt>
      <trkpt lat="40.0093790" lon="-3.6765810">
        <ele>502.6</ele>
        <time>2019-07-08T05:10:34Z</time>
      </trkpt>
      <trkpt lat="40.0093340" lon="-3.6766070">
        <ele>502.6</ele>
        <time>2019-07-08T05:10:35Z</time>
      </trkpt>
      <trkpt lat="40.0091740" lon="-3.6767630">
        <ele>502.4</ele>
        <time>2019-07-08T05:10:39Z</time>
      </trkpt>
      <trkpt lat="40.0090870" lon="-3.6769290">
        <ele>502.4</ele>
        <time>2019-07-08T05:10:42Z</time>
      </trkpt>
      <trkpt lat="40.0090400" lon="-3.6770480">
        <ele>502.4</ele>
        <time>2019-07-08T05:10:44Z</time>
      </trkpt>
      <trkpt lat="40.0088870" lon="-3.6774770">
        <ele>502.4</ele>
        <time>2019-07-08T05:10:51Z</time>
      </trkpt>
      <trkpt lat="40.0086920" lon="-3.6779740">
        <ele>502.0</ele>
        <time>2019-07-08T05:10:59Z</time>
      </trkpt>
      <trkpt lat="40.0084520" lon="-3.6784290">
        <ele>502.2</ele>
        <time>2019-07-08T05:11:07Z</time>
      </trkpt>
      <trkpt lat="40.0083280" lon="-3.6786390">
        <ele>502.6</ele>
        <time>2019-07-08T05:11:11Z</time>
      </trkpt>
      <trkpt lat="40.0082690" lon="-3.6787490">
        <ele>502.2</ele>
        <time>2019-07-08T05:11:13Z</time>
      </trkpt>
      <trkpt lat="40.0080590" lon="-3.6791350">
        <ele>502.2</ele>
        <time>2019-07-08T05:11:20Z</time>
      </trkpt>
      <trkpt lat="40.0077570" lon="-3.6795970">
        <ele>502.0</ele>
        <time>2019-07-08T05:11:29Z</time>
      </trkpt>
      <trkpt lat="40.0077200" lon="-3.6796470">
        <ele>502.0</ele>
        <time>2019-07-08T05:11:30Z</time>
      </trkpt>
      <trkpt lat="40.0073560" lon="-3.6800510">
        <ele>501.8</ele>
        <time>2019-07-08T05:11:39Z</time>
      </trkpt>
      <trkpt lat="40.0070840" lon="-3.6802650">
        <ele>501.8</ele>
        <time>2019-07-08T05:11:45Z</time>
      </trkpt>
      <trkpt lat="40.0069840" lon="-3.6803070">
        <ele>501.8</ele>
        <time>2019-07-08T05:11:47Z</time>
      </trkpt>
      <trkpt lat="40.0068800" lon="-3.6803360">
        <ele>501.8</ele>
        <time>2019-07-08T05:11:49Z</time>
      </trkpt>
      <trkpt lat="40.0067220" lon="-3.6803500">
        <ele>501.6</ele>
        <time>2019-07-08T05:11:52Z</time>
      </trkpt>
      <trkpt lat="40.0065110" lon="-3.6803560">
        <ele>501.8</ele>
        <time>2019-07-08T05:11:56Z</time>
      </trkpt>
      <trkpt lat="40.0064110" lon="-3.6803940">
        <ele>501.8</ele>
        <time>2019-07-08T05:11:58Z</time>
      </trkpt>
      <trkpt lat="40.0063120" lon="-3.6804470">
        <ele>501.6</ele>
        <time>2019-07-08T05:12:00Z</time>
      </trkpt>
      <trkpt lat="40.0060130" lon="-3.6806040">
        <ele>501.8</ele>
        <time>2019-07-08T05:12:06Z</time>
      </trkpt>
      <trkpt lat="40.0057670" lon="-3.6807340">
        <ele>501.8</ele>
        <time>2019-07-08T05:12:11Z</time>
      </trkpt>
      <trkpt lat="40.0055210" lon="-3.6808620">
        <ele>501.4</ele>
        <time>2019-07-08T05:12:16Z</time>
      </trkpt>
      <trkpt lat="40.0049890" lon="-3.6811460">
        <ele>501.2</ele>
        <time>2019-07-08T05:12:27Z</time>
      </trkpt>
      <trkpt lat="40.0046470" lon="-3.6812950">
        <ele>501.4</ele>
        <time>2019-07-08T05:12:34Z</time>
      </trkpt>
      <trkpt lat="40.0044270" lon="-3.6813420">
        <ele>501.6</ele>
        <time>2019-07-08T05:12:39Z</time>
      </trkpt>
      <trkpt lat="40.0043800" lon="-3.6813780">
        <ele>501.6</ele>
        <time>2019-07-08T05:12:41Z</time>
      </trkpt>
      <trkpt lat="40.0043690" lon="-3.6814150">
        <ele>501.8</ele>
        <time>2019-07-08T05:12:42Z</time>
      </trkpt>
      <trkpt lat="40.0043990" lon="-3.6816310">
        <ele>501.4</ele>
        <time>2019-07-08T05:12:46Z</time>
      </trkpt>
      <trkpt lat="40.0044200" lon="-3.6816910">
        <ele>501.2</ele>
        <time>2019-07-08T05:12:47Z</time>
      </trkpt>
      <trkpt lat="40.0045180" lon="-3.6819690">
        <ele>501.2</ele>
        <time>2019-07-08T05:12:52Z</time>
      </trkpt>
      <trkpt lat="40.0045340" lon="-3.6820200">
        <ele>501.4</ele>
        <time>2019-07-08T05:12:53Z</time>
      </trkpt>
      <trkpt lat="40.0045870" lon="-3.6821710">
        <ele>502.2</ele>
        <time>2019-07-08T05:12:56Z</time>
      </trkpt>
      <trkpt lat="40.0046050" lon="-3.6822190">
        <ele>502.6</ele>
        <time>2019-07-08T05:12:57Z</time>
      </trkpt>
      <trkpt lat="40.0046560" lon="-3.6823610">
        <ele>503.4</ele>
        <time>2019-07-08T05:13:00Z</time>
      </trkpt>
      <trkpt lat="40.0046690" lon="-3.6824080">
        <ele>503.6</ele>
        <time>2019-07-08T05:13:01Z</time>
      </trkpt>
      <trkpt lat="40.0046970" lon="-3.6825000">
        <ele>504.0</ele>
        <time>2019-07-08T05:13:03Z</time>
      </trkpt>
      <trkpt lat="40.0047300" lon="-3.6825960">
        <ele>504.6</ele>
        <time>2019-07-08T05:13:05Z</time>
      </trkpt>
      <trkpt lat="40.0048360" lon="-3.6828900">
        <ele>504.8</ele>
        <time>2019-07-08T05:13:11Z</time>
      </trkpt>
      <trkpt lat="40.0049160" lon="-3.6831480">
        <ele>503.8</ele>
        <time>2019-07-08T05:13:16Z</time>
      </trkpt>
      <trkpt lat="40.0049390" lon="-3.6832040">
        <ele>503.4</ele>
        <time>2019-07-08T05:13:17Z</time>
      </trkpt>
      <trkpt lat="40.0050090" lon="-3.6833100">
        <ele>502.8</ele>
        <time>2019-07-08T05:13:19Z</time>
      </trkpt>
      <trkpt lat="40.0050580" lon="-3.6833560">
        <ele>502.4</ele>
        <time>2019-07-08T05:13:20Z</time>
      </trkpt>
      <trkpt lat="40.0051160" lon="-3.6833920">
        <ele>501.8</ele>
        <time>2019-07-08T05:13:21Z</time>
      </trkpt>
      <trkpt lat="40.0052500" lon="-3.6834140">
        <ele>501.0</ele>
        <time>2019-07-08T05:13:23Z</time>
      </trkpt>
      <trkpt lat="40.0053130" lon="-3.6833950">
        <ele>500.8</ele>
        <time>2019-07-08T05:13:24Z</time>
      </trkpt>
      <trkpt lat="40.0054150" lon="-3.6833200">
        <ele>499.8</ele>
        <time>2019-07-08T05:13:26Z</time>
      </trkpt>
      <trkpt lat="40.0054490" lon="-3.6832810">
        <ele>499.4</ele>
        <time>2019-07-08T05:13:27Z</time>
      </trkpt>
      <trkpt lat="40.0054950" lon="-3.6832310">
        <ele>498.4</ele>
        <time>2019-07-08T05:13:29Z</time>
      </trkpt>
      <trkpt lat="40.0055210" lon="-3.6832130">
        <ele>498.2</ele>
        <time>2019-07-08T05:13:31Z</time>
      </trkpt>
      <trkpt lat="40.0055260" lon="-3.6831690">
        <ele>498.0</ele>
        <time>2019-07-08T05:13:33Z</time>
      </trkpt>
      <trkpt lat="40.0054780" lon="-3.6830920">
        <ele>498.0</ele>
        <time>2019-07-08T05:13:36Z</time>
      </trkpt>
      <trkpt lat="40.0054530" lon="-3.6830630">
        <ele>498.0</ele>
        <time>2019-07-08T05:13:37Z</time>
      </trkpt>
      <trkpt lat="40.0053220" lon="-3.6829390">
        <ele>498.2</ele>
        <time>2019-07-08T05:13:41Z</time>
      </trkpt>
      <trkpt lat="40.0052220" lon="-3.6828390">
        <ele>498.2</ele>
        <time>2019-07-08T05:13:44Z</time>
      </trkpt>
      <trkpt lat="40.0051220" lon="-3.6827410">
        <ele>498.2</ele>
        <time>2019-07-08T05:13:47Z</time>
      </trkpt>
      <trkpt lat="40.0050490" lon="-3.6827190">
        <ele>498.4</ele>
        <time>2019-07-08T05:13:49Z</time>
      </trkpt>
      <trkpt lat="40.0049810" lon="-3.6827410">
        <ele>498.2</ele>
        <time>2019-07-08T05:13:51Z</time>
      </trkpt>
      <trkpt lat="40.0049150" lon="-3.6827980">
        <ele>498.4</ele>
        <time>2019-07-08T05:13:53Z</time>
      </trkpt>
      <trkpt lat="40.0048450" lon="-3.6828680">
        <ele>498.4</ele>
        <time>2019-07-08T05:13:55Z</time>
      </trkpt>
      <trkpt lat="40.0047190" lon="-3.6829790">
        <ele>498.4</ele>
        <time>2019-07-08T05:13:58Z</time>
      </trkpt>
      <trkpt lat="40.0043970" lon="-3.6832570">
        <ele>498.2</ele>
        <time>2019-07-08T05:14:05Z</time>
      </trkpt>
      <trkpt lat="40.0043520" lon="-3.6832990">
        <ele>498.0</ele>
        <time>2019-07-08T05:14:06Z</time>
      </trkpt>
      <trkpt lat="40.0041260" lon="-3.6835050">
        <ele>498.0</ele>
        <time>2019-07-08T05:14:11Z</time>
      </trkpt>
      <trkpt lat="40.0039820" lon="-3.6836220">
        <ele>498.2</ele>
        <time>2019-07-08T05:14:14Z</time>
      </trkpt>
      <trkpt lat="40.0038280" lon="-3.6837210">
        <ele>498.0</ele>
        <time>2019-07-08T05:14:17Z</time>
      </trkpt>
      <trkpt lat="40.0037830" lon="-3.6837640">
        <ele>498.0</ele>
        <time>2019-07-08T05:14:18Z</time>
      </trkpt>
      <trkpt lat="40.0034940" lon="-3.6840570">
        <ele>497.8</ele>
        <time>2019-07-08T05:14:25Z</time>
      </trkpt>
      <trkpt lat="40.0034260" lon="-3.6841350">
        <ele>497.6</ele>
        <time>2019-07-08T05:14:27Z</time>
      </trkpt>
      <trkpt lat="40.0033880" lon="-3.6841700">
        <ele>497.4</ele>
        <time>2019-07-08T05:14:28Z</time>
      </trkpt>
      <trkpt lat="40.0033100" lon="-3.6842460">
        <ele>497.4</ele>
        <time>2019-07-08T05:14:30Z</time>
      </trkpt>
      <trkpt lat="40.0031820" lon="-3.6843580">
        <ele>497.2</ele>
        <time>2019-07-08T05:14:33Z</time>
      </trkpt>
      <trkpt lat="40.0029790" lon="-3.6845480">
        <ele>498.2</ele>
        <time>2019-07-08T05:14:38Z</time>
      </trkpt>
      <trkpt lat="40.0026020" lon="-3.6848960">
        <ele>498.2</ele>
        <time>2019-07-08T05:14:47Z</time>
      </trkpt>
      <trkpt lat="40.0023480" lon="-3.6851360">
        <ele>498.4</ele>
        <time>2019-07-08T05:14:53Z</time>
      </trkpt>
      <trkpt lat="40.0022620" lon="-3.6852130">
        <ele>498.2</ele>
        <time>2019-07-08T05:14:55Z</time>
      </trkpt>
      <trkpt lat="40.0019670" lon="-3.6854900">
        <ele>498.6</ele>
        <time>2019-07-08T05:15:02Z</time>
      </trkpt>
      <trkpt lat="40.0017080" lon="-3.6857330">
        <ele>498.6</ele>
        <time>2019-07-08T05:15:08Z</time>
      </trkpt>
      <trkpt lat="40.0013150" lon="-3.6860970">
        <ele>498.8</ele>
        <time>2019-07-08T05:15:17Z</time>
      </trkpt>
      <trkpt lat="40.0009430" lon="-3.6864230">
        <ele>498.6</ele>
        <time>2019-07-08T05:15:25Z</time>
      </trkpt>
      <trkpt lat="40.0008460" lon="-3.6865030">
        <ele>498.6</ele>
        <time>2019-07-08T05:15:27Z</time>
      </trkpt>
      <trkpt lat="40.0005260" lon="-3.6868030">
        <ele>498.6</ele>
        <time>2019-07-08T05:15:34Z</time>
      </trkpt>
      <trkpt lat="40.0002040" lon="-3.6870960">
        <ele>498.8</ele>
        <time>2019-07-08T05:15:41Z</time>
      </trkpt>
      <trkpt lat="39.9997770" lon="-3.6874900">
        <ele>498.8</ele>
        <time>2019-07-08T05:15:50Z</time>
      </trkpt>
      <trkpt lat="39.9992950" lon="-3.6879330">
        <ele>498.8</ele>
        <time>2019-07-08T05:16:00Z</time>
      </trkpt>
      <trkpt lat="39.9988100" lon="-3.6883690">
        <ele>498.8</ele>
        <time>2019-07-08T05:16:10Z</time>
      </trkpt>
      <trkpt lat="39.9987610" lon="-3.6884120">
        <ele>498.6</ele>
        <time>2019-07-08T05:16:11Z</time>
      </trkpt>
      <trkpt lat="39.9984310" lon="-3.6887350">
        <ele>488.0</ele>
        <time>2019-07-08T05:16:18Z</time>
      </trkpt>
      <trkpt lat="39.9981020" lon="-3.6890710">
        <ele>498.0</ele>
        <time>2019-07-08T05:16:25Z</time>
      </trkpt>
      <trkpt lat="39.9978080" lon="-3.6893370">
        <ele>497.8</ele>
        <time>2019-07-08T05:16:31Z</time>
      </trkpt>
      <trkpt lat="39.9977560" lon="-3.6893730">
        <ele>497.8</ele>
        <time>2019-07-08T05:16:32Z</time>
      </trkpt>
      <trkpt lat="39.9976070" lon="-3.6895030">
        <ele>497.6</ele>
        <time>2019-07-08T05:16:35Z</time>
      </trkpt>
      <trkpt lat="39.9975260" lon="-3.6896190">
        <ele>497.6</ele>
        <time>2019-07-08T05:16:37Z</time>
      </trkpt>
      <trkpt lat="39.9973690" lon="-3.6898600">
        <ele>497.4</ele>
        <time>2019-07-08T05:16:41Z</time>
      </trkpt>
      <trkpt lat="39.9971490" lon="-3.6900100">
        <ele>496.8</ele>
        <time>2019-07-08T05:16:45Z</time>
      </trkpt>
      <trkpt lat="39.9970930" lon="-3.6900430">
        <ele>496.6</ele>
        <time>2019-07-08T05:16:46Z</time>
      </trkpt>
      <trkpt lat="39.9970400" lon="-3.6900790">
        <ele>496.2</ele>
        <time>2019-07-08T05:16:47Z</time>
      </trkpt>
      <trkpt lat="39.9968930" lon="-3.6901890">
        <ele>496.0</ele>
        <time>2019-07-08T05:16:50Z</time>
      </trkpt>
      <trkpt lat="39.9968450" lon="-3.6902330">
        <ele>496.0</ele>
        <time>2019-07-08T05:16:51Z</time>
      </trkpt>
      <trkpt lat="39.9964950" lon="-3.6905270">
        <ele>496.2</ele>
        <time>2019-07-08T05:16:58Z</time>
      </trkpt>
      <trkpt lat="39.9964040" lon="-3.6906080">
        <ele>496.4</ele>
        <time>2019-07-08T05:17:00Z</time>
      </trkpt>
      <trkpt lat="39.9962820" lon="-3.6907520">
        <ele>496.4</ele>
        <time>2019-07-08T05:17:03Z</time>
      </trkpt>
      <trkpt lat="39.9961450" lon="-3.6908770">
        <ele>496.4</ele>
        <time>2019-07-08T05:17:06Z</time>
      </trkpt>
      <trkpt lat="39.9960490" lon="-3.6909380">
        <ele>496.0</ele>
        <time>2019-07-08T05:17:08Z</time>
      </trkpt>
      <trkpt lat="39.9959060" lon="-3.6910390">
        <ele>496.0</ele>
        <time>2019-07-08T05:17:11Z</time>
      </trkpt>
      <trkpt lat="39.9958120" lon="-3.6911170">
        <ele>495.8</ele>
        <time>2019-07-08T05:17:13Z</time>
      </trkpt>
      <trkpt lat="39.9957230" lon="-3.6912040">
        <ele>495.8</ele>
        <time>2019-07-08T05:17:15Z</time>
      </trkpt>
      <trkpt lat="39.9954540" lon="-3.6914600">
        <ele>495.2</ele>
        <time>2019-07-08T05:17:21Z</time>
      </trkpt>
      <trkpt lat="39.9951230" lon="-3.6917560">
        <ele>495.6</ele>
        <time>2019-07-08T05:17:28Z</time>
      </trkpt>
      <trkpt lat="39.9950280" lon="-3.6918370">
        <ele>495.6</ele>
        <time>2019-07-08T05:17:30Z</time>
      </trkpt>
      <trkpt lat="39.9947170" lon="-3.6921500">
        <ele>495.4</ele>
        <time>2019-07-08T05:17:37Z</time>
      </trkpt>
      <trkpt lat="39.9943410" lon="-3.6924970">
        <ele>495.0</ele>
        <time>2019-07-08T05:17:45Z</time>
      </trkpt>
      <trkpt lat="39.9939780" lon="-3.6928280">
        <ele>495.4</ele>
        <time>2019-07-08T05:17:53Z</time>
      </trkpt>
      <trkpt lat="39.9936630" lon="-3.6931160">
        <ele>495.8</ele>
        <time>2019-07-08T05:18:00Z</time>
      </trkpt>
      <trkpt lat="39.9936200" lon="-3.6931600">
        <ele>495.8</ele>
        <time>2019-07-08T05:18:01Z</time>
      </trkpt>
      <trkpt lat="39.9935770" lon="-3.6932030">
        <ele>495.8</ele>
        <time>2019-07-08T05:18:02Z</time>
      </trkpt>
      <trkpt lat="39.9933930" lon="-3.6933430">
        <ele>496.2</ele>
        <time>2019-07-08T05:18:06Z</time>
      </trkpt>
      <trkpt lat="39.9933510" lon="-3.6933840">
        <ele>496.2</ele>
        <time>2019-07-08T05:18:07Z</time>
      </trkpt>
      <trkpt lat="39.9932190" lon="-3.6934900">
        <ele>496.2</ele>
        <time>2019-07-08T05:18:10Z</time>
      </trkpt>
      <trkpt lat="39.9931750" lon="-3.6935270">
        <ele>496.2</ele>
        <time>2019-07-08T05:18:11Z</time>
      </trkpt>
      <trkpt lat="39.9929670" lon="-3.6937230">
        <ele>496.4</ele>
        <time>2019-07-08T05:18:16Z</time>
      </trkpt>
      <trkpt lat="39.9929320" lon="-3.6937680">
        <ele>496.4</ele>
        <time>2019-07-08T05:18:17Z</time>
      </trkpt>
      <trkpt lat="39.9928960" lon="-3.6938110">
        <ele>496.6</ele>
        <time>2019-07-08T05:18:18Z</time>
      </trkpt>
      <trkpt lat="39.9927020" lon="-3.6940040">
        <ele>497.0</ele>
        <time>2019-07-08T05:18:23Z</time>
      </trkpt>
      <trkpt lat="39.9926600" lon="-3.6940340">
        <ele>497.0</ele>
        <time>2019-07-08T05:18:24Z</time>
      </trkpt>
      <trkpt lat="39.9923580" lon="-3.6942380">
        <ele>497.2</ele>
        <time>2019-07-08T05:18:31Z</time>
      </trkpt>
      <trkpt lat="39.9919490" lon="-3.6945640">
        <ele>497.0</ele>
        <time>2019-07-08T05:18:40Z</time>
      </trkpt>
      <trkpt lat="39.9917090" lon="-3.6947610">
        <ele>496.6</ele>
        <time>2019-07-08T05:18:45Z</time>
      </trkpt>
      <trkpt lat="39.9916110" lon="-3.6948330">
        <ele>496.6</ele>
        <time>2019-07-08T05:18:47Z</time>
      </trkpt>
      <trkpt lat="39.9914010" lon="-3.6950700">
        <ele>496.6</ele>
        <time>2019-07-08T05:18:52Z</time>
      </trkpt>
      <trkpt lat="39.9910180" lon="-3.6954430">
        <ele>497.0</ele>
        <time>2019-07-08T05:19:01Z</time>
      </trkpt>
      <trkpt lat="39.9908030" lon="-3.6956210">
        <ele>497.4</ele>
        <time>2019-07-08T05:19:06Z</time>
      </trkpt>
      <trkpt lat="39.9907240" lon="-3.6957060">
        <ele>497.4</ele>
        <time>2019-07-08T05:19:08Z</time>
      </trkpt>
      <trkpt lat="39.9906390" lon="-3.6957770">
        <ele>497.2</ele>
        <time>2019-07-08T05:19:10Z</time>
      </trkpt>
      <trkpt lat="39.9904230" lon="-3.6959640">
        <ele>497.6</ele>
        <time>2019-07-08T05:19:15Z</time>
      </trkpt>
      <trkpt lat="39.9900870" lon="-3.6963160">
        <ele>497.6</ele>
        <time>2019-07-08T05:19:23Z</time>
      </trkpt>
      <trkpt lat="39.9899780" lon="-3.6964500">
        <ele>497.4</ele>
        <time>2019-07-08T05:19:26Z</time>
      </trkpt>
      <trkpt lat="39.9898600" lon="-3.6965610">
        <ele>497.6</ele>
        <time>2019-07-08T05:19:29Z</time>
      </trkpt>
      <trkpt lat="39.9898220" lon="-3.6965990">
        <ele>497.4</ele>
        <time>2019-07-08T05:19:30Z</time>
      </trkpt>
      <trkpt lat="39.9896260" lon="-3.6968070">
        <ele>497.8</ele>
        <time>2019-07-08T05:19:35Z</time>
      </trkpt>
      <trkpt lat="39.9894160" lon="-3.6970160">
        <ele>497.8</ele>
        <time>2019-07-08T05:19:40Z</time>
      </trkpt>
      <trkpt lat="39.9893620" lon="-3.6971310">
        <ele>497.4</ele>
        <time>2019-07-08T05:19:42Z</time>
      </trkpt>
      <trkpt lat="39.9893190" lon="-3.6972750">
        <ele>496.8</ele>
        <time>2019-07-08T05:19:44Z</time>
      </trkpt>
      <trkpt lat="39.9892380" lon="-3.6975020">
        <ele>496.4</ele>
        <time>2019-07-08T05:19:47Z</time>
      </trkpt>
      <trkpt lat="39.9891640" lon="-3.6976210">
        <ele>496.0</ele>
        <time>2019-07-08T05:19:49Z</time>
      </trkpt>
      <trkpt lat="39.9890900" lon="-3.6977210">
        <ele>495.8</ele>
        <time>2019-07-08T05:19:51Z</time>
      </trkpt>
      <trkpt lat="39.9889310" lon="-3.6978410">
        <ele>496.4</ele>
        <time>2019-07-08T05:19:55Z</time>
      </trkpt>
      <trkpt lat="39.9888900" lon="-3.6978600">
        <ele>496.4</ele>
        <time>2019-07-08T05:19:56Z</time>
      </trkpt>
      <trkpt lat="39.9887610" lon="-3.6979100">
        <ele>496.8</ele>
        <time>2019-07-08T05:19:59Z</time>
      </trkpt>
      <trkpt lat="39.9885290" lon="-3.6980200">
        <ele>496.8</ele>
        <time>2019-07-08T05:20:04Z</time>
      </trkpt>
      <trkpt lat="39.9884380" lon="-3.6980800">
        <ele>497.0</ele>
        <time>2019-07-08T05:20:06Z</time>
      </trkpt>
      <trkpt lat="39.9881610" lon="-3.6982810">
        <ele>497.0</ele>
        <time>2019-07-08T05:20:12Z</time>
      </trkpt>
      <trkpt lat="39.9881150" lon="-3.6983160">
        <ele>496.8</ele>
        <time>2019-07-08T05:20:13Z</time>
      </trkpt>
      <trkpt lat="39.9878090" lon="-3.6985820">
        <ele>496.6</ele>
        <time>2019-07-08T05:20:20Z</time>
      </trkpt>
      <trkpt lat="39.9875230" lon="-3.6989790">
        <ele>496.2</ele>
        <time>2019-07-08T05:20:27Z</time>
      </trkpt>
      <trkpt lat="39.9874900" lon="-3.6990530">
        <ele>495.8</ele>
        <time>2019-07-08T05:20:28Z</time>
      </trkpt>
      <trkpt lat="39.9873860" lon="-3.6992650">
        <ele>495.2</ele>
        <time>2019-07-08T05:20:31Z</time>
      </trkpt>
      <trkpt lat="39.9873470" lon="-3.6993270">
        <ele>495.2</ele>
        <time>2019-07-08T05:20:32Z</time>
      </trkpt>
      <trkpt lat="39.9873130" lon="-3.6993890">
        <ele>495.2</ele>
        <time>2019-07-08T05:20:33Z</time>
      </trkpt>
      <trkpt lat="39.9872500" lon="-3.6995120">
        <ele>495.2</ele>
        <time>2019-07-08T05:20:35Z</time>
      </trkpt>
      <trkpt lat="39.9872140" lon="-3.6995650">
        <ele>495.2</ele>
        <time>2019-07-08T05:20:36Z</time>
      </trkpt>
      <trkpt lat="39.9870970" lon="-3.6997130">
        <ele>495.4</ele>
        <time>2019-07-08T05:20:39Z</time>
      </trkpt>
      <trkpt lat="39.9870230" lon="-3.6998130">
        <ele>495.2</ele>
        <time>2019-07-08T05:20:41Z</time>
      </trkpt>
      <trkpt lat="39.9869560" lon="-3.6999210">
        <ele>495.2</ele>
        <time>2019-07-08T05:20:43Z</time>
      </trkpt>
      <trkpt lat="39.9868980" lon="-3.7000350">
        <ele>495.0</ele>
        <time>2019-07-08T05:20:45Z</time>
      </trkpt>
      <trkpt lat="39.9867340" lon="-3.7002890">
        <ele>495.2</ele>
        <time>2019-07-08T05:20:50Z</time>
      </trkpt>
      <trkpt lat="39.9866200" lon="-3.7004240">
        <ele>495.6</ele>
        <time>2019-07-08T05:20:53Z</time>
      </trkpt>
      <trkpt lat="39.9864790" lon="-3.7005260">
        <ele>495.8</ele>
        <time>2019-07-08T05:20:56Z</time>
      </trkpt>
      <trkpt lat="39.9863330" lon="-3.7006340">
        <ele>495.6</ele>
        <time>2019-07-08T05:20:59Z</time>
      </trkpt>
      <trkpt lat="39.9861990" lon="-3.7007730">
        <ele>495.6</ele>
        <time>2019-07-08T05:21:02Z</time>
      </trkpt>
      <trkpt lat="39.9859910" lon="-3.7010240">
        <ele>495.2</ele>
        <time>2019-07-08T05:21:07Z</time>
      </trkpt>
      <trkpt lat="39.9859500" lon="-3.7010720">
        <ele>495.2</ele>
        <time>2019-07-08T05:21:08Z</time>
      </trkpt>
      <trkpt lat="39.9858660" lon="-3.7011620">
        <ele>495.4</ele>
        <time>2019-07-08T05:21:10Z</time>
      </trkpt>
      <trkpt lat="39.9857300" lon="-3.7012390">
        <ele>495.4</ele>
        <time>2019-07-08T05:21:13Z</time>
      </trkpt>
      <trkpt lat="39.9855300" lon="-3.7012020">
        <ele>495.6</ele>
        <time>2019-07-08T05:21:17Z</time>
      </trkpt>
      <trkpt lat="39.9854820" lon="-3.7011790">
        <ele>495.8</ele>
        <time>2019-07-08T05:21:18Z</time>
      </trkpt>
      <trkpt lat="39.9852800" lon="-3.7011180">
        <ele>495.8</ele>
        <time>2019-07-08T05:21:22Z</time>
      </trkpt>
      <trkpt lat="39.9851810" lon="-3.7011100">
        <ele>496.0</ele>
        <time>2019-07-08T05:21:24Z</time>
      </trkpt>
      <trkpt lat="39.9851350" lon="-3.7011060">
        <ele>496.2</ele>
        <time>2019-07-08T05:21:25Z</time>
      </trkpt>
      <trkpt lat="39.9850900" lon="-3.7011060">
        <ele>496.2</ele>
        <time>2019-07-08T05:21:26Z</time>
      </trkpt>
      <trkpt lat="39.9849650" lon="-3.7011410">
        <ele>496.8</ele>
        <time>2019-07-08T05:21:29Z</time>
      </trkpt>
      <trkpt lat="39.9848540" lon="-3.7012310">
        <ele>497.4</ele>
        <time>2019-07-08T05:21:32Z</time>
      </trkpt>
      <trkpt lat="39.9847970" lon="-3.7013200">
        <ele>497.8</ele>
        <time>2019-07-08T05:21:34Z</time>
      </trkpt>
      <trkpt lat="39.9847550" lon="-3.7014260">
        <ele>497.8</ele>
        <time>2019-07-08T05:21:36Z</time>
      </trkpt>
      <trkpt lat="39.9846630" lon="-3.7016250">
        <ele>498.2</ele>
        <time>2019-07-08T05:21:40Z</time>
      </trkpt>
      <trkpt lat="39.9846410" lon="-3.7016740">
        <ele>498.4</ele>
        <time>2019-07-08T05:21:41Z</time>
      </trkpt>
      <trkpt lat="39.9845950" lon="-3.7017670">
        <ele>499.0</ele>
        <time>2019-07-08T05:21:43Z</time>
      </trkpt>
      <trkpt lat="39.9845010" lon="-3.7018790">
        <ele>499.2</ele>
        <time>2019-07-08T05:21:46Z</time>
      </trkpt>
      <trkpt lat="39.9844710" lon="-3.7019200">
        <ele>499.6</ele>
        <time>2019-07-08T05:21:47Z</time>
      </trkpt>
      <trkpt lat="39.9843340" lon="-3.7021440">
        <ele>500.4</ele>
        <time>2019-07-08T05:21:52Z</time>
      </trkpt>
      <trkpt lat="39.9842510" lon="-3.7022720">
        <ele>500.8</ele>
        <time>2019-07-08T05:21:55Z</time>
      </trkpt>
      <trkpt lat="39.9841400" lon="-3.7024470">
        <ele>501.4</ele>
        <time>2019-07-08T05:22:00Z</time>
      </trkpt>
      <trkpt lat="39.9841150" lon="-3.7024700">
        <ele>501.6</ele>
        <time>2019-07-08T05:22:04Z</time>
      </trkpt>
      <trkpt lat="39.9840990" lon="-3.7024920">
        <ele>501.6</ele>
        <time>2019-07-08T05:22:46Z</time>
      </trkpt>
      <trkpt lat="39.9840900" lon="-3.7025100">
        <ele>501.4</ele>
        <time>2019-07-08T05:22:47Z</time>
      </trkpt>
      <trkpt lat="39.9840780" lon="-3.7025320">
        <ele>501.4</ele>
        <time>2019-07-08T05:22:48Z</time>
      </trkpt>
      <trkpt lat="39.9840390" lon="-3.7025850">
        <ele>501.4</ele>
        <time>2019-07-08T05:22:50Z</time>
      </trkpt>
      <trkpt lat="39.9840140" lon="-3.7026140">
        <ele>501.4</ele>
        <time>2019-07-08T05:22:51Z</time>
      </trkpt>
      <trkpt lat="39.9839650" lon="-3.7026830">
        <ele>501.4</ele>
        <time>2019-07-08T05:22:53Z</time>
      </trkpt>
      <trkpt lat="39.9839110" lon="-3.7027640">
        <ele>501.4</ele>
        <time>2019-07-08T05:22:55Z</time>
      </trkpt>
      <trkpt lat="39.9838060" lon="-3.7028860">
        <ele>500.8</ele>
        <time>2019-07-08T05:22:58Z</time>
      </trkpt>
      <trkpt lat="39.9835170" lon="-3.7032320">
        <ele>499.6</ele>
        <time>2019-07-08T05:23:05Z</time>
      </trkpt>
      <trkpt lat="39.9832580" lon="-3.7035730">
        <ele>498.2</ele>
        <time>2019-07-08T05:23:11Z</time>
      </trkpt>
      <trkpt lat="39.9831750" lon="-3.7037010">
        <ele>497.8</ele>
        <time>2019-07-08T05:23:13Z</time>
      </trkpt>
      <trkpt lat="39.9830490" lon="-3.7038960">
        <ele>497.4</ele>
        <time>2019-07-08T05:23:16Z</time>
      </trkpt>
      <trkpt lat="39.9828440" lon="-3.7042290">
        <ele>496.6</ele>
        <time>2019-07-08T05:23:21Z</time>
      </trkpt>
      <trkpt lat="39.9828000" lon="-3.7042920">
        <ele>496.4</ele>
        <time>2019-07-08T05:23:22Z</time>
      </trkpt>
      <trkpt lat="39.9827520" lon="-3.7043470">
        <ele>496.2</ele>
        <time>2019-07-08T05:23:23Z</time>
      </trkpt>
      <trkpt lat="39.9825940" lon="-3.7044790">
        <ele>495.6</ele>
        <time>2019-07-08T05:23:26Z</time>
      </trkpt>
      <trkpt lat="39.9825500" lon="-3.7045330">
        <ele>495.6</ele>
        <time>2019-07-08T05:23:27Z</time>
      </trkpt>
      <trkpt lat="39.9824590" lon="-3.7047380">
        <ele>495.4</ele>
        <time>2019-07-08T05:23:30Z</time>
      </trkpt>
      <trkpt lat="39.9824100" lon="-3.7048790">
        <ele>495.4</ele>
        <time>2019-07-08T05:23:32Z</time>
      </trkpt>
      <trkpt lat="39.9823860" lon="-3.7049480">
        <ele>495.4</ele>
        <time>2019-07-08T05:23:33Z</time>
      </trkpt>
      <trkpt lat="39.9823210" lon="-3.7051510">
        <ele>494.8</ele>
        <time>2019-07-08T05:23:36Z</time>
      </trkpt>
      <trkpt lat="39.9822840" lon="-3.7052710">
        <ele>494.2</ele>
        <time>2019-07-08T05:23:38Z</time>
      </trkpt>
      <trkpt lat="39.9822680" lon="-3.7053290">
        <ele>493.8</ele>
        <time>2019-07-08T05:23:39Z</time>
      </trkpt>
      <trkpt lat="39.9822350" lon="-3.7054370">
        <ele>493.6</ele>
        <time>2019-07-08T05:23:41Z</time>
      </trkpt>
      <trkpt lat="39.9821460" lon="-3.7055690">
        <ele>493.4</ele>
        <time>2019-07-08T05:23:44Z</time>
      </trkpt>
      <trkpt lat="39.9820670" lon="-3.7056280">
        <ele>493.6</ele>
        <time>2019-07-08T05:23:46Z</time>
      </trkpt>
      <trkpt lat="39.9820020" lon="-3.7056870">
        <ele>494.2</ele>
        <time>2019-07-08T05:23:48Z</time>
      </trkpt>
      <trkpt lat="39.9819520" lon="-3.7057510">
        <ele>494.6</ele>
        <time>2019-07-08T05:23:50Z</time>
      </trkpt>
      <trkpt lat="39.9818740" lon="-3.7058290">
        <ele>495.2</ele>
        <time>2019-07-08T05:23:53Z</time>
      </trkpt>
      <trkpt lat="39.9818490" lon="-3.7058500">
        <ele>495.2</ele>
        <time>2019-07-08T05:23:54Z</time>
      </trkpt>
      <trkpt lat="39.9818290" lon="-3.7058720">
        <ele>495.4</ele>
        <time>2019-07-08T05:23:55Z</time>
      </trkpt>
      <trkpt lat="39.9818040" lon="-3.7059090">
        <ele>495.4</ele>
        <time>2019-07-08T05:23:59Z</time>
      </trkpt>
      <trkpt lat="39.9817740" lon="-3.7058540">
        <ele>495.2</ele>
        <time>2019-07-08T05:25:07Z</time>
      </trkpt>
      <trkpt lat="39.9817690" lon="-3.7058340">
        <ele>495.4</ele>
        <time>2019-07-08T05:25:08Z</time>
      </trkpt>
      <trkpt lat="39.9817640" lon="-3.7058150">
        <ele>495.6</ele>
        <time>2019-07-08T05:25:09Z</time>
      </trkpt>
      <trkpt lat="39.9817590" lon="-3.7057930">
        <ele>495.6</ele>
        <time>2019-07-08T05:25:10Z</time>
      </trkpt>
      <trkpt lat="39.9817540" lon="-3.7057680">
        <ele>495.8</ele>
        <time>2019-07-08T05:25:11Z</time>
      </trkpt>
      <trkpt lat="39.9817470" lon="-3.7057400">
        <ele>495.8</ele>
        <time>2019-07-08T05:25:12Z</time>
      </trkpt>
      <trkpt lat="39.9817240" lon="-3.7056510">
        <ele>496.2</ele>
        <time>2019-07-08T05:25:15Z</time>
      </trkpt>
      <trkpt lat="39.9817060" lon="-3.7055920">
        <ele>496.6</ele>
        <time>2019-07-08T05:25:17Z</time>
      </trkpt>
      <trkpt lat="39.9816730" lon="-3.7054950">
        <ele>497.0</ele>
        <time>2019-07-08T05:25:20Z</time>
      </trkpt>
      <trkpt lat="39.9816230" lon="-3.7054090">
        <ele>497.4</ele>
        <time>2019-07-08T05:25:23Z</time>
      </trkpt>
      <trkpt lat="39.9815980" lon="-3.7053890">
        <ele>497.6</ele>
        <time>2019-07-08T05:25:24Z</time>
      </trkpt>
      <trkpt lat="39.9815000" lon="-3.7053570">
        <ele>498.2</ele>
        <time>2019-07-08T05:25:27Z</time>
      </trkpt>
      <trkpt lat="39.9814300" lon="-3.7053600">
        <ele>498.4</ele>
        <time>2019-07-08T05:25:29Z</time>
      </trkpt>
      <trkpt lat="39.9813590" lon="-3.7053730">
        <ele>498.6</ele>
        <time>2019-07-08T05:25:31Z</time>
      </trkpt>
      <trkpt lat="39.9812520" lon="-3.7053870">
        <ele>499.0</ele>
        <time>2019-07-08T05:25:34Z</time>
      </trkpt>
      <trkpt lat="39.9811860" lon="-3.7054030">
        <ele>499.4</ele>
        <time>2019-07-08T05:25:36Z</time>
      </trkpt>
      <trkpt lat="39.9811260" lon="-3.7054360">
        <ele>500.0</ele>
        <time>2019-07-08T05:25:38Z</time>
      </trkpt>
      <trkpt lat="39.9810390" lon="-3.7055200">
        <ele>500.2</ele>
        <time>2019-07-08T05:25:41Z</time>
      </trkpt>
      <trkpt lat="39.9809440" lon="-3.7056200">
        <ele>500.0</ele>
        <time>2019-07-08T05:25:44Z</time>
      </trkpt>
      <trkpt lat="39.9808490" lon="-3.7057470">
        <ele>499.8</ele>
        <time>2019-07-08T05:25:47Z</time>
      </trkpt>
      <trkpt lat="39.9806930" lon="-3.7059180">
        <ele>499.8</ele>
        <time>2019-07-08T05:25:51Z</time>
      </trkpt>
      <trkpt lat="39.9806480" lon="-3.7059600">
        <ele>500.2</ele>
        <time>2019-07-08T05:25:52Z</time>
      </trkpt>
      <trkpt lat="39.9805980" lon="-3.7059990">
        <ele>500.2</ele>
        <time>2019-07-08T05:25:53Z</time>
      </trkpt>
      <trkpt lat="39.9803880" lon="-3.7061630">
        <ele>499.2</ele>
        <time>2019-07-08T05:25:57Z</time>
      </trkpt>
      <trkpt lat="39.9803350" lon="-3.7062030">
        <ele>499.0</ele>
        <time>2019-07-08T05:25:58Z</time>
      </trkpt>
      <trkpt lat="39.9801800" lon="-3.7063150">
        <ele>498.4</ele>
        <time>2019-07-08T05:26:01Z</time>
      </trkpt>
      <trkpt lat="39.9800730" lon="-3.7063700">
        <ele>498.0</ele>
        <time>2019-07-08T05:26:03Z</time>
      </trkpt>
      <trkpt lat="39.9798990" lon="-3.7064370">
        <ele>497.8</ele>
        <time>2019-07-08T05:26:06Z</time>
      </trkpt>
      <trkpt lat="39.9797110" lon="-3.7064740">
        <ele>497.6</ele>
        <time>2019-07-08T05:26:09Z</time>
      </trkpt>
      <trkpt lat="39.9794600" lon="-3.7064880">
        <ele>497.0</ele>
        <time>2019-07-08T05:26:13Z</time>
      </trkpt>
      <trkpt lat="39.9793990" lon="-3.7064900">
        <ele>496.8</ele>
        <time>2019-07-08T05:26:14Z</time>
      </trkpt>
      <trkpt lat="39.9792780" lon="-3.7064980">
        <ele>496.8</ele>
        <time>2019-07-08T05:26:16Z</time>
      </trkpt>
      <trkpt lat="39.9789720" lon="-3.7065570">
        <ele>496.4</ele>
        <time>2019-07-08T05:26:21Z</time>
      </trkpt>
      <trkpt lat="39.9788540" lon="-3.7065970">
        <ele>496.4</ele>
        <time>2019-07-08T05:26:23Z</time>
      </trkpt>
      <trkpt lat="39.9787950" lon="-3.7066170">
        <ele>496.2</ele>
        <time>2019-07-08T05:26:24Z</time>
      </trkpt>
      <trkpt lat="39.9786830" lon="-3.7066720">
        <ele>496.0</ele>
        <time>2019-07-08T05:26:26Z</time>
      </trkpt>
      <trkpt lat="39.9786290" lon="-3.7067070">
        <ele>495.8</ele>
        <time>2019-07-08T05:26:27Z</time>
      </trkpt>
      <trkpt lat="39.9785770" lon="-3.7067440">
        <ele>495.8</ele>
        <time>2019-07-08T05:26:28Z</time>
      </trkpt>
      <trkpt lat="39.9782220" lon="-3.7070060">
        <ele>496.0</ele>
        <time>2019-07-08T05:26:35Z</time>
      </trkpt>
      <trkpt lat="39.9780700" lon="-3.7071050">
        <ele>496.0</ele>
        <time>2019-07-08T05:26:38Z</time>
      </trkpt>
      <trkpt lat="39.9779320" lon="-3.7072440">
        <ele>495.8</ele>
        <time>2019-07-08T05:26:41Z</time>
      </trkpt>
      <trkpt lat="39.9775830" lon="-3.7076280">
        <ele>496.4</ele>
        <time>2019-07-08T05:26:49Z</time>
      </trkpt>
      <trkpt lat="39.9773840" lon="-3.7078660">
        <ele>496.4</ele>
        <time>2019-07-08T05:26:54Z</time>
      </trkpt>
      <trkpt lat="39.9773170" lon="-3.7079820">
        <ele>496.2</ele>
        <time>2019-07-08T05:26:56Z</time>
      </trkpt>
      <trkpt lat="39.9770210" lon="-3.7084190">
        <ele>495.6</ele>
        <time>2019-07-08T05:27:04Z</time>
      </trkpt>
      <trkpt lat="39.9768850" lon="-3.7086130">
        <ele>496.2</ele>
        <time>2019-07-08T05:27:08Z</time>
      </trkpt>
      <trkpt lat="39.9768580" lon="-3.7086590">
        <ele>496.2</ele>
        <time>2019-07-08T05:27:09Z</time>
      </trkpt>
      <trkpt lat="39.9766240" lon="-3.7089490">
        <ele>496.2</ele>
        <time>2019-07-08T05:27:16Z</time>
      </trkpt>
      <trkpt lat="39.9763720" lon="-3.7092460">
        <ele>495.8</ele>
        <time>2019-07-08T05:27:22Z</time>
      </trkpt>
      <trkpt lat="39.9761390" lon="-3.7095850">
        <ele>495.8</ele>
        <time>2019-07-08T05:27:28Z</time>
      </trkpt>
      <trkpt lat="39.9760800" lon="-3.7097150">
        <ele>495.8</ele>
        <time>2019-07-08T05:27:30Z</time>
      </trkpt>
      <trkpt lat="39.9758860" lon="-3.7102220">
        <ele>495.6</ele>
        <time>2019-07-08T05:27:38Z</time>
      </trkpt>
      <trkpt lat="39.9757700" lon="-3.7104490">
        <ele>495.0</ele>
        <time>2019-07-08T05:27:42Z</time>
      </trkpt>
      <trkpt lat="39.9757220" lon="-3.7105650">
        <ele>495.2</ele>
        <time>2019-07-08T05:27:44Z</time>
      </trkpt>
      <trkpt lat="39.9755940" lon="-3.7109860">
        <ele>496.4</ele>
        <time>2019-07-08T05:27:51Z</time>
      </trkpt>
      <trkpt lat="39.9755160" lon="-3.7113670">
        <ele>496.6</ele>
        <time>2019-07-08T05:27:57Z</time>
      </trkpt>
      <trkpt lat="39.9754550" lon="-3.7115440">
        <ele>496.4</ele>
        <time>2019-07-08T05:28:00Z</time>
      </trkpt>
      <trkpt lat="39.9752830" lon="-3.7118500">
        <ele>496.6</ele>
        <time>2019-07-08T05:28:06Z</time>
      </trkpt>
      <trkpt lat="39.9751710" lon="-3.7119840">
        <ele>497.0</ele>
        <time>2019-07-08T05:28:09Z</time>
      </trkpt>
      <trkpt lat="39.9750080" lon="-3.7121510">
        <ele>496.8</ele>
        <time>2019-07-08T05:28:13Z</time>
      </trkpt>
      <trkpt lat="39.9746760" lon="-3.7124760">
        <ele>497.0</ele>
        <time>2019-07-08T05:28:21Z</time>
      </trkpt>
      <trkpt lat="39.9746010" lon="-3.7125570">
        <ele>497.0</ele>
        <time>2019-07-08T05:28:23Z</time>
      </trkpt>
      <trkpt lat="39.9745100" lon="-3.7127030">
        <ele>497.0</ele>
        <time>2019-07-08T05:28:26Z</time>
      </trkpt>
      <trkpt lat="39.9744860" lon="-3.7127590">
        <ele>497.0</ele>
        <time>2019-07-08T05:28:27Z</time>
      </trkpt>
      <trkpt lat="39.9743670" lon="-3.7131360">
        <ele>497.2</ele>
        <time>2019-07-08T05:28:33Z</time>
      </trkpt>
      <trkpt lat="39.9741230" lon="-3.7137860">
        <ele>496.6</ele>
        <time>2019-07-08T05:28:43Z</time>
      </trkpt>
      <trkpt lat="39.9740690" lon="-3.7139090">
        <ele>496.8</ele>
        <time>2019-07-08T05:28:45Z</time>
      </trkpt>
      <trkpt lat="39.9739620" lon="-3.7141540">
        <ele>497.0</ele>
        <time>2019-07-08T05:28:49Z</time>
      </trkpt>
      <trkpt lat="39.9737340" lon="-3.7147200">
        <ele>496.2</ele>
        <time>2019-07-08T05:28:58Z</time>
      </trkpt>
      <trkpt lat="39.9736240" lon="-3.7150420">
        <ele>496.4</ele>
        <time>2019-07-08T05:29:03Z</time>
      </trkpt>
      <trkpt lat="39.9735540" lon="-3.7152320">
        <ele>496.2</ele>
        <time>2019-07-08T05:29:06Z</time>
      </trkpt>
      <trkpt lat="39.9733630" lon="-3.7157440">
        <ele>496.4</ele>
        <time>2019-07-08T05:29:14Z</time>
      </trkpt>
      <trkpt lat="39.9731620" lon="-3.7163750">
        <ele>496.0</ele>
        <time>2019-07-08T05:29:23Z</time>
      </trkpt>
      <trkpt lat="39.9729150" lon="-3.7169950">
        <ele>495.6</ele>
        <time>2019-07-08T05:29:32Z</time>
      </trkpt>
      <trkpt lat="39.9728840" lon="-3.7170640">
        <ele>495.4</ele>
        <time>2019-07-08T05:29:33Z</time>
      </trkpt>
      <trkpt lat="39.9726840" lon="-3.7174690">
        <ele>494.8</ele>
        <time>2019-07-08T05:29:39Z</time>
      </trkpt>
      <trkpt lat="39.9726080" lon="-3.7175960">
        <ele>494.6</ele>
        <time>2019-07-08T05:29:41Z</time>
      </trkpt>
      <trkpt lat="39.9723180" lon="-3.7180040">
        <ele>495.0</ele>
        <time>2019-07-08T05:29:48Z</time>
      </trkpt>
      <trkpt lat="39.9721440" lon="-3.7182130">
        <ele>494.6</ele>
        <time>2019-07-08T05:29:52Z</time>
      </trkpt>
      <trkpt lat="39.9721060" lon="-3.7182720">
        <ele>494.4</ele>
        <time>2019-07-08T05:29:53Z</time>
      </trkpt>
      <trkpt lat="39.9720730" lon="-3.7183370">
        <ele>494.4</ele>
        <time>2019-07-08T05:29:54Z</time>
      </trkpt>
      <trkpt lat="39.9719780" lon="-3.7186220">
        <ele>494.4</ele>
        <time>2019-07-08T05:29:58Z</time>
      </trkpt>
      <trkpt lat="39.9719570" lon="-3.7186920">
        <ele>494.4</ele>
        <time>2019-07-08T05:29:59Z</time>
      </trkpt>
      <trkpt lat="39.9718270" lon="-3.7190030">
        <ele>494.4</ele>
        <time>2019-07-08T05:30:04Z</time>
      </trkpt>
      <trkpt lat="39.9717940" lon="-3.7190560">
        <ele>494.6</ele>
        <time>2019-07-08T05:30:05Z</time>
      </trkpt>
      <trkpt lat="39.9716850" lon="-3.7192100">
        <ele>494.8</ele>
        <time>2019-07-08T05:30:08Z</time>
      </trkpt>
      <trkpt lat="39.9715300" lon="-3.7194090">
        <ele>495.0</ele>
        <time>2019-07-08T05:30:12Z</time>
      </trkpt>
      <trkpt lat="39.9714880" lon="-3.7194550">
        <ele>495.0</ele>
        <time>2019-07-08T05:30:13Z</time>
      </trkpt>
      <trkpt lat="39.9713480" lon="-3.7195730">
        <ele>495.2</ele>
        <time>2019-07-08T05:30:16Z</time>
      </trkpt>
      <trkpt lat="39.9712970" lon="-3.7196040">
        <ele>495.2</ele>
        <time>2019-07-08T05:30:17Z</time>
      </trkpt>
      <trkpt lat="39.9711890" lon="-3.7196630">
        <ele>495.4</ele>
        <time>2019-07-08T05:30:19Z</time>
      </trkpt>
      <trkpt lat="39.9710340" lon="-3.7197770">
        <ele>495.6</ele>
        <time>2019-07-08T05:30:22Z</time>
      </trkpt>
      <trkpt lat="39.9709900" lon="-3.7198270">
        <ele>495.6</ele>
        <time>2019-07-08T05:30:23Z</time>
      </trkpt>
      <trkpt lat="39.9708760" lon="-3.7200720">
        <ele>496.0</ele>
        <time>2019-07-08T05:30:27Z</time>
      </trkpt>
      <trkpt lat="39.9708580" lon="-3.7201380">
        <ele>496.0</ele>
        <time>2019-07-08T05:30:28Z</time>
      </trkpt>
      <trkpt lat="39.9708280" lon="-3.7202770">
        <ele>496.2</ele>
        <time>2019-07-08T05:30:30Z</time>
      </trkpt>
      <trkpt lat="39.9708060" lon="-3.7204950">
        <ele>496.0</ele>
        <time>2019-07-08T05:30:33Z</time>
      </trkpt>
      <trkpt lat="39.9708040" lon="-3.7209500">
        <ele>495.2</ele>
        <time>2019-07-08T05:30:39Z</time>
      </trkpt>
      <trkpt lat="39.9707530" lon="-3.7214800">
        <ele>495.6</ele>
        <time>2019-07-08T05:30:46Z</time>
      </trkpt>
      <trkpt lat="39.9706940" lon="-3.7218720">
        <ele>494.6</ele>
        <time>2019-07-08T05:30:51Z</time>
      </trkpt>
      <trkpt lat="39.9706520" lon="-3.7221000">
        <ele>494.4</ele>
        <time>2019-07-08T05:30:54Z</time>
      </trkpt>
      <trkpt lat="39.9705920" lon="-3.7223210">
        <ele>494.6</ele>
        <time>2019-07-08T05:30:57Z</time>
      </trkpt>
      <trkpt lat="39.9705250" lon="-3.7224510">
        <ele>494.4</ele>
        <time>2019-07-08T05:30:59Z</time>
      </trkpt>
      <trkpt lat="39.9703730" lon="-3.7225650">
        <ele>494.4</ele>
        <time>2019-07-08T05:31:02Z</time>
      </trkpt>
      <trkpt lat="39.9701660" lon="-3.7225580">
        <ele>494.2</ele>
        <time>2019-07-08T05:31:06Z</time>
      </trkpt>
      <trkpt lat="39.9701200" lon="-3.7225370">
        <ele>494.0</ele>
        <time>2019-07-08T05:31:07Z</time>
      </trkpt>
      <trkpt lat="39.9700520" lon="-3.7225000">
        <ele>493.8</ele>
        <time>2019-07-08T05:31:10Z</time>
      </trkpt>
      <trkpt lat="39.9700520" lon="-3.7224980">
        <ele>493.6</ele>
        <time>2019-07-08T05:31:11Z</time>
      </trkpt>
      <trkpt lat="39.9700250" lon="-3.7224860">
        <ele>493.8</ele>
        <time>2019-07-08T05:31:34Z</time>
      </trkpt>
      <trkpt lat="39.9700050" lon="-3.7224760">
        <ele>493.8</ele>
        <time>2019-07-08T05:31:35Z</time>
      </trkpt>
      <trkpt lat="39.9699850" lon="-3.7224600">
        <ele>493.8</ele>
        <time>2019-07-08T05:31:36Z</time>
      </trkpt>
      <trkpt lat="39.9699370" lon="-3.7224160">
        <ele>493.6</ele>
        <time>2019-07-08T05:31:38Z</time>
      </trkpt>
      <trkpt lat="39.9699100" lon="-3.7223900">
        <ele>493.8</ele>
        <time>2019-07-08T05:31:39Z</time>
      </trkpt>
      <trkpt lat="39.9698600" lon="-3.7223310">
        <ele>494.4</ele>
        <time>2019-07-08T05:31:41Z</time>
      </trkpt>
      <trkpt lat="39.9698370" lon="-3.7222960">
        <ele>494.6</ele>
        <time>2019-07-08T05:31:42Z</time>
      </trkpt>
      <trkpt lat="39.9697870" lon="-3.7222250">
        <ele>494.8</ele>
        <time>2019-07-08T05:31:44Z</time>
      </trkpt>
      <trkpt lat="39.9696920" lon="-3.7220850">
        <ele>495.6</ele>
        <time>2019-07-08T05:31:48Z</time>
      </trkpt>
      <trkpt lat="39.9696660" lon="-3.7220500">
        <ele>495.8</ele>
        <time>2019-07-08T05:31:49Z</time>
      </trkpt>
      <trkpt lat="39.9695860" lon="-3.7219490">
        <ele>496.4</ele>
        <time>2019-07-08T05:31:52Z</time>
      </trkpt>
      <trkpt lat="39.9695590" lon="-3.7219200">
        <ele>496.8</ele>
        <time>2019-07-08T05:31:53Z</time>
      </trkpt>
      <trkpt lat="39.9695320" lon="-3.7218920">
        <ele>497.0</ele>
        <time>2019-07-08T05:31:54Z</time>
      </trkpt>
      <trkpt lat="39.9694810" lon="-3.7218400">
        <ele>497.8</ele>
        <time>2019-07-08T05:31:56Z</time>
      </trkpt>
      <trkpt lat="39.9694040" lon="-3.7217640">
        <ele>498.4</ele>
        <time>2019-07-08T05:31:59Z</time>
      </trkpt>
      <trkpt lat="39.9693320" lon="-3.7216780">
        <ele>498.6</ele>
        <time>2019-07-08T05:32:02Z</time>
      </trkpt>
      <trkpt lat="39.9692840" lon="-3.7216290">
        <ele>499.2</ele>
        <time>2019-07-08T05:32:04Z</time>
      </trkpt>
      <trkpt lat="39.9692030" lon="-3.7215820">
        <ele>499.8</ele>
        <time>2019-07-08T05:32:07Z</time>
      </trkpt>
      <trkpt lat="39.9691740" lon="-3.7215750">
        <ele>500.2</ele>
        <time>2019-07-08T05:32:08Z</time>
      </trkpt>
      <trkpt lat="39.9691210" lon="-3.7215540">
        <ele>500.4</ele>
        <time>2019-07-08T05:32:10Z</time>
      </trkpt>
      <trkpt lat="39.9690710" lon="-3.7215310">
        <ele>501.2</ele>
        <time>2019-07-08T05:32:12Z</time>
      </trkpt>
      <trkpt lat="39.9690020" lon="-3.7214960">
        <ele>502.0</ele>
        <time>2019-07-08T05:32:15Z</time>
      </trkpt>
      <trkpt lat="39.9689810" lon="-3.7214820">
        <ele>502.2</ele>
        <time>2019-07-08T05:32:16Z</time>
      </trkpt>
      <trkpt lat="39.9689080" lon="-3.7214090">
        <ele>503.6</ele>
        <time>2019-07-08T05:32:20Z</time>
      </trkpt>
      <trkpt lat="39.9688830" lon="-3.7213590">
        <ele>503.8</ele>
        <time>2019-07-08T05:32:22Z</time>
      </trkpt>
      <trkpt lat="39.9687620" lon="-3.7211610">
        <ele>504.6</ele>
        <time>2019-07-08T05:32:30Z</time>
      </trkpt>
      <trkpt lat="39.9687390" lon="-3.7211480">
        <ele>504.8</ele>
        <time>2019-07-08T05:32:31Z</time>
      </trkpt>
      <trkpt lat="39.9686760" lon="-3.7210710">
        <ele>506.0</ele>
        <time>2019-07-08T05:32:35Z</time>
      </trkpt>
      <trkpt lat="39.9685640" lon="-3.7208760">
        <ele>507.0</ele>
        <time>2019-07-08T05:32:42Z</time>
      </trkpt>
      <trkpt lat="39.9684290" lon="-3.7207450">
        <ele>508.0</ele>
        <time>2019-07-08T05:32:48Z</time>
      </trkpt>
      <trkpt lat="39.9684060" lon="-3.7207200">
        <ele>508.2</ele>
        <time>2019-07-08T05:32:49Z</time>
      </trkpt>
      <trkpt lat="39.9682480" lon="-3.7205350">
        <ele>509.2</ele>
        <time>2019-07-08T05:32:56Z</time>
      </trkpt>
      <trkpt lat="39.9682000" lon="-3.7204690">
        <ele>509.2</ele>
        <time>2019-07-08T05:32:58Z</time>
      </trkpt>
      <trkpt lat="39.9680220" lon="-3.7202110">
        <ele>510.0</ele>
        <time>2019-07-08T05:33:05Z</time>
      </trkpt>
      <trkpt lat="39.9679670" lon="-3.7201500">
        <ele>510.0</ele>
        <time>2019-07-08T05:33:07Z</time>
      </trkpt>
      <trkpt lat="39.9679100" lon="-3.7200990">
        <ele>510.4</ele>
        <time>2019-07-08T05:33:09Z</time>
      </trkpt>
      <trkpt lat="39.9677760" lon="-3.7200090">
        <ele>510.8</ele>
        <time>2019-07-08T05:33:13Z</time>
      </trkpt>
      <trkpt lat="39.9676170" lon="-3.7198570">
        <ele>510.8</ele>
        <time>2019-07-08T05:33:18Z</time>
      </trkpt>
      <trkpt lat="39.9674920" lon="-3.7197380">
        <ele>510.8</ele>
        <time>2019-07-08T05:33:22Z</time>
      </trkpt>
      <trkpt lat="39.9673410" lon="-3.7196270">
        <ele>511.2</ele>
        <time>2019-07-08T05:33:27Z</time>
      </trkpt>
      <trkpt lat="39.9673170" lon="-3.7196130">
        <ele>511.4</ele>
        <time>2019-07-08T05:33:28Z</time>
      </trkpt>
      <trkpt lat="39.9672930" lon="-3.7196050">
        <ele>511.4</ele>
        <time>2019-07-08T05:33:29Z</time>
      </trkpt>
      <trkpt lat="39.9672210" lon="-3.7195570">
        <ele>512.2</ele>
        <time>2019-07-08T05:33:32Z</time>
      </trkpt>
      <trkpt lat="39.9671590" lon="-3.7195220">
        <ele>512.6</ele>
        <time>2019-07-08T05:33:34Z</time>
      </trkpt>
      <trkpt lat="39.9668950" lon="-3.7194150">
        <ele>513.2</ele>
        <time>2019-07-08T05:33:41Z</time>
      </trkpt>
      <trkpt lat="39.9665930" lon="-3.7192100">
        <ele>513.4</ele>
        <time>2019-07-08T05:33:49Z</time>
      </trkpt>
      <trkpt lat="39.9665320" lon="-3.7191320">
        <ele>513.6</ele>
        <time>2019-07-08T05:33:51Z</time>
      </trkpt>
      <trkpt lat="39.9664140" lon="-3.7189580">
        <ele>513.8</ele>
        <time>2019-07-08T05:33:55Z</time>
      </trkpt>
      <trkpt lat="39.9663900" lon="-3.7189080">
        <ele>513.6</ele>
        <time>2019-07-08T05:33:56Z</time>
      </trkpt>
      <trkpt lat="39.9663270" lon="-3.7187550">
        <ele>513.8</ele>
        <time>2019-07-08T05:33:59Z</time>
      </trkpt>
      <trkpt lat="39.9662970" lon="-3.7187140">
        <ele>513.8</ele>
        <time>2019-07-08T05:34:00Z</time>
      </trkpt>
      <trkpt lat="39.9661660" lon="-3.7187080">
        <ele>513.8</ele>
        <time>2019-07-08T05:34:03Z</time>
      </trkpt>
      <trkpt lat="39.9661260" lon="-3.7187470">
        <ele>513.6</ele>
        <time>2019-07-08T05:34:04Z</time>
      </trkpt>
      <trkpt lat="39.9660910" lon="-3.7187920">
        <ele>513.2</ele>
        <time>2019-07-08T05:34:05Z</time>
      </trkpt>
      <trkpt lat="39.9660210" lon="-3.7188900">
        <ele>513.0</ele>
        <time>2019-07-08T05:34:07Z</time>
      </trkpt>
      <trkpt lat="39.9659110" lon="-3.7190530">
        <ele>512.6</ele>
        <time>2019-07-08T05:34:10Z</time>
      </trkpt>
      <trkpt lat="39.9658330" lon="-3.7191760">
        <ele>511.6</ele>
        <time>2019-07-08T05:34:12Z</time>
      </trkpt>
      <trkpt lat="39.9657510" lon="-3.7193050">
        <ele>511.0</ele>
        <time>2019-07-08T05:34:14Z</time>
      </trkpt>
      <trkpt lat="39.9656660" lon="-3.7194380">
        <ele>510.2</ele>
        <time>2019-07-08T05:34:16Z</time>
      </trkpt>
      <trkpt lat="39.9654930" lon="-3.7197100">
        <ele>509.2</ele>
        <time>2019-07-08T05:34:20Z</time>
      </trkpt>
      <trkpt lat="39.9654040" lon="-3.7198420">
        <ele>509.2</ele>
        <time>2019-07-08T05:34:22Z</time>
      </trkpt>
      <trkpt lat="39.9653600" lon="-3.7199060">
        <ele>509.0</ele>
        <time>2019-07-08T05:34:23Z</time>
      </trkpt>
      <trkpt lat="39.9652690" lon="-3.7200250">
        <ele>508.4</ele>
        <time>2019-07-08T05:34:25Z</time>
      </trkpt>
      <trkpt lat="39.9651860" lon="-3.7201370">
        <ele>508.2</ele>
        <time>2019-07-08T05:34:27Z</time>
      </trkpt>
      <trkpt lat="39.9651090" lon="-3.7202510">
        <ele>507.8</ele>
        <time>2019-07-08T05:34:29Z</time>
      </trkpt>
      <trkpt lat="39.9650380" lon="-3.7203730">
        <ele>507.8</ele>
        <time>2019-07-08T05:34:31Z</time>
      </trkpt>
      <trkpt lat="39.9648980" lon="-3.7206170">
        <ele>507.8</ele>
        <time>2019-07-08T05:34:35Z</time>
      </trkpt>
      <trkpt lat="39.9648280" lon="-3.7207400">
        <ele>507.8</ele>
        <time>2019-07-08T05:34:37Z</time>
      </trkpt>
      <trkpt lat="39.9646920" lon="-3.7209830">
        <ele>507.6</ele>
        <time>2019-07-08T05:34:41Z</time>
      </trkpt>
      <trkpt lat="39.9645260" lon="-3.7212730">
        <ele>507.8</ele>
        <time>2019-07-08T05:34:46Z</time>
      </trkpt>
      <trkpt lat="39.9644940" lon="-3.7213280">
        <ele>507.8</ele>
        <time>2019-07-08T05:34:47Z</time>
      </trkpt>
      <trkpt lat="39.9643400" lon="-3.7215770">
        <ele>508.6</ele>
        <time>2019-07-08T05:34:52Z</time>
      </trkpt>
      <trkpt lat="39.9642170" lon="-3.7217620">
        <ele>509.2</ele>
        <time>2019-07-08T05:34:56Z</time>
      </trkpt>
      <trkpt lat="39.9641260" lon="-3.7218980">
        <ele>509.8</ele>
        <time>2019-07-08T05:34:59Z</time>
      </trkpt>
      <trkpt lat="39.9640310" lon="-3.7220330">
        <ele>510.2</ele>
        <time>2019-07-08T05:35:02Z</time>
      </trkpt>
      <trkpt lat="39.9639990" lon="-3.7220770">
        <ele>510.6</ele>
        <time>2019-07-08T05:35:03Z</time>
      </trkpt>
      <trkpt lat="39.9638680" lon="-3.7222630">
        <ele>511.0</ele>
        <time>2019-07-08T05:35:07Z</time>
      </trkpt>
      <trkpt lat="39.9637030" lon="-3.7225080">
        <ele>511.0</ele>
        <time>2019-07-08T05:35:12Z</time>
      </trkpt>
      <trkpt lat="39.9634260" lon="-3.7229260">
        <ele>510.8</ele>
        <time>2019-07-08T05:35:20Z</time>
      </trkpt>
      <trkpt lat="39.9630650" lon="-3.7234760">
        <ele>510.4</ele>
        <time>2019-07-08T05:35:30Z</time>
      </trkpt>
      <trkpt lat="39.9628840" lon="-3.7237530">
        <ele>510.4</ele>
        <time>2019-07-08T05:35:35Z</time>
      </trkpt>
      <trkpt lat="39.9627070" lon="-3.7240280">
        <ele>510.2</ele>
        <time>2019-07-08T05:35:40Z</time>
      </trkpt>
      <trkpt lat="39.9623530" lon="-3.7245930">
        <ele>510.2</ele>
        <time>2019-07-08T05:35:50Z</time>
      </trkpt>
      <trkpt lat="39.9622820" lon="-3.7247040">
        <ele>510.4</ele>
        <time>2019-07-08T05:35:52Z</time>
      </trkpt>
      <trkpt lat="39.9620270" lon="-3.7250990">
        <ele>510.4</ele>
        <time>2019-07-08T05:35:59Z</time>
      </trkpt>
      <trkpt lat="39.9618890" lon="-3.7253310">
        <ele>510.6</ele>
        <time>2019-07-08T05:36:03Z</time>
      </trkpt>
      <trkpt lat="39.9617070" lon="-3.7256190">
        <ele>510.4</ele>
        <time>2019-07-08T05:36:08Z</time>
      </trkpt>
      <trkpt lat="39.9615210" lon="-3.7259250">
        <ele>510.4</ele>
        <time>2019-07-08T05:36:13Z</time>
      </trkpt>
      <trkpt lat="39.9611740" lon="-3.7264830">
        <ele>510.2</ele>
        <time>2019-07-08T05:36:22Z</time>
      </trkpt>
      <trkpt lat="39.9608340" lon="-3.7270380">
        <ele>509.6</ele>
        <time>2019-07-08T05:36:31Z</time>
      </trkpt>
      <trkpt lat="39.9607170" lon="-3.7272280">
        <ele>509.4</ele>
        <time>2019-07-08T05:36:34Z</time>
      </trkpt>
      <trkpt lat="39.9604550" lon="-3.7276590">
        <ele>509.0</ele>
        <time>2019-07-08T05:36:41Z</time>
      </trkpt>
      <trkpt lat="39.9602700" lon="-3.7279710">
        <ele>509.0</ele>
        <time>2019-07-08T05:36:46Z</time>
      </trkpt>
      <trkpt lat="39.9601920" lon="-3.7280990">
        <ele>508.6</ele>
        <time>2019-07-08T05:36:48Z</time>
      </trkpt>
      <trkpt lat="39.9601130" lon="-3.7282320">
        <ele>508.2</ele>
        <time>2019-07-08T05:36:50Z</time>
      </trkpt>
      <trkpt lat="39.9598650" lon="-3.7286140">
        <ele>507.4</ele>
        <time>2019-07-08T05:36:56Z</time>
      </trkpt>
      <trkpt lat="39.9594930" lon="-3.7291760">
        <ele>507.4</ele>
        <time>2019-07-08T05:37:05Z</time>
      </trkpt>
      <trkpt lat="39.9594520" lon="-3.7292350">
        <ele>507.2</ele>
        <time>2019-07-08T05:37:06Z</time>
      </trkpt>
      <trkpt lat="39.9591290" lon="-3.7297070">
        <ele>506.8</ele>
        <time>2019-07-08T05:37:14Z</time>
      </trkpt>
      <trkpt lat="39.9587460" lon="-3.7302960">
        <ele>507.2</ele>
        <time>2019-07-08T05:37:24Z</time>
      </trkpt>
      <trkpt lat="39.9587070" lon="-3.7303510">
        <ele>507.4</ele>
        <time>2019-07-08T05:37:25Z</time>
      </trkpt>
      <trkpt lat="39.9585200" lon="-3.7306260">
        <ele>507.2</ele>
        <time>2019-07-08T05:37:30Z</time>
      </trkpt>
      <trkpt lat="39.9584820" lon="-3.7306790">
        <ele>507.2</ele>
        <time>2019-07-08T05:37:31Z</time>
      </trkpt>
      <trkpt lat="39.9582050" lon="-3.7311120">
        <ele>508.0</ele>
        <time>2019-07-08T05:37:39Z</time>
      </trkpt>
      <trkpt lat="39.9580700" lon="-3.7313280">
        <ele>508.2</ele>
        <time>2019-07-08T05:37:43Z</time>
      </trkpt>
      <trkpt lat="39.9579400" lon="-3.7315510">
        <ele>508.8</ele>
        <time>2019-07-08T05:37:47Z</time>
      </trkpt>
      <trkpt lat="39.9578750" lon="-3.7316630">
        <ele>508.8</ele>
        <time>2019-07-08T05:37:49Z</time>
      </trkpt>
      <trkpt lat="39.9576830" lon="-3.7319930">
        <ele>509.4</ele>
        <time>2019-07-08T05:37:55Z</time>
      </trkpt>
      <trkpt lat="39.9575180" lon="-3.7322620">
        <ele>510.4</ele>
        <time>2019-07-08T05:38:00Z</time>
      </trkpt>
      <trkpt lat="39.9574850" lon="-3.7323140">
        <ele>510.6</ele>
        <time>2019-07-08T05:38:01Z</time>
      </trkpt>
      <trkpt lat="39.9573550" lon="-3.7325270">
        <ele>511.0</ele>
        <time>2019-07-08T05:38:05Z</time>
      </trkpt>
      <trkpt lat="39.9572190" lon="-3.7327400">
        <ele>511.6</ele>
        <time>2019-07-08T05:38:09Z</time>
      </trkpt>
      <trkpt lat="39.9571840" lon="-3.7327920">
        <ele>511.8</ele>
        <time>2019-07-08T05:38:10Z</time>
      </trkpt>
      <trkpt lat="39.9570080" lon="-3.7330530">
        <ele>513.0</ele>
        <time>2019-07-08T05:38:15Z</time>
      </trkpt>
      <trkpt lat="39.9568340" lon="-3.7333220">
        <ele>513.2</ele>
        <time>2019-07-08T05:38:20Z</time>
      </trkpt>
      <trkpt lat="39.9565940" lon="-3.7336570">
        <ele>514.0</ele>
        <time>2019-07-08T05:38:27Z</time>
      </trkpt>
      <trkpt lat="39.9565630" lon="-3.7337050">
        <ele>514.0</ele>
        <time>2019-07-08T05:38:28Z</time>
      </trkpt>
      <trkpt lat="39.9562930" lon="-3.7341750">
        <ele>514.6</ele>
        <time>2019-07-08T05:38:37Z</time>
      </trkpt>
      <trkpt lat="39.9560300" lon="-3.7346160">
        <ele>514.4</ele>
        <time>2019-07-08T05:38:45Z</time>
      </trkpt>
      <trkpt lat="39.9559710" lon="-3.7347100">
        <ele>514.6</ele>
        <time>2019-07-08T05:38:47Z</time>
      </trkpt>
      <trkpt lat="39.9558440" lon="-3.7349070">
        <ele>514.4</ele>
        <time>2019-07-08T05:38:51Z</time>
      </trkpt>
      <trkpt lat="39.9556780" lon="-3.7352530">
        <ele>514.8</ele>
        <time>2019-07-08T05:38:57Z</time>
      </trkpt>
      <trkpt lat="39.9556220" lon="-3.7353690">
        <ele>514.8</ele>
        <time>2019-07-08T05:38:59Z</time>
      </trkpt>
      <trkpt lat="39.9554920" lon="-3.7355830">
        <ele>515.0</ele>
        <time>2019-07-08T05:39:03Z</time>
      </trkpt>
      <trkpt lat="39.9553540" lon="-3.7357920">
        <ele>515.6</ele>
        <time>2019-07-08T05:39:08Z</time>
      </trkpt>
      <trkpt lat="39.9553290" lon="-3.7358330">
        <ele>516.0</ele>
        <time>2019-07-08T05:39:09Z</time>
      </trkpt>
      <trkpt lat="39.9551980" lon="-3.7360160">
        <ele>516.4</ele>
        <time>2019-07-08T05:39:13Z</time>
      </trkpt>
      <trkpt lat="39.9550350" lon="-3.7362660">
        <ele>515.8</ele>
        <time>2019-07-08T05:39:17Z</time>
      </trkpt>
      <trkpt lat="39.9549900" lon="-3.7363280">
        <ele>515.6</ele>
        <time>2019-07-08T05:39:18Z</time>
      </trkpt>
      <trkpt lat="39.9548120" lon="-3.7365820">
        <ele>515.2</ele>
        <time>2019-07-08T05:39:22Z</time>
      </trkpt>
      <trkpt lat="39.9547720" lon="-3.7366530">
        <ele>515.0</ele>
        <time>2019-07-08T05:39:23Z</time>
      </trkpt>
      <trkpt lat="39.9547320" lon="-3.7367240">
        <ele>515.0</ele>
        <time>2019-07-08T05:39:24Z</time>
      </trkpt>
      <trkpt lat="39.9546570" lon="-3.7368680">
        <ele>514.8</ele>
        <time>2019-07-08T05:39:26Z</time>
      </trkpt>
      <trkpt lat="39.9545230" lon="-3.7370730">
        <ele>514.4</ele>
        <time>2019-07-08T05:39:29Z</time>
      </trkpt>
      <trkpt lat="39.9541640" lon="-3.7376030">
        <ele>514.0</ele>
        <time>2019-07-08T05:39:37Z</time>
      </trkpt>
      <trkpt lat="39.9538470" lon="-3.7380990">
        <ele>513.0</ele>
        <time>2019-07-08T05:39:44Z</time>
      </trkpt>
      <trkpt lat="39.9538000" lon="-3.7381710">
        <ele>512.6</ele>
        <time>2019-07-08T05:39:45Z</time>
      </trkpt>
      <trkpt lat="39.9535650" lon="-3.7385310">
        <ele>512.6</ele>
        <time>2019-07-08T05:39:50Z</time>
      </trkpt>
      <trkpt lat="39.9534750" lon="-3.7386720">
        <ele>512.2</ele>
        <time>2019-07-08T05:39:52Z</time>
      </trkpt>
      <trkpt lat="39.9534300" lon="-3.7387430">
        <ele>511.8</ele>
        <time>2019-07-08T05:39:53Z</time>
      </trkpt>
      <trkpt lat="39.9532370" lon="-3.7390070">
        <ele>511.6</ele>
        <time>2019-07-08T05:39:57Z</time>
      </trkpt>
      <trkpt lat="39.9531370" lon="-3.7391340">
        <ele>511.6</ele>
        <time>2019-07-08T05:39:59Z</time>
      </trkpt>
      <trkpt lat="39.9530480" lon="-3.7392700">
        <ele>511.6</ele>
        <time>2019-07-08T05:40:01Z</time>
      </trkpt>
      <trkpt lat="39.9527330" lon="-3.7397330">
        <ele>510.8</ele>
        <time>2019-07-08T05:40:08Z</time>
      </trkpt>
      <trkpt lat="39.9526440" lon="-3.7398650">
        <ele>510.8</ele>
        <time>2019-07-08T05:40:10Z</time>
      </trkpt>
      <trkpt lat="39.9522960" lon="-3.7403880">
        <ele>510.2</ele>
        <time>2019-07-08T05:40:18Z</time>
      </trkpt>
      <trkpt lat="39.9521180" lon="-3.7406390">
        <ele>510.0</ele>
        <time>2019-07-08T05:40:22Z</time>
      </trkpt>
      <trkpt lat="39.9520380" lon="-3.7407680">
        <ele>510.0</ele>
        <time>2019-07-08T05:40:24Z</time>
      </trkpt>
      <trkpt lat="39.9518510" lon="-3.7410750">
        <ele>509.8</ele>
        <time>2019-07-08T05:40:29Z</time>
      </trkpt>
      <trkpt lat="39.9517760" lon="-3.7412020">
        <ele>509.6</ele>
        <time>2019-07-08T05:40:31Z</time>
      </trkpt>
      <trkpt lat="39.9515960" lon="-3.7415180">
        <ele>510.0</ele>
        <time>2019-07-08T05:40:36Z</time>
      </trkpt>
      <trkpt lat="39.9515060" lon="-3.7417070">
        <ele>510.4</ele>
        <time>2019-07-08T05:40:39Z</time>
      </trkpt>
      <trkpt lat="39.9514130" lon="-3.7418860">
        <ele>510.4</ele>
        <time>2019-07-08T05:40:42Z</time>
      </trkpt>
      <trkpt lat="39.9513490" lon="-3.7419960">
        <ele>510.8</ele>
        <time>2019-07-08T05:40:44Z</time>
      </trkpt>
      <trkpt lat="39.9512350" lon="-3.7421270">
        <ele>511.2</ele>
        <time>2019-07-08T05:40:47Z</time>
      </trkpt>
      <trkpt lat="39.9511470" lon="-3.7421820">
        <ele>511.8</ele>
        <time>2019-07-08T05:40:49Z</time>
      </trkpt>
      <trkpt lat="39.9510530" lon="-3.7422120">
        <ele>512.0</ele>
        <time>2019-07-08T05:40:51Z</time>
      </trkpt>
      <trkpt lat="39.9510060" lon="-3.7422160">
        <ele>511.8</ele>
        <time>2019-07-08T05:40:52Z</time>
      </trkpt>
      <trkpt lat="39.9508740" lon="-3.7422190">
        <ele>512.0</ele>
        <time>2019-07-08T05:40:55Z</time>
      </trkpt>
      <trkpt lat="39.9507840" lon="-3.7421920">
        <ele>512.0</ele>
        <time>2019-07-08T05:40:57Z</time>
      </trkpt>
      <trkpt lat="39.9506540" lon="-3.7421340">
        <ele>512.6</ele>
        <time>2019-07-08T05:41:00Z</time>
      </trkpt>
      <trkpt lat="39.9504920" lon="-3.7420620">
        <ele>513.0</ele>
        <time>2019-07-08T05:41:04Z</time>
      </trkpt>
      <trkpt lat="39.9504130" lon="-3.7420230">
        <ele>512.8</ele>
        <time>2019-07-08T05:41:06Z</time>
      </trkpt>
      <trkpt lat="39.9502080" lon="-3.7419510">
        <ele>513.8</ele>
        <time>2019-07-08T05:41:11Z</time>
      </trkpt>
      <trkpt lat="39.9498900" lon="-3.7418260">
        <ele>515.2</ele>
        <time>2019-07-08T05:41:19Z</time>
      </trkpt>
      <trkpt lat="39.9498160" lon="-3.7417990">
        <ele>515.4</ele>
        <time>2019-07-08T05:41:21Z</time>
      </trkpt>
      <trkpt lat="39.9495960" lon="-3.7417250">
        <ele>516.4</ele>
        <time>2019-07-08T05:41:27Z</time>
      </trkpt>
      <trkpt lat="39.9494860" lon="-3.7417030">
        <ele>517.4</ele>
        <time>2019-07-08T05:41:30Z</time>
      </trkpt>
      <trkpt lat="39.9493700" lon="-3.7416960">
        <ele>517.6</ele>
        <time>2019-07-08T05:41:33Z</time>
      </trkpt>
      <trkpt lat="39.9491620" lon="-3.7416980">
        <ele>518.0</ele>
        <time>2019-07-08T05:41:38Z</time>
      </trkpt>
      <trkpt lat="39.9489490" lon="-3.7417490">
        <ele>517.8</ele>
        <time>2019-07-08T05:41:43Z</time>
      </trkpt>
      <trkpt lat="39.9489050" lon="-3.7417490">
        <ele>517.8</ele>
        <time>2019-07-08T05:41:44Z</time>
      </trkpt>
      <trkpt lat="39.9487240" lon="-3.7417460">
        <ele>518.6</ele>
        <time>2019-07-08T05:41:48Z</time>
      </trkpt>
      <trkpt lat="39.9486350" lon="-3.7417300">
        <ele>518.8</ele>
        <time>2019-07-08T05:41:50Z</time>
      </trkpt>
      <trkpt lat="39.9484500" lon="-3.7417720">
        <ele>519.4</ele>
        <time>2019-07-08T05:41:54Z</time>
      </trkpt>
      <trkpt lat="39.9484030" lon="-3.7417770">
        <ele>519.4</ele>
        <time>2019-07-08T05:41:55Z</time>
      </trkpt>
      <trkpt lat="39.9483100" lon="-3.7417870">
        <ele>519.2</ele>
        <time>2019-07-08T05:41:57Z</time>
      </trkpt>
      <trkpt lat="39.9481260" lon="-3.7418270">
        <ele>519.0</ele>
        <time>2019-07-08T05:42:01Z</time>
      </trkpt>
      <trkpt lat="39.9480800" lon="-3.7418330">
        <ele>519.0</ele>
        <time>2019-07-08T05:42:02Z</time>
      </trkpt>
      <trkpt lat="39.9478990" lon="-3.7418290">
        <ele>519.0</ele>
        <time>2019-07-08T05:42:06Z</time>
      </trkpt>
      <trkpt lat="39.9477910" lon="-3.7418280">
        <ele>519.0</ele>
        <time>2019-07-08T05:42:09Z</time>
      </trkpt>
      <trkpt lat="39.9477230" lon="-3.7418120">
        <ele>519.2</ele>
        <time>2019-07-08T05:42:11Z</time>
      </trkpt>
      <trkpt lat="39.9476070" lon="-3.7417870">
        <ele>519.4</ele>
        <time>2019-07-08T05:42:14Z</time>
      </trkpt>
      <trkpt lat="39.9475220" lon="-3.7418050">
        <ele>519.4</ele>
        <time>2019-07-08T05:42:16Z</time>
      </trkpt>
      <trkpt lat="39.9473980" lon="-3.7418390">
        <ele>519.2</ele>
        <time>2019-07-08T05:42:19Z</time>
      </trkpt>
      <trkpt lat="39.9472280" lon="-3.7418660">
        <ele>519.4</ele>
        <time>2019-07-08T05:42:23Z</time>
      </trkpt>
      <trkpt lat="39.9470780" lon="-3.7418560">
        <ele>519.2</ele>
        <time>2019-07-08T05:42:27Z</time>
      </trkpt>
      <trkpt lat="39.9470350" lon="-3.7418510">
        <ele>519.2</ele>
        <time>2019-07-08T05:42:28Z</time>
      </trkpt>
      <trkpt lat="39.9467860" lon="-3.7418040">
        <ele>518.6</ele>
        <time>2019-07-08T05:42:33Z</time>
      </trkpt>
      <trkpt lat="39.9467290" lon="-3.7417910">
        <ele>518.4</ele>
        <time>2019-07-08T05:42:34Z</time>
      </trkpt>
      <trkpt lat="39.9466050" lon="-3.7417680">
        <ele>517.6</ele>
        <time>2019-07-08T05:42:36Z</time>
      </trkpt>
      <trkpt lat="39.9464720" lon="-3.7417670">
        <ele>516.8</ele>
        <time>2019-07-08T05:42:38Z</time>
      </trkpt>
      <trkpt lat="39.9464040" lon="-3.7417810">
        <ele>516.4</ele>
        <time>2019-07-08T05:42:39Z</time>
      </trkpt>
      <trkpt lat="39.9462210" lon="-3.7418630">
        <ele>515.4</ele>
        <time>2019-07-08T05:42:42Z</time>
      </trkpt>
      <trkpt lat="39.9461670" lon="-3.7418960">
        <ele>515.2</ele>
        <time>2019-07-08T05:42:43Z</time>
      </trkpt>
      <trkpt lat="39.9461150" lon="-3.7419300">
        <ele>515.2</ele>
        <time>2019-07-08T05:42:44Z</time>
      </trkpt>
      <trkpt lat="39.9458070" lon="-3.7421250">
        <ele>515.0</ele>
        <time>2019-07-08T05:42:50Z</time>
      </trkpt>
      <trkpt lat="39.9455530" lon="-3.7423080">
        <ele>515.4</ele>
        <time>2019-07-08T05:42:56Z</time>
      </trkpt>
      <trkpt lat="39.9454230" lon="-3.7423660">
        <ele>516.2</ele>
        <time>2019-07-08T05:43:00Z</time>
      </trkpt>
      <trkpt lat="39.9453920" lon="-3.7423800">
        <ele>516.6</ele>
        <time>2019-07-08T05:43:01Z</time>
      </trkpt>
      <trkpt lat="39.9452710" lon="-3.7424470">
        <ele>517.4</ele>
        <time>2019-07-08T05:43:05Z</time>
      </trkpt>
      <trkpt lat="39.9452120" lon="-3.7424810">
        <ele>517.8</ele>
        <time>2019-07-08T05:43:07Z</time>
      </trkpt>
      <trkpt lat="39.9451830" lon="-3.7424980">
        <ele>518.0</ele>
        <time>2019-07-08T05:43:08Z</time>
      </trkpt>
      <trkpt lat="39.9450240" lon="-3.7425800">
        <ele>519.2</ele>
        <time>2019-07-08T05:43:13Z</time>
      </trkpt>
      <trkpt lat="39.9449230" lon="-3.7426270">
        <ele>519.8</ele>
        <time>2019-07-08T05:43:16Z</time>
      </trkpt>
      <trkpt lat="39.9448550" lon="-3.7426620">
        <ele>520.4</ele>
        <time>2019-07-08T05:43:18Z</time>
      </trkpt>
      <trkpt lat="39.9447140" lon="-3.7427320">
        <ele>520.4</ele>
        <time>2019-07-08T05:43:22Z</time>
      </trkpt>
      <trkpt lat="39.9445730" lon="-3.7427960">
        <ele>520.6</ele>
        <time>2019-07-08T05:43:26Z</time>
      </trkpt>
      <trkpt lat="39.9443330" lon="-3.7429020">
        <ele>520.6</ele>
        <time>2019-07-08T05:43:33Z</time>
      </trkpt>
      <trkpt lat="39.9442670" lon="-3.7429310">
        <ele>521.6</ele>
        <time>2019-07-08T05:43:35Z</time>
      </trkpt>
      <trkpt lat="39.9441030" lon="-3.7430050">
        <ele>522.6</ele>
        <time>2019-07-08T05:43:40Z</time>
      </trkpt>
      <trkpt lat="39.9440390" lon="-3.7430330">
        <ele>523.0</ele>
        <time>2019-07-08T05:43:42Z</time>
      </trkpt>
      <trkpt lat="39.9439060" lon="-3.7430890">
        <ele>524.0</ele>
        <time>2019-07-08T05:43:46Z</time>
      </trkpt>
      <trkpt lat="39.9437990" lon="-3.7431250">
        <ele>524.4</ele>
        <time>2019-07-08T05:43:49Z</time>
      </trkpt>
      <trkpt lat="39.9437270" lon="-3.7431440">
        <ele>525.2</ele>
        <time>2019-07-08T05:43:51Z</time>
      </trkpt>
      <trkpt lat="39.9435860" lon="-3.7432160">
        <ele>525.4</ele>
        <time>2019-07-08T05:43:55Z</time>
      </trkpt>
      <trkpt lat="39.9433520" lon="-3.7433160">
        <ele>525.4</ele>
        <time>2019-07-08T05:44:01Z</time>
      </trkpt>
      <trkpt lat="39.9430480" lon="-3.7434390">
        <ele>525.8</ele>
        <time>2019-07-08T05:44:08Z</time>
      </trkpt>
      <trkpt lat="39.9428300" lon="-3.7435270">
        <ele>525.8</ele>
        <time>2019-07-08T05:44:13Z</time>
      </trkpt>
      <trkpt lat="39.9426070" lon="-3.7436220">
        <ele>526.4</ele>
        <time>2019-07-08T05:44:18Z</time>
      </trkpt>
      <trkpt lat="39.9424230" lon="-3.7436990">
        <ele>526.4</ele>
        <time>2019-07-08T05:44:22Z</time>
      </trkpt>
      <trkpt lat="39.9422100" lon="-3.7437910">
        <ele>526.2</ele>
        <time>2019-07-08T05:44:27Z</time>
      </trkpt>
      <trkpt lat="39.9421280" lon="-3.7438330">
        <ele>526.2</ele>
        <time>2019-07-08T05:44:29Z</time>
      </trkpt>
      <trkpt lat="39.9419580" lon="-3.7439000">
        <ele>526.4</ele>
        <time>2019-07-08T05:44:33Z</time>
      </trkpt>
      <trkpt lat="39.9419160" lon="-3.7439190">
        <ele>526.4</ele>
        <time>2019-07-08T05:44:34Z</time>
      </trkpt>
      <trkpt lat="39.9417070" lon="-3.7439800">
        <ele>526.2</ele>
        <time>2019-07-08T05:44:39Z</time>
      </trkpt>
      <trkpt lat="39.9416710" lon="-3.7439930">
        <ele>526.2</ele>
        <time>2019-07-08T05:44:40Z</time>
      </trkpt>
      <trkpt lat="39.9414900" lon="-3.7440730">
        <ele>527.2</ele>
        <time>2019-07-08T05:44:45Z</time>
      </trkpt>
      <trkpt lat="39.9414200" lon="-3.7441090">
        <ele>527.4</ele>
        <time>2019-07-08T05:44:47Z</time>
      </trkpt>
      <trkpt lat="39.9411850" lon="-3.7442220">
        <ele>528.4</ele>
        <time>2019-07-08T05:44:54Z</time>
      </trkpt>
      <trkpt lat="39.9411510" lon="-3.7442400">
        <ele>528.6</ele>
        <time>2019-07-08T05:44:55Z</time>
      </trkpt>
      <trkpt lat="39.9410190" lon="-3.7443050">
        <ele>529.6</ele>
        <time>2019-07-08T05:44:59Z</time>
      </trkpt>
      <trkpt lat="39.9408260" lon="-3.7443990">
        <ele>530.8</ele>
        <time>2019-07-08T05:45:05Z</time>
      </trkpt>
      <trkpt lat="39.9407050" lon="-3.7444610">
        <ele>531.8</ele>
        <time>2019-07-08T05:45:09Z</time>
      </trkpt>
      <trkpt lat="39.9406390" lon="-3.7445020">
        <ele>532.4</ele>
        <time>2019-07-08T05:45:12Z</time>
      </trkpt>
      <trkpt lat="39.9406100" lon="-3.7445120">
        <ele>532.8</ele>
        <time>2019-07-08T05:45:16Z</time>
      </trkpt>
      <trkpt lat="39.9405960" lon="-3.7445750">
        <ele>532.6</ele>
        <time>2019-07-08T05:46:12Z</time>
      </trkpt>
      <trkpt lat="39.9405980" lon="-3.7446040">
        <ele>532.6</ele>
        <time>2019-07-08T05:46:13Z</time>
      </trkpt>
      <trkpt lat="39.9406000" lon="-3.7446430">
        <ele>532.8</ele>
        <time>2019-07-08T05:46:14Z</time>
      </trkpt>
      <trkpt lat="39.9406030" lon="-3.7447400">
        <ele>532.8</ele>
        <time>2019-07-08T05:46:16Z</time>
      </trkpt>
      <trkpt lat="39.9406060" lon="-3.7448580">
        <ele>533.0</ele>
        <time>2019-07-08T05:46:18Z</time>
      </trkpt>
      <trkpt lat="39.9406080" lon="-3.7449240">
        <ele>533.0</ele>
        <time>2019-07-08T05:46:19Z</time>
      </trkpt>
      <trkpt lat="39.9406280" lon="-3.7454480">
        <ele>532.2</ele>
        <time>2019-07-08T05:46:26Z</time>
      </trkpt>
      <trkpt lat="39.9406480" lon="-3.7459590">
        <ele>532.0</ele>
        <time>2019-07-08T05:46:32Z</time>
      </trkpt>
      <trkpt lat="39.9406530" lon="-3.7461380">
        <ele>532.0</ele>
        <time>2019-07-08T05:46:34Z</time>
      </trkpt>
      <trkpt lat="39.9406560" lon="-3.7462290">
        <ele>532.0</ele>
        <time>2019-07-08T05:46:35Z</time>
      </trkpt>
      <trkpt lat="39.9406590" lon="-3.7463200">
        <ele>532.0</ele>
        <time>2019-07-08T05:46:36Z</time>
      </trkpt>
      <trkpt lat="39.9406880" lon="-3.7470700">
        <ele>531.8</ele>
        <time>2019-07-08T05:46:44Z</time>
      </trkpt>
      <trkpt lat="39.9406910" lon="-3.7471660">
        <ele>531.8</ele>
        <time>2019-07-08T05:46:45Z</time>
      </trkpt>
      <trkpt lat="39.9407210" lon="-3.7479410">
        <ele>531.6</ele>
        <time>2019-07-08T05:46:53Z</time>
      </trkpt>
      <trkpt lat="39.9407320" lon="-3.7482440">
        <ele>531.4</ele>
        <time>2019-07-08T05:46:56Z</time>
      </trkpt>
      <trkpt lat="39.9407380" lon="-3.7484500">
        <ele>530.8</ele>
        <time>2019-07-08T05:46:58Z</time>
      </trkpt>
      <trkpt lat="39.9407640" lon="-3.7491530">
        <ele>530.2</ele>
        <time>2019-07-08T05:47:05Z</time>
      </trkpt>
      <trkpt lat="39.9407680" lon="-3.7492480">
        <ele>530.2</ele>
        <time>2019-07-08T05:47:06Z</time>
      </trkpt>
      <trkpt lat="39.9408000" lon="-3.7500140">
        <ele>530.4</ele>
        <time>2019-07-08T05:47:14Z</time>
      </trkpt>
      <trkpt lat="39.9408080" lon="-3.7503140">
        <ele>530.6</ele>
        <time>2019-07-08T05:47:17Z</time>
      </trkpt>
      <trkpt lat="39.9407970" lon="-3.7510350">
        <ele>530.0</ele>
        <time>2019-07-08T05:47:24Z</time>
      </trkpt>
      <trkpt lat="39.9407910" lon="-3.7511430">
        <ele>529.8</ele>
        <time>2019-07-08T05:47:25Z</time>
      </trkpt>
      <trkpt lat="39.9407840" lon="-3.7512530">
        <ele>529.6</ele>
        <time>2019-07-08T05:47:26Z</time>
      </trkpt>
      <trkpt lat="39.9407410" lon="-3.7517140">
        <ele>528.6</ele>
        <time>2019-07-08T05:47:30Z</time>
      </trkpt>
      <trkpt lat="39.9407030" lon="-3.7520810">
        <ele>527.6</ele>
        <time>2019-07-08T05:47:33Z</time>
      </trkpt>
      <trkpt lat="39.9406900" lon="-3.7522080">
        <ele>527.4</ele>
        <time>2019-07-08T05:47:34Z</time>
      </trkpt>
      <trkpt lat="39.9406490" lon="-3.7525980">
        <ele>525.6</ele>
        <time>2019-07-08T05:47:37Z</time>
      </trkpt>
      <trkpt lat="39.9406200" lon="-3.7528590">
        <ele>523.8</ele>
        <time>2019-07-08T05:47:39Z</time>
      </trkpt>
      <trkpt lat="39.9405910" lon="-3.7531190">
        <ele>522.6</ele>
        <time>2019-07-08T05:47:41Z</time>
      </trkpt>
      <trkpt lat="39.9405620" lon="-3.7533750">
        <ele>521.4</ele>
        <time>2019-07-08T05:47:43Z</time>
      </trkpt>
      <trkpt lat="39.9405230" lon="-3.7537540">
        <ele>520.2</ele>
        <time>2019-07-08T05:47:46Z</time>
      </trkpt>
      <trkpt lat="39.9404840" lon="-3.7541220">
        <ele>519.2</ele>
        <time>2019-07-08T05:47:49Z</time>
      </trkpt>
      <trkpt lat="39.9404590" lon="-3.7543610">
        <ele>518.2</ele>
        <time>2019-07-08T05:47:51Z</time>
      </trkpt>
      <trkpt lat="39.9404470" lon="-3.7544790">
        <ele>517.8</ele>
        <time>2019-07-08T05:47:52Z</time>
      </trkpt>
      <trkpt lat="39.9404080" lon="-3.7548280">
        <ele>517.0</ele>
        <time>2019-07-08T05:47:55Z</time>
      </trkpt>
      <trkpt lat="39.9403950" lon="-3.7549420">
        <ele>516.8</ele>
        <time>2019-07-08T05:47:56Z</time>
      </trkpt>
      <trkpt lat="39.9403620" lon="-3.7552790">
        <ele>515.6</ele>
        <time>2019-07-08T05:47:59Z</time>
      </trkpt>
      <trkpt lat="39.9403490" lon="-3.7553870">
        <ele>515.4</ele>
        <time>2019-07-08T05:48:00Z</time>
      </trkpt>
      <trkpt lat="39.9402820" lon="-3.7560160">
        <ele>514.6</ele>
        <time>2019-07-08T05:48:06Z</time>
      </trkpt>
      <trkpt lat="39.9402370" lon="-3.7564360">
        <ele>515.0</ele>
        <time>2019-07-08T05:48:10Z</time>
      </trkpt>
      <trkpt lat="39.9401700" lon="-3.7570540">
        <ele>515.2</ele>
        <time>2019-07-08T05:48:16Z</time>
      </trkpt>
      <trkpt lat="39.9401260" lon="-3.7574650">
        <ele>515.0</ele>
        <time>2019-07-08T05:48:20Z</time>
      </trkpt>
      <trkpt lat="39.9400640" lon="-3.7579790">
        <ele>514.8</ele>
        <time>2019-07-08T05:48:25Z</time>
      </trkpt>
      <trkpt lat="39.9400220" lon="-3.7583830">
        <ele>514.8</ele>
        <time>2019-07-08T05:48:29Z</time>
      </trkpt>
      <trkpt lat="39.9399510" lon="-3.7590880">
        <ele>514.4</ele>
        <time>2019-07-08T05:48:36Z</time>
      </trkpt>
      <trkpt lat="39.9399170" lon="-3.7594000">
        <ele>513.8</ele>
        <time>2019-07-08T05:48:39Z</time>
      </trkpt>
      <trkpt lat="39.9398930" lon="-3.7596120">
        <ele>513.4</ele>
        <time>2019-07-08T05:48:41Z</time>
      </trkpt>
      <trkpt lat="39.9398160" lon="-3.7602650">
        <ele>512.4</ele>
        <time>2019-07-08T05:48:47Z</time>
      </trkpt>
      <trkpt lat="39.9397920" lon="-3.7604830">
        <ele>511.6</ele>
        <time>2019-07-08T05:48:49Z</time>
      </trkpt>
      <trkpt lat="39.9397700" lon="-3.7607040">
        <ele>511.4</ele>
        <time>2019-07-08T05:48:51Z</time>
      </trkpt>
      <trkpt lat="39.9396990" lon="-3.7613760">
        <ele>510.2</ele>
        <time>2019-07-08T05:48:57Z</time>
      </trkpt>
      <trkpt lat="39.9396650" lon="-3.7617130">
        <ele>509.6</ele>
        <time>2019-07-08T05:49:00Z</time>
      </trkpt>
      <trkpt lat="39.9396420" lon="-3.7619320">
        <ele>509.0</ele>
        <time>2019-07-08T05:49:02Z</time>
      </trkpt>
      <trkpt lat="39.9395650" lon="-3.7626450">
        <ele>508.0</ele>
        <time>2019-07-08T05:49:09Z</time>
      </trkpt>
      <trkpt lat="39.9395230" lon="-3.7630250">
        <ele>507.2</ele>
        <time>2019-07-08T05:49:13Z</time>
      </trkpt>
      <trkpt lat="39.9394500" lon="-3.7636830">
        <ele>507.4</ele>
        <time>2019-07-08T05:49:20Z</time>
      </trkpt>
      <trkpt lat="39.9393880" lon="-3.7642460">
        <ele>506.8</ele>
        <time>2019-07-08T05:49:26Z</time>
      </trkpt>
      <trkpt lat="39.9393470" lon="-3.7646310">
        <ele>506.4</ele>
        <time>2019-07-08T05:49:30Z</time>
      </trkpt>
      <trkpt lat="39.9392640" lon="-3.7654140">
        <ele>506.2</ele>
        <time>2019-07-08T05:49:38Z</time>
      </trkpt>
      <trkpt lat="39.9392530" lon="-3.7655150">
        <ele>506.0</ele>
        <time>2019-07-08T05:49:39Z</time>
      </trkpt>
      <trkpt lat="39.9391780" lon="-3.7662230">
        <ele>506.0</ele>
        <time>2019-07-08T05:49:46Z</time>
      </trkpt>
      <trkpt lat="39.9391460" lon="-3.7665260">
        <ele>505.8</ele>
        <time>2019-07-08T05:49:49Z</time>
      </trkpt>
      <trkpt lat="39.9391360" lon="-3.7666270">
        <ele>505.8</ele>
        <time>2019-07-08T05:49:50Z</time>
      </trkpt>
      <trkpt lat="39.9391250" lon="-3.7667290">
        <ele>505.8</ele>
        <time>2019-07-08T05:49:51Z</time>
      </trkpt>
      <trkpt lat="39.9390450" lon="-3.7674350">
        <ele>505.2</ele>
        <time>2019-07-08T05:49:58Z</time>
      </trkpt>
      <trkpt lat="39.9390130" lon="-3.7677380">
        <ele>504.8</ele>
        <time>2019-07-08T05:50:01Z</time>
      </trkpt>
      <trkpt lat="39.9389800" lon="-3.7680350">
        <ele>504.8</ele>
        <time>2019-07-08T05:50:04Z</time>
      </trkpt>
      <trkpt lat="39.9389420" lon="-3.7684390">
        <ele>504.2</ele>
        <time>2019-07-08T05:50:08Z</time>
      </trkpt>
      <trkpt lat="39.9388680" lon="-3.7691450">
        <ele>504.0</ele>
        <time>2019-07-08T05:50:15Z</time>
      </trkpt>
      <trkpt lat="39.9388490" lon="-3.7693430">
        <ele>503.6</ele>
        <time>2019-07-08T05:50:17Z</time>
      </trkpt>
      <trkpt lat="39.9387750" lon="-3.7700110">
        <ele>503.6</ele>
        <time>2019-07-08T05:50:24Z</time>
      </trkpt>
      <trkpt lat="39.9386950" lon="-3.7707300">
        <ele>503.4</ele>
        <time>2019-07-08T05:50:32Z</time>
      </trkpt>
      <trkpt lat="39.9386740" lon="-3.7709070">
        <ele>503.4</ele>
        <time>2019-07-08T05:50:34Z</time>
      </trkpt>
      <trkpt lat="39.9385940" lon="-3.7716290">
        <ele>503.0</ele>
        <time>2019-07-08T05:50:42Z</time>
      </trkpt>
      <trkpt lat="39.9385760" lon="-3.7718140">
        <ele>503.0</ele>
        <time>2019-07-08T05:50:44Z</time>
      </trkpt>
      <trkpt lat="39.9385460" lon="-3.7720960">
        <ele>502.8</ele>
        <time>2019-07-08T05:50:47Z</time>
      </trkpt>
      <trkpt lat="39.9384650" lon="-3.7728540">
        <ele>501.8</ele>
        <time>2019-07-08T05:50:55Z</time>
      </trkpt>
      <trkpt lat="39.9384480" lon="-3.7730450">
        <ele>501.6</ele>
        <time>2019-07-08T05:50:57Z</time>
      </trkpt>
      <trkpt lat="39.9383980" lon="-3.7735120">
        <ele>501.2</ele>
        <time>2019-07-08T05:51:02Z</time>
      </trkpt>
      <trkpt lat="39.9383370" lon="-3.7740810">
        <ele>500.8</ele>
        <time>2019-07-08T05:51:08Z</time>
      </trkpt>
      <trkpt lat="39.9383170" lon="-3.7742730">
        <ele>500.6</ele>
        <time>2019-07-08T05:51:10Z</time>
      </trkpt>
      <trkpt lat="39.9382460" lon="-3.7749490">
        <ele>499.4</ele>
        <time>2019-07-08T05:51:17Z</time>
      </trkpt>
      <trkpt lat="39.9382370" lon="-3.7750440">
        <ele>499.4</ele>
        <time>2019-07-08T05:51:18Z</time>
      </trkpt>
      <trkpt lat="39.9381640" lon="-3.7757030">
        <ele>499.2</ele>
        <time>2019-07-08T05:51:25Z</time>
      </trkpt>
      <trkpt lat="39.9380820" lon="-3.7764250">
        <ele>499.2</ele>
        <time>2019-07-08T05:51:33Z</time>
      </trkpt>
      <trkpt lat="39.9380720" lon="-3.7765150">
        <ele>499.0</ele>
        <time>2019-07-08T05:51:34Z</time>
      </trkpt>
      <trkpt lat="39.9379960" lon="-3.7772240">
        <ele>498.8</ele>
        <time>2019-07-08T05:51:42Z</time>
      </trkpt>
      <trkpt lat="39.9379870" lon="-3.7773160">
        <ele>498.6</ele>
        <time>2019-07-08T05:51:43Z</time>
      </trkpt>
      <trkpt lat="39.9379580" lon="-3.7775940">
        <ele>498.2</ele>
        <time>2019-07-08T05:51:46Z</time>
      </trkpt>
      <trkpt lat="39.9379060" lon="-3.7780680">
        <ele>497.6</ele>
        <time>2019-07-08T05:51:51Z</time>
      </trkpt>
      <trkpt lat="39.9378420" lon="-3.7786460">
        <ele>497.2</ele>
        <time>2019-07-08T05:51:57Z</time>
      </trkpt>
      <trkpt lat="39.9377560" lon="-3.7794040">
        <ele>496.8</ele>
        <time>2019-07-08T05:52:05Z</time>
      </trkpt>
      <trkpt lat="39.9377030" lon="-3.7798680">
        <ele>496.6</ele>
        <time>2019-07-08T05:52:10Z</time>
      </trkpt>
      <trkpt lat="39.9376700" lon="-3.7801460">
        <ele>496.6</ele>
        <time>2019-07-08T05:52:13Z</time>
      </trkpt>
      <trkpt lat="39.9375850" lon="-3.7808990">
        <ele>495.8</ele>
        <time>2019-07-08T05:52:21Z</time>
      </trkpt>
      <trkpt lat="39.9374990" lon="-3.7816600">
        <ele>495.6</ele>
        <time>2019-07-08T05:52:29Z</time>
      </trkpt>
      <trkpt lat="39.9374820" lon="-3.7818450">
        <ele>495.8</ele>
        <time>2019-07-08T05:52:31Z</time>
      </trkpt>
      <trkpt lat="39.9374270" lon="-3.7823940">
        <ele>496.2</ele>
        <time>2019-07-08T05:52:37Z</time>
      </trkpt>
      <trkpt lat="39.9373520" lon="-3.7831630">
        <ele>496.2</ele>
        <time>2019-07-08T05:52:46Z</time>
      </trkpt>
      <trkpt lat="39.9372740" lon="-3.7838990">
        <ele>496.6</ele>
        <time>2019-07-08T05:52:55Z</time>
      </trkpt>
      <trkpt lat="39.9372660" lon="-3.7839800">
        <ele>496.6</ele>
        <time>2019-07-08T05:52:56Z</time>
      </trkpt>
      <trkpt lat="39.9372050" lon="-3.7845620">
        <ele>497.2</ele>
        <time>2019-07-08T05:53:03Z</time>
      </trkpt>
      <trkpt lat="39.9371700" lon="-3.7848940">
        <ele>497.4</ele>
        <time>2019-07-08T05:53:07Z</time>
      </trkpt>
      <trkpt lat="39.9371220" lon="-3.7853860">
        <ele>497.8</ele>
        <time>2019-07-08T05:53:13Z</time>
      </trkpt>
      <trkpt lat="39.9370870" lon="-3.7857190">
        <ele>497.6</ele>
        <time>2019-07-08T05:53:17Z</time>
      </trkpt>
      <trkpt lat="39.9370000" lon="-3.7864720">
        <ele>498.2</ele>
        <time>2019-07-08T05:53:26Z</time>
      </trkpt>
      <trkpt lat="39.9369900" lon="-3.7865550">
        <ele>498.2</ele>
        <time>2019-07-08T05:53:27Z</time>
      </trkpt>
      <trkpt lat="39.9369120" lon="-3.7873000">
        <ele>498.8</ele>
        <time>2019-07-08T05:53:36Z</time>
      </trkpt>
      <trkpt lat="39.9368800" lon="-3.7876340">
        <ele>498.8</ele>
        <time>2019-07-08T05:53:40Z</time>
      </trkpt>
      <trkpt lat="39.9368020" lon="-3.7883840">
        <ele>498.8</ele>
        <time>2019-07-08T05:53:49Z</time>
      </trkpt>
      <trkpt lat="39.9367770" lon="-3.7886310">
        <ele>498.8</ele>
        <time>2019-07-08T05:53:52Z</time>
      </trkpt>
      <trkpt lat="39.9366920" lon="-3.7893760">
        <ele>499.0</ele>
        <time>2019-07-08T05:54:01Z</time>
      </trkpt>
      <trkpt lat="39.9366650" lon="-3.7896250">
        <ele>499.0</ele>
        <time>2019-07-08T05:54:04Z</time>
      </trkpt>
      <trkpt lat="39.9366330" lon="-3.7899550">
        <ele>499.2</ele>
        <time>2019-07-08T05:54:08Z</time>
      </trkpt>
      <trkpt lat="39.9365750" lon="-3.7904500">
        <ele>499.4</ele>
        <time>2019-07-08T05:54:14Z</time>
      </trkpt>
      <trkpt lat="39.9364870" lon="-3.7911940">
        <ele>499.8</ele>
        <time>2019-07-08T05:54:23Z</time>
      </trkpt>
      <trkpt lat="39.9364700" lon="-3.7913610">
        <ele>499.8</ele>
        <time>2019-07-08T05:54:25Z</time>
      </trkpt>
      <trkpt lat="39.9364070" lon="-3.7920070">
        <ele>500.2</ele>
        <time>2019-07-08T05:54:33Z</time>
      </trkpt>
      <trkpt lat="39.9364000" lon="-3.7920870">
        <ele>500.2</ele>
        <time>2019-07-08T05:54:34Z</time>
      </trkpt>
      <trkpt lat="39.9363260" lon="-3.7928060">
        <ele>500.8</ele>
        <time>2019-07-08T05:54:43Z</time>
      </trkpt>
      <trkpt lat="39.9363180" lon="-3.7928850">
        <ele>500.8</ele>
        <time>2019-07-08T05:54:44Z</time>
      </trkpt>
      <trkpt lat="39.9362450" lon="-3.7936010">
        <ele>501.4</ele>
        <time>2019-07-08T05:54:53Z</time>
      </trkpt>
      <trkpt lat="39.9362360" lon="-3.7936810">
        <ele>501.4</ele>
        <time>2019-07-08T05:54:54Z</time>
      </trkpt>
      <trkpt lat="39.9362280" lon="-3.7937590">
        <ele>501.4</ele>
        <time>2019-07-08T05:54:55Z</time>
      </trkpt>
      <trkpt lat="39.9361580" lon="-3.7943920">
        <ele>501.8</ele>
        <time>2019-07-08T05:55:03Z</time>
      </trkpt>
      <trkpt lat="39.9360760" lon="-3.7951510">
        <ele>502.0</ele>
        <time>2019-07-08T05:55:12Z</time>
      </trkpt>
      <trkpt lat="39.9360650" lon="-3.7952400">
        <ele>502.0</ele>
        <time>2019-07-08T05:55:13Z</time>
      </trkpt>
      <trkpt lat="39.9359780" lon="-3.7959520">
        <ele>501.6</ele>
        <time>2019-07-08T05:55:21Z</time>
      </trkpt>
      <trkpt lat="39.9359660" lon="-3.7960410">
        <ele>501.6</ele>
        <time>2019-07-08T05:55:22Z</time>
      </trkpt>
      <trkpt lat="39.9358480" lon="-3.7966570">
        <ele>501.2</ele>
        <time>2019-07-08T05:55:29Z</time>
      </trkpt>
      <trkpt lat="39.9358030" lon="-3.7968310">
        <ele>501.0</ele>
        <time>2019-07-08T05:55:31Z</time>
      </trkpt>
      <trkpt lat="39.9356400" lon="-3.7973740">
        <ele>500.6</ele>
        <time>2019-07-08T05:55:37Z</time>
      </trkpt>
      <trkpt lat="39.9355490" lon="-3.7976530">
        <ele>500.2</ele>
        <time>2019-07-08T05:55:40Z</time>
      </trkpt>
      <trkpt lat="39.9354000" lon="-3.7981130">
        <ele>499.4</ele>
        <time>2019-07-08T05:55:45Z</time>
      </trkpt>
      <trkpt lat="39.9352860" lon="-3.7984710">
        <ele>499.0</ele>
        <time>2019-07-08T05:55:49Z</time>
      </trkpt>
      <trkpt lat="39.9350830" lon="-3.7990990">
        <ele>498.4</ele>
        <time>2019-07-08T05:55:56Z</time>
      </trkpt>
      <trkpt lat="39.9350270" lon="-3.7992770">
        <ele>498.2</ele>
        <time>2019-07-08T05:55:58Z</time>
      </trkpt>
      <trkpt lat="39.9348000" lon="-3.7999860">
        <ele>497.8</ele>
        <time>2019-07-08T05:56:06Z</time>
      </trkpt>
      <trkpt lat="39.9347150" lon="-3.8002500">
        <ele>497.4</ele>
        <time>2019-07-08T05:56:09Z</time>
      </trkpt>
      <trkpt lat="39.9346560" lon="-3.8004270">
        <ele>497.4</ele>
        <time>2019-07-08T05:56:11Z</time>
      </trkpt>
      <trkpt lat="39.9344330" lon="-3.8011180">
        <ele>497.2</ele>
        <time>2019-07-08T05:56:19Z</time>
      </trkpt>
      <trkpt lat="39.9342400" lon="-3.8017180">
        <ele>496.4</ele>
        <time>2019-07-08T05:56:26Z</time>
      </trkpt>
      <trkpt lat="39.9341820" lon="-3.8018890">
        <ele>496.2</ele>
        <time>2019-07-08T05:56:28Z</time>
      </trkpt>
      <trkpt lat="39.9340700" lon="-3.8022450">
        <ele>496.2</ele>
        <time>2019-07-08T05:56:32Z</time>
      </trkpt>
      <trkpt lat="39.9339520" lon="-3.8026080">
        <ele>496.2</ele>
        <time>2019-07-08T05:56:36Z</time>
      </trkpt>
      <trkpt lat="39.9337430" lon="-3.8032570">
        <ele>496.0</ele>
        <time>2019-07-08T05:56:43Z</time>
      </trkpt>
      <trkpt lat="39.9335970" lon="-3.8037100">
        <ele>496.4</ele>
        <time>2019-07-08T05:56:48Z</time>
      </trkpt>
      <trkpt lat="39.9333740" lon="-3.8044120">
        <ele>496.2</ele>
        <time>2019-07-08T05:56:56Z</time>
      </trkpt>
      <trkpt lat="39.9332620" lon="-3.8047740">
        <ele>495.8</ele>
        <time>2019-07-08T05:57:00Z</time>
      </trkpt>
      <trkpt lat="39.9331990" lon="-3.8049610">
        <ele>495.4</ele>
        <time>2019-07-08T05:57:02Z</time>
      </trkpt>
      <trkpt lat="39.9331030" lon="-3.8052540">
        <ele>494.6</ele>
        <time>2019-07-08T05:57:05Z</time>
      </trkpt>
      <trkpt lat="39.9330690" lon="-3.8053540">
        <ele>494.4</ele>
        <time>2019-07-08T05:57:06Z</time>
      </trkpt>
      <trkpt lat="39.9330010" lon="-3.8055640">
        <ele>493.8</ele>
        <time>2019-07-08T05:57:08Z</time>
      </trkpt>
      <trkpt lat="39.9329300" lon="-3.8057890">
        <ele>493.2</ele>
        <time>2019-07-08T05:57:10Z</time>
      </trkpt>
      <trkpt lat="39.9328160" lon="-3.8061530">
        <ele>491.8</ele>
        <time>2019-07-08T05:57:13Z</time>
      </trkpt>
      <trkpt lat="39.9327760" lon="-3.8062790">
        <ele>491.2</ele>
        <time>2019-07-08T05:57:14Z</time>
      </trkpt>
      <trkpt lat="39.9327350" lon="-3.8064070">
        <ele>490.8</ele>
        <time>2019-07-08T05:57:15Z</time>
      </trkpt>
      <trkpt lat="39.9326140" lon="-3.8067870">
        <ele>489.8</ele>
        <time>2019-07-08T05:57:18Z</time>
      </trkpt>
      <trkpt lat="39.9324950" lon="-3.8071560">
        <ele>488.6</ele>
        <time>2019-07-08T05:57:21Z</time>
      </trkpt>
      <trkpt lat="39.9324570" lon="-3.8072760">
        <ele>488.4</ele>
        <time>2019-07-08T05:57:22Z</time>
      </trkpt>
      <trkpt lat="39.9323440" lon="-3.8076210">
        <ele>487.6</ele>
        <time>2019-07-08T05:57:25Z</time>
      </trkpt>
      <trkpt lat="39.9323070" lon="-3.8077330">
        <ele>487.6</ele>
        <time>2019-07-08T05:57:26Z</time>
      </trkpt>
      <trkpt lat="39.9322060" lon="-3.8080530">
        <ele>486.6</ele>
        <time>2019-07-08T05:57:29Z</time>
      </trkpt>
      <trkpt lat="39.9321120" lon="-3.8083540">
        <ele>486.4</ele>
        <time>2019-07-08T05:57:32Z</time>
      </trkpt>
      <trkpt lat="39.9319930" lon="-3.8087260">
        <ele>486.4</ele>
        <time>2019-07-08T05:57:36Z</time>
      </trkpt>
      <trkpt lat="39.9319630" lon="-3.8088160">
        <ele>486.4</ele>
        <time>2019-07-08T05:57:37Z</time>
      </trkpt>
      <trkpt lat="39.9319070" lon="-3.8089970">
        <ele>486.6</ele>
        <time>2019-07-08T05:57:39Z</time>
      </trkpt>
      <trkpt lat="39.9317350" lon="-3.8095130">
        <ele>486.4</ele>
        <time>2019-07-08T05:57:45Z</time>
      </trkpt>
      <trkpt lat="39.9316540" lon="-3.8097620">
        <ele>486.6</ele>
        <time>2019-07-08T05:57:48Z</time>
      </trkpt>
      <trkpt lat="39.9315730" lon="-3.8100110">
        <ele>486.6</ele>
        <time>2019-07-08T05:57:51Z</time>
      </trkpt>
      <trkpt lat="39.9314690" lon="-3.8103350">
        <ele>486.6</ele>
        <time>2019-07-08T05:57:55Z</time>
      </trkpt>
      <trkpt lat="39.9314160" lon="-3.8105010">
        <ele>486.2</ele>
        <time>2019-07-08T05:57:57Z</time>
      </trkpt>
      <trkpt lat="39.9313640" lon="-3.8106680">
        <ele>486.0</ele>
        <time>2019-07-08T05:57:59Z</time>
      </trkpt>
      <trkpt lat="39.9312850" lon="-3.8109210">
        <ele>485.8</ele>
        <time>2019-07-08T05:58:02Z</time>
      </trkpt>
      <trkpt lat="39.9312060" lon="-3.8111750">
        <ele>485.8</ele>
        <time>2019-07-08T05:58:05Z</time>
      </trkpt>
      <trkpt lat="39.9310990" lon="-3.8115080">
        <ele>486.0</ele>
        <time>2019-07-08T05:58:09Z</time>
      </trkpt>
      <trkpt lat="39.9309770" lon="-3.8118930">
        <ele>486.2</ele>
        <time>2019-07-08T05:58:14Z</time>
      </trkpt>
      <trkpt lat="39.9308710" lon="-3.8122170">
        <ele>486.8</ele>
        <time>2019-07-08T05:58:19Z</time>
      </trkpt>
      <trkpt lat="39.9308340" lon="-3.8123360">
        <ele>487.0</ele>
        <time>2019-07-08T05:58:21Z</time>
      </trkpt>
      <trkpt lat="39.9307820" lon="-3.8125150">
        <ele>487.8</ele>
        <time>2019-07-08T05:58:24Z</time>
      </trkpt>
      <trkpt lat="39.9307300" lon="-3.8126780">
        <ele>488.4</ele>
        <time>2019-07-08T05:58:27Z</time>
      </trkpt>
      <trkpt lat="39.9306990" lon="-3.8127810">
        <ele>489.0</ele>
        <time>2019-07-08T05:58:29Z</time>
      </trkpt>
      <trkpt lat="39.9306340" lon="-3.8129820">
        <ele>490.0</ele>
        <time>2019-07-08T05:58:33Z</time>
      </trkpt>
      <trkpt lat="39.9305540" lon="-3.8132310">
        <ele>491.0</ele>
        <time>2019-07-08T05:58:38Z</time>
      </trkpt>
      <trkpt lat="39.9305250" lon="-3.8133290">
        <ele>491.6</ele>
        <time>2019-07-08T05:58:40Z</time>
      </trkpt>
      <trkpt lat="39.9304780" lon="-3.8134680">
        <ele>492.4</ele>
        <time>2019-07-08T05:58:43Z</time>
      </trkpt>
      <trkpt lat="39.9304200" lon="-3.8136530">
        <ele>493.2</ele>
        <time>2019-07-08T05:58:47Z</time>
      </trkpt>
      <trkpt lat="39.9304050" lon="-3.8136990">
        <ele>493.4</ele>
        <time>2019-07-08T05:58:48Z</time>
      </trkpt>
      <trkpt lat="39.9303890" lon="-3.8137470">
        <ele>493.6</ele>
        <time>2019-07-08T05:58:49Z</time>
      </trkpt>
      <trkpt lat="39.9303170" lon="-3.8139860">
        <ele>494.6</ele>
        <time>2019-07-08T05:58:54Z</time>
      </trkpt>
      <trkpt lat="39.9302400" lon="-3.8142230">
        <ele>495.8</ele>
        <time>2019-07-08T05:58:59Z</time>
      </trkpt>
      <trkpt lat="39.9301490" lon="-3.8145040">
        <ele>496.6</ele>
        <time>2019-07-08T05:59:05Z</time>
      </trkpt>
      <trkpt lat="39.9301340" lon="-3.8145570">
        <ele>496.6</ele>
        <time>2019-07-08T05:59:06Z</time>
      </trkpt>
      <trkpt lat="39.9301180" lon="-3.8146090">
        <ele>496.8</ele>
        <time>2019-07-08T05:59:07Z</time>
      </trkpt>
      <trkpt lat="39.9299740" lon="-3.8150310">
        <ele>497.6</ele>
        <time>2019-07-08T05:59:15Z</time>
      </trkpt>
      <trkpt lat="39.9299050" lon="-3.8152450">
        <ele>498.0</ele>
        <time>2019-07-08T05:59:19Z</time>
      </trkpt>
      <trkpt lat="39.9298340" lon="-3.8154680">
        <ele>498.2</ele>
        <time>2019-07-08T05:59:23Z</time>
      </trkpt>
      <trkpt lat="39.9297950" lon="-3.8155830">
        <ele>498.2</ele>
        <time>2019-07-08T05:59:25Z</time>
      </trkpt>
      <trkpt lat="39.9297160" lon="-3.8158260">
        <ele>498.2</ele>
        <time>2019-07-08T05:59:29Z</time>
      </trkpt>
      <trkpt lat="39.9296100" lon="-3.8161510">
        <ele>498.8</ele>
        <time>2019-07-08T05:59:34Z</time>
      </trkpt>
      <trkpt lat="39.9295210" lon="-3.8164290">
        <ele>499.0</ele>
        <time>2019-07-08T05:59:38Z</time>
      </trkpt>
      <trkpt lat="39.9294780" lon="-3.8165690">
        <ele>499.0</ele>
        <time>2019-07-08T05:59:40Z</time>
      </trkpt>
      <trkpt lat="39.9293880" lon="-3.8168510">
        <ele>499.0</ele>
        <time>2019-07-08T05:59:44Z</time>
      </trkpt>
      <trkpt lat="39.9293210" lon="-3.8170640">
        <ele>499.0</ele>
        <time>2019-07-08T05:59:47Z</time>
      </trkpt>
      <trkpt lat="39.9292740" lon="-3.8172090">
        <ele>498.8</ele>
        <time>2019-07-08T05:59:49Z</time>
      </trkpt>
      <trkpt lat="39.9292020" lon="-3.8174250">
        <ele>498.8</ele>
        <time>2019-07-08T05:59:52Z</time>
      </trkpt>
      <trkpt lat="39.9291090" lon="-3.8177210">
        <ele>498.8</ele>
        <time>2019-07-08T05:59:56Z</time>
      </trkpt>
      <trkpt lat="39.9290850" lon="-3.8177960">
        <ele>498.8</ele>
        <time>2019-07-08T05:59:57Z</time>
      </trkpt>
      <trkpt lat="39.9288640" lon="-3.8184780">
        <ele>498.4</ele>
        <time>2019-07-08T06:00:06Z</time>
      </trkpt>
      <trkpt lat="39.9287920" lon="-3.8187100">
        <ele>498.2</ele>
        <time>2019-07-08T06:00:09Z</time>
      </trkpt>
      <trkpt lat="39.9287400" lon="-3.8188680">
        <ele>498.0</ele>
        <time>2019-07-08T06:00:11Z</time>
      </trkpt>
      <trkpt lat="39.9285310" lon="-3.8195150">
        <ele>497.6</ele>
        <time>2019-07-08T06:00:19Z</time>
      </trkpt>
      <trkpt lat="39.9285060" lon="-3.8195950">
        <ele>497.4</ele>
        <time>2019-07-08T06:00:20Z</time>
      </trkpt>
      <trkpt lat="39.9283240" lon="-3.8201670">
        <ele>497.0</ele>
        <time>2019-07-08T06:00:27Z</time>
      </trkpt>
      <trkpt lat="39.9282160" lon="-3.8205000">
        <ele>496.8</ele>
        <time>2019-07-08T06:00:31Z</time>
      </trkpt>
      <trkpt lat="39.9280000" lon="-3.8211610">
        <ele>496.8</ele>
        <time>2019-07-08T06:00:39Z</time>
      </trkpt>
      <trkpt lat="39.9279480" lon="-3.8213210">
        <ele>496.6</ele>
        <time>2019-07-08T06:00:41Z</time>
      </trkpt>
      <trkpt lat="39.9277670" lon="-3.8218880">
        <ele>495.8</ele>
        <time>2019-07-08T06:00:48Z</time>
      </trkpt>
      <trkpt lat="39.9276090" lon="-3.8223790">
        <ele>495.6</ele>
        <time>2019-07-08T06:00:54Z</time>
      </trkpt>
      <trkpt lat="39.9273780" lon="-3.8230970">
        <ele>495.2</ele>
        <time>2019-07-08T06:01:03Z</time>
      </trkpt>
      <trkpt lat="39.9273520" lon="-3.8231760">
        <ele>495.2</ele>
        <time>2019-07-08T06:01:04Z</time>
      </trkpt>
      <trkpt lat="39.9271290" lon="-3.8238780">
        <ele>494.8</ele>
        <time>2019-07-08T06:01:13Z</time>
      </trkpt>
      <trkpt lat="39.9269050" lon="-3.8245840">
        <ele>495.0</ele>
        <time>2019-07-08T06:01:22Z</time>
      </trkpt>
      <trkpt lat="39.9268570" lon="-3.8247420">
        <ele>495.2</ele>
        <time>2019-07-08T06:01:24Z</time>
      </trkpt>
      <trkpt lat="39.9266230" lon="-3.8254490">
        <ele>495.0</ele>
        <time>2019-07-08T06:01:33Z</time>
      </trkpt>
      <trkpt lat="39.9265940" lon="-3.8255290">
        <ele>494.8</ele>
        <time>2019-07-08T06:01:34Z</time>
      </trkpt>
      <trkpt lat="39.9265370" lon="-3.8256890">
        <ele>494.8</ele>
        <time>2019-07-08T06:01:36Z</time>
      </trkpt>
      <trkpt lat="39.9262650" lon="-3.8263230">
        <ele>494.0</ele>
        <time>2019-07-08T06:01:44Z</time>
      </trkpt>
      <trkpt lat="39.9262270" lon="-3.8264000">
        <ele>493.8</ele>
        <time>2019-07-08T06:01:45Z</time>
      </trkpt>
      <trkpt lat="39.9260700" lon="-3.8267010">
        <ele>493.8</ele>
        <time>2019-07-08T06:01:49Z</time>
      </trkpt>
      <trkpt lat="39.9258270" lon="-3.8271540">
        <ele>493.2</ele>
        <time>2019-07-08T06:01:55Z</time>
      </trkpt>
      <trkpt lat="39.9256170" lon="-3.8275400">
        <ele>492.8</ele>
        <time>2019-07-08T06:02:00Z</time>
      </trkpt>
      <trkpt lat="39.9254510" lon="-3.8278540">
        <ele>492.4</ele>
        <time>2019-07-08T06:02:04Z</time>
      </trkpt>
      <trkpt lat="39.9252780" lon="-3.8281730">
        <ele>492.0</ele>
        <time>2019-07-08T06:02:08Z</time>
      </trkpt>
      <trkpt lat="39.9250220" lon="-3.8286560">
        <ele>491.4</ele>
        <time>2019-07-08T06:02:14Z</time>
      </trkpt>
      <trkpt lat="39.9248940" lon="-3.8288930">
        <ele>491.2</ele>
        <time>2019-07-08T06:02:17Z</time>
      </trkpt>
      <trkpt lat="39.9246460" lon="-3.8293670">
        <ele>491.0</ele>
        <time>2019-07-08T06:02:23Z</time>
      </trkpt>
      <trkpt lat="39.9246040" lon="-3.8294470">
        <ele>490.8</ele>
        <time>2019-07-08T06:02:24Z</time>
      </trkpt>
      <trkpt lat="39.9244390" lon="-3.8297600">
        <ele>490.4</ele>
        <time>2019-07-08T06:02:28Z</time>
      </trkpt>
      <trkpt lat="39.9241120" lon="-3.8303730">
        <ele>489.8</ele>
        <time>2019-07-08T06:02:36Z</time>
      </trkpt>
      <trkpt lat="39.9238030" lon="-3.8309580">
        <ele>489.0</ele>
        <time>2019-07-08T06:02:44Z</time>
      </trkpt>
      <trkpt lat="39.9236490" lon="-3.8312530">
        <ele>489.0</ele>
        <time>2019-07-08T06:02:48Z</time>
      </trkpt>
      <trkpt lat="39.9234600" lon="-3.8316150">
        <ele>488.8</ele>
        <time>2019-07-08T06:02:53Z</time>
      </trkpt>
      <trkpt lat="39.9234220" lon="-3.8316870">
        <ele>488.8</ele>
        <time>2019-07-08T06:02:54Z</time>
      </trkpt>
      <trkpt lat="39.9232330" lon="-3.8320500">
        <ele>488.2</ele>
        <time>2019-07-08T06:02:59Z</time>
      </trkpt>
      <trkpt lat="39.9230060" lon="-3.8324850">
        <ele>487.6</ele>
        <time>2019-07-08T06:03:05Z</time>
      </trkpt>
      <trkpt lat="39.9228090" lon="-3.8328580">
        <ele>487.0</ele>
        <time>2019-07-08T06:03:10Z</time>
      </trkpt>
      <trkpt lat="39.9224890" lon="-3.8334640">
        <ele>486.8</ele>
        <time>2019-07-08T06:03:18Z</time>
      </trkpt>
      <trkpt lat="39.9224110" lon="-3.8336120">
        <ele>486.8</ele>
        <time>2019-07-08T06:03:20Z</time>
      </trkpt>
      <trkpt lat="39.9220750" lon="-3.8342660">
        <ele>486.8</ele>
        <time>2019-07-08T06:03:29Z</time>
      </trkpt>
      <trkpt lat="39.9220370" lon="-3.8343380">
        <ele>486.6</ele>
        <time>2019-07-08T06:03:30Z</time>
      </trkpt>
      <trkpt lat="39.9217000" lon="-3.8349710">
        <ele>486.6</ele>
        <time>2019-07-08T06:03:39Z</time>
      </trkpt>
      <trkpt lat="39.9214860" lon="-3.8353840">
        <ele>486.6</ele>
        <time>2019-07-08T06:03:45Z</time>
      </trkpt>
      <trkpt lat="39.9214180" lon="-3.8355160">
        <ele>486.6</ele>
        <time>2019-07-08T06:03:47Z</time>
      </trkpt>
      <trkpt lat="39.9210850" lon="-3.8361510">
        <ele>486.4</ele>
        <time>2019-07-08T06:03:57Z</time>
      </trkpt>
      <trkpt lat="39.9209470" lon="-3.8364170">
        <ele>485.8</ele>
        <time>2019-07-08T06:04:01Z</time>
      </trkpt>
      <trkpt lat="39.9209140" lon="-3.8364830">
        <ele>485.6</ele>
        <time>2019-07-08T06:04:02Z</time>
      </trkpt>
      <trkpt lat="39.9208090" lon="-3.8366780">
        <ele>485.4</ele>
        <time>2019-07-08T06:04:05Z</time>
      </trkpt>
      <trkpt lat="39.9204950" lon="-3.8372670">
        <ele>485.6</ele>
        <time>2019-07-08T06:04:14Z</time>
      </trkpt>
      <trkpt lat="39.9203560" lon="-3.8375340">
        <ele>485.6</ele>
        <time>2019-07-08T06:04:18Z</time>
      </trkpt>
      <trkpt lat="39.9200360" lon="-3.8381480">
        <ele>486.2</ele>
        <time>2019-07-08T06:04:27Z</time>
      </trkpt>
      <trkpt lat="39.9198220" lon="-3.8385550">
        <ele>486.2</ele>
        <time>2019-07-08T06:04:33Z</time>
      </trkpt>
      <trkpt lat="39.9196820" lon="-3.8388190">
        <ele>486.2</ele>
        <time>2019-07-08T06:04:37Z</time>
      </trkpt>
      <trkpt lat="39.9195050" lon="-3.8391520">
        <ele>486.8</ele>
        <time>2019-07-08T06:04:42Z</time>
      </trkpt>
      <trkpt lat="39.9193310" lon="-3.8394790">
        <ele>486.6</ele>
        <time>2019-07-08T06:04:47Z</time>
      </trkpt>
      <trkpt lat="39.9190200" lon="-3.8400730">
        <ele>486.6</ele>
        <time>2019-07-08T06:04:56Z</time>
      </trkpt>
      <trkpt lat="39.9189500" lon="-3.8402070">
        <ele>486.6</ele>
        <time>2019-07-08T06:04:58Z</time>
      </trkpt>
      <trkpt lat="39.9188100" lon="-3.8404780">
        <ele>486.4</ele>
        <time>2019-07-08T06:05:02Z</time>
      </trkpt>
      <trkpt lat="39.9186260" lon="-3.8408230">
        <ele>486.4</ele>
        <time>2019-07-08T06:05:07Z</time>
      </trkpt>
      <trkpt lat="39.9184800" lon="-3.8410990">
        <ele>486.2</ele>
        <time>2019-07-08T06:05:11Z</time>
      </trkpt>
      <trkpt lat="39.9181910" lon="-3.8416420">
        <ele>486.2</ele>
        <time>2019-07-08T06:05:19Z</time>
      </trkpt>
      <trkpt lat="39.9178710" lon="-3.8422520">
        <ele>486.2</ele>
        <time>2019-07-08T06:05:28Z</time>
      </trkpt>
      <trkpt lat="39.9177640" lon="-3.8424510">
        <ele>486.2</ele>
        <time>2019-07-08T06:05:31Z</time>
      </trkpt>
      <trkpt lat="39.9174520" lon="-3.8430480">
        <ele>486.6</ele>
        <time>2019-07-08T06:05:40Z</time>
      </trkpt>
      <trkpt lat="39.9174170" lon="-3.8431130">
        <ele>486.6</ele>
        <time>2019-07-08T06:05:41Z</time>
      </trkpt>
      <trkpt lat="39.9172760" lon="-3.8433770">
        <ele>486.8</ele>
        <time>2019-07-08T06:05:45Z</time>
      </trkpt>
      <trkpt lat="39.9171300" lon="-3.8436490">
        <ele>487.0</ele>
        <time>2019-07-08T06:05:49Z</time>
      </trkpt>
      <trkpt lat="39.9168110" lon="-3.8442570">
        <ele>486.6</ele>
        <time>2019-07-08T06:05:58Z</time>
      </trkpt>
      <trkpt lat="39.9167760" lon="-3.8443250">
        <ele>486.6</ele>
        <time>2019-07-08T06:05:59Z</time>
      </trkpt>
      <trkpt lat="39.9164920" lon="-3.8448550">
        <ele>487.0</ele>
        <time>2019-07-08T06:06:07Z</time>
      </trkpt>
      <trkpt lat="39.9161880" lon="-3.8454360">
        <ele>487.6</ele>
        <time>2019-07-08T06:06:16Z</time>
      </trkpt>
      <trkpt lat="39.9158490" lon="-3.8460810">
        <ele>487.8</ele>
        <time>2019-07-08T06:06:26Z</time>
      </trkpt>
      <trkpt lat="39.9158130" lon="-3.8461460">
        <ele>487.8</ele>
        <time>2019-07-08T06:06:27Z</time>
      </trkpt>
      <trkpt lat="39.9157780" lon="-3.8462130">
        <ele>487.8</ele>
        <time>2019-07-08T06:06:28Z</time>
      </trkpt>
      <trkpt lat="39.9154830" lon="-3.8467730">
        <ele>487.6</ele>
        <time>2019-07-08T06:06:36Z</time>
      </trkpt>
      <trkpt lat="39.9151410" lon="-3.8474250">
        <ele>487.0</ele>
        <time>2019-07-08T06:06:45Z</time>
      </trkpt>
      <trkpt lat="39.9151020" lon="-3.8474970">
        <ele>487.0</ele>
        <time>2019-07-08T06:06:46Z</time>
      </trkpt>
      <trkpt lat="39.9149850" lon="-3.8477200">
        <ele>486.8</ele>
        <time>2019-07-08T06:06:49Z</time>
      </trkpt>
      <trkpt lat="39.9148350" lon="-3.8480090">
        <ele>486.6</ele>
        <time>2019-07-08T06:06:53Z</time>
      </trkpt>
      <trkpt lat="39.9147620" lon="-3.8481520">
        <ele>486.6</ele>
        <time>2019-07-08T06:06:55Z</time>
      </trkpt>
      <trkpt lat="39.9144240" lon="-3.8487870">
        <ele>486.2</ele>
        <time>2019-07-08T06:07:04Z</time>
      </trkpt>
      <trkpt lat="39.9143130" lon="-3.8489990">
        <ele>486.0</ele>
        <time>2019-07-08T06:07:07Z</time>
      </trkpt>
      <trkpt lat="39.9141200" lon="-3.8493620">
        <ele>485.0</ele>
        <time>2019-07-08T06:07:12Z</time>
      </trkpt>
      <trkpt lat="39.9139640" lon="-3.8496580">
        <ele>484.8</ele>
        <time>2019-07-08T06:07:16Z</time>
      </trkpt>
      <trkpt lat="39.9137780" lon="-3.8500330">
        <ele>484.6</ele>
        <time>2019-07-08T06:07:21Z</time>
      </trkpt>
      <trkpt lat="39.9135370" lon="-3.8506630">
        <ele>483.8</ele>
        <time>2019-07-08T06:07:29Z</time>
      </trkpt>
      <trkpt lat="39.9133540" lon="-3.8513350">
        <ele>483.0</ele>
        <time>2019-07-08T06:07:37Z</time>
      </trkpt>
      <trkpt lat="39.9133320" lon="-3.8514230">
        <ele>483.0</ele>
        <time>2019-07-08T06:07:38Z</time>
      </trkpt>
      <trkpt lat="39.9132640" lon="-3.8516810">
        <ele>482.8</ele>
        <time>2019-07-08T06:07:41Z</time>
      </trkpt>
      <trkpt lat="39.9130740" lon="-3.8523960">
        <ele>482.4</ele>
        <time>2019-07-08T06:07:49Z</time>
      </trkpt>
      <trkpt lat="39.9128820" lon="-3.8531120">
        <ele>482.0</ele>
        <time>2019-07-08T06:07:57Z</time>
      </trkpt>
      <trkpt lat="39.9127860" lon="-3.8534710">
        <ele>481.8</ele>
        <time>2019-07-08T06:08:01Z</time>
      </trkpt>
      <trkpt lat="39.9125970" lon="-3.8541760">
        <ele>481.6</ele>
        <time>2019-07-08T06:08:09Z</time>
      </trkpt>
      <trkpt lat="39.9125510" lon="-3.8543460">
        <ele>481.4</ele>
        <time>2019-07-08T06:08:11Z</time>
      </trkpt>
      <trkpt lat="39.9123730" lon="-3.8550140">
        <ele>481.8</ele>
        <time>2019-07-08T06:08:19Z</time>
      </trkpt>
      <trkpt lat="39.9121930" lon="-3.8556850">
        <ele>481.6</ele>
        <time>2019-07-08T06:08:27Z</time>
      </trkpt>
      <trkpt lat="39.9121700" lon="-3.8557700">
        <ele>481.6</ele>
        <time>2019-07-08T06:08:28Z</time>
      </trkpt>
      <trkpt lat="39.9119830" lon="-3.8564560">
        <ele>481.2</ele>
        <time>2019-07-08T06:08:36Z</time>
      </trkpt>
      <trkpt lat="39.9118890" lon="-3.8567990">
        <ele>481.0</ele>
        <time>2019-07-08T06:08:40Z</time>
      </trkpt>
      <trkpt lat="39.9117210" lon="-3.8574600">
        <ele>480.6</ele>
        <time>2019-07-08T06:08:48Z</time>
      </trkpt>
      <trkpt lat="39.9115350" lon="-3.8581960">
        <ele>480.0</ele>
        <time>2019-07-08T06:08:57Z</time>
      </trkpt>
      <trkpt lat="39.9114930" lon="-3.8583580">
        <ele>479.6</ele>
        <time>2019-07-08T06:08:59Z</time>
      </trkpt>
      <trkpt lat="39.9114710" lon="-3.8584380">
        <ele>479.4</ele>
        <time>2019-07-08T06:09:00Z</time>
      </trkpt>
      <trkpt lat="39.9112930" lon="-3.8591030">
        <ele>479.0</ele>
        <time>2019-07-08T06:09:08Z</time>
      </trkpt>
      <trkpt lat="39.9112040" lon="-3.8594360">
        <ele>479.2</ele>
        <time>2019-07-08T06:09:12Z</time>
      </trkpt>
      <trkpt lat="39.9110230" lon="-3.8601150">
        <ele>479.2</ele>
        <time>2019-07-08T06:09:20Z</time>
      </trkpt>
      <trkpt lat="39.9109770" lon="-3.8602870">
        <ele>479.2</ele>
        <time>2019-07-08T06:09:22Z</time>
      </trkpt>
      <trkpt lat="39.9108200" lon="-3.8608690">
        <ele>479.2</ele>
        <time>2019-07-08T06:09:29Z</time>
      </trkpt>
      <trkpt lat="39.9107570" lon="-3.8611070">
        <ele>479.2</ele>
        <time>2019-07-08T06:09:32Z</time>
      </trkpt>
      <trkpt lat="39.9105610" lon="-3.8618160">
        <ele>479.2</ele>
        <time>2019-07-08T06:09:41Z</time>
      </trkpt>
      <trkpt lat="39.9105180" lon="-3.8619730">
        <ele>479.4</ele>
        <time>2019-07-08T06:09:43Z</time>
      </trkpt>
      <trkpt lat="39.9103290" lon="-3.8626850">
        <ele>479.4</ele>
        <time>2019-07-08T06:09:52Z</time>
      </trkpt>
      <trkpt lat="39.9103060" lon="-3.8627640">
        <ele>479.4</ele>
        <time>2019-07-08T06:09:53Z</time>
      </trkpt>
      <trkpt lat="39.9101060" lon="-3.8633730">
        <ele>479.6</ele>
        <time>2019-07-08T06:10:01Z</time>
      </trkpt>
      <trkpt lat="39.9099190" lon="-3.8640080">
        <ele>479.2</ele>
        <time>2019-07-08T06:10:09Z</time>
      </trkpt>
      <trkpt lat="39.9097610" lon="-3.8644740">
        <ele>479.2</ele>
        <time>2019-07-08T06:10:15Z</time>
      </trkpt>
      <trkpt lat="39.9097270" lon="-3.8645470">
        <ele>479.2</ele>
        <time>2019-07-08T06:10:16Z</time>
      </trkpt>
      <trkpt lat="39.9094790" lon="-3.8649740">
        <ele>479.0</ele>
        <time>2019-07-08T06:10:22Z</time>
      </trkpt>
      <trkpt lat="39.9092040" lon="-3.8653720">
        <ele>479.2</ele>
        <time>2019-07-08T06:10:28Z</time>
      </trkpt>
      <trkpt lat="39.9089100" lon="-3.8659280">
        <ele>479.6</ele>
        <time>2019-07-08T06:10:36Z</time>
      </trkpt>
      <trkpt lat="39.9086000" lon="-3.8665540">
        <ele>480.0</ele>
        <time>2019-07-08T06:10:45Z</time>
      </trkpt>
      <trkpt lat="39.9085350" lon="-3.8666940">
        <ele>480.0</ele>
        <time>2019-07-08T06:10:47Z</time>
      </trkpt>
      <trkpt lat="39.9084400" lon="-3.8668960">
        <ele>480.4</ele>
        <time>2019-07-08T06:10:50Z</time>
      </trkpt>
      <trkpt lat="39.9083180" lon="-3.8671460">
        <ele>481.0</ele>
        <time>2019-07-08T06:10:54Z</time>
      </trkpt>
      <trkpt lat="39.9082260" lon="-3.8673290">
        <ele>481.6</ele>
        <time>2019-07-08T06:10:57Z</time>
      </trkpt>
      <trkpt lat="39.9081000" lon="-3.8675830">
        <ele>482.0</ele>
        <time>2019-07-08T06:11:01Z</time>
      </trkpt>
      <trkpt lat="39.9079400" lon="-3.8679040">
        <ele>482.6</ele>
        <time>2019-07-08T06:11:06Z</time>
      </trkpt>
      <trkpt lat="39.9079070" lon="-3.8679680">
        <ele>482.6</ele>
        <time>2019-07-08T06:11:07Z</time>
      </trkpt>
      <trkpt lat="39.9076410" lon="-3.8685050">
        <ele>483.2</ele>
        <time>2019-07-08T06:11:15Z</time>
      </trkpt>
      <trkpt lat="39.9073400" lon="-3.8691320">
        <ele>483.2</ele>
        <time>2019-07-08T06:11:24Z</time>
      </trkpt>
      <trkpt lat="39.9072740" lon="-3.8692630">
        <ele>483.2</ele>
        <time>2019-07-08T06:11:26Z</time>
      </trkpt>
      <trkpt lat="39.9071820" lon="-3.8694480">
        <ele>483.6</ele>
        <time>2019-07-08T06:11:29Z</time>
      </trkpt>
      <trkpt lat="39.9070350" lon="-3.8697530">
        <ele>484.4</ele>
        <time>2019-07-08T06:11:34Z</time>
      </trkpt>
      <trkpt lat="39.9069470" lon="-3.8699280">
        <ele>484.8</ele>
        <time>2019-07-08T06:11:37Z</time>
      </trkpt>
      <trkpt lat="39.9068080" lon="-3.8702190">
        <ele>485.6</ele>
        <time>2019-07-08T06:11:42Z</time>
      </trkpt>
      <trkpt lat="39.9067800" lon="-3.8702760">
        <ele>485.8</ele>
        <time>2019-07-08T06:11:43Z</time>
      </trkpt>
      <trkpt lat="39.9067510" lon="-3.8703340">
        <ele>486.0</ele>
        <time>2019-07-08T06:11:44Z</time>
      </trkpt>
      <trkpt lat="39.9065770" lon="-3.8706860">
        <ele>486.8</ele>
        <time>2019-07-08T06:11:50Z</time>
      </trkpt>
      <trkpt lat="39.9065470" lon="-3.8707460">
        <ele>486.8</ele>
        <time>2019-07-08T06:11:51Z</time>
      </trkpt>
      <trkpt lat="39.9063980" lon="-3.8710640">
        <ele>487.2</ele>
        <time>2019-07-08T06:11:56Z</time>
      </trkpt>
      <trkpt lat="39.9061070" lon="-3.8716690">
        <ele>487.0</ele>
        <time>2019-07-08T06:12:05Z</time>
      </trkpt>
      <trkpt lat="39.9060750" lon="-3.8717370">
        <ele>487.2</ele>
        <time>2019-07-08T06:12:06Z</time>
      </trkpt>
      <trkpt lat="39.9059070" lon="-3.8720790">
        <ele>487.2</ele>
        <time>2019-07-08T06:12:11Z</time>
      </trkpt>
      <trkpt lat="39.9057720" lon="-3.8723540">
        <ele>487.2</ele>
        <time>2019-07-08T06:12:15Z</time>
      </trkpt>
      <trkpt lat="39.9057080" lon="-3.8724940">
        <ele>487.2</ele>
        <time>2019-07-08T06:12:17Z</time>
      </trkpt>
      <trkpt lat="39.9055750" lon="-3.8727660">
        <ele>487.6</ele>
        <time>2019-07-08T06:12:21Z</time>
      </trkpt>
      <trkpt lat="39.9053890" lon="-3.8731480">
        <ele>488.0</ele>
        <time>2019-07-08T06:12:27Z</time>
      </trkpt>
      <trkpt lat="39.9052160" lon="-3.8735080">
        <ele>489.0</ele>
        <time>2019-07-08T06:12:33Z</time>
      </trkpt>
      <trkpt lat="39.9051040" lon="-3.8737360">
        <ele>489.4</ele>
        <time>2019-07-08T06:12:37Z</time>
      </trkpt>
      <trkpt lat="39.9050200" lon="-3.8739060">
        <ele>490.0</ele>
        <time>2019-07-08T06:12:40Z</time>
      </trkpt>
      <trkpt lat="39.9048010" lon="-3.8743560">
        <ele>491.0</ele>
        <time>2019-07-08T06:12:48Z</time>
      </trkpt>
      <trkpt lat="39.9045830" lon="-3.8748020">
        <ele>492.4</ele>
        <time>2019-07-08T06:12:56Z</time>
      </trkpt>
      <trkpt lat="39.9044990" lon="-3.8749710">
        <ele>492.6</ele>
        <time>2019-07-08T06:12:59Z</time>
      </trkpt>
      <trkpt lat="39.9043640" lon="-3.8752470">
        <ele>493.6</ele>
        <time>2019-07-08T06:13:04Z</time>
      </trkpt>
      <trkpt lat="39.9041730" lon="-3.8756370">
        <ele>494.4</ele>
        <time>2019-07-08T06:13:11Z</time>
      </trkpt>
      <trkpt lat="39.9040900" lon="-3.8758090">
        <ele>494.6</ele>
        <time>2019-07-08T06:13:14Z</time>
      </trkpt>
      <trkpt lat="39.9038890" lon="-3.8762260">
        <ele>494.8</ele>
        <time>2019-07-08T06:13:21Z</time>
      </trkpt>
      <trkpt lat="39.9037390" lon="-3.8765360">
        <ele>495.0</ele>
        <time>2019-07-08T06:13:26Z</time>
      </trkpt>
      <trkpt lat="39.9035810" lon="-3.8768580">
        <ele>495.6</ele>
        <time>2019-07-08T06:13:31Z</time>
      </trkpt>
      <trkpt lat="39.9033930" lon="-3.8772460">
        <ele>495.8</ele>
        <time>2019-07-08T06:13:37Z</time>
      </trkpt>
      <trkpt lat="39.9032630" lon="-3.8775070">
        <ele>495.8</ele>
        <time>2019-07-08T06:13:41Z</time>
      </trkpt>
      <trkpt lat="39.9029730" lon="-3.8780990">
        <ele>496.2</ele>
        <time>2019-07-08T06:13:50Z</time>
      </trkpt>
      <trkpt lat="39.9027770" lon="-3.8785040">
        <ele>496.6</ele>
        <time>2019-07-08T06:13:56Z</time>
      </trkpt>
      <trkpt lat="39.9026760" lon="-3.8787130">
        <ele>496.8</ele>
        <time>2019-07-08T06:13:59Z</time>
      </trkpt>
      <trkpt lat="39.9023730" lon="-3.8793420">
        <ele>496.8</ele>
        <time>2019-07-08T06:14:08Z</time>
      </trkpt>
      <trkpt lat="39.9023070" lon="-3.8794810">
        <ele>497.0</ele>
        <time>2019-07-08T06:14:10Z</time>
      </trkpt>
      <trkpt lat="39.9021380" lon="-3.8798270">
        <ele>496.8</ele>
        <time>2019-07-08T06:14:15Z</time>
      </trkpt>
      <trkpt lat="39.9018620" lon="-3.8803940">
        <ele>496.8</ele>
        <time>2019-07-08T06:14:23Z</time>
      </trkpt>
      <trkpt lat="39.9015440" lon="-3.8810490">
        <ele>497.0</ele>
        <time>2019-07-08T06:14:32Z</time>
      </trkpt>
      <trkpt lat="39.9014800" lon="-3.8811940">
        <ele>497.0</ele>
        <time>2019-07-08T06:14:34Z</time>
      </trkpt>
      <trkpt lat="39.9012400" lon="-3.8816820">
        <ele>497.0</ele>
        <time>2019-07-08T06:14:41Z</time>
      </trkpt>
      <trkpt lat="39.9009270" lon="-3.8822980">
        <ele>497.4</ele>
        <time>2019-07-08T06:14:50Z</time>
      </trkpt>
      <trkpt lat="39.9006950" lon="-3.8827840">
        <ele>497.4</ele>
        <time>2019-07-08T06:14:57Z</time>
      </trkpt>
      <trkpt lat="39.9003820" lon="-3.8834120">
        <ele>497.4</ele>
        <time>2019-07-08T06:15:06Z</time>
      </trkpt>
      <trkpt lat="39.9000710" lon="-3.8840400">
        <ele>497.4</ele>
        <time>2019-07-08T06:15:15Z</time>
      </trkpt>
      <trkpt lat="39.9000370" lon="-3.8841100">
        <ele>497.6</ele>
        <time>2019-07-08T06:15:16Z</time>
      </trkpt>
      <trkpt lat="39.8998960" lon="-3.8843950">
        <ele>497.6</ele>
        <time>2019-07-08T06:15:20Z</time>
      </trkpt>
      <trkpt lat="39.8996130" lon="-3.8849780">
        <ele>497.2</ele>
        <time>2019-07-08T06:15:28Z</time>
      </trkpt>
      <trkpt lat="39.8992950" lon="-3.8856220">
        <ele>496.8</ele>
        <time>2019-07-08T06:15:37Z</time>
      </trkpt>
      <trkpt lat="39.8990000" lon="-3.8862600">
        <ele>497.0</ele>
        <time>2019-07-08T06:15:46Z</time>
      </trkpt>
      <trkpt lat="39.8989690" lon="-3.8863310">
        <ele>496.8</ele>
        <time>2019-07-08T06:15:47Z</time>
      </trkpt>
      <trkpt lat="39.8987530" lon="-3.8869310">
        <ele>496.6</ele>
        <time>2019-07-08T06:15:55Z</time>
      </trkpt>
      <trkpt lat="39.8985670" lon="-3.8876220">
        <ele>496.6</ele>
        <time>2019-07-08T06:16:04Z</time>
      </trkpt>
      <trkpt lat="39.8985460" lon="-3.8877010">
        <ele>496.6</ele>
        <time>2019-07-08T06:16:05Z</time>
      </trkpt>
      <trkpt lat="39.8983670" lon="-3.8884280">
        <ele>496.4</ele>
        <time>2019-07-08T06:16:14Z</time>
      </trkpt>
      <trkpt lat="39.8983040" lon="-3.8886760">
        <ele>496.0</ele>
        <time>2019-07-08T06:16:17Z</time>
      </trkpt>
      <trkpt lat="39.8981840" lon="-3.8891910">
        <ele>495.2</ele>
        <time>2019-07-08T06:16:23Z</time>
      </trkpt>
      <trkpt lat="39.8981640" lon="-3.8892770">
        <ele>495.2</ele>
        <time>2019-07-08T06:16:24Z</time>
      </trkpt>
      <trkpt lat="39.8980910" lon="-3.8896460">
        <ele>494.0</ele>
        <time>2019-07-08T06:16:28Z</time>
      </trkpt>
      <trkpt lat="39.8980420" lon="-3.8899510">
        <ele>493.2</ele>
        <time>2019-07-08T06:16:31Z</time>
      </trkpt>
      <trkpt lat="39.8980270" lon="-3.8900580">
        <ele>493.0</ele>
        <time>2019-07-08T06:16:32Z</time>
      </trkpt>
      <trkpt lat="39.8980000" lon="-3.8902800">
        <ele>492.4</ele>
        <time>2019-07-08T06:16:34Z</time>
      </trkpt>
      <trkpt lat="39.8979850" lon="-3.8903940">
        <ele>491.8</ele>
        <time>2019-07-08T06:16:35Z</time>
      </trkpt>
      <trkpt lat="39.8979550" lon="-3.8906300">
        <ele>491.0</ele>
        <time>2019-07-08T06:16:37Z</time>
      </trkpt>
      <trkpt lat="39.8979390" lon="-3.8907510">
        <ele>490.6</ele>
        <time>2019-07-08T06:16:38Z</time>
      </trkpt>
      <trkpt lat="39.8979070" lon="-3.8909990">
        <ele>489.6</ele>
        <time>2019-07-08T06:16:40Z</time>
      </trkpt>
      <trkpt lat="39.8978690" lon="-3.8912560">
        <ele>488.2</ele>
        <time>2019-07-08T06:16:42Z</time>
      </trkpt>
      <trkpt lat="39.8978210" lon="-3.8915190">
        <ele>486.8</ele>
        <time>2019-07-08T06:16:44Z</time>
      </trkpt>
      <trkpt lat="39.8977910" lon="-3.8916510">
        <ele>486.2</ele>
        <time>2019-07-08T06:16:45Z</time>
      </trkpt>
      <trkpt lat="39.8977200" lon="-3.8919160">
        <ele>485.2</ele>
        <time>2019-07-08T06:16:47Z</time>
      </trkpt>
      <trkpt lat="39.8976360" lon="-3.8921790">
        <ele>483.8</ele>
        <time>2019-07-08T06:16:49Z</time>
      </trkpt>
      <trkpt lat="39.8975390" lon="-3.8924360">
        <ele>482.4</ele>
        <time>2019-07-08T06:16:51Z</time>
      </trkpt>
      <trkpt lat="39.8973700" lon="-3.8928050">
        <ele>481.2</ele>
        <time>2019-07-08T06:16:54Z</time>
      </trkpt>
      <trkpt lat="39.8971880" lon="-3.8931580">
        <ele>479.8</ele>
        <time>2019-07-08T06:16:57Z</time>
      </trkpt>
      <trkpt lat="39.8971270" lon="-3.8932710">
        <ele>479.6</ele>
        <time>2019-07-08T06:16:58Z</time>
      </trkpt>
      <trkpt lat="39.8967950" lon="-3.8939060">
        <ele>479.0</ele>
        <time>2019-07-08T06:17:04Z</time>
      </trkpt>
      <trkpt lat="39.8965990" lon="-3.8942800">
        <ele>479.6</ele>
        <time>2019-07-08T06:17:08Z</time>
      </trkpt>
      <trkpt lat="39.8964610" lon="-3.8945400">
        <ele>479.8</ele>
        <time>2019-07-08T06:17:11Z</time>
      </trkpt>
      <trkpt lat="39.8961300" lon="-3.8951620">
        <ele>480.0</ele>
        <time>2019-07-08T06:17:19Z</time>
      </trkpt>
      <trkpt lat="39.8960520" lon="-3.8953110">
        <ele>479.8</ele>
        <time>2019-07-08T06:17:21Z</time>
      </trkpt>
      <trkpt lat="39.8959340" lon="-3.8955380">
        <ele>479.6</ele>
        <time>2019-07-08T06:17:24Z</time>
      </trkpt>
      <trkpt lat="39.8958120" lon="-3.8957660">
        <ele>479.2</ele>
        <time>2019-07-08T06:17:27Z</time>
      </trkpt>
      <trkpt lat="39.8956160" lon="-3.8961410">
        <ele>479.4</ele>
        <time>2019-07-08T06:17:32Z</time>
      </trkpt>
      <trkpt lat="39.8955030" lon="-3.8963540">
        <ele>479.6</ele>
        <time>2019-07-08T06:17:35Z</time>
      </trkpt>
      <trkpt lat="39.8954330" lon="-3.8964880">
        <ele>479.8</ele>
        <time>2019-07-08T06:17:37Z</time>
      </trkpt>
      <trkpt lat="39.8952430" lon="-3.8968480">
        <ele>480.4</ele>
        <time>2019-07-08T06:17:43Z</time>
      </trkpt>
      <trkpt lat="39.8952150" lon="-3.8969030">
        <ele>480.6</ele>
        <time>2019-07-08T06:17:44Z</time>
      </trkpt>
      <trkpt lat="39.8951320" lon="-3.8970610">
        <ele>481.0</ele>
        <time>2019-07-08T06:17:47Z</time>
      </trkpt>
      <trkpt lat="39.8950570" lon="-3.8972080">
        <ele>481.6</ele>
        <time>2019-07-08T06:17:50Z</time>
      </trkpt>
      <trkpt lat="39.8950070" lon="-3.8973020">
        <ele>482.2</ele>
        <time>2019-07-08T06:17:52Z</time>
      </trkpt>
      <trkpt lat="39.8949840" lon="-3.8973480">
        <ele>482.4</ele>
        <time>2019-07-08T06:17:53Z</time>
      </trkpt>
      <trkpt lat="39.8949160" lon="-3.8974840">
        <ele>483.0</ele>
        <time>2019-07-08T06:17:56Z</time>
      </trkpt>
      <trkpt lat="39.8948930" lon="-3.8975270">
        <ele>483.4</ele>
        <time>2019-07-08T06:17:57Z</time>
      </trkpt>
      <trkpt lat="39.8948080" lon="-3.8976950">
        <ele>484.0</ele>
        <time>2019-07-08T06:18:01Z</time>
      </trkpt>
      <trkpt lat="39.8947860" lon="-3.8977370">
        <ele>484.0</ele>
        <time>2019-07-08T06:18:02Z</time>
      </trkpt>
      <trkpt lat="39.8947450" lon="-3.8978220">
        <ele>484.4</ele>
        <time>2019-07-08T06:18:04Z</time>
      </trkpt>
      <trkpt lat="39.8946340" lon="-3.8980320">
        <ele>485.4</ele>
        <time>2019-07-08T06:18:09Z</time>
      </trkpt>
      <trkpt lat="39.8945900" lon="-3.8981160">
        <ele>486.0</ele>
        <time>2019-07-08T06:18:11Z</time>
      </trkpt>
      <trkpt lat="39.8945050" lon="-3.8982920">
        <ele>486.6</ele>
        <time>2019-07-08T06:18:15Z</time>
      </trkpt>
      <trkpt lat="39.8943870" lon="-3.8985360">
        <ele>487.2</ele>
        <time>2019-07-08T06:18:20Z</time>
      </trkpt>
      <trkpt lat="39.8942550" lon="-3.8988030">
        <ele>487.6</ele>
        <time>2019-07-08T06:18:25Z</time>
      </trkpt>
      <trkpt lat="39.8941470" lon="-3.8990310">
        <ele>488.0</ele>
        <time>2019-07-08T06:18:29Z</time>
      </trkpt>
      <trkpt lat="39.8938830" lon="-3.8995750">
        <ele>488.6</ele>
        <time>2019-07-08T06:18:38Z</time>
      </trkpt>
      <trkpt lat="39.8938540" lon="-3.8996360">
        <ele>488.6</ele>
        <time>2019-07-08T06:18:39Z</time>
      </trkpt>
      <trkpt lat="39.8938250" lon="-3.8996970">
        <ele>488.8</ele>
        <time>2019-07-08T06:18:40Z</time>
      </trkpt>
      <trkpt lat="39.8936330" lon="-3.9000940">
        <ele>489.8</ele>
        <time>2019-07-08T06:18:47Z</time>
      </trkpt>
      <trkpt lat="39.8935860" lon="-3.9002010">
        <ele>490.0</ele>
        <time>2019-07-08T06:18:49Z</time>
      </trkpt>
      <trkpt lat="39.8934620" lon="-3.9004570">
        <ele>491.0</ele>
        <time>2019-07-08T06:18:54Z</time>
      </trkpt>
      <trkpt lat="39.8933370" lon="-3.9007170">
        <ele>491.8</ele>
        <time>2019-07-08T06:18:59Z</time>
      </trkpt>
      <trkpt lat="39.8933110" lon="-3.9007680">
        <ele>492.2</ele>
        <time>2019-07-08T06:19:00Z</time>
      </trkpt>
      <trkpt lat="39.8931620" lon="-3.9010850">
        <ele>493.2</ele>
        <time>2019-07-08T06:19:06Z</time>
      </trkpt>
      <trkpt lat="39.8930850" lon="-3.9012550">
        <ele>493.6</ele>
        <time>2019-07-08T06:19:09Z</time>
      </trkpt>
      <trkpt lat="39.8928250" lon="-3.9018620">
        <ele>493.8</ele>
        <time>2019-07-08T06:19:19Z</time>
      </trkpt>
      <trkpt lat="39.8926640" lon="-3.9022500">
        <ele>493.8</ele>
        <time>2019-07-08T06:19:25Z</time>
      </trkpt>
      <trkpt lat="39.8925810" lon="-3.9024460">
        <ele>493.8</ele>
        <time>2019-07-08T06:19:28Z</time>
      </trkpt>
      <trkpt lat="39.8924970" lon="-3.9026470">
        <ele>493.8</ele>
        <time>2019-07-08T06:19:31Z</time>
      </trkpt>
      <trkpt lat="39.8924380" lon="-3.9027840">
        <ele>493.6</ele>
        <time>2019-07-08T06:19:33Z</time>
      </trkpt>
      <trkpt lat="39.8923210" lon="-3.9030640">
        <ele>493.6</ele>
        <time>2019-07-08T06:19:37Z</time>
      </trkpt>
      <trkpt lat="39.8922600" lon="-3.9032080">
        <ele>493.6</ele>
        <time>2019-07-08T06:19:39Z</time>
      </trkpt>
      <trkpt lat="39.8922000" lon="-3.9033550">
        <ele>493.6</ele>
        <time>2019-07-08T06:19:41Z</time>
      </trkpt>
      <trkpt lat="39.8921080" lon="-3.9035760">
        <ele>493.4</ele>
        <time>2019-07-08T06:19:44Z</time>
      </trkpt>
      <trkpt lat="39.8919500" lon="-3.9039500">
        <ele>493.2</ele>
        <time>2019-07-08T06:19:49Z</time>
      </trkpt>
      <trkpt lat="39.8918550" lon="-3.9041790">
        <ele>492.8</ele>
        <time>2019-07-08T06:19:52Z</time>
      </trkpt>
      <trkpt lat="39.8916540" lon="-3.9046540">
        <ele>492.2</ele>
        <time>2019-07-08T06:19:58Z</time>
      </trkpt>
      <trkpt lat="39.8915190" lon="-3.9049800">
        <ele>491.6</ele>
        <time>2019-07-08T06:20:02Z</time>
      </trkpt>
      <trkpt lat="39.8913830" lon="-3.9053010">
        <ele>491.2</ele>
        <time>2019-07-08T06:20:06Z</time>
      </trkpt>
      <trkpt lat="39.8911750" lon="-3.9057820">
        <ele>490.4</ele>
        <time>2019-07-08T06:20:12Z</time>
      </trkpt>
      <trkpt lat="39.8910010" lon="-3.9061920">
        <ele>490.4</ele>
        <time>2019-07-08T06:20:17Z</time>
      </trkpt>
      <trkpt lat="39.8908340" lon="-3.9065980">
        <ele>490.2</ele>
        <time>2019-07-08T06:20:22Z</time>
      </trkpt>
      <trkpt lat="39.8905660" lon="-3.9072380">
        <ele>489.6</ele>
        <time>2019-07-08T06:20:30Z</time>
      </trkpt>
      <trkpt lat="39.8905320" lon="-3.9073180">
        <ele>489.4</ele>
        <time>2019-07-08T06:20:31Z</time>
      </trkpt>
      <trkpt lat="39.8904980" lon="-3.9073970">
        <ele>489.2</ele>
        <time>2019-07-08T06:20:32Z</time>
      </trkpt>
      <trkpt lat="39.8902300" lon="-3.9080350">
        <ele>488.8</ele>
        <time>2019-07-08T06:20:40Z</time>
      </trkpt>
      <trkpt lat="39.8901970" lon="-3.9081110">
        <ele>488.8</ele>
        <time>2019-07-08T06:20:41Z</time>
      </trkpt>
      <trkpt lat="39.8899330" lon="-3.9087300">
        <ele>489.4</ele>
        <time>2019-07-08T06:20:49Z</time>
      </trkpt>
      <trkpt lat="39.8896570" lon="-3.9093940">
        <ele>489.8</ele>
        <time>2019-07-08T06:20:58Z</time>
      </trkpt>
      <trkpt lat="39.8895970" lon="-3.9095390">
        <ele>489.8</ele>
        <time>2019-07-08T06:21:00Z</time>
      </trkpt>
      <trkpt lat="39.8893320" lon="-3.9101730">
        <ele>490.0</ele>
        <time>2019-07-08T06:21:09Z</time>
      </trkpt>
      <trkpt lat="39.8893040" lon="-3.9102410">
        <ele>490.2</ele>
        <time>2019-07-08T06:21:10Z</time>
      </trkpt>
      <trkpt lat="39.8890410" lon="-3.9108680">
        <ele>490.0</ele>
        <time>2019-07-08T06:21:19Z</time>
      </trkpt>
      <trkpt lat="39.8887550" lon="-3.9115360">
        <ele>489.2</ele>
        <time>2019-07-08T06:21:28Z</time>
      </trkpt>
      <trkpt lat="39.8884970" lon="-3.9121610">
        <ele>488.6</ele>
        <time>2019-07-08T06:21:36Z</time>
      </trkpt>
      <trkpt lat="39.8883640" lon="-3.9124730">
        <ele>488.4</ele>
        <time>2019-07-08T06:21:40Z</time>
      </trkpt>
      <trkpt lat="39.8881030" lon="-3.9130880">
        <ele>488.2</ele>
        <time>2019-07-08T06:21:48Z</time>
      </trkpt>
      <trkpt lat="39.8880720" lon="-3.9131640">
        <ele>488.4</ele>
        <time>2019-07-08T06:21:49Z</time>
      </trkpt>
      <trkpt lat="39.8878060" lon="-3.9138040">
        <ele>489.2</ele>
        <time>2019-07-08T06:21:58Z</time>
      </trkpt>
      <trkpt lat="39.8877770" lon="-3.9138720">
        <ele>489.4</ele>
        <time>2019-07-08T06:21:59Z</time>
      </trkpt>
      <trkpt lat="39.8874830" lon="-3.9145510">
        <ele>490.0</ele>
        <time>2019-07-08T06:22:09Z</time>
      </trkpt>
      <trkpt lat="39.8874520" lon="-3.9146180">
        <ele>490.0</ele>
        <time>2019-07-08T06:22:10Z</time>
      </trkpt>
      <trkpt lat="39.8873590" lon="-3.9148190">
        <ele>490.4</ele>
        <time>2019-07-08T06:22:13Z</time>
      </trkpt>
      <trkpt lat="39.8870970" lon="-3.9153240">
        <ele>490.6</ele>
        <time>2019-07-08T06:22:21Z</time>
      </trkpt>
      <trkpt lat="39.8867980" lon="-3.9158050">
        <ele>490.8</ele>
        <time>2019-07-08T06:22:29Z</time>
      </trkpt>
      <trkpt lat="39.8865000" lon="-3.9161940">
        <ele>491.4</ele>
        <time>2019-07-08T06:22:36Z</time>
      </trkpt>
      <trkpt lat="39.8864100" lon="-3.9162980">
        <ele>491.6</ele>
        <time>2019-07-08T06:22:38Z</time>
      </trkpt>
      <trkpt lat="39.8859760" lon="-3.9167300">
        <ele>492.0</ele>
        <time>2019-07-08T06:22:47Z</time>
      </trkpt>
      <trkpt lat="39.8859260" lon="-3.9167740">
        <ele>492.0</ele>
        <time>2019-07-08T06:22:48Z</time>
      </trkpt>
      <trkpt lat="39.8854180" lon="-3.9171570">
        <ele>492.2</ele>
        <time>2019-07-08T06:22:58Z</time>
      </trkpt>
      <trkpt lat="39.8850880" lon="-3.9173590">
        <ele>492.0</ele>
        <time>2019-07-08T06:23:04Z</time>
      </trkpt>
      <trkpt lat="39.8849770" lon="-3.9174260">
        <ele>492.0</ele>
        <time>2019-07-08T06:23:06Z</time>
      </trkpt>
      <trkpt lat="39.8848640" lon="-3.9174860">
        <ele>492.2</ele>
        <time>2019-07-08T06:23:08Z</time>
      </trkpt>
      <trkpt lat="39.8845310" lon="-3.9176680">
        <ele>492.2</ele>
        <time>2019-07-08T06:23:14Z</time>
      </trkpt>
      <trkpt lat="39.8841410" lon="-3.9178810">
        <ele>492.4</ele>
        <time>2019-07-08T06:23:21Z</time>
      </trkpt>
      <trkpt lat="39.8839730" lon="-3.9179690">
        <ele>492.8</ele>
        <time>2019-07-08T06:23:24Z</time>
      </trkpt>
      <trkpt lat="39.8834680" lon="-3.9182360">
        <ele>493.2</ele>
        <time>2019-07-08T06:23:33Z</time>
      </trkpt>
      <trkpt lat="39.8833560" lon="-3.9182960">
        <ele>493.4</ele>
        <time>2019-07-08T06:23:35Z</time>
      </trkpt>
      <trkpt lat="39.8832430" lon="-3.9183550">
        <ele>493.4</ele>
        <time>2019-07-08T06:23:37Z</time>
      </trkpt>
      <trkpt lat="39.8827350" lon="-3.9186380">
        <ele>494.0</ele>
        <time>2019-07-08T06:23:46Z</time>
      </trkpt>
      <trkpt lat="39.8826800" lon="-3.9186720">
        <ele>494.2</ele>
        <time>2019-07-08T06:23:47Z</time>
      </trkpt>
      <trkpt lat="39.8825710" lon="-3.9187420">
        <ele>494.4</ele>
        <time>2019-07-08T06:23:49Z</time>
      </trkpt>
      <trkpt lat="39.8822000" lon="-3.9190140">
        <ele>494.4</ele>
        <time>2019-07-08T06:23:56Z</time>
      </trkpt>
      <trkpt lat="39.8817560" lon="-3.9194160">
        <ele>494.4</ele>
        <time>2019-07-08T06:24:05Z</time>
      </trkpt>
      <trkpt lat="39.8813360" lon="-3.9199610">
        <ele>495.0</ele>
        <time>2019-07-08T06:24:15Z</time>
      </trkpt>
      <trkpt lat="39.8810090" lon="-3.9205260">
        <ele>495.2</ele>
        <time>2019-07-08T06:24:24Z</time>
      </trkpt>
      <trkpt lat="39.8809750" lon="-3.9205920">
        <ele>495.2</ele>
        <time>2019-07-08T06:24:25Z</time>
      </trkpt>
      <trkpt lat="39.8806930" lon="-3.9212180">
        <ele>495.2</ele>
        <time>2019-07-08T06:24:34Z</time>
      </trkpt>
      <trkpt lat="39.8806370" lon="-3.9213670">
        <ele>495.2</ele>
        <time>2019-07-08T06:24:36Z</time>
      </trkpt>
      <trkpt lat="39.8804320" lon="-3.9218840">
        <ele>494.4</ele>
        <time>2019-07-08T06:24:43Z</time>
      </trkpt>
      <trkpt lat="39.8803230" lon="-3.9221790">
        <ele>494.4</ele>
        <time>2019-07-08T06:24:47Z</time>
      </trkpt>
      <trkpt lat="39.8800980" lon="-3.9227760">
        <ele>494.4</ele>
        <time>2019-07-08T06:24:55Z</time>
      </trkpt>
      <trkpt lat="39.8798370" lon="-3.9234610">
        <ele>494.6</ele>
        <time>2019-07-08T06:25:04Z</time>
      </trkpt>
      <trkpt lat="39.8797820" lon="-3.9236140">
        <ele>494.6</ele>
        <time>2019-07-08T06:25:06Z</time>
      </trkpt>
      <trkpt lat="39.8795850" lon="-3.9241380">
        <ele>494.6</ele>
        <time>2019-07-08T06:25:13Z</time>
      </trkpt>
      <trkpt lat="39.8793360" lon="-3.9248120">
        <ele>494.6</ele>
        <time>2019-07-08T06:25:22Z</time>
      </trkpt>
      <trkpt lat="39.8792530" lon="-3.9250340">
        <ele>494.6</ele>
        <time>2019-07-08T06:25:25Z</time>
      </trkpt>
      <trkpt lat="39.8791350" lon="-3.9253270">
        <ele>494.6</ele>
        <time>2019-07-08T06:25:29Z</time>
      </trkpt>
      <trkpt lat="39.8790010" lon="-3.9256990">
        <ele>494.4</ele>
        <time>2019-07-08T06:25:34Z</time>
      </trkpt>
      <trkpt lat="39.8788290" lon="-3.9261310">
        <ele>494.2</ele>
        <time>2019-07-08T06:25:40Z</time>
      </trkpt>
      <trkpt lat="39.8787230" lon="-3.9264240">
        <ele>494.2</ele>
        <time>2019-07-08T06:25:44Z</time>
      </trkpt>
      <trkpt lat="39.8784800" lon="-3.9270730">
        <ele>494.0</ele>
        <time>2019-07-08T06:25:53Z</time>
      </trkpt>
      <trkpt lat="39.8782550" lon="-3.9276490">
        <ele>493.6</ele>
        <time>2019-07-08T06:26:01Z</time>
      </trkpt>
      <trkpt lat="39.8780910" lon="-3.9281380">
        <ele>493.8</ele>
        <time>2019-07-08T06:26:08Z</time>
      </trkpt>
      <trkpt lat="39.8780670" lon="-3.9282040">
        <ele>493.8</ele>
        <time>2019-07-08T06:26:09Z</time>
      </trkpt>
      <trkpt lat="39.8780460" lon="-3.9282710">
        <ele>493.6</ele>
        <time>2019-07-08T06:26:10Z</time>
      </trkpt>
      <trkpt lat="39.8780070" lon="-3.9285410">
        <ele>493.2</ele>
        <time>2019-07-08T06:26:14Z</time>
      </trkpt>
      <trkpt lat="39.8780080" lon="-3.9286140">
        <ele>493.2</ele>
        <time>2019-07-08T06:26:15Z</time>
      </trkpt>
      <trkpt lat="39.8780120" lon="-3.9286880">
        <ele>493.2</ele>
        <time>2019-07-08T06:26:16Z</time>
      </trkpt>
      <trkpt lat="39.8780120" lon="-3.9288430">
        <ele>493.2</ele>
        <time>2019-07-08T06:26:18Z</time>
      </trkpt>
      <trkpt lat="39.8779850" lon="-3.9289980">
        <ele>493.0</ele>
        <time>2019-07-08T06:26:20Z</time>
      </trkpt>
      <trkpt lat="39.8778380" lon="-3.9292430">
        <ele>492.8</ele>
        <time>2019-07-08T06:26:24Z</time>
      </trkpt>
      <trkpt lat="39.8777390" lon="-3.9293300">
        <ele>492.8</ele>
        <time>2019-07-08T06:26:26Z</time>
      </trkpt>
      <trkpt lat="39.8776430" lon="-3.9294190">
        <ele>492.8</ele>
        <time>2019-07-08T06:26:28Z</time>
      </trkpt>
      <trkpt lat="39.8776010" lon="-3.9294730">
        <ele>492.6</ele>
        <time>2019-07-08T06:26:29Z</time>
      </trkpt>
      <trkpt lat="39.8774770" lon="-3.9297350">
        <ele>492.6</ele>
        <time>2019-07-08T06:26:33Z</time>
      </trkpt>
      <trkpt lat="39.8774480" lon="-3.9298050">
        <ele>492.6</ele>
        <time>2019-07-08T06:26:34Z</time>
      </trkpt>
      <trkpt lat="39.8773260" lon="-3.9300930">
        <ele>492.2</ele>
        <time>2019-07-08T06:26:38Z</time>
      </trkpt>
      <trkpt lat="39.8771450" lon="-3.9305510">
        <ele>491.2</ele>
        <time>2019-07-08T06:26:44Z</time>
      </trkpt>
      <trkpt lat="39.8771180" lon="-3.9306290">
        <ele>491.0</ele>
        <time>2019-07-08T06:26:45Z</time>
      </trkpt>
      <trkpt lat="39.8769380" lon="-3.9311030">
        <ele>490.4</ele>
        <time>2019-07-08T06:26:51Z</time>
      </trkpt>
      <trkpt lat="39.8768750" lon="-3.9312630">
        <ele>490.0</ele>
        <time>2019-07-08T06:26:53Z</time>
      </trkpt>
      <trkpt lat="39.8767860" lon="-3.9315000">
        <ele>489.6</ele>
        <time>2019-07-08T06:26:56Z</time>
      </trkpt>
      <trkpt lat="39.8767250" lon="-3.9316570">
        <ele>489.2</ele>
        <time>2019-07-08T06:26:58Z</time>
      </trkpt>
      <trkpt lat="39.8766630" lon="-3.9318210">
        <ele>489.0</ele>
        <time>2019-07-08T06:27:00Z</time>
      </trkpt>
      <trkpt lat="39.8764680" lon="-3.9323320">
        <ele>487.8</ele>
        <time>2019-07-08T06:27:06Z</time>
      </trkpt>
      <trkpt lat="39.8764350" lon="-3.9324180">
        <ele>487.6</ele>
        <time>2019-07-08T06:27:07Z</time>
      </trkpt>
      <trkpt lat="39.8763380" lon="-3.9326700">
        <ele>487.2</ele>
        <time>2019-07-08T06:27:10Z</time>
      </trkpt>
      <trkpt lat="39.8762130" lon="-3.9330030">
        <ele>486.8</ele>
        <time>2019-07-08T06:27:14Z</time>
      </trkpt>
      <trkpt lat="39.8760540" lon="-3.9334240">
        <ele>485.6</ele>
        <time>2019-07-08T06:27:19Z</time>
      </trkpt>
      <trkpt lat="39.8759560" lon="-3.9336800">
        <ele>485.0</ele>
        <time>2019-07-08T06:27:22Z</time>
      </trkpt>
      <trkpt lat="39.8758620" lon="-3.9339360">
        <ele>484.4</ele>
        <time>2019-07-08T06:27:25Z</time>
      </trkpt>
      <trkpt lat="39.8758010" lon="-3.9341050">
        <ele>484.2</ele>
        <time>2019-07-08T06:27:27Z</time>
      </trkpt>
      <trkpt lat="39.8757050" lon="-3.9343610">
        <ele>483.6</ele>
        <time>2019-07-08T06:27:30Z</time>
      </trkpt>
      <trkpt lat="39.8756380" lon="-3.9345340">
        <ele>483.4</ele>
        <time>2019-07-08T06:27:32Z</time>
      </trkpt>
      <trkpt lat="39.8754370" lon="-3.9350570">
        <ele>482.6</ele>
        <time>2019-07-08T06:27:38Z</time>
      </trkpt>
      <trkpt lat="39.8753420" lon="-3.9353200">
        <ele>482.4</ele>
        <time>2019-07-08T06:27:41Z</time>
      </trkpt>
      <trkpt lat="39.8753100" lon="-3.9354070">
        <ele>482.4</ele>
        <time>2019-07-08T06:27:42Z</time>
      </trkpt>
      <trkpt lat="39.8751500" lon="-3.9358220">
        <ele>482.0</ele>
        <time>2019-07-08T06:27:47Z</time>
      </trkpt>
      <trkpt lat="39.8750760" lon="-3.9360790">
        <ele>481.8</ele>
        <time>2019-07-08T06:27:50Z</time>
      </trkpt>
      <trkpt lat="39.8750580" lon="-3.9362630">
        <ele>481.6</ele>
        <time>2019-07-08T06:27:52Z</time>
      </trkpt>
      <trkpt lat="39.8750630" lon="-3.9364550">
        <ele>481.4</ele>
        <time>2019-07-08T06:27:54Z</time>
      </trkpt>
      <trkpt lat="39.8750610" lon="-3.9365520">
        <ele>481.4</ele>
        <time>2019-07-08T06:27:55Z</time>
      </trkpt>
      <trkpt lat="39.8750490" lon="-3.9366470">
        <ele>481.2</ele>
        <time>2019-07-08T06:27:56Z</time>
      </trkpt>
      <trkpt lat="39.8750270" lon="-3.9367360">
        <ele>481.0</ele>
        <time>2019-07-08T06:27:57Z</time>
      </trkpt>
      <trkpt lat="39.8749070" lon="-3.9369550">
        <ele>481.0</ele>
        <time>2019-07-08T06:28:00Z</time>
      </trkpt>
      <trkpt lat="39.8747980" lon="-3.9370650">
        <ele>480.8</ele>
        <time>2019-07-08T06:28:02Z</time>
      </trkpt>
      <trkpt lat="39.8746410" lon="-3.9372350">
        <ele>480.8</ele>
        <time>2019-07-08T06:28:05Z</time>
      </trkpt>
      <trkpt lat="39.8745040" lon="-3.9375260">
        <ele>480.8</ele>
        <time>2019-07-08T06:28:09Z</time>
      </trkpt>
      <trkpt lat="39.8742620" lon="-3.9381330">
        <ele>481.2</ele>
        <time>2019-07-08T06:28:17Z</time>
      </trkpt>
      <trkpt lat="39.8740320" lon="-3.9387580">
        <ele>481.2</ele>
        <time>2019-07-08T06:28:25Z</time>
      </trkpt>
      <trkpt lat="39.8737990" lon="-3.9393590">
        <ele>480.6</ele>
        <time>2019-07-08T06:28:33Z</time>
      </trkpt>
      <trkpt lat="39.8735500" lon="-3.9400260">
        <ele>480.8</ele>
        <time>2019-07-08T06:28:42Z</time>
      </trkpt>
      <trkpt lat="39.8732990" lon="-3.9406840">
        <ele>481.0</ele>
        <time>2019-07-08T06:28:51Z</time>
      </trkpt>
      <trkpt lat="39.8731350" lon="-3.9411110">
        <ele>481.0</ele>
        <time>2019-07-08T06:28:57Z</time>
      </trkpt>
      <trkpt lat="39.8729690" lon="-3.9415400">
        <ele>481.0</ele>
        <time>2019-07-08T06:29:03Z</time>
      </trkpt>
      <trkpt lat="39.8727820" lon="-3.9420460">
        <ele>481.4</ele>
        <time>2019-07-08T06:29:10Z</time>
      </trkpt>
      <trkpt lat="39.8725630" lon="-3.9426030">
        <ele>481.4</ele>
        <time>2019-07-08T06:29:18Z</time>
      </trkpt>
      <trkpt lat="39.8725340" lon="-3.9426710">
        <ele>481.4</ele>
        <time>2019-07-08T06:29:19Z</time>
      </trkpt>
      <trkpt lat="39.8723560" lon="-3.9431480">
        <ele>481.2</ele>
        <time>2019-07-08T06:29:26Z</time>
      </trkpt>
      <trkpt lat="39.8720980" lon="-3.9438440">
        <ele>481.4</ele>
        <time>2019-07-08T06:29:36Z</time>
      </trkpt>
      <trkpt lat="39.8720740" lon="-3.9439140">
        <ele>481.4</ele>
        <time>2019-07-08T06:29:37Z</time>
      </trkpt>
      <trkpt lat="39.8718590" lon="-3.9444660">
        <ele>481.6</ele>
        <time>2019-07-08T06:29:45Z</time>
      </trkpt>
      <trkpt lat="39.8716020" lon="-3.9451490">
        <ele>481.8</ele>
        <time>2019-07-08T06:29:55Z</time>
      </trkpt>
      <trkpt lat="39.8715740" lon="-3.9452170">
        <ele>481.8</ele>
        <time>2019-07-08T06:29:56Z</time>
      </trkpt>
      <trkpt lat="39.8713210" lon="-3.9458920">
        <ele>482.0</ele>
        <time>2019-07-08T06:30:06Z</time>
      </trkpt>
      <trkpt lat="39.8711130" lon="-3.9465100">
        <ele>482.4</ele>
        <time>2019-07-08T06:30:15Z</time>
      </trkpt>
      <trkpt lat="39.8710030" lon="-3.9468420">
        <ele>482.2</ele>
        <time>2019-07-08T06:30:20Z</time>
      </trkpt>
      <trkpt lat="39.8709800" lon="-3.9469740">
        <ele>482.2</ele>
        <time>2019-07-08T06:30:22Z</time>
      </trkpt>
      <trkpt lat="39.8709630" lon="-3.9470970">
        <ele>481.8</ele>
        <time>2019-07-08T06:30:24Z</time>
      </trkpt>
      <trkpt lat="39.8709530" lon="-3.9472150">
        <ele>481.2</ele>
        <time>2019-07-08T06:30:27Z</time>
      </trkpt>
      <trkpt lat="39.8709410" lon="-3.9474300">
        <ele>481.2</ele>
        <time>2019-07-08T06:30:32Z</time>
      </trkpt>
      <trkpt lat="39.8709270" lon="-3.9475520">
        <ele>481.2</ele>
        <time>2019-07-08T06:30:34Z</time>
      </trkpt>
      <trkpt lat="39.8708860" lon="-3.9476750">
        <ele>481.2</ele>
        <time>2019-07-08T06:30:36Z</time>
      </trkpt>
      <trkpt lat="39.8707780" lon="-3.9478300">
        <ele>481.2</ele>
        <time>2019-07-08T06:30:39Z</time>
      </trkpt>
      <trkpt lat="39.8707360" lon="-3.9478770">
        <ele>481.0</ele>
        <time>2019-07-08T06:30:40Z</time>
      </trkpt>
      <trkpt lat="39.8706940" lon="-3.9479230">
        <ele>481.2</ele>
        <time>2019-07-08T06:30:41Z</time>
      </trkpt>
      <trkpt lat="39.8704290" lon="-3.9482820">
        <ele>482.0</ele>
        <time>2019-07-08T06:30:48Z</time>
      </trkpt>
      <trkpt lat="39.8702930" lon="-3.9486090">
        <ele>482.2</ele>
        <time>2019-07-08T06:30:53Z</time>
      </trkpt>
      <trkpt lat="39.8702360" lon="-3.9487470">
        <ele>482.2</ele>
        <time>2019-07-08T06:30:55Z</time>
      </trkpt>
      <trkpt lat="39.8701820" lon="-3.9488880">
        <ele>482.4</ele>
        <time>2019-07-08T06:30:57Z</time>
      </trkpt>
      <trkpt lat="39.8700490" lon="-3.9492390">
        <ele>482.8</ele>
        <time>2019-07-08T06:31:02Z</time>
      </trkpt>
      <trkpt lat="39.8698030" lon="-3.9498870">
        <ele>482.8</ele>
        <time>2019-07-08T06:31:11Z</time>
      </trkpt>
      <trkpt lat="39.8696360" lon="-3.9503200">
        <ele>482.6</ele>
        <time>2019-07-08T06:31:17Z</time>
      </trkpt>
      <trkpt lat="39.8695810" lon="-3.9504620">
        <ele>482.6</ele>
        <time>2019-07-08T06:31:19Z</time>
      </trkpt>
      <trkpt lat="39.8694150" lon="-3.9509010">
        <ele>482.4</ele>
        <time>2019-07-08T06:31:25Z</time>
      </trkpt>
      <trkpt lat="39.8693330" lon="-3.9511200">
        <ele>482.4</ele>
        <time>2019-07-08T06:31:28Z</time>
      </trkpt>
      <trkpt lat="39.8691170" lon="-3.9516860">
        <ele>482.4</ele>
        <time>2019-07-08T06:31:36Z</time>
      </trkpt>
      <trkpt lat="39.8690380" lon="-3.9518970">
        <ele>482.4</ele>
        <time>2019-07-08T06:31:39Z</time>
      </trkpt>
      <trkpt lat="39.8687920" lon="-3.9525360">
        <ele>482.0</ele>
        <time>2019-07-08T06:31:48Z</time>
      </trkpt>
      <trkpt lat="39.8685460" lon="-3.9531820">
        <ele>482.4</ele>
        <time>2019-07-08T06:31:57Z</time>
      </trkpt>
      <trkpt lat="39.8684910" lon="-3.9533220">
        <ele>482.4</ele>
        <time>2019-07-08T06:31:59Z</time>
      </trkpt>
      <trkpt lat="39.8683870" lon="-3.9536040">
        <ele>481.8</ele>
        <time>2019-07-08T06:32:03Z</time>
      </trkpt>
      <trkpt lat="39.8683290" lon="-3.9537450">
        <ele>481.8</ele>
        <time>2019-07-08T06:32:05Z</time>
      </trkpt>
      <trkpt lat="39.8681020" lon="-3.9543270">
        <ele>481.8</ele>
        <time>2019-07-08T06:32:13Z</time>
      </trkpt>
      <trkpt lat="39.8678450" lon="-3.9549780">
        <ele>482.0</ele>
        <time>2019-07-08T06:32:22Z</time>
      </trkpt>
      <trkpt lat="39.8677610" lon="-3.9551860">
        <ele>482.0</ele>
        <time>2019-07-08T06:32:25Z</time>
      </trkpt>
      <trkpt lat="39.8675140" lon="-3.9558260">
        <ele>481.8</ele>
        <time>2019-07-08T06:32:34Z</time>
      </trkpt>
      <trkpt lat="39.8672660" lon="-3.9564600">
        <ele>481.8</ele>
        <time>2019-07-08T06:32:43Z</time>
      </trkpt>
      <trkpt lat="39.8671580" lon="-3.9567370">
        <ele>481.6</ele>
        <time>2019-07-08T06:32:47Z</time>
      </trkpt>
      <trkpt lat="39.8669710" lon="-3.9572340">
        <ele>481.2</ele>
        <time>2019-07-08T06:32:54Z</time>
      </trkpt>
      <trkpt lat="39.8669280" lon="-3.9573830">
        <ele>481.0</ele>
        <time>2019-07-08T06:32:56Z</time>
      </trkpt>
      <trkpt lat="39.8668990" lon="-3.9575360">
        <ele>481.0</ele>
        <time>2019-07-08T06:32:58Z</time>
      </trkpt>
      <trkpt lat="39.8668950" lon="-3.9576920">
        <ele>481.0</ele>
        <time>2019-07-08T06:33:00Z</time>
      </trkpt>
      <trkpt lat="39.8668990" lon="-3.9578490">
        <ele>480.8</ele>
        <time>2019-07-08T06:33:02Z</time>
      </trkpt>
      <trkpt lat="39.8668910" lon="-3.9580040">
        <ele>480.8</ele>
        <time>2019-07-08T06:33:04Z</time>
      </trkpt>
      <trkpt lat="39.8668550" lon="-3.9581500">
        <ele>480.6</ele>
        <time>2019-07-08T06:33:06Z</time>
      </trkpt>
      <trkpt lat="39.8667090" lon="-3.9583830">
        <ele>480.6</ele>
        <time>2019-07-08T06:33:10Z</time>
      </trkpt>
      <trkpt lat="39.8666140" lon="-3.9584770">
        <ele>480.6</ele>
        <time>2019-07-08T06:33:12Z</time>
      </trkpt>
      <trkpt lat="39.8664400" lon="-3.9586840">
        <ele>480.6</ele>
        <time>2019-07-08T06:33:16Z</time>
      </trkpt>
      <trkpt lat="39.8662570" lon="-3.9590690">
        <ele>480.6</ele>
        <time>2019-07-08T06:33:22Z</time>
      </trkpt>
      <trkpt lat="39.8660250" lon="-3.9596670">
        <ele>480.8</ele>
        <time>2019-07-08T06:33:31Z</time>
      </trkpt>
      <trkpt lat="39.8657810" lon="-3.9603510">
        <ele>480.6</ele>
        <time>2019-07-08T06:33:41Z</time>
      </trkpt>
      <trkpt lat="39.8656180" lon="-3.9608990">
        <ele>480.8</ele>
        <time>2019-07-08T06:33:49Z</time>
      </trkpt>
      <trkpt lat="39.8654560" lon="-3.9615270">
        <ele>481.0</ele>
        <time>2019-07-08T06:33:58Z</time>
      </trkpt>
      <trkpt lat="39.8653110" lon="-3.9622510">
        <ele>481.4</ele>
        <time>2019-07-08T06:34:08Z</time>
      </trkpt>
      <trkpt lat="39.8652980" lon="-3.9623240">
        <ele>481.6</ele>
        <time>2019-07-08T06:34:09Z</time>
      </trkpt>
      <trkpt lat="39.8651820" lon="-3.9629940">
        <ele>481.6</ele>
        <time>2019-07-08T06:34:18Z</time>
      </trkpt>
      <trkpt lat="39.8651690" lon="-3.9630670">
        <ele>481.4</ele>
        <time>2019-07-08T06:34:19Z</time>
      </trkpt>
      <trkpt lat="39.8651040" lon="-3.9634360">
        <ele>481.8</ele>
        <time>2019-07-08T06:34:24Z</time>
      </trkpt>
      <trkpt lat="39.8650240" lon="-3.9638850">
        <ele>482.0</ele>
        <time>2019-07-08T06:34:30Z</time>
      </trkpt>
      <trkpt lat="39.8648890" lon="-3.9646400">
        <ele>482.2</ele>
        <time>2019-07-08T06:34:40Z</time>
      </trkpt>
      <trkpt lat="39.8648640" lon="-3.9647910">
        <ele>482.2</ele>
        <time>2019-07-08T06:34:42Z</time>
      </trkpt>
      <trkpt lat="39.8647280" lon="-3.9654930">
        <ele>482.2</ele>
        <time>2019-07-08T06:34:51Z</time>
      </trkpt>
      <trkpt lat="39.8646950" lon="-3.9656530">
        <ele>482.4</ele>
        <time>2019-07-08T06:34:53Z</time>
      </trkpt>
      <trkpt lat="39.8646020" lon="-3.9661260">
        <ele>483.0</ele>
        <time>2019-07-08T06:34:59Z</time>
      </trkpt>
      <trkpt lat="39.8645560" lon="-3.9663610">
        <ele>483.2</ele>
        <time>2019-07-08T06:35:02Z</time>
      </trkpt>
      <trkpt lat="39.8644070" lon="-3.9670940">
        <ele>482.8</ele>
        <time>2019-07-08T06:35:11Z</time>
      </trkpt>
      <trkpt lat="39.8643640" lon="-3.9673570">
        <ele>481.6</ele>
        <time>2019-07-08T06:35:14Z</time>
      </trkpt>
      <trkpt lat="39.8642930" lon="-3.9677250">
        <ele>480.8</ele>
        <time>2019-07-08T06:35:18Z</time>
      </trkpt>
      <trkpt lat="39.8642760" lon="-3.9678230">
        <ele>480.4</ele>
        <time>2019-07-08T06:35:19Z</time>
      </trkpt>
      <trkpt lat="39.8642210" lon="-3.9681350">
        <ele>479.4</ele>
        <time>2019-07-08T06:35:22Z</time>
      </trkpt>
      <trkpt lat="39.8642030" lon="-3.9682460">
        <ele>479.2</ele>
        <time>2019-07-08T06:35:23Z</time>
      </trkpt>
      <trkpt lat="39.8641830" lon="-3.9683580">
        <ele>479.0</ele>
        <time>2019-07-08T06:35:24Z</time>
      </trkpt>
      <trkpt lat="39.8641390" lon="-3.9685920">
        <ele>477.8</ele>
        <time>2019-07-08T06:35:26Z</time>
      </trkpt>
      <trkpt lat="39.8640770" lon="-3.9689570">
        <ele>476.6</ele>
        <time>2019-07-08T06:35:29Z</time>
      </trkpt>
      <trkpt lat="39.8640330" lon="-3.9692000">
        <ele>476.0</ele>
        <time>2019-07-08T06:35:31Z</time>
      </trkpt>
      <trkpt lat="39.8640120" lon="-3.9693190">
        <ele>475.6</ele>
        <time>2019-07-08T06:35:32Z</time>
      </trkpt>
      <trkpt lat="39.8639600" lon="-3.9696570">
        <ele>475.2</ele>
        <time>2019-07-08T06:35:35Z</time>
      </trkpt>
      <trkpt lat="39.8639220" lon="-3.9698720">
        <ele>475.0</ele>
        <time>2019-07-08T06:35:37Z</time>
      </trkpt>
      <trkpt lat="39.8638170" lon="-3.9704610">
        <ele>475.2</ele>
        <time>2019-07-08T06:35:43Z</time>
      </trkpt>
      <trkpt lat="39.8638000" lon="-3.9705540">
        <ele>475.2</ele>
        <time>2019-07-08T06:35:44Z</time>
      </trkpt>
      <trkpt lat="39.8637550" lon="-3.9711100">
        <ele>475.6</ele>
        <time>2019-07-08T06:35:50Z</time>
      </trkpt>
      <trkpt lat="39.8637680" lon="-3.9714460">
        <ele>475.8</ele>
        <time>2019-07-08T06:35:54Z</time>
      </trkpt>
      <trkpt lat="39.8637830" lon="-3.9715880">
        <ele>476.4</ele>
        <time>2019-07-08T06:35:56Z</time>
      </trkpt>
      <trkpt lat="39.8638020" lon="-3.9717210">
        <ele>476.8</ele>
        <time>2019-07-08T06:35:58Z</time>
      </trkpt>
      <trkpt lat="39.8638350" lon="-3.9719230">
        <ele>477.6</ele>
        <time>2019-07-08T06:36:01Z</time>
      </trkpt>
      <trkpt lat="39.8638610" lon="-3.9720610">
        <ele>478.0</ele>
        <time>2019-07-08T06:36:03Z</time>
      </trkpt>
      <trkpt lat="39.8638890" lon="-3.9722010">
        <ele>478.4</ele>
        <time>2019-07-08T06:36:05Z</time>
      </trkpt>
      <trkpt lat="39.8639210" lon="-3.9723420">
        <ele>478.6</ele>
        <time>2019-07-08T06:36:07Z</time>
      </trkpt>
      <trkpt lat="39.8639600" lon="-3.9725550">
        <ele>479.0</ele>
        <time>2019-07-08T06:36:10Z</time>
      </trkpt>
      <trkpt lat="39.8639730" lon="-3.9726260">
        <ele>479.2</ele>
        <time>2019-07-08T06:36:11Z</time>
      </trkpt>
      <trkpt lat="39.8640140" lon="-3.9728450">
        <ele>479.4</ele>
        <time>2019-07-08T06:36:14Z</time>
      </trkpt>
      <trkpt lat="39.8640560" lon="-3.9730680">
        <ele>479.8</ele>
        <time>2019-07-08T06:36:17Z</time>
      </trkpt>
      <trkpt lat="39.8641120" lon="-3.9733780">
        <ele>479.6</ele>
        <time>2019-07-08T06:36:21Z</time>
      </trkpt>
      <trkpt lat="39.8642360" lon="-3.9741110">
        <ele>479.6</ele>
        <time>2019-07-08T06:36:30Z</time>
      </trkpt>
      <trkpt lat="39.8642580" lon="-3.9742800">
        <ele>479.8</ele>
        <time>2019-07-08T06:36:32Z</time>
      </trkpt>
      <trkpt lat="39.8643040" lon="-3.9746210">
        <ele>479.6</ele>
        <time>2019-07-08T06:36:36Z</time>
      </trkpt>
      <trkpt lat="39.8643510" lon="-3.9748810">
        <ele>479.4</ele>
        <time>2019-07-08T06:36:39Z</time>
      </trkpt>
      <trkpt lat="39.8643750" lon="-3.9754170">
        <ele>479.4</ele>
        <time>2019-07-08T06:36:45Z</time>
      </trkpt>
      <trkpt lat="39.8643740" lon="-3.9761520">
        <ele>478.8</ele>
        <time>2019-07-08T06:36:53Z</time>
      </trkpt>
      <trkpt lat="39.8643710" lon="-3.9763380">
        <ele>478.6</ele>
        <time>2019-07-08T06:36:55Z</time>
      </trkpt>
      <trkpt lat="39.8643690" lon="-3.9764300">
        <ele>478.6</ele>
        <time>2019-07-08T06:36:56Z</time>
      </trkpt>
      <trkpt lat="39.8643370" lon="-3.9770710">
        <ele>478.4</ele>
        <time>2019-07-08T06:37:03Z</time>
      </trkpt>
      <trkpt lat="39.8643260" lon="-3.9772540">
        <ele>478.4</ele>
        <time>2019-07-08T06:37:05Z</time>
      </trkpt>
      <trkpt lat="39.8642870" lon="-3.9777030">
        <ele>478.0</ele>
        <time>2019-07-08T06:37:10Z</time>
      </trkpt>
      <trkpt lat="39.8642600" lon="-3.9779680">
        <ele>477.6</ele>
        <time>2019-07-08T06:37:13Z</time>
      </trkpt>
      <trkpt lat="39.8642010" lon="-3.9783990">
        <ele>477.4</ele>
        <time>2019-07-08T06:37:18Z</time>
      </trkpt>
      <trkpt lat="39.8641530" lon="-3.9787420">
        <ele>477.4</ele>
        <time>2019-07-08T06:37:22Z</time>
      </trkpt>
      <trkpt lat="39.8640180" lon="-3.9794120">
        <ele>476.6</ele>
        <time>2019-07-08T06:37:30Z</time>
      </trkpt>
      <trkpt lat="39.8639980" lon="-3.9794930">
        <ele>476.6</ele>
        <time>2019-07-08T06:37:31Z</time>
      </trkpt>
      <trkpt lat="39.8638590" lon="-3.9801570">
        <ele>476.4</ele>
        <time>2019-07-08T06:37:39Z</time>
      </trkpt>
      <trkpt lat="39.8637110" lon="-3.9808390">
        <ele>475.8</ele>
        <time>2019-07-08T06:37:47Z</time>
      </trkpt>
      <trkpt lat="39.8636720" lon="-3.9810080">
        <ele>475.8</ele>
        <time>2019-07-08T06:37:49Z</time>
      </trkpt>
      <trkpt lat="39.8635470" lon="-3.9815740">
        <ele>475.8</ele>
        <time>2019-07-08T06:37:56Z</time>
      </trkpt>
      <trkpt lat="39.8634160" lon="-3.9821190">
        <ele>476.0</ele>
        <time>2019-07-08T06:38:03Z</time>
      </trkpt>
      <trkpt lat="39.8632210" lon="-3.9828480">
        <ele>476.0</ele>
        <time>2019-07-08T06:38:12Z</time>
      </trkpt>
      <trkpt lat="39.8630290" lon="-3.9835750">
        <ele>476.0</ele>
        <time>2019-07-08T06:38:21Z</time>
      </trkpt>
      <trkpt lat="39.8630090" lon="-3.9836530">
        <ele>476.0</ele>
        <time>2019-07-08T06:38:22Z</time>
      </trkpt>
      <trkpt lat="39.8628190" lon="-3.9843400">
        <ele>475.6</ele>
        <time>2019-07-08T06:38:31Z</time>
      </trkpt>
      <trkpt lat="39.8627780" lon="-3.9844970">
        <ele>475.6</ele>
        <time>2019-07-08T06:38:33Z</time>
      </trkpt>
      <trkpt lat="39.8625990" lon="-3.9852090">
        <ele>475.2</ele>
        <time>2019-07-08T06:38:42Z</time>
      </trkpt>
      <trkpt lat="39.8624410" lon="-3.9859300">
        <ele>474.6</ele>
        <time>2019-07-08T06:38:51Z</time>
      </trkpt>
      <trkpt lat="39.8624260" lon="-3.9860100">
        <ele>474.6</ele>
        <time>2019-07-08T06:38:52Z</time>
      </trkpt>
      <trkpt lat="39.8622890" lon="-3.9867010">
        <ele>474.8</ele>
        <time>2019-07-08T06:39:01Z</time>
      </trkpt>
      <trkpt lat="39.8622740" lon="-3.9867750">
        <ele>474.8</ele>
        <time>2019-07-08T06:39:02Z</time>
      </trkpt>
      <trkpt lat="39.8621160" lon="-3.9874510">
        <ele>474.8</ele>
        <time>2019-07-08T06:39:11Z</time>
      </trkpt>
      <trkpt lat="39.8619040" lon="-3.9881220">
        <ele>475.0</ele>
        <time>2019-07-08T06:39:20Z</time>
      </trkpt>
      <trkpt lat="39.8616820" lon="-3.9887320">
        <ele>475.6</ele>
        <time>2019-07-08T06:39:29Z</time>
      </trkpt>
      <trkpt lat="39.8616330" lon="-3.9888600">
        <ele>475.8</ele>
        <time>2019-07-08T06:39:31Z</time>
      </trkpt>
      <trkpt lat="39.8614220" lon="-3.9893350">
        <ele>476.2</ele>
        <time>2019-07-08T06:39:39Z</time>
      </trkpt>
      <trkpt lat="39.8613550" lon="-3.9894780">
        <ele>476.6</ele>
        <time>2019-07-08T06:39:43Z</time>
      </trkpt>
      <trkpt lat="39.8613390" lon="-3.9895110">
        <ele>476.8</ele>
        <time>2019-07-08T06:39:44Z</time>
      </trkpt>
      <trkpt lat="39.8612410" lon="-3.9897080">
        <ele>476.6</ele>
        <time>2019-07-08T06:39:49Z</time>
      </trkpt>
      <trkpt lat="39.8611910" lon="-3.9898050">
        <ele>476.8</ele>
        <time>2019-07-08T06:39:53Z</time>
      </trkpt>
      <trkpt lat="39.8611890" lon="-3.9898070">
        <ele>476.8</ele>
        <time>2019-07-08T06:39:55Z</time>
      </trkpt>
      <trkpt lat="39.8612430" lon="-3.9898060">
        <ele>475.6</ele>
        <time>2019-07-08T06:40:36Z</time>
      </trkpt>
      <trkpt lat="39.8612540" lon="-3.9897950">
        <ele>475.4</ele>
        <time>2019-07-08T06:40:37Z</time>
      </trkpt>
      <trkpt lat="39.8612900" lon="-3.9897430">
        <ele>475.4</ele>
        <time>2019-07-08T06:40:42Z</time>
      </trkpt>
      <trkpt lat="39.8612960" lon="-3.9897350">
        <ele>475.4</ele>
        <time>2019-07-08T06:40:43Z</time>
      </trkpt>
      <trkpt lat="39.8612980" lon="-3.9897340">
        <ele>475.2</ele>
        <time>2019-07-08T06:40:45Z</time>
      </trkpt>
      <trkpt lat="39.8613200" lon="-3.9896920">
        <ele>475.2</ele>
        <time>2019-07-08T06:40:48Z</time>
      </trkpt>
      <trkpt lat="39.8613430" lon="-3.9896450">
        <ele>475.2</ele>
        <time>2019-07-08T06:40:50Z</time>
      </trkpt>
      <trkpt lat="39.8614160" lon="-3.9894510">
        <ele>475.0</ele>
        <time>2019-07-08T06:40:56Z</time>
      </trkpt>
      <trkpt lat="39.8614950" lon="-3.9892720">
        <ele>475.2</ele>
        <time>2019-07-08T06:41:02Z</time>
      </trkpt>
      <trkpt lat="39.8615630" lon="-3.9891580">
        <ele>475.0</ele>
        <time>2019-07-08T06:41:06Z</time>
      </trkpt>
      <trkpt lat="39.8616260" lon="-3.9890160">
        <ele>474.8</ele>
        <time>2019-07-08T06:41:11Z</time>
      </trkpt>
      <trkpt lat="39.8616440" lon="-3.9890060">
        <ele>474.6</ele>
        <time>2019-07-08T06:41:12Z</time>
      </trkpt>
      <trkpt lat="39.8617040" lon="-3.9890020">
        <ele>474.2</ele>
        <time>2019-07-08T06:41:15Z</time>
      </trkpt>
      <trkpt lat="39.8617480" lon="-3.9889840">
        <ele>474.0</ele>
        <time>2019-07-08T06:41:17Z</time>
      </trkpt>
      <trkpt lat="39.8617810" lon="-3.9888580">
        <ele>473.6</ele>
        <time>2019-07-08T06:41:21Z</time>
      </trkpt>
      <trkpt lat="39.8617920" lon="-3.9888240">
        <ele>473.6</ele>
        <time>2019-07-08T06:41:22Z</time>
      </trkpt>
      <trkpt lat="39.8618620" lon="-3.9886080">
        <ele>473.8</ele>
        <time>2019-07-08T06:41:28Z</time>
      </trkpt>
      <trkpt lat="39.8619070" lon="-3.9885030">
        <ele>473.8</ele>
        <time>2019-07-08T06:41:32Z</time>
      </trkpt>
      <trkpt lat="39.8619470" lon="-3.9884860">
        <ele>474.0</ele>
        <time>2019-07-08T06:41:34Z</time>
      </trkpt>
      <trkpt lat="39.8619830" lon="-3.9884730">
        <ele>473.6</ele>
        <time>2019-07-08T06:41:38Z</time>
      </trkpt>
      <trkpt lat="39.8620190" lon="-3.9885210">
        <ele>473.4</ele>
        <time>2019-07-08T06:41:51Z</time>
      </trkpt>
      <trkpt lat="39.8620150" lon="-3.9885440">
        <ele>473.4</ele>
        <time>2019-07-08T06:41:52Z</time>
      </trkpt>
      <trkpt lat="39.8619840" lon="-3.9886670">
        <ele>473.8</ele>
        <time>2019-07-08T06:41:56Z</time>
      </trkpt>
      <trkpt lat="39.8619430" lon="-3.9888380">
        <ele>474.0</ele>
        <time>2019-07-08T06:42:00Z</time>
      </trkpt>
      <trkpt lat="39.8619120" lon="-3.9889740">
        <ele>474.0</ele>
        <time>2019-07-08T06:42:03Z</time>
      </trkpt>
      <trkpt lat="39.8618450" lon="-3.9892140">
        <ele>473.8</ele>
        <time>2019-07-08T06:42:08Z</time>
      </trkpt>
      <trkpt lat="39.8618270" lon="-3.9893060">
        <ele>473.8</ele>
        <time>2019-07-08T06:42:10Z</time>
      </trkpt>
      <trkpt lat="39.8617470" lon="-3.9896760">
        <ele>474.2</ele>
        <time>2019-07-08T06:42:18Z</time>
      </trkpt>
      <trkpt lat="39.8616690" lon="-3.9900800">
        <ele>474.0</ele>
        <time>2019-07-08T06:42:26Z</time>
      </trkpt>
      <trkpt lat="39.8616470" lon="-3.9904340">
        <ele>474.4</ele>
        <time>2019-07-08T06:42:33Z</time>
      </trkpt>
      <trkpt lat="39.8616470" lon="-3.9905780">
        <ele>474.6</ele>
        <time>2019-07-08T06:42:36Z</time>
      </trkpt>
      <trkpt lat="39.8616270" lon="-3.9908140">
        <ele>474.8</ele>
        <time>2019-07-08T06:42:41Z</time>
      </trkpt>
      <trkpt lat="39.8616050" lon="-3.9912170">
        <ele>475.2</ele>
        <time>2019-07-08T06:42:49Z</time>
      </trkpt>
      <trkpt lat="39.8616010" lon="-3.9913770">
        <ele>475.4</ele>
        <time>2019-07-08T06:42:52Z</time>
      </trkpt>
      <trkpt lat="39.8616030" lon="-3.9914860">
        <ele>475.6</ele>
        <time>2019-07-08T06:42:54Z</time>
      </trkpt>
      <trkpt lat="39.8616160" lon="-3.9915920">
        <ele>475.4</ele>
        <time>2019-07-08T06:42:56Z</time>
      </trkpt>
      <trkpt lat="39.8616430" lon="-3.9917560">
        <ele>475.4</ele>
        <time>2019-07-08T06:42:59Z</time>
      </trkpt>
      <trkpt lat="39.8617000" lon="-3.9920290">
        <ele>475.6</ele>
        <time>2019-07-08T06:43:04Z</time>
      </trkpt>
      <trkpt lat="39.8617140" lon="-3.9920800">
        <ele>475.6</ele>
        <time>2019-07-08T06:43:05Z</time>
      </trkpt>
      <trkpt lat="39.8618040" lon="-3.9922540">
        <ele>476.0</ele>
        <time>2019-07-08T06:43:09Z</time>
      </trkpt>
      <trkpt lat="39.8618690" lon="-3.9923110">
        <ele>476.6</ele>
        <time>2019-07-08T06:43:11Z</time>
      </trkpt>
      <trkpt lat="39.8619800" lon="-3.9923490">
        <ele>477.4</ele>
        <time>2019-07-08T06:43:14Z</time>
      </trkpt>
      <trkpt lat="39.8620170" lon="-3.9923510">
        <ele>477.6</ele>
        <time>2019-07-08T06:43:15Z</time>
      </trkpt>
      <trkpt lat="39.8620520" lon="-3.9923500">
        <ele>477.8</ele>
        <time>2019-07-08T06:43:16Z</time>
      </trkpt>
      <trkpt lat="39.8621980" lon="-3.9923380">
        <ele>478.4</ele>
        <time>2019-07-08T06:43:20Z</time>
      </trkpt>
      <trkpt lat="39.8622380" lon="-3.9923350">
        <ele>478.4</ele>
        <time>2019-07-08T06:43:21Z</time>
      </trkpt>
      <trkpt lat="39.8623190" lon="-3.9923260">
        <ele>478.6</ele>
        <time>2019-07-08T06:43:23Z</time>
      </trkpt>
      <trkpt lat="39.8625760" lon="-3.9922910">
        <ele>479.2</ele>
        <time>2019-07-08T06:43:29Z</time>
      </trkpt>
      <trkpt lat="39.8628300" lon="-3.9922630">
        <ele>478.8</ele>
        <time>2019-07-08T06:43:34Z</time>
      </trkpt>
      <trkpt lat="39.8629380" lon="-3.9922480">
        <ele>478.6</ele>
        <time>2019-07-08T06:43:36Z</time>
      </trkpt>
      <trkpt lat="39.8629950" lon="-3.9922390">
        <ele>478.4</ele>
        <time>2019-07-08T06:43:37Z</time>
      </trkpt>
      <trkpt lat="39.8631840" lon="-3.9922190">
        <ele>477.4</ele>
        <time>2019-07-08T06:43:40Z</time>
      </trkpt>
      <trkpt lat="39.8633270" lon="-3.9922020">
        <ele>476.2</ele>
        <time>2019-07-08T06:43:42Z</time>
      </trkpt>
      <trkpt lat="39.8635430" lon="-3.9921730">
        <ele>474.8</ele>
        <time>2019-07-08T06:43:45Z</time>
      </trkpt>
      <trkpt lat="39.8636890" lon="-3.9921560">
        <ele>474.0</ele>
        <time>2019-07-08T06:43:47Z</time>
      </trkpt>
      <trkpt lat="39.8637660" lon="-3.9921420">
        <ele>473.6</ele>
        <time>2019-07-08T06:43:48Z</time>
      </trkpt>
      <trkpt lat="39.8639200" lon="-3.9921290">
        <ele>472.0</ele>
        <time>2019-07-08T06:43:50Z</time>
      </trkpt>
      <trkpt lat="39.8640740" lon="-3.9921700">
        <ele>470.4</ele>
        <time>2019-07-08T06:43:52Z</time>
      </trkpt>
      <trkpt lat="39.8642910" lon="-3.9923170">
        <ele>469.4</ele>
        <time>2019-07-08T06:43:55Z</time>
      </trkpt>
      <trkpt lat="39.8643550" lon="-3.9923780">
        <ele>468.8</ele>
        <time>2019-07-08T06:43:56Z</time>
      </trkpt>
      <trkpt lat="39.8644150" lon="-3.9924410">
        <ele>468.4</ele>
        <time>2019-07-08T06:43:57Z</time>
      </trkpt>
      <trkpt lat="39.8644750" lon="-3.9925010">
        <ele>468.2</ele>
        <time>2019-07-08T06:43:58Z</time>
      </trkpt>
      <trkpt lat="39.8646910" lon="-3.9927180">
        <ele>467.2</ele>
        <time>2019-07-08T06:44:02Z</time>
      </trkpt>
      <trkpt lat="39.8649660" lon="-3.9929790">
        <ele>466.8</ele>
        <time>2019-07-08T06:44:08Z</time>
      </trkpt>
      <trkpt lat="39.8650930" lon="-3.9931070">
        <ele>466.4</ele>
        <time>2019-07-08T06:44:11Z</time>
      </trkpt>
      <trkpt lat="39.8653490" lon="-3.9933580">
        <ele>466.6</ele>
        <time>2019-07-08T06:44:17Z</time>
      </trkpt>
      <trkpt lat="39.8654810" lon="-3.9934650">
        <ele>466.4</ele>
        <time>2019-07-08T06:44:20Z</time>
      </trkpt>
      <trkpt lat="39.8655620" lon="-3.9935430">
        <ele>466.6</ele>
        <time>2019-07-08T06:44:22Z</time>
      </trkpt>
      <trkpt lat="39.8656050" lon="-3.9935740">
        <ele>466.6</ele>
        <time>2019-07-08T06:44:23Z</time>
      </trkpt>
      <trkpt lat="39.8658020" lon="-3.9937490">
        <ele>467.0</ele>
        <time>2019-07-08T06:44:28Z</time>
      </trkpt>
      <trkpt lat="39.8658800" lon="-3.9938220">
        <ele>467.2</ele>
        <time>2019-07-08T06:44:30Z</time>
      </trkpt>
      <trkpt lat="39.8660000" lon="-3.9939310">
        <ele>467.6</ele>
        <time>2019-07-08T06:44:33Z</time>
      </trkpt>
      <trkpt lat="39.8661640" lon="-3.9940660">
        <ele>467.6</ele>
        <time>2019-07-08T06:44:37Z</time>
      </trkpt>
      <trkpt lat="39.8662410" lon="-3.9941370">
        <ele>467.0</ele>
        <time>2019-07-08T06:44:39Z</time>
      </trkpt>
      <trkpt lat="39.8663590" lon="-3.9942210">
        <ele>466.6</ele>
        <time>2019-07-08T06:44:42Z</time>
      </trkpt>
      <trkpt lat="39.8663970" lon="-3.9942420">
        <ele>466.6</ele>
        <time>2019-07-08T06:44:43Z</time>
      </trkpt>
      <trkpt lat="39.8665500" lon="-3.9943390">
        <ele>466.4</ele>
        <time>2019-07-08T06:44:47Z</time>
      </trkpt>
      <trkpt lat="39.8665900" lon="-3.9943590">
        <ele>466.4</ele>
        <time>2019-07-08T06:44:48Z</time>
      </trkpt>
      <trkpt lat="39.8667120" lon="-3.9944310">
        <ele>465.8</ele>
        <time>2019-07-08T06:44:51Z</time>
      </trkpt>
      <trkpt lat="39.8668320" lon="-3.9945130">
        <ele>466.0</ele>
        <time>2019-07-08T06:44:54Z</time>
      </trkpt>
      <trkpt lat="39.8669110" lon="-3.9945600">
        <ele>466.0</ele>
        <time>2019-07-08T06:44:56Z</time>
      </trkpt>
      <trkpt lat="39.8669870" lon="-3.9945930">
        <ele>466.2</ele>
        <time>2019-07-08T06:44:58Z</time>
      </trkpt>
      <trkpt lat="39.8670580" lon="-3.9946230">
        <ele>466.4</ele>
        <time>2019-07-08T06:45:00Z</time>
      </trkpt>
      <trkpt lat="39.8672870" lon="-3.9947620">
        <ele>466.4</ele>
        <time>2019-07-08T06:45:07Z</time>
      </trkpt>
      <trkpt lat="39.8673630" lon="-3.9947820">
        <ele>466.4</ele>
        <time>2019-07-08T06:45:10Z</time>
      </trkpt>
      <trkpt lat="39.8673690" lon="-3.9947830">
        <ele>466.4</ele>
        <time>2019-07-08T06:45:11Z</time>
      </trkpt>
      <trkpt lat="39.8673690" lon="-3.9947830">
        <ele>466.4</ele>
        <time>2019-07-08T06:45:12Z</time>
      </trkpt>
      <trkpt lat="39.8674100" lon="-3.9947950">
        <ele>466.4</ele>
        <time>2019-07-08T06:45:32Z</time>
      </trkpt>
      <trkpt lat="39.8674330" lon="-3.9947960">
        <ele>466.4</ele>
        <time>2019-07-08T06:45:33Z</time>
      </trkpt>
      <trkpt lat="39.8674590" lon="-3.9947950">
        <ele>466.6</ele>
        <time>2019-07-08T06:45:34Z</time>
      </trkpt>
      <trkpt lat="39.8675130" lon="-3.9947780">
        <ele>466.6</ele>
        <time>2019-07-08T06:45:36Z</time>
      </trkpt>
      <trkpt lat="39.8675400" lon="-3.9947640">
        <ele>466.8</ele>
        <time>2019-07-08T06:45:37Z</time>
      </trkpt>
      <trkpt lat="39.8675920" lon="-3.9947350">
        <ele>467.6</ele>
        <time>2019-07-08T06:45:39Z</time>
      </trkpt>
      <trkpt lat="39.8676190" lon="-3.9947260">
        <ele>467.8</ele>
        <time>2019-07-08T06:45:40Z</time>
      </trkpt>
      <trkpt lat="39.8676990" lon="-3.9947020">
        <ele>468.8</ele>
        <time>2019-07-08T06:45:43Z</time>
      </trkpt>
      <trkpt lat="39.8677510" lon="-3.9946630">
        <ele>469.2</ele>
        <time>2019-07-08T06:45:45Z</time>
      </trkpt>
      <trkpt lat="39.8679340" lon="-3.9945230">
        <ele>469.8</ele>
        <time>2019-07-08T06:45:51Z</time>
      </trkpt>
      <trkpt lat="39.8681350" lon="-3.9943560">
        <ele>470.0</ele>
        <time>2019-07-08T06:45:57Z</time>
      </trkpt>
      <trkpt lat="39.8681700" lon="-3.9943320">
        <ele>470.0</ele>
        <time>2019-07-08T06:45:58Z</time>
      </trkpt>
      <trkpt lat="39.8683450" lon="-3.9942000">
        <ele>469.8</ele>
        <time>2019-07-08T06:46:04Z</time>
      </trkpt>
      <trkpt lat="39.8683680" lon="-3.9941820">
        <ele>470.0</ele>
        <time>2019-07-08T06:46:07Z</time>
      </trkpt>
      <trkpt lat="39.8684050" lon="-3.9941520">
        <ele>469.8</ele>
        <time>2019-07-08T06:47:05Z</time>
      </trkpt>
      <trkpt lat="39.8684210" lon="-3.9941380">
        <ele>469.8</ele>
        <time>2019-07-08T06:47:06Z</time>
      </trkpt>
      <trkpt lat="39.8684610" lon="-3.9941030">
        <ele>469.8</ele>
        <time>2019-07-08T06:47:08Z</time>
      </trkpt>
      <trkpt lat="39.8685170" lon="-3.9940640">
        <ele>469.8</ele>
        <time>2019-07-08T06:47:10Z</time>
      </trkpt>
      <trkpt lat="39.8686180" lon="-3.9939980">
        <ele>469.8</ele>
        <time>2019-07-08T06:47:13Z</time>
      </trkpt>
      <trkpt lat="39.8687250" lon="-3.9939340">
        <ele>469.8</ele>
        <time>2019-07-08T06:47:16Z</time>
      </trkpt>
      <trkpt lat="39.8687630" lon="-3.9939170">
        <ele>470.0</ele>
        <time>2019-07-08T06:47:17Z</time>
      </trkpt>
      <trkpt lat="39.8688700" lon="-3.9938440">
        <ele>470.4</ele>
        <time>2019-07-08T06:47:20Z</time>
      </trkpt>
      <trkpt lat="39.8689770" lon="-3.9937430">
        <ele>470.4</ele>
        <time>2019-07-08T06:47:23Z</time>
      </trkpt>
      <trkpt lat="39.8690160" lon="-3.9937120">
        <ele>470.4</ele>
        <time>2019-07-08T06:47:24Z</time>
      </trkpt>
      <trkpt lat="39.8691800" lon="-3.9936080">
        <ele>470.4</ele>
        <time>2019-07-08T06:47:28Z</time>
      </trkpt>
      <trkpt lat="39.8692590" lon="-3.9935590">
        <ele>470.6</ele>
        <time>2019-07-08T06:47:30Z</time>
      </trkpt>
      <trkpt lat="39.8693730" lon="-3.9934710">
        <ele>470.6</ele>
        <time>2019-07-08T06:47:33Z</time>
      </trkpt>
      <trkpt lat="39.8694920" lon="-3.9933820">
        <ele>470.6</ele>
        <time>2019-07-08T06:47:36Z</time>
      </trkpt>
      <trkpt lat="39.8695720" lon="-3.9933160">
        <ele>470.8</ele>
        <time>2019-07-08T06:47:38Z</time>
      </trkpt>
      <trkpt lat="39.8696140" lon="-3.9932880">
        <ele>470.8</ele>
        <time>2019-07-08T06:47:39Z</time>
      </trkpt>
      <trkpt lat="39.8697360" lon="-3.9931990">
        <ele>470.8</ele>
        <time>2019-07-08T06:47:42Z</time>
      </trkpt>
      <trkpt lat="39.8699000" lon="-3.9930820">
        <ele>471.0</ele>
        <time>2019-07-08T06:47:46Z</time>
      </trkpt>
      <trkpt lat="39.8700280" lon="-3.9929690">
        <ele>471.4</ele>
        <time>2019-07-08T06:47:49Z</time>
      </trkpt>
      <trkpt lat="39.8703360" lon="-3.9927290">
        <ele>471.0</ele>
        <time>2019-07-08T06:47:56Z</time>
      </trkpt>
      <trkpt lat="39.8706740" lon="-3.9924920">
        <ele>471.4</ele>
        <time>2019-07-08T06:48:04Z</time>
      </trkpt>
      <trkpt lat="39.8708000" lon="-3.9923940">
        <ele>471.8</ele>
        <time>2019-07-08T06:48:07Z</time>
      </trkpt>
      <trkpt lat="39.8710080" lon="-3.9922250">
        <ele>471.6</ele>
        <time>2019-07-08T06:48:12Z</time>
      </trkpt>
      <trkpt lat="39.8710930" lon="-3.9921570">
        <ele>471.6</ele>
        <time>2019-07-08T06:48:14Z</time>
      </trkpt>
      <trkpt lat="39.8712320" lon="-3.9920810">
        <ele>471.8</ele>
        <time>2019-07-08T06:48:17Z</time>
      </trkpt>
      <trkpt lat="39.8712770" lon="-3.9920530">
        <ele>472.0</ele>
        <time>2019-07-08T06:48:18Z</time>
      </trkpt>
      <trkpt lat="39.8713930" lon="-3.9919820">
        <ele>472.0</ele>
        <time>2019-07-08T06:48:22Z</time>
      </trkpt>
      <trkpt lat="39.8714000" lon="-3.9919720">
        <ele>472.0</ele>
        <time>2019-07-08T06:48:26Z</time>
      </trkpt>
      <trkpt lat="39.8714150" lon="-3.9919270">
        <ele>471.8</ele>
        <time>2019-07-08T06:48:29Z</time>
      </trkpt>
      <trkpt lat="39.8714510" lon="-3.9918660">
        <ele>471.4</ele>
        <time>2019-07-08T06:48:31Z</time>
      </trkpt>
      <trkpt lat="39.8714760" lon="-3.9918310">
        <ele>471.2</ele>
        <time>2019-07-08T06:48:32Z</time>
      </trkpt>
      <trkpt lat="39.8715080" lon="-3.9917870">
        <ele>470.4</ele>
        <time>2019-07-08T06:48:33Z</time>
      </trkpt>
      <trkpt lat="39.8715850" lon="-3.9916800">
        <ele>469.2</ele>
        <time>2019-07-08T06:48:35Z</time>
      </trkpt>
      <trkpt lat="39.8716320" lon="-3.9915610">
        <ele>468.2</ele>
        <time>2019-07-08T06:48:38Z</time>
      </trkpt>
      <trkpt lat="39.8716060" lon="-3.9913800">
        <ele>468.2</ele>
        <time>2019-07-08T06:48:42Z</time>
      </trkpt>
      <trkpt lat="39.8715920" lon="-3.9913200">
        <ele>468.0</ele>
        <time>2019-07-08T06:48:43Z</time>
      </trkpt>
      <trkpt lat="39.8715120" lon="-3.9909980">
        <ele>467.4</ele>
        <time>2019-07-08T06:48:48Z</time>
      </trkpt>
      <trkpt lat="39.8713580" lon="-3.9905620">
        <ele>467.2</ele>
        <time>2019-07-08T06:48:55Z</time>
      </trkpt>
      <trkpt lat="39.8711050" lon="-3.9900260">
        <ele>467.4</ele>
        <time>2019-07-08T06:49:04Z</time>
      </trkpt>
      <trkpt lat="39.8710510" lon="-3.9899010">
        <ele>467.4</ele>
        <time>2019-07-08T06:49:06Z</time>
      </trkpt>
      <trkpt lat="39.8709740" lon="-3.9896380">
        <ele>467.0</ele>
        <time>2019-07-08T06:49:10Z</time>
      </trkpt>
      <trkpt lat="39.8709190" lon="-3.9893740">
        <ele>466.8</ele>
        <time>2019-07-08T06:49:14Z</time>
      </trkpt>
      <trkpt lat="39.8708670" lon="-3.9891840">
        <ele>466.8</ele>
        <time>2019-07-08T06:49:17Z</time>
      </trkpt>
      <trkpt lat="39.8707530" lon="-3.9887420">
        <ele>467.0</ele>
        <time>2019-07-08T06:49:24Z</time>
      </trkpt>
      <trkpt lat="39.8706800" lon="-3.9884830">
        <ele>467.2</ele>
        <time>2019-07-08T06:49:28Z</time>
      </trkpt>
      <trkpt lat="39.8706290" lon="-3.9883640">
        <ele>467.2</ele>
        <time>2019-07-08T06:49:30Z</time>
      </trkpt>
      <trkpt lat="39.8705680" lon="-3.9881760">
        <ele>467.6</ele>
        <time>2019-07-08T06:49:33Z</time>
      </trkpt>
      <trkpt lat="39.8705600" lon="-3.9880390">
        <ele>467.4</ele>
        <time>2019-07-08T06:49:35Z</time>
      </trkpt>
      <trkpt lat="39.8706190" lon="-3.9878290">
        <ele>467.0</ele>
        <time>2019-07-08T06:49:38Z</time>
      </trkpt>
      <trkpt lat="39.8706450" lon="-3.9877560">
        <ele>466.8</ele>
        <time>2019-07-08T06:49:39Z</time>
      </trkpt>
      <trkpt lat="39.8708000" lon="-3.9872600">
        <ele>466.6</ele>
        <time>2019-07-08T06:49:46Z</time>
      </trkpt>
      <trkpt lat="39.8709290" lon="-3.9868770">
        <ele>466.4</ele>
        <time>2019-07-08T06:49:52Z</time>
      </trkpt>
      <trkpt lat="39.8710710" lon="-3.9865460">
        <ele>466.6</ele>
        <time>2019-07-08T06:49:58Z</time>
      </trkpt>
      <trkpt lat="39.8711430" lon="-3.9864010">
        <ele>466.4</ele>
        <time>2019-07-08T06:50:02Z</time>
      </trkpt>
      <trkpt lat="39.8711800" lon="-3.9863550">
        <ele>466.2</ele>
        <time>2019-07-08T06:50:06Z</time>
      </trkpt>
      <trkpt lat="39.8711590" lon="-3.9863950">
        <ele>466.2</ele>
        <time>2019-07-08T06:50:39Z</time>
      </trkpt>
      <trkpt lat="39.8711040" lon="-3.9865140">
        <ele>466.4</ele>
        <time>2019-07-08T06:50:43Z</time>
      </trkpt>
      <trkpt lat="39.8710850" lon="-3.9865550">
        <ele>466.4</ele>
        <time>2019-07-08T06:50:44Z</time>
      </trkpt>
      <trkpt lat="39.8709170" lon="-3.9869300">
        <ele>466.6</ele>
        <time>2019-07-08T06:50:52Z</time>
      </trkpt>
      <trkpt lat="39.8708440" lon="-3.9870880">
        <ele>466.4</ele>
        <time>2019-07-08T06:50:55Z</time>
      </trkpt>
      <trkpt lat="39.8707880" lon="-3.9872750">
        <ele>466.4</ele>
        <time>2019-07-08T06:50:58Z</time>
      </trkpt>
      <trkpt lat="39.8707330" lon="-3.9874670">
        <ele>466.4</ele>
        <time>2019-07-08T06:51:01Z</time>
      </trkpt>
      <trkpt lat="39.8706320" lon="-3.9877820">
        <ele>466.6</ele>
        <time>2019-07-08T06:51:06Z</time>
      </trkpt>
      <trkpt lat="39.8705720" lon="-3.9879570">
        <ele>466.6</ele>
        <time>2019-07-08T06:51:09Z</time>
      </trkpt>
      <trkpt lat="39.8705690" lon="-3.9881250">
        <ele>467.2</ele>
        <time>2019-07-08T06:51:12Z</time>
      </trkpt>
      <trkpt lat="39.8706040" lon="-3.9882320">
        <ele>467.4</ele>
        <time>2019-07-08T06:51:14Z</time>
      </trkpt>
      <trkpt lat="39.8706720" lon="-3.9883920">
        <ele>467.4</ele>
        <time>2019-07-08T06:51:17Z</time>
      </trkpt>
      <trkpt lat="39.8707280" lon="-3.9885730">
        <ele>467.6</ele>
        <time>2019-07-08T06:51:20Z</time>
      </trkpt>
      <trkpt lat="39.8707560" lon="-3.9886980">
        <ele>467.6</ele>
        <time>2019-07-08T06:51:22Z</time>
      </trkpt>
      <trkpt lat="39.8707710" lon="-3.9887570">
        <ele>467.8</ele>
        <time>2019-07-08T06:51:23Z</time>
      </trkpt>
      <trkpt lat="39.8708680" lon="-3.9890900">
        <ele>467.2</ele>
        <time>2019-07-08T06:51:29Z</time>
      </trkpt>
      <trkpt lat="39.8709480" lon="-3.9894520">
        <ele>467.2</ele>
        <time>2019-07-08T06:51:35Z</time>
      </trkpt>
      <trkpt lat="39.8710830" lon="-3.9899480">
        <ele>467.2</ele>
        <time>2019-07-08T06:51:43Z</time>
      </trkpt>
      <trkpt lat="39.8712880" lon="-3.9903940">
        <ele>467.0</ele>
        <time>2019-07-08T06:51:51Z</time>
      </trkpt>
      <trkpt lat="39.8714710" lon="-3.9908780">
        <ele>467.0</ele>
        <time>2019-07-08T06:51:59Z</time>
      </trkpt>
      <trkpt lat="39.8715180" lon="-3.9910580">
        <ele>467.0</ele>
        <time>2019-07-08T06:52:02Z</time>
      </trkpt>
      <trkpt lat="39.8715720" lon="-3.9913100">
        <ele>467.0</ele>
        <time>2019-07-08T06:52:06Z</time>
      </trkpt>
      <trkpt lat="39.8716190" lon="-3.9916060">
        <ele>467.4</ele>
        <time>2019-07-08T06:52:11Z</time>
      </trkpt>
      <trkpt lat="39.8716350" lon="-3.9916600">
        <ele>467.6</ele>
        <time>2019-07-08T06:52:12Z</time>
      </trkpt>
      <trkpt lat="39.8717680" lon="-3.9919670">
        <ele>467.2</ele>
        <time>2019-07-08T06:52:17Z</time>
      </trkpt>
      <trkpt lat="39.8719250" lon="-3.9923370">
        <ele>466.8</ele>
        <time>2019-07-08T06:52:23Z</time>
      </trkpt>
      <trkpt lat="39.8721010" lon="-3.9927570">
        <ele>466.6</ele>
        <time>2019-07-08T06:52:30Z</time>
      </trkpt>
      <trkpt lat="39.8723430" lon="-3.9933490">
        <ele>466.8</ele>
        <time>2019-07-08T06:52:40Z</time>
      </trkpt>
      <trkpt lat="39.8724410" lon="-3.9935870">
        <ele>466.6</ele>
        <time>2019-07-08T06:52:44Z</time>
      </trkpt>
      <trkpt lat="39.8724870" lon="-3.9937080">
        <ele>466.4</ele>
        <time>2019-07-08T06:52:46Z</time>
      </trkpt>
      <trkpt lat="39.8725770" lon="-3.9939470">
        <ele>466.6</ele>
        <time>2019-07-08T06:52:50Z</time>
      </trkpt>
      <trkpt lat="39.8728490" lon="-3.9945280">
        <ele>466.0</ele>
        <time>2019-07-08T06:53:00Z</time>
      </trkpt>
      <trkpt lat="39.8730600" lon="-3.9949140">
        <ele>466.0</ele>
        <time>2019-07-08T06:53:07Z</time>
      </trkpt>
      <trkpt lat="39.8733170" lon="-3.9953110">
        <ele>466.2</ele>
        <time>2019-07-08T06:53:15Z</time>
      </trkpt>
      <trkpt lat="39.8733860" lon="-3.9954060">
        <ele>466.2</ele>
        <time>2019-07-08T06:53:17Z</time>
      </trkpt>
      <trkpt lat="39.8736170" lon="-3.9957370">
        <ele>466.4</ele>
        <time>2019-07-08T06:53:24Z</time>
      </trkpt>
      <trkpt lat="39.8736770" lon="-3.9958360">
        <ele>466.2</ele>
        <time>2019-07-08T06:53:26Z</time>
      </trkpt>
      <trkpt lat="39.8737820" lon="-3.9960480">
        <ele>466.4</ele>
        <time>2019-07-08T06:53:30Z</time>
      </trkpt>
      <trkpt lat="39.8738990" lon="-3.9963840">
        <ele>466.4</ele>
        <time>2019-07-08T06:53:36Z</time>
      </trkpt>
      <trkpt lat="39.8739980" lon="-3.9968030">
        <ele>466.2</ele>
        <time>2019-07-08T06:53:43Z</time>
      </trkpt>
      <trkpt lat="39.8740200" lon="-3.9969270">
        <ele>466.2</ele>
        <time>2019-07-08T06:53:45Z</time>
      </trkpt>
      <trkpt lat="39.8740180" lon="-3.9971260">
        <ele>466.2</ele>
        <time>2019-07-08T06:53:48Z</time>
      </trkpt>
      <trkpt lat="39.8740110" lon="-3.9971920">
        <ele>466.2</ele>
        <time>2019-07-08T06:53:49Z</time>
      </trkpt>
      <trkpt lat="39.8739630" lon="-3.9976650">
        <ele>466.0</ele>
        <time>2019-07-08T06:53:56Z</time>
      </trkpt>
      <trkpt lat="39.8738820" lon="-3.9981850">
        <ele>466.0</ele>
        <time>2019-07-08T06:54:04Z</time>
      </trkpt>
      <trkpt lat="39.8736830" lon="-3.9987670">
        <ele>466.0</ele>
        <time>2019-07-08T06:54:13Z</time>
      </trkpt>
      <trkpt lat="39.8734490" lon="-3.9992590">
        <ele>465.8</ele>
        <time>2019-07-08T06:54:21Z</time>
      </trkpt>
      <trkpt lat="39.8732400" lon="-3.9995900">
        <ele>465.8</ele>
        <time>2019-07-08T06:54:27Z</time>
      </trkpt>
      <trkpt lat="39.8731610" lon="-3.9996870">
        <ele>465.8</ele>
        <time>2019-07-08T06:54:29Z</time>
      </trkpt>
      <trkpt lat="39.8727590" lon="-4.0001480">
        <ele>465.8</ele>
        <time>2019-07-08T06:54:39Z</time>
      </trkpt>
      <trkpt lat="39.8723230" lon="-4.0005390">
        <ele>466.0</ele>
        <time>2019-07-08T06:54:49Z</time>
      </trkpt>
      <trkpt lat="39.8722330" lon="-4.0006220">
        <ele>466.0</ele>
        <time>2019-07-08T06:54:51Z</time>
      </trkpt>
      <trkpt lat="39.8720810" lon="-4.0007060">
        <ele>465.8</ele>
        <time>2019-07-08T06:54:54Z</time>
      </trkpt>
      <trkpt lat="39.8720280" lon="-4.0007250">
        <ele>465.8</ele>
        <time>2019-07-08T06:54:55Z</time>
      </trkpt>
      <trkpt lat="39.8716570" lon="-4.0008370">
        <ele>465.8</ele>
        <time>2019-07-08T06:55:02Z</time>
      </trkpt>
      <trkpt lat="39.8712260" lon="-4.0009540">
        <ele>465.6</ele>
        <time>2019-07-08T06:55:10Z</time>
      </trkpt>
      <trkpt lat="39.8710590" lon="-4.0009710">
        <ele>465.8</ele>
        <time>2019-07-08T06:55:13Z</time>
      </trkpt>
      <trkpt lat="39.8708360" lon="-4.0009600">
        <ele>465.6</ele>
        <time>2019-07-08T06:55:17Z</time>
      </trkpt>
      <trkpt lat="39.8704460" lon="-4.0009110">
        <ele>465.8</ele>
        <time>2019-07-08T06:55:24Z</time>
      </trkpt>
      <trkpt lat="39.8700610" lon="-4.0007870">
        <ele>465.4</ele>
        <time>2019-07-08T06:55:31Z</time>
      </trkpt>
      <trkpt lat="39.8696350" lon="-4.0005750">
        <ele>466.0</ele>
        <time>2019-07-08T06:55:39Z</time>
      </trkpt>
      <trkpt lat="39.8692130" lon="-4.0003240">
        <ele>465.6</ele>
        <time>2019-07-08T06:55:47Z</time>
      </trkpt>
      <trkpt lat="39.8687760" lon="-3.9999780">
        <ele>465.6</ele>
        <time>2019-07-08T06:55:56Z</time>
      </trkpt>
      <trkpt lat="39.8682890" lon="-3.9995950">
        <ele>465.4</ele>
        <time>2019-07-08T06:56:06Z</time>
      </trkpt>
      <trkpt lat="39.8681500" lon="-3.9994630">
        <ele>465.0</ele>
        <time>2019-07-08T06:56:09Z</time>
      </trkpt>
      <trkpt lat="39.8680190" lon="-3.9993150">
        <ele>465.0</ele>
        <time>2019-07-08T06:56:12Z</time>
      </trkpt>
      <trkpt lat="39.8679270" lon="-3.9992220">
        <ele>465.2</ele>
        <time>2019-07-08T06:56:14Z</time>
      </trkpt>
      <trkpt lat="39.8677350" lon="-3.9990590">
        <ele>465.2</ele>
        <time>2019-07-08T06:56:18Z</time>
      </trkpt>
      <trkpt lat="39.8672560" lon="-3.9986750">
        <ele>465.0</ele>
        <time>2019-07-08T06:56:28Z</time>
      </trkpt>
      <trkpt lat="39.8671610" lon="-3.9985990">
        <ele>465.0</ele>
        <time>2019-07-08T06:56:30Z</time>
      </trkpt>
      <trkpt lat="39.8669660" lon="-3.9984760">
        <ele>465.4</ele>
        <time>2019-07-08T06:56:34Z</time>
      </trkpt>
      <trkpt lat="39.8666030" lon="-3.9982920">
        <ele>465.6</ele>
        <time>2019-07-08T06:56:41Z</time>
      </trkpt>
      <trkpt lat="39.8664960" lon="-3.9982580">
        <ele>465.6</ele>
        <time>2019-07-08T06:56:43Z</time>
      </trkpt>
      <trkpt lat="39.8662770" lon="-3.9982300">
        <ele>465.6</ele>
        <time>2019-07-08T06:56:47Z</time>
      </trkpt>
      <trkpt lat="39.8659470" lon="-3.9982670">
        <ele>465.6</ele>
        <time>2019-07-08T06:56:53Z</time>
      </trkpt>
      <trkpt lat="39.8655610" lon="-3.9983670">
        <ele>465.8</ele>
        <time>2019-07-08T06:57:00Z</time>
      </trkpt>
      <trkpt lat="39.8655030" lon="-3.9983820">
        <ele>465.8</ele>
        <time>2019-07-08T06:57:01Z</time>
      </trkpt>
      <trkpt lat="39.8651020" lon="-3.9984350">
        <ele>465.6</ele>
        <time>2019-07-08T06:57:08Z</time>
      </trkpt>
      <trkpt lat="39.8650490" lon="-3.9984410">
        <ele>465.6</ele>
        <time>2019-07-08T06:57:09Z</time>
      </trkpt>
      <trkpt lat="39.8649330" lon="-3.9985150">
        <ele>466.0</ele>
        <time>2019-07-08T06:57:12Z</time>
      </trkpt>
      <trkpt lat="39.8649000" lon="-3.9985530">
        <ele>466.0</ele>
        <time>2019-07-08T06:57:13Z</time>
      </trkpt>
      <trkpt lat="39.8647910" lon="-3.9987160">
        <ele>466.4</ele>
        <time>2019-07-08T06:57:17Z</time>
      </trkpt>
      <trkpt lat="39.8646860" lon="-3.9988640">
        <ele>465.8</ele>
        <time>2019-07-08T06:57:20Z</time>
      </trkpt>
      <trkpt lat="39.8645700" lon="-3.9990410">
        <ele>465.6</ele>
        <time>2019-07-08T06:57:23Z</time>
      </trkpt>
      <trkpt lat="39.8644520" lon="-3.9992110">
        <ele>465.4</ele>
        <time>2019-07-08T06:57:26Z</time>
      </trkpt>
      <trkpt lat="39.8642800" lon="-3.9994240">
        <ele>465.2</ele>
        <time>2019-07-08T06:57:30Z</time>
      </trkpt>
      <trkpt lat="39.8642430" lon="-3.9994840">
        <ele>465.0</ele>
        <time>2019-07-08T06:57:31Z</time>
      </trkpt>
      <trkpt lat="39.8641850" lon="-3.9997020">
        <ele>465.0</ele>
        <time>2019-07-08T06:57:34Z</time>
      </trkpt>
      <trkpt lat="39.8641780" lon="-3.9997760">
        <ele>465.0</ele>
        <time>2019-07-08T06:57:35Z</time>
      </trkpt>
      <trkpt lat="39.8641290" lon="-4.0001410">
        <ele>465.2</ele>
        <time>2019-07-08T06:57:40Z</time>
      </trkpt>
      <trkpt lat="39.8641700" lon="-4.0004980">
        <ele>465.2</ele>
        <time>2019-07-08T06:57:45Z</time>
      </trkpt>
      <trkpt lat="39.8641880" lon="-4.0005600">
        <ele>465.2</ele>
        <time>2019-07-08T06:57:46Z</time>
      </trkpt>
      <trkpt lat="39.8643380" lon="-4.0009790">
        <ele>465.6</ele>
        <time>2019-07-08T06:57:53Z</time>
      </trkpt>
      <trkpt lat="39.8643490" lon="-4.0012330">
        <ele>465.8</ele>
        <time>2019-07-08T06:57:57Z</time>
      </trkpt>
      <trkpt lat="39.8642970" lon="-4.0013500">
        <ele>465.8</ele>
        <time>2019-07-08T06:57:59Z</time>
      </trkpt>
      <trkpt lat="39.8642280" lon="-4.0015130">
        <ele>466.0</ele>
        <time>2019-07-08T06:58:02Z</time>
      </trkpt>
      <trkpt lat="39.8642050" lon="-4.0015640">
        <ele>466.2</ele>
        <time>2019-07-08T06:58:03Z</time>
      </trkpt>
      <trkpt lat="39.8641110" lon="-4.0017840">
        <ele>466.2</ele>
        <time>2019-07-08T06:58:07Z</time>
      </trkpt>
      <trkpt lat="39.8640380" lon="-4.0018770">
        <ele>466.2</ele>
        <time>2019-07-08T06:58:09Z</time>
      </trkpt>
      <trkpt lat="39.8638430" lon="-4.0019470">
        <ele>466.2</ele>
        <time>2019-07-08T06:58:13Z</time>
      </trkpt>
      <trkpt lat="39.8636250" lon="-4.0019910">
        <ele>466.6</ele>
        <time>2019-07-08T06:58:18Z</time>
      </trkpt>
      <trkpt lat="39.8636100" lon="-4.0020140">
        <ele>466.6</ele>
        <time>2019-07-08T06:58:19Z</time>
      </trkpt>
      <trkpt lat="39.8636450" lon="-4.0021430">
        <ele>466.8</ele>
        <time>2019-07-08T06:58:23Z</time>
      </trkpt>
      <trkpt lat="39.8637580" lon="-4.0021540">
        <ele>466.8</ele>
        <time>2019-07-08T06:58:26Z</time>
      </trkpt>
      <trkpt lat="39.8638550" lon="-4.0021310">
        <ele>466.8</ele>
        <time>2019-07-08T06:58:28Z</time>
      </trkpt>
      <trkpt lat="39.8640060" lon="-4.0020990">
        <ele>466.4</ele>
        <time>2019-07-08T06:58:31Z</time>
      </trkpt>
      <trkpt lat="39.8640550" lon="-4.0020840">
        <ele>466.4</ele>
        <time>2019-07-08T06:58:32Z</time>
      </trkpt>
      <trkpt lat="39.8641010" lon="-4.0020620">
        <ele>466.4</ele>
        <time>2019-07-08T06:58:33Z</time>
      </trkpt>
      <trkpt lat="39.8642220" lon="-4.0019330">
        <ele>466.0</ele>
        <time>2019-07-08T06:58:36Z</time>
      </trkpt>
      <trkpt lat="39.8642560" lon="-4.0018770">
        <ele>466.0</ele>
        <time>2019-07-08T06:58:37Z</time>
      </trkpt>
      <trkpt lat="39.8644410" lon="-4.0015400">
        <ele>465.6</ele>
        <time>2019-07-08T06:58:43Z</time>
      </trkpt>
      <trkpt lat="39.8645190" lon="-4.0015000">
        <ele>465.6</ele>
        <time>2019-07-08T06:58:45Z</time>
      </trkpt>
      <trkpt lat="39.8645580" lon="-4.0015130">
        <ele>465.6</ele>
        <time>2019-07-08T06:58:46Z</time>
      </trkpt>
      <trkpt lat="39.8646500" lon="-4.0016390">
        <ele>465.8</ele>
        <time>2019-07-08T06:58:49Z</time>
      </trkpt>
      <trkpt lat="39.8646810" lon="-4.0016880">
        <ele>465.8</ele>
        <time>2019-07-08T06:58:50Z</time>
      </trkpt>
      <trkpt lat="39.8647560" lon="-4.0017780">
        <ele>465.6</ele>
        <time>2019-07-08T06:58:52Z</time>
      </trkpt>
      <trkpt lat="39.8648460" lon="-4.0018510">
        <ele>465.6</ele>
        <time>2019-07-08T06:58:54Z</time>
      </trkpt>
      <trkpt lat="39.8651920" lon="-4.0020570">
        <ele>465.4</ele>
        <time>2019-07-08T06:59:01Z</time>
      </trkpt>
      <trkpt lat="39.8652910" lon="-4.0022230">
        <ele>465.2</ele>
        <time>2019-07-08T06:59:04Z</time>
      </trkpt>
      <trkpt lat="39.8653550" lon="-4.0025040">
        <ele>465.0</ele>
        <time>2019-07-08T06:59:08Z</time>
      </trkpt>
      <trkpt lat="39.8653620" lon="-4.0025760">
        <ele>465.2</ele>
        <time>2019-07-08T06:59:09Z</time>
      </trkpt>
      <trkpt lat="39.8653740" lon="-4.0027910">
        <ele>465.0</ele>
        <time>2019-07-08T06:59:12Z</time>
      </trkpt>
      <trkpt lat="39.8653920" lon="-4.0029300">
        <ele>464.8</ele>
        <time>2019-07-08T06:59:14Z</time>
      </trkpt>
      <trkpt lat="39.8654590" lon="-4.0034040">
        <ele>464.8</ele>
        <time>2019-07-08T06:59:21Z</time>
      </trkpt>
      <trkpt lat="39.8654750" lon="-4.0034740">
        <ele>465.0</ele>
        <time>2019-07-08T06:59:22Z</time>
      </trkpt>
      <trkpt lat="39.8655510" lon="-4.0038970">
        <ele>464.6</ele>
        <time>2019-07-08T06:59:28Z</time>
      </trkpt>
      <trkpt lat="39.8656740" lon="-4.0041300">
        <ele>464.4</ele>
        <time>2019-07-08T06:59:32Z</time>
      </trkpt>
      <trkpt lat="39.8658340" lon="-4.0044110">
        <ele>464.4</ele>
        <time>2019-07-08T06:59:37Z</time>
      </trkpt>
      <trkpt lat="39.8659150" lon="-4.0045940">
        <ele>464.6</ele>
        <time>2019-07-08T06:59:40Z</time>
      </trkpt>
      <trkpt lat="39.8661150" lon="-4.0050910">
        <ele>464.6</ele>
        <time>2019-07-08T06:59:48Z</time>
      </trkpt>
      <trkpt lat="39.8663340" lon="-4.0057030">
        <ele>464.4</ele>
        <time>2019-07-08T06:59:58Z</time>
      </trkpt>
      <trkpt lat="39.8663580" lon="-4.0057650">
        <ele>464.4</ele>
        <time>2019-07-08T06:59:59Z</time>
      </trkpt>
      <trkpt lat="39.8665310" lon="-4.0062130">
        <ele>464.4</ele>
        <time>2019-07-08T07:00:06Z</time>
      </trkpt>
      <trkpt lat="39.8668130" lon="-4.0067980">
        <ele>464.6</ele>
        <time>2019-07-08T07:00:16Z</time>
      </trkpt>
      <trkpt lat="39.8670340" lon="-4.0072700">
        <ele>464.4</ele>
        <time>2019-07-08T07:00:24Z</time>
      </trkpt>
      <trkpt lat="39.8671780" lon="-4.0075640">
        <ele>464.4</ele>
        <time>2019-07-08T07:00:29Z</time>
      </trkpt>
      <trkpt lat="39.8672500" lon="-4.0076710">
        <ele>464.6</ele>
        <time>2019-07-08T07:00:31Z</time>
      </trkpt>
      <trkpt lat="39.8674870" lon="-4.0079500">
        <ele>464.2</ele>
        <time>2019-07-08T07:00:37Z</time>
      </trkpt>
      <trkpt lat="39.8678000" lon="-4.0083090">
        <ele>464.6</ele>
        <time>2019-07-08T07:00:45Z</time>
      </trkpt>
      <trkpt lat="39.8680870" lon="-4.0087280">
        <ele>464.4</ele>
        <time>2019-07-08T07:00:53Z</time>
      </trkpt>
      <trkpt lat="39.8683370" lon="-4.0091970">
        <ele>464.4</ele>
        <time>2019-07-08T07:01:01Z</time>
      </trkpt>
      <trkpt lat="39.8685040" lon="-4.0094880">
        <ele>464.4</ele>
        <time>2019-07-08T07:01:06Z</time>
      </trkpt>
      <trkpt lat="39.8687100" lon="-4.0098290">
        <ele>464.6</ele>
        <time>2019-07-08T07:01:12Z</time>
      </trkpt>
      <trkpt lat="39.8689420" lon="-4.0102280">
        <ele>464.2</ele>
        <time>2019-07-08T07:01:19Z</time>
      </trkpt>
      <trkpt lat="39.8691490" lon="-4.0106610">
        <ele>464.4</ele>
        <time>2019-07-08T07:01:26Z</time>
      </trkpt>
      <trkpt lat="39.8693070" lon="-4.0111180">
        <ele>464.2</ele>
        <time>2019-07-08T07:01:33Z</time>
      </trkpt>
      <trkpt lat="39.8694030" lon="-4.0115930">
        <ele>464.6</ele>
        <time>2019-07-08T07:01:40Z</time>
      </trkpt>
      <trkpt lat="39.8694260" lon="-4.0119470">
        <ele>464.6</ele>
        <time>2019-07-08T07:01:45Z</time>
      </trkpt>
      <trkpt lat="39.8694030" lon="-4.0121560">
        <ele>464.4</ele>
        <time>2019-07-08T07:01:48Z</time>
      </trkpt>
      <trkpt lat="39.8693280" lon="-4.0126480">
        <ele>464.4</ele>
        <time>2019-07-08T07:01:55Z</time>
      </trkpt>
      <trkpt lat="39.8692020" lon="-4.0128940">
        <ele>464.4</ele>
        <time>2019-07-08T07:01:59Z</time>
      </trkpt>
      <trkpt lat="39.8689480" lon="-4.0131870">
        <ele>464.4</ele>
        <time>2019-07-08T07:02:05Z</time>
      </trkpt>
      <trkpt lat="39.8685970" lon="-4.0134440">
        <ele>464.0</ele>
        <time>2019-07-08T07:02:12Z</time>
      </trkpt>
      <trkpt lat="39.8684150" lon="-4.0135190">
        <ele>464.0</ele>
        <time>2019-07-08T07:02:16Z</time>
      </trkpt>
      <trkpt lat="39.8683120" lon="-4.0135490">
        <ele>463.6</ele>
        <time>2019-07-08T07:02:19Z</time>
      </trkpt>
      <trkpt lat="39.8682710" lon="-4.0135690">
        <ele>463.4</ele>
        <time>2019-07-08T07:02:20Z</time>
      </trkpt>
      <trkpt lat="39.8682260" lon="-4.0135980">
        <ele>463.2</ele>
        <time>2019-07-08T07:02:21Z</time>
      </trkpt>
      <trkpt lat="39.8681790" lon="-4.0136340">
        <ele>463.2</ele>
        <time>2019-07-08T07:02:22Z</time>
      </trkpt>
      <trkpt lat="39.8680870" lon="-4.0137190">
        <ele>462.8</ele>
        <time>2019-07-08T07:02:24Z</time>
      </trkpt>
      <trkpt lat="39.8679480" lon="-4.0138620">
        <ele>462.2</ele>
        <time>2019-07-08T07:02:27Z</time>
      </trkpt>
      <trkpt lat="39.8678960" lon="-4.0139100">
        <ele>462.0</ele>
        <time>2019-07-08T07:02:28Z</time>
      </trkpt>
      <trkpt lat="39.8677480" lon="-4.0140430">
        <ele>461.4</ele>
        <time>2019-07-08T07:02:31Z</time>
      </trkpt>
      <trkpt lat="39.8676560" lon="-4.0141280">
        <ele>461.2</ele>
        <time>2019-07-08T07:02:33Z</time>
      </trkpt>
      <trkpt lat="39.8673870" lon="-4.0143410">
        <ele>461.2</ele>
        <time>2019-07-08T07:02:39Z</time>
      </trkpt>
      <trkpt lat="39.8670190" lon="-4.0147220">
        <ele>461.2</ele>
        <time>2019-07-08T07:02:48Z</time>
      </trkpt>
      <trkpt lat="39.8667160" lon="-4.0150600">
        <ele>461.2</ele>
        <time>2019-07-08T07:02:56Z</time>
      </trkpt>
      <trkpt lat="39.8666170" lon="-4.0151810">
        <ele>461.6</ele>
        <time>2019-07-08T07:02:59Z</time>
      </trkpt>
      <trkpt lat="39.8665570" lon="-4.0152900">
        <ele>461.6</ele>
        <time>2019-07-08T07:03:01Z</time>
      </trkpt>
      <trkpt lat="39.8663840" lon="-4.0154630">
        <ele>461.4</ele>
        <time>2019-07-08T07:03:05Z</time>
      </trkpt>
      <trkpt lat="39.8661640" lon="-4.0156260">
        <ele>461.6</ele>
        <time>2019-07-08T07:03:10Z</time>
      </trkpt>
      <trkpt lat="39.8661180" lon="-4.0156620">
        <ele>461.6</ele>
        <time>2019-07-08T07:03:11Z</time>
      </trkpt>
      <trkpt lat="39.8659810" lon="-4.0157730">
        <ele>461.6</ele>
        <time>2019-07-08T07:03:14Z</time>
      </trkpt>
      <trkpt lat="39.8658330" lon="-4.0158710">
        <ele>461.6</ele>
        <time>2019-07-08T07:03:17Z</time>
      </trkpt>
      <trkpt lat="39.8655180" lon="-4.0160510">
        <ele>461.2</ele>
        <time>2019-07-08T07:03:23Z</time>
      </trkpt>
      <trkpt lat="39.8651850" lon="-4.0162330">
        <ele>460.8</ele>
        <time>2019-07-08T07:03:29Z</time>
      </trkpt>
      <trkpt lat="39.8650240" lon="-4.0163150">
        <ele>460.8</ele>
        <time>2019-07-08T07:03:32Z</time>
      </trkpt>
      <trkpt lat="39.8646280" lon="-4.0164880">
        <ele>461.4</ele>
        <time>2019-07-08T07:03:40Z</time>
      </trkpt>
      <trkpt lat="39.8643140" lon="-4.0165620">
        <ele>461.4</ele>
        <time>2019-07-08T07:03:46Z</time>
      </trkpt>
      <trkpt lat="39.8638960" lon="-4.0166660">
        <ele>461.2</ele>
        <time>2019-07-08T07:03:54Z</time>
      </trkpt>
      <trkpt lat="39.8637210" lon="-4.0166830">
        <ele>461.2</ele>
        <time>2019-07-08T07:03:59Z</time>
      </trkpt>
      <trkpt lat="39.8637200" lon="-4.0166810">
        <ele>461.2</ele>
        <time>2019-07-08T07:04:00Z</time>
      </trkpt>
      <trkpt lat="39.8636820" lon="-4.0166890">
        <ele>460.8</ele>
        <time>2019-07-08T07:04:46Z</time>
      </trkpt>
      <trkpt lat="39.8636650" lon="-4.0166970">
        <ele>460.8</ele>
        <time>2019-07-08T07:04:47Z</time>
      </trkpt>
      <trkpt lat="39.8636440" lon="-4.0167050">
        <ele>461.0</ele>
        <time>2019-07-08T07:04:48Z</time>
      </trkpt>
      <trkpt lat="39.8636200" lon="-4.0167150">
        <ele>460.8</ele>
        <time>2019-07-08T07:04:49Z</time>
      </trkpt>
      <trkpt lat="39.8635920" lon="-4.0167280">
        <ele>461.0</ele>
        <time>2019-07-08T07:04:50Z</time>
      </trkpt>
      <trkpt lat="39.8635030" lon="-4.0167810">
        <ele>461.0</ele>
        <time>2019-07-08T07:04:53Z</time>
      </trkpt>
      <trkpt lat="39.8633440" lon="-4.0168260">
        <ele>460.6</ele>
        <time>2019-07-08T07:04:57Z</time>
      </trkpt>
      <trkpt lat="39.8631050" lon="-4.0168290">
        <ele>460.8</ele>
        <time>2019-07-08T07:05:02Z</time>
      </trkpt>
      <trkpt lat="39.8628040" lon="-4.0168280">
        <ele>461.2</ele>
        <time>2019-07-08T07:05:08Z</time>
      </trkpt>
      <trkpt lat="39.8627560" lon="-4.0168280">
        <ele>461.2</ele>
        <time>2019-07-08T07:05:09Z</time>
      </trkpt>
      <trkpt lat="39.8626620" lon="-4.0168340">
        <ele>461.4</ele>
        <time>2019-07-08T07:05:11Z</time>
      </trkpt>
      <trkpt lat="39.8623430" lon="-4.0168610">
        <ele>460.4</ele>
        <time>2019-07-08T07:07:32Z</time>
      </trkpt>
      <trkpt lat="39.8623270" lon="-4.0168610">
        <ele>460.4</ele>
        <time>2019-07-08T07:07:33Z</time>
      </trkpt>
      <trkpt lat="39.8622820" lon="-4.0168710">
        <ele>460.6</ele>
        <time>2019-07-08T07:07:35Z</time>
      </trkpt>
      <trkpt lat="39.8622210" lon="-4.0168730">
        <ele>460.6</ele>
        <time>2019-07-08T07:07:37Z</time>
      </trkpt>
      <trkpt lat="39.8621880" lon="-4.0168720">
        <ele>460.8</ele>
        <time>2019-07-08T07:07:38Z</time>
      </trkpt>
      <trkpt lat="39.8619690" lon="-4.0168630">
        <ele>460.8</ele>
        <time>2019-07-08T07:07:44Z</time>
      </trkpt>
      <trkpt lat="39.8618290" lon="-4.0168920">
        <ele>460.8</ele>
        <time>2019-07-08T07:07:48Z</time>
      </trkpt>
      <trkpt lat="39.8617110" lon="-4.0169330">
        <ele>461.0</ele>
        <time>2019-07-08T07:07:51Z</time>
      </trkpt>
      <trkpt lat="39.8616330" lon="-4.0169670">
        <ele>461.0</ele>
        <time>2019-07-08T07:07:53Z</time>
      </trkpt>
      <trkpt lat="39.8615560" lon="-4.0169960">
        <ele>461.2</ele>
        <time>2019-07-08T07:07:55Z</time>
      </trkpt>
      <trkpt lat="39.8614120" lon="-4.0170700">
        <ele>461.6</ele>
        <time>2019-07-08T07:07:59Z</time>
      </trkpt>
      <trkpt lat="39.8613770" lon="-4.0170870">
        <ele>461.8</ele>
        <time>2019-07-08T07:08:00Z</time>
      </trkpt>
      <trkpt lat="39.8612580" lon="-4.0171260">
        <ele>462.6</ele>
        <time>2019-07-08T07:08:04Z</time>
      </trkpt>
      <trkpt lat="39.8612330" lon="-4.0171270">
        <ele>463.0</ele>
        <time>2019-07-08T07:08:05Z</time>
      </trkpt>
      <trkpt lat="39.8611810" lon="-4.0171230">
        <ele>463.8</ele>
        <time>2019-07-08T07:08:07Z</time>
      </trkpt>
      <trkpt lat="39.8611520" lon="-4.0171210">
        <ele>464.0</ele>
        <time>2019-07-08T07:08:08Z</time>
      </trkpt>
      <trkpt lat="39.8610940" lon="-4.0171140">
        <ele>464.6</ele>
        <time>2019-07-08T07:08:10Z</time>
      </trkpt>
      <trkpt lat="39.8610340" lon="-4.0171110">
        <ele>465.0</ele>
        <time>2019-07-08T07:08:12Z</time>
      </trkpt>
      <trkpt lat="39.8610050" lon="-4.0171120">
        <ele>465.2</ele>
        <time>2019-07-08T07:08:13Z</time>
      </trkpt>
      <trkpt lat="39.8609490" lon="-4.0171080">
        <ele>465.6</ele>
        <time>2019-07-08T07:08:15Z</time>
      </trkpt>
      <trkpt lat="39.8608670" lon="-4.0171020">
        <ele>466.2</ele>
        <time>2019-07-08T07:08:18Z</time>
      </trkpt>
      <trkpt lat="39.8608080" lon="-4.0170920">
        <ele>466.4</ele>
        <time>2019-07-08T07:08:20Z</time>
      </trkpt>
      <trkpt lat="39.8606820" lon="-4.0170410">
        <ele>467.4</ele>
        <time>2019-07-08T07:08:25Z</time>
      </trkpt>
      <trkpt lat="39.8606640" lon="-4.0170340">
        <ele>467.8</ele>
        <time>2019-07-08T07:08:26Z</time>
      </trkpt>
      <trkpt lat="39.8606220" lon="-4.0170270">
        <ele>468.4</ele>
        <time>2019-07-08T07:08:28Z</time>
      </trkpt>
      <trkpt lat="39.8605410" lon="-4.0170020">
        <ele>468.6</ele>
        <time>2019-07-08T07:08:31Z</time>
      </trkpt>
      <trkpt lat="39.8605200" lon="-4.0169870">
        <ele>468.6</ele>
        <time>2019-07-08T07:08:34Z</time>
      </trkpt>
      <trkpt lat="39.8605840" lon="-4.0170210">
        <ele>468.8</ele>
        <time>2019-07-08T07:08:50Z</time>
      </trkpt>
      <trkpt lat="39.8606110" lon="-4.0170250">
        <ele>469.0</ele>
        <time>2019-07-08T07:08:52Z</time>
      </trkpt>
      <trkpt lat="39.8606230" lon="-4.0170240">
        <ele>469.0</ele>
        <time>2019-07-08T07:08:53Z</time>
      </trkpt>
      <trkpt lat="39.8606300" lon="-4.0170230">
        <ele>469.2</ele>
        <time>2019-07-08T07:08:55Z</time>
      </trkpt>
      <trkpt lat="39.8606750" lon="-4.0170340">
        <ele>469.2</ele>
        <time>2019-07-08T07:08:59Z</time>
      </trkpt>
      <trkpt lat="39.8606980" lon="-4.0170470">
        <ele>469.2</ele>
        <time>2019-07-08T07:09:00Z</time>
      </trkpt>
      <trkpt lat="39.8607680" lon="-4.0170890">
        <ele>468.6</ele>
        <time>2019-07-08T07:09:02Z</time>
      </trkpt>
      <trkpt lat="39.8608640" lon="-4.0171130">
        <ele>468.2</ele>
        <time>2019-07-08T07:09:04Z</time>
      </trkpt>
      <trkpt lat="39.8609520" lon="-4.0171260">
        <ele>467.4</ele>
        <time>2019-07-08T07:09:06Z</time>
      </trkpt>
      <trkpt lat="39.8609880" lon="-4.0171270">
        <ele>467.0</ele>
        <time>2019-07-08T07:09:07Z</time>
      </trkpt>
      <trkpt lat="39.8610320" lon="-4.0171280">
        <ele>466.4</ele>
        <time>2019-07-08T07:09:09Z</time>
      </trkpt>
      <trkpt lat="39.8610350" lon="-4.0171260">
        <ele>466.0</ele>
        <time>2019-07-08T07:09:11Z</time>
      </trkpt>
      <trkpt lat="39.8607060" lon="-4.0169570">
        <ele>474.0</ele>
        <time>2019-07-08T07:12:51Z</time>
      </trkpt>
      <trkpt lat="39.8606890" lon="-4.0169520">
        <ele>474.0</ele>
        <time>2019-07-08T07:12:52Z</time>
      </trkpt>
      <trkpt lat="39.8606510" lon="-4.0169320">
        <ele>474.4</ele>
        <time>2019-07-08T07:12:56Z</time>
      </trkpt>
      <trkpt lat="39.8605720" lon="-4.0168890">
        <ele>474.6</ele>
        <time>2019-07-08T07:13:00Z</time>
      </trkpt>
      <trkpt lat="39.8605490" lon="-4.0168750">
        <ele>475.0</ele>
        <time>2019-07-08T07:13:01Z</time>
      </trkpt>
      <trkpt lat="39.8605280" lon="-4.0168610">
        <ele>475.2</ele>
        <time>2019-07-08T07:13:02Z</time>
      </trkpt>
      <trkpt lat="39.8604940" lon="-4.0168610">
        <ele>475.4</ele>
        <time>2019-07-08T07:13:04Z</time>
      </trkpt>
      <trkpt lat="39.8604790" lon="-4.0168790">
        <ele>475.6</ele>
        <time>2019-07-08T07:13:05Z</time>
      </trkpt>
      <trkpt lat="39.8604660" lon="-4.0169930">
        <ele>476.0</ele>
        <time>2019-07-08T07:13:09Z</time>
      </trkpt>
      <trkpt lat="39.8604640" lon="-4.0170550">
        <ele>476.2</ele>
        <time>2019-07-08T07:13:11Z</time>
      </trkpt>
      <trkpt lat="39.8604340" lon="-4.0172340">
        <ele>476.6</ele>
        <time>2019-07-08T07:13:17Z</time>
      </trkpt>
      <trkpt lat="39.8604140" lon="-4.0173400">
        <ele>476.4</ele>
        <time>2019-07-08T07:13:21Z</time>
      </trkpt>
      <trkpt lat="39.8601440" lon="-4.0181650">
        <ele>477.2</ele>
        <time>2019-07-08T07:15:09Z</time>
      </trkpt>
      <trkpt lat="39.8601230" lon="-4.0181680">
        <ele>477.2</ele>
        <time>2019-07-08T07:15:10Z</time>
      </trkpt>
      <trkpt lat="39.8600000" lon="-4.0181510">
        <ele>477.4</ele>
        <time>2019-07-08T07:15:13Z</time>
      </trkpt>
      <trkpt lat="39.8599560" lon="-4.0181420">
        <ele>477.4</ele>
        <time>2019-07-08T07:15:14Z</time>
      </trkpt>
      <trkpt lat="39.8596450" lon="-4.0180730">
        <ele>477.6</ele>
        <time>2019-07-08T07:15:21Z</time>
      </trkpt>
      <trkpt lat="39.8595080" lon="-4.0180380">
        <ele>477.8</ele>
        <time>2019-07-08T07:15:24Z</time>
      </trkpt>
      <trkpt lat="39.8593460" lon="-4.0179960">
        <ele>478.0</ele>
        <time>2019-07-08T07:15:28Z</time>
      </trkpt>
      <trkpt lat="39.8592740" lon="-4.0179840">
        <ele>478.4</ele>
        <time>2019-07-08T07:15:30Z</time>
      </trkpt>
      <trkpt lat="39.8591420" lon="-4.0179490">
        <ele>479.4</ele>
        <time>2019-07-08T07:15:34Z</time>
      </trkpt>
      <trkpt lat="39.8590760" lon="-4.0179300">
        <ele>479.8</ele>
        <time>2019-07-08T07:15:36Z</time>
      </trkpt>
      <trkpt lat="39.8589780" lon="-4.0179030">
        <ele>480.4</ele>
        <time>2019-07-08T07:15:39Z</time>
      </trkpt>
      <trkpt lat="39.8589160" lon="-4.0178910">
        <ele>481.0</ele>
        <time>2019-07-08T07:15:41Z</time>
      </trkpt>
      <trkpt lat="39.8588550" lon="-4.0178750">
        <ele>481.8</ele>
        <time>2019-07-08T07:15:43Z</time>
      </trkpt>
      <trkpt lat="39.8588220" lon="-4.0178670">
        <ele>482.0</ele>
        <time>2019-07-08T07:15:44Z</time>
      </trkpt>
      <trkpt lat="39.8587230" lon="-4.0178500">
        <ele>482.8</ele>
        <time>2019-07-08T07:15:47Z</time>
      </trkpt>
      <trkpt lat="39.8586590" lon="-4.0178450">
        <ele>483.2</ele>
        <time>2019-07-08T07:15:49Z</time>
      </trkpt>
      <trkpt lat="39.8585990" lon="-4.0178510">
        <ele>483.8</ele>
        <time>2019-07-08T07:15:51Z</time>
      </trkpt>
      <trkpt lat="39.8585690" lon="-4.0178550">
        <ele>484.0</ele>
        <time>2019-07-08T07:15:52Z</time>
      </trkpt>
      <trkpt lat="39.8584820" lon="-4.0178690">
        <ele>485.0</ele>
        <time>2019-07-08T07:15:55Z</time>
      </trkpt>
      <trkpt lat="39.8584520" lon="-4.0178690">
        <ele>485.4</ele>
        <time>2019-07-08T07:15:56Z</time>
      </trkpt>
      <trkpt lat="39.8583740" lon="-4.0178710">
        <ele>486.2</ele>
        <time>2019-07-08T07:15:59Z</time>
      </trkpt>
      <trkpt lat="39.8583540" lon="-4.0178740">
        <ele>486.2</ele>
        <time>2019-07-08T07:16:00Z</time>
      </trkpt>
      <trkpt lat="39.8582660" lon="-4.0178760">
        <ele>487.4</ele>
        <time>2019-07-08T07:16:04Z</time>
      </trkpt>
      <trkpt lat="39.8582190" lon="-4.0178790">
        <ele>488.0</ele>
        <time>2019-07-08T07:16:06Z</time>
      </trkpt>
      <trkpt lat="39.8581650" lon="-4.0178810">
        <ele>488.4</ele>
        <time>2019-07-08T07:16:08Z</time>
      </trkpt>
      <trkpt lat="39.8580910" lon="-4.0178900">
        <ele>489.2</ele>
        <time>2019-07-08T07:16:11Z</time>
      </trkpt>
      <trkpt lat="39.8580660" lon="-4.0178950">
        <ele>489.6</ele>
        <time>2019-07-08T07:16:12Z</time>
      </trkpt>
      <trkpt lat="39.8580020" lon="-4.0179130">
        <ele>490.6</ele>
        <time>2019-07-08T07:16:15Z</time>
      </trkpt>
      <trkpt lat="39.8579850" lon="-4.0179300">
        <ele>491.0</ele>
        <time>2019-07-08T07:16:16Z</time>
      </trkpt>
      <trkpt lat="39.8579720" lon="-4.0179490">
        <ele>491.2</ele>
        <time>2019-07-08T07:16:17Z</time>
      </trkpt>
      <trkpt lat="39.8579440" lon="-4.0179790">
        <ele>491.8</ele>
        <time>2019-07-08T07:16:19Z</time>
      </trkpt>
      <trkpt lat="39.8579250" lon="-4.0179880">
        <ele>492.2</ele>
        <time>2019-07-08T07:16:20Z</time>
      </trkpt>
      <trkpt lat="39.8578540" lon="-4.0179930">
        <ele>492.6</ele>
        <time>2019-07-08T07:16:23Z</time>
      </trkpt>
      <trkpt lat="39.8577870" lon="-4.0180040">
        <ele>493.2</ele>
        <time>2019-07-08T07:16:26Z</time>
      </trkpt>
      <trkpt lat="39.8576960" lon="-4.0180480">
        <ele>494.4</ele>
        <time>2019-07-08T07:16:30Z</time>
      </trkpt>
      <trkpt lat="39.8576130" lon="-4.0181140">
        <ele>495.2</ele>
        <time>2019-07-08T07:16:34Z</time>
      </trkpt>
      <trkpt lat="39.8575710" lon="-4.0181450">
        <ele>495.6</ele>
        <time>2019-07-08T07:16:36Z</time>
      </trkpt>
      <trkpt lat="39.8575270" lon="-4.0181700">
        <ele>496.4</ele>
        <time>2019-07-08T07:16:38Z</time>
      </trkpt>
      <trkpt lat="39.8574660" lon="-4.0182060">
        <ele>497.2</ele>
        <time>2019-07-08T07:16:41Z</time>
      </trkpt>
      <trkpt lat="39.8574490" lon="-4.0182240">
        <ele>497.6</ele>
        <time>2019-07-08T07:16:42Z</time>
      </trkpt>
      <trkpt lat="39.8573250" lon="-4.0183400">
        <ele>498.8</ele>
        <time>2019-07-08T07:16:48Z</time>
      </trkpt>
      <trkpt lat="39.8573050" lon="-4.0183580">
        <ele>499.0</ele>
        <time>2019-07-08T07:16:49Z</time>
      </trkpt>
      <trkpt lat="39.8572140" lon="-4.0184180">
        <ele>499.8</ele>
        <time>2019-07-08T07:16:53Z</time>
      </trkpt>
      <trkpt lat="39.8571680" lon="-4.0184490">
        <ele>500.2</ele>
        <time>2019-07-08T07:16:55Z</time>
      </trkpt>
      <trkpt lat="39.8571030" lon="-4.0184940">
        <ele>501.0</ele>
        <time>2019-07-08T07:16:58Z</time>
      </trkpt>
      <trkpt lat="39.8570380" lon="-4.0185470">
        <ele>501.8</ele>
        <time>2019-07-08T07:17:01Z</time>
      </trkpt>
      <trkpt lat="39.8570150" lon="-4.0185670">
        <ele>502.2</ele>
        <time>2019-07-08T07:17:02Z</time>
      </trkpt>
      <trkpt lat="39.8569160" lon="-4.0186150">
        <ele>503.2</ele>
        <time>2019-07-08T07:17:06Z</time>
      </trkpt>
      <trkpt lat="39.8568670" lon="-4.0186440">
        <ele>503.4</ele>
        <time>2019-07-08T07:17:08Z</time>
      </trkpt>
      <trkpt lat="39.8567730" lon="-4.0187030">
        <ele>504.0</ele>
        <time>2019-07-08T07:17:12Z</time>
      </trkpt>
      <trkpt lat="39.8567470" lon="-4.0187180">
        <ele>504.2</ele>
        <time>2019-07-08T07:17:13Z</time>
      </trkpt>
      <trkpt lat="39.8566370" lon="-4.0187730">
        <ele>505.0</ele>
        <time>2019-07-08T07:17:17Z</time>
      </trkpt>
      <trkpt lat="39.8565530" lon="-4.0188160">
        <ele>505.2</ele>
        <time>2019-07-08T07:17:20Z</time>
      </trkpt>
      <trkpt lat="39.8564510" lon="-4.0188770">
        <ele>505.6</ele>
        <time>2019-07-08T07:17:24Z</time>
      </trkpt>
      <trkpt lat="39.8564030" lon="-4.0189140">
        <ele>506.0</ele>
        <time>2019-07-08T07:17:26Z</time>
      </trkpt>
      <trkpt lat="39.8563630" lon="-4.0189570">
        <ele>506.2</ele>
        <time>2019-07-08T07:17:28Z</time>
      </trkpt>
      <trkpt lat="39.8563250" lon="-4.0190150">
        <ele>506.6</ele>
        <time>2019-07-08T07:17:31Z</time>
      </trkpt>
      <trkpt lat="39.8562600" lon="-4.0191210">
        <ele>507.2</ele>
        <time>2019-07-08T07:17:36Z</time>
      </trkpt>
      <trkpt lat="39.8562300" lon="-4.0191990">
        <ele>508.4</ele>
        <time>2019-07-08T07:17:39Z</time>
      </trkpt>
      <trkpt lat="39.8562210" lon="-4.0192220">
        <ele>508.8</ele>
        <time>2019-07-08T07:17:40Z</time>
      </trkpt>
      <trkpt lat="39.8561930" lon="-4.0192700">
        <ele>509.6</ele>
        <time>2019-07-08T07:17:42Z</time>
      </trkpt>
      <trkpt lat="39.8561490" lon="-4.0193280">
        <ele>510.8</ele>
        <time>2019-07-08T07:17:45Z</time>
      </trkpt>
      <trkpt lat="39.8561200" lon="-4.0193650">
        <ele>511.8</ele>
        <time>2019-07-08T07:17:47Z</time>
      </trkpt>
      <trkpt lat="39.8560900" lon="-4.0193980">
        <ele>513.0</ele>
        <time>2019-07-08T07:17:49Z</time>
      </trkpt>
      <trkpt lat="39.8560590" lon="-4.0194200">
        <ele>514.0</ele>
        <time>2019-07-08T07:17:51Z</time>
      </trkpt>
      <trkpt lat="39.8560450" lon="-4.0194350">
        <ele>514.6</ele>
        <time>2019-07-08T07:17:52Z</time>
      </trkpt>
      <trkpt lat="39.8560330" lon="-4.0194510">
        <ele>515.0</ele>
        <time>2019-07-08T07:17:53Z</time>
      </trkpt>
      <trkpt lat="39.8560220" lon="-4.0194670">
        <ele>515.4</ele>
        <time>2019-07-08T07:17:54Z</time>
      </trkpt>
      <trkpt lat="39.8560390" lon="-4.0195470">
        <ele>516.0</ele>
        <time>2019-07-08T07:17:58Z</time>
      </trkpt>
      <trkpt lat="39.8560510" lon="-4.0195570">
        <ele>516.2</ele>
        <time>2019-07-08T07:17:59Z</time>
      </trkpt>
      <trkpt lat="39.8560800" lon="-4.0195690">
        <ele>517.0</ele>
        <time>2019-07-08T07:18:01Z</time>
      </trkpt>
      <trkpt lat="39.8561120" lon="-4.0195920">
        <ele>517.6</ele>
        <time>2019-07-08T07:18:03Z</time>
      </trkpt>
      <trkpt lat="39.8561250" lon="-4.0196050">
        <ele>518.0</ele>
        <time>2019-07-08T07:18:04Z</time>
      </trkpt>
      <trkpt lat="39.8561520" lon="-4.0196250">
        <ele>518.8</ele>
        <time>2019-07-08T07:18:06Z</time>
      </trkpt>
      <trkpt lat="39.8562110" lon="-4.0196760">
        <ele>520.0</ele>
        <time>2019-07-08T07:18:10Z</time>
      </trkpt>
      <trkpt lat="39.8562550" lon="-4.0197160">
        <ele>521.2</ele>
        <time>2019-07-08T07:18:13Z</time>
      </trkpt>
      <trkpt lat="39.8563170" lon="-4.0197720">
        <ele>522.4</ele>
        <time>2019-07-08T07:18:17Z</time>
      </trkpt>
      <trkpt lat="39.8563760" lon="-4.0198180">
        <ele>523.8</ele>
        <time>2019-07-08T07:18:21Z</time>
      </trkpt>
      <trkpt lat="39.8564210" lon="-4.0198520">
        <ele>524.4</ele>
        <time>2019-07-08T07:18:24Z</time>
      </trkpt>
      <trkpt lat="39.8564450" lon="-4.0198700">
        <ele>524.6</ele>
        <time>2019-07-08T07:18:26Z</time>
      </trkpt>
      <trkpt lat="39.8564580" lon="-4.0198780">
        <ele>524.8</ele>
        <time>2019-07-08T07:18:27Z</time>
      </trkpt>
      <trkpt lat="39.8564870" lon="-4.0199000">
        <ele>525.2</ele>
        <time>2019-07-08T07:18:29Z</time>
      </trkpt>
      <trkpt lat="39.8565370" lon="-4.0199130">
        <ele>525.8</ele>
        <time>2019-07-08T07:18:32Z</time>
      </trkpt>
      <trkpt lat="39.8565580" lon="-4.0199050">
        <ele>525.8</ele>
        <time>2019-07-08T07:18:33Z</time>
      </trkpt>
      <trkpt lat="39.8565790" lon="-4.0198930">
        <ele>526.0</ele>
        <time>2019-07-08T07:18:34Z</time>
      </trkpt>
      <trkpt lat="39.8566210" lon="-4.0198710">
        <ele>526.8</ele>
        <time>2019-07-08T07:18:36Z</time>
      </trkpt>
      <trkpt lat="39.8566430" lon="-4.0198600">
        <ele>527.0</ele>
        <time>2019-07-08T07:18:37Z</time>
      </trkpt>
      <trkpt lat="39.8567290" lon="-4.0198150">
        <ele>527.8</ele>
        <time>2019-07-08T07:18:41Z</time>
      </trkpt>
      <trkpt lat="39.8567650" lon="-4.0198000">
        <ele>528.4</ele>
        <time>2019-07-08T07:18:43Z</time>
      </trkpt>
      <trkpt lat="39.8568150" lon="-4.0197890">
        <ele>529.2</ele>
        <time>2019-07-08T07:18:46Z</time>
      </trkpt>
      <trkpt lat="39.8568330" lon="-4.0197850">
        <ele>529.4</ele>
        <time>2019-07-08T07:18:47Z</time>
      </trkpt>
      <trkpt lat="39.8569520" lon="-4.0197760">
        <ele>530.2</ele>
        <time>2019-07-08T07:18:51Z</time>
      </trkpt>
      <trkpt lat="39.8570470" lon="-4.0197180">
        <ele>530.4</ele>
        <time>2019-07-08T07:18:54Z</time>
      </trkpt>
      <trkpt lat="39.8570660" lon="-4.0196790">
        <ele>530.4</ele>
        <time>2019-07-08T07:18:55Z</time>
      </trkpt>
      <trkpt lat="39.8571520" lon="-4.0195130">
        <ele>530.6</ele>
        <time>2019-07-08T07:18:59Z</time>
      </trkpt>
      <trkpt lat="39.8571970" lon="-4.0194460">
        <ele>530.6</ele>
        <time>2019-07-08T07:19:01Z</time>
      </trkpt>
      <trkpt lat="39.8572250" lon="-4.0194210">
        <ele>530.6</ele>
        <time>2019-07-08T07:19:02Z</time>
      </trkpt>
      <trkpt lat="39.8572880" lon="-4.0194190">
        <ele>530.6</ele>
        <time>2019-07-08T07:19:04Z</time>
      </trkpt>
      <trkpt lat="39.8573830" lon="-4.0194780">
        <ele>531.2</ele>
        <time>2019-07-08T07:19:08Z</time>
      </trkpt>
      <trkpt lat="39.8573990" lon="-4.0195410">
        <ele>531.4</ele>
        <time>2019-07-08T07:19:10Z</time>
      </trkpt>
      <trkpt lat="39.8573990" lon="-4.0196450">
        <ele>532.2</ele>
        <time>2019-07-08T07:19:13Z</time>
      </trkpt>
      <trkpt lat="39.8574010" lon="-4.0197160">
        <ele>532.6</ele>
        <time>2019-07-08T07:19:15Z</time>
      </trkpt>
      <trkpt lat="39.8574100" lon="-4.0198530">
        <ele>534.0</ele>
        <time>2019-07-08T07:19:19Z</time>
      </trkpt>
      <trkpt lat="39.8574160" lon="-4.0199630">
        <ele>535.2</ele>
        <time>2019-07-08T07:19:22Z</time>
      </trkpt>
      <trkpt lat="39.8574140" lon="-4.0200730">
        <ele>536.4</ele>
        <time>2019-07-08T07:19:25Z</time>
      </trkpt>
      <trkpt lat="39.8574130" lon="-4.0201890">
        <ele>537.2</ele>
        <time>2019-07-08T07:19:28Z</time>
      </trkpt>
      <trkpt lat="39.8574160" lon="-4.0202300">
        <ele>537.6</ele>
        <time>2019-07-08T07:19:29Z</time>
      </trkpt>
      <trkpt lat="39.8574020" lon="-4.0203960">
        <ele>538.8</ele>
        <time>2019-07-08T07:19:33Z</time>
      </trkpt>
      <trkpt lat="39.8573920" lon="-4.0206020">
        <ele>539.8</ele>
        <time>2019-07-08T07:19:38Z</time>
      </trkpt>
      <trkpt lat="39.8573980" lon="-4.0206370">
        <ele>540.0</ele>
        <time>2019-07-08T07:19:39Z</time>
      </trkpt>
      <trkpt lat="39.8574130" lon="-4.0208290">
        <ele>540.2</ele>
        <time>2019-07-08T07:19:44Z</time>
      </trkpt>
      <trkpt lat="39.8574510" lon="-4.0209750">
        <ele>540.6</ele>
        <time>2019-07-08T07:19:48Z</time>
      </trkpt>
      <trkpt lat="39.8574750" lon="-4.0210060">
        <ele>540.6</ele>
        <time>2019-07-08T07:19:49Z</time>
      </trkpt>
      <trkpt lat="39.8575430" lon="-4.0210500">
        <ele>540.6</ele>
        <time>2019-07-08T07:19:51Z</time>
      </trkpt>
      <trkpt lat="39.8576180" lon="-4.0210680">
        <ele>540.6</ele>
        <time>2019-07-08T07:19:53Z</time>
      </trkpt>
      <trkpt lat="39.8576520" lon="-4.0210770">
        <ele>540.6</ele>
        <time>2019-07-08T07:19:54Z</time>
      </trkpt>
      <trkpt lat="39.8577210" lon="-4.0210880">
        <ele>540.6</ele>
        <time>2019-07-08T07:19:56Z</time>
      </trkpt>
      <trkpt lat="39.8578300" lon="-4.0210960">
        <ele>540.6</ele>
        <time>2019-07-08T07:19:59Z</time>
      </trkpt>
      <trkpt lat="39.8578690" lon="-4.0210980">
        <ele>540.6</ele>
        <time>2019-07-08T07:20:00Z</time>
      </trkpt>
      <trkpt lat="39.8579500" lon="-4.0211030">
        <ele>540.4</ele>
        <time>2019-07-08T07:20:02Z</time>
      </trkpt>
      <trkpt lat="39.8579890" lon="-4.0210990">
        <ele>540.4</ele>
        <time>2019-07-08T07:20:03Z</time>
      </trkpt>
      <trkpt lat="39.8580650" lon="-4.0210870">
        <ele>540.2</ele>
        <time>2019-07-08T07:20:05Z</time>
      </trkpt>
      <trkpt lat="39.8581050" lon="-4.0210850">
        <ele>540.2</ele>
        <time>2019-07-08T07:20:06Z</time>
      </trkpt>
      <trkpt lat="39.8582110" lon="-4.0210880">
        <ele>540.0</ele>
        <time>2019-07-08T07:20:09Z</time>
      </trkpt>
      <trkpt lat="39.8582400" lon="-4.0210930">
        <ele>539.8</ele>
        <time>2019-07-08T07:20:10Z</time>
      </trkpt>
      <trkpt lat="39.8582760" lon="-4.0210920">
        <ele>539.6</ele>
        <time>2019-07-08T07:20:11Z</time>
      </trkpt>
      <trkpt lat="39.8583550" lon="-4.0210870">
        <ele>538.8</ele>
        <time>2019-07-08T07:20:13Z</time>
      </trkpt>
      <trkpt lat="39.8584250" lon="-4.0210850">
        <ele>538.4</ele>
        <time>2019-07-08T07:20:15Z</time>
      </trkpt>
      <trkpt lat="39.8584600" lon="-4.0210900">
        <ele>538.0</ele>
        <time>2019-07-08T07:20:16Z</time>
      </trkpt>
      <trkpt lat="39.8584920" lon="-4.0210950">
        <ele>537.8</ele>
        <time>2019-07-08T07:20:17Z</time>
      </trkpt>
      <trkpt lat="39.8585780" lon="-4.0211040">
        <ele>536.6</ele>
        <time>2019-07-08T07:20:20Z</time>
      </trkpt>
      <trkpt lat="39.8585940" lon="-4.0211060">
        <ele>536.2</ele>
        <time>2019-07-08T07:20:21Z</time>
      </trkpt>
      <trkpt lat="39.8585980" lon="-4.0211090">
        <ele>535.2</ele>
        <time>2019-07-08T07:20:24Z</time>
      </trkpt>
      <trkpt lat="39.8586120" lon="-4.0211240">
        <ele>535.0</ele>
        <time>2019-07-08T07:20:59Z</time>
      </trkpt>
      <trkpt lat="39.8586350" lon="-4.0211220">
        <ele>534.8</ele>
        <time>2019-07-08T07:21:00Z</time>
      </trkpt>
      <trkpt lat="39.8587010" lon="-4.0211240">
        <ele>534.6</ele>
        <time>2019-07-08T07:21:02Z</time>
      </trkpt>
      <trkpt lat="39.8587400" lon="-4.0211120">
        <ele>534.0</ele>
        <time>2019-07-08T07:21:03Z</time>
      </trkpt>
      <trkpt lat="39.8588150" lon="-4.0210960">
        <ele>533.8</ele>
        <time>2019-07-08T07:21:05Z</time>
      </trkpt>
      <trkpt lat="39.8588700" lon="-4.0210710">
        <ele>533.0</ele>
        <time>2019-07-08T07:21:07Z</time>
      </trkpt>
      <trkpt lat="39.8588930" lon="-4.0210510">
        <ele>532.6</ele>
        <time>2019-07-08T07:21:08Z</time>
      </trkpt>
      <trkpt lat="39.8589220" lon="-4.0210390">
        <ele>532.4</ele>
        <time>2019-07-08T07:21:09Z</time>
      </trkpt>
      <trkpt lat="39.8590090" lon="-4.0210410">
        <ele>532.0</ele>
        <time>2019-07-08T07:21:11Z</time>
      </trkpt>
      <trkpt lat="39.8590920" lon="-4.0210460">
        <ele>531.4</ele>
        <time>2019-07-08T07:21:13Z</time>
      </trkpt>
      <trkpt lat="39.8591560" lon="-4.0210590">
        <ele>530.4</ele>
        <time>2019-07-08T07:21:15Z</time>
      </trkpt>
      <trkpt lat="39.8591880" lon="-4.0210650">
        <ele>530.0</ele>
        <time>2019-07-08T07:21:16Z</time>
      </trkpt>
      <trkpt lat="39.8592990" lon="-4.0210940">
        <ele>529.0</ele>
        <time>2019-07-08T07:21:20Z</time>
      </trkpt>
      <trkpt lat="39.8593520" lon="-4.0210960">
        <ele>528.8</ele>
        <time>2019-07-08T07:21:22Z</time>
      </trkpt>
      <trkpt lat="39.8594120" lon="-4.0210920">
        <ele>528.8</ele>
        <time>2019-07-08T07:21:24Z</time>
      </trkpt>
      <trkpt lat="39.8594490" lon="-4.0210870">
        <ele>528.8</ele>
        <time>2019-07-08T07:21:26Z</time>
      </trkpt>
      <trkpt lat="39.8594880" lon="-4.0210970">
        <ele>528.8</ele>
        <time>2019-07-08T07:21:28Z</time>
      </trkpt>
      <trkpt lat="39.8595530" lon="-4.0211240">
        <ele>528.8</ele>
        <time>2019-07-08T07:21:31Z</time>
      </trkpt>
      <trkpt lat="39.8596630" lon="-4.0211830">
        <ele>528.8</ele>
        <time>2019-07-08T07:21:36Z</time>
      </trkpt>
      <trkpt lat="39.8596800" lon="-4.0212070">
        <ele>528.8</ele>
        <time>2019-07-08T07:21:37Z</time>
      </trkpt>
      <trkpt lat="39.8597060" lon="-4.0212450">
        <ele>528.8</ele>
        <time>2019-07-08T07:21:39Z</time>
      </trkpt>
      <trkpt lat="39.8597380" lon="-4.0212750">
        <ele>528.6</ele>
        <time>2019-07-08T07:21:41Z</time>
      </trkpt>
      <trkpt lat="39.8598290" lon="-4.0213530">
        <ele>528.6</ele>
        <time>2019-07-08T07:21:46Z</time>
      </trkpt>
      <trkpt lat="39.8598180" lon="-4.0213860">
        <ele>528.6</ele>
        <time>2019-07-08T07:21:48Z</time>
      </trkpt>
      <trkpt lat="39.8598310" lon="-4.0214740">
        <ele>526.8</ele>
        <time>2019-07-08T07:30:34Z</time>
      </trkpt>
      <trkpt lat="39.8598660" lon="-4.0214360">
        <ele>526.8</ele>
        <time>2019-07-08T07:30:36Z</time>
      </trkpt>
      <trkpt lat="39.8599380" lon="-4.0213840">
        <ele>526.6</ele>
        <time>2019-07-08T07:30:39Z</time>
      </trkpt>
      <trkpt lat="39.8599780" lon="-4.0213600">
        <ele>526.4</ele>
        <time>2019-07-08T07:30:41Z</time>
      </trkpt>
      <trkpt lat="39.8600460" lon="-4.0213340">
        <ele>526.0</ele>
        <time>2019-07-08T07:30:44Z</time>
      </trkpt>
      <trkpt lat="39.8600760" lon="-4.0213300">
        <ele>525.8</ele>
        <time>2019-07-08T07:30:45Z</time>
      </trkpt>
      <trkpt lat="39.8601130" lon="-4.0213230">
        <ele>525.8</ele>
        <time>2019-07-08T07:30:46Z</time>
      </trkpt>
      <trkpt lat="39.8601850" lon="-4.0213000">
        <ele>525.2</ele>
        <time>2019-07-08T07:30:48Z</time>
      </trkpt>
      <trkpt lat="39.8602290" lon="-4.0212950">
        <ele>524.6</ele>
        <time>2019-07-08T07:30:49Z</time>
      </trkpt>
      <trkpt lat="39.8603120" lon="-4.0212920">
        <ele>524.0</ele>
        <time>2019-07-08T07:30:51Z</time>
      </trkpt>
      <trkpt lat="39.8604340" lon="-4.0212890">
        <ele>522.6</ele>
        <time>2019-07-08T07:30:54Z</time>
      </trkpt>
      <trkpt lat="39.8604740" lon="-4.0213010">
        <ele>522.0</ele>
        <time>2019-07-08T07:30:55Z</time>
      </trkpt>
      <trkpt lat="39.8605670" lon="-4.0213260">
        <ele>521.0</ele>
        <time>2019-07-08T07:30:58Z</time>
      </trkpt>
      <trkpt lat="39.8606130" lon="-4.0213110">
        <ele>520.4</ele>
        <time>2019-07-08T07:31:00Z</time>
      </trkpt>
      <trkpt lat="39.8606310" lon="-4.0213110">
        <ele>520.2</ele>
        <time>2019-07-08T07:31:01Z</time>
      </trkpt>
      <trkpt lat="39.8606520" lon="-4.0212960">
        <ele>520.0</ele>
        <time>2019-07-08T07:31:02Z</time>
      </trkpt>
      <trkpt lat="39.8607890" lon="-4.0212760">
        <ele>518.8</ele>
        <time>2019-07-08T07:31:09Z</time>
      </trkpt>
      <trkpt lat="39.8609220" lon="-4.0213990">
        <ele>518.2</ele>
        <time>2019-07-08T07:31:14Z</time>
      </trkpt>
      <trkpt lat="39.8610390" lon="-4.0215780">
        <ele>517.4</ele>
        <time>2019-07-08T07:31:19Z</time>
      </trkpt>
      <trkpt lat="39.8610720" lon="-4.0216220">
        <ele>517.0</ele>
        <time>2019-07-08T07:31:20Z</time>
      </trkpt>
      <trkpt lat="39.8611680" lon="-4.0217170">
        <ele>516.2</ele>
        <time>2019-07-08T07:31:23Z</time>
      </trkpt>
      <trkpt lat="39.8612010" lon="-4.0217420">
        <ele>515.6</ele>
        <time>2019-07-08T07:31:24Z</time>
      </trkpt>
      <trkpt lat="39.8613030" lon="-4.0218520">
        <ele>514.6</ele>
        <time>2019-07-08T07:31:28Z</time>
      </trkpt>
      <trkpt lat="39.8613420" lon="-4.0218640">
        <ele>513.6</ele>
        <time>2019-07-08T07:31:32Z</time>
      </trkpt>
      <trkpt lat="39.8613040" lon="-4.0217810">
        <ele>512.4</ele>
        <time>2019-07-08T07:35:46Z</time>
      </trkpt>
      <trkpt lat="39.8612730" lon="-4.0217330">
        <ele>512.6</ele>
        <time>2019-07-08T07:35:49Z</time>
      </trkpt>
      <trkpt lat="39.8611950" lon="-4.0216080">
        <ele>513.4</ele>
        <time>2019-07-08T07:35:56Z</time>
      </trkpt>
      <trkpt lat="39.8611540" lon="-4.0215910">
        <ele>513.6</ele>
        <time>2019-07-08T07:35:58Z</time>
      </trkpt>
      <trkpt lat="39.8610820" lon="-4.0215450">
        <ele>514.0</ele>
        <time>2019-07-08T07:36:02Z</time>
      </trkpt>
      <trkpt lat="39.8610370" lon="-4.0214950">
        <ele>514.4</ele>
        <time>2019-07-08T07:36:05Z</time>
      </trkpt>
      <trkpt lat="39.8609780" lon="-4.0214280">
        <ele>514.6</ele>
        <time>2019-07-08T07:36:09Z</time>
      </trkpt>
      <trkpt lat="39.8609620" lon="-4.0214090">
        <ele>514.8</ele>
        <time>2019-07-08T07:36:10Z</time>
      </trkpt>
      <trkpt lat="39.8609290" lon="-4.0213680">
        <ele>515.2</ele>
        <time>2019-07-08T07:36:12Z</time>
      </trkpt>
      <trkpt lat="39.8608950" lon="-4.0213260">
        <ele>515.6</ele>
        <time>2019-07-08T07:36:14Z</time>
      </trkpt>
      <trkpt lat="39.8608450" lon="-4.0212680">
        <ele>515.8</ele>
        <time>2019-07-08T07:36:17Z</time>
      </trkpt>
      <trkpt lat="39.8607850" lon="-4.0211910">
        <ele>516.4</ele>
        <time>2019-07-08T07:36:21Z</time>
      </trkpt>
      <trkpt lat="39.8607140" lon="-4.0211430">
        <ele>516.8</ele>
        <time>2019-07-08T07:36:25Z</time>
      </trkpt>
      <trkpt lat="39.8606970" lon="-4.0211410">
        <ele>516.8</ele>
        <time>2019-07-08T07:36:26Z</time>
      </trkpt>
      <trkpt lat="39.8606040" lon="-4.0211250">
        <ele>517.6</ele>
        <time>2019-07-08T07:36:31Z</time>
      </trkpt>
      <trkpt lat="39.8605880" lon="-4.0211120">
        <ele>517.8</ele>
        <time>2019-07-08T07:36:32Z</time>
      </trkpt>
      <trkpt lat="39.8605240" lon="-4.0210680">
        <ele>518.6</ele>
        <time>2019-07-08T07:36:36Z</time>
      </trkpt>
      <trkpt lat="39.8604900" lon="-4.0210540">
        <ele>518.8</ele>
        <time>2019-07-08T07:36:38Z</time>
      </trkpt>
      <trkpt lat="39.8604700" lon="-4.0210520">
        <ele>519.0</ele>
        <time>2019-07-08T07:36:39Z</time>
      </trkpt>
      <trkpt lat="39.8604350" lon="-4.0210540">
        <ele>519.4</ele>
        <time>2019-07-08T07:36:41Z</time>
      </trkpt>
      <trkpt lat="39.8603880" lon="-4.0210870">
        <ele>520.0</ele>
        <time>2019-07-08T07:36:46Z</time>
      </trkpt>
      <trkpt lat="39.8603110" lon="-4.0211430">
        <ele>520.4</ele>
        <time>2019-07-08T07:38:10Z</time>
      </trkpt>
      <trkpt lat="39.8602970" lon="-4.0211440">
        <ele>520.6</ele>
        <time>2019-07-08T07:38:11Z</time>
      </trkpt>
      <trkpt lat="39.8602860" lon="-4.0211470">
        <ele>520.6</ele>
        <time>2019-07-08T07:38:12Z</time>
      </trkpt>
      <trkpt lat="39.8602410" lon="-4.0211540">
        <ele>521.0</ele>
        <time>2019-07-08T07:38:15Z</time>
      </trkpt>
      <trkpt lat="39.8602070" lon="-4.0211510">
        <ele>521.6</ele>
        <time>2019-07-08T07:38:18Z</time>
      </trkpt>
      <trkpt lat="39.8601940" lon="-4.0211540">
        <ele>521.8</ele>
        <time>2019-07-08T07:38:19Z</time>
      </trkpt>
      <trkpt lat="39.8601690" lon="-4.0211610">
        <ele>521.8</ele>
        <time>2019-07-08T07:38:21Z</time>
      </trkpt>
      <trkpt lat="39.8601380" lon="-4.0211650">
        <ele>522.0</ele>
        <time>2019-07-08T07:38:23Z</time>
      </trkpt>
      <trkpt lat="39.8601020" lon="-4.0211380">
        <ele>522.2</ele>
        <time>2019-07-08T07:38:25Z</time>
      </trkpt>
      <trkpt lat="39.8600330" lon="-4.0211210">
        <ele>522.6</ele>
        <time>2019-07-08T07:38:28Z</time>
      </trkpt>
      <trkpt lat="39.8599510" lon="-4.0211000">
        <ele>523.4</ele>
        <time>2019-07-08T07:38:31Z</time>
      </trkpt>
      <trkpt lat="39.8599310" lon="-4.0211120">
        <ele>523.6</ele>
        <time>2019-07-08T07:38:32Z</time>
      </trkpt>
      <trkpt lat="39.8598950" lon="-4.0211350">
        <ele>524.2</ele>
        <time>2019-07-08T07:38:34Z</time>
      </trkpt>
      <trkpt lat="39.8598800" lon="-4.0211450">
        <ele>524.4</ele>
        <time>2019-07-08T07:38:35Z</time>
      </trkpt>
      <trkpt lat="39.8598360" lon="-4.0211670">
        <ele>524.8</ele>
        <time>2019-07-08T07:38:37Z</time>
      </trkpt>
      <trkpt lat="39.8597540" lon="-4.0212450">
        <ele>525.4</ele>
        <time>2019-07-08T07:38:41Z</time>
      </trkpt>
      <trkpt lat="39.8597320" lon="-4.0212620">
        <ele>525.4</ele>
        <time>2019-07-08T07:38:42Z</time>
      </trkpt>
      <trkpt lat="39.8596930" lon="-4.0213070">
        <ele>525.6</ele>
        <time>2019-07-08T07:38:44Z</time>
      </trkpt>
      <trkpt lat="39.8596030" lon="-4.0214670">
        <ele>526.0</ele>
        <time>2019-07-08T07:38:50Z</time>
      </trkpt>
      <trkpt lat="39.8595050" lon="-4.0216790">
        <ele>526.2</ele>
        <time>2019-07-08T07:38:57Z</time>
      </trkpt>
      <trkpt lat="39.8594710" lon="-4.0217770">
        <ele>526.2</ele>
        <time>2019-07-08T07:39:00Z</time>
      </trkpt>
      <trkpt lat="39.8594600" lon="-4.0218090">
        <ele>526.4</ele>
        <time>2019-07-08T07:39:01Z</time>
      </trkpt>
      <trkpt lat="39.8594110" lon="-4.0219280">
        <ele>526.6</ele>
        <time>2019-07-08T07:39:05Z</time>
      </trkpt>
      <trkpt lat="39.8593740" lon="-4.0219940">
        <ele>526.8</ele>
        <time>2019-07-08T07:39:08Z</time>
      </trkpt>
      <trkpt lat="39.8593680" lon="-4.0220080">
        <ele>526.8</ele>
        <time>2019-07-08T07:39:09Z</time>
      </trkpt>
      <trkpt lat="39.8593640" lon="-4.0220190">
        <ele>526.8</ele>
        <time>2019-07-08T07:39:10Z</time>
      </trkpt>
      <trkpt lat="39.8593370" lon="-4.0220670">
        <ele>526.8</ele>
        <time>2019-07-08T07:39:14Z</time>
      </trkpt>
      <trkpt lat="39.8593300" lon="-4.0220820">
        <ele>526.8</ele>
        <time>2019-07-08T07:39:15Z</time>
      </trkpt>
      <trkpt lat="39.8593120" lon="-4.0221100">
        <ele>526.8</ele>
        <time>2019-07-08T07:39:17Z</time>
      </trkpt>
      <trkpt lat="39.8593050" lon="-4.0221260">
        <ele>526.8</ele>
        <time>2019-07-08T07:39:18Z</time>
      </trkpt>
      <trkpt lat="39.8592830" lon="-4.0221820">
        <ele>526.6</ele>
        <time>2019-07-08T07:39:21Z</time>
      </trkpt>
      <trkpt lat="39.8591980" lon="-4.0222760">
        <ele>526.2</ele>
        <time>2019-07-08T07:39:26Z</time>
      </trkpt>
      <trkpt lat="39.8591040" lon="-4.0223750">
        <ele>526.2</ele>
        <time>2019-07-08T07:39:30Z</time>
      </trkpt>
      <trkpt lat="39.8590600" lon="-4.0224020">
        <ele>526.0</ele>
        <time>2019-07-08T07:39:32Z</time>
      </trkpt>
      <trkpt lat="39.8589970" lon="-4.0224650">
        <ele>525.8</ele>
        <time>2019-07-08T07:39:35Z</time>
      </trkpt>
      <trkpt lat="39.8589850" lon="-4.0224940">
        <ele>525.6</ele>
        <time>2019-07-08T07:39:36Z</time>
      </trkpt>
      <trkpt lat="39.8589700" lon="-4.0225120">
        <ele>525.4</ele>
        <time>2019-07-08T07:39:37Z</time>
      </trkpt>
      <trkpt lat="39.8589460" lon="-4.0225380">
        <ele>525.0</ele>
        <time>2019-07-08T07:39:39Z</time>
      </trkpt>
      <trkpt lat="39.8588370" lon="-4.0226160">
        <ele>524.6</ele>
        <time>2019-07-08T07:39:43Z</time>
      </trkpt>
      <trkpt lat="39.8587630" lon="-4.0226610">
        <ele>524.2</ele>
        <time>2019-07-08T07:39:45Z</time>
      </trkpt>
      <trkpt lat="39.8586570" lon="-4.0227450">
        <ele>523.8</ele>
        <time>2019-07-08T07:39:48Z</time>
      </trkpt>
      <trkpt lat="39.8585140" lon="-4.0229260">
        <ele>522.6</ele>
        <time>2019-07-08T07:39:52Z</time>
      </trkpt>
      <trkpt lat="39.8584560" lon="-4.0229870">
        <ele>521.4</ele>
        <time>2019-07-08T07:39:55Z</time>
      </trkpt>
      <trkpt lat="39.8583630" lon="-4.0230170">
        <ele>520.8</ele>
        <time>2019-07-08T07:40:00Z</time>
      </trkpt>
      <trkpt lat="39.8582660" lon="-4.0231230">
        <ele>520.6</ele>
        <time>2019-07-08T07:40:06Z</time>
      </trkpt>
      <trkpt lat="39.8582390" lon="-4.0231730">
        <ele>520.4</ele>
        <time>2019-07-08T07:40:08Z</time>
      </trkpt>
      <trkpt lat="39.8582180" lon="-4.0231820">
        <ele>520.2</ele>
        <time>2019-07-08T07:40:09Z</time>
      </trkpt>
      <trkpt lat="39.8581080" lon="-4.0232390">
        <ele>519.6</ele>
        <time>2019-07-08T07:40:14Z</time>
      </trkpt>
      <trkpt lat="39.8580710" lon="-4.0232420">
        <ele>519.2</ele>
        <time>2019-07-08T07:40:15Z</time>
      </trkpt>
      <trkpt lat="39.8579300" lon="-4.0232900">
        <ele>518.0</ele>
        <time>2019-07-08T07:40:18Z</time>
      </trkpt>
      <trkpt lat="39.8578820" lon="-4.0233100">
        <ele>517.4</ele>
        <time>2019-07-08T07:40:19Z</time>
      </trkpt>
      <trkpt lat="39.8578370" lon="-4.0233280">
        <ele>516.4</ele>
        <time>2019-07-08T07:40:20Z</time>
      </trkpt>
      <trkpt lat="39.8578020" lon="-4.0233410">
        <ele>515.2</ele>
        <time>2019-07-08T07:40:21Z</time>
      </trkpt>
      <trkpt lat="39.8577560" lon="-4.0233630">
        <ele>514.2</ele>
        <time>2019-07-08T07:40:23Z</time>
      </trkpt>
      <trkpt lat="39.8577420" lon="-4.0233810">
        <ele>514.0</ele>
        <time>2019-07-08T07:40:24Z</time>
      </trkpt>
      <trkpt lat="39.8577250" lon="-4.0233720">
        <ele>513.8</ele>
        <time>2019-07-08T07:40:26Z</time>
      </trkpt>
      <trkpt lat="39.8577080" lon="-4.0233090">
        <ele>513.8</ele>
        <time>2019-07-08T07:40:28Z</time>
      </trkpt>
      <trkpt lat="39.8577000" lon="-4.0232360">
        <ele>513.6</ele>
        <time>2019-07-08T07:40:30Z</time>
      </trkpt>
      <trkpt lat="39.8576790" lon="-4.0231130">
        <ele>513.2</ele>
        <time>2019-07-08T07:40:33Z</time>
      </trkpt>
      <trkpt lat="39.8576620" lon="-4.0230260">
        <ele>513.2</ele>
        <time>2019-07-08T07:40:35Z</time>
      </trkpt>
      <trkpt lat="39.8576540" lon="-4.0229870">
        <ele>513.0</ele>
        <time>2019-07-08T07:40:36Z</time>
      </trkpt>
      <trkpt lat="39.8576390" lon="-4.0228940">
        <ele>512.8</ele>
        <time>2019-07-08T07:40:40Z</time>
      </trkpt>
      <trkpt lat="39.8576440" lon="-4.0228270">
        <ele>512.8</ele>
        <time>2019-07-08T07:40:45Z</time>
      </trkpt>
      <trkpt lat="39.8576340" lon="-4.0228030">
        <ele>512.8</ele>
        <time>2019-07-08T07:40:47Z</time>
      </trkpt>
      <trkpt lat="39.8576070" lon="-4.0227980">
        <ele>512.6</ele>
        <time>2019-07-08T07:40:50Z</time>
      </trkpt>
      <trkpt lat="39.8575940" lon="-4.0228040">
        <ele>512.0</ele>
        <time>2019-07-08T07:40:52Z</time>
      </trkpt>
      <trkpt lat="39.8575510" lon="-4.0228280">
        <ele>511.4</ele>
        <time>2019-07-08T07:40:56Z</time>
      </trkpt>
      <trkpt lat="39.8575310" lon="-4.0228390">
        <ele>511.2</ele>
        <time>2019-07-08T07:40:58Z</time>
      </trkpt>
      <trkpt lat="39.8574870" lon="-4.0228410">
        <ele>511.0</ele>
        <time>2019-07-08T07:41:00Z</time>
      </trkpt>
      <trkpt lat="39.8574540" lon="-4.0228380">
        <ele>511.0</ele>
        <time>2019-07-08T07:41:01Z</time>
      </trkpt>
      <trkpt lat="39.8573560" lon="-4.0228460">
        <ele>509.8</ele>
        <time>2019-07-08T07:41:04Z</time>
      </trkpt>
      <trkpt lat="39.8573190" lon="-4.0228460">
        <ele>508.6</ele>
        <time>2019-07-08T07:41:07Z</time>
      </trkpt>
      <trkpt lat="39.8572910" lon="-4.0228500">
        <ele>508.4</ele>
        <time>2019-07-08T07:41:10Z</time>
      </trkpt>
      <trkpt lat="39.8572740" lon="-4.0228790">
        <ele>508.4</ele>
        <time>2019-07-08T07:41:11Z</time>
      </trkpt>
      <trkpt lat="39.8572310" lon="-4.0228990">
        <ele>508.2</ele>
        <time>2019-07-08T07:41:13Z</time>
      </trkpt>
      <trkpt lat="39.8571760" lon="-4.0229170">
        <ele>507.4</ele>
        <time>2019-07-08T07:41:16Z</time>
      </trkpt>
      <trkpt lat="39.8571220" lon="-4.0228870">
        <ele>507.0</ele>
        <time>2019-07-08T07:41:17Z</time>
      </trkpt>
      <trkpt lat="39.8570790" lon="-4.0228510">
        <ele>506.6</ele>
        <time>2019-07-08T07:41:19Z</time>
      </trkpt>
      <trkpt lat="39.8570350" lon="-4.0228150">
        <ele>505.4</ele>
        <time>2019-07-08T07:41:43Z</time>
      </trkpt>
      <trkpt lat="39.8569910" lon="-4.0227790">
        <ele>505.2</ele>
        <time>2019-07-08T07:41:44Z</time>
      </trkpt>
      <trkpt lat="39.8569540" lon="-4.0228050">
        <ele>504.8</ele>
        <time>2019-07-08T07:41:47Z</time>
      </trkpt>
      <trkpt lat="39.8569450" lon="-4.0228670">
        <ele>504.6</ele>
        <time>2019-07-08T07:41:49Z</time>
      </trkpt>
      <trkpt lat="39.8569440" lon="-4.0229380">
        <ele>505.0</ele>
        <time>2019-07-08T07:41:51Z</time>
      </trkpt>
      <trkpt lat="39.8569420" lon="-4.0229700">
        <ele>505.2</ele>
        <time>2019-07-08T07:41:52Z</time>
      </trkpt>
      <trkpt lat="39.8569280" lon="-4.0230270">
        <ele>505.6</ele>
        <time>2019-07-08T07:41:54Z</time>
      </trkpt>
      <trkpt lat="39.8568920" lon="-4.0230700">
        <ele>506.0</ele>
        <time>2019-07-08T07:41:56Z</time>
      </trkpt>
      <trkpt lat="39.8568760" lon="-4.0230940">
        <ele>506.6</ele>
        <time>2019-07-08T07:41:57Z</time>
      </trkpt>
      <trkpt lat="39.8568650" lon="-4.0231150">
        <ele>507.2</ele>
        <time>2019-07-08T07:41:58Z</time>
      </trkpt>
      <trkpt lat="39.8568330" lon="-4.0231650">
        <ele>507.8</ele>
        <time>2019-07-08T07:42:00Z</time>
      </trkpt>
      <trkpt lat="39.8568240" lon="-4.0231910">
        <ele>508.2</ele>
        <time>2019-07-08T07:42:01Z</time>
      </trkpt>
      <trkpt lat="39.8568300" lon="-4.0232580">
        <ele>509.0</ele>
        <time>2019-07-08T07:42:04Z</time>
      </trkpt>
      <trkpt lat="39.8568290" lon="-4.0232780">
        <ele>509.4</ele>
        <time>2019-07-08T07:42:05Z</time>
      </trkpt>
      <trkpt lat="39.8568450" lon="-4.0233820">
        <ele>509.6</ele>
        <time>2019-07-08T07:42:09Z</time>
      </trkpt>
      <trkpt lat="39.8568590" lon="-4.0234420">
        <ele>510.0</ele>
        <time>2019-07-08T07:42:11Z</time>
      </trkpt>
      <trkpt lat="39.8568640" lon="-4.0234730">
        <ele>510.0</ele>
        <time>2019-07-08T07:42:12Z</time>
      </trkpt>
      <trkpt lat="39.8568650" lon="-4.0235400">
        <ele>510.2</ele>
        <time>2019-07-08T07:42:14Z</time>
      </trkpt>
      <trkpt lat="39.8568570" lon="-4.0236100">
        <ele>510.4</ele>
        <time>2019-07-08T07:42:16Z</time>
      </trkpt>
      <trkpt lat="39.8568530" lon="-4.0236460">
        <ele>510.6</ele>
        <time>2019-07-08T07:42:17Z</time>
      </trkpt>
      <trkpt lat="39.8568430" lon="-4.0237180">
        <ele>510.6</ele>
        <time>2019-07-08T07:42:19Z</time>
      </trkpt>
      <trkpt lat="39.8568410" lon="-4.0237930">
        <ele>510.8</ele>
        <time>2019-07-08T07:42:21Z</time>
      </trkpt>
      <trkpt lat="39.8568400" lon="-4.0238590">
        <ele>511.0</ele>
        <time>2019-07-08T07:42:23Z</time>
      </trkpt>
      <trkpt lat="39.8568360" lon="-4.0239250">
        <ele>511.0</ele>
        <time>2019-07-08T07:42:25Z</time>
      </trkpt>
      <trkpt lat="39.8568360" lon="-4.0240160">
        <ele>511.4</ele>
        <time>2019-07-08T07:42:29Z</time>
      </trkpt>
      <trkpt lat="39.8568370" lon="-4.0240160">
        <ele>511.4</ele>
        <time>2019-07-08T07:42:30Z</time>
      </trkpt>
      <trkpt lat="39.8567770" lon="-4.0240720">
        <ele>511.4</ele>
        <time>2019-07-08T07:43:26Z</time>
      </trkpt>
      <trkpt lat="39.8567790" lon="-4.0240940">
        <ele>511.4</ele>
        <time>2019-07-08T07:43:27Z</time>
      </trkpt>
      <trkpt lat="39.8567790" lon="-4.0241170">
        <ele>511.4</ele>
        <time>2019-07-08T07:43:28Z</time>
      </trkpt>
      <trkpt lat="39.8567820" lon="-4.0242610">
        <ele>511.8</ele>
        <time>2019-07-08T07:43:33Z</time>
      </trkpt>
      <trkpt lat="39.8567810" lon="-4.0243560">
        <ele>512.0</ele>
        <time>2019-07-08T07:43:36Z</time>
      </trkpt>
      <trkpt lat="39.8567810" lon="-4.0244370">
        <ele>512.2</ele>
        <time>2019-07-08T07:43:39Z</time>
      </trkpt>
      <trkpt lat="39.8567890" lon="-4.0244630">
        <ele>512.2</ele>
        <time>2019-07-08T07:43:40Z</time>
      </trkpt>
      <trkpt lat="39.8568250" lon="-4.0245320">
        <ele>512.0</ele>
        <time>2019-07-08T07:43:43Z</time>
      </trkpt>
      <trkpt lat="39.8568370" lon="-4.0245510">
        <ele>511.6</ele>
        <time>2019-07-08T07:43:44Z</time>
      </trkpt>
      <trkpt lat="39.8569100" lon="-4.0246110">
        <ele>512.0</ele>
        <time>2019-07-08T07:43:48Z</time>
      </trkpt>
      <trkpt lat="39.8569590" lon="-4.0246580">
        <ele>512.4</ele>
        <time>2019-07-08T07:43:51Z</time>
      </trkpt>
      <trkpt lat="39.8569860" lon="-4.0246680">
        <ele>512.4</ele>
        <time>2019-07-08T07:43:53Z</time>
      </trkpt>
      <trkpt lat="39.8569980" lon="-4.0246970">
        <ele>512.8</ele>
        <time>2019-07-08T07:43:58Z</time>
      </trkpt>
      <trkpt lat="39.8569930" lon="-4.0247180">
        <ele>512.8</ele>
        <time>2019-07-08T07:43:59Z</time>
      </trkpt>
      <trkpt lat="39.8570650" lon="-4.0247530">
        <ele>513.8</ele>
        <time>2019-07-08T07:51:59Z</time>
      </trkpt>
      <trkpt lat="39.8571160" lon="-4.0247240">
        <ele>513.8</ele>
        <time>2019-07-08T07:52:01Z</time>
      </trkpt>
      <trkpt lat="39.8572770" lon="-4.0246720">
        <ele>514.2</ele>
        <time>2019-07-08T07:52:08Z</time>
      </trkpt>
      <trkpt lat="39.8573330" lon="-4.0246730">
        <ele>514.4</ele>
        <time>2019-07-08T07:52:11Z</time>
      </trkpt>
      <trkpt lat="39.8573490" lon="-4.0246710">
        <ele>514.6</ele>
        <time>2019-07-08T07:52:12Z</time>
      </trkpt>
      <trkpt lat="39.8573780" lon="-4.0246670">
        <ele>515.0</ele>
        <time>2019-07-08T07:52:14Z</time>
      </trkpt>
      <trkpt lat="39.8574120" lon="-4.0246660">
        <ele>515.4</ele>
        <time>2019-07-08T07:52:16Z</time>
      </trkpt>
      <trkpt lat="39.8574420" lon="-4.0246780">
        <ele>515.8</ele>
        <time>2019-07-08T07:52:18Z</time>
      </trkpt>
      <trkpt lat="39.8574770" lon="-4.0246890">
        <ele>516.4</ele>
        <time>2019-07-08T07:52:20Z</time>
      </trkpt>
      <trkpt lat="39.8574900" lon="-4.0246900">
        <ele>516.6</ele>
        <time>2019-07-08T07:52:21Z</time>
      </trkpt>
      <trkpt lat="39.8575210" lon="-4.0246850">
        <ele>517.0</ele>
        <time>2019-07-08T07:52:23Z</time>
      </trkpt>
      <trkpt lat="39.8575650" lon="-4.0246750">
        <ele>517.8</ele>
        <time>2019-07-08T07:52:27Z</time>
      </trkpt>
      <trkpt lat="39.8575780" lon="-4.0246770">
        <ele>518.0</ele>
        <time>2019-07-08T07:52:28Z</time>
      </trkpt>
      <trkpt lat="39.8575920" lon="-4.0246760">
        <ele>518.4</ele>
        <time>2019-07-08T07:52:30Z</time>
      </trkpt>
      <trkpt lat="39.8576490" lon="-4.0246520">
        <ele>519.0</ele>
        <time>2019-07-08T07:52:34Z</time>
      </trkpt>
      <trkpt lat="39.8576630" lon="-4.0246520">
        <ele>519.2</ele>
        <time>2019-07-08T07:52:35Z</time>
      </trkpt>
      <trkpt lat="39.8576740" lon="-4.0246550">
        <ele>519.4</ele>
        <time>2019-07-08T07:52:36Z</time>
      </trkpt>
      <trkpt lat="39.8576730" lon="-4.0246570">
        <ele>519.8</ele>
        <time>2019-07-08T07:52:38Z</time>
      </trkpt>
      <trkpt lat="39.8576720" lon="-4.0246670">
        <ele>519.8</ele>
        <time>2019-07-08T07:52:39Z</time>
      </trkpt>
      <trkpt lat="39.8576610" lon="-4.0247300">
        <ele>520.2</ele>
        <time>2019-07-08T07:52:43Z</time>
      </trkpt>
      <trkpt lat="39.8576610" lon="-4.0248080">
        <ele>520.8</ele>
        <time>2019-07-08T07:52:47Z</time>
      </trkpt>
      <trkpt lat="39.8576520" lon="-4.0248430">
        <ele>521.2</ele>
        <time>2019-07-08T07:52:49Z</time>
      </trkpt>
      <trkpt lat="39.8576470" lon="-4.0248690">
        <ele>521.2</ele>
        <time>2019-07-08T07:52:50Z</time>
      </trkpt>
      <trkpt lat="39.8576490" lon="-4.0249610">
        <ele>522.2</ele>
        <time>2019-07-08T07:52:53Z</time>
      </trkpt>
      <trkpt lat="39.8576450" lon="-4.0249880">
        <ele>522.6</ele>
        <time>2019-07-08T07:52:54Z</time>
      </trkpt>
      <trkpt lat="39.8576380" lon="-4.0250090">
        <ele>523.2</ele>
        <time>2019-07-08T07:52:55Z</time>
      </trkpt>
      <trkpt lat="39.8576080" lon="-4.0250570">
        <ele>523.8</ele>
        <time>2019-07-08T07:52:57Z</time>
      </trkpt>
      <trkpt lat="39.8575680" lon="-4.0251100">
        <ele>524.6</ele>
        <time>2019-07-08T07:52:59Z</time>
      </trkpt>
      <trkpt lat="39.8575540" lon="-4.0251300">
        <ele>525.0</ele>
        <time>2019-07-08T07:53:00Z</time>
      </trkpt>
      <trkpt lat="39.8575330" lon="-4.0251560">
        <ele>525.8</ele>
        <time>2019-07-08T07:53:02Z</time>
      </trkpt>
      <trkpt lat="39.8575200" lon="-4.0251590">
        <ele>526.2</ele>
        <time>2019-07-08T07:53:03Z</time>
      </trkpt>
      <trkpt lat="39.8575080" lon="-4.0251720">
        <ele>526.6</ele>
        <time>2019-07-08T07:53:05Z</time>
      </trkpt>
      <trkpt lat="39.8574670" lon="-4.0252120">
        <ele>527.4</ele>
        <time>2019-07-08T07:53:08Z</time>
      </trkpt>
      <trkpt lat="39.8574500" lon="-4.0252300">
        <ele>527.4</ele>
        <time>2019-07-08T07:53:09Z</time>
      </trkpt>
      <trkpt lat="39.8574360" lon="-4.0252520">
        <ele>527.6</ele>
        <time>2019-07-08T07:53:10Z</time>
      </trkpt>
      <trkpt lat="39.8573670" lon="-4.0253290">
        <ele>528.4</ele>
        <time>2019-07-08T07:53:15Z</time>
      </trkpt>
      <trkpt lat="39.8573140" lon="-4.0253730">
        <ele>529.0</ele>
        <time>2019-07-08T07:53:19Z</time>
      </trkpt>
      <trkpt lat="39.8572180" lon="-4.0254500">
        <ele>529.2</ele>
        <time>2019-07-08T07:53:25Z</time>
      </trkpt>
      <trkpt lat="39.8572000" lon="-4.0254670">
        <ele>529.4</ele>
        <time>2019-07-08T07:53:26Z</time>
      </trkpt>
      <trkpt lat="39.8571600" lon="-4.0255570">
        <ele>529.6</ele>
        <time>2019-07-08T07:53:30Z</time>
      </trkpt>
      <trkpt lat="39.8571500" lon="-4.0256100">
        <ele>529.8</ele>
        <time>2019-07-08T07:53:32Z</time>
      </trkpt>
      <trkpt lat="39.8571530" lon="-4.0256650">
        <ele>530.0</ele>
        <time>2019-07-08T07:53:34Z</time>
      </trkpt>
      <trkpt lat="39.8571560" lon="-4.0257240">
        <ele>530.2</ele>
        <time>2019-07-08T07:53:36Z</time>
      </trkpt>
      <trkpt lat="39.8571430" lon="-4.0257980">
        <ele>530.2</ele>
        <time>2019-07-08T07:53:39Z</time>
      </trkpt>
      <trkpt lat="39.8571310" lon="-4.0258280">
        <ele>530.2</ele>
        <time>2019-07-08T07:53:40Z</time>
      </trkpt>
      <trkpt lat="39.8571280" lon="-4.0259080">
        <ele>530.2</ele>
        <time>2019-07-08T07:53:42Z</time>
      </trkpt>
      <trkpt lat="39.8571180" lon="-4.0259530">
        <ele>530.0</ele>
        <time>2019-07-08T07:53:43Z</time>
      </trkpt>
      <trkpt lat="39.8571030" lon="-4.0259970">
        <ele>529.8</ele>
        <time>2019-07-08T07:53:44Z</time>
      </trkpt>
      <trkpt lat="39.8570880" lon="-4.0260330">
        <ele>529.4</ele>
        <time>2019-07-08T07:53:45Z</time>
      </trkpt>
      <trkpt lat="39.8570540" lon="-4.0261050">
        <ele>528.8</ele>
        <time>2019-07-08T07:53:47Z</time>
      </trkpt>
      <trkpt lat="39.8570080" lon="-4.0261940">
        <ele>528.4</ele>
        <time>2019-07-08T07:53:49Z</time>
      </trkpt>
      <trkpt lat="39.8569790" lon="-4.0262700">
        <ele>528.2</ele>
        <time>2019-07-08T07:53:51Z</time>
      </trkpt>
      <trkpt lat="39.8569640" lon="-4.0263730">
        <ele>527.8</ele>
        <time>2019-07-08T07:53:53Z</time>
      </trkpt>
      <trkpt lat="39.8569300" lon="-4.0265030">
        <ele>527.0</ele>
        <time>2019-07-08T07:53:56Z</time>
      </trkpt>
      <trkpt lat="39.8569170" lon="-4.0265970">
        <ele>526.4</ele>
        <time>2019-07-08T07:53:58Z</time>
      </trkpt>
      <trkpt lat="39.8569080" lon="-4.0266350">
        <ele>525.8</ele>
        <time>2019-07-08T07:53:59Z</time>
      </trkpt>
      <trkpt lat="39.8568790" lon="-4.0266900">
        <ele>525.2</ele>
        <time>2019-07-08T07:54:01Z</time>
      </trkpt>
      <trkpt lat="39.8568730" lon="-4.0267100">
        <ele>525.0</ele>
        <time>2019-07-08T07:54:02Z</time>
      </trkpt>
      <trkpt lat="39.8568650" lon="-4.0267290">
        <ele>525.0</ele>
        <time>2019-07-08T07:54:03Z</time>
      </trkpt>
      <trkpt lat="39.8568220" lon="-4.0268040">
        <ele>524.6</ele>
        <time>2019-07-08T07:54:06Z</time>
      </trkpt>
      <trkpt lat="39.8568060" lon="-4.0268260">
        <ele>524.4</ele>
        <time>2019-07-08T07:54:07Z</time>
      </trkpt>
      <trkpt lat="39.8567430" lon="-4.0268650">
        <ele>524.4</ele>
        <time>2019-07-08T07:54:10Z</time>
      </trkpt>
      <trkpt lat="39.8567190" lon="-4.0269710">
        <ele>524.2</ele>
        <time>2019-07-08T07:54:15Z</time>
      </trkpt>
      <trkpt lat="39.8567860" lon="-4.0270620">
        <ele>524.4</ele>
        <time>2019-07-08T07:54:20Z</time>
      </trkpt>
      <trkpt lat="39.8568300" lon="-4.0271200">
        <ele>524.4</ele>
        <time>2019-07-08T07:54:24Z</time>
      </trkpt>
      <trkpt lat="39.8568410" lon="-4.0271440">
        <ele>524.4</ele>
        <time>2019-07-08T07:54:26Z</time>
      </trkpt>
      <trkpt lat="39.8568630" lon="-4.0272300">
        <ele>524.6</ele>
        <time>2019-07-08T07:54:31Z</time>
      </trkpt>
      <trkpt lat="39.8569220" lon="-4.0273110">
        <ele>524.8</ele>
        <time>2019-07-08T07:54:36Z</time>
      </trkpt>
      <trkpt lat="39.8569680" lon="-4.0273790">
        <ele>525.2</ele>
        <time>2019-07-08T07:54:40Z</time>
      </trkpt>
      <trkpt lat="39.8569820" lon="-4.0274270">
        <ele>525.4</ele>
        <time>2019-07-08T07:54:42Z</time>
      </trkpt>
      <trkpt lat="39.8569930" lon="-4.0274980">
        <ele>525.0</ele>
        <time>2019-07-08T07:54:45Z</time>
      </trkpt>
      <trkpt lat="39.8569670" lon="-4.0275790">
        <ele>524.8</ele>
        <time>2019-07-08T07:54:48Z</time>
      </trkpt>
      <trkpt lat="39.8569400" lon="-4.0276440">
        <ele>524.8</ele>
        <time>2019-07-08T07:54:51Z</time>
      </trkpt>
      <trkpt lat="39.8569390" lon="-4.0277050">
        <ele>525.0</ele>
        <time>2019-07-08T07:54:54Z</time>
      </trkpt>
      <trkpt lat="39.8569390" lon="-4.0277580">
        <ele>524.8</ele>
        <time>2019-07-08T07:54:56Z</time>
      </trkpt>
      <trkpt lat="39.8569340" lon="-4.0278390">
        <ele>524.6</ele>
        <time>2019-07-08T07:54:59Z</time>
      </trkpt>
      <trkpt lat="39.8569340" lon="-4.0278540">
        <ele>524.6</ele>
        <time>2019-07-08T07:55:00Z</time>
      </trkpt>
      <trkpt lat="39.8569100" lon="-4.0279010">
        <ele>524.4</ele>
        <time>2019-07-08T07:55:04Z</time>
      </trkpt>
      <trkpt lat="39.8569070" lon="-4.0279010">
        <ele>524.4</ele>
        <time>2019-07-08T07:55:06Z</time>
      </trkpt>
      <trkpt lat="39.8568780" lon="-4.0279820">
        <ele>523.4</ele>
        <time>2019-07-08T08:05:00Z</time>
      </trkpt>
      <trkpt lat="39.8568730" lon="-4.0279580">
        <ele>523.6</ele>
        <time>2019-07-08T08:05:01Z</time>
      </trkpt>
      <trkpt lat="39.8568730" lon="-4.0279300">
        <ele>523.6</ele>
        <time>2019-07-08T08:05:02Z</time>
      </trkpt>
      <trkpt lat="39.8568640" lon="-4.0278720">
        <ele>523.6</ele>
        <time>2019-07-08T08:05:04Z</time>
      </trkpt>
      <trkpt lat="39.8568610" lon="-4.0277940">
        <ele>523.8</ele>
        <time>2019-07-08T08:05:07Z</time>
      </trkpt>
      <trkpt lat="39.8568690" lon="-4.0277810">
        <ele>523.8</ele>
        <time>2019-07-08T08:05:08Z</time>
      </trkpt>
      <trkpt lat="39.8569460" lon="-4.0276720">
        <ele>524.2</ele>
        <time>2019-07-08T08:05:13Z</time>
      </trkpt>
      <trkpt lat="39.8569810" lon="-4.0276370">
        <ele>524.4</ele>
        <time>2019-07-08T08:05:15Z</time>
      </trkpt>
      <trkpt lat="39.8569980" lon="-4.0276220">
        <ele>524.6</ele>
        <time>2019-07-08T08:05:16Z</time>
      </trkpt>
      <trkpt lat="39.8570390" lon="-4.0275980">
        <ele>525.0</ele>
        <time>2019-07-08T08:05:18Z</time>
      </trkpt>
      <trkpt lat="39.8570780" lon="-4.0275690">
        <ele>525.8</ele>
        <time>2019-07-08T08:05:20Z</time>
      </trkpt>
      <trkpt lat="39.8571220" lon="-4.0275480">
        <ele>526.4</ele>
        <time>2019-07-08T08:05:22Z</time>
      </trkpt>
      <trkpt lat="39.8571620" lon="-4.0275280">
        <ele>526.8</ele>
        <time>2019-07-08T08:05:24Z</time>
      </trkpt>
      <trkpt lat="39.8571620" lon="-4.0274770">
        <ele>527.2</ele>
        <time>2019-07-08T08:05:25Z</time>
      </trkpt>
      <trkpt lat="39.8571830" lon="-4.0274180">
        <ele>527.6</ele>
        <time>2019-07-08T08:05:27Z</time>
      </trkpt>
      <trkpt lat="39.8572240" lon="-4.0273640">
        <ele>527.8</ele>
        <time>2019-07-08T08:05:29Z</time>
      </trkpt>
      <trkpt lat="39.8572420" lon="-4.0273340">
        <ele>527.8</ele>
        <time>2019-07-08T08:05:30Z</time>
      </trkpt>
      <trkpt lat="39.8572640" lon="-4.0273000">
        <ele>528.0</ele>
        <time>2019-07-08T08:05:31Z</time>
      </trkpt>
      <trkpt lat="39.8572780" lon="-4.0272770">
        <ele>528.2</ele>
        <time>2019-07-08T08:05:32Z</time>
      </trkpt>
      <trkpt lat="39.8572870" lon="-4.0272190">
        <ele>528.4</ele>
        <time>2019-07-08T08:05:34Z</time>
      </trkpt>
      <trkpt lat="39.8572920" lon="-4.0271250">
        <ele>529.2</ele>
        <time>2019-07-08T08:05:37Z</time>
      </trkpt>
      <trkpt lat="39.8572930" lon="-4.0270000">
        <ele>529.8</ele>
        <time>2019-07-08T08:05:41Z</time>
      </trkpt>
      <trkpt lat="39.8572930" lon="-4.0269560">
        <ele>530.2</ele>
        <time>2019-07-08T08:05:43Z</time>
      </trkpt>
      <trkpt lat="39.8572920" lon="-4.0269360">
        <ele>530.4</ele>
        <time>2019-07-08T08:05:44Z</time>
      </trkpt>
      <trkpt lat="39.8573010" lon="-4.0268980">
        <ele>531.0</ele>
        <time>2019-07-08T08:05:46Z</time>
      </trkpt>
      <trkpt lat="39.8573120" lon="-4.0268550">
        <ele>531.2</ele>
        <time>2019-07-08T08:05:48Z</time>
      </trkpt>
      <trkpt lat="39.8573160" lon="-4.0268160">
        <ele>531.4</ele>
        <time>2019-07-08T08:05:49Z</time>
      </trkpt>
      <trkpt lat="39.8573350" lon="-4.0267140">
        <ele>532.0</ele>
        <time>2019-07-08T08:05:52Z</time>
      </trkpt>
      <trkpt lat="39.8573490" lon="-4.0266290">
        <ele>532.4</ele>
        <time>2019-07-08T08:05:55Z</time>
      </trkpt>
      <trkpt lat="39.8573750" lon="-4.0265340">
        <ele>533.0</ele>
        <time>2019-07-08T08:05:58Z</time>
      </trkpt>
      <trkpt lat="39.8573860" lon="-4.0264330">
        <ele>533.4</ele>
        <time>2019-07-08T08:06:01Z</time>
      </trkpt>
      <trkpt lat="39.8574180" lon="-4.0263430">
        <ele>534.0</ele>
        <time>2019-07-08T08:06:04Z</time>
      </trkpt>
      <trkpt lat="39.8574730" lon="-4.0262350">
        <ele>534.6</ele>
        <time>2019-07-08T08:06:09Z</time>
      </trkpt>
      <trkpt lat="39.8574880" lon="-4.0262260">
        <ele>534.6</ele>
        <time>2019-07-08T08:06:10Z</time>
      </trkpt>
      <trkpt lat="39.8574950" lon="-4.0262160">
        <ele>534.6</ele>
        <time>2019-07-08T08:06:12Z</time>
      </trkpt>
      <trkpt lat="39.8575770" lon="-4.0261520">
        <ele>535.0</ele>
        <time>2019-07-08T08:06:21Z</time>
      </trkpt>
      <trkpt lat="39.8575990" lon="-4.0261320">
        <ele>535.0</ele>
        <time>2019-07-08T08:06:22Z</time>
      </trkpt>
      <trkpt lat="39.8577340" lon="-4.0260290">
        <ele>534.8</ele>
        <time>2019-07-08T08:06:27Z</time>
      </trkpt>
      <trkpt lat="39.8577880" lon="-4.0260010">
        <ele>534.0</ele>
        <time>2019-07-08T08:06:29Z</time>
      </trkpt>
      <trkpt lat="39.8578130" lon="-4.0259960">
        <ele>533.8</ele>
        <time>2019-07-08T08:06:30Z</time>
      </trkpt>
      <trkpt lat="39.8578530" lon="-4.0259950">
        <ele>533.6</ele>
        <time>2019-07-08T08:06:32Z</time>
      </trkpt>
      <trkpt lat="39.8578720" lon="-4.0260060">
        <ele>533.6</ele>
        <time>2019-07-08T08:06:33Z</time>
      </trkpt>
      <trkpt lat="39.8578900" lon="-4.0260130">
        <ele>533.6</ele>
        <time>2019-07-08T08:06:34Z</time>
      </trkpt>
      <trkpt lat="39.8579170" lon="-4.0260010">
        <ele>533.4</ele>
        <time>2019-07-08T08:06:36Z</time>
      </trkpt>
      <trkpt lat="39.8579300" lon="-4.0259600">
        <ele>533.4</ele>
        <time>2019-07-08T08:06:39Z</time>
      </trkpt>
      <trkpt lat="39.8579410" lon="-4.0259350">
        <ele>533.4</ele>
        <time>2019-07-08T08:06:41Z</time>
      </trkpt>
      <trkpt lat="39.8579480" lon="-4.0259260">
        <ele>533.4</ele>
        <time>2019-07-08T08:06:42Z</time>
      </trkpt>
      <trkpt lat="39.8579260" lon="-4.0258510">
        <ele>533.0</ele>
        <time>2019-07-08T08:06:49Z</time>
      </trkpt>
      <trkpt lat="39.8579130" lon="-4.0258140">
        <ele>533.0</ele>
        <time>2019-07-08T08:06:50Z</time>
      </trkpt>
      <trkpt lat="39.8578930" lon="-4.0257460">
        <ele>532.2</ele>
        <time>2019-07-08T08:06:52Z</time>
      </trkpt>
      <trkpt lat="39.8579100" lon="-4.0256620">
        <ele>531.4</ele>
        <time>2019-07-08T08:06:55Z</time>
      </trkpt>
      <trkpt lat="39.8579240" lon="-4.0256390">
        <ele>531.2</ele>
        <time>2019-07-08T08:06:56Z</time>
      </trkpt>
      <trkpt lat="39.8579590" lon="-4.0256070">
        <ele>531.0</ele>
        <time>2019-07-08T08:06:57Z</time>
      </trkpt>
      <trkpt lat="39.8579800" lon="-4.0255890">
        <ele>530.2</ele>
        <time>2019-07-08T08:06:59Z</time>
      </trkpt>
      <trkpt lat="39.8580000" lon="-4.0255700">
        <ele>529.8</ele>
        <time>2019-07-08T08:07:00Z</time>
      </trkpt>
      <trkpt lat="39.8580210" lon="-4.0255520">
        <ele>529.2</ele>
        <time>2019-07-08T08:07:02Z</time>
      </trkpt>
      <trkpt lat="39.8580410" lon="-4.0255330">
        <ele>529.0</ele>
        <time>2019-07-08T08:07:03Z</time>
      </trkpt>
      <trkpt lat="39.8581070" lon="-4.0255200">
        <ele>528.6</ele>
        <time>2019-07-08T08:07:04Z</time>
      </trkpt>
      <trkpt lat="39.8581920" lon="-4.0254320">
        <ele>527.2</ele>
        <time>2019-07-08T08:07:06Z</time>
      </trkpt>
      <trkpt lat="39.8582680" lon="-4.0253510">
        <ele>526.2</ele>
        <time>2019-07-08T08:07:08Z</time>
      </trkpt>
      <trkpt lat="39.8583420" lon="-4.0252610">
        <ele>524.8</ele>
        <time>2019-07-08T08:07:11Z</time>
      </trkpt>
      <trkpt lat="39.8583530" lon="-4.0251980">
        <ele>523.8</ele>
        <time>2019-07-08T08:07:14Z</time>
      </trkpt>
      <trkpt lat="39.8583190" lon="-4.0251400">
        <ele>523.6</ele>
        <time>2019-07-08T08:07:16Z</time>
      </trkpt>
      <trkpt lat="39.8581990" lon="-4.0250140">
        <ele>523.2</ele>
        <time>2019-07-08T08:07:22Z</time>
      </trkpt>
      <trkpt lat="39.8581760" lon="-4.0249920">
        <ele>523.2</ele>
        <time>2019-07-08T08:07:23Z</time>
      </trkpt>
      <trkpt lat="39.8581410" lon="-4.0249150">
        <ele>522.6</ele>
        <time>2019-07-08T08:07:25Z</time>
      </trkpt>
      <trkpt lat="39.8581150" lon="-4.0248850">
        <ele>522.2</ele>
        <time>2019-07-08T08:07:26Z</time>
      </trkpt>
      <trkpt lat="39.8580420" lon="-4.0247890">
        <ele>521.4</ele>
        <time>2019-07-08T08:07:29Z</time>
      </trkpt>
      <trkpt lat="39.8579880" lon="-4.0247290">
        <ele>521.0</ele>
        <time>2019-07-08T08:07:31Z</time>
      </trkpt>
      <trkpt lat="39.8579250" lon="-4.0246510">
        <ele>520.2</ele>
        <time>2019-07-08T08:07:35Z</time>
      </trkpt>
      <trkpt lat="39.8579150" lon="-4.0246360">
        <ele>520.0</ele>
        <time>2019-07-08T08:07:36Z</time>
      </trkpt>
      <trkpt lat="39.8578970" lon="-4.0246270">
        <ele>519.8</ele>
        <time>2019-07-08T08:07:38Z</time>
      </trkpt>
      <trkpt lat="39.8578850" lon="-4.0246320">
        <ele>519.6</ele>
        <time>2019-07-08T08:07:39Z</time>
      </trkpt>
      <trkpt lat="39.8579030" lon="-4.0245940">
        <ele>519.6</ele>
        <time>2019-07-08T08:07:41Z</time>
      </trkpt>
      <trkpt lat="39.8578800" lon="-4.0246200">
        <ele>519.2</ele>
        <time>2019-07-08T08:07:43Z</time>
      </trkpt>
      <trkpt lat="39.8578750" lon="-4.0246240">
        <ele>519.0</ele>
        <time>2019-07-08T08:07:44Z</time>
      </trkpt>
      <trkpt lat="39.8577950" lon="-4.0245880">
        <ele>519.0</ele>
        <time>2019-07-08T08:07:51Z</time>
      </trkpt>
      <trkpt lat="39.8577460" lon="-4.0245680">
        <ele>518.6</ele>
        <time>2019-07-08T08:07:53Z</time>
      </trkpt>
      <trkpt lat="39.8576050" lon="-4.0245440">
        <ele>517.6</ele>
        <time>2019-07-08T08:07:56Z</time>
      </trkpt>
      <trkpt lat="39.8575520" lon="-4.0245300">
        <ele>517.0</ele>
        <time>2019-07-08T08:07:57Z</time>
      </trkpt>
      <trkpt lat="39.8575030" lon="-4.0245230">
        <ele>516.4</ele>
        <time>2019-07-08T08:07:58Z</time>
      </trkpt>
      <trkpt lat="39.8573370" lon="-4.0245180">
        <ele>515.4</ele>
        <time>2019-07-08T08:08:01Z</time>
      </trkpt>
      <trkpt lat="39.8571930" lon="-4.0245230">
        <ele>515.0</ele>
        <time>2019-07-08T08:08:03Z</time>
      </trkpt>
      <trkpt lat="39.8570280" lon="-4.0245350">
        <ele>514.2</ele>
        <time>2019-07-08T08:08:06Z</time>
      </trkpt>
      <trkpt lat="39.8569360" lon="-4.0245070">
        <ele>513.6</ele>
        <time>2019-07-08T08:08:09Z</time>
      </trkpt>
      <trkpt lat="39.8569220" lon="-4.0244810">
        <ele>513.6</ele>
        <time>2019-07-08T08:08:10Z</time>
      </trkpt>
      <trkpt lat="39.8569160" lon="-4.0244500">
        <ele>513.8</ele>
        <time>2019-07-08T08:08:11Z</time>
      </trkpt>
      <trkpt lat="39.8569150" lon="-4.0243760">
        <ele>513.8</ele>
        <time>2019-07-08T08:08:13Z</time>
      </trkpt>
      <trkpt lat="39.8569080" lon="-4.0243370">
        <ele>513.8</ele>
        <time>2019-07-08T08:08:14Z</time>
      </trkpt>
      <trkpt lat="39.8568940" lon="-4.0242870">
        <ele>513.8</ele>
        <time>2019-07-08T08:08:15Z</time>
      </trkpt>
      <trkpt lat="39.8568770" lon="-4.0242460">
        <ele>513.6</ele>
        <time>2019-07-08T08:08:17Z</time>
      </trkpt>
      <trkpt lat="39.8568730" lon="-4.0242320">
        <ele>513.6</ele>
        <time>2019-07-08T08:08:18Z</time>
      </trkpt>
      <trkpt lat="39.8568680" lon="-4.0242270">
        <ele>513.4</ele>
        <time>2019-07-08T08:08:19Z</time>
      </trkpt>
      <trkpt lat="39.8568590" lon="-4.0241040">
        <ele>513.2</ele>
        <time>2019-07-08T08:10:02Z</time>
      </trkpt>
      <trkpt lat="39.8568490" lon="-4.0240680">
        <ele>513.2</ele>
        <time>2019-07-08T08:10:04Z</time>
      </trkpt>
      <trkpt lat="39.8568490" lon="-4.0240570">
        <ele>513.4</ele>
        <time>2019-07-08T08:10:05Z</time>
      </trkpt>
      <trkpt lat="39.8568440" lon="-4.0240510">
        <ele>513.4</ele>
        <time>2019-07-08T08:10:06Z</time>
      </trkpt>
      <trkpt lat="39.8566670" lon="-4.0243000">
        <ele>514.0</ele>
        <time>2019-07-08T08:18:22Z</time>
      </trkpt>
      <trkpt lat="39.8566580" lon="-4.0243210">
        <ele>514.2</ele>
        <time>2019-07-08T08:18:23Z</time>
      </trkpt>
      <trkpt lat="39.8567150" lon="-4.0244200">
        <ele>515.0</ele>
        <time>2019-07-08T08:18:27Z</time>
      </trkpt>
      <trkpt lat="39.8567250" lon="-4.0244400">
        <ele>515.4</ele>
        <time>2019-07-08T08:18:28Z</time>
      </trkpt>
      <trkpt lat="39.8567200" lon="-4.0245040">
        <ele>515.8</ele>
        <time>2019-07-08T08:18:31Z</time>
      </trkpt>
      <trkpt lat="39.8567070" lon="-4.0245210">
        <ele>515.8</ele>
        <time>2019-07-08T08:18:32Z</time>
      </trkpt>
      <trkpt lat="39.8566870" lon="-4.0245360">
        <ele>515.8</ele>
        <time>2019-07-08T08:18:33Z</time>
      </trkpt>
      <trkpt lat="39.8566630" lon="-4.0245510">
        <ele>515.8</ele>
        <time>2019-07-08T08:18:34Z</time>
      </trkpt>
      <trkpt lat="39.8564330" lon="-4.0251950">
        <ele>519.8</ele>
        <time>2019-07-08T08:19:12Z</time>
      </trkpt>
      <trkpt lat="39.8564370" lon="-4.0252430">
        <ele>520.4</ele>
        <time>2019-07-08T08:19:15Z</time>
      </trkpt>
      <trkpt lat="39.8564300" lon="-4.0252860">
        <ele>520.8</ele>
        <time>2019-07-08T08:19:17Z</time>
      </trkpt>
      <trkpt lat="39.8564320" lon="-4.0253090">
        <ele>521.0</ele>
        <time>2019-07-08T08:19:18Z</time>
      </trkpt>
      <trkpt lat="39.8564440" lon="-4.0253560">
        <ele>521.6</ele>
        <time>2019-07-08T08:19:20Z</time>
      </trkpt>
      <trkpt lat="39.8564480" lon="-4.0253750">
        <ele>521.8</ele>
        <time>2019-07-08T08:19:21Z</time>
      </trkpt>
      <trkpt lat="39.8564540" lon="-4.0253940">
        <ele>522.0</ele>
        <time>2019-07-08T08:19:22Z</time>
      </trkpt>
      <trkpt lat="39.8564650" lon="-4.0254330">
        <ele>522.6</ele>
        <time>2019-07-08T08:19:24Z</time>
      </trkpt>
      <trkpt lat="39.8564370" lon="-4.0255200">
        <ele>523.2</ele>
        <time>2019-07-08T08:19:27Z</time>
      </trkpt>
      <trkpt lat="39.8563710" lon="-4.0256150">
        <ele>524.2</ele>
        <time>2019-07-08T08:19:31Z</time>
      </trkpt>
      <trkpt lat="39.8563670" lon="-4.0256430">
        <ele>524.4</ele>
        <time>2019-07-08T08:19:32Z</time>
      </trkpt>
      <trkpt lat="39.8563450" lon="-4.0257070">
        <ele>525.2</ele>
        <time>2019-07-08T08:19:36Z</time>
      </trkpt>
      <trkpt lat="39.8563390" lon="-4.0257280">
        <ele>525.2</ele>
        <time>2019-07-08T08:19:37Z</time>
      </trkpt>
      <trkpt lat="39.8563280" lon="-4.0257530">
        <ele>525.4</ele>
        <time>2019-07-08T08:19:38Z</time>
      </trkpt>
      <trkpt lat="39.8565470" lon="-4.0285400">
        <ele>532.8</ele>
        <time>2019-07-08T08:23:39Z</time>
      </trkpt>
      <trkpt lat="39.8565290" lon="-4.0285270">
        <ele>532.8</ele>
        <time>2019-07-08T08:23:40Z</time>
      </trkpt>
      <trkpt lat="39.8564200" lon="-4.0284610">
        <ele>531.2</ele>
        <time>2019-07-08T08:23:44Z</time>
      </trkpt>
      <trkpt lat="39.8564030" lon="-4.0284610">
        <ele>531.4</ele>
        <time>2019-07-08T08:23:45Z</time>
      </trkpt>
      <trkpt lat="39.8563510" lon="-4.0285060">
        <ele>531.2</ele>
        <time>2019-07-08T08:23:47Z</time>
      </trkpt>
      <trkpt lat="39.8562390" lon="-4.0285730">
        <ele>529.6</ele>
        <time>2019-07-08T08:23:50Z</time>
      </trkpt>
      <trkpt lat="39.8561860" lon="-4.0285870">
        <ele>528.6</ele>
        <time>2019-07-08T08:23:51Z</time>
      </trkpt>
      <trkpt lat="39.8561250" lon="-4.0285980">
        <ele>528.0</ele>
        <time>2019-07-08T08:23:52Z</time>
      </trkpt>
      <trkpt lat="39.8560570" lon="-4.0286110">
        <ele>527.4</ele>
        <time>2019-07-08T08:23:53Z</time>
      </trkpt>
      <trkpt lat="39.8559860" lon="-4.0286160">
        <ele>526.6</ele>
        <time>2019-07-08T08:23:54Z</time>
      </trkpt>
      <trkpt lat="39.8559220" lon="-4.0286190">
        <ele>525.8</ele>
        <time>2019-07-08T08:23:55Z</time>
      </trkpt>
      <trkpt lat="39.8558610" lon="-4.0286190">
        <ele>525.4</ele>
        <time>2019-07-08T08:23:56Z</time>
      </trkpt>
      <trkpt lat="39.8557200" lon="-4.0286390">
        <ele>524.8</ele>
        <time>2019-07-08T08:23:59Z</time>
      </trkpt>
      <trkpt lat="39.8556670" lon="-4.0286590">
        <ele>524.8</ele>
        <time>2019-07-08T08:24:01Z</time>
      </trkpt>
      <trkpt lat="39.8556380" lon="-4.0287280">
        <ele>524.6</ele>
        <time>2019-07-08T08:24:03Z</time>
      </trkpt>
      <trkpt lat="39.8556250" lon="-4.0288140">
        <ele>524.4</ele>
        <time>2019-07-08T08:24:05Z</time>
      </trkpt>
      <trkpt lat="39.8555900" lon="-4.0289950">
        <ele>524.4</ele>
        <time>2019-07-08T08:24:09Z</time>
      </trkpt>
      <trkpt lat="39.8555600" lon="-4.0290910">
        <ele>524.6</ele>
        <time>2019-07-08T08:24:11Z</time>
      </trkpt>
      <trkpt lat="39.8555500" lon="-4.0292740">
        <ele>524.8</ele>
        <time>2019-07-08T08:24:15Z</time>
      </trkpt>
      <trkpt lat="39.8555520" lon="-4.0295520">
        <ele>524.8</ele>
        <time>2019-07-08T08:24:21Z</time>
      </trkpt>
      <trkpt lat="39.8555220" lon="-4.0296570">
        <ele>524.4</ele>
        <time>2019-07-08T08:24:24Z</time>
      </trkpt>
      <trkpt lat="39.8555120" lon="-4.0296710">
        <ele>524.4</ele>
        <time>2019-07-08T08:24:25Z</time>
      </trkpt>
      <trkpt lat="39.8555070" lon="-4.0296740">
        <ele>524.2</ele>
        <time>2019-07-08T08:24:26Z</time>
      </trkpt>
      <trkpt lat="39.8555100" lon="-4.0296730">
        <ele>524.0</ele>
        <time>2019-07-08T08:24:27Z</time>
      </trkpt>
      <trkpt lat="39.8554390" lon="-4.0296050">
        <ele>523.8</ele>
        <time>2019-07-08T08:24:49Z</time>
      </trkpt>
      <trkpt lat="39.8554210" lon="-4.0296070">
        <ele>523.8</ele>
        <time>2019-07-08T08:24:50Z</time>
      </trkpt>
      <trkpt lat="39.8552680" lon="-4.0296600">
        <ele>523.4</ele>
        <time>2019-07-08T08:24:56Z</time>
      </trkpt>
      <trkpt lat="39.8551990" lon="-4.0296400">
        <ele>523.6</ele>
        <time>2019-07-08T08:25:00Z</time>
      </trkpt>
      <trkpt lat="39.8551270" lon="-4.0295850">
        <ele>523.4</ele>
        <time>2019-07-08T08:25:05Z</time>
      </trkpt>
      <trkpt lat="39.8551240" lon="-4.0295810">
        <ele>523.4</ele>
        <time>2019-07-08T08:25:06Z</time>
      </trkpt>
      <trkpt lat="39.8551200" lon="-4.0295340">
        <ele>523.0</ele>
        <time>2019-07-08T08:25:15Z</time>
      </trkpt>
      <trkpt lat="39.8551510" lon="-4.0295090">
        <ele>523.2</ele>
        <time>2019-07-08T08:25:17Z</time>
      </trkpt>
      <trkpt lat="39.8552260" lon="-4.0295240">
        <ele>523.4</ele>
        <time>2019-07-08T08:25:20Z</time>
      </trkpt>
      <trkpt lat="39.8552520" lon="-4.0295370">
        <ele>523.2</ele>
        <time>2019-07-08T08:25:21Z</time>
      </trkpt>
      <trkpt lat="39.8553680" lon="-4.0295520">
        <ele>523.4</ele>
        <time>2019-07-08T08:25:25Z</time>
      </trkpt>
      <trkpt lat="39.8553940" lon="-4.0295440">
        <ele>523.4</ele>
        <time>2019-07-08T08:25:26Z</time>
      </trkpt>
      <trkpt lat="39.8554600" lon="-4.0295170">
        <ele>523.6</ele>
        <time>2019-07-08T08:25:29Z</time>
      </trkpt>
      <trkpt lat="39.8554880" lon="-4.0295070">
        <ele>523.8</ele>
        <time>2019-07-08T08:25:31Z</time>
      </trkpt>
      <trkpt lat="39.8555210" lon="-4.0295690">
        <ele>523.8</ele>
        <time>2019-07-08T08:25:34Z</time>
      </trkpt>
      <trkpt lat="39.8556020" lon="-4.0297150">
        <ele>523.6</ele>
        <time>2019-07-08T08:25:38Z</time>
      </trkpt>
      <trkpt lat="39.8556880" lon="-4.0298290">
        <ele>523.6</ele>
        <time>2019-07-08T08:25:41Z</time>
      </trkpt>
      <trkpt lat="39.8557580" lon="-4.0299090">
        <ele>523.2</ele>
        <time>2019-07-08T08:25:43Z</time>
      </trkpt>
      <trkpt lat="39.8558980" lon="-4.0300480">
        <ele>522.4</ele>
        <time>2019-07-08T08:25:47Z</time>
      </trkpt>
      <trkpt lat="39.8560240" lon="-4.0301930">
        <ele>522.8</ele>
        <time>2019-07-08T08:25:51Z</time>
      </trkpt>
      <trkpt lat="39.8560770" lon="-4.0302570">
        <ele>523.0</ele>
        <time>2019-07-08T08:25:53Z</time>
      </trkpt>
      <trkpt lat="39.8561180" lon="-4.0303200">
        <ele>523.0</ele>
        <time>2019-07-08T08:25:55Z</time>
      </trkpt>
      <trkpt lat="39.8561780" lon="-4.0303400">
        <ele>523.0</ele>
        <time>2019-07-08T08:25:57Z</time>
      </trkpt>
      <trkpt lat="39.8563280" lon="-4.0304310">
        <ele>523.4</ele>
        <time>2019-07-08T08:26:01Z</time>
      </trkpt>
      <trkpt lat="39.8564700" lon="-4.0305450">
        <ele>523.6</ele>
        <time>2019-07-08T08:26:06Z</time>
      </trkpt>
      <trkpt lat="39.8566830" lon="-4.0306870">
        <ele>523.8</ele>
        <time>2019-07-08T08:26:13Z</time>
      </trkpt>
      <trkpt lat="39.8567900" lon="-4.0307550">
        <ele>523.6</ele>
        <time>2019-07-08T08:26:16Z</time>
      </trkpt>
      <trkpt lat="39.8569040" lon="-4.0308260">
        <ele>523.2</ele>
        <time>2019-07-08T08:26:19Z</time>
      </trkpt>
      <trkpt lat="39.8571100" lon="-4.0309460">
        <ele>522.4</ele>
        <time>2019-07-08T08:26:24Z</time>
      </trkpt>
      <trkpt lat="39.8571850" lon="-4.0309850">
        <ele>522.2</ele>
        <time>2019-07-08T08:26:26Z</time>
      </trkpt>
      <trkpt lat="39.8573530" lon="-4.0310710">
        <ele>522.6</ele>
        <time>2019-07-08T08:26:31Z</time>
      </trkpt>
      <trkpt lat="39.8573800" lon="-4.0310820">
        <ele>523.0</ele>
        <time>2019-07-08T08:26:32Z</time>
      </trkpt>
      <trkpt lat="39.8575410" lon="-4.0311250">
        <ele>523.4</ele>
        <time>2019-07-08T08:26:37Z</time>
      </trkpt>
      <trkpt lat="39.8575710" lon="-4.0311330">
        <ele>523.4</ele>
        <time>2019-07-08T08:26:38Z</time>
      </trkpt>
      <trkpt lat="39.8576760" lon="-4.0311950">
        <ele>523.6</ele>
        <time>2019-07-08T08:26:42Z</time>
      </trkpt>
      <trkpt lat="39.8577070" lon="-4.0312150">
        <ele>523.6</ele>
        <time>2019-07-08T08:26:43Z</time>
      </trkpt>
      <trkpt lat="39.8579120" lon="-4.0313700">
        <ele>523.6</ele>
        <time>2019-07-08T08:26:49Z</time>
      </trkpt>
      <trkpt lat="39.8580870" lon="-4.0314510">
        <ele>522.8</ele>
        <time>2019-07-08T08:26:53Z</time>
      </trkpt>
      <trkpt lat="39.8581240" lon="-4.0314760">
        <ele>522.8</ele>
        <time>2019-07-08T08:26:54Z</time>
      </trkpt>
      <trkpt lat="39.8581920" lon="-4.0315340">
        <ele>522.6</ele>
        <time>2019-07-08T08:26:56Z</time>
      </trkpt>
      <trkpt lat="39.8582400" lon="-4.0316630">
        <ele>522.4</ele>
        <time>2019-07-08T08:26:59Z</time>
      </trkpt>
      <trkpt lat="39.8582480" lon="-4.0317140">
        <ele>522.0</ele>
        <time>2019-07-08T08:27:00Z</time>
      </trkpt>
      <trkpt lat="39.8582690" lon="-4.0318220">
        <ele>521.0</ele>
        <time>2019-07-08T08:27:02Z</time>
      </trkpt>
      <trkpt lat="39.8583070" lon="-4.0319060">
        <ele>519.6</ele>
        <time>2019-07-08T08:27:04Z</time>
      </trkpt>
      <trkpt lat="39.8583460" lon="-4.0319360">
        <ele>519.2</ele>
        <time>2019-07-08T08:27:05Z</time>
      </trkpt>
      <trkpt lat="39.8584090" lon="-4.0319930">
        <ele>518.4</ele>
        <time>2019-07-08T08:27:07Z</time>
      </trkpt>
      <trkpt lat="39.8584890" lon="-4.0320200">
        <ele>517.0</ele>
        <time>2019-07-08T08:27:09Z</time>
      </trkpt>
      <trkpt lat="39.8585800" lon="-4.0320230">
        <ele>516.2</ele>
        <time>2019-07-08T08:27:11Z</time>
      </trkpt>
      <trkpt lat="39.8586230" lon="-4.0320150">
        <ele>516.0</ele>
        <time>2019-07-08T08:27:12Z</time>
      </trkpt>
      <trkpt lat="39.8587150" lon="-4.0319960">
        <ele>515.2</ele>
        <time>2019-07-08T08:27:14Z</time>
      </trkpt>
      <trkpt lat="39.8587580" lon="-4.0319860">
        <ele>514.8</ele>
        <time>2019-07-08T08:27:15Z</time>
      </trkpt>
      <trkpt lat="39.8588420" lon="-4.0319720">
        <ele>513.8</ele>
        <time>2019-07-08T08:27:17Z</time>
      </trkpt>
      <trkpt lat="39.8589390" lon="-4.0319870">
        <ele>512.4</ele>
        <time>2019-07-08T08:27:20Z</time>
      </trkpt>
      <trkpt lat="39.8589930" lon="-4.0320180">
        <ele>511.6</ele>
        <time>2019-07-08T08:27:22Z</time>
      </trkpt>
      <trkpt lat="39.8590170" lon="-4.0320320">
        <ele>511.2</ele>
        <time>2019-07-08T08:27:23Z</time>
      </trkpt>
      <trkpt lat="39.8591050" lon="-4.0321140">
        <ele>510.0</ele>
        <time>2019-07-08T08:27:27Z</time>
      </trkpt>
      <trkpt lat="39.8591430" lon="-4.0321660">
        <ele>509.4</ele>
        <time>2019-07-08T08:27:30Z</time>
      </trkpt>
      <trkpt lat="39.8591490" lon="-4.0321840">
        <ele>509.2</ele>
        <time>2019-07-08T08:27:31Z</time>
      </trkpt>
      <trkpt lat="39.8591610" lon="-4.0322010">
        <ele>509.0</ele>
        <time>2019-07-08T08:27:32Z</time>
      </trkpt>
      <trkpt lat="39.8592370" lon="-4.0322570">
        <ele>508.8</ele>
        <time>2019-07-08T08:27:35Z</time>
      </trkpt>
      <trkpt lat="39.8593880" lon="-4.0323630">
        <ele>507.6</ele>
        <time>2019-07-08T08:27:39Z</time>
      </trkpt>
      <trkpt lat="39.8594090" lon="-4.0323740">
        <ele>507.2</ele>
        <time>2019-07-08T08:27:40Z</time>
      </trkpt>
      <trkpt lat="39.8594380" lon="-4.0323720">
        <ele>506.6</ele>
        <time>2019-07-08T08:27:41Z</time>
      </trkpt>
      <trkpt lat="39.8594700" lon="-4.0323660">
        <ele>506.0</ele>
        <time>2019-07-08T08:27:42Z</time>
      </trkpt>
      <trkpt lat="39.8594950" lon="-4.0323580">
        <ele>505.6</ele>
        <time>2019-07-08T08:27:43Z</time>
      </trkpt>
      <trkpt lat="39.8595120" lon="-4.0323430">
        <ele>505.4</ele>
        <time>2019-07-08T08:27:44Z</time>
      </trkpt>
      <trkpt lat="39.8595300" lon="-4.0323260">
        <ele>505.2</ele>
        <time>2019-07-08T08:27:45Z</time>
      </trkpt>
      <trkpt lat="39.8595720" lon="-4.0323530">
        <ele>505.0</ele>
        <time>2019-07-08T08:27:48Z</time>
      </trkpt>
      <trkpt lat="39.8595790" lon="-4.0323680">
        <ele>504.8</ele>
        <time>2019-07-08T08:27:49Z</time>
      </trkpt>
      <trkpt lat="39.8595840" lon="-4.0323830">
        <ele>504.8</ele>
        <time>2019-07-08T08:27:50Z</time>
      </trkpt>
      <trkpt lat="39.8595650" lon="-4.0324450">
        <ele>504.8</ele>
        <time>2019-07-08T08:27:53Z</time>
      </trkpt>
      <trkpt lat="39.8595980" lon="-4.0325590">
        <ele>505.0</ele>
        <time>2019-07-08T08:27:57Z</time>
      </trkpt>
      <trkpt lat="39.8597370" lon="-4.0326260">
        <ele>504.4</ele>
        <time>2019-07-08T08:28:02Z</time>
      </trkpt>
      <trkpt lat="39.8597630" lon="-4.0326210">
        <ele>504.2</ele>
        <time>2019-07-08T08:28:03Z</time>
      </trkpt>
      <trkpt lat="39.8597930" lon="-4.0326080">
        <ele>503.4</ele>
        <time>2019-07-08T08:28:05Z</time>
      </trkpt>
      <trkpt lat="39.8598110" lon="-4.0326010">
        <ele>503.4</ele>
        <time>2019-07-08T08:28:06Z</time>
      </trkpt>
      <trkpt lat="39.8598340" lon="-4.0325940">
        <ele>503.4</ele>
        <time>2019-07-08T08:28:07Z</time>
      </trkpt>
      <trkpt lat="39.8599050" lon="-4.0325760">
        <ele>502.6</ele>
        <time>2019-07-08T08:28:09Z</time>
      </trkpt>
      <trkpt lat="39.8599480" lon="-4.0325560">
        <ele>502.4</ele>
        <time>2019-07-08T08:28:10Z</time>
      </trkpt>
      <trkpt lat="39.8599930" lon="-4.0325250">
        <ele>502.2</ele>
        <time>2019-07-08T08:28:11Z</time>
      </trkpt>
      <trkpt lat="39.8601390" lon="-4.0323990">
        <ele>501.0</ele>
        <time>2019-07-08T08:28:14Z</time>
      </trkpt>
      <trkpt lat="39.8602250" lon="-4.0323160">
        <ele>499.8</ele>
        <time>2019-07-08T08:28:16Z</time>
      </trkpt>
      <trkpt lat="39.8603210" lon="-4.0322510">
        <ele>498.2</ele>
        <time>2019-07-08T08:28:19Z</time>
      </trkpt>
      <trkpt lat="39.8603350" lon="-4.0322980">
        <ele>497.6</ele>
        <time>2019-07-08T08:28:21Z</time>
      </trkpt>
      <trkpt lat="39.8602980" lon="-4.0323700">
        <ele>497.0</ele>
        <time>2019-07-08T08:28:23Z</time>
      </trkpt>
      <trkpt lat="39.8602670" lon="-4.0324120">
        <ele>496.6</ele>
        <time>2019-07-08T08:28:24Z</time>
      </trkpt>
      <trkpt lat="39.8601460" lon="-4.0325750">
        <ele>495.8</ele>
        <time>2019-07-08T08:28:27Z</time>
      </trkpt>
      <trkpt lat="39.8600980" lon="-4.0326400">
        <ele>495.2</ele>
        <time>2019-07-08T08:28:28Z</time>
      </trkpt>
      <trkpt lat="39.8600480" lon="-4.0327030">
        <ele>494.8</ele>
        <time>2019-07-08T08:28:29Z</time>
      </trkpt>
      <trkpt lat="39.8599480" lon="-4.0328210">
        <ele>493.4</ele>
        <time>2019-07-08T08:28:31Z</time>
      </trkpt>
      <trkpt lat="39.8598650" lon="-4.0329210">
        <ele>492.0</ele>
        <time>2019-07-08T08:28:33Z</time>
      </trkpt>
      <trkpt lat="39.8598320" lon="-4.0329630">
        <ele>491.4</ele>
        <time>2019-07-08T08:28:34Z</time>
      </trkpt>
      <trkpt lat="39.8598110" lon="-4.0329970">
        <ele>491.0</ele>
        <time>2019-07-08T08:28:35Z</time>
      </trkpt>
      <trkpt lat="39.8598100" lon="-4.0330430">
        <ele>490.4</ele>
        <time>2019-07-08T08:28:37Z</time>
      </trkpt>
      <trkpt lat="39.8598240" lon="-4.0330500">
        <ele>489.8</ele>
        <time>2019-07-08T08:28:38Z</time>
      </trkpt>
      <trkpt lat="39.8598950" lon="-4.0330270">
        <ele>489.2</ele>
        <time>2019-07-08T08:28:40Z</time>
      </trkpt>
      <trkpt lat="39.8599860" lon="-4.0329850">
        <ele>488.4</ele>
        <time>2019-07-08T08:28:42Z</time>
      </trkpt>
      <trkpt lat="39.8600390" lon="-4.0329750">
        <ele>487.6</ele>
        <time>2019-07-08T08:28:44Z</time>
      </trkpt>
      <trkpt lat="39.8600500" lon="-4.0329910">
        <ele>487.2</ele>
        <time>2019-07-08T08:28:45Z</time>
      </trkpt>
      <trkpt lat="39.8600320" lon="-4.0330230">
        <ele>486.8</ele>
        <time>2019-07-08T08:28:47Z</time>
      </trkpt>
      <trkpt lat="39.8600080" lon="-4.0330400">
        <ele>486.4</ele>
        <time>2019-07-08T08:28:48Z</time>
      </trkpt>
      <trkpt lat="39.8599420" lon="-4.0330870">
        <ele>486.2</ele>
        <time>2019-07-08T08:28:50Z</time>
      </trkpt>
      <trkpt lat="39.8599010" lon="-4.0331150">
        <ele>486.0</ele>
        <time>2019-07-08T08:28:51Z</time>
      </trkpt>
      <trkpt lat="39.8597810" lon="-4.0331980">
        <ele>485.2</ele>
        <time>2019-07-08T08:28:54Z</time>
      </trkpt>
      <trkpt lat="39.8597400" lon="-4.0332530">
        <ele>484.4</ele>
        <time>2019-07-08T08:28:56Z</time>
      </trkpt>
      <trkpt lat="39.8597390" lon="-4.0332900">
        <ele>484.0</ele>
        <time>2019-07-08T08:28:57Z</time>
      </trkpt>
      <trkpt lat="39.8597690" lon="-4.0333700">
        <ele>483.4</ele>
        <time>2019-07-08T08:28:59Z</time>
      </trkpt>
      <trkpt lat="39.8598020" lon="-4.0334590">
        <ele>483.0</ele>
        <time>2019-07-08T08:29:01Z</time>
      </trkpt>
      <trkpt lat="39.8598220" lon="-4.0335080">
        <ele>482.8</ele>
        <time>2019-07-08T08:29:02Z</time>
      </trkpt>
      <trkpt lat="39.8598650" lon="-4.0335640">
        <ele>482.2</ele>
        <time>2019-07-08T08:29:04Z</time>
      </trkpt>
      <trkpt lat="39.8599210" lon="-4.0335320">
        <ele>481.8</ele>
        <time>2019-07-08T08:29:06Z</time>
      </trkpt>
      <trkpt lat="39.8599590" lon="-4.0335000">
        <ele>481.6</ele>
        <time>2019-07-08T08:29:07Z</time>
      </trkpt>
      <trkpt lat="39.8601230" lon="-4.0334020">
        <ele>480.6</ele>
        <time>2019-07-08T08:29:10Z</time>
      </trkpt>
      <trkpt lat="39.8601870" lon="-4.0333670">
        <ele>480.0</ele>
        <time>2019-07-08T08:29:11Z</time>
      </trkpt>
      <trkpt lat="39.8602470" lon="-4.0333360">
        <ele>479.0</ele>
        <time>2019-07-08T08:29:12Z</time>
      </trkpt>
      <trkpt lat="39.8603830" lon="-4.0332820">
        <ele>477.4</ele>
        <time>2019-07-08T08:29:15Z</time>
      </trkpt>
      <trkpt lat="39.8604560" lon="-4.0332650">
        <ele>476.2</ele>
        <time>2019-07-08T08:29:18Z</time>
      </trkpt>
      <trkpt lat="39.8604700" lon="-4.0332540">
        <ele>476.0</ele>
        <time>2019-07-08T08:29:19Z</time>
      </trkpt>
      <trkpt lat="39.8604980" lon="-4.0332560">
        <ele>476.0</ele>
        <time>2019-07-08T08:29:21Z</time>
      </trkpt>
      <trkpt lat="39.8605050" lon="-4.0332780">
        <ele>476.0</ele>
        <time>2019-07-08T08:29:22Z</time>
      </trkpt>
      <trkpt lat="39.8604530" lon="-4.0333210">
        <ele>475.6</ele>
        <time>2019-07-08T08:29:25Z</time>
      </trkpt>
      <trkpt lat="39.8604110" lon="-4.0332740">
        <ele>475.6</ele>
        <time>2019-07-08T08:29:27Z</time>
      </trkpt>
      <trkpt lat="39.8603860" lon="-4.0332570">
        <ele>475.6</ele>
        <time>2019-07-08T08:29:28Z</time>
      </trkpt>
      <trkpt lat="39.8603580" lon="-4.0332530">
        <ele>475.6</ele>
        <time>2019-07-08T08:29:29Z</time>
      </trkpt>
      <trkpt lat="39.8602980" lon="-4.0332740">
        <ele>475.8</ele>
        <time>2019-07-08T08:29:31Z</time>
      </trkpt>
      <trkpt lat="39.8602690" lon="-4.0332900">
        <ele>475.8</ele>
        <time>2019-07-08T08:29:32Z</time>
      </trkpt>
      <trkpt lat="39.8602030" lon="-4.0333310">
        <ele>476.0</ele>
        <time>2019-07-08T08:29:34Z</time>
      </trkpt>
      <trkpt lat="39.8600290" lon="-4.0334660">
        <ele>476.4</ele>
        <time>2019-07-08T08:29:39Z</time>
      </trkpt>
      <trkpt lat="39.8599520" lon="-4.0335090">
        <ele>476.4</ele>
        <time>2019-07-08T08:29:41Z</time>
      </trkpt>
      <trkpt lat="39.8598420" lon="-4.0335910">
        <ele>475.8</ele>
        <time>2019-07-08T08:29:45Z</time>
      </trkpt>
      <trkpt lat="39.8598210" lon="-4.0336490">
        <ele>475.4</ele>
        <time>2019-07-08T08:29:47Z</time>
      </trkpt>
      <trkpt lat="39.8597940" lon="-4.0337210">
        <ele>475.2</ele>
        <time>2019-07-08T08:29:49Z</time>
      </trkpt>
      <trkpt lat="39.8597860" lon="-4.0337740">
        <ele>474.8</ele>
        <time>2019-07-08T08:29:51Z</time>
      </trkpt>
      <trkpt lat="39.8597970" lon="-4.0338600">
        <ele>474.6</ele>
        <time>2019-07-08T08:29:53Z</time>
      </trkpt>
      <trkpt lat="39.8597980" lon="-4.0339120">
        <ele>474.2</ele>
        <time>2019-07-08T08:29:54Z</time>
      </trkpt>
      <trkpt lat="39.8597900" lon="-4.0340390">
        <ele>473.8</ele>
        <time>2019-07-08T08:29:56Z</time>
      </trkpt>
      <trkpt lat="39.8597910" lon="-4.0341030">
        <ele>473.4</ele>
        <time>2019-07-08T08:29:57Z</time>
      </trkpt>
      <trkpt lat="39.8597920" lon="-4.0341630">
        <ele>473.0</ele>
        <time>2019-07-08T08:29:58Z</time>
      </trkpt>
      <trkpt lat="39.8597630" lon="-4.0342760">
        <ele>471.8</ele>
        <time>2019-07-08T08:30:00Z</time>
      </trkpt>
      <trkpt lat="39.8597350" lon="-4.0343320">
        <ele>471.4</ele>
        <time>2019-07-08T08:30:01Z</time>
      </trkpt>
      <trkpt lat="39.8596990" lon="-4.0343900">
        <ele>471.0</ele>
        <time>2019-07-08T08:30:02Z</time>
      </trkpt>
      <trkpt lat="39.8596580" lon="-4.0344490">
        <ele>470.6</ele>
        <time>2019-07-08T08:30:03Z</time>
      </trkpt>
      <trkpt lat="39.8595800" lon="-4.0345680">
        <ele>469.8</ele>
        <time>2019-07-08T08:30:05Z</time>
      </trkpt>
      <trkpt lat="39.8595450" lon="-4.0346220">
        <ele>469.4</ele>
        <time>2019-07-08T08:30:06Z</time>
      </trkpt>
      <trkpt lat="39.8595150" lon="-4.0346730">
        <ele>469.0</ele>
        <time>2019-07-08T08:30:07Z</time>
      </trkpt>
      <trkpt lat="39.8594900" lon="-4.0347230">
        <ele>468.4</ele>
        <time>2019-07-08T08:30:08Z</time>
      </trkpt>
      <trkpt lat="39.8594710" lon="-4.0348200">
        <ele>467.6</ele>
        <time>2019-07-08T08:30:10Z</time>
      </trkpt>
      <trkpt lat="39.8594660" lon="-4.0348570">
        <ele>467.2</ele>
        <time>2019-07-08T08:30:11Z</time>
      </trkpt>
      <trkpt lat="39.8594510" lon="-4.0349100">
        <ele>466.2</ele>
        <time>2019-07-08T08:30:14Z</time>
      </trkpt>
      <trkpt lat="39.8594520" lon="-4.0349110">
        <ele>465.8</ele>
        <time>2019-07-08T08:30:15Z</time>
      </trkpt>
      <trkpt lat="39.8594370" lon="-4.0349470">
        <ele>465.4</ele>
        <time>2019-07-08T08:30:32Z</time>
      </trkpt>
      <trkpt lat="39.8594050" lon="-4.0350000">
        <ele>465.2</ele>
        <time>2019-07-08T08:30:34Z</time>
      </trkpt>
      <trkpt lat="39.8592750" lon="-4.0351350">
        <ele>465.0</ele>
        <time>2019-07-08T08:30:39Z</time>
      </trkpt>
      <trkpt lat="39.8592530" lon="-4.0351580">
        <ele>464.8</ele>
        <time>2019-07-08T08:30:40Z</time>
      </trkpt>
      <trkpt lat="39.8592520" lon="-4.0352180">
        <ele>464.8</ele>
        <time>2019-07-08T08:30:42Z</time>
      </trkpt>
      <trkpt lat="39.8592870" lon="-4.0352700">
        <ele>464.8</ele>
        <time>2019-07-08T08:30:44Z</time>
      </trkpt>
      <trkpt lat="39.8593210" lon="-4.0353080">
        <ele>464.8</ele>
        <time>2019-07-08T08:30:46Z</time>
      </trkpt>
      <trkpt lat="39.8593640" lon="-4.0353360">
        <ele>464.4</ele>
        <time>2019-07-08T08:30:49Z</time>
      </trkpt>
      <trkpt lat="39.8594210" lon="-4.0353780">
        <ele>464.4</ele>
        <time>2019-07-08T08:30:52Z</time>
      </trkpt>
      <trkpt lat="39.8595100" lon="-4.0354500">
        <ele>464.6</ele>
        <time>2019-07-08T08:30:56Z</time>
      </trkpt>
      <trkpt lat="39.8595840" lon="-4.0355010">
        <ele>464.8</ele>
        <time>2019-07-08T08:30:59Z</time>
      </trkpt>
      <trkpt lat="39.8596670" lon="-4.0355640">
        <ele>464.6</ele>
        <time>2019-07-08T08:31:03Z</time>
      </trkpt>
      <trkpt lat="39.8596960" lon="-4.0356060">
        <ele>464.4</ele>
        <time>2019-07-08T08:31:05Z</time>
      </trkpt>
      <trkpt lat="39.8597590" lon="-4.0356670">
        <ele>464.0</ele>
        <time>2019-07-08T08:31:10Z</time>
      </trkpt>
      <trkpt lat="39.8597630" lon="-4.0356690">
        <ele>463.8</ele>
        <time>2019-07-08T08:31:12Z</time>
      </trkpt>
      <trkpt lat="39.8598330" lon="-4.0356870">
        <ele>464.0</ele>
        <time>2019-07-08T08:32:40Z</time>
      </trkpt>
      <trkpt lat="39.8598500" lon="-4.0356870">
        <ele>464.0</ele>
        <time>2019-07-08T08:32:41Z</time>
      </trkpt>
      <trkpt lat="39.8598700" lon="-4.0356900">
        <ele>464.0</ele>
        <time>2019-07-08T08:32:42Z</time>
      </trkpt>
      <trkpt lat="39.8600220" lon="-4.0357370">
        <ele>463.8</ele>
        <time>2019-07-08T08:32:47Z</time>
      </trkpt>
      <trkpt lat="39.8602260" lon="-4.0357860">
        <ele>463.8</ele>
        <time>2019-07-08T08:32:52Z</time>
      </trkpt>
      <trkpt lat="39.8602710" lon="-4.0357960">
        <ele>463.6</ele>
        <time>2019-07-08T08:32:53Z</time>
      </trkpt>
      <trkpt lat="39.8604530" lon="-4.0358400">
        <ele>464.2</ele>
        <time>2019-07-08T08:32:57Z</time>
      </trkpt>
      <trkpt lat="39.8604990" lon="-4.0358510">
        <ele>464.2</ele>
        <time>2019-07-08T08:32:58Z</time>
      </trkpt>
      <trkpt lat="39.8605910" lon="-4.0358800">
        <ele>464.2</ele>
        <time>2019-07-08T08:33:00Z</time>
      </trkpt>
      <trkpt lat="39.8606660" lon="-4.0358850">
        <ele>464.2</ele>
        <time>2019-07-08T08:33:02Z</time>
      </trkpt>
      <trkpt lat="39.8607250" lon="-4.0358210">
        <ele>464.2</ele>
        <time>2019-07-08T08:33:05Z</time>
      </trkpt>
      <trkpt lat="39.8607870" lon="-4.0358650">
        <ele>464.6</ele>
        <time>2019-07-08T08:33:08Z</time>
      </trkpt>
      <trkpt lat="39.8608500" lon="-4.0359320">
        <ele>464.6</ele>
        <time>2019-07-08T08:33:10Z</time>
      </trkpt>
      <trkpt lat="39.8609710" lon="-4.0360470">
        <ele>464.4</ele>
        <time>2019-07-08T08:33:13Z</time>
      </trkpt>
      <trkpt lat="39.8612390" lon="-4.0361870">
        <ele>464.4</ele>
        <time>2019-07-08T08:33:19Z</time>
      </trkpt>
      <trkpt lat="39.8615380" lon="-4.0363760">
        <ele>464.6</ele>
        <time>2019-07-08T08:33:26Z</time>
      </trkpt>
      <trkpt lat="39.8616120" lon="-4.0364430">
        <ele>464.4</ele>
        <time>2019-07-08T08:33:28Z</time>
      </trkpt>
      <trkpt lat="39.8616610" lon="-4.0365370">
        <ele>464.6</ele>
        <time>2019-07-08T08:33:30Z</time>
      </trkpt>
      <trkpt lat="39.8617270" lon="-4.0367180">
        <ele>464.4</ele>
        <time>2019-07-08T08:33:33Z</time>
      </trkpt>
      <trkpt lat="39.8617550" lon="-4.0367700">
        <ele>464.4</ele>
        <time>2019-07-08T08:33:34Z</time>
      </trkpt>
      <trkpt lat="39.8617890" lon="-4.0368170">
        <ele>464.6</ele>
        <time>2019-07-08T08:33:35Z</time>
      </trkpt>
      <trkpt lat="39.8619060" lon="-4.0368990">
        <ele>464.6</ele>
        <time>2019-07-08T08:33:38Z</time>
      </trkpt>
      <trkpt lat="39.8620080" lon="-4.0369400">
        <ele>464.8</ele>
        <time>2019-07-08T08:33:42Z</time>
      </trkpt>
      <trkpt lat="39.8620460" lon="-4.0370060">
        <ele>465.2</ele>
        <time>2019-07-08T08:33:44Z</time>
      </trkpt>
      <trkpt lat="39.8621120" lon="-4.0371420">
        <ele>465.0</ele>
        <time>2019-07-08T08:33:47Z</time>
      </trkpt>
      <trkpt lat="39.8622180" lon="-4.0373520">
        <ele>465.0</ele>
        <time>2019-07-08T08:33:51Z</time>
      </trkpt>
      <trkpt lat="39.8622980" lon="-4.0375080">
        <ele>465.0</ele>
        <time>2019-07-08T08:33:54Z</time>
      </trkpt>
      <trkpt lat="39.8623580" lon="-4.0375990">
        <ele>465.0</ele>
        <time>2019-07-08T08:33:56Z</time>
      </trkpt>
      <trkpt lat="39.8624220" lon="-4.0376900">
        <ele>465.0</ele>
        <time>2019-07-08T08:33:58Z</time>
      </trkpt>
      <trkpt lat="39.8624490" lon="-4.0377390">
        <ele>465.0</ele>
        <time>2019-07-08T08:33:59Z</time>
      </trkpt>
      <trkpt lat="39.8625270" lon="-4.0378830">
        <ele>465.0</ele>
        <time>2019-07-08T08:34:02Z</time>
      </trkpt>
      <trkpt lat="39.8625840" lon="-4.0379720">
        <ele>465.2</ele>
        <time>2019-07-08T08:34:04Z</time>
      </trkpt>
      <trkpt lat="39.8626820" lon="-4.0381800">
        <ele>465.2</ele>
        <time>2019-07-08T08:34:08Z</time>
      </trkpt>
      <trkpt lat="39.8627310" lon="-4.0382890">
        <ele>465.4</ele>
        <time>2019-07-08T08:34:10Z</time>
      </trkpt>
      <trkpt lat="39.8628000" lon="-4.0384530">
        <ele>465.2</ele>
        <time>2019-07-08T08:34:13Z</time>
      </trkpt>
      <trkpt lat="39.8628440" lon="-4.0385360">
        <ele>464.8</ele>
        <time>2019-07-08T08:34:15Z</time>
      </trkpt>
      <trkpt lat="39.8628510" lon="-4.0385650">
        <ele>464.6</ele>
        <time>2019-07-08T08:34:16Z</time>
      </trkpt>
      <trkpt lat="39.8628790" lon="-4.0387330">
        <ele>464.4</ele>
        <time>2019-07-08T08:34:21Z</time>
      </trkpt>
      <trkpt lat="39.8628850" lon="-4.0388220">
        <ele>464.4</ele>
        <time>2019-07-08T08:34:23Z</time>
      </trkpt>
      <trkpt lat="39.8629220" lon="-4.0389230">
        <ele>464.2</ele>
        <time>2019-07-08T08:34:25Z</time>
      </trkpt>
      <trkpt lat="39.8629610" lon="-4.0390400">
        <ele>464.0</ele>
        <time>2019-07-08T08:34:28Z</time>
      </trkpt>
      <trkpt lat="39.8629660" lon="-4.0390660">
        <ele>464.0</ele>
        <time>2019-07-08T08:34:29Z</time>
      </trkpt>
      <trkpt lat="39.8629640" lon="-4.0390830">
        <ele>463.8</ele>
        <time>2019-07-08T08:34:30Z</time>
      </trkpt>
      <trkpt lat="39.8629140" lon="-4.0391160">
        <ele>463.6</ele>
        <time>2019-07-08T08:34:33Z</time>
      </trkpt>
      <trkpt lat="39.8628060" lon="-4.0391670">
        <ele>463.4</ele>
        <time>2019-07-08T08:34:37Z</time>
      </trkpt>
      <trkpt lat="39.8627740" lon="-4.0391820">
        <ele>463.4</ele>
        <time>2019-07-08T08:34:38Z</time>
      </trkpt>
      <trkpt lat="39.8626790" lon="-4.0392090">
        <ele>463.2</ele>
        <time>2019-07-08T08:34:41Z</time>
      </trkpt>
      <trkpt lat="39.8626670" lon="-4.0392040">
        <ele>463.2</ele>
        <time>2019-07-08T08:34:43Z</time>
      </trkpt>
      <trkpt lat="39.8626560" lon="-4.0392330">
        <ele>463.0</ele>
        <time>2019-07-08T08:34:46Z</time>
      </trkpt>
      <trkpt lat="39.8626410" lon="-4.0392620">
        <ele>463.0</ele>
        <time>2019-07-08T08:34:48Z</time>
      </trkpt>
      <trkpt lat="39.8626430" lon="-4.0392730">
        <ele>463.0</ele>
        <time>2019-07-08T08:34:49Z</time>
      </trkpt>
      <trkpt lat="39.8626460" lon="-4.0392950">
        <ele>463.0</ele>
        <time>2019-07-08T08:34:51Z</time>
      </trkpt>
      <trkpt lat="39.8626310" lon="-4.0393510">
        <ele>462.8</ele>
        <time>2019-07-08T08:34:54Z</time>
      </trkpt>
      <trkpt lat="39.8626220" lon="-4.0393650">
        <ele>462.6</ele>
        <time>2019-07-08T08:34:55Z</time>
      </trkpt>
      <trkpt lat="39.8626590" lon="-4.0393950">
        <ele>462.4</ele>
        <time>2019-07-08T08:34:59Z</time>
      </trkpt>
      <trkpt lat="39.8627030" lon="-4.0393890">
        <ele>462.4</ele>
        <time>2019-07-08T08:35:01Z</time>
      </trkpt>
      <trkpt lat="39.8627740" lon="-4.0393710">
        <ele>462.4</ele>
        <time>2019-07-08T08:35:04Z</time>
      </trkpt>
      <trkpt lat="39.8629110" lon="-4.0393310">
        <ele>463.0</ele>
        <time>2019-07-08T08:35:09Z</time>
      </trkpt>
      <trkpt lat="39.8629650" lon="-4.0393330">
        <ele>463.0</ele>
        <time>2019-07-08T08:35:11Z</time>
      </trkpt>
      <trkpt lat="39.8629920" lon="-4.0393780">
        <ele>463.2</ele>
        <time>2019-07-08T08:35:13Z</time>
      </trkpt>
      <trkpt lat="39.8629900" lon="-4.0395350">
        <ele>463.4</ele>
        <time>2019-07-08T08:35:16Z</time>
      </trkpt>
      <trkpt lat="39.8629870" lon="-4.0395920">
        <ele>463.4</ele>
        <time>2019-07-08T08:35:17Z</time>
      </trkpt>
      <trkpt lat="39.8629940" lon="-4.0397990">
        <ele>463.8</ele>
        <time>2019-07-08T08:35:21Z</time>
      </trkpt>
      <trkpt lat="39.8629930" lon="-4.0399020">
        <ele>464.0</ele>
        <time>2019-07-08T08:35:23Z</time>
      </trkpt>
      <trkpt lat="39.8629940" lon="-4.0400850">
        <ele>464.8</ele>
        <time>2019-07-08T08:35:27Z</time>
      </trkpt>
      <trkpt lat="39.8629940" lon="-4.0401300">
        <ele>465.2</ele>
        <time>2019-07-08T08:35:28Z</time>
      </trkpt>
      <trkpt lat="39.8630200" lon="-4.0403340">
        <ele>465.0</ele>
        <time>2019-07-08T08:35:32Z</time>
      </trkpt>
      <trkpt lat="39.8630300" lon="-4.0403880">
        <ele>465.0</ele>
        <time>2019-07-08T08:35:33Z</time>
      </trkpt>
      <trkpt lat="39.8630430" lon="-4.0404420">
        <ele>465.0</ele>
        <time>2019-07-08T08:35:34Z</time>
      </trkpt>
      <trkpt lat="39.8631070" lon="-4.0407260">
        <ele>465.0</ele>
        <time>2019-07-08T08:35:39Z</time>
      </trkpt>
      <trkpt lat="39.8631650" lon="-4.0408910">
        <ele>465.2</ele>
        <time>2019-07-08T08:35:43Z</time>
      </trkpt>
      <trkpt lat="39.8632030" lon="-4.0409800">
        <ele>465.2</ele>
        <time>2019-07-08T08:35:45Z</time>
      </trkpt>
      <trkpt lat="39.8632400" lon="-4.0410960">
        <ele>465.0</ele>
        <time>2019-07-08T08:35:47Z</time>
      </trkpt>
      <trkpt lat="39.8633190" lon="-4.0413390">
        <ele>464.4</ele>
        <time>2019-07-08T08:35:51Z</time>
      </trkpt>
      <trkpt lat="39.8633470" lon="-4.0413940">
        <ele>464.2</ele>
        <time>2019-07-08T08:35:52Z</time>
      </trkpt>
      <trkpt lat="39.8633800" lon="-4.0414520">
        <ele>464.4</ele>
        <time>2019-07-08T08:35:53Z</time>
      </trkpt>
      <trkpt lat="39.8634990" lon="-4.0416810">
        <ele>464.6</ele>
        <time>2019-07-08T08:35:57Z</time>
      </trkpt>
      <trkpt lat="39.8635630" lon="-4.0417800">
        <ele>464.6</ele>
        <time>2019-07-08T08:35:59Z</time>
      </trkpt>
      <trkpt lat="39.8636140" lon="-4.0418900">
        <ele>464.6</ele>
        <time>2019-07-08T08:36:01Z</time>
      </trkpt>
      <trkpt lat="39.8637420" lon="-4.0421100">
        <ele>464.6</ele>
        <time>2019-07-08T08:36:05Z</time>
      </trkpt>
      <trkpt lat="39.8637710" lon="-4.0421680">
        <ele>464.6</ele>
        <time>2019-07-08T08:36:06Z</time>
      </trkpt>
      <trkpt lat="39.8639220" lon="-4.0424810">
        <ele>464.6</ele>
        <time>2019-07-08T08:36:12Z</time>
      </trkpt>
      <trkpt lat="39.8640670" lon="-4.0427840">
        <ele>465.0</ele>
        <time>2019-07-08T08:36:18Z</time>
      </trkpt>
      <trkpt lat="39.8642230" lon="-4.0430870">
        <ele>464.8</ele>
        <time>2019-07-08T08:36:24Z</time>
      </trkpt>
      <trkpt lat="39.8642600" lon="-4.0431310">
        <ele>464.8</ele>
        <time>2019-07-08T08:36:25Z</time>
      </trkpt>
      <trkpt lat="39.8644090" lon="-4.0432550">
        <ele>464.6</ele>
        <time>2019-07-08T08:36:28Z</time>
      </trkpt>
      <trkpt lat="39.8644620" lon="-4.0432930">
        <ele>464.6</ele>
        <time>2019-07-08T08:36:29Z</time>
      </trkpt>
      <trkpt lat="39.8645690" lon="-4.0433690">
        <ele>464.2</ele>
        <time>2019-07-08T08:36:31Z</time>
      </trkpt>
      <trkpt lat="39.8647740" lon="-4.0434910">
        <ele>463.8</ele>
        <time>2019-07-08T08:36:35Z</time>
      </trkpt>
      <trkpt lat="39.8649760" lon="-4.0436060">
        <ele>463.6</ele>
        <time>2019-07-08T08:36:39Z</time>
      </trkpt>
      <trkpt lat="39.8651140" lon="-4.0436690">
        <ele>463.6</ele>
        <time>2019-07-08T08:36:42Z</time>
      </trkpt>
      <trkpt lat="39.8652130" lon="-4.0437030">
        <ele>463.2</ele>
        <time>2019-07-08T08:36:44Z</time>
      </trkpt>
      <trkpt lat="39.8653340" lon="-4.0437330">
        <ele>463.0</ele>
        <time>2019-07-08T08:36:46Z</time>
      </trkpt>
      <trkpt lat="39.8654500" lon="-4.0437340">
        <ele>462.4</ele>
        <time>2019-07-08T08:36:48Z</time>
      </trkpt>
      <trkpt lat="39.8655560" lon="-4.0437560">
        <ele>462.2</ele>
        <time>2019-07-08T08:36:50Z</time>
      </trkpt>
      <trkpt lat="39.8656050" lon="-4.0437760">
        <ele>462.2</ele>
        <time>2019-07-08T08:36:51Z</time>
      </trkpt>
      <trkpt lat="39.8657020" lon="-4.0438110">
        <ele>462.2</ele>
        <time>2019-07-08T08:36:53Z</time>
      </trkpt>
      <trkpt lat="39.8658070" lon="-4.0438560">
        <ele>462.2</ele>
        <time>2019-07-08T08:36:55Z</time>
      </trkpt>
      <trkpt lat="39.8658550" lon="-4.0438800">
        <ele>462.2</ele>
        <time>2019-07-08T08:36:56Z</time>
      </trkpt>
      <trkpt lat="39.8660530" lon="-4.0439820">
        <ele>463.4</ele>
        <time>2019-07-08T08:37:01Z</time>
      </trkpt>
      <trkpt lat="39.8660850" lon="-4.0439960">
        <ele>463.8</ele>
        <time>2019-07-08T08:37:02Z</time>
      </trkpt>
      <trkpt lat="39.8662040" lon="-4.0440580">
        <ele>464.0</ele>
        <time>2019-07-08T08:37:05Z</time>
      </trkpt>
      <trkpt lat="39.8662520" lon="-4.0440860">
        <ele>463.8</ele>
        <time>2019-07-08T08:37:06Z</time>
      </trkpt>
      <trkpt lat="39.8662980" lon="-4.0441190">
        <ele>463.8</ele>
        <time>2019-07-08T08:37:07Z</time>
      </trkpt>
      <trkpt lat="39.8664280" lon="-4.0442390">
        <ele>463.0</ele>
        <time>2019-07-08T08:37:10Z</time>
      </trkpt>
      <trkpt lat="39.8664710" lon="-4.0442730">
        <ele>462.8</ele>
        <time>2019-07-08T08:37:11Z</time>
      </trkpt>
      <trkpt lat="39.8665210" lon="-4.0443000">
        <ele>462.6</ele>
        <time>2019-07-08T08:37:12Z</time>
      </trkpt>
      <trkpt lat="39.8666210" lon="-4.0443550">
        <ele>462.4</ele>
        <time>2019-07-08T08:37:14Z</time>
      </trkpt>
      <trkpt lat="39.8667760" lon="-4.0444400">
        <ele>462.2</ele>
        <time>2019-07-08T08:37:17Z</time>
      </trkpt>
      <trkpt lat="39.8669750" lon="-4.0445430">
        <ele>462.2</ele>
        <time>2019-07-08T08:37:21Z</time>
      </trkpt>
      <trkpt lat="39.8672800" lon="-4.0446720">
        <ele>462.4</ele>
        <time>2019-07-08T08:37:27Z</time>
      </trkpt>
      <trkpt lat="39.8674700" lon="-4.0447050">
        <ele>462.8</ele>
        <time>2019-07-08T08:37:31Z</time>
      </trkpt>
      <trkpt lat="39.8675540" lon="-4.0446600">
        <ele>462.8</ele>
        <time>2019-07-08T08:37:33Z</time>
      </trkpt>
      <trkpt lat="39.8676000" lon="-4.0446410">
        <ele>462.8</ele>
        <time>2019-07-08T08:37:34Z</time>
      </trkpt>
      <trkpt lat="39.8676420" lon="-4.0446290">
        <ele>462.8</ele>
        <time>2019-07-08T08:37:35Z</time>
      </trkpt>
      <trkpt lat="39.8677730" lon="-4.0446220">
        <ele>463.0</ele>
        <time>2019-07-08T08:37:38Z</time>
      </trkpt>
      <trkpt lat="39.8678690" lon="-4.0446250">
        <ele>463.2</ele>
        <time>2019-07-08T08:37:40Z</time>
      </trkpt>
      <trkpt lat="39.8680740" lon="-4.0446040">
        <ele>463.4</ele>
        <time>2019-07-08T08:37:44Z</time>
      </trkpt>
      <trkpt lat="39.8682260" lon="-4.0446050">
        <ele>463.6</ele>
        <time>2019-07-08T08:37:47Z</time>
      </trkpt>
      <trkpt lat="39.8683350" lon="-4.0445600">
        <ele>464.0</ele>
        <time>2019-07-08T08:37:50Z</time>
      </trkpt>
      <trkpt lat="39.8683610" lon="-4.0445390">
        <ele>464.2</ele>
        <time>2019-07-08T08:37:51Z</time>
      </trkpt>
      <trkpt lat="39.8684540" lon="-4.0445050">
        <ele>464.6</ele>
        <time>2019-07-08T08:37:54Z</time>
      </trkpt>
      <trkpt lat="39.8684930" lon="-4.0445080">
        <ele>464.6</ele>
        <time>2019-07-08T08:37:55Z</time>
      </trkpt>
      <trkpt lat="39.8686150" lon="-4.0445090">
        <ele>464.6</ele>
        <time>2019-07-08T08:37:58Z</time>
      </trkpt>
      <trkpt lat="39.8687060" lon="-4.0445100">
        <ele>464.4</ele>
        <time>2019-07-08T08:38:00Z</time>
      </trkpt>
      <trkpt lat="39.8690410" lon="-4.0445100">
        <ele>464.0</ele>
        <time>2019-07-08T08:38:07Z</time>
      </trkpt>
      <trkpt lat="39.8692320" lon="-4.0445280">
        <ele>463.8</ele>
        <time>2019-07-08T08:38:11Z</time>
      </trkpt>
      <trkpt lat="39.8693300" lon="-4.0445560">
        <ele>464.2</ele>
        <time>2019-07-08T08:38:13Z</time>
      </trkpt>
      <trkpt lat="39.8695360" lon="-4.0446060">
        <ele>463.6</ele>
        <time>2019-07-08T08:38:17Z</time>
      </trkpt>
      <trkpt lat="39.8695920" lon="-4.0446140">
        <ele>463.4</ele>
        <time>2019-07-08T08:38:18Z</time>
      </trkpt>
      <trkpt lat="39.8696460" lon="-4.0446150">
        <ele>463.4</ele>
        <time>2019-07-08T08:38:19Z</time>
      </trkpt>
      <trkpt lat="39.8699310" lon="-4.0446320">
        <ele>462.8</ele>
        <time>2019-07-08T08:38:24Z</time>
      </trkpt>
      <trkpt lat="39.8699890" lon="-4.0446420">
        <ele>462.8</ele>
        <time>2019-07-08T08:38:25Z</time>
      </trkpt>
      <trkpt lat="39.8702770" lon="-4.0446440">
        <ele>462.4</ele>
        <time>2019-07-08T08:38:30Z</time>
      </trkpt>
      <trkpt lat="39.8703320" lon="-4.0446260">
        <ele>462.4</ele>
        <time>2019-07-08T08:38:31Z</time>
      </trkpt>
      <trkpt lat="39.8705020" lon="-4.0445590">
        <ele>462.4</ele>
        <time>2019-07-08T08:38:35Z</time>
      </trkpt>
      <trkpt lat="39.8706330" lon="-4.0446210">
        <ele>462.2</ele>
        <time>2019-07-08T08:38:38Z</time>
      </trkpt>
      <trkpt lat="39.8706860" lon="-4.0446360">
        <ele>462.2</ele>
        <time>2019-07-08T08:38:39Z</time>
      </trkpt>
      <trkpt lat="39.8708570" lon="-4.0446520">
        <ele>461.8</ele>
        <time>2019-07-08T08:38:42Z</time>
      </trkpt>
      <trkpt lat="39.8710260" lon="-4.0446380">
        <ele>461.8</ele>
        <time>2019-07-08T08:38:45Z</time>
      </trkpt>
      <trkpt lat="39.8715350" lon="-4.0445310">
        <ele>462.0</ele>
        <time>2019-07-08T08:38:54Z</time>
      </trkpt>
      <trkpt lat="39.8719570" lon="-4.0443810">
        <ele>461.6</ele>
        <time>2019-07-08T08:39:02Z</time>
      </trkpt>
      <trkpt lat="39.8723180" lon="-4.0442390">
        <ele>462.0</ele>
        <time>2019-07-08T08:39:09Z</time>
      </trkpt>
      <trkpt lat="39.8723660" lon="-4.0442090">
        <ele>462.0</ele>
        <time>2019-07-08T08:39:10Z</time>
      </trkpt>
      <trkpt lat="39.8724910" lon="-4.0440820">
        <ele>462.0</ele>
        <time>2019-07-08T08:39:13Z</time>
      </trkpt>
      <trkpt lat="39.8726830" lon="-4.0439540">
        <ele>461.8</ele>
        <time>2019-07-08T08:39:17Z</time>
      </trkpt>
      <trkpt lat="39.8727340" lon="-4.0439270">
        <ele>461.8</ele>
        <time>2019-07-08T08:39:18Z</time>
      </trkpt>
      <trkpt lat="39.8730700" lon="-4.0437770">
        <ele>462.4</ele>
        <time>2019-07-08T08:39:25Z</time>
      </trkpt>
      <trkpt lat="39.8733310" lon="-4.0436540">
        <ele>463.2</ele>
        <time>2019-07-08T08:39:31Z</time>
      </trkpt>
      <trkpt lat="39.8734060" lon="-4.0436120">
        <ele>463.2</ele>
        <time>2019-07-08T08:39:33Z</time>
      </trkpt>
      <trkpt lat="39.8734440" lon="-4.0435920">
        <ele>463.2</ele>
        <time>2019-07-08T08:39:34Z</time>
      </trkpt>
      <trkpt lat="39.8735960" lon="-4.0435290">
        <ele>463.6</ele>
        <time>2019-07-08T08:39:38Z</time>
      </trkpt>
      <trkpt lat="39.8736320" lon="-4.0435140">
        <ele>463.8</ele>
        <time>2019-07-08T08:39:39Z</time>
      </trkpt>
      <trkpt lat="39.8737890" lon="-4.0434690">
        <ele>463.6</ele>
        <time>2019-07-08T08:39:43Z</time>
      </trkpt>
      <trkpt lat="39.8738300" lon="-4.0434620">
        <ele>463.2</ele>
        <time>2019-07-08T08:39:44Z</time>
      </trkpt>
      <trkpt lat="39.8738730" lon="-4.0434600">
        <ele>462.6</ele>
        <time>2019-07-08T08:39:45Z</time>
      </trkpt>
      <trkpt lat="39.8739130" lon="-4.0434460">
        <ele>462.2</ele>
        <time>2019-07-08T08:39:46Z</time>
      </trkpt>
      <trkpt lat="39.8740350" lon="-4.0434470">
        <ele>461.6</ele>
        <time>2019-07-08T08:39:49Z</time>
      </trkpt>
      <trkpt lat="39.8743130" lon="-4.0434590">
        <ele>461.8</ele>
        <time>2019-07-08T08:39:56Z</time>
      </trkpt>
      <trkpt lat="39.8743590" lon="-4.0434610">
        <ele>461.6</ele>
        <time>2019-07-08T08:39:57Z</time>
      </trkpt>
      <trkpt lat="39.8745400" lon="-4.0434460">
        <ele>461.4</ele>
        <time>2019-07-08T08:40:01Z</time>
      </trkpt>
      <trkpt lat="39.8748200" lon="-4.0434330">
        <ele>461.6</ele>
        <time>2019-07-08T08:40:07Z</time>
      </trkpt>
      <trkpt lat="39.8750030" lon="-4.0434360">
        <ele>462.0</ele>
        <time>2019-07-08T08:40:12Z</time>
      </trkpt>
      <trkpt lat="39.8750730" lon="-4.0434620">
        <ele>462.0</ele>
        <time>2019-07-08T08:40:16Z</time>
      </trkpt>
      <trkpt lat="39.8750860" lon="-4.0434640">
        <ele>462.0</ele>
        <time>2019-07-08T08:40:17Z</time>
      </trkpt>
      <trkpt lat="39.8751340" lon="-4.0434440">
        <ele>462.2</ele>
        <time>2019-07-08T08:40:20Z</time>
      </trkpt>
      <trkpt lat="39.8751650" lon="-4.0434330">
        <ele>462.4</ele>
        <time>2019-07-08T08:40:22Z</time>
      </trkpt>
      <trkpt lat="39.8752060" lon="-4.0434300">
        <ele>463.0</ele>
        <time>2019-07-08T08:40:24Z</time>
      </trkpt>
      <trkpt lat="39.8752600" lon="-4.0434580">
        <ele>463.4</ele>
        <time>2019-07-08T08:40:26Z</time>
      </trkpt>
      <trkpt lat="39.8752870" lon="-4.0434720">
        <ele>463.8</ele>
        <time>2019-07-08T08:40:27Z</time>
      </trkpt>
      <trkpt lat="39.8753490" lon="-4.0434950">
        <ele>464.0</ele>
        <time>2019-07-08T08:40:29Z</time>
      </trkpt>
      <trkpt lat="39.8754140" lon="-4.0435330">
        <ele>464.6</ele>
        <time>2019-07-08T08:40:31Z</time>
      </trkpt>
      <trkpt lat="39.8754460" lon="-4.0435550">
        <ele>465.0</ele>
        <time>2019-07-08T08:40:32Z</time>
      </trkpt>
      <trkpt lat="39.8755580" lon="-4.0436060">
        <ele>465.2</ele>
        <time>2019-07-08T08:40:35Z</time>
      </trkpt>
      <trkpt lat="39.8756410" lon="-4.0436460">
        <ele>465.2</ele>
        <time>2019-07-08T08:40:37Z</time>
      </trkpt>
      <trkpt lat="39.8759220" lon="-4.0438150">
        <ele>465.8</ele>
        <time>2019-07-08T08:40:44Z</time>
      </trkpt>
      <trkpt lat="39.8762730" lon="-4.0440580">
        <ele>465.8</ele>
        <time>2019-07-08T08:40:52Z</time>
      </trkpt>
      <trkpt lat="39.8763150" lon="-4.0440990">
        <ele>465.8</ele>
        <time>2019-07-08T08:40:53Z</time>
      </trkpt>
      <trkpt lat="39.8765990" lon="-4.0444100">
        <ele>465.8</ele>
        <time>2019-07-08T08:41:00Z</time>
      </trkpt>
      <trkpt lat="39.8766410" lon="-4.0444550">
        <ele>465.6</ele>
        <time>2019-07-08T08:41:01Z</time>
      </trkpt>
      <trkpt lat="39.8768810" lon="-4.0447260">
        <ele>465.4</ele>
        <time>2019-07-08T08:41:07Z</time>
      </trkpt>
      <trkpt lat="39.8769230" lon="-4.0447690">
        <ele>465.4</ele>
        <time>2019-07-08T08:41:08Z</time>
      </trkpt>
      <trkpt lat="39.8770910" lon="-4.0449620">
        <ele>465.2</ele>
        <time>2019-07-08T08:41:12Z</time>
      </trkpt>
      <trkpt lat="39.8771680" lon="-4.0450650">
        <ele>465.2</ele>
        <time>2019-07-08T08:41:14Z</time>
      </trkpt>
      <trkpt lat="39.8774250" lon="-4.0454640">
        <ele>465.4</ele>
        <time>2019-07-08T08:41:21Z</time>
      </trkpt>
      <trkpt lat="39.8776100" lon="-4.0457510">
        <ele>465.0</ele>
        <time>2019-07-08T08:41:26Z</time>
      </trkpt>
      <trkpt lat="39.8776420" lon="-4.0458140">
        <ele>465.0</ele>
        <time>2019-07-08T08:41:27Z</time>
      </trkpt>
      <trkpt lat="39.8777820" lon="-4.0460650">
        <ele>464.8</ele>
        <time>2019-07-08T08:41:31Z</time>
      </trkpt>
      <trkpt lat="39.8778130" lon="-4.0461330">
        <ele>464.8</ele>
        <time>2019-07-08T08:41:32Z</time>
      </trkpt>
      <trkpt lat="39.8778710" lon="-4.0462610">
        <ele>464.8</ele>
        <time>2019-07-08T08:41:34Z</time>
      </trkpt>
      <trkpt lat="39.8779340" lon="-4.0463700">
        <ele>464.6</ele>
        <time>2019-07-08T08:41:36Z</time>
      </trkpt>
      <trkpt lat="39.8780190" lon="-4.0465320">
        <ele>464.8</ele>
        <time>2019-07-08T08:41:39Z</time>
      </trkpt>
      <trkpt lat="39.8780860" lon="-4.0467860">
        <ele>465.4</ele>
        <time>2019-07-08T08:41:43Z</time>
      </trkpt>
      <trkpt lat="39.8781000" lon="-4.0469350">
        <ele>465.2</ele>
        <time>2019-07-08T08:41:45Z</time>
      </trkpt>
      <trkpt lat="39.8781000" lon="-4.0474690">
        <ele>465.0</ele>
        <time>2019-07-08T08:41:52Z</time>
      </trkpt>
      <trkpt lat="39.8780970" lon="-4.0477760">
        <ele>465.4</ele>
        <time>2019-07-08T08:41:56Z</time>
      </trkpt>
      <trkpt lat="39.8781070" lon="-4.0479240">
        <ele>465.4</ele>
        <time>2019-07-08T08:41:58Z</time>
      </trkpt>
      <trkpt lat="39.8781160" lon="-4.0482990">
        <ele>465.4</ele>
        <time>2019-07-08T08:42:03Z</time>
      </trkpt>
      <trkpt lat="39.8781140" lon="-4.0483730">
        <ele>465.4</ele>
        <time>2019-07-08T08:42:04Z</time>
      </trkpt>
      <trkpt lat="39.8781100" lon="-4.0485170">
        <ele>465.6</ele>
        <time>2019-07-08T08:42:06Z</time>
      </trkpt>
      <trkpt lat="39.8781030" lon="-4.0486610">
        <ele>465.6</ele>
        <time>2019-07-08T08:42:08Z</time>
      </trkpt>
      <trkpt lat="39.8781120" lon="-4.0487310">
        <ele>465.6</ele>
        <time>2019-07-08T08:42:09Z</time>
      </trkpt>
      <trkpt lat="39.8781080" lon="-4.0489400">
        <ele>466.0</ele>
        <time>2019-07-08T08:42:12Z</time>
      </trkpt>
      <trkpt lat="39.8780990" lon="-4.0490080">
        <ele>466.2</ele>
        <time>2019-07-08T08:42:13Z</time>
      </trkpt>
      <trkpt lat="39.8780770" lon="-4.0492160">
        <ele>466.2</ele>
        <time>2019-07-08T08:42:16Z</time>
      </trkpt>
      <trkpt lat="39.8780710" lon="-4.0493520">
        <ele>466.2</ele>
        <time>2019-07-08T08:42:18Z</time>
      </trkpt>
      <trkpt lat="39.8780620" lon="-4.0494170">
        <ele>466.2</ele>
        <time>2019-07-08T08:42:19Z</time>
      </trkpt>
      <trkpt lat="39.8780340" lon="-4.0495490">
        <ele>466.2</ele>
        <time>2019-07-08T08:42:21Z</time>
      </trkpt>
      <trkpt lat="39.8779890" lon="-4.0498280">
        <ele>465.8</ele>
        <time>2019-07-08T08:42:25Z</time>
      </trkpt>
      <trkpt lat="39.8778580" lon="-4.0501600">
        <ele>464.8</ele>
        <time>2019-07-08T08:42:30Z</time>
      </trkpt>
      <trkpt lat="39.8778350" lon="-4.0502340">
        <ele>464.8</ele>
        <time>2019-07-08T08:42:31Z</time>
      </trkpt>
      <trkpt lat="39.8778140" lon="-4.0503960">
        <ele>464.6</ele>
        <time>2019-07-08T08:42:33Z</time>
      </trkpt>
      <trkpt lat="39.8778130" lon="-4.0504780">
        <ele>464.6</ele>
        <time>2019-07-08T08:42:34Z</time>
      </trkpt>
      <trkpt lat="39.8778160" lon="-4.0505590">
        <ele>464.4</ele>
        <time>2019-07-08T08:42:35Z</time>
      </trkpt>
      <trkpt lat="39.8778680" lon="-4.0511210">
        <ele>464.4</ele>
        <time>2019-07-08T08:42:42Z</time>
      </trkpt>
      <trkpt lat="39.8779280" lon="-4.0517330">
        <ele>464.8</ele>
        <time>2019-07-08T08:42:50Z</time>
      </trkpt>
      <trkpt lat="39.8779760" lon="-4.0520970">
        <ele>465.0</ele>
        <time>2019-07-08T08:42:55Z</time>
      </trkpt>
      <trkpt lat="39.8780100" lon="-4.0523170">
        <ele>465.0</ele>
        <time>2019-07-08T08:42:58Z</time>
      </trkpt>
      <trkpt lat="39.8780870" lon="-4.0527520">
        <ele>465.4</ele>
        <time>2019-07-08T08:43:04Z</time>
      </trkpt>
      <trkpt lat="39.8780960" lon="-4.0528230">
        <ele>465.4</ele>
        <time>2019-07-08T08:43:05Z</time>
      </trkpt>
      <trkpt lat="39.8781740" lon="-4.0533130">
        <ele>465.6</ele>
        <time>2019-07-08T08:43:12Z</time>
      </trkpt>
      <trkpt lat="39.8782590" lon="-4.0537130">
        <ele>465.8</ele>
        <time>2019-07-08T08:43:18Z</time>
      </trkpt>
      <trkpt lat="39.8782750" lon="-4.0537800">
        <ele>465.8</ele>
        <time>2019-07-08T08:43:19Z</time>
      </trkpt>
      <trkpt lat="39.8783540" lon="-4.0541250">
        <ele>466.0</ele>
        <time>2019-07-08T08:43:24Z</time>
      </trkpt>
      <trkpt lat="39.8783780" lon="-4.0542630">
        <ele>466.0</ele>
        <time>2019-07-08T08:43:26Z</time>
      </trkpt>
      <trkpt lat="39.8784390" lon="-4.0545400">
        <ele>466.4</ele>
        <time>2019-07-08T08:43:30Z</time>
      </trkpt>
      <trkpt lat="39.8784720" lon="-4.0546750">
        <ele>466.6</ele>
        <time>2019-07-08T08:43:32Z</time>
      </trkpt>
      <trkpt lat="39.8785170" lon="-4.0548870">
        <ele>466.6</ele>
        <time>2019-07-08T08:43:35Z</time>
      </trkpt>
      <trkpt lat="39.8785860" lon="-4.0552470">
        <ele>467.0</ele>
        <time>2019-07-08T08:43:40Z</time>
      </trkpt>
      <trkpt lat="39.8785970" lon="-4.0553140">
        <ele>467.0</ele>
        <time>2019-07-08T08:43:41Z</time>
      </trkpt>
      <trkpt lat="39.8786600" lon="-4.0557400">
        <ele>467.6</ele>
        <time>2019-07-08T08:43:47Z</time>
      </trkpt>
      <trkpt lat="39.8787130" lon="-4.0560800">
        <ele>467.8</ele>
        <time>2019-07-08T08:43:52Z</time>
      </trkpt>
      <trkpt lat="39.8787930" lon="-4.0566160">
        <ele>467.8</ele>
        <time>2019-07-08T08:43:59Z</time>
      </trkpt>
      <trkpt lat="39.8788530" lon="-4.0571690">
        <ele>468.0</ele>
        <time>2019-07-08T08:44:06Z</time>
      </trkpt>
      <trkpt lat="39.8789320" lon="-4.0577860">
        <ele>468.0</ele>
        <time>2019-07-08T08:44:14Z</time>
      </trkpt>
      <trkpt lat="39.8790480" lon="-4.0582150">
        <ele>468.0</ele>
        <time>2019-07-08T08:44:20Z</time>
      </trkpt>
      <trkpt lat="39.8791670" lon="-4.0584670">
        <ele>468.6</ele>
        <time>2019-07-08T08:44:24Z</time>
      </trkpt>
      <trkpt lat="39.8792530" lon="-4.0586450">
        <ele>469.2</ele>
        <time>2019-07-08T08:44:27Z</time>
      </trkpt>
      <trkpt lat="39.8793030" lon="-4.0587630">
        <ele>469.4</ele>
        <time>2019-07-08T08:44:29Z</time>
      </trkpt>
      <trkpt lat="39.8793450" lon="-4.0588840">
        <ele>469.8</ele>
        <time>2019-07-08T08:44:31Z</time>
      </trkpt>
      <trkpt lat="39.8793990" lon="-4.0590720">
        <ele>470.2</ele>
        <time>2019-07-08T08:44:34Z</time>
      </trkpt>
      <trkpt lat="39.8794440" lon="-4.0593940">
        <ele>470.6</ele>
        <time>2019-07-08T08:44:39Z</time>
      </trkpt>
      <trkpt lat="39.8794410" lon="-4.0594560">
        <ele>470.8</ele>
        <time>2019-07-08T08:44:40Z</time>
      </trkpt>
      <trkpt lat="39.8794160" lon="-4.0597270">
        <ele>471.4</ele>
        <time>2019-07-08T08:44:44Z</time>
      </trkpt>
      <trkpt lat="39.8793910" lon="-4.0599450">
        <ele>471.8</ele>
        <time>2019-07-08T08:44:47Z</time>
      </trkpt>
      <trkpt lat="39.8793260" lon="-4.0603080">
        <ele>472.4</ele>
        <time>2019-07-08T08:44:52Z</time>
      </trkpt>
      <trkpt lat="39.8792180" lon="-4.0608930">
        <ele>472.2</ele>
        <time>2019-07-08T08:45:00Z</time>
      </trkpt>
      <trkpt lat="39.8791450" lon="-4.0614350">
        <ele>471.8</ele>
        <time>2019-07-08T08:45:07Z</time>
      </trkpt>
      <trkpt lat="39.8791290" lon="-4.0615890">
        <ele>471.8</ele>
        <time>2019-07-08T08:45:09Z</time>
      </trkpt>
      <trkpt lat="39.8790290" lon="-4.0621980">
        <ele>471.8</ele>
        <time>2019-07-08T08:45:17Z</time>
      </trkpt>
      <trkpt lat="39.8788570" lon="-4.0628700">
        <ele>472.6</ele>
        <time>2019-07-08T08:45:26Z</time>
      </trkpt>
      <trkpt lat="39.8788200" lon="-4.0630250">
        <ele>472.6</ele>
        <time>2019-07-08T08:45:28Z</time>
      </trkpt>
      <trkpt lat="39.8787160" lon="-4.0634740">
        <ele>472.0</ele>
        <time>2019-07-08T08:45:33Z</time>
      </trkpt>
      <trkpt lat="39.8786910" lon="-4.0636680">
        <ele>471.2</ele>
        <time>2019-07-08T08:45:35Z</time>
      </trkpt>
      <trkpt lat="39.8786830" lon="-4.0637640">
        <ele>470.8</ele>
        <time>2019-07-08T08:45:36Z</time>
      </trkpt>
      <trkpt lat="39.8786580" lon="-4.0641470">
        <ele>469.6</ele>
        <time>2019-07-08T08:45:40Z</time>
      </trkpt>
      <trkpt lat="39.8785830" lon="-4.0646010">
        <ele>469.4</ele>
        <time>2019-07-08T08:45:45Z</time>
      </trkpt>
      <trkpt lat="39.8785670" lon="-4.0646880">
        <ele>469.4</ele>
        <time>2019-07-08T08:45:46Z</time>
      </trkpt>
      <trkpt lat="39.8785580" lon="-4.0647740">
        <ele>469.4</ele>
        <time>2019-07-08T08:45:47Z</time>
      </trkpt>
      <trkpt lat="39.8785780" lon="-4.0649340">
        <ele>469.6</ele>
        <time>2019-07-08T08:45:49Z</time>
      </trkpt>
      <trkpt lat="39.8786150" lon="-4.0650770">
        <ele>470.0</ele>
        <time>2019-07-08T08:45:51Z</time>
      </trkpt>
      <trkpt lat="39.8786160" lon="-4.0652180">
        <ele>470.2</ele>
        <time>2019-07-08T08:45:53Z</time>
      </trkpt>
      <trkpt lat="39.8785010" lon="-4.0653660">
        <ele>470.4</ele>
        <time>2019-07-08T08:45:56Z</time>
      </trkpt>
      <trkpt lat="39.8783250" lon="-4.0653580">
        <ele>470.2</ele>
        <time>2019-07-08T08:45:59Z</time>
      </trkpt>
      <trkpt lat="39.8782620" lon="-4.0653500">
        <ele>470.2</ele>
        <time>2019-07-08T08:46:00Z</time>
      </trkpt>
      <trkpt lat="39.8781370" lon="-4.0653940">
        <ele>469.8</ele>
        <time>2019-07-08T08:46:02Z</time>
      </trkpt>
      <trkpt lat="39.8779830" lon="-4.0655730">
        <ele>469.0</ele>
        <time>2019-07-08T08:46:05Z</time>
      </trkpt>
      <trkpt lat="39.8779350" lon="-4.0656390">
        <ele>468.8</ele>
        <time>2019-07-08T08:46:06Z</time>
      </trkpt>
      <trkpt lat="39.8778880" lon="-4.0657040">
        <ele>468.6</ele>
        <time>2019-07-08T08:46:07Z</time>
      </trkpt>
      <trkpt lat="39.8777170" lon="-4.0659660">
        <ele>468.0</ele>
        <time>2019-07-08T08:46:11Z</time>
      </trkpt>
      <trkpt lat="39.8776560" lon="-4.0661180">
        <ele>467.8</ele>
        <time>2019-07-08T08:46:13Z</time>
      </trkpt>
      <trkpt lat="39.8776160" lon="-4.0662870">
        <ele>467.8</ele>
        <time>2019-07-08T08:46:15Z</time>
      </trkpt>
      <trkpt lat="39.8775640" lon="-4.0665440">
        <ele>467.6</ele>
        <time>2019-07-08T08:46:18Z</time>
      </trkpt>
      <trkpt lat="39.8775290" lon="-4.0667150">
        <ele>467.2</ele>
        <time>2019-07-08T08:46:20Z</time>
      </trkpt>
      <trkpt lat="39.8775120" lon="-4.0668020">
        <ele>467.2</ele>
        <time>2019-07-08T08:46:21Z</time>
      </trkpt>
      <trkpt lat="39.8774740" lon="-4.0669770">
        <ele>466.8</ele>
        <time>2019-07-08T08:46:23Z</time>
      </trkpt>
      <trkpt lat="39.8774540" lon="-4.0670660">
        <ele>466.8</ele>
        <time>2019-07-08T08:46:24Z</time>
      </trkpt>
      <trkpt lat="39.8773840" lon="-4.0673340">
        <ele>466.0</ele>
        <time>2019-07-08T08:46:27Z</time>
      </trkpt>
      <trkpt lat="39.8773270" lon="-4.0676100">
        <ele>465.6</ele>
        <time>2019-07-08T08:46:30Z</time>
      </trkpt>
      <trkpt lat="39.8772440" lon="-4.0679640">
        <ele>465.4</ele>
        <time>2019-07-08T08:46:34Z</time>
      </trkpt>
      <trkpt lat="39.8771480" lon="-4.0683270">
        <ele>466.4</ele>
        <time>2019-07-08T08:46:39Z</time>
      </trkpt>
      <trkpt lat="39.8771320" lon="-4.0683880">
        <ele>466.6</ele>
        <time>2019-07-08T08:46:40Z</time>
      </trkpt>
      <trkpt lat="39.8771190" lon="-4.0684440">
        <ele>467.2</ele>
        <time>2019-07-08T08:46:41Z</time>
      </trkpt>
      <trkpt lat="39.8770780" lon="-4.0685950">
        <ele>468.6</ele>
        <time>2019-07-08T08:46:44Z</time>
      </trkpt>
      <trkpt lat="39.8770550" lon="-4.0686770">
        <ele>469.4</ele>
        <time>2019-07-08T08:46:46Z</time>
      </trkpt>
      <trkpt lat="39.8770430" lon="-4.0687160">
        <ele>469.8</ele>
        <time>2019-07-08T08:46:47Z</time>
      </trkpt>
      <trkpt lat="39.8770240" lon="-4.0687950">
        <ele>470.6</ele>
        <time>2019-07-08T08:46:49Z</time>
      </trkpt>
      <trkpt lat="39.8770140" lon="-4.0688340">
        <ele>471.2</ele>
        <time>2019-07-08T08:46:50Z</time>
      </trkpt>
      <trkpt lat="39.8769770" lon="-4.0689520">
        <ele>472.4</ele>
        <time>2019-07-08T08:46:53Z</time>
      </trkpt>
      <trkpt lat="39.8769650" lon="-4.0689910">
        <ele>472.8</ele>
        <time>2019-07-08T08:46:54Z</time>
      </trkpt>
      <trkpt lat="39.8769450" lon="-4.0690690">
        <ele>473.6</ele>
        <time>2019-07-08T08:46:56Z</time>
      </trkpt>
      <trkpt lat="39.8769330" lon="-4.0691500">
        <ele>474.4</ele>
        <time>2019-07-08T08:46:58Z</time>
      </trkpt>
      <trkpt lat="39.8769280" lon="-4.0691900">
        <ele>474.8</ele>
        <time>2019-07-08T08:46:59Z</time>
      </trkpt>
      <trkpt lat="39.8769180" lon="-4.0692690">
        <ele>475.4</ele>
        <time>2019-07-08T08:47:01Z</time>
      </trkpt>
      <trkpt lat="39.8769160" lon="-4.0693080">
        <ele>475.8</ele>
        <time>2019-07-08T08:47:02Z</time>
      </trkpt>
      <trkpt lat="39.8768930" lon="-4.0694130">
        <ele>476.4</ele>
        <time>2019-07-08T08:47:05Z</time>
      </trkpt>
      <trkpt lat="39.8768830" lon="-4.0694840">
        <ele>477.0</ele>
        <time>2019-07-08T08:47:07Z</time>
      </trkpt>
      <trkpt lat="39.8768730" lon="-4.0695850">
        <ele>478.0</ele>
        <time>2019-07-08T08:47:10Z</time>
      </trkpt>
      <trkpt lat="39.8768650" lon="-4.0696170">
        <ele>478.2</ele>
        <time>2019-07-08T08:47:11Z</time>
      </trkpt>
      <trkpt lat="39.8768470" lon="-4.0697140">
        <ele>479.6</ele>
        <time>2019-07-08T08:47:14Z</time>
      </trkpt>
      <trkpt lat="39.8768300" lon="-4.0698100">
        <ele>480.6</ele>
        <time>2019-07-08T08:47:17Z</time>
      </trkpt>
      <trkpt lat="39.8768210" lon="-4.0699090">
        <ele>481.6</ele>
        <time>2019-07-08T08:47:20Z</time>
      </trkpt>
      <trkpt lat="39.8768190" lon="-4.0699420">
        <ele>482.0</ele>
        <time>2019-07-08T08:47:21Z</time>
      </trkpt>
      <trkpt lat="39.8768030" lon="-4.0700330">
        <ele>483.0</ele>
        <time>2019-07-08T08:47:24Z</time>
      </trkpt>
      <trkpt lat="39.8767870" lon="-4.0701290">
        <ele>483.6</ele>
        <time>2019-07-08T08:47:27Z</time>
      </trkpt>
      <trkpt lat="39.8767760" lon="-4.0701590">
        <ele>484.0</ele>
        <time>2019-07-08T08:47:28Z</time>
      </trkpt>
      <trkpt lat="39.8767690" lon="-4.0702900">
        <ele>485.2</ele>
        <time>2019-07-08T08:47:32Z</time>
      </trkpt>
      <trkpt lat="39.8767570" lon="-4.0704430">
        <ele>486.6</ele>
        <time>2019-07-08T08:47:37Z</time>
      </trkpt>
      <trkpt lat="39.8767470" lon="-4.0705040">
        <ele>487.2</ele>
        <time>2019-07-08T08:47:39Z</time>
      </trkpt>
      <trkpt lat="39.8767470" lon="-4.0706000">
        <ele>487.6</ele>
        <time>2019-07-08T08:47:42Z</time>
      </trkpt>
      <trkpt lat="39.8767410" lon="-4.0707020">
        <ele>488.4</ele>
        <time>2019-07-08T08:47:45Z</time>
      </trkpt>
      <trkpt lat="39.8767350" lon="-4.0707760">
        <ele>488.8</ele>
        <time>2019-07-08T08:47:47Z</time>
      </trkpt>
      <trkpt lat="39.8767060" lon="-4.0710140">
        <ele>489.6</ele>
        <time>2019-07-08T08:47:53Z</time>
      </trkpt>
      <trkpt lat="39.8766990" lon="-4.0710560">
        <ele>490.0</ele>
        <time>2019-07-08T08:47:54Z</time>
      </trkpt>
      <trkpt lat="39.8766510" lon="-4.0713210">
        <ele>490.8</ele>
        <time>2019-07-08T08:48:00Z</time>
      </trkpt>
      <trkpt lat="39.8766330" lon="-4.0714160">
        <ele>491.0</ele>
        <time>2019-07-08T08:48:02Z</time>
      </trkpt>
      <trkpt lat="39.8765690" lon="-4.0716730">
        <ele>491.2</ele>
        <time>2019-07-08T08:48:07Z</time>
      </trkpt>
      <trkpt lat="39.8764770" lon="-4.0718740">
        <ele>491.2</ele>
        <time>2019-07-08T08:48:11Z</time>
      </trkpt>
      <trkpt lat="39.8764210" lon="-4.0719640">
        <ele>491.4</ele>
        <time>2019-07-08T08:48:13Z</time>
      </trkpt>
      <trkpt lat="39.8763920" lon="-4.0720050">
        <ele>491.4</ele>
        <time>2019-07-08T08:48:14Z</time>
      </trkpt>
      <trkpt lat="39.8763060" lon="-4.0721240">
        <ele>492.0</ele>
        <time>2019-07-08T08:48:17Z</time>
      </trkpt>
      <trkpt lat="39.8762500" lon="-4.0722050">
        <ele>492.0</ele>
        <time>2019-07-08T08:48:19Z</time>
      </trkpt>
      <trkpt lat="39.8762200" lon="-4.0722450">
        <ele>492.0</ele>
        <time>2019-07-08T08:48:20Z</time>
      </trkpt>
      <trkpt lat="39.8761220" lon="-4.0723600">
        <ele>492.0</ele>
        <time>2019-07-08T08:48:23Z</time>
      </trkpt>
      <trkpt lat="39.8760640" lon="-4.0724530">
        <ele>492.0</ele>
        <time>2019-07-08T08:48:25Z</time>
      </trkpt>
      <trkpt lat="39.8760140" lon="-4.0725580">
        <ele>492.0</ele>
        <time>2019-07-08T08:48:27Z</time>
      </trkpt>
      <trkpt lat="39.8759780" lon="-4.0727530">
        <ele>492.2</ele>
        <time>2019-07-08T08:48:30Z</time>
      </trkpt>
      <trkpt lat="39.8760020" lon="-4.0729570">
        <ele>492.0</ele>
        <time>2019-07-08T08:48:33Z</time>
      </trkpt>
      <trkpt lat="39.8760160" lon="-4.0730860">
        <ele>492.0</ele>
        <time>2019-07-08T08:48:35Z</time>
      </trkpt>
      <trkpt lat="39.8760140" lon="-4.0732090">
        <ele>492.0</ele>
        <time>2019-07-08T08:48:37Z</time>
      </trkpt>
      <trkpt lat="39.8759920" lon="-4.0733290">
        <ele>492.2</ele>
        <time>2019-07-08T08:48:39Z</time>
      </trkpt>
      <trkpt lat="39.8759810" lon="-4.0733880">
        <ele>492.4</ele>
        <time>2019-07-08T08:48:40Z</time>
      </trkpt>
      <trkpt lat="39.8759590" lon="-4.0736380">
        <ele>493.0</ele>
        <time>2019-07-08T08:48:44Z</time>
      </trkpt>
      <trkpt lat="39.8759820" lon="-4.0737640">
        <ele>493.2</ele>
        <time>2019-07-08T08:48:46Z</time>
      </trkpt>
      <trkpt lat="39.8760520" lon="-4.0740090">
        <ele>493.4</ele>
        <time>2019-07-08T08:48:50Z</time>
      </trkpt>
      <trkpt lat="39.8761570" lon="-4.0743990">
        <ele>493.8</ele>
        <time>2019-07-08T08:48:56Z</time>
      </trkpt>
      <trkpt lat="39.8761750" lon="-4.0744630">
        <ele>493.8</ele>
        <time>2019-07-08T08:48:57Z</time>
      </trkpt>
      <trkpt lat="39.8762610" lon="-4.0747150">
        <ele>493.8</ele>
        <time>2019-07-08T08:49:01Z</time>
      </trkpt>
      <trkpt lat="39.8763380" lon="-4.0748180">
        <ele>493.8</ele>
        <time>2019-07-08T08:49:03Z</time>
      </trkpt>
      <trkpt lat="39.8764300" lon="-4.0749000">
        <ele>493.8</ele>
        <time>2019-07-08T08:49:05Z</time>
      </trkpt>
      <trkpt lat="39.8765480" lon="-4.0750410">
        <ele>493.8</ele>
        <time>2019-07-08T08:49:08Z</time>
      </trkpt>
      <trkpt lat="39.8765760" lon="-4.0750960">
        <ele>493.8</ele>
        <time>2019-07-08T08:49:09Z</time>
      </trkpt>
      <trkpt lat="39.8766330" lon="-4.0752700">
        <ele>494.4</ele>
        <time>2019-07-08T08:49:12Z</time>
      </trkpt>
      <trkpt lat="39.8766540" lon="-4.0753260">
        <ele>494.6</ele>
        <time>2019-07-08T08:49:13Z</time>
      </trkpt>
      <trkpt lat="39.8766790" lon="-4.0753760">
        <ele>494.8</ele>
        <time>2019-07-08T08:49:14Z</time>
      </trkpt>
      <trkpt lat="39.8768590" lon="-4.0755610">
        <ele>495.4</ele>
        <time>2019-07-08T08:49:19Z</time>
      </trkpt>
      <trkpt lat="39.8771360" lon="-4.0758080">
        <ele>495.4</ele>
        <time>2019-07-08T08:49:26Z</time>
      </trkpt>
      <trkpt lat="39.8773350" lon="-4.0761350">
        <ele>495.8</ele>
        <time>2019-07-08T08:49:33Z</time>
      </trkpt>
      <trkpt lat="39.8773840" lon="-4.0762250">
        <ele>495.8</ele>
        <time>2019-07-08T08:49:35Z</time>
      </trkpt>
      <trkpt lat="39.8775000" lon="-4.0764610">
        <ele>496.4</ele>
        <time>2019-07-08T08:49:40Z</time>
      </trkpt>
      <trkpt lat="39.8775590" lon="-4.0766070">
        <ele>496.8</ele>
        <time>2019-07-08T08:49:43Z</time>
      </trkpt>
      <trkpt lat="39.8776250" lon="-4.0767480">
        <ele>497.0</ele>
        <time>2019-07-08T08:49:46Z</time>
      </trkpt>
      <trkpt lat="39.8776590" lon="-4.0768500">
        <ele>497.2</ele>
        <time>2019-07-08T08:49:48Z</time>
      </trkpt>
      <trkpt lat="39.8776920" lon="-4.0769510">
        <ele>497.4</ele>
        <time>2019-07-08T08:49:50Z</time>
      </trkpt>
      <trkpt lat="39.8777710" lon="-4.0771740">
        <ele>497.8</ele>
        <time>2019-07-08T08:49:55Z</time>
      </trkpt>
      <trkpt lat="39.8777970" lon="-4.0772650">
        <ele>498.0</ele>
        <time>2019-07-08T08:49:57Z</time>
      </trkpt>
      <trkpt lat="39.8778410" lon="-4.0774610">
        <ele>498.6</ele>
        <time>2019-07-08T08:50:01Z</time>
      </trkpt>
      <trkpt lat="39.8779270" lon="-4.0777370">
        <ele>499.2</ele>
        <time>2019-07-08T08:50:07Z</time>
      </trkpt>
      <trkpt lat="39.8779450" lon="-4.0777830">
        <ele>499.2</ele>
        <time>2019-07-08T08:50:08Z</time>
      </trkpt>
      <trkpt lat="39.8780060" lon="-4.0779780">
        <ele>499.6</ele>
        <time>2019-07-08T08:50:12Z</time>
      </trkpt>
      <trkpt lat="39.8780410" lon="-4.0781300">
        <ele>500.0</ele>
        <time>2019-07-08T08:50:15Z</time>
      </trkpt>
      <trkpt lat="39.8780760" lon="-4.0782860">
        <ele>500.4</ele>
        <time>2019-07-08T08:50:18Z</time>
      </trkpt>
      <trkpt lat="39.8781000" lon="-4.0783850">
        <ele>500.6</ele>
        <time>2019-07-08T08:50:20Z</time>
      </trkpt>
      <trkpt lat="39.8781500" lon="-4.0785210">
        <ele>500.8</ele>
        <time>2019-07-08T08:50:23Z</time>
      </trkpt>
      <trkpt lat="39.8782160" lon="-4.0786470">
        <ele>501.4</ele>
        <time>2019-07-08T08:50:26Z</time>
      </trkpt>
      <trkpt lat="39.8782670" lon="-4.0787940">
        <ele>501.8</ele>
        <time>2019-07-08T08:50:29Z</time>
      </trkpt>
      <trkpt lat="39.8783790" lon="-4.0791000">
        <ele>502.4</ele>
        <time>2019-07-08T08:50:35Z</time>
      </trkpt>
      <trkpt lat="39.8784040" lon="-4.0791460">
        <ele>502.4</ele>
        <time>2019-07-08T08:50:36Z</time>
      </trkpt>
      <trkpt lat="39.8784570" lon="-4.0792360">
        <ele>502.4</ele>
        <time>2019-07-08T08:50:38Z</time>
      </trkpt>
      <trkpt lat="39.8784970" lon="-4.0793400">
        <ele>502.6</ele>
        <time>2019-07-08T08:50:40Z</time>
      </trkpt>
      <trkpt lat="39.8785340" lon="-4.0794460">
        <ele>503.0</ele>
        <time>2019-07-08T08:50:42Z</time>
      </trkpt>
      <trkpt lat="39.8786310" lon="-4.0797020">
        <ele>503.8</ele>
        <time>2019-07-08T08:50:47Z</time>
      </trkpt>
      <trkpt lat="39.8786680" lon="-4.0797960">
        <ele>504.0</ele>
        <time>2019-07-08T08:50:49Z</time>
      </trkpt>
      <trkpt lat="39.8787490" lon="-4.0799710">
        <ele>504.8</ele>
        <time>2019-07-08T08:50:53Z</time>
      </trkpt>
      <trkpt lat="39.8787900" lon="-4.0800500">
        <ele>505.2</ele>
        <time>2019-07-08T08:50:55Z</time>
      </trkpt>
      <trkpt lat="39.8788540" lon="-4.0801600">
        <ele>505.8</ele>
        <time>2019-07-08T08:50:58Z</time>
      </trkpt>
      <trkpt lat="39.8789190" lon="-4.0802740">
        <ele>506.6</ele>
        <time>2019-07-08T08:51:01Z</time>
      </trkpt>
      <trkpt lat="39.8789540" lon="-4.0803500">
        <ele>507.0</ele>
        <time>2019-07-08T08:51:03Z</time>
      </trkpt>
      <trkpt lat="39.8790320" lon="-4.0805000">
        <ele>508.2</ele>
        <time>2019-07-08T08:51:07Z</time>
      </trkpt>
      <trkpt lat="39.8790650" lon="-4.0805740">
        <ele>508.6</ele>
        <time>2019-07-08T08:51:09Z</time>
      </trkpt>
      <trkpt lat="39.8791160" lon="-4.0806830">
        <ele>509.2</ele>
        <time>2019-07-08T08:51:12Z</time>
      </trkpt>
      <trkpt lat="39.8791800" lon="-4.0808230">
        <ele>510.0</ele>
        <time>2019-07-08T08:51:16Z</time>
      </trkpt>
      <trkpt lat="39.8791930" lon="-4.0808600">
        <ele>510.2</ele>
        <time>2019-07-08T08:51:17Z</time>
      </trkpt>
      <trkpt lat="39.8792320" lon="-4.0809680">
        <ele>510.8</ele>
        <time>2019-07-08T08:51:20Z</time>
      </trkpt>
      <trkpt lat="39.8792640" lon="-4.0810320">
        <ele>511.4</ele>
        <time>2019-07-08T08:51:22Z</time>
      </trkpt>
      <trkpt lat="39.8792800" lon="-4.0810610">
        <ele>511.8</ele>
        <time>2019-07-08T08:51:23Z</time>
      </trkpt>
      <trkpt lat="39.8793050" lon="-4.0811250">
        <ele>512.4</ele>
        <time>2019-07-08T08:51:25Z</time>
      </trkpt>
      <trkpt lat="39.8793670" lon="-4.0812500">
        <ele>513.2</ele>
        <time>2019-07-08T08:51:29Z</time>
      </trkpt>
      <trkpt lat="39.8793810" lon="-4.0812810">
        <ele>513.6</ele>
        <time>2019-07-08T08:51:30Z</time>
      </trkpt>
      <trkpt lat="39.8794720" lon="-4.0814140">
        <ele>514.6</ele>
        <time>2019-07-08T08:51:35Z</time>
      </trkpt>
      <trkpt lat="39.8794930" lon="-4.0814400">
        <ele>514.8</ele>
        <time>2019-07-08T08:51:36Z</time>
      </trkpt>
      <trkpt lat="39.8795490" lon="-4.0815200">
        <ele>515.8</ele>
        <time>2019-07-08T08:51:39Z</time>
      </trkpt>
      <trkpt lat="39.8796100" lon="-4.0816330">
        <ele>517.0</ele>
        <time>2019-07-08T08:51:43Z</time>
      </trkpt>
      <trkpt lat="39.8796240" lon="-4.0816630">
        <ele>517.4</ele>
        <time>2019-07-08T08:51:44Z</time>
      </trkpt>
      <trkpt lat="39.8796680" lon="-4.0817510">
        <ele>518.2</ele>
        <time>2019-07-08T08:51:47Z</time>
      </trkpt>
      <trkpt lat="39.8797640" lon="-4.0818780">
        <ele>519.2</ele>
        <time>2019-07-08T08:51:52Z</time>
      </trkpt>
      <trkpt lat="39.8797800" lon="-4.0819090">
        <ele>519.4</ele>
        <time>2019-07-08T08:51:53Z</time>
      </trkpt>
      <trkpt lat="39.8798240" lon="-4.0820060">
        <ele>520.6</ele>
        <time>2019-07-08T08:51:56Z</time>
      </trkpt>
      <trkpt lat="39.8798740" lon="-4.0820980">
        <ele>521.0</ele>
        <time>2019-07-08T08:51:59Z</time>
      </trkpt>
      <trkpt lat="39.8799170" lon="-4.0821960">
        <ele>521.6</ele>
        <time>2019-07-08T08:52:02Z</time>
      </trkpt>
      <trkpt lat="39.8799930" lon="-4.0823500">
        <ele>522.6</ele>
        <time>2019-07-08T08:52:07Z</time>
      </trkpt>
      <trkpt lat="39.8800070" lon="-4.0823820">
        <ele>522.8</ele>
        <time>2019-07-08T08:52:08Z</time>
      </trkpt>
      <trkpt lat="39.8800760" lon="-4.0825370">
        <ele>524.0</ele>
        <time>2019-07-08T08:52:13Z</time>
      </trkpt>
      <trkpt lat="39.8801150" lon="-4.0826320">
        <ele>524.4</ele>
        <time>2019-07-08T08:52:16Z</time>
      </trkpt>
      <trkpt lat="39.8801550" lon="-4.0827220">
        <ele>525.0</ele>
        <time>2019-07-08T08:52:19Z</time>
      </trkpt>
      <trkpt lat="39.8801880" lon="-4.0828140">
        <ele>525.6</ele>
        <time>2019-07-08T08:52:22Z</time>
      </trkpt>
      <trkpt lat="39.8802090" lon="-4.0828820">
        <ele>526.2</ele>
        <time>2019-07-08T08:52:24Z</time>
      </trkpt>
      <trkpt lat="39.8802550" lon="-4.0830220">
        <ele>527.2</ele>
        <time>2019-07-08T08:52:28Z</time>
      </trkpt>
      <trkpt lat="39.8802640" lon="-4.0830580">
        <ele>527.4</ele>
        <time>2019-07-08T08:52:29Z</time>
      </trkpt>
      <trkpt lat="39.8802960" lon="-4.0832020">
        <ele>528.6</ele>
        <time>2019-07-08T08:52:33Z</time>
      </trkpt>
      <trkpt lat="39.8803180" lon="-4.0832720">
        <ele>529.0</ele>
        <time>2019-07-08T08:52:35Z</time>
      </trkpt>
      <trkpt lat="39.8803540" lon="-4.0833740">
        <ele>529.6</ele>
        <time>2019-07-08T08:52:38Z</time>
      </trkpt>
      <trkpt lat="39.8804150" lon="-4.0835820">
        <ele>530.6</ele>
        <time>2019-07-08T08:52:44Z</time>
      </trkpt>
      <trkpt lat="39.8804250" lon="-4.0836170">
        <ele>530.8</ele>
        <time>2019-07-08T08:52:45Z</time>
      </trkpt>
      <trkpt lat="39.8804720" lon="-4.0837690">
        <ele>532.2</ele>
        <time>2019-07-08T08:52:49Z</time>
      </trkpt>
      <trkpt lat="39.8805070" lon="-4.0838920">
        <ele>532.6</ele>
        <time>2019-07-08T08:52:52Z</time>
      </trkpt>
      <trkpt lat="39.8805400" lon="-4.0840140">
        <ele>533.2</ele>
        <time>2019-07-08T08:52:55Z</time>
      </trkpt>
      <trkpt lat="39.8805830" lon="-4.0841790">
        <ele>534.0</ele>
        <time>2019-07-08T08:52:59Z</time>
      </trkpt>
      <trkpt lat="39.8806120" lon="-4.0842640">
        <ele>534.4</ele>
        <time>2019-07-08T08:53:01Z</time>
      </trkpt>
      <trkpt lat="39.8806730" lon="-4.0844890">
        <ele>534.8</ele>
        <time>2019-07-08T08:53:06Z</time>
      </trkpt>
      <trkpt lat="39.8807410" lon="-4.0847160">
        <ele>535.4</ele>
        <time>2019-07-08T08:53:11Z</time>
      </trkpt>
      <trkpt lat="39.8807670" lon="-4.0848140">
        <ele>535.8</ele>
        <time>2019-07-08T08:53:13Z</time>
      </trkpt>
      <trkpt lat="39.8808550" lon="-4.0851470">
        <ele>536.4</ele>
        <time>2019-07-08T08:53:20Z</time>
      </trkpt>
      <trkpt lat="39.8808830" lon="-4.0852420">
        <ele>537.0</ele>
        <time>2019-07-08T08:53:22Z</time>
      </trkpt>
      <trkpt lat="39.8809210" lon="-4.0853860">
        <ele>537.6</ele>
        <time>2019-07-08T08:53:25Z</time>
      </trkpt>
      <trkpt lat="39.8809670" lon="-4.0855710">
        <ele>538.2</ele>
        <time>2019-07-08T08:53:29Z</time>
      </trkpt>
      <trkpt lat="39.8809960" lon="-4.0856550">
        <ele>538.8</ele>
        <time>2019-07-08T08:53:31Z</time>
      </trkpt>
      <trkpt lat="39.8810670" lon="-4.0858110">
        <ele>540.0</ele>
        <time>2019-07-08T08:53:35Z</time>
      </trkpt>
      <trkpt lat="39.8810830" lon="-4.0858510">
        <ele>540.2</ele>
        <time>2019-07-08T08:53:36Z</time>
      </trkpt>
      <trkpt lat="39.8811360" lon="-4.0860160">
        <ele>529.8</ele>
        <time>2019-07-08T08:53:40Z</time>
      </trkpt>
      <trkpt lat="39.8811760" lon="-4.0861350">
        <ele>541.6</ele>
        <time>2019-07-08T08:53:43Z</time>
      </trkpt>
      <trkpt lat="39.8812200" lon="-4.0862580">
        <ele>542.2</ele>
        <time>2019-07-08T08:53:46Z</time>
      </trkpt>
      <trkpt lat="39.8812680" lon="-4.0864270">
        <ele>543.0</ele>
        <time>2019-07-08T08:53:50Z</time>
      </trkpt>
      <trkpt lat="39.8812810" lon="-4.0864700">
        <ele>543.2</ele>
        <time>2019-07-08T08:53:51Z</time>
      </trkpt>
      <trkpt lat="39.8813640" lon="-4.0868140">
        <ele>544.2</ele>
        <time>2019-07-08T08:53:58Z</time>
      </trkpt>
      <trkpt lat="39.8814890" lon="-4.0872820">
        <ele>544.2</ele>
        <time>2019-07-08T08:54:06Z</time>
      </trkpt>
      <trkpt lat="39.8815390" lon="-4.0875270">
        <ele>544.2</ele>
        <time>2019-07-08T08:54:10Z</time>
      </trkpt>
      <trkpt lat="39.8815820" lon="-4.0877560">
        <ele>544.6</ele>
        <time>2019-07-08T08:54:14Z</time>
      </trkpt>
      <trkpt lat="39.8816140" lon="-4.0879810">
        <ele>545.4</ele>
        <time>2019-07-08T08:54:18Z</time>
      </trkpt>
      <trkpt lat="39.8816170" lon="-4.0880920">
        <ele>546.0</ele>
        <time>2019-07-08T08:54:20Z</time>
      </trkpt>
      <trkpt lat="39.8816130" lon="-4.0881470">
        <ele>546.0</ele>
        <time>2019-07-08T08:54:21Z</time>
      </trkpt>
      <trkpt lat="39.8816100" lon="-4.0882020">
        <ele>546.0</ele>
        <time>2019-07-08T08:54:22Z</time>
      </trkpt>
      <trkpt lat="39.8816090" lon="-4.0884410">
        <ele>546.0</ele>
        <time>2019-07-08T08:54:26Z</time>
      </trkpt>
      <trkpt lat="39.8815610" lon="-4.0889270">
        <ele>545.0</ele>
        <time>2019-07-08T08:54:33Z</time>
      </trkpt>
      <trkpt lat="39.8815360" lon="-4.0892420">
        <ele>544.2</ele>
        <time>2019-07-08T08:54:37Z</time>
      </trkpt>
      <trkpt lat="39.8815340" lon="-4.0894930">
        <ele>543.8</ele>
        <time>2019-07-08T08:54:40Z</time>
      </trkpt>
      <trkpt lat="39.8815390" lon="-4.0896570">
        <ele>543.2</ele>
        <time>2019-07-08T08:54:42Z</time>
      </trkpt>
      <trkpt lat="39.8815430" lon="-4.0898160">
        <ele>542.8</ele>
        <time>2019-07-08T08:54:44Z</time>
      </trkpt>
      <trkpt lat="39.8815620" lon="-4.0901330">
        <ele>542.6</ele>
        <time>2019-07-08T08:54:48Z</time>
      </trkpt>
      <trkpt lat="39.8815750" lon="-4.0905240">
        <ele>542.6</ele>
        <time>2019-07-08T08:54:53Z</time>
      </trkpt>
      <trkpt lat="39.8815620" lon="-4.0906760">
        <ele>542.4</ele>
        <time>2019-07-08T08:54:55Z</time>
      </trkpt>
      <trkpt lat="39.8815470" lon="-4.0907490">
        <ele>542.4</ele>
        <time>2019-07-08T08:54:56Z</time>
      </trkpt>
      <trkpt lat="39.8814510" lon="-4.0910230">
        <ele>542.4</ele>
        <time>2019-07-08T08:55:00Z</time>
      </trkpt>
      <trkpt lat="39.8812920" lon="-4.0915620">
        <ele>542.8</ele>
        <time>2019-07-08T08:55:08Z</time>
      </trkpt>
      <trkpt lat="39.8812000" lon="-4.0919130">
        <ele>542.2</ele>
        <time>2019-07-08T08:55:13Z</time>
      </trkpt>
      <trkpt lat="39.8811710" lon="-4.0920710">
        <ele>541.8</ele>
        <time>2019-07-08T08:55:15Z</time>
      </trkpt>
      <trkpt lat="39.8811410" lon="-4.0923250">
        <ele>541.4</ele>
        <time>2019-07-08T08:55:18Z</time>
      </trkpt>
      <trkpt lat="39.8811330" lon="-4.0925040">
        <ele>540.6</ele>
        <time>2019-07-08T08:55:20Z</time>
      </trkpt>
      <trkpt lat="39.8811410" lon="-4.0927840">
        <ele>539.2</ele>
        <time>2019-07-08T08:55:23Z</time>
      </trkpt>
      <trkpt lat="39.8811560" lon="-4.0929810">
        <ele>538.6</ele>
        <time>2019-07-08T08:55:25Z</time>
      </trkpt>
      <trkpt lat="39.8811640" lon="-4.0930850">
        <ele>538.2</ele>
        <time>2019-07-08T08:55:26Z</time>
      </trkpt>
      <trkpt lat="39.8811970" lon="-4.0935330">
        <ele>536.6</ele>
        <time>2019-07-08T08:55:30Z</time>
      </trkpt>
      <trkpt lat="39.8812100" lon="-4.0936520">
        <ele>535.6</ele>
        <time>2019-07-08T08:55:31Z</time>
      </trkpt>
      <trkpt lat="39.8812180" lon="-4.0937720">
        <ele>535.0</ele>
        <time>2019-07-08T08:55:32Z</time>
      </trkpt>
      <trkpt lat="39.8812220" lon="-4.0938890">
        <ele>534.4</ele>
        <time>2019-07-08T08:55:33Z</time>
      </trkpt>
      <trkpt lat="39.8812350" lon="-4.0941200">
        <ele>532.8</ele>
        <time>2019-07-08T08:55:35Z</time>
      </trkpt>
      <trkpt lat="39.8812460" lon="-4.0943580">
        <ele>530.8</ele>
        <time>2019-07-08T08:55:37Z</time>
      </trkpt>
      <trkpt lat="39.8812510" lon="-4.0945720">
        <ele>529.4</ele>
        <time>2019-07-08T08:55:39Z</time>
      </trkpt>
      <trkpt lat="39.8812450" lon="-4.0947900">
        <ele>527.6</ele>
        <time>2019-07-08T08:55:41Z</time>
      </trkpt>
      <trkpt lat="39.8812430" lon="-4.0949070">
        <ele>527.0</ele>
        <time>2019-07-08T08:55:42Z</time>
      </trkpt>
      <trkpt lat="39.8812430" lon="-4.0950290">
        <ele>526.2</ele>
        <time>2019-07-08T08:55:43Z</time>
      </trkpt>
      <trkpt lat="39.8812360" lon="-4.0952840">
        <ele>524.4</ele>
        <time>2019-07-08T08:55:45Z</time>
      </trkpt>
      <trkpt lat="39.8812020" lon="-4.0955490">
        <ele>522.8</ele>
        <time>2019-07-08T08:55:47Z</time>
      </trkpt>
      <trkpt lat="39.8811260" lon="-4.0958040">
        <ele>521.0</ele>
        <time>2019-07-08T08:55:49Z</time>
      </trkpt>
      <trkpt lat="39.8810780" lon="-4.0959260">
        <ele>520.0</ele>
        <time>2019-07-08T08:55:50Z</time>
      </trkpt>
      <trkpt lat="39.8810300" lon="-4.0960500">
        <ele>519.2</ele>
        <time>2019-07-08T08:55:51Z</time>
      </trkpt>
      <trkpt lat="39.8809430" lon="-4.0963090">
        <ele>517.6</ele>
        <time>2019-07-08T08:55:53Z</time>
      </trkpt>
      <trkpt lat="39.8808710" lon="-4.0965790">
        <ele>516.0</ele>
        <time>2019-07-08T08:55:55Z</time>
      </trkpt>
      <trkpt lat="39.8808020" lon="-4.0968510">
        <ele>514.8</ele>
        <time>2019-07-08T08:55:57Z</time>
      </trkpt>
      <trkpt lat="39.8807310" lon="-4.0971180">
        <ele>513.4</ele>
        <time>2019-07-08T08:55:59Z</time>
      </trkpt>
      <trkpt lat="39.8806670" lon="-4.0973790">
        <ele>512.4</ele>
        <time>2019-07-08T08:56:01Z</time>
      </trkpt>
      <trkpt lat="39.8806410" lon="-4.0975080">
        <ele>512.0</ele>
        <time>2019-07-08T08:56:02Z</time>
      </trkpt>
      <trkpt lat="39.8806190" lon="-4.0976360">
        <ele>511.6</ele>
        <time>2019-07-08T08:56:03Z</time>
      </trkpt>
      <trkpt lat="39.8805750" lon="-4.0980080">
        <ele>510.8</ele>
        <time>2019-07-08T08:56:06Z</time>
      </trkpt>
      <trkpt lat="39.8805510" lon="-4.0982420">
        <ele>510.6</ele>
        <time>2019-07-08T08:56:08Z</time>
      </trkpt>
      <trkpt lat="39.8805110" lon="-4.0987930">
        <ele>510.6</ele>
        <time>2019-07-08T08:56:13Z</time>
      </trkpt>
      <trkpt lat="39.8805100" lon="-4.0988990">
        <ele>510.4</ele>
        <time>2019-07-08T08:56:14Z</time>
      </trkpt>
      <trkpt lat="39.8805130" lon="-4.0990030">
        <ele>509.8</ele>
        <time>2019-07-08T08:56:15Z</time>
      </trkpt>
      <trkpt lat="39.8805230" lon="-4.0992110">
        <ele>509.0</ele>
        <time>2019-07-08T08:56:17Z</time>
      </trkpt>
      <trkpt lat="39.8805250" lon="-4.0993150">
        <ele>508.8</ele>
        <time>2019-07-08T08:56:18Z</time>
      </trkpt>
      <trkpt lat="39.8805220" lon="-4.0996280">
        <ele>508.0</ele>
        <time>2019-07-08T08:56:21Z</time>
      </trkpt>
      <trkpt lat="39.8805220" lon="-4.0997320">
        <ele>507.8</ele>
        <time>2019-07-08T08:56:22Z</time>
      </trkpt>
      <trkpt lat="39.8805240" lon="-4.1001570">
        <ele>506.6</ele>
        <time>2019-07-08T08:56:26Z</time>
      </trkpt>
      <trkpt lat="39.8805230" lon="-4.1004720">
        <ele>505.6</ele>
        <time>2019-07-08T08:56:29Z</time>
      </trkpt>
      <trkpt lat="39.8805150" lon="-4.1005750">
        <ele>505.4</ele>
        <time>2019-07-08T08:56:30Z</time>
      </trkpt>
      <trkpt lat="39.8804490" lon="-4.1008760">
        <ele>504.6</ele>
        <time>2019-07-08T08:56:33Z</time>
      </trkpt>
      <trkpt lat="39.8804130" lon="-4.1009710">
        <ele>504.4</ele>
        <time>2019-07-08T08:56:34Z</time>
      </trkpt>
      <trkpt lat="39.8802450" lon="-4.1013350">
        <ele>503.4</ele>
        <time>2019-07-08T08:56:38Z</time>
      </trkpt>
      <trkpt lat="39.8802040" lon="-4.1014220">
        <ele>503.2</ele>
        <time>2019-07-08T08:56:39Z</time>
      </trkpt>
      <trkpt lat="39.8800780" lon="-4.1016790">
        <ele>502.6</ele>
        <time>2019-07-08T08:56:42Z</time>
      </trkpt>
      <trkpt lat="39.8800360" lon="-4.1017600">
        <ele>502.2</ele>
        <time>2019-07-08T08:56:43Z</time>
      </trkpt>
      <trkpt lat="39.8798960" lon="-4.1019940">
        <ele>501.8</ele>
        <time>2019-07-08T08:56:46Z</time>
      </trkpt>
      <trkpt lat="39.8798020" lon="-4.1021460">
        <ele>501.2</ele>
        <time>2019-07-08T08:56:48Z</time>
      </trkpt>
      <trkpt lat="39.8796630" lon="-4.1023740">
        <ele>500.4</ele>
        <time>2019-07-08T08:56:51Z</time>
      </trkpt>
      <trkpt lat="39.8795270" lon="-4.1025970">
        <ele>500.4</ele>
        <time>2019-07-08T08:56:54Z</time>
      </trkpt>
      <trkpt lat="39.8792870" lon="-4.1029580">
        <ele>500.4</ele>
        <time>2019-07-08T08:56:59Z</time>
      </trkpt>
      <trkpt lat="39.8792420" lon="-4.1030290">
        <ele>500.0</ele>
        <time>2019-07-08T08:57:00Z</time>
      </trkpt>
      <trkpt lat="39.8791970" lon="-4.1031020">
        <ele>500.0</ele>
        <time>2019-07-08T08:57:01Z</time>
      </trkpt>
      <trkpt lat="39.8789670" lon="-4.1034620">
        <ele>498.8</ele>
        <time>2019-07-08T08:57:06Z</time>
      </trkpt>
      <trkpt lat="39.8788820" lon="-4.1035980">
        <ele>498.2</ele>
        <time>2019-07-08T08:57:08Z</time>
      </trkpt>
      <trkpt lat="39.8788100" lon="-4.1037450">
        <ele>497.4</ele>
        <time>2019-07-08T08:57:10Z</time>
      </trkpt>
      <trkpt lat="39.8787530" lon="-4.1039050">
        <ele>496.4</ele>
        <time>2019-07-08T08:57:12Z</time>
      </trkpt>
      <trkpt lat="39.8787280" lon="-4.1039830">
        <ele>496.2</ele>
        <time>2019-07-08T08:57:13Z</time>
      </trkpt>
      <trkpt lat="39.8786380" lon="-4.1042870">
        <ele>495.0</ele>
        <time>2019-07-08T08:57:17Z</time>
      </trkpt>
      <trkpt lat="39.8785870" lon="-4.1044240">
        <ele>494.4</ele>
        <time>2019-07-08T08:57:19Z</time>
      </trkpt>
      <trkpt lat="39.8785270" lon="-4.1045400">
        <ele>494.2</ele>
        <time>2019-07-08T08:57:21Z</time>
      </trkpt>
      <trkpt lat="39.8784230" lon="-4.1046870">
        <ele>494.6</ele>
        <time>2019-07-08T08:57:24Z</time>
      </trkpt>
      <trkpt lat="39.8783300" lon="-4.1048190">
        <ele>494.4</ele>
        <time>2019-07-08T08:57:28Z</time>
      </trkpt>
      <trkpt lat="39.8782290" lon="-4.1049620">
        <ele>494.4</ele>
        <time>2019-07-08T08:57:32Z</time>
      </trkpt>
      <trkpt lat="39.8782030" lon="-4.1050030">
        <ele>494.4</ele>
        <time>2019-07-08T08:57:33Z</time>
      </trkpt>
      <trkpt lat="39.8781770" lon="-4.1050470">
        <ele>494.8</ele>
        <time>2019-07-08T08:57:34Z</time>
      </trkpt>
      <trkpt lat="39.8780680" lon="-4.1052310">
        <ele>495.0</ele>
        <time>2019-07-08T08:57:38Z</time>
      </trkpt>
      <trkpt lat="39.8779520" lon="-4.1054160">
        <ele>494.8</ele>
        <time>2019-07-08T08:57:42Z</time>
      </trkpt>
      <trkpt lat="39.8779200" lon="-4.1054600">
        <ele>494.8</ele>
        <time>2019-07-08T08:57:43Z</time>
      </trkpt>
      <trkpt lat="39.8777920" lon="-4.1056440">
        <ele>494.6</ele>
        <time>2019-07-08T08:57:47Z</time>
      </trkpt>
      <trkpt lat="39.8776980" lon="-4.1057780">
        <ele>494.6</ele>
        <time>2019-07-08T08:57:50Z</time>
      </trkpt>
      <trkpt lat="39.8776710" lon="-4.1058260">
        <ele>494.6</ele>
        <time>2019-07-08T08:57:51Z</time>
      </trkpt>
      <trkpt lat="39.8775660" lon="-4.1060050">
        <ele>494.4</ele>
        <time>2019-07-08T08:57:55Z</time>
      </trkpt>
      <trkpt lat="39.8775110" lon="-4.1060820">
        <ele>494.6</ele>
        <time>2019-07-08T08:57:57Z</time>
      </trkpt>
      <trkpt lat="39.8774840" lon="-4.1061230">
        <ele>494.8</ele>
        <time>2019-07-08T08:57:58Z</time>
      </trkpt>
      <trkpt lat="39.8773310" lon="-4.1063580">
        <ele>495.0</ele>
        <time>2019-07-08T08:58:04Z</time>
      </trkpt>
      <trkpt lat="39.8772820" lon="-4.1064400">
        <ele>495.0</ele>
        <time>2019-07-08T08:58:06Z</time>
      </trkpt>
      <trkpt lat="39.8772380" lon="-4.1065300">
        <ele>495.4</ele>
        <time>2019-07-08T08:58:08Z</time>
      </trkpt>
      <trkpt lat="39.8771740" lon="-4.1066860">
        <ele>495.6</ele>
        <time>2019-07-08T08:58:11Z</time>
      </trkpt>
      <trkpt lat="39.8771610" lon="-4.1067450">
        <ele>495.4</ele>
        <time>2019-07-08T08:58:12Z</time>
      </trkpt>
      <trkpt lat="39.8771410" lon="-4.1069430">
        <ele>494.6</ele>
        <time>2019-07-08T08:58:15Z</time>
      </trkpt>
      <trkpt lat="39.8771420" lon="-4.1070860">
        <ele>494.4</ele>
        <time>2019-07-08T08:58:17Z</time>
      </trkpt>
      <trkpt lat="39.8771500" lon="-4.1072330">
        <ele>494.2</ele>
        <time>2019-07-08T08:58:19Z</time>
      </trkpt>
      <trkpt lat="39.8771730" lon="-4.1074430">
        <ele>493.8</ele>
        <time>2019-07-08T08:58:22Z</time>
      </trkpt>
      <trkpt lat="39.8771770" lon="-4.1075130">
        <ele>493.6</ele>
        <time>2019-07-08T08:58:23Z</time>
      </trkpt>
      <trkpt lat="39.8771890" lon="-4.1077320">
        <ele>493.2</ele>
        <time>2019-07-08T08:58:26Z</time>
      </trkpt>
      <trkpt lat="39.8772070" lon="-4.1079570">
        <ele>492.8</ele>
        <time>2019-07-08T08:58:29Z</time>
      </trkpt>
      <trkpt lat="39.8772900" lon="-4.1083980">
        <ele>492.2</ele>
        <time>2019-07-08T08:58:35Z</time>
      </trkpt>
      <trkpt lat="39.8773130" lon="-4.1085470">
        <ele>491.8</ele>
        <time>2019-07-08T08:58:37Z</time>
      </trkpt>
      <trkpt lat="39.8774250" lon="-4.1090860">
        <ele>491.2</ele>
        <time>2019-07-08T08:58:44Z</time>
      </trkpt>
      <trkpt lat="39.8774460" lon="-4.1091610">
        <ele>491.2</ele>
        <time>2019-07-08T08:58:45Z</time>
      </trkpt>
      <trkpt lat="39.8776640" lon="-4.1098030">
        <ele>491.0</ele>
        <time>2019-07-08T08:58:54Z</time>
      </trkpt>
      <trkpt lat="39.8778220" lon="-4.1102660">
        <ele>490.8</ele>
        <time>2019-07-08T08:59:01Z</time>
      </trkpt>
      <trkpt lat="39.8779910" lon="-4.1108140">
        <ele>490.4</ele>
        <time>2019-07-08T08:59:09Z</time>
      </trkpt>
      <trkpt lat="39.8780770" lon="-4.1110970">
        <ele>490.2</ele>
        <time>2019-07-08T08:59:13Z</time>
      </trkpt>
      <trkpt lat="39.8781480" lon="-4.1112950">
        <ele>489.8</ele>
        <time>2019-07-08T08:59:16Z</time>
      </trkpt>
      <trkpt lat="39.8782850" lon="-4.1117010">
        <ele>489.2</ele>
        <time>2019-07-08T08:59:22Z</time>
      </trkpt>
      <trkpt lat="39.8783400" lon="-4.1119270">
        <ele>489.0</ele>
        <time>2019-07-08T08:59:25Z</time>
      </trkpt>
      <trkpt lat="39.8784290" lon="-4.1123380">
        <ele>488.2</ele>
        <time>2019-07-08T08:59:30Z</time>
      </trkpt>
      <trkpt lat="39.8784720" lon="-4.1125080">
        <ele>487.8</ele>
        <time>2019-07-08T08:59:32Z</time>
      </trkpt>
      <trkpt lat="39.8785520" lon="-4.1127600">
        <ele>487.6</ele>
        <time>2019-07-08T08:59:35Z</time>
      </trkpt>
      <trkpt lat="39.8786570" lon="-4.1129970">
        <ele>487.2</ele>
        <time>2019-07-08T08:59:38Z</time>
      </trkpt>
      <trkpt lat="39.8787510" lon="-4.1132330">
        <ele>486.2</ele>
        <time>2019-07-08T08:59:41Z</time>
      </trkpt>
      <trkpt lat="39.8788290" lon="-4.1134830">
        <ele>485.4</ele>
        <time>2019-07-08T08:59:44Z</time>
      </trkpt>
      <trkpt lat="39.8788560" lon="-4.1135700">
        <ele>485.2</ele>
        <time>2019-07-08T08:59:45Z</time>
      </trkpt>
      <trkpt lat="39.8790370" lon="-4.1140770">
        <ele>484.4</ele>
        <time>2019-07-08T08:59:51Z</time>
      </trkpt>
      <trkpt lat="39.8790800" lon="-4.1141500">
        <ele>484.2</ele>
        <time>2019-07-08T08:59:52Z</time>
      </trkpt>
      <trkpt lat="39.8791250" lon="-4.1142200">
        <ele>484.0</ele>
        <time>2019-07-08T08:59:53Z</time>
      </trkpt>
      <trkpt lat="39.8793960" lon="-4.1145910">
        <ele>483.6</ele>
        <time>2019-07-08T08:59:59Z</time>
      </trkpt>
      <trkpt lat="39.8797770" lon="-4.1150990">
        <ele>484.6</ele>
        <time>2019-07-08T09:00:08Z</time>
      </trkpt>
      <trkpt lat="39.8800620" lon="-4.1155160">
        <ele>484.4</ele>
        <time>2019-07-08T09:00:16Z</time>
      </trkpt>
      <trkpt lat="39.8802730" lon="-4.1158150">
        <ele>484.8</ele>
        <time>2019-07-08T09:00:22Z</time>
      </trkpt>
      <trkpt lat="39.8804100" lon="-4.1160130">
        <ele>485.0</ele>
        <time>2019-07-08T09:00:26Z</time>
      </trkpt>
      <trkpt lat="39.8805140" lon="-4.1161600">
        <ele>485.2</ele>
        <time>2019-07-08T09:00:29Z</time>
      </trkpt>
      <trkpt lat="39.8807110" lon="-4.1164540">
        <ele>486.0</ele>
        <time>2019-07-08T09:00:35Z</time>
      </trkpt>
      <trkpt lat="39.8808330" lon="-4.1166430">
        <ele>486.4</ele>
        <time>2019-07-08T09:00:39Z</time>
      </trkpt>
      <trkpt lat="39.8809590" lon="-4.1168240">
        <ele>487.0</ele>
        <time>2019-07-08T09:00:43Z</time>
      </trkpt>
      <trkpt lat="39.8812510" lon="-4.1172390">
        <ele>487.2</ele>
        <time>2019-07-08T09:00:52Z</time>
      </trkpt>
      <trkpt lat="39.8815600" lon="-4.1176770">
        <ele>487.0</ele>
        <time>2019-07-08T09:01:01Z</time>
      </trkpt>
      <trkpt lat="39.8818590" lon="-4.1181140">
        <ele>486.8</ele>
        <time>2019-07-08T09:01:10Z</time>
      </trkpt>
      <trkpt lat="39.8820280" lon="-4.1183480">
        <ele>486.8</ele>
        <time>2019-07-08T09:01:15Z</time>
      </trkpt>
      <trkpt lat="39.8821720" lon="-4.1185450">
        <ele>486.4</ele>
        <time>2019-07-08T09:01:19Z</time>
      </trkpt>
      <trkpt lat="39.8824360" lon="-4.1189060">
        <ele>486.2</ele>
        <time>2019-07-08T09:01:26Z</time>
      </trkpt>
      <trkpt lat="39.8825890" lon="-4.1191140">
        <ele>485.8</ele>
        <time>2019-07-08T09:01:30Z</time>
      </trkpt>
      <trkpt lat="39.8828310" lon="-4.1194320">
        <ele>485.4</ele>
        <time>2019-07-08T09:01:36Z</time>
      </trkpt>
      <trkpt lat="39.8829540" lon="-4.1195930">
        <ele>484.6</ele>
        <time>2019-07-08T09:01:39Z</time>
      </trkpt>
      <trkpt lat="39.8831470" lon="-4.1198820">
        <ele>484.2</ele>
        <time>2019-07-08T09:01:44Z</time>
      </trkpt>
      <trkpt lat="39.8833000" lon="-4.1201180">
        <ele>483.8</ele>
        <time>2019-07-08T09:01:48Z</time>
      </trkpt>
      <trkpt lat="39.8836980" lon="-4.1206740">
        <ele>483.4</ele>
        <time>2019-07-08T09:01:58Z</time>
      </trkpt>
      <trkpt lat="39.8838920" lon="-4.1209380">
        <ele>483.4</ele>
        <time>2019-07-08T09:02:03Z</time>
      </trkpt>
      <trkpt lat="39.8840030" lon="-4.1210890">
        <ele>483.4</ele>
        <time>2019-07-08T09:02:06Z</time>
      </trkpt>
      <trkpt lat="39.8840420" lon="-4.1211370">
        <ele>483.2</ele>
        <time>2019-07-08T09:02:07Z</time>
      </trkpt>
      <trkpt lat="39.8841910" lon="-4.1213390">
        <ele>483.2</ele>
        <time>2019-07-08T09:02:11Z</time>
      </trkpt>
      <trkpt lat="39.8845690" lon="-4.1218680">
        <ele>483.0</ele>
        <time>2019-07-08T09:02:21Z</time>
      </trkpt>
      <trkpt lat="39.8847220" lon="-4.1220780">
        <ele>483.0</ele>
        <time>2019-07-08T09:02:25Z</time>
      </trkpt>
      <trkpt lat="39.8849170" lon="-4.1223450">
        <ele>483.2</ele>
        <time>2019-07-08T09:02:30Z</time>
      </trkpt>
      <trkpt lat="39.8852510" lon="-4.1228160">
        <ele>484.0</ele>
        <time>2019-07-08T09:02:39Z</time>
      </trkpt>
      <trkpt lat="39.8856260" lon="-4.1233380">
        <ele>483.2</ele>
        <time>2019-07-08T09:02:49Z</time>
      </trkpt>
      <trkpt lat="39.8857370" lon="-4.1234950">
        <ele>483.4</ele>
        <time>2019-07-08T09:02:52Z</time>
      </trkpt>
      <trkpt lat="39.8860160" lon="-4.1238990">
        <ele>483.4</ele>
        <time>2019-07-08T09:03:00Z</time>
      </trkpt>
      <trkpt lat="39.8863170" lon="-4.1243190">
        <ele>484.2</ele>
        <time>2019-07-08T09:03:09Z</time>
      </trkpt>
      <trkpt lat="39.8864750" lon="-4.1245400">
        <ele>484.6</ele>
        <time>2019-07-08T09:03:14Z</time>
      </trkpt>
      <trkpt lat="39.8866030" lon="-4.1247180">
        <ele>484.8</ele>
        <time>2019-07-08T09:03:18Z</time>
      </trkpt>
      <trkpt lat="39.8867660" lon="-4.1249480">
        <ele>485.0</ele>
        <time>2019-07-08T09:03:23Z</time>
      </trkpt>
      <trkpt lat="39.8869020" lon="-4.1251420">
        <ele>486.0</ele>
        <time>2019-07-08T09:03:27Z</time>
      </trkpt>
      <trkpt lat="39.8869380" lon="-4.1251910">
        <ele>486.0</ele>
        <time>2019-07-08T09:03:28Z</time>
      </trkpt>
      <trkpt lat="39.8872290" lon="-4.1255890">
        <ele>485.6</ele>
        <time>2019-07-08T09:03:36Z</time>
      </trkpt>
      <trkpt lat="39.8874770" lon="-4.1259400">
        <ele>486.0</ele>
        <time>2019-07-08T09:03:43Z</time>
      </trkpt>
      <trkpt lat="39.8875100" lon="-4.1259900">
        <ele>486.0</ele>
        <time>2019-07-08T09:03:44Z</time>
      </trkpt>
      <trkpt lat="39.8877820" lon="-4.1263960">
        <ele>486.2</ele>
        <time>2019-07-08T09:03:52Z</time>
      </trkpt>
      <trkpt lat="39.8878100" lon="-4.1264530">
        <ele>486.2</ele>
        <time>2019-07-08T09:03:53Z</time>
      </trkpt>
      <trkpt lat="39.8878970" lon="-4.1267010">
        <ele>486.2</ele>
        <time>2019-07-08T09:03:57Z</time>
      </trkpt>
      <trkpt lat="39.8879180" lon="-4.1268410">
        <ele>486.4</ele>
        <time>2019-07-08T09:03:59Z</time>
      </trkpt>
      <trkpt lat="39.8879210" lon="-4.1269150">
        <ele>486.2</ele>
        <time>2019-07-08T09:04:00Z</time>
      </trkpt>
      <trkpt lat="39.8879060" lon="-4.1272100">
        <ele>485.6</ele>
        <time>2019-07-08T09:04:04Z</time>
      </trkpt>
      <trkpt lat="39.8878770" lon="-4.1274430">
        <ele>485.0</ele>
        <time>2019-07-08T09:04:07Z</time>
      </trkpt>
      <trkpt lat="39.8878480" lon="-4.1276930">
        <ele>484.6</ele>
        <time>2019-07-08T09:04:10Z</time>
      </trkpt>
      <trkpt lat="39.8878360" lon="-4.1277780">
        <ele>484.2</ele>
        <time>2019-07-08T09:04:11Z</time>
      </trkpt>
      <trkpt lat="39.8878220" lon="-4.1278630">
        <ele>483.8</ele>
        <time>2019-07-08T09:04:12Z</time>
      </trkpt>
      <trkpt lat="39.8877740" lon="-4.1281160">
        <ele>483.0</ele>
        <time>2019-07-08T09:04:15Z</time>
      </trkpt>
      <trkpt lat="39.8877170" lon="-4.1283540">
        <ele>482.6</ele>
        <time>2019-07-08T09:04:18Z</time>
      </trkpt>
      <trkpt lat="39.8876960" lon="-4.1284310">
        <ele>482.6</ele>
        <time>2019-07-08T09:04:19Z</time>
      </trkpt>
      <trkpt lat="39.8874690" lon="-4.1290970">
        <ele>481.6</ele>
        <time>2019-07-08T09:04:28Z</time>
      </trkpt>
      <trkpt lat="39.8874150" lon="-4.1292430">
        <ele>481.0</ele>
        <time>2019-07-08T09:04:30Z</time>
      </trkpt>
      <trkpt lat="39.8873670" lon="-4.1293970">
        <ele>480.4</ele>
        <time>2019-07-08T09:04:32Z</time>
      </trkpt>
      <trkpt lat="39.8873220" lon="-4.1295550">
        <ele>479.8</ele>
        <time>2019-07-08T09:04:34Z</time>
      </trkpt>
      <trkpt lat="39.8872740" lon="-4.1297140">
        <ele>479.4</ele>
        <time>2019-07-08T09:04:36Z</time>
      </trkpt>
      <trkpt lat="39.8871390" lon="-4.1301090">
        <ele>478.0</ele>
        <time>2019-07-08T09:04:41Z</time>
      </trkpt>
      <trkpt lat="39.8869170" lon="-4.1305580">
        <ele>477.2</ele>
        <time>2019-07-08T09:04:47Z</time>
      </trkpt>
      <trkpt lat="39.8866470" lon="-4.1309320">
        <ele>476.4</ele>
        <time>2019-07-08T09:04:53Z</time>
      </trkpt>
      <trkpt lat="39.8866060" lon="-4.1309980">
        <ele>476.2</ele>
        <time>2019-07-08T09:04:54Z</time>
      </trkpt>
      <trkpt lat="39.8865670" lon="-4.1310690">
        <ele>475.8</ele>
        <time>2019-07-08T09:04:55Z</time>
      </trkpt>
      <trkpt lat="39.8865180" lon="-4.1312280">
        <ele>474.8</ele>
        <time>2019-07-08T09:04:57Z</time>
      </trkpt>
      <trkpt lat="39.8865280" lon="-4.1314060">
        <ele>473.6</ele>
        <time>2019-07-08T09:04:59Z</time>
      </trkpt>
      <trkpt lat="39.8865580" lon="-4.1314950">
        <ele>473.2</ele>
        <time>2019-07-08T09:05:00Z</time>
      </trkpt>
      <trkpt lat="39.8866010" lon="-4.1315830">
        <ele>472.6</ele>
        <time>2019-07-08T09:05:01Z</time>
      </trkpt>
      <trkpt lat="39.8867110" lon="-4.1317420">
        <ele>471.6</ele>
        <time>2019-07-08T09:05:03Z</time>
      </trkpt>
      <trkpt lat="39.8868850" lon="-4.1319820">
        <ele>470.2</ele>
        <time>2019-07-08T09:05:06Z</time>
      </trkpt>
      <trkpt lat="39.8869370" lon="-4.1320690">
        <ele>469.8</ele>
        <time>2019-07-08T09:05:07Z</time>
      </trkpt>
      <trkpt lat="39.8869840" lon="-4.1321620">
        <ele>469.2</ele>
        <time>2019-07-08T09:05:08Z</time>
      </trkpt>
      <trkpt lat="39.8870250" lon="-4.1322610">
        <ele>468.4</ele>
        <time>2019-07-08T09:05:09Z</time>
      </trkpt>
      <trkpt lat="39.8870620" lon="-4.1323630">
        <ele>468.0</ele>
        <time>2019-07-08T09:05:10Z</time>
      </trkpt>
      <trkpt lat="39.8870950" lon="-4.1324690">
        <ele>467.6</ele>
        <time>2019-07-08T09:05:11Z</time>
      </trkpt>
      <trkpt lat="39.8871520" lon="-4.1326820">
        <ele>467.0</ele>
        <time>2019-07-08T09:05:13Z</time>
      </trkpt>
      <trkpt lat="39.8871730" lon="-4.1327860">
        <ele>466.6</ele>
        <time>2019-07-08T09:05:14Z</time>
      </trkpt>
      <trkpt lat="39.8872150" lon="-4.1330620">
        <ele>466.0</ele>
        <time>2019-07-08T09:05:17Z</time>
      </trkpt>
      <trkpt lat="39.8872240" lon="-4.1331410">
        <ele>466.0</ele>
        <time>2019-07-08T09:05:18Z</time>
      </trkpt>
      <trkpt lat="39.8872350" lon="-4.1332160">
        <ele>466.0</ele>
        <time>2019-07-08T09:05:19Z</time>
      </trkpt>
      <trkpt lat="39.8872550" lon="-4.1333500">
        <ele>466.6</ele>
        <time>2019-07-08T09:05:21Z</time>
      </trkpt>
      <trkpt lat="39.8872710" lon="-4.1334750">
        <ele>467.2</ele>
        <time>2019-07-08T09:05:23Z</time>
      </trkpt>
      <trkpt lat="39.8872780" lon="-4.1335350">
        <ele>467.4</ele>
        <time>2019-07-08T09:05:24Z</time>
      </trkpt>
      <trkpt lat="39.8872860" lon="-4.1335930">
        <ele>467.6</ele>
        <time>2019-07-08T09:05:25Z</time>
      </trkpt>
      <trkpt lat="39.8872990" lon="-4.1337070">
        <ele>468.0</ele>
        <time>2019-07-08T09:05:27Z</time>
      </trkpt>
      <trkpt lat="39.8873170" lon="-4.1338160">
        <ele>468.2</ele>
        <time>2019-07-08T09:05:29Z</time>
      </trkpt>
      <trkpt lat="39.8873230" lon="-4.1338710">
        <ele>468.4</ele>
        <time>2019-07-08T09:05:30Z</time>
      </trkpt>
      <trkpt lat="39.8873370" lon="-4.1339840">
        <ele>468.8</ele>
        <time>2019-07-08T09:05:32Z</time>
      </trkpt>
      <trkpt lat="39.8873530" lon="-4.1341010">
        <ele>469.0</ele>
        <time>2019-07-08T09:05:34Z</time>
      </trkpt>
      <trkpt lat="39.8873800" lon="-4.1342760">
        <ele>469.6</ele>
        <time>2019-07-08T09:05:37Z</time>
      </trkpt>
      <trkpt lat="39.8874250" lon="-4.1345070">
        <ele>470.0</ele>
        <time>2019-07-08T09:05:41Z</time>
      </trkpt>
      <trkpt lat="39.8874360" lon="-4.1345660">
        <ele>470.0</ele>
        <time>2019-07-08T09:05:42Z</time>
      </trkpt>
      <trkpt lat="39.8875160" lon="-4.1349330">
        <ele>469.8</ele>
        <time>2019-07-08T09:05:48Z</time>
      </trkpt>
      <trkpt lat="39.8875490" lon="-4.1350630">
        <ele>469.6</ele>
        <time>2019-07-08T09:05:50Z</time>
      </trkpt>
      <trkpt lat="39.8876460" lon="-4.1354900">
        <ele>469.2</ele>
        <time>2019-07-08T09:05:56Z</time>
      </trkpt>
      <trkpt lat="39.8876670" lon="-4.1356410">
        <ele>468.8</ele>
        <time>2019-07-08T09:05:58Z</time>
      </trkpt>
      <trkpt lat="39.8876800" lon="-4.1357180">
        <ele>468.6</ele>
        <time>2019-07-08T09:05:59Z</time>
      </trkpt>
      <trkpt lat="39.8877410" lon="-4.1359480">
        <ele>468.2</ele>
        <time>2019-07-08T09:06:02Z</time>
      </trkpt>
      <trkpt lat="39.8877960" lon="-4.1361080">
        <ele>467.4</ele>
        <time>2019-07-08T09:06:04Z</time>
      </trkpt>
      <trkpt lat="39.8878560" lon="-4.1362770">
        <ele>466.4</ele>
        <time>2019-07-08T09:06:06Z</time>
      </trkpt>
      <trkpt lat="39.8879080" lon="-4.1364470">
        <ele>465.8</ele>
        <time>2019-07-08T09:06:08Z</time>
      </trkpt>
      <trkpt lat="39.8879560" lon="-4.1366000">
        <ele>465.8</ele>
        <time>2019-07-08T09:06:10Z</time>
      </trkpt>
      <trkpt lat="39.8880300" lon="-4.1368840">
        <ele>466.6</ele>
        <time>2019-07-08T09:06:15Z</time>
      </trkpt>
      <trkpt lat="39.8880420" lon="-4.1369940">
        <ele>466.6</ele>
        <time>2019-07-08T09:06:17Z</time>
      </trkpt>
      <trkpt lat="39.8880700" lon="-4.1372820">
        <ele>467.0</ele>
        <time>2019-07-08T09:06:22Z</time>
      </trkpt>
      <trkpt lat="39.8881430" lon="-4.1377960">
        <ele>467.2</ele>
        <time>2019-07-08T09:06:30Z</time>
      </trkpt>
      <trkpt lat="39.8883100" lon="-4.1383810">
        <ele>467.0</ele>
        <time>2019-07-08T09:06:38Z</time>
      </trkpt>
      <trkpt lat="39.8884020" lon="-4.1385870">
        <ele>465.4</ele>
        <time>2019-07-08T09:06:41Z</time>
      </trkpt>
      <trkpt lat="39.8885640" lon="-4.1389080">
        <ele>465.0</ele>
        <time>2019-07-08T09:06:46Z</time>
      </trkpt>
      <trkpt lat="39.8886600" lon="-4.1391190">
        <ele>464.4</ele>
        <time>2019-07-08T09:06:49Z</time>
      </trkpt>
      <trkpt lat="39.8887520" lon="-4.1393540">
        <ele>463.4</ele>
        <time>2019-07-08T09:06:52Z</time>
      </trkpt>
      <trkpt lat="39.8887830" lon="-4.1394360">
        <ele>463.0</ele>
        <time>2019-07-08T09:06:53Z</time>
      </trkpt>
      <trkpt lat="39.8888420" lon="-4.1396070">
        <ele>462.2</ele>
        <time>2019-07-08T09:06:55Z</time>
      </trkpt>
      <trkpt lat="39.8888940" lon="-4.1397830">
        <ele>461.8</ele>
        <time>2019-07-08T09:06:57Z</time>
      </trkpt>
      <trkpt lat="39.8889370" lon="-4.1399590">
        <ele>461.2</ele>
        <time>2019-07-08T09:06:59Z</time>
      </trkpt>
      <trkpt lat="39.8890210" lon="-4.1404340">
        <ele>461.0</ele>
        <time>2019-07-08T09:07:05Z</time>
      </trkpt>
      <trkpt lat="39.8890410" lon="-4.1405720">
        <ele>460.8</ele>
        <time>2019-07-08T09:07:07Z</time>
      </trkpt>
      <trkpt lat="39.8890830" lon="-4.1408870">
        <ele>461.4</ele>
        <time>2019-07-08T09:07:12Z</time>
      </trkpt>
      <trkpt lat="39.8891050" lon="-4.1411170">
        <ele>462.0</ele>
        <time>2019-07-08T09:07:16Z</time>
      </trkpt>
      <trkpt lat="39.8891190" lon="-4.1412280">
        <ele>462.4</ele>
        <time>2019-07-08T09:07:18Z</time>
      </trkpt>
      <trkpt lat="39.8891250" lon="-4.1412800">
        <ele>462.8</ele>
        <time>2019-07-08T09:07:19Z</time>
      </trkpt>
      <trkpt lat="39.8891300" lon="-4.1413330">
        <ele>463.2</ele>
        <time>2019-07-08T09:07:20Z</time>
      </trkpt>
      <trkpt lat="39.8891490" lon="-4.1414820">
        <ele>463.6</ele>
        <time>2019-07-08T09:07:23Z</time>
      </trkpt>
      <trkpt lat="39.8891780" lon="-4.1416400">
        <ele>463.6</ele>
        <time>2019-07-08T09:07:26Z</time>
      </trkpt>
      <trkpt lat="39.8891900" lon="-4.1417560">
        <ele>463.6</ele>
        <time>2019-07-08T09:07:28Z</time>
      </trkpt>
      <trkpt lat="39.8892150" lon="-4.1419350">
        <ele>463.6</ele>
        <time>2019-07-08T09:07:31Z</time>
      </trkpt>
      <trkpt lat="39.8892280" lon="-4.1419950">
        <ele>463.6</ele>
        <time>2019-07-08T09:07:32Z</time>
      </trkpt>
      <trkpt lat="39.8892730" lon="-4.1422430">
        <ele>463.6</ele>
        <time>2019-07-08T09:07:36Z</time>
      </trkpt>
      <trkpt lat="39.8893150" lon="-4.1425080">
        <ele>463.8</ele>
        <time>2019-07-08T09:07:40Z</time>
      </trkpt>
      <trkpt lat="39.8893920" lon="-4.1431350">
        <ele>463.4</ele>
        <time>2019-07-08T09:07:49Z</time>
      </trkpt>
      <trkpt lat="39.8894760" lon="-4.1437150">
        <ele>463.4</ele>
        <time>2019-07-08T09:07:57Z</time>
      </trkpt>
      <trkpt lat="39.8896120" lon="-4.1442090">
        <ele>462.6</ele>
        <time>2019-07-08T09:08:04Z</time>
      </trkpt>
      <trkpt lat="39.8897820" lon="-4.1445840">
        <ele>462.4</ele>
        <time>2019-07-08T09:08:10Z</time>
      </trkpt>
      <trkpt lat="39.8898100" lon="-4.1446460">
        <ele>462.4</ele>
        <time>2019-07-08T09:08:11Z</time>
      </trkpt>
      <trkpt lat="39.8899360" lon="-4.1450330">
        <ele>462.6</ele>
        <time>2019-07-08T09:08:17Z</time>
      </trkpt>
      <trkpt lat="39.8900210" lon="-4.1455010">
        <ele>462.2</ele>
        <time>2019-07-08T09:08:24Z</time>
      </trkpt>
      <trkpt lat="39.8900530" lon="-4.1457040">
        <ele>462.2</ele>
        <time>2019-07-08T09:08:27Z</time>
      </trkpt>
      <trkpt lat="39.8901150" lon="-4.1462990">
        <ele>462.4</ele>
        <time>2019-07-08T09:08:36Z</time>
      </trkpt>
      <trkpt lat="39.8901200" lon="-4.1465730">
        <ele>462.4</ele>
        <time>2019-07-08T09:08:40Z</time>
      </trkpt>
      <trkpt lat="39.8901460" lon="-4.1467710">
        <ele>462.6</ele>
        <time>2019-07-08T09:08:43Z</time>
      </trkpt>
      <trkpt lat="39.8901530" lon="-4.1468370">
        <ele>462.6</ele>
        <time>2019-07-08T09:08:44Z</time>
      </trkpt>
      <trkpt lat="39.8901910" lon="-4.1471690">
        <ele>462.8</ele>
        <time>2019-07-08T09:08:49Z</time>
      </trkpt>
      <trkpt lat="39.8902530" lon="-4.1477630">
        <ele>462.6</ele>
        <time>2019-07-08T09:08:58Z</time>
      </trkpt>
      <trkpt lat="39.8902550" lon="-4.1481500">
        <ele>463.6</ele>
        <time>2019-07-08T09:09:04Z</time>
      </trkpt>
      <trkpt lat="39.8902480" lon="-4.1482790">
        <ele>464.0</ele>
        <time>2019-07-08T09:09:06Z</time>
      </trkpt>
      <trkpt lat="39.8902220" lon="-4.1487410">
        <ele>463.6</ele>
        <time>2019-07-08T09:09:13Z</time>
      </trkpt>
      <trkpt lat="39.8902310" lon="-4.1492240">
        <ele>463.4</ele>
        <time>2019-07-08T09:09:20Z</time>
      </trkpt>
      <trkpt lat="39.8901750" lon="-4.1496890">
        <ele>463.8</ele>
        <time>2019-07-08T09:09:27Z</time>
      </trkpt>
      <trkpt lat="39.8901280" lon="-4.1501030">
        <ele>463.6</ele>
        <time>2019-07-08T09:09:33Z</time>
      </trkpt>
      <trkpt lat="39.8901220" lon="-4.1501740">
        <ele>463.6</ele>
        <time>2019-07-08T09:09:34Z</time>
      </trkpt>
      <trkpt lat="39.8900660" lon="-4.1507590">
        <ele>464.0</ele>
        <time>2019-07-08T09:09:42Z</time>
      </trkpt>
      <trkpt lat="39.8900120" lon="-4.1514190">
        <ele>463.4</ele>
        <time>2019-07-08T09:09:51Z</time>
      </trkpt>
      <trkpt lat="39.8899300" lon="-4.1519320">
        <ele>462.8</ele>
        <time>2019-07-08T09:09:58Z</time>
      </trkpt>
      <trkpt lat="39.8899170" lon="-4.1520090">
        <ele>462.6</ele>
        <time>2019-07-08T09:09:59Z</time>
      </trkpt>
      <trkpt lat="39.8898250" lon="-4.1524610">
        <ele>462.0</ele>
        <time>2019-07-08T09:10:05Z</time>
      </trkpt>
      <trkpt lat="39.8897550" lon="-4.1529820">
        <ele>462.2</ele>
        <time>2019-07-08T09:10:12Z</time>
      </trkpt>
      <trkpt lat="39.8897140" lon="-4.1533600">
        <ele>462.4</ele>
        <time>2019-07-08T09:10:17Z</time>
      </trkpt>
      <trkpt lat="39.8896750" lon="-4.1536570">
        <ele>461.2</ele>
        <time>2019-07-08T09:10:21Z</time>
      </trkpt>
      <trkpt lat="39.8896310" lon="-4.1540310">
        <ele>462.0</ele>
        <time>2019-07-08T09:10:26Z</time>
      </trkpt>
      <trkpt lat="39.8895760" lon="-4.1545380">
        <ele>460.8</ele>
        <time>2019-07-08T09:10:33Z</time>
      </trkpt>
      <trkpt lat="39.8895120" lon="-4.1551050">
        <ele>460.6</ele>
        <time>2019-07-08T09:10:41Z</time>
      </trkpt>
      <trkpt lat="39.8894440" lon="-4.1558040">
        <ele>460.4</ele>
        <time>2019-07-08T09:10:51Z</time>
      </trkpt>
      <trkpt lat="39.8894070" lon="-4.1562860">
        <ele>460.4</ele>
        <time>2019-07-08T09:10:58Z</time>
      </trkpt>
      <trkpt lat="39.8893710" lon="-4.1568220">
        <ele>460.4</ele>
        <time>2019-07-08T09:11:06Z</time>
      </trkpt>
      <trkpt lat="39.8893270" lon="-4.1571560">
        <ele>460.6</ele>
        <time>2019-07-08T09:11:11Z</time>
      </trkpt>
      <trkpt lat="39.8892960" lon="-4.1575580">
        <ele>460.4</ele>
        <time>2019-07-08T09:11:17Z</time>
      </trkpt>
      <trkpt lat="39.8892600" lon="-4.1580160">
        <ele>460.0</ele>
        <time>2019-07-08T09:11:24Z</time>
      </trkpt>
      <trkpt lat="39.8892500" lon="-4.1581470">
        <ele>460.0</ele>
        <time>2019-07-08T09:11:26Z</time>
      </trkpt>
      <trkpt lat="39.8892240" lon="-4.1586260">
        <ele>459.8</ele>
        <time>2019-07-08T09:11:33Z</time>
      </trkpt>
      <trkpt lat="39.8891730" lon="-4.1593950">
        <ele>460.0</ele>
        <time>2019-07-08T09:11:44Z</time>
      </trkpt>
      <trkpt lat="39.8891360" lon="-4.1598840">
        <ele>459.8</ele>
        <time>2019-07-08T09:11:51Z</time>
      </trkpt>
      <trkpt lat="39.8890830" lon="-4.1605850">
        <ele>460.0</ele>
        <time>2019-07-08T09:12:01Z</time>
      </trkpt>
      <trkpt lat="39.8890500" lon="-4.1611010">
        <ele>459.2</ele>
        <time>2019-07-08T09:12:08Z</time>
      </trkpt>
      <trkpt lat="39.8890210" lon="-4.1616130">
        <ele>459.6</ele>
        <time>2019-07-08T09:12:15Z</time>
      </trkpt>
      <trkpt lat="39.8889790" lon="-4.1621940">
        <ele>459.8</ele>
        <time>2019-07-08T09:12:23Z</time>
      </trkpt>
      <trkpt lat="39.8889190" lon="-4.1629350">
        <ele>459.4</ele>
        <time>2019-07-08T09:12:33Z</time>
      </trkpt>
      <trkpt lat="39.8888760" lon="-4.1634490">
        <ele>459.2</ele>
        <time>2019-07-08T09:12:40Z</time>
      </trkpt>
      <trkpt lat="39.8888440" lon="-4.1638820">
        <ele>459.2</ele>
        <time>2019-07-08T09:12:46Z</time>
      </trkpt>
      <trkpt lat="39.8888450" lon="-4.1640230">
        <ele>459.2</ele>
        <time>2019-07-08T09:12:48Z</time>
      </trkpt>
      <trkpt lat="39.8888320" lon="-4.1642910">
        <ele>459.0</ele>
        <time>2019-07-08T09:12:52Z</time>
      </trkpt>
      <trkpt lat="39.8888280" lon="-4.1644950">
        <ele>458.8</ele>
        <time>2019-07-08T09:12:55Z</time>
      </trkpt>
      <trkpt lat="39.8888490" lon="-4.1649000">
        <ele>458.8</ele>
        <time>2019-07-08T09:13:01Z</time>
      </trkpt>
      <trkpt lat="39.8888900" lon="-4.1654970">
        <ele>459.0</ele>
        <time>2019-07-08T09:13:10Z</time>
      </trkpt>
      <trkpt lat="39.8889270" lon="-4.1659990">
        <ele>458.6</ele>
        <time>2019-07-08T09:13:18Z</time>
      </trkpt>
      <trkpt lat="39.8889680" lon="-4.1666730">
        <ele>458.8</ele>
        <time>2019-07-08T09:13:28Z</time>
      </trkpt>
      <trkpt lat="39.8889960" lon="-4.1673590">
        <ele>458.8</ele>
        <time>2019-07-08T09:13:38Z</time>
      </trkpt>
      <trkpt lat="39.8889560" lon="-4.1677670">
        <ele>459.0</ele>
        <time>2019-07-08T09:13:44Z</time>
      </trkpt>
      <trkpt lat="39.8888020" lon="-4.1683040">
        <ele>458.8</ele>
        <time>2019-07-08T09:13:52Z</time>
      </trkpt>
      <trkpt lat="39.8885800" lon="-4.1688900">
        <ele>458.2</ele>
        <time>2019-07-08T09:14:01Z</time>
      </trkpt>
      <trkpt lat="39.8885640" lon="-4.1689590">
        <ele>458.2</ele>
        <time>2019-07-08T09:14:02Z</time>
      </trkpt>
      <trkpt lat="39.8885800" lon="-4.1691870">
        <ele>458.2</ele>
        <time>2019-07-08T09:14:05Z</time>
      </trkpt>
      <trkpt lat="39.8886950" lon="-4.1693600">
        <ele>457.8</ele>
        <time>2019-07-08T09:14:08Z</time>
      </trkpt>
      <trkpt lat="39.8888510" lon="-4.1694600">
        <ele>457.6</ele>
        <time>2019-07-08T09:14:11Z</time>
      </trkpt>
      <trkpt lat="39.8889600" lon="-4.1695160">
        <ele>457.6</ele>
        <time>2019-07-08T09:14:13Z</time>
      </trkpt>
      <trkpt lat="39.8892890" lon="-4.1696990">
        <ele>457.6</ele>
        <time>2019-07-08T09:14:19Z</time>
      </trkpt>
      <trkpt lat="39.8897130" lon="-4.1699320">
        <ele>458.0</ele>
        <time>2019-07-08T09:14:27Z</time>
      </trkpt>
      <trkpt lat="39.8897650" lon="-4.1699600">
        <ele>458.0</ele>
        <time>2019-07-08T09:14:28Z</time>
      </trkpt>
      <trkpt lat="39.8900220" lon="-4.1700900">
        <ele>457.6</ele>
        <time>2019-07-08T09:14:33Z</time>
      </trkpt>
      <trkpt lat="39.8900760" lon="-4.1700980">
        <ele>457.6</ele>
        <time>2019-07-08T09:14:34Z</time>
      </trkpt>
      <trkpt lat="39.8903140" lon="-4.1701220">
        <ele>458.4</ele>
        <time>2019-07-08T09:14:39Z</time>
      </trkpt>
      <trkpt lat="39.8903490" lon="-4.1701360">
        <ele>458.8</ele>
        <time>2019-07-08T09:14:40Z</time>
      </trkpt>
      <trkpt lat="39.8904610" lon="-4.1702130">
        <ele>460.0</ele>
        <time>2019-07-08T09:14:44Z</time>
      </trkpt>
      <trkpt lat="39.8905370" lon="-4.1702750">
        <ele>461.2</ele>
        <time>2019-07-08T09:14:47Z</time>
      </trkpt>
      <trkpt lat="39.8906020" lon="-4.1703550">
        <ele>462.0</ele>
        <time>2019-07-08T09:14:50Z</time>
      </trkpt>
      <trkpt lat="39.8906370" lon="-4.1704250">
        <ele>462.4</ele>
        <time>2019-07-08T09:14:52Z</time>
      </trkpt>
      <trkpt lat="39.8906840" lon="-4.1705320">
        <ele>463.0</ele>
        <time>2019-07-08T09:14:55Z</time>
      </trkpt>
      <trkpt lat="39.8907290" lon="-4.1706460">
        <ele>463.8</ele>
        <time>2019-07-08T09:14:58Z</time>
      </trkpt>
      <trkpt lat="39.8907870" lon="-4.1708230">
        <ele>464.6</ele>
        <time>2019-07-08T09:15:02Z</time>
      </trkpt>
      <trkpt lat="39.8908420" lon="-4.1709730">
        <ele>464.2</ele>
        <time>2019-07-08T09:15:05Z</time>
      </trkpt>
      <trkpt lat="39.8909900" lon="-4.1712800">
        <ele>464.0</ele>
        <time>2019-07-08T09:15:11Z</time>
      </trkpt>
      <trkpt lat="39.8910540" lon="-4.1713710">
        <ele>464.2</ele>
        <time>2019-07-08T09:15:13Z</time>
      </trkpt>
      <trkpt lat="39.8910820" lon="-4.1714200">
        <ele>464.4</ele>
        <time>2019-07-08T09:15:14Z</time>
      </trkpt>
      <trkpt lat="39.8911650" lon="-4.1715740">
        <ele>464.8</ele>
        <time>2019-07-08T09:15:17Z</time>
      </trkpt>
      <trkpt lat="39.8912210" lon="-4.1716880">
        <ele>464.4</ele>
        <time>2019-07-08T09:15:19Z</time>
      </trkpt>
      <trkpt lat="39.8913140" lon="-4.1718550">
        <ele>464.4</ele>
        <time>2019-07-08T09:15:22Z</time>
      </trkpt>
      <trkpt lat="39.8913740" lon="-4.1719650">
        <ele>464.2</ele>
        <time>2019-07-08T09:15:24Z</time>
      </trkpt>
      <trkpt lat="39.8914600" lon="-4.1721210">
        <ele>463.4</ele>
        <time>2019-07-08T09:15:27Z</time>
      </trkpt>
      <trkpt lat="39.8914790" lon="-4.1721690">
        <ele>463.0</ele>
        <time>2019-07-08T09:15:28Z</time>
      </trkpt>
      <trkpt lat="39.8914920" lon="-4.1722160">
        <ele>462.8</ele>
        <time>2019-07-08T09:15:29Z</time>
      </trkpt>
      <trkpt lat="39.8914920" lon="-4.1723180">
        <ele>462.2</ele>
        <time>2019-07-08T09:15:31Z</time>
      </trkpt>
      <trkpt lat="39.8914670" lon="-4.1724320">
        <ele>461.2</ele>
        <time>2019-07-08T09:15:33Z</time>
      </trkpt>
      <trkpt lat="39.8914110" lon="-4.1725470">
        <ele>460.2</ele>
        <time>2019-07-08T09:15:35Z</time>
      </trkpt>
      <trkpt lat="39.8913720" lon="-4.1726020">
        <ele>459.8</ele>
        <time>2019-07-08T09:15:36Z</time>
      </trkpt>
      <trkpt lat="39.8912790" lon="-4.1727050">
        <ele>459.4</ele>
        <time>2019-07-08T09:15:38Z</time>
      </trkpt>
      <trkpt lat="39.8912290" lon="-4.1727570">
        <ele>458.6</ele>
        <time>2019-07-08T09:15:39Z</time>
      </trkpt>
      <trkpt lat="39.8911780" lon="-4.1728100">
        <ele>458.2</ele>
        <time>2019-07-08T09:15:40Z</time>
      </trkpt>
      <trkpt lat="39.8909680" lon="-4.1730170">
        <ele>457.6</ele>
        <time>2019-07-08T09:15:44Z</time>
      </trkpt>
      <trkpt lat="39.8908500" lon="-4.1730960">
        <ele>457.4</ele>
        <time>2019-07-08T09:15:46Z</time>
      </trkpt>
      <trkpt lat="39.8907880" lon="-4.1731260">
        <ele>457.4</ele>
        <time>2019-07-08T09:15:47Z</time>
      </trkpt>
      <trkpt lat="39.8906050" lon="-4.1732110">
        <ele>457.2</ele>
        <time>2019-07-08T09:15:50Z</time>
      </trkpt>
      <trkpt lat="39.8905010" lon="-4.1733030">
        <ele>457.2</ele>
        <time>2019-07-08T09:15:52Z</time>
      </trkpt>
      <trkpt lat="39.8904270" lon="-4.1734300">
        <ele>456.6</ele>
        <time>2019-07-08T09:15:54Z</time>
      </trkpt>
      <trkpt lat="39.8903740" lon="-4.1735750">
        <ele>456.4</ele>
        <time>2019-07-08T09:15:56Z</time>
      </trkpt>
      <trkpt lat="39.8902350" lon="-4.1740040">
        <ele>455.8</ele>
        <time>2019-07-08T09:16:02Z</time>
      </trkpt>
      <trkpt lat="39.8900350" lon="-4.1744460">
        <ele>456.0</ele>
        <time>2019-07-08T09:16:09Z</time>
      </trkpt>
      <trkpt lat="39.8899470" lon="-4.1746280">
        <ele>456.2</ele>
        <time>2019-07-08T09:16:11Z</time>
      </trkpt>
      <trkpt lat="39.8898780" lon="-4.1748220">
        <ele>456.0</ele>
        <time>2019-07-08T09:16:15Z</time>
      </trkpt>
      <trkpt lat="39.8897200" lon="-4.1754480">
        <ele>456.2</ele>
        <time>2019-07-08T09:16:23Z</time>
      </trkpt>
      <trkpt lat="39.8896590" lon="-4.1758810">
        <ele>456.4</ele>
        <time>2019-07-08T09:16:29Z</time>
      </trkpt>
      <trkpt lat="39.8896590" lon="-4.1758810">
        <ele>456.4</ele>
        <time>2019-07-08T09:16:30Z</time>
      </trkpt>
      <trkpt lat="39.8896120" lon="-4.1760890">
        <ele>456.0</ele>
        <time>2019-07-08T09:16:33Z</time>
      </trkpt>
      <trkpt lat="39.8895400" lon="-4.1763610">
        <ele>455.8</ele>
        <time>2019-07-08T09:16:37Z</time>
      </trkpt>
      <trkpt lat="39.8894750" lon="-4.1767060">
        <ele>456.4</ele>
        <time>2019-07-08T09:16:42Z</time>
      </trkpt>
      <trkpt lat="39.8894630" lon="-4.1767740">
        <ele>456.4</ele>
        <time>2019-07-08T09:16:43Z</time>
      </trkpt>
      <trkpt lat="39.8894400" lon="-4.1771360">
        <ele>456.6</ele>
        <time>2019-07-08T09:16:47Z</time>
      </trkpt>
      <trkpt lat="39.8894490" lon="-4.1772110">
        <ele>456.6</ele>
        <time>2019-07-08T09:16:49Z</time>
      </trkpt>
      <trkpt lat="39.8894770" lon="-4.1773540">
        <ele>456.4</ele>
        <time>2019-07-08T09:16:51Z</time>
      </trkpt>
      <trkpt lat="39.8895520" lon="-4.1775520">
        <ele>456.6</ele>
        <time>2019-07-08T09:16:54Z</time>
      </trkpt>
      <trkpt lat="39.8897400" lon="-4.1779170">
        <ele>456.8</ele>
        <time>2019-07-08T09:16:59Z</time>
      </trkpt>
      <trkpt lat="39.8897750" lon="-4.1779750">
        <ele>456.6</ele>
        <time>2019-07-08T09:17:01Z</time>
      </trkpt>
      <trkpt lat="39.8900390" lon="-4.1784670">
        <ele>457.0</ele>
        <time>2019-07-08T09:17:09Z</time>
      </trkpt>
      <trkpt lat="39.8903320" lon="-4.1790420">
        <ele>456.8</ele>
        <time>2019-07-08T09:17:18Z</time>
      </trkpt>
      <trkpt lat="39.8906140" lon="-4.1794110">
        <ele>456.6</ele>
        <time>2019-07-08T09:17:25Z</time>
      </trkpt>
      <trkpt lat="39.8910970" lon="-4.1798940">
        <ele>457.0</ele>
        <time>2019-07-08T09:17:35Z</time>
      </trkpt>
      <trkpt lat="39.8911470" lon="-4.1799310">
        <ele>457.2</ele>
        <time>2019-07-08T09:17:37Z</time>
      </trkpt>
      <trkpt lat="39.8913580" lon="-4.1800400">
        <ele>457.2</ele>
        <time>2019-07-08T09:17:40Z</time>
      </trkpt>
      <trkpt lat="39.8914140" lon="-4.1800530">
        <ele>457.2</ele>
        <time>2019-07-08T09:17:41Z</time>
      </trkpt>
      <trkpt lat="39.8917510" lon="-4.1800720">
        <ele>457.2</ele>
        <time>2019-07-08T09:17:48Z</time>
      </trkpt>
      <trkpt lat="39.8918710" lon="-4.1800790">
        <ele>457.2</ele>
        <time>2019-07-08T09:17:50Z</time>
      </trkpt>
      <trkpt lat="39.8921120" lon="-4.1800970">
        <ele>457.4</ele>
        <time>2019-07-08T09:17:53Z</time>
      </trkpt>
      <trkpt lat="39.8924110" lon="-4.1801530">
        <ele>457.2</ele>
        <time>2019-07-08T09:17:58Z</time>
      </trkpt>
      <trkpt lat="39.8926500" lon="-4.1802530">
        <ele>457.0</ele>
        <time>2019-07-08T09:18:02Z</time>
      </trkpt>
      <trkpt lat="39.8928130" lon="-4.1803620">
        <ele>457.0</ele>
        <time>2019-07-08T09:18:05Z</time>
      </trkpt>
      <trkpt lat="39.8930220" lon="-4.1805090">
        <ele>457.6</ele>
        <time>2019-07-08T09:18:10Z</time>
      </trkpt>
      <trkpt lat="39.8931730" lon="-4.1806390">
        <ele>457.4</ele>
        <time>2019-07-08T09:18:13Z</time>
      </trkpt>
      <trkpt lat="39.8936630" lon="-4.1809970">
        <ele>457.0</ele>
        <time>2019-07-08T09:18:22Z</time>
      </trkpt>
      <trkpt lat="39.8940760" lon="-4.1813700">
        <ele>457.2</ele>
        <time>2019-07-08T09:18:29Z</time>
      </trkpt>
      <trkpt lat="39.8940760" lon="-4.1813700">
        <ele>457.2</ele>
        <time>2019-07-08T09:18:30Z</time>
      </trkpt>
      <trkpt lat="39.8944340" lon="-4.1817040">
        <ele>457.4</ele>
        <time>2019-07-08T09:18:36Z</time>
      </trkpt>
      <trkpt lat="39.8947110" lon="-4.1818960">
        <ele>458.4</ele>
        <time>2019-07-08T09:18:42Z</time>
      </trkpt>
      <trkpt lat="39.8948200" lon="-4.1819680">
        <ele>458.6</ele>
        <time>2019-07-08T09:18:44Z</time>
      </trkpt>
      <trkpt lat="39.8950920" lon="-4.1821730">
        <ele>458.8</ele>
        <time>2019-07-08T09:18:49Z</time>
      </trkpt>
      <trkpt lat="39.8951380" lon="-4.1822240">
        <ele>458.6</ele>
        <time>2019-07-08T09:18:50Z</time>
      </trkpt>
      <trkpt lat="39.8953010" lon="-4.1824660">
        <ele>458.2</ele>
        <time>2019-07-08T09:18:54Z</time>
      </trkpt>
      <trkpt lat="39.8953400" lon="-4.1825320">
        <ele>458.0</ele>
        <time>2019-07-08T09:18:55Z</time>
      </trkpt>
      <trkpt lat="39.8956730" lon="-4.1829990">
        <ele>457.8</ele>
        <time>2019-07-08T09:19:03Z</time>
      </trkpt>
      <trkpt lat="39.8958250" lon="-4.1831250">
        <ele>458.2</ele>
        <time>2019-07-08T09:19:05Z</time>
      </trkpt>
      <trkpt lat="39.8958810" lon="-4.1831520">
        <ele>458.2</ele>
        <time>2019-07-08T09:19:07Z</time>
      </trkpt>
      <trkpt lat="39.8962300" lon="-4.1832410">
        <ele>458.4</ele>
        <time>2019-07-08T09:19:13Z</time>
      </trkpt>
      <trkpt lat="39.8967410" lon="-4.1833280">
        <ele>458.2</ele>
        <time>2019-07-08T09:19:22Z</time>
      </trkpt>
      <trkpt lat="39.8971700" lon="-4.1833710">
        <ele>458.8</ele>
        <time>2019-07-08T09:19:29Z</time>
      </trkpt>
      <trkpt lat="39.8972450" lon="-4.1833760">
        <ele>459.6</ele>
        <time>2019-07-08T09:19:32Z</time>
      </trkpt>
      <trkpt lat="39.8974170" lon="-4.1833830">
        <ele>459.8</ele>
        <time>2019-07-08T09:19:35Z</time>
      </trkpt>
      <trkpt lat="39.8976050" lon="-4.1833770">
        <ele>459.0</ele>
        <time>2019-07-08T09:19:39Z</time>
      </trkpt>
      <trkpt lat="39.8978610" lon="-4.1833580">
        <ele>458.6</ele>
        <time>2019-07-08T09:19:43Z</time>
      </trkpt>
      <trkpt lat="39.8979870" lon="-4.1833700">
        <ele>458.6</ele>
        <time>2019-07-08T09:19:45Z</time>
      </trkpt>
      <trkpt lat="39.8980470" lon="-4.1833880">
        <ele>458.6</ele>
        <time>2019-07-08T09:19:46Z</time>
      </trkpt>
      <trkpt lat="39.8982010" lon="-4.1835030">
        <ele>458.2</ele>
        <time>2019-07-08T09:19:49Z</time>
      </trkpt>
      <trkpt lat="39.8982420" lon="-4.1835510">
        <ele>458.0</ele>
        <time>2019-07-08T09:19:50Z</time>
      </trkpt>
      <trkpt lat="39.8983460" lon="-4.1837930">
        <ele>457.8</ele>
        <time>2019-07-08T09:19:54Z</time>
      </trkpt>
      <trkpt lat="39.8983590" lon="-4.1838570">
        <ele>457.8</ele>
        <time>2019-07-08T09:19:55Z</time>
      </trkpt>
      <trkpt lat="39.8983640" lon="-4.1840410">
        <ele>458.2</ele>
        <time>2019-07-08T09:19:58Z</time>
      </trkpt>
      <trkpt lat="39.8983460" lon="-4.1841710">
        <ele>458.2</ele>
        <time>2019-07-08T09:19:59Z</time>
      </trkpt>
      <trkpt lat="39.8983080" lon="-4.1843910">
        <ele>457.6</ele>
        <time>2019-07-08T09:20:02Z</time>
      </trkpt>
      <trkpt lat="39.8983080" lon="-4.1843910">
        <ele>457.6</ele>
        <time>2019-07-08T09:20:03Z</time>
      </trkpt>
      <trkpt lat="39.8982270" lon="-4.1848000">
        <ele>457.4</ele>
        <time>2019-07-08T09:20:09Z</time>
      </trkpt>
      <trkpt lat="39.8982080" lon="-4.1849890">
        <ele>457.6</ele>
        <time>2019-07-08T09:20:11Z</time>
      </trkpt>
      <trkpt lat="39.8981930" lon="-4.1851690">
        <ele>457.6</ele>
        <time>2019-07-08T09:20:15Z</time>
      </trkpt>
      <trkpt lat="39.8981910" lon="-4.1852260">
        <ele>457.8</ele>
        <time>2019-07-08T09:20:16Z</time>
      </trkpt>
      <trkpt lat="39.8982200" lon="-4.1854000">
        <ele>458.0</ele>
        <time>2019-07-08T09:20:19Z</time>
      </trkpt>
      <trkpt lat="39.8983110" lon="-4.1857410">
        <ele>458.6</ele>
        <time>2019-07-08T09:20:26Z</time>
      </trkpt>
      <trkpt lat="39.8983720" lon="-4.1859380">
        <ele>458.8</ele>
        <time>2019-07-08T09:20:29Z</time>
      </trkpt>
      <trkpt lat="39.8984480" lon="-4.1861620">
        <ele>459.0</ele>
        <time>2019-07-08T09:20:34Z</time>
      </trkpt>
      <trkpt lat="39.8985110" lon="-4.1863410">
        <ele>459.8</ele>
        <time>2019-07-08T09:20:39Z</time>
      </trkpt>
      <trkpt lat="39.8985650" lon="-4.1865150">
        <ele>460.0</ele>
        <time>2019-07-08T09:20:43Z</time>
      </trkpt>
      <trkpt lat="39.8985630" lon="-4.1867610">
        <ele>460.2</ele>
        <time>2019-07-08T09:20:48Z</time>
      </trkpt>
      <trkpt lat="39.8985370" lon="-4.1868970">
        <ele>461.0</ele>
        <time>2019-07-08T09:20:51Z</time>
      </trkpt>
      <trkpt lat="39.8985010" lon="-4.1870350">
        <ele>461.6</ele>
        <time>2019-07-08T09:20:54Z</time>
      </trkpt>
      <trkpt lat="39.8984720" lon="-4.1871270">
        <ele>462.0</ele>
        <time>2019-07-08T09:20:56Z</time>
      </trkpt>
      <trkpt lat="39.8983720" lon="-4.1874450">
        <ele>462.8</ele>
        <time>2019-07-08T09:21:03Z</time>
      </trkpt>
      <trkpt lat="39.8983160" lon="-4.1875650">
        <ele>463.0</ele>
        <time>2019-07-08T09:21:05Z</time>
      </trkpt>
      <trkpt lat="39.8982740" lon="-4.1876980">
        <ele>464.2</ele>
        <time>2019-07-08T09:21:09Z</time>
      </trkpt>
      <trkpt lat="39.8982070" lon="-4.1878310">
        <ele>464.6</ele>
        <time>2019-07-08T09:21:11Z</time>
      </trkpt>
      <trkpt lat="39.8981440" lon="-4.1879510">
        <ele>464.4</ele>
        <time>2019-07-08T09:21:14Z</time>
      </trkpt>
      <trkpt lat="39.8981380" lon="-4.1879620">
        <ele>463.8</ele>
        <time>2019-07-08T09:21:17Z</time>
      </trkpt>
      <trkpt lat="39.8981740" lon="-4.1878600">
        <ele>463.8</ele>
        <time>2019-07-08T09:21:45Z</time>
      </trkpt>
      <trkpt lat="39.8982610" lon="-4.1876720">
        <ele>463.8</ele>
        <time>2019-07-08T09:21:52Z</time>
      </trkpt>
      <trkpt lat="39.8982910" lon="-4.1876070">
        <ele>463.8</ele>
        <time>2019-07-08T09:21:54Z</time>
      </trkpt>
      <trkpt lat="39.8983500" lon="-4.1875630">
        <ele>463.6</ele>
        <time>2019-07-08T09:21:57Z</time>
      </trkpt>
      <trkpt lat="39.8983810" lon="-4.1875770">
        <ele>463.6</ele>
        <time>2019-07-08T09:21:58Z</time>
      </trkpt>
      <trkpt lat="39.8984010" lon="-4.1876170">
        <ele>463.8</ele>
        <time>2019-07-08T09:22:01Z</time>
      </trkpt>
      <trkpt lat="39.8984040" lon="-4.1877670">
        <ele>464.2</ele>
        <time>2019-07-08T09:22:05Z</time>
      </trkpt>
      <trkpt lat="39.8984040" lon="-4.1877670">
        <ele>464.2</ele>
        <time>2019-07-08T09:22:06Z</time>
      </trkpt>
      <trkpt lat="39.8984110" lon="-4.1878410">
        <ele>464.6</ele>
        <time>2019-07-08T09:22:08Z</time>
      </trkpt>
      <trkpt lat="39.8984300" lon="-4.1880330">
        <ele>465.2</ele>
        <time>2019-07-08T09:22:12Z</time>
      </trkpt>
      <trkpt lat="39.8984300" lon="-4.1880330">
        <ele>465.4</ele>
        <time>2019-07-08T09:22:13Z</time>
      </trkpt>
      <trkpt lat="39.8984310" lon="-4.1882340">
        <ele>466.0</ele>
        <time>2019-07-08T09:22:17Z</time>
      </trkpt>
      <trkpt lat="39.8984190" lon="-4.1883500">
        <ele>466.2</ele>
        <time>2019-07-08T09:22:21Z</time>
      </trkpt>
      <trkpt lat="39.8984140" lon="-4.1883900">
        <ele>466.2</ele>
        <time>2019-07-08T09:22:22Z</time>
      </trkpt>
      <trkpt lat="39.8984010" lon="-4.1885810">
        <ele>467.4</ele>
        <time>2019-07-08T09:22:27Z</time>
      </trkpt>
      <trkpt lat="39.8984070" lon="-4.1886990">
        <ele>467.8</ele>
        <time>2019-07-08T09:22:30Z</time>
      </trkpt>
      <trkpt lat="39.8984360" lon="-4.1888160">
        <ele>468.2</ele>
        <time>2019-07-08T09:22:33Z</time>
      </trkpt>
      <trkpt lat="39.8984490" lon="-4.1888520">
        <ele>468.2</ele>
        <time>2019-07-08T09:22:34Z</time>
      </trkpt>
      <trkpt lat="39.8984710" lon="-4.1889220">
        <ele>468.6</ele>
        <time>2019-07-08T09:22:35Z</time>
      </trkpt>
      <trkpt lat="39.8985020" lon="-4.1890350">
        <ele>469.6</ele>
        <time>2019-07-08T09:22:39Z</time>
      </trkpt>
      <trkpt lat="39.8985380" lon="-4.1891530">
        <ele>469.8</ele>
        <time>2019-07-08T09:22:41Z</time>
      </trkpt>
      <trkpt lat="39.8985930" lon="-4.1893870">
        <ele>470.2</ele>
        <time>2019-07-08T09:22:48Z</time>
      </trkpt>
      <trkpt lat="39.8985960" lon="-4.1894270">
        <ele>470.4</ele>
        <time>2019-07-08T09:22:49Z</time>
      </trkpt>
      <trkpt lat="39.8986030" lon="-4.1896420">
        <ele>471.6</ele>
        <time>2019-07-08T09:22:55Z</time>
      </trkpt>
      <trkpt lat="39.8986100" lon="-4.1896720">
        <ele>471.6</ele>
        <time>2019-07-08T09:22:56Z</time>
      </trkpt>
      <trkpt lat="39.8986580" lon="-4.1898450">
        <ele>472.6</ele>
        <time>2019-07-08T09:23:02Z</time>
      </trkpt>
      <trkpt lat="39.8986650" lon="-4.1898740">
        <ele>472.8</ele>
        <time>2019-07-08T09:23:03Z</time>
      </trkpt>
      <trkpt lat="39.8986910" lon="-4.1899840">
        <ele>473.6</ele>
        <time>2019-07-08T09:23:07Z</time>
      </trkpt>
      <trkpt lat="39.8987130" lon="-4.1900780">
        <ele>474.0</ele>
        <time>2019-07-08T09:23:10Z</time>
      </trkpt>
      <trkpt lat="39.8987480" lon="-4.1902080">
        <ele>474.6</ele>
        <time>2019-07-08T09:23:14Z</time>
      </trkpt>
      <trkpt lat="39.8987960" lon="-4.1903710">
        <ele>475.4</ele>
        <time>2019-07-08T09:23:19Z</time>
      </trkpt>
      <trkpt lat="39.8988060" lon="-4.1904020">
        <ele>475.6</ele>
        <time>2019-07-08T09:23:20Z</time>
      </trkpt>
      <trkpt lat="39.8988150" lon="-4.1904320">
        <ele>476.0</ele>
        <time>2019-07-08T09:23:21Z</time>
      </trkpt>
      <trkpt lat="39.8988530" lon="-4.1905480">
        <ele>476.8</ele>
        <time>2019-07-08T09:23:25Z</time>
      </trkpt>
      <trkpt lat="39.8989060" lon="-4.1906890">
        <ele>477.8</ele>
        <time>2019-07-08T09:23:30Z</time>
      </trkpt>
      <trkpt lat="39.8989190" lon="-4.1907180">
        <ele>478.0</ele>
        <time>2019-07-08T09:23:31Z</time>
      </trkpt>
      <trkpt lat="39.8989760" lon="-4.1908610">
        <ele>479.2</ele>
        <time>2019-07-08T09:23:35Z</time>
      </trkpt>
      <trkpt lat="39.8990210" lon="-4.1909790">
        <ele>480.2</ele>
        <time>2019-07-08T09:23:40Z</time>
      </trkpt>
      <trkpt lat="39.8990440" lon="-4.1910380">
        <ele>480.6</ele>
        <time>2019-07-08T09:23:41Z</time>
      </trkpt>
      <trkpt lat="39.8990970" lon="-4.1911550">
        <ele>481.6</ele>
        <time>2019-07-08T09:23:46Z</time>
      </trkpt>
      <trkpt lat="39.8991400" lon="-4.1912400">
        <ele>482.2</ele>
        <time>2019-07-08T09:23:49Z</time>
      </trkpt>
      <trkpt lat="39.8991680" lon="-4.1912930">
        <ele>482.6</ele>
        <time>2019-07-08T09:23:51Z</time>
      </trkpt>
      <trkpt lat="39.8992190" lon="-4.1913720">
        <ele>484.0</ele>
        <time>2019-07-08T09:23:54Z</time>
      </trkpt>
      <trkpt lat="39.8993110" lon="-4.1915060">
        <ele>484.6</ele>
        <time>2019-07-08T09:23:58Z</time>
      </trkpt>
      <trkpt lat="39.8993460" lon="-4.1915640">
        <ele>485.2</ele>
        <time>2019-07-08T09:24:00Z</time>
      </trkpt>
      <trkpt lat="39.8994250" lon="-4.1917270">
        <ele>486.2</ele>
        <time>2019-07-08T09:24:05Z</time>
      </trkpt>
      <trkpt lat="39.8994410" lon="-4.1917640">
        <ele>486.6</ele>
        <time>2019-07-08T09:24:07Z</time>
      </trkpt>
      <trkpt lat="39.8995910" lon="-4.1920570">
        <ele>487.2</ele>
        <time>2019-07-08T09:24:14Z</time>
      </trkpt>
      <trkpt lat="39.8995910" lon="-4.1920570">
        <ele>487.4</ele>
        <time>2019-07-08T09:24:15Z</time>
      </trkpt>
      <trkpt lat="39.8997060" lon="-4.1922600">
        <ele>487.6</ele>
        <time>2019-07-08T09:24:21Z</time>
      </trkpt>
      <trkpt lat="39.8997870" lon="-4.1923850">
        <ele>488.0</ele>
        <time>2019-07-08T09:24:25Z</time>
      </trkpt>
      <trkpt lat="39.8998650" lon="-4.1925090">
        <ele>488.4</ele>
        <time>2019-07-08T09:24:28Z</time>
      </trkpt>
      <trkpt lat="39.8999230" lon="-4.1926420">
        <ele>489.6</ele>
        <time>2019-07-08T09:24:33Z</time>
      </trkpt>
      <trkpt lat="39.8999640" lon="-4.1927820">
        <ele>490.6</ele>
        <time>2019-07-08T09:24:37Z</time>
      </trkpt>
      <trkpt lat="39.8999870" lon="-4.1929690">
        <ele>491.2</ele>
        <time>2019-07-08T09:24:41Z</time>
      </trkpt>
      <trkpt lat="39.8999890" lon="-4.1930070">
        <ele>491.6</ele>
        <time>2019-07-08T09:24:42Z</time>
      </trkpt>
      <trkpt lat="39.8999810" lon="-4.1931630">
        <ele>492.6</ele>
        <time>2019-07-08T09:24:46Z</time>
      </trkpt>
      <trkpt lat="39.8999670" lon="-4.1932390">
        <ele>493.4</ele>
        <time>2019-07-08T09:24:49Z</time>
      </trkpt>
      <trkpt lat="39.8999480" lon="-4.1933130">
        <ele>493.6</ele>
        <time>2019-07-08T09:24:50Z</time>
      </trkpt>
      <trkpt lat="39.8998990" lon="-4.1934630">
        <ele>494.8</ele>
        <time>2019-07-08T09:24:55Z</time>
      </trkpt>
      <trkpt lat="39.8998490" lon="-4.1936160">
        <ele>495.0</ele>
        <time>2019-07-08T09:24:58Z</time>
      </trkpt>
      <trkpt lat="39.8998210" lon="-4.1937780">
        <ele>495.8</ele>
        <time>2019-07-08T09:25:02Z</time>
      </trkpt>
      <trkpt lat="39.8997970" lon="-4.1939370">
        <ele>496.8</ele>
        <time>2019-07-08T09:25:06Z</time>
      </trkpt>
      <trkpt lat="39.8997970" lon="-4.1939370">
        <ele>497.0</ele>
        <time>2019-07-08T09:25:07Z</time>
      </trkpt>
      <trkpt lat="39.8997350" lon="-4.1942330">
        <ele>498.0</ele>
        <time>2019-07-08T09:25:12Z</time>
      </trkpt>
      <trkpt lat="39.8997350" lon="-4.1942330">
        <ele>498.0</ele>
        <time>2019-07-08T09:25:13Z</time>
      </trkpt>
      <trkpt lat="39.8996560" lon="-4.1945870">
        <ele>497.4</ele>
        <time>2019-07-08T09:25:18Z</time>
      </trkpt>
      <trkpt lat="39.8996500" lon="-4.1946460">
        <ele>497.4</ele>
        <time>2019-07-08T09:25:20Z</time>
      </trkpt>
      <trkpt lat="39.8996440" lon="-4.1948220">
        <ele>497.6</ele>
        <time>2019-07-08T09:25:22Z</time>
      </trkpt>
      <trkpt lat="39.8996530" lon="-4.1949360">
        <ele>497.8</ele>
        <time>2019-07-08T09:25:24Z</time>
      </trkpt>
      <trkpt lat="39.8996710" lon="-4.1950470">
        <ele>497.8</ele>
        <time>2019-07-08T09:25:26Z</time>
      </trkpt>
      <trkpt lat="39.8997120" lon="-4.1951980">
        <ele>498.2</ele>
        <time>2019-07-08T09:25:29Z</time>
      </trkpt>
      <trkpt lat="39.8997760" lon="-4.1953420">
        <ele>498.6</ele>
        <time>2019-07-08T09:25:32Z</time>
      </trkpt>
      <trkpt lat="39.8997760" lon="-4.1953420">
        <ele>498.6</ele>
        <time>2019-07-08T09:25:33Z</time>
      </trkpt>
      <trkpt lat="39.8999250" lon="-4.1957160">
        <ele>499.2</ele>
        <time>2019-07-08T09:25:40Z</time>
      </trkpt>
      <trkpt lat="39.8999480" lon="-4.1958050">
        <ele>500.2</ele>
        <time>2019-07-08T09:25:43Z</time>
      </trkpt>
      <trkpt lat="39.8999670" lon="-4.1960310">
        <ele>501.0</ele>
        <time>2019-07-08T09:25:47Z</time>
      </trkpt>
      <trkpt lat="39.8999640" lon="-4.1960780">
        <ele>501.2</ele>
        <time>2019-07-08T09:25:49Z</time>
      </trkpt>
      <trkpt lat="39.8999070" lon="-4.1964300">
        <ele>502.6</ele>
        <time>2019-07-08T09:25:56Z</time>
      </trkpt>
      <trkpt lat="39.8999070" lon="-4.1964300">
        <ele>502.8</ele>
        <time>2019-07-08T09:25:57Z</time>
      </trkpt>
      <trkpt lat="39.8998570" lon="-4.1966570">
        <ele>503.8</ele>
        <time>2019-07-08T09:26:03Z</time>
      </trkpt>
      <trkpt lat="39.8998240" lon="-4.1967960">
        <ele>504.4</ele>
        <time>2019-07-08T09:26:06Z</time>
      </trkpt>
      <trkpt lat="39.8998060" lon="-4.1968630">
        <ele>504.8</ele>
        <time>2019-07-08T09:26:08Z</time>
      </trkpt>
      <trkpt lat="39.8997790" lon="-4.1969970">
        <ele>505.8</ele>
        <time>2019-07-08T09:26:12Z</time>
      </trkpt>
      <trkpt lat="39.8997760" lon="-4.1970670">
        <ele>506.4</ele>
        <time>2019-07-08T09:26:14Z</time>
      </trkpt>
      <trkpt lat="39.8997730" lon="-4.1971010">
        <ele>507.0</ele>
        <time>2019-07-08T09:26:16Z</time>
      </trkpt>
      <trkpt lat="39.8997820" lon="-4.1972640">
        <ele>507.6</ele>
        <time>2019-07-08T09:26:21Z</time>
      </trkpt>
      <trkpt lat="39.8997870" lon="-4.1973180">
        <ele>508.0</ele>
        <time>2019-07-08T09:26:22Z</time>
      </trkpt>
      <trkpt lat="39.8997910" lon="-4.1973440">
        <ele>508.2</ele>
        <time>2019-07-08T09:26:23Z</time>
      </trkpt>
      <trkpt lat="39.8997970" lon="-4.1974790">
        <ele>509.4</ele>
        <time>2019-07-08T09:26:28Z</time>
      </trkpt>
      <trkpt lat="39.8998000" lon="-4.1975300">
        <ele>510.2</ele>
        <time>2019-07-08T09:26:31Z</time>
      </trkpt>
      <trkpt lat="39.8997970" lon="-4.1975850">
        <ele>510.6</ele>
        <time>2019-07-08T09:26:32Z</time>
      </trkpt>
      <trkpt lat="39.8997860" lon="-4.1976950">
        <ele>512.0</ele>
        <time>2019-07-08T09:26:37Z</time>
      </trkpt>
      <trkpt lat="39.8997650" lon="-4.1978240">
        <ele>513.0</ele>
        <time>2019-07-08T09:26:41Z</time>
      </trkpt>
      <trkpt lat="39.8997050" lon="-4.1979590">
        <ele>514.2</ele>
        <time>2019-07-08T09:26:47Z</time>
      </trkpt>
      <trkpt lat="39.8996620" lon="-4.1980140">
        <ele>515.4</ele>
        <time>2019-07-08T09:26:50Z</time>
      </trkpt>
      <trkpt lat="39.8996180" lon="-4.1980620">
        <ele>516.4</ele>
        <time>2019-07-08T09:26:53Z</time>
      </trkpt>
      <trkpt lat="39.8995690" lon="-4.1980920">
        <ele>517.6</ele>
        <time>2019-07-08T09:26:57Z</time>
      </trkpt>
      <trkpt lat="39.8995510" lon="-4.1980980">
        <ele>517.8</ele>
        <time>2019-07-08T09:26:58Z</time>
      </trkpt>
      <trkpt lat="39.8994860" lon="-4.1981400">
        <ele>518.6</ele>
        <time>2019-07-08T09:27:02Z</time>
      </trkpt>
      <trkpt lat="39.8994230" lon="-4.1982030">
        <ele>519.6</ele>
        <time>2019-07-08T09:27:06Z</time>
      </trkpt>
      <trkpt lat="39.8994080" lon="-4.1982220">
        <ele>519.8</ele>
        <time>2019-07-08T09:27:07Z</time>
      </trkpt>
      <trkpt lat="39.8993360" lon="-4.1983610">
        <ele>520.6</ele>
        <time>2019-07-08T09:27:13Z</time>
      </trkpt>
      <trkpt lat="39.8993160" lon="-4.1984180">
        <ele>521.0</ele>
        <time>2019-07-08T09:27:15Z</time>
      </trkpt>
      <trkpt lat="39.8992690" lon="-4.1986280">
        <ele>521.6</ele>
        <time>2019-07-08T09:27:21Z</time>
      </trkpt>
      <trkpt lat="39.8992090" lon="-4.1988940">
        <ele>521.6</ele>
        <time>2019-07-08T09:27:27Z</time>
      </trkpt>
      <trkpt lat="39.8990950" lon="-4.1993410">
        <ele>521.6</ele>
        <time>2019-07-08T09:27:36Z</time>
      </trkpt>
      <trkpt lat="39.8990680" lon="-4.1994400">
        <ele>521.8</ele>
        <time>2019-07-08T09:27:38Z</time>
      </trkpt>
      <trkpt lat="39.8990560" lon="-4.1994900">
        <ele>522.0</ele>
        <time>2019-07-08T09:27:39Z</time>
      </trkpt>
      <trkpt lat="39.8990030" lon="-4.1996920">
        <ele>522.0</ele>
        <time>2019-07-08T09:27:43Z</time>
      </trkpt>
      <trkpt lat="39.8989930" lon="-4.1997430">
        <ele>522.2</ele>
        <time>2019-07-08T09:27:44Z</time>
      </trkpt>
      <trkpt lat="39.8989720" lon="-4.1998470">
        <ele>522.0</ele>
        <time>2019-07-08T09:27:46Z</time>
      </trkpt>
      <trkpt lat="39.8989180" lon="-4.2001020">
        <ele>522.0</ele>
        <time>2019-07-08T09:27:51Z</time>
      </trkpt>
      <trkpt lat="39.8988850" lon="-4.2002680">
        <ele>522.6</ele>
        <time>2019-07-08T09:27:53Z</time>
      </trkpt>
      <trkpt lat="39.8987930" lon="-4.2006810">
        <ele>521.8</ele>
        <time>2019-07-08T09:27:59Z</time>
      </trkpt>
      <trkpt lat="39.8987700" lon="-4.2008030">
        <ele>521.4</ele>
        <time>2019-07-08T09:28:00Z</time>
      </trkpt>
      <trkpt lat="39.8987460" lon="-4.2009240">
        <ele>520.6</ele>
        <time>2019-07-08T09:28:02Z</time>
      </trkpt>
      <trkpt lat="39.8987070" lon="-4.2012410">
        <ele>520.0</ele>
        <time>2019-07-08T09:28:07Z</time>
      </trkpt>
      <trkpt lat="39.8987030" lon="-4.2014580">
        <ele>520.4</ele>
        <time>2019-07-08T09:28:10Z</time>
      </trkpt>
      <trkpt lat="39.8987250" lon="-4.2015890">
        <ele>520.4</ele>
        <time>2019-07-08T09:28:12Z</time>
      </trkpt>
      <trkpt lat="39.8987740" lon="-4.2017650">
        <ele>520.4</ele>
        <time>2019-07-08T09:28:15Z</time>
      </trkpt>
      <trkpt lat="39.8988510" lon="-4.2019490">
        <ele>520.4</ele>
        <time>2019-07-08T09:28:17Z</time>
      </trkpt>
      <trkpt lat="39.8988870" lon="-4.2020140">
        <ele>520.4</ele>
        <time>2019-07-08T09:28:18Z</time>
      </trkpt>
      <trkpt lat="39.8989660" lon="-4.2021430">
        <ele>519.0</ele>
        <time>2019-07-08T09:28:21Z</time>
      </trkpt>
      <trkpt lat="39.8990030" lon="-4.2022140">
        <ele>518.4</ele>
        <time>2019-07-08T09:28:22Z</time>
      </trkpt>
      <trkpt lat="39.8990650" lon="-4.2023970">
        <ele>517.6</ele>
        <time>2019-07-08T09:28:23Z</time>
      </trkpt>
      <trkpt lat="39.8990890" lon="-4.2025040">
        <ele>516.8</ele>
        <time>2019-07-08T09:28:24Z</time>
      </trkpt>
      <trkpt lat="39.8991020" lon="-4.2025600">
        <ele>516.0</ele>
        <time>2019-07-08T09:28:25Z</time>
      </trkpt>
      <trkpt lat="39.8991140" lon="-4.2026170">
        <ele>514.8</ele>
        <time>2019-07-08T09:28:26Z</time>
      </trkpt>
      <trkpt lat="39.8991370" lon="-4.2027330">
        <ele>513.8</ele>
        <time>2019-07-08T09:28:27Z</time>
      </trkpt>
      <trkpt lat="39.8991690" lon="-4.2029680">
        <ele>512.6</ele>
        <time>2019-07-08T09:28:28Z</time>
      </trkpt>
      <trkpt lat="39.8991810" lon="-4.2030830">
        <ele>511.4</ele>
        <time>2019-07-08T09:28:29Z</time>
      </trkpt>
      <trkpt lat="39.8991880" lon="-4.2031920">
        <ele>510.8</ele>
        <time>2019-07-08T09:28:30Z</time>
      </trkpt>
      <trkpt lat="39.8991950" lon="-4.2033890">
        <ele>510.6</ele>
        <time>2019-07-08T09:28:33Z</time>
      </trkpt>
      <trkpt lat="39.8992190" lon="-4.2036160">
        <ele>511.4</ele>
        <time>2019-07-08T09:28:35Z</time>
      </trkpt>
      <trkpt lat="39.8992270" lon="-4.2036770">
        <ele>512.2</ele>
        <time>2019-07-08T09:28:37Z</time>
      </trkpt>
      <trkpt lat="39.8992330" lon="-4.2037790">
        <ele>513.0</ele>
        <time>2019-07-08T09:28:39Z</time>
      </trkpt>
      <trkpt lat="39.8992370" lon="-4.2038200">
        <ele>513.4</ele>
        <time>2019-07-08T09:28:40Z</time>
      </trkpt>
      <trkpt lat="39.8992440" lon="-4.2038980">
        <ele>514.2</ele>
        <time>2019-07-08T09:28:42Z</time>
      </trkpt>
      <trkpt lat="39.8992490" lon="-4.2039800">
        <ele>515.0</ele>
        <time>2019-07-08T09:28:44Z</time>
      </trkpt>
      <trkpt lat="39.8992490" lon="-4.2040230">
        <ele>515.4</ele>
        <time>2019-07-08T09:28:45Z</time>
      </trkpt>
      <trkpt lat="39.8992460" lon="-4.2041570">
        <ele>516.4</ele>
        <time>2019-07-08T09:28:47Z</time>
      </trkpt>
      <trkpt lat="39.8992460" lon="-4.2041570">
        <ele>516.8</ele>
        <time>2019-07-08T09:28:48Z</time>
      </trkpt>
      <trkpt lat="39.8992500" lon="-4.2042530">
        <ele>517.2</ele>
        <time>2019-07-08T09:28:50Z</time>
      </trkpt>
      <trkpt lat="39.8992720" lon="-4.2045850">
        <ele>516.4</ele>
        <time>2019-07-08T09:28:55Z</time>
      </trkpt>
      <trkpt lat="39.8992890" lon="-4.2049380">
        <ele>515.8</ele>
        <time>2019-07-08T09:29:00Z</time>
      </trkpt>
      <trkpt lat="39.8992950" lon="-4.2052080">
        <ele>515.4</ele>
        <time>2019-07-08T09:29:04Z</time>
      </trkpt>
      <trkpt lat="39.8993150" lon="-4.2056000">
        <ele>515.2</ele>
        <time>2019-07-08T09:29:10Z</time>
      </trkpt>
      <trkpt lat="39.8993300" lon="-4.2058000">
        <ele>514.8</ele>
        <time>2019-07-08T09:29:13Z</time>
      </trkpt>
      <trkpt lat="39.8993440" lon="-4.2059370">
        <ele>514.6</ele>
        <time>2019-07-08T09:29:14Z</time>
      </trkpt>
      <trkpt lat="39.8993680" lon="-4.2061380">
        <ele>515.0</ele>
        <time>2019-07-08T09:29:17Z</time>
      </trkpt>
      <trkpt lat="39.8993680" lon="-4.2062060">
        <ele>514.8</ele>
        <time>2019-07-08T09:29:19Z</time>
      </trkpt>
      <trkpt lat="39.8993620" lon="-4.2063390">
        <ele>514.8</ele>
        <time>2019-07-08T09:29:21Z</time>
      </trkpt>
      <trkpt lat="39.8993520" lon="-4.2066880">
        <ele>515.2</ele>
        <time>2019-07-08T09:29:27Z</time>
      </trkpt>
      <trkpt lat="39.8993690" lon="-4.2068130">
        <ele>515.8</ele>
        <time>2019-07-08T09:29:30Z</time>
      </trkpt>
      <trkpt lat="39.8993880" lon="-4.2069230">
        <ele>516.6</ele>
        <time>2019-07-08T09:29:32Z</time>
      </trkpt>
      <trkpt lat="39.8994040" lon="-4.2069960">
        <ele>517.0</ele>
        <time>2019-07-08T09:29:34Z</time>
      </trkpt>
      <trkpt lat="39.8994240" lon="-4.2071050">
        <ele>518.2</ele>
        <time>2019-07-08T09:29:38Z</time>
      </trkpt>
      <trkpt lat="39.8994360" lon="-4.2072610">
        <ele>519.2</ele>
        <time>2019-07-08T09:29:41Z</time>
      </trkpt>
      <trkpt lat="39.8994360" lon="-4.2072610">
        <ele>519.4</ele>
        <time>2019-07-08T09:29:42Z</time>
      </trkpt>
      <trkpt lat="39.8994370" lon="-4.2073020">
        <ele>519.6</ele>
        <time>2019-07-08T09:29:43Z</time>
      </trkpt>
      <trkpt lat="39.8994260" lon="-4.2074680">
        <ele>519.8</ele>
        <time>2019-07-08T09:29:46Z</time>
      </trkpt>
      <trkpt lat="39.8994120" lon="-4.2076000">
        <ele>519.8</ele>
        <time>2019-07-08T09:29:50Z</time>
      </trkpt>
      <trkpt lat="39.8993980" lon="-4.2078950">
        <ele>520.4</ele>
        <time>2019-07-08T09:29:56Z</time>
      </trkpt>
      <trkpt lat="39.8993920" lon="-4.2080260">
        <ele>521.0</ele>
        <time>2019-07-08T09:30:00Z</time>
      </trkpt>
      <trkpt lat="39.8993840" lon="-4.2081980">
        <ele>521.4</ele>
        <time>2019-07-08T09:30:04Z</time>
      </trkpt>
      <trkpt lat="39.8993810" lon="-4.2082870">
        <ele>521.6</ele>
        <time>2019-07-08T09:30:05Z</time>
      </trkpt>
      <trkpt lat="39.8993720" lon="-4.2084190">
        <ele>522.0</ele>
        <time>2019-07-08T09:30:09Z</time>
      </trkpt>
      <trkpt lat="39.8993570" lon="-4.2085930">
        <ele>522.6</ele>
        <time>2019-07-08T09:30:13Z</time>
      </trkpt>
      <trkpt lat="39.8993250" lon="-4.2088460">
        <ele>523.8</ele>
        <time>2019-07-08T09:30:19Z</time>
      </trkpt>
      <trkpt lat="39.8992640" lon="-4.2092440">
        <ele>524.8</ele>
        <time>2019-07-08T09:30:28Z</time>
      </trkpt>
      <trkpt lat="39.8992590" lon="-4.2092840">
        <ele>525.4</ele>
        <time>2019-07-08T09:30:29Z</time>
      </trkpt>
      <trkpt lat="39.8992530" lon="-4.2093240">
        <ele>525.8</ele>
        <time>2019-07-08T09:30:31Z</time>
      </trkpt>
      <trkpt lat="39.8992170" lon="-4.2097740">
        <ele>527.0</ele>
        <time>2019-07-08T09:30:41Z</time>
      </trkpt>
      <trkpt lat="39.8992170" lon="-4.2098150">
        <ele>527.2</ele>
        <time>2019-07-08T09:30:42Z</time>
      </trkpt>
      <trkpt lat="39.8992140" lon="-4.2100090">
        <ele>528.2</ele>
        <time>2019-07-08T09:30:47Z</time>
      </trkpt>
      <trkpt lat="39.8992110" lon="-4.2101260">
        <ele>529.0</ele>
        <time>2019-07-08T09:30:50Z</time>
      </trkpt>
      <trkpt lat="39.8992110" lon="-4.2101260">
        <ele>529.4</ele>
        <time>2019-07-08T09:30:51Z</time>
      </trkpt>
      <trkpt lat="39.8991880" lon="-4.2103570">
        <ele>530.6</ele>
        <time>2019-07-08T09:30:56Z</time>
      </trkpt>
      <trkpt lat="39.8991740" lon="-4.2104680">
        <ele>531.6</ele>
        <time>2019-07-08T09:30:59Z</time>
      </trkpt>
      <trkpt lat="39.8991670" lon="-4.2105060">
        <ele>531.8</ele>
        <time>2019-07-08T09:31:00Z</time>
      </trkpt>
      <trkpt lat="39.8991400" lon="-4.2107010">
        <ele>533.0</ele>
        <time>2019-07-08T09:31:05Z</time>
      </trkpt>
      <trkpt lat="39.8991010" lon="-4.2108970">
        <ele>533.8</ele>
        <time>2019-07-08T09:31:10Z</time>
      </trkpt>
      <trkpt lat="39.8990700" lon="-4.2110540">
        <ele>534.0</ele>
        <time>2019-07-08T09:31:14Z</time>
      </trkpt>
      <trkpt lat="39.8990150" lon="-4.2112800">
        <ele>535.4</ele>
        <time>2019-07-08T09:31:20Z</time>
      </trkpt>
      <trkpt lat="39.8990150" lon="-4.2112800">
        <ele>535.6</ele>
        <time>2019-07-08T09:31:21Z</time>
      </trkpt>
      <trkpt lat="39.8989580" lon="-4.2115100">
        <ele>536.2</ele>
        <time>2019-07-08T09:31:27Z</time>
      </trkpt>
      <trkpt lat="39.8989350" lon="-4.2116270">
        <ele>536.4</ele>
        <time>2019-07-08T09:31:29Z</time>
      </trkpt>
      <trkpt lat="39.8989270" lon="-4.2116660">
        <ele>536.8</ele>
        <time>2019-07-08T09:31:31Z</time>
      </trkpt>
      <trkpt lat="39.8988820" lon="-4.2118530">
        <ele>537.4</ele>
        <time>2019-07-08T09:31:35Z</time>
      </trkpt>
      <trkpt lat="39.8988530" lon="-4.2119680">
        <ele>538.0</ele>
        <time>2019-07-08T09:31:38Z</time>
      </trkpt>
      <trkpt lat="39.8988130" lon="-4.2121300">
        <ele>538.8</ele>
        <time>2019-07-08T09:31:42Z</time>
      </trkpt>
      <trkpt lat="39.8987710" lon="-4.2123160">
        <ele>539.8</ele>
        <time>2019-07-08T09:31:47Z</time>
      </trkpt>
      <trkpt lat="39.8987630" lon="-4.2123540">
        <ele>539.8</ele>
        <time>2019-07-08T09:31:48Z</time>
      </trkpt>
      <trkpt lat="39.8986940" lon="-4.2126520">
        <ele>540.6</ele>
        <time>2019-07-08T09:31:56Z</time>
      </trkpt>
      <trkpt lat="39.8986180" lon="-4.2129560">
        <ele>540.0</ele>
        <time>2019-07-08T09:32:02Z</time>
      </trkpt>
      <trkpt lat="39.8985980" lon="-4.2130240">
        <ele>539.8</ele>
        <time>2019-07-08T09:32:03Z</time>
      </trkpt>
      <trkpt lat="39.8985600" lon="-4.2131550">
        <ele>539.2</ele>
        <time>2019-07-08T09:32:05Z</time>
      </trkpt>
      <trkpt lat="39.8985430" lon="-4.2132170">
        <ele>538.8</ele>
        <time>2019-07-08T09:32:06Z</time>
      </trkpt>
      <trkpt lat="39.8984880" lon="-4.2134160">
        <ele>536.8</ele>
        <time>2019-07-08T09:32:09Z</time>
      </trkpt>
      <trkpt lat="39.8984470" lon="-4.2135490">
        <ele>535.2</ele>
        <time>2019-07-08T09:32:11Z</time>
      </trkpt>
      <trkpt lat="39.8984090" lon="-4.2136950">
        <ele>533.8</ele>
        <time>2019-07-08T09:32:13Z</time>
      </trkpt>
      <trkpt lat="39.8983660" lon="-4.2138530">
        <ele>531.6</ele>
        <time>2019-07-08T09:32:15Z</time>
      </trkpt>
      <trkpt lat="39.8983400" lon="-4.2139320">
        <ele>529.4</ele>
        <time>2019-07-08T09:32:16Z</time>
      </trkpt>
      <trkpt lat="39.8983170" lon="-4.2140140">
        <ele>528.4</ele>
        <time>2019-07-08T09:32:17Z</time>
      </trkpt>
      <trkpt lat="39.8982820" lon="-4.2141830">
        <ele>526.8</ele>
        <time>2019-07-08T09:32:19Z</time>
      </trkpt>
      <trkpt lat="39.8982510" lon="-4.2143520">
        <ele>525.0</ele>
        <time>2019-07-08T09:32:21Z</time>
      </trkpt>
      <trkpt lat="39.8982420" lon="-4.2144400">
        <ele>524.4</ele>
        <time>2019-07-08T09:32:22Z</time>
      </trkpt>
      <trkpt lat="39.8982400" lon="-4.2145360">
        <ele>523.8</ele>
        <time>2019-07-08T09:32:23Z</time>
      </trkpt>
      <trkpt lat="39.8982550" lon="-4.2147540">
        <ele>522.4</ele>
        <time>2019-07-08T09:32:25Z</time>
      </trkpt>
      <trkpt lat="39.8982690" lon="-4.2148740">
        <ele>521.4</ele>
        <time>2019-07-08T09:32:26Z</time>
      </trkpt>
      <trkpt lat="39.8982850" lon="-4.2150010">
        <ele>520.0</ele>
        <time>2019-07-08T09:32:27Z</time>
      </trkpt>
      <trkpt lat="39.8983220" lon="-4.2152610">
        <ele>518.4</ele>
        <time>2019-07-08T09:32:29Z</time>
      </trkpt>
      <trkpt lat="39.8983620" lon="-4.2155260">
        <ele>516.6</ele>
        <time>2019-07-08T09:32:31Z</time>
      </trkpt>
      <trkpt lat="39.8983800" lon="-4.2156570">
        <ele>515.2</ele>
        <time>2019-07-08T09:32:32Z</time>
      </trkpt>
      <trkpt lat="39.8984160" lon="-4.2159220">
        <ele>514.0</ele>
        <time>2019-07-08T09:32:34Z</time>
      </trkpt>
      <trkpt lat="39.8984540" lon="-4.2161900">
        <ele>512.8</ele>
        <time>2019-07-08T09:32:36Z</time>
      </trkpt>
      <trkpt lat="39.8984910" lon="-4.2164560">
        <ele>511.2</ele>
        <time>2019-07-08T09:32:38Z</time>
      </trkpt>
      <trkpt lat="39.8985310" lon="-4.2167260">
        <ele>509.4</ele>
        <time>2019-07-08T09:32:40Z</time>
      </trkpt>
      <trkpt lat="39.8985680" lon="-4.2169970">
        <ele>507.0</ele>
        <time>2019-07-08T09:32:42Z</time>
      </trkpt>
      <trkpt lat="39.8985850" lon="-4.2171330">
        <ele>506.0</ele>
        <time>2019-07-08T09:32:43Z</time>
      </trkpt>
      <trkpt lat="39.8986030" lon="-4.2172690">
        <ele>505.4</ele>
        <time>2019-07-08T09:32:44Z</time>
      </trkpt>
      <trkpt lat="39.8986250" lon="-4.2174040">
        <ele>504.8</ele>
        <time>2019-07-08T09:32:45Z</time>
      </trkpt>
      <trkpt lat="39.8986720" lon="-4.2176690">
        <ele>503.6</ele>
        <time>2019-07-08T09:32:47Z</time>
      </trkpt>
      <trkpt lat="39.8987220" lon="-4.2179350">
        <ele>502.0</ele>
        <time>2019-07-08T09:32:49Z</time>
      </trkpt>
      <trkpt lat="39.8987690" lon="-4.2181970">
        <ele>500.8</ele>
        <time>2019-07-08T09:32:51Z</time>
      </trkpt>
      <trkpt lat="39.8988520" lon="-4.2185830">
        <ele>498.8</ele>
        <time>2019-07-08T09:32:54Z</time>
      </trkpt>
      <trkpt lat="39.8988790" lon="-4.2187110">
        <ele>497.6</ele>
        <time>2019-07-08T09:32:55Z</time>
      </trkpt>
      <trkpt lat="39.8989310" lon="-4.2189590">
        <ele>496.4</ele>
        <time>2019-07-08T09:32:57Z</time>
      </trkpt>
      <trkpt lat="39.8989570" lon="-4.2190800">
        <ele>496.0</ele>
        <time>2019-07-08T09:32:58Z</time>
      </trkpt>
      <trkpt lat="39.8989830" lon="-4.2191990">
        <ele>495.4</ele>
        <time>2019-07-08T09:32:59Z</time>
      </trkpt>
      <trkpt lat="39.8990750" lon="-4.2196640">
        <ele>494.0</ele>
        <time>2019-07-08T09:33:03Z</time>
      </trkpt>
      <trkpt lat="39.8991260" lon="-4.2200020">
        <ele>493.0</ele>
        <time>2019-07-08T09:33:06Z</time>
      </trkpt>
      <trkpt lat="39.8991320" lon="-4.2201140">
        <ele>493.0</ele>
        <time>2019-07-08T09:33:07Z</time>
      </trkpt>
      <trkpt lat="39.8991430" lon="-4.2204400">
        <ele>491.4</ele>
        <time>2019-07-08T09:33:10Z</time>
      </trkpt>
      <trkpt lat="39.8991480" lon="-4.2206490">
        <ele>490.2</ele>
        <time>2019-07-08T09:33:12Z</time>
      </trkpt>
      <trkpt lat="39.8991460" lon="-4.2210590">
        <ele>488.8</ele>
        <time>2019-07-08T09:33:16Z</time>
      </trkpt>
      <trkpt lat="39.8991440" lon="-4.2212600">
        <ele>487.6</ele>
        <time>2019-07-08T09:33:18Z</time>
      </trkpt>
      <trkpt lat="39.8991330" lon="-4.2215580">
        <ele>486.6</ele>
        <time>2019-07-08T09:33:21Z</time>
      </trkpt>
      <trkpt lat="39.8991340" lon="-4.2216580">
        <ele>485.8</ele>
        <time>2019-07-08T09:33:22Z</time>
      </trkpt>
      <trkpt lat="39.8991360" lon="-4.2217570">
        <ele>485.4</ele>
        <time>2019-07-08T09:33:23Z</time>
      </trkpt>
      <trkpt lat="39.8991280" lon="-4.2220570">
        <ele>484.0</ele>
        <time>2019-07-08T09:33:27Z</time>
      </trkpt>
      <trkpt lat="39.8991190" lon="-4.2223580">
        <ele>482.6</ele>
        <time>2019-07-08T09:33:29Z</time>
      </trkpt>
      <trkpt lat="39.8991000" lon="-4.2226580">
        <ele>481.4</ele>
        <time>2019-07-08T09:33:32Z</time>
      </trkpt>
      <trkpt lat="39.8990580" lon="-4.2231570">
        <ele>480.2</ele>
        <time>2019-07-08T09:33:37Z</time>
      </trkpt>
      <trkpt lat="39.8990260" lon="-4.2235610">
        <ele>478.6</ele>
        <time>2019-07-08T09:33:41Z</time>
      </trkpt>
      <trkpt lat="39.8990110" lon="-4.2237650">
        <ele>477.4</ele>
        <time>2019-07-08T09:33:43Z</time>
      </trkpt>
      <trkpt lat="39.8989770" lon="-4.2240730">
        <ele>476.6</ele>
        <time>2019-07-08T09:33:46Z</time>
      </trkpt>
      <trkpt lat="39.8989650" lon="-4.2241750">
        <ele>476.4</ele>
        <time>2019-07-08T09:33:47Z</time>
      </trkpt>
      <trkpt lat="39.8989420" lon="-4.2244820">
        <ele>475.6</ele>
        <time>2019-07-08T09:33:50Z</time>
      </trkpt>
      <trkpt lat="39.8989360" lon="-4.2245840">
        <ele>475.2</ele>
        <time>2019-07-08T09:33:51Z</time>
      </trkpt>
      <trkpt lat="39.8989110" lon="-4.2248840">
        <ele>474.6</ele>
        <time>2019-07-08T09:33:54Z</time>
      </trkpt>
      <trkpt lat="39.8989110" lon="-4.2248840">
        <ele>474.0</ele>
        <time>2019-07-08T09:33:55Z</time>
      </trkpt>
      <trkpt lat="39.8988760" lon="-4.2253770">
        <ele>473.2</ele>
        <time>2019-07-08T09:33:59Z</time>
      </trkpt>
      <trkpt lat="39.8988740" lon="-4.2254710">
        <ele>473.0</ele>
        <time>2019-07-08T09:34:00Z</time>
      </trkpt>
      <trkpt lat="39.8988830" lon="-4.2256490">
        <ele>472.0</ele>
        <time>2019-07-08T09:34:02Z</time>
      </trkpt>
      <trkpt lat="39.8988900" lon="-4.2256940">
        <ele>471.8</ele>
        <time>2019-07-08T09:34:03Z</time>
      </trkpt>
      <trkpt lat="39.8988960" lon="-4.2257390">
        <ele>471.6</ele>
        <time>2019-07-08T09:34:04Z</time>
      </trkpt>
      <trkpt lat="39.8989500" lon="-4.2260990">
        <ele>471.0</ele>
        <time>2019-07-08T09:34:08Z</time>
      </trkpt>
      <trkpt lat="39.8989470" lon="-4.2261410">
        <ele>470.8</ele>
        <time>2019-07-08T09:34:09Z</time>
      </trkpt>
      <trkpt lat="39.8989370" lon="-4.2261720">
        <ele>470.8</ele>
        <time>2019-07-08T09:34:10Z</time>
      </trkpt>
      <trkpt lat="39.8988990" lon="-4.2261940">
        <ele>470.6</ele>
        <time>2019-07-08T09:34:12Z</time>
      </trkpt>
      <trkpt lat="39.8987600" lon="-4.2262340">
        <ele>470.2</ele>
        <time>2019-07-08T09:34:17Z</time>
      </trkpt>
      <trkpt lat="39.8987310" lon="-4.2262610">
        <ele>470.0</ele>
        <time>2019-07-08T09:34:19Z</time>
      </trkpt>
      <trkpt lat="39.8986750" lon="-4.2263230">
        <ele>470.0</ele>
        <time>2019-07-08T09:34:20Z</time>
      </trkpt>
      <trkpt lat="39.8985710" lon="-4.2263940">
        <ele>470.0</ele>
        <time>2019-07-08T09:34:23Z</time>
      </trkpt>
      <trkpt lat="39.8983380" lon="-4.2265370">
        <ele>470.0</ele>
        <time>2019-07-08T09:34:30Z</time>
      </trkpt>
      <trkpt lat="39.8982270" lon="-4.2265200">
        <ele>469.8</ele>
        <time>2019-07-08T09:34:33Z</time>
      </trkpt>
      <trkpt lat="39.8981130" lon="-4.2265150">
        <ele>469.8</ele>
        <time>2019-07-08T09:34:36Z</time>
      </trkpt>
      <trkpt lat="39.8980350" lon="-4.2265280">
        <ele>469.8</ele>
        <time>2019-07-08T09:34:38Z</time>
      </trkpt>
      <trkpt lat="39.8978650" lon="-4.2265680">
        <ele>469.8</ele>
        <time>2019-07-08T09:34:42Z</time>
      </trkpt>
      <trkpt lat="39.8978210" lon="-4.2265800">
        <ele>469.8</ele>
        <time>2019-07-08T09:34:43Z</time>
      </trkpt>
      <trkpt lat="39.8977790" lon="-4.2265970">
        <ele>469.8</ele>
        <time>2019-07-08T09:34:44Z</time>
      </trkpt>
      <trkpt lat="39.8976600" lon="-4.2266500">
        <ele>469.6</ele>
        <time>2019-07-08T09:34:47Z</time>
      </trkpt>
      <trkpt lat="39.8974410" lon="-4.2267550">
        <ele>469.2</ele>
        <time>2019-07-08T09:34:53Z</time>
      </trkpt>
      <trkpt lat="39.8973990" lon="-4.2268110">
        <ele>469.2</ele>
        <time>2019-07-08T09:34:56Z</time>
      </trkpt>
      <trkpt lat="39.8973980" lon="-4.2268120">
        <ele>469.2</ele>
        <time>2019-07-08T09:34:57Z</time>
      </trkpt>
      <trkpt lat="39.8973970" lon="-4.2268130">
        <ele>469.2</ele>
        <time>2019-07-08T09:34:58Z</time>
      </trkpt>
      <trkpt lat="39.8973900" lon="-4.2268550">
        <ele>469.2</ele>
        <time>2019-07-08T09:35:56Z</time>
      </trkpt>
      <trkpt lat="39.8973950" lon="-4.2268820">
        <ele>469.2</ele>
        <time>2019-07-08T09:35:57Z</time>
      </trkpt>
      <trkpt lat="39.8973960" lon="-4.2269110">
        <ele>469.2</ele>
        <time>2019-07-08T09:35:58Z</time>
      </trkpt>
      <trkpt lat="39.8973940" lon="-4.2269370">
        <ele>469.2</ele>
        <time>2019-07-08T09:35:59Z</time>
      </trkpt>
      <trkpt lat="39.8973920" lon="-4.2269590">
        <ele>469.4</ele>
        <time>2019-07-08T09:36:01Z</time>
      </trkpt>
      <trkpt lat="39.8973930" lon="-4.2269600">
        <ele>469.4</ele>
        <time>2019-07-08T09:36:02Z</time>
      </trkpt>
      <trkpt lat="39.8973980" lon="-4.2270070">
        <ele>468.8</ele>
        <time>2019-07-08T09:38:57Z</time>
      </trkpt>
      <trkpt lat="39.8974290" lon="-4.2270760">
        <ele>468.8</ele>
        <time>2019-07-08T09:39:00Z</time>
      </trkpt>
      <trkpt lat="39.8974560" lon="-4.2271830">
        <ele>469.0</ele>
        <time>2019-07-08T09:39:03Z</time>
      </trkpt>
      <trkpt lat="39.8974600" lon="-4.2272230">
        <ele>469.0</ele>
        <time>2019-07-08T09:39:04Z</time>
      </trkpt>
      <trkpt lat="39.8974670" lon="-4.2273050">
        <ele>469.2</ele>
        <time>2019-07-08T09:39:06Z</time>
      </trkpt>
      <trkpt lat="39.8975070" lon="-4.2275720">
        <ele>469.8</ele>
        <time>2019-07-08T09:39:13Z</time>
      </trkpt>
      <trkpt lat="39.8975090" lon="-4.2276080">
        <ele>470.0</ele>
        <time>2019-07-08T09:39:14Z</time>
      </trkpt>
      <trkpt lat="39.8974780" lon="-4.2277740">
        <ele>470.8</ele>
        <time>2019-07-08T09:39:19Z</time>
      </trkpt>
      <trkpt lat="39.8974680" lon="-4.2278050">
        <ele>471.0</ele>
        <time>2019-07-08T09:39:20Z</time>
      </trkpt>
      <trkpt lat="39.8974450" lon="-4.2278590">
        <ele>471.2</ele>
        <time>2019-07-08T09:39:22Z</time>
      </trkpt>
      <trkpt lat="39.8973840" lon="-4.2279180">
        <ele>471.4</ele>
        <time>2019-07-08T09:39:25Z</time>
      </trkpt>
      <trkpt lat="39.8972700" lon="-4.2280240">
        <ele>471.4</ele>
        <time>2019-07-08T09:39:30Z</time>
      </trkpt>
      <trkpt lat="39.8972640" lon="-4.2280910">
        <ele>471.2</ele>
        <time>2019-07-08T09:39:34Z</time>
      </trkpt>
      <trkpt lat="39.8972620" lon="-4.2280950">
        <ele>471.2</ele>
        <time>2019-07-08T09:39:35Z</time>
      </trkpt>
      <trkpt lat="39.8971880" lon="-4.2281000">
        <ele>471.0</ele>
        <time>2019-07-08T09:39:57Z</time>
      </trkpt>
      <trkpt lat="39.8971730" lon="-4.2281110">
        <ele>471.0</ele>
        <time>2019-07-08T09:39:58Z</time>
      </trkpt>
      <trkpt lat="39.8971570" lon="-4.2281240">
        <ele>471.0</ele>
        <time>2019-07-08T09:39:59Z</time>
      </trkpt>
      <trkpt lat="39.8971240" lon="-4.2281530">
        <ele>470.6</ele>
        <time>2019-07-08T09:40:04Z</time>
      </trkpt>
      <trkpt lat="39.8970780" lon="-4.2281940">
        <ele>470.4</ele>
        <time>2019-07-08T09:40:15Z</time>
      </trkpt>
      <trkpt lat="39.8970280" lon="-4.2282310">
        <ele>470.4</ele>
        <time>2019-07-08T09:40:18Z</time>
      </trkpt>
      <trkpt lat="39.8968980" lon="-4.2283230">
        <ele>470.2</ele>
        <time>2019-07-08T09:40:23Z</time>
      </trkpt>
      <trkpt lat="39.8967560" lon="-4.2283980">
        <ele>469.8</ele>
        <time>2019-07-08T09:40:27Z</time>
      </trkpt>
      <trkpt lat="39.8967200" lon="-4.2284330">
        <ele>469.8</ele>
        <time>2019-07-08T09:40:28Z</time>
      </trkpt>
      <trkpt lat="39.8966440" lon="-4.2284950">
        <ele>469.4</ele>
        <time>2019-07-08T09:40:30Z</time>
      </trkpt>
      <trkpt lat="39.8964780" lon="-4.2286220">
        <ele>468.8</ele>
        <time>2019-07-08T09:40:34Z</time>
      </trkpt>
      <trkpt lat="39.8963120" lon="-4.2287460">
        <ele>468.6</ele>
        <time>2019-07-08T09:40:38Z</time>
      </trkpt>
      <trkpt lat="39.8962400" lon="-4.2288060">
        <ele>468.4</ele>
        <time>2019-07-08T09:40:40Z</time>
      </trkpt>
      <trkpt lat="39.8959740" lon="-4.2289240">
        <ele>468.4</ele>
        <time>2019-07-08T09:40:46Z</time>
      </trkpt>
      <trkpt lat="39.8958340" lon="-4.2289800">
        <ele>468.0</ele>
        <time>2019-07-08T09:40:49Z</time>
      </trkpt>
      <trkpt lat="39.8956460" lon="-4.2290580">
        <ele>467.8</ele>
        <time>2019-07-08T09:40:53Z</time>
      </trkpt>
      <trkpt lat="39.8954620" lon="-4.2291360">
        <ele>468.2</ele>
        <time>2019-07-08T09:40:57Z</time>
      </trkpt>
      <trkpt lat="39.8952780" lon="-4.2292320">
        <ele>468.0</ele>
        <time>2019-07-08T09:41:01Z</time>
      </trkpt>
      <trkpt lat="39.8952310" lon="-4.2292590">
        <ele>467.8</ele>
        <time>2019-07-08T09:41:02Z</time>
      </trkpt>
      <trkpt lat="39.8949000" lon="-4.2294440">
        <ele>467.8</ele>
        <time>2019-07-08T09:41:09Z</time>
      </trkpt>
      <trkpt lat="39.8947560" lon="-4.2295280">
        <ele>467.6</ele>
        <time>2019-07-08T09:41:12Z</time>
      </trkpt>
      <trkpt lat="39.8944630" lon="-4.2296990">
        <ele>467.6</ele>
        <time>2019-07-08T09:41:18Z</time>
      </trkpt>
      <trkpt lat="39.8942630" lon="-4.2297940">
        <ele>467.2</ele>
        <time>2019-07-08T09:41:22Z</time>
      </trkpt>
      <trkpt lat="39.8940560" lon="-4.2298530">
        <ele>466.8</ele>
        <time>2019-07-08T09:41:26Z</time>
      </trkpt>
      <trkpt lat="39.8938080" lon="-4.2299200">
        <ele>467.0</ele>
        <time>2019-07-08T09:41:32Z</time>
      </trkpt>
      <trkpt lat="39.8937840" lon="-4.2299240">
        <ele>467.2</ele>
        <time>2019-07-08T09:41:36Z</time>
      </trkpt>
      <trkpt lat="39.8937610" lon="-4.2299300">
        <ele>467.4</ele>
        <time>2019-07-08T09:41:50Z</time>
      </trkpt>
      <trkpt lat="39.8937420" lon="-4.2299310">
        <ele>467.4</ele>
        <time>2019-07-08T09:41:51Z</time>
      </trkpt>
      <trkpt lat="39.8937220" lon="-4.2299330">
        <ele>467.4</ele>
        <time>2019-07-08T09:41:52Z</time>
      </trkpt>
      <trkpt lat="39.8935780" lon="-4.2300110">
        <ele>468.0</ele>
        <time>2019-07-08T09:41:58Z</time>
      </trkpt>
      <trkpt lat="39.8935490" lon="-4.2300300">
        <ele>468.2</ele>
        <time>2019-07-08T09:41:59Z</time>
      </trkpt>
      <trkpt lat="39.8933340" lon="-4.2301940">
        <ele>468.6</ele>
        <time>2019-07-08T09:42:06Z</time>
      </trkpt>
      <trkpt lat="39.8932270" lon="-4.2303370">
        <ele>469.0</ele>
        <time>2019-07-08T09:42:10Z</time>
      </trkpt>
      <trkpt lat="39.8931780" lon="-4.2304160">
        <ele>469.2</ele>
        <time>2019-07-08T09:42:12Z</time>
      </trkpt>
      <trkpt lat="39.8931310" lon="-4.2305000">
        <ele>469.6</ele>
        <time>2019-07-08T09:42:14Z</time>
      </trkpt>
      <trkpt lat="39.8930600" lon="-4.2306250">
        <ele>470.0</ele>
        <time>2019-07-08T09:42:17Z</time>
      </trkpt>
      <trkpt lat="39.8929950" lon="-4.2307570">
        <ele>470.2</ele>
        <time>2019-07-08T09:42:20Z</time>
      </trkpt>
      <trkpt lat="39.8929300" lon="-4.2308880">
        <ele>470.4</ele>
        <time>2019-07-08T09:42:23Z</time>
      </trkpt>
      <trkpt lat="39.8928620" lon="-4.2310170">
        <ele>470.6</ele>
        <time>2019-07-08T09:42:26Z</time>
      </trkpt>
      <trkpt lat="39.8927330" lon="-4.2312850">
        <ele>471.6</ele>
        <time>2019-07-08T09:42:32Z</time>
      </trkpt>
      <trkpt lat="39.8926010" lon="-4.2315570">
        <ele>472.2</ele>
        <time>2019-07-08T09:42:38Z</time>
      </trkpt>
      <trkpt lat="39.8925550" lon="-4.2316490">
        <ele>472.6</ele>
        <time>2019-07-08T09:42:40Z</time>
      </trkpt>
      <trkpt lat="39.8923850" lon="-4.2319940">
        <ele>473.6</ele>
        <time>2019-07-08T09:42:48Z</time>
      </trkpt>
      <trkpt lat="39.8922370" lon="-4.2323480">
        <ele>474.6</ele>
        <time>2019-07-08T09:42:56Z</time>
      </trkpt>
      <trkpt lat="39.8922230" lon="-4.2323950">
        <ele>474.6</ele>
        <time>2019-07-08T09:42:57Z</time>
      </trkpt>
      <trkpt lat="39.8920920" lon="-4.2327610">
        <ele>475.2</ele>
        <time>2019-07-08T09:43:05Z</time>
      </trkpt>
      <trkpt lat="39.8920420" lon="-4.2328950">
        <ele>475.8</ele>
        <time>2019-07-08T09:43:08Z</time>
      </trkpt>
      <trkpt lat="39.8919690" lon="-4.2331200">
        <ele>476.2</ele>
        <time>2019-07-08T09:43:13Z</time>
      </trkpt>
      <trkpt lat="39.8919110" lon="-4.2333480">
        <ele>477.0</ele>
        <time>2019-07-08T09:43:18Z</time>
      </trkpt>
      <trkpt lat="39.8918930" lon="-4.2334960">
        <ele>477.4</ele>
        <time>2019-07-08T09:43:21Z</time>
      </trkpt>
      <trkpt lat="39.8918720" lon="-4.2336940">
        <ele>478.0</ele>
        <time>2019-07-08T09:43:25Z</time>
      </trkpt>
      <trkpt lat="39.8918550" lon="-4.2338840">
        <ele>478.6</ele>
        <time>2019-07-08T09:43:29Z</time>
      </trkpt>
      <trkpt lat="39.8918540" lon="-4.2340300">
        <ele>479.2</ele>
        <time>2019-07-08T09:43:32Z</time>
      </trkpt>
      <trkpt lat="39.8918520" lon="-4.2342790">
        <ele>479.8</ele>
        <time>2019-07-08T09:43:37Z</time>
      </trkpt>
      <trkpt lat="39.8918510" lon="-4.2344220">
        <ele>480.2</ele>
        <time>2019-07-08T09:43:40Z</time>
      </trkpt>
      <trkpt lat="39.8918560" lon="-4.2347530">
        <ele>481.4</ele>
        <time>2019-07-08T09:43:47Z</time>
      </trkpt>
      <trkpt lat="39.8919610" lon="-4.2351090">
        <ele>482.4</ele>
        <time>2019-07-08T09:43:55Z</time>
      </trkpt>
      <trkpt lat="39.8919780" lon="-4.2351520">
        <ele>482.4</ele>
        <time>2019-07-08T09:43:56Z</time>
      </trkpt>
      <trkpt lat="39.8921020" lon="-4.2353960">
        <ele>483.2</ele>
        <time>2019-07-08T09:44:02Z</time>
      </trkpt>
      <trkpt lat="39.8922190" lon="-4.2356340">
        <ele>483.6</ele>
        <time>2019-07-08T09:44:08Z</time>
      </trkpt>
      <trkpt lat="39.8922760" lon="-4.2357520">
        <ele>484.0</ele>
        <time>2019-07-08T09:44:11Z</time>
      </trkpt>
      <trkpt lat="39.8923300" lon="-4.2358740">
        <ele>485.0</ele>
        <time>2019-07-08T09:44:14Z</time>
      </trkpt>
      <trkpt lat="39.8924130" lon="-4.2360790">
        <ele>486.0</ele>
        <time>2019-07-08T09:44:19Z</time>
      </trkpt>
      <trkpt lat="39.8924740" lon="-4.2363380">
        <ele>487.2</ele>
        <time>2019-07-08T09:44:25Z</time>
      </trkpt>
      <trkpt lat="39.8924930" lon="-4.2364260">
        <ele>487.6</ele>
        <time>2019-07-08T09:44:27Z</time>
      </trkpt>
      <trkpt lat="39.8925220" lon="-4.2366500">
        <ele>488.2</ele>
        <time>2019-07-08T09:44:32Z</time>
      </trkpt>
      <trkpt lat="39.8925370" lon="-4.2367910">
        <ele>488.6</ele>
        <time>2019-07-08T09:44:35Z</time>
      </trkpt>
      <trkpt lat="39.8925600" lon="-4.2369690">
        <ele>489.4</ele>
        <time>2019-07-08T09:44:39Z</time>
      </trkpt>
      <trkpt lat="39.8925740" lon="-4.2371510">
        <ele>490.4</ele>
        <time>2019-07-08T09:44:43Z</time>
      </trkpt>
      <trkpt lat="39.8926240" lon="-4.2374670">
        <ele>491.6</ele>
        <time>2019-07-08T09:44:50Z</time>
      </trkpt>
      <trkpt lat="39.8926320" lon="-4.2375130">
        <ele>491.8</ele>
        <time>2019-07-08T09:44:51Z</time>
      </trkpt>
      <trkpt lat="39.8927090" lon="-4.2378360">
        <ele>492.8</ele>
        <time>2019-07-08T09:44:58Z</time>
      </trkpt>
      <trkpt lat="39.8927260" lon="-4.2378820">
        <ele>492.8</ele>
        <time>2019-07-08T09:44:59Z</time>
      </trkpt>
      <trkpt lat="39.8928300" lon="-4.2381410">
        <ele>493.8</ele>
        <time>2019-07-08T09:45:05Z</time>
      </trkpt>
      <trkpt lat="39.8928800" lon="-4.2382780">
        <ele>494.0</ele>
        <time>2019-07-08T09:45:08Z</time>
      </trkpt>
      <trkpt lat="39.8929940" lon="-4.2385960">
        <ele>495.0</ele>
        <time>2019-07-08T09:45:15Z</time>
      </trkpt>
      <trkpt lat="39.8930230" lon="-4.2386870">
        <ele>495.6</ele>
        <time>2019-07-08T09:45:17Z</time>
      </trkpt>
      <trkpt lat="39.8930490" lon="-4.2387770">
        <ele>496.0</ele>
        <time>2019-07-08T09:45:19Z</time>
      </trkpt>
      <trkpt lat="39.8931310" lon="-4.2390400">
        <ele>497.0</ele>
        <time>2019-07-08T09:45:25Z</time>
      </trkpt>
      <trkpt lat="39.8931380" lon="-4.2390870">
        <ele>497.2</ele>
        <time>2019-07-08T09:45:26Z</time>
      </trkpt>
      <trkpt lat="39.8931360" lon="-4.2393700">
        <ele>498.2</ele>
        <time>2019-07-08T09:45:32Z</time>
      </trkpt>
      <trkpt lat="39.8931300" lon="-4.2394170">
        <ele>498.4</ele>
        <time>2019-07-08T09:45:33Z</time>
      </trkpt>
      <trkpt lat="39.8930640" lon="-4.2396830">
        <ele>499.4</ele>
        <time>2019-07-08T09:45:39Z</time>
      </trkpt>
      <trkpt lat="39.8929520" lon="-4.2399230">
        <ele>500.4</ele>
        <time>2019-07-08T09:45:45Z</time>
      </trkpt>
      <trkpt lat="39.8929120" lon="-4.2399930">
        <ele>500.8</ele>
        <time>2019-07-08T09:45:47Z</time>
      </trkpt>
      <trkpt lat="39.8928400" lon="-4.2401280">
        <ele>501.4</ele>
        <time>2019-07-08T09:45:51Z</time>
      </trkpt>
      <trkpt lat="39.8927880" lon="-4.2402310">
        <ele>502.2</ele>
        <time>2019-07-08T09:45:54Z</time>
      </trkpt>
      <trkpt lat="39.8927500" lon="-4.2402950">
        <ele>502.6</ele>
        <time>2019-07-08T09:45:56Z</time>
      </trkpt>
      <trkpt lat="39.8926530" lon="-4.2404510">
        <ele>503.6</ele>
        <time>2019-07-08T09:46:01Z</time>
      </trkpt>
      <trkpt lat="39.8925980" lon="-4.2405490">
        <ele>504.2</ele>
        <time>2019-07-08T09:46:04Z</time>
      </trkpt>
      <trkpt lat="39.8925670" lon="-4.2406180">
        <ele>504.8</ele>
        <time>2019-07-08T09:46:06Z</time>
      </trkpt>
      <trkpt lat="39.8924860" lon="-4.2407390">
        <ele>506.2</ele>
        <time>2019-07-08T09:46:10Z</time>
      </trkpt>
      <trkpt lat="39.8924330" lon="-4.2408780">
        <ele>507.2</ele>
        <time>2019-07-08T09:46:14Z</time>
      </trkpt>
      <trkpt lat="39.8923990" lon="-4.2409410">
        <ele>507.6</ele>
        <time>2019-07-08T09:46:16Z</time>
      </trkpt>
      <trkpt lat="39.8923690" lon="-4.2410100">
        <ele>508.2</ele>
        <time>2019-07-08T09:46:18Z</time>
      </trkpt>
      <trkpt lat="39.8922810" lon="-4.2411680">
        <ele>509.6</ele>
        <time>2019-07-08T09:46:23Z</time>
      </trkpt>
      <trkpt lat="39.8922700" lon="-4.2412020">
        <ele>509.8</ele>
        <time>2019-07-08T09:46:24Z</time>
      </trkpt>
      <trkpt lat="39.8922140" lon="-4.2413340">
        <ele>510.6</ele>
        <time>2019-07-08T09:46:28Z</time>
      </trkpt>
      <trkpt lat="39.8921990" lon="-4.2413640">
        <ele>511.0</ele>
        <time>2019-07-08T09:46:29Z</time>
      </trkpt>
      <trkpt lat="39.8921520" lon="-4.2414490">
        <ele>511.8</ele>
        <time>2019-07-08T09:46:32Z</time>
      </trkpt>
      <trkpt lat="39.8920980" lon="-4.2416110">
        <ele>512.8</ele>
        <time>2019-07-08T09:46:37Z</time>
      </trkpt>
      <trkpt lat="39.8920180" lon="-4.2418060">
        <ele>514.0</ele>
        <time>2019-07-08T09:46:43Z</time>
      </trkpt>
      <trkpt lat="39.8919810" lon="-4.2419060">
        <ele>514.4</ele>
        <time>2019-07-08T09:46:46Z</time>
      </trkpt>
      <trkpt lat="39.8919200" lon="-4.2420780">
        <ele>515.0</ele>
        <time>2019-07-08T09:46:51Z</time>
      </trkpt>
      <trkpt lat="39.8918710" lon="-4.2422080">
        <ele>515.8</ele>
        <time>2019-07-08T09:46:55Z</time>
      </trkpt>
      <trkpt lat="39.8918430" lon="-4.2422680">
        <ele>516.0</ele>
        <time>2019-07-08T09:46:57Z</time>
      </trkpt>
      <trkpt lat="39.8917900" lon="-4.2423920">
        <ele>516.8</ele>
        <time>2019-07-08T09:47:01Z</time>
      </trkpt>
      <trkpt lat="39.8917680" lon="-4.2424610">
        <ele>517.2</ele>
        <time>2019-07-08T09:47:03Z</time>
      </trkpt>
      <trkpt lat="39.8917060" lon="-4.2426300">
        <ele>518.4</ele>
        <time>2019-07-08T09:47:08Z</time>
      </trkpt>
      <trkpt lat="39.8916160" lon="-4.2428660">
        <ele>519.6</ele>
        <time>2019-07-08T09:47:15Z</time>
      </trkpt>
      <trkpt lat="39.8915650" lon="-4.2430020">
        <ele>520.6</ele>
        <time>2019-07-08T09:47:19Z</time>
      </trkpt>
      <trkpt lat="39.8915160" lon="-4.2431370">
        <ele>521.6</ele>
        <time>2019-07-08T09:47:23Z</time>
      </trkpt>
      <trkpt lat="39.8915060" lon="-4.2431710">
        <ele>521.8</ele>
        <time>2019-07-08T09:47:24Z</time>
      </trkpt>
      <trkpt lat="39.8914400" lon="-4.2433350">
        <ele>522.8</ele>
        <time>2019-07-08T09:47:29Z</time>
      </trkpt>
      <trkpt lat="39.8913970" lon="-4.2434360">
        <ele>523.2</ele>
        <time>2019-07-08T09:47:32Z</time>
      </trkpt>
      <trkpt lat="39.8913590" lon="-4.2435400">
        <ele>523.8</ele>
        <time>2019-07-08T09:47:35Z</time>
      </trkpt>
      <trkpt lat="39.8912640" lon="-4.2437990">
        <ele>524.8</ele>
        <time>2019-07-08T09:47:42Z</time>
      </trkpt>
      <trkpt lat="39.8912490" lon="-4.2438360">
        <ele>524.8</ele>
        <time>2019-07-08T09:47:43Z</time>
      </trkpt>
      <trkpt lat="39.8911710" lon="-4.2440600">
        <ele>526.0</ele>
        <time>2019-07-08T09:47:49Z</time>
      </trkpt>
      <trkpt lat="39.8911350" lon="-4.2441690">
        <ele>526.4</ele>
        <time>2019-07-08T09:47:52Z</time>
      </trkpt>
      <trkpt lat="39.8911100" lon="-4.2442410">
        <ele>527.0</ele>
        <time>2019-07-08T09:47:54Z</time>
      </trkpt>
      <trkpt lat="39.8910680" lon="-4.2443960">
        <ele>528.0</ele>
        <time>2019-07-08T09:47:58Z</time>
      </trkpt>
      <trkpt lat="39.8910380" lon="-4.2445110">
        <ele>528.8</ele>
        <time>2019-07-08T09:48:01Z</time>
      </trkpt>
      <trkpt lat="39.8910280" lon="-4.2445490">
        <ele>529.0</ele>
        <time>2019-07-08T09:48:02Z</time>
      </trkpt>
      <trkpt lat="39.8909730" lon="-4.2447430">
        <ele>530.2</ele>
        <time>2019-07-08T09:48:07Z</time>
      </trkpt>
      <trkpt lat="39.8909520" lon="-4.2448240">
        <ele>530.6</ele>
        <time>2019-07-08T09:48:09Z</time>
      </trkpt>
      <trkpt lat="39.8909040" lon="-4.2449890">
        <ele>531.4</ele>
        <time>2019-07-08T09:48:13Z</time>
      </trkpt>
      <trkpt lat="39.8908470" lon="-4.2452070">
        <ele>532.2</ele>
        <time>2019-07-08T09:48:18Z</time>
      </trkpt>
      <trkpt lat="39.8908270" lon="-4.2452940">
        <ele>532.4</ele>
        <time>2019-07-08T09:48:20Z</time>
      </trkpt>
      <trkpt lat="39.8907580" lon="-4.2455980">
        <ele>533.2</ele>
        <time>2019-07-08T09:48:27Z</time>
      </trkpt>
      <trkpt lat="39.8907490" lon="-4.2456420">
        <ele>533.4</ele>
        <time>2019-07-08T09:48:28Z</time>
      </trkpt>
      <trkpt lat="39.8906840" lon="-4.2458950">
        <ele>534.2</ele>
        <time>2019-07-08T09:48:34Z</time>
      </trkpt>
      <trkpt lat="39.8906570" lon="-4.2460240">
        <ele>534.6</ele>
        <time>2019-07-08T09:48:37Z</time>
      </trkpt>
      <trkpt lat="39.8906020" lon="-4.2462240">
        <ele>535.6</ele>
        <time>2019-07-08T09:48:42Z</time>
      </trkpt>
      <trkpt lat="39.8905880" lon="-4.2462640">
        <ele>535.8</ele>
        <time>2019-07-08T09:48:43Z</time>
      </trkpt>
      <trkpt lat="39.8905390" lon="-4.2464200">
        <ele>536.6</ele>
        <time>2019-07-08T09:48:47Z</time>
      </trkpt>
      <trkpt lat="39.8905250" lon="-4.2464560">
        <ele>537.0</ele>
        <time>2019-07-08T09:48:48Z</time>
      </trkpt>
      <trkpt lat="39.8904560" lon="-4.2465820">
        <ele>538.2</ele>
        <time>2019-07-08T09:48:52Z</time>
      </trkpt>
      <trkpt lat="39.8904360" lon="-4.2466090">
        <ele>538.6</ele>
        <time>2019-07-08T09:48:53Z</time>
      </trkpt>
      <trkpt lat="39.8903830" lon="-4.2466920">
        <ele>539.4</ele>
        <time>2019-07-08T09:48:56Z</time>
      </trkpt>
      <trkpt lat="39.8903290" lon="-4.2467770">
        <ele>540.4</ele>
        <time>2019-07-08T09:48:59Z</time>
      </trkpt>
      <trkpt lat="39.8903090" lon="-4.2468030">
        <ele>540.8</ele>
        <time>2019-07-08T09:49:00Z</time>
      </trkpt>
      <trkpt lat="39.8902860" lon="-4.2468250">
        <ele>541.0</ele>
        <time>2019-07-08T09:49:01Z</time>
      </trkpt>
      <trkpt lat="39.8902140" lon="-4.2468790">
        <ele>542.0</ele>
        <time>2019-07-08T09:49:04Z</time>
      </trkpt>
      <trkpt lat="39.8901500" lon="-4.2469410">
        <ele>543.4</ele>
        <time>2019-07-08T09:49:07Z</time>
      </trkpt>
      <trkpt lat="39.8901260" lon="-4.2469620">
        <ele>543.8</ele>
        <time>2019-07-08T09:49:08Z</time>
      </trkpt>
      <trkpt lat="39.8900570" lon="-4.2470220">
        <ele>544.6</ele>
        <time>2019-07-08T09:49:11Z</time>
      </trkpt>
      <trkpt lat="39.8899820" lon="-4.2471190">
        <ele>545.8</ele>
        <time>2019-07-08T09:49:15Z</time>
      </trkpt>
      <trkpt lat="39.8899640" lon="-4.2471530">
        <ele>546.0</ele>
        <time>2019-07-08T09:49:16Z</time>
      </trkpt>
      <trkpt lat="39.8899080" lon="-4.2473180">
        <ele>546.6</ele>
        <time>2019-07-08T09:49:20Z</time>
      </trkpt>
      <trkpt lat="39.8898820" lon="-4.2474700">
        <ele>546.8</ele>
        <time>2019-07-08T09:49:23Z</time>
      </trkpt>
      <trkpt lat="39.8898710" lon="-4.2476410">
        <ele>546.8</ele>
        <time>2019-07-08T09:49:26Z</time>
      </trkpt>
      <trkpt lat="39.8898890" lon="-4.2478230">
        <ele>546.4</ele>
        <time>2019-07-08T09:49:29Z</time>
      </trkpt>
      <trkpt lat="39.8900030" lon="-4.2482370">
        <ele>545.4</ele>
        <time>2019-07-08T09:49:35Z</time>
      </trkpt>
      <trkpt lat="39.8900710" lon="-4.2484890">
        <ele>544.6</ele>
        <time>2019-07-08T09:49:38Z</time>
      </trkpt>
      <trkpt lat="39.8900970" lon="-4.2486810">
        <ele>543.6</ele>
        <time>2019-07-08T09:49:40Z</time>
      </trkpt>
      <trkpt lat="39.8900990" lon="-4.2487820">
        <ele>543.4</ele>
        <time>2019-07-08T09:49:41Z</time>
      </trkpt>
      <trkpt lat="39.8900700" lon="-4.2489750">
        <ele>542.8</ele>
        <time>2019-07-08T09:49:43Z</time>
      </trkpt>
      <trkpt lat="39.8900080" lon="-4.2491360">
        <ele>542.2</ele>
        <time>2019-07-08T09:49:45Z</time>
      </trkpt>
      <trkpt lat="39.8899320" lon="-4.2492610">
        <ele>542.0</ele>
        <time>2019-07-08T09:49:47Z</time>
      </trkpt>
      <trkpt lat="39.8898940" lon="-4.2493110">
        <ele>542.2</ele>
        <time>2019-07-08T09:49:48Z</time>
      </trkpt>
      <trkpt lat="39.8897900" lon="-4.2494320">
        <ele>542.6</ele>
        <time>2019-07-08T09:49:51Z</time>
      </trkpt>
      <trkpt lat="39.8897610" lon="-4.2494670">
        <ele>542.6</ele>
        <time>2019-07-08T09:49:52Z</time>
      </trkpt>
      <trkpt lat="39.8897080" lon="-4.2495420">
        <ele>543.2</ele>
        <time>2019-07-08T09:49:54Z</time>
      </trkpt>
      <trkpt lat="39.8896560" lon="-4.2496300">
        <ele>543.6</ele>
        <time>2019-07-08T09:49:56Z</time>
      </trkpt>
      <trkpt lat="39.8896140" lon="-4.2497450">
        <ele>543.6</ele>
        <time>2019-07-08T09:49:58Z</time>
      </trkpt>
      <trkpt lat="39.8895610" lon="-4.2500650">
        <ele>542.6</ele>
        <time>2019-07-08T09:50:02Z</time>
      </trkpt>
      <trkpt lat="39.8895490" lon="-4.2502630">
        <ele>541.8</ele>
        <time>2019-07-08T09:50:04Z</time>
      </trkpt>
      <trkpt lat="39.8895340" lon="-4.2505680">
        <ele>540.4</ele>
        <time>2019-07-08T09:50:07Z</time>
      </trkpt>
      <trkpt lat="39.8895320" lon="-4.2506670">
        <ele>540.2</ele>
        <time>2019-07-08T09:50:08Z</time>
      </trkpt>
      <trkpt lat="39.8895410" lon="-4.2510330">
        <ele>539.2</ele>
        <time>2019-07-08T09:50:12Z</time>
      </trkpt>
      <trkpt lat="39.8895360" lon="-4.2511880">
        <ele>539.0</ele>
        <time>2019-07-08T09:50:14Z</time>
      </trkpt>
      <trkpt lat="39.8895040" lon="-4.2514580">
        <ele>539.0</ele>
        <time>2019-07-08T09:50:18Z</time>
      </trkpt>
      <trkpt lat="39.8894660" lon="-4.2515960">
        <ele>539.0</ele>
        <time>2019-07-08T09:50:20Z</time>
      </trkpt>
      <trkpt lat="39.8893410" lon="-4.2518810">
        <ele>538.4</ele>
        <time>2019-07-08T09:50:24Z</time>
      </trkpt>
      <trkpt lat="39.8892990" lon="-4.2519460">
        <ele>538.2</ele>
        <time>2019-07-08T09:50:25Z</time>
      </trkpt>
      <trkpt lat="39.8892140" lon="-4.2520680">
        <ele>537.6</ele>
        <time>2019-07-08T09:50:27Z</time>
      </trkpt>
      <trkpt lat="39.8891370" lon="-4.2521830">
        <ele>537.0</ele>
        <time>2019-07-08T09:50:29Z</time>
      </trkpt>
      <trkpt lat="39.8890660" lon="-4.2522800">
        <ele>536.8</ele>
        <time>2019-07-08T09:50:31Z</time>
      </trkpt>
      <trkpt lat="39.8889560" lon="-4.2524850">
        <ele>536.8</ele>
        <time>2019-07-08T09:50:35Z</time>
      </trkpt>
      <trkpt lat="39.8889290" lon="-4.2525480">
        <ele>536.6</ele>
        <time>2019-07-08T09:50:36Z</time>
      </trkpt>
      <trkpt lat="39.8888200" lon="-4.2527560">
        <ele>536.2</ele>
        <time>2019-07-08T09:50:39Z</time>
      </trkpt>
      <trkpt lat="39.8887810" lon="-4.2528370">
        <ele>535.8</ele>
        <time>2019-07-08T09:50:40Z</time>
      </trkpt>
      <trkpt lat="39.8887000" lon="-4.2530080">
        <ele>534.8</ele>
        <time>2019-07-08T09:50:42Z</time>
      </trkpt>
      <trkpt lat="39.8885650" lon="-4.2532680">
        <ele>533.2</ele>
        <time>2019-07-08T09:50:45Z</time>
      </trkpt>
      <trkpt lat="39.8884720" lon="-4.2534530">
        <ele>532.2</ele>
        <time>2019-07-08T09:50:47Z</time>
      </trkpt>
      <trkpt lat="39.8884260" lon="-4.2535510">
        <ele>531.6</ele>
        <time>2019-07-08T09:50:48Z</time>
      </trkpt>
      <trkpt lat="39.8883780" lon="-4.2536520">
        <ele>531.0</ele>
        <time>2019-07-08T09:50:49Z</time>
      </trkpt>
      <trkpt lat="39.8883260" lon="-4.2537530">
        <ele>530.2</ele>
        <time>2019-07-08T09:50:50Z</time>
      </trkpt>
      <trkpt lat="39.8882720" lon="-4.2538550">
        <ele>529.6</ele>
        <time>2019-07-08T09:50:51Z</time>
      </trkpt>
      <trkpt lat="39.8881630" lon="-4.2540630">
        <ele>528.2</ele>
        <time>2019-07-08T09:50:53Z</time>
      </trkpt>
      <trkpt lat="39.8880570" lon="-4.2542750">
        <ele>526.6</ele>
        <time>2019-07-08T09:50:55Z</time>
      </trkpt>
      <trkpt lat="39.8879060" lon="-4.2545800">
        <ele>525.0</ele>
        <time>2019-07-08T09:50:58Z</time>
      </trkpt>
      <trkpt lat="39.8878580" lon="-4.2546790">
        <ele>524.8</ele>
        <time>2019-07-08T09:50:59Z</time>
      </trkpt>
      <trkpt lat="39.8877110" lon="-4.2549560">
        <ele>523.8</ele>
        <time>2019-07-08T09:51:02Z</time>
      </trkpt>
      <trkpt lat="39.8876160" lon="-4.2551270">
        <ele>523.4</ele>
        <time>2019-07-08T09:51:04Z</time>
      </trkpt>
      <trkpt lat="39.8875350" lon="-4.2552930">
        <ele>523.0</ele>
        <time>2019-07-08T09:51:06Z</time>
      </trkpt>
      <trkpt lat="39.8875040" lon="-4.2553730">
        <ele>523.0</ele>
        <time>2019-07-08T09:51:07Z</time>
      </trkpt>
      <trkpt lat="39.8874800" lon="-4.2555340">
        <ele>523.0</ele>
        <time>2019-07-08T09:51:09Z</time>
      </trkpt>
      <trkpt lat="39.8874860" lon="-4.2556920">
        <ele>523.2</ele>
        <time>2019-07-08T09:51:11Z</time>
      </trkpt>
      <trkpt lat="39.8874940" lon="-4.2558440">
        <ele>523.6</ele>
        <time>2019-07-08T09:51:13Z</time>
      </trkpt>
      <trkpt lat="39.8874930" lon="-4.2559180">
        <ele>523.6</ele>
        <time>2019-07-08T09:51:14Z</time>
      </trkpt>
      <trkpt lat="39.8874910" lon="-4.2559930">
        <ele>523.8</ele>
        <time>2019-07-08T09:51:15Z</time>
      </trkpt>
      <trkpt lat="39.8874710" lon="-4.2562830">
        <ele>524.8</ele>
        <time>2019-07-08T09:51:19Z</time>
      </trkpt>
      <trkpt lat="39.8874630" lon="-4.2563540">
        <ele>525.0</ele>
        <time>2019-07-08T09:51:20Z</time>
      </trkpt>
      <trkpt lat="39.8874460" lon="-4.2564940">
        <ele>525.2</ele>
        <time>2019-07-08T09:51:22Z</time>
      </trkpt>
      <trkpt lat="39.8874240" lon="-4.2567040">
        <ele>525.4</ele>
        <time>2019-07-08T09:51:25Z</time>
      </trkpt>
      <trkpt lat="39.8873920" lon="-4.2569110">
        <ele>525.4</ele>
        <time>2019-07-08T09:51:28Z</time>
      </trkpt>
      <trkpt lat="39.8873730" lon="-4.2570440">
        <ele>525.8</ele>
        <time>2019-07-08T09:51:30Z</time>
      </trkpt>
      <trkpt lat="39.8873630" lon="-4.2571080">
        <ele>526.0</ele>
        <time>2019-07-08T09:51:31Z</time>
      </trkpt>
      <trkpt lat="39.8873270" lon="-4.2573560">
        <ele>526.4</ele>
        <time>2019-07-08T09:51:35Z</time>
      </trkpt>
      <trkpt lat="39.8873010" lon="-4.2575340">
        <ele>526.4</ele>
        <time>2019-07-08T09:51:38Z</time>
      </trkpt>
      <trkpt lat="39.8872540" lon="-4.2579470">
        <ele>527.2</ele>
        <time>2019-07-08T09:51:45Z</time>
      </trkpt>
      <trkpt lat="39.8872130" lon="-4.2583580">
        <ele>528.2</ele>
        <time>2019-07-08T09:51:52Z</time>
      </trkpt>
      <trkpt lat="39.8872070" lon="-4.2585370">
        <ele>528.6</ele>
        <time>2019-07-08T09:51:55Z</time>
      </trkpt>
      <trkpt lat="39.8871940" lon="-4.2590080">
        <ele>529.4</ele>
        <time>2019-07-08T09:52:03Z</time>
      </trkpt>
      <trkpt lat="39.8871960" lon="-4.2590670">
        <ele>529.4</ele>
        <time>2019-07-08T09:52:04Z</time>
      </trkpt>
      <trkpt lat="39.8872340" lon="-4.2596600">
        <ele>530.4</ele>
        <time>2019-07-08T09:52:14Z</time>
      </trkpt>
      <trkpt lat="39.8872600" lon="-4.2599540">
        <ele>531.6</ele>
        <time>2019-07-08T09:52:19Z</time>
      </trkpt>
      <trkpt lat="39.8872810" lon="-4.2602490">
        <ele>532.0</ele>
        <time>2019-07-08T09:52:24Z</time>
      </trkpt>
      <trkpt lat="39.8873130" lon="-4.2606010">
        <ele>532.8</ele>
        <time>2019-07-08T09:52:30Z</time>
      </trkpt>
      <trkpt lat="39.8873260" lon="-4.2607690">
        <ele>533.0</ele>
        <time>2019-07-08T09:52:33Z</time>
      </trkpt>
      <trkpt lat="39.8873450" lon="-4.2610900">
        <ele>533.8</ele>
        <time>2019-07-08T09:52:39Z</time>
      </trkpt>
      <trkpt lat="39.8873560" lon="-4.2612550">
        <ele>534.6</ele>
        <time>2019-07-08T09:52:42Z</time>
      </trkpt>
      <trkpt lat="39.8873610" lon="-4.2613690">
        <ele>534.8</ele>
        <time>2019-07-08T09:52:44Z</time>
      </trkpt>
      <trkpt lat="39.8873680" lon="-4.2617230">
        <ele>535.6</ele>
        <time>2019-07-08T09:52:50Z</time>
      </trkpt>
      <trkpt lat="39.8873610" lon="-4.2619020">
        <ele>535.8</ele>
        <time>2019-07-08T09:52:53Z</time>
      </trkpt>
      <trkpt lat="39.8873430" lon="-4.2622560">
        <ele>536.6</ele>
        <time>2019-07-08T09:52:59Z</time>
      </trkpt>
      <trkpt lat="39.8873070" lon="-4.2625410">
        <ele>537.0</ele>
        <time>2019-07-08T09:53:04Z</time>
      </trkpt>
      <trkpt lat="39.8872840" lon="-4.2627200">
        <ele>537.4</ele>
        <time>2019-07-08T09:53:07Z</time>
      </trkpt>
      <trkpt lat="39.8872290" lon="-4.2630140">
        <ele>538.0</ele>
        <time>2019-07-08T09:53:12Z</time>
      </trkpt>
      <trkpt lat="39.8871730" lon="-4.2632490">
        <ele>538.4</ele>
        <time>2019-07-08T09:53:16Z</time>
      </trkpt>
      <trkpt lat="39.8871160" lon="-4.2634780">
        <ele>539.0</ele>
        <time>2019-07-08T09:53:20Z</time>
      </trkpt>
      <trkpt lat="39.8870470" lon="-4.2636960">
        <ele>539.6</ele>
        <time>2019-07-08T09:53:24Z</time>
      </trkpt>
      <trkpt lat="39.8869730" lon="-4.2639140">
        <ele>540.2</ele>
        <time>2019-07-08T09:53:28Z</time>
      </trkpt>
      <trkpt lat="39.8868880" lon="-4.2641330">
        <ele>540.8</ele>
        <time>2019-07-08T09:53:32Z</time>
      </trkpt>
      <trkpt lat="39.8868420" lon="-4.2642420">
        <ele>541.2</ele>
        <time>2019-07-08T09:53:34Z</time>
      </trkpt>
      <trkpt lat="39.8867080" lon="-4.2645630">
        <ele>542.0</ele>
        <time>2019-07-08T09:53:40Z</time>
      </trkpt>
      <trkpt lat="39.8866850" lon="-4.2646160">
        <ele>542.2</ele>
        <time>2019-07-08T09:53:41Z</time>
      </trkpt>
      <trkpt lat="39.8865510" lon="-4.2649280">
        <ele>542.6</ele>
        <time>2019-07-08T09:53:47Z</time>
      </trkpt>
      <trkpt lat="39.8865300" lon="-4.2649790">
        <ele>542.8</ele>
        <time>2019-07-08T09:53:48Z</time>
      </trkpt>
      <trkpt lat="39.8864660" lon="-4.2651300">
        <ele>543.2</ele>
        <time>2019-07-08T09:53:51Z</time>
      </trkpt>
      <trkpt lat="39.8863060" lon="-4.2654900">
        <ele>543.6</ele>
        <time>2019-07-08T09:53:58Z</time>
      </trkpt>
      <trkpt lat="39.8862840" lon="-4.2655420">
        <ele>543.6</ele>
        <time>2019-07-08T09:53:59Z</time>
      </trkpt>
      <trkpt lat="39.8862400" lon="-4.2656450">
        <ele>544.2</ele>
        <time>2019-07-08T09:54:01Z</time>
      </trkpt>
      <trkpt lat="39.8860810" lon="-4.2660240">
        <ele>545.2</ele>
        <time>2019-07-08T09:54:08Z</time>
      </trkpt>
      <trkpt lat="39.8858640" lon="-4.2665280">
        <ele>546.6</ele>
        <time>2019-07-08T09:54:17Z</time>
      </trkpt>
      <trkpt lat="39.8857050" lon="-4.2668960">
        <ele>547.8</ele>
        <time>2019-07-08T09:54:24Z</time>
      </trkpt>
      <trkpt lat="39.8856810" lon="-4.2669480">
        <ele>548.0</ele>
        <time>2019-07-08T09:54:25Z</time>
      </trkpt>
      <trkpt lat="39.8855430" lon="-4.2672610">
        <ele>548.8</ele>
        <time>2019-07-08T09:54:31Z</time>
      </trkpt>
      <trkpt lat="39.8855200" lon="-4.2673110">
        <ele>548.8</ele>
        <time>2019-07-08T09:54:32Z</time>
      </trkpt>
      <trkpt lat="39.8853780" lon="-4.2676660">
        <ele>549.8</ele>
        <time>2019-07-08T09:54:39Z</time>
      </trkpt>
      <trkpt lat="39.8853400" lon="-4.2677650">
        <ele>550.2</ele>
        <time>2019-07-08T09:54:41Z</time>
      </trkpt>
      <trkpt lat="39.8852620" lon="-4.2679640">
        <ele>551.0</ele>
        <time>2019-07-08T09:54:45Z</time>
      </trkpt>
      <trkpt lat="39.8851810" lon="-4.2681620">
        <ele>551.6</ele>
        <time>2019-07-08T09:54:49Z</time>
      </trkpt>
      <trkpt lat="39.8851390" lon="-4.2682660">
        <ele>551.8</ele>
        <time>2019-07-08T09:54:51Z</time>
      </trkpt>
      <trkpt lat="39.8851190" lon="-4.2683190">
        <ele>552.0</ele>
        <time>2019-07-08T09:54:52Z</time>
      </trkpt>
      <trkpt lat="39.8850370" lon="-4.2685390">
        <ele>552.4</ele>
        <time>2019-07-08T09:54:56Z</time>
      </trkpt>
      <trkpt lat="39.8849750" lon="-4.2687120">
        <ele>553.0</ele>
        <time>2019-07-08T09:54:59Z</time>
      </trkpt>
      <trkpt lat="39.8848580" lon="-4.2690500">
        <ele>554.0</ele>
        <time>2019-07-08T09:55:05Z</time>
      </trkpt>
      <trkpt lat="39.8847880" lon="-4.2692690">
        <ele>554.6</ele>
        <time>2019-07-08T09:55:09Z</time>
      </trkpt>
      <trkpt lat="39.8847390" lon="-4.2694310">
        <ele>555.2</ele>
        <time>2019-07-08T09:55:12Z</time>
      </trkpt>
      <trkpt lat="39.8846700" lon="-4.2697000">
        <ele>555.6</ele>
        <time>2019-07-08T09:55:17Z</time>
      </trkpt>
      <trkpt lat="39.8845860" lon="-4.2700100">
        <ele>556.4</ele>
        <time>2019-07-08T09:55:23Z</time>
      </trkpt>
      <trkpt lat="39.8845400" lon="-4.2701600">
        <ele>556.8</ele>
        <time>2019-07-08T09:55:26Z</time>
      </trkpt>
      <trkpt lat="39.8845030" lon="-4.2703170">
        <ele>557.2</ele>
        <time>2019-07-08T09:55:29Z</time>
      </trkpt>
      <trkpt lat="39.8844740" lon="-4.2704200">
        <ele>557.8</ele>
        <time>2019-07-08T09:55:31Z</time>
      </trkpt>
      <trkpt lat="39.8844460" lon="-4.2705200">
        <ele>558.0</ele>
        <time>2019-07-08T09:55:33Z</time>
      </trkpt>
      <trkpt lat="39.8843790" lon="-4.2707760">
        <ele>559.0</ele>
        <time>2019-07-08T09:55:38Z</time>
      </trkpt>
      <trkpt lat="39.8843170" lon="-4.2709760">
        <ele>559.8</ele>
        <time>2019-07-08T09:55:42Z</time>
      </trkpt>
      <trkpt lat="39.8843030" lon="-4.2710260">
        <ele>560.0</ele>
        <time>2019-07-08T09:55:43Z</time>
      </trkpt>
      <trkpt lat="39.8842230" lon="-4.2712980">
        <ele>561.2</ele>
        <time>2019-07-08T09:55:49Z</time>
      </trkpt>
      <trkpt lat="39.8842110" lon="-4.2713410">
        <ele>561.2</ele>
        <time>2019-07-08T09:55:50Z</time>
      </trkpt>
      <trkpt lat="39.8841490" lon="-4.2715680">
        <ele>562.0</ele>
        <time>2019-07-08T09:55:55Z</time>
      </trkpt>
      <trkpt lat="39.8841250" lon="-4.2716640">
        <ele>562.2</ele>
        <time>2019-07-08T09:55:57Z</time>
      </trkpt>
      <trkpt lat="39.8840960" lon="-4.2717560">
        <ele>562.4</ele>
        <time>2019-07-08T09:55:59Z</time>
      </trkpt>
      <trkpt lat="39.8840450" lon="-4.2719280">
        <ele>563.4</ele>
        <time>2019-07-08T09:56:03Z</time>
      </trkpt>
      <trkpt lat="39.8839810" lon="-4.2721470">
        <ele>564.6</ele>
        <time>2019-07-08T09:56:08Z</time>
      </trkpt>
      <trkpt lat="39.8839190" lon="-4.2723610">
        <ele>565.2</ele>
        <time>2019-07-08T09:56:13Z</time>
      </trkpt>
      <trkpt lat="39.8838930" lon="-4.2724490">
        <ele>565.6</ele>
        <time>2019-07-08T09:56:15Z</time>
      </trkpt>
      <trkpt lat="39.8838800" lon="-4.2724910">
        <ele>565.6</ele>
        <time>2019-07-08T09:56:16Z</time>
      </trkpt>
      <trkpt lat="39.8837840" lon="-4.2728430">
        <ele>566.4</ele>
        <time>2019-07-08T09:56:24Z</time>
      </trkpt>
      <trkpt lat="39.8837480" lon="-4.2729750">
        <ele>567.0</ele>
        <time>2019-07-08T09:56:27Z</time>
      </trkpt>
      <trkpt lat="39.8837120" lon="-4.2731110">
        <ele>567.2</ele>
        <time>2019-07-08T09:56:30Z</time>
      </trkpt>
      <trkpt lat="39.8835910" lon="-4.2735310">
        <ele>568.0</ele>
        <time>2019-07-08T09:56:39Z</time>
      </trkpt>
      <trkpt lat="39.8835060" lon="-4.2738310">
        <ele>568.4</ele>
        <time>2019-07-08T09:56:45Z</time>
      </trkpt>
      <trkpt lat="39.8834480" lon="-4.2740380">
        <ele>568.8</ele>
        <time>2019-07-08T09:56:49Z</time>
      </trkpt>
      <trkpt lat="39.8834210" lon="-4.2741410">
        <ele>569.0</ele>
        <time>2019-07-08T09:56:51Z</time>
      </trkpt>
      <trkpt lat="39.8833290" lon="-4.2744680">
        <ele>569.4</ele>
        <time>2019-07-08T09:56:57Z</time>
      </trkpt>
      <trkpt lat="39.8832200" lon="-4.2748830">
        <ele>569.4</ele>
        <time>2019-07-08T09:57:04Z</time>
      </trkpt>
      <trkpt lat="39.8831540" lon="-4.2751360">
        <ele>569.6</ele>
        <time>2019-07-08T09:57:08Z</time>
      </trkpt>
      <trkpt lat="39.8830600" lon="-4.2755450">
        <ele>569.8</ele>
        <time>2019-07-08T09:57:14Z</time>
      </trkpt>
      <trkpt lat="39.8830040" lon="-4.2758270">
        <ele>569.8</ele>
        <time>2019-07-08T09:57:18Z</time>
      </trkpt>
      <trkpt lat="39.8829600" lon="-4.2760450">
        <ele>569.8</ele>
        <time>2019-07-08T09:57:21Z</time>
      </trkpt>
      <trkpt lat="39.8829480" lon="-4.2761210">
        <ele>569.8</ele>
        <time>2019-07-08T09:57:22Z</time>
      </trkpt>
      <trkpt lat="39.8828850" lon="-4.2765030">
        <ele>570.0</ele>
        <time>2019-07-08T09:57:27Z</time>
      </trkpt>
      <trkpt lat="39.8828510" lon="-4.2767350">
        <ele>570.0</ele>
        <time>2019-07-08T09:57:30Z</time>
      </trkpt>
      <trkpt lat="39.8828420" lon="-4.2768130">
        <ele>569.8</ele>
        <time>2019-07-08T09:57:31Z</time>
      </trkpt>
      <trkpt lat="39.8827750" lon="-4.2774860">
        <ele>568.6</ele>
        <time>2019-07-08T09:57:39Z</time>
      </trkpt>
      <trkpt lat="39.8827620" lon="-4.2776660">
        <ele>567.6</ele>
        <time>2019-07-08T09:57:41Z</time>
      </trkpt>
      <trkpt lat="39.8827460" lon="-4.2779460">
        <ele>566.6</ele>
        <time>2019-07-08T09:57:44Z</time>
      </trkpt>
      <trkpt lat="39.8827370" lon="-4.2782360">
        <ele>565.8</ele>
        <time>2019-07-08T09:57:47Z</time>
      </trkpt>
      <trkpt lat="39.8827340" lon="-4.2783350">
        <ele>565.4</ele>
        <time>2019-07-08T09:57:48Z</time>
      </trkpt>
      <trkpt lat="39.8827340" lon="-4.2787350">
        <ele>564.6</ele>
        <time>2019-07-08T09:57:52Z</time>
      </trkpt>
      <trkpt lat="39.8827340" lon="-4.2788360">
        <ele>564.2</ele>
        <time>2019-07-08T09:57:53Z</time>
      </trkpt>
      <trkpt lat="39.8827360" lon="-4.2789380">
        <ele>564.0</ele>
        <time>2019-07-08T09:57:54Z</time>
      </trkpt>
      <trkpt lat="39.8827500" lon="-4.2792430">
        <ele>563.2</ele>
        <time>2019-07-08T09:57:57Z</time>
      </trkpt>
      <trkpt lat="39.8827640" lon="-4.2795430">
        <ele>562.6</ele>
        <time>2019-07-08T09:58:00Z</time>
      </trkpt>
      <trkpt lat="39.8827760" lon="-4.2797400">
        <ele>561.8</ele>
        <time>2019-07-08T09:58:02Z</time>
      </trkpt>
      <trkpt lat="39.8827990" lon="-4.2800400">
        <ele>560.6</ele>
        <time>2019-07-08T09:58:05Z</time>
      </trkpt>
      <trkpt lat="39.8828370" lon="-4.2805640">
        <ele>559.4</ele>
        <time>2019-07-08T09:58:10Z</time>
      </trkpt>
      <trkpt lat="39.8828460" lon="-4.2806750">
        <ele>559.2</ele>
        <time>2019-07-08T09:58:11Z</time>
      </trkpt>
      <trkpt lat="39.8828700" lon="-4.2810200">
        <ele>558.2</ele>
        <time>2019-07-08T09:58:14Z</time>
      </trkpt>
      <trkpt lat="39.8829020" lon="-4.2815040">
        <ele>557.0</ele>
        <time>2019-07-08T09:58:18Z</time>
      </trkpt>
      <trkpt lat="39.8829110" lon="-4.2818800">
        <ele>555.8</ele>
        <time>2019-07-08T09:58:21Z</time>
      </trkpt>
      <trkpt lat="39.8829120" lon="-4.2821290">
        <ele>554.8</ele>
        <time>2019-07-08T09:58:23Z</time>
      </trkpt>
      <trkpt lat="39.8829030" lon="-4.2823780">
        <ele>552.6</ele>
        <time>2019-07-08T09:58:25Z</time>
      </trkpt>
      <trkpt lat="39.8828840" lon="-4.2826260">
        <ele>551.6</ele>
        <time>2019-07-08T09:58:27Z</time>
      </trkpt>
      <trkpt lat="39.8828560" lon="-4.2828730">
        <ele>550.4</ele>
        <time>2019-07-08T09:58:29Z</time>
      </trkpt>
      <trkpt lat="39.8827970" lon="-4.2832350">
        <ele>549.0</ele>
        <time>2019-07-08T09:58:32Z</time>
      </trkpt>
      <trkpt lat="39.8827030" lon="-4.2837110">
        <ele>547.4</ele>
        <time>2019-07-08T09:58:36Z</time>
      </trkpt>
      <trkpt lat="39.8826550" lon="-4.2839470">
        <ele>546.4</ele>
        <time>2019-07-08T09:58:38Z</time>
      </trkpt>
      <trkpt lat="39.8826090" lon="-4.2841800">
        <ele>545.4</ele>
        <time>2019-07-08T09:58:40Z</time>
      </trkpt>
      <trkpt lat="39.8825830" lon="-4.2842940">
        <ele>545.0</ele>
        <time>2019-07-08T09:58:41Z</time>
      </trkpt>
      <trkpt lat="39.8825030" lon="-4.2846310">
        <ele>544.4</ele>
        <time>2019-07-08T09:58:44Z</time>
      </trkpt>
      <trkpt lat="39.8824310" lon="-4.2849670">
        <ele>543.8</ele>
        <time>2019-07-08T09:58:47Z</time>
      </trkpt>
      <trkpt lat="39.8823820" lon="-4.2851900">
        <ele>543.2</ele>
        <time>2019-07-08T09:58:49Z</time>
      </trkpt>
      <trkpt lat="39.8823570" lon="-4.2853020">
        <ele>542.8</ele>
        <time>2019-07-08T09:58:50Z</time>
      </trkpt>
      <trkpt lat="39.8823070" lon="-4.2855310">
        <ele>541.8</ele>
        <time>2019-07-08T09:58:52Z</time>
      </trkpt>
      <trkpt lat="39.8822580" lon="-4.2857640">
        <ele>540.8</ele>
        <time>2019-07-08T09:58:54Z</time>
      </trkpt>
      <trkpt lat="39.8822350" lon="-4.2858830">
        <ele>540.6</ele>
        <time>2019-07-08T09:58:55Z</time>
      </trkpt>
      <trkpt lat="39.8821630" lon="-4.2862430">
        <ele>539.4</ele>
        <time>2019-07-08T09:58:58Z</time>
      </trkpt>
      <trkpt lat="39.8821120" lon="-4.2864870">
        <ele>538.6</ele>
        <time>2019-07-08T09:59:00Z</time>
      </trkpt>
      <trkpt lat="39.8820870" lon="-4.2866100">
        <ele>538.2</ele>
        <time>2019-07-08T09:59:01Z</time>
      </trkpt>
      <trkpt lat="39.8820330" lon="-4.2868580">
        <ele>537.0</ele>
        <time>2019-07-08T09:59:03Z</time>
      </trkpt>
      <trkpt lat="39.8819520" lon="-4.2872280">
        <ele>535.8</ele>
        <time>2019-07-08T09:59:06Z</time>
      </trkpt>
      <trkpt lat="39.8818690" lon="-4.2875900">
        <ele>535.2</ele>
        <time>2019-07-08T09:59:09Z</time>
      </trkpt>
      <trkpt lat="39.8818430" lon="-4.2877100">
        <ele>535.0</ele>
        <time>2019-07-08T09:59:10Z</time>
      </trkpt>
      <trkpt lat="39.8817430" lon="-4.2881870">
        <ele>534.0</ele>
        <time>2019-07-08T09:59:14Z</time>
      </trkpt>
      <trkpt lat="39.8816950" lon="-4.2884270">
        <ele>533.4</ele>
        <time>2019-07-08T09:59:16Z</time>
      </trkpt>
      <trkpt lat="39.8816410" lon="-4.2886660">
        <ele>532.8</ele>
        <time>2019-07-08T09:59:18Z</time>
      </trkpt>
      <trkpt lat="39.8815120" lon="-4.2892510">
        <ele>531.8</ele>
        <time>2019-07-08T09:59:23Z</time>
      </trkpt>
      <trkpt lat="39.8814860" lon="-4.2893630">
        <ele>531.6</ele>
        <time>2019-07-08T09:59:24Z</time>
      </trkpt>
      <trkpt lat="39.8814330" lon="-4.2895850">
        <ele>531.4</ele>
        <time>2019-07-08T09:59:26Z</time>
      </trkpt>
      <trkpt lat="39.8812590" lon="-4.2902370">
        <ele>530.6</ele>
        <time>2019-07-08T09:59:32Z</time>
      </trkpt>
      <trkpt lat="39.8811920" lon="-4.2904510">
        <ele>530.4</ele>
        <time>2019-07-08T09:59:34Z</time>
      </trkpt>
      <trkpt lat="39.8809840" lon="-4.2909840">
        <ele>529.4</ele>
        <time>2019-07-08T09:59:39Z</time>
      </trkpt>
      <trkpt lat="39.8808860" lon="-4.2911920">
        <ele>528.6</ele>
        <time>2019-07-08T09:59:41Z</time>
      </trkpt>
      <trkpt lat="39.8808350" lon="-4.2912950">
        <ele>528.0</ele>
        <time>2019-07-08T09:59:42Z</time>
      </trkpt>
      <trkpt lat="39.8806730" lon="-4.2915930">
        <ele>527.2</ele>
        <time>2019-07-08T09:59:45Z</time>
      </trkpt>
      <trkpt lat="39.8806180" lon="-4.2916880">
        <ele>526.8</ele>
        <time>2019-07-08T09:59:46Z</time>
      </trkpt>
      <trkpt lat="39.8804550" lon="-4.2919720">
        <ele>525.8</ele>
        <time>2019-07-08T09:59:49Z</time>
      </trkpt>
      <trkpt lat="39.8801030" lon="-4.2925770">
        <ele>525.0</ele>
        <time>2019-07-08T09:59:56Z</time>
      </trkpt>
      <trkpt lat="39.8800020" lon="-4.2927400">
        <ele>524.6</ele>
        <time>2019-07-08T09:59:58Z</time>
      </trkpt>
      <trkpt lat="39.8799060" lon="-4.2929010">
        <ele>522.8</ele>
        <time>2019-07-08T10:00:00Z</time>
      </trkpt>
      <trkpt lat="39.8798170" lon="-4.2930630">
        <ele>521.8</ele>
        <time>2019-07-08T10:00:02Z</time>
      </trkpt>
      <trkpt lat="39.8797720" lon="-4.2931450">
        <ele>521.6</ele>
        <time>2019-07-08T10:00:03Z</time>
      </trkpt>
      <trkpt lat="39.8794380" lon="-4.2937110">
        <ele>521.2</ele>
        <time>2019-07-08T10:00:10Z</time>
      </trkpt>
      <trkpt lat="39.8791980" lon="-4.2941310">
        <ele>520.4</ele>
        <time>2019-07-08T10:00:15Z</time>
      </trkpt>
      <trkpt lat="39.8789960" lon="-4.2944780">
        <ele>519.2</ele>
        <time>2019-07-08T10:00:19Z</time>
      </trkpt>
      <trkpt lat="39.8788960" lon="-4.2946490">
        <ele>517.8</ele>
        <time>2019-07-08T10:00:21Z</time>
      </trkpt>
      <trkpt lat="39.8787980" lon="-4.2948210">
        <ele>516.8</ele>
        <time>2019-07-08T10:00:23Z</time>
      </trkpt>
      <trkpt lat="39.8786500" lon="-4.2950820">
        <ele>515.8</ele>
        <time>2019-07-08T10:00:26Z</time>
      </trkpt>
      <trkpt lat="39.8784470" lon="-4.2954330">
        <ele>514.6</ele>
        <time>2019-07-08T10:00:30Z</time>
      </trkpt>
      <trkpt lat="39.8781960" lon="-4.2958590">
        <ele>513.2</ele>
        <time>2019-07-08T10:00:35Z</time>
      </trkpt>
      <trkpt lat="39.8780130" lon="-4.2961760">
        <ele>512.2</ele>
        <time>2019-07-08T10:00:39Z</time>
      </trkpt>
      <trkpt lat="39.8778830" lon="-4.2964080">
        <ele>510.8</ele>
        <time>2019-07-08T10:00:42Z</time>
      </trkpt>
      <trkpt lat="39.8776810" lon="-4.2968100">
        <ele>509.8</ele>
        <time>2019-07-08T10:00:47Z</time>
      </trkpt>
      <trkpt lat="39.8775300" lon="-4.2971600">
        <ele>508.4</ele>
        <time>2019-07-08T10:00:51Z</time>
      </trkpt>
      <trkpt lat="39.8774290" lon="-4.2974450">
        <ele>507.4</ele>
        <time>2019-07-08T10:00:54Z</time>
      </trkpt>
      <trkpt lat="39.8773460" lon="-4.2977440">
        <ele>506.2</ele>
        <time>2019-07-08T10:00:57Z</time>
      </trkpt>
      <trkpt lat="39.8772920" lon="-4.2979500">
        <ele>505.2</ele>
        <time>2019-07-08T10:00:59Z</time>
      </trkpt>
      <trkpt lat="39.8772220" lon="-4.2982720">
        <ele>503.8</ele>
        <time>2019-07-08T10:01:02Z</time>
      </trkpt>
      <trkpt lat="39.8771550" lon="-4.2986030">
        <ele>502.8</ele>
        <time>2019-07-08T10:01:05Z</time>
      </trkpt>
      <trkpt lat="39.8770940" lon="-4.2989380">
        <ele>501.4</ele>
        <time>2019-07-08T10:01:08Z</time>
      </trkpt>
      <trkpt lat="39.8770500" lon="-4.2991580">
        <ele>500.8</ele>
        <time>2019-07-08T10:01:10Z</time>
      </trkpt>
      <trkpt lat="39.8770090" lon="-4.2993780">
        <ele>500.0</ele>
        <time>2019-07-08T10:01:12Z</time>
      </trkpt>
      <trkpt lat="39.8769490" lon="-4.2997060">
        <ele>499.0</ele>
        <time>2019-07-08T10:01:15Z</time>
      </trkpt>
      <trkpt lat="39.8768850" lon="-4.3000390">
        <ele>498.2</ele>
        <time>2019-07-08T10:01:18Z</time>
      </trkpt>
      <trkpt lat="39.8768400" lon="-4.3002610">
        <ele>497.8</ele>
        <time>2019-07-08T10:01:20Z</time>
      </trkpt>
      <trkpt lat="39.8767580" lon="-4.3006950">
        <ele>496.8</ele>
        <time>2019-07-08T10:01:24Z</time>
      </trkpt>
      <trkpt lat="39.8767380" lon="-4.3008010">
        <ele>496.8</ele>
        <time>2019-07-08T10:01:25Z</time>
      </trkpt>
      <trkpt lat="39.8766580" lon="-4.3012070">
        <ele>496.6</ele>
        <time>2019-07-08T10:01:29Z</time>
      </trkpt>
      <trkpt lat="39.8765950" lon="-4.3015920">
        <ele>496.4</ele>
        <time>2019-07-08T10:01:33Z</time>
      </trkpt>
      <trkpt lat="39.8764980" lon="-4.3021020">
        <ele>496.2</ele>
        <time>2019-07-08T10:01:39Z</time>
      </trkpt>
      <trkpt lat="39.8764820" lon="-4.3021800">
        <ele>496.4</ele>
        <time>2019-07-08T10:01:40Z</time>
      </trkpt>
      <trkpt lat="39.8764020" lon="-4.3026010">
        <ele>496.6</ele>
        <time>2019-07-08T10:01:46Z</time>
      </trkpt>
      <trkpt lat="39.8763930" lon="-4.3026540">
        <ele>496.6</ele>
        <time>2019-07-08T10:01:47Z</time>
      </trkpt>
      <trkpt lat="39.8763790" lon="-4.3027130">
        <ele>496.8</ele>
        <time>2019-07-08T10:01:50Z</time>
      </trkpt>
      <trkpt lat="39.8763800" lon="-4.3027120">
        <ele>496.8</ele>
        <time>2019-07-08T10:01:51Z</time>
      </trkpt>
      <trkpt lat="39.8763440" lon="-4.3027000">
        <ele>496.8</ele>
        <time>2019-07-08T10:02:29Z</time>
      </trkpt>
      <trkpt lat="39.8763210" lon="-4.3026580">
        <ele>496.8</ele>
        <time>2019-07-08T10:02:31Z</time>
      </trkpt>
      <trkpt lat="39.8763280" lon="-4.3025830">
        <ele>496.6</ele>
        <time>2019-07-08T10:02:33Z</time>
      </trkpt>
      <trkpt lat="39.8763450" lon="-4.3024860">
        <ele>496.6</ele>
        <time>2019-07-08T10:02:35Z</time>
      </trkpt>
      <trkpt lat="39.8764010" lon="-4.3021890">
        <ele>496.4</ele>
        <time>2019-07-08T10:02:40Z</time>
      </trkpt>
      <trkpt lat="39.8764110" lon="-4.3021240">
        <ele>496.4</ele>
        <time>2019-07-08T10:02:41Z</time>
      </trkpt>
      <trkpt lat="39.8764360" lon="-4.3019260">
        <ele>496.0</ele>
        <time>2019-07-08T10:02:44Z</time>
      </trkpt>
      <trkpt lat="39.8764560" lon="-4.3017970">
        <ele>496.0</ele>
        <time>2019-07-08T10:02:46Z</time>
      </trkpt>
      <trkpt lat="39.8765010" lon="-4.3014660">
        <ele>496.0</ele>
        <time>2019-07-08T10:02:51Z</time>
      </trkpt>
      <trkpt lat="39.8765360" lon="-4.3012140">
        <ele>494.8</ele>
        <time>2019-07-08T10:02:54Z</time>
      </trkpt>
      <trkpt lat="39.8765560" lon="-4.3010560">
        <ele>494.0</ele>
        <time>2019-07-08T10:02:56Z</time>
      </trkpt>
      <trkpt lat="39.8765670" lon="-4.3009860">
        <ele>493.8</ele>
        <time>2019-07-08T10:02:57Z</time>
      </trkpt>
      <trkpt lat="39.8765760" lon="-4.3008630">
        <ele>493.4</ele>
        <time>2019-07-08T10:02:59Z</time>
      </trkpt>
      <trkpt lat="39.8765490" lon="-4.3007800">
        <ele>492.6</ele>
        <time>2019-07-08T10:03:01Z</time>
      </trkpt>
      <trkpt lat="39.8764670" lon="-4.3007550">
        <ele>492.0</ele>
        <time>2019-07-08T10:03:04Z</time>
      </trkpt>
      <trkpt lat="39.8764390" lon="-4.3007720">
        <ele>491.8</ele>
        <time>2019-07-08T10:03:05Z</time>
      </trkpt>
      <trkpt lat="39.8763380" lon="-4.3009010">
        <ele>491.0</ele>
        <time>2019-07-08T10:03:09Z</time>
      </trkpt>
      <trkpt lat="39.8762880" lon="-4.3010000">
        <ele>491.0</ele>
        <time>2019-07-08T10:03:11Z</time>
      </trkpt>
      <trkpt lat="39.8761810" lon="-4.3011380">
        <ele>490.8</ele>
        <time>2019-07-08T10:03:14Z</time>
      </trkpt>
      <trkpt lat="39.8761460" lon="-4.3011880">
        <ele>490.8</ele>
        <time>2019-07-08T10:03:15Z</time>
      </trkpt>
      <trkpt lat="39.8760400" lon="-4.3013160">
        <ele>490.6</ele>
        <time>2019-07-08T10:03:18Z</time>
      </trkpt>
      <trkpt lat="39.8760080" lon="-4.3013660">
        <ele>490.4</ele>
        <time>2019-07-08T10:03:19Z</time>
      </trkpt>
      <trkpt lat="39.8759780" lon="-4.3014160">
        <ele>490.2</ele>
        <time>2019-07-08T10:03:20Z</time>
      </trkpt>
      <trkpt lat="39.8758990" lon="-4.3015710">
        <ele>489.6</ele>
        <time>2019-07-08T10:03:23Z</time>
      </trkpt>
      <trkpt lat="39.8758410" lon="-4.3016440">
        <ele>488.6</ele>
        <time>2019-07-08T10:03:25Z</time>
      </trkpt>
      <trkpt lat="39.8758020" lon="-4.3016560">
        <ele>488.0</ele>
        <time>2019-07-08T10:03:26Z</time>
      </trkpt>
      <trkpt lat="39.8757240" lon="-4.3016350">
        <ele>487.6</ele>
        <time>2019-07-08T10:03:28Z</time>
      </trkpt>
      <trkpt lat="39.8756850" lon="-4.3016160">
        <ele>487.4</ele>
        <time>2019-07-08T10:03:29Z</time>
      </trkpt>
      <trkpt lat="39.8755860" lon="-4.3015330">
        <ele>487.6</ele>
        <time>2019-07-08T10:03:32Z</time>
      </trkpt>
      <trkpt lat="39.8755620" lon="-4.3014960">
        <ele>487.6</ele>
        <time>2019-07-08T10:03:33Z</time>
      </trkpt>
      <trkpt lat="39.8755230" lon="-4.3014310">
        <ele>488.0</ele>
        <time>2019-07-08T10:03:35Z</time>
      </trkpt>
      <trkpt lat="39.8754780" lon="-4.3013480">
        <ele>488.4</ele>
        <time>2019-07-08T10:03:38Z</time>
      </trkpt>
      <trkpt lat="39.8754160" lon="-4.3012540">
        <ele>489.2</ele>
        <time>2019-07-08T10:03:42Z</time>
      </trkpt>
      <trkpt lat="39.8753860" lon="-4.3012130">
        <ele>489.6</ele>
        <time>2019-07-08T10:03:44Z</time>
      </trkpt>
      <trkpt lat="39.8753600" lon="-4.3011410">
        <ele>490.2</ele>
        <time>2019-07-08T10:03:47Z</time>
      </trkpt>
      <trkpt lat="39.8753300" lon="-4.3010810">
        <ele>490.8</ele>
        <time>2019-07-08T10:03:50Z</time>
      </trkpt>
      <trkpt lat="39.8753160" lon="-4.3010710">
        <ele>490.8</ele>
        <time>2019-07-08T10:03:51Z</time>
      </trkpt>
      <trkpt lat="39.8752690" lon="-4.3010510">
        <ele>491.0</ele>
        <time>2019-07-08T10:03:55Z</time>
      </trkpt>
      <trkpt lat="39.8752680" lon="-4.3010460">
        <ele>491.0</ele>
        <time>2019-07-08T10:03:57Z</time>
      </trkpt>
      <trkpt lat="39.8752570" lon="-4.3010990">
        <ele>491.2</ele>
        <time>2019-07-08T10:04:23Z</time>
      </trkpt>
      <trkpt lat="39.8752560" lon="-4.3011300">
        <ele>491.0</ele>
        <time>2019-07-08T10:04:24Z</time>
      </trkpt>
      <trkpt lat="39.8752080" lon="-4.3012610">
        <ele>491.2</ele>
        <time>2019-07-08T10:04:28Z</time>
      </trkpt>
      <trkpt lat="39.8751490" lon="-4.3013480">
        <ele>491.0</ele>
        <time>2019-07-08T10:04:32Z</time>
      </trkpt>
      <trkpt lat="39.8750950" lon="-4.3013700">
        <ele>490.8</ele>
        <time>2019-07-08T10:04:34Z</time>
      </trkpt>
      <trkpt lat="39.8750630" lon="-4.3013780">
        <ele>490.8</ele>
        <time>2019-07-08T10:04:35Z</time>
      </trkpt>
      <trkpt lat="39.8750300" lon="-4.3013870">
        <ele>490.8</ele>
        <time>2019-07-08T10:04:36Z</time>
      </trkpt>
      <trkpt lat="39.8748860" lon="-4.3014240">
        <ele>491.4</ele>
        <time>2019-07-08T10:04:40Z</time>
      </trkpt>
      <trkpt lat="39.8748470" lon="-4.3014350">
        <ele>491.4</ele>
        <time>2019-07-08T10:04:41Z</time>
      </trkpt>
      <trkpt lat="39.8747330" lon="-4.3014710">
        <ele>491.8</ele>
        <time>2019-07-08T10:04:44Z</time>
      </trkpt>
      <trkpt lat="39.8746270" lon="-4.3015480">
        <ele>491.6</ele>
        <time>2019-07-08T10:04:47Z</time>
      </trkpt>
      <trkpt lat="39.8745290" lon="-4.3016600">
        <ele>491.6</ele>
        <time>2019-07-08T10:04:50Z</time>
      </trkpt>
      <trkpt lat="39.8743360" lon="-4.3018480">
        <ele>491.8</ele>
        <time>2019-07-08T10:04:55Z</time>
      </trkpt>
      <trkpt lat="39.8742410" lon="-4.3019290">
        <ele>491.8</ele>
        <time>2019-07-08T10:04:57Z</time>
      </trkpt>
      <trkpt lat="39.8740160" lon="-4.3020940">
        <ele>490.6</ele>
        <time>2019-07-08T10:05:01Z</time>
      </trkpt>
      <trkpt lat="39.8739510" lon="-4.3021270">
        <ele>490.2</ele>
        <time>2019-07-08T10:05:02Z</time>
      </trkpt>
      <trkpt lat="39.8735950" lon="-4.3022380">
        <ele>489.2</ele>
        <time>2019-07-08T10:05:07Z</time>
      </trkpt>
      <trkpt lat="39.8735190" lon="-4.3022510">
        <ele>489.0</ele>
        <time>2019-07-08T10:05:08Z</time>
      </trkpt>
      <trkpt lat="39.8730790" lon="-4.3023330">
        <ele>488.2</ele>
        <time>2019-07-08T10:05:14Z</time>
      </trkpt>
      <trkpt lat="39.8727420" lon="-4.3023800">
        <ele>488.6</ele>
        <time>2019-07-08T10:05:19Z</time>
      </trkpt>
      <trkpt lat="39.8726790" lon="-4.3023900">
        <ele>488.6</ele>
        <time>2019-07-08T10:05:20Z</time>
      </trkpt>
      <trkpt lat="39.8723660" lon="-4.3024400">
        <ele>488.6</ele>
        <time>2019-07-08T10:05:25Z</time>
      </trkpt>
      <trkpt lat="39.8722440" lon="-4.3024650">
        <ele>488.4</ele>
        <time>2019-07-08T10:05:27Z</time>
      </trkpt>
      <trkpt lat="39.8719240" lon="-4.3025030">
        <ele>488.2</ele>
        <time>2019-07-08T10:05:32Z</time>
      </trkpt>
      <trkpt lat="39.8717980" lon="-4.3025480">
        <ele>488.2</ele>
        <time>2019-07-08T10:05:34Z</time>
      </trkpt>
      <trkpt lat="39.8716290" lon="-4.3026940">
        <ele>488.0</ele>
        <time>2019-07-08T10:05:37Z</time>
      </trkpt>
      <trkpt lat="39.8715390" lon="-4.3028320">
        <ele>487.8</ele>
        <time>2019-07-08T10:05:39Z</time>
      </trkpt>
      <trkpt lat="39.8714340" lon="-4.3029590">
        <ele>487.4</ele>
        <time>2019-07-08T10:05:41Z</time>
      </trkpt>
      <trkpt lat="39.8713760" lon="-4.3030120">
        <ele>487.2</ele>
        <time>2019-07-08T10:05:42Z</time>
      </trkpt>
      <trkpt lat="39.8712590" lon="-4.3031060">
        <ele>487.0</ele>
        <time>2019-07-08T10:05:44Z</time>
      </trkpt>
      <trkpt lat="39.8709250" lon="-4.3033910">
        <ele>486.2</ele>
        <time>2019-07-08T10:05:50Z</time>
      </trkpt>
      <trkpt lat="39.8707510" lon="-4.3034940">
        <ele>486.6</ele>
        <time>2019-07-08T10:05:53Z</time>
      </trkpt>
      <trkpt lat="39.8705740" lon="-4.3035680">
        <ele>486.8</ele>
        <time>2019-07-08T10:05:56Z</time>
      </trkpt>
      <trkpt lat="39.8702230" lon="-4.3037150">
        <ele>486.6</ele>
        <time>2019-07-08T10:06:02Z</time>
      </trkpt>
      <trkpt lat="39.8701040" lon="-4.3037560">
        <ele>486.0</ele>
        <time>2019-07-08T10:06:04Z</time>
      </trkpt>
      <trkpt lat="39.8697210" lon="-4.3038670">
        <ele>485.0</ele>
        <time>2019-07-08T10:06:10Z</time>
      </trkpt>
      <trkpt lat="39.8693890" lon="-4.3039440">
        <ele>485.2</ele>
        <time>2019-07-08T10:06:15Z</time>
      </trkpt>
      <trkpt lat="39.8693240" lon="-4.3039510">
        <ele>485.0</ele>
        <time>2019-07-08T10:06:16Z</time>
      </trkpt>
      <trkpt lat="39.8691980" lon="-4.3039820">
        <ele>484.4</ele>
        <time>2019-07-08T10:06:18Z</time>
      </trkpt>
      <trkpt lat="39.8690110" lon="-4.3040510">
        <ele>484.4</ele>
        <time>2019-07-08T10:06:21Z</time>
      </trkpt>
      <trkpt lat="39.8688180" lon="-4.3040890">
        <ele>483.8</ele>
        <time>2019-07-08T10:06:24Z</time>
      </trkpt>
      <trkpt lat="39.8686320" lon="-4.3041500">
        <ele>483.4</ele>
        <time>2019-07-08T10:06:27Z</time>
      </trkpt>
      <trkpt lat="39.8681950" lon="-4.3042840">
        <ele>483.4</ele>
        <time>2019-07-08T10:06:34Z</time>
      </trkpt>
      <trkpt lat="39.8680130" lon="-4.3043480">
        <ele>483.0</ele>
        <time>2019-07-08T10:06:37Z</time>
      </trkpt>
      <trkpt lat="39.8677660" lon="-4.3043920">
        <ele>482.8</ele>
        <time>2019-07-08T10:06:41Z</time>
      </trkpt>
      <trkpt lat="39.8675380" lon="-4.3044480">
        <ele>483.2</ele>
        <time>2019-07-08T10:06:45Z</time>
      </trkpt>
      <trkpt lat="39.8674830" lon="-4.3044550">
        <ele>483.4</ele>
        <time>2019-07-08T10:06:46Z</time>
      </trkpt>
      <trkpt lat="39.8674280" lon="-4.3044530">
        <ele>483.4</ele>
        <time>2019-07-08T10:06:47Z</time>
      </trkpt>
      <trkpt lat="39.8673180" lon="-4.3044290">
        <ele>483.8</ele>
        <time>2019-07-08T10:06:49Z</time>
      </trkpt>
      <trkpt lat="39.8672110" lon="-4.3043810">
        <ele>484.0</ele>
        <time>2019-07-08T10:06:51Z</time>
      </trkpt>
      <trkpt lat="39.8671560" lon="-4.3043610">
        <ele>484.2</ele>
        <time>2019-07-08T10:06:52Z</time>
      </trkpt>
      <trkpt lat="39.8670160" lon="-4.3044340">
        <ele>484.0</ele>
        <time>2019-07-08T10:06:55Z</time>
      </trkpt>
      <trkpt lat="39.8669640" lon="-4.3046350">
        <ele>483.4</ele>
        <time>2019-07-08T10:06:58Z</time>
      </trkpt>
      <trkpt lat="39.8668840" lon="-4.3048580">
        <ele>482.8</ele>
        <time>2019-07-08T10:07:01Z</time>
      </trkpt>
      <trkpt lat="39.8668170" lon="-4.3050030">
        <ele>482.8</ele>
        <time>2019-07-08T10:07:03Z</time>
      </trkpt>
      <trkpt lat="39.8667330" lon="-4.3051340">
        <ele>482.4</ele>
        <time>2019-07-08T10:07:05Z</time>
      </trkpt>
      <trkpt lat="39.8666230" lon="-4.3052380">
        <ele>482.2</ele>
        <time>2019-07-08T10:07:07Z</time>
      </trkpt>
      <trkpt lat="39.8665000" lon="-4.3053170">
        <ele>481.6</ele>
        <time>2019-07-08T10:07:09Z</time>
      </trkpt>
      <trkpt lat="39.8664350" lon="-4.3053420">
        <ele>481.4</ele>
        <time>2019-07-08T10:07:10Z</time>
      </trkpt>
      <trkpt lat="39.8663700" lon="-4.3053640">
        <ele>481.2</ele>
        <time>2019-07-08T10:07:11Z</time>
      </trkpt>
      <trkpt lat="39.8663070" lon="-4.3053920">
        <ele>481.2</ele>
        <time>2019-07-08T10:07:12Z</time>
      </trkpt>
      <trkpt lat="39.8661400" lon="-4.3055160">
        <ele>481.2</ele>
        <time>2019-07-08T10:07:15Z</time>
      </trkpt>
      <trkpt lat="39.8657750" lon="-4.3057610">
        <ele>480.6</ele>
        <time>2019-07-08T10:07:22Z</time>
      </trkpt>
      <trkpt lat="39.8657250" lon="-4.3057940">
        <ele>480.6</ele>
        <time>2019-07-08T10:07:23Z</time>
      </trkpt>
      <trkpt lat="39.8654840" lon="-4.3059950">
        <ele>480.4</ele>
        <time>2019-07-08T10:07:28Z</time>
      </trkpt>
      <trkpt lat="39.8652280" lon="-4.3061790">
        <ele>480.0</ele>
        <time>2019-07-08T10:07:34Z</time>
      </trkpt>
      <trkpt lat="39.8652180" lon="-4.3061790">
        <ele>479.6</ele>
        <time>2019-07-08T10:07:36Z</time>
      </trkpt>
      <trkpt lat="39.8651910" lon="-4.3061930">
        <ele>479.2</ele>
        <time>2019-07-08T10:08:26Z</time>
      </trkpt>
      <trkpt lat="39.8651720" lon="-4.3062080">
        <ele>479.2</ele>
        <time>2019-07-08T10:08:27Z</time>
      </trkpt>
      <trkpt lat="39.8651470" lon="-4.3062220">
        <ele>479.2</ele>
        <time>2019-07-08T10:08:28Z</time>
      </trkpt>
      <trkpt lat="39.8650800" lon="-4.3062460">
        <ele>479.2</ele>
        <time>2019-07-08T10:08:30Z</time>
      </trkpt>
      <trkpt lat="39.8650410" lon="-4.3062580">
        <ele>479.2</ele>
        <time>2019-07-08T10:08:31Z</time>
      </trkpt>
      <trkpt lat="39.8649610" lon="-4.3062950">
        <ele>479.4</ele>
        <time>2019-07-08T10:08:33Z</time>
      </trkpt>
      <trkpt lat="39.8649190" lon="-4.3063150">
        <ele>479.6</ele>
        <time>2019-07-08T10:08:34Z</time>
      </trkpt>
      <trkpt lat="39.8648300" lon="-4.3063530">
        <ele>479.6</ele>
        <time>2019-07-08T10:08:36Z</time>
      </trkpt>
      <trkpt lat="39.8646900" lon="-4.3063940">
        <ele>479.2</ele>
        <time>2019-07-08T10:08:39Z</time>
      </trkpt>
      <trkpt lat="39.8645520" lon="-4.3064500">
        <ele>479.2</ele>
        <time>2019-07-08T10:08:42Z</time>
      </trkpt>
      <trkpt lat="39.8644070" lon="-4.3064840">
        <ele>479.6</ele>
        <time>2019-07-08T10:08:45Z</time>
      </trkpt>
      <trkpt lat="39.8642570" lon="-4.3065030">
        <ele>479.8</ele>
        <time>2019-07-08T10:08:48Z</time>
      </trkpt>
      <trkpt lat="39.8642050" lon="-4.3065020">
        <ele>479.8</ele>
        <time>2019-07-08T10:08:49Z</time>
      </trkpt>
      <trkpt lat="39.8638820" lon="-4.3064590">
        <ele>479.8</ele>
        <time>2019-07-08T10:08:55Z</time>
      </trkpt>
      <trkpt lat="39.8638310" lon="-4.3064440">
        <ele>479.8</ele>
        <time>2019-07-08T10:08:56Z</time>
      </trkpt>
      <trkpt lat="39.8636200" lon="-4.3063400">
        <ele>479.0</ele>
        <time>2019-07-08T10:09:01Z</time>
      </trkpt>
      <trkpt lat="39.8634990" lon="-4.3063190">
        <ele>478.8</ele>
        <time>2019-07-08T10:09:06Z</time>
      </trkpt>
      <trkpt lat="39.8634120" lon="-4.3063190">
        <ele>478.4</ele>
        <time>2019-07-08T10:09:08Z</time>
      </trkpt>
      <trkpt lat="39.8633060" lon="-4.3063240">
        <ele>478.0</ele>
        <time>2019-07-08T10:09:10Z</time>
      </trkpt>
      <trkpt lat="39.8631280" lon="-4.3063500">
        <ele>477.4</ele>
        <time>2019-07-08T10:09:13Z</time>
      </trkpt>
      <trkpt lat="39.8628680" lon="-4.3063860">
        <ele>476.4</ele>
        <time>2019-07-08T10:09:17Z</time>
      </trkpt>
      <trkpt lat="39.8628010" lon="-4.3063900">
        <ele>476.4</ele>
        <time>2019-07-08T10:09:18Z</time>
      </trkpt>
      <trkpt lat="39.8624750" lon="-4.3063820">
        <ele>476.2</ele>
        <time>2019-07-08T10:09:23Z</time>
      </trkpt>
      <trkpt lat="39.8623490" lon="-4.3063570">
        <ele>476.0</ele>
        <time>2019-07-08T10:09:25Z</time>
      </trkpt>
      <trkpt lat="39.8621610" lon="-4.3062930">
        <ele>475.4</ele>
        <time>2019-07-08T10:09:28Z</time>
      </trkpt>
      <trkpt lat="39.8619660" lon="-4.3062590">
        <ele>475.4</ele>
        <time>2019-07-08T10:09:31Z</time>
      </trkpt>
      <trkpt lat="39.8618360" lon="-4.3062840">
        <ele>475.6</ele>
        <time>2019-07-08T10:09:33Z</time>
      </trkpt>
      <trkpt lat="39.8616790" lon="-4.3064160">
        <ele>475.8</ele>
        <time>2019-07-08T10:09:36Z</time>
      </trkpt>
      <trkpt lat="39.8616310" lon="-4.3064540">
        <ele>475.8</ele>
        <time>2019-07-08T10:09:37Z</time>
      </trkpt>
      <trkpt lat="39.8615280" lon="-4.3064730">
        <ele>476.0</ele>
        <time>2019-07-08T10:09:39Z</time>
      </trkpt>
      <trkpt lat="39.8612810" lon="-4.3064680">
        <ele>476.4</ele>
        <time>2019-07-08T10:09:44Z</time>
      </trkpt>
      <trkpt lat="39.8612320" lon="-4.3064750">
        <ele>476.4</ele>
        <time>2019-07-08T10:09:45Z</time>
      </trkpt>
      <trkpt lat="39.8611820" lon="-4.3064860">
        <ele>476.8</ele>
        <time>2019-07-08T10:09:46Z</time>
      </trkpt>
      <trkpt lat="39.8610760" lon="-4.3065110">
        <ele>477.2</ele>
        <time>2019-07-08T10:09:48Z</time>
      </trkpt>
      <trkpt lat="39.8608970" lon="-4.3065320">
        <ele>476.8</ele>
        <time>2019-07-08T10:09:51Z</time>
      </trkpt>
      <trkpt lat="39.8608330" lon="-4.3065270">
        <ele>476.6</ele>
        <time>2019-07-08T10:09:52Z</time>
      </trkpt>
      <trkpt lat="39.8605840" lon="-4.3064930">
        <ele>475.4</ele>
        <time>2019-07-08T10:09:56Z</time>
      </trkpt>
      <trkpt lat="39.8604570" lon="-4.3064650">
        <ele>475.0</ele>
        <time>2019-07-08T10:09:58Z</time>
      </trkpt>
      <trkpt lat="39.8602600" lon="-4.3064400">
        <ele>475.0</ele>
        <time>2019-07-08T10:10:01Z</time>
      </trkpt>
      <trkpt lat="39.8601950" lon="-4.3064340">
        <ele>475.0</ele>
        <time>2019-07-08T10:10:02Z</time>
      </trkpt>
      <trkpt lat="39.8600620" lon="-4.3064150">
        <ele>475.2</ele>
        <time>2019-07-08T10:10:04Z</time>
      </trkpt>
      <trkpt lat="39.8599330" lon="-4.3064150">
        <ele>475.0</ele>
        <time>2019-07-08T10:10:06Z</time>
      </trkpt>
      <trkpt lat="39.8596330" lon="-4.3064410">
        <ele>474.6</ele>
        <time>2019-07-08T10:10:11Z</time>
      </trkpt>
      <trkpt lat="39.8595790" lon="-4.3064340">
        <ele>474.4</ele>
        <time>2019-07-08T10:10:12Z</time>
      </trkpt>
      <trkpt lat="39.8594710" lon="-4.3064070">
        <ele>474.6</ele>
        <time>2019-07-08T10:10:14Z</time>
      </trkpt>
      <trkpt lat="39.8592990" lon="-4.3063540">
        <ele>474.8</ele>
        <time>2019-07-08T10:10:17Z</time>
      </trkpt>
      <trkpt lat="39.8591790" lon="-4.3063040">
        <ele>474.6</ele>
        <time>2019-07-08T10:10:19Z</time>
      </trkpt>
      <trkpt lat="39.8588670" lon="-4.3061360">
        <ele>473.4</ele>
        <time>2019-07-08T10:10:24Z</time>
      </trkpt>
      <trkpt lat="39.8586660" lon="-4.3060390">
        <ele>472.6</ele>
        <time>2019-07-08T10:10:27Z</time>
      </trkpt>
      <trkpt lat="39.8585950" lon="-4.3060060">
        <ele>472.4</ele>
        <time>2019-07-08T10:10:28Z</time>
      </trkpt>
      <trkpt lat="39.8583220" lon="-4.3058480">
        <ele>471.2</ele>
        <time>2019-07-08T10:10:32Z</time>
      </trkpt>
      <trkpt lat="39.8582600" lon="-4.3058020">
        <ele>471.0</ele>
        <time>2019-07-08T10:10:33Z</time>
      </trkpt>
      <trkpt lat="39.8581980" lon="-4.3057590">
        <ele>470.8</ele>
        <time>2019-07-08T10:10:34Z</time>
      </trkpt>
      <trkpt lat="39.8580000" lon="-4.3056700">
        <ele>470.6</ele>
        <time>2019-07-08T10:10:37Z</time>
      </trkpt>
      <trkpt lat="39.8577600" lon="-4.3055070">
        <ele>470.2</ele>
        <time>2019-07-08T10:10:41Z</time>
      </trkpt>
      <trkpt lat="39.8577040" lon="-4.3054660">
        <ele>470.2</ele>
        <time>2019-07-08T10:10:42Z</time>
      </trkpt>
      <trkpt lat="39.8576460" lon="-4.3054310">
        <ele>470.2</ele>
        <time>2019-07-08T10:10:43Z</time>
      </trkpt>
      <trkpt lat="39.8575270" lon="-4.3053820">
        <ele>470.4</ele>
        <time>2019-07-08T10:10:45Z</time>
      </trkpt>
      <trkpt lat="39.8574650" lon="-4.3053670">
        <ele>470.4</ele>
        <time>2019-07-08T10:10:46Z</time>
      </trkpt>
      <trkpt lat="39.8570850" lon="-4.3052620">
        <ele>469.8</ele>
        <time>2019-07-08T10:10:52Z</time>
      </trkpt>
      <trkpt lat="39.8569500" lon="-4.3052040">
        <ele>469.6</ele>
        <time>2019-07-08T10:10:54Z</time>
      </trkpt>
      <trkpt lat="39.8568370" lon="-4.3051070">
        <ele>469.0</ele>
        <time>2019-07-08T10:10:56Z</time>
      </trkpt>
      <trkpt lat="39.8565500" lon="-4.3048750">
        <ele>468.4</ele>
        <time>2019-07-08T10:11:01Z</time>
      </trkpt>
      <trkpt lat="39.8564910" lon="-4.3048240">
        <ele>468.0</ele>
        <time>2019-07-08T10:11:02Z</time>
      </trkpt>
      <trkpt lat="39.8562980" lon="-4.3047370">
        <ele>467.0</ele>
        <time>2019-07-08T10:11:05Z</time>
      </trkpt>
      <trkpt lat="39.8562340" lon="-4.3047310">
        <ele>467.0</ele>
        <time>2019-07-08T10:11:06Z</time>
      </trkpt>
      <trkpt lat="39.8559190" lon="-4.3046950">
        <ele>467.4</ele>
        <time>2019-07-08T10:11:11Z</time>
      </trkpt>
      <trkpt lat="39.8558530" lon="-4.3046840">
        <ele>467.2</ele>
        <time>2019-07-08T10:11:12Z</time>
      </trkpt>
      <trkpt lat="39.8557150" lon="-4.3046610">
        <ele>466.8</ele>
        <time>2019-07-08T10:11:14Z</time>
      </trkpt>
      <trkpt lat="39.8553600" lon="-4.3045860">
        <ele>466.2</ele>
        <time>2019-07-08T10:11:19Z</time>
      </trkpt>
      <trkpt lat="39.8551580" lon="-4.3045530">
        <ele>465.8</ele>
        <time>2019-07-08T10:11:22Z</time>
      </trkpt>
      <trkpt lat="39.8549120" lon="-4.3044830">
        <ele>466.0</ele>
        <time>2019-07-08T10:11:26Z</time>
      </trkpt>
      <trkpt lat="39.8547970" lon="-4.3044590">
        <ele>466.0</ele>
        <time>2019-07-08T10:11:28Z</time>
      </trkpt>
      <trkpt lat="39.8545670" lon="-4.3044540">
        <ele>466.2</ele>
        <time>2019-07-08T10:11:32Z</time>
      </trkpt>
      <trkpt lat="39.8544000" lon="-4.3044480">
        <ele>466.2</ele>
        <time>2019-07-08T10:11:35Z</time>
      </trkpt>
      <trkpt lat="39.8542300" lon="-4.3044400">
        <ele>467.0</ele>
        <time>2019-07-08T10:11:38Z</time>
      </trkpt>
      <trkpt lat="39.8540140" lon="-4.3045080">
        <ele>467.4</ele>
        <time>2019-07-08T10:11:42Z</time>
      </trkpt>
      <trkpt lat="39.8539020" lon="-4.3045210">
        <ele>467.4</ele>
        <time>2019-07-08T10:11:44Z</time>
      </trkpt>
      <trkpt lat="39.8537470" lon="-4.3045490">
        <ele>467.2</ele>
        <time>2019-07-08T10:11:47Z</time>
      </trkpt>
      <trkpt lat="39.8535090" lon="-4.3046080">
        <ele>467.6</ele>
        <time>2019-07-08T10:11:52Z</time>
      </trkpt>
      <trkpt lat="39.8534080" lon="-4.3046480">
        <ele>467.8</ele>
        <time>2019-07-08T10:11:54Z</time>
      </trkpt>
      <trkpt lat="39.8533540" lon="-4.3046630">
        <ele>467.8</ele>
        <time>2019-07-08T10:11:55Z</time>
      </trkpt>
      <trkpt lat="39.8531190" lon="-4.3046930">
        <ele>467.2</ele>
        <time>2019-07-08T10:11:59Z</time>
      </trkpt>
      <trkpt lat="39.8529910" lon="-4.3047240">
        <ele>466.6</ele>
        <time>2019-07-08T10:12:01Z</time>
      </trkpt>
      <trkpt lat="39.8528560" lon="-4.3047830">
        <ele>466.4</ele>
        <time>2019-07-08T10:12:03Z</time>
      </trkpt>
      <trkpt lat="39.8527130" lon="-4.3048520">
        <ele>466.0</ele>
        <time>2019-07-08T10:12:05Z</time>
      </trkpt>
      <trkpt lat="39.8525640" lon="-4.3049050">
        <ele>464.2</ele>
        <time>2019-07-08T10:12:07Z</time>
      </trkpt>
      <trkpt lat="39.8524120" lon="-4.3049510">
        <ele>463.4</ele>
        <time>2019-07-08T10:12:09Z</time>
      </trkpt>
      <trkpt lat="39.8523350" lon="-4.3049730">
        <ele>463.0</ele>
        <time>2019-07-08T10:12:10Z</time>
      </trkpt>
      <trkpt lat="39.8520220" lon="-4.3050590">
        <ele>462.2</ele>
        <time>2019-07-08T10:12:14Z</time>
      </trkpt>
      <trkpt lat="39.8519440" lon="-4.3050800">
        <ele>461.6</ele>
        <time>2019-07-08T10:12:15Z</time>
      </trkpt>
      <trkpt lat="39.8518030" lon="-4.3051250">
        <ele>460.8</ele>
        <time>2019-07-08T10:12:17Z</time>
      </trkpt>
      <trkpt lat="39.8517370" lon="-4.3051500">
        <ele>460.2</ele>
        <time>2019-07-08T10:12:18Z</time>
      </trkpt>
      <trkpt lat="39.8515370" lon="-4.3052250">
        <ele>458.6</ele>
        <time>2019-07-08T10:12:21Z</time>
      </trkpt>
      <trkpt lat="39.8514700" lon="-4.3052430">
        <ele>457.6</ele>
        <time>2019-07-08T10:12:22Z</time>
      </trkpt>
      <trkpt lat="39.8514020" lon="-4.3052530">
        <ele>457.2</ele>
        <time>2019-07-08T10:12:23Z</time>
      </trkpt>
      <trkpt lat="39.8512270" lon="-4.3052510">
        <ele>456.8</ele>
        <time>2019-07-08T10:12:26Z</time>
      </trkpt>
      <trkpt lat="39.8511880" lon="-4.3052360">
        <ele>456.4</ele>
        <time>2019-07-08T10:12:27Z</time>
      </trkpt>
      <trkpt lat="39.8510630" lon="-4.3051130">
        <ele>455.6</ele>
        <time>2019-07-08T10:12:31Z</time>
      </trkpt>
      <trkpt lat="39.8510380" lon="-4.3050660">
        <ele>455.4</ele>
        <time>2019-07-08T10:12:32Z</time>
      </trkpt>
      <trkpt lat="39.8510140" lon="-4.3050180">
        <ele>455.4</ele>
        <time>2019-07-08T10:12:33Z</time>
      </trkpt>
      <trkpt lat="39.8509430" lon="-4.3048590">
        <ele>455.4</ele>
        <time>2019-07-08T10:12:36Z</time>
      </trkpt>
      <trkpt lat="39.8509060" lon="-4.3048160">
        <ele>455.2</ele>
        <time>2019-07-08T10:12:37Z</time>
      </trkpt>
      <trkpt lat="39.8508110" lon="-4.3047960">
        <ele>454.8</ele>
        <time>2019-07-08T10:12:39Z</time>
      </trkpt>
      <trkpt lat="39.8507620" lon="-4.3048170">
        <ele>454.6</ele>
        <time>2019-07-08T10:12:40Z</time>
      </trkpt>
      <trkpt lat="39.8507180" lon="-4.3048530">
        <ele>454.2</ele>
        <time>2019-07-08T10:12:41Z</time>
      </trkpt>
      <trkpt lat="39.8505980" lon="-4.3049810">
        <ele>453.8</ele>
        <time>2019-07-08T10:12:44Z</time>
      </trkpt>
      <trkpt lat="39.8505220" lon="-4.3050520">
        <ele>454.2</ele>
        <time>2019-07-08T10:12:46Z</time>
      </trkpt>
      <trkpt lat="39.8504260" lon="-4.3051480">
        <ele>454.4</ele>
        <time>2019-07-08T10:12:49Z</time>
      </trkpt>
      <trkpt lat="39.8503680" lon="-4.3051950">
        <ele>454.6</ele>
        <time>2019-07-08T10:12:52Z</time>
      </trkpt>
      <trkpt lat="39.8503510" lon="-4.3051990">
        <ele>454.6</ele>
        <time>2019-07-08T10:12:53Z</time>
      </trkpt>
      <trkpt lat="39.8502020" lon="-4.3051600">
        <ele>455.0</ele>
        <time>2019-07-08T10:12:58Z</time>
      </trkpt>
      <trkpt lat="39.8500820" lon="-4.3051170">
        <ele>455.2</ele>
        <time>2019-07-08T10:13:01Z</time>
      </trkpt>
      <trkpt lat="39.8499980" lon="-4.3050850">
        <ele>455.4</ele>
        <time>2019-07-08T10:13:03Z</time>
      </trkpt>
      <trkpt lat="39.8499530" lon="-4.3050660">
        <ele>455.4</ele>
        <time>2019-07-08T10:13:04Z</time>
      </trkpt>
      <trkpt lat="39.8498140" lon="-4.3050290">
        <ele>455.4</ele>
        <time>2019-07-08T10:13:07Z</time>
      </trkpt>
      <trkpt lat="39.8496700" lon="-4.3050070">
        <ele>455.4</ele>
        <time>2019-07-08T10:13:10Z</time>
      </trkpt>
      <trkpt lat="39.8496260" lon="-4.3050020">
        <ele>455.4</ele>
        <time>2019-07-08T10:13:11Z</time>
      </trkpt>
      <trkpt lat="39.8495830" lon="-4.3049950">
        <ele>455.4</ele>
        <time>2019-07-08T10:13:12Z</time>
      </trkpt>
      <trkpt lat="39.8493630" lon="-4.3049370">
        <ele>455.8</ele>
        <time>2019-07-08T10:13:17Z</time>
      </trkpt>
      <trkpt lat="39.8491880" lon="-4.3048860">
        <ele>456.0</ele>
        <time>2019-07-08T10:13:21Z</time>
      </trkpt>
      <trkpt lat="39.8490570" lon="-4.3048490">
        <ele>455.8</ele>
        <time>2019-07-08T10:13:24Z</time>
      </trkpt>
      <trkpt lat="39.8489320" lon="-4.3048110">
        <ele>456.2</ele>
        <time>2019-07-08T10:13:27Z</time>
      </trkpt>
      <trkpt lat="39.8487400" lon="-4.3047670">
        <ele>457.2</ele>
        <time>2019-07-08T10:13:32Z</time>
      </trkpt>
      <trkpt lat="39.8487040" lon="-4.3047640">
        <ele>457.4</ele>
        <time>2019-07-08T10:13:33Z</time>
      </trkpt>
      <trkpt lat="39.8486070" lon="-4.3047630">
        <ele>458.0</ele>
        <time>2019-07-08T10:13:36Z</time>
      </trkpt>
      <trkpt lat="39.8485470" lon="-4.3047620">
        <ele>458.8</ele>
        <time>2019-07-08T10:13:38Z</time>
      </trkpt>
      <trkpt lat="39.8484850" lon="-4.3047530">
        <ele>459.2</ele>
        <time>2019-07-08T10:13:40Z</time>
      </trkpt>
      <trkpt lat="39.8483130" lon="-4.3047160">
        <ele>459.4</ele>
        <time>2019-07-08T10:13:45Z</time>
      </trkpt>
      <trkpt lat="39.8482390" lon="-4.3047050">
        <ele>460.0</ele>
        <time>2019-07-08T10:13:47Z</time>
      </trkpt>
      <trkpt lat="39.8480900" lon="-4.3046860">
        <ele>460.2</ele>
        <time>2019-07-08T10:13:51Z</time>
      </trkpt>
      <trkpt lat="39.8478970" lon="-4.3046570">
        <ele>460.6</ele>
        <time>2019-07-08T10:13:56Z</time>
      </trkpt>
      <trkpt lat="39.8476500" lon="-4.3046160">
        <ele>460.6</ele>
        <time>2019-07-08T10:14:02Z</time>
      </trkpt>
      <trkpt lat="39.8475610" lon="-4.3045950">
        <ele>460.6</ele>
        <time>2019-07-08T10:14:04Z</time>
      </trkpt>
      <trkpt lat="39.8474640" lon="-4.3045790">
        <ele>460.6</ele>
        <time>2019-07-08T10:14:06Z</time>
      </trkpt>
      <trkpt lat="39.8472570" lon="-4.3045420">
        <ele>460.6</ele>
        <time>2019-07-08T10:14:10Z</time>
      </trkpt>
      <trkpt lat="39.8471520" lon="-4.3045320">
        <ele>460.4</ele>
        <time>2019-07-08T10:14:12Z</time>
      </trkpt>
      <trkpt lat="39.8470470" lon="-4.3045260">
        <ele>460.4</ele>
        <time>2019-07-08T10:14:14Z</time>
      </trkpt>
      <trkpt lat="39.8469450" lon="-4.3045120">
        <ele>460.6</ele>
        <time>2019-07-08T10:14:16Z</time>
      </trkpt>
      <trkpt lat="39.8465350" lon="-4.3044600">
        <ele>460.8</ele>
        <time>2019-07-08T10:14:24Z</time>
      </trkpt>
      <trkpt lat="39.8463260" lon="-4.3044370">
        <ele>460.6</ele>
        <time>2019-07-08T10:14:28Z</time>
      </trkpt>
      <trkpt lat="39.8462260" lon="-4.3044290">
        <ele>460.6</ele>
        <time>2019-07-08T10:14:30Z</time>
      </trkpt>
      <trkpt lat="39.8461780" lon="-4.3044310">
        <ele>460.6</ele>
        <time>2019-07-08T10:14:31Z</time>
      </trkpt>
      <trkpt lat="39.8461300" lon="-4.3044380">
        <ele>460.6</ele>
        <time>2019-07-08T10:14:32Z</time>
      </trkpt>
      <trkpt lat="39.8460400" lon="-4.3044600">
        <ele>460.8</ele>
        <time>2019-07-08T10:14:34Z</time>
      </trkpt>
      <trkpt lat="39.8459590" lon="-4.3044970">
        <ele>461.0</ele>
        <time>2019-07-08T10:14:36Z</time>
      </trkpt>
      <trkpt lat="39.8457760" lon="-4.3046370">
        <ele>461.2</ele>
        <time>2019-07-08T10:14:42Z</time>
      </trkpt>
      <trkpt lat="39.8457230" lon="-4.3046840">
        <ele>462.0</ele>
        <time>2019-07-08T10:14:44Z</time>
      </trkpt>
      <trkpt lat="39.8456480" lon="-4.3047530">
        <ele>462.8</ele>
        <time>2019-07-08T10:14:47Z</time>
      </trkpt>
      <trkpt lat="39.8456000" lon="-4.3047850">
        <ele>463.2</ele>
        <time>2019-07-08T10:14:49Z</time>
      </trkpt>
      <trkpt lat="39.8455100" lon="-4.3048820">
        <ele>464.0</ele>
        <time>2019-07-08T10:14:53Z</time>
      </trkpt>
      <trkpt lat="39.8454870" lon="-4.3049070">
        <ele>464.2</ele>
        <time>2019-07-08T10:14:54Z</time>
      </trkpt>
      <trkpt lat="39.8454420" lon="-4.3049580">
        <ele>464.6</ele>
        <time>2019-07-08T10:14:56Z</time>
      </trkpt>
      <trkpt lat="39.8453960" lon="-4.3050070">
        <ele>465.2</ele>
        <time>2019-07-08T10:14:58Z</time>
      </trkpt>
      <trkpt lat="39.8452940" lon="-4.3051310">
        <ele>466.0</ele>
        <time>2019-07-08T10:15:03Z</time>
      </trkpt>
      <trkpt lat="39.8452730" lon="-4.3051560">
        <ele>466.2</ele>
        <time>2019-07-08T10:15:04Z</time>
      </trkpt>
      <trkpt lat="39.8452520" lon="-4.3051800">
        <ele>466.2</ele>
        <time>2019-07-08T10:15:05Z</time>
      </trkpt>
      <trkpt lat="39.8451330" lon="-4.3052830">
        <ele>467.2</ele>
        <time>2019-07-08T10:15:10Z</time>
      </trkpt>
      <trkpt lat="39.8450810" lon="-4.3053200">
        <ele>467.4</ele>
        <time>2019-07-08T10:15:12Z</time>
      </trkpt>
      <trkpt lat="39.8449830" lon="-4.3053790">
        <ele>468.2</ele>
        <time>2019-07-08T10:15:16Z</time>
      </trkpt>
      <trkpt lat="39.8449330" lon="-4.3054120">
        <ele>469.0</ele>
        <time>2019-07-08T10:15:18Z</time>
      </trkpt>
      <trkpt lat="39.8447940" lon="-4.3054710">
        <ele>470.0</ele>
        <time>2019-07-08T10:15:23Z</time>
      </trkpt>
      <trkpt lat="39.8446400" lon="-4.3055150">
        <ele>471.0</ele>
        <time>2019-07-08T10:15:28Z</time>
      </trkpt>
      <trkpt lat="39.8445790" lon="-4.3055280">
        <ele>471.6</ele>
        <time>2019-07-08T10:15:30Z</time>
      </trkpt>
      <trkpt lat="39.8443490" lon="-4.3055190">
        <ele>472.2</ele>
        <time>2019-07-08T10:15:37Z</time>
      </trkpt>
      <trkpt lat="39.8443130" lon="-4.3055110">
        <ele>472.4</ele>
        <time>2019-07-08T10:15:38Z</time>
      </trkpt>
      <trkpt lat="39.8440230" lon="-4.3054360">
        <ele>473.2</ele>
        <time>2019-07-08T10:15:46Z</time>
      </trkpt>
      <trkpt lat="39.8439870" lon="-4.3054240">
        <ele>473.2</ele>
        <time>2019-07-08T10:15:47Z</time>
      </trkpt>
      <trkpt lat="39.8438730" lon="-4.3053850">
        <ele>473.4</ele>
        <time>2019-07-08T10:15:50Z</time>
      </trkpt>
      <trkpt lat="39.8437420" lon="-4.3053300">
        <ele>473.0</ele>
        <time>2019-07-08T10:15:53Z</time>
      </trkpt>
      <trkpt lat="39.8436930" lon="-4.3053090">
        <ele>472.8</ele>
        <time>2019-07-08T10:15:54Z</time>
      </trkpt>
      <trkpt lat="39.8435970" lon="-4.3052630">
        <ele>472.6</ele>
        <time>2019-07-08T10:15:56Z</time>
      </trkpt>
      <trkpt lat="39.8435140" lon="-4.3052250">
        <ele>472.2</ele>
        <time>2019-07-08T10:15:58Z</time>
      </trkpt>
      <trkpt lat="39.8434720" lon="-4.3052030">
        <ele>472.4</ele>
        <time>2019-07-08T10:15:59Z</time>
      </trkpt>
      <trkpt lat="39.8434280" lon="-4.3051770">
        <ele>472.0</ele>
        <time>2019-07-08T10:16:00Z</time>
      </trkpt>
      <trkpt lat="39.8433810" lon="-4.3051510">
        <ele>471.8</ele>
        <time>2019-07-08T10:16:01Z</time>
      </trkpt>
      <trkpt lat="39.8431690" lon="-4.3050370">
        <ele>471.6</ele>
        <time>2019-07-08T10:16:05Z</time>
      </trkpt>
      <trkpt lat="39.8431100" lon="-4.3050050">
        <ele>471.0</ele>
        <time>2019-07-08T10:16:06Z</time>
      </trkpt>
      <trkpt lat="39.8429250" lon="-4.3049060">
        <ele>470.2</ele>
        <time>2019-07-08T10:16:09Z</time>
      </trkpt>
      <trkpt lat="39.8428600" lon="-4.3048720">
        <ele>469.8</ele>
        <time>2019-07-08T10:16:10Z</time>
      </trkpt>
      <trkpt lat="39.8427270" lon="-4.3048020">
        <ele>469.6</ele>
        <time>2019-07-08T10:16:12Z</time>
      </trkpt>
      <trkpt lat="39.8425150" lon="-4.3046950">
        <ele>469.0</ele>
        <time>2019-07-08T10:16:15Z</time>
      </trkpt>
      <trkpt lat="39.8424420" lon="-4.3046570">
        <ele>468.6</ele>
        <time>2019-07-08T10:16:16Z</time>
      </trkpt>
      <trkpt lat="39.8422200" lon="-4.3045370">
        <ele>468.0</ele>
        <time>2019-07-08T10:16:19Z</time>
      </trkpt>
      <trkpt lat="39.8421450" lon="-4.3044970">
        <ele>467.8</ele>
        <time>2019-07-08T10:16:20Z</time>
      </trkpt>
      <trkpt lat="39.8417900" lon="-4.3043120">
        <ele>467.6</ele>
        <time>2019-07-08T10:16:25Z</time>
      </trkpt>
      <trkpt lat="39.8417230" lon="-4.3042770">
        <ele>467.8</ele>
        <time>2019-07-08T10:16:26Z</time>
      </trkpt>
      <trkpt lat="39.8414750" lon="-4.3041410">
        <ele>467.4</ele>
        <time>2019-07-08T10:16:30Z</time>
      </trkpt>
      <trkpt lat="39.8412400" lon="-4.3040120">
        <ele>467.0</ele>
        <time>2019-07-08T10:16:34Z</time>
      </trkpt>
      <trkpt lat="39.8411190" lon="-4.3039510">
        <ele>466.8</ele>
        <time>2019-07-08T10:16:36Z</time>
      </trkpt>
      <trkpt lat="39.8410580" lon="-4.3039190">
        <ele>466.6</ele>
        <time>2019-07-08T10:16:37Z</time>
      </trkpt>
      <trkpt lat="39.8409330" lon="-4.3038510">
        <ele>466.6</ele>
        <time>2019-07-08T10:16:39Z</time>
      </trkpt>
      <trkpt lat="39.8406170" lon="-4.3036780">
        <ele>466.6</ele>
        <time>2019-07-08T10:16:44Z</time>
      </trkpt>
      <trkpt lat="39.8400540" lon="-4.3033750">
        <ele>466.4</ele>
        <time>2019-07-08T10:16:53Z</time>
      </trkpt>
      <trkpt lat="39.8399900" lon="-4.3033400">
        <ele>466.4</ele>
        <time>2019-07-08T10:16:54Z</time>
      </trkpt>
      <trkpt lat="39.8397970" lon="-4.3032400">
        <ele>465.8</ele>
        <time>2019-07-08T10:16:57Z</time>
      </trkpt>
      <trkpt lat="39.8397310" lon="-4.3032070">
        <ele>465.6</ele>
        <time>2019-07-08T10:16:58Z</time>
      </trkpt>
      <trkpt lat="39.8394710" lon="-4.3030690">
        <ele>465.2</ele>
        <time>2019-07-08T10:17:02Z</time>
      </trkpt>
      <trkpt lat="39.8389560" lon="-4.3028040">
        <ele>464.6</ele>
        <time>2019-07-08T10:17:10Z</time>
      </trkpt>
      <trkpt lat="39.8388300" lon="-4.3027360">
        <ele>464.2</ele>
        <time>2019-07-08T10:17:12Z</time>
      </trkpt>
      <trkpt lat="39.8383250" lon="-4.3024560">
        <ele>463.8</ele>
        <time>2019-07-08T10:17:20Z</time>
      </trkpt>
      <trkpt lat="39.8381310" lon="-4.3023490">
        <ele>463.6</ele>
        <time>2019-07-08T10:17:23Z</time>
      </trkpt>
      <trkpt lat="39.8380640" lon="-4.3023150">
        <ele>463.4</ele>
        <time>2019-07-08T10:17:24Z</time>
      </trkpt>
      <trkpt lat="39.8375150" lon="-4.3020200">
        <ele>463.4</ele>
        <time>2019-07-08T10:17:32Z</time>
      </trkpt>
      <trkpt lat="39.8370220" lon="-4.3017660">
        <ele>462.6</ele>
        <time>2019-07-08T10:17:39Z</time>
      </trkpt>
      <trkpt lat="39.8369500" lon="-4.3017230">
        <ele>462.2</ele>
        <time>2019-07-08T10:17:40Z</time>
      </trkpt>
      <trkpt lat="39.8366160" lon="-4.3014660">
        <ele>461.0</ele>
        <time>2019-07-08T10:17:45Z</time>
      </trkpt>
      <trkpt lat="39.8361430" lon="-4.3010380">
        <ele>461.6</ele>
        <time>2019-07-08T10:17:53Z</time>
      </trkpt>
      <trkpt lat="39.8357040" lon="-4.3006320">
        <ele>461.0</ele>
        <time>2019-07-08T10:18:01Z</time>
      </trkpt>
      <trkpt lat="39.8355490" lon="-4.3004870">
        <ele>461.0</ele>
        <time>2019-07-08T10:18:04Z</time>
      </trkpt>
      <trkpt lat="39.8352990" lon="-4.3002490">
        <ele>461.0</ele>
        <time>2019-07-08T10:18:09Z</time>
      </trkpt>
      <trkpt lat="39.8351530" lon="-4.3001100">
        <ele>461.0</ele>
        <time>2019-07-08T10:18:12Z</time>
      </trkpt>
      <trkpt lat="39.8349350" lon="-4.2999130">
        <ele>461.0</ele>
        <time>2019-07-08T10:18:17Z</time>
      </trkpt>
      <trkpt lat="39.8349000" lon="-4.2998960">
        <ele>460.8</ele>
        <time>2019-07-08T10:18:18Z</time>
      </trkpt>
      <trkpt lat="39.8348290" lon="-4.2998970">
        <ele>460.8</ele>
        <time>2019-07-08T10:18:20Z</time>
      </trkpt>
      <trkpt lat="39.8346720" lon="-4.2999320">
        <ele>460.4</ele>
        <time>2019-07-08T10:18:24Z</time>
      </trkpt>
      <trkpt lat="39.8346320" lon="-4.2999310">
        <ele>460.4</ele>
        <time>2019-07-08T10:18:25Z</time>
      </trkpt>
      <trkpt lat="39.8345080" lon="-4.2998930">
        <ele>460.6</ele>
        <time>2019-07-08T10:18:28Z</time>
      </trkpt>
      <trkpt lat="39.8344170" lon="-4.2998650">
        <ele>460.6</ele>
        <time>2019-07-08T10:18:30Z</time>
      </trkpt>
      <trkpt lat="39.8340710" lon="-4.2998070">
        <ele>461.6</ele>
        <time>2019-07-08T10:18:37Z</time>
      </trkpt>
      <trkpt lat="39.8338630" lon="-4.2998110">
        <ele>461.4</ele>
        <time>2019-07-08T10:18:41Z</time>
      </trkpt>
      <trkpt lat="39.8337130" lon="-4.2998360">
        <ele>461.2</ele>
        <time>2019-07-08T10:18:44Z</time>
      </trkpt>
      <trkpt lat="39.8335670" lon="-4.2998450">
        <ele>461.2</ele>
        <time>2019-07-08T10:18:47Z</time>
      </trkpt>
      <trkpt lat="39.8333720" lon="-4.2998570">
        <ele>461.2</ele>
        <time>2019-07-08T10:18:51Z</time>
      </trkpt>
      <trkpt lat="39.8332210" lon="-4.2998660">
        <ele>461.0</ele>
        <time>2019-07-08T10:18:54Z</time>
      </trkpt>
      <trkpt lat="39.8330750" lon="-4.2998480">
        <ele>460.8</ele>
        <time>2019-07-08T10:18:57Z</time>
      </trkpt>
      <trkpt lat="39.8327170" lon="-4.2998020">
        <ele>461.2</ele>
        <time>2019-07-08T10:19:04Z</time>
      </trkpt>
      <trkpt lat="39.8325040" lon="-4.2998340">
        <ele>460.6</ele>
        <time>2019-07-08T10:19:08Z</time>
      </trkpt>
      <trkpt lat="39.8324000" lon="-4.2998770">
        <ele>460.4</ele>
        <time>2019-07-08T10:19:10Z</time>
      </trkpt>
      <trkpt lat="39.8323480" lon="-4.2999000">
        <ele>460.2</ele>
        <time>2019-07-08T10:19:11Z</time>
      </trkpt>
      <trkpt lat="39.8322350" lon="-4.2999340">
        <ele>460.4</ele>
        <time>2019-07-08T10:19:13Z</time>
      </trkpt>
      <trkpt lat="39.8321140" lon="-4.2999330">
        <ele>460.4</ele>
        <time>2019-07-08T10:19:15Z</time>
      </trkpt>
      <trkpt lat="39.8319280" lon="-4.2999230">
        <ele>460.6</ele>
        <time>2019-07-08T10:19:18Z</time>
      </trkpt>
      <trkpt lat="39.8318680" lon="-4.2999350">
        <ele>460.6</ele>
        <time>2019-07-08T10:19:19Z</time>
      </trkpt>
      <trkpt lat="39.8318100" lon="-4.2999590">
        <ele>460.4</ele>
        <time>2019-07-08T10:19:20Z</time>
      </trkpt>
      <trkpt lat="39.8316690" lon="-4.3001050">
        <ele>460.4</ele>
        <time>2019-07-08T10:19:23Z</time>
      </trkpt>
      <trkpt lat="39.8315250" lon="-4.3003740">
        <ele>460.0</ele>
        <time>2019-07-08T10:19:27Z</time>
      </trkpt>
      <trkpt lat="39.8314830" lon="-4.3004350">
        <ele>459.8</ele>
        <time>2019-07-08T10:19:28Z</time>
      </trkpt>
      <trkpt lat="39.8313940" lon="-4.3005480">
        <ele>459.2</ele>
        <time>2019-07-08T10:19:30Z</time>
      </trkpt>
      <trkpt lat="39.8312040" lon="-4.3007390">
        <ele>459.6</ele>
        <time>2019-07-08T10:19:34Z</time>
      </trkpt>
      <trkpt lat="39.8311600" lon="-4.3007920">
        <ele>459.8</ele>
        <time>2019-07-08T10:19:35Z</time>
      </trkpt>
      <trkpt lat="39.8310130" lon="-4.3010430">
        <ele>459.8</ele>
        <time>2019-07-08T10:19:39Z</time>
      </trkpt>
      <trkpt lat="39.8309770" lon="-4.3011070">
        <ele>459.8</ele>
        <time>2019-07-08T10:19:40Z</time>
      </trkpt>
      <trkpt lat="39.8308440" lon="-4.3012600">
        <ele>459.8</ele>
        <time>2019-07-08T10:19:43Z</time>
      </trkpt>
      <trkpt lat="39.8305250" lon="-4.3014970">
        <ele>459.6</ele>
        <time>2019-07-08T10:19:49Z</time>
      </trkpt>
      <trkpt lat="39.8302090" lon="-4.3017250">
        <ele>459.4</ele>
        <time>2019-07-08T10:19:55Z</time>
      </trkpt>
      <trkpt lat="39.8298830" lon="-4.3020610">
        <ele>459.2</ele>
        <time>2019-07-08T10:20:02Z</time>
      </trkpt>
      <trkpt lat="39.8295260" lon="-4.3024810">
        <ele>460.0</ele>
        <time>2019-07-08T10:20:11Z</time>
      </trkpt>
      <trkpt lat="39.8294440" lon="-4.3025670">
        <ele>459.6</ele>
        <time>2019-07-08T10:20:13Z</time>
      </trkpt>
      <trkpt lat="39.8293060" lon="-4.3026720">
        <ele>460.0</ele>
        <time>2019-07-08T10:20:16Z</time>
      </trkpt>
      <trkpt lat="39.8292540" lon="-4.3026920">
        <ele>460.4</ele>
        <time>2019-07-08T10:20:17Z</time>
      </trkpt>
      <trkpt lat="39.8291990" lon="-4.3027020">
        <ele>460.4</ele>
        <time>2019-07-08T10:20:18Z</time>
      </trkpt>
      <trkpt lat="39.8290300" lon="-4.3026990">
        <ele>460.2</ele>
        <time>2019-07-08T10:20:21Z</time>
      </trkpt>
      <trkpt lat="39.8289720" lon="-4.3026910">
        <ele>460.0</ele>
        <time>2019-07-08T10:20:22Z</time>
      </trkpt>
      <trkpt lat="39.8287450" lon="-4.3026460">
        <ele>460.0</ele>
        <time>2019-07-08T10:20:26Z</time>
      </trkpt>
      <trkpt lat="39.8286880" lon="-4.3026520">
        <ele>460.2</ele>
        <time>2019-07-08T10:20:27Z</time>
      </trkpt>
      <trkpt lat="39.8285610" lon="-4.3027300">
        <ele>459.6</ele>
        <time>2019-07-08T10:20:30Z</time>
      </trkpt>
      <trkpt lat="39.8285350" lon="-4.3027760">
        <ele>459.4</ele>
        <time>2019-07-08T10:20:31Z</time>
      </trkpt>
      <trkpt lat="39.8284990" lon="-4.3028970">
        <ele>459.4</ele>
        <time>2019-07-08T10:20:33Z</time>
      </trkpt>
      <trkpt lat="39.8284860" lon="-4.3029650">
        <ele>459.4</ele>
        <time>2019-07-08T10:20:34Z</time>
      </trkpt>
      <trkpt lat="39.8284150" lon="-4.3034010">
        <ele>459.4</ele>
        <time>2019-07-08T10:20:40Z</time>
      </trkpt>
      <trkpt lat="39.8283180" lon="-4.3039340">
        <ele>458.6</ele>
        <time>2019-07-08T10:20:47Z</time>
      </trkpt>
      <trkpt lat="39.8283020" lon="-4.3040110">
        <ele>458.6</ele>
        <time>2019-07-08T10:20:48Z</time>
      </trkpt>
      <trkpt lat="39.8282040" lon="-4.3045390">
        <ele>457.8</ele>
        <time>2019-07-08T10:20:55Z</time>
      </trkpt>
      <trkpt lat="39.8281700" lon="-4.3047640">
        <ele>457.4</ele>
        <time>2019-07-08T10:20:58Z</time>
      </trkpt>
      <trkpt lat="39.8281020" lon="-4.3052070">
        <ele>456.6</ele>
        <time>2019-07-08T10:21:04Z</time>
      </trkpt>
      <trkpt lat="39.8280750" lon="-4.3054260">
        <ele>456.2</ele>
        <time>2019-07-08T10:21:07Z</time>
      </trkpt>
      <trkpt lat="39.8280140" lon="-4.3058640">
        <ele>456.8</ele>
        <time>2019-07-08T10:21:13Z</time>
      </trkpt>
      <trkpt lat="39.8279280" lon="-4.3064270">
        <ele>455.8</ele>
        <time>2019-07-08T10:21:21Z</time>
      </trkpt>
      <trkpt lat="39.8278210" lon="-4.3070790">
        <ele>455.6</ele>
        <time>2019-07-08T10:21:30Z</time>
      </trkpt>
      <trkpt lat="39.8277990" lon="-4.3072290">
        <ele>456.0</ele>
        <time>2019-07-08T10:21:32Z</time>
      </trkpt>
      <trkpt lat="39.8277440" lon="-4.3076110">
        <ele>455.2</ele>
        <time>2019-07-08T10:21:37Z</time>
      </trkpt>
      <trkpt lat="39.8277330" lon="-4.3076880">
        <ele>455.2</ele>
        <time>2019-07-08T10:21:38Z</time>
      </trkpt>
      <trkpt lat="39.8276690" lon="-4.3082200">
        <ele>454.8</ele>
        <time>2019-07-08T10:21:45Z</time>
      </trkpt>
      <trkpt lat="39.8276520" lon="-4.3088230">
        <ele>454.6</ele>
        <time>2019-07-08T10:21:53Z</time>
      </trkpt>
      <trkpt lat="39.8275830" lon="-4.3094910">
        <ele>454.4</ele>
        <time>2019-07-08T10:22:02Z</time>
      </trkpt>
      <trkpt lat="39.8275770" lon="-4.3096500">
        <ele>454.2</ele>
        <time>2019-07-08T10:22:04Z</time>
      </trkpt>
      <trkpt lat="39.8275890" lon="-4.3099670">
        <ele>453.4</ele>
        <time>2019-07-08T10:22:08Z</time>
      </trkpt>
      <trkpt lat="39.8276060" lon="-4.3101220">
        <ele>453.2</ele>
        <time>2019-07-08T10:22:10Z</time>
      </trkpt>
      <trkpt lat="39.8276600" lon="-4.3104990">
        <ele>452.6</ele>
        <time>2019-07-08T10:22:15Z</time>
      </trkpt>
      <trkpt lat="39.8277920" lon="-4.3109930">
        <ele>452.8</ele>
        <time>2019-07-08T10:22:22Z</time>
      </trkpt>
      <trkpt lat="39.8278060" lon="-4.3110630">
        <ele>452.6</ele>
        <time>2019-07-08T10:22:23Z</time>
      </trkpt>
      <trkpt lat="39.8278410" lon="-4.3111990">
        <ele>452.4</ele>
        <time>2019-07-08T10:22:25Z</time>
      </trkpt>
      <trkpt lat="39.8279170" lon="-4.3113930">
        <ele>452.4</ele>
        <time>2019-07-08T10:22:28Z</time>
      </trkpt>
      <trkpt lat="39.8280010" lon="-4.3115910">
        <ele>452.2</ele>
        <time>2019-07-08T10:22:31Z</time>
      </trkpt>
      <trkpt lat="39.8281350" lon="-4.3119350">
        <ele>451.4</ele>
        <time>2019-07-08T10:22:36Z</time>
      </trkpt>
      <trkpt lat="39.8282490" lon="-4.3122090">
        <ele>451.0</ele>
        <time>2019-07-08T10:22:40Z</time>
      </trkpt>
      <trkpt lat="39.8283590" lon="-4.3124770">
        <ele>450.8</ele>
        <time>2019-07-08T10:22:44Z</time>
      </trkpt>
      <trkpt lat="39.8284050" lon="-4.3126080">
        <ele>451.0</ele>
        <time>2019-07-08T10:22:46Z</time>
      </trkpt>
      <trkpt lat="39.8284120" lon="-4.3127520">
        <ele>451.2</ele>
        <time>2019-07-08T10:22:48Z</time>
      </trkpt>
      <trkpt lat="39.8284140" lon="-4.3128940">
        <ele>451.2</ele>
        <time>2019-07-08T10:22:50Z</time>
      </trkpt>
      <trkpt lat="39.8284070" lon="-4.3131040">
        <ele>451.0</ele>
        <time>2019-07-08T10:22:53Z</time>
      </trkpt>
      <trkpt lat="39.8284620" lon="-4.3132950">
        <ele>451.4</ele>
        <time>2019-07-08T10:22:56Z</time>
      </trkpt>
      <trkpt lat="39.8284850" lon="-4.3133580">
        <ele>451.4</ele>
        <time>2019-07-08T10:22:57Z</time>
      </trkpt>
      <trkpt lat="39.8286530" lon="-4.3137900">
        <ele>451.2</ele>
        <time>2019-07-08T10:23:04Z</time>
      </trkpt>
      <trkpt lat="39.8287840" lon="-4.3140990">
        <ele>451.8</ele>
        <time>2019-07-08T10:23:09Z</time>
      </trkpt>
      <trkpt lat="39.8288640" lon="-4.3142820">
        <ele>451.8</ele>
        <time>2019-07-08T10:23:12Z</time>
      </trkpt>
      <trkpt lat="39.8290270" lon="-4.3147180">
        <ele>451.2</ele>
        <time>2019-07-08T10:23:19Z</time>
      </trkpt>
      <trkpt lat="39.8290500" lon="-4.3147820">
        <ele>451.2</ele>
        <time>2019-07-08T10:23:20Z</time>
      </trkpt>
      <trkpt lat="39.8292400" lon="-4.3152820">
        <ele>451.6</ele>
        <time>2019-07-08T10:23:28Z</time>
      </trkpt>
      <trkpt lat="39.8294640" lon="-4.3158530">
        <ele>451.2</ele>
        <time>2019-07-08T10:23:37Z</time>
      </trkpt>
      <trkpt lat="39.8296980" lon="-4.3164390">
        <ele>452.0</ele>
        <time>2019-07-08T10:23:46Z</time>
      </trkpt>
      <trkpt lat="39.8297310" lon="-4.3164980">
        <ele>452.0</ele>
        <time>2019-07-08T10:23:47Z</time>
      </trkpt>
      <trkpt lat="39.8299290" lon="-4.3167730">
        <ele>452.0</ele>
        <time>2019-07-08T10:23:52Z</time>
      </trkpt>
      <trkpt lat="39.8303260" lon="-4.3171820">
        <ele>451.8</ele>
        <time>2019-07-08T10:24:01Z</time>
      </trkpt>
      <trkpt lat="39.8306800" lon="-4.3174230">
        <ele>451.6</ele>
        <time>2019-07-08T10:24:08Z</time>
      </trkpt>
      <trkpt lat="39.8307320" lon="-4.3174550">
        <ele>451.6</ele>
        <time>2019-07-08T10:24:09Z</time>
      </trkpt>
      <trkpt lat="39.8308370" lon="-4.3175160">
        <ele>451.6</ele>
        <time>2019-07-08T10:24:11Z</time>
      </trkpt>
      <trkpt lat="39.8310100" lon="-4.3175570">
        <ele>451.6</ele>
        <time>2019-07-08T10:24:14Z</time>
      </trkpt>
      <trkpt lat="39.8311260" lon="-4.3175900">
        <ele>451.6</ele>
        <time>2019-07-08T10:24:16Z</time>
      </trkpt>
      <trkpt lat="39.8311850" lon="-4.3176080">
        <ele>451.6</ele>
        <time>2019-07-08T10:24:17Z</time>
      </trkpt>
      <trkpt lat="39.8313610" lon="-4.3176550">
        <ele>451.2</ele>
        <time>2019-07-08T10:24:20Z</time>
      </trkpt>
      <trkpt lat="39.8317790" lon="-4.3176950">
        <ele>451.6</ele>
        <time>2019-07-08T10:24:27Z</time>
      </trkpt>
      <trkpt lat="39.8321970" lon="-4.3177070">
        <ele>451.4</ele>
        <time>2019-07-08T10:24:34Z</time>
      </trkpt>
      <trkpt lat="39.8326740" lon="-4.3177260">
        <ele>451.4</ele>
        <time>2019-07-08T10:24:42Z</time>
      </trkpt>
      <trkpt lat="39.8331410" lon="-4.3177400">
        <ele>451.8</ele>
        <time>2019-07-08T10:24:50Z</time>
      </trkpt>
      <trkpt lat="39.8336070" lon="-4.3177620">
        <ele>452.0</ele>
        <time>2019-07-08T10:24:58Z</time>
      </trkpt>
      <trkpt lat="39.8338350" lon="-4.3177780">
        <ele>452.4</ele>
        <time>2019-07-08T10:25:02Z</time>
      </trkpt>
      <trkpt lat="39.8341270" lon="-4.3177920">
        <ele>452.4</ele>
        <time>2019-07-08T10:25:07Z</time>
      </trkpt>
      <trkpt lat="39.8346650" lon="-4.3178260">
        <ele>451.6</ele>
        <time>2019-07-08T10:25:16Z</time>
      </trkpt>
      <trkpt lat="39.8348380" lon="-4.3178460">
        <ele>451.6</ele>
        <time>2019-07-08T10:25:19Z</time>
      </trkpt>
      <trkpt lat="39.8349550" lon="-4.3178400">
        <ele>451.6</ele>
        <time>2019-07-08T10:25:21Z</time>
      </trkpt>
      <trkpt lat="39.8350140" lon="-4.3178350">
        <ele>451.6</ele>
        <time>2019-07-08T10:25:22Z</time>
      </trkpt>
      <trkpt lat="39.8354880" lon="-4.3178510">
        <ele>451.6</ele>
        <time>2019-07-08T10:25:30Z</time>
      </trkpt>
      <trkpt lat="39.8356080" lon="-4.3178590">
        <ele>451.4</ele>
        <time>2019-07-08T10:25:32Z</time>
      </trkpt>
      <trkpt lat="39.8361470" lon="-4.3178960">
        <ele>451.2</ele>
        <time>2019-07-08T10:25:41Z</time>
      </trkpt>
      <trkpt lat="39.8362080" lon="-4.3179050">
        <ele>451.4</ele>
        <time>2019-07-08T10:25:42Z</time>
      </trkpt>
      <trkpt lat="39.8367410" lon="-4.3180300">
        <ele>451.6</ele>
        <time>2019-07-08T10:25:51Z</time>
      </trkpt>
      <trkpt lat="39.8371200" lon="-4.3182390">
        <ele>451.6</ele>
        <time>2019-07-08T10:25:58Z</time>
      </trkpt>
      <trkpt lat="39.8372720" lon="-4.3183390">
        <ele>451.8</ele>
        <time>2019-07-08T10:26:01Z</time>
      </trkpt>
      <trkpt lat="39.8375590" lon="-4.3185740">
        <ele>451.6</ele>
        <time>2019-07-08T10:26:07Z</time>
      </trkpt>
      <trkpt lat="39.8377420" lon="-4.3187580">
        <ele>452.0</ele>
        <time>2019-07-08T10:26:11Z</time>
      </trkpt>
      <trkpt lat="39.8378780" lon="-4.3189120">
        <ele>451.8</ele>
        <time>2019-07-08T10:26:14Z</time>
      </trkpt>
      <trkpt lat="39.8381580" lon="-4.3192970">
        <ele>451.4</ele>
        <time>2019-07-08T10:26:21Z</time>
      </trkpt>
      <trkpt lat="39.8384310" lon="-4.3197820">
        <ele>451.6</ele>
        <time>2019-07-08T10:26:29Z</time>
      </trkpt>
      <trkpt lat="39.8384930" lon="-4.3199060">
        <ele>451.8</ele>
        <time>2019-07-08T10:26:31Z</time>
      </trkpt>
      <trkpt lat="39.8386710" lon="-4.3202860">
        <ele>451.8</ele>
        <time>2019-07-08T10:26:37Z</time>
      </trkpt>
      <trkpt lat="39.8387670" lon="-4.3204760">
        <ele>451.8</ele>
        <time>2019-07-08T10:26:40Z</time>
      </trkpt>
      <trkpt lat="39.8388890" lon="-4.3207480">
        <ele>452.0</ele>
        <time>2019-07-08T10:26:44Z</time>
      </trkpt>
      <trkpt lat="39.8391790" lon="-4.3213720">
        <ele>452.2</ele>
        <time>2019-07-08T10:26:53Z</time>
      </trkpt>
      <trkpt lat="39.8392100" lon="-4.3214440">
        <ele>452.0</ele>
        <time>2019-07-08T10:26:54Z</time>
      </trkpt>
      <trkpt lat="39.8394480" lon="-4.3219130">
        <ele>451.2</ele>
        <time>2019-07-08T10:27:01Z</time>
      </trkpt>
      <trkpt lat="39.8396380" lon="-4.3223090">
        <ele>451.4</ele>
        <time>2019-07-08T10:27:07Z</time>
      </trkpt>
      <trkpt lat="39.8398240" lon="-4.3226980">
        <ele>451.6</ele>
        <time>2019-07-08T10:27:13Z</time>
      </trkpt>
      <trkpt lat="39.8400990" lon="-4.3232650">
        <ele>451.4</ele>
        <time>2019-07-08T10:27:22Z</time>
      </trkpt>
      <trkpt lat="39.8403330" lon="-4.3237840">
        <ele>451.4</ele>
        <time>2019-07-08T10:27:30Z</time>
      </trkpt>
      <trkpt lat="39.8406330" lon="-4.3244140">
        <ele>452.0</ele>
        <time>2019-07-08T10:27:40Z</time>
      </trkpt>
      <trkpt lat="39.8408460" lon="-4.3248280">
        <ele>452.0</ele>
        <time>2019-07-08T10:27:47Z</time>
      </trkpt>
      <trkpt lat="39.8409600" lon="-4.3250620">
        <ele>451.6</ele>
        <time>2019-07-08T10:27:51Z</time>
      </trkpt>
      <trkpt lat="39.8410450" lon="-4.3252390">
        <ele>451.4</ele>
        <time>2019-07-08T10:27:54Z</time>
      </trkpt>
      <trkpt lat="39.8412680" lon="-4.3257290">
        <ele>451.2</ele>
        <time>2019-07-08T10:28:02Z</time>
      </trkpt>
      <trkpt lat="39.8412970" lon="-4.3257930">
        <ele>451.2</ele>
        <time>2019-07-08T10:28:03Z</time>
      </trkpt>
      <trkpt lat="39.8414270" lon="-4.3260410">
        <ele>451.2</ele>
        <time>2019-07-08T10:28:07Z</time>
      </trkpt>
      <trkpt lat="39.8416660" lon="-4.3265610">
        <ele>451.8</ele>
        <time>2019-07-08T10:28:15Z</time>
      </trkpt>
      <trkpt lat="39.8418450" lon="-4.3271380">
        <ele>451.8</ele>
        <time>2019-07-08T10:28:23Z</time>
      </trkpt>
      <trkpt lat="39.8419270" lon="-4.3274930">
        <ele>451.6</ele>
        <time>2019-07-08T10:28:28Z</time>
      </trkpt>
      <trkpt lat="39.8419410" lon="-4.3275680">
        <ele>451.6</ele>
        <time>2019-07-08T10:28:29Z</time>
      </trkpt>
      <trkpt lat="39.8420050" lon="-4.3282560">
        <ele>452.0</ele>
        <time>2019-07-08T10:28:38Z</time>
      </trkpt>
      <trkpt lat="39.8420520" lon="-4.3289770">
        <ele>451.8</ele>
        <time>2019-07-08T10:28:47Z</time>
      </trkpt>
      <trkpt lat="39.8420890" lon="-4.3296070">
        <ele>453.0</ele>
        <time>2019-07-08T10:28:55Z</time>
      </trkpt>
      <trkpt lat="39.8421370" lon="-4.3303150">
        <ele>452.6</ele>
        <time>2019-07-08T10:29:04Z</time>
      </trkpt>
      <trkpt lat="39.8421820" lon="-4.3310060">
        <ele>452.4</ele>
        <time>2019-07-08T10:29:13Z</time>
      </trkpt>
      <trkpt lat="39.8422310" lon="-4.3316900">
        <ele>451.6</ele>
        <time>2019-07-08T10:29:22Z</time>
      </trkpt>
      <trkpt lat="39.8422610" lon="-4.3322240">
        <ele>451.6</ele>
        <time>2019-07-08T10:29:29Z</time>
      </trkpt>
      <trkpt lat="39.8423210" lon="-4.3326790">
        <ele>451.8</ele>
        <time>2019-07-08T10:29:35Z</time>
      </trkpt>
      <trkpt lat="39.8423180" lon="-4.3327550">
        <ele>451.8</ele>
        <time>2019-07-08T10:29:36Z</time>
      </trkpt>
      <trkpt lat="39.8423330" lon="-4.3332040">
        <ele>451.2</ele>
        <time>2019-07-08T10:29:42Z</time>
      </trkpt>
      <trkpt lat="39.8423390" lon="-4.3332780">
        <ele>451.2</ele>
        <time>2019-07-08T10:29:43Z</time>
      </trkpt>
      <trkpt lat="39.8423900" lon="-4.3340150">
        <ele>452.0</ele>
        <time>2019-07-08T10:29:53Z</time>
      </trkpt>
      <trkpt lat="39.8424220" lon="-4.3346300">
        <ele>452.0</ele>
        <time>2019-07-08T10:30:01Z</time>
      </trkpt>
      <trkpt lat="39.8424490" lon="-4.3350210">
        <ele>451.8</ele>
        <time>2019-07-08T10:30:06Z</time>
      </trkpt>
      <trkpt lat="39.8424630" lon="-4.3352530">
        <ele>452.0</ele>
        <time>2019-07-08T10:30:09Z</time>
      </trkpt>
      <trkpt lat="39.8425050" lon="-4.3358930">
        <ele>451.8</ele>
        <time>2019-07-08T10:30:17Z</time>
      </trkpt>
      <trkpt lat="39.8425480" lon="-4.3363570">
        <ele>452.4</ele>
        <time>2019-07-08T10:30:23Z</time>
      </trkpt>
      <trkpt lat="39.8425570" lon="-4.3365130">
        <ele>452.6</ele>
        <time>2019-07-08T10:30:25Z</time>
      </trkpt>
      <trkpt lat="39.8425630" lon="-4.3365910">
        <ele>452.6</ele>
        <time>2019-07-08T10:30:26Z</time>
      </trkpt>
      <trkpt lat="39.8425970" lon="-4.3370530">
        <ele>452.6</ele>
        <time>2019-07-08T10:30:32Z</time>
      </trkpt>
      <trkpt lat="39.8426100" lon="-4.3372820">
        <ele>453.0</ele>
        <time>2019-07-08T10:30:35Z</time>
      </trkpt>
      <trkpt lat="39.8425950" lon="-4.3379090">
        <ele>452.8</ele>
        <time>2019-07-08T10:30:43Z</time>
      </trkpt>
      <trkpt lat="39.8425370" lon="-4.3384640">
        <ele>452.8</ele>
        <time>2019-07-08T10:30:50Z</time>
      </trkpt>
      <trkpt lat="39.8425230" lon="-4.3385380">
        <ele>453.0</ele>
        <time>2019-07-08T10:30:51Z</time>
      </trkpt>
      <trkpt lat="39.8424670" lon="-4.3388370">
        <ele>453.2</ele>
        <time>2019-07-08T10:30:56Z</time>
      </trkpt>
      <trkpt lat="39.8424530" lon="-4.3389020">
        <ele>453.4</ele>
        <time>2019-07-08T10:30:58Z</time>
      </trkpt>
      <trkpt lat="39.8424430" lon="-4.3389370">
        <ele>453.4</ele>
        <time>2019-07-08T10:31:00Z</time>
      </trkpt>
      <trkpt lat="39.8424440" lon="-4.3389370">
        <ele>453.4</ele>
        <time>2019-07-08T10:31:02Z</time>
      </trkpt>
      <trkpt lat="39.8424430" lon="-4.3389710">
        <ele>453.0</ele>
        <time>2019-07-08T10:31:16Z</time>
      </trkpt>
      <trkpt lat="39.8424430" lon="-4.3389950">
        <ele>453.0</ele>
        <time>2019-07-08T10:31:17Z</time>
      </trkpt>
      <trkpt lat="39.8424450" lon="-4.3390210">
        <ele>453.0</ele>
        <time>2019-07-08T10:31:18Z</time>
      </trkpt>
      <trkpt lat="39.8424380" lon="-4.3391560">
        <ele>452.4</ele>
        <time>2019-07-08T10:31:23Z</time>
      </trkpt>
      <trkpt lat="39.8424150" lon="-4.3391990">
        <ele>452.0</ele>
        <time>2019-07-08T10:31:28Z</time>
      </trkpt>
      <trkpt lat="39.8423910" lon="-4.3392280">
        <ele>452.0</ele>
        <time>2019-07-08T10:31:30Z</time>
      </trkpt>
      <trkpt lat="39.8423700" lon="-4.3392780">
        <ele>452.2</ele>
        <time>2019-07-08T10:31:32Z</time>
      </trkpt>
      <trkpt lat="39.8423650" lon="-4.3393120">
        <ele>452.2</ele>
        <time>2019-07-08T10:31:33Z</time>
      </trkpt>
      <trkpt lat="39.8423560" lon="-4.3393950">
        <ele>452.4</ele>
        <time>2019-07-08T10:31:35Z</time>
      </trkpt>
      <trkpt lat="39.8423470" lon="-4.3394440">
        <ele>452.4</ele>
        <time>2019-07-08T10:31:36Z</time>
      </trkpt>
      <trkpt lat="39.8423270" lon="-4.3395540">
        <ele>452.6</ele>
        <time>2019-07-08T10:31:38Z</time>
      </trkpt>
      <trkpt lat="39.8422380" lon="-4.3399930">
        <ele>452.4</ele>
        <time>2019-07-08T10:31:45Z</time>
      </trkpt>
      <trkpt lat="39.8421390" lon="-4.3404530">
        <ele>452.2</ele>
        <time>2019-07-08T10:31:52Z</time>
      </trkpt>
      <trkpt lat="39.8421120" lon="-4.3405840">
        <ele>452.0</ele>
        <time>2019-07-08T10:31:54Z</time>
      </trkpt>
      <trkpt lat="39.8419830" lon="-4.3412210">
        <ele>452.0</ele>
        <time>2019-07-08T10:32:04Z</time>
      </trkpt>
      <trkpt lat="39.8419290" lon="-4.3415310">
        <ele>452.2</ele>
        <time>2019-07-08T10:32:09Z</time>
      </trkpt>
      <trkpt lat="39.8419030" lon="-4.3417250">
        <ele>452.0</ele>
        <time>2019-07-08T10:32:12Z</time>
      </trkpt>
      <trkpt lat="39.8418290" lon="-4.3423870">
        <ele>452.4</ele>
        <time>2019-07-08T10:32:22Z</time>
      </trkpt>
      <trkpt lat="39.8417960" lon="-4.3429490">
        <ele>451.4</ele>
        <time>2019-07-08T10:32:30Z</time>
      </trkpt>
      <trkpt lat="39.8417860" lon="-4.3432300">
        <ele>451.6</ele>
        <time>2019-07-08T10:32:34Z</time>
      </trkpt>
      <trkpt lat="39.8417910" lon="-4.3434330">
        <ele>451.6</ele>
        <time>2019-07-08T10:32:37Z</time>
      </trkpt>
      <trkpt lat="39.8417650" lon="-4.3438370">
        <ele>452.0</ele>
        <time>2019-07-08T10:32:43Z</time>
      </trkpt>
      <trkpt lat="39.8417640" lon="-4.3439070">
        <ele>452.0</ele>
        <time>2019-07-08T10:32:44Z</time>
      </trkpt>
      <trkpt lat="39.8417590" lon="-4.3442510">
        <ele>451.8</ele>
        <time>2019-07-08T10:32:49Z</time>
      </trkpt>
      <trkpt lat="39.8417430" lon="-4.3448560">
        <ele>451.8</ele>
        <time>2019-07-08T10:32:58Z</time>
      </trkpt>
      <trkpt lat="39.8417200" lon="-4.3454710">
        <ele>451.6</ele>
        <time>2019-07-08T10:33:07Z</time>
      </trkpt>
      <trkpt lat="39.8416900" lon="-4.3460240">
        <ele>451.4</ele>
        <time>2019-07-08T10:33:15Z</time>
      </trkpt>
      <trkpt lat="39.8416700" lon="-4.3466120">
        <ele>451.4</ele>
        <time>2019-07-08T10:33:23Z</time>
      </trkpt>
      <trkpt lat="39.8416680" lon="-4.3467540">
        <ele>451.4</ele>
        <time>2019-07-08T10:33:25Z</time>
      </trkpt>
      <trkpt lat="39.8416580" lon="-4.3471730">
        <ele>452.2</ele>
        <time>2019-07-08T10:33:31Z</time>
      </trkpt>
      <trkpt lat="39.8416430" lon="-4.3478600">
        <ele>453.0</ele>
        <time>2019-07-08T10:33:41Z</time>
      </trkpt>
      <trkpt lat="39.8416310" lon="-4.3480960">
        <ele>453.4</ele>
        <time>2019-07-08T10:33:45Z</time>
      </trkpt>
      <trkpt lat="39.8416290" lon="-4.3482330">
        <ele>453.4</ele>
        <time>2019-07-08T10:33:47Z</time>
      </trkpt>
      <trkpt lat="39.8416170" lon="-4.3487370">
        <ele>452.8</ele>
        <time>2019-07-08T10:33:54Z</time>
      </trkpt>
      <trkpt lat="39.8416300" lon="-4.3487990">
        <ele>452.8</ele>
        <time>2019-07-08T10:33:55Z</time>
      </trkpt>
      <trkpt lat="39.8416520" lon="-4.3488930">
        <ele>452.8</ele>
        <time>2019-07-08T10:33:57Z</time>
      </trkpt>
      <trkpt lat="39.8416450" lon="-4.3489330">
        <ele>452.8</ele>
        <time>2019-07-08T10:33:58Z</time>
      </trkpt>
      <trkpt lat="39.8416380" lon="-4.3491480">
        <ele>453.0</ele>
        <time>2019-07-08T10:34:02Z</time>
      </trkpt>
      <trkpt lat="39.8416310" lon="-4.3492530">
        <ele>453.2</ele>
        <time>2019-07-08T10:34:04Z</time>
      </trkpt>
      <trkpt lat="39.8416270" lon="-4.3494320">
        <ele>453.2</ele>
        <time>2019-07-08T10:34:07Z</time>
      </trkpt>
      <trkpt lat="39.8416180" lon="-4.3495630">
        <ele>453.0</ele>
        <time>2019-07-08T10:34:09Z</time>
      </trkpt>
      <trkpt lat="39.8415780" lon="-4.3496960">
        <ele>452.6</ele>
        <time>2019-07-08T10:34:11Z</time>
      </trkpt>
      <trkpt lat="39.8415520" lon="-4.3499110">
        <ele>452.2</ele>
        <time>2019-07-08T10:34:14Z</time>
      </trkpt>
      <trkpt lat="39.8415490" lon="-4.3499840">
        <ele>452.2</ele>
        <time>2019-07-08T10:34:15Z</time>
      </trkpt>
      <trkpt lat="39.8415300" lon="-4.3507340">
        <ele>452.0</ele>
        <time>2019-07-08T10:34:25Z</time>
      </trkpt>
      <trkpt lat="39.8414980" lon="-4.3515060">
        <ele>452.0</ele>
        <time>2019-07-08T10:34:35Z</time>
      </trkpt>
      <trkpt lat="39.8414950" lon="-4.3515850">
        <ele>452.0</ele>
        <time>2019-07-08T10:34:36Z</time>
      </trkpt>
      <trkpt lat="39.8414830" lon="-4.3519850">
        <ele>451.8</ele>
        <time>2019-07-08T10:34:41Z</time>
      </trkpt>
      <trkpt lat="39.8414660" lon="-4.3525430">
        <ele>451.8</ele>
        <time>2019-07-08T10:34:48Z</time>
      </trkpt>
      <trkpt lat="39.8414400" lon="-4.3533130">
        <ele>452.0</ele>
        <time>2019-07-08T10:34:58Z</time>
      </trkpt>
      <trkpt lat="39.8414380" lon="-4.3533900">
        <ele>452.0</ele>
        <time>2019-07-08T10:34:59Z</time>
      </trkpt>
      <trkpt lat="39.8414250" lon="-4.3537020">
        <ele>452.0</ele>
        <time>2019-07-08T10:35:03Z</time>
      </trkpt>
      <trkpt lat="39.8414070" lon="-4.3542620">
        <ele>451.6</ele>
        <time>2019-07-08T10:35:10Z</time>
      </trkpt>
      <trkpt lat="39.8414050" lon="-4.3543410">
        <ele>451.6</ele>
        <time>2019-07-08T10:35:11Z</time>
      </trkpt>
      <trkpt lat="39.8413840" lon="-4.3550600">
        <ele>452.0</ele>
        <time>2019-07-08T10:35:20Z</time>
      </trkpt>
      <trkpt lat="39.8413600" lon="-4.3557680">
        <ele>452.4</ele>
        <time>2019-07-08T10:35:29Z</time>
      </trkpt>
      <trkpt lat="39.8413570" lon="-4.3558460">
        <ele>452.4</ele>
        <time>2019-07-08T10:35:30Z</time>
      </trkpt>
      <trkpt lat="39.8413280" lon="-4.3565970">
        <ele>452.6</ele>
        <time>2019-07-08T10:35:40Z</time>
      </trkpt>
      <trkpt lat="39.8413170" lon="-4.3569690">
        <ele>452.8</ele>
        <time>2019-07-08T10:35:45Z</time>
      </trkpt>
      <trkpt lat="39.8413070" lon="-4.3574120">
        <ele>452.2</ele>
        <time>2019-07-08T10:35:51Z</time>
      </trkpt>
      <trkpt lat="39.8413040" lon="-4.3575520">
        <ele>451.8</ele>
        <time>2019-07-08T10:35:53Z</time>
      </trkpt>
      <trkpt lat="39.8412980" lon="-4.3579680">
        <ele>452.0</ele>
        <time>2019-07-08T10:35:59Z</time>
      </trkpt>
      <trkpt lat="39.8412840" lon="-4.3585420">
        <ele>452.6</ele>
        <time>2019-07-08T10:36:07Z</time>
      </trkpt>
      <trkpt lat="39.8412640" lon="-4.3590700">
        <ele>453.0</ele>
        <time>2019-07-08T10:36:14Z</time>
      </trkpt>
      <trkpt lat="39.8412620" lon="-4.3591470">
        <ele>453.0</ele>
        <time>2019-07-08T10:36:15Z</time>
      </trkpt>
      <trkpt lat="39.8412310" lon="-4.3598570">
        <ele>452.6</ele>
        <time>2019-07-08T10:36:24Z</time>
      </trkpt>
      <trkpt lat="39.8412010" lon="-4.3606300">
        <ele>452.6</ele>
        <time>2019-07-08T10:36:34Z</time>
      </trkpt>
      <trkpt lat="39.8411820" lon="-4.3610810">
        <ele>452.8</ele>
        <time>2019-07-08T10:36:40Z</time>
      </trkpt>
      <trkpt lat="39.8411750" lon="-4.3613070">
        <ele>452.8</ele>
        <time>2019-07-08T10:36:43Z</time>
      </trkpt>
      <trkpt lat="39.8411680" lon="-4.3614550">
        <ele>453.0</ele>
        <time>2019-07-08T10:36:45Z</time>
      </trkpt>
      <trkpt lat="39.8411500" lon="-4.3618930">
        <ele>453.2</ele>
        <time>2019-07-08T10:36:51Z</time>
      </trkpt>
      <trkpt lat="39.8411410" lon="-4.3621770">
        <ele>452.8</ele>
        <time>2019-07-08T10:36:55Z</time>
      </trkpt>
      <trkpt lat="39.8411290" lon="-4.3625360">
        <ele>452.8</ele>
        <time>2019-07-08T10:37:00Z</time>
      </trkpt>
      <trkpt lat="39.8411290" lon="-4.3631900">
        <ele>453.0</ele>
        <time>2019-07-08T10:37:09Z</time>
      </trkpt>
      <trkpt lat="39.8411480" lon="-4.3634770">
        <ele>453.0</ele>
        <time>2019-07-08T10:37:13Z</time>
      </trkpt>
      <trkpt lat="39.8411920" lon="-4.3636850">
        <ele>452.6</ele>
        <time>2019-07-08T10:37:16Z</time>
      </trkpt>
      <trkpt lat="39.8412980" lon="-4.3641280">
        <ele>452.6</ele>
        <time>2019-07-08T10:37:23Z</time>
      </trkpt>
      <trkpt lat="39.8413840" lon="-4.3644890">
        <ele>452.6</ele>
        <time>2019-07-08T10:37:29Z</time>
      </trkpt>
      <trkpt lat="39.8414050" lon="-4.3645340">
        <ele>452.8</ele>
        <time>2019-07-08T10:37:30Z</time>
      </trkpt>
      <trkpt lat="39.8414790" lon="-4.3646770">
        <ele>452.6</ele>
        <time>2019-07-08T10:37:34Z</time>
      </trkpt>
      <trkpt lat="39.8414640" lon="-4.3648850">
        <ele>452.6</ele>
        <time>2019-07-08T10:37:39Z</time>
      </trkpt>
      <trkpt lat="39.8413460" lon="-4.3649610">
        <ele>452.6</ele>
        <time>2019-07-08T10:37:43Z</time>
      </trkpt>
      <trkpt lat="39.8410710" lon="-4.3650530">
        <ele>452.2</ele>
        <time>2019-07-08T10:37:50Z</time>
      </trkpt>
      <trkpt lat="39.8408930" lon="-4.3651320">
        <ele>452.6</ele>
        <time>2019-07-08T10:37:56Z</time>
      </trkpt>
      <trkpt lat="39.8408590" lon="-4.3651910">
        <ele>452.4</ele>
        <time>2019-07-08T10:37:59Z</time>
      </trkpt>
      <trkpt lat="39.8408490" lon="-4.3652210">
        <ele>452.2</ele>
        <time>2019-07-08T10:38:00Z</time>
      </trkpt>
      <trkpt lat="39.8408410" lon="-4.3652600">
        <ele>451.8</ele>
        <time>2019-07-08T10:38:01Z</time>
      </trkpt>
      <trkpt lat="39.8408330" lon="-4.3653110">
        <ele>451.6</ele>
        <time>2019-07-08T10:38:02Z</time>
      </trkpt>
      <trkpt lat="39.8408190" lon="-4.3654310">
        <ele>451.2</ele>
        <time>2019-07-08T10:38:04Z</time>
      </trkpt>
      <trkpt lat="39.8408100" lon="-4.3654980">
        <ele>450.6</ele>
        <time>2019-07-08T10:38:05Z</time>
      </trkpt>
      <trkpt lat="39.8407970" lon="-4.3655680">
        <ele>449.4</ele>
        <time>2019-07-08T10:38:06Z</time>
      </trkpt>
      <trkpt lat="39.8407800" lon="-4.3656380">
        <ele>448.4</ele>
        <time>2019-07-08T10:38:07Z</time>
      </trkpt>
      <trkpt lat="39.8407420" lon="-4.3657520">
        <ele>447.0</ele>
        <time>2019-07-08T10:38:09Z</time>
      </trkpt>
      <trkpt lat="39.8406780" lon="-4.3658440">
        <ele>446.0</ele>
        <time>2019-07-08T10:38:11Z</time>
      </trkpt>
      <trkpt lat="39.8405800" lon="-4.3659270">
        <ele>445.4</ele>
        <time>2019-07-08T10:38:13Z</time>
      </trkpt>
      <trkpt lat="39.8405150" lon="-4.3659620">
        <ele>444.8</ele>
        <time>2019-07-08T10:38:14Z</time>
      </trkpt>
      <trkpt lat="39.8404450" lon="-4.3659980">
        <ele>444.0</ele>
        <time>2019-07-08T10:38:15Z</time>
      </trkpt>
      <trkpt lat="39.8403750" lon="-4.3660370">
        <ele>443.0</ele>
        <time>2019-07-08T10:38:16Z</time>
      </trkpt>
      <trkpt lat="39.8403050" lon="-4.3660800">
        <ele>442.6</ele>
        <time>2019-07-08T10:38:17Z</time>
      </trkpt>
      <trkpt lat="39.8402350" lon="-4.3661260">
        <ele>441.8</ele>
        <time>2019-07-08T10:38:18Z</time>
      </trkpt>
      <trkpt lat="39.8400580" lon="-4.3662560">
        <ele>440.4</ele>
        <time>2019-07-08T10:38:21Z</time>
      </trkpt>
      <trkpt lat="39.8400140" lon="-4.3662920">
        <ele>440.0</ele>
        <time>2019-07-08T10:38:22Z</time>
      </trkpt>
      <trkpt lat="39.8399300" lon="-4.3663540">
        <ele>439.4</ele>
        <time>2019-07-08T10:38:24Z</time>
      </trkpt>
      <trkpt lat="39.8397670" lon="-4.3665060">
        <ele>438.4</ele>
        <time>2019-07-08T10:38:28Z</time>
      </trkpt>
      <trkpt lat="39.8397270" lon="-4.3665450">
        <ele>438.4</ele>
        <time>2019-07-08T10:38:29Z</time>
      </trkpt>
      <trkpt lat="39.8394850" lon="-4.3667970">
        <ele>437.4</ele>
        <time>2019-07-08T10:38:35Z</time>
      </trkpt>
      <trkpt lat="39.8394470" lon="-4.3668450">
        <ele>437.2</ele>
        <time>2019-07-08T10:38:36Z</time>
      </trkpt>
      <trkpt lat="39.8394150" lon="-4.3668970">
        <ele>437.2</ele>
        <time>2019-07-08T10:38:37Z</time>
      </trkpt>
      <trkpt lat="39.8393420" lon="-4.3670830">
        <ele>437.2</ele>
        <time>2019-07-08T10:38:40Z</time>
      </trkpt>
      <trkpt lat="39.8392800" lon="-4.3671930">
        <ele>437.2</ele>
        <time>2019-07-08T10:38:42Z</time>
      </trkpt>
      <trkpt lat="39.8392150" lon="-4.3672940">
        <ele>437.2</ele>
        <time>2019-07-08T10:38:44Z</time>
      </trkpt>
      <trkpt lat="39.8391540" lon="-4.3673930">
        <ele>437.0</ele>
        <time>2019-07-08T10:38:46Z</time>
      </trkpt>
      <trkpt lat="39.8391300" lon="-4.3674980">
        <ele>436.8</ele>
        <time>2019-07-08T10:38:48Z</time>
      </trkpt>
      <trkpt lat="39.8391850" lon="-4.3676350">
        <ele>436.6</ele>
        <time>2019-07-08T10:38:51Z</time>
      </trkpt>
      <trkpt lat="39.8392790" lon="-4.3677400">
        <ele>436.8</ele>
        <time>2019-07-08T10:38:54Z</time>
      </trkpt>
      <trkpt lat="39.8392970" lon="-4.3678320">
        <ele>437.0</ele>
        <time>2019-07-08T10:38:56Z</time>
      </trkpt>
      <trkpt lat="39.8392790" lon="-4.3679410">
        <ele>436.8</ele>
        <time>2019-07-08T10:38:58Z</time>
      </trkpt>
      <trkpt lat="39.8392670" lon="-4.3679920">
        <ele>436.6</ele>
        <time>2019-07-08T10:38:59Z</time>
      </trkpt>
      <trkpt lat="39.8392320" lon="-4.3680860">
        <ele>436.4</ele>
        <time>2019-07-08T10:39:01Z</time>
      </trkpt>
      <trkpt lat="39.8392100" lon="-4.3681300">
        <ele>436.4</ele>
        <time>2019-07-08T10:39:02Z</time>
      </trkpt>
      <trkpt lat="39.8391040" lon="-4.3683620">
        <ele>436.6</ele>
        <time>2019-07-08T10:39:07Z</time>
      </trkpt>
      <trkpt lat="39.8390690" lon="-4.3684500">
        <ele>436.6</ele>
        <time>2019-07-08T10:39:09Z</time>
      </trkpt>
      <trkpt lat="39.8389770" lon="-4.3685410">
        <ele>436.8</ele>
        <time>2019-07-08T10:39:12Z</time>
      </trkpt>
      <trkpt lat="39.8389370" lon="-4.3685570">
        <ele>436.8</ele>
        <time>2019-07-08T10:39:13Z</time>
      </trkpt>
      <trkpt lat="39.8387910" lon="-4.3686120">
        <ele>437.2</ele>
        <time>2019-07-08T10:39:17Z</time>
      </trkpt>
      <trkpt lat="39.8387270" lon="-4.3686360">
        <ele>437.4</ele>
        <time>2019-07-08T10:39:19Z</time>
      </trkpt>
      <trkpt lat="39.8386550" lon="-4.3686580">
        <ele>438.4</ele>
        <time>2019-07-08T10:39:22Z</time>
      </trkpt>
      <trkpt lat="39.8386390" lon="-4.3686580">
        <ele>438.6</ele>
        <time>2019-07-08T10:39:23Z</time>
      </trkpt>
      <trkpt lat="39.8386250" lon="-4.3686550">
        <ele>438.8</ele>
        <time>2019-07-08T10:39:24Z</time>
      </trkpt>
      <trkpt lat="39.8385620" lon="-4.3686440">
        <ele>439.6</ele>
        <time>2019-07-08T10:39:28Z</time>
      </trkpt>
      <trkpt lat="39.8385380" lon="-4.3686860">
        <ele>440.0</ele>
        <time>2019-07-08T10:39:30Z</time>
      </trkpt>
      <trkpt lat="39.8385480" lon="-4.3687990">
        <ele>440.4</ele>
        <time>2019-07-08T10:39:33Z</time>
      </trkpt>
      <trkpt lat="39.8385560" lon="-4.3688450">
        <ele>440.4</ele>
        <time>2019-07-08T10:39:34Z</time>
      </trkpt>
      <trkpt lat="39.8385530" lon="-4.3689930">
        <ele>440.4</ele>
        <time>2019-07-08T10:39:37Z</time>
      </trkpt>
      <trkpt lat="39.8385200" lon="-4.3690800">
        <ele>440.4</ele>
        <time>2019-07-08T10:39:39Z</time>
      </trkpt>
      <trkpt lat="39.8384010" lon="-4.3691850">
        <ele>440.6</ele>
        <time>2019-07-08T10:39:43Z</time>
      </trkpt>
      <trkpt lat="39.8382310" lon="-4.3691570">
        <ele>440.4</ele>
        <time>2019-07-08T10:39:47Z</time>
      </trkpt>
      <trkpt lat="39.8381910" lon="-4.3691320">
        <ele>440.4</ele>
        <time>2019-07-08T10:39:48Z</time>
      </trkpt>
      <trkpt lat="39.8380260" lon="-4.3690260">
        <ele>440.4</ele>
        <time>2019-07-08T10:39:52Z</time>
      </trkpt>
      <trkpt lat="39.8379280" lon="-4.3690020">
        <ele>440.2</ele>
        <time>2019-07-08T10:39:54Z</time>
      </trkpt>
      <trkpt lat="39.8377650" lon="-4.3690760">
        <ele>439.8</ele>
        <time>2019-07-08T10:39:57Z</time>
      </trkpt>
      <trkpt lat="39.8376570" lon="-4.3691740">
        <ele>439.0</ele>
        <time>2019-07-08T10:39:59Z</time>
      </trkpt>
      <trkpt lat="39.8375990" lon="-4.3692200">
        <ele>438.8</ele>
        <time>2019-07-08T10:40:00Z</time>
      </trkpt>
      <trkpt lat="39.8375340" lon="-4.3692560">
        <ele>438.4</ele>
        <time>2019-07-08T10:40:01Z</time>
      </trkpt>
      <trkpt lat="39.8374660" lon="-4.3692860">
        <ele>438.0</ele>
        <time>2019-07-08T10:40:02Z</time>
      </trkpt>
      <trkpt lat="39.8373340" lon="-4.3693450">
        <ele>437.4</ele>
        <time>2019-07-08T10:40:04Z</time>
      </trkpt>
      <trkpt lat="39.8371440" lon="-4.3694260">
        <ele>436.8</ele>
        <time>2019-07-08T10:40:07Z</time>
      </trkpt>
      <trkpt lat="39.8370160" lon="-4.3694710">
        <ele>436.6</ele>
        <time>2019-07-08T10:40:09Z</time>
      </trkpt>
      <trkpt lat="39.8366430" lon="-4.3696040">
        <ele>436.2</ele>
        <time>2019-07-08T10:40:15Z</time>
      </trkpt>
      <trkpt lat="39.8364700" lon="-4.3696650">
        <ele>436.2</ele>
        <time>2019-07-08T10:40:18Z</time>
      </trkpt>
      <trkpt lat="39.8360420" lon="-4.3698150">
        <ele>435.6</ele>
        <time>2019-07-08T10:40:26Z</time>
      </trkpt>
      <trkpt lat="39.8358740" lon="-4.3698680">
        <ele>435.4</ele>
        <time>2019-07-08T10:40:29Z</time>
      </trkpt>
      <trkpt lat="39.8358170" lon="-4.3698870">
        <ele>435.2</ele>
        <time>2019-07-08T10:40:30Z</time>
      </trkpt>
      <trkpt lat="39.8357600" lon="-4.3699100">
        <ele>435.0</ele>
        <time>2019-07-08T10:40:31Z</time>
      </trkpt>
      <trkpt lat="39.8356440" lon="-4.3699600">
        <ele>435.0</ele>
        <time>2019-07-08T10:40:33Z</time>
      </trkpt>
      <trkpt lat="39.8355840" lon="-4.3699800">
        <ele>435.0</ele>
        <time>2019-07-08T10:40:34Z</time>
      </trkpt>
      <trkpt lat="39.8354630" lon="-4.3700160">
        <ele>434.8</ele>
        <time>2019-07-08T10:40:36Z</time>
      </trkpt>
      <trkpt lat="39.8353560" lon="-4.3700740">
        <ele>434.6</ele>
        <time>2019-07-08T10:40:38Z</time>
      </trkpt>
      <trkpt lat="39.8352010" lon="-4.3702700">
        <ele>435.2</ele>
        <time>2019-07-08T10:40:42Z</time>
      </trkpt>
      <trkpt lat="39.8351550" lon="-4.3704700">
        <ele>435.0</ele>
        <time>2019-07-08T10:40:45Z</time>
      </trkpt>
      <trkpt lat="39.8351320" lon="-4.3706080">
        <ele>434.8</ele>
        <time>2019-07-08T10:40:47Z</time>
      </trkpt>
      <trkpt lat="39.8350480" lon="-4.3709360">
        <ele>435.4</ele>
        <time>2019-07-08T10:40:53Z</time>
      </trkpt>
      <trkpt lat="39.8350020" lon="-4.3711410">
        <ele>435.8</ele>
        <time>2019-07-08T10:40:57Z</time>
      </trkpt>
      <trkpt lat="39.8349800" lon="-4.3712440">
        <ele>436.4</ele>
        <time>2019-07-08T10:40:59Z</time>
      </trkpt>
      <trkpt lat="39.8349680" lon="-4.3712960">
        <ele>436.6</ele>
        <time>2019-07-08T10:41:00Z</time>
      </trkpt>
      <trkpt lat="39.8349020" lon="-4.3715490">
        <ele>436.4</ele>
        <time>2019-07-08T10:41:05Z</time>
      </trkpt>
      <trkpt lat="39.8348660" lon="-4.3716980">
        <ele>436.6</ele>
        <time>2019-07-08T10:41:08Z</time>
      </trkpt>
      <trkpt lat="39.8348050" lon="-4.3720530">
        <ele>437.4</ele>
        <time>2019-07-08T10:41:15Z</time>
      </trkpt>
      <trkpt lat="39.8348170" lon="-4.3724660">
        <ele>437.6</ele>
        <time>2019-07-08T10:41:22Z</time>
      </trkpt>
      <trkpt lat="39.8348180" lon="-4.3725890">
        <ele>437.4</ele>
        <time>2019-07-08T10:41:24Z</time>
      </trkpt>
      <trkpt lat="39.8348270" lon="-4.3731030">
        <ele>436.8</ele>
        <time>2019-07-08T10:41:32Z</time>
      </trkpt>
      <trkpt lat="39.8348320" lon="-4.3732320">
        <ele>436.4</ele>
        <time>2019-07-08T10:41:34Z</time>
      </trkpt>
      <trkpt lat="39.8348350" lon="-4.3734100">
        <ele>436.2</ele>
        <time>2019-07-08T10:41:37Z</time>
      </trkpt>
      <trkpt lat="39.8348330" lon="-4.3735150">
        <ele>435.8</ele>
        <time>2019-07-08T10:41:39Z</time>
      </trkpt>
      <trkpt lat="39.8348290" lon="-4.3735610">
        <ele>435.8</ele>
        <time>2019-07-08T10:41:40Z</time>
      </trkpt>
      <trkpt lat="39.8348220" lon="-4.3736080">
        <ele>435.6</ele>
        <time>2019-07-08T10:41:41Z</time>
      </trkpt>
      <trkpt lat="39.8347590" lon="-4.3737210">
        <ele>435.4</ele>
        <time>2019-07-08T10:41:44Z</time>
      </trkpt>
      <trkpt lat="39.8346040" lon="-4.3737420">
        <ele>435.2</ele>
        <time>2019-07-08T10:41:48Z</time>
      </trkpt>
      <trkpt lat="39.8343660" lon="-4.3737700">
        <ele>434.8</ele>
        <time>2019-07-08T10:41:54Z</time>
      </trkpt>
      <trkpt lat="39.8343440" lon="-4.3738290">
        <ele>434.8</ele>
        <time>2019-07-08T10:41:56Z</time>
      </trkpt>
      <trkpt lat="39.8343460" lon="-4.3738600">
        <ele>434.8</ele>
        <time>2019-07-08T10:41:57Z</time>
      </trkpt>
      <trkpt lat="39.8343490" lon="-4.3738880">
        <ele>435.0</ele>
        <time>2019-07-08T10:41:58Z</time>
      </trkpt>
      <trkpt lat="39.8343470" lon="-4.3739110">
        <ele>435.0</ele>
        <time>2019-07-08T10:41:59Z</time>
      </trkpt>
      <trkpt lat="39.8343250" lon="-4.3739390">
        <ele>435.2</ele>
        <time>2019-07-08T10:42:01Z</time>
      </trkpt>
      <trkpt lat="39.8343140" lon="-4.3739580">
        <ele>435.2</ele>
        <time>2019-07-08T10:42:02Z</time>
      </trkpt>
      <trkpt lat="39.8343050" lon="-4.3740350">
        <ele>435.2</ele>
        <time>2019-07-08T10:42:05Z</time>
      </trkpt>
      <trkpt lat="39.8342390" lon="-4.3741390">
        <ele>435.4</ele>
        <time>2019-07-08T10:42:09Z</time>
      </trkpt>
      <trkpt lat="39.8341390" lon="-4.3741870">
        <ele>436.0</ele>
        <time>2019-07-08T10:42:12Z</time>
      </trkpt>
      <trkpt lat="39.8340430" lon="-4.3742700">
        <ele>436.2</ele>
        <time>2019-07-08T10:42:15Z</time>
      </trkpt>
      <trkpt lat="39.8340210" lon="-4.3743150">
        <ele>436.4</ele>
        <time>2019-07-08T10:42:16Z</time>
      </trkpt>
      <trkpt lat="39.8339990" lon="-4.3744740">
        <ele>436.4</ele>
        <time>2019-07-08T10:42:19Z</time>
      </trkpt>
      <trkpt lat="39.8340030" lon="-4.3745310">
        <ele>436.4</ele>
        <time>2019-07-08T10:42:20Z</time>
      </trkpt>
      <trkpt lat="39.8340340" lon="-4.3749080">
        <ele>436.4</ele>
        <time>2019-07-08T10:42:27Z</time>
      </trkpt>
      <trkpt lat="39.8340400" lon="-4.3749760">
        <ele>436.2</ele>
        <time>2019-07-08T10:42:29Z</time>
      </trkpt>
      <trkpt lat="39.8340110" lon="-4.3750450">
        <ele>436.0</ele>
        <time>2019-07-08T10:42:31Z</time>
      </trkpt>
      <trkpt lat="39.8339210" lon="-4.3752190">
        <ele>435.8</ele>
        <time>2019-07-08T10:42:35Z</time>
      </trkpt>
      <trkpt lat="39.8338770" lon="-4.3753230">
        <ele>435.8</ele>
        <time>2019-07-08T10:42:37Z</time>
      </trkpt>
      <trkpt lat="39.8336840" lon="-4.3757360">
        <ele>435.6</ele>
        <time>2019-07-08T10:42:45Z</time>
      </trkpt>
      <trkpt lat="39.8336680" lon="-4.3757940">
        <ele>435.6</ele>
        <time>2019-07-08T10:42:46Z</time>
      </trkpt>
      <trkpt lat="39.8336220" lon="-4.3760390">
        <ele>436.0</ele>
        <time>2019-07-08T10:42:50Z</time>
      </trkpt>
      <trkpt lat="39.8335950" lon="-4.3762520">
        <ele>435.4</ele>
        <time>2019-07-08T10:42:55Z</time>
      </trkpt>
      <trkpt lat="39.8335920" lon="-4.3762700">
        <ele>435.4</ele>
        <time>2019-07-08T10:42:56Z</time>
      </trkpt>
      <trkpt lat="39.8335660" lon="-4.3762660">
        <ele>435.2</ele>
        <time>2019-07-08T10:42:59Z</time>
      </trkpt>
      <trkpt lat="39.8335970" lon="-4.3761710">
        <ele>435.0</ele>
        <time>2019-07-08T10:43:03Z</time>
      </trkpt>
      <trkpt lat="39.8336060" lon="-4.3761410">
        <ele>435.0</ele>
        <time>2019-07-08T10:43:04Z</time>
      </trkpt>
      <trkpt lat="39.8336120" lon="-4.3761060">
        <ele>435.0</ele>
        <time>2019-07-08T10:43:05Z</time>
      </trkpt>
      <trkpt lat="39.8336270" lon="-4.3760370">
        <ele>434.8</ele>
        <time>2019-07-08T10:43:07Z</time>
      </trkpt>
      <trkpt lat="39.8336220" lon="-4.3759500">
        <ele>435.0</ele>
        <time>2019-07-08T10:43:10Z</time>
      </trkpt>
      <trkpt lat="39.8335900" lon="-4.3759040">
        <ele>435.6</ele>
        <time>2019-07-08T10:43:13Z</time>
      </trkpt>
      <trkpt lat="39.8335560" lon="-4.3759400">
        <ele>435.8</ele>
        <time>2019-07-08T10:43:15Z</time>
      </trkpt>
      <trkpt lat="39.8335180" lon="-4.3760620">
        <ele>435.8</ele>
        <time>2019-07-08T10:43:18Z</time>
      </trkpt>
      <trkpt lat="39.8335020" lon="-4.3761090">
        <ele>436.0</ele>
        <time>2019-07-08T10:43:19Z</time>
      </trkpt>
      <trkpt lat="39.8334820" lon="-4.3761570">
        <ele>436.0</ele>
        <time>2019-07-08T10:43:20Z</time>
      </trkpt>
      <trkpt lat="39.8334600" lon="-4.3762040">
        <ele>436.0</ele>
        <time>2019-07-08T10:43:21Z</time>
      </trkpt>
      <trkpt lat="39.8332750" lon="-4.3765910">
        <ele>436.6</ele>
        <time>2019-07-08T10:43:29Z</time>
      </trkpt>
      <trkpt lat="39.8332110" lon="-4.3767420">
        <ele>436.8</ele>
        <time>2019-07-08T10:43:32Z</time>
      </trkpt>
      <trkpt lat="39.8331360" lon="-4.3768940">
        <ele>437.2</ele>
        <time>2019-07-08T10:43:35Z</time>
      </trkpt>
      <trkpt lat="39.8330570" lon="-4.3770460">
        <ele>437.4</ele>
        <time>2019-07-08T10:43:38Z</time>
      </trkpt>
      <trkpt lat="39.8328840" lon="-4.3773630">
        <ele>437.6</ele>
        <time>2019-07-08T10:43:44Z</time>
      </trkpt>
      <trkpt lat="39.8328130" lon="-4.3774720">
        <ele>437.8</ele>
        <time>2019-07-08T10:43:46Z</time>
      </trkpt>
      <trkpt lat="39.8325330" lon="-4.3779020">
        <ele>436.6</ele>
        <time>2019-07-08T10:43:53Z</time>
      </trkpt>
      <trkpt lat="39.8324920" lon="-4.3779660">
        <ele>436.4</ele>
        <time>2019-07-08T10:43:54Z</time>
      </trkpt>
      <trkpt lat="39.8322530" lon="-4.3783410">
        <ele>436.2</ele>
        <time>2019-07-08T10:44:00Z</time>
      </trkpt>
      <trkpt lat="39.8321380" lon="-4.3785280">
        <ele>436.2</ele>
        <time>2019-07-08T10:44:03Z</time>
      </trkpt>
      <trkpt lat="39.8319200" lon="-4.3788960">
        <ele>436.2</ele>
        <time>2019-07-08T10:44:09Z</time>
      </trkpt>
      <trkpt lat="39.8318450" lon="-4.3790160">
        <ele>436.2</ele>
        <time>2019-07-08T10:44:11Z</time>
      </trkpt>
      <trkpt lat="39.8314900" lon="-4.3795660">
        <ele>435.6</ele>
        <time>2019-07-08T10:44:20Z</time>
      </trkpt>
      <trkpt lat="39.8311830" lon="-4.3800780">
        <ele>435.6</ele>
        <time>2019-07-08T10:44:28Z</time>
      </trkpt>
      <trkpt lat="39.8308300" lon="-4.3806560">
        <ele>436.4</ele>
        <time>2019-07-08T10:44:37Z</time>
      </trkpt>
      <trkpt lat="39.8307510" lon="-4.3807840">
        <ele>436.4</ele>
        <time>2019-07-08T10:44:39Z</time>
      </trkpt>
      <trkpt lat="39.8304020" lon="-4.3813630">
        <ele>436.8</ele>
        <time>2019-07-08T10:44:48Z</time>
      </trkpt>
      <trkpt lat="39.8302060" lon="-4.3816870">
        <ele>437.0</ele>
        <time>2019-07-08T10:44:53Z</time>
      </trkpt>
      <trkpt lat="39.8299280" lon="-4.3822240">
        <ele>436.8</ele>
        <time>2019-07-08T10:45:01Z</time>
      </trkpt>
      <trkpt lat="39.8296230" lon="-4.3828450">
        <ele>436.8</ele>
        <time>2019-07-08T10:45:10Z</time>
      </trkpt>
      <trkpt lat="39.8295880" lon="-4.3829150">
        <ele>437.0</ele>
        <time>2019-07-08T10:45:11Z</time>
      </trkpt>
      <trkpt lat="39.8292730" lon="-4.3835320">
        <ele>436.6</ele>
        <time>2019-07-08T10:45:20Z</time>
      </trkpt>
      <trkpt lat="39.8292390" lon="-4.3836010">
        <ele>436.6</ele>
        <time>2019-07-08T10:45:21Z</time>
      </trkpt>
      <trkpt lat="39.8289210" lon="-4.3842180">
        <ele>437.0</ele>
        <time>2019-07-08T10:45:30Z</time>
      </trkpt>
      <trkpt lat="39.8288870" lon="-4.3842870">
        <ele>436.8</ele>
        <time>2019-07-08T10:45:31Z</time>
      </trkpt>
      <trkpt lat="39.8285720" lon="-4.3848980">
        <ele>436.8</ele>
        <time>2019-07-08T10:45:40Z</time>
      </trkpt>
      <trkpt lat="39.8285360" lon="-4.3849680">
        <ele>436.8</ele>
        <time>2019-07-08T10:45:41Z</time>
      </trkpt>
      <trkpt lat="39.8283890" lon="-4.3852440">
        <ele>436.4</ele>
        <time>2019-07-08T10:45:45Z</time>
      </trkpt>
      <trkpt lat="39.8282150" lon="-4.3855970">
        <ele>436.8</ele>
        <time>2019-07-08T10:45:50Z</time>
      </trkpt>
      <trkpt lat="39.8279060" lon="-4.3862220">
        <ele>437.2</ele>
        <time>2019-07-08T10:45:59Z</time>
      </trkpt>
      <trkpt lat="39.8277150" lon="-4.3866620">
        <ele>436.6</ele>
        <time>2019-07-08T10:46:05Z</time>
      </trkpt>
      <trkpt lat="39.8275970" lon="-4.3869580">
        <ele>436.0</ele>
        <time>2019-07-08T10:46:09Z</time>
      </trkpt>
      <trkpt lat="39.8273420" lon="-4.3876090">
        <ele>436.4</ele>
        <time>2019-07-08T10:46:18Z</time>
      </trkpt>
      <trkpt lat="39.8272810" lon="-4.3877450">
        <ele>436.4</ele>
        <time>2019-07-08T10:46:20Z</time>
      </trkpt>
      <trkpt lat="39.8270080" lon="-4.3883260">
        <ele>436.2</ele>
        <time>2019-07-08T10:46:29Z</time>
      </trkpt>
      <trkpt lat="39.8267000" lon="-4.3889500">
        <ele>436.8</ele>
        <time>2019-07-08T10:46:39Z</time>
      </trkpt>
      <trkpt lat="39.8264090" lon="-4.3895120">
        <ele>437.0</ele>
        <time>2019-07-08T10:46:48Z</time>
      </trkpt>
      <trkpt lat="39.8262490" lon="-4.3898850">
        <ele>437.4</ele>
        <time>2019-07-08T10:46:54Z</time>
      </trkpt>
      <trkpt lat="39.8261140" lon="-4.3901690">
        <ele>438.0</ele>
        <time>2019-07-08T10:46:59Z</time>
      </trkpt>
      <trkpt lat="39.8260390" lon="-4.3903300">
        <ele>438.2</ele>
        <time>2019-07-08T10:47:02Z</time>
      </trkpt>
      <trkpt lat="39.8259000" lon="-4.3906960">
        <ele>439.4</ele>
        <time>2019-07-08T10:47:09Z</time>
      </trkpt>
      <trkpt lat="39.8258870" lon="-4.3907510">
        <ele>439.6</ele>
        <time>2019-07-08T10:47:10Z</time>
      </trkpt>
      <trkpt lat="39.8258170" lon="-4.3910170">
        <ele>440.6</ele>
        <time>2019-07-08T10:47:15Z</time>
      </trkpt>
      <trkpt lat="39.8257860" lon="-4.3911740">
        <ele>441.4</ele>
        <time>2019-07-08T10:47:18Z</time>
      </trkpt>
      <trkpt lat="39.8257750" lon="-4.3912260">
        <ele>441.6</ele>
        <time>2019-07-08T10:47:19Z</time>
      </trkpt>
      <trkpt lat="39.8257380" lon="-4.3913800">
        <ele>442.0</ele>
        <time>2019-07-08T10:47:22Z</time>
      </trkpt>
      <trkpt lat="39.8257150" lon="-4.3914870">
        <ele>442.6</ele>
        <time>2019-07-08T10:47:24Z</time>
      </trkpt>
      <trkpt lat="39.8256910" lon="-4.3915890">
        <ele>443.0</ele>
        <time>2019-07-08T10:47:26Z</time>
      </trkpt>
      <trkpt lat="39.8256600" lon="-4.3916880">
        <ele>443.8</ele>
        <time>2019-07-08T10:47:28Z</time>
      </trkpt>
      <trkpt lat="39.8256450" lon="-4.3917370">
        <ele>444.0</ele>
        <time>2019-07-08T10:47:29Z</time>
      </trkpt>
      <trkpt lat="39.8256000" lon="-4.3918860">
        <ele>444.8</ele>
        <time>2019-07-08T10:47:32Z</time>
      </trkpt>
      <trkpt lat="39.8255640" lon="-4.3919840">
        <ele>445.8</ele>
        <time>2019-07-08T10:47:34Z</time>
      </trkpt>
      <trkpt lat="39.8255180" lon="-4.3921430">
        <ele>446.2</ele>
        <time>2019-07-08T10:47:37Z</time>
      </trkpt>
      <trkpt lat="39.8254830" lon="-4.3923160">
        <ele>446.4</ele>
        <time>2019-07-08T10:47:40Z</time>
      </trkpt>
      <trkpt lat="39.8254620" lon="-4.3925460">
        <ele>446.8</ele>
        <time>2019-07-08T10:47:44Z</time>
      </trkpt>
      <trkpt lat="39.8254610" lon="-4.3926030">
        <ele>446.8</ele>
        <time>2019-07-08T10:47:45Z</time>
      </trkpt>
      <trkpt lat="39.8254800" lon="-4.3929780">
        <ele>447.8</ele>
        <time>2019-07-08T10:47:52Z</time>
      </trkpt>
      <trkpt lat="39.8254840" lon="-4.3930310">
        <ele>448.0</ele>
        <time>2019-07-08T10:47:53Z</time>
      </trkpt>
      <trkpt lat="39.8255400" lon="-4.3935620">
        <ele>449.2</ele>
        <time>2019-07-08T10:48:03Z</time>
      </trkpt>
      <trkpt lat="39.8255450" lon="-4.3936130">
        <ele>449.4</ele>
        <time>2019-07-08T10:48:04Z</time>
      </trkpt>
      <trkpt lat="39.8255680" lon="-4.3938700">
        <ele>450.4</ele>
        <time>2019-07-08T10:48:09Z</time>
      </trkpt>
      <trkpt lat="39.8255820" lon="-4.3940200">
        <ele>451.4</ele>
        <time>2019-07-08T10:48:12Z</time>
      </trkpt>
      <trkpt lat="39.8255900" lon="-4.3941160">
        <ele>451.8</ele>
        <time>2019-07-08T10:48:14Z</time>
      </trkpt>
      <trkpt lat="39.8256030" lon="-4.3942510">
        <ele>452.8</ele>
        <time>2019-07-08T10:48:17Z</time>
      </trkpt>
      <trkpt lat="39.8256170" lon="-4.3943810">
        <ele>453.8</ele>
        <time>2019-07-08T10:48:20Z</time>
      </trkpt>
      <trkpt lat="39.8256320" lon="-4.3945040">
        <ele>454.6</ele>
        <time>2019-07-08T10:48:23Z</time>
      </trkpt>
      <trkpt lat="39.8256380" lon="-4.3945450">
        <ele>454.8</ele>
        <time>2019-07-08T10:48:24Z</time>
      </trkpt>
      <trkpt lat="39.8256590" lon="-4.3947450">
        <ele>456.2</ele>
        <time>2019-07-08T10:48:29Z</time>
      </trkpt>
      <trkpt lat="39.8256730" lon="-4.3948230">
        <ele>456.6</ele>
        <time>2019-07-08T10:48:31Z</time>
      </trkpt>
      <trkpt lat="39.8256770" lon="-4.3949390">
        <ele>457.4</ele>
        <time>2019-07-08T10:48:34Z</time>
      </trkpt>
      <trkpt lat="39.8256740" lon="-4.3950950">
        <ele>458.4</ele>
        <time>2019-07-08T10:48:38Z</time>
      </trkpt>
      <trkpt lat="39.8256270" lon="-4.3952750">
        <ele>459.6</ele>
        <time>2019-07-08T10:48:43Z</time>
      </trkpt>
      <trkpt lat="39.8256110" lon="-4.3953070">
        <ele>460.0</ele>
        <time>2019-07-08T10:48:44Z</time>
      </trkpt>
      <trkpt lat="39.8255530" lon="-4.3953890">
        <ele>460.6</ele>
        <time>2019-07-08T10:48:47Z</time>
      </trkpt>
      <trkpt lat="39.8254820" lon="-4.3954590">
        <ele>461.8</ele>
        <time>2019-07-08T10:48:50Z</time>
      </trkpt>
      <trkpt lat="39.8253330" lon="-4.3955690">
        <ele>462.6</ele>
        <time>2019-07-08T10:48:55Z</time>
      </trkpt>
      <trkpt lat="39.8252150" lon="-4.3957030">
        <ele>462.4</ele>
        <time>2019-07-08T10:48:59Z</time>
      </trkpt>
      <trkpt lat="39.8252050" lon="-4.3957600">
        <ele>462.4</ele>
        <time>2019-07-08T10:49:00Z</time>
      </trkpt>
      <trkpt lat="39.8252450" lon="-4.3959200">
        <ele>462.4</ele>
        <time>2019-07-08T10:49:03Z</time>
      </trkpt>
      <trkpt lat="39.8253000" lon="-4.3959940">
        <ele>462.6</ele>
        <time>2019-07-08T10:49:05Z</time>
      </trkpt>
      <trkpt lat="39.8253290" lon="-4.3960290">
        <ele>463.0</ele>
        <time>2019-07-08T10:49:06Z</time>
      </trkpt>
      <trkpt lat="39.8254210" lon="-4.3961250">
        <ele>463.8</ele>
        <time>2019-07-08T10:49:09Z</time>
      </trkpt>
      <trkpt lat="39.8254840" lon="-4.3961870">
        <ele>464.0</ele>
        <time>2019-07-08T10:49:11Z</time>
      </trkpt>
      <trkpt lat="39.8255700" lon="-4.3963040">
        <ele>464.4</ele>
        <time>2019-07-08T10:49:14Z</time>
      </trkpt>
      <trkpt lat="39.8256000" lon="-4.3963440">
        <ele>464.6</ele>
        <time>2019-07-08T10:49:15Z</time>
      </trkpt>
      <trkpt lat="39.8258160" lon="-4.3966020">
        <ele>464.8</ele>
        <time>2019-07-08T10:49:21Z</time>
      </trkpt>
      <trkpt lat="39.8260020" lon="-4.3968200">
        <ele>464.2</ele>
        <time>2019-07-08T10:49:25Z</time>
      </trkpt>
      <trkpt lat="39.8260480" lon="-4.3968910">
        <ele>463.8</ele>
        <time>2019-07-08T10:49:26Z</time>
      </trkpt>
      <trkpt lat="39.8261290" lon="-4.3970630">
        <ele>462.8</ele>
        <time>2019-07-08T10:49:28Z</time>
      </trkpt>
      <trkpt lat="39.8261640" lon="-4.3971560">
        <ele>462.2</ele>
        <time>2019-07-08T10:49:29Z</time>
      </trkpt>
      <trkpt lat="39.8261940" lon="-4.3972530">
        <ele>461.6</ele>
        <time>2019-07-08T10:49:30Z</time>
      </trkpt>
      <trkpt lat="39.8262440" lon="-4.3974580">
        <ele>460.4</ele>
        <time>2019-07-08T10:49:32Z</time>
      </trkpt>
      <trkpt lat="39.8262600" lon="-4.3975680">
        <ele>460.0</ele>
        <time>2019-07-08T10:49:33Z</time>
      </trkpt>
      <trkpt lat="39.8262660" lon="-4.3976810">
        <ele>459.4</ele>
        <time>2019-07-08T10:49:34Z</time>
      </trkpt>
      <trkpt lat="39.8262610" lon="-4.3979190">
        <ele>457.8</ele>
        <time>2019-07-08T10:49:36Z</time>
      </trkpt>
      <trkpt lat="39.8262450" lon="-4.3981720">
        <ele>456.4</ele>
        <time>2019-07-08T10:49:38Z</time>
      </trkpt>
      <trkpt lat="39.8262350" lon="-4.3983030">
        <ele>455.8</ele>
        <time>2019-07-08T10:49:39Z</time>
      </trkpt>
      <trkpt lat="39.8262250" lon="-4.3984380">
        <ele>454.6</ele>
        <time>2019-07-08T10:49:40Z</time>
      </trkpt>
      <trkpt lat="39.8262010" lon="-4.3987140">
        <ele>453.0</ele>
        <time>2019-07-08T10:49:42Z</time>
      </trkpt>
      <trkpt lat="39.8261890" lon="-4.3988570">
        <ele>452.0</ele>
        <time>2019-07-08T10:49:43Z</time>
      </trkpt>
      <trkpt lat="39.8261700" lon="-4.3991520">
        <ele>450.6</ele>
        <time>2019-07-08T10:49:45Z</time>
      </trkpt>
      <trkpt lat="39.8261600" lon="-4.3993020">
        <ele>449.4</ele>
        <time>2019-07-08T10:49:46Z</time>
      </trkpt>
      <trkpt lat="39.8261490" lon="-4.3994550">
        <ele>448.4</ele>
        <time>2019-07-08T10:49:47Z</time>
      </trkpt>
      <trkpt lat="39.8261380" lon="-4.3996100">
        <ele>447.2</ele>
        <time>2019-07-08T10:49:48Z</time>
      </trkpt>
      <trkpt lat="39.8261280" lon="-4.3997680">
        <ele>446.4</ele>
        <time>2019-07-08T10:49:49Z</time>
      </trkpt>
      <trkpt lat="39.8261170" lon="-4.3999270">
        <ele>445.2</ele>
        <time>2019-07-08T10:49:50Z</time>
      </trkpt>
      <trkpt lat="39.8261060" lon="-4.4000870">
        <ele>444.4</ele>
        <time>2019-07-08T10:49:51Z</time>
      </trkpt>
      <trkpt lat="39.8260970" lon="-4.4002470">
        <ele>443.6</ele>
        <time>2019-07-08T10:49:52Z</time>
      </trkpt>
      <trkpt lat="39.8260980" lon="-4.4005760">
        <ele>441.6</ele>
        <time>2019-07-08T10:49:54Z</time>
      </trkpt>
      <trkpt lat="39.8261140" lon="-4.4007380">
        <ele>440.2</ele>
        <time>2019-07-08T10:49:55Z</time>
      </trkpt>
      <trkpt lat="39.8261400" lon="-4.4008980">
        <ele>438.8</ele>
        <time>2019-07-08T10:49:56Z</time>
      </trkpt>
      <trkpt lat="39.8261720" lon="-4.4010560">
        <ele>438.2</ele>
        <time>2019-07-08T10:49:57Z</time>
      </trkpt>
      <trkpt lat="39.8262050" lon="-4.4012120">
        <ele>437.4</ele>
        <time>2019-07-08T10:49:58Z</time>
      </trkpt>
      <trkpt lat="39.8262730" lon="-4.4015160">
        <ele>436.4</ele>
        <time>2019-07-08T10:50:00Z</time>
      </trkpt>
      <trkpt lat="39.8263440" lon="-4.4018090">
        <ele>435.0</ele>
        <time>2019-07-08T10:50:02Z</time>
      </trkpt>
      <trkpt lat="39.8264110" lon="-4.4020820">
        <ele>434.2</ele>
        <time>2019-07-08T10:50:04Z</time>
      </trkpt>
      <trkpt lat="39.8265230" lon="-4.4025800">
        <ele>433.4</ele>
        <time>2019-07-08T10:50:08Z</time>
      </trkpt>
      <trkpt lat="39.8266490" lon="-4.4030960">
        <ele>433.6</ele>
        <time>2019-07-08T10:50:13Z</time>
      </trkpt>
      <trkpt lat="39.8267050" lon="-4.4033400">
        <ele>434.0</ele>
        <time>2019-07-08T10:50:16Z</time>
      </trkpt>
      <trkpt lat="39.8267360" lon="-4.4034790">
        <ele>434.2</ele>
        <time>2019-07-08T10:50:18Z</time>
      </trkpt>
      <trkpt lat="39.8267520" lon="-4.4035420">
        <ele>434.4</ele>
        <time>2019-07-08T10:50:19Z</time>
      </trkpt>
      <trkpt lat="39.8267840" lon="-4.4036660">
        <ele>434.8</ele>
        <time>2019-07-08T10:50:21Z</time>
      </trkpt>
      <trkpt lat="39.8268180" lon="-4.4037880">
        <ele>435.2</ele>
        <time>2019-07-08T10:50:23Z</time>
      </trkpt>
      <trkpt lat="39.8268390" lon="-4.4038480">
        <ele>435.2</ele>
        <time>2019-07-08T10:50:24Z</time>
      </trkpt>
      <trkpt lat="39.8268620" lon="-4.4039060">
        <ele>435.4</ele>
        <time>2019-07-08T10:50:25Z</time>
      </trkpt>
      <trkpt lat="39.8269130" lon="-4.4040180">
        <ele>435.8</ele>
        <time>2019-07-08T10:50:27Z</time>
      </trkpt>
      <trkpt lat="39.8269850" lon="-4.4041880">
        <ele>436.2</ele>
        <time>2019-07-08T10:50:30Z</time>
      </trkpt>
      <trkpt lat="39.8270090" lon="-4.4042440">
        <ele>436.4</ele>
        <time>2019-07-08T10:50:31Z</time>
      </trkpt>
      <trkpt lat="39.8270560" lon="-4.4043510">
        <ele>436.6</ele>
        <time>2019-07-08T10:50:33Z</time>
      </trkpt>
      <trkpt lat="39.8271390" lon="-4.4045560">
        <ele>436.8</ele>
        <time>2019-07-08T10:50:37Z</time>
      </trkpt>
      <trkpt lat="39.8272260" lon="-4.4047570">
        <ele>437.0</ele>
        <time>2019-07-08T10:50:41Z</time>
      </trkpt>
      <trkpt lat="39.8272670" lon="-4.4048600">
        <ele>437.2</ele>
        <time>2019-07-08T10:50:43Z</time>
      </trkpt>
      <trkpt lat="39.8272840" lon="-4.4049110">
        <ele>437.2</ele>
        <time>2019-07-08T10:50:44Z</time>
      </trkpt>
      <trkpt lat="39.8273200" lon="-4.4050110">
        <ele>437.4</ele>
        <time>2019-07-08T10:50:46Z</time>
      </trkpt>
      <trkpt lat="39.8273820" lon="-4.4052040">
        <ele>437.4</ele>
        <time>2019-07-08T10:50:50Z</time>
      </trkpt>
      <trkpt lat="39.8274680" lon="-4.4054810">
        <ele>438.4</ele>
        <time>2019-07-08T10:50:56Z</time>
      </trkpt>
      <trkpt lat="39.8274940" lon="-4.4055740">
        <ele>438.8</ele>
        <time>2019-07-08T10:50:58Z</time>
      </trkpt>
      <trkpt lat="39.8275310" lon="-4.4057130">
        <ele>439.4</ele>
        <time>2019-07-08T10:51:01Z</time>
      </trkpt>
      <trkpt lat="39.8275460" lon="-4.4057590">
        <ele>439.4</ele>
        <time>2019-07-08T10:51:02Z</time>
      </trkpt>
      <trkpt lat="39.8276000" lon="-4.4059410">
        <ele>440.2</ele>
        <time>2019-07-08T10:51:06Z</time>
      </trkpt>
      <trkpt lat="39.8276570" lon="-4.4061180">
        <ele>440.6</ele>
        <time>2019-07-08T10:51:10Z</time>
      </trkpt>
      <trkpt lat="39.8277020" lon="-4.4062610">
        <ele>440.8</ele>
        <time>2019-07-08T10:51:13Z</time>
      </trkpt>
      <trkpt lat="39.8278100" lon="-4.4066320">
        <ele>441.4</ele>
        <time>2019-07-08T10:51:20Z</time>
      </trkpt>
      <trkpt lat="39.8278280" lon="-4.4066870">
        <ele>441.6</ele>
        <time>2019-07-08T10:51:21Z</time>
      </trkpt>
      <trkpt lat="39.8279620" lon="-4.4071500">
        <ele>441.8</ele>
        <time>2019-07-08T10:51:29Z</time>
      </trkpt>
      <trkpt lat="39.8279800" lon="-4.4072080">
        <ele>441.8</ele>
        <time>2019-07-08T10:51:30Z</time>
      </trkpt>
      <trkpt lat="39.8280160" lon="-4.4073240">
        <ele>442.0</ele>
        <time>2019-07-08T10:51:32Z</time>
      </trkpt>
      <trkpt lat="39.8281340" lon="-4.4077340">
        <ele>442.6</ele>
        <time>2019-07-08T10:51:39Z</time>
      </trkpt>
      <trkpt lat="39.8282690" lon="-4.4082000">
        <ele>443.0</ele>
        <time>2019-07-08T10:51:47Z</time>
      </trkpt>
      <trkpt lat="39.8282830" lon="-4.4082580">
        <ele>443.2</ele>
        <time>2019-07-08T10:51:48Z</time>
      </trkpt>
      <trkpt lat="39.8284330" lon="-4.4087320">
        <ele>443.8</ele>
        <time>2019-07-08T10:51:56Z</time>
      </trkpt>
      <trkpt lat="39.8285010" lon="-4.4089710">
        <ele>444.0</ele>
        <time>2019-07-08T10:52:00Z</time>
      </trkpt>
      <trkpt lat="39.8285770" lon="-4.4092050">
        <ele>444.2</ele>
        <time>2019-07-08T10:52:04Z</time>
      </trkpt>
      <trkpt lat="39.8286640" lon="-4.4095130">
        <ele>443.8</ele>
        <time>2019-07-08T10:52:09Z</time>
      </trkpt>
      <trkpt lat="39.8287280" lon="-4.4097640">
        <ele>444.0</ele>
        <time>2019-07-08T10:52:13Z</time>
      </trkpt>
      <trkpt lat="39.8288240" lon="-4.4103430">
        <ele>443.8</ele>
        <time>2019-07-08T10:52:22Z</time>
      </trkpt>
      <trkpt lat="39.8288910" lon="-4.4108640">
        <ele>443.8</ele>
        <time>2019-07-08T10:52:30Z</time>
      </trkpt>
      <trkpt lat="39.8289600" lon="-4.4113850">
        <ele>443.8</ele>
        <time>2019-07-08T10:52:38Z</time>
      </trkpt>
      <trkpt lat="39.8290350" lon="-4.4120110">
        <ele>443.8</ele>
        <time>2019-07-08T10:52:47Z</time>
      </trkpt>
      <trkpt lat="39.8290910" lon="-4.4124680">
        <ele>443.0</ele>
        <time>2019-07-08T10:52:54Z</time>
      </trkpt>
      <trkpt lat="39.8290980" lon="-4.4125230">
        <ele>442.8</ele>
        <time>2019-07-08T10:52:55Z</time>
      </trkpt>
      <trkpt lat="39.8291060" lon="-4.4125770">
        <ele>442.6</ele>
        <time>2019-07-08T10:52:56Z</time>
      </trkpt>
      <trkpt lat="39.8291550" lon="-4.4129140">
        <ele>442.4</ele>
        <time>2019-07-08T10:53:02Z</time>
      </trkpt>
      <trkpt lat="39.8291620" lon="-4.4129760">
        <ele>442.4</ele>
        <time>2019-07-08T10:53:03Z</time>
      </trkpt>
      <trkpt lat="39.8292140" lon="-4.4133470">
        <ele>442.2</ele>
        <time>2019-07-08T10:53:09Z</time>
      </trkpt>
      <trkpt lat="39.8292300" lon="-4.4134080">
        <ele>442.0</ele>
        <time>2019-07-08T10:53:10Z</time>
      </trkpt>
      <trkpt lat="39.8293300" lon="-4.4138490">
        <ele>442.8</ele>
        <time>2019-07-08T10:53:18Z</time>
      </trkpt>
      <trkpt lat="39.8293400" lon="-4.4139370">
        <ele>442.8</ele>
        <time>2019-07-08T10:53:20Z</time>
      </trkpt>
      <trkpt lat="39.8293720" lon="-4.4141580">
        <ele>442.8</ele>
        <time>2019-07-08T10:53:25Z</time>
      </trkpt>
      <trkpt lat="39.8293830" lon="-4.4143440">
        <ele>443.4</ele>
        <time>2019-07-08T10:53:30Z</time>
      </trkpt>
      <trkpt lat="39.8293850" lon="-4.4143800">
        <ele>443.8</ele>
        <time>2019-07-08T10:53:31Z</time>
      </trkpt>
      <trkpt lat="39.8294350" lon="-4.4145650">
        <ele>444.0</ele>
        <time>2019-07-08T10:53:36Z</time>
      </trkpt>
      <trkpt lat="39.8294700" lon="-4.4148250">
        <ele>444.0</ele>
        <time>2019-07-08T10:53:42Z</time>
      </trkpt>
      <trkpt lat="39.8294850" lon="-4.4149180">
        <ele>444.2</ele>
        <time>2019-07-08T10:53:44Z</time>
      </trkpt>
      <trkpt lat="39.8295090" lon="-4.4150180">
        <ele>444.0</ele>
        <time>2019-07-08T10:53:46Z</time>
      </trkpt>
      <trkpt lat="39.8295350" lon="-4.4152840">
        <ele>444.2</ele>
        <time>2019-07-08T10:53:51Z</time>
      </trkpt>
      <trkpt lat="39.8295620" lon="-4.4155590">
        <ele>444.6</ele>
        <time>2019-07-08T10:53:56Z</time>
      </trkpt>
      <trkpt lat="39.8295700" lon="-4.4156130">
        <ele>445.0</ele>
        <time>2019-07-08T10:53:57Z</time>
      </trkpt>
      <trkpt lat="39.8295810" lon="-4.4156670">
        <ele>445.2</ele>
        <time>2019-07-08T10:53:58Z</time>
      </trkpt>
      <trkpt lat="39.8295890" lon="-4.4157210">
        <ele>445.2</ele>
        <time>2019-07-08T10:53:59Z</time>
      </trkpt>
      <trkpt lat="39.8295920" lon="-4.4158800">
        <ele>444.8</ele>
        <time>2019-07-08T10:54:02Z</time>
      </trkpt>
      <trkpt lat="39.8295980" lon="-4.4159340">
        <ele>444.6</ele>
        <time>2019-07-08T10:54:03Z</time>
      </trkpt>
      <trkpt lat="39.8296220" lon="-4.4163640">
        <ele>444.6</ele>
        <time>2019-07-08T10:54:11Z</time>
      </trkpt>
      <trkpt lat="39.8296240" lon="-4.4164170">
        <ele>444.8</ele>
        <time>2019-07-08T10:54:12Z</time>
      </trkpt>
      <trkpt lat="39.8296650" lon="-4.4167280">
        <ele>444.8</ele>
        <time>2019-07-08T10:54:18Z</time>
      </trkpt>
      <trkpt lat="39.8297010" lon="-4.4169480">
        <ele>444.8</ele>
        <time>2019-07-08T10:54:23Z</time>
      </trkpt>
      <trkpt lat="39.8297060" lon="-4.4169930">
        <ele>444.6</ele>
        <time>2019-07-08T10:54:24Z</time>
      </trkpt>
      <trkpt lat="39.8297280" lon="-4.4172420">
        <ele>444.0</ele>
        <time>2019-07-08T10:54:29Z</time>
      </trkpt>
      <trkpt lat="39.8297350" lon="-4.4173470">
        <ele>444.0</ele>
        <time>2019-07-08T10:54:31Z</time>
      </trkpt>
      <trkpt lat="39.8297540" lon="-4.4176150">
        <ele>444.4</ele>
        <time>2019-07-08T10:54:36Z</time>
      </trkpt>
      <trkpt lat="39.8297520" lon="-4.4177220">
        <ele>444.4</ele>
        <time>2019-07-08T10:54:38Z</time>
      </trkpt>
      <trkpt lat="39.8297300" lon="-4.4178820">
        <ele>444.6</ele>
        <time>2019-07-08T10:54:41Z</time>
      </trkpt>
      <trkpt lat="39.8297310" lon="-4.4179940">
        <ele>444.6</ele>
        <time>2019-07-08T10:54:43Z</time>
      </trkpt>
      <trkpt lat="39.8297300" lon="-4.4180520">
        <ele>444.6</ele>
        <time>2019-07-08T10:54:44Z</time>
      </trkpt>
      <trkpt lat="39.8297270" lon="-4.4182860">
        <ele>444.4</ele>
        <time>2019-07-08T10:54:48Z</time>
      </trkpt>
      <trkpt lat="39.8297590" lon="-4.4188080">
        <ele>444.0</ele>
        <time>2019-07-08T10:54:57Z</time>
      </trkpt>
      <trkpt lat="39.8297680" lon="-4.4189280">
        <ele>444.2</ele>
        <time>2019-07-08T10:54:59Z</time>
      </trkpt>
      <trkpt lat="39.8297840" lon="-4.4191710">
        <ele>444.2</ele>
        <time>2019-07-08T10:55:03Z</time>
      </trkpt>
      <trkpt lat="39.8297930" lon="-4.4193520">
        <ele>443.8</ele>
        <time>2019-07-08T10:55:06Z</time>
      </trkpt>
      <trkpt lat="39.8298460" lon="-4.4200140">
        <ele>445.0</ele>
        <time>2019-07-08T10:55:17Z</time>
      </trkpt>
      <trkpt lat="39.8298540" lon="-4.4201360">
        <ele>445.0</ele>
        <time>2019-07-08T10:55:19Z</time>
      </trkpt>
      <trkpt lat="39.8298590" lon="-4.4201970">
        <ele>445.2</ele>
        <time>2019-07-08T10:55:20Z</time>
      </trkpt>
      <trkpt lat="39.8298960" lon="-4.4205740">
        <ele>444.8</ele>
        <time>2019-07-08T10:55:26Z</time>
      </trkpt>
      <trkpt lat="39.8299360" lon="-4.4212260">
        <ele>444.4</ele>
        <time>2019-07-08T10:55:36Z</time>
      </trkpt>
      <trkpt lat="39.8299790" lon="-4.4219650">
        <ele>444.8</ele>
        <time>2019-07-08T10:55:47Z</time>
      </trkpt>
      <trkpt lat="39.8299870" lon="-4.4220310">
        <ele>444.8</ele>
        <time>2019-07-08T10:55:48Z</time>
      </trkpt>
      <trkpt lat="39.8300050" lon="-4.4223060">
        <ele>444.2</ele>
        <time>2019-07-08T10:55:52Z</time>
      </trkpt>
      <trkpt lat="39.8300290" lon="-4.4224350">
        <ele>443.8</ele>
        <time>2019-07-08T10:55:54Z</time>
      </trkpt>
      <trkpt lat="39.8301320" lon="-4.4228820">
        <ele>443.2</ele>
        <time>2019-07-08T10:56:01Z</time>
      </trkpt>
      <trkpt lat="39.8301490" lon="-4.4229480">
        <ele>442.8</ele>
        <time>2019-07-08T10:56:02Z</time>
      </trkpt>
      <trkpt lat="39.8302700" lon="-4.4232900">
        <ele>442.0</ele>
        <time>2019-07-08T10:56:07Z</time>
      </trkpt>
      <trkpt lat="39.8303530" lon="-4.4234970">
        <ele>441.8</ele>
        <time>2019-07-08T10:56:10Z</time>
      </trkpt>
      <trkpt lat="39.8304060" lon="-4.4236220">
        <ele>440.8</ele>
        <time>2019-07-08T10:56:12Z</time>
      </trkpt>
      <trkpt lat="39.8304320" lon="-4.4236800">
        <ele>440.4</ele>
        <time>2019-07-08T10:56:13Z</time>
      </trkpt>
      <trkpt lat="39.8305100" lon="-4.4238930">
        <ele>440.2</ele>
        <time>2019-07-08T10:56:17Z</time>
      </trkpt>
      <trkpt lat="39.8305210" lon="-4.4239460">
        <ele>440.2</ele>
        <time>2019-07-08T10:56:18Z</time>
      </trkpt>
      <trkpt lat="39.8305500" lon="-4.4242920">
        <ele>440.6</ele>
        <time>2019-07-08T10:56:24Z</time>
      </trkpt>
      <trkpt lat="39.8306090" lon="-4.4248570">
        <ele>440.6</ele>
        <time>2019-07-08T10:56:33Z</time>
      </trkpt>
      <trkpt lat="39.8306530" lon="-4.4251660">
        <ele>440.6</ele>
        <time>2019-07-08T10:56:38Z</time>
      </trkpt>
      <trkpt lat="39.8306690" lon="-4.4252880">
        <ele>440.4</ele>
        <time>2019-07-08T10:56:40Z</time>
      </trkpt>
      <trkpt lat="39.8307360" lon="-4.4257700">
        <ele>440.6</ele>
        <time>2019-07-08T10:56:48Z</time>
      </trkpt>
      <trkpt lat="39.8308030" lon="-4.4261760">
        <ele>440.4</ele>
        <time>2019-07-08T10:56:55Z</time>
      </trkpt>
      <trkpt lat="39.8308300" lon="-4.4263490">
        <ele>441.0</ele>
        <time>2019-07-08T10:56:58Z</time>
      </trkpt>
      <trkpt lat="39.8309090" lon="-4.4268850">
        <ele>440.6</ele>
        <time>2019-07-08T10:57:08Z</time>
      </trkpt>
      <trkpt lat="39.8309590" lon="-4.4272980">
        <ele>440.8</ele>
        <time>2019-07-08T10:57:16Z</time>
      </trkpt>
      <trkpt lat="39.8310180" lon="-4.4276320">
        <ele>441.6</ele>
        <time>2019-07-08T10:57:23Z</time>
      </trkpt>
      <trkpt lat="39.8311050" lon="-4.4282090">
        <ele>441.8</ele>
        <time>2019-07-08T10:57:34Z</time>
      </trkpt>
      <trkpt lat="39.8312100" lon="-4.4288050">
        <ele>441.2</ele>
        <time>2019-07-08T10:57:45Z</time>
      </trkpt>
      <trkpt lat="39.8312890" lon="-4.4292640">
        <ele>440.2</ele>
        <time>2019-07-08T10:57:54Z</time>
      </trkpt>
      <trkpt lat="39.8313500" lon="-4.4297130">
        <ele>440.6</ele>
        <time>2019-07-08T10:58:03Z</time>
      </trkpt>
      <trkpt lat="39.8314080" lon="-4.4300280">
        <ele>440.8</ele>
        <time>2019-07-08T10:58:10Z</time>
      </trkpt>
      <trkpt lat="39.8314910" lon="-4.4304900">
        <ele>441.0</ele>
        <time>2019-07-08T10:58:20Z</time>
      </trkpt>
      <trkpt lat="39.8316050" lon="-4.4309510">
        <ele>441.6</ele>
        <time>2019-07-08T10:58:30Z</time>
      </trkpt>
      <trkpt lat="39.8316850" lon="-4.4312900">
        <ele>440.6</ele>
        <time>2019-07-08T10:58:37Z</time>
      </trkpt>
      <trkpt lat="39.8318100" lon="-4.4317160">
        <ele>441.0</ele>
        <time>2019-07-08T10:58:46Z</time>
      </trkpt>
      <trkpt lat="39.8319170" lon="-4.4320990">
        <ele>441.0</ele>
        <time>2019-07-08T10:58:54Z</time>
      </trkpt>
      <trkpt lat="39.8320490" lon="-4.4324880">
        <ele>441.0</ele>
        <time>2019-07-08T10:59:02Z</time>
      </trkpt>
      <trkpt lat="39.8321930" lon="-4.4329200">
        <ele>441.0</ele>
        <time>2019-07-08T10:59:11Z</time>
      </trkpt>
      <trkpt lat="39.8323360" lon="-4.4333900">
        <ele>441.8</ele>
        <time>2019-07-08T10:59:21Z</time>
      </trkpt>
      <trkpt lat="39.8324380" lon="-4.4337090">
        <ele>442.0</ele>
        <time>2019-07-08T10:59:28Z</time>
      </trkpt>
      <trkpt lat="39.8325640" lon="-4.4341580">
        <ele>441.6</ele>
        <time>2019-07-08T10:59:38Z</time>
      </trkpt>
      <trkpt lat="39.8326790" lon="-4.4345680">
        <ele>441.2</ele>
        <time>2019-07-08T10:59:47Z</time>
      </trkpt>
      <trkpt lat="39.8327540" lon="-4.4348570">
        <ele>442.2</ele>
        <time>2019-07-08T10:59:53Z</time>
      </trkpt>
      <trkpt lat="39.8327800" lon="-4.4349570">
        <ele>442.2</ele>
        <time>2019-07-08T10:59:55Z</time>
      </trkpt>
      <trkpt lat="39.8327900" lon="-4.4350070">
        <ele>442.0</ele>
        <time>2019-07-08T10:59:56Z</time>
      </trkpt>
      <trkpt lat="39.8328600" lon="-4.4352650">
        <ele>441.4</ele>
        <time>2019-07-08T11:00:01Z</time>
      </trkpt>
      <trkpt lat="39.8329740" lon="-4.4356440">
        <ele>441.2</ele>
        <time>2019-07-08T11:00:08Z</time>
      </trkpt>
      <trkpt lat="39.8330350" lon="-4.4358010">
        <ele>441.0</ele>
        <time>2019-07-08T11:00:11Z</time>
      </trkpt>
      <trkpt lat="39.8331390" lon="-4.4361210">
        <ele>441.0</ele>
        <time>2019-07-08T11:00:17Z</time>
      </trkpt>
      <trkpt lat="39.8331840" lon="-4.4362800">
        <ele>440.8</ele>
        <time>2019-07-08T11:00:20Z</time>
      </trkpt>
      <trkpt lat="39.8333070" lon="-4.4368120">
        <ele>441.4</ele>
        <time>2019-07-08T11:00:30Z</time>
      </trkpt>
      <trkpt lat="39.8333540" lon="-4.4370690">
        <ele>440.6</ele>
        <time>2019-07-08T11:00:35Z</time>
      </trkpt>
      <trkpt lat="39.8333810" lon="-4.4371740">
        <ele>440.2</ele>
        <time>2019-07-08T11:00:37Z</time>
      </trkpt>
      <trkpt lat="39.8335180" lon="-4.4376460">
        <ele>440.4</ele>
        <time>2019-07-08T11:00:46Z</time>
      </trkpt>
      <trkpt lat="39.8335610" lon="-4.4379240">
        <ele>440.8</ele>
        <time>2019-07-08T11:00:52Z</time>
      </trkpt>
      <trkpt lat="39.8335450" lon="-4.4379640">
        <ele>441.0</ele>
        <time>2019-07-08T11:00:54Z</time>
      </trkpt>
      <trkpt lat="39.8335180" lon="-4.4379850">
        <ele>441.0</ele>
        <time>2019-07-08T11:00:56Z</time>
      </trkpt>
      <trkpt lat="39.8334480" lon="-4.4380620">
        <ele>440.8</ele>
        <time>2019-07-08T11:01:01Z</time>
      </trkpt>
      <trkpt lat="39.8333950" lon="-4.4381230">
        <ele>440.8</ele>
        <time>2019-07-08T11:01:05Z</time>
      </trkpt>
      <trkpt lat="39.8334090" lon="-4.4382060">
        <ele>441.0</ele>
        <time>2019-07-08T11:01:08Z</time>
      </trkpt>
      <trkpt lat="39.8334290" lon="-4.4382840">
        <ele>441.2</ele>
        <time>2019-07-08T11:01:10Z</time>
      </trkpt>
      <trkpt lat="39.8335250" lon="-4.4386140">
        <ele>441.0</ele>
        <time>2019-07-08T11:01:17Z</time>
      </trkpt>
      <trkpt lat="39.8336530" lon="-4.4390390">
        <ele>440.8</ele>
        <time>2019-07-08T11:01:25Z</time>
      </trkpt>
      <trkpt lat="39.8337930" lon="-4.4394920">
        <ele>441.4</ele>
        <time>2019-07-08T11:01:33Z</time>
      </trkpt>
      <trkpt lat="39.8338390" lon="-4.4396630">
        <ele>441.8</ele>
        <time>2019-07-08T11:01:36Z</time>
      </trkpt>
      <trkpt lat="39.8338870" lon="-4.4397680">
        <ele>441.0</ele>
        <time>2019-07-08T11:01:38Z</time>
      </trkpt>
      <trkpt lat="39.8339600" lon="-4.4399900">
        <ele>440.8</ele>
        <time>2019-07-08T11:01:42Z</time>
      </trkpt>
      <trkpt lat="39.8339790" lon="-4.4400430">
        <ele>440.8</ele>
        <time>2019-07-08T11:01:43Z</time>
      </trkpt>
      <trkpt lat="39.8340660" lon="-4.4403140">
        <ele>441.2</ele>
        <time>2019-07-08T11:01:48Z</time>
      </trkpt>
      <trkpt lat="39.8341310" lon="-4.4404660">
        <ele>441.2</ele>
        <time>2019-07-08T11:01:51Z</time>
      </trkpt>
      <trkpt lat="39.8341490" lon="-4.4405150">
        <ele>441.0</ele>
        <time>2019-07-08T11:01:52Z</time>
      </trkpt>
      <trkpt lat="39.8341680" lon="-4.4405620">
        <ele>440.8</ele>
        <time>2019-07-08T11:01:53Z</time>
      </trkpt>
      <trkpt lat="39.8342660" lon="-4.4407820">
        <ele>441.0</ele>
        <time>2019-07-08T11:01:58Z</time>
      </trkpt>
      <trkpt lat="39.8344070" lon="-4.4411000">
        <ele>441.4</ele>
        <time>2019-07-08T11:02:05Z</time>
      </trkpt>
      <trkpt lat="39.8345100" lon="-4.4413210">
        <ele>441.2</ele>
        <time>2019-07-08T11:02:10Z</time>
      </trkpt>
      <trkpt lat="39.8345530" lon="-4.4414080">
        <ele>441.2</ele>
        <time>2019-07-08T11:02:12Z</time>
      </trkpt>
      <trkpt lat="39.8347180" lon="-4.4417720">
        <ele>441.4</ele>
        <time>2019-07-08T11:02:20Z</time>
      </trkpt>
      <trkpt lat="39.8347410" lon="-4.4418170">
        <ele>441.2</ele>
        <time>2019-07-08T11:02:21Z</time>
      </trkpt>
      <trkpt lat="39.8348010" lon="-4.4419590">
        <ele>441.0</ele>
        <time>2019-07-08T11:02:24Z</time>
      </trkpt>
      <trkpt lat="39.8348240" lon="-4.4420050">
        <ele>441.0</ele>
        <time>2019-07-08T11:02:25Z</time>
      </trkpt>
      <trkpt lat="39.8348990" lon="-4.4421970">
        <ele>442.0</ele>
        <time>2019-07-08T11:02:29Z</time>
      </trkpt>
      <trkpt lat="39.8349130" lon="-4.4422950">
        <ele>442.0</ele>
        <time>2019-07-08T11:02:31Z</time>
      </trkpt>
      <trkpt lat="39.8349270" lon="-4.4423410">
        <ele>442.0</ele>
        <time>2019-07-08T11:02:32Z</time>
      </trkpt>
      <trkpt lat="39.8350060" lon="-4.4425220">
        <ele>442.0</ele>
        <time>2019-07-08T11:02:36Z</time>
      </trkpt>
      <trkpt lat="39.8351620" lon="-4.4428660">
        <ele>441.8</ele>
        <time>2019-07-08T11:02:43Z</time>
      </trkpt>
      <trkpt lat="39.8352800" lon="-4.4431550">
        <ele>441.8</ele>
        <time>2019-07-08T11:02:49Z</time>
      </trkpt>
      <trkpt lat="39.8353270" lon="-4.4432500">
        <ele>441.8</ele>
        <time>2019-07-08T11:02:51Z</time>
      </trkpt>
      <trkpt lat="39.8355350" lon="-4.4436880">
        <ele>441.8</ele>
        <time>2019-07-08T11:03:00Z</time>
      </trkpt>
      <trkpt lat="39.8355580" lon="-4.4437370">
        <ele>441.8</ele>
        <time>2019-07-08T11:03:01Z</time>
      </trkpt>
      <trkpt lat="39.8356690" lon="-4.4439660">
        <ele>441.6</ele>
        <time>2019-07-08T11:03:06Z</time>
      </trkpt>
      <trkpt lat="39.8357250" lon="-4.4440420">
        <ele>442.0</ele>
        <time>2019-07-08T11:03:08Z</time>
      </trkpt>
      <trkpt lat="39.8357770" lon="-4.4441240">
        <ele>441.8</ele>
        <time>2019-07-08T11:03:10Z</time>
      </trkpt>
      <trkpt lat="39.8358660" lon="-4.4443160">
        <ele>441.4</ele>
        <time>2019-07-08T11:03:14Z</time>
      </trkpt>
      <trkpt lat="39.8359340" lon="-4.4444700">
        <ele>441.0</ele>
        <time>2019-07-08T11:03:17Z</time>
      </trkpt>
      <trkpt lat="39.8360730" lon="-4.4447990">
        <ele>441.2</ele>
        <time>2019-07-08T11:03:23Z</time>
      </trkpt>
      <trkpt lat="39.8362150" lon="-4.4451410">
        <ele>440.8</ele>
        <time>2019-07-08T11:03:29Z</time>
      </trkpt>
      <trkpt lat="39.8362300" lon="-4.4451980">
        <ele>440.8</ele>
        <time>2019-07-08T11:03:30Z</time>
      </trkpt>
      <trkpt lat="39.8362800" lon="-4.4453640">
        <ele>441.0</ele>
        <time>2019-07-08T11:03:33Z</time>
      </trkpt>
      <trkpt lat="39.8363560" lon="-4.4455280">
        <ele>440.4</ele>
        <time>2019-07-08T11:03:36Z</time>
      </trkpt>
      <trkpt lat="39.8364320" lon="-4.4457000">
        <ele>440.0</ele>
        <time>2019-07-08T11:03:39Z</time>
      </trkpt>
      <trkpt lat="39.8365940" lon="-4.4460530">
        <ele>439.8</ele>
        <time>2019-07-08T11:03:45Z</time>
      </trkpt>
      <trkpt lat="39.8368120" lon="-4.4465310">
        <ele>439.2</ele>
        <time>2019-07-08T11:03:53Z</time>
      </trkpt>
      <trkpt lat="39.8369500" lon="-4.4468130">
        <ele>438.8</ele>
        <time>2019-07-08T11:03:58Z</time>
      </trkpt>
      <trkpt lat="39.8370280" lon="-4.4469820">
        <ele>438.4</ele>
        <time>2019-07-08T11:04:01Z</time>
      </trkpt>
      <trkpt lat="39.8371070" lon="-4.4471540">
        <ele>438.2</ele>
        <time>2019-07-08T11:04:04Z</time>
      </trkpt>
      <trkpt lat="39.8371570" lon="-4.4472670">
        <ele>438.4</ele>
        <time>2019-07-08T11:04:06Z</time>
      </trkpt>
      <trkpt lat="39.8372620" lon="-4.4474830">
        <ele>438.6</ele>
        <time>2019-07-08T11:04:10Z</time>
      </trkpt>
      <trkpt lat="39.8373100" lon="-4.4475980">
        <ele>438.6</ele>
        <time>2019-07-08T11:04:12Z</time>
      </trkpt>
      <trkpt lat="39.8373400" lon="-4.4476520">
        <ele>438.6</ele>
        <time>2019-07-08T11:04:13Z</time>
      </trkpt>
      <trkpt lat="39.8374270" lon="-4.4478090">
        <ele>438.4</ele>
        <time>2019-07-08T11:04:16Z</time>
      </trkpt>
      <trkpt lat="39.8374470" lon="-4.4478630">
        <ele>438.2</ele>
        <time>2019-07-08T11:04:17Z</time>
      </trkpt>
      <trkpt lat="39.8374720" lon="-4.4479640">
        <ele>438.2</ele>
        <time>2019-07-08T11:04:19Z</time>
      </trkpt>
      <trkpt lat="39.8375050" lon="-4.4480470">
        <ele>438.2</ele>
        <time>2019-07-08T11:04:21Z</time>
      </trkpt>
      <trkpt lat="39.8375500" lon="-4.4481270">
        <ele>438.4</ele>
        <time>2019-07-08T11:04:23Z</time>
      </trkpt>
      <trkpt lat="39.8376140" lon="-4.4482680">
        <ele>438.0</ele>
        <time>2019-07-08T11:04:26Z</time>
      </trkpt>
      <trkpt lat="39.8376320" lon="-4.4483200">
        <ele>437.6</ele>
        <time>2019-07-08T11:04:27Z</time>
      </trkpt>
      <trkpt lat="39.8376660" lon="-4.4484310">
        <ele>437.0</ele>
        <time>2019-07-08T11:04:29Z</time>
      </trkpt>
      <trkpt lat="39.8377740" lon="-4.4487990">
        <ele>436.6</ele>
        <time>2019-07-08T11:04:35Z</time>
      </trkpt>
      <trkpt lat="39.8379500" lon="-4.4493230">
        <ele>436.6</ele>
        <time>2019-07-08T11:04:43Z</time>
      </trkpt>
      <trkpt lat="39.8380500" lon="-4.4496970">
        <ele>435.8</ele>
        <time>2019-07-08T11:04:49Z</time>
      </trkpt>
      <trkpt lat="39.8381810" lon="-4.4501310">
        <ele>435.6</ele>
        <time>2019-07-08T11:04:56Z</time>
      </trkpt>
      <trkpt lat="39.8383050" lon="-4.4505490">
        <ele>436.2</ele>
        <time>2019-07-08T11:05:03Z</time>
      </trkpt>
      <trkpt lat="39.8384410" lon="-4.4509070">
        <ele>435.8</ele>
        <time>2019-07-08T11:05:09Z</time>
      </trkpt>
      <trkpt lat="39.8386050" lon="-4.4513300">
        <ele>435.4</ele>
        <time>2019-07-08T11:05:16Z</time>
      </trkpt>
      <trkpt lat="39.8386510" lon="-4.4514460">
        <ele>435.0</ele>
        <time>2019-07-08T11:05:18Z</time>
      </trkpt>
      <trkpt lat="39.8387840" lon="-4.4517890">
        <ele>434.8</ele>
        <time>2019-07-08T11:05:24Z</time>
      </trkpt>
      <trkpt lat="39.8389720" lon="-4.4522530">
        <ele>434.4</ele>
        <time>2019-07-08T11:05:32Z</time>
      </trkpt>
      <trkpt lat="39.8390990" lon="-4.4525970">
        <ele>434.2</ele>
        <time>2019-07-08T11:05:38Z</time>
      </trkpt>
      <trkpt lat="39.8391190" lon="-4.4526560">
        <ele>434.0</ele>
        <time>2019-07-08T11:05:39Z</time>
      </trkpt>
      <trkpt lat="39.8391420" lon="-4.4527120">
        <ele>434.0</ele>
        <time>2019-07-08T11:05:40Z</time>
      </trkpt>
      <trkpt lat="39.8392700" lon="-4.4530390">
        <ele>433.8</ele>
        <time>2019-07-08T11:05:46Z</time>
      </trkpt>
      <trkpt lat="39.8394620" lon="-4.4535490">
        <ele>433.4</ele>
        <time>2019-07-08T11:05:55Z</time>
      </trkpt>
      <trkpt lat="39.8395290" lon="-4.4537130">
        <ele>433.2</ele>
        <time>2019-07-08T11:05:58Z</time>
      </trkpt>
      <trkpt lat="39.8396580" lon="-4.4540250">
        <ele>432.6</ele>
        <time>2019-07-08T11:06:04Z</time>
      </trkpt>
      <trkpt lat="39.8397360" lon="-4.4542190">
        <ele>432.6</ele>
        <time>2019-07-08T11:06:08Z</time>
      </trkpt>
      <trkpt lat="39.8397920" lon="-4.4543580">
        <ele>433.2</ele>
        <time>2019-07-08T11:06:11Z</time>
      </trkpt>
      <trkpt lat="39.8399190" lon="-4.4547320">
        <ele>432.8</ele>
        <time>2019-07-08T11:06:19Z</time>
      </trkpt>
      <trkpt lat="39.8399670" lon="-4.4549930">
        <ele>432.2</ele>
        <time>2019-07-08T11:06:25Z</time>
      </trkpt>
      <trkpt lat="39.8400040" lon="-4.4553070">
        <ele>432.0</ele>
        <time>2019-07-08T11:06:32Z</time>
      </trkpt>
      <trkpt lat="39.8400140" lon="-4.4555100">
        <ele>431.8</ele>
        <time>2019-07-08T11:06:37Z</time>
      </trkpt>
      <trkpt lat="39.8400150" lon="-4.4555380">
        <ele>432.0</ele>
        <time>2019-07-08T11:06:38Z</time>
      </trkpt>
      <trkpt lat="39.8400120" lon="-4.4555630">
        <ele>431.8</ele>
        <time>2019-07-08T11:06:41Z</time>
      </trkpt>
      <trkpt lat="39.8400140" lon="-4.4555930">
        <ele>432.4</ele>
        <time>2019-07-08T11:08:40Z</time>
      </trkpt>
      <trkpt lat="39.8400140" lon="-4.4556170">
        <ele>432.4</ele>
        <time>2019-07-08T11:08:41Z</time>
      </trkpt>
      <trkpt lat="39.8400100" lon="-4.4557850">
        <ele>432.6</ele>
        <time>2019-07-08T11:08:46Z</time>
      </trkpt>
      <trkpt lat="39.8399850" lon="-4.4561670">
        <ele>432.4</ele>
        <time>2019-07-08T11:08:54Z</time>
      </trkpt>
      <trkpt lat="39.8399500" lon="-4.4565270">
        <ele>432.8</ele>
        <time>2019-07-08T11:09:01Z</time>
      </trkpt>
      <trkpt lat="39.8399230" lon="-4.4568010">
        <ele>431.8</ele>
        <time>2019-07-08T11:09:06Z</time>
      </trkpt>
      <trkpt lat="39.8399110" lon="-4.4569100">
        <ele>431.8</ele>
        <time>2019-07-08T11:09:08Z</time>
      </trkpt>
      <trkpt lat="39.8398820" lon="-4.4572370">
        <ele>431.8</ele>
        <time>2019-07-08T11:09:14Z</time>
      </trkpt>
      <trkpt lat="39.8398610" lon="-4.4574570">
        <ele>432.6</ele>
        <time>2019-07-08T11:09:18Z</time>
      </trkpt>
      <trkpt lat="39.8398500" lon="-4.4575670">
        <ele>432.4</ele>
        <time>2019-07-08T11:09:20Z</time>
      </trkpt>
      <trkpt lat="39.8398140" lon="-4.4578320">
        <ele>432.2</ele>
        <time>2019-07-08T11:09:25Z</time>
      </trkpt>
      <trkpt lat="39.8397690" lon="-4.4581830">
        <ele>432.0</ele>
        <time>2019-07-08T11:09:32Z</time>
      </trkpt>
      <trkpt lat="39.8397260" lon="-4.4584640">
        <ele>432.2</ele>
        <time>2019-07-08T11:09:38Z</time>
      </trkpt>
      <trkpt lat="39.8396800" lon="-4.4586960">
        <ele>432.4</ele>
        <time>2019-07-08T11:09:43Z</time>
      </trkpt>
      <trkpt lat="39.8396500" lon="-4.4590020">
        <ele>433.8</ele>
        <time>2019-07-08T11:09:49Z</time>
      </trkpt>
      <trkpt lat="39.8396450" lon="-4.4590530">
        <ele>433.8</ele>
        <time>2019-07-08T11:09:50Z</time>
      </trkpt>
      <trkpt lat="39.8396170" lon="-4.4593740">
        <ele>434.4</ele>
        <time>2019-07-08T11:09:56Z</time>
      </trkpt>
      <trkpt lat="39.8396010" lon="-4.4595330">
        <ele>433.6</ele>
        <time>2019-07-08T11:09:59Z</time>
      </trkpt>
      <trkpt lat="39.8395510" lon="-4.4599850">
        <ele>434.2</ele>
        <time>2019-07-08T11:10:08Z</time>
      </trkpt>
      <trkpt lat="39.8395180" lon="-4.4602780">
        <ele>435.2</ele>
        <time>2019-07-08T11:10:14Z</time>
      </trkpt>
      <trkpt lat="39.8395050" lon="-4.4603750">
        <ele>435.4</ele>
        <time>2019-07-08T11:10:16Z</time>
      </trkpt>
      <trkpt lat="39.8394580" lon="-4.4608640">
        <ele>435.2</ele>
        <time>2019-07-08T11:10:26Z</time>
      </trkpt>
      <trkpt lat="39.8394180" lon="-4.4612700">
        <ele>435.2</ele>
        <time>2019-07-08T11:10:34Z</time>
      </trkpt>
      <trkpt lat="39.8393800" lon="-4.4618380">
        <ele>435.2</ele>
        <time>2019-07-08T11:10:44Z</time>
      </trkpt>
      <trkpt lat="39.8393770" lon="-4.4623540">
        <ele>435.2</ele>
        <time>2019-07-08T11:10:53Z</time>
      </trkpt>
      <trkpt lat="39.8393970" lon="-4.4629010">
        <ele>435.8</ele>
        <time>2019-07-08T11:11:02Z</time>
      </trkpt>
      <trkpt lat="39.8394130" lon="-4.4632710">
        <ele>436.2</ele>
        <time>2019-07-08T11:11:08Z</time>
      </trkpt>
      <trkpt lat="39.8394150" lon="-4.4634510">
        <ele>435.4</ele>
        <time>2019-07-08T11:11:11Z</time>
      </trkpt>
      <trkpt lat="39.8394260" lon="-4.4639810">
        <ele>435.8</ele>
        <time>2019-07-08T11:11:20Z</time>
      </trkpt>
      <trkpt lat="39.8394570" lon="-4.4643810">
        <ele>436.4</ele>
        <time>2019-07-08T11:11:27Z</time>
      </trkpt>
      <trkpt lat="39.8394640" lon="-4.4644390">
        <ele>436.6</ele>
        <time>2019-07-08T11:11:28Z</time>
      </trkpt>
      <trkpt lat="39.8395320" lon="-4.4650390">
        <ele>436.2</ele>
        <time>2019-07-08T11:11:38Z</time>
      </trkpt>
      <trkpt lat="39.8395810" lon="-4.4655430">
        <ele>436.2</ele>
        <time>2019-07-08T11:11:46Z</time>
      </trkpt>
      <trkpt lat="39.8396460" lon="-4.4660620">
        <ele>436.2</ele>
        <time>2019-07-08T11:11:55Z</time>
      </trkpt>
      <trkpt lat="39.8396920" lon="-4.4665180">
        <ele>437.8</ele>
        <time>2019-07-08T11:12:03Z</time>
      </trkpt>
      <trkpt lat="39.8397080" lon="-4.4666280">
        <ele>437.8</ele>
        <time>2019-07-08T11:12:05Z</time>
      </trkpt>
      <trkpt lat="39.8397460" lon="-4.4669120">
        <ele>437.4</ele>
        <time>2019-07-08T11:12:10Z</time>
      </trkpt>
      <trkpt lat="39.8397620" lon="-4.4670940">
        <ele>437.0</ele>
        <time>2019-07-08T11:12:13Z</time>
      </trkpt>
      <trkpt lat="39.8397760" lon="-4.4672160">
        <ele>436.6</ele>
        <time>2019-07-08T11:12:15Z</time>
      </trkpt>
      <trkpt lat="39.8398010" lon="-4.4676460">
        <ele>436.8</ele>
        <time>2019-07-08T11:12:22Z</time>
      </trkpt>
      <trkpt lat="39.8397790" lon="-4.4679980">
        <ele>437.0</ele>
        <time>2019-07-08T11:12:28Z</time>
      </trkpt>
      <trkpt lat="39.8397610" lon="-4.4684210">
        <ele>437.8</ele>
        <time>2019-07-08T11:12:36Z</time>
      </trkpt>
      <trkpt lat="39.8397830" lon="-4.4686410">
        <ele>438.2</ele>
        <time>2019-07-08T11:12:41Z</time>
      </trkpt>
      <trkpt lat="39.8398420" lon="-4.4687640">
        <ele>438.4</ele>
        <time>2019-07-08T11:12:44Z</time>
      </trkpt>
      <trkpt lat="39.8399020" lon="-4.4688480">
        <ele>438.6</ele>
        <time>2019-07-08T11:12:46Z</time>
      </trkpt>
      <trkpt lat="39.8400200" lon="-4.4689290">
        <ele>438.4</ele>
        <time>2019-07-08T11:12:49Z</time>
      </trkpt>
      <trkpt lat="39.8400680" lon="-4.4689430">
        <ele>438.2</ele>
        <time>2019-07-08T11:12:50Z</time>
      </trkpt>
      <trkpt lat="39.8401190" lon="-4.4689520">
        <ele>437.4</ele>
        <time>2019-07-08T11:12:51Z</time>
      </trkpt>
      <trkpt lat="39.8402250" lon="-4.4689810">
        <ele>436.6</ele>
        <time>2019-07-08T11:12:53Z</time>
      </trkpt>
      <trkpt lat="39.8403320" lon="-4.4690360">
        <ele>436.2</ele>
        <time>2019-07-08T11:12:55Z</time>
      </trkpt>
      <trkpt lat="39.8404850" lon="-4.4691530">
        <ele>435.6</ele>
        <time>2019-07-08T11:12:58Z</time>
      </trkpt>
      <trkpt lat="39.8406350" lon="-4.4692950">
        <ele>435.0</ele>
        <time>2019-07-08T11:13:01Z</time>
      </trkpt>
      <trkpt lat="39.8408590" lon="-4.4695640">
        <ele>434.6</ele>
        <time>2019-07-08T11:13:06Z</time>
      </trkpt>
      <trkpt lat="39.8409370" lon="-4.4696760">
        <ele>434.6</ele>
        <time>2019-07-08T11:13:08Z</time>
      </trkpt>
      <trkpt lat="39.8410450" lon="-4.4698280">
        <ele>435.0</ele>
        <time>2019-07-08T11:13:11Z</time>
      </trkpt>
      <trkpt lat="39.8410770" lon="-4.4698780">
        <ele>435.2</ele>
        <time>2019-07-08T11:13:12Z</time>
      </trkpt>
      <trkpt lat="39.8411320" lon="-4.4699800">
        <ele>435.2</ele>
        <time>2019-07-08T11:13:14Z</time>
      </trkpt>
      <trkpt lat="39.8413100" lon="-4.4703670">
        <ele>435.0</ele>
        <time>2019-07-08T11:13:22Z</time>
      </trkpt>
      <trkpt lat="39.8413790" lon="-4.4705690">
        <ele>435.4</ele>
        <time>2019-07-08T11:13:26Z</time>
      </trkpt>
      <trkpt lat="39.8414110" lon="-4.4706760">
        <ele>435.6</ele>
        <time>2019-07-08T11:13:28Z</time>
      </trkpt>
      <trkpt lat="39.8414280" lon="-4.4707290">
        <ele>435.8</ele>
        <time>2019-07-08T11:13:29Z</time>
      </trkpt>
      <trkpt lat="39.8415250" lon="-4.4711220">
        <ele>435.8</ele>
        <time>2019-07-08T11:13:36Z</time>
      </trkpt>
      <trkpt lat="39.8416270" lon="-4.4716050">
        <ele>435.8</ele>
        <time>2019-07-08T11:13:45Z</time>
      </trkpt>
      <trkpt lat="39.8416750" lon="-4.4718200">
        <ele>436.0</ele>
        <time>2019-07-08T11:13:49Z</time>
      </trkpt>
      <trkpt lat="39.8417280" lon="-4.4720460">
        <ele>436.8</ele>
        <time>2019-07-08T11:13:53Z</time>
      </trkpt>
      <trkpt lat="39.8418090" lon="-4.4724190">
        <ele>436.4</ele>
        <time>2019-07-08T11:13:59Z</time>
      </trkpt>
      <trkpt lat="39.8418270" lon="-4.4724820">
        <ele>436.4</ele>
        <time>2019-07-08T11:14:00Z</time>
      </trkpt>
      <trkpt lat="39.8418940" lon="-4.4728270">
        <ele>436.0</ele>
        <time>2019-07-08T11:14:05Z</time>
      </trkpt>
      <trkpt lat="39.8418990" lon="-4.4728990">
        <ele>435.0</ele>
        <time>2019-07-08T11:14:06Z</time>
      </trkpt>
      <trkpt lat="39.8419040" lon="-4.4729730">
        <ele>434.0</ele>
        <time>2019-07-08T11:14:07Z</time>
      </trkpt>
      <trkpt lat="39.8419170" lon="-4.4732030">
        <ele>432.8</ele>
        <time>2019-07-08T11:14:10Z</time>
      </trkpt>
      <trkpt lat="39.8419120" lon="-4.4734400">
        <ele>432.6</ele>
        <time>2019-07-08T11:14:13Z</time>
      </trkpt>
      <trkpt lat="39.8419230" lon="-4.4737350">
        <ele>431.8</ele>
        <time>2019-07-08T11:14:17Z</time>
      </trkpt>
      <trkpt lat="39.8419290" lon="-4.4737990">
        <ele>431.6</ele>
        <time>2019-07-08T11:14:18Z</time>
      </trkpt>
      <trkpt lat="39.8419390" lon="-4.4738610">
        <ele>431.4</ele>
        <time>2019-07-08T11:14:19Z</time>
      </trkpt>
      <trkpt lat="39.8419960" lon="-4.4740340">
        <ele>431.4</ele>
        <time>2019-07-08T11:14:22Z</time>
      </trkpt>
      <trkpt lat="39.8420250" lon="-4.4740850">
        <ele>431.6</ele>
        <time>2019-07-08T11:14:23Z</time>
      </trkpt>
      <trkpt lat="39.8421770" lon="-4.4742430">
        <ele>431.4</ele>
        <time>2019-07-08T11:14:27Z</time>
      </trkpt>
      <trkpt lat="39.8422150" lon="-4.4742760">
        <ele>431.6</ele>
        <time>2019-07-08T11:14:28Z</time>
      </trkpt>
      <trkpt lat="39.8423500" lon="-4.4743830">
        <ele>432.6</ele>
        <time>2019-07-08T11:14:32Z</time>
      </trkpt>
      <trkpt lat="39.8424260" lon="-4.4744180">
        <ele>433.0</ele>
        <time>2019-07-08T11:14:34Z</time>
      </trkpt>
      <trkpt lat="39.8424630" lon="-4.4744370">
        <ele>433.0</ele>
        <time>2019-07-08T11:14:35Z</time>
      </trkpt>
      <trkpt lat="39.8424980" lon="-4.4744590">
        <ele>433.0</ele>
        <time>2019-07-08T11:14:36Z</time>
      </trkpt>
      <trkpt lat="39.8426100" lon="-4.4745390">
        <ele>433.0</ele>
        <time>2019-07-08T11:14:39Z</time>
      </trkpt>
      <trkpt lat="39.8426510" lon="-4.4745600">
        <ele>433.0</ele>
        <time>2019-07-08T11:14:40Z</time>
      </trkpt>
      <trkpt lat="39.8428270" lon="-4.4746470">
        <ele>433.0</ele>
        <time>2019-07-08T11:14:44Z</time>
      </trkpt>
      <trkpt lat="39.8428740" lon="-4.4746620">
        <ele>433.2</ele>
        <time>2019-07-08T11:14:45Z</time>
      </trkpt>
      <trkpt lat="39.8432730" lon="-4.4747610">
        <ele>432.8</ele>
        <time>2019-07-08T11:14:53Z</time>
      </trkpt>
      <trkpt lat="39.8434720" lon="-4.4748440">
        <ele>433.2</ele>
        <time>2019-07-08T11:14:57Z</time>
      </trkpt>
      <trkpt lat="39.8436100" lon="-4.4749430">
        <ele>432.8</ele>
        <time>2019-07-08T11:15:00Z</time>
      </trkpt>
      <trkpt lat="39.8437760" lon="-4.4751000">
        <ele>433.0</ele>
        <time>2019-07-08T11:15:04Z</time>
      </trkpt>
      <trkpt lat="39.8438700" lon="-4.4751670">
        <ele>433.0</ele>
        <time>2019-07-08T11:15:06Z</time>
      </trkpt>
      <trkpt lat="39.8439170" lon="-4.4752010">
        <ele>433.0</ele>
        <time>2019-07-08T11:15:07Z</time>
      </trkpt>
      <trkpt lat="39.8440900" lon="-4.4753690">
        <ele>432.8</ele>
        <time>2019-07-08T11:15:11Z</time>
      </trkpt>
      <trkpt lat="39.8443480" lon="-4.4756460">
        <ele>433.0</ele>
        <time>2019-07-08T11:15:17Z</time>
      </trkpt>
      <trkpt lat="39.8444880" lon="-4.4757710">
        <ele>433.2</ele>
        <time>2019-07-08T11:15:20Z</time>
      </trkpt>
      <trkpt lat="39.8445830" lon="-4.4758430">
        <ele>432.0</ele>
        <time>2019-07-08T11:15:22Z</time>
      </trkpt>
      <trkpt lat="39.8447740" lon="-4.4759380">
        <ele>431.6</ele>
        <time>2019-07-08T11:15:26Z</time>
      </trkpt>
      <trkpt lat="39.8450760" lon="-4.4761270">
        <ele>432.0</ele>
        <time>2019-07-08T11:15:33Z</time>
      </trkpt>
      <trkpt lat="39.8454620" lon="-4.4764830">
        <ele>432.0</ele>
        <time>2019-07-08T11:15:43Z</time>
      </trkpt>
      <trkpt lat="39.8457710" lon="-4.4768660">
        <ele>431.6</ele>
        <time>2019-07-08T11:15:52Z</time>
      </trkpt>
      <trkpt lat="39.8458040" lon="-4.4769120">
        <ele>431.4</ele>
        <time>2019-07-08T11:15:53Z</time>
      </trkpt>
      <trkpt lat="39.8458970" lon="-4.4770460">
        <ele>430.8</ele>
        <time>2019-07-08T11:15:56Z</time>
      </trkpt>
      <trkpt lat="39.8459610" lon="-4.4771260">
        <ele>430.6</ele>
        <time>2019-07-08T11:15:58Z</time>
      </trkpt>
      <trkpt lat="39.8460980" lon="-4.4772680">
        <ele>430.8</ele>
        <time>2019-07-08T11:16:02Z</time>
      </trkpt>
      <trkpt lat="39.8462410" lon="-4.4774080">
        <ele>430.6</ele>
        <time>2019-07-08T11:16:06Z</time>
      </trkpt>
      <trkpt lat="39.8463160" lon="-4.4774840">
        <ele>429.8</ele>
        <time>2019-07-08T11:16:08Z</time>
      </trkpt>
      <trkpt lat="39.8465350" lon="-4.4777550">
        <ele>429.8</ele>
        <time>2019-07-08T11:16:14Z</time>
      </trkpt>
      <trkpt lat="39.8468250" lon="-4.4781610">
        <ele>430.2</ele>
        <time>2019-07-08T11:16:23Z</time>
      </trkpt>
      <trkpt lat="39.8470450" lon="-4.4785090">
        <ele>430.2</ele>
        <time>2019-07-08T11:16:31Z</time>
      </trkpt>
      <trkpt lat="39.8472540" lon="-4.4788890">
        <ele>430.6</ele>
        <time>2019-07-08T11:16:40Z</time>
      </trkpt>
      <trkpt lat="39.8473330" lon="-4.4790120">
        <ele>431.0</ele>
        <time>2019-07-08T11:16:43Z</time>
      </trkpt>
      <trkpt lat="39.8473610" lon="-4.4790490">
        <ele>431.0</ele>
        <time>2019-07-08T11:16:44Z</time>
      </trkpt>
      <trkpt lat="39.8474870" lon="-4.4791890">
        <ele>431.0</ele>
        <time>2019-07-08T11:16:48Z</time>
      </trkpt>
      <trkpt lat="39.8477810" lon="-4.4794410">
        <ele>430.2</ele>
        <time>2019-07-08T11:16:56Z</time>
      </trkpt>
      <trkpt lat="39.8480940" lon="-4.4796740">
        <ele>430.2</ele>
        <time>2019-07-08T11:17:04Z</time>
      </trkpt>
      <trkpt lat="39.8482180" lon="-4.4797560">
        <ele>429.8</ele>
        <time>2019-07-08T11:17:07Z</time>
      </trkpt>
      <trkpt lat="39.8483400" lon="-4.4798290">
        <ele>429.2</ele>
        <time>2019-07-08T11:17:10Z</time>
      </trkpt>
      <trkpt lat="39.8483790" lon="-4.4798530">
        <ele>429.0</ele>
        <time>2019-07-08T11:17:11Z</time>
      </trkpt>
      <trkpt lat="39.8484200" lon="-4.4798730">
        <ele>429.2</ele>
        <time>2019-07-08T11:17:12Z</time>
      </trkpt>
      <trkpt lat="39.8486230" lon="-4.4799780">
        <ele>429.6</ele>
        <time>2019-07-08T11:17:17Z</time>
      </trkpt>
      <trkpt lat="39.8486650" lon="-4.4799970">
        <ele>429.2</ele>
        <time>2019-07-08T11:17:18Z</time>
      </trkpt>
      <trkpt lat="39.8487490" lon="-4.4800340">
        <ele>428.8</ele>
        <time>2019-07-08T11:17:20Z</time>
      </trkpt>
      <trkpt lat="39.8487920" lon="-4.4800490">
        <ele>428.8</ele>
        <time>2019-07-08T11:17:21Z</time>
      </trkpt>
      <trkpt lat="39.8488780" lon="-4.4800700">
        <ele>428.6</ele>
        <time>2019-07-08T11:17:23Z</time>
      </trkpt>
      <trkpt lat="39.8490600" lon="-4.4800890">
        <ele>428.8</ele>
        <time>2019-07-08T11:17:27Z</time>
      </trkpt>
      <trkpt lat="39.8491540" lon="-4.4800920">
        <ele>428.6</ele>
        <time>2019-07-08T11:17:29Z</time>
      </trkpt>
      <trkpt lat="39.8493060" lon="-4.4800920">
        <ele>427.8</ele>
        <time>2019-07-08T11:17:32Z</time>
      </trkpt>
      <trkpt lat="39.8495270" lon="-4.4800960">
        <ele>427.8</ele>
        <time>2019-07-08T11:17:36Z</time>
      </trkpt>
      <trkpt lat="39.8496340" lon="-4.4801040">
        <ele>427.6</ele>
        <time>2019-07-08T11:17:38Z</time>
      </trkpt>
      <trkpt lat="39.8498490" lon="-4.4800800">
        <ele>427.4</ele>
        <time>2019-07-08T11:17:42Z</time>
      </trkpt>
      <trkpt lat="39.8499520" lon="-4.4800600">
        <ele>427.6</ele>
        <time>2019-07-08T11:17:44Z</time>
      </trkpt>
      <trkpt lat="39.8500980" lon="-4.4800340">
        <ele>427.4</ele>
        <time>2019-07-08T11:17:47Z</time>
      </trkpt>
      <trkpt lat="39.8501950" lon="-4.4800090">
        <ele>427.0</ele>
        <time>2019-07-08T11:17:49Z</time>
      </trkpt>
      <trkpt lat="39.8502450" lon="-4.4799970">
        <ele>426.8</ele>
        <time>2019-07-08T11:17:50Z</time>
      </trkpt>
      <trkpt lat="39.8504410" lon="-4.4799800">
        <ele>425.8</ele>
        <time>2019-07-08T11:17:54Z</time>
      </trkpt>
      <trkpt lat="39.8504910" lon="-4.4799770">
        <ele>426.0</ele>
        <time>2019-07-08T11:17:55Z</time>
      </trkpt>
      <trkpt lat="39.8508250" lon="-4.4799310">
        <ele>426.2</ele>
        <time>2019-07-08T11:18:02Z</time>
      </trkpt>
      <trkpt lat="39.8509660" lon="-4.4799040">
        <ele>426.0</ele>
        <time>2019-07-08T11:18:05Z</time>
      </trkpt>
      <trkpt lat="39.8511600" lon="-4.4798820">
        <ele>425.6</ele>
        <time>2019-07-08T11:18:09Z</time>
      </trkpt>
      <trkpt lat="39.8515540" lon="-4.4798580">
        <ele>426.4</ele>
        <time>2019-07-08T11:18:17Z</time>
      </trkpt>
      <trkpt lat="39.8520730" lon="-4.4798400">
        <ele>426.4</ele>
        <time>2019-07-08T11:18:28Z</time>
      </trkpt>
      <trkpt lat="39.8522620" lon="-4.4798280">
        <ele>426.8</ele>
        <time>2019-07-08T11:18:32Z</time>
      </trkpt>
      <trkpt lat="39.8525020" lon="-4.4798190">
        <ele>426.8</ele>
        <time>2019-07-08T11:18:37Z</time>
      </trkpt>
      <trkpt lat="39.8528960" lon="-4.4798090">
        <ele>426.6</ele>
        <time>2019-07-08T11:18:45Z</time>
      </trkpt>
      <trkpt lat="39.8531400" lon="-4.4798170">
        <ele>426.8</ele>
        <time>2019-07-08T11:18:50Z</time>
      </trkpt>
      <trkpt lat="39.8532330" lon="-4.4798210">
        <ele>427.0</ele>
        <time>2019-07-08T11:18:52Z</time>
      </trkpt>
      <trkpt lat="39.8535930" lon="-4.4798630">
        <ele>426.8</ele>
        <time>2019-07-08T11:19:00Z</time>
      </trkpt>
      <trkpt lat="39.8539790" lon="-4.4799370">
        <ele>426.4</ele>
        <time>2019-07-08T11:19:09Z</time>
      </trkpt>
      <trkpt lat="39.8542960" lon="-4.4800620">
        <ele>427.6</ele>
        <time>2019-07-08T11:19:18Z</time>
      </trkpt>
      <trkpt lat="39.8543610" lon="-4.4801050">
        <ele>427.8</ele>
        <time>2019-07-08T11:19:20Z</time>
      </trkpt>
      <trkpt lat="39.8545230" lon="-4.4802640">
        <ele>428.0</ele>
        <time>2019-07-08T11:19:26Z</time>
      </trkpt>
      <trkpt lat="39.8546080" lon="-4.4803630">
        <ele>429.0</ele>
        <time>2019-07-08T11:19:30Z</time>
      </trkpt>
      <trkpt lat="39.8546770" lon="-4.4804220">
        <ele>429.8</ele>
        <time>2019-07-08T11:19:33Z</time>
      </trkpt>
      <trkpt lat="39.8547220" lon="-4.4804520">
        <ele>430.2</ele>
        <time>2019-07-08T11:19:35Z</time>
      </trkpt>
      <trkpt lat="39.8547850" lon="-4.4804660">
        <ele>431.2</ele>
        <time>2019-07-08T11:19:38Z</time>
      </trkpt>
      <trkpt lat="39.8548220" lon="-4.4804630">
        <ele>431.8</ele>
        <time>2019-07-08T11:19:40Z</time>
      </trkpt>
      <trkpt lat="39.8548460" lon="-4.4804220">
        <ele>432.2</ele>
        <time>2019-07-08T11:19:42Z</time>
      </trkpt>
      <trkpt lat="39.8548410" lon="-4.4803270">
        <ele>432.0</ele>
        <time>2019-07-08T11:19:45Z</time>
      </trkpt>
      <trkpt lat="39.8548360" lon="-4.4802930">
        <ele>431.6</ele>
        <time>2019-07-08T11:19:46Z</time>
      </trkpt>
      <trkpt lat="39.8548410" lon="-4.4800950">
        <ele>432.0</ele>
        <time>2019-07-08T11:19:52Z</time>
      </trkpt>
      <trkpt lat="39.8548470" lon="-4.4800640">
        <ele>431.8</ele>
        <time>2019-07-08T11:19:53Z</time>
      </trkpt>
      <trkpt lat="39.8548600" lon="-4.4799280">
        <ele>431.8</ele>
        <time>2019-07-08T11:19:57Z</time>
      </trkpt>
      <trkpt lat="39.8548690" lon="-4.4798270">
        <ele>431.6</ele>
        <time>2019-07-08T11:20:00Z</time>
      </trkpt>
      <trkpt lat="39.8548680" lon="-4.4797930">
        <ele>431.6</ele>
        <time>2019-07-08T11:20:01Z</time>
      </trkpt>
      <trkpt lat="39.8548720" lon="-4.4797330">
        <ele>431.4</ele>
        <time>2019-07-08T11:20:03Z</time>
      </trkpt>
      <trkpt lat="39.8548960" lon="-4.4797340">
        <ele>431.2</ele>
        <time>2019-07-08T11:20:05Z</time>
      </trkpt>
      <trkpt lat="39.8548950" lon="-4.4797850">
        <ele>431.4</ele>
        <time>2019-07-08T11:20:07Z</time>
      </trkpt>
      <trkpt lat="39.8548900" lon="-4.4798390">
        <ele>431.6</ele>
        <time>2019-07-08T11:20:09Z</time>
      </trkpt>
      <trkpt lat="39.8548810" lon="-4.4799290">
        <ele>431.6</ele>
        <time>2019-07-08T11:20:12Z</time>
      </trkpt>
      <trkpt lat="39.8548640" lon="-4.4800770">
        <ele>431.6</ele>
        <time>2019-07-08T11:20:17Z</time>
      </trkpt>
      <trkpt lat="39.8548560" lon="-4.4801470">
        <ele>431.8</ele>
        <time>2019-07-08T11:20:20Z</time>
      </trkpt>
      <trkpt lat="39.8548520" lon="-4.4802070">
        <ele>431.8</ele>
        <time>2019-07-08T11:20:23Z</time>
      </trkpt>
      <trkpt lat="39.8548510" lon="-4.4802390">
        <ele>431.6</ele>
        <time>2019-07-08T11:20:25Z</time>
      </trkpt>
      <trkpt lat="39.8548540" lon="-4.4802530">
        <ele>431.6</ele>
        <time>2019-07-08T11:20:26Z</time>
      </trkpt>
      <trkpt lat="39.8548570" lon="-4.4802630">
        <ele>431.6</ele>
        <time>2019-07-08T11:20:29Z</time>
      </trkpt>
      <trkpt lat="39.8548350" lon="-4.4802420">
        <ele>432.2</ele>
        <time>2019-07-08T11:21:22Z</time>
      </trkpt>
      <trkpt lat="39.8548320" lon="-4.4801910">
        <ele>432.4</ele>
        <time>2019-07-08T11:21:24Z</time>
      </trkpt>
      <trkpt lat="39.8548340" lon="-4.4801250">
        <ele>432.4</ele>
        <time>2019-07-08T11:21:26Z</time>
      </trkpt>
      <trkpt lat="39.8548450" lon="-4.4800480">
        <ele>432.4</ele>
        <time>2019-07-08T11:21:28Z</time>
      </trkpt>
      <trkpt lat="39.8548530" lon="-4.4799100">
        <ele>432.4</ele>
        <time>2019-07-08T11:21:31Z</time>
      </trkpt>
      <trkpt lat="39.8548610" lon="-4.4798120">
        <ele>432.2</ele>
        <time>2019-07-08T11:21:33Z</time>
      </trkpt>
      <trkpt lat="39.8548670" lon="-4.4797630">
        <ele>432.2</ele>
        <time>2019-07-08T11:21:34Z</time>
      </trkpt>
      <trkpt lat="39.8548920" lon="-4.4794010">
        <ele>432.2</ele>
        <time>2019-07-08T11:21:41Z</time>
      </trkpt>
      <trkpt lat="39.8548960" lon="-4.4793450">
        <ele>432.2</ele>
        <time>2019-07-08T11:21:42Z</time>
      </trkpt>
      <trkpt lat="39.8549370" lon="-4.4789360">
        <ele>431.8</ele>
        <time>2019-07-08T11:21:49Z</time>
      </trkpt>
      <trkpt lat="39.8549460" lon="-4.4788110">
        <ele>431.8</ele>
        <time>2019-07-08T11:21:51Z</time>
      </trkpt>
      <trkpt lat="39.8549530" lon="-4.4783090">
        <ele>431.8</ele>
        <time>2019-07-08T11:21:59Z</time>
      </trkpt>
      <trkpt lat="39.8549160" lon="-4.4781000">
        <ele>431.4</ele>
        <time>2019-07-08T11:22:02Z</time>
      </trkpt>
      <trkpt lat="39.8548980" lon="-4.4780280">
        <ele>431.2</ele>
        <time>2019-07-08T11:22:03Z</time>
      </trkpt>
      <trkpt lat="39.8548490" lon="-4.4778860">
        <ele>430.8</ele>
        <time>2019-07-08T11:22:05Z</time>
      </trkpt>
      <trkpt lat="39.8547970" lon="-4.4777390">
        <ele>430.4</ele>
        <time>2019-07-08T11:22:07Z</time>
      </trkpt>
      <trkpt lat="39.8547580" lon="-4.4775850">
        <ele>430.2</ele>
        <time>2019-07-08T11:22:09Z</time>
      </trkpt>
      <trkpt lat="39.8547450" lon="-4.4775070">
        <ele>430.2</ele>
        <time>2019-07-08T11:22:10Z</time>
      </trkpt>
      <trkpt lat="39.8547380" lon="-4.4774290">
        <ele>430.2</ele>
        <time>2019-07-08T11:22:11Z</time>
      </trkpt>
      <trkpt lat="39.8547690" lon="-4.4771280">
        <ele>430.0</ele>
        <time>2019-07-08T11:22:15Z</time>
      </trkpt>
      <trkpt lat="39.8549100" lon="-4.4768250">
        <ele>429.6</ele>
        <time>2019-07-08T11:22:20Z</time>
      </trkpt>
      <trkpt lat="39.8550000" lon="-4.4767480">
        <ele>429.4</ele>
        <time>2019-07-08T11:22:22Z</time>
      </trkpt>
      <trkpt lat="39.8551060" lon="-4.4767050">
        <ele>429.6</ele>
        <time>2019-07-08T11:22:24Z</time>
      </trkpt>
      <trkpt lat="39.8551600" lon="-4.4766870">
        <ele>429.4</ele>
        <time>2019-07-08T11:22:25Z</time>
      </trkpt>
      <trkpt lat="39.8555450" lon="-4.4765640">
        <ele>429.4</ele>
        <time>2019-07-08T11:22:32Z</time>
      </trkpt>
      <trkpt lat="39.8557130" lon="-4.4765270">
        <ele>429.4</ele>
        <time>2019-07-08T11:22:35Z</time>
      </trkpt>
      <trkpt lat="39.8558840" lon="-4.4765280">
        <ele>429.6</ele>
        <time>2019-07-08T11:22:38Z</time>
      </trkpt>
      <trkpt lat="39.8562280" lon="-4.4765710">
        <ele>430.4</ele>
        <time>2019-07-08T11:22:44Z</time>
      </trkpt>
      <trkpt lat="39.8563430" lon="-4.4765970">
        <ele>430.2</ele>
        <time>2019-07-08T11:22:46Z</time>
      </trkpt>
      <trkpt lat="39.8566320" lon="-4.4766700">
        <ele>429.6</ele>
        <time>2019-07-08T11:22:51Z</time>
      </trkpt>
      <trkpt lat="39.8568040" lon="-4.4767120">
        <ele>429.6</ele>
        <time>2019-07-08T11:22:54Z</time>
      </trkpt>
      <trkpt lat="39.8573060" lon="-4.4768150">
        <ele>429.0</ele>
        <time>2019-07-08T11:23:03Z</time>
      </trkpt>
      <trkpt lat="39.8577280" lon="-4.4768890">
        <ele>429.2</ele>
        <time>2019-07-08T11:23:11Z</time>
      </trkpt>
      <trkpt lat="39.8580010" lon="-4.4769420">
        <ele>429.4</ele>
        <time>2019-07-08T11:23:16Z</time>
      </trkpt>
      <trkpt lat="39.8582790" lon="-4.4769840">
        <ele>430.0</ele>
        <time>2019-07-08T11:23:21Z</time>
      </trkpt>
      <trkpt lat="39.8587190" lon="-4.4770700">
        <ele>430.2</ele>
        <time>2019-07-08T11:23:29Z</time>
      </trkpt>
      <trkpt lat="39.8587740" lon="-4.4770860">
        <ele>430.2</ele>
        <time>2019-07-08T11:23:30Z</time>
      </trkpt>
      <trkpt lat="39.8590980" lon="-4.4771610">
        <ele>430.4</ele>
        <time>2019-07-08T11:23:36Z</time>
      </trkpt>
      <trkpt lat="39.8596400" lon="-4.4773200">
        <ele>430.0</ele>
        <time>2019-07-08T11:23:46Z</time>
      </trkpt>
      <trkpt lat="39.8601830" lon="-4.4774850">
        <ele>429.8</ele>
        <time>2019-07-08T11:23:56Z</time>
      </trkpt>
      <trkpt lat="39.8604630" lon="-4.4775450">
        <ele>430.2</ele>
        <time>2019-07-08T11:24:01Z</time>
      </trkpt>
      <trkpt lat="39.8606850" lon="-4.4775870">
        <ele>430.2</ele>
        <time>2019-07-08T11:24:05Z</time>
      </trkpt>
      <trkpt lat="39.8611280" lon="-4.4776790">
        <ele>430.2</ele>
        <time>2019-07-08T11:24:13Z</time>
      </trkpt>
      <trkpt lat="39.8615930" lon="-4.4777670">
        <ele>430.4</ele>
        <time>2019-07-08T11:24:21Z</time>
      </trkpt>
      <trkpt lat="39.8620560" lon="-4.4778460">
        <ele>430.4</ele>
        <time>2019-07-08T11:24:29Z</time>
      </trkpt>
      <trkpt lat="39.8623990" lon="-4.4779360">
        <ele>430.4</ele>
        <time>2019-07-08T11:24:35Z</time>
      </trkpt>
      <trkpt lat="39.8626310" lon="-4.4779630">
        <ele>430.6</ele>
        <time>2019-07-08T11:24:39Z</time>
      </trkpt>
      <trkpt lat="39.8627460" lon="-4.4779490">
        <ele>430.8</ele>
        <time>2019-07-08T11:24:41Z</time>
      </trkpt>
      <trkpt lat="39.8631250" lon="-4.4778000">
        <ele>431.0</ele>
        <time>2019-07-08T11:24:48Z</time>
      </trkpt>
      <trkpt lat="39.8634350" lon="-4.4776420">
        <ele>430.6</ele>
        <time>2019-07-08T11:24:54Z</time>
      </trkpt>
      <trkpt lat="39.8638950" lon="-4.4774170">
        <ele>431.0</ele>
        <time>2019-07-08T11:25:03Z</time>
      </trkpt>
      <trkpt lat="39.8643390" lon="-4.4771850">
        <ele>430.8</ele>
        <time>2019-07-08T11:25:12Z</time>
      </trkpt>
      <trkpt lat="39.8644360" lon="-4.4771270">
        <ele>430.8</ele>
        <time>2019-07-08T11:25:14Z</time>
      </trkpt>
      <trkpt lat="39.8646640" lon="-4.4769550">
        <ele>430.8</ele>
        <time>2019-07-08T11:25:19Z</time>
      </trkpt>
      <trkpt lat="39.8649330" lon="-4.4767260">
        <ele>430.8</ele>
        <time>2019-07-08T11:25:26Z</time>
      </trkpt>
      <trkpt lat="39.8651120" lon="-4.4766210">
        <ele>430.8</ele>
        <time>2019-07-08T11:25:31Z</time>
      </trkpt>
      <trkpt lat="39.8651360" lon="-4.4766330">
        <ele>430.8</ele>
        <time>2019-07-08T11:25:32Z</time>
      </trkpt>
      <trkpt lat="39.8651820" lon="-4.4767490">
        <ele>430.6</ele>
        <time>2019-07-08T11:25:35Z</time>
      </trkpt>
      <trkpt lat="39.8651830" lon="-4.4769250">
        <ele>430.4</ele>
        <time>2019-07-08T11:25:38Z</time>
      </trkpt>
      <trkpt lat="39.8651870" lon="-4.4770480">
        <ele>430.2</ele>
        <time>2019-07-08T11:25:40Z</time>
      </trkpt>
      <trkpt lat="39.8651900" lon="-4.4771090">
        <ele>430.2</ele>
        <time>2019-07-08T11:25:41Z</time>
      </trkpt>
      <trkpt lat="39.8651930" lon="-4.4775610">
        <ele>430.0</ele>
        <time>2019-07-08T11:25:48Z</time>
      </trkpt>
      <trkpt lat="39.8652040" lon="-4.4778930">
        <ele>430.0</ele>
        <time>2019-07-08T11:25:53Z</time>
      </trkpt>
      <trkpt lat="39.8652180" lon="-4.4781070">
        <ele>430.4</ele>
        <time>2019-07-08T11:25:56Z</time>
      </trkpt>
      <trkpt lat="39.8652160" lon="-4.4784160">
        <ele>429.8</ele>
        <time>2019-07-08T11:26:00Z</time>
      </trkpt>
      <trkpt lat="39.8652220" lon="-4.4784940">
        <ele>429.4</ele>
        <time>2019-07-08T11:26:01Z</time>
      </trkpt>
      <trkpt lat="39.8652410" lon="-4.4785680">
        <ele>429.2</ele>
        <time>2019-07-08T11:26:02Z</time>
      </trkpt>
      <trkpt lat="39.8653190" lon="-4.4786790">
        <ele>428.8</ele>
        <time>2019-07-08T11:26:04Z</time>
      </trkpt>
      <trkpt lat="39.8653710" lon="-4.4787080">
        <ele>428.8</ele>
        <time>2019-07-08T11:26:05Z</time>
      </trkpt>
      <trkpt lat="39.8654250" lon="-4.4787300">
        <ele>428.8</ele>
        <time>2019-07-08T11:26:06Z</time>
      </trkpt>
      <trkpt lat="39.8654790" lon="-4.4787510">
        <ele>428.8</ele>
        <time>2019-07-08T11:26:07Z</time>
      </trkpt>
      <trkpt lat="39.8657500" lon="-4.4788150">
        <ele>428.4</ele>
        <time>2019-07-08T11:26:12Z</time>
      </trkpt>
      <trkpt lat="39.8659610" lon="-4.4788280">
        <ele>428.6</ele>
        <time>2019-07-08T11:26:16Z</time>
      </trkpt>
      <trkpt lat="39.8660590" lon="-4.4788020">
        <ele>429.0</ele>
        <time>2019-07-08T11:26:18Z</time>
      </trkpt>
      <trkpt lat="39.8661530" lon="-4.4787750">
        <ele>429.2</ele>
        <time>2019-07-08T11:26:20Z</time>
      </trkpt>
      <trkpt lat="39.8663330" lon="-4.4787910">
        <ele>429.4</ele>
        <time>2019-07-08T11:26:24Z</time>
      </trkpt>
      <trkpt lat="39.8663790" lon="-4.4788050">
        <ele>429.4</ele>
        <time>2019-07-08T11:26:25Z</time>
      </trkpt>
      <trkpt lat="39.8664240" lon="-4.4788210">
        <ele>429.8</ele>
        <time>2019-07-08T11:26:26Z</time>
      </trkpt>
      <trkpt lat="39.8666490" lon="-4.4789090">
        <ele>430.0</ele>
        <time>2019-07-08T11:26:31Z</time>
      </trkpt>
      <trkpt lat="39.8670080" lon="-4.4790670">
        <ele>429.8</ele>
        <time>2019-07-08T11:26:39Z</time>
      </trkpt>
      <trkpt lat="39.8670540" lon="-4.4790800">
        <ele>429.8</ele>
        <time>2019-07-08T11:26:40Z</time>
      </trkpt>
      <trkpt lat="39.8672010" lon="-4.4791040">
        <ele>429.8</ele>
        <time>2019-07-08T11:26:43Z</time>
      </trkpt>
      <trkpt lat="39.8673450" lon="-4.4791130">
        <ele>429.8</ele>
        <time>2019-07-08T11:26:46Z</time>
      </trkpt>
      <trkpt lat="39.8676460" lon="-4.4791740">
        <ele>429.0</ele>
        <time>2019-07-08T11:26:53Z</time>
      </trkpt>
      <trkpt lat="39.8679510" lon="-4.4792530">
        <ele>429.6</ele>
        <time>2019-07-08T11:27:00Z</time>
      </trkpt>
      <trkpt lat="39.8679930" lon="-4.4792680">
        <ele>429.6</ele>
        <time>2019-07-08T11:27:01Z</time>
      </trkpt>
      <trkpt lat="39.8680710" lon="-4.4793020">
        <ele>429.6</ele>
        <time>2019-07-08T11:27:03Z</time>
      </trkpt>
      <trkpt lat="39.8681540" lon="-4.4793240">
        <ele>429.0</ele>
        <time>2019-07-08T11:27:05Z</time>
      </trkpt>
      <trkpt lat="39.8684240" lon="-4.4794020">
        <ele>429.4</ele>
        <time>2019-07-08T11:27:12Z</time>
      </trkpt>
      <trkpt lat="39.8687290" lon="-4.4795320">
        <ele>429.6</ele>
        <time>2019-07-08T11:27:20Z</time>
      </trkpt>
      <trkpt lat="39.8688350" lon="-4.4796010">
        <ele>429.2</ele>
        <time>2019-07-08T11:27:23Z</time>
      </trkpt>
      <trkpt lat="39.8688740" lon="-4.4796220">
        <ele>429.2</ele>
        <time>2019-07-08T11:27:24Z</time>
      </trkpt>
      <trkpt lat="39.8689130" lon="-4.4796360">
        <ele>429.2</ele>
        <time>2019-07-08T11:27:25Z</time>
      </trkpt>
      <trkpt lat="39.8690310" lon="-4.4796430">
        <ele>429.2</ele>
        <time>2019-07-08T11:27:28Z</time>
      </trkpt>
      <trkpt lat="39.8691070" lon="-4.4796430">
        <ele>429.4</ele>
        <time>2019-07-08T11:27:30Z</time>
      </trkpt>
      <trkpt lat="39.8692780" lon="-4.4797030">
        <ele>428.8</ele>
        <time>2019-07-08T11:27:35Z</time>
      </trkpt>
      <trkpt lat="39.8693130" lon="-4.4797210">
        <ele>428.6</ele>
        <time>2019-07-08T11:27:36Z</time>
      </trkpt>
      <trkpt lat="39.8695680" lon="-4.4798070">
        <ele>428.4</ele>
        <time>2019-07-08T11:27:43Z</time>
      </trkpt>
      <trkpt lat="39.8698010" lon="-4.4798490">
        <ele>428.4</ele>
        <time>2019-07-08T11:27:49Z</time>
      </trkpt>
      <trkpt lat="39.8698380" lon="-4.4798560">
        <ele>428.4</ele>
        <time>2019-07-08T11:27:50Z</time>
      </trkpt>
      <trkpt lat="39.8699410" lon="-4.4798930">
        <ele>428.4</ele>
        <time>2019-07-08T11:27:53Z</time>
      </trkpt>
      <trkpt lat="39.8700180" lon="-4.4799110">
        <ele>428.4</ele>
        <time>2019-07-08T11:27:55Z</time>
      </trkpt>
      <trkpt lat="39.8702420" lon="-4.4799890">
        <ele>427.6</ele>
        <time>2019-07-08T11:28:01Z</time>
      </trkpt>
      <trkpt lat="39.8702790" lon="-4.4800070">
        <ele>427.4</ele>
        <time>2019-07-08T11:28:02Z</time>
      </trkpt>
      <trkpt lat="39.8703730" lon="-4.4800690">
        <ele>426.8</ele>
        <time>2019-07-08T11:28:04Z</time>
      </trkpt>
      <trkpt lat="39.8704240" lon="-4.4801060">
        <ele>426.2</ele>
        <time>2019-07-08T11:28:05Z</time>
      </trkpt>
      <trkpt lat="39.8705790" lon="-4.4801950">
        <ele>424.6</ele>
        <time>2019-07-08T11:28:08Z</time>
      </trkpt>
      <trkpt lat="39.8707410" lon="-4.4802620">
        <ele>423.8</ele>
        <time>2019-07-08T11:28:11Z</time>
      </trkpt>
      <trkpt lat="39.8708460" lon="-4.4803040">
        <ele>423.2</ele>
        <time>2019-07-08T11:28:13Z</time>
      </trkpt>
      <trkpt lat="39.8709910" lon="-4.4803560">
        <ele>422.8</ele>
        <time>2019-07-08T11:28:16Z</time>
      </trkpt>
      <trkpt lat="39.8710840" lon="-4.4803920">
        <ele>422.6</ele>
        <time>2019-07-08T11:28:18Z</time>
      </trkpt>
      <trkpt lat="39.8711300" lon="-4.4804110">
        <ele>422.4</ele>
        <time>2019-07-08T11:28:19Z</time>
      </trkpt>
      <trkpt lat="39.8711750" lon="-4.4804260">
        <ele>422.4</ele>
        <time>2019-07-08T11:28:20Z</time>
      </trkpt>
      <trkpt lat="39.8713000" lon="-4.4804240">
        <ele>422.4</ele>
        <time>2019-07-08T11:28:23Z</time>
      </trkpt>
      <trkpt lat="39.8714270" lon="-4.4803530">
        <ele>424.0</ele>
        <time>2019-07-08T11:28:28Z</time>
      </trkpt>
      <trkpt lat="39.8714730" lon="-4.4802840">
        <ele>424.8</ele>
        <time>2019-07-08T11:28:31Z</time>
      </trkpt>
      <trkpt lat="39.8714860" lon="-4.4802570">
        <ele>425.0</ele>
        <time>2019-07-08T11:28:32Z</time>
      </trkpt>
      <trkpt lat="39.8715080" lon="-4.4802000">
        <ele>425.4</ele>
        <time>2019-07-08T11:28:34Z</time>
      </trkpt>
      <trkpt lat="39.8715260" lon="-4.4801380">
        <ele>426.0</ele>
        <time>2019-07-08T11:28:36Z</time>
      </trkpt>
      <trkpt lat="39.8715510" lon="-4.4800420">
        <ele>426.8</ele>
        <time>2019-07-08T11:28:39Z</time>
      </trkpt>
      <trkpt lat="39.8715590" lon="-4.4800080">
        <ele>427.0</ele>
        <time>2019-07-08T11:28:40Z</time>
      </trkpt>
      <trkpt lat="39.8715780" lon="-4.4799090">
        <ele>427.6</ele>
        <time>2019-07-08T11:28:43Z</time>
      </trkpt>
      <trkpt lat="39.8716370" lon="-4.4796880">
        <ele>428.2</ele>
        <time>2019-07-08T11:28:49Z</time>
      </trkpt>
      <trkpt lat="39.8716620" lon="-4.4796110">
        <ele>428.4</ele>
        <time>2019-07-08T11:28:51Z</time>
      </trkpt>
      <trkpt lat="39.8717280" lon="-4.4794250">
        <ele>428.6</ele>
        <time>2019-07-08T11:28:56Z</time>
      </trkpt>
      <trkpt lat="39.8717620" lon="-4.4793170">
        <ele>428.6</ele>
        <time>2019-07-08T11:28:59Z</time>
      </trkpt>
      <trkpt lat="39.8718400" lon="-4.4790480">
        <ele>429.2</ele>
        <time>2019-07-08T11:29:06Z</time>
      </trkpt>
      <trkpt lat="39.8718510" lon="-4.4790060">
        <ele>429.2</ele>
        <time>2019-07-08T11:29:07Z</time>
      </trkpt>
      <trkpt lat="39.8719370" lon="-4.4786950">
        <ele>430.2</ele>
        <time>2019-07-08T11:29:14Z</time>
      </trkpt>
      <trkpt lat="39.8719960" lon="-4.4784270">
        <ele>430.4</ele>
        <time>2019-07-08T11:29:19Z</time>
      </trkpt>
      <trkpt lat="39.8720330" lon="-4.4782600">
        <ele>430.4</ele>
        <time>2019-07-08T11:29:22Z</time>
      </trkpt>
      <trkpt lat="39.8720470" lon="-4.4782040">
        <ele>430.4</ele>
        <time>2019-07-08T11:29:23Z</time>
      </trkpt>
      <trkpt lat="39.8721360" lon="-4.4778610">
        <ele>430.6</ele>
        <time>2019-07-08T11:29:29Z</time>
      </trkpt>
      <trkpt lat="39.8721570" lon="-4.4778110">
        <ele>430.6</ele>
        <time>2019-07-08T11:29:30Z</time>
      </trkpt>
      <trkpt lat="39.8722700" lon="-4.4776270">
        <ele>430.6</ele>
        <time>2019-07-08T11:29:34Z</time>
      </trkpt>
      <trkpt lat="39.8725110" lon="-4.4772820">
        <ele>431.2</ele>
        <time>2019-07-08T11:29:42Z</time>
      </trkpt>
      <trkpt lat="39.8727410" lon="-4.4769460">
        <ele>431.0</ele>
        <time>2019-07-08T11:29:50Z</time>
      </trkpt>
      <trkpt lat="39.8728220" lon="-4.4768240">
        <ele>431.4</ele>
        <time>2019-07-08T11:29:53Z</time>
      </trkpt>
      <trkpt lat="39.8731000" lon="-4.4764420">
        <ele>432.2</ele>
        <time>2019-07-08T11:30:03Z</time>
      </trkpt>
      <trkpt lat="39.8732700" lon="-4.4762450">
        <ele>432.6</ele>
        <time>2019-07-08T11:30:09Z</time>
      </trkpt>
      <trkpt lat="39.8733950" lon="-4.4761410">
        <ele>432.8</ele>
        <time>2019-07-08T11:30:13Z</time>
      </trkpt>
      <trkpt lat="39.8736350" lon="-4.4760250">
        <ele>432.6</ele>
        <time>2019-07-08T11:30:20Z</time>
      </trkpt>
      <trkpt lat="39.8737690" lon="-4.4759740">
        <ele>432.8</ele>
        <time>2019-07-08T11:30:25Z</time>
      </trkpt>
      <trkpt lat="39.8738010" lon="-4.4760040">
        <ele>432.8</ele>
        <time>2019-07-08T11:30:27Z</time>
      </trkpt>
      <trkpt lat="39.8738110" lon="-4.4760290">
        <ele>432.8</ele>
        <time>2019-07-08T11:30:28Z</time>
      </trkpt>
      <trkpt lat="39.8738090" lon="-4.4760570">
        <ele>433.0</ele>
        <time>2019-07-08T11:30:29Z</time>
      </trkpt>
      <trkpt lat="39.8737770" lon="-4.4762590">
        <ele>432.6</ele>
        <time>2019-07-08T11:30:34Z</time>
      </trkpt>
      <trkpt lat="39.8737510" lon="-4.4766000">
        <ele>433.2</ele>
        <time>2019-07-08T11:30:40Z</time>
      </trkpt>
      <trkpt lat="39.8737290" lon="-4.4769970">
        <ele>433.2</ele>
        <time>2019-07-08T11:30:46Z</time>
      </trkpt>
      <trkpt lat="39.8737120" lon="-4.4775630">
        <ele>432.4</ele>
        <time>2019-07-08T11:30:54Z</time>
      </trkpt>
      <trkpt lat="39.8736880" lon="-4.4779210">
        <ele>431.6</ele>
        <time>2019-07-08T11:30:59Z</time>
      </trkpt>
      <trkpt lat="39.8736740" lon="-4.4780640">
        <ele>431.2</ele>
        <time>2019-07-08T11:31:01Z</time>
      </trkpt>
      <trkpt lat="39.8735860" lon="-4.4787610">
        <ele>430.4</ele>
        <time>2019-07-08T11:31:11Z</time>
      </trkpt>
      <trkpt lat="39.8735760" lon="-4.4788290">
        <ele>430.4</ele>
        <time>2019-07-08T11:31:12Z</time>
      </trkpt>
      <trkpt lat="39.8734660" lon="-4.4794190">
        <ele>429.6</ele>
        <time>2019-07-08T11:31:21Z</time>
      </trkpt>
      <trkpt lat="39.8733780" lon="-4.4798560">
        <ele>429.4</ele>
        <time>2019-07-08T11:31:28Z</time>
      </trkpt>
      <trkpt lat="39.8733420" lon="-4.4800390">
        <ele>429.2</ele>
        <time>2019-07-08T11:31:31Z</time>
      </trkpt>
      <trkpt lat="39.8732570" lon="-4.4805520">
        <ele>428.2</ele>
        <time>2019-07-08T11:31:39Z</time>
      </trkpt>
      <trkpt lat="39.8732470" lon="-4.4806190">
        <ele>428.0</ele>
        <time>2019-07-08T11:31:40Z</time>
      </trkpt>
      <trkpt lat="39.8731300" lon="-4.4811360">
        <ele>427.8</ele>
        <time>2019-07-08T11:31:48Z</time>
      </trkpt>
      <trkpt lat="39.8731160" lon="-4.4814050">
        <ele>427.4</ele>
        <time>2019-07-08T11:31:52Z</time>
      </trkpt>
      <trkpt lat="39.8731240" lon="-4.4814710">
        <ele>427.4</ele>
        <time>2019-07-08T11:31:53Z</time>
      </trkpt>
      <trkpt lat="39.8731390" lon="-4.4815370">
        <ele>427.0</ele>
        <time>2019-07-08T11:31:54Z</time>
      </trkpt>
      <trkpt lat="39.8732350" lon="-4.4817020">
        <ele>426.8</ele>
        <time>2019-07-08T11:31:57Z</time>
      </trkpt>
      <trkpt lat="39.8733690" lon="-4.4818300">
        <ele>426.6</ele>
        <time>2019-07-08T11:32:00Z</time>
      </trkpt>
      <trkpt lat="39.8734600" lon="-4.4819190">
        <ele>426.4</ele>
        <time>2019-07-08T11:32:02Z</time>
      </trkpt>
      <trkpt lat="39.8736830" lon="-4.4821730">
        <ele>426.0</ele>
        <time>2019-07-08T11:32:07Z</time>
      </trkpt>
      <trkpt lat="39.8737370" lon="-4.4822210">
        <ele>425.8</ele>
        <time>2019-07-08T11:32:08Z</time>
      </trkpt>
      <trkpt lat="39.8739180" lon="-4.4823380">
        <ele>424.6</ele>
        <time>2019-07-08T11:32:11Z</time>
      </trkpt>
      <trkpt lat="39.8740310" lon="-4.4824020">
        <ele>424.6</ele>
        <time>2019-07-08T11:32:13Z</time>
      </trkpt>
      <trkpt lat="39.8741400" lon="-4.4824730">
        <ele>425.2</ele>
        <time>2019-07-08T11:32:16Z</time>
      </trkpt>
      <trkpt lat="39.8741890" lon="-4.4825110">
        <ele>426.0</ele>
        <time>2019-07-08T11:32:18Z</time>
      </trkpt>
      <trkpt lat="39.8742720" lon="-4.4826020">
        <ele>426.4</ele>
        <time>2019-07-08T11:32:21Z</time>
      </trkpt>
      <trkpt lat="39.8743310" lon="-4.4826840">
        <ele>426.0</ele>
        <time>2019-07-08T11:32:23Z</time>
      </trkpt>
      <trkpt lat="39.8744290" lon="-4.4828270">
        <ele>425.8</ele>
        <time>2019-07-08T11:32:26Z</time>
      </trkpt>
      <trkpt lat="39.8746280" lon="-4.4830430">
        <ele>425.2</ele>
        <time>2019-07-08T11:32:31Z</time>
      </trkpt>
      <trkpt lat="39.8747190" lon="-4.4831020">
        <ele>425.4</ele>
        <time>2019-07-08T11:32:33Z</time>
      </trkpt>
      <trkpt lat="39.8749650" lon="-4.4833140">
        <ele>425.2</ele>
        <time>2019-07-08T11:32:39Z</time>
      </trkpt>
      <trkpt lat="39.8750870" lon="-4.4834440">
        <ele>425.2</ele>
        <time>2019-07-08T11:32:42Z</time>
      </trkpt>
      <trkpt lat="39.8752540" lon="-4.4836200">
        <ele>424.8</ele>
        <time>2019-07-08T11:32:46Z</time>
      </trkpt>
      <trkpt lat="39.8755870" lon="-4.4839360">
        <ele>424.8</ele>
        <time>2019-07-08T11:32:54Z</time>
      </trkpt>
      <trkpt lat="39.8756280" lon="-4.4839700">
        <ele>424.8</ele>
        <time>2019-07-08T11:32:55Z</time>
      </trkpt>
      <trkpt lat="39.8759060" lon="-4.4842410">
        <ele>424.6</ele>
        <time>2019-07-08T11:33:02Z</time>
      </trkpt>
      <trkpt lat="39.8759480" lon="-4.4842770">
        <ele>424.6</ele>
        <time>2019-07-08T11:33:03Z</time>
      </trkpt>
      <trkpt lat="39.8760750" lon="-4.4843680">
        <ele>425.2</ele>
        <time>2019-07-08T11:33:06Z</time>
      </trkpt>
      <trkpt lat="39.8762780" lon="-4.4845550">
        <ele>425.2</ele>
        <time>2019-07-08T11:33:11Z</time>
      </trkpt>
      <trkpt lat="39.8763180" lon="-4.4845920">
        <ele>425.2</ele>
        <time>2019-07-08T11:33:12Z</time>
      </trkpt>
      <trkpt lat="39.8766140" lon="-4.4849200">
        <ele>424.8</ele>
        <time>2019-07-08T11:33:20Z</time>
      </trkpt>
      <trkpt lat="39.8767280" lon="-4.4850340">
        <ele>425.2</ele>
        <time>2019-07-08T11:33:23Z</time>
      </trkpt>
      <trkpt lat="39.8768770" lon="-4.4851730">
        <ele>425.4</ele>
        <time>2019-07-08T11:33:27Z</time>
      </trkpt>
      <trkpt lat="39.8771240" lon="-4.4853990">
        <ele>426.0</ele>
        <time>2019-07-08T11:33:34Z</time>
      </trkpt>
      <trkpt lat="39.8771560" lon="-4.4854360">
        <ele>426.0</ele>
        <time>2019-07-08T11:33:35Z</time>
      </trkpt>
      <trkpt lat="39.8771880" lon="-4.4854780">
        <ele>425.8</ele>
        <time>2019-07-08T11:33:36Z</time>
      </trkpt>
      <trkpt lat="39.8772920" lon="-4.4856010">
        <ele>425.4</ele>
        <time>2019-07-08T11:33:39Z</time>
      </trkpt>
      <trkpt lat="39.8773250" lon="-4.4856460">
        <ele>425.2</ele>
        <time>2019-07-08T11:33:40Z</time>
      </trkpt>
      <trkpt lat="39.8775640" lon="-4.4860310">
        <ele>425.6</ele>
        <time>2019-07-08T11:33:48Z</time>
      </trkpt>
      <trkpt lat="39.8777610" lon="-4.4863610">
        <ele>425.4</ele>
        <time>2019-07-08T11:33:55Z</time>
      </trkpt>
      <trkpt lat="39.8777860" lon="-4.4864050">
        <ele>425.6</ele>
        <time>2019-07-08T11:33:56Z</time>
      </trkpt>
      <trkpt lat="39.8780200" lon="-4.4868110">
        <ele>426.0</ele>
        <time>2019-07-08T11:34:05Z</time>
      </trkpt>
      <trkpt lat="39.8780500" lon="-4.4868550">
        <ele>426.2</ele>
        <time>2019-07-08T11:34:06Z</time>
      </trkpt>
      <trkpt lat="39.8780760" lon="-4.4869010">
        <ele>426.2</ele>
        <time>2019-07-08T11:34:07Z</time>
      </trkpt>
      <trkpt lat="39.8781480" lon="-4.4870490">
        <ele>425.8</ele>
        <time>2019-07-08T11:34:10Z</time>
      </trkpt>
      <trkpt lat="39.8782050" lon="-4.4871380">
        <ele>425.4</ele>
        <time>2019-07-08T11:34:12Z</time>
      </trkpt>
      <trkpt lat="39.8783080" lon="-4.4872470">
        <ele>425.8</ele>
        <time>2019-07-08T11:34:15Z</time>
      </trkpt>
      <trkpt lat="39.8783720" lon="-4.4873290">
        <ele>426.0</ele>
        <time>2019-07-08T11:34:17Z</time>
      </trkpt>
      <trkpt lat="39.8785240" lon="-4.4875380">
        <ele>426.8</ele>
        <time>2019-07-08T11:34:22Z</time>
      </trkpt>
      <trkpt lat="39.8786180" lon="-4.4877320">
        <ele>426.6</ele>
        <time>2019-07-08T11:34:26Z</time>
      </trkpt>
      <trkpt lat="39.8786360" lon="-4.4877830">
        <ele>426.6</ele>
        <time>2019-07-08T11:34:27Z</time>
      </trkpt>
      <trkpt lat="39.8786990" lon="-4.4880500">
        <ele>426.8</ele>
        <time>2019-07-08T11:34:32Z</time>
      </trkpt>
      <trkpt lat="39.8787170" lon="-4.4882170">
        <ele>427.4</ele>
        <time>2019-07-08T11:34:35Z</time>
      </trkpt>
      <trkpt lat="39.8787330" lon="-4.4883280">
        <ele>427.6</ele>
        <time>2019-07-08T11:34:37Z</time>
      </trkpt>
      <trkpt lat="39.8787590" lon="-4.4884350">
        <ele>427.8</ele>
        <time>2019-07-08T11:34:39Z</time>
      </trkpt>
      <trkpt lat="39.8788140" lon="-4.4886180">
        <ele>428.4</ele>
        <time>2019-07-08T11:34:43Z</time>
      </trkpt>
      <trkpt lat="39.8788400" lon="-4.4887000">
        <ele>428.6</ele>
        <time>2019-07-08T11:34:45Z</time>
      </trkpt>
      <trkpt lat="39.8789510" lon="-4.4890340">
        <ele>428.8</ele>
        <time>2019-07-08T11:34:52Z</time>
      </trkpt>
      <trkpt lat="39.8790810" lon="-4.4894500">
        <ele>429.2</ele>
        <time>2019-07-08T11:35:00Z</time>
      </trkpt>
      <trkpt lat="39.8791120" lon="-4.4895500">
        <ele>429.4</ele>
        <time>2019-07-08T11:35:02Z</time>
      </trkpt>
      <trkpt lat="39.8791960" lon="-4.4898140">
        <ele>429.2</ele>
        <time>2019-07-08T11:35:07Z</time>
      </trkpt>
      <trkpt lat="39.8793300" lon="-4.4901280">
        <ele>429.4</ele>
        <time>2019-07-08T11:35:13Z</time>
      </trkpt>
      <trkpt lat="39.8793510" lon="-4.4901890">
        <ele>429.2</ele>
        <time>2019-07-08T11:35:14Z</time>
      </trkpt>
      <trkpt lat="39.8794000" lon="-4.4903290">
        <ele>429.0</ele>
        <time>2019-07-08T11:35:16Z</time>
      </trkpt>
      <trkpt lat="39.8794330" lon="-4.4904020">
        <ele>428.4</ele>
        <time>2019-07-08T11:35:17Z</time>
      </trkpt>
      <trkpt lat="39.8794720" lon="-4.4904750">
        <ele>427.6</ele>
        <time>2019-07-08T11:35:18Z</time>
      </trkpt>
      <trkpt lat="39.8795120" lon="-4.4905500">
        <ele>427.0</ele>
        <time>2019-07-08T11:35:19Z</time>
      </trkpt>
      <trkpt lat="39.8795820" lon="-4.4906920">
        <ele>426.2</ele>
        <time>2019-07-08T11:35:21Z</time>
      </trkpt>
      <trkpt lat="39.8796400" lon="-4.4908040">
        <ele>426.2</ele>
        <time>2019-07-08T11:35:23Z</time>
      </trkpt>
      <trkpt lat="39.8796920" lon="-4.4909020">
        <ele>426.2</ele>
        <time>2019-07-08T11:35:25Z</time>
      </trkpt>
      <trkpt lat="39.8797690" lon="-4.4910340">
        <ele>426.8</ele>
        <time>2019-07-08T11:35:28Z</time>
      </trkpt>
      <trkpt lat="39.8797940" lon="-4.4910770">
        <ele>427.0</ele>
        <time>2019-07-08T11:35:29Z</time>
      </trkpt>
      <trkpt lat="39.8798210" lon="-4.4911180">
        <ele>427.0</ele>
        <time>2019-07-08T11:35:30Z</time>
      </trkpt>
      <trkpt lat="39.8799370" lon="-4.4912830">
        <ele>427.8</ele>
        <time>2019-07-08T11:35:34Z</time>
      </trkpt>
      <trkpt lat="39.8799910" lon="-4.4913810">
        <ele>428.0</ele>
        <time>2019-07-08T11:35:36Z</time>
      </trkpt>
      <trkpt lat="39.8802200" lon="-4.4917700">
        <ele>427.8</ele>
        <time>2019-07-08T11:35:44Z</time>
      </trkpt>
      <trkpt lat="39.8804170" lon="-4.4921020">
        <ele>428.4</ele>
        <time>2019-07-08T11:35:51Z</time>
      </trkpt>
      <trkpt lat="39.8805950" lon="-4.4924430">
        <ele>427.8</ele>
        <time>2019-07-08T11:35:58Z</time>
      </trkpt>
      <trkpt lat="39.8807700" lon="-4.4928130">
        <ele>429.0</ele>
        <time>2019-07-08T11:36:05Z</time>
      </trkpt>
      <trkpt lat="39.8809960" lon="-4.4933060">
        <ele>429.0</ele>
        <time>2019-07-08T11:36:14Z</time>
      </trkpt>
      <trkpt lat="39.8811000" lon="-4.4935120">
        <ele>429.2</ele>
        <time>2019-07-08T11:36:18Z</time>
      </trkpt>
      <trkpt lat="39.8811820" lon="-4.4936720">
        <ele>429.4</ele>
        <time>2019-07-08T11:36:21Z</time>
      </trkpt>
      <trkpt lat="39.8813950" lon="-4.4941210">
        <ele>429.0</ele>
        <time>2019-07-08T11:36:29Z</time>
      </trkpt>
      <trkpt lat="39.8815400" lon="-4.4944520">
        <ele>429.0</ele>
        <time>2019-07-08T11:36:35Z</time>
      </trkpt>
      <trkpt lat="39.8817420" lon="-4.4948960">
        <ele>429.2</ele>
        <time>2019-07-08T11:36:43Z</time>
      </trkpt>
      <trkpt lat="39.8819100" lon="-4.4952710">
        <ele>429.0</ele>
        <time>2019-07-08T11:36:50Z</time>
      </trkpt>
      <trkpt lat="39.8819360" lon="-4.4953200">
        <ele>428.8</ele>
        <time>2019-07-08T11:36:51Z</time>
      </trkpt>
      <trkpt lat="39.8819930" lon="-4.4954160">
        <ele>428.4</ele>
        <time>2019-07-08T11:36:53Z</time>
      </trkpt>
      <trkpt lat="39.8820240" lon="-4.4954620">
        <ele>428.2</ele>
        <time>2019-07-08T11:36:54Z</time>
      </trkpt>
      <trkpt lat="39.8821100" lon="-4.4956050">
        <ele>428.0</ele>
        <time>2019-07-08T11:36:57Z</time>
      </trkpt>
      <trkpt lat="39.8821330" lon="-4.4956580">
        <ele>427.8</ele>
        <time>2019-07-08T11:36:58Z</time>
      </trkpt>
      <trkpt lat="39.8822520" lon="-4.4959270">
        <ele>427.2</ele>
        <time>2019-07-08T11:37:03Z</time>
      </trkpt>
      <trkpt lat="39.8823210" lon="-4.4961000">
        <ele>426.8</ele>
        <time>2019-07-08T11:37:06Z</time>
      </trkpt>
      <trkpt lat="39.8824730" lon="-4.4965370">
        <ele>426.8</ele>
        <time>2019-07-08T11:37:13Z</time>
      </trkpt>
      <trkpt lat="39.8825730" lon="-4.4968730">
        <ele>426.0</ele>
        <time>2019-07-08T11:37:18Z</time>
      </trkpt>
      <trkpt lat="39.8826110" lon="-4.4970210">
        <ele>425.8</ele>
        <time>2019-07-08T11:37:20Z</time>
      </trkpt>
      <trkpt lat="39.8827580" lon="-4.4974510">
        <ele>425.8</ele>
        <time>2019-07-08T11:37:26Z</time>
      </trkpt>
      <trkpt lat="39.8828590" lon="-4.4977110">
        <ele>425.0</ele>
        <time>2019-07-08T11:37:30Z</time>
      </trkpt>
      <trkpt lat="39.8829080" lon="-4.4978300">
        <ele>425.0</ele>
        <time>2019-07-08T11:37:32Z</time>
      </trkpt>
      <trkpt lat="39.8829600" lon="-4.4979460">
        <ele>425.2</ele>
        <time>2019-07-08T11:37:34Z</time>
      </trkpt>
      <trkpt lat="39.8830810" lon="-4.4982240">
        <ele>426.2</ele>
        <time>2019-07-08T11:37:39Z</time>
      </trkpt>
      <trkpt lat="39.8832760" lon="-4.4986950">
        <ele>425.8</ele>
        <time>2019-07-08T11:37:47Z</time>
      </trkpt>
      <trkpt lat="39.8833030" lon="-4.4987460">
        <ele>425.8</ele>
        <time>2019-07-08T11:37:48Z</time>
      </trkpt>
      <trkpt lat="39.8834650" lon="-4.4989750">
        <ele>426.4</ele>
        <time>2019-07-08T11:37:53Z</time>
      </trkpt>
      <trkpt lat="39.8838040" lon="-4.4994370">
        <ele>426.4</ele>
        <time>2019-07-08T11:38:03Z</time>
      </trkpt>
      <trkpt lat="39.8840800" lon="-4.4998210">
        <ele>426.6</ele>
        <time>2019-07-08T11:38:11Z</time>
      </trkpt>
      <trkpt lat="39.8844090" lon="-4.5001860">
        <ele>427.2</ele>
        <time>2019-07-08T11:38:19Z</time>
      </trkpt>
      <trkpt lat="39.8847190" lon="-4.5004910">
        <ele>426.4</ele>
        <time>2019-07-08T11:38:26Z</time>
      </trkpt>
      <trkpt lat="39.8848430" lon="-4.5006120">
        <ele>426.4</ele>
        <time>2019-07-08T11:38:29Z</time>
      </trkpt>
      <trkpt lat="39.8849600" lon="-4.5007270">
        <ele>426.8</ele>
        <time>2019-07-08T11:38:32Z</time>
      </trkpt>
      <trkpt lat="39.8850740" lon="-4.5008380">
        <ele>426.6</ele>
        <time>2019-07-08T11:38:35Z</time>
      </trkpt>
      <trkpt lat="39.8852320" lon="-4.5009720">
        <ele>426.0</ele>
        <time>2019-07-08T11:38:39Z</time>
      </trkpt>
      <trkpt lat="39.8854280" lon="-4.5011400">
        <ele>425.8</ele>
        <time>2019-07-08T11:38:44Z</time>
      </trkpt>
      <trkpt lat="39.8857370" lon="-4.5014270">
        <ele>425.6</ele>
        <time>2019-07-08T11:38:52Z</time>
      </trkpt>
      <trkpt lat="39.8860100" lon="-4.5016930">
        <ele>425.6</ele>
        <time>2019-07-08T11:38:59Z</time>
      </trkpt>
      <trkpt lat="39.8862130" lon="-4.5018910">
        <ele>425.4</ele>
        <time>2019-07-08T11:39:04Z</time>
      </trkpt>
      <trkpt lat="39.8864190" lon="-4.5020920">
        <ele>424.8</ele>
        <time>2019-07-08T11:39:09Z</time>
      </trkpt>
      <trkpt lat="39.8868900" lon="-4.5025400">
        <ele>425.0</ele>
        <time>2019-07-08T11:39:20Z</time>
      </trkpt>
      <trkpt lat="39.8870730" lon="-4.5026930">
        <ele>425.2</ele>
        <time>2019-07-08T11:39:24Z</time>
      </trkpt>
      <trkpt lat="39.8871680" lon="-4.5027680">
        <ele>425.0</ele>
        <time>2019-07-08T11:39:26Z</time>
      </trkpt>
      <trkpt lat="39.8872200" lon="-4.5028000">
        <ele>425.0</ele>
        <time>2019-07-08T11:39:27Z</time>
      </trkpt>
      <trkpt lat="39.8874460" lon="-4.5029110">
        <ele>424.6</ele>
        <time>2019-07-08T11:39:31Z</time>
      </trkpt>
      <trkpt lat="39.8875620" lon="-4.5029420">
        <ele>424.4</ele>
        <time>2019-07-08T11:39:33Z</time>
      </trkpt>
      <trkpt lat="39.8876200" lon="-4.5029550">
        <ele>424.2</ele>
        <time>2019-07-08T11:39:34Z</time>
      </trkpt>
      <trkpt lat="39.8876780" lon="-4.5029620">
        <ele>424.0</ele>
        <time>2019-07-08T11:39:35Z</time>
      </trkpt>
      <trkpt lat="39.8879070" lon="-4.5029550">
        <ele>424.4</ele>
        <time>2019-07-08T11:39:39Z</time>
      </trkpt>
      <trkpt lat="39.8879620" lon="-4.5029420">
        <ele>424.2</ele>
        <time>2019-07-08T11:39:40Z</time>
      </trkpt>
      <trkpt lat="39.8881670" lon="-4.5028610">
        <ele>423.8</ele>
        <time>2019-07-08T11:39:44Z</time>
      </trkpt>
      <trkpt lat="39.8883460" lon="-4.5027950">
        <ele>424.2</ele>
        <time>2019-07-08T11:39:48Z</time>
      </trkpt>
      <trkpt lat="39.8884300" lon="-4.5027850">
        <ele>424.4</ele>
        <time>2019-07-08T11:39:50Z</time>
      </trkpt>
      <trkpt lat="39.8885950" lon="-4.5028670">
        <ele>425.0</ele>
        <time>2019-07-08T11:39:54Z</time>
      </trkpt>
      <trkpt lat="39.8888270" lon="-4.5030940">
        <ele>425.2</ele>
        <time>2019-07-08T11:40:00Z</time>
      </trkpt>
      <trkpt lat="39.8888700" lon="-4.5031280">
        <ele>425.2</ele>
        <time>2019-07-08T11:40:01Z</time>
      </trkpt>
      <trkpt lat="39.8891850" lon="-4.5034080">
        <ele>424.8</ele>
        <time>2019-07-08T11:40:08Z</time>
      </trkpt>
      <trkpt lat="39.8893260" lon="-4.5035400">
        <ele>424.2</ele>
        <time>2019-07-08T11:40:11Z</time>
      </trkpt>
      <trkpt lat="39.8895350" lon="-4.5036660">
        <ele>424.2</ele>
        <time>2019-07-08T11:40:15Z</time>
      </trkpt>
      <trkpt lat="39.8899100" lon="-4.5037750">
        <ele>423.6</ele>
        <time>2019-07-08T11:40:22Z</time>
      </trkpt>
      <trkpt lat="39.8900720" lon="-4.5037850">
        <ele>423.8</ele>
        <time>2019-07-08T11:40:25Z</time>
      </trkpt>
      <trkpt lat="39.8902100" lon="-4.5037290">
        <ele>424.0</ele>
        <time>2019-07-08T11:40:28Z</time>
      </trkpt>
      <trkpt lat="39.8902900" lon="-4.5035480">
        <ele>424.4</ele>
        <time>2019-07-08T11:40:32Z</time>
      </trkpt>
      <trkpt lat="39.8903240" lon="-4.5034670">
        <ele>424.8</ele>
        <time>2019-07-08T11:40:34Z</time>
      </trkpt>
      <trkpt lat="39.8903750" lon="-4.5033490">
        <ele>425.4</ele>
        <time>2019-07-08T11:40:37Z</time>
      </trkpt>
      <trkpt lat="39.8904120" lon="-4.5032700">
        <ele>425.8</ele>
        <time>2019-07-08T11:40:39Z</time>
      </trkpt>
      <trkpt lat="39.8905460" lon="-4.5029700">
        <ele>425.8</ele>
        <time>2019-07-08T11:40:46Z</time>
      </trkpt>
      <trkpt lat="39.8906910" lon="-4.5026540">
        <ele>426.4</ele>
        <time>2019-07-08T11:40:53Z</time>
      </trkpt>
      <trkpt lat="39.8908850" lon="-4.5022340">
        <ele>425.6</ele>
        <time>2019-07-08T11:41:02Z</time>
      </trkpt>
      <trkpt lat="39.8910820" lon="-4.5017710">
        <ele>425.2</ele>
        <time>2019-07-08T11:41:11Z</time>
      </trkpt>
      <trkpt lat="39.8912150" lon="-4.5014500">
        <ele>426.0</ele>
        <time>2019-07-08T11:41:17Z</time>
      </trkpt>
      <trkpt lat="39.8912560" lon="-4.5013430">
        <ele>426.2</ele>
        <time>2019-07-08T11:41:19Z</time>
      </trkpt>
      <trkpt lat="39.8912790" lon="-4.5012920">
        <ele>426.2</ele>
        <time>2019-07-08T11:41:20Z</time>
      </trkpt>
      <trkpt lat="39.8913660" lon="-4.5010710">
        <ele>426.2</ele>
        <time>2019-07-08T11:41:24Z</time>
      </trkpt>
      <trkpt lat="39.8913860" lon="-4.5010130">
        <ele>426.2</ele>
        <time>2019-07-08T11:41:25Z</time>
      </trkpt>
      <trkpt lat="39.8915720" lon="-4.5005560">
        <ele>426.2</ele>
        <time>2019-07-08T11:41:33Z</time>
      </trkpt>
      <trkpt lat="39.8916220" lon="-4.5004390">
        <ele>426.2</ele>
        <time>2019-07-08T11:41:35Z</time>
      </trkpt>
      <trkpt lat="39.8918070" lon="-4.5000390">
        <ele>426.0</ele>
        <time>2019-07-08T11:41:42Z</time>
      </trkpt>
      <trkpt lat="39.8918590" lon="-4.4999250">
        <ele>426.0</ele>
        <time>2019-07-08T11:41:44Z</time>
      </trkpt>
      <trkpt lat="39.8920190" lon="-4.4995770">
        <ele>426.6</ele>
        <time>2019-07-08T11:41:50Z</time>
      </trkpt>
      <trkpt lat="39.8920740" lon="-4.4994620">
        <ele>426.6</ele>
        <time>2019-07-08T11:41:52Z</time>
      </trkpt>
      <trkpt lat="39.8923480" lon="-4.4989050">
        <ele>426.2</ele>
        <time>2019-07-08T11:42:02Z</time>
      </trkpt>
      <trkpt lat="39.8926220" lon="-4.4983940">
        <ele>427.0</ele>
        <time>2019-07-08T11:42:12Z</time>
      </trkpt>
      <trkpt lat="39.8929230" lon="-4.4978410">
        <ele>427.2</ele>
        <time>2019-07-08T11:42:23Z</time>
      </trkpt>
      <trkpt lat="39.8930030" lon="-4.4976880">
        <ele>427.6</ele>
        <time>2019-07-08T11:42:26Z</time>
      </trkpt>
      <trkpt lat="39.8931280" lon="-4.4974230">
        <ele>428.2</ele>
        <time>2019-07-08T11:42:31Z</time>
      </trkpt>
      <trkpt lat="39.8931500" lon="-4.4973670">
        <ele>428.2</ele>
        <time>2019-07-08T11:42:32Z</time>
      </trkpt>
      <trkpt lat="39.8932890" lon="-4.4971130">
        <ele>428.2</ele>
        <time>2019-07-08T11:42:37Z</time>
      </trkpt>
      <trkpt lat="39.8933410" lon="-4.4970090">
        <ele>428.2</ele>
        <time>2019-07-08T11:42:39Z</time>
      </trkpt>
      <trkpt lat="39.8933920" lon="-4.4969080">
        <ele>428.2</ele>
        <time>2019-07-08T11:42:41Z</time>
      </trkpt>
      <trkpt lat="39.8934940" lon="-4.4967100">
        <ele>428.2</ele>
        <time>2019-07-08T11:42:45Z</time>
      </trkpt>
      <trkpt lat="39.8935710" lon="-4.4965670">
        <ele>428.6</ele>
        <time>2019-07-08T11:42:48Z</time>
      </trkpt>
      <trkpt lat="39.8936200" lon="-4.4964710">
        <ele>429.0</ele>
        <time>2019-07-08T11:42:50Z</time>
      </trkpt>
      <trkpt lat="39.8936900" lon="-4.4963260">
        <ele>429.4</ele>
        <time>2019-07-08T11:42:53Z</time>
      </trkpt>
      <trkpt lat="39.8937130" lon="-4.4962800">
        <ele>429.4</ele>
        <time>2019-07-08T11:42:54Z</time>
      </trkpt>
      <trkpt lat="39.8938080" lon="-4.4960920">
        <ele>429.8</ele>
        <time>2019-07-08T11:42:58Z</time>
      </trkpt>
      <trkpt lat="39.8938550" lon="-4.4959960">
        <ele>430.2</ele>
        <time>2019-07-08T11:43:00Z</time>
      </trkpt>
      <trkpt lat="39.8940620" lon="-4.4956150">
        <ele>430.6</ele>
        <time>2019-07-08T11:43:08Z</time>
      </trkpt>
      <trkpt lat="39.8941420" lon="-4.4954160">
        <ele>430.8</ele>
        <time>2019-07-08T11:43:12Z</time>
      </trkpt>
      <trkpt lat="39.8941700" lon="-4.4953100">
        <ele>430.8</ele>
        <time>2019-07-08T11:43:14Z</time>
      </trkpt>
      <trkpt lat="39.8941940" lon="-4.4951480">
        <ele>431.4</ele>
        <time>2019-07-08T11:43:17Z</time>
      </trkpt>
      <trkpt lat="39.8942020" lon="-4.4949250">
        <ele>431.6</ele>
        <time>2019-07-08T11:43:21Z</time>
      </trkpt>
      <trkpt lat="39.8942350" lon="-4.4944130">
        <ele>431.8</ele>
        <time>2019-07-08T11:43:30Z</time>
      </trkpt>
      <trkpt lat="39.8942450" lon="-4.4943560">
        <ele>431.8</ele>
        <time>2019-07-08T11:43:31Z</time>
      </trkpt>
      <trkpt lat="39.8943290" lon="-4.4940150">
        <ele>432.0</ele>
        <time>2019-07-08T11:43:37Z</time>
      </trkpt>
      <trkpt lat="39.8943640" lon="-4.4939070">
        <ele>432.4</ele>
        <time>2019-07-08T11:43:39Z</time>
      </trkpt>
      <trkpt lat="39.8944460" lon="-4.4937020">
        <ele>432.6</ele>
        <time>2019-07-08T11:43:43Z</time>
      </trkpt>
      <trkpt lat="39.8945180" lon="-4.4935670">
        <ele>433.0</ele>
        <time>2019-07-08T11:43:46Z</time>
      </trkpt>
      <trkpt lat="39.8946510" lon="-4.4933650">
        <ele>433.2</ele>
        <time>2019-07-08T11:43:51Z</time>
      </trkpt>
      <trkpt lat="39.8948040" lon="-4.4931990">
        <ele>434.2</ele>
        <time>2019-07-08T11:43:56Z</time>
      </trkpt>
      <trkpt lat="39.8949020" lon="-4.4931160">
        <ele>434.2</ele>
        <time>2019-07-08T11:43:59Z</time>
      </trkpt>
      <trkpt lat="39.8951410" lon="-4.4929480">
        <ele>434.6</ele>
        <time>2019-07-08T11:44:06Z</time>
      </trkpt>
      <trkpt lat="39.8952470" lon="-4.4928920">
        <ele>435.4</ele>
        <time>2019-07-08T11:44:09Z</time>
      </trkpt>
      <trkpt lat="39.8953960" lon="-4.4928400">
        <ele>435.6</ele>
        <time>2019-07-08T11:44:13Z</time>
      </trkpt>
      <trkpt lat="39.8956520" lon="-4.4927470">
        <ele>435.8</ele>
        <time>2019-07-08T11:44:20Z</time>
      </trkpt>
      <trkpt lat="39.8958560" lon="-4.4925900">
        <ele>436.4</ele>
        <time>2019-07-08T11:44:26Z</time>
      </trkpt>
      <trkpt lat="39.8961360" lon="-4.4922870">
        <ele>437.6</ele>
        <time>2019-07-08T11:44:35Z</time>
      </trkpt>
      <trkpt lat="39.8963080" lon="-4.4921400">
        <ele>438.6</ele>
        <time>2019-07-08T11:44:41Z</time>
      </trkpt>
      <trkpt lat="39.8963880" lon="-4.4920340">
        <ele>439.6</ele>
        <time>2019-07-08T11:44:45Z</time>
      </trkpt>
      <trkpt lat="39.8964270" lon="-4.4919380">
        <ele>439.8</ele>
        <time>2019-07-08T11:44:48Z</time>
      </trkpt>
      <trkpt lat="39.8964850" lon="-4.4917710">
        <ele>440.8</ele>
        <time>2019-07-08T11:44:53Z</time>
      </trkpt>
      <trkpt lat="39.8965160" lon="-4.4916730">
        <ele>441.4</ele>
        <time>2019-07-08T11:44:56Z</time>
      </trkpt>
      <trkpt lat="39.8965390" lon="-4.4916040">
        <ele>442.0</ele>
        <time>2019-07-08T11:44:58Z</time>
      </trkpt>
      <trkpt lat="39.8965730" lon="-4.4914990">
        <ele>443.0</ele>
        <time>2019-07-08T11:45:01Z</time>
      </trkpt>
      <trkpt lat="39.8966100" lon="-4.4914020">
        <ele>443.8</ele>
        <time>2019-07-08T11:45:04Z</time>
      </trkpt>
      <trkpt lat="39.8966290" lon="-4.4913400">
        <ele>444.4</ele>
        <time>2019-07-08T11:45:06Z</time>
      </trkpt>
      <trkpt lat="39.8966830" lon="-4.4911770">
        <ele>445.2</ele>
        <time>2019-07-08T11:45:11Z</time>
      </trkpt>
      <trkpt lat="39.8966960" lon="-4.4911450">
        <ele>445.4</ele>
        <time>2019-07-08T11:45:12Z</time>
      </trkpt>
      <trkpt lat="39.8967780" lon="-4.4909460">
        <ele>446.6</ele>
        <time>2019-07-08T11:45:18Z</time>
      </trkpt>
      <trkpt lat="39.8968100" lon="-4.4908820">
        <ele>446.8</ele>
        <time>2019-07-08T11:45:20Z</time>
      </trkpt>
      <trkpt lat="39.8968690" lon="-4.4907880">
        <ele>447.6</ele>
        <time>2019-07-08T11:45:23Z</time>
      </trkpt>
      <trkpt lat="39.8969820" lon="-4.4905860">
        <ele>448.4</ele>
        <time>2019-07-08T11:45:29Z</time>
      </trkpt>
      <trkpt lat="39.8970220" lon="-4.4905150">
        <ele>448.8</ele>
        <time>2019-07-08T11:45:31Z</time>
      </trkpt>
      <trkpt lat="39.8971120" lon="-4.4903240">
        <ele>449.4</ele>
        <time>2019-07-08T11:45:36Z</time>
      </trkpt>
      <trkpt lat="39.8971710" lon="-4.4901680">
        <ele>450.4</ele>
        <time>2019-07-08T11:45:40Z</time>
      </trkpt>
      <trkpt lat="39.8972030" lon="-4.4900880">
        <ele>450.8</ele>
        <time>2019-07-08T11:45:42Z</time>
      </trkpt>
      <trkpt lat="39.8972970" lon="-4.4898720">
        <ele>451.4</ele>
        <time>2019-07-08T11:45:47Z</time>
      </trkpt>
      <trkpt lat="39.8973390" lon="-4.4897850">
        <ele>451.6</ele>
        <time>2019-07-08T11:45:49Z</time>
      </trkpt>
      <trkpt lat="39.8974480" lon="-4.4895690">
        <ele>451.6</ele>
        <time>2019-07-08T11:45:54Z</time>
      </trkpt>
      <trkpt lat="39.8975100" lon="-4.4894410">
        <ele>452.0</ele>
        <time>2019-07-08T11:45:57Z</time>
      </trkpt>
      <trkpt lat="39.8975310" lon="-4.4894010">
        <ele>452.2</ele>
        <time>2019-07-08T11:45:58Z</time>
      </trkpt>
      <trkpt lat="39.8975720" lon="-4.4893190">
        <ele>452.4</ele>
        <time>2019-07-08T11:46:00Z</time>
      </trkpt>
      <trkpt lat="39.8976300" lon="-4.4892030">
        <ele>453.0</ele>
        <time>2019-07-08T11:46:03Z</time>
      </trkpt>
      <trkpt lat="39.8976930" lon="-4.4890930">
        <ele>453.6</ele>
        <time>2019-07-08T11:46:06Z</time>
      </trkpt>
      <trkpt lat="39.8977150" lon="-4.4890580">
        <ele>453.8</ele>
        <time>2019-07-08T11:46:07Z</time>
      </trkpt>
      <trkpt lat="39.8978600" lon="-4.4888040">
        <ele>454.6</ele>
        <time>2019-07-08T11:46:14Z</time>
      </trkpt>
      <trkpt lat="39.8980220" lon="-4.4885010">
        <ele>455.6</ele>
        <time>2019-07-08T11:46:22Z</time>
      </trkpt>
      <trkpt lat="39.8980400" lon="-4.4884620">
        <ele>455.8</ele>
        <time>2019-07-08T11:46:23Z</time>
      </trkpt>
      <trkpt lat="39.8981710" lon="-4.4881860">
        <ele>456.6</ele>
        <time>2019-07-08T11:46:30Z</time>
      </trkpt>
      <trkpt lat="39.8982220" lon="-4.4880690">
        <ele>456.8</ele>
        <time>2019-07-08T11:46:33Z</time>
      </trkpt>
      <trkpt lat="39.8982710" lon="-4.4879460">
        <ele>457.0</ele>
        <time>2019-07-08T11:46:36Z</time>
      </trkpt>
      <trkpt lat="39.8983560" lon="-4.4877410">
        <ele>457.8</ele>
        <time>2019-07-08T11:46:41Z</time>
      </trkpt>
      <trkpt lat="39.8983740" lon="-4.4877000">
        <ele>458.0</ele>
        <time>2019-07-08T11:46:42Z</time>
      </trkpt>
      <trkpt lat="39.8984220" lon="-4.4875740">
        <ele>458.2</ele>
        <time>2019-07-08T11:46:45Z</time>
      </trkpt>
      <trkpt lat="39.8984850" lon="-4.4873880">
        <ele>458.4</ele>
        <time>2019-07-08T11:46:49Z</time>
      </trkpt>
      <trkpt lat="39.8985550" lon="-4.4871790">
        <ele>458.0</ele>
        <time>2019-07-08T11:46:53Z</time>
      </trkpt>
      <trkpt lat="39.8986590" lon="-4.4869000">
        <ele>458.0</ele>
        <time>2019-07-08T11:46:58Z</time>
      </trkpt>
      <trkpt lat="39.8987480" lon="-4.4866880">
        <ele>458.0</ele>
        <time>2019-07-08T11:47:02Z</time>
      </trkpt>
      <trkpt lat="39.8988680" lon="-4.4863790">
        <ele>457.8</ele>
        <time>2019-07-08T11:47:08Z</time>
      </trkpt>
      <trkpt lat="39.8989060" lon="-4.4862840">
        <ele>457.8</ele>
        <time>2019-07-08T11:47:10Z</time>
      </trkpt>
      <trkpt lat="39.8990370" lon="-4.4859730">
        <ele>458.4</ele>
        <time>2019-07-08T11:47:17Z</time>
      </trkpt>
      <trkpt lat="39.8990810" lon="-4.4858880">
        <ele>458.8</ele>
        <time>2019-07-08T11:47:19Z</time>
      </trkpt>
      <trkpt lat="39.8991720" lon="-4.4857240">
        <ele>459.0</ele>
        <time>2019-07-08T11:47:23Z</time>
      </trkpt>
      <trkpt lat="39.8991950" lon="-4.4856850">
        <ele>459.0</ele>
        <time>2019-07-08T11:47:24Z</time>
      </trkpt>
      <trkpt lat="39.8992420" lon="-4.4856110">
        <ele>459.2</ele>
        <time>2019-07-08T11:47:26Z</time>
      </trkpt>
      <trkpt lat="39.8992670" lon="-4.4855740">
        <ele>459.4</ele>
        <time>2019-07-08T11:47:27Z</time>
      </trkpt>
      <trkpt lat="39.8994420" lon="-4.4853030">
        <ele>460.2</ele>
        <time>2019-07-08T11:47:34Z</time>
      </trkpt>
      <trkpt lat="39.8995340" lon="-4.4851400">
        <ele>460.2</ele>
        <time>2019-07-08T11:47:38Z</time>
      </trkpt>
      <trkpt lat="39.8995550" lon="-4.4850890">
        <ele>460.2</ele>
        <time>2019-07-08T11:47:39Z</time>
      </trkpt>
      <trkpt lat="39.8995690" lon="-4.4850350">
        <ele>460.0</ele>
        <time>2019-07-08T11:47:40Z</time>
      </trkpt>
      <trkpt lat="39.8995540" lon="-4.4848130">
        <ele>459.4</ele>
        <time>2019-07-08T11:47:44Z</time>
      </trkpt>
      <trkpt lat="39.8995210" lon="-4.4847140">
        <ele>459.0</ele>
        <time>2019-07-08T11:47:46Z</time>
      </trkpt>
      <trkpt lat="39.8994790" lon="-4.4845890">
        <ele>459.4</ele>
        <time>2019-07-08T11:47:49Z</time>
      </trkpt>
      <trkpt lat="39.8994760" lon="-4.4845780">
        <ele>459.4</ele>
        <time>2019-07-08T11:47:51Z</time>
      </trkpt>
      <trkpt lat="39.8994600" lon="-4.4845460">
        <ele>459.6</ele>
        <time>2019-07-08T11:48:35Z</time>
      </trkpt>
      <trkpt lat="39.8994520" lon="-4.4845280">
        <ele>459.8</ele>
        <time>2019-07-08T11:48:36Z</time>
      </trkpt>
      <trkpt lat="39.8994360" lon="-4.4844810">
        <ele>460.0</ele>
        <time>2019-07-08T11:48:38Z</time>
      </trkpt>
      <trkpt lat="39.8994160" lon="-4.4844210">
        <ele>460.2</ele>
        <time>2019-07-08T11:48:40Z</time>
      </trkpt>
      <trkpt lat="39.8994040" lon="-4.4843890">
        <ele>460.2</ele>
        <time>2019-07-08T11:48:41Z</time>
      </trkpt>
      <trkpt lat="39.8993320" lon="-4.4841650">
        <ele>460.6</ele>
        <time>2019-07-08T11:48:47Z</time>
      </trkpt>
      <trkpt lat="39.8993000" lon="-4.4840410">
        <ele>461.0</ele>
        <time>2019-07-08T11:48:50Z</time>
      </trkpt>
      <trkpt lat="39.8992610" lon="-4.4838720">
        <ele>461.2</ele>
        <time>2019-07-08T11:48:54Z</time>
      </trkpt>
      <trkpt lat="39.8992290" lon="-4.4837480">
        <ele>461.8</ele>
        <time>2019-07-08T11:48:57Z</time>
      </trkpt>
      <trkpt lat="39.8991570" lon="-4.4834700">
        <ele>462.2</ele>
        <time>2019-07-08T11:49:04Z</time>
      </trkpt>
      <trkpt lat="39.8991350" lon="-4.4833870">
        <ele>462.4</ele>
        <time>2019-07-08T11:49:06Z</time>
      </trkpt>
      <trkpt lat="39.8990710" lon="-4.4831490">
        <ele>463.0</ele>
        <time>2019-07-08T11:49:12Z</time>
      </trkpt>
      <trkpt lat="39.8990510" lon="-4.4830710">
        <ele>463.4</ele>
        <time>2019-07-08T11:49:14Z</time>
      </trkpt>
      <trkpt lat="39.8990430" lon="-4.4830310">
        <ele>463.6</ele>
        <time>2019-07-08T11:49:15Z</time>
      </trkpt>
      <trkpt lat="39.8990370" lon="-4.4829920">
        <ele>463.6</ele>
        <time>2019-07-08T11:49:16Z</time>
      </trkpt>
      <trkpt lat="39.8989900" lon="-4.4827120">
        <ele>464.6</ele>
        <time>2019-07-08T11:49:23Z</time>
      </trkpt>
      <trkpt lat="39.8989560" lon="-4.4824580">
        <ele>465.2</ele>
        <time>2019-07-08T11:49:30Z</time>
      </trkpt>
      <trkpt lat="39.8989630" lon="-4.4824070">
        <ele>465.6</ele>
        <time>2019-07-08T11:49:32Z</time>
      </trkpt>
      <trkpt lat="39.8989710" lon="-4.4823960">
        <ele>465.8</ele>
        <time>2019-07-08T11:49:33Z</time>
      </trkpt>
      <trkpt lat="39.8989720" lon="-4.4823960">
        <ele>466.0</ele>
        <time>2019-07-08T11:49:34Z</time>
      </trkpt>
      <trkpt lat="39.8989740" lon="-4.4823960">
        <ele>466.0</ele>
        <time>2019-07-08T11:49:35Z</time>
      </trkpt>
      <trkpt lat="39.8990230" lon="-4.4824150">
        <ele>466.2</ele>
        <time>2019-07-08T11:49:40Z</time>
      </trkpt>
      <trkpt lat="39.8990670" lon="-4.4824320">
        <ele>466.2</ele>
        <time>2019-07-08T11:49:42Z</time>
      </trkpt>
      <trkpt lat="39.8991230" lon="-4.4824550">
        <ele>466.2</ele>
        <time>2019-07-08T11:49:44Z</time>
      </trkpt>
      <trkpt lat="39.8991850" lon="-4.4824830">
        <ele>466.2</ele>
        <time>2019-07-08T11:49:46Z</time>
      </trkpt>
      <trkpt lat="39.8992500" lon="-4.4825130">
        <ele>466.2</ele>
        <time>2019-07-08T11:49:48Z</time>
      </trkpt>
      <trkpt lat="39.8992830" lon="-4.4825240">
        <ele>466.6</ele>
        <time>2019-07-08T11:49:49Z</time>
      </trkpt>
      <trkpt lat="39.8993140" lon="-4.4825330">
        <ele>466.6</ele>
        <time>2019-07-08T11:49:50Z</time>
      </trkpt>
      <trkpt lat="39.8993570" lon="-4.4825450">
        <ele>466.4</ele>
        <time>2019-07-08T11:49:52Z</time>
      </trkpt>
      <trkpt lat="39.8993630" lon="-4.4825470">
        <ele>466.4</ele>
        <time>2019-07-08T11:49:53Z</time>
      </trkpt>
      <trkpt lat="39.8993670" lon="-4.4825350">
        <ele>466.0</ele>
        <time>2019-07-08T11:49:55Z</time>
      </trkpt>
      <trkpt lat="39.8993950" lon="-4.4825020">
        <ele>466.2</ele>
        <time>2019-07-08T11:49:59Z</time>
      </trkpt>
      <trkpt lat="39.8994120" lon="-4.4824980">
        <ele>465.6</ele>
        <time>2019-07-08T11:50:02Z</time>
      </trkpt>
      <trkpt lat="39.8994640" lon="-4.4825200">
        <ele>466.0</ele>
        <time>2019-07-08T11:50:25Z</time>
      </trkpt>
      <trkpt lat="39.8995440" lon="-4.4826680">
        <ele>466.0</ele>
        <time>2019-07-08T11:50:30Z</time>
      </trkpt>
      <trkpt lat="39.8996500" lon="-4.4830010">
        <ele>465.6</ele>
        <time>2019-07-08T11:50:36Z</time>
      </trkpt>
      <trkpt lat="39.8997460" lon="-4.4833570">
        <ele>464.6</ele>
        <time>2019-07-08T11:50:41Z</time>
      </trkpt>
      <trkpt lat="39.8997870" lon="-4.4835060">
        <ele>464.2</ele>
        <time>2019-07-08T11:50:43Z</time>
      </trkpt>
      <trkpt lat="39.8999150" lon="-4.4839740">
        <ele>463.4</ele>
        <time>2019-07-08T11:50:49Z</time>
      </trkpt>
      <trkpt lat="39.8999830" lon="-4.4842210">
        <ele>462.8</ele>
        <time>2019-07-08T11:50:52Z</time>
      </trkpt>
      <trkpt lat="39.9000050" lon="-4.4843020">
        <ele>462.2</ele>
        <time>2019-07-08T11:50:53Z</time>
      </trkpt>
      <trkpt lat="39.9000700" lon="-4.4845430">
        <ele>461.6</ele>
        <time>2019-07-08T11:50:56Z</time>
      </trkpt>
      <trkpt lat="39.9001140" lon="-4.4847030">
        <ele>461.2</ele>
        <time>2019-07-08T11:50:58Z</time>
      </trkpt>
      <trkpt lat="39.9001790" lon="-4.4849490">
        <ele>460.8</ele>
        <time>2019-07-08T11:51:01Z</time>
      </trkpt>
      <trkpt lat="39.9002470" lon="-4.4852000">
        <ele>460.4</ele>
        <time>2019-07-08T11:51:04Z</time>
      </trkpt>
      <trkpt lat="39.9002910" lon="-4.4853690">
        <ele>460.2</ele>
        <time>2019-07-08T11:51:06Z</time>
      </trkpt>
      <trkpt lat="39.9003580" lon="-4.4856200">
        <ele>459.8</ele>
        <time>2019-07-08T11:51:09Z</time>
      </trkpt>
      <trkpt lat="39.9003810" lon="-4.4857030">
        <ele>459.6</ele>
        <time>2019-07-08T11:51:10Z</time>
      </trkpt>
      <trkpt lat="39.9005380" lon="-4.4862850">
        <ele>459.2</ele>
        <time>2019-07-08T11:51:17Z</time>
      </trkpt>
      <trkpt lat="39.9006060" lon="-4.4865340">
        <ele>458.6</ele>
        <time>2019-07-08T11:51:20Z</time>
      </trkpt>
      <trkpt lat="39.9007160" lon="-4.4869520">
        <ele>458.0</ele>
        <time>2019-07-08T11:51:25Z</time>
      </trkpt>
      <trkpt lat="39.9008310" lon="-4.4873730">
        <ele>458.2</ele>
        <time>2019-07-08T11:51:30Z</time>
      </trkpt>
      <trkpt lat="39.9010240" lon="-4.4880690">
        <ele>457.6</ele>
        <time>2019-07-08T11:51:38Z</time>
      </trkpt>
      <trkpt lat="39.9010980" lon="-4.4883320">
        <ele>457.2</ele>
        <time>2019-07-08T11:51:41Z</time>
      </trkpt>
      <trkpt lat="39.9011720" lon="-4.4885950">
        <ele>457.0</ele>
        <time>2019-07-08T11:51:44Z</time>
      </trkpt>
      <trkpt lat="39.9012410" lon="-4.4888620">
        <ele>456.8</ele>
        <time>2019-07-08T11:51:47Z</time>
      </trkpt>
      <trkpt lat="39.9014350" lon="-4.4895590">
        <ele>456.0</ele>
        <time>2019-07-08T11:51:55Z</time>
      </trkpt>
      <trkpt lat="39.9015080" lon="-4.4898220">
        <ele>456.0</ele>
        <time>2019-07-08T11:51:58Z</time>
      </trkpt>
      <trkpt lat="39.9016950" lon="-4.4905190">
        <ele>455.6</ele>
        <time>2019-07-08T11:52:06Z</time>
      </trkpt>
      <trkpt lat="39.9017190" lon="-4.4906050">
        <ele>455.6</ele>
        <time>2019-07-08T11:52:07Z</time>
      </trkpt>
      <trkpt lat="39.9019010" lon="-4.4912780">
        <ele>455.4</ele>
        <time>2019-07-08T11:52:15Z</time>
      </trkpt>
      <trkpt lat="39.9019670" lon="-4.4915270">
        <ele>455.2</ele>
        <time>2019-07-08T11:52:18Z</time>
      </trkpt>
      <trkpt lat="39.9020780" lon="-4.4919320">
        <ele>455.2</ele>
        <time>2019-07-08T11:52:23Z</time>
      </trkpt>
      <trkpt lat="39.9021840" lon="-4.4923270">
        <ele>455.0</ele>
        <time>2019-07-08T11:52:28Z</time>
      </trkpt>
      <trkpt lat="39.9023540" lon="-4.4929500">
        <ele>454.2</ele>
        <time>2019-07-08T11:52:36Z</time>
      </trkpt>
      <trkpt lat="39.9025460" lon="-4.4936470">
        <ele>454.6</ele>
        <time>2019-07-08T11:52:45Z</time>
      </trkpt>
      <trkpt lat="39.9026100" lon="-4.4938800">
        <ele>454.4</ele>
        <time>2019-07-08T11:52:48Z</time>
      </trkpt>
      <trkpt lat="39.9027370" lon="-4.4943580">
        <ele>453.2</ele>
        <time>2019-07-08T11:52:54Z</time>
      </trkpt>
      <trkpt lat="39.9028050" lon="-4.4945990">
        <ele>453.0</ele>
        <time>2019-07-08T11:52:57Z</time>
      </trkpt>
      <trkpt lat="39.9029590" lon="-4.4951790">
        <ele>452.0</ele>
        <time>2019-07-08T11:53:04Z</time>
      </trkpt>
      <trkpt lat="39.9030050" lon="-4.4953500">
        <ele>451.6</ele>
        <time>2019-07-08T11:53:06Z</time>
      </trkpt>
      <trkpt lat="39.9031700" lon="-4.4959590">
        <ele>451.0</ele>
        <time>2019-07-08T11:53:13Z</time>
      </trkpt>
      <trkpt lat="39.9032210" lon="-4.4961390">
        <ele>450.4</ele>
        <time>2019-07-08T11:53:15Z</time>
      </trkpt>
      <trkpt lat="39.9032710" lon="-4.4963240">
        <ele>449.6</ele>
        <time>2019-07-08T11:53:17Z</time>
      </trkpt>
      <trkpt lat="39.9034200" lon="-4.4968790">
        <ele>448.6</ele>
        <time>2019-07-08T11:53:23Z</time>
      </trkpt>
      <trkpt lat="39.9035180" lon="-4.4972440">
        <ele>447.8</ele>
        <time>2019-07-08T11:53:27Z</time>
      </trkpt>
      <trkpt lat="39.9035660" lon="-4.4974230">
        <ele>447.4</ele>
        <time>2019-07-08T11:53:29Z</time>
      </trkpt>
      <trkpt lat="39.9036600" lon="-4.4977750">
        <ele>446.4</ele>
        <time>2019-07-08T11:53:33Z</time>
      </trkpt>
      <trkpt lat="39.9037580" lon="-4.4981240">
        <ele>445.4</ele>
        <time>2019-07-08T11:53:37Z</time>
      </trkpt>
      <trkpt lat="39.9038770" lon="-4.4985610">
        <ele>444.0</ele>
        <time>2019-07-08T11:53:42Z</time>
      </trkpt>
      <trkpt lat="39.9039490" lon="-4.4988210">
        <ele>443.6</ele>
        <time>2019-07-08T11:53:45Z</time>
      </trkpt>
      <trkpt lat="39.9040650" lon="-4.4992470">
        <ele>443.0</ele>
        <time>2019-07-08T11:53:50Z</time>
      </trkpt>
      <trkpt lat="39.9041540" lon="-4.4995860">
        <ele>442.4</ele>
        <time>2019-07-08T11:53:54Z</time>
      </trkpt>
      <trkpt lat="39.9041770" lon="-4.4996700">
        <ele>442.2</ele>
        <time>2019-07-08T11:53:55Z</time>
      </trkpt>
      <trkpt lat="39.9043610" lon="-4.5003410">
        <ele>441.6</ele>
        <time>2019-07-08T11:54:03Z</time>
      </trkpt>
      <trkpt lat="39.9044250" lon="-4.5005900">
        <ele>441.2</ele>
        <time>2019-07-08T11:54:06Z</time>
      </trkpt>
      <trkpt lat="39.9044470" lon="-4.5006730">
        <ele>441.2</ele>
        <time>2019-07-08T11:54:07Z</time>
      </trkpt>
      <trkpt lat="39.9045330" lon="-4.5010050">
        <ele>440.6</ele>
        <time>2019-07-08T11:54:11Z</time>
      </trkpt>
      <trkpt lat="39.9046500" lon="-4.5015030">
        <ele>440.0</ele>
        <time>2019-07-08T11:54:17Z</time>
      </trkpt>
      <trkpt lat="39.9046680" lon="-4.5015870">
        <ele>439.6</ele>
        <time>2019-07-08T11:54:18Z</time>
      </trkpt>
      <trkpt lat="39.9047350" lon="-4.5019300">
        <ele>438.6</ele>
        <time>2019-07-08T11:54:22Z</time>
      </trkpt>
      <trkpt lat="39.9048040" lon="-4.5022910">
        <ele>437.8</ele>
        <time>2019-07-08T11:54:26Z</time>
      </trkpt>
      <trkpt lat="39.9048210" lon="-4.5023840">
        <ele>437.4</ele>
        <time>2019-07-08T11:54:27Z</time>
      </trkpt>
      <trkpt lat="39.9049220" lon="-4.5030630">
        <ele>436.2</ele>
        <time>2019-07-08T11:54:34Z</time>
      </trkpt>
      <trkpt lat="39.9049340" lon="-4.5031630">
        <ele>436.0</ele>
        <time>2019-07-08T11:54:35Z</time>
      </trkpt>
      <trkpt lat="39.9049570" lon="-4.5033660">
        <ele>435.2</ele>
        <time>2019-07-08T11:54:37Z</time>
      </trkpt>
      <trkpt lat="39.9050030" lon="-4.5038770">
        <ele>434.0</ele>
        <time>2019-07-08T11:54:42Z</time>
      </trkpt>
      <trkpt lat="39.9050170" lon="-4.5040750">
        <ele>432.6</ele>
        <time>2019-07-08T11:54:44Z</time>
      </trkpt>
      <trkpt lat="39.9050350" lon="-4.5043610">
        <ele>431.6</ele>
        <time>2019-07-08T11:54:47Z</time>
      </trkpt>
      <trkpt lat="39.9050490" lon="-4.5046400">
        <ele>431.2</ele>
        <time>2019-07-08T11:54:50Z</time>
      </trkpt>
      <trkpt lat="39.9050560" lon="-4.5048190">
        <ele>431.0</ele>
        <time>2019-07-08T11:54:52Z</time>
      </trkpt>
      <trkpt lat="39.9050810" lon="-4.5053850">
        <ele>430.6</ele>
        <time>2019-07-08T11:54:59Z</time>
      </trkpt>
      <trkpt lat="39.9051110" lon="-4.5059380">
        <ele>431.2</ele>
        <time>2019-07-08T11:55:07Z</time>
      </trkpt>
      <trkpt lat="39.9051210" lon="-4.5061310">
        <ele>431.4</ele>
        <time>2019-07-08T11:55:10Z</time>
      </trkpt>
      <trkpt lat="39.9051310" lon="-4.5064510">
        <ele>431.8</ele>
        <time>2019-07-08T11:55:15Z</time>
      </trkpt>
      <trkpt lat="39.9051340" lon="-4.5065150">
        <ele>432.0</ele>
        <time>2019-07-08T11:55:16Z</time>
      </trkpt>
      <trkpt lat="39.9051430" lon="-4.5067690">
        <ele>432.4</ele>
        <time>2019-07-08T11:55:20Z</time>
      </trkpt>
      <trkpt lat="39.9051550" lon="-4.5070910">
        <ele>432.4</ele>
        <time>2019-07-08T11:55:25Z</time>
      </trkpt>
      <trkpt lat="39.9051680" lon="-4.5074780">
        <ele>432.6</ele>
        <time>2019-07-08T11:55:31Z</time>
      </trkpt>
      <trkpt lat="39.9051740" lon="-4.5076020">
        <ele>432.6</ele>
        <time>2019-07-08T11:55:33Z</time>
      </trkpt>
      <trkpt lat="39.9051800" lon="-4.5076630">
        <ele>432.6</ele>
        <time>2019-07-08T11:55:34Z</time>
      </trkpt>
      <trkpt lat="39.9052050" lon="-4.5079630">
        <ele>432.8</ele>
        <time>2019-07-08T11:55:39Z</time>
      </trkpt>
      <trkpt lat="39.9052260" lon="-4.5084410">
        <ele>432.8</ele>
        <time>2019-07-08T11:55:47Z</time>
      </trkpt>
      <trkpt lat="39.9052310" lon="-4.5089240">
        <ele>432.6</ele>
        <time>2019-07-08T11:55:55Z</time>
      </trkpt>
      <trkpt lat="39.9052470" lon="-4.5093710">
        <ele>432.8</ele>
        <time>2019-07-08T11:56:02Z</time>
      </trkpt>
      <trkpt lat="39.9052680" lon="-4.5099010">
        <ele>432.8</ele>
        <time>2019-07-08T11:56:10Z</time>
      </trkpt>
      <trkpt lat="39.9053040" lon="-4.5106010">
        <ele>433.2</ele>
        <time>2019-07-08T11:56:20Z</time>
      </trkpt>
      <trkpt lat="39.9053350" lon="-4.5112600">
        <ele>433.0</ele>
        <time>2019-07-08T11:56:29Z</time>
      </trkpt>
      <trkpt lat="39.9053710" lon="-4.5119910">
        <ele>432.2</ele>
        <time>2019-07-08T11:56:39Z</time>
      </trkpt>
      <trkpt lat="39.9053840" lon="-4.5122790">
        <ele>431.8</ele>
        <time>2019-07-08T11:56:43Z</time>
      </trkpt>
      <trkpt lat="39.9054070" lon="-4.5127140">
        <ele>431.4</ele>
        <time>2019-07-08T11:56:49Z</time>
      </trkpt>
      <trkpt lat="39.9054430" lon="-4.5134420">
        <ele>431.0</ele>
        <time>2019-07-08T11:56:59Z</time>
      </trkpt>
      <trkpt lat="39.9054460" lon="-4.5135150">
        <ele>431.0</ele>
        <time>2019-07-08T11:57:00Z</time>
      </trkpt>
      <trkpt lat="39.9054590" lon="-4.5138030">
        <ele>430.8</ele>
        <time>2019-07-08T11:57:04Z</time>
      </trkpt>
      <trkpt lat="39.9054860" lon="-4.5143770">
        <ele>430.6</ele>
        <time>2019-07-08T11:57:12Z</time>
      </trkpt>
      <trkpt lat="39.9055170" lon="-4.5150900">
        <ele>431.2</ele>
        <time>2019-07-08T11:57:22Z</time>
      </trkpt>
      <trkpt lat="39.9055200" lon="-4.5151610">
        <ele>431.2</ele>
        <time>2019-07-08T11:57:23Z</time>
      </trkpt>
      <trkpt lat="39.9055440" lon="-4.5157280">
        <ele>430.8</ele>
        <time>2019-07-08T11:57:31Z</time>
      </trkpt>
      <trkpt lat="39.9055750" lon="-4.5163880">
        <ele>430.6</ele>
        <time>2019-07-08T11:57:40Z</time>
      </trkpt>
      <trkpt lat="39.9056060" lon="-4.5170540">
        <ele>431.6</ele>
        <time>2019-07-08T11:57:49Z</time>
      </trkpt>
      <trkpt lat="39.9056340" lon="-4.5175490">
        <ele>431.8</ele>
        <time>2019-07-08T11:57:56Z</time>
      </trkpt>
      <trkpt lat="39.9056420" lon="-4.5176870">
        <ele>432.2</ele>
        <time>2019-07-08T11:57:58Z</time>
      </trkpt>
      <trkpt lat="39.9056680" lon="-4.5182830">
        <ele>432.2</ele>
        <time>2019-07-08T11:58:07Z</time>
      </trkpt>
      <trkpt lat="39.9056890" lon="-4.5187190">
        <ele>432.4</ele>
        <time>2019-07-08T11:58:14Z</time>
      </trkpt>
      <trkpt lat="39.9056900" lon="-4.5187790">
        <ele>432.4</ele>
        <time>2019-07-08T11:58:15Z</time>
      </trkpt>
      <trkpt lat="39.9056980" lon="-4.5189520">
        <ele>432.4</ele>
        <time>2019-07-08T11:58:18Z</time>
      </trkpt>
      <trkpt lat="39.9057080" lon="-4.5192540">
        <ele>432.6</ele>
        <time>2019-07-08T11:58:23Z</time>
      </trkpt>
      <trkpt lat="39.9057170" lon="-4.5194820">
        <ele>432.6</ele>
        <time>2019-07-08T11:58:27Z</time>
      </trkpt>
      <trkpt lat="39.9057250" lon="-4.5196940">
        <ele>432.8</ele>
        <time>2019-07-08T11:58:31Z</time>
      </trkpt>
      <trkpt lat="39.9057350" lon="-4.5199560">
        <ele>433.2</ele>
        <time>2019-07-08T11:58:36Z</time>
      </trkpt>
      <trkpt lat="39.9057460" lon="-4.5201730">
        <ele>433.6</ele>
        <time>2019-07-08T11:58:40Z</time>
      </trkpt>
      <trkpt lat="39.9057580" lon="-4.5204510">
        <ele>434.2</ele>
        <time>2019-07-08T11:58:45Z</time>
      </trkpt>
      <trkpt lat="39.9057720" lon="-4.5207310">
        <ele>434.6</ele>
        <time>2019-07-08T11:58:50Z</time>
      </trkpt>
      <trkpt lat="39.9057800" lon="-4.5209490">
        <ele>435.2</ele>
        <time>2019-07-08T11:58:54Z</time>
      </trkpt>
      <trkpt lat="39.9057980" lon="-4.5214070">
        <ele>436.4</ele>
        <time>2019-07-08T11:59:02Z</time>
      </trkpt>
      <trkpt lat="39.9058180" lon="-4.5218900">
        <ele>437.4</ele>
        <time>2019-07-08T11:59:10Z</time>
      </trkpt>
      <trkpt lat="39.9058260" lon="-4.5220110">
        <ele>437.6</ele>
        <time>2019-07-08T11:59:12Z</time>
      </trkpt>
      <trkpt lat="39.9058440" lon="-4.5224260">
        <ele>438.8</ele>
        <time>2019-07-08T11:59:19Z</time>
      </trkpt>
      <trkpt lat="39.9058460" lon="-4.5224860">
        <ele>438.8</ele>
        <time>2019-07-08T11:59:20Z</time>
      </trkpt>
      <trkpt lat="39.9058700" lon="-4.5229670">
        <ele>439.6</ele>
        <time>2019-07-08T11:59:28Z</time>
      </trkpt>
      <trkpt lat="39.9058730" lon="-4.5230320">
        <ele>439.8</ele>
        <time>2019-07-08T11:59:29Z</time>
      </trkpt>
      <trkpt lat="39.9058850" lon="-4.5233440">
        <ele>441.0</ele>
        <time>2019-07-08T11:59:34Z</time>
      </trkpt>
      <trkpt lat="39.9058930" lon="-4.5234620">
        <ele>441.4</ele>
        <time>2019-07-08T11:59:36Z</time>
      </trkpt>
      <trkpt lat="39.9059140" lon="-4.5238820">
        <ele>441.6</ele>
        <time>2019-07-08T11:59:43Z</time>
      </trkpt>
      <trkpt lat="39.9059180" lon="-4.5239430">
        <ele>441.6</ele>
        <time>2019-07-08T11:59:44Z</time>
      </trkpt>
      <trkpt lat="39.9059270" lon="-4.5242010">
        <ele>442.0</ele>
        <time>2019-07-08T11:59:48Z</time>
      </trkpt>
      <trkpt lat="39.9059410" lon="-4.5243970">
        <ele>442.2</ele>
        <time>2019-07-08T11:59:51Z</time>
      </trkpt>
      <trkpt lat="39.9059630" lon="-4.5248700">
        <ele>442.2</ele>
        <time>2019-07-08T11:59:58Z</time>
      </trkpt>
      <trkpt lat="39.9059820" lon="-4.5252160">
        <ele>442.2</ele>
        <time>2019-07-08T12:00:03Z</time>
      </trkpt>
      <trkpt lat="39.9059950" lon="-4.5254290">
        <ele>442.6</ele>
        <time>2019-07-08T12:00:06Z</time>
      </trkpt>
      <trkpt lat="39.9060140" lon="-4.5260370">
        <ele>442.4</ele>
        <time>2019-07-08T12:00:14Z</time>
      </trkpt>
      <trkpt lat="39.9060140" lon="-4.5261160">
        <ele>442.4</ele>
        <time>2019-07-08T12:00:15Z</time>
      </trkpt>
      <trkpt lat="39.9060250" lon="-4.5264270">
        <ele>442.2</ele>
        <time>2019-07-08T12:00:19Z</time>
      </trkpt>
      <trkpt lat="39.9060490" lon="-4.5269720">
        <ele>441.6</ele>
        <time>2019-07-08T12:00:26Z</time>
      </trkpt>
      <trkpt lat="39.9060530" lon="-4.5271330">
        <ele>441.6</ele>
        <time>2019-07-08T12:00:28Z</time>
      </trkpt>
      <trkpt lat="39.9060700" lon="-4.5275540">
        <ele>441.0</ele>
        <time>2019-07-08T12:00:33Z</time>
      </trkpt>
      <trkpt lat="39.9060910" lon="-4.5279860">
        <ele>440.6</ele>
        <time>2019-07-08T12:00:38Z</time>
      </trkpt>
      <trkpt lat="39.9061050" lon="-4.5283430">
        <ele>440.0</ele>
        <time>2019-07-08T12:00:42Z</time>
      </trkpt>
      <trkpt lat="39.9061140" lon="-4.5286150">
        <ele>439.4</ele>
        <time>2019-07-08T12:00:45Z</time>
      </trkpt>
      <trkpt lat="39.9061210" lon="-4.5287950">
        <ele>438.8</ele>
        <time>2019-07-08T12:00:47Z</time>
      </trkpt>
      <trkpt lat="39.9061560" lon="-4.5294230">
        <ele>438.4</ele>
        <time>2019-07-08T12:00:54Z</time>
      </trkpt>
      <trkpt lat="39.9061800" lon="-4.5300270">
        <ele>438.0</ele>
        <time>2019-07-08T12:01:01Z</time>
      </trkpt>
      <trkpt lat="39.9061840" lon="-4.5301130">
        <ele>438.0</ele>
        <time>2019-07-08T12:01:02Z</time>
      </trkpt>
      <trkpt lat="39.9062190" lon="-4.5308800">
        <ele>438.6</ele>
        <time>2019-07-08T12:01:11Z</time>
      </trkpt>
      <trkpt lat="39.9062230" lon="-4.5309640">
        <ele>438.4</ele>
        <time>2019-07-08T12:01:12Z</time>
      </trkpt>
      <trkpt lat="39.9062430" lon="-4.5313870">
        <ele>438.4</ele>
        <time>2019-07-08T12:01:17Z</time>
      </trkpt>
      <trkpt lat="39.9062610" lon="-4.5318060">
        <ele>438.6</ele>
        <time>2019-07-08T12:01:22Z</time>
      </trkpt>
      <trkpt lat="39.9063000" lon="-4.5325450">
        <ele>438.8</ele>
        <time>2019-07-08T12:01:31Z</time>
      </trkpt>
      <trkpt lat="39.9063430" lon="-4.5331110">
        <ele>438.2</ele>
        <time>2019-07-08T12:01:38Z</time>
      </trkpt>
      <trkpt lat="39.9063560" lon="-4.5334270">
        <ele>438.0</ele>
        <time>2019-07-08T12:01:42Z</time>
      </trkpt>
      <trkpt lat="39.9064320" lon="-4.5341960">
        <ele>437.8</ele>
        <time>2019-07-08T12:01:52Z</time>
      </trkpt>
      <trkpt lat="39.9065690" lon="-4.5348830">
        <ele>437.8</ele>
        <time>2019-07-08T12:02:01Z</time>
      </trkpt>
      <trkpt lat="39.9066990" lon="-4.5353040">
        <ele>438.2</ele>
        <time>2019-07-08T12:02:07Z</time>
      </trkpt>
      <trkpt lat="39.9067500" lon="-4.5354290">
        <ele>438.6</ele>
        <time>2019-07-08T12:02:09Z</time>
      </trkpt>
      <trkpt lat="39.9068320" lon="-4.5356000">
        <ele>438.8</ele>
        <time>2019-07-08T12:02:12Z</time>
      </trkpt>
      <trkpt lat="39.9068600" lon="-4.5356520">
        <ele>439.2</ele>
        <time>2019-07-08T12:02:13Z</time>
      </trkpt>
      <trkpt lat="39.9069660" lon="-4.5358360">
        <ele>440.2</ele>
        <time>2019-07-08T12:02:17Z</time>
      </trkpt>
      <trkpt lat="39.9069900" lon="-4.5358740">
        <ele>440.6</ele>
        <time>2019-07-08T12:02:18Z</time>
      </trkpt>
      <trkpt lat="39.9071140" lon="-4.5360280">
        <ele>441.4</ele>
        <time>2019-07-08T12:02:23Z</time>
      </trkpt>
      <trkpt lat="39.9071710" lon="-4.5360820">
        <ele>441.6</ele>
        <time>2019-07-08T12:02:25Z</time>
      </trkpt>
      <trkpt lat="39.9073950" lon="-4.5361750">
        <ele>442.0</ele>
        <time>2019-07-08T12:02:31Z</time>
      </trkpt>
      <trkpt lat="39.9074790" lon="-4.5362050">
        <ele>442.0</ele>
        <time>2019-07-08T12:02:33Z</time>
      </trkpt>
      <trkpt lat="39.9075490" lon="-4.5362720">
        <ele>442.0</ele>
        <time>2019-07-08T12:02:35Z</time>
      </trkpt>
      <trkpt lat="39.9075810" lon="-4.5364420">
        <ele>442.2</ele>
        <time>2019-07-08T12:02:38Z</time>
      </trkpt>
      <trkpt lat="39.9074860" lon="-4.5365610">
        <ele>442.2</ele>
        <time>2019-07-08T12:02:41Z</time>
      </trkpt>
      <trkpt lat="39.9073930" lon="-4.5365860">
        <ele>442.4</ele>
        <time>2019-07-08T12:02:43Z</time>
      </trkpt>
      <trkpt lat="39.9073450" lon="-4.5365970">
        <ele>442.4</ele>
        <time>2019-07-08T12:02:44Z</time>
      </trkpt>
      <trkpt lat="39.9072520" lon="-4.5366300">
        <ele>442.6</ele>
        <time>2019-07-08T12:02:46Z</time>
      </trkpt>
      <trkpt lat="39.9069960" lon="-4.5368090">
        <ele>442.8</ele>
        <time>2019-07-08T12:02:52Z</time>
      </trkpt>
      <trkpt lat="39.9067530" lon="-4.5370010">
        <ele>443.0</ele>
        <time>2019-07-08T12:02:58Z</time>
      </trkpt>
      <trkpt lat="39.9067120" lon="-4.5370400">
        <ele>443.0</ele>
        <time>2019-07-08T12:02:59Z</time>
      </trkpt>
      <trkpt lat="39.9066730" lon="-4.5370850">
        <ele>443.0</ele>
        <time>2019-07-08T12:03:00Z</time>
      </trkpt>
      <trkpt lat="39.9065290" lon="-4.5373020">
        <ele>442.2</ele>
        <time>2019-07-08T12:03:04Z</time>
      </trkpt>
      <trkpt lat="39.9064850" lon="-4.5373440">
        <ele>442.0</ele>
        <time>2019-07-08T12:03:05Z</time>
      </trkpt>
      <trkpt lat="39.9063790" lon="-4.5373960">
        <ele>441.8</ele>
        <time>2019-07-08T12:03:07Z</time>
      </trkpt>
      <trkpt lat="39.9062640" lon="-4.5374200">
        <ele>441.6</ele>
        <time>2019-07-08T12:03:09Z</time>
      </trkpt>
      <trkpt lat="39.9062060" lon="-4.5374300">
        <ele>441.4</ele>
        <time>2019-07-08T12:03:10Z</time>
      </trkpt>
      <trkpt lat="39.9060950" lon="-4.5374790">
        <ele>441.2</ele>
        <time>2019-07-08T12:03:12Z</time>
      </trkpt>
      <trkpt lat="39.9060410" lon="-4.5375140">
        <ele>441.2</ele>
        <time>2019-07-08T12:03:13Z</time>
      </trkpt>
      <trkpt lat="39.9059310" lon="-4.5375880">
        <ele>441.0</ele>
        <time>2019-07-08T12:03:15Z</time>
      </trkpt>
      <trkpt lat="39.9058140" lon="-4.5376650">
        <ele>440.8</ele>
        <time>2019-07-08T12:03:17Z</time>
      </trkpt>
      <trkpt lat="39.9056900" lon="-4.5377420">
        <ele>440.2</ele>
        <time>2019-07-08T12:03:19Z</time>
      </trkpt>
      <trkpt lat="39.9056260" lon="-4.5377840">
        <ele>439.8</ele>
        <time>2019-07-08T12:03:20Z</time>
      </trkpt>
      <trkpt lat="39.9054200" lon="-4.5379060">
        <ele>439.0</ele>
        <time>2019-07-08T12:03:23Z</time>
      </trkpt>
      <trkpt lat="39.9051900" lon="-4.5380290">
        <ele>437.6</ele>
        <time>2019-07-08T12:03:26Z</time>
      </trkpt>
      <trkpt lat="39.9050310" lon="-4.5381230">
        <ele>436.4</ele>
        <time>2019-07-08T12:03:28Z</time>
      </trkpt>
      <trkpt lat="39.9048640" lon="-4.5382210">
        <ele>435.2</ele>
        <time>2019-07-08T12:03:30Z</time>
      </trkpt>
      <trkpt lat="39.9046880" lon="-4.5383200">
        <ele>434.0</ele>
        <time>2019-07-08T12:03:32Z</time>
      </trkpt>
      <trkpt lat="39.9045980" lon="-4.5383700">
        <ele>433.4</ele>
        <time>2019-07-08T12:03:33Z</time>
      </trkpt>
      <trkpt lat="39.9045060" lon="-4.5384190">
        <ele>432.8</ele>
        <time>2019-07-08T12:03:34Z</time>
      </trkpt>
      <trkpt lat="39.9043170" lon="-4.5385140">
        <ele>431.8</ele>
        <time>2019-07-08T12:03:36Z</time>
      </trkpt>
      <trkpt lat="39.9041260" lon="-4.5386110">
        <ele>430.6</ele>
        <time>2019-07-08T12:03:38Z</time>
      </trkpt>
      <trkpt lat="39.9039380" lon="-4.5387190">
        <ele>429.6</ele>
        <time>2019-07-08T12:03:40Z</time>
      </trkpt>
      <trkpt lat="39.9038450" lon="-4.5387720">
        <ele>429.4</ele>
        <time>2019-07-08T12:03:41Z</time>
      </trkpt>
      <trkpt lat="39.9035670" lon="-4.5389230">
        <ele>428.2</ele>
        <time>2019-07-08T12:03:44Z</time>
      </trkpt>
      <trkpt lat="39.9033000" lon="-4.5390680">
        <ele>427.8</ele>
        <time>2019-07-08T12:03:47Z</time>
      </trkpt>
      <trkpt lat="39.9028850" lon="-4.5392930">
        <ele>427.2</ele>
        <time>2019-07-08T12:03:52Z</time>
      </trkpt>
      <trkpt lat="39.9027300" lon="-4.5393800">
        <ele>427.0</ele>
        <time>2019-07-08T12:03:54Z</time>
      </trkpt>
      <trkpt lat="39.9022220" lon="-4.5396620">
        <ele>426.8</ele>
        <time>2019-07-08T12:04:01Z</time>
      </trkpt>
      <trkpt lat="39.9021540" lon="-4.5397020">
        <ele>426.6</ele>
        <time>2019-07-08T12:04:02Z</time>
      </trkpt>
      <trkpt lat="39.9020170" lon="-4.5397780">
        <ele>426.4</ele>
        <time>2019-07-08T12:04:04Z</time>
      </trkpt>
      <trkpt lat="39.9018810" lon="-4.5398510">
        <ele>426.4</ele>
        <time>2019-07-08T12:04:06Z</time>
      </trkpt>
      <trkpt lat="39.9016820" lon="-4.5399530">
        <ele>426.2</ele>
        <time>2019-07-08T12:04:09Z</time>
      </trkpt>
      <trkpt lat="39.9015510" lon="-4.5400270">
        <ele>426.2</ele>
        <time>2019-07-08T12:04:11Z</time>
      </trkpt>
      <trkpt lat="39.9013580" lon="-4.5401270">
        <ele>426.2</ele>
        <time>2019-07-08T12:04:14Z</time>
      </trkpt>
      <trkpt lat="39.9011780" lon="-4.5402260">
        <ele>426.0</ele>
        <time>2019-07-08T12:04:17Z</time>
      </trkpt>
      <trkpt lat="39.9011210" lon="-4.5402570">
        <ele>426.0</ele>
        <time>2019-07-08T12:04:18Z</time>
      </trkpt>
      <trkpt lat="39.9008360" lon="-4.5404130">
        <ele>426.0</ele>
        <time>2019-07-08T12:04:23Z</time>
      </trkpt>
      <trkpt lat="39.9007230" lon="-4.5404710">
        <ele>426.2</ele>
        <time>2019-07-08T12:04:25Z</time>
      </trkpt>
      <trkpt lat="39.9006080" lon="-4.5405290">
        <ele>426.6</ele>
        <time>2019-07-08T12:04:27Z</time>
      </trkpt>
      <trkpt lat="39.9002070" lon="-4.5407220">
        <ele>426.0</ele>
        <time>2019-07-08T12:04:34Z</time>
      </trkpt>
      <trkpt lat="39.8999740" lon="-4.5408230">
        <ele>426.2</ele>
        <time>2019-07-08T12:04:38Z</time>
      </trkpt>
      <trkpt lat="39.8994550" lon="-4.5410180">
        <ele>426.2</ele>
        <time>2019-07-08T12:04:47Z</time>
      </trkpt>
      <trkpt lat="39.8993960" lon="-4.5410370">
        <ele>426.0</ele>
        <time>2019-07-08T12:04:48Z</time>
      </trkpt>
      <trkpt lat="39.8989680" lon="-4.5411610">
        <ele>426.0</ele>
        <time>2019-07-08T12:04:55Z</time>
      </trkpt>
      <trkpt lat="39.8987790" lon="-4.5412030">
        <ele>426.0</ele>
        <time>2019-07-08T12:04:58Z</time>
      </trkpt>
      <trkpt lat="39.8982210" lon="-4.5412870">
        <ele>425.6</ele>
        <time>2019-07-08T12:05:07Z</time>
      </trkpt>
      <trkpt lat="39.8979210" lon="-4.5413100">
        <ele>425.6</ele>
        <time>2019-07-08T12:05:12Z</time>
      </trkpt>
      <trkpt lat="39.8976930" lon="-4.5413150">
        <ele>426.0</ele>
        <time>2019-07-08T12:05:16Z</time>
      </trkpt>
      <trkpt lat="39.8971270" lon="-4.5412730">
        <ele>425.8</ele>
        <time>2019-07-08T12:05:26Z</time>
      </trkpt>
      <trkpt lat="39.8969560" lon="-4.5412890">
        <ele>426.0</ele>
        <time>2019-07-08T12:05:29Z</time>
      </trkpt>
      <trkpt lat="39.8968510" lon="-4.5413470">
        <ele>426.0</ele>
        <time>2019-07-08T12:05:31Z</time>
      </trkpt>
      <trkpt lat="39.8967470" lon="-4.5415190">
        <ele>426.2</ele>
        <time>2019-07-08T12:05:34Z</time>
      </trkpt>
      <trkpt lat="39.8967260" lon="-4.5415870">
        <ele>426.2</ele>
        <time>2019-07-08T12:05:35Z</time>
      </trkpt>
      <trkpt lat="39.8965780" lon="-4.5419950">
        <ele>426.6</ele>
        <time>2019-07-08T12:05:41Z</time>
      </trkpt>
      <trkpt lat="39.8964180" lon="-4.5423060">
        <ele>427.4</ele>
        <time>2019-07-08T12:05:46Z</time>
      </trkpt>
      <trkpt lat="39.8963510" lon="-4.5424280">
        <ele>427.4</ele>
        <time>2019-07-08T12:05:48Z</time>
      </trkpt>
      <trkpt lat="39.8961230" lon="-4.5428420">
        <ele>427.2</ele>
        <time>2019-07-08T12:05:55Z</time>
      </trkpt>
      <trkpt lat="39.8959680" lon="-4.5431180">
        <ele>427.2</ele>
        <time>2019-07-08T12:06:00Z</time>
      </trkpt>
      <trkpt lat="39.8958750" lon="-4.5432760">
        <ele>427.2</ele>
        <time>2019-07-08T12:06:03Z</time>
      </trkpt>
      <trkpt lat="39.8956310" lon="-4.5437020">
        <ele>427.4</ele>
        <time>2019-07-08T12:06:11Z</time>
      </trkpt>
      <trkpt lat="39.8954890" lon="-4.5439540">
        <ele>428.0</ele>
        <time>2019-07-08T12:06:16Z</time>
      </trkpt>
      <trkpt lat="39.8953090" lon="-4.5442780">
        <ele>427.8</ele>
        <time>2019-07-08T12:06:22Z</time>
      </trkpt>
      <trkpt lat="39.8950940" lon="-4.5447010">
        <ele>427.4</ele>
        <time>2019-07-08T12:06:30Z</time>
      </trkpt>
      <trkpt lat="39.8950090" lon="-4.5448560">
        <ele>427.4</ele>
        <time>2019-07-08T12:06:33Z</time>
      </trkpt>
      <trkpt lat="39.8949250" lon="-4.5450090">
        <ele>427.4</ele>
        <time>2019-07-08T12:06:36Z</time>
      </trkpt>
      <trkpt lat="39.8947990" lon="-4.5452760">
        <ele>427.6</ele>
        <time>2019-07-08T12:06:42Z</time>
      </trkpt>
      <trkpt lat="39.8948700" lon="-4.5454360">
        <ele>427.6</ele>
        <time>2019-07-08T12:06:46Z</time>
      </trkpt>
      <trkpt lat="39.8948970" lon="-4.5454730">
        <ele>427.8</ele>
        <time>2019-07-08T12:06:47Z</time>
      </trkpt>
      <trkpt lat="39.8950250" lon="-4.5456680">
        <ele>428.2</ele>
        <time>2019-07-08T12:06:52Z</time>
      </trkpt>
      <trkpt lat="39.8950980" lon="-4.5457880">
        <ele>428.6</ele>
        <time>2019-07-08T12:06:55Z</time>
      </trkpt>
      <trkpt lat="39.8951940" lon="-4.5459510">
        <ele>428.8</ele>
        <time>2019-07-08T12:06:59Z</time>
      </trkpt>
      <trkpt lat="39.8952190" lon="-4.5459910">
        <ele>429.0</ele>
        <time>2019-07-08T12:07:00Z</time>
      </trkpt>
      <trkpt lat="39.8954130" lon="-4.5462980">
        <ele>429.2</ele>
        <time>2019-07-08T12:07:08Z</time>
      </trkpt>
      <trkpt lat="39.8954310" lon="-4.5463380">
        <ele>429.2</ele>
        <time>2019-07-08T12:07:09Z</time>
      </trkpt>
      <trkpt lat="39.8954490" lon="-4.5463750">
        <ele>429.6</ele>
        <time>2019-07-08T12:07:10Z</time>
      </trkpt>
      <trkpt lat="39.8955210" lon="-4.5464900">
        <ele>430.2</ele>
        <time>2019-07-08T12:07:14Z</time>
      </trkpt>
      <trkpt lat="39.8955670" lon="-4.5465890">
        <ele>430.6</ele>
        <time>2019-07-08T12:07:17Z</time>
      </trkpt>
      <trkpt lat="39.8955740" lon="-4.5466200">
        <ele>430.8</ele>
        <time>2019-07-08T12:07:18Z</time>
      </trkpt>
      <trkpt lat="39.8955640" lon="-4.5466440">
        <ele>430.6</ele>
        <time>2019-07-08T12:07:19Z</time>
      </trkpt>
      <trkpt lat="39.8954750" lon="-4.5467250">
        <ele>430.6</ele>
        <time>2019-07-08T12:07:23Z</time>
      </trkpt>
      <trkpt lat="39.8953280" lon="-4.5468100">
        <ele>430.2</ele>
        <time>2019-07-08T12:07:50Z</time>
      </trkpt>
      <trkpt lat="39.8953520" lon="-4.5467920">
        <ele>430.2</ele>
        <time>2019-07-08T12:07:51Z</time>
      </trkpt>
      <trkpt lat="39.8954240" lon="-4.5467290">
        <ele>430.2</ele>
        <time>2019-07-08T12:07:54Z</time>
      </trkpt>
      <trkpt lat="39.8954440" lon="-4.5467060">
        <ele>430.2</ele>
        <time>2019-07-08T12:07:55Z</time>
      </trkpt>
      <trkpt lat="39.8955000" lon="-4.5466410">
        <ele>430.4</ele>
        <time>2019-07-08T12:07:58Z</time>
      </trkpt>
      <trkpt lat="39.8955490" lon="-4.5466180">
        <ele>430.4</ele>
        <time>2019-07-08T12:08:00Z</time>
      </trkpt>
      <trkpt lat="39.8955760" lon="-4.5466320">
        <ele>430.6</ele>
        <time>2019-07-08T12:08:01Z</time>
      </trkpt>
      <trkpt lat="39.8956810" lon="-4.5467510">
        <ele>430.8</ele>
        <time>2019-07-08T12:08:05Z</time>
      </trkpt>
      <trkpt lat="39.8957130" lon="-4.5467910">
        <ele>430.8</ele>
        <time>2019-07-08T12:08:06Z</time>
      </trkpt>
      <trkpt lat="39.8958730" lon="-4.5469190">
        <ele>430.4</ele>
        <time>2019-07-08T12:08:10Z</time>
      </trkpt>
      <trkpt lat="39.8959160" lon="-4.5469510">
        <ele>430.2</ele>
        <time>2019-07-08T12:08:11Z</time>
      </trkpt>
      <trkpt lat="39.8960550" lon="-4.5470210">
        <ele>430.0</ele>
        <time>2019-07-08T12:08:14Z</time>
      </trkpt>
      <trkpt lat="39.8962910" lon="-4.5471540">
        <ele>429.6</ele>
        <time>2019-07-08T12:08:19Z</time>
      </trkpt>
      <trkpt lat="39.8963890" lon="-4.5472070">
        <ele>429.4</ele>
        <time>2019-07-08T12:08:21Z</time>
      </trkpt>
      <trkpt lat="39.8964330" lon="-4.5472350">
        <ele>429.2</ele>
        <time>2019-07-08T12:08:22Z</time>
      </trkpt>
      <trkpt lat="39.8965090" lon="-4.5473030">
        <ele>429.4</ele>
        <time>2019-07-08T12:08:24Z</time>
      </trkpt>
      <trkpt lat="39.8965640" lon="-4.5473670">
        <ele>429.4</ele>
        <time>2019-07-08T12:08:26Z</time>
      </trkpt>
      <trkpt lat="39.8966990" lon="-4.5474700">
        <ele>429.6</ele>
        <time>2019-07-08T12:08:31Z</time>
      </trkpt>
      <trkpt lat="39.8968600" lon="-4.5475960">
        <ele>430.2</ele>
        <time>2019-07-08T12:08:37Z</time>
      </trkpt>
      <trkpt lat="39.8968870" lon="-4.5476160">
        <ele>430.2</ele>
        <time>2019-07-08T12:08:38Z</time>
      </trkpt>
      <trkpt lat="39.8969980" lon="-4.5476900">
        <ele>430.2</ele>
        <time>2019-07-08T12:08:42Z</time>
      </trkpt>
      <trkpt lat="39.8970640" lon="-4.5477410">
        <ele>430.2</ele>
        <time>2019-07-08T12:08:45Z</time>
      </trkpt>
      <trkpt lat="39.8971060" lon="-4.5477740">
        <ele>430.2</ele>
        <time>2019-07-08T12:08:48Z</time>
      </trkpt>
      <trkpt lat="39.8971380" lon="-4.5477620">
        <ele>430.4</ele>
        <time>2019-07-08T12:08:50Z</time>
      </trkpt>
      <trkpt lat="39.8971860" lon="-4.5476230">
        <ele>430.6</ele>
        <time>2019-07-08T12:08:54Z</time>
      </trkpt>
      <trkpt lat="39.8972070" lon="-4.5474350">
        <ele>430.6</ele>
        <time>2019-07-08T12:08:59Z</time>
      </trkpt>
      <trkpt lat="39.8971980" lon="-4.5474080">
        <ele>430.6</ele>
        <time>2019-07-08T12:09:00Z</time>
      </trkpt>
      <trkpt lat="39.8971310" lon="-4.5473430">
        <ele>430.8</ele>
        <time>2019-07-08T12:09:05Z</time>
      </trkpt>
      <trkpt lat="39.8971260" lon="-4.5472930">
        <ele>430.8</ele>
        <time>2019-07-08T12:09:07Z</time>
      </trkpt>
      <trkpt lat="39.8971070" lon="-4.5472430">
        <ele>430.8</ele>
        <time>2019-07-08T12:09:09Z</time>
      </trkpt>
      <trkpt lat="39.8970930" lon="-4.5472190">
        <ele>430.8</ele>
        <time>2019-07-08T12:09:10Z</time>
      </trkpt>
      <trkpt lat="39.8970480" lon="-4.5471490">
        <ele>430.8</ele>
        <time>2019-07-08T12:09:13Z</time>
      </trkpt>
      <trkpt lat="39.8970450" lon="-4.5471200">
        <ele>430.8</ele>
        <time>2019-07-08T12:09:14Z</time>
      </trkpt>
      <trkpt lat="39.8970640" lon="-4.5470600">
        <ele>430.8</ele>
        <time>2019-07-08T12:09:16Z</time>
      </trkpt>
      <trkpt lat="39.8970990" lon="-4.5469990">
        <ele>430.8</ele>
        <time>2019-07-08T12:09:18Z</time>
      </trkpt>
      <trkpt lat="39.8971390" lon="-4.5469430">
        <ele>430.8</ele>
        <time>2019-07-08T12:09:20Z</time>
      </trkpt>
      <trkpt lat="39.8971780" lon="-4.5468880">
        <ele>430.8</ele>
        <time>2019-07-08T12:09:22Z</time>
      </trkpt>
      <trkpt lat="39.8972380" lon="-4.5468040">
        <ele>431.0</ele>
        <time>2019-07-08T12:09:25Z</time>
      </trkpt>
      <trkpt lat="39.8972950" lon="-4.5467250">
        <ele>431.0</ele>
        <time>2019-07-08T12:09:28Z</time>
      </trkpt>
      <trkpt lat="39.8973420" lon="-4.5466580">
        <ele>431.0</ele>
        <time>2019-07-08T12:09:31Z</time>
      </trkpt>
      <trkpt lat="39.8974340" lon="-4.5465770">
        <ele>431.0</ele>
        <time>2019-07-08T12:09:36Z</time>
      </trkpt>
      <trkpt lat="39.8974700" lon="-4.5465550">
        <ele>431.2</ele>
        <time>2019-07-08T12:09:39Z</time>
      </trkpt>
      <trkpt lat="39.8974770" lon="-4.5465660">
        <ele>431.2</ele>
        <time>2019-07-08T12:09:40Z</time>
      </trkpt>
      <trkpt lat="39.8974340" lon="-4.5466150">
        <ele>431.0</ele>
        <time>2019-07-08T12:09:44Z</time>
      </trkpt>
      <trkpt lat="39.8973570" lon="-4.5466510">
        <ele>430.8</ele>
        <time>2019-07-08T12:09:47Z</time>
      </trkpt>
      <trkpt lat="39.8973350" lon="-4.5466800">
        <ele>430.6</ele>
        <time>2019-07-08T12:09:48Z</time>
      </trkpt>
      <trkpt lat="39.8973140" lon="-4.5467120">
        <ele>430.6</ele>
        <time>2019-07-08T12:09:49Z</time>
      </trkpt>
      <trkpt lat="39.8971500" lon="-4.5469570">
        <ele>430.6</ele>
        <time>2019-07-08T12:09:56Z</time>
      </trkpt>
      <trkpt lat="39.8971210" lon="-4.5470840">
        <ele>430.6</ele>
        <time>2019-07-08T12:09:59Z</time>
      </trkpt>
      <trkpt lat="39.8971770" lon="-4.5473050">
        <ele>431.0</ele>
        <time>2019-07-08T12:10:04Z</time>
      </trkpt>
      <trkpt lat="39.8972500" lon="-4.5475650">
        <ele>431.0</ele>
        <time>2019-07-08T12:10:10Z</time>
      </trkpt>
      <trkpt lat="39.8972670" lon="-4.5476740">
        <ele>430.8</ele>
        <time>2019-07-08T12:10:12Z</time>
      </trkpt>
      <trkpt lat="39.8973070" lon="-4.5478200">
        <ele>430.6</ele>
        <time>2019-07-08T12:10:15Z</time>
      </trkpt>
      <trkpt lat="39.8972970" lon="-4.5479900">
        <ele>430.2</ele>
        <time>2019-07-08T12:10:19Z</time>
      </trkpt>
      <trkpt lat="39.8972870" lon="-4.5481760">
        <ele>430.4</ele>
        <time>2019-07-08T12:10:23Z</time>
      </trkpt>
      <trkpt lat="39.8972900" lon="-4.5482220">
        <ele>430.4</ele>
        <time>2019-07-08T12:10:24Z</time>
      </trkpt>
      <trkpt lat="39.8972870" lon="-4.5484010">
        <ele>430.6</ele>
        <time>2019-07-08T12:10:28Z</time>
      </trkpt>
      <trkpt lat="39.8972630" lon="-4.5485320">
        <ele>430.6</ele>
        <time>2019-07-08T12:10:31Z</time>
      </trkpt>
      <trkpt lat="39.8972370" lon="-4.5486580">
        <ele>430.8</ele>
        <time>2019-07-08T12:10:34Z</time>
      </trkpt>
      <trkpt lat="39.8972000" lon="-4.5488240">
        <ele>431.0</ele>
        <time>2019-07-08T12:10:38Z</time>
      </trkpt>
      <trkpt lat="39.8971600" lon="-4.5491020">
        <ele>430.8</ele>
        <time>2019-07-08T12:10:44Z</time>
      </trkpt>
      <trkpt lat="39.8971390" lon="-4.5492020">
        <ele>431.0</ele>
        <time>2019-07-08T12:10:46Z</time>
      </trkpt>
      <trkpt lat="39.8967300" lon="-4.5506090">
        <ele>430.2</ele>
        <time>2019-07-08T12:17:49Z</time>
      </trkpt>
      <trkpt lat="39.8966990" lon="-4.5507500">
        <ele>430.2</ele>
        <time>2019-07-08T12:17:52Z</time>
      </trkpt>
      <trkpt lat="39.8966910" lon="-4.5508000">
        <ele>430.2</ele>
        <time>2019-07-08T12:17:53Z</time>
      </trkpt>
      <trkpt lat="39.8966720" lon="-4.5510500">
        <ele>430.4</ele>
        <time>2019-07-08T12:17:59Z</time>
      </trkpt>
      <trkpt lat="39.8966440" lon="-4.5512500">
        <ele>430.4</ele>
        <time>2019-07-08T12:18:05Z</time>
      </trkpt>
      <trkpt lat="39.8966490" lon="-4.5514380">
        <ele>430.2</ele>
        <time>2019-07-08T12:18:10Z</time>
      </trkpt>
      <trkpt lat="39.8967150" lon="-4.5515020">
        <ele>430.2</ele>
        <time>2019-07-08T12:18:13Z</time>
      </trkpt>
      <trkpt lat="39.8967270" lon="-4.5515110">
        <ele>430.2</ele>
        <time>2019-07-08T12:18:14Z</time>
      </trkpt>
      <trkpt lat="39.8967270" lon="-4.5515130">
        <ele>430.4</ele>
        <time>2019-07-08T12:18:16Z</time>
      </trkpt>
      <trkpt lat="39.8967600" lon="-4.5515220">
        <ele>430.4</ele>
        <time>2019-07-08T12:18:43Z</time>
      </trkpt>
      <trkpt lat="39.8967790" lon="-4.5515250">
        <ele>430.4</ele>
        <time>2019-07-08T12:18:44Z</time>
      </trkpt>
      <trkpt lat="39.8968930" lon="-4.5515240">
        <ele>430.6</ele>
        <time>2019-07-08T12:18:49Z</time>
      </trkpt>
      <trkpt lat="39.8970230" lon="-4.5515360">
        <ele>430.4</ele>
        <time>2019-07-08T12:18:53Z</time>
      </trkpt>
      <trkpt lat="39.8971620" lon="-4.5515580">
        <ele>430.2</ele>
        <time>2019-07-08T12:18:57Z</time>
      </trkpt>
      <trkpt lat="39.8971950" lon="-4.5515630">
        <ele>430.4</ele>
        <time>2019-07-08T12:18:58Z</time>
      </trkpt>
      <trkpt lat="39.8973660" lon="-4.5515930">
        <ele>430.4</ele>
        <time>2019-07-08T12:19:03Z</time>
      </trkpt>
      <trkpt lat="39.8975620" lon="-4.5516360">
        <ele>430.2</ele>
        <time>2019-07-08T12:19:09Z</time>
      </trkpt>
      <trkpt lat="39.8977500" lon="-4.5516930">
        <ele>430.2</ele>
        <time>2019-07-08T12:19:14Z</time>
      </trkpt>
      <trkpt lat="39.8980640" lon="-4.5517080">
        <ele>430.2</ele>
        <time>2019-07-08T12:19:22Z</time>
      </trkpt>
      <trkpt lat="39.8982780" lon="-4.5516890">
        <ele>430.2</ele>
        <time>2019-07-08T12:19:28Z</time>
      </trkpt>
      <trkpt lat="39.8984510" lon="-4.5517340">
        <ele>430.0</ele>
        <time>2019-07-08T12:19:33Z</time>
      </trkpt>
      <trkpt lat="39.8986780" lon="-4.5518640">
        <ele>430.4</ele>
        <time>2019-07-08T12:19:39Z</time>
      </trkpt>
      <trkpt lat="39.8988900" lon="-4.5520050">
        <ele>430.6</ele>
        <time>2019-07-08T12:19:46Z</time>
      </trkpt>
      <trkpt lat="39.8989640" lon="-4.5520490">
        <ele>430.2</ele>
        <time>2019-07-08T12:19:49Z</time>
      </trkpt>
      <trkpt lat="39.8990510" lon="-4.5521130">
        <ele>430.2</ele>
        <time>2019-07-08T12:19:53Z</time>
      </trkpt>
      <trkpt lat="39.8991320" lon="-4.5521630">
        <ele>430.2</ele>
        <time>2019-07-08T12:19:57Z</time>
      </trkpt>
      <trkpt lat="39.8991950" lon="-4.5522050">
        <ele>430.4</ele>
        <time>2019-07-08T12:20:00Z</time>
      </trkpt>
      <trkpt lat="39.8993270" lon="-4.5523090">
        <ele>430.6</ele>
        <time>2019-07-08T12:20:05Z</time>
      </trkpt>
      <trkpt lat="39.8995170" lon="-4.5524360">
        <ele>430.4</ele>
        <time>2019-07-08T12:20:11Z</time>
      </trkpt>
      <trkpt lat="39.8995450" lon="-4.5524570">
        <ele>430.4</ele>
        <time>2019-07-08T12:20:12Z</time>
      </trkpt>
      <trkpt lat="39.8997490" lon="-4.5525970">
        <ele>430.2</ele>
        <time>2019-07-08T12:20:19Z</time>
      </trkpt>
      <trkpt lat="39.8999650" lon="-4.5527360">
        <ele>430.6</ele>
        <time>2019-07-08T12:20:26Z</time>
      </trkpt>
      <trkpt lat="39.9000990" lon="-4.5528310">
        <ele>430.4</ele>
        <time>2019-07-08T12:20:30Z</time>
      </trkpt>
      <trkpt lat="39.9002310" lon="-4.5529190">
        <ele>430.2</ele>
        <time>2019-07-08T12:20:34Z</time>
      </trkpt>
      <trkpt lat="39.9002810" lon="-4.5529180">
        <ele>430.2</ele>
        <time>2019-07-08T12:20:36Z</time>
      </trkpt>
      <trkpt lat="39.9003220" lon="-4.5528630">
        <ele>430.4</ele>
        <time>2019-07-08T12:20:38Z</time>
      </trkpt>
      <trkpt lat="39.9003750" lon="-4.5527390">
        <ele>430.4</ele>
        <time>2019-07-08T12:20:41Z</time>
      </trkpt>
      <trkpt lat="39.9004150" lon="-4.5526520">
        <ele>430.4</ele>
        <time>2019-07-08T12:20:43Z</time>
      </trkpt>
      <trkpt lat="39.9004580" lon="-4.5525650">
        <ele>430.2</ele>
        <time>2019-07-08T12:20:45Z</time>
      </trkpt>
      <trkpt lat="39.9006430" lon="-4.5522030">
        <ele>430.2</ele>
        <time>2019-07-08T12:20:53Z</time>
      </trkpt>
      <trkpt lat="39.9008180" lon="-4.5518770">
        <ele>430.6</ele>
        <time>2019-07-08T12:21:00Z</time>
      </trkpt>
      <trkpt lat="39.9008460" lon="-4.5518430">
        <ele>430.6</ele>
        <time>2019-07-08T12:21:01Z</time>
      </trkpt>
      <trkpt lat="39.9009650" lon="-4.5517810">
        <ele>430.4</ele>
        <time>2019-07-08T12:21:05Z</time>
      </trkpt>
      <trkpt lat="39.9010950" lon="-4.5518620">
        <ele>430.4</ele>
        <time>2019-07-08T12:21:09Z</time>
      </trkpt>
      <trkpt lat="39.9012160" lon="-4.5520290">
        <ele>430.6</ele>
        <time>2019-07-08T12:21:13Z</time>
      </trkpt>
      <trkpt lat="39.9013090" lon="-4.5521500">
        <ele>430.6</ele>
        <time>2019-07-08T12:21:16Z</time>
      </trkpt>
      <trkpt lat="39.9014450" lon="-4.5523500">
        <ele>430.2</ele>
        <time>2019-07-08T12:21:21Z</time>
      </trkpt>
      <trkpt lat="39.9014750" lon="-4.5523940">
        <ele>430.2</ele>
        <time>2019-07-08T12:21:22Z</time>
      </trkpt>
      <trkpt lat="39.9017160" lon="-4.5527420">
        <ele>430.0</ele>
        <time>2019-07-08T12:21:30Z</time>
      </trkpt>
      <trkpt lat="39.9019900" lon="-4.5531290">
        <ele>430.6</ele>
        <time>2019-07-08T12:21:39Z</time>
      </trkpt>
      <trkpt lat="39.9020210" lon="-4.5531760">
        <ele>430.6</ele>
        <time>2019-07-08T12:21:40Z</time>
      </trkpt>
      <trkpt lat="39.9022160" lon="-4.5534600">
        <ele>430.6</ele>
        <time>2019-07-08T12:21:46Z</time>
      </trkpt>
      <trkpt lat="39.9023190" lon="-4.5536060">
        <ele>430.4</ele>
        <time>2019-07-08T12:21:49Z</time>
      </trkpt>
      <trkpt lat="39.9026670" lon="-4.5541010">
        <ele>430.2</ele>
        <time>2019-07-08T12:21:59Z</time>
      </trkpt>
      <trkpt lat="39.9029400" lon="-4.5545050">
        <ele>429.6</ele>
        <time>2019-07-08T12:22:07Z</time>
      </trkpt>
      <trkpt lat="39.9030430" lon="-4.5546510">
        <ele>429.6</ele>
        <time>2019-07-08T12:22:10Z</time>
      </trkpt>
      <trkpt lat="39.9032430" lon="-4.5549250">
        <ele>429.0</ele>
        <time>2019-07-08T12:22:16Z</time>
      </trkpt>
      <trkpt lat="39.9033090" lon="-4.5550200">
        <ele>428.8</ele>
        <time>2019-07-08T12:22:18Z</time>
      </trkpt>
      <trkpt lat="39.9034240" lon="-4.5551410">
        <ele>428.8</ele>
        <time>2019-07-08T12:22:21Z</time>
      </trkpt>
      <trkpt lat="39.9034660" lon="-4.5551740">
        <ele>428.6</ele>
        <time>2019-07-08T12:22:22Z</time>
      </trkpt>
      <trkpt lat="39.9036400" lon="-4.5552950">
        <ele>428.8</ele>
        <time>2019-07-08T12:22:26Z</time>
      </trkpt>
      <trkpt lat="39.9037070" lon="-4.5553960">
        <ele>428.8</ele>
        <time>2019-07-08T12:22:28Z</time>
      </trkpt>
      <trkpt lat="39.9037460" lon="-4.5555250">
        <ele>428.8</ele>
        <time>2019-07-08T12:22:30Z</time>
      </trkpt>
      <trkpt lat="39.9038110" lon="-4.5557120">
        <ele>428.6</ele>
        <time>2019-07-08T12:22:33Z</time>
      </trkpt>
      <trkpt lat="39.9038420" lon="-4.5557670">
        <ele>428.8</ele>
        <time>2019-07-08T12:22:34Z</time>
      </trkpt>
      <trkpt lat="39.9039810" lon="-4.5559700">
        <ele>429.0</ele>
        <time>2019-07-08T12:22:38Z</time>
      </trkpt>
      <trkpt lat="39.9042780" lon="-4.5563590">
        <ele>429.0</ele>
        <time>2019-07-08T12:22:46Z</time>
      </trkpt>
      <trkpt lat="39.9046810" lon="-4.5568910">
        <ele>429.0</ele>
        <time>2019-07-08T12:22:57Z</time>
      </trkpt>
      <trkpt lat="39.9049050" lon="-4.5571980">
        <ele>429.2</ele>
        <time>2019-07-08T12:23:03Z</time>
      </trkpt>
      <trkpt lat="39.9050520" lon="-4.5573970">
        <ele>429.2</ele>
        <time>2019-07-08T12:23:07Z</time>
      </trkpt>
      <trkpt lat="39.9054070" lon="-4.5578800">
        <ele>429.2</ele>
        <time>2019-07-08T12:23:17Z</time>
      </trkpt>
      <trkpt lat="39.9057990" lon="-4.5584010">
        <ele>429.0</ele>
        <time>2019-07-08T12:23:28Z</time>
      </trkpt>
      <trkpt lat="39.9060460" lon="-4.5587250">
        <ele>429.2</ele>
        <time>2019-07-08T12:23:35Z</time>
      </trkpt>
      <trkpt lat="39.9061450" lon="-4.5588550">
        <ele>429.4</ele>
        <time>2019-07-08T12:23:38Z</time>
      </trkpt>
      <trkpt lat="39.9064240" lon="-4.5592440">
        <ele>429.6</ele>
        <time>2019-07-08T12:23:46Z</time>
      </trkpt>
      <trkpt lat="39.9067550" lon="-4.5596800">
        <ele>429.8</ele>
        <time>2019-07-08T12:23:55Z</time>
      </trkpt>
      <trkpt lat="39.9070800" lon="-4.5601020">
        <ele>428.8</ele>
        <time>2019-07-08T12:24:04Z</time>
      </trkpt>
      <trkpt lat="39.9071140" lon="-4.5601490">
        <ele>428.8</ele>
        <time>2019-07-08T12:24:05Z</time>
      </trkpt>
      <trkpt lat="39.9074610" lon="-4.5606250">
        <ele>428.4</ele>
        <time>2019-07-08T12:24:15Z</time>
      </trkpt>
      <trkpt lat="39.9075650" lon="-4.5607660">
        <ele>428.4</ele>
        <time>2019-07-08T12:24:18Z</time>
      </trkpt>
      <trkpt lat="39.9077060" lon="-4.5609580">
        <ele>428.6</ele>
        <time>2019-07-08T12:24:22Z</time>
      </trkpt>
      <trkpt lat="39.9080730" lon="-4.5614470">
        <ele>429.2</ele>
        <time>2019-07-08T12:24:32Z</time>
      </trkpt>
      <trkpt lat="39.9083500" lon="-4.5618370">
        <ele>429.0</ele>
        <time>2019-07-08T12:24:40Z</time>
      </trkpt>
      <trkpt lat="39.9086130" lon="-4.5621770">
        <ele>428.6</ele>
        <time>2019-07-08T12:24:47Z</time>
      </trkpt>
      <trkpt lat="39.9086890" lon="-4.5622800">
        <ele>428.6</ele>
        <time>2019-07-08T12:24:49Z</time>
      </trkpt>
      <trkpt lat="39.9090760" lon="-4.5628150">
        <ele>428.4</ele>
        <time>2019-07-08T12:24:59Z</time>
      </trkpt>
      <trkpt lat="39.9091160" lon="-4.5628710">
        <ele>428.4</ele>
        <time>2019-07-08T12:25:00Z</time>
      </trkpt>
      <trkpt lat="39.9094490" lon="-4.5633100">
        <ele>428.8</ele>
        <time>2019-07-08T12:25:08Z</time>
      </trkpt>
      <trkpt lat="39.9097010" lon="-4.5636430">
        <ele>428.6</ele>
        <time>2019-07-08T12:25:14Z</time>
      </trkpt>
      <trkpt lat="39.9098670" lon="-4.5638730">
        <ele>428.8</ele>
        <time>2019-07-08T12:25:18Z</time>
      </trkpt>
      <trkpt lat="39.9101870" lon="-4.5642930">
        <ele>428.2</ele>
        <time>2019-07-08T12:25:25Z</time>
      </trkpt>
      <trkpt lat="39.9102340" lon="-4.5643560">
        <ele>428.0</ele>
        <time>2019-07-08T12:25:26Z</time>
      </trkpt>
      <trkpt lat="39.9105630" lon="-4.5647940">
        <ele>427.2</ele>
        <time>2019-07-08T12:25:33Z</time>
      </trkpt>
      <trkpt lat="39.9107490" lon="-4.5650410">
        <ele>426.8</ele>
        <time>2019-07-08T12:25:37Z</time>
      </trkpt>
      <trkpt lat="39.9111000" lon="-4.5655240">
        <ele>426.4</ele>
        <time>2019-07-08T12:25:45Z</time>
      </trkpt>
      <trkpt lat="39.9111440" lon="-4.5655860">
        <ele>426.6</ele>
        <time>2019-07-08T12:25:46Z</time>
      </trkpt>
      <trkpt lat="39.9115140" lon="-4.5660890">
        <ele>426.8</ele>
        <time>2019-07-08T12:25:54Z</time>
      </trkpt>
      <trkpt lat="39.9118580" lon="-4.5665390">
        <ele>426.6</ele>
        <time>2019-07-08T12:26:01Z</time>
      </trkpt>
      <trkpt lat="39.9120020" lon="-4.5667270">
        <ele>426.8</ele>
        <time>2019-07-08T12:26:04Z</time>
      </trkpt>
      <trkpt lat="39.9120960" lon="-4.5668500">
        <ele>426.4</ele>
        <time>2019-07-08T12:26:06Z</time>
      </trkpt>
      <trkpt lat="39.9124130" lon="-4.5672760">
        <ele>426.4</ele>
        <time>2019-07-08T12:26:13Z</time>
      </trkpt>
      <trkpt lat="39.9128130" lon="-4.5678280">
        <ele>426.8</ele>
        <time>2019-07-08T12:26:22Z</time>
      </trkpt>
      <trkpt lat="39.9131550" lon="-4.5683290">
        <ele>426.6</ele>
        <time>2019-07-08T12:26:30Z</time>
      </trkpt>
      <trkpt lat="39.9134860" lon="-4.5689250">
        <ele>426.6</ele>
        <time>2019-07-08T12:26:39Z</time>
      </trkpt>
      <trkpt lat="39.9135180" lon="-4.5689930">
        <ele>426.6</ele>
        <time>2019-07-08T12:26:40Z</time>
      </trkpt>
      <trkpt lat="39.9137400" lon="-4.5695440">
        <ele>426.8</ele>
        <time>2019-07-08T12:26:48Z</time>
      </trkpt>
      <trkpt lat="39.9139600" lon="-4.5701760">
        <ele>427.2</ele>
        <time>2019-07-08T12:26:57Z</time>
      </trkpt>
      <trkpt lat="39.9141650" lon="-4.5707580">
        <ele>426.6</ele>
        <time>2019-07-08T12:27:06Z</time>
      </trkpt>
      <trkpt lat="39.9143520" lon="-4.5712640">
        <ele>426.4</ele>
        <time>2019-07-08T12:27:14Z</time>
      </trkpt>
      <trkpt lat="39.9145420" lon="-4.5718020">
        <ele>426.8</ele>
        <time>2019-07-08T12:27:22Z</time>
      </trkpt>
      <trkpt lat="39.9147350" lon="-4.5723450">
        <ele>427.0</ele>
        <time>2019-07-08T12:27:30Z</time>
      </trkpt>
      <trkpt lat="39.9148870" lon="-4.5727620">
        <ele>427.4</ele>
        <time>2019-07-08T12:27:36Z</time>
      </trkpt>
      <trkpt lat="39.9149590" lon="-4.5729710">
        <ele>427.4</ele>
        <time>2019-07-08T12:27:39Z</time>
      </trkpt>
      <trkpt lat="39.9151510" lon="-4.5735230">
        <ele>427.0</ele>
        <time>2019-07-08T12:27:47Z</time>
      </trkpt>
      <trkpt lat="39.9154030" lon="-4.5742130">
        <ele>427.0</ele>
        <time>2019-07-08T12:27:57Z</time>
      </trkpt>
      <trkpt lat="39.9154280" lon="-4.5742820">
        <ele>427.0</ele>
        <time>2019-07-08T12:27:58Z</time>
      </trkpt>
      <trkpt lat="39.9156770" lon="-4.5749850">
        <ele>426.4</ele>
        <time>2019-07-08T12:28:08Z</time>
      </trkpt>
      <trkpt lat="39.9157020" lon="-4.5750570">
        <ele>426.4</ele>
        <time>2019-07-08T12:28:09Z</time>
      </trkpt>
      <trkpt lat="39.9158040" lon="-4.5753420">
        <ele>426.2</ele>
        <time>2019-07-08T12:28:13Z</time>
      </trkpt>
      <trkpt lat="39.9159060" lon="-4.5756300">
        <ele>426.0</ele>
        <time>2019-07-08T12:28:17Z</time>
      </trkpt>
      <trkpt lat="39.9159310" lon="-4.5757030">
        <ele>425.8</ele>
        <time>2019-07-08T12:28:18Z</time>
      </trkpt>
      <trkpt lat="39.9160590" lon="-4.5760640">
        <ele>425.8</ele>
        <time>2019-07-08T12:28:23Z</time>
      </trkpt>
      <trkpt lat="39.9161630" lon="-4.5763550">
        <ele>425.4</ele>
        <time>2019-07-08T12:28:27Z</time>
      </trkpt>
      <trkpt lat="39.9164000" lon="-4.5770320">
        <ele>424.8</ele>
        <time>2019-07-08T12:28:36Z</time>
      </trkpt>
      <trkpt lat="39.9165080" lon="-4.5773400">
        <ele>424.6</ele>
        <time>2019-07-08T12:28:40Z</time>
      </trkpt>
      <trkpt lat="39.9166180" lon="-4.5776460">
        <ele>424.2</ele>
        <time>2019-07-08T12:28:44Z</time>
      </trkpt>
      <trkpt lat="39.9166450" lon="-4.5777210">
        <ele>424.2</ele>
        <time>2019-07-08T12:28:45Z</time>
      </trkpt>
      <trkpt lat="39.9168820" lon="-4.5783900">
        <ele>423.6</ele>
        <time>2019-07-08T12:28:54Z</time>
      </trkpt>
      <trkpt lat="39.9169080" lon="-4.5784630">
        <ele>423.6</ele>
        <time>2019-07-08T12:28:55Z</time>
      </trkpt>
      <trkpt lat="39.9171450" lon="-4.5791400">
        <ele>423.4</ele>
        <time>2019-07-08T12:29:04Z</time>
      </trkpt>
      <trkpt lat="39.9171970" lon="-4.5792920">
        <ele>423.4</ele>
        <time>2019-07-08T12:29:06Z</time>
      </trkpt>
      <trkpt lat="39.9173100" lon="-4.5795910">
        <ele>423.6</ele>
        <time>2019-07-08T12:29:10Z</time>
      </trkpt>
      <trkpt lat="39.9174390" lon="-4.5799650">
        <ele>423.8</ele>
        <time>2019-07-08T12:29:15Z</time>
      </trkpt>
      <trkpt lat="39.9176630" lon="-4.5806060">
        <ele>423.8</ele>
        <time>2019-07-08T12:29:24Z</time>
      </trkpt>
      <trkpt lat="39.9177110" lon="-4.5807460">
        <ele>423.6</ele>
        <time>2019-07-08T12:29:26Z</time>
      </trkpt>
      <trkpt lat="39.9178820" lon="-4.5812320">
        <ele>423.6</ele>
        <time>2019-07-08T12:29:33Z</time>
      </trkpt>
      <trkpt lat="39.9180270" lon="-4.5816500">
        <ele>424.0</ele>
        <time>2019-07-08T12:29:39Z</time>
      </trkpt>
      <trkpt lat="39.9182320" lon="-4.5821970">
        <ele>424.0</ele>
        <time>2019-07-08T12:29:47Z</time>
      </trkpt>
      <trkpt lat="39.9182600" lon="-4.5822640">
        <ele>424.0</ele>
        <time>2019-07-08T12:29:48Z</time>
      </trkpt>
      <trkpt lat="39.9184460" lon="-4.5827850">
        <ele>424.8</ele>
        <time>2019-07-08T12:29:56Z</time>
      </trkpt>
      <trkpt lat="39.9186260" lon="-4.5832770">
        <ele>425.2</ele>
        <time>2019-07-08T12:30:04Z</time>
      </trkpt>
      <trkpt lat="39.9187950" lon="-4.5837510">
        <ele>426.0</ele>
        <time>2019-07-08T12:30:12Z</time>
      </trkpt>
      <trkpt lat="39.9188170" lon="-4.5838120">
        <ele>426.2</ele>
        <time>2019-07-08T12:30:13Z</time>
      </trkpt>
      <trkpt lat="39.9189480" lon="-4.5841810">
        <ele>427.0</ele>
        <time>2019-07-08T12:30:19Z</time>
      </trkpt>
      <trkpt lat="39.9189910" lon="-4.5843040">
        <ele>427.2</ele>
        <time>2019-07-08T12:30:21Z</time>
      </trkpt>
      <trkpt lat="39.9192040" lon="-4.5849130">
        <ele>427.4</ele>
        <time>2019-07-08T12:30:31Z</time>
      </trkpt>
      <trkpt lat="39.9194180" lon="-4.5855160">
        <ele>427.8</ele>
        <time>2019-07-08T12:30:41Z</time>
      </trkpt>
      <trkpt lat="39.9195480" lon="-4.5858760">
        <ele>428.2</ele>
        <time>2019-07-08T12:30:47Z</time>
      </trkpt>
      <trkpt lat="39.9196330" lon="-4.5861100">
        <ele>428.6</ele>
        <time>2019-07-08T12:30:51Z</time>
      </trkpt>
      <trkpt lat="39.9197310" lon="-4.5863950">
        <ele>429.2</ele>
        <time>2019-07-08T12:30:56Z</time>
      </trkpt>
      <trkpt lat="39.9198570" lon="-4.5867410">
        <ele>428.8</ele>
        <time>2019-07-08T12:31:02Z</time>
      </trkpt>
      <trkpt lat="39.9201040" lon="-4.5874320">
        <ele>429.6</ele>
        <time>2019-07-08T12:31:14Z</time>
      </trkpt>
      <trkpt lat="39.9201230" lon="-4.5874890">
        <ele>429.8</ele>
        <time>2019-07-08T12:31:15Z</time>
      </trkpt>
      <trkpt lat="39.9201600" lon="-4.5876030">
        <ele>430.0</ele>
        <time>2019-07-08T12:31:17Z</time>
      </trkpt>
      <trkpt lat="39.9202830" lon="-4.5879370">
        <ele>430.0</ele>
        <time>2019-07-08T12:31:23Z</time>
      </trkpt>
      <trkpt lat="39.9203490" lon="-4.5881490">
        <ele>430.2</ele>
        <time>2019-07-08T12:31:27Z</time>
      </trkpt>
      <trkpt lat="39.9203980" lon="-4.5882950">
        <ele>430.6</ele>
        <time>2019-07-08T12:31:30Z</time>
      </trkpt>
      <trkpt lat="39.9204870" lon="-4.5885380">
        <ele>431.4</ele>
        <time>2019-07-08T12:31:35Z</time>
      </trkpt>
      <trkpt lat="39.9205550" lon="-4.5887190">
        <ele>432.0</ele>
        <time>2019-07-08T12:31:39Z</time>
      </trkpt>
      <trkpt lat="39.9205860" lon="-4.5888080">
        <ele>432.4</ele>
        <time>2019-07-08T12:31:41Z</time>
      </trkpt>
      <trkpt lat="39.9206740" lon="-4.5890700">
        <ele>433.8</ele>
        <time>2019-07-08T12:31:47Z</time>
      </trkpt>
      <trkpt lat="39.9206900" lon="-4.5891110">
        <ele>434.0</ele>
        <time>2019-07-08T12:31:48Z</time>
      </trkpt>
      <trkpt lat="39.9207530" lon="-4.5892810">
        <ele>434.8</ele>
        <time>2019-07-08T12:31:52Z</time>
      </trkpt>
      <trkpt lat="39.9207930" lon="-4.5893960">
        <ele>435.6</ele>
        <time>2019-07-08T12:31:55Z</time>
      </trkpt>
      <trkpt lat="39.9208060" lon="-4.5894340">
        <ele>436.0</ele>
        <time>2019-07-08T12:31:56Z</time>
      </trkpt>
      <trkpt lat="39.9208610" lon="-4.5896050">
        <ele>436.8</ele>
        <time>2019-07-08T12:32:00Z</time>
      </trkpt>
      <trkpt lat="39.9208780" lon="-4.5896480">
        <ele>437.2</ele>
        <time>2019-07-08T12:32:01Z</time>
      </trkpt>
      <trkpt lat="39.9208960" lon="-4.5896930">
        <ele>437.6</ele>
        <time>2019-07-08T12:32:02Z</time>
      </trkpt>
      <trkpt lat="39.9209470" lon="-4.5898310">
        <ele>438.2</ele>
        <time>2019-07-08T12:32:05Z</time>
      </trkpt>
      <trkpt lat="39.9210140" lon="-4.5900230">
        <ele>439.4</ele>
        <time>2019-07-08T12:32:09Z</time>
      </trkpt>
      <trkpt lat="39.9210330" lon="-4.5900710">
        <ele>439.6</ele>
        <time>2019-07-08T12:32:10Z</time>
      </trkpt>
      <trkpt lat="39.9210900" lon="-4.5902210">
        <ele>440.4</ele>
        <time>2019-07-08T12:32:13Z</time>
      </trkpt>
      <trkpt lat="39.9211710" lon="-4.5904680">
        <ele>441.6</ele>
        <time>2019-07-08T12:32:18Z</time>
      </trkpt>
      <trkpt lat="39.9212040" lon="-4.5905630">
        <ele>442.0</ele>
        <time>2019-07-08T12:32:20Z</time>
      </trkpt>
      <trkpt lat="39.9212640" lon="-4.5907310">
        <ele>443.0</ele>
        <time>2019-07-08T12:32:24Z</time>
      </trkpt>
      <trkpt lat="39.9213230" lon="-4.5909050">
        <ele>443.6</ele>
        <time>2019-07-08T12:32:28Z</time>
      </trkpt>
      <trkpt lat="39.9213650" lon="-4.5910380">
        <ele>444.0</ele>
        <time>2019-07-08T12:32:31Z</time>
      </trkpt>
      <trkpt lat="39.9214390" lon="-4.5912670">
        <ele>444.6</ele>
        <time>2019-07-08T12:32:36Z</time>
      </trkpt>
      <trkpt lat="39.9214820" lon="-4.5914170">
        <ele>445.2</ele>
        <time>2019-07-08T12:32:39Z</time>
      </trkpt>
      <trkpt lat="39.9215660" lon="-4.5917480">
        <ele>446.0</ele>
        <time>2019-07-08T12:32:45Z</time>
      </trkpt>
      <trkpt lat="39.9216590" lon="-4.5922360">
        <ele>446.2</ele>
        <time>2019-07-08T12:32:53Z</time>
      </trkpt>
      <trkpt lat="39.9216900" lon="-4.5924330">
        <ele>446.2</ele>
        <time>2019-07-08T12:32:56Z</time>
      </trkpt>
      <trkpt lat="39.9217340" lon="-4.5928320">
        <ele>446.6</ele>
        <time>2019-07-08T12:33:02Z</time>
      </trkpt>
      <trkpt lat="39.9217520" lon="-4.5931030">
        <ele>447.2</ele>
        <time>2019-07-08T12:33:06Z</time>
      </trkpt>
      <trkpt lat="39.9217540" lon="-4.5931720">
        <ele>447.2</ele>
        <time>2019-07-08T12:33:07Z</time>
      </trkpt>
      <trkpt lat="39.9217560" lon="-4.5935230">
        <ele>447.2</ele>
        <time>2019-07-08T12:33:12Z</time>
      </trkpt>
      <trkpt lat="39.9217470" lon="-4.5938120">
        <ele>447.4</ele>
        <time>2019-07-08T12:33:16Z</time>
      </trkpt>
      <trkpt lat="39.9217240" lon="-4.5942340">
        <ele>447.8</ele>
        <time>2019-07-08T12:33:22Z</time>
      </trkpt>
      <trkpt lat="39.9216400" lon="-4.5947930">
        <ele>448.2</ele>
        <time>2019-07-08T12:33:30Z</time>
      </trkpt>
      <trkpt lat="39.9216270" lon="-4.5948620">
        <ele>448.4</ele>
        <time>2019-07-08T12:33:31Z</time>
      </trkpt>
      <trkpt lat="39.9215150" lon="-4.5954090">
        <ele>449.4</ele>
        <time>2019-07-08T12:33:39Z</time>
      </trkpt>
      <trkpt lat="39.9213750" lon="-4.5960190">
        <ele>450.0</ele>
        <time>2019-07-08T12:33:48Z</time>
      </trkpt>
      <trkpt lat="39.9213010" lon="-4.5963710">
        <ele>450.2</ele>
        <time>2019-07-08T12:33:53Z</time>
      </trkpt>
      <trkpt lat="39.9212690" lon="-4.5965140">
        <ele>450.0</ele>
        <time>2019-07-08T12:33:55Z</time>
      </trkpt>
      <trkpt lat="39.9211410" lon="-4.5970880">
        <ele>450.2</ele>
        <time>2019-07-08T12:34:03Z</time>
      </trkpt>
      <trkpt lat="39.9211050" lon="-4.5972380">
        <ele>450.2</ele>
        <time>2019-07-08T12:34:05Z</time>
      </trkpt>
      <trkpt lat="39.9210320" lon="-4.5975370">
        <ele>450.2</ele>
        <time>2019-07-08T12:34:09Z</time>
      </trkpt>
      <trkpt lat="39.9210560" lon="-4.5978440">
        <ele>449.8</ele>
        <time>2019-07-08T12:34:13Z</time>
      </trkpt>
      <trkpt lat="39.9211640" lon="-4.5984580">
        <ele>450.0</ele>
        <time>2019-07-08T12:34:21Z</time>
      </trkpt>
      <trkpt lat="39.9212860" lon="-4.5991270">
        <ele>450.0</ele>
        <time>2019-07-08T12:34:30Z</time>
      </trkpt>
      <trkpt lat="39.9213470" lon="-4.5994970">
        <ele>450.2</ele>
        <time>2019-07-08T12:34:35Z</time>
      </trkpt>
      <trkpt lat="39.9213510" lon="-4.5995720">
        <ele>450.2</ele>
        <time>2019-07-08T12:34:36Z</time>
      </trkpt>
      <trkpt lat="39.9212970" lon="-4.5998680">
        <ele>450.2</ele>
        <time>2019-07-08T12:34:40Z</time>
      </trkpt>
      <trkpt lat="39.9211280" lon="-4.6003430">
        <ele>450.2</ele>
        <time>2019-07-08T12:34:47Z</time>
      </trkpt>
      <trkpt lat="39.9209600" lon="-4.6008170">
        <ele>450.4</ele>
        <time>2019-07-08T12:34:54Z</time>
      </trkpt>
      <trkpt lat="39.9209370" lon="-4.6008820">
        <ele>450.4</ele>
        <time>2019-07-08T12:34:55Z</time>
      </trkpt>
      <trkpt lat="39.9207990" lon="-4.6012560">
        <ele>450.6</ele>
        <time>2019-07-08T12:35:01Z</time>
      </trkpt>
      <trkpt lat="39.9206880" lon="-4.6015770">
        <ele>451.2</ele>
        <time>2019-07-08T12:35:06Z</time>
      </trkpt>
      <trkpt lat="39.9205760" lon="-4.6018950">
        <ele>451.2</ele>
        <time>2019-07-08T12:35:11Z</time>
      </trkpt>
      <trkpt lat="39.9204590" lon="-4.6022190">
        <ele>451.4</ele>
        <time>2019-07-08T12:35:16Z</time>
      </trkpt>
      <trkpt lat="39.9204140" lon="-4.6023460">
        <ele>451.6</ele>
        <time>2019-07-08T12:35:18Z</time>
      </trkpt>
      <trkpt lat="39.9203270" lon="-4.6026000">
        <ele>452.0</ele>
        <time>2019-07-08T12:35:22Z</time>
      </trkpt>
      <trkpt lat="39.9202390" lon="-4.6028450">
        <ele>452.4</ele>
        <time>2019-07-08T12:35:26Z</time>
      </trkpt>
      <trkpt lat="39.9202180" lon="-4.6029070">
        <ele>452.4</ele>
        <time>2019-07-08T12:35:27Z</time>
      </trkpt>
      <trkpt lat="39.9201960" lon="-4.6029690">
        <ele>452.6</ele>
        <time>2019-07-08T12:35:28Z</time>
      </trkpt>
      <trkpt lat="39.9200840" lon="-4.6032630">
        <ele>453.2</ele>
        <time>2019-07-08T12:35:33Z</time>
      </trkpt>
      <trkpt lat="39.9200270" lon="-4.6034380">
        <ele>453.6</ele>
        <time>2019-07-08T12:35:36Z</time>
      </trkpt>
      <trkpt lat="39.9200080" lon="-4.6034950">
        <ele>453.6</ele>
        <time>2019-07-08T12:35:37Z</time>
      </trkpt>
      <trkpt lat="39.9199330" lon="-4.6037180">
        <ele>454.0</ele>
        <time>2019-07-08T12:35:41Z</time>
      </trkpt>
      <trkpt lat="39.9198530" lon="-4.6039370">
        <ele>454.6</ele>
        <time>2019-07-08T12:35:45Z</time>
      </trkpt>
      <trkpt lat="39.9198340" lon="-4.6039930">
        <ele>454.6</ele>
        <time>2019-07-08T12:35:46Z</time>
      </trkpt>
      <trkpt lat="39.9197300" lon="-4.6042810">
        <ele>455.4</ele>
        <time>2019-07-08T12:35:51Z</time>
      </trkpt>
      <trkpt lat="39.9196880" lon="-4.6043970">
        <ele>455.8</ele>
        <time>2019-07-08T12:35:53Z</time>
      </trkpt>
      <trkpt lat="39.9196450" lon="-4.6045140">
        <ele>456.2</ele>
        <time>2019-07-08T12:35:55Z</time>
      </trkpt>
      <trkpt lat="39.9195700" lon="-4.6046900">
        <ele>456.8</ele>
        <time>2019-07-08T12:35:58Z</time>
      </trkpt>
      <trkpt lat="39.9195440" lon="-4.6047460">
        <ele>457.0</ele>
        <time>2019-07-08T12:35:59Z</time>
      </trkpt>
      <trkpt lat="39.9195070" lon="-4.6048730">
        <ele>457.4</ele>
        <time>2019-07-08T12:36:01Z</time>
      </trkpt>
      <trkpt lat="39.9194870" lon="-4.6049390">
        <ele>457.4</ele>
        <time>2019-07-08T12:36:02Z</time>
      </trkpt>
      <trkpt lat="39.9193970" lon="-4.6051940">
        <ele>458.0</ele>
        <time>2019-07-08T12:36:06Z</time>
      </trkpt>
      <trkpt lat="39.9193780" lon="-4.6052560">
        <ele>458.2</ele>
        <time>2019-07-08T12:36:07Z</time>
      </trkpt>
      <trkpt lat="39.9192290" lon="-4.6056730">
        <ele>459.2</ele>
        <time>2019-07-08T12:36:14Z</time>
      </trkpt>
      <trkpt lat="39.9191230" lon="-4.6059580">
        <ele>460.2</ele>
        <time>2019-07-08T12:36:19Z</time>
      </trkpt>
      <trkpt lat="39.9190450" lon="-4.6061800">
        <ele>460.6</ele>
        <time>2019-07-08T12:36:23Z</time>
      </trkpt>
      <trkpt lat="39.9188960" lon="-4.6065780">
        <ele>461.4</ele>
        <time>2019-07-08T12:36:30Z</time>
      </trkpt>
      <trkpt lat="39.9188550" lon="-4.6066930">
        <ele>461.8</ele>
        <time>2019-07-08T12:36:32Z</time>
      </trkpt>
      <trkpt lat="39.9186650" lon="-4.6071480">
        <ele>462.4</ele>
        <time>2019-07-08T12:36:40Z</time>
      </trkpt>
      <trkpt lat="39.9186390" lon="-4.6072050">
        <ele>462.4</ele>
        <time>2019-07-08T12:36:41Z</time>
      </trkpt>
      <trkpt lat="39.9185210" lon="-4.6074290">
        <ele>462.8</ele>
        <time>2019-07-08T12:36:45Z</time>
      </trkpt>
      <trkpt lat="39.9183950" lon="-4.6076600">
        <ele>463.0</ele>
        <time>2019-07-08T12:36:49Z</time>
      </trkpt>
      <trkpt lat="39.9183250" lon="-4.6077710">
        <ele>463.0</ele>
        <time>2019-07-08T12:36:51Z</time>
      </trkpt>
      <trkpt lat="39.9182190" lon="-4.6079420">
        <ele>463.0</ele>
        <time>2019-07-08T12:36:54Z</time>
      </trkpt>
      <trkpt lat="39.9180280" lon="-4.6082110">
        <ele>462.8</ele>
        <time>2019-07-08T12:36:59Z</time>
      </trkpt>
      <trkpt lat="39.9179870" lon="-4.6082640">
        <ele>462.8</ele>
        <time>2019-07-08T12:37:00Z</time>
      </trkpt>
      <trkpt lat="39.9177760" lon="-4.6085190">
        <ele>462.8</ele>
        <time>2019-07-08T12:37:05Z</time>
      </trkpt>
      <trkpt lat="39.9176480" lon="-4.6086630">
        <ele>463.0</ele>
        <time>2019-07-08T12:37:08Z</time>
      </trkpt>
      <trkpt lat="39.9172310" lon="-4.6091700">
        <ele>462.4</ele>
        <time>2019-07-08T12:37:18Z</time>
      </trkpt>
      <trkpt lat="39.9168430" lon="-4.6096210">
        <ele>462.2</ele>
        <time>2019-07-08T12:37:27Z</time>
      </trkpt>
      <trkpt lat="39.9165370" lon="-4.6100020">
        <ele>463.2</ele>
        <time>2019-07-08T12:37:35Z</time>
      </trkpt>
      <trkpt lat="39.9161600" lon="-4.6104410">
        <ele>463.4</ele>
        <time>2019-07-08T12:37:45Z</time>
      </trkpt>
      <trkpt lat="39.9159680" lon="-4.6106920">
        <ele>463.4</ele>
        <time>2019-07-08T12:37:50Z</time>
      </trkpt>
      <trkpt lat="39.9159320" lon="-4.6107490">
        <ele>463.4</ele>
        <time>2019-07-08T12:37:51Z</time>
      </trkpt>
      <trkpt lat="39.9157160" lon="-4.6112030">
        <ele>463.4</ele>
        <time>2019-07-08T12:37:58Z</time>
      </trkpt>
      <trkpt lat="39.9156320" lon="-4.6116870">
        <ele>462.8</ele>
        <time>2019-07-08T12:38:04Z</time>
      </trkpt>
      <trkpt lat="39.9156050" lon="-4.6122670">
        <ele>461.8</ele>
        <time>2019-07-08T12:38:10Z</time>
      </trkpt>
      <trkpt lat="39.9155940" lon="-4.6127460">
        <ele>462.2</ele>
        <time>2019-07-08T12:38:16Z</time>
      </trkpt>
      <trkpt lat="39.9155750" lon="-4.6133290">
        <ele>462.8</ele>
        <time>2019-07-08T12:38:24Z</time>
      </trkpt>
      <trkpt lat="39.9155630" lon="-4.6136740">
        <ele>463.4</ele>
        <time>2019-07-08T12:38:29Z</time>
      </trkpt>
      <trkpt lat="39.9155570" lon="-4.6138120">
        <ele>463.6</ele>
        <time>2019-07-08T12:38:31Z</time>
      </trkpt>
      <trkpt lat="39.9155540" lon="-4.6139530">
        <ele>463.8</ele>
        <time>2019-07-08T12:38:33Z</time>
      </trkpt>
      <trkpt lat="39.9155340" lon="-4.6143730">
        <ele>464.6</ele>
        <time>2019-07-08T12:38:39Z</time>
      </trkpt>
      <trkpt lat="39.9155260" lon="-4.6146560">
        <ele>465.0</ele>
        <time>2019-07-08T12:38:43Z</time>
      </trkpt>
      <trkpt lat="39.9154970" lon="-4.6153220">
        <ele>465.4</ele>
        <time>2019-07-08T12:38:52Z</time>
      </trkpt>
      <trkpt lat="39.9154770" lon="-4.6160570">
        <ele>465.4</ele>
        <time>2019-07-08T12:39:01Z</time>
      </trkpt>
      <trkpt lat="39.9154690" lon="-4.6162240">
        <ele>465.6</ele>
        <time>2019-07-08T12:39:03Z</time>
      </trkpt>
      <trkpt lat="39.9154470" lon="-4.6167130">
        <ele>465.8</ele>
        <time>2019-07-08T12:39:09Z</time>
      </trkpt>
      <trkpt lat="39.9154450" lon="-4.6167940">
        <ele>465.8</ele>
        <time>2019-07-08T12:39:10Z</time>
      </trkpt>
      <trkpt lat="39.9154170" lon="-4.6175720">
        <ele>465.6</ele>
        <time>2019-07-08T12:39:20Z</time>
      </trkpt>
      <trkpt lat="39.9153840" lon="-4.6182860">
        <ele>465.0</ele>
        <time>2019-07-08T12:39:29Z</time>
      </trkpt>
      <trkpt lat="39.9153810" lon="-4.6183670">
        <ele>465.0</ele>
        <time>2019-07-08T12:39:30Z</time>
      </trkpt>
      <trkpt lat="39.9153570" lon="-4.6191100">
        <ele>465.2</ele>
        <time>2019-07-08T12:39:39Z</time>
      </trkpt>
      <trkpt lat="39.9153290" lon="-4.6198390">
        <ele>465.2</ele>
        <time>2019-07-08T12:39:48Z</time>
      </trkpt>
      <trkpt lat="39.9153280" lon="-4.6199190">
        <ele>465.2</ele>
        <time>2019-07-08T12:39:49Z</time>
      </trkpt>
      <trkpt lat="39.9153040" lon="-4.6206270">
        <ele>465.2</ele>
        <time>2019-07-08T12:39:58Z</time>
      </trkpt>
      <trkpt lat="39.9152980" lon="-4.6207850">
        <ele>465.2</ele>
        <time>2019-07-08T12:40:00Z</time>
      </trkpt>
      <trkpt lat="39.9152740" lon="-4.6213730">
        <ele>464.8</ele>
        <time>2019-07-08T12:40:07Z</time>
      </trkpt>
      <trkpt lat="39.9152710" lon="-4.6214630">
        <ele>464.4</ele>
        <time>2019-07-08T12:40:08Z</time>
      </trkpt>
      <trkpt lat="39.9152690" lon="-4.6215550">
        <ele>464.2</ele>
        <time>2019-07-08T12:40:09Z</time>
      </trkpt>
      <trkpt lat="39.9152720" lon="-4.6219330">
        <ele>463.6</ele>
        <time>2019-07-08T12:40:13Z</time>
      </trkpt>
      <trkpt lat="39.9152760" lon="-4.6220280">
        <ele>463.2</ele>
        <time>2019-07-08T12:40:14Z</time>
      </trkpt>
      <trkpt lat="39.9152890" lon="-4.6222230">
        <ele>462.4</ele>
        <time>2019-07-08T12:40:16Z</time>
      </trkpt>
      <trkpt lat="39.9152990" lon="-4.6223240">
        <ele>462.0</ele>
        <time>2019-07-08T12:40:17Z</time>
      </trkpt>
      <trkpt lat="39.9153260" lon="-4.6226400">
        <ele>460.6</ele>
        <time>2019-07-08T12:40:20Z</time>
      </trkpt>
      <trkpt lat="39.9153650" lon="-4.6229760">
        <ele>459.4</ele>
        <time>2019-07-08T12:40:23Z</time>
      </trkpt>
      <trkpt lat="39.9153770" lon="-4.6230900">
        <ele>458.8</ele>
        <time>2019-07-08T12:40:24Z</time>
      </trkpt>
      <trkpt lat="39.9154000" lon="-4.6233120">
        <ele>458.4</ele>
        <time>2019-07-08T12:40:26Z</time>
      </trkpt>
      <trkpt lat="39.9154370" lon="-4.6236110">
        <ele>458.2</ele>
        <time>2019-07-08T12:40:29Z</time>
      </trkpt>
      <trkpt lat="39.9154630" lon="-4.6238710">
        <ele>458.6</ele>
        <time>2019-07-08T12:40:32Z</time>
      </trkpt>
      <trkpt lat="39.9154830" lon="-4.6240280">
        <ele>458.8</ele>
        <time>2019-07-08T12:40:34Z</time>
      </trkpt>
      <trkpt lat="39.9155060" lon="-4.6242480">
        <ele>459.4</ele>
        <time>2019-07-08T12:40:37Z</time>
      </trkpt>
      <trkpt lat="39.9155330" lon="-4.6244470">
        <ele>460.0</ele>
        <time>2019-07-08T12:40:40Z</time>
      </trkpt>
      <trkpt lat="39.9155650" lon="-4.6247010">
        <ele>460.6</ele>
        <time>2019-07-08T12:40:44Z</time>
      </trkpt>
      <trkpt lat="39.9155960" lon="-4.6248850">
        <ele>461.4</ele>
        <time>2019-07-08T12:40:47Z</time>
      </trkpt>
      <trkpt lat="39.9156030" lon="-4.6249460">
        <ele>461.8</ele>
        <time>2019-07-08T12:40:48Z</time>
      </trkpt>
      <trkpt lat="39.9156450" lon="-4.6252530">
        <ele>462.6</ele>
        <time>2019-07-08T12:40:53Z</time>
      </trkpt>
      <trkpt lat="39.9156550" lon="-4.6253170">
        <ele>462.8</ele>
        <time>2019-07-08T12:40:54Z</time>
      </trkpt>
      <trkpt lat="39.9157010" lon="-4.6255730">
        <ele>463.0</ele>
        <time>2019-07-08T12:40:58Z</time>
      </trkpt>
      <trkpt lat="39.9158450" lon="-4.6261740">
        <ele>463.6</ele>
        <time>2019-07-08T12:41:07Z</time>
      </trkpt>
      <trkpt lat="39.9159580" lon="-4.6265870">
        <ele>463.8</ele>
        <time>2019-07-08T12:41:13Z</time>
      </trkpt>
      <trkpt lat="39.9159760" lon="-4.6266560">
        <ele>463.8</ele>
        <time>2019-07-08T12:41:14Z</time>
      </trkpt>
      <trkpt lat="39.9161070" lon="-4.6271480">
        <ele>463.6</ele>
        <time>2019-07-08T12:41:21Z</time>
      </trkpt>
      <trkpt lat="39.9161440" lon="-4.6272930">
        <ele>463.6</ele>
        <time>2019-07-08T12:41:23Z</time>
      </trkpt>
      <trkpt lat="39.9162790" lon="-4.6277660">
        <ele>463.6</ele>
        <time>2019-07-08T12:41:30Z</time>
      </trkpt>
      <trkpt lat="39.9163110" lon="-4.6279010">
        <ele>463.8</ele>
        <time>2019-07-08T12:41:32Z</time>
      </trkpt>
      <trkpt lat="39.9164180" lon="-4.6283040">
        <ele>464.0</ele>
        <time>2019-07-08T12:41:38Z</time>
      </trkpt>
      <trkpt lat="39.9164560" lon="-4.6284380">
        <ele>464.2</ele>
        <time>2019-07-08T12:41:40Z</time>
      </trkpt>
      <trkpt lat="39.9166180" lon="-4.6290360">
        <ele>464.6</ele>
        <time>2019-07-08T12:41:49Z</time>
      </trkpt>
      <trkpt lat="39.9166370" lon="-4.6291010">
        <ele>464.6</ele>
        <time>2019-07-08T12:41:50Z</time>
      </trkpt>
      <trkpt lat="39.9167920" lon="-4.6296880">
        <ele>464.2</ele>
        <time>2019-07-08T12:41:59Z</time>
      </trkpt>
      <trkpt lat="39.9169230" lon="-4.6302050">
        <ele>464.8</ele>
        <time>2019-07-08T12:42:07Z</time>
      </trkpt>
      <trkpt lat="39.9169390" lon="-4.6302700">
        <ele>465.0</ele>
        <time>2019-07-08T12:42:08Z</time>
      </trkpt>
      <trkpt lat="39.9170450" lon="-4.6306650">
        <ele>465.2</ele>
        <time>2019-07-08T12:42:14Z</time>
      </trkpt>
      <trkpt lat="39.9171030" lon="-4.6308700">
        <ele>464.6</ele>
        <time>2019-07-08T12:42:17Z</time>
      </trkpt>
      <trkpt lat="39.9171710" lon="-4.6310800">
        <ele>464.4</ele>
        <time>2019-07-08T12:42:20Z</time>
      </trkpt>
      <trkpt lat="39.9171890" lon="-4.6311570">
        <ele>464.2</ele>
        <time>2019-07-08T12:42:21Z</time>
      </trkpt>
      <trkpt lat="39.9172310" lon="-4.6313150">
        <ele>463.8</ele>
        <time>2019-07-08T12:42:23Z</time>
      </trkpt>
      <trkpt lat="39.9173300" lon="-4.6315510">
        <ele>463.0</ele>
        <time>2019-07-08T12:42:26Z</time>
      </trkpt>
      <trkpt lat="39.9173670" lon="-4.6316310">
        <ele>462.6</ele>
        <time>2019-07-08T12:42:27Z</time>
      </trkpt>
      <trkpt lat="39.9174900" lon="-4.6318670">
        <ele>461.4</ele>
        <time>2019-07-08T12:42:30Z</time>
      </trkpt>
      <trkpt lat="39.9175910" lon="-4.6320150">
        <ele>460.8</ele>
        <time>2019-07-08T12:42:32Z</time>
      </trkpt>
      <trkpt lat="39.9176450" lon="-4.6320880">
        <ele>460.4</ele>
        <time>2019-07-08T12:42:33Z</time>
      </trkpt>
      <trkpt lat="39.9179590" lon="-4.6324160">
        <ele>459.2</ele>
        <time>2019-07-08T12:42:38Z</time>
      </trkpt>
      <trkpt lat="39.9180310" lon="-4.6324680">
        <ele>458.6</ele>
        <time>2019-07-08T12:42:39Z</time>
      </trkpt>
      <trkpt lat="39.9181060" lon="-4.6325160">
        <ele>458.2</ele>
        <time>2019-07-08T12:42:40Z</time>
      </trkpt>
      <trkpt lat="39.9181830" lon="-4.6325610">
        <ele>457.0</ele>
        <time>2019-07-08T12:42:41Z</time>
      </trkpt>
      <trkpt lat="39.9183430" lon="-4.6326380">
        <ele>456.4</ele>
        <time>2019-07-08T12:42:43Z</time>
      </trkpt>
      <trkpt lat="39.9185120" lon="-4.6327070">
        <ele>455.8</ele>
        <time>2019-07-08T12:42:45Z</time>
      </trkpt>
      <trkpt lat="39.9187840" lon="-4.6327620">
        <ele>454.8</ele>
        <time>2019-07-08T12:42:48Z</time>
      </trkpt>
      <trkpt lat="39.9189760" lon="-4.6327850">
        <ele>453.6</ele>
        <time>2019-07-08T12:42:50Z</time>
      </trkpt>
      <trkpt lat="39.9192610" lon="-4.6328060">
        <ele>452.2</ele>
        <time>2019-07-08T12:42:53Z</time>
      </trkpt>
      <trkpt lat="39.9193570" lon="-4.6328100">
        <ele>451.8</ele>
        <time>2019-07-08T12:42:54Z</time>
      </trkpt>
      <trkpt lat="39.9195460" lon="-4.6328090">
        <ele>450.8</ele>
        <time>2019-07-08T12:42:56Z</time>
      </trkpt>
      <trkpt lat="39.9199230" lon="-4.6328200">
        <ele>449.6</ele>
        <time>2019-07-08T12:43:00Z</time>
      </trkpt>
      <trkpt lat="39.9202030" lon="-4.6328260">
        <ele>448.6</ele>
        <time>2019-07-08T12:43:03Z</time>
      </trkpt>
      <trkpt lat="39.9203720" lon="-4.6328320">
        <ele>448.4</ele>
        <time>2019-07-08T12:43:05Z</time>
      </trkpt>
      <trkpt lat="39.9207310" lon="-4.6328470">
        <ele>448.2</ele>
        <time>2019-07-08T12:43:10Z</time>
      </trkpt>
      <trkpt lat="39.9207950" lon="-4.6328470">
        <ele>448.4</ele>
        <time>2019-07-08T12:43:11Z</time>
      </trkpt>
      <trkpt lat="39.9209180" lon="-4.6328490">
        <ele>448.8</ele>
        <time>2019-07-08T12:43:13Z</time>
      </trkpt>
      <trkpt lat="39.9210380" lon="-4.6328520">
        <ele>449.0</ele>
        <time>2019-07-08T12:43:15Z</time>
      </trkpt>
      <trkpt lat="39.9212170" lon="-4.6328690">
        <ele>449.4</ele>
        <time>2019-07-08T12:43:18Z</time>
      </trkpt>
      <trkpt lat="39.9213330" lon="-4.6328700">
        <ele>449.6</ele>
        <time>2019-07-08T12:43:20Z</time>
      </trkpt>
      <trkpt lat="39.9215620" lon="-4.6328770">
        <ele>450.2</ele>
        <time>2019-07-08T12:43:24Z</time>
      </trkpt>
      <trkpt lat="39.9218580" lon="-4.6328940">
        <ele>450.4</ele>
        <time>2019-07-08T12:43:29Z</time>
      </trkpt>
      <trkpt lat="39.9220320" lon="-4.6329130">
        <ele>450.2</ele>
        <time>2019-07-08T12:43:32Z</time>
      </trkpt>
      <trkpt lat="39.9223230" lon="-4.6329820">
        <ele>450.0</ele>
        <time>2019-07-08T12:43:37Z</time>
      </trkpt>
      <trkpt lat="39.9224380" lon="-4.6330140">
        <ele>450.0</ele>
        <time>2019-07-08T12:43:39Z</time>
      </trkpt>
      <trkpt lat="39.9228350" lon="-4.6331790">
        <ele>449.8</ele>
        <time>2019-07-08T12:43:46Z</time>
      </trkpt>
      <trkpt lat="39.9232950" lon="-4.6334280">
        <ele>450.4</ele>
        <time>2019-07-08T12:43:54Z</time>
      </trkpt>
      <trkpt lat="39.9236020" lon="-4.6336550">
        <ele>450.4</ele>
        <time>2019-07-08T12:44:00Z</time>
      </trkpt>
      <trkpt lat="39.9236920" lon="-4.6337460">
        <ele>450.4</ele>
        <time>2019-07-08T12:44:02Z</time>
      </trkpt>
      <trkpt lat="39.9238490" lon="-4.6339610">
        <ele>450.4</ele>
        <time>2019-07-08T12:44:06Z</time>
      </trkpt>
      <trkpt lat="39.9241310" lon="-4.6343230">
        <ele>450.2</ele>
        <time>2019-07-08T12:44:13Z</time>
      </trkpt>
      <trkpt lat="39.9244030" lon="-4.6346870">
        <ele>450.0</ele>
        <time>2019-07-08T12:44:20Z</time>
      </trkpt>
      <trkpt lat="39.9244460" lon="-4.6347370">
        <ele>450.0</ele>
        <time>2019-07-08T12:44:21Z</time>
      </trkpt>
      <trkpt lat="39.9245340" lon="-4.6348370">
        <ele>449.8</ele>
        <time>2019-07-08T12:44:23Z</time>
      </trkpt>
      <trkpt lat="39.9247320" lon="-4.6351100">
        <ele>450.0</ele>
        <time>2019-07-08T12:44:28Z</time>
      </trkpt>
      <trkpt lat="39.9248140" lon="-4.6352140">
        <ele>449.6</ele>
        <time>2019-07-08T12:44:30Z</time>
      </trkpt>
      <trkpt lat="39.9249390" lon="-4.6353860">
        <ele>449.0</ele>
        <time>2019-07-08T12:44:33Z</time>
      </trkpt>
      <trkpt lat="39.9251110" lon="-4.6356130">
        <ele>448.4</ele>
        <time>2019-07-08T12:44:37Z</time>
      </trkpt>
      <trkpt lat="39.9251940" lon="-4.6357290">
        <ele>448.4</ele>
        <time>2019-07-08T12:44:39Z</time>
      </trkpt>
      <trkpt lat="39.9253660" lon="-4.6359540">
        <ele>447.8</ele>
        <time>2019-07-08T12:44:43Z</time>
      </trkpt>
      <trkpt lat="39.9255320" lon="-4.6361790">
        <ele>447.4</ele>
        <time>2019-07-08T12:44:47Z</time>
      </trkpt>
      <trkpt lat="39.9256440" lon="-4.6363280">
        <ele>447.6</ele>
        <time>2019-07-08T12:44:50Z</time>
      </trkpt>
      <trkpt lat="39.9257110" lon="-4.6364240">
        <ele>447.6</ele>
        <time>2019-07-08T12:44:52Z</time>
      </trkpt>
      <trkpt lat="39.9257810" lon="-4.6365210">
        <ele>447.6</ele>
        <time>2019-07-08T12:44:54Z</time>
      </trkpt>
      <trkpt lat="39.9260280" lon="-4.6368330">
        <ele>446.8</ele>
        <time>2019-07-08T12:45:00Z</time>
      </trkpt>
      <trkpt lat="39.9261140" lon="-4.6369470">
        <ele>446.4</ele>
        <time>2019-07-08T12:45:02Z</time>
      </trkpt>
      <trkpt lat="39.9262930" lon="-4.6371890">
        <ele>445.8</ele>
        <time>2019-07-08T12:45:06Z</time>
      </trkpt>
      <trkpt lat="39.9264820" lon="-4.6374440">
        <ele>444.8</ele>
        <time>2019-07-08T12:45:10Z</time>
      </trkpt>
      <trkpt lat="39.9265310" lon="-4.6375120">
        <ele>444.4</ele>
        <time>2019-07-08T12:45:11Z</time>
      </trkpt>
      <trkpt lat="39.9267380" lon="-4.6377850">
        <ele>443.4</ele>
        <time>2019-07-08T12:45:15Z</time>
      </trkpt>
      <trkpt lat="39.9267910" lon="-4.6378550">
        <ele>443.2</ele>
        <time>2019-07-08T12:45:16Z</time>
      </trkpt>
      <trkpt lat="39.9268470" lon="-4.6379260">
        <ele>442.8</ele>
        <time>2019-07-08T12:45:17Z</time>
      </trkpt>
      <trkpt lat="39.9269020" lon="-4.6379990">
        <ele>442.2</ele>
        <time>2019-07-08T12:45:18Z</time>
      </trkpt>
      <trkpt lat="39.9270150" lon="-4.6381490">
        <ele>441.2</ele>
        <time>2019-07-08T12:45:20Z</time>
      </trkpt>
      <trkpt lat="39.9271320" lon="-4.6383030">
        <ele>440.0</ele>
        <time>2019-07-08T12:45:22Z</time>
      </trkpt>
      <trkpt lat="39.9273180" lon="-4.6385410">
        <ele>438.6</ele>
        <time>2019-07-08T12:45:25Z</time>
      </trkpt>
      <trkpt lat="39.9274510" lon="-4.6386980">
        <ele>437.2</ele>
        <time>2019-07-08T12:45:27Z</time>
      </trkpt>
      <trkpt lat="39.9275920" lon="-4.6388520">
        <ele>436.2</ele>
        <time>2019-07-08T12:45:29Z</time>
      </trkpt>
      <trkpt lat="39.9277430" lon="-4.6389890">
        <ele>435.6</ele>
        <time>2019-07-08T12:45:31Z</time>
      </trkpt>
      <trkpt lat="39.9278230" lon="-4.6390450">
        <ele>435.2</ele>
        <time>2019-07-08T12:45:32Z</time>
      </trkpt>
      <trkpt lat="39.9280700" lon="-4.6391780">
        <ele>434.6</ele>
        <time>2019-07-08T12:45:35Z</time>
      </trkpt>
      <trkpt lat="39.9282320" lon="-4.6392470">
        <ele>434.2</ele>
        <time>2019-07-08T12:45:37Z</time>
      </trkpt>
      <trkpt lat="39.9283130" lon="-4.6392760">
        <ele>434.2</ele>
        <time>2019-07-08T12:45:38Z</time>
      </trkpt>
      <trkpt lat="39.9284730" lon="-4.6393200">
        <ele>434.2</ele>
        <time>2019-07-08T12:45:40Z</time>
      </trkpt>
      <trkpt lat="39.9288580" lon="-4.6393420">
        <ele>434.0</ele>
        <time>2019-07-08T12:45:45Z</time>
      </trkpt>
      <trkpt lat="39.9291520" lon="-4.6392870">
        <ele>434.2</ele>
        <time>2019-07-08T12:45:49Z</time>
      </trkpt>
      <trkpt lat="39.9292970" lon="-4.6392340">
        <ele>434.2</ele>
        <time>2019-07-08T12:45:51Z</time>
      </trkpt>
      <trkpt lat="39.9297270" lon="-4.6390450">
        <ele>434.0</ele>
        <time>2019-07-08T12:45:57Z</time>
      </trkpt>
      <trkpt lat="39.9302530" lon="-4.6388230">
        <ele>433.2</ele>
        <time>2019-07-08T12:46:04Z</time>
      </trkpt>
      <trkpt lat="39.9307960" lon="-4.6385750">
        <ele>432.0</ele>
        <time>2019-07-08T12:46:11Z</time>
      </trkpt>
      <trkpt lat="39.9310300" lon="-4.6384760">
        <ele>431.0</ele>
        <time>2019-07-08T12:46:14Z</time>
      </trkpt>
      <trkpt lat="39.9312530" lon="-4.6383700">
        <ele>430.6</ele>
        <time>2019-07-08T12:46:17Z</time>
      </trkpt>
      <trkpt lat="39.9314780" lon="-4.6382740">
        <ele>430.6</ele>
        <time>2019-07-08T12:46:20Z</time>
      </trkpt>
      <trkpt lat="39.9317820" lon="-4.6381410">
        <ele>430.4</ele>
        <time>2019-07-08T12:46:24Z</time>
      </trkpt>
      <trkpt lat="39.9319300" lon="-4.6380780">
        <ele>430.2</ele>
        <time>2019-07-08T12:46:26Z</time>
      </trkpt>
      <trkpt lat="39.9324520" lon="-4.6378530">
        <ele>430.2</ele>
        <time>2019-07-08T12:46:33Z</time>
      </trkpt>
      <trkpt lat="39.9329700" lon="-4.6376340">
        <ele>429.4</ele>
        <time>2019-07-08T12:46:40Z</time>
      </trkpt>
      <trkpt lat="39.9330440" lon="-4.6376020">
        <ele>429.4</ele>
        <time>2019-07-08T12:46:41Z</time>
      </trkpt>
      <trkpt lat="39.9336310" lon="-4.6373550">
        <ele>429.4</ele>
        <time>2019-07-08T12:46:49Z</time>
      </trkpt>
      <trkpt lat="39.9337020" lon="-4.6373220">
        <ele>429.4</ele>
        <time>2019-07-08T12:46:50Z</time>
      </trkpt>
      <trkpt lat="39.9341250" lon="-4.6371400">
        <ele>429.2</ele>
        <time>2019-07-08T12:46:56Z</time>
      </trkpt>
      <trkpt lat="39.9341940" lon="-4.6371130">
        <ele>429.2</ele>
        <time>2019-07-08T12:46:57Z</time>
      </trkpt>
      <trkpt lat="39.9347520" lon="-4.6368820">
        <ele>428.8</ele>
        <time>2019-07-08T12:47:05Z</time>
      </trkpt>
      <trkpt lat="39.9348220" lon="-4.6368580">
        <ele>428.8</ele>
        <time>2019-07-08T12:47:06Z</time>
      </trkpt>
      <trkpt lat="39.9352420" lon="-4.6366980">
        <ele>428.8</ele>
        <time>2019-07-08T12:47:12Z</time>
      </trkpt>
      <trkpt lat="39.9357450" lon="-4.6366170">
        <ele>428.8</ele>
        <time>2019-07-08T12:47:19Z</time>
      </trkpt>
      <trkpt lat="39.9361140" lon="-4.6367060">
        <ele>428.0</ele>
        <time>2019-07-08T12:47:24Z</time>
      </trkpt>
      <trkpt lat="39.9364680" lon="-4.6369650">
        <ele>427.2</ele>
        <time>2019-07-08T12:47:29Z</time>
      </trkpt>
      <trkpt lat="39.9366340" lon="-4.6371820">
        <ele>427.6</ele>
        <time>2019-07-08T12:47:32Z</time>
      </trkpt>
      <trkpt lat="39.9367310" lon="-4.6373350">
        <ele>427.2</ele>
        <time>2019-07-08T12:47:34Z</time>
      </trkpt>
      <trkpt lat="39.9367730" lon="-4.6374190">
        <ele>427.2</ele>
        <time>2019-07-08T12:47:35Z</time>
      </trkpt>
      <trkpt lat="39.9368730" lon="-4.6376900">
        <ele>426.0</ele>
        <time>2019-07-08T12:47:38Z</time>
      </trkpt>
      <trkpt lat="39.9368990" lon="-4.6377850">
        <ele>425.8</ele>
        <time>2019-07-08T12:47:39Z</time>
      </trkpt>
      <trkpt lat="39.9369660" lon="-4.6382810">
        <ele>425.0</ele>
        <time>2019-07-08T12:47:44Z</time>
      </trkpt>
      <trkpt lat="39.9369730" lon="-4.6383780">
        <ele>424.8</ele>
        <time>2019-07-08T12:47:45Z</time>
      </trkpt>
      <trkpt lat="39.9369920" lon="-4.6388540">
        <ele>424.0</ele>
        <time>2019-07-08T12:47:50Z</time>
      </trkpt>
      <trkpt lat="39.9369930" lon="-4.6390380">
        <ele>423.6</ele>
        <time>2019-07-08T12:47:52Z</time>
      </trkpt>
      <trkpt lat="39.9369940" lon="-4.6391290">
        <ele>423.6</ele>
        <time>2019-07-08T12:47:53Z</time>
      </trkpt>
      <trkpt lat="39.9370000" lon="-4.6398030">
        <ele>423.8</ele>
        <time>2019-07-08T12:48:01Z</time>
      </trkpt>
      <trkpt lat="39.9370140" lon="-4.6403380">
        <ele>423.6</ele>
        <time>2019-07-08T12:48:08Z</time>
      </trkpt>
      <trkpt lat="39.9370220" lon="-4.6407090">
        <ele>423.2</ele>
        <time>2019-07-08T12:48:13Z</time>
      </trkpt>
      <trkpt lat="39.9370280" lon="-4.6410860">
        <ele>422.8</ele>
        <time>2019-07-08T12:48:18Z</time>
      </trkpt>
      <trkpt lat="39.9370280" lon="-4.6411610">
        <ele>422.8</ele>
        <time>2019-07-08T12:48:19Z</time>
      </trkpt>
      <trkpt lat="39.9370330" lon="-4.6415340">
        <ele>422.6</ele>
        <time>2019-07-08T12:48:24Z</time>
      </trkpt>
      <trkpt lat="39.9370380" lon="-4.6418960">
        <ele>422.6</ele>
        <time>2019-07-08T12:48:29Z</time>
      </trkpt>
      <trkpt lat="39.9370570" lon="-4.6425860">
        <ele>422.4</ele>
        <time>2019-07-08T12:48:39Z</time>
      </trkpt>
      <trkpt lat="39.9370560" lon="-4.6429910">
        <ele>422.6</ele>
        <time>2019-07-08T12:48:45Z</time>
      </trkpt>
      <trkpt lat="39.9370570" lon="-4.6432680">
        <ele>422.4</ele>
        <time>2019-07-08T12:48:49Z</time>
      </trkpt>
      <trkpt lat="39.9370720" lon="-4.6438150">
        <ele>422.2</ele>
        <time>2019-07-08T12:48:57Z</time>
      </trkpt>
      <trkpt lat="39.9370840" lon="-4.6444360">
        <ele>421.4</ele>
        <time>2019-07-08T12:49:06Z</time>
      </trkpt>
      <trkpt lat="39.9370910" lon="-4.6451360">
        <ele>421.2</ele>
        <time>2019-07-08T12:49:16Z</time>
      </trkpt>
      <trkpt lat="39.9371040" lon="-4.6457840">
        <ele>421.0</ele>
        <time>2019-07-08T12:49:25Z</time>
      </trkpt>
      <trkpt lat="39.9371020" lon="-4.6462290">
        <ele>421.0</ele>
        <time>2019-07-08T12:49:31Z</time>
      </trkpt>
      <trkpt lat="39.9371100" lon="-4.6464500">
        <ele>421.0</ele>
        <time>2019-07-08T12:49:34Z</time>
      </trkpt>
      <trkpt lat="39.9371170" lon="-4.6468970">
        <ele>420.4</ele>
        <time>2019-07-08T12:49:40Z</time>
      </trkpt>
      <trkpt lat="39.9371190" lon="-4.6469740">
        <ele>420.2</ele>
        <time>2019-07-08T12:49:41Z</time>
      </trkpt>
      <trkpt lat="39.9371280" lon="-4.6474380">
        <ele>419.8</ele>
        <time>2019-07-08T12:49:47Z</time>
      </trkpt>
      <trkpt lat="39.9371320" lon="-4.6477400">
        <ele>419.8</ele>
        <time>2019-07-08T12:49:51Z</time>
      </trkpt>
      <trkpt lat="39.9371420" lon="-4.6484690">
        <ele>420.2</ele>
        <time>2019-07-08T12:50:01Z</time>
      </trkpt>
      <trkpt lat="39.9371430" lon="-4.6486910">
        <ele>420.0</ele>
        <time>2019-07-08T12:50:04Z</time>
      </trkpt>
      <trkpt lat="39.9371510" lon="-4.6489210">
        <ele>420.0</ele>
        <time>2019-07-08T12:50:07Z</time>
      </trkpt>
      <trkpt lat="39.9371550" lon="-4.6492250">
        <ele>419.8</ele>
        <time>2019-07-08T12:50:11Z</time>
      </trkpt>
      <trkpt lat="39.9371630" lon="-4.6495230">
        <ele>419.8</ele>
        <time>2019-07-08T12:50:15Z</time>
      </trkpt>
      <trkpt lat="39.9371670" lon="-4.6498920">
        <ele>420.0</ele>
        <time>2019-07-08T12:50:20Z</time>
      </trkpt>
      <trkpt lat="39.9371720" lon="-4.6500390">
        <ele>420.0</ele>
        <time>2019-07-08T12:50:22Z</time>
      </trkpt>
      <trkpt lat="39.9371810" lon="-4.6505510">
        <ele>420.6</ele>
        <time>2019-07-08T12:50:29Z</time>
      </trkpt>
      <trkpt lat="39.9372010" lon="-4.6509740">
        <ele>421.0</ele>
        <time>2019-07-08T12:50:35Z</time>
      </trkpt>
      <trkpt lat="39.9372250" lon="-4.6513080">
        <ele>421.8</ele>
        <time>2019-07-08T12:50:40Z</time>
      </trkpt>
      <trkpt lat="39.9372480" lon="-4.6514970">
        <ele>422.2</ele>
        <time>2019-07-08T12:50:43Z</time>
      </trkpt>
      <trkpt lat="39.9372650" lon="-4.6516130">
        <ele>422.6</ele>
        <time>2019-07-08T12:50:45Z</time>
      </trkpt>
      <trkpt lat="39.9372900" lon="-4.6517280">
        <ele>422.8</ele>
        <time>2019-07-08T12:50:47Z</time>
      </trkpt>
      <trkpt lat="39.9373010" lon="-4.6517840">
        <ele>423.0</ele>
        <time>2019-07-08T12:50:48Z</time>
      </trkpt>
      <trkpt lat="39.9373650" lon="-4.6520430">
        <ele>424.2</ele>
        <time>2019-07-08T12:50:53Z</time>
      </trkpt>
      <trkpt lat="39.9374160" lon="-4.6521970">
        <ele>424.8</ele>
        <time>2019-07-08T12:50:56Z</time>
      </trkpt>
      <trkpt lat="39.9374630" lon="-4.6523560">
        <ele>425.4</ele>
        <time>2019-07-08T12:50:59Z</time>
      </trkpt>
      <trkpt lat="39.9375300" lon="-4.6525590">
        <ele>426.2</ele>
        <time>2019-07-08T12:51:03Z</time>
      </trkpt>
      <trkpt lat="39.9375470" lon="-4.6526080">
        <ele>426.6</ele>
        <time>2019-07-08T12:51:04Z</time>
      </trkpt>
      <trkpt lat="39.9375610" lon="-4.6526550">
        <ele>426.8</ele>
        <time>2019-07-08T12:51:05Z</time>
      </trkpt>
      <trkpt lat="39.9376160" lon="-4.6528310">
        <ele>427.6</ele>
        <time>2019-07-08T12:51:09Z</time>
      </trkpt>
      <trkpt lat="39.9376330" lon="-4.6528730">
        <ele>427.6</ele>
        <time>2019-07-08T12:51:10Z</time>
      </trkpt>
      <trkpt lat="39.9376510" lon="-4.6529140">
        <ele>427.8</ele>
        <time>2019-07-08T12:51:11Z</time>
      </trkpt>
      <trkpt lat="39.9377700" lon="-4.6532710">
        <ele>428.8</ele>
        <time>2019-07-08T12:51:19Z</time>
      </trkpt>
      <trkpt lat="39.9378860" lon="-4.6536190">
        <ele>429.8</ele>
        <time>2019-07-08T12:51:27Z</time>
      </trkpt>
      <trkpt lat="39.9379000" lon="-4.6536620">
        <ele>430.2</ele>
        <time>2019-07-08T12:51:28Z</time>
      </trkpt>
      <trkpt lat="39.9379890" lon="-4.6539140">
        <ele>431.2</ele>
        <time>2019-07-08T12:51:34Z</time>
      </trkpt>
      <trkpt lat="39.9380160" lon="-4.6540010">
        <ele>431.2</ele>
        <time>2019-07-08T12:51:36Z</time>
      </trkpt>
      <trkpt lat="39.9380730" lon="-4.6541620">
        <ele>432.2</ele>
        <time>2019-07-08T12:51:40Z</time>
      </trkpt>
      <trkpt lat="39.9381130" lon="-4.6542850">
        <ele>432.6</ele>
        <time>2019-07-08T12:51:43Z</time>
      </trkpt>
      <trkpt lat="39.9381690" lon="-4.6544530">
        <ele>433.4</ele>
        <time>2019-07-08T12:51:47Z</time>
      </trkpt>
      <trkpt lat="39.9382380" lon="-4.6546680">
        <ele>434.4</ele>
        <time>2019-07-08T12:51:52Z</time>
      </trkpt>
      <trkpt lat="39.9382810" lon="-4.6548000">
        <ele>435.0</ele>
        <time>2019-07-08T12:51:55Z</time>
      </trkpt>
      <trkpt lat="39.9383060" lon="-4.6548900">
        <ele>435.6</ele>
        <time>2019-07-08T12:51:57Z</time>
      </trkpt>
      <trkpt lat="39.9383750" lon="-4.6551580">
        <ele>436.8</ele>
        <time>2019-07-08T12:52:03Z</time>
      </trkpt>
      <trkpt lat="39.9383940" lon="-4.6552490">
        <ele>437.2</ele>
        <time>2019-07-08T12:52:05Z</time>
      </trkpt>
      <trkpt lat="39.9384250" lon="-4.6554330">
        <ele>438.0</ele>
        <time>2019-07-08T12:52:09Z</time>
      </trkpt>
      <trkpt lat="39.9384680" lon="-4.6556240">
        <ele>439.0</ele>
        <time>2019-07-08T12:52:13Z</time>
      </trkpt>
      <trkpt lat="39.9384840" lon="-4.6557270">
        <ele>439.2</ele>
        <time>2019-07-08T12:52:15Z</time>
      </trkpt>
      <trkpt lat="39.9385170" lon="-4.6559860">
        <ele>440.2</ele>
        <time>2019-07-08T12:52:20Z</time>
      </trkpt>
      <trkpt lat="39.9385690" lon="-4.6563770">
        <ele>441.4</ele>
        <time>2019-07-08T12:52:27Z</time>
      </trkpt>
      <trkpt lat="39.9385950" lon="-4.6566300">
        <ele>441.6</ele>
        <time>2019-07-08T12:52:31Z</time>
      </trkpt>
      <trkpt lat="39.9386230" lon="-4.6568160">
        <ele>441.6</ele>
        <time>2019-07-08T12:52:34Z</time>
      </trkpt>
      <trkpt lat="39.9386580" lon="-4.6571320">
        <ele>441.8</ele>
        <time>2019-07-08T12:52:39Z</time>
      </trkpt>
      <trkpt lat="39.9386700" lon="-4.6572630">
        <ele>441.8</ele>
        <time>2019-07-08T12:52:41Z</time>
      </trkpt>
      <trkpt lat="39.9386970" lon="-4.6574560">
        <ele>442.2</ele>
        <time>2019-07-08T12:52:44Z</time>
      </trkpt>
      <trkpt lat="39.9387080" lon="-4.6575880">
        <ele>442.4</ele>
        <time>2019-07-08T12:52:46Z</time>
      </trkpt>
      <trkpt lat="39.9387260" lon="-4.6577230">
        <ele>442.6</ele>
        <time>2019-07-08T12:52:48Z</time>
      </trkpt>
      <trkpt lat="39.9387450" lon="-4.6579210">
        <ele>443.0</ele>
        <time>2019-07-08T12:52:51Z</time>
      </trkpt>
      <trkpt lat="39.9387530" lon="-4.6579840">
        <ele>443.2</ele>
        <time>2019-07-08T12:52:52Z</time>
      </trkpt>
      <trkpt lat="39.9387690" lon="-4.6581090">
        <ele>443.4</ele>
        <time>2019-07-08T12:52:54Z</time>
      </trkpt>
      <trkpt lat="39.9387880" lon="-4.6582350">
        <ele>443.8</ele>
        <time>2019-07-08T12:52:56Z</time>
      </trkpt>
      <trkpt lat="39.9388420" lon="-4.6586270">
        <ele>444.2</ele>
        <time>2019-07-08T12:53:02Z</time>
      </trkpt>
      <trkpt lat="39.9388640" lon="-4.6588270">
        <ele>444.8</ele>
        <time>2019-07-08T12:53:05Z</time>
      </trkpt>
      <trkpt lat="39.9389170" lon="-4.6593020">
        <ele>445.2</ele>
        <time>2019-07-08T12:53:12Z</time>
      </trkpt>
      <trkpt lat="39.9389550" lon="-4.6595710">
        <ele>446.0</ele>
        <time>2019-07-08T12:53:16Z</time>
      </trkpt>
      <trkpt lat="39.9389840" lon="-4.6598420">
        <ele>445.6</ele>
        <time>2019-07-08T12:53:20Z</time>
      </trkpt>
      <trkpt lat="39.9389990" lon="-4.6600480">
        <ele>445.6</ele>
        <time>2019-07-08T12:53:23Z</time>
      </trkpt>
      <trkpt lat="39.9390060" lon="-4.6601150">
        <ele>445.8</ele>
        <time>2019-07-08T12:53:24Z</time>
      </trkpt>
      <trkpt lat="39.9390410" lon="-4.6603220">
        <ele>446.0</ele>
        <time>2019-07-08T12:53:27Z</time>
      </trkpt>
      <trkpt lat="39.9391040" lon="-4.6608070">
        <ele>446.4</ele>
        <time>2019-07-08T12:53:34Z</time>
      </trkpt>
      <trkpt lat="39.9391730" lon="-4.6613570">
        <ele>447.0</ele>
        <time>2019-07-08T12:53:42Z</time>
      </trkpt>
      <trkpt lat="39.9391800" lon="-4.6614260">
        <ele>447.0</ele>
        <time>2019-07-08T12:53:43Z</time>
      </trkpt>
      <trkpt lat="39.9392370" lon="-4.6620270">
        <ele>447.8</ele>
        <time>2019-07-08T12:53:52Z</time>
      </trkpt>
      <trkpt lat="39.9392800" lon="-4.6623560">
        <ele>448.2</ele>
        <time>2019-07-08T12:53:57Z</time>
      </trkpt>
      <trkpt lat="39.9393010" lon="-4.6625550">
        <ele>447.8</ele>
        <time>2019-07-08T12:54:00Z</time>
      </trkpt>
      <trkpt lat="39.9393630" lon="-4.6630280">
        <ele>448.0</ele>
        <time>2019-07-08T12:54:07Z</time>
      </trkpt>
      <trkpt lat="39.9394270" lon="-4.6635570">
        <ele>448.4</ele>
        <time>2019-07-08T12:54:15Z</time>
      </trkpt>
      <trkpt lat="39.9394870" lon="-4.6640110">
        <ele>448.4</ele>
        <time>2019-07-08T12:54:22Z</time>
      </trkpt>
      <trkpt lat="39.9395250" lon="-4.6642960">
        <ele>448.2</ele>
        <time>2019-07-08T12:54:27Z</time>
      </trkpt>
      <trkpt lat="39.9395540" lon="-4.6643910">
        <ele>447.8</ele>
        <time>2019-07-08T12:54:29Z</time>
      </trkpt>
      <trkpt lat="39.9396130" lon="-4.6644700">
        <ele>447.8</ele>
        <time>2019-07-08T12:54:31Z</time>
      </trkpt>
      <trkpt lat="39.9397620" lon="-4.6644860">
        <ele>447.6</ele>
        <time>2019-07-08T12:54:34Z</time>
      </trkpt>
      <trkpt lat="39.9398170" lon="-4.6644790">
        <ele>447.4</ele>
        <time>2019-07-08T12:54:35Z</time>
      </trkpt>
      <trkpt lat="39.9398740" lon="-4.6644680">
        <ele>447.2</ele>
        <time>2019-07-08T12:54:36Z</time>
      </trkpt>
      <trkpt lat="39.9399340" lon="-4.6644540">
        <ele>447.0</ele>
        <time>2019-07-08T12:54:37Z</time>
      </trkpt>
      <trkpt lat="39.9400600" lon="-4.6644350">
        <ele>446.8</ele>
        <time>2019-07-08T12:54:39Z</time>
      </trkpt>
      <trkpt lat="39.9403340" lon="-4.6643900">
        <ele>445.8</ele>
        <time>2019-07-08T12:54:43Z</time>
      </trkpt>
      <trkpt lat="39.9406260" lon="-4.6643400">
        <ele>444.6</ele>
        <time>2019-07-08T12:54:47Z</time>
      </trkpt>
      <trkpt lat="39.9408550" lon="-4.6643030">
        <ele>443.6</ele>
        <time>2019-07-08T12:54:50Z</time>
      </trkpt>
      <trkpt lat="39.9410920" lon="-4.6642620">
        <ele>442.8</ele>
        <time>2019-07-08T12:54:53Z</time>
      </trkpt>
      <trkpt lat="39.9411720" lon="-4.6642490">
        <ele>442.6</ele>
        <time>2019-07-08T12:54:54Z</time>
      </trkpt>
      <trkpt lat="39.9413330" lon="-4.6642240">
        <ele>442.0</ele>
        <time>2019-07-08T12:54:56Z</time>
      </trkpt>
      <trkpt lat="39.9414960" lon="-4.6641950">
        <ele>441.2</ele>
        <time>2019-07-08T12:54:58Z</time>
      </trkpt>
      <trkpt lat="39.9417410" lon="-4.6641570">
        <ele>440.0</ele>
        <time>2019-07-08T12:55:01Z</time>
      </trkpt>
      <trkpt lat="39.9419870" lon="-4.6641180">
        <ele>439.0</ele>
        <time>2019-07-08T12:55:04Z</time>
      </trkpt>
      <trkpt lat="39.9420690" lon="-4.6641070">
        <ele>438.8</ele>
        <time>2019-07-08T12:55:05Z</time>
      </trkpt>
      <trkpt lat="39.9422380" lon="-4.6640810">
        <ele>437.8</ele>
        <time>2019-07-08T12:55:07Z</time>
      </trkpt>
      <trkpt lat="39.9425780" lon="-4.6640230">
        <ele>436.6</ele>
        <time>2019-07-08T12:55:11Z</time>
      </trkpt>
      <trkpt lat="39.9426640" lon="-4.6640100">
        <ele>436.2</ele>
        <time>2019-07-08T12:55:12Z</time>
      </trkpt>
      <trkpt lat="39.9429230" lon="-4.6639710">
        <ele>435.2</ele>
        <time>2019-07-08T12:55:15Z</time>
      </trkpt>
      <trkpt lat="39.9432790" lon="-4.6639290">
        <ele>434.0</ele>
        <time>2019-07-08T12:55:19Z</time>
      </trkpt>
      <trkpt lat="39.9434610" lon="-4.6639020">
        <ele>433.6</ele>
        <time>2019-07-08T12:55:21Z</time>
      </trkpt>
      <trkpt lat="39.9436430" lon="-4.6638710">
        <ele>432.8</ele>
        <time>2019-07-08T12:55:23Z</time>
      </trkpt>
      <trkpt lat="39.9439180" lon="-4.6638270">
        <ele>431.6</ele>
        <time>2019-07-08T12:55:26Z</time>
      </trkpt>
      <trkpt lat="39.9441000" lon="-4.6638020">
        <ele>430.8</ele>
        <time>2019-07-08T12:55:28Z</time>
      </trkpt>
      <trkpt lat="39.9442810" lon="-4.6637590">
        <ele>430.4</ele>
        <time>2019-07-08T12:55:30Z</time>
      </trkpt>
      <trkpt lat="39.9445450" lon="-4.6636580">
        <ele>429.4</ele>
        <time>2019-07-08T12:55:33Z</time>
      </trkpt>
      <trkpt lat="39.9446330" lon="-4.6636260">
        <ele>429.0</ele>
        <time>2019-07-08T12:55:34Z</time>
      </trkpt>
      <trkpt lat="39.9448970" lon="-4.6635680">
        <ele>427.8</ele>
        <time>2019-07-08T12:55:37Z</time>
      </trkpt>
      <trkpt lat="39.9449870" lon="-4.6635660">
        <ele>427.4</ele>
        <time>2019-07-08T12:55:38Z</time>
      </trkpt>
      <trkpt lat="39.9451680" lon="-4.6635600">
        <ele>426.6</ele>
        <time>2019-07-08T12:55:40Z</time>
      </trkpt>
      <trkpt lat="39.9453490" lon="-4.6635250">
        <ele>426.0</ele>
        <time>2019-07-08T12:55:42Z</time>
      </trkpt>
      <trkpt lat="39.9454400" lon="-4.6635030">
        <ele>425.4</ele>
        <time>2019-07-08T12:55:43Z</time>
      </trkpt>
      <trkpt lat="39.9457990" lon="-4.6633980">
        <ele>424.4</ele>
        <time>2019-07-08T12:55:47Z</time>
      </trkpt>
      <trkpt lat="39.9460610" lon="-4.6633140">
        <ele>423.6</ele>
        <time>2019-07-08T12:55:50Z</time>
      </trkpt>
      <trkpt lat="39.9461470" lon="-4.6632850">
        <ele>423.2</ele>
        <time>2019-07-08T12:55:51Z</time>
      </trkpt>
      <trkpt lat="39.9465620" lon="-4.6631460">
        <ele>422.0</ele>
        <time>2019-07-08T12:55:56Z</time>
      </trkpt>
      <trkpt lat="39.9467230" lon="-4.6630970">
        <ele>421.6</ele>
        <time>2019-07-08T12:55:58Z</time>
      </trkpt>
      <trkpt lat="39.9470460" lon="-4.6629930">
        <ele>421.8</ele>
        <time>2019-07-08T12:56:02Z</time>
      </trkpt>
      <trkpt lat="39.9473660" lon="-4.6628900">
        <ele>421.6</ele>
        <time>2019-07-08T12:56:06Z</time>
      </trkpt>
      <trkpt lat="39.9478960" lon="-4.6627210">
        <ele>421.2</ele>
        <time>2019-07-08T12:56:13Z</time>
      </trkpt>
      <trkpt lat="39.9479690" lon="-4.6626970">
        <ele>421.0</ele>
        <time>2019-07-08T12:56:14Z</time>
      </trkpt>
      <trkpt lat="39.9484320" lon="-4.6625450">
        <ele>421.6</ele>
        <time>2019-07-08T12:56:21Z</time>
      </trkpt>
      <trkpt lat="39.9488880" lon="-4.6623990">
        <ele>420.8</ele>
        <time>2019-07-08T12:56:29Z</time>
      </trkpt>
      <trkpt lat="39.9491170" lon="-4.6623210">
        <ele>420.8</ele>
        <time>2019-07-08T12:56:33Z</time>
      </trkpt>
      <trkpt lat="39.9494110" lon="-4.6622280">
        <ele>420.4</ele>
        <time>2019-07-08T12:56:38Z</time>
      </trkpt>
      <trkpt lat="39.9498800" lon="-4.6620740">
        <ele>420.6</ele>
        <time>2019-07-08T12:56:46Z</time>
      </trkpt>
      <trkpt lat="39.9499380" lon="-4.6620540">
        <ele>420.6</ele>
        <time>2019-07-08T12:56:47Z</time>
      </trkpt>
      <trkpt lat="39.9504110" lon="-4.6618960">
        <ele>420.4</ele>
        <time>2019-07-08T12:56:55Z</time>
      </trkpt>
      <trkpt lat="39.9505940" lon="-4.6618380">
        <ele>420.4</ele>
        <time>2019-07-08T12:56:58Z</time>
      </trkpt>
      <trkpt lat="39.9508410" lon="-4.6617620">
        <ele>420.2</ele>
        <time>2019-07-08T12:57:02Z</time>
      </trkpt>
      <trkpt lat="39.9512180" lon="-4.6616420">
        <ele>420.2</ele>
        <time>2019-07-08T12:57:08Z</time>
      </trkpt>
      <trkpt lat="39.9517740" lon="-4.6614600">
        <ele>420.2</ele>
        <time>2019-07-08T12:57:17Z</time>
      </trkpt>
      <trkpt lat="39.9523230" lon="-4.6612820">
        <ele>420.0</ele>
        <time>2019-07-08T12:57:26Z</time>
      </trkpt>
      <trkpt lat="39.9523840" lon="-4.6612610">
        <ele>420.0</ele>
        <time>2019-07-08T12:57:27Z</time>
      </trkpt>
      <trkpt lat="39.9529310" lon="-4.6610850">
        <ele>419.8</ele>
        <time>2019-07-08T12:57:36Z</time>
      </trkpt>
      <trkpt lat="39.9530530" lon="-4.6610460">
        <ele>419.8</ele>
        <time>2019-07-08T12:57:38Z</time>
      </trkpt>
      <trkpt lat="39.9535950" lon="-4.6608680">
        <ele>419.6</ele>
        <time>2019-07-08T12:57:47Z</time>
      </trkpt>
      <trkpt lat="39.9537160" lon="-4.6608330">
        <ele>419.8</ele>
        <time>2019-07-08T12:57:49Z</time>
      </trkpt>
      <trkpt lat="39.9542470" lon="-4.6606630">
        <ele>419.4</ele>
        <time>2019-07-08T12:57:58Z</time>
      </trkpt>
      <trkpt lat="39.9547890" lon="-4.6604880">
        <ele>420.0</ele>
        <time>2019-07-08T12:58:07Z</time>
      </trkpt>
      <trkpt lat="39.9548490" lon="-4.6604670">
        <ele>420.0</ele>
        <time>2019-07-08T12:58:08Z</time>
      </trkpt>
      <trkpt lat="39.9550270" lon="-4.6604130">
        <ele>419.8</ele>
        <time>2019-07-08T12:58:11Z</time>
      </trkpt>
      <trkpt lat="39.9554390" lon="-4.6602720">
        <ele>419.6</ele>
        <time>2019-07-08T12:58:18Z</time>
      </trkpt>
      <trkpt lat="39.9557350" lon="-4.6601820">
        <ele>419.4</ele>
        <time>2019-07-08T12:58:23Z</time>
      </trkpt>
      <trkpt lat="39.9559720" lon="-4.6601050">
        <ele>419.2</ele>
        <time>2019-07-08T12:58:27Z</time>
      </trkpt>
      <trkpt lat="39.9565090" lon="-4.6599320">
        <ele>419.6</ele>
        <time>2019-07-08T12:58:36Z</time>
      </trkpt>
      <trkpt lat="39.9566290" lon="-4.6598900">
        <ele>419.6</ele>
        <time>2019-07-08T12:58:38Z</time>
      </trkpt>
      <trkpt lat="39.9571000" lon="-4.6597100">
        <ele>419.8</ele>
        <time>2019-07-08T12:58:46Z</time>
      </trkpt>
      <trkpt lat="39.9575400" lon="-4.6594700">
        <ele>419.2</ele>
        <time>2019-07-08T12:58:54Z</time>
      </trkpt>
      <trkpt lat="39.9579020" lon="-4.6592110">
        <ele>419.2</ele>
        <time>2019-07-08T12:59:01Z</time>
      </trkpt>
      <trkpt lat="39.9580020" lon="-4.6591240">
        <ele>419.4</ele>
        <time>2019-07-08T12:59:03Z</time>
      </trkpt>
      <trkpt lat="39.9584380" lon="-4.6586830">
        <ele>419.8</ele>
        <time>2019-07-08T12:59:12Z</time>
      </trkpt>
      <trkpt lat="39.9587450" lon="-4.6582900">
        <ele>419.8</ele>
        <time>2019-07-08T12:59:19Z</time>
      </trkpt>
      <trkpt lat="39.9590130" lon="-4.6578600">
        <ele>420.4</ele>
        <time>2019-07-08T12:59:26Z</time>
      </trkpt>
      <trkpt lat="39.9593040" lon="-4.6572540">
        <ele>420.8</ele>
        <time>2019-07-08T12:59:35Z</time>
      </trkpt>
      <trkpt lat="39.9593330" lon="-4.6571830">
        <ele>420.8</ele>
        <time>2019-07-08T12:59:36Z</time>
      </trkpt>
      <trkpt lat="39.9595350" lon="-4.6566100">
        <ele>421.4</ele>
        <time>2019-07-08T12:59:44Z</time>
      </trkpt>
      <trkpt lat="39.9596790" lon="-4.6561880">
        <ele>421.4</ele>
        <time>2019-07-08T12:59:50Z</time>
      </trkpt>
      <trkpt lat="39.9597510" lon="-4.6559770">
        <ele>421.6</ele>
        <time>2019-07-08T12:59:53Z</time>
      </trkpt>
      <trkpt lat="39.9599200" lon="-4.6554830">
        <ele>421.8</ele>
        <time>2019-07-08T13:00:00Z</time>
      </trkpt>
      <trkpt lat="39.9601540" lon="-4.6547690">
        <ele>422.0</ele>
        <time>2019-07-08T13:00:10Z</time>
      </trkpt>
      <trkpt lat="39.9603660" lon="-4.6541400">
        <ele>422.6</ele>
        <time>2019-07-08T13:00:19Z</time>
      </trkpt>
      <trkpt lat="39.9606040" lon="-4.6534460">
        <ele>422.8</ele>
        <time>2019-07-08T13:00:29Z</time>
      </trkpt>
      <trkpt lat="39.9607750" lon="-4.6529600">
        <ele>423.0</ele>
        <time>2019-07-08T13:00:36Z</time>
      </trkpt>
      <trkpt lat="39.9608280" lon="-4.6528270">
        <ele>423.4</ele>
        <time>2019-07-08T13:00:38Z</time>
      </trkpt>
      <trkpt lat="39.9610720" lon="-4.6523250">
        <ele>423.6</ele>
        <time>2019-07-08T13:00:46Z</time>
      </trkpt>
      <trkpt lat="39.9613480" lon="-4.6518850">
        <ele>424.2</ele>
        <time>2019-07-08T13:00:54Z</time>
      </trkpt>
      <trkpt lat="39.9614190" lon="-4.6517890">
        <ele>424.4</ele>
        <time>2019-07-08T13:00:56Z</time>
      </trkpt>
      <trkpt lat="39.9615590" lon="-4.6517140">
        <ele>424.6</ele>
        <time>2019-07-08T13:00:59Z</time>
      </trkpt>
      <trkpt lat="39.9616970" lon="-4.6518050">
        <ele>424.6</ele>
        <time>2019-07-08T13:01:02Z</time>
      </trkpt>
      <trkpt lat="39.9617560" lon="-4.6520060">
        <ele>424.4</ele>
        <time>2019-07-08T13:01:05Z</time>
      </trkpt>
      <trkpt lat="39.9617870" lon="-4.6522790">
        <ele>424.0</ele>
        <time>2019-07-08T13:01:09Z</time>
      </trkpt>
      <trkpt lat="39.9617930" lon="-4.6523160">
        <ele>424.0</ele>
        <time>2019-07-08T13:01:10Z</time>
      </trkpt>
      <trkpt lat="39.9617950" lon="-4.6523360">
        <ele>423.8</ele>
        <time>2019-07-08T13:01:12Z</time>
      </trkpt>
      <trkpt lat="39.9618090" lon="-4.6524020">
        <ele>424.4</ele>
        <time>2019-07-08T13:02:52Z</time>
      </trkpt>
      <trkpt lat="39.9618120" lon="-4.6524280">
        <ele>424.4</ele>
        <time>2019-07-08T13:02:53Z</time>
      </trkpt>
      <trkpt lat="39.9618430" lon="-4.6526230">
        <ele>424.6</ele>
        <time>2019-07-08T13:02:58Z</time>
      </trkpt>
      <trkpt lat="39.9619020" lon="-4.6529060">
        <ele>424.8</ele>
        <time>2019-07-08T13:03:03Z</time>
      </trkpt>
      <trkpt lat="39.9619170" lon="-4.6529680">
        <ele>424.8</ele>
        <time>2019-07-08T13:03:04Z</time>
      </trkpt>
      <trkpt lat="39.9620390" lon="-4.6534290">
        <ele>424.8</ele>
        <time>2019-07-08T13:03:11Z</time>
      </trkpt>
      <trkpt lat="39.9620590" lon="-4.6534970">
        <ele>425.0</ele>
        <time>2019-07-08T13:03:12Z</time>
      </trkpt>
      <trkpt lat="39.9621250" lon="-4.6537040">
        <ele>424.8</ele>
        <time>2019-07-08T13:03:15Z</time>
      </trkpt>
      <trkpt lat="39.9622130" lon="-4.6539880">
        <ele>424.4</ele>
        <time>2019-07-08T13:03:19Z</time>
      </trkpt>
      <trkpt lat="39.9623440" lon="-4.6544170">
        <ele>423.4</ele>
        <time>2019-07-08T13:03:25Z</time>
      </trkpt>
      <trkpt lat="39.9624010" lon="-4.6546340">
        <ele>423.4</ele>
        <time>2019-07-08T13:03:28Z</time>
      </trkpt>
      <trkpt lat="39.9624780" lon="-4.6549350">
        <ele>423.4</ele>
        <time>2019-07-08T13:03:32Z</time>
      </trkpt>
      <trkpt lat="39.9625590" lon="-4.6552430">
        <ele>423.4</ele>
        <time>2019-07-08T13:03:36Z</time>
      </trkpt>
      <trkpt lat="39.9627310" lon="-4.6559460">
        <ele>423.4</ele>
        <time>2019-07-08T13:03:45Z</time>
      </trkpt>
      <trkpt lat="39.9627520" lon="-4.6560240">
        <ele>423.2</ele>
        <time>2019-07-08T13:03:46Z</time>
      </trkpt>
      <trkpt lat="39.9628990" lon="-4.6566580">
        <ele>423.0</ele>
        <time>2019-07-08T13:03:54Z</time>
      </trkpt>
      <trkpt lat="39.9630750" lon="-4.6573920">
        <ele>423.0</ele>
        <time>2019-07-08T13:04:03Z</time>
      </trkpt>
      <trkpt lat="39.9630950" lon="-4.6574710">
        <ele>423.2</ele>
        <time>2019-07-08T13:04:04Z</time>
      </trkpt>
      <trkpt lat="39.9632250" lon="-4.6580150">
        <ele>422.6</ele>
        <time>2019-07-08T13:04:11Z</time>
      </trkpt>
      <trkpt lat="39.9632780" lon="-4.6582450">
        <ele>422.6</ele>
        <time>2019-07-08T13:04:14Z</time>
      </trkpt>
      <trkpt lat="39.9634360" lon="-4.6589210">
        <ele>423.0</ele>
        <time>2019-07-08T13:04:23Z</time>
      </trkpt>
      <trkpt lat="39.9636030" lon="-4.6596450">
        <ele>422.8</ele>
        <time>2019-07-08T13:04:33Z</time>
      </trkpt>
      <trkpt lat="39.9636180" lon="-4.6597180">
        <ele>422.8</ele>
        <time>2019-07-08T13:04:34Z</time>
      </trkpt>
      <trkpt lat="39.9637610" lon="-4.6603060">
        <ele>422.4</ele>
        <time>2019-07-08T13:04:42Z</time>
      </trkpt>
      <trkpt lat="39.9639340" lon="-4.6610300">
        <ele>422.4</ele>
        <time>2019-07-08T13:04:52Z</time>
      </trkpt>
      <trkpt lat="39.9640700" lon="-4.6615950">
        <ele>422.6</ele>
        <time>2019-07-08T13:05:00Z</time>
      </trkpt>
      <trkpt lat="39.9642340" lon="-4.6622780">
        <ele>422.4</ele>
        <time>2019-07-08T13:05:10Z</time>
      </trkpt>
      <trkpt lat="39.9642510" lon="-4.6623440">
        <ele>422.6</ele>
        <time>2019-07-08T13:05:11Z</time>
      </trkpt>
      <trkpt lat="39.9643960" lon="-4.6629530">
        <ele>422.0</ele>
        <time>2019-07-08T13:05:20Z</time>
      </trkpt>
      <trkpt lat="39.9645630" lon="-4.6636410">
        <ele>422.0</ele>
        <time>2019-07-08T13:05:30Z</time>
      </trkpt>
      <trkpt lat="39.9645980" lon="-4.6637800">
        <ele>422.2</ele>
        <time>2019-07-08T13:05:32Z</time>
      </trkpt>
      <trkpt lat="39.9647510" lon="-4.6643940">
        <ele>422.4</ele>
        <time>2019-07-08T13:05:41Z</time>
      </trkpt>
      <trkpt lat="39.9647830" lon="-4.6645300">
        <ele>422.6</ele>
        <time>2019-07-08T13:05:43Z</time>
      </trkpt>
      <trkpt lat="39.9649110" lon="-4.6650490">
        <ele>422.6</ele>
        <time>2019-07-08T13:05:51Z</time>
      </trkpt>
      <trkpt lat="39.9649730" lon="-4.6652990">
        <ele>422.0</ele>
        <time>2019-07-08T13:05:55Z</time>
      </trkpt>
      <trkpt lat="39.9650530" lon="-4.6656250">
        <ele>422.2</ele>
        <time>2019-07-08T13:06:00Z</time>
      </trkpt>
      <trkpt lat="39.9652220" lon="-4.6663230">
        <ele>422.0</ele>
        <time>2019-07-08T13:06:11Z</time>
      </trkpt>
      <trkpt lat="39.9653760" lon="-4.6669590">
        <ele>422.2</ele>
        <time>2019-07-08T13:06:21Z</time>
      </trkpt>
      <trkpt lat="39.9655160" lon="-4.6675230">
        <ele>422.6</ele>
        <time>2019-07-08T13:06:30Z</time>
      </trkpt>
      <trkpt lat="39.9656580" lon="-4.6681120">
        <ele>422.8</ele>
        <time>2019-07-08T13:06:39Z</time>
      </trkpt>
      <trkpt lat="39.9657920" lon="-4.6686600">
        <ele>422.6</ele>
        <time>2019-07-08T13:06:47Z</time>
      </trkpt>
      <trkpt lat="39.9658260" lon="-4.6687980">
        <ele>422.6</ele>
        <time>2019-07-08T13:06:49Z</time>
      </trkpt>
      <trkpt lat="39.9659910" lon="-4.6694720">
        <ele>422.0</ele>
        <time>2019-07-08T13:06:59Z</time>
      </trkpt>
      <trkpt lat="39.9661580" lon="-4.6701750">
        <ele>422.0</ele>
        <time>2019-07-08T13:07:09Z</time>
      </trkpt>
      <trkpt lat="39.9663080" lon="-4.6707970">
        <ele>422.2</ele>
        <time>2019-07-08T13:07:18Z</time>
      </trkpt>
      <trkpt lat="39.9663560" lon="-4.6710000">
        <ele>422.2</ele>
        <time>2019-07-08T13:07:21Z</time>
      </trkpt>
      <trkpt lat="39.9664510" lon="-4.6713960">
        <ele>422.0</ele>
        <time>2019-07-08T13:07:27Z</time>
      </trkpt>
      <trkpt lat="39.9664670" lon="-4.6714620">
        <ele>422.0</ele>
        <time>2019-07-08T13:07:28Z</time>
      </trkpt>
      <trkpt lat="39.9666200" lon="-4.6721160">
        <ele>422.0</ele>
        <time>2019-07-08T13:07:38Z</time>
      </trkpt>
      <trkpt lat="39.9666640" lon="-4.6723120">
        <ele>421.6</ele>
        <time>2019-07-08T13:07:41Z</time>
      </trkpt>
      <trkpt lat="39.9667110" lon="-4.6725070">
        <ele>421.6</ele>
        <time>2019-07-08T13:07:44Z</time>
      </trkpt>
      <trkpt lat="39.9668040" lon="-4.6729120">
        <ele>421.2</ele>
        <time>2019-07-08T13:07:50Z</time>
      </trkpt>
      <trkpt lat="39.9668890" lon="-4.6732670">
        <ele>421.6</ele>
        <time>2019-07-08T13:07:55Z</time>
      </trkpt>
      <trkpt lat="39.9669620" lon="-4.6735550">
        <ele>421.6</ele>
        <time>2019-07-08T13:07:59Z</time>
      </trkpt>
      <trkpt lat="39.9671410" lon="-4.6742870">
        <ele>420.8</ele>
        <time>2019-07-08T13:08:09Z</time>
      </trkpt>
      <trkpt lat="39.9673130" lon="-4.6749910">
        <ele>421.0</ele>
        <time>2019-07-08T13:08:18Z</time>
      </trkpt>
      <trkpt lat="39.9673700" lon="-4.6752230">
        <ele>421.2</ele>
        <time>2019-07-08T13:08:21Z</time>
      </trkpt>
      <trkpt lat="39.9674790" lon="-4.6756900">
        <ele>421.0</ele>
        <time>2019-07-08T13:08:27Z</time>
      </trkpt>
      <trkpt lat="39.9675940" lon="-4.6761600">
        <ele>421.2</ele>
        <time>2019-07-08T13:08:33Z</time>
      </trkpt>
      <trkpt lat="39.9677550" lon="-4.6768310">
        <ele>421.6</ele>
        <time>2019-07-08T13:08:42Z</time>
      </trkpt>
      <trkpt lat="39.9677880" lon="-4.6769730">
        <ele>421.6</ele>
        <time>2019-07-08T13:08:44Z</time>
      </trkpt>
      <trkpt lat="39.9679560" lon="-4.6776730">
        <ele>420.8</ele>
        <time>2019-07-08T13:08:54Z</time>
      </trkpt>
      <trkpt lat="39.9679910" lon="-4.6778170">
        <ele>420.6</ele>
        <time>2019-07-08T13:08:56Z</time>
      </trkpt>
      <trkpt lat="39.9680080" lon="-4.6778890">
        <ele>420.4</ele>
        <time>2019-07-08T13:08:57Z</time>
      </trkpt>
      <trkpt lat="39.9681310" lon="-4.6784100">
        <ele>420.4</ele>
        <time>2019-07-08T13:09:04Z</time>
      </trkpt>
      <trkpt lat="39.9682040" lon="-4.6787020">
        <ele>420.6</ele>
        <time>2019-07-08T13:09:08Z</time>
      </trkpt>
      <trkpt lat="39.9683720" lon="-4.6793800">
        <ele>420.2</ele>
        <time>2019-07-08T13:09:17Z</time>
      </trkpt>
      <trkpt lat="39.9684100" lon="-4.6795370">
        <ele>420.4</ele>
        <time>2019-07-08T13:09:19Z</time>
      </trkpt>
      <trkpt lat="39.9685840" lon="-4.6802460">
        <ele>420.4</ele>
        <time>2019-07-08T13:09:28Z</time>
      </trkpt>
      <trkpt lat="39.9686610" lon="-4.6805580">
        <ele>420.2</ele>
        <time>2019-07-08T13:09:32Z</time>
      </trkpt>
      <trkpt lat="39.9687170" lon="-4.6807960">
        <ele>420.4</ele>
        <time>2019-07-08T13:09:35Z</time>
      </trkpt>
      <trkpt lat="39.9688300" lon="-4.6812480">
        <ele>420.8</ele>
        <time>2019-07-08T13:09:41Z</time>
      </trkpt>
      <trkpt lat="39.9690070" lon="-4.6819800">
        <ele>420.0</ele>
        <time>2019-07-08T13:09:51Z</time>
      </trkpt>
      <trkpt lat="39.9691110" lon="-4.6824170">
        <ele>419.4</ele>
        <time>2019-07-08T13:09:57Z</time>
      </trkpt>
      <trkpt lat="39.9691840" lon="-4.6827180">
        <ele>419.2</ele>
        <time>2019-07-08T13:10:01Z</time>
      </trkpt>
      <trkpt lat="39.9693460" lon="-4.6833950">
        <ele>419.0</ele>
        <time>2019-07-08T13:10:10Z</time>
      </trkpt>
      <trkpt lat="39.9693640" lon="-4.6834710">
        <ele>419.0</ele>
        <time>2019-07-08T13:10:11Z</time>
      </trkpt>
      <trkpt lat="39.9695290" lon="-4.6841560">
        <ele>419.0</ele>
        <time>2019-07-08T13:10:20Z</time>
      </trkpt>
      <trkpt lat="39.9695480" lon="-4.6842320">
        <ele>419.0</ele>
        <time>2019-07-08T13:10:21Z</time>
      </trkpt>
      <trkpt lat="39.9697130" lon="-4.6849130">
        <ele>419.0</ele>
        <time>2019-07-08T13:10:30Z</time>
      </trkpt>
      <trkpt lat="39.9697310" lon="-4.6849920">
        <ele>419.0</ele>
        <time>2019-07-08T13:10:31Z</time>
      </trkpt>
      <trkpt lat="39.9699000" lon="-4.6857120">
        <ele>419.0</ele>
        <time>2019-07-08T13:10:40Z</time>
      </trkpt>
      <trkpt lat="39.9699570" lon="-4.6859440">
        <ele>419.2</ele>
        <time>2019-07-08T13:10:43Z</time>
      </trkpt>
      <trkpt lat="39.9701200" lon="-4.6866420">
        <ele>418.8</ele>
        <time>2019-07-08T13:10:52Z</time>
      </trkpt>
      <trkpt lat="39.9702980" lon="-4.6873780">
        <ele>418.4</ele>
        <time>2019-07-08T13:11:02Z</time>
      </trkpt>
      <trkpt lat="39.9703540" lon="-4.6875950">
        <ele>418.2</ele>
        <time>2019-07-08T13:11:05Z</time>
      </trkpt>
      <trkpt lat="39.9705300" lon="-4.6883150">
        <ele>418.8</ele>
        <time>2019-07-08T13:11:15Z</time>
      </trkpt>
      <trkpt lat="39.9705610" lon="-4.6884560">
        <ele>418.8</ele>
        <time>2019-07-08T13:11:17Z</time>
      </trkpt>
      <trkpt lat="39.9706870" lon="-4.6890020">
        <ele>418.8</ele>
        <time>2019-07-08T13:11:25Z</time>
      </trkpt>
      <trkpt lat="39.9708190" lon="-4.6895540">
        <ele>418.6</ele>
        <time>2019-07-08T13:11:33Z</time>
      </trkpt>
      <trkpt lat="39.9709780" lon="-4.6902300">
        <ele>419.0</ele>
        <time>2019-07-08T13:11:43Z</time>
      </trkpt>
      <trkpt lat="39.9710080" lon="-4.6903630">
        <ele>419.0</ele>
        <time>2019-07-08T13:11:45Z</time>
      </trkpt>
      <trkpt lat="39.9711840" lon="-4.6910760">
        <ele>418.6</ele>
        <time>2019-07-08T13:11:56Z</time>
      </trkpt>
      <trkpt lat="39.9712180" lon="-4.6912070">
        <ele>418.4</ele>
        <time>2019-07-08T13:11:58Z</time>
      </trkpt>
      <trkpt lat="39.9713920" lon="-4.6919020">
        <ele>418.2</ele>
        <time>2019-07-08T13:12:08Z</time>
      </trkpt>
      <trkpt lat="39.9714100" lon="-4.6919720">
        <ele>418.2</ele>
        <time>2019-07-08T13:12:09Z</time>
      </trkpt>
      <trkpt lat="39.9715170" lon="-4.6923990">
        <ele>418.4</ele>
        <time>2019-07-08T13:12:15Z</time>
      </trkpt>
      <trkpt lat="39.9715850" lon="-4.6926910">
        <ele>418.4</ele>
        <time>2019-07-08T13:12:19Z</time>
      </trkpt>
      <trkpt lat="39.9716940" lon="-4.6931150">
        <ele>418.2</ele>
        <time>2019-07-08T13:12:25Z</time>
      </trkpt>
      <trkpt lat="39.9717760" lon="-4.6934600">
        <ele>417.6</ele>
        <time>2019-07-08T13:12:30Z</time>
      </trkpt>
      <trkpt lat="39.9719410" lon="-4.6941480">
        <ele>418.4</ele>
        <time>2019-07-08T13:12:40Z</time>
      </trkpt>
      <trkpt lat="39.9720550" lon="-4.6945950">
        <ele>418.2</ele>
        <time>2019-07-08T13:12:47Z</time>
      </trkpt>
      <trkpt lat="39.9721620" lon="-4.6950440">
        <ele>418.0</ele>
        <time>2019-07-08T13:12:54Z</time>
      </trkpt>
      <trkpt lat="39.9721950" lon="-4.6951750">
        <ele>417.6</ele>
        <time>2019-07-08T13:12:56Z</time>
      </trkpt>
      <trkpt lat="39.9722610" lon="-4.6954470">
        <ele>417.8</ele>
        <time>2019-07-08T13:13:00Z</time>
      </trkpt>
      <trkpt lat="39.9723210" lon="-4.6957080">
        <ele>418.0</ele>
        <time>2019-07-08T13:13:04Z</time>
      </trkpt>
      <trkpt lat="39.9724500" lon="-4.6962400">
        <ele>418.4</ele>
        <time>2019-07-08T13:13:12Z</time>
      </trkpt>
      <trkpt lat="39.9725780" lon="-4.6967760">
        <ele>418.4</ele>
        <time>2019-07-08T13:13:20Z</time>
      </trkpt>
      <trkpt lat="39.9726370" lon="-4.6970300">
        <ele>418.4</ele>
        <time>2019-07-08T13:13:24Z</time>
      </trkpt>
      <trkpt lat="39.9727120" lon="-4.6973460">
        <ele>417.6</ele>
        <time>2019-07-08T13:13:29Z</time>
      </trkpt>
      <trkpt lat="39.9728340" lon="-4.6978560">
        <ele>418.0</ele>
        <time>2019-07-08T13:13:37Z</time>
      </trkpt>
      <trkpt lat="39.9728490" lon="-4.6979210">
        <ele>418.0</ele>
        <time>2019-07-08T13:13:38Z</time>
      </trkpt>
      <trkpt lat="39.9729430" lon="-4.6983200">
        <ele>417.6</ele>
        <time>2019-07-08T13:13:44Z</time>
      </trkpt>
      <trkpt lat="39.9729900" lon="-4.6985250">
        <ele>417.2</ele>
        <time>2019-07-08T13:13:47Z</time>
      </trkpt>
      <trkpt lat="39.9730060" lon="-4.6985940">
        <ele>417.2</ele>
        <time>2019-07-08T13:13:48Z</time>
      </trkpt>
      <trkpt lat="39.9730550" lon="-4.6988010">
        <ele>417.2</ele>
        <time>2019-07-08T13:13:51Z</time>
      </trkpt>
      <trkpt lat="39.9731740" lon="-4.6992880">
        <ele>417.2</ele>
        <time>2019-07-08T13:13:58Z</time>
      </trkpt>
      <trkpt lat="39.9733400" lon="-4.6999830">
        <ele>417.4</ele>
        <time>2019-07-08T13:14:08Z</time>
      </trkpt>
      <trkpt lat="39.9734920" lon="-4.7006120">
        <ele>417.6</ele>
        <time>2019-07-08T13:14:17Z</time>
      </trkpt>
      <trkpt lat="39.9736640" lon="-4.7013320">
        <ele>417.8</ele>
        <time>2019-07-08T13:14:27Z</time>
      </trkpt>
      <trkpt lat="39.9737310" lon="-4.7016020">
        <ele>418.2</ele>
        <time>2019-07-08T13:14:31Z</time>
      </trkpt>
      <trkpt lat="39.9737960" lon="-4.7018730">
        <ele>418.2</ele>
        <time>2019-07-08T13:14:35Z</time>
      </trkpt>
      <trkpt lat="39.9738450" lon="-4.7020820">
        <ele>418.4</ele>
        <time>2019-07-08T13:14:38Z</time>
      </trkpt>
      <trkpt lat="39.9740170" lon="-4.7027910">
        <ele>418.4</ele>
        <time>2019-07-08T13:14:48Z</time>
      </trkpt>
      <trkpt lat="39.9740680" lon="-4.7030100">
        <ele>418.4</ele>
        <time>2019-07-08T13:14:51Z</time>
      </trkpt>
      <trkpt lat="39.9741220" lon="-4.7032310">
        <ele>418.4</ele>
        <time>2019-07-08T13:14:54Z</time>
      </trkpt>
      <trkpt lat="39.9742450" lon="-4.7037560">
        <ele>418.2</ele>
        <time>2019-07-08T13:15:01Z</time>
      </trkpt>
      <trkpt lat="39.9744090" lon="-4.7044380">
        <ele>418.4</ele>
        <time>2019-07-08T13:15:10Z</time>
      </trkpt>
      <trkpt lat="39.9744800" lon="-4.7047440">
        <ele>418.2</ele>
        <time>2019-07-08T13:15:14Z</time>
      </trkpt>
      <trkpt lat="39.9746450" lon="-4.7054280">
        <ele>418.4</ele>
        <time>2019-07-08T13:15:23Z</time>
      </trkpt>
      <trkpt lat="39.9746800" lon="-4.7055750">
        <ele>418.6</ele>
        <time>2019-07-08T13:15:25Z</time>
      </trkpt>
      <trkpt lat="39.9748330" lon="-4.7062130">
        <ele>418.2</ele>
        <time>2019-07-08T13:15:34Z</time>
      </trkpt>
      <trkpt lat="39.9749700" lon="-4.7067740">
        <ele>418.2</ele>
        <time>2019-07-08T13:15:42Z</time>
      </trkpt>
      <trkpt lat="39.9749870" lon="-4.7068450">
        <ele>418.2</ele>
        <time>2019-07-08T13:15:43Z</time>
      </trkpt>
      <trkpt lat="39.9751530" lon="-4.7075320">
        <ele>418.0</ele>
        <time>2019-07-08T13:15:53Z</time>
      </trkpt>
      <trkpt lat="39.9752920" lon="-4.7080980">
        <ele>418.2</ele>
        <time>2019-07-08T13:16:01Z</time>
      </trkpt>
      <trkpt lat="39.9754720" lon="-4.7088390">
        <ele>418.2</ele>
        <time>2019-07-08T13:16:11Z</time>
      </trkpt>
      <trkpt lat="39.9756370" lon="-4.7095260">
        <ele>418.2</ele>
        <time>2019-07-08T13:16:20Z</time>
      </trkpt>
      <trkpt lat="39.9758050" lon="-4.7102310">
        <ele>418.0</ele>
        <time>2019-07-08T13:16:29Z</time>
      </trkpt>
      <trkpt lat="39.9759730" lon="-4.7109260">
        <ele>417.4</ele>
        <time>2019-07-08T13:16:38Z</time>
      </trkpt>
      <trkpt lat="39.9760270" lon="-4.7111530">
        <ele>417.8</ele>
        <time>2019-07-08T13:16:41Z</time>
      </trkpt>
      <trkpt lat="39.9761740" lon="-4.7117480">
        <ele>418.4</ele>
        <time>2019-07-08T13:16:49Z</time>
      </trkpt>
      <trkpt lat="39.9763380" lon="-4.7124180">
        <ele>418.2</ele>
        <time>2019-07-08T13:16:58Z</time>
      </trkpt>
      <trkpt lat="39.9763900" lon="-4.7126460">
        <ele>418.4</ele>
        <time>2019-07-08T13:17:01Z</time>
      </trkpt>
      <trkpt lat="39.9765550" lon="-4.7133170">
        <ele>417.6</ele>
        <time>2019-07-08T13:17:10Z</time>
      </trkpt>
      <trkpt lat="39.9765880" lon="-4.7134630">
        <ele>417.4</ele>
        <time>2019-07-08T13:17:12Z</time>
      </trkpt>
      <trkpt lat="39.9766590" lon="-4.7137570">
        <ele>417.2</ele>
        <time>2019-07-08T13:17:16Z</time>
      </trkpt>
      <trkpt lat="39.9767530" lon="-4.7141340">
        <ele>416.8</ele>
        <time>2019-07-08T13:17:21Z</time>
      </trkpt>
      <trkpt lat="39.9769110" lon="-4.7147960">
        <ele>417.2</ele>
        <time>2019-07-08T13:17:30Z</time>
      </trkpt>
      <trkpt lat="39.9770280" lon="-4.7152820">
        <ele>417.4</ele>
        <time>2019-07-08T13:17:37Z</time>
      </trkpt>
      <trkpt lat="39.9771220" lon="-4.7156900">
        <ele>417.6</ele>
        <time>2019-07-08T13:17:43Z</time>
      </trkpt>
      <trkpt lat="39.9771860" lon="-4.7159560">
        <ele>416.4</ele>
        <time>2019-07-08T13:17:47Z</time>
      </trkpt>
      <trkpt lat="39.9772550" lon="-4.7162390">
        <ele>416.4</ele>
        <time>2019-07-08T13:17:51Z</time>
      </trkpt>
      <trkpt lat="39.9773060" lon="-4.7164470">
        <ele>416.4</ele>
        <time>2019-07-08T13:17:54Z</time>
      </trkpt>
      <trkpt lat="39.9774170" lon="-4.7169020">
        <ele>416.4</ele>
        <time>2019-07-08T13:18:01Z</time>
      </trkpt>
      <trkpt lat="39.9775370" lon="-4.7174080">
        <ele>416.6</ele>
        <time>2019-07-08T13:18:09Z</time>
      </trkpt>
      <trkpt lat="39.9776540" lon="-4.7179700">
        <ele>416.8</ele>
        <time>2019-07-08T13:18:18Z</time>
      </trkpt>
      <trkpt lat="39.9777230" lon="-4.7183610">
        <ele>416.2</ele>
        <time>2019-07-08T13:18:24Z</time>
      </trkpt>
      <trkpt lat="39.9777450" lon="-4.7184950">
        <ele>416.2</ele>
        <time>2019-07-08T13:18:26Z</time>
      </trkpt>
      <trkpt lat="39.9778320" lon="-4.7190770">
        <ele>416.6</ele>
        <time>2019-07-08T13:18:35Z</time>
      </trkpt>
      <trkpt lat="39.9779020" lon="-4.7197360">
        <ele>416.6</ele>
        <time>2019-07-08T13:18:45Z</time>
      </trkpt>
      <trkpt lat="39.9779510" lon="-4.7203030">
        <ele>416.8</ele>
        <time>2019-07-08T13:18:53Z</time>
      </trkpt>
      <trkpt lat="39.9779950" lon="-4.7209790">
        <ele>417.4</ele>
        <time>2019-07-08T13:19:02Z</time>
      </trkpt>
      <trkpt lat="39.9780090" lon="-4.7212050">
        <ele>417.4</ele>
        <time>2019-07-08T13:19:05Z</time>
      </trkpt>
      <trkpt lat="39.9780560" lon="-4.7219690">
        <ele>417.2</ele>
        <time>2019-07-08T13:19:15Z</time>
      </trkpt>
      <trkpt lat="39.9780600" lon="-4.7220460">
        <ele>417.2</ele>
        <time>2019-07-08T13:19:16Z</time>
      </trkpt>
      <trkpt lat="39.9781070" lon="-4.7228140">
        <ele>417.6</ele>
        <time>2019-07-08T13:19:26Z</time>
      </trkpt>
      <trkpt lat="39.9781140" lon="-4.7228890">
        <ele>417.6</ele>
        <time>2019-07-08T13:19:27Z</time>
      </trkpt>
      <trkpt lat="39.9781610" lon="-4.7236330">
        <ele>417.4</ele>
        <time>2019-07-08T13:19:37Z</time>
      </trkpt>
      <trkpt lat="39.9781660" lon="-4.7237060">
        <ele>417.4</ele>
        <time>2019-07-08T13:19:38Z</time>
      </trkpt>
      <trkpt lat="39.9781710" lon="-4.7237780">
        <ele>417.2</ele>
        <time>2019-07-08T13:19:39Z</time>
      </trkpt>
      <trkpt lat="39.9781940" lon="-4.7241660">
        <ele>416.8</ele>
        <time>2019-07-08T13:19:45Z</time>
      </trkpt>
      <trkpt lat="39.9782320" lon="-4.7246650">
        <ele>416.8</ele>
        <time>2019-07-08T13:19:53Z</time>
      </trkpt>
      <trkpt lat="39.9782840" lon="-4.7254230">
        <ele>416.6</ele>
        <time>2019-07-08T13:20:05Z</time>
      </trkpt>
      <trkpt lat="39.9783230" lon="-4.7260440">
        <ele>416.4</ele>
        <time>2019-07-08T13:20:14Z</time>
      </trkpt>
      <trkpt lat="39.9783700" lon="-4.7267600">
        <ele>416.4</ele>
        <time>2019-07-08T13:20:24Z</time>
      </trkpt>
      <trkpt lat="39.9783740" lon="-4.7268320">
        <ele>416.4</ele>
        <time>2019-07-08T13:20:25Z</time>
      </trkpt>
      <trkpt lat="39.9784200" lon="-4.7275330">
        <ele>416.4</ele>
        <time>2019-07-08T13:20:35Z</time>
      </trkpt>
      <trkpt lat="39.9784260" lon="-4.7276040">
        <ele>416.4</ele>
        <time>2019-07-08T13:20:36Z</time>
      </trkpt>
      <trkpt lat="39.9784690" lon="-4.7282400">
        <ele>416.4</ele>
        <time>2019-07-08T13:20:45Z</time>
      </trkpt>
      <trkpt lat="39.9784810" lon="-4.7284590">
        <ele>416.4</ele>
        <time>2019-07-08T13:20:48Z</time>
      </trkpt>
      <trkpt lat="39.9785020" lon="-4.7288240">
        <ele>416.4</ele>
        <time>2019-07-08T13:20:53Z</time>
      </trkpt>
      <trkpt lat="39.9785450" lon="-4.7294100">
        <ele>417.0</ele>
        <time>2019-07-08T13:21:01Z</time>
      </trkpt>
      <trkpt lat="39.9785960" lon="-4.7300870">
        <ele>416.8</ele>
        <time>2019-07-08T13:21:10Z</time>
      </trkpt>
      <trkpt lat="39.9786260" lon="-4.7307390">
        <ele>417.2</ele>
        <time>2019-07-08T13:21:19Z</time>
      </trkpt>
      <trkpt lat="39.9786690" lon="-4.7313660">
        <ele>416.8</ele>
        <time>2019-07-08T13:21:28Z</time>
      </trkpt>
      <trkpt lat="39.9787040" lon="-4.7318730">
        <ele>416.8</ele>
        <time>2019-07-08T13:21:35Z</time>
      </trkpt>
      <trkpt lat="39.9787480" lon="-4.7325530">
        <ele>416.8</ele>
        <time>2019-07-08T13:21:44Z</time>
      </trkpt>
      <trkpt lat="39.9787990" lon="-4.7333130">
        <ele>416.2</ele>
        <time>2019-07-08T13:21:54Z</time>
      </trkpt>
      <trkpt lat="39.9788480" lon="-4.7340770">
        <ele>416.6</ele>
        <time>2019-07-08T13:22:04Z</time>
      </trkpt>
      <trkpt lat="39.9788840" lon="-4.7348210">
        <ele>416.4</ele>
        <time>2019-07-08T13:22:14Z</time>
      </trkpt>
      <trkpt lat="39.9788850" lon="-4.7348970">
        <ele>416.4</ele>
        <time>2019-07-08T13:22:15Z</time>
      </trkpt>
      <trkpt lat="39.9788690" lon="-4.7355140">
        <ele>416.2</ele>
        <time>2019-07-08T13:22:23Z</time>
      </trkpt>
      <trkpt lat="39.9788630" lon="-4.7355920">
        <ele>416.2</ele>
        <time>2019-07-08T13:22:24Z</time>
      </trkpt>
      <trkpt lat="39.9787750" lon="-4.7361540">
        <ele>416.2</ele>
        <time>2019-07-08T13:22:31Z</time>
      </trkpt>
      <trkpt lat="39.9786430" lon="-4.7366020">
        <ele>416.2</ele>
        <time>2019-07-08T13:22:37Z</time>
      </trkpt>
      <trkpt lat="39.9786160" lon="-4.7366730">
        <ele>416.0</ele>
        <time>2019-07-08T13:22:38Z</time>
      </trkpt>
      <trkpt lat="39.9785200" lon="-4.7369510">
        <ele>415.6</ele>
        <time>2019-07-08T13:22:42Z</time>
      </trkpt>
      <trkpt lat="39.9785050" lon="-4.7370250">
        <ele>415.6</ele>
        <time>2019-07-08T13:22:43Z</time>
      </trkpt>
      <trkpt lat="39.9785000" lon="-4.7371000">
        <ele>415.6</ele>
        <time>2019-07-08T13:22:44Z</time>
      </trkpt>
      <trkpt lat="39.9785640" lon="-4.7373100">
        <ele>415.4</ele>
        <time>2019-07-08T13:22:47Z</time>
      </trkpt>
      <trkpt lat="39.9786530" lon="-4.7374070">
        <ele>415.4</ele>
        <time>2019-07-08T13:22:49Z</time>
      </trkpt>
      <trkpt lat="39.9787460" lon="-4.7375000">
        <ele>415.4</ele>
        <time>2019-07-08T13:22:51Z</time>
      </trkpt>
      <trkpt lat="39.9787870" lon="-4.7375580">
        <ele>415.4</ele>
        <time>2019-07-08T13:22:52Z</time>
      </trkpt>
      <trkpt lat="39.9788690" lon="-4.7378400">
        <ele>415.2</ele>
        <time>2019-07-08T13:22:56Z</time>
      </trkpt>
      <trkpt lat="39.9787950" lon="-4.7380450">
        <ele>415.4</ele>
        <time>2019-07-08T13:22:59Z</time>
      </trkpt>
      <trkpt lat="39.9786500" lon="-4.7381950">
        <ele>415.4</ele>
        <time>2019-07-08T13:23:02Z</time>
      </trkpt>
      <trkpt lat="39.9785950" lon="-4.7382390">
        <ele>415.4</ele>
        <time>2019-07-08T13:23:03Z</time>
      </trkpt>
      <trkpt lat="39.9783740" lon="-4.7384340">
        <ele>416.2</ele>
        <time>2019-07-08T13:23:07Z</time>
      </trkpt>
      <trkpt lat="39.9783300" lon="-4.7384990">
        <ele>416.4</ele>
        <time>2019-07-08T13:23:08Z</time>
      </trkpt>
      <trkpt lat="39.9782260" lon="-4.7387150">
        <ele>416.4</ele>
        <time>2019-07-08T13:23:11Z</time>
      </trkpt>
      <trkpt lat="39.9781710" lon="-4.7388640">
        <ele>416.6</ele>
        <time>2019-07-08T13:23:13Z</time>
      </trkpt>
      <trkpt lat="39.9779500" lon="-4.7395360">
        <ele>416.4</ele>
        <time>2019-07-08T13:23:22Z</time>
      </trkpt>
      <trkpt lat="39.9779250" lon="-4.7396100">
        <ele>416.2</ele>
        <time>2019-07-08T13:23:23Z</time>
      </trkpt>
      <trkpt lat="39.9778770" lon="-4.7397590">
        <ele>416.0</ele>
        <time>2019-07-08T13:23:25Z</time>
      </trkpt>
      <trkpt lat="39.9777080" lon="-4.7402940">
        <ele>416.4</ele>
        <time>2019-07-08T13:23:32Z</time>
      </trkpt>
      <trkpt lat="39.9774980" lon="-4.7409520">
        <ele>416.6</ele>
        <time>2019-07-08T13:23:41Z</time>
      </trkpt>
      <trkpt lat="39.9774010" lon="-4.7412410">
        <ele>416.6</ele>
        <time>2019-07-08T13:23:45Z</time>
      </trkpt>
      <trkpt lat="39.9773090" lon="-4.7415460">
        <ele>416.8</ele>
        <time>2019-07-08T13:23:49Z</time>
      </trkpt>
      <trkpt lat="39.9772280" lon="-4.7417720">
        <ele>417.0</ele>
        <time>2019-07-08T13:23:52Z</time>
      </trkpt>
      <trkpt lat="39.9771570" lon="-4.7420050">
        <ele>417.0</ele>
        <time>2019-07-08T13:23:55Z</time>
      </trkpt>
      <trkpt lat="39.9769290" lon="-4.7427080">
        <ele>417.4</ele>
        <time>2019-07-08T13:24:04Z</time>
      </trkpt>
      <trkpt lat="39.9768570" lon="-4.7429370">
        <ele>417.6</ele>
        <time>2019-07-08T13:24:07Z</time>
      </trkpt>
      <trkpt lat="39.9767050" lon="-4.7434020">
        <ele>417.6</ele>
        <time>2019-07-08T13:24:13Z</time>
      </trkpt>
      <trkpt lat="39.9764810" lon="-4.7441000">
        <ele>417.4</ele>
        <time>2019-07-08T13:24:22Z</time>
      </trkpt>
      <trkpt lat="39.9762930" lon="-4.7446970">
        <ele>417.6</ele>
        <time>2019-07-08T13:24:30Z</time>
      </trkpt>
      <trkpt lat="39.9762700" lon="-4.7447670">
        <ele>417.8</ele>
        <time>2019-07-08T13:24:31Z</time>
      </trkpt>
      <trkpt lat="39.9760810" lon="-4.7453490">
        <ele>417.6</ele>
        <time>2019-07-08T13:24:39Z</time>
      </trkpt>
      <trkpt lat="39.9759260" lon="-4.7458850">
        <ele>418.0</ele>
        <time>2019-07-08T13:24:46Z</time>
      </trkpt>
      <trkpt lat="39.9757090" lon="-4.7465560">
        <ele>418.0</ele>
        <time>2019-07-08T13:24:55Z</time>
      </trkpt>
      <trkpt lat="39.9756600" lon="-4.7467080">
        <ele>417.6</ele>
        <time>2019-07-08T13:24:57Z</time>
      </trkpt>
      <trkpt lat="39.9754460" lon="-4.7473220">
        <ele>418.0</ele>
        <time>2019-07-08T13:25:05Z</time>
      </trkpt>
      <trkpt lat="39.9753920" lon="-4.7474770">
        <ele>418.2</ele>
        <time>2019-07-08T13:25:07Z</time>
      </trkpt>
      <trkpt lat="39.9751800" lon="-4.7482030">
        <ele>418.2</ele>
        <time>2019-07-08T13:25:16Z</time>
      </trkpt>
      <trkpt lat="39.9751570" lon="-4.7482840">
        <ele>418.2</ele>
        <time>2019-07-08T13:25:17Z</time>
      </trkpt>
      <trkpt lat="39.9750070" lon="-4.7487560">
        <ele>418.0</ele>
        <time>2019-07-08T13:25:23Z</time>
      </trkpt>
      <trkpt lat="39.9749830" lon="-4.7488330">
        <ele>417.8</ele>
        <time>2019-07-08T13:25:24Z</time>
      </trkpt>
      <trkpt lat="39.9748550" lon="-4.7492180">
        <ele>417.4</ele>
        <time>2019-07-08T13:25:29Z</time>
      </trkpt>
      <trkpt lat="39.9747000" lon="-4.7496650">
        <ele>417.4</ele>
        <time>2019-07-08T13:25:35Z</time>
      </trkpt>
      <trkpt lat="39.9745050" lon="-4.7502550">
        <ele>417.2</ele>
        <time>2019-07-08T13:25:43Z</time>
      </trkpt>
      <trkpt lat="39.9743940" lon="-4.7506240">
        <ele>417.0</ele>
        <time>2019-07-08T13:25:48Z</time>
      </trkpt>
      <trkpt lat="39.9742970" lon="-4.7509120">
        <ele>416.8</ele>
        <time>2019-07-08T13:25:52Z</time>
      </trkpt>
      <trkpt lat="39.9740890" lon="-4.7515670">
        <ele>417.2</ele>
        <time>2019-07-08T13:26:01Z</time>
      </trkpt>
      <trkpt lat="39.9738590" lon="-4.7522800">
        <ele>416.8</ele>
        <time>2019-07-08T13:26:11Z</time>
      </trkpt>
      <trkpt lat="39.9738110" lon="-4.7524280">
        <ele>416.6</ele>
        <time>2019-07-08T13:26:13Z</time>
      </trkpt>
      <trkpt lat="39.9737200" lon="-4.7528190">
        <ele>416.4</ele>
        <time>2019-07-08T13:26:18Z</time>
      </trkpt>
      <trkpt lat="39.9737080" lon="-4.7529770">
        <ele>416.4</ele>
        <time>2019-07-08T13:26:20Z</time>
      </trkpt>
      <trkpt lat="39.9737300" lon="-4.7531290">
        <ele>415.8</ele>
        <time>2019-07-08T13:26:22Z</time>
      </trkpt>
      <trkpt lat="39.9737540" lon="-4.7532000">
        <ele>415.6</ele>
        <time>2019-07-08T13:26:23Z</time>
      </trkpt>
      <trkpt lat="39.9737680" lon="-4.7534220">
        <ele>415.4</ele>
        <time>2019-07-08T13:26:26Z</time>
      </trkpt>
      <trkpt lat="39.9736450" lon="-4.7535520">
        <ele>415.2</ele>
        <time>2019-07-08T13:26:29Z</time>
      </trkpt>
      <trkpt lat="39.9735910" lon="-4.7535760">
        <ele>415.4</ele>
        <time>2019-07-08T13:26:30Z</time>
      </trkpt>
      <trkpt lat="39.9735400" lon="-4.7536070">
        <ele>415.4</ele>
        <time>2019-07-08T13:26:31Z</time>
      </trkpt>
      <trkpt lat="39.9734610" lon="-4.7537080">
        <ele>415.4</ele>
        <time>2019-07-08T13:26:33Z</time>
      </trkpt>
      <trkpt lat="39.9732710" lon="-4.7541760">
        <ele>416.0</ele>
        <time>2019-07-08T13:26:40Z</time>
      </trkpt>
      <trkpt lat="39.9730460" lon="-4.7548440">
        <ele>415.4</ele>
        <time>2019-07-08T13:26:49Z</time>
      </trkpt>
      <trkpt lat="39.9730210" lon="-4.7549200">
        <ele>415.4</ele>
        <time>2019-07-08T13:26:50Z</time>
      </trkpt>
      <trkpt lat="39.9727980" lon="-4.7556180">
        <ele>415.6</ele>
        <time>2019-07-08T13:26:59Z</time>
      </trkpt>
      <trkpt lat="39.9725940" lon="-4.7562450">
        <ele>415.2</ele>
        <time>2019-07-08T13:27:07Z</time>
      </trkpt>
      <trkpt lat="39.9723610" lon="-4.7569690">
        <ele>414.8</ele>
        <time>2019-07-08T13:27:16Z</time>
      </trkpt>
      <trkpt lat="39.9723080" lon="-4.7571350">
        <ele>414.8</ele>
        <time>2019-07-08T13:27:18Z</time>
      </trkpt>
      <trkpt lat="39.9721830" lon="-4.7575430">
        <ele>415.2</ele>
        <time>2019-07-08T13:27:23Z</time>
      </trkpt>
      <trkpt lat="39.9721020" lon="-4.7577870">
        <ele>414.8</ele>
        <time>2019-07-08T13:27:26Z</time>
      </trkpt>
      <trkpt lat="39.9720740" lon="-4.7578660">
        <ele>414.6</ele>
        <time>2019-07-08T13:27:27Z</time>
      </trkpt>
      <trkpt lat="39.9718910" lon="-4.7584260">
        <ele>414.8</ele>
        <time>2019-07-08T13:27:34Z</time>
      </trkpt>
      <trkpt lat="39.9717200" lon="-4.7590510">
        <ele>414.8</ele>
        <time>2019-07-08T13:27:42Z</time>
      </trkpt>
      <trkpt lat="39.9716440" lon="-4.7595310">
        <ele>415.0</ele>
        <time>2019-07-08T13:27:48Z</time>
      </trkpt>
      <trkpt lat="39.9716220" lon="-4.7598340">
        <ele>415.0</ele>
        <time>2019-07-08T13:27:52Z</time>
      </trkpt>
      <trkpt lat="39.9716250" lon="-4.7602160">
        <ele>415.2</ele>
        <time>2019-07-08T13:27:57Z</time>
      </trkpt>
      <trkpt lat="39.9716400" lon="-4.7604500">
        <ele>415.6</ele>
        <time>2019-07-08T13:28:00Z</time>
      </trkpt>
      <trkpt lat="39.9716810" lon="-4.7608380">
        <ele>415.6</ele>
        <time>2019-07-08T13:28:05Z</time>
      </trkpt>
      <trkpt lat="39.9718120" lon="-4.7615220">
        <ele>415.4</ele>
        <time>2019-07-08T13:28:14Z</time>
      </trkpt>
      <trkpt lat="39.9718860" lon="-4.7619130">
        <ele>415.8</ele>
        <time>2019-07-08T13:28:19Z</time>
      </trkpt>
      <trkpt lat="39.9719190" lon="-4.7620730">
        <ele>416.0</ele>
        <time>2019-07-08T13:28:21Z</time>
      </trkpt>
      <trkpt lat="39.9720560" lon="-4.7627930">
        <ele>416.2</ele>
        <time>2019-07-08T13:28:30Z</time>
      </trkpt>
      <trkpt lat="39.9720880" lon="-4.7629540">
        <ele>416.2</ele>
        <time>2019-07-08T13:28:32Z</time>
      </trkpt>
      <trkpt lat="39.9722270" lon="-4.7636740">
        <ele>416.2</ele>
        <time>2019-07-08T13:28:41Z</time>
      </trkpt>
      <trkpt lat="39.9722420" lon="-4.7637550">
        <ele>416.0</ele>
        <time>2019-07-08T13:28:42Z</time>
      </trkpt>
      <trkpt lat="39.9723820" lon="-4.7644790">
        <ele>416.0</ele>
        <time>2019-07-08T13:28:51Z</time>
      </trkpt>
      <trkpt lat="39.9724120" lon="-4.7646370">
        <ele>416.0</ele>
        <time>2019-07-08T13:28:53Z</time>
      </trkpt>
      <trkpt lat="39.9724820" lon="-4.7651260">
        <ele>415.6</ele>
        <time>2019-07-08T13:28:59Z</time>
      </trkpt>
      <trkpt lat="39.9724780" lon="-4.7658070">
        <ele>416.0</ele>
        <time>2019-07-08T13:29:07Z</time>
      </trkpt>
      <trkpt lat="39.9723870" lon="-4.7663220">
        <ele>416.0</ele>
        <time>2019-07-08T13:29:13Z</time>
      </trkpt>
      <trkpt lat="39.9722090" lon="-4.7668980">
        <ele>415.0</ele>
        <time>2019-07-08T13:29:20Z</time>
      </trkpt>
      <trkpt lat="39.9720360" lon="-4.7673960">
        <ele>414.8</ele>
        <time>2019-07-08T13:29:26Z</time>
      </trkpt>
      <trkpt lat="39.9719810" lon="-4.7675570">
        <ele>414.8</ele>
        <time>2019-07-08T13:29:28Z</time>
      </trkpt>
      <trkpt lat="39.9718790" lon="-4.7678800">
        <ele>414.4</ele>
        <time>2019-07-08T13:29:32Z</time>
      </trkpt>
      <trkpt lat="39.9717410" lon="-4.7682710">
        <ele>414.2</ele>
        <time>2019-07-08T13:29:37Z</time>
      </trkpt>
      <trkpt lat="39.9715220" lon="-4.7689060">
        <ele>414.2</ele>
        <time>2019-07-08T13:29:45Z</time>
      </trkpt>
      <trkpt lat="39.9713590" lon="-4.7693700">
        <ele>414.0</ele>
        <time>2019-07-08T13:29:51Z</time>
      </trkpt>
      <trkpt lat="39.9713040" lon="-4.7695210">
        <ele>413.8</ele>
        <time>2019-07-08T13:29:53Z</time>
      </trkpt>
      <trkpt lat="39.9712250" lon="-4.7697420">
        <ele>413.4</ele>
        <time>2019-07-08T13:29:56Z</time>
      </trkpt>
      <trkpt lat="39.9710790" lon="-4.7701470">
        <ele>412.6</ele>
        <time>2019-07-08T13:30:02Z</time>
      </trkpt>
      <trkpt lat="39.9709830" lon="-4.7704200">
        <ele>412.8</ele>
        <time>2019-07-08T13:30:06Z</time>
      </trkpt>
      <trkpt lat="39.9708590" lon="-4.7707720">
        <ele>412.8</ele>
        <time>2019-07-08T13:30:11Z</time>
      </trkpt>
      <trkpt lat="39.9707300" lon="-4.7711350">
        <ele>413.2</ele>
        <time>2019-07-08T13:30:16Z</time>
      </trkpt>
      <trkpt lat="39.9706260" lon="-4.7714220">
        <ele>413.2</ele>
        <time>2019-07-08T13:30:20Z</time>
      </trkpt>
      <trkpt lat="39.9704300" lon="-4.7719950">
        <ele>413.2</ele>
        <time>2019-07-08T13:30:28Z</time>
      </trkpt>
      <trkpt lat="39.9702000" lon="-4.7726690">
        <ele>413.4</ele>
        <time>2019-07-08T13:30:37Z</time>
      </trkpt>
      <trkpt lat="39.9700730" lon="-4.7730320">
        <ele>413.4</ele>
        <time>2019-07-08T13:30:42Z</time>
      </trkpt>
      <trkpt lat="39.9700040" lon="-4.7732460">
        <ele>413.6</ele>
        <time>2019-07-08T13:30:45Z</time>
      </trkpt>
      <trkpt lat="39.9698120" lon="-4.7738020">
        <ele>413.8</ele>
        <time>2019-07-08T13:30:53Z</time>
      </trkpt>
      <trkpt lat="39.9696540" lon="-4.7742770">
        <ele>413.6</ele>
        <time>2019-07-08T13:31:00Z</time>
      </trkpt>
      <trkpt lat="39.9694260" lon="-4.7749580">
        <ele>413.6</ele>
        <time>2019-07-08T13:31:10Z</time>
      </trkpt>
      <trkpt lat="39.9693850" lon="-4.7750900">
        <ele>414.0</ele>
        <time>2019-07-08T13:31:12Z</time>
      </trkpt>
      <trkpt lat="39.9693010" lon="-4.7753580">
        <ele>413.6</ele>
        <time>2019-07-08T13:31:16Z</time>
      </trkpt>
      <trkpt lat="39.9692200" lon="-4.7756400">
        <ele>413.6</ele>
        <time>2019-07-08T13:31:20Z</time>
      </trkpt>
      <trkpt lat="39.9690240" lon="-4.7763590">
        <ele>413.6</ele>
        <time>2019-07-08T13:31:30Z</time>
      </trkpt>
      <trkpt lat="39.9688400" lon="-4.7770820">
        <ele>413.4</ele>
        <time>2019-07-08T13:31:40Z</time>
      </trkpt>
      <trkpt lat="39.9688220" lon="-4.7771580">
        <ele>413.2</ele>
        <time>2019-07-08T13:31:41Z</time>
      </trkpt>
      <trkpt lat="39.9686550" lon="-4.7778430">
        <ele>413.2</ele>
        <time>2019-07-08T13:31:50Z</time>
      </trkpt>
      <trkpt lat="39.9686350" lon="-4.7779220">
        <ele>413.0</ele>
        <time>2019-07-08T13:31:51Z</time>
      </trkpt>
      <trkpt lat="39.9684790" lon="-4.7785670">
        <ele>413.2</ele>
        <time>2019-07-08T13:31:59Z</time>
      </trkpt>
      <trkpt lat="39.9683690" lon="-4.7790410">
        <ele>413.0</ele>
        <time>2019-07-08T13:32:05Z</time>
      </trkpt>
      <trkpt lat="39.9682070" lon="-4.7797580">
        <ele>412.4</ele>
        <time>2019-07-08T13:32:14Z</time>
      </trkpt>
      <trkpt lat="39.9681880" lon="-4.7798390">
        <ele>412.4</ele>
        <time>2019-07-08T13:32:15Z</time>
      </trkpt>
      <trkpt lat="39.9681150" lon="-4.7801610">
        <ele>412.2</ele>
        <time>2019-07-08T13:32:19Z</time>
      </trkpt>
      <trkpt lat="39.9680180" lon="-4.7806330">
        <ele>412.4</ele>
        <time>2019-07-08T13:32:25Z</time>
      </trkpt>
      <trkpt lat="39.9678690" lon="-4.7813000">
        <ele>411.6</ele>
        <time>2019-07-08T13:32:34Z</time>
      </trkpt>
      <trkpt lat="39.9677180" lon="-4.7819470">
        <ele>411.4</ele>
        <time>2019-07-08T13:32:43Z</time>
      </trkpt>
      <trkpt lat="39.9676200" lon="-4.7825350">
        <ele>411.6</ele>
        <time>2019-07-08T13:32:51Z</time>
      </trkpt>
      <trkpt lat="39.9675960" lon="-4.7828350">
        <ele>411.6</ele>
        <time>2019-07-08T13:32:55Z</time>
      </trkpt>
      <trkpt lat="39.9676160" lon="-4.7829810">
        <ele>411.6</ele>
        <time>2019-07-08T13:32:57Z</time>
      </trkpt>
      <trkpt lat="39.9676690" lon="-4.7831950">
        <ele>411.2</ele>
        <time>2019-07-08T13:33:00Z</time>
      </trkpt>
      <trkpt lat="39.9676760" lon="-4.7833400">
        <ele>411.0</ele>
        <time>2019-07-08T13:33:02Z</time>
      </trkpt>
      <trkpt lat="39.9676640" lon="-4.7834790">
        <ele>411.2</ele>
        <time>2019-07-08T13:33:04Z</time>
      </trkpt>
      <trkpt lat="39.9676500" lon="-4.7835450">
        <ele>411.4</ele>
        <time>2019-07-08T13:33:05Z</time>
      </trkpt>
      <trkpt lat="39.9676040" lon="-4.7836670">
        <ele>411.4</ele>
        <time>2019-07-08T13:33:07Z</time>
      </trkpt>
      <trkpt lat="39.9674540" lon="-4.7838750">
        <ele>411.6</ele>
        <time>2019-07-08T13:33:11Z</time>
      </trkpt>
      <trkpt lat="39.9674120" lon="-4.7839250">
        <ele>411.4</ele>
        <time>2019-07-08T13:33:12Z</time>
      </trkpt>
      <trkpt lat="39.9673710" lon="-4.7839800">
        <ele>411.4</ele>
        <time>2019-07-08T13:33:13Z</time>
      </trkpt>
      <trkpt lat="39.9672740" lon="-4.7841670">
        <ele>411.4</ele>
        <time>2019-07-08T13:33:16Z</time>
      </trkpt>
      <trkpt lat="39.9672510" lon="-4.7842360">
        <ele>411.4</ele>
        <time>2019-07-08T13:33:17Z</time>
      </trkpt>
      <trkpt lat="39.9672290" lon="-4.7843050">
        <ele>411.2</ele>
        <time>2019-07-08T13:33:18Z</time>
      </trkpt>
      <trkpt lat="39.9671660" lon="-4.7845130">
        <ele>411.2</ele>
        <time>2019-07-08T13:33:21Z</time>
      </trkpt>
      <trkpt lat="39.9670960" lon="-4.7847850">
        <ele>411.0</ele>
        <time>2019-07-08T13:33:25Z</time>
      </trkpt>
      <trkpt lat="39.9669830" lon="-4.7853460">
        <ele>411.0</ele>
        <time>2019-07-08T13:33:33Z</time>
      </trkpt>
      <trkpt lat="39.9668920" lon="-4.7858340">
        <ele>410.6</ele>
        <time>2019-07-08T13:33:40Z</time>
      </trkpt>
      <trkpt lat="39.9668800" lon="-4.7859020">
        <ele>410.6</ele>
        <time>2019-07-08T13:33:41Z</time>
      </trkpt>
      <trkpt lat="39.9667950" lon="-4.7863580">
        <ele>410.8</ele>
        <time>2019-07-08T13:33:48Z</time>
      </trkpt>
      <trkpt lat="39.9667010" lon="-4.7868690">
        <ele>410.6</ele>
        <time>2019-07-08T13:33:56Z</time>
      </trkpt>
      <trkpt lat="39.9666240" lon="-4.7873200">
        <ele>410.4</ele>
        <time>2019-07-08T13:34:03Z</time>
      </trkpt>
      <trkpt lat="39.9665370" lon="-4.7878040">
        <ele>410.0</ele>
        <time>2019-07-08T13:34:11Z</time>
      </trkpt>
      <trkpt lat="39.9664280" lon="-4.7884050">
        <ele>410.4</ele>
        <time>2019-07-08T13:34:21Z</time>
      </trkpt>
      <trkpt lat="39.9663170" lon="-4.7890100">
        <ele>410.0</ele>
        <time>2019-07-08T13:34:31Z</time>
      </trkpt>
      <trkpt lat="39.9662150" lon="-4.7895590">
        <ele>410.0</ele>
        <time>2019-07-08T13:34:40Z</time>
      </trkpt>
      <trkpt lat="39.9661290" lon="-4.7900140">
        <ele>409.8</ele>
        <time>2019-07-08T13:34:47Z</time>
      </trkpt>
      <trkpt lat="39.9660100" lon="-4.7906540">
        <ele>409.8</ele>
        <time>2019-07-08T13:34:56Z</time>
      </trkpt>
      <trkpt lat="39.9659390" lon="-4.7910010">
        <ele>409.8</ele>
        <time>2019-07-08T13:35:01Z</time>
      </trkpt>
      <trkpt lat="39.9659010" lon="-4.7912100">
        <ele>409.8</ele>
        <time>2019-07-08T13:35:04Z</time>
      </trkpt>
      <trkpt lat="39.9657720" lon="-4.7919060">
        <ele>409.8</ele>
        <time>2019-07-08T13:35:14Z</time>
      </trkpt>
      <trkpt lat="39.9656400" lon="-4.7926130">
        <ele>409.8</ele>
        <time>2019-07-08T13:35:24Z</time>
      </trkpt>
      <trkpt lat="39.9655080" lon="-4.7933340">
        <ele>409.6</ele>
        <time>2019-07-08T13:35:34Z</time>
      </trkpt>
      <trkpt lat="39.9654360" lon="-4.7937470">
        <ele>409.2</ele>
        <time>2019-07-08T13:35:40Z</time>
      </trkpt>
      <trkpt lat="39.9653460" lon="-4.7942270">
        <ele>409.2</ele>
        <time>2019-07-08T13:35:47Z</time>
      </trkpt>
      <trkpt lat="39.9653080" lon="-4.7944350">
        <ele>409.4</ele>
        <time>2019-07-08T13:35:50Z</time>
      </trkpt>
      <trkpt lat="39.9652380" lon="-4.7947860">
        <ele>409.4</ele>
        <time>2019-07-08T13:35:55Z</time>
      </trkpt>
      <trkpt lat="39.9652230" lon="-4.7948540">
        <ele>409.4</ele>
        <time>2019-07-08T13:35:56Z</time>
      </trkpt>
      <trkpt lat="39.9651930" lon="-4.7950530">
        <ele>409.4</ele>
        <time>2019-07-08T13:35:59Z</time>
      </trkpt>
      <trkpt lat="39.9652430" lon="-4.7952770">
        <ele>409.4</ele>
        <time>2019-07-08T13:36:03Z</time>
      </trkpt>
      <trkpt lat="39.9652930" lon="-4.7953680">
        <ele>409.2</ele>
        <time>2019-07-08T13:36:05Z</time>
      </trkpt>
      <trkpt lat="39.9653160" lon="-4.7954170">
        <ele>409.2</ele>
        <time>2019-07-08T13:36:06Z</time>
      </trkpt>
      <trkpt lat="39.9653600" lon="-4.7955870">
        <ele>409.2</ele>
        <time>2019-07-08T13:36:09Z</time>
      </trkpt>
      <trkpt lat="39.9653560" lon="-4.7957720">
        <ele>409.0</ele>
        <time>2019-07-08T13:36:12Z</time>
      </trkpt>
      <trkpt lat="39.9653440" lon="-4.7958310">
        <ele>409.0</ele>
        <time>2019-07-08T13:36:13Z</time>
      </trkpt>
      <trkpt lat="39.9652400" lon="-4.7960300">
        <ele>409.4</ele>
        <time>2019-07-08T13:36:17Z</time>
      </trkpt>
      <trkpt lat="39.9652030" lon="-4.7960710">
        <ele>409.4</ele>
        <time>2019-07-08T13:36:18Z</time>
      </trkpt>
      <trkpt lat="39.9650360" lon="-4.7963240">
        <ele>409.6</ele>
        <time>2019-07-08T13:36:23Z</time>
      </trkpt>
      <trkpt lat="39.9649550" lon="-4.7966790">
        <ele>409.6</ele>
        <time>2019-07-08T13:36:28Z</time>
      </trkpt>
      <trkpt lat="39.9648580" lon="-4.7973460">
        <ele>409.8</ele>
        <time>2019-07-08T13:36:37Z</time>
      </trkpt>
      <trkpt lat="39.9647990" lon="-4.7978250">
        <ele>409.8</ele>
        <time>2019-07-08T13:36:43Z</time>
      </trkpt>
      <trkpt lat="39.9647440" lon="-4.7982130">
        <ele>409.8</ele>
        <time>2019-07-08T13:36:48Z</time>
      </trkpt>
      <trkpt lat="39.9647260" lon="-4.7983610">
        <ele>409.6</ele>
        <time>2019-07-08T13:36:50Z</time>
      </trkpt>
      <trkpt lat="39.9646830" lon="-4.7986540">
        <ele>409.4</ele>
        <time>2019-07-08T13:36:54Z</time>
      </trkpt>
      <trkpt lat="39.9646350" lon="-4.7990220">
        <ele>409.6</ele>
        <time>2019-07-08T13:36:59Z</time>
      </trkpt>
      <trkpt lat="39.9645920" lon="-4.7993150">
        <ele>409.6</ele>
        <time>2019-07-08T13:37:03Z</time>
      </trkpt>
      <trkpt lat="39.9645480" lon="-4.7996060">
        <ele>409.4</ele>
        <time>2019-07-08T13:37:07Z</time>
      </trkpt>
      <trkpt lat="39.9644560" lon="-4.8003330">
        <ele>409.6</ele>
        <time>2019-07-08T13:37:17Z</time>
      </trkpt>
      <trkpt lat="39.9644490" lon="-4.8004050">
        <ele>409.4</ele>
        <time>2019-07-08T13:37:18Z</time>
      </trkpt>
      <trkpt lat="39.9643710" lon="-4.8009170">
        <ele>409.2</ele>
        <time>2019-07-08T13:37:25Z</time>
      </trkpt>
      <trkpt lat="39.9642870" lon="-4.8015020">
        <ele>409.2</ele>
        <time>2019-07-08T13:37:33Z</time>
      </trkpt>
      <trkpt lat="39.9641740" lon="-4.8022460">
        <ele>409.2</ele>
        <time>2019-07-08T13:37:43Z</time>
      </trkpt>
      <trkpt lat="39.9640950" lon="-4.8028240">
        <ele>409.0</ele>
        <time>2019-07-08T13:37:51Z</time>
      </trkpt>
      <trkpt lat="39.9640250" lon="-4.8033080">
        <ele>408.8</ele>
        <time>2019-07-08T13:37:58Z</time>
      </trkpt>
      <trkpt lat="39.9639400" lon="-4.8039180">
        <ele>409.2</ele>
        <time>2019-07-08T13:38:07Z</time>
      </trkpt>
      <trkpt lat="39.9638810" lon="-4.8043130">
        <ele>408.8</ele>
        <time>2019-07-08T13:38:13Z</time>
      </trkpt>
      <trkpt lat="39.9638770" lon="-4.8043790">
        <ele>409.0</ele>
        <time>2019-07-08T13:38:14Z</time>
      </trkpt>
      <trkpt lat="39.9638910" lon="-4.8046410">
        <ele>408.8</ele>
        <time>2019-07-08T13:38:18Z</time>
      </trkpt>
      <trkpt lat="39.9639070" lon="-4.8047050">
        <ele>408.6</ele>
        <time>2019-07-08T13:38:19Z</time>
      </trkpt>
      <trkpt lat="39.9639840" lon="-4.8048840">
        <ele>408.6</ele>
        <time>2019-07-08T13:38:22Z</time>
      </trkpt>
      <trkpt lat="39.9639830" lon="-4.8051510">
        <ele>408.8</ele>
        <time>2019-07-08T13:38:26Z</time>
      </trkpt>
      <trkpt lat="39.9638640" lon="-4.8053790">
        <ele>408.6</ele>
        <time>2019-07-08T13:38:30Z</time>
      </trkpt>
      <trkpt lat="39.9638310" lon="-4.8054370">
        <ele>408.4</ele>
        <time>2019-07-08T13:38:31Z</time>
      </trkpt>
      <trkpt lat="39.9637300" lon="-4.8056980">
        <ele>408.4</ele>
        <time>2019-07-08T13:38:35Z</time>
      </trkpt>
      <trkpt lat="39.9636770" lon="-4.8060730">
        <ele>408.6</ele>
        <time>2019-07-08T13:38:40Z</time>
      </trkpt>
      <trkpt lat="39.9636320" lon="-4.8066920">
        <ele>408.6</ele>
        <time>2019-07-08T13:38:48Z</time>
      </trkpt>
      <trkpt lat="39.9635820" lon="-4.8074170">
        <ele>408.6</ele>
        <time>2019-07-08T13:38:57Z</time>
      </trkpt>
      <trkpt lat="39.9635770" lon="-4.8074970">
        <ele>408.6</ele>
        <time>2019-07-08T13:38:58Z</time>
      </trkpt>
      <trkpt lat="39.9635560" lon="-4.8077960">
        <ele>408.4</ele>
        <time>2019-07-08T13:39:02Z</time>
      </trkpt>
      <trkpt lat="39.9635390" lon="-4.8080740">
        <ele>408.0</ele>
        <time>2019-07-08T13:39:06Z</time>
      </trkpt>
      <trkpt lat="39.9634940" lon="-4.8085020">
        <ele>408.0</ele>
        <time>2019-07-08T13:39:12Z</time>
      </trkpt>
      <trkpt lat="39.9634870" lon="-4.8086490">
        <ele>408.2</ele>
        <time>2019-07-08T13:39:14Z</time>
      </trkpt>
      <trkpt lat="39.9634640" lon="-4.8090630">
        <ele>408.4</ele>
        <time>2019-07-08T13:39:20Z</time>
      </trkpt>
      <trkpt lat="39.9634260" lon="-4.8096060">
        <ele>408.2</ele>
        <time>2019-07-08T13:39:28Z</time>
      </trkpt>
      <trkpt lat="39.9634130" lon="-4.8097410">
        <ele>408.2</ele>
        <time>2019-07-08T13:39:30Z</time>
      </trkpt>
      <trkpt lat="39.9633700" lon="-4.8101580">
        <ele>408.0</ele>
        <time>2019-07-08T13:39:36Z</time>
      </trkpt>
      <trkpt lat="39.9632960" lon="-4.8106900">
        <ele>408.2</ele>
        <time>2019-07-08T13:39:44Z</time>
      </trkpt>
      <trkpt lat="39.9632140" lon="-4.8111610">
        <ele>408.0</ele>
        <time>2019-07-08T13:39:52Z</time>
      </trkpt>
      <trkpt lat="39.9632100" lon="-4.8112170">
        <ele>408.0</ele>
        <time>2019-07-08T13:39:53Z</time>
      </trkpt>
      <trkpt lat="39.9632160" lon="-4.8114430">
        <ele>408.0</ele>
        <time>2019-07-08T13:39:57Z</time>
      </trkpt>
      <trkpt lat="39.9631570" lon="-4.8116640">
        <ele>408.2</ele>
        <time>2019-07-08T13:40:01Z</time>
      </trkpt>
      <trkpt lat="39.9631150" lon="-4.8117770">
        <ele>408.2</ele>
        <time>2019-07-08T13:40:03Z</time>
      </trkpt>
      <trkpt lat="39.9630670" lon="-4.8120270">
        <ele>408.0</ele>
        <time>2019-07-08T13:40:07Z</time>
      </trkpt>
      <trkpt lat="39.9630210" lon="-4.8122770">
        <ele>408.0</ele>
        <time>2019-07-08T13:40:11Z</time>
      </trkpt>
      <trkpt lat="39.9629620" lon="-4.8125830">
        <ele>407.8</ele>
        <time>2019-07-08T13:40:16Z</time>
      </trkpt>
      <trkpt lat="39.9629100" lon="-4.8128690">
        <ele>407.6</ele>
        <time>2019-07-08T13:40:21Z</time>
      </trkpt>
      <trkpt lat="39.9628980" lon="-4.8129270">
        <ele>407.6</ele>
        <time>2019-07-08T13:40:22Z</time>
      </trkpt>
      <trkpt lat="39.9628880" lon="-4.8129870">
        <ele>407.6</ele>
        <time>2019-07-08T13:40:23Z</time>
      </trkpt>
      <trkpt lat="39.9628510" lon="-4.8132250">
        <ele>407.6</ele>
        <time>2019-07-08T13:40:27Z</time>
      </trkpt>
      <trkpt lat="39.9628400" lon="-4.8132860">
        <ele>407.4</ele>
        <time>2019-07-08T13:40:28Z</time>
      </trkpt>
      <trkpt lat="39.9627600" lon="-4.8137240">
        <ele>407.4</ele>
        <time>2019-07-08T13:40:35Z</time>
      </trkpt>
      <trkpt lat="39.9626610" lon="-4.8143110">
        <ele>407.2</ele>
        <time>2019-07-08T13:40:44Z</time>
      </trkpt>
      <trkpt lat="39.9625670" lon="-4.8148230">
        <ele>407.2</ele>
        <time>2019-07-08T13:40:52Z</time>
      </trkpt>
      <trkpt lat="39.9624980" lon="-4.8152510">
        <ele>407.0</ele>
        <time>2019-07-08T13:40:59Z</time>
      </trkpt>
      <trkpt lat="39.9624210" lon="-4.8156660">
        <ele>407.0</ele>
        <time>2019-07-08T13:41:06Z</time>
      </trkpt>
      <trkpt lat="39.9623870" lon="-4.8158350">
        <ele>407.0</ele>
        <time>2019-07-08T13:41:09Z</time>
      </trkpt>
      <trkpt lat="39.9623170" lon="-4.8162310">
        <ele>407.2</ele>
        <time>2019-07-08T13:41:16Z</time>
      </trkpt>
      <trkpt lat="39.9623070" lon="-4.8162890">
        <ele>407.2</ele>
        <time>2019-07-08T13:41:17Z</time>
      </trkpt>
      <trkpt lat="39.9622870" lon="-4.8164070">
        <ele>407.4</ele>
        <time>2019-07-08T13:41:19Z</time>
      </trkpt>
      <trkpt lat="39.9622920" lon="-4.8165940">
        <ele>407.2</ele>
        <time>2019-07-08T13:41:22Z</time>
      </trkpt>
      <trkpt lat="39.9622990" lon="-4.8167100">
        <ele>407.4</ele>
        <time>2019-07-08T13:41:24Z</time>
      </trkpt>
      <trkpt lat="39.9622750" lon="-4.8168250">
        <ele>407.4</ele>
        <time>2019-07-08T13:41:26Z</time>
      </trkpt>
      <trkpt lat="39.9622070" lon="-4.8169850">
        <ele>407.6</ele>
        <time>2019-07-08T13:41:29Z</time>
      </trkpt>
      <trkpt lat="39.9621680" lon="-4.8171000">
        <ele>407.6</ele>
        <time>2019-07-08T13:41:31Z</time>
      </trkpt>
      <trkpt lat="39.9621580" lon="-4.8171600">
        <ele>407.6</ele>
        <time>2019-07-08T13:41:32Z</time>
      </trkpt>
      <trkpt lat="39.9620810" lon="-4.8176390">
        <ele>407.6</ele>
        <time>2019-07-08T13:41:40Z</time>
      </trkpt>
      <trkpt lat="39.9619810" lon="-4.8181750">
        <ele>407.6</ele>
        <time>2019-07-08T13:41:49Z</time>
      </trkpt>
      <trkpt lat="39.9619140" lon="-4.8185930">
        <ele>407.4</ele>
        <time>2019-07-08T13:41:56Z</time>
      </trkpt>
      <trkpt lat="39.9618710" lon="-4.8187570">
        <ele>407.2</ele>
        <time>2019-07-08T13:41:59Z</time>
      </trkpt>
      <trkpt lat="39.9618280" lon="-4.8188540">
        <ele>407.4</ele>
        <time>2019-07-08T13:42:01Z</time>
      </trkpt>
      <trkpt lat="39.9617370" lon="-4.8190390">
        <ele>407.4</ele>
        <time>2019-07-08T13:42:05Z</time>
      </trkpt>
      <trkpt lat="39.9616730" lon="-4.8190890">
        <ele>407.6</ele>
        <time>2019-07-08T13:42:07Z</time>
      </trkpt>
      <trkpt lat="39.9614980" lon="-4.8190590">
        <ele>407.6</ele>
        <time>2019-07-08T13:42:11Z</time>
      </trkpt>
      <trkpt lat="39.9613990" lon="-4.8188650">
        <ele>407.4</ele>
        <time>2019-07-08T13:42:15Z</time>
      </trkpt>
      <trkpt lat="39.9614230" lon="-4.8187020">
        <ele>407.6</ele>
        <time>2019-07-08T13:42:19Z</time>
      </trkpt>
      <trkpt lat="39.9615360" lon="-4.8185570">
        <ele>407.6</ele>
        <time>2019-07-08T13:42:24Z</time>
      </trkpt>
      <trkpt lat="39.9616820" lon="-4.8186210">
        <ele>407.6</ele>
        <time>2019-07-08T13:42:28Z</time>
      </trkpt>
      <trkpt lat="39.9617920" lon="-4.8187760">
        <ele>407.8</ele>
        <time>2019-07-08T13:42:32Z</time>
      </trkpt>
      <trkpt lat="39.9618350" lon="-4.8189590">
        <ele>407.8</ele>
        <time>2019-07-08T13:42:36Z</time>
      </trkpt>
      <trkpt lat="39.9618440" lon="-4.8190260">
        <ele>407.8</ele>
        <time>2019-07-08T13:42:39Z</time>
      </trkpt>
      <trkpt lat="39.9618500" lon="-4.8190400">
        <ele>407.8</ele>
        <time>2019-07-08T13:42:40Z</time>
      </trkpt>
      <trkpt lat="39.9618560" lon="-4.8190510">
        <ele>407.8</ele>
        <time>2019-07-08T13:42:42Z</time>
      </trkpt>
      <trkpt lat="39.9618200" lon="-4.8190800">
        <ele>407.8</ele>
        <time>2019-07-08T13:43:00Z</time>
      </trkpt>
      <trkpt lat="39.9618000" lon="-4.8190820">
        <ele>407.8</ele>
        <time>2019-07-08T13:43:01Z</time>
      </trkpt>
      <trkpt lat="39.9617540" lon="-4.8190840">
        <ele>408.0</ele>
        <time>2019-07-08T13:43:03Z</time>
      </trkpt>
      <trkpt lat="39.9616730" lon="-4.8191150">
        <ele>408.2</ele>
        <time>2019-07-08T13:43:06Z</time>
      </trkpt>
      <trkpt lat="39.9616420" lon="-4.8191180">
        <ele>408.2</ele>
        <time>2019-07-08T13:43:07Z</time>
      </trkpt>
      <trkpt lat="39.9616100" lon="-4.8191190">
        <ele>408.2</ele>
        <time>2019-07-08T13:43:08Z</time>
      </trkpt>
      <trkpt lat="39.9614610" lon="-4.8191090">
        <ele>408.4</ele>
        <time>2019-07-08T13:43:12Z</time>
      </trkpt>
      <trkpt lat="39.9614200" lon="-4.8191120">
        <ele>408.4</ele>
        <time>2019-07-08T13:43:13Z</time>
      </trkpt>
      <trkpt lat="39.9613780" lon="-4.8191230">
        <ele>408.4</ele>
        <time>2019-07-08T13:43:14Z</time>
      </trkpt>
      <trkpt lat="39.9612430" lon="-4.8192590">
        <ele>408.2</ele>
        <time>2019-07-08T13:43:18Z</time>
      </trkpt>
      <trkpt lat="39.9611990" lon="-4.8193610">
        <ele>408.2</ele>
        <time>2019-07-08T13:43:20Z</time>
      </trkpt>
      <trkpt lat="39.9611030" lon="-4.8195790">
        <ele>408.4</ele>
        <time>2019-07-08T13:43:24Z</time>
      </trkpt>
      <trkpt lat="39.9610280" lon="-4.8197530">
        <ele>408.4</ele>
        <time>2019-07-08T13:43:27Z</time>
      </trkpt>
      <trkpt lat="39.9608990" lon="-4.8200520">
        <ele>408.2</ele>
        <time>2019-07-08T13:43:32Z</time>
      </trkpt>
      <trkpt lat="39.9606900" lon="-4.8205260">
        <ele>408.2</ele>
        <time>2019-07-08T13:43:40Z</time>
      </trkpt>
      <trkpt lat="39.9605480" lon="-4.8208670">
        <ele>408.2</ele>
        <time>2019-07-08T13:43:46Z</time>
      </trkpt>
      <trkpt lat="39.9604210" lon="-4.8212980">
        <ele>408.2</ele>
        <time>2019-07-08T13:43:53Z</time>
      </trkpt>
      <trkpt lat="39.9603940" lon="-4.8214960">
        <ele>408.2</ele>
        <time>2019-07-08T13:43:56Z</time>
      </trkpt>
      <trkpt lat="39.9603910" lon="-4.8216990">
        <ele>408.2</ele>
        <time>2019-07-08T13:43:59Z</time>
      </trkpt>
      <trkpt lat="39.9604060" lon="-4.8221930">
        <ele>408.2</ele>
        <time>2019-07-08T13:44:06Z</time>
      </trkpt>
      <trkpt lat="39.9604140" lon="-4.8225580">
        <ele>408.2</ele>
        <time>2019-07-08T13:44:11Z</time>
      </trkpt>
      <trkpt lat="39.9604240" lon="-4.8227800">
        <ele>408.0</ele>
        <time>2019-07-08T13:44:14Z</time>
      </trkpt>
      <trkpt lat="39.9604320" lon="-4.8233750">
        <ele>407.6</ele>
        <time>2019-07-08T13:44:22Z</time>
      </trkpt>
      <trkpt lat="39.9603980" lon="-4.8240080">
        <ele>408.2</ele>
        <time>2019-07-08T13:44:31Z</time>
      </trkpt>
      <trkpt lat="39.9603780" lon="-4.8244660">
        <ele>408.0</ele>
        <time>2019-07-08T13:44:38Z</time>
      </trkpt>
      <trkpt lat="39.9603630" lon="-4.8248150">
        <ele>408.2</ele>
        <time>2019-07-08T13:44:44Z</time>
      </trkpt>
      <trkpt lat="39.9603600" lon="-4.8248640">
        <ele>408.2</ele>
        <time>2019-07-08T13:44:45Z</time>
      </trkpt>
      <trkpt lat="39.9603440" lon="-4.8249980">
        <ele>408.4</ele>
        <time>2019-07-08T13:44:48Z</time>
      </trkpt>
      <trkpt lat="39.9603240" lon="-4.8250180">
        <ele>408.4</ele>
        <time>2019-07-08T13:44:49Z</time>
      </trkpt>
      <trkpt lat="39.9601820" lon="-4.8251310">
        <ele>408.2</ele>
        <time>2019-07-08T13:44:54Z</time>
      </trkpt>
      <trkpt lat="39.9601150" lon="-4.8252700">
        <ele>408.4</ele>
        <time>2019-07-08T13:44:57Z</time>
      </trkpt>
      <trkpt lat="39.9600680" lon="-4.8253660">
        <ele>408.4</ele>
        <time>2019-07-08T13:44:59Z</time>
      </trkpt>
      <trkpt lat="39.9600430" lon="-4.8254120">
        <ele>408.4</ele>
        <time>2019-07-08T13:45:00Z</time>
      </trkpt>
      <trkpt lat="39.9599380" lon="-4.8255220">
        <ele>408.4</ele>
        <time>2019-07-08T13:45:03Z</time>
      </trkpt>
      <trkpt lat="39.9596660" lon="-4.8257680">
        <ele>408.0</ele>
        <time>2019-07-08T13:45:10Z</time>
      </trkpt>
      <trkpt lat="39.9594460" lon="-4.8259950">
        <ele>407.8</ele>
        <time>2019-07-08T13:45:16Z</time>
      </trkpt>
      <trkpt lat="39.9594100" lon="-4.8260330">
        <ele>407.8</ele>
        <time>2019-07-08T13:45:17Z</time>
      </trkpt>
      <trkpt lat="39.9593000" lon="-4.8261480">
        <ele>408.0</ele>
        <time>2019-07-08T13:45:20Z</time>
      </trkpt>
      <trkpt lat="39.9592220" lon="-4.8261850">
        <ele>407.8</ele>
        <time>2019-07-08T13:45:22Z</time>
      </trkpt>
      <trkpt lat="39.9591650" lon="-4.8262760">
        <ele>407.8</ele>
        <time>2019-07-08T13:45:24Z</time>
      </trkpt>
      <trkpt lat="39.9591260" lon="-4.8262930">
        <ele>407.8</ele>
        <time>2019-07-08T13:45:25Z</time>
      </trkpt>
      <trkpt lat="39.9590870" lon="-4.8263140">
        <ele>407.6</ele>
        <time>2019-07-08T13:45:26Z</time>
      </trkpt>
      <trkpt lat="39.9590180" lon="-4.8263780">
        <ele>407.6</ele>
        <time>2019-07-08T13:45:28Z</time>
      </trkpt>
      <trkpt lat="39.9589130" lon="-4.8264890">
        <ele>407.6</ele>
        <time>2019-07-08T13:45:31Z</time>
      </trkpt>
      <trkpt lat="39.9587520" lon="-4.8267300">
        <ele>407.6</ele>
        <time>2019-07-08T13:45:36Z</time>
      </trkpt>
      <trkpt lat="39.9587230" lon="-4.8267850">
        <ele>407.6</ele>
        <time>2019-07-08T13:45:37Z</time>
      </trkpt>
      <trkpt lat="39.9585110" lon="-4.8271010">
        <ele>408.6</ele>
        <time>2019-07-08T13:45:44Z</time>
      </trkpt>
      <trkpt lat="39.9584780" lon="-4.8271390">
        <ele>408.4</ele>
        <time>2019-07-08T13:45:45Z</time>
      </trkpt>
      <trkpt lat="39.9584470" lon="-4.8271860">
        <ele>408.6</ele>
        <time>2019-07-08T13:45:46Z</time>
      </trkpt>
      <trkpt lat="39.9583710" lon="-4.8273090">
        <ele>408.8</ele>
        <time>2019-07-08T13:45:49Z</time>
      </trkpt>
      <trkpt lat="39.9583470" lon="-4.8273550">
        <ele>408.8</ele>
        <time>2019-07-08T13:45:50Z</time>
      </trkpt>
      <trkpt lat="39.9583560" lon="-4.8275290">
        <ele>408.6</ele>
        <time>2019-07-08T13:45:53Z</time>
      </trkpt>
      <trkpt lat="39.9583970" lon="-4.8276380">
        <ele>407.8</ele>
        <time>2019-07-08T13:45:55Z</time>
      </trkpt>
      <trkpt lat="39.9584190" lon="-4.8276930">
        <ele>407.2</ele>
        <time>2019-07-08T13:45:56Z</time>
      </trkpt>
      <trkpt lat="39.9584650" lon="-4.8277770">
        <ele>406.6</ele>
        <time>2019-07-08T13:45:58Z</time>
      </trkpt>
      <trkpt lat="39.9585240" lon="-4.8278550">
        <ele>406.2</ele>
        <time>2019-07-08T13:46:00Z</time>
      </trkpt>
      <trkpt lat="39.9585540" lon="-4.8278940">
        <ele>406.2</ele>
        <time>2019-07-08T13:46:01Z</time>
      </trkpt>
      <trkpt lat="39.9585950" lon="-4.8279320">
        <ele>406.2</ele>
        <time>2019-07-08T13:46:02Z</time>
      </trkpt>
      <trkpt lat="39.9587160" lon="-4.8280560">
        <ele>406.4</ele>
        <time>2019-07-08T13:46:06Z</time>
      </trkpt>
      <trkpt lat="39.9587580" lon="-4.8281040">
        <ele>406.6</ele>
        <time>2019-07-08T13:46:10Z</time>
      </trkpt>
      <trkpt lat="39.9587610" lon="-4.8281090">
        <ele>406.4</ele>
        <time>2019-07-08T13:46:11Z</time>
      </trkpt>
      <trkpt lat="39.9588380" lon="-4.8282710">
        <ele>406.6</ele>
        <time>2019-07-08T13:46:42Z</time>
      </trkpt>
      <trkpt lat="39.9588520" lon="-4.8283000">
        <ele>406.8</ele>
        <time>2019-07-08T13:46:43Z</time>
      </trkpt>
      <trkpt lat="39.9588700" lon="-4.8283300">
        <ele>406.8</ele>
        <time>2019-07-08T13:46:44Z</time>
      </trkpt>
      <trkpt lat="39.9589410" lon="-4.8284200">
        <ele>407.0</ele>
        <time>2019-07-08T13:46:47Z</time>
      </trkpt>
      <trkpt lat="39.9590170" lon="-4.8285290">
        <ele>407.2</ele>
        <time>2019-07-08T13:46:50Z</time>
      </trkpt>
      <trkpt lat="39.9591040" lon="-4.8286190">
        <ele>407.0</ele>
        <time>2019-07-08T13:46:53Z</time>
      </trkpt>
      <trkpt lat="39.9591310" lon="-4.8286410">
        <ele>407.0</ele>
        <time>2019-07-08T13:46:54Z</time>
      </trkpt>
      <trkpt lat="39.9592030" lon="-4.8287380">
        <ele>407.2</ele>
        <time>2019-07-08T13:46:57Z</time>
      </trkpt>
      <trkpt lat="39.9592560" lon="-4.8288070">
        <ele>407.2</ele>
        <time>2019-07-08T13:46:59Z</time>
      </trkpt>
      <trkpt lat="39.9594220" lon="-4.8290270">
        <ele>408.0</ele>
        <time>2019-07-08T13:47:05Z</time>
      </trkpt>
      <trkpt lat="39.9595660" lon="-4.8292120">
        <ele>408.2</ele>
        <time>2019-07-08T13:47:10Z</time>
      </trkpt>
      <trkpt lat="39.9597240" lon="-4.8294510">
        <ele>408.8</ele>
        <time>2019-07-08T13:47:16Z</time>
      </trkpt>
      <trkpt lat="39.9598500" lon="-4.8297000">
        <ele>408.4</ele>
        <time>2019-07-08T13:47:23Z</time>
      </trkpt>
      <trkpt lat="39.9599550" lon="-4.8299470">
        <ele>408.4</ele>
        <time>2019-07-08T13:47:30Z</time>
      </trkpt>
      <trkpt lat="39.9600100" lon="-4.8300850">
        <ele>408.8</ele>
        <time>2019-07-08T13:47:35Z</time>
      </trkpt>
      <trkpt lat="39.9600150" lon="-4.8301090">
        <ele>409.0</ele>
        <time>2019-07-08T13:47:36Z</time>
      </trkpt>
      <trkpt lat="39.9600630" lon="-4.8303020">
        <ele>409.4</ele>
        <time>2019-07-08T13:47:43Z</time>
      </trkpt>
      <trkpt lat="39.9600940" lon="-4.8303980">
        <ele>409.6</ele>
        <time>2019-07-08T13:47:46Z</time>
      </trkpt>
      <trkpt lat="39.9601030" lon="-4.8304270">
        <ele>409.6</ele>
        <time>2019-07-08T13:47:47Z</time>
      </trkpt>
      <trkpt lat="39.9601490" lon="-4.8304860">
        <ele>410.0</ele>
        <time>2019-07-08T13:47:50Z</time>
      </trkpt>
      <trkpt lat="39.9601770" lon="-4.8305420">
        <ele>410.4</ele>
        <time>2019-07-08T13:47:52Z</time>
      </trkpt>
      <trkpt lat="39.9602860" lon="-4.8307320">
        <ele>410.6</ele>
        <time>2019-07-08T13:47:57Z</time>
      </trkpt>
      <trkpt lat="39.9602870" lon="-4.8307920">
        <ele>410.8</ele>
        <time>2019-07-08T13:47:58Z</time>
      </trkpt>
      <trkpt lat="39.9603050" lon="-4.8309420">
        <ele>410.8</ele>
        <time>2019-07-08T13:48:01Z</time>
      </trkpt>
      <trkpt lat="39.9603880" lon="-4.8311650">
        <ele>411.4</ele>
        <time>2019-07-08T13:48:06Z</time>
      </trkpt>
      <trkpt lat="39.9603570" lon="-4.8313330">
        <ele>411.2</ele>
        <time>2019-07-08T13:48:10Z</time>
      </trkpt>
      <trkpt lat="39.9603380" lon="-4.8313620">
        <ele>411.2</ele>
        <time>2019-07-08T13:48:11Z</time>
      </trkpt>
      <trkpt lat="39.9602930" lon="-4.8315250">
        <ele>411.2</ele>
        <time>2019-07-08T13:48:15Z</time>
      </trkpt>
      <trkpt lat="39.9602640" lon="-4.8318130">
        <ele>410.6</ele>
        <time>2019-07-08T13:48:21Z</time>
      </trkpt>
      <trkpt lat="39.9602450" lon="-4.8319080">
        <ele>410.6</ele>
        <time>2019-07-08T13:48:23Z</time>
      </trkpt>
      <trkpt lat="39.9602140" lon="-4.8320810">
        <ele>410.2</ele>
        <time>2019-07-08T13:48:27Z</time>
      </trkpt>
      <trkpt lat="39.9601900" lon="-4.8324000">
        <ele>409.8</ele>
        <time>2019-07-08T13:48:33Z</time>
      </trkpt>
      <trkpt lat="39.9601750" lon="-4.8326620">
        <ele>409.8</ele>
        <time>2019-07-08T13:48:38Z</time>
      </trkpt>
      <trkpt lat="39.9601680" lon="-4.8327070">
        <ele>409.8</ele>
        <time>2019-07-08T13:48:39Z</time>
      </trkpt>
      <trkpt lat="39.9601570" lon="-4.8327970">
        <ele>409.6</ele>
        <time>2019-07-08T13:48:41Z</time>
      </trkpt>
      <trkpt lat="39.9601470" lon="-4.8328380">
        <ele>409.6</ele>
        <time>2019-07-08T13:48:42Z</time>
      </trkpt>
      <trkpt lat="39.9601310" lon="-4.8328730">
        <ele>409.4</ele>
        <time>2019-07-08T13:48:44Z</time>
      </trkpt>
      <trkpt lat="39.9601100" lon="-4.8328920">
        <ele>409.4</ele>
        <time>2019-07-08T13:48:48Z</time>
      </trkpt>
      <trkpt lat="39.9600520" lon="-4.8329040">
        <ele>409.2</ele>
        <time>2019-07-08T13:49:30Z</time>
      </trkpt>
      <trkpt lat="39.9600290" lon="-4.8329090">
        <ele>409.2</ele>
        <time>2019-07-08T13:49:31Z</time>
      </trkpt>
      <trkpt lat="39.9599490" lon="-4.8329460">
        <ele>409.4</ele>
        <time>2019-07-08T13:49:34Z</time>
      </trkpt>
      <trkpt lat="39.9598770" lon="-4.8329600">
        <ele>409.6</ele>
        <time>2019-07-08T13:49:37Z</time>
      </trkpt>
      <trkpt lat="39.9597100" lon="-4.8329020">
        <ele>410.2</ele>
        <time>2019-07-08T13:49:43Z</time>
      </trkpt>
      <trkpt lat="39.9595890" lon="-4.8328730">
        <ele>410.8</ele>
        <time>2019-07-08T13:49:47Z</time>
      </trkpt>
      <trkpt lat="39.9595560" lon="-4.8328660">
        <ele>411.0</ele>
        <time>2019-07-08T13:49:48Z</time>
      </trkpt>
      <trkpt lat="39.9594450" lon="-4.8328270">
        <ele>411.4</ele>
        <time>2019-07-08T13:49:51Z</time>
      </trkpt>
      <trkpt lat="39.9591830" lon="-4.8327260">
        <ele>412.0</ele>
        <time>2019-07-08T13:49:58Z</time>
      </trkpt>
      <trkpt lat="39.9591460" lon="-4.8327230">
        <ele>412.0</ele>
        <time>2019-07-08T13:49:59Z</time>
      </trkpt>
      <trkpt lat="39.9589920" lon="-4.8326800">
        <ele>412.4</ele>
        <time>2019-07-08T13:50:04Z</time>
      </trkpt>
      <trkpt lat="39.9589480" lon="-4.8326750">
        <ele>412.4</ele>
        <time>2019-07-08T13:50:07Z</time>
      </trkpt>
      <trkpt lat="39.9589340" lon="-4.8326850">
        <ele>412.6</ele>
        <time>2019-07-08T13:50:09Z</time>
      </trkpt>
      <trkpt lat="39.9589310" lon="-4.8326700">
        <ele>412.6</ele>
        <time>2019-07-08T13:50:10Z</time>
      </trkpt>
      <trkpt lat="39.9588860" lon="-4.8326620">
        <ele>412.2</ele>
        <time>2019-07-08T13:50:44Z</time>
      </trkpt>
      <trkpt lat="39.9588730" lon="-4.8326510">
        <ele>412.2</ele>
        <time>2019-07-08T13:50:45Z</time>
      </trkpt>
      <trkpt lat="39.9588630" lon="-4.8326380">
        <ele>412.2</ele>
        <time>2019-07-08T13:50:46Z</time>
      </trkpt>
      <trkpt lat="39.9587700" lon="-4.8325970">
        <ele>412.2</ele>
        <time>2019-07-08T13:50:51Z</time>
      </trkpt>
      <trkpt lat="39.9585860" lon="-4.8325480">
        <ele>412.4</ele>
        <time>2019-07-08T13:50:56Z</time>
      </trkpt>
      <trkpt lat="39.9583370" lon="-4.8325520">
        <ele>412.6</ele>
        <time>2019-07-08T13:51:02Z</time>
      </trkpt>
      <trkpt lat="39.9580470" lon="-4.8325810">
        <ele>412.6</ele>
        <time>2019-07-08T13:51:09Z</time>
      </trkpt>
      <trkpt lat="39.9577580" lon="-4.8326030">
        <ele>412.6</ele>
        <time>2019-07-08T13:51:16Z</time>
      </trkpt>
      <trkpt lat="39.9576530" lon="-4.8326370">
        <ele>412.6</ele>
        <time>2019-07-08T13:51:20Z</time>
      </trkpt>
      <trkpt lat="39.9576250" lon="-4.8326560">
        <ele>412.6</ele>
        <time>2019-07-08T13:51:24Z</time>
      </trkpt>
      <trkpt lat="39.9575410" lon="-4.8326110">
        <ele>413.0</ele>
        <time>2019-07-08T13:51:35Z</time>
      </trkpt>
      <trkpt lat="39.9574190" lon="-4.8325120">
        <ele>412.2</ele>
        <time>2019-07-08T13:51:42Z</time>
      </trkpt>
      <trkpt lat="39.9572990" lon="-4.8325260">
        <ele>412.0</ele>
        <time>2019-07-08T13:51:45Z</time>
      </trkpt>
      <trkpt lat="39.9572530" lon="-4.8325360">
        <ele>412.2</ele>
        <time>2019-07-08T13:51:46Z</time>
      </trkpt>
      <trkpt lat="39.9571150" lon="-4.8325650">
        <ele>412.2</ele>
        <time>2019-07-08T13:51:49Z</time>
      </trkpt>
      <trkpt lat="39.9569010" lon="-4.8325650">
        <ele>411.8</ele>
        <time>2019-07-08T13:51:54Z</time>
      </trkpt>
      <trkpt lat="39.9568620" lon="-4.8325760">
        <ele>411.2</ele>
        <time>2019-07-08T13:51:58Z</time>
      </trkpt>
      <trkpt lat="39.9568600" lon="-4.8325750">
        <ele>411.2</ele>
        <time>2019-07-08T13:51:59Z</time>
      </trkpt>
      <trkpt lat="39.9568270" lon="-4.8325280">
        <ele>413.2</ele>
        <time>2019-07-08T14:26:29Z</time>
      </trkpt>
      <trkpt lat="39.9567830" lon="-4.8325200">
        <ele>413.0</ele>
        <time>2019-07-08T14:26:31Z</time>
      </trkpt>
      <trkpt lat="39.9566410" lon="-4.8325510">
        <ele>412.6</ele>
        <time>2019-07-08T14:26:36Z</time>
      </trkpt>
      <trkpt lat="39.9566240" lon="-4.8325740">
        <ele>412.4</ele>
        <time>2019-07-08T14:26:37Z</time>
      </trkpt>
      <trkpt lat="39.9565870" lon="-4.8326340">
        <ele>412.0</ele>
        <time>2019-07-08T14:26:39Z</time>
      </trkpt>
      <trkpt lat="39.9565530" lon="-4.8326770">
        <ele>411.8</ele>
        <time>2019-07-08T14:26:41Z</time>
      </trkpt>
      <trkpt lat="39.9565270" lon="-4.8326920">
        <ele>411.8</ele>
        <time>2019-07-08T14:26:42Z</time>
      </trkpt>
      <trkpt lat="39.9564340" lon="-4.8327640">
        <ele>411.8</ele>
        <time>2019-07-08T14:26:46Z</time>
      </trkpt>
      <trkpt lat="39.9564110" lon="-4.8327820">
        <ele>411.8</ele>
        <time>2019-07-08T14:26:47Z</time>
      </trkpt>
      <trkpt lat="39.9563310" lon="-4.8329290">
        <ele>411.4</ele>
        <time>2019-07-08T14:26:51Z</time>
      </trkpt>
      <trkpt lat="39.9562980" lon="-4.8330120">
        <ele>411.0</ele>
        <time>2019-07-08T14:26:53Z</time>
      </trkpt>
      <trkpt lat="39.9562740" lon="-4.8330470">
        <ele>410.8</ele>
        <time>2019-07-08T14:26:54Z</time>
      </trkpt>
      <trkpt lat="39.9562260" lon="-4.8330680">
        <ele>410.4</ele>
        <time>2019-07-08T14:26:56Z</time>
      </trkpt>
      <trkpt lat="39.9561800" lon="-4.8331490">
        <ele>410.0</ele>
        <time>2019-07-08T14:26:59Z</time>
      </trkpt>
      <trkpt lat="39.9561740" lon="-4.8331910">
        <ele>409.8</ele>
        <time>2019-07-08T14:27:00Z</time>
      </trkpt>
      <trkpt lat="39.9561650" lon="-4.8332350">
        <ele>409.8</ele>
        <time>2019-07-08T14:27:01Z</time>
      </trkpt>
      <trkpt lat="39.9561490" lon="-4.8333330">
        <ele>409.8</ele>
        <time>2019-07-08T14:27:03Z</time>
      </trkpt>
      <trkpt lat="39.9561300" lon="-4.8334410">
        <ele>409.8</ele>
        <time>2019-07-08T14:27:05Z</time>
      </trkpt>
      <trkpt lat="39.9561210" lon="-4.8334930">
        <ele>409.8</ele>
        <time>2019-07-08T14:27:06Z</time>
      </trkpt>
      <trkpt lat="39.9560640" lon="-4.8338370">
        <ele>409.8</ele>
        <time>2019-07-08T14:27:13Z</time>
      </trkpt>
      <trkpt lat="39.9560060" lon="-4.8340820">
        <ele>409.2</ele>
        <time>2019-07-08T14:27:18Z</time>
      </trkpt>
      <trkpt lat="39.9559780" lon="-4.8342440">
        <ele>408.8</ele>
        <time>2019-07-08T14:27:21Z</time>
      </trkpt>
      <trkpt lat="39.9559700" lon="-4.8342990">
        <ele>408.8</ele>
        <time>2019-07-08T14:27:22Z</time>
      </trkpt>
      <trkpt lat="39.9559100" lon="-4.8346350">
        <ele>408.4</ele>
        <time>2019-07-08T14:27:28Z</time>
      </trkpt>
      <trkpt lat="39.9559020" lon="-4.8346870">
        <ele>408.4</ele>
        <time>2019-07-08T14:27:29Z</time>
      </trkpt>
      <trkpt lat="39.9558610" lon="-4.8349330">
        <ele>407.8</ele>
        <time>2019-07-08T14:27:34Z</time>
      </trkpt>
      <trkpt lat="39.9558280" lon="-4.8351290">
        <ele>407.6</ele>
        <time>2019-07-08T14:27:38Z</time>
      </trkpt>
      <trkpt lat="39.9557420" lon="-4.8356140">
        <ele>407.6</ele>
        <time>2019-07-08T14:27:48Z</time>
      </trkpt>
      <trkpt lat="39.9556590" lon="-4.8360510">
        <ele>407.2</ele>
        <time>2019-07-08T14:27:57Z</time>
      </trkpt>
      <trkpt lat="39.9556490" lon="-4.8361010">
        <ele>407.2</ele>
        <time>2019-07-08T14:27:58Z</time>
      </trkpt>
      <trkpt lat="39.9555500" lon="-4.8364900">
        <ele>407.4</ele>
        <time>2019-07-08T14:28:06Z</time>
      </trkpt>
      <trkpt lat="39.9554180" lon="-4.8368240">
        <ele>407.0</ele>
        <time>2019-07-08T14:28:14Z</time>
      </trkpt>
      <trkpt lat="39.9553670" lon="-4.8369510">
        <ele>406.8</ele>
        <time>2019-07-08T14:28:17Z</time>
      </trkpt>
      <trkpt lat="39.9553030" lon="-4.8371180">
        <ele>406.8</ele>
        <time>2019-07-08T14:28:21Z</time>
      </trkpt>
      <trkpt lat="39.9551720" lon="-4.8374560">
        <ele>406.6</ele>
        <time>2019-07-08T14:28:29Z</time>
      </trkpt>
      <trkpt lat="39.9549920" lon="-4.8379580">
        <ele>407.2</ele>
        <time>2019-07-08T14:28:40Z</time>
      </trkpt>
      <trkpt lat="39.9549030" lon="-4.8382170">
        <ele>408.0</ele>
        <time>2019-07-08T14:28:46Z</time>
      </trkpt>
      <trkpt lat="39.9548890" lon="-4.8382600">
        <ele>408.0</ele>
        <time>2019-07-08T14:28:47Z</time>
      </trkpt>
      <trkpt lat="39.9548370" lon="-4.8384240">
        <ele>408.4</ele>
        <time>2019-07-08T14:28:51Z</time>
      </trkpt>
      <trkpt lat="39.9547470" lon="-4.8386470">
        <ele>408.6</ele>
        <time>2019-07-08T14:28:57Z</time>
      </trkpt>
      <trkpt lat="39.9546670" lon="-4.8387870">
        <ele>409.0</ele>
        <time>2019-07-08T14:29:01Z</time>
      </trkpt>
      <trkpt lat="39.9545990" lon="-4.8388900">
        <ele>409.2</ele>
        <time>2019-07-08T14:29:04Z</time>
      </trkpt>
      <trkpt lat="39.9545540" lon="-4.8390120">
        <ele>409.4</ele>
        <time>2019-07-08T14:29:07Z</time>
      </trkpt>
      <trkpt lat="39.9545140" lon="-4.8392800">
        <ele>409.6</ele>
        <time>2019-07-08T14:29:13Z</time>
      </trkpt>
      <trkpt lat="39.9544420" lon="-4.8395480">
        <ele>409.0</ele>
        <time>2019-07-08T14:29:19Z</time>
      </trkpt>
      <trkpt lat="39.9543480" lon="-4.8398240">
        <ele>409.2</ele>
        <time>2019-07-08T14:29:25Z</time>
      </trkpt>
      <trkpt lat="39.9542300" lon="-4.8402070">
        <ele>408.6</ele>
        <time>2019-07-08T14:29:33Z</time>
      </trkpt>
      <trkpt lat="39.9541650" lon="-4.8403480">
        <ele>409.0</ele>
        <time>2019-07-08T14:29:36Z</time>
      </trkpt>
      <trkpt lat="39.9540700" lon="-4.8405290">
        <ele>409.2</ele>
        <time>2019-07-08T14:29:40Z</time>
      </trkpt>
      <trkpt lat="39.9538720" lon="-4.8409090">
        <ele>409.0</ele>
        <time>2019-07-08T14:29:48Z</time>
      </trkpt>
      <trkpt lat="39.9536710" lon="-4.8412580">
        <ele>408.6</ele>
        <time>2019-07-08T14:29:56Z</time>
      </trkpt>
      <trkpt lat="39.9535160" lon="-4.8415500">
        <ele>408.8</ele>
        <time>2019-07-08T14:30:03Z</time>
      </trkpt>
      <trkpt lat="39.9535040" lon="-4.8415970">
        <ele>408.8</ele>
        <time>2019-07-08T14:30:06Z</time>
      </trkpt>
      <trkpt lat="39.9535120" lon="-4.8416110">
        <ele>408.8</ele>
        <time>2019-07-08T14:30:07Z</time>
      </trkpt>
      <trkpt lat="39.9535200" lon="-4.8417450">
        <ele>408.6</ele>
        <time>2019-07-08T14:30:12Z</time>
      </trkpt>
      <trkpt lat="39.9535240" lon="-4.8418940">
        <ele>408.6</ele>
        <time>2019-07-08T14:30:16Z</time>
      </trkpt>
      <trkpt lat="39.9535070" lon="-4.8420230">
        <ele>408.4</ele>
        <time>2019-07-08T14:30:19Z</time>
      </trkpt>
      <trkpt lat="39.9534920" lon="-4.8421100">
        <ele>408.4</ele>
        <time>2019-07-08T14:30:21Z</time>
      </trkpt>
      <trkpt lat="39.9534270" lon="-4.8422140">
        <ele>408.8</ele>
        <time>2019-07-08T14:30:24Z</time>
      </trkpt>
      <trkpt lat="39.9532220" lon="-4.8423230">
        <ele>408.6</ele>
        <time>2019-07-08T14:30:30Z</time>
      </trkpt>
      <trkpt lat="39.9529820" lon="-4.8423800">
        <ele>408.4</ele>
        <time>2019-07-08T14:30:36Z</time>
      </trkpt>
      <trkpt lat="39.9529430" lon="-4.8423970">
        <ele>408.2</ele>
        <time>2019-07-08T14:30:37Z</time>
      </trkpt>
      <trkpt lat="39.9527320" lon="-4.8425520">
        <ele>408.0</ele>
        <time>2019-07-08T14:30:43Z</time>
      </trkpt>
      <trkpt lat="39.9525180" lon="-4.8427470">
        <ele>408.4</ele>
        <time>2019-07-08T14:30:50Z</time>
      </trkpt>
      <trkpt lat="39.9524860" lon="-4.8427750">
        <ele>408.4</ele>
        <time>2019-07-08T14:30:51Z</time>
      </trkpt>
      <trkpt lat="39.9523850" lon="-4.8428780">
        <ele>408.2</ele>
        <time>2019-07-08T14:30:54Z</time>
      </trkpt>
      <trkpt lat="39.9522760" lon="-4.8429730">
        <ele>408.2</ele>
        <time>2019-07-08T14:30:57Z</time>
      </trkpt>
      <trkpt lat="39.9519780" lon="-4.8432170">
        <ele>408.2</ele>
        <time>2019-07-08T14:31:05Z</time>
      </trkpt>
      <trkpt lat="39.9517720" lon="-4.8433880">
        <ele>408.0</ele>
        <time>2019-07-08T14:31:11Z</time>
      </trkpt>
      <trkpt lat="39.9517390" lon="-4.8433980">
        <ele>408.0</ele>
        <time>2019-07-08T14:31:12Z</time>
      </trkpt>
      <trkpt lat="39.9516020" lon="-4.8433660">
        <ele>407.8</ele>
        <time>2019-07-08T14:31:16Z</time>
      </trkpt>
      <trkpt lat="39.9515590" lon="-4.8433600">
        <ele>407.6</ele>
        <time>2019-07-08T14:31:17Z</time>
      </trkpt>
      <trkpt lat="39.9515160" lon="-4.8433670">
        <ele>407.6</ele>
        <time>2019-07-08T14:31:18Z</time>
      </trkpt>
      <trkpt lat="39.9513920" lon="-4.8434380">
        <ele>407.0</ele>
        <time>2019-07-08T14:31:21Z</time>
      </trkpt>
      <trkpt lat="39.9513130" lon="-4.8435000">
        <ele>406.8</ele>
        <time>2019-07-08T14:31:23Z</time>
      </trkpt>
      <trkpt lat="39.9512410" lon="-4.8435680">
        <ele>406.8</ele>
        <time>2019-07-08T14:31:25Z</time>
      </trkpt>
      <trkpt lat="39.9512030" lon="-4.8435970">
        <ele>406.8</ele>
        <time>2019-07-08T14:31:26Z</time>
      </trkpt>
      <trkpt lat="39.9511250" lon="-4.8436440">
        <ele>406.8</ele>
        <time>2019-07-08T14:31:28Z</time>
      </trkpt>
      <trkpt lat="39.9508990" lon="-4.8438280">
        <ele>406.6</ele>
        <time>2019-07-08T14:31:34Z</time>
      </trkpt>
      <trkpt lat="39.9508180" lon="-4.8439000">
        <ele>406.6</ele>
        <time>2019-07-08T14:31:36Z</time>
      </trkpt>
      <trkpt lat="39.9505760" lon="-4.8441110">
        <ele>406.2</ele>
        <time>2019-07-08T14:31:42Z</time>
      </trkpt>
      <trkpt lat="39.9505430" lon="-4.8441480">
        <ele>406.0</ele>
        <time>2019-07-08T14:31:43Z</time>
      </trkpt>
      <trkpt lat="39.9503750" lon="-4.8443190">
        <ele>406.0</ele>
        <time>2019-07-08T14:31:49Z</time>
      </trkpt>
      <trkpt lat="39.9502990" lon="-4.8443850">
        <ele>406.2</ele>
        <time>2019-07-08T14:31:52Z</time>
      </trkpt>
      <trkpt lat="39.9502400" lon="-4.8444430">
        <ele>406.2</ele>
        <time>2019-07-08T14:31:55Z</time>
      </trkpt>
      <trkpt lat="39.9502370" lon="-4.8444640">
        <ele>406.2</ele>
        <time>2019-07-08T14:31:56Z</time>
      </trkpt>
      <trkpt lat="39.9502570" lon="-4.8445080">
        <ele>406.0</ele>
        <time>2019-07-08T14:31:58Z</time>
      </trkpt>
      <trkpt lat="39.9503280" lon="-4.8445210">
        <ele>405.8</ele>
        <time>2019-07-08T14:32:03Z</time>
      </trkpt>
      <trkpt lat="39.9503420" lon="-4.8445060">
        <ele>405.8</ele>
        <time>2019-07-08T14:32:04Z</time>
      </trkpt>
      <trkpt lat="39.9503750" lon="-4.8444660">
        <ele>406.0</ele>
        <time>2019-07-08T14:32:09Z</time>
      </trkpt>
      <trkpt lat="39.9503710" lon="-4.8445300">
        <ele>406.0</ele>
        <time>2019-07-08T14:32:13Z</time>
      </trkpt>
      <trkpt lat="39.9502960" lon="-4.8445780">
        <ele>406.0</ele>
        <time>2019-07-08T14:32:16Z</time>
      </trkpt>
      <trkpt lat="39.9502620" lon="-4.8445870">
        <ele>406.0</ele>
        <time>2019-07-08T14:32:17Z</time>
      </trkpt>
      <trkpt lat="39.9500460" lon="-4.8447060">
        <ele>406.0</ele>
        <time>2019-07-08T14:32:23Z</time>
      </trkpt>
      <trkpt lat="39.9500150" lon="-4.8447320">
        <ele>406.2</ele>
        <time>2019-07-08T14:32:24Z</time>
      </trkpt>
      <trkpt lat="39.9498170" lon="-4.8448860">
        <ele>406.2</ele>
        <time>2019-07-08T14:32:30Z</time>
      </trkpt>
      <trkpt lat="39.9497460" lon="-4.8449490">
        <ele>406.2</ele>
        <time>2019-07-08T14:32:32Z</time>
      </trkpt>
      <trkpt lat="39.9495980" lon="-4.8450470">
        <ele>406.6</ele>
        <time>2019-07-08T14:32:36Z</time>
      </trkpt>
      <trkpt lat="39.9494360" lon="-4.8450990">
        <ele>406.2</ele>
        <time>2019-07-08T14:32:40Z</time>
      </trkpt>
      <trkpt lat="39.9493280" lon="-4.8451350">
        <ele>406.0</ele>
        <time>2019-07-08T14:32:43Z</time>
      </trkpt>
      <trkpt lat="39.9491860" lon="-4.8452120">
        <ele>406.0</ele>
        <time>2019-07-08T14:32:47Z</time>
      </trkpt>
      <trkpt lat="39.9491080" lon="-4.8452630">
        <ele>406.2</ele>
        <time>2019-07-08T14:32:49Z</time>
      </trkpt>
      <trkpt lat="39.9490290" lon="-4.8453020">
        <ele>406.2</ele>
        <time>2019-07-08T14:32:51Z</time>
      </trkpt>
      <trkpt lat="39.9489510" lon="-4.8453390">
        <ele>406.2</ele>
        <time>2019-07-08T14:32:53Z</time>
      </trkpt>
      <trkpt lat="39.9488740" lon="-4.8453800">
        <ele>406.0</ele>
        <time>2019-07-08T14:32:55Z</time>
      </trkpt>
      <trkpt lat="39.9487140" lon="-4.8454710">
        <ele>406.0</ele>
        <time>2019-07-08T14:32:59Z</time>
      </trkpt>
      <trkpt lat="39.9485800" lon="-4.8455410">
        <ele>406.0</ele>
        <time>2019-07-08T14:33:02Z</time>
      </trkpt>
      <trkpt lat="39.9484010" lon="-4.8456410">
        <ele>406.0</ele>
        <time>2019-07-08T14:33:06Z</time>
      </trkpt>
      <trkpt lat="39.9482740" lon="-4.8457130">
        <ele>406.0</ele>
        <time>2019-07-08T14:33:09Z</time>
      </trkpt>
      <trkpt lat="39.9481610" lon="-4.8458000">
        <ele>406.0</ele>
        <time>2019-07-08T14:33:12Z</time>
      </trkpt>
      <trkpt lat="39.9481200" lon="-4.8458180">
        <ele>406.0</ele>
        <time>2019-07-08T14:33:13Z</time>
      </trkpt>
      <trkpt lat="39.9480820" lon="-4.8458370">
        <ele>406.0</ele>
        <time>2019-07-08T14:33:14Z</time>
      </trkpt>
      <trkpt lat="39.9479590" lon="-4.8459420">
        <ele>406.2</ele>
        <time>2019-07-08T14:33:18Z</time>
      </trkpt>
      <trkpt lat="39.9478640" lon="-4.8460090">
        <ele>406.4</ele>
        <time>2019-07-08T14:33:21Z</time>
      </trkpt>
      <trkpt lat="39.9477920" lon="-4.8460540">
        <ele>406.4</ele>
        <time>2019-07-08T14:33:23Z</time>
      </trkpt>
      <trkpt lat="39.9477530" lon="-4.8460730">
        <ele>406.4</ele>
        <time>2019-07-08T14:33:24Z</time>
      </trkpt>
      <trkpt lat="39.9477140" lon="-4.8460960">
        <ele>406.4</ele>
        <time>2019-07-08T14:33:25Z</time>
      </trkpt>
      <trkpt lat="39.9476210" lon="-4.8461890">
        <ele>406.6</ele>
        <time>2019-07-08T14:33:28Z</time>
      </trkpt>
      <trkpt lat="39.9475620" lon="-4.8462250">
        <ele>406.6</ele>
        <time>2019-07-08T14:33:30Z</time>
      </trkpt>
      <trkpt lat="39.9475000" lon="-4.8462480">
        <ele>406.8</ele>
        <time>2019-07-08T14:33:32Z</time>
      </trkpt>
      <trkpt lat="39.9474340" lon="-4.8462760">
        <ele>406.8</ele>
        <time>2019-07-08T14:33:34Z</time>
      </trkpt>
      <trkpt lat="39.9473320" lon="-4.8463330">
        <ele>406.6</ele>
        <time>2019-07-08T14:33:37Z</time>
      </trkpt>
      <trkpt lat="39.9472560" lon="-4.8463550">
        <ele>406.6</ele>
        <time>2019-07-08T14:33:39Z</time>
      </trkpt>
      <trkpt lat="39.9470930" lon="-4.8464540">
        <ele>406.4</ele>
        <time>2019-07-08T14:33:43Z</time>
      </trkpt>
      <trkpt lat="39.9470140" lon="-4.8465170">
        <ele>406.4</ele>
        <time>2019-07-08T14:33:45Z</time>
      </trkpt>
      <trkpt lat="39.9467800" lon="-4.8466790">
        <ele>406.4</ele>
        <time>2019-07-08T14:33:51Z</time>
      </trkpt>
      <trkpt lat="39.9467470" lon="-4.8467080">
        <ele>406.4</ele>
        <time>2019-07-08T14:33:52Z</time>
      </trkpt>
      <trkpt lat="39.9465560" lon="-4.8468810">
        <ele>406.4</ele>
        <time>2019-07-08T14:33:58Z</time>
      </trkpt>
      <trkpt lat="39.9464580" lon="-4.8470170">
        <ele>406.2</ele>
        <time>2019-07-08T14:34:02Z</time>
      </trkpt>
      <trkpt lat="39.9463010" lon="-4.8471930">
        <ele>406.4</ele>
        <time>2019-07-08T14:34:07Z</time>
      </trkpt>
      <trkpt lat="39.9462370" lon="-4.8472710">
        <ele>406.8</ele>
        <time>2019-07-08T14:34:09Z</time>
      </trkpt>
      <trkpt lat="39.9461200" lon="-4.8474260">
        <ele>406.8</ele>
        <time>2019-07-08T14:34:13Z</time>
      </trkpt>
      <trkpt lat="39.9460280" lon="-4.8475450">
        <ele>406.6</ele>
        <time>2019-07-08T14:34:16Z</time>
      </trkpt>
      <trkpt lat="39.9457800" lon="-4.8478820">
        <ele>406.4</ele>
        <time>2019-07-08T14:34:24Z</time>
      </trkpt>
      <trkpt lat="39.9457540" lon="-4.8479300">
        <ele>406.4</ele>
        <time>2019-07-08T14:34:25Z</time>
      </trkpt>
      <trkpt lat="39.9456480" lon="-4.8481990">
        <ele>406.4</ele>
        <time>2019-07-08T14:34:30Z</time>
      </trkpt>
      <trkpt lat="39.9456320" lon="-4.8482560">
        <ele>406.2</ele>
        <time>2019-07-08T14:34:31Z</time>
      </trkpt>
      <trkpt lat="39.9455730" lon="-4.8484840">
        <ele>406.0</ele>
        <time>2019-07-08T14:34:35Z</time>
      </trkpt>
      <trkpt lat="39.9454930" lon="-4.8486320">
        <ele>406.0</ele>
        <time>2019-07-08T14:34:38Z</time>
      </trkpt>
      <trkpt lat="39.9452980" lon="-4.8488100">
        <ele>405.8</ele>
        <time>2019-07-08T14:34:43Z</time>
      </trkpt>
      <trkpt lat="39.9452550" lon="-4.8488360">
        <ele>405.8</ele>
        <time>2019-07-08T14:34:44Z</time>
      </trkpt>
      <trkpt lat="39.9449480" lon="-4.8489830">
        <ele>406.2</ele>
        <time>2019-07-08T14:34:51Z</time>
      </trkpt>
      <trkpt lat="39.9448130" lon="-4.8490380">
        <ele>406.2</ele>
        <time>2019-07-08T14:34:54Z</time>
      </trkpt>
      <trkpt lat="39.9446920" lon="-4.8491230">
        <ele>405.8</ele>
        <time>2019-07-08T14:34:57Z</time>
      </trkpt>
      <trkpt lat="39.9443440" lon="-4.8493980">
        <ele>405.6</ele>
        <time>2019-07-08T14:35:06Z</time>
      </trkpt>
      <trkpt lat="39.9440020" lon="-4.8496020">
        <ele>405.6</ele>
        <time>2019-07-08T14:35:14Z</time>
      </trkpt>
      <trkpt lat="39.9438490" lon="-4.8497330">
        <ele>405.6</ele>
        <time>2019-07-08T14:35:18Z</time>
      </trkpt>
      <trkpt lat="39.9436990" lon="-4.8498620">
        <ele>405.8</ele>
        <time>2019-07-08T14:35:22Z</time>
      </trkpt>
      <trkpt lat="39.9434040" lon="-4.8501280">
        <ele>405.6</ele>
        <time>2019-07-08T14:35:30Z</time>
      </trkpt>
      <trkpt lat="39.9433650" lon="-4.8501540">
        <ele>405.6</ele>
        <time>2019-07-08T14:35:31Z</time>
      </trkpt>
      <trkpt lat="39.9433270" lon="-4.8501820">
        <ele>405.6</ele>
        <time>2019-07-08T14:35:32Z</time>
      </trkpt>
      <trkpt lat="39.9431900" lon="-4.8503270">
        <ele>405.6</ele>
        <time>2019-07-08T14:35:36Z</time>
      </trkpt>
      <trkpt lat="39.9428780" lon="-4.8506530">
        <ele>405.6</ele>
        <time>2019-07-08T14:35:45Z</time>
      </trkpt>
      <trkpt lat="39.9425860" lon="-4.8509280">
        <ele>405.4</ele>
        <time>2019-07-08T14:35:53Z</time>
      </trkpt>
      <trkpt lat="39.9422820" lon="-4.8512040">
        <ele>405.0</ele>
        <time>2019-07-08T14:36:01Z</time>
      </trkpt>
      <trkpt lat="39.9422050" lon="-4.8512700">
        <ele>404.6</ele>
        <time>2019-07-08T14:36:03Z</time>
      </trkpt>
      <trkpt lat="39.9419770" lon="-4.8514780">
        <ele>404.8</ele>
        <time>2019-07-08T14:36:09Z</time>
      </trkpt>
      <trkpt lat="39.9419020" lon="-4.8515540">
        <ele>404.8</ele>
        <time>2019-07-08T14:36:11Z</time>
      </trkpt>
      <trkpt lat="39.9418690" lon="-4.8515990">
        <ele>404.8</ele>
        <time>2019-07-08T14:36:12Z</time>
      </trkpt>
      <trkpt lat="39.9418080" lon="-4.8516890">
        <ele>404.8</ele>
        <time>2019-07-08T14:36:14Z</time>
      </trkpt>
      <trkpt lat="39.9417730" lon="-4.8517260">
        <ele>405.0</ele>
        <time>2019-07-08T14:36:15Z</time>
      </trkpt>
      <trkpt lat="39.9416690" lon="-4.8518190">
        <ele>405.2</ele>
        <time>2019-07-08T14:36:18Z</time>
      </trkpt>
      <trkpt lat="39.9416380" lon="-4.8518530">
        <ele>405.4</ele>
        <time>2019-07-08T14:36:19Z</time>
      </trkpt>
      <trkpt lat="39.9415730" lon="-4.8519240">
        <ele>405.2</ele>
        <time>2019-07-08T14:36:21Z</time>
      </trkpt>
      <trkpt lat="39.9414720" lon="-4.8520390">
        <ele>405.4</ele>
        <time>2019-07-08T14:36:24Z</time>
      </trkpt>
      <trkpt lat="39.9413580" lon="-4.8522120">
        <ele>405.4</ele>
        <time>2019-07-08T14:36:28Z</time>
      </trkpt>
      <trkpt lat="39.9411580" lon="-4.8525180">
        <ele>405.8</ele>
        <time>2019-07-08T14:36:36Z</time>
      </trkpt>
      <trkpt lat="39.9411340" lon="-4.8525510">
        <ele>406.0</ele>
        <time>2019-07-08T14:36:37Z</time>
      </trkpt>
      <trkpt lat="39.9410680" lon="-4.8526460">
        <ele>406.8</ele>
        <time>2019-07-08T14:36:40Z</time>
      </trkpt>
      <trkpt lat="39.9410460" lon="-4.8526750">
        <ele>407.0</ele>
        <time>2019-07-08T14:36:41Z</time>
      </trkpt>
      <trkpt lat="39.9409780" lon="-4.8527620">
        <ele>407.8</ele>
        <time>2019-07-08T14:36:44Z</time>
      </trkpt>
      <trkpt lat="39.9409300" lon="-4.8528240">
        <ele>408.0</ele>
        <time>2019-07-08T14:36:46Z</time>
      </trkpt>
      <trkpt lat="39.9408170" lon="-4.8529760">
        <ele>409.0</ele>
        <time>2019-07-08T14:36:51Z</time>
      </trkpt>
      <trkpt lat="39.9407930" lon="-4.8530040">
        <ele>409.2</ele>
        <time>2019-07-08T14:36:52Z</time>
      </trkpt>
      <trkpt lat="39.9407510" lon="-4.8530620">
        <ele>409.8</ele>
        <time>2019-07-08T14:36:54Z</time>
      </trkpt>
      <trkpt lat="39.9407120" lon="-4.8531240">
        <ele>410.4</ele>
        <time>2019-07-08T14:36:56Z</time>
      </trkpt>
      <trkpt lat="39.9406250" lon="-4.8532460">
        <ele>411.0</ele>
        <time>2019-07-08T14:37:00Z</time>
      </trkpt>
      <trkpt lat="39.9406040" lon="-4.8532760">
        <ele>411.4</ele>
        <time>2019-07-08T14:37:01Z</time>
      </trkpt>
      <trkpt lat="39.9405100" lon="-4.8533900">
        <ele>412.6</ele>
        <time>2019-07-08T14:37:05Z</time>
      </trkpt>
      <trkpt lat="39.9404650" lon="-4.8534540">
        <ele>412.8</ele>
        <time>2019-07-08T14:37:07Z</time>
      </trkpt>
      <trkpt lat="39.9403990" lon="-4.8535510">
        <ele>413.8</ele>
        <time>2019-07-08T14:37:10Z</time>
      </trkpt>
      <trkpt lat="39.9402630" lon="-4.8537160">
        <ele>414.6</ele>
        <time>2019-07-08T14:37:15Z</time>
      </trkpt>
      <trkpt lat="39.9401270" lon="-4.8539080">
        <ele>414.8</ele>
        <time>2019-07-08T14:37:20Z</time>
      </trkpt>
      <trkpt lat="39.9400620" lon="-4.8539840">
        <ele>414.8</ele>
        <time>2019-07-08T14:37:22Z</time>
      </trkpt>
      <trkpt lat="39.9397550" lon="-4.8543790">
        <ele>414.2</ele>
        <time>2019-07-08T14:37:31Z</time>
      </trkpt>
      <trkpt lat="39.9397140" lon="-4.8544280">
        <ele>414.0</ele>
        <time>2019-07-08T14:37:32Z</time>
      </trkpt>
      <trkpt lat="39.9395390" lon="-4.8546730">
        <ele>413.2</ele>
        <time>2019-07-08T14:37:36Z</time>
      </trkpt>
      <trkpt lat="39.9394880" lon="-4.8547400">
        <ele>412.8</ele>
        <time>2019-07-08T14:37:37Z</time>
      </trkpt>
      <trkpt lat="39.9393240" lon="-4.8549580">
        <ele>411.4</ele>
        <time>2019-07-08T14:37:40Z</time>
      </trkpt>
      <trkpt lat="39.9392640" lon="-4.8550330">
        <ele>410.8</ele>
        <time>2019-07-08T14:37:41Z</time>
      </trkpt>
      <trkpt lat="39.9392010" lon="-4.8551100">
        <ele>410.2</ele>
        <time>2019-07-08T14:37:42Z</time>
      </trkpt>
      <trkpt lat="39.9390730" lon="-4.8552690">
        <ele>409.0</ele>
        <time>2019-07-08T14:37:44Z</time>
      </trkpt>
      <trkpt lat="39.9389380" lon="-4.8554330">
        <ele>407.6</ele>
        <time>2019-07-08T14:37:46Z</time>
      </trkpt>
      <trkpt lat="39.9387990" lon="-4.8555980">
        <ele>406.2</ele>
        <time>2019-07-08T14:37:48Z</time>
      </trkpt>
      <trkpt lat="39.9387300" lon="-4.8556800">
        <ele>405.8</ele>
        <time>2019-07-08T14:37:49Z</time>
      </trkpt>
      <trkpt lat="39.9386630" lon="-4.8557600">
        <ele>405.4</ele>
        <time>2019-07-08T14:37:50Z</time>
      </trkpt>
      <trkpt lat="39.9385980" lon="-4.8558360">
        <ele>405.0</ele>
        <time>2019-07-08T14:37:51Z</time>
      </trkpt>
      <trkpt lat="39.9384710" lon="-4.8559710">
        <ele>404.8</ele>
        <time>2019-07-08T14:37:53Z</time>
      </trkpt>
      <trkpt lat="39.9384120" lon="-4.8560350">
        <ele>404.6</ele>
        <time>2019-07-08T14:37:54Z</time>
      </trkpt>
      <trkpt lat="39.9382940" lon="-4.8561440">
        <ele>404.2</ele>
        <time>2019-07-08T14:37:56Z</time>
      </trkpt>
      <trkpt lat="39.9381840" lon="-4.8562430">
        <ele>404.2</ele>
        <time>2019-07-08T14:37:58Z</time>
      </trkpt>
      <trkpt lat="39.9378990" lon="-4.8565560">
        <ele>404.2</ele>
        <time>2019-07-08T14:38:04Z</time>
      </trkpt>
      <trkpt lat="39.9378130" lon="-4.8566550">
        <ele>404.2</ele>
        <time>2019-07-08T14:38:06Z</time>
      </trkpt>
      <trkpt lat="39.9377350" lon="-4.8567580">
        <ele>404.0</ele>
        <time>2019-07-08T14:38:08Z</time>
      </trkpt>
      <trkpt lat="39.9376630" lon="-4.8568590">
        <ele>403.8</ele>
        <time>2019-07-08T14:38:10Z</time>
      </trkpt>
      <trkpt lat="39.9375960" lon="-4.8569480">
        <ele>403.6</ele>
        <time>2019-07-08T14:38:12Z</time>
      </trkpt>
      <trkpt lat="39.9374940" lon="-4.8570740">
        <ele>403.6</ele>
        <time>2019-07-08T14:38:15Z</time>
      </trkpt>
      <trkpt lat="39.9374200" lon="-4.8571530">
        <ele>403.8</ele>
        <time>2019-07-08T14:38:17Z</time>
      </trkpt>
      <trkpt lat="39.9372040" lon="-4.8573860">
        <ele>404.0</ele>
        <time>2019-07-08T14:38:23Z</time>
      </trkpt>
      <trkpt lat="39.9371680" lon="-4.8574240">
        <ele>404.0</ele>
        <time>2019-07-08T14:38:24Z</time>
      </trkpt>
      <trkpt lat="39.9368770" lon="-4.8577130">
        <ele>404.4</ele>
        <time>2019-07-08T14:38:32Z</time>
      </trkpt>
      <trkpt lat="39.9366870" lon="-4.8579000">
        <ele>404.0</ele>
        <time>2019-07-08T14:38:37Z</time>
      </trkpt>
      <trkpt lat="39.9366080" lon="-4.8579820">
        <ele>404.0</ele>
        <time>2019-07-08T14:38:39Z</time>
      </trkpt>
      <trkpt lat="39.9363230" lon="-4.8582710">
        <ele>404.0</ele>
        <time>2019-07-08T14:38:46Z</time>
      </trkpt>
      <trkpt lat="39.9360060" lon="-4.8585850">
        <ele>404.2</ele>
        <time>2019-07-08T14:38:54Z</time>
      </trkpt>
      <trkpt lat="39.9356600" lon="-4.8589150">
        <ele>403.8</ele>
        <time>2019-07-08T14:39:03Z</time>
      </trkpt>
      <trkpt lat="39.9356200" lon="-4.8589510">
        <ele>403.8</ele>
        <time>2019-07-08T14:39:04Z</time>
      </trkpt>
      <trkpt lat="39.9353460" lon="-4.8592130">
        <ele>404.4</ele>
        <time>2019-07-08T14:39:11Z</time>
      </trkpt>
      <trkpt lat="39.9351470" lon="-4.8593750">
        <ele>405.0</ele>
        <time>2019-07-08T14:39:16Z</time>
      </trkpt>
      <trkpt lat="39.9351080" lon="-4.8594050">
        <ele>405.2</ele>
        <time>2019-07-08T14:39:17Z</time>
      </trkpt>
      <trkpt lat="39.9350700" lon="-4.8594300">
        <ele>405.2</ele>
        <time>2019-07-08T14:39:18Z</time>
      </trkpt>
      <trkpt lat="39.9348880" lon="-4.8595370">
        <ele>406.0</ele>
        <time>2019-07-08T14:39:23Z</time>
      </trkpt>
      <trkpt lat="39.9346960" lon="-4.8596440">
        <ele>406.0</ele>
        <time>2019-07-08T14:39:28Z</time>
      </trkpt>
      <trkpt lat="39.9345720" lon="-4.8596950">
        <ele>406.0</ele>
        <time>2019-07-08T14:39:31Z</time>
      </trkpt>
      <trkpt lat="39.9341500" lon="-4.8598960">
        <ele>406.0</ele>
        <time>2019-07-08T14:39:41Z</time>
      </trkpt>
      <trkpt lat="39.9341070" lon="-4.8599180">
        <ele>405.8</ele>
        <time>2019-07-08T14:39:42Z</time>
      </trkpt>
      <trkpt lat="39.9337130" lon="-4.8601260">
        <ele>405.8</ele>
        <time>2019-07-08T14:39:51Z</time>
      </trkpt>
      <trkpt lat="39.9334140" lon="-4.8602980">
        <ele>405.2</ele>
        <time>2019-07-08T14:39:58Z</time>
      </trkpt>
      <trkpt lat="39.9333720" lon="-4.8603230">
        <ele>405.0</ele>
        <time>2019-07-08T14:39:59Z</time>
      </trkpt>
      <trkpt lat="39.9332890" lon="-4.8603770">
        <ele>404.8</ele>
        <time>2019-07-08T14:40:01Z</time>
      </trkpt>
      <trkpt lat="39.9330630" lon="-4.8604970">
        <ele>404.8</ele>
        <time>2019-07-08T14:40:06Z</time>
      </trkpt>
      <trkpt lat="39.9327380" lon="-4.8606630">
        <ele>405.4</ele>
        <time>2019-07-08T14:40:13Z</time>
      </trkpt>
      <trkpt lat="39.9324230" lon="-4.8608230">
        <ele>405.4</ele>
        <time>2019-07-08T14:40:20Z</time>
      </trkpt>
      <trkpt lat="39.9322580" lon="-4.8609120">
        <ele>405.6</ele>
        <time>2019-07-08T14:40:24Z</time>
      </trkpt>
      <trkpt lat="39.9321720" lon="-4.8609550">
        <ele>405.4</ele>
        <time>2019-07-08T14:40:26Z</time>
      </trkpt>
      <trkpt lat="39.9317550" lon="-4.8611840">
        <ele>405.6</ele>
        <time>2019-07-08T14:40:36Z</time>
      </trkpt>
      <trkpt lat="39.9313760" lon="-4.8613780">
        <ele>406.0</ele>
        <time>2019-07-08T14:40:45Z</time>
      </trkpt>
      <trkpt lat="39.9310340" lon="-4.8615830">
        <ele>405.2</ele>
        <time>2019-07-08T14:40:53Z</time>
      </trkpt>
      <trkpt lat="39.9307380" lon="-4.8617410">
        <ele>405.0</ele>
        <time>2019-07-08T14:41:00Z</time>
      </trkpt>
      <trkpt lat="39.9305100" lon="-4.8618430">
        <ele>404.4</ele>
        <time>2019-07-08T14:41:05Z</time>
      </trkpt>
      <trkpt lat="39.9304660" lon="-4.8618680">
        <ele>404.6</ele>
        <time>2019-07-08T14:41:06Z</time>
      </trkpt>
      <trkpt lat="39.9304230" lon="-4.8618990">
        <ele>404.6</ele>
        <time>2019-07-08T14:41:07Z</time>
      </trkpt>
      <trkpt lat="39.9303210" lon="-4.8620480">
        <ele>404.6</ele>
        <time>2019-07-08T14:41:11Z</time>
      </trkpt>
      <trkpt lat="39.9302340" lon="-4.8621470">
        <ele>404.8</ele>
        <time>2019-07-08T14:41:14Z</time>
      </trkpt>
      <trkpt lat="39.9301670" lon="-4.8622140">
        <ele>404.8</ele>
        <time>2019-07-08T14:41:16Z</time>
      </trkpt>
      <trkpt lat="39.9300390" lon="-4.8623490">
        <ele>404.4</ele>
        <time>2019-07-08T14:41:20Z</time>
      </trkpt>
      <trkpt lat="39.9300030" lon="-4.8623840">
        <ele>404.2</ele>
        <time>2019-07-08T14:41:21Z</time>
      </trkpt>
      <trkpt lat="39.9296730" lon="-4.8626930">
        <ele>404.2</ele>
        <time>2019-07-08T14:41:29Z</time>
      </trkpt>
      <trkpt lat="39.9294550" lon="-4.8628990">
        <ele>404.0</ele>
        <time>2019-07-08T14:41:34Z</time>
      </trkpt>
      <trkpt lat="39.9294090" lon="-4.8629380">
        <ele>404.0</ele>
        <time>2019-07-08T14:41:35Z</time>
      </trkpt>
      <trkpt lat="39.9290460" lon="-4.8632620">
        <ele>403.8</ele>
        <time>2019-07-08T14:41:43Z</time>
      </trkpt>
      <trkpt lat="39.9286030" lon="-4.8636800">
        <ele>403.6</ele>
        <time>2019-07-08T14:41:53Z</time>
      </trkpt>
      <trkpt lat="39.9283410" lon="-4.8639210">
        <ele>403.2</ele>
        <time>2019-07-08T14:41:59Z</time>
      </trkpt>
      <trkpt lat="39.9283000" lon="-4.8639620">
        <ele>402.8</ele>
        <time>2019-07-08T14:42:00Z</time>
      </trkpt>
      <trkpt lat="39.9280800" lon="-4.8641310">
        <ele>402.4</ele>
        <time>2019-07-08T14:42:05Z</time>
      </trkpt>
      <trkpt lat="39.9280020" lon="-4.8642110">
        <ele>402.4</ele>
        <time>2019-07-08T14:42:07Z</time>
      </trkpt>
      <trkpt lat="39.9277370" lon="-4.8644720">
        <ele>402.6</ele>
        <time>2019-07-08T14:42:14Z</time>
      </trkpt>
      <trkpt lat="39.9274310" lon="-4.8647610">
        <ele>402.8</ele>
        <time>2019-07-08T14:42:22Z</time>
      </trkpt>
      <trkpt lat="39.9272390" lon="-4.8649390">
        <ele>402.4</ele>
        <time>2019-07-08T14:42:27Z</time>
      </trkpt>
      <trkpt lat="39.9270850" lon="-4.8650750">
        <ele>402.4</ele>
        <time>2019-07-08T14:42:31Z</time>
      </trkpt>
      <trkpt lat="39.9267240" lon="-4.8654130">
        <ele>402.8</ele>
        <time>2019-07-08T14:42:40Z</time>
      </trkpt>
      <trkpt lat="39.9264210" lon="-4.8656650">
        <ele>402.6</ele>
        <time>2019-07-08T14:42:47Z</time>
      </trkpt>
      <trkpt lat="39.9260490" lon="-4.8660110">
        <ele>403.0</ele>
        <time>2019-07-08T14:42:56Z</time>
      </trkpt>
      <trkpt lat="39.9257970" lon="-4.8662360">
        <ele>403.4</ele>
        <time>2019-07-08T14:43:02Z</time>
      </trkpt>
      <trkpt lat="39.9257140" lon="-4.8663120">
        <ele>403.4</ele>
        <time>2019-07-08T14:43:04Z</time>
      </trkpt>
      <trkpt lat="39.9253840" lon="-4.8666230">
        <ele>403.0</ele>
        <time>2019-07-08T14:43:12Z</time>
      </trkpt>
      <trkpt lat="39.9250070" lon="-4.8669700">
        <ele>402.4</ele>
        <time>2019-07-08T14:43:21Z</time>
      </trkpt>
      <trkpt lat="39.9246620" lon="-4.8672950">
        <ele>402.4</ele>
        <time>2019-07-08T14:43:29Z</time>
      </trkpt>
      <trkpt lat="39.9243960" lon="-4.8675640">
        <ele>402.6</ele>
        <time>2019-07-08T14:43:35Z</time>
      </trkpt>
      <trkpt lat="39.9243020" lon="-4.8676420">
        <ele>402.2</ele>
        <time>2019-07-08T14:43:37Z</time>
      </trkpt>
      <trkpt lat="39.9238900" lon="-4.8680090">
        <ele>402.2</ele>
        <time>2019-07-08T14:43:46Z</time>
      </trkpt>
      <trkpt lat="39.9234730" lon="-4.8684100">
        <ele>402.2</ele>
        <time>2019-07-08T14:43:56Z</time>
      </trkpt>
      <trkpt lat="39.9230760" lon="-4.8687620">
        <ele>403.4</ele>
        <time>2019-07-08T14:44:06Z</time>
      </trkpt>
      <trkpt lat="39.9230340" lon="-4.8687980">
        <ele>403.8</ele>
        <time>2019-07-08T14:44:07Z</time>
      </trkpt>
      <trkpt lat="39.9227860" lon="-4.8690280">
        <ele>403.6</ele>
        <time>2019-07-08T14:44:13Z</time>
      </trkpt>
      <trkpt lat="39.9223960" lon="-4.8693860">
        <ele>403.4</ele>
        <time>2019-07-08T14:44:22Z</time>
      </trkpt>
      <trkpt lat="39.9221620" lon="-4.8696110">
        <ele>404.2</ele>
        <time>2019-07-08T14:44:28Z</time>
      </trkpt>
      <trkpt lat="39.9221200" lon="-4.8696470">
        <ele>404.4</ele>
        <time>2019-07-08T14:44:29Z</time>
      </trkpt>
      <trkpt lat="39.9219910" lon="-4.8697520">
        <ele>404.4</ele>
        <time>2019-07-08T14:44:32Z</time>
      </trkpt>
      <trkpt lat="39.9217960" lon="-4.8698590">
        <ele>403.4</ele>
        <time>2019-07-08T14:44:36Z</time>
      </trkpt>
      <trkpt lat="39.9217430" lon="-4.8698810">
        <ele>403.4</ele>
        <time>2019-07-08T14:44:37Z</time>
      </trkpt>
      <trkpt lat="39.9215980" lon="-4.8699900">
        <ele>403.2</ele>
        <time>2019-07-08T14:44:40Z</time>
      </trkpt>
      <trkpt lat="39.9215560" lon="-4.8700380">
        <ele>403.2</ele>
        <time>2019-07-08T14:44:41Z</time>
      </trkpt>
      <trkpt lat="39.9215130" lon="-4.8700830">
        <ele>403.4</ele>
        <time>2019-07-08T14:44:42Z</time>
      </trkpt>
      <trkpt lat="39.9213710" lon="-4.8702010">
        <ele>404.0</ele>
        <time>2019-07-08T14:44:45Z</time>
      </trkpt>
      <trkpt lat="39.9212480" lon="-4.8703490">
        <ele>403.8</ele>
        <time>2019-07-08T14:44:48Z</time>
      </trkpt>
      <trkpt lat="39.9211930" lon="-4.8704750">
        <ele>403.4</ele>
        <time>2019-07-08T14:44:50Z</time>
      </trkpt>
      <trkpt lat="39.9209590" lon="-4.8709890">
        <ele>403.2</ele>
        <time>2019-07-08T14:44:58Z</time>
      </trkpt>
      <trkpt lat="39.9208880" lon="-4.8711170">
        <ele>402.8</ele>
        <time>2019-07-08T14:45:00Z</time>
      </trkpt>
      <trkpt lat="39.9208480" lon="-4.8711770">
        <ele>402.6</ele>
        <time>2019-07-08T14:45:01Z</time>
      </trkpt>
      <trkpt lat="39.9207090" lon="-4.8713400">
        <ele>402.6</ele>
        <time>2019-07-08T14:45:04Z</time>
      </trkpt>
      <trkpt lat="39.9205040" lon="-4.8715280">
        <ele>403.0</ele>
        <time>2019-07-08T14:45:08Z</time>
      </trkpt>
      <trkpt lat="39.9204650" lon="-4.8715860">
        <ele>402.8</ele>
        <time>2019-07-08T14:45:09Z</time>
      </trkpt>
      <trkpt lat="39.9204390" lon="-4.8716460">
        <ele>402.6</ele>
        <time>2019-07-08T14:45:10Z</time>
      </trkpt>
      <trkpt lat="39.9204170" lon="-4.8717680">
        <ele>402.2</ele>
        <time>2019-07-08T14:45:12Z</time>
      </trkpt>
      <trkpt lat="39.9203540" lon="-4.8719420">
        <ele>401.6</ele>
        <time>2019-07-08T14:45:15Z</time>
      </trkpt>
      <trkpt lat="39.9202800" lon="-4.8720370">
        <ele>401.2</ele>
        <time>2019-07-08T14:45:17Z</time>
      </trkpt>
      <trkpt lat="39.9201180" lon="-4.8722240">
        <ele>401.0</ele>
        <time>2019-07-08T14:45:21Z</time>
      </trkpt>
      <trkpt lat="39.9200440" lon="-4.8723230">
        <ele>401.0</ele>
        <time>2019-07-08T14:45:23Z</time>
      </trkpt>
      <trkpt lat="39.9199130" lon="-4.8725220">
        <ele>401.4</ele>
        <time>2019-07-08T14:45:27Z</time>
      </trkpt>
      <trkpt lat="39.9196570" lon="-4.8728360">
        <ele>401.2</ele>
        <time>2019-07-08T14:45:34Z</time>
      </trkpt>
      <trkpt lat="39.9194110" lon="-4.8731660">
        <ele>401.2</ele>
        <time>2019-07-08T14:45:41Z</time>
      </trkpt>
      <trkpt lat="39.9191620" lon="-4.8734830">
        <ele>401.8</ele>
        <time>2019-07-08T14:45:48Z</time>
      </trkpt>
      <trkpt lat="39.9191210" lon="-4.8735210">
        <ele>401.8</ele>
        <time>2019-07-08T14:45:49Z</time>
      </trkpt>
      <trkpt lat="39.9190800" lon="-4.8735630">
        <ele>402.0</ele>
        <time>2019-07-08T14:45:50Z</time>
      </trkpt>
      <trkpt lat="39.9189280" lon="-4.8737520">
        <ele>402.4</ele>
        <time>2019-07-08T14:45:54Z</time>
      </trkpt>
      <trkpt lat="39.9186390" lon="-4.8741140">
        <ele>402.4</ele>
        <time>2019-07-08T14:46:02Z</time>
      </trkpt>
      <trkpt lat="39.9183090" lon="-4.8745000">
        <ele>401.8</ele>
        <time>2019-07-08T14:46:10Z</time>
      </trkpt>
      <trkpt lat="39.9180730" lon="-4.8747980">
        <ele>401.6</ele>
        <time>2019-07-08T14:46:16Z</time>
      </trkpt>
      <trkpt lat="39.9178730" lon="-4.8750400">
        <ele>401.8</ele>
        <time>2019-07-08T14:46:21Z</time>
      </trkpt>
      <trkpt lat="39.9178330" lon="-4.8750880">
        <ele>401.8</ele>
        <time>2019-07-08T14:46:22Z</time>
      </trkpt>
      <trkpt lat="39.9175310" lon="-4.8754790">
        <ele>401.4</ele>
        <time>2019-07-08T14:46:30Z</time>
      </trkpt>
      <trkpt lat="39.9172730" lon="-4.8758830">
        <ele>402.0</ele>
        <time>2019-07-08T14:46:38Z</time>
      </trkpt>
      <trkpt lat="39.9170550" lon="-4.8762450">
        <ele>402.2</ele>
        <time>2019-07-08T14:46:45Z</time>
      </trkpt>
      <trkpt lat="39.9168160" lon="-4.8766210">
        <ele>401.2</ele>
        <time>2019-07-08T14:46:52Z</time>
      </trkpt>
      <trkpt lat="39.9164880" lon="-4.8769860">
        <ele>400.8</ele>
        <time>2019-07-08T14:47:00Z</time>
      </trkpt>
      <trkpt lat="39.9164440" lon="-4.8770350">
        <ele>400.6</ele>
        <time>2019-07-08T14:47:01Z</time>
      </trkpt>
      <trkpt lat="39.9161830" lon="-4.8773450">
        <ele>401.2</ele>
        <time>2019-07-08T14:47:07Z</time>
      </trkpt>
      <trkpt lat="39.9159770" lon="-4.8776010">
        <ele>400.8</ele>
        <time>2019-07-08T14:47:12Z</time>
      </trkpt>
      <trkpt lat="39.9159310" lon="-4.8776500">
        <ele>400.8</ele>
        <time>2019-07-08T14:47:13Z</time>
      </trkpt>
      <trkpt lat="39.9158440" lon="-4.8777530">
        <ele>400.8</ele>
        <time>2019-07-08T14:47:15Z</time>
      </trkpt>
      <trkpt lat="39.9156370" lon="-4.8780300">
        <ele>401.0</ele>
        <time>2019-07-08T14:47:20Z</time>
      </trkpt>
      <trkpt lat="39.9155050" lon="-4.8781750">
        <ele>401.0</ele>
        <time>2019-07-08T14:47:23Z</time>
      </trkpt>
      <trkpt lat="39.9154100" lon="-4.8782600">
        <ele>400.6</ele>
        <time>2019-07-08T14:47:25Z</time>
      </trkpt>
      <trkpt lat="39.9150480" lon="-4.8786420">
        <ele>401.2</ele>
        <time>2019-07-08T14:47:33Z</time>
      </trkpt>
      <trkpt lat="39.9147070" lon="-4.8790250">
        <ele>401.4</ele>
        <time>2019-07-08T14:47:41Z</time>
      </trkpt>
      <trkpt lat="39.9143710" lon="-4.8794100">
        <ele>401.0</ele>
        <time>2019-07-08T14:47:49Z</time>
      </trkpt>
      <trkpt lat="39.9143290" lon="-4.8794520">
        <ele>400.8</ele>
        <time>2019-07-08T14:47:50Z</time>
      </trkpt>
      <trkpt lat="39.9140190" lon="-4.8797260">
        <ele>401.6</ele>
        <time>2019-07-08T14:47:57Z</time>
      </trkpt>
      <trkpt lat="39.9138900" lon="-4.8798470">
        <ele>401.8</ele>
        <time>2019-07-08T14:48:00Z</time>
      </trkpt>
      <trkpt lat="39.9136750" lon="-4.8800560">
        <ele>402.2</ele>
        <time>2019-07-08T14:48:05Z</time>
      </trkpt>
      <trkpt lat="39.9133210" lon="-4.8805240">
        <ele>401.8</ele>
        <time>2019-07-08T14:48:14Z</time>
      </trkpt>
      <trkpt lat="39.9130400" lon="-4.8809320">
        <ele>401.4</ele>
        <time>2019-07-08T14:48:21Z</time>
      </trkpt>
      <trkpt lat="39.9128290" lon="-4.8812910">
        <ele>401.2</ele>
        <time>2019-07-08T14:48:27Z</time>
      </trkpt>
      <trkpt lat="39.9127290" lon="-4.8814640">
        <ele>401.2</ele>
        <time>2019-07-08T14:48:30Z</time>
      </trkpt>
      <trkpt lat="39.9126410" lon="-4.8815580">
        <ele>401.0</ele>
        <time>2019-07-08T14:48:32Z</time>
      </trkpt>
      <trkpt lat="39.9123540" lon="-4.8819000">
        <ele>401.2</ele>
        <time>2019-07-08T14:48:39Z</time>
      </trkpt>
      <trkpt lat="39.9122780" lon="-4.8820000">
        <ele>400.6</ele>
        <time>2019-07-08T14:48:41Z</time>
      </trkpt>
      <trkpt lat="39.9121000" lon="-4.8822520">
        <ele>401.0</ele>
        <time>2019-07-08T14:48:46Z</time>
      </trkpt>
      <trkpt lat="39.9120290" lon="-4.8823440">
        <ele>401.0</ele>
        <time>2019-07-08T14:48:48Z</time>
      </trkpt>
      <trkpt lat="39.9119510" lon="-4.8824320">
        <ele>401.2</ele>
        <time>2019-07-08T14:48:50Z</time>
      </trkpt>
      <trkpt lat="39.9119160" lon="-4.8824810">
        <ele>401.2</ele>
        <time>2019-07-08T14:48:51Z</time>
      </trkpt>
      <trkpt lat="39.9116500" lon="-4.8829070">
        <ele>401.2</ele>
        <time>2019-07-08T14:48:59Z</time>
      </trkpt>
      <trkpt lat="39.9113940" lon="-4.8832660">
        <ele>401.6</ele>
        <time>2019-07-08T14:49:06Z</time>
      </trkpt>
      <trkpt lat="39.9113530" lon="-4.8833150">
        <ele>401.6</ele>
        <time>2019-07-08T14:49:07Z</time>
      </trkpt>
      <trkpt lat="39.9112690" lon="-4.8834100">
        <ele>401.6</ele>
        <time>2019-07-08T14:49:09Z</time>
      </trkpt>
      <trkpt lat="39.9110930" lon="-4.8835930">
        <ele>400.8</ele>
        <time>2019-07-08T14:49:13Z</time>
      </trkpt>
      <trkpt lat="39.9106940" lon="-4.8840820">
        <ele>401.8</ele>
        <time>2019-07-08T14:49:23Z</time>
      </trkpt>
      <trkpt lat="39.9106530" lon="-4.8841300">
        <ele>401.8</ele>
        <time>2019-07-08T14:49:24Z</time>
      </trkpt>
      <trkpt lat="39.9105090" lon="-4.8843520">
        <ele>401.4</ele>
        <time>2019-07-08T14:49:28Z</time>
      </trkpt>
      <trkpt lat="39.9102830" lon="-4.8847400">
        <ele>402.0</ele>
        <time>2019-07-08T14:49:35Z</time>
      </trkpt>
      <trkpt lat="39.9101710" lon="-4.8849640">
        <ele>402.4</ele>
        <time>2019-07-08T14:49:39Z</time>
      </trkpt>
      <trkpt lat="39.9101230" lon="-4.8850660">
        <ele>402.2</ele>
        <time>2019-07-08T14:49:41Z</time>
      </trkpt>
      <trkpt lat="39.9099720" lon="-4.8853620">
        <ele>402.4</ele>
        <time>2019-07-08T14:49:46Z</time>
      </trkpt>
      <trkpt lat="39.9097710" lon="-4.8857940">
        <ele>402.0</ele>
        <time>2019-07-08T14:49:53Z</time>
      </trkpt>
      <trkpt lat="39.9097410" lon="-4.8858560">
        <ele>402.0</ele>
        <time>2019-07-08T14:49:54Z</time>
      </trkpt>
      <trkpt lat="39.9095620" lon="-4.8863040">
        <ele>401.6</ele>
        <time>2019-07-08T14:50:01Z</time>
      </trkpt>
      <trkpt lat="39.9093920" lon="-4.8867700">
        <ele>401.6</ele>
        <time>2019-07-08T14:50:08Z</time>
      </trkpt>
      <trkpt lat="39.9091960" lon="-4.8873000">
        <ele>401.2</ele>
        <time>2019-07-08T14:50:16Z</time>
      </trkpt>
      <trkpt lat="39.9090000" lon="-4.8878240">
        <ele>401.2</ele>
        <time>2019-07-08T14:50:24Z</time>
      </trkpt>
      <trkpt lat="39.9086690" lon="-4.8884250">
        <ele>401.4</ele>
        <time>2019-07-08T14:50:34Z</time>
      </trkpt>
      <trkpt lat="39.9083330" lon="-4.8889060">
        <ele>401.0</ele>
        <time>2019-07-08T14:50:43Z</time>
      </trkpt>
      <trkpt lat="39.9080850" lon="-4.8893290">
        <ele>401.8</ele>
        <time>2019-07-08T14:50:51Z</time>
      </trkpt>
      <trkpt lat="39.9078960" lon="-4.8897080">
        <ele>401.6</ele>
        <time>2019-07-08T14:50:58Z</time>
      </trkpt>
      <trkpt lat="39.9078700" lon="-4.8897680">
        <ele>401.6</ele>
        <time>2019-07-08T14:50:59Z</time>
      </trkpt>
      <trkpt lat="39.9076800" lon="-4.8902550">
        <ele>401.2</ele>
        <time>2019-07-08T14:51:07Z</time>
      </trkpt>
      <trkpt lat="39.9075050" lon="-4.8906140">
        <ele>401.0</ele>
        <time>2019-07-08T14:51:13Z</time>
      </trkpt>
      <trkpt lat="39.9074360" lon="-4.8907290">
        <ele>400.8</ele>
        <time>2019-07-08T14:51:15Z</time>
      </trkpt>
      <trkpt lat="39.9071770" lon="-4.8912120">
        <ele>402.0</ele>
        <time>2019-07-08T14:51:23Z</time>
      </trkpt>
      <trkpt lat="39.9069510" lon="-4.8916340">
        <ele>401.4</ele>
        <time>2019-07-08T14:51:30Z</time>
      </trkpt>
      <trkpt lat="39.9067120" lon="-4.8920550">
        <ele>401.6</ele>
        <time>2019-07-08T14:51:37Z</time>
      </trkpt>
      <trkpt lat="39.9066400" lon="-4.8921720">
        <ele>401.4</ele>
        <time>2019-07-08T14:51:39Z</time>
      </trkpt>
      <trkpt lat="39.9063850" lon="-4.8925850">
        <ele>401.2</ele>
        <time>2019-07-08T14:51:46Z</time>
      </trkpt>
      <trkpt lat="39.9062750" lon="-4.8927580">
        <ele>401.4</ele>
        <time>2019-07-08T14:51:49Z</time>
      </trkpt>
      <trkpt lat="39.9059830" lon="-4.8932320">
        <ele>401.4</ele>
        <time>2019-07-08T14:51:57Z</time>
      </trkpt>
      <trkpt lat="39.9056590" lon="-4.8936880">
        <ele>401.4</ele>
        <time>2019-07-08T14:52:05Z</time>
      </trkpt>
      <trkpt lat="39.9052640" lon="-4.8942310">
        <ele>401.0</ele>
        <time>2019-07-08T14:52:14Z</time>
      </trkpt>
      <trkpt lat="39.9048900" lon="-4.8947780">
        <ele>401.0</ele>
        <time>2019-07-08T14:52:23Z</time>
      </trkpt>
      <trkpt lat="39.9045110" lon="-4.8953120">
        <ele>401.2</ele>
        <time>2019-07-08T14:52:32Z</time>
      </trkpt>
      <trkpt lat="39.9044330" lon="-4.8954320">
        <ele>401.0</ele>
        <time>2019-07-08T14:52:34Z</time>
      </trkpt>
      <trkpt lat="39.9042350" lon="-4.8957070">
        <ele>400.8</ele>
        <time>2019-07-08T14:52:39Z</time>
      </trkpt>
      <trkpt lat="39.9041610" lon="-4.8958110">
        <ele>401.0</ele>
        <time>2019-07-08T14:52:41Z</time>
      </trkpt>
      <trkpt lat="39.9040460" lon="-4.8959680">
        <ele>401.8</ele>
        <time>2019-07-08T14:52:44Z</time>
      </trkpt>
      <trkpt lat="39.9038860" lon="-4.8961900">
        <ele>401.6</ele>
        <time>2019-07-08T14:52:48Z</time>
      </trkpt>
      <trkpt lat="39.9035750" lon="-4.8966200">
        <ele>401.6</ele>
        <time>2019-07-08T14:52:56Z</time>
      </trkpt>
      <trkpt lat="39.9034950" lon="-4.8967190">
        <ele>401.0</ele>
        <time>2019-07-08T14:52:58Z</time>
      </trkpt>
      <trkpt lat="39.9033780" lon="-4.8968830">
        <ele>400.8</ele>
        <time>2019-07-08T14:53:01Z</time>
      </trkpt>
      <trkpt lat="39.9032990" lon="-4.8969940">
        <ele>400.2</ele>
        <time>2019-07-08T14:53:03Z</time>
      </trkpt>
      <trkpt lat="39.9030150" lon="-4.8973800">
        <ele>400.6</ele>
        <time>2019-07-08T14:53:10Z</time>
      </trkpt>
      <trkpt lat="39.9027360" lon="-4.8977710">
        <ele>400.6</ele>
        <time>2019-07-08T14:53:17Z</time>
      </trkpt>
      <trkpt lat="39.9026580" lon="-4.8978800">
        <ele>400.6</ele>
        <time>2019-07-08T14:53:19Z</time>
      </trkpt>
      <trkpt lat="39.9025520" lon="-4.8980520">
        <ele>400.6</ele>
        <time>2019-07-08T14:53:22Z</time>
      </trkpt>
      <trkpt lat="39.9022120" lon="-4.8985320">
        <ele>400.8</ele>
        <time>2019-07-08T14:53:31Z</time>
      </trkpt>
      <trkpt lat="39.9020350" lon="-4.8987840">
        <ele>401.6</ele>
        <time>2019-07-08T14:53:36Z</time>
      </trkpt>
      <trkpt lat="39.9020020" lon="-4.8988340">
        <ele>401.8</ele>
        <time>2019-07-08T14:53:37Z</time>
      </trkpt>
      <trkpt lat="39.9019690" lon="-4.8988850">
        <ele>402.0</ele>
        <time>2019-07-08T14:53:38Z</time>
      </trkpt>
      <trkpt lat="39.9016790" lon="-4.8992860">
        <ele>401.4</ele>
        <time>2019-07-08T14:53:46Z</time>
      </trkpt>
      <trkpt lat="39.9014250" lon="-4.8996440">
        <ele>401.4</ele>
        <time>2019-07-08T14:53:53Z</time>
      </trkpt>
      <trkpt lat="39.9011780" lon="-4.8999910">
        <ele>401.2</ele>
        <time>2019-07-08T14:54:00Z</time>
      </trkpt>
      <trkpt lat="39.9008410" lon="-4.9004760">
        <ele>401.6</ele>
        <time>2019-07-08T14:54:10Z</time>
      </trkpt>
      <trkpt lat="39.9006840" lon="-4.9008450">
        <ele>401.4</ele>
        <time>2019-07-08T14:54:16Z</time>
      </trkpt>
      <trkpt lat="39.9004960" lon="-4.9012790">
        <ele>401.0</ele>
        <time>2019-07-08T14:54:23Z</time>
      </trkpt>
      <trkpt lat="39.9004710" lon="-4.9013410">
        <ele>400.8</ele>
        <time>2019-07-08T14:54:24Z</time>
      </trkpt>
      <trkpt lat="39.9002920" lon="-4.9017760">
        <ele>401.2</ele>
        <time>2019-07-08T14:54:31Z</time>
      </trkpt>
      <trkpt lat="39.9001910" lon="-4.9020160">
        <ele>401.2</ele>
        <time>2019-07-08T14:54:35Z</time>
      </trkpt>
      <trkpt lat="39.9000280" lon="-4.9024100">
        <ele>401.8</ele>
        <time>2019-07-08T14:54:42Z</time>
      </trkpt>
      <trkpt lat="39.8999820" lon="-4.9024660">
        <ele>401.4</ele>
        <time>2019-07-08T14:54:45Z</time>
      </trkpt>
      <trkpt lat="39.8999790" lon="-4.9024660">
        <ele>401.2</ele>
        <time>2019-07-08T14:54:47Z</time>
      </trkpt>
      <trkpt lat="39.8999670" lon="-4.9024950">
        <ele>401.2</ele>
        <time>2019-07-08T14:56:07Z</time>
      </trkpt>
      <trkpt lat="39.8999560" lon="-4.9025180">
        <ele>401.2</ele>
        <time>2019-07-08T14:56:08Z</time>
      </trkpt>
      <trkpt lat="39.8998990" lon="-4.9025850">
        <ele>401.4</ele>
        <time>2019-07-08T14:56:11Z</time>
      </trkpt>
      <trkpt lat="39.8998490" lon="-4.9026320">
        <ele>401.4</ele>
        <time>2019-07-08T14:56:13Z</time>
      </trkpt>
      <trkpt lat="39.8996790" lon="-4.9027760">
        <ele>401.6</ele>
        <time>2019-07-08T14:56:21Z</time>
      </trkpt>
      <trkpt lat="39.8995430" lon="-4.9028750">
        <ele>401.2</ele>
        <time>2019-07-08T14:56:26Z</time>
      </trkpt>
      <trkpt lat="39.8994430" lon="-4.9029510">
        <ele>401.2</ele>
        <time>2019-07-08T14:56:29Z</time>
      </trkpt>
      <trkpt lat="39.8993370" lon="-4.9030360">
        <ele>401.4</ele>
        <time>2019-07-08T14:56:32Z</time>
      </trkpt>
      <trkpt lat="39.8993010" lon="-4.9030630">
        <ele>401.6</ele>
        <time>2019-07-08T14:56:33Z</time>
      </trkpt>
      <trkpt lat="39.8992260" lon="-4.9031230">
        <ele>402.0</ele>
        <time>2019-07-08T14:56:35Z</time>
      </trkpt>
      <trkpt lat="39.8991120" lon="-4.9032110">
        <ele>402.2</ele>
        <time>2019-07-08T14:56:38Z</time>
      </trkpt>
      <trkpt lat="39.8989570" lon="-4.9033190">
        <ele>401.4</ele>
        <time>2019-07-08T14:56:42Z</time>
      </trkpt>
      <trkpt lat="39.8988470" lon="-4.9034070">
        <ele>401.6</ele>
        <time>2019-07-08T14:56:45Z</time>
      </trkpt>
      <trkpt lat="39.8985770" lon="-4.9036090">
        <ele>401.4</ele>
        <time>2019-07-08T14:56:52Z</time>
      </trkpt>
      <trkpt lat="39.8982880" lon="-4.9038210">
        <ele>401.4</ele>
        <time>2019-07-08T14:57:00Z</time>
      </trkpt>
      <trkpt lat="39.8979180" lon="-4.9040970">
        <ele>401.6</ele>
        <time>2019-07-08T14:57:09Z</time>
      </trkpt>
      <trkpt lat="39.8976170" lon="-4.9043390">
        <ele>401.8</ele>
        <time>2019-07-08T14:57:16Z</time>
      </trkpt>
      <trkpt lat="39.8972020" lon="-4.9046480">
        <ele>402.0</ele>
        <time>2019-07-08T14:57:25Z</time>
      </trkpt>
      <trkpt lat="39.8967810" lon="-4.9049700">
        <ele>401.4</ele>
        <time>2019-07-08T14:57:34Z</time>
      </trkpt>
      <trkpt lat="39.8964550" lon="-4.9052230">
        <ele>401.2</ele>
        <time>2019-07-08T14:57:41Z</time>
      </trkpt>
      <trkpt lat="39.8963700" lon="-4.9053970">
        <ele>401.6</ele>
        <time>2019-07-08T14:57:44Z</time>
      </trkpt>
      <trkpt lat="39.8963440" lon="-4.9054630">
        <ele>401.6</ele>
        <time>2019-07-08T14:57:45Z</time>
      </trkpt>
      <trkpt lat="39.8962180" lon="-4.9057920">
        <ele>400.4</ele>
        <time>2019-07-08T14:57:50Z</time>
      </trkpt>
      <trkpt lat="39.8961720" lon="-4.9059260">
        <ele>400.4</ele>
        <time>2019-07-08T14:57:52Z</time>
      </trkpt>
      <trkpt lat="39.8960240" lon="-4.9063100">
        <ele>401.2</ele>
        <time>2019-07-08T14:57:58Z</time>
      </trkpt>
      <trkpt lat="39.8959930" lon="-4.9063660">
        <ele>401.0</ele>
        <time>2019-07-08T14:57:59Z</time>
      </trkpt>
      <trkpt lat="39.8958600" lon="-4.9065860">
        <ele>400.2</ele>
        <time>2019-07-08T14:58:03Z</time>
      </trkpt>
      <trkpt lat="39.8956340" lon="-4.9069860">
        <ele>400.8</ele>
        <time>2019-07-08T14:58:10Z</time>
      </trkpt>
      <trkpt lat="39.8954500" lon="-4.9073230">
        <ele>401.6</ele>
        <time>2019-07-08T14:58:16Z</time>
      </trkpt>
      <trkpt lat="39.8952780" lon="-4.9075860">
        <ele>401.4</ele>
        <time>2019-07-08T14:58:21Z</time>
      </trkpt>
      <trkpt lat="39.8952490" lon="-4.9076490">
        <ele>401.4</ele>
        <time>2019-07-08T14:58:22Z</time>
      </trkpt>
      <trkpt lat="39.8950750" lon="-4.9080830">
        <ele>401.4</ele>
        <time>2019-07-08T14:58:29Z</time>
      </trkpt>
      <trkpt lat="39.8950330" lon="-4.9082080">
        <ele>401.6</ele>
        <time>2019-07-08T14:58:31Z</time>
      </trkpt>
      <trkpt lat="39.8949570" lon="-4.9084370">
        <ele>401.6</ele>
        <time>2019-07-08T14:58:35Z</time>
      </trkpt>
      <trkpt lat="39.8948190" lon="-4.9088000">
        <ele>401.4</ele>
        <time>2019-07-08T14:58:41Z</time>
      </trkpt>
      <trkpt lat="39.8947450" lon="-4.9089900">
        <ele>401.6</ele>
        <time>2019-07-08T14:58:44Z</time>
      </trkpt>
      <trkpt lat="39.8946870" lon="-4.9091940">
        <ele>401.8</ele>
        <time>2019-07-08T14:58:47Z</time>
      </trkpt>
      <trkpt lat="39.8945500" lon="-4.9094950">
        <ele>401.4</ele>
        <time>2019-07-08T14:58:52Z</time>
      </trkpt>
      <trkpt lat="39.8943670" lon="-4.9099920">
        <ele>401.4</ele>
        <time>2019-07-08T14:59:00Z</time>
      </trkpt>
      <trkpt lat="39.8943120" lon="-4.9101120">
        <ele>401.4</ele>
        <time>2019-07-08T14:59:02Z</time>
      </trkpt>
      <trkpt lat="39.8942150" lon="-4.9102740">
        <ele>401.4</ele>
        <time>2019-07-08T14:59:05Z</time>
      </trkpt>
      <trkpt lat="39.8940850" lon="-4.9104810">
        <ele>402.0</ele>
        <time>2019-07-08T14:59:09Z</time>
      </trkpt>
      <trkpt lat="39.8940140" lon="-4.9105820">
        <ele>402.0</ele>
        <time>2019-07-08T14:59:11Z</time>
      </trkpt>
      <trkpt lat="39.8938470" lon="-4.9108550">
        <ele>401.8</ele>
        <time>2019-07-08T14:59:16Z</time>
      </trkpt>
      <trkpt lat="39.8937920" lon="-4.9109750">
        <ele>401.8</ele>
        <time>2019-07-08T14:59:18Z</time>
      </trkpt>
      <trkpt lat="39.8936830" lon="-4.9112770">
        <ele>402.0</ele>
        <time>2019-07-08T14:59:23Z</time>
      </trkpt>
      <trkpt lat="39.8936710" lon="-4.9114130">
        <ele>401.8</ele>
        <time>2019-07-08T14:59:26Z</time>
      </trkpt>
      <trkpt lat="39.8936820" lon="-4.9114460">
        <ele>401.8</ele>
        <time>2019-07-08T14:59:27Z</time>
      </trkpt>
      <trkpt lat="39.8937010" lon="-4.9114720">
        <ele>401.8</ele>
        <time>2019-07-08T14:59:28Z</time>
      </trkpt>
      <trkpt lat="39.8937850" lon="-4.9115180">
        <ele>401.6</ele>
        <time>2019-07-08T14:59:31Z</time>
      </trkpt>
      <trkpt lat="39.8939750" lon="-4.9116090">
        <ele>401.8</ele>
        <time>2019-07-08T14:59:36Z</time>
      </trkpt>
      <trkpt lat="39.8940620" lon="-4.9116540">
        <ele>402.2</ele>
        <time>2019-07-08T14:59:38Z</time>
      </trkpt>
      <trkpt lat="39.8941890" lon="-4.9117350">
        <ele>402.2</ele>
        <time>2019-07-08T14:59:41Z</time>
      </trkpt>
      <trkpt lat="39.8942260" lon="-4.9117650">
        <ele>402.2</ele>
        <time>2019-07-08T14:59:42Z</time>
      </trkpt>
      <trkpt lat="39.8943030" lon="-4.9118240">
        <ele>402.6</ele>
        <time>2019-07-08T14:59:44Z</time>
      </trkpt>
      <trkpt lat="39.8944860" lon="-4.9119780">
        <ele>402.6</ele>
        <time>2019-07-08T14:59:48Z</time>
      </trkpt>
      <trkpt lat="39.8949650" lon="-4.9123750">
        <ele>402.4</ele>
        <time>2019-07-08T14:59:58Z</time>
      </trkpt>
      <trkpt lat="39.8952440" lon="-4.9125910">
        <ele>402.2</ele>
        <time>2019-07-08T15:00:04Z</time>
      </trkpt>
      <trkpt lat="39.8953200" lon="-4.9126580">
        <ele>402.0</ele>
        <time>2019-07-08T15:00:06Z</time>
      </trkpt>
      <trkpt lat="39.8953450" lon="-4.9127890">
        <ele>401.8</ele>
        <time>2019-07-08T15:00:09Z</time>
      </trkpt>
      <trkpt lat="39.8953100" lon="-4.9128590">
        <ele>401.6</ele>
        <time>2019-07-08T15:00:11Z</time>
      </trkpt>
      <trkpt lat="39.8952890" lon="-4.9128970">
        <ele>401.4</ele>
        <time>2019-07-08T15:00:12Z</time>
      </trkpt>
      <trkpt lat="39.8952680" lon="-4.9129390">
        <ele>401.4</ele>
        <time>2019-07-08T15:00:13Z</time>
      </trkpt>
      <trkpt lat="39.8950860" lon="-4.9132890">
        <ele>401.0</ele>
        <time>2019-07-08T15:00:20Z</time>
      </trkpt>
      <trkpt lat="39.8949170" lon="-4.9136230">
        <ele>401.4</ele>
        <time>2019-07-08T15:00:26Z</time>
      </trkpt>
      <trkpt lat="39.8948540" lon="-4.9137100">
        <ele>401.0</ele>
        <time>2019-07-08T15:00:28Z</time>
      </trkpt>
      <trkpt lat="39.8946610" lon="-4.9140720">
        <ele>401.4</ele>
        <time>2019-07-08T15:00:35Z</time>
      </trkpt>
      <trkpt lat="39.8946340" lon="-4.9141250">
        <ele>401.6</ele>
        <time>2019-07-08T15:00:36Z</time>
      </trkpt>
      <trkpt lat="39.8944660" lon="-4.9144400">
        <ele>401.2</ele>
        <time>2019-07-08T15:00:42Z</time>
      </trkpt>
      <trkpt lat="39.8942940" lon="-4.9147640">
        <ele>401.4</ele>
        <time>2019-07-08T15:00:48Z</time>
      </trkpt>
      <trkpt lat="39.8942420" lon="-4.9148600">
        <ele>400.8</ele>
        <time>2019-07-08T15:00:50Z</time>
      </trkpt>
      <trkpt lat="39.8941680" lon="-4.9150190">
        <ele>400.8</ele>
        <time>2019-07-08T15:00:53Z</time>
      </trkpt>
      <trkpt lat="39.8939740" lon="-4.9153880">
        <ele>400.4</ele>
        <time>2019-07-08T15:01:00Z</time>
      </trkpt>
      <trkpt lat="39.8937580" lon="-4.9157830">
        <ele>400.6</ele>
        <time>2019-07-08T15:01:08Z</time>
      </trkpt>
      <trkpt lat="39.8935680" lon="-4.9161410">
        <ele>401.4</ele>
        <time>2019-07-08T15:01:15Z</time>
      </trkpt>
      <trkpt lat="39.8933000" lon="-4.9166420">
        <ele>401.8</ele>
        <time>2019-07-08T15:01:25Z</time>
      </trkpt>
      <trkpt lat="39.8930890" lon="-4.9170290">
        <ele>401.0</ele>
        <time>2019-07-08T15:01:33Z</time>
      </trkpt>
      <trkpt lat="39.8930650" lon="-4.9170790">
        <ele>401.2</ele>
        <time>2019-07-08T15:01:34Z</time>
      </trkpt>
      <trkpt lat="39.8929320" lon="-4.9173300">
        <ele>401.8</ele>
        <time>2019-07-08T15:01:39Z</time>
      </trkpt>
      <trkpt lat="39.8926280" lon="-4.9179000">
        <ele>402.0</ele>
        <time>2019-07-08T15:01:50Z</time>
      </trkpt>
      <trkpt lat="39.8923730" lon="-4.9183530">
        <ele>402.0</ele>
        <time>2019-07-08T15:01:59Z</time>
      </trkpt>
      <trkpt lat="39.8922360" lon="-4.9186010">
        <ele>402.2</ele>
        <time>2019-07-08T15:02:04Z</time>
      </trkpt>
      <trkpt lat="39.8922020" lon="-4.9186440">
        <ele>402.2</ele>
        <time>2019-07-08T15:02:05Z</time>
      </trkpt>
      <trkpt lat="39.8919620" lon="-4.9188710">
        <ele>401.6</ele>
        <time>2019-07-08T15:02:11Z</time>
      </trkpt>
      <trkpt lat="39.8918340" lon="-4.9189890">
        <ele>401.6</ele>
        <time>2019-07-08T15:02:14Z</time>
      </trkpt>
      <trkpt lat="39.8916250" lon="-4.9191810">
        <ele>401.6</ele>
        <time>2019-07-08T15:02:19Z</time>
      </trkpt>
      <trkpt lat="39.8912810" lon="-4.9194990">
        <ele>401.4</ele>
        <time>2019-07-08T15:02:27Z</time>
      </trkpt>
      <trkpt lat="39.8908830" lon="-4.9198660">
        <ele>401.8</ele>
        <time>2019-07-08T15:02:36Z</time>
      </trkpt>
      <trkpt lat="39.8907300" lon="-4.9200230">
        <ele>402.2</ele>
        <time>2019-07-08T15:02:40Z</time>
      </trkpt>
      <trkpt lat="39.8906460" lon="-4.9200830">
        <ele>402.0</ele>
        <time>2019-07-08T15:02:42Z</time>
      </trkpt>
      <trkpt lat="39.8906020" lon="-4.9201140">
        <ele>402.0</ele>
        <time>2019-07-08T15:02:43Z</time>
      </trkpt>
      <trkpt lat="39.8904390" lon="-4.9202670">
        <ele>401.4</ele>
        <time>2019-07-08T15:02:47Z</time>
      </trkpt>
      <trkpt lat="39.8903970" lon="-4.9203040">
        <ele>401.6</ele>
        <time>2019-07-08T15:02:48Z</time>
      </trkpt>
      <trkpt lat="39.8901090" lon="-4.9205480">
        <ele>401.2</ele>
        <time>2019-07-08T15:02:55Z</time>
      </trkpt>
      <trkpt lat="39.8900240" lon="-4.9206270">
        <ele>401.0</ele>
        <time>2019-07-08T15:02:57Z</time>
      </trkpt>
      <trkpt lat="39.8897750" lon="-4.9208590">
        <ele>401.0</ele>
        <time>2019-07-08T15:03:03Z</time>
      </trkpt>
      <trkpt lat="39.8895720" lon="-4.9210650">
        <ele>401.2</ele>
        <time>2019-07-08T15:03:08Z</time>
      </trkpt>
      <trkpt lat="39.8895150" lon="-4.9211700">
        <ele>401.2</ele>
        <time>2019-07-08T15:03:10Z</time>
      </trkpt>
      <trkpt lat="39.8894800" lon="-4.9212930">
        <ele>401.0</ele>
        <time>2019-07-08T15:03:12Z</time>
      </trkpt>
      <trkpt lat="39.8894280" lon="-4.9214850">
        <ele>401.2</ele>
        <time>2019-07-08T15:03:15Z</time>
      </trkpt>
      <trkpt lat="39.8893350" lon="-4.9219190">
        <ele>400.8</ele>
        <time>2019-07-08T15:03:21Z</time>
      </trkpt>
      <trkpt lat="39.8893210" lon="-4.9219850">
        <ele>400.8</ele>
        <time>2019-07-08T15:03:22Z</time>
      </trkpt>
      <trkpt lat="39.8892980" lon="-4.9221020">
        <ele>400.4</ele>
        <time>2019-07-08T15:03:24Z</time>
      </trkpt>
      <trkpt lat="39.8893030" lon="-4.9222030">
        <ele>400.0</ele>
        <time>2019-07-08T15:03:26Z</time>
      </trkpt>
      <trkpt lat="39.8893440" lon="-4.9223610">
        <ele>400.2</ele>
        <time>2019-07-08T15:03:29Z</time>
      </trkpt>
      <trkpt lat="39.8893970" lon="-4.9225380">
        <ele>400.2</ele>
        <time>2019-07-08T15:03:32Z</time>
      </trkpt>
      <trkpt lat="39.8894270" lon="-4.9226610">
        <ele>399.4</ele>
        <time>2019-07-08T15:03:34Z</time>
      </trkpt>
      <trkpt lat="39.8895050" lon="-4.9229600">
        <ele>400.2</ele>
        <time>2019-07-08T15:03:39Z</time>
      </trkpt>
      <trkpt lat="39.8895320" lon="-4.9230700">
        <ele>400.8</ele>
        <time>2019-07-08T15:03:41Z</time>
      </trkpt>
      <trkpt lat="39.8895440" lon="-4.9231230">
        <ele>401.0</ele>
        <time>2019-07-08T15:03:42Z</time>
      </trkpt>
      <trkpt lat="39.8895810" lon="-4.9232780">
        <ele>402.0</ele>
        <time>2019-07-08T15:03:45Z</time>
      </trkpt>
      <trkpt lat="39.8896460" lon="-4.9235550">
        <ele>401.2</ele>
        <time>2019-07-08T15:03:50Z</time>
      </trkpt>
      <trkpt lat="39.8896980" lon="-4.9237900">
        <ele>400.8</ele>
        <time>2019-07-08T15:03:54Z</time>
      </trkpt>
      <trkpt lat="39.8897400" lon="-4.9239690">
        <ele>401.6</ele>
        <time>2019-07-08T15:03:57Z</time>
      </trkpt>
      <trkpt lat="39.8898630" lon="-4.9244540">
        <ele>401.2</ele>
        <time>2019-07-08T15:04:05Z</time>
      </trkpt>
      <trkpt lat="39.8899580" lon="-4.9248240">
        <ele>400.8</ele>
        <time>2019-07-08T15:04:12Z</time>
      </trkpt>
      <trkpt lat="39.8899540" lon="-4.9248950">
        <ele>400.8</ele>
        <time>2019-07-08T15:04:14Z</time>
      </trkpt>
      <trkpt lat="39.8899170" lon="-4.9249440">
        <ele>401.6</ele>
        <time>2019-07-08T15:04:16Z</time>
      </trkpt>
      <trkpt lat="39.8897930" lon="-4.9249760">
        <ele>401.8</ele>
        <time>2019-07-08T15:04:19Z</time>
      </trkpt>
      <trkpt lat="39.8897430" lon="-4.9249830">
        <ele>402.0</ele>
        <time>2019-07-08T15:04:20Z</time>
      </trkpt>
      <trkpt lat="39.8893640" lon="-4.9250660">
        <ele>401.8</ele>
        <time>2019-07-08T15:04:27Z</time>
      </trkpt>
      <trkpt lat="39.8887860" lon="-4.9251830">
        <ele>402.4</ele>
        <time>2019-07-08T15:04:37Z</time>
      </trkpt>
      <trkpt lat="39.8887270" lon="-4.9251940">
        <ele>402.4</ele>
        <time>2019-07-08T15:04:38Z</time>
      </trkpt>
      <trkpt lat="39.8881920" lon="-4.9253120">
        <ele>402.0</ele>
        <time>2019-07-08T15:04:47Z</time>
      </trkpt>
      <trkpt lat="39.8876460" lon="-4.9254250">
        <ele>402.0</ele>
        <time>2019-07-08T15:04:56Z</time>
      </trkpt>
      <trkpt lat="39.8875220" lon="-4.9254530">
        <ele>401.6</ele>
        <time>2019-07-08T15:04:58Z</time>
      </trkpt>
      <trkpt lat="39.8873320" lon="-4.9254730">
        <ele>401.4</ele>
        <time>2019-07-08T15:05:01Z</time>
      </trkpt>
      <trkpt lat="39.8872060" lon="-4.9254470">
        <ele>401.6</ele>
        <time>2019-07-08T15:05:03Z</time>
      </trkpt>
      <trkpt lat="39.8870200" lon="-4.9253650">
        <ele>402.0</ele>
        <time>2019-07-08T15:05:06Z</time>
      </trkpt>
      <trkpt lat="39.8868360" lon="-4.9252440">
        <ele>401.8</ele>
        <time>2019-07-08T15:05:09Z</time>
      </trkpt>
      <trkpt lat="39.8864430" lon="-4.9250040">
        <ele>400.8</ele>
        <time>2019-07-08T15:05:15Z</time>
      </trkpt>
      <trkpt lat="39.8863720" lon="-4.9249610">
        <ele>400.6</ele>
        <time>2019-07-08T15:05:16Z</time>
      </trkpt>
      <trkpt lat="39.8858260" lon="-4.9246180">
        <ele>400.0</ele>
        <time>2019-07-08T15:05:24Z</time>
      </trkpt>
      <trkpt lat="39.8857570" lon="-4.9245800">
        <ele>399.8</ele>
        <time>2019-07-08T15:05:25Z</time>
      </trkpt>
      <trkpt lat="39.8852050" lon="-4.9242510">
        <ele>400.0</ele>
        <time>2019-07-08T15:05:33Z</time>
      </trkpt>
      <trkpt lat="39.8851350" lon="-4.9242130">
        <ele>400.0</ele>
        <time>2019-07-08T15:05:34Z</time>
      </trkpt>
      <trkpt lat="39.8847480" lon="-4.9239730">
        <ele>399.8</ele>
        <time>2019-07-08T15:05:40Z</time>
      </trkpt>
      <trkpt lat="39.8846220" lon="-4.9239020">
        <ele>399.6</ele>
        <time>2019-07-08T15:05:42Z</time>
      </trkpt>
      <trkpt lat="39.8842590" lon="-4.9236910">
        <ele>399.6</ele>
        <time>2019-07-08T15:05:48Z</time>
      </trkpt>
      <trkpt lat="39.8837330" lon="-4.9233830">
        <ele>399.4</ele>
        <time>2019-07-08T15:05:57Z</time>
      </trkpt>
      <trkpt lat="39.8836750" lon="-4.9233480">
        <ele>399.2</ele>
        <time>2019-07-08T15:05:58Z</time>
      </trkpt>
      <trkpt lat="39.8832950" lon="-4.9231290">
        <ele>400.0</ele>
        <time>2019-07-08T15:06:05Z</time>
      </trkpt>
      <trkpt lat="39.8832510" lon="-4.9231090">
        <ele>400.2</ele>
        <time>2019-07-08T15:06:06Z</time>
      </trkpt>
      <trkpt lat="39.8831320" lon="-4.9231370">
        <ele>400.2</ele>
        <time>2019-07-08T15:06:09Z</time>
      </trkpt>
      <trkpt lat="39.8830670" lon="-4.9232170">
        <ele>400.0</ele>
        <time>2019-07-08T15:06:11Z</time>
      </trkpt>
      <trkpt lat="39.8829990" lon="-4.9233090">
        <ele>400.2</ele>
        <time>2019-07-08T15:06:13Z</time>
      </trkpt>
      <trkpt lat="39.8829220" lon="-4.9234030">
        <ele>400.4</ele>
        <time>2019-07-08T15:06:15Z</time>
      </trkpt>
      <trkpt lat="39.8827260" lon="-4.9236520">
        <ele>400.4</ele>
        <time>2019-07-08T15:06:20Z</time>
      </trkpt>
      <trkpt lat="39.8825600" lon="-4.9238630">
        <ele>400.2</ele>
        <time>2019-07-08T15:06:24Z</time>
      </trkpt>
      <trkpt lat="39.8822590" lon="-4.9242340">
        <ele>400.2</ele>
        <time>2019-07-08T15:06:31Z</time>
      </trkpt>
      <trkpt lat="39.8822150" lon="-4.9242870">
        <ele>400.2</ele>
        <time>2019-07-08T15:06:32Z</time>
      </trkpt>
      <trkpt lat="39.8817940" lon="-4.9248070">
        <ele>400.4</ele>
        <time>2019-07-08T15:06:42Z</time>
      </trkpt>
      <trkpt lat="39.8816730" lon="-4.9249620">
        <ele>400.2</ele>
        <time>2019-07-08T15:06:45Z</time>
      </trkpt>
      <trkpt lat="39.8815260" lon="-4.9251480">
        <ele>400.8</ele>
        <time>2019-07-08T15:06:49Z</time>
      </trkpt>
      <trkpt lat="39.8814370" lon="-4.9252590">
        <ele>401.0</ele>
        <time>2019-07-08T15:06:51Z</time>
      </trkpt>
      <trkpt lat="39.8810240" lon="-4.9257670">
        <ele>400.0</ele>
        <time>2019-07-08T15:07:00Z</time>
      </trkpt>
      <trkpt lat="39.8809370" lon="-4.9258750">
        <ele>399.8</ele>
        <time>2019-07-08T15:07:02Z</time>
      </trkpt>
      <trkpt lat="39.8806850" lon="-4.9261840">
        <ele>399.6</ele>
        <time>2019-07-08T15:07:08Z</time>
      </trkpt>
      <trkpt lat="39.8803160" lon="-4.9266590">
        <ele>400.4</ele>
        <time>2019-07-08T15:07:17Z</time>
      </trkpt>
      <trkpt lat="39.8799340" lon="-4.9271440">
        <ele>400.6</ele>
        <time>2019-07-08T15:07:26Z</time>
      </trkpt>
      <trkpt lat="39.8795930" lon="-4.9275530">
        <ele>400.6</ele>
        <time>2019-07-08T15:07:34Z</time>
      </trkpt>
      <trkpt lat="39.8792980" lon="-4.9278990">
        <ele>400.0</ele>
        <time>2019-07-08T15:07:41Z</time>
      </trkpt>
      <trkpt lat="39.8792140" lon="-4.9279990">
        <ele>400.2</ele>
        <time>2019-07-08T15:07:43Z</time>
      </trkpt>
      <trkpt lat="39.8789660" lon="-4.9282990">
        <ele>399.8</ele>
        <time>2019-07-08T15:07:49Z</time>
      </trkpt>
      <trkpt lat="39.8788930" lon="-4.9284120">
        <ele>399.8</ele>
        <time>2019-07-08T15:07:51Z</time>
      </trkpt>
      <trkpt lat="39.8788120" lon="-4.9286090">
        <ele>400.2</ele>
        <time>2019-07-08T15:07:54Z</time>
      </trkpt>
      <trkpt lat="39.8787080" lon="-4.9290440">
        <ele>400.2</ele>
        <time>2019-07-08T15:08:00Z</time>
      </trkpt>
      <trkpt lat="39.8785750" lon="-4.9296910">
        <ele>400.2</ele>
        <time>2019-07-08T15:08:09Z</time>
      </trkpt>
      <trkpt lat="39.8784430" lon="-4.9302490">
        <ele>400.2</ele>
        <time>2019-07-08T15:08:17Z</time>
      </trkpt>
      <trkpt lat="39.8782770" lon="-4.9309700">
        <ele>399.8</ele>
        <time>2019-07-08T15:08:27Z</time>
      </trkpt>
      <trkpt lat="39.8782280" lon="-4.9311840">
        <ele>400.0</ele>
        <time>2019-07-08T15:08:30Z</time>
      </trkpt>
      <trkpt lat="39.8781650" lon="-4.9313850">
        <ele>400.0</ele>
        <time>2019-07-08T15:08:33Z</time>
      </trkpt>
      <trkpt lat="39.8780150" lon="-4.9320210">
        <ele>400.2</ele>
        <time>2019-07-08T15:08:42Z</time>
      </trkpt>
      <trkpt lat="39.8779320" lon="-4.9323790">
        <ele>400.0</ele>
        <time>2019-07-08T15:08:47Z</time>
      </trkpt>
      <trkpt lat="39.8778480" lon="-4.9327370">
        <ele>399.4</ele>
        <time>2019-07-08T15:08:52Z</time>
      </trkpt>
      <trkpt lat="39.8777260" lon="-4.9333040">
        <ele>399.2</ele>
        <time>2019-07-08T15:09:00Z</time>
      </trkpt>
      <trkpt lat="39.8776170" lon="-4.9337160">
        <ele>399.2</ele>
        <time>2019-07-08T15:09:06Z</time>
      </trkpt>
      <trkpt lat="39.8774840" lon="-4.9342920">
        <ele>399.2</ele>
        <time>2019-07-08T15:09:14Z</time>
      </trkpt>
      <trkpt lat="39.8773820" lon="-4.9347880">
        <ele>399.2</ele>
        <time>2019-07-08T15:09:21Z</time>
      </trkpt>
      <trkpt lat="39.8772290" lon="-4.9354080">
        <ele>398.6</ele>
        <time>2019-07-08T15:09:30Z</time>
      </trkpt>
      <trkpt lat="39.8771970" lon="-4.9354620">
        <ele>398.8</ele>
        <time>2019-07-08T15:09:31Z</time>
      </trkpt>
      <trkpt lat="39.8770170" lon="-4.9355890">
        <ele>399.2</ele>
        <time>2019-07-08T15:09:35Z</time>
      </trkpt>
      <trkpt lat="39.8769090" lon="-4.9355940">
        <ele>399.4</ele>
        <time>2019-07-08T15:09:37Z</time>
      </trkpt>
      <trkpt lat="39.8766870" lon="-4.9356170">
        <ele>399.6</ele>
        <time>2019-07-08T15:09:41Z</time>
      </trkpt>
      <trkpt lat="39.8764680" lon="-4.9356580">
        <ele>399.6</ele>
        <time>2019-07-08T15:09:45Z</time>
      </trkpt>
      <trkpt lat="39.8764270" lon="-4.9356850">
        <ele>399.8</ele>
        <time>2019-07-08T15:09:46Z</time>
      </trkpt>
      <trkpt lat="39.8763880" lon="-4.9357620">
        <ele>399.8</ele>
        <time>2019-07-08T15:09:48Z</time>
      </trkpt>
      <trkpt lat="39.8763850" lon="-4.9358010">
        <ele>399.6</ele>
        <time>2019-07-08T15:09:49Z</time>
      </trkpt>
      <trkpt lat="39.8764340" lon="-4.9359620">
        <ele>399.2</ele>
        <time>2019-07-08T15:09:53Z</time>
      </trkpt>
      <trkpt lat="39.8765150" lon="-4.9361820">
        <ele>399.2</ele>
        <time>2019-07-08T15:09:58Z</time>
      </trkpt>
      <trkpt lat="39.8765380" lon="-4.9362880">
        <ele>399.4</ele>
        <time>2019-07-08T15:10:00Z</time>
      </trkpt>
      <trkpt lat="39.8765540" lon="-4.9363970">
        <ele>399.6</ele>
        <time>2019-07-08T15:10:02Z</time>
      </trkpt>
      <trkpt lat="39.8765320" lon="-4.9365640">
        <ele>399.6</ele>
        <time>2019-07-08T15:10:05Z</time>
      </trkpt>
      <trkpt lat="39.8764980" lon="-4.9366740">
        <ele>399.6</ele>
        <time>2019-07-08T15:10:07Z</time>
      </trkpt>
      <trkpt lat="39.8764540" lon="-4.9367810">
        <ele>399.2</ele>
        <time>2019-07-08T15:10:09Z</time>
      </trkpt>
      <trkpt lat="39.8764130" lon="-4.9368930">
        <ele>399.2</ele>
        <time>2019-07-08T15:10:11Z</time>
      </trkpt>
      <trkpt lat="39.8763550" lon="-4.9370650">
        <ele>399.2</ele>
        <time>2019-07-08T15:10:14Z</time>
      </trkpt>
      <trkpt lat="39.8763510" lon="-4.9371760">
        <ele>399.4</ele>
        <time>2019-07-08T15:10:16Z</time>
      </trkpt>
      <trkpt lat="39.8764110" lon="-4.9373310">
        <ele>399.4</ele>
        <time>2019-07-08T15:10:19Z</time>
      </trkpt>
      <trkpt lat="39.8764350" lon="-4.9373860">
        <ele>399.4</ele>
        <time>2019-07-08T15:10:20Z</time>
      </trkpt>
      <trkpt lat="39.8765860" lon="-4.9378160">
        <ele>399.0</ele>
        <time>2019-07-08T15:10:27Z</time>
      </trkpt>
      <trkpt lat="39.8767390" lon="-4.9382520">
        <ele>399.4</ele>
        <time>2019-07-08T15:10:34Z</time>
      </trkpt>
      <trkpt lat="39.8769140" lon="-4.9386940">
        <ele>399.2</ele>
        <time>2019-07-08T15:10:41Z</time>
      </trkpt>
      <trkpt lat="39.8771680" lon="-4.9391710">
        <ele>399.4</ele>
        <time>2019-07-08T15:10:49Z</time>
      </trkpt>
      <trkpt lat="39.8773490" lon="-4.9393820">
        <ele>398.0</ele>
        <time>2019-07-08T15:10:53Z</time>
      </trkpt>
      <trkpt lat="39.8775370" lon="-4.9395830">
        <ele>398.0</ele>
        <time>2019-07-08T15:10:57Z</time>
      </trkpt>
      <trkpt lat="39.8779020" lon="-4.9399990">
        <ele>397.8</ele>
        <time>2019-07-08T15:11:05Z</time>
      </trkpt>
      <trkpt lat="39.8781300" lon="-4.9402480">
        <ele>397.6</ele>
        <time>2019-07-08T15:11:10Z</time>
      </trkpt>
      <trkpt lat="39.8781730" lon="-4.9403020">
        <ele>397.6</ele>
        <time>2019-07-08T15:11:11Z</time>
      </trkpt>
      <trkpt lat="39.8784800" lon="-4.9406490">
        <ele>398.2</ele>
        <time>2019-07-08T15:11:18Z</time>
      </trkpt>
      <trkpt lat="39.8785610" lon="-4.9407470">
        <ele>398.4</ele>
        <time>2019-07-08T15:11:20Z</time>
      </trkpt>
      <trkpt lat="39.8785980" lon="-4.9407990">
        <ele>398.4</ele>
        <time>2019-07-08T15:11:21Z</time>
      </trkpt>
      <trkpt lat="39.8787140" lon="-4.9409450">
        <ele>398.4</ele>
        <time>2019-07-08T15:11:24Z</time>
      </trkpt>
      <trkpt lat="39.8789350" lon="-4.9412600">
        <ele>398.2</ele>
        <time>2019-07-08T15:11:30Z</time>
      </trkpt>
      <trkpt lat="39.8790160" lon="-4.9413550">
        <ele>398.4</ele>
        <time>2019-07-08T15:11:32Z</time>
      </trkpt>
      <trkpt lat="39.8793370" lon="-4.9417150">
        <ele>399.4</ele>
        <time>2019-07-08T15:11:40Z</time>
      </trkpt>
      <trkpt lat="39.8793800" lon="-4.9417570">
        <ele>399.6</ele>
        <time>2019-07-08T15:11:41Z</time>
      </trkpt>
      <trkpt lat="39.8797020" lon="-4.9421110">
        <ele>400.2</ele>
        <time>2019-07-08T15:11:49Z</time>
      </trkpt>
      <trkpt lat="39.8798150" lon="-4.9422560">
        <ele>400.2</ele>
        <time>2019-07-08T15:11:52Z</time>
      </trkpt>
      <trkpt lat="39.8798860" lon="-4.9424410">
        <ele>400.4</ele>
        <time>2019-07-08T15:11:55Z</time>
      </trkpt>
      <trkpt lat="39.8798940" lon="-4.9425100">
        <ele>400.6</ele>
        <time>2019-07-08T15:11:56Z</time>
      </trkpt>
      <trkpt lat="39.8798670" lon="-4.9427140">
        <ele>400.6</ele>
        <time>2019-07-08T15:11:59Z</time>
      </trkpt>
      <trkpt lat="39.8798490" lon="-4.9427830">
        <ele>400.6</ele>
        <time>2019-07-08T15:12:00Z</time>
      </trkpt>
      <trkpt lat="39.8798330" lon="-4.9428530">
        <ele>400.6</ele>
        <time>2019-07-08T15:12:01Z</time>
      </trkpt>
      <trkpt lat="39.8797950" lon="-4.9431370">
        <ele>401.0</ele>
        <time>2019-07-08T15:12:05Z</time>
      </trkpt>
      <trkpt lat="39.8797250" lon="-4.9437700">
        <ele>400.2</ele>
        <time>2019-07-08T15:12:14Z</time>
      </trkpt>
      <trkpt lat="39.8797620" lon="-4.9439960">
        <ele>399.8</ele>
        <time>2019-07-08T15:12:18Z</time>
      </trkpt>
      <trkpt lat="39.8797650" lon="-4.9440620">
        <ele>400.0</ele>
        <time>2019-07-08T15:12:20Z</time>
      </trkpt>
      <trkpt lat="39.8797260" lon="-4.9441170">
        <ele>400.0</ele>
        <time>2019-07-08T15:12:22Z</time>
      </trkpt>
      <trkpt lat="39.8796230" lon="-4.9441890">
        <ele>400.0</ele>
        <time>2019-07-08T15:12:25Z</time>
      </trkpt>
      <trkpt lat="39.8795800" lon="-4.9442110">
        <ele>400.0</ele>
        <time>2019-07-08T15:12:26Z</time>
      </trkpt>
      <trkpt lat="39.8795340" lon="-4.9442310">
        <ele>400.0</ele>
        <time>2019-07-08T15:12:27Z</time>
      </trkpt>
      <trkpt lat="39.8794370" lon="-4.9442620">
        <ele>399.8</ele>
        <time>2019-07-08T15:12:29Z</time>
      </trkpt>
      <trkpt lat="39.8792750" lon="-4.9442920">
        <ele>399.6</ele>
        <time>2019-07-08T15:12:32Z</time>
      </trkpt>
      <trkpt lat="39.8792190" lon="-4.9442960">
        <ele>399.6</ele>
        <time>2019-07-08T15:12:33Z</time>
      </trkpt>
      <trkpt lat="39.8789890" lon="-4.9443000">
        <ele>400.0</ele>
        <time>2019-07-08T15:12:37Z</time>
      </trkpt>
      <trkpt lat="39.8784930" lon="-4.9443200">
        <ele>399.8</ele>
        <time>2019-07-08T15:12:45Z</time>
      </trkpt>
      <trkpt lat="39.8780380" lon="-4.9443530">
        <ele>400.4</ele>
        <time>2019-07-08T15:12:52Z</time>
      </trkpt>
      <trkpt lat="39.8777900" lon="-4.9443790">
        <ele>400.2</ele>
        <time>2019-07-08T15:12:56Z</time>
      </trkpt>
      <trkpt lat="39.8777400" lon="-4.9444120">
        <ele>400.2</ele>
        <time>2019-07-08T15:12:57Z</time>
      </trkpt>
      <trkpt lat="39.8776110" lon="-4.9445840">
        <ele>400.4</ele>
        <time>2019-07-08T15:13:01Z</time>
      </trkpt>
      <trkpt lat="39.8775200" lon="-4.9447870">
        <ele>401.4</ele>
        <time>2019-07-08T15:13:05Z</time>
      </trkpt>
      <trkpt lat="39.8775000" lon="-4.9448590">
        <ele>401.4</ele>
        <time>2019-07-08T15:13:06Z</time>
      </trkpt>
      <trkpt lat="39.8774680" lon="-4.9450960">
        <ele>400.8</ele>
        <time>2019-07-08T15:13:09Z</time>
      </trkpt>
      <trkpt lat="39.8774540" lon="-4.9454070">
        <ele>400.6</ele>
        <time>2019-07-08T15:13:13Z</time>
      </trkpt>
      <trkpt lat="39.8774650" lon="-4.9456360">
        <ele>400.6</ele>
        <time>2019-07-08T15:13:16Z</time>
      </trkpt>
      <trkpt lat="39.8774620" lon="-4.9459330">
        <ele>400.8</ele>
        <time>2019-07-08T15:13:20Z</time>
      </trkpt>
      <trkpt lat="39.8774440" lon="-4.9460070">
        <ele>400.8</ele>
        <time>2019-07-08T15:13:21Z</time>
      </trkpt>
      <trkpt lat="39.8772950" lon="-4.9462450">
        <ele>400.4</ele>
        <time>2019-07-08T15:13:25Z</time>
      </trkpt>
      <trkpt lat="39.8772460" lon="-4.9462880">
        <ele>400.2</ele>
        <time>2019-07-08T15:13:26Z</time>
      </trkpt>
      <trkpt lat="39.8769480" lon="-4.9465530">
        <ele>399.2</ele>
        <time>2019-07-08T15:13:32Z</time>
      </trkpt>
      <trkpt lat="39.8766040" lon="-4.9468600">
        <ele>399.8</ele>
        <time>2019-07-08T15:13:39Z</time>
      </trkpt>
      <trkpt lat="39.8762660" lon="-4.9471580">
        <ele>399.6</ele>
        <time>2019-07-08T15:13:46Z</time>
      </trkpt>
      <trkpt lat="39.8759890" lon="-4.9474120">
        <ele>400.4</ele>
        <time>2019-07-08T15:13:52Z</time>
      </trkpt>
      <trkpt lat="39.8756200" lon="-4.9477260">
        <ele>400.0</ele>
        <time>2019-07-08T15:14:00Z</time>
      </trkpt>
      <trkpt lat="39.8752970" lon="-4.9480420">
        <ele>399.8</ele>
        <time>2019-07-08T15:14:07Z</time>
      </trkpt>
      <trkpt lat="39.8752530" lon="-4.9480890">
        <ele>399.6</ele>
        <time>2019-07-08T15:14:08Z</time>
      </trkpt>
      <trkpt lat="39.8750810" lon="-4.9482790">
        <ele>399.0</ele>
        <time>2019-07-08T15:14:12Z</time>
      </trkpt>
      <trkpt lat="39.8748640" lon="-4.9485070">
        <ele>399.0</ele>
        <time>2019-07-08T15:14:17Z</time>
      </trkpt>
      <trkpt lat="39.8746130" lon="-4.9487720">
        <ele>399.0</ele>
        <time>2019-07-08T15:14:23Z</time>
      </trkpt>
      <trkpt lat="39.8743240" lon="-4.9491120">
        <ele>399.6</ele>
        <time>2019-07-08T15:14:30Z</time>
      </trkpt>
      <trkpt lat="39.8742370" lon="-4.9492070">
        <ele>399.2</ele>
        <time>2019-07-08T15:14:32Z</time>
      </trkpt>
      <trkpt lat="39.8740250" lon="-4.9494450">
        <ele>399.4</ele>
        <time>2019-07-08T15:14:37Z</time>
      </trkpt>
      <trkpt lat="39.8737810" lon="-4.9497430">
        <ele>399.6</ele>
        <time>2019-07-08T15:14:43Z</time>
      </trkpt>
      <trkpt lat="39.8734560" lon="-4.9501140">
        <ele>399.0</ele>
        <time>2019-07-08T15:14:51Z</time>
      </trkpt>
      <trkpt lat="39.8731590" lon="-4.9504500">
        <ele>398.4</ele>
        <time>2019-07-08T15:14:59Z</time>
      </trkpt>
      <trkpt lat="39.8729320" lon="-4.9507110">
        <ele>398.8</ele>
        <time>2019-07-08T15:15:05Z</time>
      </trkpt>
      <trkpt lat="39.8726790" lon="-4.9510050">
        <ele>398.8</ele>
        <time>2019-07-08T15:15:12Z</time>
      </trkpt>
      <trkpt lat="39.8725270" lon="-4.9511650">
        <ele>399.0</ele>
        <time>2019-07-08T15:15:16Z</time>
      </trkpt>
      <trkpt lat="39.8724540" lon="-4.9512520">
        <ele>399.4</ele>
        <time>2019-07-08T15:15:18Z</time>
      </trkpt>
      <trkpt lat="39.8723030" lon="-4.9514150">
        <ele>398.6</ele>
        <time>2019-07-08T15:15:22Z</time>
      </trkpt>
      <trkpt lat="39.8721950" lon="-4.9515460">
        <ele>398.2</ele>
        <time>2019-07-08T15:15:25Z</time>
      </trkpt>
      <trkpt lat="39.8719390" lon="-4.9518300">
        <ele>398.6</ele>
        <time>2019-07-08T15:15:32Z</time>
      </trkpt>
      <trkpt lat="39.8719050" lon="-4.9518630">
        <ele>398.6</ele>
        <time>2019-07-08T15:15:33Z</time>
      </trkpt>
      <trkpt lat="39.8717690" lon="-4.9519980">
        <ele>398.2</ele>
        <time>2019-07-08T15:15:37Z</time>
      </trkpt>
      <trkpt lat="39.8716650" lon="-4.9521220">
        <ele>398.6</ele>
        <time>2019-07-08T15:15:40Z</time>
      </trkpt>
      <trkpt lat="39.8715560" lon="-4.9522450">
        <ele>398.4</ele>
        <time>2019-07-08T15:15:43Z</time>
      </trkpt>
      <trkpt lat="39.8715210" lon="-4.9522930">
        <ele>398.4</ele>
        <time>2019-07-08T15:15:44Z</time>
      </trkpt>
      <trkpt lat="39.8714470" lon="-4.9523860">
        <ele>398.4</ele>
        <time>2019-07-08T15:15:46Z</time>
      </trkpt>
      <trkpt lat="39.8713130" lon="-4.9525770">
        <ele>398.8</ele>
        <time>2019-07-08T15:15:50Z</time>
      </trkpt>
      <trkpt lat="39.8710990" lon="-4.9529160">
        <ele>398.6</ele>
        <time>2019-07-08T15:15:58Z</time>
      </trkpt>
      <trkpt lat="39.8710540" lon="-4.9529620">
        <ele>398.6</ele>
        <time>2019-07-08T15:16:00Z</time>
      </trkpt>
      <trkpt lat="39.8710140" lon="-4.9529480">
        <ele>398.8</ele>
        <time>2019-07-08T15:16:02Z</time>
      </trkpt>
      <trkpt lat="39.8709940" lon="-4.9529080">
        <ele>399.0</ele>
        <time>2019-07-08T15:16:04Z</time>
      </trkpt>
      <trkpt lat="39.8709810" lon="-4.9528840">
        <ele>399.0</ele>
        <time>2019-07-08T15:16:07Z</time>
      </trkpt>
      <trkpt lat="39.8709570" lon="-4.9528470">
        <ele>398.8</ele>
        <time>2019-07-08T15:16:39Z</time>
      </trkpt>
      <trkpt lat="39.8709460" lon="-4.9528350">
        <ele>398.8</ele>
        <time>2019-07-08T15:16:41Z</time>
      </trkpt>
      <trkpt lat="39.8709450" lon="-4.9528350">
        <ele>398.8</ele>
        <time>2019-07-08T15:16:42Z</time>
      </trkpt>
      <trkpt lat="39.8709490" lon="-4.9528800">
        <ele>398.6</ele>
        <time>2019-07-08T15:16:58Z</time>
      </trkpt>
      <trkpt lat="39.8709600" lon="-4.9528960">
        <ele>398.6</ele>
        <time>2019-07-08T15:16:59Z</time>
      </trkpt>
      <trkpt lat="39.8709730" lon="-4.9529090">
        <ele>398.6</ele>
        <time>2019-07-08T15:17:00Z</time>
      </trkpt>
      <trkpt lat="39.8710330" lon="-4.9529890">
        <ele>398.6</ele>
        <time>2019-07-08T15:17:04Z</time>
      </trkpt>
      <trkpt lat="39.8710690" lon="-4.9530440">
        <ele>398.6</ele>
        <time>2019-07-08T15:17:06Z</time>
      </trkpt>
      <trkpt lat="39.8711810" lon="-4.9532020">
        <ele>399.0</ele>
        <time>2019-07-08T15:17:11Z</time>
      </trkpt>
      <trkpt lat="39.8712370" lon="-4.9532600">
        <ele>398.8</ele>
        <time>2019-07-08T15:17:13Z</time>
      </trkpt>
      <trkpt lat="39.8713160" lon="-4.9533760">
        <ele>398.6</ele>
        <time>2019-07-08T15:17:16Z</time>
      </trkpt>
      <trkpt lat="39.8713710" lon="-4.9534630">
        <ele>399.0</ele>
        <time>2019-07-08T15:17:18Z</time>
      </trkpt>
      <trkpt lat="39.8714560" lon="-4.9535970">
        <ele>399.6</ele>
        <time>2019-07-08T15:17:21Z</time>
      </trkpt>
      <trkpt lat="39.8715670" lon="-4.9537750">
        <ele>399.8</ele>
        <time>2019-07-08T15:17:25Z</time>
      </trkpt>
      <trkpt lat="39.8715940" lon="-4.9538180">
        <ele>400.0</ele>
        <time>2019-07-08T15:17:26Z</time>
      </trkpt>
      <trkpt lat="39.8717330" lon="-4.9540330">
        <ele>399.8</ele>
        <time>2019-07-08T15:17:31Z</time>
      </trkpt>
      <trkpt lat="39.8717610" lon="-4.9540750">
        <ele>399.8</ele>
        <time>2019-07-08T15:17:32Z</time>
      </trkpt>
      <trkpt lat="39.8717890" lon="-4.9541160">
        <ele>400.0</ele>
        <time>2019-07-08T15:17:33Z</time>
      </trkpt>
      <trkpt lat="39.8720320" lon="-4.9544980">
        <ele>400.8</ele>
        <time>2019-07-08T15:17:42Z</time>
      </trkpt>
      <trkpt lat="39.8721430" lon="-4.9546720">
        <ele>401.0</ele>
        <time>2019-07-08T15:17:46Z</time>
      </trkpt>
      <trkpt lat="39.8723370" lon="-4.9549830">
        <ele>401.0</ele>
        <time>2019-07-08T15:17:53Z</time>
      </trkpt>
      <trkpt lat="39.8723610" lon="-4.9550350">
        <ele>401.2</ele>
        <time>2019-07-08T15:17:54Z</time>
      </trkpt>
      <trkpt lat="39.8724760" lon="-4.9552300">
        <ele>401.0</ele>
        <time>2019-07-08T15:17:58Z</time>
      </trkpt>
      <trkpt lat="39.8727040" lon="-4.9555780">
        <ele>402.2</ele>
        <time>2019-07-08T15:18:05Z</time>
      </trkpt>
      <trkpt lat="39.8727700" lon="-4.9556810">
        <ele>402.2</ele>
        <time>2019-07-08T15:18:07Z</time>
      </trkpt>
      <trkpt lat="39.8730050" lon="-4.9560500">
        <ele>402.0</ele>
        <time>2019-07-08T15:18:14Z</time>
      </trkpt>
      <trkpt lat="39.8733910" lon="-4.9565830">
        <ele>401.2</ele>
        <time>2019-07-08T15:18:24Z</time>
      </trkpt>
      <trkpt lat="39.8734320" lon="-4.9566380">
        <ele>401.0</ele>
        <time>2019-07-08T15:18:25Z</time>
      </trkpt>
      <trkpt lat="39.8736750" lon="-4.9569740">
        <ele>401.0</ele>
        <time>2019-07-08T15:18:31Z</time>
      </trkpt>
      <trkpt lat="39.8737500" lon="-4.9570900">
        <ele>401.0</ele>
        <time>2019-07-08T15:18:33Z</time>
      </trkpt>
      <trkpt lat="39.8739460" lon="-4.9573700">
        <ele>399.8</ele>
        <time>2019-07-08T15:18:38Z</time>
      </trkpt>
      <trkpt lat="39.8740670" lon="-4.9575290">
        <ele>399.8</ele>
        <time>2019-07-08T15:18:41Z</time>
      </trkpt>
      <trkpt lat="39.8743390" lon="-4.9579330">
        <ele>400.4</ele>
        <time>2019-07-08T15:18:48Z</time>
      </trkpt>
      <trkpt lat="39.8743800" lon="-4.9579890">
        <ele>400.0</ele>
        <time>2019-07-08T15:18:49Z</time>
      </trkpt>
      <trkpt lat="39.8744720" lon="-4.9580950">
        <ele>399.6</ele>
        <time>2019-07-08T15:18:51Z</time>
      </trkpt>
      <trkpt lat="39.8745140" lon="-4.9581540">
        <ele>399.6</ele>
        <time>2019-07-08T15:18:52Z</time>
      </trkpt>
      <trkpt lat="39.8748020" lon="-4.9585700">
        <ele>399.8</ele>
        <time>2019-07-08T15:18:59Z</time>
      </trkpt>
      <trkpt lat="39.8750040" lon="-4.9588660">
        <ele>399.2</ele>
        <time>2019-07-08T15:19:04Z</time>
      </trkpt>
      <trkpt lat="39.8750900" lon="-4.9589730">
        <ele>399.4</ele>
        <time>2019-07-08T15:19:06Z</time>
      </trkpt>
      <trkpt lat="39.8754120" lon="-4.9594500">
        <ele>398.8</ele>
        <time>2019-07-08T15:19:14Z</time>
      </trkpt>
      <trkpt lat="39.8757890" lon="-4.9600000">
        <ele>398.6</ele>
        <time>2019-07-08T15:19:23Z</time>
      </trkpt>
      <trkpt lat="39.8760590" lon="-4.9604430">
        <ele>398.8</ele>
        <time>2019-07-08T15:19:30Z</time>
      </trkpt>
      <trkpt lat="39.8760880" lon="-4.9605110">
        <ele>398.6</ele>
        <time>2019-07-08T15:19:31Z</time>
      </trkpt>
      <trkpt lat="39.8761300" lon="-4.9607160">
        <ele>399.0</ele>
        <time>2019-07-08T15:19:34Z</time>
      </trkpt>
      <trkpt lat="39.8761360" lon="-4.9607860">
        <ele>399.2</ele>
        <time>2019-07-08T15:19:35Z</time>
      </trkpt>
      <trkpt lat="39.8761580" lon="-4.9609280">
        <ele>399.0</ele>
        <time>2019-07-08T15:19:37Z</time>
      </trkpt>
      <trkpt lat="39.8761980" lon="-4.9610610">
        <ele>398.8</ele>
        <time>2019-07-08T15:19:39Z</time>
      </trkpt>
      <trkpt lat="39.8763200" lon="-4.9614370">
        <ele>398.2</ele>
        <time>2019-07-08T15:19:45Z</time>
      </trkpt>
      <trkpt lat="39.8763770" lon="-4.9616910">
        <ele>398.2</ele>
        <time>2019-07-08T15:19:49Z</time>
      </trkpt>
      <trkpt lat="39.8764240" lon="-4.9618740">
        <ele>398.4</ele>
        <time>2019-07-08T15:19:52Z</time>
      </trkpt>
      <trkpt lat="39.8765400" lon="-4.9623530">
        <ele>399.2</ele>
        <time>2019-07-08T15:20:00Z</time>
      </trkpt>
      <trkpt lat="39.8765990" lon="-4.9625890">
        <ele>399.6</ele>
        <time>2019-07-08T15:20:04Z</time>
      </trkpt>
      <trkpt lat="39.8766520" lon="-4.9628270">
        <ele>400.2</ele>
        <time>2019-07-08T15:20:08Z</time>
      </trkpt>
      <trkpt lat="39.8767080" lon="-4.9631270">
        <ele>400.4</ele>
        <time>2019-07-08T15:20:13Z</time>
      </trkpt>
      <trkpt lat="39.8767180" lon="-4.9631870">
        <ele>400.4</ele>
        <time>2019-07-08T15:20:14Z</time>
      </trkpt>
      <trkpt lat="39.8767700" lon="-4.9634740">
        <ele>401.2</ele>
        <time>2019-07-08T15:20:19Z</time>
      </trkpt>
      <trkpt lat="39.8768110" lon="-4.9636920">
        <ele>402.0</ele>
        <time>2019-07-08T15:20:23Z</time>
      </trkpt>
      <trkpt lat="39.8768310" lon="-4.9638000">
        <ele>402.2</ele>
        <time>2019-07-08T15:20:25Z</time>
      </trkpt>
      <trkpt lat="39.8768810" lon="-4.9640780">
        <ele>403.0</ele>
        <time>2019-07-08T15:20:30Z</time>
      </trkpt>
      <trkpt lat="39.8769180" lon="-4.9642930">
        <ele>403.2</ele>
        <time>2019-07-08T15:20:34Z</time>
      </trkpt>
      <trkpt lat="39.8769270" lon="-4.9643390">
        <ele>403.4</ele>
        <time>2019-07-08T15:20:35Z</time>
      </trkpt>
      <trkpt lat="39.8769560" lon="-4.9645120">
        <ele>404.6</ele>
        <time>2019-07-08T15:20:39Z</time>
      </trkpt>
      <trkpt lat="39.8769700" lon="-4.9645970">
        <ele>405.2</ele>
        <time>2019-07-08T15:20:41Z</time>
      </trkpt>
      <trkpt lat="39.8770410" lon="-4.9649560">
        <ele>405.4</ele>
        <time>2019-07-08T15:20:49Z</time>
      </trkpt>
      <trkpt lat="39.8770610" lon="-4.9650960">
        <ele>405.8</ele>
        <time>2019-07-08T15:20:52Z</time>
      </trkpt>
      <trkpt lat="39.8770690" lon="-4.9652330">
        <ele>407.2</ele>
        <time>2019-07-08T15:20:55Z</time>
      </trkpt>
      <trkpt lat="39.8770790" lon="-4.9653630">
        <ele>408.0</ele>
        <time>2019-07-08T15:20:58Z</time>
      </trkpt>
      <trkpt lat="39.8770830" lon="-4.9654030">
        <ele>408.4</ele>
        <time>2019-07-08T15:20:59Z</time>
      </trkpt>
      <trkpt lat="39.8771020" lon="-4.9656200">
        <ele>408.8</ele>
        <time>2019-07-08T15:21:03Z</time>
      </trkpt>
      <trkpt lat="39.8771090" lon="-4.9656890">
        <ele>408.8</ele>
        <time>2019-07-08T15:21:04Z</time>
      </trkpt>
      <trkpt lat="39.8771490" lon="-4.9659640">
        <ele>407.8</ele>
        <time>2019-07-08T15:21:08Z</time>
      </trkpt>
      <trkpt lat="39.8772030" lon="-4.9666110">
        <ele>407.0</ele>
        <time>2019-07-08T15:21:17Z</time>
      </trkpt>
      <trkpt lat="39.8772260" lon="-4.9669040">
        <ele>407.0</ele>
        <time>2019-07-08T15:21:21Z</time>
      </trkpt>
      <trkpt lat="39.8772350" lon="-4.9670490">
        <ele>407.0</ele>
        <time>2019-07-08T15:21:23Z</time>
      </trkpt>
      <trkpt lat="39.8772510" lon="-4.9671930">
        <ele>407.0</ele>
        <time>2019-07-08T15:21:25Z</time>
      </trkpt>
      <trkpt lat="39.8772600" lon="-4.9672660">
        <ele>407.0</ele>
        <time>2019-07-08T15:21:26Z</time>
      </trkpt>
      <trkpt lat="39.8773200" lon="-4.9675540">
        <ele>406.4</ele>
        <time>2019-07-08T15:21:30Z</time>
      </trkpt>
      <trkpt lat="39.8773380" lon="-4.9676260">
        <ele>406.2</ele>
        <time>2019-07-08T15:21:31Z</time>
      </trkpt>
      <trkpt lat="39.8773760" lon="-4.9677740">
        <ele>405.6</ele>
        <time>2019-07-08T15:21:33Z</time>
      </trkpt>
      <trkpt lat="39.8775000" lon="-4.9682020">
        <ele>405.4</ele>
        <time>2019-07-08T15:21:39Z</time>
      </trkpt>
      <trkpt lat="39.8775390" lon="-4.9683410">
        <ele>405.2</ele>
        <time>2019-07-08T15:21:41Z</time>
      </trkpt>
      <trkpt lat="39.8776600" lon="-4.9687430">
        <ele>404.6</ele>
        <time>2019-07-08T15:21:47Z</time>
      </trkpt>
      <trkpt lat="39.8777410" lon="-4.9690070">
        <ele>404.2</ele>
        <time>2019-07-08T15:21:51Z</time>
      </trkpt>
      <trkpt lat="39.8777630" lon="-4.9690730">
        <ele>404.0</ele>
        <time>2019-07-08T15:21:52Z</time>
      </trkpt>
      <trkpt lat="39.8779690" lon="-4.9695620">
        <ele>404.4</ele>
        <time>2019-07-08T15:22:00Z</time>
      </trkpt>
      <trkpt lat="39.8782390" lon="-4.9700580">
        <ele>404.8</ele>
        <time>2019-07-08T15:22:09Z</time>
      </trkpt>
      <trkpt lat="39.8782690" lon="-4.9701120">
        <ele>405.0</ele>
        <time>2019-07-08T15:22:10Z</time>
      </trkpt>
      <trkpt lat="39.8783660" lon="-4.9702730">
        <ele>405.2</ele>
        <time>2019-07-08T15:22:13Z</time>
      </trkpt>
      <trkpt lat="39.8785570" lon="-4.9706160">
        <ele>405.2</ele>
        <time>2019-07-08T15:22:19Z</time>
      </trkpt>
      <trkpt lat="39.8788990" lon="-4.9712350">
        <ele>405.6</ele>
        <time>2019-07-08T15:22:30Z</time>
      </trkpt>
      <trkpt lat="39.8789300" lon="-4.9712890">
        <ele>405.6</ele>
        <time>2019-07-08T15:22:31Z</time>
      </trkpt>
      <trkpt lat="39.8791710" lon="-4.9717840">
        <ele>405.8</ele>
        <time>2019-07-08T15:22:40Z</time>
      </trkpt>
      <trkpt lat="39.8792590" lon="-4.9719830">
        <ele>406.2</ele>
        <time>2019-07-08T15:22:44Z</time>
      </trkpt>
      <trkpt lat="39.8793420" lon="-4.9721950">
        <ele>407.2</ele>
        <time>2019-07-08T15:22:48Z</time>
      </trkpt>
      <trkpt lat="39.8793780" lon="-4.9723020">
        <ele>407.4</ele>
        <time>2019-07-08T15:22:50Z</time>
      </trkpt>
      <trkpt lat="39.8794630" lon="-4.9725530">
        <ele>408.4</ele>
        <time>2019-07-08T15:22:55Z</time>
      </trkpt>
      <trkpt lat="39.8794780" lon="-4.9726000">
        <ele>408.8</ele>
        <time>2019-07-08T15:22:56Z</time>
      </trkpt>
      <trkpt lat="39.8795230" lon="-4.9727320">
        <ele>409.8</ele>
        <time>2019-07-08T15:22:59Z</time>
      </trkpt>
      <trkpt lat="39.8795800" lon="-4.9728940">
        <ele>410.6</ele>
        <time>2019-07-08T15:23:03Z</time>
      </trkpt>
      <trkpt lat="39.8795940" lon="-4.9729330">
        <ele>410.8</ele>
        <time>2019-07-08T15:23:04Z</time>
      </trkpt>
      <trkpt lat="39.8796070" lon="-4.9729720">
        <ele>410.8</ele>
        <time>2019-07-08T15:23:05Z</time>
      </trkpt>
      <trkpt lat="39.8796320" lon="-4.9730440">
        <ele>411.4</ele>
        <time>2019-07-08T15:23:07Z</time>
      </trkpt>
      <trkpt lat="39.8796540" lon="-4.9731090">
        <ele>411.8</ele>
        <time>2019-07-08T15:23:09Z</time>
      </trkpt>
      <trkpt lat="39.8796840" lon="-4.9731940">
        <ele>413.2</ele>
        <time>2019-07-08T15:23:12Z</time>
      </trkpt>
      <trkpt lat="39.8797230" lon="-4.9732450">
        <ele>414.0</ele>
        <time>2019-07-08T15:23:15Z</time>
      </trkpt>
      <trkpt lat="39.8797260" lon="-4.9732720">
        <ele>414.0</ele>
        <time>2019-07-08T15:23:16Z</time>
      </trkpt>
      <trkpt lat="39.8797250" lon="-4.9733340">
        <ele>414.4</ele>
        <time>2019-07-08T15:23:18Z</time>
      </trkpt>
      <trkpt lat="39.8797470" lon="-4.9734310">
        <ele>415.6</ele>
        <time>2019-07-08T15:23:22Z</time>
      </trkpt>
      <trkpt lat="39.8797800" lon="-4.9735290">
        <ele>416.6</ele>
        <time>2019-07-08T15:23:27Z</time>
      </trkpt>
      <trkpt lat="39.8797920" lon="-4.9735670">
        <ele>416.8</ele>
        <time>2019-07-08T15:23:29Z</time>
      </trkpt>
      <trkpt lat="39.8798070" lon="-4.9736230">
        <ele>417.6</ele>
        <time>2019-07-08T15:23:32Z</time>
      </trkpt>
      <trkpt lat="39.8797960" lon="-4.9736340">
        <ele>417.8</ele>
        <time>2019-07-08T15:23:33Z</time>
      </trkpt>
      <trkpt lat="39.8797580" lon="-4.9735580">
        <ele>418.2</ele>
        <time>2019-07-08T15:23:36Z</time>
      </trkpt>
      <trkpt lat="39.8796940" lon="-4.9733300">
        <ele>417.4</ele>
        <time>2019-07-08T15:23:40Z</time>
      </trkpt>
      <trkpt lat="39.8797260" lon="-4.9732390">
        <ele>416.4</ele>
        <time>2019-07-08T15:23:42Z</time>
      </trkpt>
      <trkpt lat="39.8797690" lon="-4.9732260">
        <ele>416.0</ele>
        <time>2019-07-08T15:23:43Z</time>
      </trkpt>
      <trkpt lat="39.8798210" lon="-4.9732390">
        <ele>415.2</ele>
        <time>2019-07-08T15:23:44Z</time>
      </trkpt>
      <trkpt lat="39.8799140" lon="-4.9733130">
        <ele>414.2</ele>
        <time>2019-07-08T15:23:46Z</time>
      </trkpt>
      <trkpt lat="39.8799590" lon="-4.9733530">
        <ele>414.0</ele>
        <time>2019-07-08T15:23:47Z</time>
      </trkpt>
      <trkpt lat="39.8800030" lon="-4.9733950">
        <ele>413.8</ele>
        <time>2019-07-08T15:23:48Z</time>
      </trkpt>
      <trkpt lat="39.8800950" lon="-4.9734680">
        <ele>413.6</ele>
        <time>2019-07-08T15:23:50Z</time>
      </trkpt>
      <trkpt lat="39.8801380" lon="-4.9734920">
        <ele>413.6</ele>
        <time>2019-07-08T15:23:51Z</time>
      </trkpt>
      <trkpt lat="39.8801720" lon="-4.9735100">
        <ele>413.6</ele>
        <time>2019-07-08T15:23:52Z</time>
      </trkpt>
      <trkpt lat="39.8801940" lon="-4.9735630">
        <ele>413.6</ele>
        <time>2019-07-08T15:23:54Z</time>
      </trkpt>
      <trkpt lat="39.8801810" lon="-4.9735900">
        <ele>413.4</ele>
        <time>2019-07-08T15:23:55Z</time>
      </trkpt>
      <trkpt lat="39.8801350" lon="-4.9736340">
        <ele>413.4</ele>
        <time>2019-07-08T15:23:57Z</time>
      </trkpt>
      <trkpt lat="39.8801070" lon="-4.9736530">
        <ele>413.4</ele>
        <time>2019-07-08T15:23:59Z</time>
      </trkpt>
      <trkpt lat="39.8801040" lon="-4.9736540">
        <ele>413.4</ele>
        <time>2019-07-08T15:24:01Z</time>
      </trkpt>
      <trkpt lat="39.8800810" lon="-4.9736640">
        <ele>413.2</ele>
        <time>2019-07-08T15:24:31Z</time>
      </trkpt>
      <trkpt lat="39.8800640" lon="-4.9736750">
        <ele>413.2</ele>
        <time>2019-07-08T15:24:32Z</time>
      </trkpt>
      <trkpt lat="39.8800190" lon="-4.9737030">
        <ele>413.4</ele>
        <time>2019-07-08T15:24:34Z</time>
      </trkpt>
      <trkpt lat="39.8799550" lon="-4.9737410">
        <ele>413.4</ele>
        <time>2019-07-08T15:24:36Z</time>
      </trkpt>
      <trkpt lat="39.8799180" lon="-4.9737620">
        <ele>413.6</ele>
        <time>2019-07-08T15:24:37Z</time>
      </trkpt>
      <trkpt lat="39.8798360" lon="-4.9738100">
        <ele>413.8</ele>
        <time>2019-07-08T15:24:39Z</time>
      </trkpt>
      <trkpt lat="39.8797470" lon="-4.9738590">
        <ele>413.8</ele>
        <time>2019-07-08T15:24:41Z</time>
      </trkpt>
      <trkpt lat="39.8793180" lon="-4.9740670">
        <ele>414.0</ele>
        <time>2019-07-08T15:24:50Z</time>
      </trkpt>
      <trkpt lat="39.8791120" lon="-4.9741730">
        <ele>414.8</ele>
        <time>2019-07-08T15:24:54Z</time>
      </trkpt>
      <trkpt lat="39.8789540" lon="-4.9742560">
        <ele>415.0</ele>
        <time>2019-07-08T15:24:57Z</time>
      </trkpt>
      <trkpt lat="39.8789020" lon="-4.9742840">
        <ele>415.2</ele>
        <time>2019-07-08T15:24:58Z</time>
      </trkpt>
      <trkpt lat="39.8786370" lon="-4.9744340">
        <ele>415.4</ele>
        <time>2019-07-08T15:25:03Z</time>
      </trkpt>
      <trkpt lat="39.8785280" lon="-4.9744970">
        <ele>415.2</ele>
        <time>2019-07-08T15:25:05Z</time>
      </trkpt>
      <trkpt lat="39.8780870" lon="-4.9747370">
        <ele>415.2</ele>
        <time>2019-07-08T15:25:13Z</time>
      </trkpt>
      <trkpt lat="39.8778180" lon="-4.9749210">
        <ele>414.8</ele>
        <time>2019-07-08T15:25:18Z</time>
      </trkpt>
      <trkpt lat="39.8777020" lon="-4.9749770">
        <ele>414.6</ele>
        <time>2019-07-08T15:25:20Z</time>
      </trkpt>
      <trkpt lat="39.8773520" lon="-4.9751740">
        <ele>414.4</ele>
        <time>2019-07-08T15:25:26Z</time>
      </trkpt>
      <trkpt lat="39.8771660" lon="-4.9752570">
        <ele>413.8</ele>
        <time>2019-07-08T15:25:29Z</time>
      </trkpt>
      <trkpt lat="39.8768020" lon="-4.9754410">
        <ele>413.2</ele>
        <time>2019-07-08T15:25:35Z</time>
      </trkpt>
      <trkpt lat="39.8762750" lon="-4.9757200">
        <ele>413.6</ele>
        <time>2019-07-08T15:25:44Z</time>
      </trkpt>
      <trkpt lat="39.8757590" lon="-4.9759970">
        <ele>413.6</ele>
        <time>2019-07-08T15:25:53Z</time>
      </trkpt>
      <trkpt lat="39.8757040" lon="-4.9760290">
        <ele>413.6</ele>
        <time>2019-07-08T15:25:54Z</time>
      </trkpt>
      <trkpt lat="39.8752120" lon="-4.9763010">
        <ele>413.6</ele>
        <time>2019-07-08T15:26:03Z</time>
      </trkpt>
      <trkpt lat="39.8747790" lon="-4.9765330">
        <ele>413.8</ele>
        <time>2019-07-08T15:26:11Z</time>
      </trkpt>
      <trkpt lat="39.8746700" lon="-4.9765910">
        <ele>414.0</ele>
        <time>2019-07-08T15:26:13Z</time>
      </trkpt>
      <trkpt lat="39.8741650" lon="-4.9768670">
        <ele>414.8</ele>
        <time>2019-07-08T15:26:22Z</time>
      </trkpt>
      <trkpt lat="39.8741060" lon="-4.9768980">
        <ele>415.0</ele>
        <time>2019-07-08T15:26:23Z</time>
      </trkpt>
      <trkpt lat="39.8736340" lon="-4.9771570">
        <ele>415.6</ele>
        <time>2019-07-08T15:26:31Z</time>
      </trkpt>
      <trkpt lat="39.8730980" lon="-4.9774430">
        <ele>415.6</ele>
        <time>2019-07-08T15:26:40Z</time>
      </trkpt>
      <trkpt lat="39.8730390" lon="-4.9774770">
        <ele>415.6</ele>
        <time>2019-07-08T15:26:41Z</time>
      </trkpt>
      <trkpt lat="39.8725590" lon="-4.9777480">
        <ele>415.4</ele>
        <time>2019-07-08T15:26:49Z</time>
      </trkpt>
      <trkpt lat="39.8721330" lon="-4.9779830">
        <ele>416.0</ele>
        <time>2019-07-08T15:26:56Z</time>
      </trkpt>
      <trkpt lat="39.8720130" lon="-4.9780470">
        <ele>416.0</ele>
        <time>2019-07-08T15:26:58Z</time>
      </trkpt>
      <trkpt lat="39.8714820" lon="-4.9783380">
        <ele>416.2</ele>
        <time>2019-07-08T15:27:07Z</time>
      </trkpt>
      <trkpt lat="39.8714240" lon="-4.9783700">
        <ele>416.2</ele>
        <time>2019-07-08T15:27:08Z</time>
      </trkpt>
      <trkpt lat="39.8708980" lon="-4.9786600">
        <ele>416.4</ele>
        <time>2019-07-08T15:27:17Z</time>
      </trkpt>
      <trkpt lat="39.8708400" lon="-4.9786890">
        <ele>416.6</ele>
        <time>2019-07-08T15:27:18Z</time>
      </trkpt>
      <trkpt lat="39.8703190" lon="-4.9789760">
        <ele>416.4</ele>
        <time>2019-07-08T15:27:27Z</time>
      </trkpt>
      <trkpt lat="39.8702630" lon="-4.9790080">
        <ele>416.8</ele>
        <time>2019-07-08T15:27:28Z</time>
      </trkpt>
      <trkpt lat="39.8699830" lon="-4.9791600">
        <ele>417.4</ele>
        <time>2019-07-08T15:27:33Z</time>
      </trkpt>
      <trkpt lat="39.8697670" lon="-4.9792770">
        <ele>417.6</ele>
        <time>2019-07-08T15:27:37Z</time>
      </trkpt>
      <trkpt lat="39.8693990" lon="-4.9794730">
        <ele>417.2</ele>
        <time>2019-07-08T15:27:44Z</time>
      </trkpt>
      <trkpt lat="39.8690270" lon="-4.9796760">
        <ele>417.2</ele>
        <time>2019-07-08T15:27:51Z</time>
      </trkpt>
      <trkpt lat="39.8684970" lon="-4.9799720">
        <ele>417.6</ele>
        <time>2019-07-08T15:28:01Z</time>
      </trkpt>
      <trkpt lat="39.8683410" lon="-4.9800550">
        <ele>417.8</ele>
        <time>2019-07-08T15:28:04Z</time>
      </trkpt>
      <trkpt lat="39.8678000" lon="-4.9803450">
        <ele>417.4</ele>
        <time>2019-07-08T15:28:14Z</time>
      </trkpt>
      <trkpt lat="39.8673040" lon="-4.9806170">
        <ele>417.8</ele>
        <time>2019-07-08T15:28:23Z</time>
      </trkpt>
      <trkpt lat="39.8669080" lon="-4.9808320">
        <ele>418.4</ele>
        <time>2019-07-08T15:28:30Z</time>
      </trkpt>
      <trkpt lat="39.8667330" lon="-4.9809260">
        <ele>418.4</ele>
        <time>2019-07-08T15:28:33Z</time>
      </trkpt>
      <trkpt lat="39.8662110" lon="-4.9812100">
        <ele>418.4</ele>
        <time>2019-07-08T15:28:42Z</time>
      </trkpt>
      <trkpt lat="39.8657000" lon="-4.9814830">
        <ele>418.6</ele>
        <time>2019-07-08T15:28:51Z</time>
      </trkpt>
      <trkpt lat="39.8655330" lon="-4.9815750">
        <ele>418.8</ele>
        <time>2019-07-08T15:28:54Z</time>
      </trkpt>
      <trkpt lat="39.8650990" lon="-4.9818140">
        <ele>419.2</ele>
        <time>2019-07-08T15:29:02Z</time>
      </trkpt>
      <trkpt lat="39.8646730" lon="-4.9820580">
        <ele>418.8</ele>
        <time>2019-07-08T15:29:10Z</time>
      </trkpt>
      <trkpt lat="39.8645980" lon="-4.9820910">
        <ele>418.6</ele>
        <time>2019-07-08T15:29:13Z</time>
      </trkpt>
      <trkpt lat="39.8646020" lon="-4.9820900">
        <ele>418.4</ele>
        <time>2019-07-08T15:29:14Z</time>
      </trkpt>
      <trkpt lat="39.8646630" lon="-4.9820650">
        <ele>418.2</ele>
        <time>2019-07-08T15:29:20Z</time>
      </trkpt>
      <trkpt lat="39.8646970" lon="-4.9820390">
        <ele>418.2</ele>
        <time>2019-07-08T15:29:22Z</time>
      </trkpt>
      <trkpt lat="39.8647370" lon="-4.9820270">
        <ele>418.4</ele>
        <time>2019-07-08T15:29:26Z</time>
      </trkpt>
      <trkpt lat="39.8646900" lon="-4.9820380">
        <ele>418.4</ele>
        <time>2019-07-08T15:29:33Z</time>
      </trkpt>
      <trkpt lat="39.8646540" lon="-4.9820600">
        <ele>418.4</ele>
        <time>2019-07-08T15:29:35Z</time>
      </trkpt>
      <trkpt lat="39.8645280" lon="-4.9821450">
        <ele>418.8</ele>
        <time>2019-07-08T15:29:40Z</time>
      </trkpt>
      <trkpt lat="39.8642570" lon="-4.9822790">
        <ele>419.0</ele>
        <time>2019-07-08T15:29:47Z</time>
      </trkpt>
      <trkpt lat="39.8639060" lon="-4.9824680">
        <ele>419.0</ele>
        <time>2019-07-08T15:29:55Z</time>
      </trkpt>
      <trkpt lat="39.8638600" lon="-4.9824930">
        <ele>419.2</ele>
        <time>2019-07-08T15:29:56Z</time>
      </trkpt>
      <trkpt lat="39.8636640" lon="-4.9825950">
        <ele>419.6</ele>
        <time>2019-07-08T15:30:00Z</time>
      </trkpt>
      <trkpt lat="39.8635050" lon="-4.9826720">
        <ele>419.8</ele>
        <time>2019-07-08T15:30:03Z</time>
      </trkpt>
      <trkpt lat="39.8633000" lon="-4.9827910">
        <ele>420.0</ele>
        <time>2019-07-08T15:30:07Z</time>
      </trkpt>
      <trkpt lat="39.8630330" lon="-4.9829260">
        <ele>420.2</ele>
        <time>2019-07-08T15:30:12Z</time>
      </trkpt>
      <trkpt lat="39.8627180" lon="-4.9830980">
        <ele>420.8</ele>
        <time>2019-07-08T15:30:18Z</time>
      </trkpt>
      <trkpt lat="39.8624550" lon="-4.9832380">
        <ele>421.0</ele>
        <time>2019-07-08T15:30:23Z</time>
      </trkpt>
      <trkpt lat="39.8620430" lon="-4.9834640">
        <ele>421.4</ele>
        <time>2019-07-08T15:30:31Z</time>
      </trkpt>
      <trkpt lat="39.8618350" lon="-4.9835930">
        <ele>421.8</ele>
        <time>2019-07-08T15:30:35Z</time>
      </trkpt>
      <trkpt lat="39.8616800" lon="-4.9836760">
        <ele>421.8</ele>
        <time>2019-07-08T15:30:38Z</time>
      </trkpt>
      <trkpt lat="39.8613010" lon="-4.9838600">
        <ele>421.0</ele>
        <time>2019-07-08T15:30:45Z</time>
      </trkpt>
      <trkpt lat="39.8608640" lon="-4.9840880">
        <ele>421.4</ele>
        <time>2019-07-08T15:30:53Z</time>
      </trkpt>
      <trkpt lat="39.8603890" lon="-4.9843410">
        <ele>421.2</ele>
        <time>2019-07-08T15:31:02Z</time>
      </trkpt>
      <trkpt lat="39.8599060" lon="-4.9846080">
        <ele>421.4</ele>
        <time>2019-07-08T15:31:11Z</time>
      </trkpt>
      <trkpt lat="39.8596890" lon="-4.9847230">
        <ele>421.4</ele>
        <time>2019-07-08T15:31:15Z</time>
      </trkpt>
      <trkpt lat="39.8594210" lon="-4.9848790">
        <ele>421.4</ele>
        <time>2019-07-08T15:31:20Z</time>
      </trkpt>
      <trkpt lat="39.8589540" lon="-4.9851300">
        <ele>421.0</ele>
        <time>2019-07-08T15:31:29Z</time>
      </trkpt>
      <trkpt lat="39.8585310" lon="-4.9853570">
        <ele>420.6</ele>
        <time>2019-07-08T15:31:37Z</time>
      </trkpt>
      <trkpt lat="39.8584240" lon="-4.9854170">
        <ele>420.8</ele>
        <time>2019-07-08T15:31:39Z</time>
      </trkpt>
      <trkpt lat="39.8580480" lon="-4.9856190">
        <ele>420.6</ele>
        <time>2019-07-08T15:31:46Z</time>
      </trkpt>
      <trkpt lat="39.8575540" lon="-4.9858890">
        <ele>421.0</ele>
        <time>2019-07-08T15:31:55Z</time>
      </trkpt>
      <trkpt lat="39.8570700" lon="-4.9861470">
        <ele>421.2</ele>
        <time>2019-07-08T15:32:04Z</time>
      </trkpt>
      <trkpt lat="39.8566450" lon="-4.9863810">
        <ele>421.6</ele>
        <time>2019-07-08T15:32:12Z</time>
      </trkpt>
      <trkpt lat="39.8561260" lon="-4.9866670">
        <ele>420.6</ele>
        <time>2019-07-08T15:32:22Z</time>
      </trkpt>
      <trkpt lat="39.8560730" lon="-4.9866960">
        <ele>420.6</ele>
        <time>2019-07-08T15:32:23Z</time>
      </trkpt>
      <trkpt lat="39.8555990" lon="-4.9869610">
        <ele>421.0</ele>
        <time>2019-07-08T15:32:32Z</time>
      </trkpt>
      <trkpt lat="39.8550990" lon="-4.9872370">
        <ele>420.6</ele>
        <time>2019-07-08T15:32:41Z</time>
      </trkpt>
      <trkpt lat="39.8550420" lon="-4.9872680">
        <ele>420.8</ele>
        <time>2019-07-08T15:32:42Z</time>
      </trkpt>
      <trkpt lat="39.8546420" lon="-4.9874850">
        <ele>421.0</ele>
        <time>2019-07-08T15:32:49Z</time>
      </trkpt>
      <trkpt lat="39.8543490" lon="-4.9876440">
        <ele>421.0</ele>
        <time>2019-07-08T15:32:54Z</time>
      </trkpt>
      <trkpt lat="39.8538020" lon="-4.9879450">
        <ele>420.8</ele>
        <time>2019-07-08T15:33:03Z</time>
      </trkpt>
      <trkpt lat="39.8537400" lon="-4.9879790">
        <ele>420.8</ele>
        <time>2019-07-08T15:33:04Z</time>
      </trkpt>
      <trkpt lat="39.8532730" lon="-4.9882370">
        <ele>420.8</ele>
        <time>2019-07-08T15:33:12Z</time>
      </trkpt>
      <trkpt lat="39.8527650" lon="-4.9885180">
        <ele>421.4</ele>
        <time>2019-07-08T15:33:21Z</time>
      </trkpt>
      <trkpt lat="39.8527100" lon="-4.9885500">
        <ele>421.4</ele>
        <time>2019-07-08T15:33:22Z</time>
      </trkpt>
      <trkpt lat="39.8523220" lon="-4.9887610">
        <ele>420.8</ele>
        <time>2019-07-08T15:33:29Z</time>
      </trkpt>
      <trkpt lat="39.8522700" lon="-4.9887920">
        <ele>420.6</ele>
        <time>2019-07-08T15:33:30Z</time>
      </trkpt>
      <trkpt lat="39.8520140" lon="-4.9889360">
        <ele>420.0</ele>
        <time>2019-07-08T15:33:35Z</time>
      </trkpt>
      <trkpt lat="39.8517570" lon="-4.9890750">
        <ele>420.0</ele>
        <time>2019-07-08T15:33:40Z</time>
      </trkpt>
      <trkpt lat="39.8512910" lon="-4.9893240">
        <ele>420.6</ele>
        <time>2019-07-08T15:33:49Z</time>
      </trkpt>
      <trkpt lat="39.8509310" lon="-4.9895260">
        <ele>420.2</ele>
        <time>2019-07-08T15:33:56Z</time>
      </trkpt>
      <trkpt lat="39.8504440" lon="-4.9897680">
        <ele>420.2</ele>
        <time>2019-07-08T15:34:05Z</time>
      </trkpt>
      <trkpt lat="39.8499050" lon="-4.9900060">
        <ele>419.8</ele>
        <time>2019-07-08T15:34:15Z</time>
      </trkpt>
      <trkpt lat="39.8494090" lon="-4.9901870">
        <ele>419.8</ele>
        <time>2019-07-08T15:34:24Z</time>
      </trkpt>
      <trkpt lat="39.8490310" lon="-4.9902920">
        <ele>419.6</ele>
        <time>2019-07-08T15:34:31Z</time>
      </trkpt>
      <trkpt lat="39.8484720" lon="-4.9904000">
        <ele>419.2</ele>
        <time>2019-07-08T15:34:41Z</time>
      </trkpt>
      <trkpt lat="39.8484160" lon="-4.9904090">
        <ele>419.0</ele>
        <time>2019-07-08T15:34:42Z</time>
      </trkpt>
      <trkpt lat="39.8479570" lon="-4.9904650">
        <ele>419.0</ele>
        <time>2019-07-08T15:34:50Z</time>
      </trkpt>
      <trkpt lat="39.8474350" lon="-4.9905020">
        <ele>418.8</ele>
        <time>2019-07-08T15:34:59Z</time>
      </trkpt>
      <trkpt lat="39.8468370" lon="-4.9905290">
        <ele>418.6</ele>
        <time>2019-07-08T15:35:09Z</time>
      </trkpt>
      <trkpt lat="39.8467750" lon="-4.9905320">
        <ele>418.6</ele>
        <time>2019-07-08T15:35:10Z</time>
      </trkpt>
      <trkpt lat="39.8462230" lon="-4.9905610">
        <ele>419.6</ele>
        <time>2019-07-08T15:35:19Z</time>
      </trkpt>
      <trkpt lat="39.8457550" lon="-4.9905870">
        <ele>419.4</ele>
        <time>2019-07-08T15:35:27Z</time>
      </trkpt>
      <trkpt lat="39.8452800" lon="-4.9906270">
        <ele>419.0</ele>
        <time>2019-07-08T15:35:35Z</time>
      </trkpt>
      <trkpt lat="39.8451060" lon="-4.9906330">
        <ele>418.6</ele>
        <time>2019-07-08T15:35:38Z</time>
      </trkpt>
      <trkpt lat="39.8445730" lon="-4.9906550">
        <ele>419.0</ele>
        <time>2019-07-08T15:35:47Z</time>
      </trkpt>
      <trkpt lat="39.8441490" lon="-4.9906750">
        <ele>418.8</ele>
        <time>2019-07-08T15:35:54Z</time>
      </trkpt>
      <trkpt lat="39.8435980" lon="-4.9907070">
        <ele>419.2</ele>
        <time>2019-07-08T15:36:03Z</time>
      </trkpt>
      <trkpt lat="39.8430460" lon="-4.9907440">
        <ele>419.0</ele>
        <time>2019-07-08T15:36:12Z</time>
      </trkpt>
      <trkpt lat="39.8429840" lon="-4.9907470">
        <ele>419.0</ele>
        <time>2019-07-08T15:36:13Z</time>
      </trkpt>
      <trkpt lat="39.8424210" lon="-4.9907780">
        <ele>419.8</ele>
        <time>2019-07-08T15:36:22Z</time>
      </trkpt>
      <trkpt lat="39.8422980" lon="-4.9907830">
        <ele>419.8</ele>
        <time>2019-07-08T15:36:24Z</time>
      </trkpt>
      <trkpt lat="39.8417650" lon="-4.9908120">
        <ele>419.2</ele>
        <time>2019-07-08T15:36:33Z</time>
      </trkpt>
      <trkpt lat="39.8412390" lon="-4.9908430">
        <ele>419.6</ele>
        <time>2019-07-08T15:36:42Z</time>
      </trkpt>
      <trkpt lat="39.8407640" lon="-4.9908660">
        <ele>420.2</ele>
        <time>2019-07-08T15:36:50Z</time>
      </trkpt>
      <trkpt lat="39.8403100" lon="-4.9908890">
        <ele>420.2</ele>
        <time>2019-07-08T15:36:58Z</time>
      </trkpt>
      <trkpt lat="39.8401930" lon="-4.9909000">
        <ele>420.0</ele>
        <time>2019-07-08T15:37:00Z</time>
      </trkpt>
      <trkpt lat="39.8396240" lon="-4.9909470">
        <ele>419.8</ele>
        <time>2019-07-08T15:37:10Z</time>
      </trkpt>
      <trkpt lat="39.8391130" lon="-4.9909750">
        <ele>419.8</ele>
        <time>2019-07-08T15:37:19Z</time>
      </trkpt>
      <trkpt lat="39.8386000" lon="-4.9910090">
        <ele>419.0</ele>
        <time>2019-07-08T15:37:28Z</time>
      </trkpt>
      <trkpt lat="39.8381240" lon="-4.9910420">
        <ele>418.6</ele>
        <time>2019-07-08T15:37:36Z</time>
      </trkpt>
      <trkpt lat="39.8380630" lon="-4.9910440">
        <ele>418.6</ele>
        <time>2019-07-08T15:37:37Z</time>
      </trkpt>
      <trkpt lat="39.8378730" lon="-4.9910570">
        <ele>418.2</ele>
        <time>2019-07-08T15:37:40Z</time>
      </trkpt>
      <trkpt lat="39.8375120" lon="-4.9910840">
        <ele>418.6</ele>
        <time>2019-07-08T15:37:46Z</time>
      </trkpt>
      <trkpt lat="39.8374550" lon="-4.9910890">
        <ele>418.6</ele>
        <time>2019-07-08T15:37:47Z</time>
      </trkpt>
      <trkpt lat="39.8371250" lon="-4.9911260">
        <ele>419.0</ele>
        <time>2019-07-08T15:37:53Z</time>
      </trkpt>
      <trkpt lat="39.8368020" lon="-4.9911400">
        <ele>419.4</ele>
        <time>2019-07-08T15:37:59Z</time>
      </trkpt>
      <trkpt lat="39.8366390" lon="-4.9911510">
        <ele>419.4</ele>
        <time>2019-07-08T15:38:02Z</time>
      </trkpt>
      <trkpt lat="39.8364200" lon="-4.9911760">
        <ele>419.4</ele>
        <time>2019-07-08T15:38:06Z</time>
      </trkpt>
      <trkpt lat="39.8362550" lon="-4.9911790">
        <ele>419.4</ele>
        <time>2019-07-08T15:38:09Z</time>
      </trkpt>
      <trkpt lat="39.8357420" lon="-4.9912100">
        <ele>419.6</ele>
        <time>2019-07-08T15:38:18Z</time>
      </trkpt>
      <trkpt lat="39.8351680" lon="-4.9912460">
        <ele>419.4</ele>
        <time>2019-07-08T15:38:28Z</time>
      </trkpt>
      <trkpt lat="39.8351110" lon="-4.9912490">
        <ele>419.6</ele>
        <time>2019-07-08T15:38:29Z</time>
      </trkpt>
      <trkpt lat="39.8348270" lon="-4.9912700">
        <ele>419.6</ele>
        <time>2019-07-08T15:38:34Z</time>
      </trkpt>
      <trkpt lat="39.8346000" lon="-4.9912810">
        <ele>419.4</ele>
        <time>2019-07-08T15:38:38Z</time>
      </trkpt>
      <trkpt lat="39.8344860" lon="-4.9912870">
        <ele>419.8</ele>
        <time>2019-07-08T15:38:40Z</time>
      </trkpt>
      <trkpt lat="39.8339790" lon="-4.9913180">
        <ele>419.6</ele>
        <time>2019-07-08T15:38:49Z</time>
      </trkpt>
      <trkpt lat="39.8334570" lon="-4.9913480">
        <ele>419.6</ele>
        <time>2019-07-08T15:38:58Z</time>
      </trkpt>
      <trkpt lat="39.8330370" lon="-4.9913720">
        <ele>419.6</ele>
        <time>2019-07-08T15:39:05Z</time>
      </trkpt>
      <trkpt lat="39.8325390" lon="-4.9913960">
        <ele>419.2</ele>
        <time>2019-07-08T15:39:13Z</time>
      </trkpt>
      <trkpt lat="39.8319820" lon="-4.9914270">
        <ele>419.6</ele>
        <time>2019-07-08T15:39:22Z</time>
      </trkpt>
      <trkpt lat="39.8319200" lon="-4.9914320">
        <ele>419.6</ele>
        <time>2019-07-08T15:39:23Z</time>
      </trkpt>
      <trkpt lat="39.8318580" lon="-4.9914350">
        <ele>419.6</ele>
        <time>2019-07-08T15:39:24Z</time>
      </trkpt>
      <trkpt lat="39.8313020" lon="-4.9914590">
        <ele>419.6</ele>
        <time>2019-07-08T15:39:33Z</time>
      </trkpt>
      <trkpt lat="39.8308390" lon="-4.9914870">
        <ele>419.6</ele>
        <time>2019-07-08T15:39:41Z</time>
      </trkpt>
      <trkpt lat="39.8306120" lon="-4.9915020">
        <ele>420.2</ele>
        <time>2019-07-08T15:39:45Z</time>
      </trkpt>
      <trkpt lat="39.8302040" lon="-4.9915270">
        <ele>420.0</ele>
        <time>2019-07-08T15:39:52Z</time>
      </trkpt>
      <trkpt lat="39.8296810" lon="-4.9915520">
        <ele>419.6</ele>
        <time>2019-07-08T15:40:01Z</time>
      </trkpt>
      <trkpt lat="39.8293980" lon="-4.9915770">
        <ele>419.0</ele>
        <time>2019-07-08T15:40:06Z</time>
      </trkpt>
      <trkpt lat="39.8292300" lon="-4.9915910">
        <ele>419.2</ele>
        <time>2019-07-08T15:40:09Z</time>
      </trkpt>
      <trkpt lat="39.8286540" lon="-4.9916180">
        <ele>419.4</ele>
        <time>2019-07-08T15:40:19Z</time>
      </trkpt>
      <trkpt lat="39.8281910" lon="-4.9916440">
        <ele>419.6</ele>
        <time>2019-07-08T15:40:27Z</time>
      </trkpt>
      <trkpt lat="39.8281330" lon="-4.9916490">
        <ele>419.6</ele>
        <time>2019-07-08T15:40:28Z</time>
      </trkpt>
      <trkpt lat="39.8276740" lon="-4.9916770">
        <ele>419.4</ele>
        <time>2019-07-08T15:40:37Z</time>
      </trkpt>
      <trkpt lat="39.8270940" lon="-4.9917230">
        <ele>419.0</ele>
        <time>2019-07-08T15:40:47Z</time>
      </trkpt>
      <trkpt lat="39.8265820" lon="-4.9917640">
        <ele>419.4</ele>
        <time>2019-07-08T15:40:56Z</time>
      </trkpt>
      <trkpt lat="39.8262460" lon="-4.9917770">
        <ele>419.4</ele>
        <time>2019-07-08T15:41:02Z</time>
      </trkpt>
      <trkpt lat="39.8256690" lon="-4.9918080">
        <ele>419.8</ele>
        <time>2019-07-08T15:41:12Z</time>
      </trkpt>
      <trkpt lat="39.8251690" lon="-4.9918600">
        <ele>419.6</ele>
        <time>2019-07-08T15:41:21Z</time>
      </trkpt>
      <trkpt lat="39.8248600" lon="-4.9919130">
        <ele>420.0</ele>
        <time>2019-07-08T15:41:27Z</time>
      </trkpt>
      <trkpt lat="39.8247590" lon="-4.9919340">
        <ele>419.8</ele>
        <time>2019-07-08T15:41:29Z</time>
      </trkpt>
      <trkpt lat="39.8242050" lon="-4.9920760">
        <ele>420.4</ele>
        <time>2019-07-08T15:41:40Z</time>
      </trkpt>
      <trkpt lat="39.8241540" lon="-4.9920920">
        <ele>420.4</ele>
        <time>2019-07-08T15:41:41Z</time>
      </trkpt>
      <trkpt lat="39.8239480" lon="-4.9921570">
        <ele>421.0</ele>
        <time>2019-07-08T15:41:45Z</time>
      </trkpt>
      <trkpt lat="39.8236370" lon="-4.9922810">
        <ele>421.4</ele>
        <time>2019-07-08T15:41:51Z</time>
      </trkpt>
      <trkpt lat="39.8232360" lon="-4.9924690">
        <ele>421.2</ele>
        <time>2019-07-08T15:41:59Z</time>
      </trkpt>
      <trkpt lat="39.8230310" lon="-4.9925760">
        <ele>422.0</ele>
        <time>2019-07-08T15:42:03Z</time>
      </trkpt>
      <trkpt lat="39.8226880" lon="-4.9927770">
        <ele>422.2</ele>
        <time>2019-07-08T15:42:10Z</time>
      </trkpt>
      <trkpt lat="39.8223180" lon="-4.9930340">
        <ele>422.4</ele>
        <time>2019-07-08T15:42:18Z</time>
      </trkpt>
      <trkpt lat="39.8218310" lon="-4.9934290">
        <ele>422.8</ele>
        <time>2019-07-08T15:42:29Z</time>
      </trkpt>
      <trkpt lat="39.8217860" lon="-4.9934660">
        <ele>422.8</ele>
        <time>2019-07-08T15:42:30Z</time>
      </trkpt>
      <trkpt lat="39.8214980" lon="-4.9937220">
        <ele>422.8</ele>
        <time>2019-07-08T15:42:37Z</time>
      </trkpt>
      <trkpt lat="39.8214850" lon="-4.9937330">
        <ele>422.8</ele>
        <time>2019-07-08T15:42:40Z</time>
      </trkpt>
      <trkpt lat="39.8214730" lon="-4.9937420">
        <ele>423.0</ele>
        <time>2019-07-08T15:45:00Z</time>
      </trkpt>
      <trkpt lat="39.8214600" lon="-4.9937540">
        <ele>423.0</ele>
        <time>2019-07-08T15:45:01Z</time>
      </trkpt>
      <trkpt lat="39.8214210" lon="-4.9937920">
        <ele>423.0</ele>
        <time>2019-07-08T15:45:03Z</time>
      </trkpt>
      <trkpt lat="39.8212700" lon="-4.9939160">
        <ele>423.4</ele>
        <time>2019-07-08T15:45:08Z</time>
      </trkpt>
      <trkpt lat="39.8212330" lon="-4.9939470">
        <ele>423.4</ele>
        <time>2019-07-08T15:45:09Z</time>
      </trkpt>
      <trkpt lat="39.8209040" lon="-4.9942180">
        <ele>423.0</ele>
        <time>2019-07-08T15:45:17Z</time>
      </trkpt>
      <trkpt lat="39.8205250" lon="-4.9945870">
        <ele>423.4</ele>
        <time>2019-07-08T15:45:26Z</time>
      </trkpt>
      <trkpt lat="39.8204860" lon="-4.9946320">
        <ele>423.4</ele>
        <time>2019-07-08T15:45:27Z</time>
      </trkpt>
      <trkpt lat="39.8202850" lon="-4.9948690">
        <ele>423.4</ele>
        <time>2019-07-08T15:45:32Z</time>
      </trkpt>
      <trkpt lat="39.8200770" lon="-4.9950970">
        <ele>423.2</ele>
        <time>2019-07-08T15:45:37Z</time>
      </trkpt>
      <trkpt lat="39.8197330" lon="-4.9954250">
        <ele>423.0</ele>
        <time>2019-07-08T15:45:45Z</time>
      </trkpt>
      <trkpt lat="39.8193140" lon="-4.9958350">
        <ele>423.4</ele>
        <time>2019-07-08T15:45:55Z</time>
      </trkpt>
      <trkpt lat="39.8192680" lon="-4.9958670">
        <ele>423.4</ele>
        <time>2019-07-08T15:45:56Z</time>
      </trkpt>
      <trkpt lat="39.8190820" lon="-4.9959810">
        <ele>423.4</ele>
        <time>2019-07-08T15:46:00Z</time>
      </trkpt>
      <trkpt lat="39.8190420" lon="-4.9960270">
        <ele>423.4</ele>
        <time>2019-07-08T15:46:01Z</time>
      </trkpt>
      <trkpt lat="39.8188140" lon="-4.9963400">
        <ele>423.0</ele>
        <time>2019-07-08T15:46:07Z</time>
      </trkpt>
      <trkpt lat="39.8184660" lon="-4.9967010">
        <ele>423.0</ele>
        <time>2019-07-08T15:46:15Z</time>
      </trkpt>
      <trkpt lat="39.8181870" lon="-4.9969630">
        <ele>423.4</ele>
        <time>2019-07-08T15:46:21Z</time>
      </trkpt>
      <trkpt lat="39.8181410" lon="-4.9970080">
        <ele>423.4</ele>
        <time>2019-07-08T15:46:22Z</time>
      </trkpt>
      <trkpt lat="39.8177700" lon="-4.9973610">
        <ele>423.2</ele>
        <time>2019-07-08T15:46:30Z</time>
      </trkpt>
      <trkpt lat="39.8177250" lon="-4.9974010">
        <ele>423.2</ele>
        <time>2019-07-08T15:46:31Z</time>
      </trkpt>
      <trkpt lat="39.8173580" lon="-4.9976940">
        <ele>423.4</ele>
        <time>2019-07-08T15:46:39Z</time>
      </trkpt>
      <trkpt lat="39.8169500" lon="-4.9980610">
        <ele>423.4</ele>
        <time>2019-07-08T15:46:48Z</time>
      </trkpt>
      <trkpt lat="39.8166300" lon="-4.9983660">
        <ele>423.8</ele>
        <time>2019-07-08T15:46:55Z</time>
      </trkpt>
      <trkpt lat="39.8165830" lon="-4.9984110">
        <ele>423.8</ele>
        <time>2019-07-08T15:46:56Z</time>
      </trkpt>
      <trkpt lat="39.8162950" lon="-4.9986870">
        <ele>423.2</ele>
        <time>2019-07-08T15:47:02Z</time>
      </trkpt>
      <trkpt lat="39.8159420" lon="-4.9990360">
        <ele>423.8</ele>
        <time>2019-07-08T15:47:10Z</time>
      </trkpt>
      <trkpt lat="39.8155890" lon="-4.9993790">
        <ele>424.0</ele>
        <time>2019-07-08T15:47:18Z</time>
      </trkpt>
      <trkpt lat="39.8151450" lon="-4.9998010">
        <ele>424.2</ele>
        <time>2019-07-08T15:47:28Z</time>
      </trkpt>
      <trkpt lat="39.8151000" lon="-4.9998410">
        <ele>424.4</ele>
        <time>2019-07-08T15:47:29Z</time>
      </trkpt>
      <trkpt lat="39.8146290" lon="-5.0002870">
        <ele>425.0</ele>
        <time>2019-07-08T15:47:40Z</time>
      </trkpt>
      <trkpt lat="39.8145430" lon="-5.0003690">
        <ele>425.2</ele>
        <time>2019-07-08T15:47:42Z</time>
      </trkpt>
      <trkpt lat="39.8143240" lon="-5.0005730">
        <ele>425.4</ele>
        <time>2019-07-08T15:47:47Z</time>
      </trkpt>
      <trkpt lat="39.8141130" lon="-5.0007740">
        <ele>425.8</ele>
        <time>2019-07-08T15:47:52Z</time>
      </trkpt>
      <trkpt lat="39.8137750" lon="-5.0011050">
        <ele>426.2</ele>
        <time>2019-07-08T15:48:00Z</time>
      </trkpt>
      <trkpt lat="39.8133790" lon="-5.0014810">
        <ele>426.6</ele>
        <time>2019-07-08T15:48:09Z</time>
      </trkpt>
      <trkpt lat="39.8131590" lon="-5.0016910">
        <ele>427.0</ele>
        <time>2019-07-08T15:48:14Z</time>
      </trkpt>
      <trkpt lat="39.8130250" lon="-5.0018150">
        <ele>427.2</ele>
        <time>2019-07-08T15:48:17Z</time>
      </trkpt>
      <trkpt lat="39.8128880" lon="-5.0019410">
        <ele>427.4</ele>
        <time>2019-07-08T15:48:20Z</time>
      </trkpt>
      <trkpt lat="39.8125680" lon="-5.0022410">
        <ele>427.6</ele>
        <time>2019-07-08T15:48:27Z</time>
      </trkpt>
      <trkpt lat="39.8122470" lon="-5.0025460">
        <ele>427.8</ele>
        <time>2019-07-08T15:48:34Z</time>
      </trkpt>
      <trkpt lat="39.8121550" lon="-5.0026310">
        <ele>428.0</ele>
        <time>2019-07-08T15:48:36Z</time>
      </trkpt>
      <trkpt lat="39.8117730" lon="-5.0030330">
        <ele>428.4</ele>
        <time>2019-07-08T15:48:45Z</time>
      </trkpt>
      <trkpt lat="39.8117350" lon="-5.0030740">
        <ele>428.6</ele>
        <time>2019-07-08T15:48:46Z</time>
      </trkpt>
      <trkpt lat="39.8116570" lon="-5.0031480">
        <ele>429.0</ele>
        <time>2019-07-08T15:48:48Z</time>
      </trkpt>
      <trkpt lat="39.8115230" lon="-5.0032490">
        <ele>429.2</ele>
        <time>2019-07-08T15:48:51Z</time>
      </trkpt>
      <trkpt lat="39.8113430" lon="-5.0034150">
        <ele>429.4</ele>
        <time>2019-07-08T15:48:55Z</time>
      </trkpt>
      <trkpt lat="39.8111630" lon="-5.0035830">
        <ele>429.4</ele>
        <time>2019-07-08T15:48:59Z</time>
      </trkpt>
      <trkpt lat="39.8107490" lon="-5.0039370">
        <ele>429.8</ele>
        <time>2019-07-08T15:49:08Z</time>
      </trkpt>
      <trkpt lat="39.8103250" lon="-5.0042820">
        <ele>430.4</ele>
        <time>2019-07-08T15:49:17Z</time>
      </trkpt>
      <trkpt lat="39.8102780" lon="-5.0043170">
        <ele>430.6</ele>
        <time>2019-07-08T15:49:18Z</time>
      </trkpt>
      <trkpt lat="39.8097730" lon="-5.0046480">
        <ele>430.8</ele>
        <time>2019-07-08T15:49:28Z</time>
      </trkpt>
      <trkpt lat="39.8093210" lon="-5.0049010">
        <ele>431.6</ele>
        <time>2019-07-08T15:49:37Z</time>
      </trkpt>
      <trkpt lat="39.8092210" lon="-5.0049530">
        <ele>431.8</ele>
        <time>2019-07-08T15:49:39Z</time>
      </trkpt>
      <trkpt lat="39.8088700" lon="-5.0051230">
        <ele>432.6</ele>
        <time>2019-07-08T15:49:46Z</time>
      </trkpt>
      <trkpt lat="39.8088180" lon="-5.0051470">
        <ele>432.6</ele>
        <time>2019-07-08T15:49:47Z</time>
      </trkpt>
      <trkpt lat="39.8082860" lon="-5.0053460">
        <ele>432.8</ele>
        <time>2019-07-08T15:49:57Z</time>
      </trkpt>
      <trkpt lat="39.8078300" lon="-5.0054850">
        <ele>432.2</ele>
        <time>2019-07-08T15:50:05Z</time>
      </trkpt>
      <trkpt lat="39.8073040" lon="-5.0055990">
        <ele>432.4</ele>
        <time>2019-07-08T15:50:14Z</time>
      </trkpt>
      <trkpt lat="39.8067610" lon="-5.0056610">
        <ele>432.4</ele>
        <time>2019-07-08T15:50:23Z</time>
      </trkpt>
      <trkpt lat="39.8062100" lon="-5.0057010">
        <ele>432.8</ele>
        <time>2019-07-08T15:50:32Z</time>
      </trkpt>
      <trkpt lat="39.8056490" lon="-5.0057060">
        <ele>432.6</ele>
        <time>2019-07-08T15:50:41Z</time>
      </trkpt>
      <trkpt lat="39.8050980" lon="-5.0057200">
        <ele>433.2</ele>
        <time>2019-07-08T15:50:50Z</time>
      </trkpt>
      <trkpt lat="39.8045790" lon="-5.0057290">
        <ele>433.2</ele>
        <time>2019-07-08T15:50:58Z</time>
      </trkpt>
      <trkpt lat="39.8040020" lon="-5.0057380">
        <ele>433.2</ele>
        <time>2019-07-08T15:51:07Z</time>
      </trkpt>
      <trkpt lat="39.8034320" lon="-5.0057460">
        <ele>432.8</ele>
        <time>2019-07-08T15:51:16Z</time>
      </trkpt>
      <trkpt lat="39.8028900" lon="-5.0057500">
        <ele>432.8</ele>
        <time>2019-07-08T15:51:25Z</time>
      </trkpt>
      <trkpt lat="39.8027730" lon="-5.0057560">
        <ele>433.2</ele>
        <time>2019-07-08T15:51:27Z</time>
      </trkpt>
      <trkpt lat="39.8025390" lon="-5.0057650">
        <ele>433.2</ele>
        <time>2019-07-08T15:51:31Z</time>
      </trkpt>
      <trkpt lat="39.8023600" lon="-5.0057610">
        <ele>433.2</ele>
        <time>2019-07-08T15:51:34Z</time>
      </trkpt>
      <trkpt lat="39.8021920" lon="-5.0057440">
        <ele>433.4</ele>
        <time>2019-07-08T15:51:37Z</time>
      </trkpt>
      <trkpt lat="39.8018310" lon="-5.0057000">
        <ele>434.0</ele>
        <time>2019-07-08T15:51:43Z</time>
      </trkpt>
      <trkpt lat="39.8013420" lon="-5.0056130">
        <ele>434.0</ele>
        <time>2019-07-08T15:51:51Z</time>
      </trkpt>
      <trkpt lat="39.8008530" lon="-5.0054650">
        <ele>433.6</ele>
        <time>2019-07-08T15:51:59Z</time>
      </trkpt>
      <trkpt lat="39.8002990" lon="-5.0052190">
        <ele>433.8</ele>
        <time>2019-07-08T15:52:08Z</time>
      </trkpt>
      <trkpt lat="39.8001260" lon="-5.0051220">
        <ele>433.6</ele>
        <time>2019-07-08T15:52:11Z</time>
      </trkpt>
      <trkpt lat="39.8000150" lon="-5.0050560">
        <ele>433.2</ele>
        <time>2019-07-08T15:52:13Z</time>
      </trkpt>
      <trkpt lat="39.7998460" lon="-5.0049490">
        <ele>432.8</ele>
        <time>2019-07-08T15:52:16Z</time>
      </trkpt>
      <trkpt lat="39.7994020" lon="-5.0046150">
        <ele>432.8</ele>
        <time>2019-07-08T15:52:24Z</time>
      </trkpt>
      <trkpt lat="39.7989460" lon="-5.0041680">
        <ele>433.2</ele>
        <time>2019-07-08T15:52:33Z</time>
      </trkpt>
      <trkpt lat="39.7985540" lon="-5.0036980">
        <ele>432.8</ele>
        <time>2019-07-08T15:52:41Z</time>
      </trkpt>
      <trkpt lat="39.7981940" lon="-5.0031740">
        <ele>432.6</ele>
        <time>2019-07-08T15:52:49Z</time>
      </trkpt>
      <trkpt lat="39.7978600" lon="-5.0026070">
        <ele>432.4</ele>
        <time>2019-07-08T15:52:57Z</time>
      </trkpt>
      <trkpt lat="39.7975520" lon="-5.0020450">
        <ele>432.6</ele>
        <time>2019-07-08T15:53:05Z</time>
      </trkpt>
      <trkpt lat="39.7975130" lon="-5.0019800">
        <ele>432.6</ele>
        <time>2019-07-08T15:53:06Z</time>
      </trkpt>
      <trkpt lat="39.7971730" lon="-5.0013670">
        <ele>432.6</ele>
        <time>2019-07-08T15:53:15Z</time>
      </trkpt>
      <trkpt lat="39.7969440" lon="-5.0009600">
        <ele>432.4</ele>
        <time>2019-07-08T15:53:21Z</time>
      </trkpt>
      <trkpt lat="39.7967540" lon="-5.0006300">
        <ele>432.6</ele>
        <time>2019-07-08T15:53:26Z</time>
      </trkpt>
      <trkpt lat="39.7964160" lon="-5.0000220">
        <ele>432.6</ele>
        <time>2019-07-08T15:53:35Z</time>
      </trkpt>
      <trkpt lat="39.7961110" lon="-4.9994740">
        <ele>432.6</ele>
        <time>2019-07-08T15:53:43Z</time>
      </trkpt>
      <trkpt lat="39.7960360" lon="-4.9993380">
        <ele>432.6</ele>
        <time>2019-07-08T15:53:45Z</time>
      </trkpt>
      <trkpt lat="39.7956830" lon="-4.9987120">
        <ele>432.2</ele>
        <time>2019-07-08T15:53:54Z</time>
      </trkpt>
      <trkpt lat="39.7953290" lon="-4.9981150">
        <ele>432.8</ele>
        <time>2019-07-08T15:54:03Z</time>
      </trkpt>
      <trkpt lat="39.7949690" lon="-4.9976010">
        <ele>433.0</ele>
        <time>2019-07-08T15:54:12Z</time>
      </trkpt>
      <trkpt lat="39.7946650" lon="-4.9972880">
        <ele>433.2</ele>
        <time>2019-07-08T15:54:19Z</time>
      </trkpt>
      <trkpt lat="39.7942960" lon="-4.9970050">
        <ele>433.4</ele>
        <time>2019-07-08T15:54:26Z</time>
      </trkpt>
      <trkpt lat="39.7940040" lon="-4.9968340">
        <ele>433.6</ele>
        <time>2019-07-08T15:54:32Z</time>
      </trkpt>
      <trkpt lat="39.7939410" lon="-4.9968010">
        <ele>433.8</ele>
        <time>2019-07-08T15:54:33Z</time>
      </trkpt>
      <trkpt lat="39.7936110" lon="-4.9966460">
        <ele>434.0</ele>
        <time>2019-07-08T15:54:39Z</time>
      </trkpt>
      <trkpt lat="39.7935530" lon="-4.9966210">
        <ele>434.0</ele>
        <time>2019-07-08T15:54:40Z</time>
      </trkpt>
      <trkpt lat="39.7932140" lon="-4.9964880">
        <ele>434.4</ele>
        <time>2019-07-08T15:54:46Z</time>
      </trkpt>
      <trkpt lat="39.7928340" lon="-4.9964050">
        <ele>435.0</ele>
        <time>2019-07-08T15:54:53Z</time>
      </trkpt>
      <trkpt lat="39.7924060" lon="-4.9963480">
        <ele>434.8</ele>
        <time>2019-07-08T15:55:01Z</time>
      </trkpt>
      <trkpt lat="39.7923920" lon="-4.9963460">
        <ele>434.8</ele>
        <time>2019-07-08T15:55:02Z</time>
      </trkpt>
      <trkpt lat="39.7923780" lon="-4.9963440">
        <ele>434.8</ele>
        <time>2019-07-08T15:55:03Z</time>
      </trkpt>
      <trkpt lat="39.7922950" lon="-4.9963310">
        <ele>434.8</ele>
        <time>2019-07-08T15:55:06Z</time>
      </trkpt>
      <trkpt lat="39.7922950" lon="-4.9963310">
        <ele>434.8</ele>
        <time>2019-07-08T15:55:08Z</time>
      </trkpt>
      <trkpt lat="39.7922950" lon="-4.9963310">
        <ele>435.0</ele>
        <time>2019-07-08T15:55:11Z</time>
      </trkpt>
      <trkpt lat="39.7922950" lon="-4.9963310">
        <ele>435.0</ele>
        <time>2019-07-08T15:55:13Z</time>
      </trkpt>
      <trkpt lat="39.7912570" lon="-4.9967080">
        <ele>435.2</ele>
        <time>2019-07-08T15:55:21Z</time>
      </trkpt>
      <trkpt lat="39.7911530" lon="-4.9967490">
        <ele>435.4</ele>
        <time>2019-07-08T15:55:23Z</time>
      </trkpt>
      <trkpt lat="39.7908690" lon="-4.9968950">
        <ele>436.0</ele>
        <time>2019-07-08T15:55:29Z</time>
      </trkpt>
      <trkpt lat="39.7907740" lon="-4.9969600">
        <ele>436.2</ele>
        <time>2019-07-08T15:55:31Z</time>
      </trkpt>
      <trkpt lat="39.7905310" lon="-4.9971000">
        <ele>437.0</ele>
        <time>2019-07-08T15:55:36Z</time>
      </trkpt>
      <trkpt lat="39.7901450" lon="-4.9973280">
        <ele>437.2</ele>
        <time>2019-07-08T15:55:44Z</time>
      </trkpt>
      <trkpt lat="39.7900970" lon="-4.9973560">
        <ele>437.6</ele>
        <time>2019-07-08T15:55:45Z</time>
      </trkpt>
      <trkpt lat="39.7898700" lon="-4.9975050">
        <ele>438.2</ele>
        <time>2019-07-08T15:55:50Z</time>
      </trkpt>
      <trkpt lat="39.7897340" lon="-4.9975890">
        <ele>438.6</ele>
        <time>2019-07-08T15:55:53Z</time>
      </trkpt>
      <trkpt lat="39.7894090" lon="-4.9977890">
        <ele>439.2</ele>
        <time>2019-07-08T15:56:00Z</time>
      </trkpt>
      <trkpt lat="39.7893150" lon="-4.9978470">
        <ele>439.6</ele>
        <time>2019-07-08T15:56:02Z</time>
      </trkpt>
      <trkpt lat="39.7891730" lon="-4.9979320">
        <ele>440.4</ele>
        <time>2019-07-08T15:56:05Z</time>
      </trkpt>
      <trkpt lat="39.7887470" lon="-4.9981810">
        <ele>441.2</ele>
        <time>2019-07-08T15:56:14Z</time>
      </trkpt>
      <trkpt lat="39.7887000" lon="-4.9982100">
        <ele>441.2</ele>
        <time>2019-07-08T15:56:15Z</time>
      </trkpt>
      <trkpt lat="39.7881870" lon="-4.9985290">
        <ele>441.6</ele>
        <time>2019-07-08T15:56:26Z</time>
      </trkpt>
      <trkpt lat="39.7877520" lon="-4.9988500">
        <ele>442.0</ele>
        <time>2019-07-08T15:56:36Z</time>
      </trkpt>
      <trkpt lat="39.7876710" lon="-4.9989240">
        <ele>442.2</ele>
        <time>2019-07-08T15:56:38Z</time>
      </trkpt>
      <trkpt lat="39.7874740" lon="-4.9991140">
        <ele>443.0</ele>
        <time>2019-07-08T15:56:43Z</time>
      </trkpt>
      <trkpt lat="39.7873630" lon="-4.9992370">
        <ele>443.2</ele>
        <time>2019-07-08T15:56:46Z</time>
      </trkpt>
      <trkpt lat="39.7872890" lon="-4.9993250">
        <ele>443.2</ele>
        <time>2019-07-08T15:56:48Z</time>
      </trkpt>
      <trkpt lat="39.7871840" lon="-4.9994700">
        <ele>443.2</ele>
        <time>2019-07-08T15:56:51Z</time>
      </trkpt>
      <trkpt lat="39.7869230" lon="-4.9998330">
        <ele>443.6</ele>
        <time>2019-07-08T15:56:59Z</time>
      </trkpt>
      <trkpt lat="39.7868100" lon="-5.0000340">
        <ele>443.4</ele>
        <time>2019-07-08T15:57:03Z</time>
      </trkpt>
      <trkpt lat="39.7867350" lon="-5.0001910">
        <ele>443.6</ele>
        <time>2019-07-08T15:57:06Z</time>
      </trkpt>
      <trkpt lat="39.7865510" lon="-5.0006490">
        <ele>444.4</ele>
        <time>2019-07-08T15:57:14Z</time>
      </trkpt>
      <trkpt lat="39.7864240" lon="-5.0010830">
        <ele>445.2</ele>
        <time>2019-07-08T15:57:21Z</time>
      </trkpt>
      <trkpt lat="39.7863800" lon="-5.0012720">
        <ele>445.4</ele>
        <time>2019-07-08T15:57:24Z</time>
      </trkpt>
      <trkpt lat="39.7863320" lon="-5.0015120">
        <ele>445.8</ele>
        <time>2019-07-08T15:57:28Z</time>
      </trkpt>
      <trkpt lat="39.7862730" lon="-5.0018780">
        <ele>446.0</ele>
        <time>2019-07-08T15:57:34Z</time>
      </trkpt>
      <trkpt lat="39.7862440" lon="-5.0020660">
        <ele>446.6</ele>
        <time>2019-07-08T15:57:37Z</time>
      </trkpt>
      <trkpt lat="39.7862050" lon="-5.0023170">
        <ele>447.0</ele>
        <time>2019-07-08T15:57:41Z</time>
      </trkpt>
      <trkpt lat="39.7861390" lon="-5.0028130">
        <ele>446.8</ele>
        <time>2019-07-08T15:57:49Z</time>
      </trkpt>
      <trkpt lat="39.7860750" lon="-5.0032520">
        <ele>447.6</ele>
        <time>2019-07-08T15:57:56Z</time>
      </trkpt>
      <trkpt lat="39.7860530" lon="-5.0033760">
        <ele>448.0</ele>
        <time>2019-07-08T15:57:58Z</time>
      </trkpt>
      <trkpt lat="39.7859270" lon="-5.0039960">
        <ele>448.4</ele>
        <time>2019-07-08T15:58:08Z</time>
      </trkpt>
      <trkpt lat="39.7857950" lon="-5.0045020">
        <ele>448.4</ele>
        <time>2019-07-08T15:58:16Z</time>
      </trkpt>
      <trkpt lat="39.7857160" lon="-5.0047540">
        <ele>448.8</ele>
        <time>2019-07-08T15:58:20Z</time>
      </trkpt>
      <trkpt lat="39.7856080" lon="-5.0050530">
        <ele>449.8</ele>
        <time>2019-07-08T15:58:25Z</time>
      </trkpt>
      <trkpt lat="39.7855850" lon="-5.0051100">
        <ele>449.8</ele>
        <time>2019-07-08T15:58:26Z</time>
      </trkpt>
      <trkpt lat="39.7853660" lon="-5.0055350">
        <ele>450.6</ele>
        <time>2019-07-08T15:58:34Z</time>
      </trkpt>
      <trkpt lat="39.7853370" lon="-5.0055840">
        <ele>450.8</ele>
        <time>2019-07-08T15:58:35Z</time>
      </trkpt>
      <trkpt lat="39.7850980" lon="-5.0059640">
        <ele>451.4</ele>
        <time>2019-07-08T15:58:43Z</time>
      </trkpt>
      <trkpt lat="39.7849990" lon="-5.0060970">
        <ele>452.0</ele>
        <time>2019-07-08T15:58:46Z</time>
      </trkpt>
      <trkpt lat="39.7848510" lon="-5.0062620">
        <ele>452.0</ele>
        <time>2019-07-08T15:58:50Z</time>
      </trkpt>
      <trkpt lat="39.7845840" lon="-5.0065730">
        <ele>452.2</ele>
        <time>2019-07-08T15:58:57Z</time>
      </trkpt>
      <trkpt lat="39.7845430" lon="-5.0066150">
        <ele>452.2</ele>
        <time>2019-07-08T15:58:58Z</time>
      </trkpt>
      <trkpt lat="39.7841130" lon="-5.0069670">
        <ele>452.6</ele>
        <time>2019-07-08T15:59:08Z</time>
      </trkpt>
      <trkpt lat="39.7840250" lon="-5.0070270">
        <ele>453.0</ele>
        <time>2019-07-08T15:59:10Z</time>
      </trkpt>
      <trkpt lat="39.7837080" lon="-5.0072130">
        <ele>453.0</ele>
        <time>2019-07-08T15:59:17Z</time>
      </trkpt>
      <trkpt lat="39.7833520" lon="-5.0074040">
        <ele>453.4</ele>
        <time>2019-07-08T15:59:25Z</time>
      </trkpt>
      <trkpt lat="39.7830810" lon="-5.0075330">
        <ele>454.0</ele>
        <time>2019-07-08T15:59:31Z</time>
      </trkpt>
      <trkpt lat="39.7830350" lon="-5.0075540">
        <ele>454.2</ele>
        <time>2019-07-08T15:59:32Z</time>
      </trkpt>
      <trkpt lat="39.7827440" lon="-5.0076810">
        <ele>454.6</ele>
        <time>2019-07-08T15:59:38Z</time>
      </trkpt>
      <trkpt lat="39.7823550" lon="-5.0078420">
        <ele>454.8</ele>
        <time>2019-07-08T15:59:46Z</time>
      </trkpt>
      <trkpt lat="39.7823050" lon="-5.0078630">
        <ele>455.0</ele>
        <time>2019-07-08T15:59:47Z</time>
      </trkpt>
      <trkpt lat="39.7820050" lon="-5.0079910">
        <ele>455.4</ele>
        <time>2019-07-08T15:59:53Z</time>
      </trkpt>
      <trkpt lat="39.7817020" lon="-5.0081420">
        <ele>455.8</ele>
        <time>2019-07-08T15:59:59Z</time>
      </trkpt>
      <trkpt lat="39.7816060" lon="-5.0082040">
        <ele>456.2</ele>
        <time>2019-07-08T16:00:01Z</time>
      </trkpt>
      <trkpt lat="39.7813350" lon="-5.0083960">
        <ele>457.0</ele>
        <time>2019-07-08T16:00:07Z</time>
      </trkpt>
      <trkpt lat="39.7812070" lon="-5.0085030">
        <ele>457.2</ele>
        <time>2019-07-08T16:00:10Z</time>
      </trkpt>
      <trkpt lat="39.7810410" lon="-5.0086650">
        <ele>457.6</ele>
        <time>2019-07-08T16:00:14Z</time>
      </trkpt>
      <trkpt lat="39.7808010" lon="-5.0089340">
        <ele>458.2</ele>
        <time>2019-07-08T16:00:20Z</time>
      </trkpt>
      <trkpt lat="39.7807640" lon="-5.0089810">
        <ele>458.4</ele>
        <time>2019-07-08T16:00:21Z</time>
      </trkpt>
      <trkpt lat="39.7804510" lon="-5.0094300">
        <ele>459.0</ele>
        <time>2019-07-08T16:00:30Z</time>
      </trkpt>
      <trkpt lat="39.7803530" lon="-5.0095720">
        <ele>459.4</ele>
        <time>2019-07-08T16:00:33Z</time>
      </trkpt>
      <trkpt lat="39.7801550" lon="-5.0099550">
        <ele>460.0</ele>
        <time>2019-07-08T16:00:40Z</time>
      </trkpt>
      <trkpt lat="39.7799640" lon="-5.0104230">
        <ele>460.2</ele>
        <time>2019-07-08T16:00:48Z</time>
      </trkpt>
      <trkpt lat="39.7799220" lon="-5.0105440">
        <ele>460.4</ele>
        <time>2019-07-08T16:00:50Z</time>
      </trkpt>
      <trkpt lat="39.7798850" lon="-5.0106670">
        <ele>460.4</ele>
        <time>2019-07-08T16:00:52Z</time>
      </trkpt>
      <trkpt lat="39.7798380" lon="-5.0108540">
        <ele>460.8</ele>
        <time>2019-07-08T16:00:55Z</time>
      </trkpt>
      <trkpt lat="39.7797510" lon="-5.0112470">
        <ele>461.6</ele>
        <time>2019-07-08T16:01:01Z</time>
      </trkpt>
      <trkpt lat="39.7797250" lon="-5.0113830">
        <ele>461.4</ele>
        <time>2019-07-08T16:01:03Z</time>
      </trkpt>
      <trkpt lat="39.7796610" lon="-5.0119210">
        <ele>462.4</ele>
        <time>2019-07-08T16:01:11Z</time>
      </trkpt>
      <trkpt lat="39.7796520" lon="-5.0125700">
        <ele>462.6</ele>
        <time>2019-07-08T16:01:21Z</time>
      </trkpt>
      <trkpt lat="39.7796690" lon="-5.0128930">
        <ele>462.8</ele>
        <time>2019-07-08T16:01:26Z</time>
      </trkpt>
      <trkpt lat="39.7796850" lon="-5.0130840">
        <ele>463.4</ele>
        <time>2019-07-08T16:01:29Z</time>
      </trkpt>
      <trkpt lat="39.7797180" lon="-5.0134440">
        <ele>463.6</ele>
        <time>2019-07-08T16:01:35Z</time>
      </trkpt>
      <trkpt lat="39.7797420" lon="-5.0135530">
        <ele>463.6</ele>
        <time>2019-07-08T16:01:37Z</time>
      </trkpt>
      <trkpt lat="39.7797680" lon="-5.0136600">
        <ele>463.8</ele>
        <time>2019-07-08T16:01:39Z</time>
      </trkpt>
      <trkpt lat="39.7797800" lon="-5.0137140">
        <ele>464.0</ele>
        <time>2019-07-08T16:01:40Z</time>
      </trkpt>
      <trkpt lat="39.7798080" lon="-5.0138240">
        <ele>464.2</ele>
        <time>2019-07-08T16:01:42Z</time>
      </trkpt>
      <trkpt lat="39.7798200" lon="-5.0138820">
        <ele>464.2</ele>
        <time>2019-07-08T16:01:43Z</time>
      </trkpt>
      <trkpt lat="39.7799140" lon="-5.0143010">
        <ele>465.0</ele>
        <time>2019-07-08T16:01:50Z</time>
      </trkpt>
      <trkpt lat="39.7799390" lon="-5.0144240">
        <ele>465.2</ele>
        <time>2019-07-08T16:01:52Z</time>
      </trkpt>
      <trkpt lat="39.7800720" lon="-5.0150530">
        <ele>465.8</ele>
        <time>2019-07-08T16:02:02Z</time>
      </trkpt>
      <trkpt lat="39.7801140" lon="-5.0152380">
        <ele>466.0</ele>
        <time>2019-07-08T16:02:05Z</time>
      </trkpt>
      <trkpt lat="39.7801670" lon="-5.0154870">
        <ele>466.6</ele>
        <time>2019-07-08T16:02:09Z</time>
      </trkpt>
      <trkpt lat="39.7803060" lon="-5.0161040">
        <ele>467.2</ele>
        <time>2019-07-08T16:02:19Z</time>
      </trkpt>
      <trkpt lat="39.7804060" lon="-5.0165470">
        <ele>467.2</ele>
        <time>2019-07-08T16:02:26Z</time>
      </trkpt>
      <trkpt lat="39.7805170" lon="-5.0170510">
        <ele>468.0</ele>
        <time>2019-07-08T16:02:34Z</time>
      </trkpt>
      <trkpt lat="39.7805390" lon="-5.0171800">
        <ele>468.4</ele>
        <time>2019-07-08T16:02:36Z</time>
      </trkpt>
      <trkpt lat="39.7805960" lon="-5.0175600">
        <ele>469.2</ele>
        <time>2019-07-08T16:02:42Z</time>
      </trkpt>
      <trkpt lat="39.7806200" lon="-5.0177500">
        <ele>469.4</ele>
        <time>2019-07-08T16:02:45Z</time>
      </trkpt>
      <trkpt lat="39.7806610" lon="-5.0182120">
        <ele>470.0</ele>
        <time>2019-07-08T16:02:52Z</time>
      </trkpt>
      <trkpt lat="39.7806670" lon="-5.0183400">
        <ele>470.4</ele>
        <time>2019-07-08T16:02:54Z</time>
      </trkpt>
      <trkpt lat="39.7806600" lon="-5.0187220">
        <ele>471.0</ele>
        <time>2019-07-08T16:03:00Z</time>
      </trkpt>
      <trkpt lat="39.7806100" lon="-5.0193020">
        <ele>471.4</ele>
        <time>2019-07-08T16:03:09Z</time>
      </trkpt>
      <trkpt lat="39.7805990" lon="-5.0193670">
        <ele>471.6</ele>
        <time>2019-07-08T16:03:10Z</time>
      </trkpt>
      <trkpt lat="39.7805360" lon="-5.0197440">
        <ele>471.6</ele>
        <time>2019-07-08T16:03:16Z</time>
      </trkpt>
      <trkpt lat="39.7804270" lon="-5.0201680">
        <ele>472.2</ele>
        <time>2019-07-08T16:03:23Z</time>
      </trkpt>
      <trkpt lat="39.7803660" lon="-5.0203470">
        <ele>472.6</ele>
        <time>2019-07-08T16:03:26Z</time>
      </trkpt>
      <trkpt lat="39.7802750" lon="-5.0205990">
        <ele>473.0</ele>
        <time>2019-07-08T16:03:30Z</time>
      </trkpt>
      <trkpt lat="39.7801110" lon="-5.0210290">
        <ele>473.6</ele>
        <time>2019-07-08T16:03:37Z</time>
      </trkpt>
      <trkpt lat="39.7800860" lon="-5.0210870">
        <ele>474.0</ele>
        <time>2019-07-08T16:03:38Z</time>
      </trkpt>
      <trkpt lat="39.7799060" lon="-5.0214830">
        <ele>474.4</ele>
        <time>2019-07-08T16:03:45Z</time>
      </trkpt>
      <trkpt lat="39.7797140" lon="-5.0218890">
        <ele>474.2</ele>
        <time>2019-07-08T16:03:52Z</time>
      </trkpt>
      <trkpt lat="39.7796870" lon="-5.0219490">
        <ele>474.4</ele>
        <time>2019-07-08T16:03:53Z</time>
      </trkpt>
      <trkpt lat="39.7794440" lon="-5.0224760">
        <ele>474.6</ele>
        <time>2019-07-08T16:04:02Z</time>
      </trkpt>
      <trkpt lat="39.7793330" lon="-5.0227080">
        <ele>475.2</ele>
        <time>2019-07-08T16:04:06Z</time>
      </trkpt>
      <trkpt lat="39.7792040" lon="-5.0229910">
        <ele>476.4</ele>
        <time>2019-07-08T16:04:11Z</time>
      </trkpt>
      <trkpt lat="39.7790340" lon="-5.0233630">
        <ele>476.6</ele>
        <time>2019-07-08T16:04:18Z</time>
      </trkpt>
      <trkpt lat="39.7788040" lon="-5.0238510">
        <ele>477.2</ele>
        <time>2019-07-08T16:04:27Z</time>
      </trkpt>
      <trkpt lat="39.7786160" lon="-5.0242260">
        <ele>477.4</ele>
        <time>2019-07-08T16:04:34Z</time>
      </trkpt>
      <trkpt lat="39.7785560" lon="-5.0243290">
        <ele>477.6</ele>
        <time>2019-07-08T16:04:36Z</time>
      </trkpt>
      <trkpt lat="39.7783710" lon="-5.0246320">
        <ele>478.4</ele>
        <time>2019-07-08T16:04:42Z</time>
      </trkpt>
      <trkpt lat="39.7782080" lon="-5.0248760">
        <ele>478.6</ele>
        <time>2019-07-08T16:04:47Z</time>
      </trkpt>
      <trkpt lat="39.7779530" lon="-5.0252100">
        <ele>479.0</ele>
        <time>2019-07-08T16:04:54Z</time>
      </trkpt>
      <trkpt lat="39.7776870" lon="-5.0255130">
        <ele>479.4</ele>
        <time>2019-07-08T16:05:01Z</time>
      </trkpt>
      <trkpt lat="39.7776470" lon="-5.0255500">
        <ele>479.6</ele>
        <time>2019-07-08T16:05:02Z</time>
      </trkpt>
      <trkpt lat="39.7773600" lon="-5.0258100">
        <ele>479.6</ele>
        <time>2019-07-08T16:05:09Z</time>
      </trkpt>
      <trkpt lat="39.7773170" lon="-5.0258460">
        <ele>479.8</ele>
        <time>2019-07-08T16:05:10Z</time>
      </trkpt>
      <trkpt lat="39.7772750" lon="-5.0258810">
        <ele>479.8</ele>
        <time>2019-07-08T16:05:11Z</time>
      </trkpt>
      <trkpt lat="39.7771120" lon="-5.0260100">
        <ele>480.2</ele>
        <time>2019-07-08T16:05:15Z</time>
      </trkpt>
      <trkpt lat="39.7769450" lon="-5.0261230">
        <ele>480.2</ele>
        <time>2019-07-08T16:05:19Z</time>
      </trkpt>
      <trkpt lat="39.7767230" lon="-5.0262500">
        <ele>480.8</ele>
        <time>2019-07-08T16:05:24Z</time>
      </trkpt>
      <trkpt lat="39.7766280" lon="-5.0262940">
        <ele>481.2</ele>
        <time>2019-07-08T16:05:26Z</time>
      </trkpt>
      <trkpt lat="39.7762990" lon="-5.0264390">
        <ele>481.4</ele>
        <time>2019-07-08T16:05:33Z</time>
      </trkpt>
      <trkpt lat="39.7761220" lon="-5.0265120">
        <ele>481.8</ele>
        <time>2019-07-08T16:05:37Z</time>
      </trkpt>
      <trkpt lat="39.7758980" lon="-5.0265930">
        <ele>481.8</ele>
        <time>2019-07-08T16:05:42Z</time>
      </trkpt>
      <trkpt lat="39.7758090" lon="-5.0266230">
        <ele>481.8</ele>
        <time>2019-07-08T16:05:44Z</time>
      </trkpt>
      <trkpt lat="39.7755750" lon="-5.0266740">
        <ele>482.0</ele>
        <time>2019-07-08T16:05:49Z</time>
      </trkpt>
      <trkpt lat="39.7753850" lon="-5.0266980">
        <ele>482.8</ele>
        <time>2019-07-08T16:05:53Z</time>
      </trkpt>
      <trkpt lat="39.7752420" lon="-5.0267130">
        <ele>483.0</ele>
        <time>2019-07-08T16:05:56Z</time>
      </trkpt>
      <trkpt lat="39.7748190" lon="-5.0267160">
        <ele>482.8</ele>
        <time>2019-07-08T16:06:05Z</time>
      </trkpt>
      <trkpt lat="39.7744460" lon="-5.0266840">
        <ele>483.4</ele>
        <time>2019-07-08T16:06:13Z</time>
      </trkpt>
      <trkpt lat="39.7743030" lon="-5.0266600">
        <ele>484.0</ele>
        <time>2019-07-08T16:06:16Z</time>
      </trkpt>
      <trkpt lat="39.7740210" lon="-5.0265920">
        <ele>484.6</ele>
        <time>2019-07-08T16:06:22Z</time>
      </trkpt>
      <trkpt lat="39.7736390" lon="-5.0264670">
        <ele>485.2</ele>
        <time>2019-07-08T16:06:30Z</time>
      </trkpt>
      <trkpt lat="39.7733210" lon="-5.0263270">
        <ele>485.2</ele>
        <time>2019-07-08T16:06:37Z</time>
      </trkpt>
      <trkpt lat="39.7732780" lon="-5.0263040">
        <ele>485.4</ele>
        <time>2019-07-08T16:06:38Z</time>
      </trkpt>
      <trkpt lat="39.7732330" lon="-5.0262840">
        <ele>485.4</ele>
        <time>2019-07-08T16:06:39Z</time>
      </trkpt>
      <trkpt lat="39.7730060" lon="-5.0261770">
        <ele>485.4</ele>
        <time>2019-07-08T16:06:44Z</time>
      </trkpt>
      <trkpt lat="39.7728300" lon="-5.0260800">
        <ele>485.6</ele>
        <time>2019-07-08T16:06:48Z</time>
      </trkpt>
      <trkpt lat="39.7727000" lon="-5.0259980">
        <ele>485.6</ele>
        <time>2019-07-08T16:06:51Z</time>
      </trkpt>
      <trkpt lat="39.7725690" lon="-5.0259180">
        <ele>486.2</ele>
        <time>2019-07-08T16:06:54Z</time>
      </trkpt>
      <trkpt lat="39.7722290" lon="-5.0257040">
        <ele>486.8</ele>
        <time>2019-07-08T16:07:02Z</time>
      </trkpt>
      <trkpt lat="39.7720990" lon="-5.0256310">
        <ele>487.2</ele>
        <time>2019-07-08T16:07:05Z</time>
      </trkpt>
      <trkpt lat="39.7720180" lon="-5.0255860">
        <ele>487.2</ele>
        <time>2019-07-08T16:07:07Z</time>
      </trkpt>
      <trkpt lat="39.7719370" lon="-5.0255400">
        <ele>487.2</ele>
        <time>2019-07-08T16:07:09Z</time>
      </trkpt>
      <trkpt lat="39.7716390" lon="-5.0253500">
        <ele>487.6</ele>
        <time>2019-07-08T16:07:16Z</time>
      </trkpt>
      <trkpt lat="39.7713790" lon="-5.0251880">
        <ele>488.4</ele>
        <time>2019-07-08T16:07:22Z</time>
      </trkpt>
      <trkpt lat="39.7713370" lon="-5.0251610">
        <ele>488.4</ele>
        <time>2019-07-08T16:07:23Z</time>
      </trkpt>
      <trkpt lat="39.7709750" lon="-5.0249430">
        <ele>488.8</ele>
        <time>2019-07-08T16:07:31Z</time>
      </trkpt>
      <trkpt lat="39.7707430" lon="-5.0247990">
        <ele>489.2</ele>
        <time>2019-07-08T16:07:36Z</time>
      </trkpt>
      <trkpt lat="39.7706950" lon="-5.0247750">
        <ele>489.2</ele>
        <time>2019-07-08T16:07:37Z</time>
      </trkpt>
      <trkpt lat="39.7706020" lon="-5.0247270">
        <ele>489.4</ele>
        <time>2019-07-08T16:07:39Z</time>
      </trkpt>
      <trkpt lat="39.7703800" lon="-5.0246010">
        <ele>490.0</ele>
        <time>2019-07-08T16:07:44Z</time>
      </trkpt>
      <trkpt lat="39.7701500" lon="-5.0244460">
        <ele>490.6</ele>
        <time>2019-07-08T16:07:49Z</time>
      </trkpt>
      <trkpt lat="39.7700570" lon="-5.0243830">
        <ele>490.6</ele>
        <time>2019-07-08T16:07:51Z</time>
      </trkpt>
      <trkpt lat="39.7697150" lon="-5.0241900">
        <ele>491.0</ele>
        <time>2019-07-08T16:07:58Z</time>
      </trkpt>
      <trkpt lat="39.7693800" lon="-5.0240060">
        <ele>491.6</ele>
        <time>2019-07-08T16:08:05Z</time>
      </trkpt>
      <trkpt lat="39.7693290" lon="-5.0239830">
        <ele>491.6</ele>
        <time>2019-07-08T16:08:06Z</time>
      </trkpt>
      <trkpt lat="39.7688060" lon="-5.0237610">
        <ele>492.6</ele>
        <time>2019-07-08T16:08:16Z</time>
      </trkpt>
      <trkpt lat="39.7686470" lon="-5.0237040">
        <ele>493.0</ele>
        <time>2019-07-08T16:08:19Z</time>
      </trkpt>
      <trkpt lat="39.7685920" lon="-5.0236880">
        <ele>493.0</ele>
        <time>2019-07-08T16:08:20Z</time>
      </trkpt>
      <trkpt lat="39.7684320" lon="-5.0236530">
        <ele>493.0</ele>
        <time>2019-07-08T16:08:23Z</time>
      </trkpt>
      <trkpt lat="39.7679390" lon="-5.0235710">
        <ele>493.2</ele>
        <time>2019-07-08T16:08:32Z</time>
      </trkpt>
      <trkpt lat="39.7677660" lon="-5.0235670">
        <ele>493.6</ele>
        <time>2019-07-08T16:08:35Z</time>
      </trkpt>
      <trkpt lat="39.7676510" lon="-5.0235650">
        <ele>493.6</ele>
        <time>2019-07-08T16:08:37Z</time>
      </trkpt>
      <trkpt lat="39.7675370" lon="-5.0235670">
        <ele>493.6</ele>
        <time>2019-07-08T16:08:39Z</time>
      </trkpt>
      <trkpt lat="39.7670220" lon="-5.0236140">
        <ele>494.0</ele>
        <time>2019-07-08T16:08:48Z</time>
      </trkpt>
      <trkpt lat="39.7665160" lon="-5.0237460">
        <ele>494.0</ele>
        <time>2019-07-08T16:08:57Z</time>
      </trkpt>
      <trkpt lat="39.7661020" lon="-5.0239230">
        <ele>494.2</ele>
        <time>2019-07-08T16:09:05Z</time>
      </trkpt>
      <trkpt lat="39.7657170" lon="-5.0241410">
        <ele>494.4</ele>
        <time>2019-07-08T16:09:13Z</time>
      </trkpt>
      <trkpt lat="39.7655800" lon="-5.0242240">
        <ele>494.8</ele>
        <time>2019-07-08T16:09:16Z</time>
      </trkpt>
      <trkpt lat="39.7654000" lon="-5.0243600">
        <ele>495.2</ele>
        <time>2019-07-08T16:09:20Z</time>
      </trkpt>
      <trkpt lat="39.7652620" lon="-5.0244620">
        <ele>495.8</ele>
        <time>2019-07-08T16:09:23Z</time>
      </trkpt>
      <trkpt lat="39.7650410" lon="-5.0246610">
        <ele>495.8</ele>
        <time>2019-07-08T16:09:28Z</time>
      </trkpt>
      <trkpt lat="39.7646120" lon="-5.0250730">
        <ele>494.6</ele>
        <time>2019-07-08T16:09:38Z</time>
      </trkpt>
      <trkpt lat="39.7645640" lon="-5.0250830">
        <ele>494.4</ele>
        <time>2019-07-08T16:09:39Z</time>
      </trkpt>
      <trkpt lat="39.7645140" lon="-5.0251260">
        <ele>494.4</ele>
        <time>2019-07-08T16:09:40Z</time>
      </trkpt>
      <trkpt lat="39.7643960" lon="-5.0252980">
        <ele>494.8</ele>
        <time>2019-07-08T16:09:43Z</time>
      </trkpt>
      <trkpt lat="39.7643670" lon="-5.0253450">
        <ele>494.8</ele>
        <time>2019-07-08T16:09:44Z</time>
      </trkpt>
      <trkpt lat="39.7643120" lon="-5.0254320">
        <ele>495.0</ele>
        <time>2019-07-08T16:09:47Z</time>
      </trkpt>
      <trkpt lat="39.7643040" lon="-5.0254370">
        <ele>495.0</ele>
        <time>2019-07-08T16:09:49Z</time>
      </trkpt>
      <trkpt lat="39.7642800" lon="-5.0254810">
        <ele>494.6</ele>
        <time>2019-07-08T16:10:41Z</time>
      </trkpt>
      <trkpt lat="39.7642630" lon="-5.0254960">
        <ele>494.6</ele>
        <time>2019-07-08T16:10:42Z</time>
      </trkpt>
      <trkpt lat="39.7642170" lon="-5.0255330">
        <ele>494.6</ele>
        <time>2019-07-08T16:10:44Z</time>
      </trkpt>
      <trkpt lat="39.7641620" lon="-5.0255900">
        <ele>494.6</ele>
        <time>2019-07-08T16:10:46Z</time>
      </trkpt>
      <trkpt lat="39.7640290" lon="-5.0257310">
        <ele>494.6</ele>
        <time>2019-07-08T16:10:50Z</time>
      </trkpt>
      <trkpt lat="39.7639580" lon="-5.0258100">
        <ele>494.8</ele>
        <time>2019-07-08T16:10:52Z</time>
      </trkpt>
      <trkpt lat="39.7638590" lon="-5.0259430">
        <ele>495.0</ele>
        <time>2019-07-08T16:10:55Z</time>
      </trkpt>
      <trkpt lat="39.7637490" lon="-5.0260660">
        <ele>495.0</ele>
        <time>2019-07-08T16:10:58Z</time>
      </trkpt>
      <trkpt lat="39.7635950" lon="-5.0262380">
        <ele>494.8</ele>
        <time>2019-07-08T16:11:02Z</time>
      </trkpt>
      <trkpt lat="39.7633560" lon="-5.0265050">
        <ele>495.0</ele>
        <time>2019-07-08T16:11:08Z</time>
      </trkpt>
      <trkpt lat="39.7629580" lon="-5.0269450">
        <ele>494.8</ele>
        <time>2019-07-08T16:11:18Z</time>
      </trkpt>
      <trkpt lat="39.7625370" lon="-5.0274080">
        <ele>494.8</ele>
        <time>2019-07-08T16:11:28Z</time>
      </trkpt>
      <trkpt lat="39.7622430" lon="-5.0277360">
        <ele>494.8</ele>
        <time>2019-07-08T16:11:35Z</time>
      </trkpt>
      <trkpt lat="39.7619470" lon="-5.0280640">
        <ele>495.0</ele>
        <time>2019-07-08T16:11:42Z</time>
      </trkpt>
      <trkpt lat="39.7618620" lon="-5.0281590">
        <ele>495.0</ele>
        <time>2019-07-08T16:11:44Z</time>
      </trkpt>
      <trkpt lat="39.7615040" lon="-5.0285470">
        <ele>495.2</ele>
        <time>2019-07-08T16:11:52Z</time>
      </trkpt>
      <trkpt lat="39.7611800" lon="-5.0288880">
        <ele>495.6</ele>
        <time>2019-07-08T16:11:59Z</time>
      </trkpt>
      <trkpt lat="39.7610380" lon="-5.0290310">
        <ele>495.6</ele>
        <time>2019-07-08T16:12:02Z</time>
      </trkpt>
      <trkpt lat="39.7607370" lon="-5.0293760">
        <ele>495.6</ele>
        <time>2019-07-08T16:12:09Z</time>
      </trkpt>
      <trkpt lat="39.7606580" lon="-5.0294570">
        <ele>495.4</ele>
        <time>2019-07-08T16:12:11Z</time>
      </trkpt>
      <trkpt lat="39.7606090" lon="-5.0295140">
        <ele>495.2</ele>
        <time>2019-07-08T16:12:13Z</time>
      </trkpt>
      <trkpt lat="39.7605200" lon="-5.0296110">
        <ele>495.4</ele>
        <time>2019-07-08T16:12:18Z</time>
      </trkpt>
      <trkpt lat="39.7602990" lon="-5.0298420">
        <ele>495.4</ele>
        <time>2019-07-08T16:12:26Z</time>
      </trkpt>
      <trkpt lat="39.7600840" lon="-5.0300810">
        <ele>496.0</ele>
        <time>2019-07-08T16:12:33Z</time>
      </trkpt>
      <trkpt lat="39.7598700" lon="-5.0303080">
        <ele>496.2</ele>
        <time>2019-07-08T16:12:41Z</time>
      </trkpt>
      <trkpt lat="39.7598590" lon="-5.0303050">
        <ele>496.2</ele>
        <time>2019-07-08T16:12:44Z</time>
      </trkpt>
      <trkpt lat="39.7598650" lon="-5.0302940">
        <ele>496.2</ele>
        <time>2019-07-08T16:12:45Z</time>
      </trkpt>
      <trkpt lat="39.7599300" lon="-5.0302210">
        <ele>495.8</ele>
        <time>2019-07-08T16:12:49Z</time>
      </trkpt>
      <trkpt lat="39.7600920" lon="-5.0300540">
        <ele>495.6</ele>
        <time>2019-07-08T16:12:54Z</time>
      </trkpt>
      <trkpt lat="39.7603650" lon="-5.0297610">
        <ele>495.8</ele>
        <time>2019-07-08T16:13:01Z</time>
      </trkpt>
      <trkpt lat="39.7607510" lon="-5.0293680">
        <ele>495.2</ele>
        <time>2019-07-08T16:13:10Z</time>
      </trkpt>
      <trkpt lat="39.7609500" lon="-5.0291370">
        <ele>495.2</ele>
        <time>2019-07-08T16:13:15Z</time>
      </trkpt>
      <trkpt lat="39.7610090" lon="-5.0290180">
        <ele>495.2</ele>
        <time>2019-07-08T16:13:17Z</time>
      </trkpt>
      <trkpt lat="39.7611100" lon="-5.0287660">
        <ele>495.2</ele>
        <time>2019-07-08T16:13:21Z</time>
      </trkpt>
      <trkpt lat="39.7611600" lon="-5.0285690">
        <ele>495.2</ele>
        <time>2019-07-08T16:13:24Z</time>
      </trkpt>
      <trkpt lat="39.7611780" lon="-5.0284410">
        <ele>495.0</ele>
        <time>2019-07-08T16:13:26Z</time>
      </trkpt>
      <trkpt lat="39.7611970" lon="-5.0282200">
        <ele>495.0</ele>
        <time>2019-07-08T16:13:30Z</time>
      </trkpt>
      <trkpt lat="39.7611380" lon="-5.0280310">
        <ele>495.4</ele>
        <time>2019-07-08T16:13:34Z</time>
      </trkpt>
      <trkpt lat="39.7610190" lon="-5.0277270">
        <ele>496.0</ele>
        <time>2019-07-08T16:13:41Z</time>
      </trkpt>
      <trkpt lat="39.7610120" lon="-5.0276010">
        <ele>496.8</ele>
        <time>2019-07-08T16:13:44Z</time>
      </trkpt>
      <trkpt lat="39.7610040" lon="-5.0274490">
        <ele>497.6</ele>
        <time>2019-07-08T16:13:48Z</time>
      </trkpt>
      <trkpt lat="39.7609950" lon="-5.0273740">
        <ele>497.8</ele>
        <time>2019-07-08T16:13:50Z</time>
      </trkpt>
      <trkpt lat="39.7609810" lon="-5.0272760">
        <ele>498.2</ele>
        <time>2019-07-08T16:13:53Z</time>
      </trkpt>
      <trkpt lat="39.7609760" lon="-5.0272470">
        <ele>498.6</ele>
        <time>2019-07-08T16:13:54Z</time>
      </trkpt>
      <trkpt lat="39.7609730" lon="-5.0272180">
        <ele>499.2</ele>
        <time>2019-07-08T16:13:55Z</time>
      </trkpt>
      <trkpt lat="39.7609580" lon="-5.0271160">
        <ele>500.0</ele>
        <time>2019-07-08T16:13:58Z</time>
      </trkpt>
      <trkpt lat="39.7609520" lon="-5.0270780">
        <ele>500.2</ele>
        <time>2019-07-08T16:13:59Z</time>
      </trkpt>
      <trkpt lat="39.7609280" lon="-5.0270080">
        <ele>500.4</ele>
        <time>2019-07-08T16:14:01Z</time>
      </trkpt>
      <trkpt lat="39.7609070" lon="-5.0269830">
        <ele>500.6</ele>
        <time>2019-07-08T16:14:02Z</time>
      </trkpt>
      <trkpt lat="39.7608610" lon="-5.0269880">
        <ele>500.8</ele>
        <time>2019-07-08T16:14:04Z</time>
      </trkpt>
      <trkpt lat="39.7608160" lon="-5.0270940">
        <ele>500.8</ele>
        <time>2019-07-08T16:14:07Z</time>
      </trkpt>
      <trkpt lat="39.7607990" lon="-5.0271390">
        <ele>500.8</ele>
        <time>2019-07-08T16:14:08Z</time>
      </trkpt>
      <trkpt lat="39.7607790" lon="-5.0271850">
        <ele>500.8</ele>
        <time>2019-07-08T16:14:09Z</time>
      </trkpt>
      <trkpt lat="39.7606680" lon="-5.0274460">
        <ele>500.8</ele>
        <time>2019-07-08T16:14:14Z</time>
      </trkpt>
      <trkpt lat="39.7605040" lon="-5.0278250">
        <ele>499.6</ele>
        <time>2019-07-08T16:14:20Z</time>
      </trkpt>
      <trkpt lat="39.7604400" lon="-5.0279680">
        <ele>498.8</ele>
        <time>2019-07-08T16:14:22Z</time>
      </trkpt>
      <trkpt lat="39.7603360" lon="-5.0282120">
        <ele>497.6</ele>
        <time>2019-07-08T16:14:25Z</time>
      </trkpt>
      <trkpt lat="39.7603010" lon="-5.0282990">
        <ele>497.0</ele>
        <time>2019-07-08T16:14:26Z</time>
      </trkpt>
      <trkpt lat="39.7602650" lon="-5.0283890">
        <ele>496.4</ele>
        <time>2019-07-08T16:14:27Z</time>
      </trkpt>
      <trkpt lat="39.7602050" lon="-5.0285810">
        <ele>495.0</ele>
        <time>2019-07-08T16:14:29Z</time>
      </trkpt>
      <trkpt lat="39.7601860" lon="-5.0286860">
        <ele>494.4</ele>
        <time>2019-07-08T16:14:30Z</time>
      </trkpt>
      <trkpt lat="39.7601790" lon="-5.0287960">
        <ele>493.8</ele>
        <time>2019-07-08T16:14:31Z</time>
      </trkpt>
      <trkpt lat="39.7602130" lon="-5.0290210">
        <ele>492.8</ele>
        <time>2019-07-08T16:14:33Z</time>
      </trkpt>
      <trkpt lat="39.7602980" lon="-5.0292330">
        <ele>491.4</ele>
        <time>2019-07-08T16:14:35Z</time>
      </trkpt>
      <trkpt lat="39.7603490" lon="-5.0293370">
        <ele>490.8</ele>
        <time>2019-07-08T16:14:36Z</time>
      </trkpt>
      <trkpt lat="39.7604040" lon="-5.0294410">
        <ele>490.2</ele>
        <time>2019-07-08T16:14:37Z</time>
      </trkpt>
      <trkpt lat="39.7605670" lon="-5.0297430">
        <ele>489.0</ele>
        <time>2019-07-08T16:14:40Z</time>
      </trkpt>
      <trkpt lat="39.7607190" lon="-5.0300150">
        <ele>488.4</ele>
        <time>2019-07-08T16:14:43Z</time>
      </trkpt>
      <trkpt lat="39.7609390" lon="-5.0304410">
        <ele>488.4</ele>
        <time>2019-07-08T16:14:48Z</time>
      </trkpt>
      <trkpt lat="39.7610150" lon="-5.0305990">
        <ele>488.6</ele>
        <time>2019-07-08T16:14:50Z</time>
      </trkpt>
      <trkpt lat="39.7611780" lon="-5.0309780">
        <ele>490.2</ele>
        <time>2019-07-08T16:14:55Z</time>
      </trkpt>
      <trkpt lat="39.7612030" lon="-5.0310540">
        <ele>490.6</ele>
        <time>2019-07-08T16:14:56Z</time>
      </trkpt>
      <trkpt lat="39.7612620" lon="-5.0312820">
        <ele>490.8</ele>
        <time>2019-07-08T16:14:59Z</time>
      </trkpt>
      <trkpt lat="39.7613320" lon="-5.0315630">
        <ele>490.8</ele>
        <time>2019-07-08T16:15:03Z</time>
      </trkpt>
      <trkpt lat="39.7614080" lon="-5.0318900">
        <ele>491.2</ele>
        <time>2019-07-08T16:15:08Z</time>
      </trkpt>
      <trkpt lat="39.7614430" lon="-5.0320890">
        <ele>491.2</ele>
        <time>2019-07-08T16:15:11Z</time>
      </trkpt>
      <trkpt lat="39.7614730" lon="-5.0322940">
        <ele>491.2</ele>
        <time>2019-07-08T16:15:14Z</time>
      </trkpt>
      <trkpt lat="39.7615460" lon="-5.0327070">
        <ele>491.0</ele>
        <time>2019-07-08T16:15:20Z</time>
      </trkpt>
      <trkpt lat="39.7616950" lon="-5.0333120">
        <ele>490.6</ele>
        <time>2019-07-08T16:15:29Z</time>
      </trkpt>
      <trkpt lat="39.7618800" lon="-5.0338250">
        <ele>490.2</ele>
        <time>2019-07-08T16:15:37Z</time>
      </trkpt>
      <trkpt lat="39.7621080" lon="-5.0344240">
        <ele>490.2</ele>
        <time>2019-07-08T16:15:46Z</time>
      </trkpt>
      <trkpt lat="39.7623070" lon="-5.0349930">
        <ele>489.2</ele>
        <time>2019-07-08T16:15:54Z</time>
      </trkpt>
      <trkpt lat="39.7624290" lon="-5.0353450">
        <ele>488.0</ele>
        <time>2019-07-08T16:15:59Z</time>
      </trkpt>
      <trkpt lat="39.7624650" lon="-5.0354820">
        <ele>487.6</ele>
        <time>2019-07-08T16:16:01Z</time>
      </trkpt>
      <trkpt lat="39.7625060" lon="-5.0356110">
        <ele>487.6</ele>
        <time>2019-07-08T16:16:03Z</time>
      </trkpt>
      <trkpt lat="39.7625480" lon="-5.0357360">
        <ele>487.6</ele>
        <time>2019-07-08T16:16:05Z</time>
      </trkpt>
      <trkpt lat="39.7625810" lon="-5.0358670">
        <ele>487.4</ele>
        <time>2019-07-08T16:16:07Z</time>
      </trkpt>
      <trkpt lat="39.7626110" lon="-5.0360010">
        <ele>486.8</ele>
        <time>2019-07-08T16:16:09Z</time>
      </trkpt>
      <trkpt lat="39.7626470" lon="-5.0361360">
        <ele>486.4</ele>
        <time>2019-07-08T16:16:11Z</time>
      </trkpt>
      <trkpt lat="39.7626840" lon="-5.0362780">
        <ele>486.2</ele>
        <time>2019-07-08T16:16:13Z</time>
      </trkpt>
      <trkpt lat="39.7627180" lon="-5.0364220">
        <ele>485.8</ele>
        <time>2019-07-08T16:16:15Z</time>
      </trkpt>
      <trkpt lat="39.7627350" lon="-5.0364960">
        <ele>485.6</ele>
        <time>2019-07-08T16:16:16Z</time>
      </trkpt>
      <trkpt lat="39.7628050" lon="-5.0368070">
        <ele>484.8</ele>
        <time>2019-07-08T16:16:20Z</time>
      </trkpt>
      <trkpt lat="39.7628370" lon="-5.0369720">
        <ele>484.4</ele>
        <time>2019-07-08T16:16:22Z</time>
      </trkpt>
      <trkpt lat="39.7628530" lon="-5.0370570">
        <ele>484.2</ele>
        <time>2019-07-08T16:16:23Z</time>
      </trkpt>
      <trkpt lat="39.7628860" lon="-5.0372300">
        <ele>483.6</ele>
        <time>2019-07-08T16:16:25Z</time>
      </trkpt>
      <trkpt lat="39.7629040" lon="-5.0373170">
        <ele>483.4</ele>
        <time>2019-07-08T16:16:26Z</time>
      </trkpt>
      <trkpt lat="39.7630040" lon="-5.0377540">
        <ele>482.4</ele>
        <time>2019-07-08T16:16:31Z</time>
      </trkpt>
      <trkpt lat="39.7630450" lon="-5.0379230">
        <ele>481.8</ele>
        <time>2019-07-08T16:16:33Z</time>
      </trkpt>
      <trkpt lat="39.7631870" lon="-5.0384070">
        <ele>481.2</ele>
        <time>2019-07-08T16:16:39Z</time>
      </trkpt>
      <trkpt lat="39.7632620" lon="-5.0386370">
        <ele>480.8</ele>
        <time>2019-07-08T16:16:42Z</time>
      </trkpt>
      <trkpt lat="39.7633500" lon="-5.0388550">
        <ele>481.2</ele>
        <time>2019-07-08T16:16:45Z</time>
      </trkpt>
      <trkpt lat="39.7634320" lon="-5.0390610">
        <ele>481.4</ele>
        <time>2019-07-08T16:16:48Z</time>
      </trkpt>
      <trkpt lat="39.7634580" lon="-5.0391260">
        <ele>481.6</ele>
        <time>2019-07-08T16:16:49Z</time>
      </trkpt>
      <trkpt lat="39.7635480" lon="-5.0393070">
        <ele>482.8</ele>
        <time>2019-07-08T16:16:52Z</time>
      </trkpt>
      <trkpt lat="39.7636380" lon="-5.0394810">
        <ele>483.2</ele>
        <time>2019-07-08T16:16:55Z</time>
      </trkpt>
      <trkpt lat="39.7636690" lon="-5.0395380">
        <ele>483.4</ele>
        <time>2019-07-08T16:16:56Z</time>
      </trkpt>
      <trkpt lat="39.7637910" lon="-5.0397530">
        <ele>483.6</ele>
        <time>2019-07-08T16:17:00Z</time>
      </trkpt>
      <trkpt lat="39.7639130" lon="-5.0399430">
        <ele>483.2</ele>
        <time>2019-07-08T16:17:04Z</time>
      </trkpt>
      <trkpt lat="39.7640290" lon="-5.0401180">
        <ele>483.6</ele>
        <time>2019-07-08T16:17:08Z</time>
      </trkpt>
      <trkpt lat="39.7640890" lon="-5.0401990">
        <ele>483.8</ele>
        <time>2019-07-08T16:17:10Z</time>
      </trkpt>
      <trkpt lat="39.7642090" lon="-5.0403670">
        <ele>484.4</ele>
        <time>2019-07-08T16:17:14Z</time>
      </trkpt>
      <trkpt lat="39.7642690" lon="-5.0404490">
        <ele>484.8</ele>
        <time>2019-07-08T16:17:16Z</time>
      </trkpt>
      <trkpt lat="39.7644200" lon="-5.0406530">
        <ele>485.8</ele>
        <time>2019-07-08T16:17:21Z</time>
      </trkpt>
      <trkpt lat="39.7644500" lon="-5.0406930">
        <ele>486.0</ele>
        <time>2019-07-08T16:17:22Z</time>
      </trkpt>
      <trkpt lat="39.7645850" lon="-5.0408890">
        <ele>486.8</ele>
        <time>2019-07-08T16:17:27Z</time>
      </trkpt>
      <trkpt lat="39.7646120" lon="-5.0409240">
        <ele>487.2</ele>
        <time>2019-07-08T16:17:28Z</time>
      </trkpt>
      <trkpt lat="39.7646570" lon="-5.0409970">
        <ele>487.6</ele>
        <time>2019-07-08T16:17:30Z</time>
      </trkpt>
      <trkpt lat="39.7646800" lon="-5.0410340">
        <ele>488.0</ele>
        <time>2019-07-08T16:17:31Z</time>
      </trkpt>
      <trkpt lat="39.7647720" lon="-5.0411890">
        <ele>488.8</ele>
        <time>2019-07-08T16:17:35Z</time>
      </trkpt>
      <trkpt lat="39.7647950" lon="-5.0412290">
        <ele>489.2</ele>
        <time>2019-07-08T16:17:36Z</time>
      </trkpt>
      <trkpt lat="39.7649100" lon="-5.0414810">
        <ele>490.2</ele>
        <time>2019-07-08T16:17:42Z</time>
      </trkpt>
      <trkpt lat="39.7649270" lon="-5.0415260">
        <ele>490.4</ele>
        <time>2019-07-08T16:17:43Z</time>
      </trkpt>
      <trkpt lat="39.7650090" lon="-5.0417620">
        <ele>491.6</ele>
        <time>2019-07-08T16:17:48Z</time>
      </trkpt>
      <trkpt lat="39.7650770" lon="-5.0420020">
        <ele>492.4</ele>
        <time>2019-07-08T16:17:53Z</time>
      </trkpt>
      <trkpt lat="39.7650940" lon="-5.0421040">
        <ele>492.6</ele>
        <time>2019-07-08T16:17:55Z</time>
      </trkpt>
      <trkpt lat="39.7651490" lon="-5.0424220">
        <ele>493.6</ele>
        <time>2019-07-08T16:18:01Z</time>
      </trkpt>
      <trkpt lat="39.7651540" lon="-5.0424760">
        <ele>493.8</ele>
        <time>2019-07-08T16:18:02Z</time>
      </trkpt>
      <trkpt lat="39.7651740" lon="-5.0428730">
        <ele>494.6</ele>
        <time>2019-07-08T16:18:09Z</time>
      </trkpt>
      <trkpt lat="39.7651490" lon="-5.0432950">
        <ele>494.4</ele>
        <time>2019-07-08T16:18:16Z</time>
      </trkpt>
      <trkpt lat="39.7650880" lon="-5.0437050">
        <ele>494.4</ele>
        <time>2019-07-08T16:18:22Z</time>
      </trkpt>
      <trkpt lat="39.7650730" lon="-5.0437750">
        <ele>494.4</ele>
        <time>2019-07-08T16:18:23Z</time>
      </trkpt>
      <trkpt lat="39.7650150" lon="-5.0439770">
        <ele>494.4</ele>
        <time>2019-07-08T16:18:26Z</time>
      </trkpt>
      <trkpt lat="39.7649370" lon="-5.0441870">
        <ele>494.2</ele>
        <time>2019-07-08T16:18:29Z</time>
      </trkpt>
      <trkpt lat="39.7647360" lon="-5.0446330">
        <ele>493.6</ele>
        <time>2019-07-08T16:18:35Z</time>
      </trkpt>
      <trkpt lat="39.7646930" lon="-5.0447090">
        <ele>493.2</ele>
        <time>2019-07-08T16:18:36Z</time>
      </trkpt>
      <trkpt lat="39.7646000" lon="-5.0448620">
        <ele>492.8</ele>
        <time>2019-07-08T16:18:38Z</time>
      </trkpt>
      <trkpt lat="39.7644430" lon="-5.0450950">
        <ele>491.8</ele>
        <time>2019-07-08T16:18:41Z</time>
      </trkpt>
      <trkpt lat="39.7643860" lon="-5.0451750">
        <ele>491.4</ele>
        <time>2019-07-08T16:18:42Z</time>
      </trkpt>
      <trkpt lat="39.7642170" lon="-5.0454290">
        <ele>490.4</ele>
        <time>2019-07-08T16:18:45Z</time>
      </trkpt>
      <trkpt lat="39.7640490" lon="-5.0457040">
        <ele>489.0</ele>
        <time>2019-07-08T16:18:48Z</time>
      </trkpt>
      <trkpt lat="39.7639940" lon="-5.0457960">
        <ele>488.8</ele>
        <time>2019-07-08T16:18:49Z</time>
      </trkpt>
      <trkpt lat="39.7638440" lon="-5.0460800">
        <ele>487.8</ele>
        <time>2019-07-08T16:18:52Z</time>
      </trkpt>
      <trkpt lat="39.7637220" lon="-5.0463610">
        <ele>486.8</ele>
        <time>2019-07-08T16:18:55Z</time>
      </trkpt>
      <trkpt lat="39.7636470" lon="-5.0465420">
        <ele>486.2</ele>
        <time>2019-07-08T16:18:57Z</time>
      </trkpt>
      <trkpt lat="39.7635830" lon="-5.0467130">
        <ele>485.8</ele>
        <time>2019-07-08T16:18:59Z</time>
      </trkpt>
      <trkpt lat="39.7635290" lon="-5.0468810">
        <ele>485.8</ele>
        <time>2019-07-08T16:19:01Z</time>
      </trkpt>
      <trkpt lat="39.7634780" lon="-5.0470510">
        <ele>486.0</ele>
        <time>2019-07-08T16:19:03Z</time>
      </trkpt>
      <trkpt lat="39.7633760" lon="-5.0474490">
        <ele>486.4</ele>
        <time>2019-07-08T16:19:08Z</time>
      </trkpt>
      <trkpt lat="39.7633180" lon="-5.0477480">
        <ele>487.2</ele>
        <time>2019-07-08T16:19:12Z</time>
      </trkpt>
      <trkpt lat="39.7632850" lon="-5.0480250">
        <ele>488.0</ele>
        <time>2019-07-08T16:19:16Z</time>
      </trkpt>
      <trkpt lat="39.7632580" lon="-5.0482800">
        <ele>488.2</ele>
        <time>2019-07-08T16:19:20Z</time>
      </trkpt>
      <trkpt lat="39.7632440" lon="-5.0485230">
        <ele>489.0</ele>
        <time>2019-07-08T16:19:24Z</time>
      </trkpt>
      <trkpt lat="39.7632400" lon="-5.0486380">
        <ele>489.4</ele>
        <time>2019-07-08T16:19:26Z</time>
      </trkpt>
      <trkpt lat="39.7632350" lon="-5.0488570">
        <ele>490.4</ele>
        <time>2019-07-08T16:19:30Z</time>
      </trkpt>
      <trkpt lat="39.7632330" lon="-5.0490020">
        <ele>491.4</ele>
        <time>2019-07-08T16:19:33Z</time>
      </trkpt>
      <trkpt lat="39.7632360" lon="-5.0491080">
        <ele>492.2</ele>
        <time>2019-07-08T16:19:36Z</time>
      </trkpt>
      <trkpt lat="39.7632330" lon="-5.0491760">
        <ele>492.6</ele>
        <time>2019-07-08T16:19:38Z</time>
      </trkpt>
      <trkpt lat="39.7632310" lon="-5.0492460">
        <ele>493.0</ele>
        <time>2019-07-08T16:19:40Z</time>
      </trkpt>
      <trkpt lat="39.7632360" lon="-5.0493560">
        <ele>493.6</ele>
        <time>2019-07-08T16:19:43Z</time>
      </trkpt>
      <trkpt lat="39.7632420" lon="-5.0494960">
        <ele>494.6</ele>
        <time>2019-07-08T16:19:47Z</time>
      </trkpt>
      <trkpt lat="39.7632430" lon="-5.0495310">
        <ele>494.8</ele>
        <time>2019-07-08T16:19:48Z</time>
      </trkpt>
      <trkpt lat="39.7632470" lon="-5.0496750">
        <ele>495.8</ele>
        <time>2019-07-08T16:19:52Z</time>
      </trkpt>
      <trkpt lat="39.7632480" lon="-5.0498550">
        <ele>496.8</ele>
        <time>2019-07-08T16:19:57Z</time>
      </trkpt>
      <trkpt lat="39.7632500" lon="-5.0498910">
        <ele>497.0</ele>
        <time>2019-07-08T16:19:58Z</time>
      </trkpt>
      <trkpt lat="39.7632460" lon="-5.0500270">
        <ele>498.0</ele>
        <time>2019-07-08T16:20:02Z</time>
      </trkpt>
      <trkpt lat="39.7632430" lon="-5.0501600">
        <ele>498.8</ele>
        <time>2019-07-08T16:20:06Z</time>
      </trkpt>
      <trkpt lat="39.7632410" lon="-5.0502270">
        <ele>499.4</ele>
        <time>2019-07-08T16:20:08Z</time>
      </trkpt>
      <trkpt lat="39.7632290" lon="-5.0504060">
        <ele>500.4</ele>
        <time>2019-07-08T16:20:13Z</time>
      </trkpt>
      <trkpt lat="39.7632220" lon="-5.0505190">
        <ele>501.0</ele>
        <time>2019-07-08T16:20:16Z</time>
      </trkpt>
      <trkpt lat="39.7632170" lon="-5.0506320">
        <ele>501.6</ele>
        <time>2019-07-08T16:20:19Z</time>
      </trkpt>
      <trkpt lat="39.7632070" lon="-5.0507550">
        <ele>501.8</ele>
        <time>2019-07-08T16:20:22Z</time>
      </trkpt>
      <trkpt lat="39.7631900" lon="-5.0509300">
        <ele>502.6</ele>
        <time>2019-07-08T16:20:26Z</time>
      </trkpt>
      <trkpt lat="39.7631590" lon="-5.0511640">
        <ele>502.8</ele>
        <time>2019-07-08T16:20:31Z</time>
      </trkpt>
      <trkpt lat="39.7631120" lon="-5.0514630">
        <ele>503.4</ele>
        <time>2019-07-08T16:20:37Z</time>
      </trkpt>
      <trkpt lat="39.7630820" lon="-5.0516290">
        <ele>503.2</ele>
        <time>2019-07-08T16:20:40Z</time>
      </trkpt>
      <trkpt lat="39.7630630" lon="-5.0517490">
        <ele>503.0</ele>
        <time>2019-07-08T16:20:42Z</time>
      </trkpt>
      <trkpt lat="39.7630220" lon="-5.0519360">
        <ele>503.0</ele>
        <time>2019-07-08T16:20:45Z</time>
      </trkpt>
      <trkpt lat="39.7629890" lon="-5.0520760">
        <ele>502.8</ele>
        <time>2019-07-08T16:20:47Z</time>
      </trkpt>
      <trkpt lat="39.7629310" lon="-5.0523130">
        <ele>502.0</ele>
        <time>2019-07-08T16:20:50Z</time>
      </trkpt>
      <trkpt lat="39.7628660" lon="-5.0525680">
        <ele>501.2</ele>
        <time>2019-07-08T16:20:53Z</time>
      </trkpt>
      <trkpt lat="39.7627890" lon="-5.0528320">
        <ele>500.6</ele>
        <time>2019-07-08T16:20:56Z</time>
      </trkpt>
      <trkpt lat="39.7627390" lon="-5.0530140">
        <ele>500.2</ele>
        <time>2019-07-08T16:20:58Z</time>
      </trkpt>
      <trkpt lat="39.7626890" lon="-5.0531970">
        <ele>499.4</ele>
        <time>2019-07-08T16:21:00Z</time>
      </trkpt>
      <trkpt lat="39.7626640" lon="-5.0532910">
        <ele>499.0</ele>
        <time>2019-07-08T16:21:01Z</time>
      </trkpt>
      <trkpt lat="39.7625820" lon="-5.0535760">
        <ele>497.8</ele>
        <time>2019-07-08T16:21:04Z</time>
      </trkpt>
      <trkpt lat="39.7625030" lon="-5.0538640">
        <ele>496.8</ele>
        <time>2019-07-08T16:21:07Z</time>
      </trkpt>
      <trkpt lat="39.7624490" lon="-5.0540590">
        <ele>496.2</ele>
        <time>2019-07-08T16:21:09Z</time>
      </trkpt>
      <trkpt lat="39.7623930" lon="-5.0542540">
        <ele>495.8</ele>
        <time>2019-07-08T16:21:11Z</time>
      </trkpt>
      <trkpt lat="39.7622910" lon="-5.0546460">
        <ele>494.6</ele>
        <time>2019-07-08T16:21:15Z</time>
      </trkpt>
      <trkpt lat="39.7622390" lon="-5.0548380">
        <ele>494.0</ele>
        <time>2019-07-08T16:21:17Z</time>
      </trkpt>
      <trkpt lat="39.7621840" lon="-5.0550240">
        <ele>493.6</ele>
        <time>2019-07-08T16:21:19Z</time>
      </trkpt>
      <trkpt lat="39.7620590" lon="-5.0554480">
        <ele>493.0</ele>
        <time>2019-07-08T16:21:24Z</time>
      </trkpt>
      <trkpt lat="39.7619760" lon="-5.0557670">
        <ele>492.8</ele>
        <time>2019-07-08T16:21:28Z</time>
      </trkpt>
      <trkpt lat="39.7618690" lon="-5.0561440">
        <ele>492.8</ele>
        <time>2019-07-08T16:21:33Z</time>
      </trkpt>
      <trkpt lat="39.7616970" lon="-5.0567860">
        <ele>493.4</ele>
        <time>2019-07-08T16:21:42Z</time>
      </trkpt>
      <trkpt lat="39.7616590" lon="-5.0569250">
        <ele>493.8</ele>
        <time>2019-07-08T16:21:44Z</time>
      </trkpt>
      <trkpt lat="39.7615850" lon="-5.0571960">
        <ele>494.2</ele>
        <time>2019-07-08T16:21:48Z</time>
      </trkpt>
      <trkpt lat="39.7615320" lon="-5.0573910">
        <ele>494.6</ele>
        <time>2019-07-08T16:21:51Z</time>
      </trkpt>
      <trkpt lat="39.7615140" lon="-5.0574540">
        <ele>494.8</ele>
        <time>2019-07-08T16:21:52Z</time>
      </trkpt>
      <trkpt lat="39.7614470" lon="-5.0577000">
        <ele>495.2</ele>
        <time>2019-07-08T16:21:56Z</time>
      </trkpt>
      <trkpt lat="39.7614130" lon="-5.0578190">
        <ele>495.6</ele>
        <time>2019-07-08T16:21:58Z</time>
      </trkpt>
      <trkpt lat="39.7613470" lon="-5.0580550">
        <ele>497.0</ele>
        <time>2019-07-08T16:22:02Z</time>
      </trkpt>
      <trkpt lat="39.7613010" lon="-5.0582230">
        <ele>498.0</ele>
        <time>2019-07-08T16:22:05Z</time>
      </trkpt>
      <trkpt lat="39.7612230" lon="-5.0585050">
        <ele>499.2</ele>
        <time>2019-07-08T16:22:10Z</time>
      </trkpt>
      <trkpt lat="39.7612070" lon="-5.0585630">
        <ele>499.4</ele>
        <time>2019-07-08T16:22:11Z</time>
      </trkpt>
      <trkpt lat="39.7611270" lon="-5.0588490">
        <ele>500.4</ele>
        <time>2019-07-08T16:22:16Z</time>
      </trkpt>
      <trkpt lat="39.7610420" lon="-5.0591310">
        <ele>501.0</ele>
        <time>2019-07-08T16:22:21Z</time>
      </trkpt>
      <trkpt lat="39.7609770" lon="-5.0593540">
        <ele>501.4</ele>
        <time>2019-07-08T16:22:25Z</time>
      </trkpt>
      <trkpt lat="39.7609040" lon="-5.0596340">
        <ele>501.8</ele>
        <time>2019-07-08T16:22:30Z</time>
      </trkpt>
      <trkpt lat="39.7607580" lon="-5.0601530">
        <ele>502.4</ele>
        <time>2019-07-08T16:22:39Z</time>
      </trkpt>
      <trkpt lat="39.7606030" lon="-5.0606890">
        <ele>502.8</ele>
        <time>2019-07-08T16:22:48Z</time>
      </trkpt>
      <trkpt lat="39.7604750" lon="-5.0611510">
        <ele>502.8</ele>
        <time>2019-07-08T16:22:55Z</time>
      </trkpt>
      <trkpt lat="39.7604550" lon="-5.0612210">
        <ele>502.6</ele>
        <time>2019-07-08T16:22:56Z</time>
      </trkpt>
      <trkpt lat="39.7603940" lon="-5.0614390">
        <ele>502.4</ele>
        <time>2019-07-08T16:22:59Z</time>
      </trkpt>
      <trkpt lat="39.7603320" lon="-5.0616610">
        <ele>502.4</ele>
        <time>2019-07-08T16:23:02Z</time>
      </trkpt>
      <trkpt lat="39.7602920" lon="-5.0618100">
        <ele>502.6</ele>
        <time>2019-07-08T16:23:04Z</time>
      </trkpt>
      <trkpt lat="39.7601850" lon="-5.0621880">
        <ele>502.4</ele>
        <time>2019-07-08T16:23:09Z</time>
      </trkpt>
      <trkpt lat="39.7601220" lon="-5.0624230">
        <ele>502.0</ele>
        <time>2019-07-08T16:23:12Z</time>
      </trkpt>
      <trkpt lat="39.7599660" lon="-5.0629790">
        <ele>501.8</ele>
        <time>2019-07-08T16:23:19Z</time>
      </trkpt>
      <trkpt lat="39.7598980" lon="-5.0632170">
        <ele>501.6</ele>
        <time>2019-07-08T16:23:22Z</time>
      </trkpt>
      <trkpt lat="39.7597890" lon="-5.0636150">
        <ele>501.4</ele>
        <time>2019-07-08T16:23:27Z</time>
      </trkpt>
      <trkpt lat="39.7596820" lon="-5.0640090">
        <ele>501.4</ele>
        <time>2019-07-08T16:23:32Z</time>
      </trkpt>
      <trkpt lat="39.7594870" lon="-5.0647180">
        <ele>501.8</ele>
        <time>2019-07-08T16:23:41Z</time>
      </trkpt>
      <trkpt lat="39.7593030" lon="-5.0653590">
        <ele>501.8</ele>
        <time>2019-07-08T16:23:49Z</time>
      </trkpt>
      <trkpt lat="39.7592570" lon="-5.0655180">
        <ele>502.2</ele>
        <time>2019-07-08T16:23:51Z</time>
      </trkpt>
      <trkpt lat="39.7591170" lon="-5.0660590">
        <ele>502.4</ele>
        <time>2019-07-08T16:23:58Z</time>
      </trkpt>
      <trkpt lat="39.7589140" lon="-5.0667700">
        <ele>503.4</ele>
        <time>2019-07-08T16:24:08Z</time>
      </trkpt>
      <trkpt lat="39.7588790" lon="-5.0669030">
        <ele>503.6</ele>
        <time>2019-07-08T16:24:10Z</time>
      </trkpt>
      <trkpt lat="39.7587800" lon="-5.0672820">
        <ele>504.0</ele>
        <time>2019-07-08T16:24:16Z</time>
      </trkpt>
      <trkpt lat="39.7586960" lon="-5.0676640">
        <ele>504.6</ele>
        <time>2019-07-08T16:24:22Z</time>
      </trkpt>
      <trkpt lat="39.7586720" lon="-5.0677920">
        <ele>504.8</ele>
        <time>2019-07-08T16:24:24Z</time>
      </trkpt>
      <trkpt lat="39.7585960" lon="-5.0684040">
        <ele>504.8</ele>
        <time>2019-07-08T16:24:33Z</time>
      </trkpt>
      <trkpt lat="39.7585620" lon="-5.0690550">
        <ele>504.4</ele>
        <time>2019-07-08T16:24:42Z</time>
      </trkpt>
      <trkpt lat="39.7585560" lon="-5.0695010">
        <ele>504.4</ele>
        <time>2019-07-08T16:24:48Z</time>
      </trkpt>
      <trkpt lat="39.7585550" lon="-5.0697270">
        <ele>504.4</ele>
        <time>2019-07-08T16:24:51Z</time>
      </trkpt>
      <trkpt lat="39.7585540" lon="-5.0704120">
        <ele>504.4</ele>
        <time>2019-07-08T16:25:00Z</time>
      </trkpt>
      <trkpt lat="39.7585470" lon="-5.0709410">
        <ele>504.4</ele>
        <time>2019-07-08T16:25:07Z</time>
      </trkpt>
      <trkpt lat="39.7585400" lon="-5.0712440">
        <ele>504.2</ele>
        <time>2019-07-08T16:25:11Z</time>
      </trkpt>
      <trkpt lat="39.7585390" lon="-5.0719240">
        <ele>504.2</ele>
        <time>2019-07-08T16:25:20Z</time>
      </trkpt>
      <trkpt lat="39.7585350" lon="-5.0726730">
        <ele>504.4</ele>
        <time>2019-07-08T16:25:30Z</time>
      </trkpt>
      <trkpt lat="39.7585360" lon="-5.0727490">
        <ele>504.2</ele>
        <time>2019-07-08T16:25:31Z</time>
      </trkpt>
      <trkpt lat="39.7585650" lon="-5.0733010">
        <ele>504.0</ele>
        <time>2019-07-08T16:25:38Z</time>
      </trkpt>
      <trkpt lat="39.7586430" lon="-5.0737930">
        <ele>503.6</ele>
        <time>2019-07-08T16:25:44Z</time>
      </trkpt>
      <trkpt lat="39.7586610" lon="-5.0738720">
        <ele>503.4</ele>
        <time>2019-07-08T16:25:45Z</time>
      </trkpt>
      <trkpt lat="39.7587210" lon="-5.0741100">
        <ele>502.8</ele>
        <time>2019-07-08T16:25:48Z</time>
      </trkpt>
      <trkpt lat="39.7587670" lon="-5.0742600">
        <ele>502.4</ele>
        <time>2019-07-08T16:25:50Z</time>
      </trkpt>
      <trkpt lat="39.7588180" lon="-5.0744070">
        <ele>502.0</ele>
        <time>2019-07-08T16:25:52Z</time>
      </trkpt>
      <trkpt lat="39.7589930" lon="-5.0747670">
        <ele>501.4</ele>
        <time>2019-07-08T16:25:57Z</time>
      </trkpt>
      <trkpt lat="39.7590310" lon="-5.0748390">
        <ele>501.2</ele>
        <time>2019-07-08T16:25:58Z</time>
      </trkpt>
      <trkpt lat="39.7590710" lon="-5.0749110">
        <ele>500.8</ele>
        <time>2019-07-08T16:25:59Z</time>
      </trkpt>
      <trkpt lat="39.7591540" lon="-5.0750530">
        <ele>500.4</ele>
        <time>2019-07-08T16:26:01Z</time>
      </trkpt>
      <trkpt lat="39.7591980" lon="-5.0751240">
        <ele>500.2</ele>
        <time>2019-07-08T16:26:02Z</time>
      </trkpt>
      <trkpt lat="39.7593880" lon="-5.0754020">
        <ele>499.4</ele>
        <time>2019-07-08T16:26:06Z</time>
      </trkpt>
      <trkpt lat="39.7594870" lon="-5.0755410">
        <ele>499.2</ele>
        <time>2019-07-08T16:26:08Z</time>
      </trkpt>
      <trkpt lat="39.7595880" lon="-5.0756850">
        <ele>498.6</ele>
        <time>2019-07-08T16:26:10Z</time>
      </trkpt>
      <trkpt lat="39.7596400" lon="-5.0757590">
        <ele>498.2</ele>
        <time>2019-07-08T16:26:11Z</time>
      </trkpt>
      <trkpt lat="39.7598000" lon="-5.0759810">
        <ele>497.4</ele>
        <time>2019-07-08T16:26:14Z</time>
      </trkpt>
      <trkpt lat="39.7599080" lon="-5.0761320">
        <ele>497.2</ele>
        <time>2019-07-08T16:26:16Z</time>
      </trkpt>
      <trkpt lat="39.7601260" lon="-5.0764510">
        <ele>495.8</ele>
        <time>2019-07-08T16:26:20Z</time>
      </trkpt>
      <trkpt lat="39.7602990" lon="-5.0766940">
        <ele>495.0</ele>
        <time>2019-07-08T16:26:23Z</time>
      </trkpt>
      <trkpt lat="39.7603560" lon="-5.0767760">
        <ele>494.6</ele>
        <time>2019-07-08T16:26:24Z</time>
      </trkpt>
      <trkpt lat="39.7605290" lon="-5.0770290">
        <ele>493.4</ele>
        <time>2019-07-08T16:26:27Z</time>
      </trkpt>
      <trkpt lat="39.7607690" lon="-5.0773650">
        <ele>492.2</ele>
        <time>2019-07-08T16:26:31Z</time>
      </trkpt>
      <trkpt lat="39.7608290" lon="-5.0774480">
        <ele>492.0</ele>
        <time>2019-07-08T16:26:32Z</time>
      </trkpt>
      <trkpt lat="39.7610030" lon="-5.0776960">
        <ele>491.0</ele>
        <time>2019-07-08T16:26:35Z</time>
      </trkpt>
      <trkpt lat="39.7611690" lon="-5.0779330">
        <ele>490.4</ele>
        <time>2019-07-08T16:26:38Z</time>
      </trkpt>
      <trkpt lat="39.7612770" lon="-5.0780930">
        <ele>490.0</ele>
        <time>2019-07-08T16:26:40Z</time>
      </trkpt>
      <trkpt lat="39.7613840" lon="-5.0782540">
        <ele>489.4</ele>
        <time>2019-07-08T16:26:42Z</time>
      </trkpt>
      <trkpt lat="39.7615450" lon="-5.0784790">
        <ele>489.6</ele>
        <time>2019-07-08T16:26:45Z</time>
      </trkpt>
      <trkpt lat="39.7616460" lon="-5.0786260">
        <ele>489.8</ele>
        <time>2019-07-08T16:26:47Z</time>
      </trkpt>
      <trkpt lat="39.7618440" lon="-5.0789050">
        <ele>489.8</ele>
        <time>2019-07-08T16:26:51Z</time>
      </trkpt>
      <trkpt lat="39.7619830" lon="-5.0791080">
        <ele>490.0</ele>
        <time>2019-07-08T16:26:54Z</time>
      </trkpt>
      <trkpt lat="39.7620290" lon="-5.0791740">
        <ele>490.0</ele>
        <time>2019-07-08T16:26:55Z</time>
      </trkpt>
      <trkpt lat="39.7621570" lon="-5.0793570">
        <ele>489.6</ele>
        <time>2019-07-08T16:26:58Z</time>
      </trkpt>
      <trkpt lat="39.7623170" lon="-5.0795870">
        <ele>490.0</ele>
        <time>2019-07-08T16:27:02Z</time>
      </trkpt>
      <trkpt lat="39.7623900" lon="-5.0796960">
        <ele>490.0</ele>
        <time>2019-07-08T16:27:04Z</time>
      </trkpt>
      <trkpt lat="39.7625270" lon="-5.0798880">
        <ele>490.4</ele>
        <time>2019-07-08T16:27:08Z</time>
      </trkpt>
      <trkpt lat="39.7625600" lon="-5.0799350">
        <ele>490.6</ele>
        <time>2019-07-08T16:27:09Z</time>
      </trkpt>
      <trkpt lat="39.7626850" lon="-5.0801210">
        <ele>491.0</ele>
        <time>2019-07-08T16:27:13Z</time>
      </trkpt>
      <trkpt lat="39.7628250" lon="-5.0803050">
        <ele>491.0</ele>
        <time>2019-07-08T16:27:17Z</time>
      </trkpt>
      <trkpt lat="39.7632380" lon="-5.0807010">
        <ele>490.8</ele>
        <time>2019-07-08T16:27:27Z</time>
      </trkpt>
      <trkpt lat="39.7636290" lon="-5.0809390">
        <ele>490.6</ele>
        <time>2019-07-08T16:27:35Z</time>
      </trkpt>
      <trkpt lat="39.7640900" lon="-5.0810850">
        <ele>490.6</ele>
        <time>2019-07-08T16:27:43Z</time>
      </trkpt>
      <trkpt lat="39.7642080" lon="-5.0811050">
        <ele>490.2</ele>
        <time>2019-07-08T16:27:45Z</time>
      </trkpt>
      <trkpt lat="39.7645300" lon="-5.0811150">
        <ele>489.6</ele>
        <time>2019-07-08T16:27:50Z</time>
      </trkpt>
      <trkpt lat="39.7647510" lon="-5.0810800">
        <ele>489.0</ele>
        <time>2019-07-08T16:27:53Z</time>
      </trkpt>
      <trkpt lat="39.7649010" lon="-5.0810390">
        <ele>488.6</ele>
        <time>2019-07-08T16:27:55Z</time>
      </trkpt>
      <trkpt lat="39.7649780" lon="-5.0810180">
        <ele>488.6</ele>
        <time>2019-07-08T16:27:56Z</time>
      </trkpt>
      <trkpt lat="39.7652130" lon="-5.0809440">
        <ele>488.0</ele>
        <time>2019-07-08T16:27:59Z</time>
      </trkpt>
      <trkpt lat="39.7653760" lon="-5.0808870">
        <ele>486.8</ele>
        <time>2019-07-08T16:28:01Z</time>
      </trkpt>
      <trkpt lat="39.7655480" lon="-5.0808380">
        <ele>486.2</ele>
        <time>2019-07-08T16:28:03Z</time>
      </trkpt>
      <trkpt lat="39.7657250" lon="-5.0807900">
        <ele>486.0</ele>
        <time>2019-07-08T16:28:05Z</time>
      </trkpt>
      <trkpt lat="39.7658170" lon="-5.0807750">
        <ele>485.6</ele>
        <time>2019-07-08T16:28:06Z</time>
      </trkpt>
      <trkpt lat="39.7660070" lon="-5.0807650">
        <ele>484.4</ele>
        <time>2019-07-08T16:28:08Z</time>
      </trkpt>
      <trkpt lat="39.7661040" lon="-5.0807660">
        <ele>483.4</ele>
        <time>2019-07-08T16:28:09Z</time>
      </trkpt>
      <trkpt lat="39.7662980" lon="-5.0807860">
        <ele>482.2</ele>
        <time>2019-07-08T16:28:11Z</time>
      </trkpt>
      <trkpt lat="39.7664970" lon="-5.0808230">
        <ele>480.8</ele>
        <time>2019-07-08T16:28:13Z</time>
      </trkpt>
      <trkpt lat="39.7666970" lon="-5.0808820">
        <ele>479.4</ele>
        <time>2019-07-08T16:28:15Z</time>
      </trkpt>
      <trkpt lat="39.7669000" lon="-5.0809740">
        <ele>478.0</ele>
        <time>2019-07-08T16:28:17Z</time>
      </trkpt>
      <trkpt lat="39.7671020" lon="-5.0810950">
        <ele>476.6</ele>
        <time>2019-07-08T16:28:19Z</time>
      </trkpt>
      <trkpt lat="39.7672980" lon="-5.0812390">
        <ele>475.4</ele>
        <time>2019-07-08T16:28:21Z</time>
      </trkpt>
      <trkpt lat="39.7673920" lon="-5.0813230">
        <ele>475.0</ele>
        <time>2019-07-08T16:28:22Z</time>
      </trkpt>
      <trkpt lat="39.7675650" lon="-5.0815050">
        <ele>473.8</ele>
        <time>2019-07-08T16:28:24Z</time>
      </trkpt>
      <trkpt lat="39.7677190" lon="-5.0817010">
        <ele>472.6</ele>
        <time>2019-07-08T16:28:26Z</time>
      </trkpt>
      <trkpt lat="39.7680170" lon="-5.0822070">
        <ele>471.6</ele>
        <time>2019-07-08T16:28:31Z</time>
      </trkpt>
      <trkpt lat="39.7680630" lon="-5.0823060">
        <ele>471.4</ele>
        <time>2019-07-08T16:28:32Z</time>
      </trkpt>
      <trkpt lat="39.7681990" lon="-5.0827060">
        <ele>470.6</ele>
        <time>2019-07-08T16:28:36Z</time>
      </trkpt>
      <trkpt lat="39.7682510" lon="-5.0829060">
        <ele>470.2</ele>
        <time>2019-07-08T16:28:38Z</time>
      </trkpt>
      <trkpt lat="39.7683060" lon="-5.0832270">
        <ele>468.6</ele>
        <time>2019-07-08T16:28:41Z</time>
      </trkpt>
      <trkpt lat="39.7683170" lon="-5.0833410">
        <ele>468.2</ele>
        <time>2019-07-08T16:28:42Z</time>
      </trkpt>
      <trkpt lat="39.7683240" lon="-5.0834580">
        <ele>467.6</ele>
        <time>2019-07-08T16:28:43Z</time>
      </trkpt>
      <trkpt lat="39.7683330" lon="-5.0838300">
        <ele>466.2</ele>
        <time>2019-07-08T16:28:46Z</time>
      </trkpt>
      <trkpt lat="39.7683290" lon="-5.0839610">
        <ele>465.6</ele>
        <time>2019-07-08T16:28:47Z</time>
      </trkpt>
      <trkpt lat="39.7683160" lon="-5.0840930">
        <ele>464.6</ele>
        <time>2019-07-08T16:28:48Z</time>
      </trkpt>
      <trkpt lat="39.7682970" lon="-5.0842260">
        <ele>463.6</ele>
        <time>2019-07-08T16:28:49Z</time>
      </trkpt>
      <trkpt lat="39.7682450" lon="-5.0844930">
        <ele>461.8</ele>
        <time>2019-07-08T16:28:51Z</time>
      </trkpt>
      <trkpt lat="39.7682080" lon="-5.0846280">
        <ele>460.6</ele>
        <time>2019-07-08T16:28:52Z</time>
      </trkpt>
      <trkpt lat="39.7681670" lon="-5.0847650">
        <ele>459.2</ele>
        <time>2019-07-08T16:28:53Z</time>
      </trkpt>
      <trkpt lat="39.7681220" lon="-5.0849040">
        <ele>458.2</ele>
        <time>2019-07-08T16:28:54Z</time>
      </trkpt>
      <trkpt lat="39.7680150" lon="-5.0851840">
        <ele>456.2</ele>
        <time>2019-07-08T16:28:56Z</time>
      </trkpt>
      <trkpt lat="39.7679500" lon="-5.0853220">
        <ele>455.0</ele>
        <time>2019-07-08T16:28:57Z</time>
      </trkpt>
      <trkpt lat="39.7678770" lon="-5.0854560">
        <ele>453.6</ele>
        <time>2019-07-08T16:28:58Z</time>
      </trkpt>
      <trkpt lat="39.7677970" lon="-5.0855870">
        <ele>452.4</ele>
        <time>2019-07-08T16:28:59Z</time>
      </trkpt>
      <trkpt lat="39.7677100" lon="-5.0857120">
        <ele>451.4</ele>
        <time>2019-07-08T16:29:00Z</time>
      </trkpt>
      <trkpt lat="39.7676180" lon="-5.0858330">
        <ele>450.4</ele>
        <time>2019-07-08T16:29:01Z</time>
      </trkpt>
      <trkpt lat="39.7674220" lon="-5.0860560">
        <ele>448.6</ele>
        <time>2019-07-08T16:29:03Z</time>
      </trkpt>
      <trkpt lat="39.7673190" lon="-5.0861570">
        <ele>447.4</ele>
        <time>2019-07-08T16:29:04Z</time>
      </trkpt>
      <trkpt lat="39.7672130" lon="-5.0862480">
        <ele>446.4</ele>
        <time>2019-07-08T16:29:05Z</time>
      </trkpt>
      <trkpt lat="39.7668740" lon="-5.0864700">
        <ele>445.2</ele>
        <time>2019-07-08T16:29:08Z</time>
      </trkpt>
      <trkpt lat="39.7667570" lon="-5.0865330">
        <ele>444.0</ele>
        <time>2019-07-08T16:29:09Z</time>
      </trkpt>
      <trkpt lat="39.7666400" lon="-5.0865960">
        <ele>443.0</ele>
        <time>2019-07-08T16:29:10Z</time>
      </trkpt>
      <trkpt lat="39.7664070" lon="-5.0867290">
        <ele>441.6</ele>
        <time>2019-07-08T16:29:12Z</time>
      </trkpt>
      <trkpt lat="39.7662920" lon="-5.0868020">
        <ele>440.4</ele>
        <time>2019-07-08T16:29:13Z</time>
      </trkpt>
      <trkpt lat="39.7661770" lon="-5.0868790">
        <ele>439.2</ele>
        <time>2019-07-08T16:29:14Z</time>
      </trkpt>
      <trkpt lat="39.7660650" lon="-5.0869610">
        <ele>438.2</ele>
        <time>2019-07-08T16:29:15Z</time>
      </trkpt>
      <trkpt lat="39.7659540" lon="-5.0870500">
        <ele>437.2</ele>
        <time>2019-07-08T16:29:16Z</time>
      </trkpt>
      <trkpt lat="39.7657430" lon="-5.0872540">
        <ele>435.6</ele>
        <time>2019-07-08T16:29:18Z</time>
      </trkpt>
      <trkpt lat="39.7656440" lon="-5.0873710">
        <ele>434.8</ele>
        <time>2019-07-08T16:29:19Z</time>
      </trkpt>
      <trkpt lat="39.7655500" lon="-5.0874980">
        <ele>433.6</ele>
        <time>2019-07-08T16:29:20Z</time>
      </trkpt>
      <trkpt lat="39.7654610" lon="-5.0876340">
        <ele>432.2</ele>
        <time>2019-07-08T16:29:21Z</time>
      </trkpt>
      <trkpt lat="39.7653780" lon="-5.0877770">
        <ele>431.2</ele>
        <time>2019-07-08T16:29:22Z</time>
      </trkpt>
      <trkpt lat="39.7653010" lon="-5.0879280">
        <ele>430.0</ele>
        <time>2019-07-08T16:29:23Z</time>
      </trkpt>
      <trkpt lat="39.7652340" lon="-5.0880850">
        <ele>429.0</ele>
        <time>2019-07-08T16:29:24Z</time>
      </trkpt>
      <trkpt lat="39.7651190" lon="-5.0884140">
        <ele>426.8</ele>
        <time>2019-07-08T16:29:26Z</time>
      </trkpt>
      <trkpt lat="39.7650680" lon="-5.0885830">
        <ele>425.2</ele>
        <time>2019-07-08T16:29:27Z</time>
      </trkpt>
      <trkpt lat="39.7650170" lon="-5.0887520">
        <ele>424.0</ele>
        <time>2019-07-08T16:29:28Z</time>
      </trkpt>
      <trkpt lat="39.7649670" lon="-5.0889220">
        <ele>422.8</ele>
        <time>2019-07-08T16:29:29Z</time>
      </trkpt>
      <trkpt lat="39.7649170" lon="-5.0890910">
        <ele>421.6</ele>
        <time>2019-07-08T16:29:30Z</time>
      </trkpt>
      <trkpt lat="39.7648690" lon="-5.0892580">
        <ele>420.4</ele>
        <time>2019-07-08T16:29:31Z</time>
      </trkpt>
      <trkpt lat="39.7648220" lon="-5.0894240">
        <ele>419.2</ele>
        <time>2019-07-08T16:29:32Z</time>
      </trkpt>
      <trkpt lat="39.7647330" lon="-5.0897510">
        <ele>417.2</ele>
        <time>2019-07-08T16:29:34Z</time>
      </trkpt>
      <trkpt lat="39.7646890" lon="-5.0899110">
        <ele>416.0</ele>
        <time>2019-07-08T16:29:35Z</time>
      </trkpt>
      <trkpt lat="39.7646460" lon="-5.0900700">
        <ele>415.4</ele>
        <time>2019-07-08T16:29:36Z</time>
      </trkpt>
      <trkpt lat="39.7646030" lon="-5.0902280">
        <ele>414.2</ele>
        <time>2019-07-08T16:29:37Z</time>
      </trkpt>
      <trkpt lat="39.7645240" lon="-5.0905350">
        <ele>412.6</ele>
        <time>2019-07-08T16:29:39Z</time>
      </trkpt>
      <trkpt lat="39.7644700" lon="-5.0908450">
        <ele>411.4</ele>
        <time>2019-07-08T16:29:41Z</time>
      </trkpt>
      <trkpt lat="39.7644250" lon="-5.0913100">
        <ele>410.2</ele>
        <time>2019-07-08T16:29:44Z</time>
      </trkpt>
      <trkpt lat="39.7644270" lon="-5.0916140">
        <ele>409.0</ele>
        <time>2019-07-08T16:29:46Z</time>
      </trkpt>
      <trkpt lat="39.7644750" lon="-5.0920530">
        <ele>407.6</ele>
        <time>2019-07-08T16:29:49Z</time>
      </trkpt>
      <trkpt lat="39.7645350" lon="-5.0923270">
        <ele>407.0</ele>
        <time>2019-07-08T16:29:51Z</time>
      </trkpt>
      <trkpt lat="39.7646070" lon="-5.0925790">
        <ele>406.4</ele>
        <time>2019-07-08T16:29:53Z</time>
      </trkpt>
      <trkpt lat="39.7647180" lon="-5.0929210">
        <ele>405.8</ele>
        <time>2019-07-08T16:29:56Z</time>
      </trkpt>
      <trkpt lat="39.7647850" lon="-5.0931290">
        <ele>405.4</ele>
        <time>2019-07-08T16:29:58Z</time>
      </trkpt>
      <trkpt lat="39.7648160" lon="-5.0932320">
        <ele>405.4</ele>
        <time>2019-07-08T16:29:59Z</time>
      </trkpt>
      <trkpt lat="39.7648760" lon="-5.0934310">
        <ele>405.0</ele>
        <time>2019-07-08T16:30:01Z</time>
      </trkpt>
      <trkpt lat="39.7649400" lon="-5.0936230">
        <ele>405.0</ele>
        <time>2019-07-08T16:30:03Z</time>
      </trkpt>
      <trkpt lat="39.7651410" lon="-5.0942480">
        <ele>405.2</ele>
        <time>2019-07-08T16:30:10Z</time>
      </trkpt>
      <trkpt lat="39.7653400" lon="-5.0948720">
        <ele>405.8</ele>
        <time>2019-07-08T16:30:18Z</time>
      </trkpt>
      <trkpt lat="39.7654150" lon="-5.0950980">
        <ele>405.8</ele>
        <time>2019-07-08T16:30:21Z</time>
      </trkpt>
      <trkpt lat="39.7655660" lon="-5.0955620">
        <ele>406.0</ele>
        <time>2019-07-08T16:30:27Z</time>
      </trkpt>
      <trkpt lat="39.7656210" lon="-5.0957140">
        <ele>406.0</ele>
        <time>2019-07-08T16:30:29Z</time>
      </trkpt>
      <trkpt lat="39.7656740" lon="-5.0958530">
        <ele>406.0</ele>
        <time>2019-07-08T16:30:31Z</time>
      </trkpt>
      <trkpt lat="39.7657550" lon="-5.0960360">
        <ele>406.0</ele>
        <time>2019-07-08T16:30:34Z</time>
      </trkpt>
      <trkpt lat="39.7657790" lon="-5.0960940">
        <ele>406.2</ele>
        <time>2019-07-08T16:30:35Z</time>
      </trkpt>
      <trkpt lat="39.7658020" lon="-5.0961490">
        <ele>406.6</ele>
        <time>2019-07-08T16:30:36Z</time>
      </trkpt>
      <trkpt lat="39.7658990" lon="-5.0963540">
        <ele>407.4</ele>
        <time>2019-07-08T16:30:40Z</time>
      </trkpt>
      <trkpt lat="39.7659250" lon="-5.0964040">
        <ele>407.8</ele>
        <time>2019-07-08T16:30:41Z</time>
      </trkpt>
      <trkpt lat="39.7659790" lon="-5.0964940">
        <ele>408.6</ele>
        <time>2019-07-08T16:30:43Z</time>
      </trkpt>
      <trkpt lat="39.7660070" lon="-5.0965360">
        <ele>409.0</ele>
        <time>2019-07-08T16:30:44Z</time>
      </trkpt>
      <trkpt lat="39.7661200" lon="-5.0967020">
        <ele>409.8</ele>
        <time>2019-07-08T16:30:48Z</time>
      </trkpt>
      <trkpt lat="39.7661480" lon="-5.0967430">
        <ele>410.0</ele>
        <time>2019-07-08T16:30:49Z</time>
      </trkpt>
      <trkpt lat="39.7662050" lon="-5.0968220">
        <ele>410.8</ele>
        <time>2019-07-08T16:30:51Z</time>
      </trkpt>
      <trkpt lat="39.7662620" lon="-5.0969030">
        <ele>411.2</ele>
        <time>2019-07-08T16:30:53Z</time>
      </trkpt>
      <trkpt lat="39.7663490" lon="-5.0970250">
        <ele>412.2</ele>
        <time>2019-07-08T16:30:56Z</time>
      </trkpt>
      <trkpt lat="39.7664600" lon="-5.0971850">
        <ele>413.4</ele>
        <time>2019-07-08T16:31:00Z</time>
      </trkpt>
      <trkpt lat="39.7665630" lon="-5.0973270">
        <ele>414.4</ele>
        <time>2019-07-08T16:31:04Z</time>
      </trkpt>
      <trkpt lat="39.7665860" lon="-5.0973570">
        <ele>414.6</ele>
        <time>2019-07-08T16:31:05Z</time>
      </trkpt>
      <trkpt lat="39.7666310" lon="-5.0974170">
        <ele>415.0</ele>
        <time>2019-07-08T16:31:07Z</time>
      </trkpt>
      <trkpt lat="39.7667190" lon="-5.0975450">
        <ele>415.6</ele>
        <time>2019-07-08T16:31:11Z</time>
      </trkpt>
      <trkpt lat="39.7668310" lon="-5.0977010">
        <ele>416.6</ele>
        <time>2019-07-08T16:31:16Z</time>
      </trkpt>
      <trkpt lat="39.7668520" lon="-5.0977320">
        <ele>416.8</ele>
        <time>2019-07-08T16:31:17Z</time>
      </trkpt>
      <trkpt lat="39.7669640" lon="-5.0978790">
        <ele>418.0</ele>
        <time>2019-07-08T16:31:22Z</time>
      </trkpt>
      <trkpt lat="39.7670100" lon="-5.0979360">
        <ele>418.4</ele>
        <time>2019-07-08T16:31:24Z</time>
      </trkpt>
      <trkpt lat="39.7670770" lon="-5.0980260">
        <ele>419.0</ele>
        <time>2019-07-08T16:31:27Z</time>
      </trkpt>
      <trkpt lat="39.7671670" lon="-5.0981400">
        <ele>419.6</ele>
        <time>2019-07-08T16:31:31Z</time>
      </trkpt>
      <trkpt lat="39.7672940" lon="-5.0982790">
        <ele>420.4</ele>
        <time>2019-07-08T16:31:36Z</time>
      </trkpt>
      <trkpt lat="39.7673770" lon="-5.0983650">
        <ele>420.8</ele>
        <time>2019-07-08T16:31:39Z</time>
      </trkpt>
      <trkpt lat="39.7674970" lon="-5.0984700">
        <ele>421.4</ele>
        <time>2019-07-08T16:31:43Z</time>
      </trkpt>
      <trkpt lat="39.7676640" lon="-5.0985750">
        <ele>422.6</ele>
        <time>2019-07-08T16:31:48Z</time>
      </trkpt>
      <trkpt lat="39.7680120" lon="-5.0987320">
        <ele>423.4</ele>
        <time>2019-07-08T16:31:57Z</time>
      </trkpt>
      <trkpt lat="39.7680550" lon="-5.0987440">
        <ele>423.6</ele>
        <time>2019-07-08T16:31:58Z</time>
      </trkpt>
      <trkpt lat="39.7682760" lon="-5.0988030">
        <ele>424.4</ele>
        <time>2019-07-08T16:32:03Z</time>
      </trkpt>
      <trkpt lat="39.7683230" lon="-5.0988080">
        <ele>424.4</ele>
        <time>2019-07-08T16:32:04Z</time>
      </trkpt>
      <trkpt lat="39.7684180" lon="-5.0988100">
        <ele>424.8</ele>
        <time>2019-07-08T16:32:06Z</time>
      </trkpt>
      <trkpt lat="39.7686060" lon="-5.0987910">
        <ele>425.2</ele>
        <time>2019-07-08T16:32:10Z</time>
      </trkpt>
      <trkpt lat="39.7689990" lon="-5.0986660">
        <ele>425.4</ele>
        <time>2019-07-08T16:32:18Z</time>
      </trkpt>
      <trkpt lat="39.7692310" lon="-5.0985510">
        <ele>425.8</ele>
        <time>2019-07-08T16:32:23Z</time>
      </trkpt>
      <trkpt lat="39.7692740" lon="-5.0985220">
        <ele>425.8</ele>
        <time>2019-07-08T16:32:24Z</time>
      </trkpt>
      <trkpt lat="39.7693570" lon="-5.0984550">
        <ele>426.0</ele>
        <time>2019-07-08T16:32:26Z</time>
      </trkpt>
      <trkpt lat="39.7694840" lon="-5.0983490">
        <ele>426.2</ele>
        <time>2019-07-08T16:32:29Z</time>
      </trkpt>
      <trkpt lat="39.7695740" lon="-5.0982790">
        <ele>426.4</ele>
        <time>2019-07-08T16:32:31Z</time>
      </trkpt>
      <trkpt lat="39.7696540" lon="-5.0982010">
        <ele>426.4</ele>
        <time>2019-07-08T16:32:33Z</time>
      </trkpt>
      <trkpt lat="39.7697300" lon="-5.0981220">
        <ele>426.6</ele>
        <time>2019-07-08T16:32:35Z</time>
      </trkpt>
      <trkpt lat="39.7698110" lon="-5.0980490">
        <ele>426.6</ele>
        <time>2019-07-08T16:32:37Z</time>
      </trkpt>
      <trkpt lat="39.7699800" lon="-5.0978950">
        <ele>426.8</ele>
        <time>2019-07-08T16:32:41Z</time>
      </trkpt>
      <trkpt lat="39.7700660" lon="-5.0978180">
        <ele>426.6</ele>
        <time>2019-07-08T16:32:43Z</time>
      </trkpt>
      <trkpt lat="39.7701510" lon="-5.0977390">
        <ele>426.4</ele>
        <time>2019-07-08T16:32:45Z</time>
      </trkpt>
      <trkpt lat="39.7702400" lon="-5.0976630">
        <ele>426.2</ele>
        <time>2019-07-08T16:32:47Z</time>
      </trkpt>
      <trkpt lat="39.7702850" lon="-5.0976260">
        <ele>426.0</ele>
        <time>2019-07-08T16:32:48Z</time>
      </trkpt>
      <trkpt lat="39.7705180" lon="-5.0974060">
        <ele>425.8</ele>
        <time>2019-07-08T16:32:53Z</time>
      </trkpt>
      <trkpt lat="39.7705700" lon="-5.0973670">
        <ele>425.6</ele>
        <time>2019-07-08T16:32:54Z</time>
      </trkpt>
      <trkpt lat="39.7707790" lon="-5.0972050">
        <ele>425.0</ele>
        <time>2019-07-08T16:32:58Z</time>
      </trkpt>
      <trkpt lat="39.7710090" lon="-5.0970520">
        <ele>424.2</ele>
        <time>2019-07-08T16:33:02Z</time>
      </trkpt>
      <trkpt lat="39.7710700" lon="-5.0970190">
        <ele>424.0</ele>
        <time>2019-07-08T16:33:03Z</time>
      </trkpt>
      <trkpt lat="39.7711340" lon="-5.0969860">
        <ele>424.0</ele>
        <time>2019-07-08T16:33:04Z</time>
      </trkpt>
      <trkpt lat="39.7712660" lon="-5.0969240">
        <ele>423.6</ele>
        <time>2019-07-08T16:33:06Z</time>
      </trkpt>
      <trkpt lat="39.7714750" lon="-5.0968410">
        <ele>422.8</ele>
        <time>2019-07-08T16:33:09Z</time>
      </trkpt>
      <trkpt lat="39.7715480" lon="-5.0968160">
        <ele>422.6</ele>
        <time>2019-07-08T16:33:10Z</time>
      </trkpt>
      <trkpt lat="39.7717730" lon="-5.0967400">
        <ele>421.6</ele>
        <time>2019-07-08T16:33:13Z</time>
      </trkpt>
      <trkpt lat="39.7719290" lon="-5.0966950">
        <ele>421.0</ele>
        <time>2019-07-08T16:33:15Z</time>
      </trkpt>
      <trkpt lat="39.7720920" lon="-5.0966650">
        <ele>420.4</ele>
        <time>2019-07-08T16:33:17Z</time>
      </trkpt>
      <trkpt lat="39.7724230" lon="-5.0966270">
        <ele>419.4</ele>
        <time>2019-07-08T16:33:21Z</time>
      </trkpt>
      <trkpt lat="39.7727500" lon="-5.0966160">
        <ele>418.4</ele>
        <time>2019-07-08T16:33:25Z</time>
      </trkpt>
      <trkpt lat="39.7728320" lon="-5.0966200">
        <ele>418.4</ele>
        <time>2019-07-08T16:33:26Z</time>
      </trkpt>
      <trkpt lat="39.7732340" lon="-5.0966590">
        <ele>417.4</ele>
        <time>2019-07-08T16:33:31Z</time>
      </trkpt>
      <trkpt lat="39.7735400" lon="-5.0967310">
        <ele>417.0</ele>
        <time>2019-07-08T16:33:35Z</time>
      </trkpt>
      <trkpt lat="39.7739590" lon="-5.0968790">
        <ele>416.4</ele>
        <time>2019-07-08T16:33:41Z</time>
      </trkpt>
      <trkpt lat="39.7740220" lon="-5.0969090">
        <ele>416.2</ele>
        <time>2019-07-08T16:33:42Z</time>
      </trkpt>
      <trkpt lat="39.7743830" lon="-5.0971120">
        <ele>416.2</ele>
        <time>2019-07-08T16:33:48Z</time>
      </trkpt>
      <trkpt lat="39.7745530" lon="-5.0972210">
        <ele>416.6</ele>
        <time>2019-07-08T16:33:51Z</time>
      </trkpt>
      <trkpt lat="39.7749150" lon="-5.0975110">
        <ele>416.6</ele>
        <time>2019-07-08T16:33:58Z</time>
      </trkpt>
      <trkpt lat="39.7752380" lon="-5.0978190">
        <ele>415.8</ele>
        <time>2019-07-08T16:34:05Z</time>
      </trkpt>
      <trkpt lat="39.7753150" lon="-5.0979080">
        <ele>415.6</ele>
        <time>2019-07-08T16:34:07Z</time>
      </trkpt>
      <trkpt lat="39.7753520" lon="-5.0979530">
        <ele>415.6</ele>
        <time>2019-07-08T16:34:08Z</time>
      </trkpt>
      <trkpt lat="39.7754140" lon="-5.0980110">
        <ele>415.2</ele>
        <time>2019-07-08T16:34:10Z</time>
      </trkpt>
      <trkpt lat="39.7754230" lon="-5.0980230">
        <ele>415.2</ele>
        <time>2019-07-08T16:34:11Z</time>
      </trkpt>
      <trkpt lat="39.7754230" lon="-5.0980260">
        <ele>415.0</ele>
        <time>2019-07-08T16:34:13Z</time>
      </trkpt>
      <trkpt lat="39.7754400" lon="-5.0980500">
        <ele>414.8</ele>
        <time>2019-07-08T16:35:59Z</time>
      </trkpt>
      <trkpt lat="39.7754540" lon="-5.0980680">
        <ele>414.8</ele>
        <time>2019-07-08T16:36:00Z</time>
      </trkpt>
      <trkpt lat="39.7755510" lon="-5.0982130">
        <ele>414.6</ele>
        <time>2019-07-08T16:36:05Z</time>
      </trkpt>
      <trkpt lat="39.7756380" lon="-5.0983300">
        <ele>414.6</ele>
        <time>2019-07-08T16:36:08Z</time>
      </trkpt>
      <trkpt lat="39.7757340" lon="-5.0984700">
        <ele>414.2</ele>
        <time>2019-07-08T16:36:11Z</time>
      </trkpt>
      <trkpt lat="39.7759120" lon="-5.0987650">
        <ele>413.4</ele>
        <time>2019-07-08T16:36:16Z</time>
      </trkpt>
      <trkpt lat="39.7759500" lon="-5.0988320">
        <ele>413.2</ele>
        <time>2019-07-08T16:36:17Z</time>
      </trkpt>
      <trkpt lat="39.7760610" lon="-5.0990480">
        <ele>412.4</ele>
        <time>2019-07-08T16:36:20Z</time>
      </trkpt>
      <trkpt lat="39.7761690" lon="-5.0992800">
        <ele>411.2</ele>
        <time>2019-07-08T16:36:23Z</time>
      </trkpt>
      <trkpt lat="39.7762370" lon="-5.0994450">
        <ele>410.4</ele>
        <time>2019-07-08T16:36:25Z</time>
      </trkpt>
      <trkpt lat="39.7763030" lon="-5.0996190">
        <ele>409.8</ele>
        <time>2019-07-08T16:36:27Z</time>
      </trkpt>
      <trkpt lat="39.7763970" lon="-5.0998970">
        <ele>408.6</ele>
        <time>2019-07-08T16:36:30Z</time>
      </trkpt>
      <trkpt lat="39.7764640" lon="-5.1000920">
        <ele>407.6</ele>
        <time>2019-07-08T16:36:32Z</time>
      </trkpt>
      <trkpt lat="39.7764990" lon="-5.1001930">
        <ele>407.0</ele>
        <time>2019-07-08T16:36:33Z</time>
      </trkpt>
      <trkpt lat="39.7765740" lon="-5.1004040">
        <ele>405.6</ele>
        <time>2019-07-08T16:36:35Z</time>
      </trkpt>
      <trkpt lat="39.7766490" lon="-5.1006230">
        <ele>404.4</ele>
        <time>2019-07-08T16:36:37Z</time>
      </trkpt>
      <trkpt lat="39.7767250" lon="-5.1008530">
        <ele>403.2</ele>
        <time>2019-07-08T16:36:39Z</time>
      </trkpt>
      <trkpt lat="39.7768020" lon="-5.1010900">
        <ele>401.8</ele>
        <time>2019-07-08T16:36:41Z</time>
      </trkpt>
      <trkpt lat="39.7768850" lon="-5.1013300">
        <ele>400.4</ele>
        <time>2019-07-08T16:36:43Z</time>
      </trkpt>
      <trkpt lat="39.7769670" lon="-5.1015740">
        <ele>399.2</ele>
        <time>2019-07-08T16:36:45Z</time>
      </trkpt>
      <trkpt lat="39.7770460" lon="-5.1018170">
        <ele>398.0</ele>
        <time>2019-07-08T16:36:47Z</time>
      </trkpt>
      <trkpt lat="39.7771310" lon="-5.1020530">
        <ele>397.2</ele>
        <time>2019-07-08T16:36:49Z</time>
      </trkpt>
      <trkpt lat="39.7771710" lon="-5.1021720">
        <ele>396.4</ele>
        <time>2019-07-08T16:36:50Z</time>
      </trkpt>
      <trkpt lat="39.7772870" lon="-5.1025230">
        <ele>395.0</ele>
        <time>2019-07-08T16:36:53Z</time>
      </trkpt>
      <trkpt lat="39.7773660" lon="-5.1027510">
        <ele>394.2</ele>
        <time>2019-07-08T16:36:55Z</time>
      </trkpt>
      <trkpt lat="39.7774040" lon="-5.1028630">
        <ele>393.8</ele>
        <time>2019-07-08T16:36:56Z</time>
      </trkpt>
      <trkpt lat="39.7775130" lon="-5.1031970">
        <ele>392.8</ele>
        <time>2019-07-08T16:36:59Z</time>
      </trkpt>
      <trkpt lat="39.7775900" lon="-5.1034140">
        <ele>392.2</ele>
        <time>2019-07-08T16:37:01Z</time>
      </trkpt>
      <trkpt lat="39.7776270" lon="-5.1035200">
        <ele>391.8</ele>
        <time>2019-07-08T16:37:02Z</time>
      </trkpt>
      <trkpt lat="39.7776630" lon="-5.1036240">
        <ele>391.6</ele>
        <time>2019-07-08T16:37:03Z</time>
      </trkpt>
      <trkpt lat="39.7778970" lon="-5.1043070">
        <ele>390.4</ele>
        <time>2019-07-08T16:37:10Z</time>
      </trkpt>
      <trkpt lat="39.7779870" lon="-5.1045760">
        <ele>389.8</ele>
        <time>2019-07-08T16:37:13Z</time>
      </trkpt>
      <trkpt lat="39.7780480" lon="-5.1047540">
        <ele>389.4</ele>
        <time>2019-07-08T16:37:15Z</time>
      </trkpt>
      <trkpt lat="39.7782250" lon="-5.1052690">
        <ele>388.4</ele>
        <time>2019-07-08T16:37:21Z</time>
      </trkpt>
      <trkpt lat="39.7783570" lon="-5.1056840">
        <ele>388.0</ele>
        <time>2019-07-08T16:37:26Z</time>
      </trkpt>
      <trkpt lat="39.7784410" lon="-5.1059290">
        <ele>387.2</ele>
        <time>2019-07-08T16:37:29Z</time>
      </trkpt>
      <trkpt lat="39.7785260" lon="-5.1061790">
        <ele>386.8</ele>
        <time>2019-07-08T16:37:32Z</time>
      </trkpt>
      <trkpt lat="39.7786190" lon="-5.1064350">
        <ele>386.2</ele>
        <time>2019-07-08T16:37:35Z</time>
      </trkpt>
      <trkpt lat="39.7787670" lon="-5.1068730">
        <ele>385.6</ele>
        <time>2019-07-08T16:37:40Z</time>
      </trkpt>
      <trkpt lat="39.7788260" lon="-5.1070490">
        <ele>385.0</ele>
        <time>2019-07-08T16:37:42Z</time>
      </trkpt>
      <trkpt lat="39.7789680" lon="-5.1074820">
        <ele>384.2</ele>
        <time>2019-07-08T16:37:47Z</time>
      </trkpt>
      <trkpt lat="39.7790560" lon="-5.1077380">
        <ele>383.6</ele>
        <time>2019-07-08T16:37:50Z</time>
      </trkpt>
      <trkpt lat="39.7791160" lon="-5.1079070">
        <ele>383.0</ele>
        <time>2019-07-08T16:37:52Z</time>
      </trkpt>
      <trkpt lat="39.7792960" lon="-5.1084340">
        <ele>382.8</ele>
        <time>2019-07-08T16:37:58Z</time>
      </trkpt>
      <trkpt lat="39.7794200" lon="-5.1087970">
        <ele>382.0</ele>
        <time>2019-07-08T16:38:02Z</time>
      </trkpt>
      <trkpt lat="39.7795780" lon="-5.1092520">
        <ele>381.4</ele>
        <time>2019-07-08T16:38:07Z</time>
      </trkpt>
      <trkpt lat="39.7796090" lon="-5.1093410">
        <ele>381.2</ele>
        <time>2019-07-08T16:38:08Z</time>
      </trkpt>
      <trkpt lat="39.7798400" lon="-5.1100110">
        <ele>381.4</ele>
        <time>2019-07-08T16:38:16Z</time>
      </trkpt>
      <trkpt lat="39.7798650" lon="-5.1100890">
        <ele>381.4</ele>
        <time>2019-07-08T16:38:17Z</time>
      </trkpt>
      <trkpt lat="39.7800670" lon="-5.1106840">
        <ele>381.4</ele>
        <time>2019-07-08T16:38:25Z</time>
      </trkpt>
      <trkpt lat="39.7802620" lon="-5.1112570">
        <ele>381.8</ele>
        <time>2019-07-08T16:38:33Z</time>
      </trkpt>
      <trkpt lat="39.7804790" lon="-5.1119000">
        <ele>382.0</ele>
        <time>2019-07-08T16:38:42Z</time>
      </trkpt>
      <trkpt lat="39.7806750" lon="-5.1124870">
        <ele>381.6</ele>
        <time>2019-07-08T16:38:50Z</time>
      </trkpt>
      <trkpt lat="39.7809020" lon="-5.1131520">
        <ele>381.8</ele>
        <time>2019-07-08T16:38:59Z</time>
      </trkpt>
      <trkpt lat="39.7810280" lon="-5.1135160">
        <ele>381.6</ele>
        <time>2019-07-08T16:39:04Z</time>
      </trkpt>
      <trkpt lat="39.7811510" lon="-5.1138810">
        <ele>381.4</ele>
        <time>2019-07-08T16:39:09Z</time>
      </trkpt>
      <trkpt lat="39.7812500" lon="-5.1141770">
        <ele>381.4</ele>
        <time>2019-07-08T16:39:13Z</time>
      </trkpt>
      <trkpt lat="39.7813510" lon="-5.1144720">
        <ele>381.0</ele>
        <time>2019-07-08T16:39:17Z</time>
      </trkpt>
      <trkpt lat="39.7815800" lon="-5.1151530">
        <ele>381.0</ele>
        <time>2019-07-08T16:39:26Z</time>
      </trkpt>
      <trkpt lat="39.7817350" lon="-5.1156060">
        <ele>380.6</ele>
        <time>2019-07-08T16:39:32Z</time>
      </trkpt>
      <trkpt lat="39.7817880" lon="-5.1157520">
        <ele>380.4</ele>
        <time>2019-07-08T16:39:34Z</time>
      </trkpt>
      <trkpt lat="39.7820150" lon="-5.1164100">
        <ele>380.4</ele>
        <time>2019-07-08T16:39:43Z</time>
      </trkpt>
      <trkpt lat="39.7820640" lon="-5.1165550">
        <ele>380.4</ele>
        <time>2019-07-08T16:39:45Z</time>
      </trkpt>
      <trkpt lat="39.7821120" lon="-5.1167000">
        <ele>380.2</ele>
        <time>2019-07-08T16:39:47Z</time>
      </trkpt>
      <trkpt lat="39.7823270" lon="-5.1173300">
        <ele>380.2</ele>
        <time>2019-07-08T16:39:56Z</time>
      </trkpt>
      <trkpt lat="39.7823960" lon="-5.1175260">
        <ele>380.2</ele>
        <time>2019-07-08T16:39:59Z</time>
      </trkpt>
      <trkpt lat="39.7825020" lon="-5.1178320">
        <ele>381.0</ele>
        <time>2019-07-08T16:40:04Z</time>
      </trkpt>
      <trkpt lat="39.7825390" lon="-5.1179470">
        <ele>381.4</ele>
        <time>2019-07-08T16:40:06Z</time>
      </trkpt>
      <trkpt lat="39.7826310" lon="-5.1182100">
        <ele>382.2</ele>
        <time>2019-07-08T16:40:11Z</time>
      </trkpt>
      <trkpt lat="39.7826490" lon="-5.1182590">
        <ele>382.4</ele>
        <time>2019-07-08T16:40:12Z</time>
      </trkpt>
      <trkpt lat="39.7826660" lon="-5.1183070">
        <ele>382.8</ele>
        <time>2019-07-08T16:40:13Z</time>
      </trkpt>
      <trkpt lat="39.7827250" lon="-5.1184770">
        <ele>383.6</ele>
        <time>2019-07-08T16:40:17Z</time>
      </trkpt>
      <trkpt lat="39.7827530" lon="-5.1185580">
        <ele>383.8</ele>
        <time>2019-07-08T16:40:19Z</time>
      </trkpt>
      <trkpt lat="39.7828060" lon="-5.1187150">
        <ele>384.4</ele>
        <time>2019-07-08T16:40:23Z</time>
      </trkpt>
      <trkpt lat="39.7828180" lon="-5.1187550">
        <ele>384.6</ele>
        <time>2019-07-08T16:40:24Z</time>
      </trkpt>
      <trkpt lat="39.7828590" lon="-5.1188710">
        <ele>385.2</ele>
        <time>2019-07-08T16:40:27Z</time>
      </trkpt>
      <trkpt lat="39.7828860" lon="-5.1189480">
        <ele>385.6</ele>
        <time>2019-07-08T16:40:29Z</time>
      </trkpt>
      <trkpt lat="39.7829380" lon="-5.1191050">
        <ele>386.8</ele>
        <time>2019-07-08T16:40:33Z</time>
      </trkpt>
      <trkpt lat="39.7829670" lon="-5.1191840">
        <ele>387.2</ele>
        <time>2019-07-08T16:40:35Z</time>
      </trkpt>
      <trkpt lat="39.7830110" lon="-5.1193040">
        <ele>388.0</ele>
        <time>2019-07-08T16:40:38Z</time>
      </trkpt>
      <trkpt lat="39.7830900" lon="-5.1195450">
        <ele>389.0</ele>
        <time>2019-07-08T16:40:44Z</time>
      </trkpt>
      <trkpt lat="39.7831050" lon="-5.1195870">
        <ele>389.0</ele>
        <time>2019-07-08T16:40:45Z</time>
      </trkpt>
      <trkpt lat="39.7832290" lon="-5.1199440">
        <ele>390.0</ele>
        <time>2019-07-08T16:40:53Z</time>
      </trkpt>
      <trkpt lat="39.7832440" lon="-5.1199910">
        <ele>390.2</ele>
        <time>2019-07-08T16:40:54Z</time>
      </trkpt>
      <trkpt lat="39.7833950" lon="-5.1204400">
        <ele>390.8</ele>
        <time>2019-07-08T16:41:03Z</time>
      </trkpt>
      <trkpt lat="39.7834860" lon="-5.1207120">
        <ele>391.2</ele>
        <time>2019-07-08T16:41:08Z</time>
      </trkpt>
      <trkpt lat="39.7835360" lon="-5.1208740">
        <ele>391.4</ele>
        <time>2019-07-08T16:41:11Z</time>
      </trkpt>
      <trkpt lat="39.7835670" lon="-5.1209850">
        <ele>391.4</ele>
        <time>2019-07-08T16:41:13Z</time>
      </trkpt>
      <trkpt lat="39.7836130" lon="-5.1211530">
        <ele>391.4</ele>
        <time>2019-07-08T16:41:16Z</time>
      </trkpt>
      <trkpt lat="39.7836730" lon="-5.1213800">
        <ele>391.4</ele>
        <time>2019-07-08T16:41:20Z</time>
      </trkpt>
      <trkpt lat="39.7836990" lon="-5.1214980">
        <ele>391.4</ele>
        <time>2019-07-08T16:41:22Z</time>
      </trkpt>
      <trkpt lat="39.7837660" lon="-5.1218640">
        <ele>391.4</ele>
        <time>2019-07-08T16:41:28Z</time>
      </trkpt>
      <trkpt lat="39.7838140" lon="-5.1221790">
        <ele>391.4</ele>
        <time>2019-07-08T16:41:33Z</time>
      </trkpt>
      <trkpt lat="39.7838710" lon="-5.1227350">
        <ele>391.0</ele>
        <time>2019-07-08T16:41:41Z</time>
      </trkpt>
      <trkpt lat="39.7839010" lon="-5.1230480">
        <ele>391.0</ele>
        <time>2019-07-08T16:41:45Z</time>
      </trkpt>
      <trkpt lat="39.7839300" lon="-5.1232840">
        <ele>391.0</ele>
        <time>2019-07-08T16:41:48Z</time>
      </trkpt>
      <trkpt lat="39.7839380" lon="-5.1233640">
        <ele>391.0</ele>
        <time>2019-07-08T16:41:49Z</time>
      </trkpt>
      <trkpt lat="39.7840100" lon="-5.1241220">
        <ele>389.6</ele>
        <time>2019-07-08T16:41:58Z</time>
      </trkpt>
      <trkpt lat="39.7840410" lon="-5.1243810">
        <ele>389.4</ele>
        <time>2019-07-08T16:42:01Z</time>
      </trkpt>
      <trkpt lat="39.7840890" lon="-5.1248120">
        <ele>389.2</ele>
        <time>2019-07-08T16:42:06Z</time>
      </trkpt>
      <trkpt lat="39.7841740" lon="-5.1255530">
        <ele>388.6</ele>
        <time>2019-07-08T16:42:15Z</time>
      </trkpt>
      <trkpt lat="39.7841830" lon="-5.1256350">
        <ele>388.6</ele>
        <time>2019-07-08T16:42:16Z</time>
      </trkpt>
      <trkpt lat="39.7842100" lon="-5.1258750">
        <ele>388.6</ele>
        <time>2019-07-08T16:42:19Z</time>
      </trkpt>
      <trkpt lat="39.7842550" lon="-5.1263410">
        <ele>389.0</ele>
        <time>2019-07-08T16:42:25Z</time>
      </trkpt>
      <trkpt lat="39.7843140" lon="-5.1269380">
        <ele>388.8</ele>
        <time>2019-07-08T16:42:33Z</time>
      </trkpt>
      <trkpt lat="39.7843310" lon="-5.1270860">
        <ele>388.6</ele>
        <time>2019-07-08T16:42:35Z</time>
      </trkpt>
      <trkpt lat="39.7843690" lon="-5.1275430">
        <ele>387.6</ele>
        <time>2019-07-08T16:42:41Z</time>
      </trkpt>
      <trkpt lat="39.7843800" lon="-5.1276960">
        <ele>387.6</ele>
        <time>2019-07-08T16:42:43Z</time>
      </trkpt>
      <trkpt lat="39.7844210" lon="-5.1281530">
        <ele>387.8</ele>
        <time>2019-07-08T16:42:49Z</time>
      </trkpt>
      <trkpt lat="39.7844800" lon="-5.1287530">
        <ele>387.2</ele>
        <time>2019-07-08T16:42:57Z</time>
      </trkpt>
      <trkpt lat="39.7845560" lon="-5.1294340">
        <ele>386.4</ele>
        <time>2019-07-08T16:43:06Z</time>
      </trkpt>
      <trkpt lat="39.7846070" lon="-5.1298650">
        <ele>386.4</ele>
        <time>2019-07-08T16:43:12Z</time>
      </trkpt>
      <trkpt lat="39.7846950" lon="-5.1305020">
        <ele>386.8</ele>
        <time>2019-07-08T16:43:21Z</time>
      </trkpt>
      <trkpt lat="39.7847870" lon="-5.1311120">
        <ele>386.0</ele>
        <time>2019-07-08T16:43:29Z</time>
      </trkpt>
      <trkpt lat="39.7848700" lon="-5.1316060">
        <ele>385.4</ele>
        <time>2019-07-08T16:43:35Z</time>
      </trkpt>
      <trkpt lat="39.7849320" lon="-5.1319430">
        <ele>384.8</ele>
        <time>2019-07-08T16:43:39Z</time>
      </trkpt>
      <trkpt lat="39.7849580" lon="-5.1321110">
        <ele>384.4</ele>
        <time>2019-07-08T16:43:41Z</time>
      </trkpt>
      <trkpt lat="39.7850370" lon="-5.1326200">
        <ele>383.6</ele>
        <time>2019-07-08T16:43:47Z</time>
      </trkpt>
      <trkpt lat="39.7850980" lon="-5.1330160">
        <ele>383.2</ele>
        <time>2019-07-08T16:43:52Z</time>
      </trkpt>
      <trkpt lat="39.7851380" lon="-5.1333270">
        <ele>382.2</ele>
        <time>2019-07-08T16:43:56Z</time>
      </trkpt>
      <trkpt lat="39.7852280" lon="-5.1338850">
        <ele>381.4</ele>
        <time>2019-07-08T16:44:03Z</time>
      </trkpt>
      <trkpt lat="39.7852530" lon="-5.1340480">
        <ele>381.2</ele>
        <time>2019-07-08T16:44:05Z</time>
      </trkpt>
      <trkpt lat="39.7853170" lon="-5.1344550">
        <ele>380.6</ele>
        <time>2019-07-08T16:44:10Z</time>
      </trkpt>
      <trkpt lat="39.7853890" lon="-5.1349550">
        <ele>380.4</ele>
        <time>2019-07-08T16:44:16Z</time>
      </trkpt>
      <trkpt lat="39.7854450" lon="-5.1353020">
        <ele>379.4</ele>
        <time>2019-07-08T16:44:20Z</time>
      </trkpt>
      <trkpt lat="39.7855390" lon="-5.1359270">
        <ele>378.8</ele>
        <time>2019-07-08T16:44:27Z</time>
      </trkpt>
      <trkpt lat="39.7855770" lon="-5.1362010">
        <ele>378.4</ele>
        <time>2019-07-08T16:44:30Z</time>
      </trkpt>
      <trkpt lat="39.7855950" lon="-5.1362900">
        <ele>378.2</ele>
        <time>2019-07-08T16:44:31Z</time>
      </trkpt>
      <trkpt lat="39.7856810" lon="-5.1368380">
        <ele>377.4</ele>
        <time>2019-07-08T16:44:37Z</time>
      </trkpt>
      <trkpt lat="39.7857880" lon="-5.1375550">
        <ele>377.0</ele>
        <time>2019-07-08T16:44:45Z</time>
      </trkpt>
      <trkpt lat="39.7858010" lon="-5.1376410">
        <ele>376.8</ele>
        <time>2019-07-08T16:44:46Z</time>
      </trkpt>
      <trkpt lat="39.7858550" lon="-5.1379840">
        <ele>375.8</ele>
        <time>2019-07-08T16:44:50Z</time>
      </trkpt>
      <trkpt lat="39.7859450" lon="-5.1385760">
        <ele>375.4</ele>
        <time>2019-07-08T16:44:57Z</time>
      </trkpt>
      <trkpt lat="39.7860320" lon="-5.1391370">
        <ele>375.0</ele>
        <time>2019-07-08T16:45:04Z</time>
      </trkpt>
      <trkpt lat="39.7860440" lon="-5.1392090">
        <ele>374.6</ele>
        <time>2019-07-08T16:45:05Z</time>
      </trkpt>
      <trkpt lat="39.7860900" lon="-5.1394790">
        <ele>374.4</ele>
        <time>2019-07-08T16:45:09Z</time>
      </trkpt>
      <trkpt lat="39.7861100" lon="-5.1396140">
        <ele>374.6</ele>
        <time>2019-07-08T16:45:11Z</time>
      </trkpt>
      <trkpt lat="39.7861360" lon="-5.1398160">
        <ele>374.8</ele>
        <time>2019-07-08T16:45:14Z</time>
      </trkpt>
      <trkpt lat="39.7861690" lon="-5.1400160">
        <ele>374.6</ele>
        <time>2019-07-08T16:45:17Z</time>
      </trkpt>
      <trkpt lat="39.7862090" lon="-5.1402840">
        <ele>374.4</ele>
        <time>2019-07-08T16:45:21Z</time>
      </trkpt>
      <trkpt lat="39.7862520" lon="-5.1405650">
        <ele>374.4</ele>
        <time>2019-07-08T16:45:25Z</time>
      </trkpt>
      <trkpt lat="39.7862820" lon="-5.1407920">
        <ele>374.4</ele>
        <time>2019-07-08T16:45:28Z</time>
      </trkpt>
      <trkpt lat="39.7863090" lon="-5.1409460">
        <ele>374.6</ele>
        <time>2019-07-08T16:45:30Z</time>
      </trkpt>
      <trkpt lat="39.7863550" lon="-5.1412520">
        <ele>376.0</ele>
        <time>2019-07-08T16:45:34Z</time>
      </trkpt>
      <trkpt lat="39.7863990" lon="-5.1415350">
        <ele>375.8</ele>
        <time>2019-07-08T16:45:38Z</time>
      </trkpt>
      <trkpt lat="39.7864090" lon="-5.1416050">
        <ele>374.8</ele>
        <time>2019-07-08T16:45:39Z</time>
      </trkpt>
      <trkpt lat="39.7864280" lon="-5.1417450">
        <ele>373.8</ele>
        <time>2019-07-08T16:45:41Z</time>
      </trkpt>
      <trkpt lat="39.7864940" lon="-5.1421820">
        <ele>373.2</ele>
        <time>2019-07-08T16:45:47Z</time>
      </trkpt>
      <trkpt lat="39.7865880" lon="-5.1428260">
        <ele>373.6</ele>
        <time>2019-07-08T16:45:56Z</time>
      </trkpt>
      <trkpt lat="39.7866280" lon="-5.1430960">
        <ele>373.0</ele>
        <time>2019-07-08T16:46:00Z</time>
      </trkpt>
      <trkpt lat="39.7866510" lon="-5.1432350">
        <ele>372.8</ele>
        <time>2019-07-08T16:46:02Z</time>
      </trkpt>
      <trkpt lat="39.7867340" lon="-5.1438070">
        <ele>373.8</ele>
        <time>2019-07-08T16:46:10Z</time>
      </trkpt>
      <trkpt lat="39.7867460" lon="-5.1438790">
        <ele>374.0</ele>
        <time>2019-07-08T16:46:11Z</time>
      </trkpt>
      <trkpt lat="39.7868330" lon="-5.1444390">
        <ele>374.0</ele>
        <time>2019-07-08T16:46:19Z</time>
      </trkpt>
      <trkpt lat="39.7869160" lon="-5.1449670">
        <ele>373.0</ele>
        <time>2019-07-08T16:46:27Z</time>
      </trkpt>
      <trkpt lat="39.7870120" lon="-5.1456440">
        <ele>373.4</ele>
        <time>2019-07-08T16:46:38Z</time>
      </trkpt>
      <trkpt lat="39.7870720" lon="-5.1460660">
        <ele>374.4</ele>
        <time>2019-07-08T16:46:45Z</time>
      </trkpt>
      <trkpt lat="39.7871110" lon="-5.1463110">
        <ele>375.0</ele>
        <time>2019-07-08T16:46:49Z</time>
      </trkpt>
      <trkpt lat="39.7871560" lon="-5.1466150">
        <ele>375.2</ele>
        <time>2019-07-08T16:46:54Z</time>
      </trkpt>
      <trkpt lat="39.7872620" lon="-5.1473370">
        <ele>375.0</ele>
        <time>2019-07-08T16:47:06Z</time>
      </trkpt>
      <trkpt lat="39.7873080" lon="-5.1476420">
        <ele>374.0</ele>
        <time>2019-07-08T16:47:11Z</time>
      </trkpt>
      <trkpt lat="39.7873460" lon="-5.1478910">
        <ele>374.0</ele>
        <time>2019-07-08T16:47:15Z</time>
      </trkpt>
      <trkpt lat="39.7874420" lon="-5.1484930">
        <ele>374.6</ele>
        <time>2019-07-08T16:47:25Z</time>
      </trkpt>
      <trkpt lat="39.7875100" lon="-5.1489570">
        <ele>374.8</ele>
        <time>2019-07-08T16:47:33Z</time>
      </trkpt>
      <trkpt lat="39.7875460" lon="-5.1491940">
        <ele>375.0</ele>
        <time>2019-07-08T16:47:37Z</time>
      </trkpt>
      <trkpt lat="39.7875790" lon="-5.1494260">
        <ele>375.2</ele>
        <time>2019-07-08T16:47:41Z</time>
      </trkpt>
      <trkpt lat="39.7876440" lon="-5.1498360">
        <ele>375.4</ele>
        <time>2019-07-08T16:47:49Z</time>
      </trkpt>
      <trkpt lat="39.7877070" lon="-5.1502830">
        <ele>376.2</ele>
        <time>2019-07-08T16:47:58Z</time>
      </trkpt>
      <trkpt lat="39.7877650" lon="-5.1506730">
        <ele>376.4</ele>
        <time>2019-07-08T16:48:06Z</time>
      </trkpt>
      <trkpt lat="39.7878270" lon="-5.1510670">
        <ele>376.6</ele>
        <time>2019-07-08T16:48:14Z</time>
      </trkpt>
      <trkpt lat="39.7879010" lon="-5.1516350">
        <ele>377.2</ele>
        <time>2019-07-08T16:48:25Z</time>
      </trkpt>
      <trkpt lat="39.7879190" lon="-5.1517490">
        <ele>377.4</ele>
        <time>2019-07-08T16:48:27Z</time>
      </trkpt>
      <trkpt lat="39.7879720" lon="-5.1520980">
        <ele>378.0</ele>
        <time>2019-07-08T16:48:33Z</time>
      </trkpt>
      <trkpt lat="39.7880300" lon="-5.1525000">
        <ele>378.4</ele>
        <time>2019-07-08T16:48:40Z</time>
      </trkpt>
      <trkpt lat="39.7880540" lon="-5.1526750">
        <ele>378.4</ele>
        <time>2019-07-08T16:48:43Z</time>
      </trkpt>
      <trkpt lat="39.7880620" lon="-5.1527340">
        <ele>378.4</ele>
        <time>2019-07-08T16:48:44Z</time>
      </trkpt>
      <trkpt lat="39.7881150" lon="-5.1531480">
        <ele>378.4</ele>
        <time>2019-07-08T16:48:51Z</time>
      </trkpt>
      <trkpt lat="39.7881420" lon="-5.1533870">
        <ele>378.4</ele>
        <time>2019-07-08T16:48:55Z</time>
      </trkpt>
      <trkpt lat="39.7881630" lon="-5.1535710">
        <ele>378.6</ele>
        <time>2019-07-08T16:48:58Z</time>
      </trkpt>
      <trkpt lat="39.7881830" lon="-5.1537500">
        <ele>378.8</ele>
        <time>2019-07-08T16:49:01Z</time>
      </trkpt>
      <trkpt lat="39.7882180" lon="-5.1541000">
        <ele>378.6</ele>
        <time>2019-07-08T16:49:07Z</time>
      </trkpt>
      <trkpt lat="39.7882280" lon="-5.1542790">
        <ele>378.8</ele>
        <time>2019-07-08T16:49:10Z</time>
      </trkpt>
      <trkpt lat="39.7882860" lon="-5.1549080">
        <ele>379.0</ele>
        <time>2019-07-08T16:49:21Z</time>
      </trkpt>
      <trkpt lat="39.7883450" lon="-5.1552720">
        <ele>378.8</ele>
        <time>2019-07-08T16:49:28Z</time>
      </trkpt>
      <trkpt lat="39.7883870" lon="-5.1554210">
        <ele>379.0</ele>
        <time>2019-07-08T16:49:31Z</time>
      </trkpt>
      <trkpt lat="39.7884590" lon="-5.1556020">
        <ele>379.6</ele>
        <time>2019-07-08T16:49:35Z</time>
      </trkpt>
      <trkpt lat="39.7884800" lon="-5.1556420">
        <ele>379.8</ele>
        <time>2019-07-08T16:49:36Z</time>
      </trkpt>
      <trkpt lat="39.7886180" lon="-5.1558350">
        <ele>379.6</ele>
        <time>2019-07-08T16:49:41Z</time>
      </trkpt>
      <trkpt lat="39.7889490" lon="-5.1562040">
        <ele>379.2</ele>
        <time>2019-07-08T16:49:51Z</time>
      </trkpt>
      <trkpt lat="39.7892140" lon="-5.1565150">
        <ele>379.2</ele>
        <time>2019-07-08T16:49:59Z</time>
      </trkpt>
      <trkpt lat="39.7894420" lon="-5.1567710">
        <ele>379.0</ele>
        <time>2019-07-08T16:50:06Z</time>
      </trkpt>
      <trkpt lat="39.7895700" lon="-5.1569060">
        <ele>379.4</ele>
        <time>2019-07-08T16:50:10Z</time>
      </trkpt>
      <trkpt lat="39.7898760" lon="-5.1572290">
        <ele>380.6</ele>
        <time>2019-07-08T16:50:19Z</time>
      </trkpt>
      <trkpt lat="39.7900100" lon="-5.1573680">
        <ele>381.0</ele>
        <time>2019-07-08T16:50:23Z</time>
      </trkpt>
      <trkpt lat="39.7901830" lon="-5.1575470">
        <ele>381.4</ele>
        <time>2019-07-08T16:50:28Z</time>
      </trkpt>
      <trkpt lat="39.7902880" lon="-5.1576540">
        <ele>382.0</ele>
        <time>2019-07-08T16:50:31Z</time>
      </trkpt>
      <trkpt lat="39.7905060" lon="-5.1578780">
        <ele>382.2</ele>
        <time>2019-07-08T16:50:37Z</time>
      </trkpt>
      <trkpt lat="39.7908060" lon="-5.1581800">
        <ele>381.6</ele>
        <time>2019-07-08T16:50:45Z</time>
      </trkpt>
      <trkpt lat="39.7909470" lon="-5.1583450">
        <ele>381.8</ele>
        <time>2019-07-08T16:50:49Z</time>
      </trkpt>
      <trkpt lat="39.7909840" lon="-5.1583830">
        <ele>381.8</ele>
        <time>2019-07-08T16:50:50Z</time>
      </trkpt>
      <trkpt lat="39.7913120" lon="-5.1587140">
        <ele>382.0</ele>
        <time>2019-07-08T16:50:58Z</time>
      </trkpt>
      <trkpt lat="39.7916850" lon="-5.1591090">
        <ele>381.4</ele>
        <time>2019-07-08T16:51:06Z</time>
      </trkpt>
      <trkpt lat="39.7917360" lon="-5.1591620">
        <ele>381.2</ele>
        <time>2019-07-08T16:51:07Z</time>
      </trkpt>
      <trkpt lat="39.7919980" lon="-5.1594320">
        <ele>380.4</ele>
        <time>2019-07-08T16:51:12Z</time>
      </trkpt>
      <trkpt lat="39.7922110" lon="-5.1596570">
        <ele>380.0</ele>
        <time>2019-07-08T16:51:16Z</time>
      </trkpt>
      <trkpt lat="39.7924790" lon="-5.1599360">
        <ele>379.6</ele>
        <time>2019-07-08T16:51:21Z</time>
      </trkpt>
      <trkpt lat="39.7926370" lon="-5.1601010">
        <ele>379.0</ele>
        <time>2019-07-08T16:51:24Z</time>
      </trkpt>
      <trkpt lat="39.7927900" lon="-5.1602600">
        <ele>378.8</ele>
        <time>2019-07-08T16:51:27Z</time>
      </trkpt>
      <trkpt lat="39.7931870" lon="-5.1606740">
        <ele>379.2</ele>
        <time>2019-07-08T16:51:35Z</time>
      </trkpt>
      <trkpt lat="39.7933720" lon="-5.1608690">
        <ele>379.2</ele>
        <time>2019-07-08T16:51:39Z</time>
      </trkpt>
      <trkpt lat="39.7938280" lon="-5.1613270">
        <ele>379.4</ele>
        <time>2019-07-08T16:51:49Z</time>
      </trkpt>
      <trkpt lat="39.7942400" lon="-5.1617990">
        <ele>379.8</ele>
        <time>2019-07-08T16:51:59Z</time>
      </trkpt>
      <trkpt lat="39.7945790" lon="-5.1622390">
        <ele>379.4</ele>
        <time>2019-07-08T16:52:08Z</time>
      </trkpt>
      <trkpt lat="39.7948730" lon="-5.1626810">
        <ele>379.2</ele>
        <time>2019-07-08T16:52:16Z</time>
      </trkpt>
      <trkpt lat="39.7950960" lon="-5.1629900">
        <ele>378.2</ele>
        <time>2019-07-08T16:52:21Z</time>
      </trkpt>
      <trkpt lat="39.7951930" lon="-5.1631260">
        <ele>377.6</ele>
        <time>2019-07-08T16:52:23Z</time>
      </trkpt>
      <trkpt lat="39.7952940" lon="-5.1632640">
        <ele>377.0</ele>
        <time>2019-07-08T16:52:25Z</time>
      </trkpt>
      <trkpt lat="39.7954880" lon="-5.1635270">
        <ele>376.2</ele>
        <time>2019-07-08T16:52:29Z</time>
      </trkpt>
      <trkpt lat="39.7955350" lon="-5.1635910">
        <ele>376.0</ele>
        <time>2019-07-08T16:52:30Z</time>
      </trkpt>
      <trkpt lat="39.7956250" lon="-5.1637130">
        <ele>375.8</ele>
        <time>2019-07-08T16:52:32Z</time>
      </trkpt>
      <trkpt lat="39.7956690" lon="-5.1637730">
        <ele>375.8</ele>
        <time>2019-07-08T16:52:33Z</time>
      </trkpt>
      <trkpt lat="39.7959950" lon="-5.1642310">
        <ele>375.2</ele>
        <time>2019-07-08T16:52:41Z</time>
      </trkpt>
      <trkpt lat="39.7961100" lon="-5.1643880">
        <ele>375.4</ele>
        <time>2019-07-08T16:52:44Z</time>
      </trkpt>
      <trkpt lat="39.7961880" lon="-5.1644980">
        <ele>375.2</ele>
        <time>2019-07-08T16:52:46Z</time>
      </trkpt>
      <trkpt lat="39.7962700" lon="-5.1646120">
        <ele>374.8</ele>
        <time>2019-07-08T16:52:48Z</time>
      </trkpt>
      <trkpt lat="39.7965030" lon="-5.1649810">
        <ele>374.8</ele>
        <time>2019-07-08T16:52:54Z</time>
      </trkpt>
      <trkpt lat="39.7966460" lon="-5.1653690">
        <ele>374.8</ele>
        <time>2019-07-08T16:52:59Z</time>
      </trkpt>
      <trkpt lat="39.7967030" lon="-5.1656120">
        <ele>374.4</ele>
        <time>2019-07-08T16:53:02Z</time>
      </trkpt>
      <trkpt lat="39.7967810" lon="-5.1658120">
        <ele>374.0</ele>
        <time>2019-07-08T16:53:05Z</time>
      </trkpt>
      <trkpt lat="39.7968100" lon="-5.1658670">
        <ele>374.0</ele>
        <time>2019-07-08T16:53:06Z</time>
      </trkpt>
      <trkpt lat="39.7968720" lon="-5.1659670">
        <ele>373.6</ele>
        <time>2019-07-08T16:53:08Z</time>
      </trkpt>
      <trkpt lat="39.7969390" lon="-5.1660520">
        <ele>373.8</ele>
        <time>2019-07-08T16:53:10Z</time>
      </trkpt>
      <trkpt lat="39.7969710" lon="-5.1660920">
        <ele>374.0</ele>
        <time>2019-07-08T16:53:11Z</time>
      </trkpt>
      <trkpt lat="39.7970670" lon="-5.1662090">
        <ele>374.4</ele>
        <time>2019-07-08T16:53:14Z</time>
      </trkpt>
      <trkpt lat="39.7970990" lon="-5.1662450">
        <ele>374.6</ele>
        <time>2019-07-08T16:53:15Z</time>
      </trkpt>
      <trkpt lat="39.7972320" lon="-5.1663830">
        <ele>375.6</ele>
        <time>2019-07-08T16:53:19Z</time>
      </trkpt>
      <trkpt lat="39.7972670" lon="-5.1664230">
        <ele>375.8</ele>
        <time>2019-07-08T16:53:20Z</time>
      </trkpt>
      <trkpt lat="39.7973720" lon="-5.1665540">
        <ele>376.0</ele>
        <time>2019-07-08T16:53:23Z</time>
      </trkpt>
      <trkpt lat="39.7975090" lon="-5.1667460">
        <ele>375.8</ele>
        <time>2019-07-08T16:53:27Z</time>
      </trkpt>
      <trkpt lat="39.7977510" lon="-5.1672120">
        <ele>375.0</ele>
        <time>2019-07-08T16:53:35Z</time>
      </trkpt>
      <trkpt lat="39.7978910" lon="-5.1675090">
        <ele>375.0</ele>
        <time>2019-07-08T16:53:40Z</time>
      </trkpt>
      <trkpt lat="39.7979720" lon="-5.1676920">
        <ele>374.6</ele>
        <time>2019-07-08T16:53:43Z</time>
      </trkpt>
      <trkpt lat="39.7980870" lon="-5.1679370">
        <ele>374.0</ele>
        <time>2019-07-08T16:53:47Z</time>
      </trkpt>
      <trkpt lat="39.7982040" lon="-5.1681890">
        <ele>373.8</ele>
        <time>2019-07-08T16:53:51Z</time>
      </trkpt>
      <trkpt lat="39.7982610" lon="-5.1683200">
        <ele>373.8</ele>
        <time>2019-07-08T16:53:53Z</time>
      </trkpt>
      <trkpt lat="39.7983840" lon="-5.1685750">
        <ele>373.4</ele>
        <time>2019-07-08T16:53:57Z</time>
      </trkpt>
      <trkpt lat="39.7985160" lon="-5.1688080">
        <ele>373.0</ele>
        <time>2019-07-08T16:54:01Z</time>
      </trkpt>
      <trkpt lat="39.7987040" lon="-5.1690550">
        <ele>373.4</ele>
        <time>2019-07-08T16:54:06Z</time>
      </trkpt>
      <trkpt lat="39.7987440" lon="-5.1690910">
        <ele>373.6</ele>
        <time>2019-07-08T16:54:07Z</time>
      </trkpt>
      <trkpt lat="39.7990260" lon="-5.1693400">
        <ele>374.8</ele>
        <time>2019-07-08T16:54:15Z</time>
      </trkpt>
      <trkpt lat="39.7990610" lon="-5.1693680">
        <ele>375.0</ele>
        <time>2019-07-08T16:54:16Z</time>
      </trkpt>
      <trkpt lat="39.7991980" lon="-5.1694660">
        <ele>375.8</ele>
        <time>2019-07-08T16:54:20Z</time>
      </trkpt>
      <trkpt lat="39.7992620" lon="-5.1695210">
        <ele>376.4</ele>
        <time>2019-07-08T16:54:22Z</time>
      </trkpt>
      <trkpt lat="39.7993880" lon="-5.1696250">
        <ele>377.0</ele>
        <time>2019-07-08T16:54:26Z</time>
      </trkpt>
      <trkpt lat="39.7994750" lon="-5.1697090">
        <ele>377.2</ele>
        <time>2019-07-08T16:54:29Z</time>
      </trkpt>
      <trkpt lat="39.7995320" lon="-5.1697650">
        <ele>377.4</ele>
        <time>2019-07-08T16:54:31Z</time>
      </trkpt>
      <trkpt lat="39.7996470" lon="-5.1698660">
        <ele>378.4</ele>
        <time>2019-07-08T16:54:35Z</time>
      </trkpt>
      <trkpt lat="39.7996760" lon="-5.1698920">
        <ele>378.4</ele>
        <time>2019-07-08T16:54:36Z</time>
      </trkpt>
      <trkpt lat="39.7998730" lon="-5.1700780">
        <ele>378.2</ele>
        <time>2019-07-08T16:54:42Z</time>
      </trkpt>
      <trkpt lat="39.8001330" lon="-5.1703310">
        <ele>377.4</ele>
        <time>2019-07-08T16:54:48Z</time>
      </trkpt>
      <trkpt lat="39.8001700" lon="-5.1703670">
        <ele>377.2</ele>
        <time>2019-07-08T16:54:49Z</time>
      </trkpt>
      <trkpt lat="39.8002760" lon="-5.1704420">
        <ele>376.2</ele>
        <time>2019-07-08T16:54:53Z</time>
      </trkpt>
      <trkpt lat="39.8003530" lon="-5.1704540">
        <ele>375.2</ele>
        <time>2019-07-08T16:54:58Z</time>
      </trkpt>
      <trkpt lat="39.8003690" lon="-5.1704490">
        <ele>375.0</ele>
        <time>2019-07-08T16:54:59Z</time>
      </trkpt>
      <trkpt lat="39.8004080" lon="-5.1704130">
        <ele>374.8</ele>
        <time>2019-07-08T16:55:01Z</time>
      </trkpt>
      <trkpt lat="39.8037800" lon="-5.1718440">
        <ele>332.0</ele>
        <time>2019-07-09T04:57:00Z</time>
      </trkpt>
      <trkpt lat="39.8038060" lon="-5.1718390">
        <ele>331.4</ele>
        <time>2019-07-09T04:57:01Z</time>
      </trkpt>
      <trkpt lat="39.8039400" lon="-5.1718080">
        <ele>331.0</ele>
        <time>2019-07-09T04:57:05Z</time>
      </trkpt>
      <trkpt lat="39.8040820" lon="-5.1717740">
        <ele>330.8</ele>
        <time>2019-07-09T04:57:10Z</time>
      </trkpt>
      <trkpt lat="39.8043100" lon="-5.1716960">
        <ele>330.4</ele>
        <time>2019-07-09T04:57:17Z</time>
      </trkpt>
      <trkpt lat="39.8045190" lon="-5.1716370">
        <ele>330.2</ele>
        <time>2019-07-09T04:57:22Z</time>
      </trkpt>
      <trkpt lat="39.8046930" lon="-5.1715390">
        <ele>329.8</ele>
        <time>2019-07-09T04:57:28Z</time>
      </trkpt>
      <trkpt lat="39.8048900" lon="-5.1714860">
        <ele>330.0</ele>
        <time>2019-07-09T04:57:33Z</time>
      </trkpt>
      <trkpt lat="39.8049420" lon="-5.1714220">
        <ele>330.0</ele>
        <time>2019-07-09T04:57:35Z</time>
      </trkpt>
      <trkpt lat="39.8049490" lon="-5.1713720">
        <ele>330.0</ele>
        <time>2019-07-09T04:57:36Z</time>
      </trkpt>
      <trkpt lat="39.8049020" lon="-5.1711070">
        <ele>329.2</ele>
        <time>2019-07-09T04:57:40Z</time>
      </trkpt>
      <trkpt lat="39.8048830" lon="-5.1710280">
        <ele>328.8</ele>
        <time>2019-07-09T04:57:41Z</time>
      </trkpt>
      <trkpt lat="39.8048540" lon="-5.1708660">
        <ele>327.6</ele>
        <time>2019-07-09T04:57:43Z</time>
      </trkpt>
      <trkpt lat="39.8048330" lon="-5.1707130">
        <ele>327.0</ele>
        <time>2019-07-09T04:57:45Z</time>
      </trkpt>
      <trkpt lat="39.8048220" lon="-5.1706540">
        <ele>326.6</ele>
        <time>2019-07-09T04:57:46Z</time>
      </trkpt>
      <trkpt lat="39.8048060" lon="-5.1705740">
        <ele>326.2</ele>
        <time>2019-07-09T04:57:48Z</time>
      </trkpt>
      <trkpt lat="39.8047770" lon="-5.1705300">
        <ele>325.8</ele>
        <time>2019-07-09T04:57:50Z</time>
      </trkpt>
      <trkpt lat="39.8047200" lon="-5.1705300">
        <ele>325.8</ele>
        <time>2019-07-09T04:57:52Z</time>
      </trkpt>
      <trkpt lat="39.8046630" lon="-5.1705720">
        <ele>325.6</ele>
        <time>2019-07-09T04:57:54Z</time>
      </trkpt>
      <trkpt lat="39.8046040" lon="-5.1706270">
        <ele>325.6</ele>
        <time>2019-07-09T04:57:56Z</time>
      </trkpt>
      <trkpt lat="39.8045430" lon="-5.1706860">
        <ele>325.6</ele>
        <time>2019-07-09T04:57:58Z</time>
      </trkpt>
      <trkpt lat="39.8044430" lon="-5.1707760">
        <ele>326.0</ele>
        <time>2019-07-09T04:58:01Z</time>
      </trkpt>
      <trkpt lat="39.8043130" lon="-5.1708880">
        <ele>326.6</ele>
        <time>2019-07-09T04:58:05Z</time>
      </trkpt>
      <trkpt lat="39.8041720" lon="-5.1710270">
        <ele>327.4</ele>
        <time>2019-07-09T04:58:10Z</time>
      </trkpt>
      <trkpt lat="39.8041450" lon="-5.1710550">
        <ele>327.6</ele>
        <time>2019-07-09T04:58:11Z</time>
      </trkpt>
      <trkpt lat="39.8040410" lon="-5.1711820">
        <ele>328.0</ele>
        <time>2019-07-09T04:58:15Z</time>
      </trkpt>
      <trkpt lat="39.8039780" lon="-5.1712490">
        <ele>328.0</ele>
        <time>2019-07-09T04:58:17Z</time>
      </trkpt>
      <trkpt lat="39.8039420" lon="-5.1712800">
        <ele>328.2</ele>
        <time>2019-07-09T04:58:18Z</time>
      </trkpt>
      <trkpt lat="39.8038360" lon="-5.1713720">
        <ele>328.4</ele>
        <time>2019-07-09T04:58:21Z</time>
      </trkpt>
      <trkpt lat="39.8038050" lon="-5.1714080">
        <ele>328.6</ele>
        <time>2019-07-09T04:58:22Z</time>
      </trkpt>
      <trkpt lat="39.8037410" lon="-5.1714720">
        <ele>329.2</ele>
        <time>2019-07-09T04:58:24Z</time>
      </trkpt>
      <trkpt lat="39.8036180" lon="-5.1715920">
        <ele>329.6</ele>
        <time>2019-07-09T04:58:28Z</time>
      </trkpt>
      <trkpt lat="39.8035200" lon="-5.1716940">
        <ele>329.8</ele>
        <time>2019-07-09T04:58:31Z</time>
      </trkpt>
      <trkpt lat="39.8034890" lon="-5.1717280">
        <ele>329.8</ele>
        <time>2019-07-09T04:58:32Z</time>
      </trkpt>
      <trkpt lat="39.8033690" lon="-5.1718480">
        <ele>330.4</ele>
        <time>2019-07-09T04:58:36Z</time>
      </trkpt>
      <trkpt lat="39.8033090" lon="-5.1719000">
        <ele>331.0</ele>
        <time>2019-07-09T04:58:38Z</time>
      </trkpt>
      <trkpt lat="39.8032790" lon="-5.1719260">
        <ele>331.0</ele>
        <time>2019-07-09T04:58:39Z</time>
      </trkpt>
      <trkpt lat="39.8031860" lon="-5.1720350">
        <ele>331.6</ele>
        <time>2019-07-09T04:58:42Z</time>
      </trkpt>
      <trkpt lat="39.8031150" lon="-5.1720970">
        <ele>331.8</ele>
        <time>2019-07-09T04:58:44Z</time>
      </trkpt>
      <trkpt lat="39.8030470" lon="-5.1721580">
        <ele>332.0</ele>
        <time>2019-07-09T04:58:46Z</time>
      </trkpt>
      <trkpt lat="39.8028320" lon="-5.1723580">
        <ele>332.2</ele>
        <time>2019-07-09T04:58:52Z</time>
      </trkpt>
      <trkpt lat="39.8027520" lon="-5.1724250">
        <ele>332.0</ele>
        <time>2019-07-09T04:58:54Z</time>
      </trkpt>
      <trkpt lat="39.8026290" lon="-5.1725440">
        <ele>331.8</ele>
        <time>2019-07-09T04:58:57Z</time>
      </trkpt>
      <trkpt lat="39.8024490" lon="-5.1727060">
        <ele>331.4</ele>
        <time>2019-07-09T04:59:01Z</time>
      </trkpt>
      <trkpt lat="39.8023560" lon="-5.1727960">
        <ele>331.0</ele>
        <time>2019-07-09T04:59:03Z</time>
      </trkpt>
      <trkpt lat="39.8022610" lon="-5.1728920">
        <ele>330.8</ele>
        <time>2019-07-09T04:59:05Z</time>
      </trkpt>
      <trkpt lat="39.8022130" lon="-5.1729430">
        <ele>330.6</ele>
        <time>2019-07-09T04:59:06Z</time>
      </trkpt>
      <trkpt lat="39.8020630" lon="-5.1730930">
        <ele>330.0</ele>
        <time>2019-07-09T04:59:09Z</time>
      </trkpt>
      <trkpt lat="39.8019520" lon="-5.1731800">
        <ele>329.8</ele>
        <time>2019-07-09T04:59:11Z</time>
      </trkpt>
      <trkpt lat="39.8018910" lon="-5.1732130">
        <ele>329.6</ele>
        <time>2019-07-09T04:59:12Z</time>
      </trkpt>
      <trkpt lat="39.8015620" lon="-5.1732960">
        <ele>328.4</ele>
        <time>2019-07-09T04:59:17Z</time>
      </trkpt>
      <trkpt lat="39.8012130" lon="-5.1733640">
        <ele>327.2</ele>
        <time>2019-07-09T04:59:22Z</time>
      </trkpt>
      <trkpt lat="39.8010700" lon="-5.1733850">
        <ele>326.8</ele>
        <time>2019-07-09T04:59:24Z</time>
      </trkpt>
      <trkpt lat="39.8009980" lon="-5.1733880">
        <ele>326.8</ele>
        <time>2019-07-09T04:59:25Z</time>
      </trkpt>
      <trkpt lat="39.8008610" lon="-5.1733480">
        <ele>326.4</ele>
        <time>2019-07-09T04:59:27Z</time>
      </trkpt>
      <trkpt lat="39.8007090" lon="-5.1731700">
        <ele>326.2</ele>
        <time>2019-07-09T04:59:30Z</time>
      </trkpt>
      <trkpt lat="39.8006720" lon="-5.1730930">
        <ele>326.0</ele>
        <time>2019-07-09T04:59:31Z</time>
      </trkpt>
      <trkpt lat="39.8005730" lon="-5.1728600">
        <ele>325.4</ele>
        <time>2019-07-09T04:59:34Z</time>
      </trkpt>
      <trkpt lat="39.8005070" lon="-5.1727100">
        <ele>325.0</ele>
        <time>2019-07-09T04:59:36Z</time>
      </trkpt>
      <trkpt lat="39.8004750" lon="-5.1726380">
        <ele>325.0</ele>
        <time>2019-07-09T04:59:37Z</time>
      </trkpt>
      <trkpt lat="39.8003730" lon="-5.1723520">
        <ele>324.6</ele>
        <time>2019-07-09T04:59:41Z</time>
      </trkpt>
      <trkpt lat="39.8003470" lon="-5.1722830">
        <ele>324.6</ele>
        <time>2019-07-09T04:59:42Z</time>
      </trkpt>
      <trkpt lat="39.8003240" lon="-5.1722110">
        <ele>324.6</ele>
        <time>2019-07-09T04:59:43Z</time>
      </trkpt>
      <trkpt lat="39.8002890" lon="-5.1720580">
        <ele>324.4</ele>
        <time>2019-07-09T04:59:45Z</time>
      </trkpt>
      <trkpt lat="39.8002750" lon="-5.1718940">
        <ele>324.4</ele>
        <time>2019-07-09T04:59:47Z</time>
      </trkpt>
      <trkpt lat="39.8002730" lon="-5.1716380">
        <ele>324.4</ele>
        <time>2019-07-09T04:59:50Z</time>
      </trkpt>
      <trkpt lat="39.8002650" lon="-5.1712950">
        <ele>324.2</ele>
        <time>2019-07-09T04:59:54Z</time>
      </trkpt>
      <trkpt lat="39.8002450" lon="-5.1707510">
        <ele>324.4</ele>
        <time>2019-07-09T05:00:01Z</time>
      </trkpt>
      <trkpt lat="39.8002230" lon="-5.1705330">
        <ele>324.4</ele>
        <time>2019-07-09T05:00:04Z</time>
      </trkpt>
      <trkpt lat="39.8001900" lon="-5.1703950">
        <ele>324.6</ele>
        <time>2019-07-09T05:00:06Z</time>
      </trkpt>
      <trkpt lat="39.8001640" lon="-5.1703330">
        <ele>324.6</ele>
        <time>2019-07-09T05:00:07Z</time>
      </trkpt>
      <trkpt lat="39.8000110" lon="-5.1701630">
        <ele>325.2</ele>
        <time>2019-07-09T05:00:11Z</time>
      </trkpt>
      <trkpt lat="39.7999700" lon="-5.1701250">
        <ele>325.4</ele>
        <time>2019-07-09T05:00:12Z</time>
      </trkpt>
      <trkpt lat="39.7998870" lon="-5.1700510">
        <ele>325.8</ele>
        <time>2019-07-09T05:00:14Z</time>
      </trkpt>
      <trkpt lat="39.7998050" lon="-5.1699810">
        <ele>326.0</ele>
        <time>2019-07-09T05:00:16Z</time>
      </trkpt>
      <trkpt lat="39.7997240" lon="-5.1699110">
        <ele>326.6</ele>
        <time>2019-07-09T05:00:18Z</time>
      </trkpt>
      <trkpt lat="39.7996470" lon="-5.1698370">
        <ele>327.0</ele>
        <time>2019-07-09T05:00:20Z</time>
      </trkpt>
      <trkpt lat="39.7996070" lon="-5.1697980">
        <ele>327.2</ele>
        <time>2019-07-09T05:00:21Z</time>
      </trkpt>
      <trkpt lat="39.7994760" lon="-5.1696760">
        <ele>327.4</ele>
        <time>2019-07-09T05:00:24Z</time>
      </trkpt>
      <trkpt lat="39.7993760" lon="-5.1695820">
        <ele>327.2</ele>
        <time>2019-07-09T05:00:26Z</time>
      </trkpt>
      <trkpt lat="39.7991480" lon="-5.1693740">
        <ele>326.2</ele>
        <time>2019-07-09T05:00:30Z</time>
      </trkpt>
      <trkpt lat="39.7990210" lon="-5.1692680">
        <ele>325.8</ele>
        <time>2019-07-09T05:00:32Z</time>
      </trkpt>
      <trkpt lat="39.7988280" lon="-5.1690960">
        <ele>325.0</ele>
        <time>2019-07-09T05:00:35Z</time>
      </trkpt>
      <trkpt lat="39.7986250" lon="-5.1689250">
        <ele>323.8</ele>
        <time>2019-07-09T05:00:38Z</time>
      </trkpt>
      <trkpt lat="39.7984970" lon="-5.1688040">
        <ele>323.4</ele>
        <time>2019-07-09T05:00:40Z</time>
      </trkpt>
      <trkpt lat="39.7983140" lon="-5.1684990">
        <ele>323.2</ele>
        <time>2019-07-09T05:00:44Z</time>
      </trkpt>
      <trkpt lat="39.7980740" lon="-5.1679690">
        <ele>323.4</ele>
        <time>2019-07-09T05:00:51Z</time>
      </trkpt>
      <trkpt lat="39.7979990" lon="-5.1678450">
        <ele>323.8</ele>
        <time>2019-07-09T05:00:53Z</time>
      </trkpt>
      <trkpt lat="39.7979020" lon="-5.1677510">
        <ele>323.8</ele>
        <time>2019-07-09T05:00:55Z</time>
      </trkpt>
      <trkpt lat="39.7977280" lon="-5.1677260">
        <ele>324.0</ele>
        <time>2019-07-09T05:00:58Z</time>
      </trkpt>
      <trkpt lat="39.7975700" lon="-5.1678090">
        <ele>324.6</ele>
        <time>2019-07-09T05:01:01Z</time>
      </trkpt>
      <trkpt lat="39.7975200" lon="-5.1678420">
        <ele>324.8</ele>
        <time>2019-07-09T05:01:02Z</time>
      </trkpt>
      <trkpt lat="39.7972740" lon="-5.1679870">
        <ele>325.6</ele>
        <time>2019-07-09T05:01:07Z</time>
      </trkpt>
      <trkpt lat="39.7971780" lon="-5.1680440">
        <ele>326.0</ele>
        <time>2019-07-09T05:01:09Z</time>
      </trkpt>
      <trkpt lat="39.7970320" lon="-5.1681260">
        <ele>326.2</ele>
        <time>2019-07-09T05:01:12Z</time>
      </trkpt>
      <trkpt lat="39.7967880" lon="-5.1682630">
        <ele>326.8</ele>
        <time>2019-07-09T05:01:17Z</time>
      </trkpt>
      <trkpt lat="39.7967390" lon="-5.1682910">
        <ele>327.0</ele>
        <time>2019-07-09T05:01:18Z</time>
      </trkpt>
      <trkpt lat="39.7964970" lon="-5.1684250">
        <ele>327.8</ele>
        <time>2019-07-09T05:01:23Z</time>
      </trkpt>
      <trkpt lat="39.7963540" lon="-5.1685050">
        <ele>328.2</ele>
        <time>2019-07-09T05:01:26Z</time>
      </trkpt>
      <trkpt lat="39.7960680" lon="-5.1686610">
        <ele>329.0</ele>
        <time>2019-07-09T05:01:32Z</time>
      </trkpt>
      <trkpt lat="39.7960180" lon="-5.1686860">
        <ele>329.2</ele>
        <time>2019-07-09T05:01:33Z</time>
      </trkpt>
      <trkpt lat="39.7959210" lon="-5.1687370">
        <ele>329.4</ele>
        <time>2019-07-09T05:01:35Z</time>
      </trkpt>
      <trkpt lat="39.7956330" lon="-5.1688980">
        <ele>330.4</ele>
        <time>2019-07-09T05:01:41Z</time>
      </trkpt>
      <trkpt lat="39.7954420" lon="-5.1690020">
        <ele>330.8</ele>
        <time>2019-07-09T05:01:45Z</time>
      </trkpt>
      <trkpt lat="39.7952540" lon="-5.1691030">
        <ele>331.4</ele>
        <time>2019-07-09T05:01:49Z</time>
      </trkpt>
      <trkpt lat="39.7949790" lon="-5.1692510">
        <ele>332.4</ele>
        <time>2019-07-09T05:01:55Z</time>
      </trkpt>
      <trkpt lat="39.7949340" lon="-5.1692750">
        <ele>332.6</ele>
        <time>2019-07-09T05:01:56Z</time>
      </trkpt>
      <trkpt lat="39.7947170" lon="-5.1693910">
        <ele>333.6</ele>
        <time>2019-07-09T05:02:01Z</time>
      </trkpt>
      <trkpt lat="39.7945910" lon="-5.1694530">
        <ele>334.4</ele>
        <time>2019-07-09T05:02:04Z</time>
      </trkpt>
      <trkpt lat="39.7945510" lon="-5.1694770">
        <ele>334.6</ele>
        <time>2019-07-09T05:02:05Z</time>
      </trkpt>
      <trkpt lat="39.7943510" lon="-5.1695960">
        <ele>335.6</ele>
        <time>2019-07-09T05:02:10Z</time>
      </trkpt>
      <trkpt lat="39.7942700" lon="-5.1696400">
        <ele>336.0</ele>
        <time>2019-07-09T05:02:12Z</time>
      </trkpt>
      <trkpt lat="39.7941880" lon="-5.1696870">
        <ele>336.8</ele>
        <time>2019-07-09T05:02:14Z</time>
      </trkpt>
      <trkpt lat="39.7939880" lon="-5.1697900">
        <ele>337.8</ele>
        <time>2019-07-09T05:02:19Z</time>
      </trkpt>
      <trkpt lat="39.7939110" lon="-5.1698370">
        <ele>338.4</ele>
        <time>2019-07-09T05:02:21Z</time>
      </trkpt>
      <trkpt lat="39.7937590" lon="-5.1699230">
        <ele>339.0</ele>
        <time>2019-07-09T05:02:25Z</time>
      </trkpt>
      <trkpt lat="39.7936040" lon="-5.1700010">
        <ele>340.0</ele>
        <time>2019-07-09T05:02:29Z</time>
      </trkpt>
      <trkpt lat="39.7935660" lon="-5.1700210">
        <ele>340.2</ele>
        <time>2019-07-09T05:02:30Z</time>
      </trkpt>
      <trkpt lat="39.7933380" lon="-5.1701470">
        <ele>341.4</ele>
        <time>2019-07-09T05:02:36Z</time>
      </trkpt>
      <trkpt lat="39.7931860" lon="-5.1702320">
        <ele>342.0</ele>
        <time>2019-07-09T05:02:40Z</time>
      </trkpt>
      <trkpt lat="39.7931100" lon="-5.1702710">
        <ele>342.4</ele>
        <time>2019-07-09T05:02:42Z</time>
      </trkpt>
      <trkpt lat="39.7929210" lon="-5.1703700">
        <ele>343.6</ele>
        <time>2019-07-09T05:02:47Z</time>
      </trkpt>
      <trkpt lat="39.7927710" lon="-5.1704500">
        <ele>344.0</ele>
        <time>2019-07-09T05:02:51Z</time>
      </trkpt>
      <trkpt lat="39.7926620" lon="-5.1705150">
        <ele>344.6</ele>
        <time>2019-07-09T05:02:54Z</time>
      </trkpt>
      <trkpt lat="39.7924700" lon="-5.1706160">
        <ele>345.8</ele>
        <time>2019-07-09T05:02:59Z</time>
      </trkpt>
      <trkpt lat="39.7923900" lon="-5.1706590">
        <ele>346.2</ele>
        <time>2019-07-09T05:03:01Z</time>
      </trkpt>
      <trkpt lat="39.7922740" lon="-5.1707210">
        <ele>347.0</ele>
        <time>2019-07-09T05:03:04Z</time>
      </trkpt>
      <trkpt lat="39.7921990" lon="-5.1707620">
        <ele>347.4</ele>
        <time>2019-07-09T05:03:06Z</time>
      </trkpt>
      <trkpt lat="39.7920850" lon="-5.1708180">
        <ele>347.8</ele>
        <time>2019-07-09T05:03:09Z</time>
      </trkpt>
      <trkpt lat="39.7920070" lon="-5.1708650">
        <ele>347.8</ele>
        <time>2019-07-09T05:03:11Z</time>
      </trkpt>
      <trkpt lat="39.7917130" lon="-5.1710280">
        <ele>348.8</ele>
        <time>2019-07-09T05:03:18Z</time>
      </trkpt>
      <trkpt lat="39.7916710" lon="-5.1710510">
        <ele>349.0</ele>
        <time>2019-07-09T05:03:19Z</time>
      </trkpt>
      <trkpt lat="39.7913340" lon="-5.1712350">
        <ele>349.8</ele>
        <time>2019-07-09T05:03:27Z</time>
      </trkpt>
      <trkpt lat="39.7912480" lon="-5.1712810">
        <ele>350.0</ele>
        <time>2019-07-09T05:03:29Z</time>
      </trkpt>
      <trkpt lat="39.7912050" lon="-5.1713030">
        <ele>350.2</ele>
        <time>2019-07-09T05:03:30Z</time>
      </trkpt>
      <trkpt lat="39.7909890" lon="-5.1714200">
        <ele>351.0</ele>
        <time>2019-07-09T05:03:35Z</time>
      </trkpt>
      <trkpt lat="39.7909460" lon="-5.1714440">
        <ele>351.0</ele>
        <time>2019-07-09T05:03:36Z</time>
      </trkpt>
      <trkpt lat="39.7908610" lon="-5.1714900">
        <ele>351.2</ele>
        <time>2019-07-09T05:03:38Z</time>
      </trkpt>
      <trkpt lat="39.7906470" lon="-5.1716060">
        <ele>351.8</ele>
        <time>2019-07-09T05:03:43Z</time>
      </trkpt>
      <trkpt lat="39.7905210" lon="-5.1716740">
        <ele>352.0</ele>
        <time>2019-07-09T05:03:46Z</time>
      </trkpt>
      <trkpt lat="39.7904350" lon="-5.1717190">
        <ele>352.4</ele>
        <time>2019-07-09T05:03:48Z</time>
      </trkpt>
      <trkpt lat="39.7902550" lon="-5.1718150">
        <ele>353.2</ele>
        <time>2019-07-09T05:03:52Z</time>
      </trkpt>
      <trkpt lat="39.7900240" lon="-5.1719310">
        <ele>353.6</ele>
        <time>2019-07-09T05:03:57Z</time>
      </trkpt>
      <trkpt lat="39.7899330" lon="-5.1719820">
        <ele>354.2</ele>
        <time>2019-07-09T05:03:59Z</time>
      </trkpt>
      <trkpt lat="39.7898880" lon="-5.1720060">
        <ele>354.4</ele>
        <time>2019-07-09T05:04:00Z</time>
      </trkpt>
      <trkpt lat="39.7896570" lon="-5.1721170">
        <ele>354.8</ele>
        <time>2019-07-09T05:04:05Z</time>
      </trkpt>
      <trkpt lat="39.7893810" lon="-5.1722520">
        <ele>355.4</ele>
        <time>2019-07-09T05:04:11Z</time>
      </trkpt>
      <trkpt lat="39.7892410" lon="-5.1723190">
        <ele>356.0</ele>
        <time>2019-07-09T05:04:14Z</time>
      </trkpt>
      <trkpt lat="39.7889180" lon="-5.1724710">
        <ele>356.4</ele>
        <time>2019-07-09T05:04:21Z</time>
      </trkpt>
      <trkpt lat="39.7888250" lon="-5.1725100">
        <ele>356.8</ele>
        <time>2019-07-09T05:04:23Z</time>
      </trkpt>
      <trkpt lat="39.7885940" lon="-5.1726080">
        <ele>357.6</ele>
        <time>2019-07-09T05:04:28Z</time>
      </trkpt>
      <trkpt lat="39.7883590" lon="-5.1727080">
        <ele>357.8</ele>
        <time>2019-07-09T05:04:33Z</time>
      </trkpt>
      <trkpt lat="39.7881680" lon="-5.1727920">
        <ele>358.6</ele>
        <time>2019-07-09T05:04:37Z</time>
      </trkpt>
      <trkpt lat="39.7878830" lon="-5.1729030">
        <ele>359.2</ele>
        <time>2019-07-09T05:04:43Z</time>
      </trkpt>
      <trkpt lat="39.7877880" lon="-5.1729380">
        <ele>359.6</ele>
        <time>2019-07-09T05:04:45Z</time>
      </trkpt>
      <trkpt lat="39.7874020" lon="-5.1730850">
        <ele>360.2</ele>
        <time>2019-07-09T05:04:53Z</time>
      </trkpt>
      <trkpt lat="39.7873540" lon="-5.1731050">
        <ele>360.6</ele>
        <time>2019-07-09T05:04:54Z</time>
      </trkpt>
      <trkpt lat="39.7868590" lon="-5.1732960">
        <ele>361.6</ele>
        <time>2019-07-09T05:05:04Z</time>
      </trkpt>
      <trkpt lat="39.7865570" lon="-5.1734090">
        <ele>362.8</ele>
        <time>2019-07-09T05:05:10Z</time>
      </trkpt>
      <trkpt lat="39.7862030" lon="-5.1735490">
        <ele>363.6</ele>
        <time>2019-07-09T05:05:17Z</time>
      </trkpt>
      <trkpt lat="39.7861540" lon="-5.1735720">
        <ele>363.8</ele>
        <time>2019-07-09T05:05:18Z</time>
      </trkpt>
      <trkpt lat="39.7857570" lon="-5.1737330">
        <ele>364.8</ele>
        <time>2019-07-09T05:05:26Z</time>
      </trkpt>
      <trkpt lat="39.7856550" lon="-5.1737720">
        <ele>365.0</ele>
        <time>2019-07-09T05:05:28Z</time>
      </trkpt>
      <trkpt lat="39.7853000" lon="-5.1739090">
        <ele>365.8</ele>
        <time>2019-07-09T05:05:35Z</time>
      </trkpt>
      <trkpt lat="39.7849470" lon="-5.1740510">
        <ele>367.0</ele>
        <time>2019-07-09T05:05:42Z</time>
      </trkpt>
      <trkpt lat="39.7844390" lon="-5.1742450">
        <ele>368.0</ele>
        <time>2019-07-09T05:05:52Z</time>
      </trkpt>
      <trkpt lat="39.7843890" lon="-5.1742640">
        <ele>368.2</ele>
        <time>2019-07-09T05:05:53Z</time>
      </trkpt>
      <trkpt lat="39.7839890" lon="-5.1744190">
        <ele>369.2</ele>
        <time>2019-07-09T05:06:01Z</time>
      </trkpt>
      <trkpt lat="39.7838450" lon="-5.1744780">
        <ele>369.8</ele>
        <time>2019-07-09T05:06:04Z</time>
      </trkpt>
      <trkpt lat="39.7837470" lon="-5.1745090">
        <ele>370.4</ele>
        <time>2019-07-09T05:06:06Z</time>
      </trkpt>
      <trkpt lat="39.7834630" lon="-5.1746100">
        <ele>371.4</ele>
        <time>2019-07-09T05:06:12Z</time>
      </trkpt>
      <trkpt lat="39.7834190" lon="-5.1746300">
        <ele>371.6</ele>
        <time>2019-07-09T05:06:13Z</time>
      </trkpt>
      <trkpt lat="39.7832830" lon="-5.1746840">
        <ele>372.4</ele>
        <time>2019-07-09T05:06:16Z</time>
      </trkpt>
      <trkpt lat="39.7831010" lon="-5.1747530">
        <ele>373.8</ele>
        <time>2019-07-09T05:06:20Z</time>
      </trkpt>
      <trkpt lat="39.7830110" lon="-5.1747890">
        <ele>374.4</ele>
        <time>2019-07-09T05:06:22Z</time>
      </trkpt>
      <trkpt lat="39.7829230" lon="-5.1748230">
        <ele>374.8</ele>
        <time>2019-07-09T05:06:24Z</time>
      </trkpt>
      <trkpt lat="39.7827060" lon="-5.1749100">
        <ele>376.0</ele>
        <time>2019-07-09T05:06:29Z</time>
      </trkpt>
      <trkpt lat="39.7825780" lon="-5.1749620">
        <ele>376.6</ele>
        <time>2019-07-09T05:06:32Z</time>
      </trkpt>
      <trkpt lat="39.7824470" lon="-5.1750100">
        <ele>377.2</ele>
        <time>2019-07-09T05:06:35Z</time>
      </trkpt>
      <trkpt lat="39.7822780" lon="-5.1750770">
        <ele>378.2</ele>
        <time>2019-07-09T05:06:39Z</time>
      </trkpt>
      <trkpt lat="39.7821570" lon="-5.1751280">
        <ele>378.8</ele>
        <time>2019-07-09T05:06:42Z</time>
      </trkpt>
      <trkpt lat="39.7820760" lon="-5.1751580">
        <ele>379.2</ele>
        <time>2019-07-09T05:06:44Z</time>
      </trkpt>
      <trkpt lat="39.7820370" lon="-5.1751730">
        <ele>379.2</ele>
        <time>2019-07-09T05:06:45Z</time>
      </trkpt>
      <trkpt lat="39.7818780" lon="-5.1752360">
        <ele>380.4</ele>
        <time>2019-07-09T05:06:49Z</time>
      </trkpt>
      <trkpt lat="39.7817170" lon="-5.1752940">
        <ele>381.4</ele>
        <time>2019-07-09T05:06:53Z</time>
      </trkpt>
      <trkpt lat="39.7816780" lon="-5.1753110">
        <ele>381.6</ele>
        <time>2019-07-09T05:06:54Z</time>
      </trkpt>
      <trkpt lat="39.7813960" lon="-5.1754230">
        <ele>382.8</ele>
        <time>2019-07-09T05:07:01Z</time>
      </trkpt>
      <trkpt lat="39.7812280" lon="-5.1754840">
        <ele>383.6</ele>
        <time>2019-07-09T05:07:05Z</time>
      </trkpt>
      <trkpt lat="39.7811430" lon="-5.1755120">
        <ele>384.2</ele>
        <time>2019-07-09T05:07:07Z</time>
      </trkpt>
      <trkpt lat="39.7809300" lon="-5.1755940">
        <ele>385.4</ele>
        <time>2019-07-09T05:07:12Z</time>
      </trkpt>
      <trkpt lat="39.7808440" lon="-5.1756270">
        <ele>385.8</ele>
        <time>2019-07-09T05:07:14Z</time>
      </trkpt>
      <trkpt lat="39.7807160" lon="-5.1756800">
        <ele>386.4</ele>
        <time>2019-07-09T05:07:17Z</time>
      </trkpt>
      <trkpt lat="39.7805040" lon="-5.1757660">
        <ele>387.6</ele>
        <time>2019-07-09T05:07:22Z</time>
      </trkpt>
      <trkpt lat="39.7804200" lon="-5.1758000">
        <ele>388.2</ele>
        <time>2019-07-09T05:07:24Z</time>
      </trkpt>
      <trkpt lat="39.7802960" lon="-5.1758610">
        <ele>388.8</ele>
        <time>2019-07-09T05:07:27Z</time>
      </trkpt>
      <trkpt lat="39.7801270" lon="-5.1759440">
        <ele>389.8</ele>
        <time>2019-07-09T05:07:31Z</time>
      </trkpt>
      <trkpt lat="39.7800860" lon="-5.1759680">
        <ele>390.0</ele>
        <time>2019-07-09T05:07:32Z</time>
      </trkpt>
      <trkpt lat="39.7798820" lon="-5.1760940">
        <ele>391.0</ele>
        <time>2019-07-09T05:07:37Z</time>
      </trkpt>
      <trkpt lat="39.7797270" lon="-5.1762060">
        <ele>391.8</ele>
        <time>2019-07-09T05:07:41Z</time>
      </trkpt>
      <trkpt lat="39.7796890" lon="-5.1762360">
        <ele>392.0</ele>
        <time>2019-07-09T05:07:42Z</time>
      </trkpt>
      <trkpt lat="39.7795000" lon="-5.1764020">
        <ele>393.2</ele>
        <time>2019-07-09T05:07:47Z</time>
      </trkpt>
      <trkpt lat="39.7794270" lon="-5.1764730">
        <ele>393.6</ele>
        <time>2019-07-09T05:07:49Z</time>
      </trkpt>
      <trkpt lat="39.7793200" lon="-5.1765850">
        <ele>394.2</ele>
        <time>2019-07-09T05:07:52Z</time>
      </trkpt>
      <trkpt lat="39.7791450" lon="-5.1767800">
        <ele>395.0</ele>
        <time>2019-07-09T05:07:57Z</time>
      </trkpt>
      <trkpt lat="39.7791120" lon="-5.1768220">
        <ele>395.4</ele>
        <time>2019-07-09T05:07:58Z</time>
      </trkpt>
      <trkpt lat="39.7790120" lon="-5.1769440">
        <ele>396.2</ele>
        <time>2019-07-09T05:08:01Z</time>
      </trkpt>
      <trkpt lat="39.7787330" lon="-5.1772650">
        <ele>397.4</ele>
        <time>2019-07-09T05:08:09Z</time>
      </trkpt>
      <trkpt lat="39.7786630" lon="-5.1773470">
        <ele>397.8</ele>
        <time>2019-07-09T05:08:11Z</time>
      </trkpt>
      <trkpt lat="39.7784900" lon="-5.1775570">
        <ele>398.4</ele>
        <time>2019-07-09T05:08:16Z</time>
      </trkpt>
      <trkpt lat="39.7782380" lon="-5.1778480">
        <ele>399.6</ele>
        <time>2019-07-09T05:08:23Z</time>
      </trkpt>
      <trkpt lat="39.7781620" lon="-5.1779340">
        <ele>399.8</ele>
        <time>2019-07-09T05:08:25Z</time>
      </trkpt>
      <trkpt lat="39.7779010" lon="-5.1782580">
        <ele>400.6</ele>
        <time>2019-07-09T05:08:32Z</time>
      </trkpt>
      <trkpt lat="39.7777880" lon="-5.1783950">
        <ele>401.0</ele>
        <time>2019-07-09T05:08:35Z</time>
      </trkpt>
      <trkpt lat="39.7776770" lon="-5.1785320">
        <ele>401.6</ele>
        <time>2019-07-09T05:08:38Z</time>
      </trkpt>
      <trkpt lat="39.7774180" lon="-5.1788470">
        <ele>402.6</ele>
        <time>2019-07-09T05:08:45Z</time>
      </trkpt>
      <trkpt lat="39.7773080" lon="-5.1789810">
        <ele>403.2</ele>
        <time>2019-07-09T05:08:48Z</time>
      </trkpt>
      <trkpt lat="39.7771260" lon="-5.1792080">
        <ele>403.8</ele>
        <time>2019-07-09T05:08:53Z</time>
      </trkpt>
      <trkpt lat="39.7768690" lon="-5.1795200">
        <ele>404.8</ele>
        <time>2019-07-09T05:09:00Z</time>
      </trkpt>
      <trkpt lat="39.7765700" lon="-5.1798760">
        <ele>406.0</ele>
        <time>2019-07-09T05:09:08Z</time>
      </trkpt>
      <trkpt lat="39.7765330" lon="-5.1799210">
        <ele>406.2</ele>
        <time>2019-07-09T05:09:09Z</time>
      </trkpt>
      <trkpt lat="39.7763110" lon="-5.1801920">
        <ele>407.2</ele>
        <time>2019-07-09T05:09:15Z</time>
      </trkpt>
      <trkpt lat="39.7761280" lon="-5.1804170">
        <ele>408.0</ele>
        <time>2019-07-09T05:09:20Z</time>
      </trkpt>
      <trkpt lat="39.7760190" lon="-5.1805510">
        <ele>408.2</ele>
        <time>2019-07-09T05:09:23Z</time>
      </trkpt>
      <trkpt lat="39.7757260" lon="-5.1808940">
        <ele>409.2</ele>
        <time>2019-07-09T05:09:31Z</time>
      </trkpt>
      <trkpt lat="39.7756920" lon="-5.1809400">
        <ele>409.4</ele>
        <time>2019-07-09T05:09:32Z</time>
      </trkpt>
      <trkpt lat="39.7754810" lon="-5.1811940">
        <ele>410.2</ele>
        <time>2019-07-09T05:09:38Z</time>
      </trkpt>
      <trkpt lat="39.7754130" lon="-5.1812740">
        <ele>410.4</ele>
        <time>2019-07-09T05:09:40Z</time>
      </trkpt>
      <trkpt lat="39.7751280" lon="-5.1815970">
        <ele>411.6</ele>
        <time>2019-07-09T05:09:48Z</time>
      </trkpt>
      <trkpt lat="39.7750910" lon="-5.1816370">
        <ele>411.8</ele>
        <time>2019-07-09T05:09:49Z</time>
      </trkpt>
      <trkpt lat="39.7748160" lon="-5.1818960">
        <ele>412.8</ele>
        <time>2019-07-09T05:09:56Z</time>
      </trkpt>
      <trkpt lat="39.7747740" lon="-5.1819300">
        <ele>412.8</ele>
        <time>2019-07-09T05:09:57Z</time>
      </trkpt>
      <trkpt lat="39.7743710" lon="-5.1821930">
        <ele>414.0</ele>
        <time>2019-07-09T05:10:06Z</time>
      </trkpt>
      <trkpt lat="39.7743230" lon="-5.1822180">
        <ele>414.0</ele>
        <time>2019-07-09T05:10:07Z</time>
      </trkpt>
      <trkpt lat="39.7739810" lon="-5.1823770">
        <ele>415.0</ele>
        <time>2019-07-09T05:10:14Z</time>
      </trkpt>
      <trkpt lat="39.7737820" lon="-5.1824540">
        <ele>415.6</ele>
        <time>2019-07-09T05:10:18Z</time>
      </trkpt>
      <trkpt lat="39.7735830" lon="-5.1825260">
        <ele>416.0</ele>
        <time>2019-07-09T05:10:22Z</time>
      </trkpt>
      <trkpt lat="39.7733870" lon="-5.1825960">
        <ele>416.6</ele>
        <time>2019-07-09T05:10:26Z</time>
      </trkpt>
      <trkpt lat="39.7732430" lon="-5.1826570">
        <ele>417.2</ele>
        <time>2019-07-09T05:10:29Z</time>
      </trkpt>
      <trkpt lat="39.7730440" lon="-5.1827370">
        <ele>418.0</ele>
        <time>2019-07-09T05:10:33Z</time>
      </trkpt>
      <trkpt lat="39.7729940" lon="-5.1827550">
        <ele>418.2</ele>
        <time>2019-07-09T05:10:34Z</time>
      </trkpt>
      <trkpt lat="39.7726480" lon="-5.1828840">
        <ele>419.2</ele>
        <time>2019-07-09T05:10:41Z</time>
      </trkpt>
      <trkpt lat="39.7726000" lon="-5.1829030">
        <ele>419.4</ele>
        <time>2019-07-09T05:10:42Z</time>
      </trkpt>
      <trkpt lat="39.7723110" lon="-5.1830200">
        <ele>420.4</ele>
        <time>2019-07-09T05:10:48Z</time>
      </trkpt>
      <trkpt lat="39.7720710" lon="-5.1831140">
        <ele>421.0</ele>
        <time>2019-07-09T05:10:53Z</time>
      </trkpt>
      <trkpt lat="39.7719260" lon="-5.1831650">
        <ele>421.4</ele>
        <time>2019-07-09T05:10:56Z</time>
      </trkpt>
      <trkpt lat="39.7716370" lon="-5.1832790">
        <ele>422.2</ele>
        <time>2019-07-09T05:11:02Z</time>
      </trkpt>
      <trkpt lat="39.7715880" lon="-5.1832940">
        <ele>422.2</ele>
        <time>2019-07-09T05:11:03Z</time>
      </trkpt>
      <trkpt lat="39.7711990" lon="-5.1834110">
        <ele>423.4</ele>
        <time>2019-07-09T05:11:11Z</time>
      </trkpt>
      <trkpt lat="39.7708580" lon="-5.1834840">
        <ele>424.6</ele>
        <time>2019-07-09T05:11:18Z</time>
      </trkpt>
      <trkpt lat="39.7707590" lon="-5.1834940">
        <ele>424.8</ele>
        <time>2019-07-09T05:11:20Z</time>
      </trkpt>
      <trkpt lat="39.7703990" lon="-5.1834900">
        <ele>425.8</ele>
        <time>2019-07-09T05:11:27Z</time>
      </trkpt>
      <trkpt lat="39.7702950" lon="-5.1834790">
        <ele>426.0</ele>
        <time>2019-07-09T05:11:29Z</time>
      </trkpt>
      <trkpt lat="39.7699390" lon="-5.1834260">
        <ele>426.8</ele>
        <time>2019-07-09T05:11:36Z</time>
      </trkpt>
      <trkpt lat="39.7697410" lon="-5.1833940">
        <ele>427.4</ele>
        <time>2019-07-09T05:11:40Z</time>
      </trkpt>
      <trkpt lat="39.7695440" lon="-5.1833510">
        <ele>428.0</ele>
        <time>2019-07-09T05:11:44Z</time>
      </trkpt>
      <trkpt lat="39.7692450" lon="-5.1832980">
        <ele>428.8</ele>
        <time>2019-07-09T05:11:50Z</time>
      </trkpt>
      <trkpt lat="39.7691960" lon="-5.1832870">
        <ele>429.0</ele>
        <time>2019-07-09T05:11:51Z</time>
      </trkpt>
      <trkpt lat="39.7688050" lon="-5.1832110">
        <ele>430.0</ele>
        <time>2019-07-09T05:11:59Z</time>
      </trkpt>
      <trkpt lat="39.7687070" lon="-5.1831950">
        <ele>430.2</ele>
        <time>2019-07-09T05:12:01Z</time>
      </trkpt>
      <trkpt lat="39.7684550" lon="-5.1831550">
        <ele>431.0</ele>
        <time>2019-07-09T05:12:06Z</time>
      </trkpt>
      <trkpt lat="39.7682530" lon="-5.1831370">
        <ele>431.6</ele>
        <time>2019-07-09T05:12:10Z</time>
      </trkpt>
      <trkpt lat="39.7680510" lon="-5.1831290">
        <ele>432.2</ele>
        <time>2019-07-09T05:12:14Z</time>
      </trkpt>
      <trkpt lat="39.7677520" lon="-5.1831410">
        <ele>433.2</ele>
        <time>2019-07-09T05:12:20Z</time>
      </trkpt>
      <trkpt lat="39.7674960" lon="-5.1831730">
        <ele>434.2</ele>
        <time>2019-07-09T05:12:25Z</time>
      </trkpt>
      <trkpt lat="39.7672390" lon="-5.1832290">
        <ele>435.0</ele>
        <time>2019-07-09T05:12:30Z</time>
      </trkpt>
      <trkpt lat="39.7671880" lon="-5.1832440">
        <ele>435.4</ele>
        <time>2019-07-09T05:12:31Z</time>
      </trkpt>
      <trkpt lat="39.7668420" lon="-5.1833430">
        <ele>436.4</ele>
        <time>2019-07-09T05:12:38Z</time>
      </trkpt>
      <trkpt lat="39.7667930" lon="-5.1833600">
        <ele>436.4</ele>
        <time>2019-07-09T05:12:39Z</time>
      </trkpt>
      <trkpt lat="39.7664010" lon="-5.1834810">
        <ele>437.4</ele>
        <time>2019-07-09T05:12:47Z</time>
      </trkpt>
      <trkpt lat="39.7662500" lon="-5.1835270">
        <ele>438.0</ele>
        <time>2019-07-09T05:12:50Z</time>
      </trkpt>
      <trkpt lat="39.7660540" lon="-5.1835840">
        <ele>438.6</ele>
        <time>2019-07-09T05:12:54Z</time>
      </trkpt>
      <trkpt lat="39.7658530" lon="-5.1836430">
        <ele>439.4</ele>
        <time>2019-07-09T05:12:58Z</time>
      </trkpt>
      <trkpt lat="39.7658030" lon="-5.1836590">
        <ele>439.6</ele>
        <time>2019-07-09T05:12:59Z</time>
      </trkpt>
      <trkpt lat="39.7654050" lon="-5.1837770">
        <ele>440.8</ele>
        <time>2019-07-09T05:13:07Z</time>
      </trkpt>
      <trkpt lat="39.7650640" lon="-5.1838790">
        <ele>441.6</ele>
        <time>2019-07-09T05:13:14Z</time>
      </trkpt>
      <trkpt lat="39.7648230" lon="-5.1839550">
        <ele>442.8</ele>
        <time>2019-07-09T05:13:19Z</time>
      </trkpt>
      <trkpt lat="39.7647740" lon="-5.1839680">
        <ele>443.0</ele>
        <time>2019-07-09T05:13:20Z</time>
      </trkpt>
      <trkpt lat="39.7642900" lon="-5.1841100">
        <ele>444.0</ele>
        <time>2019-07-09T05:13:30Z</time>
      </trkpt>
      <trkpt lat="39.7639520" lon="-5.1842170">
        <ele>444.8</ele>
        <time>2019-07-09T05:13:37Z</time>
      </trkpt>
      <trkpt lat="39.7639030" lon="-5.1842290">
        <ele>445.2</ele>
        <time>2019-07-09T05:13:38Z</time>
      </trkpt>
      <trkpt lat="39.7638070" lon="-5.1842540">
        <ele>445.2</ele>
        <time>2019-07-09T05:13:40Z</time>
      </trkpt>
      <trkpt lat="39.7636180" lon="-5.1843030">
        <ele>446.2</ele>
        <time>2019-07-09T05:13:44Z</time>
      </trkpt>
      <trkpt lat="39.7633710" lon="-5.1843400">
        <ele>446.8</ele>
        <time>2019-07-09T05:13:49Z</time>
      </trkpt>
      <trkpt lat="39.7632160" lon="-5.1843540">
        <ele>447.2</ele>
        <time>2019-07-09T05:13:52Z</time>
      </trkpt>
      <trkpt lat="39.7629570" lon="-5.1843620">
        <ele>447.8</ele>
        <time>2019-07-09T05:13:57Z</time>
      </trkpt>
      <trkpt lat="39.7627460" lon="-5.1843300">
        <ele>448.2</ele>
        <time>2019-07-09T05:14:01Z</time>
      </trkpt>
      <trkpt lat="39.7625390" lon="-5.1842720">
        <ele>448.4</ele>
        <time>2019-07-09T05:14:05Z</time>
      </trkpt>
      <trkpt lat="39.7621900" lon="-5.1841330">
        <ele>449.2</ele>
        <time>2019-07-09T05:14:12Z</time>
      </trkpt>
      <trkpt lat="39.7621410" lon="-5.1841080">
        <ele>449.2</ele>
        <time>2019-07-09T05:14:13Z</time>
      </trkpt>
      <trkpt lat="39.7619980" lon="-5.1840170">
        <ele>449.8</ele>
        <time>2019-07-09T05:14:16Z</time>
      </trkpt>
      <trkpt lat="39.7617650" lon="-5.1838380">
        <ele>450.2</ele>
        <time>2019-07-09T05:14:21Z</time>
      </trkpt>
      <trkpt lat="39.7615500" lon="-5.1836350">
        <ele>451.0</ele>
        <time>2019-07-09T05:14:26Z</time>
      </trkpt>
      <trkpt lat="39.7614700" lon="-5.1835450">
        <ele>451.4</ele>
        <time>2019-07-09T05:14:28Z</time>
      </trkpt>
      <trkpt lat="39.7612480" lon="-5.1832350">
        <ele>452.0</ele>
        <time>2019-07-09T05:14:34Z</time>
      </trkpt>
      <trkpt lat="39.7609980" lon="-5.1828550">
        <ele>452.4</ele>
        <time>2019-07-09T05:14:41Z</time>
      </trkpt>
      <trkpt lat="39.7609610" lon="-5.1828000">
        <ele>452.4</ele>
        <time>2019-07-09T05:14:42Z</time>
      </trkpt>
      <trkpt lat="39.7606820" lon="-5.1823460">
        <ele>453.4</ele>
        <time>2019-07-09T05:14:50Z</time>
      </trkpt>
      <trkpt lat="39.7606470" lon="-5.1822900">
        <ele>453.6</ele>
        <time>2019-07-09T05:14:51Z</time>
      </trkpt>
      <trkpt lat="39.7604000" lon="-5.1818960">
        <ele>454.6</ele>
        <time>2019-07-09T05:14:58Z</time>
      </trkpt>
      <trkpt lat="39.7602850" lon="-5.1817270">
        <ele>454.6</ele>
        <time>2019-07-09T05:15:01Z</time>
      </trkpt>
      <trkpt lat="39.7600730" lon="-5.1814440">
        <ele>454.4</ele>
        <time>2019-07-09T05:15:06Z</time>
      </trkpt>
      <trkpt lat="39.7599280" lon="-5.1812850">
        <ele>454.2</ele>
        <time>2019-07-09T05:15:09Z</time>
      </trkpt>
      <trkpt lat="39.7597740" lon="-5.1811400">
        <ele>453.8</ele>
        <time>2019-07-09T05:15:12Z</time>
      </trkpt>
      <trkpt lat="39.7596640" lon="-5.1810530">
        <ele>453.4</ele>
        <time>2019-07-09T05:15:14Z</time>
      </trkpt>
      <trkpt lat="39.7595470" lon="-5.1809770">
        <ele>453.2</ele>
        <time>2019-07-09T05:15:16Z</time>
      </trkpt>
      <trkpt lat="39.7594210" lon="-5.1809050">
        <ele>452.8</ele>
        <time>2019-07-09T05:15:18Z</time>
      </trkpt>
      <trkpt lat="39.7592840" lon="-5.1808470">
        <ele>452.4</ele>
        <time>2019-07-09T05:15:20Z</time>
      </trkpt>
      <trkpt lat="39.7592120" lon="-5.1808230">
        <ele>452.2</ele>
        <time>2019-07-09T05:15:21Z</time>
      </trkpt>
      <trkpt lat="39.7591380" lon="-5.1808000">
        <ele>452.0</ele>
        <time>2019-07-09T05:15:22Z</time>
      </trkpt>
      <trkpt lat="39.7589010" lon="-5.1807440">
        <ele>451.0</ele>
        <time>2019-07-09T05:15:25Z</time>
      </trkpt>
      <trkpt lat="39.7586460" lon="-5.1807230">
        <ele>450.0</ele>
        <time>2019-07-09T05:15:28Z</time>
      </trkpt>
      <trkpt lat="39.7583780" lon="-5.1807540">
        <ele>448.8</ele>
        <time>2019-07-09T05:15:31Z</time>
      </trkpt>
      <trkpt lat="39.7581930" lon="-5.1807970">
        <ele>448.2</ele>
        <time>2019-07-09T05:15:33Z</time>
      </trkpt>
      <trkpt lat="39.7581000" lon="-5.1808270">
        <ele>447.8</ele>
        <time>2019-07-09T05:15:34Z</time>
      </trkpt>
      <trkpt lat="39.7579170" lon="-5.1809080">
        <ele>447.2</ele>
        <time>2019-07-09T05:15:36Z</time>
      </trkpt>
      <trkpt lat="39.7578280" lon="-5.1809600">
        <ele>446.6</ele>
        <time>2019-07-09T05:15:37Z</time>
      </trkpt>
      <trkpt lat="39.7577390" lon="-5.1810160">
        <ele>446.2</ele>
        <time>2019-07-09T05:15:38Z</time>
      </trkpt>
      <trkpt lat="39.7575630" lon="-5.1811390">
        <ele>445.4</ele>
        <time>2019-07-09T05:15:40Z</time>
      </trkpt>
      <trkpt lat="39.7574020" lon="-5.1812940">
        <ele>444.4</ele>
        <time>2019-07-09T05:15:42Z</time>
      </trkpt>
      <trkpt lat="39.7573260" lon="-5.1813810">
        <ele>444.0</ele>
        <time>2019-07-09T05:15:43Z</time>
      </trkpt>
      <trkpt lat="39.7571790" lon="-5.1815650">
        <ele>442.8</ele>
        <time>2019-07-09T05:15:45Z</time>
      </trkpt>
      <trkpt lat="39.7570430" lon="-5.1817680">
        <ele>441.6</ele>
        <time>2019-07-09T05:15:47Z</time>
      </trkpt>
      <trkpt lat="39.7569820" lon="-5.1818780">
        <ele>441.0</ele>
        <time>2019-07-09T05:15:48Z</time>
      </trkpt>
      <trkpt lat="39.7569280" lon="-5.1819950">
        <ele>440.4</ele>
        <time>2019-07-09T05:15:49Z</time>
      </trkpt>
      <trkpt lat="39.7568320" lon="-5.1822400">
        <ele>439.2</ele>
        <time>2019-07-09T05:15:51Z</time>
      </trkpt>
      <trkpt lat="39.7567460" lon="-5.1824930">
        <ele>437.6</ele>
        <time>2019-07-09T05:15:53Z</time>
      </trkpt>
      <trkpt lat="39.7566810" lon="-5.1827560">
        <ele>436.6</ele>
        <time>2019-07-09T05:15:55Z</time>
      </trkpt>
      <trkpt lat="39.7566380" lon="-5.1830250">
        <ele>435.4</ele>
        <time>2019-07-09T05:15:57Z</time>
      </trkpt>
      <trkpt lat="39.7566230" lon="-5.1833020">
        <ele>433.8</ele>
        <time>2019-07-09T05:15:59Z</time>
      </trkpt>
      <trkpt lat="39.7566280" lon="-5.1835810">
        <ele>433.0</ele>
        <time>2019-07-09T05:16:01Z</time>
      </trkpt>
      <trkpt lat="39.7566370" lon="-5.1837210">
        <ele>432.6</ele>
        <time>2019-07-09T05:16:02Z</time>
      </trkpt>
      <trkpt lat="39.7566820" lon="-5.1841380">
        <ele>431.2</ele>
        <time>2019-07-09T05:16:05Z</time>
      </trkpt>
      <trkpt lat="39.7567140" lon="-5.1844150">
        <ele>429.8</ele>
        <time>2019-07-09T05:16:07Z</time>
      </trkpt>
      <trkpt lat="39.7567440" lon="-5.1846930">
        <ele>428.6</ele>
        <time>2019-07-09T05:16:09Z</time>
      </trkpt>
      <trkpt lat="39.7567740" lon="-5.1849710">
        <ele>427.4</ele>
        <time>2019-07-09T05:16:11Z</time>
      </trkpt>
      <trkpt lat="39.7568080" lon="-5.1852480">
        <ele>426.2</ele>
        <time>2019-07-09T05:16:13Z</time>
      </trkpt>
      <trkpt lat="39.7568490" lon="-5.1855260">
        <ele>425.0</ele>
        <time>2019-07-09T05:16:15Z</time>
      </trkpt>
      <trkpt lat="39.7568670" lon="-5.1856670">
        <ele>424.6</ele>
        <time>2019-07-09T05:16:16Z</time>
      </trkpt>
      <trkpt lat="39.7568990" lon="-5.1859500">
        <ele>423.4</ele>
        <time>2019-07-09T05:16:18Z</time>
      </trkpt>
      <trkpt lat="39.7569340" lon="-5.1862380">
        <ele>422.2</ele>
        <time>2019-07-09T05:16:20Z</time>
      </trkpt>
      <trkpt lat="39.7569700" lon="-5.1865280">
        <ele>420.8</ele>
        <time>2019-07-09T05:16:22Z</time>
      </trkpt>
      <trkpt lat="39.7570000" lon="-5.1868210">
        <ele>419.2</ele>
        <time>2019-07-09T05:16:24Z</time>
      </trkpt>
      <trkpt lat="39.7570130" lon="-5.1869620">
        <ele>418.6</ele>
        <time>2019-07-09T05:16:25Z</time>
      </trkpt>
      <trkpt lat="39.7570270" lon="-5.1870940">
        <ele>418.0</ele>
        <time>2019-07-09T05:16:26Z</time>
      </trkpt>
      <trkpt lat="39.7570540" lon="-5.1873430">
        <ele>416.8</ele>
        <time>2019-07-09T05:16:28Z</time>
      </trkpt>
      <trkpt lat="39.7570830" lon="-5.1875990">
        <ele>415.6</ele>
        <time>2019-07-09T05:16:30Z</time>
      </trkpt>
      <trkpt lat="39.7571120" lon="-5.1878630">
        <ele>414.0</ele>
        <time>2019-07-09T05:16:32Z</time>
      </trkpt>
      <trkpt lat="39.7571410" lon="-5.1881350">
        <ele>412.6</ele>
        <time>2019-07-09T05:16:34Z</time>
      </trkpt>
      <trkpt lat="39.7571750" lon="-5.1884140">
        <ele>411.0</ele>
        <time>2019-07-09T05:16:36Z</time>
      </trkpt>
      <trkpt lat="39.7572120" lon="-5.1887000">
        <ele>409.8</ele>
        <time>2019-07-09T05:16:38Z</time>
      </trkpt>
      <trkpt lat="39.7572300" lon="-5.1888440">
        <ele>408.4</ele>
        <time>2019-07-09T05:16:39Z</time>
      </trkpt>
      <trkpt lat="39.7572470" lon="-5.1889900">
        <ele>407.4</ele>
        <time>2019-07-09T05:16:40Z</time>
      </trkpt>
      <trkpt lat="39.7572720" lon="-5.1892850">
        <ele>405.6</ele>
        <time>2019-07-09T05:16:42Z</time>
      </trkpt>
      <trkpt lat="39.7572730" lon="-5.1895840">
        <ele>404.4</ele>
        <time>2019-07-09T05:16:44Z</time>
      </trkpt>
      <trkpt lat="39.7572330" lon="-5.1898840">
        <ele>402.8</ele>
        <time>2019-07-09T05:16:46Z</time>
      </trkpt>
      <trkpt lat="39.7572000" lon="-5.1900300">
        <ele>401.6</ele>
        <time>2019-07-09T05:16:47Z</time>
      </trkpt>
      <trkpt lat="39.7571120" lon="-5.1903060">
        <ele>400.2</ele>
        <time>2019-07-09T05:16:49Z</time>
      </trkpt>
      <trkpt lat="39.7570140" lon="-5.1905570">
        <ele>399.4</ele>
        <time>2019-07-09T05:16:51Z</time>
      </trkpt>
      <trkpt lat="39.7569200" lon="-5.1907840">
        <ele>399.2</ele>
        <time>2019-07-09T05:16:53Z</time>
      </trkpt>
      <trkpt lat="39.7567970" lon="-5.1910750">
        <ele>399.6</ele>
        <time>2019-07-09T05:16:56Z</time>
      </trkpt>
      <trkpt lat="39.7567310" lon="-5.1912320">
        <ele>400.4</ele>
        <time>2019-07-09T05:16:58Z</time>
      </trkpt>
      <trkpt lat="39.7566810" lon="-5.1913460">
        <ele>401.4</ele>
        <time>2019-07-09T05:17:00Z</time>
      </trkpt>
      <trkpt lat="39.7566620" lon="-5.1913720">
        <ele>401.6</ele>
        <time>2019-07-09T05:17:01Z</time>
      </trkpt>
      <trkpt lat="39.7566320" lon="-5.1913490">
        <ele>402.0</ele>
        <time>2019-07-09T05:17:03Z</time>
      </trkpt>
      <trkpt lat="39.7566470" lon="-5.1912900">
        <ele>402.2</ele>
        <time>2019-07-09T05:17:06Z</time>
      </trkpt>
      <trkpt lat="39.7566490" lon="-5.1912830">
        <ele>402.2</ele>
        <time>2019-07-09T05:17:07Z</time>
      </trkpt>
      <trkpt lat="39.7566540" lon="-5.1912730">
        <ele>402.0</ele>
        <time>2019-07-09T05:17:09Z</time>
      </trkpt>
      <trkpt lat="39.7566800" lon="-5.1912480">
        <ele>401.8</ele>
        <time>2019-07-09T05:18:36Z</time>
      </trkpt>
      <trkpt lat="39.7566940" lon="-5.1912570">
        <ele>401.6</ele>
        <time>2019-07-09T05:18:37Z</time>
      </trkpt>
      <trkpt lat="39.7567010" lon="-5.1912990">
        <ele>401.6</ele>
        <time>2019-07-09T05:18:39Z</time>
      </trkpt>
      <trkpt lat="39.7566820" lon="-5.1913430">
        <ele>401.8</ele>
        <time>2019-07-09T05:18:41Z</time>
      </trkpt>
      <trkpt lat="39.7566730" lon="-5.1913680">
        <ele>401.8</ele>
        <time>2019-07-09T05:18:42Z</time>
      </trkpt>
      <trkpt lat="39.7566540" lon="-5.1914180">
        <ele>401.8</ele>
        <time>2019-07-09T05:18:44Z</time>
      </trkpt>
      <trkpt lat="39.7565980" lon="-5.1915000">
        <ele>402.2</ele>
        <time>2019-07-09T05:18:48Z</time>
      </trkpt>
      <trkpt lat="39.7565790" lon="-5.1915510">
        <ele>402.6</ele>
        <time>2019-07-09T05:18:50Z</time>
      </trkpt>
      <trkpt lat="39.7565440" lon="-5.1916560">
        <ele>403.4</ele>
        <time>2019-07-09T05:18:54Z</time>
      </trkpt>
      <trkpt lat="39.7565100" lon="-5.1917320">
        <ele>403.6</ele>
        <time>2019-07-09T05:18:57Z</time>
      </trkpt>
      <trkpt lat="39.7564750" lon="-5.1918320">
        <ele>404.0</ele>
        <time>2019-07-09T05:19:01Z</time>
      </trkpt>
      <trkpt lat="39.7564150" lon="-5.1919750">
        <ele>404.8</ele>
        <time>2019-07-09T05:19:07Z</time>
      </trkpt>
      <trkpt lat="39.7564030" lon="-5.1919980">
        <ele>404.8</ele>
        <time>2019-07-09T05:19:08Z</time>
      </trkpt>
      <trkpt lat="39.7563520" lon="-5.1921220">
        <ele>405.6</ele>
        <time>2019-07-09T05:19:13Z</time>
      </trkpt>
      <trkpt lat="39.7563430" lon="-5.1921480">
        <ele>405.8</ele>
        <time>2019-07-09T05:19:14Z</time>
      </trkpt>
      <trkpt lat="39.7563220" lon="-5.1921960">
        <ele>405.8</ele>
        <time>2019-07-09T05:19:16Z</time>
      </trkpt>
      <trkpt lat="39.7562390" lon="-5.1923690">
        <ele>406.6</ele>
        <time>2019-07-09T05:19:23Z</time>
      </trkpt>
      <trkpt lat="39.7562110" lon="-5.1924300">
        <ele>406.8</ele>
        <time>2019-07-09T05:19:25Z</time>
      </trkpt>
      <trkpt lat="39.7561950" lon="-5.1924600">
        <ele>407.0</ele>
        <time>2019-07-09T05:19:26Z</time>
      </trkpt>
      <trkpt lat="39.7561340" lon="-5.1925450">
        <ele>407.6</ele>
        <time>2019-07-09T05:19:29Z</time>
      </trkpt>
      <trkpt lat="39.7561110" lon="-5.1925730">
        <ele>407.8</ele>
        <time>2019-07-09T05:19:30Z</time>
      </trkpt>
      <trkpt lat="39.7560150" lon="-5.1927360">
        <ele>408.8</ele>
        <time>2019-07-09T05:19:35Z</time>
      </trkpt>
      <trkpt lat="39.7559950" lon="-5.1927660">
        <ele>409.0</ele>
        <time>2019-07-09T05:19:36Z</time>
      </trkpt>
      <trkpt lat="39.7558470" lon="-5.1929700">
        <ele>410.0</ele>
        <time>2019-07-09T05:19:43Z</time>
      </trkpt>
      <trkpt lat="39.7558000" lon="-5.1930320">
        <ele>410.4</ele>
        <time>2019-07-09T05:19:45Z</time>
      </trkpt>
      <trkpt lat="39.7557280" lon="-5.1931120">
        <ele>411.0</ele>
        <time>2019-07-09T05:19:48Z</time>
      </trkpt>
      <trkpt lat="39.7556160" lon="-5.1932520">
        <ele>412.2</ele>
        <time>2019-07-09T05:19:53Z</time>
      </trkpt>
      <trkpt lat="39.7554640" lon="-5.1933940">
        <ele>413.4</ele>
        <time>2019-07-09T05:19:59Z</time>
      </trkpt>
      <trkpt lat="39.7554370" lon="-5.1934200">
        <ele>413.6</ele>
        <time>2019-07-09T05:20:00Z</time>
      </trkpt>
      <trkpt lat="39.7552670" lon="-5.1935610">
        <ele>414.6</ele>
        <time>2019-07-09T05:20:06Z</time>
      </trkpt>
      <trkpt lat="39.7552030" lon="-5.1936050">
        <ele>414.8</ele>
        <time>2019-07-09T05:20:08Z</time>
      </trkpt>
      <trkpt lat="39.7549640" lon="-5.1937610">
        <ele>415.6</ele>
        <time>2019-07-09T05:20:15Z</time>
      </trkpt>
      <trkpt lat="39.7548890" lon="-5.1938030">
        <ele>416.0</ele>
        <time>2019-07-09T05:20:17Z</time>
      </trkpt>
      <trkpt lat="39.7545970" lon="-5.1940160">
        <ele>416.6</ele>
        <time>2019-07-09T05:20:25Z</time>
      </trkpt>
      <trkpt lat="39.7544760" lon="-5.1940860">
        <ele>416.8</ele>
        <time>2019-07-09T05:20:28Z</time>
      </trkpt>
      <trkpt lat="39.7543080" lon="-5.1941720">
        <ele>417.4</ele>
        <time>2019-07-09T05:20:32Z</time>
      </trkpt>
      <trkpt lat="39.7541850" lon="-5.1942510">
        <ele>417.6</ele>
        <time>2019-07-09T05:20:35Z</time>
      </trkpt>
      <trkpt lat="39.7539780" lon="-5.1943860">
        <ele>418.2</ele>
        <time>2019-07-09T05:20:40Z</time>
      </trkpt>
      <trkpt lat="39.7538500" lon="-5.1944560">
        <ele>418.4</ele>
        <time>2019-07-09T05:20:43Z</time>
      </trkpt>
      <trkpt lat="39.7538080" lon="-5.1944810">
        <ele>418.6</ele>
        <time>2019-07-09T05:20:44Z</time>
      </trkpt>
      <trkpt lat="39.7534740" lon="-5.1947000">
        <ele>418.6</ele>
        <time>2019-07-09T05:20:52Z</time>
      </trkpt>
      <trkpt lat="39.7532190" lon="-5.1948530">
        <ele>419.2</ele>
        <time>2019-07-09T05:20:58Z</time>
      </trkpt>
      <trkpt lat="39.7531370" lon="-5.1949040">
        <ele>419.4</ele>
        <time>2019-07-09T05:21:00Z</time>
      </trkpt>
      <trkpt lat="39.7529740" lon="-5.1949930">
        <ele>420.2</ele>
        <time>2019-07-09T05:21:04Z</time>
      </trkpt>
      <trkpt lat="39.7527470" lon="-5.1951350">
        <ele>421.2</ele>
        <time>2019-07-09T05:21:10Z</time>
      </trkpt>
      <trkpt lat="39.7527090" lon="-5.1951590">
        <ele>421.4</ele>
        <time>2019-07-09T05:21:11Z</time>
      </trkpt>
      <trkpt lat="39.7525180" lon="-5.1952670">
        <ele>422.4</ele>
        <time>2019-07-09T05:21:16Z</time>
      </trkpt>
      <trkpt lat="39.7523660" lon="-5.1953570">
        <ele>423.2</ele>
        <time>2019-07-09T05:21:20Z</time>
      </trkpt>
      <trkpt lat="39.7523280" lon="-5.1953790">
        <ele>423.4</ele>
        <time>2019-07-09T05:21:21Z</time>
      </trkpt>
      <trkpt lat="39.7522900" lon="-5.1954010">
        <ele>423.6</ele>
        <time>2019-07-09T05:21:22Z</time>
      </trkpt>
      <trkpt lat="39.7521080" lon="-5.1955150">
        <ele>424.8</ele>
        <time>2019-07-09T05:21:27Z</time>
      </trkpt>
      <trkpt lat="39.7520360" lon="-5.1955620">
        <ele>425.0</ele>
        <time>2019-07-09T05:21:29Z</time>
      </trkpt>
      <trkpt lat="39.7518630" lon="-5.1956850">
        <ele>425.8</ele>
        <time>2019-07-09T05:21:34Z</time>
      </trkpt>
      <trkpt lat="39.7517610" lon="-5.1957610">
        <ele>426.6</ele>
        <time>2019-07-09T05:21:37Z</time>
      </trkpt>
      <trkpt lat="39.7516910" lon="-5.1958060">
        <ele>426.8</ele>
        <time>2019-07-09T05:21:39Z</time>
      </trkpt>
      <trkpt lat="39.7514890" lon="-5.1959580">
        <ele>427.8</ele>
        <time>2019-07-09T05:21:45Z</time>
      </trkpt>
      <trkpt lat="39.7514570" lon="-5.1959850">
        <ele>428.2</ele>
        <time>2019-07-09T05:21:46Z</time>
      </trkpt>
      <trkpt lat="39.7513310" lon="-5.1960910">
        <ele>429.0</ele>
        <time>2019-07-09T05:21:50Z</time>
      </trkpt>
      <trkpt lat="39.7512170" lon="-5.1962150">
        <ele>429.6</ele>
        <time>2019-07-09T05:21:54Z</time>
      </trkpt>
      <trkpt lat="39.7511330" lon="-5.1963140">
        <ele>430.0</ele>
        <time>2019-07-09T05:21:57Z</time>
      </trkpt>
      <trkpt lat="39.7509940" lon="-5.1964960">
        <ele>431.0</ele>
        <time>2019-07-09T05:22:02Z</time>
      </trkpt>
      <trkpt lat="39.7509400" lon="-5.1965740">
        <ele>431.4</ele>
        <time>2019-07-09T05:22:04Z</time>
      </trkpt>
      <trkpt lat="39.7508380" lon="-5.1967370">
        <ele>432.2</ele>
        <time>2019-07-09T05:22:08Z</time>
      </trkpt>
      <trkpt lat="39.7506680" lon="-5.1970510">
        <ele>433.0</ele>
        <time>2019-07-09T05:22:15Z</time>
      </trkpt>
      <trkpt lat="39.7506460" lon="-5.1971020">
        <ele>433.4</ele>
        <time>2019-07-09T05:22:16Z</time>
      </trkpt>
      <trkpt lat="39.7504770" lon="-5.1975000">
        <ele>434.2</ele>
        <time>2019-07-09T05:22:24Z</time>
      </trkpt>
      <trkpt lat="39.7504580" lon="-5.1975500">
        <ele>434.4</ele>
        <time>2019-07-09T05:22:25Z</time>
      </trkpt>
      <trkpt lat="39.7503330" lon="-5.1978500">
        <ele>435.4</ele>
        <time>2019-07-09T05:22:31Z</time>
      </trkpt>
      <trkpt lat="39.7502430" lon="-5.1980480">
        <ele>435.8</ele>
        <time>2019-07-09T05:22:35Z</time>
      </trkpt>
      <trkpt lat="39.7501460" lon="-5.1982430">
        <ele>436.4</ele>
        <time>2019-07-09T05:22:39Z</time>
      </trkpt>
      <trkpt lat="39.7500050" lon="-5.1984750">
        <ele>437.2</ele>
        <time>2019-07-09T05:22:44Z</time>
      </trkpt>
      <trkpt lat="39.7499750" lon="-5.1985210">
        <ele>437.2</ele>
        <time>2019-07-09T05:22:45Z</time>
      </trkpt>
      <trkpt lat="39.7498540" lon="-5.1987010">
        <ele>437.6</ele>
        <time>2019-07-09T05:22:49Z</time>
      </trkpt>
      <trkpt lat="39.7496870" lon="-5.1989080">
        <ele>438.2</ele>
        <time>2019-07-09T05:22:54Z</time>
      </trkpt>
      <trkpt lat="39.7495490" lon="-5.1990670">
        <ele>438.4</ele>
        <time>2019-07-09T05:22:58Z</time>
      </trkpt>
      <trkpt lat="39.7493490" lon="-5.1993170">
        <ele>439.4</ele>
        <time>2019-07-09T05:23:04Z</time>
      </trkpt>
      <trkpt lat="39.7492810" lon="-5.1993980">
        <ele>439.6</ele>
        <time>2019-07-09T05:23:06Z</time>
      </trkpt>
      <trkpt lat="39.7490000" lon="-5.1997150">
        <ele>440.6</ele>
        <time>2019-07-09T05:23:14Z</time>
      </trkpt>
      <trkpt lat="39.7487210" lon="-5.2000350">
        <ele>441.4</ele>
        <time>2019-07-09T05:23:22Z</time>
      </trkpt>
      <trkpt lat="39.7486520" lon="-5.2001160">
        <ele>441.8</ele>
        <time>2019-07-09T05:23:24Z</time>
      </trkpt>
      <trkpt lat="39.7484400" lon="-5.2003470">
        <ele>442.8</ele>
        <time>2019-07-09T05:23:30Z</time>
      </trkpt>
      <trkpt lat="39.7481060" lon="-5.2007470">
        <ele>444.0</ele>
        <time>2019-07-09T05:23:40Z</time>
      </trkpt>
      <trkpt lat="39.7478760" lon="-5.2010290">
        <ele>445.0</ele>
        <time>2019-07-09T05:23:47Z</time>
      </trkpt>
      <trkpt lat="39.7477210" lon="-5.2012370">
        <ele>445.6</ele>
        <time>2019-07-09T05:23:52Z</time>
      </trkpt>
      <trkpt lat="39.7476610" lon="-5.2013220">
        <ele>446.0</ele>
        <time>2019-07-09T05:23:54Z</time>
      </trkpt>
      <trkpt lat="39.7474550" lon="-5.2016110">
        <ele>447.2</ele>
        <time>2019-07-09T05:24:01Z</time>
      </trkpt>
      <trkpt lat="39.7474000" lon="-5.2016970">
        <ele>447.4</ele>
        <time>2019-07-09T05:24:03Z</time>
      </trkpt>
      <trkpt lat="39.7472670" lon="-5.2019120">
        <ele>448.2</ele>
        <time>2019-07-09T05:24:08Z</time>
      </trkpt>
      <trkpt lat="39.7471230" lon="-5.2021830">
        <ele>449.4</ele>
        <time>2019-07-09T05:24:14Z</time>
      </trkpt>
      <trkpt lat="39.7470160" lon="-5.2023480">
        <ele>449.8</ele>
        <time>2019-07-09T05:24:18Z</time>
      </trkpt>
      <trkpt lat="39.7469150" lon="-5.2024190">
        <ele>450.2</ele>
        <time>2019-07-09T05:24:21Z</time>
      </trkpt>
      <trkpt lat="39.7468380" lon="-5.2024260">
        <ele>450.4</ele>
        <time>2019-07-09T05:24:23Z</time>
      </trkpt>
      <trkpt lat="39.7467540" lon="-5.2024070">
        <ele>450.6</ele>
        <time>2019-07-09T05:24:25Z</time>
      </trkpt>
      <trkpt lat="39.7467080" lon="-5.2023950">
        <ele>450.6</ele>
        <time>2019-07-09T05:24:26Z</time>
      </trkpt>
      <trkpt lat="39.7466050" lon="-5.2023650">
        <ele>450.2</ele>
        <time>2019-07-09T05:24:28Z</time>
      </trkpt>
      <trkpt lat="39.7464220" lon="-5.2023350">
        <ele>449.4</ele>
        <time>2019-07-09T05:24:31Z</time>
      </trkpt>
      <trkpt lat="39.7463550" lon="-5.2023360">
        <ele>448.8</ele>
        <time>2019-07-09T05:24:32Z</time>
      </trkpt>
      <trkpt lat="39.7462160" lon="-5.2023630">
        <ele>448.2</ele>
        <time>2019-07-09T05:24:34Z</time>
      </trkpt>
      <trkpt lat="39.7461480" lon="-5.2023830">
        <ele>448.0</ele>
        <time>2019-07-09T05:24:35Z</time>
      </trkpt>
      <trkpt lat="39.7460180" lon="-5.2024170">
        <ele>447.6</ele>
        <time>2019-07-09T05:24:37Z</time>
      </trkpt>
      <trkpt lat="39.7457900" lon="-5.2024380">
        <ele>447.8</ele>
        <time>2019-07-09T05:24:41Z</time>
      </trkpt>
      <trkpt lat="39.7455460" lon="-5.2023340">
        <ele>448.4</ele>
        <time>2019-07-09T05:24:46Z</time>
      </trkpt>
      <trkpt lat="39.7454650" lon="-5.2022680">
        <ele>448.8</ele>
        <time>2019-07-09T05:24:48Z</time>
      </trkpt>
      <trkpt lat="39.7452600" lon="-5.2020890">
        <ele>449.2</ele>
        <time>2019-07-09T05:24:53Z</time>
      </trkpt>
      <trkpt lat="39.7452180" lon="-5.2020520">
        <ele>449.4</ele>
        <time>2019-07-09T05:24:54Z</time>
      </trkpt>
      <trkpt lat="39.7450070" lon="-5.2018790">
        <ele>449.8</ele>
        <time>2019-07-09T05:24:59Z</time>
      </trkpt>
      <trkpt lat="39.7448670" lon="-5.2017940">
        <ele>450.0</ele>
        <time>2019-07-09T05:25:02Z</time>
      </trkpt>
      <trkpt lat="39.7445110" lon="-5.2016870">
        <ele>450.2</ele>
        <time>2019-07-09T05:25:09Z</time>
      </trkpt>
      <trkpt lat="39.7441750" lon="-5.2016750">
        <ele>450.2</ele>
        <time>2019-07-09T05:25:16Z</time>
      </trkpt>
      <trkpt lat="39.7437530" lon="-5.2016790">
        <ele>450.2</ele>
        <time>2019-07-09T05:25:24Z</time>
      </trkpt>
      <trkpt lat="39.7432410" lon="-5.2016800">
        <ele>449.8</ele>
        <time>2019-07-09T05:25:33Z</time>
      </trkpt>
      <trkpt lat="39.7430270" lon="-5.2016860">
        <ele>450.2</ele>
        <time>2019-07-09T05:25:37Z</time>
      </trkpt>
      <trkpt lat="39.7428270" lon="-5.2016750">
        <ele>450.6</ele>
        <time>2019-07-09T05:25:41Z</time>
      </trkpt>
      <trkpt lat="39.7427780" lon="-5.2016720">
        <ele>450.6</ele>
        <time>2019-07-09T05:25:42Z</time>
      </trkpt>
      <trkpt lat="39.7425890" lon="-5.2016730">
        <ele>451.4</ele>
        <time>2019-07-09T05:25:46Z</time>
      </trkpt>
      <trkpt lat="39.7423600" lon="-5.2016770">
        <ele>452.2</ele>
        <time>2019-07-09T05:25:51Z</time>
      </trkpt>
      <trkpt lat="39.7422260" lon="-5.2016810">
        <ele>452.4</ele>
        <time>2019-07-09T05:25:54Z</time>
      </trkpt>
      <trkpt lat="39.7420920" lon="-5.2016800">
        <ele>453.0</ele>
        <time>2019-07-09T05:25:57Z</time>
      </trkpt>
      <trkpt lat="39.7420480" lon="-5.2016890">
        <ele>453.2</ele>
        <time>2019-07-09T05:25:58Z</time>
      </trkpt>
      <trkpt lat="39.7419190" lon="-5.2017270">
        <ele>453.8</ele>
        <time>2019-07-09T05:26:01Z</time>
      </trkpt>
      <trkpt lat="39.7417220" lon="-5.2018240">
        <ele>454.4</ele>
        <time>2019-07-09T05:26:06Z</time>
      </trkpt>
      <trkpt lat="39.7416840" lon="-5.2018490">
        <ele>454.6</ele>
        <time>2019-07-09T05:26:07Z</time>
      </trkpt>
      <trkpt lat="39.7416460" lon="-5.2018720">
        <ele>454.8</ele>
        <time>2019-07-09T05:26:08Z</time>
      </trkpt>
      <trkpt lat="39.7414720" lon="-5.2019940">
        <ele>456.0</ele>
        <time>2019-07-09T05:26:13Z</time>
      </trkpt>
      <trkpt lat="39.7414090" lon="-5.2020380">
        <ele>456.6</ele>
        <time>2019-07-09T05:26:15Z</time>
      </trkpt>
      <trkpt lat="39.7413470" lon="-5.2020800">
        <ele>457.2</ele>
        <time>2019-07-09T05:26:17Z</time>
      </trkpt>
      <trkpt lat="39.7412190" lon="-5.2021610">
        <ele>458.2</ele>
        <time>2019-07-09T05:26:21Z</time>
      </trkpt>
      <trkpt lat="39.7410940" lon="-5.2022480">
        <ele>459.4</ele>
        <time>2019-07-09T05:26:25Z</time>
      </trkpt>
      <trkpt lat="39.7410000" lon="-5.2023090">
        <ele>460.0</ele>
        <time>2019-07-09T05:26:28Z</time>
      </trkpt>
      <trkpt lat="39.7409390" lon="-5.2023490">
        <ele>460.4</ele>
        <time>2019-07-09T05:26:30Z</time>
      </trkpt>
      <trkpt lat="39.7408160" lon="-5.2024410">
        <ele>461.4</ele>
        <time>2019-07-09T05:26:34Z</time>
      </trkpt>
      <trkpt lat="39.7406650" lon="-5.2025800">
        <ele>462.4</ele>
        <time>2019-07-09T05:26:39Z</time>
      </trkpt>
      <trkpt lat="39.7405530" lon="-5.2026970">
        <ele>463.2</ele>
        <time>2019-07-09T05:26:43Z</time>
      </trkpt>
      <trkpt lat="39.7405250" lon="-5.2027250">
        <ele>463.4</ele>
        <time>2019-07-09T05:26:44Z</time>
      </trkpt>
      <trkpt lat="39.7403240" lon="-5.2029220">
        <ele>464.6</ele>
        <time>2019-07-09T05:26:51Z</time>
      </trkpt>
      <trkpt lat="39.7402940" lon="-5.2029480">
        <ele>464.8</ele>
        <time>2019-07-09T05:26:52Z</time>
      </trkpt>
      <trkpt lat="39.7401650" lon="-5.2030380">
        <ele>465.8</ele>
        <time>2019-07-09T05:26:56Z</time>
      </trkpt>
      <trkpt lat="39.7400100" lon="-5.2031230">
        <ele>466.0</ele>
        <time>2019-07-09T05:27:00Z</time>
      </trkpt>
      <trkpt lat="39.7398170" lon="-5.2031630">
        <ele>465.8</ele>
        <time>2019-07-09T05:27:04Z</time>
      </trkpt>
      <trkpt lat="39.7397130" lon="-5.2031620">
        <ele>465.6</ele>
        <time>2019-07-09T05:27:06Z</time>
      </trkpt>
      <trkpt lat="39.7395000" lon="-5.2031490">
        <ele>465.4</ele>
        <time>2019-07-09T05:27:10Z</time>
      </trkpt>
      <trkpt lat="39.7392860" lon="-5.2031170">
        <ele>465.4</ele>
        <time>2019-07-09T05:27:14Z</time>
      </trkpt>
      <trkpt lat="39.7391790" lon="-5.2031030">
        <ele>465.4</ele>
        <time>2019-07-09T05:27:16Z</time>
      </trkpt>
      <trkpt lat="39.7390720" lon="-5.2030950">
        <ele>465.4</ele>
        <time>2019-07-09T05:27:18Z</time>
      </trkpt>
      <trkpt lat="39.7388560" lon="-5.2030780">
        <ele>465.6</ele>
        <time>2019-07-09T05:27:22Z</time>
      </trkpt>
      <trkpt lat="39.7386930" lon="-5.2030580">
        <ele>466.0</ele>
        <time>2019-07-09T05:27:25Z</time>
      </trkpt>
      <trkpt lat="39.7385850" lon="-5.2030470">
        <ele>466.0</ele>
        <time>2019-07-09T05:27:27Z</time>
      </trkpt>
      <trkpt lat="39.7383120" lon="-5.2030150">
        <ele>466.2</ele>
        <time>2019-07-09T05:27:32Z</time>
      </trkpt>
      <trkpt lat="39.7380970" lon="-5.2029790">
        <ele>466.2</ele>
        <time>2019-07-09T05:27:36Z</time>
      </trkpt>
      <trkpt lat="39.7379420" lon="-5.2029590">
        <ele>466.4</ele>
        <time>2019-07-09T05:27:39Z</time>
      </trkpt>
      <trkpt lat="39.7378480" lon="-5.2029460">
        <ele>466.8</ele>
        <time>2019-07-09T05:27:41Z</time>
      </trkpt>
      <trkpt lat="39.7377580" lon="-5.2029250">
        <ele>467.2</ele>
        <time>2019-07-09T05:27:43Z</time>
      </trkpt>
      <trkpt lat="39.7376230" lon="-5.2028920">
        <ele>467.8</ele>
        <time>2019-07-09T05:27:46Z</time>
      </trkpt>
      <trkpt lat="39.7373380" lon="-5.2027890">
        <ele>468.4</ele>
        <time>2019-07-09T05:27:52Z</time>
      </trkpt>
      <trkpt lat="39.7370760" lon="-5.2026790">
        <ele>468.0</ele>
        <time>2019-07-09T05:27:57Z</time>
      </trkpt>
      <trkpt lat="39.7369060" lon="-5.2026140">
        <ele>467.6</ele>
        <time>2019-07-09T05:28:00Z</time>
      </trkpt>
      <trkpt lat="39.7365760" lon="-5.2024780">
        <ele>467.0</ele>
        <time>2019-07-09T05:28:06Z</time>
      </trkpt>
      <trkpt lat="39.7364700" lon="-5.2024340">
        <ele>467.0</ele>
        <time>2019-07-09T05:28:08Z</time>
      </trkpt>
      <trkpt lat="39.7362960" lon="-5.2023600">
        <ele>466.6</ele>
        <time>2019-07-09T05:28:11Z</time>
      </trkpt>
      <trkpt lat="39.7360900" lon="-5.2022740">
        <ele>466.0</ele>
        <time>2019-07-09T05:28:14Z</time>
      </trkpt>
      <trkpt lat="39.7359380" lon="-5.2022210">
        <ele>465.4</ele>
        <time>2019-07-09T05:28:16Z</time>
      </trkpt>
      <trkpt lat="39.7357730" lon="-5.2021970">
        <ele>464.6</ele>
        <time>2019-07-09T05:28:18Z</time>
      </trkpt>
      <trkpt lat="39.7356870" lon="-5.2022040">
        <ele>463.8</ele>
        <time>2019-07-09T05:28:19Z</time>
      </trkpt>
      <trkpt lat="39.7355170" lon="-5.2022440">
        <ele>462.8</ele>
        <time>2019-07-09T05:28:21Z</time>
      </trkpt>
      <trkpt lat="39.7354350" lon="-5.2022700">
        <ele>462.4</ele>
        <time>2019-07-09T05:28:22Z</time>
      </trkpt>
      <trkpt lat="39.7351990" lon="-5.2023450">
        <ele>461.8</ele>
        <time>2019-07-09T05:28:25Z</time>
      </trkpt>
      <trkpt lat="39.7350580" lon="-5.2024030">
        <ele>461.8</ele>
        <time>2019-07-09T05:28:27Z</time>
      </trkpt>
      <trkpt lat="39.7349940" lon="-5.2024320">
        <ele>462.0</ele>
        <time>2019-07-09T05:28:28Z</time>
      </trkpt>
      <trkpt lat="39.7348780" lon="-5.2024820">
        <ele>462.2</ele>
        <time>2019-07-09T05:28:30Z</time>
      </trkpt>
      <trkpt lat="39.7347290" lon="-5.2025210">
        <ele>463.2</ele>
        <time>2019-07-09T05:28:33Z</time>
      </trkpt>
      <trkpt lat="39.7345940" lon="-5.2025340">
        <ele>464.2</ele>
        <time>2019-07-09T05:28:36Z</time>
      </trkpt>
      <trkpt lat="39.7345490" lon="-5.2025310">
        <ele>464.6</ele>
        <time>2019-07-09T05:28:37Z</time>
      </trkpt>
      <trkpt lat="39.7344620" lon="-5.2025150">
        <ele>465.2</ele>
        <time>2019-07-09T05:28:39Z</time>
      </trkpt>
      <trkpt lat="39.7343780" lon="-5.2024930">
        <ele>465.6</ele>
        <time>2019-07-09T05:28:41Z</time>
      </trkpt>
      <trkpt lat="39.7342930" lon="-5.2024600">
        <ele>466.0</ele>
        <time>2019-07-09T05:28:43Z</time>
      </trkpt>
      <trkpt lat="39.7341620" lon="-5.2023830">
        <ele>466.2</ele>
        <time>2019-07-09T05:28:46Z</time>
      </trkpt>
      <trkpt lat="39.7340140" lon="-5.2022970">
        <ele>466.2</ele>
        <time>2019-07-09T05:28:49Z</time>
      </trkpt>
      <trkpt lat="39.7338440" lon="-5.2021900">
        <ele>465.8</ele>
        <time>2019-07-09T05:28:52Z</time>
      </trkpt>
      <trkpt lat="39.7337130" lon="-5.2021180">
        <ele>465.2</ele>
        <time>2019-07-09T05:28:54Z</time>
      </trkpt>
      <trkpt lat="39.7335690" lon="-5.2020710">
        <ele>464.6</ele>
        <time>2019-07-09T05:28:56Z</time>
      </trkpt>
      <trkpt lat="39.7334960" lon="-5.2020580">
        <ele>464.2</ele>
        <time>2019-07-09T05:28:57Z</time>
      </trkpt>
      <trkpt lat="39.7332890" lon="-5.2020980">
        <ele>463.8</ele>
        <time>2019-07-09T05:29:00Z</time>
      </trkpt>
      <trkpt lat="39.7332270" lon="-5.2021290">
        <ele>463.8</ele>
        <time>2019-07-09T05:29:01Z</time>
      </trkpt>
      <trkpt lat="39.7328900" lon="-5.2023120">
        <ele>464.0</ele>
        <time>2019-07-09T05:29:07Z</time>
      </trkpt>
      <trkpt lat="39.7325390" lon="-5.2025080">
        <ele>465.0</ele>
        <time>2019-07-09T05:29:14Z</time>
      </trkpt>
      <trkpt lat="39.7323550" lon="-5.2026080">
        <ele>465.6</ele>
        <time>2019-07-09T05:29:18Z</time>
      </trkpt>
      <trkpt lat="39.7322630" lon="-5.2026360">
        <ele>465.8</ele>
        <time>2019-07-09T05:29:20Z</time>
      </trkpt>
      <trkpt lat="39.7320740" lon="-5.2026700">
        <ele>466.6</ele>
        <time>2019-07-09T05:29:24Z</time>
      </trkpt>
      <trkpt lat="39.7319340" lon="-5.2026750">
        <ele>467.4</ele>
        <time>2019-07-09T05:29:27Z</time>
      </trkpt>
      <trkpt lat="39.7318880" lon="-5.2026730">
        <ele>467.6</ele>
        <time>2019-07-09T05:29:28Z</time>
      </trkpt>
      <trkpt lat="39.7318430" lon="-5.2026690">
        <ele>467.8</ele>
        <time>2019-07-09T05:29:29Z</time>
      </trkpt>
      <trkpt lat="39.7316620" lon="-5.2026330">
        <ele>468.8</ele>
        <time>2019-07-09T05:29:33Z</time>
      </trkpt>
      <trkpt lat="39.7315320" lon="-5.2025890">
        <ele>469.4</ele>
        <time>2019-07-09T05:29:36Z</time>
      </trkpt>
      <trkpt lat="39.7314490" lon="-5.2025510">
        <ele>470.0</ele>
        <time>2019-07-09T05:29:38Z</time>
      </trkpt>
      <trkpt lat="39.7312910" lon="-5.2024450">
        <ele>470.8</ele>
        <time>2019-07-09T05:29:42Z</time>
      </trkpt>
      <trkpt lat="39.7312510" lon="-5.2024090">
        <ele>470.8</ele>
        <time>2019-07-09T05:29:43Z</time>
      </trkpt>
      <trkpt lat="39.7311720" lon="-5.2023330">
        <ele>471.0</ele>
        <time>2019-07-09T05:29:45Z</time>
      </trkpt>
      <trkpt lat="39.7309560" lon="-5.2021050">
        <ele>470.8</ele>
        <time>2019-07-09T05:29:50Z</time>
      </trkpt>
      <trkpt lat="39.7307670" lon="-5.2018860">
        <ele>470.0</ele>
        <time>2019-07-09T05:29:54Z</time>
      </trkpt>
      <trkpt lat="39.7306690" lon="-5.2017730">
        <ele>469.6</ele>
        <time>2019-07-09T05:29:56Z</time>
      </trkpt>
      <trkpt lat="39.7305670" lon="-5.2016580">
        <ele>469.4</ele>
        <time>2019-07-09T05:29:58Z</time>
      </trkpt>
      <trkpt lat="39.7304130" lon="-5.2014790">
        <ele>468.8</ele>
        <time>2019-07-09T05:30:01Z</time>
      </trkpt>
      <trkpt lat="39.7303080" lon="-5.2013610">
        <ele>468.6</ele>
        <time>2019-07-09T05:30:03Z</time>
      </trkpt>
      <trkpt lat="39.7302000" lon="-5.2012420">
        <ele>468.0</ele>
        <time>2019-07-09T05:30:05Z</time>
      </trkpt>
      <trkpt lat="39.7301460" lon="-5.2011830">
        <ele>468.0</ele>
        <time>2019-07-09T05:30:06Z</time>
      </trkpt>
      <trkpt lat="39.7300400" lon="-5.2010670">
        <ele>467.8</ele>
        <time>2019-07-09T05:30:08Z</time>
      </trkpt>
      <trkpt lat="39.7297890" lon="-5.2007930">
        <ele>468.0</ele>
        <time>2019-07-09T05:30:13Z</time>
      </trkpt>
      <trkpt lat="39.7297420" lon="-5.2007400">
        <ele>468.0</ele>
        <time>2019-07-09T05:30:14Z</time>
      </trkpt>
      <trkpt lat="39.7296510" lon="-5.2006360">
        <ele>468.2</ele>
        <time>2019-07-09T05:30:16Z</time>
      </trkpt>
      <trkpt lat="39.7293740" lon="-5.2003580">
        <ele>469.0</ele>
        <time>2019-07-09T05:30:22Z</time>
      </trkpt>
      <trkpt lat="39.7289800" lon="-5.2001150">
        <ele>468.8</ele>
        <time>2019-07-09T05:30:29Z</time>
      </trkpt>
      <trkpt lat="39.7287230" lon="-5.2000000">
        <ele>468.4</ele>
        <time>2019-07-09T05:30:33Z</time>
      </trkpt>
      <trkpt lat="39.7284800" lon="-5.1998870">
        <ele>468.4</ele>
        <time>2019-07-09T05:30:37Z</time>
      </trkpt>
      <trkpt lat="39.7280030" lon="-5.1996540">
        <ele>469.4</ele>
        <time>2019-07-09T05:30:46Z</time>
      </trkpt>
      <trkpt lat="39.7279030" lon="-5.1996070">
        <ele>469.8</ele>
        <time>2019-07-09T05:30:48Z</time>
      </trkpt>
      <trkpt lat="39.7275460" lon="-5.1994440">
        <ele>470.6</ele>
        <time>2019-07-09T05:30:55Z</time>
      </trkpt>
      <trkpt lat="39.7272490" lon="-5.1993020">
        <ele>469.4</ele>
        <time>2019-07-09T05:31:00Z</time>
      </trkpt>
      <trkpt lat="39.7271820" lon="-5.1992710">
        <ele>469.2</ele>
        <time>2019-07-09T05:31:01Z</time>
      </trkpt>
      <trkpt lat="39.7270420" lon="-5.1992000">
        <ele>468.6</ele>
        <time>2019-07-09T05:31:03Z</time>
      </trkpt>
      <trkpt lat="39.7268170" lon="-5.1990890">
        <ele>467.2</ele>
        <time>2019-07-09T05:31:06Z</time>
      </trkpt>
      <trkpt lat="39.7266580" lon="-5.1990150">
        <ele>466.4</ele>
        <time>2019-07-09T05:31:08Z</time>
      </trkpt>
      <trkpt lat="39.7265760" lon="-5.1989770">
        <ele>466.2</ele>
        <time>2019-07-09T05:31:09Z</time>
      </trkpt>
      <trkpt lat="39.7264090" lon="-5.1988960">
        <ele>465.6</ele>
        <time>2019-07-09T05:31:11Z</time>
      </trkpt>
      <trkpt lat="39.7262370" lon="-5.1988130">
        <ele>464.6</ele>
        <time>2019-07-09T05:31:13Z</time>
      </trkpt>
      <trkpt lat="39.7261500" lon="-5.1987710">
        <ele>464.0</ele>
        <time>2019-07-09T05:31:14Z</time>
      </trkpt>
      <trkpt lat="39.7260620" lon="-5.1987310">
        <ele>463.4</ele>
        <time>2019-07-09T05:31:15Z</time>
      </trkpt>
      <trkpt lat="39.7258870" lon="-5.1986550">
        <ele>462.4</ele>
        <time>2019-07-09T05:31:17Z</time>
      </trkpt>
      <trkpt lat="39.7257080" lon="-5.1986070">
        <ele>462.0</ele>
        <time>2019-07-09T05:31:19Z</time>
      </trkpt>
      <trkpt lat="39.7256170" lon="-5.1985990">
        <ele>461.6</ele>
        <time>2019-07-09T05:31:20Z</time>
      </trkpt>
      <trkpt lat="39.7255260" lon="-5.1986030">
        <ele>461.2</ele>
        <time>2019-07-09T05:31:21Z</time>
      </trkpt>
      <trkpt lat="39.7253460" lon="-5.1986280">
        <ele>460.4</ele>
        <time>2019-07-09T05:31:23Z</time>
      </trkpt>
      <trkpt lat="39.7252570" lon="-5.1986420">
        <ele>460.2</ele>
        <time>2019-07-09T05:31:24Z</time>
      </trkpt>
      <trkpt lat="39.7249920" lon="-5.1986870">
        <ele>459.4</ele>
        <time>2019-07-09T05:31:27Z</time>
      </trkpt>
      <trkpt lat="39.7249050" lon="-5.1987000">
        <ele>459.0</ele>
        <time>2019-07-09T05:31:28Z</time>
      </trkpt>
      <trkpt lat="39.7245590" lon="-5.1987510">
        <ele>457.8</ele>
        <time>2019-07-09T05:31:32Z</time>
      </trkpt>
      <trkpt lat="39.7243060" lon="-5.1988070">
        <ele>457.2</ele>
        <time>2019-07-09T05:31:35Z</time>
      </trkpt>
      <trkpt lat="39.7241400" lon="-5.1988320">
        <ele>456.8</ele>
        <time>2019-07-09T05:31:37Z</time>
      </trkpt>
      <trkpt lat="39.7237320" lon="-5.1988360">
        <ele>456.0</ele>
        <time>2019-07-09T05:31:42Z</time>
      </trkpt>
      <trkpt lat="39.7236530" lon="-5.1988180">
        <ele>455.8</ele>
        <time>2019-07-09T05:31:43Z</time>
      </trkpt>
      <trkpt lat="39.7233520" lon="-5.1986950">
        <ele>455.0</ele>
        <time>2019-07-09T05:31:47Z</time>
      </trkpt>
      <trkpt lat="39.7232000" lon="-5.1986320">
        <ele>454.6</ele>
        <time>2019-07-09T05:31:49Z</time>
      </trkpt>
      <trkpt lat="39.7231240" lon="-5.1986000">
        <ele>454.6</ele>
        <time>2019-07-09T05:31:50Z</time>
      </trkpt>
      <trkpt lat="39.7229700" lon="-5.1985320">
        <ele>454.4</ele>
        <time>2019-07-09T05:31:52Z</time>
      </trkpt>
      <trkpt lat="39.7225870" lon="-5.1983600">
        <ele>453.6</ele>
        <time>2019-07-09T05:31:57Z</time>
      </trkpt>
      <trkpt lat="39.7225130" lon="-5.1983270">
        <ele>453.2</ele>
        <time>2019-07-09T05:31:58Z</time>
      </trkpt>
      <trkpt lat="39.7220920" lon="-5.1981390">
        <ele>452.8</ele>
        <time>2019-07-09T05:32:04Z</time>
      </trkpt>
      <trkpt lat="39.7219650" lon="-5.1980830">
        <ele>452.8</ele>
        <time>2019-07-09T05:32:06Z</time>
      </trkpt>
      <trkpt lat="39.7217870" lon="-5.1980070">
        <ele>453.0</ele>
        <time>2019-07-09T05:32:09Z</time>
      </trkpt>
      <trkpt lat="39.7216100" lon="-5.1979910">
        <ele>453.2</ele>
        <time>2019-07-09T05:32:12Z</time>
      </trkpt>
      <trkpt lat="39.7214450" lon="-5.1980670">
        <ele>453.4</ele>
        <time>2019-07-09T05:32:15Z</time>
      </trkpt>
      <trkpt lat="39.7213970" lon="-5.1981090">
        <ele>453.4</ele>
        <time>2019-07-09T05:32:16Z</time>
      </trkpt>
      <trkpt lat="39.7213180" lon="-5.1982070">
        <ele>453.8</ele>
        <time>2019-07-09T05:32:18Z</time>
      </trkpt>
      <trkpt lat="39.7212180" lon="-5.1983720">
        <ele>454.0</ele>
        <time>2019-07-09T05:32:21Z</time>
      </trkpt>
      <trkpt lat="39.7211270" lon="-5.1985420">
        <ele>454.6</ele>
        <time>2019-07-09T05:32:24Z</time>
      </trkpt>
      <trkpt lat="39.7210680" lon="-5.1986510">
        <ele>455.2</ele>
        <time>2019-07-09T05:32:26Z</time>
      </trkpt>
      <trkpt lat="39.7210080" lon="-5.1987540">
        <ele>455.4</ele>
        <time>2019-07-09T05:32:28Z</time>
      </trkpt>
      <trkpt lat="39.7209770" lon="-5.1988050">
        <ele>455.6</ele>
        <time>2019-07-09T05:32:29Z</time>
      </trkpt>
      <trkpt lat="39.7209190" lon="-5.1989040">
        <ele>456.0</ele>
        <time>2019-07-09T05:32:31Z</time>
      </trkpt>
      <trkpt lat="39.7208650" lon="-5.1990020">
        <ele>456.6</ele>
        <time>2019-07-09T05:32:33Z</time>
      </trkpt>
      <trkpt lat="39.7208400" lon="-5.1990520">
        <ele>456.8</ele>
        <time>2019-07-09T05:32:34Z</time>
      </trkpt>
      <trkpt lat="39.7207870" lon="-5.1991500">
        <ele>457.2</ele>
        <time>2019-07-09T05:32:36Z</time>
      </trkpt>
      <trkpt lat="39.7207300" lon="-5.1992450">
        <ele>457.6</ele>
        <time>2019-07-09T05:32:38Z</time>
      </trkpt>
      <trkpt lat="39.7207020" lon="-5.1992920">
        <ele>458.0</ele>
        <time>2019-07-09T05:32:39Z</time>
      </trkpt>
      <trkpt lat="39.7206200" lon="-5.1994300">
        <ele>458.8</ele>
        <time>2019-07-09T05:32:42Z</time>
      </trkpt>
      <trkpt lat="39.7205670" lon="-5.1995200">
        <ele>459.0</ele>
        <time>2019-07-09T05:32:44Z</time>
      </trkpt>
      <trkpt lat="39.7204830" lon="-5.1996440">
        <ele>459.8</ele>
        <time>2019-07-09T05:32:47Z</time>
      </trkpt>
      <trkpt lat="39.7204270" lon="-5.1997220">
        <ele>460.2</ele>
        <time>2019-07-09T05:32:49Z</time>
      </trkpt>
      <trkpt lat="39.7203060" lon="-5.1998600">
        <ele>461.4</ele>
        <time>2019-07-09T05:32:53Z</time>
      </trkpt>
      <trkpt lat="39.7202140" lon="-5.1999440">
        <ele>462.2</ele>
        <time>2019-07-09T05:32:56Z</time>
      </trkpt>
      <trkpt lat="39.7201860" lon="-5.1999690">
        <ele>462.4</ele>
        <time>2019-07-09T05:32:57Z</time>
      </trkpt>
      <trkpt lat="39.7200470" lon="-5.2000600">
        <ele>463.8</ele>
        <time>2019-07-09T05:33:02Z</time>
      </trkpt>
      <trkpt lat="39.7200170" lon="-5.2000730">
        <ele>464.0</ele>
        <time>2019-07-09T05:33:03Z</time>
      </trkpt>
      <trkpt lat="39.7199280" lon="-5.2001030">
        <ele>464.8</ele>
        <time>2019-07-09T05:33:06Z</time>
      </trkpt>
      <trkpt lat="39.7197360" lon="-5.2001200">
        <ele>465.8</ele>
        <time>2019-07-09T05:33:12Z</time>
      </trkpt>
      <trkpt lat="39.7195520" lon="-5.2001030">
        <ele>467.0</ele>
        <time>2019-07-09T05:33:18Z</time>
      </trkpt>
      <trkpt lat="39.7194650" lon="-5.2000720">
        <ele>467.6</ele>
        <time>2019-07-09T05:33:21Z</time>
      </trkpt>
      <trkpt lat="39.7194370" lon="-5.2000560">
        <ele>468.0</ele>
        <time>2019-07-09T05:33:22Z</time>
      </trkpt>
      <trkpt lat="39.7192240" lon="-5.1999460">
        <ele>469.2</ele>
        <time>2019-07-09T05:33:29Z</time>
      </trkpt>
      <trkpt lat="39.7190600" lon="-5.1998740">
        <ele>470.0</ele>
        <time>2019-07-09T05:33:34Z</time>
      </trkpt>
      <trkpt lat="39.7189630" lon="-5.1998240">
        <ele>470.4</ele>
        <time>2019-07-09T05:33:37Z</time>
      </trkpt>
      <trkpt lat="39.7188000" lon="-5.1997470">
        <ele>471.2</ele>
        <time>2019-07-09T05:33:42Z</time>
      </trkpt>
      <trkpt lat="39.7186720" lon="-5.1996940">
        <ele>471.8</ele>
        <time>2019-07-09T05:33:46Z</time>
      </trkpt>
      <trkpt lat="39.7186100" lon="-5.1996730">
        <ele>472.2</ele>
        <time>2019-07-09T05:33:48Z</time>
      </trkpt>
      <trkpt lat="39.7184850" lon="-5.1996490">
        <ele>473.2</ele>
        <time>2019-07-09T05:33:52Z</time>
      </trkpt>
      <trkpt lat="39.7184210" lon="-5.1996380">
        <ele>473.8</ele>
        <time>2019-07-09T05:33:54Z</time>
      </trkpt>
      <trkpt lat="39.7182920" lon="-5.1996160">
        <ele>474.4</ele>
        <time>2019-07-09T05:33:58Z</time>
      </trkpt>
      <trkpt lat="39.7180990" lon="-5.1995890">
        <ele>475.4</ele>
        <time>2019-07-09T05:34:04Z</time>
      </trkpt>
      <trkpt lat="39.7179120" lon="-5.1995580">
        <ele>476.6</ele>
        <time>2019-07-09T05:34:10Z</time>
      </trkpt>
      <trkpt lat="39.7178170" lon="-5.1995450">
        <ele>477.4</ele>
        <time>2019-07-09T05:34:13Z</time>
      </trkpt>
      <trkpt lat="39.7177220" lon="-5.1995260">
        <ele>477.8</ele>
        <time>2019-07-09T05:34:16Z</time>
      </trkpt>
      <trkpt lat="39.7175610" lon="-5.1995020">
        <ele>478.8</ele>
        <time>2019-07-09T05:34:21Z</time>
      </trkpt>
      <trkpt lat="39.7175280" lon="-5.1994970">
        <ele>478.8</ele>
        <time>2019-07-09T05:34:22Z</time>
      </trkpt>
      <trkpt lat="39.7173290" lon="-5.1994640">
        <ele>480.0</ele>
        <time>2019-07-09T05:34:28Z</time>
      </trkpt>
      <trkpt lat="39.7171520" lon="-5.1994390">
        <ele>481.0</ele>
        <time>2019-07-09T05:34:33Z</time>
      </trkpt>
      <trkpt lat="39.7170160" lon="-5.1994150">
        <ele>481.8</ele>
        <time>2019-07-09T05:34:37Z</time>
      </trkpt>
      <trkpt lat="39.7169510" lon="-5.1994030">
        <ele>482.4</ele>
        <time>2019-07-09T05:34:39Z</time>
      </trkpt>
      <trkpt lat="39.7168210" lon="-5.1993780">
        <ele>483.4</ele>
        <time>2019-07-09T05:34:43Z</time>
      </trkpt>
      <trkpt lat="39.7166890" lon="-5.1993590">
        <ele>484.4</ele>
        <time>2019-07-09T05:34:47Z</time>
      </trkpt>
      <trkpt lat="39.7166560" lon="-5.1993530">
        <ele>484.6</ele>
        <time>2019-07-09T05:34:48Z</time>
      </trkpt>
      <trkpt lat="39.7164810" lon="-5.1993450">
        <ele>485.6</ele>
        <time>2019-07-09T05:34:53Z</time>
      </trkpt>
      <trkpt lat="39.7164080" lon="-5.1993450">
        <ele>485.8</ele>
        <time>2019-07-09T05:34:55Z</time>
      </trkpt>
      <trkpt lat="39.7161780" lon="-5.1993910">
        <ele>486.0</ele>
        <time>2019-07-09T05:35:01Z</time>
      </trkpt>
      <trkpt lat="39.7160610" lon="-5.1994410">
        <ele>486.2</ele>
        <time>2019-07-09T05:35:04Z</time>
      </trkpt>
      <trkpt lat="39.7159820" lon="-5.1994790">
        <ele>486.4</ele>
        <time>2019-07-09T05:35:06Z</time>
      </trkpt>
      <trkpt lat="39.7159420" lon="-5.1994990">
        <ele>486.4</ele>
        <time>2019-07-09T05:35:07Z</time>
      </trkpt>
      <trkpt lat="39.7158620" lon="-5.1995490">
        <ele>486.6</ele>
        <time>2019-07-09T05:35:09Z</time>
      </trkpt>
      <trkpt lat="39.7158230" lon="-5.1995800">
        <ele>486.6</ele>
        <time>2019-07-09T05:35:10Z</time>
      </trkpt>
      <trkpt lat="39.7157060" lon="-5.1996790">
        <ele>486.6</ele>
        <time>2019-07-09T05:35:13Z</time>
      </trkpt>
      <trkpt lat="39.7155960" lon="-5.1998040">
        <ele>486.6</ele>
        <time>2019-07-09T05:35:16Z</time>
      </trkpt>
      <trkpt lat="39.7155600" lon="-5.1998500">
        <ele>486.6</ele>
        <time>2019-07-09T05:35:17Z</time>
      </trkpt>
      <trkpt lat="39.7154100" lon="-5.2000480">
        <ele>486.6</ele>
        <time>2019-07-09T05:35:21Z</time>
      </trkpt>
      <trkpt lat="39.7152180" lon="-5.2003070">
        <ele>486.6</ele>
        <time>2019-07-09T05:35:26Z</time>
      </trkpt>
      <trkpt lat="39.7149230" lon="-5.2007090">
        <ele>487.0</ele>
        <time>2019-07-09T05:35:34Z</time>
      </trkpt>
      <trkpt lat="39.7147920" lon="-5.2008870">
        <ele>487.4</ele>
        <time>2019-07-09T05:35:38Z</time>
      </trkpt>
      <trkpt lat="39.7147620" lon="-5.2009280">
        <ele>487.6</ele>
        <time>2019-07-09T05:35:39Z</time>
      </trkpt>
      <trkpt lat="39.7146360" lon="-5.2010770">
        <ele>488.6</ele>
        <time>2019-07-09T05:35:43Z</time>
      </trkpt>
      <trkpt lat="39.7146030" lon="-5.2011100">
        <ele>489.0</ele>
        <time>2019-07-09T05:35:44Z</time>
      </trkpt>
      <trkpt lat="39.7145340" lon="-5.2011700">
        <ele>489.6</ele>
        <time>2019-07-09T05:35:46Z</time>
      </trkpt>
      <trkpt lat="39.7144590" lon="-5.2012190">
        <ele>490.0</ele>
        <time>2019-07-09T05:35:48Z</time>
      </trkpt>
      <trkpt lat="39.7143090" lon="-5.2012960">
        <ele>490.8</ele>
        <time>2019-07-09T05:35:52Z</time>
      </trkpt>
      <trkpt lat="39.7142700" lon="-5.2013100">
        <ele>491.0</ele>
        <time>2019-07-09T05:35:53Z</time>
      </trkpt>
      <trkpt lat="39.7140620" lon="-5.2013630">
        <ele>492.0</ele>
        <time>2019-07-09T05:35:58Z</time>
      </trkpt>
      <trkpt lat="39.7139320" lon="-5.2014020">
        <ele>492.4</ele>
        <time>2019-07-09T05:36:01Z</time>
      </trkpt>
      <trkpt lat="39.7136250" lon="-5.2014660">
        <ele>493.0</ele>
        <time>2019-07-09T05:36:08Z</time>
      </trkpt>
      <trkpt lat="39.7135810" lon="-5.2014760">
        <ele>493.0</ele>
        <time>2019-07-09T05:36:09Z</time>
      </trkpt>
      <trkpt lat="39.7131950" lon="-5.2015470">
        <ele>494.0</ele>
        <time>2019-07-09T05:36:18Z</time>
      </trkpt>
      <trkpt lat="39.7131520" lon="-5.2015550">
        <ele>494.2</ele>
        <time>2019-07-09T05:36:19Z</time>
      </trkpt>
      <trkpt lat="39.7128890" lon="-5.2016060">
        <ele>494.6</ele>
        <time>2019-07-09T05:36:25Z</time>
      </trkpt>
      <trkpt lat="39.7127970" lon="-5.2016270">
        <ele>494.8</ele>
        <time>2019-07-09T05:36:27Z</time>
      </trkpt>
      <trkpt lat="39.7126500" lon="-5.2016570">
        <ele>494.8</ele>
        <time>2019-07-09T05:36:30Z</time>
      </trkpt>
      <trkpt lat="39.7123430" lon="-5.2017230">
        <ele>494.6</ele>
        <time>2019-07-09T05:36:36Z</time>
      </trkpt>
      <trkpt lat="39.7121330" lon="-5.2017620">
        <ele>494.4</ele>
        <time>2019-07-09T05:36:40Z</time>
      </trkpt>
      <trkpt lat="39.7118660" lon="-5.2018200">
        <ele>494.2</ele>
        <time>2019-07-09T05:36:45Z</time>
      </trkpt>
      <trkpt lat="39.7118100" lon="-5.2018320">
        <ele>494.2</ele>
        <time>2019-07-09T05:36:46Z</time>
      </trkpt>
      <trkpt lat="39.7115780" lon="-5.2018750">
        <ele>494.0</ele>
        <time>2019-07-09T05:36:50Z</time>
      </trkpt>
      <trkpt lat="39.7114600" lon="-5.2018990">
        <ele>493.6</ele>
        <time>2019-07-09T05:36:52Z</time>
      </trkpt>
      <trkpt lat="39.7113440" lon="-5.2019290">
        <ele>493.0</ele>
        <time>2019-07-09T05:36:54Z</time>
      </trkpt>
      <trkpt lat="39.7112900" lon="-5.2019380">
        <ele>492.8</ele>
        <time>2019-07-09T05:36:55Z</time>
      </trkpt>
      <trkpt lat="39.7111550" lon="-5.2019460">
        <ele>492.6</ele>
        <time>2019-07-09T05:36:58Z</time>
      </trkpt>
      <trkpt lat="39.7111280" lon="-5.2019410">
        <ele>492.4</ele>
        <time>2019-07-09T05:36:59Z</time>
      </trkpt>
      <trkpt lat="39.7110880" lon="-5.2019340">
        <ele>492.0</ele>
        <time>2019-07-09T05:37:01Z</time>
      </trkpt>
      <trkpt lat="39.7110600" lon="-5.2019210">
        <ele>491.8</ele>
        <time>2019-07-09T05:37:03Z</time>
      </trkpt>
      <trkpt lat="39.7110530" lon="-5.2019100">
        <ele>491.8</ele>
        <time>2019-07-09T05:37:04Z</time>
      </trkpt>
      <trkpt lat="39.7110020" lon="-5.2017830">
        <ele>491.2</ele>
        <time>2019-07-09T05:37:09Z</time>
      </trkpt>
      <trkpt lat="39.7109550" lon="-5.2017200">
        <ele>490.8</ele>
        <time>2019-07-09T05:37:11Z</time>
      </trkpt>
      <trkpt lat="39.7109180" lon="-5.2016750">
        <ele>490.4</ele>
        <time>2019-07-09T05:37:13Z</time>
      </trkpt>
      <trkpt lat="39.7107790" lon="-5.2014770">
        <ele>489.6</ele>
        <time>2019-07-09T05:37:19Z</time>
      </trkpt>
      <trkpt lat="39.7106890" lon="-5.2013480">
        <ele>489.2</ele>
        <time>2019-07-09T05:37:22Z</time>
      </trkpt>
      <trkpt lat="39.7105940" lon="-5.2012010">
        <ele>488.6</ele>
        <time>2019-07-09T05:37:25Z</time>
      </trkpt>
      <trkpt lat="39.7105330" lon="-5.2010990">
        <ele>487.8</ele>
        <time>2019-07-09T05:37:27Z</time>
      </trkpt>
      <trkpt lat="39.7104140" lon="-5.2008990">
        <ele>487.4</ele>
        <time>2019-07-09T05:37:31Z</time>
      </trkpt>
      <trkpt lat="39.7103540" lon="-5.2008110">
        <ele>487.4</ele>
        <time>2019-07-09T05:37:33Z</time>
      </trkpt>
      <trkpt lat="39.7101380" lon="-5.2005470">
        <ele>487.0</ele>
        <time>2019-07-09T05:37:41Z</time>
      </trkpt>
      <trkpt lat="39.7100520" lon="-5.2004460">
        <ele>486.2</ele>
        <time>2019-07-09T05:37:45Z</time>
      </trkpt>
      <trkpt lat="39.7100170" lon="-5.2003980">
        <ele>485.4</ele>
        <time>2019-07-09T05:37:47Z</time>
      </trkpt>
      <trkpt lat="39.7099180" lon="-5.2002620">
        <ele>485.2</ele>
        <time>2019-07-09T05:37:54Z</time>
      </trkpt>
      <trkpt lat="39.7098480" lon="-5.2002100">
        <ele>485.2</ele>
        <time>2019-07-09T05:37:58Z</time>
      </trkpt>
      <trkpt lat="39.7098100" lon="-5.2001770">
        <ele>485.2</ele>
        <time>2019-07-09T05:38:00Z</time>
      </trkpt>
      <trkpt lat="39.7097600" lon="-5.2001370">
        <ele>485.0</ele>
        <time>2019-07-09T05:38:03Z</time>
      </trkpt>
      <trkpt lat="39.7097360" lon="-5.2001140">
        <ele>485.0</ele>
        <time>2019-07-09T05:38:05Z</time>
      </trkpt>
      <trkpt lat="39.7097160" lon="-5.2000880">
        <ele>484.8</ele>
        <time>2019-07-09T05:38:07Z</time>
      </trkpt>
      <trkpt lat="39.7096820" lon="-5.2000480">
        <ele>484.8</ele>
        <time>2019-07-09T05:38:10Z</time>
      </trkpt>
      <trkpt lat="39.7096350" lon="-5.1999780">
        <ele>484.6</ele>
        <time>2019-07-09T05:38:15Z</time>
      </trkpt>
      <trkpt lat="39.7096270" lon="-5.1999700">
        <ele>484.6</ele>
        <time>2019-07-09T05:38:17Z</time>
      </trkpt>
      <trkpt lat="39.7096280" lon="-5.1999700">
        <ele>484.6</ele>
        <time>2019-07-09T05:38:18Z</time>
      </trkpt>
      <trkpt lat="39.7095940" lon="-5.1999280">
        <ele>484.4</ele>
        <time>2019-07-09T05:39:19Z</time>
      </trkpt>
      <trkpt lat="39.7095570" lon="-5.1998940">
        <ele>484.2</ele>
        <time>2019-07-09T05:39:21Z</time>
      </trkpt>
      <trkpt lat="39.7095340" lon="-5.1998720">
        <ele>484.2</ele>
        <time>2019-07-09T05:39:22Z</time>
      </trkpt>
      <trkpt lat="39.7094850" lon="-5.1998120">
        <ele>483.6</ele>
        <time>2019-07-09T05:39:24Z</time>
      </trkpt>
      <trkpt lat="39.7093740" lon="-5.1996780">
        <ele>483.2</ele>
        <time>2019-07-09T05:39:28Z</time>
      </trkpt>
      <trkpt lat="39.7093460" lon="-5.1996380">
        <ele>483.2</ele>
        <time>2019-07-09T05:39:29Z</time>
      </trkpt>
      <trkpt lat="39.7091930" lon="-5.1994520">
        <ele>483.0</ele>
        <time>2019-07-09T05:39:34Z</time>
      </trkpt>
      <trkpt lat="39.7090740" lon="-5.1993120">
        <ele>483.0</ele>
        <time>2019-07-09T05:39:38Z</time>
      </trkpt>
      <trkpt lat="39.7090150" lon="-5.1992410">
        <ele>482.8</ele>
        <time>2019-07-09T05:39:40Z</time>
      </trkpt>
      <trkpt lat="39.7089690" lon="-5.1991780">
        <ele>482.4</ele>
        <time>2019-07-09T05:39:42Z</time>
      </trkpt>
      <trkpt lat="39.7089490" lon="-5.1991560">
        <ele>482.2</ele>
        <time>2019-07-09T05:39:43Z</time>
      </trkpt>
      <trkpt lat="39.7088570" lon="-5.1990340">
        <ele>482.0</ele>
        <time>2019-07-09T05:39:49Z</time>
      </trkpt>
      <trkpt lat="39.7088340" lon="-5.1990050">
        <ele>482.0</ele>
        <time>2019-07-09T05:39:51Z</time>
      </trkpt>
      <trkpt lat="39.7087750" lon="-5.1989120">
        <ele>481.6</ele>
        <time>2019-07-09T05:39:58Z</time>
      </trkpt>
      <trkpt lat="39.7087090" lon="-5.1988340">
        <ele>481.2</ele>
        <time>2019-07-09T05:40:05Z</time>
      </trkpt>
      <trkpt lat="39.7086770" lon="-5.1988010">
        <ele>481.2</ele>
        <time>2019-07-09T05:40:09Z</time>
      </trkpt>
      <trkpt lat="39.7086560" lon="-5.1987630">
        <ele>481.2</ele>
        <time>2019-07-09T05:40:12Z</time>
      </trkpt>
      <trkpt lat="39.7085880" lon="-5.1986490">
        <ele>481.2</ele>
        <time>2019-07-09T05:40:21Z</time>
      </trkpt>
      <trkpt lat="39.7085360" lon="-5.1985640">
        <ele>480.8</ele>
        <time>2019-07-09T05:40:28Z</time>
      </trkpt>
      <trkpt lat="39.7085120" lon="-5.1985320">
        <ele>480.8</ele>
        <time>2019-07-09T05:40:33Z</time>
      </trkpt>
      <trkpt lat="39.7084990" lon="-5.1985030">
        <ele>480.4</ele>
        <time>2019-07-09T05:40:46Z</time>
      </trkpt>
      <trkpt lat="39.7084830" lon="-5.1984660">
        <ele>480.4</ele>
        <time>2019-07-09T05:40:48Z</time>
      </trkpt>
      <trkpt lat="39.7084260" lon="-5.1983820">
        <ele>480.8</ele>
        <time>2019-07-09T05:40:52Z</time>
      </trkpt>
      <trkpt lat="39.7083950" lon="-5.1983440">
        <ele>480.8</ele>
        <time>2019-07-09T05:40:54Z</time>
      </trkpt>
      <trkpt lat="39.7083370" lon="-5.1982800">
        <ele>480.6</ele>
        <time>2019-07-09T05:40:58Z</time>
      </trkpt>
      <trkpt lat="39.7082770" lon="-5.1981740">
        <ele>480.2</ele>
        <time>2019-07-09T05:41:04Z</time>
      </trkpt>
      <trkpt lat="39.7082530" lon="-5.1981350">
        <ele>480.2</ele>
        <time>2019-07-09T05:41:07Z</time>
      </trkpt>
      <trkpt lat="39.7082130" lon="-5.1980850">
        <ele>480.2</ele>
        <time>2019-07-09T05:41:12Z</time>
      </trkpt>
      <trkpt lat="39.7082010" lon="-5.1980540">
        <ele>480.2</ele>
        <time>2019-07-09T05:41:14Z</time>
      </trkpt>
      <trkpt lat="39.7081580" lon="-5.1979910">
        <ele>480.4</ele>
        <time>2019-07-09T05:41:19Z</time>
      </trkpt>
      <trkpt lat="39.7081540" lon="-5.1979760">
        <ele>480.2</ele>
        <time>2019-07-09T05:41:20Z</time>
      </trkpt>
      <trkpt lat="39.7081230" lon="-5.1979360">
        <ele>480.2</ele>
        <time>2019-07-09T05:41:24Z</time>
      </trkpt>
      <trkpt lat="39.7080920" lon="-5.1979000">
        <ele>480.0</ele>
        <time>2019-07-09T05:41:28Z</time>
      </trkpt>
      <trkpt lat="39.7080610" lon="-5.1978580">
        <ele>480.0</ele>
        <time>2019-07-09T05:41:32Z</time>
      </trkpt>
      <trkpt lat="39.7080570" lon="-5.1978180">
        <ele>480.0</ele>
        <time>2019-07-09T05:41:35Z</time>
      </trkpt>
      <trkpt lat="39.7080170" lon="-5.1977610">
        <ele>480.0</ele>
        <time>2019-07-09T05:41:41Z</time>
      </trkpt>
      <trkpt lat="39.7080050" lon="-5.1977400">
        <ele>480.0</ele>
        <time>2019-07-09T05:41:43Z</time>
      </trkpt>
      <trkpt lat="39.7080040" lon="-5.1977260">
        <ele>479.8</ele>
        <time>2019-07-09T05:41:46Z</time>
      </trkpt>
      <trkpt lat="39.7079950" lon="-5.1976940">
        <ele>479.6</ele>
        <time>2019-07-09T05:42:34Z</time>
      </trkpt>
      <trkpt lat="39.7079860" lon="-5.1976760">
        <ele>479.6</ele>
        <time>2019-07-09T05:42:35Z</time>
      </trkpt>
      <trkpt lat="39.7079750" lon="-5.1976540">
        <ele>479.6</ele>
        <time>2019-07-09T05:42:36Z</time>
      </trkpt>
      <trkpt lat="39.7079540" lon="-5.1976020">
        <ele>479.8</ele>
        <time>2019-07-09T05:42:38Z</time>
      </trkpt>
      <trkpt lat="39.7079200" lon="-5.1975050">
        <ele>479.8</ele>
        <time>2019-07-09T05:42:41Z</time>
      </trkpt>
      <trkpt lat="39.7078410" lon="-5.1972460">
        <ele>479.2</ele>
        <time>2019-07-09T05:42:47Z</time>
      </trkpt>
      <trkpt lat="39.7078020" lon="-5.1971080">
        <ele>478.8</ele>
        <time>2019-07-09T05:42:50Z</time>
      </trkpt>
      <trkpt lat="39.7077430" lon="-5.1969020">
        <ele>478.8</ele>
        <time>2019-07-09T05:42:55Z</time>
      </trkpt>
      <trkpt lat="39.7076980" lon="-5.1966750">
        <ele>479.0</ele>
        <time>2019-07-09T05:43:01Z</time>
      </trkpt>
      <trkpt lat="39.7076630" lon="-5.1965800">
        <ele>478.8</ele>
        <time>2019-07-09T05:43:05Z</time>
      </trkpt>
      <trkpt lat="39.7076500" lon="-5.1965690">
        <ele>479.0</ele>
        <time>2019-07-09T05:43:06Z</time>
      </trkpt>
      <trkpt lat="39.7076200" lon="-5.1965660">
        <ele>479.2</ele>
        <time>2019-07-09T05:43:08Z</time>
      </trkpt>
      <trkpt lat="39.7076080" lon="-5.1965740">
        <ele>479.2</ele>
        <time>2019-07-09T05:43:09Z</time>
      </trkpt>
      <trkpt lat="39.7075830" lon="-5.1965960">
        <ele>479.6</ele>
        <time>2019-07-09T05:43:11Z</time>
      </trkpt>
      <trkpt lat="39.7075680" lon="-5.1966040">
        <ele>479.8</ele>
        <time>2019-07-09T05:43:12Z</time>
      </trkpt>
      <trkpt lat="39.7075200" lon="-5.1966130">
        <ele>480.4</ele>
        <time>2019-07-09T05:43:15Z</time>
      </trkpt>
      <trkpt lat="39.7075050" lon="-5.1966130">
        <ele>480.6</ele>
        <time>2019-07-09T05:43:16Z</time>
      </trkpt>
      <trkpt lat="39.7074760" lon="-5.1966140">
        <ele>481.0</ele>
        <time>2019-07-09T05:43:18Z</time>
      </trkpt>
      <trkpt lat="39.7074200" lon="-5.1965980">
        <ele>481.8</ele>
        <time>2019-07-09T05:43:22Z</time>
      </trkpt>
      <trkpt lat="39.7074070" lon="-5.1965810">
        <ele>482.0</ele>
        <time>2019-07-09T05:43:23Z</time>
      </trkpt>
      <trkpt lat="39.7073960" lon="-5.1965610">
        <ele>482.0</ele>
        <time>2019-07-09T05:43:24Z</time>
      </trkpt>
      <trkpt lat="39.7073530" lon="-5.1964910">
        <ele>482.4</ele>
        <time>2019-07-09T05:43:27Z</time>
      </trkpt>
      <trkpt lat="39.7072340" lon="-5.1963880">
        <ele>482.8</ele>
        <time>2019-07-09T05:43:32Z</time>
      </trkpt>
      <trkpt lat="39.7071160" lon="-5.1962880">
        <ele>483.0</ele>
        <time>2019-07-09T05:43:36Z</time>
      </trkpt>
      <trkpt lat="39.7070880" lon="-5.1962580">
        <ele>483.2</ele>
        <time>2019-07-09T05:43:37Z</time>
      </trkpt>
      <trkpt lat="39.7069700" lon="-5.1961050">
        <ele>483.6</ele>
        <time>2019-07-09T05:43:42Z</time>
      </trkpt>
      <trkpt lat="39.7068540" lon="-5.1960770">
        <ele>483.6</ele>
        <time>2019-07-09T05:43:46Z</time>
      </trkpt>
      <trkpt lat="39.7067830" lon="-5.1961500">
        <ele>484.2</ele>
        <time>2019-07-09T05:43:49Z</time>
      </trkpt>
      <trkpt lat="39.7067650" lon="-5.1961860">
        <ele>484.2</ele>
        <time>2019-07-09T05:43:50Z</time>
      </trkpt>
      <trkpt lat="39.7066460" lon="-5.1963370">
        <ele>484.2</ele>
        <time>2019-07-09T05:43:55Z</time>
      </trkpt>
      <trkpt lat="39.7065050" lon="-5.1964400">
        <ele>484.4</ele>
        <time>2019-07-09T05:44:00Z</time>
      </trkpt>
      <trkpt lat="39.7063630" lon="-5.1965610">
        <ele>485.2</ele>
        <time>2019-07-09T05:44:05Z</time>
      </trkpt>
      <trkpt lat="39.7062770" lon="-5.1966230">
        <ele>486.0</ele>
        <time>2019-07-09T05:44:08Z</time>
      </trkpt>
      <trkpt lat="39.7061910" lon="-5.1966880">
        <ele>486.2</ele>
        <time>2019-07-09T05:44:11Z</time>
      </trkpt>
      <trkpt lat="39.7060770" lon="-5.1967650">
        <ele>486.6</ele>
        <time>2019-07-09T05:44:15Z</time>
      </trkpt>
      <trkpt lat="39.7059470" lon="-5.1968300">
        <ele>487.2</ele>
        <time>2019-07-09T05:44:19Z</time>
      </trkpt>
      <trkpt lat="39.7058820" lon="-5.1968630">
        <ele>487.6</ele>
        <time>2019-07-09T05:44:21Z</time>
      </trkpt>
      <trkpt lat="39.7057650" lon="-5.1969270">
        <ele>488.2</ele>
        <time>2019-07-09T05:44:25Z</time>
      </trkpt>
      <trkpt lat="39.7056840" lon="-5.1969750">
        <ele>488.6</ele>
        <time>2019-07-09T05:44:28Z</time>
      </trkpt>
      <trkpt lat="39.7055400" lon="-5.1970580">
        <ele>489.0</ele>
        <time>2019-07-09T05:44:33Z</time>
      </trkpt>
      <trkpt lat="39.7055060" lon="-5.1970800">
        <ele>488.8</ele>
        <time>2019-07-09T05:44:34Z</time>
      </trkpt>
      <trkpt lat="39.7054080" lon="-5.1971390">
        <ele>488.2</ele>
        <time>2019-07-09T05:44:37Z</time>
      </trkpt>
      <trkpt lat="39.7053320" lon="-5.1971950">
        <ele>487.6</ele>
        <time>2019-07-09T05:44:39Z</time>
      </trkpt>
      <trkpt lat="39.7052940" lon="-5.1972290">
        <ele>487.2</ele>
        <time>2019-07-09T05:44:40Z</time>
      </trkpt>
      <trkpt lat="39.7052560" lon="-5.1972730">
        <ele>486.6</ele>
        <time>2019-07-09T05:44:41Z</time>
      </trkpt>
      <trkpt lat="39.7051780" lon="-5.1973830">
        <ele>485.8</ele>
        <time>2019-07-09T05:44:43Z</time>
      </trkpt>
      <trkpt lat="39.7051400" lon="-5.1974430">
        <ele>485.2</ele>
        <time>2019-07-09T05:44:44Z</time>
      </trkpt>
      <trkpt lat="39.7050720" lon="-5.1975660">
        <ele>484.0</ele>
        <time>2019-07-09T05:44:46Z</time>
      </trkpt>
      <trkpt lat="39.7050190" lon="-5.1976810">
        <ele>483.0</ele>
        <time>2019-07-09T05:44:48Z</time>
      </trkpt>
      <trkpt lat="39.7049750" lon="-5.1977920">
        <ele>482.0</ele>
        <time>2019-07-09T05:44:51Z</time>
      </trkpt>
      <trkpt lat="39.7049730" lon="-5.1978050">
        <ele>482.0</ele>
        <time>2019-07-09T05:44:52Z</time>
      </trkpt>
      <trkpt lat="39.7049710" lon="-5.1978130">
        <ele>481.8</ele>
        <time>2019-07-09T05:44:54Z</time>
      </trkpt>
      <trkpt lat="39.7049540" lon="-5.1978590">
        <ele>481.4</ele>
        <time>2019-07-09T05:45:01Z</time>
      </trkpt>
      <trkpt lat="39.7049540" lon="-5.1978830">
        <ele>481.4</ele>
        <time>2019-07-09T05:45:03Z</time>
      </trkpt>
      <trkpt lat="39.7049540" lon="-5.1978850">
        <ele>481.4</ele>
        <time>2019-07-09T05:45:04Z</time>
      </trkpt>
      <trkpt lat="39.7049370" lon="-5.1979410">
        <ele>481.4</ele>
        <time>2019-07-09T05:45:08Z</time>
      </trkpt>
      <trkpt lat="39.7049230" lon="-5.1979950">
        <ele>481.4</ele>
        <time>2019-07-09T05:45:10Z</time>
      </trkpt>
      <trkpt lat="39.7049040" lon="-5.1980680">
        <ele>481.4</ele>
        <time>2019-07-09T05:45:12Z</time>
      </trkpt>
      <trkpt lat="39.7048450" lon="-5.1982770">
        <ele>481.8</ele>
        <time>2019-07-09T05:45:17Z</time>
      </trkpt>
      <trkpt lat="39.7047740" lon="-5.1986290">
        <ele>481.8</ele>
        <time>2019-07-09T05:45:24Z</time>
      </trkpt>
      <trkpt lat="39.7047680" lon="-5.1986840">
        <ele>481.8</ele>
        <time>2019-07-09T05:45:25Z</time>
      </trkpt>
      <trkpt lat="39.7047240" lon="-5.1991320">
        <ele>482.0</ele>
        <time>2019-07-09T05:45:33Z</time>
      </trkpt>
      <trkpt lat="39.7047280" lon="-5.1993360">
        <ele>482.2</ele>
        <time>2019-07-09T05:45:38Z</time>
      </trkpt>
      <trkpt lat="39.7047370" lon="-5.1993810">
        <ele>482.2</ele>
        <time>2019-07-09T05:45:40Z</time>
      </trkpt>
      <trkpt lat="39.7047870" lon="-5.1994520">
        <ele>482.2</ele>
        <time>2019-07-09T05:45:44Z</time>
      </trkpt>
      <trkpt lat="39.7048300" lon="-5.1994970">
        <ele>482.4</ele>
        <time>2019-07-09T05:45:46Z</time>
      </trkpt>
      <trkpt lat="39.7048770" lon="-5.1995580">
        <ele>482.6</ele>
        <time>2019-07-09T05:45:48Z</time>
      </trkpt>
      <trkpt lat="39.7049030" lon="-5.1995910">
        <ele>482.6</ele>
        <time>2019-07-09T05:45:49Z</time>
      </trkpt>
      <trkpt lat="39.7049290" lon="-5.1996270">
        <ele>482.8</ele>
        <time>2019-07-09T05:45:50Z</time>
      </trkpt>
      <trkpt lat="39.7051080" lon="-5.1998440">
        <ele>483.0</ele>
        <time>2019-07-09T05:45:56Z</time>
      </trkpt>
      <trkpt lat="39.7051990" lon="-5.1999700">
        <ele>483.0</ele>
        <time>2019-07-09T05:45:59Z</time>
      </trkpt>
      <trkpt lat="39.7053660" lon="-5.2001740">
        <ele>483.4</ele>
        <time>2019-07-09T05:46:04Z</time>
      </trkpt>
      <trkpt lat="39.7057340" lon="-5.2006470">
        <ele>483.4</ele>
        <time>2019-07-09T05:46:15Z</time>
      </trkpt>
      <trkpt lat="39.7059120" lon="-5.2008570">
        <ele>483.6</ele>
        <time>2019-07-09T05:46:20Z</time>
      </trkpt>
      <trkpt lat="39.7060870" lon="-5.2010600">
        <ele>483.6</ele>
        <time>2019-07-09T05:46:25Z</time>
      </trkpt>
      <trkpt lat="39.7061170" lon="-5.2010970">
        <ele>483.6</ele>
        <time>2019-07-09T05:46:26Z</time>
      </trkpt>
      <trkpt lat="39.7061320" lon="-5.2011890">
        <ele>483.6</ele>
        <time>2019-07-09T05:46:28Z</time>
      </trkpt>
      <trkpt lat="39.7061540" lon="-5.2013900">
        <ele>484.2</ele>
        <time>2019-07-09T05:46:32Z</time>
      </trkpt>
      <trkpt lat="39.7061720" lon="-5.2014400">
        <ele>484.2</ele>
        <time>2019-07-09T05:46:33Z</time>
      </trkpt>
      <trkpt lat="39.7062610" lon="-5.2016940">
        <ele>484.6</ele>
        <time>2019-07-09T05:46:38Z</time>
      </trkpt>
      <trkpt lat="39.7063230" lon="-5.2019220">
        <ele>484.6</ele>
        <time>2019-07-09T05:46:42Z</time>
      </trkpt>
      <trkpt lat="39.7063400" lon="-5.2019800">
        <ele>484.6</ele>
        <time>2019-07-09T05:46:43Z</time>
      </trkpt>
      <trkpt lat="39.7063920" lon="-5.2021580">
        <ele>484.8</ele>
        <time>2019-07-09T05:46:46Z</time>
      </trkpt>
      <trkpt lat="39.7065110" lon="-5.2025690">
        <ele>485.2</ele>
        <time>2019-07-09T05:46:53Z</time>
      </trkpt>
      <trkpt lat="39.7065610" lon="-5.2027410">
        <ele>485.6</ele>
        <time>2019-07-09T05:46:56Z</time>
      </trkpt>
      <trkpt lat="39.7065760" lon="-5.2027990">
        <ele>485.8</ele>
        <time>2019-07-09T05:46:57Z</time>
      </trkpt>
      <trkpt lat="39.7066340" lon="-5.2030330">
        <ele>486.0</ele>
        <time>2019-07-09T05:47:01Z</time>
      </trkpt>
      <trkpt lat="39.7066450" lon="-5.2030950">
        <ele>486.0</ele>
        <time>2019-07-09T05:47:02Z</time>
      </trkpt>
      <trkpt lat="39.7066660" lon="-5.2032820">
        <ele>486.2</ele>
        <time>2019-07-09T05:47:05Z</time>
      </trkpt>
      <trkpt lat="39.7066800" lon="-5.2034720">
        <ele>486.6</ele>
        <time>2019-07-09T05:47:08Z</time>
      </trkpt>
      <trkpt lat="39.7066930" lon="-5.2038400">
        <ele>487.2</ele>
        <time>2019-07-09T05:47:14Z</time>
      </trkpt>
      <trkpt lat="39.7066890" lon="-5.2039000">
        <ele>487.4</ele>
        <time>2019-07-09T05:47:15Z</time>
      </trkpt>
      <trkpt lat="39.7066870" lon="-5.2040820">
        <ele>487.8</ele>
        <time>2019-07-09T05:47:18Z</time>
      </trkpt>
      <trkpt lat="39.7066810" lon="-5.2043810">
        <ele>488.4</ele>
        <time>2019-07-09T05:47:23Z</time>
      </trkpt>
      <trkpt lat="39.7066780" lon="-5.2046190">
        <ele>488.8</ele>
        <time>2019-07-09T05:47:27Z</time>
      </trkpt>
      <trkpt lat="39.7066670" lon="-5.2049580">
        <ele>489.8</ele>
        <time>2019-07-09T05:47:33Z</time>
      </trkpt>
      <trkpt lat="39.7066660" lon="-5.2050140">
        <ele>489.8</ele>
        <time>2019-07-09T05:47:34Z</time>
      </trkpt>
      <trkpt lat="39.7066540" lon="-5.2055650">
        <ele>490.8</ele>
        <time>2019-07-09T05:47:44Z</time>
      </trkpt>
      <trkpt lat="39.7066410" lon="-5.2060120">
        <ele>491.8</ele>
        <time>2019-07-09T05:47:52Z</time>
      </trkpt>
      <trkpt lat="39.7066380" lon="-5.2060680">
        <ele>492.0</ele>
        <time>2019-07-09T05:47:53Z</time>
      </trkpt>
      <trkpt lat="39.7066150" lon="-5.2063920">
        <ele>493.0</ele>
        <time>2019-07-09T05:47:59Z</time>
      </trkpt>
      <trkpt lat="39.7065880" lon="-5.2066100">
        <ele>493.4</ele>
        <time>2019-07-09T05:48:03Z</time>
      </trkpt>
      <trkpt lat="39.7065640" lon="-5.2068350">
        <ele>494.0</ele>
        <time>2019-07-09T05:48:07Z</time>
      </trkpt>
      <trkpt lat="39.7065280" lon="-5.2071110">
        <ele>494.8</ele>
        <time>2019-07-09T05:48:12Z</time>
      </trkpt>
      <trkpt lat="39.7065050" lon="-5.2072710">
        <ele>495.2</ele>
        <time>2019-07-09T05:48:15Z</time>
      </trkpt>
      <trkpt lat="39.7064840" lon="-5.2074860">
        <ele>495.6</ele>
        <time>2019-07-09T05:48:19Z</time>
      </trkpt>
      <trkpt lat="39.7064500" lon="-5.2077550">
        <ele>496.4</ele>
        <time>2019-07-09T05:48:24Z</time>
      </trkpt>
      <trkpt lat="39.7064140" lon="-5.2080170">
        <ele>497.4</ele>
        <time>2019-07-09T05:48:29Z</time>
      </trkpt>
      <trkpt lat="39.7063680" lon="-5.2083790">
        <ele>498.4</ele>
        <time>2019-07-09T05:48:36Z</time>
      </trkpt>
      <trkpt lat="39.7063600" lon="-5.2084290">
        <ele>498.6</ele>
        <time>2019-07-09T05:48:37Z</time>
      </trkpt>
      <trkpt lat="39.7063300" lon="-5.2086720">
        <ele>499.6</ele>
        <time>2019-07-09T05:48:42Z</time>
      </trkpt>
      <trkpt lat="39.7063000" lon="-5.2089080">
        <ele>500.6</ele>
        <time>2019-07-09T05:48:47Z</time>
      </trkpt>
      <trkpt lat="39.7062710" lon="-5.2091600">
        <ele>501.6</ele>
        <time>2019-07-09T05:48:52Z</time>
      </trkpt>
      <trkpt lat="39.7062500" lon="-5.2093180">
        <ele>502.2</ele>
        <time>2019-07-09T05:48:55Z</time>
      </trkpt>
      <trkpt lat="39.7062070" lon="-5.2097330">
        <ele>502.6</ele>
        <time>2019-07-09T05:49:02Z</time>
      </trkpt>
      <trkpt lat="39.7061600" lon="-5.2101350">
        <ele>502.2</ele>
        <time>2019-07-09T05:49:08Z</time>
      </trkpt>
      <trkpt lat="39.7061400" lon="-5.2103550">
        <ele>502.0</ele>
        <time>2019-07-09T05:49:11Z</time>
      </trkpt>
      <trkpt lat="39.7061200" lon="-5.2105090">
        <ele>501.8</ele>
        <time>2019-07-09T05:49:13Z</time>
      </trkpt>
      <trkpt lat="39.7060980" lon="-5.2106710">
        <ele>501.6</ele>
        <time>2019-07-09T05:49:15Z</time>
      </trkpt>
      <trkpt lat="39.7060690" lon="-5.2109320">
        <ele>501.0</ele>
        <time>2019-07-09T05:49:18Z</time>
      </trkpt>
      <trkpt lat="39.7060600" lon="-5.2110240">
        <ele>500.6</ele>
        <time>2019-07-09T05:49:19Z</time>
      </trkpt>
      <trkpt lat="39.7060490" lon="-5.2111180">
        <ele>500.4</ele>
        <time>2019-07-09T05:49:20Z</time>
      </trkpt>
      <trkpt lat="39.7060290" lon="-5.2113130">
        <ele>499.8</ele>
        <time>2019-07-09T05:49:22Z</time>
      </trkpt>
      <trkpt lat="39.7060080" lon="-5.2115150">
        <ele>499.2</ele>
        <time>2019-07-09T05:49:24Z</time>
      </trkpt>
      <trkpt lat="39.7059880" lon="-5.2117240">
        <ele>498.4</ele>
        <time>2019-07-09T05:49:26Z</time>
      </trkpt>
      <trkpt lat="39.7059780" lon="-5.2118310">
        <ele>498.0</ele>
        <time>2019-07-09T05:49:27Z</time>
      </trkpt>
      <trkpt lat="39.7059520" lon="-5.2121570">
        <ele>497.0</ele>
        <time>2019-07-09T05:49:30Z</time>
      </trkpt>
      <trkpt lat="39.7059190" lon="-5.2124800">
        <ele>495.6</ele>
        <time>2019-07-09T05:49:33Z</time>
      </trkpt>
      <trkpt lat="39.7059070" lon="-5.2125850">
        <ele>495.4</ele>
        <time>2019-07-09T05:49:34Z</time>
      </trkpt>
      <trkpt lat="39.7058710" lon="-5.2129810">
        <ele>494.8</ele>
        <time>2019-07-09T05:49:38Z</time>
      </trkpt>
      <trkpt lat="39.7058480" lon="-5.2131670">
        <ele>494.6</ele>
        <time>2019-07-09T05:49:40Z</time>
      </trkpt>
      <trkpt lat="39.7058380" lon="-5.2132610">
        <ele>494.6</ele>
        <time>2019-07-09T05:49:41Z</time>
      </trkpt>
      <trkpt lat="39.7057900" lon="-5.2137330">
        <ele>494.0</ele>
        <time>2019-07-09T05:49:46Z</time>
      </trkpt>
      <trkpt lat="39.7057540" lon="-5.2141280">
        <ele>493.4</ele>
        <time>2019-07-09T05:49:50Z</time>
      </trkpt>
      <trkpt lat="39.7057440" lon="-5.2142280">
        <ele>493.2</ele>
        <time>2019-07-09T05:49:51Z</time>
      </trkpt>
      <trkpt lat="39.7056750" lon="-5.2149260">
        <ele>492.2</ele>
        <time>2019-07-09T05:49:58Z</time>
      </trkpt>
      <trkpt lat="39.7056340" lon="-5.2153230">
        <ele>491.4</ele>
        <time>2019-07-09T05:50:02Z</time>
      </trkpt>
      <trkpt lat="39.7056050" lon="-5.2156110">
        <ele>491.2</ele>
        <time>2019-07-09T05:50:05Z</time>
      </trkpt>
      <trkpt lat="39.7055620" lon="-5.2161000">
        <ele>490.0</ele>
        <time>2019-07-09T05:50:10Z</time>
      </trkpt>
      <trkpt lat="39.7055510" lon="-5.2163010">
        <ele>489.8</ele>
        <time>2019-07-09T05:50:12Z</time>
      </trkpt>
      <trkpt lat="39.7055810" lon="-5.2169020">
        <ele>489.0</ele>
        <time>2019-07-09T05:50:18Z</time>
      </trkpt>
      <trkpt lat="39.7057150" lon="-5.2174740">
        <ele>488.0</ele>
        <time>2019-07-09T05:50:24Z</time>
      </trkpt>
      <trkpt lat="39.7057450" lon="-5.2175660">
        <ele>487.8</ele>
        <time>2019-07-09T05:50:25Z</time>
      </trkpt>
      <trkpt lat="39.7059640" lon="-5.2182110">
        <ele>487.0</ele>
        <time>2019-07-09T05:50:32Z</time>
      </trkpt>
      <trkpt lat="39.7059960" lon="-5.2183030">
        <ele>486.8</ele>
        <time>2019-07-09T05:50:33Z</time>
      </trkpt>
      <trkpt lat="39.7060270" lon="-5.2183960">
        <ele>486.6</ele>
        <time>2019-07-09T05:50:34Z</time>
      </trkpt>
      <trkpt lat="39.7062450" lon="-5.2190320">
        <ele>485.8</ele>
        <time>2019-07-09T05:50:41Z</time>
      </trkpt>
      <trkpt lat="39.7063680" lon="-5.2194070">
        <ele>484.8</ele>
        <time>2019-07-09T05:50:45Z</time>
      </trkpt>
      <trkpt lat="39.7064020" lon="-5.2195040">
        <ele>484.4</ele>
        <time>2019-07-09T05:50:46Z</time>
      </trkpt>
      <trkpt lat="39.7064690" lon="-5.2197050">
        <ele>483.8</ele>
        <time>2019-07-09T05:50:48Z</time>
      </trkpt>
      <trkpt lat="39.7065010" lon="-5.2198090">
        <ele>483.4</ele>
        <time>2019-07-09T05:50:49Z</time>
      </trkpt>
      <trkpt lat="39.7065670" lon="-5.2200210">
        <ele>482.2</ele>
        <time>2019-07-09T05:50:51Z</time>
      </trkpt>
      <trkpt lat="39.7065950" lon="-5.2201310">
        <ele>481.8</ele>
        <time>2019-07-09T05:50:52Z</time>
      </trkpt>
      <trkpt lat="39.7066440" lon="-5.2203540">
        <ele>481.2</ele>
        <time>2019-07-09T05:50:54Z</time>
      </trkpt>
      <trkpt lat="39.7067000" lon="-5.2206960">
        <ele>480.0</ele>
        <time>2019-07-09T05:50:57Z</time>
      </trkpt>
      <trkpt lat="39.7067220" lon="-5.2209230">
        <ele>479.6</ele>
        <time>2019-07-09T05:50:59Z</time>
      </trkpt>
      <trkpt lat="39.7067350" lon="-5.2211500">
        <ele>479.0</ele>
        <time>2019-07-09T05:51:01Z</time>
      </trkpt>
      <trkpt lat="39.7067330" lon="-5.2214920">
        <ele>478.0</ele>
        <time>2019-07-09T05:51:04Z</time>
      </trkpt>
      <trkpt lat="39.7067290" lon="-5.2216060">
        <ele>477.8</ele>
        <time>2019-07-09T05:51:05Z</time>
      </trkpt>
      <trkpt lat="39.7067200" lon="-5.2219550">
        <ele>476.8</ele>
        <time>2019-07-09T05:51:08Z</time>
      </trkpt>
      <trkpt lat="39.7067120" lon="-5.2222000">
        <ele>475.8</ele>
        <time>2019-07-09T05:51:10Z</time>
      </trkpt>
      <trkpt lat="39.7067030" lon="-5.2224550">
        <ele>474.4</ele>
        <time>2019-07-09T05:51:12Z</time>
      </trkpt>
      <trkpt lat="39.7066980" lon="-5.2227210">
        <ele>472.8</ele>
        <time>2019-07-09T05:51:14Z</time>
      </trkpt>
      <trkpt lat="39.7066920" lon="-5.2229960">
        <ele>471.4</ele>
        <time>2019-07-09T05:51:16Z</time>
      </trkpt>
      <trkpt lat="39.7066820" lon="-5.2232790">
        <ele>469.8</ele>
        <time>2019-07-09T05:51:18Z</time>
      </trkpt>
      <trkpt lat="39.7066760" lon="-5.2234210">
        <ele>468.8</ele>
        <time>2019-07-09T05:51:19Z</time>
      </trkpt>
      <trkpt lat="39.7066710" lon="-5.2235660">
        <ele>468.2</ele>
        <time>2019-07-09T05:51:20Z</time>
      </trkpt>
      <trkpt lat="39.7066650" lon="-5.2238550">
        <ele>466.8</ele>
        <time>2019-07-09T05:51:22Z</time>
      </trkpt>
      <trkpt lat="39.7066610" lon="-5.2241380">
        <ele>465.6</ele>
        <time>2019-07-09T05:51:24Z</time>
      </trkpt>
      <trkpt lat="39.7066550" lon="-5.2244100">
        <ele>464.8</ele>
        <time>2019-07-09T05:51:26Z</time>
      </trkpt>
      <trkpt lat="39.7066510" lon="-5.2245430">
        <ele>464.6</ele>
        <time>2019-07-09T05:51:27Z</time>
      </trkpt>
      <trkpt lat="39.7066440" lon="-5.2250620">
        <ele>463.4</ele>
        <time>2019-07-09T05:51:31Z</time>
      </trkpt>
      <trkpt lat="39.7066330" lon="-5.2254310">
        <ele>462.2</ele>
        <time>2019-07-09T05:51:34Z</time>
      </trkpt>
      <trkpt lat="39.7066170" lon="-5.2260900">
        <ele>461.2</ele>
        <time>2019-07-09T05:51:40Z</time>
      </trkpt>
      <trkpt lat="39.7066160" lon="-5.2263850">
        <ele>461.2</ele>
        <time>2019-07-09T05:51:43Z</time>
      </trkpt>
      <trkpt lat="39.7066110" lon="-5.2265770">
        <ele>461.2</ele>
        <time>2019-07-09T05:51:45Z</time>
      </trkpt>
      <trkpt lat="39.7066080" lon="-5.2266720">
        <ele>461.2</ele>
        <time>2019-07-09T05:51:46Z</time>
      </trkpt>
      <trkpt lat="39.7066070" lon="-5.2267660">
        <ele>461.0</ele>
        <time>2019-07-09T05:51:47Z</time>
      </trkpt>
      <trkpt lat="39.7066050" lon="-5.2268600">
        <ele>461.0</ele>
        <time>2019-07-09T05:51:48Z</time>
      </trkpt>
      <trkpt lat="39.7065920" lon="-5.2273920">
        <ele>461.0</ele>
        <time>2019-07-09T05:51:54Z</time>
      </trkpt>
      <trkpt lat="39.7065890" lon="-5.2275580">
        <ele>461.2</ele>
        <time>2019-07-09T05:51:56Z</time>
      </trkpt>
      <trkpt lat="39.7065820" lon="-5.2277960">
        <ele>461.2</ele>
        <time>2019-07-09T05:51:59Z</time>
      </trkpt>
      <trkpt lat="39.7065750" lon="-5.2280940">
        <ele>461.8</ele>
        <time>2019-07-09T05:52:03Z</time>
      </trkpt>
      <trkpt lat="39.7065730" lon="-5.2281650">
        <ele>461.8</ele>
        <time>2019-07-09T05:52:04Z</time>
      </trkpt>
      <trkpt lat="39.7065690" lon="-5.2283700">
        <ele>462.2</ele>
        <time>2019-07-09T05:52:07Z</time>
      </trkpt>
      <trkpt lat="39.7065670" lon="-5.2284390">
        <ele>462.2</ele>
        <time>2019-07-09T05:52:08Z</time>
      </trkpt>
      <trkpt lat="39.7065640" lon="-5.2285790">
        <ele>462.4</ele>
        <time>2019-07-09T05:52:10Z</time>
      </trkpt>
      <trkpt lat="39.7065620" lon="-5.2287220">
        <ele>462.8</ele>
        <time>2019-07-09T05:52:12Z</time>
      </trkpt>
      <trkpt lat="39.7065680" lon="-5.2288660">
        <ele>463.0</ele>
        <time>2019-07-09T05:52:14Z</time>
      </trkpt>
      <trkpt lat="39.7065870" lon="-5.2290070">
        <ele>463.2</ele>
        <time>2019-07-09T05:52:16Z</time>
      </trkpt>
      <trkpt lat="39.7066010" lon="-5.2290770">
        <ele>463.2</ele>
        <time>2019-07-09T05:52:17Z</time>
      </trkpt>
      <trkpt lat="39.7066180" lon="-5.2291490">
        <ele>463.2</ele>
        <time>2019-07-09T05:52:18Z</time>
      </trkpt>
      <trkpt lat="39.7066580" lon="-5.2292920">
        <ele>463.0</ele>
        <time>2019-07-09T05:52:20Z</time>
      </trkpt>
      <trkpt lat="39.7067690" lon="-5.2295780">
        <ele>462.8</ele>
        <time>2019-07-09T05:52:24Z</time>
      </trkpt>
      <trkpt lat="39.7068880" lon="-5.2298830">
        <ele>462.2</ele>
        <time>2019-07-09T05:52:28Z</time>
      </trkpt>
      <trkpt lat="39.7070190" lon="-5.2302010">
        <ele>461.2</ele>
        <time>2019-07-09T05:52:32Z</time>
      </trkpt>
      <trkpt lat="39.7070540" lon="-5.2302840">
        <ele>461.0</ele>
        <time>2019-07-09T05:52:33Z</time>
      </trkpt>
      <trkpt lat="39.7072340" lon="-5.2307160">
        <ele>459.8</ele>
        <time>2019-07-09T05:52:38Z</time>
      </trkpt>
      <trkpt lat="39.7073400" lon="-5.2309780">
        <ele>459.4</ele>
        <time>2019-07-09T05:52:41Z</time>
      </trkpt>
      <trkpt lat="39.7074120" lon="-5.2311450">
        <ele>459.2</ele>
        <time>2019-07-09T05:52:43Z</time>
      </trkpt>
      <trkpt lat="39.7076400" lon="-5.2317250">
        <ele>459.0</ele>
        <time>2019-07-09T05:52:50Z</time>
      </trkpt>
      <trkpt lat="39.7077110" lon="-5.2319790">
        <ele>458.8</ele>
        <time>2019-07-09T05:52:53Z</time>
      </trkpt>
      <trkpt lat="39.7078130" lon="-5.2324200">
        <ele>458.0</ele>
        <time>2019-07-09T05:52:58Z</time>
      </trkpt>
      <trkpt lat="39.7078720" lon="-5.2326980">
        <ele>457.4</ele>
        <time>2019-07-09T05:53:01Z</time>
      </trkpt>
      <trkpt lat="39.7080160" lon="-5.2331470">
        <ele>456.6</ele>
        <time>2019-07-09T05:53:06Z</time>
      </trkpt>
      <trkpt lat="39.7080490" lon="-5.2332300">
        <ele>456.4</ele>
        <time>2019-07-09T05:53:07Z</time>
      </trkpt>
      <trkpt lat="39.7082430" lon="-5.2336810">
        <ele>456.6</ele>
        <time>2019-07-09T05:53:13Z</time>
      </trkpt>
      <trkpt lat="39.7084100" lon="-5.2340640">
        <ele>457.2</ele>
        <time>2019-07-09T05:53:19Z</time>
      </trkpt>
      <trkpt lat="39.7084630" lon="-5.2341850">
        <ele>457.6</ele>
        <time>2019-07-09T05:53:21Z</time>
      </trkpt>
      <trkpt lat="39.7085910" lon="-5.2344900">
        <ele>457.6</ele>
        <time>2019-07-09T05:53:26Z</time>
      </trkpt>
      <trkpt lat="39.7086780" lon="-5.2346970">
        <ele>457.4</ele>
        <time>2019-07-09T05:53:29Z</time>
      </trkpt>
      <trkpt lat="39.7089260" lon="-5.2352810">
        <ele>456.8</ele>
        <time>2019-07-09T05:53:37Z</time>
      </trkpt>
      <trkpt lat="39.7090490" lon="-5.2355830">
        <ele>457.6</ele>
        <time>2019-07-09T05:53:42Z</time>
      </trkpt>
      <trkpt lat="39.7090700" lon="-5.2356370">
        <ele>457.8</ele>
        <time>2019-07-09T05:53:43Z</time>
      </trkpt>
      <trkpt lat="39.7091350" lon="-5.2357960">
        <ele>458.6</ele>
        <time>2019-07-09T05:53:46Z</time>
      </trkpt>
      <trkpt lat="39.7091810" lon="-5.2358950">
        <ele>459.2</ele>
        <time>2019-07-09T05:53:48Z</time>
      </trkpt>
      <trkpt lat="39.7092260" lon="-5.2359920">
        <ele>459.4</ele>
        <time>2019-07-09T05:53:50Z</time>
      </trkpt>
      <trkpt lat="39.7092720" lon="-5.2360890">
        <ele>460.0</ele>
        <time>2019-07-09T05:53:52Z</time>
      </trkpt>
      <trkpt lat="39.7093220" lon="-5.2361860">
        <ele>460.6</ele>
        <time>2019-07-09T05:53:54Z</time>
      </trkpt>
      <trkpt lat="39.7093760" lon="-5.2362830">
        <ele>460.8</ele>
        <time>2019-07-09T05:53:56Z</time>
      </trkpt>
      <trkpt lat="39.7095140" lon="-5.2364550">
        <ele>461.0</ele>
        <time>2019-07-09T05:54:00Z</time>
      </trkpt>
      <trkpt lat="39.7096790" lon="-5.2366030">
        <ele>461.6</ele>
        <time>2019-07-09T05:54:04Z</time>
      </trkpt>
      <trkpt lat="39.7098910" lon="-5.2367950">
        <ele>462.0</ele>
        <time>2019-07-09T05:54:09Z</time>
      </trkpt>
      <trkpt lat="39.7099800" lon="-5.2368690">
        <ele>462.0</ele>
        <time>2019-07-09T05:54:11Z</time>
      </trkpt>
      <trkpt lat="39.7103620" lon="-5.2372000">
        <ele>462.0</ele>
        <time>2019-07-09T05:54:19Z</time>
      </trkpt>
      <trkpt lat="39.7105470" lon="-5.2373620">
        <ele>460.8</ele>
        <time>2019-07-09T05:54:22Z</time>
      </trkpt>
      <trkpt lat="39.7106140" lon="-5.2374210">
        <ele>460.2</ele>
        <time>2019-07-09T05:54:23Z</time>
      </trkpt>
      <trkpt lat="39.7106820" lon="-5.2374840">
        <ele>459.8</ele>
        <time>2019-07-09T05:54:24Z</time>
      </trkpt>
      <trkpt lat="39.7108100" lon="-5.2376410">
        <ele>458.8</ele>
        <time>2019-07-09T05:54:26Z</time>
      </trkpt>
      <trkpt lat="39.7109100" lon="-5.2378430">
        <ele>457.4</ele>
        <time>2019-07-09T05:54:28Z</time>
      </trkpt>
      <trkpt lat="39.7109770" lon="-5.2380830">
        <ele>456.0</ele>
        <time>2019-07-09T05:54:30Z</time>
      </trkpt>
      <trkpt lat="39.7110350" lon="-5.2383410">
        <ele>454.8</ele>
        <time>2019-07-09T05:54:32Z</time>
      </trkpt>
      <trkpt lat="39.7110890" lon="-5.2386110">
        <ele>453.2</ele>
        <time>2019-07-09T05:54:34Z</time>
      </trkpt>
      <trkpt lat="39.7111360" lon="-5.2388930">
        <ele>451.8</ele>
        <time>2019-07-09T05:54:36Z</time>
      </trkpt>
      <trkpt lat="39.7111620" lon="-5.2390330">
        <ele>451.2</ele>
        <time>2019-07-09T05:54:37Z</time>
      </trkpt>
      <trkpt lat="39.7111870" lon="-5.2391760">
        <ele>450.0</ele>
        <time>2019-07-09T05:54:38Z</time>
      </trkpt>
      <trkpt lat="39.7112120" lon="-5.2393190">
        <ele>449.4</ele>
        <time>2019-07-09T05:54:39Z</time>
      </trkpt>
      <trkpt lat="39.7112370" lon="-5.2394620">
        <ele>448.6</ele>
        <time>2019-07-09T05:54:40Z</time>
      </trkpt>
      <trkpt lat="39.7112920" lon="-5.2397490">
        <ele>447.2</ele>
        <time>2019-07-09T05:54:42Z</time>
      </trkpt>
      <trkpt lat="39.7113480" lon="-5.2400390">
        <ele>446.0</ele>
        <time>2019-07-09T05:54:44Z</time>
      </trkpt>
      <trkpt lat="39.7114030" lon="-5.2403340">
        <ele>444.2</ele>
        <time>2019-07-09T05:54:46Z</time>
      </trkpt>
      <trkpt lat="39.7114560" lon="-5.2406230">
        <ele>442.8</ele>
        <time>2019-07-09T05:54:48Z</time>
      </trkpt>
      <trkpt lat="39.7114840" lon="-5.2407570">
        <ele>442.6</ele>
        <time>2019-07-09T05:54:49Z</time>
      </trkpt>
      <trkpt lat="39.7115880" lon="-5.2413610">
        <ele>442.4</ele>
        <time>2019-07-09T05:54:54Z</time>
      </trkpt>
      <trkpt lat="39.7115970" lon="-5.2414790">
        <ele>442.2</ele>
        <time>2019-07-09T05:54:55Z</time>
      </trkpt>
      <trkpt lat="39.7115780" lon="-5.2417180">
        <ele>441.8</ele>
        <time>2019-07-09T05:54:57Z</time>
      </trkpt>
      <trkpt lat="39.7115140" lon="-5.2419470">
        <ele>440.8</ele>
        <time>2019-07-09T05:54:59Z</time>
      </trkpt>
      <trkpt lat="39.7114640" lon="-5.2420540">
        <ele>440.2</ele>
        <time>2019-07-09T05:55:00Z</time>
      </trkpt>
      <trkpt lat="39.7114070" lon="-5.2421560">
        <ele>439.4</ele>
        <time>2019-07-09T05:55:01Z</time>
      </trkpt>
      <trkpt lat="39.7113430" lon="-5.2422560">
        <ele>438.6</ele>
        <time>2019-07-09T05:55:02Z</time>
      </trkpt>
      <trkpt lat="39.7112790" lon="-5.2423570">
        <ele>438.0</ele>
        <time>2019-07-09T05:55:03Z</time>
      </trkpt>
      <trkpt lat="39.7111460" lon="-5.2425620">
        <ele>436.8</ele>
        <time>2019-07-09T05:55:05Z</time>
      </trkpt>
      <trkpt lat="39.7109360" lon="-5.2428680">
        <ele>435.2</ele>
        <time>2019-07-09T05:55:08Z</time>
      </trkpt>
      <trkpt lat="39.7107930" lon="-5.2430710">
        <ele>433.8</ele>
        <time>2019-07-09T05:55:10Z</time>
      </trkpt>
      <trkpt lat="39.7105770" lon="-5.2433770">
        <ele>432.4</ele>
        <time>2019-07-09T05:55:13Z</time>
      </trkpt>
      <trkpt lat="39.7104340" lon="-5.2435830">
        <ele>431.2</ele>
        <time>2019-07-09T05:55:15Z</time>
      </trkpt>
      <trkpt lat="39.7103060" lon="-5.2438000">
        <ele>430.2</ele>
        <time>2019-07-09T05:55:17Z</time>
      </trkpt>
      <trkpt lat="39.7102330" lon="-5.2440330">
        <ele>429.4</ele>
        <time>2019-07-09T05:55:19Z</time>
      </trkpt>
      <trkpt lat="39.7102140" lon="-5.2443590">
        <ele>429.6</ele>
        <time>2019-07-09T05:55:22Z</time>
      </trkpt>
      <trkpt lat="39.7102170" lon="-5.2444570">
        <ele>430.0</ele>
        <time>2019-07-09T05:55:23Z</time>
      </trkpt>
      <trkpt lat="39.7102230" lon="-5.2445510">
        <ele>430.2</ele>
        <time>2019-07-09T05:55:24Z</time>
      </trkpt>
      <trkpt lat="39.7102340" lon="-5.2446370">
        <ele>430.2</ele>
        <time>2019-07-09T05:55:25Z</time>
      </trkpt>
      <trkpt lat="39.7102480" lon="-5.2447170">
        <ele>430.8</ele>
        <time>2019-07-09T05:55:26Z</time>
      </trkpt>
      <trkpt lat="39.7102590" lon="-5.2447940">
        <ele>431.0</ele>
        <time>2019-07-09T05:55:27Z</time>
      </trkpt>
      <trkpt lat="39.7102690" lon="-5.2448680">
        <ele>431.2</ele>
        <time>2019-07-09T05:55:28Z</time>
      </trkpt>
      <trkpt lat="39.7102880" lon="-5.2450670">
        <ele>432.2</ele>
        <time>2019-07-09T05:55:31Z</time>
      </trkpt>
      <trkpt lat="39.7102930" lon="-5.2451270">
        <ele>432.4</ele>
        <time>2019-07-09T05:55:32Z</time>
      </trkpt>
      <trkpt lat="39.7102970" lon="-5.2451850">
        <ele>432.6</ele>
        <time>2019-07-09T05:55:33Z</time>
      </trkpt>
      <trkpt lat="39.7103080" lon="-5.2452970">
        <ele>433.4</ele>
        <time>2019-07-09T05:55:35Z</time>
      </trkpt>
      <trkpt lat="39.7103140" lon="-5.2453530">
        <ele>433.6</ele>
        <time>2019-07-09T05:55:36Z</time>
      </trkpt>
      <trkpt lat="39.7103290" lon="-5.2454640">
        <ele>434.2</ele>
        <time>2019-07-09T05:55:38Z</time>
      </trkpt>
      <trkpt lat="39.7103360" lon="-5.2455190">
        <ele>434.4</ele>
        <time>2019-07-09T05:55:39Z</time>
      </trkpt>
      <trkpt lat="39.7103480" lon="-5.2456280">
        <ele>435.0</ele>
        <time>2019-07-09T05:55:41Z</time>
      </trkpt>
      <trkpt lat="39.7103540" lon="-5.2456830">
        <ele>435.2</ele>
        <time>2019-07-09T05:55:42Z</time>
      </trkpt>
      <trkpt lat="39.7103650" lon="-5.2457900">
        <ele>435.6</ele>
        <time>2019-07-09T05:55:44Z</time>
      </trkpt>
      <trkpt lat="39.7103690" lon="-5.2458950">
        <ele>436.0</ele>
        <time>2019-07-09T05:55:46Z</time>
      </trkpt>
      <trkpt lat="39.7103720" lon="-5.2459480">
        <ele>436.2</ele>
        <time>2019-07-09T05:55:47Z</time>
      </trkpt>
      <trkpt lat="39.7103840" lon="-5.2460520">
        <ele>436.6</ele>
        <time>2019-07-09T05:55:49Z</time>
      </trkpt>
      <trkpt lat="39.7103990" lon="-5.2461590">
        <ele>436.8</ele>
        <time>2019-07-09T05:55:51Z</time>
      </trkpt>
      <trkpt lat="39.7104160" lon="-5.2462650">
        <ele>437.2</ele>
        <time>2019-07-09T05:55:53Z</time>
      </trkpt>
      <trkpt lat="39.7104440" lon="-5.2464230">
        <ele>437.8</ele>
        <time>2019-07-09T05:55:56Z</time>
      </trkpt>
      <trkpt lat="39.7104700" lon="-5.2465320">
        <ele>438.4</ele>
        <time>2019-07-09T05:55:58Z</time>
      </trkpt>
      <trkpt lat="39.7104890" lon="-5.2465870">
        <ele>438.6</ele>
        <time>2019-07-09T05:55:59Z</time>
      </trkpt>
      <trkpt lat="39.7105720" lon="-5.2467670">
        <ele>438.8</ele>
        <time>2019-07-09T05:56:02Z</time>
      </trkpt>
      <trkpt lat="39.7106090" lon="-5.2468300">
        <ele>438.6</ele>
        <time>2019-07-09T05:56:03Z</time>
      </trkpt>
      <trkpt lat="39.7108670" lon="-5.2471700">
        <ele>436.8</ele>
        <time>2019-07-09T05:56:08Z</time>
      </trkpt>
      <trkpt lat="39.7109870" lon="-5.2473210">
        <ele>435.6</ele>
        <time>2019-07-09T05:56:10Z</time>
      </trkpt>
      <trkpt lat="39.7111770" lon="-5.2475670">
        <ele>434.2</ele>
        <time>2019-07-09T05:56:13Z</time>
      </trkpt>
      <trkpt lat="39.7113080" lon="-5.2477480">
        <ele>433.0</ele>
        <time>2019-07-09T05:56:15Z</time>
      </trkpt>
      <trkpt lat="39.7114460" lon="-5.2479410">
        <ele>431.6</ele>
        <time>2019-07-09T05:56:17Z</time>
      </trkpt>
      <trkpt lat="39.7115180" lon="-5.2480440">
        <ele>431.0</ele>
        <time>2019-07-09T05:56:18Z</time>
      </trkpt>
      <trkpt lat="39.7115920" lon="-5.2481500">
        <ele>430.0</ele>
        <time>2019-07-09T05:56:19Z</time>
      </trkpt>
      <trkpt lat="39.7117430" lon="-5.2483740">
        <ele>427.8</ele>
        <time>2019-07-09T05:56:21Z</time>
      </trkpt>
      <trkpt lat="39.7118200" lon="-5.2484910">
        <ele>426.6</ele>
        <time>2019-07-09T05:56:22Z</time>
      </trkpt>
      <trkpt lat="39.7118960" lon="-5.2486060">
        <ele>425.8</ele>
        <time>2019-07-09T05:56:23Z</time>
      </trkpt>
      <trkpt lat="39.7119720" lon="-5.2487150">
        <ele>425.2</ele>
        <time>2019-07-09T05:56:24Z</time>
      </trkpt>
      <trkpt lat="39.7121210" lon="-5.2489070">
        <ele>424.6</ele>
        <time>2019-07-09T05:56:26Z</time>
      </trkpt>
      <trkpt lat="39.7121940" lon="-5.2489850">
        <ele>424.6</ele>
        <time>2019-07-09T05:56:27Z</time>
      </trkpt>
      <trkpt lat="39.7123290" lon="-5.2491070">
        <ele>424.6</ele>
        <time>2019-07-09T05:56:29Z</time>
      </trkpt>
      <trkpt lat="39.7124500" lon="-5.2491940">
        <ele>425.4</ele>
        <time>2019-07-09T05:56:31Z</time>
      </trkpt>
      <trkpt lat="39.7125570" lon="-5.2492570">
        <ele>426.2</ele>
        <time>2019-07-09T05:56:33Z</time>
      </trkpt>
      <trkpt lat="39.7126520" lon="-5.2492990">
        <ele>427.0</ele>
        <time>2019-07-09T05:56:35Z</time>
      </trkpt>
      <trkpt lat="39.7126960" lon="-5.2493190">
        <ele>427.4</ele>
        <time>2019-07-09T05:56:36Z</time>
      </trkpt>
      <trkpt lat="39.7128540" lon="-5.2493970">
        <ele>428.4</ele>
        <time>2019-07-09T05:56:40Z</time>
      </trkpt>
      <trkpt lat="39.7129650" lon="-5.2494420">
        <ele>429.2</ele>
        <time>2019-07-09T05:56:43Z</time>
      </trkpt>
      <trkpt lat="39.7130020" lon="-5.2494560">
        <ele>429.4</ele>
        <time>2019-07-09T05:56:44Z</time>
      </trkpt>
      <trkpt lat="39.7130370" lon="-5.2494710">
        <ele>429.6</ele>
        <time>2019-07-09T05:56:45Z</time>
      </trkpt>
      <trkpt lat="39.7131450" lon="-5.2495200">
        <ele>430.4</ele>
        <time>2019-07-09T05:56:48Z</time>
      </trkpt>
      <trkpt lat="39.7131790" lon="-5.2495390">
        <ele>430.8</ele>
        <time>2019-07-09T05:56:49Z</time>
      </trkpt>
      <trkpt lat="39.7132830" lon="-5.2495810">
        <ele>431.6</ele>
        <time>2019-07-09T05:56:52Z</time>
      </trkpt>
      <trkpt lat="39.7133190" lon="-5.2495940">
        <ele>431.8</ele>
        <time>2019-07-09T05:56:53Z</time>
      </trkpt>
      <trkpt lat="39.7134240" lon="-5.2496450">
        <ele>432.4</ele>
        <time>2019-07-09T05:56:56Z</time>
      </trkpt>
      <trkpt lat="39.7134960" lon="-5.2496740">
        <ele>433.2</ele>
        <time>2019-07-09T05:56:58Z</time>
      </trkpt>
      <trkpt lat="39.7135690" lon="-5.2497040">
        <ele>433.8</ele>
        <time>2019-07-09T05:57:00Z</time>
      </trkpt>
      <trkpt lat="39.7136420" lon="-5.2497420">
        <ele>434.0</ele>
        <time>2019-07-09T05:57:02Z</time>
      </trkpt>
      <trkpt lat="39.7136800" lon="-5.2497600">
        <ele>434.2</ele>
        <time>2019-07-09T05:57:03Z</time>
      </trkpt>
      <trkpt lat="39.7138410" lon="-5.2498200">
        <ele>435.0</ele>
        <time>2019-07-09T05:57:07Z</time>
      </trkpt>
      <trkpt lat="39.7138790" lon="-5.2498380">
        <ele>435.2</ele>
        <time>2019-07-09T05:57:08Z</time>
      </trkpt>
      <trkpt lat="39.7139160" lon="-5.2498560">
        <ele>435.4</ele>
        <time>2019-07-09T05:57:09Z</time>
      </trkpt>
      <trkpt lat="39.7141320" lon="-5.2499510">
        <ele>436.4</ele>
        <time>2019-07-09T05:57:15Z</time>
      </trkpt>
      <trkpt lat="39.7142070" lon="-5.2499820">
        <ele>436.8</ele>
        <time>2019-07-09T05:57:17Z</time>
      </trkpt>
      <trkpt lat="39.7144380" lon="-5.2500870">
        <ele>437.6</ele>
        <time>2019-07-09T05:57:23Z</time>
      </trkpt>
      <trkpt lat="39.7145570" lon="-5.2501440">
        <ele>438.0</ele>
        <time>2019-07-09T05:57:26Z</time>
      </trkpt>
      <trkpt lat="39.7147200" lon="-5.2502070">
        <ele>438.6</ele>
        <time>2019-07-09T05:57:30Z</time>
      </trkpt>
      <trkpt lat="39.7149170" lon="-5.2502970">
        <ele>439.8</ele>
        <time>2019-07-09T05:57:35Z</time>
      </trkpt>
      <trkpt lat="39.7151620" lon="-5.2504010">
        <ele>440.6</ele>
        <time>2019-07-09T05:57:41Z</time>
      </trkpt>
      <trkpt lat="39.7152430" lon="-5.2504400">
        <ele>441.2</ele>
        <time>2019-07-09T05:57:43Z</time>
      </trkpt>
      <trkpt lat="39.7153690" lon="-5.2504940">
        <ele>441.6</ele>
        <time>2019-07-09T05:57:46Z</time>
      </trkpt>
      <trkpt lat="39.7155370" lon="-5.2505660">
        <ele>442.2</ele>
        <time>2019-07-09T05:57:50Z</time>
      </trkpt>
      <trkpt lat="39.7156600" lon="-5.2506250">
        <ele>442.8</ele>
        <time>2019-07-09T05:57:53Z</time>
      </trkpt>
      <trkpt lat="39.7158640" lon="-5.2507350">
        <ele>443.8</ele>
        <time>2019-07-09T05:57:58Z</time>
      </trkpt>
      <trkpt lat="39.7160220" lon="-5.2508310">
        <ele>444.4</ele>
        <time>2019-07-09T05:58:02Z</time>
      </trkpt>
      <trkpt lat="39.7160950" lon="-5.2508950">
        <ele>445.0</ele>
        <time>2019-07-09T05:58:04Z</time>
      </trkpt>
      <trkpt lat="39.7161310" lon="-5.2509290">
        <ele>445.2</ele>
        <time>2019-07-09T05:58:05Z</time>
      </trkpt>
      <trkpt lat="39.7163390" lon="-5.2511680">
        <ele>446.0</ele>
        <time>2019-07-09T05:58:11Z</time>
      </trkpt>
      <trkpt lat="39.7164070" lon="-5.2512650">
        <ele>446.2</ele>
        <time>2019-07-09T05:58:13Z</time>
      </trkpt>
      <trkpt lat="39.7166300" lon="-5.2516110">
        <ele>445.8</ele>
        <time>2019-07-09T05:58:19Z</time>
      </trkpt>
      <trkpt lat="39.7166680" lon="-5.2516750">
        <ele>445.6</ele>
        <time>2019-07-09T05:58:20Z</time>
      </trkpt>
      <trkpt lat="39.7167470" lon="-5.2518030">
        <ele>445.4</ele>
        <time>2019-07-09T05:58:22Z</time>
      </trkpt>
      <trkpt lat="39.7168710" lon="-5.2519980">
        <ele>445.0</ele>
        <time>2019-07-09T05:58:25Z</time>
      </trkpt>
      <trkpt lat="39.7169120" lon="-5.2520650">
        <ele>445.0</ele>
        <time>2019-07-09T05:58:26Z</time>
      </trkpt>
      <trkpt lat="39.7170420" lon="-5.2522640">
        <ele>444.8</ele>
        <time>2019-07-09T05:58:29Z</time>
      </trkpt>
      <trkpt lat="39.7170840" lon="-5.2523330">
        <ele>444.6</ele>
        <time>2019-07-09T05:58:30Z</time>
      </trkpt>
      <trkpt lat="39.7171700" lon="-5.2524740">
        <ele>444.4</ele>
        <time>2019-07-09T05:58:32Z</time>
      </trkpt>
      <trkpt lat="39.7173090" lon="-5.2526880">
        <ele>443.8</ele>
        <time>2019-07-09T05:58:35Z</time>
      </trkpt>
      <trkpt lat="39.7174420" lon="-5.2528980">
        <ele>443.4</ele>
        <time>2019-07-09T05:58:38Z</time>
      </trkpt>
      <trkpt lat="39.7177660" lon="-5.2534030">
        <ele>443.8</ele>
        <time>2019-07-09T05:58:46Z</time>
      </trkpt>
      <trkpt lat="39.7180840" lon="-5.2538960">
        <ele>444.4</ele>
        <time>2019-07-09T05:58:55Z</time>
      </trkpt>
      <trkpt lat="39.7181470" lon="-5.2539980">
        <ele>445.0</ele>
        <time>2019-07-09T05:58:57Z</time>
      </trkpt>
      <trkpt lat="39.7183050" lon="-5.2542430">
        <ele>445.6</ele>
        <time>2019-07-09T05:59:02Z</time>
      </trkpt>
      <trkpt lat="39.7183690" lon="-5.2543440">
        <ele>445.8</ele>
        <time>2019-07-09T05:59:04Z</time>
      </trkpt>
      <trkpt lat="39.7184010" lon="-5.2543960">
        <ele>446.0</ele>
        <time>2019-07-09T05:59:05Z</time>
      </trkpt>
      <trkpt lat="39.7186120" lon="-5.2547420">
        <ele>447.0</ele>
        <time>2019-07-09T05:59:12Z</time>
      </trkpt>
      <trkpt lat="39.7186440" lon="-5.2547890">
        <ele>447.0</ele>
        <time>2019-07-09T05:59:13Z</time>
      </trkpt>
      <trkpt lat="39.7188930" lon="-5.2551760">
        <ele>448.0</ele>
        <time>2019-07-09T05:59:21Z</time>
      </trkpt>
      <trkpt lat="39.7189530" lon="-5.2552710">
        <ele>448.4</ele>
        <time>2019-07-09T05:59:23Z</time>
      </trkpt>
      <trkpt lat="39.7191940" lon="-5.2556490">
        <ele>449.2</ele>
        <time>2019-07-09T05:59:31Z</time>
      </trkpt>
      <trkpt lat="39.7194890" lon="-5.2561230">
        <ele>449.4</ele>
        <time>2019-07-09T05:59:40Z</time>
      </trkpt>
      <trkpt lat="39.7196990" lon="-5.2564620">
        <ele>449.6</ele>
        <time>2019-07-09T05:59:46Z</time>
      </trkpt>
      <trkpt lat="39.7197690" lon="-5.2565720">
        <ele>449.6</ele>
        <time>2019-07-09T05:59:48Z</time>
      </trkpt>
      <trkpt lat="39.7199700" lon="-5.2568890">
        <ele>450.2</ele>
        <time>2019-07-09T05:59:54Z</time>
      </trkpt>
      <trkpt lat="39.7200570" lon="-5.2570310">
        <ele>450.8</ele>
        <time>2019-07-09T05:59:57Z</time>
      </trkpt>
      <trkpt lat="39.7201430" lon="-5.2571620">
        <ele>451.4</ele>
        <time>2019-07-09T06:00:00Z</time>
      </trkpt>
      <trkpt lat="39.7202510" lon="-5.2573330">
        <ele>452.0</ele>
        <time>2019-07-09T06:00:04Z</time>
      </trkpt>
      <trkpt lat="39.7203040" lon="-5.2574200">
        <ele>452.4</ele>
        <time>2019-07-09T06:00:06Z</time>
      </trkpt>
      <trkpt lat="39.7203310" lon="-5.2574610">
        <ele>452.6</ele>
        <time>2019-07-09T06:00:07Z</time>
      </trkpt>
      <trkpt lat="39.7204880" lon="-5.2577090">
        <ele>453.6</ele>
        <time>2019-07-09T06:00:13Z</time>
      </trkpt>
      <trkpt lat="39.7205120" lon="-5.2577500">
        <ele>453.6</ele>
        <time>2019-07-09T06:00:14Z</time>
      </trkpt>
      <trkpt lat="39.7206330" lon="-5.2579520">
        <ele>454.6</ele>
        <time>2019-07-09T06:00:19Z</time>
      </trkpt>
      <trkpt lat="39.7207010" lon="-5.2580750">
        <ele>455.0</ele>
        <time>2019-07-09T06:00:22Z</time>
      </trkpt>
      <trkpt lat="39.7208040" lon="-5.2582340">
        <ele>455.6</ele>
        <time>2019-07-09T06:00:26Z</time>
      </trkpt>
      <trkpt lat="39.7209280" lon="-5.2584360">
        <ele>456.6</ele>
        <time>2019-07-09T06:00:31Z</time>
      </trkpt>
      <trkpt lat="39.7210370" lon="-5.2585940">
        <ele>457.6</ele>
        <time>2019-07-09T06:00:35Z</time>
      </trkpt>
      <trkpt lat="39.7210650" lon="-5.2586340">
        <ele>457.8</ele>
        <time>2019-07-09T06:00:36Z</time>
      </trkpt>
      <trkpt lat="39.7211470" lon="-5.2587570">
        <ele>458.2</ele>
        <time>2019-07-09T06:00:39Z</time>
      </trkpt>
      <trkpt lat="39.7213560" lon="-5.2591000">
        <ele>458.2</ele>
        <time>2019-07-09T06:00:46Z</time>
      </trkpt>
      <trkpt lat="39.7215730" lon="-5.2594290">
        <ele>458.0</ele>
        <time>2019-07-09T06:00:52Z</time>
      </trkpt>
      <trkpt lat="39.7216450" lon="-5.2595440">
        <ele>458.2</ele>
        <time>2019-07-09T06:00:54Z</time>
      </trkpt>
      <trkpt lat="39.7217500" lon="-5.2597220">
        <ele>458.2</ele>
        <time>2019-07-09T06:00:57Z</time>
      </trkpt>
      <trkpt lat="39.7218580" lon="-5.2598930">
        <ele>458.2</ele>
        <time>2019-07-09T06:01:00Z</time>
      </trkpt>
      <trkpt lat="39.7219690" lon="-5.2600630">
        <ele>458.2</ele>
        <time>2019-07-09T06:01:03Z</time>
      </trkpt>
      <trkpt lat="39.7220060" lon="-5.2601200">
        <ele>458.2</ele>
        <time>2019-07-09T06:01:04Z</time>
      </trkpt>
      <trkpt lat="39.7221550" lon="-5.2603510">
        <ele>458.2</ele>
        <time>2019-07-09T06:01:08Z</time>
      </trkpt>
      <trkpt lat="39.7222280" lon="-5.2604680">
        <ele>458.2</ele>
        <time>2019-07-09T06:01:10Z</time>
      </trkpt>
      <trkpt lat="39.7224120" lon="-5.2607550">
        <ele>458.2</ele>
        <time>2019-07-09T06:01:15Z</time>
      </trkpt>
      <trkpt lat="39.7225260" lon="-5.2609210">
        <ele>458.4</ele>
        <time>2019-07-09T06:01:18Z</time>
      </trkpt>
      <trkpt lat="39.7226630" lon="-5.2611580">
        <ele>458.8</ele>
        <time>2019-07-09T06:01:22Z</time>
      </trkpt>
      <trkpt lat="39.7228100" lon="-5.2613870">
        <ele>459.2</ele>
        <time>2019-07-09T06:01:26Z</time>
      </trkpt>
      <trkpt lat="39.7229960" lon="-5.2616740">
        <ele>459.2</ele>
        <time>2019-07-09T06:01:31Z</time>
      </trkpt>
      <trkpt lat="39.7233350" lon="-5.2622110">
        <ele>459.0</ele>
        <time>2019-07-09T06:01:40Z</time>
      </trkpt>
      <trkpt lat="39.7236910" lon="-5.2628350">
        <ele>458.8</ele>
        <time>2019-07-09T06:01:50Z</time>
      </trkpt>
      <trkpt lat="39.7238800" lon="-5.2631680">
        <ele>458.4</ele>
        <time>2019-07-09T06:01:55Z</time>
      </trkpt>
      <trkpt lat="39.7239520" lon="-5.2633030">
        <ele>458.4</ele>
        <time>2019-07-09T06:01:57Z</time>
      </trkpt>
      <trkpt lat="39.7240250" lon="-5.2634350">
        <ele>458.2</ele>
        <time>2019-07-09T06:01:59Z</time>
      </trkpt>
      <trkpt lat="39.7241410" lon="-5.2636270">
        <ele>457.8</ele>
        <time>2019-07-09T06:02:02Z</time>
      </trkpt>
      <trkpt lat="39.7241780" lon="-5.2636930">
        <ele>457.6</ele>
        <time>2019-07-09T06:02:03Z</time>
      </trkpt>
      <trkpt lat="39.7242520" lon="-5.2638250">
        <ele>457.2</ele>
        <time>2019-07-09T06:02:05Z</time>
      </trkpt>
      <trkpt lat="39.7243280" lon="-5.2639540">
        <ele>457.0</ele>
        <time>2019-07-09T06:02:07Z</time>
      </trkpt>
      <trkpt lat="39.7244040" lon="-5.2640830">
        <ele>456.6</ele>
        <time>2019-07-09T06:02:09Z</time>
      </trkpt>
      <trkpt lat="39.7244750" lon="-5.2642110">
        <ele>456.6</ele>
        <time>2019-07-09T06:02:11Z</time>
      </trkpt>
      <trkpt lat="39.7245110" lon="-5.2642750">
        <ele>456.4</ele>
        <time>2019-07-09T06:02:12Z</time>
      </trkpt>
      <trkpt lat="39.7246580" lon="-5.2645310">
        <ele>455.8</ele>
        <time>2019-07-09T06:02:16Z</time>
      </trkpt>
      <trkpt lat="39.7246960" lon="-5.2645980">
        <ele>455.6</ele>
        <time>2019-07-09T06:02:17Z</time>
      </trkpt>
      <trkpt lat="39.7247350" lon="-5.2646670">
        <ele>455.4</ele>
        <time>2019-07-09T06:02:18Z</time>
      </trkpt>
      <trkpt lat="39.7249460" lon="-5.2650860">
        <ele>454.2</ele>
        <time>2019-07-09T06:02:24Z</time>
      </trkpt>
      <trkpt lat="39.7249720" lon="-5.2651550">
        <ele>454.2</ele>
        <time>2019-07-09T06:02:25Z</time>
      </trkpt>
      <trkpt lat="39.7250170" lon="-5.2653000">
        <ele>454.2</ele>
        <time>2019-07-09T06:02:27Z</time>
      </trkpt>
      <trkpt lat="39.7250520" lon="-5.2654550">
        <ele>454.2</ele>
        <time>2019-07-09T06:02:29Z</time>
      </trkpt>
      <trkpt lat="39.7250640" lon="-5.2655370">
        <ele>454.0</ele>
        <time>2019-07-09T06:02:30Z</time>
      </trkpt>
      <trkpt lat="39.7250720" lon="-5.2656210">
        <ele>454.0</ele>
        <time>2019-07-09T06:02:31Z</time>
      </trkpt>
      <trkpt lat="39.7250860" lon="-5.2659740">
        <ele>453.6</ele>
        <time>2019-07-09T06:02:35Z</time>
      </trkpt>
      <trkpt lat="39.7250660" lon="-5.2662430">
        <ele>453.0</ele>
        <time>2019-07-09T06:02:38Z</time>
      </trkpt>
      <trkpt lat="39.7250360" lon="-5.2667990">
        <ele>451.8</ele>
        <time>2019-07-09T06:02:44Z</time>
      </trkpt>
      <trkpt lat="39.7250320" lon="-5.2668960">
        <ele>451.6</ele>
        <time>2019-07-09T06:02:45Z</time>
      </trkpt>
      <trkpt lat="39.7250140" lon="-5.2671980">
        <ele>450.6</ele>
        <time>2019-07-09T06:02:48Z</time>
      </trkpt>
      <trkpt lat="39.7250140" lon="-5.2675160">
        <ele>449.8</ele>
        <time>2019-07-09T06:02:51Z</time>
      </trkpt>
      <trkpt lat="39.7250160" lon="-5.2677410">
        <ele>449.2</ele>
        <time>2019-07-09T06:02:53Z</time>
      </trkpt>
      <trkpt lat="39.7250260" lon="-5.2680930">
        <ele>447.6</ele>
        <time>2019-07-09T06:02:56Z</time>
      </trkpt>
      <trkpt lat="39.7250410" lon="-5.2683370">
        <ele>446.8</ele>
        <time>2019-07-09T06:02:58Z</time>
      </trkpt>
      <trkpt lat="39.7250500" lon="-5.2684610">
        <ele>446.4</ele>
        <time>2019-07-09T06:02:59Z</time>
      </trkpt>
      <trkpt lat="39.7250690" lon="-5.2687180">
        <ele>445.4</ele>
        <time>2019-07-09T06:03:01Z</time>
      </trkpt>
      <trkpt lat="39.7250900" lon="-5.2689810">
        <ele>444.2</ele>
        <time>2019-07-09T06:03:03Z</time>
      </trkpt>
      <trkpt lat="39.7251170" lon="-5.2692480">
        <ele>443.2</ele>
        <time>2019-07-09T06:03:05Z</time>
      </trkpt>
      <trkpt lat="39.7251310" lon="-5.2693840">
        <ele>442.6</ele>
        <time>2019-07-09T06:03:06Z</time>
      </trkpt>
      <trkpt lat="39.7251460" lon="-5.2695210">
        <ele>442.2</ele>
        <time>2019-07-09T06:03:07Z</time>
      </trkpt>
      <trkpt lat="39.7251820" lon="-5.2697970">
        <ele>441.2</ele>
        <time>2019-07-09T06:03:09Z</time>
      </trkpt>
      <trkpt lat="39.7252330" lon="-5.2700710">
        <ele>440.0</ele>
        <time>2019-07-09T06:03:11Z</time>
      </trkpt>
      <trkpt lat="39.7252590" lon="-5.2702080">
        <ele>439.2</ele>
        <time>2019-07-09T06:03:12Z</time>
      </trkpt>
      <trkpt lat="39.7252850" lon="-5.2703440">
        <ele>438.6</ele>
        <time>2019-07-09T06:03:13Z</time>
      </trkpt>
      <trkpt lat="39.7253650" lon="-5.2707410">
        <ele>437.4</ele>
        <time>2019-07-09T06:03:16Z</time>
      </trkpt>
      <trkpt lat="39.7254830" lon="-5.2712340">
        <ele>436.0</ele>
        <time>2019-07-09T06:03:20Z</time>
      </trkpt>
      <trkpt lat="39.7256380" lon="-5.2716530">
        <ele>435.6</ele>
        <time>2019-07-09T06:03:24Z</time>
      </trkpt>
      <trkpt lat="39.7258110" lon="-5.2720090">
        <ele>435.6</ele>
        <time>2019-07-09T06:03:28Z</time>
      </trkpt>
      <trkpt lat="39.7258910" lon="-5.2721740">
        <ele>435.6</ele>
        <time>2019-07-09T06:03:30Z</time>
      </trkpt>
      <trkpt lat="39.7259310" lon="-5.2722520">
        <ele>435.6</ele>
        <time>2019-07-09T06:03:31Z</time>
      </trkpt>
      <trkpt lat="39.7260090" lon="-5.2724030">
        <ele>435.8</ele>
        <time>2019-07-09T06:03:33Z</time>
      </trkpt>
      <trkpt lat="39.7262420" lon="-5.2728070">
        <ele>436.2</ele>
        <time>2019-07-09T06:03:39Z</time>
      </trkpt>
      <trkpt lat="39.7263530" lon="-5.2729960">
        <ele>436.2</ele>
        <time>2019-07-09T06:03:42Z</time>
      </trkpt>
      <trkpt lat="39.7263860" lon="-5.2731460">
        <ele>436.2</ele>
        <time>2019-07-09T06:03:44Z</time>
      </trkpt>
      <trkpt lat="39.7263000" lon="-5.2733570">
        <ele>436.2</ele>
        <time>2019-07-09T06:03:47Z</time>
      </trkpt>
      <trkpt lat="39.7262600" lon="-5.2734140">
        <ele>436.2</ele>
        <time>2019-07-09T06:03:48Z</time>
      </trkpt>
      <trkpt lat="39.7261910" lon="-5.2735260">
        <ele>436.2</ele>
        <time>2019-07-09T06:03:50Z</time>
      </trkpt>
      <trkpt lat="39.7261640" lon="-5.2735840">
        <ele>436.4</ele>
        <time>2019-07-09T06:03:51Z</time>
      </trkpt>
      <trkpt lat="39.7261450" lon="-5.2736440">
        <ele>436.8</ele>
        <time>2019-07-09T06:03:52Z</time>
      </trkpt>
      <trkpt lat="39.7261330" lon="-5.2737060">
        <ele>437.2</ele>
        <time>2019-07-09T06:03:53Z</time>
      </trkpt>
      <trkpt lat="39.7261320" lon="-5.2738290">
        <ele>438.0</ele>
        <time>2019-07-09T06:03:55Z</time>
      </trkpt>
      <trkpt lat="39.7261390" lon="-5.2738910">
        <ele>438.2</ele>
        <time>2019-07-09T06:03:56Z</time>
      </trkpt>
      <trkpt lat="39.7261510" lon="-5.2739510">
        <ele>438.4</ele>
        <time>2019-07-09T06:03:57Z</time>
      </trkpt>
      <trkpt lat="39.7261650" lon="-5.2740090">
        <ele>438.6</ele>
        <time>2019-07-09T06:03:58Z</time>
      </trkpt>
      <trkpt lat="39.7261910" lon="-5.2741300">
        <ele>439.4</ele>
        <time>2019-07-09T06:04:00Z</time>
      </trkpt>
      <trkpt lat="39.7262190" lon="-5.2743290">
        <ele>439.6</ele>
        <time>2019-07-09T06:04:03Z</time>
      </trkpt>
      <trkpt lat="39.7262510" lon="-5.2745390">
        <ele>439.8</ele>
        <time>2019-07-09T06:04:06Z</time>
      </trkpt>
      <trkpt lat="39.7262900" lon="-5.2747650">
        <ele>439.8</ele>
        <time>2019-07-09T06:04:09Z</time>
      </trkpt>
      <trkpt lat="39.7263900" lon="-5.2754360">
        <ele>438.4</ele>
        <time>2019-07-09T06:04:17Z</time>
      </trkpt>
      <trkpt lat="39.7264170" lon="-5.2756070">
        <ele>438.2</ele>
        <time>2019-07-09T06:04:19Z</time>
      </trkpt>
      <trkpt lat="39.7264640" lon="-5.2759330">
        <ele>438.2</ele>
        <time>2019-07-09T06:04:23Z</time>
      </trkpt>
      <trkpt lat="39.7264920" lon="-5.2760900">
        <ele>438.2</ele>
        <time>2019-07-09T06:04:25Z</time>
      </trkpt>
      <trkpt lat="39.7265290" lon="-5.2763170">
        <ele>438.2</ele>
        <time>2019-07-09T06:04:28Z</time>
      </trkpt>
      <trkpt lat="39.7265610" lon="-5.2765930">
        <ele>438.2</ele>
        <time>2019-07-09T06:04:32Z</time>
      </trkpt>
      <trkpt lat="39.7266310" lon="-5.2769880">
        <ele>437.6</ele>
        <time>2019-07-09T06:04:38Z</time>
      </trkpt>
      <trkpt lat="39.7266380" lon="-5.2770600">
        <ele>437.4</ele>
        <time>2019-07-09T06:04:39Z</time>
      </trkpt>
      <trkpt lat="39.7266200" lon="-5.2774490">
        <ele>437.0</ele>
        <time>2019-07-09T06:04:44Z</time>
      </trkpt>
      <trkpt lat="39.7266070" lon="-5.2775340">
        <ele>436.8</ele>
        <time>2019-07-09T06:04:45Z</time>
      </trkpt>
      <trkpt lat="39.7265570" lon="-5.2778120">
        <ele>435.4</ele>
        <time>2019-07-09T06:04:48Z</time>
      </trkpt>
      <trkpt lat="39.7265010" lon="-5.2780990">
        <ele>434.2</ele>
        <time>2019-07-09T06:04:51Z</time>
      </trkpt>
      <trkpt lat="39.7264510" lon="-5.2784240">
        <ele>432.4</ele>
        <time>2019-07-09T06:04:54Z</time>
      </trkpt>
      <trkpt lat="39.7264440" lon="-5.2786650">
        <ele>431.2</ele>
        <time>2019-07-09T06:04:56Z</time>
      </trkpt>
      <trkpt lat="39.7264610" lon="-5.2789110">
        <ele>429.8</ele>
        <time>2019-07-09T06:04:58Z</time>
      </trkpt>
      <trkpt lat="39.7265110" lon="-5.2791350">
        <ele>429.2</ele>
        <time>2019-07-09T06:05:00Z</time>
      </trkpt>
      <trkpt lat="39.7265820" lon="-5.2793290">
        <ele>429.0</ele>
        <time>2019-07-09T06:05:02Z</time>
      </trkpt>
      <trkpt lat="39.7266640" lon="-5.2796070">
        <ele>429.0</ele>
        <time>2019-07-09T06:05:05Z</time>
      </trkpt>
      <trkpt lat="39.7267840" lon="-5.2801070">
        <ele>428.4</ele>
        <time>2019-07-09T06:05:11Z</time>
      </trkpt>
      <trkpt lat="39.7267950" lon="-5.2801800">
        <ele>428.4</ele>
        <time>2019-07-09T06:05:12Z</time>
      </trkpt>
      <trkpt lat="39.7267790" lon="-5.2804490">
        <ele>428.6</ele>
        <time>2019-07-09T06:05:16Z</time>
      </trkpt>
      <trkpt lat="39.7267990" lon="-5.2806660">
        <ele>429.0</ele>
        <time>2019-07-09T06:05:20Z</time>
      </trkpt>
      <trkpt lat="39.7268080" lon="-5.2807170">
        <ele>429.0</ele>
        <time>2019-07-09T06:05:21Z</time>
      </trkpt>
      <trkpt lat="39.7268540" lon="-5.2809970">
        <ele>429.2</ele>
        <time>2019-07-09T06:05:26Z</time>
      </trkpt>
      <trkpt lat="39.7268590" lon="-5.2810550">
        <ele>429.4</ele>
        <time>2019-07-09T06:05:27Z</time>
      </trkpt>
      <trkpt lat="39.7268670" lon="-5.2812130">
        <ele>429.8</ele>
        <time>2019-07-09T06:05:30Z</time>
      </trkpt>
      <trkpt lat="39.7268760" lon="-5.2813350">
        <ele>430.4</ele>
        <time>2019-07-09T06:05:33Z</time>
      </trkpt>
      <trkpt lat="39.7268850" lon="-5.2814160">
        <ele>431.0</ele>
        <time>2019-07-09T06:05:35Z</time>
      </trkpt>
      <trkpt lat="39.7268970" lon="-5.2814960">
        <ele>431.2</ele>
        <time>2019-07-09T06:05:37Z</time>
      </trkpt>
      <trkpt lat="39.7269070" lon="-5.2815360">
        <ele>431.4</ele>
        <time>2019-07-09T06:05:38Z</time>
      </trkpt>
      <trkpt lat="39.7269170" lon="-5.2815800">
        <ele>431.8</ele>
        <time>2019-07-09T06:05:39Z</time>
      </trkpt>
      <trkpt lat="39.7269220" lon="-5.2816240">
        <ele>432.0</ele>
        <time>2019-07-09T06:05:40Z</time>
      </trkpt>
      <trkpt lat="39.7269280" lon="-5.2816660">
        <ele>432.4</ele>
        <time>2019-07-09T06:05:41Z</time>
      </trkpt>
      <trkpt lat="39.7269430" lon="-5.2817520">
        <ele>433.0</ele>
        <time>2019-07-09T06:05:43Z</time>
      </trkpt>
      <trkpt lat="39.7269500" lon="-5.2817920">
        <ele>433.4</ele>
        <time>2019-07-09T06:05:44Z</time>
      </trkpt>
      <trkpt lat="39.7269740" lon="-5.2819060">
        <ele>434.0</ele>
        <time>2019-07-09T06:05:47Z</time>
      </trkpt>
      <trkpt lat="39.7269830" lon="-5.2819850">
        <ele>434.6</ele>
        <time>2019-07-09T06:05:49Z</time>
      </trkpt>
      <trkpt lat="39.7269960" lon="-5.2821080">
        <ele>435.4</ele>
        <time>2019-07-09T06:05:52Z</time>
      </trkpt>
      <trkpt lat="39.7270000" lon="-5.2821480">
        <ele>435.6</ele>
        <time>2019-07-09T06:05:53Z</time>
      </trkpt>
      <trkpt lat="39.7270080" lon="-5.2821820">
        <ele>435.8</ele>
        <time>2019-07-09T06:05:54Z</time>
      </trkpt>
      <trkpt lat="39.7270640" lon="-5.2823160">
        <ele>436.8</ele>
        <time>2019-07-09T06:05:58Z</time>
      </trkpt>
      <trkpt lat="39.7270930" lon="-5.2823870">
        <ele>437.0</ele>
        <time>2019-07-09T06:06:00Z</time>
      </trkpt>
      <trkpt lat="39.7271690" lon="-5.2826290">
        <ele>437.4</ele>
        <time>2019-07-09T06:06:06Z</time>
      </trkpt>
      <trkpt lat="39.7271940" lon="-5.2828070">
        <ele>437.6</ele>
        <time>2019-07-09T06:06:11Z</time>
      </trkpt>
      <trkpt lat="39.7271880" lon="-5.2828390">
        <ele>437.6</ele>
        <time>2019-07-09T06:06:12Z</time>
      </trkpt>
      <trkpt lat="39.7271780" lon="-5.2828630">
        <ele>437.6</ele>
        <time>2019-07-09T06:06:13Z</time>
      </trkpt>
      <trkpt lat="39.7271630" lon="-5.2828810">
        <ele>437.8</ele>
        <time>2019-07-09T06:06:14Z</time>
      </trkpt>
      <trkpt lat="39.7271270" lon="-5.2828910">
        <ele>438.0</ele>
        <time>2019-07-09T06:06:16Z</time>
      </trkpt>
      <trkpt lat="39.7271060" lon="-5.2828950">
        <ele>438.2</ele>
        <time>2019-07-09T06:06:17Z</time>
      </trkpt>
      <trkpt lat="39.7269590" lon="-5.2829240">
        <ele>438.2</ele>
        <time>2019-07-09T06:06:22Z</time>
      </trkpt>
      <trkpt lat="39.7268310" lon="-5.2829340">
        <ele>438.6</ele>
        <time>2019-07-09T06:06:26Z</time>
      </trkpt>
      <trkpt lat="39.7267750" lon="-5.2829490">
        <ele>439.0</ele>
        <time>2019-07-09T06:06:28Z</time>
      </trkpt>
      <trkpt lat="39.7267110" lon="-5.2829610">
        <ele>439.0</ele>
        <time>2019-07-09T06:06:31Z</time>
      </trkpt>
      <trkpt lat="39.7266920" lon="-5.2829670">
        <ele>439.0</ele>
        <time>2019-07-09T06:06:33Z</time>
      </trkpt>
      <trkpt lat="39.7266910" lon="-5.2829750">
        <ele>438.8</ele>
        <time>2019-07-09T06:06:35Z</time>
      </trkpt>
      <trkpt lat="39.7266910" lon="-5.2829840">
        <ele>438.8</ele>
        <time>2019-07-09T06:06:36Z</time>
      </trkpt>
      <trkpt lat="39.7266820" lon="-5.2830110">
        <ele>438.8</ele>
        <time>2019-07-09T06:06:38Z</time>
      </trkpt>
      <trkpt lat="39.7266800" lon="-5.2831160">
        <ele>439.0</ele>
        <time>2019-07-09T06:06:42Z</time>
      </trkpt>
      <trkpt lat="39.7266600" lon="-5.2831980">
        <ele>439.0</ele>
        <time>2019-07-09T06:06:44Z</time>
      </trkpt>
      <trkpt lat="39.7266420" lon="-5.2832370">
        <ele>439.0</ele>
        <time>2019-07-09T06:06:45Z</time>
      </trkpt>
      <trkpt lat="39.7266160" lon="-5.2832680">
        <ele>439.0</ele>
        <time>2019-07-09T06:06:46Z</time>
      </trkpt>
      <trkpt lat="39.7265140" lon="-5.2833080">
        <ele>438.6</ele>
        <time>2019-07-09T06:06:50Z</time>
      </trkpt>
      <trkpt lat="39.7264920" lon="-5.2833120">
        <ele>438.6</ele>
        <time>2019-07-09T06:06:51Z</time>
      </trkpt>
      <trkpt lat="39.7263210" lon="-5.2833060">
        <ele>439.6</ele>
        <time>2019-07-09T06:06:58Z</time>
      </trkpt>
      <trkpt lat="39.7262470" lon="-5.2833170">
        <ele>440.0</ele>
        <time>2019-07-09T06:07:01Z</time>
      </trkpt>
      <trkpt lat="39.7262000" lon="-5.2833040">
        <ele>440.2</ele>
        <time>2019-07-09T06:07:03Z</time>
      </trkpt>
      <trkpt lat="39.7261060" lon="-5.2833210">
        <ele>441.0</ele>
        <time>2019-07-09T06:07:08Z</time>
      </trkpt>
      <trkpt lat="39.7260700" lon="-5.2833520">
        <ele>441.2</ele>
        <time>2019-07-09T06:07:10Z</time>
      </trkpt>
      <trkpt lat="39.7260340" lon="-5.2834550">
        <ele>441.8</ele>
        <time>2019-07-09T06:07:14Z</time>
      </trkpt>
      <trkpt lat="39.7260500" lon="-5.2836060">
        <ele>441.8</ele>
        <time>2019-07-09T06:07:19Z</time>
      </trkpt>
      <trkpt lat="39.7261090" lon="-5.2837680">
        <ele>441.6</ele>
        <time>2019-07-09T06:07:23Z</time>
      </trkpt>
      <trkpt lat="39.7261320" lon="-5.2838170">
        <ele>441.4</ele>
        <time>2019-07-09T06:07:25Z</time>
      </trkpt>
      <trkpt lat="39.7261400" lon="-5.2838510">
        <ele>441.2</ele>
        <time>2019-07-09T06:07:27Z</time>
      </trkpt>
      <trkpt lat="39.7261370" lon="-5.2839040">
        <ele>441.0</ele>
        <time>2019-07-09T06:07:29Z</time>
      </trkpt>
      <trkpt lat="39.7261500" lon="-5.2839810">
        <ele>440.6</ele>
        <time>2019-07-09T06:07:31Z</time>
      </trkpt>
      <trkpt lat="39.7261680" lon="-5.2840970">
        <ele>440.2</ele>
        <time>2019-07-09T06:07:33Z</time>
      </trkpt>
      <trkpt lat="39.7261700" lon="-5.2841590">
        <ele>440.0</ele>
        <time>2019-07-09T06:07:34Z</time>
      </trkpt>
      <trkpt lat="39.7261720" lon="-5.2842100">
        <ele>439.6</ele>
        <time>2019-07-09T06:07:35Z</time>
      </trkpt>
      <trkpt lat="39.7261790" lon="-5.2842570">
        <ele>438.8</ele>
        <time>2019-07-09T06:07:36Z</time>
      </trkpt>
      <trkpt lat="39.7261970" lon="-5.2843440">
        <ele>438.0</ele>
        <time>2019-07-09T06:07:38Z</time>
      </trkpt>
      <trkpt lat="39.7262140" lon="-5.2843950">
        <ele>437.6</ele>
        <time>2019-07-09T06:07:39Z</time>
      </trkpt>
      <trkpt lat="39.7262710" lon="-5.2845770">
        <ele>436.4</ele>
        <time>2019-07-09T06:07:42Z</time>
      </trkpt>
      <trkpt lat="39.7262880" lon="-5.2846350">
        <ele>436.2</ele>
        <time>2019-07-09T06:07:43Z</time>
      </trkpt>
      <trkpt lat="39.7262970" lon="-5.2846940">
        <ele>436.2</ele>
        <time>2019-07-09T06:07:44Z</time>
      </trkpt>
      <trkpt lat="39.7263080" lon="-5.2848150">
        <ele>435.6</ele>
        <time>2019-07-09T06:07:46Z</time>
      </trkpt>
      <trkpt lat="39.7263110" lon="-5.2849490">
        <ele>435.0</ele>
        <time>2019-07-09T06:07:48Z</time>
      </trkpt>
      <trkpt lat="39.7262700" lon="-5.2851460">
        <ele>434.8</ele>
        <time>2019-07-09T06:07:51Z</time>
      </trkpt>
      <trkpt lat="39.7262510" lon="-5.2852050">
        <ele>434.4</ele>
        <time>2019-07-09T06:07:52Z</time>
      </trkpt>
      <trkpt lat="39.7262350" lon="-5.2852630">
        <ele>434.4</ele>
        <time>2019-07-09T06:07:53Z</time>
      </trkpt>
      <trkpt lat="39.7261500" lon="-5.2855760">
        <ele>434.4</ele>
        <time>2019-07-09T06:07:59Z</time>
      </trkpt>
      <trkpt lat="39.7261380" lon="-5.2856230">
        <ele>434.8</ele>
        <time>2019-07-09T06:08:00Z</time>
      </trkpt>
      <trkpt lat="39.7261130" lon="-5.2857230">
        <ele>435.0</ele>
        <time>2019-07-09T06:08:02Z</time>
      </trkpt>
      <trkpt lat="39.7260510" lon="-5.2859150">
        <ele>435.2</ele>
        <time>2019-07-09T06:08:06Z</time>
      </trkpt>
      <trkpt lat="39.7260190" lon="-5.2860080">
        <ele>435.4</ele>
        <time>2019-07-09T06:08:08Z</time>
      </trkpt>
      <trkpt lat="39.7259890" lon="-5.2861050">
        <ele>435.6</ele>
        <time>2019-07-09T06:08:10Z</time>
      </trkpt>
      <trkpt lat="39.7259560" lon="-5.2862050">
        <ele>436.0</ele>
        <time>2019-07-09T06:08:12Z</time>
      </trkpt>
      <trkpt lat="39.7259150" lon="-5.2863040">
        <ele>436.2</ele>
        <time>2019-07-09T06:08:14Z</time>
      </trkpt>
      <trkpt lat="39.7258490" lon="-5.2864310">
        <ele>436.4</ele>
        <time>2019-07-09T06:08:17Z</time>
      </trkpt>
      <trkpt lat="39.7258280" lon="-5.2864730">
        <ele>436.6</ele>
        <time>2019-07-09T06:08:18Z</time>
      </trkpt>
      <trkpt lat="39.7257300" lon="-5.2866790">
        <ele>437.0</ele>
        <time>2019-07-09T06:08:23Z</time>
      </trkpt>
      <trkpt lat="39.7256730" lon="-5.2868050">
        <ele>437.4</ele>
        <time>2019-07-09T06:08:26Z</time>
      </trkpt>
      <trkpt lat="39.7256510" lon="-5.2868440">
        <ele>437.4</ele>
        <time>2019-07-09T06:08:27Z</time>
      </trkpt>
      <trkpt lat="39.7255140" lon="-5.2870320">
        <ele>437.6</ele>
        <time>2019-07-09T06:08:32Z</time>
      </trkpt>
      <trkpt lat="39.7253430" lon="-5.2874030">
        <ele>437.6</ele>
        <time>2019-07-09T06:08:39Z</time>
      </trkpt>
      <trkpt lat="39.7252810" lon="-5.2875810">
        <ele>437.4</ele>
        <time>2019-07-09T06:08:42Z</time>
      </trkpt>
      <trkpt lat="39.7252430" lon="-5.2877020">
        <ele>437.2</ele>
        <time>2019-07-09T06:08:44Z</time>
      </trkpt>
      <trkpt lat="39.7252190" lon="-5.2878330">
        <ele>437.0</ele>
        <time>2019-07-09T06:08:46Z</time>
      </trkpt>
      <trkpt lat="39.7251670" lon="-5.2882770">
        <ele>437.6</ele>
        <time>2019-07-09T06:08:53Z</time>
      </trkpt>
      <trkpt lat="39.7251500" lon="-5.2885140">
        <ele>438.2</ele>
        <time>2019-07-09T06:08:57Z</time>
      </trkpt>
      <trkpt lat="39.7251260" lon="-5.2886810">
        <ele>438.4</ele>
        <time>2019-07-09T06:09:00Z</time>
      </trkpt>
      <trkpt lat="39.7251200" lon="-5.2887360">
        <ele>438.4</ele>
        <time>2019-07-09T06:09:01Z</time>
      </trkpt>
      <trkpt lat="39.7251010" lon="-5.2889000">
        <ele>439.2</ele>
        <time>2019-07-09T06:09:04Z</time>
      </trkpt>
      <trkpt lat="39.7250940" lon="-5.2889520">
        <ele>439.4</ele>
        <time>2019-07-09T06:09:05Z</time>
      </trkpt>
      <trkpt lat="39.7250770" lon="-5.2891080">
        <ele>439.8</ele>
        <time>2019-07-09T06:09:08Z</time>
      </trkpt>
      <trkpt lat="39.7250520" lon="-5.2892640">
        <ele>440.2</ele>
        <time>2019-07-09T06:09:11Z</time>
      </trkpt>
      <trkpt lat="39.7250440" lon="-5.2893200">
        <ele>440.4</ele>
        <time>2019-07-09T06:09:12Z</time>
      </trkpt>
      <trkpt lat="39.7250190" lon="-5.2895440">
        <ele>441.0</ele>
        <time>2019-07-09T06:09:16Z</time>
      </trkpt>
      <trkpt lat="39.7249960" lon="-5.2897190">
        <ele>441.2</ele>
        <time>2019-07-09T06:09:19Z</time>
      </trkpt>
      <trkpt lat="39.7249430" lon="-5.2900280">
        <ele>441.2</ele>
        <time>2019-07-09T06:09:24Z</time>
      </trkpt>
      <trkpt lat="39.7249110" lon="-5.2902330">
        <ele>440.8</ele>
        <time>2019-07-09T06:09:27Z</time>
      </trkpt>
      <trkpt lat="39.7248790" lon="-5.2903830">
        <ele>440.2</ele>
        <time>2019-07-09T06:09:29Z</time>
      </trkpt>
      <trkpt lat="39.7248360" lon="-5.2905480">
        <ele>439.8</ele>
        <time>2019-07-09T06:09:31Z</time>
      </trkpt>
      <trkpt lat="39.7248140" lon="-5.2906370">
        <ele>439.4</ele>
        <time>2019-07-09T06:09:32Z</time>
      </trkpt>
      <trkpt lat="39.7247740" lon="-5.2908250">
        <ele>438.4</ele>
        <time>2019-07-09T06:09:34Z</time>
      </trkpt>
      <trkpt lat="39.7247600" lon="-5.2909210">
        <ele>438.2</ele>
        <time>2019-07-09T06:09:35Z</time>
      </trkpt>
      <trkpt lat="39.7247430" lon="-5.2911160">
        <ele>437.8</ele>
        <time>2019-07-09T06:09:37Z</time>
      </trkpt>
      <trkpt lat="39.7247440" lon="-5.2912120">
        <ele>437.4</ele>
        <time>2019-07-09T06:09:38Z</time>
      </trkpt>
      <trkpt lat="39.7247670" lon="-5.2913930">
        <ele>437.0</ele>
        <time>2019-07-09T06:09:40Z</time>
      </trkpt>
      <trkpt lat="39.7247820" lon="-5.2914760">
        <ele>437.0</ele>
        <time>2019-07-09T06:09:41Z</time>
      </trkpt>
      <trkpt lat="39.7247910" lon="-5.2915550">
        <ele>437.0</ele>
        <time>2019-07-09T06:09:42Z</time>
      </trkpt>
      <trkpt lat="39.7247820" lon="-5.2917760">
        <ele>437.0</ele>
        <time>2019-07-09T06:09:45Z</time>
      </trkpt>
      <trkpt lat="39.7246730" lon="-5.2920400">
        <ele>437.0</ele>
        <time>2019-07-09T06:09:49Z</time>
      </trkpt>
      <trkpt lat="39.7246380" lon="-5.2920990">
        <ele>437.0</ele>
        <time>2019-07-09T06:09:50Z</time>
      </trkpt>
      <trkpt lat="39.7244410" lon="-5.2923670">
        <ele>436.8</ele>
        <time>2019-07-09T06:09:55Z</time>
      </trkpt>
      <trkpt lat="39.7241480" lon="-5.2927510">
        <ele>437.2</ele>
        <time>2019-07-09T06:10:03Z</time>
      </trkpt>
      <trkpt lat="39.7240120" lon="-5.2929270">
        <ele>437.8</ele>
        <time>2019-07-09T06:10:07Z</time>
      </trkpt>
      <trkpt lat="39.7239760" lon="-5.2929690">
        <ele>438.0</ele>
        <time>2019-07-09T06:10:08Z</time>
      </trkpt>
      <trkpt lat="39.7239100" lon="-5.2930540">
        <ele>438.4</ele>
        <time>2019-07-09T06:10:10Z</time>
      </trkpt>
      <trkpt lat="39.7238780" lon="-5.2930970">
        <ele>438.6</ele>
        <time>2019-07-09T06:10:11Z</time>
      </trkpt>
      <trkpt lat="39.7237850" lon="-5.2932300">
        <ele>438.8</ele>
        <time>2019-07-09T06:10:14Z</time>
      </trkpt>
      <trkpt lat="39.7237550" lon="-5.2932770">
        <ele>439.2</ele>
        <time>2019-07-09T06:10:15Z</time>
      </trkpt>
      <trkpt lat="39.7236650" lon="-5.2934220">
        <ele>439.6</ele>
        <time>2019-07-09T06:10:18Z</time>
      </trkpt>
      <trkpt lat="39.7236060" lon="-5.2935210">
        <ele>439.8</ele>
        <time>2019-07-09T06:10:20Z</time>
      </trkpt>
      <trkpt lat="39.7235200" lon="-5.2936720">
        <ele>440.2</ele>
        <time>2019-07-09T06:10:23Z</time>
      </trkpt>
      <trkpt lat="39.7233800" lon="-5.2939330">
        <ele>440.6</ele>
        <time>2019-07-09T06:10:28Z</time>
      </trkpt>
      <trkpt lat="39.7232980" lon="-5.2940980">
        <ele>440.8</ele>
        <time>2019-07-09T06:10:31Z</time>
      </trkpt>
      <trkpt lat="39.7231200" lon="-5.2945000">
        <ele>441.2</ele>
        <time>2019-07-09T06:10:38Z</time>
      </trkpt>
      <trkpt lat="39.7230480" lon="-5.2946720">
        <ele>441.4</ele>
        <time>2019-07-09T06:10:41Z</time>
      </trkpt>
      <trkpt lat="39.7229280" lon="-5.2949540">
        <ele>441.6</ele>
        <time>2019-07-09T06:10:46Z</time>
      </trkpt>
      <trkpt lat="39.7227970" lon="-5.2953070">
        <ele>442.0</ele>
        <time>2019-07-09T06:10:52Z</time>
      </trkpt>
      <trkpt lat="39.7226960" lon="-5.2956780">
        <ele>442.4</ele>
        <time>2019-07-09T06:10:58Z</time>
      </trkpt>
      <trkpt lat="39.7225250" lon="-5.2963690">
        <ele>442.8</ele>
        <time>2019-07-09T06:11:09Z</time>
      </trkpt>
      <trkpt lat="39.7224290" lon="-5.2968290">
        <ele>443.4</ele>
        <time>2019-07-09T06:11:16Z</time>
      </trkpt>
      <trkpt lat="39.7223910" lon="-5.2970270">
        <ele>443.6</ele>
        <time>2019-07-09T06:11:19Z</time>
      </trkpt>
      <trkpt lat="39.7223180" lon="-5.2976440">
        <ele>444.2</ele>
        <time>2019-07-09T06:11:28Z</time>
      </trkpt>
      <trkpt lat="39.7222890" lon="-5.2979830">
        <ele>444.2</ele>
        <time>2019-07-09T06:11:33Z</time>
      </trkpt>
      <trkpt lat="39.7222730" lon="-5.2981870">
        <ele>444.2</ele>
        <time>2019-07-09T06:11:36Z</time>
      </trkpt>
      <trkpt lat="39.7222400" lon="-5.2985930">
        <ele>444.6</ele>
        <time>2019-07-09T06:11:42Z</time>
      </trkpt>
      <trkpt lat="39.7222180" lon="-5.2988560">
        <ele>444.8</ele>
        <time>2019-07-09T06:11:46Z</time>
      </trkpt>
      <trkpt lat="39.7221680" lon="-5.2995090">
        <ele>445.4</ele>
        <time>2019-07-09T06:11:56Z</time>
      </trkpt>
      <trkpt lat="39.7221600" lon="-5.2996400">
        <ele>445.4</ele>
        <time>2019-07-09T06:11:58Z</time>
      </trkpt>
      <trkpt lat="39.7221050" lon="-5.3003410">
        <ele>446.0</ele>
        <time>2019-07-09T06:12:09Z</time>
      </trkpt>
      <trkpt lat="39.7220990" lon="-5.3004050">
        <ele>446.0</ele>
        <time>2019-07-09T06:12:10Z</time>
      </trkpt>
      <trkpt lat="39.7220630" lon="-5.3009160">
        <ele>446.4</ele>
        <time>2019-07-09T06:12:18Z</time>
      </trkpt>
      <trkpt lat="39.7220580" lon="-5.3009810">
        <ele>446.4</ele>
        <time>2019-07-09T06:12:19Z</time>
      </trkpt>
      <trkpt lat="39.7220370" lon="-5.3012340">
        <ele>446.6</ele>
        <time>2019-07-09T06:12:23Z</time>
      </trkpt>
      <trkpt lat="39.7220160" lon="-5.3015520">
        <ele>446.8</ele>
        <time>2019-07-09T06:12:28Z</time>
      </trkpt>
      <trkpt lat="39.7219970" lon="-5.3017960">
        <ele>446.6</ele>
        <time>2019-07-09T06:12:32Z</time>
      </trkpt>
      <trkpt lat="39.7219820" lon="-5.3019690">
        <ele>446.4</ele>
        <time>2019-07-09T06:12:35Z</time>
      </trkpt>
      <trkpt lat="39.7219720" lon="-5.3020860">
        <ele>446.2</ele>
        <time>2019-07-09T06:12:37Z</time>
      </trkpt>
      <trkpt lat="39.7219570" lon="-5.3022650">
        <ele>446.0</ele>
        <time>2019-07-09T06:12:40Z</time>
      </trkpt>
      <trkpt lat="39.7219400" lon="-5.3024570">
        <ele>445.6</ele>
        <time>2019-07-09T06:12:43Z</time>
      </trkpt>
      <trkpt lat="39.7219220" lon="-5.3026620">
        <ele>445.4</ele>
        <time>2019-07-09T06:12:46Z</time>
      </trkpt>
      <trkpt lat="39.7219000" lon="-5.3028850">
        <ele>445.0</ele>
        <time>2019-07-09T06:12:49Z</time>
      </trkpt>
      <trkpt lat="39.7218850" lon="-5.3031210">
        <ele>444.4</ele>
        <time>2019-07-09T06:12:52Z</time>
      </trkpt>
      <trkpt lat="39.7218770" lon="-5.3032030">
        <ele>444.2</ele>
        <time>2019-07-09T06:12:53Z</time>
      </trkpt>
      <trkpt lat="39.7218410" lon="-5.3036240">
        <ele>443.2</ele>
        <time>2019-07-09T06:12:58Z</time>
      </trkpt>
      <trkpt lat="39.7218220" lon="-5.3038880">
        <ele>442.8</ele>
        <time>2019-07-09T06:13:01Z</time>
      </trkpt>
      <trkpt lat="39.7218130" lon="-5.3040690">
        <ele>442.2</ele>
        <time>2019-07-09T06:13:03Z</time>
      </trkpt>
      <trkpt lat="39.7217780" lon="-5.3045320">
        <ele>441.0</ele>
        <time>2019-07-09T06:13:08Z</time>
      </trkpt>
      <trkpt lat="39.7217630" lon="-5.3047220">
        <ele>440.4</ele>
        <time>2019-07-09T06:13:10Z</time>
      </trkpt>
      <trkpt lat="39.7217300" lon="-5.3051130">
        <ele>440.0</ele>
        <time>2019-07-09T06:13:14Z</time>
      </trkpt>
      <trkpt lat="39.7216960" lon="-5.3055100">
        <ele>438.8</ele>
        <time>2019-07-09T06:13:18Z</time>
      </trkpt>
      <trkpt lat="39.7216380" lon="-5.3059100">
        <ele>437.6</ele>
        <time>2019-07-09T06:13:22Z</time>
      </trkpt>
      <trkpt lat="39.7215940" lon="-5.3061090">
        <ele>437.0</ele>
        <time>2019-07-09T06:13:24Z</time>
      </trkpt>
      <trkpt lat="39.7215480" lon="-5.3063080">
        <ele>436.4</ele>
        <time>2019-07-09T06:13:26Z</time>
      </trkpt>
      <trkpt lat="39.7214330" lon="-5.3067060">
        <ele>435.4</ele>
        <time>2019-07-09T06:13:30Z</time>
      </trkpt>
      <trkpt lat="39.7213650" lon="-5.3069010">
        <ele>435.0</ele>
        <time>2019-07-09T06:13:32Z</time>
      </trkpt>
      <trkpt lat="39.7212110" lon="-5.3072770">
        <ele>434.0</ele>
        <time>2019-07-09T06:13:36Z</time>
      </trkpt>
      <trkpt lat="39.7210820" lon="-5.3075510">
        <ele>433.2</ele>
        <time>2019-07-09T06:13:39Z</time>
      </trkpt>
      <trkpt lat="39.7210360" lon="-5.3076420">
        <ele>432.8</ele>
        <time>2019-07-09T06:13:40Z</time>
      </trkpt>
      <trkpt lat="39.7208350" lon="-5.3079790">
        <ele>431.6</ele>
        <time>2019-07-09T06:13:44Z</time>
      </trkpt>
      <trkpt lat="39.7207260" lon="-5.3081400">
        <ele>431.4</ele>
        <time>2019-07-09T06:13:46Z</time>
      </trkpt>
      <trkpt lat="39.7206700" lon="-5.3082200">
        <ele>431.2</ele>
        <time>2019-07-09T06:13:47Z</time>
      </trkpt>
      <trkpt lat="39.7205530" lon="-5.3083740">
        <ele>430.2</ele>
        <time>2019-07-09T06:13:49Z</time>
      </trkpt>
      <trkpt lat="39.7203090" lon="-5.3086510">
        <ele>429.4</ele>
        <time>2019-07-09T06:13:53Z</time>
      </trkpt>
      <trkpt lat="39.7200680" lon="-5.3089420">
        <ele>429.8</ele>
        <time>2019-07-09T06:13:58Z</time>
      </trkpt>
      <trkpt lat="39.7198520" lon="-5.3091970">
        <ele>430.6</ele>
        <time>2019-07-09T06:14:04Z</time>
      </trkpt>
      <trkpt lat="39.7197830" lon="-5.3092850">
        <ele>430.8</ele>
        <time>2019-07-09T06:14:06Z</time>
      </trkpt>
      <trkpt lat="39.7197120" lon="-5.3093680">
        <ele>431.0</ele>
        <time>2019-07-09T06:14:08Z</time>
      </trkpt>
      <trkpt lat="39.7196420" lon="-5.3094510">
        <ele>431.4</ele>
        <time>2019-07-09T06:14:10Z</time>
      </trkpt>
      <trkpt lat="39.7196070" lon="-5.3094910">
        <ele>431.4</ele>
        <time>2019-07-09T06:14:11Z</time>
      </trkpt>
      <trkpt lat="39.7195330" lon="-5.3095700">
        <ele>431.8</ele>
        <time>2019-07-09T06:14:13Z</time>
      </trkpt>
      <trkpt lat="39.7194970" lon="-5.3096110">
        <ele>432.0</ele>
        <time>2019-07-09T06:14:14Z</time>
      </trkpt>
      <trkpt lat="39.7194270" lon="-5.3096970">
        <ele>432.4</ele>
        <time>2019-07-09T06:14:16Z</time>
      </trkpt>
      <trkpt lat="39.7192200" lon="-5.3099410">
        <ele>433.0</ele>
        <time>2019-07-09T06:14:22Z</time>
      </trkpt>
      <trkpt lat="39.7191870" lon="-5.3099790">
        <ele>433.2</ele>
        <time>2019-07-09T06:14:23Z</time>
      </trkpt>
      <trkpt lat="39.7191230" lon="-5.3100510">
        <ele>433.4</ele>
        <time>2019-07-09T06:14:25Z</time>
      </trkpt>
      <trkpt lat="39.7190610" lon="-5.3101210">
        <ele>433.8</ele>
        <time>2019-07-09T06:14:27Z</time>
      </trkpt>
      <trkpt lat="39.7189680" lon="-5.3102330">
        <ele>434.2</ele>
        <time>2019-07-09T06:14:30Z</time>
      </trkpt>
      <trkpt lat="39.7189370" lon="-5.3102700">
        <ele>434.4</ele>
        <time>2019-07-09T06:14:31Z</time>
      </trkpt>
      <trkpt lat="39.7189050" lon="-5.3103070">
        <ele>434.6</ele>
        <time>2019-07-09T06:14:32Z</time>
      </trkpt>
      <trkpt lat="39.7187250" lon="-5.3105130">
        <ele>435.8</ele>
        <time>2019-07-09T06:14:38Z</time>
      </trkpt>
      <trkpt lat="39.7185080" lon="-5.3107820">
        <ele>436.8</ele>
        <time>2019-07-09T06:14:46Z</time>
      </trkpt>
      <trkpt lat="39.7182930" lon="-5.3110730">
        <ele>438.0</ele>
        <time>2019-07-09T06:14:54Z</time>
      </trkpt>
      <trkpt lat="39.7182430" lon="-5.3111470">
        <ele>438.6</ele>
        <time>2019-07-09T06:14:56Z</time>
      </trkpt>
      <trkpt lat="39.7181700" lon="-5.3112690">
        <ele>439.2</ele>
        <time>2019-07-09T06:14:59Z</time>
      </trkpt>
      <trkpt lat="39.7180480" lon="-5.3114750">
        <ele>440.0</ele>
        <time>2019-07-09T06:15:04Z</time>
      </trkpt>
      <trkpt lat="39.7180030" lon="-5.3115590">
        <ele>440.2</ele>
        <time>2019-07-09T06:15:06Z</time>
      </trkpt>
      <trkpt lat="39.7178380" lon="-5.3119020">
        <ele>441.4</ele>
        <time>2019-07-09T06:15:14Z</time>
      </trkpt>
      <trkpt lat="39.7177110" lon="-5.3122180">
        <ele>442.2</ele>
        <time>2019-07-09T06:15:21Z</time>
      </trkpt>
      <trkpt lat="39.7176910" lon="-5.3122650">
        <ele>442.4</ele>
        <time>2019-07-09T06:15:22Z</time>
      </trkpt>
      <trkpt lat="39.7175770" lon="-5.3126000">
        <ele>443.4</ele>
        <time>2019-07-09T06:15:29Z</time>
      </trkpt>
      <trkpt lat="39.7175320" lon="-5.3127430">
        <ele>443.6</ele>
        <time>2019-07-09T06:15:32Z</time>
      </trkpt>
      <trkpt lat="39.7174510" lon="-5.3129730">
        <ele>444.6</ele>
        <time>2019-07-09T06:15:37Z</time>
      </trkpt>
      <trkpt lat="39.7174190" lon="-5.3130660">
        <ele>444.8</ele>
        <time>2019-07-09T06:15:39Z</time>
      </trkpt>
      <trkpt lat="39.7173010" lon="-5.3134030">
        <ele>445.8</ele>
        <time>2019-07-09T06:15:46Z</time>
      </trkpt>
      <trkpt lat="39.7172350" lon="-5.3135930">
        <ele>446.0</ele>
        <time>2019-07-09T06:15:50Z</time>
      </trkpt>
      <trkpt lat="39.7171500" lon="-5.3138330">
        <ele>446.8</ele>
        <time>2019-07-09T06:15:55Z</time>
      </trkpt>
      <trkpt lat="39.7170490" lon="-5.3141280">
        <ele>447.4</ele>
        <time>2019-07-09T06:16:01Z</time>
      </trkpt>
      <trkpt lat="39.7170150" lon="-5.3142270">
        <ele>447.8</ele>
        <time>2019-07-09T06:16:03Z</time>
      </trkpt>
      <trkpt lat="39.7168930" lon="-5.3145690">
        <ele>448.6</ele>
        <time>2019-07-09T06:16:10Z</time>
      </trkpt>
      <trkpt lat="39.7167330" lon="-5.3150150">
        <ele>449.8</ele>
        <time>2019-07-09T06:16:19Z</time>
      </trkpt>
      <trkpt lat="39.7167150" lon="-5.3150640">
        <ele>450.0</ele>
        <time>2019-07-09T06:16:20Z</time>
      </trkpt>
      <trkpt lat="39.7166100" lon="-5.3153590">
        <ele>451.0</ele>
        <time>2019-07-09T06:16:26Z</time>
      </trkpt>
      <trkpt lat="39.7165220" lon="-5.3156070">
        <ele>451.8</ele>
        <time>2019-07-09T06:16:31Z</time>
      </trkpt>
      <trkpt lat="39.7164900" lon="-5.3157070">
        <ele>451.8</ele>
        <time>2019-07-09T06:16:33Z</time>
      </trkpt>
      <trkpt lat="39.7164740" lon="-5.3157580">
        <ele>452.0</ele>
        <time>2019-07-09T06:16:34Z</time>
      </trkpt>
      <trkpt lat="39.7163670" lon="-5.3160610">
        <ele>453.0</ele>
        <time>2019-07-09T06:16:40Z</time>
      </trkpt>
      <trkpt lat="39.7163300" lon="-5.3161600">
        <ele>453.4</ele>
        <time>2019-07-09T06:16:42Z</time>
      </trkpt>
      <trkpt lat="39.7162580" lon="-5.3163580">
        <ele>453.4</ele>
        <time>2019-07-09T06:16:46Z</time>
      </trkpt>
      <trkpt lat="39.7162050" lon="-5.3165070">
        <ele>454.2</ele>
        <time>2019-07-09T06:16:49Z</time>
      </trkpt>
      <trkpt lat="39.7161540" lon="-5.3166560">
        <ele>454.8</ele>
        <time>2019-07-09T06:16:52Z</time>
      </trkpt>
      <trkpt lat="39.7160860" lon="-5.3168510">
        <ele>455.2</ele>
        <time>2019-07-09T06:16:56Z</time>
      </trkpt>
      <trkpt lat="39.7160040" lon="-5.3170940">
        <ele>456.0</ele>
        <time>2019-07-09T06:17:01Z</time>
      </trkpt>
      <trkpt lat="39.7159850" lon="-5.3171420">
        <ele>456.2</ele>
        <time>2019-07-09T06:17:02Z</time>
      </trkpt>
      <trkpt lat="39.7158800" lon="-5.3174550">
        <ele>456.8</ele>
        <time>2019-07-09T06:17:08Z</time>
      </trkpt>
      <trkpt lat="39.7158440" lon="-5.3175640">
        <ele>457.2</ele>
        <time>2019-07-09T06:17:10Z</time>
      </trkpt>
      <trkpt lat="39.7156890" lon="-5.3179860">
        <ele>458.2</ele>
        <time>2019-07-09T06:17:18Z</time>
      </trkpt>
      <trkpt lat="39.7156670" lon="-5.3180360">
        <ele>458.2</ele>
        <time>2019-07-09T06:17:19Z</time>
      </trkpt>
      <trkpt lat="39.7156470" lon="-5.3180870">
        <ele>458.4</ele>
        <time>2019-07-09T06:17:20Z</time>
      </trkpt>
      <trkpt lat="39.7155870" lon="-5.3183010">
        <ele>459.2</ele>
        <time>2019-07-09T06:17:24Z</time>
      </trkpt>
      <trkpt lat="39.7155490" lon="-5.3184020">
        <ele>459.2</ele>
        <time>2019-07-09T06:17:26Z</time>
      </trkpt>
      <trkpt lat="39.7154210" lon="-5.3187530">
        <ele>460.4</ele>
        <time>2019-07-09T06:17:33Z</time>
      </trkpt>
      <trkpt lat="39.7154020" lon="-5.3188020">
        <ele>460.6</ele>
        <time>2019-07-09T06:17:34Z</time>
      </trkpt>
      <trkpt lat="39.7153860" lon="-5.3188530">
        <ele>460.8</ele>
        <time>2019-07-09T06:17:35Z</time>
      </trkpt>
      <trkpt lat="39.7153180" lon="-5.3190580">
        <ele>461.4</ele>
        <time>2019-07-09T06:17:39Z</time>
      </trkpt>
      <trkpt lat="39.7151790" lon="-5.3194550">
        <ele>462.4</ele>
        <time>2019-07-09T06:17:47Z</time>
      </trkpt>
      <trkpt lat="39.7151590" lon="-5.3195030">
        <ele>462.6</ele>
        <time>2019-07-09T06:17:48Z</time>
      </trkpt>
      <trkpt lat="39.7151410" lon="-5.3195510">
        <ele>462.8</ele>
        <time>2019-07-09T06:17:49Z</time>
      </trkpt>
      <trkpt lat="39.7150590" lon="-5.3198000">
        <ele>463.8</ele>
        <time>2019-07-09T06:17:54Z</time>
      </trkpt>
      <trkpt lat="39.7150250" lon="-5.3198990">
        <ele>464.0</ele>
        <time>2019-07-09T06:17:56Z</time>
      </trkpt>
      <trkpt lat="39.7149210" lon="-5.3201980">
        <ele>464.8</ele>
        <time>2019-07-09T06:18:02Z</time>
      </trkpt>
      <trkpt lat="39.7148370" lon="-5.3204400">
        <ele>465.6</ele>
        <time>2019-07-09T06:18:07Z</time>
      </trkpt>
      <trkpt lat="39.7147830" lon="-5.3205820">
        <ele>466.0</ele>
        <time>2019-07-09T06:18:10Z</time>
      </trkpt>
      <trkpt lat="39.7146820" lon="-5.3208730">
        <ele>466.6</ele>
        <time>2019-07-09T06:18:16Z</time>
      </trkpt>
      <trkpt lat="39.7146470" lon="-5.3209700">
        <ele>466.8</ele>
        <time>2019-07-09T06:18:18Z</time>
      </trkpt>
      <trkpt lat="39.7145920" lon="-5.3211130">
        <ele>467.2</ele>
        <time>2019-07-09T06:18:21Z</time>
      </trkpt>
      <trkpt lat="39.7145610" lon="-5.3212090">
        <ele>467.4</ele>
        <time>2019-07-09T06:18:23Z</time>
      </trkpt>
      <trkpt lat="39.7145000" lon="-5.3214050">
        <ele>468.0</ele>
        <time>2019-07-09T06:18:27Z</time>
      </trkpt>
      <trkpt lat="39.7144130" lon="-5.3216440">
        <ele>468.8</ele>
        <time>2019-07-09T06:18:32Z</time>
      </trkpt>
      <trkpt lat="39.7143800" lon="-5.3217410">
        <ele>469.0</ele>
        <time>2019-07-09T06:18:34Z</time>
      </trkpt>
      <trkpt lat="39.7142720" lon="-5.3220350">
        <ele>469.8</ele>
        <time>2019-07-09T06:18:40Z</time>
      </trkpt>
      <trkpt lat="39.7142230" lon="-5.3221850">
        <ele>470.0</ele>
        <time>2019-07-09T06:18:43Z</time>
      </trkpt>
      <trkpt lat="39.7141400" lon="-5.3224290">
        <ele>470.8</ele>
        <time>2019-07-09T06:18:48Z</time>
      </trkpt>
      <trkpt lat="39.7140890" lon="-5.3225730">
        <ele>471.2</ele>
        <time>2019-07-09T06:18:51Z</time>
      </trkpt>
      <trkpt lat="39.7140360" lon="-5.3227170">
        <ele>471.8</ele>
        <time>2019-07-09T06:18:54Z</time>
      </trkpt>
      <trkpt lat="39.7139890" lon="-5.3228650">
        <ele>472.2</ele>
        <time>2019-07-09T06:18:57Z</time>
      </trkpt>
      <trkpt lat="39.7139720" lon="-5.3229150">
        <ele>472.2</ele>
        <time>2019-07-09T06:18:58Z</time>
      </trkpt>
      <trkpt lat="39.7138370" lon="-5.3233080">
        <ele>473.4</ele>
        <time>2019-07-09T06:19:06Z</time>
      </trkpt>
      <trkpt lat="39.7137790" lon="-5.3234540">
        <ele>474.0</ele>
        <time>2019-07-09T06:19:09Z</time>
      </trkpt>
      <trkpt lat="39.7137440" lon="-5.3235540">
        <ele>474.4</ele>
        <time>2019-07-09T06:19:11Z</time>
      </trkpt>
      <trkpt lat="39.7136540" lon="-5.3237960">
        <ele>475.4</ele>
        <time>2019-07-09T06:19:16Z</time>
      </trkpt>
      <trkpt lat="39.7136390" lon="-5.3238480">
        <ele>475.6</ele>
        <time>2019-07-09T06:19:17Z</time>
      </trkpt>
      <trkpt lat="39.7136100" lon="-5.3239520">
        <ele>476.0</ele>
        <time>2019-07-09T06:19:19Z</time>
      </trkpt>
      <trkpt lat="39.7135380" lon="-5.3241540">
        <ele>476.6</ele>
        <time>2019-07-09T06:19:23Z</time>
      </trkpt>
      <trkpt lat="39.7134540" lon="-5.3244810">
        <ele>477.0</ele>
        <time>2019-07-09T06:19:29Z</time>
      </trkpt>
      <trkpt lat="39.7134280" lon="-5.3245960">
        <ele>477.6</ele>
        <time>2019-07-09T06:19:31Z</time>
      </trkpt>
      <trkpt lat="39.7134170" lon="-5.3246550">
        <ele>477.8</ele>
        <time>2019-07-09T06:19:32Z</time>
      </trkpt>
      <trkpt lat="39.7133690" lon="-5.3249390">
        <ele>478.6</ele>
        <time>2019-07-09T06:19:37Z</time>
      </trkpt>
      <trkpt lat="39.7133370" lon="-5.3251610">
        <ele>479.2</ele>
        <time>2019-07-09T06:19:41Z</time>
      </trkpt>
      <trkpt lat="39.7133200" lon="-5.3253300">
        <ele>479.6</ele>
        <time>2019-07-09T06:19:44Z</time>
      </trkpt>
      <trkpt lat="39.7132890" lon="-5.3256720">
        <ele>480.6</ele>
        <time>2019-07-09T06:19:50Z</time>
      </trkpt>
      <trkpt lat="39.7132830" lon="-5.3257300">
        <ele>480.8</ele>
        <time>2019-07-09T06:19:51Z</time>
      </trkpt>
      <trkpt lat="39.7132410" lon="-5.3261310">
        <ele>481.8</ele>
        <time>2019-07-09T06:19:58Z</time>
      </trkpt>
      <trkpt lat="39.7132200" lon="-5.3263640">
        <ele>482.4</ele>
        <time>2019-07-09T06:20:02Z</time>
      </trkpt>
      <trkpt lat="39.7132090" lon="-5.3264810">
        <ele>482.8</ele>
        <time>2019-07-09T06:20:04Z</time>
      </trkpt>
      <trkpt lat="39.7131690" lon="-5.3268820">
        <ele>484.0</ele>
        <time>2019-07-09T06:20:11Z</time>
      </trkpt>
      <trkpt lat="39.7131360" lon="-5.3272270">
        <ele>485.0</ele>
        <time>2019-07-09T06:20:17Z</time>
      </trkpt>
      <trkpt lat="39.7131090" lon="-5.3275150">
        <ele>486.2</ele>
        <time>2019-07-09T06:20:22Z</time>
      </trkpt>
      <trkpt lat="39.7130680" lon="-5.3279210">
        <ele>487.2</ele>
        <time>2019-07-09T06:20:29Z</time>
      </trkpt>
      <trkpt lat="39.7130550" lon="-5.3280880">
        <ele>487.8</ele>
        <time>2019-07-09T06:20:32Z</time>
      </trkpt>
      <trkpt lat="39.7130380" lon="-5.3282560">
        <ele>488.4</ele>
        <time>2019-07-09T06:20:35Z</time>
      </trkpt>
      <trkpt lat="39.7130100" lon="-5.3284790">
        <ele>489.0</ele>
        <time>2019-07-09T06:20:39Z</time>
      </trkpt>
      <trkpt lat="39.7129940" lon="-5.3286490">
        <ele>489.4</ele>
        <time>2019-07-09T06:20:42Z</time>
      </trkpt>
      <trkpt lat="39.7129720" lon="-5.3288820">
        <ele>490.4</ele>
        <time>2019-07-09T06:20:46Z</time>
      </trkpt>
      <trkpt lat="39.7129670" lon="-5.3289400">
        <ele>490.4</ele>
        <time>2019-07-09T06:20:47Z</time>
      </trkpt>
      <trkpt lat="39.7129260" lon="-5.3293240">
        <ele>491.4</ele>
        <time>2019-07-09T06:20:54Z</time>
      </trkpt>
      <trkpt lat="39.7129210" lon="-5.3293760">
        <ele>491.6</ele>
        <time>2019-07-09T06:20:55Z</time>
      </trkpt>
      <trkpt lat="39.7128910" lon="-5.3296400">
        <ele>492.6</ele>
        <time>2019-07-09T06:21:00Z</time>
      </trkpt>
      <trkpt lat="39.7128870" lon="-5.3296930">
        <ele>492.8</ele>
        <time>2019-07-09T06:21:01Z</time>
      </trkpt>
      <trkpt lat="39.7128810" lon="-5.3298000">
        <ele>493.0</ele>
        <time>2019-07-09T06:21:03Z</time>
      </trkpt>
      <trkpt lat="39.7128460" lon="-5.3301260">
        <ele>493.6</ele>
        <time>2019-07-09T06:21:09Z</time>
      </trkpt>
      <trkpt lat="39.7128300" lon="-5.3302910">
        <ele>494.0</ele>
        <time>2019-07-09T06:21:12Z</time>
      </trkpt>
      <trkpt lat="39.7127980" lon="-5.3306200">
        <ele>494.8</ele>
        <time>2019-07-09T06:21:18Z</time>
      </trkpt>
      <trkpt lat="39.7127670" lon="-5.3309480">
        <ele>496.0</ele>
        <time>2019-07-09T06:21:24Z</time>
      </trkpt>
      <trkpt lat="39.7127630" lon="-5.3310030">
        <ele>496.2</ele>
        <time>2019-07-09T06:21:25Z</time>
      </trkpt>
      <trkpt lat="39.7127330" lon="-5.3313460">
        <ele>497.0</ele>
        <time>2019-07-09T06:21:31Z</time>
      </trkpt>
      <trkpt lat="39.7127220" lon="-5.3315220">
        <ele>497.2</ele>
        <time>2019-07-09T06:21:34Z</time>
      </trkpt>
      <trkpt lat="39.7127200" lon="-5.3318220">
        <ele>497.2</ele>
        <time>2019-07-09T06:21:39Z</time>
      </trkpt>
      <trkpt lat="39.7127250" lon="-5.3320110">
        <ele>497.2</ele>
        <time>2019-07-09T06:21:42Z</time>
      </trkpt>
      <trkpt lat="39.7127440" lon="-5.3322750">
        <ele>497.2</ele>
        <time>2019-07-09T06:21:46Z</time>
      </trkpt>
      <trkpt lat="39.7127730" lon="-5.3324770">
        <ele>497.4</ele>
        <time>2019-07-09T06:21:49Z</time>
      </trkpt>
      <trkpt lat="39.7127850" lon="-5.3325460">
        <ele>497.4</ele>
        <time>2019-07-09T06:21:50Z</time>
      </trkpt>
      <trkpt lat="39.7128240" lon="-5.3327580">
        <ele>497.2</ele>
        <time>2019-07-09T06:21:53Z</time>
      </trkpt>
      <trkpt lat="39.7128640" lon="-5.3329660">
        <ele>497.0</ele>
        <time>2019-07-09T06:21:56Z</time>
      </trkpt>
      <trkpt lat="39.7128980" lon="-5.3331000">
        <ele>496.8</ele>
        <time>2019-07-09T06:21:58Z</time>
      </trkpt>
      <trkpt lat="39.7130600" lon="-5.3336420">
        <ele>496.4</ele>
        <time>2019-07-09T06:22:06Z</time>
      </trkpt>
      <trkpt lat="39.7131390" lon="-5.3338540">
        <ele>496.2</ele>
        <time>2019-07-09T06:22:09Z</time>
      </trkpt>
      <trkpt lat="39.7132310" lon="-5.3340580">
        <ele>495.8</ele>
        <time>2019-07-09T06:22:12Z</time>
      </trkpt>
      <trkpt lat="39.7132940" lon="-5.3341900">
        <ele>495.6</ele>
        <time>2019-07-09T06:22:14Z</time>
      </trkpt>
      <trkpt lat="39.7135230" lon="-5.3346510">
        <ele>494.8</ele>
        <time>2019-07-09T06:22:21Z</time>
      </trkpt>
      <trkpt lat="39.7135910" lon="-5.3347800">
        <ele>494.6</ele>
        <time>2019-07-09T06:22:23Z</time>
      </trkpt>
      <trkpt lat="39.7138970" lon="-5.3353910">
        <ele>494.0</ele>
        <time>2019-07-09T06:22:32Z</time>
      </trkpt>
      <trkpt lat="39.7139320" lon="-5.3354590">
        <ele>494.0</ele>
        <time>2019-07-09T06:22:33Z</time>
      </trkpt>
      <trkpt lat="39.7141090" lon="-5.3358000">
        <ele>493.8</ele>
        <time>2019-07-09T06:22:38Z</time>
      </trkpt>
      <trkpt lat="39.7142500" lon="-5.3360720">
        <ele>493.2</ele>
        <time>2019-07-09T06:22:42Z</time>
      </trkpt>
      <trkpt lat="39.7145370" lon="-5.3366310">
        <ele>492.6</ele>
        <time>2019-07-09T06:22:50Z</time>
      </trkpt>
      <trkpt lat="39.7147220" lon="-5.3369880">
        <ele>492.2</ele>
        <time>2019-07-09T06:22:55Z</time>
      </trkpt>
      <trkpt lat="39.7148710" lon="-5.3372780">
        <ele>491.8</ele>
        <time>2019-07-09T06:22:59Z</time>
      </trkpt>
      <trkpt lat="39.7149440" lon="-5.3374240">
        <ele>491.4</ele>
        <time>2019-07-09T06:23:01Z</time>
      </trkpt>
      <trkpt lat="39.7150570" lon="-5.3376390">
        <ele>491.0</ele>
        <time>2019-07-09T06:23:04Z</time>
      </trkpt>
      <trkpt lat="39.7151690" lon="-5.3378540">
        <ele>490.8</ele>
        <time>2019-07-09T06:23:07Z</time>
      </trkpt>
      <trkpt lat="39.7153520" lon="-5.3382140">
        <ele>490.4</ele>
        <time>2019-07-09T06:23:12Z</time>
      </trkpt>
      <trkpt lat="39.7154260" lon="-5.3383590">
        <ele>490.4</ele>
        <time>2019-07-09T06:23:14Z</time>
      </trkpt>
      <trkpt lat="39.7157590" lon="-5.3390100">
        <ele>489.8</ele>
        <time>2019-07-09T06:23:23Z</time>
      </trkpt>
      <trkpt lat="39.7158730" lon="-5.3392280">
        <ele>489.4</ele>
        <time>2019-07-09T06:23:26Z</time>
      </trkpt>
      <trkpt lat="39.7159120" lon="-5.3393000">
        <ele>489.0</ele>
        <time>2019-07-09T06:23:27Z</time>
      </trkpt>
      <trkpt lat="39.7162130" lon="-5.3398890">
        <ele>488.4</ele>
        <time>2019-07-09T06:23:35Z</time>
      </trkpt>
      <trkpt lat="39.7163650" lon="-5.3401810">
        <ele>488.4</ele>
        <time>2019-07-09T06:23:39Z</time>
      </trkpt>
      <trkpt lat="39.7164400" lon="-5.3403290">
        <ele>488.2</ele>
        <time>2019-07-09T06:23:41Z</time>
      </trkpt>
      <trkpt lat="39.7166700" lon="-5.3407680">
        <ele>487.2</ele>
        <time>2019-07-09T06:23:47Z</time>
      </trkpt>
      <trkpt lat="39.7167080" lon="-5.3408410">
        <ele>487.2</ele>
        <time>2019-07-09T06:23:48Z</time>
      </trkpt>
      <trkpt lat="39.7168220" lon="-5.3410620">
        <ele>487.0</ele>
        <time>2019-07-09T06:23:51Z</time>
      </trkpt>
      <trkpt lat="39.7170800" lon="-5.3415700">
        <ele>486.6</ele>
        <time>2019-07-09T06:23:58Z</time>
      </trkpt>
      <trkpt lat="39.7173590" lon="-5.3420490">
        <ele>485.8</ele>
        <time>2019-07-09T06:24:05Z</time>
      </trkpt>
      <trkpt lat="39.7174480" lon="-5.3421810">
        <ele>485.8</ele>
        <time>2019-07-09T06:24:07Z</time>
      </trkpt>
      <trkpt lat="39.7177460" lon="-5.3426330">
        <ele>485.4</ele>
        <time>2019-07-09T06:24:14Z</time>
      </trkpt>
      <trkpt lat="39.7178300" lon="-5.3427550">
        <ele>485.0</ele>
        <time>2019-07-09T06:24:16Z</time>
      </trkpt>
      <trkpt lat="39.7179150" lon="-5.3428800">
        <ele>484.8</ele>
        <time>2019-07-09T06:24:18Z</time>
      </trkpt>
      <trkpt lat="39.7180400" lon="-5.3430720">
        <ele>484.6</ele>
        <time>2019-07-09T06:24:21Z</time>
      </trkpt>
      <trkpt lat="39.7182130" lon="-5.3433220">
        <ele>484.2</ele>
        <time>2019-07-09T06:24:25Z</time>
      </trkpt>
      <trkpt lat="39.7182570" lon="-5.3433830">
        <ele>484.2</ele>
        <time>2019-07-09T06:24:26Z</time>
      </trkpt>
      <trkpt lat="39.7183450" lon="-5.3435010">
        <ele>484.0</ele>
        <time>2019-07-09T06:24:28Z</time>
      </trkpt>
      <trkpt lat="39.7184810" lon="-5.3436570">
        <ele>483.6</ele>
        <time>2019-07-09T06:24:31Z</time>
      </trkpt>
      <trkpt lat="39.7185740" lon="-5.3437480">
        <ele>483.4</ele>
        <time>2019-07-09T06:24:33Z</time>
      </trkpt>
      <trkpt lat="39.7189190" lon="-5.3440120">
        <ele>482.8</ele>
        <time>2019-07-09T06:24:40Z</time>
      </trkpt>
      <trkpt lat="39.7190620" lon="-5.3441110">
        <ele>482.4</ele>
        <time>2019-07-09T06:24:43Z</time>
      </trkpt>
      <trkpt lat="39.7193030" lon="-5.3442710">
        <ele>482.2</ele>
        <time>2019-07-09T06:24:48Z</time>
      </trkpt>
      <trkpt lat="39.7193530" lon="-5.3443040">
        <ele>482.2</ele>
        <time>2019-07-09T06:24:49Z</time>
      </trkpt>
      <trkpt lat="39.7194500" lon="-5.3443740">
        <ele>482.4</ele>
        <time>2019-07-09T06:24:51Z</time>
      </trkpt>
      <trkpt lat="39.7195570" lon="-5.3445330">
        <ele>482.6</ele>
        <time>2019-07-09T06:24:54Z</time>
      </trkpt>
      <trkpt lat="39.7195830" lon="-5.3445980">
        <ele>482.6</ele>
        <time>2019-07-09T06:24:55Z</time>
      </trkpt>
      <trkpt lat="39.7196630" lon="-5.3447850">
        <ele>482.6</ele>
        <time>2019-07-09T06:24:58Z</time>
      </trkpt>
      <trkpt lat="39.7197380" lon="-5.3449440">
        <ele>482.6</ele>
        <time>2019-07-09T06:25:01Z</time>
      </trkpt>
      <trkpt lat="39.7198200" lon="-5.3451250">
        <ele>483.4</ele>
        <time>2019-07-09T06:25:05Z</time>
      </trkpt>
      <trkpt lat="39.7198540" lon="-5.3452060">
        <ele>484.2</ele>
        <time>2019-07-09T06:25:07Z</time>
      </trkpt>
      <trkpt lat="39.7198720" lon="-5.3452450">
        <ele>484.6</ele>
        <time>2019-07-09T06:25:08Z</time>
      </trkpt>
      <trkpt lat="39.7199050" lon="-5.3453200">
        <ele>485.2</ele>
        <time>2019-07-09T06:25:10Z</time>
      </trkpt>
      <trkpt lat="39.7199390" lon="-5.3453940">
        <ele>485.6</ele>
        <time>2019-07-09T06:25:12Z</time>
      </trkpt>
      <trkpt lat="39.7199670" lon="-5.3454720">
        <ele>486.2</ele>
        <time>2019-07-09T06:25:14Z</time>
      </trkpt>
      <trkpt lat="39.7199890" lon="-5.3455550">
        <ele>486.4</ele>
        <time>2019-07-09T06:25:16Z</time>
      </trkpt>
      <trkpt lat="39.7200450" lon="-5.3457160">
        <ele>486.0</ele>
        <time>2019-07-09T06:25:20Z</time>
      </trkpt>
      <trkpt lat="39.7200430" lon="-5.3457400">
        <ele>485.8</ele>
        <time>2019-07-09T06:25:21Z</time>
      </trkpt>
      <trkpt lat="39.7200350" lon="-5.3457560">
        <ele>485.8</ele>
        <time>2019-07-09T06:25:22Z</time>
      </trkpt>
      <trkpt lat="39.7200340" lon="-5.3457850">
        <ele>485.6</ele>
        <time>2019-07-09T06:25:24Z</time>
      </trkpt>
      <trkpt lat="39.7200620" lon="-5.3458410">
        <ele>485.4</ele>
        <time>2019-07-09T06:25:26Z</time>
      </trkpt>
      <trkpt lat="39.7200960" lon="-5.3459310">
        <ele>485.0</ele>
        <time>2019-07-09T06:25:28Z</time>
      </trkpt>
      <trkpt lat="39.7201570" lon="-5.3460840">
        <ele>484.4</ele>
        <time>2019-07-09T06:25:31Z</time>
      </trkpt>
      <trkpt lat="39.7201880" lon="-5.3461630">
        <ele>483.6</ele>
        <time>2019-07-09T06:25:33Z</time>
      </trkpt>
      <trkpt lat="39.7202010" lon="-5.3461980">
        <ele>483.4</ele>
        <time>2019-07-09T06:25:34Z</time>
      </trkpt>
      <trkpt lat="39.7201990" lon="-5.3462310">
        <ele>483.2</ele>
        <time>2019-07-09T06:25:35Z</time>
      </trkpt>
      <trkpt lat="39.7201830" lon="-5.3462600">
        <ele>483.0</ele>
        <time>2019-07-09T06:25:36Z</time>
      </trkpt>
      <trkpt lat="39.7201340" lon="-5.3463590">
        <ele>482.8</ele>
        <time>2019-07-09T06:25:39Z</time>
      </trkpt>
      <trkpt lat="39.7201450" lon="-5.3463890">
        <ele>482.6</ele>
        <time>2019-07-09T06:25:40Z</time>
      </trkpt>
      <trkpt lat="39.7202160" lon="-5.3464800">
        <ele>482.2</ele>
        <time>2019-07-09T06:25:43Z</time>
      </trkpt>
      <trkpt lat="39.7202390" lon="-5.3465220">
        <ele>482.0</ele>
        <time>2019-07-09T06:25:44Z</time>
      </trkpt>
      <trkpt lat="39.7203620" lon="-5.3467070">
        <ele>481.4</ele>
        <time>2019-07-09T06:25:49Z</time>
      </trkpt>
      <trkpt lat="39.7203880" lon="-5.3467130">
        <ele>481.0</ele>
        <time>2019-07-09T06:25:50Z</time>
      </trkpt>
      <trkpt lat="39.7204140" lon="-5.3467060">
        <ele>481.0</ele>
        <time>2019-07-09T06:25:51Z</time>
      </trkpt>
      <trkpt lat="39.7204850" lon="-5.3466470">
        <ele>480.6</ele>
        <time>2019-07-09T06:25:54Z</time>
      </trkpt>
      <trkpt lat="39.7205280" lon="-5.3465920">
        <ele>480.2</ele>
        <time>2019-07-09T06:25:56Z</time>
      </trkpt>
      <trkpt lat="39.7205810" lon="-5.3464750">
        <ele>479.8</ele>
        <time>2019-07-09T06:25:59Z</time>
      </trkpt>
      <trkpt lat="39.7206180" lon="-5.3463820">
        <ele>479.6</ele>
        <time>2019-07-09T06:26:01Z</time>
      </trkpt>
      <trkpt lat="39.7207150" lon="-5.3461840">
        <ele>479.2</ele>
        <time>2019-07-09T06:26:05Z</time>
      </trkpt>
      <trkpt lat="39.7207720" lon="-5.3460860">
        <ele>479.0</ele>
        <time>2019-07-09T06:26:07Z</time>
      </trkpt>
      <trkpt lat="39.7208040" lon="-5.3460410">
        <ele>478.8</ele>
        <time>2019-07-09T06:26:08Z</time>
      </trkpt>
      <trkpt lat="39.7208700" lon="-5.3459530">
        <ele>478.6</ele>
        <time>2019-07-09T06:26:10Z</time>
      </trkpt>
      <trkpt lat="39.7209060" lon="-5.3459140">
        <ele>478.4</ele>
        <time>2019-07-09T06:26:11Z</time>
      </trkpt>
      <trkpt lat="39.7210460" lon="-5.3457510">
        <ele>478.4</ele>
        <time>2019-07-09T06:26:16Z</time>
      </trkpt>
      <trkpt lat="39.7211460" lon="-5.3455910">
        <ele>479.8</ele>
        <time>2019-07-09T06:26:22Z</time>
      </trkpt>
      <trkpt lat="39.7211620" lon="-5.3455820">
        <ele>480.0</ele>
        <time>2019-07-09T06:26:23Z</time>
      </trkpt>
      <trkpt lat="39.7212640" lon="-5.3456020">
        <ele>480.8</ele>
        <time>2019-07-09T06:26:27Z</time>
      </trkpt>
      <trkpt lat="39.7212970" lon="-5.3456250">
        <ele>480.6</ele>
        <time>2019-07-09T06:26:28Z</time>
      </trkpt>
      <trkpt lat="39.7213310" lon="-5.3456470">
        <ele>480.6</ele>
        <time>2019-07-09T06:26:29Z</time>
      </trkpt>
      <trkpt lat="39.7213680" lon="-5.3456710">
        <ele>480.2</ele>
        <time>2019-07-09T06:26:30Z</time>
      </trkpt>
      <trkpt lat="39.7214450" lon="-5.3457330">
        <ele>479.8</ele>
        <time>2019-07-09T06:26:32Z</time>
      </trkpt>
      <trkpt lat="39.7214860" lon="-5.3457710">
        <ele>479.8</ele>
        <time>2019-07-09T06:26:33Z</time>
      </trkpt>
      <trkpt lat="39.7216820" lon="-5.3459310">
        <ele>478.8</ele>
        <time>2019-07-09T06:26:37Z</time>
      </trkpt>
      <trkpt lat="39.7217870" lon="-5.3460350">
        <ele>478.4</ele>
        <time>2019-07-09T06:26:39Z</time>
      </trkpt>
      <trkpt lat="39.7218950" lon="-5.3461550">
        <ele>477.2</ele>
        <time>2019-07-09T06:26:41Z</time>
      </trkpt>
      <trkpt lat="39.7220470" lon="-5.3463780">
        <ele>476.2</ele>
        <time>2019-07-09T06:26:44Z</time>
      </trkpt>
      <trkpt lat="39.7221850" lon="-5.3466480">
        <ele>475.0</ele>
        <time>2019-07-09T06:26:47Z</time>
      </trkpt>
      <trkpt lat="39.7222760" lon="-5.3468460">
        <ele>474.2</ele>
        <time>2019-07-09T06:26:49Z</time>
      </trkpt>
      <trkpt lat="39.7223160" lon="-5.3469510">
        <ele>473.6</ele>
        <time>2019-07-09T06:26:50Z</time>
      </trkpt>
      <trkpt lat="39.7224130" lon="-5.3472940">
        <ele>472.0</ele>
        <time>2019-07-09T06:26:53Z</time>
      </trkpt>
      <trkpt lat="39.7224370" lon="-5.3474140">
        <ele>471.6</ele>
        <time>2019-07-09T06:26:54Z</time>
      </trkpt>
      <trkpt lat="39.7224710" lon="-5.3476640">
        <ele>470.6</ele>
        <time>2019-07-09T06:26:56Z</time>
      </trkpt>
      <trkpt lat="39.7224970" lon="-5.3480570">
        <ele>469.0</ele>
        <time>2019-07-09T06:26:59Z</time>
      </trkpt>
      <trkpt lat="39.7225180" lon="-5.3483210">
        <ele>467.4</ele>
        <time>2019-07-09T06:27:01Z</time>
      </trkpt>
      <trkpt lat="39.7225850" lon="-5.3487080">
        <ele>466.2</ele>
        <time>2019-07-09T06:27:04Z</time>
      </trkpt>
      <trkpt lat="39.7226950" lon="-5.3490730">
        <ele>465.2</ele>
        <time>2019-07-09T06:27:07Z</time>
      </trkpt>
      <trkpt lat="39.7227440" lon="-5.3491860">
        <ele>464.8</ele>
        <time>2019-07-09T06:27:08Z</time>
      </trkpt>
      <trkpt lat="39.7228540" lon="-5.3493980">
        <ele>464.0</ele>
        <time>2019-07-09T06:27:10Z</time>
      </trkpt>
      <trkpt lat="39.7230310" lon="-5.3496880">
        <ele>463.4</ele>
        <time>2019-07-09T06:27:13Z</time>
      </trkpt>
      <trkpt lat="39.7231430" lon="-5.3498710">
        <ele>463.0</ele>
        <time>2019-07-09T06:27:15Z</time>
      </trkpt>
      <trkpt lat="39.7234020" lon="-5.3502990">
        <ele>462.2</ele>
        <time>2019-07-09T06:27:20Z</time>
      </trkpt>
      <trkpt lat="39.7234510" lon="-5.3503800">
        <ele>462.0</ele>
        <time>2019-07-09T06:27:21Z</time>
      </trkpt>
      <trkpt lat="39.7237680" lon="-5.3509110">
        <ele>461.0</ele>
        <time>2019-07-09T06:27:28Z</time>
      </trkpt>
      <trkpt lat="39.7241010" lon="-5.3514480">
        <ele>460.2</ele>
        <time>2019-07-09T06:27:36Z</time>
      </trkpt>
      <trkpt lat="39.7242960" lon="-5.3517630">
        <ele>460.0</ele>
        <time>2019-07-09T06:27:41Z</time>
      </trkpt>
      <trkpt lat="39.7243360" lon="-5.3518250">
        <ele>459.8</ele>
        <time>2019-07-09T06:27:42Z</time>
      </trkpt>
      <trkpt lat="39.7244150" lon="-5.3519540">
        <ele>459.4</ele>
        <time>2019-07-09T06:27:44Z</time>
      </trkpt>
      <trkpt lat="39.7244940" lon="-5.3520860">
        <ele>459.4</ele>
        <time>2019-07-09T06:27:46Z</time>
      </trkpt>
      <trkpt lat="39.7246940" lon="-5.3524200">
        <ele>459.2</ele>
        <time>2019-07-09T06:27:51Z</time>
      </trkpt>
      <trkpt lat="39.7248130" lon="-5.3526170">
        <ele>459.2</ele>
        <time>2019-07-09T06:27:54Z</time>
      </trkpt>
      <trkpt lat="39.7249290" lon="-5.3528170">
        <ele>459.0</ele>
        <time>2019-07-09T06:27:57Z</time>
      </trkpt>
      <trkpt lat="39.7250060" lon="-5.3529520">
        <ele>458.8</ele>
        <time>2019-07-09T06:27:59Z</time>
      </trkpt>
      <trkpt lat="39.7251170" lon="-5.3531620">
        <ele>458.4</ele>
        <time>2019-07-09T06:28:02Z</time>
      </trkpt>
      <trkpt lat="39.7252950" lon="-5.3535240">
        <ele>458.2</ele>
        <time>2019-07-09T06:28:07Z</time>
      </trkpt>
      <trkpt lat="39.7254970" lon="-5.3539780">
        <ele>457.6</ele>
        <time>2019-07-09T06:28:13Z</time>
      </trkpt>
      <trkpt lat="39.7255590" lon="-5.3541330">
        <ele>457.4</ele>
        <time>2019-07-09T06:28:15Z</time>
      </trkpt>
      <trkpt lat="39.7257990" lon="-5.3547660">
        <ele>456.8</ele>
        <time>2019-07-09T06:28:23Z</time>
      </trkpt>
      <trkpt lat="39.7258560" lon="-5.3549270">
        <ele>456.6</ele>
        <time>2019-07-09T06:28:25Z</time>
      </trkpt>
      <trkpt lat="39.7258850" lon="-5.3550080">
        <ele>456.4</ele>
        <time>2019-07-09T06:28:26Z</time>
      </trkpt>
      <trkpt lat="39.7261260" lon="-5.3556620">
        <ele>455.8</ele>
        <time>2019-07-09T06:28:34Z</time>
      </trkpt>
      <trkpt lat="39.7261560" lon="-5.3557440">
        <ele>455.6</ele>
        <time>2019-07-09T06:28:35Z</time>
      </trkpt>
      <trkpt lat="39.7262140" lon="-5.3559070">
        <ele>455.4</ele>
        <time>2019-07-09T06:28:37Z</time>
      </trkpt>
      <trkpt lat="39.7263930" lon="-5.3563930">
        <ele>455.0</ele>
        <time>2019-07-09T06:28:43Z</time>
      </trkpt>
      <trkpt lat="39.7264510" lon="-5.3565520">
        <ele>455.0</ele>
        <time>2019-07-09T06:28:45Z</time>
      </trkpt>
      <trkpt lat="39.7266230" lon="-5.3570270">
        <ele>454.4</ele>
        <time>2019-07-09T06:28:51Z</time>
      </trkpt>
      <trkpt lat="39.7267930" lon="-5.3575010">
        <ele>454.0</ele>
        <time>2019-07-09T06:28:57Z</time>
      </trkpt>
      <trkpt lat="39.7268200" lon="-5.3575800">
        <ele>453.8</ele>
        <time>2019-07-09T06:28:58Z</time>
      </trkpt>
      <trkpt lat="39.7270460" lon="-5.3582100">
        <ele>453.2</ele>
        <time>2019-07-09T06:29:06Z</time>
      </trkpt>
      <trkpt lat="39.7271010" lon="-5.3583670">
        <ele>452.8</ele>
        <time>2019-07-09T06:29:08Z</time>
      </trkpt>
      <trkpt lat="39.7273610" lon="-5.3590720">
        <ele>452.6</ele>
        <time>2019-07-09T06:29:17Z</time>
      </trkpt>
      <trkpt lat="39.7274170" lon="-5.3592280">
        <ele>452.2</ele>
        <time>2019-07-09T06:29:19Z</time>
      </trkpt>
      <trkpt lat="39.7274750" lon="-5.3593820">
        <ele>452.0</ele>
        <time>2019-07-09T06:29:21Z</time>
      </trkpt>
      <trkpt lat="39.7277240" lon="-5.3600810">
        <ele>451.2</ele>
        <time>2019-07-09T06:29:30Z</time>
      </trkpt>
      <trkpt lat="39.7277520" lon="-5.3601590">
        <ele>451.2</ele>
        <time>2019-07-09T06:29:31Z</time>
      </trkpt>
      <trkpt lat="39.7278370" lon="-5.3603890">
        <ele>451.0</ele>
        <time>2019-07-09T06:29:34Z</time>
      </trkpt>
      <trkpt lat="39.7280580" lon="-5.3610070">
        <ele>450.6</ele>
        <time>2019-07-09T06:29:42Z</time>
      </trkpt>
      <trkpt lat="39.7283120" lon="-5.3617070">
        <ele>450.0</ele>
        <time>2019-07-09T06:29:51Z</time>
      </trkpt>
      <trkpt lat="39.7283400" lon="-5.3617850">
        <ele>449.8</ele>
        <time>2019-07-09T06:29:52Z</time>
      </trkpt>
      <trkpt lat="39.7283690" lon="-5.3618640">
        <ele>449.6</ele>
        <time>2019-07-09T06:29:53Z</time>
      </trkpt>
      <trkpt lat="39.7286310" lon="-5.3625530">
        <ele>449.4</ele>
        <time>2019-07-09T06:30:02Z</time>
      </trkpt>
      <trkpt lat="39.7286990" lon="-5.3626980">
        <ele>449.0</ele>
        <time>2019-07-09T06:30:04Z</time>
      </trkpt>
      <trkpt lat="39.7288820" lon="-5.3630540">
        <ele>448.8</ele>
        <time>2019-07-09T06:30:09Z</time>
      </trkpt>
      <trkpt lat="39.7290940" lon="-5.3633840">
        <ele>448.6</ele>
        <time>2019-07-09T06:30:14Z</time>
      </trkpt>
      <trkpt lat="39.7294800" lon="-5.3638550">
        <ele>447.6</ele>
        <time>2019-07-09T06:30:22Z</time>
      </trkpt>
      <trkpt lat="39.7295320" lon="-5.3639080">
        <ele>447.6</ele>
        <time>2019-07-09T06:30:23Z</time>
      </trkpt>
      <trkpt lat="39.7299050" lon="-5.3642520">
        <ele>447.2</ele>
        <time>2019-07-09T06:30:30Z</time>
      </trkpt>
      <trkpt lat="39.7301870" lon="-5.3644570">
        <ele>447.0</ele>
        <time>2019-07-09T06:30:35Z</time>
      </trkpt>
      <trkpt lat="39.7303630" lon="-5.3645560">
        <ele>446.8</ele>
        <time>2019-07-09T06:30:38Z</time>
      </trkpt>
      <trkpt lat="39.7304220" lon="-5.3645910">
        <ele>446.6</ele>
        <time>2019-07-09T06:30:39Z</time>
      </trkpt>
      <trkpt lat="39.7309110" lon="-5.3648560">
        <ele>445.6</ele>
        <time>2019-07-09T06:30:47Z</time>
      </trkpt>
      <trkpt lat="39.7310950" lon="-5.3649570">
        <ele>445.2</ele>
        <time>2019-07-09T06:30:50Z</time>
      </trkpt>
      <trkpt lat="39.7314640" lon="-5.3651630">
        <ele>444.8</ele>
        <time>2019-07-09T06:30:56Z</time>
      </trkpt>
      <trkpt lat="39.7317550" lon="-5.3653300">
        <ele>444.6</ele>
        <time>2019-07-09T06:31:01Z</time>
      </trkpt>
      <trkpt lat="39.7319820" lon="-5.3654700">
        <ele>444.2</ele>
        <time>2019-07-09T06:31:05Z</time>
      </trkpt>
      <trkpt lat="39.7321550" lon="-5.3655870">
        <ele>444.0</ele>
        <time>2019-07-09T06:31:08Z</time>
      </trkpt>
      <trkpt lat="39.7325040" lon="-5.3658520">
        <ele>443.8</ele>
        <time>2019-07-09T06:31:14Z</time>
      </trkpt>
      <trkpt lat="39.7326770" lon="-5.3660030">
        <ele>443.2</ele>
        <time>2019-07-09T06:31:17Z</time>
      </trkpt>
      <trkpt lat="39.7329580" lon="-5.3662780">
        <ele>443.2</ele>
        <time>2019-07-09T06:31:22Z</time>
      </trkpt>
      <trkpt lat="39.7330130" lon="-5.3663350">
        <ele>443.0</ele>
        <time>2019-07-09T06:31:23Z</time>
      </trkpt>
      <trkpt lat="39.7334520" lon="-5.3668050">
        <ele>442.2</ele>
        <time>2019-07-09T06:31:31Z</time>
      </trkpt>
      <trkpt lat="39.7335070" lon="-5.3668640">
        <ele>442.0</ele>
        <time>2019-07-09T06:31:32Z</time>
      </trkpt>
      <trkpt lat="39.7338240" lon="-5.3672090">
        <ele>441.2</ele>
        <time>2019-07-09T06:31:38Z</time>
      </trkpt>
      <trkpt lat="39.7339780" lon="-5.3673730">
        <ele>441.0</ele>
        <time>2019-07-09T06:31:41Z</time>
      </trkpt>
      <trkpt lat="39.7340300" lon="-5.3674280">
        <ele>441.0</ele>
        <time>2019-07-09T06:31:42Z</time>
      </trkpt>
      <trkpt lat="39.7341820" lon="-5.3675980">
        <ele>441.0</ele>
        <time>2019-07-09T06:31:45Z</time>
      </trkpt>
      <trkpt lat="39.7343330" lon="-5.3677570">
        <ele>440.6</ele>
        <time>2019-07-09T06:31:48Z</time>
      </trkpt>
      <trkpt lat="39.7344300" lon="-5.3678640">
        <ele>440.4</ele>
        <time>2019-07-09T06:31:50Z</time>
      </trkpt>
      <trkpt lat="39.7347780" lon="-5.3682350">
        <ele>440.2</ele>
        <time>2019-07-09T06:31:57Z</time>
      </trkpt>
      <trkpt lat="39.7352150" lon="-5.3687110">
        <ele>440.2</ele>
        <time>2019-07-09T06:32:06Z</time>
      </trkpt>
      <trkpt lat="39.7355780" lon="-5.3691120">
        <ele>440.0</ele>
        <time>2019-07-09T06:32:14Z</time>
      </trkpt>
      <trkpt lat="39.7359230" lon="-5.3694790">
        <ele>440.0</ele>
        <time>2019-07-09T06:32:22Z</time>
      </trkpt>
      <trkpt lat="39.7362630" lon="-5.3698510">
        <ele>439.8</ele>
        <time>2019-07-09T06:32:30Z</time>
      </trkpt>
      <trkpt lat="39.7363930" lon="-5.3699950">
        <ele>439.8</ele>
        <time>2019-07-09T06:32:33Z</time>
      </trkpt>
      <trkpt lat="39.7366190" lon="-5.3702330">
        <ele>439.6</ele>
        <time>2019-07-09T06:32:38Z</time>
      </trkpt>
      <trkpt lat="39.7368480" lon="-5.3704800">
        <ele>439.8</ele>
        <time>2019-07-09T06:32:43Z</time>
      </trkpt>
      <trkpt lat="39.7372110" lon="-5.3708670">
        <ele>439.8</ele>
        <time>2019-07-09T06:32:51Z</time>
      </trkpt>
      <trkpt lat="39.7376610" lon="-5.3713590">
        <ele>439.6</ele>
        <time>2019-07-09T06:33:01Z</time>
      </trkpt>
      <trkpt lat="39.7377050" lon="-5.3714080">
        <ele>439.6</ele>
        <time>2019-07-09T06:33:02Z</time>
      </trkpt>
      <trkpt lat="39.7379200" lon="-5.3716620">
        <ele>439.8</ele>
        <time>2019-07-09T06:33:07Z</time>
      </trkpt>
      <trkpt lat="39.7380510" lon="-5.3718170">
        <ele>439.6</ele>
        <time>2019-07-09T06:33:10Z</time>
      </trkpt>
      <trkpt lat="39.7383660" lon="-5.3722990">
        <ele>439.6</ele>
        <time>2019-07-09T06:33:18Z</time>
      </trkpt>
      <trkpt lat="39.7386170" lon="-5.3728170">
        <ele>438.8</ele>
        <time>2019-07-09T06:33:26Z</time>
      </trkpt>
      <trkpt lat="39.7387500" lon="-5.3731820">
        <ele>439.0</ele>
        <time>2019-07-09T06:33:31Z</time>
      </trkpt>
      <trkpt lat="39.7388360" lon="-5.3734780">
        <ele>439.0</ele>
        <time>2019-07-09T06:33:35Z</time>
      </trkpt>
      <trkpt lat="39.7388630" lon="-5.3735720">
        <ele>438.6</ele>
        <time>2019-07-09T06:33:38Z</time>
      </trkpt>
      <trkpt lat="39.7388610" lon="-5.3735730">
        <ele>438.4</ele>
        <time>2019-07-09T06:33:39Z</time>
      </trkpt>
      <trkpt lat="39.7388930" lon="-5.3735430">
        <ele>438.6</ele>
        <time>2019-07-09T06:34:47Z</time>
      </trkpt>
      <trkpt lat="39.7389270" lon="-5.3735330">
        <ele>438.4</ele>
        <time>2019-07-09T06:34:48Z</time>
      </trkpt>
      <trkpt lat="39.7389770" lon="-5.3735260">
        <ele>438.2</ele>
        <time>2019-07-09T06:34:49Z</time>
      </trkpt>
      <trkpt lat="39.7390370" lon="-5.3735230">
        <ele>438.0</ele>
        <time>2019-07-09T06:34:50Z</time>
      </trkpt>
      <trkpt lat="39.7391620" lon="-5.3735200">
        <ele>437.0</ele>
        <time>2019-07-09T06:34:52Z</time>
      </trkpt>
      <trkpt lat="39.7393520" lon="-5.3735210">
        <ele>435.8</ele>
        <time>2019-07-09T06:34:55Z</time>
      </trkpt>
      <trkpt lat="39.7395500" lon="-5.3735020">
        <ele>435.0</ele>
        <time>2019-07-09T06:34:58Z</time>
      </trkpt>
      <trkpt lat="39.7396140" lon="-5.3734790">
        <ele>434.6</ele>
        <time>2019-07-09T06:34:59Z</time>
      </trkpt>
      <trkpt lat="39.7397360" lon="-5.3734070">
        <ele>434.2</ele>
        <time>2019-07-09T06:35:01Z</time>
      </trkpt>
      <trkpt lat="39.7397970" lon="-5.3733670">
        <ele>434.0</ele>
        <time>2019-07-09T06:35:02Z</time>
      </trkpt>
      <trkpt lat="39.7399190" lon="-5.3732890">
        <ele>433.6</ele>
        <time>2019-07-09T06:35:04Z</time>
      </trkpt>
      <trkpt lat="39.7399780" lon="-5.3732450">
        <ele>433.6</ele>
        <time>2019-07-09T06:35:05Z</time>
      </trkpt>
      <trkpt lat="39.7400900" lon="-5.3731370">
        <ele>433.2</ele>
        <time>2019-07-09T06:35:07Z</time>
      </trkpt>
      <trkpt lat="39.7402530" lon="-5.3729650">
        <ele>432.6</ele>
        <time>2019-07-09T06:35:10Z</time>
      </trkpt>
      <trkpt lat="39.7403120" lon="-5.3729180">
        <ele>432.4</ele>
        <time>2019-07-09T06:35:11Z</time>
      </trkpt>
      <trkpt lat="39.7404910" lon="-5.3728020">
        <ele>432.2</ele>
        <time>2019-07-09T06:35:14Z</time>
      </trkpt>
      <trkpt lat="39.7406080" lon="-5.3727310">
        <ele>432.2</ele>
        <time>2019-07-09T06:35:16Z</time>
      </trkpt>
      <trkpt lat="39.7406670" lon="-5.3727010">
        <ele>432.2</ele>
        <time>2019-07-09T06:35:17Z</time>
      </trkpt>
      <trkpt lat="39.7408920" lon="-5.3726250">
        <ele>432.0</ele>
        <time>2019-07-09T06:35:21Z</time>
      </trkpt>
      <trkpt lat="39.7409980" lon="-5.3725880">
        <ele>432.2</ele>
        <time>2019-07-09T06:35:23Z</time>
      </trkpt>
      <trkpt lat="39.7411340" lon="-5.3724790">
        <ele>432.2</ele>
        <time>2019-07-09T06:35:26Z</time>
      </trkpt>
      <trkpt lat="39.7412090" lon="-5.3723730">
        <ele>432.2</ele>
        <time>2019-07-09T06:35:28Z</time>
      </trkpt>
      <trkpt lat="39.7413850" lon="-5.3720860">
        <ele>432.0</ele>
        <time>2019-07-09T06:35:33Z</time>
      </trkpt>
      <trkpt lat="39.7415480" lon="-5.3717130">
        <ele>431.8</ele>
        <time>2019-07-09T06:35:39Z</time>
      </trkpt>
      <trkpt lat="39.7416970" lon="-5.3714010">
        <ele>431.4</ele>
        <time>2019-07-09T06:35:44Z</time>
      </trkpt>
      <trkpt lat="39.7417310" lon="-5.3713370">
        <ele>431.2</ele>
        <time>2019-07-09T06:35:45Z</time>
      </trkpt>
      <trkpt lat="39.7419110" lon="-5.3710170">
        <ele>430.4</ele>
        <time>2019-07-09T06:35:50Z</time>
      </trkpt>
      <trkpt lat="39.7420240" lon="-5.3708260">
        <ele>430.0</ele>
        <time>2019-07-09T06:35:53Z</time>
      </trkpt>
      <trkpt lat="39.7420610" lon="-5.3707730">
        <ele>429.8</ele>
        <time>2019-07-09T06:35:54Z</time>
      </trkpt>
      <trkpt lat="39.7421160" lon="-5.3706950">
        <ele>429.0</ele>
        <time>2019-07-09T06:35:56Z</time>
      </trkpt>
      <trkpt lat="39.7421380" lon="-5.3706730">
        <ele>428.8</ele>
        <time>2019-07-09T06:35:57Z</time>
      </trkpt>
      <trkpt lat="39.7422060" lon="-5.3706770">
        <ele>428.2</ele>
        <time>2019-07-09T06:36:00Z</time>
      </trkpt>
      <trkpt lat="39.7422300" lon="-5.3707010">
        <ele>428.2</ele>
        <time>2019-07-09T06:36:01Z</time>
      </trkpt>
      <trkpt lat="39.7422670" lon="-5.3707780">
        <ele>428.0</ele>
        <time>2019-07-09T06:36:03Z</time>
      </trkpt>
      <trkpt lat="39.7422830" lon="-5.3708740">
        <ele>427.8</ele>
        <time>2019-07-09T06:36:05Z</time>
      </trkpt>
      <trkpt lat="39.7422880" lon="-5.3709260">
        <ele>427.8</ele>
        <time>2019-07-09T06:36:06Z</time>
      </trkpt>
      <trkpt lat="39.7422930" lon="-5.3710390">
        <ele>428.2</ele>
        <time>2019-07-09T06:36:08Z</time>
      </trkpt>
      <trkpt lat="39.7422930" lon="-5.3712840">
        <ele>428.4</ele>
        <time>2019-07-09T06:36:12Z</time>
      </trkpt>
      <trkpt lat="39.7422950" lon="-5.3713490">
        <ele>428.4</ele>
        <time>2019-07-09T06:36:13Z</time>
      </trkpt>
      <trkpt lat="39.7423130" lon="-5.3716970">
        <ele>428.6</ele>
        <time>2019-07-09T06:36:18Z</time>
      </trkpt>
      <trkpt lat="39.7423240" lon="-5.3719840">
        <ele>428.6</ele>
        <time>2019-07-09T06:36:22Z</time>
      </trkpt>
      <trkpt lat="39.7423230" lon="-5.3723360">
        <ele>428.8</ele>
        <time>2019-07-09T06:36:27Z</time>
      </trkpt>
      <trkpt lat="39.7424090" lon="-5.3726330">
        <ele>428.8</ele>
        <time>2019-07-09T06:36:32Z</time>
      </trkpt>
      <trkpt lat="39.7424700" lon="-5.3727880">
        <ele>429.0</ele>
        <time>2019-07-09T06:36:35Z</time>
      </trkpt>
      <trkpt lat="39.7425160" lon="-5.3729390">
        <ele>429.8</ele>
        <time>2019-07-09T06:36:38Z</time>
      </trkpt>
      <trkpt lat="39.7425160" lon="-5.3729940">
        <ele>430.0</ele>
        <time>2019-07-09T06:36:39Z</time>
      </trkpt>
      <trkpt lat="39.7424690" lon="-5.3731990">
        <ele>429.8</ele>
        <time>2019-07-09T06:36:43Z</time>
      </trkpt>
      <trkpt lat="39.7424570" lon="-5.3732460">
        <ele>430.0</ele>
        <time>2019-07-09T06:36:44Z</time>
      </trkpt>
      <trkpt lat="39.7424320" lon="-5.3733990">
        <ele>431.0</ele>
        <time>2019-07-09T06:36:47Z</time>
      </trkpt>
      <trkpt lat="39.7424130" lon="-5.3736010">
        <ele>431.6</ele>
        <time>2019-07-09T06:36:51Z</time>
      </trkpt>
      <trkpt lat="39.7423750" lon="-5.3737550">
        <ele>432.2</ele>
        <time>2019-07-09T06:36:54Z</time>
      </trkpt>
      <trkpt lat="39.7423420" lon="-5.3738700">
        <ele>432.4</ele>
        <time>2019-07-09T06:36:56Z</time>
      </trkpt>
      <trkpt lat="39.7423130" lon="-5.3740440">
        <ele>432.6</ele>
        <time>2019-07-09T06:36:59Z</time>
      </trkpt>
      <trkpt lat="39.7423330" lon="-5.3741500">
        <ele>432.4</ele>
        <time>2019-07-09T06:37:01Z</time>
      </trkpt>
      <trkpt lat="39.7423900" lon="-5.3742540">
        <ele>431.8</ele>
        <time>2019-07-09T06:37:03Z</time>
      </trkpt>
      <trkpt lat="39.7424290" lon="-5.3743150">
        <ele>431.2</ele>
        <time>2019-07-09T06:37:04Z</time>
      </trkpt>
      <trkpt lat="39.7424740" lon="-5.3743750">
        <ele>430.6</ele>
        <time>2019-07-09T06:37:05Z</time>
      </trkpt>
      <trkpt lat="39.7425710" lon="-5.3744910">
        <ele>429.8</ele>
        <time>2019-07-09T06:37:07Z</time>
      </trkpt>
      <trkpt lat="39.7427040" lon="-5.3746430">
        <ele>429.4</ele>
        <time>2019-07-09T06:37:10Z</time>
      </trkpt>
      <trkpt lat="39.7427340" lon="-5.3746780">
        <ele>429.2</ele>
        <time>2019-07-09T06:37:11Z</time>
      </trkpt>
      <trkpt lat="39.7427700" lon="-5.3747310">
        <ele>429.0</ele>
        <time>2019-07-09T06:37:14Z</time>
      </trkpt>
      <trkpt lat="39.7427720" lon="-5.3747340">
        <ele>428.8</ele>
        <time>2019-07-09T06:37:16Z</time>
      </trkpt>
      <trkpt lat="39.7427630" lon="-5.3747700">
        <ele>428.6</ele>
        <time>2019-07-09T06:37:19Z</time>
      </trkpt>
      <trkpt lat="39.7427430" lon="-5.3748090">
        <ele>428.6</ele>
        <time>2019-07-09T06:37:21Z</time>
      </trkpt>
      <trkpt lat="39.7427200" lon="-5.3748650">
        <ele>428.6</ele>
        <time>2019-07-09T06:37:23Z</time>
      </trkpt>
      <trkpt lat="39.7426700" lon="-5.3749610">
        <ele>429.0</ele>
        <time>2019-07-09T06:37:26Z</time>
      </trkpt>
      <trkpt lat="39.7425630" lon="-5.3752230">
        <ele>429.2</ele>
        <time>2019-07-09T06:37:32Z</time>
      </trkpt>
      <trkpt lat="39.7425240" lon="-5.3753230">
        <ele>429.2</ele>
        <time>2019-07-09T06:37:34Z</time>
      </trkpt>
      <trkpt lat="39.7424600" lon="-5.3754730">
        <ele>429.6</ele>
        <time>2019-07-09T06:37:37Z</time>
      </trkpt>
      <trkpt lat="39.7423610" lon="-5.3756760">
        <ele>429.2</ele>
        <time>2019-07-09T06:37:41Z</time>
      </trkpt>
      <trkpt lat="39.7422170" lon="-5.3759880">
        <ele>429.4</ele>
        <time>2019-07-09T06:37:47Z</time>
      </trkpt>
      <trkpt lat="39.7421760" lon="-5.3760950">
        <ele>429.4</ele>
        <time>2019-07-09T06:37:49Z</time>
      </trkpt>
      <trkpt lat="39.7420460" lon="-5.3764140">
        <ele>430.0</ele>
        <time>2019-07-09T06:37:55Z</time>
      </trkpt>
      <trkpt lat="39.7420110" lon="-5.3765210">
        <ele>430.4</ele>
        <time>2019-07-09T06:37:57Z</time>
      </trkpt>
      <trkpt lat="39.7419330" lon="-5.3767370">
        <ele>430.6</ele>
        <time>2019-07-09T06:38:01Z</time>
      </trkpt>
      <trkpt lat="39.7419140" lon="-5.3767910">
        <ele>430.6</ele>
        <time>2019-07-09T06:38:02Z</time>
      </trkpt>
      <trkpt lat="39.7418570" lon="-5.3769480">
        <ele>431.4</ele>
        <time>2019-07-09T06:38:05Z</time>
      </trkpt>
      <trkpt lat="39.7418140" lon="-5.3770470">
        <ele>431.8</ele>
        <time>2019-07-09T06:38:07Z</time>
      </trkpt>
      <trkpt lat="39.7417060" lon="-5.3772960">
        <ele>432.4</ele>
        <time>2019-07-09T06:38:12Z</time>
      </trkpt>
      <trkpt lat="39.7416160" lon="-5.3774900">
        <ele>433.0</ele>
        <time>2019-07-09T06:38:16Z</time>
      </trkpt>
      <trkpt lat="39.7414960" lon="-5.3777800">
        <ele>433.8</ele>
        <time>2019-07-09T06:38:22Z</time>
      </trkpt>
      <trkpt lat="39.7414760" lon="-5.3778250">
        <ele>434.0</ele>
        <time>2019-07-09T06:38:23Z</time>
      </trkpt>
      <trkpt lat="39.7414560" lon="-5.3778690">
        <ele>434.0</ele>
        <time>2019-07-09T06:38:24Z</time>
      </trkpt>
      <trkpt lat="39.7413980" lon="-5.3780100">
        <ele>434.4</ele>
        <time>2019-07-09T06:38:27Z</time>
      </trkpt>
      <trkpt lat="39.7413420" lon="-5.3781480">
        <ele>435.0</ele>
        <time>2019-07-09T06:38:30Z</time>
      </trkpt>
      <trkpt lat="39.7413250" lon="-5.3781920">
        <ele>435.4</ele>
        <time>2019-07-09T06:38:31Z</time>
      </trkpt>
      <trkpt lat="39.7412720" lon="-5.3783240">
        <ele>436.2</ele>
        <time>2019-07-09T06:38:34Z</time>
      </trkpt>
      <trkpt lat="39.7411730" lon="-5.3785880">
        <ele>437.4</ele>
        <time>2019-07-09T06:38:40Z</time>
      </trkpt>
      <trkpt lat="39.7410960" lon="-5.3788360">
        <ele>438.4</ele>
        <time>2019-07-09T06:38:46Z</time>
      </trkpt>
      <trkpt lat="39.7410660" lon="-5.3789250">
        <ele>438.8</ele>
        <time>2019-07-09T06:38:48Z</time>
      </trkpt>
      <trkpt lat="39.7410020" lon="-5.3791150">
        <ele>439.6</ele>
        <time>2019-07-09T06:38:52Z</time>
      </trkpt>
      <trkpt lat="39.7409120" lon="-5.3793460">
        <ele>440.2</ele>
        <time>2019-07-09T06:38:57Z</time>
      </trkpt>
      <trkpt lat="39.7408380" lon="-5.3795330">
        <ele>440.6</ele>
        <time>2019-07-09T06:39:01Z</time>
      </trkpt>
      <trkpt lat="39.7408240" lon="-5.3795850">
        <ele>440.8</ele>
        <time>2019-07-09T06:39:02Z</time>
      </trkpt>
      <trkpt lat="39.7407740" lon="-5.3797270">
        <ele>441.2</ele>
        <time>2019-07-09T06:39:05Z</time>
      </trkpt>
      <trkpt lat="39.7407370" lon="-5.3798150">
        <ele>441.8</ele>
        <time>2019-07-09T06:39:07Z</time>
      </trkpt>
      <trkpt lat="39.7406340" lon="-5.3800780">
        <ele>442.8</ele>
        <time>2019-07-09T06:39:13Z</time>
      </trkpt>
      <trkpt lat="39.7405770" lon="-5.3802660">
        <ele>443.4</ele>
        <time>2019-07-09T06:39:17Z</time>
      </trkpt>
      <trkpt lat="39.7405240" lon="-5.3804140">
        <ele>443.8</ele>
        <time>2019-07-09T06:39:20Z</time>
      </trkpt>
      <trkpt lat="39.7405030" lon="-5.3804620">
        <ele>444.0</ele>
        <time>2019-07-09T06:39:21Z</time>
      </trkpt>
      <trkpt lat="39.7403890" lon="-5.3806860">
        <ele>444.6</ele>
        <time>2019-07-09T06:39:26Z</time>
      </trkpt>
      <trkpt lat="39.7403470" lon="-5.3807660">
        <ele>445.0</ele>
        <time>2019-07-09T06:39:28Z</time>
      </trkpt>
      <trkpt lat="39.7402500" lon="-5.3809450">
        <ele>446.0</ele>
        <time>2019-07-09T06:39:33Z</time>
      </trkpt>
      <trkpt lat="39.7401070" lon="-5.3811880">
        <ele>446.8</ele>
        <time>2019-07-09T06:39:40Z</time>
      </trkpt>
      <trkpt lat="39.7400770" lon="-5.3812270">
        <ele>446.8</ele>
        <time>2019-07-09T06:39:41Z</time>
      </trkpt>
      <trkpt lat="39.7399900" lon="-5.3813190">
        <ele>446.0</ele>
        <time>2019-07-09T06:39:44Z</time>
      </trkpt>
      <trkpt lat="39.7399640" lon="-5.3813340">
        <ele>445.6</ele>
        <time>2019-07-09T06:39:45Z</time>
      </trkpt>
      <trkpt lat="39.7398340" lon="-5.3814470">
        <ele>445.4</ele>
        <time>2019-07-09T06:39:50Z</time>
      </trkpt>
      <trkpt lat="39.7397370" lon="-5.3815380">
        <ele>446.2</ele>
        <time>2019-07-09T06:39:55Z</time>
      </trkpt>
      <trkpt lat="39.7397180" lon="-5.3815160">
        <ele>446.4</ele>
        <time>2019-07-09T06:39:57Z</time>
      </trkpt>
      <trkpt lat="39.7397230" lon="-5.3814990">
        <ele>446.4</ele>
        <time>2019-07-09T06:39:58Z</time>
      </trkpt>
      <trkpt lat="39.7397460" lon="-5.3815030">
        <ele>446.4</ele>
        <time>2019-07-09T06:40:00Z</time>
      </trkpt>
      <trkpt lat="39.7397760" lon="-5.3815070">
        <ele>446.4</ele>
        <time>2019-07-09T06:40:02Z</time>
      </trkpt>
      <trkpt lat="39.7398090" lon="-5.3814590">
        <ele>446.4</ele>
        <time>2019-07-09T06:40:05Z</time>
      </trkpt>
      <trkpt lat="39.7398170" lon="-5.3814430">
        <ele>446.2</ele>
        <time>2019-07-09T06:40:06Z</time>
      </trkpt>
      <trkpt lat="39.7398400" lon="-5.3814110">
        <ele>446.2</ele>
        <time>2019-07-09T06:40:08Z</time>
      </trkpt>
      <trkpt lat="39.7398800" lon="-5.3813870">
        <ele>446.0</ele>
        <time>2019-07-09T06:40:10Z</time>
      </trkpt>
      <trkpt lat="39.7398990" lon="-5.3813780">
        <ele>445.8</ele>
        <time>2019-07-09T06:40:11Z</time>
      </trkpt>
      <trkpt lat="39.7399230" lon="-5.3813590">
        <ele>445.6</ele>
        <time>2019-07-09T06:40:13Z</time>
      </trkpt>
      <trkpt lat="39.7399320" lon="-5.3813470">
        <ele>445.4</ele>
        <time>2019-07-09T06:40:14Z</time>
      </trkpt>
      <trkpt lat="39.7399580" lon="-5.3813250">
        <ele>445.4</ele>
        <time>2019-07-09T06:40:16Z</time>
      </trkpt>
      <trkpt lat="39.7400110" lon="-5.3812790">
        <ele>445.0</ele>
        <time>2019-07-09T06:40:19Z</time>
      </trkpt>
      <trkpt lat="39.7400200" lon="-5.3812730">
        <ele>444.8</ele>
        <time>2019-07-09T06:40:21Z</time>
      </trkpt>
      <trkpt lat="39.7400200" lon="-5.3812720">
        <ele>444.8</ele>
        <time>2019-07-09T06:40:22Z</time>
      </trkpt>
      <trkpt lat="39.7399930" lon="-5.3813100">
        <ele>444.8</ele>
        <time>2019-07-09T06:40:59Z</time>
      </trkpt>
      <trkpt lat="39.7399550" lon="-5.3813350">
        <ele>445.0</ele>
        <time>2019-07-09T06:41:01Z</time>
      </trkpt>
      <trkpt lat="39.7398930" lon="-5.3813730">
        <ele>445.0</ele>
        <time>2019-07-09T06:41:04Z</time>
      </trkpt>
      <trkpt lat="39.7398520" lon="-5.3814070">
        <ele>445.2</ele>
        <time>2019-07-09T06:41:06Z</time>
      </trkpt>
      <trkpt lat="39.7397740" lon="-5.3815130">
        <ele>445.6</ele>
        <time>2019-07-09T06:41:10Z</time>
      </trkpt>
      <trkpt lat="39.7397640" lon="-5.3815520">
        <ele>445.8</ele>
        <time>2019-07-09T06:41:11Z</time>
      </trkpt>
      <trkpt lat="39.7397580" lon="-5.3816400">
        <ele>446.2</ele>
        <time>2019-07-09T06:41:13Z</time>
      </trkpt>
      <trkpt lat="39.7397590" lon="-5.3816850">
        <ele>446.4</ele>
        <time>2019-07-09T06:41:14Z</time>
      </trkpt>
      <trkpt lat="39.7397730" lon="-5.3817740">
        <ele>447.0</ele>
        <time>2019-07-09T06:41:16Z</time>
      </trkpt>
      <trkpt lat="39.7397830" lon="-5.3818670">
        <ele>447.2</ele>
        <time>2019-07-09T06:41:18Z</time>
      </trkpt>
      <trkpt lat="39.7397960" lon="-5.3820080">
        <ele>447.4</ele>
        <time>2019-07-09T06:41:21Z</time>
      </trkpt>
      <trkpt lat="39.7398140" lon="-5.3822080">
        <ele>448.0</ele>
        <time>2019-07-09T06:41:25Z</time>
      </trkpt>
      <trkpt lat="39.7398610" lon="-5.3826620">
        <ele>449.2</ele>
        <time>2019-07-09T06:41:34Z</time>
      </trkpt>
      <trkpt lat="39.7398640" lon="-5.3827130">
        <ele>449.2</ele>
        <time>2019-07-09T06:41:35Z</time>
      </trkpt>
      <trkpt lat="39.7398590" lon="-5.3830130">
        <ele>450.0</ele>
        <time>2019-07-09T06:41:41Z</time>
      </trkpt>
      <trkpt lat="39.7398520" lon="-5.3831040">
        <ele>450.4</ele>
        <time>2019-07-09T06:41:43Z</time>
      </trkpt>
      <trkpt lat="39.7398370" lon="-5.3832890">
        <ele>451.2</ele>
        <time>2019-07-09T06:41:47Z</time>
      </trkpt>
      <trkpt lat="39.7398320" lon="-5.3834560">
        <ele>451.6</ele>
        <time>2019-07-09T06:41:50Z</time>
      </trkpt>
      <trkpt lat="39.7398140" lon="-5.3838500">
        <ele>451.2</ele>
        <time>2019-07-09T06:41:56Z</time>
      </trkpt>
      <trkpt lat="39.7398100" lon="-5.3839930">
        <ele>451.2</ele>
        <time>2019-07-09T06:41:58Z</time>
      </trkpt>
      <trkpt lat="39.7398090" lon="-5.3841370">
        <ele>451.0</ele>
        <time>2019-07-09T06:42:00Z</time>
      </trkpt>
      <trkpt lat="39.7398290" lon="-5.3844150">
        <ele>451.0</ele>
        <time>2019-07-09T06:42:04Z</time>
      </trkpt>
      <trkpt lat="39.7398640" lon="-5.3846090">
        <ele>451.0</ele>
        <time>2019-07-09T06:42:07Z</time>
      </trkpt>
      <trkpt lat="39.7398870" lon="-5.3847290">
        <ele>451.0</ele>
        <time>2019-07-09T06:42:09Z</time>
      </trkpt>
      <trkpt lat="39.7399080" lon="-5.3848410">
        <ele>451.0</ele>
        <time>2019-07-09T06:42:11Z</time>
      </trkpt>
      <trkpt lat="39.7399210" lon="-5.3848950">
        <ele>451.2</ele>
        <time>2019-07-09T06:42:12Z</time>
      </trkpt>
      <trkpt lat="39.7400340" lon="-5.3852770">
        <ele>451.6</ele>
        <time>2019-07-09T06:42:19Z</time>
      </trkpt>
      <trkpt lat="39.7400690" lon="-5.3854000">
        <ele>451.6</ele>
        <time>2019-07-09T06:42:21Z</time>
      </trkpt>
      <trkpt lat="39.7401400" lon="-5.3855670">
        <ele>451.6</ele>
        <time>2019-07-09T06:42:24Z</time>
      </trkpt>
      <trkpt lat="39.7403060" lon="-5.3860050">
        <ele>451.8</ele>
        <time>2019-07-09T06:42:32Z</time>
      </trkpt>
      <trkpt lat="39.7403630" lon="-5.3861760">
        <ele>451.8</ele>
        <time>2019-07-09T06:42:35Z</time>
      </trkpt>
      <trkpt lat="39.7404050" lon="-5.3864210">
        <ele>452.0</ele>
        <time>2019-07-09T06:42:39Z</time>
      </trkpt>
      <trkpt lat="39.7404210" lon="-5.3866510">
        <ele>452.2</ele>
        <time>2019-07-09T06:42:43Z</time>
      </trkpt>
      <trkpt lat="39.7404530" lon="-5.3867980">
        <ele>452.8</ele>
        <time>2019-07-09T06:42:46Z</time>
      </trkpt>
      <trkpt lat="39.7404880" lon="-5.3868800">
        <ele>453.2</ele>
        <time>2019-07-09T06:42:48Z</time>
      </trkpt>
      <trkpt lat="39.7405230" lon="-5.3869560">
        <ele>453.6</ele>
        <time>2019-07-09T06:42:50Z</time>
      </trkpt>
      <trkpt lat="39.7405490" lon="-5.3870360">
        <ele>454.0</ele>
        <time>2019-07-09T06:42:52Z</time>
      </trkpt>
      <trkpt lat="39.7405610" lon="-5.3870770">
        <ele>454.4</ele>
        <time>2019-07-09T06:42:53Z</time>
      </trkpt>
      <trkpt lat="39.7406550" lon="-5.3872030">
        <ele>455.0</ele>
        <time>2019-07-09T06:42:57Z</time>
      </trkpt>
      <trkpt lat="39.7407070" lon="-5.3872600">
        <ele>455.4</ele>
        <time>2019-07-09T06:42:59Z</time>
      </trkpt>
      <trkpt lat="39.7408190" lon="-5.3874040">
        <ele>455.6</ele>
        <time>2019-07-09T06:43:03Z</time>
      </trkpt>
      <trkpt lat="39.7410020" lon="-5.3877040">
        <ele>455.6</ele>
        <time>2019-07-09T06:43:09Z</time>
      </trkpt>
      <trkpt lat="39.7410580" lon="-5.3878080">
        <ele>455.4</ele>
        <time>2019-07-09T06:43:11Z</time>
      </trkpt>
      <trkpt lat="39.7411130" lon="-5.3879140">
        <ele>455.4</ele>
        <time>2019-07-09T06:43:13Z</time>
      </trkpt>
      <trkpt lat="39.7412690" lon="-5.3881240">
        <ele>455.4</ele>
        <time>2019-07-09T06:43:18Z</time>
      </trkpt>
      <trkpt lat="39.7412980" lon="-5.3881580">
        <ele>455.4</ele>
        <time>2019-07-09T06:43:19Z</time>
      </trkpt>
      <trkpt lat="39.7413590" lon="-5.3882180">
        <ele>455.6</ele>
        <time>2019-07-09T06:43:21Z</time>
      </trkpt>
      <trkpt lat="39.7413940" lon="-5.3882450">
        <ele>455.6</ele>
        <time>2019-07-09T06:43:22Z</time>
      </trkpt>
      <trkpt lat="39.7415200" lon="-5.3883000">
        <ele>455.4</ele>
        <time>2019-07-09T06:43:25Z</time>
      </trkpt>
      <trkpt lat="39.7416540" lon="-5.3883240">
        <ele>454.8</ele>
        <time>2019-07-09T06:43:29Z</time>
      </trkpt>
      <trkpt lat="39.7416560" lon="-5.3884150">
        <ele>454.6</ele>
        <time>2019-07-09T06:43:32Z</time>
      </trkpt>
      <trkpt lat="39.7416450" lon="-5.3884400">
        <ele>454.6</ele>
        <time>2019-07-09T06:43:33Z</time>
      </trkpt>
      <trkpt lat="39.7416160" lon="-5.3884910">
        <ele>454.6</ele>
        <time>2019-07-09T06:43:35Z</time>
      </trkpt>
      <trkpt lat="39.7415990" lon="-5.3885140">
        <ele>454.8</ele>
        <time>2019-07-09T06:43:36Z</time>
      </trkpt>
      <trkpt lat="39.7415420" lon="-5.3885940">
        <ele>455.2</ele>
        <time>2019-07-09T06:43:39Z</time>
      </trkpt>
      <trkpt lat="39.7413890" lon="-5.3888670">
        <ele>456.8</ele>
        <time>2019-07-09T06:43:47Z</time>
      </trkpt>
      <trkpt lat="39.7413680" lon="-5.3889040">
        <ele>457.0</ele>
        <time>2019-07-09T06:43:48Z</time>
      </trkpt>
      <trkpt lat="39.7413200" lon="-5.3889590">
        <ele>457.4</ele>
        <time>2019-07-09T06:43:50Z</time>
      </trkpt>
      <trkpt lat="39.7412730" lon="-5.3890240">
        <ele>457.8</ele>
        <time>2019-07-09T06:43:52Z</time>
      </trkpt>
      <trkpt lat="39.7412320" lon="-5.3890930">
        <ele>458.0</ele>
        <time>2019-07-09T06:43:54Z</time>
      </trkpt>
      <trkpt lat="39.7411300" lon="-5.3892620">
        <ele>458.8</ele>
        <time>2019-07-09T06:43:59Z</time>
      </trkpt>
      <trkpt lat="39.7410880" lon="-5.3893310">
        <ele>459.6</ele>
        <time>2019-07-09T06:44:01Z</time>
      </trkpt>
      <trkpt lat="39.7410510" lon="-5.3893990">
        <ele>460.0</ele>
        <time>2019-07-09T06:44:03Z</time>
      </trkpt>
      <trkpt lat="39.7409790" lon="-5.3895270">
        <ele>461.2</ele>
        <time>2019-07-09T06:44:07Z</time>
      </trkpt>
      <trkpt lat="39.7409600" lon="-5.3895590">
        <ele>461.6</ele>
        <time>2019-07-09T06:44:08Z</time>
      </trkpt>
      <trkpt lat="39.7409250" lon="-5.3896200">
        <ele>461.8</ele>
        <time>2019-07-09T06:44:10Z</time>
      </trkpt>
      <trkpt lat="39.7408870" lon="-5.3896780">
        <ele>462.4</ele>
        <time>2019-07-09T06:44:12Z</time>
      </trkpt>
      <trkpt lat="39.7408270" lon="-5.3897740">
        <ele>463.2</ele>
        <time>2019-07-09T06:44:15Z</time>
      </trkpt>
      <trkpt lat="39.7408090" lon="-5.3898080">
        <ele>463.6</ele>
        <time>2019-07-09T06:44:16Z</time>
      </trkpt>
      <trkpt lat="39.7407580" lon="-5.3899060">
        <ele>464.2</ele>
        <time>2019-07-09T06:44:19Z</time>
      </trkpt>
      <trkpt lat="39.7407080" lon="-5.3899980">
        <ele>464.8</ele>
        <time>2019-07-09T06:44:22Z</time>
      </trkpt>
      <trkpt lat="39.7406910" lon="-5.3900330">
        <ele>465.0</ele>
        <time>2019-07-09T06:44:23Z</time>
      </trkpt>
      <trkpt lat="39.7406360" lon="-5.3901860">
        <ele>466.0</ele>
        <time>2019-07-09T06:44:27Z</time>
      </trkpt>
      <trkpt lat="39.7406190" lon="-5.3903210">
        <ele>466.4</ele>
        <time>2019-07-09T06:44:30Z</time>
      </trkpt>
      <trkpt lat="39.7406220" lon="-5.3904320">
        <ele>466.2</ele>
        <time>2019-07-09T06:44:32Z</time>
      </trkpt>
      <trkpt lat="39.7406280" lon="-5.3906610">
        <ele>466.2</ele>
        <time>2019-07-09T06:44:36Z</time>
      </trkpt>
      <trkpt lat="39.7405910" lon="-5.3909460">
        <ele>466.4</ele>
        <time>2019-07-09T06:44:41Z</time>
      </trkpt>
      <trkpt lat="39.7405620" lon="-5.3910600">
        <ele>466.4</ele>
        <time>2019-07-09T06:44:43Z</time>
      </trkpt>
      <trkpt lat="39.7405110" lon="-5.3912220">
        <ele>466.6</ele>
        <time>2019-07-09T06:44:46Z</time>
      </trkpt>
      <trkpt lat="39.7404810" lon="-5.3913320">
        <ele>466.8</ele>
        <time>2019-07-09T06:44:48Z</time>
      </trkpt>
      <trkpt lat="39.7404450" lon="-5.3915060">
        <ele>467.0</ele>
        <time>2019-07-09T06:44:51Z</time>
      </trkpt>
      <trkpt lat="39.7404340" lon="-5.3915630">
        <ele>467.2</ele>
        <time>2019-07-09T06:44:52Z</time>
      </trkpt>
      <trkpt lat="39.7403860" lon="-5.3917940">
        <ele>467.6</ele>
        <time>2019-07-09T06:44:56Z</time>
      </trkpt>
      <trkpt lat="39.7403520" lon="-5.3919030">
        <ele>468.0</ele>
        <time>2019-07-09T06:44:58Z</time>
      </trkpt>
      <trkpt lat="39.7402920" lon="-5.3920610">
        <ele>468.2</ele>
        <time>2019-07-09T06:45:01Z</time>
      </trkpt>
      <trkpt lat="39.7402230" lon="-5.3922140">
        <ele>468.6</ele>
        <time>2019-07-09T06:45:04Z</time>
      </trkpt>
      <trkpt lat="39.7401550" lon="-5.3923600">
        <ele>469.0</ele>
        <time>2019-07-09T06:45:07Z</time>
      </trkpt>
      <trkpt lat="39.7400820" lon="-5.3925050">
        <ele>469.0</ele>
        <time>2019-07-09T06:45:10Z</time>
      </trkpt>
      <trkpt lat="39.7399120" lon="-5.3928490">
        <ele>470.0</ele>
        <time>2019-07-09T06:45:17Z</time>
      </trkpt>
      <trkpt lat="39.7398840" lon="-5.3928970">
        <ele>470.2</ele>
        <time>2019-07-09T06:45:18Z</time>
      </trkpt>
      <trkpt lat="39.7395990" lon="-5.3933540">
        <ele>471.2</ele>
        <time>2019-07-09T06:45:28Z</time>
      </trkpt>
      <trkpt lat="39.7394710" lon="-5.3935190">
        <ele>472.0</ele>
        <time>2019-07-09T06:45:32Z</time>
      </trkpt>
      <trkpt lat="39.7394400" lon="-5.3935600">
        <ele>472.2</ele>
        <time>2019-07-09T06:45:33Z</time>
      </trkpt>
      <trkpt lat="39.7393750" lon="-5.3936380">
        <ele>472.6</ele>
        <time>2019-07-09T06:45:35Z</time>
      </trkpt>
      <trkpt lat="39.7393360" lon="-5.3936690">
        <ele>472.8</ele>
        <time>2019-07-09T06:45:36Z</time>
      </trkpt>
      <trkpt lat="39.7391860" lon="-5.3937070">
        <ele>472.6</ele>
        <time>2019-07-09T06:45:39Z</time>
      </trkpt>
      <trkpt lat="39.7390690" lon="-5.3937220">
        <ele>472.2</ele>
        <time>2019-07-09T06:45:41Z</time>
      </trkpt>
      <trkpt lat="39.7389590" lon="-5.3937730">
        <ele>472.0</ele>
        <time>2019-07-09T06:45:43Z</time>
      </trkpt>
      <trkpt lat="39.7388380" lon="-5.3939230">
        <ele>472.4</ele>
        <time>2019-07-09T06:45:46Z</time>
      </trkpt>
      <trkpt lat="39.7388030" lon="-5.3939750">
        <ele>472.6</ele>
        <time>2019-07-09T06:45:47Z</time>
      </trkpt>
      <trkpt lat="39.7386410" lon="-5.3942040">
        <ele>473.0</ele>
        <time>2019-07-09T06:45:52Z</time>
      </trkpt>
      <trkpt lat="39.7385800" lon="-5.3942900">
        <ele>473.4</ele>
        <time>2019-07-09T06:45:54Z</time>
      </trkpt>
      <trkpt lat="39.7384900" lon="-5.3944070">
        <ele>474.2</ele>
        <time>2019-07-09T06:45:57Z</time>
      </trkpt>
      <trkpt lat="39.7383750" lon="-5.3945630">
        <ele>475.4</ele>
        <time>2019-07-09T06:46:01Z</time>
      </trkpt>
      <trkpt lat="39.7383140" lon="-5.3946360">
        <ele>475.8</ele>
        <time>2019-07-09T06:46:03Z</time>
      </trkpt>
      <trkpt lat="39.7382240" lon="-5.3947420">
        <ele>476.4</ele>
        <time>2019-07-09T06:46:06Z</time>
      </trkpt>
      <trkpt lat="39.7381150" lon="-5.3948740">
        <ele>477.4</ele>
        <time>2019-07-09T06:46:10Z</time>
      </trkpt>
      <trkpt lat="39.7380860" lon="-5.3949010">
        <ele>477.8</ele>
        <time>2019-07-09T06:46:11Z</time>
      </trkpt>
      <trkpt lat="39.7380040" lon="-5.3949900">
        <ele>478.6</ele>
        <time>2019-07-09T06:46:14Z</time>
      </trkpt>
      <trkpt lat="39.7378610" lon="-5.3951250">
        <ele>479.6</ele>
        <time>2019-07-09T06:46:19Z</time>
      </trkpt>
      <trkpt lat="39.7377710" lon="-5.3952050">
        <ele>480.2</ele>
        <time>2019-07-09T06:46:22Z</time>
      </trkpt>
      <trkpt lat="39.7377130" lon="-5.3952600">
        <ele>480.8</ele>
        <time>2019-07-09T06:46:24Z</time>
      </trkpt>
      <trkpt lat="39.7376250" lon="-5.3953470">
        <ele>481.6</ele>
        <time>2019-07-09T06:46:27Z</time>
      </trkpt>
      <trkpt lat="39.7375670" lon="-5.3954080">
        <ele>481.8</ele>
        <time>2019-07-09T06:46:29Z</time>
      </trkpt>
      <trkpt lat="39.7374020" lon="-5.3955420">
        <ele>482.8</ele>
        <time>2019-07-09T06:46:34Z</time>
      </trkpt>
      <trkpt lat="39.7373680" lon="-5.3955710">
        <ele>483.0</ele>
        <time>2019-07-09T06:46:35Z</time>
      </trkpt>
      <trkpt lat="39.7372040" lon="-5.3957200">
        <ele>484.2</ele>
        <time>2019-07-09T06:46:40Z</time>
      </trkpt>
      <trkpt lat="39.7371370" lon="-5.3957720">
        <ele>484.4</ele>
        <time>2019-07-09T06:46:42Z</time>
      </trkpt>
      <trkpt lat="39.7368820" lon="-5.3959540">
        <ele>485.0</ele>
        <time>2019-07-09T06:46:49Z</time>
      </trkpt>
      <trkpt lat="39.7368440" lon="-5.3959770">
        <ele>485.2</ele>
        <time>2019-07-09T06:46:50Z</time>
      </trkpt>
      <trkpt lat="39.7367690" lon="-5.3960240">
        <ele>485.4</ele>
        <time>2019-07-09T06:46:52Z</time>
      </trkpt>
      <trkpt lat="39.7366950" lon="-5.3960780">
        <ele>485.8</ele>
        <time>2019-07-09T06:46:54Z</time>
      </trkpt>
      <trkpt lat="39.7365820" lon="-5.3961590">
        <ele>486.0</ele>
        <time>2019-07-09T06:46:57Z</time>
      </trkpt>
      <trkpt lat="39.7365080" lon="-5.3962140">
        <ele>486.4</ele>
        <time>2019-07-09T06:46:59Z</time>
      </trkpt>
      <trkpt lat="39.7362880" lon="-5.3963960">
        <ele>487.4</ele>
        <time>2019-07-09T06:47:05Z</time>
      </trkpt>
      <trkpt lat="39.7361460" lon="-5.3965420">
        <ele>487.6</ele>
        <time>2019-07-09T06:47:09Z</time>
      </trkpt>
      <trkpt lat="39.7360790" lon="-5.3966130">
        <ele>487.8</ele>
        <time>2019-07-09T06:47:11Z</time>
      </trkpt>
      <trkpt lat="39.7359840" lon="-5.3967390">
        <ele>488.0</ele>
        <time>2019-07-09T06:47:14Z</time>
      </trkpt>
      <trkpt lat="39.7358590" lon="-5.3969340">
        <ele>488.0</ele>
        <time>2019-07-09T06:47:18Z</time>
      </trkpt>
      <trkpt lat="39.7357690" lon="-5.3970970">
        <ele>487.8</ele>
        <time>2019-07-09T06:47:21Z</time>
      </trkpt>
      <trkpt lat="39.7357100" lon="-5.3972220">
        <ele>487.4</ele>
        <time>2019-07-09T06:47:23Z</time>
      </trkpt>
      <trkpt lat="39.7356620" lon="-5.3973650">
        <ele>486.8</ele>
        <time>2019-07-09T06:47:25Z</time>
      </trkpt>
      <trkpt lat="39.7356260" lon="-5.3975230">
        <ele>486.2</ele>
        <time>2019-07-09T06:47:27Z</time>
      </trkpt>
      <trkpt lat="39.7355990" lon="-5.3976940">
        <ele>485.8</ele>
        <time>2019-07-09T06:47:29Z</time>
      </trkpt>
      <trkpt lat="39.7355900" lon="-5.3977850">
        <ele>485.6</ele>
        <time>2019-07-09T06:47:30Z</time>
      </trkpt>
      <trkpt lat="39.7355850" lon="-5.3978770">
        <ele>485.4</ele>
        <time>2019-07-09T06:47:31Z</time>
      </trkpt>
      <trkpt lat="39.7355870" lon="-5.3979730">
        <ele>485.2</ele>
        <time>2019-07-09T06:47:32Z</time>
      </trkpt>
      <trkpt lat="39.7356110" lon="-5.3981620">
        <ele>484.4</ele>
        <time>2019-07-09T06:47:34Z</time>
      </trkpt>
      <trkpt lat="39.7356340" lon="-5.3982580">
        <ele>483.6</ele>
        <time>2019-07-09T06:47:35Z</time>
      </trkpt>
      <trkpt lat="39.7356630" lon="-5.3983550">
        <ele>483.2</ele>
        <time>2019-07-09T06:47:36Z</time>
      </trkpt>
      <trkpt lat="39.7356940" lon="-5.3984520">
        <ele>482.6</ele>
        <time>2019-07-09T06:47:37Z</time>
      </trkpt>
      <trkpt lat="39.7357240" lon="-5.3985490">
        <ele>482.0</ele>
        <time>2019-07-09T06:47:38Z</time>
      </trkpt>
      <trkpt lat="39.7357810" lon="-5.3987450">
        <ele>481.2</ele>
        <time>2019-07-09T06:47:40Z</time>
      </trkpt>
      <trkpt lat="39.7358510" lon="-5.3989400">
        <ele>479.8</ele>
        <time>2019-07-09T06:47:42Z</time>
      </trkpt>
      <trkpt lat="39.7359290" lon="-5.3991300">
        <ele>478.2</ele>
        <time>2019-07-09T06:47:44Z</time>
      </trkpt>
      <trkpt lat="39.7360100" lon="-5.3993130">
        <ele>476.6</ele>
        <time>2019-07-09T06:47:46Z</time>
      </trkpt>
      <trkpt lat="39.7360890" lon="-5.3994990">
        <ele>474.6</ele>
        <time>2019-07-09T06:47:48Z</time>
      </trkpt>
      <trkpt lat="39.7361680" lon="-5.3996940">
        <ele>473.0</ele>
        <time>2019-07-09T06:47:50Z</time>
      </trkpt>
      <trkpt lat="39.7362050" lon="-5.3997910">
        <ele>472.0</ele>
        <time>2019-07-09T06:47:51Z</time>
      </trkpt>
      <trkpt lat="39.7362420" lon="-5.3998810">
        <ele>471.2</ele>
        <time>2019-07-09T06:47:52Z</time>
      </trkpt>
      <trkpt lat="39.7363100" lon="-5.4000380">
        <ele>470.0</ele>
        <time>2019-07-09T06:47:54Z</time>
      </trkpt>
      <trkpt lat="39.7363450" lon="-5.4001040">
        <ele>469.2</ele>
        <time>2019-07-09T06:47:55Z</time>
      </trkpt>
      <trkpt lat="39.7363800" lon="-5.4001610">
        <ele>468.2</ele>
        <time>2019-07-09T06:47:56Z</time>
      </trkpt>
      <trkpt lat="39.7364400" lon="-5.4002620">
        <ele>466.8</ele>
        <time>2019-07-09T06:47:58Z</time>
      </trkpt>
      <trkpt lat="39.7364460" lon="-5.4003150">
        <ele>466.4</ele>
        <time>2019-07-09T06:47:59Z</time>
      </trkpt>
      <trkpt lat="39.7363840" lon="-5.4003910">
        <ele>465.8</ele>
        <time>2019-07-09T06:48:01Z</time>
      </trkpt>
      <trkpt lat="39.7362000" lon="-5.4003500">
        <ele>464.4</ele>
        <time>2019-07-09T06:48:04Z</time>
      </trkpt>
      <trkpt lat="39.7361440" lon="-5.4003290">
        <ele>463.6</ele>
        <time>2019-07-09T06:48:05Z</time>
      </trkpt>
      <trkpt lat="39.7360960" lon="-5.4003270">
        <ele>462.8</ele>
        <time>2019-07-09T06:48:06Z</time>
      </trkpt>
      <trkpt lat="39.7360590" lon="-5.4003570">
        <ele>462.0</ele>
        <time>2019-07-09T06:48:07Z</time>
      </trkpt>
      <trkpt lat="39.7360400" lon="-5.4004160">
        <ele>461.2</ele>
        <time>2019-07-09T06:48:08Z</time>
      </trkpt>
      <trkpt lat="39.7360390" lon="-5.4004930">
        <ele>460.6</ele>
        <time>2019-07-09T06:48:09Z</time>
      </trkpt>
      <trkpt lat="39.7360550" lon="-5.4005770">
        <ele>460.2</ele>
        <time>2019-07-09T06:48:10Z</time>
      </trkpt>
      <trkpt lat="39.7360820" lon="-5.4006650">
        <ele>459.0</ele>
        <time>2019-07-09T06:48:11Z</time>
      </trkpt>
      <trkpt lat="39.7361070" lon="-5.4007580">
        <ele>458.4</ele>
        <time>2019-07-09T06:48:12Z</time>
      </trkpt>
      <trkpt lat="39.7361360" lon="-5.4010810">
        <ele>457.0</ele>
        <time>2019-07-09T06:48:15Z</time>
      </trkpt>
      <trkpt lat="39.7361390" lon="-5.4011880">
        <ele>456.4</ele>
        <time>2019-07-09T06:48:16Z</time>
      </trkpt>
      <trkpt lat="39.7361420" lon="-5.4013870">
        <ele>455.0</ele>
        <time>2019-07-09T06:48:18Z</time>
      </trkpt>
      <trkpt lat="39.7361340" lon="-5.4014850">
        <ele>454.2</ele>
        <time>2019-07-09T06:48:19Z</time>
      </trkpt>
      <trkpt lat="39.7361170" lon="-5.4015780">
        <ele>453.2</ele>
        <time>2019-07-09T06:48:20Z</time>
      </trkpt>
      <trkpt lat="39.7360900" lon="-5.4016720">
        <ele>452.4</ele>
        <time>2019-07-09T06:48:21Z</time>
      </trkpt>
      <trkpt lat="39.7360550" lon="-5.4017680">
        <ele>451.2</ele>
        <time>2019-07-09T06:48:22Z</time>
      </trkpt>
      <trkpt lat="39.7360150" lon="-5.4018620">
        <ele>449.8</ele>
        <time>2019-07-09T06:48:23Z</time>
      </trkpt>
      <trkpt lat="39.7359780" lon="-5.4019510">
        <ele>448.4</ele>
        <time>2019-07-09T06:48:24Z</time>
      </trkpt>
      <trkpt lat="39.7359440" lon="-5.4020280">
        <ele>446.8</ele>
        <time>2019-07-09T06:48:25Z</time>
      </trkpt>
      <trkpt lat="39.7359160" lon="-5.4020970">
        <ele>445.8</ele>
        <time>2019-07-09T06:48:26Z</time>
      </trkpt>
      <trkpt lat="39.7358650" lon="-5.4022220">
        <ele>444.4</ele>
        <time>2019-07-09T06:48:28Z</time>
      </trkpt>
      <trkpt lat="39.7358020" lon="-5.4022860">
        <ele>443.4</ele>
        <time>2019-07-09T06:48:30Z</time>
      </trkpt>
      <trkpt lat="39.7357640" lon="-5.4022760">
        <ele>442.6</ele>
        <time>2019-07-09T06:48:31Z</time>
      </trkpt>
      <trkpt lat="39.7357370" lon="-5.4022340">
        <ele>442.2</ele>
        <time>2019-07-09T06:48:32Z</time>
      </trkpt>
      <trkpt lat="39.7357250" lon="-5.4021740">
        <ele>442.0</ele>
        <time>2019-07-09T06:48:33Z</time>
      </trkpt>
      <trkpt lat="39.7357500" lon="-5.4019540">
        <ele>441.0</ele>
        <time>2019-07-09T06:48:36Z</time>
      </trkpt>
      <trkpt lat="39.7356870" lon="-5.4017130">
        <ele>440.0</ele>
        <time>2019-07-09T06:48:39Z</time>
      </trkpt>
      <trkpt lat="39.7355090" lon="-5.4015410">
        <ele>438.6</ele>
        <time>2019-07-09T06:48:42Z</time>
      </trkpt>
      <trkpt lat="39.7353480" lon="-5.4014000">
        <ele>437.6</ele>
        <time>2019-07-09T06:48:45Z</time>
      </trkpt>
      <trkpt lat="39.7353060" lon="-5.4013590">
        <ele>436.8</ele>
        <time>2019-07-09T06:48:46Z</time>
      </trkpt>
      <trkpt lat="39.7352680" lon="-5.4013260">
        <ele>435.8</ele>
        <time>2019-07-09T06:48:47Z</time>
      </trkpt>
      <trkpt lat="39.7352050" lon="-5.4013340">
        <ele>435.0</ele>
        <time>2019-07-09T06:48:49Z</time>
      </trkpt>
      <trkpt lat="39.7351950" lon="-5.4013730">
        <ele>434.6</ele>
        <time>2019-07-09T06:48:50Z</time>
      </trkpt>
      <trkpt lat="39.7352070" lon="-5.4014190">
        <ele>434.2</ele>
        <time>2019-07-09T06:48:51Z</time>
      </trkpt>
      <trkpt lat="39.7352750" lon="-5.4015080">
        <ele>433.6</ele>
        <time>2019-07-09T06:48:53Z</time>
      </trkpt>
      <trkpt lat="39.7353150" lon="-5.4015590">
        <ele>433.2</ele>
        <time>2019-07-09T06:48:54Z</time>
      </trkpt>
      <trkpt lat="39.7353710" lon="-5.4016730">
        <ele>431.6</ele>
        <time>2019-07-09T06:48:56Z</time>
      </trkpt>
      <trkpt lat="39.7353830" lon="-5.4017480">
        <ele>431.2</ele>
        <time>2019-07-09T06:48:57Z</time>
      </trkpt>
      <trkpt lat="39.7353760" lon="-5.4019250">
        <ele>430.4</ele>
        <time>2019-07-09T06:48:59Z</time>
      </trkpt>
      <trkpt lat="39.7353600" lon="-5.4020180">
        <ele>430.0</ele>
        <time>2019-07-09T06:49:00Z</time>
      </trkpt>
      <trkpt lat="39.7353050" lon="-5.4022110">
        <ele>428.8</ele>
        <time>2019-07-09T06:49:02Z</time>
      </trkpt>
      <trkpt lat="39.7352720" lon="-5.4023040">
        <ele>428.2</ele>
        <time>2019-07-09T06:49:03Z</time>
      </trkpt>
      <trkpt lat="39.7352450" lon="-5.4023940">
        <ele>427.4</ele>
        <time>2019-07-09T06:49:04Z</time>
      </trkpt>
      <trkpt lat="39.7352040" lon="-5.4025640">
        <ele>426.2</ele>
        <time>2019-07-09T06:49:06Z</time>
      </trkpt>
      <trkpt lat="39.7351650" lon="-5.4027980">
        <ele>425.2</ele>
        <time>2019-07-09T06:49:09Z</time>
      </trkpt>
      <trkpt lat="39.7350960" lon="-5.4029500">
        <ele>423.4</ele>
        <time>2019-07-09T06:49:11Z</time>
      </trkpt>
      <trkpt lat="39.7350520" lon="-5.4030240">
        <ele>422.4</ele>
        <time>2019-07-09T06:49:12Z</time>
      </trkpt>
      <trkpt lat="39.7350060" lon="-5.4030960">
        <ele>422.0</ele>
        <time>2019-07-09T06:49:13Z</time>
      </trkpt>
      <trkpt lat="39.7349160" lon="-5.4032400">
        <ele>421.0</ele>
        <time>2019-07-09T06:49:15Z</time>
      </trkpt>
      <trkpt lat="39.7348340" lon="-5.4033980">
        <ele>419.2</ele>
        <time>2019-07-09T06:49:17Z</time>
      </trkpt>
      <trkpt lat="39.7348050" lon="-5.4034880">
        <ele>418.6</ele>
        <time>2019-07-09T06:49:18Z</time>
      </trkpt>
      <trkpt lat="39.7347840" lon="-5.4035810">
        <ele>417.8</ele>
        <time>2019-07-09T06:49:19Z</time>
      </trkpt>
      <trkpt lat="39.7347610" lon="-5.4037730">
        <ele>416.8</ele>
        <time>2019-07-09T06:49:21Z</time>
      </trkpt>
      <trkpt lat="39.7347500" lon="-5.4038680">
        <ele>416.6</ele>
        <time>2019-07-09T06:49:22Z</time>
      </trkpt>
      <trkpt lat="39.7347340" lon="-5.4039630">
        <ele>416.2</ele>
        <time>2019-07-09T06:49:23Z</time>
      </trkpt>
      <trkpt lat="39.7346500" lon="-5.4042340">
        <ele>415.2</ele>
        <time>2019-07-09T06:49:26Z</time>
      </trkpt>
      <trkpt lat="39.7344610" lon="-5.4045700">
        <ele>414.0</ele>
        <time>2019-07-09T06:49:30Z</time>
      </trkpt>
      <trkpt lat="39.7343000" lon="-5.4047900">
        <ele>412.8</ele>
        <time>2019-07-09T06:49:33Z</time>
      </trkpt>
      <trkpt lat="39.7341350" lon="-5.4049800">
        <ele>412.2</ele>
        <time>2019-07-09T06:49:36Z</time>
      </trkpt>
      <trkpt lat="39.7340240" lon="-5.4050850">
        <ele>411.8</ele>
        <time>2019-07-09T06:49:38Z</time>
      </trkpt>
      <trkpt lat="39.7338180" lon="-5.4053090">
        <ele>411.0</ele>
        <time>2019-07-09T06:49:42Z</time>
      </trkpt>
      <trkpt lat="39.7337150" lon="-5.4054280">
        <ele>410.8</ele>
        <time>2019-07-09T06:49:44Z</time>
      </trkpt>
      <trkpt lat="39.7335980" lon="-5.4055390">
        <ele>410.4</ele>
        <time>2019-07-09T06:49:46Z</time>
      </trkpt>
      <trkpt lat="39.7334580" lon="-5.4056280">
        <ele>409.8</ele>
        <time>2019-07-09T06:49:48Z</time>
      </trkpt>
      <trkpt lat="39.7333840" lon="-5.4056690">
        <ele>409.2</ele>
        <time>2019-07-09T06:49:49Z</time>
      </trkpt>
      <trkpt lat="39.7332450" lon="-5.4057470">
        <ele>407.8</ele>
        <time>2019-07-09T06:49:51Z</time>
      </trkpt>
      <trkpt lat="39.7331170" lon="-5.4058440">
        <ele>406.4</ele>
        <time>2019-07-09T06:49:53Z</time>
      </trkpt>
      <trkpt lat="39.7329920" lon="-5.4059710">
        <ele>405.2</ele>
        <time>2019-07-09T06:49:55Z</time>
      </trkpt>
      <trkpt lat="39.7328620" lon="-5.4061010">
        <ele>403.8</ele>
        <time>2019-07-09T06:49:57Z</time>
      </trkpt>
      <trkpt lat="39.7326590" lon="-5.4062900">
        <ele>402.6</ele>
        <time>2019-07-09T06:50:00Z</time>
      </trkpt>
      <trkpt lat="39.7325440" lon="-5.4064120">
        <ele>402.0</ele>
        <time>2019-07-09T06:50:02Z</time>
      </trkpt>
      <trkpt lat="39.7324680" lon="-5.4065380">
        <ele>401.6</ele>
        <time>2019-07-09T06:50:04Z</time>
      </trkpt>
      <trkpt lat="39.7324440" lon="-5.4066080">
        <ele>401.4</ele>
        <time>2019-07-09T06:50:05Z</time>
      </trkpt>
      <trkpt lat="39.7324220" lon="-5.4068440">
        <ele>400.4</ele>
        <time>2019-07-09T06:50:08Z</time>
      </trkpt>
      <trkpt lat="39.7324320" lon="-5.4069270">
        <ele>400.0</ele>
        <time>2019-07-09T06:50:09Z</time>
      </trkpt>
      <trkpt lat="39.7324470" lon="-5.4070100">
        <ele>399.8</ele>
        <time>2019-07-09T06:50:10Z</time>
      </trkpt>
      <trkpt lat="39.7325080" lon="-5.4072580">
        <ele>399.2</ele>
        <time>2019-07-09T06:50:13Z</time>
      </trkpt>
      <trkpt lat="39.7325330" lon="-5.4073340">
        <ele>399.0</ele>
        <time>2019-07-09T06:50:14Z</time>
      </trkpt>
      <trkpt lat="39.7325760" lon="-5.4074600">
        <ele>398.4</ele>
        <time>2019-07-09T06:50:16Z</time>
      </trkpt>
      <trkpt lat="39.7325800" lon="-5.4075180">
        <ele>398.2</ele>
        <time>2019-07-09T06:50:17Z</time>
      </trkpt>
      <trkpt lat="39.7325110" lon="-5.4077080">
        <ele>397.8</ele>
        <time>2019-07-09T06:50:20Z</time>
      </trkpt>
      <trkpt lat="39.7323950" lon="-5.4077880">
        <ele>396.4</ele>
        <time>2019-07-09T06:50:22Z</time>
      </trkpt>
      <trkpt lat="39.7323300" lon="-5.4078150">
        <ele>395.6</ele>
        <time>2019-07-09T06:50:23Z</time>
      </trkpt>
      <trkpt lat="39.7322650" lon="-5.4078370">
        <ele>395.0</ele>
        <time>2019-07-09T06:50:24Z</time>
      </trkpt>
      <trkpt lat="39.7322030" lon="-5.4078530">
        <ele>394.2</ele>
        <time>2019-07-09T06:50:25Z</time>
      </trkpt>
      <trkpt lat="39.7321400" lon="-5.4078600">
        <ele>393.6</ele>
        <time>2019-07-09T06:50:26Z</time>
      </trkpt>
      <trkpt lat="39.7320070" lon="-5.4078440">
        <ele>392.2</ele>
        <time>2019-07-09T06:50:28Z</time>
      </trkpt>
      <trkpt lat="39.7319420" lon="-5.4078270">
        <ele>391.4</ele>
        <time>2019-07-09T06:50:29Z</time>
      </trkpt>
      <trkpt lat="39.7318800" lon="-5.4078120">
        <ele>390.6</ele>
        <time>2019-07-09T06:50:30Z</time>
      </trkpt>
      <trkpt lat="39.7318240" lon="-5.4078080">
        <ele>389.4</ele>
        <time>2019-07-09T06:50:31Z</time>
      </trkpt>
      <trkpt lat="39.7317730" lon="-5.4078250">
        <ele>388.6</ele>
        <time>2019-07-09T06:50:32Z</time>
      </trkpt>
      <trkpt lat="39.7316850" lon="-5.4079320">
        <ele>387.0</ele>
        <time>2019-07-09T06:50:34Z</time>
      </trkpt>
      <trkpt lat="39.7316560" lon="-5.4080140">
        <ele>386.0</ele>
        <time>2019-07-09T06:50:35Z</time>
      </trkpt>
      <trkpt lat="39.7316360" lon="-5.4081040">
        <ele>385.4</ele>
        <time>2019-07-09T06:50:36Z</time>
      </trkpt>
      <trkpt lat="39.7316180" lon="-5.4081910">
        <ele>384.8</ele>
        <time>2019-07-09T06:50:37Z</time>
      </trkpt>
      <trkpt lat="39.7316000" lon="-5.4082800">
        <ele>383.8</ele>
        <time>2019-07-09T06:50:38Z</time>
      </trkpt>
      <trkpt lat="39.7315830" lon="-5.4083760">
        <ele>382.8</ele>
        <time>2019-07-09T06:50:39Z</time>
      </trkpt>
      <trkpt lat="39.7315500" lon="-5.4085860">
        <ele>381.4</ele>
        <time>2019-07-09T06:50:41Z</time>
      </trkpt>
      <trkpt lat="39.7315410" lon="-5.4088120">
        <ele>380.4</ele>
        <time>2019-07-09T06:50:43Z</time>
      </trkpt>
      <trkpt lat="39.7315630" lon="-5.4090390">
        <ele>379.2</ele>
        <time>2019-07-09T06:50:45Z</time>
      </trkpt>
      <trkpt lat="39.7315880" lon="-5.4092430">
        <ele>378.2</ele>
        <time>2019-07-09T06:50:47Z</time>
      </trkpt>
      <trkpt lat="39.7316010" lon="-5.4093390">
        <ele>377.8</ele>
        <time>2019-07-09T06:50:48Z</time>
      </trkpt>
      <trkpt lat="39.7316370" lon="-5.4097100">
        <ele>376.6</ele>
        <time>2019-07-09T06:50:52Z</time>
      </trkpt>
      <trkpt lat="39.7316510" lon="-5.4097890">
        <ele>376.0</ele>
        <time>2019-07-09T06:50:53Z</time>
      </trkpt>
      <trkpt lat="39.7316970" lon="-5.4099320">
        <ele>375.0</ele>
        <time>2019-07-09T06:50:55Z</time>
      </trkpt>
      <trkpt lat="39.7317660" lon="-5.4101330">
        <ele>374.2</ele>
        <time>2019-07-09T06:50:58Z</time>
      </trkpt>
      <trkpt lat="39.7317800" lon="-5.4102020">
        <ele>374.0</ele>
        <time>2019-07-09T06:50:59Z</time>
      </trkpt>
      <trkpt lat="39.7317840" lon="-5.4102740">
        <ele>374.0</ele>
        <time>2019-07-09T06:51:00Z</time>
      </trkpt>
      <trkpt lat="39.7317770" lon="-5.4103520">
        <ele>373.8</ele>
        <time>2019-07-09T06:51:01Z</time>
      </trkpt>
      <trkpt lat="39.7317350" lon="-5.4106170">
        <ele>372.4</ele>
        <time>2019-07-09T06:51:04Z</time>
      </trkpt>
      <trkpt lat="39.7316880" lon="-5.4108060">
        <ele>370.6</ele>
        <time>2019-07-09T06:51:06Z</time>
      </trkpt>
      <trkpt lat="39.7316400" lon="-5.4109940">
        <ele>369.2</ele>
        <time>2019-07-09T06:51:08Z</time>
      </trkpt>
      <trkpt lat="39.7316170" lon="-5.4110850">
        <ele>368.2</ele>
        <time>2019-07-09T06:51:09Z</time>
      </trkpt>
      <trkpt lat="39.7315750" lon="-5.4112550">
        <ele>366.4</ele>
        <time>2019-07-09T06:51:11Z</time>
      </trkpt>
      <trkpt lat="39.7315350" lon="-5.4114130">
        <ele>364.4</ele>
        <time>2019-07-09T06:51:13Z</time>
      </trkpt>
      <trkpt lat="39.7315170" lon="-5.4114900">
        <ele>363.2</ele>
        <time>2019-07-09T06:51:14Z</time>
      </trkpt>
      <trkpt lat="39.7315010" lon="-5.4115650">
        <ele>362.2</ele>
        <time>2019-07-09T06:51:15Z</time>
      </trkpt>
      <trkpt lat="39.7314700" lon="-5.4116970">
        <ele>360.6</ele>
        <time>2019-07-09T06:51:17Z</time>
      </trkpt>
      <trkpt lat="39.7314610" lon="-5.4117560">
        <ele>360.0</ele>
        <time>2019-07-09T06:51:18Z</time>
      </trkpt>
      <trkpt lat="39.7314610" lon="-5.4118130">
        <ele>359.6</ele>
        <time>2019-07-09T06:51:19Z</time>
      </trkpt>
      <trkpt lat="39.7314760" lon="-5.4118610">
        <ele>358.8</ele>
        <time>2019-07-09T06:51:20Z</time>
      </trkpt>
      <trkpt lat="39.7315510" lon="-5.4119290">
        <ele>357.4</ele>
        <time>2019-07-09T06:51:22Z</time>
      </trkpt>
      <trkpt lat="39.7317120" lon="-5.4119460">
        <ele>356.2</ele>
        <time>2019-07-09T06:51:25Z</time>
      </trkpt>
      <trkpt lat="39.7317710" lon="-5.4119420">
        <ele>356.0</ele>
        <time>2019-07-09T06:51:26Z</time>
      </trkpt>
      <trkpt lat="39.7318340" lon="-5.4119410">
        <ele>355.8</ele>
        <time>2019-07-09T06:51:27Z</time>
      </trkpt>
      <trkpt lat="39.7320300" lon="-5.4119390">
        <ele>355.4</ele>
        <time>2019-07-09T06:51:30Z</time>
      </trkpt>
      <trkpt lat="39.7320990" lon="-5.4119550">
        <ele>355.2</ele>
        <time>2019-07-09T06:51:31Z</time>
      </trkpt>
      <trkpt lat="39.7322940" lon="-5.4120320">
        <ele>353.6</ele>
        <time>2019-07-09T06:51:34Z</time>
      </trkpt>
      <trkpt lat="39.7323940" lon="-5.4121170">
        <ele>352.6</ele>
        <time>2019-07-09T06:51:36Z</time>
      </trkpt>
      <trkpt lat="39.7324700" lon="-5.4122570">
        <ele>351.4</ele>
        <time>2019-07-09T06:51:38Z</time>
      </trkpt>
      <trkpt lat="39.7324920" lon="-5.4123470">
        <ele>350.8</ele>
        <time>2019-07-09T06:51:39Z</time>
      </trkpt>
      <trkpt lat="39.7325110" lon="-5.4124470">
        <ele>350.2</ele>
        <time>2019-07-09T06:51:40Z</time>
      </trkpt>
      <trkpt lat="39.7325350" lon="-5.4125520">
        <ele>349.8</ele>
        <time>2019-07-09T06:51:41Z</time>
      </trkpt>
      <trkpt lat="39.7325660" lon="-5.4126550">
        <ele>348.8</ele>
        <time>2019-07-09T06:51:42Z</time>
      </trkpt>
      <trkpt lat="39.7325990" lon="-5.4127610">
        <ele>348.0</ele>
        <time>2019-07-09T06:51:43Z</time>
      </trkpt>
      <trkpt lat="39.7326300" lon="-5.4128690">
        <ele>347.6</ele>
        <time>2019-07-09T06:51:44Z</time>
      </trkpt>
      <trkpt lat="39.7326930" lon="-5.4130810">
        <ele>346.6</ele>
        <time>2019-07-09T06:51:46Z</time>
      </trkpt>
      <trkpt lat="39.7327650" lon="-5.4132640">
        <ele>345.8</ele>
        <time>2019-07-09T06:51:48Z</time>
      </trkpt>
      <trkpt lat="39.7328130" lon="-5.4133400">
        <ele>345.4</ele>
        <time>2019-07-09T06:51:49Z</time>
      </trkpt>
      <trkpt lat="39.7329280" lon="-5.4134680">
        <ele>344.2</ele>
        <time>2019-07-09T06:51:51Z</time>
      </trkpt>
      <trkpt lat="39.7330970" lon="-5.4136600">
        <ele>343.4</ele>
        <time>2019-07-09T06:51:54Z</time>
      </trkpt>
      <trkpt lat="39.7333190" lon="-5.4139070">
        <ele>343.0</ele>
        <time>2019-07-09T06:51:58Z</time>
      </trkpt>
      <trkpt lat="39.7334840" lon="-5.4140810">
        <ele>342.4</ele>
        <time>2019-07-09T06:52:01Z</time>
      </trkpt>
      <trkpt lat="39.7336520" lon="-5.4142470">
        <ele>341.8</ele>
        <time>2019-07-09T06:52:04Z</time>
      </trkpt>
      <trkpt lat="39.7339200" lon="-5.4145140">
        <ele>341.0</ele>
        <time>2019-07-09T06:52:09Z</time>
      </trkpt>
      <trkpt lat="39.7340630" lon="-5.4146490">
        <ele>340.6</ele>
        <time>2019-07-09T06:52:12Z</time>
      </trkpt>
      <trkpt lat="39.7341340" lon="-5.4147130">
        <ele>340.6</ele>
        <time>2019-07-09T06:52:14Z</time>
      </trkpt>
      <trkpt lat="39.7342080" lon="-5.4147180">
        <ele>340.6</ele>
        <time>2019-07-09T06:52:18Z</time>
      </trkpt>
      <trkpt lat="39.7342800" lon="-5.4146110">
        <ele>340.4</ele>
        <time>2019-07-09T06:52:23Z</time>
      </trkpt>
      <trkpt lat="39.7342920" lon="-5.4145710">
        <ele>340.2</ele>
        <time>2019-07-09T06:52:25Z</time>
      </trkpt>
      <trkpt lat="39.7343160" lon="-5.4145780">
        <ele>340.2</ele>
        <time>2019-07-09T06:52:28Z</time>
      </trkpt>
      <trkpt lat="39.7343020" lon="-5.4146070">
        <ele>340.2</ele>
        <time>2019-07-09T06:52:30Z</time>
      </trkpt>
      <trkpt lat="39.7342590" lon="-5.4146540">
        <ele>340.4</ele>
        <time>2019-07-09T06:52:33Z</time>
      </trkpt>
      <trkpt lat="39.7341490" lon="-5.4147720">
        <ele>340.6</ele>
        <time>2019-07-09T06:52:39Z</time>
      </trkpt>
      <trkpt lat="39.7340910" lon="-5.4149160">
        <ele>340.6</ele>
        <time>2019-07-09T06:52:44Z</time>
      </trkpt>
      <trkpt lat="39.7340890" lon="-5.4149190">
        <ele>340.4</ele>
        <time>2019-07-09T06:52:46Z</time>
      </trkpt>
      <trkpt lat="39.7341080" lon="-5.4148650">
        <ele>339.8</ele>
        <time>2019-07-09T06:53:55Z</time>
      </trkpt>
      <trkpt lat="39.7341170" lon="-5.4148470">
        <ele>339.8</ele>
        <time>2019-07-09T06:53:56Z</time>
      </trkpt>
      <trkpt lat="39.7341380" lon="-5.4148050">
        <ele>340.0</ele>
        <time>2019-07-09T06:53:58Z</time>
      </trkpt>
      <trkpt lat="39.7341710" lon="-5.4147550">
        <ele>340.0</ele>
        <time>2019-07-09T06:54:00Z</time>
      </trkpt>
      <trkpt lat="39.7341920" lon="-5.4147300">
        <ele>340.2</ele>
        <time>2019-07-09T06:54:01Z</time>
      </trkpt>
      <trkpt lat="39.7342140" lon="-5.4147010">
        <ele>340.2</ele>
        <time>2019-07-09T06:54:02Z</time>
      </trkpt>
      <trkpt lat="39.7343920" lon="-5.4144460">
        <ele>339.8</ele>
        <time>2019-07-09T06:54:09Z</time>
      </trkpt>
      <trkpt lat="39.7346250" lon="-5.4141620">
        <ele>340.0</ele>
        <time>2019-07-09T06:54:17Z</time>
      </trkpt>
      <trkpt lat="39.7347220" lon="-5.4140400">
        <ele>340.0</ele>
        <time>2019-07-09T06:54:21Z</time>
      </trkpt>
      <trkpt lat="39.7348250" lon="-5.4139320">
        <ele>340.0</ele>
        <time>2019-07-09T06:54:25Z</time>
      </trkpt>
      <trkpt lat="39.7349420" lon="-5.4138010">
        <ele>339.6</ele>
        <time>2019-07-09T06:54:29Z</time>
      </trkpt>
      <trkpt lat="39.7350240" lon="-5.4136930">
        <ele>339.4</ele>
        <time>2019-07-09T06:54:32Z</time>
      </trkpt>
      <trkpt lat="39.7350580" lon="-5.4136570">
        <ele>339.4</ele>
        <time>2019-07-09T06:54:33Z</time>
      </trkpt>
      <trkpt lat="39.7350950" lon="-5.4136220">
        <ele>339.4</ele>
        <time>2019-07-09T06:54:34Z</time>
      </trkpt>
      <trkpt lat="39.7351770" lon="-5.4135570">
        <ele>339.0</ele>
        <time>2019-07-09T06:54:36Z</time>
      </trkpt>
      <trkpt lat="39.7352240" lon="-5.4135320">
        <ele>339.0</ele>
        <time>2019-07-09T06:54:37Z</time>
      </trkpt>
      <trkpt lat="39.7353230" lon="-5.4134870">
        <ele>338.8</ele>
        <time>2019-07-09T06:54:39Z</time>
      </trkpt>
      <trkpt lat="39.7354200" lon="-5.4134300">
        <ele>338.6</ele>
        <time>2019-07-09T06:54:41Z</time>
      </trkpt>
      <trkpt lat="39.7354680" lon="-5.4134030">
        <ele>338.4</ele>
        <time>2019-07-09T06:54:42Z</time>
      </trkpt>
      <trkpt lat="39.7355170" lon="-5.4133810">
        <ele>338.4</ele>
        <time>2019-07-09T06:54:43Z</time>
      </trkpt>
      <trkpt lat="39.7357350" lon="-5.4133160">
        <ele>338.6</ele>
        <time>2019-07-09T06:54:48Z</time>
      </trkpt>
      <trkpt lat="39.7358420" lon="-5.4132880">
        <ele>338.8</ele>
        <time>2019-07-09T06:54:51Z</time>
      </trkpt>
      <trkpt lat="39.7358850" lon="-5.4132750">
        <ele>338.8</ele>
        <time>2019-07-09T06:54:53Z</time>
      </trkpt>
      <trkpt lat="39.7359050" lon="-5.4132670">
        <ele>339.0</ele>
        <time>2019-07-09T06:54:57Z</time>
      </trkpt>
      <trkpt lat="39.7359050" lon="-5.4132670">
        <ele>339.0</ele>
        <time>2019-07-09T06:54:58Z</time>
      </trkpt>
      <trkpt lat="39.7359200" lon="-5.4133100">
        <ele>338.8</ele>
        <time>2019-07-09T06:55:03Z</time>
      </trkpt>
      <trkpt lat="39.7359370" lon="-5.4133520">
        <ele>339.0</ele>
        <time>2019-07-09T06:55:05Z</time>
      </trkpt>
      <trkpt lat="39.7359700" lon="-5.4134350">
        <ele>339.4</ele>
        <time>2019-07-09T06:55:08Z</time>
      </trkpt>
      <trkpt lat="39.7359950" lon="-5.4135010">
        <ele>339.8</ele>
        <time>2019-07-09T06:55:10Z</time>
      </trkpt>
      <trkpt lat="39.7360090" lon="-5.4135370">
        <ele>339.8</ele>
        <time>2019-07-09T06:55:11Z</time>
      </trkpt>
      <trkpt lat="39.7360570" lon="-5.4136440">
        <ele>340.2</ele>
        <time>2019-07-09T06:55:14Z</time>
      </trkpt>
      <trkpt lat="39.7360750" lon="-5.4136780">
        <ele>340.4</ele>
        <time>2019-07-09T06:55:15Z</time>
      </trkpt>
      <trkpt lat="39.7361380" lon="-5.4138220">
        <ele>341.4</ele>
        <time>2019-07-09T06:55:19Z</time>
      </trkpt>
      <trkpt lat="39.7361540" lon="-5.4138570">
        <ele>341.6</ele>
        <time>2019-07-09T06:55:20Z</time>
      </trkpt>
      <trkpt lat="39.7362000" lon="-5.4139630">
        <ele>342.0</ele>
        <time>2019-07-09T06:55:23Z</time>
      </trkpt>
      <trkpt lat="39.7362280" lon="-5.4140280">
        <ele>342.2</ele>
        <time>2019-07-09T06:55:25Z</time>
      </trkpt>
      <trkpt lat="39.7362500" lon="-5.4140940">
        <ele>342.6</ele>
        <time>2019-07-09T06:55:27Z</time>
      </trkpt>
      <trkpt lat="39.7362790" lon="-5.4141560">
        <ele>343.4</ele>
        <time>2019-07-09T06:55:29Z</time>
      </trkpt>
      <trkpt lat="39.7362930" lon="-5.4141870">
        <ele>343.6</ele>
        <time>2019-07-09T06:55:30Z</time>
      </trkpt>
      <trkpt lat="39.7363220" lon="-5.4142470">
        <ele>344.0</ele>
        <time>2019-07-09T06:55:32Z</time>
      </trkpt>
      <trkpt lat="39.7363520" lon="-5.4143030">
        <ele>344.6</ele>
        <time>2019-07-09T06:55:34Z</time>
      </trkpt>
      <trkpt lat="39.7363690" lon="-5.4143280">
        <ele>344.8</ele>
        <time>2019-07-09T06:55:35Z</time>
      </trkpt>
      <trkpt lat="39.7364250" lon="-5.4143910">
        <ele>345.4</ele>
        <time>2019-07-09T06:55:38Z</time>
      </trkpt>
      <trkpt lat="39.7364940" lon="-5.4144360">
        <ele>346.0</ele>
        <time>2019-07-09T06:55:41Z</time>
      </trkpt>
      <trkpt lat="39.7365470" lon="-5.4144630">
        <ele>346.8</ele>
        <time>2019-07-09T06:55:43Z</time>
      </trkpt>
      <trkpt lat="39.7365980" lon="-5.4144910">
        <ele>346.8</ele>
        <time>2019-07-09T06:55:45Z</time>
      </trkpt>
      <trkpt lat="39.7367200" lon="-5.4145520">
        <ele>347.8</ele>
        <time>2019-07-09T06:55:50Z</time>
      </trkpt>
      <trkpt lat="39.7367440" lon="-5.4145630">
        <ele>348.0</ele>
        <time>2019-07-09T06:55:51Z</time>
      </trkpt>
      <trkpt lat="39.7367860" lon="-5.4145860">
        <ele>348.6</ele>
        <time>2019-07-09T06:55:53Z</time>
      </trkpt>
      <trkpt lat="39.7368280" lon="-5.4146080">
        <ele>349.2</ele>
        <time>2019-07-09T06:55:55Z</time>
      </trkpt>
      <trkpt lat="39.7368720" lon="-5.4146250">
        <ele>350.2</ele>
        <time>2019-07-09T06:55:57Z</time>
      </trkpt>
      <trkpt lat="39.7369340" lon="-5.4146580">
        <ele>351.6</ele>
        <time>2019-07-09T06:56:00Z</time>
      </trkpt>
      <trkpt lat="39.7369720" lon="-5.4146890">
        <ele>352.0</ele>
        <time>2019-07-09T06:56:02Z</time>
      </trkpt>
      <trkpt lat="39.7370330" lon="-5.4147360">
        <ele>352.6</ele>
        <time>2019-07-09T06:56:05Z</time>
      </trkpt>
      <trkpt lat="39.7371080" lon="-5.4148230">
        <ele>353.6</ele>
        <time>2019-07-09T06:56:09Z</time>
      </trkpt>
      <trkpt lat="39.7372360" lon="-5.4150530">
        <ele>354.4</ele>
        <time>2019-07-09T06:56:16Z</time>
      </trkpt>
      <trkpt lat="39.7373380" lon="-5.4153380">
        <ele>354.0</ele>
        <time>2019-07-09T06:56:21Z</time>
      </trkpt>
      <trkpt lat="39.7374490" lon="-5.4156110">
        <ele>353.4</ele>
        <time>2019-07-09T06:56:26Z</time>
      </trkpt>
      <trkpt lat="39.7374670" lon="-5.4156650">
        <ele>353.4</ele>
        <time>2019-07-09T06:56:27Z</time>
      </trkpt>
      <trkpt lat="39.7374880" lon="-5.4158920">
        <ele>353.6</ele>
        <time>2019-07-09T06:56:31Z</time>
      </trkpt>
      <trkpt lat="39.7374900" lon="-5.4159440">
        <ele>353.8</ele>
        <time>2019-07-09T06:56:32Z</time>
      </trkpt>
      <trkpt lat="39.7375010" lon="-5.4160760">
        <ele>354.6</ele>
        <time>2019-07-09T06:56:35Z</time>
      </trkpt>
      <trkpt lat="39.7375190" lon="-5.4162480">
        <ele>355.6</ele>
        <time>2019-07-09T06:56:39Z</time>
      </trkpt>
      <trkpt lat="39.7375240" lon="-5.4162930">
        <ele>356.0</ele>
        <time>2019-07-09T06:56:40Z</time>
      </trkpt>
      <trkpt lat="39.7375680" lon="-5.4165760">
        <ele>356.6</ele>
        <time>2019-07-09T06:56:46Z</time>
      </trkpt>
      <trkpt lat="39.7375830" lon="-5.4166590">
        <ele>357.0</ele>
        <time>2019-07-09T06:56:48Z</time>
      </trkpt>
      <trkpt lat="39.7375980" lon="-5.4167760">
        <ele>357.8</ele>
        <time>2019-07-09T06:56:51Z</time>
      </trkpt>
      <trkpt lat="39.7376040" lon="-5.4169100">
        <ele>358.0</ele>
        <time>2019-07-09T06:56:54Z</time>
      </trkpt>
      <trkpt lat="39.7375570" lon="-5.4171250">
        <ele>358.2</ele>
        <time>2019-07-09T06:56:59Z</time>
      </trkpt>
      <trkpt lat="39.7374510" lon="-5.4173530">
        <ele>359.2</ele>
        <time>2019-07-09T06:57:05Z</time>
      </trkpt>
      <trkpt lat="39.7374390" lon="-5.4174000">
        <ele>359.2</ele>
        <time>2019-07-09T06:57:06Z</time>
      </trkpt>
      <trkpt lat="39.7374270" lon="-5.4176190">
        <ele>359.4</ele>
        <time>2019-07-09T06:57:11Z</time>
      </trkpt>
      <trkpt lat="39.7374250" lon="-5.4177710">
        <ele>360.4</ele>
        <time>2019-07-09T06:57:15Z</time>
      </trkpt>
      <trkpt lat="39.7374200" lon="-5.4179620">
        <ele>361.6</ele>
        <time>2019-07-09T06:57:20Z</time>
      </trkpt>
      <trkpt lat="39.7374740" lon="-5.4181940">
        <ele>362.0</ele>
        <time>2019-07-09T06:57:26Z</time>
      </trkpt>
      <trkpt lat="39.7375200" lon="-5.4182460">
        <ele>362.4</ele>
        <time>2019-07-09T06:57:28Z</time>
      </trkpt>
      <trkpt lat="39.7376260" lon="-5.4183760">
        <ele>363.2</ele>
        <time>2019-07-09T06:57:32Z</time>
      </trkpt>
      <trkpt lat="39.7377140" lon="-5.4185720">
        <ele>363.2</ele>
        <time>2019-07-09T06:57:36Z</time>
      </trkpt>
      <trkpt lat="39.7377320" lon="-5.4186260">
        <ele>363.2</ele>
        <time>2019-07-09T06:57:37Z</time>
      </trkpt>
      <trkpt lat="39.7377570" lon="-5.4187300">
        <ele>363.2</ele>
        <time>2019-07-09T06:57:39Z</time>
      </trkpt>
      <trkpt lat="39.7377660" lon="-5.4187820">
        <ele>363.4</ele>
        <time>2019-07-09T06:57:40Z</time>
      </trkpt>
      <trkpt lat="39.7377760" lon="-5.4188320">
        <ele>363.6</ele>
        <time>2019-07-09T06:57:41Z</time>
      </trkpt>
      <trkpt lat="39.7377940" lon="-5.4189300">
        <ele>363.8</ele>
        <time>2019-07-09T06:57:43Z</time>
      </trkpt>
      <trkpt lat="39.7378240" lon="-5.4191150">
        <ele>364.6</ele>
        <time>2019-07-09T06:57:47Z</time>
      </trkpt>
      <trkpt lat="39.7378510" lon="-5.4193510">
        <ele>365.4</ele>
        <time>2019-07-09T06:57:52Z</time>
      </trkpt>
      <trkpt lat="39.7378530" lon="-5.4194980">
        <ele>365.8</ele>
        <time>2019-07-09T06:57:55Z</time>
      </trkpt>
      <trkpt lat="39.7378670" lon="-5.4196890">
        <ele>366.2</ele>
        <time>2019-07-09T06:57:59Z</time>
      </trkpt>
      <trkpt lat="39.7378850" lon="-5.4198480">
        <ele>367.2</ele>
        <time>2019-07-09T06:58:03Z</time>
      </trkpt>
      <trkpt lat="39.7379050" lon="-5.4199560">
        <ele>367.8</ele>
        <time>2019-07-09T06:58:06Z</time>
      </trkpt>
      <trkpt lat="39.7379180" lon="-5.4200270">
        <ele>368.2</ele>
        <time>2019-07-09T06:58:08Z</time>
      </trkpt>
      <trkpt lat="39.7379420" lon="-5.4201750">
        <ele>369.2</ele>
        <time>2019-07-09T06:58:12Z</time>
      </trkpt>
      <trkpt lat="39.7379610" lon="-5.4202920">
        <ele>369.8</ele>
        <time>2019-07-09T06:58:15Z</time>
      </trkpt>
      <trkpt lat="39.7379710" lon="-5.4203690">
        <ele>370.4</ele>
        <time>2019-07-09T06:58:17Z</time>
      </trkpt>
      <trkpt lat="39.7379630" lon="-5.4205750">
        <ele>370.6</ele>
        <time>2019-07-09T06:58:22Z</time>
      </trkpt>
      <trkpt lat="39.7379130" lon="-5.4207330">
        <ele>371.4</ele>
        <time>2019-07-09T06:58:26Z</time>
      </trkpt>
      <trkpt lat="39.7378650" lon="-5.4208460">
        <ele>371.8</ele>
        <time>2019-07-09T06:58:29Z</time>
      </trkpt>
      <trkpt lat="39.7378130" lon="-5.4209480">
        <ele>372.6</ele>
        <time>2019-07-09T06:58:32Z</time>
      </trkpt>
      <trkpt lat="39.7377250" lon="-5.4210720">
        <ele>373.4</ele>
        <time>2019-07-09T06:58:36Z</time>
      </trkpt>
      <trkpt lat="39.7377020" lon="-5.4211030">
        <ele>373.8</ele>
        <time>2019-07-09T06:58:37Z</time>
      </trkpt>
      <trkpt lat="39.7375940" lon="-5.4212510">
        <ele>374.8</ele>
        <time>2019-07-09T06:58:42Z</time>
      </trkpt>
      <trkpt lat="39.7374990" lon="-5.4213700">
        <ele>375.6</ele>
        <time>2019-07-09T06:58:46Z</time>
      </trkpt>
      <trkpt lat="39.7374550" lon="-5.4214400">
        <ele>375.8</ele>
        <time>2019-07-09T06:58:48Z</time>
      </trkpt>
      <trkpt lat="39.7374320" lon="-5.4215370">
        <ele>376.4</ele>
        <time>2019-07-09T06:58:50Z</time>
      </trkpt>
      <trkpt lat="39.7374270" lon="-5.4215930">
        <ele>376.4</ele>
        <time>2019-07-09T06:58:51Z</time>
      </trkpt>
      <trkpt lat="39.7374340" lon="-5.4217500">
        <ele>376.6</ele>
        <time>2019-07-09T06:58:54Z</time>
      </trkpt>
      <trkpt lat="39.7374580" lon="-5.4218960">
        <ele>376.8</ele>
        <time>2019-07-09T06:58:57Z</time>
      </trkpt>
      <trkpt lat="39.7374780" lon="-5.4219950">
        <ele>377.0</ele>
        <time>2019-07-09T06:58:59Z</time>
      </trkpt>
      <trkpt lat="39.7374930" lon="-5.4222120">
        <ele>377.2</ele>
        <time>2019-07-09T06:59:03Z</time>
      </trkpt>
      <trkpt lat="39.7374900" lon="-5.4222660">
        <ele>377.2</ele>
        <time>2019-07-09T06:59:04Z</time>
      </trkpt>
      <trkpt lat="39.7374860" lon="-5.4224230">
        <ele>377.6</ele>
        <time>2019-07-09T06:59:07Z</time>
      </trkpt>
      <trkpt lat="39.7374920" lon="-5.4225290">
        <ele>378.0</ele>
        <time>2019-07-09T06:59:09Z</time>
      </trkpt>
      <trkpt lat="39.7374980" lon="-5.4226270">
        <ele>378.0</ele>
        <time>2019-07-09T06:59:11Z</time>
      </trkpt>
      <trkpt lat="39.7375240" lon="-5.4228980">
        <ele>379.2</ele>
        <time>2019-07-09T06:59:17Z</time>
      </trkpt>
      <trkpt lat="39.7375340" lon="-5.4229760">
        <ele>379.6</ele>
        <time>2019-07-09T06:59:19Z</time>
      </trkpt>
      <trkpt lat="39.7375500" lon="-5.4230870">
        <ele>380.4</ele>
        <time>2019-07-09T06:59:22Z</time>
      </trkpt>
      <trkpt lat="39.7375660" lon="-5.4231900">
        <ele>381.0</ele>
        <time>2019-07-09T06:59:25Z</time>
      </trkpt>
      <trkpt lat="39.7375710" lon="-5.4232280">
        <ele>381.2</ele>
        <time>2019-07-09T06:59:26Z</time>
      </trkpt>
      <trkpt lat="39.7375760" lon="-5.4232640">
        <ele>381.4</ele>
        <time>2019-07-09T06:59:27Z</time>
      </trkpt>
      <trkpt lat="39.7375900" lon="-5.4233710">
        <ele>382.4</ele>
        <time>2019-07-09T06:59:30Z</time>
      </trkpt>
      <trkpt lat="39.7375970" lon="-5.4234770">
        <ele>383.2</ele>
        <time>2019-07-09T06:59:33Z</time>
      </trkpt>
      <trkpt lat="39.7376060" lon="-5.4235440">
        <ele>383.6</ele>
        <time>2019-07-09T06:59:35Z</time>
      </trkpt>
      <trkpt lat="39.7376210" lon="-5.4236410">
        <ele>384.6</ele>
        <time>2019-07-09T06:59:38Z</time>
      </trkpt>
      <trkpt lat="39.7376340" lon="-5.4237440">
        <ele>385.4</ele>
        <time>2019-07-09T06:59:41Z</time>
      </trkpt>
      <trkpt lat="39.7376410" lon="-5.4238120">
        <ele>386.0</ele>
        <time>2019-07-09T06:59:43Z</time>
      </trkpt>
      <trkpt lat="39.7376530" lon="-5.4239070">
        <ele>387.0</ele>
        <time>2019-07-09T06:59:46Z</time>
      </trkpt>
      <trkpt lat="39.7376720" lon="-5.4240290">
        <ele>388.2</ele>
        <time>2019-07-09T06:59:50Z</time>
      </trkpt>
      <trkpt lat="39.7376790" lon="-5.4241250">
        <ele>389.4</ele>
        <time>2019-07-09T06:59:53Z</time>
      </trkpt>
      <trkpt lat="39.7376940" lon="-5.4242190">
        <ele>390.8</ele>
        <time>2019-07-09T06:59:56Z</time>
      </trkpt>
      <trkpt lat="39.7377090" lon="-5.4243100">
        <ele>391.8</ele>
        <time>2019-07-09T06:59:59Z</time>
      </trkpt>
      <trkpt lat="39.7377390" lon="-5.4244220">
        <ele>392.8</ele>
        <time>2019-07-09T07:00:03Z</time>
      </trkpt>
      <trkpt lat="39.7377860" lon="-5.4245320">
        <ele>393.8</ele>
        <time>2019-07-09T07:00:07Z</time>
      </trkpt>
      <trkpt lat="39.7377960" lon="-5.4245620">
        <ele>394.0</ele>
        <time>2019-07-09T07:00:08Z</time>
      </trkpt>
      <trkpt lat="39.7378480" lon="-5.4247790">
        <ele>395.0</ele>
        <time>2019-07-09T07:00:15Z</time>
      </trkpt>
      <trkpt lat="39.7378570" lon="-5.4248390">
        <ele>396.2</ele>
        <time>2019-07-09T07:00:17Z</time>
      </trkpt>
      <trkpt lat="39.7378720" lon="-5.4249520">
        <ele>397.6</ele>
        <time>2019-07-09T07:00:21Z</time>
      </trkpt>
      <trkpt lat="39.7378830" lon="-5.4250370">
        <ele>398.8</ele>
        <time>2019-07-09T07:00:24Z</time>
      </trkpt>
      <trkpt lat="39.7378940" lon="-5.4251210">
        <ele>399.8</ele>
        <time>2019-07-09T07:00:27Z</time>
      </trkpt>
      <trkpt lat="39.7379020" lon="-5.4252300">
        <ele>401.2</ele>
        <time>2019-07-09T07:00:31Z</time>
      </trkpt>
      <trkpt lat="39.7379050" lon="-5.4252570">
        <ele>401.6</ele>
        <time>2019-07-09T07:00:32Z</time>
      </trkpt>
      <trkpt lat="39.7379110" lon="-5.4253100">
        <ele>402.2</ele>
        <time>2019-07-09T07:00:34Z</time>
      </trkpt>
      <trkpt lat="39.7379250" lon="-5.4254150">
        <ele>403.2</ele>
        <time>2019-07-09T07:00:38Z</time>
      </trkpt>
      <trkpt lat="39.7379360" lon="-5.4254940">
        <ele>404.2</ele>
        <time>2019-07-09T07:00:41Z</time>
      </trkpt>
      <trkpt lat="39.7379400" lon="-5.4255210">
        <ele>404.4</ele>
        <time>2019-07-09T07:00:42Z</time>
      </trkpt>
      <trkpt lat="39.7379530" lon="-5.4256530">
        <ele>405.4</ele>
        <time>2019-07-09T07:00:47Z</time>
      </trkpt>
      <trkpt lat="39.7379580" lon="-5.4257370">
        <ele>406.2</ele>
        <time>2019-07-09T07:00:50Z</time>
      </trkpt>
      <trkpt lat="39.7379590" lon="-5.4257660">
        <ele>406.6</ele>
        <time>2019-07-09T07:00:51Z</time>
      </trkpt>
      <trkpt lat="39.7379530" lon="-5.4258500">
        <ele>407.6</ele>
        <time>2019-07-09T07:00:54Z</time>
      </trkpt>
      <trkpt lat="39.7379400" lon="-5.4259350">
        <ele>408.8</ele>
        <time>2019-07-09T07:00:57Z</time>
      </trkpt>
      <trkpt lat="39.7379350" lon="-5.4259930">
        <ele>409.6</ele>
        <time>2019-07-09T07:00:59Z</time>
      </trkpt>
      <trkpt lat="39.7379350" lon="-5.4260170">
        <ele>410.2</ele>
        <time>2019-07-09T07:01:00Z</time>
      </trkpt>
      <trkpt lat="39.7379340" lon="-5.4260820">
        <ele>411.4</ele>
        <time>2019-07-09T07:01:03Z</time>
      </trkpt>
      <trkpt lat="39.7379350" lon="-5.4261060">
        <ele>411.6</ele>
        <time>2019-07-09T07:01:04Z</time>
      </trkpt>
      <trkpt lat="39.7379370" lon="-5.4261560">
        <ele>412.4</ele>
        <time>2019-07-09T07:01:06Z</time>
      </trkpt>
      <trkpt lat="39.7379410" lon="-5.4262580">
        <ele>413.8</ele>
        <time>2019-07-09T07:01:10Z</time>
      </trkpt>
      <trkpt lat="39.7379480" lon="-5.4263340">
        <ele>415.0</ele>
        <time>2019-07-09T07:01:13Z</time>
      </trkpt>
      <trkpt lat="39.7379530" lon="-5.4263590">
        <ele>415.4</ele>
        <time>2019-07-09T07:01:14Z</time>
      </trkpt>
      <trkpt lat="39.7379630" lon="-5.4264080">
        <ele>416.2</ele>
        <time>2019-07-09T07:01:16Z</time>
      </trkpt>
      <trkpt lat="39.7379770" lon="-5.4264870">
        <ele>417.4</ele>
        <time>2019-07-09T07:01:19Z</time>
      </trkpt>
      <trkpt lat="39.7379890" lon="-5.4265400">
        <ele>418.0</ele>
        <time>2019-07-09T07:01:21Z</time>
      </trkpt>
      <trkpt lat="39.7379940" lon="-5.4265860">
        <ele>418.6</ele>
        <time>2019-07-09T07:01:23Z</time>
      </trkpt>
      <trkpt lat="39.7380090" lon="-5.4267090">
        <ele>419.6</ele>
        <time>2019-07-09T07:01:28Z</time>
      </trkpt>
      <trkpt lat="39.7380160" lon="-5.4267320">
        <ele>419.8</ele>
        <time>2019-07-09T07:01:29Z</time>
      </trkpt>
      <trkpt lat="39.7380290" lon="-5.4269030">
        <ele>420.6</ele>
        <time>2019-07-09T07:01:35Z</time>
      </trkpt>
      <trkpt lat="39.7380340" lon="-5.4269350">
        <ele>420.8</ele>
        <time>2019-07-09T07:01:36Z</time>
      </trkpt>
      <trkpt lat="39.7380570" lon="-5.4271020">
        <ele>421.0</ele>
        <time>2019-07-09T07:01:41Z</time>
      </trkpt>
      <trkpt lat="39.7380640" lon="-5.4272360">
        <ele>421.6</ele>
        <time>2019-07-09T07:01:45Z</time>
      </trkpt>
      <trkpt lat="39.7380550" lon="-5.4274050">
        <ele>422.8</ele>
        <time>2019-07-09T07:01:50Z</time>
      </trkpt>
      <trkpt lat="39.7380370" lon="-5.4275210">
        <ele>423.2</ele>
        <time>2019-07-09T07:01:53Z</time>
      </trkpt>
      <trkpt lat="39.7379820" lon="-5.4276850">
        <ele>424.0</ele>
        <time>2019-07-09T07:01:57Z</time>
      </trkpt>
      <trkpt lat="39.7379540" lon="-5.4277210">
        <ele>424.2</ele>
        <time>2019-07-09T07:01:58Z</time>
      </trkpt>
      <trkpt lat="39.7379200" lon="-5.4277520">
        <ele>424.4</ele>
        <time>2019-07-09T07:01:59Z</time>
      </trkpt>
      <trkpt lat="39.7377590" lon="-5.4278490">
        <ele>424.4</ele>
        <time>2019-07-09T07:02:03Z</time>
      </trkpt>
      <trkpt lat="39.7376100" lon="-5.4279290">
        <ele>424.6</ele>
        <time>2019-07-09T07:02:07Z</time>
      </trkpt>
      <trkpt lat="39.7375540" lon="-5.4279750">
        <ele>425.0</ele>
        <time>2019-07-09T07:02:09Z</time>
      </trkpt>
      <trkpt lat="39.7375310" lon="-5.4279950">
        <ele>425.2</ele>
        <time>2019-07-09T07:02:10Z</time>
      </trkpt>
      <trkpt lat="39.7374690" lon="-5.4280620">
        <ele>425.6</ele>
        <time>2019-07-09T07:02:13Z</time>
      </trkpt>
      <trkpt lat="39.7374250" lon="-5.4281260">
        <ele>425.8</ele>
        <time>2019-07-09T07:02:15Z</time>
      </trkpt>
      <trkpt lat="39.7373400" lon="-5.4283140">
        <ele>425.8</ele>
        <time>2019-07-09T07:02:19Z</time>
      </trkpt>
      <trkpt lat="39.7373220" lon="-5.4283790">
        <ele>425.6</ele>
        <time>2019-07-09T07:02:20Z</time>
      </trkpt>
      <trkpt lat="39.7372790" lon="-5.4285810">
        <ele>425.0</ele>
        <time>2019-07-09T07:02:23Z</time>
      </trkpt>
      <trkpt lat="39.7372680" lon="-5.4286490">
        <ele>425.0</ele>
        <time>2019-07-09T07:02:24Z</time>
      </trkpt>
      <trkpt lat="39.7372510" lon="-5.4287150">
        <ele>424.8</ele>
        <time>2019-07-09T07:02:25Z</time>
      </trkpt>
      <trkpt lat="39.7372300" lon="-5.4287800">
        <ele>424.8</ele>
        <time>2019-07-09T07:02:26Z</time>
      </trkpt>
      <trkpt lat="39.7372000" lon="-5.4289150">
        <ele>424.4</ele>
        <time>2019-07-09T07:02:28Z</time>
      </trkpt>
      <trkpt lat="39.7372010" lon="-5.4290460">
        <ele>424.2</ele>
        <time>2019-07-09T07:02:30Z</time>
      </trkpt>
      <trkpt lat="39.7372230" lon="-5.4291570">
        <ele>424.2</ele>
        <time>2019-07-09T07:02:32Z</time>
      </trkpt>
      <trkpt lat="39.7372350" lon="-5.4292120">
        <ele>424.0</ele>
        <time>2019-07-09T07:02:33Z</time>
      </trkpt>
      <trkpt lat="39.7372420" lon="-5.4293210">
        <ele>424.2</ele>
        <time>2019-07-09T07:02:35Z</time>
      </trkpt>
      <trkpt lat="39.7372180" lon="-5.4296130">
        <ele>425.2</ele>
        <time>2019-07-09T07:02:41Z</time>
      </trkpt>
      <trkpt lat="39.7372160" lon="-5.4296580">
        <ele>425.4</ele>
        <time>2019-07-09T07:02:42Z</time>
      </trkpt>
      <trkpt lat="39.7372360" lon="-5.4298100">
        <ele>426.2</ele>
        <time>2019-07-09T07:02:46Z</time>
      </trkpt>
      <trkpt lat="39.7372490" lon="-5.4298380">
        <ele>426.4</ele>
        <time>2019-07-09T07:02:47Z</time>
      </trkpt>
      <trkpt lat="39.7372870" lon="-5.4298850">
        <ele>427.0</ele>
        <time>2019-07-09T07:02:49Z</time>
      </trkpt>
      <trkpt lat="39.7373240" lon="-5.4299140">
        <ele>427.0</ele>
        <time>2019-07-09T07:02:51Z</time>
      </trkpt>
      <trkpt lat="39.7373430" lon="-5.4299230">
        <ele>427.2</ele>
        <time>2019-07-09T07:02:52Z</time>
      </trkpt>
      <trkpt lat="39.7373620" lon="-5.4299320">
        <ele>427.6</ele>
        <time>2019-07-09T07:02:53Z</time>
      </trkpt>
      <trkpt lat="39.7374200" lon="-5.4299700">
        <ele>428.4</ele>
        <time>2019-07-09T07:02:56Z</time>
      </trkpt>
      <trkpt lat="39.7374550" lon="-5.4299970">
        <ele>429.4</ele>
        <time>2019-07-09T07:02:58Z</time>
      </trkpt>
      <trkpt lat="39.7374700" lon="-5.4300090">
        <ele>429.6</ele>
        <time>2019-07-09T07:02:59Z</time>
      </trkpt>
      <trkpt lat="39.7375020" lon="-5.4300360">
        <ele>430.2</ele>
        <time>2019-07-09T07:03:01Z</time>
      </trkpt>
      <trkpt lat="39.7375330" lon="-5.4300700">
        <ele>430.8</ele>
        <time>2019-07-09T07:03:03Z</time>
      </trkpt>
      <trkpt lat="39.7375620" lon="-5.4301060">
        <ele>431.8</ele>
        <time>2019-07-09T07:03:05Z</time>
      </trkpt>
      <trkpt lat="39.7376070" lon="-5.4301650">
        <ele>433.0</ele>
        <time>2019-07-09T07:03:08Z</time>
      </trkpt>
      <trkpt lat="39.7376200" lon="-5.4301890">
        <ele>433.2</ele>
        <time>2019-07-09T07:03:09Z</time>
      </trkpt>
      <trkpt lat="39.7376600" lon="-5.4302810">
        <ele>434.2</ele>
        <time>2019-07-09T07:03:12Z</time>
      </trkpt>
      <trkpt lat="39.7376920" lon="-5.4304110">
        <ele>434.0</ele>
        <time>2019-07-09T07:03:15Z</time>
      </trkpt>
      <trkpt lat="39.7377160" lon="-5.4306070">
        <ele>433.0</ele>
        <time>2019-07-09T07:03:18Z</time>
      </trkpt>
      <trkpt lat="39.7377160" lon="-5.4306800">
        <ele>432.6</ele>
        <time>2019-07-09T07:03:19Z</time>
      </trkpt>
      <trkpt lat="39.7377040" lon="-5.4308270">
        <ele>431.4</ele>
        <time>2019-07-09T07:03:21Z</time>
      </trkpt>
      <trkpt lat="39.7376570" lon="-5.4309710">
        <ele>430.8</ele>
        <time>2019-07-09T07:03:23Z</time>
      </trkpt>
      <trkpt lat="39.7376260" lon="-5.4310390">
        <ele>430.4</ele>
        <time>2019-07-09T07:03:24Z</time>
      </trkpt>
      <trkpt lat="39.7375560" lon="-5.4311700">
        <ele>429.6</ele>
        <time>2019-07-09T07:03:26Z</time>
      </trkpt>
      <trkpt lat="39.7375230" lon="-5.4312320">
        <ele>429.2</ele>
        <time>2019-07-09T07:03:27Z</time>
      </trkpt>
      <trkpt lat="39.7374630" lon="-5.4313540">
        <ele>428.2</ele>
        <time>2019-07-09T07:03:29Z</time>
      </trkpt>
      <trkpt lat="39.7374060" lon="-5.4314620">
        <ele>427.4</ele>
        <time>2019-07-09T07:03:31Z</time>
      </trkpt>
      <trkpt lat="39.7373880" lon="-5.4315170">
        <ele>427.2</ele>
        <time>2019-07-09T07:03:32Z</time>
      </trkpt>
      <trkpt lat="39.7373830" lon="-5.4315690">
        <ele>426.8</ele>
        <time>2019-07-09T07:03:33Z</time>
      </trkpt>
      <trkpt lat="39.7373900" lon="-5.4316140">
        <ele>426.6</ele>
        <time>2019-07-09T07:03:34Z</time>
      </trkpt>
      <trkpt lat="39.7374350" lon="-5.4316760">
        <ele>426.2</ele>
        <time>2019-07-09T07:03:36Z</time>
      </trkpt>
      <trkpt lat="39.7374670" lon="-5.4317030">
        <ele>426.2</ele>
        <time>2019-07-09T07:03:37Z</time>
      </trkpt>
      <trkpt lat="39.7376190" lon="-5.4318360">
        <ele>426.0</ele>
        <time>2019-07-09T07:03:41Z</time>
      </trkpt>
      <trkpt lat="39.7376610" lon="-5.4318770">
        <ele>425.8</ele>
        <time>2019-07-09T07:03:42Z</time>
      </trkpt>
      <trkpt lat="39.7377020" lon="-5.4319180">
        <ele>425.8</ele>
        <time>2019-07-09T07:03:43Z</time>
      </trkpt>
      <trkpt lat="39.7377400" lon="-5.4319590">
        <ele>425.6</ele>
        <time>2019-07-09T07:03:44Z</time>
      </trkpt>
      <trkpt lat="39.7378730" lon="-5.4320840">
        <ele>425.8</ele>
        <time>2019-07-09T07:03:48Z</time>
      </trkpt>
      <trkpt lat="39.7379880" lon="-5.4321560">
        <ele>425.6</ele>
        <time>2019-07-09T07:03:51Z</time>
      </trkpt>
      <trkpt lat="39.7380580" lon="-5.4322470">
        <ele>425.6</ele>
        <time>2019-07-09T07:03:53Z</time>
      </trkpt>
      <trkpt lat="39.7381930" lon="-5.4325290">
        <ele>424.4</ele>
        <time>2019-07-09T07:03:57Z</time>
      </trkpt>
      <trkpt lat="39.7382430" lon="-5.4327000">
        <ele>423.8</ele>
        <time>2019-07-09T07:03:59Z</time>
      </trkpt>
      <trkpt lat="39.7382760" lon="-5.4328620">
        <ele>422.8</ele>
        <time>2019-07-09T07:04:01Z</time>
      </trkpt>
      <trkpt lat="39.7382810" lon="-5.4329380">
        <ele>422.6</ele>
        <time>2019-07-09T07:04:02Z</time>
      </trkpt>
      <trkpt lat="39.7382410" lon="-5.4331410">
        <ele>421.6</ele>
        <time>2019-07-09T07:04:05Z</time>
      </trkpt>
      <trkpt lat="39.7382140" lon="-5.4332080">
        <ele>421.4</ele>
        <time>2019-07-09T07:04:06Z</time>
      </trkpt>
      <trkpt lat="39.7381460" lon="-5.4333500">
        <ele>420.4</ele>
        <time>2019-07-09T07:04:08Z</time>
      </trkpt>
      <trkpt lat="39.7380720" lon="-5.4335160">
        <ele>418.8</ele>
        <time>2019-07-09T07:04:10Z</time>
      </trkpt>
      <trkpt lat="39.7380220" lon="-5.4337660">
        <ele>418.0</ele>
        <time>2019-07-09T07:04:13Z</time>
      </trkpt>
      <trkpt lat="39.7379780" lon="-5.4338970">
        <ele>418.0</ele>
        <time>2019-07-09T07:04:15Z</time>
      </trkpt>
      <trkpt lat="39.7379540" lon="-5.4339590">
        <ele>418.2</ele>
        <time>2019-07-09T07:04:16Z</time>
      </trkpt>
      <trkpt lat="39.7379110" lon="-5.4340810">
        <ele>418.6</ele>
        <time>2019-07-09T07:04:18Z</time>
      </trkpt>
      <trkpt lat="39.7378880" lon="-5.4341350">
        <ele>418.6</ele>
        <time>2019-07-09T07:04:19Z</time>
      </trkpt>
      <trkpt lat="39.7378050" lon="-5.4342670">
        <ele>419.0</ele>
        <time>2019-07-09T07:04:22Z</time>
      </trkpt>
      <trkpt lat="39.7378140" lon="-5.4344140">
        <ele>419.6</ele>
        <time>2019-07-09T07:04:25Z</time>
      </trkpt>
      <trkpt lat="39.7378870" lon="-5.4344450">
        <ele>419.8</ele>
        <time>2019-07-09T07:04:27Z</time>
      </trkpt>
      <trkpt lat="39.7379280" lon="-5.4344370">
        <ele>420.0</ele>
        <time>2019-07-09T07:04:28Z</time>
      </trkpt>
      <trkpt lat="39.7379720" lon="-5.4344250">
        <ele>420.2</ele>
        <time>2019-07-09T07:04:29Z</time>
      </trkpt>
      <trkpt lat="39.7380590" lon="-5.4344070">
        <ele>420.2</ele>
        <time>2019-07-09T07:04:31Z</time>
      </trkpt>
      <trkpt lat="39.7382000" lon="-5.4343940">
        <ele>420.2</ele>
        <time>2019-07-09T07:04:34Z</time>
      </trkpt>
      <trkpt lat="39.7383270" lon="-5.4343860">
        <ele>420.8</ele>
        <time>2019-07-09T07:04:37Z</time>
      </trkpt>
      <trkpt lat="39.7383660" lon="-5.4343800">
        <ele>421.0</ele>
        <time>2019-07-09T07:04:38Z</time>
      </trkpt>
      <trkpt lat="39.7384070" lon="-5.4343730">
        <ele>421.2</ele>
        <time>2019-07-09T07:04:39Z</time>
      </trkpt>
      <trkpt lat="39.7385620" lon="-5.4343380">
        <ele>422.2</ele>
        <time>2019-07-09T07:04:43Z</time>
      </trkpt>
      <trkpt lat="39.7386700" lon="-5.4343180">
        <ele>422.8</ele>
        <time>2019-07-09T07:04:46Z</time>
      </trkpt>
      <trkpt lat="39.7388220" lon="-5.4342700">
        <ele>423.2</ele>
        <time>2019-07-09T07:04:50Z</time>
      </trkpt>
      <trkpt lat="39.7388610" lon="-5.4342320">
        <ele>423.2</ele>
        <time>2019-07-09T07:04:51Z</time>
      </trkpt>
      <trkpt lat="39.7390670" lon="-5.4340220">
        <ele>421.0</ele>
        <time>2019-07-09T07:04:55Z</time>
      </trkpt>
      <trkpt lat="39.7392000" lon="-5.4339590">
        <ele>420.0</ele>
        <time>2019-07-09T07:04:58Z</time>
      </trkpt>
      <trkpt lat="39.7392800" lon="-5.4340080">
        <ele>420.6</ele>
        <time>2019-07-09T07:05:01Z</time>
      </trkpt>
      <trkpt lat="39.7393220" lon="-5.4340720">
        <ele>421.0</ele>
        <time>2019-07-09T07:05:03Z</time>
      </trkpt>
      <trkpt lat="39.7393970" lon="-5.4341990">
        <ele>421.0</ele>
        <time>2019-07-09T07:05:06Z</time>
      </trkpt>
      <trkpt lat="39.7394300" lon="-5.4342610">
        <ele>421.0</ele>
        <time>2019-07-09T07:05:07Z</time>
      </trkpt>
      <trkpt lat="39.7394840" lon="-5.4343920">
        <ele>420.6</ele>
        <time>2019-07-09T07:05:09Z</time>
      </trkpt>
      <trkpt lat="39.7395050" lon="-5.4344480">
        <ele>420.4</ele>
        <time>2019-07-09T07:05:10Z</time>
      </trkpt>
      <trkpt lat="39.7395840" lon="-5.4346290">
        <ele>421.2</ele>
        <time>2019-07-09T07:05:15Z</time>
      </trkpt>
      <trkpt lat="39.7396120" lon="-5.4346750">
        <ele>422.0</ele>
        <time>2019-07-09T07:05:17Z</time>
      </trkpt>
      <trkpt lat="39.7396460" lon="-5.4347470">
        <ele>423.0</ele>
        <time>2019-07-09T07:05:20Z</time>
      </trkpt>
      <trkpt lat="39.7396770" lon="-5.4348140">
        <ele>424.0</ele>
        <time>2019-07-09T07:05:23Z</time>
      </trkpt>
      <trkpt lat="39.7396850" lon="-5.4348360">
        <ele>424.4</ele>
        <time>2019-07-09T07:05:24Z</time>
      </trkpt>
      <trkpt lat="39.7397130" lon="-5.4349070">
        <ele>425.6</ele>
        <time>2019-07-09T07:05:27Z</time>
      </trkpt>
      <trkpt lat="39.7397350" lon="-5.4349550">
        <ele>426.6</ele>
        <time>2019-07-09T07:05:29Z</time>
      </trkpt>
      <trkpt lat="39.7397510" lon="-5.4350060">
        <ele>427.2</ele>
        <time>2019-07-09T07:05:31Z</time>
      </trkpt>
      <trkpt lat="39.7397680" lon="-5.4350550">
        <ele>427.8</ele>
        <time>2019-07-09T07:05:33Z</time>
      </trkpt>
      <trkpt lat="39.7397960" lon="-5.4351220">
        <ele>429.0</ele>
        <time>2019-07-09T07:05:36Z</time>
      </trkpt>
      <trkpt lat="39.7398120" lon="-5.4351680">
        <ele>429.6</ele>
        <time>2019-07-09T07:05:38Z</time>
      </trkpt>
      <trkpt lat="39.7398310" lon="-5.4352150">
        <ele>430.0</ele>
        <time>2019-07-09T07:05:40Z</time>
      </trkpt>
      <trkpt lat="39.7398780" lon="-5.4353050">
        <ele>431.0</ele>
        <time>2019-07-09T07:05:44Z</time>
      </trkpt>
      <trkpt lat="39.7398890" lon="-5.4353280">
        <ele>431.2</ele>
        <time>2019-07-09T07:05:45Z</time>
      </trkpt>
      <trkpt lat="39.7399130" lon="-5.4353710">
        <ele>432.0</ele>
        <time>2019-07-09T07:05:47Z</time>
      </trkpt>
      <trkpt lat="39.7399400" lon="-5.4354100">
        <ele>432.4</ele>
        <time>2019-07-09T07:05:49Z</time>
      </trkpt>
      <trkpt lat="39.7399910" lon="-5.4354900">
        <ele>433.6</ele>
        <time>2019-07-09T07:05:53Z</time>
      </trkpt>
      <trkpt lat="39.7400320" lon="-5.4355480">
        <ele>434.6</ele>
        <time>2019-07-09T07:05:56Z</time>
      </trkpt>
      <trkpt lat="39.7400740" lon="-5.4356050">
        <ele>435.8</ele>
        <time>2019-07-09T07:05:59Z</time>
      </trkpt>
      <trkpt lat="39.7401380" lon="-5.4356730">
        <ele>437.0</ele>
        <time>2019-07-09T07:06:03Z</time>
      </trkpt>
      <trkpt lat="39.7401520" lon="-5.4356920">
        <ele>437.0</ele>
        <time>2019-07-09T07:06:04Z</time>
      </trkpt>
      <trkpt lat="39.7401960" lon="-5.4357490">
        <ele>438.2</ele>
        <time>2019-07-09T07:06:07Z</time>
      </trkpt>
      <trkpt lat="39.7402480" lon="-5.4358110">
        <ele>439.0</ele>
        <time>2019-07-09T07:06:10Z</time>
      </trkpt>
      <trkpt lat="39.7402650" lon="-5.4358350">
        <ele>439.4</ele>
        <time>2019-07-09T07:06:11Z</time>
      </trkpt>
      <trkpt lat="39.7403810" lon="-5.4359760">
        <ele>440.0</ele>
        <time>2019-07-09T07:06:17Z</time>
      </trkpt>
      <trkpt lat="39.7404400" lon="-5.4360830">
        <ele>440.4</ele>
        <time>2019-07-09T07:06:20Z</time>
      </trkpt>
      <trkpt lat="39.7404880" lon="-5.4361620">
        <ele>440.6</ele>
        <time>2019-07-09T07:06:22Z</time>
      </trkpt>
      <trkpt lat="39.7405810" lon="-5.4363060">
        <ele>440.4</ele>
        <time>2019-07-09T07:06:25Z</time>
      </trkpt>
      <trkpt lat="39.7406650" lon="-5.4364030">
        <ele>440.0</ele>
        <time>2019-07-09T07:06:27Z</time>
      </trkpt>
      <trkpt lat="39.7407440" lon="-5.4364410">
        <ele>439.8</ele>
        <time>2019-07-09T07:06:29Z</time>
      </trkpt>
      <trkpt lat="39.7407710" lon="-5.4364450">
        <ele>439.8</ele>
        <time>2019-07-09T07:06:30Z</time>
      </trkpt>
      <trkpt lat="39.7408030" lon="-5.4364580">
        <ele>439.6</ele>
        <time>2019-07-09T07:06:32Z</time>
      </trkpt>
      <trkpt lat="39.7408190" lon="-5.4364680">
        <ele>439.6</ele>
        <time>2019-07-09T07:06:34Z</time>
      </trkpt>
      <trkpt lat="39.7408190" lon="-5.4364690">
        <ele>439.6</ele>
        <time>2019-07-09T07:06:35Z</time>
      </trkpt>
      <trkpt lat="39.7408480" lon="-5.4365080">
        <ele>439.8</ele>
        <time>2019-07-09T07:06:44Z</time>
      </trkpt>
      <trkpt lat="39.7408630" lon="-5.4365150">
        <ele>440.0</ele>
        <time>2019-07-09T07:06:45Z</time>
      </trkpt>
      <trkpt lat="39.7408800" lon="-5.4365240">
        <ele>439.8</ele>
        <time>2019-07-09T07:06:46Z</time>
      </trkpt>
      <trkpt lat="39.7409070" lon="-5.4365560">
        <ele>440.6</ele>
        <time>2019-07-09T07:06:50Z</time>
      </trkpt>
      <trkpt lat="39.7415180" lon="-5.4382980">
        <ele>479.8</ele>
        <time>2019-07-09T07:13:34Z</time>
      </trkpt>
      <trkpt lat="39.7415390" lon="-5.4383220">
        <ele>479.8</ele>
        <time>2019-07-09T07:13:36Z</time>
      </trkpt>
      <trkpt lat="39.7416540" lon="-5.4383070">
        <ele>479.4</ele>
        <time>2019-07-09T07:13:41Z</time>
      </trkpt>
      <trkpt lat="39.7417140" lon="-5.4383090">
        <ele>479.4</ele>
        <time>2019-07-09T07:13:43Z</time>
      </trkpt>
      <trkpt lat="39.7417710" lon="-5.4383150">
        <ele>478.8</ele>
        <time>2019-07-09T07:13:45Z</time>
      </trkpt>
      <trkpt lat="39.7418150" lon="-5.4383310">
        <ele>478.4</ele>
        <time>2019-07-09T07:13:47Z</time>
      </trkpt>
      <trkpt lat="39.7419300" lon="-5.4384360">
        <ele>478.2</ele>
        <time>2019-07-09T07:13:54Z</time>
      </trkpt>
      <trkpt lat="39.7419420" lon="-5.4384440">
        <ele>477.6</ele>
        <time>2019-07-09T07:13:57Z</time>
      </trkpt>
      <trkpt lat="39.7419850" lon="-5.4384720">
        <ele>476.6</ele>
        <time>2019-07-09T07:14:19Z</time>
      </trkpt>
      <trkpt lat="39.7420770" lon="-5.4385460">
        <ele>475.2</ele>
        <time>2019-07-09T07:14:24Z</time>
      </trkpt>
      <trkpt lat="39.7421270" lon="-5.4385870">
        <ele>474.6</ele>
        <time>2019-07-09T07:14:26Z</time>
      </trkpt>
      <trkpt lat="39.7421840" lon="-5.4386320">
        <ele>474.0</ele>
        <time>2019-07-09T07:14:28Z</time>
      </trkpt>
      <trkpt lat="39.7422470" lon="-5.4386720">
        <ele>473.8</ele>
        <time>2019-07-09T07:14:31Z</time>
      </trkpt>
      <trkpt lat="39.7423490" lon="-5.4387090">
        <ele>473.8</ele>
        <time>2019-07-09T07:14:37Z</time>
      </trkpt>
      <trkpt lat="39.7424280" lon="-5.4387090">
        <ele>472.6</ele>
        <time>2019-07-09T07:14:40Z</time>
      </trkpt>
      <trkpt lat="39.7424990" lon="-5.4387010">
        <ele>471.2</ele>
        <time>2019-07-09T07:14:43Z</time>
      </trkpt>
      <trkpt lat="39.7425200" lon="-5.4386910">
        <ele>470.8</ele>
        <time>2019-07-09T07:14:44Z</time>
      </trkpt>
      <trkpt lat="39.7425590" lon="-5.4386700">
        <ele>470.0</ele>
        <time>2019-07-09T07:14:46Z</time>
      </trkpt>
      <trkpt lat="39.7426260" lon="-5.4386320">
        <ele>468.8</ele>
        <time>2019-07-09T07:14:49Z</time>
      </trkpt>
      <trkpt lat="39.7426550" lon="-5.4386120">
        <ele>468.4</ele>
        <time>2019-07-09T07:14:50Z</time>
      </trkpt>
      <trkpt lat="39.7426790" lon="-5.4385920">
        <ele>467.8</ele>
        <time>2019-07-09T07:14:51Z</time>
      </trkpt>
      <trkpt lat="39.7427190" lon="-5.4385600">
        <ele>466.8</ele>
        <time>2019-07-09T07:14:53Z</time>
      </trkpt>
      <trkpt lat="39.7427520" lon="-5.4385330">
        <ele>466.2</ele>
        <time>2019-07-09T07:14:55Z</time>
      </trkpt>
      <trkpt lat="39.7428010" lon="-5.4385000">
        <ele>465.6</ele>
        <time>2019-07-09T07:14:58Z</time>
      </trkpt>
      <trkpt lat="39.7428630" lon="-5.4384670">
        <ele>465.0</ele>
        <time>2019-07-09T07:15:01Z</time>
      </trkpt>
      <trkpt lat="39.7429060" lon="-5.4384460">
        <ele>464.4</ele>
        <time>2019-07-09T07:15:03Z</time>
      </trkpt>
      <trkpt lat="39.7429910" lon="-5.4384040">
        <ele>463.0</ele>
        <time>2019-07-09T07:15:07Z</time>
      </trkpt>
      <trkpt lat="39.7430910" lon="-5.4383280">
        <ele>461.8</ele>
        <time>2019-07-09T07:15:11Z</time>
      </trkpt>
      <trkpt lat="39.7431420" lon="-5.4382840">
        <ele>461.0</ele>
        <time>2019-07-09T07:15:13Z</time>
      </trkpt>
      <trkpt lat="39.7431600" lon="-5.4382680">
        <ele>460.8</ele>
        <time>2019-07-09T07:15:14Z</time>
      </trkpt>
      <trkpt lat="39.7432600" lon="-5.4382060">
        <ele>459.4</ele>
        <time>2019-07-09T07:15:19Z</time>
      </trkpt>
      <trkpt lat="39.7433650" lon="-5.4381630">
        <ele>459.0</ele>
        <time>2019-07-09T07:15:24Z</time>
      </trkpt>
      <trkpt lat="39.7433900" lon="-5.4381550">
        <ele>459.0</ele>
        <time>2019-07-09T07:15:25Z</time>
      </trkpt>
      <trkpt lat="39.7435100" lon="-5.4381370">
        <ele>459.0</ele>
        <time>2019-07-09T07:15:30Z</time>
      </trkpt>
      <trkpt lat="39.7435300" lon="-5.4381580">
        <ele>458.8</ele>
        <time>2019-07-09T07:15:31Z</time>
      </trkpt>
      <trkpt lat="39.7436060" lon="-5.4383290">
        <ele>459.0</ele>
        <time>2019-07-09T07:15:37Z</time>
      </trkpt>
      <trkpt lat="39.7436580" lon="-5.4383860">
        <ele>459.0</ele>
        <time>2019-07-09T07:15:40Z</time>
      </trkpt>
      <trkpt lat="39.7436840" lon="-5.4384070">
        <ele>459.0</ele>
        <time>2019-07-09T07:15:41Z</time>
      </trkpt>
      <trkpt lat="39.7437120" lon="-5.4384310">
        <ele>459.0</ele>
        <time>2019-07-09T07:15:42Z</time>
      </trkpt>
      <trkpt lat="39.7438380" lon="-5.4385550">
        <ele>458.2</ele>
        <time>2019-07-09T07:15:46Z</time>
      </trkpt>
      <trkpt lat="39.7438700" lon="-5.4385830">
        <ele>458.0</ele>
        <time>2019-07-09T07:15:47Z</time>
      </trkpt>
      <trkpt lat="39.7439540" lon="-5.4386630">
        <ele>458.0</ele>
        <time>2019-07-09T07:15:50Z</time>
      </trkpt>
      <trkpt lat="39.7440320" lon="-5.4387530">
        <ele>458.0</ele>
        <time>2019-07-09T07:15:53Z</time>
      </trkpt>
      <trkpt lat="39.7441390" lon="-5.4389020">
        <ele>457.6</ele>
        <time>2019-07-09T07:15:58Z</time>
      </trkpt>
      <trkpt lat="39.7441510" lon="-5.4389340">
        <ele>457.6</ele>
        <time>2019-07-09T07:15:59Z</time>
      </trkpt>
      <trkpt lat="39.7441770" lon="-5.4390680">
        <ele>457.6</ele>
        <time>2019-07-09T07:16:03Z</time>
      </trkpt>
      <trkpt lat="39.7441860" lon="-5.4391250">
        <ele>458.0</ele>
        <time>2019-07-09T07:16:05Z</time>
      </trkpt>
      <trkpt lat="39.7442560" lon="-5.4393130">
        <ele>458.6</ele>
        <time>2019-07-09T07:16:11Z</time>
      </trkpt>
      <trkpt lat="39.7443270" lon="-5.4394780">
        <ele>458.0</ele>
        <time>2019-07-09T07:16:16Z</time>
      </trkpt>
      <trkpt lat="39.7443440" lon="-5.4395130">
        <ele>457.8</ele>
        <time>2019-07-09T07:16:17Z</time>
      </trkpt>
      <trkpt lat="39.7443820" lon="-5.4395890">
        <ele>457.2</ele>
        <time>2019-07-09T07:16:19Z</time>
      </trkpt>
      <trkpt lat="39.7444290" lon="-5.4396550">
        <ele>456.0</ele>
        <time>2019-07-09T07:16:21Z</time>
      </trkpt>
      <trkpt lat="39.7444540" lon="-5.4396830">
        <ele>455.6</ele>
        <time>2019-07-09T07:16:22Z</time>
      </trkpt>
      <trkpt lat="39.7444990" lon="-5.4397420">
        <ele>454.8</ele>
        <time>2019-07-09T07:16:24Z</time>
      </trkpt>
      <trkpt lat="39.7445420" lon="-5.4398210">
        <ele>453.8</ele>
        <time>2019-07-09T07:16:26Z</time>
      </trkpt>
      <trkpt lat="39.7445580" lon="-5.4398750">
        <ele>453.4</ele>
        <time>2019-07-09T07:16:27Z</time>
      </trkpt>
      <trkpt lat="39.7445870" lon="-5.4399770">
        <ele>452.4</ele>
        <time>2019-07-09T07:16:29Z</time>
      </trkpt>
      <trkpt lat="39.7446200" lon="-5.4400530">
        <ele>451.2</ele>
        <time>2019-07-09T07:16:31Z</time>
      </trkpt>
      <trkpt lat="39.7446950" lon="-5.4401550">
        <ele>450.0</ele>
        <time>2019-07-09T07:16:34Z</time>
      </trkpt>
      <trkpt lat="39.7447760" lon="-5.4402340">
        <ele>449.6</ele>
        <time>2019-07-09T07:16:36Z</time>
      </trkpt>
      <trkpt lat="39.7448680" lon="-5.4402870">
        <ele>448.6</ele>
        <time>2019-07-09T07:16:38Z</time>
      </trkpt>
      <trkpt lat="39.7449290" lon="-5.4403130">
        <ele>448.4</ele>
        <time>2019-07-09T07:16:40Z</time>
      </trkpt>
      <trkpt lat="39.7449550" lon="-5.4403200">
        <ele>448.4</ele>
        <time>2019-07-09T07:16:41Z</time>
      </trkpt>
      <trkpt lat="39.7450100" lon="-5.4403290">
        <ele>448.8</ele>
        <time>2019-07-09T07:16:43Z</time>
      </trkpt>
      <trkpt lat="39.7450390" lon="-5.4403330">
        <ele>449.4</ele>
        <time>2019-07-09T07:16:44Z</time>
      </trkpt>
      <trkpt lat="39.7450680" lon="-5.4403360">
        <ele>449.6</ele>
        <time>2019-07-09T07:16:45Z</time>
      </trkpt>
      <trkpt lat="39.7450960" lon="-5.4403390">
        <ele>449.8</ele>
        <time>2019-07-09T07:16:46Z</time>
      </trkpt>
      <trkpt lat="39.7451910" lon="-5.4403280">
        <ele>450.4</ele>
        <time>2019-07-09T07:16:50Z</time>
      </trkpt>
      <trkpt lat="39.7452290" lon="-5.4402980">
        <ele>451.0</ele>
        <time>2019-07-09T07:16:52Z</time>
      </trkpt>
      <trkpt lat="39.7452780" lon="-5.4402500">
        <ele>451.6</ele>
        <time>2019-07-09T07:16:55Z</time>
      </trkpt>
      <trkpt lat="39.7452930" lon="-5.4402380">
        <ele>451.8</ele>
        <time>2019-07-09T07:16:56Z</time>
      </trkpt>
      <trkpt lat="39.7453310" lon="-5.4402350">
        <ele>452.2</ele>
        <time>2019-07-09T07:16:58Z</time>
      </trkpt>
      <trkpt lat="39.7453680" lon="-5.4402520">
        <ele>452.4</ele>
        <time>2019-07-09T07:17:00Z</time>
      </trkpt>
      <trkpt lat="39.7453900" lon="-5.4402580">
        <ele>452.4</ele>
        <time>2019-07-09T07:17:01Z</time>
      </trkpt>
      <trkpt lat="39.7455200" lon="-5.4403320">
        <ele>452.0</ele>
        <time>2019-07-09T07:17:06Z</time>
      </trkpt>
      <trkpt lat="39.7455950" lon="-5.4404090">
        <ele>451.0</ele>
        <time>2019-07-09T07:17:10Z</time>
      </trkpt>
      <trkpt lat="39.7456700" lon="-5.4404490">
        <ele>449.6</ele>
        <time>2019-07-09T07:17:12Z</time>
      </trkpt>
      <trkpt lat="39.7457100" lon="-5.4404620">
        <ele>449.0</ele>
        <time>2019-07-09T07:17:13Z</time>
      </trkpt>
      <trkpt lat="39.7457440" lon="-5.4404730">
        <ele>448.4</ele>
        <time>2019-07-09T07:17:14Z</time>
      </trkpt>
      <trkpt lat="39.7458660" lon="-5.4405100">
        <ele>447.0</ele>
        <time>2019-07-09T07:17:17Z</time>
      </trkpt>
      <trkpt lat="39.7459100" lon="-5.4405220">
        <ele>446.8</ele>
        <time>2019-07-09T07:17:18Z</time>
      </trkpt>
      <trkpt lat="39.7459950" lon="-5.4405420">
        <ele>445.6</ele>
        <time>2019-07-09T07:17:20Z</time>
      </trkpt>
      <trkpt lat="39.7460950" lon="-5.4405620">
        <ele>444.4</ele>
        <time>2019-07-09T07:17:22Z</time>
      </trkpt>
      <trkpt lat="39.7461420" lon="-5.4405730">
        <ele>443.8</ele>
        <time>2019-07-09T07:17:23Z</time>
      </trkpt>
      <trkpt lat="39.7461810" lon="-5.4405870">
        <ele>443.2</ele>
        <time>2019-07-09T07:17:24Z</time>
      </trkpt>
      <trkpt lat="39.7462570" lon="-5.4406170">
        <ele>442.0</ele>
        <time>2019-07-09T07:17:26Z</time>
      </trkpt>
      <trkpt lat="39.7463300" lon="-5.4406490">
        <ele>441.2</ele>
        <time>2019-07-09T07:17:28Z</time>
      </trkpt>
      <trkpt lat="39.7464070" lon="-5.4406690">
        <ele>440.8</ele>
        <time>2019-07-09T07:17:30Z</time>
      </trkpt>
      <trkpt lat="39.7465200" lon="-5.4407060">
        <ele>439.4</ele>
        <time>2019-07-09T07:17:33Z</time>
      </trkpt>
      <trkpt lat="39.7466160" lon="-5.4407500">
        <ele>438.0</ele>
        <time>2019-07-09T07:17:36Z</time>
      </trkpt>
      <trkpt lat="39.7466740" lon="-5.4407700">
        <ele>437.0</ele>
        <time>2019-07-09T07:17:38Z</time>
      </trkpt>
      <trkpt lat="39.7467290" lon="-5.4407800">
        <ele>435.4</ele>
        <time>2019-07-09T07:17:40Z</time>
      </trkpt>
      <trkpt lat="39.7468080" lon="-5.4408100">
        <ele>434.0</ele>
        <time>2019-07-09T07:17:43Z</time>
      </trkpt>
      <trkpt lat="39.7468320" lon="-5.4408130">
        <ele>433.4</ele>
        <time>2019-07-09T07:17:44Z</time>
      </trkpt>
      <trkpt lat="39.7468790" lon="-5.4408140">
        <ele>432.4</ele>
        <time>2019-07-09T07:17:46Z</time>
      </trkpt>
      <trkpt lat="39.7469350" lon="-5.4408010">
        <ele>431.4</ele>
        <time>2019-07-09T07:17:48Z</time>
      </trkpt>
      <trkpt lat="39.7469930" lon="-5.4407990">
        <ele>430.8</ele>
        <time>2019-07-09T07:17:50Z</time>
      </trkpt>
      <trkpt lat="39.7470230" lon="-5.4408050">
        <ele>430.2</ele>
        <time>2019-07-09T07:17:51Z</time>
      </trkpt>
      <trkpt lat="39.7470900" lon="-5.4408620">
        <ele>429.8</ele>
        <time>2019-07-09T07:17:54Z</time>
      </trkpt>
      <trkpt lat="39.7471070" lon="-5.4409480">
        <ele>430.0</ele>
        <time>2019-07-09T07:17:57Z</time>
      </trkpt>
      <trkpt lat="39.7471100" lon="-5.4410160">
        <ele>430.2</ele>
        <time>2019-07-09T07:17:59Z</time>
      </trkpt>
      <trkpt lat="39.7470620" lon="-5.4412590">
        <ele>429.6</ele>
        <time>2019-07-09T07:18:04Z</time>
      </trkpt>
      <trkpt lat="39.7470540" lon="-5.4413170">
        <ele>429.6</ele>
        <time>2019-07-09T07:18:05Z</time>
      </trkpt>
      <trkpt lat="39.7470290" lon="-5.4415530">
        <ele>429.2</ele>
        <time>2019-07-09T07:18:09Z</time>
      </trkpt>
      <trkpt lat="39.7470360" lon="-5.4417160">
        <ele>429.6</ele>
        <time>2019-07-09T07:18:12Z</time>
      </trkpt>
      <trkpt lat="39.7470520" lon="-5.4417980">
        <ele>429.8</ele>
        <time>2019-07-09T07:18:14Z</time>
      </trkpt>
      <trkpt lat="39.7470700" lon="-5.4418610">
        <ele>430.4</ele>
        <time>2019-07-09T07:18:16Z</time>
      </trkpt>
      <trkpt lat="39.7470920" lon="-5.4419410">
        <ele>431.6</ele>
        <time>2019-07-09T07:18:19Z</time>
      </trkpt>
      <trkpt lat="39.7470980" lon="-5.4419640">
        <ele>431.8</ele>
        <time>2019-07-09T07:18:20Z</time>
      </trkpt>
      <trkpt lat="39.7471110" lon="-5.4420340">
        <ele>432.4</ele>
        <time>2019-07-09T07:18:23Z</time>
      </trkpt>
      <trkpt lat="39.7471120" lon="-5.4420590">
        <ele>432.8</ele>
        <time>2019-07-09T07:18:24Z</time>
      </trkpt>
      <trkpt lat="39.7471150" lon="-5.4421030">
        <ele>433.4</ele>
        <time>2019-07-09T07:18:26Z</time>
      </trkpt>
      <trkpt lat="39.7471200" lon="-5.4421460">
        <ele>433.8</ele>
        <time>2019-07-09T07:18:28Z</time>
      </trkpt>
      <trkpt lat="39.7471610" lon="-5.4422140">
        <ele>434.6</ele>
        <time>2019-07-09T07:18:32Z</time>
      </trkpt>
      <trkpt lat="39.7471900" lon="-5.4422480">
        <ele>434.8</ele>
        <time>2019-07-09T07:18:34Z</time>
      </trkpt>
      <trkpt lat="39.7472750" lon="-5.4423320">
        <ele>435.4</ele>
        <time>2019-07-09T07:18:39Z</time>
      </trkpt>
      <trkpt lat="39.7472850" lon="-5.4423450">
        <ele>435.4</ele>
        <time>2019-07-09T07:18:42Z</time>
      </trkpt>
      <trkpt lat="39.7473030" lon="-5.4423630">
        <ele>435.4</ele>
        <time>2019-07-09T07:19:19Z</time>
      </trkpt>
      <trkpt lat="39.7473140" lon="-5.4423790">
        <ele>435.4</ele>
        <time>2019-07-09T07:19:20Z</time>
      </trkpt>
      <trkpt lat="39.7473450" lon="-5.4424180">
        <ele>435.4</ele>
        <time>2019-07-09T07:19:22Z</time>
      </trkpt>
      <trkpt lat="39.7473640" lon="-5.4424400">
        <ele>435.4</ele>
        <time>2019-07-09T07:19:23Z</time>
      </trkpt>
      <trkpt lat="39.7473870" lon="-5.4424640">
        <ele>435.4</ele>
        <time>2019-07-09T07:19:24Z</time>
      </trkpt>
      <trkpt lat="39.7475630" lon="-5.4426610">
        <ele>435.6</ele>
        <time>2019-07-09T07:19:31Z</time>
      </trkpt>
      <trkpt lat="39.7476170" lon="-5.4427330">
        <ele>435.8</ele>
        <time>2019-07-09T07:19:33Z</time>
      </trkpt>
      <trkpt lat="39.7477590" lon="-5.4429060">
        <ele>435.8</ele>
        <time>2019-07-09T07:19:38Z</time>
      </trkpt>
      <trkpt lat="39.7478950" lon="-5.4430610">
        <ele>436.4</ele>
        <time>2019-07-09T07:19:43Z</time>
      </trkpt>
      <trkpt lat="39.7479260" lon="-5.4430860">
        <ele>436.4</ele>
        <time>2019-07-09T07:19:44Z</time>
      </trkpt>
      <trkpt lat="39.7480740" lon="-5.4432610">
        <ele>437.0</ele>
        <time>2019-07-09T07:19:50Z</time>
      </trkpt>
      <trkpt lat="39.7481110" lon="-5.4433530">
        <ele>437.6</ele>
        <time>2019-07-09T07:19:53Z</time>
      </trkpt>
      <trkpt lat="39.7481190" lon="-5.4433850">
        <ele>437.8</ele>
        <time>2019-07-09T07:19:54Z</time>
      </trkpt>
      <trkpt lat="39.7481370" lon="-5.4434540">
        <ele>438.0</ele>
        <time>2019-07-09T07:19:56Z</time>
      </trkpt>
      <trkpt lat="39.7482200" lon="-5.4436760">
        <ele>437.8</ele>
        <time>2019-07-09T07:20:01Z</time>
      </trkpt>
      <trkpt lat="39.7482550" lon="-5.4437870">
        <ele>437.2</ele>
        <time>2019-07-09T07:20:03Z</time>
      </trkpt>
      <trkpt lat="39.7482610" lon="-5.4438400">
        <ele>436.8</ele>
        <time>2019-07-09T07:20:04Z</time>
      </trkpt>
      <trkpt lat="39.7482590" lon="-5.4438920">
        <ele>436.6</ele>
        <time>2019-07-09T07:20:05Z</time>
      </trkpt>
      <trkpt lat="39.7482420" lon="-5.4440460">
        <ele>435.8</ele>
        <time>2019-07-09T07:20:08Z</time>
      </trkpt>
      <trkpt lat="39.7482500" lon="-5.4440930">
        <ele>435.8</ele>
        <time>2019-07-09T07:20:09Z</time>
      </trkpt>
      <trkpt lat="39.7483070" lon="-5.4441560">
        <ele>435.6</ele>
        <time>2019-07-09T07:20:12Z</time>
      </trkpt>
      <trkpt lat="39.7483430" lon="-5.4441620">
        <ele>436.0</ele>
        <time>2019-07-09T07:20:14Z</time>
      </trkpt>
      <trkpt lat="39.7483740" lon="-5.4441590">
        <ele>436.8</ele>
        <time>2019-07-09T07:20:16Z</time>
      </trkpt>
      <trkpt lat="39.7483880" lon="-5.4441560">
        <ele>437.0</ele>
        <time>2019-07-09T07:20:17Z</time>
      </trkpt>
      <trkpt lat="39.7484170" lon="-5.4441530">
        <ele>437.6</ele>
        <time>2019-07-09T07:20:19Z</time>
      </trkpt>
      <trkpt lat="39.7484320" lon="-5.4441550">
        <ele>438.0</ele>
        <time>2019-07-09T07:20:20Z</time>
      </trkpt>
      <trkpt lat="39.7484470" lon="-5.4441570">
        <ele>438.2</ele>
        <time>2019-07-09T07:20:21Z</time>
      </trkpt>
      <trkpt lat="39.7484980" lon="-5.4441680">
        <ele>439.4</ele>
        <time>2019-07-09T07:20:24Z</time>
      </trkpt>
      <trkpt lat="39.7485500" lon="-5.4441920">
        <ele>440.0</ele>
        <time>2019-07-09T07:20:27Z</time>
      </trkpt>
      <trkpt lat="39.7485780" lon="-5.4442190">
        <ele>440.8</ele>
        <time>2019-07-09T07:20:29Z</time>
      </trkpt>
      <trkpt lat="39.7486110" lon="-5.4442700">
        <ele>441.6</ele>
        <time>2019-07-09T07:20:32Z</time>
      </trkpt>
      <trkpt lat="39.7486210" lon="-5.4442910">
        <ele>442.0</ele>
        <time>2019-07-09T07:20:33Z</time>
      </trkpt>
      <trkpt lat="39.7486290" lon="-5.4443110">
        <ele>442.2</ele>
        <time>2019-07-09T07:20:34Z</time>
      </trkpt>
      <trkpt lat="39.7486490" lon="-5.4443830">
        <ele>443.0</ele>
        <time>2019-07-09T07:20:37Z</time>
      </trkpt>
      <trkpt lat="39.7486590" lon="-5.4444310">
        <ele>443.4</ele>
        <time>2019-07-09T07:20:39Z</time>
      </trkpt>
      <trkpt lat="39.7486640" lon="-5.4444550">
        <ele>443.6</ele>
        <time>2019-07-09T07:20:40Z</time>
      </trkpt>
      <trkpt lat="39.7486690" lon="-5.4445060">
        <ele>444.2</ele>
        <time>2019-07-09T07:20:42Z</time>
      </trkpt>
      <trkpt lat="39.7486840" lon="-5.4446310">
        <ele>445.2</ele>
        <time>2019-07-09T07:20:47Z</time>
      </trkpt>
      <trkpt lat="39.7486950" lon="-5.4447980">
        <ele>446.2</ele>
        <time>2019-07-09T07:20:53Z</time>
      </trkpt>
      <trkpt lat="39.7486950" lon="-5.4448270">
        <ele>446.4</ele>
        <time>2019-07-09T07:20:54Z</time>
      </trkpt>
      <trkpt lat="39.7487030" lon="-5.4449430">
        <ele>447.2</ele>
        <time>2019-07-09T07:20:58Z</time>
      </trkpt>
      <trkpt lat="39.7486980" lon="-5.4450300">
        <ele>448.0</ele>
        <time>2019-07-09T07:21:01Z</time>
      </trkpt>
      <trkpt lat="39.7486900" lon="-5.4451250">
        <ele>448.4</ele>
        <time>2019-07-09T07:21:04Z</time>
      </trkpt>
      <trkpt lat="39.7486890" lon="-5.4452350">
        <ele>449.4</ele>
        <time>2019-07-09T07:21:08Z</time>
      </trkpt>
      <trkpt lat="39.7486590" lon="-5.4453350">
        <ele>450.4</ele>
        <time>2019-07-09T07:21:13Z</time>
      </trkpt>
      <trkpt lat="39.7486290" lon="-5.4454520">
        <ele>451.6</ele>
        <time>2019-07-09T07:21:18Z</time>
      </trkpt>
      <trkpt lat="39.7486250" lon="-5.4454840">
        <ele>451.6</ele>
        <time>2019-07-09T07:21:19Z</time>
      </trkpt>
      <trkpt lat="39.7486100" lon="-5.4457240">
        <ele>451.4</ele>
        <time>2019-07-09T07:21:25Z</time>
      </trkpt>
      <trkpt lat="39.7486040" lon="-5.4458170">
        <ele>450.8</ele>
        <time>2019-07-09T07:21:27Z</time>
      </trkpt>
      <trkpt lat="39.7486130" lon="-5.4459050">
        <ele>450.4</ele>
        <time>2019-07-09T07:21:29Z</time>
      </trkpt>
      <trkpt lat="39.7486140" lon="-5.4459560">
        <ele>450.0</ele>
        <time>2019-07-09T07:21:30Z</time>
      </trkpt>
      <trkpt lat="39.7486120" lon="-5.4460690">
        <ele>449.6</ele>
        <time>2019-07-09T07:21:32Z</time>
      </trkpt>
      <trkpt lat="39.7486060" lon="-5.4461310">
        <ele>449.2</ele>
        <time>2019-07-09T07:21:33Z</time>
      </trkpt>
      <trkpt lat="39.7485940" lon="-5.4461950">
        <ele>449.0</ele>
        <time>2019-07-09T07:21:34Z</time>
      </trkpt>
      <trkpt lat="39.7485790" lon="-5.4462570">
        <ele>448.8</ele>
        <time>2019-07-09T07:21:35Z</time>
      </trkpt>
      <trkpt lat="39.7485540" lon="-5.4463820">
        <ele>448.4</ele>
        <time>2019-07-09T07:21:37Z</time>
      </trkpt>
      <trkpt lat="39.7485440" lon="-5.4464320">
        <ele>448.2</ele>
        <time>2019-07-09T07:21:38Z</time>
      </trkpt>
      <trkpt lat="39.7485300" lon="-5.4464690">
        <ele>448.0</ele>
        <time>2019-07-09T07:21:39Z</time>
      </trkpt>
      <trkpt lat="39.7484940" lon="-5.4465290">
        <ele>448.0</ele>
        <time>2019-07-09T07:21:41Z</time>
      </trkpt>
      <trkpt lat="39.7484700" lon="-5.4466330">
        <ele>447.8</ele>
        <time>2019-07-09T07:21:44Z</time>
      </trkpt>
      <trkpt lat="39.7484790" lon="-5.4468160">
        <ele>448.0</ele>
        <time>2019-07-09T07:21:48Z</time>
      </trkpt>
      <trkpt lat="39.7484930" lon="-5.4468620">
        <ele>448.2</ele>
        <time>2019-07-09T07:21:49Z</time>
      </trkpt>
      <trkpt lat="39.7485530" lon="-5.4469810">
        <ele>448.2</ele>
        <time>2019-07-09T07:21:52Z</time>
      </trkpt>
      <trkpt lat="39.7486130" lon="-5.4470820">
        <ele>448.4</ele>
        <time>2019-07-09T07:21:55Z</time>
      </trkpt>
      <trkpt lat="39.7486860" lon="-5.4471960">
        <ele>449.2</ele>
        <time>2019-07-09T07:21:59Z</time>
      </trkpt>
      <trkpt lat="39.7487310" lon="-5.4472780">
        <ele>449.6</ele>
        <time>2019-07-09T07:22:02Z</time>
      </trkpt>
      <trkpt lat="39.7487950" lon="-5.4474040">
        <ele>449.8</ele>
        <time>2019-07-09T07:22:06Z</time>
      </trkpt>
      <trkpt lat="39.7488170" lon="-5.4474540">
        <ele>449.6</ele>
        <time>2019-07-09T07:22:07Z</time>
      </trkpt>
      <trkpt lat="39.7488690" lon="-5.4476650">
        <ele>447.8</ele>
        <time>2019-07-09T07:22:11Z</time>
      </trkpt>
      <trkpt lat="39.7488730" lon="-5.4477180">
        <ele>447.2</ele>
        <time>2019-07-09T07:22:12Z</time>
      </trkpt>
      <trkpt lat="39.7488700" lon="-5.4477730">
        <ele>446.2</ele>
        <time>2019-07-09T07:22:13Z</time>
      </trkpt>
      <trkpt lat="39.7488440" lon="-5.4478980">
        <ele>445.2</ele>
        <time>2019-07-09T07:22:15Z</time>
      </trkpt>
      <trkpt lat="39.7488130" lon="-5.4480450">
        <ele>444.2</ele>
        <time>2019-07-09T07:22:17Z</time>
      </trkpt>
      <trkpt lat="39.7487990" lon="-5.4481230">
        <ele>442.8</ele>
        <time>2019-07-09T07:22:18Z</time>
      </trkpt>
      <trkpt lat="39.7487890" lon="-5.4482040">
        <ele>441.8</ele>
        <time>2019-07-09T07:22:19Z</time>
      </trkpt>
      <trkpt lat="39.7487820" lon="-5.4482870">
        <ele>440.8</ele>
        <time>2019-07-09T07:22:20Z</time>
      </trkpt>
      <trkpt lat="39.7487760" lon="-5.4483690">
        <ele>439.2</ele>
        <time>2019-07-09T07:22:21Z</time>
      </trkpt>
      <trkpt lat="39.7487700" lon="-5.4485220">
        <ele>437.6</ele>
        <time>2019-07-09T07:22:23Z</time>
      </trkpt>
      <trkpt lat="39.7487820" lon="-5.4486700">
        <ele>436.6</ele>
        <time>2019-07-09T07:22:25Z</time>
      </trkpt>
      <trkpt lat="39.7488150" lon="-5.4488010">
        <ele>436.2</ele>
        <time>2019-07-09T07:22:27Z</time>
      </trkpt>
      <trkpt lat="39.7488370" lon="-5.4489230">
        <ele>436.8</ele>
        <time>2019-07-09T07:22:30Z</time>
      </trkpt>
      <trkpt lat="39.7488370" lon="-5.4489530">
        <ele>437.2</ele>
        <time>2019-07-09T07:22:31Z</time>
      </trkpt>
      <trkpt lat="39.7488360" lon="-5.4489800">
        <ele>437.6</ele>
        <time>2019-07-09T07:22:32Z</time>
      </trkpt>
      <trkpt lat="39.7488350" lon="-5.4490050">
        <ele>437.8</ele>
        <time>2019-07-09T07:22:33Z</time>
      </trkpt>
      <trkpt lat="39.7488270" lon="-5.4490510">
        <ele>438.4</ele>
        <time>2019-07-09T07:22:35Z</time>
      </trkpt>
      <trkpt lat="39.7488230" lon="-5.4490720">
        <ele>438.6</ele>
        <time>2019-07-09T07:22:36Z</time>
      </trkpt>
      <trkpt lat="39.7488210" lon="-5.4490960">
        <ele>439.4</ele>
        <time>2019-07-09T07:22:37Z</time>
      </trkpt>
      <trkpt lat="39.7488210" lon="-5.4491440">
        <ele>440.2</ele>
        <time>2019-07-09T07:22:39Z</time>
      </trkpt>
      <trkpt lat="39.7488170" lon="-5.4491670">
        <ele>440.6</ele>
        <time>2019-07-09T07:22:40Z</time>
      </trkpt>
      <trkpt lat="39.7487990" lon="-5.4492070">
        <ele>441.4</ele>
        <time>2019-07-09T07:22:42Z</time>
      </trkpt>
      <trkpt lat="39.7487860" lon="-5.4492240">
        <ele>441.8</ele>
        <time>2019-07-09T07:22:43Z</time>
      </trkpt>
      <trkpt lat="39.7487610" lon="-5.4492530">
        <ele>442.6</ele>
        <time>2019-07-09T07:22:45Z</time>
      </trkpt>
      <trkpt lat="39.7487480" lon="-5.4492690">
        <ele>443.2</ele>
        <time>2019-07-09T07:22:46Z</time>
      </trkpt>
      <trkpt lat="39.7487080" lon="-5.4493220">
        <ele>444.4</ele>
        <time>2019-07-09T07:22:49Z</time>
      </trkpt>
      <trkpt lat="39.7486700" lon="-5.4493820">
        <ele>445.4</ele>
        <time>2019-07-09T07:22:52Z</time>
      </trkpt>
      <trkpt lat="39.7486450" lon="-5.4494180">
        <ele>445.8</ele>
        <time>2019-07-09T07:22:54Z</time>
      </trkpt>
      <trkpt lat="39.7486230" lon="-5.4494500">
        <ele>446.4</ele>
        <time>2019-07-09T07:22:56Z</time>
      </trkpt>
      <trkpt lat="39.7486120" lon="-5.4494670">
        <ele>446.6</ele>
        <time>2019-07-09T07:22:57Z</time>
      </trkpt>
      <trkpt lat="39.7485600" lon="-5.4495300">
        <ele>447.6</ele>
        <time>2019-07-09T07:23:01Z</time>
      </trkpt>
      <trkpt lat="39.7485290" lon="-5.4495870">
        <ele>448.8</ele>
        <time>2019-07-09T07:23:04Z</time>
      </trkpt>
      <trkpt lat="39.7485150" lon="-5.4496020">
        <ele>449.0</ele>
        <time>2019-07-09T07:23:05Z</time>
      </trkpt>
      <trkpt lat="39.7484800" lon="-5.4496800">
        <ele>450.0</ele>
        <time>2019-07-09T07:23:09Z</time>
      </trkpt>
      <trkpt lat="39.7484620" lon="-5.4497190">
        <ele>450.8</ele>
        <time>2019-07-09T07:23:11Z</time>
      </trkpt>
      <trkpt lat="39.7484520" lon="-5.4497360">
        <ele>451.2</ele>
        <time>2019-07-09T07:23:12Z</time>
      </trkpt>
      <trkpt lat="39.7484180" lon="-5.4498170">
        <ele>452.4</ele>
        <time>2019-07-09T07:23:16Z</time>
      </trkpt>
      <trkpt lat="39.7484060" lon="-5.4498540">
        <ele>453.0</ele>
        <time>2019-07-09T07:23:18Z</time>
      </trkpt>
      <trkpt lat="39.7483830" lon="-5.4499110">
        <ele>453.6</ele>
        <time>2019-07-09T07:23:21Z</time>
      </trkpt>
      <trkpt lat="39.7483410" lon="-5.4500470">
        <ele>454.8</ele>
        <time>2019-07-09T07:23:27Z</time>
      </trkpt>
      <trkpt lat="39.7482830" lon="-5.4501890">
        <ele>455.8</ele>
        <time>2019-07-09T07:23:33Z</time>
      </trkpt>
      <trkpt lat="39.7482750" lon="-5.4502130">
        <ele>456.0</ele>
        <time>2019-07-09T07:23:34Z</time>
      </trkpt>
      <trkpt lat="39.7482190" lon="-5.4503520">
        <ele>457.0</ele>
        <time>2019-07-09T07:23:40Z</time>
      </trkpt>
      <trkpt lat="39.7482080" lon="-5.4503740">
        <ele>457.2</ele>
        <time>2019-07-09T07:23:41Z</time>
      </trkpt>
      <trkpt lat="39.7481650" lon="-5.4505080">
        <ele>458.0</ele>
        <time>2019-07-09T07:23:46Z</time>
      </trkpt>
      <trkpt lat="39.7481340" lon="-5.4505840">
        <ele>458.4</ele>
        <time>2019-07-09T07:23:49Z</time>
      </trkpt>
      <trkpt lat="39.7481010" lon="-5.4506580">
        <ele>459.0</ele>
        <time>2019-07-09T07:23:52Z</time>
      </trkpt>
      <trkpt lat="39.7480510" lon="-5.4507630">
        <ele>460.0</ele>
        <time>2019-07-09T07:23:56Z</time>
      </trkpt>
      <trkpt lat="39.7480250" lon="-5.4508090">
        <ele>459.8</ele>
        <time>2019-07-09T07:23:58Z</time>
      </trkpt>
      <trkpt lat="39.7480070" lon="-5.4508600">
        <ele>460.2</ele>
        <time>2019-07-09T07:24:00Z</time>
      </trkpt>
      <trkpt lat="39.7479890" lon="-5.4509510">
        <ele>461.0</ele>
        <time>2019-07-09T07:24:03Z</time>
      </trkpt>
      <trkpt lat="39.7479720" lon="-5.4510150">
        <ele>461.4</ele>
        <time>2019-07-09T07:24:05Z</time>
      </trkpt>
      <trkpt lat="39.7479190" lon="-5.4511670">
        <ele>462.0</ele>
        <time>2019-07-09T07:24:10Z</time>
      </trkpt>
      <trkpt lat="39.7478810" lon="-5.4512500">
        <ele>462.2</ele>
        <time>2019-07-09T07:24:13Z</time>
      </trkpt>
      <trkpt lat="39.7478090" lon="-5.4513510">
        <ele>463.0</ele>
        <time>2019-07-09T07:24:17Z</time>
      </trkpt>
      <trkpt lat="39.7477810" lon="-5.4514060">
        <ele>463.4</ele>
        <time>2019-07-09T07:24:19Z</time>
      </trkpt>
      <trkpt lat="39.7477640" lon="-5.4515280">
        <ele>463.8</ele>
        <time>2019-07-09T07:24:22Z</time>
      </trkpt>
      <trkpt lat="39.7477670" lon="-5.4517210">
        <ele>463.4</ele>
        <time>2019-07-09T07:24:25Z</time>
      </trkpt>
      <trkpt lat="39.7477680" lon="-5.4517880">
        <ele>463.2</ele>
        <time>2019-07-09T07:24:26Z</time>
      </trkpt>
      <trkpt lat="39.7477710" lon="-5.4518520">
        <ele>463.0</ele>
        <time>2019-07-09T07:24:27Z</time>
      </trkpt>
      <trkpt lat="39.7478170" lon="-5.4520220">
        <ele>463.0</ele>
        <time>2019-07-09T07:24:31Z</time>
      </trkpt>
      <trkpt lat="39.7478680" lon="-5.4521110">
        <ele>463.6</ele>
        <time>2019-07-09T07:24:34Z</time>
      </trkpt>
      <trkpt lat="39.7479200" lon="-5.4521990">
        <ele>464.2</ele>
        <time>2019-07-09T07:24:37Z</time>
      </trkpt>
      <trkpt lat="39.7479470" lon="-5.4522620">
        <ele>464.6</ele>
        <time>2019-07-09T07:24:39Z</time>
      </trkpt>
      <trkpt lat="39.7479870" lon="-5.4523930">
        <ele>465.8</ele>
        <time>2019-07-09T07:24:43Z</time>
      </trkpt>
      <trkpt lat="39.7479930" lon="-5.4524240">
        <ele>466.0</ele>
        <time>2019-07-09T07:24:44Z</time>
      </trkpt>
      <trkpt lat="39.7480520" lon="-5.4526570">
        <ele>466.2</ele>
        <time>2019-07-09T07:24:50Z</time>
      </trkpt>
      <trkpt lat="39.7480900" lon="-5.4528340">
        <ele>465.2</ele>
        <time>2019-07-09T07:24:53Z</time>
      </trkpt>
      <trkpt lat="39.7481020" lon="-5.4528920">
        <ele>464.6</ele>
        <time>2019-07-09T07:24:54Z</time>
      </trkpt>
      <trkpt lat="39.7481250" lon="-5.4530070">
        <ele>463.8</ele>
        <time>2019-07-09T07:24:56Z</time>
      </trkpt>
      <trkpt lat="39.7481360" lon="-5.4530630">
        <ele>463.4</ele>
        <time>2019-07-09T07:24:57Z</time>
      </trkpt>
      <trkpt lat="39.7481610" lon="-5.4531830">
        <ele>462.0</ele>
        <time>2019-07-09T07:24:59Z</time>
      </trkpt>
      <trkpt lat="39.7481830" lon="-5.4532950">
        <ele>460.4</ele>
        <time>2019-07-09T07:25:01Z</time>
      </trkpt>
      <trkpt lat="39.7481900" lon="-5.4533510">
        <ele>459.6</ele>
        <time>2019-07-09T07:25:02Z</time>
      </trkpt>
      <trkpt lat="39.7481900" lon="-5.4534110">
        <ele>458.8</ele>
        <time>2019-07-09T07:25:03Z</time>
      </trkpt>
      <trkpt lat="39.7481680" lon="-5.4535430">
        <ele>457.6</ele>
        <time>2019-07-09T07:25:05Z</time>
      </trkpt>
      <trkpt lat="39.7481450" lon="-5.4536740">
        <ele>456.0</ele>
        <time>2019-07-09T07:25:07Z</time>
      </trkpt>
      <trkpt lat="39.7481380" lon="-5.4537430">
        <ele>455.6</ele>
        <time>2019-07-09T07:25:08Z</time>
      </trkpt>
      <trkpt lat="39.7481390" lon="-5.4539660">
        <ele>455.2</ele>
        <time>2019-07-09T07:25:11Z</time>
      </trkpt>
      <trkpt lat="39.7481440" lon="-5.4540330">
        <ele>454.8</ele>
        <time>2019-07-09T07:25:12Z</time>
      </trkpt>
      <trkpt lat="39.7481550" lon="-5.4540940">
        <ele>454.4</ele>
        <time>2019-07-09T07:25:13Z</time>
      </trkpt>
      <trkpt lat="39.7482500" lon="-5.4544040">
        <ele>454.0</ele>
        <time>2019-07-09T07:25:19Z</time>
      </trkpt>
      <trkpt lat="39.7482750" lon="-5.4545300">
        <ele>454.0</ele>
        <time>2019-07-09T07:25:21Z</time>
      </trkpt>
      <trkpt lat="39.7482840" lon="-5.4546000">
        <ele>454.0</ele>
        <time>2019-07-09T07:25:22Z</time>
      </trkpt>
      <trkpt lat="39.7482960" lon="-5.4547510">
        <ele>453.6</ele>
        <time>2019-07-09T07:25:24Z</time>
      </trkpt>
      <trkpt lat="39.7483130" lon="-5.4549020">
        <ele>453.0</ele>
        <time>2019-07-09T07:25:26Z</time>
      </trkpt>
      <trkpt lat="39.7483310" lon="-5.4549640">
        <ele>452.4</ele>
        <time>2019-07-09T07:25:27Z</time>
      </trkpt>
      <trkpt lat="39.7483530" lon="-5.4550150">
        <ele>452.0</ele>
        <time>2019-07-09T07:25:28Z</time>
      </trkpt>
      <trkpt lat="39.7484300" lon="-5.4550980">
        <ele>451.6</ele>
        <time>2019-07-09T07:25:31Z</time>
      </trkpt>
      <trkpt lat="39.7484650" lon="-5.4551600">
        <ele>451.4</ele>
        <time>2019-07-09T07:25:33Z</time>
      </trkpt>
      <trkpt lat="39.7485000" lon="-5.4552500">
        <ele>451.2</ele>
        <time>2019-07-09T07:25:35Z</time>
      </trkpt>
      <trkpt lat="39.7485280" lon="-5.4553610">
        <ele>450.2</ele>
        <time>2019-07-09T07:25:37Z</time>
      </trkpt>
      <trkpt lat="39.7485450" lon="-5.4554800">
        <ele>449.0</ele>
        <time>2019-07-09T07:25:39Z</time>
      </trkpt>
      <trkpt lat="39.7485530" lon="-5.4555390">
        <ele>448.4</ele>
        <time>2019-07-09T07:25:40Z</time>
      </trkpt>
      <trkpt lat="39.7485590" lon="-5.4556020">
        <ele>448.0</ele>
        <time>2019-07-09T07:25:41Z</time>
      </trkpt>
      <trkpt lat="39.7485580" lon="-5.4556650">
        <ele>447.8</ele>
        <time>2019-07-09T07:25:42Z</time>
      </trkpt>
      <trkpt lat="39.7485570" lon="-5.4558460">
        <ele>447.0</ele>
        <time>2019-07-09T07:25:45Z</time>
      </trkpt>
      <trkpt lat="39.7485570" lon="-5.4559120">
        <ele>446.6</ele>
        <time>2019-07-09T07:25:46Z</time>
      </trkpt>
      <trkpt lat="39.7485590" lon="-5.4561400">
        <ele>445.2</ele>
        <time>2019-07-09T07:25:49Z</time>
      </trkpt>
      <trkpt lat="39.7485570" lon="-5.4562200">
        <ele>444.8</ele>
        <time>2019-07-09T07:25:50Z</time>
      </trkpt>
      <trkpt lat="39.7485600" lon="-5.4563830">
        <ele>444.2</ele>
        <time>2019-07-09T07:25:52Z</time>
      </trkpt>
      <trkpt lat="39.7485730" lon="-5.4565390">
        <ele>443.8</ele>
        <time>2019-07-09T07:25:54Z</time>
      </trkpt>
      <trkpt lat="39.7486050" lon="-5.4566830">
        <ele>443.4</ele>
        <time>2019-07-09T07:25:56Z</time>
      </trkpt>
      <trkpt lat="39.7486390" lon="-5.4568220">
        <ele>443.2</ele>
        <time>2019-07-09T07:25:58Z</time>
      </trkpt>
      <trkpt lat="39.7487280" lon="-5.4571550">
        <ele>441.8</ele>
        <time>2019-07-09T07:26:03Z</time>
      </trkpt>
      <trkpt lat="39.7488350" lon="-5.4573900">
        <ele>440.2</ele>
        <time>2019-07-09T07:26:07Z</time>
      </trkpt>
      <trkpt lat="39.7488570" lon="-5.4574350">
        <ele>439.4</ele>
        <time>2019-07-09T07:26:08Z</time>
      </trkpt>
      <trkpt lat="39.7488810" lon="-5.4574790">
        <ele>439.0</ele>
        <time>2019-07-09T07:26:09Z</time>
      </trkpt>
      <trkpt lat="39.7489400" lon="-5.4575740">
        <ele>437.6</ele>
        <time>2019-07-09T07:26:11Z</time>
      </trkpt>
      <trkpt lat="39.7489730" lon="-5.4576180">
        <ele>436.8</ele>
        <time>2019-07-09T07:26:12Z</time>
      </trkpt>
      <trkpt lat="39.7490090" lon="-5.4576560">
        <ele>436.4</ele>
        <time>2019-07-09T07:26:13Z</time>
      </trkpt>
      <trkpt lat="39.7490970" lon="-5.4577470">
        <ele>435.6</ele>
        <time>2019-07-09T07:26:15Z</time>
      </trkpt>
      <trkpt lat="39.7491460" lon="-5.4578090">
        <ele>435.2</ele>
        <time>2019-07-09T07:26:16Z</time>
      </trkpt>
      <trkpt lat="39.7491960" lon="-5.4578750">
        <ele>434.6</ele>
        <time>2019-07-09T07:26:17Z</time>
      </trkpt>
      <trkpt lat="39.7492490" lon="-5.4579340">
        <ele>433.6</ele>
        <time>2019-07-09T07:26:18Z</time>
      </trkpt>
      <trkpt lat="39.7493770" lon="-5.4580220">
        <ele>432.0</ele>
        <time>2019-07-09T07:26:20Z</time>
      </trkpt>
      <trkpt lat="39.7494470" lon="-5.4580540">
        <ele>431.6</ele>
        <time>2019-07-09T07:26:21Z</time>
      </trkpt>
      <trkpt lat="39.7495140" lon="-5.4580810">
        <ele>431.2</ele>
        <time>2019-07-09T07:26:22Z</time>
      </trkpt>
      <trkpt lat="39.7495780" lon="-5.4581040">
        <ele>431.0</ele>
        <time>2019-07-09T07:26:23Z</time>
      </trkpt>
      <trkpt lat="39.7497540" lon="-5.4581850">
        <ele>430.8</ele>
        <time>2019-07-09T07:26:26Z</time>
      </trkpt>
      <trkpt lat="39.7499200" lon="-5.4583550">
        <ele>430.0</ele>
        <time>2019-07-09T07:26:29Z</time>
      </trkpt>
      <trkpt lat="39.7499740" lon="-5.4584220">
        <ele>429.6</ele>
        <time>2019-07-09T07:26:30Z</time>
      </trkpt>
      <trkpt lat="39.7500290" lon="-5.4584830">
        <ele>429.2</ele>
        <time>2019-07-09T07:26:31Z</time>
      </trkpt>
      <trkpt lat="39.7501890" lon="-5.4585870">
        <ele>429.0</ele>
        <time>2019-07-09T07:26:34Z</time>
      </trkpt>
      <trkpt lat="39.7502350" lon="-5.4586040">
        <ele>429.0</ele>
        <time>2019-07-09T07:26:35Z</time>
      </trkpt>
      <trkpt lat="39.7503890" lon="-5.4586710">
        <ele>428.8</ele>
        <time>2019-07-09T07:26:38Z</time>
      </trkpt>
      <trkpt lat="39.7504550" lon="-5.4587000">
        <ele>428.4</ele>
        <time>2019-07-09T07:26:39Z</time>
      </trkpt>
      <trkpt lat="39.7505730" lon="-5.4587720">
        <ele>427.6</ele>
        <time>2019-07-09T07:26:41Z</time>
      </trkpt>
      <trkpt lat="39.7506170" lon="-5.4588170">
        <ele>427.4</ele>
        <time>2019-07-09T07:26:42Z</time>
      </trkpt>
      <trkpt lat="39.7507050" lon="-5.4589290">
        <ele>426.4</ele>
        <time>2019-07-09T07:26:44Z</time>
      </trkpt>
      <trkpt lat="39.7508130" lon="-5.4590690">
        <ele>425.4</ele>
        <time>2019-07-09T07:26:46Z</time>
      </trkpt>
      <trkpt lat="39.7510310" lon="-5.4592870">
        <ele>424.8</ele>
        <time>2019-07-09T07:26:50Z</time>
      </trkpt>
      <trkpt lat="39.7511350" lon="-5.4593730">
        <ele>424.6</ele>
        <time>2019-07-09T07:26:52Z</time>
      </trkpt>
      <trkpt lat="39.7512300" lon="-5.4594550">
        <ele>424.6</ele>
        <time>2019-07-09T07:26:54Z</time>
      </trkpt>
      <trkpt lat="39.7513200" lon="-5.4595330">
        <ele>424.6</ele>
        <time>2019-07-09T07:26:56Z</time>
      </trkpt>
      <trkpt lat="39.7513630" lon="-5.4595760">
        <ele>424.6</ele>
        <time>2019-07-09T07:26:57Z</time>
      </trkpt>
      <trkpt lat="39.7514750" lon="-5.4597200">
        <ele>425.0</ele>
        <time>2019-07-09T07:27:00Z</time>
      </trkpt>
      <trkpt lat="39.7515640" lon="-5.4598570">
        <ele>425.2</ele>
        <time>2019-07-09T07:27:03Z</time>
      </trkpt>
      <trkpt lat="39.7515960" lon="-5.4598940">
        <ele>425.2</ele>
        <time>2019-07-09T07:27:04Z</time>
      </trkpt>
      <trkpt lat="39.7516710" lon="-5.4599550">
        <ele>425.2</ele>
        <time>2019-07-09T07:27:06Z</time>
      </trkpt>
      <trkpt lat="39.7517580" lon="-5.4600140">
        <ele>425.2</ele>
        <time>2019-07-09T07:27:08Z</time>
      </trkpt>
      <trkpt lat="39.7521430" lon="-5.4602700">
        <ele>425.4</ele>
        <time>2019-07-09T07:27:17Z</time>
      </trkpt>
      <trkpt lat="39.7524030" lon="-5.4604160">
        <ele>426.6</ele>
        <time>2019-07-09T07:27:24Z</time>
      </trkpt>
      <trkpt lat="39.7524520" lon="-5.4604460">
        <ele>427.4</ele>
        <time>2019-07-09T07:27:26Z</time>
      </trkpt>
      <trkpt lat="39.7524740" lon="-5.4604540">
        <ele>428.0</ele>
        <time>2019-07-09T07:27:27Z</time>
      </trkpt>
      <trkpt lat="39.7525370" lon="-5.4604680">
        <ele>429.0</ele>
        <time>2019-07-09T07:27:30Z</time>
      </trkpt>
      <trkpt lat="39.7525580" lon="-5.4604750">
        <ele>429.2</ele>
        <time>2019-07-09T07:27:31Z</time>
      </trkpt>
      <trkpt lat="39.7526580" lon="-5.4605230">
        <ele>429.6</ele>
        <time>2019-07-09T07:27:35Z</time>
      </trkpt>
      <trkpt lat="39.7527210" lon="-5.4605440">
        <ele>429.6</ele>
        <time>2019-07-09T07:27:37Z</time>
      </trkpt>
      <trkpt lat="39.7528040" lon="-5.4605670">
        <ele>429.2</ele>
        <time>2019-07-09T07:27:39Z</time>
      </trkpt>
      <trkpt lat="39.7529580" lon="-5.4606200">
        <ele>428.2</ele>
        <time>2019-07-09T07:27:42Z</time>
      </trkpt>
      <trkpt lat="39.7530670" lon="-5.4606690">
        <ele>427.8</ele>
        <time>2019-07-09T07:27:44Z</time>
      </trkpt>
      <trkpt lat="39.7532630" lon="-5.4607800">
        <ele>427.6</ele>
        <time>2019-07-09T07:27:48Z</time>
      </trkpt>
      <trkpt lat="39.7533090" lon="-5.4607950">
        <ele>427.6</ele>
        <time>2019-07-09T07:27:49Z</time>
      </trkpt>
      <trkpt lat="39.7534090" lon="-5.4608130">
        <ele>427.4</ele>
        <time>2019-07-09T07:27:51Z</time>
      </trkpt>
      <trkpt lat="39.7535090" lon="-5.4608340">
        <ele>427.2</ele>
        <time>2019-07-09T07:27:53Z</time>
      </trkpt>
      <trkpt lat="39.7536680" lon="-5.4608460">
        <ele>426.8</ele>
        <time>2019-07-09T07:27:56Z</time>
      </trkpt>
      <trkpt lat="39.7538940" lon="-5.4608680">
        <ele>426.2</ele>
        <time>2019-07-09T07:28:00Z</time>
      </trkpt>
      <trkpt lat="39.7539470" lon="-5.4608780">
        <ele>425.8</ele>
        <time>2019-07-09T07:28:01Z</time>
      </trkpt>
      <trkpt lat="39.7540000" lon="-5.4608890">
        <ele>425.6</ele>
        <time>2019-07-09T07:28:02Z</time>
      </trkpt>
      <trkpt lat="39.7541130" lon="-5.4609020">
        <ele>424.6</ele>
        <time>2019-07-09T07:28:04Z</time>
      </trkpt>
      <trkpt lat="39.7542260" lon="-5.4609010">
        <ele>424.0</ele>
        <time>2019-07-09T07:28:06Z</time>
      </trkpt>
      <trkpt lat="39.7543990" lon="-5.4608910">
        <ele>423.6</ele>
        <time>2019-07-09T07:28:09Z</time>
      </trkpt>
      <trkpt lat="39.7545840" lon="-5.4608810">
        <ele>421.8</ele>
        <time>2019-07-09T07:28:12Z</time>
      </trkpt>
      <trkpt lat="39.7546460" lon="-5.4608770">
        <ele>421.6</ele>
        <time>2019-07-09T07:28:13Z</time>
      </trkpt>
      <trkpt lat="39.7547040" lon="-5.4608730">
        <ele>421.4</ele>
        <time>2019-07-09T07:28:14Z</time>
      </trkpt>
      <trkpt lat="39.7549310" lon="-5.4608660">
        <ele>420.6</ele>
        <time>2019-07-09T07:28:18Z</time>
      </trkpt>
      <trkpt lat="39.7549880" lon="-5.4608650">
        <ele>420.4</ele>
        <time>2019-07-09T07:28:19Z</time>
      </trkpt>
      <trkpt lat="39.7551950" lon="-5.4608530">
        <ele>419.6</ele>
        <time>2019-07-09T07:28:23Z</time>
      </trkpt>
      <trkpt lat="39.7552440" lon="-5.4608480">
        <ele>419.6</ele>
        <time>2019-07-09T07:28:24Z</time>
      </trkpt>
      <trkpt lat="39.7553470" lon="-5.4608310">
        <ele>418.8</ele>
        <time>2019-07-09T07:28:26Z</time>
      </trkpt>
      <trkpt lat="39.7554480" lon="-5.4608070">
        <ele>418.4</ele>
        <time>2019-07-09T07:28:28Z</time>
      </trkpt>
      <trkpt lat="39.7557090" lon="-5.4607720">
        <ele>417.0</ele>
        <time>2019-07-09T07:28:33Z</time>
      </trkpt>
      <trkpt lat="39.7559310" lon="-5.4608270">
        <ele>416.0</ele>
        <time>2019-07-09T07:28:37Z</time>
      </trkpt>
      <trkpt lat="39.7559850" lon="-5.4608470">
        <ele>415.6</ele>
        <time>2019-07-09T07:28:38Z</time>
      </trkpt>
      <trkpt lat="39.7560820" lon="-5.4608830">
        <ele>414.4</ele>
        <time>2019-07-09T07:28:40Z</time>
      </trkpt>
      <trkpt lat="39.7561280" lon="-5.4609020">
        <ele>414.2</ele>
        <time>2019-07-09T07:28:41Z</time>
      </trkpt>
      <trkpt lat="39.7562140" lon="-5.4609610">
        <ele>413.2</ele>
        <time>2019-07-09T07:28:43Z</time>
      </trkpt>
      <trkpt lat="39.7563450" lon="-5.4610770">
        <ele>412.8</ele>
        <time>2019-07-09T07:28:46Z</time>
      </trkpt>
      <trkpt lat="39.7564690" lon="-5.4612080">
        <ele>412.0</ele>
        <time>2019-07-09T07:28:49Z</time>
      </trkpt>
      <trkpt lat="39.7565080" lon="-5.4612540">
        <ele>411.6</ele>
        <time>2019-07-09T07:28:50Z</time>
      </trkpt>
      <trkpt lat="39.7565820" lon="-5.4613540">
        <ele>410.6</ele>
        <time>2019-07-09T07:28:52Z</time>
      </trkpt>
      <trkpt lat="39.7566900" lon="-5.4614960">
        <ele>409.0</ele>
        <time>2019-07-09T07:28:55Z</time>
      </trkpt>
      <trkpt lat="39.7567700" lon="-5.4615570">
        <ele>407.6</ele>
        <time>2019-07-09T07:28:57Z</time>
      </trkpt>
      <trkpt lat="39.7568170" lon="-5.4615890">
        <ele>407.0</ele>
        <time>2019-07-09T07:28:58Z</time>
      </trkpt>
      <trkpt lat="39.7568660" lon="-5.4616160">
        <ele>406.6</ele>
        <time>2019-07-09T07:28:59Z</time>
      </trkpt>
      <trkpt lat="39.7570180" lon="-5.4617030">
        <ele>404.6</ele>
        <time>2019-07-09T07:29:02Z</time>
      </trkpt>
      <trkpt lat="39.7571250" lon="-5.4617530">
        <ele>403.4</ele>
        <time>2019-07-09T07:29:04Z</time>
      </trkpt>
      <trkpt lat="39.7572280" lon="-5.4618030">
        <ele>402.4</ele>
        <time>2019-07-09T07:29:06Z</time>
      </trkpt>
      <trkpt lat="39.7573230" lon="-5.4618480">
        <ele>401.2</ele>
        <time>2019-07-09T07:29:08Z</time>
      </trkpt>
      <trkpt lat="39.7573720" lon="-5.4618620">
        <ele>400.8</ele>
        <time>2019-07-09T07:29:09Z</time>
      </trkpt>
      <trkpt lat="39.7574780" lon="-5.4618830">
        <ele>399.6</ele>
        <time>2019-07-09T07:29:11Z</time>
      </trkpt>
      <trkpt lat="39.7576490" lon="-5.4619130">
        <ele>398.4</ele>
        <time>2019-07-09T07:29:14Z</time>
      </trkpt>
      <trkpt lat="39.7577050" lon="-5.4619260">
        <ele>398.2</ele>
        <time>2019-07-09T07:29:15Z</time>
      </trkpt>
      <trkpt lat="39.7579240" lon="-5.4619830">
        <ele>397.4</ele>
        <time>2019-07-09T07:29:19Z</time>
      </trkpt>
      <trkpt lat="39.7579790" lon="-5.4619950">
        <ele>397.2</ele>
        <time>2019-07-09T07:29:20Z</time>
      </trkpt>
      <trkpt lat="39.7580900" lon="-5.4620050">
        <ele>397.0</ele>
        <time>2019-07-09T07:29:22Z</time>
      </trkpt>
      <trkpt lat="39.7582890" lon="-5.4619900">
        <ele>395.8</ele>
        <time>2019-07-09T07:29:26Z</time>
      </trkpt>
      <trkpt lat="39.7583310" lon="-5.4619910">
        <ele>395.6</ele>
        <time>2019-07-09T07:29:27Z</time>
      </trkpt>
      <trkpt lat="39.7583710" lon="-5.4620050">
        <ele>395.2</ele>
        <time>2019-07-09T07:29:28Z</time>
      </trkpt>
      <trkpt lat="39.7584150" lon="-5.4620280">
        <ele>394.4</ele>
        <time>2019-07-09T07:29:29Z</time>
      </trkpt>
      <trkpt lat="39.7584650" lon="-5.4620570">
        <ele>393.8</ele>
        <time>2019-07-09T07:29:30Z</time>
      </trkpt>
      <trkpt lat="39.7585200" lon="-5.4620930">
        <ele>393.2</ele>
        <time>2019-07-09T07:29:31Z</time>
      </trkpt>
      <trkpt lat="39.7585790" lon="-5.4621260">
        <ele>392.6</ele>
        <time>2019-07-09T07:29:32Z</time>
      </trkpt>
      <trkpt lat="39.7586910" lon="-5.4621640">
        <ele>391.8</ele>
        <time>2019-07-09T07:29:34Z</time>
      </trkpt>
      <trkpt lat="39.7588470" lon="-5.4621980">
        <ele>390.6</ele>
        <time>2019-07-09T07:29:37Z</time>
      </trkpt>
      <trkpt lat="39.7589540" lon="-5.4622290">
        <ele>389.2</ele>
        <time>2019-07-09T07:29:39Z</time>
      </trkpt>
      <trkpt lat="39.7590090" lon="-5.4622470">
        <ele>388.8</ele>
        <time>2019-07-09T07:29:40Z</time>
      </trkpt>
      <trkpt lat="39.7591180" lon="-5.4622700">
        <ele>388.2</ele>
        <time>2019-07-09T07:29:42Z</time>
      </trkpt>
      <trkpt lat="39.7591770" lon="-5.4622730">
        <ele>387.2</ele>
        <time>2019-07-09T07:29:43Z</time>
      </trkpt>
      <trkpt lat="39.7592380" lon="-5.4622650">
        <ele>386.4</ele>
        <time>2019-07-09T07:29:44Z</time>
      </trkpt>
      <trkpt lat="39.7592990" lon="-5.4622510">
        <ele>385.8</ele>
        <time>2019-07-09T07:29:45Z</time>
      </trkpt>
      <trkpt lat="39.7593570" lon="-5.4622330">
        <ele>385.0</ele>
        <time>2019-07-09T07:29:46Z</time>
      </trkpt>
      <trkpt lat="39.7594150" lon="-5.4622100">
        <ele>384.6</ele>
        <time>2019-07-09T07:29:47Z</time>
      </trkpt>
      <trkpt lat="39.7595250" lon="-5.4621640">
        <ele>383.8</ele>
        <time>2019-07-09T07:29:49Z</time>
      </trkpt>
      <trkpt lat="39.7596210" lon="-5.4621290">
        <ele>383.0</ele>
        <time>2019-07-09T07:29:51Z</time>
      </trkpt>
      <trkpt lat="39.7596650" lon="-5.4621220">
        <ele>382.4</ele>
        <time>2019-07-09T07:29:52Z</time>
      </trkpt>
      <trkpt lat="39.7598010" lon="-5.4621410">
        <ele>381.0</ele>
        <time>2019-07-09T07:29:55Z</time>
      </trkpt>
      <trkpt lat="39.7598400" lon="-5.4621660">
        <ele>380.4</ele>
        <time>2019-07-09T07:29:56Z</time>
      </trkpt>
      <trkpt lat="39.7598740" lon="-5.4622020">
        <ele>379.8</ele>
        <time>2019-07-09T07:29:57Z</time>
      </trkpt>
      <trkpt lat="39.7599680" lon="-5.4623740">
        <ele>378.6</ele>
        <time>2019-07-09T07:30:00Z</time>
      </trkpt>
      <trkpt lat="39.7600020" lon="-5.4624560">
        <ele>378.0</ele>
        <time>2019-07-09T07:30:01Z</time>
      </trkpt>
      <trkpt lat="39.7600330" lon="-5.4625490">
        <ele>376.8</ele>
        <time>2019-07-09T07:30:02Z</time>
      </trkpt>
      <trkpt lat="39.7600630" lon="-5.4626460">
        <ele>375.8</ele>
        <time>2019-07-09T07:30:03Z</time>
      </trkpt>
      <trkpt lat="39.7600930" lon="-5.4627380">
        <ele>375.0</ele>
        <time>2019-07-09T07:30:04Z</time>
      </trkpt>
      <trkpt lat="39.7601250" lon="-5.4628170">
        <ele>374.2</ele>
        <time>2019-07-09T07:30:05Z</time>
      </trkpt>
      <trkpt lat="39.7602570" lon="-5.4630360">
        <ele>372.8</ele>
        <time>2019-07-09T07:30:08Z</time>
      </trkpt>
      <trkpt lat="39.7603030" lon="-5.4631130">
        <ele>371.6</ele>
        <time>2019-07-09T07:30:09Z</time>
      </trkpt>
      <trkpt lat="39.7603460" lon="-5.4632020">
        <ele>370.6</ele>
        <time>2019-07-09T07:30:10Z</time>
      </trkpt>
      <trkpt lat="39.7603870" lon="-5.4633010">
        <ele>369.2</ele>
        <time>2019-07-09T07:30:11Z</time>
      </trkpt>
      <trkpt lat="39.7604280" lon="-5.4633980">
        <ele>368.2</ele>
        <time>2019-07-09T07:30:12Z</time>
      </trkpt>
      <trkpt lat="39.7604670" lon="-5.4634880">
        <ele>366.6</ele>
        <time>2019-07-09T07:30:13Z</time>
      </trkpt>
      <trkpt lat="39.7605030" lon="-5.4635680">
        <ele>364.4</ele>
        <time>2019-07-09T07:30:14Z</time>
      </trkpt>
      <trkpt lat="39.7605340" lon="-5.4636420">
        <ele>363.0</ele>
        <time>2019-07-09T07:30:15Z</time>
      </trkpt>
      <trkpt lat="39.7605660" lon="-5.4637160">
        <ele>362.2</ele>
        <time>2019-07-09T07:30:16Z</time>
      </trkpt>
      <trkpt lat="39.7606030" lon="-5.4637930">
        <ele>361.4</ele>
        <time>2019-07-09T07:30:17Z</time>
      </trkpt>
      <trkpt lat="39.7606800" lon="-5.4639520">
        <ele>359.2</ele>
        <time>2019-07-09T07:30:19Z</time>
      </trkpt>
      <trkpt lat="39.7607160" lon="-5.4640270">
        <ele>358.2</ele>
        <time>2019-07-09T07:30:20Z</time>
      </trkpt>
      <trkpt lat="39.7607860" lon="-5.4641790">
        <ele>357.2</ele>
        <time>2019-07-09T07:30:22Z</time>
      </trkpt>
      <trkpt lat="39.7608780" lon="-5.4643930">
        <ele>355.8</ele>
        <time>2019-07-09T07:30:25Z</time>
      </trkpt>
      <trkpt lat="39.7609380" lon="-5.4645220">
        <ele>354.2</ele>
        <time>2019-07-09T07:30:27Z</time>
      </trkpt>
      <trkpt lat="39.7609670" lon="-5.4645790">
        <ele>353.4</ele>
        <time>2019-07-09T07:30:28Z</time>
      </trkpt>
      <trkpt lat="39.7609950" lon="-5.4646300">
        <ele>352.8</ele>
        <time>2019-07-09T07:30:29Z</time>
      </trkpt>
      <trkpt lat="39.7610560" lon="-5.4646910">
        <ele>352.6</ele>
        <time>2019-07-09T07:30:31Z</time>
      </trkpt>
      <trkpt lat="39.7610930" lon="-5.4646960">
        <ele>352.4</ele>
        <time>2019-07-09T07:30:32Z</time>
      </trkpt>
      <trkpt lat="39.7611300" lon="-5.4646860">
        <ele>351.8</ele>
        <time>2019-07-09T07:30:33Z</time>
      </trkpt>
      <trkpt lat="39.7612450" lon="-5.4646430">
        <ele>351.0</ele>
        <time>2019-07-09T07:30:36Z</time>
      </trkpt>
      <trkpt lat="39.7613310" lon="-5.4646540">
        <ele>350.4</ele>
        <time>2019-07-09T07:30:38Z</time>
      </trkpt>
      <trkpt lat="39.7613760" lon="-5.4646680">
        <ele>350.4</ele>
        <time>2019-07-09T07:30:39Z</time>
      </trkpt>
      <trkpt lat="39.7614640" lon="-5.4647040">
        <ele>350.2</ele>
        <time>2019-07-09T07:30:41Z</time>
      </trkpt>
      <trkpt lat="39.7615930" lon="-5.4646920">
        <ele>350.4</ele>
        <time>2019-07-09T07:30:44Z</time>
      </trkpt>
      <trkpt lat="39.7616880" lon="-5.4646900">
        <ele>350.4</ele>
        <time>2019-07-09T07:30:47Z</time>
      </trkpt>
      <trkpt lat="39.7617230" lon="-5.4647100">
        <ele>350.0</ele>
        <time>2019-07-09T07:30:48Z</time>
      </trkpt>
      <trkpt lat="39.7617620" lon="-5.4647270">
        <ele>349.8</ele>
        <time>2019-07-09T07:30:49Z</time>
      </trkpt>
      <trkpt lat="39.7618420" lon="-5.4647560">
        <ele>349.6</ele>
        <time>2019-07-09T07:30:51Z</time>
      </trkpt>
      <trkpt lat="39.7618860" lon="-5.4647610">
        <ele>349.4</ele>
        <time>2019-07-09T07:30:52Z</time>
      </trkpt>
      <trkpt lat="39.7620790" lon="-5.4647260">
        <ele>349.4</ele>
        <time>2019-07-09T07:30:56Z</time>
      </trkpt>
      <trkpt lat="39.7621280" lon="-5.4647180">
        <ele>349.4</ele>
        <time>2019-07-09T07:30:57Z</time>
      </trkpt>
      <trkpt lat="39.7622680" lon="-5.4647480">
        <ele>349.0</ele>
        <time>2019-07-09T07:31:00Z</time>
      </trkpt>
      <trkpt lat="39.7623090" lon="-5.4647750">
        <ele>349.0</ele>
        <time>2019-07-09T07:31:01Z</time>
      </trkpt>
      <trkpt lat="39.7623750" lon="-5.4648500">
        <ele>349.0</ele>
        <time>2019-07-09T07:31:03Z</time>
      </trkpt>
      <trkpt lat="39.7624380" lon="-5.4649150">
        <ele>349.0</ele>
        <time>2019-07-09T07:31:05Z</time>
      </trkpt>
      <trkpt lat="39.7624670" lon="-5.4649530">
        <ele>348.8</ele>
        <time>2019-07-09T07:31:06Z</time>
      </trkpt>
      <trkpt lat="39.7625210" lon="-5.4650390">
        <ele>349.0</ele>
        <time>2019-07-09T07:31:08Z</time>
      </trkpt>
      <trkpt lat="39.7625790" lon="-5.4651230">
        <ele>349.0</ele>
        <time>2019-07-09T07:31:10Z</time>
      </trkpt>
      <trkpt lat="39.7627090" lon="-5.4652750">
        <ele>349.0</ele>
        <time>2019-07-09T07:31:14Z</time>
      </trkpt>
      <trkpt lat="39.7627840" lon="-5.4653280">
        <ele>349.0</ele>
        <time>2019-07-09T07:31:16Z</time>
      </trkpt>
      <trkpt lat="39.7629640" lon="-5.4654820">
        <ele>349.8</ele>
        <time>2019-07-09T07:31:22Z</time>
      </trkpt>
      <trkpt lat="39.7629790" lon="-5.4655120">
        <ele>350.2</ele>
        <time>2019-07-09T07:31:23Z</time>
      </trkpt>
      <trkpt lat="39.7630120" lon="-5.4656140">
        <ele>351.0</ele>
        <time>2019-07-09T07:31:26Z</time>
      </trkpt>
      <trkpt lat="39.7630200" lon="-5.4656470">
        <ele>351.2</ele>
        <time>2019-07-09T07:31:27Z</time>
      </trkpt>
      <trkpt lat="39.7630220" lon="-5.4656810">
        <ele>351.4</ele>
        <time>2019-07-09T07:31:28Z</time>
      </trkpt>
      <trkpt lat="39.7630130" lon="-5.4657530">
        <ele>352.0</ele>
        <time>2019-07-09T07:31:30Z</time>
      </trkpt>
      <trkpt lat="39.7630000" lon="-5.4658280">
        <ele>352.2</ele>
        <time>2019-07-09T07:31:32Z</time>
      </trkpt>
      <trkpt lat="39.7629850" lon="-5.4659000">
        <ele>352.6</ele>
        <time>2019-07-09T07:31:34Z</time>
      </trkpt>
      <trkpt lat="39.7629670" lon="-5.4659740">
        <ele>353.0</ele>
        <time>2019-07-09T07:31:36Z</time>
      </trkpt>
      <trkpt lat="39.7629590" lon="-5.4661280">
        <ele>353.2</ele>
        <time>2019-07-09T07:31:40Z</time>
      </trkpt>
      <trkpt lat="39.7629690" lon="-5.4661670">
        <ele>353.4</ele>
        <time>2019-07-09T07:31:41Z</time>
      </trkpt>
      <trkpt lat="39.7630820" lon="-5.4663290">
        <ele>353.8</ele>
        <time>2019-07-09T07:31:46Z</time>
      </trkpt>
      <trkpt lat="39.7632640" lon="-5.4664480">
        <ele>354.4</ele>
        <time>2019-07-09T07:31:52Z</time>
      </trkpt>
      <trkpt lat="39.7632910" lon="-5.4664750">
        <ele>354.6</ele>
        <time>2019-07-09T07:31:53Z</time>
      </trkpt>
      <trkpt lat="39.7634370" lon="-5.4667270">
        <ele>355.2</ele>
        <time>2019-07-09T07:32:00Z</time>
      </trkpt>
      <trkpt lat="39.7634870" lon="-5.4668540">
        <ele>355.6</ele>
        <time>2019-07-09T07:32:03Z</time>
      </trkpt>
      <trkpt lat="39.7635490" lon="-5.4670160">
        <ele>356.0</ele>
        <time>2019-07-09T07:32:07Z</time>
      </trkpt>
      <trkpt lat="39.7636430" lon="-5.4671820">
        <ele>356.0</ele>
        <time>2019-07-09T07:32:11Z</time>
      </trkpt>
      <trkpt lat="39.7636750" lon="-5.4672240">
        <ele>355.8</ele>
        <time>2019-07-09T07:32:12Z</time>
      </trkpt>
      <trkpt lat="39.7638390" lon="-5.4673300">
        <ele>355.6</ele>
        <time>2019-07-09T07:32:16Z</time>
      </trkpt>
      <trkpt lat="39.7639820" lon="-5.4673360">
        <ele>355.8</ele>
        <time>2019-07-09T07:32:19Z</time>
      </trkpt>
      <trkpt lat="39.7641260" lon="-5.4673410">
        <ele>355.6</ele>
        <time>2019-07-09T07:32:22Z</time>
      </trkpt>
      <trkpt lat="39.7643030" lon="-5.4674130">
        <ele>356.2</ele>
        <time>2019-07-09T07:32:26Z</time>
      </trkpt>
      <trkpt lat="39.7643860" lon="-5.4674560">
        <ele>356.4</ele>
        <time>2019-07-09T07:32:28Z</time>
      </trkpt>
      <trkpt lat="39.7645380" lon="-5.4675430">
        <ele>356.6</ele>
        <time>2019-07-09T07:32:32Z</time>
      </trkpt>
      <trkpt lat="39.7646640" lon="-5.4676270">
        <ele>357.2</ele>
        <time>2019-07-09T07:32:36Z</time>
      </trkpt>
      <trkpt lat="39.7647420" lon="-5.4676840">
        <ele>357.8</ele>
        <time>2019-07-09T07:32:39Z</time>
      </trkpt>
      <trkpt lat="39.7648050" lon="-5.4677250">
        <ele>358.8</ele>
        <time>2019-07-09T07:32:42Z</time>
      </trkpt>
      <trkpt lat="39.7648260" lon="-5.4677400">
        <ele>359.4</ele>
        <time>2019-07-09T07:32:43Z</time>
      </trkpt>
      <trkpt lat="39.7648670" lon="-5.4677700">
        <ele>360.0</ele>
        <time>2019-07-09T07:32:45Z</time>
      </trkpt>
      <trkpt lat="39.7649280" lon="-5.4678060">
        <ele>360.6</ele>
        <time>2019-07-09T07:32:48Z</time>
      </trkpt>
      <trkpt lat="39.7649700" lon="-5.4678270">
        <ele>361.2</ele>
        <time>2019-07-09T07:32:50Z</time>
      </trkpt>
      <trkpt lat="39.7650330" lon="-5.4678650">
        <ele>362.2</ele>
        <time>2019-07-09T07:32:53Z</time>
      </trkpt>
      <trkpt lat="39.7651250" lon="-5.4679210">
        <ele>363.0</ele>
        <time>2019-07-09T07:32:57Z</time>
      </trkpt>
      <trkpt lat="39.7651490" lon="-5.4679340">
        <ele>363.2</ele>
        <time>2019-07-09T07:32:58Z</time>
      </trkpt>
      <trkpt lat="39.7652400" lon="-5.4679900">
        <ele>364.2</ele>
        <time>2019-07-09T07:33:02Z</time>
      </trkpt>
      <trkpt lat="39.7653090" lon="-5.4680360">
        <ele>364.8</ele>
        <time>2019-07-09T07:33:05Z</time>
      </trkpt>
      <trkpt lat="39.7653860" lon="-5.4680660">
        <ele>365.4</ele>
        <time>2019-07-09T07:33:08Z</time>
      </trkpt>
      <trkpt lat="39.7655180" lon="-5.4681070">
        <ele>366.2</ele>
        <time>2019-07-09T07:33:13Z</time>
      </trkpt>
      <trkpt lat="39.7655760" lon="-5.4681210">
        <ele>366.4</ele>
        <time>2019-07-09T07:33:15Z</time>
      </trkpt>
      <trkpt lat="39.7657160" lon="-5.4681490">
        <ele>366.4</ele>
        <time>2019-07-09T07:33:19Z</time>
      </trkpt>
      <trkpt lat="39.7658010" lon="-5.4681700">
        <ele>366.6</ele>
        <time>2019-07-09T07:33:21Z</time>
      </trkpt>
      <trkpt lat="39.7659340" lon="-5.4681810">
        <ele>366.6</ele>
        <time>2019-07-09T07:33:24Z</time>
      </trkpt>
      <trkpt lat="39.7659830" lon="-5.4681820">
        <ele>366.6</ele>
        <time>2019-07-09T07:33:25Z</time>
      </trkpt>
      <trkpt lat="39.7660960" lon="-5.4681880">
        <ele>366.0</ele>
        <time>2019-07-09T07:33:27Z</time>
      </trkpt>
      <trkpt lat="39.7661620" lon="-5.4681910">
        <ele>365.4</ele>
        <time>2019-07-09T07:33:28Z</time>
      </trkpt>
      <trkpt lat="39.7662350" lon="-5.4681960">
        <ele>365.0</ele>
        <time>2019-07-09T07:33:29Z</time>
      </trkpt>
      <trkpt lat="39.7663140" lon="-5.4682010">
        <ele>364.4</ele>
        <time>2019-07-09T07:33:30Z</time>
      </trkpt>
      <trkpt lat="39.7663970" lon="-5.4682060">
        <ele>363.8</ele>
        <time>2019-07-09T07:33:31Z</time>
      </trkpt>
      <trkpt lat="39.7664800" lon="-5.4682100">
        <ele>363.2</ele>
        <time>2019-07-09T07:33:32Z</time>
      </trkpt>
      <trkpt lat="39.7665600" lon="-5.4682160">
        <ele>362.6</ele>
        <time>2019-07-09T07:33:33Z</time>
      </trkpt>
      <trkpt lat="39.7667090" lon="-5.4682280">
        <ele>362.0</ele>
        <time>2019-07-09T07:33:35Z</time>
      </trkpt>
      <trkpt lat="39.7670630" lon="-5.4682690">
        <ele>361.4</ele>
        <time>2019-07-09T07:33:40Z</time>
      </trkpt>
      <trkpt lat="39.7673160" lon="-5.4683070">
        <ele>360.6</ele>
        <time>2019-07-09T07:33:44Z</time>
      </trkpt>
      <trkpt lat="39.7674220" lon="-5.4683660">
        <ele>360.4</ele>
        <time>2019-07-09T07:33:46Z</time>
      </trkpt>
      <trkpt lat="39.7675060" lon="-5.4684420">
        <ele>360.8</ele>
        <time>2019-07-09T07:33:48Z</time>
      </trkpt>
      <trkpt lat="39.7675810" lon="-5.4685150">
        <ele>361.2</ele>
        <time>2019-07-09T07:33:50Z</time>
      </trkpt>
      <trkpt lat="39.7676510" lon="-5.4685770">
        <ele>361.6</ele>
        <time>2019-07-09T07:33:52Z</time>
      </trkpt>
      <trkpt lat="39.7677230" lon="-5.4686390">
        <ele>361.6</ele>
        <time>2019-07-09T07:33:54Z</time>
      </trkpt>
      <trkpt lat="39.7679130" lon="-5.4688190">
        <ele>361.4</ele>
        <time>2019-07-09T07:33:58Z</time>
      </trkpt>
      <trkpt lat="39.7679670" lon="-5.4688750">
        <ele>361.0</ele>
        <time>2019-07-09T07:33:59Z</time>
      </trkpt>
      <trkpt lat="39.7680230" lon="-5.4689350">
        <ele>360.4</ele>
        <time>2019-07-09T07:34:00Z</time>
      </trkpt>
      <trkpt lat="39.7681360" lon="-5.4690640">
        <ele>359.2</ele>
        <time>2019-07-09T07:34:02Z</time>
      </trkpt>
      <trkpt lat="39.7682560" lon="-5.4691750">
        <ele>358.2</ele>
        <time>2019-07-09T07:34:04Z</time>
      </trkpt>
      <trkpt lat="39.7683220" lon="-5.4692220">
        <ele>357.6</ele>
        <time>2019-07-09T07:34:05Z</time>
      </trkpt>
      <trkpt lat="39.7684610" lon="-5.4693070">
        <ele>356.4</ele>
        <time>2019-07-09T07:34:07Z</time>
      </trkpt>
      <trkpt lat="39.7685320" lon="-5.4693480">
        <ele>356.0</ele>
        <time>2019-07-09T07:34:08Z</time>
      </trkpt>
      <trkpt lat="39.7687500" lon="-5.4694550">
        <ele>355.4</ele>
        <time>2019-07-09T07:34:11Z</time>
      </trkpt>
      <trkpt lat="39.7688210" lon="-5.4694900">
        <ele>355.2</ele>
        <time>2019-07-09T07:34:12Z</time>
      </trkpt>
      <trkpt lat="39.7688880" lon="-5.4695290">
        <ele>355.0</ele>
        <time>2019-07-09T07:34:13Z</time>
      </trkpt>
      <trkpt lat="39.7690690" lon="-5.4696630">
        <ele>354.6</ele>
        <time>2019-07-09T07:34:16Z</time>
      </trkpt>
      <trkpt lat="39.7692310" lon="-5.4697830">
        <ele>354.8</ele>
        <time>2019-07-09T07:34:19Z</time>
      </trkpt>
      <trkpt lat="39.7693820" lon="-5.4698800">
        <ele>355.2</ele>
        <time>2019-07-09T07:34:22Z</time>
      </trkpt>
      <trkpt lat="39.7695430" lon="-5.4699530">
        <ele>355.0</ele>
        <time>2019-07-09T07:34:25Z</time>
      </trkpt>
      <trkpt lat="39.7696620" lon="-5.4699970">
        <ele>354.6</ele>
        <time>2019-07-09T07:34:27Z</time>
      </trkpt>
      <trkpt lat="39.7697230" lon="-5.4700200">
        <ele>354.6</ele>
        <time>2019-07-09T07:34:28Z</time>
      </trkpt>
      <trkpt lat="39.7700780" lon="-5.4701740">
        <ele>354.4</ele>
        <time>2019-07-09T07:34:34Z</time>
      </trkpt>
      <trkpt lat="39.7701890" lon="-5.4702200">
        <ele>354.4</ele>
        <time>2019-07-09T07:34:36Z</time>
      </trkpt>
      <trkpt lat="39.7704080" lon="-5.4702820">
        <ele>354.4</ele>
        <time>2019-07-09T07:34:40Z</time>
      </trkpt>
      <trkpt lat="39.7705090" lon="-5.4703210">
        <ele>354.8</ele>
        <time>2019-07-09T07:34:42Z</time>
      </trkpt>
      <trkpt lat="39.7706540" lon="-5.4703980">
        <ele>355.0</ele>
        <time>2019-07-09T07:34:45Z</time>
      </trkpt>
      <trkpt lat="39.7707900" lon="-5.4704730">
        <ele>355.6</ele>
        <time>2019-07-09T07:34:48Z</time>
      </trkpt>
      <trkpt lat="39.7709540" lon="-5.4705790">
        <ele>356.2</ele>
        <time>2019-07-09T07:34:52Z</time>
      </trkpt>
      <trkpt lat="39.7709950" lon="-5.4706070">
        <ele>356.2</ele>
        <time>2019-07-09T07:34:53Z</time>
      </trkpt>
      <trkpt lat="39.7710800" lon="-5.4706620">
        <ele>356.8</ele>
        <time>2019-07-09T07:34:55Z</time>
      </trkpt>
      <trkpt lat="39.7712000" lon="-5.4707480">
        <ele>357.0</ele>
        <time>2019-07-09T07:34:58Z</time>
      </trkpt>
      <trkpt lat="39.7712390" lon="-5.4707760">
        <ele>357.2</ele>
        <time>2019-07-09T07:34:59Z</time>
      </trkpt>
      <trkpt lat="39.7712780" lon="-5.4708020">
        <ele>357.4</ele>
        <time>2019-07-09T07:35:00Z</time>
      </trkpt>
      <trkpt lat="39.7715850" lon="-5.4709940">
        <ele>357.0</ele>
        <time>2019-07-09T07:35:07Z</time>
      </trkpt>
      <trkpt lat="39.7716840" lon="-5.4710610">
        <ele>356.8</ele>
        <time>2019-07-09T07:35:09Z</time>
      </trkpt>
      <trkpt lat="39.7717850" lon="-5.4711380">
        <ele>356.2</ele>
        <time>2019-07-09T07:35:11Z</time>
      </trkpt>
      <trkpt lat="39.7718850" lon="-5.4712170">
        <ele>355.8</ele>
        <time>2019-07-09T07:35:13Z</time>
      </trkpt>
      <trkpt lat="39.7719890" lon="-5.4712870">
        <ele>355.8</ele>
        <time>2019-07-09T07:35:15Z</time>
      </trkpt>
      <trkpt lat="39.7720380" lon="-5.4713240">
        <ele>355.6</ele>
        <time>2019-07-09T07:35:16Z</time>
      </trkpt>
      <trkpt lat="39.7720830" lon="-5.4713650">
        <ele>355.6</ele>
        <time>2019-07-09T07:35:17Z</time>
      </trkpt>
      <trkpt lat="39.7722510" lon="-5.4715380">
        <ele>355.4</ele>
        <time>2019-07-09T07:35:21Z</time>
      </trkpt>
      <trkpt lat="39.7724230" lon="-5.4716830">
        <ele>355.4</ele>
        <time>2019-07-09T07:35:25Z</time>
      </trkpt>
      <trkpt lat="39.7725470" lon="-5.4717900">
        <ele>355.6</ele>
        <time>2019-07-09T07:35:28Z</time>
      </trkpt>
      <trkpt lat="39.7727320" lon="-5.4719320">
        <ele>355.6</ele>
        <time>2019-07-09T07:35:32Z</time>
      </trkpt>
      <trkpt lat="39.7727810" lon="-5.4719710">
        <ele>355.4</ele>
        <time>2019-07-09T07:35:33Z</time>
      </trkpt>
      <trkpt lat="39.7728280" lon="-5.4720150">
        <ele>355.2</ele>
        <time>2019-07-09T07:35:34Z</time>
      </trkpt>
      <trkpt lat="39.7730690" lon="-5.4722280">
        <ele>354.6</ele>
        <time>2019-07-09T07:35:39Z</time>
      </trkpt>
      <trkpt lat="39.7731670" lon="-5.4723050">
        <ele>354.4</ele>
        <time>2019-07-09T07:35:41Z</time>
      </trkpt>
      <trkpt lat="39.7732160" lon="-5.4723400">
        <ele>354.2</ele>
        <time>2019-07-09T07:35:42Z</time>
      </trkpt>
      <trkpt lat="39.7734460" lon="-5.4724680">
        <ele>353.4</ele>
        <time>2019-07-09T07:35:46Z</time>
      </trkpt>
      <trkpt lat="39.7735200" lon="-5.4724920">
        <ele>353.2</ele>
        <time>2019-07-09T07:35:47Z</time>
      </trkpt>
      <trkpt lat="39.7737760" lon="-5.4725540">
        <ele>351.0</ele>
        <time>2019-07-09T07:35:50Z</time>
      </trkpt>
      <trkpt lat="39.7739580" lon="-5.4725740">
        <ele>349.4</ele>
        <time>2019-07-09T07:35:52Z</time>
      </trkpt>
      <trkpt lat="39.7740500" lon="-5.4725700">
        <ele>348.6</ele>
        <time>2019-07-09T07:35:53Z</time>
      </trkpt>
      <trkpt lat="39.7741410" lon="-5.4725550">
        <ele>347.8</ele>
        <time>2019-07-09T07:35:54Z</time>
      </trkpt>
      <trkpt lat="39.7743280" lon="-5.4725050">
        <ele>346.8</ele>
        <time>2019-07-09T07:35:56Z</time>
      </trkpt>
      <trkpt lat="39.7744280" lon="-5.4724840">
        <ele>346.0</ele>
        <time>2019-07-09T07:35:57Z</time>
      </trkpt>
      <trkpt lat="39.7745310" lon="-5.4724670">
        <ele>343.8</ele>
        <time>2019-07-09T07:35:58Z</time>
      </trkpt>
      <trkpt lat="39.7746360" lon="-5.4724560">
        <ele>342.2</ele>
        <time>2019-07-09T07:35:59Z</time>
      </trkpt>
      <trkpt lat="39.7748600" lon="-5.4724470">
        <ele>340.8</ele>
        <time>2019-07-09T07:36:01Z</time>
      </trkpt>
      <trkpt lat="39.7749730" lon="-5.4724460">
        <ele>339.8</ele>
        <time>2019-07-09T07:36:02Z</time>
      </trkpt>
      <trkpt lat="39.7750840" lon="-5.4724440">
        <ele>338.4</ele>
        <time>2019-07-09T07:36:03Z</time>
      </trkpt>
      <trkpt lat="39.7753100" lon="-5.4724260">
        <ele>336.8</ele>
        <time>2019-07-09T07:36:05Z</time>
      </trkpt>
      <trkpt lat="39.7754230" lon="-5.4724000">
        <ele>335.6</ele>
        <time>2019-07-09T07:36:06Z</time>
      </trkpt>
      <trkpt lat="39.7755350" lon="-5.4723600">
        <ele>334.0</ele>
        <time>2019-07-09T07:36:07Z</time>
      </trkpt>
      <trkpt lat="39.7757460" lon="-5.4722590">
        <ele>332.2</ele>
        <time>2019-07-09T07:36:09Z</time>
      </trkpt>
      <trkpt lat="39.7758330" lon="-5.4722040">
        <ele>331.4</ele>
        <time>2019-07-09T07:36:10Z</time>
      </trkpt>
      <trkpt lat="39.7759060" lon="-5.4721500">
        <ele>330.8</ele>
        <time>2019-07-09T07:36:11Z</time>
      </trkpt>
      <trkpt lat="39.7761110" lon="-5.4719900">
        <ele>329.6</ele>
        <time>2019-07-09T07:36:14Z</time>
      </trkpt>
      <trkpt lat="39.7762970" lon="-5.4718660">
        <ele>328.2</ele>
        <time>2019-07-09T07:36:17Z</time>
      </trkpt>
      <trkpt lat="39.7763600" lon="-5.4718410">
        <ele>327.4</ele>
        <time>2019-07-09T07:36:18Z</time>
      </trkpt>
      <trkpt lat="39.7764210" lon="-5.4718260">
        <ele>327.0</ele>
        <time>2019-07-09T07:36:19Z</time>
      </trkpt>
      <trkpt lat="39.7765370" lon="-5.4718090">
        <ele>326.0</ele>
        <time>2019-07-09T07:36:21Z</time>
      </trkpt>
      <trkpt lat="39.7766550" lon="-5.4717900">
        <ele>324.0</ele>
        <time>2019-07-09T07:36:23Z</time>
      </trkpt>
      <trkpt lat="39.7767840" lon="-5.4717880">
        <ele>323.0</ele>
        <time>2019-07-09T07:36:25Z</time>
      </trkpt>
      <trkpt lat="39.7769180" lon="-5.4718230">
        <ele>322.0</ele>
        <time>2019-07-09T07:36:27Z</time>
      </trkpt>
      <trkpt lat="39.7771560" lon="-5.4720090">
        <ele>321.2</ele>
        <time>2019-07-09T07:36:31Z</time>
      </trkpt>
      <trkpt lat="39.7772440" lon="-5.4721510">
        <ele>320.6</ele>
        <time>2019-07-09T07:36:33Z</time>
      </trkpt>
      <trkpt lat="39.7773150" lon="-5.4723060">
        <ele>320.2</ele>
        <time>2019-07-09T07:36:35Z</time>
      </trkpt>
      <trkpt lat="39.7774120" lon="-5.4725140">
        <ele>320.2</ele>
        <time>2019-07-09T07:36:38Z</time>
      </trkpt>
      <trkpt lat="39.7774840" lon="-5.4726240">
        <ele>320.2</ele>
        <time>2019-07-09T07:36:40Z</time>
      </trkpt>
      <trkpt lat="39.7775210" lon="-5.4726740">
        <ele>320.4</ele>
        <time>2019-07-09T07:36:41Z</time>
      </trkpt>
      <trkpt lat="39.7775570" lon="-5.4727200">
        <ele>320.6</ele>
        <time>2019-07-09T07:36:42Z</time>
      </trkpt>
      <trkpt lat="39.7776280" lon="-5.4728010">
        <ele>321.0</ele>
        <time>2019-07-09T07:36:44Z</time>
      </trkpt>
      <trkpt lat="39.7776950" lon="-5.4728720">
        <ele>321.6</ele>
        <time>2019-07-09T07:36:46Z</time>
      </trkpt>
      <trkpt lat="39.7777310" lon="-5.4729010">
        <ele>321.8</ele>
        <time>2019-07-09T07:36:47Z</time>
      </trkpt>
      <trkpt lat="39.7778390" lon="-5.4729630">
        <ele>322.0</ele>
        <time>2019-07-09T07:36:50Z</time>
      </trkpt>
      <trkpt lat="39.7778680" lon="-5.4729840">
        <ele>322.2</ele>
        <time>2019-07-09T07:36:51Z</time>
      </trkpt>
      <trkpt lat="39.7779160" lon="-5.4730300">
        <ele>322.8</ele>
        <time>2019-07-09T07:36:53Z</time>
      </trkpt>
      <trkpt lat="39.7779370" lon="-5.4730550">
        <ele>323.6</ele>
        <time>2019-07-09T07:36:54Z</time>
      </trkpt>
      <trkpt lat="39.7779730" lon="-5.4731090">
        <ele>324.4</ele>
        <time>2019-07-09T07:36:56Z</time>
      </trkpt>
      <trkpt lat="39.7779900" lon="-5.4731370">
        <ele>324.6</ele>
        <time>2019-07-09T07:36:57Z</time>
      </trkpt>
      <trkpt lat="39.7780140" lon="-5.4731940">
        <ele>325.0</ele>
        <time>2019-07-09T07:36:59Z</time>
      </trkpt>
      <trkpt lat="39.7780350" lon="-5.4732530">
        <ele>325.6</ele>
        <time>2019-07-09T07:37:01Z</time>
      </trkpt>
      <trkpt lat="39.7780490" lon="-5.4732800">
        <ele>326.0</ele>
        <time>2019-07-09T07:37:02Z</time>
      </trkpt>
      <trkpt lat="39.7780800" lon="-5.4733350">
        <ele>326.2</ele>
        <time>2019-07-09T07:37:04Z</time>
      </trkpt>
      <trkpt lat="39.7781330" lon="-5.4734110">
        <ele>327.0</ele>
        <time>2019-07-09T07:37:07Z</time>
      </trkpt>
      <trkpt lat="39.7781540" lon="-5.4734350">
        <ele>327.2</ele>
        <time>2019-07-09T07:37:08Z</time>
      </trkpt>
      <trkpt lat="39.7781760" lon="-5.4734580">
        <ele>327.4</ele>
        <time>2019-07-09T07:37:09Z</time>
      </trkpt>
      <trkpt lat="39.7782560" lon="-5.4735190">
        <ele>327.8</ele>
        <time>2019-07-09T07:37:12Z</time>
      </trkpt>
      <trkpt lat="39.7783600" lon="-5.4736060">
        <ele>328.0</ele>
        <time>2019-07-09T07:37:16Z</time>
      </trkpt>
      <trkpt lat="39.7784870" lon="-5.4737230">
        <ele>328.2</ele>
        <time>2019-07-09T07:37:21Z</time>
      </trkpt>
      <trkpt lat="39.7785110" lon="-5.4737430">
        <ele>328.4</ele>
        <time>2019-07-09T07:37:22Z</time>
      </trkpt>
      <trkpt lat="39.7786620" lon="-5.4738180">
        <ele>329.0</ele>
        <time>2019-07-09T07:37:28Z</time>
      </trkpt>
      <trkpt lat="39.7787110" lon="-5.4738320">
        <ele>329.2</ele>
        <time>2019-07-09T07:37:30Z</time>
      </trkpt>
      <trkpt lat="39.7787920" lon="-5.4738960">
        <ele>330.6</ele>
        <time>2019-07-09T07:37:34Z</time>
      </trkpt>
      <trkpt lat="39.7788850" lon="-5.4739750">
        <ele>331.6</ele>
        <time>2019-07-09T07:37:39Z</time>
      </trkpt>
      <trkpt lat="39.7789070" lon="-5.4739890">
        <ele>331.8</ele>
        <time>2019-07-09T07:37:40Z</time>
      </trkpt>
      <trkpt lat="39.7790070" lon="-5.4741160">
        <ele>332.8</ele>
        <time>2019-07-09T07:37:45Z</time>
      </trkpt>
      <trkpt lat="39.7790280" lon="-5.4741430">
        <ele>332.8</ele>
        <time>2019-07-09T07:37:46Z</time>
      </trkpt>
      <trkpt lat="39.7791830" lon="-5.4743020">
        <ele>333.2</ele>
        <time>2019-07-09T07:37:52Z</time>
      </trkpt>
      <trkpt lat="39.7792690" lon="-5.4744070">
        <ele>333.2</ele>
        <time>2019-07-09T07:37:55Z</time>
      </trkpt>
      <trkpt lat="39.7793230" lon="-5.4744900">
        <ele>333.0</ele>
        <time>2019-07-09T07:37:57Z</time>
      </trkpt>
      <trkpt lat="39.7793460" lon="-5.4745370">
        <ele>333.0</ele>
        <time>2019-07-09T07:37:58Z</time>
      </trkpt>
      <trkpt lat="39.7793940" lon="-5.4746340">
        <ele>333.0</ele>
        <time>2019-07-09T07:38:00Z</time>
      </trkpt>
      <trkpt lat="39.7794460" lon="-5.4747360">
        <ele>333.0</ele>
        <time>2019-07-09T07:38:02Z</time>
      </trkpt>
      <trkpt lat="39.7795200" lon="-5.4748970">
        <ele>333.2</ele>
        <time>2019-07-09T07:38:05Z</time>
      </trkpt>
      <trkpt lat="39.7795450" lon="-5.4749510">
        <ele>333.2</ele>
        <time>2019-07-09T07:38:06Z</time>
      </trkpt>
      <trkpt lat="39.7796300" lon="-5.4751090">
        <ele>333.4</ele>
        <time>2019-07-09T07:38:09Z</time>
      </trkpt>
      <trkpt lat="39.7797960" lon="-5.4753650">
        <ele>333.0</ele>
        <time>2019-07-09T07:38:14Z</time>
      </trkpt>
      <trkpt lat="39.7801370" lon="-5.4758480">
        <ele>332.8</ele>
        <time>2019-07-09T07:38:23Z</time>
      </trkpt>
      <trkpt lat="39.7803080" lon="-5.4760500">
        <ele>332.6</ele>
        <time>2019-07-09T07:38:27Z</time>
      </trkpt>
      <trkpt lat="39.7804790" lon="-5.4762530">
        <ele>332.4</ele>
        <time>2019-07-09T07:38:31Z</time>
      </trkpt>
      <trkpt lat="39.7807980" lon="-5.4766220">
        <ele>332.0</ele>
        <time>2019-07-09T07:38:38Z</time>
      </trkpt>
      <trkpt lat="39.7808840" lon="-5.4767390">
        <ele>332.0</ele>
        <time>2019-07-09T07:38:40Z</time>
      </trkpt>
      <trkpt lat="39.7810490" lon="-5.4769980">
        <ele>331.4</ele>
        <time>2019-07-09T07:38:44Z</time>
      </trkpt>
      <trkpt lat="39.7811830" lon="-5.4772780">
        <ele>331.4</ele>
        <time>2019-07-09T07:38:48Z</time>
      </trkpt>
      <trkpt lat="39.7814370" lon="-5.4779160">
        <ele>331.0</ele>
        <time>2019-07-09T07:38:57Z</time>
      </trkpt>
      <trkpt lat="39.7814610" lon="-5.4779840">
        <ele>330.8</ele>
        <time>2019-07-09T07:38:58Z</time>
      </trkpt>
      <trkpt lat="39.7816140" lon="-5.4783940">
        <ele>331.4</ele>
        <time>2019-07-09T07:39:05Z</time>
      </trkpt>
      <trkpt lat="39.7817810" lon="-5.4788000">
        <ele>331.2</ele>
        <time>2019-07-09T07:39:12Z</time>
      </trkpt>
      <trkpt lat="39.7818370" lon="-5.4790080">
        <ele>331.0</ele>
        <time>2019-07-09T07:39:15Z</time>
      </trkpt>
      <trkpt lat="39.7819000" lon="-5.4792050">
        <ele>331.2</ele>
        <time>2019-07-09T07:39:18Z</time>
      </trkpt>
      <trkpt lat="39.7819690" lon="-5.4795170">
        <ele>331.6</ele>
        <time>2019-07-09T07:39:23Z</time>
      </trkpt>
      <trkpt lat="39.7819870" lon="-5.4795710">
        <ele>331.6</ele>
        <time>2019-07-09T07:39:24Z</time>
      </trkpt>
      <trkpt lat="39.7820670" lon="-5.4798340">
        <ele>332.2</ele>
        <time>2019-07-09T07:39:29Z</time>
      </trkpt>
      <trkpt lat="39.7820950" lon="-5.4799370">
        <ele>332.6</ele>
        <time>2019-07-09T07:39:31Z</time>
      </trkpt>
      <trkpt lat="39.7821290" lon="-5.4800220">
        <ele>333.0</ele>
        <time>2019-07-09T07:39:33Z</time>
      </trkpt>
      <trkpt lat="39.7821560" lon="-5.4800480">
        <ele>333.0</ele>
        <time>2019-07-09T07:39:34Z</time>
      </trkpt>
      <trkpt lat="39.7822050" lon="-5.4800650">
        <ele>333.2</ele>
        <time>2019-07-09T07:39:36Z</time>
      </trkpt>
      <trkpt lat="39.7822130" lon="-5.4800690">
        <ele>333.0</ele>
        <time>2019-07-09T07:39:39Z</time>
      </trkpt>
      <trkpt lat="39.7822280" lon="-5.4801010">
        <ele>332.8</ele>
        <time>2019-07-09T07:40:58Z</time>
      </trkpt>
      <trkpt lat="39.7822250" lon="-5.4801270">
        <ele>332.8</ele>
        <time>2019-07-09T07:40:59Z</time>
      </trkpt>
      <trkpt lat="39.7821970" lon="-5.4802140">
        <ele>333.2</ele>
        <time>2019-07-09T07:41:02Z</time>
      </trkpt>
      <trkpt lat="39.7821970" lon="-5.4802460">
        <ele>333.4</ele>
        <time>2019-07-09T07:41:03Z</time>
      </trkpt>
      <trkpt lat="39.7822060" lon="-5.4802810">
        <ele>333.6</ele>
        <time>2019-07-09T07:41:04Z</time>
      </trkpt>
      <trkpt lat="39.7822330" lon="-5.4803550">
        <ele>333.8</ele>
        <time>2019-07-09T07:41:06Z</time>
      </trkpt>
      <trkpt lat="39.7823360" lon="-5.4805300">
        <ele>334.6</ele>
        <time>2019-07-09T07:41:11Z</time>
      </trkpt>
      <trkpt lat="39.7823710" lon="-5.4806050">
        <ele>334.8</ele>
        <time>2019-07-09T07:41:13Z</time>
      </trkpt>
      <trkpt lat="39.7824240" lon="-5.4807160">
        <ele>335.2</ele>
        <time>2019-07-09T07:41:16Z</time>
      </trkpt>
      <trkpt lat="39.7825030" lon="-5.4808650">
        <ele>335.4</ele>
        <time>2019-07-09T07:41:20Z</time>
      </trkpt>
      <trkpt lat="39.7825680" lon="-5.4809740">
        <ele>335.6</ele>
        <time>2019-07-09T07:41:23Z</time>
      </trkpt>
      <trkpt lat="39.7825910" lon="-5.4810090">
        <ele>335.6</ele>
        <time>2019-07-09T07:41:24Z</time>
      </trkpt>
      <trkpt lat="39.7826610" lon="-5.4811100">
        <ele>336.2</ele>
        <time>2019-07-09T07:41:27Z</time>
      </trkpt>
      <trkpt lat="39.7826870" lon="-5.4811410">
        <ele>336.4</ele>
        <time>2019-07-09T07:41:28Z</time>
      </trkpt>
      <trkpt lat="39.7827620" lon="-5.4812400">
        <ele>336.8</ele>
        <time>2019-07-09T07:41:31Z</time>
      </trkpt>
      <trkpt lat="39.7829170" lon="-5.4814440">
        <ele>337.8</ele>
        <time>2019-07-09T07:41:37Z</time>
      </trkpt>
      <trkpt lat="39.7829440" lon="-5.4814780">
        <ele>338.0</ele>
        <time>2019-07-09T07:41:38Z</time>
      </trkpt>
      <trkpt lat="39.7830370" lon="-5.4816710">
        <ele>338.6</ele>
        <time>2019-07-09T07:41:43Z</time>
      </trkpt>
      <trkpt lat="39.7830710" lon="-5.4818050">
        <ele>339.0</ele>
        <time>2019-07-09T07:41:46Z</time>
      </trkpt>
      <trkpt lat="39.7830870" lon="-5.4819890">
        <ele>339.6</ele>
        <time>2019-07-09T07:41:50Z</time>
      </trkpt>
      <trkpt lat="39.7830710" lon="-5.4821760">
        <ele>340.0</ele>
        <time>2019-07-09T07:41:54Z</time>
      </trkpt>
      <trkpt lat="39.7830760" lon="-5.4822980">
        <ele>340.4</ele>
        <time>2019-07-09T07:41:57Z</time>
      </trkpt>
      <trkpt lat="39.7831180" lon="-5.4823680">
        <ele>340.6</ele>
        <time>2019-07-09T07:41:59Z</time>
      </trkpt>
      <trkpt lat="39.7831560" lon="-5.4823950">
        <ele>340.2</ele>
        <time>2019-07-09T07:42:00Z</time>
      </trkpt>
      <trkpt lat="39.7832000" lon="-5.4824180">
        <ele>339.8</ele>
        <time>2019-07-09T07:42:01Z</time>
      </trkpt>
      <trkpt lat="39.7833050" lon="-5.4824420">
        <ele>338.6</ele>
        <time>2019-07-09T07:42:03Z</time>
      </trkpt>
      <trkpt lat="39.7833590" lon="-5.4824580">
        <ele>338.2</ele>
        <time>2019-07-09T07:42:04Z</time>
      </trkpt>
      <trkpt lat="39.7834640" lon="-5.4824970">
        <ele>337.2</ele>
        <time>2019-07-09T07:42:06Z</time>
      </trkpt>
      <trkpt lat="39.7835120" lon="-5.4825210">
        <ele>336.2</ele>
        <time>2019-07-09T07:42:07Z</time>
      </trkpt>
      <trkpt lat="39.7835580" lon="-5.4825550">
        <ele>335.6</ele>
        <time>2019-07-09T07:42:08Z</time>
      </trkpt>
      <trkpt lat="39.7836630" lon="-5.4826370">
        <ele>334.8</ele>
        <time>2019-07-09T07:42:10Z</time>
      </trkpt>
      <trkpt lat="39.7837190" lon="-5.4826800">
        <ele>334.2</ele>
        <time>2019-07-09T07:42:11Z</time>
      </trkpt>
      <trkpt lat="39.7838240" lon="-5.4827660">
        <ele>333.2</ele>
        <time>2019-07-09T07:42:13Z</time>
      </trkpt>
      <trkpt lat="39.7839230" lon="-5.4828450">
        <ele>332.2</ele>
        <time>2019-07-09T07:42:15Z</time>
      </trkpt>
      <trkpt lat="39.7839730" lon="-5.4828890">
        <ele>331.2</ele>
        <time>2019-07-09T07:42:16Z</time>
      </trkpt>
      <trkpt lat="39.7840200" lon="-5.4829310">
        <ele>330.4</ele>
        <time>2019-07-09T07:42:17Z</time>
      </trkpt>
      <trkpt lat="39.7840640" lon="-5.4829690">
        <ele>330.0</ele>
        <time>2019-07-09T07:42:18Z</time>
      </trkpt>
      <trkpt lat="39.7841020" lon="-5.4830050">
        <ele>329.6</ele>
        <time>2019-07-09T07:42:19Z</time>
      </trkpt>
      <trkpt lat="39.7841670" lon="-5.4830650">
        <ele>328.6</ele>
        <time>2019-07-09T07:42:21Z</time>
      </trkpt>
      <trkpt lat="39.7841950" lon="-5.4830910">
        <ele>328.2</ele>
        <time>2019-07-09T07:42:22Z</time>
      </trkpt>
      <trkpt lat="39.7842230" lon="-5.4831300">
        <ele>327.6</ele>
        <time>2019-07-09T07:42:23Z</time>
      </trkpt>
      <trkpt lat="39.7842440" lon="-5.4831780">
        <ele>327.4</ele>
        <time>2019-07-09T07:42:24Z</time>
      </trkpt>
      <trkpt lat="39.7842420" lon="-5.4833320">
        <ele>327.2</ele>
        <time>2019-07-09T07:42:27Z</time>
      </trkpt>
      <trkpt lat="39.7842320" lon="-5.4834800">
        <ele>327.2</ele>
        <time>2019-07-09T07:42:30Z</time>
      </trkpt>
      <trkpt lat="39.7842340" lon="-5.4835260">
        <ele>327.2</ele>
        <time>2019-07-09T07:42:31Z</time>
      </trkpt>
      <trkpt lat="39.7842340" lon="-5.4835660">
        <ele>327.6</ele>
        <time>2019-07-09T07:42:32Z</time>
      </trkpt>
      <trkpt lat="39.7842440" lon="-5.4836760">
        <ele>328.4</ele>
        <time>2019-07-09T07:42:35Z</time>
      </trkpt>
      <trkpt lat="39.7842460" lon="-5.4837160">
        <ele>329.0</ele>
        <time>2019-07-09T07:42:36Z</time>
      </trkpt>
      <trkpt lat="39.7842450" lon="-5.4837570">
        <ele>329.4</ele>
        <time>2019-07-09T07:42:37Z</time>
      </trkpt>
      <trkpt lat="39.7842410" lon="-5.4838370">
        <ele>329.6</ele>
        <time>2019-07-09T07:42:39Z</time>
      </trkpt>
      <trkpt lat="39.7842510" lon="-5.4839540">
        <ele>330.0</ele>
        <time>2019-07-09T07:42:42Z</time>
      </trkpt>
      <trkpt lat="39.7842650" lon="-5.4840730">
        <ele>331.0</ele>
        <time>2019-07-09T07:42:45Z</time>
      </trkpt>
      <trkpt lat="39.7842760" lon="-5.4841140">
        <ele>331.2</ele>
        <time>2019-07-09T07:42:46Z</time>
      </trkpt>
      <trkpt lat="39.7842870" lon="-5.4841540">
        <ele>331.4</ele>
        <time>2019-07-09T07:42:47Z</time>
      </trkpt>
      <trkpt lat="39.7843200" lon="-5.4842530">
        <ele>332.2</ele>
        <time>2019-07-09T07:42:51Z</time>
      </trkpt>
      <trkpt lat="39.7843470" lon="-5.4842950">
        <ele>332.6</ele>
        <time>2019-07-09T07:42:54Z</time>
      </trkpt>
      <trkpt lat="39.7843700" lon="-5.4843170">
        <ele>333.2</ele>
        <time>2019-07-09T07:42:56Z</time>
      </trkpt>
      <trkpt lat="39.7844360" lon="-5.4843220">
        <ele>334.2</ele>
        <time>2019-07-09T07:43:00Z</time>
      </trkpt>
      <trkpt lat="39.7844680" lon="-5.4843470">
        <ele>334.6</ele>
        <time>2019-07-09T07:43:02Z</time>
      </trkpt>
      <trkpt lat="39.7844990" lon="-5.4843760">
        <ele>335.0</ele>
        <time>2019-07-09T07:43:04Z</time>
      </trkpt>
      <trkpt lat="39.7845160" lon="-5.4843880">
        <ele>335.2</ele>
        <time>2019-07-09T07:43:05Z</time>
      </trkpt>
      <trkpt lat="39.7845640" lon="-5.4844310">
        <ele>335.4</ele>
        <time>2019-07-09T07:43:08Z</time>
      </trkpt>
      <trkpt lat="39.7845990" lon="-5.4844560">
        <ele>335.6</ele>
        <time>2019-07-09T07:43:10Z</time>
      </trkpt>
      <trkpt lat="39.7846280" lon="-5.4844530">
        <ele>335.8</ele>
        <time>2019-07-09T07:43:12Z</time>
      </trkpt>
      <trkpt lat="39.7846270" lon="-5.4844620">
        <ele>335.8</ele>
        <time>2019-07-09T07:43:13Z</time>
      </trkpt>
      <trkpt lat="39.7846000" lon="-5.4845020">
        <ele>336.0</ele>
        <time>2019-07-09T07:43:16Z</time>
      </trkpt>
      <trkpt lat="39.7845870" lon="-5.4845240">
        <ele>336.2</ele>
        <time>2019-07-09T07:43:17Z</time>
      </trkpt>
      <trkpt lat="39.7845450" lon="-5.4845870">
        <ele>336.6</ele>
        <time>2019-07-09T07:43:20Z</time>
      </trkpt>
      <trkpt lat="39.7845050" lon="-5.4846580">
        <ele>337.4</ele>
        <time>2019-07-09T07:43:23Z</time>
      </trkpt>
      <trkpt lat="39.7844910" lon="-5.4847160">
        <ele>337.8</ele>
        <time>2019-07-09T07:43:25Z</time>
      </trkpt>
      <trkpt lat="39.7844540" lon="-5.4848700">
        <ele>338.4</ele>
        <time>2019-07-09T07:43:30Z</time>
      </trkpt>
      <trkpt lat="39.7843940" lon="-5.4850640">
        <ele>338.8</ele>
        <time>2019-07-09T07:43:35Z</time>
      </trkpt>
      <trkpt lat="39.7843820" lon="-5.4851010">
        <ele>339.2</ele>
        <time>2019-07-09T07:43:36Z</time>
      </trkpt>
      <trkpt lat="39.7843240" lon="-5.4853250">
        <ele>339.8</ele>
        <time>2019-07-09T07:43:42Z</time>
      </trkpt>
      <trkpt lat="39.7843100" lon="-5.4854000">
        <ele>340.2</ele>
        <time>2019-07-09T07:43:44Z</time>
      </trkpt>
      <trkpt lat="39.7842820" lon="-5.4855490">
        <ele>340.6</ele>
        <time>2019-07-09T07:43:48Z</time>
      </trkpt>
      <trkpt lat="39.7842670" lon="-5.4856650">
        <ele>341.2</ele>
        <time>2019-07-09T07:43:51Z</time>
      </trkpt>
      <trkpt lat="39.7842640" lon="-5.4857270">
        <ele>341.6</ele>
        <time>2019-07-09T07:43:53Z</time>
      </trkpt>
      <trkpt lat="39.7841930" lon="-5.4858850">
        <ele>342.2</ele>
        <time>2019-07-09T07:43:58Z</time>
      </trkpt>
      <trkpt lat="39.7842040" lon="-5.4860930">
        <ele>342.8</ele>
        <time>2019-07-09T07:44:03Z</time>
      </trkpt>
      <trkpt lat="39.7842560" lon="-5.4862660">
        <ele>342.6</ele>
        <time>2019-07-09T07:44:07Z</time>
      </trkpt>
      <trkpt lat="39.7842480" lon="-5.4863080">
        <ele>342.6</ele>
        <time>2019-07-09T07:44:08Z</time>
      </trkpt>
      <trkpt lat="39.7841430" lon="-5.4864560">
        <ele>342.4</ele>
        <time>2019-07-09T07:44:12Z</time>
      </trkpt>
      <trkpt lat="39.7841130" lon="-5.4864900">
        <ele>342.6</ele>
        <time>2019-07-09T07:44:13Z</time>
      </trkpt>
      <trkpt lat="39.7840000" lon="-5.4866340">
        <ele>343.0</ele>
        <time>2019-07-09T07:44:17Z</time>
      </trkpt>
      <trkpt lat="39.7839240" lon="-5.4867570">
        <ele>343.2</ele>
        <time>2019-07-09T07:44:20Z</time>
      </trkpt>
      <trkpt lat="39.7837790" lon="-5.4869990">
        <ele>344.0</ele>
        <time>2019-07-09T07:44:26Z</time>
      </trkpt>
      <trkpt lat="39.7836960" lon="-5.4872280">
        <ele>344.4</ele>
        <time>2019-07-09T07:44:31Z</time>
      </trkpt>
      <trkpt lat="39.7836830" lon="-5.4872730">
        <ele>344.4</ele>
        <time>2019-07-09T07:44:32Z</time>
      </trkpt>
      <trkpt lat="39.7836490" lon="-5.4874610">
        <ele>345.2</ele>
        <time>2019-07-09T07:44:36Z</time>
      </trkpt>
      <trkpt lat="39.7836420" lon="-5.4875100">
        <ele>345.4</ele>
        <time>2019-07-09T07:44:37Z</time>
      </trkpt>
      <trkpt lat="39.7835650" lon="-5.4877470">
        <ele>345.6</ele>
        <time>2019-07-09T07:44:42Z</time>
      </trkpt>
      <trkpt lat="39.7834670" lon="-5.4880170">
        <ele>346.4</ele>
        <time>2019-07-09T07:44:48Z</time>
      </trkpt>
      <trkpt lat="39.7833870" lon="-5.4881640">
        <ele>347.4</ele>
        <time>2019-07-09T07:44:52Z</time>
      </trkpt>
      <trkpt lat="39.7833590" lon="-5.4882610">
        <ele>347.6</ele>
        <time>2019-07-09T07:44:54Z</time>
      </trkpt>
      <trkpt lat="39.7832920" lon="-5.4884010">
        <ele>348.0</ele>
        <time>2019-07-09T07:44:57Z</time>
      </trkpt>
      <trkpt lat="39.7832700" lon="-5.4885500">
        <ele>348.2</ele>
        <time>2019-07-09T07:45:00Z</time>
      </trkpt>
      <trkpt lat="39.7832080" lon="-5.4887900">
        <ele>349.0</ele>
        <time>2019-07-09T07:45:05Z</time>
      </trkpt>
      <trkpt lat="39.7831920" lon="-5.4888460">
        <ele>349.0</ele>
        <time>2019-07-09T07:45:06Z</time>
      </trkpt>
      <trkpt lat="39.7831380" lon="-5.4890940">
        <ele>348.4</ele>
        <time>2019-07-09T07:45:10Z</time>
      </trkpt>
      <trkpt lat="39.7831250" lon="-5.4891620">
        <ele>348.2</ele>
        <time>2019-07-09T07:45:11Z</time>
      </trkpt>
      <trkpt lat="39.7831160" lon="-5.4892310">
        <ele>348.2</ele>
        <time>2019-07-09T07:45:12Z</time>
      </trkpt>
      <trkpt lat="39.7830790" lon="-5.4893690">
        <ele>347.8</ele>
        <time>2019-07-09T07:45:14Z</time>
      </trkpt>
      <trkpt lat="39.7830400" lon="-5.4895280">
        <ele>347.2</ele>
        <time>2019-07-09T07:45:16Z</time>
      </trkpt>
      <trkpt lat="39.7830210" lon="-5.4896150">
        <ele>346.8</ele>
        <time>2019-07-09T07:45:17Z</time>
      </trkpt>
      <trkpt lat="39.7829750" lon="-5.4899440">
        <ele>346.0</ele>
        <time>2019-07-09T07:45:21Z</time>
      </trkpt>
      <trkpt lat="39.7829530" lon="-5.4901530">
        <ele>346.0</ele>
        <time>2019-07-09T07:45:24Z</time>
      </trkpt>
      <trkpt lat="39.7829260" lon="-5.4902650">
        <ele>346.2</ele>
        <time>2019-07-09T07:45:26Z</time>
      </trkpt>
      <trkpt lat="39.7829150" lon="-5.4903170">
        <ele>346.4</ele>
        <time>2019-07-09T07:45:27Z</time>
      </trkpt>
      <trkpt lat="39.7828950" lon="-5.4905210">
        <ele>347.2</ele>
        <time>2019-07-09T07:45:31Z</time>
      </trkpt>
      <trkpt lat="39.7828840" lon="-5.4906620">
        <ele>348.0</ele>
        <time>2019-07-09T07:45:34Z</time>
      </trkpt>
      <trkpt lat="39.7828470" lon="-5.4910040">
        <ele>348.8</ele>
        <time>2019-07-09T07:45:41Z</time>
      </trkpt>
      <trkpt lat="39.7828040" lon="-5.4911290">
        <ele>349.0</ele>
        <time>2019-07-09T07:45:44Z</time>
      </trkpt>
      <trkpt lat="39.7827710" lon="-5.4912060">
        <ele>349.4</ele>
        <time>2019-07-09T07:45:46Z</time>
      </trkpt>
      <trkpt lat="39.7827060" lon="-5.4914940">
        <ele>350.0</ele>
        <time>2019-07-09T07:45:52Z</time>
      </trkpt>
      <trkpt lat="39.7826750" lon="-5.4916470">
        <ele>350.2</ele>
        <time>2019-07-09T07:45:55Z</time>
      </trkpt>
      <trkpt lat="39.7825350" lon="-5.4921270">
        <ele>350.4</ele>
        <time>2019-07-09T07:46:04Z</time>
      </trkpt>
      <trkpt lat="39.7823350" lon="-5.4925570">
        <ele>350.8</ele>
        <time>2019-07-09T07:46:12Z</time>
      </trkpt>
      <trkpt lat="39.7820960" lon="-5.4929130">
        <ele>351.0</ele>
        <time>2019-07-09T07:46:19Z</time>
      </trkpt>
      <trkpt lat="39.7819970" lon="-5.4930590">
        <ele>351.2</ele>
        <time>2019-07-09T07:46:22Z</time>
      </trkpt>
      <trkpt lat="39.7818450" lon="-5.4932760">
        <ele>351.8</ele>
        <time>2019-07-09T07:46:27Z</time>
      </trkpt>
      <trkpt lat="39.7817610" lon="-5.4934010">
        <ele>352.2</ele>
        <time>2019-07-09T07:46:30Z</time>
      </trkpt>
      <trkpt lat="39.7816820" lon="-5.4935300">
        <ele>352.6</ele>
        <time>2019-07-09T07:46:33Z</time>
      </trkpt>
      <trkpt lat="39.7816240" lon="-5.4936140">
        <ele>352.8</ele>
        <time>2019-07-09T07:46:35Z</time>
      </trkpt>
      <trkpt lat="39.7815670" lon="-5.4936950">
        <ele>353.0</ele>
        <time>2019-07-09T07:46:37Z</time>
      </trkpt>
      <trkpt lat="39.7814270" lon="-5.4939010">
        <ele>353.6</ele>
        <time>2019-07-09T07:46:42Z</time>
      </trkpt>
      <trkpt lat="39.7813720" lon="-5.4939800">
        <ele>354.0</ele>
        <time>2019-07-09T07:46:44Z</time>
      </trkpt>
      <trkpt lat="39.7813490" lon="-5.4940220">
        <ele>354.2</ele>
        <time>2019-07-09T07:46:45Z</time>
      </trkpt>
      <trkpt lat="39.7812290" lon="-5.4942110">
        <ele>355.2</ele>
        <time>2019-07-09T07:46:50Z</time>
      </trkpt>
      <trkpt lat="39.7811780" lon="-5.4942770">
        <ele>355.6</ele>
        <time>2019-07-09T07:46:52Z</time>
      </trkpt>
      <trkpt lat="39.7810870" lon="-5.4944210">
        <ele>356.4</ele>
        <time>2019-07-09T07:46:56Z</time>
      </trkpt>
      <trkpt lat="39.7810140" lon="-5.4945230">
        <ele>356.6</ele>
        <time>2019-07-09T07:46:59Z</time>
      </trkpt>
      <trkpt lat="39.7808760" lon="-5.4947290">
        <ele>357.4</ele>
        <time>2019-07-09T07:47:05Z</time>
      </trkpt>
      <trkpt lat="39.7808530" lon="-5.4947640">
        <ele>357.6</ele>
        <time>2019-07-09T07:47:06Z</time>
      </trkpt>
      <trkpt lat="39.7807340" lon="-5.4949330">
        <ele>358.6</ele>
        <time>2019-07-09T07:47:11Z</time>
      </trkpt>
      <trkpt lat="39.7806430" lon="-5.4950720">
        <ele>359.4</ele>
        <time>2019-07-09T07:47:15Z</time>
      </trkpt>
      <trkpt lat="39.7805960" lon="-5.4951430">
        <ele>359.8</ele>
        <time>2019-07-09T07:47:17Z</time>
      </trkpt>
      <trkpt lat="39.7804460" lon="-5.4953490">
        <ele>360.4</ele>
        <time>2019-07-09T07:47:23Z</time>
      </trkpt>
      <trkpt lat="39.7803550" lon="-5.4954910">
        <ele>360.8</ele>
        <time>2019-07-09T07:47:27Z</time>
      </trkpt>
      <trkpt lat="39.7802340" lon="-5.4956660">
        <ele>361.8</ele>
        <time>2019-07-09T07:47:32Z</time>
      </trkpt>
      <trkpt lat="39.7800840" lon="-5.4958840">
        <ele>362.8</ele>
        <time>2019-07-09T07:47:38Z</time>
      </trkpt>
      <trkpt lat="39.7800080" lon="-5.4959990">
        <ele>363.4</ele>
        <time>2019-07-09T07:47:41Z</time>
      </trkpt>
      <trkpt lat="39.7799000" lon="-5.4961490">
        <ele>363.8</ele>
        <time>2019-07-09T07:47:45Z</time>
      </trkpt>
      <trkpt lat="39.7797660" lon="-5.4963390">
        <ele>365.0</ele>
        <time>2019-07-09T07:47:50Z</time>
      </trkpt>
      <trkpt lat="39.7796130" lon="-5.4965780">
        <ele>366.0</ele>
        <time>2019-07-09T07:47:56Z</time>
      </trkpt>
      <trkpt lat="39.7795870" lon="-5.4966190">
        <ele>366.2</ele>
        <time>2019-07-09T07:47:57Z</time>
      </trkpt>
      <trkpt lat="39.7794330" lon="-5.4968500">
        <ele>366.8</ele>
        <time>2019-07-09T07:48:03Z</time>
      </trkpt>
      <trkpt lat="39.7793800" lon="-5.4969260">
        <ele>367.2</ele>
        <time>2019-07-09T07:48:05Z</time>
      </trkpt>
      <trkpt lat="39.7792240" lon="-5.4971580">
        <ele>368.2</ele>
        <time>2019-07-09T07:48:11Z</time>
      </trkpt>
      <trkpt lat="39.7791990" lon="-5.4971990">
        <ele>368.2</ele>
        <time>2019-07-09T07:48:12Z</time>
      </trkpt>
      <trkpt lat="39.7790170" lon="-5.4974590">
        <ele>369.0</ele>
        <time>2019-07-09T07:48:19Z</time>
      </trkpt>
      <trkpt lat="39.7789700" lon="-5.4975370">
        <ele>369.4</ele>
        <time>2019-07-09T07:48:21Z</time>
      </trkpt>
      <trkpt lat="39.7788400" lon="-5.4977250">
        <ele>370.0</ele>
        <time>2019-07-09T07:48:26Z</time>
      </trkpt>
      <trkpt lat="39.7787880" lon="-5.4978000">
        <ele>370.4</ele>
        <time>2019-07-09T07:48:28Z</time>
      </trkpt>
      <trkpt lat="39.7786310" lon="-5.4980270">
        <ele>371.0</ele>
        <time>2019-07-09T07:48:34Z</time>
      </trkpt>
      <trkpt lat="39.7785550" lon="-5.4981470">
        <ele>371.4</ele>
        <time>2019-07-09T07:48:37Z</time>
      </trkpt>
      <trkpt lat="39.7784190" lon="-5.4983390">
        <ele>372.2</ele>
        <time>2019-07-09T07:48:42Z</time>
      </trkpt>
      <trkpt lat="39.7783700" lon="-5.4984200">
        <ele>372.4</ele>
        <time>2019-07-09T07:48:44Z</time>
      </trkpt>
      <trkpt lat="39.7782350" lon="-5.4986240">
        <ele>373.0</ele>
        <time>2019-07-09T07:48:49Z</time>
      </trkpt>
      <trkpt lat="39.7782090" lon="-5.4986680">
        <ele>373.2</ele>
        <time>2019-07-09T07:48:50Z</time>
      </trkpt>
      <trkpt lat="39.7781820" lon="-5.4987120">
        <ele>373.4</ele>
        <time>2019-07-09T07:48:51Z</time>
      </trkpt>
      <trkpt lat="39.7779780" lon="-5.4990020">
        <ele>374.2</ele>
        <time>2019-07-09T07:48:58Z</time>
      </trkpt>
      <trkpt lat="39.7779490" lon="-5.4990460">
        <ele>374.4</ele>
        <time>2019-07-09T07:48:59Z</time>
      </trkpt>
      <trkpt lat="39.7777860" lon="-5.4993110">
        <ele>375.4</ele>
        <time>2019-07-09T07:49:05Z</time>
      </trkpt>
      <trkpt lat="39.7777340" lon="-5.4994020">
        <ele>375.6</ele>
        <time>2019-07-09T07:49:07Z</time>
      </trkpt>
      <trkpt lat="39.7775710" lon="-5.4997420">
        <ele>376.4</ele>
        <time>2019-07-09T07:49:14Z</time>
      </trkpt>
      <trkpt lat="39.7775050" lon="-5.4998930">
        <ele>376.8</ele>
        <time>2019-07-09T07:49:17Z</time>
      </trkpt>
      <trkpt lat="39.7774160" lon="-5.5000980">
        <ele>377.6</ele>
        <time>2019-07-09T07:49:21Z</time>
      </trkpt>
      <trkpt lat="39.7773470" lon="-5.5002450">
        <ele>378.0</ele>
        <time>2019-07-09T07:49:24Z</time>
      </trkpt>
      <trkpt lat="39.7772390" lon="-5.5004850">
        <ele>378.6</ele>
        <time>2019-07-09T07:49:29Z</time>
      </trkpt>
      <trkpt lat="39.7771700" lon="-5.5006270">
        <ele>379.0</ele>
        <time>2019-07-09T07:49:32Z</time>
      </trkpt>
      <trkpt lat="39.7770340" lon="-5.5009770">
        <ele>379.8</ele>
        <time>2019-07-09T07:49:39Z</time>
      </trkpt>
      <trkpt lat="39.7770120" lon="-5.5010270">
        <ele>380.0</ele>
        <time>2019-07-09T07:49:40Z</time>
      </trkpt>
      <trkpt lat="39.7768490" lon="-5.5014180">
        <ele>381.0</ele>
        <time>2019-07-09T07:49:48Z</time>
      </trkpt>
      <trkpt lat="39.7768280" lon="-5.5014640">
        <ele>381.0</ele>
        <time>2019-07-09T07:49:49Z</time>
      </trkpt>
      <trkpt lat="39.7766810" lon="-5.5018020">
        <ele>382.0</ele>
        <time>2019-07-09T07:49:56Z</time>
      </trkpt>
      <trkpt lat="39.7766400" lon="-5.5019020">
        <ele>382.2</ele>
        <time>2019-07-09T07:49:58Z</time>
      </trkpt>
      <trkpt lat="39.7765150" lon="-5.5021980">
        <ele>383.0</ele>
        <time>2019-07-09T07:50:04Z</time>
      </trkpt>
      <trkpt lat="39.7764920" lon="-5.5022470">
        <ele>383.2</ele>
        <time>2019-07-09T07:50:05Z</time>
      </trkpt>
      <trkpt lat="39.7764690" lon="-5.5022960">
        <ele>383.2</ele>
        <time>2019-07-09T07:50:06Z</time>
      </trkpt>
      <trkpt lat="39.7763240" lon="-5.5026530">
        <ele>384.0</ele>
        <time>2019-07-09T07:50:13Z</time>
      </trkpt>
      <trkpt lat="39.7762830" lon="-5.5027550">
        <ele>384.2</ele>
        <time>2019-07-09T07:50:15Z</time>
      </trkpt>
      <trkpt lat="39.7761270" lon="-5.5031090">
        <ele>385.2</ele>
        <time>2019-07-09T07:50:22Z</time>
      </trkpt>
      <trkpt lat="39.7761070" lon="-5.5031620">
        <ele>385.4</ele>
        <time>2019-07-09T07:50:23Z</time>
      </trkpt>
      <trkpt lat="39.7759720" lon="-5.5034600">
        <ele>386.6</ele>
        <time>2019-07-09T07:50:29Z</time>
      </trkpt>
      <trkpt lat="39.7759500" lon="-5.5035110">
        <ele>386.8</ele>
        <time>2019-07-09T07:50:30Z</time>
      </trkpt>
      <trkpt lat="39.7757970" lon="-5.5038150">
        <ele>387.6</ele>
        <time>2019-07-09T07:50:36Z</time>
      </trkpt>
      <trkpt lat="39.7757390" lon="-5.5039090">
        <ele>387.8</ele>
        <time>2019-07-09T07:50:38Z</time>
      </trkpt>
      <trkpt lat="39.7755490" lon="-5.5041710">
        <ele>388.4</ele>
        <time>2019-07-09T07:50:44Z</time>
      </trkpt>
      <trkpt lat="39.7754790" lon="-5.5042540">
        <ele>388.6</ele>
        <time>2019-07-09T07:50:46Z</time>
      </trkpt>
      <trkpt lat="39.7752170" lon="-5.5045940">
        <ele>389.4</ele>
        <time>2019-07-09T07:50:54Z</time>
      </trkpt>
      <trkpt lat="39.7749470" lon="-5.5049270">
        <ele>390.4</ele>
        <time>2019-07-09T07:51:02Z</time>
      </trkpt>
      <trkpt lat="39.7748410" lon="-5.5050580">
        <ele>390.6</ele>
        <time>2019-07-09T07:51:05Z</time>
      </trkpt>
      <trkpt lat="39.7746180" lon="-5.5053160">
        <ele>390.6</ele>
        <time>2019-07-09T07:51:11Z</time>
      </trkpt>
      <trkpt lat="39.7743810" lon="-5.5056320">
        <ele>390.2</ele>
        <time>2019-07-09T07:51:18Z</time>
      </trkpt>
      <trkpt lat="39.7741940" lon="-5.5058590">
        <ele>389.6</ele>
        <time>2019-07-09T07:51:23Z</time>
      </trkpt>
      <trkpt lat="39.7741540" lon="-5.5059030">
        <ele>389.4</ele>
        <time>2019-07-09T07:51:24Z</time>
      </trkpt>
      <trkpt lat="39.7741170" lon="-5.5059470">
        <ele>389.4</ele>
        <time>2019-07-09T07:51:25Z</time>
      </trkpt>
      <trkpt lat="39.7740600" lon="-5.5060250">
        <ele>388.8</ele>
        <time>2019-07-09T07:51:28Z</time>
      </trkpt>
      <trkpt lat="39.7740440" lon="-5.5060370">
        <ele>388.6</ele>
        <time>2019-07-09T07:51:30Z</time>
      </trkpt>
      <trkpt lat="39.7740440" lon="-5.5060360">
        <ele>388.6</ele>
        <time>2019-07-09T07:51:31Z</time>
      </trkpt>
      <trkpt lat="39.7740260" lon="-5.5060800">
        <ele>388.4</ele>
        <time>2019-07-09T07:51:35Z</time>
      </trkpt>
      <trkpt lat="39.7740190" lon="-5.5061040">
        <ele>388.4</ele>
        <time>2019-07-09T07:51:36Z</time>
      </trkpt>
      <trkpt lat="39.7739850" lon="-5.5062110">
        <ele>388.0</ele>
        <time>2019-07-09T07:51:39Z</time>
      </trkpt>
      <trkpt lat="39.7739370" lon="-5.5063620">
        <ele>387.4</ele>
        <time>2019-07-09T07:51:42Z</time>
      </trkpt>
      <trkpt lat="39.7738840" lon="-5.5064840">
        <ele>386.8</ele>
        <time>2019-07-09T07:51:44Z</time>
      </trkpt>
      <trkpt lat="39.7738570" lon="-5.5065520">
        <ele>386.4</ele>
        <time>2019-07-09T07:51:45Z</time>
      </trkpt>
      <trkpt lat="39.7738350" lon="-5.5066240">
        <ele>386.2</ele>
        <time>2019-07-09T07:51:46Z</time>
      </trkpt>
      <trkpt lat="39.7737910" lon="-5.5067750">
        <ele>385.2</ele>
        <time>2019-07-09T07:51:48Z</time>
      </trkpt>
      <trkpt lat="39.7737690" lon="-5.5068520">
        <ele>384.8</ele>
        <time>2019-07-09T07:51:49Z</time>
      </trkpt>
      <trkpt lat="39.7737200" lon="-5.5070980">
        <ele>384.4</ele>
        <time>2019-07-09T07:51:52Z</time>
      </trkpt>
      <trkpt lat="39.7736920" lon="-5.5073620">
        <ele>383.4</ele>
        <time>2019-07-09T07:51:55Z</time>
      </trkpt>
      <trkpt lat="39.7737040" lon="-5.5076510">
        <ele>382.4</ele>
        <time>2019-07-09T07:51:58Z</time>
      </trkpt>
      <trkpt lat="39.7737010" lon="-5.5078450">
        <ele>382.0</ele>
        <time>2019-07-09T07:52:00Z</time>
      </trkpt>
      <trkpt lat="39.7736250" lon="-5.5081130">
        <ele>381.6</ele>
        <time>2019-07-09T07:52:03Z</time>
      </trkpt>
      <trkpt lat="39.7735400" lon="-5.5082600">
        <ele>381.2</ele>
        <time>2019-07-09T07:52:05Z</time>
      </trkpt>
      <trkpt lat="39.7734930" lon="-5.5084170">
        <ele>381.0</ele>
        <time>2019-07-09T07:52:07Z</time>
      </trkpt>
      <trkpt lat="39.7735380" lon="-5.5086660">
        <ele>380.4</ele>
        <time>2019-07-09T07:52:10Z</time>
      </trkpt>
      <trkpt lat="39.7735740" lon="-5.5087440">
        <ele>380.2</ele>
        <time>2019-07-09T07:52:11Z</time>
      </trkpt>
      <trkpt lat="39.7736150" lon="-5.5088230">
        <ele>380.0</ele>
        <time>2019-07-09T07:52:12Z</time>
      </trkpt>
      <trkpt lat="39.7737500" lon="-5.5090580">
        <ele>379.2</ele>
        <time>2019-07-09T07:52:15Z</time>
      </trkpt>
      <trkpt lat="39.7738940" lon="-5.5093030">
        <ele>378.2</ele>
        <time>2019-07-09T07:52:18Z</time>
      </trkpt>
      <trkpt lat="39.7739360" lon="-5.5093940">
        <ele>377.4</ele>
        <time>2019-07-09T07:52:19Z</time>
      </trkpt>
      <trkpt lat="39.7739700" lon="-5.5094870">
        <ele>377.0</ele>
        <time>2019-07-09T07:52:20Z</time>
      </trkpt>
      <trkpt lat="39.7739940" lon="-5.5095850">
        <ele>376.6</ele>
        <time>2019-07-09T07:52:21Z</time>
      </trkpt>
      <trkpt lat="39.7739710" lon="-5.5098840">
        <ele>376.0</ele>
        <time>2019-07-09T07:52:24Z</time>
      </trkpt>
      <trkpt lat="39.7738200" lon="-5.5102090">
        <ele>375.8</ele>
        <time>2019-07-09T07:52:28Z</time>
      </trkpt>
      <trkpt lat="39.7737370" lon="-5.5103670">
        <ele>375.4</ele>
        <time>2019-07-09T07:52:30Z</time>
      </trkpt>
      <trkpt lat="39.7736170" lon="-5.5104860">
        <ele>374.8</ele>
        <time>2019-07-09T07:52:32Z</time>
      </trkpt>
      <trkpt lat="39.7734020" lon="-5.5106070">
        <ele>373.6</ele>
        <time>2019-07-09T07:52:35Z</time>
      </trkpt>
      <trkpt lat="39.7733300" lon="-5.5106540">
        <ele>373.2</ele>
        <time>2019-07-09T07:52:36Z</time>
      </trkpt>
      <trkpt lat="39.7731970" lon="-5.5107810">
        <ele>372.4</ele>
        <time>2019-07-09T07:52:38Z</time>
      </trkpt>
      <trkpt lat="39.7731350" lon="-5.5108580">
        <ele>371.8</ele>
        <time>2019-07-09T07:52:39Z</time>
      </trkpt>
      <trkpt lat="39.7730720" lon="-5.5109380">
        <ele>371.4</ele>
        <time>2019-07-09T07:52:40Z</time>
      </trkpt>
      <trkpt lat="39.7729460" lon="-5.5111050">
        <ele>370.0</ele>
        <time>2019-07-09T07:52:42Z</time>
      </trkpt>
      <trkpt lat="39.7728250" lon="-5.5112650">
        <ele>368.8</ele>
        <time>2019-07-09T07:52:44Z</time>
      </trkpt>
      <trkpt lat="39.7727190" lon="-5.5114320">
        <ele>367.8</ele>
        <time>2019-07-09T07:52:46Z</time>
      </trkpt>
      <trkpt lat="39.7726750" lon="-5.5115270">
        <ele>367.6</ele>
        <time>2019-07-09T07:52:47Z</time>
      </trkpt>
      <trkpt lat="39.7726110" lon="-5.5117180">
        <ele>366.0</ele>
        <time>2019-07-09T07:52:49Z</time>
      </trkpt>
      <trkpt lat="39.7725980" lon="-5.5118080">
        <ele>365.2</ele>
        <time>2019-07-09T07:52:50Z</time>
      </trkpt>
      <trkpt lat="39.7725970" lon="-5.5118980">
        <ele>364.4</ele>
        <time>2019-07-09T07:52:51Z</time>
      </trkpt>
      <trkpt lat="39.7725970" lon="-5.5119890">
        <ele>364.0</ele>
        <time>2019-07-09T07:52:52Z</time>
      </trkpt>
      <trkpt lat="39.7725910" lon="-5.5120870">
        <ele>363.4</ele>
        <time>2019-07-09T07:52:53Z</time>
      </trkpt>
      <trkpt lat="39.7725710" lon="-5.5121870">
        <ele>363.0</ele>
        <time>2019-07-09T07:52:54Z</time>
      </trkpt>
      <trkpt lat="39.7725030" lon="-5.5123640">
        <ele>362.0</ele>
        <time>2019-07-09T07:52:56Z</time>
      </trkpt>
      <trkpt lat="39.7724730" lon="-5.5124440">
        <ele>361.4</ele>
        <time>2019-07-09T07:52:57Z</time>
      </trkpt>
      <trkpt lat="39.7724590" lon="-5.5125290">
        <ele>360.8</ele>
        <time>2019-07-09T07:52:58Z</time>
      </trkpt>
      <trkpt lat="39.7724890" lon="-5.5127020">
        <ele>360.4</ele>
        <time>2019-07-09T07:53:00Z</time>
      </trkpt>
      <trkpt lat="39.7725300" lon="-5.5127730">
        <ele>359.8</ele>
        <time>2019-07-09T07:53:01Z</time>
      </trkpt>
      <trkpt lat="39.7726390" lon="-5.5128880">
        <ele>359.0</ele>
        <time>2019-07-09T07:53:03Z</time>
      </trkpt>
      <trkpt lat="39.7726980" lon="-5.5129460">
        <ele>358.6</ele>
        <time>2019-07-09T07:53:04Z</time>
      </trkpt>
      <trkpt lat="39.7727550" lon="-5.5130120">
        <ele>358.4</ele>
        <time>2019-07-09T07:53:05Z</time>
      </trkpt>
      <trkpt lat="39.7728560" lon="-5.5131720">
        <ele>357.4</ele>
        <time>2019-07-09T07:53:07Z</time>
      </trkpt>
      <trkpt lat="39.7729220" lon="-5.5133630">
        <ele>356.2</ele>
        <time>2019-07-09T07:53:09Z</time>
      </trkpt>
      <trkpt lat="39.7729340" lon="-5.5134640">
        <ele>355.6</ele>
        <time>2019-07-09T07:53:10Z</time>
      </trkpt>
      <trkpt lat="39.7729300" lon="-5.5135660">
        <ele>354.8</ele>
        <time>2019-07-09T07:53:11Z</time>
      </trkpt>
      <trkpt lat="39.7728860" lon="-5.5137700">
        <ele>354.0</ele>
        <time>2019-07-09T07:53:13Z</time>
      </trkpt>
      <trkpt lat="39.7728510" lon="-5.5138710">
        <ele>353.8</ele>
        <time>2019-07-09T07:53:14Z</time>
      </trkpt>
      <trkpt lat="39.7727050" lon="-5.5141600">
        <ele>352.6</ele>
        <time>2019-07-09T07:53:17Z</time>
      </trkpt>
      <trkpt lat="39.7725220" lon="-5.5144380">
        <ele>351.0</ele>
        <time>2019-07-09T07:53:20Z</time>
      </trkpt>
      <trkpt lat="39.7723810" lon="-5.5146110">
        <ele>349.6</ele>
        <time>2019-07-09T07:53:22Z</time>
      </trkpt>
      <trkpt lat="39.7721600" lon="-5.5148560">
        <ele>348.0</ele>
        <time>2019-07-09T07:53:25Z</time>
      </trkpt>
      <trkpt lat="39.7719420" lon="-5.5150680">
        <ele>347.2</ele>
        <time>2019-07-09T07:53:28Z</time>
      </trkpt>
      <trkpt lat="39.7718760" lon="-5.5151200">
        <ele>347.0</ele>
        <time>2019-07-09T07:53:29Z</time>
      </trkpt>
      <trkpt lat="39.7717790" lon="-5.5152040">
        <ele>346.8</ele>
        <time>2019-07-09T07:53:31Z</time>
      </trkpt>
      <trkpt lat="39.7716880" lon="-5.5152980">
        <ele>347.6</ele>
        <time>2019-07-09T07:53:35Z</time>
      </trkpt>
      <trkpt lat="39.7715860" lon="-5.5153590">
        <ele>347.8</ele>
        <time>2019-07-09T07:53:38Z</time>
      </trkpt>
      <trkpt lat="39.7715350" lon="-5.5153810">
        <ele>347.4</ele>
        <time>2019-07-09T07:53:39Z</time>
      </trkpt>
      <trkpt lat="39.7714850" lon="-5.5154100">
        <ele>346.8</ele>
        <time>2019-07-09T07:53:40Z</time>
      </trkpt>
      <trkpt lat="39.7714230" lon="-5.5154940">
        <ele>346.2</ele>
        <time>2019-07-09T07:53:42Z</time>
      </trkpt>
      <trkpt lat="39.7714110" lon="-5.5155440">
        <ele>345.8</ele>
        <time>2019-07-09T07:53:43Z</time>
      </trkpt>
      <trkpt lat="39.7714160" lon="-5.5157290">
        <ele>345.0</ele>
        <time>2019-07-09T07:53:46Z</time>
      </trkpt>
      <trkpt lat="39.7714320" lon="-5.5157980">
        <ele>344.6</ele>
        <time>2019-07-09T07:53:47Z</time>
      </trkpt>
      <trkpt lat="39.7715220" lon="-5.5160140">
        <ele>343.6</ele>
        <time>2019-07-09T07:53:50Z</time>
      </trkpt>
      <trkpt lat="39.7716720" lon="-5.5161910">
        <ele>342.6</ele>
        <time>2019-07-09T07:53:53Z</time>
      </trkpt>
      <trkpt lat="39.7717230" lon="-5.5162370">
        <ele>342.2</ele>
        <time>2019-07-09T07:53:54Z</time>
      </trkpt>
      <trkpt lat="39.7718050" lon="-5.5163220">
        <ele>341.0</ele>
        <time>2019-07-09T07:53:56Z</time>
      </trkpt>
      <trkpt lat="39.7718350" lon="-5.5163600">
        <ele>340.4</ele>
        <time>2019-07-09T07:53:57Z</time>
      </trkpt>
      <trkpt lat="39.7718590" lon="-5.5163870">
        <ele>339.6</ele>
        <time>2019-07-09T07:53:58Z</time>
      </trkpt>
      <trkpt lat="39.7719110" lon="-5.5164950">
        <ele>338.6</ele>
        <time>2019-07-09T07:54:01Z</time>
      </trkpt>
      <trkpt lat="39.7719370" lon="-5.5165410">
        <ele>338.4</ele>
        <time>2019-07-09T07:54:02Z</time>
      </trkpt>
      <trkpt lat="39.7719900" lon="-5.5166490">
        <ele>337.6</ele>
        <time>2019-07-09T07:54:04Z</time>
      </trkpt>
      <trkpt lat="39.7720130" lon="-5.5167150">
        <ele>337.2</ele>
        <time>2019-07-09T07:54:05Z</time>
      </trkpt>
      <trkpt lat="39.7720660" lon="-5.5168580">
        <ele>336.2</ele>
        <time>2019-07-09T07:54:07Z</time>
      </trkpt>
      <trkpt lat="39.7721780" lon="-5.5170850">
        <ele>334.8</ele>
        <time>2019-07-09T07:54:10Z</time>
      </trkpt>
      <trkpt lat="39.7722210" lon="-5.5171490">
        <ele>334.2</ele>
        <time>2019-07-09T07:54:11Z</time>
      </trkpt>
      <trkpt lat="39.7723120" lon="-5.5172360">
        <ele>333.4</ele>
        <time>2019-07-09T07:54:13Z</time>
      </trkpt>
      <trkpt lat="39.7725100" lon="-5.5172800">
        <ele>332.6</ele>
        <time>2019-07-09T07:54:17Z</time>
      </trkpt>
      <trkpt lat="39.7725480" lon="-5.5172940">
        <ele>331.8</ele>
        <time>2019-07-09T07:54:18Z</time>
      </trkpt>
      <trkpt lat="39.7725820" lon="-5.5173220">
        <ele>331.4</ele>
        <time>2019-07-09T07:54:19Z</time>
      </trkpt>
      <trkpt lat="39.7726420" lon="-5.5173920">
        <ele>330.6</ele>
        <time>2019-07-09T07:54:21Z</time>
      </trkpt>
      <trkpt lat="39.7727340" lon="-5.5175140">
        <ele>329.0</ele>
        <time>2019-07-09T07:54:25Z</time>
      </trkpt>
      <trkpt lat="39.7727520" lon="-5.5175520">
        <ele>328.2</ele>
        <time>2019-07-09T07:54:26Z</time>
      </trkpt>
      <trkpt lat="39.7727710" lon="-5.5176020">
        <ele>327.4</ele>
        <time>2019-07-09T07:54:27Z</time>
      </trkpt>
      <trkpt lat="39.7728230" lon="-5.5177360">
        <ele>326.0</ele>
        <time>2019-07-09T07:54:30Z</time>
      </trkpt>
      <trkpt lat="39.7728490" lon="-5.5178580">
        <ele>325.0</ele>
        <time>2019-07-09T07:54:33Z</time>
      </trkpt>
      <trkpt lat="39.7728630" lon="-5.5179090">
        <ele>324.0</ele>
        <time>2019-07-09T07:54:34Z</time>
      </trkpt>
      <trkpt lat="39.7728730" lon="-5.5180080">
        <ele>322.8</ele>
        <time>2019-07-09T07:54:36Z</time>
      </trkpt>
      <trkpt lat="39.7728690" lon="-5.5181040">
        <ele>322.2</ele>
        <time>2019-07-09T07:54:38Z</time>
      </trkpt>
      <trkpt lat="39.7728630" lon="-5.5181460">
        <ele>321.8</ele>
        <time>2019-07-09T07:54:39Z</time>
      </trkpt>
      <trkpt lat="39.7728530" lon="-5.5182360">
        <ele>320.4</ele>
        <time>2019-07-09T07:54:41Z</time>
      </trkpt>
      <trkpt lat="39.7728440" lon="-5.5183220">
        <ele>318.6</ele>
        <time>2019-07-09T07:54:43Z</time>
      </trkpt>
      <trkpt lat="39.7728440" lon="-5.5183530">
        <ele>318.0</ele>
        <time>2019-07-09T07:54:44Z</time>
      </trkpt>
      <trkpt lat="39.7728480" lon="-5.5183760">
        <ele>317.6</ele>
        <time>2019-07-09T07:54:45Z</time>
      </trkpt>
      <trkpt lat="39.7728330" lon="-5.5183750">
        <ele>317.2</ele>
        <time>2019-07-09T07:54:47Z</time>
      </trkpt>
      <trkpt lat="39.7728140" lon="-5.5183610">
        <ele>317.2</ele>
        <time>2019-07-09T07:54:48Z</time>
      </trkpt>
      <trkpt lat="39.7727940" lon="-5.5183480">
        <ele>317.0</ele>
        <time>2019-07-09T07:54:53Z</time>
      </trkpt>
      <trkpt lat="39.7727740" lon="-5.5183350">
        <ele>316.8</ele>
        <time>2019-07-09T07:54:54Z</time>
      </trkpt>
      <trkpt lat="39.7727210" lon="-5.5183280">
        <ele>316.4</ele>
        <time>2019-07-09T07:54:55Z</time>
      </trkpt>
      <trkpt lat="39.7726180" lon="-5.5183490">
        <ele>315.4</ele>
        <time>2019-07-09T07:54:57Z</time>
      </trkpt>
      <trkpt lat="39.7725750" lon="-5.5183880">
        <ele>314.6</ele>
        <time>2019-07-09T07:54:58Z</time>
      </trkpt>
      <trkpt lat="39.7725430" lon="-5.5184440">
        <ele>314.2</ele>
        <time>2019-07-09T07:54:59Z</time>
      </trkpt>
      <trkpt lat="39.7725180" lon="-5.5185090">
        <ele>313.8</ele>
        <time>2019-07-09T07:55:00Z</time>
      </trkpt>
      <trkpt lat="39.7724930" lon="-5.5185710">
        <ele>313.4</ele>
        <time>2019-07-09T07:55:01Z</time>
      </trkpt>
      <trkpt lat="39.7724710" lon="-5.5186280">
        <ele>313.2</ele>
        <time>2019-07-09T07:55:02Z</time>
      </trkpt>
      <trkpt lat="39.7724120" lon="-5.5188340">
        <ele>312.4</ele>
        <time>2019-07-09T07:55:06Z</time>
      </trkpt>
      <trkpt lat="39.7724000" lon="-5.5188850">
        <ele>312.0</ele>
        <time>2019-07-09T07:55:08Z</time>
      </trkpt>
      <trkpt lat="39.7723730" lon="-5.5189880">
        <ele>311.8</ele>
        <time>2019-07-09T07:55:11Z</time>
      </trkpt>
      <trkpt lat="39.7722820" lon="-5.5192310">
        <ele>311.8</ele>
        <time>2019-07-09T07:55:17Z</time>
      </trkpt>
      <trkpt lat="39.7721630" lon="-5.5193110">
        <ele>311.0</ele>
        <time>2019-07-09T07:55:21Z</time>
      </trkpt>
      <trkpt lat="39.7721050" lon="-5.5193120">
        <ele>309.8</ele>
        <time>2019-07-09T07:55:23Z</time>
      </trkpt>
      <trkpt lat="39.7720130" lon="-5.5193210">
        <ele>308.8</ele>
        <time>2019-07-09T07:55:26Z</time>
      </trkpt>
      <trkpt lat="39.7719810" lon="-5.5193210">
        <ele>308.6</ele>
        <time>2019-07-09T07:55:27Z</time>
      </trkpt>
      <trkpt lat="39.7718870" lon="-5.5192980">
        <ele>307.2</ele>
        <time>2019-07-09T07:55:31Z</time>
      </trkpt>
      <trkpt lat="39.7718050" lon="-5.5192780">
        <ele>306.4</ele>
        <time>2019-07-09T07:55:35Z</time>
      </trkpt>
      <trkpt lat="39.7717680" lon="-5.5192950">
        <ele>306.0</ele>
        <time>2019-07-09T07:55:37Z</time>
      </trkpt>
      <trkpt lat="39.7717240" lon="-5.5193330">
        <ele>305.0</ele>
        <time>2019-07-09T07:55:40Z</time>
      </trkpt>
      <trkpt lat="39.7717210" lon="-5.5193340">
        <ele>304.8</ele>
        <time>2019-07-09T07:55:41Z</time>
      </trkpt>
      <trkpt lat="39.7717950" lon="-5.5192960">
        <ele>305.4</ele>
        <time>2019-07-09T07:56:10Z</time>
      </trkpt>
      <trkpt lat="39.7718360" lon="-5.5192930">
        <ele>305.6</ele>
        <time>2019-07-09T07:56:13Z</time>
      </trkpt>
      <trkpt lat="39.7718730" lon="-5.5192960">
        <ele>306.0</ele>
        <time>2019-07-09T07:56:17Z</time>
      </trkpt>
      <trkpt lat="39.7718760" lon="-5.5192980">
        <ele>306.2</ele>
        <time>2019-07-09T07:56:18Z</time>
      </trkpt>
      <trkpt lat="39.7718920" lon="-5.5193070">
        <ele>306.8</ele>
        <time>2019-07-09T07:56:20Z</time>
      </trkpt>
      <trkpt lat="39.7719210" lon="-5.5193160">
        <ele>307.4</ele>
        <time>2019-07-09T07:56:23Z</time>
      </trkpt>
      <trkpt lat="39.7719340" lon="-5.5193140">
        <ele>307.6</ele>
        <time>2019-07-09T07:56:26Z</time>
      </trkpt>
      <trkpt lat="39.7719370" lon="-5.5193150">
        <ele>307.6</ele>
        <time>2019-07-09T07:56:27Z</time>
      </trkpt>
      <trkpt lat="39.7722660" lon="-5.5192200">
        <ele>310.8</ele>
        <time>2019-07-09T07:57:05Z</time>
      </trkpt>
      <trkpt lat="39.7722760" lon="-5.5192090">
        <ele>310.8</ele>
        <time>2019-07-09T07:57:06Z</time>
      </trkpt>
      <trkpt lat="39.7722850" lon="-5.5192020">
        <ele>311.0</ele>
        <time>2019-07-09T07:57:07Z</time>
      </trkpt>
      <trkpt lat="39.7723220" lon="-5.5191540">
        <ele>311.4</ele>
        <time>2019-07-09T07:57:14Z</time>
      </trkpt>
      <trkpt lat="39.7723420" lon="-5.5191050">
        <ele>311.8</ele>
        <time>2019-07-09T07:57:20Z</time>
      </trkpt>
      <trkpt lat="39.7723590" lon="-5.5190350">
        <ele>311.6</ele>
        <time>2019-07-09T07:57:23Z</time>
      </trkpt>
      <trkpt lat="39.7723640" lon="-5.5190050">
        <ele>311.6</ele>
        <time>2019-07-09T07:57:24Z</time>
      </trkpt>
      <trkpt lat="39.7723790" lon="-5.5189390">
        <ele>312.0</ele>
        <time>2019-07-09T07:57:26Z</time>
      </trkpt>
      <trkpt lat="39.7724090" lon="-5.5188340">
        <ele>311.8</ele>
        <time>2019-07-09T07:57:29Z</time>
      </trkpt>
      <trkpt lat="39.7724290" lon="-5.5187620">
        <ele>311.8</ele>
        <time>2019-07-09T07:57:31Z</time>
      </trkpt>
      <trkpt lat="39.7724610" lon="-5.5186610">
        <ele>312.0</ele>
        <time>2019-07-09T07:57:34Z</time>
      </trkpt>
      <trkpt lat="39.7725040" lon="-5.5185290">
        <ele>312.8</ele>
        <time>2019-07-09T07:57:38Z</time>
      </trkpt>
      <trkpt lat="39.7725660" lon="-5.5183870">
        <ele>313.2</ele>
        <time>2019-07-09T07:57:42Z</time>
      </trkpt>
      <trkpt lat="39.7726290" lon="-5.5183020">
        <ele>313.6</ele>
        <time>2019-07-09T07:57:45Z</time>
      </trkpt>
      <trkpt lat="39.7726990" lon="-5.5182880">
        <ele>314.2</ele>
        <time>2019-07-09T07:57:48Z</time>
      </trkpt>
      <trkpt lat="39.7727210" lon="-5.5182880">
        <ele>314.4</ele>
        <time>2019-07-09T07:57:49Z</time>
      </trkpt>
      <trkpt lat="39.7727840" lon="-5.5182890">
        <ele>315.2</ele>
        <time>2019-07-09T07:57:52Z</time>
      </trkpt>
      <trkpt lat="39.7728060" lon="-5.5183000">
        <ele>315.4</ele>
        <time>2019-07-09T07:57:53Z</time>
      </trkpt>
      <trkpt lat="39.7728470" lon="-5.5183260">
        <ele>316.2</ele>
        <time>2019-07-09T07:57:55Z</time>
      </trkpt>
      <trkpt lat="39.7728600" lon="-5.5183450">
        <ele>316.4</ele>
        <time>2019-07-09T07:57:56Z</time>
      </trkpt>
      <trkpt lat="39.7728700" lon="-5.5183700">
        <ele>316.8</ele>
        <time>2019-07-09T07:57:57Z</time>
      </trkpt>
      <trkpt lat="39.7728800" lon="-5.5184300">
        <ele>317.6</ele>
        <time>2019-07-09T07:57:59Z</time>
      </trkpt>
      <trkpt lat="39.7728790" lon="-5.5184630">
        <ele>317.8</ele>
        <time>2019-07-09T07:58:00Z</time>
      </trkpt>
      <trkpt lat="39.7728750" lon="-5.5184980">
        <ele>318.0</ele>
        <time>2019-07-09T07:58:01Z</time>
      </trkpt>
      <trkpt lat="39.7728570" lon="-5.5185590">
        <ele>318.8</ele>
        <time>2019-07-09T07:58:03Z</time>
      </trkpt>
      <trkpt lat="39.7728330" lon="-5.5186450">
        <ele>319.8</ele>
        <time>2019-07-09T07:58:06Z</time>
      </trkpt>
      <trkpt lat="39.7728280" lon="-5.5186740">
        <ele>320.2</ele>
        <time>2019-07-09T07:58:07Z</time>
      </trkpt>
      <trkpt lat="39.7728160" lon="-5.5187610">
        <ele>321.4</ele>
        <time>2019-07-09T07:58:10Z</time>
      </trkpt>
      <trkpt lat="39.7728040" lon="-5.5188160">
        <ele>322.2</ele>
        <time>2019-07-09T07:58:12Z</time>
      </trkpt>
      <trkpt lat="39.7727990" lon="-5.5188740">
        <ele>323.2</ele>
        <time>2019-07-09T07:58:14Z</time>
      </trkpt>
      <trkpt lat="39.7727760" lon="-5.5189500">
        <ele>324.4</ele>
        <time>2019-07-09T07:58:17Z</time>
      </trkpt>
      <trkpt lat="39.7727530" lon="-5.5190110">
        <ele>324.6</ele>
        <time>2019-07-09T07:58:20Z</time>
      </trkpt>
      <trkpt lat="39.7727500" lon="-5.5191190">
        <ele>324.8</ele>
        <time>2019-07-09T07:58:25Z</time>
      </trkpt>
      <trkpt lat="39.7727070" lon="-5.5191730">
        <ele>325.0</ele>
        <time>2019-07-09T07:58:27Z</time>
      </trkpt>
      <trkpt lat="39.7726270" lon="-5.5192680">
        <ele>325.0</ele>
        <time>2019-07-09T07:58:30Z</time>
      </trkpt>
      <trkpt lat="39.7723350" lon="-5.5195270">
        <ele>324.4</ele>
        <time>2019-07-09T07:58:38Z</time>
      </trkpt>
      <trkpt lat="39.7722160" lon="-5.5196240">
        <ele>324.2</ele>
        <time>2019-07-09T07:58:41Z</time>
      </trkpt>
      <trkpt lat="39.7720950" lon="-5.5197250">
        <ele>324.4</ele>
        <time>2019-07-09T07:58:44Z</time>
      </trkpt>
      <trkpt lat="39.7720150" lon="-5.5197940">
        <ele>324.4</ele>
        <time>2019-07-09T07:58:46Z</time>
      </trkpt>
      <trkpt lat="39.7719400" lon="-5.5198730">
        <ele>324.4</ele>
        <time>2019-07-09T07:58:48Z</time>
      </trkpt>
      <trkpt lat="39.7718620" lon="-5.5199500">
        <ele>324.4</ele>
        <time>2019-07-09T07:58:50Z</time>
      </trkpt>
      <trkpt lat="39.7717420" lon="-5.5200600">
        <ele>324.6</ele>
        <time>2019-07-09T07:58:53Z</time>
      </trkpt>
      <trkpt lat="39.7717020" lon="-5.5200940">
        <ele>324.6</ele>
        <time>2019-07-09T07:58:54Z</time>
      </trkpt>
      <trkpt lat="39.7716150" lon="-5.5201550">
        <ele>324.6</ele>
        <time>2019-07-09T07:58:56Z</time>
      </trkpt>
      <trkpt lat="39.7714460" lon="-5.5202690">
        <ele>324.8</ele>
        <time>2019-07-09T07:59:00Z</time>
      </trkpt>
      <trkpt lat="39.7712810" lon="-5.5203250">
        <ele>325.4</ele>
        <time>2019-07-09T07:59:04Z</time>
      </trkpt>
      <trkpt lat="39.7712010" lon="-5.5203320">
        <ele>325.8</ele>
        <time>2019-07-09T07:59:06Z</time>
      </trkpt>
      <trkpt lat="39.7710220" lon="-5.5203620">
        <ele>326.6</ele>
        <time>2019-07-09T07:59:11Z</time>
      </trkpt>
      <trkpt lat="39.7708920" lon="-5.5203730">
        <ele>327.4</ele>
        <time>2019-07-09T07:59:15Z</time>
      </trkpt>
      <trkpt lat="39.7708290" lon="-5.5203830">
        <ele>327.8</ele>
        <time>2019-07-09T07:59:17Z</time>
      </trkpt>
      <trkpt lat="39.7707390" lon="-5.5204070">
        <ele>328.6</ele>
        <time>2019-07-09T07:59:20Z</time>
      </trkpt>
      <trkpt lat="39.7707090" lon="-5.5204170">
        <ele>329.0</ele>
        <time>2019-07-09T07:59:21Z</time>
      </trkpt>
      <trkpt lat="39.7706210" lon="-5.5204480">
        <ele>330.0</ele>
        <time>2019-07-09T07:59:24Z</time>
      </trkpt>
      <trkpt lat="39.7705940" lon="-5.5204630">
        <ele>330.2</ele>
        <time>2019-07-09T07:59:25Z</time>
      </trkpt>
      <trkpt lat="39.7704420" lon="-5.5205720">
        <ele>331.4</ele>
        <time>2019-07-09T07:59:31Z</time>
      </trkpt>
      <trkpt lat="39.7703150" lon="-5.5207250">
        <ele>332.4</ele>
        <time>2019-07-09T07:59:37Z</time>
      </trkpt>
      <trkpt lat="39.7702760" lon="-5.5207770">
        <ele>333.0</ele>
        <time>2019-07-09T07:59:39Z</time>
      </trkpt>
      <trkpt lat="39.7702310" lon="-5.5208170">
        <ele>333.4</ele>
        <time>2019-07-09T07:59:41Z</time>
      </trkpt>
      <trkpt lat="39.7701570" lon="-5.5209020">
        <ele>334.0</ele>
        <time>2019-07-09T07:59:45Z</time>
      </trkpt>
      <trkpt lat="39.7701370" lon="-5.5209510">
        <ele>334.6</ele>
        <time>2019-07-09T07:59:47Z</time>
      </trkpt>
      <trkpt lat="39.7701250" lon="-5.5210530">
        <ele>335.2</ele>
        <time>2019-07-09T07:59:50Z</time>
      </trkpt>
      <trkpt lat="39.7700820" lon="-5.5212510">
        <ele>335.6</ele>
        <time>2019-07-09T07:59:55Z</time>
      </trkpt>
      <trkpt lat="39.7700550" lon="-5.5214460">
        <ele>336.6</ele>
        <time>2019-07-09T08:00:00Z</time>
      </trkpt>
      <trkpt lat="39.7700520" lon="-5.5215590">
        <ele>337.4</ele>
        <time>2019-07-09T08:00:03Z</time>
      </trkpt>
      <trkpt lat="39.7700560" lon="-5.5216340">
        <ele>337.8</ele>
        <time>2019-07-09T08:00:05Z</time>
      </trkpt>
      <trkpt lat="39.7700770" lon="-5.5218210">
        <ele>338.8</ele>
        <time>2019-07-09T08:00:10Z</time>
      </trkpt>
      <trkpt lat="39.7700940" lon="-5.5218960">
        <ele>339.4</ele>
        <time>2019-07-09T08:00:12Z</time>
      </trkpt>
      <trkpt lat="39.7701220" lon="-5.5220050">
        <ele>340.0</ele>
        <time>2019-07-09T08:00:15Z</time>
      </trkpt>
      <trkpt lat="39.7701910" lon="-5.5221820">
        <ele>341.0</ele>
        <time>2019-07-09T08:00:20Z</time>
      </trkpt>
      <trkpt lat="39.7702940" lon="-5.5223680">
        <ele>342.2</ele>
        <time>2019-07-09T08:00:26Z</time>
      </trkpt>
      <trkpt lat="39.7703160" lon="-5.5223960">
        <ele>342.4</ele>
        <time>2019-07-09T08:00:27Z</time>
      </trkpt>
      <trkpt lat="39.7704170" lon="-5.5225330">
        <ele>343.6</ele>
        <time>2019-07-09T08:00:32Z</time>
      </trkpt>
      <trkpt lat="39.7704410" lon="-5.5225540">
        <ele>343.8</ele>
        <time>2019-07-09T08:00:33Z</time>
      </trkpt>
      <trkpt lat="39.7705300" lon="-5.5226500">
        <ele>344.6</ele>
        <time>2019-07-09T08:00:37Z</time>
      </trkpt>
      <trkpt lat="39.7706210" lon="-5.5227460">
        <ele>345.4</ele>
        <time>2019-07-09T08:00:41Z</time>
      </trkpt>
      <trkpt lat="39.7706420" lon="-5.5227740">
        <ele>345.6</ele>
        <time>2019-07-09T08:00:42Z</time>
      </trkpt>
      <trkpt lat="39.7706860" lon="-5.5228260">
        <ele>346.2</ele>
        <time>2019-07-09T08:00:44Z</time>
      </trkpt>
      <trkpt lat="39.7707550" lon="-5.5229030">
        <ele>346.8</ele>
        <time>2019-07-09T08:00:47Z</time>
      </trkpt>
      <trkpt lat="39.7708490" lon="-5.5229960">
        <ele>347.6</ele>
        <time>2019-07-09T08:00:51Z</time>
      </trkpt>
      <trkpt lat="39.7708850" lon="-5.5230570">
        <ele>348.0</ele>
        <time>2019-07-09T08:00:53Z</time>
      </trkpt>
      <trkpt lat="39.7709610" lon="-5.5232200">
        <ele>349.2</ele>
        <time>2019-07-09T08:00:58Z</time>
      </trkpt>
      <trkpt lat="39.7710160" lon="-5.5234050">
        <ele>350.2</ele>
        <time>2019-07-09T08:01:03Z</time>
      </trkpt>
      <trkpt lat="39.7710260" lon="-5.5234410">
        <ele>350.4</ele>
        <time>2019-07-09T08:01:04Z</time>
      </trkpt>
      <trkpt lat="39.7710370" lon="-5.5235980">
        <ele>351.4</ele>
        <time>2019-07-09T08:01:08Z</time>
      </trkpt>
      <trkpt lat="39.7710330" lon="-5.5237170">
        <ele>352.0</ele>
        <time>2019-07-09T08:01:11Z</time>
      </trkpt>
      <trkpt lat="39.7710220" lon="-5.5237960">
        <ele>352.6</ele>
        <time>2019-07-09T08:01:13Z</time>
      </trkpt>
      <trkpt lat="39.7709820" lon="-5.5239900">
        <ele>353.6</ele>
        <time>2019-07-09T08:01:18Z</time>
      </trkpt>
      <trkpt lat="39.7709590" lon="-5.5240630">
        <ele>354.2</ele>
        <time>2019-07-09T08:01:20Z</time>
      </trkpt>
      <trkpt lat="39.7709090" lon="-5.5241630">
        <ele>354.8</ele>
        <time>2019-07-09T08:01:23Z</time>
      </trkpt>
      <trkpt lat="39.7708340" lon="-5.5242810">
        <ele>355.8</ele>
        <time>2019-07-09T08:01:27Z</time>
      </trkpt>
      <trkpt lat="39.7708120" lon="-5.5243090">
        <ele>356.0</ele>
        <time>2019-07-09T08:01:28Z</time>
      </trkpt>
      <trkpt lat="39.7706800" lon="-5.5244560">
        <ele>357.2</ele>
        <time>2019-07-09T08:01:34Z</time>
      </trkpt>
      <trkpt lat="39.7706540" lon="-5.5244730">
        <ele>357.6</ele>
        <time>2019-07-09T08:01:35Z</time>
      </trkpt>
      <trkpt lat="39.7705420" lon="-5.5245300">
        <ele>358.4</ele>
        <time>2019-07-09T08:01:39Z</time>
      </trkpt>
      <trkpt lat="39.7704260" lon="-5.5245750">
        <ele>359.2</ele>
        <time>2019-07-09T08:01:43Z</time>
      </trkpt>
      <trkpt lat="39.7703690" lon="-5.5245890">
        <ele>359.4</ele>
        <time>2019-07-09T08:01:45Z</time>
      </trkpt>
      <trkpt lat="39.7702820" lon="-5.5245810">
        <ele>360.2</ele>
        <time>2019-07-09T08:01:48Z</time>
      </trkpt>
      <trkpt lat="39.7702520" lon="-5.5245800">
        <ele>360.4</ele>
        <time>2019-07-09T08:01:49Z</time>
      </trkpt>
      <trkpt lat="39.7701020" lon="-5.5245590">
        <ele>361.2</ele>
        <time>2019-07-09T08:01:54Z</time>
      </trkpt>
      <trkpt lat="39.7700720" lon="-5.5245490">
        <ele>361.6</ele>
        <time>2019-07-09T08:01:55Z</time>
      </trkpt>
      <trkpt lat="39.7699280" lon="-5.5245290">
        <ele>362.6</ele>
        <time>2019-07-09T08:02:00Z</time>
      </trkpt>
      <trkpt lat="39.7698990" lon="-5.5245230">
        <ele>362.8</ele>
        <time>2019-07-09T08:02:01Z</time>
      </trkpt>
      <trkpt lat="39.7697770" lon="-5.5245030">
        <ele>363.8</ele>
        <time>2019-07-09T08:02:05Z</time>
      </trkpt>
      <trkpt lat="39.7696250" lon="-5.5244750">
        <ele>364.8</ele>
        <time>2019-07-09T08:02:10Z</time>
      </trkpt>
      <trkpt lat="39.7694690" lon="-5.5244490">
        <ele>366.0</ele>
        <time>2019-07-09T08:02:15Z</time>
      </trkpt>
      <trkpt lat="39.7693470" lon="-5.5244220">
        <ele>366.6</ele>
        <time>2019-07-09T08:02:19Z</time>
      </trkpt>
      <trkpt lat="39.7692860" lon="-5.5244130">
        <ele>367.0</ele>
        <time>2019-07-09T08:02:21Z</time>
      </trkpt>
      <trkpt lat="39.7691330" lon="-5.5243840">
        <ele>368.0</ele>
        <time>2019-07-09T08:02:26Z</time>
      </trkpt>
      <trkpt lat="39.7691040" lon="-5.5243820">
        <ele>368.2</ele>
        <time>2019-07-09T08:02:27Z</time>
      </trkpt>
      <trkpt lat="39.7689590" lon="-5.5243470">
        <ele>369.0</ele>
        <time>2019-07-09T08:02:32Z</time>
      </trkpt>
      <trkpt lat="39.7689290" lon="-5.5243420">
        <ele>369.2</ele>
        <time>2019-07-09T08:02:33Z</time>
      </trkpt>
      <trkpt lat="39.7687810" lon="-5.5243170">
        <ele>370.2</ele>
        <time>2019-07-09T08:02:38Z</time>
      </trkpt>
      <trkpt lat="39.7686330" lon="-5.5242770">
        <ele>371.4</ele>
        <time>2019-07-09T08:02:43Z</time>
      </trkpt>
      <trkpt lat="39.7684900" lon="-5.5242340">
        <ele>372.4</ele>
        <time>2019-07-09T08:02:48Z</time>
      </trkpt>
      <trkpt lat="39.7684060" lon="-5.5241980">
        <ele>373.4</ele>
        <time>2019-07-09T08:02:51Z</time>
      </trkpt>
      <trkpt lat="39.7683490" lon="-5.5241710">
        <ele>373.6</ele>
        <time>2019-07-09T08:02:53Z</time>
      </trkpt>
      <trkpt lat="39.7681990" lon="-5.5241040">
        <ele>374.8</ele>
        <time>2019-07-09T08:02:58Z</time>
      </trkpt>
      <trkpt lat="39.7681420" lon="-5.5240660">
        <ele>375.0</ele>
        <time>2019-07-09T08:03:00Z</time>
      </trkpt>
      <trkpt lat="39.7680310" lon="-5.5240090">
        <ele>375.8</ele>
        <time>2019-07-09T08:03:04Z</time>
      </trkpt>
      <trkpt lat="39.7679200" lon="-5.5239630">
        <ele>376.6</ele>
        <time>2019-07-09T08:03:08Z</time>
      </trkpt>
      <trkpt lat="39.7678930" lon="-5.5239500">
        <ele>376.8</ele>
        <time>2019-07-09T08:03:09Z</time>
      </trkpt>
      <trkpt lat="39.7677270" lon="-5.5238780">
        <ele>378.2</ele>
        <time>2019-07-09T08:03:15Z</time>
      </trkpt>
      <trkpt lat="39.7676980" lon="-5.5238660">
        <ele>378.4</ele>
        <time>2019-07-09T08:03:16Z</time>
      </trkpt>
      <trkpt lat="39.7675590" lon="-5.5238060">
        <ele>379.2</ele>
        <time>2019-07-09T08:03:21Z</time>
      </trkpt>
      <trkpt lat="39.7675010" lon="-5.5237860">
        <ele>379.8</ele>
        <time>2019-07-09T08:03:23Z</time>
      </trkpt>
      <trkpt lat="39.7674430" lon="-5.5237620">
        <ele>380.2</ele>
        <time>2019-07-09T08:03:25Z</time>
      </trkpt>
      <trkpt lat="39.7672940" lon="-5.5237210">
        <ele>381.2</ele>
        <time>2019-07-09T08:03:30Z</time>
      </trkpt>
      <trkpt lat="39.7672640" lon="-5.5237140">
        <ele>381.4</ele>
        <time>2019-07-09T08:03:31Z</time>
      </trkpt>
      <trkpt lat="39.7671160" lon="-5.5236910">
        <ele>382.6</ele>
        <time>2019-07-09T08:03:36Z</time>
      </trkpt>
      <trkpt lat="39.7669680" lon="-5.5236760">
        <ele>384.0</ele>
        <time>2019-07-09T08:03:41Z</time>
      </trkpt>
      <trkpt lat="39.7668770" lon="-5.5236770">
        <ele>384.4</ele>
        <time>2019-07-09T08:03:44Z</time>
      </trkpt>
      <trkpt lat="39.7668190" lon="-5.5236730">
        <ele>384.8</ele>
        <time>2019-07-09T08:03:46Z</time>
      </trkpt>
      <trkpt lat="39.7667020" lon="-5.5236710">
        <ele>386.0</ele>
        <time>2019-07-09T08:03:50Z</time>
      </trkpt>
      <trkpt lat="39.7666400" lon="-5.5236620">
        <ele>386.6</ele>
        <time>2019-07-09T08:03:52Z</time>
      </trkpt>
      <trkpt lat="39.7665470" lon="-5.5236530">
        <ele>387.4</ele>
        <time>2019-07-09T08:03:55Z</time>
      </trkpt>
      <trkpt lat="39.7664220" lon="-5.5236550">
        <ele>388.0</ele>
        <time>2019-07-09T08:03:59Z</time>
      </trkpt>
      <trkpt lat="39.7663910" lon="-5.5236550">
        <ele>388.2</ele>
        <time>2019-07-09T08:04:00Z</time>
      </trkpt>
      <trkpt lat="39.7662960" lon="-5.5236510">
        <ele>389.2</ele>
        <time>2019-07-09T08:04:03Z</time>
      </trkpt>
      <trkpt lat="39.7662630" lon="-5.5236510">
        <ele>389.2</ele>
        <time>2019-07-09T08:04:04Z</time>
      </trkpt>
      <trkpt lat="39.7661730" lon="-5.5236890">
        <ele>390.0</ele>
        <time>2019-07-09T08:04:07Z</time>
      </trkpt>
      <trkpt lat="39.7661530" lon="-5.5237170">
        <ele>390.0</ele>
        <time>2019-07-09T08:04:08Z</time>
      </trkpt>
      <trkpt lat="39.7661390" lon="-5.5237520">
        <ele>390.4</ele>
        <time>2019-07-09T08:04:09Z</time>
      </trkpt>
      <trkpt lat="39.7661290" lon="-5.5238310">
        <ele>391.0</ele>
        <time>2019-07-09T08:04:11Z</time>
      </trkpt>
      <trkpt lat="39.7661560" lon="-5.5239090">
        <ele>391.6</ele>
        <time>2019-07-09T08:04:13Z</time>
      </trkpt>
      <trkpt lat="39.7662080" lon="-5.5239620">
        <ele>392.2</ele>
        <time>2019-07-09T08:04:15Z</time>
      </trkpt>
      <trkpt lat="39.7662710" lon="-5.5239770">
        <ele>392.6</ele>
        <time>2019-07-09T08:04:17Z</time>
      </trkpt>
      <trkpt lat="39.7663040" lon="-5.5239770">
        <ele>392.8</ele>
        <time>2019-07-09T08:04:18Z</time>
      </trkpt>
      <trkpt lat="39.7663700" lon="-5.5239780">
        <ele>393.4</ele>
        <time>2019-07-09T08:04:20Z</time>
      </trkpt>
      <trkpt lat="39.7664020" lon="-5.5239790">
        <ele>393.8</ele>
        <time>2019-07-09T08:04:21Z</time>
      </trkpt>
      <trkpt lat="39.7665370" lon="-5.5239960">
        <ele>395.0</ele>
        <time>2019-07-09T08:04:25Z</time>
      </trkpt>
      <trkpt lat="39.7666000" lon="-5.5239920">
        <ele>395.6</ele>
        <time>2019-07-09T08:04:27Z</time>
      </trkpt>
      <trkpt lat="39.7666850" lon="-5.5240020">
        <ele>396.2</ele>
        <time>2019-07-09T08:04:30Z</time>
      </trkpt>
      <trkpt lat="39.7667710" lon="-5.5240470">
        <ele>397.0</ele>
        <time>2019-07-09T08:04:33Z</time>
      </trkpt>
      <trkpt lat="39.7668010" lon="-5.5240600">
        <ele>397.2</ele>
        <time>2019-07-09T08:04:34Z</time>
      </trkpt>
      <trkpt lat="39.7669380" lon="-5.5241380">
        <ele>398.4</ele>
        <time>2019-07-09T08:04:39Z</time>
      </trkpt>
      <trkpt lat="39.7669650" lon="-5.5241550">
        <ele>398.6</ele>
        <time>2019-07-09T08:04:40Z</time>
      </trkpt>
      <trkpt lat="39.7670900" lon="-5.5242530">
        <ele>399.4</ele>
        <time>2019-07-09T08:04:45Z</time>
      </trkpt>
      <trkpt lat="39.7671380" lon="-5.5242990">
        <ele>399.8</ele>
        <time>2019-07-09T08:04:47Z</time>
      </trkpt>
      <trkpt lat="39.7672320" lon="-5.5243840">
        <ele>400.6</ele>
        <time>2019-07-09T08:04:51Z</time>
      </trkpt>
      <trkpt lat="39.7673010" lon="-5.5244520">
        <ele>401.0</ele>
        <time>2019-07-09T08:04:54Z</time>
      </trkpt>
      <trkpt lat="39.7673750" lon="-5.5245210">
        <ele>401.6</ele>
        <time>2019-07-09T08:04:57Z</time>
      </trkpt>
      <trkpt lat="39.7674950" lon="-5.5246450">
        <ele>402.8</ele>
        <time>2019-07-09T08:05:02Z</time>
      </trkpt>
      <trkpt lat="39.7676160" lon="-5.5247750">
        <ele>403.8</ele>
        <time>2019-07-09T08:05:07Z</time>
      </trkpt>
      <trkpt lat="39.7677400" lon="-5.5248990">
        <ele>405.0</ele>
        <time>2019-07-09T08:05:12Z</time>
      </trkpt>
      <trkpt lat="39.7678660" lon="-5.5250280">
        <ele>406.0</ele>
        <time>2019-07-09T08:05:17Z</time>
      </trkpt>
      <trkpt lat="39.7679190" lon="-5.5250800">
        <ele>406.4</ele>
        <time>2019-07-09T08:05:19Z</time>
      </trkpt>
      <trkpt lat="39.7680300" lon="-5.5251920">
        <ele>407.2</ele>
        <time>2019-07-09T08:05:23Z</time>
      </trkpt>
      <trkpt lat="39.7681380" lon="-5.5253210">
        <ele>407.8</ele>
        <time>2019-07-09T08:05:27Z</time>
      </trkpt>
      <trkpt lat="39.7681910" lon="-5.5253880">
        <ele>408.4</ele>
        <time>2019-07-09T08:05:29Z</time>
      </trkpt>
      <trkpt lat="39.7683210" lon="-5.5255590">
        <ele>409.4</ele>
        <time>2019-07-09T08:05:34Z</time>
      </trkpt>
      <trkpt lat="39.7683430" lon="-5.5255980">
        <ele>409.6</ele>
        <time>2019-07-09T08:05:35Z</time>
      </trkpt>
      <trkpt lat="39.7684310" lon="-5.5257540">
        <ele>410.6</ele>
        <time>2019-07-09T08:05:39Z</time>
      </trkpt>
      <trkpt lat="39.7685320" lon="-5.5259510">
        <ele>411.4</ele>
        <time>2019-07-09T08:05:44Z</time>
      </trkpt>
      <trkpt lat="39.7685480" lon="-5.5259960">
        <ele>411.6</ele>
        <time>2019-07-09T08:05:45Z</time>
      </trkpt>
      <trkpt lat="39.7686200" lon="-5.5261770">
        <ele>412.6</ele>
        <time>2019-07-09T08:05:49Z</time>
      </trkpt>
      <trkpt lat="39.7686640" lon="-5.5263180">
        <ele>413.2</ele>
        <time>2019-07-09T08:05:52Z</time>
      </trkpt>
      <trkpt lat="39.7687040" lon="-5.5264600">
        <ele>414.0</ele>
        <time>2019-07-09T08:05:55Z</time>
      </trkpt>
      <trkpt lat="39.7687290" lon="-5.5265510">
        <ele>414.2</ele>
        <time>2019-07-09T08:05:57Z</time>
      </trkpt>
      <trkpt lat="39.7687480" lon="-5.5266450">
        <ele>414.6</ele>
        <time>2019-07-09T08:05:59Z</time>
      </trkpt>
      <trkpt lat="39.7687640" lon="-5.5267400">
        <ele>414.8</ele>
        <time>2019-07-09T08:06:01Z</time>
      </trkpt>
      <trkpt lat="39.7688000" lon="-5.5269270">
        <ele>415.8</ele>
        <time>2019-07-09T08:06:05Z</time>
      </trkpt>
      <trkpt lat="39.7688280" lon="-5.5271090">
        <ele>417.0</ele>
        <time>2019-07-09T08:06:09Z</time>
      </trkpt>
      <trkpt lat="39.7688560" lon="-5.5274490">
        <ele>418.2</ele>
        <time>2019-07-09T08:06:16Z</time>
      </trkpt>
      <trkpt lat="39.7688600" lon="-5.5274980">
        <ele>418.4</ele>
        <time>2019-07-09T08:06:17Z</time>
      </trkpt>
      <trkpt lat="39.7688720" lon="-5.5277430">
        <ele>419.4</ele>
        <time>2019-07-09T08:06:22Z</time>
      </trkpt>
      <trkpt lat="39.7688720" lon="-5.5279750">
        <ele>420.6</ele>
        <time>2019-07-09T08:06:27Z</time>
      </trkpt>
      <trkpt lat="39.7688880" lon="-5.5281610">
        <ele>421.8</ele>
        <time>2019-07-09T08:06:31Z</time>
      </trkpt>
      <trkpt lat="39.7688950" lon="-5.5283940">
        <ele>423.0</ele>
        <time>2019-07-09T08:06:36Z</time>
      </trkpt>
      <trkpt lat="39.7689140" lon="-5.5286720">
        <ele>424.0</ele>
        <time>2019-07-09T08:06:42Z</time>
      </trkpt>
      <trkpt lat="39.7689180" lon="-5.5287180">
        <ele>424.4</ele>
        <time>2019-07-09T08:06:43Z</time>
      </trkpt>
      <trkpt lat="39.7689270" lon="-5.5289010">
        <ele>425.2</ele>
        <time>2019-07-09T08:06:47Z</time>
      </trkpt>
      <trkpt lat="39.7689360" lon="-5.5291240">
        <ele>426.0</ele>
        <time>2019-07-09T08:06:52Z</time>
      </trkpt>
      <trkpt lat="39.7689370" lon="-5.5291700">
        <ele>426.2</ele>
        <time>2019-07-09T08:06:53Z</time>
      </trkpt>
      <trkpt lat="39.7689250" lon="-5.5293530">
        <ele>427.2</ele>
        <time>2019-07-09T08:06:57Z</time>
      </trkpt>
      <trkpt lat="39.7689120" lon="-5.5294460">
        <ele>427.8</ele>
        <time>2019-07-09T08:06:59Z</time>
      </trkpt>
      <trkpt lat="39.7688880" lon="-5.5295830">
        <ele>428.2</ele>
        <time>2019-07-09T08:07:02Z</time>
      </trkpt>
      <trkpt lat="39.7688240" lon="-5.5297990">
        <ele>429.4</ele>
        <time>2019-07-09T08:07:07Z</time>
      </trkpt>
      <trkpt lat="39.7688040" lon="-5.5298400">
        <ele>429.6</ele>
        <time>2019-07-09T08:07:08Z</time>
      </trkpt>
      <trkpt lat="39.7687420" lon="-5.5299630">
        <ele>430.4</ele>
        <time>2019-07-09T08:07:11Z</time>
      </trkpt>
      <trkpt lat="39.7686400" lon="-5.5301050">
        <ele>431.2</ele>
        <time>2019-07-09T08:07:15Z</time>
      </trkpt>
      <trkpt lat="39.7686080" lon="-5.5301330">
        <ele>431.6</ele>
        <time>2019-07-09T08:07:16Z</time>
      </trkpt>
      <trkpt lat="39.7684490" lon="-5.5302600">
        <ele>432.6</ele>
        <time>2019-07-09T08:07:21Z</time>
      </trkpt>
      <trkpt lat="39.7683890" lon="-5.5303050">
        <ele>433.2</ele>
        <time>2019-07-09T08:07:23Z</time>
      </trkpt>
      <trkpt lat="39.7682920" lon="-5.5303440">
        <ele>433.8</ele>
        <time>2019-07-09T08:07:26Z</time>
      </trkpt>
      <trkpt lat="39.7682220" lon="-5.5303540">
        <ele>434.2</ele>
        <time>2019-07-09T08:07:28Z</time>
      </trkpt>
      <trkpt lat="39.7681160" lon="-5.5303700">
        <ele>434.6</ele>
        <time>2019-07-09T08:07:31Z</time>
      </trkpt>
      <trkpt lat="39.7679740" lon="-5.5303580">
        <ele>435.6</ele>
        <time>2019-07-09T08:07:35Z</time>
      </trkpt>
      <trkpt lat="39.7679390" lon="-5.5303480">
        <ele>435.8</ele>
        <time>2019-07-09T08:07:36Z</time>
      </trkpt>
      <trkpt lat="39.7677280" lon="-5.5302620">
        <ele>436.8</ele>
        <time>2019-07-09T08:07:42Z</time>
      </trkpt>
      <trkpt lat="39.7676950" lon="-5.5302400">
        <ele>437.0</ele>
        <time>2019-07-09T08:07:43Z</time>
      </trkpt>
      <trkpt lat="39.7675410" lon="-5.5301060">
        <ele>438.0</ele>
        <time>2019-07-09T08:07:48Z</time>
      </trkpt>
      <trkpt lat="39.7674790" lon="-5.5300530">
        <ele>438.4</ele>
        <time>2019-07-09T08:07:50Z</time>
      </trkpt>
      <trkpt lat="39.7673880" lon="-5.5299640">
        <ele>439.0</ele>
        <time>2019-07-09T08:07:53Z</time>
      </trkpt>
      <trkpt lat="39.7672410" lon="-5.5298150">
        <ele>440.0</ele>
        <time>2019-07-09T08:07:58Z</time>
      </trkpt>
      <trkpt lat="39.7671780" lon="-5.5297630">
        <ele>440.2</ele>
        <time>2019-07-09T08:08:00Z</time>
      </trkpt>
      <trkpt lat="39.7670520" lon="-5.5296630">
        <ele>441.2</ele>
        <time>2019-07-09T08:08:04Z</time>
      </trkpt>
      <trkpt lat="39.7669490" lon="-5.5296140">
        <ele>442.0</ele>
        <time>2019-07-09T08:08:07Z</time>
      </trkpt>
      <trkpt lat="39.7669140" lon="-5.5295980">
        <ele>442.2</ele>
        <time>2019-07-09T08:08:08Z</time>
      </trkpt>
      <trkpt lat="39.7667430" lon="-5.5295440">
        <ele>443.4</ele>
        <time>2019-07-09T08:08:13Z</time>
      </trkpt>
      <trkpt lat="39.7667100" lon="-5.5295380">
        <ele>443.6</ele>
        <time>2019-07-09T08:08:14Z</time>
      </trkpt>
      <trkpt lat="39.7665690" lon="-5.5295540">
        <ele>444.4</ele>
        <time>2019-07-09T08:08:17Z</time>
      </trkpt>
      <trkpt lat="39.7664640" lon="-5.5295770">
        <ele>444.8</ele>
        <time>2019-07-09T08:08:21Z</time>
      </trkpt>
      <trkpt lat="39.7663660" lon="-5.5296080">
        <ele>445.6</ele>
        <time>2019-07-09T08:08:24Z</time>
      </trkpt>
      <trkpt lat="39.7662430" lon="-5.5296830">
        <ele>446.8</ele>
        <time>2019-07-09T08:08:28Z</time>
      </trkpt>
      <trkpt lat="39.7660970" lon="-5.5298070">
        <ele>447.8</ele>
        <time>2019-07-09T08:08:33Z</time>
      </trkpt>
      <trkpt lat="39.7660410" lon="-5.5298560">
        <ele>448.2</ele>
        <time>2019-07-09T08:08:35Z</time>
      </trkpt>
      <trkpt lat="39.7659620" lon="-5.5299380">
        <ele>448.8</ele>
        <time>2019-07-09T08:08:38Z</time>
      </trkpt>
      <trkpt lat="39.7658290" lon="-5.5300720">
        <ele>449.6</ele>
        <time>2019-07-09T08:08:43Z</time>
      </trkpt>
      <trkpt lat="39.7658040" lon="-5.5301030">
        <ele>450.0</ele>
        <time>2019-07-09T08:08:44Z</time>
      </trkpt>
      <trkpt lat="39.7656700" lon="-5.5302380">
        <ele>451.2</ele>
        <time>2019-07-09T08:08:49Z</time>
      </trkpt>
      <trkpt lat="39.7656170" lon="-5.5302920">
        <ele>451.6</ele>
        <time>2019-07-09T08:08:51Z</time>
      </trkpt>
      <trkpt lat="39.7655020" lon="-5.5304020">
        <ele>452.2</ele>
        <time>2019-07-09T08:08:55Z</time>
      </trkpt>
      <trkpt lat="39.7654470" lon="-5.5304620">
        <ele>452.4</ele>
        <time>2019-07-09T08:08:57Z</time>
      </trkpt>
      <trkpt lat="39.7653340" lon="-5.5305840">
        <ele>453.2</ele>
        <time>2019-07-09T08:09:01Z</time>
      </trkpt>
      <trkpt lat="39.7651890" lon="-5.5307320">
        <ele>454.2</ele>
        <time>2019-07-09T08:09:06Z</time>
      </trkpt>
      <trkpt lat="39.7650580" lon="-5.5309050">
        <ele>455.4</ele>
        <time>2019-07-09T08:09:11Z</time>
      </trkpt>
      <trkpt lat="39.7650150" lon="-5.5309820">
        <ele>455.8</ele>
        <time>2019-07-09T08:09:13Z</time>
      </trkpt>
      <trkpt lat="39.7649420" lon="-5.5310940">
        <ele>456.6</ele>
        <time>2019-07-09T08:09:16Z</time>
      </trkpt>
      <trkpt lat="39.7648550" lon="-5.5312510">
        <ele>457.4</ele>
        <time>2019-07-09T08:09:20Z</time>
      </trkpt>
      <trkpt lat="39.7648150" lon="-5.5313350">
        <ele>457.8</ele>
        <time>2019-07-09T08:09:22Z</time>
      </trkpt>
      <trkpt lat="39.7647620" lon="-5.5314660">
        <ele>458.8</ele>
        <time>2019-07-09T08:09:25Z</time>
      </trkpt>
      <trkpt lat="39.7647290" lon="-5.5315510">
        <ele>459.0</ele>
        <time>2019-07-09T08:09:27Z</time>
      </trkpt>
      <trkpt lat="39.7646730" lon="-5.5317250">
        <ele>459.8</ele>
        <time>2019-07-09T08:09:31Z</time>
      </trkpt>
      <trkpt lat="39.7646250" lon="-5.5319400">
        <ele>460.8</ele>
        <time>2019-07-09T08:09:35Z</time>
      </trkpt>
      <trkpt lat="39.7646250" lon="-5.5319400">
        <ele>461.0</ele>
        <time>2019-07-09T08:09:36Z</time>
      </trkpt>
      <trkpt lat="39.7645880" lon="-5.5321120">
        <ele>462.2</ele>
        <time>2019-07-09T08:09:40Z</time>
      </trkpt>
      <trkpt lat="39.7645360" lon="-5.5323260">
        <ele>463.4</ele>
        <time>2019-07-09T08:09:45Z</time>
      </trkpt>
      <trkpt lat="39.7645280" lon="-5.5323700">
        <ele>463.6</ele>
        <time>2019-07-09T08:09:46Z</time>
      </trkpt>
      <trkpt lat="39.7644860" lon="-5.5325430">
        <ele>464.4</ele>
        <time>2019-07-09T08:09:50Z</time>
      </trkpt>
      <trkpt lat="39.7644540" lon="-5.5327250">
        <ele>464.8</ele>
        <time>2019-07-09T08:09:53Z</time>
      </trkpt>
      <trkpt lat="39.7644330" lon="-5.5328140">
        <ele>465.6</ele>
        <time>2019-07-09T08:09:56Z</time>
      </trkpt>
      <trkpt lat="39.7643710" lon="-5.5330780">
        <ele>466.4</ele>
        <time>2019-07-09T08:10:02Z</time>
      </trkpt>
      <trkpt lat="39.7643620" lon="-5.5331220">
        <ele>466.4</ele>
        <time>2019-07-09T08:10:03Z</time>
      </trkpt>
      <trkpt lat="39.7643140" lon="-5.5333420">
        <ele>467.6</ele>
        <time>2019-07-09T08:10:08Z</time>
      </trkpt>
      <trkpt lat="39.7642690" lon="-5.5335220">
        <ele>468.4</ele>
        <time>2019-07-09T08:10:12Z</time>
      </trkpt>
      <trkpt lat="39.7642410" lon="-5.5336610">
        <ele>468.8</ele>
        <time>2019-07-09T08:10:15Z</time>
      </trkpt>
      <trkpt lat="39.7641930" lon="-5.5338980">
        <ele>469.6</ele>
        <time>2019-07-09T08:10:20Z</time>
      </trkpt>
      <trkpt lat="39.7641400" lon="-5.5340900">
        <ele>469.8</ele>
        <time>2019-07-09T08:10:23Z</time>
      </trkpt>
      <trkpt lat="39.7640980" lon="-5.5342360">
        <ele>470.4</ele>
        <time>2019-07-09T08:10:27Z</time>
      </trkpt>
      <trkpt lat="39.7640870" lon="-5.5342870">
        <ele>470.6</ele>
        <time>2019-07-09T08:10:28Z</time>
      </trkpt>
      <trkpt lat="39.7640550" lon="-5.5344380">
        <ele>471.0</ele>
        <time>2019-07-09T08:10:31Z</time>
      </trkpt>
      <trkpt lat="39.7640310" lon="-5.5345380">
        <ele>471.2</ele>
        <time>2019-07-09T08:10:33Z</time>
      </trkpt>
      <trkpt lat="39.7639870" lon="-5.5346850">
        <ele>471.6</ele>
        <time>2019-07-09T08:10:36Z</time>
      </trkpt>
      <trkpt lat="39.7639720" lon="-5.5347350">
        <ele>471.8</ele>
        <time>2019-07-09T08:10:37Z</time>
      </trkpt>
      <trkpt lat="39.7639360" lon="-5.5348340">
        <ele>472.0</ele>
        <time>2019-07-09T08:10:39Z</time>
      </trkpt>
      <trkpt lat="39.7638550" lon="-5.5350340">
        <ele>472.4</ele>
        <time>2019-07-09T08:10:43Z</time>
      </trkpt>
      <trkpt lat="39.7637590" lon="-5.5352330">
        <ele>472.6</ele>
        <time>2019-07-09T08:10:46Z</time>
      </trkpt>
      <trkpt lat="39.7635490" lon="-5.5355570">
        <ele>472.8</ele>
        <time>2019-07-09T08:10:53Z</time>
      </trkpt>
      <trkpt lat="39.7635490" lon="-5.5355570">
        <ele>473.0</ele>
        <time>2019-07-09T08:10:54Z</time>
      </trkpt>
      <trkpt lat="39.7631910" lon="-5.5359640">
        <ele>473.8</ele>
        <time>2019-07-09T08:11:04Z</time>
      </trkpt>
      <trkpt lat="39.7629980" lon="-5.5361680">
        <ele>474.0</ele>
        <time>2019-07-09T08:11:08Z</time>
      </trkpt>
      <trkpt lat="39.7626090" lon="-5.5365740">
        <ele>475.0</ele>
        <time>2019-07-09T08:11:18Z</time>
      </trkpt>
      <trkpt lat="39.7622500" lon="-5.5369360">
        <ele>476.0</ele>
        <time>2019-07-09T08:11:28Z</time>
      </trkpt>
      <trkpt lat="39.7620990" lon="-5.5371080">
        <ele>476.2</ele>
        <time>2019-07-09T08:11:32Z</time>
      </trkpt>
      <trkpt lat="39.7618740" lon="-5.5373390">
        <ele>476.8</ele>
        <time>2019-07-09T08:11:38Z</time>
      </trkpt>
      <trkpt lat="39.7617570" lon="-5.5374860">
        <ele>476.8</ele>
        <time>2019-07-09T08:11:41Z</time>
      </trkpt>
      <trkpt lat="39.7617570" lon="-5.5374860">
        <ele>476.8</ele>
        <time>2019-07-09T08:11:42Z</time>
      </trkpt>
      <trkpt lat="39.7617580" lon="-5.5375250">
        <ele>476.8</ele>
        <time>2019-07-09T08:11:43Z</time>
      </trkpt>
      <trkpt lat="39.7617660" lon="-5.5376150">
        <ele>476.8</ele>
        <time>2019-07-09T08:11:45Z</time>
      </trkpt>
      <trkpt lat="39.7617130" lon="-5.5377360">
        <ele>476.6</ele>
        <time>2019-07-09T08:11:48Z</time>
      </trkpt>
      <trkpt lat="39.7615830" lon="-5.5378790">
        <ele>477.0</ele>
        <time>2019-07-09T08:11:52Z</time>
      </trkpt>
      <trkpt lat="39.7615570" lon="-5.5379060">
        <ele>477.4</ele>
        <time>2019-07-09T08:11:53Z</time>
      </trkpt>
      <trkpt lat="39.7614990" lon="-5.5379500">
        <ele>478.4</ele>
        <time>2019-07-09T08:11:56Z</time>
      </trkpt>
      <trkpt lat="39.7614700" lon="-5.5379750">
        <ele>478.6</ele>
        <time>2019-07-09T08:11:57Z</time>
      </trkpt>
      <trkpt lat="39.7613620" lon="-5.5380830">
        <ele>479.0</ele>
        <time>2019-07-09T08:12:01Z</time>
      </trkpt>
      <trkpt lat="39.7613090" lon="-5.5381370">
        <ele>479.4</ele>
        <time>2019-07-09T08:12:02Z</time>
      </trkpt>
      <trkpt lat="39.7612260" lon="-5.5382120">
        <ele>479.8</ele>
        <time>2019-07-09T08:12:06Z</time>
      </trkpt>
      <trkpt lat="39.7611980" lon="-5.5382350">
        <ele>480.0</ele>
        <time>2019-07-09T08:12:07Z</time>
      </trkpt>
      <trkpt lat="39.7611700" lon="-5.5382600">
        <ele>480.2</ele>
        <time>2019-07-09T08:12:08Z</time>
      </trkpt>
      <trkpt lat="39.7610680" lon="-5.5383780">
        <ele>481.0</ele>
        <time>2019-07-09T08:12:12Z</time>
      </trkpt>
      <trkpt lat="39.7609890" lon="-5.5384740">
        <ele>481.4</ele>
        <time>2019-07-09T08:12:14Z</time>
      </trkpt>
      <trkpt lat="39.7609890" lon="-5.5384740">
        <ele>481.6</ele>
        <time>2019-07-09T08:12:15Z</time>
      </trkpt>
      <trkpt lat="39.7608890" lon="-5.5386020">
        <ele>482.4</ele>
        <time>2019-07-09T08:12:19Z</time>
      </trkpt>
      <trkpt lat="39.7608130" lon="-5.5387590">
        <ele>482.2</ele>
        <time>2019-07-09T08:12:22Z</time>
      </trkpt>
      <trkpt lat="39.7608090" lon="-5.5388060">
        <ele>482.2</ele>
        <time>2019-07-09T08:12:23Z</time>
      </trkpt>
      <trkpt lat="39.7608660" lon="-5.5390240">
        <ele>482.8</ele>
        <time>2019-07-09T08:12:28Z</time>
      </trkpt>
      <trkpt lat="39.7608990" lon="-5.5391050">
        <ele>483.6</ele>
        <time>2019-07-09T08:12:30Z</time>
      </trkpt>
      <trkpt lat="39.7610280" lon="-5.5393560">
        <ele>484.2</ele>
        <time>2019-07-09T08:12:36Z</time>
      </trkpt>
      <trkpt lat="39.7610940" lon="-5.5394120">
        <ele>484.2</ele>
        <time>2019-07-09T08:12:38Z</time>
      </trkpt>
      <trkpt lat="39.7611730" lon="-5.5394620">
        <ele>484.6</ele>
        <time>2019-07-09T08:12:40Z</time>
      </trkpt>
      <trkpt lat="39.7612150" lon="-5.5394850">
        <ele>484.4</ele>
        <time>2019-07-09T08:12:41Z</time>
      </trkpt>
      <trkpt lat="39.7614420" lon="-5.5395720">
        <ele>484.4</ele>
        <time>2019-07-09T08:12:46Z</time>
      </trkpt>
      <trkpt lat="39.7615390" lon="-5.5395980">
        <ele>484.8</ele>
        <time>2019-07-09T08:12:49Z</time>
      </trkpt>
      <trkpt lat="39.7618430" lon="-5.5396810">
        <ele>484.8</ele>
        <time>2019-07-09T08:12:55Z</time>
      </trkpt>
      <trkpt lat="39.7619390" lon="-5.5397260">
        <ele>484.8</ele>
        <time>2019-07-09T08:12:57Z</time>
      </trkpt>
      <trkpt lat="39.7620680" lon="-5.5398060">
        <ele>485.0</ele>
        <time>2019-07-09T08:12:59Z</time>
      </trkpt>
      <trkpt lat="39.7621000" lon="-5.5398420">
        <ele>485.2</ele>
        <time>2019-07-09T08:13:01Z</time>
      </trkpt>
      <trkpt lat="39.7621240" lon="-5.5399310">
        <ele>485.4</ele>
        <time>2019-07-09T08:13:02Z</time>
      </trkpt>
      <trkpt lat="39.7621110" lon="-5.5399740">
        <ele>485.4</ele>
        <time>2019-07-09T08:13:03Z</time>
      </trkpt>
      <trkpt lat="39.7620970" lon="-5.5400160">
        <ele>485.6</ele>
        <time>2019-07-09T08:13:04Z</time>
      </trkpt>
      <trkpt lat="39.7620530" lon="-5.5400870">
        <ele>485.8</ele>
        <time>2019-07-09T08:13:06Z</time>
      </trkpt>
      <trkpt lat="39.7620080" lon="-5.5401560">
        <ele>486.4</ele>
        <time>2019-07-09T08:13:09Z</time>
      </trkpt>
      <trkpt lat="39.7619240" lon="-5.5403000">
        <ele>487.6</ele>
        <time>2019-07-09T08:13:13Z</time>
      </trkpt>
      <trkpt lat="39.7618440" lon="-5.5404510">
        <ele>488.4</ele>
        <time>2019-07-09T08:13:16Z</time>
      </trkpt>
      <trkpt lat="39.7618250" lon="-5.5404920">
        <ele>489.0</ele>
        <time>2019-07-09T08:13:17Z</time>
      </trkpt>
      <trkpt lat="39.7617570" lon="-5.5406120">
        <ele>489.8</ele>
        <time>2019-07-09T08:13:21Z</time>
      </trkpt>
      <trkpt lat="39.7616830" lon="-5.5407320">
        <ele>490.0</ele>
        <time>2019-07-09T08:13:23Z</time>
      </trkpt>
      <trkpt lat="39.7616590" lon="-5.5407730">
        <ele>490.4</ele>
        <time>2019-07-09T08:13:25Z</time>
      </trkpt>
      <trkpt lat="39.7615550" lon="-5.5409530">
        <ele>490.2</ele>
        <time>2019-07-09T08:13:28Z</time>
      </trkpt>
      <trkpt lat="39.7614900" lon="-5.5410540">
        <ele>490.2</ele>
        <time>2019-07-09T08:13:30Z</time>
      </trkpt>
      <trkpt lat="39.7614140" lon="-5.5411720">
        <ele>489.8</ele>
        <time>2019-07-09T08:13:32Z</time>
      </trkpt>
      <trkpt lat="39.7612950" lon="-5.5413950">
        <ele>488.8</ele>
        <time>2019-07-09T08:13:35Z</time>
      </trkpt>
      <trkpt lat="39.7612530" lon="-5.5414760">
        <ele>488.2</ele>
        <time>2019-07-09T08:13:37Z</time>
      </trkpt>
      <trkpt lat="39.7611650" lon="-5.5416430">
        <ele>487.4</ele>
        <time>2019-07-09T08:13:39Z</time>
      </trkpt>
      <trkpt lat="39.7609690" lon="-5.5419720">
        <ele>486.0</ele>
        <time>2019-07-09T08:13:42Z</time>
      </trkpt>
      <trkpt lat="39.7608640" lon="-5.5421410">
        <ele>484.6</ele>
        <time>2019-07-09T08:13:44Z</time>
      </trkpt>
      <trkpt lat="39.7607820" lon="-5.5422710">
        <ele>483.2</ele>
        <time>2019-07-09T08:13:45Z</time>
      </trkpt>
      <trkpt lat="39.7606990" lon="-5.5424000">
        <ele>481.6</ele>
        <time>2019-07-09T08:13:47Z</time>
      </trkpt>
      <trkpt lat="39.7606440" lon="-5.5424840">
        <ele>480.2</ele>
        <time>2019-07-09T08:13:49Z</time>
      </trkpt>
      <trkpt lat="39.7605860" lon="-5.5425710">
        <ele>479.4</ele>
        <time>2019-07-09T08:13:50Z</time>
      </trkpt>
      <trkpt lat="39.7604870" lon="-5.5427180">
        <ele>478.8</ele>
        <time>2019-07-09T08:13:51Z</time>
      </trkpt>
      <trkpt lat="39.7604460" lon="-5.5427780">
        <ele>478.2</ele>
        <time>2019-07-09T08:13:52Z</time>
      </trkpt>
      <trkpt lat="39.7603640" lon="-5.5428990">
        <ele>477.6</ele>
        <time>2019-07-09T08:13:53Z</time>
      </trkpt>
      <trkpt lat="39.7603130" lon="-5.5429760">
        <ele>476.6</ele>
        <time>2019-07-09T08:13:55Z</time>
      </trkpt>
      <trkpt lat="39.7602470" lon="-5.5430790">
        <ele>476.2</ele>
        <time>2019-07-09T08:13:56Z</time>
      </trkpt>
      <trkpt lat="39.7601160" lon="-5.5432850">
        <ele>475.4</ele>
        <time>2019-07-09T08:13:58Z</time>
      </trkpt>
      <trkpt lat="39.7600070" lon="-5.5434460">
        <ele>474.2</ele>
        <time>2019-07-09T08:14:00Z</time>
      </trkpt>
      <trkpt lat="39.7599710" lon="-5.5435050">
        <ele>473.6</ele>
        <time>2019-07-09T08:14:01Z</time>
      </trkpt>
      <trkpt lat="39.7599340" lon="-5.5435640">
        <ele>473.2</ele>
        <time>2019-07-09T08:14:02Z</time>
      </trkpt>
      <trkpt lat="39.7597880" lon="-5.5438010">
        <ele>471.4</ele>
        <time>2019-07-09T08:14:04Z</time>
      </trkpt>
      <trkpt lat="39.7596840" lon="-5.5439460">
        <ele>470.6</ele>
        <time>2019-07-09T08:14:06Z</time>
      </trkpt>
      <trkpt lat="39.7596430" lon="-5.5439760">
        <ele>470.2</ele>
        <time>2019-07-09T08:14:07Z</time>
      </trkpt>
      <trkpt lat="39.7596010" lon="-5.5440050">
        <ele>469.6</ele>
        <time>2019-07-09T08:14:08Z</time>
      </trkpt>
      <trkpt lat="39.7594360" lon="-5.5441220">
        <ele>468.8</ele>
        <time>2019-07-09T08:14:10Z</time>
      </trkpt>
      <trkpt lat="39.7591550" lon="-5.5442100">
        <ele>468.0</ele>
        <time>2019-07-09T08:14:14Z</time>
      </trkpt>
      <trkpt lat="39.7591160" lon="-5.5442540">
        <ele>467.6</ele>
        <time>2019-07-09T08:14:15Z</time>
      </trkpt>
      <trkpt lat="39.7590770" lon="-5.5442970">
        <ele>467.2</ele>
        <time>2019-07-09T08:14:16Z</time>
      </trkpt>
      <trkpt lat="39.7589200" lon="-5.5444710">
        <ele>466.8</ele>
        <time>2019-07-09T08:14:18Z</time>
      </trkpt>
      <trkpt lat="39.7588220" lon="-5.5446460">
        <ele>466.2</ele>
        <time>2019-07-09T08:14:20Z</time>
      </trkpt>
      <trkpt lat="39.7587340" lon="-5.5448310">
        <ele>465.2</ele>
        <time>2019-07-09T08:14:22Z</time>
      </trkpt>
      <trkpt lat="39.7586540" lon="-5.5450210">
        <ele>464.6</ele>
        <time>2019-07-09T08:14:24Z</time>
      </trkpt>
      <trkpt lat="39.7585680" lon="-5.5452020">
        <ele>463.8</ele>
        <time>2019-07-09T08:14:27Z</time>
      </trkpt>
      <trkpt lat="39.7583850" lon="-5.5455460">
        <ele>462.8</ele>
        <time>2019-07-09T08:14:30Z</time>
      </trkpt>
      <trkpt lat="39.7582880" lon="-5.5457110">
        <ele>462.2</ele>
        <time>2019-07-09T08:14:32Z</time>
      </trkpt>
      <trkpt lat="39.7581380" lon="-5.5459570">
        <ele>461.6</ele>
        <time>2019-07-09T08:14:35Z</time>
      </trkpt>
      <trkpt lat="39.7578500" lon="-5.5463450">
        <ele>460.4</ele>
        <time>2019-07-09T08:14:40Z</time>
      </trkpt>
      <trkpt lat="39.7577040" lon="-5.5464480">
        <ele>459.8</ele>
        <time>2019-07-09T08:14:43Z</time>
      </trkpt>
      <trkpt lat="39.7576290" lon="-5.5464780">
        <ele>459.6</ele>
        <time>2019-07-09T08:14:44Z</time>
      </trkpt>
      <trkpt lat="39.7575210" lon="-5.5465220">
        <ele>459.2</ele>
        <time>2019-07-09T08:14:45Z</time>
      </trkpt>
      <trkpt lat="39.7574880" lon="-5.5465370">
        <ele>459.0</ele>
        <time>2019-07-09T08:14:46Z</time>
      </trkpt>
      <trkpt lat="39.7572920" lon="-5.5466250">
        <ele>459.0</ele>
        <time>2019-07-09T08:14:49Z</time>
      </trkpt>
      <trkpt lat="39.7571980" lon="-5.5467070">
        <ele>459.0</ele>
        <time>2019-07-09T08:14:50Z</time>
      </trkpt>
      <trkpt lat="39.7571420" lon="-5.5468160">
        <ele>459.0</ele>
        <time>2019-07-09T08:14:52Z</time>
      </trkpt>
      <trkpt lat="39.7570720" lon="-5.5470310">
        <ele>459.0</ele>
        <time>2019-07-09T08:14:56Z</time>
      </trkpt>
      <trkpt lat="39.7570440" lon="-5.5470710">
        <ele>459.0</ele>
        <time>2019-07-09T08:14:57Z</time>
      </trkpt>
      <trkpt lat="39.7570150" lon="-5.5471100">
        <ele>458.8</ele>
        <time>2019-07-09T08:14:58Z</time>
      </trkpt>
      <trkpt lat="39.7569820" lon="-5.5471410">
        <ele>459.0</ele>
        <time>2019-07-09T08:14:59Z</time>
      </trkpt>
      <trkpt lat="39.7569510" lon="-5.5471720">
        <ele>459.2</ele>
        <time>2019-07-09T08:15:01Z</time>
      </trkpt>
      <trkpt lat="39.7567770" lon="-5.5473060">
        <ele>460.0</ele>
        <time>2019-07-09T08:15:06Z</time>
      </trkpt>
      <trkpt lat="39.7567230" lon="-5.5473310">
        <ele>460.2</ele>
        <time>2019-07-09T08:15:09Z</time>
      </trkpt>
      <trkpt lat="39.7566090" lon="-5.5473620">
        <ele>460.4</ele>
        <time>2019-07-09T08:15:13Z</time>
      </trkpt>
      <trkpt lat="39.7565530" lon="-5.5474100">
        <ele>460.4</ele>
        <time>2019-07-09T08:15:14Z</time>
      </trkpt>
      <trkpt lat="39.7565530" lon="-5.5474100">
        <ele>460.2</ele>
        <time>2019-07-09T08:15:15Z</time>
      </trkpt>
      <trkpt lat="39.7564870" lon="-5.5474850">
        <ele>460.2</ele>
        <time>2019-07-09T08:15:17Z</time>
      </trkpt>
      <trkpt lat="39.7564040" lon="-5.5474930">
        <ele>460.2</ele>
        <time>2019-07-09T08:15:20Z</time>
      </trkpt>
      <trkpt lat="39.7563250" lon="-5.5474860">
        <ele>460.4</ele>
        <time>2019-07-09T08:15:23Z</time>
      </trkpt>
      <trkpt lat="39.7562640" lon="-5.5474670">
        <ele>460.8</ele>
        <time>2019-07-09T08:15:27Z</time>
      </trkpt>
      <trkpt lat="39.7561940" lon="-5.5474110">
        <ele>460.8</ele>
        <time>2019-07-09T08:15:29Z</time>
      </trkpt>
      <trkpt lat="39.7561240" lon="-5.5473540">
        <ele>460.8</ele>
        <time>2019-07-09T08:15:32Z</time>
      </trkpt>
      <trkpt lat="39.7560860" lon="-5.5473190">
        <ele>461.0</ele>
        <time>2019-07-09T08:15:34Z</time>
      </trkpt>
      <trkpt lat="39.7560730" lon="-5.5472950">
        <ele>461.0</ele>
        <time>2019-07-09T08:15:35Z</time>
      </trkpt>
      <trkpt lat="39.7560120" lon="-5.5471630">
        <ele>461.4</ele>
        <time>2019-07-09T08:15:40Z</time>
      </trkpt>
      <trkpt lat="39.7560230" lon="-5.5470160">
        <ele>462.0</ele>
        <time>2019-07-09T08:15:45Z</time>
      </trkpt>
      <trkpt lat="39.7560080" lon="-5.5469570">
        <ele>462.0</ele>
        <time>2019-07-09T08:15:46Z</time>
      </trkpt>
      <trkpt lat="39.7559770" lon="-5.5468960">
        <ele>462.2</ele>
        <time>2019-07-09T08:15:49Z</time>
      </trkpt>
      <trkpt lat="39.7559370" lon="-5.5468380">
        <ele>462.0</ele>
        <time>2019-07-09T08:15:50Z</time>
      </trkpt>
      <trkpt lat="39.7558660" lon="-5.5467650">
        <ele>462.0</ele>
        <time>2019-07-09T08:15:53Z</time>
      </trkpt>
      <trkpt lat="39.7558320" lon="-5.5467520">
        <ele>462.0</ele>
        <time>2019-07-09T08:15:54Z</time>
      </trkpt>
      <trkpt lat="39.7556210" lon="-5.5467420">
        <ele>462.0</ele>
        <time>2019-07-09T08:16:00Z</time>
      </trkpt>
      <trkpt lat="39.7555390" lon="-5.5467470">
        <ele>461.8</ele>
        <time>2019-07-09T08:16:02Z</time>
      </trkpt>
      <trkpt lat="39.7554500" lon="-5.5467490">
        <ele>461.8</ele>
        <time>2019-07-09T08:16:04Z</time>
      </trkpt>
      <trkpt lat="39.7553630" lon="-5.5467760">
        <ele>461.2</ele>
        <time>2019-07-09T08:16:06Z</time>
      </trkpt>
      <trkpt lat="39.7552200" lon="-5.5468650">
        <ele>460.2</ele>
        <time>2019-07-09T08:16:11Z</time>
      </trkpt>
      <trkpt lat="39.7551450" lon="-5.5469740">
        <ele>459.4</ele>
        <time>2019-07-09T08:16:15Z</time>
      </trkpt>
      <trkpt lat="39.7550930" lon="-5.5470720">
        <ele>459.2</ele>
        <time>2019-07-09T08:16:16Z</time>
      </trkpt>
      <trkpt lat="39.7550700" lon="-5.5471250">
        <ele>459.0</ele>
        <time>2019-07-09T08:16:17Z</time>
      </trkpt>
      <trkpt lat="39.7548600" lon="-5.5475390">
        <ele>458.0</ele>
        <time>2019-07-09T08:16:25Z</time>
      </trkpt>
      <trkpt lat="39.7548330" lon="-5.5475940">
        <ele>458.0</ele>
        <time>2019-07-09T08:16:26Z</time>
      </trkpt>
      <trkpt lat="39.7546760" lon="-5.5478600">
        <ele>457.4</ele>
        <time>2019-07-09T08:16:31Z</time>
      </trkpt>
      <trkpt lat="39.7545860" lon="-5.5480250">
        <ele>457.2</ele>
        <time>2019-07-09T08:16:34Z</time>
      </trkpt>
      <trkpt lat="39.7545030" lon="-5.5481830">
        <ele>457.0</ele>
        <time>2019-07-09T08:16:37Z</time>
      </trkpt>
      <trkpt lat="39.7543800" lon="-5.5483720">
        <ele>456.8</ele>
        <time>2019-07-09T08:16:41Z</time>
      </trkpt>
      <trkpt lat="39.7543470" lon="-5.5484190">
        <ele>456.8</ele>
        <time>2019-07-09T08:16:42Z</time>
      </trkpt>
      <trkpt lat="39.7540920" lon="-5.5487990">
        <ele>457.0</ele>
        <time>2019-07-09T08:16:50Z</time>
      </trkpt>
      <trkpt lat="39.7539900" lon="-5.5489380">
        <ele>456.6</ele>
        <time>2019-07-09T08:16:53Z</time>
      </trkpt>
      <trkpt lat="39.7537870" lon="-5.5492190">
        <ele>456.6</ele>
        <time>2019-07-09T08:16:59Z</time>
      </trkpt>
      <trkpt lat="39.7537000" lon="-5.5493560">
        <ele>456.8</ele>
        <time>2019-07-09T08:17:03Z</time>
      </trkpt>
      <trkpt lat="39.7536140" lon="-5.5494380">
        <ele>457.0</ele>
        <time>2019-07-09T08:17:05Z</time>
      </trkpt>
      <trkpt lat="39.7535260" lon="-5.5495030">
        <ele>457.6</ele>
        <time>2019-07-09T08:17:08Z</time>
      </trkpt>
      <trkpt lat="39.7534020" lon="-5.5495880">
        <ele>457.8</ele>
        <time>2019-07-09T08:17:12Z</time>
      </trkpt>
      <trkpt lat="39.7533410" lon="-5.5496260">
        <ele>458.0</ele>
        <time>2019-07-09T08:17:14Z</time>
      </trkpt>
      <trkpt lat="39.7532160" lon="-5.5497010">
        <ele>459.0</ele>
        <time>2019-07-09T08:17:18Z</time>
      </trkpt>
      <trkpt lat="39.7531140" lon="-5.5497340">
        <ele>459.4</ele>
        <time>2019-07-09T08:17:21Z</time>
      </trkpt>
      <trkpt lat="39.7530070" lon="-5.5497590">
        <ele>459.8</ele>
        <time>2019-07-09T08:17:24Z</time>
      </trkpt>
      <trkpt lat="39.7528690" lon="-5.5498090">
        <ele>460.0</ele>
        <time>2019-07-09T08:17:28Z</time>
      </trkpt>
      <trkpt lat="39.7528390" lon="-5.5498280">
        <ele>460.2</ele>
        <time>2019-07-09T08:17:29Z</time>
      </trkpt>
      <trkpt lat="39.7527220" lon="-5.5499630">
        <ele>461.0</ele>
        <time>2019-07-09T08:17:34Z</time>
      </trkpt>
      <trkpt lat="39.7527010" lon="-5.5499940">
        <ele>461.2</ele>
        <time>2019-07-09T08:17:35Z</time>
      </trkpt>
      <trkpt lat="39.7525800" lon="-5.5501880">
        <ele>462.2</ele>
        <time>2019-07-09T08:17:41Z</time>
      </trkpt>
      <trkpt lat="39.7525610" lon="-5.5502210">
        <ele>462.4</ele>
        <time>2019-07-09T08:17:42Z</time>
      </trkpt>
      <trkpt lat="39.7524150" lon="-5.5504500">
        <ele>463.4</ele>
        <time>2019-07-09T08:17:49Z</time>
      </trkpt>
      <trkpt lat="39.7523910" lon="-5.5504830">
        <ele>463.6</ele>
        <time>2019-07-09T08:17:50Z</time>
      </trkpt>
      <trkpt lat="39.7522750" lon="-5.5506310">
        <ele>464.6</ele>
        <time>2019-07-09T08:17:55Z</time>
      </trkpt>
      <trkpt lat="39.7522410" lon="-5.5506810">
        <ele>465.4</ele>
        <time>2019-07-09T08:17:57Z</time>
      </trkpt>
      <trkpt lat="39.7522240" lon="-5.5507060">
        <ele>465.8</ele>
        <time>2019-07-09T08:17:58Z</time>
      </trkpt>
      <trkpt lat="39.7521840" lon="-5.5508160">
        <ele>466.4</ele>
        <time>2019-07-09T08:18:01Z</time>
      </trkpt>
      <trkpt lat="39.7521740" lon="-5.5508600">
        <ele>466.8</ele>
        <time>2019-07-09T08:18:02Z</time>
      </trkpt>
      <trkpt lat="39.7521740" lon="-5.5508600">
        <ele>466.8</ele>
        <time>2019-07-09T08:18:03Z</time>
      </trkpt>
      <trkpt lat="39.7521200" lon="-5.5510390">
        <ele>467.2</ele>
        <time>2019-07-09T08:18:07Z</time>
      </trkpt>
      <trkpt lat="39.7520620" lon="-5.5511650">
        <ele>467.4</ele>
        <time>2019-07-09T08:18:09Z</time>
      </trkpt>
      <trkpt lat="39.7519560" lon="-5.5513540">
        <ele>468.2</ele>
        <time>2019-07-09T08:18:14Z</time>
      </trkpt>
      <trkpt lat="39.7518570" lon="-5.5514810">
        <ele>469.0</ele>
        <time>2019-07-09T08:18:18Z</time>
      </trkpt>
      <trkpt lat="39.7518340" lon="-5.5515140">
        <ele>469.2</ele>
        <time>2019-07-09T08:18:19Z</time>
      </trkpt>
      <trkpt lat="39.7517000" lon="-5.5516550">
        <ele>469.6</ele>
        <time>2019-07-09T08:18:24Z</time>
      </trkpt>
      <trkpt lat="39.7517000" lon="-5.5516550">
        <ele>470.0</ele>
        <time>2019-07-09T08:18:25Z</time>
      </trkpt>
      <trkpt lat="39.7515790" lon="-5.5517660">
        <ele>471.2</ele>
        <time>2019-07-09T08:18:28Z</time>
      </trkpt>
      <trkpt lat="39.7514080" lon="-5.5519690">
        <ele>471.8</ele>
        <time>2019-07-09T08:18:34Z</time>
      </trkpt>
      <trkpt lat="39.7512210" lon="-5.5521840">
        <ele>472.2</ele>
        <time>2019-07-09T08:18:40Z</time>
      </trkpt>
      <trkpt lat="39.7511350" lon="-5.5523280">
        <ele>472.4</ele>
        <time>2019-07-09T08:18:43Z</time>
      </trkpt>
      <trkpt lat="39.7511120" lon="-5.5523830">
        <ele>472.6</ele>
        <time>2019-07-09T08:18:44Z</time>
      </trkpt>
      <trkpt lat="39.7510730" lon="-5.5525010">
        <ele>472.6</ele>
        <time>2019-07-09T08:18:46Z</time>
      </trkpt>
      <trkpt lat="39.7510410" lon="-5.5526260">
        <ele>472.6</ele>
        <time>2019-07-09T08:18:48Z</time>
      </trkpt>
      <trkpt lat="39.7510070" lon="-5.5528870">
        <ele>472.6</ele>
        <time>2019-07-09T08:18:52Z</time>
      </trkpt>
      <trkpt lat="39.7509960" lon="-5.5530140">
        <ele>472.6</ele>
        <time>2019-07-09T08:18:55Z</time>
      </trkpt>
      <trkpt lat="39.7509550" lon="-5.5533760">
        <ele>473.2</ele>
        <time>2019-07-09T08:19:00Z</time>
      </trkpt>
      <trkpt lat="39.7509380" lon="-5.5534930">
        <ele>473.4</ele>
        <time>2019-07-09T08:19:03Z</time>
      </trkpt>
      <trkpt lat="39.7509220" lon="-5.5536080">
        <ele>473.4</ele>
        <time>2019-07-09T08:19:04Z</time>
      </trkpt>
      <trkpt lat="39.7509120" lon="-5.5540830">
        <ele>474.2</ele>
        <time>2019-07-09T08:19:12Z</time>
      </trkpt>
      <trkpt lat="39.7509130" lon="-5.5541410">
        <ele>474.2</ele>
        <time>2019-07-09T08:19:13Z</time>
      </trkpt>
      <trkpt lat="39.7509360" lon="-5.5545440">
        <ele>475.0</ele>
        <time>2019-07-09T08:19:20Z</time>
      </trkpt>
      <trkpt lat="39.7509460" lon="-5.5546570">
        <ele>475.2</ele>
        <time>2019-07-09T08:19:22Z</time>
      </trkpt>
      <trkpt lat="39.7509510" lon="-5.5547140">
        <ele>475.4</ele>
        <time>2019-07-09T08:19:23Z</time>
      </trkpt>
      <trkpt lat="39.7509670" lon="-5.5548840">
        <ele>475.8</ele>
        <time>2019-07-09T08:19:27Z</time>
      </trkpt>
      <trkpt lat="39.7509950" lon="-5.5551750">
        <ele>476.0</ele>
        <time>2019-07-09T08:19:31Z</time>
      </trkpt>
      <trkpt lat="39.7510380" lon="-5.5556100">
        <ele>476.2</ele>
        <time>2019-07-09T08:19:38Z</time>
      </trkpt>
      <trkpt lat="39.7510400" lon="-5.5556770">
        <ele>476.2</ele>
        <time>2019-07-09T08:19:39Z</time>
      </trkpt>
      <trkpt lat="39.7510470" lon="-5.5559020">
        <ele>476.0</ele>
        <time>2019-07-09T08:19:42Z</time>
      </trkpt>
      <trkpt lat="39.7510360" lon="-5.5560730">
        <ele>475.8</ele>
        <time>2019-07-09T08:19:44Z</time>
      </trkpt>
      <trkpt lat="39.7509590" lon="-5.5564700">
        <ele>474.0</ele>
        <time>2019-07-09T08:19:48Z</time>
      </trkpt>
      <trkpt lat="39.7508900" lon="-5.5566880">
        <ele>472.4</ele>
        <time>2019-07-09T08:19:50Z</time>
      </trkpt>
      <trkpt lat="39.7508220" lon="-5.5569230">
        <ele>470.8</ele>
        <time>2019-07-09T08:19:52Z</time>
      </trkpt>
      <trkpt lat="39.7507900" lon="-5.5570450">
        <ele>470.0</ele>
        <time>2019-07-09T08:19:53Z</time>
      </trkpt>
      <trkpt lat="39.7507610" lon="-5.5571710">
        <ele>469.4</ele>
        <time>2019-07-09T08:19:54Z</time>
      </trkpt>
      <trkpt lat="39.7507050" lon="-5.5574340">
        <ele>468.4</ele>
        <time>2019-07-09T08:19:56Z</time>
      </trkpt>
      <trkpt lat="39.7506900" lon="-5.5575390">
        <ele>466.8</ele>
        <time>2019-07-09T08:19:57Z</time>
      </trkpt>
      <trkpt lat="39.7506750" lon="-5.5576430">
        <ele>465.8</ele>
        <time>2019-07-09T08:19:58Z</time>
      </trkpt>
      <trkpt lat="39.7506450" lon="-5.5578510">
        <ele>465.0</ele>
        <time>2019-07-09T08:19:59Z</time>
      </trkpt>
      <trkpt lat="39.7506320" lon="-5.5579940">
        <ele>464.2</ele>
        <time>2019-07-09T08:20:00Z</time>
      </trkpt>
      <trkpt lat="39.7506100" lon="-5.5582790">
        <ele>463.0</ele>
        <time>2019-07-09T08:20:02Z</time>
      </trkpt>
      <trkpt lat="39.7505920" lon="-5.5587060">
        <ele>461.8</ele>
        <time>2019-07-09T08:20:05Z</time>
      </trkpt>
      <trkpt lat="39.7505970" lon="-5.5588470">
        <ele>461.2</ele>
        <time>2019-07-09T08:20:06Z</time>
      </trkpt>
      <trkpt lat="39.7506080" lon="-5.5589890">
        <ele>460.2</ele>
        <time>2019-07-09T08:20:07Z</time>
      </trkpt>
      <trkpt lat="39.7506380" lon="-5.5592780">
        <ele>459.0</ele>
        <time>2019-07-09T08:20:09Z</time>
      </trkpt>
      <trkpt lat="39.7506750" lon="-5.5595800">
        <ele>457.2</ele>
        <time>2019-07-09T08:20:11Z</time>
      </trkpt>
      <trkpt lat="39.7506950" lon="-5.5597370">
        <ele>456.4</ele>
        <time>2019-07-09T08:20:12Z</time>
      </trkpt>
      <trkpt lat="39.7507140" lon="-5.5598970">
        <ele>455.2</ele>
        <time>2019-07-09T08:20:13Z</time>
      </trkpt>
      <trkpt lat="39.7507530" lon="-5.5602220">
        <ele>453.6</ele>
        <time>2019-07-09T08:20:15Z</time>
      </trkpt>
      <trkpt lat="39.7507960" lon="-5.5605460">
        <ele>452.0</ele>
        <time>2019-07-09T08:20:17Z</time>
      </trkpt>
      <trkpt lat="39.7508410" lon="-5.5608620">
        <ele>451.0</ele>
        <time>2019-07-09T08:20:19Z</time>
      </trkpt>
      <trkpt lat="39.7508810" lon="-5.5611660">
        <ele>449.2</ele>
        <time>2019-07-09T08:20:21Z</time>
      </trkpt>
      <trkpt lat="39.7509460" lon="-5.5617380">
        <ele>448.2</ele>
        <time>2019-07-09T08:20:25Z</time>
      </trkpt>
      <trkpt lat="39.7510000" lon="-5.5621410">
        <ele>446.8</ele>
        <time>2019-07-09T08:20:28Z</time>
      </trkpt>
      <trkpt lat="39.7510450" lon="-5.5625260">
        <ele>445.4</ele>
        <time>2019-07-09T08:20:31Z</time>
      </trkpt>
      <trkpt lat="39.7510580" lon="-5.5626530">
        <ele>445.0</ele>
        <time>2019-07-09T08:20:32Z</time>
      </trkpt>
      <trkpt lat="39.7511100" lon="-5.5630370">
        <ele>443.8</ele>
        <time>2019-07-09T08:20:35Z</time>
      </trkpt>
      <trkpt lat="39.7511570" lon="-5.5632930">
        <ele>442.4</ele>
        <time>2019-07-09T08:20:37Z</time>
      </trkpt>
      <trkpt lat="39.7511890" lon="-5.5634160">
        <ele>442.0</ele>
        <time>2019-07-09T08:20:38Z</time>
      </trkpt>
      <trkpt lat="39.7512810" lon="-5.5636400">
        <ele>440.8</ele>
        <time>2019-07-09T08:20:40Z</time>
      </trkpt>
      <trkpt lat="39.7514010" lon="-5.5638260">
        <ele>440.0</ele>
        <time>2019-07-09T08:20:42Z</time>
      </trkpt>
      <trkpt lat="39.7515200" lon="-5.5639930">
        <ele>439.8</ele>
        <time>2019-07-09T08:20:44Z</time>
      </trkpt>
      <trkpt lat="39.7516850" lon="-5.5642400">
        <ele>439.8</ele>
        <time>2019-07-09T08:20:47Z</time>
      </trkpt>
      <trkpt lat="39.7517970" lon="-5.5644010">
        <ele>439.6</ele>
        <time>2019-07-09T08:20:49Z</time>
      </trkpt>
      <trkpt lat="39.7518530" lon="-5.5644820">
        <ele>438.6</ele>
        <time>2019-07-09T08:20:51Z</time>
      </trkpt>
      <trkpt lat="39.7520220" lon="-5.5647350">
        <ele>438.2</ele>
        <time>2019-07-09T08:20:53Z</time>
      </trkpt>
      <trkpt lat="39.7522370" lon="-5.5650650">
        <ele>437.6</ele>
        <time>2019-07-09T08:20:57Z</time>
      </trkpt>
      <trkpt lat="39.7524270" lon="-5.5653770">
        <ele>437.2</ele>
        <time>2019-07-09T08:21:01Z</time>
      </trkpt>
      <trkpt lat="39.7525530" lon="-5.5655930">
        <ele>437.4</ele>
        <time>2019-07-09T08:21:04Z</time>
      </trkpt>
      <trkpt lat="39.7526980" lon="-5.5658610">
        <ele>437.8</ele>
        <time>2019-07-09T08:21:08Z</time>
      </trkpt>
      <trkpt lat="39.7527700" lon="-5.5659830">
        <ele>438.6</ele>
        <time>2019-07-09T08:21:10Z</time>
      </trkpt>
      <trkpt lat="39.7528030" lon="-5.5660450">
        <ele>438.8</ele>
        <time>2019-07-09T08:21:11Z</time>
      </trkpt>
      <trkpt lat="39.7528340" lon="-5.5661090">
        <ele>438.8</ele>
        <time>2019-07-09T08:21:12Z</time>
      </trkpt>
      <trkpt lat="39.7528920" lon="-5.5662390">
        <ele>439.0</ele>
        <time>2019-07-09T08:21:14Z</time>
      </trkpt>
      <trkpt lat="39.7529550" lon="-5.5663660">
        <ele>439.4</ele>
        <time>2019-07-09T08:21:16Z</time>
      </trkpt>
      <trkpt lat="39.7530440" lon="-5.5665650">
        <ele>439.6</ele>
        <time>2019-07-09T08:21:19Z</time>
      </trkpt>
      <trkpt lat="39.7531340" lon="-5.5667750">
        <ele>439.6</ele>
        <time>2019-07-09T08:21:22Z</time>
      </trkpt>
      <trkpt lat="39.7533150" lon="-5.5672090">
        <ele>439.0</ele>
        <time>2019-07-09T08:21:28Z</time>
      </trkpt>
      <trkpt lat="39.7534570" lon="-5.5674740">
        <ele>438.2</ele>
        <time>2019-07-09T08:21:32Z</time>
      </trkpt>
      <trkpt lat="39.7535370" lon="-5.5675950">
        <ele>438.4</ele>
        <time>2019-07-09T08:21:34Z</time>
      </trkpt>
      <trkpt lat="39.7537870" lon="-5.5680050">
        <ele>438.8</ele>
        <time>2019-07-09T08:21:41Z</time>
      </trkpt>
      <trkpt lat="39.7541000" lon="-5.5684600">
        <ele>438.8</ele>
        <time>2019-07-09T08:21:49Z</time>
      </trkpt>
      <trkpt lat="39.7544740" lon="-5.5690260">
        <ele>439.0</ele>
        <time>2019-07-09T08:21:59Z</time>
      </trkpt>
      <trkpt lat="39.7547260" lon="-5.5693940">
        <ele>440.0</ele>
        <time>2019-07-09T08:22:06Z</time>
      </trkpt>
      <trkpt lat="39.7547970" lon="-5.5694980">
        <ele>440.2</ele>
        <time>2019-07-09T08:22:08Z</time>
      </trkpt>
      <trkpt lat="39.7551170" lon="-5.5699910">
        <ele>440.2</ele>
        <time>2019-07-09T08:22:17Z</time>
      </trkpt>
      <trkpt lat="39.7551520" lon="-5.5700500">
        <ele>440.2</ele>
        <time>2019-07-09T08:22:18Z</time>
      </trkpt>
      <trkpt lat="39.7553890" lon="-5.5703980">
        <ele>439.8</ele>
        <time>2019-07-09T08:22:24Z</time>
      </trkpt>
      <trkpt lat="39.7554710" lon="-5.5705120">
        <ele>439.8</ele>
        <time>2019-07-09T08:22:26Z</time>
      </trkpt>
      <trkpt lat="39.7555940" lon="-5.5706860">
        <ele>439.4</ele>
        <time>2019-07-09T08:22:29Z</time>
      </trkpt>
      <trkpt lat="39.7557220" lon="-5.5708650">
        <ele>438.8</ele>
        <time>2019-07-09T08:22:33Z</time>
      </trkpt>
      <trkpt lat="39.7558090" lon="-5.5709870">
        <ele>438.6</ele>
        <time>2019-07-09T08:22:34Z</time>
      </trkpt>
      <trkpt lat="39.7558970" lon="-5.5711140">
        <ele>438.0</ele>
        <time>2019-07-09T08:22:36Z</time>
      </trkpt>
      <trkpt lat="39.7559860" lon="-5.5712460">
        <ele>437.6</ele>
        <time>2019-07-09T08:22:38Z</time>
      </trkpt>
      <trkpt lat="39.7560780" lon="-5.5713810">
        <ele>437.0</ele>
        <time>2019-07-09T08:22:40Z</time>
      </trkpt>
      <trkpt lat="39.7561730" lon="-5.5715150">
        <ele>436.4</ele>
        <time>2019-07-09T08:22:42Z</time>
      </trkpt>
      <trkpt lat="39.7562710" lon="-5.5716550">
        <ele>435.8</ele>
        <time>2019-07-09T08:22:44Z</time>
      </trkpt>
      <trkpt lat="39.7563700" lon="-5.5718000">
        <ele>435.0</ele>
        <time>2019-07-09T08:22:46Z</time>
      </trkpt>
      <trkpt lat="39.7564810" lon="-5.5719380">
        <ele>434.4</ele>
        <time>2019-07-09T08:22:48Z</time>
      </trkpt>
      <trkpt lat="39.7565930" lon="-5.5720780">
        <ele>433.8</ele>
        <time>2019-07-09T08:22:50Z</time>
      </trkpt>
      <trkpt lat="39.7567590" lon="-5.5722870">
        <ele>432.8</ele>
        <time>2019-07-09T08:22:53Z</time>
      </trkpt>
      <trkpt lat="39.7569160" lon="-5.5724790">
        <ele>432.4</ele>
        <time>2019-07-09T08:22:56Z</time>
      </trkpt>
      <trkpt lat="39.7571050" lon="-5.5727270">
        <ele>431.8</ele>
        <time>2019-07-09T08:23:00Z</time>
      </trkpt>
      <trkpt lat="39.7571520" lon="-5.5727900">
        <ele>431.6</ele>
        <time>2019-07-09T08:23:01Z</time>
      </trkpt>
      <trkpt lat="39.7571990" lon="-5.5728520">
        <ele>431.6</ele>
        <time>2019-07-09T08:23:03Z</time>
      </trkpt>
      <trkpt lat="39.7573420" lon="-5.5730450">
        <ele>431.6</ele>
        <time>2019-07-09T08:23:05Z</time>
      </trkpt>
      <trkpt lat="39.7577480" lon="-5.5735760">
        <ele>430.8</ele>
        <time>2019-07-09T08:23:13Z</time>
      </trkpt>
      <trkpt lat="39.7577990" lon="-5.5736430">
        <ele>430.6</ele>
        <time>2019-07-09T08:23:14Z</time>
      </trkpt>
      <trkpt lat="39.7578490" lon="-5.5737110">
        <ele>430.6</ele>
        <time>2019-07-09T08:23:15Z</time>
      </trkpt>
      <trkpt lat="39.7582340" lon="-5.5742250">
        <ele>429.6</ele>
        <time>2019-07-09T08:23:23Z</time>
      </trkpt>
      <trkpt lat="39.7582810" lon="-5.5742890">
        <ele>429.8</ele>
        <time>2019-07-09T08:23:25Z</time>
      </trkpt>
      <trkpt lat="39.7585670" lon="-5.5746910">
        <ele>429.4</ele>
        <time>2019-07-09T08:23:31Z</time>
      </trkpt>
      <trkpt lat="39.7586690" lon="-5.5748250">
        <ele>428.8</ele>
        <time>2019-07-09T08:23:33Z</time>
      </trkpt>
      <trkpt lat="39.7588700" lon="-5.5750930">
        <ele>428.4</ele>
        <time>2019-07-09T08:23:36Z</time>
      </trkpt>
      <trkpt lat="39.7591050" lon="-5.5754130">
        <ele>427.8</ele>
        <time>2019-07-09T08:23:41Z</time>
      </trkpt>
      <trkpt lat="39.7595010" lon="-5.5759640">
        <ele>427.4</ele>
        <time>2019-07-09T08:23:50Z</time>
      </trkpt>
      <trkpt lat="39.7595880" lon="-5.5760800">
        <ele>427.4</ele>
        <time>2019-07-09T08:23:52Z</time>
      </trkpt>
      <trkpt lat="39.7599080" lon="-5.5764970">
        <ele>427.8</ele>
        <time>2019-07-09T08:24:01Z</time>
      </trkpt>
      <trkpt lat="39.7600440" lon="-5.5766850">
        <ele>428.0</ele>
        <time>2019-07-09T08:24:04Z</time>
      </trkpt>
      <trkpt lat="39.7601840" lon="-5.5768520">
        <ele>428.4</ele>
        <time>2019-07-09T08:24:08Z</time>
      </trkpt>
      <trkpt lat="39.7601840" lon="-5.5768520">
        <ele>428.6</ele>
        <time>2019-07-09T08:24:09Z</time>
      </trkpt>
      <trkpt lat="39.7605130" lon="-5.5772100">
        <ele>428.8</ele>
        <time>2019-07-09T08:24:17Z</time>
      </trkpt>
      <trkpt lat="39.7605530" lon="-5.5772530">
        <ele>429.0</ele>
        <time>2019-07-09T08:24:19Z</time>
      </trkpt>
      <trkpt lat="39.7608130" lon="-5.5775300">
        <ele>428.2</ele>
        <time>2019-07-09T08:24:25Z</time>
      </trkpt>
      <trkpt lat="39.7609090" lon="-5.5776190">
        <ele>428.0</ele>
        <time>2019-07-09T08:24:27Z</time>
      </trkpt>
      <trkpt lat="39.7611050" lon="-5.5778040">
        <ele>427.4</ele>
        <time>2019-07-09T08:24:30Z</time>
      </trkpt>
      <trkpt lat="39.7613010" lon="-5.5779960">
        <ele>426.6</ele>
        <time>2019-07-09T08:24:34Z</time>
      </trkpt>
      <trkpt lat="39.7613980" lon="-5.5780910">
        <ele>426.2</ele>
        <time>2019-07-09T08:24:36Z</time>
      </trkpt>
      <trkpt lat="39.7619080" lon="-5.5786100">
        <ele>425.2</ele>
        <time>2019-07-09T08:24:46Z</time>
      </trkpt>
      <trkpt lat="39.7623280" lon="-5.5790230">
        <ele>424.2</ele>
        <time>2019-07-09T08:24:55Z</time>
      </trkpt>
      <trkpt lat="39.7624320" lon="-5.5791230">
        <ele>424.0</ele>
        <time>2019-07-09T08:24:56Z</time>
      </trkpt>
      <trkpt lat="39.7628810" lon="-5.5795630">
        <ele>423.6</ele>
        <time>2019-07-09T08:25:05Z</time>
      </trkpt>
      <trkpt lat="39.7632820" lon="-5.5799620">
        <ele>423.4</ele>
        <time>2019-07-09T08:25:14Z</time>
      </trkpt>
      <trkpt lat="39.7634740" lon="-5.5801410">
        <ele>423.0</ele>
        <time>2019-07-09T08:25:18Z</time>
      </trkpt>
      <trkpt lat="39.7635740" lon="-5.5802370">
        <ele>422.8</ele>
        <time>2019-07-09T08:25:21Z</time>
      </trkpt>
      <trkpt lat="39.7640100" lon="-5.5806290">
        <ele>422.0</ele>
        <time>2019-07-09T08:25:28Z</time>
      </trkpt>
      <trkpt lat="39.7642290" lon="-5.5808200">
        <ele>420.8</ele>
        <time>2019-07-09T08:25:33Z</time>
      </trkpt>
      <trkpt lat="39.7646140" lon="-5.5811590">
        <ele>419.8</ele>
        <time>2019-07-09T08:25:39Z</time>
      </trkpt>
      <trkpt lat="39.7646700" lon="-5.5812130">
        <ele>419.4</ele>
        <time>2019-07-09T08:25:40Z</time>
      </trkpt>
      <trkpt lat="39.7647850" lon="-5.5813220">
        <ele>418.8</ele>
        <time>2019-07-09T08:25:42Z</time>
      </trkpt>
      <trkpt lat="39.7649090" lon="-5.5814290">
        <ele>418.2</ele>
        <time>2019-07-09T08:25:44Z</time>
      </trkpt>
      <trkpt lat="39.7650410" lon="-5.5815400">
        <ele>417.4</ele>
        <time>2019-07-09T08:25:46Z</time>
      </trkpt>
      <trkpt lat="39.7651080" lon="-5.5815970">
        <ele>416.8</ele>
        <time>2019-07-09T08:25:47Z</time>
      </trkpt>
      <trkpt lat="39.7651750" lon="-5.5816570">
        <ele>416.0</ele>
        <time>2019-07-09T08:25:49Z</time>
      </trkpt>
      <trkpt lat="39.7654500" lon="-5.5819060">
        <ele>414.6</ele>
        <time>2019-07-09T08:25:52Z</time>
      </trkpt>
      <trkpt lat="39.7655930" lon="-5.5820370">
        <ele>413.4</ele>
        <time>2019-07-09T08:25:55Z</time>
      </trkpt>
      <trkpt lat="39.7656900" lon="-5.5821270">
        <ele>412.8</ele>
        <time>2019-07-09T08:25:56Z</time>
      </trkpt>
      <trkpt lat="39.7658830" lon="-5.5823070">
        <ele>411.8</ele>
        <time>2019-07-09T08:25:58Z</time>
      </trkpt>
      <trkpt lat="39.7661790" lon="-5.5825680">
        <ele>410.8</ele>
        <time>2019-07-09T08:26:02Z</time>
      </trkpt>
      <trkpt lat="39.7663950" lon="-5.5827650">
        <ele>409.6</ele>
        <time>2019-07-09T08:26:05Z</time>
      </trkpt>
      <trkpt lat="39.7664630" lon="-5.5828250">
        <ele>408.6</ele>
        <time>2019-07-09T08:26:07Z</time>
      </trkpt>
      <trkpt lat="39.7667140" lon="-5.5830370">
        <ele>407.2</ele>
        <time>2019-07-09T08:26:10Z</time>
      </trkpt>
      <trkpt lat="39.7667690" lon="-5.5830860">
        <ele>406.8</ele>
        <time>2019-07-09T08:26:11Z</time>
      </trkpt>
      <trkpt lat="39.7668210" lon="-5.5831340">
        <ele>405.8</ele>
        <time>2019-07-09T08:26:13Z</time>
      </trkpt>
      <trkpt lat="39.7669090" lon="-5.5832190">
        <ele>404.6</ele>
        <time>2019-07-09T08:26:15Z</time>
      </trkpt>
      <trkpt lat="39.7669680" lon="-5.5832800">
        <ele>404.0</ele>
        <time>2019-07-09T08:26:16Z</time>
      </trkpt>
      <trkpt lat="39.7669880" lon="-5.5833010">
        <ele>403.6</ele>
        <time>2019-07-09T08:26:17Z</time>
      </trkpt>
      <trkpt lat="39.7670090" lon="-5.5833430">
        <ele>402.2</ele>
        <time>2019-07-09T08:26:20Z</time>
      </trkpt>
      <trkpt lat="39.7670070" lon="-5.5833430">
        <ele>402.0</ele>
        <time>2019-07-09T08:26:21Z</time>
      </trkpt>
      <trkpt lat="39.7670090" lon="-5.5833510">
        <ele>401.2</ele>
        <time>2019-07-09T08:28:21Z</time>
      </trkpt>
      <trkpt lat="39.7670330" lon="-5.5833690">
        <ele>401.2</ele>
        <time>2019-07-09T08:28:23Z</time>
      </trkpt>
      <trkpt lat="39.7670490" lon="-5.5833840">
        <ele>401.0</ele>
        <time>2019-07-09T08:28:25Z</time>
      </trkpt>
      <trkpt lat="39.7671510" lon="-5.5835070">
        <ele>400.8</ele>
        <time>2019-07-09T08:28:28Z</time>
      </trkpt>
      <trkpt lat="39.7672620" lon="-5.5836560">
        <ele>400.2</ele>
        <time>2019-07-09T08:28:31Z</time>
      </trkpt>
      <trkpt lat="39.7673090" lon="-5.5837110">
        <ele>399.6</ele>
        <time>2019-07-09T08:28:32Z</time>
      </trkpt>
      <trkpt lat="39.7674620" lon="-5.5839120">
        <ele>398.4</ele>
        <time>2019-07-09T08:28:35Z</time>
      </trkpt>
      <trkpt lat="39.7675180" lon="-5.5839890">
        <ele>397.4</ele>
        <time>2019-07-09T08:28:37Z</time>
      </trkpt>
      <trkpt lat="39.7676020" lon="-5.5841030">
        <ele>396.6</ele>
        <time>2019-07-09T08:28:38Z</time>
      </trkpt>
      <trkpt lat="39.7677700" lon="-5.5843320">
        <ele>395.4</ele>
        <time>2019-07-09T08:28:40Z</time>
      </trkpt>
      <trkpt lat="39.7678400" lon="-5.5844250">
        <ele>394.0</ele>
        <time>2019-07-09T08:28:41Z</time>
      </trkpt>
      <trkpt lat="39.7679110" lon="-5.5845210">
        <ele>393.0</ele>
        <time>2019-07-09T08:28:42Z</time>
      </trkpt>
      <trkpt lat="39.7680530" lon="-5.5847220">
        <ele>391.6</ele>
        <time>2019-07-09T08:28:44Z</time>
      </trkpt>
      <trkpt lat="39.7682000" lon="-5.5849190">
        <ele>389.6</ele>
        <time>2019-07-09T08:28:46Z</time>
      </trkpt>
      <trkpt lat="39.7683450" lon="-5.5851140">
        <ele>388.4</ele>
        <time>2019-07-09T08:28:48Z</time>
      </trkpt>
      <trkpt lat="39.7684160" lon="-5.5852110">
        <ele>387.8</ele>
        <time>2019-07-09T08:28:49Z</time>
      </trkpt>
      <trkpt lat="39.7684860" lon="-5.5853080">
        <ele>387.0</ele>
        <time>2019-07-09T08:28:50Z</time>
      </trkpt>
      <trkpt lat="39.7686280" lon="-5.5854980">
        <ele>385.8</ele>
        <time>2019-07-09T08:28:52Z</time>
      </trkpt>
      <trkpt lat="39.7687670" lon="-5.5856860">
        <ele>384.8</ele>
        <time>2019-07-09T08:28:54Z</time>
      </trkpt>
      <trkpt lat="39.7689020" lon="-5.5858650">
        <ele>383.6</ele>
        <time>2019-07-09T08:28:57Z</time>
      </trkpt>
      <trkpt lat="39.7689870" lon="-5.5859720">
        <ele>383.4</ele>
        <time>2019-07-09T08:28:58Z</time>
      </trkpt>
      <trkpt lat="39.7691570" lon="-5.5861860">
        <ele>383.2</ele>
        <time>2019-07-09T08:29:00Z</time>
      </trkpt>
      <trkpt lat="39.7692680" lon="-5.5863300">
        <ele>383.0</ele>
        <time>2019-07-09T08:29:02Z</time>
      </trkpt>
      <trkpt lat="39.7694980" lon="-5.5866380">
        <ele>383.0</ele>
        <time>2019-07-09T08:29:07Z</time>
      </trkpt>
      <trkpt lat="39.7695790" lon="-5.5867390">
        <ele>382.8</ele>
        <time>2019-07-09T08:29:09Z</time>
      </trkpt>
      <trkpt lat="39.7696490" lon="-5.5868360">
        <ele>383.2</ele>
        <time>2019-07-09T08:29:11Z</time>
      </trkpt>
      <trkpt lat="39.7697560" lon="-5.5869620">
        <ele>383.4</ele>
        <time>2019-07-09T08:29:14Z</time>
      </trkpt>
      <trkpt lat="39.7698530" lon="-5.5870960">
        <ele>383.8</ele>
        <time>2019-07-09T08:29:17Z</time>
      </trkpt>
      <trkpt lat="39.7699160" lon="-5.5871870">
        <ele>384.2</ele>
        <time>2019-07-09T08:29:19Z</time>
      </trkpt>
      <trkpt lat="39.7699840" lon="-5.5872770">
        <ele>384.6</ele>
        <time>2019-07-09T08:29:21Z</time>
      </trkpt>
      <trkpt lat="39.7700180" lon="-5.5873210">
        <ele>384.6</ele>
        <time>2019-07-09T08:29:22Z</time>
      </trkpt>
      <trkpt lat="39.7700830" lon="-5.5874120">
        <ele>384.8</ele>
        <time>2019-07-09T08:29:24Z</time>
      </trkpt>
      <trkpt lat="39.7701470" lon="-5.5875100">
        <ele>385.0</ele>
        <time>2019-07-09T08:29:26Z</time>
      </trkpt>
      <trkpt lat="39.7702120" lon="-5.5876160">
        <ele>384.8</ele>
        <time>2019-07-09T08:29:28Z</time>
      </trkpt>
      <trkpt lat="39.7702810" lon="-5.5877290">
        <ele>384.6</ele>
        <time>2019-07-09T08:29:30Z</time>
      </trkpt>
      <trkpt lat="39.7705000" lon="-5.5881240">
        <ele>383.4</ele>
        <time>2019-07-09T08:29:36Z</time>
      </trkpt>
      <trkpt lat="39.7705400" lon="-5.5882000">
        <ele>382.8</ele>
        <time>2019-07-09T08:29:37Z</time>
      </trkpt>
      <trkpt lat="39.7706220" lon="-5.5883610">
        <ele>382.0</ele>
        <time>2019-07-09T08:29:39Z</time>
      </trkpt>
      <trkpt lat="39.7707110" lon="-5.5885370">
        <ele>380.8</ele>
        <time>2019-07-09T08:29:41Z</time>
      </trkpt>
      <trkpt lat="39.7708070" lon="-5.5887290">
        <ele>379.4</ele>
        <time>2019-07-09T08:29:43Z</time>
      </trkpt>
      <trkpt lat="39.7709070" lon="-5.5889440">
        <ele>378.0</ele>
        <time>2019-07-09T08:29:45Z</time>
      </trkpt>
      <trkpt lat="39.7710200" lon="-5.5891780">
        <ele>376.2</ele>
        <time>2019-07-09T08:29:47Z</time>
      </trkpt>
      <trkpt lat="39.7710820" lon="-5.5893020">
        <ele>375.6</ele>
        <time>2019-07-09T08:29:48Z</time>
      </trkpt>
      <trkpt lat="39.7711450" lon="-5.5894320">
        <ele>374.2</ele>
        <time>2019-07-09T08:29:49Z</time>
      </trkpt>
      <trkpt lat="39.7712080" lon="-5.5895650">
        <ele>372.2</ele>
        <time>2019-07-09T08:29:50Z</time>
      </trkpt>
      <trkpt lat="39.7712730" lon="-5.5897010">
        <ele>370.6</ele>
        <time>2019-07-09T08:29:51Z</time>
      </trkpt>
      <trkpt lat="39.7713390" lon="-5.5898390">
        <ele>369.6</ele>
        <time>2019-07-09T08:29:52Z</time>
      </trkpt>
      <trkpt lat="39.7714720" lon="-5.5901160">
        <ele>367.4</ele>
        <time>2019-07-09T08:29:54Z</time>
      </trkpt>
      <trkpt lat="39.7715390" lon="-5.5902520">
        <ele>366.2</ele>
        <time>2019-07-09T08:29:55Z</time>
      </trkpt>
      <trkpt lat="39.7716060" lon="-5.5903870">
        <ele>364.6</ele>
        <time>2019-07-09T08:29:57Z</time>
      </trkpt>
      <trkpt lat="39.7717900" lon="-5.5907780">
        <ele>363.2</ele>
        <time>2019-07-09T08:29:59Z</time>
      </trkpt>
      <trkpt lat="39.7718470" lon="-5.5908990">
        <ele>362.8</ele>
        <time>2019-07-09T08:30:01Z</time>
      </trkpt>
      <trkpt lat="39.7720850" lon="-5.5914070">
        <ele>363.0</ele>
        <time>2019-07-09T08:30:05Z</time>
      </trkpt>
      <trkpt lat="39.7721990" lon="-5.5916610">
        <ele>363.2</ele>
        <time>2019-07-09T08:30:08Z</time>
      </trkpt>
      <trkpt lat="39.7722680" lon="-5.5918240">
        <ele>363.2</ele>
        <time>2019-07-09T08:30:10Z</time>
      </trkpt>
      <trkpt lat="39.7723020" lon="-5.5919060">
        <ele>363.2</ele>
        <time>2019-07-09T08:30:11Z</time>
      </trkpt>
      <trkpt lat="39.7723360" lon="-5.5919900">
        <ele>363.2</ele>
        <time>2019-07-09T08:30:12Z</time>
      </trkpt>
      <trkpt lat="39.7724080" lon="-5.5921590">
        <ele>363.0</ele>
        <time>2019-07-09T08:30:14Z</time>
      </trkpt>
      <trkpt lat="39.7725180" lon="-5.5924310">
        <ele>362.2</ele>
        <time>2019-07-09T08:30:17Z</time>
      </trkpt>
      <trkpt lat="39.7725570" lon="-5.5925250">
        <ele>361.6</ele>
        <time>2019-07-09T08:30:18Z</time>
      </trkpt>
      <trkpt lat="39.7726340" lon="-5.5927190">
        <ele>361.0</ele>
        <time>2019-07-09T08:30:20Z</time>
      </trkpt>
      <trkpt lat="39.7727590" lon="-5.5930300">
        <ele>359.6</ele>
        <time>2019-07-09T08:30:23Z</time>
      </trkpt>
      <trkpt lat="39.7728420" lon="-5.5932520">
        <ele>358.2</ele>
        <time>2019-07-09T08:30:25Z</time>
      </trkpt>
      <trkpt lat="39.7728850" lon="-5.5933690">
        <ele>356.8</ele>
        <time>2019-07-09T08:30:27Z</time>
      </trkpt>
      <trkpt lat="39.7730290" lon="-5.5937330">
        <ele>355.0</ele>
        <time>2019-07-09T08:30:29Z</time>
      </trkpt>
      <trkpt lat="39.7731280" lon="-5.5939830">
        <ele>353.2</ele>
        <time>2019-07-09T08:30:31Z</time>
      </trkpt>
      <trkpt lat="39.7731770" lon="-5.5941080">
        <ele>352.6</ele>
        <time>2019-07-09T08:30:32Z</time>
      </trkpt>
      <trkpt lat="39.7732720" lon="-5.5943530">
        <ele>352.0</ele>
        <time>2019-07-09T08:30:33Z</time>
      </trkpt>
      <trkpt lat="39.7733660" lon="-5.5945990">
        <ele>351.0</ele>
        <time>2019-07-09T08:30:36Z</time>
      </trkpt>
      <trkpt lat="39.7734940" lon="-5.5949100">
        <ele>350.0</ele>
        <time>2019-07-09T08:30:39Z</time>
      </trkpt>
      <trkpt lat="39.7736550" lon="-5.5953060">
        <ele>351.0</ele>
        <time>2019-07-09T08:30:44Z</time>
      </trkpt>
      <trkpt lat="39.7737100" lon="-5.5954390">
        <ele>351.4</ele>
        <time>2019-07-09T08:30:46Z</time>
      </trkpt>
      <trkpt lat="39.7737600" lon="-5.5955630">
        <ele>352.2</ele>
        <time>2019-07-09T08:30:48Z</time>
      </trkpt>
      <trkpt lat="39.7738040" lon="-5.5956790">
        <ele>352.6</ele>
        <time>2019-07-09T08:30:50Z</time>
      </trkpt>
      <trkpt lat="39.7738240" lon="-5.5957360">
        <ele>352.8</ele>
        <time>2019-07-09T08:30:51Z</time>
      </trkpt>
      <trkpt lat="39.7738650" lon="-5.5958440">
        <ele>353.2</ele>
        <time>2019-07-09T08:30:53Z</time>
      </trkpt>
      <trkpt lat="39.7739200" lon="-5.5959980">
        <ele>353.6</ele>
        <time>2019-07-09T08:30:56Z</time>
      </trkpt>
      <trkpt lat="39.7739370" lon="-5.5960510">
        <ele>353.6</ele>
        <time>2019-07-09T08:30:57Z</time>
      </trkpt>
      <trkpt lat="39.7739840" lon="-5.5962100">
        <ele>353.8</ele>
        <time>2019-07-09T08:31:00Z</time>
      </trkpt>
      <trkpt lat="39.7740450" lon="-5.5964430">
        <ele>353.8</ele>
        <time>2019-07-09T08:31:04Z</time>
      </trkpt>
      <trkpt lat="39.7741510" lon="-5.5968420">
        <ele>353.8</ele>
        <time>2019-07-09T08:31:10Z</time>
      </trkpt>
      <trkpt lat="39.7743230" lon="-5.5974620">
        <ele>353.0</ele>
        <time>2019-07-09T08:31:18Z</time>
      </trkpt>
      <trkpt lat="39.7744370" lon="-5.5978640">
        <ele>353.4</ele>
        <time>2019-07-09T08:31:24Z</time>
      </trkpt>
      <trkpt lat="39.7744790" lon="-5.5980140">
        <ele>354.2</ele>
        <time>2019-07-09T08:31:27Z</time>
      </trkpt>
      <trkpt lat="39.7745480" lon="-5.5981820">
        <ele>355.2</ele>
        <time>2019-07-09T08:31:31Z</time>
      </trkpt>
      <trkpt lat="39.7745670" lon="-5.5982270">
        <ele>355.2</ele>
        <time>2019-07-09T08:31:32Z</time>
      </trkpt>
      <trkpt lat="39.7746250" lon="-5.5983710">
        <ele>356.0</ele>
        <time>2019-07-09T08:31:35Z</time>
      </trkpt>
      <trkpt lat="39.7746430" lon="-5.5984190">
        <ele>356.2</ele>
        <time>2019-07-09T08:31:36Z</time>
      </trkpt>
      <trkpt lat="39.7746830" lon="-5.5985160">
        <ele>356.4</ele>
        <time>2019-07-09T08:31:38Z</time>
      </trkpt>
      <trkpt lat="39.7747470" lon="-5.5986600">
        <ele>356.6</ele>
        <time>2019-07-09T08:31:41Z</time>
      </trkpt>
      <trkpt lat="39.7748460" lon="-5.5989140">
        <ele>357.0</ele>
        <time>2019-07-09T08:31:46Z</time>
      </trkpt>
      <trkpt lat="39.7750070" lon="-5.5993450">
        <ele>357.6</ele>
        <time>2019-07-09T08:31:54Z</time>
      </trkpt>
      <trkpt lat="39.7751160" lon="-5.5997130">
        <ele>357.2</ele>
        <time>2019-07-09T08:32:00Z</time>
      </trkpt>
      <trkpt lat="39.7751560" lon="-5.5998440">
        <ele>357.4</ele>
        <time>2019-07-09T08:32:02Z</time>
      </trkpt>
      <trkpt lat="39.7752300" lon="-5.6001160">
        <ele>357.0</ele>
        <time>2019-07-09T08:32:06Z</time>
      </trkpt>
      <trkpt lat="39.7752720" lon="-5.6003280">
        <ele>356.8</ele>
        <time>2019-07-09T08:32:09Z</time>
      </trkpt>
      <trkpt lat="39.7752750" lon="-5.6004000">
        <ele>356.8</ele>
        <time>2019-07-09T08:32:10Z</time>
      </trkpt>
      <trkpt lat="39.7752460" lon="-5.6006170">
        <ele>356.8</ele>
        <time>2019-07-09T08:32:13Z</time>
      </trkpt>
      <trkpt lat="39.7752190" lon="-5.6007580">
        <ele>357.0</ele>
        <time>2019-07-09T08:32:15Z</time>
      </trkpt>
      <trkpt lat="39.7750870" lon="-5.6012430">
        <ele>356.8</ele>
        <time>2019-07-09T08:32:22Z</time>
      </trkpt>
      <trkpt lat="39.7749510" lon="-5.6017480">
        <ele>357.0</ele>
        <time>2019-07-09T08:32:30Z</time>
      </trkpt>
      <trkpt lat="39.7748770" lon="-5.6019720">
        <ele>357.2</ele>
        <time>2019-07-09T08:32:34Z</time>
      </trkpt>
      <trkpt lat="39.7748010" lon="-5.6021140">
        <ele>357.4</ele>
        <time>2019-07-09T08:32:37Z</time>
      </trkpt>
      <trkpt lat="39.7746570" lon="-5.6023150">
        <ele>357.8</ele>
        <time>2019-07-09T08:32:42Z</time>
      </trkpt>
      <trkpt lat="39.7745880" lon="-5.6023800">
        <ele>358.2</ele>
        <time>2019-07-09T08:32:44Z</time>
      </trkpt>
      <trkpt lat="39.7745520" lon="-5.6024110">
        <ele>358.4</ele>
        <time>2019-07-09T08:32:45Z</time>
      </trkpt>
      <trkpt lat="39.7744110" lon="-5.6025270">
        <ele>359.4</ele>
        <time>2019-07-09T08:32:49Z</time>
      </trkpt>
      <trkpt lat="39.7743770" lon="-5.6025540">
        <ele>359.4</ele>
        <time>2019-07-09T08:32:50Z</time>
      </trkpt>
      <trkpt lat="39.7743130" lon="-5.6026100">
        <ele>360.0</ele>
        <time>2019-07-09T08:32:52Z</time>
      </trkpt>
      <trkpt lat="39.7742360" lon="-5.6027170">
        <ele>360.4</ele>
        <time>2019-07-09T08:32:55Z</time>
      </trkpt>
      <trkpt lat="39.7742230" lon="-5.6027640">
        <ele>360.8</ele>
        <time>2019-07-09T08:32:57Z</time>
      </trkpt>
      <trkpt lat="39.7742320" lon="-5.6028610">
        <ele>361.0</ele>
        <time>2019-07-09T08:32:58Z</time>
      </trkpt>
      <trkpt lat="39.7742780" lon="-5.6029480">
        <ele>361.2</ele>
        <time>2019-07-09T08:33:00Z</time>
      </trkpt>
      <trkpt lat="39.7743400" lon="-5.6030140">
        <ele>361.8</ele>
        <time>2019-07-09T08:33:03Z</time>
      </trkpt>
      <trkpt lat="39.7744520" lon="-5.6030710">
        <ele>362.2</ele>
        <time>2019-07-09T08:33:05Z</time>
      </trkpt>
      <trkpt lat="39.7745880" lon="-5.6031470">
        <ele>362.8</ele>
        <time>2019-07-09T08:33:09Z</time>
      </trkpt>
      <trkpt lat="39.7746730" lon="-5.6032060">
        <ele>363.4</ele>
        <time>2019-07-09T08:33:12Z</time>
      </trkpt>
      <trkpt lat="39.7748240" lon="-5.6032820">
        <ele>364.0</ele>
        <time>2019-07-09T08:33:17Z</time>
      </trkpt>
      <trkpt lat="39.7748790" lon="-5.6033300">
        <ele>364.2</ele>
        <time>2019-07-09T08:33:19Z</time>
      </trkpt>
      <trkpt lat="39.7750480" lon="-5.6034760">
        <ele>364.8</ele>
        <time>2019-07-09T08:33:25Z</time>
      </trkpt>
      <trkpt lat="39.7750730" lon="-5.6035040">
        <ele>365.0</ele>
        <time>2019-07-09T08:33:26Z</time>
      </trkpt>
      <trkpt lat="39.7751910" lon="-5.6036510">
        <ele>366.2</ele>
        <time>2019-07-09T08:33:31Z</time>
      </trkpt>
      <trkpt lat="39.7752150" lon="-5.6036780">
        <ele>366.6</ele>
        <time>2019-07-09T08:33:33Z</time>
      </trkpt>
      <trkpt lat="39.7753060" lon="-5.6038070">
        <ele>367.2</ele>
        <time>2019-07-09T08:33:36Z</time>
      </trkpt>
      <trkpt lat="39.7753670" lon="-5.6039020">
        <ele>367.8</ele>
        <time>2019-07-09T08:33:39Z</time>
      </trkpt>
      <trkpt lat="39.7754070" lon="-5.6039640">
        <ele>368.4</ele>
        <time>2019-07-09T08:33:41Z</time>
      </trkpt>
      <trkpt lat="39.7754900" lon="-5.6041600">
        <ele>369.4</ele>
        <time>2019-07-09T08:33:46Z</time>
      </trkpt>
      <trkpt lat="39.7755620" lon="-5.6043620">
        <ele>370.2</ele>
        <time>2019-07-09T08:33:51Z</time>
      </trkpt>
      <trkpt lat="39.7755940" lon="-5.6044520">
        <ele>370.4</ele>
        <time>2019-07-09T08:33:53Z</time>
      </trkpt>
      <trkpt lat="39.7756140" lon="-5.6044960">
        <ele>370.6</ele>
        <time>2019-07-09T08:33:54Z</time>
      </trkpt>
      <trkpt lat="39.7756990" lon="-5.6047750">
        <ele>371.4</ele>
        <time>2019-07-09T08:34:00Z</time>
      </trkpt>
      <trkpt lat="39.7757910" lon="-5.6052010">
        <ele>372.2</ele>
        <time>2019-07-09T08:34:09Z</time>
      </trkpt>
      <trkpt lat="39.7758300" lon="-5.6053400">
        <ele>372.4</ele>
        <time>2019-07-09T08:34:12Z</time>
      </trkpt>
      <trkpt lat="39.7758410" lon="-5.6053870">
        <ele>372.6</ele>
        <time>2019-07-09T08:34:13Z</time>
      </trkpt>
      <trkpt lat="39.7758500" lon="-5.6054380">
        <ele>372.6</ele>
        <time>2019-07-09T08:34:14Z</time>
      </trkpt>
      <trkpt lat="39.7758870" lon="-5.6057500">
        <ele>372.8</ele>
        <time>2019-07-09T08:34:20Z</time>
      </trkpt>
      <trkpt lat="39.7759120" lon="-5.6059630">
        <ele>373.2</ele>
        <time>2019-07-09T08:34:24Z</time>
      </trkpt>
      <trkpt lat="39.7759120" lon="-5.6061840">
        <ele>373.8</ele>
        <time>2019-07-09T08:34:28Z</time>
      </trkpt>
      <trkpt lat="39.7759020" lon="-5.6062970">
        <ele>374.2</ele>
        <time>2019-07-09T08:34:31Z</time>
      </trkpt>
      <trkpt lat="39.7758900" lon="-5.6064080">
        <ele>374.2</ele>
        <time>2019-07-09T08:34:32Z</time>
      </trkpt>
      <trkpt lat="39.7758500" lon="-5.6066300">
        <ele>374.2</ele>
        <time>2019-07-09T08:34:37Z</time>
      </trkpt>
      <trkpt lat="39.7757710" lon="-5.6069250">
        <ele>374.2</ele>
        <time>2019-07-09T08:34:41Z</time>
      </trkpt>
      <trkpt lat="39.7757330" lon="-5.6071100">
        <ele>374.0</ele>
        <time>2019-07-09T08:34:44Z</time>
      </trkpt>
      <trkpt lat="39.7757200" lon="-5.6072320">
        <ele>374.0</ele>
        <time>2019-07-09T08:34:46Z</time>
      </trkpt>
      <trkpt lat="39.7757170" lon="-5.6072930">
        <ele>373.8</ele>
        <time>2019-07-09T08:34:47Z</time>
      </trkpt>
      <trkpt lat="39.7757170" lon="-5.6073540">
        <ele>373.8</ele>
        <time>2019-07-09T08:34:48Z</time>
      </trkpt>
      <trkpt lat="39.7757240" lon="-5.6074790">
        <ele>373.6</ele>
        <time>2019-07-09T08:34:50Z</time>
      </trkpt>
      <trkpt lat="39.7757320" lon="-5.6075430">
        <ele>373.4</ele>
        <time>2019-07-09T08:34:51Z</time>
      </trkpt>
      <trkpt lat="39.7757870" lon="-5.6077990">
        <ele>372.8</ele>
        <time>2019-07-09T08:34:55Z</time>
      </trkpt>
      <trkpt lat="39.7757990" lon="-5.6078640">
        <ele>372.6</ele>
        <time>2019-07-09T08:34:56Z</time>
      </trkpt>
      <trkpt lat="39.7758060" lon="-5.6079320">
        <ele>372.4</ele>
        <time>2019-07-09T08:34:57Z</time>
      </trkpt>
      <trkpt lat="39.7757690" lon="-5.6082170">
        <ele>372.0</ele>
        <time>2019-07-09T08:35:01Z</time>
      </trkpt>
      <trkpt lat="39.7757220" lon="-5.6083770">
        <ele>371.6</ele>
        <time>2019-07-09T08:35:03Z</time>
      </trkpt>
      <trkpt lat="39.7756670" lon="-5.6085460">
        <ele>370.8</ele>
        <time>2019-07-09T08:35:05Z</time>
      </trkpt>
      <trkpt lat="39.7756460" lon="-5.6086340">
        <ele>370.4</ele>
        <time>2019-07-09T08:35:06Z</time>
      </trkpt>
      <trkpt lat="39.7756320" lon="-5.6089160">
        <ele>368.8</ele>
        <time>2019-07-09T08:35:09Z</time>
      </trkpt>
      <trkpt lat="39.7756450" lon="-5.6090140">
        <ele>368.4</ele>
        <time>2019-07-09T08:35:10Z</time>
      </trkpt>
      <trkpt lat="39.7756660" lon="-5.6091140">
        <ele>367.8</ele>
        <time>2019-07-09T08:35:11Z</time>
      </trkpt>
      <trkpt lat="39.7756910" lon="-5.6092150">
        <ele>367.4</ele>
        <time>2019-07-09T08:35:12Z</time>
      </trkpt>
      <trkpt lat="39.7757400" lon="-5.6094290">
        <ele>366.6</ele>
        <time>2019-07-09T08:35:14Z</time>
      </trkpt>
      <trkpt lat="39.7757580" lon="-5.6095380">
        <ele>366.2</ele>
        <time>2019-07-09T08:35:15Z</time>
      </trkpt>
      <trkpt lat="39.7757750" lon="-5.6096490">
        <ele>365.4</ele>
        <time>2019-07-09T08:35:16Z</time>
      </trkpt>
      <trkpt lat="39.7758120" lon="-5.6098770">
        <ele>364.2</ele>
        <time>2019-07-09T08:35:18Z</time>
      </trkpt>
      <trkpt lat="39.7758450" lon="-5.6101160">
        <ele>363.0</ele>
        <time>2019-07-09T08:35:20Z</time>
      </trkpt>
      <trkpt lat="39.7758600" lon="-5.6102370">
        <ele>362.0</ele>
        <time>2019-07-09T08:35:21Z</time>
      </trkpt>
      <trkpt lat="39.7758890" lon="-5.6104650">
        <ele>360.8</ele>
        <time>2019-07-09T08:35:23Z</time>
      </trkpt>
      <trkpt lat="39.7759370" lon="-5.6106880">
        <ele>359.4</ele>
        <time>2019-07-09T08:35:25Z</time>
      </trkpt>
      <trkpt lat="39.7759690" lon="-5.6107970">
        <ele>358.6</ele>
        <time>2019-07-09T08:35:26Z</time>
      </trkpt>
      <trkpt lat="39.7759870" lon="-5.6108800">
        <ele>357.6</ele>
        <time>2019-07-09T08:35:27Z</time>
      </trkpt>
      <trkpt lat="39.7760040" lon="-5.6109640">
        <ele>357.0</ele>
        <time>2019-07-09T08:35:28Z</time>
      </trkpt>
      <trkpt lat="39.7760380" lon="-5.6111320">
        <ele>356.6</ele>
        <time>2019-07-09T08:35:29Z</time>
      </trkpt>
      <trkpt lat="39.7760410" lon="-5.6112480">
        <ele>356.2</ele>
        <time>2019-07-09T08:35:30Z</time>
      </trkpt>
      <trkpt lat="39.7760140" lon="-5.6114750">
        <ele>355.6</ele>
        <time>2019-07-09T08:35:33Z</time>
      </trkpt>
      <trkpt lat="39.7759660" lon="-5.6116070">
        <ele>355.2</ele>
        <time>2019-07-09T08:35:34Z</time>
      </trkpt>
      <trkpt lat="39.7758690" lon="-5.6118710">
        <ele>354.0</ele>
        <time>2019-07-09T08:35:36Z</time>
      </trkpt>
      <trkpt lat="39.7757680" lon="-5.6120260">
        <ele>353.8</ele>
        <time>2019-07-09T08:35:38Z</time>
      </trkpt>
      <trkpt lat="39.7757150" lon="-5.6120960">
        <ele>353.8</ele>
        <time>2019-07-09T08:35:39Z</time>
      </trkpt>
      <trkpt lat="39.7755700" lon="-5.6123000">
        <ele>353.6</ele>
        <time>2019-07-09T08:35:42Z</time>
      </trkpt>
      <trkpt lat="39.7754890" lon="-5.6124460">
        <ele>353.4</ele>
        <time>2019-07-09T08:35:44Z</time>
      </trkpt>
      <trkpt lat="39.7754110" lon="-5.6126080">
        <ele>352.8</ele>
        <time>2019-07-09T08:35:46Z</time>
      </trkpt>
      <trkpt lat="39.7753040" lon="-5.6128610">
        <ele>351.6</ele>
        <time>2019-07-09T08:35:49Z</time>
      </trkpt>
      <trkpt lat="39.7752440" lon="-5.6130410">
        <ele>350.6</ele>
        <time>2019-07-09T08:35:51Z</time>
      </trkpt>
      <trkpt lat="39.7751900" lon="-5.6132320">
        <ele>349.4</ele>
        <time>2019-07-09T08:35:53Z</time>
      </trkpt>
      <trkpt lat="39.7751670" lon="-5.6133370">
        <ele>348.8</ele>
        <time>2019-07-09T08:35:54Z</time>
      </trkpt>
      <trkpt lat="39.7751310" lon="-5.6135560">
        <ele>348.0</ele>
        <time>2019-07-09T08:35:56Z</time>
      </trkpt>
      <trkpt lat="39.7751020" lon="-5.6139000">
        <ele>346.6</ele>
        <time>2019-07-09T08:35:59Z</time>
      </trkpt>
      <trkpt lat="39.7750870" lon="-5.6141360">
        <ele>345.6</ele>
        <time>2019-07-09T08:36:01Z</time>
      </trkpt>
      <trkpt lat="39.7750600" lon="-5.6143730">
        <ele>344.4</ele>
        <time>2019-07-09T08:36:03Z</time>
      </trkpt>
      <trkpt lat="39.7750380" lon="-5.6146140">
        <ele>343.6</ele>
        <time>2019-07-09T08:36:05Z</time>
      </trkpt>
      <trkpt lat="39.7750260" lon="-5.6147340">
        <ele>343.0</ele>
        <time>2019-07-09T08:36:06Z</time>
      </trkpt>
      <trkpt lat="39.7749700" lon="-5.6150940">
        <ele>341.8</ele>
        <time>2019-07-09T08:36:09Z</time>
      </trkpt>
      <trkpt lat="39.7749510" lon="-5.6152160">
        <ele>341.4</ele>
        <time>2019-07-09T08:36:10Z</time>
      </trkpt>
      <trkpt lat="39.7749120" lon="-5.6155760">
        <ele>340.6</ele>
        <time>2019-07-09T08:36:13Z</time>
      </trkpt>
      <trkpt lat="39.7748860" lon="-5.6158080">
        <ele>339.6</ele>
        <time>2019-07-09T08:36:15Z</time>
      </trkpt>
      <trkpt lat="39.7748710" lon="-5.6159140">
        <ele>339.2</ele>
        <time>2019-07-09T08:36:16Z</time>
      </trkpt>
      <trkpt lat="39.7748370" lon="-5.6161020">
        <ele>338.2</ele>
        <time>2019-07-09T08:36:18Z</time>
      </trkpt>
      <trkpt lat="39.7748200" lon="-5.6161490">
        <ele>337.4</ele>
        <time>2019-07-09T08:36:19Z</time>
      </trkpt>
      <trkpt lat="39.7748020" lon="-5.6161950">
        <ele>337.0</ele>
        <time>2019-07-09T08:36:20Z</time>
      </trkpt>
      <trkpt lat="39.7747320" lon="-5.6163810">
        <ele>336.4</ele>
        <time>2019-07-09T08:36:22Z</time>
      </trkpt>
      <trkpt lat="39.7746940" lon="-5.6164380">
        <ele>336.0</ele>
        <time>2019-07-09T08:36:23Z</time>
      </trkpt>
      <trkpt lat="39.7745590" lon="-5.6165440">
        <ele>335.0</ele>
        <time>2019-07-09T08:36:27Z</time>
      </trkpt>
      <trkpt lat="39.7744480" lon="-5.6165650">
        <ele>334.8</ele>
        <time>2019-07-09T08:36:28Z</time>
      </trkpt>
      <trkpt lat="39.7743420" lon="-5.6165390">
        <ele>334.4</ele>
        <time>2019-07-09T08:36:30Z</time>
      </trkpt>
      <trkpt lat="39.7742490" lon="-5.6164900">
        <ele>334.2</ele>
        <time>2019-07-09T08:36:32Z</time>
      </trkpt>
      <trkpt lat="39.7742060" lon="-5.6164610">
        <ele>334.4</ele>
        <time>2019-07-09T08:36:33Z</time>
      </trkpt>
      <trkpt lat="39.7741650" lon="-5.6164320">
        <ele>334.4</ele>
        <time>2019-07-09T08:36:34Z</time>
      </trkpt>
      <trkpt lat="39.7740870" lon="-5.6163640">
        <ele>334.6</ele>
        <time>2019-07-09T08:36:36Z</time>
      </trkpt>
      <trkpt lat="39.7740070" lon="-5.6162970">
        <ele>334.8</ele>
        <time>2019-07-09T08:36:38Z</time>
      </trkpt>
      <trkpt lat="39.7737950" lon="-5.6161370">
        <ele>334.8</ele>
        <time>2019-07-09T08:36:43Z</time>
      </trkpt>
      <trkpt lat="39.7736680" lon="-5.6160290">
        <ele>335.0</ele>
        <time>2019-07-09T08:36:46Z</time>
      </trkpt>
      <trkpt lat="39.7736270" lon="-5.6159880">
        <ele>334.8</ele>
        <time>2019-07-09T08:36:47Z</time>
      </trkpt>
      <trkpt lat="39.7735490" lon="-5.6159070">
        <ele>334.6</ele>
        <time>2019-07-09T08:36:49Z</time>
      </trkpt>
      <trkpt lat="39.7735050" lon="-5.6158740">
        <ele>334.6</ele>
        <time>2019-07-09T08:36:50Z</time>
      </trkpt>
      <trkpt lat="39.7733150" lon="-5.6157330">
        <ele>334.6</ele>
        <time>2019-07-09T08:36:54Z</time>
      </trkpt>
      <trkpt lat="39.7731650" lon="-5.6156210">
        <ele>333.6</ele>
        <time>2019-07-09T08:36:57Z</time>
      </trkpt>
      <trkpt lat="39.7729060" lon="-5.6154120">
        <ele>332.4</ele>
        <time>2019-07-09T08:37:02Z</time>
      </trkpt>
      <trkpt lat="39.7728480" lon="-5.6153840">
        <ele>332.2</ele>
        <time>2019-07-09T08:37:03Z</time>
      </trkpt>
      <trkpt lat="39.7727220" lon="-5.6153440">
        <ele>331.4</ele>
        <time>2019-07-09T08:37:05Z</time>
      </trkpt>
      <trkpt lat="39.7725840" lon="-5.6153270">
        <ele>330.8</ele>
        <time>2019-07-09T08:37:07Z</time>
      </trkpt>
      <trkpt lat="39.7723640" lon="-5.6153630">
        <ele>330.2</ele>
        <time>2019-07-09T08:37:10Z</time>
      </trkpt>
      <trkpt lat="39.7722870" lon="-5.6153840">
        <ele>330.0</ele>
        <time>2019-07-09T08:37:11Z</time>
      </trkpt>
      <trkpt lat="39.7721290" lon="-5.6154260">
        <ele>329.2</ele>
        <time>2019-07-09T08:37:13Z</time>
      </trkpt>
      <trkpt lat="39.7719770" lon="-5.6154540">
        <ele>328.0</ele>
        <time>2019-07-09T08:37:15Z</time>
      </trkpt>
      <trkpt lat="39.7718310" lon="-5.6154530">
        <ele>326.8</ele>
        <time>2019-07-09T08:37:17Z</time>
      </trkpt>
      <trkpt lat="39.7716870" lon="-5.6154020">
        <ele>325.8</ele>
        <time>2019-07-09T08:37:19Z</time>
      </trkpt>
      <trkpt lat="39.7715450" lon="-5.6153310">
        <ele>324.8</ele>
        <time>2019-07-09T08:37:21Z</time>
      </trkpt>
      <trkpt lat="39.7714720" lon="-5.6152960">
        <ele>324.4</ele>
        <time>2019-07-09T08:37:22Z</time>
      </trkpt>
      <trkpt lat="39.7711740" lon="-5.6152070">
        <ele>323.8</ele>
        <time>2019-07-09T08:37:26Z</time>
      </trkpt>
      <trkpt lat="39.7710260" lon="-5.6151890">
        <ele>323.0</ele>
        <time>2019-07-09T08:37:28Z</time>
      </trkpt>
      <trkpt lat="39.7709510" lon="-5.6151750">
        <ele>322.6</ele>
        <time>2019-07-09T08:37:29Z</time>
      </trkpt>
      <trkpt lat="39.7707970" lon="-5.6151320">
        <ele>321.8</ele>
        <time>2019-07-09T08:37:31Z</time>
      </trkpt>
      <trkpt lat="39.7707220" lon="-5.6151000">
        <ele>321.2</ele>
        <time>2019-07-09T08:37:32Z</time>
      </trkpt>
      <trkpt lat="39.7706450" lon="-5.6150650">
        <ele>320.6</ele>
        <time>2019-07-09T08:37:33Z</time>
      </trkpt>
      <trkpt lat="39.7704850" lon="-5.6149850">
        <ele>319.2</ele>
        <time>2019-07-09T08:37:35Z</time>
      </trkpt>
      <trkpt lat="39.7702360" lon="-5.6148640">
        <ele>317.8</ele>
        <time>2019-07-09T08:37:38Z</time>
      </trkpt>
      <trkpt lat="39.7699830" lon="-5.6147720">
        <ele>316.4</ele>
        <time>2019-07-09T08:37:41Z</time>
      </trkpt>
      <trkpt lat="39.7698070" lon="-5.6147110">
        <ele>314.8</ele>
        <time>2019-07-09T08:37:43Z</time>
      </trkpt>
      <trkpt lat="39.7697220" lon="-5.6146770">
        <ele>314.0</ele>
        <time>2019-07-09T08:37:44Z</time>
      </trkpt>
      <trkpt lat="39.7696390" lon="-5.6146430">
        <ele>313.6</ele>
        <time>2019-07-09T08:37:45Z</time>
      </trkpt>
      <trkpt lat="39.7694700" lon="-5.6145870">
        <ele>312.4</ele>
        <time>2019-07-09T08:37:47Z</time>
      </trkpt>
      <trkpt lat="39.7693850" lon="-5.6145700">
        <ele>311.8</ele>
        <time>2019-07-09T08:37:48Z</time>
      </trkpt>
      <trkpt lat="39.7692980" lon="-5.6145640">
        <ele>311.2</ele>
        <time>2019-07-09T08:37:49Z</time>
      </trkpt>
      <trkpt lat="39.7691220" lon="-5.6145690">
        <ele>310.2</ele>
        <time>2019-07-09T08:37:51Z</time>
      </trkpt>
      <trkpt lat="39.7689670" lon="-5.6145870">
        <ele>309.0</ele>
        <time>2019-07-09T08:37:53Z</time>
      </trkpt>
      <trkpt lat="39.7689000" lon="-5.6146070">
        <ele>308.4</ele>
        <time>2019-07-09T08:37:54Z</time>
      </trkpt>
      <trkpt lat="39.7687900" lon="-5.6146910">
        <ele>307.6</ele>
        <time>2019-07-09T08:37:56Z</time>
      </trkpt>
      <trkpt lat="39.7687460" lon="-5.6147570">
        <ele>307.4</ele>
        <time>2019-07-09T08:37:57Z</time>
      </trkpt>
      <trkpt lat="39.7686860" lon="-5.6150090">
        <ele>306.4</ele>
        <time>2019-07-09T08:38:00Z</time>
      </trkpt>
      <trkpt lat="39.7687180" lon="-5.6152380">
        <ele>305.4</ele>
        <time>2019-07-09T08:38:03Z</time>
      </trkpt>
      <trkpt lat="39.7688200" lon="-5.6153830">
        <ele>305.8</ele>
        <time>2019-07-09T08:38:06Z</time>
      </trkpt>
      <trkpt lat="39.7688570" lon="-5.6154200">
        <ele>306.2</ele>
        <time>2019-07-09T08:38:07Z</time>
      </trkpt>
      <trkpt lat="39.7688950" lon="-5.6154570">
        <ele>306.4</ele>
        <time>2019-07-09T08:38:08Z</time>
      </trkpt>
      <trkpt lat="39.7689340" lon="-5.6154910">
        <ele>306.4</ele>
        <time>2019-07-09T08:38:09Z</time>
      </trkpt>
      <trkpt lat="39.7690110" lon="-5.6155530">
        <ele>307.2</ele>
        <time>2019-07-09T08:38:11Z</time>
      </trkpt>
      <trkpt lat="39.7690930" lon="-5.6156120">
        <ele>307.4</ele>
        <time>2019-07-09T08:38:13Z</time>
      </trkpt>
      <trkpt lat="39.7691340" lon="-5.6156450">
        <ele>307.4</ele>
        <time>2019-07-09T08:38:14Z</time>
      </trkpt>
      <trkpt lat="39.7692830" lon="-5.6158040">
        <ele>307.2</ele>
        <time>2019-07-09T08:38:18Z</time>
      </trkpt>
      <trkpt lat="39.7693400" lon="-5.6158710">
        <ele>307.0</ele>
        <time>2019-07-09T08:38:20Z</time>
      </trkpt>
      <trkpt lat="39.7694460" lon="-5.6159880">
        <ele>306.8</ele>
        <time>2019-07-09T08:38:23Z</time>
      </trkpt>
      <trkpt lat="39.7694820" lon="-5.6160280">
        <ele>306.2</ele>
        <time>2019-07-09T08:38:24Z</time>
      </trkpt>
      <trkpt lat="39.7695610" lon="-5.6161210">
        <ele>305.4</ele>
        <time>2019-07-09T08:38:27Z</time>
      </trkpt>
      <trkpt lat="39.7695880" lon="-5.6161480">
        <ele>305.2</ele>
        <time>2019-07-09T08:38:28Z</time>
      </trkpt>
      <trkpt lat="39.7696500" lon="-5.6162050">
        <ele>305.0</ele>
        <time>2019-07-09T08:38:30Z</time>
      </trkpt>
      <trkpt lat="39.7697170" lon="-5.6162890">
        <ele>304.6</ele>
        <time>2019-07-09T08:38:32Z</time>
      </trkpt>
      <trkpt lat="39.7698450" lon="-5.6164230">
        <ele>304.0</ele>
        <time>2019-07-09T08:38:35Z</time>
      </trkpt>
      <trkpt lat="39.7699420" lon="-5.6165340">
        <ele>303.4</ele>
        <time>2019-07-09T08:38:37Z</time>
      </trkpt>
      <trkpt lat="39.7700460" lon="-5.6166560">
        <ele>302.8</ele>
        <time>2019-07-09T08:38:39Z</time>
      </trkpt>
      <trkpt lat="39.7701560" lon="-5.6167860">
        <ele>301.6</ele>
        <time>2019-07-09T08:38:41Z</time>
      </trkpt>
      <trkpt lat="39.7702700" lon="-5.6169270">
        <ele>300.8</ele>
        <time>2019-07-09T08:38:43Z</time>
      </trkpt>
      <trkpt lat="39.7703270" lon="-5.6170010">
        <ele>300.4</ele>
        <time>2019-07-09T08:38:44Z</time>
      </trkpt>
      <trkpt lat="39.7704890" lon="-5.6172590">
        <ele>299.0</ele>
        <time>2019-07-09T08:38:47Z</time>
      </trkpt>
      <trkpt lat="39.7705490" lon="-5.6173480">
        <ele>298.4</ele>
        <time>2019-07-09T08:38:48Z</time>
      </trkpt>
      <trkpt lat="39.7706760" lon="-5.6175120">
        <ele>297.6</ele>
        <time>2019-07-09T08:38:50Z</time>
      </trkpt>
      <trkpt lat="39.7708210" lon="-5.6176580">
        <ele>296.2</ele>
        <time>2019-07-09T08:38:52Z</time>
      </trkpt>
      <trkpt lat="39.7708970" lon="-5.6177290">
        <ele>295.8</ele>
        <time>2019-07-09T08:38:53Z</time>
      </trkpt>
      <trkpt lat="39.7710520" lon="-5.6178750">
        <ele>294.8</ele>
        <time>2019-07-09T08:38:55Z</time>
      </trkpt>
      <trkpt lat="39.7712900" lon="-5.6180920">
        <ele>293.4</ele>
        <time>2019-07-09T08:38:58Z</time>
      </trkpt>
      <trkpt lat="39.7714470" lon="-5.6182480">
        <ele>292.2</ele>
        <time>2019-07-09T08:39:00Z</time>
      </trkpt>
      <trkpt lat="39.7715220" lon="-5.6183310">
        <ele>291.8</ele>
        <time>2019-07-09T08:39:01Z</time>
      </trkpt>
      <trkpt lat="39.7716650" lon="-5.6185000">
        <ele>290.6</ele>
        <time>2019-07-09T08:39:03Z</time>
      </trkpt>
      <trkpt lat="39.7718800" lon="-5.6187600">
        <ele>289.2</ele>
        <time>2019-07-09T08:39:06Z</time>
      </trkpt>
      <trkpt lat="39.7719560" lon="-5.6188320">
        <ele>288.8</ele>
        <time>2019-07-09T08:39:07Z</time>
      </trkpt>
      <trkpt lat="39.7721120" lon="-5.6189640">
        <ele>287.8</ele>
        <time>2019-07-09T08:39:09Z</time>
      </trkpt>
      <trkpt lat="39.7722710" lon="-5.6190880">
        <ele>286.6</ele>
        <time>2019-07-09T08:39:11Z</time>
      </trkpt>
      <trkpt lat="39.7724210" lon="-5.6192100">
        <ele>286.0</ele>
        <time>2019-07-09T08:39:13Z</time>
      </trkpt>
      <trkpt lat="39.7725650" lon="-5.6193120">
        <ele>285.2</ele>
        <time>2019-07-09T08:39:15Z</time>
      </trkpt>
      <trkpt lat="39.7727970" lon="-5.6194500">
        <ele>284.2</ele>
        <time>2019-07-09T08:39:18Z</time>
      </trkpt>
      <trkpt lat="39.7728740" lon="-5.6194940">
        <ele>283.6</ele>
        <time>2019-07-09T08:39:19Z</time>
      </trkpt>
      <trkpt lat="39.7729540" lon="-5.6195290">
        <ele>283.0</ele>
        <time>2019-07-09T08:39:20Z</time>
      </trkpt>
      <trkpt lat="39.7731850" lon="-5.6196300">
        <ele>281.4</ele>
        <time>2019-07-09T08:39:23Z</time>
      </trkpt>
      <trkpt lat="39.7733330" lon="-5.6197040">
        <ele>280.4</ele>
        <time>2019-07-09T08:39:25Z</time>
      </trkpt>
      <trkpt lat="39.7734770" lon="-5.6198030">
        <ele>278.6</ele>
        <time>2019-07-09T08:39:27Z</time>
      </trkpt>
      <trkpt lat="39.7735470" lon="-5.6198690">
        <ele>278.2</ele>
        <time>2019-07-09T08:39:28Z</time>
      </trkpt>
      <trkpt lat="39.7736180" lon="-5.6199350">
        <ele>277.6</ele>
        <time>2019-07-09T08:39:29Z</time>
      </trkpt>
      <trkpt lat="39.7738210" lon="-5.6201000">
        <ele>275.8</ele>
        <time>2019-07-09T08:39:32Z</time>
      </trkpt>
      <trkpt lat="39.7738890" lon="-5.6201360">
        <ele>275.4</ele>
        <time>2019-07-09T08:39:33Z</time>
      </trkpt>
      <trkpt lat="39.7739590" lon="-5.6201600">
        <ele>274.6</ele>
        <time>2019-07-09T08:39:34Z</time>
      </trkpt>
      <trkpt lat="39.7741870" lon="-5.6202120">
        <ele>273.0</ele>
        <time>2019-07-09T08:39:37Z</time>
      </trkpt>
      <trkpt lat="39.7743260" lon="-5.6202630">
        <ele>271.6</ele>
        <time>2019-07-09T08:39:39Z</time>
      </trkpt>
      <trkpt lat="39.7744500" lon="-5.6203500">
        <ele>270.6</ele>
        <time>2019-07-09T08:39:41Z</time>
      </trkpt>
      <trkpt lat="39.7745720" lon="-5.6204740">
        <ele>269.6</ele>
        <time>2019-07-09T08:39:43Z</time>
      </trkpt>
      <trkpt lat="39.7746330" lon="-5.6205390">
        <ele>269.2</ele>
        <time>2019-07-09T08:39:44Z</time>
      </trkpt>
      <trkpt lat="39.7746890" lon="-5.6206000">
        <ele>269.0</ele>
        <time>2019-07-09T08:39:45Z</time>
      </trkpt>
      <trkpt lat="39.7748010" lon="-5.6207050">
        <ele>268.0</ele>
        <time>2019-07-09T08:39:47Z</time>
      </trkpt>
      <trkpt lat="39.7749310" lon="-5.6207840">
        <ele>266.8</ele>
        <time>2019-07-09T08:39:49Z</time>
      </trkpt>
      <trkpt lat="39.7749930" lon="-5.6208120">
        <ele>266.2</ele>
        <time>2019-07-09T08:39:50Z</time>
      </trkpt>
      <trkpt lat="39.7750530" lon="-5.6208390">
        <ele>265.4</ele>
        <time>2019-07-09T08:39:51Z</time>
      </trkpt>
      <trkpt lat="39.7751620" lon="-5.6208830">
        <ele>264.4</ele>
        <time>2019-07-09T08:39:53Z</time>
      </trkpt>
      <trkpt lat="39.7752110" lon="-5.6209070">
        <ele>263.8</ele>
        <time>2019-07-09T08:39:54Z</time>
      </trkpt>
      <trkpt lat="39.7752620" lon="-5.6209410">
        <ele>263.2</ele>
        <time>2019-07-09T08:39:55Z</time>
      </trkpt>
      <trkpt lat="39.7754180" lon="-5.6211020">
        <ele>262.0</ele>
        <time>2019-07-09T08:39:58Z</time>
      </trkpt>
      <trkpt lat="39.7754710" lon="-5.6211710">
        <ele>261.4</ele>
        <time>2019-07-09T08:39:59Z</time>
      </trkpt>
      <trkpt lat="39.7755250" lon="-5.6212430">
        <ele>260.6</ele>
        <time>2019-07-09T08:40:00Z</time>
      </trkpt>
      <trkpt lat="39.7756260" lon="-5.6213870">
        <ele>259.4</ele>
        <time>2019-07-09T08:40:02Z</time>
      </trkpt>
      <trkpt lat="39.7757190" lon="-5.6215260">
        <ele>258.2</ele>
        <time>2019-07-09T08:40:04Z</time>
      </trkpt>
      <trkpt lat="39.7758110" lon="-5.6216670">
        <ele>257.4</ele>
        <time>2019-07-09T08:40:06Z</time>
      </trkpt>
      <trkpt lat="39.7758520" lon="-5.6217300">
        <ele>256.8</ele>
        <time>2019-07-09T08:40:07Z</time>
      </trkpt>
      <trkpt lat="39.7759150" lon="-5.6218500">
        <ele>255.4</ele>
        <time>2019-07-09T08:40:09Z</time>
      </trkpt>
      <trkpt lat="39.7759370" lon="-5.6219120">
        <ele>254.8</ele>
        <time>2019-07-09T08:40:10Z</time>
      </trkpt>
      <trkpt lat="39.7759520" lon="-5.6219820">
        <ele>254.2</ele>
        <time>2019-07-09T08:40:11Z</time>
      </trkpt>
      <trkpt lat="39.7759550" lon="-5.6221380">
        <ele>253.4</ele>
        <time>2019-07-09T08:40:13Z</time>
      </trkpt>
      <trkpt lat="39.7759400" lon="-5.6222230">
        <ele>253.0</ele>
        <time>2019-07-09T08:40:14Z</time>
      </trkpt>
      <trkpt lat="39.7758860" lon="-5.6223980">
        <ele>251.8</ele>
        <time>2019-07-09T08:40:16Z</time>
      </trkpt>
      <trkpt lat="39.7758520" lon="-5.6224890">
        <ele>251.6</ele>
        <time>2019-07-09T08:40:17Z</time>
      </trkpt>
      <trkpt lat="39.7757410" lon="-5.6227860">
        <ele>250.4</ele>
        <time>2019-07-09T08:40:20Z</time>
      </trkpt>
      <trkpt lat="39.7756660" lon="-5.6230050">
        <ele>248.8</ele>
        <time>2019-07-09T08:40:22Z</time>
      </trkpt>
      <trkpt lat="39.7756220" lon="-5.6231150">
        <ele>248.4</ele>
        <time>2019-07-09T08:40:23Z</time>
      </trkpt>
      <trkpt lat="39.7755780" lon="-5.6232160">
        <ele>247.4</ele>
        <time>2019-07-09T08:40:24Z</time>
      </trkpt>
      <trkpt lat="39.7755050" lon="-5.6234100">
        <ele>246.2</ele>
        <time>2019-07-09T08:40:26Z</time>
      </trkpt>
      <trkpt lat="39.7754810" lon="-5.6235060">
        <ele>245.8</ele>
        <time>2019-07-09T08:40:27Z</time>
      </trkpt>
      <trkpt lat="39.7754730" lon="-5.6236940">
        <ele>245.0</ele>
        <time>2019-07-09T08:40:29Z</time>
      </trkpt>
      <trkpt lat="39.7754800" lon="-5.6237800">
        <ele>244.6</ele>
        <time>2019-07-09T08:40:30Z</time>
      </trkpt>
      <trkpt lat="39.7754910" lon="-5.6238650">
        <ele>244.0</ele>
        <time>2019-07-09T08:40:31Z</time>
      </trkpt>
      <trkpt lat="39.7755210" lon="-5.6240340">
        <ele>242.6</ele>
        <time>2019-07-09T08:40:33Z</time>
      </trkpt>
      <trkpt lat="39.7755620" lon="-5.6241920">
        <ele>241.8</ele>
        <time>2019-07-09T08:40:35Z</time>
      </trkpt>
      <trkpt lat="39.7755760" lon="-5.6242730">
        <ele>241.4</ele>
        <time>2019-07-09T08:40:36Z</time>
      </trkpt>
      <trkpt lat="39.7755890" lon="-5.6246980">
        <ele>240.2</ele>
        <time>2019-07-09T08:40:41Z</time>
      </trkpt>
      <trkpt lat="39.7755710" lon="-5.6248680">
        <ele>240.0</ele>
        <time>2019-07-09T08:40:43Z</time>
      </trkpt>
      <trkpt lat="39.7755480" lon="-5.6250340">
        <ele>239.8</ele>
        <time>2019-07-09T08:40:45Z</time>
      </trkpt>
      <trkpt lat="39.7755150" lon="-5.6251950">
        <ele>239.8</ele>
        <time>2019-07-09T08:40:47Z</time>
      </trkpt>
      <trkpt lat="39.7753870" lon="-5.6256200">
        <ele>239.8</ele>
        <time>2019-07-09T08:40:53Z</time>
      </trkpt>
      <trkpt lat="39.7753510" lon="-5.6256760">
        <ele>240.0</ele>
        <time>2019-07-09T08:40:54Z</time>
      </trkpt>
      <trkpt lat="39.7750790" lon="-5.6259610">
        <ele>239.6</ele>
        <time>2019-07-09T08:41:00Z</time>
      </trkpt>
      <trkpt lat="39.7748920" lon="-5.6261400">
        <ele>239.4</ele>
        <time>2019-07-09T08:41:04Z</time>
      </trkpt>
      <trkpt lat="39.7747460" lon="-5.6262510">
        <ele>239.4</ele>
        <time>2019-07-09T08:41:07Z</time>
      </trkpt>
      <trkpt lat="39.7744600" lon="-5.6264660">
        <ele>239.2</ele>
        <time>2019-07-09T08:41:13Z</time>
      </trkpt>
      <trkpt lat="39.7744120" lon="-5.6265020">
        <ele>239.2</ele>
        <time>2019-07-09T08:41:14Z</time>
      </trkpt>
      <trkpt lat="39.7742250" lon="-5.6266610">
        <ele>238.8</ele>
        <time>2019-07-09T08:41:18Z</time>
      </trkpt>
      <trkpt lat="39.7740990" lon="-5.6268030">
        <ele>238.8</ele>
        <time>2019-07-09T08:41:21Z</time>
      </trkpt>
      <trkpt lat="39.7738320" lon="-5.6271610">
        <ele>238.8</ele>
        <time>2019-07-09T08:41:28Z</time>
      </trkpt>
      <trkpt lat="39.7735270" lon="-5.6275330">
        <ele>239.2</ele>
        <time>2019-07-09T08:41:36Z</time>
      </trkpt>
      <trkpt lat="39.7730940" lon="-5.6280030">
        <ele>238.8</ele>
        <time>2019-07-09T08:41:47Z</time>
      </trkpt>
      <trkpt lat="39.7729800" lon="-5.6281260">
        <ele>239.0</ele>
        <time>2019-07-09T08:41:50Z</time>
      </trkpt>
      <trkpt lat="39.7727910" lon="-5.6283330">
        <ele>239.2</ele>
        <time>2019-07-09T08:41:55Z</time>
      </trkpt>
      <trkpt lat="39.7726810" lon="-5.6284490">
        <ele>239.4</ele>
        <time>2019-07-09T08:41:58Z</time>
      </trkpt>
      <trkpt lat="39.7724700" lon="-5.6286640">
        <ele>239.8</ele>
        <time>2019-07-09T08:42:04Z</time>
      </trkpt>
      <trkpt lat="39.7723060" lon="-5.6288420">
        <ele>240.6</ele>
        <time>2019-07-09T08:42:09Z</time>
      </trkpt>
      <trkpt lat="39.7722180" lon="-5.6289470">
        <ele>240.8</ele>
        <time>2019-07-09T08:42:12Z</time>
      </trkpt>
      <trkpt lat="39.7720710" lon="-5.6291040">
        <ele>241.6</ele>
        <time>2019-07-09T08:42:17Z</time>
      </trkpt>
      <trkpt lat="39.7720130" lon="-5.6291630">
        <ele>241.8</ele>
        <time>2019-07-09T08:42:19Z</time>
      </trkpt>
      <trkpt lat="39.7718720" lon="-5.6293080">
        <ele>242.4</ele>
        <time>2019-07-09T08:42:24Z</time>
      </trkpt>
      <trkpt lat="39.7718150" lon="-5.6293610">
        <ele>242.6</ele>
        <time>2019-07-09T08:42:26Z</time>
      </trkpt>
      <trkpt lat="39.7716490" lon="-5.6295340">
        <ele>243.6</ele>
        <time>2019-07-09T08:42:32Z</time>
      </trkpt>
      <trkpt lat="39.7716200" lon="-5.6295610">
        <ele>243.8</ele>
        <time>2019-07-09T08:42:33Z</time>
      </trkpt>
      <trkpt lat="39.7714220" lon="-5.6297400">
        <ele>244.6</ele>
        <time>2019-07-09T08:42:40Z</time>
      </trkpt>
      <trkpt lat="39.7713640" lon="-5.6297860">
        <ele>245.2</ele>
        <time>2019-07-09T08:42:42Z</time>
      </trkpt>
      <trkpt lat="39.7712790" lon="-5.6298570">
        <ele>245.6</ele>
        <time>2019-07-09T08:42:45Z</time>
      </trkpt>
      <trkpt lat="39.7711550" lon="-5.6299230">
        <ele>246.2</ele>
        <time>2019-07-09T08:42:49Z</time>
      </trkpt>
      <trkpt lat="39.7710580" lon="-5.6299610">
        <ele>246.6</ele>
        <time>2019-07-09T08:42:52Z</time>
      </trkpt>
      <trkpt lat="39.7709320" lon="-5.6300010">
        <ele>247.4</ele>
        <time>2019-07-09T08:42:56Z</time>
      </trkpt>
      <trkpt lat="39.7708660" lon="-5.6300070">
        <ele>247.8</ele>
        <time>2019-07-09T08:42:58Z</time>
      </trkpt>
      <trkpt lat="39.7706910" lon="-5.6300090">
        <ele>248.6</ele>
        <time>2019-07-09T08:43:03Z</time>
      </trkpt>
      <trkpt lat="39.7706560" lon="-5.6300020">
        <ele>248.8</ele>
        <time>2019-07-09T08:43:04Z</time>
      </trkpt>
      <trkpt lat="39.7704500" lon="-5.6299690">
        <ele>249.6</ele>
        <time>2019-07-09T08:43:10Z</time>
      </trkpt>
      <trkpt lat="39.7704180" lon="-5.6299560">
        <ele>249.8</ele>
        <time>2019-07-09T08:43:11Z</time>
      </trkpt>
      <trkpt lat="39.7702340" lon="-5.6298760">
        <ele>250.8</ele>
        <time>2019-07-09T08:43:17Z</time>
      </trkpt>
      <trkpt lat="39.7700510" lon="-5.6297950">
        <ele>252.0</ele>
        <time>2019-07-09T08:43:23Z</time>
      </trkpt>
      <trkpt lat="39.7698670" lon="-5.6297450">
        <ele>253.4</ele>
        <time>2019-07-09T08:43:29Z</time>
      </trkpt>
      <trkpt lat="39.7696950" lon="-5.6296600">
        <ele>254.4</ele>
        <time>2019-07-09T08:43:35Z</time>
      </trkpt>
      <trkpt lat="39.7696670" lon="-5.6296430">
        <ele>254.6</ele>
        <time>2019-07-09T08:43:36Z</time>
      </trkpt>
      <trkpt lat="39.7694760" lon="-5.6295000">
        <ele>255.4</ele>
        <time>2019-07-09T08:43:43Z</time>
      </trkpt>
      <trkpt lat="39.7694260" lon="-5.6294560">
        <ele>255.8</ele>
        <time>2019-07-09T08:43:45Z</time>
      </trkpt>
      <trkpt lat="39.7693050" lon="-5.6293430">
        <ele>256.6</ele>
        <time>2019-07-09T08:43:50Z</time>
      </trkpt>
      <trkpt lat="39.7692580" lon="-5.6292940">
        <ele>257.0</ele>
        <time>2019-07-09T08:43:52Z</time>
      </trkpt>
      <trkpt lat="39.7691690" lon="-5.6292000">
        <ele>257.6</ele>
        <time>2019-07-09T08:43:56Z</time>
      </trkpt>
      <trkpt lat="39.7691070" lon="-5.6291220">
        <ele>258.0</ele>
        <time>2019-07-09T08:43:59Z</time>
      </trkpt>
      <trkpt lat="39.7690460" lon="-5.6290350">
        <ele>258.6</ele>
        <time>2019-07-09T08:44:02Z</time>
      </trkpt>
      <trkpt lat="39.7689800" lon="-5.6289460">
        <ele>259.0</ele>
        <time>2019-07-09T08:44:05Z</time>
      </trkpt>
      <trkpt lat="39.7689000" lon="-5.6288230">
        <ele>259.8</ele>
        <time>2019-07-09T08:44:09Z</time>
      </trkpt>
      <trkpt lat="39.7688310" lon="-5.6287330">
        <ele>260.2</ele>
        <time>2019-07-09T08:44:12Z</time>
      </trkpt>
      <trkpt lat="39.7687140" lon="-5.6285830">
        <ele>260.8</ele>
        <time>2019-07-09T08:44:17Z</time>
      </trkpt>
      <trkpt lat="39.7686420" lon="-5.6284840">
        <ele>261.4</ele>
        <time>2019-07-09T08:44:20Z</time>
      </trkpt>
      <trkpt lat="39.7685700" lon="-5.6283870">
        <ele>261.8</ele>
        <time>2019-07-09T08:44:23Z</time>
      </trkpt>
      <trkpt lat="39.7684550" lon="-5.6282270">
        <ele>262.8</ele>
        <time>2019-07-09T08:44:28Z</time>
      </trkpt>
      <trkpt lat="39.7683890" lon="-5.6281320">
        <ele>263.4</ele>
        <time>2019-07-09T08:44:31Z</time>
      </trkpt>
      <trkpt lat="39.7683450" lon="-5.6280690">
        <ele>264.0</ele>
        <time>2019-07-09T08:44:33Z</time>
      </trkpt>
      <trkpt lat="39.7682370" lon="-5.6279140">
        <ele>265.0</ele>
        <time>2019-07-09T08:44:38Z</time>
      </trkpt>
      <trkpt lat="39.7681920" lon="-5.6278590">
        <ele>265.6</ele>
        <time>2019-07-09T08:44:40Z</time>
      </trkpt>
      <trkpt lat="39.7681500" lon="-5.6278050">
        <ele>266.0</ele>
        <time>2019-07-09T08:44:42Z</time>
      </trkpt>
      <trkpt lat="39.7680340" lon="-5.6276390">
        <ele>267.2</ele>
        <time>2019-07-09T08:44:48Z</time>
      </trkpt>
      <trkpt lat="39.7679340" lon="-5.6275010">
        <ele>268.4</ele>
        <time>2019-07-09T08:44:53Z</time>
      </trkpt>
      <trkpt lat="39.7678780" lon="-5.6274120">
        <ele>269.2</ele>
        <time>2019-07-09T08:44:56Z</time>
      </trkpt>
      <trkpt lat="39.7678610" lon="-5.6273830">
        <ele>269.4</ele>
        <time>2019-07-09T08:44:57Z</time>
      </trkpt>
      <trkpt lat="39.7677730" lon="-5.6272430">
        <ele>270.6</ele>
        <time>2019-07-09T08:45:02Z</time>
      </trkpt>
      <trkpt lat="39.7677530" lon="-5.6272170">
        <ele>271.0</ele>
        <time>2019-07-09T08:45:03Z</time>
      </trkpt>
      <trkpt lat="39.7676950" lon="-5.6271420">
        <ele>271.8</ele>
        <time>2019-07-09T08:45:06Z</time>
      </trkpt>
      <trkpt lat="39.7675950" lon="-5.6269720">
        <ele>273.0</ele>
        <time>2019-07-09T08:45:12Z</time>
      </trkpt>
      <trkpt lat="39.7675000" lon="-5.6267890">
        <ele>274.2</ele>
        <time>2019-07-09T08:45:18Z</time>
      </trkpt>
      <trkpt lat="39.7674490" lon="-5.6267060">
        <ele>275.0</ele>
        <time>2019-07-09T08:45:21Z</time>
      </trkpt>
      <trkpt lat="39.7674150" lon="-5.6266450">
        <ele>275.0</ele>
        <time>2019-07-09T08:45:23Z</time>
      </trkpt>
      <trkpt lat="39.7673400" lon="-5.6264870">
        <ele>276.4</ele>
        <time>2019-07-09T08:45:28Z</time>
      </trkpt>
      <trkpt lat="39.7672670" lon="-5.6263290">
        <ele>277.4</ele>
        <time>2019-07-09T08:45:33Z</time>
      </trkpt>
      <trkpt lat="39.7672370" lon="-5.6262710">
        <ele>277.8</ele>
        <time>2019-07-09T08:45:35Z</time>
      </trkpt>
      <trkpt lat="39.7671740" lon="-5.6261500">
        <ele>278.4</ele>
        <time>2019-07-09T08:45:39Z</time>
      </trkpt>
      <trkpt lat="39.7671340" lon="-5.6260430">
        <ele>279.2</ele>
        <time>2019-07-09T08:45:42Z</time>
      </trkpt>
      <trkpt lat="39.7671000" lon="-5.6259800">
        <ele>279.6</ele>
        <time>2019-07-09T08:45:44Z</time>
      </trkpt>
      <trkpt lat="39.7670230" lon="-5.6258190">
        <ele>280.6</ele>
        <time>2019-07-09T08:45:49Z</time>
      </trkpt>
      <trkpt lat="39.7670090" lon="-5.6257830">
        <ele>280.8</ele>
        <time>2019-07-09T08:45:50Z</time>
      </trkpt>
      <trkpt lat="39.7669300" lon="-5.6256040">
        <ele>282.0</ele>
        <time>2019-07-09T08:45:55Z</time>
      </trkpt>
      <trkpt lat="39.7669150" lon="-5.6255660">
        <ele>282.2</ele>
        <time>2019-07-09T08:45:56Z</time>
      </trkpt>
      <trkpt lat="39.7668150" lon="-5.6253590">
        <ele>283.2</ele>
        <time>2019-07-09T08:46:02Z</time>
      </trkpt>
      <trkpt lat="39.7667680" lon="-5.6252550">
        <ele>283.8</ele>
        <time>2019-07-09T08:46:05Z</time>
      </trkpt>
      <trkpt lat="39.7667220" lon="-5.6251460">
        <ele>284.4</ele>
        <time>2019-07-09T08:46:08Z</time>
      </trkpt>
      <trkpt lat="39.7666210" lon="-5.6249660">
        <ele>285.6</ele>
        <time>2019-07-09T08:46:13Z</time>
      </trkpt>
      <trkpt lat="39.7665280" lon="-5.6247850">
        <ele>286.6</ele>
        <time>2019-07-09T08:46:18Z</time>
      </trkpt>
      <trkpt lat="39.7664900" lon="-5.6247230">
        <ele>287.2</ele>
        <time>2019-07-09T08:46:20Z</time>
      </trkpt>
      <trkpt lat="39.7664020" lon="-5.6246010">
        <ele>288.0</ele>
        <time>2019-07-09T08:46:24Z</time>
      </trkpt>
      <trkpt lat="39.7663590" lon="-5.6245440">
        <ele>288.2</ele>
        <time>2019-07-09T08:46:26Z</time>
      </trkpt>
      <trkpt lat="39.7662490" lon="-5.6244050">
        <ele>289.0</ele>
        <time>2019-07-09T08:46:31Z</time>
      </trkpt>
      <trkpt lat="39.7662280" lon="-5.6243750">
        <ele>289.4</ele>
        <time>2019-07-09T08:46:32Z</time>
      </trkpt>
      <trkpt lat="39.7661480" lon="-5.6242650">
        <ele>290.2</ele>
        <time>2019-07-09T08:46:36Z</time>
      </trkpt>
      <trkpt lat="39.7660990" lon="-5.6242160">
        <ele>290.6</ele>
        <time>2019-07-09T08:46:38Z</time>
      </trkpt>
      <trkpt lat="39.7660210" lon="-5.6241410">
        <ele>291.4</ele>
        <time>2019-07-09T08:46:41Z</time>
      </trkpt>
      <trkpt lat="39.7659170" lon="-5.6240460">
        <ele>292.2</ele>
        <time>2019-07-09T08:46:45Z</time>
      </trkpt>
      <trkpt lat="39.7658630" lon="-5.6240030">
        <ele>292.4</ele>
        <time>2019-07-09T08:46:47Z</time>
      </trkpt>
      <trkpt lat="39.7656910" lon="-5.6238700">
        <ele>293.4</ele>
        <time>2019-07-09T08:46:53Z</time>
      </trkpt>
      <trkpt lat="39.7656620" lon="-5.6238470">
        <ele>293.6</ele>
        <time>2019-07-09T08:46:54Z</time>
      </trkpt>
      <trkpt lat="39.7655110" lon="-5.6237410">
        <ele>294.4</ele>
        <time>2019-07-09T08:46:59Z</time>
      </trkpt>
      <trkpt lat="39.7654520" lon="-5.6236920">
        <ele>294.8</ele>
        <time>2019-07-09T08:47:01Z</time>
      </trkpt>
      <trkpt lat="39.7653290" lon="-5.6236160">
        <ele>295.8</ele>
        <time>2019-07-09T08:47:05Z</time>
      </trkpt>
      <trkpt lat="39.7652410" lon="-5.6235650">
        <ele>296.6</ele>
        <time>2019-07-09T08:47:08Z</time>
      </trkpt>
      <trkpt lat="39.7652130" lon="-5.6235540">
        <ele>296.8</ele>
        <time>2019-07-09T08:47:09Z</time>
      </trkpt>
      <trkpt lat="39.7650690" lon="-5.6234970">
        <ele>297.8</ele>
        <time>2019-07-09T08:47:14Z</time>
      </trkpt>
      <trkpt lat="39.7650100" lon="-5.6234780">
        <ele>298.4</ele>
        <time>2019-07-09T08:47:16Z</time>
      </trkpt>
      <trkpt lat="39.7649230" lon="-5.6234340">
        <ele>299.0</ele>
        <time>2019-07-09T08:47:19Z</time>
      </trkpt>
      <trkpt lat="39.7648140" lon="-5.6233880">
        <ele>299.8</ele>
        <time>2019-07-09T08:47:23Z</time>
      </trkpt>
      <trkpt lat="39.7646810" lon="-5.6233170">
        <ele>300.8</ele>
        <time>2019-07-09T08:47:28Z</time>
      </trkpt>
      <trkpt lat="39.7646300" lon="-5.6232880">
        <ele>301.6</ele>
        <time>2019-07-09T08:47:30Z</time>
      </trkpt>
      <trkpt lat="39.7646030" lon="-5.6232810">
        <ele>301.8</ele>
        <time>2019-07-09T08:47:31Z</time>
      </trkpt>
      <trkpt lat="39.7645250" lon="-5.6232480">
        <ele>302.6</ele>
        <time>2019-07-09T08:47:34Z</time>
      </trkpt>
      <trkpt lat="39.7644780" lon="-5.6232200">
        <ele>303.0</ele>
        <time>2019-07-09T08:47:36Z</time>
      </trkpt>
      <trkpt lat="39.7643740" lon="-5.6231950">
        <ele>304.0</ele>
        <time>2019-07-09T08:47:40Z</time>
      </trkpt>
      <trkpt lat="39.7642980" lon="-5.6231660">
        <ele>304.4</ele>
        <time>2019-07-09T08:47:43Z</time>
      </trkpt>
      <trkpt lat="39.7642500" lon="-5.6231500">
        <ele>305.2</ele>
        <time>2019-07-09T08:47:45Z</time>
      </trkpt>
      <trkpt lat="39.7641330" lon="-5.6230830">
        <ele>306.4</ele>
        <time>2019-07-09T08:47:50Z</time>
      </trkpt>
      <trkpt lat="39.7640630" lon="-5.6230600">
        <ele>307.4</ele>
        <time>2019-07-09T08:47:53Z</time>
      </trkpt>
      <trkpt lat="39.7639710" lon="-5.6230220">
        <ele>308.4</ele>
        <time>2019-07-09T08:47:57Z</time>
      </trkpt>
      <trkpt lat="39.7639500" lon="-5.6230150">
        <ele>308.8</ele>
        <time>2019-07-09T08:47:58Z</time>
      </trkpt>
      <trkpt lat="39.7638420" lon="-5.6229500">
        <ele>309.8</ele>
        <time>2019-07-09T08:48:03Z</time>
      </trkpt>
      <trkpt lat="39.7638180" lon="-5.6229320">
        <ele>310.0</ele>
        <time>2019-07-09T08:48:04Z</time>
      </trkpt>
      <trkpt lat="39.7636980" lon="-5.6228610">
        <ele>311.0</ele>
        <time>2019-07-09T08:48:09Z</time>
      </trkpt>
      <trkpt lat="39.7636750" lon="-5.6228430">
        <ele>311.2</ele>
        <time>2019-07-09T08:48:10Z</time>
      </trkpt>
      <trkpt lat="39.7636000" lon="-5.6227970">
        <ele>312.2</ele>
        <time>2019-07-09T08:48:13Z</time>
      </trkpt>
      <trkpt lat="39.7635030" lon="-5.6227230">
        <ele>313.4</ele>
        <time>2019-07-09T08:48:17Z</time>
      </trkpt>
      <trkpt lat="39.7634090" lon="-5.6226590">
        <ele>314.4</ele>
        <time>2019-07-09T08:48:21Z</time>
      </trkpt>
      <trkpt lat="39.7633420" lon="-5.6226060">
        <ele>315.0</ele>
        <time>2019-07-09T08:48:24Z</time>
      </trkpt>
      <trkpt lat="39.7633210" lon="-5.6225850">
        <ele>315.4</ele>
        <time>2019-07-09T08:48:25Z</time>
      </trkpt>
      <trkpt lat="39.7632330" lon="-5.6225070">
        <ele>316.6</ele>
        <time>2019-07-09T08:48:29Z</time>
      </trkpt>
      <trkpt lat="39.7631660" lon="-5.6224490">
        <ele>317.2</ele>
        <time>2019-07-09T08:48:32Z</time>
      </trkpt>
      <trkpt lat="39.7631270" lon="-5.6224030">
        <ele>317.8</ele>
        <time>2019-07-09T08:48:34Z</time>
      </trkpt>
      <trkpt lat="39.7630500" lon="-5.6223180">
        <ele>318.6</ele>
        <time>2019-07-09T08:48:38Z</time>
      </trkpt>
      <trkpt lat="39.7630090" lon="-5.6222810">
        <ele>319.2</ele>
        <time>2019-07-09T08:48:40Z</time>
      </trkpt>
      <trkpt lat="39.7629720" lon="-5.6222410">
        <ele>319.8</ele>
        <time>2019-07-09T08:48:42Z</time>
      </trkpt>
      <trkpt lat="39.7628750" lon="-5.6221430">
        <ele>320.6</ele>
        <time>2019-07-09T08:48:47Z</time>
      </trkpt>
      <trkpt lat="39.7628590" lon="-5.6221220">
        <ele>320.8</ele>
        <time>2019-07-09T08:48:48Z</time>
      </trkpt>
      <trkpt lat="39.7627800" lon="-5.6220470">
        <ele>322.0</ele>
        <time>2019-07-09T08:48:52Z</time>
      </trkpt>
      <trkpt lat="39.7627460" lon="-5.6220090">
        <ele>322.4</ele>
        <time>2019-07-09T08:48:54Z</time>
      </trkpt>
      <trkpt lat="39.7626930" lon="-5.6219550">
        <ele>323.2</ele>
        <time>2019-07-09T08:48:57Z</time>
      </trkpt>
      <trkpt lat="39.7626000" lon="-5.6218600">
        <ele>324.2</ele>
        <time>2019-07-09T08:49:02Z</time>
      </trkpt>
      <trkpt lat="39.7625840" lon="-5.6218390">
        <ele>324.4</ele>
        <time>2019-07-09T08:49:03Z</time>
      </trkpt>
      <trkpt lat="39.7625330" lon="-5.6217830">
        <ele>325.2</ele>
        <time>2019-07-09T08:49:06Z</time>
      </trkpt>
      <trkpt lat="39.7624580" lon="-5.6217110">
        <ele>326.4</ele>
        <time>2019-07-09T08:49:10Z</time>
      </trkpt>
      <trkpt lat="39.7624390" lon="-5.6216940">
        <ele>326.4</ele>
        <time>2019-07-09T08:49:11Z</time>
      </trkpt>
      <trkpt lat="39.7623740" lon="-5.6216120">
        <ele>327.4</ele>
        <time>2019-07-09T08:49:15Z</time>
      </trkpt>
      <trkpt lat="39.7623380" lon="-5.6215740">
        <ele>327.8</ele>
        <time>2019-07-09T08:49:17Z</time>
      </trkpt>
      <trkpt lat="39.7623000" lon="-5.6215400">
        <ele>328.4</ele>
        <time>2019-07-09T08:49:19Z</time>
      </trkpt>
      <trkpt lat="39.7622350" lon="-5.6214550">
        <ele>329.4</ele>
        <time>2019-07-09T08:49:23Z</time>
      </trkpt>
      <trkpt lat="39.7622050" lon="-5.6214120">
        <ele>329.8</ele>
        <time>2019-07-09T08:49:25Z</time>
      </trkpt>
      <trkpt lat="39.7621480" lon="-5.6213570">
        <ele>330.4</ele>
        <time>2019-07-09T08:49:28Z</time>
      </trkpt>
      <trkpt lat="39.7620690" lon="-5.6212900">
        <ele>331.4</ele>
        <time>2019-07-09T08:49:32Z</time>
      </trkpt>
      <trkpt lat="39.7620520" lon="-5.6212710">
        <ele>331.6</ele>
        <time>2019-07-09T08:49:33Z</time>
      </trkpt>
      <trkpt lat="39.7619820" lon="-5.6211950">
        <ele>332.8</ele>
        <time>2019-07-09T08:49:37Z</time>
      </trkpt>
      <trkpt lat="39.7619160" lon="-5.6211110">
        <ele>333.8</ele>
        <time>2019-07-09T08:49:41Z</time>
      </trkpt>
      <trkpt lat="39.7618960" lon="-5.6210950">
        <ele>334.0</ele>
        <time>2019-07-09T08:49:42Z</time>
      </trkpt>
      <trkpt lat="39.7618150" lon="-5.6210220">
        <ele>335.0</ele>
        <time>2019-07-09T08:49:46Z</time>
      </trkpt>
      <trkpt lat="39.7617970" lon="-5.6210030">
        <ele>335.0</ele>
        <time>2019-07-09T08:49:47Z</time>
      </trkpt>
      <trkpt lat="39.7617400" lon="-5.6209460">
        <ele>335.8</ele>
        <time>2019-07-09T08:49:50Z</time>
      </trkpt>
      <trkpt lat="39.7617190" lon="-5.6209280">
        <ele>336.0</ele>
        <time>2019-07-09T08:49:51Z</time>
      </trkpt>
      <trkpt lat="39.7616360" lon="-5.6208600">
        <ele>337.0</ele>
        <time>2019-07-09T08:49:55Z</time>
      </trkpt>
      <trkpt lat="39.7615310" lon="-5.6207740">
        <ele>338.0</ele>
        <time>2019-07-09T08:50:00Z</time>
      </trkpt>
      <trkpt lat="39.7615110" lon="-5.6207570">
        <ele>338.2</ele>
        <time>2019-07-09T08:50:01Z</time>
      </trkpt>
      <trkpt lat="39.7614220" lon="-5.6207090">
        <ele>339.2</ele>
        <time>2019-07-09T08:50:05Z</time>
      </trkpt>
      <trkpt lat="39.7613760" lon="-5.6206880">
        <ele>339.6</ele>
        <time>2019-07-09T08:50:07Z</time>
      </trkpt>
      <trkpt lat="39.7613080" lon="-5.6206570">
        <ele>340.4</ele>
        <time>2019-07-09T08:50:10Z</time>
      </trkpt>
      <trkpt lat="39.7612140" lon="-5.6206260">
        <ele>341.6</ele>
        <time>2019-07-09T08:50:14Z</time>
      </trkpt>
      <trkpt lat="39.7611910" lon="-5.6206190">
        <ele>341.8</ele>
        <time>2019-07-09T08:50:15Z</time>
      </trkpt>
      <trkpt lat="39.7610980" lon="-5.6205920">
        <ele>342.6</ele>
        <time>2019-07-09T08:50:19Z</time>
      </trkpt>
      <trkpt lat="39.7610030" lon="-5.6205880">
        <ele>343.4</ele>
        <time>2019-07-09T08:50:23Z</time>
      </trkpt>
      <trkpt lat="39.7609780" lon="-5.6205910">
        <ele>343.6</ele>
        <time>2019-07-09T08:50:24Z</time>
      </trkpt>
      <trkpt lat="39.7608810" lon="-5.6206000">
        <ele>344.6</ele>
        <time>2019-07-09T08:50:28Z</time>
      </trkpt>
      <trkpt lat="39.7608080" lon="-5.6206100">
        <ele>345.2</ele>
        <time>2019-07-09T08:50:31Z</time>
      </trkpt>
      <trkpt lat="39.7607350" lon="-5.6206190">
        <ele>346.0</ele>
        <time>2019-07-09T08:50:34Z</time>
      </trkpt>
      <trkpt lat="39.7606430" lon="-5.6206410">
        <ele>347.0</ele>
        <time>2019-07-09T08:50:38Z</time>
      </trkpt>
      <trkpt lat="39.7606010" lon="-5.6206520">
        <ele>347.4</ele>
        <time>2019-07-09T08:50:40Z</time>
      </trkpt>
      <trkpt lat="39.7605560" lon="-5.6206620">
        <ele>348.0</ele>
        <time>2019-07-09T08:50:42Z</time>
      </trkpt>
      <trkpt lat="39.7604690" lon="-5.6206990">
        <ele>349.0</ele>
        <time>2019-07-09T08:50:46Z</time>
      </trkpt>
      <trkpt lat="39.7604480" lon="-5.6207050">
        <ele>349.2</ele>
        <time>2019-07-09T08:50:47Z</time>
      </trkpt>
      <trkpt lat="39.7603870" lon="-5.6207470">
        <ele>350.4</ele>
        <time>2019-07-09T08:50:50Z</time>
      </trkpt>
      <trkpt lat="39.7603460" lon="-5.6207750">
        <ele>350.8</ele>
        <time>2019-07-09T08:50:52Z</time>
      </trkpt>
      <trkpt lat="39.7603030" lon="-5.6208000">
        <ele>351.2</ele>
        <time>2019-07-09T08:50:54Z</time>
      </trkpt>
      <trkpt lat="39.7602220" lon="-5.6208600">
        <ele>352.2</ele>
        <time>2019-07-09T08:50:58Z</time>
      </trkpt>
      <trkpt lat="39.7602000" lon="-5.6208730">
        <ele>352.6</ele>
        <time>2019-07-09T08:50:59Z</time>
      </trkpt>
      <trkpt lat="39.7601040" lon="-5.6209580">
        <ele>353.8</ele>
        <time>2019-07-09T08:51:04Z</time>
      </trkpt>
      <trkpt lat="39.7599950" lon="-5.6210320">
        <ele>355.0</ele>
        <time>2019-07-09T08:51:09Z</time>
      </trkpt>
      <trkpt lat="39.7599040" lon="-5.6211060">
        <ele>355.8</ele>
        <time>2019-07-09T08:51:13Z</time>
      </trkpt>
      <trkpt lat="39.7598800" lon="-5.6211280">
        <ele>356.0</ele>
        <time>2019-07-09T08:51:14Z</time>
      </trkpt>
      <trkpt lat="39.7597040" lon="-5.6212660">
        <ele>357.0</ele>
        <time>2019-07-09T08:51:21Z</time>
      </trkpt>
      <trkpt lat="39.7595930" lon="-5.6213490">
        <ele>357.2</ele>
        <time>2019-07-09T08:51:25Z</time>
      </trkpt>
      <trkpt lat="39.7594770" lon="-5.6214350">
        <ele>357.2</ele>
        <time>2019-07-09T08:51:29Z</time>
      </trkpt>
      <trkpt lat="39.7593430" lon="-5.6215390">
        <ele>357.0</ele>
        <time>2019-07-09T08:51:33Z</time>
      </trkpt>
      <trkpt lat="39.7593030" lon="-5.6215720">
        <ele>356.8</ele>
        <time>2019-07-09T08:51:34Z</time>
      </trkpt>
      <trkpt lat="39.7592620" lon="-5.6216090">
        <ele>356.4</ele>
        <time>2019-07-09T08:51:35Z</time>
      </trkpt>
      <trkpt lat="39.7591660" lon="-5.6216830">
        <ele>356.0</ele>
        <time>2019-07-09T08:51:37Z</time>
      </trkpt>
      <trkpt lat="39.7590490" lon="-5.6217570">
        <ele>355.6</ele>
        <time>2019-07-09T08:51:39Z</time>
      </trkpt>
      <trkpt lat="39.7589830" lon="-5.6217890">
        <ele>355.0</ele>
        <time>2019-07-09T08:51:40Z</time>
      </trkpt>
      <trkpt lat="39.7589120" lon="-5.6218150">
        <ele>354.6</ele>
        <time>2019-07-09T08:51:41Z</time>
      </trkpt>
      <trkpt lat="39.7587580" lon="-5.6218380">
        <ele>354.0</ele>
        <time>2019-07-09T08:51:43Z</time>
      </trkpt>
      <trkpt lat="39.7586770" lon="-5.6218270">
        <ele>353.6</ele>
        <time>2019-07-09T08:51:44Z</time>
      </trkpt>
      <trkpt lat="39.7585130" lon="-5.6217530">
        <ele>352.8</ele>
        <time>2019-07-09T08:51:46Z</time>
      </trkpt>
      <trkpt lat="39.7584310" lon="-5.6216970">
        <ele>352.0</ele>
        <time>2019-07-09T08:51:47Z</time>
      </trkpt>
      <trkpt lat="39.7583500" lon="-5.6216270">
        <ele>351.6</ele>
        <time>2019-07-09T08:51:48Z</time>
      </trkpt>
      <trkpt lat="39.7582150" lon="-5.6214450">
        <ele>350.4</ele>
        <time>2019-07-09T08:51:50Z</time>
      </trkpt>
      <trkpt lat="39.7581270" lon="-5.6212140">
        <ele>348.8</ele>
        <time>2019-07-09T08:51:52Z</time>
      </trkpt>
      <trkpt lat="39.7581040" lon="-5.6210890">
        <ele>348.0</ele>
        <time>2019-07-09T08:51:53Z</time>
      </trkpt>
      <trkpt lat="39.7580910" lon="-5.6209600">
        <ele>347.2</ele>
        <time>2019-07-09T08:51:54Z</time>
      </trkpt>
      <trkpt lat="39.7580890" lon="-5.6206940">
        <ele>345.8</ele>
        <time>2019-07-09T08:51:56Z</time>
      </trkpt>
      <trkpt lat="39.7580900" lon="-5.6205630">
        <ele>345.4</ele>
        <time>2019-07-09T08:51:57Z</time>
      </trkpt>
      <trkpt lat="39.7580920" lon="-5.6204390">
        <ele>344.6</ele>
        <time>2019-07-09T08:51:58Z</time>
      </trkpt>
      <trkpt lat="39.7580980" lon="-5.6202290">
        <ele>343.0</ele>
        <time>2019-07-09T08:52:00Z</time>
      </trkpt>
      <trkpt lat="39.7581000" lon="-5.6201440">
        <ele>342.4</ele>
        <time>2019-07-09T08:52:01Z</time>
      </trkpt>
      <trkpt lat="39.7580960" lon="-5.6200730">
        <ele>342.0</ele>
        <time>2019-07-09T08:52:02Z</time>
      </trkpt>
      <trkpt lat="39.7580860" lon="-5.6200220">
        <ele>341.6</ele>
        <time>2019-07-09T08:52:03Z</time>
      </trkpt>
      <trkpt lat="39.7580750" lon="-5.6199900">
        <ele>341.4</ele>
        <time>2019-07-09T08:52:04Z</time>
      </trkpt>
      <trkpt lat="39.7580620" lon="-5.6199630">
        <ele>341.0</ele>
        <time>2019-07-09T08:52:06Z</time>
      </trkpt>
      <trkpt lat="39.7580620" lon="-5.6199620">
        <ele>340.6</ele>
        <time>2019-07-09T08:52:08Z</time>
      </trkpt>
      <trkpt lat="39.7580310" lon="-5.6199280">
        <ele>340.4</ele>
        <time>2019-07-09T08:52:30Z</time>
      </trkpt>
      <trkpt lat="39.7579680" lon="-5.6198920">
        <ele>340.4</ele>
        <time>2019-07-09T08:52:32Z</time>
      </trkpt>
      <trkpt lat="39.7579200" lon="-5.6198720">
        <ele>340.0</ele>
        <time>2019-07-09T08:52:33Z</time>
      </trkpt>
      <trkpt lat="39.7577850" lon="-5.6198390">
        <ele>339.2</ele>
        <time>2019-07-09T08:52:35Z</time>
      </trkpt>
      <trkpt lat="39.7576050" lon="-5.6198010">
        <ele>338.0</ele>
        <time>2019-07-09T08:52:37Z</time>
      </trkpt>
      <trkpt lat="39.7575030" lon="-5.6197830">
        <ele>337.0</ele>
        <time>2019-07-09T08:52:38Z</time>
      </trkpt>
      <trkpt lat="39.7574000" lon="-5.6197650">
        <ele>335.8</ele>
        <time>2019-07-09T08:52:39Z</time>
      </trkpt>
      <trkpt lat="39.7573000" lon="-5.6197470">
        <ele>334.4</ele>
        <time>2019-07-09T08:52:40Z</time>
      </trkpt>
      <trkpt lat="39.7572080" lon="-5.6197340">
        <ele>332.8</ele>
        <time>2019-07-09T08:52:41Z</time>
      </trkpt>
      <trkpt lat="39.7571230" lon="-5.6197340">
        <ele>331.4</ele>
        <time>2019-07-09T08:52:42Z</time>
      </trkpt>
      <trkpt lat="39.7570420" lon="-5.6197500">
        <ele>329.8</ele>
        <time>2019-07-09T08:52:43Z</time>
      </trkpt>
      <trkpt lat="39.7568900" lon="-5.6198490">
        <ele>328.0</ele>
        <time>2019-07-09T08:52:45Z</time>
      </trkpt>
      <trkpt lat="39.7568180" lon="-5.6199170">
        <ele>327.2</ele>
        <time>2019-07-09T08:52:46Z</time>
      </trkpt>
      <trkpt lat="39.7567440" lon="-5.6199890">
        <ele>326.6</ele>
        <time>2019-07-09T08:52:47Z</time>
      </trkpt>
      <trkpt lat="39.7566680" lon="-5.6200640">
        <ele>325.6</ele>
        <time>2019-07-09T08:52:48Z</time>
      </trkpt>
      <trkpt lat="39.7565910" lon="-5.6201410">
        <ele>324.4</ele>
        <time>2019-07-09T08:52:49Z</time>
      </trkpt>
      <trkpt lat="39.7564290" lon="-5.6202970">
        <ele>323.2</ele>
        <time>2019-07-09T08:52:51Z</time>
      </trkpt>
      <trkpt lat="39.7563450" lon="-5.6203750">
        <ele>322.6</ele>
        <time>2019-07-09T08:52:52Z</time>
      </trkpt>
      <trkpt lat="39.7562590" lon="-5.6204540">
        <ele>321.6</ele>
        <time>2019-07-09T08:52:53Z</time>
      </trkpt>
      <trkpt lat="39.7560910" lon="-5.6206330">
        <ele>320.0</ele>
        <time>2019-07-09T08:52:55Z</time>
      </trkpt>
      <trkpt lat="39.7559260" lon="-5.6208410">
        <ele>318.0</ele>
        <time>2019-07-09T08:52:57Z</time>
      </trkpt>
      <trkpt lat="39.7557630" lon="-5.6210670">
        <ele>316.2</ele>
        <time>2019-07-09T08:52:59Z</time>
      </trkpt>
      <trkpt lat="39.7556790" lon="-5.6211780">
        <ele>315.0</ele>
        <time>2019-07-09T08:53:00Z</time>
      </trkpt>
      <trkpt lat="39.7555930" lon="-5.6212790">
        <ele>313.8</ele>
        <time>2019-07-09T08:53:01Z</time>
      </trkpt>
      <trkpt lat="39.7555040" lon="-5.6213640">
        <ele>312.8</ele>
        <time>2019-07-09T08:53:02Z</time>
      </trkpt>
      <trkpt lat="39.7554110" lon="-5.6214300">
        <ele>311.6</ele>
        <time>2019-07-09T08:53:03Z</time>
      </trkpt>
      <trkpt lat="39.7553110" lon="-5.6214780">
        <ele>310.6</ele>
        <time>2019-07-09T08:53:04Z</time>
      </trkpt>
      <trkpt lat="39.7552100" lon="-5.6215200">
        <ele>309.6</ele>
        <time>2019-07-09T08:53:05Z</time>
      </trkpt>
      <trkpt lat="39.7551180" lon="-5.6215730">
        <ele>309.0</ele>
        <time>2019-07-09T08:53:06Z</time>
      </trkpt>
      <trkpt lat="39.7549710" lon="-5.6217380">
        <ele>307.4</ele>
        <time>2019-07-09T08:53:08Z</time>
      </trkpt>
      <trkpt lat="39.7548620" lon="-5.6219470">
        <ele>306.2</ele>
        <time>2019-07-09T08:53:10Z</time>
      </trkpt>
      <trkpt lat="39.7547510" lon="-5.6221510">
        <ele>305.4</ele>
        <time>2019-07-09T08:53:12Z</time>
      </trkpt>
      <trkpt lat="39.7546820" lon="-5.6222370">
        <ele>305.0</ele>
        <time>2019-07-09T08:53:13Z</time>
      </trkpt>
      <trkpt lat="39.7545180" lon="-5.6223680">
        <ele>304.4</ele>
        <time>2019-07-09T08:53:15Z</time>
      </trkpt>
      <trkpt lat="39.7544310" lon="-5.6224270">
        <ele>304.0</ele>
        <time>2019-07-09T08:53:16Z</time>
      </trkpt>
      <trkpt lat="39.7543440" lon="-5.6224880">
        <ele>303.8</ele>
        <time>2019-07-09T08:53:17Z</time>
      </trkpt>
      <trkpt lat="39.7542600" lon="-5.6225570">
        <ele>303.4</ele>
        <time>2019-07-09T08:53:18Z</time>
      </trkpt>
      <trkpt lat="39.7541380" lon="-5.6227450">
        <ele>302.8</ele>
        <time>2019-07-09T08:53:20Z</time>
      </trkpt>
      <trkpt lat="39.7541030" lon="-5.6228540">
        <ele>302.6</ele>
        <time>2019-07-09T08:53:21Z</time>
      </trkpt>
      <trkpt lat="39.7540630" lon="-5.6230760">
        <ele>302.2</ele>
        <time>2019-07-09T08:53:23Z</time>
      </trkpt>
      <trkpt lat="39.7540520" lon="-5.6231860">
        <ele>302.0</ele>
        <time>2019-07-09T08:53:24Z</time>
      </trkpt>
      <trkpt lat="39.7539710" lon="-5.6238250">
        <ele>301.6</ele>
        <time>2019-07-09T08:53:30Z</time>
      </trkpt>
      <trkpt lat="39.7539570" lon="-5.6239300">
        <ele>301.4</ele>
        <time>2019-07-09T08:53:31Z</time>
      </trkpt>
      <trkpt lat="39.7539500" lon="-5.6240350">
        <ele>301.0</ele>
        <time>2019-07-09T08:53:32Z</time>
      </trkpt>
      <trkpt lat="39.7539550" lon="-5.6242350">
        <ele>300.6</ele>
        <time>2019-07-09T08:53:34Z</time>
      </trkpt>
      <trkpt lat="39.7539660" lon="-5.6244150">
        <ele>300.4</ele>
        <time>2019-07-09T08:53:36Z</time>
      </trkpt>
      <trkpt lat="39.7539800" lon="-5.6245770">
        <ele>300.6</ele>
        <time>2019-07-09T08:53:38Z</time>
      </trkpt>
      <trkpt lat="39.7539840" lon="-5.6246560">
        <ele>300.8</ele>
        <time>2019-07-09T08:53:39Z</time>
      </trkpt>
      <trkpt lat="39.7539830" lon="-5.6248150">
        <ele>301.2</ele>
        <time>2019-07-09T08:53:41Z</time>
      </trkpt>
      <trkpt lat="39.7539510" lon="-5.6250540">
        <ele>301.2</ele>
        <time>2019-07-09T08:53:44Z</time>
      </trkpt>
      <trkpt lat="39.7539070" lon="-5.6252080">
        <ele>301.2</ele>
        <time>2019-07-09T08:53:46Z</time>
      </trkpt>
      <trkpt lat="39.7538340" lon="-5.6253380">
        <ele>301.0</ele>
        <time>2019-07-09T08:53:48Z</time>
      </trkpt>
      <trkpt lat="39.7536970" lon="-5.6254900">
        <ele>300.8</ele>
        <time>2019-07-09T08:53:51Z</time>
      </trkpt>
      <trkpt lat="39.7535970" lon="-5.6255740">
        <ele>300.8</ele>
        <time>2019-07-09T08:53:53Z</time>
      </trkpt>
      <trkpt lat="39.7535460" lon="-5.6256120">
        <ele>300.8</ele>
        <time>2019-07-09T08:53:54Z</time>
      </trkpt>
      <trkpt lat="39.7534940" lon="-5.6256410">
        <ele>300.8</ele>
        <time>2019-07-09T08:53:55Z</time>
      </trkpt>
      <trkpt lat="39.7533210" lon="-5.6256840">
        <ele>300.6</ele>
        <time>2019-07-09T08:53:58Z</time>
      </trkpt>
      <trkpt lat="39.7532630" lon="-5.6256870">
        <ele>300.4</ele>
        <time>2019-07-09T08:53:59Z</time>
      </trkpt>
      <trkpt lat="39.7531430" lon="-5.6256780">
        <ele>300.2</ele>
        <time>2019-07-09T08:54:01Z</time>
      </trkpt>
      <trkpt lat="39.7530190" lon="-5.6256580">
        <ele>300.0</ele>
        <time>2019-07-09T08:54:03Z</time>
      </trkpt>
      <trkpt lat="39.7526120" lon="-5.6255640">
        <ele>299.0</ele>
        <time>2019-07-09T08:54:09Z</time>
      </trkpt>
      <trkpt lat="39.7525380" lon="-5.6255400">
        <ele>298.8</ele>
        <time>2019-07-09T08:54:10Z</time>
      </trkpt>
      <trkpt lat="39.7523090" lon="-5.6254710">
        <ele>297.8</ele>
        <time>2019-07-09T08:54:13Z</time>
      </trkpt>
      <trkpt lat="39.7521440" lon="-5.6254340">
        <ele>296.8</ele>
        <time>2019-07-09T08:54:15Z</time>
      </trkpt>
      <trkpt lat="39.7519730" lon="-5.6254040">
        <ele>296.0</ele>
        <time>2019-07-09T08:54:17Z</time>
      </trkpt>
      <trkpt lat="39.7518880" lon="-5.6253950">
        <ele>295.6</ele>
        <time>2019-07-09T08:54:18Z</time>
      </trkpt>
      <trkpt lat="39.7518040" lon="-5.6253920">
        <ele>295.4</ele>
        <time>2019-07-09T08:54:19Z</time>
      </trkpt>
      <trkpt lat="39.7515650" lon="-5.6254180">
        <ele>294.8</ele>
        <time>2019-07-09T08:54:22Z</time>
      </trkpt>
      <trkpt lat="39.7514870" lon="-5.6254370">
        <ele>294.6</ele>
        <time>2019-07-09T08:54:23Z</time>
      </trkpt>
      <trkpt lat="39.7511800" lon="-5.6255540">
        <ele>293.6</ele>
        <time>2019-07-09T08:54:27Z</time>
      </trkpt>
      <trkpt lat="39.7511010" lon="-5.6255860">
        <ele>293.2</ele>
        <time>2019-07-09T08:54:28Z</time>
      </trkpt>
      <trkpt lat="39.7509390" lon="-5.6256490">
        <ele>292.8</ele>
        <time>2019-07-09T08:54:30Z</time>
      </trkpt>
      <trkpt lat="39.7508560" lon="-5.6256810">
        <ele>292.4</ele>
        <time>2019-07-09T08:54:31Z</time>
      </trkpt>
      <trkpt lat="39.7506010" lon="-5.6257740">
        <ele>291.2</ele>
        <time>2019-07-09T08:54:34Z</time>
      </trkpt>
      <trkpt lat="39.7504310" lon="-5.6258420">
        <ele>290.4</ele>
        <time>2019-07-09T08:54:36Z</time>
      </trkpt>
      <trkpt lat="39.7503440" lon="-5.6258760">
        <ele>289.8</ele>
        <time>2019-07-09T08:54:37Z</time>
      </trkpt>
      <trkpt lat="39.7501700" lon="-5.6259450">
        <ele>288.8</ele>
        <time>2019-07-09T08:54:39Z</time>
      </trkpt>
      <trkpt lat="39.7499090" lon="-5.6260500">
        <ele>287.4</ele>
        <time>2019-07-09T08:54:42Z</time>
      </trkpt>
      <trkpt lat="39.7496500" lon="-5.6261490">
        <ele>286.6</ele>
        <time>2019-07-09T08:54:45Z</time>
      </trkpt>
      <trkpt lat="39.7495650" lon="-5.6261820">
        <ele>286.4</ele>
        <time>2019-07-09T08:54:46Z</time>
      </trkpt>
      <trkpt lat="39.7493140" lon="-5.6262800">
        <ele>284.8</ele>
        <time>2019-07-09T08:54:49Z</time>
      </trkpt>
      <trkpt lat="39.7489910" lon="-5.6263820">
        <ele>284.0</ele>
        <time>2019-07-09T08:54:53Z</time>
      </trkpt>
      <trkpt lat="39.7488340" lon="-5.6264130">
        <ele>283.6</ele>
        <time>2019-07-09T08:54:55Z</time>
      </trkpt>
      <trkpt lat="39.7485360" lon="-5.6264580">
        <ele>283.0</ele>
        <time>2019-07-09T08:54:59Z</time>
      </trkpt>
      <trkpt lat="39.7484610" lon="-5.6264640">
        <ele>282.8</ele>
        <time>2019-07-09T08:55:00Z</time>
      </trkpt>
      <trkpt lat="39.7483070" lon="-5.6264840">
        <ele>282.6</ele>
        <time>2019-07-09T08:55:02Z</time>
      </trkpt>
      <trkpt lat="39.7480600" lon="-5.6265350">
        <ele>281.4</ele>
        <time>2019-07-09T08:55:05Z</time>
      </trkpt>
      <trkpt lat="39.7479750" lon="-5.6265610">
        <ele>281.0</ele>
        <time>2019-07-09T08:55:06Z</time>
      </trkpt>
      <trkpt lat="39.7478000" lon="-5.6266340">
        <ele>280.2</ele>
        <time>2019-07-09T08:55:08Z</time>
      </trkpt>
      <trkpt lat="39.7476230" lon="-5.6267320">
        <ele>279.0</ele>
        <time>2019-07-09T08:55:10Z</time>
      </trkpt>
      <trkpt lat="39.7475350" lon="-5.6267900">
        <ele>278.6</ele>
        <time>2019-07-09T08:55:11Z</time>
      </trkpt>
      <trkpt lat="39.7474500" lon="-5.6268550">
        <ele>278.0</ele>
        <time>2019-07-09T08:55:12Z</time>
      </trkpt>
      <trkpt lat="39.7472830" lon="-5.6269840">
        <ele>276.8</ele>
        <time>2019-07-09T08:55:14Z</time>
      </trkpt>
      <trkpt lat="39.7470510" lon="-5.6271760">
        <ele>276.2</ele>
        <time>2019-07-09T08:55:17Z</time>
      </trkpt>
      <trkpt lat="39.7468800" lon="-5.6274420">
        <ele>275.8</ele>
        <time>2019-07-09T08:55:20Z</time>
      </trkpt>
      <trkpt lat="39.7468290" lon="-5.6275430">
        <ele>275.6</ele>
        <time>2019-07-09T08:55:21Z</time>
      </trkpt>
      <trkpt lat="39.7466840" lon="-5.6278690">
        <ele>274.4</ele>
        <time>2019-07-09T08:55:24Z</time>
      </trkpt>
      <trkpt lat="39.7466060" lon="-5.6281030">
        <ele>273.4</ele>
        <time>2019-07-09T08:55:26Z</time>
      </trkpt>
      <trkpt lat="39.7464360" lon="-5.6285940">
        <ele>272.6</ele>
        <time>2019-07-09T08:55:31Z</time>
      </trkpt>
      <trkpt lat="39.7462870" lon="-5.6287750">
        <ele>273.0</ele>
        <time>2019-07-09T08:55:34Z</time>
      </trkpt>
      <trkpt lat="39.7460200" lon="-5.6288890">
        <ele>272.2</ele>
        <time>2019-07-09T08:55:38Z</time>
      </trkpt>
      <trkpt lat="39.7457150" lon="-5.6289820">
        <ele>271.0</ele>
        <time>2019-07-09T08:55:42Z</time>
      </trkpt>
      <trkpt lat="39.7454700" lon="-5.6290590">
        <ele>269.8</ele>
        <time>2019-07-09T08:55:45Z</time>
      </trkpt>
      <trkpt lat="39.7453030" lon="-5.6291130">
        <ele>268.8</ele>
        <time>2019-07-09T08:55:47Z</time>
      </trkpt>
      <trkpt lat="39.7451300" lon="-5.6291590">
        <ele>267.8</ele>
        <time>2019-07-09T08:55:49Z</time>
      </trkpt>
      <trkpt lat="39.7448910" lon="-5.6292240">
        <ele>266.8</ele>
        <time>2019-07-09T08:55:52Z</time>
      </trkpt>
      <trkpt lat="39.7447490" lon="-5.6292560">
        <ele>265.6</ele>
        <time>2019-07-09T08:55:54Z</time>
      </trkpt>
      <trkpt lat="39.7445430" lon="-5.6293340">
        <ele>264.6</ele>
        <time>2019-07-09T08:55:57Z</time>
      </trkpt>
      <trkpt lat="39.7442550" lon="-5.6294110">
        <ele>262.8</ele>
        <time>2019-07-09T08:56:01Z</time>
      </trkpt>
      <trkpt lat="39.7440280" lon="-5.6294660">
        <ele>262.0</ele>
        <time>2019-07-09T08:56:04Z</time>
      </trkpt>
      <trkpt lat="39.7439500" lon="-5.6294840">
        <ele>261.8</ele>
        <time>2019-07-09T08:56:05Z</time>
      </trkpt>
      <trkpt lat="39.7436340" lon="-5.6295550">
        <ele>260.2</ele>
        <time>2019-07-09T08:56:09Z</time>
      </trkpt>
      <trkpt lat="39.7434960" lon="-5.6295870">
        <ele>259.0</ele>
        <time>2019-07-09T08:56:11Z</time>
      </trkpt>
      <trkpt lat="39.7433860" lon="-5.6296150">
        <ele>257.8</ele>
        <time>2019-07-09T08:56:13Z</time>
      </trkpt>
      <trkpt lat="39.7433080" lon="-5.6296250">
        <ele>257.2</ele>
        <time>2019-07-09T08:56:15Z</time>
      </trkpt>
      <trkpt lat="39.7432610" lon="-5.6296270">
        <ele>256.6</ele>
        <time>2019-07-09T08:56:17Z</time>
      </trkpt>
      <trkpt lat="39.7432400" lon="-5.6296360">
        <ele>256.2</ele>
        <time>2019-07-09T08:56:19Z</time>
      </trkpt>
      <trkpt lat="39.7432370" lon="-5.6296240">
        <ele>256.0</ele>
        <time>2019-07-09T08:56:21Z</time>
      </trkpt>
      <trkpt lat="39.7432540" lon="-5.6296550">
        <ele>255.8</ele>
        <time>2019-07-09T08:56:43Z</time>
      </trkpt>
      <trkpt lat="39.7432630" lon="-5.6296740">
        <ele>255.8</ele>
        <time>2019-07-09T08:56:44Z</time>
      </trkpt>
      <trkpt lat="39.7432560" lon="-5.6297880">
        <ele>255.8</ele>
        <time>2019-07-09T08:56:48Z</time>
      </trkpt>
      <trkpt lat="39.7431940" lon="-5.6299000">
        <ele>255.2</ele>
        <time>2019-07-09T08:56:51Z</time>
      </trkpt>
      <trkpt lat="39.7431810" lon="-5.6299290">
        <ele>255.2</ele>
        <time>2019-07-09T08:56:52Z</time>
      </trkpt>
      <trkpt lat="39.7431290" lon="-5.6300080">
        <ele>255.0</ele>
        <time>2019-07-09T08:56:55Z</time>
      </trkpt>
      <trkpt lat="39.7430880" lon="-5.6300460">
        <ele>254.8</ele>
        <time>2019-07-09T08:56:57Z</time>
      </trkpt>
      <trkpt lat="39.7430740" lon="-5.6300600">
        <ele>254.8</ele>
        <time>2019-07-09T08:56:58Z</time>
      </trkpt>
      <trkpt lat="39.7430420" lon="-5.6300820">
        <ele>254.6</ele>
        <time>2019-07-09T08:57:00Z</time>
      </trkpt>
      <trkpt lat="39.7430110" lon="-5.6300930">
        <ele>255.0</ele>
        <time>2019-07-09T08:57:02Z</time>
      </trkpt>
      <trkpt lat="39.7429950" lon="-5.6300950">
        <ele>255.2</ele>
        <time>2019-07-09T08:57:03Z</time>
      </trkpt>
      <trkpt lat="39.7429620" lon="-5.6300910">
        <ele>255.6</ele>
        <time>2019-07-09T08:57:05Z</time>
      </trkpt>
      <trkpt lat="39.7429450" lon="-5.6300820">
        <ele>255.6</ele>
        <time>2019-07-09T08:57:06Z</time>
      </trkpt>
      <trkpt lat="39.7429280" lon="-5.6300660">
        <ele>255.8</ele>
        <time>2019-07-09T08:57:07Z</time>
      </trkpt>
      <trkpt lat="39.7428920" lon="-5.6300320">
        <ele>256.2</ele>
        <time>2019-07-09T08:57:09Z</time>
      </trkpt>
      <trkpt lat="39.7428730" lon="-5.6300090">
        <ele>256.2</ele>
        <time>2019-07-09T08:57:10Z</time>
      </trkpt>
      <trkpt lat="39.7428540" lon="-5.6299840">
        <ele>256.2</ele>
        <time>2019-07-09T08:57:11Z</time>
      </trkpt>
      <trkpt lat="39.7427800" lon="-5.6298810">
        <ele>256.4</ele>
        <time>2019-07-09T08:57:15Z</time>
      </trkpt>
      <trkpt lat="39.7426600" lon="-5.6297460">
        <ele>256.6</ele>
        <time>2019-07-09T08:57:21Z</time>
      </trkpt>
      <trkpt lat="39.7425400" lon="-5.6296420">
        <ele>256.6</ele>
        <time>2019-07-09T08:57:27Z</time>
      </trkpt>
      <trkpt lat="39.7423760" lon="-5.6295270">
        <ele>256.8</ele>
        <time>2019-07-09T08:57:34Z</time>
      </trkpt>
      <trkpt lat="39.7422850" lon="-5.6294370">
        <ele>256.6</ele>
        <time>2019-07-09T08:57:39Z</time>
      </trkpt>
      <trkpt lat="39.7421920" lon="-5.6294360">
        <ele>256.8</ele>
        <time>2019-07-09T08:57:43Z</time>
      </trkpt>
      <trkpt lat="39.7421260" lon="-5.6294300">
        <ele>257.4</ele>
        <time>2019-07-09T08:57:46Z</time>
      </trkpt>
      <trkpt lat="39.7420650" lon="-5.6294170">
        <ele>257.8</ele>
        <time>2019-07-09T08:57:49Z</time>
      </trkpt>
      <trkpt lat="39.7420030" lon="-5.6294250">
        <ele>258.4</ele>
        <time>2019-07-09T08:57:53Z</time>
      </trkpt>
      <trkpt lat="39.7419880" lon="-5.6294170">
        <ele>258.6</ele>
        <time>2019-07-09T08:57:54Z</time>
      </trkpt>
      <trkpt lat="39.7419750" lon="-5.6294000">
        <ele>258.6</ele>
        <time>2019-07-09T08:57:55Z</time>
      </trkpt>
      <trkpt lat="39.7419440" lon="-5.6293530">
        <ele>258.8</ele>
        <time>2019-07-09T08:57:58Z</time>
      </trkpt>
      <trkpt lat="39.7419410" lon="-5.6293420">
        <ele>258.4</ele>
        <time>2019-07-09T08:58:00Z</time>
      </trkpt>
      <trkpt lat="39.7420180" lon="-5.6294160">
        <ele>258.6</ele>
        <time>2019-07-09T08:58:20Z</time>
      </trkpt>
      <trkpt lat="39.7420740" lon="-5.6294220">
        <ele>258.8</ele>
        <time>2019-07-09T08:58:23Z</time>
      </trkpt>
      <trkpt lat="39.7421030" lon="-5.6294240">
        <ele>258.8</ele>
        <time>2019-07-09T08:58:24Z</time>
      </trkpt>
      <trkpt lat="39.7421700" lon="-5.6294380">
        <ele>258.8</ele>
        <time>2019-07-09T08:58:26Z</time>
      </trkpt>
      <trkpt lat="39.7422480" lon="-5.6294650">
        <ele>258.6</ele>
        <time>2019-07-09T08:58:28Z</time>
      </trkpt>
      <trkpt lat="39.7423670" lon="-5.6295320">
        <ele>257.8</ele>
        <time>2019-07-09T08:58:31Z</time>
      </trkpt>
      <trkpt lat="39.7424410" lon="-5.6295860">
        <ele>257.4</ele>
        <time>2019-07-09T08:58:33Z</time>
      </trkpt>
      <trkpt lat="39.7424750" lon="-5.6296090">
        <ele>257.2</ele>
        <time>2019-07-09T08:58:34Z</time>
      </trkpt>
      <trkpt lat="39.7425380" lon="-5.6296550">
        <ele>257.2</ele>
        <time>2019-07-09T08:58:36Z</time>
      </trkpt>
      <trkpt lat="39.7425930" lon="-5.6297080">
        <ele>257.0</ele>
        <time>2019-07-09T08:58:38Z</time>
      </trkpt>
      <trkpt lat="39.7426450" lon="-5.6297420">
        <ele>256.8</ele>
        <time>2019-07-09T08:58:40Z</time>
      </trkpt>
      <trkpt lat="39.7427870" lon="-5.6298550">
        <ele>256.4</ele>
        <time>2019-07-09T08:58:46Z</time>
      </trkpt>
      <trkpt lat="39.7428910" lon="-5.6300130">
        <ele>256.6</ele>
        <time>2019-07-09T08:58:52Z</time>
      </trkpt>
      <trkpt lat="39.7429980" lon="-5.6301150">
        <ele>256.6</ele>
        <time>2019-07-09T08:58:57Z</time>
      </trkpt>
      <trkpt lat="39.7430660" lon="-5.6301020">
        <ele>256.2</ele>
        <time>2019-07-09T08:58:59Z</time>
      </trkpt>
      <trkpt lat="39.7431270" lon="-5.6300580">
        <ele>255.6</ele>
        <time>2019-07-09T08:59:01Z</time>
      </trkpt>
      <trkpt lat="39.7431680" lon="-5.6300140">
        <ele>255.2</ele>
        <time>2019-07-09T08:59:03Z</time>
      </trkpt>
      <trkpt lat="39.7432060" lon="-5.6299540">
        <ele>254.6</ele>
        <time>2019-07-09T08:59:06Z</time>
      </trkpt>
      <trkpt lat="39.7433000" lon="-5.6297950">
        <ele>255.2</ele>
        <time>2019-07-09T08:59:14Z</time>
      </trkpt>
      <trkpt lat="39.7433220" lon="-5.6297700">
        <ele>255.2</ele>
        <time>2019-07-09T08:59:16Z</time>
      </trkpt>
      <trkpt lat="39.7433640" lon="-5.6297570">
        <ele>255.4</ele>
        <time>2019-07-09T08:59:19Z</time>
      </trkpt>
      <trkpt lat="39.7433760" lon="-5.6297420">
        <ele>255.4</ele>
        <time>2019-07-09T08:59:20Z</time>
      </trkpt>
      <trkpt lat="39.7434110" lon="-5.6296480">
        <ele>256.0</ele>
        <time>2019-07-09T08:59:24Z</time>
      </trkpt>
      <trkpt lat="39.7434390" lon="-5.6296030">
        <ele>256.0</ele>
        <time>2019-07-09T08:59:26Z</time>
      </trkpt>
      <trkpt lat="39.7435500" lon="-5.6295360">
        <ele>256.4</ele>
        <time>2019-07-09T08:59:32Z</time>
      </trkpt>
      <trkpt lat="39.7436120" lon="-5.6295130">
        <ele>257.2</ele>
        <time>2019-07-09T08:59:38Z</time>
      </trkpt>
      <trkpt lat="39.7436450" lon="-5.6295060">
        <ele>257.8</ele>
        <time>2019-07-09T09:00:30Z</time>
      </trkpt>
      <trkpt lat="39.7436600" lon="-5.6295060">
        <ele>257.8</ele>
        <time>2019-07-09T09:00:31Z</time>
      </trkpt>
      <trkpt lat="39.7436960" lon="-5.6294970">
        <ele>257.8</ele>
        <time>2019-07-09T09:00:33Z</time>
      </trkpt>
      <trkpt lat="39.7437390" lon="-5.6294940">
        <ele>258.0</ele>
        <time>2019-07-09T09:00:35Z</time>
      </trkpt>
      <trkpt lat="39.7437610" lon="-5.6294930">
        <ele>258.2</ele>
        <time>2019-07-09T09:00:36Z</time>
      </trkpt>
      <trkpt lat="39.7438330" lon="-5.6294900">
        <ele>258.6</ele>
        <time>2019-07-09T09:00:39Z</time>
      </trkpt>
      <trkpt lat="39.7439090" lon="-5.6294810">
        <ele>259.2</ele>
        <time>2019-07-09T09:00:42Z</time>
      </trkpt>
      <trkpt lat="39.7439330" lon="-5.6294840">
        <ele>259.4</ele>
        <time>2019-07-09T09:00:43Z</time>
      </trkpt>
      <trkpt lat="39.7439740" lon="-5.6295150">
        <ele>259.6</ele>
        <time>2019-07-09T09:00:45Z</time>
      </trkpt>
      <trkpt lat="39.7439850" lon="-5.6295420">
        <ele>259.8</ele>
        <time>2019-07-09T09:00:46Z</time>
      </trkpt>
      <trkpt lat="39.7439670" lon="-5.6296530">
        <ele>260.2</ele>
        <time>2019-07-09T09:00:49Z</time>
      </trkpt>
      <trkpt lat="39.7439560" lon="-5.6296910">
        <ele>260.4</ele>
        <time>2019-07-09T09:00:50Z</time>
      </trkpt>
      <trkpt lat="39.7439100" lon="-5.6298130">
        <ele>260.8</ele>
        <time>2019-07-09T09:00:53Z</time>
      </trkpt>
      <trkpt lat="39.7438620" lon="-5.6299330">
        <ele>260.8</ele>
        <time>2019-07-09T09:00:56Z</time>
      </trkpt>
      <trkpt lat="39.7437860" lon="-5.6300820">
        <ele>261.2</ele>
        <time>2019-07-09T09:01:00Z</time>
      </trkpt>
      <trkpt lat="39.7437300" lon="-5.6301740">
        <ele>261.4</ele>
        <time>2019-07-09T09:01:03Z</time>
      </trkpt>
      <trkpt lat="39.7437140" lon="-5.6302020">
        <ele>261.6</ele>
        <time>2019-07-09T09:01:04Z</time>
      </trkpt>
      <trkpt lat="39.7436650" lon="-5.6302860">
        <ele>262.6</ele>
        <time>2019-07-09T09:01:07Z</time>
      </trkpt>
      <trkpt lat="39.7436030" lon="-5.6303950">
        <ele>263.6</ele>
        <time>2019-07-09T09:01:11Z</time>
      </trkpt>
      <trkpt lat="39.7435790" lon="-5.6304530">
        <ele>264.0</ele>
        <time>2019-07-09T09:01:13Z</time>
      </trkpt>
      <trkpt lat="39.7435420" lon="-5.6305410">
        <ele>264.8</ele>
        <time>2019-07-09T09:01:16Z</time>
      </trkpt>
      <trkpt lat="39.7435050" lon="-5.6306710">
        <ele>265.4</ele>
        <time>2019-07-09T09:01:20Z</time>
      </trkpt>
      <trkpt lat="39.7435020" lon="-5.6307070">
        <ele>265.4</ele>
        <time>2019-07-09T09:01:21Z</time>
      </trkpt>
      <trkpt lat="39.7435020" lon="-5.6308280">
        <ele>265.8</ele>
        <time>2019-07-09T09:01:24Z</time>
      </trkpt>
      <trkpt lat="39.7435000" lon="-5.6310010">
        <ele>266.0</ele>
        <time>2019-07-09T09:01:28Z</time>
      </trkpt>
      <trkpt lat="39.7434950" lon="-5.6312570">
        <ele>266.0</ele>
        <time>2019-07-09T09:01:33Z</time>
      </trkpt>
      <trkpt lat="39.7434820" lon="-5.6313690">
        <ele>265.8</ele>
        <time>2019-07-09T09:01:35Z</time>
      </trkpt>
      <trkpt lat="39.7434640" lon="-5.6314850">
        <ele>265.8</ele>
        <time>2019-07-09T09:01:37Z</time>
      </trkpt>
      <trkpt lat="39.7434460" lon="-5.6316060">
        <ele>265.6</ele>
        <time>2019-07-09T09:01:39Z</time>
      </trkpt>
      <trkpt lat="39.7434210" lon="-5.6317920">
        <ele>265.4</ele>
        <time>2019-07-09T09:01:42Z</time>
      </trkpt>
      <trkpt lat="39.7434160" lon="-5.6319170">
        <ele>265.4</ele>
        <time>2019-07-09T09:01:44Z</time>
      </trkpt>
      <trkpt lat="39.7434200" lon="-5.6319790">
        <ele>265.6</ele>
        <time>2019-07-09T09:01:45Z</time>
      </trkpt>
      <trkpt lat="39.7434570" lon="-5.6321670">
        <ele>265.6</ele>
        <time>2019-07-09T09:01:48Z</time>
      </trkpt>
      <trkpt lat="39.7434740" lon="-5.6322290">
        <ele>265.4</ele>
        <time>2019-07-09T09:01:49Z</time>
      </trkpt>
      <trkpt lat="39.7435090" lon="-5.6323590">
        <ele>265.2</ele>
        <time>2019-07-09T09:01:51Z</time>
      </trkpt>
      <trkpt lat="39.7435730" lon="-5.6326330">
        <ele>265.0</ele>
        <time>2019-07-09T09:01:55Z</time>
      </trkpt>
      <trkpt lat="39.7435930" lon="-5.6327000">
        <ele>264.8</ele>
        <time>2019-07-09T09:01:56Z</time>
      </trkpt>
      <trkpt lat="39.7436130" lon="-5.6327700">
        <ele>264.8</ele>
        <time>2019-07-09T09:01:57Z</time>
      </trkpt>
      <trkpt lat="39.7436580" lon="-5.6329140">
        <ele>264.6</ele>
        <time>2019-07-09T09:01:59Z</time>
      </trkpt>
      <trkpt lat="39.7436920" lon="-5.6330700">
        <ele>264.2</ele>
        <time>2019-07-09T09:02:01Z</time>
      </trkpt>
      <trkpt lat="39.7437000" lon="-5.6332330">
        <ele>264.0</ele>
        <time>2019-07-09T09:02:03Z</time>
      </trkpt>
      <trkpt lat="39.7436960" lon="-5.6334000">
        <ele>263.8</ele>
        <time>2019-07-09T09:02:05Z</time>
      </trkpt>
      <trkpt lat="39.7437170" lon="-5.6337460">
        <ele>263.4</ele>
        <time>2019-07-09T09:02:09Z</time>
      </trkpt>
      <trkpt lat="39.7437220" lon="-5.6338350">
        <ele>263.4</ele>
        <time>2019-07-09T09:02:10Z</time>
      </trkpt>
      <trkpt lat="39.7437240" lon="-5.6341090">
        <ele>262.8</ele>
        <time>2019-07-09T09:02:13Z</time>
      </trkpt>
      <trkpt lat="39.7437260" lon="-5.6344670">
        <ele>262.4</ele>
        <time>2019-07-09T09:02:17Z</time>
      </trkpt>
      <trkpt lat="39.7437880" lon="-5.6347960">
        <ele>262.2</ele>
        <time>2019-07-09T09:02:21Z</time>
      </trkpt>
      <trkpt lat="39.7438190" lon="-5.6349690">
        <ele>262.0</ele>
        <time>2019-07-09T09:02:23Z</time>
      </trkpt>
      <trkpt lat="39.7438400" lon="-5.6351520">
        <ele>261.6</ele>
        <time>2019-07-09T09:02:25Z</time>
      </trkpt>
      <trkpt lat="39.7438710" lon="-5.6353360">
        <ele>261.0</ele>
        <time>2019-07-09T09:02:27Z</time>
      </trkpt>
      <trkpt lat="39.7439290" lon="-5.6355120">
        <ele>260.4</ele>
        <time>2019-07-09T09:02:29Z</time>
      </trkpt>
      <trkpt lat="39.7441260" lon="-5.6359120">
        <ele>259.4</ele>
        <time>2019-07-09T09:02:34Z</time>
      </trkpt>
      <trkpt lat="39.7442140" lon="-5.6360660">
        <ele>259.2</ele>
        <time>2019-07-09T09:02:36Z</time>
      </trkpt>
      <trkpt lat="39.7443670" lon="-5.6363940">
        <ele>258.8</ele>
        <time>2019-07-09T09:02:40Z</time>
      </trkpt>
      <trkpt lat="39.7444380" lon="-5.6365690">
        <ele>258.4</ele>
        <time>2019-07-09T09:02:42Z</time>
      </trkpt>
      <trkpt lat="39.7444760" lon="-5.6366580">
        <ele>258.2</ele>
        <time>2019-07-09T09:02:43Z</time>
      </trkpt>
      <trkpt lat="39.7445700" lon="-5.6369520">
        <ele>257.6</ele>
        <time>2019-07-09T09:02:46Z</time>
      </trkpt>
      <trkpt lat="39.7445740" lon="-5.6370570">
        <ele>257.4</ele>
        <time>2019-07-09T09:02:47Z</time>
      </trkpt>
      <trkpt lat="39.7445550" lon="-5.6371570">
        <ele>257.0</ele>
        <time>2019-07-09T09:02:48Z</time>
      </trkpt>
      <trkpt lat="39.7444760" lon="-5.6373380">
        <ele>256.6</ele>
        <time>2019-07-09T09:02:50Z</time>
      </trkpt>
      <trkpt lat="39.7443870" lon="-5.6374860">
        <ele>256.4</ele>
        <time>2019-07-09T09:02:52Z</time>
      </trkpt>
      <trkpt lat="39.7443030" lon="-5.6376110">
        <ele>256.4</ele>
        <time>2019-07-09T09:02:54Z</time>
      </trkpt>
      <trkpt lat="39.7441990" lon="-5.6377500">
        <ele>257.2</ele>
        <time>2019-07-09T09:02:57Z</time>
      </trkpt>
      <trkpt lat="39.7441660" lon="-5.6377780">
        <ele>257.6</ele>
        <time>2019-07-09T09:02:58Z</time>
      </trkpt>
      <trkpt lat="39.7441330" lon="-5.6378010">
        <ele>258.0</ele>
        <time>2019-07-09T09:02:59Z</time>
      </trkpt>
      <trkpt lat="39.7440980" lon="-5.6378220">
        <ele>258.6</ele>
        <time>2019-07-09T09:03:00Z</time>
      </trkpt>
      <trkpt lat="39.7440600" lon="-5.6378380">
        <ele>259.0</ele>
        <time>2019-07-09T09:03:01Z</time>
      </trkpt>
      <trkpt lat="39.7439240" lon="-5.6378670">
        <ele>259.4</ele>
        <time>2019-07-09T09:03:04Z</time>
      </trkpt>
      <trkpt lat="39.7438720" lon="-5.6378670">
        <ele>259.4</ele>
        <time>2019-07-09T09:03:05Z</time>
      </trkpt>
      <trkpt lat="39.7436550" lon="-5.6378260">
        <ele>259.4</ele>
        <time>2019-07-09T09:03:09Z</time>
      </trkpt>
      <trkpt lat="39.7434420" lon="-5.6377640">
        <ele>259.4</ele>
        <time>2019-07-09T09:03:13Z</time>
      </trkpt>
      <trkpt lat="39.7433380" lon="-5.6377440">
        <ele>259.4</ele>
        <time>2019-07-09T09:03:15Z</time>
      </trkpt>
      <trkpt lat="39.7432820" lon="-5.6377420">
        <ele>259.4</ele>
        <time>2019-07-09T09:03:16Z</time>
      </trkpt>
      <trkpt lat="39.7430530" lon="-5.6377430">
        <ele>259.2</ele>
        <time>2019-07-09T09:03:20Z</time>
      </trkpt>
      <trkpt lat="39.7428550" lon="-5.6377400">
        <ele>258.8</ele>
        <time>2019-07-09T09:03:23Z</time>
      </trkpt>
      <trkpt lat="39.7426110" lon="-5.6377530">
        <ele>257.8</ele>
        <time>2019-07-09T09:03:26Z</time>
      </trkpt>
      <trkpt lat="39.7425240" lon="-5.6377740">
        <ele>257.0</ele>
        <time>2019-07-09T09:03:27Z</time>
      </trkpt>
      <trkpt lat="39.7423570" lon="-5.6378430">
        <ele>255.8</ele>
        <time>2019-07-09T09:03:29Z</time>
      </trkpt>
      <trkpt lat="39.7421420" lon="-5.6379460">
        <ele>254.8</ele>
        <time>2019-07-09T09:03:32Z</time>
      </trkpt>
      <trkpt lat="39.7420130" lon="-5.6380050">
        <ele>255.8</ele>
        <time>2019-07-09T09:03:35Z</time>
      </trkpt>
      <trkpt lat="39.7419870" lon="-5.6380200">
        <ele>256.2</ele>
        <time>2019-07-09T09:03:36Z</time>
      </trkpt>
      <trkpt lat="39.7419660" lon="-5.6380340">
        <ele>257.0</ele>
        <time>2019-07-09T09:03:37Z</time>
      </trkpt>
      <trkpt lat="39.7419260" lon="-5.6380610">
        <ele>258.0</ele>
        <time>2019-07-09T09:03:39Z</time>
      </trkpt>
      <trkpt lat="39.7418860" lon="-5.6380890">
        <ele>259.0</ele>
        <time>2019-07-09T09:03:41Z</time>
      </trkpt>
      <trkpt lat="39.7418270" lon="-5.6381470">
        <ele>260.0</ele>
        <time>2019-07-09T09:03:44Z</time>
      </trkpt>
      <trkpt lat="39.7418080" lon="-5.6381670">
        <ele>260.4</ele>
        <time>2019-07-09T09:03:45Z</time>
      </trkpt>
      <trkpt lat="39.7417710" lon="-5.6382110">
        <ele>261.0</ele>
        <time>2019-07-09T09:03:47Z</time>
      </trkpt>
      <trkpt lat="39.7417360" lon="-5.6382590">
        <ele>261.6</ele>
        <time>2019-07-09T09:03:49Z</time>
      </trkpt>
      <trkpt lat="39.7416820" lon="-5.6383300">
        <ele>262.4</ele>
        <time>2019-07-09T09:03:52Z</time>
      </trkpt>
      <trkpt lat="39.7416700" lon="-5.6383580">
        <ele>262.8</ele>
        <time>2019-07-09T09:03:53Z</time>
      </trkpt>
      <trkpt lat="39.7416460" lon="-5.6384160">
        <ele>263.4</ele>
        <time>2019-07-09T09:03:55Z</time>
      </trkpt>
      <trkpt lat="39.7416250" lon="-5.6384770">
        <ele>263.8</ele>
        <time>2019-07-09T09:03:57Z</time>
      </trkpt>
      <trkpt lat="39.7415940" lon="-5.6385730">
        <ele>264.4</ele>
        <time>2019-07-09T09:04:00Z</time>
      </trkpt>
      <trkpt lat="39.7415710" lon="-5.6386780">
        <ele>264.8</ele>
        <time>2019-07-09T09:04:03Z</time>
      </trkpt>
      <trkpt lat="39.7414920" lon="-5.6388800">
        <ele>265.8</ele>
        <time>2019-07-09T09:04:09Z</time>
      </trkpt>
      <trkpt lat="39.7414770" lon="-5.6389100">
        <ele>265.8</ele>
        <time>2019-07-09T09:04:10Z</time>
      </trkpt>
      <trkpt lat="39.7413810" lon="-5.6390510">
        <ele>267.0</ele>
        <time>2019-07-09T09:04:16Z</time>
      </trkpt>
      <trkpt lat="39.7413630" lon="-5.6390700">
        <ele>267.4</ele>
        <time>2019-07-09T09:04:17Z</time>
      </trkpt>
      <trkpt lat="39.7413360" lon="-5.6391120">
        <ele>268.2</ele>
        <time>2019-07-09T09:04:19Z</time>
      </trkpt>
      <trkpt lat="39.7412680" lon="-5.6392300">
        <ele>269.4</ele>
        <time>2019-07-09T09:04:24Z</time>
      </trkpt>
      <trkpt lat="39.7412530" lon="-5.6392510">
        <ele>269.8</ele>
        <time>2019-07-09T09:04:25Z</time>
      </trkpt>
      <trkpt lat="39.7412110" lon="-5.6393130">
        <ele>270.6</ele>
        <time>2019-07-09T09:04:28Z</time>
      </trkpt>
      <trkpt lat="39.7411790" lon="-5.6393820">
        <ele>271.6</ele>
        <time>2019-07-09T09:04:31Z</time>
      </trkpt>
      <trkpt lat="39.7411690" lon="-5.6394060">
        <ele>272.2</ele>
        <time>2019-07-09T09:04:32Z</time>
      </trkpt>
      <trkpt lat="39.7411490" lon="-5.6394540">
        <ele>273.0</ele>
        <time>2019-07-09T09:04:34Z</time>
      </trkpt>
      <trkpt lat="39.7411410" lon="-5.6395330">
        <ele>274.0</ele>
        <time>2019-07-09T09:04:37Z</time>
      </trkpt>
      <trkpt lat="39.7411410" lon="-5.6395590">
        <ele>274.2</ele>
        <time>2019-07-09T09:04:38Z</time>
      </trkpt>
      <trkpt lat="39.7411420" lon="-5.6396110">
        <ele>275.0</ele>
        <time>2019-07-09T09:04:40Z</time>
      </trkpt>
      <trkpt lat="39.7411620" lon="-5.6397150">
        <ele>276.2</ele>
        <time>2019-07-09T09:04:44Z</time>
      </trkpt>
      <trkpt lat="39.7411750" lon="-5.6397650">
        <ele>276.6</ele>
        <time>2019-07-09T09:04:46Z</time>
      </trkpt>
      <trkpt lat="39.7411830" lon="-5.6398450">
        <ele>277.4</ele>
        <time>2019-07-09T09:04:49Z</time>
      </trkpt>
      <trkpt lat="39.7412000" lon="-5.6399250">
        <ele>278.4</ele>
        <time>2019-07-09T09:04:52Z</time>
      </trkpt>
      <trkpt lat="39.7412070" lon="-5.6399510">
        <ele>278.6</ele>
        <time>2019-07-09T09:04:53Z</time>
      </trkpt>
      <trkpt lat="39.7412150" lon="-5.6400500">
        <ele>279.6</ele>
        <time>2019-07-09T09:04:57Z</time>
      </trkpt>
      <trkpt lat="39.7412210" lon="-5.6400720">
        <ele>279.8</ele>
        <time>2019-07-09T09:04:58Z</time>
      </trkpt>
      <trkpt lat="39.7412350" lon="-5.6401160">
        <ele>280.6</ele>
        <time>2019-07-09T09:05:00Z</time>
      </trkpt>
      <trkpt lat="39.7412510" lon="-5.6402570">
        <ele>282.0</ele>
        <time>2019-07-09T09:05:06Z</time>
      </trkpt>
      <trkpt lat="39.7412660" lon="-5.6403480">
        <ele>283.2</ele>
        <time>2019-07-09T09:05:10Z</time>
      </trkpt>
      <trkpt lat="39.7412780" lon="-5.6404350">
        <ele>284.4</ele>
        <time>2019-07-09T09:05:14Z</time>
      </trkpt>
      <trkpt lat="39.7412850" lon="-5.6404580">
        <ele>284.8</ele>
        <time>2019-07-09T09:05:15Z</time>
      </trkpt>
      <trkpt lat="39.7413020" lon="-5.6405010">
        <ele>285.4</ele>
        <time>2019-07-09T09:05:17Z</time>
      </trkpt>
      <trkpt lat="39.7413240" lon="-5.6405630">
        <ele>286.6</ele>
        <time>2019-07-09T09:05:20Z</time>
      </trkpt>
      <trkpt lat="39.7413370" lon="-5.6406010">
        <ele>287.2</ele>
        <time>2019-07-09T09:05:22Z</time>
      </trkpt>
      <trkpt lat="39.7413430" lon="-5.6406210">
        <ele>287.6</ele>
        <time>2019-07-09T09:05:23Z</time>
      </trkpt>
      <trkpt lat="39.7413530" lon="-5.6406380">
        <ele>287.8</ele>
        <time>2019-07-09T09:05:24Z</time>
      </trkpt>
      <trkpt lat="39.7414040" lon="-5.6406690">
        <ele>288.6</ele>
        <time>2019-07-09T09:05:27Z</time>
      </trkpt>
      <trkpt lat="39.7414270" lon="-5.6407030">
        <ele>289.2</ele>
        <time>2019-07-09T09:05:29Z</time>
      </trkpt>
      <trkpt lat="39.7414460" lon="-5.6407400">
        <ele>290.0</ele>
        <time>2019-07-09T09:05:31Z</time>
      </trkpt>
      <trkpt lat="39.7414700" lon="-5.6407740">
        <ele>290.4</ele>
        <time>2019-07-09T09:05:33Z</time>
      </trkpt>
      <trkpt lat="39.7414940" lon="-5.6408070">
        <ele>291.2</ele>
        <time>2019-07-09T09:05:35Z</time>
      </trkpt>
      <trkpt lat="39.7415380" lon="-5.6408790">
        <ele>292.4</ele>
        <time>2019-07-09T09:05:39Z</time>
      </trkpt>
      <trkpt lat="39.7415830" lon="-5.6409310">
        <ele>293.2</ele>
        <time>2019-07-09T09:05:42Z</time>
      </trkpt>
      <trkpt lat="39.7415950" lon="-5.6409500">
        <ele>293.6</ele>
        <time>2019-07-09T09:05:43Z</time>
      </trkpt>
      <trkpt lat="39.7416630" lon="-5.6410420">
        <ele>294.6</ele>
        <time>2019-07-09T09:05:48Z</time>
      </trkpt>
      <trkpt lat="39.7416760" lon="-5.6410610">
        <ele>294.8</ele>
        <time>2019-07-09T09:05:49Z</time>
      </trkpt>
      <trkpt lat="39.7416970" lon="-5.6411030">
        <ele>295.8</ele>
        <time>2019-07-09T09:05:51Z</time>
      </trkpt>
      <trkpt lat="39.7417590" lon="-5.6411950">
        <ele>296.8</ele>
        <time>2019-07-09T09:05:56Z</time>
      </trkpt>
      <trkpt lat="39.7417770" lon="-5.6412020">
        <ele>297.0</ele>
        <time>2019-07-09T09:05:57Z</time>
      </trkpt>
      <trkpt lat="39.7418570" lon="-5.6412730">
        <ele>297.8</ele>
        <time>2019-07-09T09:06:02Z</time>
      </trkpt>
      <trkpt lat="39.7418740" lon="-5.6412850">
        <ele>298.2</ele>
        <time>2019-07-09T09:06:03Z</time>
      </trkpt>
      <trkpt lat="39.7419250" lon="-5.6413260">
        <ele>298.8</ele>
        <time>2019-07-09T09:06:06Z</time>
      </trkpt>
      <trkpt lat="39.7420170" lon="-5.6414020">
        <ele>299.8</ele>
        <time>2019-07-09T09:06:11Z</time>
      </trkpt>
      <trkpt lat="39.7420350" lon="-5.6414180">
        <ele>299.8</ele>
        <time>2019-07-09T09:06:12Z</time>
      </trkpt>
      <trkpt lat="39.7421090" lon="-5.6414730">
        <ele>300.6</ele>
        <time>2019-07-09T09:06:16Z</time>
      </trkpt>
      <trkpt lat="39.7421480" lon="-5.6414990">
        <ele>301.0</ele>
        <time>2019-07-09T09:06:18Z</time>
      </trkpt>
      <trkpt lat="39.7421890" lon="-5.6415250">
        <ele>301.4</ele>
        <time>2019-07-09T09:06:20Z</time>
      </trkpt>
      <trkpt lat="39.7422560" lon="-5.6415970">
        <ele>302.0</ele>
        <time>2019-07-09T09:06:24Z</time>
      </trkpt>
      <trkpt lat="39.7423070" lon="-5.6416520">
        <ele>302.6</ele>
        <time>2019-07-09T09:06:27Z</time>
      </trkpt>
      <trkpt lat="39.7423630" lon="-5.6417070">
        <ele>303.0</ele>
        <time>2019-07-09T09:06:30Z</time>
      </trkpt>
      <trkpt lat="39.7424150" lon="-5.6417630">
        <ele>303.8</ele>
        <time>2019-07-09T09:06:33Z</time>
      </trkpt>
      <trkpt lat="39.7424260" lon="-5.6417880">
        <ele>304.0</ele>
        <time>2019-07-09T09:06:34Z</time>
      </trkpt>
      <trkpt lat="39.7424400" lon="-5.6418080">
        <ele>304.2</ele>
        <time>2019-07-09T09:06:35Z</time>
      </trkpt>
      <trkpt lat="39.7424930" lon="-5.6418530">
        <ele>305.0</ele>
        <time>2019-07-09T09:06:38Z</time>
      </trkpt>
      <trkpt lat="39.7425090" lon="-5.6418700">
        <ele>305.2</ele>
        <time>2019-07-09T09:06:39Z</time>
      </trkpt>
      <trkpt lat="39.7425800" lon="-5.6419270">
        <ele>306.2</ele>
        <time>2019-07-09T09:06:43Z</time>
      </trkpt>
      <trkpt lat="39.7426170" lon="-5.6419470">
        <ele>306.6</ele>
        <time>2019-07-09T09:06:45Z</time>
      </trkpt>
      <trkpt lat="39.7426910" lon="-5.6419960">
        <ele>307.4</ele>
        <time>2019-07-09T09:06:49Z</time>
      </trkpt>
      <trkpt lat="39.7427470" lon="-5.6420360">
        <ele>308.2</ele>
        <time>2019-07-09T09:06:52Z</time>
      </trkpt>
      <trkpt lat="39.7427670" lon="-5.6420460">
        <ele>308.4</ele>
        <time>2019-07-09T09:06:53Z</time>
      </trkpt>
      <trkpt lat="39.7428820" lon="-5.6421240">
        <ele>309.6</ele>
        <time>2019-07-09T09:06:59Z</time>
      </trkpt>
      <trkpt lat="39.7429020" lon="-5.6421400">
        <ele>310.0</ele>
        <time>2019-07-09T09:07:00Z</time>
      </trkpt>
      <trkpt lat="39.7429840" lon="-5.6421870">
        <ele>310.8</ele>
        <time>2019-07-09T09:07:04Z</time>
      </trkpt>
      <trkpt lat="39.7430220" lon="-5.6422150">
        <ele>311.2</ele>
        <time>2019-07-09T09:07:06Z</time>
      </trkpt>
      <trkpt lat="39.7430590" lon="-5.6422470">
        <ele>311.6</ele>
        <time>2019-07-09T09:07:08Z</time>
      </trkpt>
      <trkpt lat="39.7430960" lon="-5.6422740">
        <ele>312.0</ele>
        <time>2019-07-09T09:07:10Z</time>
      </trkpt>
      <trkpt lat="39.7432110" lon="-5.6423740">
        <ele>312.8</ele>
        <time>2019-07-09T09:07:16Z</time>
      </trkpt>
      <trkpt lat="39.7432520" lon="-5.6424210">
        <ele>313.0</ele>
        <time>2019-07-09T09:07:18Z</time>
      </trkpt>
      <trkpt lat="39.7434000" lon="-5.6426110">
        <ele>314.2</ele>
        <time>2019-07-09T09:07:25Z</time>
      </trkpt>
      <trkpt lat="39.7435930" lon="-5.6427470">
        <ele>315.2</ele>
        <time>2019-07-09T09:07:32Z</time>
      </trkpt>
      <trkpt lat="39.7436270" lon="-5.6427580">
        <ele>315.2</ele>
        <time>2019-07-09T09:07:33Z</time>
      </trkpt>
      <trkpt lat="39.7438520" lon="-5.6427930">
        <ele>316.0</ele>
        <time>2019-07-09T09:07:39Z</time>
      </trkpt>
      <trkpt lat="39.7440030" lon="-5.6428280">
        <ele>316.4</ele>
        <time>2019-07-09T09:07:43Z</time>
      </trkpt>
      <trkpt lat="39.7441110" lon="-5.6428770">
        <ele>316.6</ele>
        <time>2019-07-09T09:07:46Z</time>
      </trkpt>
      <trkpt lat="39.7442660" lon="-5.6429980">
        <ele>317.4</ele>
        <time>2019-07-09T09:07:51Z</time>
      </trkpt>
      <trkpt lat="39.7442930" lon="-5.6430270">
        <ele>317.4</ele>
        <time>2019-07-09T09:07:52Z</time>
      </trkpt>
      <trkpt lat="39.7444150" lon="-5.6431810">
        <ele>318.4</ele>
        <time>2019-07-09T09:07:57Z</time>
      </trkpt>
      <trkpt lat="39.7444700" lon="-5.6432830">
        <ele>319.0</ele>
        <time>2019-07-09T09:08:00Z</time>
      </trkpt>
      <trkpt lat="39.7444990" lon="-5.6433600">
        <ele>319.6</ele>
        <time>2019-07-09T09:08:02Z</time>
      </trkpt>
      <trkpt lat="39.7445980" lon="-5.6435980">
        <ele>320.6</ele>
        <time>2019-07-09T09:08:08Z</time>
      </trkpt>
      <trkpt lat="39.7447070" lon="-5.6437430">
        <ele>321.4</ele>
        <time>2019-07-09T09:08:13Z</time>
      </trkpt>
      <trkpt lat="39.7447340" lon="-5.6437590">
        <ele>321.6</ele>
        <time>2019-07-09T09:08:14Z</time>
      </trkpt>
      <trkpt lat="39.7447820" lon="-5.6437900">
        <ele>322.2</ele>
        <time>2019-07-09T09:08:16Z</time>
      </trkpt>
      <trkpt lat="39.7448270" lon="-5.6438060">
        <ele>322.8</ele>
        <time>2019-07-09T09:08:18Z</time>
      </trkpt>
      <trkpt lat="39.7448510" lon="-5.6438100">
        <ele>323.2</ele>
        <time>2019-07-09T09:08:19Z</time>
      </trkpt>
      <trkpt lat="39.7449170" lon="-5.6438170">
        <ele>323.8</ele>
        <time>2019-07-09T09:08:22Z</time>
      </trkpt>
      <trkpt lat="39.7449650" lon="-5.6438140">
        <ele>324.2</ele>
        <time>2019-07-09T09:08:24Z</time>
      </trkpt>
      <trkpt lat="39.7450320" lon="-5.6438010">
        <ele>325.2</ele>
        <time>2019-07-09T09:08:27Z</time>
      </trkpt>
      <trkpt lat="39.7450930" lon="-5.6438050">
        <ele>325.8</ele>
        <time>2019-07-09T09:08:30Z</time>
      </trkpt>
      <trkpt lat="39.7451360" lon="-5.6437960">
        <ele>326.2</ele>
        <time>2019-07-09T09:08:32Z</time>
      </trkpt>
      <trkpt lat="39.7451990" lon="-5.6437750">
        <ele>327.4</ele>
        <time>2019-07-09T09:08:35Z</time>
      </trkpt>
      <trkpt lat="39.7452390" lon="-5.6437650">
        <ele>328.0</ele>
        <time>2019-07-09T09:08:37Z</time>
      </trkpt>
      <trkpt lat="39.7452600" lon="-5.6437580">
        <ele>328.6</ele>
        <time>2019-07-09T09:08:38Z</time>
      </trkpt>
      <trkpt lat="39.7453360" lon="-5.6437030">
        <ele>329.6</ele>
        <time>2019-07-09T09:08:42Z</time>
      </trkpt>
      <trkpt lat="39.7453550" lon="-5.6436930">
        <ele>329.8</ele>
        <time>2019-07-09T09:08:43Z</time>
      </trkpt>
      <trkpt lat="39.7454040" lon="-5.6436380">
        <ele>330.8</ele>
        <time>2019-07-09T09:08:46Z</time>
      </trkpt>
      <trkpt lat="39.7454380" lon="-5.6435940">
        <ele>331.4</ele>
        <time>2019-07-09T09:08:48Z</time>
      </trkpt>
      <trkpt lat="39.7454820" lon="-5.6435250">
        <ele>332.0</ele>
        <time>2019-07-09T09:08:51Z</time>
      </trkpt>
      <trkpt lat="39.7455320" lon="-5.6434390">
        <ele>333.0</ele>
        <time>2019-07-09T09:08:55Z</time>
      </trkpt>
      <trkpt lat="39.7456090" lon="-5.6433130">
        <ele>334.0</ele>
        <time>2019-07-09T09:09:01Z</time>
      </trkpt>
      <trkpt lat="39.7456620" lon="-5.6432340">
        <ele>335.2</ele>
        <time>2019-07-09T09:09:05Z</time>
      </trkpt>
      <trkpt lat="39.7457020" lon="-5.6431740">
        <ele>336.4</ele>
        <time>2019-07-09T09:09:08Z</time>
      </trkpt>
      <trkpt lat="39.7457450" lon="-5.6430820">
        <ele>337.4</ele>
        <time>2019-07-09T09:09:12Z</time>
      </trkpt>
      <trkpt lat="39.7457700" lon="-5.6430360">
        <ele>337.8</ele>
        <time>2019-07-09T09:09:14Z</time>
      </trkpt>
      <trkpt lat="39.7457880" lon="-5.6429860">
        <ele>338.6</ele>
        <time>2019-07-09T09:09:16Z</time>
      </trkpt>
      <trkpt lat="39.7458350" lon="-5.6429310">
        <ele>339.0</ele>
        <time>2019-07-09T09:09:19Z</time>
      </trkpt>
      <trkpt lat="39.7458990" lon="-5.6429030">
        <ele>339.8</ele>
        <time>2019-07-09T09:09:22Z</time>
      </trkpt>
      <trkpt lat="39.7459470" lon="-5.6428980">
        <ele>340.4</ele>
        <time>2019-07-09T09:09:24Z</time>
      </trkpt>
      <trkpt lat="39.7460190" lon="-5.6428880">
        <ele>340.8</ele>
        <time>2019-07-09T09:09:27Z</time>
      </trkpt>
      <trkpt lat="39.7461120" lon="-5.6428830">
        <ele>341.8</ele>
        <time>2019-07-09T09:09:31Z</time>
      </trkpt>
      <trkpt lat="39.7461350" lon="-5.6428930">
        <ele>342.0</ele>
        <time>2019-07-09T09:09:32Z</time>
      </trkpt>
      <trkpt lat="39.7462710" lon="-5.6429400">
        <ele>343.0</ele>
        <time>2019-07-09T09:09:38Z</time>
      </trkpt>
      <trkpt lat="39.7463750" lon="-5.6430080">
        <ele>344.0</ele>
        <time>2019-07-09T09:09:43Z</time>
      </trkpt>
      <trkpt lat="39.7464120" lon="-5.6430550">
        <ele>344.2</ele>
        <time>2019-07-09T09:09:45Z</time>
      </trkpt>
      <trkpt lat="39.7464310" lon="-5.6432020">
        <ele>344.8</ele>
        <time>2019-07-09T09:09:49Z</time>
      </trkpt>
      <trkpt lat="39.7464020" lon="-5.6433320">
        <ele>345.0</ele>
        <time>2019-07-09T09:09:52Z</time>
      </trkpt>
      <trkpt lat="39.7463520" lon="-5.6434490">
        <ele>345.2</ele>
        <time>2019-07-09T09:09:55Z</time>
      </trkpt>
      <trkpt lat="39.7463150" lon="-5.6435270">
        <ele>345.6</ele>
        <time>2019-07-09T09:09:57Z</time>
      </trkpt>
      <trkpt lat="39.7462280" lon="-5.6436750">
        <ele>346.0</ele>
        <time>2019-07-09T09:10:01Z</time>
      </trkpt>
      <trkpt lat="39.7462060" lon="-5.6437100">
        <ele>346.0</ele>
        <time>2019-07-09T09:10:02Z</time>
      </trkpt>
      <trkpt lat="39.7461820" lon="-5.6437420">
        <ele>346.2</ele>
        <time>2019-07-09T09:10:03Z</time>
      </trkpt>
      <trkpt lat="39.7460880" lon="-5.6438960">
        <ele>347.4</ele>
        <time>2019-07-09T09:10:08Z</time>
      </trkpt>
      <trkpt lat="39.7460700" lon="-5.6439210">
        <ele>347.6</ele>
        <time>2019-07-09T09:10:09Z</time>
      </trkpt>
      <trkpt lat="39.7460020" lon="-5.6440250">
        <ele>348.8</ele>
        <time>2019-07-09T09:10:13Z</time>
      </trkpt>
      <trkpt lat="39.7459430" lon="-5.6441320">
        <ele>349.8</ele>
        <time>2019-07-09T09:10:17Z</time>
      </trkpt>
      <trkpt lat="39.7459270" lon="-5.6441580">
        <ele>350.0</ele>
        <time>2019-07-09T09:10:18Z</time>
      </trkpt>
      <trkpt lat="39.7458720" lon="-5.6442380">
        <ele>351.0</ele>
        <time>2019-07-09T09:10:21Z</time>
      </trkpt>
      <trkpt lat="39.7457680" lon="-5.6443700">
        <ele>351.8</ele>
        <time>2019-07-09T09:10:26Z</time>
      </trkpt>
      <trkpt lat="39.7457440" lon="-5.6443930">
        <ele>351.8</ele>
        <time>2019-07-09T09:10:27Z</time>
      </trkpt>
      <trkpt lat="39.7455830" lon="-5.6445340">
        <ele>352.8</ele>
        <time>2019-07-09T09:10:33Z</time>
      </trkpt>
      <trkpt lat="39.7455260" lon="-5.6445780">
        <ele>353.0</ele>
        <time>2019-07-09T09:10:35Z</time>
      </trkpt>
      <trkpt lat="39.7454710" lon="-5.6446130">
        <ele>353.2</ele>
        <time>2019-07-09T09:10:37Z</time>
      </trkpt>
      <trkpt lat="39.7453280" lon="-5.6447160">
        <ele>354.0</ele>
        <time>2019-07-09T09:10:43Z</time>
      </trkpt>
      <trkpt lat="39.7452350" lon="-5.6447690">
        <ele>355.2</ele>
        <time>2019-07-09T09:10:47Z</time>
      </trkpt>
      <trkpt lat="39.7451410" lon="-5.6448270">
        <ele>356.4</ele>
        <time>2019-07-09T09:10:51Z</time>
      </trkpt>
      <trkpt lat="39.7451170" lon="-5.6448420">
        <ele>356.8</ele>
        <time>2019-07-09T09:10:52Z</time>
      </trkpt>
      <trkpt lat="39.7450500" lon="-5.6448950">
        <ele>357.4</ele>
        <time>2019-07-09T09:10:55Z</time>
      </trkpt>
      <trkpt lat="39.7449780" lon="-5.6449230">
        <ele>358.4</ele>
        <time>2019-07-09T09:10:58Z</time>
      </trkpt>
      <trkpt lat="39.7449520" lon="-5.6449320">
        <ele>358.8</ele>
        <time>2019-07-09T09:10:59Z</time>
      </trkpt>
      <trkpt lat="39.7448500" lon="-5.6449840">
        <ele>359.8</ele>
        <time>2019-07-09T09:11:03Z</time>
      </trkpt>
      <trkpt lat="39.7448010" lon="-5.6450200">
        <ele>360.2</ele>
        <time>2019-07-09T09:11:05Z</time>
      </trkpt>
      <trkpt lat="39.7447310" lon="-5.6450820">
        <ele>360.8</ele>
        <time>2019-07-09T09:11:08Z</time>
      </trkpt>
      <trkpt lat="39.7446050" lon="-5.6452220">
        <ele>362.0</ele>
        <time>2019-07-09T09:11:14Z</time>
      </trkpt>
      <trkpt lat="39.7445850" lon="-5.6452470">
        <ele>362.2</ele>
        <time>2019-07-09T09:11:15Z</time>
      </trkpt>
      <trkpt lat="39.7445180" lon="-5.6453590">
        <ele>363.4</ele>
        <time>2019-07-09T09:11:19Z</time>
      </trkpt>
      <trkpt lat="39.7444720" lon="-5.6454780">
        <ele>364.2</ele>
        <time>2019-07-09T09:11:23Z</time>
      </trkpt>
      <trkpt lat="39.7444620" lon="-5.6455070">
        <ele>364.6</ele>
        <time>2019-07-09T09:11:24Z</time>
      </trkpt>
      <trkpt lat="39.7443970" lon="-5.6456460">
        <ele>365.8</ele>
        <time>2019-07-09T09:11:29Z</time>
      </trkpt>
      <trkpt lat="39.7443640" lon="-5.6456960">
        <ele>366.4</ele>
        <time>2019-07-09T09:11:31Z</time>
      </trkpt>
      <trkpt lat="39.7443320" lon="-5.6457470">
        <ele>366.8</ele>
        <time>2019-07-09T09:11:33Z</time>
      </trkpt>
      <trkpt lat="39.7442790" lon="-5.6458560">
        <ele>368.0</ele>
        <time>2019-07-09T09:11:37Z</time>
      </trkpt>
      <trkpt lat="39.7442490" lon="-5.6459130">
        <ele>368.8</ele>
        <time>2019-07-09T09:11:39Z</time>
      </trkpt>
      <trkpt lat="39.7442340" lon="-5.6459410">
        <ele>369.2</ele>
        <time>2019-07-09T09:11:40Z</time>
      </trkpt>
      <trkpt lat="39.7441590" lon="-5.6460320">
        <ele>370.4</ele>
        <time>2019-07-09T09:11:44Z</time>
      </trkpt>
      <trkpt lat="39.7441260" lon="-5.6460770">
        <ele>371.0</ele>
        <time>2019-07-09T09:11:46Z</time>
      </trkpt>
      <trkpt lat="39.7440900" lon="-5.6461200">
        <ele>371.6</ele>
        <time>2019-07-09T09:11:48Z</time>
      </trkpt>
      <trkpt lat="39.7440220" lon="-5.6462170">
        <ele>372.8</ele>
        <time>2019-07-09T09:11:52Z</time>
      </trkpt>
      <trkpt lat="39.7440020" lon="-5.6462380">
        <ele>373.2</ele>
        <time>2019-07-09T09:11:53Z</time>
      </trkpt>
      <trkpt lat="39.7439170" lon="-5.6463120">
        <ele>374.2</ele>
        <time>2019-07-09T09:11:57Z</time>
      </trkpt>
      <trkpt lat="39.7438300" lon="-5.6463740">
        <ele>375.2</ele>
        <time>2019-07-09T09:12:01Z</time>
      </trkpt>
      <trkpt lat="39.7437590" lon="-5.6464400">
        <ele>376.4</ele>
        <time>2019-07-09T09:12:05Z</time>
      </trkpt>
      <trkpt lat="39.7437010" lon="-5.6464740">
        <ele>377.2</ele>
        <time>2019-07-09T09:12:08Z</time>
      </trkpt>
      <trkpt lat="39.7436780" lon="-5.6464790">
        <ele>377.6</ele>
        <time>2019-07-09T09:12:09Z</time>
      </trkpt>
      <trkpt lat="39.7435330" lon="-5.6464640">
        <ele>378.4</ele>
        <time>2019-07-09T09:12:15Z</time>
      </trkpt>
      <trkpt lat="39.7435070" lon="-5.6464540">
        <ele>378.6</ele>
        <time>2019-07-09T09:12:16Z</time>
      </trkpt>
      <trkpt lat="39.7434110" lon="-5.6463980">
        <ele>379.6</ele>
        <time>2019-07-09T09:12:20Z</time>
      </trkpt>
      <trkpt lat="39.7433510" lon="-5.6463400">
        <ele>380.2</ele>
        <time>2019-07-09T09:12:23Z</time>
      </trkpt>
      <trkpt lat="39.7433090" lon="-5.6463080">
        <ele>380.6</ele>
        <time>2019-07-09T09:12:25Z</time>
      </trkpt>
      <trkpt lat="39.7432210" lon="-5.6462380">
        <ele>381.6</ele>
        <time>2019-07-09T09:12:29Z</time>
      </trkpt>
      <trkpt lat="39.7432020" lon="-5.6462160">
        <ele>382.0</ele>
        <time>2019-07-09T09:12:30Z</time>
      </trkpt>
      <trkpt lat="39.7431330" lon="-5.6461180">
        <ele>383.0</ele>
        <time>2019-07-09T09:12:34Z</time>
      </trkpt>
      <trkpt lat="39.7430490" lon="-5.6460070">
        <ele>384.0</ele>
        <time>2019-07-09T09:12:39Z</time>
      </trkpt>
      <trkpt lat="39.7430320" lon="-5.6459830">
        <ele>384.2</ele>
        <time>2019-07-09T09:12:40Z</time>
      </trkpt>
      <trkpt lat="39.7429470" lon="-5.6459410">
        <ele>385.2</ele>
        <time>2019-07-09T09:12:44Z</time>
      </trkpt>
      <trkpt lat="39.7428420" lon="-5.6460080">
        <ele>386.2</ele>
        <time>2019-07-09T09:12:49Z</time>
      </trkpt>
      <trkpt lat="39.7428270" lon="-5.6460350">
        <ele>386.4</ele>
        <time>2019-07-09T09:12:50Z</time>
      </trkpt>
      <trkpt lat="39.7428050" lon="-5.6461270">
        <ele>387.4</ele>
        <time>2019-07-09T09:12:53Z</time>
      </trkpt>
      <trkpt lat="39.7428040" lon="-5.6461590">
        <ele>387.8</ele>
        <time>2019-07-09T09:12:54Z</time>
      </trkpt>
      <trkpt lat="39.7427920" lon="-5.6462140">
        <ele>388.6</ele>
        <time>2019-07-09T09:12:56Z</time>
      </trkpt>
      <trkpt lat="39.7427680" lon="-5.6462900">
        <ele>389.2</ele>
        <time>2019-07-09T09:12:59Z</time>
      </trkpt>
      <trkpt lat="39.7427610" lon="-5.6463180">
        <ele>389.6</ele>
        <time>2019-07-09T09:13:00Z</time>
      </trkpt>
      <trkpt lat="39.7426960" lon="-5.6464420">
        <ele>390.8</ele>
        <time>2019-07-09T09:13:05Z</time>
      </trkpt>
      <trkpt lat="39.7426240" lon="-5.6465250">
        <ele>391.8</ele>
        <time>2019-07-09T09:13:09Z</time>
      </trkpt>
      <trkpt lat="39.7425600" lon="-5.6465780">
        <ele>392.2</ele>
        <time>2019-07-09T09:13:12Z</time>
      </trkpt>
      <trkpt lat="39.7424900" lon="-5.6466110">
        <ele>392.8</ele>
        <time>2019-07-09T09:13:15Z</time>
      </trkpt>
      <trkpt lat="39.7423800" lon="-5.6466800">
        <ele>394.0</ele>
        <time>2019-07-09T09:13:20Z</time>
      </trkpt>
      <trkpt lat="39.7423570" lon="-5.6466930">
        <ele>394.4</ele>
        <time>2019-07-09T09:13:21Z</time>
      </trkpt>
      <trkpt lat="39.7422880" lon="-5.6467260">
        <ele>395.2</ele>
        <time>2019-07-09T09:13:24Z</time>
      </trkpt>
      <trkpt lat="39.7421850" lon="-5.6467610">
        <ele>396.4</ele>
        <time>2019-07-09T09:13:28Z</time>
      </trkpt>
      <trkpt lat="39.7420780" lon="-5.6468000">
        <ele>397.4</ele>
        <time>2019-07-09T09:13:32Z</time>
      </trkpt>
      <trkpt lat="39.7420230" lon="-5.6468120">
        <ele>398.0</ele>
        <time>2019-07-09T09:13:34Z</time>
      </trkpt>
      <trkpt lat="39.7419370" lon="-5.6468360">
        <ele>398.6</ele>
        <time>2019-07-09T09:13:37Z</time>
      </trkpt>
      <trkpt lat="39.7418280" lon="-5.6468670">
        <ele>399.8</ele>
        <time>2019-07-09T09:13:41Z</time>
      </trkpt>
      <trkpt lat="39.7417990" lon="-5.6468790">
        <ele>400.0</ele>
        <time>2019-07-09T09:13:42Z</time>
      </trkpt>
      <trkpt lat="39.7416870" lon="-5.6469230">
        <ele>401.0</ele>
        <time>2019-07-09T09:13:46Z</time>
      </trkpt>
      <trkpt lat="39.7415730" lon="-5.6469590">
        <ele>402.2</ele>
        <time>2019-07-09T09:13:50Z</time>
      </trkpt>
      <trkpt lat="39.7415420" lon="-5.6469660">
        <ele>402.4</ele>
        <time>2019-07-09T09:13:51Z</time>
      </trkpt>
      <trkpt lat="39.7414200" lon="-5.6469990">
        <ele>403.2</ele>
        <time>2019-07-09T09:13:55Z</time>
      </trkpt>
      <trkpt lat="39.7413040" lon="-5.6470410">
        <ele>404.0</ele>
        <time>2019-07-09T09:13:59Z</time>
      </trkpt>
      <trkpt lat="39.7412460" lon="-5.6470630">
        <ele>404.2</ele>
        <time>2019-07-09T09:14:01Z</time>
      </trkpt>
      <trkpt lat="39.7411160" lon="-5.6471160">
        <ele>405.4</ele>
        <time>2019-07-09T09:14:06Z</time>
      </trkpt>
      <trkpt lat="39.7410240" lon="-5.6471610">
        <ele>406.4</ele>
        <time>2019-07-09T09:14:10Z</time>
      </trkpt>
      <trkpt lat="39.7409610" lon="-5.6472040">
        <ele>407.6</ele>
        <time>2019-07-09T09:14:13Z</time>
      </trkpt>
      <trkpt lat="39.7408760" lon="-5.6472550">
        <ele>408.6</ele>
        <time>2019-07-09T09:14:17Z</time>
      </trkpt>
      <trkpt lat="39.7408110" lon="-5.6472900">
        <ele>409.8</ele>
        <time>2019-07-09T09:14:20Z</time>
      </trkpt>
      <trkpt lat="39.7407060" lon="-5.6473540">
        <ele>410.8</ele>
        <time>2019-07-09T09:14:25Z</time>
      </trkpt>
      <trkpt lat="39.7406640" lon="-5.6473760">
        <ele>411.6</ele>
        <time>2019-07-09T09:14:27Z</time>
      </trkpt>
      <trkpt lat="39.7406250" lon="-5.6474000">
        <ele>412.0</ele>
        <time>2019-07-09T09:14:29Z</time>
      </trkpt>
      <trkpt lat="39.7405280" lon="-5.6474710">
        <ele>413.0</ele>
        <time>2019-07-09T09:14:34Z</time>
      </trkpt>
      <trkpt lat="39.7405100" lon="-5.6474880">
        <ele>413.2</ele>
        <time>2019-07-09T09:14:35Z</time>
      </trkpt>
      <trkpt lat="39.7404590" lon="-5.6475420">
        <ele>414.0</ele>
        <time>2019-07-09T09:14:38Z</time>
      </trkpt>
      <trkpt lat="39.7403920" lon="-5.6476550">
        <ele>414.8</ele>
        <time>2019-07-09T09:14:43Z</time>
      </trkpt>
      <trkpt lat="39.7403810" lon="-5.6476810">
        <ele>415.0</ele>
        <time>2019-07-09T09:14:44Z</time>
      </trkpt>
      <trkpt lat="39.7403570" lon="-5.6478040">
        <ele>416.0</ele>
        <time>2019-07-09T09:14:48Z</time>
      </trkpt>
      <trkpt lat="39.7403480" lon="-5.6478710">
        <ele>416.4</ele>
        <time>2019-07-09T09:14:50Z</time>
      </trkpt>
      <trkpt lat="39.7403130" lon="-5.6480360">
        <ele>417.2</ele>
        <time>2019-07-09T09:14:55Z</time>
      </trkpt>
      <trkpt lat="39.7402970" lon="-5.6481050">
        <ele>417.4</ele>
        <time>2019-07-09T09:14:57Z</time>
      </trkpt>
      <trkpt lat="39.7402730" lon="-5.6482390">
        <ele>418.4</ele>
        <time>2019-07-09T09:15:01Z</time>
      </trkpt>
      <trkpt lat="39.7402600" lon="-5.6483310">
        <ele>419.0</ele>
        <time>2019-07-09T09:15:04Z</time>
      </trkpt>
      <trkpt lat="39.7402440" lon="-5.6484240">
        <ele>419.6</ele>
        <time>2019-07-09T09:15:07Z</time>
      </trkpt>
      <trkpt lat="39.7402330" lon="-5.6485150">
        <ele>420.4</ele>
        <time>2019-07-09T09:15:10Z</time>
      </trkpt>
      <trkpt lat="39.7402260" lon="-5.6485440">
        <ele>420.6</ele>
        <time>2019-07-09T09:15:11Z</time>
      </trkpt>
      <trkpt lat="39.7401970" lon="-5.6486620">
        <ele>421.8</ele>
        <time>2019-07-09T09:15:15Z</time>
      </trkpt>
      <trkpt lat="39.7401870" lon="-5.6486910">
        <ele>422.2</ele>
        <time>2019-07-09T09:15:16Z</time>
      </trkpt>
      <trkpt lat="39.7401510" lon="-5.6487780">
        <ele>422.8</ele>
        <time>2019-07-09T09:15:19Z</time>
      </trkpt>
      <trkpt lat="39.7400960" lon="-5.6489300">
        <ele>424.0</ele>
        <time>2019-07-09T09:15:24Z</time>
      </trkpt>
      <trkpt lat="39.7400000" lon="-5.6491330">
        <ele>425.2</ele>
        <time>2019-07-09T09:15:31Z</time>
      </trkpt>
      <trkpt lat="39.7399190" lon="-5.6492700">
        <ele>426.4</ele>
        <time>2019-07-09T09:15:36Z</time>
      </trkpt>
      <trkpt lat="39.7398720" lon="-5.6493510">
        <ele>427.0</ele>
        <time>2019-07-09T09:15:39Z</time>
      </trkpt>
      <trkpt lat="39.7398230" lon="-5.6494340">
        <ele>427.4</ele>
        <time>2019-07-09T09:15:42Z</time>
      </trkpt>
      <trkpt lat="39.7397300" lon="-5.6495850">
        <ele>428.6</ele>
        <time>2019-07-09T09:15:47Z</time>
      </trkpt>
      <trkpt lat="39.7396370" lon="-5.6497450">
        <ele>429.8</ele>
        <time>2019-07-09T09:15:52Z</time>
      </trkpt>
      <trkpt lat="39.7395840" lon="-5.6498460">
        <ele>430.4</ele>
        <time>2019-07-09T09:15:55Z</time>
      </trkpt>
      <trkpt lat="39.7395680" lon="-5.6498820">
        <ele>431.0</ele>
        <time>2019-07-09T09:15:56Z</time>
      </trkpt>
      <trkpt lat="39.7394910" lon="-5.6501080">
        <ele>432.0</ele>
        <time>2019-07-09T09:16:02Z</time>
      </trkpt>
      <trkpt lat="39.7394730" lon="-5.6501900">
        <ele>432.4</ele>
        <time>2019-07-09T09:16:04Z</time>
      </trkpt>
      <trkpt lat="39.7394780" lon="-5.6504600">
        <ele>433.0</ele>
        <time>2019-07-09T09:16:10Z</time>
      </trkpt>
      <trkpt lat="39.7394870" lon="-5.6505070">
        <ele>433.0</ele>
        <time>2019-07-09T09:16:11Z</time>
      </trkpt>
      <trkpt lat="39.7395370" lon="-5.6508080">
        <ele>433.2</ele>
        <time>2019-07-09T09:16:17Z</time>
      </trkpt>
      <trkpt lat="39.7395560" lon="-5.6509080">
        <ele>433.4</ele>
        <time>2019-07-09T09:16:19Z</time>
      </trkpt>
      <trkpt lat="39.7395760" lon="-5.6510080">
        <ele>433.4</ele>
        <time>2019-07-09T09:16:21Z</time>
      </trkpt>
      <trkpt lat="39.7396100" lon="-5.6511590">
        <ele>433.4</ele>
        <time>2019-07-09T09:16:24Z</time>
      </trkpt>
      <trkpt lat="39.7396240" lon="-5.6512110">
        <ele>433.4</ele>
        <time>2019-07-09T09:16:25Z</time>
      </trkpt>
      <trkpt lat="39.7396590" lon="-5.6513100">
        <ele>433.6</ele>
        <time>2019-07-09T09:16:27Z</time>
      </trkpt>
      <trkpt lat="39.7397020" lon="-5.6514100">
        <ele>433.6</ele>
        <time>2019-07-09T09:16:29Z</time>
      </trkpt>
      <trkpt lat="39.7397450" lon="-5.6515120">
        <ele>433.6</ele>
        <time>2019-07-09T09:16:31Z</time>
      </trkpt>
      <trkpt lat="39.7398100" lon="-5.6516560">
        <ele>433.4</ele>
        <time>2019-07-09T09:16:34Z</time>
      </trkpt>
      <trkpt lat="39.7399200" lon="-5.6519010">
        <ele>433.6</ele>
        <time>2019-07-09T09:16:39Z</time>
      </trkpt>
      <trkpt lat="39.7399820" lon="-5.6520380">
        <ele>433.8</ele>
        <time>2019-07-09T09:16:42Z</time>
      </trkpt>
      <trkpt lat="39.7402440" lon="-5.6524790">
        <ele>434.0</ele>
        <time>2019-07-09T09:16:52Z</time>
      </trkpt>
      <trkpt lat="39.7402740" lon="-5.6525300">
        <ele>434.0</ele>
        <time>2019-07-09T09:16:53Z</time>
      </trkpt>
      <trkpt lat="39.7403930" lon="-5.6527740">
        <ele>433.8</ele>
        <time>2019-07-09T09:16:57Z</time>
      </trkpt>
      <trkpt lat="39.7404860" lon="-5.6530010">
        <ele>433.0</ele>
        <time>2019-07-09T09:17:00Z</time>
      </trkpt>
      <trkpt lat="39.7405420" lon="-5.6531830">
        <ele>432.4</ele>
        <time>2019-07-09T09:17:02Z</time>
      </trkpt>
      <trkpt lat="39.7405690" lon="-5.6532800">
        <ele>432.0</ele>
        <time>2019-07-09T09:17:03Z</time>
      </trkpt>
      <trkpt lat="39.7406150" lon="-5.6534840">
        <ele>431.0</ele>
        <time>2019-07-09T09:17:05Z</time>
      </trkpt>
      <trkpt lat="39.7406320" lon="-5.6535900">
        <ele>430.8</ele>
        <time>2019-07-09T09:17:06Z</time>
      </trkpt>
      <trkpt lat="39.7406430" lon="-5.6536970">
        <ele>430.2</ele>
        <time>2019-07-09T09:17:07Z</time>
      </trkpt>
      <trkpt lat="39.7406550" lon="-5.6539120">
        <ele>429.4</ele>
        <time>2019-07-09T09:17:09Z</time>
      </trkpt>
      <trkpt lat="39.7406510" lon="-5.6541230">
        <ele>429.0</ele>
        <time>2019-07-09T09:17:11Z</time>
      </trkpt>
      <trkpt lat="39.7406390" lon="-5.6542240">
        <ele>428.6</ele>
        <time>2019-07-09T09:17:12Z</time>
      </trkpt>
      <trkpt lat="39.7405980" lon="-5.6544130">
        <ele>428.2</ele>
        <time>2019-07-09T09:17:14Z</time>
      </trkpt>
      <trkpt lat="39.7405450" lon="-5.6545810">
        <ele>428.0</ele>
        <time>2019-07-09T09:17:16Z</time>
      </trkpt>
      <trkpt lat="39.7404900" lon="-5.6547320">
        <ele>428.4</ele>
        <time>2019-07-09T09:17:18Z</time>
      </trkpt>
      <trkpt lat="39.7404160" lon="-5.6549240">
        <ele>428.8</ele>
        <time>2019-07-09T09:17:21Z</time>
      </trkpt>
      <trkpt lat="39.7403770" lon="-5.6550320">
        <ele>429.4</ele>
        <time>2019-07-09T09:17:23Z</time>
      </trkpt>
      <trkpt lat="39.7403020" lon="-5.6552050">
        <ele>430.8</ele>
        <time>2019-07-09T09:17:27Z</time>
      </trkpt>
      <trkpt lat="39.7402770" lon="-5.6552840">
        <ele>431.2</ele>
        <time>2019-07-09T09:17:29Z</time>
      </trkpt>
      <trkpt lat="39.7402500" lon="-5.6553590">
        <ele>432.0</ele>
        <time>2019-07-09T09:17:31Z</time>
      </trkpt>
      <trkpt lat="39.7402170" lon="-5.6554320">
        <ele>433.0</ele>
        <time>2019-07-09T09:17:33Z</time>
      </trkpt>
      <trkpt lat="39.7402000" lon="-5.6554690">
        <ele>433.4</ele>
        <time>2019-07-09T09:17:34Z</time>
      </trkpt>
      <trkpt lat="39.7401690" lon="-5.6555440">
        <ele>434.2</ele>
        <time>2019-07-09T09:17:36Z</time>
      </trkpt>
      <trkpt lat="39.7401560" lon="-5.6555820">
        <ele>434.4</ele>
        <time>2019-07-09T09:17:37Z</time>
      </trkpt>
      <trkpt lat="39.7401300" lon="-5.6556550">
        <ele>435.2</ele>
        <time>2019-07-09T09:17:39Z</time>
      </trkpt>
      <trkpt lat="39.7401170" lon="-5.6556900">
        <ele>435.6</ele>
        <time>2019-07-09T09:17:40Z</time>
      </trkpt>
      <trkpt lat="39.7400900" lon="-5.6557650">
        <ele>436.4</ele>
        <time>2019-07-09T09:17:42Z</time>
      </trkpt>
      <trkpt lat="39.7400770" lon="-5.6558020">
        <ele>436.8</ele>
        <time>2019-07-09T09:17:43Z</time>
      </trkpt>
      <trkpt lat="39.7400550" lon="-5.6558720">
        <ele>437.4</ele>
        <time>2019-07-09T09:17:45Z</time>
      </trkpt>
      <trkpt lat="39.7400440" lon="-5.6559060">
        <ele>437.8</ele>
        <time>2019-07-09T09:17:46Z</time>
      </trkpt>
      <trkpt lat="39.7400040" lon="-5.6560010">
        <ele>438.8</ele>
        <time>2019-07-09T09:17:49Z</time>
      </trkpt>
      <trkpt lat="39.7399900" lon="-5.6560320">
        <ele>439.0</ele>
        <time>2019-07-09T09:17:50Z</time>
      </trkpt>
      <trkpt lat="39.7399530" lon="-5.6561220">
        <ele>440.0</ele>
        <time>2019-07-09T09:17:53Z</time>
      </trkpt>
      <trkpt lat="39.7399160" lon="-5.6562070">
        <ele>441.0</ele>
        <time>2019-07-09T09:17:56Z</time>
      </trkpt>
      <trkpt lat="39.7399070" lon="-5.6562360">
        <ele>441.2</ele>
        <time>2019-07-09T09:17:57Z</time>
      </trkpt>
      <trkpt lat="39.7398990" lon="-5.6562640">
        <ele>441.4</ele>
        <time>2019-07-09T09:17:58Z</time>
      </trkpt>
      <trkpt lat="39.7398700" lon="-5.6563560">
        <ele>442.0</ele>
        <time>2019-07-09T09:18:01Z</time>
      </trkpt>
      <trkpt lat="39.7398560" lon="-5.6563840">
        <ele>442.2</ele>
        <time>2019-07-09T09:18:02Z</time>
      </trkpt>
      <trkpt lat="39.7398150" lon="-5.6564650">
        <ele>442.8</ele>
        <time>2019-07-09T09:18:05Z</time>
      </trkpt>
      <trkpt lat="39.7397140" lon="-5.6566050">
        <ele>443.4</ele>
        <time>2019-07-09T09:18:10Z</time>
      </trkpt>
      <trkpt lat="39.7396890" lon="-5.6566390">
        <ele>443.4</ele>
        <time>2019-07-09T09:18:11Z</time>
      </trkpt>
      <trkpt lat="39.7395730" lon="-5.6567700">
        <ele>443.4</ele>
        <time>2019-07-09T09:18:15Z</time>
      </trkpt>
      <trkpt lat="39.7394940" lon="-5.6568300">
        <ele>443.4</ele>
        <time>2019-07-09T09:18:17Z</time>
      </trkpt>
      <trkpt lat="39.7392910" lon="-5.6569740">
        <ele>442.2</ele>
        <time>2019-07-09T09:18:21Z</time>
      </trkpt>
      <trkpt lat="39.7392310" lon="-5.6570150">
        <ele>442.0</ele>
        <time>2019-07-09T09:18:22Z</time>
      </trkpt>
      <trkpt lat="39.7391030" lon="-5.6571010">
        <ele>441.2</ele>
        <time>2019-07-09T09:18:24Z</time>
      </trkpt>
      <trkpt lat="39.7390350" lon="-5.6571460">
        <ele>440.8</ele>
        <time>2019-07-09T09:18:25Z</time>
      </trkpt>
      <trkpt lat="39.7389640" lon="-5.6571950">
        <ele>440.4</ele>
        <time>2019-07-09T09:18:26Z</time>
      </trkpt>
      <trkpt lat="39.7388150" lon="-5.6572990">
        <ele>439.6</ele>
        <time>2019-07-09T09:18:28Z</time>
      </trkpt>
      <trkpt lat="39.7386540" lon="-5.6574080">
        <ele>438.2</ele>
        <time>2019-07-09T09:18:30Z</time>
      </trkpt>
      <trkpt lat="39.7384830" lon="-5.6575280">
        <ele>436.8</ele>
        <time>2019-07-09T09:18:32Z</time>
      </trkpt>
      <trkpt lat="39.7383930" lon="-5.6575930">
        <ele>436.2</ele>
        <time>2019-07-09T09:18:33Z</time>
      </trkpt>
      <trkpt lat="39.7383010" lon="-5.6576580">
        <ele>435.6</ele>
        <time>2019-07-09T09:18:34Z</time>
      </trkpt>
      <trkpt lat="39.7381090" lon="-5.6577870">
        <ele>434.6</ele>
        <time>2019-07-09T09:18:36Z</time>
      </trkpt>
      <trkpt lat="39.7380080" lon="-5.6578470">
        <ele>433.4</ele>
        <time>2019-07-09T09:18:37Z</time>
      </trkpt>
      <trkpt lat="39.7378020" lon="-5.6579630">
        <ele>431.8</ele>
        <time>2019-07-09T09:18:39Z</time>
      </trkpt>
      <trkpt lat="39.7376990" lon="-5.6580160">
        <ele>431.2</ele>
        <time>2019-07-09T09:18:40Z</time>
      </trkpt>
      <trkpt lat="39.7375930" lon="-5.6580630">
        <ele>430.6</ele>
        <time>2019-07-09T09:18:41Z</time>
      </trkpt>
      <trkpt lat="39.7372700" lon="-5.6581830">
        <ele>429.0</ele>
        <time>2019-07-09T09:18:44Z</time>
      </trkpt>
      <trkpt lat="39.7370600" lon="-5.6582590">
        <ele>428.2</ele>
        <time>2019-07-09T09:18:46Z</time>
      </trkpt>
      <trkpt lat="39.7369560" lon="-5.6582950">
        <ele>427.6</ele>
        <time>2019-07-09T09:18:47Z</time>
      </trkpt>
      <trkpt lat="39.7367480" lon="-5.6583700">
        <ele>426.8</ele>
        <time>2019-07-09T09:18:49Z</time>
      </trkpt>
      <trkpt lat="39.7366430" lon="-5.6584070">
        <ele>426.2</ele>
        <time>2019-07-09T09:18:50Z</time>
      </trkpt>
      <trkpt lat="39.7363230" lon="-5.6585040">
        <ele>424.6</ele>
        <time>2019-07-09T09:18:53Z</time>
      </trkpt>
      <trkpt lat="39.7362140" lon="-5.6585270">
        <ele>424.0</ele>
        <time>2019-07-09T09:18:54Z</time>
      </trkpt>
      <trkpt lat="39.7361060" lon="-5.6585450">
        <ele>423.4</ele>
        <time>2019-07-09T09:18:55Z</time>
      </trkpt>
      <trkpt lat="39.7357010" lon="-5.6585660">
        <ele>422.4</ele>
        <time>2019-07-09T09:18:59Z</time>
      </trkpt>
      <trkpt lat="39.7354610" lon="-5.6585160">
        <ele>423.0</ele>
        <time>2019-07-09T09:19:02Z</time>
      </trkpt>
      <trkpt lat="39.7353940" lon="-5.6584940">
        <ele>423.4</ele>
        <time>2019-07-09T09:19:03Z</time>
      </trkpt>
      <trkpt lat="39.7351630" lon="-5.6584220">
        <ele>424.6</ele>
        <time>2019-07-09T09:19:07Z</time>
      </trkpt>
      <trkpt lat="39.7350620" lon="-5.6583890">
        <ele>425.0</ele>
        <time>2019-07-09T09:19:09Z</time>
      </trkpt>
      <trkpt lat="39.7349650" lon="-5.6583680">
        <ele>425.0</ele>
        <time>2019-07-09T09:19:11Z</time>
      </trkpt>
      <trkpt lat="39.7348670" lon="-5.6583860">
        <ele>425.2</ele>
        <time>2019-07-09T09:19:13Z</time>
      </trkpt>
      <trkpt lat="39.7347770" lon="-5.6584430">
        <ele>425.4</ele>
        <time>2019-07-09T09:19:15Z</time>
      </trkpt>
      <trkpt lat="39.7347340" lon="-5.6584780">
        <ele>425.4</ele>
        <time>2019-07-09T09:19:16Z</time>
      </trkpt>
      <trkpt lat="39.7346890" lon="-5.6585140">
        <ele>425.4</ele>
        <time>2019-07-09T09:19:17Z</time>
      </trkpt>
      <trkpt lat="39.7344040" lon="-5.6587390">
        <ele>425.2</ele>
        <time>2019-07-09T09:19:23Z</time>
      </trkpt>
      <trkpt lat="39.7343110" lon="-5.6588220">
        <ele>425.2</ele>
        <time>2019-07-09T09:19:25Z</time>
      </trkpt>
      <trkpt lat="39.7339340" lon="-5.6591140">
        <ele>425.4</ele>
        <time>2019-07-09T09:19:33Z</time>
      </trkpt>
      <trkpt lat="39.7338550" lon="-5.6591860">
        <ele>425.6</ele>
        <time>2019-07-09T09:19:35Z</time>
      </trkpt>
      <trkpt lat="39.7336250" lon="-5.6593700">
        <ele>426.4</ele>
        <time>2019-07-09T09:19:41Z</time>
      </trkpt>
      <trkpt lat="39.7335510" lon="-5.6594250">
        <ele>426.8</ele>
        <time>2019-07-09T09:19:43Z</time>
      </trkpt>
      <trkpt lat="39.7334400" lon="-5.6595150">
        <ele>427.2</ele>
        <time>2019-07-09T09:19:46Z</time>
      </trkpt>
      <trkpt lat="39.7333170" lon="-5.6596100">
        <ele>427.4</ele>
        <time>2019-07-09T09:19:49Z</time>
      </trkpt>
      <trkpt lat="39.7331880" lon="-5.6597020">
        <ele>427.4</ele>
        <time>2019-07-09T09:19:52Z</time>
      </trkpt>
      <trkpt lat="39.7329490" lon="-5.6598770">
        <ele>427.0</ele>
        <time>2019-07-09T09:19:57Z</time>
      </trkpt>
      <trkpt lat="39.7325520" lon="-5.6600930">
        <ele>426.6</ele>
        <time>2019-07-09T09:20:04Z</time>
      </trkpt>
      <trkpt lat="39.7324260" lon="-5.6601440">
        <ele>426.2</ele>
        <time>2019-07-09T09:20:06Z</time>
      </trkpt>
      <trkpt lat="39.7322950" lon="-5.6601860">
        <ele>426.0</ele>
        <time>2019-07-09T09:20:08Z</time>
      </trkpt>
      <trkpt lat="39.7322310" lon="-5.6602040">
        <ele>425.6</ele>
        <time>2019-07-09T09:20:09Z</time>
      </trkpt>
      <trkpt lat="39.7321680" lon="-5.6602230">
        <ele>425.6</ele>
        <time>2019-07-09T09:20:10Z</time>
      </trkpt>
      <trkpt lat="39.7320460" lon="-5.6602670">
        <ele>425.4</ele>
        <time>2019-07-09T09:20:12Z</time>
      </trkpt>
      <trkpt lat="39.7319270" lon="-5.6603190">
        <ele>425.2</ele>
        <time>2019-07-09T09:20:14Z</time>
      </trkpt>
      <trkpt lat="39.7316950" lon="-5.6604440">
        <ele>425.0</ele>
        <time>2019-07-09T09:20:18Z</time>
      </trkpt>
      <trkpt lat="39.7313240" lon="-5.6607290">
        <ele>424.8</ele>
        <time>2019-07-09T09:20:25Z</time>
      </trkpt>
      <trkpt lat="39.7311120" lon="-5.6608360">
        <ele>425.2</ele>
        <time>2019-07-09T09:20:29Z</time>
      </trkpt>
      <trkpt lat="39.7310570" lon="-5.6608480">
        <ele>425.2</ele>
        <time>2019-07-09T09:20:30Z</time>
      </trkpt>
      <trkpt lat="39.7308940" lon="-5.6608790">
        <ele>425.6</ele>
        <time>2019-07-09T09:20:33Z</time>
      </trkpt>
      <trkpt lat="39.7305710" lon="-5.6609360">
        <ele>426.8</ele>
        <time>2019-07-09T09:20:39Z</time>
      </trkpt>
      <trkpt lat="39.7302070" lon="-5.6609960">
        <ele>427.0</ele>
        <time>2019-07-09T09:20:46Z</time>
      </trkpt>
      <trkpt lat="39.7301060" lon="-5.6610240">
        <ele>427.0</ele>
        <time>2019-07-09T09:20:48Z</time>
      </trkpt>
      <trkpt lat="39.7296990" lon="-5.6611640">
        <ele>427.8</ele>
        <time>2019-07-09T09:20:56Z</time>
      </trkpt>
      <trkpt lat="39.7296000" lon="-5.6612070">
        <ele>428.0</ele>
        <time>2019-07-09T09:20:58Z</time>
      </trkpt>
      <trkpt lat="39.7293150" lon="-5.6613130">
        <ele>428.4</ele>
        <time>2019-07-09T09:21:04Z</time>
      </trkpt>
      <trkpt lat="39.7289500" lon="-5.6614860">
        <ele>429.0</ele>
        <time>2019-07-09T09:21:12Z</time>
      </trkpt>
      <trkpt lat="39.7287670" lon="-5.6616810">
        <ele>429.6</ele>
        <time>2019-07-09T09:21:17Z</time>
      </trkpt>
      <trkpt lat="39.7287370" lon="-5.6617290">
        <ele>430.0</ele>
        <time>2019-07-09T09:21:18Z</time>
      </trkpt>
      <trkpt lat="39.7287090" lon="-5.6617780">
        <ele>430.0</ele>
        <time>2019-07-09T09:21:19Z</time>
      </trkpt>
      <trkpt lat="39.7286330" lon="-5.6619310">
        <ele>430.4</ele>
        <time>2019-07-09T09:21:22Z</time>
      </trkpt>
      <trkpt lat="39.7285810" lon="-5.6620890">
        <ele>430.6</ele>
        <time>2019-07-09T09:21:25Z</time>
      </trkpt>
      <trkpt lat="39.7285440" lon="-5.6621870">
        <ele>431.0</ele>
        <time>2019-07-09T09:21:27Z</time>
      </trkpt>
      <trkpt lat="39.7285290" lon="-5.6622350">
        <ele>431.2</ele>
        <time>2019-07-09T09:21:28Z</time>
      </trkpt>
      <trkpt lat="39.7284650" lon="-5.6624140">
        <ele>431.6</ele>
        <time>2019-07-09T09:21:32Z</time>
      </trkpt>
      <trkpt lat="39.7283900" lon="-5.6626220">
        <ele>432.4</ele>
        <time>2019-07-09T09:21:37Z</time>
      </trkpt>
      <trkpt lat="39.7283280" lon="-5.6627910">
        <ele>432.6</ele>
        <time>2019-07-09T09:21:41Z</time>
      </trkpt>
      <trkpt lat="39.7282790" lon="-5.6629230">
        <ele>433.2</ele>
        <time>2019-07-09T09:21:44Z</time>
      </trkpt>
      <trkpt lat="39.7282610" lon="-5.6629670">
        <ele>433.4</ele>
        <time>2019-07-09T09:21:45Z</time>
      </trkpt>
      <trkpt lat="39.7282080" lon="-5.6630980">
        <ele>434.0</ele>
        <time>2019-07-09T09:21:48Z</time>
      </trkpt>
      <trkpt lat="39.7281900" lon="-5.6631430">
        <ele>434.0</ele>
        <time>2019-07-09T09:21:49Z</time>
      </trkpt>
      <trkpt lat="39.7281570" lon="-5.6632320">
        <ele>434.4</ele>
        <time>2019-07-09T09:21:51Z</time>
      </trkpt>
      <trkpt lat="39.7280850" lon="-5.6634370">
        <ele>435.2</ele>
        <time>2019-07-09T09:21:56Z</time>
      </trkpt>
      <trkpt lat="39.7280720" lon="-5.6634750">
        <ele>435.4</ele>
        <time>2019-07-09T09:21:57Z</time>
      </trkpt>
      <trkpt lat="39.7280580" lon="-5.6635130">
        <ele>435.8</ele>
        <time>2019-07-09T09:21:58Z</time>
      </trkpt>
      <trkpt lat="39.7279460" lon="-5.6638280">
        <ele>436.8</ele>
        <time>2019-07-09T09:22:06Z</time>
      </trkpt>
      <trkpt lat="39.7278910" lon="-5.6640560">
        <ele>436.8</ele>
        <time>2019-07-09T09:22:11Z</time>
      </trkpt>
      <trkpt lat="39.7278550" lon="-5.6642540">
        <ele>437.0</ele>
        <time>2019-07-09T09:22:15Z</time>
      </trkpt>
      <trkpt lat="39.7278140" lon="-5.6644660">
        <ele>437.2</ele>
        <time>2019-07-09T09:22:19Z</time>
      </trkpt>
      <trkpt lat="39.7277540" lon="-5.6647240">
        <ele>437.4</ele>
        <time>2019-07-09T09:22:24Z</time>
      </trkpt>
      <trkpt lat="39.7276770" lon="-5.6650790">
        <ele>437.8</ele>
        <time>2019-07-09T09:22:31Z</time>
      </trkpt>
      <trkpt lat="39.7276660" lon="-5.6651290">
        <ele>437.8</ele>
        <time>2019-07-09T09:22:32Z</time>
      </trkpt>
      <trkpt lat="39.7275800" lon="-5.6654570">
        <ele>438.6</ele>
        <time>2019-07-09T09:22:39Z</time>
      </trkpt>
      <trkpt lat="39.7275530" lon="-5.6655420">
        <ele>438.8</ele>
        <time>2019-07-09T09:22:41Z</time>
      </trkpt>
      <trkpt lat="39.7274790" lon="-5.6657550">
        <ele>439.8</ele>
        <time>2019-07-09T09:22:46Z</time>
      </trkpt>
      <trkpt lat="39.7273550" lon="-5.6660730">
        <ele>441.0</ele>
        <time>2019-07-09T09:22:54Z</time>
      </trkpt>
      <trkpt lat="39.7273160" lon="-5.6661830">
        <ele>441.6</ele>
        <time>2019-07-09T09:22:57Z</time>
      </trkpt>
      <trkpt lat="39.7273160" lon="-5.6661830">
        <ele>442.0</ele>
        <time>2019-07-09T09:46:23Z</time>
      </trkpt>
      <trkpt lat="39.7273160" lon="-5.6661830">
        <ele>442.0</ele>
        <time>2019-07-09T09:46:24Z</time>
      </trkpt>
      <trkpt lat="39.7273160" lon="-5.6661830">
        <ele>442.0</ele>
        <time>2019-07-09T09:46:25Z</time>
      </trkpt>
      <trkpt lat="39.7272910" lon="-5.6662790">
        <ele>441.8</ele>
        <time>2019-07-09T09:47:09Z</time>
      </trkpt>
      <trkpt lat="39.7273180" lon="-5.6662340">
        <ele>441.8</ele>
        <time>2019-07-09T09:47:11Z</time>
      </trkpt>
      <trkpt lat="39.7273460" lon="-5.6661950">
        <ele>441.6</ele>
        <time>2019-07-09T09:47:13Z</time>
      </trkpt>
      <trkpt lat="39.7273670" lon="-5.6660900">
        <ele>441.2</ele>
        <time>2019-07-09T09:47:15Z</time>
      </trkpt>
      <trkpt lat="39.7273710" lon="-5.6660570">
        <ele>441.0</ele>
        <time>2019-07-09T09:47:17Z</time>
      </trkpt>
      <trkpt lat="39.7273730" lon="-5.6660240">
        <ele>441.0</ele>
        <time>2019-07-09T09:47:19Z</time>
      </trkpt>
      <trkpt lat="39.7274020" lon="-5.6660410">
        <ele>440.8</ele>
        <time>2019-07-09T09:47:21Z</time>
      </trkpt>
      <trkpt lat="39.7274040" lon="-5.6660640">
        <ele>441.0</ele>
        <time>2019-07-09T09:47:22Z</time>
      </trkpt>
      <trkpt lat="39.7273800" lon="-5.6661230">
        <ele>440.8</ele>
        <time>2019-07-09T09:47:25Z</time>
      </trkpt>
      <trkpt lat="39.7273630" lon="-5.6661600">
        <ele>441.0</ele>
        <time>2019-07-09T09:47:27Z</time>
      </trkpt>
      <trkpt lat="39.7273510" lon="-5.6661940">
        <ele>441.0</ele>
        <time>2019-07-09T09:47:29Z</time>
      </trkpt>
      <trkpt lat="39.7273460" lon="-5.6662110">
        <ele>441.0</ele>
        <time>2019-07-09T09:47:30Z</time>
      </trkpt>
      <trkpt lat="39.7273340" lon="-5.6662270">
        <ele>441.2</ele>
        <time>2019-07-09T09:47:31Z</time>
      </trkpt>
      <trkpt lat="39.7273200" lon="-5.6662460">
        <ele>441.2</ele>
        <time>2019-07-09T09:47:32Z</time>
      </trkpt>
      <trkpt lat="39.7272810" lon="-5.6663090">
        <ele>441.4</ele>
        <time>2019-07-09T09:47:35Z</time>
      </trkpt>
      <trkpt lat="39.7272550" lon="-5.6663620">
        <ele>441.4</ele>
        <time>2019-07-09T09:47:37Z</time>
      </trkpt>
      <trkpt lat="39.7272330" lon="-5.6664130">
        <ele>441.8</ele>
        <time>2019-07-09T09:47:39Z</time>
      </trkpt>
      <trkpt lat="39.7272050" lon="-5.6664840">
        <ele>442.0</ele>
        <time>2019-07-09T09:47:42Z</time>
      </trkpt>
      <trkpt lat="39.7271720" lon="-5.6665280">
        <ele>442.4</ele>
        <time>2019-07-09T09:47:44Z</time>
      </trkpt>
      <trkpt lat="39.7271360" lon="-5.6665810">
        <ele>442.6</ele>
        <time>2019-07-09T09:47:46Z</time>
      </trkpt>
      <trkpt lat="39.7270820" lon="-5.6666680">
        <ele>442.8</ele>
        <time>2019-07-09T09:47:49Z</time>
      </trkpt>
      <trkpt lat="39.7270500" lon="-5.6667250">
        <ele>443.2</ele>
        <time>2019-07-09T09:47:51Z</time>
      </trkpt>
      <trkpt lat="39.7270360" lon="-5.6667520">
        <ele>443.4</ele>
        <time>2019-07-09T09:47:52Z</time>
      </trkpt>
      <trkpt lat="39.7270210" lon="-5.6668170">
        <ele>443.4</ele>
        <time>2019-07-09T09:47:54Z</time>
      </trkpt>
      <trkpt lat="39.7270310" lon="-5.6668500">
        <ele>443.6</ele>
        <time>2019-07-09T09:47:55Z</time>
      </trkpt>
      <trkpt lat="39.7271270" lon="-5.6669490">
        <ele>443.6</ele>
        <time>2019-07-09T09:47:59Z</time>
      </trkpt>
      <trkpt lat="39.7271600" lon="-5.6669870">
        <ele>443.2</ele>
        <time>2019-07-09T09:48:02Z</time>
      </trkpt>
      <trkpt lat="39.7271610" lon="-5.6669870">
        <ele>443.2</ele>
        <time>2019-07-09T09:48:03Z</time>
      </trkpt>
      <trkpt lat="39.7272010" lon="-5.6670060">
        <ele>442.4</ele>
        <time>2019-07-09T09:48:15Z</time>
      </trkpt>
      <trkpt lat="39.7272450" lon="-5.6670470">
        <ele>442.4</ele>
        <time>2019-07-09T09:48:17Z</time>
      </trkpt>
      <trkpt lat="39.7272450" lon="-5.6670470">
        <ele>442.4</ele>
        <time>2019-07-09T09:48:22Z</time>
      </trkpt>
      <trkpt lat="39.7274570" lon="-5.6672460">
        <ele>442.2</ele>
        <time>2019-07-09T09:48:25Z</time>
      </trkpt>
      <trkpt lat="39.7274890" lon="-5.6672790">
        <ele>442.2</ele>
        <time>2019-07-09T09:48:26Z</time>
      </trkpt>
      <trkpt lat="39.7277550" lon="-5.6675180">
        <ele>442.6</ele>
        <time>2019-07-09T09:48:34Z</time>
      </trkpt>
      <trkpt lat="39.7277860" lon="-5.6675470">
        <ele>442.8</ele>
        <time>2019-07-09T09:48:35Z</time>
      </trkpt>
      <trkpt lat="39.7279420" lon="-5.6676830">
        <ele>444.2</ele>
        <time>2019-07-09T09:48:40Z</time>
      </trkpt>
      <trkpt lat="39.7280270" lon="-5.6677600">
        <ele>444.0</ele>
        <time>2019-07-09T09:48:43Z</time>
      </trkpt>
      <trkpt lat="39.7282500" lon="-5.6679530">
        <ele>444.2</ele>
        <time>2019-07-09T09:48:50Z</time>
      </trkpt>
      <trkpt lat="39.7284580" lon="-5.6681110">
        <ele>443.8</ele>
        <time>2019-07-09T09:48:55Z</time>
      </trkpt>
      <trkpt lat="39.7285490" lon="-5.6681720">
        <ele>443.8</ele>
        <time>2019-07-09T09:48:57Z</time>
      </trkpt>
      <trkpt lat="39.7287550" lon="-5.6683080">
        <ele>443.2</ele>
        <time>2019-07-09T09:49:01Z</time>
      </trkpt>
      <trkpt lat="39.7288660" lon="-5.6683870">
        <ele>442.8</ele>
        <time>2019-07-09T09:49:03Z</time>
      </trkpt>
      <trkpt lat="39.7291010" lon="-5.6685590">
        <ele>442.0</ele>
        <time>2019-07-09T09:49:07Z</time>
      </trkpt>
      <trkpt lat="39.7292220" lon="-5.6686530">
        <ele>441.6</ele>
        <time>2019-07-09T09:49:09Z</time>
      </trkpt>
      <trkpt lat="39.7292820" lon="-5.6687030">
        <ele>441.6</ele>
        <time>2019-07-09T09:49:10Z</time>
      </trkpt>
      <trkpt lat="39.7294010" lon="-5.6688070">
        <ele>441.2</ele>
        <time>2019-07-09T09:49:12Z</time>
      </trkpt>
      <trkpt lat="39.7295190" lon="-5.6689150">
        <ele>440.6</ele>
        <time>2019-07-09T09:49:14Z</time>
      </trkpt>
      <trkpt lat="39.7298030" lon="-5.6692110">
        <ele>439.6</ele>
        <time>2019-07-09T09:49:19Z</time>
      </trkpt>
      <trkpt lat="39.7298580" lon="-5.6692730">
        <ele>439.4</ele>
        <time>2019-07-09T09:49:20Z</time>
      </trkpt>
      <trkpt lat="39.7299600" lon="-5.6694100">
        <ele>439.0</ele>
        <time>2019-07-09T09:49:22Z</time>
      </trkpt>
      <trkpt lat="39.7300640" lon="-5.6695490">
        <ele>438.2</ele>
        <time>2019-07-09T09:49:24Z</time>
      </trkpt>
      <trkpt lat="39.7302190" lon="-5.6697620">
        <ele>437.2</ele>
        <time>2019-07-09T09:49:27Z</time>
      </trkpt>
      <trkpt lat="39.7302700" lon="-5.6698350">
        <ele>437.0</ele>
        <time>2019-07-09T09:49:28Z</time>
      </trkpt>
      <trkpt lat="39.7304270" lon="-5.6700590">
        <ele>436.4</ele>
        <time>2019-07-09T09:49:31Z</time>
      </trkpt>
      <trkpt lat="39.7305330" lon="-5.6702110">
        <ele>435.8</ele>
        <time>2019-07-09T09:49:33Z</time>
      </trkpt>
      <trkpt lat="39.7307020" lon="-5.6704470">
        <ele>434.4</ele>
        <time>2019-07-09T09:49:36Z</time>
      </trkpt>
      <trkpt lat="39.7307590" lon="-5.6705290">
        <ele>434.0</ele>
        <time>2019-07-09T09:49:37Z</time>
      </trkpt>
      <trkpt lat="39.7309860" lon="-5.6708590">
        <ele>433.2</ele>
        <time>2019-07-09T09:49:41Z</time>
      </trkpt>
      <trkpt lat="39.7312700" lon="-5.6712620">
        <ele>432.2</ele>
        <time>2019-07-09T09:49:46Z</time>
      </trkpt>
      <trkpt lat="39.7314790" lon="-5.6715850">
        <ele>431.2</ele>
        <time>2019-07-09T09:49:50Z</time>
      </trkpt>
      <trkpt lat="39.7316370" lon="-5.6718150">
        <ele>430.2</ele>
        <time>2019-07-09T09:49:53Z</time>
      </trkpt>
      <trkpt lat="39.7316890" lon="-5.6718910">
        <ele>430.0</ele>
        <time>2019-07-09T09:49:54Z</time>
      </trkpt>
      <trkpt lat="39.7318470" lon="-5.6721200">
        <ele>429.2</ele>
        <time>2019-07-09T09:49:57Z</time>
      </trkpt>
      <trkpt lat="39.7319000" lon="-5.6721950">
        <ele>428.8</ele>
        <time>2019-07-09T09:49:58Z</time>
      </trkpt>
      <trkpt lat="39.7320030" lon="-5.6723480">
        <ele>428.4</ele>
        <time>2019-07-09T09:50:00Z</time>
      </trkpt>
      <trkpt lat="39.7321540" lon="-5.6725760">
        <ele>427.8</ele>
        <time>2019-07-09T09:50:03Z</time>
      </trkpt>
      <trkpt lat="39.7323530" lon="-5.6728640">
        <ele>426.8</ele>
        <time>2019-07-09T09:50:07Z</time>
      </trkpt>
      <trkpt lat="39.7324010" lon="-5.6729350">
        <ele>426.6</ele>
        <time>2019-07-09T09:50:08Z</time>
      </trkpt>
      <trkpt lat="39.7327290" lon="-5.6734330">
        <ele>426.0</ele>
        <time>2019-07-09T09:50:15Z</time>
      </trkpt>
      <trkpt lat="39.7327780" lon="-5.6735020">
        <ele>425.2</ele>
        <time>2019-07-09T09:50:16Z</time>
      </trkpt>
      <trkpt lat="39.7329230" lon="-5.6737070">
        <ele>424.0</ele>
        <time>2019-07-09T09:50:19Z</time>
      </trkpt>
      <trkpt lat="39.7331110" lon="-5.6739880">
        <ele>423.4</ele>
        <time>2019-07-09T09:50:23Z</time>
      </trkpt>
      <trkpt lat="39.7331610" lon="-5.6740560">
        <ele>423.2</ele>
        <time>2019-07-09T09:50:24Z</time>
      </trkpt>
      <trkpt lat="39.7334100" lon="-5.6744070">
        <ele>422.0</ele>
        <time>2019-07-09T09:50:29Z</time>
      </trkpt>
      <trkpt lat="39.7335080" lon="-5.6745550">
        <ele>421.4</ele>
        <time>2019-07-09T09:50:31Z</time>
      </trkpt>
      <trkpt lat="39.7336110" lon="-5.6747020">
        <ele>421.2</ele>
        <time>2019-07-09T09:50:33Z</time>
      </trkpt>
      <trkpt lat="39.7337180" lon="-5.6748480">
        <ele>420.8</ele>
        <time>2019-07-09T09:50:35Z</time>
      </trkpt>
      <trkpt lat="39.7338730" lon="-5.6750760">
        <ele>419.8</ele>
        <time>2019-07-09T09:50:38Z</time>
      </trkpt>
      <trkpt lat="39.7339270" lon="-5.6751530">
        <ele>419.6</ele>
        <time>2019-07-09T09:50:39Z</time>
      </trkpt>
      <trkpt lat="39.7341420" lon="-5.6754580">
        <ele>418.6</ele>
        <time>2019-07-09T09:50:43Z</time>
      </trkpt>
      <trkpt lat="39.7344170" lon="-5.6758420">
        <ele>417.4</ele>
        <time>2019-07-09T09:50:48Z</time>
      </trkpt>
      <trkpt lat="39.7344720" lon="-5.6759230">
        <ele>417.2</ele>
        <time>2019-07-09T09:50:49Z</time>
      </trkpt>
      <trkpt lat="39.7345810" lon="-5.6760880">
        <ele>416.2</ele>
        <time>2019-07-09T09:50:51Z</time>
      </trkpt>
      <trkpt lat="39.7348040" lon="-5.6764010">
        <ele>415.0</ele>
        <time>2019-07-09T09:50:55Z</time>
      </trkpt>
      <trkpt lat="39.7349130" lon="-5.6765530">
        <ele>414.6</ele>
        <time>2019-07-09T09:50:57Z</time>
      </trkpt>
      <trkpt lat="39.7351800" lon="-5.6769230">
        <ele>414.0</ele>
        <time>2019-07-09T09:51:02Z</time>
      </trkpt>
      <trkpt lat="39.7352830" lon="-5.6770730">
        <ele>413.6</ele>
        <time>2019-07-09T09:51:04Z</time>
      </trkpt>
      <trkpt lat="39.7354410" lon="-5.6772890">
        <ele>413.2</ele>
        <time>2019-07-09T09:51:07Z</time>
      </trkpt>
      <trkpt lat="39.7355400" lon="-5.6774370">
        <ele>413.0</ele>
        <time>2019-07-09T09:51:09Z</time>
      </trkpt>
      <trkpt lat="39.7356910" lon="-5.6776470">
        <ele>412.4</ele>
        <time>2019-07-09T09:51:12Z</time>
      </trkpt>
      <trkpt lat="39.7359900" lon="-5.6780590">
        <ele>411.8</ele>
        <time>2019-07-09T09:51:18Z</time>
      </trkpt>
      <trkpt lat="39.7360900" lon="-5.6781960">
        <ele>411.4</ele>
        <time>2019-07-09T09:51:20Z</time>
      </trkpt>
      <trkpt lat="39.7363730" lon="-5.6786150">
        <ele>410.6</ele>
        <time>2019-07-09T09:51:26Z</time>
      </trkpt>
      <trkpt lat="39.7365220" lon="-5.6788220">
        <ele>410.4</ele>
        <time>2019-07-09T09:51:29Z</time>
      </trkpt>
      <trkpt lat="39.7369200" lon="-5.6794070">
        <ele>409.8</ele>
        <time>2019-07-09T09:51:37Z</time>
      </trkpt>
      <trkpt lat="39.7369700" lon="-5.6794820">
        <ele>409.8</ele>
        <time>2019-07-09T09:51:38Z</time>
      </trkpt>
      <trkpt lat="39.7371220" lon="-5.6796950">
        <ele>409.6</ele>
        <time>2019-07-09T09:51:41Z</time>
      </trkpt>
      <trkpt lat="39.7372720" lon="-5.6799030">
        <ele>409.2</ele>
        <time>2019-07-09T09:51:44Z</time>
      </trkpt>
      <trkpt lat="39.7373680" lon="-5.6800360">
        <ele>409.0</ele>
        <time>2019-07-09T09:51:46Z</time>
      </trkpt>
      <trkpt lat="39.7374140" lon="-5.6801040">
        <ele>409.0</ele>
        <time>2019-07-09T09:51:47Z</time>
      </trkpt>
      <trkpt lat="39.7374580" lon="-5.6801700">
        <ele>408.8</ele>
        <time>2019-07-09T09:51:48Z</time>
      </trkpt>
      <trkpt lat="39.7375460" lon="-5.6802990">
        <ele>408.4</ele>
        <time>2019-07-09T09:51:50Z</time>
      </trkpt>
      <trkpt lat="39.7378070" lon="-5.6806930">
        <ele>408.4</ele>
        <time>2019-07-09T09:51:56Z</time>
      </trkpt>
      <trkpt lat="39.7381700" lon="-5.6812120">
        <ele>408.6</ele>
        <time>2019-07-09T09:52:04Z</time>
      </trkpt>
      <trkpt lat="39.7382560" lon="-5.6813370">
        <ele>408.6</ele>
        <time>2019-07-09T09:52:06Z</time>
      </trkpt>
      <trkpt lat="39.7385050" lon="-5.6817100">
        <ele>407.2</ele>
        <time>2019-07-09T09:52:12Z</time>
      </trkpt>
      <trkpt lat="39.7385860" lon="-5.6818400">
        <ele>407.0</ele>
        <time>2019-07-09T09:52:14Z</time>
      </trkpt>
      <trkpt lat="39.7388650" lon="-5.6823150">
        <ele>406.2</ele>
        <time>2019-07-09T09:52:21Z</time>
      </trkpt>
      <trkpt lat="39.7389010" lon="-5.6823860">
        <ele>406.0</ele>
        <time>2019-07-09T09:52:22Z</time>
      </trkpt>
      <trkpt lat="39.7391760" lon="-5.6829500">
        <ele>405.6</ele>
        <time>2019-07-09T09:52:30Z</time>
      </trkpt>
      <trkpt lat="39.7392730" lon="-5.6831720">
        <ele>405.4</ele>
        <time>2019-07-09T09:52:33Z</time>
      </trkpt>
      <trkpt lat="39.7393650" lon="-5.6833960">
        <ele>405.4</ele>
        <time>2019-07-09T09:52:36Z</time>
      </trkpt>
      <trkpt lat="39.7394470" lon="-5.6836300">
        <ele>405.0</ele>
        <time>2019-07-09T09:52:39Z</time>
      </trkpt>
      <trkpt lat="39.7395990" lon="-5.6841110">
        <ele>404.4</ele>
        <time>2019-07-09T09:52:45Z</time>
      </trkpt>
      <trkpt lat="39.7396430" lon="-5.6842750">
        <ele>404.0</ele>
        <time>2019-07-09T09:52:47Z</time>
      </trkpt>
      <trkpt lat="39.7398050" lon="-5.6849440">
        <ele>403.6</ele>
        <time>2019-07-09T09:52:55Z</time>
      </trkpt>
      <trkpt lat="39.7398360" lon="-5.6851100">
        <ele>403.6</ele>
        <time>2019-07-09T09:52:57Z</time>
      </trkpt>
      <trkpt lat="39.7398770" lon="-5.6853530">
        <ele>403.4</ele>
        <time>2019-07-09T09:53:00Z</time>
      </trkpt>
      <trkpt lat="39.7399570" lon="-5.6858290">
        <ele>402.6</ele>
        <time>2019-07-09T09:53:06Z</time>
      </trkpt>
      <trkpt lat="39.7400590" lon="-5.6864410">
        <ele>403.0</ele>
        <time>2019-07-09T09:53:14Z</time>
      </trkpt>
      <trkpt lat="39.7400960" lon="-5.6866570">
        <ele>403.0</ele>
        <time>2019-07-09T09:53:17Z</time>
      </trkpt>
      <trkpt lat="39.7401570" lon="-5.6870100">
        <ele>403.0</ele>
        <time>2019-07-09T09:53:22Z</time>
      </trkpt>
      <trkpt lat="39.7401840" lon="-5.6872070">
        <ele>403.2</ele>
        <time>2019-07-09T09:53:25Z</time>
      </trkpt>
      <trkpt lat="39.7402260" lon="-5.6874470">
        <ele>403.6</ele>
        <time>2019-07-09T09:53:29Z</time>
      </trkpt>
      <trkpt lat="39.7402880" lon="-5.6878410">
        <ele>404.4</ele>
        <time>2019-07-09T09:53:36Z</time>
      </trkpt>
      <trkpt lat="39.7402940" lon="-5.6878940">
        <ele>404.6</ele>
        <time>2019-07-09T09:53:37Z</time>
      </trkpt>
      <trkpt lat="39.7403710" lon="-5.6883070">
        <ele>405.4</ele>
        <time>2019-07-09T09:53:45Z</time>
      </trkpt>
      <trkpt lat="39.7403880" lon="-5.6884110">
        <ele>405.6</ele>
        <time>2019-07-09T09:53:47Z</time>
      </trkpt>
      <trkpt lat="39.7404380" lon="-5.6887150">
        <ele>406.4</ele>
        <time>2019-07-09T09:53:53Z</time>
      </trkpt>
      <trkpt lat="39.7404550" lon="-5.6888160">
        <ele>406.6</ele>
        <time>2019-07-09T09:53:55Z</time>
      </trkpt>
      <trkpt lat="39.7405190" lon="-5.6892150">
        <ele>407.8</ele>
        <time>2019-07-09T09:54:03Z</time>
      </trkpt>
      <trkpt lat="39.7405260" lon="-5.6892650">
        <ele>408.0</ele>
        <time>2019-07-09T09:54:04Z</time>
      </trkpt>
      <trkpt lat="39.7405830" lon="-5.6895760">
        <ele>409.0</ele>
        <time>2019-07-09T09:54:10Z</time>
      </trkpt>
      <trkpt lat="39.7406070" lon="-5.6897300">
        <ele>409.4</ele>
        <time>2019-07-09T09:54:13Z</time>
      </trkpt>
      <trkpt lat="39.7406530" lon="-5.6900260">
        <ele>410.0</ele>
        <time>2019-07-09T09:54:19Z</time>
      </trkpt>
      <trkpt lat="39.7406600" lon="-5.6900730">
        <ele>410.0</ele>
        <time>2019-07-09T09:54:20Z</time>
      </trkpt>
      <trkpt lat="39.7406930" lon="-5.6902600">
        <ele>410.6</ele>
        <time>2019-07-09T09:54:24Z</time>
      </trkpt>
      <trkpt lat="39.7407360" lon="-5.6905490">
        <ele>411.2</ele>
        <time>2019-07-09T09:54:30Z</time>
      </trkpt>
      <trkpt lat="39.7407730" lon="-5.6907890">
        <ele>412.0</ele>
        <time>2019-07-09T09:54:35Z</time>
      </trkpt>
      <trkpt lat="39.7408030" lon="-5.6909340">
        <ele>412.2</ele>
        <time>2019-07-09T09:54:38Z</time>
      </trkpt>
      <trkpt lat="39.7408480" lon="-5.6912360">
        <ele>412.8</ele>
        <time>2019-07-09T09:54:44Z</time>
      </trkpt>
      <trkpt lat="39.7408830" lon="-5.6914390">
        <ele>413.2</ele>
        <time>2019-07-09T09:54:48Z</time>
      </trkpt>
      <trkpt lat="39.7409040" lon="-5.6915900">
        <ele>413.6</ele>
        <time>2019-07-09T09:54:51Z</time>
      </trkpt>
      <trkpt lat="39.7409470" lon="-5.6917890">
        <ele>414.2</ele>
        <time>2019-07-09T09:54:55Z</time>
      </trkpt>
      <trkpt lat="39.7409800" lon="-5.6919840">
        <ele>414.6</ele>
        <time>2019-07-09T09:54:59Z</time>
      </trkpt>
      <trkpt lat="39.7410110" lon="-5.6921750">
        <ele>415.4</ele>
        <time>2019-07-09T09:55:03Z</time>
      </trkpt>
      <trkpt lat="39.7410400" lon="-5.6923600">
        <ele>415.8</ele>
        <time>2019-07-09T09:55:07Z</time>
      </trkpt>
      <trkpt lat="39.7411410" lon="-5.6926000">
        <ele>416.2</ele>
        <time>2019-07-09T09:55:13Z</time>
      </trkpt>
      <trkpt lat="39.7412110" lon="-5.6926250">
        <ele>416.4</ele>
        <time>2019-07-09T09:55:15Z</time>
      </trkpt>
      <trkpt lat="39.7412500" lon="-5.6926110">
        <ele>416.6</ele>
        <time>2019-07-09T09:55:16Z</time>
      </trkpt>
      <trkpt lat="39.7413650" lon="-5.6925280">
        <ele>416.8</ele>
        <time>2019-07-09T09:55:19Z</time>
      </trkpt>
      <trkpt lat="39.7414870" lon="-5.6924360">
        <ele>417.0</ele>
        <time>2019-07-09T09:55:22Z</time>
      </trkpt>
      <trkpt lat="39.7418260" lon="-5.6922310">
        <ele>416.4</ele>
        <time>2019-07-09T09:55:30Z</time>
      </trkpt>
      <trkpt lat="39.7418760" lon="-5.6922110">
        <ele>416.4</ele>
        <time>2019-07-09T09:55:31Z</time>
      </trkpt>
      <trkpt lat="39.7419880" lon="-5.6921850">
        <ele>415.6</ele>
        <time>2019-07-09T09:55:33Z</time>
      </trkpt>
      <trkpt lat="39.7420510" lon="-5.6921820">
        <ele>415.2</ele>
        <time>2019-07-09T09:55:34Z</time>
      </trkpt>
      <trkpt lat="39.7421160" lon="-5.6921840">
        <ele>414.8</ele>
        <time>2019-07-09T09:55:35Z</time>
      </trkpt>
      <trkpt lat="39.7421850" lon="-5.6921860">
        <ele>414.2</ele>
        <time>2019-07-09T09:55:36Z</time>
      </trkpt>
      <trkpt lat="39.7422590" lon="-5.6921800">
        <ele>413.8</ele>
        <time>2019-07-09T09:55:37Z</time>
      </trkpt>
      <trkpt lat="39.7423350" lon="-5.6921680">
        <ele>413.2</ele>
        <time>2019-07-09T09:55:38Z</time>
      </trkpt>
      <trkpt lat="39.7424120" lon="-5.6921520">
        <ele>412.8</ele>
        <time>2019-07-09T09:55:39Z</time>
      </trkpt>
      <trkpt lat="39.7424920" lon="-5.6921340">
        <ele>412.0</ele>
        <time>2019-07-09T09:55:40Z</time>
      </trkpt>
      <trkpt lat="39.7426570" lon="-5.6921200">
        <ele>411.0</ele>
        <time>2019-07-09T09:55:42Z</time>
      </trkpt>
      <trkpt lat="39.7427410" lon="-5.6921380">
        <ele>410.4</ele>
        <time>2019-07-09T09:55:43Z</time>
      </trkpt>
      <trkpt lat="39.7429060" lon="-5.6922120">
        <ele>409.6</ele>
        <time>2019-07-09T09:55:45Z</time>
      </trkpt>
      <trkpt lat="39.7429870" lon="-5.6922570">
        <ele>409.0</ele>
        <time>2019-07-09T09:55:46Z</time>
      </trkpt>
      <trkpt lat="39.7430640" lon="-5.6923110">
        <ele>408.6</ele>
        <time>2019-07-09T09:55:47Z</time>
      </trkpt>
      <trkpt lat="39.7432500" lon="-5.6925380">
        <ele>407.6</ele>
        <time>2019-07-09T09:55:50Z</time>
      </trkpt>
      <trkpt lat="39.7433090" lon="-5.6926180">
        <ele>407.2</ele>
        <time>2019-07-09T09:55:51Z</time>
      </trkpt>
      <trkpt lat="39.7434640" lon="-5.6927290">
        <ele>406.2</ele>
        <time>2019-07-09T09:55:53Z</time>
      </trkpt>
      <trkpt lat="39.7436450" lon="-5.6927160">
        <ele>405.6</ele>
        <time>2019-07-09T09:55:55Z</time>
      </trkpt>
      <trkpt lat="39.7437310" lon="-5.6926830">
        <ele>405.0</ele>
        <time>2019-07-09T09:55:56Z</time>
      </trkpt>
      <trkpt lat="39.7438140" lon="-5.6926440">
        <ele>404.6</ele>
        <time>2019-07-09T09:55:57Z</time>
      </trkpt>
      <trkpt lat="39.7439790" lon="-5.6925690">
        <ele>404.0</ele>
        <time>2019-07-09T09:55:59Z</time>
      </trkpt>
      <trkpt lat="39.7440620" lon="-5.6925380">
        <ele>403.6</ele>
        <time>2019-07-09T09:56:00Z</time>
      </trkpt>
      <trkpt lat="39.7443190" lon="-5.6924530">
        <ele>402.6</ele>
        <time>2019-07-09T09:56:03Z</time>
      </trkpt>
      <trkpt lat="39.7444950" lon="-5.6924230">
        <ele>401.4</ele>
        <time>2019-07-09T09:56:05Z</time>
      </trkpt>
      <trkpt lat="39.7446650" lon="-5.6924640">
        <ele>399.8</ele>
        <time>2019-07-09T09:56:07Z</time>
      </trkpt>
      <trkpt lat="39.7447390" lon="-5.6925260">
        <ele>399.0</ele>
        <time>2019-07-09T09:56:08Z</time>
      </trkpt>
      <trkpt lat="39.7448020" lon="-5.6926080">
        <ele>398.2</ele>
        <time>2019-07-09T09:56:09Z</time>
      </trkpt>
      <trkpt lat="39.7448530" lon="-5.6927090">
        <ele>397.6</ele>
        <time>2019-07-09T09:56:10Z</time>
      </trkpt>
      <trkpt lat="39.7448930" lon="-5.6928260">
        <ele>397.0</ele>
        <time>2019-07-09T09:56:11Z</time>
      </trkpt>
      <trkpt lat="39.7449120" lon="-5.6930880">
        <ele>395.4</ele>
        <time>2019-07-09T09:56:13Z</time>
      </trkpt>
      <trkpt lat="39.7448730" lon="-5.6933540">
        <ele>393.8</ele>
        <time>2019-07-09T09:56:15Z</time>
      </trkpt>
      <trkpt lat="39.7448440" lon="-5.6934860">
        <ele>393.2</ele>
        <time>2019-07-09T09:56:16Z</time>
      </trkpt>
      <trkpt lat="39.7448130" lon="-5.6936180">
        <ele>392.8</ele>
        <time>2019-07-09T09:56:17Z</time>
      </trkpt>
      <trkpt lat="39.7447370" lon="-5.6938800">
        <ele>391.2</ele>
        <time>2019-07-09T09:56:19Z</time>
      </trkpt>
      <trkpt lat="39.7446420" lon="-5.6941200">
        <ele>390.0</ele>
        <time>2019-07-09T09:56:21Z</time>
      </trkpt>
      <trkpt lat="39.7445620" lon="-5.6943230">
        <ele>388.6</ele>
        <time>2019-07-09T09:56:23Z</time>
      </trkpt>
      <trkpt lat="39.7445390" lon="-5.6944190">
        <ele>388.0</ele>
        <time>2019-07-09T09:56:24Z</time>
      </trkpt>
      <trkpt lat="39.7445340" lon="-5.6945190">
        <ele>387.4</ele>
        <time>2019-07-09T09:56:25Z</time>
      </trkpt>
      <trkpt lat="39.7445910" lon="-5.6946960">
        <ele>386.4</ele>
        <time>2019-07-09T09:56:27Z</time>
      </trkpt>
      <trkpt lat="39.7447230" lon="-5.6947810">
        <ele>385.2</ele>
        <time>2019-07-09T09:56:29Z</time>
      </trkpt>
      <trkpt lat="39.7449640" lon="-5.6947820">
        <ele>384.0</ele>
        <time>2019-07-09T09:56:32Z</time>
      </trkpt>
      <trkpt lat="39.7452070" lon="-5.6947700">
        <ele>382.8</ele>
        <time>2019-07-09T09:56:35Z</time>
      </trkpt>
      <trkpt lat="39.7453720" lon="-5.6947870">
        <ele>382.4</ele>
        <time>2019-07-09T09:56:37Z</time>
      </trkpt>
      <trkpt lat="39.7454580" lon="-5.6948040">
        <ele>382.4</ele>
        <time>2019-07-09T09:56:38Z</time>
      </trkpt>
      <trkpt lat="39.7455450" lon="-5.6948300">
        <ele>381.8</ele>
        <time>2019-07-09T09:56:39Z</time>
      </trkpt>
      <trkpt lat="39.7457180" lon="-5.6948920">
        <ele>380.6</ele>
        <time>2019-07-09T09:56:41Z</time>
      </trkpt>
      <trkpt lat="39.7458980" lon="-5.6949630">
        <ele>379.8</ele>
        <time>2019-07-09T09:56:43Z</time>
      </trkpt>
      <trkpt lat="39.7459900" lon="-5.6950010">
        <ele>379.0</ele>
        <time>2019-07-09T09:56:44Z</time>
      </trkpt>
      <trkpt lat="39.7461770" lon="-5.6950770">
        <ele>377.8</ele>
        <time>2019-07-09T09:56:46Z</time>
      </trkpt>
      <trkpt lat="39.7463650" lon="-5.6951500">
        <ele>376.8</ele>
        <time>2019-07-09T09:56:48Z</time>
      </trkpt>
      <trkpt lat="39.7466510" lon="-5.6952680">
        <ele>375.2</ele>
        <time>2019-07-09T09:56:51Z</time>
      </trkpt>
      <trkpt lat="39.7468460" lon="-5.6953550">
        <ele>374.0</ele>
        <time>2019-07-09T09:56:53Z</time>
      </trkpt>
      <trkpt lat="39.7470480" lon="-5.6954400">
        <ele>371.8</ele>
        <time>2019-07-09T09:56:55Z</time>
      </trkpt>
      <trkpt lat="39.7472540" lon="-5.6955240">
        <ele>370.6</ele>
        <time>2019-07-09T09:56:57Z</time>
      </trkpt>
      <trkpt lat="39.7473580" lon="-5.6955640">
        <ele>369.6</ele>
        <time>2019-07-09T09:56:58Z</time>
      </trkpt>
      <trkpt lat="39.7474620" lon="-5.6956060">
        <ele>368.8</ele>
        <time>2019-07-09T09:56:59Z</time>
      </trkpt>
      <trkpt lat="39.7476730" lon="-5.6956940">
        <ele>367.6</ele>
        <time>2019-07-09T09:57:01Z</time>
      </trkpt>
      <trkpt lat="39.7478790" lon="-5.6957790">
        <ele>366.0</ele>
        <time>2019-07-09T09:57:03Z</time>
      </trkpt>
      <trkpt lat="39.7481720" lon="-5.6959020">
        <ele>364.8</ele>
        <time>2019-07-09T09:57:06Z</time>
      </trkpt>
      <trkpt lat="39.7485420" lon="-5.6960460">
        <ele>363.8</ele>
        <time>2019-07-09T09:57:10Z</time>
      </trkpt>
      <trkpt lat="39.7488160" lon="-5.6961640">
        <ele>362.2</ele>
        <time>2019-07-09T09:57:13Z</time>
      </trkpt>
      <trkpt lat="39.7489070" lon="-5.6962040">
        <ele>361.8</ele>
        <time>2019-07-09T09:57:14Z</time>
      </trkpt>
      <trkpt lat="39.7490890" lon="-5.6962820">
        <ele>360.8</ele>
        <time>2019-07-09T09:57:16Z</time>
      </trkpt>
      <trkpt lat="39.7493630" lon="-5.6963960">
        <ele>359.4</ele>
        <time>2019-07-09T09:57:19Z</time>
      </trkpt>
      <trkpt lat="39.7495470" lon="-5.6964730">
        <ele>358.4</ele>
        <time>2019-07-09T09:57:21Z</time>
      </trkpt>
      <trkpt lat="39.7498240" lon="-5.6965930">
        <ele>357.0</ele>
        <time>2019-07-09T09:57:24Z</time>
      </trkpt>
      <trkpt lat="39.7499180" lon="-5.6966340">
        <ele>356.4</ele>
        <time>2019-07-09T09:57:25Z</time>
      </trkpt>
      <trkpt lat="39.7500130" lon="-5.6966760">
        <ele>356.0</ele>
        <time>2019-07-09T09:57:26Z</time>
      </trkpt>
      <trkpt lat="39.7502020" lon="-5.6967620">
        <ele>354.6</ele>
        <time>2019-07-09T09:57:28Z</time>
      </trkpt>
      <trkpt lat="39.7503940" lon="-5.6968440">
        <ele>353.4</ele>
        <time>2019-07-09T09:57:30Z</time>
      </trkpt>
      <trkpt lat="39.7505850" lon="-5.6969310">
        <ele>352.0</ele>
        <time>2019-07-09T09:57:32Z</time>
      </trkpt>
      <trkpt lat="39.7506810" lon="-5.6969790">
        <ele>351.4</ele>
        <time>2019-07-09T09:57:33Z</time>
      </trkpt>
      <trkpt lat="39.7508730" lon="-5.6970830">
        <ele>349.8</ele>
        <time>2019-07-09T09:57:35Z</time>
      </trkpt>
      <trkpt lat="39.7510600" lon="-5.6972060">
        <ele>348.6</ele>
        <time>2019-07-09T09:57:37Z</time>
      </trkpt>
      <trkpt lat="39.7512480" lon="-5.6973310">
        <ele>347.8</ele>
        <time>2019-07-09T09:57:39Z</time>
      </trkpt>
      <trkpt lat="39.7513420" lon="-5.6973940">
        <ele>347.2</ele>
        <time>2019-07-09T09:57:40Z</time>
      </trkpt>
      <trkpt lat="39.7515310" lon="-5.6975170">
        <ele>346.2</ele>
        <time>2019-07-09T09:57:42Z</time>
      </trkpt>
      <trkpt lat="39.7517220" lon="-5.6976360">
        <ele>344.8</ele>
        <time>2019-07-09T09:57:44Z</time>
      </trkpt>
      <trkpt lat="39.7519010" lon="-5.6977500">
        <ele>343.6</ele>
        <time>2019-07-09T09:57:46Z</time>
      </trkpt>
      <trkpt lat="39.7520700" lon="-5.6978570">
        <ele>342.6</ele>
        <time>2019-07-09T09:57:48Z</time>
      </trkpt>
      <trkpt lat="39.7521480" lon="-5.6979170">
        <ele>342.0</ele>
        <time>2019-07-09T09:57:49Z</time>
      </trkpt>
      <trkpt lat="39.7522830" lon="-5.6980800">
        <ele>340.8</ele>
        <time>2019-07-09T09:57:51Z</time>
      </trkpt>
      <trkpt lat="39.7523950" lon="-5.6982910">
        <ele>339.6</ele>
        <time>2019-07-09T09:57:53Z</time>
      </trkpt>
      <trkpt lat="39.7525030" lon="-5.6985250">
        <ele>338.2</ele>
        <time>2019-07-09T09:57:55Z</time>
      </trkpt>
      <trkpt lat="39.7526130" lon="-5.6987690">
        <ele>336.8</ele>
        <time>2019-07-09T09:57:57Z</time>
      </trkpt>
      <trkpt lat="39.7527240" lon="-5.6990250">
        <ele>335.0</ele>
        <time>2019-07-09T09:57:59Z</time>
      </trkpt>
      <trkpt lat="39.7528380" lon="-5.6992750">
        <ele>333.2</ele>
        <time>2019-07-09T09:58:01Z</time>
      </trkpt>
      <trkpt lat="39.7528960" lon="-5.6993910">
        <ele>332.6</ele>
        <time>2019-07-09T09:58:02Z</time>
      </trkpt>
      <trkpt lat="39.7529570" lon="-5.6995050">
        <ele>332.0</ele>
        <time>2019-07-09T09:58:03Z</time>
      </trkpt>
      <trkpt lat="39.7531460" lon="-5.6998340">
        <ele>330.8</ele>
        <time>2019-07-09T09:58:06Z</time>
      </trkpt>
      <trkpt lat="39.7532830" lon="-5.7000450">
        <ele>329.6</ele>
        <time>2019-07-09T09:58:08Z</time>
      </trkpt>
      <trkpt lat="39.7535070" lon="-5.7003440">
        <ele>328.2</ele>
        <time>2019-07-09T09:58:11Z</time>
      </trkpt>
      <trkpt lat="39.7536560" lon="-5.7005500">
        <ele>326.6</ele>
        <time>2019-07-09T09:58:13Z</time>
      </trkpt>
      <trkpt lat="39.7538060" lon="-5.7007580">
        <ele>325.0</ele>
        <time>2019-07-09T09:58:15Z</time>
      </trkpt>
      <trkpt lat="39.7540320" lon="-5.7010670">
        <ele>323.2</ele>
        <time>2019-07-09T09:58:18Z</time>
      </trkpt>
      <trkpt lat="39.7542560" lon="-5.7013780">
        <ele>322.0</ele>
        <time>2019-07-09T09:58:21Z</time>
      </trkpt>
      <trkpt lat="39.7544050" lon="-5.7015840">
        <ele>320.6</ele>
        <time>2019-07-09T09:58:23Z</time>
      </trkpt>
      <trkpt lat="39.7545550" lon="-5.7017930">
        <ele>319.0</ele>
        <time>2019-07-09T09:58:25Z</time>
      </trkpt>
      <trkpt lat="39.7547780" lon="-5.7021090">
        <ele>317.8</ele>
        <time>2019-07-09T09:58:28Z</time>
      </trkpt>
      <trkpt lat="39.7550070" lon="-5.7024130">
        <ele>316.2</ele>
        <time>2019-07-09T09:58:31Z</time>
      </trkpt>
      <trkpt lat="39.7551600" lon="-5.7026160">
        <ele>315.0</ele>
        <time>2019-07-09T09:58:33Z</time>
      </trkpt>
      <trkpt lat="39.7553820" lon="-5.7029260">
        <ele>313.6</ele>
        <time>2019-07-09T09:58:36Z</time>
      </trkpt>
      <trkpt lat="39.7556050" lon="-5.7032250">
        <ele>312.6</ele>
        <time>2019-07-09T09:58:39Z</time>
      </trkpt>
      <trkpt lat="39.7558810" lon="-5.7036290">
        <ele>311.4</ele>
        <time>2019-07-09T09:58:43Z</time>
      </trkpt>
      <trkpt lat="39.7560130" lon="-5.7038490">
        <ele>310.2</ele>
        <time>2019-07-09T09:58:45Z</time>
      </trkpt>
      <trkpt lat="39.7560800" lon="-5.7039650">
        <ele>309.6</ele>
        <time>2019-07-09T09:58:46Z</time>
      </trkpt>
      <trkpt lat="39.7561480" lon="-5.7040810">
        <ele>308.8</ele>
        <time>2019-07-09T09:58:47Z</time>
      </trkpt>
      <trkpt lat="39.7562880" lon="-5.7043170">
        <ele>307.4</ele>
        <time>2019-07-09T09:58:49Z</time>
      </trkpt>
      <trkpt lat="39.7564330" lon="-5.7045530">
        <ele>305.8</ele>
        <time>2019-07-09T09:58:51Z</time>
      </trkpt>
      <trkpt lat="39.7565800" lon="-5.7047910">
        <ele>304.0</ele>
        <time>2019-07-09T09:58:53Z</time>
      </trkpt>
      <trkpt lat="39.7566520" lon="-5.7049090">
        <ele>303.4</ele>
        <time>2019-07-09T09:58:54Z</time>
      </trkpt>
      <trkpt lat="39.7567240" lon="-5.7050250">
        <ele>302.4</ele>
        <time>2019-07-09T09:58:55Z</time>
      </trkpt>
      <trkpt lat="39.7568580" lon="-5.7052490">
        <ele>301.2</ele>
        <time>2019-07-09T09:58:57Z</time>
      </trkpt>
      <trkpt lat="39.7569550" lon="-5.7054580">
        <ele>300.6</ele>
        <time>2019-07-09T09:58:59Z</time>
      </trkpt>
      <trkpt lat="39.7569710" lon="-5.7055710">
        <ele>300.0</ele>
        <time>2019-07-09T09:59:00Z</time>
      </trkpt>
      <trkpt lat="39.7569620" lon="-5.7056860">
        <ele>299.4</ele>
        <time>2019-07-09T09:59:01Z</time>
      </trkpt>
      <trkpt lat="39.7569310" lon="-5.7057930">
        <ele>298.8</ele>
        <time>2019-07-09T09:59:02Z</time>
      </trkpt>
      <trkpt lat="39.7568890" lon="-5.7058920">
        <ele>298.0</ele>
        <time>2019-07-09T09:59:03Z</time>
      </trkpt>
      <trkpt lat="39.7568580" lon="-5.7059920">
        <ele>297.6</ele>
        <time>2019-07-09T09:59:04Z</time>
      </trkpt>
      <trkpt lat="39.7568780" lon="-5.7062040">
        <ele>296.8</ele>
        <time>2019-07-09T09:59:06Z</time>
      </trkpt>
      <trkpt lat="39.7569270" lon="-5.7062970">
        <ele>296.2</ele>
        <time>2019-07-09T09:59:07Z</time>
      </trkpt>
      <trkpt lat="39.7570620" lon="-5.7064540">
        <ele>295.0</ele>
        <time>2019-07-09T09:59:09Z</time>
      </trkpt>
      <trkpt lat="39.7572090" lon="-5.7066070">
        <ele>293.6</ele>
        <time>2019-07-09T09:59:11Z</time>
      </trkpt>
      <trkpt lat="39.7573540" lon="-5.7067740">
        <ele>292.4</ele>
        <time>2019-07-09T09:59:13Z</time>
      </trkpt>
      <trkpt lat="39.7575030" lon="-5.7069510">
        <ele>291.2</ele>
        <time>2019-07-09T09:59:15Z</time>
      </trkpt>
      <trkpt lat="39.7576590" lon="-5.7071270">
        <ele>289.8</ele>
        <time>2019-07-09T09:59:17Z</time>
      </trkpt>
      <trkpt lat="39.7578190" lon="-5.7073000">
        <ele>287.8</ele>
        <time>2019-07-09T09:59:19Z</time>
      </trkpt>
      <trkpt lat="39.7579030" lon="-5.7073730">
        <ele>287.0</ele>
        <time>2019-07-09T09:59:20Z</time>
      </trkpt>
      <trkpt lat="39.7579930" lon="-5.7074240">
        <ele>286.8</ele>
        <time>2019-07-09T09:59:21Z</time>
      </trkpt>
      <trkpt lat="39.7580870" lon="-5.7074340">
        <ele>286.4</ele>
        <time>2019-07-09T09:59:22Z</time>
      </trkpt>
      <trkpt lat="39.7581760" lon="-5.7074050">
        <ele>286.2</ele>
        <time>2019-07-09T09:59:23Z</time>
      </trkpt>
      <trkpt lat="39.7583210" lon="-5.7073010">
        <ele>286.2</ele>
        <time>2019-07-09T09:59:25Z</time>
      </trkpt>
      <trkpt lat="39.7583880" lon="-5.7072560">
        <ele>286.4</ele>
        <time>2019-07-09T09:59:26Z</time>
      </trkpt>
      <trkpt lat="39.7585220" lon="-5.7072190">
        <ele>286.6</ele>
        <time>2019-07-09T09:59:28Z</time>
      </trkpt>
      <trkpt lat="39.7585860" lon="-5.7072250">
        <ele>286.6</ele>
        <time>2019-07-09T09:59:29Z</time>
      </trkpt>
      <trkpt lat="39.7586490" lon="-5.7072400">
        <ele>286.8</ele>
        <time>2019-07-09T09:59:30Z</time>
      </trkpt>
      <trkpt lat="39.7587090" lon="-5.7072590">
        <ele>286.8</ele>
        <time>2019-07-09T09:59:31Z</time>
      </trkpt>
      <trkpt lat="39.7587680" lon="-5.7072780">
        <ele>286.8</ele>
        <time>2019-07-09T09:59:32Z</time>
      </trkpt>
      <trkpt lat="39.7588830" lon="-5.7073130">
        <ele>287.0</ele>
        <time>2019-07-09T09:59:34Z</time>
      </trkpt>
      <trkpt lat="39.7589390" lon="-5.7073310">
        <ele>287.2</ele>
        <time>2019-07-09T09:59:35Z</time>
      </trkpt>
      <trkpt lat="39.7590480" lon="-5.7073770">
        <ele>287.4</ele>
        <time>2019-07-09T09:59:37Z</time>
      </trkpt>
      <trkpt lat="39.7591010" lon="-5.7073950">
        <ele>287.6</ele>
        <time>2019-07-09T09:59:38Z</time>
      </trkpt>
      <trkpt lat="39.7592040" lon="-5.7074310">
        <ele>287.8</ele>
        <time>2019-07-09T09:59:40Z</time>
      </trkpt>
      <trkpt lat="39.7595870" lon="-5.7075860">
        <ele>288.4</ele>
        <time>2019-07-09T09:59:48Z</time>
      </trkpt>
      <trkpt lat="39.7596780" lon="-5.7076200">
        <ele>288.8</ele>
        <time>2019-07-09T09:59:50Z</time>
      </trkpt>
      <trkpt lat="39.7597710" lon="-5.7076520">
        <ele>289.2</ele>
        <time>2019-07-09T09:59:52Z</time>
      </trkpt>
      <trkpt lat="39.7598540" lon="-5.7076940">
        <ele>289.4</ele>
        <time>2019-07-09T09:59:54Z</time>
      </trkpt>
      <trkpt lat="39.7599690" lon="-5.7077670">
        <ele>289.8</ele>
        <time>2019-07-09T09:59:57Z</time>
      </trkpt>
      <trkpt lat="39.7600810" lon="-5.7078810">
        <ele>290.0</ele>
        <time>2019-07-09T10:00:00Z</time>
      </trkpt>
      <trkpt lat="39.7602960" lon="-5.7081360">
        <ele>288.6</ele>
        <time>2019-07-09T10:00:05Z</time>
      </trkpt>
      <trkpt lat="39.7603870" lon="-5.7082550">
        <ele>288.2</ele>
        <time>2019-07-09T10:00:07Z</time>
      </trkpt>
      <trkpt lat="39.7605310" lon="-5.7084340">
        <ele>287.6</ele>
        <time>2019-07-09T10:00:10Z</time>
      </trkpt>
      <trkpt lat="39.7606800" lon="-5.7086180">
        <ele>287.0</ele>
        <time>2019-07-09T10:00:13Z</time>
      </trkpt>
      <trkpt lat="39.7607850" lon="-5.7087380">
        <ele>286.6</ele>
        <time>2019-07-09T10:00:15Z</time>
      </trkpt>
      <trkpt lat="39.7609450" lon="-5.7089290">
        <ele>286.0</ele>
        <time>2019-07-09T10:00:18Z</time>
      </trkpt>
      <trkpt lat="39.7610550" lon="-5.7090590">
        <ele>285.4</ele>
        <time>2019-07-09T10:00:20Z</time>
      </trkpt>
      <trkpt lat="39.7611090" lon="-5.7091260">
        <ele>285.2</ele>
        <time>2019-07-09T10:00:21Z</time>
      </trkpt>
      <trkpt lat="39.7612190" lon="-5.7092620">
        <ele>284.4</ele>
        <time>2019-07-09T10:00:23Z</time>
      </trkpt>
      <trkpt lat="39.7613870" lon="-5.7094660">
        <ele>283.4</ele>
        <time>2019-07-09T10:00:26Z</time>
      </trkpt>
      <trkpt lat="39.7614430" lon="-5.7095340">
        <ele>283.2</ele>
        <time>2019-07-09T10:00:27Z</time>
      </trkpt>
      <trkpt lat="39.7614990" lon="-5.7096020">
        <ele>283.0</ele>
        <time>2019-07-09T10:00:28Z</time>
      </trkpt>
      <trkpt lat="39.7616630" lon="-5.7098060">
        <ele>282.2</ele>
        <time>2019-07-09T10:00:31Z</time>
      </trkpt>
      <trkpt lat="39.7617170" lon="-5.7098730">
        <ele>282.0</ele>
        <time>2019-07-09T10:00:32Z</time>
      </trkpt>
      <trkpt lat="39.7618230" lon="-5.7100050">
        <ele>281.6</ele>
        <time>2019-07-09T10:00:34Z</time>
      </trkpt>
      <trkpt lat="39.7620470" lon="-5.7102260">
        <ele>281.0</ele>
        <time>2019-07-09T10:00:38Z</time>
      </trkpt>
      <trkpt lat="39.7621070" lon="-5.7102730">
        <ele>280.8</ele>
        <time>2019-07-09T10:00:39Z</time>
      </trkpt>
      <trkpt lat="39.7621690" lon="-5.7103150">
        <ele>280.8</ele>
        <time>2019-07-09T10:00:40Z</time>
      </trkpt>
      <trkpt lat="39.7623620" lon="-5.7103940">
        <ele>280.6</ele>
        <time>2019-07-09T10:00:43Z</time>
      </trkpt>
      <trkpt lat="39.7626290" lon="-5.7104790">
        <ele>279.6</ele>
        <time>2019-07-09T10:00:47Z</time>
      </trkpt>
      <trkpt lat="39.7628360" lon="-5.7105430">
        <ele>278.8</ele>
        <time>2019-07-09T10:00:50Z</time>
      </trkpt>
      <trkpt lat="39.7629800" lon="-5.7105860">
        <ele>278.2</ele>
        <time>2019-07-09T10:00:52Z</time>
      </trkpt>
      <trkpt lat="39.7632120" lon="-5.7106660">
        <ele>277.2</ele>
        <time>2019-07-09T10:00:55Z</time>
      </trkpt>
      <trkpt lat="39.7633740" lon="-5.7107380">
        <ele>276.2</ele>
        <time>2019-07-09T10:00:57Z</time>
      </trkpt>
      <trkpt lat="39.7634550" lon="-5.7107800">
        <ele>275.8</ele>
        <time>2019-07-09T10:00:58Z</time>
      </trkpt>
      <trkpt lat="39.7636950" lon="-5.7109390">
        <ele>274.4</ele>
        <time>2019-07-09T10:01:01Z</time>
      </trkpt>
      <trkpt lat="39.7637770" lon="-5.7109930">
        <ele>274.0</ele>
        <time>2019-07-09T10:01:02Z</time>
      </trkpt>
      <trkpt lat="39.7638600" lon="-5.7110450">
        <ele>273.4</ele>
        <time>2019-07-09T10:01:03Z</time>
      </trkpt>
      <trkpt lat="39.7641060" lon="-5.7112140">
        <ele>272.2</ele>
        <time>2019-07-09T10:01:06Z</time>
      </trkpt>
      <trkpt lat="39.7643550" lon="-5.7113780">
        <ele>271.4</ele>
        <time>2019-07-09T10:01:09Z</time>
      </trkpt>
      <trkpt lat="39.7644380" lon="-5.7114290">
        <ele>271.0</ele>
        <time>2019-07-09T10:01:10Z</time>
      </trkpt>
      <trkpt lat="39.7647550" lon="-5.7116410">
        <ele>269.6</ele>
        <time>2019-07-09T10:01:14Z</time>
      </trkpt>
      <trkpt lat="39.7649780" lon="-5.7117940">
        <ele>268.2</ele>
        <time>2019-07-09T10:01:17Z</time>
      </trkpt>
      <trkpt lat="39.7654080" lon="-5.7120830">
        <ele>267.2</ele>
        <time>2019-07-09T10:01:23Z</time>
      </trkpt>
      <trkpt lat="39.7654750" lon="-5.7121330">
        <ele>267.2</ele>
        <time>2019-07-09T10:01:24Z</time>
      </trkpt>
      <trkpt lat="39.7658040" lon="-5.7123410">
        <ele>266.0</ele>
        <time>2019-07-09T10:01:29Z</time>
      </trkpt>
      <trkpt lat="39.7658680" lon="-5.7123840">
        <ele>265.8</ele>
        <time>2019-07-09T10:01:30Z</time>
      </trkpt>
      <trkpt lat="39.7661880" lon="-5.7126180">
        <ele>265.0</ele>
        <time>2019-07-09T10:01:35Z</time>
      </trkpt>
      <trkpt lat="39.7662540" lon="-5.7126590">
        <ele>264.8</ele>
        <time>2019-07-09T10:01:36Z</time>
      </trkpt>
      <trkpt lat="39.7665870" lon="-5.7128720">
        <ele>263.8</ele>
        <time>2019-07-09T10:01:41Z</time>
      </trkpt>
      <trkpt lat="39.7667190" lon="-5.7129640">
        <ele>263.2</ele>
        <time>2019-07-09T10:01:43Z</time>
      </trkpt>
      <trkpt lat="39.7668510" lon="-5.7130560">
        <ele>262.8</ele>
        <time>2019-07-09T10:01:45Z</time>
      </trkpt>
      <trkpt lat="39.7670520" lon="-5.7131840">
        <ele>261.6</ele>
        <time>2019-07-09T10:01:48Z</time>
      </trkpt>
      <trkpt lat="39.7673140" lon="-5.7133550">
        <ele>261.0</ele>
        <time>2019-07-09T10:01:52Z</time>
      </trkpt>
      <trkpt lat="39.7674410" lon="-5.7134390">
        <ele>260.8</ele>
        <time>2019-07-09T10:01:54Z</time>
      </trkpt>
      <trkpt lat="39.7678180" lon="-5.7136950">
        <ele>260.2</ele>
        <time>2019-07-09T10:02:00Z</time>
      </trkpt>
      <trkpt lat="39.7680940" lon="-5.7138770">
        <ele>259.8</ele>
        <time>2019-07-09T10:02:05Z</time>
      </trkpt>
      <trkpt lat="39.7683120" lon="-5.7139030">
        <ele>259.8</ele>
        <time>2019-07-09T10:02:09Z</time>
      </trkpt>
      <trkpt lat="39.7684510" lon="-5.7138030">
        <ele>259.6</ele>
        <time>2019-07-09T10:02:12Z</time>
      </trkpt>
      <trkpt lat="39.7684990" lon="-5.7137580">
        <ele>259.2</ele>
        <time>2019-07-09T10:02:13Z</time>
      </trkpt>
      <trkpt lat="39.7686060" lon="-5.7136590">
        <ele>258.6</ele>
        <time>2019-07-09T10:02:15Z</time>
      </trkpt>
      <trkpt lat="39.7687900" lon="-5.7134920">
        <ele>257.2</ele>
        <time>2019-07-09T10:02:18Z</time>
      </trkpt>
      <trkpt lat="39.7689890" lon="-5.7133080">
        <ele>256.0</ele>
        <time>2019-07-09T10:02:21Z</time>
      </trkpt>
      <trkpt lat="39.7691210" lon="-5.7131820">
        <ele>254.8</ele>
        <time>2019-07-09T10:02:23Z</time>
      </trkpt>
      <trkpt lat="39.7693200" lon="-5.7129990">
        <ele>254.0</ele>
        <time>2019-07-09T10:02:26Z</time>
      </trkpt>
      <trkpt lat="39.7694490" lon="-5.7128840">
        <ele>253.6</ele>
        <time>2019-07-09T10:02:28Z</time>
      </trkpt>
      <trkpt lat="39.7696990" lon="-5.7126800">
        <ele>252.6</ele>
        <time>2019-07-09T10:02:32Z</time>
      </trkpt>
      <trkpt lat="39.7698120" lon="-5.7125760">
        <ele>252.2</ele>
        <time>2019-07-09T10:02:34Z</time>
      </trkpt>
      <trkpt lat="39.7700930" lon="-5.7123210">
        <ele>252.0</ele>
        <time>2019-07-09T10:02:39Z</time>
      </trkpt>
      <trkpt lat="39.7701490" lon="-5.7122720">
        <ele>251.8</ele>
        <time>2019-07-09T10:02:40Z</time>
      </trkpt>
      <trkpt lat="39.7703110" lon="-5.7121300">
        <ele>251.6</ele>
        <time>2019-07-09T10:02:43Z</time>
      </trkpt>
      <trkpt lat="39.7703620" lon="-5.7120860">
        <ele>251.6</ele>
        <time>2019-07-09T10:02:44Z</time>
      </trkpt>
      <trkpt lat="39.7705660" lon="-5.7119190">
        <ele>251.4</ele>
        <time>2019-07-09T10:02:48Z</time>
      </trkpt>
      <trkpt lat="39.7708360" lon="-5.7116750">
        <ele>251.6</ele>
        <time>2019-07-09T10:02:54Z</time>
      </trkpt>
      <trkpt lat="39.7708790" lon="-5.7116370">
        <ele>252.0</ele>
        <time>2019-07-09T10:02:55Z</time>
      </trkpt>
      <trkpt lat="39.7710620" lon="-5.7114910">
        <ele>251.8</ele>
        <time>2019-07-09T10:02:59Z</time>
      </trkpt>
      <trkpt lat="39.7712290" lon="-5.7114040">
        <ele>251.0</ele>
        <time>2019-07-09T10:03:02Z</time>
      </trkpt>
      <trkpt lat="39.7713500" lon="-5.7113400">
        <ele>250.6</ele>
        <time>2019-07-09T10:03:04Z</time>
      </trkpt>
      <trkpt lat="39.7715480" lon="-5.7112210">
        <ele>249.6</ele>
        <time>2019-07-09T10:03:07Z</time>
      </trkpt>
      <trkpt lat="39.7716840" lon="-5.7111480">
        <ele>248.6</ele>
        <time>2019-07-09T10:03:09Z</time>
      </trkpt>
      <trkpt lat="39.7719960" lon="-5.7109780">
        <ele>247.8</ele>
        <time>2019-07-09T10:03:14Z</time>
      </trkpt>
      <trkpt lat="39.7722260" lon="-5.7108560">
        <ele>247.8</ele>
        <time>2019-07-09T10:03:18Z</time>
      </trkpt>
      <trkpt lat="39.7723930" lon="-5.7107620">
        <ele>247.8</ele>
        <time>2019-07-09T10:03:21Z</time>
      </trkpt>
      <trkpt lat="39.7725140" lon="-5.7106950">
        <ele>247.4</ele>
        <time>2019-07-09T10:03:23Z</time>
      </trkpt>
      <trkpt lat="39.7727650" lon="-5.7105290">
        <ele>246.6</ele>
        <time>2019-07-09T10:03:27Z</time>
      </trkpt>
      <trkpt lat="39.7728280" lon="-5.7104790">
        <ele>246.2</ele>
        <time>2019-07-09T10:03:28Z</time>
      </trkpt>
      <trkpt lat="39.7730160" lon="-5.7103110">
        <ele>245.2</ele>
        <time>2019-07-09T10:03:31Z</time>
      </trkpt>
      <trkpt lat="39.7730800" lon="-5.7102530">
        <ele>245.0</ele>
        <time>2019-07-09T10:03:32Z</time>
      </trkpt>
      <trkpt lat="39.7732120" lon="-5.7101520">
        <ele>244.4</ele>
        <time>2019-07-09T10:03:34Z</time>
      </trkpt>
      <trkpt lat="39.7732810" lon="-5.7101110">
        <ele>244.2</ele>
        <time>2019-07-09T10:03:35Z</time>
      </trkpt>
      <trkpt lat="39.7734790" lon="-5.7100490">
        <ele>244.2</ele>
        <time>2019-07-09T10:03:38Z</time>
      </trkpt>
      <trkpt lat="39.7735370" lon="-5.7100420">
        <ele>244.2</ele>
        <time>2019-07-09T10:03:39Z</time>
      </trkpt>
      <trkpt lat="39.7736420" lon="-5.7100460">
        <ele>244.8</ele>
        <time>2019-07-09T10:03:41Z</time>
      </trkpt>
      <trkpt lat="39.7736890" lon="-5.7100630">
        <ele>245.2</ele>
        <time>2019-07-09T10:03:42Z</time>
      </trkpt>
      <trkpt lat="39.7738120" lon="-5.7101290">
        <ele>246.2</ele>
        <time>2019-07-09T10:03:45Z</time>
      </trkpt>
      <trkpt lat="39.7739190" lon="-5.7102150">
        <ele>247.2</ele>
        <time>2019-07-09T10:03:48Z</time>
      </trkpt>
      <trkpt lat="39.7740470" lon="-5.7103440">
        <ele>247.6</ele>
        <time>2019-07-09T10:03:52Z</time>
      </trkpt>
      <trkpt lat="39.7741650" lon="-5.7104930">
        <ele>248.2</ele>
        <time>2019-07-09T10:03:56Z</time>
      </trkpt>
      <trkpt lat="39.7741960" lon="-5.7105290">
        <ele>248.4</ele>
        <time>2019-07-09T10:03:57Z</time>
      </trkpt>
      <trkpt lat="39.7742290" lon="-5.7105600">
        <ele>248.8</ele>
        <time>2019-07-09T10:03:58Z</time>
      </trkpt>
      <trkpt lat="39.7743340" lon="-5.7106400">
        <ele>249.2</ele>
        <time>2019-07-09T10:04:01Z</time>
      </trkpt>
      <trkpt lat="39.7743990" lon="-5.7106990">
        <ele>249.4</ele>
        <time>2019-07-09T10:04:03Z</time>
      </trkpt>
      <trkpt lat="39.7744570" lon="-5.7107510">
        <ele>250.0</ele>
        <time>2019-07-09T10:04:05Z</time>
      </trkpt>
      <trkpt lat="39.7745330" lon="-5.7108360">
        <ele>250.4</ele>
        <time>2019-07-09T10:04:08Z</time>
      </trkpt>
      <trkpt lat="39.7745880" lon="-5.7108910">
        <ele>250.6</ele>
        <time>2019-07-09T10:04:10Z</time>
      </trkpt>
      <trkpt lat="39.7746450" lon="-5.7109460">
        <ele>251.0</ele>
        <time>2019-07-09T10:04:12Z</time>
      </trkpt>
      <trkpt lat="39.7747690" lon="-5.7110340">
        <ele>251.4</ele>
        <time>2019-07-09T10:04:16Z</time>
      </trkpt>
      <trkpt lat="39.7747990" lon="-5.7110570">
        <ele>251.8</ele>
        <time>2019-07-09T10:04:17Z</time>
      </trkpt>
      <trkpt lat="39.7748300" lon="-5.7110790">
        <ele>252.0</ele>
        <time>2019-07-09T10:04:18Z</time>
      </trkpt>
      <trkpt lat="39.7750500" lon="-5.7112220">
        <ele>253.0</ele>
        <time>2019-07-09T10:04:25Z</time>
      </trkpt>
      <trkpt lat="39.7751120" lon="-5.7112640">
        <ele>253.2</ele>
        <time>2019-07-09T10:04:27Z</time>
      </trkpt>
      <trkpt lat="39.7752740" lon="-5.7113920">
        <ele>253.8</ele>
        <time>2019-07-09T10:04:32Z</time>
      </trkpt>
      <trkpt lat="39.7753470" lon="-5.7114510">
        <ele>253.6</ele>
        <time>2019-07-09T10:04:34Z</time>
      </trkpt>
      <trkpt lat="39.7753840" lon="-5.7114850">
        <ele>253.6</ele>
        <time>2019-07-09T10:04:35Z</time>
      </trkpt>
      <trkpt lat="39.7754620" lon="-5.7115550">
        <ele>253.2</ele>
        <time>2019-07-09T10:04:37Z</time>
      </trkpt>
      <trkpt lat="39.7755900" lon="-5.7116570">
        <ele>253.0</ele>
        <time>2019-07-09T10:04:40Z</time>
      </trkpt>
      <trkpt lat="39.7757300" lon="-5.7117690">
        <ele>252.4</ele>
        <time>2019-07-09T10:04:43Z</time>
      </trkpt>
      <trkpt lat="39.7757820" lon="-5.7118020">
        <ele>252.2</ele>
        <time>2019-07-09T10:04:44Z</time>
      </trkpt>
      <trkpt lat="39.7758380" lon="-5.7118330">
        <ele>252.0</ele>
        <time>2019-07-09T10:04:45Z</time>
      </trkpt>
      <trkpt lat="39.7758970" lon="-5.7118620">
        <ele>251.8</ele>
        <time>2019-07-09T10:04:46Z</time>
      </trkpt>
      <trkpt lat="39.7759590" lon="-5.7118880">
        <ele>251.6</ele>
        <time>2019-07-09T10:04:47Z</time>
      </trkpt>
      <trkpt lat="39.7760240" lon="-5.7119100">
        <ele>251.2</ele>
        <time>2019-07-09T10:04:48Z</time>
      </trkpt>
      <trkpt lat="39.7760930" lon="-5.7119220">
        <ele>251.0</ele>
        <time>2019-07-09T10:04:49Z</time>
      </trkpt>
      <trkpt lat="39.7762290" lon="-5.7119180">
        <ele>250.4</ele>
        <time>2019-07-09T10:04:51Z</time>
      </trkpt>
      <trkpt lat="39.7763560" lon="-5.7118670">
        <ele>249.6</ele>
        <time>2019-07-09T10:04:53Z</time>
      </trkpt>
      <trkpt lat="39.7764090" lon="-5.7118240">
        <ele>249.4</ele>
        <time>2019-07-09T10:04:54Z</time>
      </trkpt>
      <trkpt lat="39.7764960" lon="-5.7117220">
        <ele>249.2</ele>
        <time>2019-07-09T10:04:56Z</time>
      </trkpt>
      <trkpt lat="39.7765620" lon="-5.7116110">
        <ele>249.2</ele>
        <time>2019-07-09T10:04:58Z</time>
      </trkpt>
      <trkpt lat="39.7765960" lon="-5.7115600">
        <ele>249.4</ele>
        <time>2019-07-09T10:04:59Z</time>
      </trkpt>
      <trkpt lat="39.7766670" lon="-5.7114660">
        <ele>249.4</ele>
        <time>2019-07-09T10:05:01Z</time>
      </trkpt>
      <trkpt lat="39.7767790" lon="-5.7113400">
        <ele>249.8</ele>
        <time>2019-07-09T10:05:04Z</time>
      </trkpt>
      <trkpt lat="39.7768520" lon="-5.7112550">
        <ele>249.8</ele>
        <time>2019-07-09T10:05:06Z</time>
      </trkpt>
      <trkpt lat="39.7768900" lon="-5.7112200">
        <ele>249.8</ele>
        <time>2019-07-09T10:05:07Z</time>
      </trkpt>
      <trkpt lat="39.7769610" lon="-5.7111570">
        <ele>249.6</ele>
        <time>2019-07-09T10:05:09Z</time>
      </trkpt>
      <trkpt lat="39.7770690" lon="-5.7110770">
        <ele>249.6</ele>
        <time>2019-07-09T10:05:13Z</time>
      </trkpt>
      <trkpt lat="39.7771370" lon="-5.7110550">
        <ele>249.8</ele>
        <time>2019-07-09T10:05:16Z</time>
      </trkpt>
      <trkpt lat="39.7771820" lon="-5.7110820">
        <ele>249.8</ele>
        <time>2019-07-09T10:05:18Z</time>
      </trkpt>
      <trkpt lat="39.7772050" lon="-5.7110980">
        <ele>249.4</ele>
        <time>2019-07-09T10:05:21Z</time>
      </trkpt>
      <trkpt lat="39.7772340" lon="-5.7110800">
        <ele>249.0</ele>
        <time>2019-07-09T10:05:27Z</time>
      </trkpt>
      <trkpt lat="39.7773330" lon="-5.7110140">
        <ele>248.8</ele>
        <time>2019-07-09T10:05:30Z</time>
      </trkpt>
      <trkpt lat="39.7773790" lon="-5.7110010">
        <ele>248.8</ele>
        <time>2019-07-09T10:05:31Z</time>
      </trkpt>
      <trkpt lat="39.7774700" lon="-5.7110100">
        <ele>247.4</ele>
        <time>2019-07-09T10:05:33Z</time>
      </trkpt>
      <trkpt lat="39.7775460" lon="-5.7110240">
        <ele>246.0</ele>
        <time>2019-07-09T10:05:35Z</time>
      </trkpt>
      <trkpt lat="39.7776070" lon="-5.7109980">
        <ele>245.0</ele>
        <time>2019-07-09T10:05:37Z</time>
      </trkpt>
      <trkpt lat="39.7776270" lon="-5.7109660">
        <ele>244.4</ele>
        <time>2019-07-09T10:05:38Z</time>
      </trkpt>
      <trkpt lat="39.7776420" lon="-5.7109310">
        <ele>243.6</ele>
        <time>2019-07-09T10:05:39Z</time>
      </trkpt>
      <trkpt lat="39.7776790" lon="-5.7108720">
        <ele>242.4</ele>
        <time>2019-07-09T10:05:41Z</time>
      </trkpt>
      <trkpt lat="39.7777050" lon="-5.7108530">
        <ele>242.0</ele>
        <time>2019-07-09T10:05:42Z</time>
      </trkpt>
      <trkpt lat="39.7777990" lon="-5.7108530">
        <ele>240.8</ele>
        <time>2019-07-09T10:05:45Z</time>
      </trkpt>
      <trkpt lat="39.7778310" lon="-5.7108560">
        <ele>240.2</ele>
        <time>2019-07-09T10:05:46Z</time>
      </trkpt>
      <trkpt lat="39.7778660" lon="-5.7108550">
        <ele>240.0</ele>
        <time>2019-07-09T10:05:47Z</time>
      </trkpt>
      <trkpt lat="39.7779620" lon="-5.7108540">
        <ele>238.8</ele>
        <time>2019-07-09T10:05:50Z</time>
      </trkpt>
      <trkpt lat="39.7779830" lon="-5.7108530">
        <ele>238.0</ele>
        <time>2019-07-09T10:05:51Z</time>
      </trkpt>
      <trkpt lat="39.7779990" lon="-5.7108510">
        <ele>237.6</ele>
        <time>2019-07-09T10:05:52Z</time>
      </trkpt>
      <trkpt lat="39.7780340" lon="-5.7108500">
        <ele>236.6</ele>
        <time>2019-07-09T10:05:55Z</time>
      </trkpt>
      <trkpt lat="39.7780390" lon="-5.7108490">
        <ele>236.4</ele>
        <time>2019-07-09T10:05:56Z</time>
      </trkpt>
      <trkpt lat="39.7780590" lon="-5.7108530">
        <ele>235.8</ele>
        <time>2019-07-09T10:05:59Z</time>
      </trkpt>
      <trkpt lat="39.7780580" lon="-5.7108530">
        <ele>235.8</ele>
        <time>2019-07-09T10:06:00Z</time>
      </trkpt>
      <trkpt lat="39.7780550" lon="-5.7108950">
        <ele>235.8</ele>
        <time>2019-07-09T10:06:26Z</time>
      </trkpt>
      <trkpt lat="39.7780450" lon="-5.7109360">
        <ele>235.6</ele>
        <time>2019-07-09T10:06:28Z</time>
      </trkpt>
      <trkpt lat="39.7780380" lon="-5.7109560">
        <ele>235.6</ele>
        <time>2019-07-09T10:06:29Z</time>
      </trkpt>
      <trkpt lat="39.7780340" lon="-5.7110000">
        <ele>235.6</ele>
        <time>2019-07-09T10:06:31Z</time>
      </trkpt>
      <trkpt lat="39.7780310" lon="-5.7110670">
        <ele>235.8</ele>
        <time>2019-07-09T10:06:34Z</time>
      </trkpt>
      <trkpt lat="39.7780260" lon="-5.7110960">
        <ele>236.0</ele>
        <time>2019-07-09T10:06:36Z</time>
      </trkpt>
      <trkpt lat="39.7780260" lon="-5.7110980">
        <ele>236.0</ele>
        <time>2019-07-09T10:06:38Z</time>
      </trkpt>
      <trkpt lat="39.7780200" lon="-5.7110440">
        <ele>235.8</ele>
        <time>2019-07-09T10:08:12Z</time>
      </trkpt>
      <trkpt lat="39.7780410" lon="-5.7110020">
        <ele>235.8</ele>
        <time>2019-07-09T10:08:14Z</time>
      </trkpt>
      <trkpt lat="39.7781490" lon="-5.7108330">
        <ele>235.4</ele>
        <time>2019-07-09T10:08:20Z</time>
      </trkpt>
      <trkpt lat="39.7781810" lon="-5.7107510">
        <ele>235.4</ele>
        <time>2019-07-09T10:08:22Z</time>
      </trkpt>
      <trkpt lat="39.7782370" lon="-5.7105630">
        <ele>235.0</ele>
        <time>2019-07-09T10:08:26Z</time>
      </trkpt>
      <trkpt lat="39.7782530" lon="-5.7105120">
        <ele>234.8</ele>
        <time>2019-07-09T10:08:27Z</time>
      </trkpt>
      <trkpt lat="39.7782920" lon="-5.7104090">
        <ele>234.6</ele>
        <time>2019-07-09T10:08:29Z</time>
      </trkpt>
      <trkpt lat="39.7783470" lon="-5.7102380">
        <ele>234.6</ele>
        <time>2019-07-09T10:08:32Z</time>
      </trkpt>
      <trkpt lat="39.7783650" lon="-5.7101780">
        <ele>234.6</ele>
        <time>2019-07-09T10:08:33Z</time>
      </trkpt>
      <trkpt lat="39.7784070" lon="-5.7099630">
        <ele>233.6</ele>
        <time>2019-07-09T10:08:37Z</time>
      </trkpt>
      <trkpt lat="39.7784050" lon="-5.7099330">
        <ele>233.4</ele>
        <time>2019-07-09T10:08:38Z</time>
      </trkpt>
      <trkpt lat="39.7783930" lon="-5.7098720">
        <ele>232.8</ele>
        <time>2019-07-09T10:08:41Z</time>
      </trkpt>
      <trkpt lat="39.7784110" lon="-5.7098440">
        <ele>232.6</ele>
        <time>2019-07-09T10:08:43Z</time>
      </trkpt>
      <trkpt lat="39.7784350" lon="-5.7098690">
        <ele>232.6</ele>
        <time>2019-07-09T10:08:45Z</time>
      </trkpt>
      <trkpt lat="39.7784190" lon="-5.7099140">
        <ele>232.6</ele>
        <time>2019-07-09T10:08:47Z</time>
      </trkpt>
      <trkpt lat="39.7784020" lon="-5.7099370">
        <ele>232.6</ele>
        <time>2019-07-09T10:08:48Z</time>
      </trkpt>
      <trkpt lat="39.7783850" lon="-5.7099660">
        <ele>232.6</ele>
        <time>2019-07-09T10:08:49Z</time>
      </trkpt>
      <trkpt lat="39.7783600" lon="-5.7100400">
        <ele>232.6</ele>
        <time>2019-07-09T10:08:51Z</time>
      </trkpt>
      <trkpt lat="39.7783520" lon="-5.7101180">
        <ele>232.8</ele>
        <time>2019-07-09T10:08:53Z</time>
      </trkpt>
      <trkpt lat="39.7783360" lon="-5.7101920">
        <ele>233.2</ele>
        <time>2019-07-09T10:08:55Z</time>
      </trkpt>
      <trkpt lat="39.7782940" lon="-5.7103450">
        <ele>233.6</ele>
        <time>2019-07-09T10:08:59Z</time>
      </trkpt>
      <trkpt lat="39.7782860" lon="-5.7103830">
        <ele>233.6</ele>
        <time>2019-07-09T10:09:00Z</time>
      </trkpt>
      <trkpt lat="39.7782650" lon="-5.7104930">
        <ele>234.0</ele>
        <time>2019-07-09T10:09:03Z</time>
      </trkpt>
      <trkpt lat="39.7782270" lon="-5.7106350">
        <ele>234.4</ele>
        <time>2019-07-09T10:09:07Z</time>
      </trkpt>
      <trkpt lat="39.7781160" lon="-5.7107660">
        <ele>234.8</ele>
        <time>2019-07-09T10:09:12Z</time>
      </trkpt>
      <trkpt lat="39.7780870" lon="-5.7107810">
        <ele>234.8</ele>
        <time>2019-07-09T10:09:13Z</time>
      </trkpt>
      <trkpt lat="39.7780090" lon="-5.7108050">
        <ele>235.0</ele>
        <time>2019-07-09T10:09:16Z</time>
      </trkpt>
      <trkpt lat="39.7779660" lon="-5.7108200">
        <ele>235.4</ele>
        <time>2019-07-09T10:09:18Z</time>
      </trkpt>
      <trkpt lat="39.7779280" lon="-5.7108190">
        <ele>235.8</ele>
        <time>2019-07-09T10:09:20Z</time>
      </trkpt>
      <trkpt lat="39.7779090" lon="-5.7108080">
        <ele>236.2</ele>
        <time>2019-07-09T10:09:21Z</time>
      </trkpt>
      <trkpt lat="39.7778760" lon="-5.7108050">
        <ele>236.8</ele>
        <time>2019-07-09T10:09:23Z</time>
      </trkpt>
      <trkpt lat="39.7778260" lon="-5.7108070">
        <ele>237.2</ele>
        <time>2019-07-09T10:09:26Z</time>
      </trkpt>
      <trkpt lat="39.7778090" lon="-5.7108050">
        <ele>237.2</ele>
        <time>2019-07-09T10:09:27Z</time>
      </trkpt>
      <trkpt lat="39.7777570" lon="-5.7108020">
        <ele>238.2</ele>
        <time>2019-07-09T10:09:30Z</time>
      </trkpt>
      <trkpt lat="39.7777400" lon="-5.7108040">
        <ele>238.6</ele>
        <time>2019-07-09T10:09:31Z</time>
      </trkpt>
      <trkpt lat="39.7777250" lon="-5.7108060">
        <ele>239.0</ele>
        <time>2019-07-09T10:09:32Z</time>
      </trkpt>
      <trkpt lat="39.7776960" lon="-5.7108130">
        <ele>239.6</ele>
        <time>2019-07-09T10:09:34Z</time>
      </trkpt>
      <trkpt lat="39.7776590" lon="-5.7108440">
        <ele>240.6</ele>
        <time>2019-07-09T10:09:37Z</time>
      </trkpt>
      <trkpt lat="39.7776390" lon="-5.7108770">
        <ele>241.2</ele>
        <time>2019-07-09T10:09:39Z</time>
      </trkpt>
      <trkpt lat="39.7776120" lon="-5.7109280">
        <ele>241.6</ele>
        <time>2019-07-09T10:09:42Z</time>
      </trkpt>
      <trkpt lat="39.7775720" lon="-5.7109950">
        <ele>242.4</ele>
        <time>2019-07-09T10:09:46Z</time>
      </trkpt>
      <trkpt lat="39.7775410" lon="-5.7110280">
        <ele>242.8</ele>
        <time>2019-07-09T10:09:49Z</time>
      </trkpt>
      <trkpt lat="39.7775020" lon="-5.7110410">
        <ele>243.2</ele>
        <time>2019-07-09T10:09:52Z</time>
      </trkpt>
      <trkpt lat="39.7774280" lon="-5.7110280">
        <ele>243.8</ele>
        <time>2019-07-09T10:09:57Z</time>
      </trkpt>
      <trkpt lat="39.7774140" lon="-5.7110240">
        <ele>244.2</ele>
        <time>2019-07-09T10:09:58Z</time>
      </trkpt>
      <trkpt lat="39.7773390" lon="-5.7110130">
        <ele>244.8</ele>
        <time>2019-07-09T10:10:03Z</time>
      </trkpt>
      <trkpt lat="39.7772940" lon="-5.7110150">
        <ele>245.8</ele>
        <time>2019-07-09T10:10:06Z</time>
      </trkpt>
      <trkpt lat="39.7772800" lon="-5.7110160">
        <ele>246.0</ele>
        <time>2019-07-09T10:10:07Z</time>
      </trkpt>
      <trkpt lat="39.7772110" lon="-5.7110490">
        <ele>247.4</ele>
        <time>2019-07-09T10:10:12Z</time>
      </trkpt>
      <trkpt lat="39.7771800" lon="-5.7110600">
        <ele>248.0</ele>
        <time>2019-07-09T10:10:14Z</time>
      </trkpt>
      <trkpt lat="39.7771480" lon="-5.7110710">
        <ele>248.6</ele>
        <time>2019-07-09T10:10:16Z</time>
      </trkpt>
      <trkpt lat="39.7771130" lon="-5.7110620">
        <ele>248.8</ele>
        <time>2019-07-09T10:10:18Z</time>
      </trkpt>
      <trkpt lat="39.7770990" lon="-5.7110260">
        <ele>249.0</ele>
        <time>2019-07-09T10:10:20Z</time>
      </trkpt>
      <trkpt lat="39.7771010" lon="-5.7109770">
        <ele>249.4</ele>
        <time>2019-07-09T10:10:22Z</time>
      </trkpt>
      <trkpt lat="39.7771130" lon="-5.7109240">
        <ele>249.6</ele>
        <time>2019-07-09T10:10:24Z</time>
      </trkpt>
      <trkpt lat="39.7771390" lon="-5.7108700">
        <ele>249.6</ele>
        <time>2019-07-09T10:10:26Z</time>
      </trkpt>
      <trkpt lat="39.7771650" lon="-5.7107280">
        <ele>249.6</ele>
        <time>2019-07-09T10:10:30Z</time>
      </trkpt>
      <trkpt lat="39.7771750" lon="-5.7106480">
        <ele>249.6</ele>
        <time>2019-07-09T10:10:32Z</time>
      </trkpt>
      <trkpt lat="39.7771890" lon="-5.7105310">
        <ele>249.8</ele>
        <time>2019-07-09T10:10:35Z</time>
      </trkpt>
      <trkpt lat="39.7772100" lon="-5.7104080">
        <ele>250.0</ele>
        <time>2019-07-09T10:10:38Z</time>
      </trkpt>
      <trkpt lat="39.7772350" lon="-5.7102740">
        <ele>250.2</ele>
        <time>2019-07-09T10:10:41Z</time>
      </trkpt>
      <trkpt lat="39.7772710" lon="-5.7101320">
        <ele>250.4</ele>
        <time>2019-07-09T10:10:44Z</time>
      </trkpt>
      <trkpt lat="39.7773460" lon="-5.7097700">
        <ele>250.4</ele>
        <time>2019-07-09T10:10:51Z</time>
      </trkpt>
      <trkpt lat="39.7773550" lon="-5.7097150">
        <ele>250.4</ele>
        <time>2019-07-09T10:10:52Z</time>
      </trkpt>
      <trkpt lat="39.7773990" lon="-5.7094340">
        <ele>250.6</ele>
        <time>2019-07-09T10:10:57Z</time>
      </trkpt>
      <trkpt lat="39.7774050" lon="-5.7093760">
        <ele>250.6</ele>
        <time>2019-07-09T10:10:58Z</time>
      </trkpt>
      <trkpt lat="39.7774130" lon="-5.7092600">
        <ele>250.8</ele>
        <time>2019-07-09T10:11:00Z</time>
      </trkpt>
      <trkpt lat="39.7774210" lon="-5.7090810">
        <ele>250.8</ele>
        <time>2019-07-09T10:11:03Z</time>
      </trkpt>
      <trkpt lat="39.7774270" lon="-5.7088380">
        <ele>251.0</ele>
        <time>2019-07-09T10:11:07Z</time>
      </trkpt>
      <trkpt lat="39.7774340" lon="-5.7084770">
        <ele>252.0</ele>
        <time>2019-07-09T10:11:13Z</time>
      </trkpt>
      <trkpt lat="39.7774340" lon="-5.7082190">
        <ele>252.0</ele>
        <time>2019-07-09T10:11:17Z</time>
      </trkpt>
      <trkpt lat="39.7774130" lon="-5.7077540">
        <ele>252.0</ele>
        <time>2019-07-09T10:11:24Z</time>
      </trkpt>
      <trkpt lat="39.7774100" lon="-5.7076890">
        <ele>252.0</ele>
        <time>2019-07-09T10:11:25Z</time>
      </trkpt>
      <trkpt lat="39.7774010" lon="-5.7071510">
        <ele>252.2</ele>
        <time>2019-07-09T10:11:33Z</time>
      </trkpt>
      <trkpt lat="39.7773920" lon="-5.7065260">
        <ele>251.2</ele>
        <time>2019-07-09T10:11:41Z</time>
      </trkpt>
      <trkpt lat="39.7773890" lon="-5.7063610">
        <ele>251.2</ele>
        <time>2019-07-09T10:11:43Z</time>
      </trkpt>
      <trkpt lat="39.7773740" lon="-5.7058670">
        <ele>250.4</ele>
        <time>2019-07-09T10:11:49Z</time>
      </trkpt>
      <trkpt lat="39.7773690" lon="-5.7057020">
        <ele>250.2</ele>
        <time>2019-07-09T10:11:51Z</time>
      </trkpt>
      <trkpt lat="39.7773670" lon="-5.7056190">
        <ele>250.0</ele>
        <time>2019-07-09T10:11:52Z</time>
      </trkpt>
      <trkpt lat="39.7773660" lon="-5.7052770">
        <ele>249.8</ele>
        <time>2019-07-09T10:11:56Z</time>
      </trkpt>
      <trkpt lat="39.7773790" lon="-5.7050190">
        <ele>249.4</ele>
        <time>2019-07-09T10:11:59Z</time>
      </trkpt>
      <trkpt lat="39.7773830" lon="-5.7049330">
        <ele>249.4</ele>
        <time>2019-07-09T10:12:00Z</time>
      </trkpt>
      <trkpt lat="39.7773890" lon="-5.7048470">
        <ele>249.2</ele>
        <time>2019-07-09T10:12:01Z</time>
      </trkpt>
      <trkpt lat="39.7774050" lon="-5.7046740">
        <ele>249.0</ele>
        <time>2019-07-09T10:12:03Z</time>
      </trkpt>
      <trkpt lat="39.7774360" lon="-5.7044060">
        <ele>248.8</ele>
        <time>2019-07-09T10:12:06Z</time>
      </trkpt>
      <trkpt lat="39.7774940" lon="-5.7040420">
        <ele>248.0</ele>
        <time>2019-07-09T10:12:10Z</time>
      </trkpt>
      <trkpt lat="39.7775110" lon="-5.7039500">
        <ele>247.8</ele>
        <time>2019-07-09T10:12:11Z</time>
      </trkpt>
      <trkpt lat="39.7776270" lon="-5.7035010">
        <ele>247.0</ele>
        <time>2019-07-09T10:12:16Z</time>
      </trkpt>
      <trkpt lat="39.7776540" lon="-5.7034130">
        <ele>246.8</ele>
        <time>2019-07-09T10:12:17Z</time>
      </trkpt>
      <trkpt lat="39.7776810" lon="-5.7033240">
        <ele>246.6</ele>
        <time>2019-07-09T10:12:18Z</time>
      </trkpt>
      <trkpt lat="39.7777950" lon="-5.7029830">
        <ele>246.0</ele>
        <time>2019-07-09T10:12:22Z</time>
      </trkpt>
      <trkpt lat="39.7778230" lon="-5.7029000">
        <ele>245.8</ele>
        <time>2019-07-09T10:12:23Z</time>
      </trkpt>
      <trkpt lat="39.7779160" lon="-5.7026560">
        <ele>245.2</ele>
        <time>2019-07-09T10:12:26Z</time>
      </trkpt>
      <trkpt lat="39.7780460" lon="-5.7023320">
        <ele>244.8</ele>
        <time>2019-07-09T10:12:30Z</time>
      </trkpt>
      <trkpt lat="39.7781040" lon="-5.7021670">
        <ele>244.6</ele>
        <time>2019-07-09T10:12:32Z</time>
      </trkpt>
      <trkpt lat="39.7781660" lon="-5.7020060">
        <ele>244.2</ele>
        <time>2019-07-09T10:12:34Z</time>
      </trkpt>
      <trkpt lat="39.7782670" lon="-5.7017710">
        <ele>244.0</ele>
        <time>2019-07-09T10:12:37Z</time>
      </trkpt>
      <trkpt lat="39.7784020" lon="-5.7014570">
        <ele>243.4</ele>
        <time>2019-07-09T10:12:41Z</time>
      </trkpt>
      <trkpt lat="39.7784690" lon="-5.7013080">
        <ele>243.4</ele>
        <time>2019-07-09T10:12:43Z</time>
      </trkpt>
      <trkpt lat="39.7785590" lon="-5.7010990">
        <ele>243.4</ele>
        <time>2019-07-09T10:12:46Z</time>
      </trkpt>
      <trkpt lat="39.7786320" lon="-5.7009020">
        <ele>243.8</ele>
        <time>2019-07-09T10:12:49Z</time>
      </trkpt>
      <trkpt lat="39.7786480" lon="-5.7008380">
        <ele>244.0</ele>
        <time>2019-07-09T10:12:50Z</time>
      </trkpt>
      <trkpt lat="39.7786730" lon="-5.7006430">
        <ele>244.4</ele>
        <time>2019-07-09T10:12:53Z</time>
      </trkpt>
      <trkpt lat="39.7786800" lon="-5.7005810">
        <ele>244.6</ele>
        <time>2019-07-09T10:12:54Z</time>
      </trkpt>
      <trkpt lat="39.7787020" lon="-5.7004000">
        <ele>244.8</ele>
        <time>2019-07-09T10:12:57Z</time>
      </trkpt>
      <trkpt lat="39.7787150" lon="-5.7002300">
        <ele>245.8</ele>
        <time>2019-07-09T10:13:00Z</time>
      </trkpt>
      <trkpt lat="39.7787190" lon="-5.7001190">
        <ele>246.4</ele>
        <time>2019-07-09T10:13:02Z</time>
      </trkpt>
      <trkpt lat="39.7787180" lon="-5.7000100">
        <ele>246.8</ele>
        <time>2019-07-09T10:13:04Z</time>
      </trkpt>
      <trkpt lat="39.7787180" lon="-5.6998480">
        <ele>247.4</ele>
        <time>2019-07-09T10:13:07Z</time>
      </trkpt>
      <trkpt lat="39.7787210" lon="-5.6997390">
        <ele>247.8</ele>
        <time>2019-07-09T10:13:09Z</time>
      </trkpt>
      <trkpt lat="39.7787220" lon="-5.6996830">
        <ele>248.0</ele>
        <time>2019-07-09T10:13:10Z</time>
      </trkpt>
      <trkpt lat="39.7787220" lon="-5.6995170">
        <ele>248.8</ele>
        <time>2019-07-09T10:13:13Z</time>
      </trkpt>
      <trkpt lat="39.7787250" lon="-5.6994120">
        <ele>249.2</ele>
        <time>2019-07-09T10:13:15Z</time>
      </trkpt>
      <trkpt lat="39.7787260" lon="-5.6992490">
        <ele>249.6</ele>
        <time>2019-07-09T10:13:18Z</time>
      </trkpt>
      <trkpt lat="39.7787270" lon="-5.6990340">
        <ele>250.2</ele>
        <time>2019-07-09T10:13:22Z</time>
      </trkpt>
      <trkpt lat="39.7787300" lon="-5.6989240">
        <ele>250.4</ele>
        <time>2019-07-09T10:13:24Z</time>
      </trkpt>
      <trkpt lat="39.7787410" lon="-5.6987060">
        <ele>251.0</ele>
        <time>2019-07-09T10:13:28Z</time>
      </trkpt>
      <trkpt lat="39.7787380" lon="-5.6985400">
        <ele>251.4</ele>
        <time>2019-07-09T10:13:31Z</time>
      </trkpt>
      <trkpt lat="39.7787400" lon="-5.6982710">
        <ele>252.6</ele>
        <time>2019-07-09T10:13:36Z</time>
      </trkpt>
      <trkpt lat="39.7787410" lon="-5.6982170">
        <ele>252.6</ele>
        <time>2019-07-09T10:13:37Z</time>
      </trkpt>
      <trkpt lat="39.7787400" lon="-5.6978360">
        <ele>253.6</ele>
        <time>2019-07-09T10:13:44Z</time>
      </trkpt>
      <trkpt lat="39.7787420" lon="-5.6977830">
        <ele>254.0</ele>
        <time>2019-07-09T10:13:45Z</time>
      </trkpt>
      <trkpt lat="39.7787460" lon="-5.6973990">
        <ele>254.6</ele>
        <time>2019-07-09T10:13:52Z</time>
      </trkpt>
      <trkpt lat="39.7787430" lon="-5.6972860">
        <ele>255.0</ele>
        <time>2019-07-09T10:13:54Z</time>
      </trkpt>
      <trkpt lat="39.7787440" lon="-5.6972290">
        <ele>255.0</ele>
        <time>2019-07-09T10:13:55Z</time>
      </trkpt>
      <trkpt lat="39.7787760" lon="-5.6969450">
        <ele>255.6</ele>
        <time>2019-07-09T10:14:00Z</time>
      </trkpt>
      <trkpt lat="39.7788400" lon="-5.6967250">
        <ele>256.0</ele>
        <time>2019-07-09T10:14:04Z</time>
      </trkpt>
      <trkpt lat="39.7788930" lon="-5.6966150">
        <ele>256.0</ele>
        <time>2019-07-09T10:14:06Z</time>
      </trkpt>
      <trkpt lat="39.7790190" lon="-5.6963980">
        <ele>255.8</ele>
        <time>2019-07-09T10:14:10Z</time>
      </trkpt>
      <trkpt lat="39.7791500" lon="-5.6962740">
        <ele>256.0</ele>
        <time>2019-07-09T10:14:13Z</time>
      </trkpt>
      <trkpt lat="39.7793120" lon="-5.6961930">
        <ele>255.6</ele>
        <time>2019-07-09T10:14:16Z</time>
      </trkpt>
      <trkpt lat="39.7794310" lon="-5.6961620">
        <ele>255.4</ele>
        <time>2019-07-09T10:14:18Z</time>
      </trkpt>
      <trkpt lat="39.7794940" lon="-5.6961560">
        <ele>255.4</ele>
        <time>2019-07-09T10:14:19Z</time>
      </trkpt>
      <trkpt lat="39.7795560" lon="-5.6961530">
        <ele>255.4</ele>
        <time>2019-07-09T10:14:20Z</time>
      </trkpt>
      <trkpt lat="39.7797480" lon="-5.6961480">
        <ele>254.8</ele>
        <time>2019-07-09T10:14:23Z</time>
      </trkpt>
      <trkpt lat="39.7798090" lon="-5.6961460">
        <ele>254.6</ele>
        <time>2019-07-09T10:14:24Z</time>
      </trkpt>
      <trkpt lat="39.7802150" lon="-5.6961260">
        <ele>254.0</ele>
        <time>2019-07-09T10:14:31Z</time>
      </trkpt>
      <trkpt lat="39.7802700" lon="-5.6961270">
        <ele>254.0</ele>
        <time>2019-07-09T10:14:32Z</time>
      </trkpt>
      <trkpt lat="39.7803250" lon="-5.6961280">
        <ele>254.0</ele>
        <time>2019-07-09T10:14:33Z</time>
      </trkpt>
      <trkpt lat="39.7808230" lon="-5.6961400">
        <ele>254.0</ele>
        <time>2019-07-09T10:14:42Z</time>
      </trkpt>
      <trkpt lat="39.7812030" lon="-5.6961810">
        <ele>254.4</ele>
        <time>2019-07-09T10:14:49Z</time>
      </trkpt>
      <trkpt lat="39.7812460" lon="-5.6961970">
        <ele>254.6</ele>
        <time>2019-07-09T10:14:50Z</time>
      </trkpt>
      <trkpt lat="39.7813560" lon="-5.6962750">
        <ele>255.2</ele>
        <time>2019-07-09T10:14:53Z</time>
      </trkpt>
      <trkpt lat="39.7814520" lon="-5.6963680">
        <ele>256.0</ele>
        <time>2019-07-09T10:14:56Z</time>
      </trkpt>
      <trkpt lat="39.7815030" lon="-5.6964380">
        <ele>256.6</ele>
        <time>2019-07-09T10:14:58Z</time>
      </trkpt>
      <trkpt lat="39.7815830" lon="-5.6965800">
        <ele>257.2</ele>
        <time>2019-07-09T10:15:02Z</time>
      </trkpt>
      <trkpt lat="39.7816190" lon="-5.6967170">
        <ele>257.8</ele>
        <time>2019-07-09T10:15:05Z</time>
      </trkpt>
      <trkpt lat="39.7816330" lon="-5.6968140">
        <ele>258.2</ele>
        <time>2019-07-09T10:15:07Z</time>
      </trkpt>
      <trkpt lat="39.7816400" lon="-5.6968590">
        <ele>258.6</ele>
        <time>2019-07-09T10:15:08Z</time>
      </trkpt>
      <trkpt lat="39.7816520" lon="-5.6969870">
        <ele>259.4</ele>
        <time>2019-07-09T10:15:11Z</time>
      </trkpt>
      <trkpt lat="39.7816600" lon="-5.6971030">
        <ele>260.0</ele>
        <time>2019-07-09T10:15:14Z</time>
      </trkpt>
      <trkpt lat="39.7816510" lon="-5.6971720">
        <ele>260.4</ele>
        <time>2019-07-09T10:15:16Z</time>
      </trkpt>
      <trkpt lat="39.7816560" lon="-5.6972860">
        <ele>261.2</ele>
        <time>2019-07-09T10:15:20Z</time>
      </trkpt>
      <trkpt lat="39.7816500" lon="-5.6973500">
        <ele>261.6</ele>
        <time>2019-07-09T10:15:22Z</time>
      </trkpt>
      <trkpt lat="39.7816390" lon="-5.6974870">
        <ele>262.4</ele>
        <time>2019-07-09T10:15:26Z</time>
      </trkpt>
      <trkpt lat="39.7816240" lon="-5.6975950">
        <ele>263.0</ele>
        <time>2019-07-09T10:15:29Z</time>
      </trkpt>
      <trkpt lat="39.7816220" lon="-5.6977030">
        <ele>263.4</ele>
        <time>2019-07-09T10:15:32Z</time>
      </trkpt>
      <trkpt lat="39.7816170" lon="-5.6978120">
        <ele>264.0</ele>
        <time>2019-07-09T10:15:35Z</time>
      </trkpt>
      <trkpt lat="39.7816120" lon="-5.6979870">
        <ele>265.2</ele>
        <time>2019-07-09T10:15:40Z</time>
      </trkpt>
      <trkpt lat="39.7816140" lon="-5.6980230">
        <ele>265.6</ele>
        <time>2019-07-09T10:15:41Z</time>
      </trkpt>
      <trkpt lat="39.7816270" lon="-5.6982080">
        <ele>266.4</ele>
        <time>2019-07-09T10:15:46Z</time>
      </trkpt>
      <trkpt lat="39.7816430" lon="-5.6982790">
        <ele>266.8</ele>
        <time>2019-07-09T10:15:48Z</time>
      </trkpt>
      <trkpt lat="39.7816570" lon="-5.6983530">
        <ele>267.4</ele>
        <time>2019-07-09T10:15:50Z</time>
      </trkpt>
      <trkpt lat="39.7816860" lon="-5.6985010">
        <ele>268.4</ele>
        <time>2019-07-09T10:15:54Z</time>
      </trkpt>
      <trkpt lat="39.7817040" lon="-5.6985690">
        <ele>268.8</ele>
        <time>2019-07-09T10:15:56Z</time>
      </trkpt>
      <trkpt lat="39.7817390" lon="-5.6986740">
        <ele>269.6</ele>
        <time>2019-07-09T10:15:59Z</time>
      </trkpt>
      <trkpt lat="39.7817990" lon="-5.6988350">
        <ele>270.8</ele>
        <time>2019-07-09T10:16:04Z</time>
      </trkpt>
      <trkpt lat="39.7818860" lon="-5.6989990">
        <ele>271.6</ele>
        <time>2019-07-09T10:16:09Z</time>
      </trkpt>
      <trkpt lat="39.7819010" lon="-5.6990350">
        <ele>271.8</ele>
        <time>2019-07-09T10:16:10Z</time>
      </trkpt>
      <trkpt lat="39.7819730" lon="-5.6992110">
        <ele>272.6</ele>
        <time>2019-07-09T10:16:15Z</time>
      </trkpt>
      <trkpt lat="39.7820040" lon="-5.6992770">
        <ele>273.2</ele>
        <time>2019-07-09T10:16:17Z</time>
      </trkpt>
      <trkpt lat="39.7821050" lon="-5.6994820">
        <ele>274.2</ele>
        <time>2019-07-09T10:16:23Z</time>
      </trkpt>
      <trkpt lat="39.7821390" lon="-5.6995510">
        <ele>274.6</ele>
        <time>2019-07-09T10:16:25Z</time>
      </trkpt>
      <trkpt lat="39.7821970" lon="-5.6996460">
        <ele>275.4</ele>
        <time>2019-07-09T10:16:28Z</time>
      </trkpt>
      <trkpt lat="39.7822830" lon="-5.6997640">
        <ele>276.2</ele>
        <time>2019-07-09T10:16:32Z</time>
      </trkpt>
      <trkpt lat="39.7823060" lon="-5.6997890">
        <ele>276.6</ele>
        <time>2019-07-09T10:16:33Z</time>
      </trkpt>
      <trkpt lat="39.7824520" lon="-5.6999280">
        <ele>277.6</ele>
        <time>2019-07-09T10:16:39Z</time>
      </trkpt>
      <trkpt lat="39.7824790" lon="-5.6999460">
        <ele>277.8</ele>
        <time>2019-07-09T10:16:40Z</time>
      </trkpt>
      <trkpt lat="39.7826170" lon="-5.7000300">
        <ele>278.8</ele>
        <time>2019-07-09T10:16:45Z</time>
      </trkpt>
      <trkpt lat="39.7827320" lon="-5.7000750">
        <ele>279.8</ele>
        <time>2019-07-09T10:16:49Z</time>
      </trkpt>
      <trkpt lat="39.7829470" lon="-5.7001250">
        <ele>281.0</ele>
        <time>2019-07-09T10:16:56Z</time>
      </trkpt>
      <trkpt lat="39.7829780" lon="-5.7001310">
        <ele>281.2</ele>
        <time>2019-07-09T10:16:57Z</time>
      </trkpt>
      <trkpt lat="39.7831010" lon="-5.7001510">
        <ele>282.4</ele>
        <time>2019-07-09T10:17:01Z</time>
      </trkpt>
      <trkpt lat="39.7832220" lon="-5.7001750">
        <ele>283.6</ele>
        <time>2019-07-09T10:17:05Z</time>
      </trkpt>
      <trkpt lat="39.7832840" lon="-5.7001860">
        <ele>284.2</ele>
        <time>2019-07-09T10:17:07Z</time>
      </trkpt>
      <trkpt lat="39.7834070" lon="-5.7002100">
        <ele>284.8</ele>
        <time>2019-07-09T10:17:11Z</time>
      </trkpt>
      <trkpt lat="39.7835960" lon="-5.7002380">
        <ele>286.0</ele>
        <time>2019-07-09T10:17:17Z</time>
      </trkpt>
      <trkpt lat="39.7837550" lon="-5.7002520">
        <ele>287.0</ele>
        <time>2019-07-09T10:17:22Z</time>
      </trkpt>
      <trkpt lat="39.7838520" lon="-5.7002540">
        <ele>287.6</ele>
        <time>2019-07-09T10:17:25Z</time>
      </trkpt>
      <trkpt lat="39.7839470" lon="-5.7002450">
        <ele>288.2</ele>
        <time>2019-07-09T10:17:28Z</time>
      </trkpt>
      <trkpt lat="39.7841010" lon="-5.7002070">
        <ele>289.4</ele>
        <time>2019-07-09T10:17:33Z</time>
      </trkpt>
      <trkpt lat="39.7842540" lon="-5.7001630">
        <ele>290.4</ele>
        <time>2019-07-09T10:17:38Z</time>
      </trkpt>
      <trkpt lat="39.7843790" lon="-5.7001450">
        <ele>291.4</ele>
        <time>2019-07-09T10:17:42Z</time>
      </trkpt>
      <trkpt lat="39.7844100" lon="-5.7001410">
        <ele>291.6</ele>
        <time>2019-07-09T10:17:43Z</time>
      </trkpt>
      <trkpt lat="39.7845970" lon="-5.7000790">
        <ele>292.6</ele>
        <time>2019-07-09T10:17:49Z</time>
      </trkpt>
      <trkpt lat="39.7847560" lon="-5.7000240">
        <ele>293.8</ele>
        <time>2019-07-09T10:17:54Z</time>
      </trkpt>
      <trkpt lat="39.7849210" lon="-5.6999690">
        <ele>294.6</ele>
        <time>2019-07-09T10:17:59Z</time>
      </trkpt>
      <trkpt lat="39.7849550" lon="-5.6999590">
        <ele>294.8</ele>
        <time>2019-07-09T10:18:00Z</time>
      </trkpt>
      <trkpt lat="39.7851580" lon="-5.6998930">
        <ele>295.8</ele>
        <time>2019-07-09T10:18:06Z</time>
      </trkpt>
      <trkpt lat="39.7853230" lon="-5.6998310">
        <ele>297.0</ele>
        <time>2019-07-09T10:18:11Z</time>
      </trkpt>
      <trkpt lat="39.7854250" lon="-5.6998030">
        <ele>297.6</ele>
        <time>2019-07-09T10:18:14Z</time>
      </trkpt>
      <trkpt lat="39.7855260" lon="-5.6997700">
        <ele>298.4</ele>
        <time>2019-07-09T10:18:17Z</time>
      </trkpt>
      <trkpt lat="39.7856990" lon="-5.6997380">
        <ele>299.4</ele>
        <time>2019-07-09T10:18:22Z</time>
      </trkpt>
      <trkpt lat="39.7857350" lon="-5.6997410">
        <ele>299.6</ele>
        <time>2019-07-09T10:18:23Z</time>
      </trkpt>
      <trkpt lat="39.7859270" lon="-5.6998070">
        <ele>300.2</ele>
        <time>2019-07-09T10:18:28Z</time>
      </trkpt>
      <trkpt lat="39.7859630" lon="-5.6998330">
        <ele>300.4</ele>
        <time>2019-07-09T10:18:29Z</time>
      </trkpt>
      <trkpt lat="39.7860790" lon="-5.6999060">
        <ele>300.4</ele>
        <time>2019-07-09T10:18:32Z</time>
      </trkpt>
      <trkpt lat="39.7861200" lon="-5.6999230">
        <ele>300.0</ele>
        <time>2019-07-09T10:18:33Z</time>
      </trkpt>
      <trkpt lat="39.7862020" lon="-5.6999490">
        <ele>299.8</ele>
        <time>2019-07-09T10:18:35Z</time>
      </trkpt>
      <trkpt lat="39.7863270" lon="-5.6999860">
        <ele>300.0</ele>
        <time>2019-07-09T10:18:38Z</time>
      </trkpt>
      <trkpt lat="39.7864490" lon="-5.7000460">
        <ele>300.6</ele>
        <time>2019-07-09T10:18:41Z</time>
      </trkpt>
      <trkpt lat="39.7864930" lon="-5.7000590">
        <ele>300.6</ele>
        <time>2019-07-09T10:18:42Z</time>
      </trkpt>
      <trkpt lat="39.7866790" lon="-5.7000430">
        <ele>300.4</ele>
        <time>2019-07-09T10:18:46Z</time>
      </trkpt>
      <trkpt lat="39.7868160" lon="-5.7000450">
        <ele>301.0</ele>
        <time>2019-07-09T10:18:49Z</time>
      </trkpt>
      <trkpt lat="39.7868590" lon="-5.7000470">
        <ele>301.2</ele>
        <time>2019-07-09T10:18:50Z</time>
      </trkpt>
      <trkpt lat="39.7869020" lon="-5.7000480">
        <ele>301.2</ele>
        <time>2019-07-09T10:18:51Z</time>
      </trkpt>
      <trkpt lat="39.7870300" lon="-5.7000820">
        <ele>301.4</ele>
        <time>2019-07-09T10:18:54Z</time>
      </trkpt>
      <trkpt lat="39.7871130" lon="-5.7001250">
        <ele>301.0</ele>
        <time>2019-07-09T10:18:56Z</time>
      </trkpt>
      <trkpt lat="39.7874700" lon="-5.7003110">
        <ele>301.0</ele>
        <time>2019-07-09T10:19:04Z</time>
      </trkpt>
      <trkpt lat="39.7877780" lon="-5.7005030">
        <ele>301.0</ele>
        <time>2019-07-09T10:19:11Z</time>
      </trkpt>
      <trkpt lat="39.7879110" lon="-5.7005890">
        <ele>301.2</ele>
        <time>2019-07-09T10:19:14Z</time>
      </trkpt>
      <trkpt lat="39.7880840" lon="-5.7007230">
        <ele>300.6</ele>
        <time>2019-07-09T10:19:18Z</time>
      </trkpt>
      <trkpt lat="39.7883610" lon="-5.7010090">
        <ele>301.2</ele>
        <time>2019-07-09T10:19:25Z</time>
      </trkpt>
      <trkpt lat="39.7886370" lon="-5.7012990">
        <ele>301.0</ele>
        <time>2019-07-09T10:19:32Z</time>
      </trkpt>
      <trkpt lat="39.7888660" lon="-5.7016190">
        <ele>301.2</ele>
        <time>2019-07-09T10:19:39Z</time>
      </trkpt>
      <trkpt lat="39.7889610" lon="-5.7018510">
        <ele>301.6</ele>
        <time>2019-07-09T10:19:43Z</time>
      </trkpt>
      <trkpt lat="39.7889940" lon="-5.7019830">
        <ele>301.6</ele>
        <time>2019-07-09T10:19:45Z</time>
      </trkpt>
      <trkpt lat="39.7890300" lon="-5.7023360">
        <ele>302.0</ele>
        <time>2019-07-09T10:19:50Z</time>
      </trkpt>
      <trkpt lat="39.7890290" lon="-5.7024060">
        <ele>302.0</ele>
        <time>2019-07-09T10:19:51Z</time>
      </trkpt>
      <trkpt lat="39.7890270" lon="-5.7026190">
        <ele>302.0</ele>
        <time>2019-07-09T10:19:54Z</time>
      </trkpt>
      <trkpt lat="39.7890300" lon="-5.7029740">
        <ele>302.2</ele>
        <time>2019-07-09T10:19:59Z</time>
      </trkpt>
      <trkpt lat="39.7890080" lon="-5.7035320">
        <ele>301.8</ele>
        <time>2019-07-09T10:20:07Z</time>
      </trkpt>
      <trkpt lat="39.7890100" lon="-5.7036720">
        <ele>301.8</ele>
        <time>2019-07-09T10:20:09Z</time>
      </trkpt>
      <trkpt lat="39.7889910" lon="-5.7039580">
        <ele>301.6</ele>
        <time>2019-07-09T10:20:13Z</time>
      </trkpt>
      <trkpt lat="39.7889760" lon="-5.7045580">
        <ele>301.2</ele>
        <time>2019-07-09T10:20:21Z</time>
      </trkpt>
      <trkpt lat="39.7889790" lon="-5.7052040">
        <ele>300.8</ele>
        <time>2019-07-09T10:20:29Z</time>
      </trkpt>
      <trkpt lat="39.7889810" lon="-5.7052880">
        <ele>300.8</ele>
        <time>2019-07-09T10:20:30Z</time>
      </trkpt>
      <trkpt lat="39.7889740" lon="-5.7055410">
        <ele>301.0</ele>
        <time>2019-07-09T10:20:33Z</time>
      </trkpt>
      <trkpt lat="39.7889570" lon="-5.7059650">
        <ele>301.0</ele>
        <time>2019-07-09T10:20:38Z</time>
      </trkpt>
      <trkpt lat="39.7889540" lon="-5.7064810">
        <ele>300.6</ele>
        <time>2019-07-09T10:20:44Z</time>
      </trkpt>
      <trkpt lat="39.7889450" lon="-5.7066490">
        <ele>300.2</ele>
        <time>2019-07-09T10:20:46Z</time>
      </trkpt>
      <trkpt lat="39.7889090" lon="-5.7072280">
        <ele>299.8</ele>
        <time>2019-07-09T10:20:53Z</time>
      </trkpt>
      <trkpt lat="39.7889090" lon="-5.7073120">
        <ele>299.6</ele>
        <time>2019-07-09T10:20:54Z</time>
      </trkpt>
      <trkpt lat="39.7889100" lon="-5.7078550">
        <ele>300.2</ele>
        <time>2019-07-09T10:21:01Z</time>
      </trkpt>
      <trkpt lat="39.7888980" lon="-5.7085290">
        <ele>300.6</ele>
        <time>2019-07-09T10:21:11Z</time>
      </trkpt>
      <trkpt lat="39.7889110" lon="-5.7088440">
        <ele>300.8</ele>
        <time>2019-07-09T10:21:16Z</time>
      </trkpt>
      <trkpt lat="39.7889300" lon="-5.7089480">
        <ele>301.2</ele>
        <time>2019-07-09T10:21:18Z</time>
      </trkpt>
      <trkpt lat="39.7889460" lon="-5.7089970">
        <ele>301.2</ele>
        <time>2019-07-09T10:21:19Z</time>
      </trkpt>
      <trkpt lat="39.7890350" lon="-5.7090930">
        <ele>301.6</ele>
        <time>2019-07-09T10:21:22Z</time>
      </trkpt>
      <trkpt lat="39.7891520" lon="-5.7091220">
        <ele>302.0</ele>
        <time>2019-07-09T10:21:25Z</time>
      </trkpt>
      <trkpt lat="39.7892420" lon="-5.7091190">
        <ele>302.2</ele>
        <time>2019-07-09T10:21:27Z</time>
      </trkpt>
      <trkpt lat="39.7894360" lon="-5.7091160">
        <ele>302.6</ele>
        <time>2019-07-09T10:21:31Z</time>
      </trkpt>
      <trkpt lat="39.7896000" lon="-5.7091040">
        <ele>302.2</ele>
        <time>2019-07-09T10:21:34Z</time>
      </trkpt>
      <trkpt lat="39.7897570" lon="-5.7090620">
        <ele>301.6</ele>
        <time>2019-07-09T10:21:37Z</time>
      </trkpt>
      <trkpt lat="39.7898010" lon="-5.7090420">
        <ele>301.4</ele>
        <time>2019-07-09T10:21:38Z</time>
      </trkpt>
      <trkpt lat="39.7898430" lon="-5.7090250">
        <ele>301.2</ele>
        <time>2019-07-09T10:21:39Z</time>
      </trkpt>
      <trkpt lat="39.7900210" lon="-5.7089630">
        <ele>300.4</ele>
        <time>2019-07-09T10:21:43Z</time>
      </trkpt>
      <trkpt lat="39.7901570" lon="-5.7089170">
        <ele>300.0</ele>
        <time>2019-07-09T10:21:46Z</time>
      </trkpt>
      <trkpt lat="39.7902030" lon="-5.7089170">
        <ele>300.0</ele>
        <time>2019-07-09T10:21:47Z</time>
      </trkpt>
      <trkpt lat="39.7903240" lon="-5.7090050">
        <ele>299.6</ele>
        <time>2019-07-09T10:21:50Z</time>
      </trkpt>
      <trkpt lat="39.7904050" lon="-5.7092340">
        <ele>299.2</ele>
        <time>2019-07-09T10:21:54Z</time>
      </trkpt>
      <trkpt lat="39.7904270" lon="-5.7092930">
        <ele>299.2</ele>
        <time>2019-07-09T10:21:55Z</time>
      </trkpt>
      <trkpt lat="39.7904670" lon="-5.7094130">
        <ele>299.2</ele>
        <time>2019-07-09T10:21:57Z</time>
      </trkpt>
      <trkpt lat="39.7905030" lon="-5.7096040">
        <ele>299.2</ele>
        <time>2019-07-09T10:22:00Z</time>
      </trkpt>
      <trkpt lat="39.7905570" lon="-5.7097810">
        <ele>299.2</ele>
        <time>2019-07-09T10:22:03Z</time>
      </trkpt>
      <trkpt lat="39.7906160" lon="-5.7098730">
        <ele>299.0</ele>
        <time>2019-07-09T10:22:05Z</time>
      </trkpt>
      <trkpt lat="39.7906720" lon="-5.7099480">
        <ele>298.8</ele>
        <time>2019-07-09T10:22:07Z</time>
      </trkpt>
      <trkpt lat="39.7907150" lon="-5.7100930">
        <ele>298.8</ele>
        <time>2019-07-09T10:22:10Z</time>
      </trkpt>
      <trkpt lat="39.7906840" lon="-5.7102610">
        <ele>299.0</ele>
        <time>2019-07-09T10:22:13Z</time>
      </trkpt>
      <trkpt lat="39.7906650" lon="-5.7103160">
        <ele>299.0</ele>
        <time>2019-07-09T10:22:14Z</time>
      </trkpt>
      <trkpt lat="39.7906280" lon="-5.7104280">
        <ele>299.2</ele>
        <time>2019-07-09T10:22:16Z</time>
      </trkpt>
      <trkpt lat="39.7905290" lon="-5.7107810">
        <ele>299.6</ele>
        <time>2019-07-09T10:22:22Z</time>
      </trkpt>
      <trkpt lat="39.7903640" lon="-5.7113160">
        <ele>299.4</ele>
        <time>2019-07-09T10:22:31Z</time>
      </trkpt>
      <trkpt lat="39.7903300" lon="-5.7114400">
        <ele>299.4</ele>
        <time>2019-07-09T10:22:33Z</time>
      </trkpt>
      <trkpt lat="39.7901950" lon="-5.7119300">
        <ele>298.4</ele>
        <time>2019-07-09T10:22:40Z</time>
      </trkpt>
      <trkpt lat="39.7901710" lon="-5.7120090">
        <ele>298.2</ele>
        <time>2019-07-09T10:22:41Z</time>
      </trkpt>
      <trkpt lat="39.7900980" lon="-5.7122650">
        <ele>297.2</ele>
        <time>2019-07-09T10:22:44Z</time>
      </trkpt>
      <trkpt lat="39.7900720" lon="-5.7123560">
        <ele>296.8</ele>
        <time>2019-07-09T10:22:45Z</time>
      </trkpt>
      <trkpt lat="39.7900160" lon="-5.7125470">
        <ele>295.8</ele>
        <time>2019-07-09T10:22:47Z</time>
      </trkpt>
      <trkpt lat="39.7899330" lon="-5.7128610">
        <ele>294.4</ele>
        <time>2019-07-09T10:22:50Z</time>
      </trkpt>
      <trkpt lat="39.7898680" lon="-5.7130860">
        <ele>293.0</ele>
        <time>2019-07-09T10:22:52Z</time>
      </trkpt>
      <trkpt lat="39.7898330" lon="-5.7132030">
        <ele>292.4</ele>
        <time>2019-07-09T10:22:53Z</time>
      </trkpt>
      <trkpt lat="39.7897570" lon="-5.7134460">
        <ele>291.4</ele>
        <time>2019-07-09T10:22:55Z</time>
      </trkpt>
      <trkpt lat="39.7896770" lon="-5.7136910">
        <ele>290.0</ele>
        <time>2019-07-09T10:22:57Z</time>
      </trkpt>
      <trkpt lat="39.7895910" lon="-5.7139270">
        <ele>288.4</ele>
        <time>2019-07-09T10:22:59Z</time>
      </trkpt>
      <trkpt lat="39.7895450" lon="-5.7140410">
        <ele>288.0</ele>
        <time>2019-07-09T10:23:00Z</time>
      </trkpt>
      <trkpt lat="39.7894500" lon="-5.7142580">
        <ele>287.4</ele>
        <time>2019-07-09T10:23:02Z</time>
      </trkpt>
      <trkpt lat="39.7892380" lon="-5.7147690">
        <ele>286.6</ele>
        <time>2019-07-09T10:23:07Z</time>
      </trkpt>
      <trkpt lat="39.7890950" lon="-5.7150230">
        <ele>286.2</ele>
        <time>2019-07-09T10:23:10Z</time>
      </trkpt>
      <trkpt lat="39.7890080" lon="-5.7151860">
        <ele>286.0</ele>
        <time>2019-07-09T10:23:12Z</time>
      </trkpt>
      <trkpt lat="39.7888900" lon="-5.7154250">
        <ele>286.0</ele>
        <time>2019-07-09T10:23:15Z</time>
      </trkpt>
      <trkpt lat="39.7888180" lon="-5.7155910">
        <ele>285.8</ele>
        <time>2019-07-09T10:23:17Z</time>
      </trkpt>
      <trkpt lat="39.7887860" lon="-5.7156780">
        <ele>285.6</ele>
        <time>2019-07-09T10:23:18Z</time>
      </trkpt>
      <trkpt lat="39.7887580" lon="-5.7157690">
        <ele>285.4</ele>
        <time>2019-07-09T10:23:19Z</time>
      </trkpt>
      <trkpt lat="39.7886830" lon="-5.7161480">
        <ele>285.0</ele>
        <time>2019-07-09T10:23:23Z</time>
      </trkpt>
      <trkpt lat="39.7885840" lon="-5.7167780">
        <ele>284.4</ele>
        <time>2019-07-09T10:23:30Z</time>
      </trkpt>
      <trkpt lat="39.7885710" lon="-5.7168610">
        <ele>284.2</ele>
        <time>2019-07-09T10:23:31Z</time>
      </trkpt>
      <trkpt lat="39.7884920" lon="-5.7174160">
        <ele>283.8</ele>
        <time>2019-07-09T10:23:38Z</time>
      </trkpt>
      <trkpt lat="39.7883680" lon="-5.7179410">
        <ele>283.6</ele>
        <time>2019-07-09T10:23:45Z</time>
      </trkpt>
      <trkpt lat="39.7882910" lon="-5.7181550">
        <ele>283.6</ele>
        <time>2019-07-09T10:23:48Z</time>
      </trkpt>
      <trkpt lat="39.7881420" lon="-5.7184860">
        <ele>283.6</ele>
        <time>2019-07-09T10:23:53Z</time>
      </trkpt>
      <trkpt lat="39.7880820" lon="-5.7186240">
        <ele>283.2</ele>
        <time>2019-07-09T10:23:55Z</time>
      </trkpt>
      <trkpt lat="39.7879450" lon="-5.7189090">
        <ele>282.8</ele>
        <time>2019-07-09T10:23:59Z</time>
      </trkpt>
      <trkpt lat="39.7879100" lon="-5.7189830">
        <ele>282.6</ele>
        <time>2019-07-09T10:24:00Z</time>
      </trkpt>
      <trkpt lat="39.7877640" lon="-5.7192810">
        <ele>282.2</ele>
        <time>2019-07-09T10:24:04Z</time>
      </trkpt>
      <trkpt lat="39.7876120" lon="-5.7195840">
        <ele>281.4</ele>
        <time>2019-07-09T10:24:08Z</time>
      </trkpt>
      <trkpt lat="39.7875380" lon="-5.7197380">
        <ele>281.0</ele>
        <time>2019-07-09T10:24:10Z</time>
      </trkpt>
      <trkpt lat="39.7873890" lon="-5.7200540">
        <ele>280.0</ele>
        <time>2019-07-09T10:24:14Z</time>
      </trkpt>
      <trkpt lat="39.7873140" lon="-5.7202140">
        <ele>279.4</ele>
        <time>2019-07-09T10:24:16Z</time>
      </trkpt>
      <trkpt lat="39.7872360" lon="-5.7203740">
        <ele>279.0</ele>
        <time>2019-07-09T10:24:18Z</time>
      </trkpt>
      <trkpt lat="39.7871970" lon="-5.7204530">
        <ele>278.8</ele>
        <time>2019-07-09T10:24:19Z</time>
      </trkpt>
      <trkpt lat="39.7871580" lon="-5.7205330">
        <ele>278.6</ele>
        <time>2019-07-09T10:24:20Z</time>
      </trkpt>
      <trkpt lat="39.7870450" lon="-5.7207770">
        <ele>277.6</ele>
        <time>2019-07-09T10:24:23Z</time>
      </trkpt>
      <trkpt lat="39.7869280" lon="-5.7210240">
        <ele>276.4</ele>
        <time>2019-07-09T10:24:26Z</time>
      </trkpt>
      <trkpt lat="39.7867770" lon="-5.7213650">
        <ele>275.6</ele>
        <time>2019-07-09T10:24:30Z</time>
      </trkpt>
      <trkpt lat="39.7866940" lon="-5.7215340">
        <ele>275.2</ele>
        <time>2019-07-09T10:24:32Z</time>
      </trkpt>
      <trkpt lat="39.7864750" lon="-5.7219830">
        <ele>274.0</ele>
        <time>2019-07-09T10:24:37Z</time>
      </trkpt>
      <trkpt lat="39.7864320" lon="-5.7220790">
        <ele>273.6</ele>
        <time>2019-07-09T10:24:38Z</time>
      </trkpt>
      <trkpt lat="39.7863410" lon="-5.7222740">
        <ele>273.0</ele>
        <time>2019-07-09T10:24:40Z</time>
      </trkpt>
      <trkpt lat="39.7862030" lon="-5.7225690">
        <ele>271.6</ele>
        <time>2019-07-09T10:24:43Z</time>
      </trkpt>
      <trkpt lat="39.7860160" lon="-5.7229610">
        <ele>270.6</ele>
        <time>2019-07-09T10:24:47Z</time>
      </trkpt>
      <trkpt lat="39.7859700" lon="-5.7230570">
        <ele>270.2</ele>
        <time>2019-07-09T10:24:48Z</time>
      </trkpt>
      <trkpt lat="39.7858370" lon="-5.7233450">
        <ele>269.4</ele>
        <time>2019-07-09T10:24:51Z</time>
      </trkpt>
      <trkpt lat="39.7856220" lon="-5.7238000">
        <ele>268.6</ele>
        <time>2019-07-09T10:24:56Z</time>
      </trkpt>
      <trkpt lat="39.7855820" lon="-5.7238880">
        <ele>268.4</ele>
        <time>2019-07-09T10:24:57Z</time>
      </trkpt>
      <trkpt lat="39.7854640" lon="-5.7241340">
        <ele>267.8</ele>
        <time>2019-07-09T10:25:00Z</time>
      </trkpt>
      <trkpt lat="39.7853970" lon="-5.7242910">
        <ele>267.6</ele>
        <time>2019-07-09T10:25:02Z</time>
      </trkpt>
      <trkpt lat="39.7853660" lon="-5.7243670">
        <ele>267.4</ele>
        <time>2019-07-09T10:25:03Z</time>
      </trkpt>
      <trkpt lat="39.7853370" lon="-5.7244420">
        <ele>267.4</ele>
        <time>2019-07-09T10:25:04Z</time>
      </trkpt>
      <trkpt lat="39.7852800" lon="-5.7245900">
        <ele>267.4</ele>
        <time>2019-07-09T10:25:06Z</time>
      </trkpt>
      <trkpt lat="39.7851500" lon="-5.7248750">
        <ele>267.6</ele>
        <time>2019-07-09T10:25:10Z</time>
      </trkpt>
      <trkpt lat="39.7851190" lon="-5.7249480">
        <ele>267.4</ele>
        <time>2019-07-09T10:25:11Z</time>
      </trkpt>
      <trkpt lat="39.7848540" lon="-5.7255290">
        <ele>267.2</ele>
        <time>2019-07-09T10:25:19Z</time>
      </trkpt>
      <trkpt lat="39.7846750" lon="-5.7259050">
        <ele>266.4</ele>
        <time>2019-07-09T10:25:24Z</time>
      </trkpt>
      <trkpt lat="39.7845290" lon="-5.7262070">
        <ele>265.8</ele>
        <time>2019-07-09T10:25:28Z</time>
      </trkpt>
      <trkpt lat="39.7844030" lon="-5.7264370">
        <ele>265.4</ele>
        <time>2019-07-09T10:25:31Z</time>
      </trkpt>
      <trkpt lat="39.7842670" lon="-5.7266720">
        <ele>264.4</ele>
        <time>2019-07-09T10:25:34Z</time>
      </trkpt>
      <trkpt lat="39.7842230" lon="-5.7267560">
        <ele>264.2</ele>
        <time>2019-07-09T10:25:35Z</time>
      </trkpt>
      <trkpt lat="39.7840450" lon="-5.7271150">
        <ele>263.0</ele>
        <time>2019-07-09T10:25:39Z</time>
      </trkpt>
      <trkpt lat="39.7839530" lon="-5.7273050">
        <ele>262.0</ele>
        <time>2019-07-09T10:25:41Z</time>
      </trkpt>
      <trkpt lat="39.7839080" lon="-5.7274040">
        <ele>261.6</ele>
        <time>2019-07-09T10:25:42Z</time>
      </trkpt>
      <trkpt lat="39.7838180" lon="-5.7276010">
        <ele>260.6</ele>
        <time>2019-07-09T10:25:44Z</time>
      </trkpt>
      <trkpt lat="39.7837260" lon="-5.7277900">
        <ele>259.8</ele>
        <time>2019-07-09T10:25:46Z</time>
      </trkpt>
      <trkpt lat="39.7836810" lon="-5.7278850">
        <ele>259.6</ele>
        <time>2019-07-09T10:25:47Z</time>
      </trkpt>
      <trkpt lat="39.7835530" lon="-5.7281600">
        <ele>258.8</ele>
        <time>2019-07-09T10:25:50Z</time>
      </trkpt>
      <trkpt lat="39.7835110" lon="-5.7282470">
        <ele>258.6</ele>
        <time>2019-07-09T10:25:51Z</time>
      </trkpt>
      <trkpt lat="39.7834300" lon="-5.7284140">
        <ele>258.4</ele>
        <time>2019-07-09T10:25:53Z</time>
      </trkpt>
      <trkpt lat="39.7832880" lon="-5.7287240">
        <ele>258.4</ele>
        <time>2019-07-09T10:25:57Z</time>
      </trkpt>
      <trkpt lat="39.7832230" lon="-5.7288720">
        <ele>258.4</ele>
        <time>2019-07-09T10:25:59Z</time>
      </trkpt>
      <trkpt lat="39.7831890" lon="-5.7289440">
        <ele>258.4</ele>
        <time>2019-07-09T10:26:00Z</time>
      </trkpt>
      <trkpt lat="39.7831240" lon="-5.7290810">
        <ele>258.6</ele>
        <time>2019-07-09T10:26:02Z</time>
      </trkpt>
      <trkpt lat="39.7830320" lon="-5.7292790">
        <ele>258.8</ele>
        <time>2019-07-09T10:26:05Z</time>
      </trkpt>
      <trkpt lat="39.7829150" lon="-5.7295240">
        <ele>259.4</ele>
        <time>2019-07-09T10:26:09Z</time>
      </trkpt>
      <trkpt lat="39.7827990" lon="-5.7297590">
        <ele>259.6</ele>
        <time>2019-07-09T10:26:13Z</time>
      </trkpt>
      <trkpt lat="39.7827710" lon="-5.7298180">
        <ele>259.6</ele>
        <time>2019-07-09T10:26:14Z</time>
      </trkpt>
      <trkpt lat="39.7825560" lon="-5.7303230">
        <ele>259.8</ele>
        <time>2019-07-09T10:26:22Z</time>
      </trkpt>
      <trkpt lat="39.7823730" lon="-5.7309360">
        <ele>258.8</ele>
        <time>2019-07-09T10:26:30Z</time>
      </trkpt>
      <trkpt lat="39.7823400" lon="-5.7311100">
        <ele>258.4</ele>
        <time>2019-07-09T10:26:32Z</time>
      </trkpt>
      <trkpt lat="39.7823090" lon="-5.7313810">
        <ele>257.2</ele>
        <time>2019-07-09T10:26:35Z</time>
      </trkpt>
      <trkpt lat="39.7822940" lon="-5.7315650">
        <ele>256.6</ele>
        <time>2019-07-09T10:26:37Z</time>
      </trkpt>
      <trkpt lat="39.7822810" lon="-5.7318480">
        <ele>256.0</ele>
        <time>2019-07-09T10:26:40Z</time>
      </trkpt>
      <trkpt lat="39.7822930" lon="-5.7322400">
        <ele>255.2</ele>
        <time>2019-07-09T10:26:44Z</time>
      </trkpt>
      <trkpt lat="39.7823140" lon="-5.7324340">
        <ele>254.6</ele>
        <time>2019-07-09T10:26:46Z</time>
      </trkpt>
      <trkpt lat="39.7823480" lon="-5.7326300">
        <ele>254.0</ele>
        <time>2019-07-09T10:26:48Z</time>
      </trkpt>
      <trkpt lat="39.7823800" lon="-5.7328320">
        <ele>253.4</ele>
        <time>2019-07-09T10:26:50Z</time>
      </trkpt>
      <trkpt lat="39.7824060" lon="-5.7330380">
        <ele>252.6</ele>
        <time>2019-07-09T10:26:52Z</time>
      </trkpt>
      <trkpt lat="39.7824460" lon="-5.7333590">
        <ele>251.6</ele>
        <time>2019-07-09T10:26:55Z</time>
      </trkpt>
      <trkpt lat="39.7824760" lon="-5.7335740">
        <ele>250.6</ele>
        <time>2019-07-09T10:26:57Z</time>
      </trkpt>
      <trkpt lat="39.7825170" lon="-5.7338570">
        <ele>249.0</ele>
        <time>2019-07-09T10:27:00Z</time>
      </trkpt>
      <trkpt lat="39.7825520" lon="-5.7340450">
        <ele>248.0</ele>
        <time>2019-07-09T10:27:02Z</time>
      </trkpt>
      <trkpt lat="39.7826010" lon="-5.7343210">
        <ele>247.0</ele>
        <time>2019-07-09T10:27:05Z</time>
      </trkpt>
      <trkpt lat="39.7826460" lon="-5.7345820">
        <ele>246.8</ele>
        <time>2019-07-09T10:27:08Z</time>
      </trkpt>
      <trkpt lat="39.7826720" lon="-5.7347520">
        <ele>246.8</ele>
        <time>2019-07-09T10:27:10Z</time>
      </trkpt>
      <trkpt lat="39.7827700" lon="-5.7353900">
        <ele>246.6</ele>
        <time>2019-07-09T10:27:18Z</time>
      </trkpt>
      <trkpt lat="39.7828170" lon="-5.7356900">
        <ele>246.6</ele>
        <time>2019-07-09T10:27:22Z</time>
      </trkpt>
      <trkpt lat="39.7828660" lon="-5.7359920">
        <ele>246.6</ele>
        <time>2019-07-09T10:27:26Z</time>
      </trkpt>
      <trkpt lat="39.7828860" lon="-5.7361430">
        <ele>246.4</ele>
        <time>2019-07-09T10:27:28Z</time>
      </trkpt>
      <trkpt lat="39.7829430" lon="-5.7364380">
        <ele>246.4</ele>
        <time>2019-07-09T10:27:32Z</time>
      </trkpt>
      <trkpt lat="39.7830140" lon="-5.7365490">
        <ele>246.6</ele>
        <time>2019-07-09T10:27:34Z</time>
      </trkpt>
      <trkpt lat="39.7831750" lon="-5.7365410">
        <ele>247.0</ele>
        <time>2019-07-09T10:27:37Z</time>
      </trkpt>
      <trkpt lat="39.7832730" lon="-5.7364720">
        <ele>247.0</ele>
        <time>2019-07-09T10:27:39Z</time>
      </trkpt>
      <trkpt lat="39.7833720" lon="-5.7364160">
        <ele>247.0</ele>
        <time>2019-07-09T10:27:41Z</time>
      </trkpt>
      <trkpt lat="39.7834230" lon="-5.7364060">
        <ele>247.0</ele>
        <time>2019-07-09T10:27:42Z</time>
      </trkpt>
      <trkpt lat="39.7835910" lon="-5.7364620">
        <ele>247.8</ele>
        <time>2019-07-09T10:27:46Z</time>
      </trkpt>
      <trkpt lat="39.7836210" lon="-5.7364840">
        <ele>248.0</ele>
        <time>2019-07-09T10:27:47Z</time>
      </trkpt>
      <trkpt lat="39.7836740" lon="-5.7365250">
        <ele>248.6</ele>
        <time>2019-07-09T10:27:49Z</time>
      </trkpt>
      <trkpt lat="39.7837120" lon="-5.7365850">
        <ele>249.4</ele>
        <time>2019-07-09T10:27:51Z</time>
      </trkpt>
      <trkpt lat="39.7837270" lon="-5.7366170">
        <ele>249.6</ele>
        <time>2019-07-09T10:27:52Z</time>
      </trkpt>
      <trkpt lat="39.7837520" lon="-5.7366810">
        <ele>250.6</ele>
        <time>2019-07-09T10:27:54Z</time>
      </trkpt>
      <trkpt lat="39.7837620" lon="-5.7367110">
        <ele>251.0</ele>
        <time>2019-07-09T10:27:55Z</time>
      </trkpt>
      <trkpt lat="39.7837710" lon="-5.7368110">
        <ele>252.2</ele>
        <time>2019-07-09T10:27:58Z</time>
      </trkpt>
      <trkpt lat="39.7837610" lon="-5.7369120">
        <ele>253.2</ele>
        <time>2019-07-09T10:28:01Z</time>
      </trkpt>
      <trkpt lat="39.7837400" lon="-5.7369750">
        <ele>254.2</ele>
        <time>2019-07-09T10:28:03Z</time>
      </trkpt>
      <trkpt lat="39.7837260" lon="-5.7370050">
        <ele>254.4</ele>
        <time>2019-07-09T10:28:04Z</time>
      </trkpt>
      <trkpt lat="39.7836950" lon="-5.7370930">
        <ele>255.4</ele>
        <time>2019-07-09T10:28:07Z</time>
      </trkpt>
      <trkpt lat="39.7836830" lon="-5.7371200">
        <ele>255.6</ele>
        <time>2019-07-09T10:28:08Z</time>
      </trkpt>
      <trkpt lat="39.7836430" lon="-5.7371930">
        <ele>256.4</ele>
        <time>2019-07-09T10:28:11Z</time>
      </trkpt>
      <trkpt lat="39.7836100" lon="-5.7372360">
        <ele>256.6</ele>
        <time>2019-07-09T10:28:13Z</time>
      </trkpt>
      <trkpt lat="39.7835560" lon="-5.7373630">
        <ele>257.6</ele>
        <time>2019-07-09T10:28:18Z</time>
      </trkpt>
      <trkpt lat="39.7835080" lon="-5.7375030">
        <ele>258.8</ele>
        <time>2019-07-09T10:28:23Z</time>
      </trkpt>
      <trkpt lat="39.7834970" lon="-5.7375630">
        <ele>259.0</ele>
        <time>2019-07-09T10:28:25Z</time>
      </trkpt>
      <trkpt lat="39.7834990" lon="-5.7377330">
        <ele>259.6</ele>
        <time>2019-07-09T10:28:30Z</time>
      </trkpt>
      <trkpt lat="39.7835020" lon="-5.7377700">
        <ele>259.8</ele>
        <time>2019-07-09T10:28:31Z</time>
      </trkpt>
      <trkpt lat="39.7835170" lon="-5.7379170">
        <ele>260.4</ele>
        <time>2019-07-09T10:28:35Z</time>
      </trkpt>
      <trkpt lat="39.7835340" lon="-5.7379910">
        <ele>260.8</ele>
        <time>2019-07-09T10:28:37Z</time>
      </trkpt>
      <trkpt lat="39.7835520" lon="-5.7380710">
        <ele>261.0</ele>
        <time>2019-07-09T10:28:39Z</time>
      </trkpt>
      <trkpt lat="39.7836320" lon="-5.7383260">
        <ele>261.8</ele>
        <time>2019-07-09T10:28:45Z</time>
      </trkpt>
      <trkpt lat="39.7836860" lon="-5.7384600">
        <ele>262.2</ele>
        <time>2019-07-09T10:28:48Z</time>
      </trkpt>
      <trkpt lat="39.7837990" lon="-5.7386990">
        <ele>262.4</ele>
        <time>2019-07-09T10:28:53Z</time>
      </trkpt>
      <trkpt lat="39.7838840" lon="-5.7388390">
        <ele>262.4</ele>
        <time>2019-07-09T10:28:56Z</time>
      </trkpt>
      <trkpt lat="39.7839180" lon="-5.7388800">
        <ele>262.6</ele>
        <time>2019-07-09T10:28:57Z</time>
      </trkpt>
      <trkpt lat="39.7840690" lon="-5.7390290">
        <ele>262.4</ele>
        <time>2019-07-09T10:29:01Z</time>
      </trkpt>
      <trkpt lat="39.7841090" lon="-5.7390640">
        <ele>262.4</ele>
        <time>2019-07-09T10:29:02Z</time>
      </trkpt>
      <trkpt lat="39.7842340" lon="-5.7391560">
        <ele>262.8</ele>
        <time>2019-07-09T10:29:05Z</time>
      </trkpt>
      <trkpt lat="39.7843670" lon="-5.7392420">
        <ele>262.8</ele>
        <time>2019-07-09T10:29:08Z</time>
      </trkpt>
      <trkpt lat="39.7844130" lon="-5.7392650">
        <ele>262.8</ele>
        <time>2019-07-09T10:29:09Z</time>
      </trkpt>
      <trkpt lat="39.7845680" lon="-5.7393290">
        <ele>262.8</ele>
        <time>2019-07-09T10:29:12Z</time>
      </trkpt>
      <trkpt lat="39.7846810" lon="-5.7393680">
        <ele>262.8</ele>
        <time>2019-07-09T10:29:14Z</time>
      </trkpt>
      <trkpt lat="39.7847410" lon="-5.7393820">
        <ele>262.4</ele>
        <time>2019-07-09T10:29:15Z</time>
      </trkpt>
      <trkpt lat="39.7849480" lon="-5.7393860">
        <ele>261.6</ele>
        <time>2019-07-09T10:29:18Z</time>
      </trkpt>
      <trkpt lat="39.7850250" lon="-5.7393790">
        <ele>261.0</ele>
        <time>2019-07-09T10:29:19Z</time>
      </trkpt>
      <trkpt lat="39.7851080" lon="-5.7393730">
        <ele>260.4</ele>
        <time>2019-07-09T10:29:20Z</time>
      </trkpt>
      <trkpt lat="39.7852840" lon="-5.7393690">
        <ele>259.6</ele>
        <time>2019-07-09T10:29:22Z</time>
      </trkpt>
      <trkpt lat="39.7853760" lon="-5.7393680">
        <ele>258.8</ele>
        <time>2019-07-09T10:29:23Z</time>
      </trkpt>
      <trkpt lat="39.7854700" lon="-5.7393650">
        <ele>258.4</ele>
        <time>2019-07-09T10:29:24Z</time>
      </trkpt>
      <trkpt lat="39.7856580" lon="-5.7393590">
        <ele>257.6</ele>
        <time>2019-07-09T10:29:26Z</time>
      </trkpt>
      <trkpt lat="39.7860220" lon="-5.7393500">
        <ele>256.4</ele>
        <time>2019-07-09T10:29:30Z</time>
      </trkpt>
      <trkpt lat="39.7861920" lon="-5.7393650">
        <ele>256.0</ele>
        <time>2019-07-09T10:29:32Z</time>
      </trkpt>
      <trkpt lat="39.7862740" lon="-5.7393830">
        <ele>255.8</ele>
        <time>2019-07-09T10:29:33Z</time>
      </trkpt>
      <trkpt lat="39.7864250" lon="-5.7394480">
        <ele>255.4</ele>
        <time>2019-07-09T10:29:35Z</time>
      </trkpt>
      <trkpt lat="39.7864950" lon="-5.7394950">
        <ele>255.4</ele>
        <time>2019-07-09T10:29:36Z</time>
      </trkpt>
      <trkpt lat="39.7866230" lon="-5.7396040">
        <ele>255.4</ele>
        <time>2019-07-09T10:29:38Z</time>
      </trkpt>
      <trkpt lat="39.7867780" lon="-5.7397650">
        <ele>256.0</ele>
        <time>2019-07-09T10:29:41Z</time>
      </trkpt>
      <trkpt lat="39.7868590" lon="-5.7398630">
        <ele>256.6</ele>
        <time>2019-07-09T10:29:43Z</time>
      </trkpt>
      <trkpt lat="39.7869250" lon="-5.7399580">
        <ele>257.4</ele>
        <time>2019-07-09T10:29:45Z</time>
      </trkpt>
      <trkpt lat="39.7869550" lon="-5.7400030">
        <ele>258.0</ele>
        <time>2019-07-09T10:29:46Z</time>
      </trkpt>
      <trkpt lat="39.7870170" lon="-5.7400880">
        <ele>259.0</ele>
        <time>2019-07-09T10:29:48Z</time>
      </trkpt>
      <trkpt lat="39.7870490" lon="-5.7401260">
        <ele>259.4</ele>
        <time>2019-07-09T10:29:49Z</time>
      </trkpt>
      <trkpt lat="39.7871090" lon="-5.7402050">
        <ele>260.2</ele>
        <time>2019-07-09T10:29:51Z</time>
      </trkpt>
      <trkpt lat="39.7871370" lon="-5.7402470">
        <ele>260.6</ele>
        <time>2019-07-09T10:29:52Z</time>
      </trkpt>
      <trkpt lat="39.7871910" lon="-5.7403350">
        <ele>261.4</ele>
        <time>2019-07-09T10:29:54Z</time>
      </trkpt>
      <trkpt lat="39.7872810" lon="-5.7404710">
        <ele>262.2</ele>
        <time>2019-07-09T10:29:57Z</time>
      </trkpt>
      <trkpt lat="39.7873480" lon="-5.7405680">
        <ele>262.2</ele>
        <time>2019-07-09T10:29:59Z</time>
      </trkpt>
      <trkpt lat="39.7875800" lon="-5.7409240">
        <ele>260.8</ele>
        <time>2019-07-09T10:30:05Z</time>
      </trkpt>
      <trkpt lat="39.7876700" lon="-5.7410700">
        <ele>260.2</ele>
        <time>2019-07-09T10:30:07Z</time>
      </trkpt>
      <trkpt lat="39.7877710" lon="-5.7412210">
        <ele>259.8</ele>
        <time>2019-07-09T10:30:09Z</time>
      </trkpt>
      <trkpt lat="39.7878750" lon="-5.7413790">
        <ele>259.2</ele>
        <time>2019-07-09T10:30:11Z</time>
      </trkpt>
      <trkpt lat="39.7879780" lon="-5.7415390">
        <ele>258.4</ele>
        <time>2019-07-09T10:30:13Z</time>
      </trkpt>
      <trkpt lat="39.7880320" lon="-5.7416180">
        <ele>258.2</ele>
        <time>2019-07-09T10:30:14Z</time>
      </trkpt>
      <trkpt lat="39.7881410" lon="-5.7417790">
        <ele>257.4</ele>
        <time>2019-07-09T10:30:16Z</time>
      </trkpt>
      <trkpt lat="39.7882530" lon="-5.7419440">
        <ele>257.0</ele>
        <time>2019-07-09T10:30:18Z</time>
      </trkpt>
      <trkpt lat="39.7883100" lon="-5.7420270">
        <ele>256.8</ele>
        <time>2019-07-09T10:30:19Z</time>
      </trkpt>
      <trkpt lat="39.7883660" lon="-5.7421110">
        <ele>256.4</ele>
        <time>2019-07-09T10:30:20Z</time>
      </trkpt>
      <trkpt lat="39.7885320" lon="-5.7423680">
        <ele>255.8</ele>
        <time>2019-07-09T10:30:23Z</time>
      </trkpt>
      <trkpt lat="39.7887070" lon="-5.7426240">
        <ele>254.4</ele>
        <time>2019-07-09T10:30:26Z</time>
      </trkpt>
      <trkpt lat="39.7888270" lon="-5.7428000">
        <ele>253.8</ele>
        <time>2019-07-09T10:30:28Z</time>
      </trkpt>
      <trkpt lat="39.7889470" lon="-5.7429820">
        <ele>253.2</ele>
        <time>2019-07-09T10:30:30Z</time>
      </trkpt>
      <trkpt lat="39.7890680" lon="-5.7431660">
        <ele>252.6</ele>
        <time>2019-07-09T10:30:32Z</time>
      </trkpt>
      <trkpt lat="39.7891930" lon="-5.7433510">
        <ele>252.2</ele>
        <time>2019-07-09T10:30:34Z</time>
      </trkpt>
      <trkpt lat="39.7893870" lon="-5.7436320">
        <ele>251.0</ele>
        <time>2019-07-09T10:30:37Z</time>
      </trkpt>
      <trkpt lat="39.7894500" lon="-5.7437280">
        <ele>250.6</ele>
        <time>2019-07-09T10:30:38Z</time>
      </trkpt>
      <trkpt lat="39.7895720" lon="-5.7439220">
        <ele>249.6</ele>
        <time>2019-07-09T10:30:40Z</time>
      </trkpt>
      <trkpt lat="39.7896950" lon="-5.7441030">
        <ele>249.0</ele>
        <time>2019-07-09T10:30:42Z</time>
      </trkpt>
      <trkpt lat="39.7897550" lon="-5.7441880">
        <ele>248.8</ele>
        <time>2019-07-09T10:30:43Z</time>
      </trkpt>
      <trkpt lat="39.7898110" lon="-5.7442720">
        <ele>248.4</ele>
        <time>2019-07-09T10:30:44Z</time>
      </trkpt>
      <trkpt lat="39.7901120" lon="-5.7447240">
        <ele>248.0</ele>
        <time>2019-07-09T10:30:50Z</time>
      </trkpt>
      <trkpt lat="39.7902030" lon="-5.7448640">
        <ele>248.2</ele>
        <time>2019-07-09T10:30:52Z</time>
      </trkpt>
      <trkpt lat="39.7902470" lon="-5.7449330">
        <ele>248.2</ele>
        <time>2019-07-09T10:30:53Z</time>
      </trkpt>
      <trkpt lat="39.7903800" lon="-5.7451320">
        <ele>248.6</ele>
        <time>2019-07-09T10:30:56Z</time>
      </trkpt>
      <trkpt lat="39.7905090" lon="-5.7453240">
        <ele>248.4</ele>
        <time>2019-07-09T10:30:59Z</time>
      </trkpt>
      <trkpt lat="39.7906350" lon="-5.7455090">
        <ele>248.2</ele>
        <time>2019-07-09T10:31:02Z</time>
      </trkpt>
      <trkpt lat="39.7907550" lon="-5.7456970">
        <ele>248.4</ele>
        <time>2019-07-09T10:31:05Z</time>
      </trkpt>
      <trkpt lat="39.7908340" lon="-5.7458200">
        <ele>248.6</ele>
        <time>2019-07-09T10:31:07Z</time>
      </trkpt>
      <trkpt lat="39.7909930" lon="-5.7460550">
        <ele>248.6</ele>
        <time>2019-07-09T10:31:11Z</time>
      </trkpt>
      <trkpt lat="39.7911070" lon="-5.7462240">
        <ele>248.6</ele>
        <time>2019-07-09T10:31:14Z</time>
      </trkpt>
      <trkpt lat="39.7911430" lon="-5.7462800">
        <ele>248.6</ele>
        <time>2019-07-09T10:31:15Z</time>
      </trkpt>
      <trkpt lat="39.7913910" lon="-5.7466570">
        <ele>248.8</ele>
        <time>2019-07-09T10:31:22Z</time>
      </trkpt>
      <trkpt lat="39.7914630" lon="-5.7467640">
        <ele>248.8</ele>
        <time>2019-07-09T10:31:24Z</time>
      </trkpt>
      <trkpt lat="39.7917680" lon="-5.7472400">
        <ele>249.2</ele>
        <time>2019-07-09T10:31:33Z</time>
      </trkpt>
      <trkpt lat="39.7920240" lon="-5.7476460">
        <ele>249.6</ele>
        <time>2019-07-09T10:31:41Z</time>
      </trkpt>
      <trkpt lat="39.7921130" lon="-5.7477940">
        <ele>249.8</ele>
        <time>2019-07-09T10:31:44Z</time>
      </trkpt>
      <trkpt lat="39.7923650" lon="-5.7481860">
        <ele>250.0</ele>
        <time>2019-07-09T10:31:52Z</time>
      </trkpt>
      <trkpt lat="39.7926080" lon="-5.7485740">
        <ele>250.4</ele>
        <time>2019-07-09T10:32:00Z</time>
      </trkpt>
      <trkpt lat="39.7927320" lon="-5.7487700">
        <ele>250.8</ele>
        <time>2019-07-09T10:32:04Z</time>
      </trkpt>
      <trkpt lat="39.7927640" lon="-5.7488200">
        <ele>250.8</ele>
        <time>2019-07-09T10:32:05Z</time>
      </trkpt>
      <trkpt lat="39.7928550" lon="-5.7489640">
        <ele>251.2</ele>
        <time>2019-07-09T10:32:08Z</time>
      </trkpt>
      <trkpt lat="39.7929370" lon="-5.7490900">
        <ele>251.8</ele>
        <time>2019-07-09T10:32:11Z</time>
      </trkpt>
      <trkpt lat="39.7930570" lon="-5.7492770">
        <ele>252.6</ele>
        <time>2019-07-09T10:32:16Z</time>
      </trkpt>
      <trkpt lat="39.7930800" lon="-5.7493140">
        <ele>253.0</ele>
        <time>2019-07-09T10:32:17Z</time>
      </trkpt>
      <trkpt lat="39.7931460" lon="-5.7494210">
        <ele>254.2</ele>
        <time>2019-07-09T10:32:20Z</time>
      </trkpt>
      <trkpt lat="39.7932140" lon="-5.7495190">
        <ele>255.0</ele>
        <time>2019-07-09T10:32:23Z</time>
      </trkpt>
      <trkpt lat="39.7932590" lon="-5.7495790">
        <ele>255.4</ele>
        <time>2019-07-09T10:32:25Z</time>
      </trkpt>
      <trkpt lat="39.7933150" lon="-5.7496810">
        <ele>256.2</ele>
        <time>2019-07-09T10:32:28Z</time>
      </trkpt>
      <trkpt lat="39.7933370" lon="-5.7497130">
        <ele>256.4</ele>
        <time>2019-07-09T10:32:29Z</time>
      </trkpt>
      <trkpt lat="39.7933590" lon="-5.7497470">
        <ele>256.8</ele>
        <time>2019-07-09T10:32:30Z</time>
      </trkpt>
      <trkpt lat="39.7934490" lon="-5.7498870">
        <ele>257.4</ele>
        <time>2019-07-09T10:32:34Z</time>
      </trkpt>
      <trkpt lat="39.7934720" lon="-5.7499230">
        <ele>257.4</ele>
        <time>2019-07-09T10:32:35Z</time>
      </trkpt>
      <trkpt lat="39.7935590" lon="-5.7500680">
        <ele>258.2</ele>
        <time>2019-07-09T10:32:39Z</time>
      </trkpt>
      <trkpt lat="39.7936250" lon="-5.7501690">
        <ele>258.4</ele>
        <time>2019-07-09T10:32:42Z</time>
      </trkpt>
      <trkpt lat="39.7937290" lon="-5.7503440">
        <ele>259.0</ele>
        <time>2019-07-09T10:32:47Z</time>
      </trkpt>
      <trkpt lat="39.7937700" lon="-5.7504200">
        <ele>259.6</ele>
        <time>2019-07-09T10:32:49Z</time>
      </trkpt>
      <trkpt lat="39.7939190" lon="-5.7506530">
        <ele>260.2</ele>
        <time>2019-07-09T10:32:55Z</time>
      </trkpt>
      <trkpt lat="39.7940810" lon="-5.7509140">
        <ele>260.4</ele>
        <time>2019-07-09T10:33:01Z</time>
      </trkpt>
      <trkpt lat="39.7941100" lon="-5.7509580">
        <ele>260.6</ele>
        <time>2019-07-09T10:33:02Z</time>
      </trkpt>
      <trkpt lat="39.7941380" lon="-5.7510020">
        <ele>260.6</ele>
        <time>2019-07-09T10:33:03Z</time>
      </trkpt>
      <trkpt lat="39.7942490" lon="-5.7511850">
        <ele>260.8</ele>
        <time>2019-07-09T10:33:07Z</time>
      </trkpt>
      <trkpt lat="39.7943710" lon="-5.7513600">
        <ele>261.0</ele>
        <time>2019-07-09T10:33:11Z</time>
      </trkpt>
      <trkpt lat="39.7944780" lon="-5.7515360">
        <ele>261.4</ele>
        <time>2019-07-09T10:33:15Z</time>
      </trkpt>
      <trkpt lat="39.7945040" lon="-5.7515770">
        <ele>261.6</ele>
        <time>2019-07-09T10:33:16Z</time>
      </trkpt>
      <trkpt lat="39.7945850" lon="-5.7516930">
        <ele>262.2</ele>
        <time>2019-07-09T10:33:19Z</time>
      </trkpt>
      <trkpt lat="39.7946340" lon="-5.7517700">
        <ele>262.6</ele>
        <time>2019-07-09T10:33:21Z</time>
      </trkpt>
      <trkpt lat="39.7947190" lon="-5.7519110">
        <ele>263.6</ele>
        <time>2019-07-09T10:33:25Z</time>
      </trkpt>
      <trkpt lat="39.7947840" lon="-5.7520060">
        <ele>264.4</ele>
        <time>2019-07-09T10:33:28Z</time>
      </trkpt>
      <trkpt lat="39.7948290" lon="-5.7520660">
        <ele>264.8</ele>
        <time>2019-07-09T10:33:30Z</time>
      </trkpt>
      <trkpt lat="39.7949140" lon="-5.7521890">
        <ele>265.8</ele>
        <time>2019-07-09T10:33:34Z</time>
      </trkpt>
      <trkpt lat="39.7949960" lon="-5.7523140">
        <ele>266.8</ele>
        <time>2019-07-09T10:33:38Z</time>
      </trkpt>
      <trkpt lat="39.7950180" lon="-5.7523450">
        <ele>267.2</ele>
        <time>2019-07-09T10:33:39Z</time>
      </trkpt>
      <trkpt lat="39.7950750" lon="-5.7524450">
        <ele>268.0</ele>
        <time>2019-07-09T10:33:42Z</time>
      </trkpt>
      <trkpt lat="39.7951410" lon="-5.7525310">
        <ele>269.0</ele>
        <time>2019-07-09T10:33:45Z</time>
      </trkpt>
      <trkpt lat="39.7951620" lon="-5.7525620">
        <ele>269.2</ele>
        <time>2019-07-09T10:33:46Z</time>
      </trkpt>
      <trkpt lat="39.7952380" lon="-5.7526900">
        <ele>270.4</ele>
        <time>2019-07-09T10:33:50Z</time>
      </trkpt>
      <trkpt lat="39.7952990" lon="-5.7527770">
        <ele>271.0</ele>
        <time>2019-07-09T10:33:53Z</time>
      </trkpt>
      <trkpt lat="39.7953210" lon="-5.7528070">
        <ele>271.4</ele>
        <time>2019-07-09T10:33:54Z</time>
      </trkpt>
      <trkpt lat="39.7954230" lon="-5.7529670">
        <ele>272.6</ele>
        <time>2019-07-09T10:33:59Z</time>
      </trkpt>
      <trkpt lat="39.7954660" lon="-5.7530270">
        <ele>273.0</ele>
        <time>2019-07-09T10:34:01Z</time>
      </trkpt>
      <trkpt lat="39.7955490" lon="-5.7531410">
        <ele>273.6</ele>
        <time>2019-07-09T10:34:05Z</time>
      </trkpt>
      <trkpt lat="39.7956150" lon="-5.7532240">
        <ele>274.2</ele>
        <time>2019-07-09T10:34:08Z</time>
      </trkpt>
      <trkpt lat="39.7956570" lon="-5.7532900">
        <ele>274.6</ele>
        <time>2019-07-09T10:34:10Z</time>
      </trkpt>
      <trkpt lat="39.7957930" lon="-5.7534780">
        <ele>275.4</ele>
        <time>2019-07-09T10:34:16Z</time>
      </trkpt>
      <trkpt lat="39.7958840" lon="-5.7536150">
        <ele>275.8</ele>
        <time>2019-07-09T10:34:20Z</time>
      </trkpt>
      <trkpt lat="39.7960100" lon="-5.7537980">
        <ele>276.2</ele>
        <time>2019-07-09T10:34:25Z</time>
      </trkpt>
      <trkpt lat="39.7961200" lon="-5.7539540">
        <ele>276.4</ele>
        <time>2019-07-09T10:34:29Z</time>
      </trkpt>
      <trkpt lat="39.7962080" lon="-5.7540800">
        <ele>276.6</ele>
        <time>2019-07-09T10:34:32Z</time>
      </trkpt>
      <trkpt lat="39.7962390" lon="-5.7541250">
        <ele>276.6</ele>
        <time>2019-07-09T10:34:33Z</time>
      </trkpt>
      <trkpt lat="39.7963810" lon="-5.7543120">
        <ele>276.4</ele>
        <time>2019-07-09T10:34:37Z</time>
      </trkpt>
      <trkpt lat="39.7964590" lon="-5.7544130">
        <ele>276.2</ele>
        <time>2019-07-09T10:34:39Z</time>
      </trkpt>
      <trkpt lat="39.7965800" lon="-5.7545810">
        <ele>276.0</ele>
        <time>2019-07-09T10:34:42Z</time>
      </trkpt>
      <trkpt lat="39.7967420" lon="-5.7548130">
        <ele>275.6</ele>
        <time>2019-07-09T10:34:46Z</time>
      </trkpt>
      <trkpt lat="39.7968690" lon="-5.7549790">
        <ele>275.6</ele>
        <time>2019-07-09T10:34:49Z</time>
      </trkpt>
      <trkpt lat="39.7971910" lon="-5.7553960">
        <ele>276.2</ele>
        <time>2019-07-09T10:34:57Z</time>
      </trkpt>
      <trkpt lat="39.7974430" lon="-5.7557030">
        <ele>276.4</ele>
        <time>2019-07-09T10:35:03Z</time>
      </trkpt>
      <trkpt lat="39.7977730" lon="-5.7560930">
        <ele>276.0</ele>
        <time>2019-07-09T10:35:10Z</time>
      </trkpt>
      <trkpt lat="39.7978770" lon="-5.7562140">
        <ele>275.6</ele>
        <time>2019-07-09T10:35:12Z</time>
      </trkpt>
      <trkpt lat="39.7979870" lon="-5.7563420">
        <ele>275.2</ele>
        <time>2019-07-09T10:35:14Z</time>
      </trkpt>
      <trkpt lat="39.7981060" lon="-5.7564770">
        <ele>274.4</ele>
        <time>2019-07-09T10:35:16Z</time>
      </trkpt>
      <trkpt lat="39.7982370" lon="-5.7566240">
        <ele>273.6</ele>
        <time>2019-07-09T10:35:18Z</time>
      </trkpt>
      <trkpt lat="39.7983060" lon="-5.7567050">
        <ele>273.0</ele>
        <time>2019-07-09T10:35:19Z</time>
      </trkpt>
      <trkpt lat="39.7984540" lon="-5.7568720">
        <ele>272.2</ele>
        <time>2019-07-09T10:35:21Z</time>
      </trkpt>
      <trkpt lat="39.7985280" lon="-5.7569600">
        <ele>271.6</ele>
        <time>2019-07-09T10:35:22Z</time>
      </trkpt>
      <trkpt lat="39.7986770" lon="-5.7571350">
        <ele>270.2</ele>
        <time>2019-07-09T10:35:24Z</time>
      </trkpt>
      <trkpt lat="39.7988960" lon="-5.7573910">
        <ele>269.2</ele>
        <time>2019-07-09T10:35:27Z</time>
      </trkpt>
      <trkpt lat="39.7989670" lon="-5.7574750">
        <ele>269.2</ele>
        <time>2019-07-09T10:35:28Z</time>
      </trkpt>
      <trkpt lat="39.7992390" lon="-5.7578090">
        <ele>268.0</ele>
        <time>2019-07-09T10:35:32Z</time>
      </trkpt>
      <trkpt lat="39.7993060" lon="-5.7578880">
        <ele>268.0</ele>
        <time>2019-07-09T10:35:33Z</time>
      </trkpt>
      <trkpt lat="39.7996930" lon="-5.7583510">
        <ele>267.0</ele>
        <time>2019-07-09T10:35:39Z</time>
      </trkpt>
      <trkpt lat="39.7998130" lon="-5.7585060">
        <ele>267.0</ele>
        <time>2019-07-09T10:35:41Z</time>
      </trkpt>
      <trkpt lat="39.7999280" lon="-5.7586570">
        <ele>267.2</ele>
        <time>2019-07-09T10:35:43Z</time>
      </trkpt>
      <trkpt lat="39.8000410" lon="-5.7588060">
        <ele>267.6</ele>
        <time>2019-07-09T10:35:45Z</time>
      </trkpt>
      <trkpt lat="39.8002460" lon="-5.7591110">
        <ele>267.6</ele>
        <time>2019-07-09T10:35:49Z</time>
      </trkpt>
      <trkpt lat="39.8004740" lon="-5.7594860">
        <ele>267.8</ele>
        <time>2019-07-09T10:35:54Z</time>
      </trkpt>
      <trkpt lat="39.8005200" lon="-5.7595570">
        <ele>267.8</ele>
        <time>2019-07-09T10:35:55Z</time>
      </trkpt>
      <trkpt lat="39.8007300" lon="-5.7598840">
        <ele>268.0</ele>
        <time>2019-07-09T10:36:00Z</time>
      </trkpt>
      <trkpt lat="39.8008500" lon="-5.7600660">
        <ele>268.0</ele>
        <time>2019-07-09T10:36:03Z</time>
      </trkpt>
      <trkpt lat="39.8009300" lon="-5.7601840">
        <ele>268.2</ele>
        <time>2019-07-09T10:36:05Z</time>
      </trkpt>
      <trkpt lat="39.8010420" lon="-5.7603680">
        <ele>268.6</ele>
        <time>2019-07-09T10:36:08Z</time>
      </trkpt>
      <trkpt lat="39.8011890" lon="-5.7606110">
        <ele>268.8</ele>
        <time>2019-07-09T10:36:12Z</time>
      </trkpt>
      <trkpt lat="39.8013420" lon="-5.7608460">
        <ele>268.8</ele>
        <time>2019-07-09T10:36:16Z</time>
      </trkpt>
      <trkpt lat="39.8014920" lon="-5.7610710">
        <ele>269.2</ele>
        <time>2019-07-09T10:36:20Z</time>
      </trkpt>
      <trkpt lat="39.8015280" lon="-5.7611280">
        <ele>269.4</ele>
        <time>2019-07-09T10:36:21Z</time>
      </trkpt>
      <trkpt lat="39.8017110" lon="-5.7614950">
        <ele>270.0</ele>
        <time>2019-07-09T10:36:27Z</time>
      </trkpt>
      <trkpt lat="39.8019000" lon="-5.7619410">
        <ele>270.6</ele>
        <time>2019-07-09T10:36:34Z</time>
      </trkpt>
      <trkpt lat="39.8020020" lon="-5.7621950">
        <ele>271.0</ele>
        <time>2019-07-09T10:36:38Z</time>
      </trkpt>
      <trkpt lat="39.8022140" lon="-5.7626090">
        <ele>271.6</ele>
        <time>2019-07-09T10:36:45Z</time>
      </trkpt>
      <trkpt lat="39.8022460" lon="-5.7626670">
        <ele>271.6</ele>
        <time>2019-07-09T10:36:46Z</time>
      </trkpt>
      <trkpt lat="39.8024750" lon="-5.7629840">
        <ele>271.6</ele>
        <time>2019-07-09T10:36:52Z</time>
      </trkpt>
      <trkpt lat="39.8028100" lon="-5.7633620">
        <ele>271.8</ele>
        <time>2019-07-09T10:37:00Z</time>
      </trkpt>
      <trkpt lat="39.8030980" lon="-5.7638100">
        <ele>272.4</ele>
        <time>2019-07-09T10:37:08Z</time>
      </trkpt>
      <trkpt lat="39.8032850" lon="-5.7641820">
        <ele>272.6</ele>
        <time>2019-07-09T10:37:14Z</time>
      </trkpt>
      <trkpt lat="39.8033760" lon="-5.7643730">
        <ele>272.6</ele>
        <time>2019-07-09T10:37:17Z</time>
      </trkpt>
      <trkpt lat="39.8034410" lon="-5.7644930">
        <ele>272.6</ele>
        <time>2019-07-09T10:37:19Z</time>
      </trkpt>
      <trkpt lat="39.8036680" lon="-5.7648330">
        <ele>273.2</ele>
        <time>2019-07-09T10:37:25Z</time>
      </trkpt>
      <trkpt lat="39.8037100" lon="-5.7648840">
        <ele>273.4</ele>
        <time>2019-07-09T10:37:26Z</time>
      </trkpt>
      <trkpt lat="39.8038460" lon="-5.7650310">
        <ele>273.6</ele>
        <time>2019-07-09T10:37:29Z</time>
      </trkpt>
      <trkpt lat="39.8041200" lon="-5.7653280">
        <ele>274.2</ele>
        <time>2019-07-09T10:37:35Z</time>
      </trkpt>
      <trkpt lat="39.8045070" lon="-5.7658170">
        <ele>274.4</ele>
        <time>2019-07-09T10:37:44Z</time>
      </trkpt>
      <trkpt lat="39.8046660" lon="-5.7660490">
        <ele>274.6</ele>
        <time>2019-07-09T10:37:48Z</time>
      </trkpt>
      <trkpt lat="39.8047400" lon="-5.7661730">
        <ele>274.8</ele>
        <time>2019-07-09T10:37:50Z</time>
      </trkpt>
      <trkpt lat="39.8050520" lon="-5.7667530">
        <ele>275.4</ele>
        <time>2019-07-09T10:37:59Z</time>
      </trkpt>
      <trkpt lat="39.8053430" lon="-5.7673330">
        <ele>275.8</ele>
        <time>2019-07-09T10:38:08Z</time>
      </trkpt>
      <trkpt lat="39.8054010" lon="-5.7674660">
        <ele>275.8</ele>
        <time>2019-07-09T10:38:10Z</time>
      </trkpt>
      <trkpt lat="39.8055740" lon="-5.7679500">
        <ele>276.2</ele>
        <time>2019-07-09T10:38:17Z</time>
      </trkpt>
      <trkpt lat="39.8055950" lon="-5.7680200">
        <ele>276.2</ele>
        <time>2019-07-09T10:38:18Z</time>
      </trkpt>
      <trkpt lat="39.8056940" lon="-5.7684380">
        <ele>276.8</ele>
        <time>2019-07-09T10:38:24Z</time>
      </trkpt>
      <trkpt lat="39.8057040" lon="-5.7685060">
        <ele>276.8</ele>
        <time>2019-07-09T10:38:25Z</time>
      </trkpt>
      <trkpt lat="39.8057440" lon="-5.7687770">
        <ele>277.0</ele>
        <time>2019-07-09T10:38:29Z</time>
      </trkpt>
      <trkpt lat="39.8057710" lon="-5.7689750">
        <ele>277.2</ele>
        <time>2019-07-09T10:38:32Z</time>
      </trkpt>
      <trkpt lat="39.8057940" lon="-5.7692460">
        <ele>278.0</ele>
        <time>2019-07-09T10:38:36Z</time>
      </trkpt>
      <trkpt lat="39.8058210" lon="-5.7696010">
        <ele>278.6</ele>
        <time>2019-07-09T10:38:41Z</time>
      </trkpt>
      <trkpt lat="39.8058370" lon="-5.7697410">
        <ele>279.0</ele>
        <time>2019-07-09T10:38:43Z</time>
      </trkpt>
      <trkpt lat="39.8059150" lon="-5.7701510">
        <ele>279.8</ele>
        <time>2019-07-09T10:38:49Z</time>
      </trkpt>
      <trkpt lat="39.8059770" lon="-5.7703480">
        <ele>280.0</ele>
        <time>2019-07-09T10:38:52Z</time>
      </trkpt>
      <trkpt lat="39.8061130" lon="-5.7707340">
        <ele>280.4</ele>
        <time>2019-07-09T10:38:58Z</time>
      </trkpt>
      <trkpt lat="39.8062570" lon="-5.7711120">
        <ele>280.8</ele>
        <time>2019-07-09T10:39:04Z</time>
      </trkpt>
      <trkpt lat="39.8063300" lon="-5.7712930">
        <ele>281.2</ele>
        <time>2019-07-09T10:39:07Z</time>
      </trkpt>
      <trkpt lat="39.8065100" lon="-5.7717590">
        <ele>281.4</ele>
        <time>2019-07-09T10:39:15Z</time>
      </trkpt>
      <trkpt lat="39.8066300" lon="-5.7720750">
        <ele>282.2</ele>
        <time>2019-07-09T10:39:21Z</time>
      </trkpt>
      <trkpt lat="39.8066680" lon="-5.7721690">
        <ele>282.6</ele>
        <time>2019-07-09T10:39:23Z</time>
      </trkpt>
      <trkpt lat="39.8067520" lon="-5.7724000">
        <ele>283.4</ele>
        <time>2019-07-09T10:39:28Z</time>
      </trkpt>
      <trkpt lat="39.8068060" lon="-5.7725310">
        <ele>284.0</ele>
        <time>2019-07-09T10:39:31Z</time>
      </trkpt>
      <trkpt lat="39.8068390" lon="-5.7726150">
        <ele>284.6</ele>
        <time>2019-07-09T10:39:33Z</time>
      </trkpt>
      <trkpt lat="39.8069180" lon="-5.7728280">
        <ele>285.4</ele>
        <time>2019-07-09T10:39:38Z</time>
      </trkpt>
      <trkpt lat="39.8069370" lon="-5.7728700">
        <ele>285.8</ele>
        <time>2019-07-09T10:39:39Z</time>
      </trkpt>
      <trkpt lat="39.8069740" lon="-5.7729570">
        <ele>286.2</ele>
        <time>2019-07-09T10:39:41Z</time>
      </trkpt>
      <trkpt lat="39.8070640" lon="-5.7731940">
        <ele>286.8</ele>
        <time>2019-07-09T10:39:46Z</time>
      </trkpt>
      <trkpt lat="39.8071260" lon="-5.7733360">
        <ele>287.2</ele>
        <time>2019-07-09T10:39:49Z</time>
      </trkpt>
      <trkpt lat="39.8073160" lon="-5.7738220">
        <ele>287.4</ele>
        <time>2019-07-09T10:39:58Z</time>
      </trkpt>
      <trkpt lat="39.8074010" lon="-5.7740650">
        <ele>287.0</ele>
        <time>2019-07-09T10:40:02Z</time>
      </trkpt>
      <trkpt lat="39.8074630" lon="-5.7742590">
        <ele>287.0</ele>
        <time>2019-07-09T10:40:05Z</time>
      </trkpt>
      <trkpt lat="39.8074850" lon="-5.7743250">
        <ele>287.0</ele>
        <time>2019-07-09T10:40:06Z</time>
      </trkpt>
      <trkpt lat="39.8075270" lon="-5.7744550">
        <ele>287.2</ele>
        <time>2019-07-09T10:40:08Z</time>
      </trkpt>
      <trkpt lat="39.8075930" lon="-5.7746480">
        <ele>287.2</ele>
        <time>2019-07-09T10:40:11Z</time>
      </trkpt>
      <trkpt lat="39.8076750" lon="-5.7748980">
        <ele>287.4</ele>
        <time>2019-07-09T10:40:15Z</time>
      </trkpt>
      <trkpt lat="39.8077540" lon="-5.7751350">
        <ele>287.8</ele>
        <time>2019-07-09T10:40:19Z</time>
      </trkpt>
      <trkpt lat="39.8078060" lon="-5.7753060">
        <ele>288.0</ele>
        <time>2019-07-09T10:40:22Z</time>
      </trkpt>
      <trkpt lat="39.8078460" lon="-5.7754130">
        <ele>288.2</ele>
        <time>2019-07-09T10:40:24Z</time>
      </trkpt>
      <trkpt lat="39.8079880" lon="-5.7758170">
        <ele>288.8</ele>
        <time>2019-07-09T10:40:32Z</time>
      </trkpt>
      <trkpt lat="39.8080070" lon="-5.7758670">
        <ele>289.0</ele>
        <time>2019-07-09T10:40:33Z</time>
      </trkpt>
      <trkpt lat="39.8080990" lon="-5.7760550">
        <ele>289.8</ele>
        <time>2019-07-09T10:40:37Z</time>
      </trkpt>
      <trkpt lat="39.8081300" lon="-5.7760960">
        <ele>290.0</ele>
        <time>2019-07-09T10:40:38Z</time>
      </trkpt>
      <trkpt lat="39.8081930" lon="-5.7761760">
        <ele>290.2</ele>
        <time>2019-07-09T10:40:40Z</time>
      </trkpt>
      <trkpt lat="39.8084370" lon="-5.7765190">
        <ele>291.0</ele>
        <time>2019-07-09T10:40:48Z</time>
      </trkpt>
      <trkpt lat="39.8085760" lon="-5.7767440">
        <ele>291.6</ele>
        <time>2019-07-09T10:40:53Z</time>
      </trkpt>
      <trkpt lat="39.8086670" lon="-5.7769320">
        <ele>292.2</ele>
        <time>2019-07-09T10:40:57Z</time>
      </trkpt>
      <trkpt lat="39.8088340" lon="-5.7773020">
        <ele>293.0</ele>
        <time>2019-07-09T10:41:05Z</time>
      </trkpt>
      <trkpt lat="39.8088520" lon="-5.7773480">
        <ele>293.2</ele>
        <time>2019-07-09T10:41:06Z</time>
      </trkpt>
      <trkpt lat="39.8089630" lon="-5.7776610">
        <ele>294.2</ele>
        <time>2019-07-09T10:41:13Z</time>
      </trkpt>
      <trkpt lat="39.8089780" lon="-5.7777020">
        <ele>294.4</ele>
        <time>2019-07-09T10:41:14Z</time>
      </trkpt>
      <trkpt lat="39.8091010" lon="-5.7779690">
        <ele>295.4</ele>
        <time>2019-07-09T10:41:21Z</time>
      </trkpt>
      <trkpt lat="39.8092330" lon="-5.7781660">
        <ele>296.4</ele>
        <time>2019-07-09T10:41:27Z</time>
      </trkpt>
      <trkpt lat="39.8093300" lon="-5.7782770">
        <ele>297.4</ele>
        <time>2019-07-09T10:41:31Z</time>
      </trkpt>
      <trkpt lat="39.8093570" lon="-5.7783010">
        <ele>297.6</ele>
        <time>2019-07-09T10:41:32Z</time>
      </trkpt>
      <trkpt lat="39.8095210" lon="-5.7784590">
        <ele>299.0</ele>
        <time>2019-07-09T10:41:38Z</time>
      </trkpt>
      <trkpt lat="39.8095490" lon="-5.7784880">
        <ele>299.0</ele>
        <time>2019-07-09T10:41:39Z</time>
      </trkpt>
      <trkpt lat="39.8095780" lon="-5.7785190">
        <ele>299.4</ele>
        <time>2019-07-09T10:41:40Z</time>
      </trkpt>
      <trkpt lat="39.8098120" lon="-5.7787620">
        <ele>300.0</ele>
        <time>2019-07-09T10:41:47Z</time>
      </trkpt>
      <trkpt lat="39.8100860" lon="-5.7791170">
        <ele>299.6</ele>
        <time>2019-07-09T10:41:54Z</time>
      </trkpt>
      <trkpt lat="39.8102090" lon="-5.7792890">
        <ele>299.4</ele>
        <time>2019-07-09T10:41:57Z</time>
      </trkpt>
      <trkpt lat="39.8103260" lon="-5.7794790">
        <ele>299.2</ele>
        <time>2019-07-09T10:42:00Z</time>
      </trkpt>
      <trkpt lat="39.8104540" lon="-5.7796560">
        <ele>299.2</ele>
        <time>2019-07-09T10:42:03Z</time>
      </trkpt>
      <trkpt lat="39.8105280" lon="-5.7797780">
        <ele>299.2</ele>
        <time>2019-07-09T10:42:05Z</time>
      </trkpt>
      <trkpt lat="39.8105970" lon="-5.7798980">
        <ele>299.2</ele>
        <time>2019-07-09T10:42:07Z</time>
      </trkpt>
      <trkpt lat="39.8107840" lon="-5.7801750">
        <ele>299.0</ele>
        <time>2019-07-09T10:42:12Z</time>
      </trkpt>
      <trkpt lat="39.8108200" lon="-5.7802310">
        <ele>299.0</ele>
        <time>2019-07-09T10:42:13Z</time>
      </trkpt>
      <trkpt lat="39.8109940" lon="-5.7805200">
        <ele>299.0</ele>
        <time>2019-07-09T10:42:18Z</time>
      </trkpt>
      <trkpt lat="39.8111370" lon="-5.7807440">
        <ele>299.2</ele>
        <time>2019-07-09T10:42:22Z</time>
      </trkpt>
      <trkpt lat="39.8114140" lon="-5.7811790">
        <ele>300.0</ele>
        <time>2019-07-09T10:42:30Z</time>
      </trkpt>
      <trkpt lat="39.8116570" lon="-5.7815590">
        <ele>300.0</ele>
        <time>2019-07-09T10:42:37Z</time>
      </trkpt>
      <trkpt lat="39.8117610" lon="-5.7817240">
        <ele>300.4</ele>
        <time>2019-07-09T10:42:40Z</time>
      </trkpt>
      <trkpt lat="39.8118670" lon="-5.7818910">
        <ele>300.6</ele>
        <time>2019-07-09T10:42:43Z</time>
      </trkpt>
      <trkpt lat="39.8120090" lon="-5.7821260">
        <ele>301.0</ele>
        <time>2019-07-09T10:42:47Z</time>
      </trkpt>
      <trkpt lat="39.8121210" lon="-5.7822970">
        <ele>301.4</ele>
        <time>2019-07-09T10:42:50Z</time>
      </trkpt>
      <trkpt lat="39.8123380" lon="-5.7826440">
        <ele>302.0</ele>
        <time>2019-07-09T10:42:56Z</time>
      </trkpt>
      <trkpt lat="39.8123720" lon="-5.7827020">
        <ele>302.2</ele>
        <time>2019-07-09T10:42:57Z</time>
      </trkpt>
      <trkpt lat="39.8124410" lon="-5.7828190">
        <ele>302.4</ele>
        <time>2019-07-09T10:42:59Z</time>
      </trkpt>
      <trkpt lat="39.8125960" lon="-5.7831250">
        <ele>303.0</ele>
        <time>2019-07-09T10:43:04Z</time>
      </trkpt>
      <trkpt lat="39.8126770" lon="-5.7833150">
        <ele>303.2</ele>
        <time>2019-07-09T10:43:07Z</time>
      </trkpt>
      <trkpt lat="39.8127030" lon="-5.7833780">
        <ele>303.2</ele>
        <time>2019-07-09T10:43:08Z</time>
      </trkpt>
      <trkpt lat="39.8128600" lon="-5.7838370">
        <ele>303.8</ele>
        <time>2019-07-09T10:43:15Z</time>
      </trkpt>
      <trkpt lat="39.8129860" lon="-5.7842150">
        <ele>304.4</ele>
        <time>2019-07-09T10:43:21Z</time>
      </trkpt>
      <trkpt lat="39.8130270" lon="-5.7843390">
        <ele>304.6</ele>
        <time>2019-07-09T10:43:23Z</time>
      </trkpt>
      <trkpt lat="39.8131760" lon="-5.7848260">
        <ele>305.6</ele>
        <time>2019-07-09T10:43:31Z</time>
      </trkpt>
      <trkpt lat="39.8132310" lon="-5.7850550">
        <ele>306.4</ele>
        <time>2019-07-09T10:43:35Z</time>
      </trkpt>
      <trkpt lat="39.8132510" lon="-5.7851740">
        <ele>306.6</ele>
        <time>2019-07-09T10:43:37Z</time>
      </trkpt>
      <trkpt lat="39.8132780" lon="-5.7852900">
        <ele>306.8</ele>
        <time>2019-07-09T10:43:39Z</time>
      </trkpt>
      <trkpt lat="39.8133840" lon="-5.7858040">
        <ele>307.6</ele>
        <time>2019-07-09T10:43:48Z</time>
      </trkpt>
      <trkpt lat="39.8134320" lon="-5.7862110">
        <ele>308.4</ele>
        <time>2019-07-09T10:43:55Z</time>
      </trkpt>
      <trkpt lat="39.8134380" lon="-5.7862680">
        <ele>308.8</ele>
        <time>2019-07-09T10:43:56Z</time>
      </trkpt>
      <trkpt lat="39.8134860" lon="-5.7866850">
        <ele>309.8</ele>
        <time>2019-07-09T10:44:03Z</time>
      </trkpt>
      <trkpt lat="39.8134950" lon="-5.7867430">
        <ele>309.8</ele>
        <time>2019-07-09T10:44:04Z</time>
      </trkpt>
      <trkpt lat="39.8135370" lon="-5.7870820">
        <ele>310.8</ele>
        <time>2019-07-09T10:44:10Z</time>
      </trkpt>
      <trkpt lat="39.8135460" lon="-5.7871360">
        <ele>311.0</ele>
        <time>2019-07-09T10:44:11Z</time>
      </trkpt>
      <trkpt lat="39.8136170" lon="-5.7874990">
        <ele>312.0</ele>
        <time>2019-07-09T10:44:18Z</time>
      </trkpt>
      <trkpt lat="39.8136430" lon="-5.7876060">
        <ele>312.4</ele>
        <time>2019-07-09T10:44:20Z</time>
      </trkpt>
      <trkpt lat="39.8137230" lon="-5.7879420">
        <ele>313.0</ele>
        <time>2019-07-09T10:44:26Z</time>
      </trkpt>
      <trkpt lat="39.8137910" lon="-5.7881640">
        <ele>313.4</ele>
        <time>2019-07-09T10:44:30Z</time>
      </trkpt>
      <trkpt lat="39.8138790" lon="-5.7884610">
        <ele>313.8</ele>
        <time>2019-07-09T10:44:35Z</time>
      </trkpt>
      <trkpt lat="39.8139220" lon="-5.7885800">
        <ele>313.8</ele>
        <time>2019-07-09T10:44:37Z</time>
      </trkpt>
      <trkpt lat="39.8139750" lon="-5.7887690">
        <ele>313.8</ele>
        <time>2019-07-09T10:44:40Z</time>
      </trkpt>
      <trkpt lat="39.8140110" lon="-5.7888900">
        <ele>313.8</ele>
        <time>2019-07-09T10:44:42Z</time>
      </trkpt>
      <trkpt lat="39.8140700" lon="-5.7890660">
        <ele>313.8</ele>
        <time>2019-07-09T10:44:45Z</time>
      </trkpt>
      <trkpt lat="39.8140900" lon="-5.7891240">
        <ele>313.8</ele>
        <time>2019-07-09T10:44:46Z</time>
      </trkpt>
      <trkpt lat="39.8141620" lon="-5.7893580">
        <ele>314.0</ele>
        <time>2019-07-09T10:44:50Z</time>
      </trkpt>
      <trkpt lat="39.8142420" lon="-5.7896460">
        <ele>314.6</ele>
        <time>2019-07-09T10:44:55Z</time>
      </trkpt>
      <trkpt lat="39.8142970" lon="-5.7898830">
        <ele>315.0</ele>
        <time>2019-07-09T10:44:59Z</time>
      </trkpt>
      <trkpt lat="39.8143570" lon="-5.7901830">
        <ele>315.6</ele>
        <time>2019-07-09T10:45:04Z</time>
      </trkpt>
      <trkpt lat="39.8143930" lon="-5.7904280">
        <ele>316.2</ele>
        <time>2019-07-09T10:45:08Z</time>
      </trkpt>
      <trkpt lat="39.8144170" lon="-5.7906880">
        <ele>316.2</ele>
        <time>2019-07-09T10:45:12Z</time>
      </trkpt>
      <trkpt lat="39.8144310" lon="-5.7910660">
        <ele>316.2</ele>
        <time>2019-07-09T10:45:17Z</time>
      </trkpt>
      <trkpt lat="39.8144290" lon="-5.7912350">
        <ele>316.0</ele>
        <time>2019-07-09T10:45:19Z</time>
      </trkpt>
      <trkpt lat="39.8144240" lon="-5.7914100">
        <ele>315.6</ele>
        <time>2019-07-09T10:45:21Z</time>
      </trkpt>
      <trkpt lat="39.8144180" lon="-5.7915010">
        <ele>315.2</ele>
        <time>2019-07-09T10:45:22Z</time>
      </trkpt>
      <trkpt lat="39.8144050" lon="-5.7917940">
        <ele>314.2</ele>
        <time>2019-07-09T10:45:25Z</time>
      </trkpt>
      <trkpt lat="39.8144060" lon="-5.7918970">
        <ele>314.0</ele>
        <time>2019-07-09T10:45:26Z</time>
      </trkpt>
      <trkpt lat="39.8144080" lon="-5.7920030">
        <ele>313.8</ele>
        <time>2019-07-09T10:45:27Z</time>
      </trkpt>
      <trkpt lat="39.8144160" lon="-5.7922230">
        <ele>313.4</ele>
        <time>2019-07-09T10:45:29Z</time>
      </trkpt>
      <trkpt lat="39.8144280" lon="-5.7924460">
        <ele>313.0</ele>
        <time>2019-07-09T10:45:31Z</time>
      </trkpt>
      <trkpt lat="39.8144330" lon="-5.7925570">
        <ele>312.8</ele>
        <time>2019-07-09T10:45:32Z</time>
      </trkpt>
      <trkpt lat="39.8144560" lon="-5.7929880">
        <ele>312.0</ele>
        <time>2019-07-09T10:45:36Z</time>
      </trkpt>
      <trkpt lat="39.8144620" lon="-5.7930910">
        <ele>312.0</ele>
        <time>2019-07-09T10:45:37Z</time>
      </trkpt>
      <trkpt lat="39.8144730" lon="-5.7933820">
        <ele>311.4</ele>
        <time>2019-07-09T10:45:40Z</time>
      </trkpt>
      <trkpt lat="39.8144620" lon="-5.7937200">
        <ele>310.8</ele>
        <time>2019-07-09T10:45:44Z</time>
      </trkpt>
      <trkpt lat="39.8144390" lon="-5.7938810">
        <ele>310.8</ele>
        <time>2019-07-09T10:45:46Z</time>
      </trkpt>
      <trkpt lat="39.8144260" lon="-5.7939610">
        <ele>310.8</ele>
        <time>2019-07-09T10:45:47Z</time>
      </trkpt>
      <trkpt lat="39.8143140" lon="-5.7944050">
        <ele>311.2</ele>
        <time>2019-07-09T10:45:53Z</time>
      </trkpt>
      <trkpt lat="39.8142460" lon="-5.7946120">
        <ele>311.6</ele>
        <time>2019-07-09T10:45:56Z</time>
      </trkpt>
      <trkpt lat="39.8142020" lon="-5.7947500">
        <ele>311.8</ele>
        <time>2019-07-09T10:45:58Z</time>
      </trkpt>
      <trkpt lat="39.8141320" lon="-5.7949520">
        <ele>311.8</ele>
        <time>2019-07-09T10:46:01Z</time>
      </trkpt>
      <trkpt lat="39.8141150" lon="-5.7950220">
        <ele>311.6</ele>
        <time>2019-07-09T10:46:02Z</time>
      </trkpt>
      <trkpt lat="39.8140490" lon="-5.7953170">
        <ele>312.0</ele>
        <time>2019-07-09T10:46:06Z</time>
      </trkpt>
      <trkpt lat="39.8139800" lon="-5.7956070">
        <ele>312.4</ele>
        <time>2019-07-09T10:46:10Z</time>
      </trkpt>
      <trkpt lat="39.8139220" lon="-5.7958840">
        <ele>313.0</ele>
        <time>2019-07-09T10:46:14Z</time>
      </trkpt>
      <trkpt lat="39.8138810" lon="-5.7960790">
        <ele>313.4</ele>
        <time>2019-07-09T10:46:17Z</time>
      </trkpt>
      <trkpt lat="39.8138450" lon="-5.7962710">
        <ele>313.4</ele>
        <time>2019-07-09T10:46:20Z</time>
      </trkpt>
      <trkpt lat="39.8138200" lon="-5.7963980">
        <ele>313.8</ele>
        <time>2019-07-09T10:46:22Z</time>
      </trkpt>
      <trkpt lat="39.8137960" lon="-5.7965280">
        <ele>314.2</ele>
        <time>2019-07-09T10:46:24Z</time>
      </trkpt>
      <trkpt lat="39.8137730" lon="-5.7966560">
        <ele>314.4</ele>
        <time>2019-07-09T10:46:26Z</time>
      </trkpt>
      <trkpt lat="39.8137450" lon="-5.7968340">
        <ele>315.0</ele>
        <time>2019-07-09T10:46:29Z</time>
      </trkpt>
      <trkpt lat="39.8137300" lon="-5.7969520">
        <ele>315.4</ele>
        <time>2019-07-09T10:46:31Z</time>
      </trkpt>
      <trkpt lat="39.8137080" lon="-5.7971880">
        <ele>315.6</ele>
        <time>2019-07-09T10:46:35Z</time>
      </trkpt>
      <trkpt lat="39.8137090" lon="-5.7974090">
        <ele>316.4</ele>
        <time>2019-07-09T10:46:39Z</time>
      </trkpt>
      <trkpt lat="39.8137200" lon="-5.7975110">
        <ele>316.6</ele>
        <time>2019-07-09T10:46:41Z</time>
      </trkpt>
      <trkpt lat="39.8137510" lon="-5.7977550">
        <ele>317.6</ele>
        <time>2019-07-09T10:46:46Z</time>
      </trkpt>
      <trkpt lat="39.8137710" lon="-5.7979290">
        <ele>318.4</ele>
        <time>2019-07-09T10:46:50Z</time>
      </trkpt>
      <trkpt lat="39.8137780" lon="-5.7979640">
        <ele>318.6</ele>
        <time>2019-07-09T10:46:51Z</time>
      </trkpt>
      <trkpt lat="39.8138370" lon="-5.7981360">
        <ele>319.6</ele>
        <time>2019-07-09T10:46:56Z</time>
      </trkpt>
      <trkpt lat="39.8138500" lon="-5.7981700">
        <ele>319.8</ele>
        <time>2019-07-09T10:46:57Z</time>
      </trkpt>
      <trkpt lat="39.8139120" lon="-5.7983010">
        <ele>320.8</ele>
        <time>2019-07-09T10:47:01Z</time>
      </trkpt>
      <trkpt lat="39.8139460" lon="-5.7983660">
        <ele>321.2</ele>
        <time>2019-07-09T10:47:03Z</time>
      </trkpt>
      <trkpt lat="39.8140030" lon="-5.7984600">
        <ele>321.8</ele>
        <time>2019-07-09T10:47:06Z</time>
      </trkpt>
      <trkpt lat="39.8140920" lon="-5.7985760">
        <ele>322.8</ele>
        <time>2019-07-09T10:47:10Z</time>
      </trkpt>
      <trkpt lat="39.8141170" lon="-5.7986030">
        <ele>323.0</ele>
        <time>2019-07-09T10:47:11Z</time>
      </trkpt>
      <trkpt lat="39.8142950" lon="-5.7987500">
        <ele>323.8</ele>
        <time>2019-07-09T10:47:17Z</time>
      </trkpt>
      <trkpt lat="39.8143260" lon="-5.7987710">
        <ele>324.0</ele>
        <time>2019-07-09T10:47:18Z</time>
      </trkpt>
      <trkpt lat="39.8145390" lon="-5.7989120">
        <ele>324.2</ele>
        <time>2019-07-09T10:47:24Z</time>
      </trkpt>
      <trkpt lat="39.8146670" lon="-5.7990010">
        <ele>323.8</ele>
        <time>2019-07-09T10:47:27Z</time>
      </trkpt>
      <trkpt lat="39.8148130" lon="-5.7991160">
        <ele>323.2</ele>
        <time>2019-07-09T10:47:30Z</time>
      </trkpt>
      <trkpt lat="39.8149250" lon="-5.7991920">
        <ele>322.8</ele>
        <time>2019-07-09T10:47:32Z</time>
      </trkpt>
      <trkpt lat="39.8150490" lon="-5.7992770">
        <ele>322.0</ele>
        <time>2019-07-09T10:47:34Z</time>
      </trkpt>
      <trkpt lat="39.8151170" lon="-5.7993220">
        <ele>321.6</ele>
        <time>2019-07-09T10:47:35Z</time>
      </trkpt>
      <trkpt lat="39.8151870" lon="-5.7993680">
        <ele>321.0</ele>
        <time>2019-07-09T10:47:36Z</time>
      </trkpt>
      <trkpt lat="39.8152600" lon="-5.7994160">
        <ele>320.4</ele>
        <time>2019-07-09T10:47:37Z</time>
      </trkpt>
      <trkpt lat="39.8154150" lon="-5.7995110">
        <ele>319.6</ele>
        <time>2019-07-09T10:47:39Z</time>
      </trkpt>
      <trkpt lat="39.8154960" lon="-5.7995560">
        <ele>319.0</ele>
        <time>2019-07-09T10:47:40Z</time>
      </trkpt>
      <trkpt lat="39.8156670" lon="-5.7996320">
        <ele>317.6</ele>
        <time>2019-07-09T10:47:42Z</time>
      </trkpt>
      <trkpt lat="39.8158350" lon="-5.7996560">
        <ele>316.4</ele>
        <time>2019-07-09T10:47:44Z</time>
      </trkpt>
      <trkpt lat="39.8159140" lon="-5.7996460">
        <ele>315.8</ele>
        <time>2019-07-09T10:47:45Z</time>
      </trkpt>
      <trkpt lat="39.8160440" lon="-5.7996020">
        <ele>315.0</ele>
        <time>2019-07-09T10:47:47Z</time>
      </trkpt>
      <trkpt lat="39.8160910" lon="-5.7995730">
        <ele>314.4</ele>
        <time>2019-07-09T10:47:48Z</time>
      </trkpt>
      <trkpt lat="39.8161270" lon="-5.7995430">
        <ele>313.8</ele>
        <time>2019-07-09T10:47:49Z</time>
      </trkpt>
      <trkpt lat="39.8161590" lon="-5.7995180">
        <ele>313.4</ele>
        <time>2019-07-09T10:47:50Z</time>
      </trkpt>
      <trkpt lat="39.8162240" lon="-5.7994690">
        <ele>313.2</ele>
        <time>2019-07-09T10:47:52Z</time>
      </trkpt>
      <trkpt lat="39.8162570" lon="-5.7994380">
        <ele>312.8</ele>
        <time>2019-07-09T10:47:53Z</time>
      </trkpt>
      <trkpt lat="39.8163670" lon="-5.7993230">
        <ele>312.0</ele>
        <time>2019-07-09T10:47:56Z</time>
      </trkpt>
      <trkpt lat="39.8164510" lon="-5.7992430">
        <ele>311.8</ele>
        <time>2019-07-09T10:47:58Z</time>
      </trkpt>
      <trkpt lat="39.8164930" lon="-5.7992060">
        <ele>311.4</ele>
        <time>2019-07-09T10:47:59Z</time>
      </trkpt>
      <trkpt lat="39.8166410" lon="-5.7991450">
        <ele>311.0</ele>
        <time>2019-07-09T10:48:02Z</time>
      </trkpt>
      <trkpt lat="39.8166930" lon="-5.7991490">
        <ele>310.8</ele>
        <time>2019-07-09T10:48:03Z</time>
      </trkpt>
      <trkpt lat="39.8167420" lon="-5.7991660">
        <ele>310.6</ele>
        <time>2019-07-09T10:48:04Z</time>
      </trkpt>
      <trkpt lat="39.8167870" lon="-5.7991930">
        <ele>310.4</ele>
        <time>2019-07-09T10:48:05Z</time>
      </trkpt>
      <trkpt lat="39.8168670" lon="-5.7992680">
        <ele>310.2</ele>
        <time>2019-07-09T10:48:07Z</time>
      </trkpt>
      <trkpt lat="39.8169900" lon="-5.7993890">
        <ele>310.2</ele>
        <time>2019-07-09T10:48:10Z</time>
      </trkpt>
      <trkpt lat="39.8170810" lon="-5.7994760">
        <ele>309.8</ele>
        <time>2019-07-09T10:48:12Z</time>
      </trkpt>
      <trkpt lat="39.8171320" lon="-5.7995180">
        <ele>309.6</ele>
        <time>2019-07-09T10:48:13Z</time>
      </trkpt>
      <trkpt lat="39.8172910" lon="-5.7996290">
        <ele>309.0</ele>
        <time>2019-07-09T10:48:16Z</time>
      </trkpt>
      <trkpt lat="39.8173960" lon="-5.7996940">
        <ele>308.8</ele>
        <time>2019-07-09T10:48:18Z</time>
      </trkpt>
      <trkpt lat="39.8174940" lon="-5.7997530">
        <ele>308.8</ele>
        <time>2019-07-09T10:48:20Z</time>
      </trkpt>
      <trkpt lat="39.8175410" lon="-5.7997820">
        <ele>308.8</ele>
        <time>2019-07-09T10:48:21Z</time>
      </trkpt>
      <trkpt lat="39.8175790" lon="-5.7998140">
        <ele>308.8</ele>
        <time>2019-07-09T10:48:22Z</time>
      </trkpt>
      <trkpt lat="39.8175970" lon="-5.7998510">
        <ele>308.8</ele>
        <time>2019-07-09T10:48:23Z</time>
      </trkpt>
      <trkpt lat="39.8175930" lon="-5.7999350">
        <ele>309.2</ele>
        <time>2019-07-09T10:48:25Z</time>
      </trkpt>
      <trkpt lat="39.8175060" lon="-5.8000300">
        <ele>309.2</ele>
        <time>2019-07-09T10:48:28Z</time>
      </trkpt>
      <trkpt lat="39.8174660" lon="-5.8000520">
        <ele>309.2</ele>
        <time>2019-07-09T10:48:29Z</time>
      </trkpt>
      <trkpt lat="39.8174250" lon="-5.8000770">
        <ele>309.2</ele>
        <time>2019-07-09T10:48:30Z</time>
      </trkpt>
      <trkpt lat="39.8173460" lon="-5.8001370">
        <ele>309.2</ele>
        <time>2019-07-09T10:48:32Z</time>
      </trkpt>
      <trkpt lat="39.8172730" lon="-5.8002050">
        <ele>309.2</ele>
        <time>2019-07-09T10:48:34Z</time>
      </trkpt>
      <trkpt lat="39.8171450" lon="-5.8003320">
        <ele>309.8</ele>
        <time>2019-07-09T10:48:38Z</time>
      </trkpt>
      <trkpt lat="39.8170840" lon="-5.8003740">
        <ele>310.0</ele>
        <time>2019-07-09T10:48:40Z</time>
      </trkpt>
      <trkpt lat="39.8170560" lon="-5.8003960">
        <ele>310.2</ele>
        <time>2019-07-09T10:48:41Z</time>
      </trkpt>
      <trkpt lat="39.8169230" lon="-5.8004740">
        <ele>310.6</ele>
        <time>2019-07-09T10:48:46Z</time>
      </trkpt>
      <trkpt lat="39.8169040" lon="-5.8004940">
        <ele>310.8</ele>
        <time>2019-07-09T10:48:47Z</time>
      </trkpt>
      <trkpt lat="39.8168900" lon="-5.8005470">
        <ele>311.0</ele>
        <time>2019-07-09T10:48:49Z</time>
      </trkpt>
      <trkpt lat="39.8169100" lon="-5.8006100">
        <ele>311.2</ele>
        <time>2019-07-09T10:48:51Z</time>
      </trkpt>
      <trkpt lat="39.8169520" lon="-5.8006680">
        <ele>311.4</ele>
        <time>2019-07-09T10:48:53Z</time>
      </trkpt>
      <trkpt lat="39.8170040" lon="-5.8007730">
        <ele>311.6</ele>
        <time>2019-07-09T10:48:56Z</time>
      </trkpt>
      <trkpt lat="39.8170220" lon="-5.8008530">
        <ele>311.6</ele>
        <time>2019-07-09T10:48:58Z</time>
      </trkpt>
      <trkpt lat="39.8170490" lon="-5.8010050">
        <ele>312.2</ele>
        <time>2019-07-09T10:49:02Z</time>
      </trkpt>
      <trkpt lat="39.8170280" lon="-5.8011080">
        <ele>312.8</ele>
        <time>2019-07-09T10:49:05Z</time>
      </trkpt>
      <trkpt lat="39.8170120" lon="-5.8011750">
        <ele>313.0</ele>
        <time>2019-07-09T10:49:07Z</time>
      </trkpt>
      <trkpt lat="39.8169440" lon="-5.8013330">
        <ele>313.6</ele>
        <time>2019-07-09T10:49:12Z</time>
      </trkpt>
      <trkpt lat="39.8169200" lon="-5.8013980">
        <ele>313.8</ele>
        <time>2019-07-09T10:49:14Z</time>
      </trkpt>
      <trkpt lat="39.8169200" lon="-5.8014330">
        <ele>314.0</ele>
        <time>2019-07-09T10:49:15Z</time>
      </trkpt>
      <trkpt lat="39.8169280" lon="-5.8014670">
        <ele>314.2</ele>
        <time>2019-07-09T10:49:16Z</time>
      </trkpt>
      <trkpt lat="39.8169460" lon="-5.8015660">
        <ele>314.8</ele>
        <time>2019-07-09T10:49:19Z</time>
      </trkpt>
      <trkpt lat="39.8169530" lon="-5.8015990">
        <ele>315.0</ele>
        <time>2019-07-09T10:49:20Z</time>
      </trkpt>
      <trkpt lat="39.8169790" lon="-5.8016970">
        <ele>315.8</ele>
        <time>2019-07-09T10:49:23Z</time>
      </trkpt>
      <trkpt lat="39.8169980" lon="-5.8017670">
        <ele>316.2</ele>
        <time>2019-07-09T10:49:25Z</time>
      </trkpt>
      <trkpt lat="39.8170310" lon="-5.8018680">
        <ele>316.8</ele>
        <time>2019-07-09T10:49:28Z</time>
      </trkpt>
      <trkpt lat="39.8170630" lon="-5.8019690">
        <ele>317.4</ele>
        <time>2019-07-09T10:49:31Z</time>
      </trkpt>
      <trkpt lat="39.8170750" lon="-5.8020010">
        <ele>317.6</ele>
        <time>2019-07-09T10:49:32Z</time>
      </trkpt>
      <trkpt lat="39.8171140" lon="-5.8021230">
        <ele>318.6</ele>
        <time>2019-07-09T10:49:36Z</time>
      </trkpt>
      <trkpt lat="39.8171160" lon="-5.8021750">
        <ele>319.4</ele>
        <time>2019-07-09T10:49:38Z</time>
      </trkpt>
      <trkpt lat="39.8171170" lon="-5.8022360">
        <ele>319.8</ele>
        <time>2019-07-09T10:49:40Z</time>
      </trkpt>
      <trkpt lat="39.8171100" lon="-5.8022620">
        <ele>320.0</ele>
        <time>2019-07-09T10:49:41Z</time>
      </trkpt>
      <trkpt lat="39.8170760" lon="-5.8023050">
        <ele>320.0</ele>
        <time>2019-07-09T10:49:43Z</time>
      </trkpt>
      <trkpt lat="39.8170180" lon="-5.8023230">
        <ele>320.4</ele>
        <time>2019-07-09T10:49:45Z</time>
      </trkpt>
      <trkpt lat="39.8169500" lon="-5.8023330">
        <ele>320.2</ele>
        <time>2019-07-09T10:49:47Z</time>
      </trkpt>
      <trkpt lat="39.8168580" lon="-5.8024310">
        <ele>320.0</ele>
        <time>2019-07-09T10:49:51Z</time>
      </trkpt>
      <trkpt lat="39.8168170" lon="-5.8025150">
        <ele>320.8</ele>
        <time>2019-07-09T10:49:55Z</time>
      </trkpt>
      <trkpt lat="39.8168180" lon="-5.8025450">
        <ele>321.0</ele>
        <time>2019-07-09T10:49:56Z</time>
      </trkpt>
      <trkpt lat="39.8167950" lon="-5.8026200">
        <ele>321.2</ele>
        <time>2019-07-09T10:49:59Z</time>
      </trkpt>
      <trkpt lat="39.8167750" lon="-5.8026390">
        <ele>321.2</ele>
        <time>2019-07-09T10:50:00Z</time>
      </trkpt>
      <trkpt lat="39.8167400" lon="-5.8026740">
        <ele>321.2</ele>
        <time>2019-07-09T10:50:02Z</time>
      </trkpt>
      <trkpt lat="39.8167300" lon="-5.8026920">
        <ele>321.0</ele>
        <time>2019-07-09T10:50:03Z</time>
      </trkpt>
      <trkpt lat="39.8167270" lon="-5.8027330">
        <ele>321.0</ele>
        <time>2019-07-09T10:50:05Z</time>
      </trkpt>
      <trkpt lat="39.8167320" lon="-5.8027860">
        <ele>321.0</ele>
        <time>2019-07-09T10:50:07Z</time>
      </trkpt>
      <trkpt lat="39.8167280" lon="-5.8028210">
        <ele>320.8</ele>
        <time>2019-07-09T10:50:09Z</time>
      </trkpt>
      <trkpt lat="39.8167200" lon="-5.8028370">
        <ele>320.8</ele>
        <time>2019-07-09T10:50:10Z</time>
      </trkpt>
      <trkpt lat="39.8166690" lon="-5.8028970">
        <ele>320.4</ele>
        <time>2019-07-09T10:50:13Z</time>
      </trkpt>
      <trkpt lat="39.8166540" lon="-5.8029210">
        <ele>320.4</ele>
        <time>2019-07-09T10:50:14Z</time>
      </trkpt>
      <trkpt lat="39.8166350" lon="-5.8029480">
        <ele>320.2</ele>
        <time>2019-07-09T10:50:15Z</time>
      </trkpt>
      <trkpt lat="39.8165220" lon="-5.8030980">
        <ele>320.8</ele>
        <time>2019-07-09T10:50:20Z</time>
      </trkpt>
      <trkpt lat="39.8163790" lon="-5.8033100">
        <ele>321.4</ele>
        <time>2019-07-09T10:50:26Z</time>
      </trkpt>
      <trkpt lat="39.8162410" lon="-5.8035010">
        <ele>322.2</ele>
        <time>2019-07-09T10:50:32Z</time>
      </trkpt>
      <trkpt lat="39.8162320" lon="-5.8035320">
        <ele>322.6</ele>
        <time>2019-07-09T10:50:33Z</time>
      </trkpt>
      <trkpt lat="39.8162590" lon="-5.8036640">
        <ele>323.4</ele>
        <time>2019-07-09T10:50:37Z</time>
      </trkpt>
      <trkpt lat="39.8163110" lon="-5.8038410">
        <ele>323.6</ele>
        <time>2019-07-09T10:50:41Z</time>
      </trkpt>
      <trkpt lat="39.8163440" lon="-5.8040000">
        <ele>323.6</ele>
        <time>2019-07-09T10:50:44Z</time>
      </trkpt>
      <trkpt lat="39.8163820" lon="-5.8041010">
        <ele>323.6</ele>
        <time>2019-07-09T10:50:46Z</time>
      </trkpt>
      <trkpt lat="39.8165120" lon="-5.8044070">
        <ele>323.0</ele>
        <time>2019-07-09T10:50:52Z</time>
      </trkpt>
      <trkpt lat="39.8165630" lon="-5.8045000">
        <ele>322.8</ele>
        <time>2019-07-09T10:50:54Z</time>
      </trkpt>
      <trkpt lat="39.8165910" lon="-5.8045360">
        <ele>322.6</ele>
        <time>2019-07-09T10:50:55Z</time>
      </trkpt>
      <trkpt lat="39.8166570" lon="-5.8046210">
        <ele>322.2</ele>
        <time>2019-07-09T10:50:57Z</time>
      </trkpt>
      <trkpt lat="39.8167930" lon="-5.8048100">
        <ele>322.0</ele>
        <time>2019-07-09T10:51:02Z</time>
      </trkpt>
      <trkpt lat="39.8168290" lon="-5.8048440">
        <ele>322.0</ele>
        <time>2019-07-09T10:51:03Z</time>
      </trkpt>
      <trkpt lat="39.8169220" lon="-5.8049790">
        <ele>321.4</ele>
        <time>2019-07-09T10:51:06Z</time>
      </trkpt>
      <trkpt lat="39.8169390" lon="-5.8050230">
        <ele>321.2</ele>
        <time>2019-07-09T10:51:07Z</time>
      </trkpt>
      <trkpt lat="39.8169980" lon="-5.8051210">
        <ele>320.4</ele>
        <time>2019-07-09T10:51:10Z</time>
      </trkpt>
      <trkpt lat="39.8170190" lon="-5.8051700">
        <ele>320.0</ele>
        <time>2019-07-09T10:51:11Z</time>
      </trkpt>
      <trkpt lat="39.8170420" lon="-5.8052150">
        <ele>319.8</ele>
        <time>2019-07-09T10:51:12Z</time>
      </trkpt>
      <trkpt lat="39.8171090" lon="-5.8052930">
        <ele>319.2</ele>
        <time>2019-07-09T10:51:14Z</time>
      </trkpt>
      <trkpt lat="39.8171560" lon="-5.8053210">
        <ele>318.8</ele>
        <time>2019-07-09T10:51:15Z</time>
      </trkpt>
      <trkpt lat="39.8172700" lon="-5.8053870">
        <ele>317.8</ele>
        <time>2019-07-09T10:51:17Z</time>
      </trkpt>
      <trkpt lat="39.8173250" lon="-5.8054290">
        <ele>317.6</ele>
        <time>2019-07-09T10:51:18Z</time>
      </trkpt>
      <trkpt lat="39.8174400" lon="-5.8055180">
        <ele>316.4</ele>
        <time>2019-07-09T10:51:20Z</time>
      </trkpt>
      <trkpt lat="39.8175370" lon="-5.8055990">
        <ele>314.8</ele>
        <time>2019-07-09T10:51:22Z</time>
      </trkpt>
      <trkpt lat="39.8176180" lon="-5.8056700">
        <ele>313.4</ele>
        <time>2019-07-09T10:51:24Z</time>
      </trkpt>
      <trkpt lat="39.8176540" lon="-5.8057120">
        <ele>312.8</ele>
        <time>2019-07-09T10:51:25Z</time>
      </trkpt>
      <trkpt lat="39.8176920" lon="-5.8057520">
        <ele>312.2</ele>
        <time>2019-07-09T10:51:26Z</time>
      </trkpt>
      <trkpt lat="39.8177200" lon="-5.8058010">
        <ele>311.2</ele>
        <time>2019-07-09T10:51:27Z</time>
      </trkpt>
      <trkpt lat="39.8177370" lon="-5.8058590">
        <ele>310.6</ele>
        <time>2019-07-09T10:51:28Z</time>
      </trkpt>
      <trkpt lat="39.8177450" lon="-5.8059240">
        <ele>310.0</ele>
        <time>2019-07-09T10:51:29Z</time>
      </trkpt>
      <trkpt lat="39.8177130" lon="-5.8060560">
        <ele>309.2</ele>
        <time>2019-07-09T10:51:31Z</time>
      </trkpt>
      <trkpt lat="39.8176740" lon="-5.8061150">
        <ele>309.0</ele>
        <time>2019-07-09T10:51:32Z</time>
      </trkpt>
      <trkpt lat="39.8175810" lon="-5.8062360">
        <ele>307.6</ele>
        <time>2019-07-09T10:51:34Z</time>
      </trkpt>
      <trkpt lat="39.8174990" lon="-5.8063860">
        <ele>306.2</ele>
        <time>2019-07-09T10:51:36Z</time>
      </trkpt>
      <trkpt lat="39.8174640" lon="-5.8064650">
        <ele>305.4</ele>
        <time>2019-07-09T10:51:37Z</time>
      </trkpt>
      <trkpt lat="39.8174380" lon="-5.8065460">
        <ele>304.8</ele>
        <time>2019-07-09T10:51:38Z</time>
      </trkpt>
      <trkpt lat="39.8174450" lon="-5.8067180">
        <ele>303.8</ele>
        <time>2019-07-09T10:51:40Z</time>
      </trkpt>
      <trkpt lat="39.8175840" lon="-5.8068920">
        <ele>303.0</ele>
        <time>2019-07-09T10:51:43Z</time>
      </trkpt>
      <trkpt lat="39.8176680" lon="-5.8069500">
        <ele>303.0</ele>
        <time>2019-07-09T10:51:45Z</time>
      </trkpt>
      <trkpt lat="39.8177040" lon="-5.8069770">
        <ele>303.0</ele>
        <time>2019-07-09T10:51:46Z</time>
      </trkpt>
      <trkpt lat="39.8177380" lon="-5.8070100">
        <ele>303.0</ele>
        <time>2019-07-09T10:51:47Z</time>
      </trkpt>
      <trkpt lat="39.8178140" lon="-5.8070740">
        <ele>303.0</ele>
        <time>2019-07-09T10:51:49Z</time>
      </trkpt>
      <trkpt lat="39.8178920" lon="-5.8071330">
        <ele>303.0</ele>
        <time>2019-07-09T10:51:51Z</time>
      </trkpt>
      <trkpt lat="39.8180560" lon="-5.8072420">
        <ele>303.4</ele>
        <time>2019-07-09T10:51:55Z</time>
      </trkpt>
      <trkpt lat="39.8182660" lon="-5.8073910">
        <ele>303.6</ele>
        <time>2019-07-09T10:52:00Z</time>
      </trkpt>
      <trkpt lat="39.8183590" lon="-5.8074380">
        <ele>303.6</ele>
        <time>2019-07-09T10:52:02Z</time>
      </trkpt>
      <trkpt lat="39.8184580" lon="-5.8074720">
        <ele>303.6</ele>
        <time>2019-07-09T10:52:04Z</time>
      </trkpt>
      <trkpt lat="39.8186200" lon="-5.8074790">
        <ele>303.4</ele>
        <time>2019-07-09T10:52:07Z</time>
      </trkpt>
      <trkpt lat="39.8189060" lon="-5.8074080">
        <ele>302.6</ele>
        <time>2019-07-09T10:52:12Z</time>
      </trkpt>
      <trkpt lat="39.8191110" lon="-5.8074710">
        <ele>302.6</ele>
        <time>2019-07-09T10:52:16Z</time>
      </trkpt>
      <trkpt lat="39.8191560" lon="-5.8074990">
        <ele>302.6</ele>
        <time>2019-07-09T10:52:17Z</time>
      </trkpt>
      <trkpt lat="39.8192380" lon="-5.8075640">
        <ele>303.0</ele>
        <time>2019-07-09T10:52:19Z</time>
      </trkpt>
      <trkpt lat="39.8193170" lon="-5.8076300">
        <ele>303.2</ele>
        <time>2019-07-09T10:52:21Z</time>
      </trkpt>
      <trkpt lat="39.8193550" lon="-5.8076640">
        <ele>303.4</ele>
        <time>2019-07-09T10:52:22Z</time>
      </trkpt>
      <trkpt lat="39.8193940" lon="-5.8076980">
        <ele>303.6</ele>
        <time>2019-07-09T10:52:23Z</time>
      </trkpt>
      <trkpt lat="39.8196260" lon="-5.8079580">
        <ele>304.0</ele>
        <time>2019-07-09T10:52:29Z</time>
      </trkpt>
      <trkpt lat="39.8199270" lon="-5.8083240">
        <ele>302.4</ele>
        <time>2019-07-09T10:52:35Z</time>
      </trkpt>
      <trkpt lat="39.8200930" lon="-5.8085240">
        <ele>301.4</ele>
        <time>2019-07-09T10:52:38Z</time>
      </trkpt>
      <trkpt lat="39.8202490" lon="-5.8087350">
        <ele>300.6</ele>
        <time>2019-07-09T10:52:41Z</time>
      </trkpt>
      <trkpt lat="39.8203460" lon="-5.8088820">
        <ele>300.0</ele>
        <time>2019-07-09T10:52:43Z</time>
      </trkpt>
      <trkpt lat="39.8203950" lon="-5.8089530">
        <ele>299.8</ele>
        <time>2019-07-09T10:52:44Z</time>
      </trkpt>
      <trkpt lat="39.8204960" lon="-5.8090800">
        <ele>299.6</ele>
        <time>2019-07-09T10:52:46Z</time>
      </trkpt>
      <trkpt lat="39.8206540" lon="-5.8092340">
        <ele>299.4</ele>
        <time>2019-07-09T10:52:49Z</time>
      </trkpt>
      <trkpt lat="39.8207950" lon="-5.8093880">
        <ele>299.4</ele>
        <time>2019-07-09T10:52:52Z</time>
      </trkpt>
      <trkpt lat="39.8209510" lon="-5.8095880">
        <ele>300.2</ele>
        <time>2019-07-09T10:52:56Z</time>
      </trkpt>
      <trkpt lat="39.8211490" lon="-5.8099510">
        <ele>301.0</ele>
        <time>2019-07-09T10:53:03Z</time>
      </trkpt>
      <trkpt lat="39.8211740" lon="-5.8100070">
        <ele>301.2</ele>
        <time>2019-07-09T10:53:04Z</time>
      </trkpt>
      <trkpt lat="39.8213620" lon="-5.8104310">
        <ele>300.6</ele>
        <time>2019-07-09T10:53:11Z</time>
      </trkpt>
      <trkpt lat="39.8215170" lon="-5.8108030">
        <ele>300.2</ele>
        <time>2019-07-09T10:53:17Z</time>
      </trkpt>
      <trkpt lat="39.8217080" lon="-5.8112140">
        <ele>300.0</ele>
        <time>2019-07-09T10:53:24Z</time>
      </trkpt>
      <trkpt lat="39.8217350" lon="-5.8112710">
        <ele>300.0</ele>
        <time>2019-07-09T10:53:25Z</time>
      </trkpt>
      <trkpt lat="39.8219940" lon="-5.8117360">
        <ele>300.0</ele>
        <time>2019-07-09T10:53:34Z</time>
      </trkpt>
      <trkpt lat="39.8220220" lon="-5.8117870">
        <ele>300.0</ele>
        <time>2019-07-09T10:53:35Z</time>
      </trkpt>
      <trkpt lat="39.8222440" lon="-5.8122520">
        <ele>300.4</ele>
        <time>2019-07-09T10:53:44Z</time>
      </trkpt>
      <trkpt lat="39.8223190" lon="-5.8124490">
        <ele>300.6</ele>
        <time>2019-07-09T10:53:48Z</time>
      </trkpt>
      <trkpt lat="39.8223810" lon="-5.8126610">
        <ele>300.8</ele>
        <time>2019-07-09T10:53:52Z</time>
      </trkpt>
      <trkpt lat="39.8225770" lon="-5.8132240">
        <ele>300.8</ele>
        <time>2019-07-09T10:54:02Z</time>
      </trkpt>
      <trkpt lat="39.8226270" lon="-5.8133430">
        <ele>300.8</ele>
        <time>2019-07-09T10:54:04Z</time>
      </trkpt>
      <trkpt lat="39.8227050" lon="-5.8136290">
        <ele>300.4</ele>
        <time>2019-07-09T10:54:08Z</time>
      </trkpt>
      <trkpt lat="39.8227530" lon="-5.8138750">
        <ele>299.6</ele>
        <time>2019-07-09T10:54:11Z</time>
      </trkpt>
      <trkpt lat="39.8227740" lon="-5.8139550">
        <ele>299.4</ele>
        <time>2019-07-09T10:54:12Z</time>
      </trkpt>
      <trkpt lat="39.8228020" lon="-5.8140270">
        <ele>299.2</ele>
        <time>2019-07-09T10:54:13Z</time>
      </trkpt>
      <trkpt lat="39.8228360" lon="-5.8140930">
        <ele>298.4</ele>
        <time>2019-07-09T10:54:14Z</time>
      </trkpt>
      <trkpt lat="39.8229060" lon="-5.8142140">
        <ele>298.2</ele>
        <time>2019-07-09T10:54:16Z</time>
      </trkpt>
      <trkpt lat="39.8229800" lon="-5.8143210">
        <ele>297.8</ele>
        <time>2019-07-09T10:54:18Z</time>
      </trkpt>
      <trkpt lat="39.8230110" lon="-5.8143790">
        <ele>297.6</ele>
        <time>2019-07-09T10:54:19Z</time>
      </trkpt>
      <trkpt lat="39.8230720" lon="-5.8145020">
        <ele>297.6</ele>
        <time>2019-07-09T10:54:21Z</time>
      </trkpt>
      <trkpt lat="39.8231070" lon="-5.8145580">
        <ele>297.4</ele>
        <time>2019-07-09T10:54:22Z</time>
      </trkpt>
      <trkpt lat="39.8233350" lon="-5.8149230">
        <ele>297.6</ele>
        <time>2019-07-09T10:54:29Z</time>
      </trkpt>
      <trkpt lat="39.8234540" lon="-5.8151090">
        <ele>298.6</ele>
        <time>2019-07-09T10:54:33Z</time>
      </trkpt>
      <trkpt lat="39.8235100" lon="-5.8151880">
        <ele>298.8</ele>
        <time>2019-07-09T10:54:35Z</time>
      </trkpt>
      <trkpt lat="39.8235340" lon="-5.8152270">
        <ele>299.0</ele>
        <time>2019-07-09T10:54:36Z</time>
      </trkpt>
      <trkpt lat="39.8236080" lon="-5.8153190">
        <ele>299.4</ele>
        <time>2019-07-09T10:54:39Z</time>
      </trkpt>
      <trkpt lat="39.8236310" lon="-5.8153420">
        <ele>299.8</ele>
        <time>2019-07-09T10:54:40Z</time>
      </trkpt>
      <trkpt lat="39.8236680" lon="-5.8153920">
        <ele>300.2</ele>
        <time>2019-07-09T10:54:42Z</time>
      </trkpt>
      <trkpt lat="39.8236990" lon="-5.8154460">
        <ele>301.0</ele>
        <time>2019-07-09T10:54:44Z</time>
      </trkpt>
      <trkpt lat="39.8237540" lon="-5.8155060">
        <ele>301.4</ele>
        <time>2019-07-09T10:54:47Z</time>
      </trkpt>
      <trkpt lat="39.8237860" lon="-5.8155570">
        <ele>302.0</ele>
        <time>2019-07-09T10:54:49Z</time>
      </trkpt>
      <trkpt lat="39.8238020" lon="-5.8155840">
        <ele>302.2</ele>
        <time>2019-07-09T10:54:50Z</time>
      </trkpt>
      <trkpt lat="39.8238550" lon="-5.8156470">
        <ele>303.0</ele>
        <time>2019-07-09T10:54:53Z</time>
      </trkpt>
      <trkpt lat="39.8238710" lon="-5.8156680">
        <ele>303.2</ele>
        <time>2019-07-09T10:54:54Z</time>
      </trkpt>
      <trkpt lat="39.8239000" lon="-5.8157090">
        <ele>303.4</ele>
        <time>2019-07-09T10:54:56Z</time>
      </trkpt>
      <trkpt lat="39.8239490" lon="-5.8157730">
        <ele>303.8</ele>
        <time>2019-07-09T10:54:59Z</time>
      </trkpt>
      <trkpt lat="39.8239850" lon="-5.8158140">
        <ele>304.4</ele>
        <time>2019-07-09T10:55:01Z</time>
      </trkpt>
      <trkpt lat="39.8240370" lon="-5.8158820">
        <ele>305.2</ele>
        <time>2019-07-09T10:55:04Z</time>
      </trkpt>
      <trkpt lat="39.8240710" lon="-5.8159290">
        <ele>305.4</ele>
        <time>2019-07-09T10:55:06Z</time>
      </trkpt>
      <trkpt lat="39.8241690" lon="-5.8160710">
        <ele>305.4</ele>
        <time>2019-07-09T10:55:11Z</time>
      </trkpt>
      <trkpt lat="39.8243350" lon="-5.8162760">
        <ele>305.6</ele>
        <time>2019-07-09T10:55:17Z</time>
      </trkpt>
      <trkpt lat="39.8243680" lon="-5.8163100">
        <ele>305.4</ele>
        <time>2019-07-09T10:55:18Z</time>
      </trkpt>
      <trkpt lat="39.8244720" lon="-5.8164050">
        <ele>305.6</ele>
        <time>2019-07-09T10:55:21Z</time>
      </trkpt>
      <trkpt lat="39.8245080" lon="-5.8164380">
        <ele>305.6</ele>
        <time>2019-07-09T10:55:22Z</time>
      </trkpt>
      <trkpt lat="39.8246210" lon="-5.8165290">
        <ele>306.0</ele>
        <time>2019-07-09T10:55:25Z</time>
      </trkpt>
      <trkpt lat="39.8246870" lon="-5.8165940">
        <ele>306.4</ele>
        <time>2019-07-09T10:55:27Z</time>
      </trkpt>
      <trkpt lat="39.8247180" lon="-5.8166250">
        <ele>306.6</ele>
        <time>2019-07-09T10:55:28Z</time>
      </trkpt>
      <trkpt lat="39.8248730" lon="-5.8167680">
        <ele>307.6</ele>
        <time>2019-07-09T10:55:33Z</time>
      </trkpt>
      <trkpt lat="39.8250040" lon="-5.8168780">
        <ele>309.0</ele>
        <time>2019-07-09T10:55:37Z</time>
      </trkpt>
      <trkpt lat="39.8250380" lon="-5.8169080">
        <ele>309.2</ele>
        <time>2019-07-09T10:55:38Z</time>
      </trkpt>
      <trkpt lat="39.8252370" lon="-5.8170890">
        <ele>309.4</ele>
        <time>2019-07-09T10:55:43Z</time>
      </trkpt>
      <trkpt lat="39.8252760" lon="-5.8171350">
        <ele>308.8</ele>
        <time>2019-07-09T10:55:44Z</time>
      </trkpt>
      <trkpt lat="39.8253550" lon="-5.8172320">
        <ele>308.0</ele>
        <time>2019-07-09T10:55:46Z</time>
      </trkpt>
      <trkpt lat="39.8253930" lon="-5.8172860">
        <ele>307.8</ele>
        <time>2019-07-09T10:55:47Z</time>
      </trkpt>
      <trkpt lat="39.8254320" lon="-5.8173400">
        <ele>307.6</ele>
        <time>2019-07-09T10:55:48Z</time>
      </trkpt>
      <trkpt lat="39.8255230" lon="-5.8174320">
        <ele>307.4</ele>
        <time>2019-07-09T10:55:50Z</time>
      </trkpt>
      <trkpt lat="39.8256250" lon="-5.8175260">
        <ele>306.6</ele>
        <time>2019-07-09T10:55:52Z</time>
      </trkpt>
      <trkpt lat="39.8256790" lon="-5.8175700">
        <ele>306.4</ele>
        <time>2019-07-09T10:55:53Z</time>
      </trkpt>
      <trkpt lat="39.8257360" lon="-5.8176100">
        <ele>306.2</ele>
        <time>2019-07-09T10:55:54Z</time>
      </trkpt>
      <trkpt lat="39.8258490" lon="-5.8176900">
        <ele>306.2</ele>
        <time>2019-07-09T10:55:56Z</time>
      </trkpt>
      <trkpt lat="39.8260160" lon="-5.8177970">
        <ele>305.4</ele>
        <time>2019-07-09T10:55:59Z</time>
      </trkpt>
      <trkpt lat="39.8262260" lon="-5.8179250">
        <ele>304.8</ele>
        <time>2019-07-09T10:56:03Z</time>
      </trkpt>
      <trkpt lat="39.8262770" lon="-5.8179560">
        <ele>304.4</ele>
        <time>2019-07-09T10:56:04Z</time>
      </trkpt>
      <trkpt lat="39.8263270" lon="-5.8179870">
        <ele>304.2</ele>
        <time>2019-07-09T10:56:05Z</time>
      </trkpt>
      <trkpt lat="39.8264240" lon="-5.8180500">
        <ele>303.6</ele>
        <time>2019-07-09T10:56:07Z</time>
      </trkpt>
      <trkpt lat="39.8265230" lon="-5.8181230">
        <ele>303.4</ele>
        <time>2019-07-09T10:56:09Z</time>
      </trkpt>
      <trkpt lat="39.8265700" lon="-5.8181740">
        <ele>303.4</ele>
        <time>2019-07-09T10:56:10Z</time>
      </trkpt>
      <trkpt lat="39.8267090" lon="-5.8183770">
        <ele>302.8</ele>
        <time>2019-07-09T10:56:13Z</time>
      </trkpt>
      <trkpt lat="39.8267980" lon="-5.8185480">
        <ele>302.2</ele>
        <time>2019-07-09T10:56:15Z</time>
      </trkpt>
      <trkpt lat="39.8268460" lon="-5.8186380">
        <ele>301.6</ele>
        <time>2019-07-09T10:56:16Z</time>
      </trkpt>
      <trkpt lat="39.8269540" lon="-5.8188190">
        <ele>300.0</ele>
        <time>2019-07-09T10:56:18Z</time>
      </trkpt>
      <trkpt lat="39.8270720" lon="-5.8189930">
        <ele>298.2</ele>
        <time>2019-07-09T10:56:20Z</time>
      </trkpt>
      <trkpt lat="39.8271950" lon="-5.8191570">
        <ele>296.6</ele>
        <time>2019-07-09T10:56:22Z</time>
      </trkpt>
      <trkpt lat="39.8273820" lon="-5.8193800">
        <ele>296.0</ele>
        <time>2019-07-09T10:56:25Z</time>
      </trkpt>
      <trkpt lat="39.8275010" lon="-5.8195250">
        <ele>295.6</ele>
        <time>2019-07-09T10:56:27Z</time>
      </trkpt>
      <trkpt lat="39.8277100" lon="-5.8198350">
        <ele>294.4</ele>
        <time>2019-07-09T10:56:31Z</time>
      </trkpt>
      <trkpt lat="39.8278800" lon="-5.8201850">
        <ele>292.8</ele>
        <time>2019-07-09T10:56:35Z</time>
      </trkpt>
      <trkpt lat="39.8279190" lon="-5.8202760">
        <ele>292.2</ele>
        <time>2019-07-09T10:56:36Z</time>
      </trkpt>
      <trkpt lat="39.8279950" lon="-5.8204580">
        <ele>291.6</ele>
        <time>2019-07-09T10:56:38Z</time>
      </trkpt>
      <trkpt lat="39.8280870" lon="-5.8207370">
        <ele>291.0</ele>
        <time>2019-07-09T10:56:41Z</time>
      </trkpt>
      <trkpt lat="39.8281140" lon="-5.8208310">
        <ele>291.0</ele>
        <time>2019-07-09T10:56:42Z</time>
      </trkpt>
      <trkpt lat="39.8281410" lon="-5.8209220">
        <ele>290.4</ele>
        <time>2019-07-09T10:56:43Z</time>
      </trkpt>
      <trkpt lat="39.8282190" lon="-5.8211860">
        <ele>289.4</ele>
        <time>2019-07-09T10:56:46Z</time>
      </trkpt>
      <trkpt lat="39.8282820" lon="-5.8214290">
        <ele>289.4</ele>
        <time>2019-07-09T10:56:49Z</time>
      </trkpt>
      <trkpt lat="39.8283500" lon="-5.8216550">
        <ele>288.4</ele>
        <time>2019-07-09T10:56:52Z</time>
      </trkpt>
      <trkpt lat="39.8283750" lon="-5.8217280">
        <ele>288.4</ele>
        <time>2019-07-09T10:56:53Z</time>
      </trkpt>
      <trkpt lat="39.8284360" lon="-5.8218630">
        <ele>288.2</ele>
        <time>2019-07-09T10:56:55Z</time>
      </trkpt>
      <trkpt lat="39.8284690" lon="-5.8219280">
        <ele>288.0</ele>
        <time>2019-07-09T10:56:56Z</time>
      </trkpt>
      <trkpt lat="39.8286070" lon="-5.8221810">
        <ele>288.0</ele>
        <time>2019-07-09T10:57:00Z</time>
      </trkpt>
      <trkpt lat="39.8286780" lon="-5.8223150">
        <ele>287.2</ele>
        <time>2019-07-09T10:57:02Z</time>
      </trkpt>
      <trkpt lat="39.8287480" lon="-5.8224530">
        <ele>287.0</ele>
        <time>2019-07-09T10:57:04Z</time>
      </trkpt>
      <trkpt lat="39.8288600" lon="-5.8226520">
        <ele>286.8</ele>
        <time>2019-07-09T10:57:07Z</time>
      </trkpt>
      <trkpt lat="39.8290290" lon="-5.8229080">
        <ele>286.6</ele>
        <time>2019-07-09T10:57:11Z</time>
      </trkpt>
      <trkpt lat="39.8291170" lon="-5.8230420">
        <ele>286.0</ele>
        <time>2019-07-09T10:57:13Z</time>
      </trkpt>
      <trkpt lat="39.8291960" lon="-5.8231880">
        <ele>284.6</ele>
        <time>2019-07-09T10:57:15Z</time>
      </trkpt>
      <trkpt lat="39.8292630" lon="-5.8233490">
        <ele>283.0</ele>
        <time>2019-07-09T10:57:17Z</time>
      </trkpt>
      <trkpt lat="39.8293130" lon="-5.8235160">
        <ele>281.8</ele>
        <time>2019-07-09T10:57:19Z</time>
      </trkpt>
      <trkpt lat="39.8293500" lon="-5.8236750">
        <ele>281.2</ele>
        <time>2019-07-09T10:57:21Z</time>
      </trkpt>
      <trkpt lat="39.8293700" lon="-5.8237410">
        <ele>281.0</ele>
        <time>2019-07-09T10:57:22Z</time>
      </trkpt>
      <trkpt lat="39.8293950" lon="-5.8238030">
        <ele>280.8</ele>
        <time>2019-07-09T10:57:23Z</time>
      </trkpt>
      <trkpt lat="39.8294570" lon="-5.8239250">
        <ele>280.4</ele>
        <time>2019-07-09T10:57:25Z</time>
      </trkpt>
      <trkpt lat="39.8294940" lon="-5.8239810">
        <ele>280.0</ele>
        <time>2019-07-09T10:57:26Z</time>
      </trkpt>
      <trkpt lat="39.8295800" lon="-5.8240700">
        <ele>279.4</ele>
        <time>2019-07-09T10:57:28Z</time>
      </trkpt>
      <trkpt lat="39.8296790" lon="-5.8241320">
        <ele>278.4</ele>
        <time>2019-07-09T10:57:30Z</time>
      </trkpt>
      <trkpt lat="39.8297330" lon="-5.8241540">
        <ele>278.0</ele>
        <time>2019-07-09T10:57:31Z</time>
      </trkpt>
      <trkpt lat="39.8298460" lon="-5.8241840">
        <ele>277.8</ele>
        <time>2019-07-09T10:57:33Z</time>
      </trkpt>
      <trkpt lat="39.8299600" lon="-5.8242010">
        <ele>277.2</ele>
        <time>2019-07-09T10:57:35Z</time>
      </trkpt>
      <trkpt lat="39.8300180" lon="-5.8242090">
        <ele>277.0</ele>
        <time>2019-07-09T10:57:36Z</time>
      </trkpt>
      <trkpt lat="39.8301370" lon="-5.8242230">
        <ele>276.8</ele>
        <time>2019-07-09T10:57:38Z</time>
      </trkpt>
      <trkpt lat="39.8305590" lon="-5.8242690">
        <ele>276.4</ele>
        <time>2019-07-09T10:57:45Z</time>
      </trkpt>
      <trkpt lat="39.8306150" lon="-5.8242880">
        <ele>276.4</ele>
        <time>2019-07-09T10:57:46Z</time>
      </trkpt>
      <trkpt lat="39.8307750" lon="-5.8243960">
        <ele>276.4</ele>
        <time>2019-07-09T10:57:49Z</time>
      </trkpt>
      <trkpt lat="39.8308810" lon="-5.8244980">
        <ele>276.0</ele>
        <time>2019-07-09T10:57:51Z</time>
      </trkpt>
      <trkpt lat="39.8309300" lon="-5.8245610">
        <ele>275.8</ele>
        <time>2019-07-09T10:57:52Z</time>
      </trkpt>
      <trkpt lat="39.8310230" lon="-5.8246930">
        <ele>275.4</ele>
        <time>2019-07-09T10:57:54Z</time>
      </trkpt>
      <trkpt lat="39.8311490" lon="-5.8248870">
        <ele>274.6</ele>
        <time>2019-07-09T10:57:57Z</time>
      </trkpt>
      <trkpt lat="39.8312860" lon="-5.8250500">
        <ele>274.4</ele>
        <time>2019-07-09T10:58:00Z</time>
      </trkpt>
      <trkpt lat="39.8314420" lon="-5.8251720">
        <ele>274.4</ele>
        <time>2019-07-09T10:58:03Z</time>
      </trkpt>
      <trkpt lat="39.8316120" lon="-5.8252890">
        <ele>273.6</ele>
        <time>2019-07-09T10:58:06Z</time>
      </trkpt>
      <trkpt lat="39.8317360" lon="-5.8253600">
        <ele>273.2</ele>
        <time>2019-07-09T10:58:08Z</time>
      </trkpt>
      <trkpt lat="39.8320620" lon="-5.8255400">
        <ele>272.2</ele>
        <time>2019-07-09T10:58:13Z</time>
      </trkpt>
      <trkpt lat="39.8321300" lon="-5.8255740">
        <ele>272.0</ele>
        <time>2019-07-09T10:58:14Z</time>
      </trkpt>
      <trkpt lat="39.8323360" lon="-5.8256760">
        <ele>271.2</ele>
        <time>2019-07-09T10:58:17Z</time>
      </trkpt>
      <trkpt lat="39.8324700" lon="-5.8257520">
        <ele>271.0</ele>
        <time>2019-07-09T10:58:19Z</time>
      </trkpt>
      <trkpt lat="39.8326610" lon="-5.8258720">
        <ele>270.6</ele>
        <time>2019-07-09T10:58:22Z</time>
      </trkpt>
      <trkpt lat="39.8328360" lon="-5.8260020">
        <ele>269.8</ele>
        <time>2019-07-09T10:58:25Z</time>
      </trkpt>
      <trkpt lat="39.8330060" lon="-5.8261220">
        <ele>269.4</ele>
        <time>2019-07-09T10:58:28Z</time>
      </trkpt>
      <trkpt lat="39.8330620" lon="-5.8261560">
        <ele>269.4</ele>
        <time>2019-07-09T10:58:29Z</time>
      </trkpt>
      <trkpt lat="39.8332250" lon="-5.8262610">
        <ele>269.2</ele>
        <time>2019-07-09T10:58:32Z</time>
      </trkpt>
      <trkpt lat="39.8332790" lon="-5.8263000">
        <ele>269.2</ele>
        <time>2019-07-09T10:58:33Z</time>
      </trkpt>
      <trkpt lat="39.8334420" lon="-5.8264110">
        <ele>269.0</ele>
        <time>2019-07-09T10:58:36Z</time>
      </trkpt>
      <trkpt lat="39.8334980" lon="-5.8264410">
        <ele>268.8</ele>
        <time>2019-07-09T10:58:37Z</time>
      </trkpt>
      <trkpt lat="39.8339170" lon="-5.8266800">
        <ele>268.4</ele>
        <time>2019-07-09T10:58:45Z</time>
      </trkpt>
      <trkpt lat="39.8342230" lon="-5.8269520">
        <ele>268.6</ele>
        <time>2019-07-09T10:58:52Z</time>
      </trkpt>
      <trkpt lat="39.8343060" lon="-5.8270270">
        <ele>268.4</ele>
        <time>2019-07-09T10:58:54Z</time>
      </trkpt>
      <trkpt lat="39.8344430" lon="-5.8271920">
        <ele>268.2</ele>
        <time>2019-07-09T10:58:57Z</time>
      </trkpt>
      <trkpt lat="39.8345420" lon="-5.8273460">
        <ele>267.4</ele>
        <time>2019-07-09T10:58:59Z</time>
      </trkpt>
      <trkpt lat="39.8346610" lon="-5.8275050">
        <ele>265.6</ele>
        <time>2019-07-09T10:59:01Z</time>
      </trkpt>
      <trkpt lat="39.8347960" lon="-5.8276450">
        <ele>263.6</ele>
        <time>2019-07-09T10:59:03Z</time>
      </trkpt>
      <trkpt lat="39.8350120" lon="-5.8278200">
        <ele>262.4</ele>
        <time>2019-07-09T10:59:06Z</time>
      </trkpt>
      <trkpt lat="39.8352320" lon="-5.8279700">
        <ele>261.4</ele>
        <time>2019-07-09T10:59:09Z</time>
      </trkpt>
      <trkpt lat="39.8354510" lon="-5.8280980">
        <ele>260.2</ele>
        <time>2019-07-09T10:59:12Z</time>
      </trkpt>
      <trkpt lat="39.8355920" lon="-5.8281780">
        <ele>259.6</ele>
        <time>2019-07-09T10:59:14Z</time>
      </trkpt>
      <trkpt lat="39.8356600" lon="-5.8282140">
        <ele>259.0</ele>
        <time>2019-07-09T10:59:15Z</time>
      </trkpt>
      <trkpt lat="39.8357280" lon="-5.8282480">
        <ele>258.8</ele>
        <time>2019-07-09T10:59:16Z</time>
      </trkpt>
      <trkpt lat="39.8359180" lon="-5.8283510">
        <ele>258.0</ele>
        <time>2019-07-09T10:59:19Z</time>
      </trkpt>
      <trkpt lat="39.8360400" lon="-5.8284160">
        <ele>257.8</ele>
        <time>2019-07-09T10:59:21Z</time>
      </trkpt>
      <trkpt lat="39.8361550" lon="-5.8284880">
        <ele>257.8</ele>
        <time>2019-07-09T10:59:23Z</time>
      </trkpt>
      <trkpt lat="39.8363040" lon="-5.8286060">
        <ele>258.0</ele>
        <time>2019-07-09T10:59:26Z</time>
      </trkpt>
      <trkpt lat="39.8364030" lon="-5.8287720">
        <ele>258.0</ele>
        <time>2019-07-09T10:59:29Z</time>
      </trkpt>
      <trkpt lat="39.8364320" lon="-5.8288380">
        <ele>257.8</ele>
        <time>2019-07-09T10:59:30Z</time>
      </trkpt>
      <trkpt lat="39.8364610" lon="-5.8289040">
        <ele>257.6</ele>
        <time>2019-07-09T10:59:31Z</time>
      </trkpt>
      <trkpt lat="39.8365280" lon="-5.8290300">
        <ele>257.2</ele>
        <time>2019-07-09T10:59:33Z</time>
      </trkpt>
      <trkpt lat="39.8366080" lon="-5.8291430">
        <ele>257.0</ele>
        <time>2019-07-09T10:59:35Z</time>
      </trkpt>
      <trkpt lat="39.8366540" lon="-5.8291910">
        <ele>257.0</ele>
        <time>2019-07-09T10:59:36Z</time>
      </trkpt>
      <trkpt lat="39.8369560" lon="-5.8295540">
        <ele>256.2</ele>
        <time>2019-07-09T10:59:43Z</time>
      </trkpt>
      <trkpt lat="39.8369940" lon="-5.8296120">
        <ele>256.0</ele>
        <time>2019-07-09T10:59:44Z</time>
      </trkpt>
      <trkpt lat="39.8370290" lon="-5.8296710">
        <ele>256.0</ele>
        <time>2019-07-09T10:59:45Z</time>
      </trkpt>
      <trkpt lat="39.8370840" lon="-5.8298020">
        <ele>256.2</ele>
        <time>2019-07-09T10:59:47Z</time>
      </trkpt>
      <trkpt lat="39.8371350" lon="-5.8299270">
        <ele>256.2</ele>
        <time>2019-07-09T10:59:49Z</time>
      </trkpt>
      <trkpt lat="39.8372590" lon="-5.8301580">
        <ele>256.4</ele>
        <time>2019-07-09T10:59:53Z</time>
      </trkpt>
      <trkpt lat="39.8373340" lon="-5.8302630">
        <ele>256.4</ele>
        <time>2019-07-09T10:59:55Z</time>
      </trkpt>
      <trkpt lat="39.8373750" lon="-5.8303130">
        <ele>256.2</ele>
        <time>2019-07-09T10:59:56Z</time>
      </trkpt>
      <trkpt lat="39.8376010" lon="-5.8305030">
        <ele>255.8</ele>
        <time>2019-07-09T11:00:01Z</time>
      </trkpt>
      <trkpt lat="39.8376490" lon="-5.8305260">
        <ele>255.8</ele>
        <time>2019-07-09T11:00:02Z</time>
      </trkpt>
      <trkpt lat="39.8379510" lon="-5.8307340">
        <ele>256.0</ele>
        <time>2019-07-09T11:00:09Z</time>
      </trkpt>
      <trkpt lat="39.8380840" lon="-5.8308510">
        <ele>255.6</ele>
        <time>2019-07-09T11:00:12Z</time>
      </trkpt>
      <trkpt lat="39.8382180" lon="-5.8309940">
        <ele>255.4</ele>
        <time>2019-07-09T11:00:15Z</time>
      </trkpt>
      <trkpt lat="39.8383090" lon="-5.8311040">
        <ele>255.0</ele>
        <time>2019-07-09T11:00:17Z</time>
      </trkpt>
      <trkpt lat="39.8384310" lon="-5.8312750">
        <ele>253.8</ele>
        <time>2019-07-09T11:00:20Z</time>
      </trkpt>
      <trkpt lat="39.8384650" lon="-5.8313350">
        <ele>253.6</ele>
        <time>2019-07-09T11:00:21Z</time>
      </trkpt>
      <trkpt lat="39.8387380" lon="-5.8318700">
        <ele>253.4</ele>
        <time>2019-07-09T11:00:30Z</time>
      </trkpt>
      <trkpt lat="39.8388490" lon="-5.8321300">
        <ele>252.8</ele>
        <time>2019-07-09T11:00:34Z</time>
      </trkpt>
      <trkpt lat="39.8389000" lon="-5.8322590">
        <ele>252.2</ele>
        <time>2019-07-09T11:00:36Z</time>
      </trkpt>
      <trkpt lat="39.8389210" lon="-5.8323240">
        <ele>252.2</ele>
        <time>2019-07-09T11:00:37Z</time>
      </trkpt>
      <trkpt lat="39.8390820" lon="-5.8328630">
        <ele>252.0</ele>
        <time>2019-07-09T11:00:45Z</time>
      </trkpt>
      <trkpt lat="39.8391420" lon="-5.8330770">
        <ele>251.6</ele>
        <time>2019-07-09T11:00:48Z</time>
      </trkpt>
      <trkpt lat="39.8392510" lon="-5.8334410">
        <ele>250.6</ele>
        <time>2019-07-09T11:00:53Z</time>
      </trkpt>
      <trkpt lat="39.8394500" lon="-5.8338360">
        <ele>250.2</ele>
        <time>2019-07-09T11:00:59Z</time>
      </trkpt>
      <trkpt lat="39.8397140" lon="-5.8342430">
        <ele>249.8</ele>
        <time>2019-07-09T11:01:06Z</time>
      </trkpt>
      <trkpt lat="39.8397850" lon="-5.8343620">
        <ele>249.8</ele>
        <time>2019-07-09T11:01:08Z</time>
      </trkpt>
      <trkpt lat="39.8398630" lon="-5.8344810">
        <ele>249.8</ele>
        <time>2019-07-09T11:01:10Z</time>
      </trkpt>
      <trkpt lat="39.8399440" lon="-5.8346010">
        <ele>249.4</ele>
        <time>2019-07-09T11:01:12Z</time>
      </trkpt>
      <trkpt lat="39.8400860" lon="-5.8347710">
        <ele>248.8</ele>
        <time>2019-07-09T11:01:15Z</time>
      </trkpt>
      <trkpt lat="39.8401360" lon="-5.8348260">
        <ele>248.4</ele>
        <time>2019-07-09T11:01:16Z</time>
      </trkpt>
      <trkpt lat="39.8402410" lon="-5.8349300">
        <ele>247.4</ele>
        <time>2019-07-09T11:01:18Z</time>
      </trkpt>
      <trkpt lat="39.8402940" lon="-5.8349770">
        <ele>247.2</ele>
        <time>2019-07-09T11:01:19Z</time>
      </trkpt>
      <trkpt lat="39.8404380" lon="-5.8351250">
        <ele>246.8</ele>
        <time>2019-07-09T11:01:22Z</time>
      </trkpt>
      <trkpt lat="39.8405740" lon="-5.8352740">
        <ele>246.8</ele>
        <time>2019-07-09T11:01:25Z</time>
      </trkpt>
      <trkpt lat="39.8406560" lon="-5.8353740">
        <ele>246.8</ele>
        <time>2019-07-09T11:01:27Z</time>
      </trkpt>
      <trkpt lat="39.8406990" lon="-5.8354210">
        <ele>246.8</ele>
        <time>2019-07-09T11:01:28Z</time>
      </trkpt>
      <trkpt lat="39.8409860" lon="-5.8356660">
        <ele>246.6</ele>
        <time>2019-07-09T11:01:34Z</time>
      </trkpt>
      <trkpt lat="39.8411790" lon="-5.8358360">
        <ele>246.6</ele>
        <time>2019-07-09T11:01:39Z</time>
      </trkpt>
      <trkpt lat="39.8412000" lon="-5.8358540">
        <ele>246.4</ele>
        <time>2019-07-09T11:01:40Z</time>
      </trkpt>
      <trkpt lat="39.8412190" lon="-5.8358710">
        <ele>246.4</ele>
        <time>2019-07-09T11:01:43Z</time>
      </trkpt>
      <trkpt lat="39.8412560" lon="-5.8359100">
        <ele>246.2</ele>
        <time>2019-07-09T11:01:53Z</time>
      </trkpt>
      <trkpt lat="39.8413170" lon="-5.8359550">
        <ele>246.2</ele>
        <time>2019-07-09T11:01:56Z</time>
      </trkpt>
      <trkpt lat="39.8413980" lon="-5.8359990">
        <ele>246.2</ele>
        <time>2019-07-09T11:01:59Z</time>
      </trkpt>
      <trkpt lat="39.8415210" lon="-5.8360720">
        <ele>246.4</ele>
        <time>2019-07-09T11:02:03Z</time>
      </trkpt>
      <trkpt lat="39.8416210" lon="-5.8361170">
        <ele>246.4</ele>
        <time>2019-07-09T11:02:06Z</time>
      </trkpt>
      <trkpt lat="39.8418070" lon="-5.8362120">
        <ele>246.2</ele>
        <time>2019-07-09T11:02:11Z</time>
      </trkpt>
      <trkpt lat="39.8419140" lon="-5.8362720">
        <ele>246.2</ele>
        <time>2019-07-09T11:02:14Z</time>
      </trkpt>
      <trkpt lat="39.8419900" lon="-5.8363030">
        <ele>246.0</ele>
        <time>2019-07-09T11:02:16Z</time>
      </trkpt>
      <trkpt lat="39.8420980" lon="-5.8363600">
        <ele>245.8</ele>
        <time>2019-07-09T11:02:19Z</time>
      </trkpt>
      <trkpt lat="39.8421680" lon="-5.8364100">
        <ele>246.0</ele>
        <time>2019-07-09T11:02:21Z</time>
      </trkpt>
      <trkpt lat="39.8424020" lon="-5.8366300">
        <ele>247.0</ele>
        <time>2019-07-09T11:02:29Z</time>
      </trkpt>
      <trkpt lat="39.8424550" lon="-5.8366820">
        <ele>247.2</ele>
        <time>2019-07-09T11:02:31Z</time>
      </trkpt>
      <trkpt lat="39.8425290" lon="-5.8367560">
        <ele>247.4</ele>
        <time>2019-07-09T11:02:34Z</time>
      </trkpt>
      <trkpt lat="39.8426020" lon="-5.8368330">
        <ele>248.0</ele>
        <time>2019-07-09T11:02:37Z</time>
      </trkpt>
      <trkpt lat="39.8427260" lon="-5.8369680">
        <ele>248.2</ele>
        <time>2019-07-09T11:02:42Z</time>
      </trkpt>
      <trkpt lat="39.8427550" lon="-5.8369960">
        <ele>248.2</ele>
        <time>2019-07-09T11:02:43Z</time>
      </trkpt>
      <trkpt lat="39.8428160" lon="-5.8370590">
        <ele>248.2</ele>
        <time>2019-07-09T11:02:45Z</time>
      </trkpt>
      <trkpt lat="39.8430100" lon="-5.8372490">
        <ele>248.2</ele>
        <time>2019-07-09T11:02:51Z</time>
      </trkpt>
      <trkpt lat="39.8430810" lon="-5.8373010">
        <ele>248.2</ele>
        <time>2019-07-09T11:02:53Z</time>
      </trkpt>
      <trkpt lat="39.8434090" lon="-5.8374790">
        <ele>247.8</ele>
        <time>2019-07-09T11:03:01Z</time>
      </trkpt>
      <trkpt lat="39.8437390" lon="-5.8375920">
        <ele>247.6</ele>
        <time>2019-07-09T11:03:08Z</time>
      </trkpt>
      <trkpt lat="39.8439950" lon="-5.8376530">
        <ele>247.6</ele>
        <time>2019-07-09T11:03:13Z</time>
      </trkpt>
      <trkpt lat="39.8440960" lon="-5.8376740">
        <ele>247.2</ele>
        <time>2019-07-09T11:03:15Z</time>
      </trkpt>
      <trkpt lat="39.8441970" lon="-5.8376950">
        <ele>247.0</ele>
        <time>2019-07-09T11:03:17Z</time>
      </trkpt>
      <trkpt lat="39.8445140" lon="-5.8377840">
        <ele>246.2</ele>
        <time>2019-07-09T11:03:23Z</time>
      </trkpt>
      <trkpt lat="39.8448650" lon="-5.8380050">
        <ele>245.8</ele>
        <time>2019-07-09T11:03:30Z</time>
      </trkpt>
      <trkpt lat="39.8451530" lon="-5.8382570">
        <ele>245.4</ele>
        <time>2019-07-09T11:03:36Z</time>
      </trkpt>
      <trkpt lat="39.8455180" lon="-5.8385360">
        <ele>245.2</ele>
        <time>2019-07-09T11:03:44Z</time>
      </trkpt>
      <trkpt lat="39.8457000" lon="-5.8386680">
        <ele>245.0</ele>
        <time>2019-07-09T11:03:48Z</time>
      </trkpt>
      <trkpt lat="39.8458960" lon="-5.8388000">
        <ele>244.4</ele>
        <time>2019-07-09T11:03:52Z</time>
      </trkpt>
      <trkpt lat="39.8460020" lon="-5.8388650">
        <ele>244.0</ele>
        <time>2019-07-09T11:03:54Z</time>
      </trkpt>
      <trkpt lat="39.8461160" lon="-5.8389340">
        <ele>243.6</ele>
        <time>2019-07-09T11:03:56Z</time>
      </trkpt>
      <trkpt lat="39.8462380" lon="-5.8390090">
        <ele>243.0</ele>
        <time>2019-07-09T11:03:58Z</time>
      </trkpt>
      <trkpt lat="39.8462980" lon="-5.8390530">
        <ele>242.6</ele>
        <time>2019-07-09T11:03:59Z</time>
      </trkpt>
      <trkpt lat="39.8464970" lon="-5.8392320">
        <ele>242.0</ele>
        <time>2019-07-09T11:04:03Z</time>
      </trkpt>
      <trkpt lat="39.8466480" lon="-5.8393860">
        <ele>243.6</ele>
        <time>2019-07-09T11:04:08Z</time>
      </trkpt>
      <trkpt lat="39.8466980" lon="-5.8394440">
        <ele>243.8</ele>
        <time>2019-07-09T11:04:10Z</time>
      </trkpt>
      <trkpt lat="39.8467650" lon="-5.8395430">
        <ele>244.2</ele>
        <time>2019-07-09T11:04:13Z</time>
      </trkpt>
      <trkpt lat="39.8467860" lon="-5.8395840">
        <ele>244.0</ele>
        <time>2019-07-09T11:04:14Z</time>
      </trkpt>
      <trkpt lat="39.8469150" lon="-5.8398640">
        <ele>243.8</ele>
        <time>2019-07-09T11:04:19Z</time>
      </trkpt>
      <trkpt lat="39.8471050" lon="-5.8402380">
        <ele>243.2</ele>
        <time>2019-07-09T11:04:25Z</time>
      </trkpt>
      <trkpt lat="39.8471550" lon="-5.8403440">
        <ele>243.2</ele>
        <time>2019-07-09T11:04:27Z</time>
      </trkpt>
      <trkpt lat="39.8471760" lon="-5.8403970">
        <ele>243.0</ele>
        <time>2019-07-09T11:04:28Z</time>
      </trkpt>
      <trkpt lat="39.8472290" lon="-5.8405660">
        <ele>243.0</ele>
        <time>2019-07-09T11:04:31Z</time>
      </trkpt>
      <trkpt lat="39.8473060" lon="-5.8408110">
        <ele>243.4</ele>
        <time>2019-07-09T11:04:35Z</time>
      </trkpt>
      <trkpt lat="39.8473590" lon="-5.8409330">
        <ele>243.2</ele>
        <time>2019-07-09T11:04:37Z</time>
      </trkpt>
      <trkpt lat="39.8474240" lon="-5.8412010">
        <ele>242.6</ele>
        <time>2019-07-09T11:04:41Z</time>
      </trkpt>
      <trkpt lat="39.8474330" lon="-5.8412680">
        <ele>242.6</ele>
        <time>2019-07-09T11:04:42Z</time>
      </trkpt>
      <trkpt lat="39.8474650" lon="-5.8417970">
        <ele>243.0</ele>
        <time>2019-07-09T11:04:50Z</time>
      </trkpt>
      <trkpt lat="39.8475080" lon="-5.8422890">
        <ele>242.8</ele>
        <time>2019-07-09T11:04:58Z</time>
      </trkpt>
      <trkpt lat="39.8475970" lon="-5.8425750">
        <ele>242.8</ele>
        <time>2019-07-09T11:05:03Z</time>
      </trkpt>
      <trkpt lat="39.8476450" lon="-5.8426750">
        <ele>243.2</ele>
        <time>2019-07-09T11:05:05Z</time>
      </trkpt>
      <trkpt lat="39.8476710" lon="-5.8427200">
        <ele>243.2</ele>
        <time>2019-07-09T11:05:06Z</time>
      </trkpt>
      <trkpt lat="39.8477840" lon="-5.8428830">
        <ele>244.2</ele>
        <time>2019-07-09T11:05:10Z</time>
      </trkpt>
      <trkpt lat="39.8478100" lon="-5.8429250">
        <ele>244.4</ele>
        <time>2019-07-09T11:05:11Z</time>
      </trkpt>
      <trkpt lat="39.8478880" lon="-5.8430560">
        <ele>244.6</ele>
        <time>2019-07-09T11:05:14Z</time>
      </trkpt>
      <trkpt lat="39.8479490" lon="-5.8431890">
        <ele>244.8</ele>
        <time>2019-07-09T11:05:17Z</time>
      </trkpt>
      <trkpt lat="39.8479690" lon="-5.8432320">
        <ele>245.4</ele>
        <time>2019-07-09T11:05:18Z</time>
      </trkpt>
      <trkpt lat="39.8479860" lon="-5.8432730">
        <ele>245.6</ele>
        <time>2019-07-09T11:05:19Z</time>
      </trkpt>
      <trkpt lat="39.8480470" lon="-5.8434720">
        <ele>246.0</ele>
        <time>2019-07-09T11:05:24Z</time>
      </trkpt>
      <trkpt lat="39.8480630" lon="-5.8435630">
        <ele>246.4</ele>
        <time>2019-07-09T11:05:26Z</time>
      </trkpt>
      <trkpt lat="39.8480690" lon="-5.8436120">
        <ele>246.4</ele>
        <time>2019-07-09T11:05:27Z</time>
      </trkpt>
      <trkpt lat="39.8480830" lon="-5.8437710">
        <ele>246.2</ele>
        <time>2019-07-09T11:05:30Z</time>
      </trkpt>
      <trkpt lat="39.8480850" lon="-5.8438870">
        <ele>246.4</ele>
        <time>2019-07-09T11:05:32Z</time>
      </trkpt>
      <trkpt lat="39.8480880" lon="-5.8441280">
        <ele>246.4</ele>
        <time>2019-07-09T11:05:36Z</time>
      </trkpt>
      <trkpt lat="39.8481250" lon="-5.8443090">
        <ele>246.2</ele>
        <time>2019-07-09T11:05:39Z</time>
      </trkpt>
      <trkpt lat="39.8482680" lon="-5.8446700">
        <ele>246.4</ele>
        <time>2019-07-09T11:05:45Z</time>
      </trkpt>
      <trkpt lat="39.8483820" lon="-5.8449550">
        <ele>246.6</ele>
        <time>2019-07-09T11:05:50Z</time>
      </trkpt>
      <trkpt lat="39.8484170" lon="-5.8450640">
        <ele>246.8</ele>
        <time>2019-07-09T11:05:52Z</time>
      </trkpt>
      <trkpt lat="39.8485390" lon="-5.8454960">
        <ele>247.0</ele>
        <time>2019-07-09T11:05:59Z</time>
      </trkpt>
      <trkpt lat="39.8486580" lon="-5.8459440">
        <ele>247.0</ele>
        <time>2019-07-09T11:06:06Z</time>
      </trkpt>
      <trkpt lat="39.8487300" lon="-5.8461730">
        <ele>247.6</ele>
        <time>2019-07-09T11:06:10Z</time>
      </trkpt>
      <trkpt lat="39.8488030" lon="-5.8463250">
        <ele>247.6</ele>
        <time>2019-07-09T11:06:13Z</time>
      </trkpt>
      <trkpt lat="39.8488330" lon="-5.8463680">
        <ele>247.6</ele>
        <time>2019-07-09T11:06:14Z</time>
      </trkpt>
      <trkpt lat="39.8490200" lon="-5.8465580">
        <ele>247.2</ele>
        <time>2019-07-09T11:06:19Z</time>
      </trkpt>
      <trkpt lat="39.8490650" lon="-5.8466020">
        <ele>247.0</ele>
        <time>2019-07-09T11:06:20Z</time>
      </trkpt>
      <trkpt lat="39.8491610" lon="-5.8466970">
        <ele>246.4</ele>
        <time>2019-07-09T11:06:22Z</time>
      </trkpt>
      <trkpt lat="39.8492990" lon="-5.8468250">
        <ele>245.4</ele>
        <time>2019-07-09T11:06:25Z</time>
      </trkpt>
      <trkpt lat="39.8493400" lon="-5.8468640">
        <ele>245.4</ele>
        <time>2019-07-09T11:06:26Z</time>
      </trkpt>
      <trkpt lat="39.8494460" lon="-5.8469680">
        <ele>245.2</ele>
        <time>2019-07-09T11:06:29Z</time>
      </trkpt>
      <trkpt lat="39.8495090" lon="-5.8470370">
        <ele>245.2</ele>
        <time>2019-07-09T11:06:31Z</time>
      </trkpt>
      <trkpt lat="39.8495350" lon="-5.8470680">
        <ele>245.2</ele>
        <time>2019-07-09T11:06:32Z</time>
      </trkpt>
      <trkpt lat="39.8495880" lon="-5.8471320">
        <ele>244.4</ele>
        <time>2019-07-09T11:06:36Z</time>
      </trkpt>
      <trkpt lat="39.8495880" lon="-5.8471360">
        <ele>244.2</ele>
        <time>2019-07-09T11:06:37Z</time>
      </trkpt>
      <trkpt lat="39.8495870" lon="-5.8471360">
        <ele>244.2</ele>
        <time>2019-07-09T11:06:38Z</time>
      </trkpt>
      <trkpt lat="39.8496390" lon="-5.8471640">
        <ele>244.0</ele>
        <time>2019-07-09T11:07:53Z</time>
      </trkpt>
      <trkpt lat="39.8496540" lon="-5.8471820">
        <ele>244.0</ele>
        <time>2019-07-09T11:07:54Z</time>
      </trkpt>
      <trkpt lat="39.8497210" lon="-5.8473700">
        <ele>243.6</ele>
        <time>2019-07-09T11:07:59Z</time>
      </trkpt>
      <trkpt lat="39.8497210" lon="-5.8474240">
        <ele>243.4</ele>
        <time>2019-07-09T11:08:00Z</time>
      </trkpt>
      <trkpt lat="39.8496990" lon="-5.8475450">
        <ele>243.0</ele>
        <time>2019-07-09T11:08:02Z</time>
      </trkpt>
      <trkpt lat="39.8496850" lon="-5.8476090">
        <ele>242.8</ele>
        <time>2019-07-09T11:08:03Z</time>
      </trkpt>
      <trkpt lat="39.8496660" lon="-5.8477410">
        <ele>242.2</ele>
        <time>2019-07-09T11:08:05Z</time>
      </trkpt>
      <trkpt lat="39.8496790" lon="-5.8479420">
        <ele>241.6</ele>
        <time>2019-07-09T11:08:08Z</time>
      </trkpt>
      <trkpt lat="39.8497160" lon="-5.8482060">
        <ele>241.4</ele>
        <time>2019-07-09T11:08:12Z</time>
      </trkpt>
      <trkpt lat="39.8497230" lon="-5.8483490">
        <ele>241.2</ele>
        <time>2019-07-09T11:08:14Z</time>
      </trkpt>
      <trkpt lat="39.8497820" lon="-5.8485480">
        <ele>241.2</ele>
        <time>2019-07-09T11:08:17Z</time>
      </trkpt>
      <trkpt lat="39.8498360" lon="-5.8488290">
        <ele>240.6</ele>
        <time>2019-07-09T11:08:21Z</time>
      </trkpt>
      <trkpt lat="39.8498350" lon="-5.8489000">
        <ele>240.6</ele>
        <time>2019-07-09T11:08:22Z</time>
      </trkpt>
      <trkpt lat="39.8498400" lon="-5.8489680">
        <ele>240.6</ele>
        <time>2019-07-09T11:08:23Z</time>
      </trkpt>
      <trkpt lat="39.8498540" lon="-5.8491780">
        <ele>240.8</ele>
        <time>2019-07-09T11:08:26Z</time>
      </trkpt>
      <trkpt lat="39.8498510" lon="-5.8492460">
        <ele>241.0</ele>
        <time>2019-07-09T11:08:27Z</time>
      </trkpt>
      <trkpt lat="39.8498040" lon="-5.8494340">
        <ele>241.0</ele>
        <time>2019-07-09T11:08:30Z</time>
      </trkpt>
      <trkpt lat="39.8497620" lon="-5.8496580">
        <ele>240.4</ele>
        <time>2019-07-09T11:08:33Z</time>
      </trkpt>
      <trkpt lat="39.8497400" lon="-5.8497290">
        <ele>240.0</ele>
        <time>2019-07-09T11:08:34Z</time>
      </trkpt>
      <trkpt lat="39.8496520" lon="-5.8499280">
        <ele>238.8</ele>
        <time>2019-07-09T11:08:37Z</time>
      </trkpt>
      <trkpt lat="39.8496300" lon="-5.8500810">
        <ele>238.4</ele>
        <time>2019-07-09T11:08:39Z</time>
      </trkpt>
      <trkpt lat="39.8496350" lon="-5.8501640">
        <ele>237.8</ele>
        <time>2019-07-09T11:08:40Z</time>
      </trkpt>
      <trkpt lat="39.8496290" lon="-5.8504100">
        <ele>236.6</ele>
        <time>2019-07-09T11:08:43Z</time>
      </trkpt>
      <trkpt lat="39.8496230" lon="-5.8505710">
        <ele>236.4</ele>
        <time>2019-07-09T11:08:45Z</time>
      </trkpt>
      <trkpt lat="39.8496490" lon="-5.8507240">
        <ele>236.2</ele>
        <time>2019-07-09T11:08:47Z</time>
      </trkpt>
      <trkpt lat="39.8497000" lon="-5.8508600">
        <ele>235.6</ele>
        <time>2019-07-09T11:08:49Z</time>
      </trkpt>
      <trkpt lat="39.8497270" lon="-5.8509260">
        <ele>235.4</ele>
        <time>2019-07-09T11:08:50Z</time>
      </trkpt>
      <trkpt lat="39.8498000" lon="-5.8511140">
        <ele>235.0</ele>
        <time>2019-07-09T11:08:53Z</time>
      </trkpt>
      <trkpt lat="39.8498030" lon="-5.8512770">
        <ele>235.0</ele>
        <time>2019-07-09T11:08:56Z</time>
      </trkpt>
      <trkpt lat="39.8497420" lon="-5.8513760">
        <ele>234.6</ele>
        <time>2019-07-09T11:08:59Z</time>
      </trkpt>
      <trkpt lat="39.8497230" lon="-5.8514080">
        <ele>234.4</ele>
        <time>2019-07-09T11:09:00Z</time>
      </trkpt>
      <trkpt lat="39.8497030" lon="-5.8515260">
        <ele>234.2</ele>
        <time>2019-07-09T11:09:03Z</time>
      </trkpt>
      <trkpt lat="39.8497130" lon="-5.8515690">
        <ele>234.2</ele>
        <time>2019-07-09T11:09:04Z</time>
      </trkpt>
      <trkpt lat="39.8498050" lon="-5.8518040">
        <ele>234.6</ele>
        <time>2019-07-09T11:09:10Z</time>
      </trkpt>
      <trkpt lat="39.8498620" lon="-5.8519370">
        <ele>234.6</ele>
        <time>2019-07-09T11:09:13Z</time>
      </trkpt>
      <trkpt lat="39.8499240" lon="-5.8521210">
        <ele>234.4</ele>
        <time>2019-07-09T11:09:17Z</time>
      </trkpt>
      <trkpt lat="39.8500280" lon="-5.8523560">
        <ele>234.2</ele>
        <time>2019-07-09T11:09:22Z</time>
      </trkpt>
      <trkpt lat="39.8500570" lon="-5.8524010">
        <ele>234.2</ele>
        <time>2019-07-09T11:09:23Z</time>
      </trkpt>
      <trkpt lat="39.8502000" lon="-5.8526210">
        <ele>233.6</ele>
        <time>2019-07-09T11:09:28Z</time>
      </trkpt>
      <trkpt lat="39.8503710" lon="-5.8529160">
        <ele>234.0</ele>
        <time>2019-07-09T11:09:35Z</time>
      </trkpt>
      <trkpt lat="39.8504410" lon="-5.8530420">
        <ele>233.4</ele>
        <time>2019-07-09T11:09:38Z</time>
      </trkpt>
      <trkpt lat="39.8504630" lon="-5.8530850">
        <ele>233.4</ele>
        <time>2019-07-09T11:09:39Z</time>
      </trkpt>
      <trkpt lat="39.8505150" lon="-5.8532120">
        <ele>233.2</ele>
        <time>2019-07-09T11:09:42Z</time>
      </trkpt>
      <trkpt lat="39.8505230" lon="-5.8532330">
        <ele>233.4</ele>
        <time>2019-07-09T11:09:45Z</time>
      </trkpt>
      <trkpt lat="39.8505060" lon="-5.8531740">
        <ele>233.0</ele>
        <time>2019-07-09T11:13:22Z</time>
      </trkpt>
      <trkpt lat="39.8505290" lon="-5.8532150">
        <ele>233.0</ele>
        <time>2019-07-09T11:13:24Z</time>
      </trkpt>
      <trkpt lat="39.8506110" lon="-5.8533700">
        <ele>233.0</ele>
        <time>2019-07-09T11:13:29Z</time>
      </trkpt>
      <trkpt lat="39.8507660" lon="-5.8536410">
        <ele>232.6</ele>
        <time>2019-07-09T11:13:36Z</time>
      </trkpt>
      <trkpt lat="39.8510040" lon="-5.8540690">
        <ele>232.6</ele>
        <time>2019-07-09T11:13:45Z</time>
      </trkpt>
      <trkpt lat="39.8511250" lon="-5.8543100">
        <ele>232.6</ele>
        <time>2019-07-09T11:13:50Z</time>
      </trkpt>
      <trkpt lat="39.8511430" lon="-5.8543530">
        <ele>232.6</ele>
        <time>2019-07-09T11:13:51Z</time>
      </trkpt>
      <trkpt lat="39.8511900" lon="-5.8544900">
        <ele>233.0</ele>
        <time>2019-07-09T11:13:54Z</time>
      </trkpt>
      <trkpt lat="39.8512140" lon="-5.8545820">
        <ele>233.2</ele>
        <time>2019-07-09T11:13:56Z</time>
      </trkpt>
      <trkpt lat="39.8512340" lon="-5.8546740">
        <ele>233.4</ele>
        <time>2019-07-09T11:13:58Z</time>
      </trkpt>
      <trkpt lat="39.8512410" lon="-5.8547670">
        <ele>233.8</ele>
        <time>2019-07-09T11:14:00Z</time>
      </trkpt>
      <trkpt lat="39.8512610" lon="-5.8549070">
        <ele>234.4</ele>
        <time>2019-07-09T11:14:03Z</time>
      </trkpt>
      <trkpt lat="39.8512760" lon="-5.8549550">
        <ele>234.4</ele>
        <time>2019-07-09T11:14:04Z</time>
      </trkpt>
      <trkpt lat="39.8513710" lon="-5.8550750">
        <ele>234.6</ele>
        <time>2019-07-09T11:14:07Z</time>
      </trkpt>
      <trkpt lat="39.8515390" lon="-5.8553170">
        <ele>234.0</ele>
        <time>2019-07-09T11:14:12Z</time>
      </trkpt>
      <trkpt lat="39.8515710" lon="-5.8554540">
        <ele>233.8</ele>
        <time>2019-07-09T11:14:14Z</time>
      </trkpt>
      <trkpt lat="39.8516150" lon="-5.8556410">
        <ele>233.8</ele>
        <time>2019-07-09T11:14:17Z</time>
      </trkpt>
      <trkpt lat="39.8516290" lon="-5.8556960">
        <ele>233.6</ele>
        <time>2019-07-09T11:14:18Z</time>
      </trkpt>
      <trkpt lat="39.8516460" lon="-5.8557480">
        <ele>233.6</ele>
        <time>2019-07-09T11:14:19Z</time>
      </trkpt>
      <trkpt lat="39.8517500" lon="-5.8559870">
        <ele>234.0</ele>
        <time>2019-07-09T11:14:24Z</time>
      </trkpt>
      <trkpt lat="39.8518240" lon="-5.8561290">
        <ele>234.0</ele>
        <time>2019-07-09T11:14:27Z</time>
      </trkpt>
      <trkpt lat="39.8519260" lon="-5.8562620">
        <ele>233.6</ele>
        <time>2019-07-09T11:14:30Z</time>
      </trkpt>
      <trkpt lat="39.8519600" lon="-5.8563100">
        <ele>233.6</ele>
        <time>2019-07-09T11:14:31Z</time>
      </trkpt>
      <trkpt lat="39.8520350" lon="-5.8564780">
        <ele>233.4</ele>
        <time>2019-07-09T11:14:34Z</time>
      </trkpt>
      <trkpt lat="39.8520540" lon="-5.8565450">
        <ele>233.4</ele>
        <time>2019-07-09T11:14:35Z</time>
      </trkpt>
      <trkpt lat="39.8521170" lon="-5.8567510">
        <ele>233.4</ele>
        <time>2019-07-09T11:14:38Z</time>
      </trkpt>
      <trkpt lat="39.8521750" lon="-5.8568730">
        <ele>233.4</ele>
        <time>2019-07-09T11:14:40Z</time>
      </trkpt>
      <trkpt lat="39.8524250" lon="-5.8573200">
        <ele>233.2</ele>
        <time>2019-07-09T11:14:48Z</time>
      </trkpt>
      <trkpt lat="39.8525740" lon="-5.8576690">
        <ele>233.4</ele>
        <time>2019-07-09T11:14:54Z</time>
      </trkpt>
      <trkpt lat="39.8525960" lon="-5.8577260">
        <ele>233.4</ele>
        <time>2019-07-09T11:14:55Z</time>
      </trkpt>
      <trkpt lat="39.8527850" lon="-5.8581030">
        <ele>233.4</ele>
        <time>2019-07-09T11:15:02Z</time>
      </trkpt>
      <trkpt lat="39.8528100" lon="-5.8581530">
        <ele>233.6</ele>
        <time>2019-07-09T11:15:03Z</time>
      </trkpt>
      <trkpt lat="39.8528350" lon="-5.8581910">
        <ele>233.6</ele>
        <time>2019-07-09T11:15:04Z</time>
      </trkpt>
      <trkpt lat="39.8528810" lon="-5.8582290">
        <ele>233.2</ele>
        <time>2019-07-09T11:15:06Z</time>
      </trkpt>
      <trkpt lat="39.8529000" lon="-5.8582400">
        <ele>233.0</ele>
        <time>2019-07-09T11:15:07Z</time>
      </trkpt>
      <trkpt lat="39.8529240" lon="-5.8582570">
        <ele>232.8</ele>
        <time>2019-07-09T11:15:09Z</time>
      </trkpt>
      <trkpt lat="39.8529460" lon="-5.8582630">
        <ele>232.6</ele>
        <time>2019-07-09T11:15:11Z</time>
      </trkpt>
      <trkpt lat="39.8529720" lon="-5.8582670">
        <ele>232.6</ele>
        <time>2019-07-09T11:15:13Z</time>
      </trkpt>
      <trkpt lat="39.8530010" lon="-5.8582780">
        <ele>232.6</ele>
        <time>2019-07-09T11:15:15Z</time>
      </trkpt>
      <trkpt lat="39.8530700" lon="-5.8583020">
        <ele>232.4</ele>
        <time>2019-07-09T11:15:18Z</time>
      </trkpt>
      <trkpt lat="39.8532580" lon="-5.8583980">
        <ele>232.4</ele>
        <time>2019-07-09T11:15:24Z</time>
      </trkpt>
      <trkpt lat="39.8534010" lon="-5.8585710">
        <ele>232.2</ele>
        <time>2019-07-09T11:15:30Z</time>
      </trkpt>
      <trkpt lat="39.8536010" lon="-5.8588520">
        <ele>231.8</ele>
        <time>2019-07-09T11:15:37Z</time>
      </trkpt>
      <trkpt lat="39.8538110" lon="-5.8590910">
        <ele>231.8</ele>
        <time>2019-07-09T11:15:43Z</time>
      </trkpt>
      <trkpt lat="39.8538700" lon="-5.8591700">
        <ele>232.0</ele>
        <time>2019-07-09T11:15:45Z</time>
      </trkpt>
      <trkpt lat="39.8539640" lon="-5.8593400">
        <ele>232.4</ele>
        <time>2019-07-09T11:15:50Z</time>
      </trkpt>
      <trkpt lat="39.8541010" lon="-5.8594680">
        <ele>232.0</ele>
        <time>2019-07-09T11:15:55Z</time>
      </trkpt>
      <trkpt lat="39.8543120" lon="-5.8596860">
        <ele>232.4</ele>
        <time>2019-07-09T11:16:02Z</time>
      </trkpt>
      <trkpt lat="39.8544460" lon="-5.8598910">
        <ele>232.4</ele>
        <time>2019-07-09T11:16:07Z</time>
      </trkpt>
      <trkpt lat="39.8545100" lon="-5.8599550">
        <ele>232.2</ele>
        <time>2019-07-09T11:16:09Z</time>
      </trkpt>
      <trkpt lat="39.8545590" lon="-5.8600330">
        <ele>231.8</ele>
        <time>2019-07-09T11:16:11Z</time>
      </trkpt>
      <trkpt lat="39.8546160" lon="-5.8601440">
        <ele>231.6</ele>
        <time>2019-07-09T11:16:14Z</time>
      </trkpt>
      <trkpt lat="39.8547250" lon="-5.8602880">
        <ele>231.6</ele>
        <time>2019-07-09T11:16:19Z</time>
      </trkpt>
      <trkpt lat="39.8548500" lon="-5.8605030">
        <ele>231.6</ele>
        <time>2019-07-09T11:16:24Z</time>
      </trkpt>
      <trkpt lat="39.8548940" lon="-5.8606030">
        <ele>231.6</ele>
        <time>2019-07-09T11:16:26Z</time>
      </trkpt>
      <trkpt lat="39.8549980" lon="-5.8610050">
        <ele>231.2</ele>
        <time>2019-07-09T11:16:33Z</time>
      </trkpt>
      <trkpt lat="39.8550800" lon="-5.8613650">
        <ele>231.0</ele>
        <time>2019-07-09T11:16:39Z</time>
      </trkpt>
      <trkpt lat="39.8551120" lon="-5.8614800">
        <ele>230.8</ele>
        <time>2019-07-09T11:16:41Z</time>
      </trkpt>
      <trkpt lat="39.8551630" lon="-5.8616520">
        <ele>230.6</ele>
        <time>2019-07-09T11:16:44Z</time>
      </trkpt>
      <trkpt lat="39.8552460" lon="-5.8619810">
        <ele>230.2</ele>
        <time>2019-07-09T11:16:50Z</time>
      </trkpt>
      <trkpt lat="39.8552900" lon="-5.8621400">
        <ele>229.8</ele>
        <time>2019-07-09T11:16:53Z</time>
      </trkpt>
      <trkpt lat="39.8553360" lon="-5.8622930">
        <ele>229.4</ele>
        <time>2019-07-09T11:16:56Z</time>
      </trkpt>
      <trkpt lat="39.8553510" lon="-5.8623440">
        <ele>229.4</ele>
        <time>2019-07-09T11:16:57Z</time>
      </trkpt>
      <trkpt lat="39.8554120" lon="-5.8625560">
        <ele>229.8</ele>
        <time>2019-07-09T11:17:01Z</time>
      </trkpt>
      <trkpt lat="39.8554330" lon="-5.8627230">
        <ele>230.0</ele>
        <time>2019-07-09T11:17:04Z</time>
      </trkpt>
      <trkpt lat="39.8554670" lon="-5.8628830">
        <ele>229.6</ele>
        <time>2019-07-09T11:17:07Z</time>
      </trkpt>
      <trkpt lat="39.8555200" lon="-5.8629670">
        <ele>229.4</ele>
        <time>2019-07-09T11:17:09Z</time>
      </trkpt>
      <trkpt lat="39.8555770" lon="-5.8630410">
        <ele>229.4</ele>
        <time>2019-07-09T11:17:11Z</time>
      </trkpt>
      <trkpt lat="39.8556700" lon="-5.8631660">
        <ele>229.2</ele>
        <time>2019-07-09T11:17:14Z</time>
      </trkpt>
      <trkpt lat="39.8556990" lon="-5.8632120">
        <ele>229.0</ele>
        <time>2019-07-09T11:17:15Z</time>
      </trkpt>
      <trkpt lat="39.8557900" lon="-5.8634540">
        <ele>228.6</ele>
        <time>2019-07-09T11:17:19Z</time>
      </trkpt>
      <trkpt lat="39.8558310" lon="-5.8636000">
        <ele>228.4</ele>
        <time>2019-07-09T11:17:21Z</time>
      </trkpt>
      <trkpt lat="39.8558750" lon="-5.8637310">
        <ele>228.4</ele>
        <time>2019-07-09T11:17:23Z</time>
      </trkpt>
      <trkpt lat="39.8558940" lon="-5.8637930">
        <ele>228.4</ele>
        <time>2019-07-09T11:17:24Z</time>
      </trkpt>
      <trkpt lat="39.8559220" lon="-5.8639120">
        <ele>227.8</ele>
        <time>2019-07-09T11:17:26Z</time>
      </trkpt>
      <trkpt lat="39.8559280" lon="-5.8639670">
        <ele>227.4</ele>
        <time>2019-07-09T11:17:27Z</time>
      </trkpt>
      <trkpt lat="39.8559440" lon="-5.8640620">
        <ele>227.0</ele>
        <time>2019-07-09T11:17:29Z</time>
      </trkpt>
      <trkpt lat="39.8559740" lon="-5.8642080">
        <ele>227.0</ele>
        <time>2019-07-09T11:17:32Z</time>
      </trkpt>
      <trkpt lat="39.8559880" lon="-5.8643250">
        <ele>226.8</ele>
        <time>2019-07-09T11:17:35Z</time>
      </trkpt>
      <trkpt lat="39.8560050" lon="-5.8644270">
        <ele>226.4</ele>
        <time>2019-07-09T11:17:38Z</time>
      </trkpt>
      <trkpt lat="39.8560460" lon="-5.8645050">
        <ele>226.2</ele>
        <time>2019-07-09T11:17:40Z</time>
      </trkpt>
      <trkpt lat="39.8561030" lon="-5.8645830">
        <ele>226.2</ele>
        <time>2019-07-09T11:17:42Z</time>
      </trkpt>
      <trkpt lat="39.8562160" lon="-5.8646780">
        <ele>226.2</ele>
        <time>2019-07-09T11:17:45Z</time>
      </trkpt>
      <trkpt lat="39.8562550" lon="-5.8647080">
        <ele>226.2</ele>
        <time>2019-07-09T11:17:46Z</time>
      </trkpt>
      <trkpt lat="39.8563270" lon="-5.8647820">
        <ele>226.2</ele>
        <time>2019-07-09T11:17:48Z</time>
      </trkpt>
      <trkpt lat="39.8563790" lon="-5.8648840">
        <ele>226.0</ele>
        <time>2019-07-09T11:17:50Z</time>
      </trkpt>
      <trkpt lat="39.8564090" lon="-5.8650110">
        <ele>226.0</ele>
        <time>2019-07-09T11:17:52Z</time>
      </trkpt>
      <trkpt lat="39.8564350" lon="-5.8651200">
        <ele>226.2</ele>
        <time>2019-07-09T11:17:54Z</time>
      </trkpt>
      <trkpt lat="39.8564470" lon="-5.8651670">
        <ele>226.0</ele>
        <time>2019-07-09T11:17:55Z</time>
      </trkpt>
      <trkpt lat="39.8565180" lon="-5.8653480">
        <ele>226.6</ele>
        <time>2019-07-09T11:18:00Z</time>
      </trkpt>
      <trkpt lat="39.8565530" lon="-5.8654380">
        <ele>227.4</ele>
        <time>2019-07-09T11:18:05Z</time>
      </trkpt>
      <trkpt lat="39.8565510" lon="-5.8654370">
        <ele>227.4</ele>
        <time>2019-07-09T11:18:06Z</time>
      </trkpt>
      <trkpt lat="39.8565840" lon="-5.8655130">
        <ele>227.6</ele>
        <time>2019-07-09T11:19:26Z</time>
      </trkpt>
      <trkpt lat="39.8565940" lon="-5.8655300">
        <ele>227.6</ele>
        <time>2019-07-09T11:19:27Z</time>
      </trkpt>
      <trkpt lat="39.8566050" lon="-5.8655530">
        <ele>227.6</ele>
        <time>2019-07-09T11:19:28Z</time>
      </trkpt>
      <trkpt lat="39.8566920" lon="-5.8657140">
        <ele>228.0</ele>
        <time>2019-07-09T11:19:33Z</time>
      </trkpt>
      <trkpt lat="39.8567580" lon="-5.8658410">
        <ele>228.0</ele>
        <time>2019-07-09T11:19:36Z</time>
      </trkpt>
      <trkpt lat="39.8568430" lon="-5.8660350">
        <ele>228.0</ele>
        <time>2019-07-09T11:19:40Z</time>
      </trkpt>
      <trkpt lat="39.8569090" lon="-5.8661950">
        <ele>228.0</ele>
        <time>2019-07-09T11:19:43Z</time>
      </trkpt>
      <trkpt lat="39.8569940" lon="-5.8663450">
        <ele>228.0</ele>
        <time>2019-07-09T11:19:46Z</time>
      </trkpt>
      <trkpt lat="39.8570160" lon="-5.8663980">
        <ele>228.0</ele>
        <time>2019-07-09T11:19:47Z</time>
      </trkpt>
      <trkpt lat="39.8570890" lon="-5.8665550">
        <ele>228.0</ele>
        <time>2019-07-09T11:19:50Z</time>
      </trkpt>
      <trkpt lat="39.8571820" lon="-5.8666960">
        <ele>227.8</ele>
        <time>2019-07-09T11:19:53Z</time>
      </trkpt>
      <trkpt lat="39.8573030" lon="-5.8668950">
        <ele>228.0</ele>
        <time>2019-07-09T11:19:57Z</time>
      </trkpt>
      <trkpt lat="39.8574180" lon="-5.8670930">
        <ele>228.4</ele>
        <time>2019-07-09T11:20:01Z</time>
      </trkpt>
      <trkpt lat="39.8575710" lon="-5.8673890">
        <ele>228.8</ele>
        <time>2019-07-09T11:20:07Z</time>
      </trkpt>
      <trkpt lat="39.8575890" lon="-5.8674360">
        <ele>229.2</ele>
        <time>2019-07-09T11:20:08Z</time>
      </trkpt>
      <trkpt lat="39.8576390" lon="-5.8676500">
        <ele>229.4</ele>
        <time>2019-07-09T11:20:12Z</time>
      </trkpt>
      <trkpt lat="39.8576570" lon="-5.8676960">
        <ele>229.6</ele>
        <time>2019-07-09T11:20:13Z</time>
      </trkpt>
      <trkpt lat="39.8577710" lon="-5.8678750">
        <ele>229.4</ele>
        <time>2019-07-09T11:20:17Z</time>
      </trkpt>
      <trkpt lat="39.8578000" lon="-5.8679270">
        <ele>229.6</ele>
        <time>2019-07-09T11:20:18Z</time>
      </trkpt>
      <trkpt lat="39.8578620" lon="-5.8680980">
        <ele>229.6</ele>
        <time>2019-07-09T11:20:21Z</time>
      </trkpt>
      <trkpt lat="39.8579380" lon="-5.8683360">
        <ele>229.4</ele>
        <time>2019-07-09T11:20:25Z</time>
      </trkpt>
      <trkpt lat="39.8579660" lon="-5.8684610">
        <ele>229.2</ele>
        <time>2019-07-09T11:20:27Z</time>
      </trkpt>
      <trkpt lat="39.8580550" lon="-5.8687670">
        <ele>229.2</ele>
        <time>2019-07-09T11:20:32Z</time>
      </trkpt>
      <trkpt lat="39.8580660" lon="-5.8688320">
        <ele>229.0</ele>
        <time>2019-07-09T11:20:33Z</time>
      </trkpt>
      <trkpt lat="39.8581110" lon="-5.8690320">
        <ele>229.2</ele>
        <time>2019-07-09T11:20:36Z</time>
      </trkpt>
      <trkpt lat="39.8581480" lon="-5.8691570">
        <ele>229.0</ele>
        <time>2019-07-09T11:20:38Z</time>
      </trkpt>
      <trkpt lat="39.8581710" lon="-5.8692160">
        <ele>229.0</ele>
        <time>2019-07-09T11:20:39Z</time>
      </trkpt>
      <trkpt lat="39.8582610" lon="-5.8693740">
        <ele>228.2</ele>
        <time>2019-07-09T11:20:42Z</time>
      </trkpt>
      <trkpt lat="39.8583820" lon="-5.8695650">
        <ele>228.6</ele>
        <time>2019-07-09T11:20:46Z</time>
      </trkpt>
      <trkpt lat="39.8584580" lon="-5.8696340">
        <ele>228.8</ele>
        <time>2019-07-09T11:20:48Z</time>
      </trkpt>
      <trkpt lat="39.8585900" lon="-5.8697210">
        <ele>228.8</ele>
        <time>2019-07-09T11:20:51Z</time>
      </trkpt>
      <trkpt lat="39.8586680" lon="-5.8698030">
        <ele>228.8</ele>
        <time>2019-07-09T11:20:53Z</time>
      </trkpt>
      <trkpt lat="39.8587390" lon="-5.8699020">
        <ele>228.8</ele>
        <time>2019-07-09T11:20:55Z</time>
      </trkpt>
      <trkpt lat="39.8589240" lon="-5.8701570">
        <ele>228.8</ele>
        <time>2019-07-09T11:21:00Z</time>
      </trkpt>
      <trkpt lat="39.8590600" lon="-5.8703830">
        <ele>229.0</ele>
        <time>2019-07-09T11:21:04Z</time>
      </trkpt>
      <trkpt lat="39.8591400" lon="-5.8704750">
        <ele>228.8</ele>
        <time>2019-07-09T11:21:06Z</time>
      </trkpt>
      <trkpt lat="39.8592150" lon="-5.8705610">
        <ele>228.8</ele>
        <time>2019-07-09T11:21:08Z</time>
      </trkpt>
      <trkpt lat="39.8593200" lon="-5.8706870">
        <ele>228.6</ele>
        <time>2019-07-09T11:21:11Z</time>
      </trkpt>
      <trkpt lat="39.8593610" lon="-5.8707210">
        <ele>228.6</ele>
        <time>2019-07-09T11:21:12Z</time>
      </trkpt>
      <trkpt lat="39.8594930" lon="-5.8707770">
        <ele>228.6</ele>
        <time>2019-07-09T11:21:15Z</time>
      </trkpt>
      <trkpt lat="39.8596700" lon="-5.8708670">
        <ele>228.8</ele>
        <time>2019-07-09T11:21:19Z</time>
      </trkpt>
      <trkpt lat="39.8597070" lon="-5.8709090">
        <ele>228.8</ele>
        <time>2019-07-09T11:21:20Z</time>
      </trkpt>
      <trkpt lat="39.8597920" lon="-5.8710630">
        <ele>229.0</ele>
        <time>2019-07-09T11:21:23Z</time>
      </trkpt>
      <trkpt lat="39.8598420" lon="-5.8711620">
        <ele>229.0</ele>
        <time>2019-07-09T11:21:25Z</time>
      </trkpt>
      <trkpt lat="39.8598750" lon="-5.8712050">
        <ele>229.4</ele>
        <time>2019-07-09T11:21:26Z</time>
      </trkpt>
      <trkpt lat="39.8600090" lon="-5.8713590">
        <ele>229.2</ele>
        <time>2019-07-09T11:21:30Z</time>
      </trkpt>
      <trkpt lat="39.8601990" lon="-5.8716550">
        <ele>230.2</ele>
        <time>2019-07-09T11:21:37Z</time>
      </trkpt>
      <trkpt lat="39.8602870" lon="-5.8717670">
        <ele>230.2</ele>
        <time>2019-07-09T11:21:40Z</time>
      </trkpt>
      <trkpt lat="39.8603230" lon="-5.8717990">
        <ele>230.4</ele>
        <time>2019-07-09T11:21:41Z</time>
      </trkpt>
      <trkpt lat="39.8603990" lon="-5.8718600">
        <ele>230.4</ele>
        <time>2019-07-09T11:21:43Z</time>
      </trkpt>
      <trkpt lat="39.8605080" lon="-5.8719560">
        <ele>230.8</ele>
        <time>2019-07-09T11:21:46Z</time>
      </trkpt>
      <trkpt lat="39.8605590" lon="-5.8720430">
        <ele>230.8</ele>
        <time>2019-07-09T11:21:48Z</time>
      </trkpt>
      <trkpt lat="39.8606800" lon="-5.8722840">
        <ele>230.6</ele>
        <time>2019-07-09T11:21:53Z</time>
      </trkpt>
      <trkpt lat="39.8607140" lon="-5.8723240">
        <ele>230.6</ele>
        <time>2019-07-09T11:21:54Z</time>
      </trkpt>
      <trkpt lat="39.8607760" lon="-5.8724160">
        <ele>230.6</ele>
        <time>2019-07-09T11:21:56Z</time>
      </trkpt>
      <trkpt lat="39.8608430" lon="-5.8725800">
        <ele>230.6</ele>
        <time>2019-07-09T11:21:59Z</time>
      </trkpt>
      <trkpt lat="39.8610190" lon="-5.8728930">
        <ele>231.2</ele>
        <time>2019-07-09T11:22:05Z</time>
      </trkpt>
      <trkpt lat="39.8611970" lon="-5.8732120">
        <ele>230.8</ele>
        <time>2019-07-09T11:22:11Z</time>
      </trkpt>
      <trkpt lat="39.8612250" lon="-5.8732550">
        <ele>230.8</ele>
        <time>2019-07-09T11:22:12Z</time>
      </trkpt>
      <trkpt lat="39.8612760" lon="-5.8733540">
        <ele>230.8</ele>
        <time>2019-07-09T11:22:14Z</time>
      </trkpt>
      <trkpt lat="39.8613020" lon="-5.8734100">
        <ele>230.8</ele>
        <time>2019-07-09T11:22:15Z</time>
      </trkpt>
      <trkpt lat="39.8614430" lon="-5.8738470">
        <ele>230.2</ele>
        <time>2019-07-09T11:22:22Z</time>
      </trkpt>
      <trkpt lat="39.8615940" lon="-5.8743000">
        <ele>230.2</ele>
        <time>2019-07-09T11:22:29Z</time>
      </trkpt>
      <trkpt lat="39.8616620" lon="-5.8745850">
        <ele>230.2</ele>
        <time>2019-07-09T11:22:33Z</time>
      </trkpt>
      <trkpt lat="39.8616750" lon="-5.8746690">
        <ele>230.0</ele>
        <time>2019-07-09T11:22:34Z</time>
      </trkpt>
      <trkpt lat="39.8617060" lon="-5.8748510">
        <ele>229.4</ele>
        <time>2019-07-09T11:22:36Z</time>
      </trkpt>
      <trkpt lat="39.8617430" lon="-5.8750320">
        <ele>228.2</ele>
        <time>2019-07-09T11:22:38Z</time>
      </trkpt>
      <trkpt lat="39.8617620" lon="-5.8751120">
        <ele>227.8</ele>
        <time>2019-07-09T11:22:39Z</time>
      </trkpt>
      <trkpt lat="39.8618050" lon="-5.8753220">
        <ele>227.4</ele>
        <time>2019-07-09T11:22:42Z</time>
      </trkpt>
      <trkpt lat="39.8618570" lon="-5.8754250">
        <ele>227.4</ele>
        <time>2019-07-09T11:22:44Z</time>
      </trkpt>
      <trkpt lat="39.8619270" lon="-5.8755200">
        <ele>227.2</ele>
        <time>2019-07-09T11:22:46Z</time>
      </trkpt>
      <trkpt lat="39.8620420" lon="-5.8756680">
        <ele>227.0</ele>
        <time>2019-07-09T11:22:49Z</time>
      </trkpt>
      <trkpt lat="39.8620840" lon="-5.8757170">
        <ele>226.8</ele>
        <time>2019-07-09T11:22:50Z</time>
      </trkpt>
      <trkpt lat="39.8621250" lon="-5.8757680">
        <ele>226.8</ele>
        <time>2019-07-09T11:22:51Z</time>
      </trkpt>
      <trkpt lat="39.8622320" lon="-5.8759380">
        <ele>226.6</ele>
        <time>2019-07-09T11:22:54Z</time>
      </trkpt>
      <trkpt lat="39.8622680" lon="-5.8759980">
        <ele>226.4</ele>
        <time>2019-07-09T11:22:55Z</time>
      </trkpt>
      <trkpt lat="39.8624070" lon="-5.8761110">
        <ele>226.6</ele>
        <time>2019-07-09T11:22:58Z</time>
      </trkpt>
      <trkpt lat="39.8624540" lon="-5.8761430">
        <ele>226.6</ele>
        <time>2019-07-09T11:22:59Z</time>
      </trkpt>
      <trkpt lat="39.8625720" lon="-5.8762680">
        <ele>226.8</ele>
        <time>2019-07-09T11:23:02Z</time>
      </trkpt>
      <trkpt lat="39.8626040" lon="-5.8763100">
        <ele>226.4</ele>
        <time>2019-07-09T11:23:03Z</time>
      </trkpt>
      <trkpt lat="39.8627070" lon="-5.8764370">
        <ele>226.4</ele>
        <time>2019-07-09T11:23:06Z</time>
      </trkpt>
      <trkpt lat="39.8627480" lon="-5.8764730">
        <ele>226.4</ele>
        <time>2019-07-09T11:23:07Z</time>
      </trkpt>
      <trkpt lat="39.8628230" lon="-5.8765450">
        <ele>226.2</ele>
        <time>2019-07-09T11:23:09Z</time>
      </trkpt>
      <trkpt lat="39.8629130" lon="-5.8766960">
        <ele>226.4</ele>
        <time>2019-07-09T11:23:12Z</time>
      </trkpt>
      <trkpt lat="39.8630340" lon="-5.8769010">
        <ele>226.4</ele>
        <time>2019-07-09T11:23:16Z</time>
      </trkpt>
      <trkpt lat="39.8630730" lon="-5.8769500">
        <ele>226.4</ele>
        <time>2019-07-09T11:23:17Z</time>
      </trkpt>
      <trkpt lat="39.8631140" lon="-5.8769920">
        <ele>226.4</ele>
        <time>2019-07-09T11:23:18Z</time>
      </trkpt>
      <trkpt lat="39.8631980" lon="-5.8770720">
        <ele>226.0</ele>
        <time>2019-07-09T11:23:20Z</time>
      </trkpt>
      <trkpt lat="39.8633210" lon="-5.8772080">
        <ele>225.4</ele>
        <time>2019-07-09T11:23:23Z</time>
      </trkpt>
      <trkpt lat="39.8634290" lon="-5.8773680">
        <ele>225.0</ele>
        <time>2019-07-09T11:23:26Z</time>
      </trkpt>
      <trkpt lat="39.8635110" lon="-5.8774510">
        <ele>224.4</ele>
        <time>2019-07-09T11:23:28Z</time>
      </trkpt>
      <trkpt lat="39.8635450" lon="-5.8774920">
        <ele>224.2</ele>
        <time>2019-07-09T11:23:29Z</time>
      </trkpt>
      <trkpt lat="39.8636310" lon="-5.8776420">
        <ele>224.0</ele>
        <time>2019-07-09T11:23:32Z</time>
      </trkpt>
      <trkpt lat="39.8637120" lon="-5.8777580">
        <ele>224.4</ele>
        <time>2019-07-09T11:23:35Z</time>
      </trkpt>
      <trkpt lat="39.8637930" lon="-5.8778740">
        <ele>225.0</ele>
        <time>2019-07-09T11:23:38Z</time>
      </trkpt>
      <trkpt lat="39.8638440" lon="-5.8779700">
        <ele>225.4</ele>
        <time>2019-07-09T11:23:40Z</time>
      </trkpt>
      <trkpt lat="39.8638870" lon="-5.8781360">
        <ele>225.6</ele>
        <time>2019-07-09T11:23:43Z</time>
      </trkpt>
      <trkpt lat="39.8638910" lon="-5.8781970">
        <ele>225.6</ele>
        <time>2019-07-09T11:23:44Z</time>
      </trkpt>
      <trkpt lat="39.8639130" lon="-5.8786390">
        <ele>225.8</ele>
        <time>2019-07-09T11:23:51Z</time>
      </trkpt>
      <trkpt lat="39.8639170" lon="-5.8789110">
        <ele>226.0</ele>
        <time>2019-07-09T11:23:55Z</time>
      </trkpt>
      <trkpt lat="39.8639210" lon="-5.8790510">
        <ele>226.2</ele>
        <time>2019-07-09T11:23:57Z</time>
      </trkpt>
      <trkpt lat="39.8639380" lon="-5.8791900">
        <ele>226.2</ele>
        <time>2019-07-09T11:23:59Z</time>
      </trkpt>
      <trkpt lat="39.8639600" lon="-5.8796920">
        <ele>225.6</ele>
        <time>2019-07-09T11:24:06Z</time>
      </trkpt>
      <trkpt lat="39.8639000" lon="-5.8801280">
        <ele>225.8</ele>
        <time>2019-07-09T11:24:12Z</time>
      </trkpt>
      <trkpt lat="39.8638810" lon="-5.8802700">
        <ele>225.8</ele>
        <time>2019-07-09T11:24:14Z</time>
      </trkpt>
      <trkpt lat="39.8638900" lon="-5.8804880">
        <ele>225.6</ele>
        <time>2019-07-09T11:24:17Z</time>
      </trkpt>
      <trkpt lat="39.8639040" lon="-5.8806360">
        <ele>225.4</ele>
        <time>2019-07-09T11:24:19Z</time>
      </trkpt>
      <trkpt lat="39.8639470" lon="-5.8808490">
        <ele>225.2</ele>
        <time>2019-07-09T11:24:22Z</time>
      </trkpt>
      <trkpt lat="39.8639630" lon="-5.8809240">
        <ele>225.0</ele>
        <time>2019-07-09T11:24:23Z</time>
      </trkpt>
      <trkpt lat="39.8640940" lon="-5.8812690">
        <ele>224.8</ele>
        <time>2019-07-09T11:24:28Z</time>
      </trkpt>
      <trkpt lat="39.8642670" lon="-5.8816670">
        <ele>224.6</ele>
        <time>2019-07-09T11:24:34Z</time>
      </trkpt>
      <trkpt lat="39.8642860" lon="-5.8817380">
        <ele>224.6</ele>
        <time>2019-07-09T11:24:35Z</time>
      </trkpt>
      <trkpt lat="39.8643500" lon="-5.8821820">
        <ele>224.4</ele>
        <time>2019-07-09T11:24:41Z</time>
      </trkpt>
      <trkpt lat="39.8644280" lon="-5.8824680">
        <ele>224.4</ele>
        <time>2019-07-09T11:24:45Z</time>
      </trkpt>
      <trkpt lat="39.8644580" lon="-5.8825320">
        <ele>224.4</ele>
        <time>2019-07-09T11:24:46Z</time>
      </trkpt>
      <trkpt lat="39.8645610" lon="-5.8827990">
        <ele>224.0</ele>
        <time>2019-07-09T11:24:50Z</time>
      </trkpt>
      <trkpt lat="39.8645950" lon="-5.8829340">
        <ele>223.6</ele>
        <time>2019-07-09T11:24:52Z</time>
      </trkpt>
      <trkpt lat="39.8646200" lon="-5.8830770">
        <ele>223.4</ele>
        <time>2019-07-09T11:24:54Z</time>
      </trkpt>
      <trkpt lat="39.8646380" lon="-5.8833010">
        <ele>223.4</ele>
        <time>2019-07-09T11:24:57Z</time>
      </trkpt>
      <trkpt lat="39.8646530" lon="-5.8833740">
        <ele>223.4</ele>
        <time>2019-07-09T11:24:58Z</time>
      </trkpt>
      <trkpt lat="39.8646870" lon="-5.8836710">
        <ele>223.4</ele>
        <time>2019-07-09T11:25:02Z</time>
      </trkpt>
      <trkpt lat="39.8647030" lon="-5.8837420">
        <ele>223.4</ele>
        <time>2019-07-09T11:25:03Z</time>
      </trkpt>
      <trkpt lat="39.8647700" lon="-5.8839380">
        <ele>223.6</ele>
        <time>2019-07-09T11:25:06Z</time>
      </trkpt>
      <trkpt lat="39.8647970" lon="-5.8840750">
        <ele>223.6</ele>
        <time>2019-07-09T11:25:08Z</time>
      </trkpt>
      <trkpt lat="39.8649070" lon="-5.8843190">
        <ele>223.4</ele>
        <time>2019-07-09T11:25:12Z</time>
      </trkpt>
      <trkpt lat="39.8649660" lon="-5.8844440">
        <ele>223.0</ele>
        <time>2019-07-09T11:25:14Z</time>
      </trkpt>
      <trkpt lat="39.8649900" lon="-5.8845120">
        <ele>222.8</ele>
        <time>2019-07-09T11:25:15Z</time>
      </trkpt>
      <trkpt lat="39.8650320" lon="-5.8846570">
        <ele>222.6</ele>
        <time>2019-07-09T11:25:17Z</time>
      </trkpt>
      <trkpt lat="39.8651530" lon="-5.8849930">
        <ele>222.4</ele>
        <time>2019-07-09T11:25:22Z</time>
      </trkpt>
      <trkpt lat="39.8651720" lon="-5.8850500">
        <ele>222.4</ele>
        <time>2019-07-09T11:25:23Z</time>
      </trkpt>
      <trkpt lat="39.8651940" lon="-5.8851010">
        <ele>222.2</ele>
        <time>2019-07-09T11:25:24Z</time>
      </trkpt>
      <trkpt lat="39.8652380" lon="-5.8851980">
        <ele>222.2</ele>
        <time>2019-07-09T11:25:26Z</time>
      </trkpt>
      <trkpt lat="39.8652550" lon="-5.8852530">
        <ele>222.2</ele>
        <time>2019-07-09T11:25:27Z</time>
      </trkpt>
      <trkpt lat="39.8652880" lon="-5.8853630">
        <ele>222.2</ele>
        <time>2019-07-09T11:25:29Z</time>
      </trkpt>
      <trkpt lat="39.8653710" lon="-5.8855070">
        <ele>222.4</ele>
        <time>2019-07-09T11:25:32Z</time>
      </trkpt>
      <trkpt lat="39.8654830" lon="-5.8857010">
        <ele>223.0</ele>
        <time>2019-07-09T11:25:36Z</time>
      </trkpt>
      <trkpt lat="39.8655170" lon="-5.8858100">
        <ele>223.2</ele>
        <time>2019-07-09T11:25:38Z</time>
      </trkpt>
      <trkpt lat="39.8655920" lon="-5.8860380">
        <ele>223.8</ele>
        <time>2019-07-09T11:25:42Z</time>
      </trkpt>
      <trkpt lat="39.8656210" lon="-5.8861600">
        <ele>224.0</ele>
        <time>2019-07-09T11:25:44Z</time>
      </trkpt>
      <trkpt lat="39.8656530" lon="-5.8864170">
        <ele>224.2</ele>
        <time>2019-07-09T11:25:48Z</time>
      </trkpt>
      <trkpt lat="39.8656690" lon="-5.8864800">
        <ele>224.2</ele>
        <time>2019-07-09T11:25:49Z</time>
      </trkpt>
      <trkpt lat="39.8657370" lon="-5.8867310">
        <ele>224.2</ele>
        <time>2019-07-09T11:25:53Z</time>
      </trkpt>
      <trkpt lat="39.8657920" lon="-5.8869140">
        <ele>224.0</ele>
        <time>2019-07-09T11:25:56Z</time>
      </trkpt>
      <trkpt lat="39.8659740" lon="-5.8873020">
        <ele>224.0</ele>
        <time>2019-07-09T11:26:03Z</time>
      </trkpt>
      <trkpt lat="39.8662510" lon="-5.8878010">
        <ele>224.4</ele>
        <time>2019-07-09T11:26:12Z</time>
      </trkpt>
      <trkpt lat="39.8664080" lon="-5.8880610">
        <ele>223.8</ele>
        <time>2019-07-09T11:26:17Z</time>
      </trkpt>
      <trkpt lat="39.8664380" lon="-5.8881160">
        <ele>223.8</ele>
        <time>2019-07-09T11:26:18Z</time>
      </trkpt>
      <trkpt lat="39.8665880" lon="-5.8884050">
        <ele>223.4</ele>
        <time>2019-07-09T11:26:23Z</time>
      </trkpt>
      <trkpt lat="39.8666580" lon="-5.8884940">
        <ele>223.4</ele>
        <time>2019-07-09T11:26:25Z</time>
      </trkpt>
      <trkpt lat="39.8668150" lon="-5.8886420">
        <ele>223.4</ele>
        <time>2019-07-09T11:26:29Z</time>
      </trkpt>
      <trkpt lat="39.8668780" lon="-5.8887360">
        <ele>223.4</ele>
        <time>2019-07-09T11:26:31Z</time>
      </trkpt>
      <trkpt lat="39.8670550" lon="-5.8889690">
        <ele>223.4</ele>
        <time>2019-07-09T11:26:36Z</time>
      </trkpt>
      <trkpt lat="39.8670960" lon="-5.8890090">
        <ele>223.4</ele>
        <time>2019-07-09T11:26:37Z</time>
      </trkpt>
      <trkpt lat="39.8672240" lon="-5.8891170">
        <ele>223.0</ele>
        <time>2019-07-09T11:26:40Z</time>
      </trkpt>
      <trkpt lat="39.8673590" lon="-5.8892250">
        <ele>222.8</ele>
        <time>2019-07-09T11:26:43Z</time>
      </trkpt>
      <trkpt lat="39.8674600" lon="-5.8892950">
        <ele>222.6</ele>
        <time>2019-07-09T11:26:45Z</time>
      </trkpt>
      <trkpt lat="39.8676740" lon="-5.8894600">
        <ele>222.2</ele>
        <time>2019-07-09T11:26:49Z</time>
      </trkpt>
      <trkpt lat="39.8677790" lon="-5.8895520">
        <ele>221.8</ele>
        <time>2019-07-09T11:26:51Z</time>
      </trkpt>
      <trkpt lat="39.8678320" lon="-5.8895940">
        <ele>221.6</ele>
        <time>2019-07-09T11:26:52Z</time>
      </trkpt>
      <trkpt lat="39.8680380" lon="-5.8897310">
        <ele>220.8</ele>
        <time>2019-07-09T11:26:56Z</time>
      </trkpt>
      <trkpt lat="39.8680850" lon="-5.8897620">
        <ele>220.6</ele>
        <time>2019-07-09T11:26:57Z</time>
      </trkpt>
      <trkpt lat="39.8681820" lon="-5.8899090">
        <ele>220.2</ele>
        <time>2019-07-09T11:27:00Z</time>
      </trkpt>
      <trkpt lat="39.8682390" lon="-5.8900210">
        <ele>220.0</ele>
        <time>2019-07-09T11:27:02Z</time>
      </trkpt>
      <trkpt lat="39.8683150" lon="-5.8901200">
        <ele>220.0</ele>
        <time>2019-07-09T11:27:04Z</time>
      </trkpt>
      <trkpt lat="39.8683550" lon="-5.8901670">
        <ele>220.0</ele>
        <time>2019-07-09T11:27:05Z</time>
      </trkpt>
      <trkpt lat="39.8684690" lon="-5.8903000">
        <ele>220.4</ele>
        <time>2019-07-09T11:27:08Z</time>
      </trkpt>
      <trkpt lat="39.8685740" lon="-5.8904560">
        <ele>220.4</ele>
        <time>2019-07-09T11:27:11Z</time>
      </trkpt>
      <trkpt lat="39.8688810" lon="-5.8909160">
        <ele>219.8</ele>
        <time>2019-07-09T11:27:19Z</time>
      </trkpt>
      <trkpt lat="39.8689700" lon="-5.8910280">
        <ele>219.6</ele>
        <time>2019-07-09T11:27:21Z</time>
      </trkpt>
      <trkpt lat="39.8690640" lon="-5.8911410">
        <ele>219.6</ele>
        <time>2019-07-09T11:27:23Z</time>
      </trkpt>
      <trkpt lat="39.8692140" lon="-5.8913070">
        <ele>219.2</ele>
        <time>2019-07-09T11:27:26Z</time>
      </trkpt>
      <trkpt lat="39.8695960" lon="-5.8916680">
        <ele>218.6</ele>
        <time>2019-07-09T11:27:33Z</time>
      </trkpt>
      <trkpt lat="39.8696400" lon="-5.8917320">
        <ele>218.4</ele>
        <time>2019-07-09T11:27:34Z</time>
      </trkpt>
      <trkpt lat="39.8697800" lon="-5.8919030">
        <ele>217.8</ele>
        <time>2019-07-09T11:27:37Z</time>
      </trkpt>
      <trkpt lat="39.8698270" lon="-5.8919520">
        <ele>217.8</ele>
        <time>2019-07-09T11:27:38Z</time>
      </trkpt>
      <trkpt lat="39.8700490" lon="-5.8921680">
        <ele>218.0</ele>
        <time>2019-07-09T11:27:43Z</time>
      </trkpt>
      <trkpt lat="39.8701000" lon="-5.8921920">
        <ele>218.0</ele>
        <time>2019-07-09T11:27:44Z</time>
      </trkpt>
      <trkpt lat="39.8703120" lon="-5.8922620">
        <ele>217.4</ele>
        <time>2019-07-09T11:27:48Z</time>
      </trkpt>
      <trkpt lat="39.8704150" lon="-5.8922940">
        <ele>217.4</ele>
        <time>2019-07-09T11:27:50Z</time>
      </trkpt>
      <trkpt lat="39.8708370" lon="-5.8924700">
        <ele>217.6</ele>
        <time>2019-07-09T11:27:58Z</time>
      </trkpt>
      <trkpt lat="39.8710270" lon="-5.8926050">
        <ele>217.8</ele>
        <time>2019-07-09T11:28:02Z</time>
      </trkpt>
      <trkpt lat="39.8710720" lon="-5.8926440">
        <ele>217.6</ele>
        <time>2019-07-09T11:28:03Z</time>
      </trkpt>
      <trkpt lat="39.8711680" lon="-5.8927180">
        <ele>217.4</ele>
        <time>2019-07-09T11:28:05Z</time>
      </trkpt>
      <trkpt lat="39.8712710" lon="-5.8927670">
        <ele>217.2</ele>
        <time>2019-07-09T11:28:07Z</time>
      </trkpt>
      <trkpt lat="39.8713240" lon="-5.8927840">
        <ele>216.8</ele>
        <time>2019-07-09T11:28:08Z</time>
      </trkpt>
      <trkpt lat="39.8714340" lon="-5.8927840">
        <ele>216.4</ele>
        <time>2019-07-09T11:28:10Z</time>
      </trkpt>
      <trkpt lat="39.8716700" lon="-5.8927390">
        <ele>215.8</ele>
        <time>2019-07-09T11:28:15Z</time>
      </trkpt>
      <trkpt lat="39.8717080" lon="-5.8927340">
        <ele>215.6</ele>
        <time>2019-07-09T11:28:19Z</time>
      </trkpt>
      <trkpt lat="39.8717200" lon="-5.8927430">
        <ele>215.6</ele>
        <time>2019-07-09T11:28:20Z</time>
      </trkpt>
      <trkpt lat="39.8717530" lon="-5.8927480">
        <ele>215.6</ele>
        <time>2019-07-09T11:28:22Z</time>
      </trkpt>
      <trkpt lat="39.8717700" lon="-5.8927440">
        <ele>215.6</ele>
        <time>2019-07-09T11:28:23Z</time>
      </trkpt>
      <trkpt lat="39.8718380" lon="-5.8927190">
        <ele>215.6</ele>
        <time>2019-07-09T11:28:30Z</time>
      </trkpt>
      <trkpt lat="39.8719960" lon="-5.8927500">
        <ele>216.2</ele>
        <time>2019-07-09T11:28:53Z</time>
      </trkpt>
      <trkpt lat="39.8720150" lon="-5.8927570">
        <ele>216.2</ele>
        <time>2019-07-09T11:28:54Z</time>
      </trkpt>
      <trkpt lat="39.8720390" lon="-5.8927640">
        <ele>216.4</ele>
        <time>2019-07-09T11:28:55Z</time>
      </trkpt>
      <trkpt lat="39.8722630" lon="-5.8928070">
        <ele>216.6</ele>
        <time>2019-07-09T11:29:02Z</time>
      </trkpt>
      <trkpt lat="39.8724640" lon="-5.8928310">
        <ele>217.4</ele>
        <time>2019-07-09T11:29:08Z</time>
      </trkpt>
      <trkpt lat="39.8724990" lon="-5.8928310">
        <ele>217.4</ele>
        <time>2019-07-09T11:29:09Z</time>
      </trkpt>
      <trkpt lat="39.8726630" lon="-5.8928380">
        <ele>217.0</ele>
        <time>2019-07-09T11:29:15Z</time>
      </trkpt>
      <trkpt lat="39.8728410" lon="-5.8928490">
        <ele>217.4</ele>
        <time>2019-07-09T11:29:20Z</time>
      </trkpt>
      <trkpt lat="39.8730000" lon="-5.8928430">
        <ele>217.4</ele>
        <time>2019-07-09T11:29:24Z</time>
      </trkpt>
      <trkpt lat="39.8731240" lon="-5.8928560">
        <ele>217.8</ele>
        <time>2019-07-09T11:29:27Z</time>
      </trkpt>
      <trkpt lat="39.8732080" lon="-5.8928870">
        <ele>217.8</ele>
        <time>2019-07-09T11:29:29Z</time>
      </trkpt>
      <trkpt lat="39.8734150" lon="-5.8930070">
        <ele>217.6</ele>
        <time>2019-07-09T11:29:34Z</time>
      </trkpt>
      <trkpt lat="39.8737190" lon="-5.8931850">
        <ele>217.2</ele>
        <time>2019-07-09T11:29:41Z</time>
      </trkpt>
      <trkpt lat="39.8737660" lon="-5.8932030">
        <ele>217.2</ele>
        <time>2019-07-09T11:29:42Z</time>
      </trkpt>
      <trkpt lat="39.8739110" lon="-5.8932160">
        <ele>217.2</ele>
        <time>2019-07-09T11:29:45Z</time>
      </trkpt>
      <trkpt lat="39.8742930" lon="-5.8933000">
        <ele>217.4</ele>
        <time>2019-07-09T11:29:53Z</time>
      </trkpt>
      <trkpt lat="39.8744910" lon="-5.8933180">
        <ele>217.6</ele>
        <time>2019-07-09T11:29:57Z</time>
      </trkpt>
      <trkpt lat="39.8745890" lon="-5.8933430">
        <ele>217.6</ele>
        <time>2019-07-09T11:29:59Z</time>
      </trkpt>
      <trkpt lat="39.8749120" lon="-5.8934740">
        <ele>218.0</ele>
        <time>2019-07-09T11:30:06Z</time>
      </trkpt>
      <trkpt lat="39.8749530" lon="-5.8935020">
        <ele>218.0</ele>
        <time>2019-07-09T11:30:07Z</time>
      </trkpt>
      <trkpt lat="39.8749920" lon="-5.8935260">
        <ele>218.0</ele>
        <time>2019-07-09T11:30:08Z</time>
      </trkpt>
      <trkpt lat="39.8750740" lon="-5.8935710">
        <ele>218.4</ele>
        <time>2019-07-09T11:30:10Z</time>
      </trkpt>
      <trkpt lat="39.8751180" lon="-5.8935870">
        <ele>218.6</ele>
        <time>2019-07-09T11:30:11Z</time>
      </trkpt>
      <trkpt lat="39.8751630" lon="-5.8935970">
        <ele>218.8</ele>
        <time>2019-07-09T11:30:12Z</time>
      </trkpt>
      <trkpt lat="39.8752960" lon="-5.8936280">
        <ele>219.0</ele>
        <time>2019-07-09T11:30:15Z</time>
      </trkpt>
      <trkpt lat="39.8754610" lon="-5.8937110">
        <ele>219.4</ele>
        <time>2019-07-09T11:30:19Z</time>
      </trkpt>
      <trkpt lat="39.8756180" lon="-5.8938260">
        <ele>219.8</ele>
        <time>2019-07-09T11:30:23Z</time>
      </trkpt>
      <trkpt lat="39.8757160" lon="-5.8939440">
        <ele>219.4</ele>
        <time>2019-07-09T11:30:26Z</time>
      </trkpt>
      <trkpt lat="39.8757930" lon="-5.8940640">
        <ele>219.2</ele>
        <time>2019-07-09T11:30:30Z</time>
      </trkpt>
      <trkpt lat="39.8757940" lon="-5.8940660">
        <ele>219.2</ele>
        <time>2019-07-09T11:30:32Z</time>
      </trkpt>
      <trkpt lat="39.8758110" lon="-5.8940980">
        <ele>219.2</ele>
        <time>2019-07-09T11:30:44Z</time>
      </trkpt>
      <trkpt lat="39.8758240" lon="-5.8941180">
        <ele>219.2</ele>
        <time>2019-07-09T11:30:45Z</time>
      </trkpt>
      <trkpt lat="39.8759070" lon="-5.8943000">
        <ele>219.2</ele>
        <time>2019-07-09T11:30:50Z</time>
      </trkpt>
      <trkpt lat="39.8760350" lon="-5.8944790">
        <ele>219.4</ele>
        <time>2019-07-09T11:30:55Z</time>
      </trkpt>
      <trkpt lat="39.8762500" lon="-5.8947270">
        <ele>219.0</ele>
        <time>2019-07-09T11:31:02Z</time>
      </trkpt>
      <trkpt lat="39.8763880" lon="-5.8949100">
        <ele>219.0</ele>
        <time>2019-07-09T11:31:07Z</time>
      </trkpt>
      <trkpt lat="39.8765100" lon="-5.8950550">
        <ele>219.0</ele>
        <time>2019-07-09T11:31:11Z</time>
      </trkpt>
      <trkpt lat="39.8765780" lon="-5.8952400">
        <ele>218.8</ele>
        <time>2019-07-09T11:31:15Z</time>
      </trkpt>
      <trkpt lat="39.8765950" lon="-5.8952860">
        <ele>219.0</ele>
        <time>2019-07-09T11:31:16Z</time>
      </trkpt>
      <trkpt lat="39.8767100" lon="-5.8956330">
        <ele>219.2</ele>
        <time>2019-07-09T11:31:23Z</time>
      </trkpt>
      <trkpt lat="39.8768190" lon="-5.8957930">
        <ele>219.4</ele>
        <time>2019-07-09T11:31:27Z</time>
      </trkpt>
      <trkpt lat="39.8768780" lon="-5.8958360">
        <ele>219.6</ele>
        <time>2019-07-09T11:31:29Z</time>
      </trkpt>
      <trkpt lat="39.8769530" lon="-5.8958960">
        <ele>220.2</ele>
        <time>2019-07-09T11:31:32Z</time>
      </trkpt>
      <trkpt lat="39.8769720" lon="-5.8959160">
        <ele>220.4</ele>
        <time>2019-07-09T11:31:33Z</time>
      </trkpt>
      <trkpt lat="39.8770110" lon="-5.8959460">
        <ele>221.0</ele>
        <time>2019-07-09T11:31:35Z</time>
      </trkpt>
      <trkpt lat="39.8770310" lon="-5.8959620">
        <ele>221.4</ele>
        <time>2019-07-09T11:31:36Z</time>
      </trkpt>
      <trkpt lat="39.8770710" lon="-5.8960000">
        <ele>222.0</ele>
        <time>2019-07-09T11:31:38Z</time>
      </trkpt>
      <trkpt lat="39.8771160" lon="-5.8960500">
        <ele>222.0</ele>
        <time>2019-07-09T11:31:40Z</time>
      </trkpt>
      <trkpt lat="39.8771980" lon="-5.8961230">
        <ele>222.4</ele>
        <time>2019-07-09T11:31:43Z</time>
      </trkpt>
      <trkpt lat="39.8772630" lon="-5.8961720">
        <ele>222.4</ele>
        <time>2019-07-09T11:31:45Z</time>
      </trkpt>
      <trkpt lat="39.8773350" lon="-5.8962090">
        <ele>222.6</ele>
        <time>2019-07-09T11:31:47Z</time>
      </trkpt>
      <trkpt lat="39.8774420" lon="-5.8962430">
        <ele>222.8</ele>
        <time>2019-07-09T11:31:50Z</time>
      </trkpt>
      <trkpt lat="39.8776070" lon="-5.8963880">
        <ele>223.2</ele>
        <time>2019-07-09T11:31:56Z</time>
      </trkpt>
      <trkpt lat="39.8777530" lon="-5.8965150">
        <ele>223.6</ele>
        <time>2019-07-09T11:32:01Z</time>
      </trkpt>
      <trkpt lat="39.8778240" lon="-5.8965990">
        <ele>224.0</ele>
        <time>2019-07-09T11:32:04Z</time>
      </trkpt>
      <trkpt lat="39.8779280" lon="-5.8967050">
        <ele>224.8</ele>
        <time>2019-07-09T11:32:08Z</time>
      </trkpt>
      <trkpt lat="39.8779540" lon="-5.8967340">
        <ele>225.0</ele>
        <time>2019-07-09T11:32:09Z</time>
      </trkpt>
      <trkpt lat="39.8780780" lon="-5.8969190">
        <ele>225.6</ele>
        <time>2019-07-09T11:32:15Z</time>
      </trkpt>
      <trkpt lat="39.8780950" lon="-5.8969480">
        <ele>226.0</ele>
        <time>2019-07-09T11:32:16Z</time>
      </trkpt>
      <trkpt lat="39.8782070" lon="-5.8970930">
        <ele>226.6</ele>
        <time>2019-07-09T11:32:21Z</time>
      </trkpt>
      <trkpt lat="39.8783720" lon="-5.8972860">
        <ele>227.2</ele>
        <time>2019-07-09T11:32:28Z</time>
      </trkpt>
      <trkpt lat="39.8783930" lon="-5.8973130">
        <ele>227.2</ele>
        <time>2019-07-09T11:32:29Z</time>
      </trkpt>
      <trkpt lat="39.8784130" lon="-5.8973410">
        <ele>227.4</ele>
        <time>2019-07-09T11:32:30Z</time>
      </trkpt>
      <trkpt lat="39.8785320" lon="-5.8975500">
        <ele>228.4</ele>
        <time>2019-07-09T11:32:37Z</time>
      </trkpt>
      <trkpt lat="39.8786270" lon="-5.8976960">
        <ele>229.4</ele>
        <time>2019-07-09T11:32:42Z</time>
      </trkpt>
      <trkpt lat="39.8786510" lon="-5.8977230">
        <ele>229.6</ele>
        <time>2019-07-09T11:32:43Z</time>
      </trkpt>
      <trkpt lat="39.8788210" lon="-5.8978830">
        <ele>230.2</ele>
        <time>2019-07-09T11:32:50Z</time>
      </trkpt>
      <trkpt lat="39.8788810" lon="-5.8979070">
        <ele>230.6</ele>
        <time>2019-07-09T11:32:52Z</time>
      </trkpt>
      <trkpt lat="39.8790120" lon="-5.8980070">
        <ele>231.2</ele>
        <time>2019-07-09T11:32:57Z</time>
      </trkpt>
      <trkpt lat="39.8790830" lon="-5.8980810">
        <ele>231.8</ele>
        <time>2019-07-09T11:33:00Z</time>
      </trkpt>
      <trkpt lat="39.8791610" lon="-5.8981470">
        <ele>232.2</ele>
        <time>2019-07-09T11:33:03Z</time>
      </trkpt>
      <trkpt lat="39.8792430" lon="-5.8981920">
        <ele>232.8</ele>
        <time>2019-07-09T11:33:06Z</time>
      </trkpt>
      <trkpt lat="39.8793120" lon="-5.8982440">
        <ele>234.2</ele>
        <time>2019-07-09T11:33:09Z</time>
      </trkpt>
      <trkpt lat="39.8793540" lon="-5.8982870">
        <ele>234.6</ele>
        <time>2019-07-09T11:33:11Z</time>
      </trkpt>
      <trkpt lat="39.8794540" lon="-5.8984540">
        <ele>234.8</ele>
        <time>2019-07-09T11:33:16Z</time>
      </trkpt>
      <trkpt lat="39.8794670" lon="-5.8985050">
        <ele>234.6</ele>
        <time>2019-07-09T11:33:17Z</time>
      </trkpt>
      <trkpt lat="39.8795260" lon="-5.8986650">
        <ele>233.4</ele>
        <time>2019-07-09T11:33:20Z</time>
      </trkpt>
      <trkpt lat="39.8795700" lon="-5.8987770">
        <ele>233.6</ele>
        <time>2019-07-09T11:33:22Z</time>
      </trkpt>
      <trkpt lat="39.8796480" lon="-5.8989420">
        <ele>233.4</ele>
        <time>2019-07-09T11:33:25Z</time>
      </trkpt>
      <trkpt lat="39.8796760" lon="-5.8989970">
        <ele>233.4</ele>
        <time>2019-07-09T11:33:26Z</time>
      </trkpt>
      <trkpt lat="39.8797210" lon="-5.8991040">
        <ele>233.0</ele>
        <time>2019-07-09T11:33:28Z</time>
      </trkpt>
      <trkpt lat="39.8797590" lon="-5.8992520">
        <ele>232.4</ele>
        <time>2019-07-09T11:33:31Z</time>
      </trkpt>
      <trkpt lat="39.8798000" lon="-5.8994880">
        <ele>233.0</ele>
        <time>2019-07-09T11:33:36Z</time>
      </trkpt>
      <trkpt lat="39.8798340" lon="-5.8996680">
        <ele>233.8</ele>
        <time>2019-07-09T11:33:40Z</time>
      </trkpt>
      <trkpt lat="39.8798940" lon="-5.8998850">
        <ele>234.0</ele>
        <time>2019-07-09T11:33:45Z</time>
      </trkpt>
      <trkpt lat="39.8799160" lon="-5.8999650">
        <ele>234.4</ele>
        <time>2019-07-09T11:33:47Z</time>
      </trkpt>
      <trkpt lat="39.8799450" lon="-5.9000770">
        <ele>235.2</ele>
        <time>2019-07-09T11:33:50Z</time>
      </trkpt>
      <trkpt lat="39.8799880" lon="-5.9002370">
        <ele>235.8</ele>
        <time>2019-07-09T11:33:54Z</time>
      </trkpt>
      <trkpt lat="39.8800080" lon="-5.9003610">
        <ele>236.0</ele>
        <time>2019-07-09T11:33:57Z</time>
      </trkpt>
      <trkpt lat="39.8800320" lon="-5.9004670">
        <ele>236.0</ele>
        <time>2019-07-09T11:34:00Z</time>
      </trkpt>
      <trkpt lat="39.8800360" lon="-5.9004800">
        <ele>235.8</ele>
        <time>2019-07-09T11:34:02Z</time>
      </trkpt>
      <trkpt lat="39.8800360" lon="-5.9004800">
        <ele>235.8</ele>
        <time>2019-07-09T11:34:03Z</time>
      </trkpt>
      <trkpt lat="39.8800820" lon="-5.9005660">
        <ele>236.4</ele>
        <time>2019-07-09T11:41:33Z</time>
      </trkpt>
      <trkpt lat="39.8800900" lon="-5.9005930">
        <ele>236.4</ele>
        <time>2019-07-09T11:41:34Z</time>
      </trkpt>
      <trkpt lat="39.8800930" lon="-5.9006220">
        <ele>236.2</ele>
        <time>2019-07-09T11:41:35Z</time>
      </trkpt>
      <trkpt lat="39.8800920" lon="-5.9007950">
        <ele>236.0</ele>
        <time>2019-07-09T11:41:40Z</time>
      </trkpt>
      <trkpt lat="39.8800870" lon="-5.9008320">
        <ele>236.0</ele>
        <time>2019-07-09T11:41:41Z</time>
      </trkpt>
      <trkpt lat="39.8800770" lon="-5.9008680">
        <ele>236.0</ele>
        <time>2019-07-09T11:41:42Z</time>
      </trkpt>
      <trkpt lat="39.8800200" lon="-5.9009650">
        <ele>235.8</ele>
        <time>2019-07-09T11:41:45Z</time>
      </trkpt>
      <trkpt lat="39.8799130" lon="-5.9011320">
        <ele>235.8</ele>
        <time>2019-07-09T11:41:50Z</time>
      </trkpt>
      <trkpt lat="39.8798640" lon="-5.9011950">
        <ele>236.0</ele>
        <time>2019-07-09T11:41:52Z</time>
      </trkpt>
      <trkpt lat="39.8797360" lon="-5.9013660">
        <ele>235.4</ele>
        <time>2019-07-09T11:41:57Z</time>
      </trkpt>
      <trkpt lat="39.8796530" lon="-5.9014780">
        <ele>235.4</ele>
        <time>2019-07-09T11:42:00Z</time>
      </trkpt>
      <trkpt lat="39.8796220" lon="-5.9015180">
        <ele>235.2</ele>
        <time>2019-07-09T11:42:01Z</time>
      </trkpt>
      <trkpt lat="39.8795500" lon="-5.9016050">
        <ele>235.0</ele>
        <time>2019-07-09T11:42:03Z</time>
      </trkpt>
      <trkpt lat="39.8794250" lon="-5.9017530">
        <ele>234.6</ele>
        <time>2019-07-09T11:42:06Z</time>
      </trkpt>
      <trkpt lat="39.8793400" lon="-5.9018630">
        <ele>234.2</ele>
        <time>2019-07-09T11:42:08Z</time>
      </trkpt>
      <trkpt lat="39.8791960" lon="-5.9020340">
        <ele>233.4</ele>
        <time>2019-07-09T11:42:11Z</time>
      </trkpt>
      <trkpt lat="39.8790930" lon="-5.9021590">
        <ele>233.0</ele>
        <time>2019-07-09T11:42:13Z</time>
      </trkpt>
      <trkpt lat="39.8788290" lon="-5.9024930">
        <ele>231.6</ele>
        <time>2019-07-09T11:42:18Z</time>
      </trkpt>
      <trkpt lat="39.8787110" lon="-5.9026250">
        <ele>230.8</ele>
        <time>2019-07-09T11:42:20Z</time>
      </trkpt>
      <trkpt lat="39.8786540" lon="-5.9026920">
        <ele>230.6</ele>
        <time>2019-07-09T11:42:21Z</time>
      </trkpt>
      <trkpt lat="39.8783790" lon="-5.9030520">
        <ele>229.6</ele>
        <time>2019-07-09T11:42:26Z</time>
      </trkpt>
      <trkpt lat="39.8782600" lon="-5.9031930">
        <ele>229.6</ele>
        <time>2019-07-09T11:42:28Z</time>
      </trkpt>
      <trkpt lat="39.8780330" lon="-5.9034780">
        <ele>228.6</ele>
        <time>2019-07-09T11:42:32Z</time>
      </trkpt>
      <trkpt lat="39.8778060" lon="-5.9037590">
        <ele>227.8</ele>
        <time>2019-07-09T11:42:36Z</time>
      </trkpt>
      <trkpt lat="39.8775820" lon="-5.9040340">
        <ele>227.4</ele>
        <time>2019-07-09T11:42:40Z</time>
      </trkpt>
      <trkpt lat="39.8773050" lon="-5.9043750">
        <ele>226.4</ele>
        <time>2019-07-09T11:42:45Z</time>
      </trkpt>
      <trkpt lat="39.8771370" lon="-5.9045730">
        <ele>226.0</ele>
        <time>2019-07-09T11:42:48Z</time>
      </trkpt>
      <trkpt lat="39.8769090" lon="-5.9048420">
        <ele>225.6</ele>
        <time>2019-07-09T11:42:52Z</time>
      </trkpt>
      <trkpt lat="39.8768500" lon="-5.9049100">
        <ele>225.4</ele>
        <time>2019-07-09T11:42:53Z</time>
      </trkpt>
      <trkpt lat="39.8766740" lon="-5.9051180">
        <ele>224.2</ele>
        <time>2019-07-09T11:42:56Z</time>
      </trkpt>
      <trkpt lat="39.8766140" lon="-5.9051940">
        <ele>223.8</ele>
        <time>2019-07-09T11:42:57Z</time>
      </trkpt>
      <trkpt lat="39.8764930" lon="-5.9053490">
        <ele>222.8</ele>
        <time>2019-07-09T11:42:59Z</time>
      </trkpt>
      <trkpt lat="39.8763020" lon="-5.9055850">
        <ele>221.4</ele>
        <time>2019-07-09T11:43:02Z</time>
      </trkpt>
      <trkpt lat="39.8761750" lon="-5.9057440">
        <ele>220.6</ele>
        <time>2019-07-09T11:43:04Z</time>
      </trkpt>
      <trkpt lat="39.8761110" lon="-5.9058190">
        <ele>220.2</ele>
        <time>2019-07-09T11:43:05Z</time>
      </trkpt>
      <trkpt lat="39.8758550" lon="-5.9060910">
        <ele>219.2</ele>
        <time>2019-07-09T11:43:09Z</time>
      </trkpt>
      <trkpt lat="39.8757900" lon="-5.9061490">
        <ele>219.0</ele>
        <time>2019-07-09T11:43:10Z</time>
      </trkpt>
      <trkpt lat="39.8754700" lon="-5.9063950">
        <ele>218.6</ele>
        <time>2019-07-09T11:43:15Z</time>
      </trkpt>
      <trkpt lat="39.8754090" lon="-5.9064410">
        <ele>218.2</ele>
        <time>2019-07-09T11:43:16Z</time>
      </trkpt>
      <trkpt lat="39.8752940" lon="-5.9065330">
        <ele>218.2</ele>
        <time>2019-07-09T11:43:18Z</time>
      </trkpt>
      <trkpt lat="39.8751210" lon="-5.9066620">
        <ele>218.0</ele>
        <time>2019-07-09T11:43:21Z</time>
      </trkpt>
      <trkpt lat="39.8750080" lon="-5.9067510">
        <ele>217.6</ele>
        <time>2019-07-09T11:43:23Z</time>
      </trkpt>
      <trkpt lat="39.8748930" lon="-5.9068370">
        <ele>217.4</ele>
        <time>2019-07-09T11:43:25Z</time>
      </trkpt>
      <trkpt lat="39.8744450" lon="-5.9071780">
        <ele>217.2</ele>
        <time>2019-07-09T11:43:33Z</time>
      </trkpt>
      <trkpt lat="39.8743900" lon="-5.9072190">
        <ele>217.4</ele>
        <time>2019-07-09T11:43:34Z</time>
      </trkpt>
      <trkpt lat="39.8742830" lon="-5.9072980">
        <ele>217.4</ele>
        <time>2019-07-09T11:43:36Z</time>
      </trkpt>
      <trkpt lat="39.8741740" lon="-5.9073770">
        <ele>217.2</ele>
        <time>2019-07-09T11:43:38Z</time>
      </trkpt>
      <trkpt lat="39.8740200" lon="-5.9074940">
        <ele>217.0</ele>
        <time>2019-07-09T11:43:41Z</time>
      </trkpt>
      <trkpt lat="39.8737600" lon="-5.9076910">
        <ele>216.6</ele>
        <time>2019-07-09T11:43:46Z</time>
      </trkpt>
      <trkpt lat="39.8735700" lon="-5.9078310">
        <ele>216.8</ele>
        <time>2019-07-09T11:43:50Z</time>
      </trkpt>
      <trkpt lat="39.8733400" lon="-5.9079870">
        <ele>217.0</ele>
        <time>2019-07-09T11:43:55Z</time>
      </trkpt>
      <trkpt lat="39.8731190" lon="-5.9081640">
        <ele>217.4</ele>
        <time>2019-07-09T11:44:00Z</time>
      </trkpt>
      <trkpt lat="39.8730750" lon="-5.9082000">
        <ele>217.4</ele>
        <time>2019-07-09T11:44:01Z</time>
      </trkpt>
      <trkpt lat="39.8729810" lon="-5.9082690">
        <ele>217.6</ele>
        <time>2019-07-09T11:44:03Z</time>
      </trkpt>
      <trkpt lat="39.8727000" lon="-5.9084790">
        <ele>217.4</ele>
        <time>2019-07-09T11:44:09Z</time>
      </trkpt>
      <trkpt lat="39.8723610" lon="-5.9087430">
        <ele>218.6</ele>
        <time>2019-07-09T11:44:17Z</time>
      </trkpt>
      <trkpt lat="39.8722390" lon="-5.9088440">
        <ele>218.8</ele>
        <time>2019-07-09T11:44:21Z</time>
      </trkpt>
      <trkpt lat="39.8722190" lon="-5.9088580">
        <ele>219.0</ele>
        <time>2019-07-09T11:44:24Z</time>
      </trkpt>
      <trkpt lat="39.8721900" lon="-5.9088770">
        <ele>219.0</ele>
        <time>2019-07-09T11:44:50Z</time>
      </trkpt>
      <trkpt lat="39.8721710" lon="-5.9088860">
        <ele>219.0</ele>
        <time>2019-07-09T11:44:51Z</time>
      </trkpt>
      <trkpt lat="39.8721270" lon="-5.9089120">
        <ele>219.2</ele>
        <time>2019-07-09T11:44:53Z</time>
      </trkpt>
      <trkpt lat="39.8720780" lon="-5.9089500">
        <ele>219.2</ele>
        <time>2019-07-09T11:44:55Z</time>
      </trkpt>
      <trkpt lat="39.8720520" lon="-5.9089740">
        <ele>219.4</ele>
        <time>2019-07-09T11:44:56Z</time>
      </trkpt>
      <trkpt lat="39.8719960" lon="-5.9090250">
        <ele>219.6</ele>
        <time>2019-07-09T11:44:58Z</time>
      </trkpt>
      <trkpt lat="39.8717910" lon="-5.9091740">
        <ele>219.6</ele>
        <time>2019-07-09T11:45:04Z</time>
      </trkpt>
      <trkpt lat="39.8715300" lon="-5.9093680">
        <ele>220.4</ele>
        <time>2019-07-09T11:45:11Z</time>
      </trkpt>
      <trkpt lat="39.8714910" lon="-5.9094000">
        <ele>220.4</ele>
        <time>2019-07-09T11:45:12Z</time>
      </trkpt>
      <trkpt lat="39.8713700" lon="-5.9094880">
        <ele>220.4</ele>
        <time>2019-07-09T11:45:15Z</time>
      </trkpt>
      <trkpt lat="39.8712070" lon="-5.9096050">
        <ele>220.6</ele>
        <time>2019-07-09T11:45:19Z</time>
      </trkpt>
      <trkpt lat="39.8709190" lon="-5.9098110">
        <ele>221.0</ele>
        <time>2019-07-09T11:45:26Z</time>
      </trkpt>
      <trkpt lat="39.8706170" lon="-5.9100430">
        <ele>221.4</ele>
        <time>2019-07-09T11:45:33Z</time>
      </trkpt>
      <trkpt lat="39.8705270" lon="-5.9101110">
        <ele>221.4</ele>
        <time>2019-07-09T11:45:35Z</time>
      </trkpt>
      <trkpt lat="39.8703010" lon="-5.9102910">
        <ele>221.8</ele>
        <time>2019-07-09T11:45:40Z</time>
      </trkpt>
      <trkpt lat="39.8702540" lon="-5.9103270">
        <ele>221.8</ele>
        <time>2019-07-09T11:45:41Z</time>
      </trkpt>
      <trkpt lat="39.8699510" lon="-5.9105450">
        <ele>221.6</ele>
        <time>2019-07-09T11:45:47Z</time>
      </trkpt>
      <trkpt lat="39.8695300" lon="-5.9108470">
        <ele>221.2</ele>
        <time>2019-07-09T11:45:55Z</time>
      </trkpt>
      <trkpt lat="39.8691330" lon="-5.9110970">
        <ele>221.0</ele>
        <time>2019-07-09T11:46:02Z</time>
      </trkpt>
      <trkpt lat="39.8689220" lon="-5.9112430">
        <ele>220.6</ele>
        <time>2019-07-09T11:46:06Z</time>
      </trkpt>
      <trkpt lat="39.8688690" lon="-5.9112740">
        <ele>220.6</ele>
        <time>2019-07-09T11:46:07Z</time>
      </trkpt>
      <trkpt lat="39.8684790" lon="-5.9115050">
        <ele>220.6</ele>
        <time>2019-07-09T11:46:14Z</time>
      </trkpt>
      <trkpt lat="39.8680930" lon="-5.9117490">
        <ele>220.4</ele>
        <time>2019-07-09T11:46:21Z</time>
      </trkpt>
      <trkpt lat="39.8679800" lon="-5.9118100">
        <ele>220.2</ele>
        <time>2019-07-09T11:46:23Z</time>
      </trkpt>
      <trkpt lat="39.8677020" lon="-5.9119940">
        <ele>220.0</ele>
        <time>2019-07-09T11:46:28Z</time>
      </trkpt>
      <trkpt lat="39.8673080" lon="-5.9122500">
        <ele>220.6</ele>
        <time>2019-07-09T11:46:35Z</time>
      </trkpt>
      <trkpt lat="39.8670200" lon="-5.9124840">
        <ele>221.2</ele>
        <time>2019-07-09T11:46:41Z</time>
      </trkpt>
      <trkpt lat="39.8669280" lon="-5.9125700">
        <ele>221.4</ele>
        <time>2019-07-09T11:46:43Z</time>
      </trkpt>
      <trkpt lat="39.8668850" lon="-5.9126190">
        <ele>221.4</ele>
        <time>2019-07-09T11:46:44Z</time>
      </trkpt>
      <trkpt lat="39.8667550" lon="-5.9127860">
        <ele>221.6</ele>
        <time>2019-07-09T11:46:47Z</time>
      </trkpt>
      <trkpt lat="39.8664100" lon="-5.9132100">
        <ele>221.0</ele>
        <time>2019-07-09T11:46:54Z</time>
      </trkpt>
      <trkpt lat="39.8663050" lon="-5.9133360">
        <ele>220.4</ele>
        <time>2019-07-09T11:46:56Z</time>
      </trkpt>
      <trkpt lat="39.8660660" lon="-5.9136410">
        <ele>220.2</ele>
        <time>2019-07-09T11:47:01Z</time>
      </trkpt>
      <trkpt lat="39.8659640" lon="-5.9138510">
        <ele>220.2</ele>
        <time>2019-07-09T11:47:04Z</time>
      </trkpt>
      <trkpt lat="39.8659120" lon="-5.9140060">
        <ele>220.0</ele>
        <time>2019-07-09T11:47:06Z</time>
      </trkpt>
      <trkpt lat="39.8657130" lon="-5.9146610">
        <ele>219.8</ele>
        <time>2019-07-09T11:47:14Z</time>
      </trkpt>
      <trkpt lat="39.8656890" lon="-5.9147460">
        <ele>219.8</ele>
        <time>2019-07-09T11:47:15Z</time>
      </trkpt>
      <trkpt lat="39.8655620" lon="-5.9151620">
        <ele>219.6</ele>
        <time>2019-07-09T11:47:20Z</time>
      </trkpt>
      <trkpt lat="39.8654840" lon="-5.9154050">
        <ele>219.0</ele>
        <time>2019-07-09T11:47:23Z</time>
      </trkpt>
      <trkpt lat="39.8653140" lon="-5.9159940">
        <ele>218.6</ele>
        <time>2019-07-09T11:47:30Z</time>
      </trkpt>
      <trkpt lat="39.8651360" lon="-5.9166250">
        <ele>218.6</ele>
        <time>2019-07-09T11:47:38Z</time>
      </trkpt>
      <trkpt lat="39.8650190" lon="-5.9170070">
        <ele>218.4</ele>
        <time>2019-07-09T11:47:43Z</time>
      </trkpt>
      <trkpt lat="39.8649490" lon="-5.9172330">
        <ele>218.0</ele>
        <time>2019-07-09T11:47:46Z</time>
      </trkpt>
      <trkpt lat="39.8649260" lon="-5.9173080">
        <ele>218.0</ele>
        <time>2019-07-09T11:47:47Z</time>
      </trkpt>
      <trkpt lat="39.8647950" lon="-5.9177590">
        <ele>217.8</ele>
        <time>2019-07-09T11:47:53Z</time>
      </trkpt>
      <trkpt lat="39.8646340" lon="-5.9182860">
        <ele>217.6</ele>
        <time>2019-07-09T11:48:00Z</time>
      </trkpt>
      <trkpt lat="39.8646110" lon="-5.9183630">
        <ele>217.6</ele>
        <time>2019-07-09T11:48:01Z</time>
      </trkpt>
      <trkpt lat="39.8645410" lon="-5.9185930">
        <ele>217.4</ele>
        <time>2019-07-09T11:48:04Z</time>
      </trkpt>
      <trkpt lat="39.8643910" lon="-5.9190550">
        <ele>217.0</ele>
        <time>2019-07-09T11:48:10Z</time>
      </trkpt>
      <trkpt lat="39.8642220" lon="-5.9195170">
        <ele>216.8</ele>
        <time>2019-07-09T11:48:16Z</time>
      </trkpt>
      <trkpt lat="39.8641300" lon="-5.9197450">
        <ele>216.8</ele>
        <time>2019-07-09T11:48:19Z</time>
      </trkpt>
      <trkpt lat="39.8639110" lon="-5.9202920">
        <ele>216.6</ele>
        <time>2019-07-09T11:48:26Z</time>
      </trkpt>
      <trkpt lat="39.8636520" lon="-5.9209080">
        <ele>216.6</ele>
        <time>2019-07-09T11:48:34Z</time>
      </trkpt>
      <trkpt lat="39.8636220" lon="-5.9209820">
        <ele>216.8</ele>
        <time>2019-07-09T11:48:35Z</time>
      </trkpt>
      <trkpt lat="39.8634600" lon="-5.9214160">
        <ele>217.2</ele>
        <time>2019-07-09T11:48:41Z</time>
      </trkpt>
      <trkpt lat="39.8633960" lon="-5.9218070">
        <ele>217.0</ele>
        <time>2019-07-09T11:48:46Z</time>
      </trkpt>
      <trkpt lat="39.8633370" lon="-5.9223640">
        <ele>217.0</ele>
        <time>2019-07-09T11:48:53Z</time>
      </trkpt>
      <trkpt lat="39.8632950" lon="-5.9229900">
        <ele>217.0</ele>
        <time>2019-07-09T11:49:01Z</time>
      </trkpt>
      <trkpt lat="39.8632580" lon="-5.9235920">
        <ele>217.2</ele>
        <time>2019-07-09T11:49:09Z</time>
      </trkpt>
      <trkpt lat="39.8632190" lon="-5.9240160">
        <ele>217.4</ele>
        <time>2019-07-09T11:49:15Z</time>
      </trkpt>
      <trkpt lat="39.8631620" lon="-5.9243530">
        <ele>217.8</ele>
        <time>2019-07-09T11:49:20Z</time>
      </trkpt>
      <trkpt lat="39.8631100" lon="-5.9244820">
        <ele>217.8</ele>
        <time>2019-07-09T11:49:22Z</time>
      </trkpt>
      <trkpt lat="39.8628910" lon="-5.9248200">
        <ele>218.0</ele>
        <time>2019-07-09T11:49:28Z</time>
      </trkpt>
      <trkpt lat="39.8626960" lon="-5.9250720">
        <ele>218.4</ele>
        <time>2019-07-09T11:49:33Z</time>
      </trkpt>
      <trkpt lat="39.8625760" lon="-5.9252060">
        <ele>218.8</ele>
        <time>2019-07-09T11:49:36Z</time>
      </trkpt>
      <trkpt lat="39.8623550" lon="-5.9254960">
        <ele>219.4</ele>
        <time>2019-07-09T11:49:42Z</time>
      </trkpt>
      <trkpt lat="39.8623170" lon="-5.9255440">
        <ele>219.4</ele>
        <time>2019-07-09T11:49:43Z</time>
      </trkpt>
      <trkpt lat="39.8619400" lon="-5.9259780">
        <ele>220.2</ele>
        <time>2019-07-09T11:49:53Z</time>
      </trkpt>
      <trkpt lat="39.8618720" lon="-5.9260710">
        <ele>220.6</ele>
        <time>2019-07-09T11:49:55Z</time>
      </trkpt>
      <trkpt lat="39.8617250" lon="-5.9262450">
        <ele>221.0</ele>
        <time>2019-07-09T11:49:59Z</time>
      </trkpt>
      <trkpt lat="39.8615560" lon="-5.9264720">
        <ele>221.4</ele>
        <time>2019-07-09T11:50:04Z</time>
      </trkpt>
      <trkpt lat="39.8614660" lon="-5.9266210">
        <ele>221.6</ele>
        <time>2019-07-09T11:50:07Z</time>
      </trkpt>
      <trkpt lat="39.8614400" lon="-5.9266750">
        <ele>221.6</ele>
        <time>2019-07-09T11:50:08Z</time>
      </trkpt>
      <trkpt lat="39.8614170" lon="-5.9267340">
        <ele>221.8</ele>
        <time>2019-07-09T11:50:09Z</time>
      </trkpt>
      <trkpt lat="39.8613610" lon="-5.9269260">
        <ele>222.0</ele>
        <time>2019-07-09T11:50:12Z</time>
      </trkpt>
      <trkpt lat="39.8612560" lon="-5.9274400">
        <ele>221.8</ele>
        <time>2019-07-09T11:50:19Z</time>
      </trkpt>
      <trkpt lat="39.8611890" lon="-5.9278390">
        <ele>221.6</ele>
        <time>2019-07-09T11:50:24Z</time>
      </trkpt>
      <trkpt lat="39.8611180" lon="-5.9282440">
        <ele>221.6</ele>
        <time>2019-07-09T11:50:29Z</time>
      </trkpt>
      <trkpt lat="39.8610090" lon="-5.9288120">
        <ele>221.4</ele>
        <time>2019-07-09T11:50:36Z</time>
      </trkpt>
      <trkpt lat="39.8609770" lon="-5.9289700">
        <ele>221.6</ele>
        <time>2019-07-09T11:50:38Z</time>
      </trkpt>
      <trkpt lat="39.8608710" lon="-5.9295970">
        <ele>221.6</ele>
        <time>2019-07-09T11:50:46Z</time>
      </trkpt>
      <trkpt lat="39.8608110" lon="-5.9298940">
        <ele>222.0</ele>
        <time>2019-07-09T11:50:50Z</time>
      </trkpt>
      <trkpt lat="39.8608040" lon="-5.9299660">
        <ele>222.0</ele>
        <time>2019-07-09T11:50:51Z</time>
      </trkpt>
      <trkpt lat="39.8608030" lon="-5.9300390">
        <ele>222.0</ele>
        <time>2019-07-09T11:50:52Z</time>
      </trkpt>
      <trkpt lat="39.8608170" lon="-5.9307980">
        <ele>222.2</ele>
        <time>2019-07-09T11:51:02Z</time>
      </trkpt>
      <trkpt lat="39.8608380" lon="-5.9314590">
        <ele>222.0</ele>
        <time>2019-07-09T11:51:10Z</time>
      </trkpt>
      <trkpt lat="39.8608740" lon="-5.9320360">
        <ele>221.8</ele>
        <time>2019-07-09T11:51:17Z</time>
      </trkpt>
      <trkpt lat="39.8608960" lon="-5.9326090">
        <ele>221.8</ele>
        <time>2019-07-09T11:51:24Z</time>
      </trkpt>
      <trkpt lat="39.8609220" lon="-5.9332790">
        <ele>221.8</ele>
        <time>2019-07-09T11:51:32Z</time>
      </trkpt>
      <trkpt lat="39.8609320" lon="-5.9337760">
        <ele>221.6</ele>
        <time>2019-07-09T11:51:38Z</time>
      </trkpt>
      <trkpt lat="39.8609360" lon="-5.9339390">
        <ele>221.2</ele>
        <time>2019-07-09T11:51:40Z</time>
      </trkpt>
      <trkpt lat="39.8609340" lon="-5.9340220">
        <ele>221.2</ele>
        <time>2019-07-09T11:51:41Z</time>
      </trkpt>
      <trkpt lat="39.8609440" lon="-5.9343590">
        <ele>220.8</ele>
        <time>2019-07-09T11:51:45Z</time>
      </trkpt>
      <trkpt lat="39.8609520" lon="-5.9345360">
        <ele>220.6</ele>
        <time>2019-07-09T11:51:47Z</time>
      </trkpt>
      <trkpt lat="39.8609720" lon="-5.9351710">
        <ele>220.4</ele>
        <time>2019-07-09T11:51:54Z</time>
      </trkpt>
      <trkpt lat="39.8609840" lon="-5.9359110">
        <ele>220.0</ele>
        <time>2019-07-09T11:52:02Z</time>
      </trkpt>
      <trkpt lat="39.8609850" lon="-5.9360020">
        <ele>219.8</ele>
        <time>2019-07-09T11:52:03Z</time>
      </trkpt>
      <trkpt lat="39.8610030" lon="-5.9365950">
        <ele>219.8</ele>
        <time>2019-07-09T11:52:10Z</time>
      </trkpt>
      <trkpt lat="39.8610040" lon="-5.9366760">
        <ele>219.8</ele>
        <time>2019-07-09T11:52:11Z</time>
      </trkpt>
      <trkpt lat="39.8610050" lon="-5.9368350">
        <ele>219.6</ele>
        <time>2019-07-09T11:52:13Z</time>
      </trkpt>
      <trkpt lat="39.8610140" lon="-5.9370690">
        <ele>219.4</ele>
        <time>2019-07-09T11:52:16Z</time>
      </trkpt>
      <trkpt lat="39.8610170" lon="-5.9371490">
        <ele>219.4</ele>
        <time>2019-07-09T11:52:17Z</time>
      </trkpt>
      <trkpt lat="39.8610130" lon="-5.9373030">
        <ele>219.4</ele>
        <time>2019-07-09T11:52:19Z</time>
      </trkpt>
      <trkpt lat="39.8609220" lon="-5.9377490">
        <ele>219.8</ele>
        <time>2019-07-09T11:52:25Z</time>
      </trkpt>
      <trkpt lat="39.8607510" lon="-5.9381860">
        <ele>220.2</ele>
        <time>2019-07-09T11:52:32Z</time>
      </trkpt>
      <trkpt lat="39.8606810" lon="-5.9383380">
        <ele>221.0</ele>
        <time>2019-07-09T11:52:35Z</time>
      </trkpt>
      <trkpt lat="39.8605900" lon="-5.9385220">
        <ele>222.0</ele>
        <time>2019-07-09T11:52:39Z</time>
      </trkpt>
      <trkpt lat="39.8605260" lon="-5.9386460">
        <ele>222.6</ele>
        <time>2019-07-09T11:52:42Z</time>
      </trkpt>
      <trkpt lat="39.8604880" lon="-5.9387320">
        <ele>223.2</ele>
        <time>2019-07-09T11:52:44Z</time>
      </trkpt>
      <trkpt lat="39.8604480" lon="-5.9388110">
        <ele>223.8</ele>
        <time>2019-07-09T11:52:46Z</time>
      </trkpt>
      <trkpt lat="39.8604300" lon="-5.9388510">
        <ele>224.0</ele>
        <time>2019-07-09T11:52:47Z</time>
      </trkpt>
      <trkpt lat="39.8604130" lon="-5.9388920">
        <ele>224.4</ele>
        <time>2019-07-09T11:52:48Z</time>
      </trkpt>
      <trkpt lat="39.8603830" lon="-5.9389770">
        <ele>224.8</ele>
        <time>2019-07-09T11:52:50Z</time>
      </trkpt>
      <trkpt lat="39.8603340" lon="-5.9390930">
        <ele>225.4</ele>
        <time>2019-07-09T11:52:53Z</time>
      </trkpt>
      <trkpt lat="39.8603160" lon="-5.9391310">
        <ele>225.6</ele>
        <time>2019-07-09T11:52:54Z</time>
      </trkpt>
      <trkpt lat="39.8602980" lon="-5.9391700">
        <ele>226.0</ele>
        <time>2019-07-09T11:52:55Z</time>
      </trkpt>
      <trkpt lat="39.8602460" lon="-5.9392930">
        <ele>226.6</ele>
        <time>2019-07-09T11:52:58Z</time>
      </trkpt>
      <trkpt lat="39.8602300" lon="-5.9393340">
        <ele>226.8</ele>
        <time>2019-07-09T11:52:59Z</time>
      </trkpt>
      <trkpt lat="39.8601790" lon="-5.9395070">
        <ele>227.8</ele>
        <time>2019-07-09T11:53:03Z</time>
      </trkpt>
      <trkpt lat="39.8601660" lon="-5.9395500">
        <ele>228.0</ele>
        <time>2019-07-09T11:53:04Z</time>
      </trkpt>
      <trkpt lat="39.8601280" lon="-5.9397250">
        <ele>229.0</ele>
        <time>2019-07-09T11:53:08Z</time>
      </trkpt>
      <trkpt lat="39.8601100" lon="-5.9398760">
        <ele>229.8</ele>
        <time>2019-07-09T11:53:11Z</time>
      </trkpt>
      <trkpt lat="39.8600820" lon="-5.9401440">
        <ele>230.2</ele>
        <time>2019-07-09T11:53:16Z</time>
      </trkpt>
      <trkpt lat="39.8600630" lon="-5.9403070">
        <ele>230.4</ele>
        <time>2019-07-09T11:53:19Z</time>
      </trkpt>
      <trkpt lat="39.8600270" lon="-5.9407040">
        <ele>230.8</ele>
        <time>2019-07-09T11:53:26Z</time>
      </trkpt>
      <trkpt lat="39.8600060" lon="-5.9409470">
        <ele>230.8</ele>
        <time>2019-07-09T11:53:30Z</time>
      </trkpt>
      <trkpt lat="39.8599940" lon="-5.9411380">
        <ele>230.8</ele>
        <time>2019-07-09T11:53:33Z</time>
      </trkpt>
      <trkpt lat="39.8599830" lon="-5.9412700">
        <ele>230.6</ele>
        <time>2019-07-09T11:53:35Z</time>
      </trkpt>
      <trkpt lat="39.8599710" lon="-5.9414070">
        <ele>230.6</ele>
        <time>2019-07-09T11:53:37Z</time>
      </trkpt>
      <trkpt lat="39.8599570" lon="-5.9416210">
        <ele>230.6</ele>
        <time>2019-07-09T11:53:40Z</time>
      </trkpt>
      <trkpt lat="39.8599390" lon="-5.9417660">
        <ele>230.6</ele>
        <time>2019-07-09T11:53:42Z</time>
      </trkpt>
      <trkpt lat="39.8599150" lon="-5.9419840">
        <ele>230.6</ele>
        <time>2019-07-09T11:53:45Z</time>
      </trkpt>
      <trkpt lat="39.8598970" lon="-5.9421980">
        <ele>230.6</ele>
        <time>2019-07-09T11:53:48Z</time>
      </trkpt>
      <trkpt lat="39.8598680" lon="-5.9424860">
        <ele>230.6</ele>
        <time>2019-07-09T11:53:52Z</time>
      </trkpt>
      <trkpt lat="39.8598270" lon="-5.9430000">
        <ele>230.2</ele>
        <time>2019-07-09T11:53:59Z</time>
      </trkpt>
      <trkpt lat="39.8598180" lon="-5.9430740">
        <ele>230.0</ele>
        <time>2019-07-09T11:54:00Z</time>
      </trkpt>
      <trkpt lat="39.8597610" lon="-5.9436120">
        <ele>229.8</ele>
        <time>2019-07-09T11:54:07Z</time>
      </trkpt>
      <trkpt lat="39.8597440" lon="-5.9437730">
        <ele>229.6</ele>
        <time>2019-07-09T11:54:09Z</time>
      </trkpt>
      <trkpt lat="39.8596890" lon="-5.9444320">
        <ele>229.4</ele>
        <time>2019-07-09T11:54:17Z</time>
      </trkpt>
      <trkpt lat="39.8596810" lon="-5.9445140">
        <ele>229.2</ele>
        <time>2019-07-09T11:54:18Z</time>
      </trkpt>
      <trkpt lat="39.8596340" lon="-5.9449990">
        <ele>229.0</ele>
        <time>2019-07-09T11:54:24Z</time>
      </trkpt>
      <trkpt lat="39.8596080" lon="-5.9453090">
        <ele>229.4</ele>
        <time>2019-07-09T11:54:28Z</time>
      </trkpt>
      <trkpt lat="39.8595860" lon="-5.9455370">
        <ele>229.2</ele>
        <time>2019-07-09T11:54:31Z</time>
      </trkpt>
      <trkpt lat="39.8595580" lon="-5.9458390">
        <ele>229.0</ele>
        <time>2019-07-09T11:54:35Z</time>
      </trkpt>
      <trkpt lat="39.8595430" lon="-5.9459930">
        <ele>229.0</ele>
        <time>2019-07-09T11:54:37Z</time>
      </trkpt>
      <trkpt lat="39.8595070" lon="-5.9463790">
        <ele>229.0</ele>
        <time>2019-07-09T11:54:42Z</time>
      </trkpt>
      <trkpt lat="39.8594840" lon="-5.9466210">
        <ele>229.0</ele>
        <time>2019-07-09T11:54:45Z</time>
      </trkpt>
      <trkpt lat="39.8594360" lon="-5.9471290">
        <ele>228.8</ele>
        <time>2019-07-09T11:54:51Z</time>
      </trkpt>
      <trkpt lat="39.8594090" lon="-5.9473860">
        <ele>229.0</ele>
        <time>2019-07-09T11:54:54Z</time>
      </trkpt>
      <trkpt lat="39.8593480" lon="-5.9480690">
        <ele>228.6</ele>
        <time>2019-07-09T11:55:02Z</time>
      </trkpt>
      <trkpt lat="39.8592880" lon="-5.9486680">
        <ele>228.0</ele>
        <time>2019-07-09T11:55:09Z</time>
      </trkpt>
      <trkpt lat="39.8592800" lon="-5.9487530">
        <ele>227.8</ele>
        <time>2019-07-09T11:55:10Z</time>
      </trkpt>
      <trkpt lat="39.8592130" lon="-5.9494650">
        <ele>227.2</ele>
        <time>2019-07-09T11:55:18Z</time>
      </trkpt>
      <trkpt lat="39.8591920" lon="-5.9496500">
        <ele>226.8</ele>
        <time>2019-07-09T11:55:20Z</time>
      </trkpt>
      <trkpt lat="39.8591700" lon="-5.9499460">
        <ele>225.6</ele>
        <time>2019-07-09T11:55:23Z</time>
      </trkpt>
      <trkpt lat="39.8591540" lon="-5.9501560">
        <ele>225.4</ele>
        <time>2019-07-09T11:55:25Z</time>
      </trkpt>
      <trkpt lat="39.8591400" lon="-5.9503780">
        <ele>224.6</ele>
        <time>2019-07-09T11:55:27Z</time>
      </trkpt>
      <trkpt lat="39.8591380" lon="-5.9506040">
        <ele>223.8</ele>
        <time>2019-07-09T11:55:29Z</time>
      </trkpt>
      <trkpt lat="39.8591410" lon="-5.9507180">
        <ele>223.6</ele>
        <time>2019-07-09T11:55:30Z</time>
      </trkpt>
      <trkpt lat="39.8591450" lon="-5.9508340">
        <ele>223.2</ele>
        <time>2019-07-09T11:55:31Z</time>
      </trkpt>
      <trkpt lat="39.8591520" lon="-5.9510650">
        <ele>222.6</ele>
        <time>2019-07-09T11:55:33Z</time>
      </trkpt>
      <trkpt lat="39.8591610" lon="-5.9514950">
        <ele>222.0</ele>
        <time>2019-07-09T11:55:37Z</time>
      </trkpt>
      <trkpt lat="39.8591570" lon="-5.9517790">
        <ele>222.0</ele>
        <time>2019-07-09T11:55:40Z</time>
      </trkpt>
      <trkpt lat="39.8591250" lon="-5.9519510">
        <ele>222.0</ele>
        <time>2019-07-09T11:55:42Z</time>
      </trkpt>
      <trkpt lat="39.8590680" lon="-5.9521040">
        <ele>222.2</ele>
        <time>2019-07-09T11:55:44Z</time>
      </trkpt>
      <trkpt lat="39.8590320" lon="-5.9521730">
        <ele>222.4</ele>
        <time>2019-07-09T11:55:45Z</time>
      </trkpt>
      <trkpt lat="39.8589940" lon="-5.9522380">
        <ele>222.4</ele>
        <time>2019-07-09T11:55:46Z</time>
      </trkpt>
      <trkpt lat="39.8586750" lon="-5.9526990">
        <ele>222.6</ele>
        <time>2019-07-09T11:55:54Z</time>
      </trkpt>
      <trkpt lat="39.8586050" lon="-5.9528120">
        <ele>222.6</ele>
        <time>2019-07-09T11:55:56Z</time>
      </trkpt>
      <trkpt lat="39.8585090" lon="-5.9529860">
        <ele>222.8</ele>
        <time>2019-07-09T11:55:59Z</time>
      </trkpt>
      <trkpt lat="39.8584020" lon="-5.9532940">
        <ele>223.2</ele>
        <time>2019-07-09T11:56:04Z</time>
      </trkpt>
      <trkpt lat="39.8583090" lon="-5.9535960">
        <ele>223.6</ele>
        <time>2019-07-09T11:56:09Z</time>
      </trkpt>
      <trkpt lat="39.8582540" lon="-5.9537780">
        <ele>224.0</ele>
        <time>2019-07-09T11:56:12Z</time>
      </trkpt>
      <trkpt lat="39.8581820" lon="-5.9540350">
        <ele>224.2</ele>
        <time>2019-07-09T11:56:16Z</time>
      </trkpt>
      <trkpt lat="39.8581510" lon="-5.9541630">
        <ele>224.2</ele>
        <time>2019-07-09T11:56:18Z</time>
      </trkpt>
      <trkpt lat="39.8580920" lon="-5.9544790">
        <ele>224.6</ele>
        <time>2019-07-09T11:56:23Z</time>
      </trkpt>
      <trkpt lat="39.8580850" lon="-5.9545430">
        <ele>224.8</ele>
        <time>2019-07-09T11:56:24Z</time>
      </trkpt>
      <trkpt lat="39.8580810" lon="-5.9546090">
        <ele>224.8</ele>
        <time>2019-07-09T11:56:25Z</time>
      </trkpt>
      <trkpt lat="39.8580530" lon="-5.9549450">
        <ele>225.2</ele>
        <time>2019-07-09T11:56:30Z</time>
      </trkpt>
      <trkpt lat="39.8579860" lon="-5.9553650">
        <ele>225.4</ele>
        <time>2019-07-09T11:56:36Z</time>
      </trkpt>
      <trkpt lat="39.8579570" lon="-5.9555050">
        <ele>225.6</ele>
        <time>2019-07-09T11:56:38Z</time>
      </trkpt>
      <trkpt lat="39.8578970" lon="-5.9557740">
        <ele>225.6</ele>
        <time>2019-07-09T11:56:42Z</time>
      </trkpt>
      <trkpt lat="39.8578700" lon="-5.9559110">
        <ele>225.8</ele>
        <time>2019-07-09T11:56:44Z</time>
      </trkpt>
      <trkpt lat="39.8578200" lon="-5.9561880">
        <ele>226.0</ele>
        <time>2019-07-09T11:56:48Z</time>
      </trkpt>
      <trkpt lat="39.8577730" lon="-5.9565280">
        <ele>226.2</ele>
        <time>2019-07-09T11:56:53Z</time>
      </trkpt>
      <trkpt lat="39.8577340" lon="-5.9569160">
        <ele>226.2</ele>
        <time>2019-07-09T11:56:58Z</time>
      </trkpt>
      <trkpt lat="39.8576930" lon="-5.9574110">
        <ele>226.0</ele>
        <time>2019-07-09T11:57:04Z</time>
      </trkpt>
      <trkpt lat="39.8576800" lon="-5.9575690">
        <ele>225.8</ele>
        <time>2019-07-09T11:57:06Z</time>
      </trkpt>
      <trkpt lat="39.8576650" lon="-5.9577280">
        <ele>225.6</ele>
        <time>2019-07-09T11:57:08Z</time>
      </trkpt>
      <trkpt lat="39.8576520" lon="-5.9578930">
        <ele>225.6</ele>
        <time>2019-07-09T11:57:10Z</time>
      </trkpt>
      <trkpt lat="39.8576150" lon="-5.9582330">
        <ele>225.6</ele>
        <time>2019-07-09T11:57:14Z</time>
      </trkpt>
      <trkpt lat="39.8575930" lon="-5.9583170">
        <ele>225.4</ele>
        <time>2019-07-09T11:57:15Z</time>
      </trkpt>
      <trkpt lat="39.8574190" lon="-5.9588780">
        <ele>225.2</ele>
        <time>2019-07-09T11:57:22Z</time>
      </trkpt>
      <trkpt lat="39.8572510" lon="-5.9592250">
        <ele>226.0</ele>
        <time>2019-07-09T11:57:28Z</time>
      </trkpt>
      <trkpt lat="39.8570430" lon="-5.9596280">
        <ele>226.4</ele>
        <time>2019-07-09T11:57:35Z</time>
      </trkpt>
      <trkpt lat="39.8570040" lon="-5.9596860">
        <ele>226.4</ele>
        <time>2019-07-09T11:57:36Z</time>
      </trkpt>
      <trkpt lat="39.8568550" lon="-5.9598260">
        <ele>226.2</ele>
        <time>2019-07-09T11:57:39Z</time>
      </trkpt>
      <trkpt lat="39.8566700" lon="-5.9599040">
        <ele>226.0</ele>
        <time>2019-07-09T11:57:42Z</time>
      </trkpt>
      <trkpt lat="39.8565490" lon="-5.9599410">
        <ele>226.0</ele>
        <time>2019-07-09T11:57:44Z</time>
      </trkpt>
      <trkpt lat="39.8563740" lon="-5.9599910">
        <ele>226.2</ele>
        <time>2019-07-09T11:57:47Z</time>
      </trkpt>
      <trkpt lat="39.8559830" lon="-5.9601000">
        <ele>226.2</ele>
        <time>2019-07-09T11:57:54Z</time>
      </trkpt>
      <trkpt lat="39.8558210" lon="-5.9601470">
        <ele>226.2</ele>
        <time>2019-07-09T11:57:57Z</time>
      </trkpt>
      <trkpt lat="39.8554970" lon="-5.9602280">
        <ele>226.2</ele>
        <time>2019-07-09T11:58:03Z</time>
      </trkpt>
      <trkpt lat="39.8549220" lon="-5.9603570">
        <ele>226.0</ele>
        <time>2019-07-09T11:58:13Z</time>
      </trkpt>
      <trkpt lat="39.8544210" lon="-5.9604370">
        <ele>225.6</ele>
        <time>2019-07-09T11:58:21Z</time>
      </trkpt>
      <trkpt lat="39.8539630" lon="-5.9604220">
        <ele>225.0</ele>
        <time>2019-07-09T11:58:28Z</time>
      </trkpt>
      <trkpt lat="39.8535630" lon="-5.9603920">
        <ele>224.4</ele>
        <time>2019-07-09T11:58:34Z</time>
      </trkpt>
      <trkpt lat="39.8534330" lon="-5.9603850">
        <ele>224.4</ele>
        <time>2019-07-09T11:58:36Z</time>
      </trkpt>
      <trkpt lat="39.8529010" lon="-5.9603450">
        <ele>223.4</ele>
        <time>2019-07-09T11:58:44Z</time>
      </trkpt>
      <trkpt lat="39.8528360" lon="-5.9603370">
        <ele>223.4</ele>
        <time>2019-07-09T11:58:45Z</time>
      </trkpt>
      <trkpt lat="39.8527090" lon="-5.9603260">
        <ele>223.2</ele>
        <time>2019-07-09T11:58:47Z</time>
      </trkpt>
      <trkpt lat="39.8526470" lon="-5.9603140">
        <ele>223.0</ele>
        <time>2019-07-09T11:58:48Z</time>
      </trkpt>
      <trkpt lat="39.8524570" lon="-5.9602850">
        <ele>223.0</ele>
        <time>2019-07-09T11:58:51Z</time>
      </trkpt>
      <trkpt lat="39.8523300" lon="-5.9602790">
        <ele>223.0</ele>
        <time>2019-07-09T11:58:53Z</time>
      </trkpt>
      <trkpt lat="39.8520750" lon="-5.9602600">
        <ele>222.8</ele>
        <time>2019-07-09T11:58:57Z</time>
      </trkpt>
      <trkpt lat="39.8519490" lon="-5.9602430">
        <ele>222.8</ele>
        <time>2019-07-09T11:58:59Z</time>
      </trkpt>
      <trkpt lat="39.8514300" lon="-5.9601680">
        <ele>222.4</ele>
        <time>2019-07-09T11:59:07Z</time>
      </trkpt>
      <trkpt lat="39.8513640" lon="-5.9601610">
        <ele>222.2</ele>
        <time>2019-07-09T11:59:08Z</time>
      </trkpt>
      <trkpt lat="39.8508480" lon="-5.9600850">
        <ele>221.6</ele>
        <time>2019-07-09T11:59:16Z</time>
      </trkpt>
      <trkpt lat="39.8505330" lon="-5.9600370">
        <ele>221.2</ele>
        <time>2019-07-09T11:59:21Z</time>
      </trkpt>
      <trkpt lat="39.8503500" lon="-5.9600050">
        <ele>220.8</ele>
        <time>2019-07-09T11:59:24Z</time>
      </trkpt>
      <trkpt lat="39.8501690" lon="-5.9599850">
        <ele>220.6</ele>
        <time>2019-07-09T11:59:27Z</time>
      </trkpt>
      <trkpt lat="39.8500510" lon="-5.9599670">
        <ele>220.6</ele>
        <time>2019-07-09T11:59:29Z</time>
      </trkpt>
      <trkpt lat="39.8499290" lon="-5.9599490">
        <ele>220.6</ele>
        <time>2019-07-09T11:59:31Z</time>
      </trkpt>
      <trkpt lat="39.8497420" lon="-5.9599230">
        <ele>220.4</ele>
        <time>2019-07-09T11:59:34Z</time>
      </trkpt>
      <trkpt lat="39.8493840" lon="-5.9598660">
        <ele>220.4</ele>
        <time>2019-07-09T11:59:40Z</time>
      </trkpt>
      <trkpt lat="39.8489430" lon="-5.9597850">
        <ele>220.6</ele>
        <time>2019-07-09T11:59:48Z</time>
      </trkpt>
      <trkpt lat="39.8484400" lon="-5.9596640">
        <ele>220.6</ele>
        <time>2019-07-09T11:59:57Z</time>
      </trkpt>
      <trkpt lat="39.8481520" lon="-5.9595820">
        <ele>220.4</ele>
        <time>2019-07-09T12:00:02Z</time>
      </trkpt>
      <trkpt lat="39.8479850" lon="-5.9595330">
        <ele>220.6</ele>
        <time>2019-07-09T12:00:05Z</time>
      </trkpt>
      <trkpt lat="39.8477830" lon="-5.9594930">
        <ele>221.0</ele>
        <time>2019-07-09T12:00:09Z</time>
      </trkpt>
      <trkpt lat="39.8477370" lon="-5.9594920">
        <ele>221.2</ele>
        <time>2019-07-09T12:00:10Z</time>
      </trkpt>
      <trkpt lat="39.8476910" lon="-5.9594970">
        <ele>221.4</ele>
        <time>2019-07-09T12:00:11Z</time>
      </trkpt>
      <trkpt lat="39.8476460" lon="-5.9595090">
        <ele>221.6</ele>
        <time>2019-07-09T12:00:12Z</time>
      </trkpt>
      <trkpt lat="39.8475120" lon="-5.9595690">
        <ele>221.8</ele>
        <time>2019-07-09T12:00:15Z</time>
      </trkpt>
      <trkpt lat="39.8474640" lon="-5.9595930">
        <ele>221.8</ele>
        <time>2019-07-09T12:00:16Z</time>
      </trkpt>
      <trkpt lat="39.8473200" lon="-5.9596550">
        <ele>222.0</ele>
        <time>2019-07-09T12:00:19Z</time>
      </trkpt>
      <trkpt lat="39.8472220" lon="-5.9596910">
        <ele>222.4</ele>
        <time>2019-07-09T12:00:21Z</time>
      </trkpt>
      <trkpt lat="39.8470690" lon="-5.9597310">
        <ele>222.2</ele>
        <time>2019-07-09T12:00:24Z</time>
      </trkpt>
      <trkpt lat="39.8468570" lon="-5.9597630">
        <ele>221.8</ele>
        <time>2019-07-09T12:00:28Z</time>
      </trkpt>
      <trkpt lat="39.8466420" lon="-5.9598120">
        <ele>221.4</ele>
        <time>2019-07-09T12:00:32Z</time>
      </trkpt>
      <trkpt lat="39.8461560" lon="-5.9598970">
        <ele>220.6</ele>
        <time>2019-07-09T12:00:40Z</time>
      </trkpt>
      <trkpt lat="39.8459640" lon="-5.9599290">
        <ele>220.4</ele>
        <time>2019-07-09T12:00:43Z</time>
      </trkpt>
      <trkpt lat="39.8457760" lon="-5.9599790">
        <ele>219.6</ele>
        <time>2019-07-09T12:00:46Z</time>
      </trkpt>
      <trkpt lat="39.8456480" lon="-5.9600340">
        <ele>219.0</ele>
        <time>2019-07-09T12:00:48Z</time>
      </trkpt>
      <trkpt lat="39.8455170" lon="-5.9601110">
        <ele>218.4</ele>
        <time>2019-07-09T12:00:50Z</time>
      </trkpt>
      <trkpt lat="39.8452600" lon="-5.9602920">
        <ele>217.8</ele>
        <time>2019-07-09T12:00:54Z</time>
      </trkpt>
      <trkpt lat="39.8451360" lon="-5.9603700">
        <ele>217.4</ele>
        <time>2019-07-09T12:00:56Z</time>
      </trkpt>
      <trkpt lat="39.8449530" lon="-5.9604420">
        <ele>217.2</ele>
        <time>2019-07-09T12:00:59Z</time>
      </trkpt>
      <trkpt lat="39.8445560" lon="-5.9605180">
        <ele>216.6</ele>
        <time>2019-07-09T12:01:06Z</time>
      </trkpt>
      <trkpt lat="39.8444500" lon="-5.9605360">
        <ele>216.2</ele>
        <time>2019-07-09T12:01:08Z</time>
      </trkpt>
      <trkpt lat="39.8440810" lon="-5.9605910">
        <ele>216.0</ele>
        <time>2019-07-09T12:01:15Z</time>
      </trkpt>
      <trkpt lat="39.8437800" lon="-5.9606320">
        <ele>216.6</ele>
        <time>2019-07-09T12:01:21Z</time>
      </trkpt>
      <trkpt lat="39.8437350" lon="-5.9606370">
        <ele>216.6</ele>
        <time>2019-07-09T12:01:22Z</time>
      </trkpt>
      <trkpt lat="39.8436500" lon="-5.9606550">
        <ele>217.4</ele>
        <time>2019-07-09T12:01:24Z</time>
      </trkpt>
      <trkpt lat="39.8435250" lon="-5.9606740">
        <ele>217.8</ele>
        <time>2019-07-09T12:01:27Z</time>
      </trkpt>
      <trkpt lat="39.8433980" lon="-5.9606860">
        <ele>218.4</ele>
        <time>2019-07-09T12:01:30Z</time>
      </trkpt>
      <trkpt lat="39.8432670" lon="-5.9606920">
        <ele>218.8</ele>
        <time>2019-07-09T12:01:33Z</time>
      </trkpt>
      <trkpt lat="39.8431360" lon="-5.9607110">
        <ele>219.2</ele>
        <time>2019-07-09T12:01:36Z</time>
      </trkpt>
      <trkpt lat="39.8430050" lon="-5.9607300">
        <ele>219.4</ele>
        <time>2019-07-09T12:01:39Z</time>
      </trkpt>
      <trkpt lat="39.8429600" lon="-5.9607350">
        <ele>219.4</ele>
        <time>2019-07-09T12:01:40Z</time>
      </trkpt>
      <trkpt lat="39.8427800" lon="-5.9607580">
        <ele>219.6</ele>
        <time>2019-07-09T12:01:44Z</time>
      </trkpt>
      <trkpt lat="39.8425510" lon="-5.9607950">
        <ele>220.0</ele>
        <time>2019-07-09T12:01:49Z</time>
      </trkpt>
      <trkpt lat="39.8423280" lon="-5.9608230">
        <ele>220.4</ele>
        <time>2019-07-09T12:01:54Z</time>
      </trkpt>
      <trkpt lat="39.8421240" lon="-5.9608660">
        <ele>221.4</ele>
        <time>2019-07-09T12:01:59Z</time>
      </trkpt>
      <trkpt lat="39.8420510" lon="-5.9609030">
        <ele>221.8</ele>
        <time>2019-07-09T12:02:01Z</time>
      </trkpt>
      <trkpt lat="39.8419230" lon="-5.9610120">
        <ele>222.2</ele>
        <time>2019-07-09T12:02:05Z</time>
      </trkpt>
      <trkpt lat="39.8418280" lon="-5.9611510">
        <ele>223.0</ele>
        <time>2019-07-09T12:02:09Z</time>
      </trkpt>
      <trkpt lat="39.8417920" lon="-5.9612300">
        <ele>223.2</ele>
        <time>2019-07-09T12:02:11Z</time>
      </trkpt>
      <trkpt lat="39.8417530" lon="-5.9613490">
        <ele>224.0</ele>
        <time>2019-07-09T12:02:14Z</time>
      </trkpt>
      <trkpt lat="39.8417160" lon="-5.9615060">
        <ele>224.6</ele>
        <time>2019-07-09T12:02:18Z</time>
      </trkpt>
      <trkpt lat="39.8416890" lon="-5.9616220">
        <ele>225.0</ele>
        <time>2019-07-09T12:02:21Z</time>
      </trkpt>
      <trkpt lat="39.8416630" lon="-5.9617350">
        <ele>225.6</ele>
        <time>2019-07-09T12:02:24Z</time>
      </trkpt>
      <trkpt lat="39.8416540" lon="-5.9617730">
        <ele>225.6</ele>
        <time>2019-07-09T12:02:25Z</time>
      </trkpt>
      <trkpt lat="39.8416340" lon="-5.9618470">
        <ele>226.0</ele>
        <time>2019-07-09T12:02:27Z</time>
      </trkpt>
      <trkpt lat="39.8415900" lon="-5.9620350">
        <ele>227.0</ele>
        <time>2019-07-09T12:02:32Z</time>
      </trkpt>
      <trkpt lat="39.8415810" lon="-5.9620710">
        <ele>227.2</ele>
        <time>2019-07-09T12:02:33Z</time>
      </trkpt>
      <trkpt lat="39.8415390" lon="-5.9622580">
        <ele>228.2</ele>
        <time>2019-07-09T12:02:38Z</time>
      </trkpt>
      <trkpt lat="39.8415030" lon="-5.9624070">
        <ele>229.0</ele>
        <time>2019-07-09T12:02:42Z</time>
      </trkpt>
      <trkpt lat="39.8414840" lon="-5.9624800">
        <ele>229.4</ele>
        <time>2019-07-09T12:02:44Z</time>
      </trkpt>
      <trkpt lat="39.8414360" lon="-5.9626440">
        <ele>230.2</ele>
        <time>2019-07-09T12:02:49Z</time>
      </trkpt>
      <trkpt lat="39.8414290" lon="-5.9626780">
        <ele>230.4</ele>
        <time>2019-07-09T12:02:50Z</time>
      </trkpt>
      <trkpt lat="39.8413760" lon="-5.9629030">
        <ele>231.6</ele>
        <time>2019-07-09T12:02:56Z</time>
      </trkpt>
      <trkpt lat="39.8413290" lon="-5.9630760">
        <ele>232.8</ele>
        <time>2019-07-09T12:03:01Z</time>
      </trkpt>
      <trkpt lat="39.8413140" lon="-5.9631430">
        <ele>233.2</ele>
        <time>2019-07-09T12:03:03Z</time>
      </trkpt>
      <trkpt lat="39.8412860" lon="-5.9632420">
        <ele>233.6</ele>
        <time>2019-07-09T12:03:06Z</time>
      </trkpt>
      <trkpt lat="39.8412640" lon="-5.9633420">
        <ele>234.6</ele>
        <time>2019-07-09T12:03:09Z</time>
      </trkpt>
      <trkpt lat="39.8412570" lon="-5.9633760">
        <ele>234.8</ele>
        <time>2019-07-09T12:03:10Z</time>
      </trkpt>
      <trkpt lat="39.8412040" lon="-5.9635790">
        <ele>235.8</ele>
        <time>2019-07-09T12:03:16Z</time>
      </trkpt>
      <trkpt lat="39.8411590" lon="-5.9637610">
        <ele>237.0</ele>
        <time>2019-07-09T12:03:21Z</time>
      </trkpt>
      <trkpt lat="39.8411350" lon="-5.9638750">
        <ele>237.4</ele>
        <time>2019-07-09T12:03:24Z</time>
      </trkpt>
      <trkpt lat="39.8411010" lon="-5.9640270">
        <ele>238.2</ele>
        <time>2019-07-09T12:03:28Z</time>
      </trkpt>
      <trkpt lat="39.8410900" lon="-5.9641060">
        <ele>238.6</ele>
        <time>2019-07-09T12:03:30Z</time>
      </trkpt>
      <trkpt lat="39.8410830" lon="-5.9642230">
        <ele>239.2</ele>
        <time>2019-07-09T12:03:33Z</time>
      </trkpt>
      <trkpt lat="39.8410960" lon="-5.9644210">
        <ele>240.0</ele>
        <time>2019-07-09T12:03:38Z</time>
      </trkpt>
      <trkpt lat="39.8411000" lon="-5.9644610">
        <ele>240.2</ele>
        <time>2019-07-09T12:03:39Z</time>
      </trkpt>
      <trkpt lat="39.8411130" lon="-5.9646640">
        <ele>241.2</ele>
        <time>2019-07-09T12:03:44Z</time>
      </trkpt>
      <trkpt lat="39.8411290" lon="-5.9647920">
        <ele>242.0</ele>
        <time>2019-07-09T12:03:47Z</time>
      </trkpt>
      <trkpt lat="39.8411310" lon="-5.9648360">
        <ele>242.4</ele>
        <time>2019-07-09T12:03:48Z</time>
      </trkpt>
      <trkpt lat="39.8411490" lon="-5.9651050">
        <ele>243.4</ele>
        <time>2019-07-09T12:03:54Z</time>
      </trkpt>
      <trkpt lat="39.8411820" lon="-5.9654320">
        <ele>244.4</ele>
        <time>2019-07-09T12:04:01Z</time>
      </trkpt>
      <trkpt lat="39.8411910" lon="-5.9654800">
        <ele>244.6</ele>
        <time>2019-07-09T12:04:02Z</time>
      </trkpt>
      <trkpt lat="39.8411990" lon="-5.9656300">
        <ele>245.0</ele>
        <time>2019-07-09T12:04:05Z</time>
      </trkpt>
      <trkpt lat="39.8411960" lon="-5.9656820">
        <ele>245.2</ele>
        <time>2019-07-09T12:04:06Z</time>
      </trkpt>
      <trkpt lat="39.8411650" lon="-5.9658450">
        <ele>245.4</ele>
        <time>2019-07-09T12:04:09Z</time>
      </trkpt>
      <trkpt lat="39.8411250" lon="-5.9659520">
        <ele>245.6</ele>
        <time>2019-07-09T12:04:11Z</time>
      </trkpt>
      <trkpt lat="39.8411000" lon="-5.9660040">
        <ele>245.6</ele>
        <time>2019-07-09T12:04:12Z</time>
      </trkpt>
      <trkpt lat="39.8409470" lon="-5.9662470">
        <ele>246.2</ele>
        <time>2019-07-09T12:04:17Z</time>
      </trkpt>
      <trkpt lat="39.8409100" lon="-5.9662920">
        <ele>246.2</ele>
        <time>2019-07-09T12:04:18Z</time>
      </trkpt>
      <trkpt lat="39.8407240" lon="-5.9665360">
        <ele>246.4</ele>
        <time>2019-07-09T12:04:23Z</time>
      </trkpt>
      <trkpt lat="39.8405740" lon="-5.9667310">
        <ele>246.4</ele>
        <time>2019-07-09T12:04:27Z</time>
      </trkpt>
      <trkpt lat="39.8404590" lon="-5.9668820">
        <ele>246.8</ele>
        <time>2019-07-09T12:04:30Z</time>
      </trkpt>
      <trkpt lat="39.8403050" lon="-5.9670930">
        <ele>246.8</ele>
        <time>2019-07-09T12:04:34Z</time>
      </trkpt>
      <trkpt lat="39.8402250" lon="-5.9671970">
        <ele>246.6</ele>
        <time>2019-07-09T12:04:36Z</time>
      </trkpt>
      <trkpt lat="39.8400720" lon="-5.9673440">
        <ele>246.2</ele>
        <time>2019-07-09T12:04:39Z</time>
      </trkpt>
      <trkpt lat="39.8399430" lon="-5.9674290">
        <ele>245.8</ele>
        <time>2019-07-09T12:04:41Z</time>
      </trkpt>
      <trkpt lat="39.8398740" lon="-5.9674680">
        <ele>245.6</ele>
        <time>2019-07-09T12:04:42Z</time>
      </trkpt>
      <trkpt lat="39.8394660" lon="-5.9677080">
        <ele>244.8</ele>
        <time>2019-07-09T12:04:48Z</time>
      </trkpt>
      <trkpt lat="39.8391230" lon="-5.9679510">
        <ele>245.0</ele>
        <time>2019-07-09T12:04:54Z</time>
      </trkpt>
      <trkpt lat="39.8388190" lon="-5.9681740">
        <ele>246.6</ele>
        <time>2019-07-09T12:05:01Z</time>
      </trkpt>
      <trkpt lat="39.8387810" lon="-5.9682030">
        <ele>246.8</ele>
        <time>2019-07-09T12:05:02Z</time>
      </trkpt>
      <trkpt lat="39.8385700" lon="-5.9683510">
        <ele>247.6</ele>
        <time>2019-07-09T12:05:08Z</time>
      </trkpt>
      <trkpt lat="39.8385350" lon="-5.9683710">
        <ele>248.0</ele>
        <time>2019-07-09T12:05:09Z</time>
      </trkpt>
      <trkpt lat="39.8384730" lon="-5.9684250">
        <ele>248.4</ele>
        <time>2019-07-09T12:05:11Z</time>
      </trkpt>
      <trkpt lat="39.8384190" lon="-5.9684890">
        <ele>249.0</ele>
        <time>2019-07-09T12:05:13Z</time>
      </trkpt>
      <trkpt lat="39.8383150" lon="-5.9686260">
        <ele>250.0</ele>
        <time>2019-07-09T12:05:17Z</time>
      </trkpt>
      <trkpt lat="39.8382260" lon="-5.9687720">
        <ele>250.8</ele>
        <time>2019-07-09T12:05:21Z</time>
      </trkpt>
      <trkpt lat="39.8382060" lon="-5.9688110">
        <ele>251.0</ele>
        <time>2019-07-09T12:05:22Z</time>
      </trkpt>
      <trkpt lat="39.8381680" lon="-5.9688940">
        <ele>251.4</ele>
        <time>2019-07-09T12:05:24Z</time>
      </trkpt>
      <trkpt lat="39.8381140" lon="-5.9690190">
        <ele>252.2</ele>
        <time>2019-07-09T12:05:27Z</time>
      </trkpt>
      <trkpt lat="39.8380930" lon="-5.9690580">
        <ele>252.4</ele>
        <time>2019-07-09T12:05:28Z</time>
      </trkpt>
      <trkpt lat="39.8380520" lon="-5.9691340">
        <ele>252.8</ele>
        <time>2019-07-09T12:05:30Z</time>
      </trkpt>
      <trkpt lat="39.8380160" lon="-5.9692110">
        <ele>253.2</ele>
        <time>2019-07-09T12:05:32Z</time>
      </trkpt>
      <trkpt lat="39.8379510" lon="-5.9693580">
        <ele>254.0</ele>
        <time>2019-07-09T12:05:36Z</time>
      </trkpt>
      <trkpt lat="39.8379320" lon="-5.9693910">
        <ele>254.4</ele>
        <time>2019-07-09T12:05:37Z</time>
      </trkpt>
      <trkpt lat="39.8378600" lon="-5.9695230">
        <ele>255.4</ele>
        <time>2019-07-09T12:05:41Z</time>
      </trkpt>
      <trkpt lat="39.8377730" lon="-5.9696930">
        <ele>256.4</ele>
        <time>2019-07-09T12:05:46Z</time>
      </trkpt>
      <trkpt lat="39.8377550" lon="-5.9697260">
        <ele>256.4</ele>
        <time>2019-07-09T12:05:47Z</time>
      </trkpt>
      <trkpt lat="39.8376180" lon="-5.9699450">
        <ele>257.6</ele>
        <time>2019-07-09T12:05:54Z</time>
      </trkpt>
      <trkpt lat="39.8376000" lon="-5.9699780">
        <ele>257.8</ele>
        <time>2019-07-09T12:05:55Z</time>
      </trkpt>
      <trkpt lat="39.8375140" lon="-5.9701050">
        <ele>258.8</ele>
        <time>2019-07-09T12:05:59Z</time>
      </trkpt>
      <trkpt lat="39.8374210" lon="-5.9702280">
        <ele>259.2</ele>
        <time>2019-07-09T12:06:03Z</time>
      </trkpt>
      <trkpt lat="39.8373540" lon="-5.9703220">
        <ele>259.8</ele>
        <time>2019-07-09T12:06:06Z</time>
      </trkpt>
      <trkpt lat="39.8372620" lon="-5.9704430">
        <ele>260.8</ele>
        <time>2019-07-09T12:06:10Z</time>
      </trkpt>
      <trkpt lat="39.8372410" lon="-5.9704730">
        <ele>261.2</ele>
        <time>2019-07-09T12:06:11Z</time>
      </trkpt>
      <trkpt lat="39.8371500" lon="-5.9705920">
        <ele>262.0</ele>
        <time>2019-07-09T12:06:15Z</time>
      </trkpt>
      <trkpt lat="39.8370640" lon="-5.9707140">
        <ele>262.6</ele>
        <time>2019-07-09T12:06:19Z</time>
      </trkpt>
      <trkpt lat="39.8370130" lon="-5.9707630">
        <ele>263.2</ele>
        <time>2019-07-09T12:06:21Z</time>
      </trkpt>
      <trkpt lat="39.8369270" lon="-5.9708870">
        <ele>264.0</ele>
        <time>2019-07-09T12:06:25Z</time>
      </trkpt>
      <trkpt lat="39.8369070" lon="-5.9709180">
        <ele>264.2</ele>
        <time>2019-07-09T12:06:26Z</time>
      </trkpt>
      <trkpt lat="39.8367990" lon="-5.9710670">
        <ele>265.2</ele>
        <time>2019-07-09T12:06:31Z</time>
      </trkpt>
      <trkpt lat="39.8367790" lon="-5.9710970">
        <ele>265.6</ele>
        <time>2019-07-09T12:06:32Z</time>
      </trkpt>
      <trkpt lat="39.8366660" lon="-5.9712440">
        <ele>266.4</ele>
        <time>2019-07-09T12:06:37Z</time>
      </trkpt>
      <trkpt lat="39.8366230" lon="-5.9712980">
        <ele>267.0</ele>
        <time>2019-07-09T12:06:39Z</time>
      </trkpt>
      <trkpt lat="39.8365400" lon="-5.9714150">
        <ele>267.4</ele>
        <time>2019-07-09T12:06:43Z</time>
      </trkpt>
      <trkpt lat="39.8364880" lon="-5.9714630">
        <ele>268.2</ele>
        <time>2019-07-09T12:06:45Z</time>
      </trkpt>
      <trkpt lat="39.8364470" lon="-5.9715220">
        <ele>268.6</ele>
        <time>2019-07-09T12:06:47Z</time>
      </trkpt>
      <trkpt lat="39.8363670" lon="-5.9716400">
        <ele>269.4</ele>
        <time>2019-07-09T12:06:51Z</time>
      </trkpt>
      <trkpt lat="39.8363230" lon="-5.9716940">
        <ele>270.2</ele>
        <time>2019-07-09T12:06:53Z</time>
      </trkpt>
      <trkpt lat="39.8362410" lon="-5.9718110">
        <ele>271.2</ele>
        <time>2019-07-09T12:06:57Z</time>
      </trkpt>
      <trkpt lat="39.8362050" lon="-5.9718730">
        <ele>271.6</ele>
        <time>2019-07-09T12:06:59Z</time>
      </trkpt>
      <trkpt lat="39.8361260" lon="-5.9719920">
        <ele>272.4</ele>
        <time>2019-07-09T12:07:03Z</time>
      </trkpt>
      <trkpt lat="39.8360320" lon="-5.9721420">
        <ele>273.6</ele>
        <time>2019-07-09T12:07:08Z</time>
      </trkpt>
      <trkpt lat="39.8359550" lon="-5.9723050">
        <ele>274.8</ele>
        <time>2019-07-09T12:07:13Z</time>
      </trkpt>
      <trkpt lat="39.8359100" lon="-5.9724040">
        <ele>275.4</ele>
        <time>2019-07-09T12:07:16Z</time>
      </trkpt>
      <trkpt lat="39.8358950" lon="-5.9724380">
        <ele>276.0</ele>
        <time>2019-07-09T12:07:17Z</time>
      </trkpt>
      <trkpt lat="39.8358210" lon="-5.9726180">
        <ele>277.0</ele>
        <time>2019-07-09T12:07:22Z</time>
      </trkpt>
      <trkpt lat="39.8357880" lon="-5.9726930">
        <ele>277.4</ele>
        <time>2019-07-09T12:07:24Z</time>
      </trkpt>
      <trkpt lat="39.8357440" lon="-5.9728100">
        <ele>278.2</ele>
        <time>2019-07-09T12:07:27Z</time>
      </trkpt>
      <trkpt lat="39.8356680" lon="-5.9729950">
        <ele>279.2</ele>
        <time>2019-07-09T12:07:32Z</time>
      </trkpt>
      <trkpt lat="39.8356530" lon="-5.9730330">
        <ele>279.6</ele>
        <time>2019-07-09T12:07:33Z</time>
      </trkpt>
      <trkpt lat="39.8356120" lon="-5.9731510">
        <ele>280.4</ele>
        <time>2019-07-09T12:07:36Z</time>
      </trkpt>
      <trkpt lat="39.8355350" lon="-5.9733390">
        <ele>281.6</ele>
        <time>2019-07-09T12:07:41Z</time>
      </trkpt>
      <trkpt lat="39.8355210" lon="-5.9733760">
        <ele>281.6</ele>
        <time>2019-07-09T12:07:42Z</time>
      </trkpt>
      <trkpt lat="39.8354530" lon="-5.9735590">
        <ele>282.8</ele>
        <time>2019-07-09T12:07:47Z</time>
      </trkpt>
      <trkpt lat="39.8354280" lon="-5.9736340">
        <ele>283.2</ele>
        <time>2019-07-09T12:07:49Z</time>
      </trkpt>
      <trkpt lat="39.8354000" lon="-5.9737090">
        <ele>283.8</ele>
        <time>2019-07-09T12:07:51Z</time>
      </trkpt>
      <trkpt lat="39.8353360" lon="-5.9738540">
        <ele>284.8</ele>
        <time>2019-07-09T12:07:55Z</time>
      </trkpt>
      <trkpt lat="39.8352970" lon="-5.9739670">
        <ele>285.6</ele>
        <time>2019-07-09T12:07:58Z</time>
      </trkpt>
      <trkpt lat="39.8352820" lon="-5.9740040">
        <ele>285.8</ele>
        <time>2019-07-09T12:07:59Z</time>
      </trkpt>
      <trkpt lat="39.8352040" lon="-5.9741860">
        <ele>287.0</ele>
        <time>2019-07-09T12:08:04Z</time>
      </trkpt>
      <trkpt lat="39.8351280" lon="-5.9743670">
        <ele>288.2</ele>
        <time>2019-07-09T12:08:09Z</time>
      </trkpt>
      <trkpt lat="39.8350670" lon="-5.9745100">
        <ele>289.2</ele>
        <time>2019-07-09T12:08:13Z</time>
      </trkpt>
      <trkpt lat="39.8349970" lon="-5.9746480">
        <ele>290.0</ele>
        <time>2019-07-09T12:08:17Z</time>
      </trkpt>
      <trkpt lat="39.8349840" lon="-5.9746850">
        <ele>290.4</ele>
        <time>2019-07-09T12:08:18Z</time>
      </trkpt>
      <trkpt lat="39.8349360" lon="-5.9748370">
        <ele>291.4</ele>
        <time>2019-07-09T12:08:22Z</time>
      </trkpt>
      <trkpt lat="39.8348870" lon="-5.9749550">
        <ele>291.8</ele>
        <time>2019-07-09T12:08:25Z</time>
      </trkpt>
      <trkpt lat="39.8348540" lon="-5.9750380">
        <ele>292.4</ele>
        <time>2019-07-09T12:08:27Z</time>
      </trkpt>
      <trkpt lat="39.8347850" lon="-5.9752100">
        <ele>293.6</ele>
        <time>2019-07-09T12:08:31Z</time>
      </trkpt>
      <trkpt lat="39.8347280" lon="-5.9753430">
        <ele>294.2</ele>
        <time>2019-07-09T12:08:34Z</time>
      </trkpt>
      <trkpt lat="39.8346880" lon="-5.9754350">
        <ele>294.6</ele>
        <time>2019-07-09T12:08:36Z</time>
      </trkpt>
      <trkpt lat="39.8345520" lon="-5.9757980">
        <ele>295.2</ele>
        <time>2019-07-09T12:08:43Z</time>
      </trkpt>
      <trkpt lat="39.8344510" lon="-5.9761080">
        <ele>295.4</ele>
        <time>2019-07-09T12:08:48Z</time>
      </trkpt>
      <trkpt lat="39.8344130" lon="-5.9762490">
        <ele>295.2</ele>
        <time>2019-07-09T12:08:50Z</time>
      </trkpt>
      <trkpt lat="39.8343480" lon="-5.9764750">
        <ele>294.6</ele>
        <time>2019-07-09T12:08:53Z</time>
      </trkpt>
      <trkpt lat="39.8343020" lon="-5.9766360">
        <ele>294.0</ele>
        <time>2019-07-09T12:08:55Z</time>
      </trkpt>
      <trkpt lat="39.8342820" lon="-5.9767190">
        <ele>293.8</ele>
        <time>2019-07-09T12:08:56Z</time>
      </trkpt>
      <trkpt lat="39.8342660" lon="-5.9768100">
        <ele>293.6</ele>
        <time>2019-07-09T12:08:57Z</time>
      </trkpt>
      <trkpt lat="39.8342430" lon="-5.9770060">
        <ele>293.0</ele>
        <time>2019-07-09T12:08:59Z</time>
      </trkpt>
      <trkpt lat="39.8342350" lon="-5.9772160">
        <ele>292.2</ele>
        <time>2019-07-09T12:09:01Z</time>
      </trkpt>
      <trkpt lat="39.8342380" lon="-5.9773250">
        <ele>291.8</ele>
        <time>2019-07-09T12:09:02Z</time>
      </trkpt>
      <trkpt lat="39.8342830" lon="-5.9776530">
        <ele>291.0</ele>
        <time>2019-07-09T12:09:05Z</time>
      </trkpt>
      <trkpt lat="39.8343360" lon="-5.9778740">
        <ele>290.6</ele>
        <time>2019-07-09T12:09:07Z</time>
      </trkpt>
      <trkpt lat="39.8343650" lon="-5.9779860">
        <ele>290.2</ele>
        <time>2019-07-09T12:09:08Z</time>
      </trkpt>
      <trkpt lat="39.8343960" lon="-5.9780990">
        <ele>289.8</ele>
        <time>2019-07-09T12:09:09Z</time>
      </trkpt>
      <trkpt lat="39.8344260" lon="-5.9782140">
        <ele>289.6</ele>
        <time>2019-07-09T12:09:10Z</time>
      </trkpt>
      <trkpt lat="39.8344880" lon="-5.9784500">
        <ele>288.6</ele>
        <time>2019-07-09T12:09:12Z</time>
      </trkpt>
      <trkpt lat="39.8345620" lon="-5.9786800">
        <ele>288.0</ele>
        <time>2019-07-09T12:09:14Z</time>
      </trkpt>
      <trkpt lat="39.8346570" lon="-5.9788980">
        <ele>287.8</ele>
        <time>2019-07-09T12:09:16Z</time>
      </trkpt>
      <trkpt lat="39.8347110" lon="-5.9790040">
        <ele>287.2</ele>
        <time>2019-07-09T12:09:17Z</time>
      </trkpt>
      <trkpt lat="39.8347690" lon="-5.9791060">
        <ele>286.8</ele>
        <time>2019-07-09T12:09:18Z</time>
      </trkpt>
      <trkpt lat="39.8348810" lon="-5.9793060">
        <ele>286.2</ele>
        <time>2019-07-09T12:09:20Z</time>
      </trkpt>
      <trkpt lat="39.8350980" lon="-5.9796870">
        <ele>285.4</ele>
        <time>2019-07-09T12:09:24Z</time>
      </trkpt>
      <trkpt lat="39.8352000" lon="-5.9798680">
        <ele>285.4</ele>
        <time>2019-07-09T12:09:26Z</time>
      </trkpt>
      <trkpt lat="39.8353700" lon="-5.9801820">
        <ele>285.4</ele>
        <time>2019-07-09T12:09:30Z</time>
      </trkpt>
      <trkpt lat="39.8354090" lon="-5.9802470">
        <ele>285.4</ele>
        <time>2019-07-09T12:09:31Z</time>
      </trkpt>
      <trkpt lat="39.8354810" lon="-5.9803730">
        <ele>285.2</ele>
        <time>2019-07-09T12:09:33Z</time>
      </trkpt>
      <trkpt lat="39.8355510" lon="-5.9804950">
        <ele>285.2</ele>
        <time>2019-07-09T12:09:35Z</time>
      </trkpt>
      <trkpt lat="39.8356200" lon="-5.9806080">
        <ele>285.0</ele>
        <time>2019-07-09T12:09:37Z</time>
      </trkpt>
      <trkpt lat="39.8356540" lon="-5.9806620">
        <ele>284.8</ele>
        <time>2019-07-09T12:09:38Z</time>
      </trkpt>
      <trkpt lat="39.8358180" lon="-5.9809580">
        <ele>284.4</ele>
        <time>2019-07-09T12:09:43Z</time>
      </trkpt>
      <trkpt lat="39.8358580" lon="-5.9810210">
        <ele>284.4</ele>
        <time>2019-07-09T12:09:44Z</time>
      </trkpt>
      <trkpt lat="39.8358990" lon="-5.9810860">
        <ele>284.0</ele>
        <time>2019-07-09T12:09:45Z</time>
      </trkpt>
      <trkpt lat="39.8361020" lon="-5.9814450">
        <ele>283.2</ele>
        <time>2019-07-09T12:09:50Z</time>
      </trkpt>
      <trkpt lat="39.8361440" lon="-5.9815190">
        <ele>283.0</ele>
        <time>2019-07-09T12:09:51Z</time>
      </trkpt>
      <trkpt lat="39.8362520" lon="-5.9817640">
        <ele>282.2</ele>
        <time>2019-07-09T12:09:54Z</time>
      </trkpt>
      <trkpt lat="39.8362730" lon="-5.9818570">
        <ele>282.0</ele>
        <time>2019-07-09T12:09:55Z</time>
      </trkpt>
      <trkpt lat="39.8362820" lon="-5.9819570">
        <ele>281.8</ele>
        <time>2019-07-09T12:09:56Z</time>
      </trkpt>
      <trkpt lat="39.8362660" lon="-5.9821730">
        <ele>281.2</ele>
        <time>2019-07-09T12:09:58Z</time>
      </trkpt>
      <trkpt lat="39.8362480" lon="-5.9822890">
        <ele>280.4</ele>
        <time>2019-07-09T12:09:59Z</time>
      </trkpt>
      <trkpt lat="39.8362050" lon="-5.9825300">
        <ele>279.2</ele>
        <time>2019-07-09T12:10:01Z</time>
      </trkpt>
      <trkpt lat="39.8361550" lon="-5.9827790">
        <ele>277.8</ele>
        <time>2019-07-09T12:10:03Z</time>
      </trkpt>
      <trkpt lat="39.8360990" lon="-5.9830410">
        <ele>276.6</ele>
        <time>2019-07-09T12:10:05Z</time>
      </trkpt>
      <trkpt lat="39.8360750" lon="-5.9831790">
        <ele>275.8</ele>
        <time>2019-07-09T12:10:06Z</time>
      </trkpt>
      <trkpt lat="39.8360620" lon="-5.9833220">
        <ele>275.0</ele>
        <time>2019-07-09T12:10:07Z</time>
      </trkpt>
      <trkpt lat="39.8360610" lon="-5.9834680">
        <ele>274.4</ele>
        <time>2019-07-09T12:10:08Z</time>
      </trkpt>
      <trkpt lat="39.8360680" lon="-5.9836150">
        <ele>274.0</ele>
        <time>2019-07-09T12:10:09Z</time>
      </trkpt>
      <trkpt lat="39.8360870" lon="-5.9839070">
        <ele>273.0</ele>
        <time>2019-07-09T12:10:11Z</time>
      </trkpt>
      <trkpt lat="39.8361150" lon="-5.9842010">
        <ele>271.6</ele>
        <time>2019-07-09T12:10:13Z</time>
      </trkpt>
      <trkpt lat="39.8361330" lon="-5.9843480">
        <ele>270.4</ele>
        <time>2019-07-09T12:10:14Z</time>
      </trkpt>
      <trkpt lat="39.8361670" lon="-5.9846440">
        <ele>269.0</ele>
        <time>2019-07-09T12:10:16Z</time>
      </trkpt>
      <trkpt lat="39.8361850" lon="-5.9849470">
        <ele>267.4</ele>
        <time>2019-07-09T12:10:18Z</time>
      </trkpt>
      <trkpt lat="39.8361800" lon="-5.9852550">
        <ele>265.8</ele>
        <time>2019-07-09T12:10:20Z</time>
      </trkpt>
      <trkpt lat="39.8361560" lon="-5.9855690">
        <ele>263.8</ele>
        <time>2019-07-09T12:10:22Z</time>
      </trkpt>
      <trkpt lat="39.8361410" lon="-5.9858910">
        <ele>262.2</ele>
        <time>2019-07-09T12:10:24Z</time>
      </trkpt>
      <trkpt lat="39.8361400" lon="-5.9860570">
        <ele>261.2</ele>
        <time>2019-07-09T12:10:25Z</time>
      </trkpt>
      <trkpt lat="39.8361470" lon="-5.9862230">
        <ele>260.2</ele>
        <time>2019-07-09T12:10:26Z</time>
      </trkpt>
      <trkpt lat="39.8361920" lon="-5.9865500">
        <ele>258.6</ele>
        <time>2019-07-09T12:10:28Z</time>
      </trkpt>
      <trkpt lat="39.8362580" lon="-5.9868750">
        <ele>256.6</ele>
        <time>2019-07-09T12:10:30Z</time>
      </trkpt>
      <trkpt lat="39.8363310" lon="-5.9871910">
        <ele>255.4</ele>
        <time>2019-07-09T12:10:32Z</time>
      </trkpt>
      <trkpt lat="39.8363740" lon="-5.9873450">
        <ele>254.4</ele>
        <time>2019-07-09T12:10:33Z</time>
      </trkpt>
      <trkpt lat="39.8364320" lon="-5.9874940">
        <ele>253.4</ele>
        <time>2019-07-09T12:10:34Z</time>
      </trkpt>
      <trkpt lat="39.8365820" lon="-5.9877670">
        <ele>251.6</ele>
        <time>2019-07-09T12:10:36Z</time>
      </trkpt>
      <trkpt lat="39.8366610" lon="-5.9878910">
        <ele>250.6</ele>
        <time>2019-07-09T12:10:37Z</time>
      </trkpt>
      <trkpt lat="39.8367340" lon="-5.9880130">
        <ele>249.6</ele>
        <time>2019-07-09T12:10:38Z</time>
      </trkpt>
      <trkpt lat="39.8368040" lon="-5.9881330">
        <ele>248.6</ele>
        <time>2019-07-09T12:10:39Z</time>
      </trkpt>
      <trkpt lat="39.8368630" lon="-5.9882600">
        <ele>248.0</ele>
        <time>2019-07-09T12:10:40Z</time>
      </trkpt>
      <trkpt lat="39.8369070" lon="-5.9883880">
        <ele>247.4</ele>
        <time>2019-07-09T12:10:41Z</time>
      </trkpt>
      <trkpt lat="39.8369490" lon="-5.9886490">
        <ele>245.8</ele>
        <time>2019-07-09T12:10:43Z</time>
      </trkpt>
      <trkpt lat="39.8369450" lon="-5.9888880">
        <ele>244.6</ele>
        <time>2019-07-09T12:10:45Z</time>
      </trkpt>
      <trkpt lat="39.8369410" lon="-5.9889880">
        <ele>243.8</ele>
        <time>2019-07-09T12:10:46Z</time>
      </trkpt>
      <trkpt lat="39.8369350" lon="-5.9890730">
        <ele>243.2</ele>
        <time>2019-07-09T12:10:47Z</time>
      </trkpt>
      <trkpt lat="39.8369340" lon="-5.9891440">
        <ele>242.6</ele>
        <time>2019-07-09T12:10:48Z</time>
      </trkpt>
      <trkpt lat="39.8369420" lon="-5.9892010">
        <ele>242.2</ele>
        <time>2019-07-09T12:10:49Z</time>
      </trkpt>
      <trkpt lat="39.8369620" lon="-5.9892390">
        <ele>241.8</ele>
        <time>2019-07-09T12:10:50Z</time>
      </trkpt>
      <trkpt lat="39.8370250" lon="-5.9892470">
        <ele>240.8</ele>
        <time>2019-07-09T12:10:52Z</time>
      </trkpt>
      <trkpt lat="39.8370860" lon="-5.9891310">
        <ele>239.8</ele>
        <time>2019-07-09T12:10:55Z</time>
      </trkpt>
      <trkpt lat="39.8370950" lon="-5.9890810">
        <ele>239.8</ele>
        <time>2019-07-09T12:10:56Z</time>
      </trkpt>
      <trkpt lat="39.8371060" lon="-5.9890300">
        <ele>239.6</ele>
        <time>2019-07-09T12:10:57Z</time>
      </trkpt>
      <trkpt lat="39.8371380" lon="-5.9889160">
        <ele>239.4</ele>
        <time>2019-07-09T12:10:59Z</time>
      </trkpt>
      <trkpt lat="39.8371620" lon="-5.9888560">
        <ele>239.4</ele>
        <time>2019-07-09T12:11:00Z</time>
      </trkpt>
      <trkpt lat="39.8372350" lon="-5.9887350">
        <ele>239.0</ele>
        <time>2019-07-09T12:11:02Z</time>
      </trkpt>
      <trkpt lat="39.8373440" lon="-5.9886230">
        <ele>238.4</ele>
        <time>2019-07-09T12:11:04Z</time>
      </trkpt>
      <trkpt lat="39.8374910" lon="-5.9885480">
        <ele>237.4</ele>
        <time>2019-07-09T12:11:06Z</time>
      </trkpt>
      <trkpt lat="39.8375820" lon="-5.9885500">
        <ele>236.6</ele>
        <time>2019-07-09T12:11:07Z</time>
      </trkpt>
      <trkpt lat="39.8376700" lon="-5.9885790">
        <ele>235.8</ele>
        <time>2019-07-09T12:11:08Z</time>
      </trkpt>
      <trkpt lat="39.8378180" lon="-5.9886830">
        <ele>234.4</ele>
        <time>2019-07-09T12:11:10Z</time>
      </trkpt>
      <trkpt lat="39.8377950" lon="-5.9889340">
        <ele>233.4</ele>
        <time>2019-07-09T12:11:12Z</time>
      </trkpt>
      <trkpt lat="39.8376890" lon="-5.9891690">
        <ele>231.8</ele>
        <time>2019-07-09T12:11:14Z</time>
      </trkpt>
      <trkpt lat="39.8376210" lon="-5.9892820">
        <ele>231.0</ele>
        <time>2019-07-09T12:11:15Z</time>
      </trkpt>
      <trkpt lat="39.8375500" lon="-5.9893960">
        <ele>229.8</ele>
        <time>2019-07-09T12:11:16Z</time>
      </trkpt>
      <trkpt lat="39.8374020" lon="-5.9896000">
        <ele>227.8</ele>
        <time>2019-07-09T12:11:18Z</time>
      </trkpt>
      <trkpt lat="39.8373240" lon="-5.9896800">
        <ele>227.2</ele>
        <time>2019-07-09T12:11:19Z</time>
      </trkpt>
      <trkpt lat="39.8372390" lon="-5.9897560">
        <ele>226.6</ele>
        <time>2019-07-09T12:11:20Z</time>
      </trkpt>
      <trkpt lat="39.8370750" lon="-5.9898830">
        <ele>225.2</ele>
        <time>2019-07-09T12:11:22Z</time>
      </trkpt>
      <trkpt lat="39.8370010" lon="-5.9899370">
        <ele>224.2</ele>
        <time>2019-07-09T12:11:23Z</time>
      </trkpt>
      <trkpt lat="39.8369330" lon="-5.9899830">
        <ele>223.4</ele>
        <time>2019-07-09T12:11:24Z</time>
      </trkpt>
      <trkpt lat="39.8368100" lon="-5.9900680">
        <ele>221.6</ele>
        <time>2019-07-09T12:11:26Z</time>
      </trkpt>
      <trkpt lat="39.8367610" lon="-5.9900980">
        <ele>220.8</ele>
        <time>2019-07-09T12:11:27Z</time>
      </trkpt>
      <trkpt lat="39.8367190" lon="-5.9901220">
        <ele>220.4</ele>
        <time>2019-07-09T12:11:28Z</time>
      </trkpt>
      <trkpt lat="39.8366480" lon="-5.9901550">
        <ele>219.2</ele>
        <time>2019-07-09T12:11:30Z</time>
      </trkpt>
      <trkpt lat="39.8366110" lon="-5.9901730">
        <ele>218.8</ele>
        <time>2019-07-09T12:11:31Z</time>
      </trkpt>
      <trkpt lat="39.8365380" lon="-5.9902160">
        <ele>218.2</ele>
        <time>2019-07-09T12:11:33Z</time>
      </trkpt>
      <trkpt lat="39.8364670" lon="-5.9902670">
        <ele>217.8</ele>
        <time>2019-07-09T12:11:35Z</time>
      </trkpt>
      <trkpt lat="39.8363930" lon="-5.9903230">
        <ele>217.6</ele>
        <time>2019-07-09T12:11:37Z</time>
      </trkpt>
      <trkpt lat="39.8363620" lon="-5.9903580">
        <ele>217.6</ele>
        <time>2019-07-09T12:11:38Z</time>
      </trkpt>
      <trkpt lat="39.8363000" lon="-5.9905700">
        <ele>217.8</ele>
        <time>2019-07-09T12:11:42Z</time>
      </trkpt>
      <trkpt lat="39.8363460" lon="-5.9908090">
        <ele>217.6</ele>
        <time>2019-07-09T12:11:46Z</time>
      </trkpt>
      <trkpt lat="39.8364970" lon="-5.9909570">
        <ele>217.6</ele>
        <time>2019-07-09T12:11:50Z</time>
      </trkpt>
      <trkpt lat="39.8365930" lon="-5.9909920">
        <ele>217.6</ele>
        <time>2019-07-09T12:11:52Z</time>
      </trkpt>
      <trkpt lat="39.8367360" lon="-5.9910580">
        <ele>217.6</ele>
        <time>2019-07-09T12:11:55Z</time>
      </trkpt>
      <trkpt lat="39.8368290" lon="-5.9911090">
        <ele>217.6</ele>
        <time>2019-07-09T12:11:57Z</time>
      </trkpt>
      <trkpt lat="39.8371090" lon="-5.9912830">
        <ele>217.6</ele>
        <time>2019-07-09T12:12:03Z</time>
      </trkpt>
      <trkpt lat="39.8371530" lon="-5.9913180">
        <ele>217.6</ele>
        <time>2019-07-09T12:12:04Z</time>
      </trkpt>
      <trkpt lat="39.8373200" lon="-5.9914730">
        <ele>217.8</ele>
        <time>2019-07-09T12:12:08Z</time>
      </trkpt>
      <trkpt lat="39.8374860" lon="-5.9916450">
        <ele>218.0</ele>
        <time>2019-07-09T12:12:12Z</time>
      </trkpt>
      <trkpt lat="39.8377770" lon="-5.9920660">
        <ele>217.8</ele>
        <time>2019-07-09T12:12:20Z</time>
      </trkpt>
      <trkpt lat="39.8379500" lon="-5.9924430">
        <ele>218.0</ele>
        <time>2019-07-09T12:12:26Z</time>
      </trkpt>
      <trkpt lat="39.8379920" lon="-5.9925830">
        <ele>218.0</ele>
        <time>2019-07-09T12:12:28Z</time>
      </trkpt>
      <trkpt lat="39.8380070" lon="-5.9926560">
        <ele>218.0</ele>
        <time>2019-07-09T12:12:29Z</time>
      </trkpt>
      <trkpt lat="39.8380570" lon="-5.9930080">
        <ele>218.0</ele>
        <time>2019-07-09T12:12:34Z</time>
      </trkpt>
      <trkpt lat="39.8381330" lon="-5.9933740">
        <ele>219.0</ele>
        <time>2019-07-09T12:12:40Z</time>
      </trkpt>
      <trkpt lat="39.8381440" lon="-5.9934330">
        <ele>219.2</ele>
        <time>2019-07-09T12:12:41Z</time>
      </trkpt>
      <trkpt lat="39.8382090" lon="-5.9937220">
        <ele>220.0</ele>
        <time>2019-07-09T12:12:46Z</time>
      </trkpt>
      <trkpt lat="39.8382230" lon="-5.9937780">
        <ele>220.0</ele>
        <time>2019-07-09T12:12:47Z</time>
      </trkpt>
      <trkpt lat="39.8382460" lon="-5.9938910">
        <ele>220.2</ele>
        <time>2019-07-09T12:12:49Z</time>
      </trkpt>
      <trkpt lat="39.8383020" lon="-5.9941110">
        <ele>220.8</ele>
        <time>2019-07-09T12:12:53Z</time>
      </trkpt>
      <trkpt lat="39.8383360" lon="-5.9942150">
        <ele>221.0</ele>
        <time>2019-07-09T12:12:55Z</time>
      </trkpt>
      <trkpt lat="39.8383670" lon="-5.9943190">
        <ele>221.4</ele>
        <time>2019-07-09T12:12:57Z</time>
      </trkpt>
      <trkpt lat="39.8383980" lon="-5.9944200">
        <ele>221.8</ele>
        <time>2019-07-09T12:12:59Z</time>
      </trkpt>
      <trkpt lat="39.8384420" lon="-5.9945710">
        <ele>222.6</ele>
        <time>2019-07-09T12:13:02Z</time>
      </trkpt>
      <trkpt lat="39.8384890" lon="-5.9947180">
        <ele>222.8</ele>
        <time>2019-07-09T12:13:05Z</time>
      </trkpt>
      <trkpt lat="39.8385170" lon="-5.9948210">
        <ele>223.2</ele>
        <time>2019-07-09T12:13:07Z</time>
      </trkpt>
      <trkpt lat="39.8385620" lon="-5.9949710">
        <ele>223.8</ele>
        <time>2019-07-09T12:13:10Z</time>
      </trkpt>
      <trkpt lat="39.8386410" lon="-5.9952200">
        <ele>224.8</ele>
        <time>2019-07-09T12:13:15Z</time>
      </trkpt>
      <trkpt lat="39.8386570" lon="-5.9952690">
        <ele>225.0</ele>
        <time>2019-07-09T12:13:16Z</time>
      </trkpt>
      <trkpt lat="39.8387150" lon="-5.9954730">
        <ele>225.8</ele>
        <time>2019-07-09T12:13:20Z</time>
      </trkpt>
      <trkpt lat="39.8387290" lon="-5.9955240">
        <ele>226.0</ele>
        <time>2019-07-09T12:13:21Z</time>
      </trkpt>
      <trkpt lat="39.8387540" lon="-5.9956250">
        <ele>226.2</ele>
        <time>2019-07-09T12:13:23Z</time>
      </trkpt>
      <trkpt lat="39.8388090" lon="-5.9958080">
        <ele>227.0</ele>
        <time>2019-07-09T12:13:27Z</time>
      </trkpt>
      <trkpt lat="39.8388380" lon="-5.9958960">
        <ele>227.4</ele>
        <time>2019-07-09T12:13:29Z</time>
      </trkpt>
      <trkpt lat="39.8388610" lon="-5.9960340">
        <ele>228.0</ele>
        <time>2019-07-09T12:13:32Z</time>
      </trkpt>
      <trkpt lat="39.8388740" lon="-5.9960780">
        <ele>228.2</ele>
        <time>2019-07-09T12:13:33Z</time>
      </trkpt>
      <trkpt lat="39.8389830" lon="-5.9963320">
        <ele>229.2</ele>
        <time>2019-07-09T12:13:39Z</time>
      </trkpt>
      <trkpt lat="39.8391090" lon="-5.9966180">
        <ele>230.2</ele>
        <time>2019-07-09T12:13:46Z</time>
      </trkpt>
      <trkpt lat="39.8391270" lon="-5.9966600">
        <ele>230.4</ele>
        <time>2019-07-09T12:13:47Z</time>
      </trkpt>
      <trkpt lat="39.8392300" lon="-5.9969030">
        <ele>231.4</ele>
        <time>2019-07-09T12:13:53Z</time>
      </trkpt>
      <trkpt lat="39.8392490" lon="-5.9969410">
        <ele>231.6</ele>
        <time>2019-07-09T12:13:54Z</time>
      </trkpt>
      <trkpt lat="39.8393090" lon="-5.9971110">
        <ele>232.4</ele>
        <time>2019-07-09T12:13:58Z</time>
      </trkpt>
      <trkpt lat="39.8393380" lon="-5.9972020">
        <ele>232.8</ele>
        <time>2019-07-09T12:14:00Z</time>
      </trkpt>
      <trkpt lat="39.8393770" lon="-5.9973460">
        <ele>233.4</ele>
        <time>2019-07-09T12:14:03Z</time>
      </trkpt>
      <trkpt lat="39.8394440" lon="-5.9975840">
        <ele>234.0</ele>
        <time>2019-07-09T12:14:08Z</time>
      </trkpt>
      <trkpt lat="39.8395090" lon="-5.9978250">
        <ele>234.6</ele>
        <time>2019-07-09T12:14:13Z</time>
      </trkpt>
      <trkpt lat="39.8395560" lon="-5.9980210">
        <ele>235.4</ele>
        <time>2019-07-09T12:14:17Z</time>
      </trkpt>
      <trkpt lat="39.8395900" lon="-5.9981180">
        <ele>235.8</ele>
        <time>2019-07-09T12:14:19Z</time>
      </trkpt>
      <trkpt lat="39.8396020" lon="-5.9981700">
        <ele>235.8</ele>
        <time>2019-07-09T12:14:20Z</time>
      </trkpt>
      <trkpt lat="39.8396360" lon="-5.9983870">
        <ele>236.6</ele>
        <time>2019-07-09T12:14:24Z</time>
      </trkpt>
      <trkpt lat="39.8396460" lon="-5.9984400">
        <ele>236.8</ele>
        <time>2019-07-09T12:14:25Z</time>
      </trkpt>
      <trkpt lat="39.8396680" lon="-5.9987180">
        <ele>237.8</ele>
        <time>2019-07-09T12:14:30Z</time>
      </trkpt>
      <trkpt lat="39.8396700" lon="-5.9987750">
        <ele>238.0</ele>
        <time>2019-07-09T12:14:31Z</time>
      </trkpt>
      <trkpt lat="39.8396730" lon="-5.9991800">
        <ele>239.0</ele>
        <time>2019-07-09T12:14:38Z</time>
      </trkpt>
      <trkpt lat="39.8396690" lon="-5.9993040">
        <ele>239.4</ele>
        <time>2019-07-09T12:14:40Z</time>
      </trkpt>
      <trkpt lat="39.8396660" lon="-5.9994300">
        <ele>239.6</ele>
        <time>2019-07-09T12:14:42Z</time>
      </trkpt>
      <trkpt lat="39.8396960" lon="-5.9996800">
        <ele>240.2</ele>
        <time>2019-07-09T12:14:46Z</time>
      </trkpt>
      <trkpt lat="39.8397540" lon="-5.9999690">
        <ele>241.0</ele>
        <time>2019-07-09T12:14:51Z</time>
      </trkpt>
      <trkpt lat="39.8397720" lon="-6.0000190">
        <ele>241.2</ele>
        <time>2019-07-09T12:14:52Z</time>
      </trkpt>
      <trkpt lat="39.8397950" lon="-6.0000670">
        <ele>241.2</ele>
        <time>2019-07-09T12:14:53Z</time>
      </trkpt>
      <trkpt lat="39.8398860" lon="-6.0001930">
        <ele>241.8</ele>
        <time>2019-07-09T12:14:56Z</time>
      </trkpt>
      <trkpt lat="39.8399860" lon="-6.0003090">
        <ele>242.4</ele>
        <time>2019-07-09T12:14:59Z</time>
      </trkpt>
      <trkpt lat="39.8402210" lon="-6.0005480">
        <ele>243.2</ele>
        <time>2019-07-09T12:15:06Z</time>
      </trkpt>
      <trkpt lat="39.8402530" lon="-6.0005820">
        <ele>243.4</ele>
        <time>2019-07-09T12:15:07Z</time>
      </trkpt>
      <trkpt lat="39.8404510" lon="-6.0007910">
        <ele>244.4</ele>
        <time>2019-07-09T12:15:13Z</time>
      </trkpt>
      <trkpt lat="39.8404860" lon="-6.0008240">
        <ele>244.4</ele>
        <time>2019-07-09T12:15:14Z</time>
      </trkpt>
      <trkpt lat="39.8406810" lon="-6.0010440">
        <ele>245.2</ele>
        <time>2019-07-09T12:15:20Z</time>
      </trkpt>
      <trkpt lat="39.8407110" lon="-6.0010860">
        <ele>245.4</ele>
        <time>2019-07-09T12:15:21Z</time>
      </trkpt>
      <trkpt lat="39.8407410" lon="-6.0011280">
        <ele>245.6</ele>
        <time>2019-07-09T12:15:22Z</time>
      </trkpt>
      <trkpt lat="39.8409160" lon="-6.0013760">
        <ele>246.4</ele>
        <time>2019-07-09T12:15:28Z</time>
      </trkpt>
      <trkpt lat="39.8409420" lon="-6.0014200">
        <ele>246.6</ele>
        <time>2019-07-09T12:15:29Z</time>
      </trkpt>
      <trkpt lat="39.8410530" lon="-6.0016560">
        <ele>247.4</ele>
        <time>2019-07-09T12:15:34Z</time>
      </trkpt>
      <trkpt lat="39.8411110" lon="-6.0017990">
        <ele>248.0</ele>
        <time>2019-07-09T12:15:37Z</time>
      </trkpt>
      <trkpt lat="39.8411990" lon="-6.0019860">
        <ele>248.2</ele>
        <time>2019-07-09T12:15:41Z</time>
      </trkpt>
      <trkpt lat="39.8412300" lon="-6.0020230">
        <ele>248.4</ele>
        <time>2019-07-09T12:15:42Z</time>
      </trkpt>
      <trkpt lat="39.8412650" lon="-6.0020560">
        <ele>248.8</ele>
        <time>2019-07-09T12:15:43Z</time>
      </trkpt>
      <trkpt lat="39.8414690" lon="-6.0022120">
        <ele>249.6</ele>
        <time>2019-07-09T12:15:48Z</time>
      </trkpt>
      <trkpt lat="39.8415720" lon="-6.0022690">
        <ele>249.4</ele>
        <time>2019-07-09T12:15:50Z</time>
      </trkpt>
      <trkpt lat="39.8417570" lon="-6.0022790">
        <ele>248.8</ele>
        <time>2019-07-09T12:15:53Z</time>
      </trkpt>
      <trkpt lat="39.8418940" lon="-6.0022310">
        <ele>248.4</ele>
        <time>2019-07-09T12:15:55Z</time>
      </trkpt>
      <trkpt lat="39.8420340" lon="-6.0021440">
        <ele>247.6</ele>
        <time>2019-07-09T12:15:57Z</time>
      </trkpt>
      <trkpt lat="39.8421020" lon="-6.0020840">
        <ele>247.2</ele>
        <time>2019-07-09T12:15:58Z</time>
      </trkpt>
      <trkpt lat="39.8421680" lon="-6.0020160">
        <ele>246.6</ele>
        <time>2019-07-09T12:15:59Z</time>
      </trkpt>
      <trkpt lat="39.8423010" lon="-6.0018700">
        <ele>246.0</ele>
        <time>2019-07-09T12:16:01Z</time>
      </trkpt>
      <trkpt lat="39.8423700" lon="-6.0017950">
        <ele>245.6</ele>
        <time>2019-07-09T12:16:02Z</time>
      </trkpt>
      <trkpt lat="39.8425200" lon="-6.0016560">
        <ele>244.4</ele>
        <time>2019-07-09T12:16:04Z</time>
      </trkpt>
      <trkpt lat="39.8426020" lon="-6.0015980">
        <ele>243.8</ele>
        <time>2019-07-09T12:16:05Z</time>
      </trkpt>
      <trkpt lat="39.8426900" lon="-6.0015560">
        <ele>243.4</ele>
        <time>2019-07-09T12:16:06Z</time>
      </trkpt>
      <trkpt lat="39.8427800" lon="-6.0015260">
        <ele>242.6</ele>
        <time>2019-07-09T12:16:07Z</time>
      </trkpt>
      <trkpt lat="39.8429600" lon="-6.0014480">
        <ele>241.2</ele>
        <time>2019-07-09T12:16:09Z</time>
      </trkpt>
      <trkpt lat="39.8430400" lon="-6.0013750">
        <ele>240.4</ele>
        <time>2019-07-09T12:16:10Z</time>
      </trkpt>
      <trkpt lat="39.8431020" lon="-6.0012760">
        <ele>239.8</ele>
        <time>2019-07-09T12:16:11Z</time>
      </trkpt>
      <trkpt lat="39.8431990" lon="-6.0010610">
        <ele>238.6</ele>
        <time>2019-07-09T12:16:13Z</time>
      </trkpt>
      <trkpt lat="39.8433260" lon="-6.0009150">
        <ele>237.6</ele>
        <time>2019-07-09T12:16:15Z</time>
      </trkpt>
      <trkpt lat="39.8435100" lon="-6.0009020">
        <ele>236.2</ele>
        <time>2019-07-09T12:16:17Z</time>
      </trkpt>
      <trkpt lat="39.8436850" lon="-6.0010010">
        <ele>235.2</ele>
        <time>2019-07-09T12:16:19Z</time>
      </trkpt>
      <trkpt lat="39.8437510" lon="-6.0010870">
        <ele>234.8</ele>
        <time>2019-07-09T12:16:20Z</time>
      </trkpt>
      <trkpt lat="39.8438120" lon="-6.0011740">
        <ele>234.6</ele>
        <time>2019-07-09T12:16:21Z</time>
      </trkpt>
      <trkpt lat="39.8438750" lon="-6.0012580">
        <ele>234.2</ele>
        <time>2019-07-09T12:16:22Z</time>
      </trkpt>
      <trkpt lat="39.8439450" lon="-6.0013330">
        <ele>234.0</ele>
        <time>2019-07-09T12:16:23Z</time>
      </trkpt>
      <trkpt lat="39.8441110" lon="-6.0014170">
        <ele>233.6</ele>
        <time>2019-07-09T12:16:25Z</time>
      </trkpt>
      <trkpt lat="39.8442940" lon="-6.0013800">
        <ele>232.8</ele>
        <time>2019-07-09T12:16:27Z</time>
      </trkpt>
      <trkpt lat="39.8444500" lon="-6.0012390">
        <ele>231.8</ele>
        <time>2019-07-09T12:16:29Z</time>
      </trkpt>
      <trkpt lat="39.8445160" lon="-6.0011570">
        <ele>231.4</ele>
        <time>2019-07-09T12:16:30Z</time>
      </trkpt>
      <trkpt lat="39.8448220" lon="-6.0008000">
        <ele>230.8</ele>
        <time>2019-07-09T12:16:35Z</time>
      </trkpt>
      <trkpt lat="39.8449440" lon="-6.0007320">
        <ele>230.8</ele>
        <time>2019-07-09T12:16:37Z</time>
      </trkpt>
      <trkpt lat="39.8450010" lon="-6.0007230">
        <ele>231.0</ele>
        <time>2019-07-09T12:16:38Z</time>
      </trkpt>
      <trkpt lat="39.8451030" lon="-6.0007310">
        <ele>231.8</ele>
        <time>2019-07-09T12:16:40Z</time>
      </trkpt>
      <trkpt lat="39.8451870" lon="-6.0007610">
        <ele>232.4</ele>
        <time>2019-07-09T12:16:42Z</time>
      </trkpt>
      <trkpt lat="39.8452600" lon="-6.0008000">
        <ele>233.0</ele>
        <time>2019-07-09T12:16:44Z</time>
      </trkpt>
      <trkpt lat="39.8453260" lon="-6.0008520">
        <ele>233.6</ele>
        <time>2019-07-09T12:16:46Z</time>
      </trkpt>
      <trkpt lat="39.8453940" lon="-6.0008960">
        <ele>234.0</ele>
        <time>2019-07-09T12:16:48Z</time>
      </trkpt>
      <trkpt lat="39.8454610" lon="-6.0009310">
        <ele>234.6</ele>
        <time>2019-07-09T12:16:50Z</time>
      </trkpt>
      <trkpt lat="39.8455330" lon="-6.0009570">
        <ele>235.2</ele>
        <time>2019-07-09T12:16:52Z</time>
      </trkpt>
      <trkpt lat="39.8456390" lon="-6.0009800">
        <ele>236.0</ele>
        <time>2019-07-09T12:16:55Z</time>
      </trkpt>
      <trkpt lat="39.8456750" lon="-6.0009820">
        <ele>236.4</ele>
        <time>2019-07-09T12:16:56Z</time>
      </trkpt>
      <trkpt lat="39.8457780" lon="-6.0009620">
        <ele>236.8</ele>
        <time>2019-07-09T12:16:59Z</time>
      </trkpt>
      <trkpt lat="39.8458710" lon="-6.0009190">
        <ele>237.4</ele>
        <time>2019-07-09T12:17:02Z</time>
      </trkpt>
      <trkpt lat="39.8459010" lon="-6.0009040">
        <ele>237.8</ele>
        <time>2019-07-09T12:17:03Z</time>
      </trkpt>
      <trkpt lat="39.8460140" lon="-6.0008310">
        <ele>238.4</ele>
        <time>2019-07-09T12:17:07Z</time>
      </trkpt>
      <trkpt lat="39.8460670" lon="-6.0007840">
        <ele>238.8</ele>
        <time>2019-07-09T12:17:09Z</time>
      </trkpt>
      <trkpt lat="39.8460940" lon="-6.0007600">
        <ele>239.0</ele>
        <time>2019-07-09T12:17:10Z</time>
      </trkpt>
      <trkpt lat="39.8461690" lon="-6.0006780">
        <ele>239.8</ele>
        <time>2019-07-09T12:17:13Z</time>
      </trkpt>
      <trkpt lat="39.8463010" lon="-6.0005050">
        <ele>240.8</ele>
        <time>2019-07-09T12:17:19Z</time>
      </trkpt>
      <trkpt lat="39.8464040" lon="-6.0003610">
        <ele>241.8</ele>
        <time>2019-07-09T12:17:24Z</time>
      </trkpt>
      <trkpt lat="39.8464400" lon="-6.0002950">
        <ele>242.0</ele>
        <time>2019-07-09T12:17:26Z</time>
      </trkpt>
      <trkpt lat="39.8465200" lon="-6.0001800">
        <ele>242.8</ele>
        <time>2019-07-09T12:17:30Z</time>
      </trkpt>
      <trkpt lat="39.8465840" lon="-6.0001000">
        <ele>243.8</ele>
        <time>2019-07-09T12:17:33Z</time>
      </trkpt>
      <trkpt lat="39.8466060" lon="-6.0000750">
        <ele>244.0</ele>
        <time>2019-07-09T12:17:34Z</time>
      </trkpt>
      <trkpt lat="39.8468010" lon="-5.9998780">
        <ele>245.2</ele>
        <time>2019-07-09T12:17:42Z</time>
      </trkpt>
      <trkpt lat="39.8469870" lon="-5.9998550">
        <ele>246.4</ele>
        <time>2019-07-09T12:17:48Z</time>
      </trkpt>
      <trkpt lat="39.8470960" lon="-5.9999260">
        <ele>247.6</ele>
        <time>2019-07-09T12:17:52Z</time>
      </trkpt>
      <trkpt lat="39.8471600" lon="-6.0000080">
        <ele>248.2</ele>
        <time>2019-07-09T12:17:55Z</time>
      </trkpt>
      <trkpt lat="39.8471980" lon="-6.0001100">
        <ele>248.6</ele>
        <time>2019-07-09T12:17:58Z</time>
      </trkpt>
      <trkpt lat="39.8472040" lon="-6.0001500">
        <ele>248.8</ele>
        <time>2019-07-09T12:17:59Z</time>
      </trkpt>
      <trkpt lat="39.8472190" lon="-6.0003190">
        <ele>249.8</ele>
        <time>2019-07-09T12:18:03Z</time>
      </trkpt>
      <trkpt lat="39.8472130" lon="-6.0004040">
        <ele>250.2</ele>
        <time>2019-07-09T12:18:05Z</time>
      </trkpt>
      <trkpt lat="39.8472000" lon="-6.0005260">
        <ele>251.0</ele>
        <time>2019-07-09T12:18:08Z</time>
      </trkpt>
      <trkpt lat="39.8471630" lon="-6.0007680">
        <ele>252.0</ele>
        <time>2019-07-09T12:18:14Z</time>
      </trkpt>
      <trkpt lat="39.8471110" lon="-6.0010120">
        <ele>253.2</ele>
        <time>2019-07-09T12:18:20Z</time>
      </trkpt>
      <trkpt lat="39.8470790" lon="-6.0011320">
        <ele>253.8</ele>
        <time>2019-07-09T12:18:23Z</time>
      </trkpt>
      <trkpt lat="39.8470650" lon="-6.0012120">
        <ele>254.2</ele>
        <time>2019-07-09T12:18:25Z</time>
      </trkpt>
      <trkpt lat="39.8470450" lon="-6.0013730">
        <ele>255.0</ele>
        <time>2019-07-09T12:18:29Z</time>
      </trkpt>
      <trkpt lat="39.8470220" lon="-6.0014520">
        <ele>255.4</ele>
        <time>2019-07-09T12:18:31Z</time>
      </trkpt>
      <trkpt lat="39.8469900" lon="-6.0016170">
        <ele>256.2</ele>
        <time>2019-07-09T12:18:35Z</time>
      </trkpt>
      <trkpt lat="39.8469550" lon="-6.0017340">
        <ele>256.6</ele>
        <time>2019-07-09T12:18:38Z</time>
      </trkpt>
      <trkpt lat="39.8468830" lon="-6.0018760">
        <ele>257.4</ele>
        <time>2019-07-09T12:18:42Z</time>
      </trkpt>
      <trkpt lat="39.8468650" lon="-6.0019110">
        <ele>257.8</ele>
        <time>2019-07-09T12:18:43Z</time>
      </trkpt>
      <trkpt lat="39.8467540" lon="-6.0021400">
        <ele>258.8</ele>
        <time>2019-07-09T12:18:49Z</time>
      </trkpt>
      <trkpt lat="39.8467240" lon="-6.0022290">
        <ele>259.0</ele>
        <time>2019-07-09T12:18:51Z</time>
      </trkpt>
      <trkpt lat="39.8466930" lon="-6.0025440">
        <ele>259.4</ele>
        <time>2019-07-09T12:18:57Z</time>
      </trkpt>
      <trkpt lat="39.8466960" lon="-6.0025980">
        <ele>259.4</ele>
        <time>2019-07-09T12:18:58Z</time>
      </trkpt>
      <trkpt lat="39.8467300" lon="-6.0028170">
        <ele>259.8</ele>
        <time>2019-07-09T12:19:02Z</time>
      </trkpt>
      <trkpt lat="39.8467390" lon="-6.0028720">
        <ele>260.0</ele>
        <time>2019-07-09T12:19:03Z</time>
      </trkpt>
      <trkpt lat="39.8467790" lon="-6.0030920">
        <ele>260.4</ele>
        <time>2019-07-09T12:19:07Z</time>
      </trkpt>
      <trkpt lat="39.8468380" lon="-6.0034180">
        <ele>260.8</ele>
        <time>2019-07-09T12:19:13Z</time>
      </trkpt>
      <trkpt lat="39.8468620" lon="-6.0035270">
        <ele>260.8</ele>
        <time>2019-07-09T12:19:15Z</time>
      </trkpt>
      <trkpt lat="39.8468930" lon="-6.0036290">
        <ele>261.0</ele>
        <time>2019-07-09T12:19:17Z</time>
      </trkpt>
      <trkpt lat="39.8469600" lon="-6.0037570">
        <ele>261.4</ele>
        <time>2019-07-09T12:19:20Z</time>
      </trkpt>
      <trkpt lat="39.8470240" lon="-6.0038130">
        <ele>262.0</ele>
        <time>2019-07-09T12:19:22Z</time>
      </trkpt>
      <trkpt lat="39.8471000" lon="-6.0038460">
        <ele>262.4</ele>
        <time>2019-07-09T12:19:24Z</time>
      </trkpt>
      <trkpt lat="39.8472190" lon="-6.0038320">
        <ele>263.0</ele>
        <time>2019-07-09T12:19:27Z</time>
      </trkpt>
      <trkpt lat="39.8472580" lon="-6.0038150">
        <ele>263.2</ele>
        <time>2019-07-09T12:19:28Z</time>
      </trkpt>
      <trkpt lat="39.8474460" lon="-6.0037650">
        <ele>264.2</ele>
        <time>2019-07-09T12:19:33Z</time>
      </trkpt>
      <trkpt lat="39.8475230" lon="-6.0037720">
        <ele>264.4</ele>
        <time>2019-07-09T12:19:35Z</time>
      </trkpt>
      <trkpt lat="39.8476270" lon="-6.0038460">
        <ele>265.2</ele>
        <time>2019-07-09T12:19:38Z</time>
      </trkpt>
      <trkpt lat="39.8476570" lon="-6.0038830">
        <ele>265.2</ele>
        <time>2019-07-09T12:19:39Z</time>
      </trkpt>
      <trkpt lat="39.8477410" lon="-6.0040150">
        <ele>265.6</ele>
        <time>2019-07-09T12:19:42Z</time>
      </trkpt>
      <trkpt lat="39.8477950" lon="-6.0041820">
        <ele>265.4</ele>
        <time>2019-07-09T12:19:45Z</time>
      </trkpt>
      <trkpt lat="39.8478040" lon="-6.0042440">
        <ele>265.4</ele>
        <time>2019-07-09T12:19:46Z</time>
      </trkpt>
      <trkpt lat="39.8477820" lon="-6.0044500">
        <ele>265.4</ele>
        <time>2019-07-09T12:19:49Z</time>
      </trkpt>
      <trkpt lat="39.8476620" lon="-6.0047080">
        <ele>265.0</ele>
        <time>2019-07-09T12:19:53Z</time>
      </trkpt>
      <trkpt lat="39.8475230" lon="-6.0048470">
        <ele>265.0</ele>
        <time>2019-07-09T12:19:56Z</time>
      </trkpt>
      <trkpt lat="39.8474370" lon="-6.0049240">
        <ele>265.4</ele>
        <time>2019-07-09T12:19:58Z</time>
      </trkpt>
      <trkpt lat="39.8473680" lon="-6.0050020">
        <ele>265.8</ele>
        <time>2019-07-09T12:20:00Z</time>
      </trkpt>
      <trkpt lat="39.8473050" lon="-6.0050750">
        <ele>266.0</ele>
        <time>2019-07-09T12:20:02Z</time>
      </trkpt>
      <trkpt lat="39.8472470" lon="-6.0051540">
        <ele>266.2</ele>
        <time>2019-07-09T12:20:04Z</time>
      </trkpt>
      <trkpt lat="39.8471590" lon="-6.0053940">
        <ele>267.4</ele>
        <time>2019-07-09T12:20:09Z</time>
      </trkpt>
      <trkpt lat="39.8471600" lon="-6.0057210">
        <ele>268.0</ele>
        <time>2019-07-09T12:20:15Z</time>
      </trkpt>
      <trkpt lat="39.8471940" lon="-6.0060020">
        <ele>268.6</ele>
        <time>2019-07-09T12:20:20Z</time>
      </trkpt>
      <trkpt lat="39.8472170" lon="-6.0061640">
        <ele>269.4</ele>
        <time>2019-07-09T12:20:23Z</time>
      </trkpt>
      <trkpt lat="39.8472310" lon="-6.0062660">
        <ele>269.6</ele>
        <time>2019-07-09T12:20:25Z</time>
      </trkpt>
      <trkpt lat="39.8472680" lon="-6.0065150">
        <ele>270.4</ele>
        <time>2019-07-09T12:20:30Z</time>
      </trkpt>
      <trkpt lat="39.8472740" lon="-6.0065620">
        <ele>270.8</ele>
        <time>2019-07-09T12:20:31Z</time>
      </trkpt>
      <trkpt lat="39.8472830" lon="-6.0066580">
        <ele>271.6</ele>
        <time>2019-07-09T12:20:33Z</time>
      </trkpt>
      <trkpt lat="39.8472870" lon="-6.0067050">
        <ele>271.8</ele>
        <time>2019-07-09T12:20:34Z</time>
      </trkpt>
      <trkpt lat="39.8473120" lon="-6.0069300">
        <ele>273.0</ele>
        <time>2019-07-09T12:20:39Z</time>
      </trkpt>
      <trkpt lat="39.8473200" lon="-6.0070180">
        <ele>273.4</ele>
        <time>2019-07-09T12:20:41Z</time>
      </trkpt>
      <trkpt lat="39.8473390" lon="-6.0071460">
        <ele>274.0</ele>
        <time>2019-07-09T12:20:44Z</time>
      </trkpt>
      <trkpt lat="39.8473690" lon="-6.0073590">
        <ele>275.4</ele>
        <time>2019-07-09T12:20:49Z</time>
      </trkpt>
      <trkpt lat="39.8473800" lon="-6.0074000">
        <ele>275.6</ele>
        <time>2019-07-09T12:20:50Z</time>
      </trkpt>
      <trkpt lat="39.8474270" lon="-6.0075630">
        <ele>276.4</ele>
        <time>2019-07-09T12:20:54Z</time>
      </trkpt>
      <trkpt lat="39.8475100" lon="-6.0077540">
        <ele>277.4</ele>
        <time>2019-07-09T12:20:59Z</time>
      </trkpt>
      <trkpt lat="39.8475270" lon="-6.0077900">
        <ele>277.6</ele>
        <time>2019-07-09T12:21:00Z</time>
      </trkpt>
      <trkpt lat="39.8476300" lon="-6.0079660">
        <ele>278.8</ele>
        <time>2019-07-09T12:21:05Z</time>
      </trkpt>
      <trkpt lat="39.8476520" lon="-6.0080000">
        <ele>279.0</ele>
        <time>2019-07-09T12:21:06Z</time>
      </trkpt>
      <trkpt lat="39.8477640" lon="-6.0081560">
        <ele>279.8</ele>
        <time>2019-07-09T12:21:11Z</time>
      </trkpt>
      <trkpt lat="39.8477860" lon="-6.0081880">
        <ele>280.0</ele>
        <time>2019-07-09T12:21:12Z</time>
      </trkpt>
      <trkpt lat="39.8478850" lon="-6.0083550">
        <ele>280.8</ele>
        <time>2019-07-09T12:21:17Z</time>
      </trkpt>
      <trkpt lat="39.8479350" lon="-6.0084620">
        <ele>281.6</ele>
        <time>2019-07-09T12:21:20Z</time>
      </trkpt>
      <trkpt lat="39.8479580" lon="-6.0085390">
        <ele>282.2</ele>
        <time>2019-07-09T12:21:22Z</time>
      </trkpt>
      <trkpt lat="39.8479950" lon="-6.0087030">
        <ele>283.0</ele>
        <time>2019-07-09T12:21:26Z</time>
      </trkpt>
      <trkpt lat="39.8480040" lon="-6.0087440">
        <ele>283.2</ele>
        <time>2019-07-09T12:21:27Z</time>
      </trkpt>
      <trkpt lat="39.8480480" lon="-6.0089530">
        <ele>284.2</ele>
        <time>2019-07-09T12:21:32Z</time>
      </trkpt>
      <trkpt lat="39.8480720" lon="-6.0090740">
        <ele>285.0</ele>
        <time>2019-07-09T12:21:35Z</time>
      </trkpt>
      <trkpt lat="39.8480920" lon="-6.0091520">
        <ele>285.4</ele>
        <time>2019-07-09T12:21:37Z</time>
      </trkpt>
      <trkpt lat="39.8481360" lon="-6.0093900">
        <ele>286.6</ele>
        <time>2019-07-09T12:21:43Z</time>
      </trkpt>
      <trkpt lat="39.8481290" lon="-6.0096460">
        <ele>287.4</ele>
        <time>2019-07-09T12:21:49Z</time>
      </trkpt>
      <trkpt lat="39.8481130" lon="-6.0097280">
        <ele>287.8</ele>
        <time>2019-07-09T12:21:51Z</time>
      </trkpt>
      <trkpt lat="39.8480230" lon="-6.0099030">
        <ele>288.8</ele>
        <time>2019-07-09T12:21:56Z</time>
      </trkpt>
      <trkpt lat="39.8480040" lon="-6.0099370">
        <ele>289.2</ele>
        <time>2019-07-09T12:21:57Z</time>
      </trkpt>
      <trkpt lat="39.8479350" lon="-6.0100250">
        <ele>290.0</ele>
        <time>2019-07-09T12:22:00Z</time>
      </trkpt>
      <trkpt lat="39.8478370" lon="-6.0101400">
        <ele>290.6</ele>
        <time>2019-07-09T12:22:04Z</time>
      </trkpt>
      <trkpt lat="39.8477950" lon="-6.0102030">
        <ele>291.0</ele>
        <time>2019-07-09T12:22:06Z</time>
      </trkpt>
      <trkpt lat="39.8476970" lon="-6.0103660">
        <ele>292.2</ele>
        <time>2019-07-09T12:22:11Z</time>
      </trkpt>
      <trkpt lat="39.8476840" lon="-6.0104040">
        <ele>292.6</ele>
        <time>2019-07-09T12:22:12Z</time>
      </trkpt>
      <trkpt lat="39.8476490" lon="-6.0105200">
        <ele>293.4</ele>
        <time>2019-07-09T12:22:15Z</time>
      </trkpt>
      <trkpt lat="39.8475770" lon="-6.0107140">
        <ele>294.4</ele>
        <time>2019-07-09T12:22:20Z</time>
      </trkpt>
      <trkpt lat="39.8475210" lon="-6.0109140">
        <ele>295.4</ele>
        <time>2019-07-09T12:22:25Z</time>
      </trkpt>
      <trkpt lat="39.8475020" lon="-6.0109960">
        <ele>295.8</ele>
        <time>2019-07-09T12:22:27Z</time>
      </trkpt>
      <trkpt lat="39.8474730" lon="-6.0111610">
        <ele>296.6</ele>
        <time>2019-07-09T12:22:31Z</time>
      </trkpt>
      <trkpt lat="39.8474570" lon="-6.0113730">
        <ele>297.6</ele>
        <time>2019-07-09T12:22:36Z</time>
      </trkpt>
      <trkpt lat="39.8474540" lon="-6.0114160">
        <ele>298.0</ele>
        <time>2019-07-09T12:22:37Z</time>
      </trkpt>
      <trkpt lat="39.8474550" lon="-6.0115900">
        <ele>298.8</ele>
        <time>2019-07-09T12:22:41Z</time>
      </trkpt>
      <trkpt lat="39.8474610" lon="-6.0117160">
        <ele>299.2</ele>
        <time>2019-07-09T12:22:44Z</time>
      </trkpt>
      <trkpt lat="39.8474700" lon="-6.0118420">
        <ele>300.2</ele>
        <time>2019-07-09T12:22:47Z</time>
      </trkpt>
      <trkpt lat="39.8475000" lon="-6.0120020">
        <ele>300.6</ele>
        <time>2019-07-09T12:22:51Z</time>
      </trkpt>
      <trkpt lat="39.8475260" lon="-6.0121170">
        <ele>301.0</ele>
        <time>2019-07-09T12:22:54Z</time>
      </trkpt>
      <trkpt lat="39.8475750" lon="-6.0122650">
        <ele>301.6</ele>
        <time>2019-07-09T12:22:58Z</time>
      </trkpt>
      <trkpt lat="39.8476250" lon="-6.0123700">
        <ele>302.4</ele>
        <time>2019-07-09T12:23:01Z</time>
      </trkpt>
      <trkpt lat="39.8476770" lon="-6.0124720">
        <ele>303.0</ele>
        <time>2019-07-09T12:23:04Z</time>
      </trkpt>
      <trkpt lat="39.8477100" lon="-6.0125400">
        <ele>303.6</ele>
        <time>2019-07-09T12:23:06Z</time>
      </trkpt>
      <trkpt lat="39.8478070" lon="-6.0126910">
        <ele>304.6</ele>
        <time>2019-07-09T12:23:11Z</time>
      </trkpt>
      <trkpt lat="39.8478260" lon="-6.0127210">
        <ele>304.8</ele>
        <time>2019-07-09T12:23:12Z</time>
      </trkpt>
      <trkpt lat="39.8479410" lon="-6.0128880">
        <ele>305.6</ele>
        <time>2019-07-09T12:23:18Z</time>
      </trkpt>
      <trkpt lat="39.8479830" lon="-6.0129420">
        <ele>306.2</ele>
        <time>2019-07-09T12:23:20Z</time>
      </trkpt>
      <trkpt lat="39.8480730" lon="-6.0130490">
        <ele>306.8</ele>
        <time>2019-07-09T12:23:24Z</time>
      </trkpt>
      <trkpt lat="39.8481730" lon="-6.0131520">
        <ele>307.4</ele>
        <time>2019-07-09T12:23:28Z</time>
      </trkpt>
      <trkpt lat="39.8482200" lon="-6.0132070">
        <ele>307.6</ele>
        <time>2019-07-09T12:23:30Z</time>
      </trkpt>
      <trkpt lat="39.8484060" lon="-6.0133680">
        <ele>308.8</ele>
        <time>2019-07-09T12:23:37Z</time>
      </trkpt>
      <trkpt lat="39.8484350" lon="-6.0133810">
        <ele>308.8</ele>
        <time>2019-07-09T12:23:38Z</time>
      </trkpt>
      <trkpt lat="39.8485230" lon="-6.0134140">
        <ele>310.0</ele>
        <time>2019-07-09T12:23:41Z</time>
      </trkpt>
      <trkpt lat="39.8486780" lon="-6.0134390">
        <ele>311.2</ele>
        <time>2019-07-09T12:23:46Z</time>
      </trkpt>
      <trkpt lat="39.8488040" lon="-6.0134170">
        <ele>312.0</ele>
        <time>2019-07-09T12:23:50Z</time>
      </trkpt>
      <trkpt lat="39.8488990" lon="-6.0133810">
        <ele>312.6</ele>
        <time>2019-07-09T12:23:53Z</time>
      </trkpt>
      <trkpt lat="39.8489910" lon="-6.0133270">
        <ele>313.4</ele>
        <time>2019-07-09T12:23:56Z</time>
      </trkpt>
      <trkpt lat="39.8491200" lon="-6.0132540">
        <ele>314.0</ele>
        <time>2019-07-09T12:24:00Z</time>
      </trkpt>
      <trkpt lat="39.8492200" lon="-6.0132120">
        <ele>314.4</ele>
        <time>2019-07-09T12:24:03Z</time>
      </trkpt>
      <trkpt lat="39.8493560" lon="-6.0131830">
        <ele>315.0</ele>
        <time>2019-07-09T12:24:07Z</time>
      </trkpt>
      <trkpt lat="39.8493880" lon="-6.0131870">
        <ele>315.2</ele>
        <time>2019-07-09T12:24:08Z</time>
      </trkpt>
      <trkpt lat="39.8495170" lon="-6.0132470">
        <ele>316.4</ele>
        <time>2019-07-09T12:24:12Z</time>
      </trkpt>
      <trkpt lat="39.8496670" lon="-6.0133600">
        <ele>317.4</ele>
        <time>2019-07-09T12:24:17Z</time>
      </trkpt>
      <trkpt lat="39.8497170" lon="-6.0134250">
        <ele>318.0</ele>
        <time>2019-07-09T12:24:19Z</time>
      </trkpt>
      <trkpt lat="39.8497680" lon="-6.0134880">
        <ele>318.6</ele>
        <time>2019-07-09T12:24:21Z</time>
      </trkpt>
      <trkpt lat="39.8499000" lon="-6.0136330">
        <ele>319.8</ele>
        <time>2019-07-09T12:24:26Z</time>
      </trkpt>
      <trkpt lat="39.8499280" lon="-6.0136590">
        <ele>320.0</ele>
        <time>2019-07-09T12:24:27Z</time>
      </trkpt>
      <trkpt lat="39.8500540" lon="-6.0137320">
        <ele>321.0</ele>
        <time>2019-07-09T12:24:31Z</time>
      </trkpt>
      <trkpt lat="39.8501240" lon="-6.0137440">
        <ele>321.6</ele>
        <time>2019-07-09T12:24:33Z</time>
      </trkpt>
      <trkpt lat="39.8501960" lon="-6.0137450">
        <ele>322.2</ele>
        <time>2019-07-09T12:24:35Z</time>
      </trkpt>
      <trkpt lat="39.8503750" lon="-6.0137050">
        <ele>323.0</ele>
        <time>2019-07-09T12:24:40Z</time>
      </trkpt>
      <trkpt lat="39.8504070" lon="-6.0136860">
        <ele>323.2</ele>
        <time>2019-07-09T12:24:41Z</time>
      </trkpt>
      <trkpt lat="39.8505580" lon="-6.0135460">
        <ele>324.2</ele>
        <time>2019-07-09T12:24:46Z</time>
      </trkpt>
      <trkpt lat="39.8505860" lon="-6.0135120">
        <ele>324.4</ele>
        <time>2019-07-09T12:24:47Z</time>
      </trkpt>
      <trkpt lat="39.8506770" lon="-6.0133650">
        <ele>325.6</ele>
        <time>2019-07-09T12:24:51Z</time>
      </trkpt>
      <trkpt lat="39.8507210" lon="-6.0132890">
        <ele>326.0</ele>
        <time>2019-07-09T12:24:53Z</time>
      </trkpt>
      <trkpt lat="39.8507880" lon="-6.0131780">
        <ele>326.6</ele>
        <time>2019-07-09T12:24:56Z</time>
      </trkpt>
      <trkpt lat="39.8508490" lon="-6.0130700">
        <ele>327.2</ele>
        <time>2019-07-09T12:24:59Z</time>
      </trkpt>
      <trkpt lat="39.8508910" lon="-6.0130000">
        <ele>328.0</ele>
        <time>2019-07-09T12:25:01Z</time>
      </trkpt>
      <trkpt lat="39.8510020" lon="-6.0128310">
        <ele>329.0</ele>
        <time>2019-07-09T12:25:06Z</time>
      </trkpt>
      <trkpt lat="39.8511550" lon="-6.0126460">
        <ele>330.2</ele>
        <time>2019-07-09T12:25:12Z</time>
      </trkpt>
      <trkpt lat="39.8511820" lon="-6.0126170">
        <ele>330.4</ele>
        <time>2019-07-09T12:25:13Z</time>
      </trkpt>
      <trkpt lat="39.8512870" lon="-6.0125090">
        <ele>331.4</ele>
        <time>2019-07-09T12:25:17Z</time>
      </trkpt>
      <trkpt lat="39.8514200" lon="-6.0123890">
        <ele>332.6</ele>
        <time>2019-07-09T12:25:22Z</time>
      </trkpt>
      <trkpt lat="39.8515630" lon="-6.0122810">
        <ele>333.6</ele>
        <time>2019-07-09T12:25:27Z</time>
      </trkpt>
      <trkpt lat="39.8515920" lon="-6.0122590">
        <ele>333.8</ele>
        <time>2019-07-09T12:25:28Z</time>
      </trkpt>
      <trkpt lat="39.8517520" lon="-6.0121760">
        <ele>334.4</ele>
        <time>2019-07-09T12:25:33Z</time>
      </trkpt>
      <trkpt lat="39.8518620" lon="-6.0121620">
        <ele>335.0</ele>
        <time>2019-07-09T12:25:36Z</time>
      </trkpt>
      <trkpt lat="39.8520470" lon="-6.0122020">
        <ele>335.6</ele>
        <time>2019-07-09T12:25:41Z</time>
      </trkpt>
      <trkpt lat="39.8521170" lon="-6.0122400">
        <ele>336.0</ele>
        <time>2019-07-09T12:25:43Z</time>
      </trkpt>
      <trkpt lat="39.8522650" lon="-6.0123800">
        <ele>337.0</ele>
        <time>2019-07-09T12:25:48Z</time>
      </trkpt>
      <trkpt lat="39.8523570" lon="-6.0125240">
        <ele>338.2</ele>
        <time>2019-07-09T12:25:52Z</time>
      </trkpt>
      <trkpt lat="39.8524110" lon="-6.0126280">
        <ele>339.2</ele>
        <time>2019-07-09T12:25:55Z</time>
      </trkpt>
      <trkpt lat="39.8524190" lon="-6.0126710">
        <ele>339.4</ele>
        <time>2019-07-09T12:25:56Z</time>
      </trkpt>
      <trkpt lat="39.8524610" lon="-6.0129490">
        <ele>340.2</ele>
        <time>2019-07-09T12:26:02Z</time>
      </trkpt>
      <trkpt lat="39.8524670" lon="-6.0129950">
        <ele>340.6</ele>
        <time>2019-07-09T12:26:03Z</time>
      </trkpt>
      <trkpt lat="39.8524910" lon="-6.0133150">
        <ele>341.6</ele>
        <time>2019-07-09T12:26:10Z</time>
      </trkpt>
      <trkpt lat="39.8524930" lon="-6.0133590">
        <ele>342.0</ele>
        <time>2019-07-09T12:26:11Z</time>
      </trkpt>
      <trkpt lat="39.8524960" lon="-6.0134930">
        <ele>342.6</ele>
        <time>2019-07-09T12:26:14Z</time>
      </trkpt>
      <trkpt lat="39.8525000" lon="-6.0135370">
        <ele>342.8</ele>
        <time>2019-07-09T12:26:15Z</time>
      </trkpt>
      <trkpt lat="39.8525120" lon="-6.0136650">
        <ele>343.4</ele>
        <time>2019-07-09T12:26:18Z</time>
      </trkpt>
      <trkpt lat="39.8525160" lon="-6.0137530">
        <ele>344.0</ele>
        <time>2019-07-09T12:26:20Z</time>
      </trkpt>
      <trkpt lat="39.8525200" lon="-6.0139210">
        <ele>345.2</ele>
        <time>2019-07-09T12:26:24Z</time>
      </trkpt>
      <trkpt lat="39.8525320" lon="-6.0140000">
        <ele>345.6</ele>
        <time>2019-07-09T12:26:26Z</time>
      </trkpt>
      <trkpt lat="39.8525440" lon="-6.0141640">
        <ele>346.4</ele>
        <time>2019-07-09T12:26:30Z</time>
      </trkpt>
      <trkpt lat="39.8525540" lon="-6.0142920">
        <ele>347.0</ele>
        <time>2019-07-09T12:26:33Z</time>
      </trkpt>
      <trkpt lat="39.8525590" lon="-6.0143840">
        <ele>347.4</ele>
        <time>2019-07-09T12:26:35Z</time>
      </trkpt>
      <trkpt lat="39.8525730" lon="-6.0145580">
        <ele>348.4</ele>
        <time>2019-07-09T12:26:39Z</time>
      </trkpt>
      <trkpt lat="39.8525780" lon="-6.0146020">
        <ele>348.6</ele>
        <time>2019-07-09T12:26:40Z</time>
      </trkpt>
      <trkpt lat="39.8525990" lon="-6.0148260">
        <ele>349.6</ele>
        <time>2019-07-09T12:26:45Z</time>
      </trkpt>
      <trkpt lat="39.8526090" lon="-6.0149600">
        <ele>350.4</ele>
        <time>2019-07-09T12:26:48Z</time>
      </trkpt>
      <trkpt lat="39.8526110" lon="-6.0150050">
        <ele>350.6</ele>
        <time>2019-07-09T12:26:49Z</time>
      </trkpt>
      <trkpt lat="39.8526250" lon="-6.0152310">
        <ele>351.6</ele>
        <time>2019-07-09T12:26:54Z</time>
      </trkpt>
      <trkpt lat="39.8526460" lon="-6.0154190">
        <ele>352.4</ele>
        <time>2019-07-09T12:26:58Z</time>
      </trkpt>
      <trkpt lat="39.8526540" lon="-6.0155140">
        <ele>352.6</ele>
        <time>2019-07-09T12:27:00Z</time>
      </trkpt>
      <trkpt lat="39.8526880" lon="-6.0157660">
        <ele>353.2</ele>
        <time>2019-07-09T12:27:05Z</time>
      </trkpt>
      <trkpt lat="39.8527020" lon="-6.0158200">
        <ele>353.4</ele>
        <time>2019-07-09T12:27:06Z</time>
      </trkpt>
      <trkpt lat="39.8527200" lon="-6.0158730">
        <ele>353.6</ele>
        <time>2019-07-09T12:27:07Z</time>
      </trkpt>
      <trkpt lat="39.8528300" lon="-6.0160640">
        <ele>353.4</ele>
        <time>2019-07-09T12:27:11Z</time>
      </trkpt>
      <trkpt lat="39.8529650" lon="-6.0162430">
        <ele>353.2</ele>
        <time>2019-07-09T12:27:15Z</time>
      </trkpt>
      <trkpt lat="39.8531410" lon="-6.0164700">
        <ele>353.2</ele>
        <time>2019-07-09T12:27:20Z</time>
      </trkpt>
      <trkpt lat="39.8532180" lon="-6.0165630">
        <ele>353.4</ele>
        <time>2019-07-09T12:27:22Z</time>
      </trkpt>
      <trkpt lat="39.8533390" lon="-6.0167090">
        <ele>353.4</ele>
        <time>2019-07-09T12:27:25Z</time>
      </trkpt>
      <trkpt lat="39.8534560" lon="-6.0168650">
        <ele>353.6</ele>
        <time>2019-07-09T12:27:28Z</time>
      </trkpt>
      <trkpt lat="39.8534970" lon="-6.0169150">
        <ele>353.8</ele>
        <time>2019-07-09T12:27:29Z</time>
      </trkpt>
      <trkpt lat="39.8536230" lon="-6.0170670">
        <ele>353.6</ele>
        <time>2019-07-09T12:27:32Z</time>
      </trkpt>
      <trkpt lat="39.8537420" lon="-6.0172200">
        <ele>353.6</ele>
        <time>2019-07-09T12:27:35Z</time>
      </trkpt>
      <trkpt lat="39.8539340" lon="-6.0174430">
        <ele>354.0</ele>
        <time>2019-07-09T12:27:40Z</time>
      </trkpt>
      <trkpt lat="39.8539670" lon="-6.0174860">
        <ele>354.2</ele>
        <time>2019-07-09T12:27:41Z</time>
      </trkpt>
      <trkpt lat="39.8541350" lon="-6.0176960">
        <ele>354.8</ele>
        <time>2019-07-09T12:27:46Z</time>
      </trkpt>
      <trkpt lat="39.8541990" lon="-6.0177810">
        <ele>355.0</ele>
        <time>2019-07-09T12:27:48Z</time>
      </trkpt>
      <trkpt lat="39.8544650" lon="-6.0182180">
        <ele>355.6</ele>
        <time>2019-07-09T12:27:57Z</time>
      </trkpt>
      <trkpt lat="39.8545660" lon="-6.0184990">
        <ele>355.8</ele>
        <time>2019-07-09T12:28:02Z</time>
      </trkpt>
      <trkpt lat="39.8546270" lon="-6.0187210">
        <ele>356.2</ele>
        <time>2019-07-09T12:28:06Z</time>
      </trkpt>
      <trkpt lat="39.8547710" lon="-6.0193040">
        <ele>356.6</ele>
        <time>2019-07-09T12:28:16Z</time>
      </trkpt>
      <trkpt lat="39.8548580" lon="-6.0196290">
        <ele>356.2</ele>
        <time>2019-07-09T12:28:21Z</time>
      </trkpt>
      <trkpt lat="39.8548900" lon="-6.0197610">
        <ele>356.0</ele>
        <time>2019-07-09T12:28:23Z</time>
      </trkpt>
      <trkpt lat="39.8549250" lon="-6.0198870">
        <ele>356.0</ele>
        <time>2019-07-09T12:28:25Z</time>
      </trkpt>
      <trkpt lat="39.8550840" lon="-6.0204780">
        <ele>355.0</ele>
        <time>2019-07-09T12:28:34Z</time>
      </trkpt>
      <trkpt lat="39.8551330" lon="-6.0207050">
        <ele>354.8</ele>
        <time>2019-07-09T12:28:37Z</time>
      </trkpt>
      <trkpt lat="39.8551490" lon="-6.0207810">
        <ele>354.6</ele>
        <time>2019-07-09T12:28:38Z</time>
      </trkpt>
      <trkpt lat="39.8551890" lon="-6.0209310">
        <ele>354.4</ele>
        <time>2019-07-09T12:28:40Z</time>
      </trkpt>
      <trkpt lat="39.8552110" lon="-6.0210040">
        <ele>354.2</ele>
        <time>2019-07-09T12:28:41Z</time>
      </trkpt>
      <trkpt lat="39.8553060" lon="-6.0213590">
        <ele>353.6</ele>
        <time>2019-07-09T12:28:46Z</time>
      </trkpt>
      <trkpt lat="39.8553210" lon="-6.0214300">
        <ele>353.4</ele>
        <time>2019-07-09T12:28:47Z</time>
      </trkpt>
      <trkpt lat="39.8553750" lon="-6.0217260">
        <ele>353.2</ele>
        <time>2019-07-09T12:28:51Z</time>
      </trkpt>
      <trkpt lat="39.8553860" lon="-6.0218870">
        <ele>353.0</ele>
        <time>2019-07-09T12:28:53Z</time>
      </trkpt>
      <trkpt lat="39.8553840" lon="-6.0219700">
        <ele>353.0</ele>
        <time>2019-07-09T12:28:54Z</time>
      </trkpt>
      <trkpt lat="39.8553720" lon="-6.0221370">
        <ele>352.6</ele>
        <time>2019-07-09T12:28:56Z</time>
      </trkpt>
      <trkpt lat="39.8553260" lon="-6.0225900">
        <ele>351.4</ele>
        <time>2019-07-09T12:29:01Z</time>
      </trkpt>
      <trkpt lat="39.8552910" lon="-6.0229060">
        <ele>350.0</ele>
        <time>2019-07-09T12:29:04Z</time>
      </trkpt>
      <trkpt lat="39.8552580" lon="-6.0232490">
        <ele>349.0</ele>
        <time>2019-07-09T12:29:07Z</time>
      </trkpt>
      <trkpt lat="39.8552400" lon="-6.0236060">
        <ele>347.8</ele>
        <time>2019-07-09T12:29:10Z</time>
      </trkpt>
      <trkpt lat="39.8552560" lon="-6.0237230">
        <ele>347.6</ele>
        <time>2019-07-09T12:29:11Z</time>
      </trkpt>
      <trkpt lat="39.8553260" lon="-6.0239420">
        <ele>346.4</ele>
        <time>2019-07-09T12:29:13Z</time>
      </trkpt>
      <trkpt lat="39.8553740" lon="-6.0240440">
        <ele>346.0</ele>
        <time>2019-07-09T12:29:14Z</time>
      </trkpt>
      <trkpt lat="39.8555170" lon="-6.0243400">
        <ele>345.0</ele>
        <time>2019-07-09T12:29:17Z</time>
      </trkpt>
      <trkpt lat="39.8555970" lon="-6.0245420">
        <ele>344.4</ele>
        <time>2019-07-09T12:29:19Z</time>
      </trkpt>
      <trkpt lat="39.8556380" lon="-6.0246420">
        <ele>344.0</ele>
        <time>2019-07-09T12:29:20Z</time>
      </trkpt>
      <trkpt lat="39.8557840" lon="-6.0250490">
        <ele>343.0</ele>
        <time>2019-07-09T12:29:24Z</time>
      </trkpt>
      <trkpt lat="39.8558090" lon="-6.0251560">
        <ele>342.6</ele>
        <time>2019-07-09T12:29:25Z</time>
      </trkpt>
      <trkpt lat="39.8558190" lon="-6.0252700">
        <ele>342.4</ele>
        <time>2019-07-09T12:29:26Z</time>
      </trkpt>
      <trkpt lat="39.8557920" lon="-6.0254980">
        <ele>341.6</ele>
        <time>2019-07-09T12:29:28Z</time>
      </trkpt>
      <trkpt lat="39.8557630" lon="-6.0256060">
        <ele>341.4</ele>
        <time>2019-07-09T12:29:29Z</time>
      </trkpt>
      <trkpt lat="39.8556880" lon="-6.0258140">
        <ele>340.8</ele>
        <time>2019-07-09T12:29:31Z</time>
      </trkpt>
      <trkpt lat="39.8556480" lon="-6.0259170">
        <ele>340.4</ele>
        <time>2019-07-09T12:29:32Z</time>
      </trkpt>
      <trkpt lat="39.8555830" lon="-6.0261340">
        <ele>339.8</ele>
        <time>2019-07-09T12:29:34Z</time>
      </trkpt>
      <trkpt lat="39.8555440" lon="-6.0263540">
        <ele>339.2</ele>
        <time>2019-07-09T12:29:36Z</time>
      </trkpt>
      <trkpt lat="39.8555360" lon="-6.0264570">
        <ele>339.0</ele>
        <time>2019-07-09T12:29:37Z</time>
      </trkpt>
      <trkpt lat="39.8555390" lon="-6.0265480">
        <ele>338.6</ele>
        <time>2019-07-09T12:29:38Z</time>
      </trkpt>
      <trkpt lat="39.8555460" lon="-6.0266280">
        <ele>338.2</ele>
        <time>2019-07-09T12:29:39Z</time>
      </trkpt>
      <trkpt lat="39.8555430" lon="-6.0267010">
        <ele>337.8</ele>
        <time>2019-07-09T12:29:40Z</time>
      </trkpt>
      <trkpt lat="39.8555200" lon="-6.0267620">
        <ele>337.6</ele>
        <time>2019-07-09T12:29:41Z</time>
      </trkpt>
      <trkpt lat="39.8553690" lon="-6.0268410">
        <ele>337.0</ele>
        <time>2019-07-09T12:29:44Z</time>
      </trkpt>
      <trkpt lat="39.8552500" lon="-6.0268310">
        <ele>336.8</ele>
        <time>2019-07-09T12:29:46Z</time>
      </trkpt>
      <trkpt lat="39.8550680" lon="-6.0268030">
        <ele>336.4</ele>
        <time>2019-07-09T12:29:49Z</time>
      </trkpt>
      <trkpt lat="39.8549440" lon="-6.0267910">
        <ele>336.0</ele>
        <time>2019-07-09T12:29:51Z</time>
      </trkpt>
      <trkpt lat="39.8548190" lon="-6.0267730">
        <ele>335.8</ele>
        <time>2019-07-09T12:29:53Z</time>
      </trkpt>
      <trkpt lat="39.8546920" lon="-6.0267440">
        <ele>335.4</ele>
        <time>2019-07-09T12:29:55Z</time>
      </trkpt>
      <trkpt lat="39.8546290" lon="-6.0267210">
        <ele>335.2</ele>
        <time>2019-07-09T12:29:56Z</time>
      </trkpt>
      <trkpt lat="39.8544620" lon="-6.0265850">
        <ele>335.0</ele>
        <time>2019-07-09T12:29:59Z</time>
      </trkpt>
      <trkpt lat="39.8543390" lon="-6.0263890">
        <ele>334.4</ele>
        <time>2019-07-09T12:30:02Z</time>
      </trkpt>
      <trkpt lat="39.8543040" lon="-6.0263180">
        <ele>334.2</ele>
        <time>2019-07-09T12:30:03Z</time>
      </trkpt>
      <trkpt lat="39.8542730" lon="-6.0262460">
        <ele>334.2</ele>
        <time>2019-07-09T12:30:04Z</time>
      </trkpt>
      <trkpt lat="39.8542160" lon="-6.0260990">
        <ele>333.8</ele>
        <time>2019-07-09T12:30:06Z</time>
      </trkpt>
      <trkpt lat="39.8541480" lon="-6.0259560">
        <ele>333.4</ele>
        <time>2019-07-09T12:30:08Z</time>
      </trkpt>
      <trkpt lat="39.8539950" lon="-6.0255990">
        <ele>332.8</ele>
        <time>2019-07-09T12:30:13Z</time>
      </trkpt>
      <trkpt lat="39.8539050" lon="-6.0253830">
        <ele>332.4</ele>
        <time>2019-07-09T12:30:16Z</time>
      </trkpt>
      <trkpt lat="39.8537100" lon="-6.0249530">
        <ele>331.6</ele>
        <time>2019-07-09T12:30:22Z</time>
      </trkpt>
      <trkpt lat="39.8535970" lon="-6.0247390">
        <ele>330.8</ele>
        <time>2019-07-09T12:30:25Z</time>
      </trkpt>
      <trkpt lat="39.8535550" lon="-6.0246730">
        <ele>330.6</ele>
        <time>2019-07-09T12:30:26Z</time>
      </trkpt>
      <trkpt lat="39.8535080" lon="-6.0246120">
        <ele>330.6</ele>
        <time>2019-07-09T12:30:27Z</time>
      </trkpt>
      <trkpt lat="39.8534060" lon="-6.0245000">
        <ele>330.4</ele>
        <time>2019-07-09T12:30:29Z</time>
      </trkpt>
      <trkpt lat="39.8533490" lon="-6.0244530">
        <ele>330.4</ele>
        <time>2019-07-09T12:30:30Z</time>
      </trkpt>
      <trkpt lat="39.8530980" lon="-6.0243290">
        <ele>329.8</ele>
        <time>2019-07-09T12:30:34Z</time>
      </trkpt>
      <trkpt lat="39.8530310" lon="-6.0243180">
        <ele>329.6</ele>
        <time>2019-07-09T12:30:35Z</time>
      </trkpt>
      <trkpt lat="39.8528290" lon="-6.0243160">
        <ele>329.0</ele>
        <time>2019-07-09T12:30:38Z</time>
      </trkpt>
      <trkpt lat="39.8527620" lon="-6.0243310">
        <ele>329.0</ele>
        <time>2019-07-09T12:30:39Z</time>
      </trkpt>
      <trkpt lat="39.8526320" lon="-6.0243740">
        <ele>328.8</ele>
        <time>2019-07-09T12:30:41Z</time>
      </trkpt>
      <trkpt lat="39.8524400" lon="-6.0244560">
        <ele>328.4</ele>
        <time>2019-07-09T12:30:44Z</time>
      </trkpt>
      <trkpt lat="39.8523140" lon="-6.0245200">
        <ele>328.2</ele>
        <time>2019-07-09T12:30:46Z</time>
      </trkpt>
      <trkpt lat="39.8519980" lon="-6.0246660">
        <ele>327.4</ele>
        <time>2019-07-09T12:30:51Z</time>
      </trkpt>
      <trkpt lat="39.8517440" lon="-6.0247780">
        <ele>326.8</ele>
        <time>2019-07-09T12:30:55Z</time>
      </trkpt>
      <trkpt lat="39.8516840" lon="-6.0248210">
        <ele>326.6</ele>
        <time>2019-07-09T12:30:56Z</time>
      </trkpt>
      <trkpt lat="39.8516250" lon="-6.0248670">
        <ele>326.2</ele>
        <time>2019-07-09T12:30:57Z</time>
      </trkpt>
      <trkpt lat="39.8514500" lon="-6.0250280">
        <ele>325.8</ele>
        <time>2019-07-09T12:31:00Z</time>
      </trkpt>
      <trkpt lat="39.8514000" lon="-6.0251020">
        <ele>325.6</ele>
        <time>2019-07-09T12:31:01Z</time>
      </trkpt>
      <trkpt lat="39.8513270" lon="-6.0252760">
        <ele>325.0</ele>
        <time>2019-07-09T12:31:03Z</time>
      </trkpt>
      <trkpt lat="39.8513000" lon="-6.0253700">
        <ele>324.8</ele>
        <time>2019-07-09T12:31:04Z</time>
      </trkpt>
      <trkpt lat="39.8512750" lon="-6.0254670">
        <ele>324.6</ele>
        <time>2019-07-09T12:31:05Z</time>
      </trkpt>
      <trkpt lat="39.8512320" lon="-6.0257690">
        <ele>324.0</ele>
        <time>2019-07-09T12:31:08Z</time>
      </trkpt>
      <trkpt lat="39.8512310" lon="-6.0258720">
        <ele>323.6</ele>
        <time>2019-07-09T12:31:09Z</time>
      </trkpt>
      <trkpt lat="39.8512670" lon="-6.0261790">
        <ele>322.8</ele>
        <time>2019-07-09T12:31:12Z</time>
      </trkpt>
      <trkpt lat="39.8512880" lon="-6.0262800">
        <ele>322.4</ele>
        <time>2019-07-09T12:31:13Z</time>
      </trkpt>
      <trkpt lat="39.8513560" lon="-6.0265820">
        <ele>321.6</ele>
        <time>2019-07-09T12:31:16Z</time>
      </trkpt>
      <trkpt lat="39.8513670" lon="-6.0266850">
        <ele>321.4</ele>
        <time>2019-07-09T12:31:17Z</time>
      </trkpt>
      <trkpt lat="39.8513680" lon="-6.0267900">
        <ele>321.0</ele>
        <time>2019-07-09T12:31:18Z</time>
      </trkpt>
      <trkpt lat="39.8513440" lon="-6.0269880">
        <ele>320.4</ele>
        <time>2019-07-09T12:31:20Z</time>
      </trkpt>
      <trkpt lat="39.8512900" lon="-6.0271590">
        <ele>320.0</ele>
        <time>2019-07-09T12:31:22Z</time>
      </trkpt>
      <trkpt lat="39.8512580" lon="-6.0272380">
        <ele>319.8</ele>
        <time>2019-07-09T12:31:23Z</time>
      </trkpt>
      <trkpt lat="39.8511940" lon="-6.0273920">
        <ele>319.8</ele>
        <time>2019-07-09T12:31:25Z</time>
      </trkpt>
      <trkpt lat="39.8511280" lon="-6.0275510">
        <ele>319.4</ele>
        <time>2019-07-09T12:31:27Z</time>
      </trkpt>
      <trkpt lat="39.8510970" lon="-6.0276340">
        <ele>319.2</ele>
        <time>2019-07-09T12:31:28Z</time>
      </trkpt>
      <trkpt lat="39.8510680" lon="-6.0277200">
        <ele>319.0</ele>
        <time>2019-07-09T12:31:29Z</time>
      </trkpt>
      <trkpt lat="39.8509830" lon="-6.0279880">
        <ele>318.2</ele>
        <time>2019-07-09T12:31:32Z</time>
      </trkpt>
      <trkpt lat="39.8509600" lon="-6.0280850">
        <ele>318.0</ele>
        <time>2019-07-09T12:31:33Z</time>
      </trkpt>
      <trkpt lat="39.8509340" lon="-6.0282880">
        <ele>317.6</ele>
        <time>2019-07-09T12:31:35Z</time>
      </trkpt>
      <trkpt lat="39.8509280" lon="-6.0286030">
        <ele>316.8</ele>
        <time>2019-07-09T12:31:38Z</time>
      </trkpt>
      <trkpt lat="39.8509320" lon="-6.0288200">
        <ele>316.2</ele>
        <time>2019-07-09T12:31:40Z</time>
      </trkpt>
      <trkpt lat="39.8509390" lon="-6.0290420">
        <ele>315.6</ele>
        <time>2019-07-09T12:31:42Z</time>
      </trkpt>
      <trkpt lat="39.8509530" lon="-6.0293870">
        <ele>314.4</ele>
        <time>2019-07-09T12:31:45Z</time>
      </trkpt>
      <trkpt lat="39.8509550" lon="-6.0296220">
        <ele>313.8</ele>
        <time>2019-07-09T12:31:47Z</time>
      </trkpt>
      <trkpt lat="39.8509450" lon="-6.0297410">
        <ele>313.4</ele>
        <time>2019-07-09T12:31:48Z</time>
      </trkpt>
      <trkpt lat="39.8508550" lon="-6.0300790">
        <ele>312.6</ele>
        <time>2019-07-09T12:31:51Z</time>
      </trkpt>
      <trkpt lat="39.8508100" lon="-6.0301850">
        <ele>312.2</ele>
        <time>2019-07-09T12:31:52Z</time>
      </trkpt>
      <trkpt lat="39.8507070" lon="-6.0303840">
        <ele>311.8</ele>
        <time>2019-07-09T12:31:54Z</time>
      </trkpt>
      <trkpt lat="39.8505790" lon="-6.0305420">
        <ele>311.4</ele>
        <time>2019-07-09T12:31:56Z</time>
      </trkpt>
      <trkpt lat="39.8505050" lon="-6.0306020">
        <ele>311.2</ele>
        <time>2019-07-09T12:31:57Z</time>
      </trkpt>
      <trkpt lat="39.8504290" lon="-6.0306550">
        <ele>310.8</ele>
        <time>2019-07-09T12:31:58Z</time>
      </trkpt>
      <trkpt lat="39.8502800" lon="-6.0307620">
        <ele>310.4</ele>
        <time>2019-07-09T12:32:00Z</time>
      </trkpt>
      <trkpt lat="39.8501390" lon="-6.0308700">
        <ele>310.0</ele>
        <time>2019-07-09T12:32:02Z</time>
      </trkpt>
      <trkpt lat="39.8500030" lon="-6.0309890">
        <ele>309.4</ele>
        <time>2019-07-09T12:32:04Z</time>
      </trkpt>
      <trkpt lat="39.8499430" lon="-6.0310640">
        <ele>309.0</ele>
        <time>2019-07-09T12:32:05Z</time>
      </trkpt>
      <trkpt lat="39.8498280" lon="-6.0313460">
        <ele>308.0</ele>
        <time>2019-07-09T12:32:08Z</time>
      </trkpt>
      <trkpt lat="39.8497970" lon="-6.0314450">
        <ele>307.8</ele>
        <time>2019-07-09T12:32:09Z</time>
      </trkpt>
      <trkpt lat="39.8497120" lon="-6.0316310">
        <ele>307.6</ele>
        <time>2019-07-09T12:32:11Z</time>
      </trkpt>
      <trkpt lat="39.8496510" lon="-6.0317040">
        <ele>307.2</ele>
        <time>2019-07-09T12:32:12Z</time>
      </trkpt>
      <trkpt lat="39.8494990" lon="-6.0318070">
        <ele>306.8</ele>
        <time>2019-07-09T12:32:14Z</time>
      </trkpt>
      <trkpt lat="39.8494150" lon="-6.0318350">
        <ele>306.6</ele>
        <time>2019-07-09T12:32:15Z</time>
      </trkpt>
      <trkpt lat="39.8491610" lon="-6.0318250">
        <ele>305.8</ele>
        <time>2019-07-09T12:32:18Z</time>
      </trkpt>
      <trkpt lat="39.8490800" lon="-6.0317990">
        <ele>305.6</ele>
        <time>2019-07-09T12:32:19Z</time>
      </trkpt>
      <trkpt lat="39.8489250" lon="-6.0317400">
        <ele>305.2</ele>
        <time>2019-07-09T12:32:21Z</time>
      </trkpt>
      <trkpt lat="39.8487100" lon="-6.0316400">
        <ele>304.8</ele>
        <time>2019-07-09T12:32:24Z</time>
      </trkpt>
      <trkpt lat="39.8486420" lon="-6.0316060">
        <ele>304.6</ele>
        <time>2019-07-09T12:32:25Z</time>
      </trkpt>
      <trkpt lat="39.8483400" lon="-6.0314520">
        <ele>304.2</ele>
        <time>2019-07-09T12:32:30Z</time>
      </trkpt>
      <trkpt lat="39.8480300" lon="-6.0313120">
        <ele>304.0</ele>
        <time>2019-07-09T12:32:36Z</time>
      </trkpt>
      <trkpt lat="39.8478380" lon="-6.0312200">
        <ele>303.4</ele>
        <time>2019-07-09T12:32:41Z</time>
      </trkpt>
      <trkpt lat="39.8477670" lon="-6.0311910">
        <ele>303.2</ele>
        <time>2019-07-09T12:32:43Z</time>
      </trkpt>
      <trkpt lat="39.8474950" lon="-6.0310380">
        <ele>303.2</ele>
        <time>2019-07-09T12:32:51Z</time>
      </trkpt>
      <trkpt lat="39.8474280" lon="-6.0309600">
        <ele>303.2</ele>
        <time>2019-07-09T12:32:54Z</time>
      </trkpt>
      <trkpt lat="39.8474160" lon="-6.0309260">
        <ele>303.2</ele>
        <time>2019-07-09T12:32:55Z</time>
      </trkpt>
      <trkpt lat="39.8473370" lon="-6.0308000">
        <ele>302.6</ele>
        <time>2019-07-09T12:32:58Z</time>
      </trkpt>
      <trkpt lat="39.8473130" lon="-6.0307540">
        <ele>302.4</ele>
        <time>2019-07-09T12:32:59Z</time>
      </trkpt>
      <trkpt lat="39.8473140" lon="-6.0306070">
        <ele>301.6</ele>
        <time>2019-07-09T12:33:02Z</time>
      </trkpt>
      <trkpt lat="39.8473580" lon="-6.0303160">
        <ele>300.8</ele>
        <time>2019-07-09T12:33:08Z</time>
      </trkpt>
      <trkpt lat="39.8474040" lon="-6.0297350">
        <ele>306.2</ele>
        <time>2019-07-09T12:52:31Z</time>
      </trkpt>
      <trkpt lat="39.8474270" lon="-6.0298640">
        <ele>306.0</ele>
        <time>2019-07-09T12:52:34Z</time>
      </trkpt>
      <trkpt lat="39.8473950" lon="-6.0300710">
        <ele>305.0</ele>
        <time>2019-07-09T12:52:37Z</time>
      </trkpt>
      <trkpt lat="39.8473810" lon="-6.0301520">
        <ele>304.8</ele>
        <time>2019-07-09T12:52:38Z</time>
      </trkpt>
      <trkpt lat="39.8473410" lon="-6.0304060">
        <ele>303.6</ele>
        <time>2019-07-09T12:52:41Z</time>
      </trkpt>
      <trkpt lat="39.8473360" lon="-6.0305650">
        <ele>303.2</ele>
        <time>2019-07-09T12:52:43Z</time>
      </trkpt>
      <trkpt lat="39.8473430" lon="-6.0307760">
        <ele>303.2</ele>
        <time>2019-07-09T12:52:46Z</time>
      </trkpt>
      <trkpt lat="39.8473580" lon="-6.0308340">
        <ele>303.2</ele>
        <time>2019-07-09T12:52:47Z</time>
      </trkpt>
      <trkpt lat="39.8474050" lon="-6.0309110">
        <ele>303.6</ele>
        <time>2019-07-09T12:52:49Z</time>
      </trkpt>
      <trkpt lat="39.8474340" lon="-6.0309750">
        <ele>304.2</ele>
        <time>2019-07-09T12:52:51Z</time>
      </trkpt>
      <trkpt lat="39.8474630" lon="-6.0310170">
        <ele>304.8</ele>
        <time>2019-07-09T12:52:53Z</time>
      </trkpt>
      <trkpt lat="39.8474870" lon="-6.0310320">
        <ele>305.0</ele>
        <time>2019-07-09T12:52:54Z</time>
      </trkpt>
      <trkpt lat="39.8476060" lon="-6.0310750">
        <ele>305.4</ele>
        <time>2019-07-09T12:52:58Z</time>
      </trkpt>
      <trkpt lat="39.8476730" lon="-6.0311060">
        <ele>305.4</ele>
        <time>2019-07-09T12:53:00Z</time>
      </trkpt>
      <trkpt lat="39.8477460" lon="-6.0311400">
        <ele>305.6</ele>
        <time>2019-07-09T12:53:02Z</time>
      </trkpt>
      <trkpt lat="39.8479760" lon="-6.0312270">
        <ele>306.0</ele>
        <time>2019-07-09T12:53:08Z</time>
      </trkpt>
      <trkpt lat="39.8481320" lon="-6.0312890">
        <ele>306.2</ele>
        <time>2019-07-09T12:53:12Z</time>
      </trkpt>
      <trkpt lat="39.8483670" lon="-6.0313980">
        <ele>306.4</ele>
        <time>2019-07-09T12:53:18Z</time>
      </trkpt>
      <trkpt lat="39.8484060" lon="-6.0314170">
        <ele>306.4</ele>
        <time>2019-07-09T12:53:19Z</time>
      </trkpt>
      <trkpt lat="39.8485620" lon="-6.0314970">
        <ele>306.6</ele>
        <time>2019-07-09T12:53:23Z</time>
      </trkpt>
      <trkpt lat="39.8488090" lon="-6.0315960">
        <ele>307.2</ele>
        <time>2019-07-09T12:53:29Z</time>
      </trkpt>
      <trkpt lat="39.8491710" lon="-6.0317630">
        <ele>307.2</ele>
        <time>2019-07-09T12:53:38Z</time>
      </trkpt>
      <trkpt lat="39.8493840" lon="-6.0318030">
        <ele>307.6</ele>
        <time>2019-07-09T12:53:43Z</time>
      </trkpt>
      <trkpt lat="39.8494270" lon="-6.0317980">
        <ele>307.6</ele>
        <time>2019-07-09T12:53:44Z</time>
      </trkpt>
      <trkpt lat="39.8495780" lon="-6.0317110">
        <ele>308.2</ele>
        <time>2019-07-09T12:53:48Z</time>
      </trkpt>
      <trkpt lat="39.8496100" lon="-6.0316770">
        <ele>308.2</ele>
        <time>2019-07-09T12:53:49Z</time>
      </trkpt>
      <trkpt lat="39.8497120" lon="-6.0315240">
        <ele>308.8</ele>
        <time>2019-07-09T12:53:53Z</time>
      </trkpt>
      <trkpt lat="39.8497450" lon="-6.0314370">
        <ele>309.2</ele>
        <time>2019-07-09T12:53:55Z</time>
      </trkpt>
      <trkpt lat="39.8498570" lon="-6.0311290">
        <ele>309.8</ele>
        <time>2019-07-09T12:54:02Z</time>
      </trkpt>
      <trkpt lat="39.8498960" lon="-6.0310420">
        <ele>310.0</ele>
        <time>2019-07-09T12:54:04Z</time>
      </trkpt>
      <trkpt lat="39.8500600" lon="-6.0308260">
        <ele>310.8</ele>
        <time>2019-07-09T12:54:10Z</time>
      </trkpt>
      <trkpt lat="39.8501250" lon="-6.0307710">
        <ele>310.8</ele>
        <time>2019-07-09T12:54:12Z</time>
      </trkpt>
      <trkpt lat="39.8503290" lon="-6.0306250">
        <ele>311.6</ele>
        <time>2019-07-09T12:54:18Z</time>
      </trkpt>
      <trkpt lat="39.8503960" lon="-6.0305750">
        <ele>312.0</ele>
        <time>2019-07-09T12:54:20Z</time>
      </trkpt>
      <trkpt lat="39.8506070" lon="-6.0304300">
        <ele>312.8</ele>
        <time>2019-07-09T12:54:26Z</time>
      </trkpt>
      <trkpt lat="39.8506880" lon="-6.0303280">
        <ele>313.2</ele>
        <time>2019-07-09T12:54:29Z</time>
      </trkpt>
      <trkpt lat="39.8507510" lon="-6.0302020">
        <ele>313.6</ele>
        <time>2019-07-09T12:54:32Z</time>
      </trkpt>
      <trkpt lat="39.8508770" lon="-6.0298640">
        <ele>314.2</ele>
        <time>2019-07-09T12:54:39Z</time>
      </trkpt>
      <trkpt lat="39.8508890" lon="-6.0298140">
        <ele>314.2</ele>
        <time>2019-07-09T12:54:40Z</time>
      </trkpt>
      <trkpt lat="39.8509330" lon="-6.0294620">
        <ele>315.2</ele>
        <time>2019-07-09T12:54:47Z</time>
      </trkpt>
      <trkpt lat="39.8509290" lon="-6.0293620">
        <ele>315.4</ele>
        <time>2019-07-09T12:54:49Z</time>
      </trkpt>
      <trkpt lat="39.8509220" lon="-6.0290820">
        <ele>316.2</ele>
        <time>2019-07-09T12:54:55Z</time>
      </trkpt>
      <trkpt lat="39.8509130" lon="-6.0289880">
        <ele>316.4</ele>
        <time>2019-07-09T12:54:57Z</time>
      </trkpt>
      <trkpt lat="39.8508990" lon="-6.0286590">
        <ele>317.6</ele>
        <time>2019-07-09T12:55:04Z</time>
      </trkpt>
      <trkpt lat="39.8508980" lon="-6.0286110">
        <ele>317.6</ele>
        <time>2019-07-09T12:55:05Z</time>
      </trkpt>
      <trkpt lat="39.8508990" lon="-6.0283720">
        <ele>318.6</ele>
        <time>2019-07-09T12:55:10Z</time>
      </trkpt>
      <trkpt lat="39.8509030" lon="-6.0282770">
        <ele>319.2</ele>
        <time>2019-07-09T12:55:12Z</time>
      </trkpt>
      <trkpt lat="39.8509530" lon="-6.0279520">
        <ele>319.8</ele>
        <time>2019-07-09T12:55:19Z</time>
      </trkpt>
      <trkpt lat="39.8509630" lon="-6.0279070">
        <ele>320.0</ele>
        <time>2019-07-09T12:55:20Z</time>
      </trkpt>
      <trkpt lat="39.8510540" lon="-6.0275950">
        <ele>321.0</ele>
        <time>2019-07-09T12:55:27Z</time>
      </trkpt>
      <trkpt lat="39.8510710" lon="-6.0275520">
        <ele>321.0</ele>
        <time>2019-07-09T12:55:28Z</time>
      </trkpt>
      <trkpt lat="39.8512020" lon="-6.0272440">
        <ele>322.0</ele>
        <time>2019-07-09T12:55:35Z</time>
      </trkpt>
      <trkpt lat="39.8512230" lon="-6.0272010">
        <ele>322.0</ele>
        <time>2019-07-09T12:55:36Z</time>
      </trkpt>
      <trkpt lat="39.8512990" lon="-6.0270060">
        <ele>322.2</ele>
        <time>2019-07-09T12:55:40Z</time>
      </trkpt>
      <trkpt lat="39.8513300" lon="-6.0268890">
        <ele>322.2</ele>
        <time>2019-07-09T12:55:42Z</time>
      </trkpt>
      <trkpt lat="39.8513400" lon="-6.0268260">
        <ele>322.2</ele>
        <time>2019-07-09T12:55:43Z</time>
      </trkpt>
      <trkpt lat="39.8513270" lon="-6.0265220">
        <ele>322.4</ele>
        <time>2019-07-09T12:55:48Z</time>
      </trkpt>
      <trkpt lat="39.8513050" lon="-6.0264190">
        <ele>322.6</ele>
        <time>2019-07-09T12:55:50Z</time>
      </trkpt>
      <trkpt lat="39.8512850" lon="-6.0263230">
        <ele>323.0</ele>
        <time>2019-07-09T12:55:52Z</time>
      </trkpt>
      <trkpt lat="39.8512500" lon="-6.0261860">
        <ele>323.4</ele>
        <time>2019-07-09T12:55:55Z</time>
      </trkpt>
      <trkpt lat="39.8512110" lon="-6.0259010">
        <ele>324.2</ele>
        <time>2019-07-09T12:56:01Z</time>
      </trkpt>
      <trkpt lat="39.8512090" lon="-6.0258530">
        <ele>324.4</ele>
        <time>2019-07-09T12:56:02Z</time>
      </trkpt>
      <trkpt lat="39.8512240" lon="-6.0256150">
        <ele>325.2</ele>
        <time>2019-07-09T12:56:07Z</time>
      </trkpt>
      <trkpt lat="39.8512450" lon="-6.0254690">
        <ele>325.4</ele>
        <time>2019-07-09T12:56:10Z</time>
      </trkpt>
      <trkpt lat="39.8512890" lon="-6.0252860">
        <ele>326.2</ele>
        <time>2019-07-09T12:56:14Z</time>
      </trkpt>
      <trkpt lat="39.8513550" lon="-6.0251210">
        <ele>326.8</ele>
        <time>2019-07-09T12:56:18Z</time>
      </trkpt>
      <trkpt lat="39.8515060" lon="-6.0249220">
        <ele>327.6</ele>
        <time>2019-07-09T12:56:24Z</time>
      </trkpt>
      <trkpt lat="39.8515370" lon="-6.0248980">
        <ele>327.6</ele>
        <time>2019-07-09T12:56:25Z</time>
      </trkpt>
      <trkpt lat="39.8517250" lon="-6.0247470">
        <ele>328.6</ele>
        <time>2019-07-09T12:56:31Z</time>
      </trkpt>
      <trkpt lat="39.8517580" lon="-6.0247270">
        <ele>328.8</ele>
        <time>2019-07-09T12:56:32Z</time>
      </trkpt>
      <trkpt lat="39.8520100" lon="-6.0246170">
        <ele>329.8</ele>
        <time>2019-07-09T12:56:39Z</time>
      </trkpt>
      <trkpt lat="39.8520470" lon="-6.0246030">
        <ele>329.8</ele>
        <time>2019-07-09T12:56:40Z</time>
      </trkpt>
      <trkpt lat="39.8523370" lon="-6.0244640">
        <ele>330.4</ele>
        <time>2019-07-09T12:56:48Z</time>
      </trkpt>
      <trkpt lat="39.8526420" lon="-6.0243390">
        <ele>330.8</ele>
        <time>2019-07-09T12:56:56Z</time>
      </trkpt>
      <trkpt lat="39.8526810" lon="-6.0243260">
        <ele>331.0</ele>
        <time>2019-07-09T12:56:57Z</time>
      </trkpt>
      <trkpt lat="39.8529680" lon="-6.0242840">
        <ele>331.6</ele>
        <time>2019-07-09T12:57:04Z</time>
      </trkpt>
      <trkpt lat="39.8530560" lon="-6.0242820">
        <ele>331.8</ele>
        <time>2019-07-09T12:57:06Z</time>
      </trkpt>
      <trkpt lat="39.8531840" lon="-6.0243190">
        <ele>332.2</ele>
        <time>2019-07-09T12:57:09Z</time>
      </trkpt>
      <trkpt lat="39.8532650" lon="-6.0243550">
        <ele>332.4</ele>
        <time>2019-07-09T12:57:11Z</time>
      </trkpt>
      <trkpt lat="39.8534140" lon="-6.0244790">
        <ele>332.8</ele>
        <time>2019-07-09T12:57:15Z</time>
      </trkpt>
      <trkpt lat="39.8535220" lon="-6.0245870">
        <ele>333.0</ele>
        <time>2019-07-09T12:57:18Z</time>
      </trkpt>
      <trkpt lat="39.8536530" lon="-6.0247630">
        <ele>333.6</ele>
        <time>2019-07-09T12:57:22Z</time>
      </trkpt>
      <trkpt lat="39.8538140" lon="-6.0250700">
        <ele>334.2</ele>
        <time>2019-07-09T12:57:28Z</time>
      </trkpt>
      <trkpt lat="39.8538360" lon="-6.0251250">
        <ele>334.4</ele>
        <time>2019-07-09T12:57:29Z</time>
      </trkpt>
      <trkpt lat="39.8540640" lon="-6.0256530">
        <ele>335.4</ele>
        <time>2019-07-09T12:57:39Z</time>
      </trkpt>
      <trkpt lat="39.8542550" lon="-6.0261190">
        <ele>336.4</ele>
        <time>2019-07-09T12:57:48Z</time>
      </trkpt>
      <trkpt lat="39.8544110" lon="-6.0264680">
        <ele>337.2</ele>
        <time>2019-07-09T12:57:55Z</time>
      </trkpt>
      <trkpt lat="39.8544660" lon="-6.0265570">
        <ele>337.4</ele>
        <time>2019-07-09T12:57:57Z</time>
      </trkpt>
      <trkpt lat="39.8545000" lon="-6.0265940">
        <ele>337.4</ele>
        <time>2019-07-09T12:57:58Z</time>
      </trkpt>
      <trkpt lat="39.8545760" lon="-6.0266560">
        <ele>337.4</ele>
        <time>2019-07-09T12:58:00Z</time>
      </trkpt>
      <trkpt lat="39.8547440" lon="-6.0267140">
        <ele>337.8</ele>
        <time>2019-07-09T12:58:04Z</time>
      </trkpt>
      <trkpt lat="39.8547870" lon="-6.0267220">
        <ele>337.8</ele>
        <time>2019-07-09T12:58:05Z</time>
      </trkpt>
      <trkpt lat="39.8549560" lon="-6.0267490">
        <ele>338.4</ele>
        <time>2019-07-09T12:58:09Z</time>
      </trkpt>
      <trkpt lat="39.8552080" lon="-6.0267830">
        <ele>339.0</ele>
        <time>2019-07-09T12:58:15Z</time>
      </trkpt>
      <trkpt lat="39.8552490" lon="-6.0267930">
        <ele>339.2</ele>
        <time>2019-07-09T12:58:16Z</time>
      </trkpt>
      <trkpt lat="39.8554500" lon="-6.0268660">
        <ele>339.4</ele>
        <time>2019-07-09T12:58:21Z</time>
      </trkpt>
      <trkpt lat="39.8554890" lon="-6.0268830">
        <ele>339.6</ele>
        <time>2019-07-09T12:58:22Z</time>
      </trkpt>
      <trkpt lat="39.8556080" lon="-6.0270020">
        <ele>339.8</ele>
        <time>2019-07-09T12:58:26Z</time>
      </trkpt>
      <trkpt lat="39.8555740" lon="-6.0270780">
        <ele>340.0</ele>
        <time>2019-07-09T12:58:28Z</time>
      </trkpt>
      <trkpt lat="39.8554440" lon="-6.0270850">
        <ele>339.8</ele>
        <time>2019-07-09T12:58:31Z</time>
      </trkpt>
      <trkpt lat="39.8553750" lon="-6.0271550">
        <ele>339.0</ele>
        <time>2019-07-09T12:58:34Z</time>
      </trkpt>
      <trkpt lat="39.8553690" lon="-6.0272460">
        <ele>338.4</ele>
        <time>2019-07-09T12:58:36Z</time>
      </trkpt>
      <trkpt lat="39.8553960" lon="-6.0273330">
        <ele>337.6</ele>
        <time>2019-07-09T12:58:38Z</time>
      </trkpt>
      <trkpt lat="39.8554210" lon="-6.0273690">
        <ele>337.0</ele>
        <time>2019-07-09T12:58:39Z</time>
      </trkpt>
      <trkpt lat="39.8555330" lon="-6.0274230">
        <ele>336.4</ele>
        <time>2019-07-09T12:58:42Z</time>
      </trkpt>
      <trkpt lat="39.8555740" lon="-6.0274330">
        <ele>336.4</ele>
        <time>2019-07-09T12:58:43Z</time>
      </trkpt>
      <trkpt lat="39.8556590" lon="-6.0274530">
        <ele>336.2</ele>
        <time>2019-07-09T12:58:45Z</time>
      </trkpt>
      <trkpt lat="39.8557030" lon="-6.0274630">
        <ele>335.8</ele>
        <time>2019-07-09T12:58:46Z</time>
      </trkpt>
      <trkpt lat="39.8557750" lon="-6.0275020">
        <ele>335.4</ele>
        <time>2019-07-09T12:58:48Z</time>
      </trkpt>
      <trkpt lat="39.8558010" lon="-6.0275280">
        <ele>335.4</ele>
        <time>2019-07-09T12:58:49Z</time>
      </trkpt>
      <trkpt lat="39.8558820" lon="-6.0276730">
        <ele>335.4</ele>
        <time>2019-07-09T12:58:54Z</time>
      </trkpt>
      <trkpt lat="39.8559230" lon="-6.0278250">
        <ele>335.8</ele>
        <time>2019-07-09T12:59:00Z</time>
      </trkpt>
      <trkpt lat="39.8559680" lon="-6.0279350">
        <ele>335.6</ele>
        <time>2019-07-09T12:59:05Z</time>
      </trkpt>
      <trkpt lat="39.8559690" lon="-6.0279670">
        <ele>335.6</ele>
        <time>2019-07-09T12:59:07Z</time>
      </trkpt>
      <trkpt lat="39.8559510" lon="-6.0279740">
        <ele>335.6</ele>
        <time>2019-07-09T12:59:09Z</time>
      </trkpt>
      <trkpt lat="39.8559450" lon="-6.0279570">
        <ele>335.8</ele>
        <time>2019-07-09T12:59:11Z</time>
      </trkpt>
      <trkpt lat="39.8559400" lon="-6.0279170">
        <ele>336.2</ele>
        <time>2019-07-09T12:59:13Z</time>
      </trkpt>
      <trkpt lat="39.8559360" lon="-6.0278910">
        <ele>336.2</ele>
        <time>2019-07-09T12:59:14Z</time>
      </trkpt>
      <trkpt lat="39.8558770" lon="-6.0276460">
        <ele>336.0</ele>
        <time>2019-07-09T12:59:21Z</time>
      </trkpt>
      <trkpt lat="39.8557560" lon="-6.0274690">
        <ele>335.8</ele>
        <time>2019-07-09T12:59:26Z</time>
      </trkpt>
      <trkpt lat="39.8556590" lon="-6.0274390">
        <ele>336.0</ele>
        <time>2019-07-09T12:59:29Z</time>
      </trkpt>
      <trkpt lat="39.8555960" lon="-6.0274320">
        <ele>336.2</ele>
        <time>2019-07-09T12:59:31Z</time>
      </trkpt>
      <trkpt lat="39.8554600" lon="-6.0273540">
        <ele>336.4</ele>
        <time>2019-07-09T12:59:36Z</time>
      </trkpt>
      <trkpt lat="39.8553860" lon="-6.0272420">
        <ele>336.8</ele>
        <time>2019-07-09T12:59:40Z</time>
      </trkpt>
      <trkpt lat="39.8553770" lon="-6.0272120">
        <ele>337.0</ele>
        <time>2019-07-09T12:59:41Z</time>
      </trkpt>
      <trkpt lat="39.8553730" lon="-6.0271850">
        <ele>337.4</ele>
        <time>2019-07-09T12:59:42Z</time>
      </trkpt>
      <trkpt lat="39.8553830" lon="-6.0271040">
        <ele>338.0</ele>
        <time>2019-07-09T12:59:45Z</time>
      </trkpt>
      <trkpt lat="39.8553910" lon="-6.0270820">
        <ele>338.2</ele>
        <time>2019-07-09T12:59:46Z</time>
      </trkpt>
      <trkpt lat="39.8554020" lon="-6.0270670">
        <ele>338.4</ele>
        <time>2019-07-09T12:59:47Z</time>
      </trkpt>
      <trkpt lat="39.8554180" lon="-6.0270590">
        <ele>338.6</ele>
        <time>2019-07-09T12:59:48Z</time>
      </trkpt>
      <trkpt lat="39.8554800" lon="-6.0270690">
        <ele>339.0</ele>
        <time>2019-07-09T12:59:51Z</time>
      </trkpt>
      <trkpt lat="39.8555270" lon="-6.0270760">
        <ele>339.4</ele>
        <time>2019-07-09T12:59:53Z</time>
      </trkpt>
      <trkpt lat="39.8556290" lon="-6.0270840">
        <ele>340.0</ele>
        <time>2019-07-09T12:59:57Z</time>
      </trkpt>
      <trkpt lat="39.8556560" lon="-6.0270850">
        <ele>340.0</ele>
        <time>2019-07-09T12:59:58Z</time>
      </trkpt>
      <trkpt lat="39.8557650" lon="-6.0271060">
        <ele>340.6</ele>
        <time>2019-07-09T13:00:02Z</time>
      </trkpt>
      <trkpt lat="39.8558730" lon="-6.0271580">
        <ele>341.0</ele>
        <time>2019-07-09T13:00:06Z</time>
      </trkpt>
      <trkpt lat="39.8561100" lon="-6.0273550">
        <ele>341.6</ele>
        <time>2019-07-09T13:00:15Z</time>
      </trkpt>
      <trkpt lat="39.8561370" lon="-6.0273800">
        <ele>341.8</ele>
        <time>2019-07-09T13:00:16Z</time>
      </trkpt>
      <trkpt lat="39.8563070" lon="-6.0275840">
        <ele>342.6</ele>
        <time>2019-07-09T13:00:23Z</time>
      </trkpt>
      <trkpt lat="39.8563520" lon="-6.0276400">
        <ele>342.8</ele>
        <time>2019-07-09T13:00:25Z</time>
      </trkpt>
      <trkpt lat="39.8564670" lon="-6.0277720">
        <ele>343.6</ele>
        <time>2019-07-09T13:00:30Z</time>
      </trkpt>
      <trkpt lat="39.8564890" lon="-6.0278010">
        <ele>343.8</ele>
        <time>2019-07-09T13:00:31Z</time>
      </trkpt>
      <trkpt lat="39.8566760" lon="-6.0280200">
        <ele>345.0</ele>
        <time>2019-07-09T13:00:39Z</time>
      </trkpt>
      <trkpt lat="39.8567010" lon="-6.0280490">
        <ele>345.2</ele>
        <time>2019-07-09T13:00:40Z</time>
      </trkpt>
      <trkpt lat="39.8568180" lon="-6.0281980">
        <ele>346.0</ele>
        <time>2019-07-09T13:00:45Z</time>
      </trkpt>
      <trkpt lat="39.8568730" lon="-6.0283050">
        <ele>346.6</ele>
        <time>2019-07-09T13:00:48Z</time>
      </trkpt>
      <trkpt lat="39.8569460" lon="-6.0285070">
        <ele>347.2</ele>
        <time>2019-07-09T13:00:53Z</time>
      </trkpt>
      <trkpt lat="39.8569740" lon="-6.0285940">
        <ele>347.4</ele>
        <time>2019-07-09T13:00:55Z</time>
      </trkpt>
      <trkpt lat="39.8570230" lon="-6.0287640">
        <ele>348.2</ele>
        <time>2019-07-09T13:00:59Z</time>
      </trkpt>
      <trkpt lat="39.8570830" lon="-6.0289910">
        <ele>349.4</ele>
        <time>2019-07-09T13:01:04Z</time>
      </trkpt>
      <trkpt lat="39.8571690" lon="-6.0292710">
        <ele>350.4</ele>
        <time>2019-07-09T13:01:10Z</time>
      </trkpt>
      <trkpt lat="39.8572160" lon="-6.0293500">
        <ele>350.8</ele>
        <time>2019-07-09T13:01:12Z</time>
      </trkpt>
      <trkpt lat="39.8574170" lon="-6.0295980">
        <ele>351.4</ele>
        <time>2019-07-09T13:01:19Z</time>
      </trkpt>
      <trkpt lat="39.8576340" lon="-6.0298210">
        <ele>352.0</ele>
        <time>2019-07-09T13:01:26Z</time>
      </trkpt>
      <trkpt lat="39.8577620" lon="-6.0299480">
        <ele>352.4</ele>
        <time>2019-07-09T13:01:30Z</time>
      </trkpt>
      <trkpt lat="39.8578940" lon="-6.0300730">
        <ele>352.8</ele>
        <time>2019-07-09T13:01:34Z</time>
      </trkpt>
      <trkpt lat="39.8579290" lon="-6.0301030">
        <ele>352.8</ele>
        <time>2019-07-09T13:01:35Z</time>
      </trkpt>
      <trkpt lat="39.8580890" lon="-6.0301670">
        <ele>353.4</ele>
        <time>2019-07-09T13:01:39Z</time>
      </trkpt>
      <trkpt lat="39.8583020" lon="-6.0301970">
        <ele>353.6</ele>
        <time>2019-07-09T13:01:44Z</time>
      </trkpt>
      <trkpt lat="39.8583890" lon="-6.0301890">
        <ele>353.6</ele>
        <time>2019-07-09T13:01:46Z</time>
      </trkpt>
      <trkpt lat="39.8585200" lon="-6.0301780">
        <ele>354.0</ele>
        <time>2019-07-09T13:01:49Z</time>
      </trkpt>
      <trkpt lat="39.8586920" lon="-6.0301370">
        <ele>354.6</ele>
        <time>2019-07-09T13:01:53Z</time>
      </trkpt>
      <trkpt lat="39.8587760" lon="-6.0301150">
        <ele>354.6</ele>
        <time>2019-07-09T13:01:55Z</time>
      </trkpt>
      <trkpt lat="39.8589830" lon="-6.0300400">
        <ele>355.2</ele>
        <time>2019-07-09T13:02:00Z</time>
      </trkpt>
      <trkpt lat="39.8590250" lon="-6.0300200">
        <ele>355.4</ele>
        <time>2019-07-09T13:02:01Z</time>
      </trkpt>
      <trkpt lat="39.8591110" lon="-6.0299850">
        <ele>355.6</ele>
        <time>2019-07-09T13:02:03Z</time>
      </trkpt>
      <trkpt lat="39.8594170" lon="-6.0298780">
        <ele>356.2</ele>
        <time>2019-07-09T13:02:10Z</time>
      </trkpt>
      <trkpt lat="39.8597220" lon="-6.0297580">
        <ele>356.6</ele>
        <time>2019-07-09T13:02:17Z</time>
      </trkpt>
      <trkpt lat="39.8599440" lon="-6.0297270">
        <ele>357.0</ele>
        <time>2019-07-09T13:02:22Z</time>
      </trkpt>
      <trkpt lat="39.8600290" lon="-6.0297430">
        <ele>357.2</ele>
        <time>2019-07-09T13:02:24Z</time>
      </trkpt>
      <trkpt lat="39.8602330" lon="-6.0298270">
        <ele>357.6</ele>
        <time>2019-07-09T13:02:29Z</time>
      </trkpt>
      <trkpt lat="39.8603360" lon="-6.0298870">
        <ele>358.0</ele>
        <time>2019-07-09T13:02:32Z</time>
      </trkpt>
      <trkpt lat="39.8604240" lon="-6.0299310">
        <ele>358.4</ele>
        <time>2019-07-09T13:02:35Z</time>
      </trkpt>
      <trkpt lat="39.8605340" lon="-6.0299910">
        <ele>358.8</ele>
        <time>2019-07-09T13:02:39Z</time>
      </trkpt>
      <trkpt lat="39.8605630" lon="-6.0300060">
        <ele>358.6</ele>
        <time>2019-07-09T13:02:40Z</time>
      </trkpt>
      <trkpt lat="39.8607500" lon="-6.0301120">
        <ele>359.4</ele>
        <time>2019-07-09T13:02:46Z</time>
      </trkpt>
      <trkpt lat="39.8610070" lon="-6.0302460">
        <ele>359.8</ele>
        <time>2019-07-09T13:02:53Z</time>
      </trkpt>
      <trkpt lat="39.8610460" lon="-6.0302660">
        <ele>359.8</ele>
        <time>2019-07-09T13:02:54Z</time>
      </trkpt>
      <trkpt lat="39.8614070" lon="-6.0304560">
        <ele>360.4</ele>
        <time>2019-07-09T13:03:03Z</time>
      </trkpt>
      <trkpt lat="39.8617470" lon="-6.0306510">
        <ele>361.0</ele>
        <time>2019-07-09T13:03:11Z</time>
      </trkpt>
      <trkpt lat="39.8617930" lon="-6.0306760">
        <ele>361.0</ele>
        <time>2019-07-09T13:03:12Z</time>
      </trkpt>
      <trkpt lat="39.8622060" lon="-6.0309060">
        <ele>361.4</ele>
        <time>2019-07-09T13:03:21Z</time>
      </trkpt>
      <trkpt lat="39.8624440" lon="-6.0311630">
        <ele>361.4</ele>
        <time>2019-07-09T13:03:27Z</time>
      </trkpt>
      <trkpt lat="39.8625520" lon="-6.0313750">
        <ele>361.4</ele>
        <time>2019-07-09T13:03:31Z</time>
      </trkpt>
      <trkpt lat="39.8626040" lon="-6.0314790">
        <ele>361.4</ele>
        <time>2019-07-09T13:03:33Z</time>
      </trkpt>
      <trkpt lat="39.8627430" lon="-6.0317510">
        <ele>361.4</ele>
        <time>2019-07-09T13:03:38Z</time>
      </trkpt>
      <trkpt lat="39.8628240" lon="-6.0319150">
        <ele>361.4</ele>
        <time>2019-07-09T13:03:41Z</time>
      </trkpt>
      <trkpt lat="39.8630640" lon="-6.0323720">
        <ele>361.8</ele>
        <time>2019-07-09T13:03:50Z</time>
      </trkpt>
      <trkpt lat="39.8631000" lon="-6.0324130">
        <ele>361.8</ele>
        <time>2019-07-09T13:03:51Z</time>
      </trkpt>
      <trkpt lat="39.8631390" lon="-6.0324460">
        <ele>362.0</ele>
        <time>2019-07-09T13:03:52Z</time>
      </trkpt>
      <trkpt lat="39.8632710" lon="-6.0324730">
        <ele>362.0</ele>
        <time>2019-07-09T13:03:55Z</time>
      </trkpt>
      <trkpt lat="39.8633860" lon="-6.0323840">
        <ele>362.2</ele>
        <time>2019-07-09T13:03:58Z</time>
      </trkpt>
      <trkpt lat="39.8634650" lon="-6.0322440">
        <ele>362.6</ele>
        <time>2019-07-09T13:04:01Z</time>
      </trkpt>
      <trkpt lat="39.8635120" lon="-6.0321540">
        <ele>362.8</ele>
        <time>2019-07-09T13:04:03Z</time>
      </trkpt>
      <trkpt lat="39.8635400" lon="-6.0321150">
        <ele>363.0</ele>
        <time>2019-07-09T13:04:04Z</time>
      </trkpt>
      <trkpt lat="39.8636710" lon="-6.0320040">
        <ele>363.6</ele>
        <time>2019-07-09T13:04:08Z</time>
      </trkpt>
      <trkpt lat="39.8638140" lon="-6.0319850">
        <ele>364.0</ele>
        <time>2019-07-09T13:04:13Z</time>
      </trkpt>
      <trkpt lat="39.8638320" lon="-6.0319920">
        <ele>364.2</ele>
        <time>2019-07-09T13:04:14Z</time>
      </trkpt>
      <trkpt lat="39.8638490" lon="-6.0319930">
        <ele>364.2</ele>
        <time>2019-07-09T13:04:15Z</time>
      </trkpt>
      <trkpt lat="39.8638850" lon="-6.0319950">
        <ele>364.4</ele>
        <time>2019-07-09T13:04:18Z</time>
      </trkpt>
      <trkpt lat="39.8638920" lon="-6.0320040">
        <ele>364.6</ele>
        <time>2019-07-09T13:04:21Z</time>
      </trkpt>
      <trkpt lat="39.8639120" lon="-6.0320300">
        <ele>364.8</ele>
        <time>2019-07-09T13:06:09Z</time>
      </trkpt>
      <trkpt lat="39.8639250" lon="-6.0320490">
        <ele>364.8</ele>
        <time>2019-07-09T13:06:10Z</time>
      </trkpt>
      <trkpt lat="39.8639380" lon="-6.0320700">
        <ele>364.8</ele>
        <time>2019-07-09T13:06:11Z</time>
      </trkpt>
      <trkpt lat="39.8639720" lon="-6.0321180">
        <ele>365.0</ele>
        <time>2019-07-09T13:06:13Z</time>
      </trkpt>
      <trkpt lat="39.8640310" lon="-6.0322160">
        <ele>365.0</ele>
        <time>2019-07-09T13:06:16Z</time>
      </trkpt>
      <trkpt lat="39.8641540" lon="-6.0324020">
        <ele>365.4</ele>
        <time>2019-07-09T13:06:21Z</time>
      </trkpt>
      <trkpt lat="39.8642180" lon="-6.0324700">
        <ele>365.6</ele>
        <time>2019-07-09T13:06:23Z</time>
      </trkpt>
      <trkpt lat="39.8643350" lon="-6.0325160">
        <ele>365.8</ele>
        <time>2019-07-09T13:06:26Z</time>
      </trkpt>
      <trkpt lat="39.8643780" lon="-6.0325120">
        <ele>366.0</ele>
        <time>2019-07-09T13:06:27Z</time>
      </trkpt>
      <trkpt lat="39.8644560" lon="-6.0324860">
        <ele>366.0</ele>
        <time>2019-07-09T13:06:29Z</time>
      </trkpt>
      <trkpt lat="39.8645960" lon="-6.0323960">
        <ele>366.4</ele>
        <time>2019-07-09T13:06:33Z</time>
      </trkpt>
      <trkpt lat="39.8646570" lon="-6.0323290">
        <ele>366.4</ele>
        <time>2019-07-09T13:06:35Z</time>
      </trkpt>
      <trkpt lat="39.8647160" lon="-6.0322570">
        <ele>366.6</ele>
        <time>2019-07-09T13:06:37Z</time>
      </trkpt>
      <trkpt lat="39.8647760" lon="-6.0321880">
        <ele>366.8</ele>
        <time>2019-07-09T13:06:39Z</time>
      </trkpt>
      <trkpt lat="39.8648940" lon="-6.0320370">
        <ele>367.4</ele>
        <time>2019-07-09T13:06:43Z</time>
      </trkpt>
      <trkpt lat="39.8649250" lon="-6.0319990">
        <ele>367.4</ele>
        <time>2019-07-09T13:06:44Z</time>
      </trkpt>
      <trkpt lat="39.8650500" lon="-6.0318430">
        <ele>368.0</ele>
        <time>2019-07-09T13:06:48Z</time>
      </trkpt>
      <trkpt lat="39.8652100" lon="-6.0316510">
        <ele>368.6</ele>
        <time>2019-07-09T13:06:53Z</time>
      </trkpt>
      <trkpt lat="39.8652450" lon="-6.0316150">
        <ele>368.6</ele>
        <time>2019-07-09T13:06:54Z</time>
      </trkpt>
      <trkpt lat="39.8653190" lon="-6.0315510">
        <ele>368.8</ele>
        <time>2019-07-09T13:06:56Z</time>
      </trkpt>
      <trkpt lat="39.8654430" lon="-6.0314860">
        <ele>369.2</ele>
        <time>2019-07-09T13:06:59Z</time>
      </trkpt>
      <trkpt lat="39.8655780" lon="-6.0314630">
        <ele>369.6</ele>
        <time>2019-07-09T13:07:02Z</time>
      </trkpt>
      <trkpt lat="39.8656230" lon="-6.0314640">
        <ele>369.6</ele>
        <time>2019-07-09T13:07:03Z</time>
      </trkpt>
      <trkpt lat="39.8656670" lon="-6.0314690">
        <ele>369.8</ele>
        <time>2019-07-09T13:07:04Z</time>
      </trkpt>
      <trkpt lat="39.8657110" lon="-6.0314800">
        <ele>370.0</ele>
        <time>2019-07-09T13:07:05Z</time>
      </trkpt>
      <trkpt lat="39.8658790" lon="-6.0315810">
        <ele>370.0</ele>
        <time>2019-07-09T13:07:09Z</time>
      </trkpt>
      <trkpt lat="39.8659830" lon="-6.0317110">
        <ele>370.2</ele>
        <time>2019-07-09T13:07:12Z</time>
      </trkpt>
      <trkpt lat="39.8660780" lon="-6.0318510">
        <ele>370.4</ele>
        <time>2019-07-09T13:07:15Z</time>
      </trkpt>
      <trkpt lat="39.8662300" lon="-6.0320810">
        <ele>370.6</ele>
        <time>2019-07-09T13:07:20Z</time>
      </trkpt>
      <trkpt lat="39.8662570" lon="-6.0321290">
        <ele>370.6</ele>
        <time>2019-07-09T13:07:21Z</time>
      </trkpt>
      <trkpt lat="39.8662860" lon="-6.0321750">
        <ele>370.8</ele>
        <time>2019-07-09T13:07:22Z</time>
      </trkpt>
      <trkpt lat="39.8664650" lon="-6.0324410">
        <ele>371.2</ele>
        <time>2019-07-09T13:07:28Z</time>
      </trkpt>
      <trkpt lat="39.8665160" lon="-6.0325400">
        <ele>371.2</ele>
        <time>2019-07-09T13:07:30Z</time>
      </trkpt>
      <trkpt lat="39.8666140" lon="-6.0326630">
        <ele>371.4</ele>
        <time>2019-07-09T13:07:33Z</time>
      </trkpt>
      <trkpt lat="39.8666720" lon="-6.0327510">
        <ele>371.6</ele>
        <time>2019-07-09T13:07:35Z</time>
      </trkpt>
      <trkpt lat="39.8668900" lon="-6.0331250">
        <ele>372.4</ele>
        <time>2019-07-09T13:07:43Z</time>
      </trkpt>
      <trkpt lat="39.8669320" lon="-6.0332310">
        <ele>372.6</ele>
        <time>2019-07-09T13:07:45Z</time>
      </trkpt>
      <trkpt lat="39.8669670" lon="-6.0333440">
        <ele>372.6</ele>
        <time>2019-07-09T13:07:47Z</time>
      </trkpt>
      <trkpt lat="39.8669860" lon="-6.0334610">
        <ele>372.6</ele>
        <time>2019-07-09T13:07:49Z</time>
      </trkpt>
      <trkpt lat="39.8669840" lon="-6.0338920">
        <ele>373.2</ele>
        <time>2019-07-09T13:07:56Z</time>
      </trkpt>
      <trkpt lat="39.8669680" lon="-6.0346110">
        <ele>373.6</ele>
        <time>2019-07-09T13:08:08Z</time>
      </trkpt>
      <trkpt lat="39.8669680" lon="-6.0346670">
        <ele>373.8</ele>
        <time>2019-07-09T13:08:09Z</time>
      </trkpt>
      <trkpt lat="39.8669630" lon="-6.0351110">
        <ele>374.8</ele>
        <time>2019-07-09T13:08:17Z</time>
      </trkpt>
      <trkpt lat="39.8669740" lon="-6.0352800">
        <ele>375.0</ele>
        <time>2019-07-09T13:08:20Z</time>
      </trkpt>
      <trkpt lat="39.8670070" lon="-6.0353860">
        <ele>375.4</ele>
        <time>2019-07-09T13:08:22Z</time>
      </trkpt>
      <trkpt lat="39.8671610" lon="-6.0355750">
        <ele>376.0</ele>
        <time>2019-07-09T13:08:27Z</time>
      </trkpt>
      <trkpt lat="39.8672000" lon="-6.0355990">
        <ele>376.2</ele>
        <time>2019-07-09T13:08:28Z</time>
      </trkpt>
      <trkpt lat="39.8674760" lon="-6.0357670">
        <ele>377.2</ele>
        <time>2019-07-09T13:08:35Z</time>
      </trkpt>
      <trkpt lat="39.8678240" lon="-6.0359790">
        <ele>378.4</ele>
        <time>2019-07-09T13:08:44Z</time>
      </trkpt>
      <trkpt lat="39.8679020" lon="-6.0360260">
        <ele>378.8</ele>
        <time>2019-07-09T13:08:46Z</time>
      </trkpt>
      <trkpt lat="39.8680540" lon="-6.0361280">
        <ele>379.4</ele>
        <time>2019-07-09T13:08:50Z</time>
      </trkpt>
      <trkpt lat="39.8681630" lon="-6.0362110">
        <ele>379.8</ele>
        <time>2019-07-09T13:08:53Z</time>
      </trkpt>
      <trkpt lat="39.8682410" lon="-6.0364130">
        <ele>380.2</ele>
        <time>2019-07-09T13:08:57Z</time>
      </trkpt>
      <trkpt lat="39.8682160" lon="-6.0366630">
        <ele>380.2</ele>
        <time>2019-07-09T13:09:01Z</time>
      </trkpt>
      <trkpt lat="39.8681280" lon="-6.0368420">
        <ele>380.0</ele>
        <time>2019-07-09T13:09:04Z</time>
      </trkpt>
      <trkpt lat="39.8680590" lon="-6.0369620">
        <ele>380.0</ele>
        <time>2019-07-09T13:09:06Z</time>
      </trkpt>
      <trkpt lat="39.8679050" lon="-6.0372940">
        <ele>380.0</ele>
        <time>2019-07-09T13:09:11Z</time>
      </trkpt>
      <trkpt lat="39.8678330" lon="-6.0375080">
        <ele>380.2</ele>
        <time>2019-07-09T13:09:14Z</time>
      </trkpt>
      <trkpt lat="39.8677640" lon="-6.0379000">
        <ele>380.2</ele>
        <time>2019-07-09T13:09:19Z</time>
      </trkpt>
      <trkpt lat="39.8678290" lon="-6.0382060">
        <ele>380.4</ele>
        <time>2019-07-09T13:09:23Z</time>
      </trkpt>
      <trkpt lat="39.8678640" lon="-6.0382720">
        <ele>380.4</ele>
        <time>2019-07-09T13:09:24Z</time>
      </trkpt>
      <trkpt lat="39.8681150" lon="-6.0388100">
        <ele>380.8</ele>
        <time>2019-07-09T13:09:32Z</time>
      </trkpt>
      <trkpt lat="39.8681820" lon="-6.0390230">
        <ele>380.4</ele>
        <time>2019-07-09T13:09:35Z</time>
      </trkpt>
      <trkpt lat="39.8682180" lon="-6.0392480">
        <ele>380.2</ele>
        <time>2019-07-09T13:09:38Z</time>
      </trkpt>
      <trkpt lat="39.8682310" lon="-6.0398860">
        <ele>380.4</ele>
        <time>2019-07-09T13:09:46Z</time>
      </trkpt>
      <trkpt lat="39.8681680" lon="-6.0403710">
        <ele>380.2</ele>
        <time>2019-07-09T13:09:52Z</time>
      </trkpt>
      <trkpt lat="39.8681450" lon="-6.0404470">
        <ele>380.2</ele>
        <time>2019-07-09T13:09:53Z</time>
      </trkpt>
      <trkpt lat="39.8680460" lon="-6.0407290">
        <ele>379.8</ele>
        <time>2019-07-09T13:09:57Z</time>
      </trkpt>
      <trkpt lat="39.8680150" lon="-6.0408690">
        <ele>379.6</ele>
        <time>2019-07-09T13:09:59Z</time>
      </trkpt>
      <trkpt lat="39.8679910" lon="-6.0410550">
        <ele>379.6</ele>
        <time>2019-07-09T13:10:02Z</time>
      </trkpt>
      <trkpt lat="39.8679850" lon="-6.0410980">
        <ele>379.6</ele>
        <time>2019-07-09T13:10:03Z</time>
      </trkpt>
      <trkpt lat="39.8679620" lon="-6.0411820">
        <ele>379.6</ele>
        <time>2019-07-09T13:10:06Z</time>
      </trkpt>
      <trkpt lat="39.8679430" lon="-6.0411920">
        <ele>379.6</ele>
        <time>2019-07-09T13:10:07Z</time>
      </trkpt>
      <trkpt lat="39.8678560" lon="-6.0411400">
        <ele>379.6</ele>
        <time>2019-07-09T13:10:11Z</time>
      </trkpt>
      <trkpt lat="39.8678400" lon="-6.0411230">
        <ele>379.4</ele>
        <time>2019-07-09T13:10:12Z</time>
      </trkpt>
      <trkpt lat="39.8678120" lon="-6.0410890">
        <ele>379.0</ele>
        <time>2019-07-09T13:10:16Z</time>
      </trkpt>
      <trkpt lat="39.8677870" lon="-6.0410650">
        <ele>379.2</ele>
        <time>2019-07-09T13:11:47Z</time>
      </trkpt>
      <trkpt lat="39.8677750" lon="-6.0410360">
        <ele>379.2</ele>
        <time>2019-07-09T13:11:48Z</time>
      </trkpt>
      <trkpt lat="39.8677580" lon="-6.0410020">
        <ele>379.2</ele>
        <time>2019-07-09T13:11:49Z</time>
      </trkpt>
      <trkpt lat="39.8676980" lon="-6.0408790">
        <ele>378.6</ele>
        <time>2019-07-09T13:11:52Z</time>
      </trkpt>
      <trkpt lat="39.8676460" lon="-6.0407730">
        <ele>377.8</ele>
        <time>2019-07-09T13:11:54Z</time>
      </trkpt>
      <trkpt lat="39.8676180" lon="-6.0407160">
        <ele>377.4</ele>
        <time>2019-07-09T13:11:55Z</time>
      </trkpt>
      <trkpt lat="39.8675640" lon="-6.0406020">
        <ele>377.0</ele>
        <time>2019-07-09T13:11:57Z</time>
      </trkpt>
      <trkpt lat="39.8675380" lon="-6.0405510">
        <ele>376.4</ele>
        <time>2019-07-09T13:11:58Z</time>
      </trkpt>
      <trkpt lat="39.8675120" lon="-6.0405080">
        <ele>375.8</ele>
        <time>2019-07-09T13:11:59Z</time>
      </trkpt>
      <trkpt lat="39.8674850" lon="-6.0404690">
        <ele>375.0</ele>
        <time>2019-07-09T13:12:00Z</time>
      </trkpt>
      <trkpt lat="39.8674260" lon="-6.0403850">
        <ele>373.4</ele>
        <time>2019-07-09T13:12:02Z</time>
      </trkpt>
      <trkpt lat="39.8673550" lon="-6.0402990">
        <ele>373.0</ele>
        <time>2019-07-09T13:12:04Z</time>
      </trkpt>
      <trkpt lat="39.8673140" lon="-6.0402700">
        <ele>372.6</ele>
        <time>2019-07-09T13:12:05Z</time>
      </trkpt>
      <trkpt lat="39.8672680" lon="-6.0402480">
        <ele>372.4</ele>
        <time>2019-07-09T13:12:06Z</time>
      </trkpt>
      <trkpt lat="39.8671150" lon="-6.0402300">
        <ele>371.4</ele>
        <time>2019-07-09T13:12:09Z</time>
      </trkpt>
      <trkpt lat="39.8670190" lon="-6.0402490">
        <ele>370.8</ele>
        <time>2019-07-09T13:12:11Z</time>
      </trkpt>
      <trkpt lat="39.8669310" lon="-6.0402700">
        <ele>370.0</ele>
        <time>2019-07-09T13:12:13Z</time>
      </trkpt>
      <trkpt lat="39.8668440" lon="-6.0402850">
        <ele>369.2</ele>
        <time>2019-07-09T13:12:15Z</time>
      </trkpt>
      <trkpt lat="39.8667950" lon="-6.0402790">
        <ele>368.8</ele>
        <time>2019-07-09T13:12:16Z</time>
      </trkpt>
      <trkpt lat="39.8667030" lon="-6.0402500">
        <ele>368.0</ele>
        <time>2019-07-09T13:12:18Z</time>
      </trkpt>
      <trkpt lat="39.8666070" lon="-6.0402220">
        <ele>367.4</ele>
        <time>2019-07-09T13:12:20Z</time>
      </trkpt>
      <trkpt lat="39.8663860" lon="-6.0401870">
        <ele>366.0</ele>
        <time>2019-07-09T13:12:24Z</time>
      </trkpt>
      <trkpt lat="39.8663240" lon="-6.0401820">
        <ele>365.6</ele>
        <time>2019-07-09T13:12:25Z</time>
      </trkpt>
      <trkpt lat="39.8662040" lon="-6.0401700">
        <ele>364.8</ele>
        <time>2019-07-09T13:12:27Z</time>
      </trkpt>
      <trkpt lat="39.8660430" lon="-6.0401520">
        <ele>363.6</ele>
        <time>2019-07-09T13:12:30Z</time>
      </trkpt>
      <trkpt lat="39.8659870" lon="-6.0401500">
        <ele>363.0</ele>
        <time>2019-07-09T13:12:31Z</time>
      </trkpt>
      <trkpt lat="39.8658820" lon="-6.0401610">
        <ele>362.2</ele>
        <time>2019-07-09T13:12:33Z</time>
      </trkpt>
      <trkpt lat="39.8658330" lon="-6.0401720">
        <ele>361.2</ele>
        <time>2019-07-09T13:12:34Z</time>
      </trkpt>
      <trkpt lat="39.8657250" lon="-6.0402090">
        <ele>360.2</ele>
        <time>2019-07-09T13:12:36Z</time>
      </trkpt>
      <trkpt lat="39.8656130" lon="-6.0402470">
        <ele>359.0</ele>
        <time>2019-07-09T13:12:38Z</time>
      </trkpt>
      <trkpt lat="39.8655550" lon="-6.0402610">
        <ele>358.8</ele>
        <time>2019-07-09T13:12:39Z</time>
      </trkpt>
      <trkpt lat="39.8654390" lon="-6.0402870">
        <ele>357.6</ele>
        <time>2019-07-09T13:12:41Z</time>
      </trkpt>
      <trkpt lat="39.8653420" lon="-6.0403070">
        <ele>356.6</ele>
        <time>2019-07-09T13:12:43Z</time>
      </trkpt>
      <trkpt lat="39.8653000" lon="-6.0403280">
        <ele>356.2</ele>
        <time>2019-07-09T13:12:44Z</time>
      </trkpt>
      <trkpt lat="39.8652290" lon="-6.0403920">
        <ele>355.2</ele>
        <time>2019-07-09T13:12:46Z</time>
      </trkpt>
      <trkpt lat="39.8651910" lon="-6.0404860">
        <ele>354.2</ele>
        <time>2019-07-09T13:12:48Z</time>
      </trkpt>
      <trkpt lat="39.8651890" lon="-6.0405400">
        <ele>353.8</ele>
        <time>2019-07-09T13:12:49Z</time>
      </trkpt>
      <trkpt lat="39.8652130" lon="-6.0406430">
        <ele>353.4</ele>
        <time>2019-07-09T13:12:51Z</time>
      </trkpt>
      <trkpt lat="39.8652960" lon="-6.0407610">
        <ele>353.4</ele>
        <time>2019-07-09T13:12:54Z</time>
      </trkpt>
      <trkpt lat="39.8653550" lon="-6.0408380">
        <ele>353.6</ele>
        <time>2019-07-09T13:12:56Z</time>
      </trkpt>
      <trkpt lat="39.8653750" lon="-6.0408820">
        <ele>353.6</ele>
        <time>2019-07-09T13:12:57Z</time>
      </trkpt>
      <trkpt lat="39.8653440" lon="-6.0409950">
        <ele>353.2</ele>
        <time>2019-07-09T13:13:00Z</time>
      </trkpt>
      <trkpt lat="39.8653100" lon="-6.0410130">
        <ele>353.0</ele>
        <time>2019-07-09T13:13:01Z</time>
      </trkpt>
      <trkpt lat="39.8651840" lon="-6.0410510">
        <ele>352.8</ele>
        <time>2019-07-09T13:13:04Z</time>
      </trkpt>
      <trkpt lat="39.8651050" lon="-6.0410940">
        <ele>352.4</ele>
        <time>2019-07-09T13:13:06Z</time>
      </trkpt>
      <trkpt lat="39.8650590" lon="-6.0411180">
        <ele>352.0</ele>
        <time>2019-07-09T13:13:07Z</time>
      </trkpt>
      <trkpt lat="39.8649560" lon="-6.0411770">
        <ele>351.2</ele>
        <time>2019-07-09T13:13:09Z</time>
      </trkpt>
      <trkpt lat="39.8649020" lon="-6.0412080">
        <ele>350.6</ele>
        <time>2019-07-09T13:13:10Z</time>
      </trkpt>
      <trkpt lat="39.8647450" lon="-6.0412990">
        <ele>349.0</ele>
        <time>2019-07-09T13:13:13Z</time>
      </trkpt>
      <trkpt lat="39.8646530" lon="-6.0413610">
        <ele>347.8</ele>
        <time>2019-07-09T13:13:15Z</time>
      </trkpt>
      <trkpt lat="39.8646140" lon="-6.0413960">
        <ele>347.6</ele>
        <time>2019-07-09T13:13:16Z</time>
      </trkpt>
      <trkpt lat="39.8645110" lon="-6.0415330">
        <ele>346.4</ele>
        <time>2019-07-09T13:13:19Z</time>
      </trkpt>
      <trkpt lat="39.8644530" lon="-6.0416440">
        <ele>345.4</ele>
        <time>2019-07-09T13:13:21Z</time>
      </trkpt>
      <trkpt lat="39.8644150" lon="-6.0417560">
        <ele>344.8</ele>
        <time>2019-07-09T13:13:23Z</time>
      </trkpt>
      <trkpt lat="39.8644000" lon="-6.0418120">
        <ele>344.4</ele>
        <time>2019-07-09T13:13:24Z</time>
      </trkpt>
      <trkpt lat="39.8643780" lon="-6.0419350">
        <ele>343.4</ele>
        <time>2019-07-09T13:13:26Z</time>
      </trkpt>
      <trkpt lat="39.8643640" lon="-6.0420020">
        <ele>343.0</ele>
        <time>2019-07-09T13:13:27Z</time>
      </trkpt>
      <trkpt lat="39.8642660" lon="-6.0424300">
        <ele>342.2</ele>
        <time>2019-07-09T13:13:33Z</time>
      </trkpt>
      <trkpt lat="39.8642540" lon="-6.0424870">
        <ele>342.0</ele>
        <time>2019-07-09T13:13:34Z</time>
      </trkpt>
      <trkpt lat="39.8642500" lon="-6.0425710">
        <ele>341.6</ele>
        <time>2019-07-09T13:13:36Z</time>
      </trkpt>
      <trkpt lat="39.8642460" lon="-6.0426010">
        <ele>341.0</ele>
        <time>2019-07-09T13:13:40Z</time>
      </trkpt>
      <trkpt lat="39.8642650" lon="-6.0426420">
        <ele>340.6</ele>
        <time>2019-07-09T13:13:55Z</time>
      </trkpt>
      <trkpt lat="39.8643040" lon="-6.0426990">
        <ele>340.2</ele>
        <time>2019-07-09T13:13:57Z</time>
      </trkpt>
      <trkpt lat="39.8643970" lon="-6.0428190">
        <ele>339.8</ele>
        <time>2019-07-09T13:14:00Z</time>
      </trkpt>
      <trkpt lat="39.8644690" lon="-6.0429140">
        <ele>339.4</ele>
        <time>2019-07-09T13:14:02Z</time>
      </trkpt>
      <trkpt lat="39.8645320" lon="-6.0430200">
        <ele>338.8</ele>
        <time>2019-07-09T13:14:04Z</time>
      </trkpt>
      <trkpt lat="39.8645610" lon="-6.0430760">
        <ele>338.2</ele>
        <time>2019-07-09T13:14:05Z</time>
      </trkpt>
      <trkpt lat="39.8646040" lon="-6.0431830">
        <ele>337.2</ele>
        <time>2019-07-09T13:14:07Z</time>
      </trkpt>
      <trkpt lat="39.8646170" lon="-6.0432370">
        <ele>336.6</ele>
        <time>2019-07-09T13:14:08Z</time>
      </trkpt>
      <trkpt lat="39.8646250" lon="-6.0432960">
        <ele>336.0</ele>
        <time>2019-07-09T13:14:09Z</time>
      </trkpt>
      <trkpt lat="39.8646890" lon="-6.0435430">
        <ele>334.8</ele>
        <time>2019-07-09T13:14:13Z</time>
      </trkpt>
      <trkpt lat="39.8647160" lon="-6.0436870">
        <ele>333.8</ele>
        <time>2019-07-09T13:14:16Z</time>
      </trkpt>
      <trkpt lat="39.8647070" lon="-6.0437370">
        <ele>333.6</ele>
        <time>2019-07-09T13:14:17Z</time>
      </trkpt>
      <trkpt lat="39.8646700" lon="-6.0438210">
        <ele>332.4</ele>
        <time>2019-07-09T13:14:19Z</time>
      </trkpt>
      <trkpt lat="39.8646390" lon="-6.0438540">
        <ele>332.0</ele>
        <time>2019-07-09T13:14:20Z</time>
      </trkpt>
      <trkpt lat="39.8646020" lon="-6.0438860">
        <ele>331.6</ele>
        <time>2019-07-09T13:14:21Z</time>
      </trkpt>
      <trkpt lat="39.8645620" lon="-6.0439200">
        <ele>331.4</ele>
        <time>2019-07-09T13:14:22Z</time>
      </trkpt>
      <trkpt lat="39.8644830" lon="-6.0440040">
        <ele>330.6</ele>
        <time>2019-07-09T13:14:24Z</time>
      </trkpt>
      <trkpt lat="39.8644420" lon="-6.0440470">
        <ele>330.0</ele>
        <time>2019-07-09T13:14:25Z</time>
      </trkpt>
      <trkpt lat="39.8644000" lon="-6.0440930">
        <ele>329.8</ele>
        <time>2019-07-09T13:14:26Z</time>
      </trkpt>
      <trkpt lat="39.8643270" lon="-6.0441740">
        <ele>328.8</ele>
        <time>2019-07-09T13:14:28Z</time>
      </trkpt>
      <trkpt lat="39.8642660" lon="-6.0442430">
        <ele>328.0</ele>
        <time>2019-07-09T13:14:30Z</time>
      </trkpt>
      <trkpt lat="39.8642410" lon="-6.0442740">
        <ele>327.4</ele>
        <time>2019-07-09T13:14:31Z</time>
      </trkpt>
      <trkpt lat="39.8641690" lon="-6.0444210">
        <ele>326.4</ele>
        <time>2019-07-09T13:14:35Z</time>
      </trkpt>
      <trkpt lat="39.8641650" lon="-6.0444700">
        <ele>326.0</ele>
        <time>2019-07-09T13:14:36Z</time>
      </trkpt>
      <trkpt lat="39.8642140" lon="-6.0446590">
        <ele>325.2</ele>
        <time>2019-07-09T13:14:40Z</time>
      </trkpt>
      <trkpt lat="39.8642390" lon="-6.0447000">
        <ele>325.0</ele>
        <time>2019-07-09T13:14:41Z</time>
      </trkpt>
      <trkpt lat="39.8643260" lon="-6.0448270">
        <ele>324.0</ele>
        <time>2019-07-09T13:14:44Z</time>
      </trkpt>
      <trkpt lat="39.8643570" lon="-6.0448700">
        <ele>323.8</ele>
        <time>2019-07-09T13:14:45Z</time>
      </trkpt>
      <trkpt lat="39.8643900" lon="-6.0449120">
        <ele>323.6</ele>
        <time>2019-07-09T13:14:46Z</time>
      </trkpt>
      <trkpt lat="39.8644690" lon="-6.0449960">
        <ele>322.8</ele>
        <time>2019-07-09T13:14:48Z</time>
      </trkpt>
      <trkpt lat="39.8645540" lon="-6.0450870">
        <ele>321.8</ele>
        <time>2019-07-09T13:14:50Z</time>
      </trkpt>
      <trkpt lat="39.8645960" lon="-6.0451310">
        <ele>321.4</ele>
        <time>2019-07-09T13:14:51Z</time>
      </trkpt>
      <trkpt lat="39.8647630" lon="-6.0452860">
        <ele>320.2</ele>
        <time>2019-07-09T13:14:55Z</time>
      </trkpt>
      <trkpt lat="39.8648010" lon="-6.0453310">
        <ele>320.0</ele>
        <time>2019-07-09T13:14:56Z</time>
      </trkpt>
      <trkpt lat="39.8648610" lon="-6.0454350">
        <ele>319.0</ele>
        <time>2019-07-09T13:14:58Z</time>
      </trkpt>
      <trkpt lat="39.8649080" lon="-6.0455240">
        <ele>318.0</ele>
        <time>2019-07-09T13:15:00Z</time>
      </trkpt>
      <trkpt lat="39.8649330" lon="-6.0455650">
        <ele>317.6</ele>
        <time>2019-07-09T13:15:01Z</time>
      </trkpt>
      <trkpt lat="39.8650200" lon="-6.0457060">
        <ele>316.8</ele>
        <time>2019-07-09T13:15:04Z</time>
      </trkpt>
      <trkpt lat="39.8650590" lon="-6.0457550">
        <ele>316.4</ele>
        <time>2019-07-09T13:15:05Z</time>
      </trkpt>
      <trkpt lat="39.8651010" lon="-6.0458070">
        <ele>315.8</ele>
        <time>2019-07-09T13:15:06Z</time>
      </trkpt>
      <trkpt lat="39.8652390" lon="-6.0459440">
        <ele>314.4</ele>
        <time>2019-07-09T13:15:09Z</time>
      </trkpt>
      <trkpt lat="39.8653360" lon="-6.0460280">
        <ele>313.2</ele>
        <time>2019-07-09T13:15:12Z</time>
      </trkpt>
      <trkpt lat="39.8653550" lon="-6.0460500">
        <ele>312.8</ele>
        <time>2019-07-09T13:15:13Z</time>
      </trkpt>
      <trkpt lat="39.8653930" lon="-6.0461870">
        <ele>312.2</ele>
        <time>2019-07-09T13:15:17Z</time>
      </trkpt>
      <trkpt lat="39.8654070" lon="-6.0464110">
        <ele>310.8</ele>
        <time>2019-07-09T13:15:21Z</time>
      </trkpt>
      <trkpt lat="39.8654120" lon="-6.0464430">
        <ele>310.6</ele>
        <time>2019-07-09T13:15:22Z</time>
      </trkpt>
      <trkpt lat="39.8654250" lon="-6.0464900">
        <ele>311.0</ele>
        <time>2019-07-09T13:15:24Z</time>
      </trkpt>
      <trkpt lat="39.8654310" lon="-6.0465110">
        <ele>311.4</ele>
        <time>2019-07-09T13:15:25Z</time>
      </trkpt>
      <trkpt lat="39.8654480" lon="-6.0465540">
        <ele>311.8</ele>
        <time>2019-07-09T13:15:27Z</time>
      </trkpt>
      <trkpt lat="39.8654580" lon="-6.0466020">
        <ele>312.2</ele>
        <time>2019-07-09T13:15:29Z</time>
      </trkpt>
      <trkpt lat="39.8654650" lon="-6.0466430">
        <ele>312.8</ele>
        <time>2019-07-09T13:15:31Z</time>
      </trkpt>
      <trkpt lat="39.8654660" lon="-6.0466660">
        <ele>313.0</ele>
        <time>2019-07-09T13:15:32Z</time>
      </trkpt>
      <trkpt lat="39.8654710" lon="-6.0467080">
        <ele>313.6</ele>
        <time>2019-07-09T13:15:34Z</time>
      </trkpt>
      <trkpt lat="39.8654730" lon="-6.0467300">
        <ele>313.8</ele>
        <time>2019-07-09T13:15:35Z</time>
      </trkpt>
      <trkpt lat="39.8654740" lon="-6.0467500">
        <ele>314.2</ele>
        <time>2019-07-09T13:15:36Z</time>
      </trkpt>
      <trkpt lat="39.8654710" lon="-6.0468120">
        <ele>315.0</ele>
        <time>2019-07-09T13:15:39Z</time>
      </trkpt>
      <trkpt lat="39.8654730" lon="-6.0468320">
        <ele>315.4</ele>
        <time>2019-07-09T13:15:40Z</time>
      </trkpt>
      <trkpt lat="39.8654740" lon="-6.0468530">
        <ele>315.6</ele>
        <time>2019-07-09T13:15:41Z</time>
      </trkpt>
      <trkpt lat="39.8654790" lon="-6.0469160">
        <ele>316.2</ele>
        <time>2019-07-09T13:15:44Z</time>
      </trkpt>
      <trkpt lat="39.8654790" lon="-6.0469390">
        <ele>316.6</ele>
        <time>2019-07-09T13:15:45Z</time>
      </trkpt>
      <trkpt lat="39.8654790" lon="-6.0470000">
        <ele>317.8</ele>
        <time>2019-07-09T13:15:48Z</time>
      </trkpt>
      <trkpt lat="39.8654810" lon="-6.0470380">
        <ele>318.4</ele>
        <time>2019-07-09T13:15:50Z</time>
      </trkpt>
      <trkpt lat="39.8654910" lon="-6.0471120">
        <ele>319.0</ele>
        <time>2019-07-09T13:15:54Z</time>
      </trkpt>
      <trkpt lat="39.8654950" lon="-6.0471280">
        <ele>319.2</ele>
        <time>2019-07-09T13:15:55Z</time>
      </trkpt>
      <trkpt lat="39.8655050" lon="-6.0472030">
        <ele>320.0</ele>
        <time>2019-07-09T13:15:59Z</time>
      </trkpt>
      <trkpt lat="39.8655070" lon="-6.0472430">
        <ele>320.2</ele>
        <time>2019-07-09T13:16:01Z</time>
      </trkpt>
      <trkpt lat="39.8655070" lon="-6.0473140">
        <ele>321.2</ele>
        <time>2019-07-09T13:16:05Z</time>
      </trkpt>
      <trkpt lat="39.8655070" lon="-6.0473320">
        <ele>321.4</ele>
        <time>2019-07-09T13:16:06Z</time>
      </trkpt>
      <trkpt lat="39.8655020" lon="-6.0474090">
        <ele>322.6</ele>
        <time>2019-07-09T13:16:10Z</time>
      </trkpt>
      <trkpt lat="39.8654810" lon="-6.0474870">
        <ele>323.6</ele>
        <time>2019-07-09T13:16:14Z</time>
      </trkpt>
      <trkpt lat="39.8654700" lon="-6.0475400">
        <ele>324.6</ele>
        <time>2019-07-09T13:16:17Z</time>
      </trkpt>
      <trkpt lat="39.8654640" lon="-6.0475550">
        <ele>325.0</ele>
        <time>2019-07-09T13:16:18Z</time>
      </trkpt>
      <trkpt lat="39.8654330" lon="-6.0476310">
        <ele>326.0</ele>
        <time>2019-07-09T13:16:23Z</time>
      </trkpt>
      <trkpt lat="39.8654210" lon="-6.0476620">
        <ele>326.6</ele>
        <time>2019-07-09T13:16:25Z</time>
      </trkpt>
      <trkpt lat="39.8654010" lon="-6.0477290">
        <ele>327.2</ele>
        <time>2019-07-09T13:16:29Z</time>
      </trkpt>
      <trkpt lat="39.8653810" lon="-6.0477660">
        <ele>327.4</ele>
        <time>2019-07-09T13:16:31Z</time>
      </trkpt>
      <trkpt lat="39.8653490" lon="-6.0478130">
        <ele>328.6</ele>
        <time>2019-07-09T13:16:34Z</time>
      </trkpt>
      <trkpt lat="39.8653060" lon="-6.0479150">
        <ele>329.6</ele>
        <time>2019-07-09T13:16:39Z</time>
      </trkpt>
      <trkpt lat="39.8653210" lon="-6.0479830">
        <ele>330.2</ele>
        <time>2019-07-09T13:16:42Z</time>
      </trkpt>
      <trkpt lat="39.8653480" lon="-6.0480130">
        <ele>330.4</ele>
        <time>2019-07-09T13:16:44Z</time>
      </trkpt>
      <trkpt lat="39.8653630" lon="-6.0480180">
        <ele>330.6</ele>
        <time>2019-07-09T13:16:45Z</time>
      </trkpt>
      <trkpt lat="39.8654270" lon="-6.0480280">
        <ele>331.8</ele>
        <time>2019-07-09T13:16:49Z</time>
      </trkpt>
      <trkpt lat="39.8654580" lon="-6.0480360">
        <ele>332.8</ele>
        <time>2019-07-09T13:16:51Z</time>
      </trkpt>
      <trkpt lat="39.8654910" lon="-6.0480470">
        <ele>333.0</ele>
        <time>2019-07-09T13:16:53Z</time>
      </trkpt>
      <trkpt lat="39.8655580" lon="-6.0480630">
        <ele>334.2</ele>
        <time>2019-07-09T13:16:57Z</time>
      </trkpt>
      <trkpt lat="39.8656280" lon="-6.0480820">
        <ele>335.2</ele>
        <time>2019-07-09T13:17:01Z</time>
      </trkpt>
      <trkpt lat="39.8656450" lon="-6.0480880">
        <ele>335.6</ele>
        <time>2019-07-09T13:17:02Z</time>
      </trkpt>
      <trkpt lat="39.8657400" lon="-6.0481030">
        <ele>336.6</ele>
        <time>2019-07-09T13:17:08Z</time>
      </trkpt>
      <trkpt lat="39.8658030" lon="-6.0481070">
        <ele>338.0</ele>
        <time>2019-07-09T13:17:12Z</time>
      </trkpt>
      <trkpt lat="39.8658710" lon="-6.0481000">
        <ele>338.8</ele>
        <time>2019-07-09T13:17:16Z</time>
      </trkpt>
      <trkpt lat="39.8659050" lon="-6.0481030">
        <ele>339.0</ele>
        <time>2019-07-09T13:17:18Z</time>
      </trkpt>
      <trkpt lat="39.8659660" lon="-6.0481170">
        <ele>340.0</ele>
        <time>2019-07-09T13:17:22Z</time>
      </trkpt>
      <trkpt lat="39.8659830" lon="-6.0481230">
        <ele>340.2</ele>
        <time>2019-07-09T13:17:23Z</time>
      </trkpt>
      <trkpt lat="39.8660430" lon="-6.0481750">
        <ele>341.2</ele>
        <time>2019-07-09T13:17:28Z</time>
      </trkpt>
      <trkpt lat="39.8660490" lon="-6.0481930">
        <ele>341.4</ele>
        <time>2019-07-09T13:17:29Z</time>
      </trkpt>
      <trkpt lat="39.8660530" lon="-6.0482760">
        <ele>342.4</ele>
        <time>2019-07-09T13:17:33Z</time>
      </trkpt>
      <trkpt lat="39.8660420" lon="-6.0483190">
        <ele>342.8</ele>
        <time>2019-07-09T13:17:35Z</time>
      </trkpt>
      <trkpt lat="39.8659970" lon="-6.0484130">
        <ele>343.6</ele>
        <time>2019-07-09T13:17:39Z</time>
      </trkpt>
      <trkpt lat="39.8659850" lon="-6.0484370">
        <ele>343.8</ele>
        <time>2019-07-09T13:17:40Z</time>
      </trkpt>
      <trkpt lat="39.8659040" lon="-6.0485600">
        <ele>344.6</ele>
        <time>2019-07-09T13:17:46Z</time>
      </trkpt>
      <trkpt lat="39.8658650" lon="-6.0486060">
        <ele>345.0</ele>
        <time>2019-07-09T13:17:49Z</time>
      </trkpt>
      <trkpt lat="39.8658320" lon="-6.0486490">
        <ele>346.0</ele>
        <time>2019-07-09T13:17:52Z</time>
      </trkpt>
      <trkpt lat="39.8657840" lon="-6.0487150">
        <ele>347.4</ele>
        <time>2019-07-09T13:17:57Z</time>
      </trkpt>
      <trkpt lat="39.8657490" lon="-6.0487700">
        <ele>348.4</ele>
        <time>2019-07-09T13:18:01Z</time>
      </trkpt>
      <trkpt lat="39.8657140" lon="-6.0488180">
        <ele>349.8</ele>
        <time>2019-07-09T13:18:05Z</time>
      </trkpt>
      <trkpt lat="39.8657050" lon="-6.0488290">
        <ele>350.2</ele>
        <time>2019-07-09T13:18:06Z</time>
      </trkpt>
      <trkpt lat="39.8656790" lon="-6.0488640">
        <ele>351.0</ele>
        <time>2019-07-09T13:18:09Z</time>
      </trkpt>
      <trkpt lat="39.8656470" lon="-6.0489210">
        <ele>352.0</ele>
        <time>2019-07-09T13:18:13Z</time>
      </trkpt>
      <trkpt lat="39.8656380" lon="-6.0489340">
        <ele>352.4</ele>
        <time>2019-07-09T13:18:14Z</time>
      </trkpt>
      <trkpt lat="39.8656160" lon="-6.0489700">
        <ele>353.2</ele>
        <time>2019-07-09T13:18:17Z</time>
      </trkpt>
      <trkpt lat="39.8656110" lon="-6.0489840">
        <ele>353.4</ele>
        <time>2019-07-09T13:18:18Z</time>
      </trkpt>
      <trkpt lat="39.8656050" lon="-6.0490160">
        <ele>354.0</ele>
        <time>2019-07-09T13:18:20Z</time>
      </trkpt>
      <trkpt lat="39.8656000" lon="-6.0490300">
        <ele>354.2</ele>
        <time>2019-07-09T13:18:21Z</time>
      </trkpt>
      <trkpt lat="39.8655660" lon="-6.0491280">
        <ele>355.6</ele>
        <time>2019-07-09T13:18:27Z</time>
      </trkpt>
      <trkpt lat="39.8655620" lon="-6.0491480">
        <ele>355.8</ele>
        <time>2019-07-09T13:18:28Z</time>
      </trkpt>
      <trkpt lat="39.8655210" lon="-6.0492540">
        <ele>356.8</ele>
        <time>2019-07-09T13:18:34Z</time>
      </trkpt>
      <trkpt lat="39.8655160" lon="-6.0492730">
        <ele>357.0</ele>
        <time>2019-07-09T13:18:35Z</time>
      </trkpt>
      <trkpt lat="39.8654840" lon="-6.0494000">
        <ele>357.6</ele>
        <time>2019-07-09T13:18:41Z</time>
      </trkpt>
      <trkpt lat="39.8654780" lon="-6.0494220">
        <ele>357.8</ele>
        <time>2019-07-09T13:18:42Z</time>
      </trkpt>
      <trkpt lat="39.8654390" lon="-6.0495590">
        <ele>358.4</ele>
        <time>2019-07-09T13:18:48Z</time>
      </trkpt>
      <trkpt lat="39.8654310" lon="-6.0495840">
        <ele>358.6</ele>
        <time>2019-07-09T13:18:49Z</time>
      </trkpt>
      <trkpt lat="39.8654150" lon="-6.0496400">
        <ele>359.0</ele>
        <time>2019-07-09T13:18:51Z</time>
      </trkpt>
      <trkpt lat="39.8653920" lon="-6.0497590">
        <ele>359.4</ele>
        <time>2019-07-09T13:18:55Z</time>
      </trkpt>
      <trkpt lat="39.8653620" lon="-6.0499260">
        <ele>359.8</ele>
        <time>2019-07-09T13:19:00Z</time>
      </trkpt>
      <trkpt lat="39.8653430" lon="-6.0500040">
        <ele>360.0</ele>
        <time>2019-07-09T13:19:02Z</time>
      </trkpt>
      <trkpt lat="39.8652860" lon="-6.0502650">
        <ele>360.4</ele>
        <time>2019-07-09T13:19:08Z</time>
      </trkpt>
      <trkpt lat="39.8652720" lon="-6.0503530">
        <ele>360.6</ele>
        <time>2019-07-09T13:19:10Z</time>
      </trkpt>
      <trkpt lat="39.8652300" lon="-6.0506130">
        <ele>361.2</ele>
        <time>2019-07-09T13:19:16Z</time>
      </trkpt>
      <trkpt lat="39.8652110" lon="-6.0507490">
        <ele>361.6</ele>
        <time>2019-07-09T13:19:19Z</time>
      </trkpt>
      <trkpt lat="39.8651910" lon="-6.0509190">
        <ele>362.4</ele>
        <time>2019-07-09T13:19:23Z</time>
      </trkpt>
      <trkpt lat="39.8651850" lon="-6.0511440">
        <ele>363.0</ele>
        <time>2019-07-09T13:19:29Z</time>
      </trkpt>
      <trkpt lat="39.8651790" lon="-6.0512450">
        <ele>363.6</ele>
        <time>2019-07-09T13:19:32Z</time>
      </trkpt>
      <trkpt lat="39.8651780" lon="-6.0513180">
        <ele>364.0</ele>
        <time>2019-07-09T13:19:35Z</time>
      </trkpt>
      <trkpt lat="39.8651550" lon="-6.0514240">
        <ele>364.6</ele>
        <time>2019-07-09T13:19:39Z</time>
      </trkpt>
      <trkpt lat="39.8651400" lon="-6.0514870">
        <ele>365.2</ele>
        <time>2019-07-09T13:19:41Z</time>
      </trkpt>
      <trkpt lat="39.8650830" lon="-6.0516940">
        <ele>365.4</ele>
        <time>2019-07-09T13:19:47Z</time>
      </trkpt>
      <trkpt lat="39.8650770" lon="-6.0517640">
        <ele>365.8</ele>
        <time>2019-07-09T13:19:49Z</time>
      </trkpt>
      <trkpt lat="39.8650750" lon="-6.0518600">
        <ele>367.2</ele>
        <time>2019-07-09T13:19:52Z</time>
      </trkpt>
      <trkpt lat="39.8650750" lon="-6.0518930">
        <ele>367.4</ele>
        <time>2019-07-09T13:19:53Z</time>
      </trkpt>
      <trkpt lat="39.8650370" lon="-6.0521190">
        <ele>368.0</ele>
        <time>2019-07-09T13:20:00Z</time>
      </trkpt>
      <trkpt lat="39.8650240" lon="-6.0521500">
        <ele>368.2</ele>
        <time>2019-07-09T13:20:01Z</time>
      </trkpt>
      <trkpt lat="39.8649790" lon="-6.0522940">
        <ele>369.0</ele>
        <time>2019-07-09T13:20:05Z</time>
      </trkpt>
      <trkpt lat="39.8649590" lon="-6.0523680">
        <ele>369.4</ele>
        <time>2019-07-09T13:20:07Z</time>
      </trkpt>
      <trkpt lat="39.8649270" lon="-6.0525220">
        <ele>369.6</ele>
        <time>2019-07-09T13:20:11Z</time>
      </trkpt>
      <trkpt lat="39.8648240" lon="-6.0528320">
        <ele>370.0</ele>
        <time>2019-07-09T13:20:19Z</time>
      </trkpt>
      <trkpt lat="39.8647910" lon="-6.0528950">
        <ele>370.4</ele>
        <time>2019-07-09T13:20:21Z</time>
      </trkpt>
      <trkpt lat="39.8646720" lon="-6.0530290">
        <ele>371.4</ele>
        <time>2019-07-09T13:20:26Z</time>
      </trkpt>
      <trkpt lat="39.8646460" lon="-6.0530560">
        <ele>371.6</ele>
        <time>2019-07-09T13:20:27Z</time>
      </trkpt>
      <trkpt lat="39.8644920" lon="-6.0531600">
        <ele>372.4</ele>
        <time>2019-07-09T13:20:32Z</time>
      </trkpt>
      <trkpt lat="39.8644370" lon="-6.0531940">
        <ele>372.6</ele>
        <time>2019-07-09T13:20:34Z</time>
      </trkpt>
      <trkpt lat="39.8643420" lon="-6.0533040">
        <ele>373.2</ele>
        <time>2019-07-09T13:20:38Z</time>
      </trkpt>
      <trkpt lat="39.8643360" lon="-6.0533450">
        <ele>373.2</ele>
        <time>2019-07-09T13:20:39Z</time>
      </trkpt>
      <trkpt lat="39.8643570" lon="-6.0534160">
        <ele>373.4</ele>
        <time>2019-07-09T13:20:41Z</time>
      </trkpt>
      <trkpt lat="39.8643760" lon="-6.0534470">
        <ele>373.8</ele>
        <time>2019-07-09T13:20:42Z</time>
      </trkpt>
      <trkpt lat="39.8644860" lon="-6.0535930">
        <ele>374.8</ele>
        <time>2019-07-09T13:20:47Z</time>
      </trkpt>
      <trkpt lat="39.8645090" lon="-6.0536260">
        <ele>374.8</ele>
        <time>2019-07-09T13:20:48Z</time>
      </trkpt>
      <trkpt lat="39.8646050" lon="-6.0538260">
        <ele>375.0</ele>
        <time>2019-07-09T13:20:53Z</time>
      </trkpt>
      <trkpt lat="39.8646170" lon="-6.0539320">
        <ele>374.8</ele>
        <time>2019-07-09T13:20:55Z</time>
      </trkpt>
      <trkpt lat="39.8646270" lon="-6.0541660">
        <ele>375.0</ele>
        <time>2019-07-09T13:20:59Z</time>
      </trkpt>
      <trkpt lat="39.8646330" lon="-6.0542210">
        <ele>375.4</ele>
        <time>2019-07-09T13:21:00Z</time>
      </trkpt>
      <trkpt lat="39.8646650" lon="-6.0543110">
        <ele>375.8</ele>
        <time>2019-07-09T13:21:02Z</time>
      </trkpt>
      <trkpt lat="39.8646870" lon="-6.0543450">
        <ele>376.0</ele>
        <time>2019-07-09T13:21:03Z</time>
      </trkpt>
      <trkpt lat="39.8647100" lon="-6.0543760">
        <ele>376.2</ele>
        <time>2019-07-09T13:21:04Z</time>
      </trkpt>
      <trkpt lat="39.8648810" lon="-6.0546080">
        <ele>376.8</ele>
        <time>2019-07-09T13:21:11Z</time>
      </trkpt>
      <trkpt lat="39.8649980" lon="-6.0548170">
        <ele>377.6</ele>
        <time>2019-07-09T13:21:17Z</time>
      </trkpt>
      <trkpt lat="39.8650340" lon="-6.0548830">
        <ele>378.0</ele>
        <time>2019-07-09T13:21:19Z</time>
      </trkpt>
      <trkpt lat="39.8651230" lon="-6.0551160">
        <ele>379.2</ele>
        <time>2019-07-09T13:21:25Z</time>
      </trkpt>
      <trkpt lat="39.8651890" lon="-6.0554670">
        <ele>379.6</ele>
        <time>2019-07-09T13:21:32Z</time>
      </trkpt>
      <trkpt lat="39.8651840" lon="-6.0556570">
        <ele>380.2</ele>
        <time>2019-07-09T13:21:36Z</time>
      </trkpt>
      <trkpt lat="39.8651790" lon="-6.0557030">
        <ele>380.2</ele>
        <time>2019-07-09T13:21:37Z</time>
      </trkpt>
      <trkpt lat="39.8651930" lon="-6.0559290">
        <ele>380.4</ele>
        <time>2019-07-09T13:21:42Z</time>
      </trkpt>
      <trkpt lat="39.8653020" lon="-6.0560190">
        <ele>381.0</ele>
        <time>2019-07-09T13:21:46Z</time>
      </trkpt>
      <trkpt lat="39.8653260" lon="-6.0560230">
        <ele>381.4</ele>
        <time>2019-07-09T13:21:47Z</time>
      </trkpt>
      <trkpt lat="39.8654220" lon="-6.0560560">
        <ele>382.4</ele>
        <time>2019-07-09T13:21:52Z</time>
      </trkpt>
      <trkpt lat="39.8655690" lon="-6.0561430">
        <ele>383.6</ele>
        <time>2019-07-09T13:21:59Z</time>
      </trkpt>
      <trkpt lat="39.8655840" lon="-6.0561590">
        <ele>383.8</ele>
        <time>2019-07-09T13:22:00Z</time>
      </trkpt>
      <trkpt lat="39.8656440" lon="-6.0562430">
        <ele>384.6</ele>
        <time>2019-07-09T13:22:04Z</time>
      </trkpt>
      <trkpt lat="39.8656580" lon="-6.0562670">
        <ele>384.6</ele>
        <time>2019-07-09T13:22:05Z</time>
      </trkpt>
      <trkpt lat="39.8657170" lon="-6.0564150">
        <ele>385.4</ele>
        <time>2019-07-09T13:22:10Z</time>
      </trkpt>
      <trkpt lat="39.8657530" lon="-6.0564720">
        <ele>385.4</ele>
        <time>2019-07-09T13:22:14Z</time>
      </trkpt>
      <trkpt lat="39.8657530" lon="-6.0564750">
        <ele>385.4</ele>
        <time>2019-07-09T13:22:15Z</time>
      </trkpt>
      <trkpt lat="39.8657890" lon="-6.0564710">
        <ele>385.0</ele>
        <time>2019-07-09T13:22:24Z</time>
      </trkpt>
      <trkpt lat="39.8658310" lon="-6.0564440">
        <ele>385.0</ele>
        <time>2019-07-09T13:22:26Z</time>
      </trkpt>
      <trkpt lat="39.8659350" lon="-6.0564390">
        <ele>384.8</ele>
        <time>2019-07-09T13:22:30Z</time>
      </trkpt>
      <trkpt lat="39.8659690" lon="-6.0564450">
        <ele>384.8</ele>
        <time>2019-07-09T13:22:31Z</time>
      </trkpt>
      <trkpt lat="39.8661050" lon="-6.0565290">
        <ele>385.0</ele>
        <time>2019-07-09T13:22:35Z</time>
      </trkpt>
      <trkpt lat="39.8661700" lon="-6.0565900">
        <ele>384.8</ele>
        <time>2019-07-09T13:22:37Z</time>
      </trkpt>
      <trkpt lat="39.8662950" lon="-6.0567160">
        <ele>385.0</ele>
        <time>2019-07-09T13:22:41Z</time>
      </trkpt>
      <trkpt lat="39.8664580" lon="-6.0567700">
        <ele>385.0</ele>
        <time>2019-07-09T13:22:45Z</time>
      </trkpt>
      <trkpt lat="39.8665480" lon="-6.0567560">
        <ele>385.0</ele>
        <time>2019-07-09T13:22:47Z</time>
      </trkpt>
      <trkpt lat="39.8668270" lon="-6.0567200">
        <ele>384.6</ele>
        <time>2019-07-09T13:22:53Z</time>
      </trkpt>
      <trkpt lat="39.8668750" lon="-6.0567210">
        <ele>384.6</ele>
        <time>2019-07-09T13:22:54Z</time>
      </trkpt>
      <trkpt lat="39.8670030" lon="-6.0568030">
        <ele>384.6</ele>
        <time>2019-07-09T13:22:57Z</time>
      </trkpt>
      <trkpt lat="39.8670760" lon="-6.0569760">
        <ele>384.8</ele>
        <time>2019-07-09T13:23:00Z</time>
      </trkpt>
      <trkpt lat="39.8670930" lon="-6.0570390">
        <ele>385.0</ele>
        <time>2019-07-09T13:23:01Z</time>
      </trkpt>
      <trkpt lat="39.8671990" lon="-6.0573830">
        <ele>385.2</ele>
        <time>2019-07-09T13:23:07Z</time>
      </trkpt>
      <trkpt lat="39.8672280" lon="-6.0574310">
        <ele>385.2</ele>
        <time>2019-07-09T13:23:08Z</time>
      </trkpt>
      <trkpt lat="39.8673800" lon="-6.0575610">
        <ele>385.6</ele>
        <time>2019-07-09T13:23:12Z</time>
      </trkpt>
      <trkpt lat="39.8674250" lon="-6.0575650">
        <ele>385.8</ele>
        <time>2019-07-09T13:23:13Z</time>
      </trkpt>
      <trkpt lat="39.8675080" lon="-6.0575290">
        <ele>386.6</ele>
        <time>2019-07-09T13:23:15Z</time>
      </trkpt>
      <trkpt lat="39.8675880" lon="-6.0573840">
        <ele>386.8</ele>
        <time>2019-07-09T13:23:18Z</time>
      </trkpt>
      <trkpt lat="39.8676260" lon="-6.0571320">
        <ele>386.2</ele>
        <time>2019-07-09T13:23:22Z</time>
      </trkpt>
      <trkpt lat="39.8676370" lon="-6.0570000">
        <ele>386.2</ele>
        <time>2019-07-09T13:23:24Z</time>
      </trkpt>
      <trkpt lat="39.8676520" lon="-6.0568620">
        <ele>386.2</ele>
        <time>2019-07-09T13:23:26Z</time>
      </trkpt>
      <trkpt lat="39.8677160" lon="-6.0565960">
        <ele>386.8</ele>
        <time>2019-07-09T13:23:30Z</time>
      </trkpt>
      <trkpt lat="39.8679140" lon="-6.0561240">
        <ele>386.6</ele>
        <time>2019-07-09T13:23:38Z</time>
      </trkpt>
      <trkpt lat="39.8680340" lon="-6.0559000">
        <ele>387.2</ele>
        <time>2019-07-09T13:23:42Z</time>
      </trkpt>
      <trkpt lat="39.8682010" lon="-6.0556320">
        <ele>387.2</ele>
        <time>2019-07-09T13:23:47Z</time>
      </trkpt>
      <trkpt lat="39.8683920" lon="-6.0555180">
        <ele>387.4</ele>
        <time>2019-07-09T13:23:51Z</time>
      </trkpt>
      <trkpt lat="39.8685940" lon="-6.0555610">
        <ele>388.0</ele>
        <time>2019-07-09T13:23:55Z</time>
      </trkpt>
      <trkpt lat="39.8686390" lon="-6.0555940">
        <ele>388.2</ele>
        <time>2019-07-09T13:23:56Z</time>
      </trkpt>
      <trkpt lat="39.8687410" lon="-6.0557480">
        <ele>388.4</ele>
        <time>2019-07-09T13:23:59Z</time>
      </trkpt>
      <trkpt lat="39.8687680" lon="-6.0559450">
        <ele>388.6</ele>
        <time>2019-07-09T13:24:02Z</time>
      </trkpt>
      <trkpt lat="39.8687700" lon="-6.0560120">
        <ele>388.6</ele>
        <time>2019-07-09T13:24:03Z</time>
      </trkpt>
      <trkpt lat="39.8687780" lon="-6.0562630">
        <ele>389.0</ele>
        <time>2019-07-09T13:24:07Z</time>
      </trkpt>
      <trkpt lat="39.8687990" lon="-6.0563860">
        <ele>389.2</ele>
        <time>2019-07-09T13:24:09Z</time>
      </trkpt>
      <trkpt lat="39.8688170" lon="-6.0564450">
        <ele>389.4</ele>
        <time>2019-07-09T13:24:10Z</time>
      </trkpt>
      <trkpt lat="39.8688970" lon="-6.0565940">
        <ele>390.0</ele>
        <time>2019-07-09T13:24:13Z</time>
      </trkpt>
      <trkpt lat="39.8690500" lon="-6.0567030">
        <ele>389.8</ele>
        <time>2019-07-09T13:24:17Z</time>
      </trkpt>
      <trkpt lat="39.8690900" lon="-6.0567200">
        <ele>389.8</ele>
        <time>2019-07-09T13:24:18Z</time>
      </trkpt>
      <trkpt lat="39.8692890" lon="-6.0567700">
        <ele>389.4</ele>
        <time>2019-07-09T13:24:23Z</time>
      </trkpt>
      <trkpt lat="39.8693280" lon="-6.0567840">
        <ele>389.4</ele>
        <time>2019-07-09T13:24:24Z</time>
      </trkpt>
      <trkpt lat="39.8695880" lon="-6.0569250">
        <ele>389.8</ele>
        <time>2019-07-09T13:24:31Z</time>
      </trkpt>
      <trkpt lat="39.8696660" lon="-6.0571200">
        <ele>390.0</ele>
        <time>2019-07-09T13:24:35Z</time>
      </trkpt>
      <trkpt lat="39.8696860" lon="-6.0572930">
        <ele>390.6</ele>
        <time>2019-07-09T13:24:38Z</time>
      </trkpt>
      <trkpt lat="39.8696920" lon="-6.0573540">
        <ele>390.6</ele>
        <time>2019-07-09T13:24:39Z</time>
      </trkpt>
      <trkpt lat="39.8696980" lon="-6.0574800">
        <ele>390.4</ele>
        <time>2019-07-09T13:24:41Z</time>
      </trkpt>
      <trkpt lat="39.8697160" lon="-6.0576630">
        <ele>390.6</ele>
        <time>2019-07-09T13:24:44Z</time>
      </trkpt>
      <trkpt lat="39.8697700" lon="-6.0578270">
        <ele>390.4</ele>
        <time>2019-07-09T13:24:47Z</time>
      </trkpt>
      <trkpt lat="39.8699070" lon="-6.0579650">
        <ele>390.8</ele>
        <time>2019-07-09T13:24:51Z</time>
      </trkpt>
      <trkpt lat="39.8701980" lon="-6.0581630">
        <ele>391.0</ele>
        <time>2019-07-09T13:24:59Z</time>
      </trkpt>
      <trkpt lat="39.8702330" lon="-6.0581900">
        <ele>391.4</ele>
        <time>2019-07-09T13:25:00Z</time>
      </trkpt>
      <trkpt lat="39.8704010" lon="-6.0583360">
        <ele>392.4</ele>
        <time>2019-07-09T13:25:05Z</time>
      </trkpt>
      <trkpt lat="39.8704220" lon="-6.0583730">
        <ele>392.6</ele>
        <time>2019-07-09T13:25:06Z</time>
      </trkpt>
      <trkpt lat="39.8704350" lon="-6.0584150">
        <ele>392.8</ele>
        <time>2019-07-09T13:25:07Z</time>
      </trkpt>
      <trkpt lat="39.8704340" lon="-6.0584920">
        <ele>392.8</ele>
        <time>2019-07-09T13:25:09Z</time>
      </trkpt>
      <trkpt lat="39.8703760" lon="-6.0586390">
        <ele>392.8</ele>
        <time>2019-07-09T13:25:13Z</time>
      </trkpt>
      <trkpt lat="39.8703580" lon="-6.0586820">
        <ele>392.8</ele>
        <time>2019-07-09T13:25:14Z</time>
      </trkpt>
      <trkpt lat="39.8702470" lon="-6.0590770">
        <ele>393.4</ele>
        <time>2019-07-09T13:25:22Z</time>
      </trkpt>
      <trkpt lat="39.8701880" lon="-6.0593050">
        <ele>393.4</ele>
        <time>2019-07-09T13:25:26Z</time>
      </trkpt>
      <trkpt lat="39.8701530" lon="-6.0594860">
        <ele>393.8</ele>
        <time>2019-07-09T13:25:29Z</time>
      </trkpt>
      <trkpt lat="39.8702040" lon="-6.0597270">
        <ele>393.4</ele>
        <time>2019-07-09T13:25:33Z</time>
      </trkpt>
      <trkpt lat="39.8702600" lon="-6.0598350">
        <ele>393.2</ele>
        <time>2019-07-09T13:25:35Z</time>
      </trkpt>
      <trkpt lat="39.8702860" lon="-6.0598910">
        <ele>393.2</ele>
        <time>2019-07-09T13:25:36Z</time>
      </trkpt>
      <trkpt lat="39.8703600" lon="-6.0600830">
        <ele>393.0</ele>
        <time>2019-07-09T13:25:39Z</time>
      </trkpt>
      <trkpt lat="39.8704460" lon="-6.0603460">
        <ele>392.6</ele>
        <time>2019-07-09T13:25:43Z</time>
      </trkpt>
      <trkpt lat="39.8705150" lon="-6.0605370">
        <ele>392.6</ele>
        <time>2019-07-09T13:25:46Z</time>
      </trkpt>
      <trkpt lat="39.8705480" lon="-6.0605910">
        <ele>392.4</ele>
        <time>2019-07-09T13:25:47Z</time>
      </trkpt>
      <trkpt lat="39.8706810" lon="-6.0607150">
        <ele>392.2</ele>
        <time>2019-07-09T13:25:50Z</time>
      </trkpt>
      <trkpt lat="39.8707320" lon="-6.0607440">
        <ele>392.2</ele>
        <time>2019-07-09T13:25:51Z</time>
      </trkpt>
      <trkpt lat="39.8708900" lon="-6.0608010">
        <ele>392.0</ele>
        <time>2019-07-09T13:25:54Z</time>
      </trkpt>
      <trkpt lat="39.8709840" lon="-6.0608550">
        <ele>392.2</ele>
        <time>2019-07-09T13:25:56Z</time>
      </trkpt>
      <trkpt lat="39.8710440" lon="-6.0609580">
        <ele>392.0</ele>
        <time>2019-07-09T13:25:58Z</time>
      </trkpt>
      <trkpt lat="39.8710530" lon="-6.0610930">
        <ele>392.0</ele>
        <time>2019-07-09T13:26:00Z</time>
      </trkpt>
      <trkpt lat="39.8710470" lon="-6.0612310">
        <ele>392.0</ele>
        <time>2019-07-09T13:26:02Z</time>
      </trkpt>
      <trkpt lat="39.8710330" lon="-6.0615950">
        <ele>392.2</ele>
        <time>2019-07-09T13:26:07Z</time>
      </trkpt>
      <trkpt lat="39.8710220" lon="-6.0616670">
        <ele>392.2</ele>
        <time>2019-07-09T13:26:08Z</time>
      </trkpt>
      <trkpt lat="39.8709770" lon="-6.0618740">
        <ele>391.8</ele>
        <time>2019-07-09T13:26:11Z</time>
      </trkpt>
      <trkpt lat="39.8709610" lon="-6.0620010">
        <ele>391.6</ele>
        <time>2019-07-09T13:26:13Z</time>
      </trkpt>
      <trkpt lat="39.8709580" lon="-6.0620450">
        <ele>391.4</ele>
        <time>2019-07-09T13:26:14Z</time>
      </trkpt>
      <trkpt lat="39.8709560" lon="-6.0620660">
        <ele>391.4</ele>
        <time>2019-07-09T13:26:15Z</time>
      </trkpt>
      <trkpt lat="39.8709560" lon="-6.0620670">
        <ele>391.0</ele>
        <time>2019-07-09T13:26:17Z</time>
      </trkpt>
      <trkpt lat="39.8709610" lon="-6.0620940">
        <ele>391.2</ele>
        <time>2019-07-09T13:26:55Z</time>
      </trkpt>
      <trkpt lat="39.8709630" lon="-6.0621200">
        <ele>391.2</ele>
        <time>2019-07-09T13:26:56Z</time>
      </trkpt>
      <trkpt lat="39.8709690" lon="-6.0621490">
        <ele>391.2</ele>
        <time>2019-07-09T13:26:57Z</time>
      </trkpt>
      <trkpt lat="39.8709880" lon="-6.0622190">
        <ele>391.4</ele>
        <time>2019-07-09T13:26:59Z</time>
      </trkpt>
      <trkpt lat="39.8710600" lon="-6.0623680">
        <ele>391.2</ele>
        <time>2019-07-09T13:27:03Z</time>
      </trkpt>
      <trkpt lat="39.8711920" lon="-6.0625400">
        <ele>390.6</ele>
        <time>2019-07-09T13:27:08Z</time>
      </trkpt>
      <trkpt lat="39.8712560" lon="-6.0626730">
        <ele>390.2</ele>
        <time>2019-07-09T13:27:11Z</time>
      </trkpt>
      <trkpt lat="39.8712640" lon="-6.0627770">
        <ele>390.2</ele>
        <time>2019-07-09T13:27:13Z</time>
      </trkpt>
      <trkpt lat="39.8711820" lon="-6.0629320">
        <ele>390.6</ele>
        <time>2019-07-09T13:27:17Z</time>
      </trkpt>
      <trkpt lat="39.8710450" lon="-6.0630660">
        <ele>390.6</ele>
        <time>2019-07-09T13:27:22Z</time>
      </trkpt>
      <trkpt lat="39.8709860" lon="-6.0631270">
        <ele>390.2</ele>
        <time>2019-07-09T13:27:24Z</time>
      </trkpt>
      <trkpt lat="39.8708830" lon="-6.0632120">
        <ele>390.2</ele>
        <time>2019-07-09T13:27:27Z</time>
      </trkpt>
      <trkpt lat="39.8708440" lon="-6.0632350">
        <ele>390.4</ele>
        <time>2019-07-09T13:27:28Z</time>
      </trkpt>
      <trkpt lat="39.8706750" lon="-6.0633300">
        <ele>390.4</ele>
        <time>2019-07-09T13:27:32Z</time>
      </trkpt>
      <trkpt lat="39.8706340" lon="-6.0633630">
        <ele>390.4</ele>
        <time>2019-07-09T13:27:33Z</time>
      </trkpt>
      <trkpt lat="39.8705090" lon="-6.0635600">
        <ele>390.0</ele>
        <time>2019-07-09T13:27:37Z</time>
      </trkpt>
      <trkpt lat="39.8704330" lon="-6.0638970">
        <ele>389.6</ele>
        <time>2019-07-09T13:27:42Z</time>
      </trkpt>
      <trkpt lat="39.8703380" lon="-6.0640280">
        <ele>389.0</ele>
        <time>2019-07-09T13:27:45Z</time>
      </trkpt>
      <trkpt lat="39.8702930" lon="-6.0640430">
        <ele>388.6</ele>
        <time>2019-07-09T13:27:46Z</time>
      </trkpt>
      <trkpt lat="39.8702480" lon="-6.0640520">
        <ele>388.4</ele>
        <time>2019-07-09T13:27:47Z</time>
      </trkpt>
      <trkpt lat="39.8700990" lon="-6.0640640">
        <ele>388.4</ele>
        <time>2019-07-09T13:27:50Z</time>
      </trkpt>
      <trkpt lat="39.8699790" lon="-6.0641820">
        <ele>388.6</ele>
        <time>2019-07-09T13:27:53Z</time>
      </trkpt>
      <trkpt lat="39.8698960" lon="-6.0643520">
        <ele>388.4</ele>
        <time>2019-07-09T13:27:56Z</time>
      </trkpt>
      <trkpt lat="39.8698230" lon="-6.0644590">
        <ele>388.0</ele>
        <time>2019-07-09T13:27:58Z</time>
      </trkpt>
      <trkpt lat="39.8697810" lon="-6.0644990">
        <ele>387.8</ele>
        <time>2019-07-09T13:27:59Z</time>
      </trkpt>
      <trkpt lat="39.8696490" lon="-6.0645850">
        <ele>387.2</ele>
        <time>2019-07-09T13:28:02Z</time>
      </trkpt>
      <trkpt lat="39.8695530" lon="-6.0646210">
        <ele>387.0</ele>
        <time>2019-07-09T13:28:04Z</time>
      </trkpt>
      <trkpt lat="39.8692170" lon="-6.0646960">
        <ele>387.6</ele>
        <time>2019-07-09T13:28:11Z</time>
      </trkpt>
      <trkpt lat="39.8691730" lon="-6.0647150">
        <ele>387.8</ele>
        <time>2019-07-09T13:28:12Z</time>
      </trkpt>
      <trkpt lat="39.8690590" lon="-6.0647890">
        <ele>388.2</ele>
        <time>2019-07-09T13:28:15Z</time>
      </trkpt>
      <trkpt lat="39.8689560" lon="-6.0648330">
        <ele>389.0</ele>
        <time>2019-07-09T13:28:18Z</time>
      </trkpt>
      <trkpt lat="39.8688380" lon="-6.0648470">
        <ele>389.4</ele>
        <time>2019-07-09T13:28:21Z</time>
      </trkpt>
      <trkpt lat="39.8687960" lon="-6.0648440">
        <ele>389.6</ele>
        <time>2019-07-09T13:28:22Z</time>
      </trkpt>
      <trkpt lat="39.8686630" lon="-6.0648280">
        <ele>389.6</ele>
        <time>2019-07-09T13:28:25Z</time>
      </trkpt>
      <trkpt lat="39.8685620" lon="-6.0648390">
        <ele>389.6</ele>
        <time>2019-07-09T13:28:27Z</time>
      </trkpt>
      <trkpt lat="39.8684320" lon="-6.0649410">
        <ele>389.2</ele>
        <time>2019-07-09T13:28:30Z</time>
      </trkpt>
      <trkpt lat="39.8683720" lon="-6.0650490">
        <ele>389.2</ele>
        <time>2019-07-09T13:28:32Z</time>
      </trkpt>
      <trkpt lat="39.8682900" lon="-6.0652150">
        <ele>389.4</ele>
        <time>2019-07-09T13:28:35Z</time>
      </trkpt>
      <trkpt lat="39.8680550" lon="-6.0656680">
        <ele>389.4</ele>
        <time>2019-07-09T13:28:43Z</time>
      </trkpt>
      <trkpt lat="39.8679020" lon="-6.0659840">
        <ele>389.0</ele>
        <time>2019-07-09T13:28:48Z</time>
      </trkpt>
      <trkpt lat="39.8678360" lon="-6.0661180">
        <ele>388.6</ele>
        <time>2019-07-09T13:28:50Z</time>
      </trkpt>
      <trkpt lat="39.8677410" lon="-6.0663250">
        <ele>388.4</ele>
        <time>2019-07-09T13:28:53Z</time>
      </trkpt>
      <trkpt lat="39.8676770" lon="-6.0664640">
        <ele>388.0</ele>
        <time>2019-07-09T13:28:55Z</time>
      </trkpt>
      <trkpt lat="39.8676440" lon="-6.0665310">
        <ele>387.8</ele>
        <time>2019-07-09T13:28:56Z</time>
      </trkpt>
      <trkpt lat="39.8676110" lon="-6.0665990">
        <ele>387.8</ele>
        <time>2019-07-09T13:28:57Z</time>
      </trkpt>
      <trkpt lat="39.8674420" lon="-6.0669440">
        <ele>386.6</ele>
        <time>2019-07-09T13:29:02Z</time>
      </trkpt>
      <trkpt lat="39.8673410" lon="-6.0671540">
        <ele>386.0</ele>
        <time>2019-07-09T13:29:05Z</time>
      </trkpt>
      <trkpt lat="39.8673070" lon="-6.0672260">
        <ele>385.8</ele>
        <time>2019-07-09T13:29:06Z</time>
      </trkpt>
      <trkpt lat="39.8672690" lon="-6.0672960">
        <ele>385.6</ele>
        <time>2019-07-09T13:29:07Z</time>
      </trkpt>
      <trkpt lat="39.8671780" lon="-6.0674280">
        <ele>385.4</ele>
        <time>2019-07-09T13:29:09Z</time>
      </trkpt>
      <trkpt lat="39.8671250" lon="-6.0674870">
        <ele>385.2</ele>
        <time>2019-07-09T13:29:10Z</time>
      </trkpt>
      <trkpt lat="39.8669440" lon="-6.0676490">
        <ele>384.4</ele>
        <time>2019-07-09T13:29:13Z</time>
      </trkpt>
      <trkpt lat="39.8668320" lon="-6.0677780">
        <ele>383.8</ele>
        <time>2019-07-09T13:29:15Z</time>
      </trkpt>
      <trkpt lat="39.8667420" lon="-6.0679380">
        <ele>383.0</ele>
        <time>2019-07-09T13:29:17Z</time>
      </trkpt>
      <trkpt lat="39.8666600" lon="-6.0681200">
        <ele>382.4</ele>
        <time>2019-07-09T13:29:19Z</time>
      </trkpt>
      <trkpt lat="39.8665750" lon="-6.0683090">
        <ele>382.0</ele>
        <time>2019-07-09T13:29:21Z</time>
      </trkpt>
      <trkpt lat="39.8664390" lon="-6.0685930">
        <ele>380.8</ele>
        <time>2019-07-09T13:29:24Z</time>
      </trkpt>
      <trkpt lat="39.8663930" lon="-6.0686770">
        <ele>380.4</ele>
        <time>2019-07-09T13:29:25Z</time>
      </trkpt>
      <trkpt lat="39.8663110" lon="-6.0688300">
        <ele>379.4</ele>
        <time>2019-07-09T13:29:27Z</time>
      </trkpt>
      <trkpt lat="39.8661790" lon="-6.0690520">
        <ele>378.2</ele>
        <time>2019-07-09T13:29:30Z</time>
      </trkpt>
      <trkpt lat="39.8661270" lon="-6.0691270">
        <ele>377.8</ele>
        <time>2019-07-09T13:29:31Z</time>
      </trkpt>
      <trkpt lat="39.8660100" lon="-6.0692700">
        <ele>377.0</ele>
        <time>2019-07-09T13:29:33Z</time>
      </trkpt>
      <trkpt lat="39.8658770" lon="-6.0694110">
        <ele>376.4</ele>
        <time>2019-07-09T13:29:35Z</time>
      </trkpt>
      <trkpt lat="39.8658030" lon="-6.0694770">
        <ele>375.8</ele>
        <time>2019-07-09T13:29:36Z</time>
      </trkpt>
      <trkpt lat="39.8656470" lon="-6.0695960">
        <ele>374.2</ele>
        <time>2019-07-09T13:29:38Z</time>
      </trkpt>
      <trkpt lat="39.8654950" lon="-6.0696970">
        <ele>372.8</ele>
        <time>2019-07-09T13:29:40Z</time>
      </trkpt>
      <trkpt lat="39.8653550" lon="-6.0697990">
        <ele>371.6</ele>
        <time>2019-07-09T13:29:42Z</time>
      </trkpt>
      <trkpt lat="39.8652300" lon="-6.0699130">
        <ele>370.4</ele>
        <time>2019-07-09T13:29:44Z</time>
      </trkpt>
      <trkpt lat="39.8651760" lon="-6.0699700">
        <ele>369.8</ele>
        <time>2019-07-09T13:29:45Z</time>
      </trkpt>
      <trkpt lat="39.8651300" lon="-6.0700260">
        <ele>369.4</ele>
        <time>2019-07-09T13:29:46Z</time>
      </trkpt>
      <trkpt lat="39.8650080" lon="-6.0701640">
        <ele>368.2</ele>
        <time>2019-07-09T13:29:49Z</time>
      </trkpt>
      <trkpt lat="39.8649640" lon="-6.0701970">
        <ele>367.6</ele>
        <time>2019-07-09T13:29:50Z</time>
      </trkpt>
      <trkpt lat="39.8649140" lon="-6.0702180">
        <ele>367.0</ele>
        <time>2019-07-09T13:29:51Z</time>
      </trkpt>
      <trkpt lat="39.8648610" lon="-6.0702230">
        <ele>366.4</ele>
        <time>2019-07-09T13:29:52Z</time>
      </trkpt>
      <trkpt lat="39.8648070" lon="-6.0702120">
        <ele>365.8</ele>
        <time>2019-07-09T13:29:53Z</time>
      </trkpt>
      <trkpt lat="39.8646620" lon="-6.0701140">
        <ele>364.6</ele>
        <time>2019-07-09T13:29:56Z</time>
      </trkpt>
      <trkpt lat="39.8645800" lon="-6.0700130">
        <ele>364.0</ele>
        <time>2019-07-09T13:29:58Z</time>
      </trkpt>
      <trkpt lat="39.8644970" lon="-6.0698830">
        <ele>362.8</ele>
        <time>2019-07-09T13:30:00Z</time>
      </trkpt>
      <trkpt lat="39.8644620" lon="-6.0698070">
        <ele>361.8</ele>
        <time>2019-07-09T13:30:01Z</time>
      </trkpt>
      <trkpt lat="39.8643850" lon="-6.0695690">
        <ele>360.6</ele>
        <time>2019-07-09T13:30:04Z</time>
      </trkpt>
      <trkpt lat="39.8643670" lon="-6.0694950">
        <ele>359.8</ele>
        <time>2019-07-09T13:30:05Z</time>
      </trkpt>
      <trkpt lat="39.8643460" lon="-6.0694250">
        <ele>359.0</ele>
        <time>2019-07-09T13:30:06Z</time>
      </trkpt>
      <trkpt lat="39.8642930" lon="-6.0692950">
        <ele>358.0</ele>
        <time>2019-07-09T13:30:08Z</time>
      </trkpt>
      <trkpt lat="39.8642590" lon="-6.0692300">
        <ele>357.8</ele>
        <time>2019-07-09T13:30:09Z</time>
      </trkpt>
      <trkpt lat="39.8642220" lon="-6.0691660">
        <ele>357.6</ele>
        <time>2019-07-09T13:30:10Z</time>
      </trkpt>
      <trkpt lat="39.8641430" lon="-6.0690440">
        <ele>356.6</ele>
        <time>2019-07-09T13:30:12Z</time>
      </trkpt>
      <trkpt lat="39.8641110" lon="-6.0689820">
        <ele>356.6</ele>
        <time>2019-07-09T13:30:13Z</time>
      </trkpt>
      <trkpt lat="39.8640680" lon="-6.0688490">
        <ele>355.6</ele>
        <time>2019-07-09T13:30:15Z</time>
      </trkpt>
      <trkpt lat="39.8640450" lon="-6.0686120">
        <ele>354.0</ele>
        <time>2019-07-09T13:30:18Z</time>
      </trkpt>
      <trkpt lat="39.8640500" lon="-6.0685300">
        <ele>353.6</ele>
        <time>2019-07-09T13:30:19Z</time>
      </trkpt>
      <trkpt lat="39.8640590" lon="-6.0684450">
        <ele>353.2</ele>
        <time>2019-07-09T13:30:20Z</time>
      </trkpt>
      <trkpt lat="39.8640710" lon="-6.0683630">
        <ele>352.8</ele>
        <time>2019-07-09T13:30:21Z</time>
      </trkpt>
      <trkpt lat="39.8641030" lon="-6.0682220">
        <ele>351.4</ele>
        <time>2019-07-09T13:30:23Z</time>
      </trkpt>
      <trkpt lat="39.8641250" lon="-6.0681650">
        <ele>351.2</ele>
        <time>2019-07-09T13:30:24Z</time>
      </trkpt>
      <trkpt lat="39.8641540" lon="-6.0679950">
        <ele>349.8</ele>
        <time>2019-07-09T13:30:28Z</time>
      </trkpt>
      <trkpt lat="39.8641190" lon="-6.0679600">
        <ele>348.8</ele>
        <time>2019-07-09T13:30:30Z</time>
      </trkpt>
      <trkpt lat="39.8640940" lon="-6.0679630">
        <ele>348.4</ele>
        <time>2019-07-09T13:30:31Z</time>
      </trkpt>
      <trkpt lat="39.8640180" lon="-6.0680630">
        <ele>347.8</ele>
        <time>2019-07-09T13:30:34Z</time>
      </trkpt>
      <trkpt lat="39.8639480" lon="-6.0681920">
        <ele>346.6</ele>
        <time>2019-07-09T13:30:36Z</time>
      </trkpt>
      <trkpt lat="39.8639030" lon="-6.0682600">
        <ele>345.6</ele>
        <time>2019-07-09T13:30:37Z</time>
      </trkpt>
      <trkpt lat="39.8638550" lon="-6.0683330">
        <ele>344.6</ele>
        <time>2019-07-09T13:30:38Z</time>
      </trkpt>
      <trkpt lat="39.8637510" lon="-6.0684820">
        <ele>343.6</ele>
        <time>2019-07-09T13:30:40Z</time>
      </trkpt>
      <trkpt lat="39.8635990" lon="-6.0686840">
        <ele>342.0</ele>
        <time>2019-07-09T13:30:43Z</time>
      </trkpt>
      <trkpt lat="39.8634590" lon="-6.0688870">
        <ele>340.2</ele>
        <time>2019-07-09T13:30:46Z</time>
      </trkpt>
      <trkpt lat="39.8633740" lon="-6.0690260">
        <ele>339.0</ele>
        <time>2019-07-09T13:30:48Z</time>
      </trkpt>
      <trkpt lat="39.8633330" lon="-6.0690910">
        <ele>338.4</ele>
        <time>2019-07-09T13:30:49Z</time>
      </trkpt>
      <trkpt lat="39.8632910" lon="-6.0691550">
        <ele>337.6</ele>
        <time>2019-07-09T13:30:50Z</time>
      </trkpt>
      <trkpt lat="39.8632110" lon="-6.0692840">
        <ele>336.2</ele>
        <time>2019-07-09T13:30:52Z</time>
      </trkpt>
      <trkpt lat="39.8631360" lon="-6.0694130">
        <ele>335.2</ele>
        <time>2019-07-09T13:30:54Z</time>
      </trkpt>
      <trkpt lat="39.8631030" lon="-6.0694800">
        <ele>335.0</ele>
        <time>2019-07-09T13:30:55Z</time>
      </trkpt>
      <trkpt lat="39.8630430" lon="-6.0696170">
        <ele>333.8</ele>
        <time>2019-07-09T13:30:57Z</time>
      </trkpt>
      <trkpt lat="39.8629760" lon="-6.0697590">
        <ele>332.6</ele>
        <time>2019-07-09T13:30:59Z</time>
      </trkpt>
      <trkpt lat="39.8629460" lon="-6.0698320">
        <ele>332.0</ele>
        <time>2019-07-09T13:31:00Z</time>
      </trkpt>
      <trkpt lat="39.8629230" lon="-6.0699090">
        <ele>331.4</ele>
        <time>2019-07-09T13:31:01Z</time>
      </trkpt>
      <trkpt lat="39.8628860" lon="-6.0701770">
        <ele>330.6</ele>
        <time>2019-07-09T13:31:04Z</time>
      </trkpt>
      <trkpt lat="39.8628870" lon="-6.0702750">
        <ele>330.2</ele>
        <time>2019-07-09T13:31:05Z</time>
      </trkpt>
      <trkpt lat="39.8629060" lon="-6.0704640">
        <ele>329.2</ele>
        <time>2019-07-09T13:31:07Z</time>
      </trkpt>
      <trkpt lat="39.8629350" lon="-6.0707500">
        <ele>327.8</ele>
        <time>2019-07-09T13:31:10Z</time>
      </trkpt>
      <trkpt lat="39.8629640" lon="-6.0709470">
        <ele>326.4</ele>
        <time>2019-07-09T13:31:12Z</time>
      </trkpt>
      <trkpt lat="39.8630230" lon="-6.0712200">
        <ele>325.4</ele>
        <time>2019-07-09T13:31:15Z</time>
      </trkpt>
      <trkpt lat="39.8630890" lon="-6.0714870">
        <ele>323.8</ele>
        <time>2019-07-09T13:31:18Z</time>
      </trkpt>
      <trkpt lat="39.8631220" lon="-6.0716530">
        <ele>323.0</ele>
        <time>2019-07-09T13:31:20Z</time>
      </trkpt>
      <trkpt lat="39.8631330" lon="-6.0717300">
        <ele>322.8</ele>
        <time>2019-07-09T13:31:21Z</time>
      </trkpt>
      <trkpt lat="39.8631530" lon="-6.0718690">
        <ele>321.8</ele>
        <time>2019-07-09T13:31:23Z</time>
      </trkpt>
      <trkpt lat="39.8631580" lon="-6.0719290">
        <ele>321.2</ele>
        <time>2019-07-09T13:31:24Z</time>
      </trkpt>
      <trkpt lat="39.8631530" lon="-6.0719860">
        <ele>321.0</ele>
        <time>2019-07-09T13:31:25Z</time>
      </trkpt>
      <trkpt lat="39.8630710" lon="-6.0721100">
        <ele>320.0</ele>
        <time>2019-07-09T13:31:28Z</time>
      </trkpt>
      <trkpt lat="39.8629100" lon="-6.0721080">
        <ele>318.8</ele>
        <time>2019-07-09T13:31:31Z</time>
      </trkpt>
      <trkpt lat="39.8626810" lon="-6.0720640">
        <ele>317.4</ele>
        <time>2019-07-09T13:31:35Z</time>
      </trkpt>
      <trkpt lat="39.8626340" lon="-6.0720800">
        <ele>317.0</ele>
        <time>2019-07-09T13:31:36Z</time>
      </trkpt>
      <trkpt lat="39.8625640" lon="-6.0722240">
        <ele>316.2</ele>
        <time>2019-07-09T13:31:39Z</time>
      </trkpt>
      <trkpt lat="39.8625730" lon="-6.0722870">
        <ele>316.0</ele>
        <time>2019-07-09T13:31:40Z</time>
      </trkpt>
      <trkpt lat="39.8626120" lon="-6.0724210">
        <ele>315.6</ele>
        <time>2019-07-09T13:31:42Z</time>
      </trkpt>
      <trkpt lat="39.8626270" lon="-6.0724960">
        <ele>315.0</ele>
        <time>2019-07-09T13:31:43Z</time>
      </trkpt>
      <trkpt lat="39.8626360" lon="-6.0727450">
        <ele>314.2</ele>
        <time>2019-07-09T13:31:46Z</time>
      </trkpt>
      <trkpt lat="39.8626270" lon="-6.0728310">
        <ele>314.0</ele>
        <time>2019-07-09T13:31:47Z</time>
      </trkpt>
      <trkpt lat="39.8625950" lon="-6.0730040">
        <ele>313.4</ele>
        <time>2019-07-09T13:31:49Z</time>
      </trkpt>
      <trkpt lat="39.8625820" lon="-6.0730930">
        <ele>312.6</ele>
        <time>2019-07-09T13:31:50Z</time>
      </trkpt>
      <trkpt lat="39.8625960" lon="-6.0733570">
        <ele>311.4</ele>
        <time>2019-07-09T13:31:53Z</time>
      </trkpt>
      <trkpt lat="39.8626010" lon="-6.0734410">
        <ele>311.0</ele>
        <time>2019-07-09T13:31:54Z</time>
      </trkpt>
      <trkpt lat="39.8625860" lon="-6.0736070">
        <ele>310.2</ele>
        <time>2019-07-09T13:31:56Z</time>
      </trkpt>
      <trkpt lat="39.8625220" lon="-6.0737580">
        <ele>309.6</ele>
        <time>2019-07-09T13:31:58Z</time>
      </trkpt>
      <trkpt lat="39.8624260" lon="-6.0738840">
        <ele>309.0</ele>
        <time>2019-07-09T13:32:00Z</time>
      </trkpt>
      <trkpt lat="39.8623380" lon="-6.0739880">
        <ele>308.0</ele>
        <time>2019-07-09T13:32:02Z</time>
      </trkpt>
      <trkpt lat="39.8623050" lon="-6.0740410">
        <ele>307.4</ele>
        <time>2019-07-09T13:32:03Z</time>
      </trkpt>
      <trkpt lat="39.8622780" lon="-6.0741670">
        <ele>306.0</ele>
        <time>2019-07-09T13:32:05Z</time>
      </trkpt>
      <trkpt lat="39.8622930" lon="-6.0742320">
        <ele>305.0</ele>
        <time>2019-07-09T13:32:06Z</time>
      </trkpt>
      <trkpt lat="39.8623570" lon="-6.0743480">
        <ele>304.4</ele>
        <time>2019-07-09T13:32:08Z</time>
      </trkpt>
      <trkpt lat="39.8623820" lon="-6.0745460">
        <ele>304.2</ele>
        <time>2019-07-09T13:32:11Z</time>
      </trkpt>
      <trkpt lat="39.8623210" lon="-6.0746660">
        <ele>303.8</ele>
        <time>2019-07-09T13:32:13Z</time>
      </trkpt>
      <trkpt lat="39.8622730" lon="-6.0747150">
        <ele>303.8</ele>
        <time>2019-07-09T13:32:14Z</time>
      </trkpt>
      <trkpt lat="39.8621640" lon="-6.0747780">
        <ele>302.2</ele>
        <time>2019-07-09T13:32:16Z</time>
      </trkpt>
      <trkpt lat="39.8621090" lon="-6.0747860">
        <ele>301.6</ele>
        <time>2019-07-09T13:32:17Z</time>
      </trkpt>
      <trkpt lat="39.8620530" lon="-6.0747800">
        <ele>301.2</ele>
        <time>2019-07-09T13:32:18Z</time>
      </trkpt>
      <trkpt lat="39.8618830" lon="-6.0747120">
        <ele>300.2</ele>
        <time>2019-07-09T13:32:21Z</time>
      </trkpt>
      <trkpt lat="39.8617800" lon="-6.0746540">
        <ele>299.2</ele>
        <time>2019-07-09T13:32:23Z</time>
      </trkpt>
      <trkpt lat="39.8617300" lon="-6.0746240">
        <ele>298.8</ele>
        <time>2019-07-09T13:32:24Z</time>
      </trkpt>
      <trkpt lat="39.8616270" lon="-6.0745660">
        <ele>297.4</ele>
        <time>2019-07-09T13:32:26Z</time>
      </trkpt>
      <trkpt lat="39.8615680" lon="-6.0745400">
        <ele>296.8</ele>
        <time>2019-07-09T13:32:27Z</time>
      </trkpt>
      <trkpt lat="39.8615100" lon="-6.0745200">
        <ele>296.2</ele>
        <time>2019-07-09T13:32:28Z</time>
      </trkpt>
      <trkpt lat="39.8613950" lon="-6.0744790">
        <ele>295.0</ele>
        <time>2019-07-09T13:32:30Z</time>
      </trkpt>
      <trkpt lat="39.8612240" lon="-6.0744020">
        <ele>293.6</ele>
        <time>2019-07-09T13:32:33Z</time>
      </trkpt>
      <trkpt lat="39.8611720" lon="-6.0743720">
        <ele>293.0</ele>
        <time>2019-07-09T13:32:34Z</time>
      </trkpt>
      <trkpt lat="39.8611220" lon="-6.0743380">
        <ele>292.2</ele>
        <time>2019-07-09T13:32:35Z</time>
      </trkpt>
      <trkpt lat="39.8610300" lon="-6.0742500">
        <ele>290.6</ele>
        <time>2019-07-09T13:32:37Z</time>
      </trkpt>
      <trkpt lat="39.8609450" lon="-6.0741380">
        <ele>289.4</ele>
        <time>2019-07-09T13:32:39Z</time>
      </trkpt>
      <trkpt lat="39.8608730" lon="-6.0740170">
        <ele>288.4</ele>
        <time>2019-07-09T13:32:41Z</time>
      </trkpt>
      <trkpt lat="39.8608410" lon="-6.0739560">
        <ele>288.2</ele>
        <time>2019-07-09T13:32:42Z</time>
      </trkpt>
      <trkpt lat="39.8607620" lon="-6.0737710">
        <ele>287.2</ele>
        <time>2019-07-09T13:32:45Z</time>
      </trkpt>
      <trkpt lat="39.8607420" lon="-6.0737130">
        <ele>286.6</ele>
        <time>2019-07-09T13:32:46Z</time>
      </trkpt>
      <trkpt lat="39.8607250" lon="-6.0736510">
        <ele>285.6</ele>
        <time>2019-07-09T13:32:47Z</time>
      </trkpt>
      <trkpt lat="39.8607150" lon="-6.0735870">
        <ele>284.8</ele>
        <time>2019-07-09T13:32:48Z</time>
      </trkpt>
      <trkpt lat="39.8607130" lon="-6.0734680">
        <ele>283.6</ele>
        <time>2019-07-09T13:32:50Z</time>
      </trkpt>
      <trkpt lat="39.8607150" lon="-6.0734170">
        <ele>283.0</ele>
        <time>2019-07-09T13:32:51Z</time>
      </trkpt>
      <trkpt lat="39.8607150" lon="-6.0733690">
        <ele>282.6</ele>
        <time>2019-07-09T13:32:52Z</time>
      </trkpt>
      <trkpt lat="39.8606880" lon="-6.0732890">
        <ele>281.4</ele>
        <time>2019-07-09T13:32:54Z</time>
      </trkpt>
      <trkpt lat="39.8606630" lon="-6.0732680">
        <ele>281.0</ele>
        <time>2019-07-09T13:32:55Z</time>
      </trkpt>
      <trkpt lat="39.8606350" lon="-6.0732680">
        <ele>280.4</ele>
        <time>2019-07-09T13:32:56Z</time>
      </trkpt>
      <trkpt lat="39.8606110" lon="-6.0732860">
        <ele>280.0</ele>
        <time>2019-07-09T13:32:57Z</time>
      </trkpt>
      <trkpt lat="39.8605730" lon="-6.0733730">
        <ele>279.2</ele>
        <time>2019-07-09T13:33:00Z</time>
      </trkpt>
      <trkpt lat="39.8605720" lon="-6.0734020">
        <ele>278.8</ele>
        <time>2019-07-09T13:33:01Z</time>
      </trkpt>
      <trkpt lat="39.8605770" lon="-6.0734830">
        <ele>278.2</ele>
        <time>2019-07-09T13:33:03Z</time>
      </trkpt>
      <trkpt lat="39.8605800" lon="-6.0735370">
        <ele>277.6</ele>
        <time>2019-07-09T13:33:04Z</time>
      </trkpt>
      <trkpt lat="39.8605770" lon="-6.0735960">
        <ele>277.4</ele>
        <time>2019-07-09T13:33:05Z</time>
      </trkpt>
      <trkpt lat="39.8605730" lon="-6.0736550">
        <ele>277.0</ele>
        <time>2019-07-09T13:33:06Z</time>
      </trkpt>
      <trkpt lat="39.8605560" lon="-6.0738530">
        <ele>275.6</ele>
        <time>2019-07-09T13:33:09Z</time>
      </trkpt>
      <trkpt lat="39.8605520" lon="-6.0739230">
        <ele>275.2</ele>
        <time>2019-07-09T13:33:10Z</time>
      </trkpt>
      <trkpt lat="39.8605520" lon="-6.0739920">
        <ele>274.4</ele>
        <time>2019-07-09T13:33:11Z</time>
      </trkpt>
      <trkpt lat="39.8605610" lon="-6.0742140">
        <ele>273.2</ele>
        <time>2019-07-09T13:33:14Z</time>
      </trkpt>
      <trkpt lat="39.8605720" lon="-6.0743930">
        <ele>272.2</ele>
        <time>2019-07-09T13:33:16Z</time>
      </trkpt>
      <trkpt lat="39.8605890" lon="-6.0745720">
        <ele>270.8</ele>
        <time>2019-07-09T13:33:18Z</time>
      </trkpt>
      <trkpt lat="39.8606050" lon="-6.0747320">
        <ele>269.4</ele>
        <time>2019-07-09T13:33:20Z</time>
      </trkpt>
      <trkpt lat="39.8606150" lon="-6.0748060">
        <ele>268.8</ele>
        <time>2019-07-09T13:33:21Z</time>
      </trkpt>
      <trkpt lat="39.8606230" lon="-6.0748770">
        <ele>268.2</ele>
        <time>2019-07-09T13:33:22Z</time>
      </trkpt>
      <trkpt lat="39.8606330" lon="-6.0750110">
        <ele>267.2</ele>
        <time>2019-07-09T13:33:24Z</time>
      </trkpt>
      <trkpt lat="39.8606320" lon="-6.0750740">
        <ele>267.0</ele>
        <time>2019-07-09T13:33:25Z</time>
      </trkpt>
      <trkpt lat="39.8606060" lon="-6.0751890">
        <ele>266.0</ele>
        <time>2019-07-09T13:33:27Z</time>
      </trkpt>
      <trkpt lat="39.8605350" lon="-6.0752860">
        <ele>264.4</ele>
        <time>2019-07-09T13:33:29Z</time>
      </trkpt>
      <trkpt lat="39.8604850" lon="-6.0753180">
        <ele>263.6</ele>
        <time>2019-07-09T13:33:30Z</time>
      </trkpt>
      <trkpt lat="39.8604300" lon="-6.0753430">
        <ele>263.0</ele>
        <time>2019-07-09T13:33:31Z</time>
      </trkpt>
      <trkpt lat="39.8603320" lon="-6.0753820">
        <ele>262.0</ele>
        <time>2019-07-09T13:33:33Z</time>
      </trkpt>
      <trkpt lat="39.8602440" lon="-6.0754300">
        <ele>261.2</ele>
        <time>2019-07-09T13:33:35Z</time>
      </trkpt>
      <trkpt lat="39.8602090" lon="-6.0754660">
        <ele>260.8</ele>
        <time>2019-07-09T13:33:36Z</time>
      </trkpt>
      <trkpt lat="39.8601460" lon="-6.0756080">
        <ele>259.8</ele>
        <time>2019-07-09T13:33:39Z</time>
      </trkpt>
      <trkpt lat="39.8601480" lon="-6.0756670">
        <ele>259.4</ele>
        <time>2019-07-09T13:33:40Z</time>
      </trkpt>
      <trkpt lat="39.8601900" lon="-6.0757930">
        <ele>258.2</ele>
        <time>2019-07-09T13:33:42Z</time>
      </trkpt>
      <trkpt lat="39.8602650" lon="-6.0759370">
        <ele>257.2</ele>
        <time>2019-07-09T13:33:44Z</time>
      </trkpt>
      <trkpt lat="39.8603080" lon="-6.0760120">
        <ele>256.8</ele>
        <time>2019-07-09T13:33:45Z</time>
      </trkpt>
      <trkpt lat="39.8603490" lon="-6.0760850">
        <ele>256.2</ele>
        <time>2019-07-09T13:33:46Z</time>
      </trkpt>
      <trkpt lat="39.8603880" lon="-6.0761550">
        <ele>255.4</ele>
        <time>2019-07-09T13:33:47Z</time>
      </trkpt>
      <trkpt lat="39.8604890" lon="-6.0763440">
        <ele>253.8</ele>
        <time>2019-07-09T13:33:50Z</time>
      </trkpt>
      <trkpt lat="39.8605220" lon="-6.0764010">
        <ele>253.2</ele>
        <time>2019-07-09T13:33:51Z</time>
      </trkpt>
      <trkpt lat="39.8605560" lon="-6.0764580">
        <ele>252.8</ele>
        <time>2019-07-09T13:33:52Z</time>
      </trkpt>
      <trkpt lat="39.8605930" lon="-6.0765140">
        <ele>252.2</ele>
        <time>2019-07-09T13:33:53Z</time>
      </trkpt>
      <trkpt lat="39.8606320" lon="-6.0765650">
        <ele>251.6</ele>
        <time>2019-07-09T13:33:54Z</time>
      </trkpt>
      <trkpt lat="39.8607000" lon="-6.0766500">
        <ele>250.6</ele>
        <time>2019-07-09T13:33:56Z</time>
      </trkpt>
      <trkpt lat="39.8607550" lon="-6.0767830">
        <ele>249.2</ele>
        <time>2019-07-09T13:33:59Z</time>
      </trkpt>
      <trkpt lat="39.8607530" lon="-6.0768370">
        <ele>248.8</ele>
        <time>2019-07-09T13:34:00Z</time>
      </trkpt>
      <trkpt lat="39.8607430" lon="-6.0768950">
        <ele>248.6</ele>
        <time>2019-07-09T13:34:01Z</time>
      </trkpt>
      <trkpt lat="39.8607070" lon="-6.0770760">
        <ele>248.0</ele>
        <time>2019-07-09T13:34:04Z</time>
      </trkpt>
      <trkpt lat="39.8606950" lon="-6.0771820">
        <ele>247.8</ele>
        <time>2019-07-09T13:34:06Z</time>
      </trkpt>
      <trkpt lat="39.8606830" lon="-6.0772240">
        <ele>247.6</ele>
        <time>2019-07-09T13:34:07Z</time>
      </trkpt>
      <trkpt lat="39.8606550" lon="-6.0772850">
        <ele>248.0</ele>
        <time>2019-07-09T13:34:09Z</time>
      </trkpt>
      <trkpt lat="39.8606420" lon="-6.0773090">
        <ele>248.4</ele>
        <time>2019-07-09T13:34:10Z</time>
      </trkpt>
      <trkpt lat="39.8606120" lon="-6.0773430">
        <ele>248.8</ele>
        <time>2019-07-09T13:34:12Z</time>
      </trkpt>
      <trkpt lat="39.8605830" lon="-6.0773610">
        <ele>249.2</ele>
        <time>2019-07-09T13:34:14Z</time>
      </trkpt>
      <trkpt lat="39.8605660" lon="-6.0773620">
        <ele>249.6</ele>
        <time>2019-07-09T13:34:15Z</time>
      </trkpt>
      <trkpt lat="39.8605320" lon="-6.0773620">
        <ele>250.2</ele>
        <time>2019-07-09T13:34:17Z</time>
      </trkpt>
      <trkpt lat="39.8605160" lon="-6.0773620">
        <ele>250.6</ele>
        <time>2019-07-09T13:34:18Z</time>
      </trkpt>
      <trkpt lat="39.8604800" lon="-6.0773620">
        <ele>250.8</ele>
        <time>2019-07-09T13:34:20Z</time>
      </trkpt>
      <trkpt lat="39.8604220" lon="-6.0773460">
        <ele>251.4</ele>
        <time>2019-07-09T13:34:23Z</time>
      </trkpt>
      <trkpt lat="39.8604020" lon="-6.0773400">
        <ele>251.6</ele>
        <time>2019-07-09T13:34:24Z</time>
      </trkpt>
      <trkpt lat="39.8603230" lon="-6.0773150">
        <ele>252.8</ele>
        <time>2019-07-09T13:34:28Z</time>
      </trkpt>
      <trkpt lat="39.8602580" lon="-6.0772740">
        <ele>253.4</ele>
        <time>2019-07-09T13:34:32Z</time>
      </trkpt>
      <trkpt lat="39.8602410" lon="-6.0772650">
        <ele>253.6</ele>
        <time>2019-07-09T13:34:33Z</time>
      </trkpt>
      <trkpt lat="39.8602010" lon="-6.0772490">
        <ele>253.8</ele>
        <time>2019-07-09T13:34:35Z</time>
      </trkpt>
      <trkpt lat="39.8601400" lon="-6.0772240">
        <ele>254.2</ele>
        <time>2019-07-09T13:34:38Z</time>
      </trkpt>
      <trkpt lat="39.8601060" lon="-6.0771980">
        <ele>254.4</ele>
        <time>2019-07-09T13:34:40Z</time>
      </trkpt>
      <trkpt lat="39.8600410" lon="-6.0771500">
        <ele>255.2</ele>
        <time>2019-07-09T13:34:44Z</time>
      </trkpt>
      <trkpt lat="39.8599760" lon="-6.0771060">
        <ele>256.0</ele>
        <time>2019-07-09T13:34:48Z</time>
      </trkpt>
      <trkpt lat="39.8599400" lon="-6.0770780">
        <ele>256.2</ele>
        <time>2019-07-09T13:34:50Z</time>
      </trkpt>
      <trkpt lat="39.8598520" lon="-6.0770160">
        <ele>256.6</ele>
        <time>2019-07-09T13:34:55Z</time>
      </trkpt>
      <trkpt lat="39.8597880" lon="-6.0769690">
        <ele>257.4</ele>
        <time>2019-07-09T13:34:59Z</time>
      </trkpt>
      <trkpt lat="39.8597310" lon="-6.0769180">
        <ele>258.2</ele>
        <time>2019-07-09T13:35:03Z</time>
      </trkpt>
      <trkpt lat="39.8597050" lon="-6.0768910">
        <ele>258.4</ele>
        <time>2019-07-09T13:35:05Z</time>
      </trkpt>
      <trkpt lat="39.8596500" lon="-6.0768330">
        <ele>259.4</ele>
        <time>2019-07-09T13:35:09Z</time>
      </trkpt>
      <trkpt lat="39.8596350" lon="-6.0768160">
        <ele>259.6</ele>
        <time>2019-07-09T13:35:10Z</time>
      </trkpt>
      <trkpt lat="39.8595650" lon="-6.0767170">
        <ele>260.2</ele>
        <time>2019-07-09T13:35:15Z</time>
      </trkpt>
      <trkpt lat="39.8595220" lon="-6.0766490">
        <ele>260.8</ele>
        <time>2019-07-09T13:35:18Z</time>
      </trkpt>
      <trkpt lat="39.8594690" lon="-6.0765780">
        <ele>261.6</ele>
        <time>2019-07-09T13:35:22Z</time>
      </trkpt>
      <trkpt lat="39.8594540" lon="-6.0765650">
        <ele>262.0</ele>
        <time>2019-07-09T13:35:23Z</time>
      </trkpt>
      <trkpt lat="39.8593940" lon="-6.0765350">
        <ele>263.0</ele>
        <time>2019-07-09T13:35:27Z</time>
      </trkpt>
      <trkpt lat="39.8593670" lon="-6.0765360">
        <ele>263.6</ele>
        <time>2019-07-09T13:35:29Z</time>
      </trkpt>
      <trkpt lat="39.8593510" lon="-6.0765810">
        <ele>264.2</ele>
        <time>2019-07-09T13:35:32Z</time>
      </trkpt>
      <trkpt lat="39.8593700" lon="-6.0766600">
        <ele>264.6</ele>
        <time>2019-07-09T13:35:36Z</time>
      </trkpt>
      <trkpt lat="39.8593880" lon="-6.0767210">
        <ele>265.4</ele>
        <time>2019-07-09T13:35:39Z</time>
      </trkpt>
      <trkpt lat="39.8594660" lon="-6.0768420">
        <ele>266.2</ele>
        <time>2019-07-09T13:35:46Z</time>
      </trkpt>
      <trkpt lat="39.8594770" lon="-6.0768600">
        <ele>266.4</ele>
        <time>2019-07-09T13:35:47Z</time>
      </trkpt>
      <trkpt lat="39.8595220" lon="-6.0769330">
        <ele>267.6</ele>
        <time>2019-07-09T13:35:51Z</time>
      </trkpt>
      <trkpt lat="39.8595490" lon="-6.0769960">
        <ele>267.8</ele>
        <time>2019-07-09T13:35:54Z</time>
      </trkpt>
      <trkpt lat="39.8595950" lon="-6.0770760">
        <ele>268.6</ele>
        <time>2019-07-09T13:35:58Z</time>
      </trkpt>
      <trkpt lat="39.8596210" lon="-6.0771420">
        <ele>269.4</ele>
        <time>2019-07-09T13:36:01Z</time>
      </trkpt>
      <trkpt lat="39.8596780" lon="-6.0773120">
        <ele>269.8</ele>
        <time>2019-07-09T13:36:08Z</time>
      </trkpt>
      <trkpt lat="39.8596870" lon="-6.0773360">
        <ele>270.0</ele>
        <time>2019-07-09T13:36:09Z</time>
      </trkpt>
      <trkpt lat="39.8597140" lon="-6.0774140">
        <ele>270.8</ele>
        <time>2019-07-09T13:36:12Z</time>
      </trkpt>
      <trkpt lat="39.8597540" lon="-6.0775410">
        <ele>271.6</ele>
        <time>2019-07-09T13:36:17Z</time>
      </trkpt>
      <trkpt lat="39.8597690" lon="-6.0775920">
        <ele>272.0</ele>
        <time>2019-07-09T13:36:19Z</time>
      </trkpt>
      <trkpt lat="39.8598100" lon="-6.0777540">
        <ele>273.0</ele>
        <time>2019-07-09T13:36:25Z</time>
      </trkpt>
      <trkpt lat="39.8598160" lon="-6.0777810">
        <ele>273.2</ele>
        <time>2019-07-09T13:36:26Z</time>
      </trkpt>
      <trkpt lat="39.8598650" lon="-6.0779930">
        <ele>274.2</ele>
        <time>2019-07-09T13:36:34Z</time>
      </trkpt>
      <trkpt lat="39.8598700" lon="-6.0780190">
        <ele>274.6</ele>
        <time>2019-07-09T13:36:35Z</time>
      </trkpt>
      <trkpt lat="39.8599200" lon="-6.0782430">
        <ele>275.4</ele>
        <time>2019-07-09T13:36:44Z</time>
      </trkpt>
      <trkpt lat="39.8599800" lon="-6.0783820">
        <ele>276.6</ele>
        <time>2019-07-09T13:36:50Z</time>
      </trkpt>
      <trkpt lat="39.8600050" lon="-6.0784250">
        <ele>276.8</ele>
        <time>2019-07-09T13:36:52Z</time>
      </trkpt>
      <trkpt lat="39.8600570" lon="-6.0785040">
        <ele>278.0</ele>
        <time>2019-07-09T13:36:56Z</time>
      </trkpt>
      <trkpt lat="39.8600830" lon="-6.0785320">
        <ele>278.4</ele>
        <time>2019-07-09T13:36:58Z</time>
      </trkpt>
      <trkpt lat="39.8601250" lon="-6.0785740">
        <ele>279.0</ele>
        <time>2019-07-09T13:37:01Z</time>
      </trkpt>
      <trkpt lat="39.8601930" lon="-6.0786220">
        <ele>279.8</ele>
        <time>2019-07-09T13:37:05Z</time>
      </trkpt>
      <trkpt lat="39.8602760" lon="-6.0786620">
        <ele>280.4</ele>
        <time>2019-07-09T13:37:10Z</time>
      </trkpt>
      <trkpt lat="39.8603100" lon="-6.0786710">
        <ele>281.0</ele>
        <time>2019-07-09T13:37:12Z</time>
      </trkpt>
      <trkpt lat="39.8603430" lon="-6.0786860">
        <ele>281.4</ele>
        <time>2019-07-09T13:37:14Z</time>
      </trkpt>
      <trkpt lat="39.8604040" lon="-6.0787290">
        <ele>282.6</ele>
        <time>2019-07-09T13:37:18Z</time>
      </trkpt>
      <trkpt lat="39.8604480" lon="-6.0787700">
        <ele>283.0</ele>
        <time>2019-07-09T13:37:21Z</time>
      </trkpt>
      <trkpt lat="39.8605410" lon="-6.0788620">
        <ele>283.6</ele>
        <time>2019-07-09T13:37:27Z</time>
      </trkpt>
      <trkpt lat="39.8605570" lon="-6.0788790">
        <ele>283.8</ele>
        <time>2019-07-09T13:37:28Z</time>
      </trkpt>
      <trkpt lat="39.8606150" lon="-6.0789530">
        <ele>284.8</ele>
        <time>2019-07-09T13:37:32Z</time>
      </trkpt>
      <trkpt lat="39.8606610" lon="-6.0790080">
        <ele>285.8</ele>
        <time>2019-07-09T13:37:35Z</time>
      </trkpt>
      <trkpt lat="39.8606740" lon="-6.0790280">
        <ele>285.8</ele>
        <time>2019-07-09T13:37:36Z</time>
      </trkpt>
      <trkpt lat="39.8607790" lon="-6.0791880">
        <ele>286.8</ele>
        <time>2019-07-09T13:37:44Z</time>
      </trkpt>
      <trkpt lat="39.8608120" lon="-6.0792510">
        <ele>287.0</ele>
        <time>2019-07-09T13:37:47Z</time>
      </trkpt>
      <trkpt lat="39.8608520" lon="-6.0793430">
        <ele>287.6</ele>
        <time>2019-07-09T13:37:51Z</time>
      </trkpt>
      <trkpt lat="39.8609200" lon="-6.0794600">
        <ele>288.2</ele>
        <time>2019-07-09T13:37:56Z</time>
      </trkpt>
      <trkpt lat="39.8609490" lon="-6.0795060">
        <ele>288.6</ele>
        <time>2019-07-09T13:37:58Z</time>
      </trkpt>
      <trkpt lat="39.8609720" lon="-6.0795550">
        <ele>289.2</ele>
        <time>2019-07-09T13:38:00Z</time>
      </trkpt>
      <trkpt lat="39.8610440" lon="-6.0796780">
        <ele>289.8</ele>
        <time>2019-07-09T13:38:05Z</time>
      </trkpt>
      <trkpt lat="39.8611550" lon="-6.0797220">
        <ele>290.4</ele>
        <time>2019-07-09T13:38:10Z</time>
      </trkpt>
      <trkpt lat="39.8612880" lon="-6.0796090">
        <ele>291.0</ele>
        <time>2019-07-09T13:38:16Z</time>
      </trkpt>
      <trkpt lat="39.8613270" lon="-6.0795670">
        <ele>291.4</ele>
        <time>2019-07-09T13:38:18Z</time>
      </trkpt>
      <trkpt lat="39.8613480" lon="-6.0795480">
        <ele>291.8</ele>
        <time>2019-07-09T13:38:19Z</time>
      </trkpt>
      <trkpt lat="39.8614820" lon="-6.0794490">
        <ele>293.0</ele>
        <time>2019-07-09T13:38:25Z</time>
      </trkpt>
      <trkpt lat="39.8615310" lon="-6.0794210">
        <ele>293.2</ele>
        <time>2019-07-09T13:38:27Z</time>
      </trkpt>
      <trkpt lat="39.8616910" lon="-6.0793650">
        <ele>294.2</ele>
        <time>2019-07-09T13:38:33Z</time>
      </trkpt>
      <trkpt lat="39.8617440" lon="-6.0793630">
        <ele>294.2</ele>
        <time>2019-07-09T13:38:35Z</time>
      </trkpt>
      <trkpt lat="39.8618100" lon="-6.0793980">
        <ele>295.0</ele>
        <time>2019-07-09T13:38:38Z</time>
      </trkpt>
      <trkpt lat="39.8618210" lon="-6.0794210">
        <ele>295.4</ele>
        <time>2019-07-09T13:38:39Z</time>
      </trkpt>
      <trkpt lat="39.8618270" lon="-6.0794950">
        <ele>296.4</ele>
        <time>2019-07-09T13:38:42Z</time>
      </trkpt>
      <trkpt lat="39.8618030" lon="-6.0795300">
        <ele>297.2</ele>
        <time>2019-07-09T13:38:44Z</time>
      </trkpt>
      <trkpt lat="39.8617640" lon="-6.0795550">
        <ele>297.6</ele>
        <time>2019-07-09T13:38:46Z</time>
      </trkpt>
      <trkpt lat="39.8617410" lon="-6.0795650">
        <ele>297.8</ele>
        <time>2019-07-09T13:38:47Z</time>
      </trkpt>
      <trkpt lat="39.8616750" lon="-6.0796050">
        <ele>298.4</ele>
        <time>2019-07-09T13:38:50Z</time>
      </trkpt>
      <trkpt lat="39.8615610" lon="-6.0797290">
        <ele>298.6</ele>
        <time>2019-07-09T13:38:56Z</time>
      </trkpt>
      <trkpt lat="39.8615450" lon="-6.0797550">
        <ele>298.8</ele>
        <time>2019-07-09T13:38:57Z</time>
      </trkpt>
      <trkpt lat="39.8614860" lon="-6.0798610">
        <ele>299.6</ele>
        <time>2019-07-09T13:39:01Z</time>
      </trkpt>
      <trkpt lat="39.8613950" lon="-6.0800490">
        <ele>300.6</ele>
        <time>2019-07-09T13:39:08Z</time>
      </trkpt>
      <trkpt lat="39.8613800" lon="-6.0800730">
        <ele>300.8</ele>
        <time>2019-07-09T13:39:09Z</time>
      </trkpt>
      <trkpt lat="39.8613330" lon="-6.0801430">
        <ele>301.8</ele>
        <time>2019-07-09T13:39:12Z</time>
      </trkpt>
      <trkpt lat="39.8612570" lon="-6.0802610">
        <ele>303.0</ele>
        <time>2019-07-09T13:39:17Z</time>
      </trkpt>
      <trkpt lat="39.8612400" lon="-6.0802840">
        <ele>303.0</ele>
        <time>2019-07-09T13:39:18Z</time>
      </trkpt>
      <trkpt lat="39.8611370" lon="-6.0804050">
        <ele>304.2</ele>
        <time>2019-07-09T13:39:24Z</time>
      </trkpt>
      <trkpt lat="39.8611190" lon="-6.0804240">
        <ele>304.6</ele>
        <time>2019-07-09T13:39:25Z</time>
      </trkpt>
      <trkpt lat="39.8610380" lon="-6.0804770">
        <ele>305.4</ele>
        <time>2019-07-09T13:39:29Z</time>
      </trkpt>
      <trkpt lat="39.8609960" lon="-6.0804840">
        <ele>305.6</ele>
        <time>2019-07-09T13:39:31Z</time>
      </trkpt>
      <trkpt lat="39.8608720" lon="-6.0804340">
        <ele>306.6</ele>
        <time>2019-07-09T13:39:37Z</time>
      </trkpt>
      <trkpt lat="39.8607560" lon="-6.0803410">
        <ele>307.6</ele>
        <time>2019-07-09T13:39:43Z</time>
      </trkpt>
      <trkpt lat="39.8606940" lon="-6.0802860">
        <ele>308.2</ele>
        <time>2019-07-09T13:39:46Z</time>
      </trkpt>
      <trkpt lat="39.8605940" lon="-6.0802020">
        <ele>308.8</ele>
        <time>2019-07-09T13:39:51Z</time>
      </trkpt>
      <trkpt lat="39.8605260" lon="-6.0801680">
        <ele>309.4</ele>
        <time>2019-07-09T13:39:54Z</time>
      </trkpt>
      <trkpt lat="39.8604770" lon="-6.0801520">
        <ele>310.0</ele>
        <time>2019-07-09T13:39:56Z</time>
      </trkpt>
      <trkpt lat="39.8603500" lon="-6.0801450">
        <ele>311.0</ele>
        <time>2019-07-09T13:40:01Z</time>
      </trkpt>
      <trkpt lat="39.8602290" lon="-6.0801760">
        <ele>312.0</ele>
        <time>2019-07-09T13:40:06Z</time>
      </trkpt>
      <trkpt lat="39.8601820" lon="-6.0801790">
        <ele>312.4</ele>
        <time>2019-07-09T13:40:08Z</time>
      </trkpt>
      <trkpt lat="39.8600970" lon="-6.0801550">
        <ele>313.2</ele>
        <time>2019-07-09T13:40:12Z</time>
      </trkpt>
      <trkpt lat="39.8600560" lon="-6.0801330">
        <ele>313.4</ele>
        <time>2019-07-09T13:40:14Z</time>
      </trkpt>
      <trkpt lat="39.8599940" lon="-6.0801070">
        <ele>314.6</ele>
        <time>2019-07-09T13:40:17Z</time>
      </trkpt>
      <trkpt lat="39.8599140" lon="-6.0800540">
        <ele>315.0</ele>
        <time>2019-07-09T13:40:21Z</time>
      </trkpt>
      <trkpt lat="39.8598190" lon="-6.0800100">
        <ele>315.6</ele>
        <time>2019-07-09T13:40:25Z</time>
      </trkpt>
      <trkpt lat="39.8597220" lon="-6.0799790">
        <ele>316.4</ele>
        <time>2019-07-09T13:40:29Z</time>
      </trkpt>
      <trkpt lat="39.8596990" lon="-6.0799720">
        <ele>316.8</ele>
        <time>2019-07-09T13:40:30Z</time>
      </trkpt>
      <trkpt lat="39.8595830" lon="-6.0799390">
        <ele>317.8</ele>
        <time>2019-07-09T13:40:35Z</time>
      </trkpt>
      <trkpt lat="39.8595090" lon="-6.0799250">
        <ele>318.2</ele>
        <time>2019-07-09T13:40:38Z</time>
      </trkpt>
      <trkpt lat="39.8594160" lon="-6.0799020">
        <ele>319.2</ele>
        <time>2019-07-09T13:40:42Z</time>
      </trkpt>
      <trkpt lat="39.8593070" lon="-6.0798420">
        <ele>320.2</ele>
        <time>2019-07-09T13:40:47Z</time>
      </trkpt>
      <trkpt lat="39.8592850" lon="-6.0798290">
        <ele>320.4</ele>
        <time>2019-07-09T13:40:48Z</time>
      </trkpt>
      <trkpt lat="39.8591460" lon="-6.0797660">
        <ele>321.8</ele>
        <time>2019-07-09T13:40:54Z</time>
      </trkpt>
      <trkpt lat="39.8590080" lon="-6.0796930">
        <ele>323.0</ele>
        <time>2019-07-09T13:41:00Z</time>
      </trkpt>
      <trkpt lat="39.8589670" lon="-6.0796590">
        <ele>323.4</ele>
        <time>2019-07-09T13:41:02Z</time>
      </trkpt>
      <trkpt lat="39.8588970" lon="-6.0796340">
        <ele>324.2</ele>
        <time>2019-07-09T13:41:05Z</time>
      </trkpt>
      <trkpt lat="39.8588510" lon="-6.0796430">
        <ele>325.0</ele>
        <time>2019-07-09T13:41:07Z</time>
      </trkpt>
      <trkpt lat="39.8588290" lon="-6.0796540">
        <ele>325.4</ele>
        <time>2019-07-09T13:41:08Z</time>
      </trkpt>
      <trkpt lat="39.8587640" lon="-6.0797480">
        <ele>326.0</ele>
        <time>2019-07-09T13:41:12Z</time>
      </trkpt>
      <trkpt lat="39.8587230" lon="-6.0798730">
        <ele>326.4</ele>
        <time>2019-07-09T13:41:16Z</time>
      </trkpt>
      <trkpt lat="39.8587030" lon="-6.0799340">
        <ele>326.8</ele>
        <time>2019-07-09T13:41:18Z</time>
      </trkpt>
      <trkpt lat="39.8586630" lon="-6.0800530">
        <ele>327.8</ele>
        <time>2019-07-09T13:41:22Z</time>
      </trkpt>
      <trkpt lat="39.8586290" lon="-6.0801390">
        <ele>329.0</ele>
        <time>2019-07-09T13:41:25Z</time>
      </trkpt>
      <trkpt lat="39.8586190" lon="-6.0801700">
        <ele>329.2</ele>
        <time>2019-07-09T13:41:26Z</time>
      </trkpt>
      <trkpt lat="39.8585440" lon="-6.0803770">
        <ele>329.8</ele>
        <time>2019-07-09T13:41:33Z</time>
      </trkpt>
      <trkpt lat="39.8585300" lon="-6.0804060">
        <ele>329.8</ele>
        <time>2019-07-09T13:41:34Z</time>
      </trkpt>
      <trkpt lat="39.8585170" lon="-6.0804350">
        <ele>330.0</ele>
        <time>2019-07-09T13:41:35Z</time>
      </trkpt>
      <trkpt lat="39.8584500" lon="-6.0806230">
        <ele>331.2</ele>
        <time>2019-07-09T13:41:41Z</time>
      </trkpt>
      <trkpt lat="39.8584310" lon="-6.0806940">
        <ele>331.6</ele>
        <time>2019-07-09T13:41:43Z</time>
      </trkpt>
      <trkpt lat="39.8583590" lon="-6.0808560">
        <ele>332.6</ele>
        <time>2019-07-09T13:41:48Z</time>
      </trkpt>
      <trkpt lat="39.8583110" lon="-6.0809470">
        <ele>333.0</ele>
        <time>2019-07-09T13:41:51Z</time>
      </trkpt>
      <trkpt lat="39.8582620" lon="-6.0810370">
        <ele>333.6</ele>
        <time>2019-07-09T13:41:54Z</time>
      </trkpt>
      <trkpt lat="39.8581840" lon="-6.0811860">
        <ele>334.8</ele>
        <time>2019-07-09T13:41:59Z</time>
      </trkpt>
      <trkpt lat="39.8581060" lon="-6.0813250">
        <ele>335.8</ele>
        <time>2019-07-09T13:42:04Z</time>
      </trkpt>
      <trkpt lat="39.8580710" lon="-6.0814160">
        <ele>336.6</ele>
        <time>2019-07-09T13:42:07Z</time>
      </trkpt>
      <trkpt lat="39.8580440" lon="-6.0814760">
        <ele>337.2</ele>
        <time>2019-07-09T13:42:09Z</time>
      </trkpt>
      <trkpt lat="39.8579910" lon="-6.0815910">
        <ele>338.2</ele>
        <time>2019-07-09T13:42:13Z</time>
      </trkpt>
      <trkpt lat="39.8579350" lon="-6.0817020">
        <ele>339.0</ele>
        <time>2019-07-09T13:42:17Z</time>
      </trkpt>
      <trkpt lat="39.8579060" lon="-6.0817600">
        <ele>339.8</ele>
        <time>2019-07-09T13:42:19Z</time>
      </trkpt>
      <trkpt lat="39.8578550" lon="-6.0818770">
        <ele>340.8</ele>
        <time>2019-07-09T13:42:23Z</time>
      </trkpt>
      <trkpt lat="39.8578180" lon="-6.0819600">
        <ele>341.8</ele>
        <time>2019-07-09T13:42:26Z</time>
      </trkpt>
      <trkpt lat="39.8578050" lon="-6.0819880">
        <ele>342.0</ele>
        <time>2019-07-09T13:42:27Z</time>
      </trkpt>
      <trkpt lat="39.8577070" lon="-6.0822280">
        <ele>342.6</ele>
        <time>2019-07-09T13:42:35Z</time>
      </trkpt>
      <trkpt lat="39.8576840" lon="-6.0822910">
        <ele>343.0</ele>
        <time>2019-07-09T13:42:37Z</time>
      </trkpt>
      <trkpt lat="39.8576390" lon="-6.0825020">
        <ele>344.2</ele>
        <time>2019-07-09T13:42:43Z</time>
      </trkpt>
      <trkpt lat="39.8576320" lon="-6.0825390">
        <ele>344.2</ele>
        <time>2019-07-09T13:42:44Z</time>
      </trkpt>
      <trkpt lat="39.8576100" lon="-6.0826470">
        <ele>345.4</ele>
        <time>2019-07-09T13:42:47Z</time>
      </trkpt>
      <trkpt lat="39.8575660" lon="-6.0828840">
        <ele>346.2</ele>
        <time>2019-07-09T13:42:54Z</time>
      </trkpt>
      <trkpt lat="39.8575360" lon="-6.0829380">
        <ele>346.6</ele>
        <time>2019-07-09T13:42:56Z</time>
      </trkpt>
      <trkpt lat="39.8574410" lon="-6.0829980">
        <ele>346.6</ele>
        <time>2019-07-09T13:42:59Z</time>
      </trkpt>
      <trkpt lat="39.8573340" lon="-6.0829560">
        <ele>346.4</ele>
        <time>2019-07-09T13:43:02Z</time>
      </trkpt>
      <trkpt lat="39.8573100" lon="-6.0829360">
        <ele>346.2</ele>
        <time>2019-07-09T13:43:03Z</time>
      </trkpt>
      <trkpt lat="39.8572140" lon="-6.0828840">
        <ele>346.4</ele>
        <time>2019-07-09T13:43:08Z</time>
      </trkpt>
      <trkpt lat="39.8571320" lon="-6.0829090">
        <ele>347.4</ele>
        <time>2019-07-09T13:43:13Z</time>
      </trkpt>
      <trkpt lat="39.8571180" lon="-6.0829240">
        <ele>348.0</ele>
        <time>2019-07-09T13:43:14Z</time>
      </trkpt>
      <trkpt lat="39.8570920" lon="-6.0829630">
        <ele>348.4</ele>
        <time>2019-07-09T13:43:16Z</time>
      </trkpt>
      <trkpt lat="39.8570420" lon="-6.0830930">
        <ele>349.4</ele>
        <time>2019-07-09T13:43:21Z</time>
      </trkpt>
      <trkpt lat="39.8570350" lon="-6.0831200">
        <ele>350.0</ele>
        <time>2019-07-09T13:43:22Z</time>
      </trkpt>
      <trkpt lat="39.8570130" lon="-6.0832000">
        <ele>351.2</ele>
        <time>2019-07-09T13:43:25Z</time>
      </trkpt>
      <trkpt lat="39.8569950" lon="-6.0832890">
        <ele>352.0</ele>
        <time>2019-07-09T13:43:28Z</time>
      </trkpt>
      <trkpt lat="39.8569880" lon="-6.0833200">
        <ele>352.6</ele>
        <time>2019-07-09T13:43:29Z</time>
      </trkpt>
      <trkpt lat="39.8569610" lon="-6.0834480">
        <ele>353.8</ele>
        <time>2019-07-09T13:43:33Z</time>
      </trkpt>
      <trkpt lat="39.8569510" lon="-6.0835420">
        <ele>354.8</ele>
        <time>2019-07-09T13:43:36Z</time>
      </trkpt>
      <trkpt lat="39.8569110" lon="-6.0837680">
        <ele>355.2</ele>
        <time>2019-07-09T13:43:42Z</time>
      </trkpt>
      <trkpt lat="39.8568520" lon="-6.0840960">
        <ele>354.8</ele>
        <time>2019-07-09T13:43:48Z</time>
      </trkpt>
      <trkpt lat="39.8568490" lon="-6.0842670">
        <ele>353.8</ele>
        <time>2019-07-09T13:43:52Z</time>
      </trkpt>
      <trkpt lat="39.8569190" lon="-6.0844320">
        <ele>352.8</ele>
        <time>2019-07-09T13:43:57Z</time>
      </trkpt>
      <trkpt lat="39.8569780" lon="-6.0845430">
        <ele>353.4</ele>
        <time>2019-07-09T13:44:01Z</time>
      </trkpt>
      <trkpt lat="39.8569890" lon="-6.0845710">
        <ele>353.8</ele>
        <time>2019-07-09T13:44:02Z</time>
      </trkpt>
      <trkpt lat="39.8570130" lon="-6.0846270">
        <ele>354.4</ele>
        <time>2019-07-09T13:44:04Z</time>
      </trkpt>
      <trkpt lat="39.8570370" lon="-6.0846850">
        <ele>355.4</ele>
        <time>2019-07-09T13:44:06Z</time>
      </trkpt>
      <trkpt lat="39.8570720" lon="-6.0847640">
        <ele>356.4</ele>
        <time>2019-07-09T13:44:09Z</time>
      </trkpt>
      <trkpt lat="39.8570960" lon="-6.0848150">
        <ele>357.2</ele>
        <time>2019-07-09T13:44:11Z</time>
      </trkpt>
      <trkpt lat="39.8571050" lon="-6.0848430">
        <ele>357.6</ele>
        <time>2019-07-09T13:44:12Z</time>
      </trkpt>
      <trkpt lat="39.8571610" lon="-6.0849680">
        <ele>359.2</ele>
        <time>2019-07-09T13:44:17Z</time>
      </trkpt>
      <trkpt lat="39.8571970" lon="-6.0850430">
        <ele>360.0</ele>
        <time>2019-07-09T13:44:20Z</time>
      </trkpt>
      <trkpt lat="39.8572090" lon="-6.0850690">
        <ele>360.4</ele>
        <time>2019-07-09T13:44:21Z</time>
      </trkpt>
      <trkpt lat="39.8572450" lon="-6.0851430">
        <ele>361.4</ele>
        <time>2019-07-09T13:44:24Z</time>
      </trkpt>
      <trkpt lat="39.8573070" lon="-6.0852430">
        <ele>362.6</ele>
        <time>2019-07-09T13:44:29Z</time>
      </trkpt>
      <trkpt lat="39.8573190" lon="-6.0852620">
        <ele>363.0</ele>
        <time>2019-07-09T13:44:30Z</time>
      </trkpt>
      <trkpt lat="39.8573450" lon="-6.0852960">
        <ele>363.8</ele>
        <time>2019-07-09T13:44:32Z</time>
      </trkpt>
      <trkpt lat="39.8573950" lon="-6.0853820">
        <ele>365.0</ele>
        <time>2019-07-09T13:44:36Z</time>
      </trkpt>
      <trkpt lat="39.8574690" lon="-6.0854840">
        <ele>366.2</ele>
        <time>2019-07-09T13:44:41Z</time>
      </trkpt>
      <trkpt lat="39.8575050" lon="-6.0855250">
        <ele>366.4</ele>
        <time>2019-07-09T13:44:43Z</time>
      </trkpt>
      <trkpt lat="39.8575870" lon="-6.0856260">
        <ele>367.2</ele>
        <time>2019-07-09T13:44:48Z</time>
      </trkpt>
      <trkpt lat="39.8576070" lon="-6.0856440">
        <ele>367.4</ele>
        <time>2019-07-09T13:44:49Z</time>
      </trkpt>
      <trkpt lat="39.8577630" lon="-6.0857280">
        <ele>368.2</ele>
        <time>2019-07-09T13:44:56Z</time>
      </trkpt>
      <trkpt lat="39.8578900" lon="-6.0857550">
        <ele>369.2</ele>
        <time>2019-07-09T13:45:01Z</time>
      </trkpt>
      <trkpt lat="39.8579160" lon="-6.0857550">
        <ele>369.6</ele>
        <time>2019-07-09T13:45:02Z</time>
      </trkpt>
      <trkpt lat="39.8579880" lon="-6.0857650">
        <ele>370.6</ele>
        <time>2019-07-09T13:45:05Z</time>
      </trkpt>
      <trkpt lat="39.8580340" lon="-6.0857960">
        <ele>371.4</ele>
        <time>2019-07-09T13:45:07Z</time>
      </trkpt>
      <trkpt lat="39.8580520" lon="-6.0858220">
        <ele>371.8</ele>
        <time>2019-07-09T13:45:08Z</time>
      </trkpt>
      <trkpt lat="39.8580960" lon="-6.0859540">
        <ele>372.4</ele>
        <time>2019-07-09T13:45:12Z</time>
      </trkpt>
      <trkpt lat="39.8581000" lon="-6.0859900">
        <ele>372.8</ele>
        <time>2019-07-09T13:45:13Z</time>
      </trkpt>
      <trkpt lat="39.8581080" lon="-6.0860620">
        <ele>373.0</ele>
        <time>2019-07-09T13:45:15Z</time>
      </trkpt>
      <trkpt lat="39.8581350" lon="-6.0862530">
        <ele>373.6</ele>
        <time>2019-07-09T13:45:20Z</time>
      </trkpt>
      <trkpt lat="39.8581870" lon="-6.0865290">
        <ele>374.2</ele>
        <time>2019-07-09T13:45:27Z</time>
      </trkpt>
      <trkpt lat="39.8582640" lon="-6.0868100">
        <ele>374.8</ele>
        <time>2019-07-09T13:45:34Z</time>
      </trkpt>
      <trkpt lat="39.8583100" lon="-6.0869300">
        <ele>375.4</ele>
        <time>2019-07-09T13:45:37Z</time>
      </trkpt>
      <trkpt lat="39.8583590" lon="-6.0870830">
        <ele>375.8</ele>
        <time>2019-07-09T13:45:41Z</time>
      </trkpt>
      <trkpt lat="39.8583730" lon="-6.0871230">
        <ele>376.0</ele>
        <time>2019-07-09T13:45:42Z</time>
      </trkpt>
      <trkpt lat="39.8584250" lon="-6.0872780">
        <ele>376.4</ele>
        <time>2019-07-09T13:45:46Z</time>
      </trkpt>
      <trkpt lat="39.8584680" lon="-6.0874010">
        <ele>376.6</ele>
        <time>2019-07-09T13:45:49Z</time>
      </trkpt>
      <trkpt lat="39.8585540" lon="-6.0876970">
        <ele>377.4</ele>
        <time>2019-07-09T13:45:56Z</time>
      </trkpt>
      <trkpt lat="39.8585670" lon="-6.0877340">
        <ele>377.6</ele>
        <time>2019-07-09T13:45:57Z</time>
      </trkpt>
      <trkpt lat="39.8586320" lon="-6.0879130">
        <ele>378.4</ele>
        <time>2019-07-09T13:46:02Z</time>
      </trkpt>
      <trkpt lat="39.8586460" lon="-6.0879500">
        <ele>378.6</ele>
        <time>2019-07-09T13:46:03Z</time>
      </trkpt>
      <trkpt lat="39.8587430" lon="-6.0881530">
        <ele>379.8</ele>
        <time>2019-07-09T13:46:09Z</time>
      </trkpt>
      <trkpt lat="39.8588760" lon="-6.0884620">
        <ele>381.0</ele>
        <time>2019-07-09T13:46:17Z</time>
      </trkpt>
      <trkpt lat="39.8589540" lon="-6.0886450">
        <ele>382.2</ele>
        <time>2019-07-09T13:46:22Z</time>
      </trkpt>
      <trkpt lat="39.8589830" lon="-6.0887200">
        <ele>382.4</ele>
        <time>2019-07-09T13:46:24Z</time>
      </trkpt>
      <trkpt lat="39.8590390" lon="-6.0889730">
        <ele>383.0</ele>
        <time>2019-07-09T13:46:30Z</time>
      </trkpt>
      <trkpt lat="39.8590440" lon="-6.0890730">
        <ele>383.2</ele>
        <time>2019-07-09T13:46:32Z</time>
      </trkpt>
      <trkpt lat="39.8590450" lon="-6.0892820">
        <ele>383.6</ele>
        <time>2019-07-09T13:46:36Z</time>
      </trkpt>
      <trkpt lat="39.8590530" lon="-6.0895070">
        <ele>383.8</ele>
        <time>2019-07-09T13:46:40Z</time>
      </trkpt>
      <trkpt lat="39.8590560" lon="-6.0897480">
        <ele>384.2</ele>
        <time>2019-07-09T13:46:44Z</time>
      </trkpt>
      <trkpt lat="39.8590530" lon="-6.0898040">
        <ele>384.2</ele>
        <time>2019-07-09T13:46:45Z</time>
      </trkpt>
      <trkpt lat="39.8590400" lon="-6.0899240">
        <ele>384.2</ele>
        <time>2019-07-09T13:46:47Z</time>
      </trkpt>
      <trkpt lat="39.8589990" lon="-6.0901520">
        <ele>384.8</ele>
        <time>2019-07-09T13:46:51Z</time>
      </trkpt>
      <trkpt lat="39.8589630" lon="-6.0902960">
        <ele>385.4</ele>
        <time>2019-07-09T13:46:54Z</time>
      </trkpt>
      <trkpt lat="39.8589300" lon="-6.0904380">
        <ele>385.8</ele>
        <time>2019-07-09T13:46:57Z</time>
      </trkpt>
      <trkpt lat="39.8588700" lon="-6.0908260">
        <ele>385.8</ele>
        <time>2019-07-09T13:47:04Z</time>
      </trkpt>
      <trkpt lat="39.8588340" lon="-6.0909880">
        <ele>385.8</ele>
        <time>2019-07-09T13:47:07Z</time>
      </trkpt>
      <trkpt lat="39.8587710" lon="-6.0910640">
        <ele>385.4</ele>
        <time>2019-07-09T13:47:09Z</time>
      </trkpt>
      <trkpt lat="39.8586760" lon="-6.0910750">
        <ele>384.2</ele>
        <time>2019-07-09T13:47:11Z</time>
      </trkpt>
      <trkpt lat="39.8586260" lon="-6.0910670">
        <ele>384.0</ele>
        <time>2019-07-09T13:47:12Z</time>
      </trkpt>
      <trkpt lat="39.8585200" lon="-6.0910370">
        <ele>383.6</ele>
        <time>2019-07-09T13:47:14Z</time>
      </trkpt>
      <trkpt lat="39.8584660" lon="-6.0910170">
        <ele>383.2</ele>
        <time>2019-07-09T13:47:15Z</time>
      </trkpt>
      <trkpt lat="39.8584140" lon="-6.0910000">
        <ele>383.0</ele>
        <time>2019-07-09T13:47:16Z</time>
      </trkpt>
      <trkpt lat="39.8583630" lon="-6.0909910">
        <ele>382.8</ele>
        <time>2019-07-09T13:47:17Z</time>
      </trkpt>
      <trkpt lat="39.8582120" lon="-6.0910320">
        <ele>382.6</ele>
        <time>2019-07-09T13:47:20Z</time>
      </trkpt>
      <trkpt lat="39.8581680" lon="-6.0910700">
        <ele>382.6</ele>
        <time>2019-07-09T13:47:21Z</time>
      </trkpt>
      <trkpt lat="39.8580900" lon="-6.0911750">
        <ele>382.6</ele>
        <time>2019-07-09T13:47:23Z</time>
      </trkpt>
      <trkpt lat="39.8580540" lon="-6.0912380">
        <ele>382.6</ele>
        <time>2019-07-09T13:47:24Z</time>
      </trkpt>
      <trkpt lat="39.8580180" lon="-6.0913010">
        <ele>382.4</ele>
        <time>2019-07-09T13:47:25Z</time>
      </trkpt>
      <trkpt lat="39.8579820" lon="-6.0913650">
        <ele>382.4</ele>
        <time>2019-07-09T13:47:26Z</time>
      </trkpt>
      <trkpt lat="39.8578790" lon="-6.0915690">
        <ele>381.4</ele>
        <time>2019-07-09T13:47:29Z</time>
      </trkpt>
      <trkpt lat="39.8577630" lon="-6.0917770">
        <ele>380.6</ele>
        <time>2019-07-09T13:47:32Z</time>
      </trkpt>
      <trkpt lat="39.8577190" lon="-6.0918350">
        <ele>380.4</ele>
        <time>2019-07-09T13:47:33Z</time>
      </trkpt>
      <trkpt lat="39.8576310" lon="-6.0919440">
        <ele>380.2</ele>
        <time>2019-07-09T13:47:35Z</time>
      </trkpt>
      <trkpt lat="39.8575490" lon="-6.0920330">
        <ele>380.0</ele>
        <time>2019-07-09T13:47:37Z</time>
      </trkpt>
      <trkpt lat="39.8574730" lon="-6.0921540">
        <ele>380.4</ele>
        <time>2019-07-09T13:47:40Z</time>
      </trkpt>
      <trkpt lat="39.8574500" lon="-6.0921980">
        <ele>380.4</ele>
        <time>2019-07-09T13:47:41Z</time>
      </trkpt>
      <trkpt lat="39.8574310" lon="-6.0922480">
        <ele>380.6</ele>
        <time>2019-07-09T13:47:42Z</time>
      </trkpt>
      <trkpt lat="39.8573230" lon="-6.0926090">
        <ele>380.2</ele>
        <time>2019-07-09T13:47:48Z</time>
      </trkpt>
      <trkpt lat="39.8572940" lon="-6.0930160">
        <ele>379.4</ele>
        <time>2019-07-09T13:47:54Z</time>
      </trkpt>
      <trkpt lat="39.8573100" lon="-6.0932880">
        <ele>379.0</ele>
        <time>2019-07-09T13:47:58Z</time>
      </trkpt>
      <trkpt lat="39.8573150" lon="-6.0934360">
        <ele>378.6</ele>
        <time>2019-07-09T13:48:00Z</time>
      </trkpt>
      <trkpt lat="39.8573170" lon="-6.0935110">
        <ele>378.2</ele>
        <time>2019-07-09T13:48:01Z</time>
      </trkpt>
      <trkpt lat="39.8573170" lon="-6.0935860">
        <ele>377.8</ele>
        <time>2019-07-09T13:48:02Z</time>
      </trkpt>
      <trkpt lat="39.8573150" lon="-6.0937220">
        <ele>377.4</ele>
        <time>2019-07-09T13:48:04Z</time>
      </trkpt>
      <trkpt lat="39.8573160" lon="-6.0937830">
        <ele>377.2</ele>
        <time>2019-07-09T13:48:05Z</time>
      </trkpt>
      <trkpt lat="39.8573190" lon="-6.0938470">
        <ele>377.0</ele>
        <time>2019-07-09T13:48:06Z</time>
      </trkpt>
      <trkpt lat="39.8573380" lon="-6.0941070">
        <ele>375.4</ele>
        <time>2019-07-09T13:48:10Z</time>
      </trkpt>
      <trkpt lat="39.8573430" lon="-6.0941640">
        <ele>374.4</ele>
        <time>2019-07-09T13:48:11Z</time>
      </trkpt>
      <trkpt lat="39.8573470" lon="-6.0942180">
        <ele>373.6</ele>
        <time>2019-07-09T13:48:12Z</time>
      </trkpt>
      <trkpt lat="39.8573580" lon="-6.0943270">
        <ele>372.6</ele>
        <time>2019-07-09T13:48:14Z</time>
      </trkpt>
      <trkpt lat="39.8573910" lon="-6.0944860">
        <ele>370.8</ele>
        <time>2019-07-09T13:48:17Z</time>
      </trkpt>
      <trkpt lat="39.8574090" lon="-6.0945310">
        <ele>370.4</ele>
        <time>2019-07-09T13:48:18Z</time>
      </trkpt>
      <trkpt lat="39.8574520" lon="-6.0946250">
        <ele>369.2</ele>
        <time>2019-07-09T13:48:20Z</time>
      </trkpt>
      <trkpt lat="39.8574910" lon="-6.0947070">
        <ele>368.4</ele>
        <time>2019-07-09T13:48:22Z</time>
      </trkpt>
      <trkpt lat="39.8574980" lon="-6.0947320">
        <ele>368.2</ele>
        <time>2019-07-09T13:48:23Z</time>
      </trkpt>
      <trkpt lat="39.8575080" lon="-6.0947880">
        <ele>367.8</ele>
        <time>2019-07-09T13:48:25Z</time>
      </trkpt>
      <trkpt lat="39.8575400" lon="-6.0948590">
        <ele>367.8</ele>
        <time>2019-07-09T13:48:27Z</time>
      </trkpt>
      <trkpt lat="39.8575500" lon="-6.0949040">
        <ele>367.8</ele>
        <time>2019-07-09T13:48:28Z</time>
      </trkpt>
      <trkpt lat="39.8575330" lon="-6.0950000">
        <ele>367.8</ele>
        <time>2019-07-09T13:48:30Z</time>
      </trkpt>
      <trkpt lat="39.8575100" lon="-6.0950740">
        <ele>368.4</ele>
        <time>2019-07-09T13:48:32Z</time>
      </trkpt>
      <trkpt lat="39.8574920" lon="-6.0951410">
        <ele>368.8</ele>
        <time>2019-07-09T13:48:34Z</time>
      </trkpt>
      <trkpt lat="39.8574810" lon="-6.0952070">
        <ele>369.2</ele>
        <time>2019-07-09T13:48:36Z</time>
      </trkpt>
      <trkpt lat="39.8574750" lon="-6.0952400">
        <ele>369.4</ele>
        <time>2019-07-09T13:48:37Z</time>
      </trkpt>
      <trkpt lat="39.8574630" lon="-6.0953090">
        <ele>370.2</ele>
        <time>2019-07-09T13:48:39Z</time>
      </trkpt>
      <trkpt lat="39.8574520" lon="-6.0953810">
        <ele>370.8</ele>
        <time>2019-07-09T13:48:41Z</time>
      </trkpt>
      <trkpt lat="39.8574410" lon="-6.0954990">
        <ele>371.6</ele>
        <time>2019-07-09T13:48:44Z</time>
      </trkpt>
      <trkpt lat="39.8574380" lon="-6.0955430">
        <ele>371.6</ele>
        <time>2019-07-09T13:48:45Z</time>
      </trkpt>
      <trkpt lat="39.8574070" lon="-6.0958300">
        <ele>371.6</ele>
        <time>2019-07-09T13:48:51Z</time>
      </trkpt>
      <trkpt lat="39.8574010" lon="-6.0960060">
        <ele>371.4</ele>
        <time>2019-07-09T13:48:54Z</time>
      </trkpt>
      <trkpt lat="39.8574110" lon="-6.0962110">
        <ele>370.2</ele>
        <time>2019-07-09T13:48:57Z</time>
      </trkpt>
      <trkpt lat="39.8574190" lon="-6.0963640">
        <ele>369.8</ele>
        <time>2019-07-09T13:48:59Z</time>
      </trkpt>
      <trkpt lat="39.8574160" lon="-6.0966720">
        <ele>369.2</ele>
        <time>2019-07-09T13:49:03Z</time>
      </trkpt>
      <trkpt lat="39.8574070" lon="-6.0968800">
        <ele>369.2</ele>
        <time>2019-07-09T13:49:06Z</time>
      </trkpt>
      <trkpt lat="39.8574100" lon="-6.0969950">
        <ele>369.2</ele>
        <time>2019-07-09T13:49:08Z</time>
      </trkpt>
      <trkpt lat="39.8574250" lon="-6.0973020">
        <ele>369.0</ele>
        <time>2019-07-09T13:49:14Z</time>
      </trkpt>
      <trkpt lat="39.8574330" lon="-6.0973540">
        <ele>368.8</ele>
        <time>2019-07-09T13:49:15Z</time>
      </trkpt>
      <trkpt lat="39.8574430" lon="-6.0974060">
        <ele>368.6</ele>
        <time>2019-07-09T13:49:16Z</time>
      </trkpt>
      <trkpt lat="39.8574500" lon="-6.0974640">
        <ele>368.6</ele>
        <time>2019-07-09T13:49:17Z</time>
      </trkpt>
      <trkpt lat="39.8574750" lon="-6.0977150">
        <ele>368.8</ele>
        <time>2019-07-09T13:49:21Z</time>
      </trkpt>
      <trkpt lat="39.8575010" lon="-6.0979120">
        <ele>368.8</ele>
        <time>2019-07-09T13:49:24Z</time>
      </trkpt>
      <trkpt lat="39.8575220" lon="-6.0980480">
        <ele>368.8</ele>
        <time>2019-07-09T13:49:26Z</time>
      </trkpt>
      <trkpt lat="39.8575410" lon="-6.0981810">
        <ele>368.8</ele>
        <time>2019-07-09T13:49:28Z</time>
      </trkpt>
      <trkpt lat="39.8575760" lon="-6.0985450">
        <ele>368.0</ele>
        <time>2019-07-09T13:49:34Z</time>
      </trkpt>
      <trkpt lat="39.8575750" lon="-6.0987840">
        <ele>367.6</ele>
        <time>2019-07-09T13:49:37Z</time>
      </trkpt>
      <trkpt lat="39.8575890" lon="-6.0990330">
        <ele>366.8</ele>
        <time>2019-07-09T13:49:40Z</time>
      </trkpt>
      <trkpt lat="39.8576150" lon="-6.0991850">
        <ele>366.6</ele>
        <time>2019-07-09T13:49:42Z</time>
      </trkpt>
      <trkpt lat="39.8576730" lon="-6.0994630">
        <ele>365.8</ele>
        <time>2019-07-09T13:49:46Z</time>
      </trkpt>
      <trkpt lat="39.8576880" lon="-6.0995340">
        <ele>365.6</ele>
        <time>2019-07-09T13:49:47Z</time>
      </trkpt>
      <trkpt lat="39.8577450" lon="-6.0998030">
        <ele>364.6</ele>
        <time>2019-07-09T13:49:51Z</time>
      </trkpt>
      <trkpt lat="39.8577620" lon="-6.0998590">
        <ele>364.2</ele>
        <time>2019-07-09T13:49:52Z</time>
      </trkpt>
      <trkpt lat="39.8577960" lon="-6.0999600">
        <ele>363.2</ele>
        <time>2019-07-09T13:49:54Z</time>
      </trkpt>
      <trkpt lat="39.8578300" lon="-6.1000690">
        <ele>362.4</ele>
        <time>2019-07-09T13:49:56Z</time>
      </trkpt>
      <trkpt lat="39.8578300" lon="-6.1001280">
        <ele>362.2</ele>
        <time>2019-07-09T13:49:57Z</time>
      </trkpt>
      <trkpt lat="39.8577980" lon="-6.1002180">
        <ele>362.2</ele>
        <time>2019-07-09T13:49:59Z</time>
      </trkpt>
      <trkpt lat="39.8577810" lon="-6.1002510">
        <ele>362.2</ele>
        <time>2019-07-09T13:50:00Z</time>
      </trkpt>
      <trkpt lat="39.8577660" lon="-6.1003080">
        <ele>362.4</ele>
        <time>2019-07-09T13:50:02Z</time>
      </trkpt>
      <trkpt lat="39.8577550" lon="-6.1003600">
        <ele>363.0</ele>
        <time>2019-07-09T13:50:04Z</time>
      </trkpt>
      <trkpt lat="39.8577540" lon="-6.1003860">
        <ele>363.4</ele>
        <time>2019-07-09T13:50:05Z</time>
      </trkpt>
      <trkpt lat="39.8577550" lon="-6.1004390">
        <ele>364.0</ele>
        <time>2019-07-09T13:50:07Z</time>
      </trkpt>
      <trkpt lat="39.8577570" lon="-6.1004900">
        <ele>364.8</ele>
        <time>2019-07-09T13:50:09Z</time>
      </trkpt>
      <trkpt lat="39.8577610" lon="-6.1005150">
        <ele>365.0</ele>
        <time>2019-07-09T13:50:10Z</time>
      </trkpt>
      <trkpt lat="39.8577680" lon="-6.1005660">
        <ele>365.6</ele>
        <time>2019-07-09T13:50:12Z</time>
      </trkpt>
      <trkpt lat="39.8577750" lon="-6.1006210">
        <ele>365.8</ele>
        <time>2019-07-09T13:50:14Z</time>
      </trkpt>
      <trkpt lat="39.8577860" lon="-6.1007020">
        <ele>367.2</ele>
        <time>2019-07-09T13:50:17Z</time>
      </trkpt>
      <trkpt lat="39.8578000" lon="-6.1007810">
        <ele>368.2</ele>
        <time>2019-07-09T13:50:20Z</time>
      </trkpt>
      <trkpt lat="39.8578050" lon="-6.1008070">
        <ele>368.8</ele>
        <time>2019-07-09T13:50:21Z</time>
      </trkpt>
      <trkpt lat="39.8578110" lon="-6.1008600">
        <ele>369.2</ele>
        <time>2019-07-09T13:50:23Z</time>
      </trkpt>
      <trkpt lat="39.8578150" lon="-6.1009160">
        <ele>369.4</ele>
        <time>2019-07-09T13:50:25Z</time>
      </trkpt>
      <trkpt lat="39.8578120" lon="-6.1009440">
        <ele>370.0</ele>
        <time>2019-07-09T13:50:26Z</time>
      </trkpt>
      <trkpt lat="39.8578000" lon="-6.1009930">
        <ele>370.6</ele>
        <time>2019-07-09T13:50:28Z</time>
      </trkpt>
      <trkpt lat="39.8577640" lon="-6.1010420">
        <ele>371.4</ele>
        <time>2019-07-09T13:50:30Z</time>
      </trkpt>
      <trkpt lat="39.8577320" lon="-6.1010720">
        <ele>371.4</ele>
        <time>2019-07-09T13:50:31Z</time>
      </trkpt>
      <trkpt lat="39.8576890" lon="-6.1010970">
        <ele>371.2</ele>
        <time>2019-07-09T13:50:32Z</time>
      </trkpt>
      <trkpt lat="39.8575830" lon="-6.1011030">
        <ele>370.0</ele>
        <time>2019-07-09T13:50:34Z</time>
      </trkpt>
      <trkpt lat="39.8575270" lon="-6.1010840">
        <ele>369.4</ele>
        <time>2019-07-09T13:50:35Z</time>
      </trkpt>
      <trkpt lat="39.8574110" lon="-6.1010470">
        <ele>368.6</ele>
        <time>2019-07-09T13:50:37Z</time>
      </trkpt>
      <trkpt lat="39.8573550" lon="-6.1010250">
        <ele>368.2</ele>
        <time>2019-07-09T13:50:38Z</time>
      </trkpt>
      <trkpt lat="39.8572590" lon="-6.1009810">
        <ele>367.8</ele>
        <time>2019-07-09T13:50:40Z</time>
      </trkpt>
      <trkpt lat="39.8570820" lon="-6.1009210">
        <ele>368.0</ele>
        <time>2019-07-09T13:50:45Z</time>
      </trkpt>
      <trkpt lat="39.8569610" lon="-6.1008930">
        <ele>368.4</ele>
        <time>2019-07-09T13:50:50Z</time>
      </trkpt>
      <trkpt lat="39.8569280" lon="-6.1008860">
        <ele>368.4</ele>
        <time>2019-07-09T13:50:52Z</time>
      </trkpt>
      <trkpt lat="39.8568730" lon="-6.1008740">
        <ele>368.8</ele>
        <time>2019-07-09T13:50:56Z</time>
      </trkpt>
      <trkpt lat="39.8568510" lon="-6.1008690">
        <ele>369.0</ele>
        <time>2019-07-09T13:50:57Z</time>
      </trkpt>
      <trkpt lat="39.8568240" lon="-6.1008620">
        <ele>369.0</ele>
        <time>2019-07-09T13:50:58Z</time>
      </trkpt>
      <trkpt lat="39.8566860" lon="-6.1008140">
        <ele>369.2</ele>
        <time>2019-07-09T13:51:02Z</time>
      </trkpt>
      <trkpt lat="39.8566490" lon="-6.1007920">
        <ele>369.2</ele>
        <time>2019-07-09T13:51:03Z</time>
      </trkpt>
      <trkpt lat="39.8565740" lon="-6.1006690">
        <ele>369.2</ele>
        <time>2019-07-09T13:51:06Z</time>
      </trkpt>
      <trkpt lat="39.8565390" lon="-6.1005160">
        <ele>369.0</ele>
        <time>2019-07-09T13:51:09Z</time>
      </trkpt>
      <trkpt lat="39.8565190" lon="-6.1004020">
        <ele>368.6</ele>
        <time>2019-07-09T13:51:11Z</time>
      </trkpt>
      <trkpt lat="39.8564730" lon="-6.1001910">
        <ele>367.2</ele>
        <time>2019-07-09T13:51:15Z</time>
      </trkpt>
      <trkpt lat="39.8564510" lon="-6.1001320">
        <ele>367.0</ele>
        <time>2019-07-09T13:51:16Z</time>
      </trkpt>
      <trkpt lat="39.8563910" lon="-6.1000270">
        <ele>366.6</ele>
        <time>2019-07-09T13:51:18Z</time>
      </trkpt>
      <trkpt lat="39.8563600" lon="-6.0999830">
        <ele>366.0</ele>
        <time>2019-07-09T13:51:19Z</time>
      </trkpt>
      <trkpt lat="39.8562990" lon="-6.0999090">
        <ele>365.8</ele>
        <time>2019-07-09T13:51:21Z</time>
      </trkpt>
      <trkpt lat="39.8562640" lon="-6.0998720">
        <ele>365.8</ele>
        <time>2019-07-09T13:51:22Z</time>
      </trkpt>
      <trkpt lat="39.8561860" lon="-6.0997890">
        <ele>365.8</ele>
        <time>2019-07-09T13:51:24Z</time>
      </trkpt>
      <trkpt lat="39.8560800" lon="-6.0996700">
        <ele>365.6</ele>
        <time>2019-07-09T13:51:27Z</time>
      </trkpt>
      <trkpt lat="39.8560500" lon="-6.0996310">
        <ele>365.6</ele>
        <time>2019-07-09T13:51:28Z</time>
      </trkpt>
      <trkpt lat="39.8559950" lon="-6.0994940">
        <ele>365.4</ele>
        <time>2019-07-09T13:51:31Z</time>
      </trkpt>
      <trkpt lat="39.8560000" lon="-6.0994440">
        <ele>365.4</ele>
        <time>2019-07-09T13:51:32Z</time>
      </trkpt>
      <trkpt lat="39.8560280" lon="-6.0993580">
        <ele>365.4</ele>
        <time>2019-07-09T13:51:34Z</time>
      </trkpt>
      <trkpt lat="39.8560590" lon="-6.0992900">
        <ele>365.6</ele>
        <time>2019-07-09T13:51:36Z</time>
      </trkpt>
      <trkpt lat="39.8560760" lon="-6.0992570">
        <ele>365.8</ele>
        <time>2019-07-09T13:51:37Z</time>
      </trkpt>
      <trkpt lat="39.8561100" lon="-6.0991860">
        <ele>366.2</ele>
        <time>2019-07-09T13:51:39Z</time>
      </trkpt>
      <trkpt lat="39.8561810" lon="-6.0990030">
        <ele>366.6</ele>
        <time>2019-07-09T13:51:43Z</time>
      </trkpt>
      <trkpt lat="39.8561950" lon="-6.0989450">
        <ele>366.4</ele>
        <time>2019-07-09T13:51:44Z</time>
      </trkpt>
      <trkpt lat="39.8561950" lon="-6.0986890">
        <ele>365.8</ele>
        <time>2019-07-09T13:51:48Z</time>
      </trkpt>
      <trkpt lat="39.8561650" lon="-6.0985550">
        <ele>365.4</ele>
        <time>2019-07-09T13:51:50Z</time>
      </trkpt>
      <trkpt lat="39.8561460" lon="-6.0984890">
        <ele>365.4</ele>
        <time>2019-07-09T13:51:51Z</time>
      </trkpt>
      <trkpt lat="39.8561250" lon="-6.0984280">
        <ele>364.8</ele>
        <time>2019-07-09T13:51:52Z</time>
      </trkpt>
      <trkpt lat="39.8561060" lon="-6.0983790">
        <ele>364.0</ele>
        <time>2019-07-09T13:51:53Z</time>
      </trkpt>
      <trkpt lat="39.8560860" lon="-6.0983380">
        <ele>363.4</ele>
        <time>2019-07-09T13:51:54Z</time>
      </trkpt>
      <trkpt lat="39.8560480" lon="-6.0982580">
        <ele>362.6</ele>
        <time>2019-07-09T13:51:56Z</time>
      </trkpt>
      <trkpt lat="39.8560300" lon="-6.0982150">
        <ele>362.0</ele>
        <time>2019-07-09T13:51:57Z</time>
      </trkpt>
      <trkpt lat="39.8560100" lon="-6.0981720">
        <ele>361.6</ele>
        <time>2019-07-09T13:51:58Z</time>
      </trkpt>
      <trkpt lat="39.8559600" lon="-6.0980800">
        <ele>360.0</ele>
        <time>2019-07-09T13:52:00Z</time>
      </trkpt>
      <trkpt lat="39.8559330" lon="-6.0980340">
        <ele>358.8</ele>
        <time>2019-07-09T13:52:01Z</time>
      </trkpt>
      <trkpt lat="39.8559050" lon="-6.0979910">
        <ele>357.6</ele>
        <time>2019-07-09T13:52:02Z</time>
      </trkpt>
      <trkpt lat="39.8558780" lon="-6.0979430">
        <ele>357.0</ele>
        <time>2019-07-09T13:52:03Z</time>
      </trkpt>
      <trkpt lat="39.8558480" lon="-6.0978870">
        <ele>356.4</ele>
        <time>2019-07-09T13:52:04Z</time>
      </trkpt>
      <trkpt lat="39.8558180" lon="-6.0978230">
        <ele>355.4</ele>
        <time>2019-07-09T13:52:05Z</time>
      </trkpt>
      <trkpt lat="39.8557940" lon="-6.0977510">
        <ele>354.6</ele>
        <time>2019-07-09T13:52:06Z</time>
      </trkpt>
      <trkpt lat="39.8557760" lon="-6.0976780">
        <ele>354.2</ele>
        <time>2019-07-09T13:52:07Z</time>
      </trkpt>
      <trkpt lat="39.8557450" lon="-6.0975470">
        <ele>352.8</ele>
        <time>2019-07-09T13:52:09Z</time>
      </trkpt>
      <trkpt lat="39.8557160" lon="-6.0974490">
        <ele>351.4</ele>
        <time>2019-07-09T13:52:11Z</time>
      </trkpt>
      <trkpt lat="39.8556520" lon="-6.0972900">
        <ele>350.2</ele>
        <time>2019-07-09T13:52:15Z</time>
      </trkpt>
      <trkpt lat="39.8555760" lon="-6.0971680">
        <ele>348.4</ele>
        <time>2019-07-09T13:52:18Z</time>
      </trkpt>
      <trkpt lat="39.8555150" lon="-6.0971070">
        <ele>347.2</ele>
        <time>2019-07-09T13:52:20Z</time>
      </trkpt>
      <trkpt lat="39.8554660" lon="-6.0970840">
        <ele>346.6</ele>
        <time>2019-07-09T13:52:22Z</time>
      </trkpt>
      <trkpt lat="39.8554120" lon="-6.0970780">
        <ele>345.8</ele>
        <time>2019-07-09T13:52:24Z</time>
      </trkpt>
      <trkpt lat="39.8553760" lon="-6.0970770">
        <ele>345.6</ele>
        <time>2019-07-09T13:52:25Z</time>
      </trkpt>
      <trkpt lat="39.8553360" lon="-6.0970780">
        <ele>344.8</ele>
        <time>2019-07-09T13:52:26Z</time>
      </trkpt>
      <trkpt lat="39.8552960" lon="-6.0970820">
        <ele>343.6</ele>
        <time>2019-07-09T13:52:27Z</time>
      </trkpt>
      <trkpt lat="39.8552140" lon="-6.0970790">
        <ele>342.2</ele>
        <time>2019-07-09T13:52:29Z</time>
      </trkpt>
      <trkpt lat="39.8551360" lon="-6.0970660">
        <ele>341.0</ele>
        <time>2019-07-09T13:52:31Z</time>
      </trkpt>
      <trkpt lat="39.8550610" lon="-6.0970310">
        <ele>339.8</ele>
        <time>2019-07-09T13:52:33Z</time>
      </trkpt>
      <trkpt lat="39.8549780" lon="-6.0969880">
        <ele>338.8</ele>
        <time>2019-07-09T13:52:35Z</time>
      </trkpt>
      <trkpt lat="39.8548520" lon="-6.0969220">
        <ele>337.2</ele>
        <time>2019-07-09T13:52:38Z</time>
      </trkpt>
      <trkpt lat="39.8547470" lon="-6.0968750">
        <ele>335.6</ele>
        <time>2019-07-09T13:52:40Z</time>
      </trkpt>
      <trkpt lat="39.8546420" lon="-6.0968210">
        <ele>333.6</ele>
        <time>2019-07-09T13:52:42Z</time>
      </trkpt>
      <trkpt lat="39.8545330" lon="-6.0967610">
        <ele>332.2</ele>
        <time>2019-07-09T13:52:44Z</time>
      </trkpt>
      <trkpt lat="39.8544860" lon="-6.0967380">
        <ele>331.4</ele>
        <time>2019-07-09T13:52:45Z</time>
      </trkpt>
      <trkpt lat="39.8544460" lon="-6.0967190">
        <ele>330.8</ele>
        <time>2019-07-09T13:52:46Z</time>
      </trkpt>
      <trkpt lat="39.8543500" lon="-6.0966870">
        <ele>330.0</ele>
        <time>2019-07-09T13:52:49Z</time>
      </trkpt>
      <trkpt lat="39.8542740" lon="-6.0966880">
        <ele>329.6</ele>
        <time>2019-07-09T13:52:51Z</time>
      </trkpt>
      <trkpt lat="39.8541800" lon="-6.0966870">
        <ele>328.2</ele>
        <time>2019-07-09T13:52:53Z</time>
      </trkpt>
      <trkpt lat="39.8541360" lon="-6.0966850">
        <ele>326.6</ele>
        <time>2019-07-09T13:52:54Z</time>
      </trkpt>
      <trkpt lat="39.8540970" lon="-6.0966850">
        <ele>325.0</ele>
        <time>2019-07-09T13:52:55Z</time>
      </trkpt>
      <trkpt lat="39.8540600" lon="-6.0966890">
        <ele>324.2</ele>
        <time>2019-07-09T13:52:56Z</time>
      </trkpt>
      <trkpt lat="39.8540280" lon="-6.0966960">
        <ele>323.8</ele>
        <time>2019-07-09T13:52:57Z</time>
      </trkpt>
      <trkpt lat="39.8540000" lon="-6.0967050">
        <ele>323.0</ele>
        <time>2019-07-09T13:52:58Z</time>
      </trkpt>
      <trkpt lat="39.8539770" lon="-6.0967160">
        <ele>322.6</ele>
        <time>2019-07-09T13:52:59Z</time>
      </trkpt>
      <trkpt lat="39.8539070" lon="-6.0967640">
        <ele>321.6</ele>
        <time>2019-07-09T13:53:02Z</time>
      </trkpt>
      <trkpt lat="39.8538820" lon="-6.0967750">
        <ele>321.4</ele>
        <time>2019-07-09T13:53:03Z</time>
      </trkpt>
      <trkpt lat="39.8538240" lon="-6.0968070">
        <ele>320.2</ele>
        <time>2019-07-09T13:53:06Z</time>
      </trkpt>
      <trkpt lat="39.8537840" lon="-6.0968300">
        <ele>319.0</ele>
        <time>2019-07-09T13:53:08Z</time>
      </trkpt>
      <trkpt lat="39.8537650" lon="-6.0968410">
        <ele>318.6</ele>
        <time>2019-07-09T13:53:09Z</time>
      </trkpt>
      <trkpt lat="39.8537230" lon="-6.0968640">
        <ele>317.2</ele>
        <time>2019-07-09T13:53:11Z</time>
      </trkpt>
      <trkpt lat="39.8536770" lon="-6.0968720">
        <ele>316.2</ele>
        <time>2019-07-09T13:53:13Z</time>
      </trkpt>
      <trkpt lat="39.8536280" lon="-6.0968520">
        <ele>315.0</ele>
        <time>2019-07-09T13:53:15Z</time>
      </trkpt>
      <trkpt lat="39.8535780" lon="-6.0968100">
        <ele>313.8</ele>
        <time>2019-07-09T13:53:17Z</time>
      </trkpt>
      <trkpt lat="39.8535360" lon="-6.0967770">
        <ele>312.0</ele>
        <time>2019-07-09T13:53:19Z</time>
      </trkpt>
      <trkpt lat="39.8535160" lon="-6.0967620">
        <ele>311.4</ele>
        <time>2019-07-09T13:53:20Z</time>
      </trkpt>
      <trkpt lat="39.8534900" lon="-6.0967350">
        <ele>310.4</ele>
        <time>2019-07-09T13:53:22Z</time>
      </trkpt>
      <trkpt lat="39.8534830" lon="-6.0967230">
        <ele>310.0</ele>
        <time>2019-07-09T13:53:23Z</time>
      </trkpt>
      <trkpt lat="39.8534750" lon="-6.0967110">
        <ele>309.6</ele>
        <time>2019-07-09T13:53:24Z</time>
      </trkpt>
      <trkpt lat="39.8534630" lon="-6.0967010">
        <ele>309.2</ele>
        <time>2019-07-09T13:53:25Z</time>
      </trkpt>
      <trkpt lat="39.8534090" lon="-6.0966560">
        <ele>308.0</ele>
        <time>2019-07-09T13:53:28Z</time>
      </trkpt>
      <trkpt lat="39.8533970" lon="-6.0966350">
        <ele>307.6</ele>
        <time>2019-07-09T13:53:29Z</time>
      </trkpt>
      <trkpt lat="39.8533860" lon="-6.0965970">
        <ele>306.8</ele>
        <time>2019-07-09T13:53:31Z</time>
      </trkpt>
      <trkpt lat="39.8533830" lon="-6.0965520">
        <ele>305.8</ele>
        <time>2019-07-09T13:53:34Z</time>
      </trkpt>
      <trkpt lat="39.8533850" lon="-6.0965500">
        <ele>305.0</ele>
        <time>2019-07-09T13:53:36Z</time>
      </trkpt>
      <trkpt lat="39.8533740" lon="-6.0965180">
        <ele>304.6</ele>
        <time>2019-07-09T13:53:42Z</time>
      </trkpt>
      <trkpt lat="39.8533590" lon="-6.0964880">
        <ele>304.4</ele>
        <time>2019-07-09T13:53:44Z</time>
      </trkpt>
      <trkpt lat="39.8533480" lon="-6.0964690">
        <ele>303.2</ele>
        <time>2019-07-09T13:53:46Z</time>
      </trkpt>
      <trkpt lat="39.8533300" lon="-6.0964440">
        <ele>301.8</ele>
        <time>2019-07-09T13:53:50Z</time>
      </trkpt>
      <trkpt lat="39.8533250" lon="-6.0964370">
        <ele>301.6</ele>
        <time>2019-07-09T13:53:51Z</time>
      </trkpt>
      <trkpt lat="39.8532940" lon="-6.0963960">
        <ele>300.8</ele>
        <time>2019-07-09T13:53:55Z</time>
      </trkpt>
      <trkpt lat="39.8532720" lon="-6.0963710">
        <ele>299.8</ele>
        <time>2019-07-09T13:53:57Z</time>
      </trkpt>
      <trkpt lat="39.8532640" lon="-6.0963610">
        <ele>299.6</ele>
        <time>2019-07-09T13:53:58Z</time>
      </trkpt>
      <trkpt lat="39.8532210" lon="-6.0962840">
        <ele>298.4</ele>
        <time>2019-07-09T13:54:02Z</time>
      </trkpt>
      <trkpt lat="39.8531800" lon="-6.0962240">
        <ele>298.2</ele>
        <time>2019-07-09T13:54:08Z</time>
      </trkpt>
      <trkpt lat="39.8531790" lon="-6.0962240">
        <ele>298.2</ele>
        <time>2019-07-09T13:54:09Z</time>
      </trkpt>
      <trkpt lat="39.8531640" lon="-6.0961800">
        <ele>298.2</ele>
        <time>2019-07-09T13:54:39Z</time>
      </trkpt>
      <trkpt lat="39.8531520" lon="-6.0961610">
        <ele>298.2</ele>
        <time>2019-07-09T13:54:40Z</time>
      </trkpt>
      <trkpt lat="39.8531380" lon="-6.0961420">
        <ele>298.4</ele>
        <time>2019-07-09T13:54:41Z</time>
      </trkpt>
      <trkpt lat="39.8530580" lon="-6.0960450">
        <ele>299.4</ele>
        <time>2019-07-09T13:54:47Z</time>
      </trkpt>
      <trkpt lat="39.8530110" lon="-6.0960200">
        <ele>300.0</ele>
        <time>2019-07-09T13:54:50Z</time>
      </trkpt>
      <trkpt lat="39.8529850" lon="-6.0960010">
        <ele>300.8</ele>
        <time>2019-07-09T13:54:52Z</time>
      </trkpt>
      <trkpt lat="39.8529560" lon="-6.0959890">
        <ele>301.2</ele>
        <time>2019-07-09T13:54:54Z</time>
      </trkpt>
      <trkpt lat="39.8529170" lon="-6.0959810">
        <ele>302.2</ele>
        <time>2019-07-09T13:54:57Z</time>
      </trkpt>
      <trkpt lat="39.8528920" lon="-6.0959810">
        <ele>302.8</ele>
        <time>2019-07-09T13:54:59Z</time>
      </trkpt>
      <trkpt lat="39.8528820" lon="-6.0959750">
        <ele>303.2</ele>
        <time>2019-07-09T13:55:01Z</time>
      </trkpt>
      <trkpt lat="39.8528810" lon="-6.0959750">
        <ele>303.4</ele>
        <time>2019-07-09T13:55:02Z</time>
      </trkpt>
      <trkpt lat="39.8525120" lon="-6.0960280">
        <ele>309.4</ele>
        <time>2019-07-09T13:55:54Z</time>
      </trkpt>
      <trkpt lat="39.8524960" lon="-6.0960270">
        <ele>309.6</ele>
        <time>2019-07-09T13:55:55Z</time>
      </trkpt>
      <trkpt lat="39.8523910" lon="-6.0960150">
        <ele>310.2</ele>
        <time>2019-07-09T13:56:00Z</time>
      </trkpt>
      <trkpt lat="39.8523490" lon="-6.0960090">
        <ele>310.6</ele>
        <time>2019-07-09T13:56:02Z</time>
      </trkpt>
      <trkpt lat="39.8523290" lon="-6.0960080">
        <ele>310.8</ele>
        <time>2019-07-09T13:56:03Z</time>
      </trkpt>
      <trkpt lat="39.8522100" lon="-6.0960140">
        <ele>311.8</ele>
        <time>2019-07-09T13:56:09Z</time>
      </trkpt>
      <trkpt lat="39.8521710" lon="-6.0960120">
        <ele>312.4</ele>
        <time>2019-07-09T13:56:11Z</time>
      </trkpt>
      <trkpt lat="39.8521180" lon="-6.0960120">
        <ele>312.8</ele>
        <time>2019-07-09T13:56:14Z</time>
      </trkpt>
      <trkpt lat="39.8520340" lon="-6.0959880">
        <ele>313.8</ele>
        <time>2019-07-09T13:56:19Z</time>
      </trkpt>
      <trkpt lat="39.8519380" lon="-6.0959240">
        <ele>315.0</ele>
        <time>2019-07-09T13:56:25Z</time>
      </trkpt>
      <trkpt lat="39.8519080" lon="-6.0959020">
        <ele>315.4</ele>
        <time>2019-07-09T13:56:27Z</time>
      </trkpt>
      <trkpt lat="39.8518710" lon="-6.0958690">
        <ele>316.0</ele>
        <time>2019-07-09T13:56:30Z</time>
      </trkpt>
      <trkpt lat="39.8518260" lon="-6.0958160">
        <ele>317.0</ele>
        <time>2019-07-09T13:56:34Z</time>
      </trkpt>
      <trkpt lat="39.8518150" lon="-6.0958010">
        <ele>317.2</ele>
        <time>2019-07-09T13:56:35Z</time>
      </trkpt>
      <trkpt lat="39.8517780" lon="-6.0957480">
        <ele>318.2</ele>
        <time>2019-07-09T13:56:39Z</time>
      </trkpt>
      <trkpt lat="39.8517610" lon="-6.0957170">
        <ele>318.6</ele>
        <time>2019-07-09T13:56:41Z</time>
      </trkpt>
      <trkpt lat="39.8517420" lon="-6.0956670">
        <ele>319.4</ele>
        <time>2019-07-09T13:56:44Z</time>
      </trkpt>
      <trkpt lat="39.8517170" lon="-6.0955960">
        <ele>320.6</ele>
        <time>2019-07-09T13:56:48Z</time>
      </trkpt>
      <trkpt lat="39.8516990" lon="-6.0954910">
        <ele>322.0</ele>
        <time>2019-07-09T13:56:54Z</time>
      </trkpt>
      <trkpt lat="39.8516960" lon="-6.0954730">
        <ele>322.2</ele>
        <time>2019-07-09T13:56:55Z</time>
      </trkpt>
      <trkpt lat="39.8516970" lon="-6.0953890">
        <ele>323.0</ele>
        <time>2019-07-09T13:57:00Z</time>
      </trkpt>
      <trkpt lat="39.8517020" lon="-6.0953350">
        <ele>323.8</ele>
        <time>2019-07-09T13:57:03Z</time>
      </trkpt>
      <trkpt lat="39.8517070" lon="-6.0953020">
        <ele>324.4</ele>
        <time>2019-07-09T13:57:05Z</time>
      </trkpt>
      <trkpt lat="39.8517250" lon="-6.0952300">
        <ele>325.4</ele>
        <time>2019-07-09T13:57:09Z</time>
      </trkpt>
      <trkpt lat="39.8517420" lon="-6.0951570">
        <ele>326.8</ele>
        <time>2019-07-09T13:57:13Z</time>
      </trkpt>
      <trkpt lat="39.8517530" lon="-6.0951050">
        <ele>327.6</ele>
        <time>2019-07-09T13:57:16Z</time>
      </trkpt>
      <trkpt lat="39.8517620" lon="-6.0950710">
        <ele>328.0</ele>
        <time>2019-07-09T13:57:18Z</time>
      </trkpt>
      <trkpt lat="39.8517690" lon="-6.0949990">
        <ele>329.4</ele>
        <time>2019-07-09T13:57:22Z</time>
      </trkpt>
      <trkpt lat="39.8517750" lon="-6.0949630">
        <ele>330.0</ele>
        <time>2019-07-09T13:57:24Z</time>
      </trkpt>
      <trkpt lat="39.8517810" lon="-6.0949320">
        <ele>330.4</ele>
        <time>2019-07-09T13:57:26Z</time>
      </trkpt>
      <trkpt lat="39.8517990" lon="-6.0948560">
        <ele>331.2</ele>
        <time>2019-07-09T13:57:31Z</time>
      </trkpt>
      <trkpt lat="39.8518020" lon="-6.0948390">
        <ele>331.6</ele>
        <time>2019-07-09T13:57:32Z</time>
      </trkpt>
      <trkpt lat="39.8518230" lon="-6.0947630">
        <ele>332.8</ele>
        <time>2019-07-09T13:57:37Z</time>
      </trkpt>
      <trkpt lat="39.8518340" lon="-6.0947340">
        <ele>333.8</ele>
        <time>2019-07-09T13:57:39Z</time>
      </trkpt>
      <trkpt lat="39.8518390" lon="-6.0947190">
        <ele>334.2</ele>
        <time>2019-07-09T13:57:40Z</time>
      </trkpt>
      <trkpt lat="39.8518470" lon="-6.0946850">
        <ele>334.8</ele>
        <time>2019-07-09T13:57:42Z</time>
      </trkpt>
      <trkpt lat="39.8518620" lon="-6.0946110">
        <ele>335.8</ele>
        <time>2019-07-09T13:57:46Z</time>
      </trkpt>
      <trkpt lat="39.8518660" lon="-6.0945690">
        <ele>336.8</ele>
        <time>2019-07-09T13:57:48Z</time>
      </trkpt>
      <trkpt lat="39.8518690" lon="-6.0945500">
        <ele>337.0</ele>
        <time>2019-07-09T13:57:49Z</time>
      </trkpt>
      <trkpt lat="39.8518770" lon="-6.0944760">
        <ele>338.2</ele>
        <time>2019-07-09T13:57:53Z</time>
      </trkpt>
      <trkpt lat="39.8518750" lon="-6.0944380">
        <ele>338.6</ele>
        <time>2019-07-09T13:57:55Z</time>
      </trkpt>
      <trkpt lat="39.8518700" lon="-6.0943330">
        <ele>339.2</ele>
        <time>2019-07-09T13:58:00Z</time>
      </trkpt>
      <trkpt lat="39.8518680" lon="-6.0943100">
        <ele>339.4</ele>
        <time>2019-07-09T13:58:01Z</time>
      </trkpt>
      <trkpt lat="39.8518370" lon="-6.0941960">
        <ele>340.2</ele>
        <time>2019-07-09T13:58:06Z</time>
      </trkpt>
      <trkpt lat="39.8518270" lon="-6.0941740">
        <ele>340.4</ele>
        <time>2019-07-09T13:58:07Z</time>
      </trkpt>
      <trkpt lat="39.8517350" lon="-6.0940660">
        <ele>341.2</ele>
        <time>2019-07-09T13:58:13Z</time>
      </trkpt>
      <trkpt lat="39.8515890" lon="-6.0940040">
        <ele>341.8</ele>
        <time>2019-07-09T13:58:20Z</time>
      </trkpt>
      <trkpt lat="39.8515530" lon="-6.0939880">
        <ele>342.2</ele>
        <time>2019-07-09T13:58:22Z</time>
      </trkpt>
      <trkpt lat="39.8515360" lon="-6.0939800">
        <ele>342.6</ele>
        <time>2019-07-09T13:58:23Z</time>
      </trkpt>
      <trkpt lat="39.8514500" lon="-6.0939380">
        <ele>343.8</ele>
        <time>2019-07-09T13:58:28Z</time>
      </trkpt>
      <trkpt lat="39.8513840" lon="-6.0938940">
        <ele>344.8</ele>
        <time>2019-07-09T13:58:32Z</time>
      </trkpt>
      <trkpt lat="39.8513700" lon="-6.0938810">
        <ele>345.0</ele>
        <time>2019-07-09T13:58:33Z</time>
      </trkpt>
      <trkpt lat="39.8513130" lon="-6.0938340">
        <ele>346.0</ele>
        <time>2019-07-09T13:58:37Z</time>
      </trkpt>
      <trkpt lat="39.8512720" lon="-6.0938000">
        <ele>347.2</ele>
        <time>2019-07-09T13:58:40Z</time>
      </trkpt>
      <trkpt lat="39.8512060" lon="-6.0937480">
        <ele>348.2</ele>
        <time>2019-07-09T13:58:45Z</time>
      </trkpt>
      <trkpt lat="39.8511700" lon="-6.0937150">
        <ele>349.2</ele>
        <time>2019-07-09T13:58:48Z</time>
      </trkpt>
      <trkpt lat="39.8511580" lon="-6.0937080">
        <ele>349.6</ele>
        <time>2019-07-09T13:58:49Z</time>
      </trkpt>
      <trkpt lat="39.8511210" lon="-6.0936860">
        <ele>351.0</ele>
        <time>2019-07-09T13:58:52Z</time>
      </trkpt>
      <trkpt lat="39.8510830" lon="-6.0936600">
        <ele>352.0</ele>
        <time>2019-07-09T13:58:55Z</time>
      </trkpt>
      <trkpt lat="39.8510710" lon="-6.0936510">
        <ele>352.2</ele>
        <time>2019-07-09T13:58:56Z</time>
      </trkpt>
      <trkpt lat="39.8510410" lon="-6.0936140">
        <ele>353.0</ele>
        <time>2019-07-09T13:58:59Z</time>
      </trkpt>
      <trkpt lat="39.8510110" lon="-6.0935430">
        <ele>354.4</ele>
        <time>2019-07-09T13:59:04Z</time>
      </trkpt>
      <trkpt lat="39.8509900" lon="-6.0934830">
        <ele>355.6</ele>
        <time>2019-07-09T13:59:08Z</time>
      </trkpt>
      <trkpt lat="39.8509580" lon="-6.0934290">
        <ele>356.6</ele>
        <time>2019-07-09T13:59:12Z</time>
      </trkpt>
      <trkpt lat="39.8509280" lon="-6.0933740">
        <ele>357.8</ele>
        <time>2019-07-09T13:59:16Z</time>
      </trkpt>
      <trkpt lat="39.8508990" lon="-6.0933220">
        <ele>359.0</ele>
        <time>2019-07-09T13:59:20Z</time>
      </trkpt>
      <trkpt lat="39.8508740" lon="-6.0932580">
        <ele>360.2</ele>
        <time>2019-07-09T13:59:24Z</time>
      </trkpt>
      <trkpt lat="39.8508600" lon="-6.0931730">
        <ele>360.8</ele>
        <time>2019-07-09T13:59:28Z</time>
      </trkpt>
      <trkpt lat="39.8508200" lon="-6.0929960">
        <ele>361.0</ele>
        <time>2019-07-09T13:59:34Z</time>
      </trkpt>
      <trkpt lat="39.8506980" lon="-6.0927180">
        <ele>360.6</ele>
        <time>2019-07-09T13:59:41Z</time>
      </trkpt>
      <trkpt lat="39.8506720" lon="-6.0925470">
        <ele>361.2</ele>
        <time>2019-07-09T13:59:46Z</time>
      </trkpt>
      <trkpt lat="39.8506720" lon="-6.0925180">
        <ele>361.4</ele>
        <time>2019-07-09T13:59:47Z</time>
      </trkpt>
      <trkpt lat="39.8506750" lon="-6.0924610">
        <ele>361.8</ele>
        <time>2019-07-09T13:59:49Z</time>
      </trkpt>
      <trkpt lat="39.8507160" lon="-6.0923600">
        <ele>362.4</ele>
        <time>2019-07-09T13:59:53Z</time>
      </trkpt>
      <trkpt lat="39.8507310" lon="-6.0923380">
        <ele>362.8</ele>
        <time>2019-07-09T13:59:54Z</time>
      </trkpt>
      <trkpt lat="39.8507810" lon="-6.0922520">
        <ele>363.8</ele>
        <time>2019-07-09T13:59:58Z</time>
      </trkpt>
      <trkpt lat="39.8507960" lon="-6.0922310">
        <ele>364.0</ele>
        <time>2019-07-09T13:59:59Z</time>
      </trkpt>
      <trkpt lat="39.8508670" lon="-6.0920790">
        <ele>364.8</ele>
        <time>2019-07-09T14:00:05Z</time>
      </trkpt>
      <trkpt lat="39.8508640" lon="-6.0920380">
        <ele>365.4</ele>
        <time>2019-07-09T14:00:07Z</time>
      </trkpt>
      <trkpt lat="39.8508630" lon="-6.0920290">
        <ele>366.2</ele>
        <time>2019-07-09T14:00:10Z</time>
      </trkpt>
      <trkpt lat="39.8505300" lon="-6.0913070">
        <ele>379.8</ele>
        <time>2019-07-09T14:02:24Z</time>
      </trkpt>
      <trkpt lat="39.8505040" lon="-6.0913030">
        <ele>380.8</ele>
        <time>2019-07-09T14:02:27Z</time>
      </trkpt>
      <trkpt lat="39.8505090" lon="-6.0913000">
        <ele>380.8</ele>
        <time>2019-07-09T14:02:28Z</time>
      </trkpt>
      <trkpt lat="39.8505120" lon="-6.0913020">
        <ele>381.0</ele>
        <time>2019-07-09T14:02:30Z</time>
      </trkpt>
      <trkpt lat="39.8503820" lon="-6.0912010">
        <ele>384.6</ele>
        <time>2019-07-09T14:04:39Z</time>
      </trkpt>
      <trkpt lat="39.8503670" lon="-6.0911990">
        <ele>384.6</ele>
        <time>2019-07-09T14:04:40Z</time>
      </trkpt>
      <trkpt lat="39.8503470" lon="-6.0911740">
        <ele>384.8</ele>
        <time>2019-07-09T14:04:42Z</time>
      </trkpt>
      <trkpt lat="39.8503290" lon="-6.0911370">
        <ele>385.2</ele>
        <time>2019-07-09T14:04:44Z</time>
      </trkpt>
      <trkpt lat="39.8503180" lon="-6.0911190">
        <ele>385.4</ele>
        <time>2019-07-09T14:04:45Z</time>
      </trkpt>
      <trkpt lat="39.8503090" lon="-6.0911010">
        <ele>385.6</ele>
        <time>2019-07-09T14:04:46Z</time>
      </trkpt>
      <trkpt lat="39.8502930" lon="-6.0910660">
        <ele>386.2</ele>
        <time>2019-07-09T14:04:48Z</time>
      </trkpt>
      <trkpt lat="39.8502890" lon="-6.0910470">
        <ele>386.6</ele>
        <time>2019-07-09T14:04:49Z</time>
      </trkpt>
      <trkpt lat="39.8502780" lon="-6.0909910">
        <ele>387.6</ele>
        <time>2019-07-09T14:04:52Z</time>
      </trkpt>
      <trkpt lat="39.8502730" lon="-6.0909730">
        <ele>388.0</ele>
        <time>2019-07-09T14:04:53Z</time>
      </trkpt>
      <trkpt lat="39.8502540" lon="-6.0909240">
        <ele>388.6</ele>
        <time>2019-07-09T14:04:56Z</time>
      </trkpt>
      <trkpt lat="39.8502490" lon="-6.0909070">
        <ele>389.2</ele>
        <time>2019-07-09T14:04:57Z</time>
      </trkpt>
      <trkpt lat="39.8502400" lon="-6.0908780">
        <ele>389.6</ele>
        <time>2019-07-09T14:04:59Z</time>
      </trkpt>
      <trkpt lat="39.8502220" lon="-6.0908380">
        <ele>390.2</ele>
        <time>2019-07-09T14:05:02Z</time>
      </trkpt>
      <trkpt lat="39.8502140" lon="-6.0908250">
        <ele>390.2</ele>
        <time>2019-07-09T14:05:03Z</time>
      </trkpt>
      <trkpt lat="39.8501930" lon="-6.0907810">
        <ele>390.6</ele>
        <time>2019-07-09T14:05:06Z</time>
      </trkpt>
      <trkpt lat="39.8501830" lon="-6.0907660">
        <ele>391.0</ele>
        <time>2019-07-09T14:05:07Z</time>
      </trkpt>
      <trkpt lat="39.8501720" lon="-6.0907530">
        <ele>391.4</ele>
        <time>2019-07-09T14:05:08Z</time>
      </trkpt>
      <trkpt lat="39.8501540" lon="-6.0907130">
        <ele>392.0</ele>
        <time>2019-07-09T14:05:11Z</time>
      </trkpt>
      <trkpt lat="39.8501480" lon="-6.0906890">
        <ele>392.4</ele>
        <time>2019-07-09T14:05:13Z</time>
      </trkpt>
      <trkpt lat="39.8501230" lon="-6.0906370">
        <ele>393.6</ele>
        <time>2019-07-09T14:05:17Z</time>
      </trkpt>
      <trkpt lat="39.8501090" lon="-6.0906130">
        <ele>394.0</ele>
        <time>2019-07-09T14:05:19Z</time>
      </trkpt>
      <trkpt lat="39.8500900" lon="-6.0905880">
        <ele>394.4</ele>
        <time>2019-07-09T14:05:21Z</time>
      </trkpt>
      <trkpt lat="39.8500840" lon="-6.0905740">
        <ele>394.6</ele>
        <time>2019-07-09T14:05:22Z</time>
      </trkpt>
      <trkpt lat="39.8500620" lon="-6.0905360">
        <ele>395.2</ele>
        <time>2019-07-09T14:05:25Z</time>
      </trkpt>
      <trkpt lat="39.8500370" lon="-6.0904980">
        <ele>395.8</ele>
        <time>2019-07-09T14:05:28Z</time>
      </trkpt>
      <trkpt lat="39.8500330" lon="-6.0904850">
        <ele>396.0</ele>
        <time>2019-07-09T14:05:29Z</time>
      </trkpt>
      <trkpt lat="39.8500060" lon="-6.0904500">
        <ele>396.8</ele>
        <time>2019-07-09T14:05:32Z</time>
      </trkpt>
      <trkpt lat="39.8499950" lon="-6.0904400">
        <ele>397.0</ele>
        <time>2019-07-09T14:05:33Z</time>
      </trkpt>
      <trkpt lat="39.8499540" lon="-6.0903670">
        <ele>398.0</ele>
        <time>2019-07-09T14:05:39Z</time>
      </trkpt>
      <trkpt lat="39.8499430" lon="-6.0903080">
        <ele>399.0</ele>
        <time>2019-07-09T14:05:43Z</time>
      </trkpt>
      <trkpt lat="39.8499420" lon="-6.0902960">
        <ele>399.0</ele>
        <time>2019-07-09T14:05:44Z</time>
      </trkpt>
      <trkpt lat="39.8499370" lon="-6.0902840">
        <ele>399.2</ele>
        <time>2019-07-09T14:05:45Z</time>
      </trkpt>
      <trkpt lat="39.8499300" lon="-6.0902690">
        <ele>399.6</ele>
        <time>2019-07-09T14:05:46Z</time>
      </trkpt>
      <trkpt lat="39.8499170" lon="-6.0902370">
        <ele>400.2</ele>
        <time>2019-07-09T14:05:48Z</time>
      </trkpt>
      <trkpt lat="39.8499030" lon="-6.0901700">
        <ele>401.0</ele>
        <time>2019-07-09T14:05:53Z</time>
      </trkpt>
      <trkpt lat="39.8498990" lon="-6.0901570">
        <ele>401.2</ele>
        <time>2019-07-09T14:05:54Z</time>
      </trkpt>
      <trkpt lat="39.8498920" lon="-6.0900990">
        <ele>402.2</ele>
        <time>2019-07-09T14:05:59Z</time>
      </trkpt>
      <trkpt lat="39.8498840" lon="-6.0900890">
        <ele>402.2</ele>
        <time>2019-07-09T14:06:00Z</time>
      </trkpt>
      <trkpt lat="39.8498410" lon="-6.0900250">
        <ele>403.4</ele>
        <time>2019-07-09T14:06:05Z</time>
      </trkpt>
      <trkpt lat="39.8498310" lon="-6.0900140">
        <ele>403.6</ele>
        <time>2019-07-09T14:06:06Z</time>
      </trkpt>
      <trkpt lat="39.8498140" lon="-6.0899910">
        <ele>404.2</ele>
        <time>2019-07-09T14:06:08Z</time>
      </trkpt>
      <trkpt lat="39.8498030" lon="-6.0899830">
        <ele>404.4</ele>
        <time>2019-07-09T14:06:09Z</time>
      </trkpt>
      <trkpt lat="39.8497650" lon="-6.0899600">
        <ele>405.6</ele>
        <time>2019-07-09T14:06:12Z</time>
      </trkpt>
      <trkpt lat="39.8497550" lon="-6.0899500">
        <ele>405.8</ele>
        <time>2019-07-09T14:06:13Z</time>
      </trkpt>
      <trkpt lat="39.8496900" lon="-6.0899160">
        <ele>407.2</ele>
        <time>2019-07-09T14:06:19Z</time>
      </trkpt>
      <trkpt lat="39.8496430" lon="-6.0899210">
        <ele>407.6</ele>
        <time>2019-07-09T14:06:23Z</time>
      </trkpt>
      <trkpt lat="39.8496240" lon="-6.0899570">
        <ele>408.2</ele>
        <time>2019-07-09T14:06:26Z</time>
      </trkpt>
      <trkpt lat="39.8496120" lon="-6.0900290">
        <ele>409.4</ele>
        <time>2019-07-09T14:06:31Z</time>
      </trkpt>
      <trkpt lat="39.8496080" lon="-6.0900580">
        <ele>409.6</ele>
        <time>2019-07-09T14:06:33Z</time>
      </trkpt>
      <trkpt lat="39.8496030" lon="-6.0900840">
        <ele>410.0</ele>
        <time>2019-07-09T14:06:35Z</time>
      </trkpt>
      <trkpt lat="39.8496010" lon="-6.0901010">
        <ele>410.4</ele>
        <time>2019-07-09T14:06:36Z</time>
      </trkpt>
      <trkpt lat="39.8495990" lon="-6.0901480">
        <ele>411.0</ele>
        <time>2019-07-09T14:06:39Z</time>
      </trkpt>
      <trkpt lat="39.8495940" lon="-6.0901630">
        <ele>411.2</ele>
        <time>2019-07-09T14:06:40Z</time>
      </trkpt>
      <trkpt lat="39.8495810" lon="-6.0901890">
        <ele>411.4</ele>
        <time>2019-07-09T14:06:42Z</time>
      </trkpt>
      <trkpt lat="39.8495520" lon="-6.0902400">
        <ele>412.6</ele>
        <time>2019-07-09T14:06:46Z</time>
      </trkpt>
      <trkpt lat="39.8495370" lon="-6.0902790">
        <ele>413.4</ele>
        <time>2019-07-09T14:06:49Z</time>
      </trkpt>
      <trkpt lat="39.8495230" lon="-6.0903080">
        <ele>413.6</ele>
        <time>2019-07-09T14:06:51Z</time>
      </trkpt>
      <trkpt lat="39.8495070" lon="-6.0903380">
        <ele>414.0</ele>
        <time>2019-07-09T14:06:53Z</time>
      </trkpt>
      <trkpt lat="39.8494890" lon="-6.0903780">
        <ele>414.6</ele>
        <time>2019-07-09T14:06:56Z</time>
      </trkpt>
      <trkpt lat="39.8494840" lon="-6.0903930">
        <ele>414.6</ele>
        <time>2019-07-09T14:06:57Z</time>
      </trkpt>
      <trkpt lat="39.8494800" lon="-6.0904100">
        <ele>414.8</ele>
        <time>2019-07-09T14:06:58Z</time>
      </trkpt>
      <trkpt lat="39.8494540" lon="-6.0904660">
        <ele>415.6</ele>
        <time>2019-07-09T14:07:02Z</time>
      </trkpt>
      <trkpt lat="39.8494440" lon="-6.0904980">
        <ele>416.4</ele>
        <time>2019-07-09T14:07:04Z</time>
      </trkpt>
      <trkpt lat="39.8494360" lon="-6.0905380">
        <ele>416.8</ele>
        <time>2019-07-09T14:07:07Z</time>
      </trkpt>
      <trkpt lat="39.8494260" lon="-6.0905570">
        <ele>417.0</ele>
        <time>2019-07-09T14:07:09Z</time>
      </trkpt>
      <trkpt lat="39.8494160" lon="-6.0905670">
        <ele>417.2</ele>
        <time>2019-07-09T14:07:10Z</time>
      </trkpt>
      <trkpt lat="39.8493920" lon="-6.0906040">
        <ele>417.8</ele>
        <time>2019-07-09T14:07:13Z</time>
      </trkpt>
      <trkpt lat="39.8493860" lon="-6.0906170">
        <ele>418.0</ele>
        <time>2019-07-09T14:07:14Z</time>
      </trkpt>
      <trkpt lat="39.8493810" lon="-6.0906320">
        <ele>418.0</ele>
        <time>2019-07-09T14:07:15Z</time>
      </trkpt>
      <trkpt lat="39.8493690" lon="-6.0906620">
        <ele>418.2</ele>
        <time>2019-07-09T14:07:17Z</time>
      </trkpt>
      <trkpt lat="39.8493600" lon="-6.0906960">
        <ele>418.6</ele>
        <time>2019-07-09T14:07:19Z</time>
      </trkpt>
      <trkpt lat="39.8493570" lon="-6.0907120">
        <ele>419.0</ele>
        <time>2019-07-09T14:07:20Z</time>
      </trkpt>
      <trkpt lat="39.8493560" lon="-6.0907280">
        <ele>419.4</ele>
        <time>2019-07-09T14:07:21Z</time>
      </trkpt>
      <trkpt lat="39.8493500" lon="-6.0907430">
        <ele>419.6</ele>
        <time>2019-07-09T14:07:22Z</time>
      </trkpt>
      <trkpt lat="39.8493240" lon="-6.0907930">
        <ele>419.8</ele>
        <time>2019-07-09T14:07:25Z</time>
      </trkpt>
      <trkpt lat="39.8493180" lon="-6.0908100">
        <ele>420.2</ele>
        <time>2019-07-09T14:07:26Z</time>
      </trkpt>
      <trkpt lat="39.8493080" lon="-6.0908620">
        <ele>421.4</ele>
        <time>2019-07-09T14:07:29Z</time>
      </trkpt>
      <trkpt lat="39.8492980" lon="-6.0908780">
        <ele>421.4</ele>
        <time>2019-07-09T14:07:30Z</time>
      </trkpt>
      <trkpt lat="39.8492770" lon="-6.0909310">
        <ele>421.8</ele>
        <time>2019-07-09T14:07:33Z</time>
      </trkpt>
      <trkpt lat="39.8492730" lon="-6.0909450">
        <ele>422.0</ele>
        <time>2019-07-09T14:07:34Z</time>
      </trkpt>
      <trkpt lat="39.8492600" lon="-6.0909820">
        <ele>422.4</ele>
        <time>2019-07-09T14:07:36Z</time>
      </trkpt>
      <trkpt lat="39.8492310" lon="-6.0910830">
        <ele>423.6</ele>
        <time>2019-07-09T14:07:41Z</time>
      </trkpt>
      <trkpt lat="39.8491740" lon="-6.0911990">
        <ele>424.6</ele>
        <time>2019-07-09T14:07:47Z</time>
      </trkpt>
      <trkpt lat="39.8491570" lon="-6.0912420">
        <ele>425.0</ele>
        <time>2019-07-09T14:07:49Z</time>
      </trkpt>
      <trkpt lat="39.8491350" lon="-6.0913030">
        <ele>425.2</ele>
        <time>2019-07-09T14:07:52Z</time>
      </trkpt>
      <trkpt lat="39.8491220" lon="-6.0913360">
        <ele>425.6</ele>
        <time>2019-07-09T14:07:54Z</time>
      </trkpt>
      <trkpt lat="39.8491200" lon="-6.0913530">
        <ele>426.0</ele>
        <time>2019-07-09T14:07:55Z</time>
      </trkpt>
      <trkpt lat="39.8490950" lon="-6.0914230">
        <ele>426.4</ele>
        <time>2019-07-09T14:07:59Z</time>
      </trkpt>
      <trkpt lat="39.8490880" lon="-6.0914400">
        <ele>426.2</ele>
        <time>2019-07-09T14:08:00Z</time>
      </trkpt>
      <trkpt lat="39.8490700" lon="-6.0914970">
        <ele>426.6</ele>
        <time>2019-07-09T14:08:03Z</time>
      </trkpt>
      <trkpt lat="39.8490490" lon="-6.0915320">
        <ele>427.0</ele>
        <time>2019-07-09T14:08:05Z</time>
      </trkpt>
      <trkpt lat="39.8490380" lon="-6.0915500">
        <ele>427.0</ele>
        <time>2019-07-09T14:08:06Z</time>
      </trkpt>
      <trkpt lat="39.8489780" lon="-6.0916490">
        <ele>427.6</ele>
        <time>2019-07-09T14:08:12Z</time>
      </trkpt>
      <trkpt lat="39.8489730" lon="-6.0916670">
        <ele>427.6</ele>
        <time>2019-07-09T14:08:13Z</time>
      </trkpt>
      <trkpt lat="39.8489210" lon="-6.0917490">
        <ele>428.4</ele>
        <time>2019-07-09T14:08:18Z</time>
      </trkpt>
      <trkpt lat="39.8488950" lon="-6.0917890">
        <ele>428.6</ele>
        <time>2019-07-09T14:08:20Z</time>
      </trkpt>
      <trkpt lat="39.8488840" lon="-6.0918140">
        <ele>428.8</ele>
        <time>2019-07-09T14:08:21Z</time>
      </trkpt>
      <trkpt lat="39.8488270" lon="-6.0919230">
        <ele>429.2</ele>
        <time>2019-07-09T14:08:25Z</time>
      </trkpt>
      <trkpt lat="39.8487850" lon="-6.0920250">
        <ele>430.0</ele>
        <time>2019-07-09T14:08:29Z</time>
      </trkpt>
      <trkpt lat="39.8487760" lon="-6.0920500">
        <ele>430.2</ele>
        <time>2019-07-09T14:08:30Z</time>
      </trkpt>
      <trkpt lat="39.8487660" lon="-6.0920710">
        <ele>430.4</ele>
        <time>2019-07-09T14:08:31Z</time>
      </trkpt>
      <trkpt lat="39.8487220" lon="-6.0921930">
        <ele>431.0</ele>
        <time>2019-07-09T14:08:36Z</time>
      </trkpt>
      <trkpt lat="39.8486630" lon="-6.0923140">
        <ele>432.4</ele>
        <time>2019-07-09T14:08:41Z</time>
      </trkpt>
      <trkpt lat="39.8486530" lon="-6.0923420">
        <ele>432.8</ele>
        <time>2019-07-09T14:08:42Z</time>
      </trkpt>
      <trkpt lat="39.8486130" lon="-6.0924800">
        <ele>433.0</ele>
        <time>2019-07-09T14:08:47Z</time>
      </trkpt>
      <trkpt lat="39.8486040" lon="-6.0925080">
        <ele>433.0</ele>
        <time>2019-07-09T14:08:48Z</time>
      </trkpt>
      <trkpt lat="39.8485820" lon="-6.0925990">
        <ele>433.4</ele>
        <time>2019-07-09T14:08:51Z</time>
      </trkpt>
      <trkpt lat="39.8485590" lon="-6.0927000">
        <ele>434.0</ele>
        <time>2019-07-09T14:08:54Z</time>
      </trkpt>
      <trkpt lat="39.8485350" lon="-6.0927900">
        <ele>434.8</ele>
        <time>2019-07-09T14:08:57Z</time>
      </trkpt>
      <trkpt lat="39.8485060" lon="-6.0929090">
        <ele>435.2</ele>
        <time>2019-07-09T14:09:01Z</time>
      </trkpt>
      <trkpt lat="39.8484930" lon="-6.0929690">
        <ele>435.8</ele>
        <time>2019-07-09T14:09:03Z</time>
      </trkpt>
      <trkpt lat="39.8484560" lon="-6.0931060">
        <ele>436.4</ele>
        <time>2019-07-09T14:09:08Z</time>
      </trkpt>
      <trkpt lat="39.8484440" lon="-6.0932120">
        <ele>437.0</ele>
        <time>2019-07-09T14:09:12Z</time>
      </trkpt>
      <trkpt lat="39.8484270" lon="-6.0932850">
        <ele>437.6</ele>
        <time>2019-07-09T14:09:15Z</time>
      </trkpt>
      <trkpt lat="39.8484180" lon="-6.0933090">
        <ele>438.2</ele>
        <time>2019-07-09T14:09:16Z</time>
      </trkpt>
      <trkpt lat="39.8483870" lon="-6.0933850">
        <ele>439.0</ele>
        <time>2019-07-09T14:09:19Z</time>
      </trkpt>
      <trkpt lat="39.8483780" lon="-6.0934100">
        <ele>439.0</ele>
        <time>2019-07-09T14:09:20Z</time>
      </trkpt>
      <trkpt lat="39.8483710" lon="-6.0934360">
        <ele>439.4</ele>
        <time>2019-07-09T14:09:21Z</time>
      </trkpt>
      <trkpt lat="39.8483080" lon="-6.0935830">
        <ele>439.8</ele>
        <time>2019-07-09T14:09:26Z</time>
      </trkpt>
      <trkpt lat="39.8481980" lon="-6.0937890">
        <ele>439.8</ele>
        <time>2019-07-09T14:09:32Z</time>
      </trkpt>
      <trkpt lat="39.8480690" lon="-6.0939600">
        <ele>440.2</ele>
        <time>2019-07-09T14:09:38Z</time>
      </trkpt>
      <trkpt lat="39.8480510" lon="-6.0939900">
        <ele>440.2</ele>
        <time>2019-07-09T14:09:39Z</time>
      </trkpt>
      <trkpt lat="39.8479740" lon="-6.0941650">
        <ele>441.2</ele>
        <time>2019-07-09T14:09:44Z</time>
      </trkpt>
      <trkpt lat="39.8479520" lon="-6.0942420">
        <ele>441.4</ele>
        <time>2019-07-09T14:09:46Z</time>
      </trkpt>
      <trkpt lat="39.8479320" lon="-6.0943740">
        <ele>441.8</ele>
        <time>2019-07-09T14:09:49Z</time>
      </trkpt>
      <trkpt lat="39.8479150" lon="-6.0945910">
        <ele>442.4</ele>
        <time>2019-07-09T14:09:54Z</time>
      </trkpt>
      <trkpt lat="39.8479100" lon="-6.0946240">
        <ele>442.6</ele>
        <time>2019-07-09T14:09:55Z</time>
      </trkpt>
      <trkpt lat="39.8478990" lon="-6.0946580">
        <ele>442.8</ele>
        <time>2019-07-09T14:09:56Z</time>
      </trkpt>
      <trkpt lat="39.8478740" lon="-6.0947580">
        <ele>443.0</ele>
        <time>2019-07-09T14:09:59Z</time>
      </trkpt>
      <trkpt lat="39.8478330" lon="-6.0948930">
        <ele>443.6</ele>
        <time>2019-07-09T14:10:03Z</time>
      </trkpt>
      <trkpt lat="39.8478020" lon="-6.0950040">
        <ele>444.6</ele>
        <time>2019-07-09T14:10:06Z</time>
      </trkpt>
      <trkpt lat="39.8477880" lon="-6.0950430">
        <ele>444.6</ele>
        <time>2019-07-09T14:10:07Z</time>
      </trkpt>
      <trkpt lat="39.8476830" lon="-6.0953160">
        <ele>444.4</ele>
        <time>2019-07-09T14:10:13Z</time>
      </trkpt>
      <trkpt lat="39.8476280" lon="-6.0954800">
        <ele>444.6</ele>
        <time>2019-07-09T14:10:16Z</time>
      </trkpt>
      <trkpt lat="39.8475870" lon="-6.0955680">
        <ele>444.8</ele>
        <time>2019-07-09T14:10:18Z</time>
      </trkpt>
      <trkpt lat="39.8474860" lon="-6.0958170">
        <ele>445.4</ele>
        <time>2019-07-09T14:10:24Z</time>
      </trkpt>
      <trkpt lat="39.8474020" lon="-6.0960000">
        <ele>446.2</ele>
        <time>2019-07-09T14:10:29Z</time>
      </trkpt>
      <trkpt lat="39.8473690" lon="-6.0960570">
        <ele>446.4</ele>
        <time>2019-07-09T14:10:31Z</time>
      </trkpt>
      <trkpt lat="39.8473370" lon="-6.0961320">
        <ele>447.2</ele>
        <time>2019-07-09T14:10:34Z</time>
      </trkpt>
      <trkpt lat="39.8473220" lon="-6.0961550">
        <ele>447.6</ele>
        <time>2019-07-09T14:10:35Z</time>
      </trkpt>
      <trkpt lat="39.8472700" lon="-6.0962670">
        <ele>448.6</ele>
        <time>2019-07-09T14:10:39Z</time>
      </trkpt>
      <trkpt lat="39.8472620" lon="-6.0962990">
        <ele>448.8</ele>
        <time>2019-07-09T14:10:40Z</time>
      </trkpt>
      <trkpt lat="39.8472300" lon="-6.0964450">
        <ele>449.6</ele>
        <time>2019-07-09T14:10:44Z</time>
      </trkpt>
      <trkpt lat="39.8471880" lon="-6.0966150">
        <ele>449.8</ele>
        <time>2019-07-09T14:10:48Z</time>
      </trkpt>
      <trkpt lat="39.8471280" lon="-6.0969680">
        <ele>450.0</ele>
        <time>2019-07-09T14:10:55Z</time>
      </trkpt>
      <trkpt lat="39.8470890" lon="-6.0972020">
        <ele>449.6</ele>
        <time>2019-07-09T14:10:59Z</time>
      </trkpt>
      <trkpt lat="39.8470510" lon="-6.0973080">
        <ele>449.2</ele>
        <time>2019-07-09T14:11:01Z</time>
      </trkpt>
      <trkpt lat="39.8469900" lon="-6.0974370">
        <ele>449.2</ele>
        <time>2019-07-09T14:11:04Z</time>
      </trkpt>
      <trkpt lat="39.8469230" lon="-6.0975420">
        <ele>449.2</ele>
        <time>2019-07-09T14:11:07Z</time>
      </trkpt>
      <trkpt lat="39.8468460" lon="-6.0976260">
        <ele>449.8</ele>
        <time>2019-07-09T14:11:10Z</time>
      </trkpt>
      <trkpt lat="39.8468200" lon="-6.0976490">
        <ele>449.8</ele>
        <time>2019-07-09T14:11:11Z</time>
      </trkpt>
      <trkpt lat="39.8467720" lon="-6.0976930">
        <ele>449.8</ele>
        <time>2019-07-09T14:11:13Z</time>
      </trkpt>
      <trkpt lat="39.8467470" lon="-6.0977130">
        <ele>449.8</ele>
        <time>2019-07-09T14:11:14Z</time>
      </trkpt>
      <trkpt lat="39.8466180" lon="-6.0978170">
        <ele>449.6</ele>
        <time>2019-07-09T14:11:19Z</time>
      </trkpt>
      <trkpt lat="39.8465960" lon="-6.0978470">
        <ele>449.6</ele>
        <time>2019-07-09T14:11:20Z</time>
      </trkpt>
      <trkpt lat="39.8465420" lon="-6.0979520">
        <ele>449.6</ele>
        <time>2019-07-09T14:11:23Z</time>
      </trkpt>
      <trkpt lat="39.8464910" lon="-6.0980200">
        <ele>449.4</ele>
        <time>2019-07-09T14:11:25Z</time>
      </trkpt>
      <trkpt lat="39.8464650" lon="-6.0980640">
        <ele>449.2</ele>
        <time>2019-07-09T14:11:26Z</time>
      </trkpt>
      <trkpt lat="39.8464150" lon="-6.0981610">
        <ele>448.6</ele>
        <time>2019-07-09T14:11:28Z</time>
      </trkpt>
      <trkpt lat="39.8463910" lon="-6.0982130">
        <ele>448.6</ele>
        <time>2019-07-09T14:11:29Z</time>
      </trkpt>
      <trkpt lat="39.8463640" lon="-6.0982670">
        <ele>448.4</ele>
        <time>2019-07-09T14:11:30Z</time>
      </trkpt>
      <trkpt lat="39.8462920" lon="-6.0984450">
        <ele>447.8</ele>
        <time>2019-07-09T14:11:33Z</time>
      </trkpt>
      <trkpt lat="39.8462720" lon="-6.0985060">
        <ele>447.8</ele>
        <time>2019-07-09T14:11:34Z</time>
      </trkpt>
      <trkpt lat="39.8462330" lon="-6.0986350">
        <ele>447.6</ele>
        <time>2019-07-09T14:11:36Z</time>
      </trkpt>
      <trkpt lat="39.8462120" lon="-6.0987020">
        <ele>447.4</ele>
        <time>2019-07-09T14:11:37Z</time>
      </trkpt>
      <trkpt lat="39.8460920" lon="-6.0991040">
        <ele>447.0</ele>
        <time>2019-07-09T14:11:43Z</time>
      </trkpt>
      <trkpt lat="39.8460210" lon="-6.0993110">
        <ele>446.2</ele>
        <time>2019-07-09T14:11:46Z</time>
      </trkpt>
      <trkpt lat="39.8459550" lon="-6.0995170">
        <ele>445.8</ele>
        <time>2019-07-09T14:11:49Z</time>
      </trkpt>
      <trkpt lat="39.8459000" lon="-6.0996930">
        <ele>445.2</ele>
        <time>2019-07-09T14:11:52Z</time>
      </trkpt>
      <trkpt lat="39.8458780" lon="-6.0998030">
        <ele>445.2</ele>
        <time>2019-07-09T14:11:54Z</time>
      </trkpt>
      <trkpt lat="39.8458580" lon="-6.0999080">
        <ele>445.0</ele>
        <time>2019-07-09T14:11:56Z</time>
      </trkpt>
      <trkpt lat="39.8458470" lon="-6.1000200">
        <ele>445.0</ele>
        <time>2019-07-09T14:11:58Z</time>
      </trkpt>
      <trkpt lat="39.8458300" lon="-6.1001340">
        <ele>445.0</ele>
        <time>2019-07-09T14:12:00Z</time>
      </trkpt>
      <trkpt lat="39.8457460" lon="-6.1005070">
        <ele>444.8</ele>
        <time>2019-07-09T14:12:07Z</time>
      </trkpt>
      <trkpt lat="39.8457050" lon="-6.1007060">
        <ele>445.4</ele>
        <time>2019-07-09T14:12:11Z</time>
      </trkpt>
      <trkpt lat="39.8456950" lon="-6.1007980">
        <ele>446.2</ele>
        <time>2019-07-09T14:12:13Z</time>
      </trkpt>
      <trkpt lat="39.8456920" lon="-6.1008400">
        <ele>446.4</ele>
        <time>2019-07-09T14:12:14Z</time>
      </trkpt>
      <trkpt lat="39.8456830" lon="-6.1009150">
        <ele>446.6</ele>
        <time>2019-07-09T14:12:16Z</time>
      </trkpt>
      <trkpt lat="39.8456630" lon="-6.1010330">
        <ele>446.8</ele>
        <time>2019-07-09T14:12:19Z</time>
      </trkpt>
      <trkpt lat="39.8456320" lon="-6.1013140">
        <ele>446.8</ele>
        <time>2019-07-09T14:12:25Z</time>
      </trkpt>
      <trkpt lat="39.8456240" lon="-6.1016030">
        <ele>447.2</ele>
        <time>2019-07-09T14:12:31Z</time>
      </trkpt>
      <trkpt lat="39.8456230" lon="-6.1016500">
        <ele>447.4</ele>
        <time>2019-07-09T14:12:32Z</time>
      </trkpt>
      <trkpt lat="39.8456130" lon="-6.1018490">
        <ele>447.8</ele>
        <time>2019-07-09T14:12:36Z</time>
      </trkpt>
      <trkpt lat="39.8455870" lon="-6.1020310">
        <ele>447.6</ele>
        <time>2019-07-09T14:12:39Z</time>
      </trkpt>
      <trkpt lat="39.8455480" lon="-6.1021570">
        <ele>447.0</ele>
        <time>2019-07-09T14:12:41Z</time>
      </trkpt>
      <trkpt lat="39.8455230" lon="-6.1022180">
        <ele>446.8</ele>
        <time>2019-07-09T14:12:42Z</time>
      </trkpt>
      <trkpt lat="39.8454750" lon="-6.1023460">
        <ele>446.4</ele>
        <time>2019-07-09T14:12:44Z</time>
      </trkpt>
      <trkpt lat="39.8454270" lon="-6.1024850">
        <ele>446.0</ele>
        <time>2019-07-09T14:12:46Z</time>
      </trkpt>
      <trkpt lat="39.8453530" lon="-6.1026950">
        <ele>445.6</ele>
        <time>2019-07-09T14:12:49Z</time>
      </trkpt>
      <trkpt lat="39.8452600" lon="-6.1029910">
        <ele>445.2</ele>
        <time>2019-07-09T14:12:53Z</time>
      </trkpt>
      <trkpt lat="39.8452140" lon="-6.1031480">
        <ele>444.8</ele>
        <time>2019-07-09T14:12:55Z</time>
      </trkpt>
      <trkpt lat="39.8451710" lon="-6.1033090">
        <ele>444.4</ele>
        <time>2019-07-09T14:12:57Z</time>
      </trkpt>
      <trkpt lat="39.8451490" lon="-6.1033880">
        <ele>444.0</ele>
        <time>2019-07-09T14:12:58Z</time>
      </trkpt>
      <trkpt lat="39.8451270" lon="-6.1034630">
        <ele>443.4</ele>
        <time>2019-07-09T14:12:59Z</time>
      </trkpt>
      <trkpt lat="39.8451060" lon="-6.1035350">
        <ele>442.8</ele>
        <time>2019-07-09T14:13:00Z</time>
      </trkpt>
      <trkpt lat="39.8450600" lon="-6.1036890">
        <ele>441.8</ele>
        <time>2019-07-09T14:13:02Z</time>
      </trkpt>
      <trkpt lat="39.8450290" lon="-6.1038380">
        <ele>440.8</ele>
        <time>2019-07-09T14:13:04Z</time>
      </trkpt>
      <trkpt lat="39.8450180" lon="-6.1039060">
        <ele>440.2</ele>
        <time>2019-07-09T14:13:05Z</time>
      </trkpt>
      <trkpt lat="39.8450090" lon="-6.1039680">
        <ele>439.8</ele>
        <time>2019-07-09T14:13:06Z</time>
      </trkpt>
      <trkpt lat="39.8450020" lon="-6.1040230">
        <ele>438.8</ele>
        <time>2019-07-09T14:13:07Z</time>
      </trkpt>
      <trkpt lat="39.8449920" lon="-6.1040750">
        <ele>438.0</ele>
        <time>2019-07-09T14:13:08Z</time>
      </trkpt>
      <trkpt lat="39.8449740" lon="-6.1041280">
        <ele>437.6</ele>
        <time>2019-07-09T14:13:09Z</time>
      </trkpt>
      <trkpt lat="39.8448840" lon="-6.1042600">
        <ele>436.6</ele>
        <time>2019-07-09T14:13:12Z</time>
      </trkpt>
      <trkpt lat="39.8448470" lon="-6.1042920">
        <ele>436.4</ele>
        <time>2019-07-09T14:13:13Z</time>
      </trkpt>
      <trkpt lat="39.8448080" lon="-6.1043240">
        <ele>436.4</ele>
        <time>2019-07-09T14:13:14Z</time>
      </trkpt>
      <trkpt lat="39.8447740" lon="-6.1043570">
        <ele>436.2</ele>
        <time>2019-07-09T14:13:15Z</time>
      </trkpt>
      <trkpt lat="39.8446840" lon="-6.1044700">
        <ele>436.0</ele>
        <time>2019-07-09T14:13:18Z</time>
      </trkpt>
      <trkpt lat="39.8446580" lon="-6.1045170">
        <ele>435.8</ele>
        <time>2019-07-09T14:13:19Z</time>
      </trkpt>
      <trkpt lat="39.8445780" lon="-6.1047470">
        <ele>435.6</ele>
        <time>2019-07-09T14:13:23Z</time>
      </trkpt>
      <trkpt lat="39.8445700" lon="-6.1048110">
        <ele>435.2</ele>
        <time>2019-07-09T14:13:24Z</time>
      </trkpt>
      <trkpt lat="39.8445500" lon="-6.1050070">
        <ele>434.2</ele>
        <time>2019-07-09T14:13:27Z</time>
      </trkpt>
      <trkpt lat="39.8445200" lon="-6.1052020">
        <ele>432.8</ele>
        <time>2019-07-09T14:13:30Z</time>
      </trkpt>
      <trkpt lat="39.8444140" lon="-6.1053030">
        <ele>432.2</ele>
        <time>2019-07-09T14:13:33Z</time>
      </trkpt>
      <trkpt lat="39.8443170" lon="-6.1053680">
        <ele>432.4</ele>
        <time>2019-07-09T14:13:36Z</time>
      </trkpt>
      <trkpt lat="39.8442960" lon="-6.1053940">
        <ele>432.4</ele>
        <time>2019-07-09T14:13:37Z</time>
      </trkpt>
      <trkpt lat="39.8442610" lon="-6.1054510">
        <ele>433.0</ele>
        <time>2019-07-09T14:13:39Z</time>
      </trkpt>
      <trkpt lat="39.8442190" lon="-6.1055620">
        <ele>433.4</ele>
        <time>2019-07-09T14:13:42Z</time>
      </trkpt>
      <trkpt lat="39.8442070" lon="-6.1056050">
        <ele>433.6</ele>
        <time>2019-07-09T14:13:43Z</time>
      </trkpt>
      <trkpt lat="39.8441750" lon="-6.1056920">
        <ele>433.8</ele>
        <time>2019-07-09T14:13:45Z</time>
      </trkpt>
      <trkpt lat="39.8441510" lon="-6.1057330">
        <ele>434.0</ele>
        <time>2019-07-09T14:13:46Z</time>
      </trkpt>
      <trkpt lat="39.8440990" lon="-6.1058200">
        <ele>433.8</ele>
        <time>2019-07-09T14:13:48Z</time>
      </trkpt>
      <trkpt lat="39.8439660" lon="-6.1060700">
        <ele>433.0</ele>
        <time>2019-07-09T14:13:54Z</time>
      </trkpt>
      <trkpt lat="39.8439540" lon="-6.1062030">
        <ele>432.4</ele>
        <time>2019-07-09T14:13:57Z</time>
      </trkpt>
      <trkpt lat="39.8439530" lon="-6.1062460">
        <ele>432.0</ele>
        <time>2019-07-09T14:13:58Z</time>
      </trkpt>
      <trkpt lat="39.8439470" lon="-6.1062900">
        <ele>431.4</ele>
        <time>2019-07-09T14:13:59Z</time>
      </trkpt>
      <trkpt lat="39.8439540" lon="-6.1064000">
        <ele>430.6</ele>
        <time>2019-07-09T14:14:02Z</time>
      </trkpt>
      <trkpt lat="39.8439670" lon="-6.1064710">
        <ele>430.2</ele>
        <time>2019-07-09T14:14:04Z</time>
      </trkpt>
      <trkpt lat="39.8439960" lon="-6.1065950">
        <ele>430.2</ele>
        <time>2019-07-09T14:14:07Z</time>
      </trkpt>
      <trkpt lat="39.8440020" lon="-6.1067460">
        <ele>429.0</ele>
        <time>2019-07-09T14:14:12Z</time>
      </trkpt>
      <trkpt lat="39.8440070" lon="-6.1067650">
        <ele>428.4</ele>
        <time>2019-07-09T14:14:14Z</time>
      </trkpt>
      <trkpt lat="39.8440110" lon="-6.1068210">
        <ele>428.2</ele>
        <time>2019-07-09T14:14:16Z</time>
      </trkpt>
      <trkpt lat="39.8440100" lon="-6.1068690">
        <ele>427.8</ele>
        <time>2019-07-09T14:14:18Z</time>
      </trkpt>
      <trkpt lat="39.8440150" lon="-6.1069040">
        <ele>427.2</ele>
        <time>2019-07-09T14:14:20Z</time>
      </trkpt>
      <trkpt lat="39.8440180" lon="-6.1069420">
        <ele>426.6</ele>
        <time>2019-07-09T14:14:22Z</time>
      </trkpt>
      <trkpt lat="39.8440180" lon="-6.1069840">
        <ele>425.8</ele>
        <time>2019-07-09T14:14:25Z</time>
      </trkpt>
      <trkpt lat="39.8440180" lon="-6.1069980">
        <ele>425.6</ele>
        <time>2019-07-09T14:14:26Z</time>
      </trkpt>
      <trkpt lat="39.8440290" lon="-6.1070870">
        <ele>424.8</ele>
        <time>2019-07-09T14:14:32Z</time>
      </trkpt>
      <trkpt lat="39.8440330" lon="-6.1071060">
        <ele>424.6</ele>
        <time>2019-07-09T14:14:33Z</time>
      </trkpt>
      <trkpt lat="39.8440410" lon="-6.1071720">
        <ele>423.8</ele>
        <time>2019-07-09T14:14:36Z</time>
      </trkpt>
      <trkpt lat="39.8440410" lon="-6.1071940">
        <ele>423.6</ele>
        <time>2019-07-09T14:14:37Z</time>
      </trkpt>
      <trkpt lat="39.8440360" lon="-6.1072920">
        <ele>423.2</ele>
        <time>2019-07-09T14:14:40Z</time>
      </trkpt>
      <trkpt lat="39.8440410" lon="-6.1073300">
        <ele>423.2</ele>
        <time>2019-07-09T14:14:41Z</time>
      </trkpt>
      <trkpt lat="39.8440770" lon="-6.1074540">
        <ele>423.2</ele>
        <time>2019-07-09T14:14:44Z</time>
      </trkpt>
      <trkpt lat="39.8441310" lon="-6.1076220">
        <ele>423.0</ele>
        <time>2019-07-09T14:14:48Z</time>
      </trkpt>
      <trkpt lat="39.8440770" lon="-6.1077690">
        <ele>422.8</ele>
        <time>2019-07-09T14:14:52Z</time>
      </trkpt>
      <trkpt lat="39.8440570" lon="-6.1078870">
        <ele>422.4</ele>
        <time>2019-07-09T14:14:55Z</time>
      </trkpt>
      <trkpt lat="39.8440590" lon="-6.1079220">
        <ele>422.4</ele>
        <time>2019-07-09T14:14:56Z</time>
      </trkpt>
      <trkpt lat="39.8440680" lon="-6.1080040">
        <ele>421.4</ele>
        <time>2019-07-09T14:14:59Z</time>
      </trkpt>
      <trkpt lat="39.8440760" lon="-6.1080590">
        <ele>420.8</ele>
        <time>2019-07-09T14:15:01Z</time>
      </trkpt>
      <trkpt lat="39.8440910" lon="-6.1081990">
        <ele>420.0</ele>
        <time>2019-07-09T14:15:05Z</time>
      </trkpt>
      <trkpt lat="39.8440970" lon="-6.1082370">
        <ele>419.8</ele>
        <time>2019-07-09T14:15:06Z</time>
      </trkpt>
      <trkpt lat="39.8440890" lon="-6.1084050">
        <ele>419.2</ele>
        <time>2019-07-09T14:15:11Z</time>
      </trkpt>
      <trkpt lat="39.8440850" lon="-6.1085020">
        <ele>419.0</ele>
        <time>2019-07-09T14:15:14Z</time>
      </trkpt>
      <trkpt lat="39.8440730" lon="-6.1086490">
        <ele>419.0</ele>
        <time>2019-07-09T14:15:18Z</time>
      </trkpt>
      <trkpt lat="39.8440260" lon="-6.1089150">
        <ele>418.6</ele>
        <time>2019-07-09T14:15:25Z</time>
      </trkpt>
      <trkpt lat="39.8440140" lon="-6.1091620">
        <ele>418.4</ele>
        <time>2019-07-09T14:15:31Z</time>
      </trkpt>
      <trkpt lat="39.8439950" lon="-6.1093530">
        <ele>418.2</ele>
        <time>2019-07-09T14:15:36Z</time>
      </trkpt>
      <trkpt lat="39.8439960" lon="-6.1093660">
        <ele>417.8</ele>
        <time>2019-07-09T14:15:37Z</time>
      </trkpt>
      <trkpt lat="39.8440040" lon="-6.1093960">
        <ele>417.6</ele>
        <time>2019-07-09T14:15:39Z</time>
      </trkpt>
      <trkpt lat="39.8440070" lon="-6.1094680">
        <ele>417.0</ele>
        <time>2019-07-09T14:15:41Z</time>
      </trkpt>
      <trkpt lat="39.8440060" lon="-6.1095120">
        <ele>416.8</ele>
        <time>2019-07-09T14:15:42Z</time>
      </trkpt>
      <trkpt lat="39.8440150" lon="-6.1096620">
        <ele>416.8</ele>
        <time>2019-07-09T14:15:46Z</time>
      </trkpt>
      <trkpt lat="39.8440020" lon="-6.1097280">
        <ele>418.0</ele>
        <time>2019-07-09T14:15:49Z</time>
      </trkpt>
      <trkpt lat="39.8440060" lon="-6.1097740">
        <ele>418.2</ele>
        <time>2019-07-09T14:15:51Z</time>
      </trkpt>
      <trkpt lat="39.8440540" lon="-6.1098610">
        <ele>418.2</ele>
        <time>2019-07-09T14:15:55Z</time>
      </trkpt>
      <trkpt lat="39.8440690" lon="-6.1098770">
        <ele>418.2</ele>
        <time>2019-07-09T14:15:56Z</time>
      </trkpt>
      <trkpt lat="39.8441240" lon="-6.1099390">
        <ele>419.0</ele>
        <time>2019-07-09T14:16:00Z</time>
      </trkpt>
      <trkpt lat="39.8441540" lon="-6.1099810">
        <ele>419.2</ele>
        <time>2019-07-09T14:16:03Z</time>
      </trkpt>
      <trkpt lat="39.8441910" lon="-6.1100130">
        <ele>419.8</ele>
        <time>2019-07-09T14:16:06Z</time>
      </trkpt>
      <trkpt lat="39.8442120" lon="-6.1100500">
        <ele>420.2</ele>
        <time>2019-07-09T14:16:08Z</time>
      </trkpt>
      <trkpt lat="39.8442210" lon="-6.1100700">
        <ele>420.4</ele>
        <time>2019-07-09T14:16:09Z</time>
      </trkpt>
      <trkpt lat="39.8442170" lon="-6.1102020">
        <ele>421.2</ele>
        <time>2019-07-09T14:16:15Z</time>
      </trkpt>
      <trkpt lat="39.8442100" lon="-6.1102140">
        <ele>421.2</ele>
        <time>2019-07-09T14:16:18Z</time>
      </trkpt>
      <trkpt lat="39.8441790" lon="-6.1105390">
        <ele>425.4</ele>
        <time>2019-07-09T14:17:02Z</time>
      </trkpt>
      <trkpt lat="39.8441760" lon="-6.1105550">
        <ele>425.6</ele>
        <time>2019-07-09T14:17:03Z</time>
      </trkpt>
      <trkpt lat="39.8441750" lon="-6.1106150">
        <ele>426.2</ele>
        <time>2019-07-09T14:17:07Z</time>
      </trkpt>
      <trkpt lat="39.8441780" lon="-6.1106400">
        <ele>426.4</ele>
        <time>2019-07-09T14:17:09Z</time>
      </trkpt>
      <trkpt lat="39.8441800" lon="-6.1106530">
        <ele>426.6</ele>
        <time>2019-07-09T14:17:10Z</time>
      </trkpt>
      <trkpt lat="39.8441860" lon="-6.1106750">
        <ele>426.8</ele>
        <time>2019-07-09T14:17:14Z</time>
      </trkpt>
      <trkpt lat="39.8441890" lon="-6.1107070">
        <ele>426.6</ele>
        <time>2019-07-09T14:17:18Z</time>
      </trkpt>
      <trkpt lat="39.8441920" lon="-6.1108800">
        <ele>425.4</ele>
        <time>2019-07-09T14:17:23Z</time>
      </trkpt>
      <trkpt lat="39.8442810" lon="-6.1110450">
        <ele>424.8</ele>
        <time>2019-07-09T14:17:28Z</time>
      </trkpt>
      <trkpt lat="39.8443500" lon="-6.1111450">
        <ele>424.6</ele>
        <time>2019-07-09T14:17:31Z</time>
      </trkpt>
      <trkpt lat="39.8443660" lon="-6.1111750">
        <ele>424.4</ele>
        <time>2019-07-09T14:17:32Z</time>
      </trkpt>
      <trkpt lat="39.8443750" lon="-6.1112070">
        <ele>424.4</ele>
        <time>2019-07-09T14:17:33Z</time>
      </trkpt>
      <trkpt lat="39.8443760" lon="-6.1112400">
        <ele>424.4</ele>
        <time>2019-07-09T14:17:34Z</time>
      </trkpt>
      <trkpt lat="39.8443540" lon="-6.1113400">
        <ele>424.6</ele>
        <time>2019-07-09T14:17:38Z</time>
      </trkpt>
      <trkpt lat="39.8443400" lon="-6.1113550">
        <ele>424.6</ele>
        <time>2019-07-09T14:17:39Z</time>
      </trkpt>
      <trkpt lat="39.8443000" lon="-6.1113890">
        <ele>424.6</ele>
        <time>2019-07-09T14:17:41Z</time>
      </trkpt>
      <trkpt lat="39.8442330" lon="-6.1114840">
        <ele>424.6</ele>
        <time>2019-07-09T14:17:45Z</time>
      </trkpt>
      <trkpt lat="39.8442190" lon="-6.1115650">
        <ele>425.4</ele>
        <time>2019-07-09T14:17:48Z</time>
      </trkpt>
      <trkpt lat="39.8442120" lon="-6.1115920">
        <ele>425.6</ele>
        <time>2019-07-09T14:17:49Z</time>
      </trkpt>
      <trkpt lat="39.8442100" lon="-6.1116160">
        <ele>425.8</ele>
        <time>2019-07-09T14:17:50Z</time>
      </trkpt>
      <trkpt lat="39.8441730" lon="-6.1117510">
        <ele>426.6</ele>
        <time>2019-07-09T14:17:55Z</time>
      </trkpt>
      <trkpt lat="39.8441610" lon="-6.1117810">
        <ele>426.6</ele>
        <time>2019-07-09T14:17:56Z</time>
      </trkpt>
      <trkpt lat="39.8441500" lon="-6.1118130">
        <ele>426.6</ele>
        <time>2019-07-09T14:17:57Z</time>
      </trkpt>
      <trkpt lat="39.8441150" lon="-6.1119880">
        <ele>425.6</ele>
        <time>2019-07-09T14:18:03Z</time>
      </trkpt>
      <trkpt lat="39.8440900" lon="-6.1120490">
        <ele>424.6</ele>
        <time>2019-07-09T14:18:06Z</time>
      </trkpt>
      <trkpt lat="39.8440790" lon="-6.1120700">
        <ele>424.2</ele>
        <time>2019-07-09T14:18:07Z</time>
      </trkpt>
      <trkpt lat="39.8440430" lon="-6.1121150">
        <ele>423.4</ele>
        <time>2019-07-09T14:18:09Z</time>
      </trkpt>
      <trkpt lat="39.8440290" lon="-6.1121320">
        <ele>423.2</ele>
        <time>2019-07-09T14:18:10Z</time>
      </trkpt>
      <trkpt lat="39.8439770" lon="-6.1121860">
        <ele>422.2</ele>
        <time>2019-07-09T14:18:13Z</time>
      </trkpt>
      <trkpt lat="39.8439630" lon="-6.1122020">
        <ele>421.8</ele>
        <time>2019-07-09T14:18:14Z</time>
      </trkpt>
      <trkpt lat="39.8439120" lon="-6.1122510">
        <ele>421.4</ele>
        <time>2019-07-09T14:18:17Z</time>
      </trkpt>
      <trkpt lat="39.8438880" lon="-6.1122710">
        <ele>421.0</ele>
        <time>2019-07-09T14:18:19Z</time>
      </trkpt>
      <trkpt lat="39.8438790" lon="-6.1122770">
        <ele>420.6</ele>
        <time>2019-07-09T14:18:20Z</time>
      </trkpt>
      <trkpt lat="39.8438710" lon="-6.1122800">
        <ele>420.4</ele>
        <time>2019-07-09T14:18:23Z</time>
      </trkpt>
      <trkpt lat="39.8437900" lon="-6.1123520">
        <ele>419.2</ele>
        <time>2019-07-09T14:18:32Z</time>
      </trkpt>
      <trkpt lat="39.8437790" lon="-6.1123630">
        <ele>419.2</ele>
        <time>2019-07-09T14:18:33Z</time>
      </trkpt>
      <trkpt lat="39.8437560" lon="-6.1124050">
        <ele>418.4</ele>
        <time>2019-07-09T14:18:36Z</time>
      </trkpt>
      <trkpt lat="39.8437510" lon="-6.1124130">
        <ele>418.2</ele>
        <time>2019-07-09T14:18:37Z</time>
      </trkpt>
      <trkpt lat="39.8437470" lon="-6.1124240">
        <ele>418.0</ele>
        <time>2019-07-09T14:18:38Z</time>
      </trkpt>
      <trkpt lat="39.8437330" lon="-6.1124480">
        <ele>417.8</ele>
        <time>2019-07-09T14:18:41Z</time>
      </trkpt>
      <trkpt lat="39.8437100" lon="-6.1124710">
        <ele>417.4</ele>
        <time>2019-07-09T14:18:43Z</time>
      </trkpt>
      <trkpt lat="39.8436970" lon="-6.1124870">
        <ele>417.0</ele>
        <time>2019-07-09T14:18:45Z</time>
      </trkpt>
      <trkpt lat="39.8436850" lon="-6.1125040">
        <ele>416.4</ele>
        <time>2019-07-09T14:18:47Z</time>
      </trkpt>
      <trkpt lat="39.8436800" lon="-6.1125130">
        <ele>416.0</ele>
        <time>2019-07-09T14:18:48Z</time>
      </trkpt>
      <trkpt lat="39.8436730" lon="-6.1125230">
        <ele>415.8</ele>
        <time>2019-07-09T14:18:49Z</time>
      </trkpt>
      <trkpt lat="39.8436340" lon="-6.1126130">
        <ele>415.4</ele>
        <time>2019-07-09T14:18:53Z</time>
      </trkpt>
      <trkpt lat="39.8436190" lon="-6.1126320">
        <ele>415.2</ele>
        <time>2019-07-09T14:18:54Z</time>
      </trkpt>
      <trkpt lat="39.8435990" lon="-6.1126410">
        <ele>414.8</ele>
        <time>2019-07-09T14:18:56Z</time>
      </trkpt>
      <trkpt lat="39.8435640" lon="-6.1127120">
        <ele>414.2</ele>
        <time>2019-07-09T14:19:01Z</time>
      </trkpt>
      <trkpt lat="39.8435430" lon="-6.1127530">
        <ele>413.6</ele>
        <time>2019-07-09T14:19:04Z</time>
      </trkpt>
      <trkpt lat="39.8435260" lon="-6.1127900">
        <ele>413.4</ele>
        <time>2019-07-09T14:19:08Z</time>
      </trkpt>
      <trkpt lat="39.8435110" lon="-6.1128110">
        <ele>412.8</ele>
        <time>2019-07-09T14:19:12Z</time>
      </trkpt>
      <trkpt lat="39.8434430" lon="-6.1129220">
        <ele>411.6</ele>
        <time>2019-07-09T14:19:26Z</time>
      </trkpt>
      <trkpt lat="39.8434100" lon="-6.1130010">
        <ele>411.2</ele>
        <time>2019-07-09T14:19:29Z</time>
      </trkpt>
      <trkpt lat="39.8433910" lon="-6.1130260">
        <ele>411.0</ele>
        <time>2019-07-09T14:19:30Z</time>
      </trkpt>
      <trkpt lat="39.8433150" lon="-6.1131530">
        <ele>410.6</ele>
        <time>2019-07-09T14:19:34Z</time>
      </trkpt>
      <trkpt lat="39.8432990" lon="-6.1131860">
        <ele>410.6</ele>
        <time>2019-07-09T14:19:35Z</time>
      </trkpt>
      <trkpt lat="39.8432030" lon="-6.1133160">
        <ele>409.8</ele>
        <time>2019-07-09T14:19:40Z</time>
      </trkpt>
      <trkpt lat="39.8431620" lon="-6.1133780">
        <ele>410.0</ele>
        <time>2019-07-09T14:19:42Z</time>
      </trkpt>
      <trkpt lat="39.8431150" lon="-6.1134750">
        <ele>410.8</ele>
        <time>2019-07-09T14:19:46Z</time>
      </trkpt>
      <trkpt lat="39.8430850" lon="-6.1136030">
        <ele>411.2</ele>
        <time>2019-07-09T14:19:51Z</time>
      </trkpt>
      <trkpt lat="39.8431150" lon="-6.1137290">
        <ele>409.8</ele>
        <time>2019-07-09T14:19:57Z</time>
      </trkpt>
      <trkpt lat="39.8431170" lon="-6.1137830">
        <ele>409.6</ele>
        <time>2019-07-09T14:19:59Z</time>
      </trkpt>
      <trkpt lat="39.8431200" lon="-6.1138080">
        <ele>408.8</ele>
        <time>2019-07-09T14:20:02Z</time>
      </trkpt>
      <trkpt lat="39.8431180" lon="-6.1138090">
        <ele>408.6</ele>
        <time>2019-07-09T14:20:03Z</time>
      </trkpt>
      <trkpt lat="39.8431290" lon="-6.1138940">
        <ele>408.0</ele>
        <time>2019-07-09T14:20:20Z</time>
      </trkpt>
      <trkpt lat="39.8431400" lon="-6.1139430">
        <ele>407.8</ele>
        <time>2019-07-09T14:20:22Z</time>
      </trkpt>
      <trkpt lat="39.8431590" lon="-6.1140130">
        <ele>407.0</ele>
        <time>2019-07-09T14:20:26Z</time>
      </trkpt>
      <trkpt lat="39.8431630" lon="-6.1140360">
        <ele>406.6</ele>
        <time>2019-07-09T14:20:27Z</time>
      </trkpt>
      <trkpt lat="39.8431670" lon="-6.1140710">
        <ele>406.2</ele>
        <time>2019-07-09T14:20:30Z</time>
      </trkpt>
      <trkpt lat="39.8430670" lon="-6.1140810">
        <ele>403.0</ele>
        <time>2019-07-09T14:20:59Z</time>
      </trkpt>
      <trkpt lat="39.8430260" lon="-6.1140410">
        <ele>401.8</ele>
        <time>2019-07-09T14:21:03Z</time>
      </trkpt>
      <trkpt lat="39.8429860" lon="-6.1140250">
        <ele>401.2</ele>
        <time>2019-07-09T14:21:07Z</time>
      </trkpt>
      <trkpt lat="39.8429650" lon="-6.1140180">
        <ele>400.8</ele>
        <time>2019-07-09T14:21:09Z</time>
      </trkpt>
      <trkpt lat="39.8429180" lon="-6.1140030">
        <ele>399.8</ele>
        <time>2019-07-09T14:21:14Z</time>
      </trkpt>
      <trkpt lat="39.8429020" lon="-6.1140060">
        <ele>399.4</ele>
        <time>2019-07-09T14:21:16Z</time>
      </trkpt>
      <trkpt lat="39.8428640" lon="-6.1140370">
        <ele>399.0</ele>
        <time>2019-07-09T14:21:20Z</time>
      </trkpt>
      <trkpt lat="39.8428440" lon="-6.1140530">
        <ele>398.6</ele>
        <time>2019-07-09T14:21:22Z</time>
      </trkpt>
      <trkpt lat="39.8428100" lon="-6.1140650">
        <ele>398.2</ele>
        <time>2019-07-09T14:21:25Z</time>
      </trkpt>
      <trkpt lat="39.8427870" lon="-6.1140870">
        <ele>398.0</ele>
        <time>2019-07-09T14:21:27Z</time>
      </trkpt>
      <trkpt lat="39.8427490" lon="-6.1141630">
        <ele>398.8</ele>
        <time>2019-07-09T14:21:33Z</time>
      </trkpt>
      <trkpt lat="39.8427160" lon="-6.1142140">
        <ele>399.0</ele>
        <time>2019-07-09T14:21:37Z</time>
      </trkpt>
      <trkpt lat="39.8427020" lon="-6.1142280">
        <ele>399.4</ele>
        <time>2019-07-09T14:21:39Z</time>
      </trkpt>
      <trkpt lat="39.8426930" lon="-6.1142370">
        <ele>399.6</ele>
        <time>2019-07-09T14:21:40Z</time>
      </trkpt>
      <trkpt lat="39.8426590" lon="-6.1142710">
        <ele>400.4</ele>
        <time>2019-07-09T14:21:44Z</time>
      </trkpt>
      <trkpt lat="39.8426470" lon="-6.1142920">
        <ele>400.8</ele>
        <time>2019-07-09T14:21:46Z</time>
      </trkpt>
      <trkpt lat="39.8426430" lon="-6.1143110">
        <ele>401.0</ele>
        <time>2019-07-09T14:21:48Z</time>
      </trkpt>
      <trkpt lat="39.8426300" lon="-6.1143410">
        <ele>401.2</ele>
        <time>2019-07-09T14:21:51Z</time>
      </trkpt>
      <trkpt lat="39.8426320" lon="-6.1143600">
        <ele>401.6</ele>
        <time>2019-07-09T14:21:53Z</time>
      </trkpt>
      <trkpt lat="39.8426340" lon="-6.1143680">
        <ele>401.8</ele>
        <time>2019-07-09T14:21:54Z</time>
      </trkpt>
      <trkpt lat="39.8426380" lon="-6.1143760">
        <ele>402.0</ele>
        <time>2019-07-09T14:21:55Z</time>
      </trkpt>
      <trkpt lat="39.8426530" lon="-6.1143830">
        <ele>402.6</ele>
        <time>2019-07-09T14:21:58Z</time>
      </trkpt>
      <trkpt lat="39.8426650" lon="-6.1143830">
        <ele>402.8</ele>
        <time>2019-07-09T14:22:00Z</time>
      </trkpt>
      <trkpt lat="39.8426830" lon="-6.1143830">
        <ele>403.0</ele>
        <time>2019-07-09T14:22:03Z</time>
      </trkpt>
      <trkpt lat="39.8427140" lon="-6.1143820">
        <ele>403.8</ele>
        <time>2019-07-09T14:22:09Z</time>
      </trkpt>
      <trkpt lat="39.8427210" lon="-6.1143840">
        <ele>404.0</ele>
        <time>2019-07-09T14:22:10Z</time>
      </trkpt>
      <trkpt lat="39.8427280" lon="-6.1143890">
        <ele>404.0</ele>
        <time>2019-07-09T14:22:11Z</time>
      </trkpt>
      <trkpt lat="39.8427290" lon="-6.1144390">
        <ele>404.4</ele>
        <time>2019-07-09T14:22:16Z</time>
      </trkpt>
      <trkpt lat="39.8427220" lon="-6.1144460">
        <ele>404.6</ele>
        <time>2019-07-09T14:22:17Z</time>
      </trkpt>
      <trkpt lat="39.8427130" lon="-6.1144510">
        <ele>404.6</ele>
        <time>2019-07-09T14:22:18Z</time>
      </trkpt>
      <trkpt lat="39.8426910" lon="-6.1144580">
        <ele>405.0</ele>
        <time>2019-07-09T14:22:20Z</time>
      </trkpt>
      <trkpt lat="39.8426690" lon="-6.1144730">
        <ele>405.4</ele>
        <time>2019-07-09T14:22:23Z</time>
      </trkpt>
      <trkpt lat="39.8426510" lon="-6.1145270">
        <ele>405.8</ele>
        <time>2019-07-09T14:22:28Z</time>
      </trkpt>
      <trkpt lat="39.8426560" lon="-6.1145500">
        <ele>406.2</ele>
        <time>2019-07-09T14:22:30Z</time>
      </trkpt>
      <trkpt lat="39.8426570" lon="-6.1145620">
        <ele>406.4</ele>
        <time>2019-07-09T14:22:31Z</time>
      </trkpt>
      <trkpt lat="39.8426920" lon="-6.1145810">
        <ele>407.6</ele>
        <time>2019-07-09T14:22:37Z</time>
      </trkpt>
      <trkpt lat="39.8427320" lon="-6.1145960">
        <ele>407.8</ele>
        <time>2019-07-09T14:22:41Z</time>
      </trkpt>
      <trkpt lat="39.8427440" lon="-6.1146280">
        <ele>408.4</ele>
        <time>2019-07-09T14:22:44Z</time>
      </trkpt>
      <trkpt lat="39.8427440" lon="-6.1146410">
        <ele>408.6</ele>
        <time>2019-07-09T14:22:45Z</time>
      </trkpt>
      <trkpt lat="39.8427380" lon="-6.1147420">
        <ele>409.6</ele>
        <time>2019-07-09T14:22:53Z</time>
      </trkpt>
      <trkpt lat="39.8427340" lon="-6.1147510">
        <ele>409.8</ele>
        <time>2019-07-09T14:22:54Z</time>
      </trkpt>
      <trkpt lat="39.8426920" lon="-6.1147910">
        <ele>410.4</ele>
        <time>2019-07-09T14:23:01Z</time>
      </trkpt>
      <trkpt lat="39.8426740" lon="-6.1148000">
        <ele>410.8</ele>
        <time>2019-07-09T14:23:04Z</time>
      </trkpt>
      <trkpt lat="39.8426710" lon="-6.1148000">
        <ele>411.0</ele>
        <time>2019-07-09T14:23:06Z</time>
      </trkpt>
      <trkpt lat="39.8425920" lon="-6.1148300">
        <ele>412.4</ele>
        <time>2019-07-09T14:23:16Z</time>
      </trkpt>
      <trkpt lat="39.8425810" lon="-6.1148390">
        <ele>412.4</ele>
        <time>2019-07-09T14:23:17Z</time>
      </trkpt>
      <trkpt lat="39.8425250" lon="-6.1149260">
        <ele>413.4</ele>
        <time>2019-07-09T14:23:25Z</time>
      </trkpt>
      <trkpt lat="39.8425190" lon="-6.1149370">
        <ele>413.4</ele>
        <time>2019-07-09T14:23:26Z</time>
      </trkpt>
      <trkpt lat="39.8424930" lon="-6.1149670">
        <ele>413.6</ele>
        <time>2019-07-09T14:23:31Z</time>
      </trkpt>
      <trkpt lat="39.8424810" lon="-6.1149880">
        <ele>414.0</ele>
        <time>2019-07-09T14:23:35Z</time>
      </trkpt>
      <trkpt lat="39.8425340" lon="-6.1153140">
        <ele>421.4</ele>
        <time>2019-07-09T14:24:39Z</time>
      </trkpt>
      <trkpt lat="39.8425300" lon="-6.1153280">
        <ele>421.4</ele>
        <time>2019-07-09T14:24:40Z</time>
      </trkpt>
      <trkpt lat="39.8425130" lon="-6.1153990">
        <ele>421.6</ele>
        <time>2019-07-09T14:24:45Z</time>
      </trkpt>
      <trkpt lat="39.8425060" lon="-6.1154330">
        <ele>422.0</ele>
        <time>2019-07-09T14:24:48Z</time>
      </trkpt>
      <trkpt lat="39.8424880" lon="-6.1155120">
        <ele>422.8</ele>
        <time>2019-07-09T14:24:55Z</time>
      </trkpt>
      <trkpt lat="39.8424680" lon="-6.1156080">
        <ele>423.8</ele>
        <time>2019-07-09T14:25:03Z</time>
      </trkpt>
      <trkpt lat="39.8424350" lon="-6.1156760">
        <ele>424.8</ele>
        <time>2019-07-09T14:25:10Z</time>
      </trkpt>
      <trkpt lat="39.8424100" lon="-6.1157220">
        <ele>425.0</ele>
        <time>2019-07-09T14:25:15Z</time>
      </trkpt>
      <trkpt lat="39.8423990" lon="-6.1157500">
        <ele>425.4</ele>
        <time>2019-07-09T14:25:17Z</time>
      </trkpt>
      <trkpt lat="39.8423860" lon="-6.1157910">
        <ele>425.8</ele>
        <time>2019-07-09T14:25:20Z</time>
      </trkpt>
      <trkpt lat="39.8423810" lon="-6.1158040">
        <ele>426.0</ele>
        <time>2019-07-09T14:25:21Z</time>
      </trkpt>
      <trkpt lat="39.8423640" lon="-6.1158380">
        <ele>426.2</ele>
        <time>2019-07-09T14:25:24Z</time>
      </trkpt>
      <trkpt lat="39.8423470" lon="-6.1158740">
        <ele>426.4</ele>
        <time>2019-07-09T14:25:27Z</time>
      </trkpt>
      <trkpt lat="39.8423300" lon="-6.1159060">
        <ele>427.0</ele>
        <time>2019-07-09T14:25:30Z</time>
      </trkpt>
      <trkpt lat="39.8423260" lon="-6.1159130">
        <ele>427.2</ele>
        <time>2019-07-09T14:25:31Z</time>
      </trkpt>
      <trkpt lat="39.8422980" lon="-6.1159360">
        <ele>428.0</ele>
        <time>2019-07-09T14:25:38Z</time>
      </trkpt>
      <trkpt lat="39.8422940" lon="-6.1159370">
        <ele>428.0</ele>
        <time>2019-07-09T14:25:39Z</time>
      </trkpt>
      <trkpt lat="39.8422770" lon="-6.1159100">
        <ele>428.8</ele>
        <time>2019-07-09T14:25:46Z</time>
      </trkpt>
      <trkpt lat="39.8422760" lon="-6.1158950">
        <ele>429.0</ele>
        <time>2019-07-09T14:25:47Z</time>
      </trkpt>
      <trkpt lat="39.8422750" lon="-6.1158740">
        <ele>429.8</ele>
        <time>2019-07-09T14:25:50Z</time>
      </trkpt>
      <trkpt lat="39.8422430" lon="-6.1157490">
        <ele>430.2</ele>
        <time>2019-07-09T14:26:03Z</time>
      </trkpt>
      <trkpt lat="39.8422320" lon="-6.1157250">
        <ele>430.2</ele>
        <time>2019-07-09T14:26:05Z</time>
      </trkpt>
      <trkpt lat="39.8422040" lon="-6.1157140">
        <ele>430.8</ele>
        <time>2019-07-09T14:26:09Z</time>
      </trkpt>
      <trkpt lat="39.8421830" lon="-6.1157340">
        <ele>431.2</ele>
        <time>2019-07-09T14:26:12Z</time>
      </trkpt>
      <trkpt lat="39.8421520" lon="-6.1157910">
        <ele>431.8</ele>
        <time>2019-07-09T14:26:17Z</time>
      </trkpt>
      <trkpt lat="39.8421320" lon="-6.1158150">
        <ele>432.4</ele>
        <time>2019-07-09T14:26:20Z</time>
      </trkpt>
      <trkpt lat="39.8421110" lon="-6.1158550">
        <ele>433.2</ele>
        <time>2019-07-09T14:26:24Z</time>
      </trkpt>
      <trkpt lat="39.8421060" lon="-6.1158610">
        <ele>433.4</ele>
        <time>2019-07-09T14:26:25Z</time>
      </trkpt>
      <trkpt lat="39.8420880" lon="-6.1159020">
        <ele>433.8</ele>
        <time>2019-07-09T14:26:29Z</time>
      </trkpt>
      <trkpt lat="39.8420810" lon="-6.1159100">
        <ele>434.0</ele>
        <time>2019-07-09T14:26:30Z</time>
      </trkpt>
      <trkpt lat="39.8420550" lon="-6.1159350">
        <ele>434.4</ele>
        <time>2019-07-09T14:26:33Z</time>
      </trkpt>
      <trkpt lat="39.8420190" lon="-6.1159800">
        <ele>435.4</ele>
        <time>2019-07-09T14:26:38Z</time>
      </trkpt>
      <trkpt lat="39.8420000" lon="-6.1159970">
        <ele>435.6</ele>
        <time>2019-07-09T14:26:40Z</time>
      </trkpt>
      <trkpt lat="39.8419920" lon="-6.1160060">
        <ele>435.6</ele>
        <time>2019-07-09T14:26:41Z</time>
      </trkpt>
      <trkpt lat="39.8419630" lon="-6.1160500">
        <ele>436.2</ele>
        <time>2019-07-09T14:26:45Z</time>
      </trkpt>
      <trkpt lat="39.8419320" lon="-6.1160970">
        <ele>436.4</ele>
        <time>2019-07-09T14:26:49Z</time>
      </trkpt>
      <trkpt lat="39.8419270" lon="-6.1161110">
        <ele>436.6</ele>
        <time>2019-07-09T14:26:50Z</time>
      </trkpt>
      <trkpt lat="39.8419170" lon="-6.1161360">
        <ele>437.4</ele>
        <time>2019-07-09T14:26:52Z</time>
      </trkpt>
      <trkpt lat="39.8419160" lon="-6.1161480">
        <ele>437.6</ele>
        <time>2019-07-09T14:26:53Z</time>
      </trkpt>
      <trkpt lat="39.8419110" lon="-6.1161600">
        <ele>437.8</ele>
        <time>2019-07-09T14:26:54Z</time>
      </trkpt>
      <trkpt lat="39.8419020" lon="-6.1162010">
        <ele>437.8</ele>
        <time>2019-07-09T14:26:57Z</time>
      </trkpt>
      <trkpt lat="39.8418740" lon="-6.1162610">
        <ele>439.0</ele>
        <time>2019-07-09T14:27:02Z</time>
      </trkpt>
      <trkpt lat="39.8418550" lon="-6.1163850">
        <ele>439.6</ele>
        <time>2019-07-09T14:27:10Z</time>
      </trkpt>
      <trkpt lat="39.8418570" lon="-6.1164050">
        <ele>439.6</ele>
        <time>2019-07-09T14:27:13Z</time>
      </trkpt>
      <trkpt lat="39.8418140" lon="-6.1166430">
        <ele>442.0</ele>
        <time>2019-07-09T14:27:33Z</time>
      </trkpt>
      <trkpt lat="39.8418080" lon="-6.1166590">
        <ele>442.2</ele>
        <time>2019-07-09T14:27:34Z</time>
      </trkpt>
      <trkpt lat="39.8417730" lon="-6.1167550">
        <ele>443.0</ele>
        <time>2019-07-09T14:27:41Z</time>
      </trkpt>
      <trkpt lat="39.8417670" lon="-6.1167690">
        <ele>443.2</ele>
        <time>2019-07-09T14:27:42Z</time>
      </trkpt>
      <trkpt lat="39.8417470" lon="-6.1168330">
        <ele>444.4</ele>
        <time>2019-07-09T14:27:46Z</time>
      </trkpt>
      <trkpt lat="39.8417400" lon="-6.1168470">
        <ele>444.6</ele>
        <time>2019-07-09T14:27:47Z</time>
      </trkpt>
      <trkpt lat="39.8417310" lon="-6.1168580">
        <ele>444.8</ele>
        <time>2019-07-09T14:27:48Z</time>
      </trkpt>
      <trkpt lat="39.8417240" lon="-6.1168660">
        <ele>444.8</ele>
        <time>2019-07-09T14:27:49Z</time>
      </trkpt>
      <trkpt lat="39.8416740" lon="-6.1169450">
        <ele>445.2</ele>
        <time>2019-07-09T14:27:56Z</time>
      </trkpt>
      <trkpt lat="39.8416680" lon="-6.1169550">
        <ele>445.4</ele>
        <time>2019-07-09T14:27:57Z</time>
      </trkpt>
      <trkpt lat="39.8416260" lon="-6.1169910">
        <ele>446.2</ele>
        <time>2019-07-09T14:28:02Z</time>
      </trkpt>
      <trkpt lat="39.8416200" lon="-6.1170000">
        <ele>446.6</ele>
        <time>2019-07-09T14:28:04Z</time>
      </trkpt>
      <trkpt lat="39.8416090" lon="-6.1170160">
        <ele>447.2</ele>
        <time>2019-07-09T14:28:09Z</time>
      </trkpt>
      <trkpt lat="39.8414810" lon="-6.1167360">
        <ele>451.2</ele>
        <time>2019-07-09T14:30:40Z</time>
      </trkpt>
      <trkpt lat="39.8414710" lon="-6.1167200">
        <ele>451.4</ele>
        <time>2019-07-09T14:30:41Z</time>
      </trkpt>
      <trkpt lat="39.8414180" lon="-6.1166490">
        <ele>452.4</ele>
        <time>2019-07-09T14:30:46Z</time>
      </trkpt>
      <trkpt lat="39.8413790" lon="-6.1165820">
        <ele>453.6</ele>
        <time>2019-07-09T14:30:51Z</time>
      </trkpt>
      <trkpt lat="39.8413700" lon="-6.1165690">
        <ele>453.6</ele>
        <time>2019-07-09T14:30:52Z</time>
      </trkpt>
      <trkpt lat="39.8413360" lon="-6.1165290">
        <ele>454.6</ele>
        <time>2019-07-09T14:30:56Z</time>
      </trkpt>
      <trkpt lat="39.8413310" lon="-6.1165170">
        <ele>454.6</ele>
        <time>2019-07-09T14:30:57Z</time>
      </trkpt>
      <trkpt lat="39.8413150" lon="-6.1164960">
        <ele>455.0</ele>
        <time>2019-07-09T14:30:59Z</time>
      </trkpt>
      <trkpt lat="39.8412760" lon="-6.1164430">
        <ele>455.6</ele>
        <time>2019-07-09T14:31:03Z</time>
      </trkpt>
      <trkpt lat="39.8412620" lon="-6.1164280">
        <ele>455.8</ele>
        <time>2019-07-09T14:31:04Z</time>
      </trkpt>
      <trkpt lat="39.8412290" lon="-6.1163910">
        <ele>456.4</ele>
        <time>2019-07-09T14:31:07Z</time>
      </trkpt>
      <trkpt lat="39.8412050" lon="-6.1163730">
        <ele>456.8</ele>
        <time>2019-07-09T14:31:09Z</time>
      </trkpt>
      <trkpt lat="39.8411250" lon="-6.1163140">
        <ele>458.0</ele>
        <time>2019-07-09T14:31:15Z</time>
      </trkpt>
      <trkpt lat="39.8411120" lon="-6.1163060">
        <ele>458.0</ele>
        <time>2019-07-09T14:31:16Z</time>
      </trkpt>
      <trkpt lat="39.8410350" lon="-6.1162740">
        <ele>459.0</ele>
        <time>2019-07-09T14:31:20Z</time>
      </trkpt>
      <trkpt lat="39.8410170" lon="-6.1162690">
        <ele>459.2</ele>
        <time>2019-07-09T14:31:21Z</time>
      </trkpt>
      <trkpt lat="39.8409710" lon="-6.1162610">
        <ele>459.8</ele>
        <time>2019-07-09T14:31:24Z</time>
      </trkpt>
      <trkpt lat="39.8409650" lon="-6.1162690">
        <ele>460.2</ele>
        <time>2019-07-09T14:31:25Z</time>
      </trkpt>
      <trkpt lat="39.8409620" lon="-6.1162800">
        <ele>460.6</ele>
        <time>2019-07-09T14:31:26Z</time>
      </trkpt>
      <trkpt lat="39.8409560" lon="-6.1163020">
        <ele>461.2</ele>
        <time>2019-07-09T14:31:28Z</time>
      </trkpt>
      <trkpt lat="39.8409500" lon="-6.1163100">
        <ele>461.4</ele>
        <time>2019-07-09T14:31:29Z</time>
      </trkpt>
      <trkpt lat="39.8409480" lon="-6.1163160">
        <ele>461.6</ele>
        <time>2019-07-09T14:31:30Z</time>
      </trkpt>
      <trkpt lat="39.8409440" lon="-6.1163310">
        <ele>461.8</ele>
        <time>2019-07-09T14:31:32Z</time>
      </trkpt>
      <trkpt lat="39.8409480" lon="-6.1163580">
        <ele>462.6</ele>
        <time>2019-07-09T14:31:35Z</time>
      </trkpt>
      <trkpt lat="39.8409470" lon="-6.1163720">
        <ele>462.6</ele>
        <time>2019-07-09T14:31:36Z</time>
      </trkpt>
      <trkpt lat="39.8409530" lon="-6.1163940">
        <ele>463.2</ele>
        <time>2019-07-09T14:31:38Z</time>
      </trkpt>
      <trkpt lat="39.8409570" lon="-6.1164240">
        <ele>463.8</ele>
        <time>2019-07-09T14:31:40Z</time>
      </trkpt>
      <trkpt lat="39.8409530" lon="-6.1164600">
        <ele>464.4</ele>
        <time>2019-07-09T14:31:43Z</time>
      </trkpt>
      <trkpt lat="39.8409470" lon="-6.1164980">
        <ele>465.0</ele>
        <time>2019-07-09T14:31:46Z</time>
      </trkpt>
      <trkpt lat="39.8409450" lon="-6.1165130">
        <ele>465.2</ele>
        <time>2019-07-09T14:31:47Z</time>
      </trkpt>
      <trkpt lat="39.8409440" lon="-6.1165260">
        <ele>465.4</ele>
        <time>2019-07-09T14:31:48Z</time>
      </trkpt>
      <trkpt lat="39.8409360" lon="-6.1165810">
        <ele>466.0</ele>
        <time>2019-07-09T14:31:52Z</time>
      </trkpt>
      <trkpt lat="39.8409250" lon="-6.1166110">
        <ele>466.6</ele>
        <time>2019-07-09T14:31:54Z</time>
      </trkpt>
      <trkpt lat="39.8409050" lon="-6.1166600">
        <ele>467.2</ele>
        <time>2019-07-09T14:31:57Z</time>
      </trkpt>
      <trkpt lat="39.8408760" lon="-6.1167170">
        <ele>467.8</ele>
        <time>2019-07-09T14:32:00Z</time>
      </trkpt>
      <trkpt lat="39.8408590" lon="-6.1167630">
        <ele>468.4</ele>
        <time>2019-07-09T14:32:03Z</time>
      </trkpt>
      <trkpt lat="39.8408540" lon="-6.1167810">
        <ele>468.6</ele>
        <time>2019-07-09T14:32:04Z</time>
      </trkpt>
      <trkpt lat="39.8408450" lon="-6.1168160">
        <ele>469.0</ele>
        <time>2019-07-09T14:32:06Z</time>
      </trkpt>
      <trkpt lat="39.8408350" lon="-6.1168530">
        <ele>469.2</ele>
        <time>2019-07-09T14:32:08Z</time>
      </trkpt>
      <trkpt lat="39.8408300" lon="-6.1168940">
        <ele>469.4</ele>
        <time>2019-07-09T14:32:10Z</time>
      </trkpt>
      <trkpt lat="39.8408280" lon="-6.1169140">
        <ele>469.6</ele>
        <time>2019-07-09T14:32:11Z</time>
      </trkpt>
      <trkpt lat="39.8408260" lon="-6.1169330">
        <ele>469.6</ele>
        <time>2019-07-09T14:32:12Z</time>
      </trkpt>
      <trkpt lat="39.8407800" lon="-6.1171070">
        <ele>470.0</ele>
        <time>2019-07-09T14:32:18Z</time>
      </trkpt>
      <trkpt lat="39.8407190" lon="-6.1172820">
        <ele>470.4</ele>
        <time>2019-07-09T14:32:23Z</time>
      </trkpt>
      <trkpt lat="39.8407070" lon="-6.1173200">
        <ele>470.6</ele>
        <time>2019-07-09T14:32:24Z</time>
      </trkpt>
      <trkpt lat="39.8406860" lon="-6.1173960">
        <ele>470.6</ele>
        <time>2019-07-09T14:32:26Z</time>
      </trkpt>
      <trkpt lat="39.8406650" lon="-6.1174990">
        <ele>470.8</ele>
        <time>2019-07-09T14:32:29Z</time>
      </trkpt>
      <trkpt lat="39.8406200" lon="-6.1176350">
        <ele>471.6</ele>
        <time>2019-07-09T14:32:34Z</time>
      </trkpt>
      <trkpt lat="39.8406070" lon="-6.1176900">
        <ele>471.8</ele>
        <time>2019-07-09T14:32:36Z</time>
      </trkpt>
      <trkpt lat="39.8405730" lon="-6.1177650">
        <ele>472.6</ele>
        <time>2019-07-09T14:32:39Z</time>
      </trkpt>
      <trkpt lat="39.8405450" lon="-6.1178330">
        <ele>473.2</ele>
        <time>2019-07-09T14:32:42Z</time>
      </trkpt>
      <trkpt lat="39.8405180" lon="-6.1179050">
        <ele>473.8</ele>
        <time>2019-07-09T14:32:45Z</time>
      </trkpt>
      <trkpt lat="39.8404940" lon="-6.1180000">
        <ele>474.6</ele>
        <time>2019-07-09T14:32:49Z</time>
      </trkpt>
      <trkpt lat="39.8404870" lon="-6.1180240">
        <ele>474.8</ele>
        <time>2019-07-09T14:32:50Z</time>
      </trkpt>
      <trkpt lat="39.8404720" lon="-6.1181500">
        <ele>475.8</ele>
        <time>2019-07-09T14:32:55Z</time>
      </trkpt>
      <trkpt lat="39.8404680" lon="-6.1181720">
        <ele>475.8</ele>
        <time>2019-07-09T14:32:56Z</time>
      </trkpt>
      <trkpt lat="39.8404470" lon="-6.1182650">
        <ele>476.8</ele>
        <time>2019-07-09T14:33:00Z</time>
      </trkpt>
      <trkpt lat="39.8404330" lon="-6.1183330">
        <ele>477.4</ele>
        <time>2019-07-09T14:33:04Z</time>
      </trkpt>
      <trkpt lat="39.8404290" lon="-6.1183350">
        <ele>477.6</ele>
        <time>2019-07-09T14:33:06Z</time>
      </trkpt>
      <trkpt lat="39.8403860" lon="-6.1185500">
        <ele>480.2</ele>
        <time>2019-07-09T14:33:34Z</time>
      </trkpt>
      <trkpt lat="39.8403770" lon="-6.1185770">
        <ele>480.6</ele>
        <time>2019-07-09T14:33:36Z</time>
      </trkpt>
      <trkpt lat="39.8403640" lon="-6.1186280">
        <ele>481.4</ele>
        <time>2019-07-09T14:33:40Z</time>
      </trkpt>
      <trkpt lat="39.8403560" lon="-6.1186460">
        <ele>482.0</ele>
        <time>2019-07-09T14:33:42Z</time>
      </trkpt>
      <trkpt lat="39.8403530" lon="-6.1186560">
        <ele>482.4</ele>
        <time>2019-07-09T14:33:43Z</time>
      </trkpt>
      <trkpt lat="39.8403460" lon="-6.1186940">
        <ele>483.0</ele>
        <time>2019-07-09T14:33:46Z</time>
      </trkpt>
      <trkpt lat="39.8403370" lon="-6.1187220">
        <ele>483.4</ele>
        <time>2019-07-09T14:33:48Z</time>
      </trkpt>
      <trkpt lat="39.8403310" lon="-6.1187450">
        <ele>483.6</ele>
        <time>2019-07-09T14:33:50Z</time>
      </trkpt>
      <trkpt lat="39.8403160" lon="-6.1187850">
        <ele>484.6</ele>
        <time>2019-07-09T14:33:54Z</time>
      </trkpt>
      <trkpt lat="39.8402940" lon="-6.1188390">
        <ele>485.2</ele>
        <time>2019-07-09T14:33:59Z</time>
      </trkpt>
      <trkpt lat="39.8402830" lon="-6.1188640">
        <ele>485.6</ele>
        <time>2019-07-09T14:34:01Z</time>
      </trkpt>
      <trkpt lat="39.8402510" lon="-6.1189390">
        <ele>486.6</ele>
        <time>2019-07-09T14:34:07Z</time>
      </trkpt>
      <trkpt lat="39.8402440" lon="-6.1189490">
        <ele>486.8</ele>
        <time>2019-07-09T14:34:08Z</time>
      </trkpt>
      <trkpt lat="39.8402390" lon="-6.1189610">
        <ele>487.0</ele>
        <time>2019-07-09T14:34:09Z</time>
      </trkpt>
      <trkpt lat="39.8402240" lon="-6.1189990">
        <ele>487.6</ele>
        <time>2019-07-09T14:34:12Z</time>
      </trkpt>
      <trkpt lat="39.8402160" lon="-6.1190260">
        <ele>487.8</ele>
        <time>2019-07-09T14:34:14Z</time>
      </trkpt>
      <trkpt lat="39.8401890" lon="-6.1191020">
        <ele>488.8</ele>
        <time>2019-07-09T14:34:20Z</time>
      </trkpt>
      <trkpt lat="39.8401820" lon="-6.1191140">
        <ele>489.0</ele>
        <time>2019-07-09T14:34:21Z</time>
      </trkpt>
      <trkpt lat="39.8401750" lon="-6.1191370">
        <ele>489.8</ele>
        <time>2019-07-09T14:34:25Z</time>
      </trkpt>
      <trkpt lat="39.8389920" lon="-6.1212960">
        <ele>524.4</ele>
        <time>2019-07-09T14:38:37Z</time>
      </trkpt>
      <trkpt lat="39.8389450" lon="-6.1213820">
        <ele>525.6</ele>
        <time>2019-07-09T14:38:43Z</time>
      </trkpt>
      <trkpt lat="39.8389300" lon="-6.1214110">
        <ele>526.0</ele>
        <time>2019-07-09T14:38:45Z</time>
      </trkpt>
      <trkpt lat="39.8389020" lon="-6.1214500">
        <ele>526.6</ele>
        <time>2019-07-09T14:38:48Z</time>
      </trkpt>
      <trkpt lat="39.8388700" lon="-6.1214880">
        <ele>527.4</ele>
        <time>2019-07-09T14:38:52Z</time>
      </trkpt>
      <trkpt lat="39.8388620" lon="-6.1214980">
        <ele>527.6</ele>
        <time>2019-07-09T14:38:53Z</time>
      </trkpt>
      <trkpt lat="39.8388540" lon="-6.1215110">
        <ele>528.0</ele>
        <time>2019-07-09T14:38:54Z</time>
      </trkpt>
      <trkpt lat="39.8388240" lon="-6.1215480">
        <ele>528.8</ele>
        <time>2019-07-09T14:38:57Z</time>
      </trkpt>
      <trkpt lat="39.8388160" lon="-6.1215600">
        <ele>529.0</ele>
        <time>2019-07-09T14:38:58Z</time>
      </trkpt>
      <trkpt lat="39.8387960" lon="-6.1215840">
        <ele>529.4</ele>
        <time>2019-07-09T14:39:00Z</time>
      </trkpt>
      <trkpt lat="39.8387650" lon="-6.1216200">
        <ele>530.0</ele>
        <time>2019-07-09T14:39:03Z</time>
      </trkpt>
      <trkpt lat="39.8387340" lon="-6.1216560">
        <ele>530.6</ele>
        <time>2019-07-09T14:39:06Z</time>
      </trkpt>
      <trkpt lat="39.8387140" lon="-6.1216740">
        <ele>531.2</ele>
        <time>2019-07-09T14:39:08Z</time>
      </trkpt>
      <trkpt lat="39.8386780" lon="-6.1217210">
        <ele>532.0</ele>
        <time>2019-07-09T14:39:12Z</time>
      </trkpt>
      <trkpt lat="39.8386590" lon="-6.1217480">
        <ele>532.4</ele>
        <time>2019-07-09T14:39:14Z</time>
      </trkpt>
      <trkpt lat="39.8386220" lon="-6.1218160">
        <ele>533.4</ele>
        <time>2019-07-09T14:39:19Z</time>
      </trkpt>
      <trkpt lat="39.8385680" lon="-6.1219080">
        <ele>534.6</ele>
        <time>2019-07-09T14:39:26Z</time>
      </trkpt>
      <trkpt lat="39.8385520" lon="-6.1219300">
        <ele>535.2</ele>
        <time>2019-07-09T14:39:28Z</time>
      </trkpt>
      <trkpt lat="39.8385310" lon="-6.1219490">
        <ele>535.6</ele>
        <time>2019-07-09T14:39:30Z</time>
      </trkpt>
      <trkpt lat="39.8384840" lon="-6.1219980">
        <ele>536.8</ele>
        <time>2019-07-09T14:39:35Z</time>
      </trkpt>
      <trkpt lat="39.8384760" lon="-6.1220090">
        <ele>537.0</ele>
        <time>2019-07-09T14:39:36Z</time>
      </trkpt>
      <trkpt lat="39.8384330" lon="-6.1220530">
        <ele>538.0</ele>
        <time>2019-07-09T14:39:41Z</time>
      </trkpt>
      <trkpt lat="39.8384090" lon="-6.1220840">
        <ele>538.6</ele>
        <time>2019-07-09T14:39:44Z</time>
      </trkpt>
      <trkpt lat="39.8383960" lon="-6.1221140">
        <ele>539.0</ele>
        <time>2019-07-09T14:39:46Z</time>
      </trkpt>
      <trkpt lat="39.8383910" lon="-6.1221320">
        <ele>539.2</ele>
        <time>2019-07-09T14:39:47Z</time>
      </trkpt>
      <trkpt lat="39.8383750" lon="-6.1221810">
        <ele>539.6</ele>
        <time>2019-07-09T14:39:50Z</time>
      </trkpt>
      <trkpt lat="39.8383570" lon="-6.1222040">
        <ele>540.4</ele>
        <time>2019-07-09T14:39:52Z</time>
      </trkpt>
      <trkpt lat="39.8383470" lon="-6.1222160">
        <ele>540.6</ele>
        <time>2019-07-09T14:39:53Z</time>
      </trkpt>
      <trkpt lat="39.8382860" lon="-6.1222780">
        <ele>541.4</ele>
        <time>2019-07-09T14:39:59Z</time>
      </trkpt>
      <trkpt lat="39.8381940" lon="-6.1222770">
        <ele>542.6</ele>
        <time>2019-07-09T14:40:06Z</time>
      </trkpt>
      <trkpt lat="39.8381710" lon="-6.1222850">
        <ele>542.8</ele>
        <time>2019-07-09T14:40:08Z</time>
      </trkpt>
      <trkpt lat="39.8381700" lon="-6.1223270">
        <ele>543.2</ele>
        <time>2019-07-09T14:40:11Z</time>
      </trkpt>
      <trkpt lat="39.8382190" lon="-6.1223210">
        <ele>542.8</ele>
        <time>2019-07-09T14:40:15Z</time>
      </trkpt>
      <trkpt lat="39.8381670" lon="-6.1222660">
        <ele>542.8</ele>
        <time>2019-07-09T14:40:20Z</time>
      </trkpt>
      <trkpt lat="39.8381030" lon="-6.1222680">
        <ele>543.2</ele>
        <time>2019-07-09T14:40:24Z</time>
      </trkpt>
      <trkpt lat="39.8380500" lon="-6.1222840">
        <ele>543.2</ele>
        <time>2019-07-09T14:40:27Z</time>
      </trkpt>
      <trkpt lat="39.8379690" lon="-6.1223030">
        <ele>543.4</ele>
        <time>2019-07-09T14:40:31Z</time>
      </trkpt>
      <trkpt lat="39.8379470" lon="-6.1223060">
        <ele>543.4</ele>
        <time>2019-07-09T14:40:32Z</time>
      </trkpt>
      <trkpt lat="39.8379240" lon="-6.1223100">
        <ele>543.4</ele>
        <time>2019-07-09T14:40:33Z</time>
      </trkpt>
      <trkpt lat="39.8378500" lon="-6.1223430">
        <ele>543.4</ele>
        <time>2019-07-09T14:40:36Z</time>
      </trkpt>
      <trkpt lat="39.8377960" lon="-6.1223730">
        <ele>543.4</ele>
        <time>2019-07-09T14:40:38Z</time>
      </trkpt>
      <trkpt lat="39.8377390" lon="-6.1224090">
        <ele>543.2</ele>
        <time>2019-07-09T14:40:40Z</time>
      </trkpt>
      <trkpt lat="39.8376520" lon="-6.1224730">
        <ele>542.8</ele>
        <time>2019-07-09T14:40:43Z</time>
      </trkpt>
      <trkpt lat="39.8376290" lon="-6.1225050">
        <ele>542.8</ele>
        <time>2019-07-09T14:40:44Z</time>
      </trkpt>
      <trkpt lat="39.8375880" lon="-6.1225760">
        <ele>542.2</ele>
        <time>2019-07-09T14:40:46Z</time>
      </trkpt>
      <trkpt lat="39.8375270" lon="-6.1227320">
        <ele>541.6</ele>
        <time>2019-07-09T14:40:49Z</time>
      </trkpt>
      <trkpt lat="39.8375080" lon="-6.1227970">
        <ele>541.6</ele>
        <time>2019-07-09T14:40:50Z</time>
      </trkpt>
      <trkpt lat="39.8374870" lon="-6.1228700">
        <ele>541.2</ele>
        <time>2019-07-09T14:40:51Z</time>
      </trkpt>
      <trkpt lat="39.8374480" lon="-6.1230270">
        <ele>541.2</ele>
        <time>2019-07-09T14:40:53Z</time>
      </trkpt>
      <trkpt lat="39.8374260" lon="-6.1232060">
        <ele>540.0</ele>
        <time>2019-07-09T14:40:55Z</time>
      </trkpt>
      <trkpt lat="39.8373940" lon="-6.1233980">
        <ele>538.8</ele>
        <time>2019-07-09T14:40:57Z</time>
      </trkpt>
      <trkpt lat="39.8373780" lon="-6.1234990">
        <ele>538.2</ele>
        <time>2019-07-09T14:40:58Z</time>
      </trkpt>
      <trkpt lat="39.8373620" lon="-6.1236030">
        <ele>537.2</ele>
        <time>2019-07-09T14:40:59Z</time>
      </trkpt>
      <trkpt lat="39.8373310" lon="-6.1238100">
        <ele>536.2</ele>
        <time>2019-07-09T14:41:01Z</time>
      </trkpt>
      <trkpt lat="39.8373080" lon="-6.1239760">
        <ele>535.6</ele>
        <time>2019-07-09T14:41:03Z</time>
      </trkpt>
      <trkpt lat="39.8372870" lon="-6.1241110">
        <ele>535.0</ele>
        <time>2019-07-09T14:41:05Z</time>
      </trkpt>
      <trkpt lat="39.8372540" lon="-6.1242770">
        <ele>534.2</ele>
        <time>2019-07-09T14:41:08Z</time>
      </trkpt>
      <trkpt lat="39.8372460" lon="-6.1242950">
        <ele>533.8</ele>
        <time>2019-07-09T14:41:09Z</time>
      </trkpt>
      <trkpt lat="39.8372420" lon="-6.1242990">
        <ele>533.6</ele>
        <time>2019-07-09T14:41:10Z</time>
      </trkpt>
      <trkpt lat="39.8372430" lon="-6.1242980">
        <ele>533.4</ele>
        <time>2019-07-09T14:41:11Z</time>
      </trkpt>
      <trkpt lat="39.8372360" lon="-6.1243300">
        <ele>533.2</ele>
        <time>2019-07-09T14:41:19Z</time>
      </trkpt>
      <trkpt lat="39.8372330" lon="-6.1243850">
        <ele>533.2</ele>
        <time>2019-07-09T14:41:21Z</time>
      </trkpt>
      <trkpt lat="39.8372310" lon="-6.1246030">
        <ele>533.2</ele>
        <time>2019-07-09T14:41:26Z</time>
      </trkpt>
      <trkpt lat="39.8372250" lon="-6.1247760">
        <ele>532.6</ele>
        <time>2019-07-09T14:41:29Z</time>
      </trkpt>
      <trkpt lat="39.8372230" lon="-6.1249080">
        <ele>532.2</ele>
        <time>2019-07-09T14:41:31Z</time>
      </trkpt>
      <trkpt lat="39.8372230" lon="-6.1249790">
        <ele>531.8</ele>
        <time>2019-07-09T14:41:32Z</time>
      </trkpt>
      <trkpt lat="39.8372220" lon="-6.1250530">
        <ele>531.4</ele>
        <time>2019-07-09T14:41:33Z</time>
      </trkpt>
      <trkpt lat="39.8372210" lon="-6.1253740">
        <ele>530.4</ele>
        <time>2019-07-09T14:41:37Z</time>
      </trkpt>
      <trkpt lat="39.8372210" lon="-6.1255420">
        <ele>529.6</ele>
        <time>2019-07-09T14:41:39Z</time>
      </trkpt>
      <trkpt lat="39.8372180" lon="-6.1256270">
        <ele>529.2</ele>
        <time>2019-07-09T14:41:40Z</time>
      </trkpt>
      <trkpt lat="39.8372000" lon="-6.1258060">
        <ele>528.8</ele>
        <time>2019-07-09T14:41:42Z</time>
      </trkpt>
      <trkpt lat="39.8371660" lon="-6.1259960">
        <ele>527.8</ele>
        <time>2019-07-09T14:41:44Z</time>
      </trkpt>
      <trkpt lat="39.8371320" lon="-6.1261740">
        <ele>526.4</ele>
        <time>2019-07-09T14:41:46Z</time>
      </trkpt>
      <trkpt lat="39.8370790" lon="-6.1264350">
        <ele>525.0</ele>
        <time>2019-07-09T14:41:49Z</time>
      </trkpt>
      <trkpt lat="39.8370180" lon="-6.1267230">
        <ele>524.2</ele>
        <time>2019-07-09T14:41:52Z</time>
      </trkpt>
      <trkpt lat="39.8369990" lon="-6.1268200">
        <ele>523.8</ele>
        <time>2019-07-09T14:41:53Z</time>
      </trkpt>
      <trkpt lat="39.8369830" lon="-6.1269130">
        <ele>523.4</ele>
        <time>2019-07-09T14:41:54Z</time>
      </trkpt>
      <trkpt lat="39.8369480" lon="-6.1271020">
        <ele>522.2</ele>
        <time>2019-07-09T14:41:56Z</time>
      </trkpt>
      <trkpt lat="39.8369220" lon="-6.1272940">
        <ele>521.2</ele>
        <time>2019-07-09T14:41:58Z</time>
      </trkpt>
      <trkpt lat="39.8369160" lon="-6.1273860">
        <ele>521.0</ele>
        <time>2019-07-09T14:41:59Z</time>
      </trkpt>
      <trkpt lat="39.8369160" lon="-6.1276530">
        <ele>520.0</ele>
        <time>2019-07-09T14:42:02Z</time>
      </trkpt>
      <trkpt lat="39.8369230" lon="-6.1277420">
        <ele>519.6</ele>
        <time>2019-07-09T14:42:03Z</time>
      </trkpt>
      <trkpt lat="39.8369440" lon="-6.1279200">
        <ele>519.0</ele>
        <time>2019-07-09T14:42:05Z</time>
      </trkpt>
      <trkpt lat="39.8369540" lon="-6.1280080">
        <ele>518.8</ele>
        <time>2019-07-09T14:42:06Z</time>
      </trkpt>
      <trkpt lat="39.8369730" lon="-6.1281830">
        <ele>518.0</ele>
        <time>2019-07-09T14:42:08Z</time>
      </trkpt>
      <trkpt lat="39.8369800" lon="-6.1282710">
        <ele>517.6</ele>
        <time>2019-07-09T14:42:09Z</time>
      </trkpt>
      <trkpt lat="39.8369880" lon="-6.1286190">
        <ele>517.2</ele>
        <time>2019-07-09T14:42:13Z</time>
      </trkpt>
      <trkpt lat="39.8369780" lon="-6.1287960">
        <ele>516.4</ele>
        <time>2019-07-09T14:42:15Z</time>
      </trkpt>
      <trkpt lat="39.8369390" lon="-6.1290670">
        <ele>515.4</ele>
        <time>2019-07-09T14:42:18Z</time>
      </trkpt>
      <trkpt lat="39.8369220" lon="-6.1291610">
        <ele>515.2</ele>
        <time>2019-07-09T14:42:19Z</time>
      </trkpt>
      <trkpt lat="39.8368190" lon="-6.1296580">
        <ele>513.8</ele>
        <time>2019-07-09T14:42:24Z</time>
      </trkpt>
      <trkpt lat="39.8367960" lon="-6.1297580">
        <ele>513.2</ele>
        <time>2019-07-09T14:42:25Z</time>
      </trkpt>
      <trkpt lat="39.8367730" lon="-6.1298540">
        <ele>512.6</ele>
        <time>2019-07-09T14:42:26Z</time>
      </trkpt>
      <trkpt lat="39.8367340" lon="-6.1300410">
        <ele>511.6</ele>
        <time>2019-07-09T14:42:28Z</time>
      </trkpt>
      <trkpt lat="39.8366990" lon="-6.1302290">
        <ele>510.4</ele>
        <time>2019-07-09T14:42:30Z</time>
      </trkpt>
      <trkpt lat="39.8366640" lon="-6.1304190">
        <ele>509.8</ele>
        <time>2019-07-09T14:42:32Z</time>
      </trkpt>
      <trkpt lat="39.8366100" lon="-6.1307100">
        <ele>509.4</ele>
        <time>2019-07-09T14:42:35Z</time>
      </trkpt>
      <trkpt lat="39.8365600" lon="-6.1310090">
        <ele>507.8</ele>
        <time>2019-07-09T14:42:38Z</time>
      </trkpt>
      <trkpt lat="39.8365060" lon="-6.1313200">
        <ele>506.8</ele>
        <time>2019-07-09T14:42:41Z</time>
      </trkpt>
      <trkpt lat="39.8364880" lon="-6.1314260">
        <ele>506.6</ele>
        <time>2019-07-09T14:42:42Z</time>
      </trkpt>
      <trkpt lat="39.8363910" lon="-6.1320470">
        <ele>505.2</ele>
        <time>2019-07-09T14:42:48Z</time>
      </trkpt>
      <trkpt lat="39.8363450" lon="-6.1323460">
        <ele>503.6</ele>
        <time>2019-07-09T14:42:51Z</time>
      </trkpt>
      <trkpt lat="39.8363140" lon="-6.1325490">
        <ele>502.2</ele>
        <time>2019-07-09T14:42:53Z</time>
      </trkpt>
      <trkpt lat="39.8362670" lon="-6.1328590">
        <ele>501.4</ele>
        <time>2019-07-09T14:42:56Z</time>
      </trkpt>
      <trkpt lat="39.8362520" lon="-6.1329600">
        <ele>500.8</ele>
        <time>2019-07-09T14:42:57Z</time>
      </trkpt>
      <trkpt lat="39.8362110" lon="-6.1333300">
        <ele>499.8</ele>
        <time>2019-07-09T14:43:01Z</time>
      </trkpt>
      <trkpt lat="39.8362110" lon="-6.1334170">
        <ele>499.4</ele>
        <time>2019-07-09T14:43:02Z</time>
      </trkpt>
      <trkpt lat="39.8362320" lon="-6.1335830">
        <ele>498.6</ele>
        <time>2019-07-09T14:43:04Z</time>
      </trkpt>
      <trkpt lat="39.8362840" lon="-6.1338230">
        <ele>497.6</ele>
        <time>2019-07-09T14:43:07Z</time>
      </trkpt>
      <trkpt lat="39.8363020" lon="-6.1339030">
        <ele>497.4</ele>
        <time>2019-07-09T14:43:08Z</time>
      </trkpt>
      <trkpt lat="39.8363350" lon="-6.1341610">
        <ele>496.8</ele>
        <time>2019-07-09T14:43:11Z</time>
      </trkpt>
      <trkpt lat="39.8363360" lon="-6.1342510">
        <ele>496.6</ele>
        <time>2019-07-09T14:43:12Z</time>
      </trkpt>
      <trkpt lat="39.8363330" lon="-6.1343430">
        <ele>496.2</ele>
        <time>2019-07-09T14:43:13Z</time>
      </trkpt>
      <trkpt lat="39.8362940" lon="-6.1346220">
        <ele>495.4</ele>
        <time>2019-07-09T14:43:16Z</time>
      </trkpt>
      <trkpt lat="39.8362660" lon="-6.1347120">
        <ele>494.8</ele>
        <time>2019-07-09T14:43:17Z</time>
      </trkpt>
      <trkpt lat="39.8361590" lon="-6.1349670">
        <ele>493.8</ele>
        <time>2019-07-09T14:43:20Z</time>
      </trkpt>
      <trkpt lat="39.8360890" lon="-6.1351290">
        <ele>493.4</ele>
        <time>2019-07-09T14:43:22Z</time>
      </trkpt>
      <trkpt lat="39.8360240" lon="-6.1352980">
        <ele>492.4</ele>
        <time>2019-07-09T14:43:24Z</time>
      </trkpt>
      <trkpt lat="39.8359390" lon="-6.1355690">
        <ele>491.4</ele>
        <time>2019-07-09T14:43:27Z</time>
      </trkpt>
      <trkpt lat="39.8358970" lon="-6.1357610">
        <ele>490.8</ele>
        <time>2019-07-09T14:43:29Z</time>
      </trkpt>
      <trkpt lat="39.8358580" lon="-6.1359560">
        <ele>490.2</ele>
        <time>2019-07-09T14:43:31Z</time>
      </trkpt>
      <trkpt lat="39.8357810" lon="-6.1363520">
        <ele>489.0</ele>
        <time>2019-07-09T14:43:35Z</time>
      </trkpt>
      <trkpt lat="39.8357460" lon="-6.1365460">
        <ele>488.8</ele>
        <time>2019-07-09T14:43:37Z</time>
      </trkpt>
      <trkpt lat="39.8356760" lon="-6.1369170">
        <ele>487.6</ele>
        <time>2019-07-09T14:43:41Z</time>
      </trkpt>
      <trkpt lat="39.8356280" lon="-6.1371870">
        <ele>486.4</ele>
        <time>2019-07-09T14:43:44Z</time>
      </trkpt>
      <trkpt lat="39.8356120" lon="-6.1372780">
        <ele>486.2</ele>
        <time>2019-07-09T14:43:45Z</time>
      </trkpt>
      <trkpt lat="39.8355140" lon="-6.1378200">
        <ele>485.2</ele>
        <time>2019-07-09T14:43:51Z</time>
      </trkpt>
      <trkpt lat="39.8354800" lon="-6.1379990">
        <ele>484.0</ele>
        <time>2019-07-09T14:43:53Z</time>
      </trkpt>
      <trkpt lat="39.8354440" lon="-6.1381810">
        <ele>482.8</ele>
        <time>2019-07-09T14:43:55Z</time>
      </trkpt>
      <trkpt lat="39.8353580" lon="-6.1385520">
        <ele>481.4</ele>
        <time>2019-07-09T14:43:59Z</time>
      </trkpt>
      <trkpt lat="39.8352990" lon="-6.1387380">
        <ele>480.2</ele>
        <time>2019-07-09T14:44:01Z</time>
      </trkpt>
      <trkpt lat="39.8352640" lon="-6.1388320">
        <ele>479.8</ele>
        <time>2019-07-09T14:44:02Z</time>
      </trkpt>
      <trkpt lat="39.8351890" lon="-6.1390200">
        <ele>479.0</ele>
        <time>2019-07-09T14:44:04Z</time>
      </trkpt>
      <trkpt lat="39.8350730" lon="-6.1393000">
        <ele>477.0</ele>
        <time>2019-07-09T14:44:07Z</time>
      </trkpt>
      <trkpt lat="39.8350010" lon="-6.1394710">
        <ele>476.0</ele>
        <time>2019-07-09T14:44:09Z</time>
      </trkpt>
      <trkpt lat="39.8349300" lon="-6.1396480">
        <ele>475.2</ele>
        <time>2019-07-09T14:44:11Z</time>
      </trkpt>
      <trkpt lat="39.8348610" lon="-6.1398230">
        <ele>474.6</ele>
        <time>2019-07-09T14:44:13Z</time>
      </trkpt>
      <trkpt lat="39.8347960" lon="-6.1399890">
        <ele>473.4</ele>
        <time>2019-07-09T14:44:15Z</time>
      </trkpt>
      <trkpt lat="39.8347650" lon="-6.1400680">
        <ele>472.2</ele>
        <time>2019-07-09T14:44:16Z</time>
      </trkpt>
      <trkpt lat="39.8347080" lon="-6.1402180">
        <ele>471.0</ele>
        <time>2019-07-09T14:44:18Z</time>
      </trkpt>
      <trkpt lat="39.8345960" lon="-6.1405390">
        <ele>469.8</ele>
        <time>2019-07-09T14:44:22Z</time>
      </trkpt>
      <trkpt lat="39.8345220" lon="-6.1407800">
        <ele>468.2</ele>
        <time>2019-07-09T14:44:25Z</time>
      </trkpt>
      <trkpt lat="39.8344890" lon="-6.1409230">
        <ele>467.4</ele>
        <time>2019-07-09T14:44:27Z</time>
      </trkpt>
      <trkpt lat="39.8344760" lon="-6.1409940">
        <ele>466.8</ele>
        <time>2019-07-09T14:44:28Z</time>
      </trkpt>
      <trkpt lat="39.8344350" lon="-6.1412190">
        <ele>465.8</ele>
        <time>2019-07-09T14:44:31Z</time>
      </trkpt>
      <trkpt lat="39.8344020" lon="-6.1415260">
        <ele>465.0</ele>
        <time>2019-07-09T14:44:35Z</time>
      </trkpt>
      <trkpt lat="39.8343980" lon="-6.1417180">
        <ele>463.8</ele>
        <time>2019-07-09T14:44:38Z</time>
      </trkpt>
      <trkpt lat="39.8344050" lon="-6.1418520">
        <ele>463.6</ele>
        <time>2019-07-09T14:44:40Z</time>
      </trkpt>
      <trkpt lat="39.8344090" lon="-6.1419970">
        <ele>463.4</ele>
        <time>2019-07-09T14:44:42Z</time>
      </trkpt>
      <trkpt lat="39.8344150" lon="-6.1422320">
        <ele>462.8</ele>
        <time>2019-07-09T14:44:45Z</time>
      </trkpt>
      <trkpt lat="39.8344230" lon="-6.1423960">
        <ele>462.2</ele>
        <time>2019-07-09T14:44:47Z</time>
      </trkpt>
      <trkpt lat="39.8344250" lon="-6.1424800">
        <ele>461.8</ele>
        <time>2019-07-09T14:44:48Z</time>
      </trkpt>
      <trkpt lat="39.8344520" lon="-6.1429820">
        <ele>461.0</ele>
        <time>2019-07-09T14:44:54Z</time>
      </trkpt>
      <trkpt lat="39.8344620" lon="-6.1430610">
        <ele>460.8</ele>
        <time>2019-07-09T14:44:55Z</time>
      </trkpt>
      <trkpt lat="39.8345380" lon="-6.1433820">
        <ele>459.4</ele>
        <time>2019-07-09T14:44:59Z</time>
      </trkpt>
      <trkpt lat="39.8345640" lon="-6.1434620">
        <ele>458.6</ele>
        <time>2019-07-09T14:45:00Z</time>
      </trkpt>
      <trkpt lat="39.8345920" lon="-6.1435400">
        <ele>458.0</ele>
        <time>2019-07-09T14:45:01Z</time>
      </trkpt>
      <trkpt lat="39.8346760" lon="-6.1437560">
        <ele>457.0</ele>
        <time>2019-07-09T14:45:04Z</time>
      </trkpt>
      <trkpt lat="39.8347140" lon="-6.1439040">
        <ele>456.2</ele>
        <time>2019-07-09T14:45:06Z</time>
      </trkpt>
      <trkpt lat="39.8347240" lon="-6.1439830">
        <ele>455.8</ele>
        <time>2019-07-09T14:45:07Z</time>
      </trkpt>
      <trkpt lat="39.8347020" lon="-6.1442290">
        <ele>454.8</ele>
        <time>2019-07-09T14:45:10Z</time>
      </trkpt>
      <trkpt lat="39.8346780" lon="-6.1443100">
        <ele>454.4</ele>
        <time>2019-07-09T14:45:11Z</time>
      </trkpt>
      <trkpt lat="39.8346110" lon="-6.1444600">
        <ele>453.0</ele>
        <time>2019-07-09T14:45:13Z</time>
      </trkpt>
      <trkpt lat="39.8345710" lon="-6.1445290">
        <ele>452.6</ele>
        <time>2019-07-09T14:45:14Z</time>
      </trkpt>
      <trkpt lat="39.8345300" lon="-6.1445970">
        <ele>452.4</ele>
        <time>2019-07-09T14:45:15Z</time>
      </trkpt>
      <trkpt lat="39.8344490" lon="-6.1447280">
        <ele>451.8</ele>
        <time>2019-07-09T14:45:17Z</time>
      </trkpt>
      <trkpt lat="39.8343470" lon="-6.1449050">
        <ele>451.2</ele>
        <time>2019-07-09T14:45:20Z</time>
      </trkpt>
      <trkpt lat="39.8342860" lon="-6.1450060">
        <ele>450.6</ele>
        <time>2019-07-09T14:45:22Z</time>
      </trkpt>
      <trkpt lat="39.8342230" lon="-6.1451020">
        <ele>449.2</ele>
        <time>2019-07-09T14:45:25Z</time>
      </trkpt>
      <trkpt lat="39.8341430" lon="-6.1451310">
        <ele>447.8</ele>
        <time>2019-07-09T14:45:28Z</time>
      </trkpt>
      <trkpt lat="39.8340960" lon="-6.1451260">
        <ele>447.2</ele>
        <time>2019-07-09T14:45:29Z</time>
      </trkpt>
      <trkpt lat="39.8340400" lon="-6.1451070">
        <ele>446.4</ele>
        <time>2019-07-09T14:45:30Z</time>
      </trkpt>
      <trkpt lat="39.8339090" lon="-6.1450450">
        <ele>445.0</ele>
        <time>2019-07-09T14:45:32Z</time>
      </trkpt>
      <trkpt lat="39.8337790" lon="-6.1449870">
        <ele>443.6</ele>
        <time>2019-07-09T14:45:34Z</time>
      </trkpt>
      <trkpt lat="39.8335820" lon="-6.1449010">
        <ele>442.0</ele>
        <time>2019-07-09T14:45:37Z</time>
      </trkpt>
      <trkpt lat="39.8334420" lon="-6.1448270">
        <ele>440.6</ele>
        <time>2019-07-09T14:45:39Z</time>
      </trkpt>
      <trkpt lat="39.8333060" lon="-6.1447400">
        <ele>439.6</ele>
        <time>2019-07-09T14:45:41Z</time>
      </trkpt>
      <trkpt lat="39.8332410" lon="-6.1446920">
        <ele>438.4</ele>
        <time>2019-07-09T14:45:42Z</time>
      </trkpt>
      <trkpt lat="39.8331100" lon="-6.1445750">
        <ele>436.4</ele>
        <time>2019-07-09T14:45:44Z</time>
      </trkpt>
      <trkpt lat="39.8329960" lon="-6.1444200">
        <ele>435.0</ele>
        <time>2019-07-09T14:45:46Z</time>
      </trkpt>
      <trkpt lat="39.8328870" lon="-6.1442620">
        <ele>434.0</ele>
        <time>2019-07-09T14:45:48Z</time>
      </trkpt>
      <trkpt lat="39.8327650" lon="-6.1440970">
        <ele>432.8</ele>
        <time>2019-07-09T14:45:50Z</time>
      </trkpt>
      <trkpt lat="39.8327080" lon="-6.1440140">
        <ele>432.2</ele>
        <time>2019-07-09T14:45:51Z</time>
      </trkpt>
      <trkpt lat="39.8326550" lon="-6.1439370">
        <ele>431.4</ele>
        <time>2019-07-09T14:45:52Z</time>
      </trkpt>
      <trkpt lat="39.8325520" lon="-6.1437990">
        <ele>430.0</ele>
        <time>2019-07-09T14:45:54Z</time>
      </trkpt>
      <trkpt lat="39.8324530" lon="-6.1436570">
        <ele>429.0</ele>
        <time>2019-07-09T14:45:56Z</time>
      </trkpt>
      <trkpt lat="39.8323990" lon="-6.1435790">
        <ele>428.4</ele>
        <time>2019-07-09T14:45:57Z</time>
      </trkpt>
      <trkpt lat="39.8322740" lon="-6.1434140">
        <ele>427.2</ele>
        <time>2019-07-09T14:45:59Z</time>
      </trkpt>
      <trkpt lat="39.8322050" lon="-6.1433350">
        <ele>426.0</ele>
        <time>2019-07-09T14:46:00Z</time>
      </trkpt>
      <trkpt lat="39.8320750" lon="-6.1431850">
        <ele>424.2</ele>
        <time>2019-07-09T14:46:02Z</time>
      </trkpt>
      <trkpt lat="39.8319380" lon="-6.1430390">
        <ele>422.2</ele>
        <time>2019-07-09T14:46:04Z</time>
      </trkpt>
      <trkpt lat="39.8318010" lon="-6.1428840">
        <ele>421.0</ele>
        <time>2019-07-09T14:46:06Z</time>
      </trkpt>
      <trkpt lat="39.8316750" lon="-6.1427460">
        <ele>419.8</ele>
        <time>2019-07-09T14:46:08Z</time>
      </trkpt>
      <trkpt lat="39.8315630" lon="-6.1426360">
        <ele>418.4</ele>
        <time>2019-07-09T14:46:10Z</time>
      </trkpt>
      <trkpt lat="39.8313990" lon="-6.1424890">
        <ele>417.2</ele>
        <time>2019-07-09T14:46:13Z</time>
      </trkpt>
      <trkpt lat="39.8312570" lon="-6.1423420">
        <ele>415.8</ele>
        <time>2019-07-09T14:46:16Z</time>
      </trkpt>
      <trkpt lat="39.8312150" lon="-6.1422830">
        <ele>415.4</ele>
        <time>2019-07-09T14:46:17Z</time>
      </trkpt>
      <trkpt lat="39.8311300" lon="-6.1421440">
        <ele>414.6</ele>
        <time>2019-07-09T14:46:19Z</time>
      </trkpt>
      <trkpt lat="39.8310880" lon="-6.1420710">
        <ele>414.4</ele>
        <time>2019-07-09T14:46:20Z</time>
      </trkpt>
      <trkpt lat="39.8309750" lon="-6.1418360">
        <ele>413.6</ele>
        <time>2019-07-09T14:46:23Z</time>
      </trkpt>
      <trkpt lat="39.8309000" lon="-6.1416720">
        <ele>412.2</ele>
        <time>2019-07-09T14:46:25Z</time>
      </trkpt>
      <trkpt lat="39.8307260" lon="-6.1414060">
        <ele>411.2</ele>
        <time>2019-07-09T14:46:29Z</time>
      </trkpt>
      <trkpt lat="39.8306810" lon="-6.1413490">
        <ele>410.8</ele>
        <time>2019-07-09T14:46:30Z</time>
      </trkpt>
      <trkpt lat="39.8305910" lon="-6.1412440">
        <ele>409.8</ele>
        <time>2019-07-09T14:46:32Z</time>
      </trkpt>
      <trkpt lat="39.8305180" lon="-6.1411770">
        <ele>409.2</ele>
        <time>2019-07-09T14:46:34Z</time>
      </trkpt>
      <trkpt lat="39.8304620" lon="-6.1411240">
        <ele>408.8</ele>
        <time>2019-07-09T14:46:36Z</time>
      </trkpt>
      <trkpt lat="39.8303510" lon="-6.1409990">
        <ele>408.0</ele>
        <time>2019-07-09T14:46:40Z</time>
      </trkpt>
      <trkpt lat="39.8303130" lon="-6.1409610">
        <ele>407.8</ele>
        <time>2019-07-09T14:46:42Z</time>
      </trkpt>
      <trkpt lat="39.8302430" lon="-6.1408940">
        <ele>407.6</ele>
        <time>2019-07-09T14:46:45Z</time>
      </trkpt>
      <trkpt lat="39.8301250" lon="-6.1407670">
        <ele>406.8</ele>
        <time>2019-07-09T14:46:50Z</time>
      </trkpt>
      <trkpt lat="39.8300820" lon="-6.1407080">
        <ele>406.8</ele>
        <time>2019-07-09T14:46:52Z</time>
      </trkpt>
      <trkpt lat="39.8299960" lon="-6.1406170">
        <ele>406.6</ele>
        <time>2019-07-09T14:46:55Z</time>
      </trkpt>
      <trkpt lat="39.8298870" lon="-6.1404050">
        <ele>406.0</ele>
        <time>2019-07-09T14:47:00Z</time>
      </trkpt>
      <trkpt lat="39.8298580" lon="-6.1403760">
        <ele>405.6</ele>
        <time>2019-07-09T14:47:01Z</time>
      </trkpt>
      <trkpt lat="39.8297690" lon="-6.1403150">
        <ele>405.0</ele>
        <time>2019-07-09T14:47:04Z</time>
      </trkpt>
      <trkpt lat="39.8297100" lon="-6.1402670">
        <ele>404.6</ele>
        <time>2019-07-09T14:47:06Z</time>
      </trkpt>
      <trkpt lat="39.8296610" lon="-6.1402160">
        <ele>404.2</ele>
        <time>2019-07-09T14:47:08Z</time>
      </trkpt>
      <trkpt lat="39.8296440" lon="-6.1401960">
        <ele>404.2</ele>
        <time>2019-07-09T14:47:09Z</time>
      </trkpt>
      <trkpt lat="39.8296170" lon="-6.1401280">
        <ele>404.0</ele>
        <time>2019-07-09T14:47:11Z</time>
      </trkpt>
      <trkpt lat="39.8295770" lon="-6.1399680">
        <ele>403.4</ele>
        <time>2019-07-09T14:47:15Z</time>
      </trkpt>
      <trkpt lat="39.8295490" lon="-6.1399100">
        <ele>403.2</ele>
        <time>2019-07-09T14:47:17Z</time>
      </trkpt>
      <trkpt lat="39.8295070" lon="-6.1398680">
        <ele>402.8</ele>
        <time>2019-07-09T14:47:20Z</time>
      </trkpt>
      <trkpt lat="39.8294930" lon="-6.1398540">
        <ele>402.6</ele>
        <time>2019-07-09T14:47:22Z</time>
      </trkpt>
      <trkpt lat="39.8294890" lon="-6.1398530">
        <ele>402.4</ele>
        <time>2019-07-09T14:47:23Z</time>
      </trkpt>
      <trkpt lat="39.8294240" lon="-6.1398700">
        <ele>403.4</ele>
        <time>2019-07-09T14:55:13Z</time>
      </trkpt>
      <trkpt lat="39.8294060" lon="-6.1399010">
        <ele>403.4</ele>
        <time>2019-07-09T14:55:14Z</time>
      </trkpt>
      <trkpt lat="39.8293900" lon="-6.1399330">
        <ele>403.6</ele>
        <time>2019-07-09T14:55:15Z</time>
      </trkpt>
      <trkpt lat="39.8293470" lon="-6.1401380">
        <ele>403.4</ele>
        <time>2019-07-09T14:55:21Z</time>
      </trkpt>
      <trkpt lat="39.8292980" lon="-6.1402990">
        <ele>403.8</ele>
        <time>2019-07-09T14:55:26Z</time>
      </trkpt>
      <trkpt lat="39.8292390" lon="-6.1404780">
        <ele>404.0</ele>
        <time>2019-07-09T14:55:31Z</time>
      </trkpt>
      <trkpt lat="39.8292290" lon="-6.1405170">
        <ele>404.0</ele>
        <time>2019-07-09T14:55:32Z</time>
      </trkpt>
      <trkpt lat="39.8291870" lon="-6.1406550">
        <ele>404.4</ele>
        <time>2019-07-09T14:55:36Z</time>
      </trkpt>
      <trkpt lat="39.8291790" lon="-6.1406880">
        <ele>404.6</ele>
        <time>2019-07-09T14:55:37Z</time>
      </trkpt>
      <trkpt lat="39.8291660" lon="-6.1407210">
        <ele>404.6</ele>
        <time>2019-07-09T14:55:38Z</time>
      </trkpt>
      <trkpt lat="39.8291570" lon="-6.1407580">
        <ele>404.8</ele>
        <time>2019-07-09T14:55:39Z</time>
      </trkpt>
      <trkpt lat="39.8291400" lon="-6.1408660">
        <ele>405.0</ele>
        <time>2019-07-09T14:55:42Z</time>
      </trkpt>
      <trkpt lat="39.8290640" lon="-6.1410810">
        <ele>405.0</ele>
        <time>2019-07-09T14:55:48Z</time>
      </trkpt>
      <trkpt lat="39.8289280" lon="-6.1412500">
        <ele>405.0</ele>
        <time>2019-07-09T14:55:53Z</time>
      </trkpt>
      <trkpt lat="39.8288090" lon="-6.1414750">
        <ele>405.4</ele>
        <time>2019-07-09T14:55:59Z</time>
      </trkpt>
      <trkpt lat="39.8287410" lon="-6.1416430">
        <ele>405.6</ele>
        <time>2019-07-09T14:56:03Z</time>
      </trkpt>
      <trkpt lat="39.8286850" lon="-6.1417210">
        <ele>405.6</ele>
        <time>2019-07-09T14:56:05Z</time>
      </trkpt>
      <trkpt lat="39.8285530" lon="-6.1418850">
        <ele>405.0</ele>
        <time>2019-07-09T14:56:09Z</time>
      </trkpt>
      <trkpt lat="39.8285180" lon="-6.1419230">
        <ele>405.0</ele>
        <time>2019-07-09T14:56:10Z</time>
      </trkpt>
      <trkpt lat="39.8284650" lon="-6.1419800">
        <ele>404.8</ele>
        <time>2019-07-09T14:56:13Z</time>
      </trkpt>
      <trkpt lat="39.8284660" lon="-6.1419840">
        <ele>404.8</ele>
        <time>2019-07-09T14:56:14Z</time>
      </trkpt>
      <trkpt lat="39.8284260" lon="-6.1420460">
        <ele>404.6</ele>
        <time>2019-07-09T14:56:54Z</time>
      </trkpt>
      <trkpt lat="39.8284120" lon="-6.1420620">
        <ele>404.6</ele>
        <time>2019-07-09T14:56:55Z</time>
      </trkpt>
      <trkpt lat="39.8283990" lon="-6.1420830">
        <ele>404.8</ele>
        <time>2019-07-09T14:56:56Z</time>
      </trkpt>
      <trkpt lat="39.8282880" lon="-6.1422360">
        <ele>405.0</ele>
        <time>2019-07-09T14:57:02Z</time>
      </trkpt>
      <trkpt lat="39.8282640" lon="-6.1422650">
        <ele>405.0</ele>
        <time>2019-07-09T14:57:03Z</time>
      </trkpt>
      <trkpt lat="39.8281220" lon="-6.1424740">
        <ele>405.0</ele>
        <time>2019-07-09T14:57:09Z</time>
      </trkpt>
      <trkpt lat="39.8280930" lon="-6.1425090">
        <ele>405.0</ele>
        <time>2019-07-09T14:57:10Z</time>
      </trkpt>
      <trkpt lat="39.8279470" lon="-6.1426930">
        <ele>404.6</ele>
        <time>2019-07-09T14:57:15Z</time>
      </trkpt>
      <trkpt lat="39.8278570" lon="-6.1428210">
        <ele>404.0</ele>
        <time>2019-07-09T14:57:18Z</time>
      </trkpt>
      <trkpt lat="39.8276720" lon="-6.1430750">
        <ele>404.2</ele>
        <time>2019-07-09T14:57:24Z</time>
      </trkpt>
      <trkpt lat="39.8276510" lon="-6.1431190">
        <ele>404.2</ele>
        <time>2019-07-09T14:57:25Z</time>
      </trkpt>
      <trkpt lat="39.8276480" lon="-6.1433190">
        <ele>404.2</ele>
        <time>2019-07-09T14:57:29Z</time>
      </trkpt>
      <trkpt lat="39.8276780" lon="-6.1437150">
        <ele>404.6</ele>
        <time>2019-07-09T14:57:36Z</time>
      </trkpt>
      <trkpt lat="39.8276730" lon="-6.1439080">
        <ele>404.6</ele>
        <time>2019-07-09T14:57:40Z</time>
      </trkpt>
      <trkpt lat="39.8276580" lon="-6.1439250">
        <ele>404.6</ele>
        <time>2019-07-09T14:57:41Z</time>
      </trkpt>
      <trkpt lat="39.8275920" lon="-6.1439470">
        <ele>404.6</ele>
        <time>2019-07-09T14:57:44Z</time>
      </trkpt>
      <trkpt lat="39.8274810" lon="-6.1439790">
        <ele>404.4</ele>
        <time>2019-07-09T14:57:48Z</time>
      </trkpt>
      <trkpt lat="39.8273120" lon="-6.1440280">
        <ele>403.8</ele>
        <time>2019-07-09T14:57:53Z</time>
      </trkpt>
      <trkpt lat="39.8273060" lon="-6.1440300">
        <ele>403.2</ele>
        <time>2019-07-09T14:57:54Z</time>
      </trkpt>
      <trkpt lat="39.8273060" lon="-6.1440290">
        <ele>403.0</ele>
        <time>2019-07-09T14:57:55Z</time>
      </trkpt>
      <trkpt lat="39.8272790" lon="-6.1440380">
        <ele>402.6</ele>
        <time>2019-07-09T14:58:27Z</time>
      </trkpt>
      <trkpt lat="39.8272610" lon="-6.1440460">
        <ele>402.6</ele>
        <time>2019-07-09T14:58:28Z</time>
      </trkpt>
      <trkpt lat="39.8271040" lon="-6.1440980">
        <ele>402.4</ele>
        <time>2019-07-09T14:58:33Z</time>
      </trkpt>
      <trkpt lat="39.8268740" lon="-6.1441590">
        <ele>402.2</ele>
        <time>2019-07-09T14:58:38Z</time>
      </trkpt>
      <trkpt lat="39.8268230" lon="-6.1441710">
        <ele>401.8</ele>
        <time>2019-07-09T14:58:39Z</time>
      </trkpt>
      <trkpt lat="39.8266040" lon="-6.1442310">
        <ele>401.0</ele>
        <time>2019-07-09T14:58:43Z</time>
      </trkpt>
      <trkpt lat="39.8264270" lon="-6.1442970">
        <ele>400.4</ele>
        <time>2019-07-09T14:58:46Z</time>
      </trkpt>
      <trkpt lat="39.8261650" lon="-6.1443890">
        <ele>400.0</ele>
        <time>2019-07-09T14:58:50Z</time>
      </trkpt>
      <trkpt lat="39.8259640" lon="-6.1444670">
        <ele>399.2</ele>
        <time>2019-07-09T14:58:53Z</time>
      </trkpt>
      <trkpt lat="39.8258970" lon="-6.1444910">
        <ele>398.8</ele>
        <time>2019-07-09T14:58:54Z</time>
      </trkpt>
      <trkpt lat="39.8257600" lon="-6.1445360">
        <ele>398.4</ele>
        <time>2019-07-09T14:58:56Z</time>
      </trkpt>
      <trkpt lat="39.8255650" lon="-6.1446340">
        <ele>398.0</ele>
        <time>2019-07-09T14:58:59Z</time>
      </trkpt>
      <trkpt lat="39.8255030" lon="-6.1446770">
        <ele>397.8</ele>
        <time>2019-07-09T14:59:00Z</time>
      </trkpt>
      <trkpt lat="39.8253310" lon="-6.1449250">
        <ele>397.4</ele>
        <time>2019-07-09T14:59:04Z</time>
      </trkpt>
      <trkpt lat="39.8252910" lon="-6.1450710">
        <ele>397.2</ele>
        <time>2019-07-09T14:59:06Z</time>
      </trkpt>
      <trkpt lat="39.8252260" lon="-6.1453630">
        <ele>397.0</ele>
        <time>2019-07-09T14:59:10Z</time>
      </trkpt>
      <trkpt lat="39.8251710" lon="-6.1455780">
        <ele>396.8</ele>
        <time>2019-07-09T14:59:13Z</time>
      </trkpt>
      <trkpt lat="39.8251130" lon="-6.1457880">
        <ele>396.8</ele>
        <time>2019-07-09T14:59:16Z</time>
      </trkpt>
      <trkpt lat="39.8250900" lon="-6.1458580">
        <ele>396.8</ele>
        <time>2019-07-09T14:59:17Z</time>
      </trkpt>
      <trkpt lat="39.8250290" lon="-6.1460720">
        <ele>397.0</ele>
        <time>2019-07-09T14:59:20Z</time>
      </trkpt>
      <trkpt lat="39.8249650" lon="-6.1462860">
        <ele>397.2</ele>
        <time>2019-07-09T14:59:23Z</time>
      </trkpt>
      <trkpt lat="39.8249170" lon="-6.1464230">
        <ele>397.0</ele>
        <time>2019-07-09T14:59:25Z</time>
      </trkpt>
      <trkpt lat="39.8248150" lon="-6.1466930">
        <ele>396.4</ele>
        <time>2019-07-09T14:59:29Z</time>
      </trkpt>
      <trkpt lat="39.8247140" lon="-6.1469570">
        <ele>396.4</ele>
        <time>2019-07-09T14:59:33Z</time>
      </trkpt>
      <trkpt lat="39.8245940" lon="-6.1472880">
        <ele>395.8</ele>
        <time>2019-07-09T14:59:38Z</time>
      </trkpt>
      <trkpt lat="39.8244970" lon="-6.1475490">
        <ele>395.6</ele>
        <time>2019-07-09T14:59:42Z</time>
      </trkpt>
      <trkpt lat="39.8243160" lon="-6.1479950">
        <ele>396.4</ele>
        <time>2019-07-09T14:59:49Z</time>
      </trkpt>
      <trkpt lat="39.8242680" lon="-6.1481210">
        <ele>396.4</ele>
        <time>2019-07-09T14:59:51Z</time>
      </trkpt>
      <trkpt lat="39.8240270" lon="-6.1487420">
        <ele>395.4</ele>
        <time>2019-07-09T15:00:01Z</time>
      </trkpt>
      <trkpt lat="39.8240010" lon="-6.1488390">
        <ele>395.0</ele>
        <time>2019-07-09T15:00:03Z</time>
      </trkpt>
      <trkpt lat="39.8239950" lon="-6.1488620">
        <ele>394.8</ele>
        <time>2019-07-09T15:00:04Z</time>
      </trkpt>
      <trkpt lat="39.8239930" lon="-6.1488670">
        <ele>394.8</ele>
        <time>2019-07-09T15:00:06Z</time>
      </trkpt>
      <trkpt lat="39.8239860" lon="-6.1489020">
        <ele>394.6</ele>
        <time>2019-07-09T15:01:13Z</time>
      </trkpt>
      <trkpt lat="39.8239750" lon="-6.1489250">
        <ele>394.6</ele>
        <time>2019-07-09T15:01:14Z</time>
      </trkpt>
      <trkpt lat="39.8239210" lon="-6.1490940">
        <ele>394.8</ele>
        <time>2019-07-09T15:01:19Z</time>
      </trkpt>
      <trkpt lat="39.8239080" lon="-6.1491350">
        <ele>394.8</ele>
        <time>2019-07-09T15:01:20Z</time>
      </trkpt>
      <trkpt lat="39.8238170" lon="-6.1494840">
        <ele>394.8</ele>
        <time>2019-07-09T15:01:27Z</time>
      </trkpt>
      <trkpt lat="39.8238020" lon="-6.1495400">
        <ele>394.6</ele>
        <time>2019-07-09T15:01:28Z</time>
      </trkpt>
      <trkpt lat="39.8236860" lon="-6.1499670">
        <ele>394.2</ele>
        <time>2019-07-09T15:01:35Z</time>
      </trkpt>
      <trkpt lat="39.8236520" lon="-6.1501020">
        <ele>393.8</ele>
        <time>2019-07-09T15:01:37Z</time>
      </trkpt>
      <trkpt lat="39.8235430" lon="-6.1506560">
        <ele>393.4</ele>
        <time>2019-07-09T15:01:45Z</time>
      </trkpt>
      <trkpt lat="39.8235310" lon="-6.1508640">
        <ele>393.0</ele>
        <time>2019-07-09T15:01:48Z</time>
      </trkpt>
      <trkpt lat="39.8235320" lon="-6.1509260">
        <ele>392.8</ele>
        <time>2019-07-09T15:01:49Z</time>
      </trkpt>
      <trkpt lat="39.8235360" lon="-6.1509720">
        <ele>392.6</ele>
        <time>2019-07-09T15:01:50Z</time>
      </trkpt>
      <trkpt lat="39.8235410" lon="-6.1510040">
        <ele>392.6</ele>
        <time>2019-07-09T15:01:53Z</time>
      </trkpt>
      <trkpt lat="39.8235380" lon="-6.1510290">
        <ele>392.4</ele>
        <time>2019-07-09T15:02:53Z</time>
      </trkpt>
      <trkpt lat="39.8235320" lon="-6.1510740">
        <ele>392.2</ele>
        <time>2019-07-09T15:02:55Z</time>
      </trkpt>
      <trkpt lat="39.8235480" lon="-6.1512130">
        <ele>392.4</ele>
        <time>2019-07-09T15:02:59Z</time>
      </trkpt>
      <trkpt lat="39.8235520" lon="-6.1512560">
        <ele>392.4</ele>
        <time>2019-07-09T15:03:00Z</time>
      </trkpt>
      <trkpt lat="39.8235600" lon="-6.1513460">
        <ele>392.4</ele>
        <time>2019-07-09T15:03:02Z</time>
      </trkpt>
      <trkpt lat="39.8235730" lon="-6.1514890">
        <ele>392.4</ele>
        <time>2019-07-09T15:03:05Z</time>
      </trkpt>
      <trkpt lat="39.8235820" lon="-6.1516380">
        <ele>393.0</ele>
        <time>2019-07-09T15:03:08Z</time>
      </trkpt>
      <trkpt lat="39.8235740" lon="-6.1518410">
        <ele>393.0</ele>
        <time>2019-07-09T15:03:12Z</time>
      </trkpt>
      <trkpt lat="39.8235640" lon="-6.1519460">
        <ele>393.4</ele>
        <time>2019-07-09T15:03:14Z</time>
      </trkpt>
      <trkpt lat="39.8235630" lon="-6.1519960">
        <ele>393.4</ele>
        <time>2019-07-09T15:03:15Z</time>
      </trkpt>
      <trkpt lat="39.8235560" lon="-6.1521920">
        <ele>393.4</ele>
        <time>2019-07-09T15:03:19Z</time>
      </trkpt>
      <trkpt lat="39.8235360" lon="-6.1523980">
        <ele>393.4</ele>
        <time>2019-07-09T15:03:23Z</time>
      </trkpt>
      <trkpt lat="39.8235090" lon="-6.1526150">
        <ele>394.0</ele>
        <time>2019-07-09T15:03:27Z</time>
      </trkpt>
      <trkpt lat="39.8234760" lon="-6.1527770">
        <ele>394.4</ele>
        <time>2019-07-09T15:03:30Z</time>
      </trkpt>
      <trkpt lat="39.8233810" lon="-6.1531390">
        <ele>395.4</ele>
        <time>2019-07-09T15:03:37Z</time>
      </trkpt>
      <trkpt lat="39.8233450" lon="-6.1532340">
        <ele>395.4</ele>
        <time>2019-07-09T15:03:39Z</time>
      </trkpt>
      <trkpt lat="39.8232870" lon="-6.1533680">
        <ele>395.6</ele>
        <time>2019-07-09T15:03:42Z</time>
      </trkpt>
      <trkpt lat="39.8231900" lon="-6.1535950">
        <ele>396.2</ele>
        <time>2019-07-09T15:03:47Z</time>
      </trkpt>
      <trkpt lat="39.8231040" lon="-6.1537810">
        <ele>396.6</ele>
        <time>2019-07-09T15:03:51Z</time>
      </trkpt>
      <trkpt lat="39.8229890" lon="-6.1540250">
        <ele>397.0</ele>
        <time>2019-07-09T15:03:56Z</time>
      </trkpt>
      <trkpt lat="39.8228610" lon="-6.1543180">
        <ele>397.4</ele>
        <time>2019-07-09T15:04:02Z</time>
      </trkpt>
      <trkpt lat="39.8228410" lon="-6.1543670">
        <ele>397.6</ele>
        <time>2019-07-09T15:04:03Z</time>
      </trkpt>
      <trkpt lat="39.8226670" lon="-6.1547440">
        <ele>398.0</ele>
        <time>2019-07-09T15:04:10Z</time>
      </trkpt>
      <trkpt lat="39.8224560" lon="-6.1551130">
        <ele>397.4</ele>
        <time>2019-07-09T15:04:16Z</time>
      </trkpt>
      <trkpt lat="39.8222810" lon="-6.1553730">
        <ele>396.6</ele>
        <time>2019-07-09T15:04:20Z</time>
      </trkpt>
      <trkpt lat="39.8221380" lon="-6.1555760">
        <ele>395.6</ele>
        <time>2019-07-09T15:04:23Z</time>
      </trkpt>
      <trkpt lat="39.8219480" lon="-6.1558600">
        <ele>394.6</ele>
        <time>2019-07-09T15:04:27Z</time>
      </trkpt>
      <trkpt lat="39.8218550" lon="-6.1560030">
        <ele>394.6</ele>
        <time>2019-07-09T15:04:29Z</time>
      </trkpt>
      <trkpt lat="39.8217630" lon="-6.1561440">
        <ele>394.4</ele>
        <time>2019-07-09T15:04:31Z</time>
      </trkpt>
      <trkpt lat="39.8216260" lon="-6.1563550">
        <ele>393.8</ele>
        <time>2019-07-09T15:04:34Z</time>
      </trkpt>
      <trkpt lat="39.8215850" lon="-6.1564280">
        <ele>393.4</ele>
        <time>2019-07-09T15:04:35Z</time>
      </trkpt>
      <trkpt lat="39.8215030" lon="-6.1565740">
        <ele>393.2</ele>
        <time>2019-07-09T15:04:37Z</time>
      </trkpt>
      <trkpt lat="39.8214270" lon="-6.1567230">
        <ele>392.6</ele>
        <time>2019-07-09T15:04:39Z</time>
      </trkpt>
      <trkpt lat="39.8213920" lon="-6.1568020">
        <ele>392.6</ele>
        <time>2019-07-09T15:04:40Z</time>
      </trkpt>
      <trkpt lat="39.8213600" lon="-6.1568830">
        <ele>392.4</ele>
        <time>2019-07-09T15:04:41Z</time>
      </trkpt>
      <trkpt lat="39.8213300" lon="-6.1569660">
        <ele>392.2</ele>
        <time>2019-07-09T15:04:42Z</time>
      </trkpt>
      <trkpt lat="39.8212510" lon="-6.1572320">
        <ele>391.6</ele>
        <time>2019-07-09T15:04:45Z</time>
      </trkpt>
      <trkpt lat="39.8212070" lon="-6.1574210">
        <ele>391.2</ele>
        <time>2019-07-09T15:04:47Z</time>
      </trkpt>
      <trkpt lat="39.8211470" lon="-6.1577190">
        <ele>390.4</ele>
        <time>2019-07-09T15:04:50Z</time>
      </trkpt>
      <trkpt lat="39.8211250" lon="-6.1578220">
        <ele>390.2</ele>
        <time>2019-07-09T15:04:51Z</time>
      </trkpt>
      <trkpt lat="39.8210570" lon="-6.1581350">
        <ele>389.4</ele>
        <time>2019-07-09T15:04:54Z</time>
      </trkpt>
      <trkpt lat="39.8209830" lon="-6.1585770">
        <ele>388.2</ele>
        <time>2019-07-09T15:04:58Z</time>
      </trkpt>
      <trkpt lat="39.8209660" lon="-6.1586890">
        <ele>387.8</ele>
        <time>2019-07-09T15:04:59Z</time>
      </trkpt>
      <trkpt lat="39.8209340" lon="-6.1589190">
        <ele>386.8</ele>
        <time>2019-07-09T15:05:01Z</time>
      </trkpt>
      <trkpt lat="39.8208660" lon="-6.1593930">
        <ele>385.6</ele>
        <time>2019-07-09T15:05:05Z</time>
      </trkpt>
      <trkpt lat="39.8208140" lon="-6.1597580">
        <ele>384.2</ele>
        <time>2019-07-09T15:05:08Z</time>
      </trkpt>
      <trkpt lat="39.8207400" lon="-6.1602570">
        <ele>383.0</ele>
        <time>2019-07-09T15:05:12Z</time>
      </trkpt>
      <trkpt lat="39.8207060" lon="-6.1605170">
        <ele>381.8</ele>
        <time>2019-07-09T15:05:14Z</time>
      </trkpt>
      <trkpt lat="39.8206860" lon="-6.1606460">
        <ele>381.6</ele>
        <time>2019-07-09T15:05:15Z</time>
      </trkpt>
      <trkpt lat="39.8205880" lon="-6.1610210">
        <ele>380.4</ele>
        <time>2019-07-09T15:05:18Z</time>
      </trkpt>
      <trkpt lat="39.8205420" lon="-6.1611390">
        <ele>380.0</ele>
        <time>2019-07-09T15:05:19Z</time>
      </trkpt>
      <trkpt lat="39.8204890" lon="-6.1612530">
        <ele>379.4</ele>
        <time>2019-07-09T15:05:20Z</time>
      </trkpt>
      <trkpt lat="39.8202560" lon="-6.1616830">
        <ele>378.4</ele>
        <time>2019-07-09T15:05:24Z</time>
      </trkpt>
      <trkpt lat="39.8199930" lon="-6.1621980">
        <ele>377.4</ele>
        <time>2019-07-09T15:05:29Z</time>
      </trkpt>
      <trkpt lat="39.8199530" lon="-6.1623020">
        <ele>377.2</ele>
        <time>2019-07-09T15:05:30Z</time>
      </trkpt>
      <trkpt lat="39.8198050" lon="-6.1628050">
        <ele>377.2</ele>
        <time>2019-07-09T15:05:35Z</time>
      </trkpt>
      <trkpt lat="39.8197780" lon="-6.1630050">
        <ele>377.0</ele>
        <time>2019-07-09T15:05:37Z</time>
      </trkpt>
      <trkpt lat="39.8197380" lon="-6.1633010">
        <ele>376.0</ele>
        <time>2019-07-09T15:05:40Z</time>
      </trkpt>
      <trkpt lat="39.8197210" lon="-6.1633960">
        <ele>376.0</ele>
        <time>2019-07-09T15:05:41Z</time>
      </trkpt>
      <trkpt lat="39.8195940" lon="-6.1638350">
        <ele>376.4</ele>
        <time>2019-07-09T15:05:46Z</time>
      </trkpt>
      <trkpt lat="39.8195080" lon="-6.1640800">
        <ele>376.4</ele>
        <time>2019-07-09T15:05:49Z</time>
      </trkpt>
      <trkpt lat="39.8193860" lon="-6.1643870">
        <ele>376.2</ele>
        <time>2019-07-09T15:05:53Z</time>
      </trkpt>
      <trkpt lat="39.8193520" lon="-6.1644650">
        <ele>376.2</ele>
        <time>2019-07-09T15:05:54Z</time>
      </trkpt>
      <trkpt lat="39.8191980" lon="-6.1648210">
        <ele>375.2</ele>
        <time>2019-07-09T15:05:58Z</time>
      </trkpt>
      <trkpt lat="39.8191550" lon="-6.1649200">
        <ele>374.8</ele>
        <time>2019-07-09T15:05:59Z</time>
      </trkpt>
      <trkpt lat="39.8190640" lon="-6.1651230">
        <ele>374.0</ele>
        <time>2019-07-09T15:06:01Z</time>
      </trkpt>
      <trkpt lat="39.8189200" lon="-6.1654400">
        <ele>372.8</ele>
        <time>2019-07-09T15:06:04Z</time>
      </trkpt>
      <trkpt lat="39.8188240" lon="-6.1656610">
        <ele>372.0</ele>
        <time>2019-07-09T15:06:06Z</time>
      </trkpt>
      <trkpt lat="39.8187820" lon="-6.1657780">
        <ele>371.2</ele>
        <time>2019-07-09T15:06:07Z</time>
      </trkpt>
      <trkpt lat="39.8187070" lon="-6.1660290">
        <ele>370.2</ele>
        <time>2019-07-09T15:06:09Z</time>
      </trkpt>
      <trkpt lat="39.8186380" lon="-6.1662980">
        <ele>369.2</ele>
        <time>2019-07-09T15:06:11Z</time>
      </trkpt>
      <trkpt lat="39.8186020" lon="-6.1664360">
        <ele>368.8</ele>
        <time>2019-07-09T15:06:12Z</time>
      </trkpt>
      <trkpt lat="39.8185230" lon="-6.1667130">
        <ele>367.8</ele>
        <time>2019-07-09T15:06:14Z</time>
      </trkpt>
      <trkpt lat="39.8184810" lon="-6.1668550">
        <ele>366.6</ele>
        <time>2019-07-09T15:06:15Z</time>
      </trkpt>
      <trkpt lat="39.8184400" lon="-6.1669980">
        <ele>365.4</ele>
        <time>2019-07-09T15:06:16Z</time>
      </trkpt>
      <trkpt lat="39.8183980" lon="-6.1671380">
        <ele>364.6</ele>
        <time>2019-07-09T15:06:17Z</time>
      </trkpt>
      <trkpt lat="39.8183550" lon="-6.1672720">
        <ele>363.8</ele>
        <time>2019-07-09T15:06:18Z</time>
      </trkpt>
      <trkpt lat="39.8182590" lon="-6.1675230">
        <ele>363.2</ele>
        <time>2019-07-09T15:06:20Z</time>
      </trkpt>
      <trkpt lat="39.8181670" lon="-6.1677540">
        <ele>363.0</ele>
        <time>2019-07-09T15:06:22Z</time>
      </trkpt>
      <trkpt lat="39.8179450" lon="-6.1682320">
        <ele>363.2</ele>
        <time>2019-07-09T15:06:27Z</time>
      </trkpt>
      <trkpt lat="39.8177810" lon="-6.1685400">
        <ele>363.8</ele>
        <time>2019-07-09T15:06:31Z</time>
      </trkpt>
      <trkpt lat="39.8177010" lon="-6.1686800">
        <ele>364.0</ele>
        <time>2019-07-09T15:06:33Z</time>
      </trkpt>
      <trkpt lat="39.8174870" lon="-6.1690500">
        <ele>365.2</ele>
        <time>2019-07-09T15:06:39Z</time>
      </trkpt>
      <trkpt lat="39.8173980" lon="-6.1692080">
        <ele>365.6</ele>
        <time>2019-07-09T15:06:42Z</time>
      </trkpt>
      <trkpt lat="39.8173390" lon="-6.1693080">
        <ele>366.2</ele>
        <time>2019-07-09T15:06:44Z</time>
      </trkpt>
      <trkpt lat="39.8172780" lon="-6.1694040">
        <ele>366.8</ele>
        <time>2019-07-09T15:06:46Z</time>
      </trkpt>
      <trkpt lat="39.8172200" lon="-6.1694940">
        <ele>367.4</ele>
        <time>2019-07-09T15:06:48Z</time>
      </trkpt>
      <trkpt lat="39.8171720" lon="-6.1695890">
        <ele>367.8</ele>
        <time>2019-07-09T15:06:50Z</time>
      </trkpt>
      <trkpt lat="39.8171260" lon="-6.1696790">
        <ele>368.4</ele>
        <time>2019-07-09T15:06:52Z</time>
      </trkpt>
      <trkpt lat="39.8170780" lon="-6.1697700">
        <ele>368.8</ele>
        <time>2019-07-09T15:06:54Z</time>
      </trkpt>
      <trkpt lat="39.8170520" lon="-6.1698130">
        <ele>369.0</ele>
        <time>2019-07-09T15:06:55Z</time>
      </trkpt>
      <trkpt lat="39.8170000" lon="-6.1699030">
        <ele>369.0</ele>
        <time>2019-07-09T15:06:57Z</time>
      </trkpt>
      <trkpt lat="39.8169260" lon="-6.1700460">
        <ele>369.2</ele>
        <time>2019-07-09T15:07:00Z</time>
      </trkpt>
      <trkpt lat="39.8169010" lon="-6.1700950">
        <ele>369.4</ele>
        <time>2019-07-09T15:07:01Z</time>
      </trkpt>
      <trkpt lat="39.8168270" lon="-6.1702520">
        <ele>369.6</ele>
        <time>2019-07-09T15:07:04Z</time>
      </trkpt>
      <trkpt lat="39.8166360" lon="-6.1706770">
        <ele>369.0</ele>
        <time>2019-07-09T15:07:11Z</time>
      </trkpt>
      <trkpt lat="39.8164740" lon="-6.1710370">
        <ele>368.6</ele>
        <time>2019-07-09T15:07:16Z</time>
      </trkpt>
      <trkpt lat="39.8164440" lon="-6.1711130">
        <ele>368.6</ele>
        <time>2019-07-09T15:07:17Z</time>
      </trkpt>
      <trkpt lat="39.8163810" lon="-6.1712610">
        <ele>368.4</ele>
        <time>2019-07-09T15:07:19Z</time>
      </trkpt>
      <trkpt lat="39.8163210" lon="-6.1714040">
        <ele>368.4</ele>
        <time>2019-07-09T15:07:21Z</time>
      </trkpt>
      <trkpt lat="39.8162330" lon="-6.1716040">
        <ele>368.2</ele>
        <time>2019-07-09T15:07:24Z</time>
      </trkpt>
      <trkpt lat="39.8161280" lon="-6.1718560">
        <ele>368.6</ele>
        <time>2019-07-09T15:07:28Z</time>
      </trkpt>
      <trkpt lat="39.8160810" lon="-6.1719720">
        <ele>368.8</ele>
        <time>2019-07-09T15:07:30Z</time>
      </trkpt>
      <trkpt lat="39.8159990" lon="-6.1721710">
        <ele>369.6</ele>
        <time>2019-07-09T15:07:34Z</time>
      </trkpt>
      <trkpt lat="39.8159640" lon="-6.1722610">
        <ele>369.8</ele>
        <time>2019-07-09T15:07:36Z</time>
      </trkpt>
      <trkpt lat="39.8158840" lon="-6.1724260">
        <ele>370.6</ele>
        <time>2019-07-09T15:07:40Z</time>
      </trkpt>
      <trkpt lat="39.8158200" lon="-6.1725900">
        <ele>371.4</ele>
        <time>2019-07-09T15:07:44Z</time>
      </trkpt>
      <trkpt lat="39.8157880" lon="-6.1726760">
        <ele>372.2</ele>
        <time>2019-07-09T15:07:46Z</time>
      </trkpt>
      <trkpt lat="39.8156850" lon="-6.1728820">
        <ele>373.4</ele>
        <time>2019-07-09T15:07:51Z</time>
      </trkpt>
      <trkpt lat="39.8156440" lon="-6.1729720">
        <ele>373.8</ele>
        <time>2019-07-09T15:07:53Z</time>
      </trkpt>
      <trkpt lat="39.8155710" lon="-6.1731600">
        <ele>374.6</ele>
        <time>2019-07-09T15:07:57Z</time>
      </trkpt>
      <trkpt lat="39.8154890" lon="-6.1733520">
        <ele>374.8</ele>
        <time>2019-07-09T15:08:01Z</time>
      </trkpt>
      <trkpt lat="39.8153680" lon="-6.1736140">
        <ele>375.0</ele>
        <time>2019-07-09T15:08:06Z</time>
      </trkpt>
      <trkpt lat="39.8153050" lon="-6.1738010">
        <ele>374.8</ele>
        <time>2019-07-09T15:08:09Z</time>
      </trkpt>
      <trkpt lat="39.8152330" lon="-6.1739950">
        <ele>374.6</ele>
        <time>2019-07-09T15:08:12Z</time>
      </trkpt>
      <trkpt lat="39.8151840" lon="-6.1741330">
        <ele>374.4</ele>
        <time>2019-07-09T15:08:14Z</time>
      </trkpt>
      <trkpt lat="39.8151330" lon="-6.1742810">
        <ele>374.2</ele>
        <time>2019-07-09T15:08:16Z</time>
      </trkpt>
      <trkpt lat="39.8150860" lon="-6.1744400">
        <ele>374.0</ele>
        <time>2019-07-09T15:08:18Z</time>
      </trkpt>
      <trkpt lat="39.8150520" lon="-6.1746150">
        <ele>373.6</ele>
        <time>2019-07-09T15:08:20Z</time>
      </trkpt>
      <trkpt lat="39.8150390" lon="-6.1747080">
        <ele>373.2</ele>
        <time>2019-07-09T15:08:21Z</time>
      </trkpt>
      <trkpt lat="39.8150280" lon="-6.1748010">
        <ele>373.0</ele>
        <time>2019-07-09T15:08:22Z</time>
      </trkpt>
      <trkpt lat="39.8150110" lon="-6.1749930">
        <ele>372.4</ele>
        <time>2019-07-09T15:08:24Z</time>
      </trkpt>
      <trkpt lat="39.8150030" lon="-6.1751900">
        <ele>371.8</ele>
        <time>2019-07-09T15:08:26Z</time>
      </trkpt>
      <trkpt lat="39.8149970" lon="-6.1753890">
        <ele>371.4</ele>
        <time>2019-07-09T15:08:28Z</time>
      </trkpt>
      <trkpt lat="39.8149990" lon="-6.1755930">
        <ele>370.8</ele>
        <time>2019-07-09T15:08:30Z</time>
      </trkpt>
      <trkpt lat="39.8150230" lon="-6.1759110">
        <ele>370.2</ele>
        <time>2019-07-09T15:08:33Z</time>
      </trkpt>
      <trkpt lat="39.8150350" lon="-6.1760190">
        <ele>370.0</ele>
        <time>2019-07-09T15:08:34Z</time>
      </trkpt>
      <trkpt lat="39.8150830" lon="-6.1764610">
        <ele>369.0</ele>
        <time>2019-07-09T15:08:38Z</time>
      </trkpt>
      <trkpt lat="39.8151400" lon="-6.1768900">
        <ele>368.4</ele>
        <time>2019-07-09T15:08:42Z</time>
      </trkpt>
      <trkpt lat="39.8151760" lon="-6.1771860">
        <ele>368.2</ele>
        <time>2019-07-09T15:08:45Z</time>
      </trkpt>
      <trkpt lat="39.8152010" lon="-6.1773630">
        <ele>368.0</ele>
        <time>2019-07-09T15:08:47Z</time>
      </trkpt>
      <trkpt lat="39.8152530" lon="-6.1776840">
        <ele>367.6</ele>
        <time>2019-07-09T15:08:51Z</time>
      </trkpt>
      <trkpt lat="39.8152850" lon="-6.1779100">
        <ele>367.4</ele>
        <time>2019-07-09T15:08:54Z</time>
      </trkpt>
      <trkpt lat="39.8153040" lon="-6.1783510">
        <ele>368.0</ele>
        <time>2019-07-09T15:09:00Z</time>
      </trkpt>
      <trkpt lat="39.8153020" lon="-6.1784240">
        <ele>368.0</ele>
        <time>2019-07-09T15:09:01Z</time>
      </trkpt>
      <trkpt lat="39.8152410" lon="-6.1788500">
        <ele>368.6</ele>
        <time>2019-07-09T15:09:07Z</time>
      </trkpt>
      <trkpt lat="39.8151280" lon="-6.1791890">
        <ele>368.6</ele>
        <time>2019-07-09T15:09:12Z</time>
      </trkpt>
      <trkpt lat="39.8150740" lon="-6.1793260">
        <ele>368.6</ele>
        <time>2019-07-09T15:09:14Z</time>
      </trkpt>
      <trkpt lat="39.8148510" lon="-6.1799000">
        <ele>368.4</ele>
        <time>2019-07-09T15:09:22Z</time>
      </trkpt>
      <trkpt lat="39.8146030" lon="-6.1805470">
        <ele>368.0</ele>
        <time>2019-07-09T15:09:31Z</time>
      </trkpt>
      <trkpt lat="39.8145250" lon="-6.1807600">
        <ele>368.0</ele>
        <time>2019-07-09T15:09:34Z</time>
      </trkpt>
      <trkpt lat="39.8143570" lon="-6.1813250">
        <ele>368.4</ele>
        <time>2019-07-09T15:09:42Z</time>
      </trkpt>
      <trkpt lat="39.8141800" lon="-6.1820400">
        <ele>368.2</ele>
        <time>2019-07-09T15:09:52Z</time>
      </trkpt>
      <trkpt lat="39.8140510" lon="-6.1825990">
        <ele>369.0</ele>
        <time>2019-07-09T15:10:00Z</time>
      </trkpt>
      <trkpt lat="39.8139360" lon="-6.1832150">
        <ele>369.2</ele>
        <time>2019-07-09T15:10:08Z</time>
      </trkpt>
      <trkpt lat="39.8138590" lon="-6.1836520">
        <ele>368.6</ele>
        <time>2019-07-09T15:10:13Z</time>
      </trkpt>
      <trkpt lat="39.8138080" lon="-6.1839290">
        <ele>368.0</ele>
        <time>2019-07-09T15:10:16Z</time>
      </trkpt>
      <trkpt lat="39.8137180" lon="-6.1844160">
        <ele>367.4</ele>
        <time>2019-07-09T15:10:21Z</time>
      </trkpt>
      <trkpt lat="39.8136660" lon="-6.1847210">
        <ele>366.6</ele>
        <time>2019-07-09T15:10:24Z</time>
      </trkpt>
      <trkpt lat="39.8136450" lon="-6.1848260">
        <ele>366.2</ele>
        <time>2019-07-09T15:10:25Z</time>
      </trkpt>
      <trkpt lat="39.8135810" lon="-6.1851530">
        <ele>365.0</ele>
        <time>2019-07-09T15:10:28Z</time>
      </trkpt>
      <trkpt lat="39.8135210" lon="-6.1854950">
        <ele>364.0</ele>
        <time>2019-07-09T15:10:31Z</time>
      </trkpt>
      <trkpt lat="39.8135030" lon="-6.1856120">
        <ele>363.4</ele>
        <time>2019-07-09T15:10:32Z</time>
      </trkpt>
      <trkpt lat="39.8134870" lon="-6.1857290">
        <ele>363.4</ele>
        <time>2019-07-09T15:10:33Z</time>
      </trkpt>
      <trkpt lat="39.8134740" lon="-6.1858470">
        <ele>362.8</ele>
        <time>2019-07-09T15:10:34Z</time>
      </trkpt>
      <trkpt lat="39.8134630" lon="-6.1860800">
        <ele>362.6</ele>
        <time>2019-07-09T15:10:36Z</time>
      </trkpt>
      <trkpt lat="39.8134770" lon="-6.1863000">
        <ele>362.4</ele>
        <time>2019-07-09T15:10:38Z</time>
      </trkpt>
      <trkpt lat="39.8135150" lon="-6.1866950">
        <ele>362.2</ele>
        <time>2019-07-09T15:10:42Z</time>
      </trkpt>
      <trkpt lat="39.8135370" lon="-6.1868850">
        <ele>362.0</ele>
        <time>2019-07-09T15:10:44Z</time>
      </trkpt>
      <trkpt lat="39.8135480" lon="-6.1869800">
        <ele>362.0</ele>
        <time>2019-07-09T15:10:45Z</time>
      </trkpt>
      <trkpt lat="39.8136400" lon="-6.1877060">
        <ele>362.0</ele>
        <time>2019-07-09T15:10:53Z</time>
      </trkpt>
      <trkpt lat="39.8137010" lon="-6.1882080">
        <ele>362.0</ele>
        <time>2019-07-09T15:10:59Z</time>
      </trkpt>
      <trkpt lat="39.8137230" lon="-6.1884450">
        <ele>362.4</ele>
        <time>2019-07-09T15:11:02Z</time>
      </trkpt>
      <trkpt lat="39.8137830" lon="-6.1889520">
        <ele>362.6</ele>
        <time>2019-07-09T15:11:09Z</time>
      </trkpt>
      <trkpt lat="39.8138230" lon="-6.1892910">
        <ele>363.0</ele>
        <time>2019-07-09T15:11:14Z</time>
      </trkpt>
      <trkpt lat="39.8138280" lon="-6.1893600">
        <ele>363.0</ele>
        <time>2019-07-09T15:11:15Z</time>
      </trkpt>
      <trkpt lat="39.8138730" lon="-6.1897690">
        <ele>363.4</ele>
        <time>2019-07-09T15:11:21Z</time>
      </trkpt>
      <trkpt lat="39.8138880" lon="-6.1899070">
        <ele>363.4</ele>
        <time>2019-07-09T15:11:23Z</time>
      </trkpt>
      <trkpt lat="39.8139460" lon="-6.1904500">
        <ele>364.4</ele>
        <time>2019-07-09T15:11:31Z</time>
      </trkpt>
      <trkpt lat="39.8139570" lon="-6.1905820">
        <ele>364.4</ele>
        <time>2019-07-09T15:11:33Z</time>
      </trkpt>
      <trkpt lat="39.8140030" lon="-6.1910440">
        <ele>364.6</ele>
        <time>2019-07-09T15:11:40Z</time>
      </trkpt>
      <trkpt lat="39.8140310" lon="-6.1915260">
        <ele>365.0</ele>
        <time>2019-07-09T15:11:47Z</time>
      </trkpt>
      <trkpt lat="39.8140130" lon="-6.1920240">
        <ele>364.8</ele>
        <time>2019-07-09T15:11:54Z</time>
      </trkpt>
      <trkpt lat="39.8139080" lon="-6.1925710">
        <ele>364.0</ele>
        <time>2019-07-09T15:12:01Z</time>
      </trkpt>
      <trkpt lat="39.8137290" lon="-6.1932450">
        <ele>363.2</ele>
        <time>2019-07-09T15:12:09Z</time>
      </trkpt>
      <trkpt lat="39.8136010" lon="-6.1937050">
        <ele>362.2</ele>
        <time>2019-07-09T15:12:14Z</time>
      </trkpt>
      <trkpt lat="39.8135460" lon="-6.1938840">
        <ele>362.0</ele>
        <time>2019-07-09T15:12:16Z</time>
      </trkpt>
      <trkpt lat="39.8133810" lon="-6.1944620">
        <ele>361.8</ele>
        <time>2019-07-09T15:12:23Z</time>
      </trkpt>
      <trkpt lat="39.8133020" lon="-6.1947310">
        <ele>361.6</ele>
        <time>2019-07-09T15:12:27Z</time>
      </trkpt>
      <trkpt lat="39.8132710" lon="-6.1948460">
        <ele>361.6</ele>
        <time>2019-07-09T15:12:29Z</time>
      </trkpt>
      <trkpt lat="39.8132310" lon="-6.1950110">
        <ele>362.4</ele>
        <time>2019-07-09T15:12:32Z</time>
      </trkpt>
      <trkpt lat="39.8131980" lon="-6.1951140">
        <ele>362.8</ele>
        <time>2019-07-09T15:12:34Z</time>
      </trkpt>
      <trkpt lat="39.8131690" lon="-6.1952030">
        <ele>363.6</ele>
        <time>2019-07-09T15:12:36Z</time>
      </trkpt>
      <trkpt lat="39.8131320" lon="-6.1953190">
        <ele>364.6</ele>
        <time>2019-07-09T15:12:39Z</time>
      </trkpt>
      <trkpt lat="39.8131200" lon="-6.1953570">
        <ele>364.6</ele>
        <time>2019-07-09T15:12:40Z</time>
      </trkpt>
      <trkpt lat="39.8130920" lon="-6.1954720">
        <ele>365.0</ele>
        <time>2019-07-09T15:12:43Z</time>
      </trkpt>
      <trkpt lat="39.8130690" lon="-6.1955480">
        <ele>365.8</ele>
        <time>2019-07-09T15:12:45Z</time>
      </trkpt>
      <trkpt lat="39.8130270" lon="-6.1956990">
        <ele>366.4</ele>
        <time>2019-07-09T15:12:49Z</time>
      </trkpt>
      <trkpt lat="39.8130140" lon="-6.1957340">
        <ele>366.8</ele>
        <time>2019-07-09T15:12:50Z</time>
      </trkpt>
      <trkpt lat="39.8130020" lon="-6.1957680">
        <ele>367.0</ele>
        <time>2019-07-09T15:12:51Z</time>
      </trkpt>
      <trkpt lat="39.8129690" lon="-6.1958730">
        <ele>367.8</ele>
        <time>2019-07-09T15:12:54Z</time>
      </trkpt>
      <trkpt lat="39.8129400" lon="-6.1959780">
        <ele>368.2</ele>
        <time>2019-07-09T15:12:57Z</time>
      </trkpt>
      <trkpt lat="39.8129040" lon="-6.1960830">
        <ele>369.0</ele>
        <time>2019-07-09T15:13:00Z</time>
      </trkpt>
      <trkpt lat="39.8128670" lon="-6.1961840">
        <ele>369.8</ele>
        <time>2019-07-09T15:13:03Z</time>
      </trkpt>
      <trkpt lat="39.8128440" lon="-6.1962540">
        <ele>370.0</ele>
        <time>2019-07-09T15:13:05Z</time>
      </trkpt>
      <trkpt lat="39.8127970" lon="-6.1964350">
        <ele>370.8</ele>
        <time>2019-07-09T15:13:10Z</time>
      </trkpt>
      <trkpt lat="39.8127750" lon="-6.1965090">
        <ele>371.0</ele>
        <time>2019-07-09T15:13:12Z</time>
      </trkpt>
      <trkpt lat="39.8127120" lon="-6.1966460">
        <ele>372.0</ele>
        <time>2019-07-09T15:13:16Z</time>
      </trkpt>
      <trkpt lat="39.8126990" lon="-6.1966850">
        <ele>372.2</ele>
        <time>2019-07-09T15:13:17Z</time>
      </trkpt>
      <trkpt lat="39.8126510" lon="-6.1968890">
        <ele>372.6</ele>
        <time>2019-07-09T15:13:22Z</time>
      </trkpt>
      <trkpt lat="39.8125230" lon="-6.1972430">
        <ele>373.2</ele>
        <time>2019-07-09T15:13:30Z</time>
      </trkpt>
      <trkpt lat="39.8124380" lon="-6.1975030">
        <ele>372.8</ele>
        <time>2019-07-09T15:13:35Z</time>
      </trkpt>
      <trkpt lat="39.8124180" lon="-6.1975560">
        <ele>372.8</ele>
        <time>2019-07-09T15:13:36Z</time>
      </trkpt>
      <trkpt lat="39.8123380" lon="-6.1977800">
        <ele>372.8</ele>
        <time>2019-07-09T15:13:40Z</time>
      </trkpt>
      <trkpt lat="39.8122810" lon="-6.1979480">
        <ele>372.8</ele>
        <time>2019-07-09T15:13:43Z</time>
      </trkpt>
      <trkpt lat="39.8122430" lon="-6.1980530">
        <ele>372.6</ele>
        <time>2019-07-09T15:13:45Z</time>
      </trkpt>
      <trkpt lat="39.8121550" lon="-6.1983360">
        <ele>372.4</ele>
        <time>2019-07-09T15:13:50Z</time>
      </trkpt>
      <trkpt lat="39.8121320" lon="-6.1983940">
        <ele>372.4</ele>
        <time>2019-07-09T15:13:51Z</time>
      </trkpt>
      <trkpt lat="39.8120850" lon="-6.1985050">
        <ele>372.6</ele>
        <time>2019-07-09T15:13:53Z</time>
      </trkpt>
      <trkpt lat="39.8120650" lon="-6.1985660">
        <ele>372.6</ele>
        <time>2019-07-09T15:13:54Z</time>
      </trkpt>
      <trkpt lat="39.8120480" lon="-6.1986290">
        <ele>372.4</ele>
        <time>2019-07-09T15:13:55Z</time>
      </trkpt>
      <trkpt lat="39.8118790" lon="-6.1991420">
        <ele>371.8</ele>
        <time>2019-07-09T15:14:03Z</time>
      </trkpt>
      <trkpt lat="39.8117790" lon="-6.1994370">
        <ele>371.2</ele>
        <time>2019-07-09T15:14:07Z</time>
      </trkpt>
      <trkpt lat="39.8117040" lon="-6.1996800">
        <ele>371.0</ele>
        <time>2019-07-09T15:14:10Z</time>
      </trkpt>
      <trkpt lat="39.8116480" lon="-6.1998440">
        <ele>370.6</ele>
        <time>2019-07-09T15:14:12Z</time>
      </trkpt>
      <trkpt lat="39.8115870" lon="-6.2000110">
        <ele>370.0</ele>
        <time>2019-07-09T15:14:14Z</time>
      </trkpt>
      <trkpt lat="39.8114690" lon="-6.2003620">
        <ele>369.0</ele>
        <time>2019-07-09T15:14:18Z</time>
      </trkpt>
      <trkpt lat="39.8113220" lon="-6.2008390">
        <ele>367.8</ele>
        <time>2019-07-09T15:14:23Z</time>
      </trkpt>
      <trkpt lat="39.8112570" lon="-6.2010310">
        <ele>367.8</ele>
        <time>2019-07-09T15:14:25Z</time>
      </trkpt>
      <trkpt lat="39.8111940" lon="-6.2012180">
        <ele>367.6</ele>
        <time>2019-07-09T15:14:27Z</time>
      </trkpt>
      <trkpt lat="39.8110830" lon="-6.2015730">
        <ele>366.8</ele>
        <time>2019-07-09T15:14:31Z</time>
      </trkpt>
      <trkpt lat="39.8109770" lon="-6.2019160">
        <ele>366.4</ele>
        <time>2019-07-09T15:14:35Z</time>
      </trkpt>
      <trkpt lat="39.8107930" lon="-6.2024510">
        <ele>366.2</ele>
        <time>2019-07-09T15:14:42Z</time>
      </trkpt>
      <trkpt lat="39.8107610" lon="-6.2025220">
        <ele>366.0</ele>
        <time>2019-07-09T15:14:43Z</time>
      </trkpt>
      <trkpt lat="39.8107260" lon="-6.2025870">
        <ele>365.8</ele>
        <time>2019-07-09T15:14:44Z</time>
      </trkpt>
      <trkpt lat="39.8106070" lon="-6.2027760">
        <ele>365.6</ele>
        <time>2019-07-09T15:14:47Z</time>
      </trkpt>
      <trkpt lat="39.8103780" lon="-6.2031910">
        <ele>364.8</ele>
        <time>2019-07-09T15:14:53Z</time>
      </trkpt>
      <trkpt lat="39.8102980" lon="-6.2033310">
        <ele>364.6</ele>
        <time>2019-07-09T15:14:55Z</time>
      </trkpt>
      <trkpt lat="39.8101670" lon="-6.2035370">
        <ele>364.4</ele>
        <time>2019-07-09T15:14:58Z</time>
      </trkpt>
      <trkpt lat="39.8099850" lon="-6.2038210">
        <ele>363.8</ele>
        <time>2019-07-09T15:15:02Z</time>
      </trkpt>
      <trkpt lat="39.8099420" lon="-6.2038950">
        <ele>363.8</ele>
        <time>2019-07-09T15:15:03Z</time>
      </trkpt>
      <trkpt lat="39.8097770" lon="-6.2042050">
        <ele>363.2</ele>
        <time>2019-07-09T15:15:07Z</time>
      </trkpt>
      <trkpt lat="39.8096890" lon="-6.2043560">
        <ele>362.8</ele>
        <time>2019-07-09T15:15:09Z</time>
      </trkpt>
      <trkpt lat="39.8096450" lon="-6.2044330">
        <ele>362.6</ele>
        <time>2019-07-09T15:15:10Z</time>
      </trkpt>
      <trkpt lat="39.8095550" lon="-6.2045840">
        <ele>362.2</ele>
        <time>2019-07-09T15:15:12Z</time>
      </trkpt>
      <trkpt lat="39.8093410" lon="-6.2049500">
        <ele>362.0</ele>
        <time>2019-07-09T15:15:17Z</time>
      </trkpt>
      <trkpt lat="39.8091550" lon="-6.2052820">
        <ele>362.6</ele>
        <time>2019-07-09T15:15:22Z</time>
      </trkpt>
      <trkpt lat="39.8090940" lon="-6.2054070">
        <ele>362.8</ele>
        <time>2019-07-09T15:15:24Z</time>
      </trkpt>
      <trkpt lat="39.8088980" lon="-6.2057520">
        <ele>363.2</ele>
        <time>2019-07-09T15:15:30Z</time>
      </trkpt>
      <trkpt lat="39.8088650" lon="-6.2058060">
        <ele>363.6</ele>
        <time>2019-07-09T15:15:31Z</time>
      </trkpt>
      <trkpt lat="39.8087650" lon="-6.2059650">
        <ele>364.0</ele>
        <time>2019-07-09T15:15:34Z</time>
      </trkpt>
      <trkpt lat="39.8086670" lon="-6.2061330">
        <ele>364.2</ele>
        <time>2019-07-09T15:15:37Z</time>
      </trkpt>
      <trkpt lat="39.8085670" lon="-6.2063040">
        <ele>364.4</ele>
        <time>2019-07-09T15:15:40Z</time>
      </trkpt>
      <trkpt lat="39.8084660" lon="-6.2064740">
        <ele>364.6</ele>
        <time>2019-07-09T15:15:43Z</time>
      </trkpt>
      <trkpt lat="39.8082720" lon="-6.2068330">
        <ele>364.8</ele>
        <time>2019-07-09T15:15:49Z</time>
      </trkpt>
      <trkpt lat="39.8082380" lon="-6.2068940">
        <ele>364.8</ele>
        <time>2019-07-09T15:15:50Z</time>
      </trkpt>
      <trkpt lat="39.8080900" lon="-6.2071360">
        <ele>364.6</ele>
        <time>2019-07-09T15:15:54Z</time>
      </trkpt>
      <trkpt lat="39.8079480" lon="-6.2073950">
        <ele>364.6</ele>
        <time>2019-07-09T15:15:58Z</time>
      </trkpt>
      <trkpt lat="39.8076190" lon="-6.2079630">
        <ele>364.6</ele>
        <time>2019-07-09T15:16:07Z</time>
      </trkpt>
      <trkpt lat="39.8075110" lon="-6.2081510">
        <ele>364.4</ele>
        <time>2019-07-09T15:16:10Z</time>
      </trkpt>
      <trkpt lat="39.8072660" lon="-6.2085840">
        <ele>364.2</ele>
        <time>2019-07-09T15:16:17Z</time>
      </trkpt>
      <trkpt lat="39.8069660" lon="-6.2091230">
        <ele>364.4</ele>
        <time>2019-07-09T15:16:26Z</time>
      </trkpt>
      <trkpt lat="39.8067600" lon="-6.2094680">
        <ele>365.0</ele>
        <time>2019-07-09T15:16:32Z</time>
      </trkpt>
      <trkpt lat="39.8065950" lon="-6.2097610">
        <ele>366.2</ele>
        <time>2019-07-09T15:16:37Z</time>
      </trkpt>
      <trkpt lat="39.8063960" lon="-6.2100980">
        <ele>367.4</ele>
        <time>2019-07-09T15:16:43Z</time>
      </trkpt>
      <trkpt lat="39.8063030" lon="-6.2102620">
        <ele>367.8</ele>
        <time>2019-07-09T15:16:46Z</time>
      </trkpt>
      <trkpt lat="39.8061450" lon="-6.2105330">
        <ele>368.4</ele>
        <time>2019-07-09T15:16:51Z</time>
      </trkpt>
      <trkpt lat="39.8060210" lon="-6.2107500">
        <ele>368.8</ele>
        <time>2019-07-09T15:16:55Z</time>
      </trkpt>
      <trkpt lat="39.8058990" lon="-6.2109680">
        <ele>369.4</ele>
        <time>2019-07-09T15:16:59Z</time>
      </trkpt>
      <trkpt lat="39.8057740" lon="-6.2111750">
        <ele>369.6</ele>
        <time>2019-07-09T15:17:03Z</time>
      </trkpt>
      <trkpt lat="39.8055210" lon="-6.2116200">
        <ele>370.2</ele>
        <time>2019-07-09T15:17:11Z</time>
      </trkpt>
      <trkpt lat="39.8052720" lon="-6.2120640">
        <ele>369.6</ele>
        <time>2019-07-09T15:17:18Z</time>
      </trkpt>
      <trkpt lat="39.8051150" lon="-6.2123470">
        <ele>369.0</ele>
        <time>2019-07-09T15:17:22Z</time>
      </trkpt>
      <trkpt lat="39.8050350" lon="-6.2124950">
        <ele>368.8</ele>
        <time>2019-07-09T15:17:24Z</time>
      </trkpt>
      <trkpt lat="39.8049120" lon="-6.2127160">
        <ele>368.6</ele>
        <time>2019-07-09T15:17:27Z</time>
      </trkpt>
      <trkpt lat="39.8048350" lon="-6.2128680">
        <ele>368.4</ele>
        <time>2019-07-09T15:17:29Z</time>
      </trkpt>
      <trkpt lat="39.8047980" lon="-6.2129450">
        <ele>368.2</ele>
        <time>2019-07-09T15:17:30Z</time>
      </trkpt>
      <trkpt lat="39.8047600" lon="-6.2130220">
        <ele>367.6</ele>
        <time>2019-07-09T15:17:31Z</time>
      </trkpt>
      <trkpt lat="39.8047230" lon="-6.2130990">
        <ele>367.2</ele>
        <time>2019-07-09T15:17:32Z</time>
      </trkpt>
      <trkpt lat="39.8046130" lon="-6.2133310">
        <ele>366.6</ele>
        <time>2019-07-09T15:17:35Z</time>
      </trkpt>
      <trkpt lat="39.8045340" lon="-6.2134800">
        <ele>366.2</ele>
        <time>2019-07-09T15:17:37Z</time>
      </trkpt>
      <trkpt lat="39.8044590" lon="-6.2136370">
        <ele>365.8</ele>
        <time>2019-07-09T15:17:39Z</time>
      </trkpt>
      <trkpt lat="39.8042810" lon="-6.2140380">
        <ele>365.2</ele>
        <time>2019-07-09T15:17:44Z</time>
      </trkpt>
      <trkpt lat="39.8041290" lon="-6.2143680">
        <ele>364.4</ele>
        <time>2019-07-09T15:17:48Z</time>
      </trkpt>
      <trkpt lat="39.8040020" lon="-6.2146260">
        <ele>364.0</ele>
        <time>2019-07-09T15:17:51Z</time>
      </trkpt>
      <trkpt lat="39.8038320" lon="-6.2149920">
        <ele>362.8</ele>
        <time>2019-07-09T15:17:55Z</time>
      </trkpt>
      <trkpt lat="39.8037870" lon="-6.2150900">
        <ele>362.4</ele>
        <time>2019-07-09T15:17:56Z</time>
      </trkpt>
      <trkpt lat="39.8037410" lon="-6.2151880">
        <ele>361.8</ele>
        <time>2019-07-09T15:17:57Z</time>
      </trkpt>
      <trkpt lat="39.8036490" lon="-6.2153910">
        <ele>360.6</ele>
        <time>2019-07-09T15:17:59Z</time>
      </trkpt>
      <trkpt lat="39.8035070" lon="-6.2157000">
        <ele>359.6</ele>
        <time>2019-07-09T15:18:02Z</time>
      </trkpt>
      <trkpt lat="39.8034590" lon="-6.2158020">
        <ele>359.4</ele>
        <time>2019-07-09T15:18:03Z</time>
      </trkpt>
      <trkpt lat="39.8034110" lon="-6.2159020">
        <ele>359.0</ele>
        <time>2019-07-09T15:18:04Z</time>
      </trkpt>
      <trkpt lat="39.8033180" lon="-6.2161040">
        <ele>358.4</ele>
        <time>2019-07-09T15:18:06Z</time>
      </trkpt>
      <trkpt lat="39.8032730" lon="-6.2162040">
        <ele>358.0</ele>
        <time>2019-07-09T15:18:07Z</time>
      </trkpt>
      <trkpt lat="39.8030680" lon="-6.2165800">
        <ele>357.2</ele>
        <time>2019-07-09T15:18:11Z</time>
      </trkpt>
      <trkpt lat="39.8029000" lon="-6.2168360">
        <ele>356.8</ele>
        <time>2019-07-09T15:18:14Z</time>
      </trkpt>
      <trkpt lat="39.8026180" lon="-6.2172350">
        <ele>355.8</ele>
        <time>2019-07-09T15:18:19Z</time>
      </trkpt>
      <trkpt lat="39.8025680" lon="-6.2173180">
        <ele>355.6</ele>
        <time>2019-07-09T15:18:20Z</time>
      </trkpt>
      <trkpt lat="39.8024380" lon="-6.2175820">
        <ele>355.6</ele>
        <time>2019-07-09T15:18:23Z</time>
      </trkpt>
      <trkpt lat="39.8023990" lon="-6.2176670">
        <ele>355.6</ele>
        <time>2019-07-09T15:18:24Z</time>
      </trkpt>
      <trkpt lat="39.8022330" lon="-6.2181590">
        <ele>355.8</ele>
        <time>2019-07-09T15:18:30Z</time>
      </trkpt>
      <trkpt lat="39.8021710" lon="-6.2183700">
        <ele>355.8</ele>
        <time>2019-07-09T15:18:33Z</time>
      </trkpt>
      <trkpt lat="39.8021330" lon="-6.2185030">
        <ele>355.8</ele>
        <time>2019-07-09T15:18:35Z</time>
      </trkpt>
      <trkpt lat="39.8020990" lon="-6.2186280">
        <ele>356.0</ele>
        <time>2019-07-09T15:18:37Z</time>
      </trkpt>
      <trkpt lat="39.8020570" lon="-6.2188030">
        <ele>357.0</ele>
        <time>2019-07-09T15:18:40Z</time>
      </trkpt>
      <trkpt lat="39.8020470" lon="-6.2188610">
        <ele>357.4</ele>
        <time>2019-07-09T15:18:41Z</time>
      </trkpt>
      <trkpt lat="39.8020170" lon="-6.2190400">
        <ele>357.8</ele>
        <time>2019-07-09T15:18:44Z</time>
      </trkpt>
      <trkpt lat="39.8019850" lon="-6.2192810">
        <ele>358.2</ele>
        <time>2019-07-09T15:18:48Z</time>
      </trkpt>
      <trkpt lat="39.8019770" lon="-6.2193410">
        <ele>358.4</ele>
        <time>2019-07-09T15:18:49Z</time>
      </trkpt>
      <trkpt lat="39.8019550" lon="-6.2195250">
        <ele>358.6</ele>
        <time>2019-07-09T15:18:52Z</time>
      </trkpt>
      <trkpt lat="39.8019320" lon="-6.2197110">
        <ele>358.6</ele>
        <time>2019-07-09T15:18:55Z</time>
      </trkpt>
      <trkpt lat="39.8018880" lon="-6.2200260">
        <ele>359.0</ele>
        <time>2019-07-09T15:19:00Z</time>
      </trkpt>
      <trkpt lat="39.8018680" lon="-6.2202160">
        <ele>359.2</ele>
        <time>2019-07-09T15:19:03Z</time>
      </trkpt>
      <trkpt lat="39.8018210" lon="-6.2208320">
        <ele>359.2</ele>
        <time>2019-07-09T15:19:12Z</time>
      </trkpt>
      <trkpt lat="39.8018070" lon="-6.2212780">
        <ele>359.2</ele>
        <time>2019-07-09T15:19:18Z</time>
      </trkpt>
      <trkpt lat="39.8018010" lon="-6.2213550">
        <ele>359.2</ele>
        <time>2019-07-09T15:19:19Z</time>
      </trkpt>
      <trkpt lat="39.8017920" lon="-6.2218300">
        <ele>358.6</ele>
        <time>2019-07-09T15:19:25Z</time>
      </trkpt>
      <trkpt lat="39.8017840" lon="-6.2219930">
        <ele>358.4</ele>
        <time>2019-07-09T15:19:27Z</time>
      </trkpt>
      <trkpt lat="39.8017750" lon="-6.2222430">
        <ele>358.2</ele>
        <time>2019-07-09T15:19:30Z</time>
      </trkpt>
      <trkpt lat="39.8017640" lon="-6.2225800">
        <ele>357.6</ele>
        <time>2019-07-09T15:19:34Z</time>
      </trkpt>
      <trkpt lat="39.8017550" lon="-6.2227520">
        <ele>357.4</ele>
        <time>2019-07-09T15:19:36Z</time>
      </trkpt>
      <trkpt lat="39.8017510" lon="-6.2228390">
        <ele>357.4</ele>
        <time>2019-07-09T15:19:37Z</time>
      </trkpt>
      <trkpt lat="39.8017470" lon="-6.2230180">
        <ele>356.8</ele>
        <time>2019-07-09T15:19:39Z</time>
      </trkpt>
      <trkpt lat="39.8017430" lon="-6.2232000">
        <ele>356.4</ele>
        <time>2019-07-09T15:19:41Z</time>
      </trkpt>
      <trkpt lat="39.8017400" lon="-6.2232910">
        <ele>356.2</ele>
        <time>2019-07-09T15:19:42Z</time>
      </trkpt>
      <trkpt lat="39.8017290" lon="-6.2236590">
        <ele>355.8</ele>
        <time>2019-07-09T15:19:46Z</time>
      </trkpt>
      <trkpt lat="39.8017240" lon="-6.2239400">
        <ele>355.2</ele>
        <time>2019-07-09T15:19:49Z</time>
      </trkpt>
      <trkpt lat="39.8017110" lon="-6.2242320">
        <ele>354.6</ele>
        <time>2019-07-09T15:19:52Z</time>
      </trkpt>
      <trkpt lat="39.8017080" lon="-6.2244290">
        <ele>354.4</ele>
        <time>2019-07-09T15:19:54Z</time>
      </trkpt>
      <trkpt lat="39.8016820" lon="-6.2250070">
        <ele>354.2</ele>
        <time>2019-07-09T15:20:00Z</time>
      </trkpt>
      <trkpt lat="39.8016850" lon="-6.2251000">
        <ele>354.2</ele>
        <time>2019-07-09T15:20:01Z</time>
      </trkpt>
      <trkpt lat="39.8016770" lon="-6.2255470">
        <ele>354.2</ele>
        <time>2019-07-09T15:20:06Z</time>
      </trkpt>
      <trkpt lat="39.8016780" lon="-6.2256330">
        <ele>354.2</ele>
        <time>2019-07-09T15:20:07Z</time>
      </trkpt>
      <trkpt lat="39.8016720" lon="-6.2259670">
        <ele>354.4</ele>
        <time>2019-07-09T15:20:11Z</time>
      </trkpt>
      <trkpt lat="39.8016560" lon="-6.2263570">
        <ele>355.2</ele>
        <time>2019-07-09T15:20:16Z</time>
      </trkpt>
      <trkpt lat="39.8016530" lon="-6.2265020">
        <ele>355.4</ele>
        <time>2019-07-09T15:20:18Z</time>
      </trkpt>
      <trkpt lat="39.8016500" lon="-6.2267100">
        <ele>355.6</ele>
        <time>2019-07-09T15:20:21Z</time>
      </trkpt>
      <trkpt lat="39.8016420" lon="-6.2268410">
        <ele>355.8</ele>
        <time>2019-07-09T15:20:23Z</time>
      </trkpt>
      <trkpt lat="39.8016390" lon="-6.2271710">
        <ele>356.6</ele>
        <time>2019-07-09T15:20:28Z</time>
      </trkpt>
      <trkpt lat="39.8016360" lon="-6.2272970">
        <ele>357.0</ele>
        <time>2019-07-09T15:20:30Z</time>
      </trkpt>
      <trkpt lat="39.8016320" lon="-6.2274860">
        <ele>357.4</ele>
        <time>2019-07-09T15:20:33Z</time>
      </trkpt>
      <trkpt lat="39.8016290" lon="-6.2275480">
        <ele>357.6</ele>
        <time>2019-07-09T15:20:34Z</time>
      </trkpt>
      <trkpt lat="39.8016220" lon="-6.2276740">
        <ele>358.0</ele>
        <time>2019-07-09T15:20:36Z</time>
      </trkpt>
      <trkpt lat="39.8016140" lon="-6.2278630">
        <ele>358.4</ele>
        <time>2019-07-09T15:20:39Z</time>
      </trkpt>
      <trkpt lat="39.8016100" lon="-6.2279900">
        <ele>358.6</ele>
        <time>2019-07-09T15:20:41Z</time>
      </trkpt>
      <trkpt lat="39.8016070" lon="-6.2282520">
        <ele>359.2</ele>
        <time>2019-07-09T15:20:45Z</time>
      </trkpt>
      <trkpt lat="39.8015970" lon="-6.2284540">
        <ele>359.4</ele>
        <time>2019-07-09T15:20:48Z</time>
      </trkpt>
      <trkpt lat="39.8015430" lon="-6.2290920">
        <ele>359.6</ele>
        <time>2019-07-09T15:20:57Z</time>
      </trkpt>
      <trkpt lat="39.8015080" lon="-6.2296310">
        <ele>359.4</ele>
        <time>2019-07-09T15:21:04Z</time>
      </trkpt>
      <trkpt lat="39.8014880" lon="-6.2299560">
        <ele>359.2</ele>
        <time>2019-07-09T15:21:08Z</time>
      </trkpt>
      <trkpt lat="39.8014600" lon="-6.2303800">
        <ele>359.2</ele>
        <time>2019-07-09T15:21:13Z</time>
      </trkpt>
      <trkpt lat="39.8014430" lon="-6.2305520">
        <ele>359.2</ele>
        <time>2019-07-09T15:21:15Z</time>
      </trkpt>
      <trkpt lat="39.8014320" lon="-6.2307270">
        <ele>358.8</ele>
        <time>2019-07-09T15:21:17Z</time>
      </trkpt>
      <trkpt lat="39.8014230" lon="-6.2309040">
        <ele>358.4</ele>
        <time>2019-07-09T15:21:19Z</time>
      </trkpt>
      <trkpt lat="39.8014090" lon="-6.2310820">
        <ele>358.0</ele>
        <time>2019-07-09T15:21:21Z</time>
      </trkpt>
      <trkpt lat="39.8014010" lon="-6.2311720">
        <ele>357.8</ele>
        <time>2019-07-09T15:21:22Z</time>
      </trkpt>
      <trkpt lat="39.8013850" lon="-6.2314500">
        <ele>357.4</ele>
        <time>2019-07-09T15:21:25Z</time>
      </trkpt>
      <trkpt lat="39.8013520" lon="-6.2318220">
        <ele>356.8</ele>
        <time>2019-07-09T15:21:29Z</time>
      </trkpt>
      <trkpt lat="39.8013380" lon="-6.2320080">
        <ele>356.6</ele>
        <time>2019-07-09T15:21:31Z</time>
      </trkpt>
      <trkpt lat="39.8013290" lon="-6.2322000">
        <ele>356.4</ele>
        <time>2019-07-09T15:21:33Z</time>
      </trkpt>
      <trkpt lat="39.8012510" lon="-6.2328820">
        <ele>355.6</ele>
        <time>2019-07-09T15:21:40Z</time>
      </trkpt>
      <trkpt lat="39.8012170" lon="-6.2331690">
        <ele>355.0</ele>
        <time>2019-07-09T15:21:43Z</time>
      </trkpt>
      <trkpt lat="39.8011600" lon="-6.2335300">
        <ele>354.6</ele>
        <time>2019-07-09T15:21:47Z</time>
      </trkpt>
      <trkpt lat="39.8011050" lon="-6.2339190">
        <ele>353.8</ele>
        <time>2019-07-09T15:21:52Z</time>
      </trkpt>
      <trkpt lat="39.8010930" lon="-6.2340610">
        <ele>353.8</ele>
        <time>2019-07-09T15:21:54Z</time>
      </trkpt>
      <trkpt lat="39.8010690" lon="-6.2342610">
        <ele>354.0</ele>
        <time>2019-07-09T15:21:57Z</time>
      </trkpt>
      <trkpt lat="39.8010500" lon="-6.2343900">
        <ele>354.2</ele>
        <time>2019-07-09T15:21:59Z</time>
      </trkpt>
      <trkpt lat="39.8010460" lon="-6.2344550">
        <ele>354.4</ele>
        <time>2019-07-09T15:22:00Z</time>
      </trkpt>
      <trkpt lat="39.8010100" lon="-6.2347580">
        <ele>355.2</ele>
        <time>2019-07-09T15:22:05Z</time>
      </trkpt>
      <trkpt lat="39.8009960" lon="-6.2348680">
        <ele>355.4</ele>
        <time>2019-07-09T15:22:07Z</time>
      </trkpt>
      <trkpt lat="39.8009750" lon="-6.2349740">
        <ele>355.8</ele>
        <time>2019-07-09T15:22:09Z</time>
      </trkpt>
      <trkpt lat="39.8009220" lon="-6.2352320">
        <ele>356.4</ele>
        <time>2019-07-09T15:22:14Z</time>
      </trkpt>
      <trkpt lat="39.8008860" lon="-6.2353770">
        <ele>356.8</ele>
        <time>2019-07-09T15:22:17Z</time>
      </trkpt>
      <trkpt lat="39.8008520" lon="-6.2355250">
        <ele>357.4</ele>
        <time>2019-07-09T15:22:20Z</time>
      </trkpt>
      <trkpt lat="39.8008290" lon="-6.2356220">
        <ele>357.6</ele>
        <time>2019-07-09T15:22:22Z</time>
      </trkpt>
      <trkpt lat="39.8008000" lon="-6.2357140">
        <ele>358.0</ele>
        <time>2019-07-09T15:22:24Z</time>
      </trkpt>
      <trkpt lat="39.8007350" lon="-6.2358870">
        <ele>358.6</ele>
        <time>2019-07-09T15:22:28Z</time>
      </trkpt>
      <trkpt lat="39.8007030" lon="-6.2360250">
        <ele>359.2</ele>
        <time>2019-07-09T15:22:31Z</time>
      </trkpt>
      <trkpt lat="39.8006580" lon="-6.2362550">
        <ele>360.0</ele>
        <time>2019-07-09T15:22:36Z</time>
      </trkpt>
      <trkpt lat="39.8006450" lon="-6.2362990">
        <ele>360.2</ele>
        <time>2019-07-09T15:22:37Z</time>
      </trkpt>
      <trkpt lat="39.8005790" lon="-6.2365050">
        <ele>361.2</ele>
        <time>2019-07-09T15:22:42Z</time>
      </trkpt>
      <trkpt lat="39.8005540" lon="-6.2365900">
        <ele>361.6</ele>
        <time>2019-07-09T15:22:44Z</time>
      </trkpt>
      <trkpt lat="39.8005100" lon="-6.2367970">
        <ele>362.0</ele>
        <time>2019-07-09T15:22:49Z</time>
      </trkpt>
      <trkpt lat="39.8005010" lon="-6.2368370">
        <ele>362.2</ele>
        <time>2019-07-09T15:22:50Z</time>
      </trkpt>
      <trkpt lat="39.8004840" lon="-6.2369150">
        <ele>362.6</ele>
        <time>2019-07-09T15:22:52Z</time>
      </trkpt>
      <trkpt lat="39.8004300" lon="-6.2371070">
        <ele>363.4</ele>
        <time>2019-07-09T15:22:57Z</time>
      </trkpt>
      <trkpt lat="39.8003930" lon="-6.2372210">
        <ele>364.0</ele>
        <time>2019-07-09T15:23:00Z</time>
      </trkpt>
      <trkpt lat="39.8003640" lon="-6.2373400">
        <ele>364.4</ele>
        <time>2019-07-09T15:23:03Z</time>
      </trkpt>
      <trkpt lat="39.8003020" lon="-6.2375660">
        <ele>365.6</ele>
        <time>2019-07-09T15:23:09Z</time>
      </trkpt>
      <trkpt lat="39.8002910" lon="-6.2376030">
        <ele>365.6</ele>
        <time>2019-07-09T15:23:10Z</time>
      </trkpt>
      <trkpt lat="39.8002310" lon="-6.2378300">
        <ele>366.6</ele>
        <time>2019-07-09T15:23:16Z</time>
      </trkpt>
      <trkpt lat="39.8001720" lon="-6.2380210">
        <ele>367.6</ele>
        <time>2019-07-09T15:23:21Z</time>
      </trkpt>
      <trkpt lat="39.8001600" lon="-6.2380600">
        <ele>367.8</ele>
        <time>2019-07-09T15:23:22Z</time>
      </trkpt>
      <trkpt lat="39.8000820" lon="-6.2383310">
        <ele>368.6</ele>
        <time>2019-07-09T15:23:29Z</time>
      </trkpt>
      <trkpt lat="39.8000720" lon="-6.2383710">
        <ele>368.8</ele>
        <time>2019-07-09T15:23:30Z</time>
      </trkpt>
      <trkpt lat="39.8000030" lon="-6.2385830">
        <ele>369.6</ele>
        <time>2019-07-09T15:23:35Z</time>
      </trkpt>
      <trkpt lat="39.7999670" lon="-6.2386780">
        <ele>369.6</ele>
        <time>2019-07-09T15:23:37Z</time>
      </trkpt>
      <trkpt lat="39.7999090" lon="-6.2388270">
        <ele>369.8</ele>
        <time>2019-07-09T15:23:40Z</time>
      </trkpt>
      <trkpt lat="39.7998950" lon="-6.2388810">
        <ele>369.6</ele>
        <time>2019-07-09T15:23:41Z</time>
      </trkpt>
      <trkpt lat="39.7997590" lon="-6.2394210">
        <ele>369.8</ele>
        <time>2019-07-09T15:23:51Z</time>
      </trkpt>
      <trkpt lat="39.7996960" lon="-6.2397520">
        <ele>369.8</ele>
        <time>2019-07-09T15:23:57Z</time>
      </trkpt>
      <trkpt lat="39.7996860" lon="-6.2398130">
        <ele>369.8</ele>
        <time>2019-07-09T15:23:58Z</time>
      </trkpt>
      <trkpt lat="39.7996510" lon="-6.2401450">
        <ele>369.8</ele>
        <time>2019-07-09T15:24:03Z</time>
      </trkpt>
      <trkpt lat="39.7996350" lon="-6.2403560">
        <ele>369.6</ele>
        <time>2019-07-09T15:24:06Z</time>
      </trkpt>
      <trkpt lat="39.7996210" lon="-6.2405840">
        <ele>369.0</ele>
        <time>2019-07-09T15:24:09Z</time>
      </trkpt>
      <trkpt lat="39.7996030" lon="-6.2409110">
        <ele>368.6</ele>
        <time>2019-07-09T15:24:13Z</time>
      </trkpt>
      <trkpt lat="39.7995930" lon="-6.2410880">
        <ele>367.8</ele>
        <time>2019-07-09T15:24:15Z</time>
      </trkpt>
      <trkpt lat="39.7995670" lon="-6.2414750">
        <ele>366.6</ele>
        <time>2019-07-09T15:24:19Z</time>
      </trkpt>
      <trkpt lat="39.7995620" lon="-6.2415780">
        <ele>366.2</ele>
        <time>2019-07-09T15:24:20Z</time>
      </trkpt>
      <trkpt lat="39.7995430" lon="-6.2418920">
        <ele>365.8</ele>
        <time>2019-07-09T15:24:23Z</time>
      </trkpt>
      <trkpt lat="39.7995380" lon="-6.2419970">
        <ele>365.4</ele>
        <time>2019-07-09T15:24:24Z</time>
      </trkpt>
      <trkpt lat="39.7995260" lon="-6.2423130">
        <ele>364.0</ele>
        <time>2019-07-09T15:24:27Z</time>
      </trkpt>
      <trkpt lat="39.7995190" lon="-6.2424190">
        <ele>363.6</ele>
        <time>2019-07-09T15:24:28Z</time>
      </trkpt>
      <trkpt lat="39.7995050" lon="-6.2426310">
        <ele>363.0</ele>
        <time>2019-07-09T15:24:30Z</time>
      </trkpt>
      <trkpt lat="39.7994730" lon="-6.2432380">
        <ele>361.6</ele>
        <time>2019-07-09T15:24:36Z</time>
      </trkpt>
      <trkpt lat="39.7994710" lon="-6.2433360">
        <ele>361.0</ele>
        <time>2019-07-09T15:24:37Z</time>
      </trkpt>
      <trkpt lat="39.7994680" lon="-6.2434340">
        <ele>360.4</ele>
        <time>2019-07-09T15:24:38Z</time>
      </trkpt>
      <trkpt lat="39.7994430" lon="-6.2439270">
        <ele>359.2</ele>
        <time>2019-07-09T15:24:43Z</time>
      </trkpt>
      <trkpt lat="39.7994280" lon="-6.2441230">
        <ele>358.6</ele>
        <time>2019-07-09T15:24:45Z</time>
      </trkpt>
      <trkpt lat="39.7994110" lon="-6.2443180">
        <ele>358.0</ele>
        <time>2019-07-09T15:24:47Z</time>
      </trkpt>
      <trkpt lat="39.7993990" lon="-6.2445170">
        <ele>357.4</ele>
        <time>2019-07-09T15:24:49Z</time>
      </trkpt>
      <trkpt lat="39.7993900" lon="-6.2447150">
        <ele>357.0</ele>
        <time>2019-07-09T15:24:51Z</time>
      </trkpt>
      <trkpt lat="39.7993800" lon="-6.2449110">
        <ele>356.6</ele>
        <time>2019-07-09T15:24:53Z</time>
      </trkpt>
      <trkpt lat="39.7993320" lon="-6.2455540">
        <ele>356.4</ele>
        <time>2019-07-09T15:25:00Z</time>
      </trkpt>
      <trkpt lat="39.7992880" lon="-6.2460550">
        <ele>356.2</ele>
        <time>2019-07-09T15:25:06Z</time>
      </trkpt>
      <trkpt lat="39.7992690" lon="-6.2462170">
        <ele>356.0</ele>
        <time>2019-07-09T15:25:08Z</time>
      </trkpt>
      <trkpt lat="39.7992450" lon="-6.2464590">
        <ele>356.0</ele>
        <time>2019-07-09T15:25:11Z</time>
      </trkpt>
      <trkpt lat="39.7992010" lon="-6.2468490">
        <ele>355.8</ele>
        <time>2019-07-09T15:25:16Z</time>
      </trkpt>
      <trkpt lat="39.7991340" lon="-6.2473600">
        <ele>355.8</ele>
        <time>2019-07-09T15:25:23Z</time>
      </trkpt>
      <trkpt lat="39.7991260" lon="-6.2474330">
        <ele>355.8</ele>
        <time>2019-07-09T15:25:24Z</time>
      </trkpt>
      <trkpt lat="39.7990420" lon="-6.2481020">
        <ele>356.0</ele>
        <time>2019-07-09T15:25:33Z</time>
      </trkpt>
      <trkpt lat="39.7989540" lon="-6.2487950">
        <ele>355.6</ele>
        <time>2019-07-09T15:25:42Z</time>
      </trkpt>
      <trkpt lat="39.7989340" lon="-6.2489530">
        <ele>355.4</ele>
        <time>2019-07-09T15:25:44Z</time>
      </trkpt>
      <trkpt lat="39.7989090" lon="-6.2491940">
        <ele>355.0</ele>
        <time>2019-07-09T15:25:47Z</time>
      </trkpt>
      <trkpt lat="39.7988510" lon="-6.2497800">
        <ele>354.0</ele>
        <time>2019-07-09T15:25:54Z</time>
      </trkpt>
      <trkpt lat="39.7988490" lon="-6.2498650">
        <ele>354.0</ele>
        <time>2019-07-09T15:25:55Z</time>
      </trkpt>
      <trkpt lat="39.7988470" lon="-6.2500340">
        <ele>353.8</ele>
        <time>2019-07-09T15:25:57Z</time>
      </trkpt>
      <trkpt lat="39.7988420" lon="-6.2503690">
        <ele>353.8</ele>
        <time>2019-07-09T15:26:01Z</time>
      </trkpt>
      <trkpt lat="39.7988400" lon="-6.2505340">
        <ele>353.6</ele>
        <time>2019-07-09T15:26:03Z</time>
      </trkpt>
      <trkpt lat="39.7988410" lon="-6.2507760">
        <ele>353.4</ele>
        <time>2019-07-09T15:26:06Z</time>
      </trkpt>
      <trkpt lat="39.7988660" lon="-6.2511630">
        <ele>353.4</ele>
        <time>2019-07-09T15:26:11Z</time>
      </trkpt>
      <trkpt lat="39.7989390" lon="-6.2515030">
        <ele>353.2</ele>
        <time>2019-07-09T15:26:16Z</time>
      </trkpt>
      <trkpt lat="39.7990270" lon="-6.2517240">
        <ele>353.8</ele>
        <time>2019-07-09T15:26:20Z</time>
      </trkpt>
      <trkpt lat="39.7990720" lon="-6.2518210">
        <ele>354.0</ele>
        <time>2019-07-09T15:26:22Z</time>
      </trkpt>
      <trkpt lat="39.7991170" lon="-6.2519150">
        <ele>354.2</ele>
        <time>2019-07-09T15:26:24Z</time>
      </trkpt>
      <trkpt lat="39.7991880" lon="-6.2521180">
        <ele>354.8</ele>
        <time>2019-07-09T15:26:28Z</time>
      </trkpt>
      <trkpt lat="39.7992070" lon="-6.2521660">
        <ele>355.0</ele>
        <time>2019-07-09T15:26:29Z</time>
      </trkpt>
      <trkpt lat="39.7992290" lon="-6.2522120">
        <ele>355.2</ele>
        <time>2019-07-09T15:26:30Z</time>
      </trkpt>
      <trkpt lat="39.7992950" lon="-6.2523530">
        <ele>355.6</ele>
        <time>2019-07-09T15:26:33Z</time>
      </trkpt>
      <trkpt lat="39.7993390" lon="-6.2524500">
        <ele>355.8</ele>
        <time>2019-07-09T15:26:35Z</time>
      </trkpt>
      <trkpt lat="39.7993770" lon="-6.2525460">
        <ele>356.4</ele>
        <time>2019-07-09T15:26:37Z</time>
      </trkpt>
      <trkpt lat="39.7994360" lon="-6.2526830">
        <ele>357.0</ele>
        <time>2019-07-09T15:26:40Z</time>
      </trkpt>
      <trkpt lat="39.7994910" lon="-6.2528110">
        <ele>357.6</ele>
        <time>2019-07-09T15:26:43Z</time>
      </trkpt>
      <trkpt lat="39.7995630" lon="-6.2529780">
        <ele>358.4</ele>
        <time>2019-07-09T15:26:47Z</time>
      </trkpt>
      <trkpt lat="39.7995980" lon="-6.2530620">
        <ele>358.8</ele>
        <time>2019-07-09T15:26:49Z</time>
      </trkpt>
      <trkpt lat="39.7996340" lon="-6.2531440">
        <ele>359.0</ele>
        <time>2019-07-09T15:26:51Z</time>
      </trkpt>
      <trkpt lat="39.7997140" lon="-6.2533520">
        <ele>359.8</ele>
        <time>2019-07-09T15:26:56Z</time>
      </trkpt>
      <trkpt lat="39.7997680" lon="-6.2534800">
        <ele>360.4</ele>
        <time>2019-07-09T15:26:59Z</time>
      </trkpt>
      <trkpt lat="39.7998120" lon="-6.2536020">
        <ele>361.0</ele>
        <time>2019-07-09T15:27:02Z</time>
      </trkpt>
      <trkpt lat="39.7998860" lon="-6.2537550">
        <ele>361.6</ele>
        <time>2019-07-09T15:27:06Z</time>
      </trkpt>
      <trkpt lat="39.7999920" lon="-6.2539390">
        <ele>362.2</ele>
        <time>2019-07-09T15:27:11Z</time>
      </trkpt>
      <trkpt lat="39.8000780" lon="-6.2540330">
        <ele>362.4</ele>
        <time>2019-07-09T15:27:14Z</time>
      </trkpt>
      <trkpt lat="39.8003730" lon="-6.2542200">
        <ele>363.2</ele>
        <time>2019-07-09T15:27:22Z</time>
      </trkpt>
      <trkpt lat="39.8007140" lon="-6.2543350">
        <ele>363.8</ele>
        <time>2019-07-09T15:27:30Z</time>
      </trkpt>
      <trkpt lat="39.8008830" lon="-6.2543990">
        <ele>363.8</ele>
        <time>2019-07-09T15:27:34Z</time>
      </trkpt>
      <trkpt lat="39.8010930" lon="-6.2544800">
        <ele>364.2</ele>
        <time>2019-07-09T15:27:39Z</time>
      </trkpt>
      <trkpt lat="39.8011360" lon="-6.2544930">
        <ele>364.2</ele>
        <time>2019-07-09T15:27:40Z</time>
      </trkpt>
      <trkpt lat="39.8013600" lon="-6.2545750">
        <ele>364.4</ele>
        <time>2019-07-09T15:27:45Z</time>
      </trkpt>
      <trkpt lat="39.8014500" lon="-6.2546180">
        <ele>364.4</ele>
        <time>2019-07-09T15:27:47Z</time>
      </trkpt>
      <trkpt lat="39.8017430" lon="-6.2547340">
        <ele>364.6</ele>
        <time>2019-07-09T15:27:53Z</time>
      </trkpt>
      <trkpt lat="39.8017910" lon="-6.2547570">
        <ele>364.6</ele>
        <time>2019-07-09T15:27:54Z</time>
      </trkpt>
      <trkpt lat="39.8021140" lon="-6.2548830">
        <ele>364.6</ele>
        <time>2019-07-09T15:28:01Z</time>
      </trkpt>
      <trkpt lat="39.8021980" lon="-6.2549180">
        <ele>364.8</ele>
        <time>2019-07-09T15:28:03Z</time>
      </trkpt>
      <trkpt lat="39.8023180" lon="-6.2549600">
        <ele>365.2</ele>
        <time>2019-07-09T15:28:06Z</time>
      </trkpt>
      <trkpt lat="39.8024610" lon="-6.2550220">
        <ele>366.2</ele>
        <time>2019-07-09T15:28:10Z</time>
      </trkpt>
      <trkpt lat="39.8024930" lon="-6.2550370">
        <ele>366.4</ele>
        <time>2019-07-09T15:28:11Z</time>
      </trkpt>
      <trkpt lat="39.8026190" lon="-6.2550750">
        <ele>367.2</ele>
        <time>2019-07-09T15:28:15Z</time>
      </trkpt>
      <trkpt lat="39.8026490" lon="-6.2550860">
        <ele>367.6</ele>
        <time>2019-07-09T15:28:16Z</time>
      </trkpt>
      <trkpt lat="39.8026780" lon="-6.2550990">
        <ele>367.8</ele>
        <time>2019-07-09T15:28:17Z</time>
      </trkpt>
      <trkpt lat="39.8027960" lon="-6.2551420">
        <ele>368.6</ele>
        <time>2019-07-09T15:28:21Z</time>
      </trkpt>
      <trkpt lat="39.8029140" lon="-6.2551920">
        <ele>369.4</ele>
        <time>2019-07-09T15:28:25Z</time>
      </trkpt>
      <trkpt lat="39.8029430" lon="-6.2552050">
        <ele>369.8</ele>
        <time>2019-07-09T15:28:26Z</time>
      </trkpt>
      <trkpt lat="39.8030290" lon="-6.2552440">
        <ele>370.4</ele>
        <time>2019-07-09T15:28:29Z</time>
      </trkpt>
      <trkpt lat="39.8031160" lon="-6.2552830">
        <ele>370.8</ele>
        <time>2019-07-09T15:28:32Z</time>
      </trkpt>
      <trkpt lat="39.8032060" lon="-6.2553100">
        <ele>371.8</ele>
        <time>2019-07-09T15:28:35Z</time>
      </trkpt>
      <trkpt lat="39.8033290" lon="-6.2553520">
        <ele>373.0</ele>
        <time>2019-07-09T15:28:39Z</time>
      </trkpt>
      <trkpt lat="39.8034180" lon="-6.2553890">
        <ele>373.4</ele>
        <time>2019-07-09T15:28:42Z</time>
      </trkpt>
      <trkpt lat="39.8035170" lon="-6.2554200">
        <ele>374.0</ele>
        <time>2019-07-09T15:28:45Z</time>
      </trkpt>
      <trkpt lat="39.8036910" lon="-6.2554830">
        <ele>374.6</ele>
        <time>2019-07-09T15:28:50Z</time>
      </trkpt>
      <trkpt lat="39.8038420" lon="-6.2555250">
        <ele>375.0</ele>
        <time>2019-07-09T15:28:54Z</time>
      </trkpt>
      <trkpt lat="39.8040340" lon="-6.2556020">
        <ele>375.0</ele>
        <time>2019-07-09T15:28:59Z</time>
      </trkpt>
      <trkpt lat="39.8043760" lon="-6.2557250">
        <ele>375.2</ele>
        <time>2019-07-09T15:29:07Z</time>
      </trkpt>
      <trkpt lat="39.8044200" lon="-6.2557440">
        <ele>375.2</ele>
        <time>2019-07-09T15:29:08Z</time>
      </trkpt>
      <trkpt lat="39.8045980" lon="-6.2558180">
        <ele>375.2</ele>
        <time>2019-07-09T15:29:12Z</time>
      </trkpt>
      <trkpt lat="39.8047850" lon="-6.2559010">
        <ele>375.2</ele>
        <time>2019-07-09T15:29:16Z</time>
      </trkpt>
      <trkpt lat="39.8050200" lon="-6.2559940">
        <ele>375.4</ele>
        <time>2019-07-09T15:29:21Z</time>
      </trkpt>
      <trkpt lat="39.8051960" lon="-6.2560650">
        <ele>375.6</ele>
        <time>2019-07-09T15:29:25Z</time>
      </trkpt>
      <trkpt lat="39.8054040" lon="-6.2561590">
        <ele>376.0</ele>
        <time>2019-07-09T15:29:30Z</time>
      </trkpt>
      <trkpt lat="39.8054860" lon="-6.2561990">
        <ele>376.2</ele>
        <time>2019-07-09T15:29:32Z</time>
      </trkpt>
      <trkpt lat="39.8055280" lon="-6.2562160">
        <ele>376.2</ele>
        <time>2019-07-09T15:29:33Z</time>
      </trkpt>
      <trkpt lat="39.8058170" lon="-6.2563080">
        <ele>376.8</ele>
        <time>2019-07-09T15:29:40Z</time>
      </trkpt>
      <trkpt lat="39.8058940" lon="-6.2563460">
        <ele>377.0</ele>
        <time>2019-07-09T15:29:42Z</time>
      </trkpt>
      <trkpt lat="39.8061520" lon="-6.2564480">
        <ele>378.0</ele>
        <time>2019-07-09T15:29:49Z</time>
      </trkpt>
      <trkpt lat="39.8061910" lon="-6.2564630">
        <ele>378.0</ele>
        <time>2019-07-09T15:29:50Z</time>
      </trkpt>
      <trkpt lat="39.8064490" lon="-6.2565700">
        <ele>379.2</ele>
        <time>2019-07-09T15:29:57Z</time>
      </trkpt>
      <trkpt lat="39.8067000" lon="-6.2566640">
        <ele>380.0</ele>
        <time>2019-07-09T15:30:04Z</time>
      </trkpt>
      <trkpt lat="39.8067340" lon="-6.2566780">
        <ele>380.2</ele>
        <time>2019-07-09T15:30:05Z</time>
      </trkpt>
      <trkpt lat="39.8070180" lon="-6.2567960">
        <ele>381.4</ele>
        <time>2019-07-09T15:30:13Z</time>
      </trkpt>
      <trkpt lat="39.8070560" lon="-6.2568130">
        <ele>381.4</ele>
        <time>2019-07-09T15:30:14Z</time>
      </trkpt>
      <trkpt lat="39.8073560" lon="-6.2569320">
        <ele>382.2</ele>
        <time>2019-07-09T15:30:22Z</time>
      </trkpt>
      <trkpt lat="39.8074690" lon="-6.2569810">
        <ele>382.4</ele>
        <time>2019-07-09T15:30:25Z</time>
      </trkpt>
      <trkpt lat="39.8076560" lon="-6.2570580">
        <ele>383.0</ele>
        <time>2019-07-09T15:30:30Z</time>
      </trkpt>
      <trkpt lat="39.8078820" lon="-6.2571410">
        <ele>383.6</ele>
        <time>2019-07-09T15:30:36Z</time>
      </trkpt>
      <trkpt lat="39.8079200" lon="-6.2571550">
        <ele>383.8</ele>
        <time>2019-07-09T15:30:37Z</time>
      </trkpt>
      <trkpt lat="39.8081430" lon="-6.2572550">
        <ele>384.6</ele>
        <time>2019-07-09T15:30:43Z</time>
      </trkpt>
      <trkpt lat="39.8081810" lon="-6.2572670">
        <ele>384.8</ele>
        <time>2019-07-09T15:30:44Z</time>
      </trkpt>
      <trkpt lat="39.8084030" lon="-6.2573480">
        <ele>385.4</ele>
        <time>2019-07-09T15:30:50Z</time>
      </trkpt>
      <trkpt lat="39.8085070" lon="-6.2573950">
        <ele>385.6</ele>
        <time>2019-07-09T15:30:53Z</time>
      </trkpt>
      <trkpt lat="39.8086140" lon="-6.2574330">
        <ele>386.2</ele>
        <time>2019-07-09T15:30:56Z</time>
      </trkpt>
      <trkpt lat="39.8086840" lon="-6.2574570">
        <ele>386.8</ele>
        <time>2019-07-09T15:30:58Z</time>
      </trkpt>
      <trkpt lat="39.8088800" lon="-6.2575300">
        <ele>387.6</ele>
        <time>2019-07-09T15:31:04Z</time>
      </trkpt>
      <trkpt lat="39.8089730" lon="-6.2575660">
        <ele>387.8</ele>
        <time>2019-07-09T15:31:07Z</time>
      </trkpt>
      <trkpt lat="39.8090940" lon="-6.2576130">
        <ele>388.6</ele>
        <time>2019-07-09T15:31:11Z</time>
      </trkpt>
      <trkpt lat="39.8091820" lon="-6.2576460">
        <ele>388.8</ele>
        <time>2019-07-09T15:31:14Z</time>
      </trkpt>
      <trkpt lat="39.8093590" lon="-6.2577170">
        <ele>390.0</ele>
        <time>2019-07-09T15:31:20Z</time>
      </trkpt>
      <trkpt lat="39.8095500" lon="-6.2578030">
        <ele>391.2</ele>
        <time>2019-07-09T15:31:27Z</time>
      </trkpt>
      <trkpt lat="39.8096610" lon="-6.2578480">
        <ele>391.8</ele>
        <time>2019-07-09T15:31:31Z</time>
      </trkpt>
      <trkpt lat="39.8097190" lon="-6.2578640">
        <ele>392.4</ele>
        <time>2019-07-09T15:31:33Z</time>
      </trkpt>
      <trkpt lat="39.8098520" lon="-6.2579280">
        <ele>393.4</ele>
        <time>2019-07-09T15:31:38Z</time>
      </trkpt>
      <trkpt lat="39.8098770" lon="-6.2579390">
        <ele>393.6</ele>
        <time>2019-07-09T15:31:39Z</time>
      </trkpt>
      <trkpt lat="39.8099830" lon="-6.2579620">
        <ele>394.6</ele>
        <time>2019-07-09T15:31:43Z</time>
      </trkpt>
      <trkpt lat="39.8100600" lon="-6.2579880">
        <ele>395.2</ele>
        <time>2019-07-09T15:31:46Z</time>
      </trkpt>
      <trkpt lat="39.8101090" lon="-6.2580070">
        <ele>395.6</ele>
        <time>2019-07-09T15:31:48Z</time>
      </trkpt>
      <trkpt lat="39.8102370" lon="-6.2580560">
        <ele>396.8</ele>
        <time>2019-07-09T15:31:53Z</time>
      </trkpt>
      <trkpt lat="39.8103890" lon="-6.2581150">
        <ele>397.8</ele>
        <time>2019-07-09T15:31:59Z</time>
      </trkpt>
      <trkpt lat="39.8104140" lon="-6.2581280">
        <ele>398.0</ele>
        <time>2019-07-09T15:32:00Z</time>
      </trkpt>
      <trkpt lat="39.8105440" lon="-6.2581750">
        <ele>399.0</ele>
        <time>2019-07-09T15:32:05Z</time>
      </trkpt>
      <trkpt lat="39.8106210" lon="-6.2582010">
        <ele>399.6</ele>
        <time>2019-07-09T15:32:08Z</time>
      </trkpt>
      <trkpt lat="39.8106960" lon="-6.2582270">
        <ele>400.0</ele>
        <time>2019-07-09T15:32:11Z</time>
      </trkpt>
      <trkpt lat="39.8108250" lon="-6.2582760">
        <ele>401.0</ele>
        <time>2019-07-09T15:32:16Z</time>
      </trkpt>
      <trkpt lat="39.8110520" lon="-6.2583630">
        <ele>402.0</ele>
        <time>2019-07-09T15:32:24Z</time>
      </trkpt>
      <trkpt lat="39.8111140" lon="-6.2583870">
        <ele>402.2</ele>
        <time>2019-07-09T15:32:26Z</time>
      </trkpt>
      <trkpt lat="39.8112990" lon="-6.2584540">
        <ele>402.8</ele>
        <time>2019-07-09T15:32:32Z</time>
      </trkpt>
      <trkpt lat="39.8114030" lon="-6.2584930">
        <ele>402.8</ele>
        <time>2019-07-09T15:32:35Z</time>
      </trkpt>
      <trkpt lat="39.8115520" lon="-6.2585510">
        <ele>403.0</ele>
        <time>2019-07-09T15:32:39Z</time>
      </trkpt>
      <trkpt lat="39.8116240" lon="-6.2585840">
        <ele>403.2</ele>
        <time>2019-07-09T15:32:41Z</time>
      </trkpt>
      <trkpt lat="39.8116600" lon="-6.2585980">
        <ele>403.2</ele>
        <time>2019-07-09T15:32:42Z</time>
      </trkpt>
      <trkpt lat="39.8117700" lon="-6.2586390">
        <ele>403.4</ele>
        <time>2019-07-09T15:32:45Z</time>
      </trkpt>
      <trkpt lat="39.8120040" lon="-6.2587280">
        <ele>403.4</ele>
        <time>2019-07-09T15:32:51Z</time>
      </trkpt>
      <trkpt lat="39.8120420" lon="-6.2587410">
        <ele>403.4</ele>
        <time>2019-07-09T15:32:52Z</time>
      </trkpt>
      <trkpt lat="39.8121200" lon="-6.2587680">
        <ele>403.6</ele>
        <time>2019-07-09T15:32:54Z</time>
      </trkpt>
      <trkpt lat="39.8123480" lon="-6.2588600">
        <ele>403.8</ele>
        <time>2019-07-09T15:33:00Z</time>
      </trkpt>
      <trkpt lat="39.8126210" lon="-6.2589800">
        <ele>403.8</ele>
        <time>2019-07-09T15:33:07Z</time>
      </trkpt>
      <trkpt lat="39.8127440" lon="-6.2590300">
        <ele>404.0</ele>
        <time>2019-07-09T15:33:10Z</time>
      </trkpt>
      <trkpt lat="39.8128270" lon="-6.2590660">
        <ele>404.2</ele>
        <time>2019-07-09T15:33:12Z</time>
      </trkpt>
      <trkpt lat="39.8130420" lon="-6.2591570">
        <ele>404.2</ele>
        <time>2019-07-09T15:33:17Z</time>
      </trkpt>
      <trkpt lat="39.8130860" lon="-6.2591730">
        <ele>404.2</ele>
        <time>2019-07-09T15:33:18Z</time>
      </trkpt>
      <trkpt lat="39.8131750" lon="-6.2592070">
        <ele>404.0</ele>
        <time>2019-07-09T15:33:20Z</time>
      </trkpt>
      <trkpt lat="39.8135810" lon="-6.2593800">
        <ele>404.0</ele>
        <time>2019-07-09T15:33:29Z</time>
      </trkpt>
      <trkpt lat="39.8139880" lon="-6.2596090">
        <ele>404.0</ele>
        <time>2019-07-09T15:33:38Z</time>
      </trkpt>
      <trkpt lat="39.8141300" lon="-6.2597060">
        <ele>403.8</ele>
        <time>2019-07-09T15:33:41Z</time>
      </trkpt>
      <trkpt lat="39.8142710" lon="-6.2598320">
        <ele>403.2</ele>
        <time>2019-07-09T15:33:44Z</time>
      </trkpt>
      <trkpt lat="39.8143200" lon="-6.2598790">
        <ele>403.0</ele>
        <time>2019-07-09T15:33:45Z</time>
      </trkpt>
      <trkpt lat="39.8143710" lon="-6.2599290">
        <ele>402.6</ele>
        <time>2019-07-09T15:33:46Z</time>
      </trkpt>
      <trkpt lat="39.8145370" lon="-6.2600880">
        <ele>401.8</ele>
        <time>2019-07-09T15:33:49Z</time>
      </trkpt>
      <trkpt lat="39.8145970" lon="-6.2601460">
        <ele>401.4</ele>
        <time>2019-07-09T15:33:50Z</time>
      </trkpt>
      <trkpt lat="39.8147200" lon="-6.2602720">
        <ele>400.6</ele>
        <time>2019-07-09T15:33:52Z</time>
      </trkpt>
      <trkpt lat="39.8148510" lon="-6.2604070">
        <ele>400.0</ele>
        <time>2019-07-09T15:33:54Z</time>
      </trkpt>
      <trkpt lat="39.8149880" lon="-6.2605460">
        <ele>399.4</ele>
        <time>2019-07-09T15:33:56Z</time>
      </trkpt>
      <trkpt lat="39.8152070" lon="-6.2607530">
        <ele>398.2</ele>
        <time>2019-07-09T15:33:59Z</time>
      </trkpt>
      <trkpt lat="39.8155220" lon="-6.2610470">
        <ele>396.8</ele>
        <time>2019-07-09T15:34:03Z</time>
      </trkpt>
      <trkpt lat="39.8156820" lon="-6.2612150">
        <ele>395.2</ele>
        <time>2019-07-09T15:34:05Z</time>
      </trkpt>
      <trkpt lat="39.8158470" lon="-6.2613820">
        <ele>393.4</ele>
        <time>2019-07-09T15:34:07Z</time>
      </trkpt>
      <trkpt lat="39.8160130" lon="-6.2615460">
        <ele>391.8</ele>
        <time>2019-07-09T15:34:09Z</time>
      </trkpt>
      <trkpt lat="39.8160970" lon="-6.2616240">
        <ele>391.2</ele>
        <time>2019-07-09T15:34:10Z</time>
      </trkpt>
      <trkpt lat="39.8161810" lon="-6.2616990">
        <ele>390.8</ele>
        <time>2019-07-09T15:34:11Z</time>
      </trkpt>
      <trkpt lat="39.8162670" lon="-6.2617680">
        <ele>390.2</ele>
        <time>2019-07-09T15:34:12Z</time>
      </trkpt>
      <trkpt lat="39.8164500" lon="-6.2618850">
        <ele>389.2</ele>
        <time>2019-07-09T15:34:14Z</time>
      </trkpt>
      <trkpt lat="39.8165490" lon="-6.2619240">
        <ele>388.6</ele>
        <time>2019-07-09T15:34:15Z</time>
      </trkpt>
      <trkpt lat="39.8166490" lon="-6.2619540">
        <ele>388.0</ele>
        <time>2019-07-09T15:34:16Z</time>
      </trkpt>
      <trkpt lat="39.8168420" lon="-6.2620160">
        <ele>386.6</ele>
        <time>2019-07-09T15:34:18Z</time>
      </trkpt>
      <trkpt lat="39.8169300" lon="-6.2620620">
        <ele>385.6</ele>
        <time>2019-07-09T15:34:19Z</time>
      </trkpt>
      <trkpt lat="39.8170100" lon="-6.2621240">
        <ele>384.8</ele>
        <time>2019-07-09T15:34:20Z</time>
      </trkpt>
      <trkpt lat="39.8170810" lon="-6.2622050">
        <ele>383.6</ele>
        <time>2019-07-09T15:34:21Z</time>
      </trkpt>
      <trkpt lat="39.8171320" lon="-6.2623050">
        <ele>383.0</ele>
        <time>2019-07-09T15:34:22Z</time>
      </trkpt>
      <trkpt lat="39.8171620" lon="-6.2625330">
        <ele>382.6</ele>
        <time>2019-07-09T15:34:24Z</time>
      </trkpt>
      <trkpt lat="39.8171210" lon="-6.2627490">
        <ele>382.4</ele>
        <time>2019-07-09T15:34:26Z</time>
      </trkpt>
      <trkpt lat="39.8170740" lon="-6.2629550">
        <ele>382.4</ele>
        <time>2019-07-09T15:34:28Z</time>
      </trkpt>
      <trkpt lat="39.8169550" lon="-6.2634640">
        <ele>381.6</ele>
        <time>2019-07-09T15:34:33Z</time>
      </trkpt>
      <trkpt lat="39.8168940" lon="-6.2637830">
        <ele>381.0</ele>
        <time>2019-07-09T15:34:36Z</time>
      </trkpt>
      <trkpt lat="39.8168590" lon="-6.2640080">
        <ele>380.4</ele>
        <time>2019-07-09T15:34:38Z</time>
      </trkpt>
      <trkpt lat="39.8168100" lon="-6.2643610">
        <ele>379.2</ele>
        <time>2019-07-09T15:34:41Z</time>
      </trkpt>
      <trkpt lat="39.8167770" lon="-6.2646040">
        <ele>378.4</ele>
        <time>2019-07-09T15:34:43Z</time>
      </trkpt>
      <trkpt lat="39.8167570" lon="-6.2647270">
        <ele>377.8</ele>
        <time>2019-07-09T15:34:44Z</time>
      </trkpt>
      <trkpt lat="39.8167160" lon="-6.2651000">
        <ele>376.8</ele>
        <time>2019-07-09T15:34:47Z</time>
      </trkpt>
      <trkpt lat="39.8167090" lon="-6.2652250">
        <ele>376.4</ele>
        <time>2019-07-09T15:34:48Z</time>
      </trkpt>
      <trkpt lat="39.8167210" lon="-6.2654730">
        <ele>376.0</ele>
        <time>2019-07-09T15:34:50Z</time>
      </trkpt>
      <trkpt lat="39.8167390" lon="-6.2655940">
        <ele>375.6</ele>
        <time>2019-07-09T15:34:51Z</time>
      </trkpt>
      <trkpt lat="39.8167690" lon="-6.2657130">
        <ele>375.2</ele>
        <time>2019-07-09T15:34:52Z</time>
      </trkpt>
      <trkpt lat="39.8168570" lon="-6.2659440">
        <ele>374.2</ele>
        <time>2019-07-09T15:34:54Z</time>
      </trkpt>
      <trkpt lat="39.8169740" lon="-6.2661680">
        <ele>372.8</ele>
        <time>2019-07-09T15:34:56Z</time>
      </trkpt>
      <trkpt lat="39.8171050" lon="-6.2663910">
        <ele>371.0</ele>
        <time>2019-07-09T15:34:58Z</time>
      </trkpt>
      <trkpt lat="39.8172490" lon="-6.2666050">
        <ele>369.6</ele>
        <time>2019-07-09T15:35:00Z</time>
      </trkpt>
      <trkpt lat="39.8173780" lon="-6.2668290">
        <ele>368.4</ele>
        <time>2019-07-09T15:35:02Z</time>
      </trkpt>
      <trkpt lat="39.8174610" lon="-6.2670710">
        <ele>367.4</ele>
        <time>2019-07-09T15:35:04Z</time>
      </trkpt>
      <trkpt lat="39.8174880" lon="-6.2671900">
        <ele>367.2</ele>
        <time>2019-07-09T15:35:05Z</time>
      </trkpt>
      <trkpt lat="39.8175470" lon="-6.2675920">
        <ele>367.4</ele>
        <time>2019-07-09T15:35:09Z</time>
      </trkpt>
      <trkpt lat="39.8175610" lon="-6.2677440">
        <ele>368.0</ele>
        <time>2019-07-09T15:35:11Z</time>
      </trkpt>
      <trkpt lat="39.8175650" lon="-6.2678790">
        <ele>368.2</ele>
        <time>2019-07-09T15:35:13Z</time>
      </trkpt>
      <trkpt lat="39.8175670" lon="-6.2679400">
        <ele>368.4</ele>
        <time>2019-07-09T15:35:14Z</time>
      </trkpt>
      <trkpt lat="39.8175530" lon="-6.2681450">
        <ele>369.0</ele>
        <time>2019-07-09T15:35:18Z</time>
      </trkpt>
      <trkpt lat="39.8175390" lon="-6.2682710">
        <ele>369.4</ele>
        <time>2019-07-09T15:35:21Z</time>
      </trkpt>
      <trkpt lat="39.8175350" lon="-6.2683550">
        <ele>370.0</ele>
        <time>2019-07-09T15:35:23Z</time>
      </trkpt>
      <trkpt lat="39.8175370" lon="-6.2684420">
        <ele>370.4</ele>
        <time>2019-07-09T15:35:25Z</time>
      </trkpt>
      <trkpt lat="39.8175410" lon="-6.2684850">
        <ele>370.6</ele>
        <time>2019-07-09T15:35:26Z</time>
      </trkpt>
      <trkpt lat="39.8175540" lon="-6.2685710">
        <ele>371.2</ele>
        <time>2019-07-09T15:35:28Z</time>
      </trkpt>
      <trkpt lat="39.8175750" lon="-6.2686500">
        <ele>371.6</ele>
        <time>2019-07-09T15:35:30Z</time>
      </trkpt>
      <trkpt lat="39.8175990" lon="-6.2687260">
        <ele>372.2</ele>
        <time>2019-07-09T15:35:32Z</time>
      </trkpt>
      <trkpt lat="39.8176470" lon="-6.2688290">
        <ele>372.8</ele>
        <time>2019-07-09T15:35:35Z</time>
      </trkpt>
      <trkpt lat="39.8176970" lon="-6.2689380">
        <ele>373.6</ele>
        <time>2019-07-09T15:35:38Z</time>
      </trkpt>
      <trkpt lat="39.8177370" lon="-6.2690120">
        <ele>373.8</ele>
        <time>2019-07-09T15:35:40Z</time>
      </trkpt>
      <trkpt lat="39.8177790" lon="-6.2691320">
        <ele>374.2</ele>
        <time>2019-07-09T15:35:43Z</time>
      </trkpt>
      <trkpt lat="39.8177950" lon="-6.2692250">
        <ele>374.4</ele>
        <time>2019-07-09T15:35:45Z</time>
      </trkpt>
      <trkpt lat="39.8178170" lon="-6.2694300">
        <ele>374.8</ele>
        <time>2019-07-09T15:35:49Z</time>
      </trkpt>
      <trkpt lat="39.8178150" lon="-6.2695430">
        <ele>374.8</ele>
        <time>2019-07-09T15:35:51Z</time>
      </trkpt>
      <trkpt lat="39.8177920" lon="-6.2700140">
        <ele>375.0</ele>
        <time>2019-07-09T15:35:59Z</time>
      </trkpt>
      <trkpt lat="39.8177850" lon="-6.2702700">
        <ele>375.4</ele>
        <time>2019-07-09T15:36:04Z</time>
      </trkpt>
      <trkpt lat="39.8177830" lon="-6.2703650">
        <ele>375.8</ele>
        <time>2019-07-09T15:36:06Z</time>
      </trkpt>
      <trkpt lat="39.8177830" lon="-6.2704120">
        <ele>376.0</ele>
        <time>2019-07-09T15:36:07Z</time>
      </trkpt>
      <trkpt lat="39.8177790" lon="-6.2706780">
        <ele>377.2</ele>
        <time>2019-07-09T15:36:13Z</time>
      </trkpt>
      <trkpt lat="39.8177740" lon="-6.2707630">
        <ele>377.6</ele>
        <time>2019-07-09T15:36:15Z</time>
      </trkpt>
      <trkpt lat="39.8177710" lon="-6.2709280">
        <ele>378.2</ele>
        <time>2019-07-09T15:36:19Z</time>
      </trkpt>
      <trkpt lat="39.8177590" lon="-6.2710970">
        <ele>379.0</ele>
        <time>2019-07-09T15:36:23Z</time>
      </trkpt>
      <trkpt lat="39.8177440" lon="-6.2712690">
        <ele>379.4</ele>
        <time>2019-07-09T15:36:27Z</time>
      </trkpt>
      <trkpt lat="39.8177360" lon="-6.2714390">
        <ele>380.0</ele>
        <time>2019-07-09T15:36:31Z</time>
      </trkpt>
      <trkpt lat="39.8177230" lon="-6.2715680">
        <ele>380.4</ele>
        <time>2019-07-09T15:36:34Z</time>
      </trkpt>
      <trkpt lat="39.8176770" lon="-6.2718340">
        <ele>381.0</ele>
        <time>2019-07-09T15:36:40Z</time>
      </trkpt>
      <trkpt lat="39.8176400" lon="-6.2719750">
        <ele>381.4</ele>
        <time>2019-07-09T15:36:43Z</time>
      </trkpt>
      <trkpt lat="39.8176090" lon="-6.2721200">
        <ele>381.8</ele>
        <time>2019-07-09T15:36:46Z</time>
      </trkpt>
      <trkpt lat="39.8175260" lon="-6.2724090">
        <ele>382.4</ele>
        <time>2019-07-09T15:36:52Z</time>
      </trkpt>
      <trkpt lat="39.8175110" lon="-6.2724580">
        <ele>382.6</ele>
        <time>2019-07-09T15:36:53Z</time>
      </trkpt>
      <trkpt lat="39.8173990" lon="-6.2729250">
        <ele>383.8</ele>
        <time>2019-07-09T15:37:02Z</time>
      </trkpt>
      <trkpt lat="39.8173620" lon="-6.2732810">
        <ele>384.8</ele>
        <time>2019-07-09T15:37:09Z</time>
      </trkpt>
      <trkpt lat="39.8173590" lon="-6.2733270">
        <ele>384.8</ele>
        <time>2019-07-09T15:37:10Z</time>
      </trkpt>
      <trkpt lat="39.8173470" lon="-6.2734950">
        <ele>385.8</ele>
        <time>2019-07-09T15:37:14Z</time>
      </trkpt>
      <trkpt lat="39.8173260" lon="-6.2736170">
        <ele>386.4</ele>
        <time>2019-07-09T15:37:17Z</time>
      </trkpt>
      <trkpt lat="39.8173130" lon="-6.2737030">
        <ele>387.0</ele>
        <time>2019-07-09T15:37:19Z</time>
      </trkpt>
      <trkpt lat="39.8172730" lon="-6.2739240">
        <ele>388.0</ele>
        <time>2019-07-09T15:37:24Z</time>
      </trkpt>
      <trkpt lat="39.8172400" lon="-6.2740580">
        <ele>388.6</ele>
        <time>2019-07-09T15:37:27Z</time>
      </trkpt>
      <trkpt lat="39.8171700" lon="-6.2742190">
        <ele>389.0</ele>
        <time>2019-07-09T15:37:31Z</time>
      </trkpt>
      <trkpt lat="39.8171550" lon="-6.2742620">
        <ele>389.2</ele>
        <time>2019-07-09T15:37:32Z</time>
      </trkpt>
      <trkpt lat="39.8170450" lon="-6.2745700">
        <ele>390.0</ele>
        <time>2019-07-09T15:37:39Z</time>
      </trkpt>
      <trkpt lat="39.8170330" lon="-6.2746170">
        <ele>390.2</ele>
        <time>2019-07-09T15:37:40Z</time>
      </trkpt>
      <trkpt lat="39.8169230" lon="-6.2749370">
        <ele>391.0</ele>
        <time>2019-07-09T15:37:47Z</time>
      </trkpt>
      <trkpt lat="39.8169090" lon="-6.2749820">
        <ele>391.2</ele>
        <time>2019-07-09T15:37:48Z</time>
      </trkpt>
      <trkpt lat="39.8168220" lon="-6.2752900">
        <ele>392.4</ele>
        <time>2019-07-09T15:37:55Z</time>
      </trkpt>
      <trkpt lat="39.8168100" lon="-6.2753340">
        <ele>392.6</ele>
        <time>2019-07-09T15:37:56Z</time>
      </trkpt>
      <trkpt lat="39.8167330" lon="-6.2755440">
        <ele>393.6</ele>
        <time>2019-07-09T15:38:01Z</time>
      </trkpt>
      <trkpt lat="39.8167100" lon="-6.2756340">
        <ele>394.2</ele>
        <time>2019-07-09T15:38:03Z</time>
      </trkpt>
      <trkpt lat="39.8166720" lon="-6.2757700">
        <ele>394.8</ele>
        <time>2019-07-09T15:38:06Z</time>
      </trkpt>
      <trkpt lat="39.8166100" lon="-6.2759920">
        <ele>395.8</ele>
        <time>2019-07-09T15:38:11Z</time>
      </trkpt>
      <trkpt lat="39.8165700" lon="-6.2761170">
        <ele>396.6</ele>
        <time>2019-07-09T15:38:14Z</time>
      </trkpt>
      <trkpt lat="39.8165580" lon="-6.2761590">
        <ele>396.8</ele>
        <time>2019-07-09T15:38:15Z</time>
      </trkpt>
      <trkpt lat="39.8164760" lon="-6.2764070">
        <ele>397.8</ele>
        <time>2019-07-09T15:38:21Z</time>
      </trkpt>
      <trkpt lat="39.8164490" lon="-6.2764930">
        <ele>398.4</ele>
        <time>2019-07-09T15:38:23Z</time>
      </trkpt>
      <trkpt lat="39.8163910" lon="-6.2766600">
        <ele>399.0</ele>
        <time>2019-07-09T15:38:27Z</time>
      </trkpt>
      <trkpt lat="39.8163610" lon="-6.2767920">
        <ele>399.4</ele>
        <time>2019-07-09T15:38:30Z</time>
      </trkpt>
      <trkpt lat="39.8163080" lon="-6.2769640">
        <ele>400.2</ele>
        <time>2019-07-09T15:38:34Z</time>
      </trkpt>
      <trkpt lat="39.8162120" lon="-6.2772780">
        <ele>401.2</ele>
        <time>2019-07-09T15:38:41Z</time>
      </trkpt>
      <trkpt lat="39.8161020" lon="-6.2775920">
        <ele>402.2</ele>
        <time>2019-07-09T15:38:48Z</time>
      </trkpt>
      <trkpt lat="39.8160880" lon="-6.2776380">
        <ele>402.4</ele>
        <time>2019-07-09T15:38:49Z</time>
      </trkpt>
      <trkpt lat="39.8159950" lon="-6.2779530">
        <ele>403.4</ele>
        <time>2019-07-09T15:38:56Z</time>
      </trkpt>
      <trkpt lat="39.8159740" lon="-6.2780400">
        <ele>404.0</ele>
        <time>2019-07-09T15:38:58Z</time>
      </trkpt>
      <trkpt lat="39.8159280" lon="-6.2781660">
        <ele>404.6</ele>
        <time>2019-07-09T15:39:01Z</time>
      </trkpt>
      <trkpt lat="39.8158610" lon="-6.2783810">
        <ele>405.2</ele>
        <time>2019-07-09T15:39:06Z</time>
      </trkpt>
      <trkpt lat="39.8158270" lon="-6.2785070">
        <ele>405.8</ele>
        <time>2019-07-09T15:39:09Z</time>
      </trkpt>
      <trkpt lat="39.8157630" lon="-6.2787020">
        <ele>406.8</ele>
        <time>2019-07-09T15:39:14Z</time>
      </trkpt>
      <trkpt lat="39.8157510" lon="-6.2787420">
        <ele>407.0</ele>
        <time>2019-07-09T15:39:15Z</time>
      </trkpt>
      <trkpt lat="39.8156840" lon="-6.2789320">
        <ele>408.0</ele>
        <time>2019-07-09T15:39:20Z</time>
      </trkpt>
      <trkpt lat="39.8156150" lon="-6.2791680">
        <ele>409.2</ele>
        <time>2019-07-09T15:39:26Z</time>
      </trkpt>
      <trkpt lat="39.8155850" lon="-6.2792860">
        <ele>410.2</ele>
        <time>2019-07-09T15:39:29Z</time>
      </trkpt>
      <trkpt lat="39.8155730" lon="-6.2793250">
        <ele>410.4</ele>
        <time>2019-07-09T15:39:30Z</time>
      </trkpt>
      <trkpt lat="39.8155050" lon="-6.2795580">
        <ele>411.4</ele>
        <time>2019-07-09T15:39:36Z</time>
      </trkpt>
      <trkpt lat="39.8154340" lon="-6.2797970">
        <ele>412.6</ele>
        <time>2019-07-09T15:39:42Z</time>
      </trkpt>
      <trkpt lat="39.8154240" lon="-6.2798370">
        <ele>412.8</ele>
        <time>2019-07-09T15:39:43Z</time>
      </trkpt>
      <trkpt lat="39.8153770" lon="-6.2800930">
        <ele>413.6</ele>
        <time>2019-07-09T15:39:49Z</time>
      </trkpt>
      <trkpt lat="39.8153690" lon="-6.2801370">
        <ele>413.6</ele>
        <time>2019-07-09T15:39:50Z</time>
      </trkpt>
      <trkpt lat="39.8153440" lon="-6.2804210">
        <ele>414.2</ele>
        <time>2019-07-09T15:39:56Z</time>
      </trkpt>
      <trkpt lat="39.8153330" lon="-6.2805200">
        <ele>414.2</ele>
        <time>2019-07-09T15:39:58Z</time>
      </trkpt>
      <trkpt lat="39.8152880" lon="-6.2809770">
        <ele>414.6</ele>
        <time>2019-07-09T15:40:06Z</time>
      </trkpt>
      <trkpt lat="39.8152810" lon="-6.2811080">
        <ele>414.6</ele>
        <time>2019-07-09T15:40:08Z</time>
      </trkpt>
      <trkpt lat="39.8152750" lon="-6.2813190">
        <ele>414.4</ele>
        <time>2019-07-09T15:40:11Z</time>
      </trkpt>
      <trkpt lat="39.8152700" lon="-6.2813920">
        <ele>414.4</ele>
        <time>2019-07-09T15:40:12Z</time>
      </trkpt>
      <trkpt lat="39.8152640" lon="-6.2816260">
        <ele>414.0</ele>
        <time>2019-07-09T15:40:15Z</time>
      </trkpt>
      <trkpt lat="39.8152730" lon="-6.2818750">
        <ele>413.6</ele>
        <time>2019-07-09T15:40:18Z</time>
      </trkpt>
      <trkpt lat="39.8152770" lon="-6.2819620">
        <ele>413.6</ele>
        <time>2019-07-09T15:40:19Z</time>
      </trkpt>
      <trkpt lat="39.8152810" lon="-6.2821460">
        <ele>413.2</ele>
        <time>2019-07-09T15:40:21Z</time>
      </trkpt>
      <trkpt lat="39.8152830" lon="-6.2824400">
        <ele>412.4</ele>
        <time>2019-07-09T15:40:24Z</time>
      </trkpt>
      <trkpt lat="39.8152870" lon="-6.2825420">
        <ele>412.2</ele>
        <time>2019-07-09T15:40:25Z</time>
      </trkpt>
      <trkpt lat="39.8152780" lon="-6.2829670">
        <ele>411.4</ele>
        <time>2019-07-09T15:40:29Z</time>
      </trkpt>
      <trkpt lat="39.8152690" lon="-6.2831840">
        <ele>411.0</ele>
        <time>2019-07-09T15:40:31Z</time>
      </trkpt>
      <trkpt lat="39.8152550" lon="-6.2835080">
        <ele>410.4</ele>
        <time>2019-07-09T15:40:34Z</time>
      </trkpt>
      <trkpt lat="39.8152380" lon="-6.2838170">
        <ele>410.2</ele>
        <time>2019-07-09T15:40:37Z</time>
      </trkpt>
      <trkpt lat="39.8152290" lon="-6.2839160">
        <ele>410.2</ele>
        <time>2019-07-09T15:40:38Z</time>
      </trkpt>
      <trkpt lat="39.8151950" lon="-6.2843720">
        <ele>409.8</ele>
        <time>2019-07-09T15:40:43Z</time>
      </trkpt>
      <trkpt lat="39.8151930" lon="-6.2844590">
        <ele>409.6</ele>
        <time>2019-07-09T15:40:44Z</time>
      </trkpt>
      <trkpt lat="39.8151450" lon="-6.2851230">
        <ele>409.4</ele>
        <time>2019-07-09T15:40:52Z</time>
      </trkpt>
      <trkpt lat="39.8151400" lon="-6.2852030">
        <ele>409.2</ele>
        <time>2019-07-09T15:40:53Z</time>
      </trkpt>
      <trkpt lat="39.8151210" lon="-6.2855250">
        <ele>409.2</ele>
        <time>2019-07-09T15:40:57Z</time>
      </trkpt>
      <trkpt lat="39.8151010" lon="-6.2857570">
        <ele>409.6</ele>
        <time>2019-07-09T15:41:00Z</time>
      </trkpt>
      <trkpt lat="39.8150650" lon="-6.2861830">
        <ele>409.6</ele>
        <time>2019-07-09T15:41:06Z</time>
      </trkpt>
      <trkpt lat="39.8150550" lon="-6.2863100">
        <ele>409.6</ele>
        <time>2019-07-09T15:41:08Z</time>
      </trkpt>
      <trkpt lat="39.8150500" lon="-6.2865220">
        <ele>410.4</ele>
        <time>2019-07-09T15:41:12Z</time>
      </trkpt>
      <trkpt lat="39.8150440" lon="-6.2867130">
        <ele>410.8</ele>
        <time>2019-07-09T15:41:16Z</time>
      </trkpt>
      <trkpt lat="39.8150440" lon="-6.2868080">
        <ele>411.4</ele>
        <time>2019-07-09T15:41:18Z</time>
      </trkpt>
      <trkpt lat="39.8150440" lon="-6.2868570">
        <ele>411.4</ele>
        <time>2019-07-09T15:41:19Z</time>
      </trkpt>
      <trkpt lat="39.8150410" lon="-6.2870060">
        <ele>411.8</ele>
        <time>2019-07-09T15:41:22Z</time>
      </trkpt>
      <trkpt lat="39.8150410" lon="-6.2871060">
        <ele>412.0</ele>
        <time>2019-07-09T15:41:24Z</time>
      </trkpt>
      <trkpt lat="39.8150370" lon="-6.2873100">
        <ele>412.4</ele>
        <time>2019-07-09T15:41:28Z</time>
      </trkpt>
      <trkpt lat="39.8150360" lon="-6.2876390">
        <ele>412.4</ele>
        <time>2019-07-09T15:41:34Z</time>
      </trkpt>
      <trkpt lat="39.8150430" lon="-6.2881370">
        <ele>412.0</ele>
        <time>2019-07-09T15:41:42Z</time>
      </trkpt>
      <trkpt lat="39.8150520" lon="-6.2886080">
        <ele>412.0</ele>
        <time>2019-07-09T15:41:49Z</time>
      </trkpt>
      <trkpt lat="39.8150580" lon="-6.2889750">
        <ele>411.6</ele>
        <time>2019-07-09T15:41:54Z</time>
      </trkpt>
      <trkpt lat="39.8150590" lon="-6.2891980">
        <ele>411.8</ele>
        <time>2019-07-09T15:41:57Z</time>
      </trkpt>
      <trkpt lat="39.8150530" lon="-6.2896170">
        <ele>411.8</ele>
        <time>2019-07-09T15:42:03Z</time>
      </trkpt>
      <trkpt lat="39.8150470" lon="-6.2898890">
        <ele>412.0</ele>
        <time>2019-07-09T15:42:07Z</time>
      </trkpt>
      <trkpt lat="39.8150390" lon="-6.2900180">
        <ele>412.2</ele>
        <time>2019-07-09T15:42:09Z</time>
      </trkpt>
      <trkpt lat="39.8150240" lon="-6.2901380">
        <ele>412.6</ele>
        <time>2019-07-09T15:42:11Z</time>
      </trkpt>
      <trkpt lat="39.8150000" lon="-6.2903090">
        <ele>413.0</ele>
        <time>2019-07-09T15:42:14Z</time>
      </trkpt>
      <trkpt lat="39.8149870" lon="-6.2904790">
        <ele>413.6</ele>
        <time>2019-07-09T15:42:17Z</time>
      </trkpt>
      <trkpt lat="39.8149770" lon="-6.2905360">
        <ele>413.8</ele>
        <time>2019-07-09T15:42:18Z</time>
      </trkpt>
      <trkpt lat="39.8149180" lon="-6.2909510">
        <ele>413.6</ele>
        <time>2019-07-09T15:42:25Z</time>
      </trkpt>
      <trkpt lat="39.8148620" lon="-6.2913580">
        <ele>412.8</ele>
        <time>2019-07-09T15:42:31Z</time>
      </trkpt>
      <trkpt lat="39.8148530" lon="-6.2914270">
        <ele>412.6</ele>
        <time>2019-07-09T15:42:32Z</time>
      </trkpt>
      <trkpt lat="39.8148440" lon="-6.2914950">
        <ele>412.4</ele>
        <time>2019-07-09T15:42:33Z</time>
      </trkpt>
      <trkpt lat="39.8148100" lon="-6.2916960">
        <ele>412.2</ele>
        <time>2019-07-09T15:42:36Z</time>
      </trkpt>
      <trkpt lat="39.8147810" lon="-6.2918940">
        <ele>412.2</ele>
        <time>2019-07-09T15:42:39Z</time>
      </trkpt>
      <trkpt lat="39.8147720" lon="-6.2919600">
        <ele>412.2</ele>
        <time>2019-07-09T15:42:40Z</time>
      </trkpt>
      <trkpt lat="39.8147030" lon="-6.2922130">
        <ele>412.2</ele>
        <time>2019-07-09T15:42:44Z</time>
      </trkpt>
      <trkpt lat="39.8146630" lon="-6.2923420">
        <ele>412.0</ele>
        <time>2019-07-09T15:42:46Z</time>
      </trkpt>
      <trkpt lat="39.8145260" lon="-6.2927410">
        <ele>411.8</ele>
        <time>2019-07-09T15:42:52Z</time>
      </trkpt>
      <trkpt lat="39.8144990" lon="-6.2928120">
        <ele>411.6</ele>
        <time>2019-07-09T15:42:53Z</time>
      </trkpt>
      <trkpt lat="39.8143660" lon="-6.2931180">
        <ele>410.6</ele>
        <time>2019-07-09T15:42:57Z</time>
      </trkpt>
      <trkpt lat="39.8143320" lon="-6.2932040">
        <ele>410.2</ele>
        <time>2019-07-09T15:42:58Z</time>
      </trkpt>
      <trkpt lat="39.8142270" lon="-6.2934750">
        <ele>409.4</ele>
        <time>2019-07-09T15:43:01Z</time>
      </trkpt>
      <trkpt lat="39.8141080" lon="-6.2937530">
        <ele>408.2</ele>
        <time>2019-07-09T15:43:04Z</time>
      </trkpt>
      <trkpt lat="39.8140710" lon="-6.2938480">
        <ele>407.8</ele>
        <time>2019-07-09T15:43:05Z</time>
      </trkpt>
      <trkpt lat="39.8139980" lon="-6.2940400">
        <ele>407.2</ele>
        <time>2019-07-09T15:43:07Z</time>
      </trkpt>
      <trkpt lat="39.8138060" lon="-6.2945020">
        <ele>406.2</ele>
        <time>2019-07-09T15:43:12Z</time>
      </trkpt>
      <trkpt lat="39.8137700" lon="-6.2945900">
        <ele>406.0</ele>
        <time>2019-07-09T15:43:13Z</time>
      </trkpt>
      <trkpt lat="39.8135830" lon="-6.2950660">
        <ele>405.4</ele>
        <time>2019-07-09T15:43:19Z</time>
      </trkpt>
      <trkpt lat="39.8134480" lon="-6.2954330">
        <ele>406.0</ele>
        <time>2019-07-09T15:43:25Z</time>
      </trkpt>
      <trkpt lat="39.8133750" lon="-6.2956660">
        <ele>406.6</ele>
        <time>2019-07-09T15:43:29Z</time>
      </trkpt>
      <trkpt lat="39.8133320" lon="-6.2958430">
        <ele>407.2</ele>
        <time>2019-07-09T15:43:32Z</time>
      </trkpt>
      <trkpt lat="39.8133020" lon="-6.2960170">
        <ele>407.8</ele>
        <time>2019-07-09T15:43:35Z</time>
      </trkpt>
      <trkpt lat="39.8132770" lon="-6.2961790">
        <ele>408.2</ele>
        <time>2019-07-09T15:43:38Z</time>
      </trkpt>
      <trkpt lat="39.8132730" lon="-6.2962320">
        <ele>408.4</ele>
        <time>2019-07-09T15:43:39Z</time>
      </trkpt>
      <trkpt lat="39.8132560" lon="-6.2963850">
        <ele>408.8</ele>
        <time>2019-07-09T15:43:42Z</time>
      </trkpt>
      <trkpt lat="39.8132460" lon="-6.2965410">
        <ele>409.2</ele>
        <time>2019-07-09T15:43:45Z</time>
      </trkpt>
      <trkpt lat="39.8132450" lon="-6.2965940">
        <ele>409.2</ele>
        <time>2019-07-09T15:43:46Z</time>
      </trkpt>
      <trkpt lat="39.8132510" lon="-6.2968070">
        <ele>409.6</ele>
        <time>2019-07-09T15:43:50Z</time>
      </trkpt>
      <trkpt lat="39.8132870" lon="-6.2970300">
        <ele>410.2</ele>
        <time>2019-07-09T15:43:54Z</time>
      </trkpt>
      <trkpt lat="39.8133790" lon="-6.2974530">
        <ele>410.0</ele>
        <time>2019-07-09T15:44:01Z</time>
      </trkpt>
      <trkpt lat="39.8133980" lon="-6.2975130">
        <ele>410.0</ele>
        <time>2019-07-09T15:44:02Z</time>
      </trkpt>
      <trkpt lat="39.8135570" lon="-6.2980580">
        <ele>410.2</ele>
        <time>2019-07-09T15:44:11Z</time>
      </trkpt>
      <trkpt lat="39.8135720" lon="-6.2981160">
        <ele>410.4</ele>
        <time>2019-07-09T15:44:12Z</time>
      </trkpt>
      <trkpt lat="39.8136650" lon="-6.2984540">
        <ele>410.8</ele>
        <time>2019-07-09T15:44:18Z</time>
      </trkpt>
      <trkpt lat="39.8137740" lon="-6.2988230">
        <ele>411.4</ele>
        <time>2019-07-09T15:44:25Z</time>
      </trkpt>
      <trkpt lat="39.8137880" lon="-6.2988750">
        <ele>411.4</ele>
        <time>2019-07-09T15:44:26Z</time>
      </trkpt>
      <trkpt lat="39.8138360" lon="-6.2990310">
        <ele>411.8</ele>
        <time>2019-07-09T15:44:29Z</time>
      </trkpt>
      <trkpt lat="39.8138730" lon="-6.2991890">
        <ele>412.0</ele>
        <time>2019-07-09T15:44:32Z</time>
      </trkpt>
      <trkpt lat="39.8139520" lon="-6.2994400">
        <ele>412.4</ele>
        <time>2019-07-09T15:44:37Z</time>
      </trkpt>
      <trkpt lat="39.8140070" lon="-6.2996300">
        <ele>412.8</ele>
        <time>2019-07-09T15:44:41Z</time>
      </trkpt>
      <trkpt lat="39.8140430" lon="-6.2997640">
        <ele>413.6</ele>
        <time>2019-07-09T15:44:44Z</time>
      </trkpt>
      <trkpt lat="39.8140740" lon="-6.2998990">
        <ele>414.0</ele>
        <time>2019-07-09T15:44:47Z</time>
      </trkpt>
      <trkpt lat="39.8140980" lon="-6.3000890">
        <ele>414.4</ele>
        <time>2019-07-09T15:44:51Z</time>
      </trkpt>
      <trkpt lat="39.8140930" lon="-6.3002450">
        <ele>415.0</ele>
        <time>2019-07-09T15:44:54Z</time>
      </trkpt>
      <trkpt lat="39.8140610" lon="-6.3005770">
        <ele>415.4</ele>
        <time>2019-07-09T15:45:00Z</time>
      </trkpt>
      <trkpt lat="39.8140530" lon="-6.3006340">
        <ele>415.4</ele>
        <time>2019-07-09T15:45:01Z</time>
      </trkpt>
      <trkpt lat="39.8139800" lon="-6.3011250">
        <ele>415.6</ele>
        <time>2019-07-09T15:45:09Z</time>
      </trkpt>
      <trkpt lat="39.8139330" lon="-6.3013980">
        <ele>415.4</ele>
        <time>2019-07-09T15:45:13Z</time>
      </trkpt>
      <trkpt lat="39.8138730" lon="-6.3016940">
        <ele>415.2</ele>
        <time>2019-07-09T15:45:17Z</time>
      </trkpt>
      <trkpt lat="39.8138400" lon="-6.3018460">
        <ele>415.2</ele>
        <time>2019-07-09T15:45:19Z</time>
      </trkpt>
      <trkpt lat="39.8138100" lon="-6.3020040">
        <ele>415.0</ele>
        <time>2019-07-09T15:45:21Z</time>
      </trkpt>
      <trkpt lat="39.8137400" lon="-6.3024120">
        <ele>414.6</ele>
        <time>2019-07-09T15:45:26Z</time>
      </trkpt>
      <trkpt lat="39.8136960" lon="-6.3026550">
        <ele>414.4</ele>
        <time>2019-07-09T15:45:29Z</time>
      </trkpt>
      <trkpt lat="39.8136510" lon="-6.3028910">
        <ele>414.4</ele>
        <time>2019-07-09T15:45:32Z</time>
      </trkpt>
      <trkpt lat="39.8136210" lon="-6.3030420">
        <ele>414.4</ele>
        <time>2019-07-09T15:45:34Z</time>
      </trkpt>
      <trkpt lat="39.8135520" lon="-6.3034020">
        <ele>414.6</ele>
        <time>2019-07-09T15:45:39Z</time>
      </trkpt>
      <trkpt lat="39.8135340" lon="-6.3035370">
        <ele>414.8</ele>
        <time>2019-07-09T15:45:41Z</time>
      </trkpt>
      <trkpt lat="39.8134700" lon="-6.3039630">
        <ele>415.4</ele>
        <time>2019-07-09T15:45:48Z</time>
      </trkpt>
      <trkpt lat="39.8134600" lon="-6.3040190">
        <ele>415.6</ele>
        <time>2019-07-09T15:45:49Z</time>
      </trkpt>
      <trkpt lat="39.8134390" lon="-6.3043460">
        <ele>416.6</ele>
        <time>2019-07-09T15:45:55Z</time>
      </trkpt>
      <trkpt lat="39.8134480" lon="-6.3048580">
        <ele>417.6</ele>
        <time>2019-07-09T15:46:04Z</time>
      </trkpt>
      <trkpt lat="39.8134510" lon="-6.3049220">
        <ele>417.6</ele>
        <time>2019-07-09T15:46:05Z</time>
      </trkpt>
      <trkpt lat="39.8134500" lon="-6.3053830">
        <ele>417.0</ele>
        <time>2019-07-09T15:46:12Z</time>
      </trkpt>
      <trkpt lat="39.8134460" lon="-6.3055190">
        <ele>416.6</ele>
        <time>2019-07-09T15:46:14Z</time>
      </trkpt>
      <trkpt lat="39.8134420" lon="-6.3058080">
        <ele>415.8</ele>
        <time>2019-07-09T15:46:18Z</time>
      </trkpt>
      <trkpt lat="39.8134420" lon="-6.3059690">
        <ele>415.4</ele>
        <time>2019-07-09T15:46:20Z</time>
      </trkpt>
      <trkpt lat="39.8134390" lon="-6.3065900">
        <ele>414.4</ele>
        <time>2019-07-09T15:46:27Z</time>
      </trkpt>
      <trkpt lat="39.8134460" lon="-6.3069350">
        <ele>414.0</ele>
        <time>2019-07-09T15:46:31Z</time>
      </trkpt>
      <trkpt lat="39.8134630" lon="-6.3071800">
        <ele>413.8</ele>
        <time>2019-07-09T15:46:34Z</time>
      </trkpt>
      <trkpt lat="39.8134830" lon="-6.3076460">
        <ele>413.8</ele>
        <time>2019-07-09T15:46:40Z</time>
      </trkpt>
      <trkpt lat="39.8134840" lon="-6.3077920">
        <ele>414.0</ele>
        <time>2019-07-09T15:46:42Z</time>
      </trkpt>
      <trkpt lat="39.8134880" lon="-6.3081420">
        <ele>414.2</ele>
        <time>2019-07-09T15:46:47Z</time>
      </trkpt>
      <trkpt lat="39.8135130" lon="-6.3084960">
        <ele>414.4</ele>
        <time>2019-07-09T15:46:52Z</time>
      </trkpt>
      <trkpt lat="39.8135970" lon="-6.3090510">
        <ele>414.8</ele>
        <time>2019-07-09T15:47:00Z</time>
      </trkpt>
      <trkpt lat="39.8136380" lon="-6.3092540">
        <ele>414.6</ele>
        <time>2019-07-09T15:47:03Z</time>
      </trkpt>
      <trkpt lat="39.8137190" lon="-6.3097400">
        <ele>414.2</ele>
        <time>2019-07-09T15:47:10Z</time>
      </trkpt>
      <trkpt lat="39.8137500" lon="-6.3099610">
        <ele>414.4</ele>
        <time>2019-07-09T15:47:13Z</time>
      </trkpt>
      <trkpt lat="39.8138070" lon="-6.3104580">
        <ele>414.8</ele>
        <time>2019-07-09T15:47:20Z</time>
      </trkpt>
      <trkpt lat="39.8138090" lon="-6.3109860">
        <ele>415.4</ele>
        <time>2019-07-09T15:47:28Z</time>
      </trkpt>
      <trkpt lat="39.8138080" lon="-6.3111700">
        <ele>415.6</ele>
        <time>2019-07-09T15:47:31Z</time>
      </trkpt>
      <trkpt lat="39.8138110" lon="-6.3114110">
        <ele>415.8</ele>
        <time>2019-07-09T15:47:35Z</time>
      </trkpt>
      <trkpt lat="39.8138070" lon="-6.3116460">
        <ele>416.4</ele>
        <time>2019-07-09T15:47:39Z</time>
      </trkpt>
      <trkpt lat="39.8138260" lon="-6.3121750">
        <ele>417.4</ele>
        <time>2019-07-09T15:47:48Z</time>
      </trkpt>
      <trkpt lat="39.8138370" lon="-6.3122930">
        <ele>417.4</ele>
        <time>2019-07-09T15:47:50Z</time>
      </trkpt>
      <trkpt lat="39.8138680" lon="-6.3125680">
        <ele>417.8</ele>
        <time>2019-07-09T15:47:55Z</time>
      </trkpt>
      <trkpt lat="39.8138980" lon="-6.3128800">
        <ele>417.8</ele>
        <time>2019-07-09T15:48:01Z</time>
      </trkpt>
      <trkpt lat="39.8139060" lon="-6.3129330">
        <ele>417.8</ele>
        <time>2019-07-09T15:48:02Z</time>
      </trkpt>
      <trkpt lat="39.8139580" lon="-6.3133580">
        <ele>418.6</ele>
        <time>2019-07-09T15:48:10Z</time>
      </trkpt>
      <trkpt lat="39.8140430" lon="-6.3137470">
        <ele>419.6</ele>
        <time>2019-07-09T15:48:18Z</time>
      </trkpt>
      <trkpt lat="39.8140820" lon="-6.3138810">
        <ele>420.0</ele>
        <time>2019-07-09T15:48:21Z</time>
      </trkpt>
      <trkpt lat="39.8141300" lon="-6.3140390">
        <ele>420.8</ele>
        <time>2019-07-09T15:48:25Z</time>
      </trkpt>
      <trkpt lat="39.8141780" lon="-6.3142170">
        <ele>421.6</ele>
        <time>2019-07-09T15:48:30Z</time>
      </trkpt>
      <trkpt lat="39.8141860" lon="-6.3142500">
        <ele>421.8</ele>
        <time>2019-07-09T15:48:31Z</time>
      </trkpt>
      <trkpt lat="39.8142050" lon="-6.3143090">
        <ele>422.2</ele>
        <time>2019-07-09T15:48:33Z</time>
      </trkpt>
      <trkpt lat="39.8142290" lon="-6.3143920">
        <ele>422.8</ele>
        <time>2019-07-09T15:48:36Z</time>
      </trkpt>
      <trkpt lat="39.8142610" lon="-6.3145130">
        <ele>423.8</ele>
        <time>2019-07-09T15:48:41Z</time>
      </trkpt>
      <trkpt lat="39.8142730" lon="-6.3145360">
        <ele>424.0</ele>
        <time>2019-07-09T15:48:42Z</time>
      </trkpt>
      <trkpt lat="39.8143260" lon="-6.3146730">
        <ele>425.0</ele>
        <time>2019-07-09T15:48:47Z</time>
      </trkpt>
      <trkpt lat="39.8143560" lon="-6.3148600">
        <ele>426.2</ele>
        <time>2019-07-09T15:48:53Z</time>
      </trkpt>
      <trkpt lat="39.8143750" lon="-6.3149200">
        <ele>426.8</ele>
        <time>2019-07-09T15:48:55Z</time>
      </trkpt>
      <trkpt lat="39.8143990" lon="-6.3150150">
        <ele>427.4</ele>
        <time>2019-07-09T15:48:58Z</time>
      </trkpt>
      <trkpt lat="39.8144120" lon="-6.3151190">
        <ele>428.0</ele>
        <time>2019-07-09T15:49:01Z</time>
      </trkpt>
      <trkpt lat="39.8144200" lon="-6.3151530">
        <ele>428.4</ele>
        <time>2019-07-09T15:49:02Z</time>
      </trkpt>
      <trkpt lat="39.8144420" lon="-6.3153370">
        <ele>429.4</ele>
        <time>2019-07-09T15:49:07Z</time>
      </trkpt>
      <trkpt lat="39.8144460" lon="-6.3154550">
        <ele>430.0</ele>
        <time>2019-07-09T15:49:10Z</time>
      </trkpt>
      <trkpt lat="39.8144260" lon="-6.3157760">
        <ele>430.4</ele>
        <time>2019-07-09T15:49:17Z</time>
      </trkpt>
      <trkpt lat="39.8143840" lon="-6.3161830">
        <ele>430.0</ele>
        <time>2019-07-09T15:49:24Z</time>
      </trkpt>
      <trkpt lat="39.8143500" lon="-6.3165360">
        <ele>429.2</ele>
        <time>2019-07-09T15:49:29Z</time>
      </trkpt>
      <trkpt lat="39.8143310" lon="-6.3166880">
        <ele>429.0</ele>
        <time>2019-07-09T15:49:31Z</time>
      </trkpt>
      <trkpt lat="39.8143070" lon="-6.3169210">
        <ele>428.6</ele>
        <time>2019-07-09T15:49:34Z</time>
      </trkpt>
      <trkpt lat="39.8143000" lon="-6.3169980">
        <ele>428.4</ele>
        <time>2019-07-09T15:49:35Z</time>
      </trkpt>
      <trkpt lat="39.8142820" lon="-6.3172010">
        <ele>428.6</ele>
        <time>2019-07-09T15:49:38Z</time>
      </trkpt>
      <trkpt lat="39.8142730" lon="-6.3173700">
        <ele>429.0</ele>
        <time>2019-07-09T15:49:41Z</time>
      </trkpt>
      <trkpt lat="39.8142700" lon="-6.3174670">
        <ele>429.4</ele>
        <time>2019-07-09T15:49:43Z</time>
      </trkpt>
      <trkpt lat="39.8142650" lon="-6.3175150">
        <ele>429.6</ele>
        <time>2019-07-09T15:49:44Z</time>
      </trkpt>
      <trkpt lat="39.8142530" lon="-6.3177530">
        <ele>430.6</ele>
        <time>2019-07-09T15:49:49Z</time>
      </trkpt>
      <trkpt lat="39.8142520" lon="-6.3179420">
        <ele>431.4</ele>
        <time>2019-07-09T15:49:53Z</time>
      </trkpt>
      <trkpt lat="39.8142540" lon="-6.3179880">
        <ele>431.6</ele>
        <time>2019-07-09T15:49:54Z</time>
      </trkpt>
      <trkpt lat="39.8142930" lon="-6.3181540">
        <ele>432.8</ele>
        <time>2019-07-09T15:49:58Z</time>
      </trkpt>
      <trkpt lat="39.8143070" lon="-6.3181920">
        <ele>433.0</ele>
        <time>2019-07-09T15:49:59Z</time>
      </trkpt>
      <trkpt lat="39.8143680" lon="-6.3183720">
        <ele>434.0</ele>
        <time>2019-07-09T15:50:04Z</time>
      </trkpt>
      <trkpt lat="39.8143970" lon="-6.3184380">
        <ele>434.2</ele>
        <time>2019-07-09T15:50:06Z</time>
      </trkpt>
      <trkpt lat="39.8144740" lon="-6.3186000">
        <ele>435.0</ele>
        <time>2019-07-09T15:50:11Z</time>
      </trkpt>
      <trkpt lat="39.8145060" lon="-6.3186650">
        <ele>435.4</ele>
        <time>2019-07-09T15:50:13Z</time>
      </trkpt>
      <trkpt lat="39.8145990" lon="-6.3188580">
        <ele>436.2</ele>
        <time>2019-07-09T15:50:19Z</time>
      </trkpt>
      <trkpt lat="39.8146100" lon="-6.3188940">
        <ele>436.4</ele>
        <time>2019-07-09T15:50:20Z</time>
      </trkpt>
      <trkpt lat="39.8146870" lon="-6.3190890">
        <ele>437.2</ele>
        <time>2019-07-09T15:50:26Z</time>
      </trkpt>
      <trkpt lat="39.8147100" lon="-6.3191500">
        <ele>437.6</ele>
        <time>2019-07-09T15:50:28Z</time>
      </trkpt>
      <trkpt lat="39.8147500" lon="-6.3192650">
        <ele>438.6</ele>
        <time>2019-07-09T15:50:32Z</time>
      </trkpt>
      <trkpt lat="39.8147790" lon="-6.3193770">
        <ele>439.4</ele>
        <time>2019-07-09T15:50:36Z</time>
      </trkpt>
      <trkpt lat="39.8147930" lon="-6.3194660">
        <ele>439.6</ele>
        <time>2019-07-09T15:50:39Z</time>
      </trkpt>
      <trkpt lat="39.8147950" lon="-6.3196200">
        <ele>440.2</ele>
        <time>2019-07-09T15:50:44Z</time>
      </trkpt>
      <trkpt lat="39.8147870" lon="-6.3196840">
        <ele>440.6</ele>
        <time>2019-07-09T15:50:46Z</time>
      </trkpt>
      <trkpt lat="39.8147620" lon="-6.3198770">
        <ele>441.8</ele>
        <time>2019-07-09T15:50:52Z</time>
      </trkpt>
      <trkpt lat="39.8147580" lon="-6.3199100">
        <ele>442.0</ele>
        <time>2019-07-09T15:50:53Z</time>
      </trkpt>
      <trkpt lat="39.8147340" lon="-6.3201060">
        <ele>442.8</ele>
        <time>2019-07-09T15:50:58Z</time>
      </trkpt>
      <trkpt lat="39.8147230" lon="-6.3201980">
        <ele>442.8</ele>
        <time>2019-07-09T15:51:00Z</time>
      </trkpt>
      <trkpt lat="39.8146680" lon="-6.3204040">
        <ele>442.6</ele>
        <time>2019-07-09T15:51:04Z</time>
      </trkpt>
      <trkpt lat="39.8146140" lon="-6.3205100">
        <ele>442.2</ele>
        <time>2019-07-09T15:51:06Z</time>
      </trkpt>
      <trkpt lat="39.8145330" lon="-6.3206180">
        <ele>441.8</ele>
        <time>2019-07-09T15:51:08Z</time>
      </trkpt>
      <trkpt lat="39.8144410" lon="-6.3207400">
        <ele>441.0</ele>
        <time>2019-07-09T15:51:10Z</time>
      </trkpt>
      <trkpt lat="39.8143950" lon="-6.3208100">
        <ele>440.6</ele>
        <time>2019-07-09T15:51:11Z</time>
      </trkpt>
      <trkpt lat="39.8143070" lon="-6.3209630">
        <ele>439.8</ele>
        <time>2019-07-09T15:51:13Z</time>
      </trkpt>
      <trkpt lat="39.8142670" lon="-6.3210430">
        <ele>439.4</ele>
        <time>2019-07-09T15:51:14Z</time>
      </trkpt>
      <trkpt lat="39.8142300" lon="-6.3211250">
        <ele>439.2</ele>
        <time>2019-07-09T15:51:15Z</time>
      </trkpt>
      <trkpt lat="39.8141300" lon="-6.3213780">
        <ele>437.8</ele>
        <time>2019-07-09T15:51:18Z</time>
      </trkpt>
      <trkpt lat="39.8140250" lon="-6.3217420">
        <ele>436.8</ele>
        <time>2019-07-09T15:51:22Z</time>
      </trkpt>
      <trkpt lat="39.8139760" lon="-6.3219310">
        <ele>436.2</ele>
        <time>2019-07-09T15:51:24Z</time>
      </trkpt>
      <trkpt lat="39.8139290" lon="-6.3221250">
        <ele>435.4</ele>
        <time>2019-07-09T15:51:26Z</time>
      </trkpt>
      <trkpt lat="39.8138580" lon="-6.3224250">
        <ele>434.6</ele>
        <time>2019-07-09T15:51:29Z</time>
      </trkpt>
      <trkpt lat="39.8138310" lon="-6.3225250">
        <ele>434.2</ele>
        <time>2019-07-09T15:51:30Z</time>
      </trkpt>
      <trkpt lat="39.8138060" lon="-6.3226260">
        <ele>433.8</ele>
        <time>2019-07-09T15:51:31Z</time>
      </trkpt>
      <trkpt lat="39.8137610" lon="-6.3228330">
        <ele>433.2</ele>
        <time>2019-07-09T15:51:33Z</time>
      </trkpt>
      <trkpt lat="39.8136910" lon="-6.3231460">
        <ele>432.0</ele>
        <time>2019-07-09T15:51:36Z</time>
      </trkpt>
      <trkpt lat="39.8136660" lon="-6.3232490">
        <ele>431.8</ele>
        <time>2019-07-09T15:51:37Z</time>
      </trkpt>
      <trkpt lat="39.8136000" lon="-6.3235600">
        <ele>431.0</ele>
        <time>2019-07-09T15:51:40Z</time>
      </trkpt>
      <trkpt lat="39.8135780" lon="-6.3237670">
        <ele>430.4</ele>
        <time>2019-07-09T15:51:42Z</time>
      </trkpt>
      <trkpt lat="39.8135790" lon="-6.3238690">
        <ele>430.4</ele>
        <time>2019-07-09T15:51:43Z</time>
      </trkpt>
      <trkpt lat="39.8136300" lon="-6.3241460">
        <ele>430.0</ele>
        <time>2019-07-09T15:51:46Z</time>
      </trkpt>
      <trkpt lat="39.8136590" lon="-6.3242240">
        <ele>429.8</ele>
        <time>2019-07-09T15:51:47Z</time>
      </trkpt>
      <trkpt lat="39.8137230" lon="-6.3243640">
        <ele>429.8</ele>
        <time>2019-07-09T15:51:49Z</time>
      </trkpt>
      <trkpt lat="39.8138110" lon="-6.3245390">
        <ele>430.0</ele>
        <time>2019-07-09T15:51:52Z</time>
      </trkpt>
      <trkpt lat="39.8139690" lon="-6.3247770">
        <ele>430.4</ele>
        <time>2019-07-09T15:51:57Z</time>
      </trkpt>
      <trkpt lat="39.8140240" lon="-6.3248700">
        <ele>430.6</ele>
        <time>2019-07-09T15:51:59Z</time>
      </trkpt>
      <trkpt lat="39.8141010" lon="-6.3250010">
        <ele>431.0</ele>
        <time>2019-07-09T15:52:02Z</time>
      </trkpt>
      <trkpt lat="39.8142510" lon="-6.3252400">
        <ele>431.6</ele>
        <time>2019-07-09T15:52:08Z</time>
      </trkpt>
      <trkpt lat="39.8143240" lon="-6.3253560">
        <ele>431.8</ele>
        <time>2019-07-09T15:52:11Z</time>
      </trkpt>
      <trkpt lat="39.8143760" lon="-6.3254330">
        <ele>432.0</ele>
        <time>2019-07-09T15:52:13Z</time>
      </trkpt>
      <trkpt lat="39.8144480" lon="-6.3255500">
        <ele>432.2</ele>
        <time>2019-07-09T15:52:16Z</time>
      </trkpt>
      <trkpt lat="39.8144870" lon="-6.3256280">
        <ele>432.4</ele>
        <time>2019-07-09T15:52:18Z</time>
      </trkpt>
      <trkpt lat="39.8145290" lon="-6.3257000">
        <ele>432.6</ele>
        <time>2019-07-09T15:52:20Z</time>
      </trkpt>
      <trkpt lat="39.8146200" lon="-6.3258220">
        <ele>433.0</ele>
        <time>2019-07-09T15:52:24Z</time>
      </trkpt>
      <trkpt lat="39.8146400" lon="-6.3258510">
        <ele>433.2</ele>
        <time>2019-07-09T15:52:25Z</time>
      </trkpt>
      <trkpt lat="39.8147220" lon="-6.3259700">
        <ele>433.6</ele>
        <time>2019-07-09T15:52:29Z</time>
      </trkpt>
      <trkpt lat="39.8148010" lon="-6.3260890">
        <ele>434.0</ele>
        <time>2019-07-09T15:52:33Z</time>
      </trkpt>
      <trkpt lat="39.8148380" lon="-6.3261500">
        <ele>434.4</ele>
        <time>2019-07-09T15:52:35Z</time>
      </trkpt>
      <trkpt lat="39.8149500" lon="-6.3263230">
        <ele>435.4</ele>
        <time>2019-07-09T15:52:41Z</time>
      </trkpt>
      <trkpt lat="39.8150220" lon="-6.3264360">
        <ele>436.2</ele>
        <time>2019-07-09T15:52:45Z</time>
      </trkpt>
      <trkpt lat="39.8150560" lon="-6.3264920">
        <ele>436.4</ele>
        <time>2019-07-09T15:52:47Z</time>
      </trkpt>
      <trkpt lat="39.8151310" lon="-6.3266700">
        <ele>437.4</ele>
        <time>2019-07-09T15:52:53Z</time>
      </trkpt>
      <trkpt lat="39.8151450" lon="-6.3266980">
        <ele>437.8</ele>
        <time>2019-07-09T15:52:54Z</time>
      </trkpt>
      <trkpt lat="39.8152230" lon="-6.3268320">
        <ele>438.8</ele>
        <time>2019-07-09T15:52:59Z</time>
      </trkpt>
      <trkpt lat="39.8152310" lon="-6.3268630">
        <ele>439.0</ele>
        <time>2019-07-09T15:53:00Z</time>
      </trkpt>
      <trkpt lat="39.8152550" lon="-6.3270160">
        <ele>440.0</ele>
        <time>2019-07-09T15:53:05Z</time>
      </trkpt>
      <trkpt lat="39.8152720" lon="-6.3271060">
        <ele>440.4</ele>
        <time>2019-07-09T15:53:08Z</time>
      </trkpt>
      <trkpt lat="39.8152780" lon="-6.3271630">
        <ele>441.0</ele>
        <time>2019-07-09T15:53:10Z</time>
      </trkpt>
      <trkpt lat="39.8152710" lon="-6.3273110">
        <ele>442.0</ele>
        <time>2019-07-09T15:53:15Z</time>
      </trkpt>
      <trkpt lat="39.8152610" lon="-6.3274690">
        <ele>443.2</ele>
        <time>2019-07-09T15:53:20Z</time>
      </trkpt>
      <trkpt lat="39.8152520" lon="-6.3275360">
        <ele>443.4</ele>
        <time>2019-07-09T15:53:22Z</time>
      </trkpt>
      <trkpt lat="39.8152220" lon="-6.3277010">
        <ele>444.2</ele>
        <time>2019-07-09T15:53:27Z</time>
      </trkpt>
      <trkpt lat="39.8152090" lon="-6.3278410">
        <ele>444.6</ele>
        <time>2019-07-09T15:53:31Z</time>
      </trkpt>
      <trkpt lat="39.8152630" lon="-6.3280600">
        <ele>445.2</ele>
        <time>2019-07-09T15:53:37Z</time>
      </trkpt>
      <trkpt lat="39.8152820" lon="-6.3280890">
        <ele>445.2</ele>
        <time>2019-07-09T15:53:38Z</time>
      </trkpt>
      <trkpt lat="39.8153960" lon="-6.3282740">
        <ele>446.0</ele>
        <time>2019-07-09T15:53:44Z</time>
      </trkpt>
      <trkpt lat="39.8154830" lon="-6.3284330">
        <ele>446.4</ele>
        <time>2019-07-09T15:53:49Z</time>
      </trkpt>
      <trkpt lat="39.8155410" lon="-6.3285250">
        <ele>446.6</ele>
        <time>2019-07-09T15:53:52Z</time>
      </trkpt>
      <trkpt lat="39.8156360" lon="-6.3286740">
        <ele>447.0</ele>
        <time>2019-07-09T15:53:57Z</time>
      </trkpt>
      <trkpt lat="39.8156920" lon="-6.3287710">
        <ele>447.4</ele>
        <time>2019-07-09T15:54:00Z</time>
      </trkpt>
      <trkpt lat="39.8157130" lon="-6.3288030">
        <ele>447.6</ele>
        <time>2019-07-09T15:54:01Z</time>
      </trkpt>
      <trkpt lat="39.8157720" lon="-6.3289040">
        <ele>447.6</ele>
        <time>2019-07-09T15:54:04Z</time>
      </trkpt>
      <trkpt lat="39.8158430" lon="-6.3289850">
        <ele>448.0</ele>
        <time>2019-07-09T15:54:07Z</time>
      </trkpt>
      <trkpt lat="39.8159200" lon="-6.3290450">
        <ele>448.2</ele>
        <time>2019-07-09T15:54:10Z</time>
      </trkpt>
      <trkpt lat="39.8159950" lon="-6.3291410">
        <ele>448.8</ele>
        <time>2019-07-09T15:54:14Z</time>
      </trkpt>
      <trkpt lat="39.8160020" lon="-6.3291750">
        <ele>449.0</ele>
        <time>2019-07-09T15:54:15Z</time>
      </trkpt>
      <trkpt lat="39.8159950" lon="-6.3292980">
        <ele>449.2</ele>
        <time>2019-07-09T15:54:18Z</time>
      </trkpt>
      <trkpt lat="39.8159530" lon="-6.3294410">
        <ele>449.2</ele>
        <time>2019-07-09T15:54:21Z</time>
      </trkpt>
      <trkpt lat="39.8159230" lon="-6.3295510">
        <ele>449.0</ele>
        <time>2019-07-09T15:54:23Z</time>
      </trkpt>
      <trkpt lat="39.8158460" lon="-6.3299700">
        <ele>447.4</ele>
        <time>2019-07-09T15:54:29Z</time>
      </trkpt>
      <trkpt lat="39.8158250" lon="-6.3301360">
        <ele>447.2</ele>
        <time>2019-07-09T15:54:31Z</time>
      </trkpt>
      <trkpt lat="39.8158120" lon="-6.3302220">
        <ele>447.2</ele>
        <time>2019-07-09T15:54:32Z</time>
      </trkpt>
      <trkpt lat="39.8157470" lon="-6.3305620">
        <ele>446.4</ele>
        <time>2019-07-09T15:54:36Z</time>
      </trkpt>
      <trkpt lat="39.8157260" lon="-6.3306370">
        <ele>446.4</ele>
        <time>2019-07-09T15:54:37Z</time>
      </trkpt>
      <trkpt lat="39.8156530" lon="-6.3308080">
        <ele>446.6</ele>
        <time>2019-07-09T15:54:40Z</time>
      </trkpt>
      <trkpt lat="39.8156280" lon="-6.3308460">
        <ele>446.8</ele>
        <time>2019-07-09T15:54:41Z</time>
      </trkpt>
      <trkpt lat="39.8155700" lon="-6.3309440">
        <ele>447.6</ele>
        <time>2019-07-09T15:54:44Z</time>
      </trkpt>
      <trkpt lat="39.8155540" lon="-6.3309750">
        <ele>447.8</ele>
        <time>2019-07-09T15:54:45Z</time>
      </trkpt>
      <trkpt lat="39.8154910" lon="-6.3310500">
        <ele>448.4</ele>
        <time>2019-07-09T15:54:48Z</time>
      </trkpt>
      <trkpt lat="39.8154290" lon="-6.3311210">
        <ele>448.8</ele>
        <time>2019-07-09T15:54:51Z</time>
      </trkpt>
      <trkpt lat="39.8153660" lon="-6.3311900">
        <ele>449.6</ele>
        <time>2019-07-09T15:54:54Z</time>
      </trkpt>
      <trkpt lat="39.8153120" lon="-6.3312690">
        <ele>450.0</ele>
        <time>2019-07-09T15:54:57Z</time>
      </trkpt>
      <trkpt lat="39.8152940" lon="-6.3312960">
        <ele>450.2</ele>
        <time>2019-07-09T15:54:58Z</time>
      </trkpt>
      <trkpt lat="39.8152450" lon="-6.3313870">
        <ele>450.8</ele>
        <time>2019-07-09T15:55:01Z</time>
      </trkpt>
      <trkpt lat="39.8152090" lon="-6.3314860">
        <ele>451.4</ele>
        <time>2019-07-09T15:55:04Z</time>
      </trkpt>
      <trkpt lat="39.8152040" lon="-6.3315230">
        <ele>451.4</ele>
        <time>2019-07-09T15:55:05Z</time>
      </trkpt>
      <trkpt lat="39.8151960" lon="-6.3316020">
        <ele>451.8</ele>
        <time>2019-07-09T15:55:07Z</time>
      </trkpt>
      <trkpt lat="39.8151750" lon="-6.3317270">
        <ele>452.2</ele>
        <time>2019-07-09T15:55:10Z</time>
      </trkpt>
      <trkpt lat="39.8151650" lon="-6.3318130">
        <ele>452.4</ele>
        <time>2019-07-09T15:55:12Z</time>
      </trkpt>
      <trkpt lat="39.8151620" lon="-6.3320280">
        <ele>452.8</ele>
        <time>2019-07-09T15:55:17Z</time>
      </trkpt>
      <trkpt lat="39.8151450" lon="-6.3321490">
        <ele>453.2</ele>
        <time>2019-07-09T15:55:20Z</time>
      </trkpt>
      <trkpt lat="39.8151330" lon="-6.3322290">
        <ele>454.0</ele>
        <time>2019-07-09T15:55:22Z</time>
      </trkpt>
      <trkpt lat="39.8151210" lon="-6.3324110">
        <ele>454.8</ele>
        <time>2019-07-09T15:55:27Z</time>
      </trkpt>
      <trkpt lat="39.8151140" lon="-6.3324460">
        <ele>455.0</ele>
        <time>2019-07-09T15:55:28Z</time>
      </trkpt>
      <trkpt lat="39.8150900" lon="-6.3326560">
        <ele>455.6</ele>
        <time>2019-07-09T15:55:34Z</time>
      </trkpt>
      <trkpt lat="39.8150840" lon="-6.3327200">
        <ele>456.0</ele>
        <time>2019-07-09T15:55:36Z</time>
      </trkpt>
      <trkpt lat="39.8150590" lon="-6.3329220">
        <ele>457.2</ele>
        <time>2019-07-09T15:55:42Z</time>
      </trkpt>
      <trkpt lat="39.8150470" lon="-6.3330900">
        <ele>458.4</ele>
        <time>2019-07-09T15:55:47Z</time>
      </trkpt>
      <trkpt lat="39.8150430" lon="-6.3331250">
        <ele>458.6</ele>
        <time>2019-07-09T15:55:48Z</time>
      </trkpt>
      <trkpt lat="39.8150370" lon="-6.3333000">
        <ele>459.4</ele>
        <time>2019-07-09T15:55:53Z</time>
      </trkpt>
      <trkpt lat="39.8150830" lon="-6.3334630">
        <ele>460.4</ele>
        <time>2019-07-09T15:55:58Z</time>
      </trkpt>
      <trkpt lat="39.8151130" lon="-6.3335150">
        <ele>461.0</ele>
        <time>2019-07-09T15:56:00Z</time>
      </trkpt>
      <trkpt lat="39.8151860" lon="-6.3336130">
        <ele>461.6</ele>
        <time>2019-07-09T15:56:04Z</time>
      </trkpt>
      <trkpt lat="39.8152610" lon="-6.3336620">
        <ele>462.2</ele>
        <time>2019-07-09T15:56:07Z</time>
      </trkpt>
      <trkpt lat="39.8153100" lon="-6.3336870">
        <ele>462.8</ele>
        <time>2019-07-09T15:56:09Z</time>
      </trkpt>
      <trkpt lat="39.8154140" lon="-6.3337220">
        <ele>463.4</ele>
        <time>2019-07-09T15:56:13Z</time>
      </trkpt>
      <trkpt lat="39.8154430" lon="-6.3337190">
        <ele>463.8</ele>
        <time>2019-07-09T15:56:14Z</time>
      </trkpt>
      <trkpt lat="39.8155560" lon="-6.3336970">
        <ele>464.8</ele>
        <time>2019-07-09T15:56:18Z</time>
      </trkpt>
      <trkpt lat="39.8156390" lon="-6.3336940">
        <ele>465.4</ele>
        <time>2019-07-09T15:56:21Z</time>
      </trkpt>
      <trkpt lat="39.8156960" lon="-6.3336840">
        <ele>465.8</ele>
        <time>2019-07-09T15:56:23Z</time>
      </trkpt>
      <trkpt lat="39.8158700" lon="-6.3336650">
        <ele>467.0</ele>
        <time>2019-07-09T15:56:29Z</time>
      </trkpt>
      <trkpt lat="39.8159840" lon="-6.3336430">
        <ele>468.0</ele>
        <time>2019-07-09T15:56:33Z</time>
      </trkpt>
      <trkpt lat="39.8160930" lon="-6.3336290">
        <ele>469.0</ele>
        <time>2019-07-09T15:56:37Z</time>
      </trkpt>
      <trkpt lat="39.8161200" lon="-6.3336260">
        <ele>469.0</ele>
        <time>2019-07-09T15:56:38Z</time>
      </trkpt>
      <trkpt lat="39.8163290" lon="-6.3335620">
        <ele>470.0</ele>
        <time>2019-07-09T15:56:46Z</time>
      </trkpt>
      <trkpt lat="39.8163550" lon="-6.3335460">
        <ele>470.2</ele>
        <time>2019-07-09T15:56:47Z</time>
      </trkpt>
      <trkpt lat="39.8164600" lon="-6.3334310">
        <ele>470.8</ele>
        <time>2019-07-09T15:56:52Z</time>
      </trkpt>
      <trkpt lat="39.8164770" lon="-6.3334030">
        <ele>471.2</ele>
        <time>2019-07-09T15:56:53Z</time>
      </trkpt>
      <trkpt lat="39.8165710" lon="-6.3332450">
        <ele>471.8</ele>
        <time>2019-07-09T15:56:59Z</time>
      </trkpt>
      <trkpt lat="39.8166100" lon="-6.3332000">
        <ele>472.2</ele>
        <time>2019-07-09T15:57:01Z</time>
      </trkpt>
      <trkpt lat="39.8167060" lon="-6.3331390">
        <ele>472.8</ele>
        <time>2019-07-09T15:57:05Z</time>
      </trkpt>
      <trkpt lat="39.8168080" lon="-6.3331100">
        <ele>473.4</ele>
        <time>2019-07-09T15:57:09Z</time>
      </trkpt>
      <trkpt lat="39.8169100" lon="-6.3330910">
        <ele>473.8</ele>
        <time>2019-07-09T15:57:13Z</time>
      </trkpt>
      <trkpt lat="39.8170010" lon="-6.3330820">
        <ele>474.0</ele>
        <time>2019-07-09T15:57:16Z</time>
      </trkpt>
      <trkpt lat="39.8171420" lon="-6.3330570">
        <ele>473.8</ele>
        <time>2019-07-09T15:57:20Z</time>
      </trkpt>
      <trkpt lat="39.8173600" lon="-6.3328970">
        <ele>474.0</ele>
        <time>2019-07-09T15:57:27Z</time>
      </trkpt>
      <trkpt lat="39.8175040" lon="-6.3327990">
        <ele>474.2</ele>
        <time>2019-07-09T15:57:32Z</time>
      </trkpt>
      <trkpt lat="39.8175560" lon="-6.3327690">
        <ele>474.4</ele>
        <time>2019-07-09T15:57:34Z</time>
      </trkpt>
      <trkpt lat="39.8176350" lon="-6.3327300">
        <ele>475.2</ele>
        <time>2019-07-09T15:57:37Z</time>
      </trkpt>
      <trkpt lat="39.8177100" lon="-6.3327230">
        <ele>475.8</ele>
        <time>2019-07-09T15:57:40Z</time>
      </trkpt>
      <trkpt lat="39.8177690" lon="-6.3327720">
        <ele>476.4</ele>
        <time>2019-07-09T15:57:43Z</time>
      </trkpt>
      <trkpt lat="39.8177850" lon="-6.3327950">
        <ele>476.6</ele>
        <time>2019-07-09T15:57:44Z</time>
      </trkpt>
      <trkpt lat="39.8178240" lon="-6.3328750">
        <ele>477.4</ele>
        <time>2019-07-09T15:57:47Z</time>
      </trkpt>
      <trkpt lat="39.8178620" lon="-6.3329960">
        <ele>478.6</ele>
        <time>2019-07-09T15:57:51Z</time>
      </trkpt>
      <trkpt lat="39.8179050" lon="-6.3331150">
        <ele>479.6</ele>
        <time>2019-07-09T15:57:55Z</time>
      </trkpt>
      <trkpt lat="39.8179150" lon="-6.3331420">
        <ele>480.0</ele>
        <time>2019-07-09T15:57:56Z</time>
      </trkpt>
      <trkpt lat="39.8179220" lon="-6.3331740">
        <ele>480.4</ele>
        <time>2019-07-09T15:57:57Z</time>
      </trkpt>
      <trkpt lat="39.8179350" lon="-6.3332800">
        <ele>481.2</ele>
        <time>2019-07-09T15:58:00Z</time>
      </trkpt>
      <trkpt lat="39.8179450" lon="-6.3334190">
        <ele>482.0</ele>
        <time>2019-07-09T15:58:04Z</time>
      </trkpt>
      <trkpt lat="39.8179470" lon="-6.3334550">
        <ele>482.2</ele>
        <time>2019-07-09T15:58:05Z</time>
      </trkpt>
      <trkpt lat="39.8179570" lon="-6.3335910">
        <ele>483.6</ele>
        <time>2019-07-09T15:58:09Z</time>
      </trkpt>
      <trkpt lat="39.8179530" lon="-6.3336940">
        <ele>484.2</ele>
        <time>2019-07-09T15:58:12Z</time>
      </trkpt>
      <trkpt lat="39.8179520" lon="-6.3337660">
        <ele>484.6</ele>
        <time>2019-07-09T15:58:14Z</time>
      </trkpt>
      <trkpt lat="39.8179670" lon="-6.3339490">
        <ele>485.6</ele>
        <time>2019-07-09T15:58:19Z</time>
      </trkpt>
      <trkpt lat="39.8179780" lon="-6.3340920">
        <ele>486.8</ele>
        <time>2019-07-09T15:58:23Z</time>
      </trkpt>
      <trkpt lat="39.8179790" lon="-6.3342360">
        <ele>487.6</ele>
        <time>2019-07-09T15:58:27Z</time>
      </trkpt>
      <trkpt lat="39.8179740" lon="-6.3343100">
        <ele>488.0</ele>
        <time>2019-07-09T15:58:29Z</time>
      </trkpt>
      <trkpt lat="39.8179490" lon="-6.3344840">
        <ele>489.0</ele>
        <time>2019-07-09T15:58:34Z</time>
      </trkpt>
      <trkpt lat="39.8179360" lon="-6.3345900">
        <ele>489.4</ele>
        <time>2019-07-09T15:58:37Z</time>
      </trkpt>
      <trkpt lat="39.8179290" lon="-6.3346580">
        <ele>490.0</ele>
        <time>2019-07-09T15:58:39Z</time>
      </trkpt>
      <trkpt lat="39.8179130" lon="-6.3348700">
        <ele>491.2</ele>
        <time>2019-07-09T15:58:45Z</time>
      </trkpt>
      <trkpt lat="39.8178880" lon="-6.3350880">
        <ele>492.2</ele>
        <time>2019-07-09T15:58:51Z</time>
      </trkpt>
      <trkpt lat="39.8178560" lon="-6.3352380">
        <ele>493.2</ele>
        <time>2019-07-09T15:58:55Z</time>
      </trkpt>
      <trkpt lat="39.8178510" lon="-6.3352780">
        <ele>493.4</ele>
        <time>2019-07-09T15:58:56Z</time>
      </trkpt>
      <trkpt lat="39.8177830" lon="-6.3356040">
        <ele>494.2</ele>
        <time>2019-07-09T15:59:04Z</time>
      </trkpt>
      <trkpt lat="39.8176800" lon="-6.3359700">
        <ele>494.6</ele>
        <time>2019-07-09T15:59:12Z</time>
      </trkpt>
      <trkpt lat="39.8176590" lon="-6.3360160">
        <ele>494.6</ele>
        <time>2019-07-09T15:59:13Z</time>
      </trkpt>
      <trkpt lat="39.8175190" lon="-6.3362420">
        <ele>494.8</ele>
        <time>2019-07-09T15:59:18Z</time>
      </trkpt>
      <trkpt lat="39.8174490" lon="-6.3363180">
        <ele>494.8</ele>
        <time>2019-07-09T15:59:20Z</time>
      </trkpt>
      <trkpt lat="39.8173390" lon="-6.3364210">
        <ele>495.0</ele>
        <time>2019-07-09T15:59:23Z</time>
      </trkpt>
      <trkpt lat="39.8172370" lon="-6.3365240">
        <ele>495.2</ele>
        <time>2019-07-09T15:59:26Z</time>
      </trkpt>
      <trkpt lat="39.8171720" lon="-6.3365880">
        <ele>495.8</ele>
        <time>2019-07-09T15:59:28Z</time>
      </trkpt>
      <trkpt lat="39.8170540" lon="-6.3366900">
        <ele>496.4</ele>
        <time>2019-07-09T15:59:32Z</time>
      </trkpt>
      <trkpt lat="39.8170020" lon="-6.3367460">
        <ele>496.6</ele>
        <time>2019-07-09T15:59:34Z</time>
      </trkpt>
      <trkpt lat="39.8168810" lon="-6.3369070">
        <ele>497.6</ele>
        <time>2019-07-09T15:59:39Z</time>
      </trkpt>
      <trkpt lat="39.8167910" lon="-6.3370580">
        <ele>497.6</ele>
        <time>2019-07-09T15:59:43Z</time>
      </trkpt>
      <trkpt lat="39.8166230" lon="-6.3373970">
        <ele>498.0</ele>
        <time>2019-07-09T15:59:51Z</time>
      </trkpt>
      <trkpt lat="39.8165820" lon="-6.3374860">
        <ele>498.4</ele>
        <time>2019-07-09T15:59:53Z</time>
      </trkpt>
      <trkpt lat="39.8164560" lon="-6.3376820">
        <ele>499.2</ele>
        <time>2019-07-09T15:59:58Z</time>
      </trkpt>
      <trkpt lat="39.8163820" lon="-6.3378030">
        <ele>499.4</ele>
        <time>2019-07-09T16:00:01Z</time>
      </trkpt>
      <trkpt lat="39.8163620" lon="-6.3378490">
        <ele>499.4</ele>
        <time>2019-07-09T16:00:02Z</time>
      </trkpt>
      <trkpt lat="39.8163190" lon="-6.3379440">
        <ele>499.6</ele>
        <time>2019-07-09T16:00:04Z</time>
      </trkpt>
      <trkpt lat="39.8160920" lon="-6.3383390">
        <ele>500.0</ele>
        <time>2019-07-09T16:00:13Z</time>
      </trkpt>
      <trkpt lat="39.8159370" lon="-6.3386900">
        <ele>500.0</ele>
        <time>2019-07-09T16:00:19Z</time>
      </trkpt>
      <trkpt lat="39.8158690" lon="-6.3389110">
        <ele>499.4</ele>
        <time>2019-07-09T16:00:22Z</time>
      </trkpt>
      <trkpt lat="39.8158340" lon="-6.3390790">
        <ele>498.6</ele>
        <time>2019-07-09T16:00:24Z</time>
      </trkpt>
      <trkpt lat="39.8158240" lon="-6.3391670">
        <ele>498.2</ele>
        <time>2019-07-09T16:00:25Z</time>
      </trkpt>
      <trkpt lat="39.8158260" lon="-6.3396150">
        <ele>497.4</ele>
        <time>2019-07-09T16:00:30Z</time>
      </trkpt>
      <trkpt lat="39.8158510" lon="-6.3397890">
        <ele>497.0</ele>
        <time>2019-07-09T16:00:32Z</time>
      </trkpt>
      <trkpt lat="39.8158930" lon="-6.3400460">
        <ele>496.8</ele>
        <time>2019-07-09T16:00:35Z</time>
      </trkpt>
      <trkpt lat="39.8159170" lon="-6.3402160">
        <ele>496.6</ele>
        <time>2019-07-09T16:00:37Z</time>
      </trkpt>
      <trkpt lat="39.8159300" lon="-6.3403870">
        <ele>496.2</ele>
        <time>2019-07-09T16:00:39Z</time>
      </trkpt>
      <trkpt lat="39.8159300" lon="-6.3405550">
        <ele>496.0</ele>
        <time>2019-07-09T16:00:41Z</time>
      </trkpt>
      <trkpt lat="39.8159200" lon="-6.3407220">
        <ele>495.8</ele>
        <time>2019-07-09T16:00:43Z</time>
      </trkpt>
      <trkpt lat="39.8158730" lon="-6.3410500">
        <ele>495.4</ele>
        <time>2019-07-09T16:00:47Z</time>
      </trkpt>
      <trkpt lat="39.8158250" lon="-6.3412030">
        <ele>495.4</ele>
        <time>2019-07-09T16:00:49Z</time>
      </trkpt>
      <trkpt lat="39.8157230" lon="-6.3414260">
        <ele>495.0</ele>
        <time>2019-07-09T16:00:52Z</time>
      </trkpt>
      <trkpt lat="39.8156370" lon="-6.3415670">
        <ele>494.8</ele>
        <time>2019-07-09T16:00:54Z</time>
      </trkpt>
      <trkpt lat="39.8154400" lon="-6.3418310">
        <ele>494.0</ele>
        <time>2019-07-09T16:00:58Z</time>
      </trkpt>
      <trkpt lat="39.8152920" lon="-6.3420370">
        <ele>492.8</ele>
        <time>2019-07-09T16:01:01Z</time>
      </trkpt>
      <trkpt lat="39.8152490" lon="-6.3421140">
        <ele>492.6</ele>
        <time>2019-07-09T16:01:02Z</time>
      </trkpt>
      <trkpt lat="39.8152100" lon="-6.3421960">
        <ele>491.8</ele>
        <time>2019-07-09T16:01:03Z</time>
      </trkpt>
      <trkpt lat="39.8151360" lon="-6.3423650">
        <ele>491.2</ele>
        <time>2019-07-09T16:01:05Z</time>
      </trkpt>
      <trkpt lat="39.8150500" lon="-6.3426370">
        <ele>491.2</ele>
        <time>2019-07-09T16:01:08Z</time>
      </trkpt>
      <trkpt lat="39.8150100" lon="-6.3428230">
        <ele>490.8</ele>
        <time>2019-07-09T16:01:10Z</time>
      </trkpt>
      <trkpt lat="39.8149250" lon="-6.3432900">
        <ele>490.2</ele>
        <time>2019-07-09T16:01:15Z</time>
      </trkpt>
      <trkpt lat="39.8148750" lon="-6.3436570">
        <ele>489.6</ele>
        <time>2019-07-09T16:01:19Z</time>
      </trkpt>
      <trkpt lat="39.8148550" lon="-6.3440050">
        <ele>489.6</ele>
        <time>2019-07-09T16:01:23Z</time>
      </trkpt>
      <trkpt lat="39.8148940" lon="-6.3444950">
        <ele>490.4</ele>
        <time>2019-07-09T16:01:29Z</time>
      </trkpt>
      <trkpt lat="39.8149030" lon="-6.3445700">
        <ele>490.6</ele>
        <time>2019-07-09T16:01:30Z</time>
      </trkpt>
      <trkpt lat="39.8149340" lon="-6.3449880">
        <ele>489.4</ele>
        <time>2019-07-09T16:01:36Z</time>
      </trkpt>
      <trkpt lat="39.8149360" lon="-6.3450580">
        <ele>489.4</ele>
        <time>2019-07-09T16:01:37Z</time>
      </trkpt>
      <trkpt lat="39.8149340" lon="-6.3451970">
        <ele>489.2</ele>
        <time>2019-07-09T16:01:39Z</time>
      </trkpt>
      <trkpt lat="39.8149000" lon="-6.3454030">
        <ele>489.0</ele>
        <time>2019-07-09T16:01:42Z</time>
      </trkpt>
      <trkpt lat="39.8148520" lon="-6.3455990">
        <ele>489.0</ele>
        <time>2019-07-09T16:01:45Z</time>
      </trkpt>
      <trkpt lat="39.8147490" lon="-6.3460020">
        <ele>489.0</ele>
        <time>2019-07-09T16:01:51Z</time>
      </trkpt>
      <trkpt lat="39.8146310" lon="-6.3464810">
        <ele>489.4</ele>
        <time>2019-07-09T16:01:58Z</time>
      </trkpt>
      <trkpt lat="39.8145650" lon="-6.3468400">
        <ele>489.6</ele>
        <time>2019-07-09T16:02:03Z</time>
      </trkpt>
      <trkpt lat="39.8145650" lon="-6.3469930">
        <ele>489.4</ele>
        <time>2019-07-09T16:02:05Z</time>
      </trkpt>
      <trkpt lat="39.8145720" lon="-6.3471610">
        <ele>489.0</ele>
        <time>2019-07-09T16:02:07Z</time>
      </trkpt>
      <trkpt lat="39.8145730" lon="-6.3473440">
        <ele>488.2</ele>
        <time>2019-07-09T16:02:09Z</time>
      </trkpt>
      <trkpt lat="39.8145710" lon="-6.3475380">
        <ele>488.0</ele>
        <time>2019-07-09T16:02:11Z</time>
      </trkpt>
      <trkpt lat="39.8145720" lon="-6.3476380">
        <ele>487.6</ele>
        <time>2019-07-09T16:02:12Z</time>
      </trkpt>
      <trkpt lat="39.8145730" lon="-6.3477380">
        <ele>487.2</ele>
        <time>2019-07-09T16:02:13Z</time>
      </trkpt>
      <trkpt lat="39.8145760" lon="-6.3479370">
        <ele>485.2</ele>
        <time>2019-07-09T16:02:15Z</time>
      </trkpt>
      <trkpt lat="39.8145860" lon="-6.3482390">
        <ele>483.4</ele>
        <time>2019-07-09T16:02:18Z</time>
      </trkpt>
      <trkpt lat="39.8145880" lon="-6.3484480">
        <ele>482.4</ele>
        <time>2019-07-09T16:02:20Z</time>
      </trkpt>
      <trkpt lat="39.8145890" lon="-6.3486610">
        <ele>481.0</ele>
        <time>2019-07-09T16:02:22Z</time>
      </trkpt>
      <trkpt lat="39.8145940" lon="-6.3488800">
        <ele>479.8</ele>
        <time>2019-07-09T16:02:24Z</time>
      </trkpt>
      <trkpt lat="39.8145990" lon="-6.3490950">
        <ele>478.8</ele>
        <time>2019-07-09T16:02:26Z</time>
      </trkpt>
      <trkpt lat="39.8146020" lon="-6.3492970">
        <ele>478.4</ele>
        <time>2019-07-09T16:02:28Z</time>
      </trkpt>
      <trkpt lat="39.8145990" lon="-6.3496560">
        <ele>478.4</ele>
        <time>2019-07-09T16:02:32Z</time>
      </trkpt>
      <trkpt lat="39.8146040" lon="-6.3498190">
        <ele>478.6</ele>
        <time>2019-07-09T16:02:34Z</time>
      </trkpt>
      <trkpt lat="39.8146730" lon="-6.3504000">
        <ele>479.2</ele>
        <time>2019-07-09T16:02:41Z</time>
      </trkpt>
      <trkpt lat="39.8147750" lon="-6.3510050">
        <ele>477.6</ele>
        <time>2019-07-09T16:02:48Z</time>
      </trkpt>
      <trkpt lat="39.8147890" lon="-6.3510890">
        <ele>477.6</ele>
        <time>2019-07-09T16:02:49Z</time>
      </trkpt>
      <trkpt lat="39.8148860" lon="-6.3516420">
        <ele>476.8</ele>
        <time>2019-07-09T16:02:56Z</time>
      </trkpt>
      <trkpt lat="39.8148970" lon="-6.3517150">
        <ele>476.6</ele>
        <time>2019-07-09T16:02:57Z</time>
      </trkpt>
      <trkpt lat="39.8149350" lon="-6.3519320">
        <ele>475.6</ele>
        <time>2019-07-09T16:03:00Z</time>
      </trkpt>
      <trkpt lat="39.8150120" lon="-6.3523700">
        <ele>475.0</ele>
        <time>2019-07-09T16:03:06Z</time>
      </trkpt>
      <trkpt lat="39.8150220" lon="-6.3524470">
        <ele>474.8</ele>
        <time>2019-07-09T16:03:07Z</time>
      </trkpt>
      <trkpt lat="39.8150330" lon="-6.3526930">
        <ele>474.8</ele>
        <time>2019-07-09T16:03:10Z</time>
      </trkpt>
      <trkpt lat="39.8150260" lon="-6.3527780">
        <ele>474.6</ele>
        <time>2019-07-09T16:03:11Z</time>
      </trkpt>
      <trkpt lat="39.8150160" lon="-6.3528630">
        <ele>474.6</ele>
        <time>2019-07-09T16:03:12Z</time>
      </trkpt>
      <trkpt lat="39.8149840" lon="-6.3530290">
        <ele>474.4</ele>
        <time>2019-07-09T16:03:14Z</time>
      </trkpt>
      <trkpt lat="39.8149140" lon="-6.3532780">
        <ele>474.2</ele>
        <time>2019-07-09T16:03:17Z</time>
      </trkpt>
      <trkpt lat="39.8147390" lon="-6.3537990">
        <ele>473.4</ele>
        <time>2019-07-09T16:03:23Z</time>
      </trkpt>
      <trkpt lat="39.8147110" lon="-6.3538920">
        <ele>473.0</ele>
        <time>2019-07-09T16:03:24Z</time>
      </trkpt>
      <trkpt lat="39.8146200" lon="-6.3541800">
        <ele>472.4</ele>
        <time>2019-07-09T16:03:27Z</time>
      </trkpt>
      <trkpt lat="39.8144950" lon="-6.3545960">
        <ele>471.2</ele>
        <time>2019-07-09T16:03:31Z</time>
      </trkpt>
      <trkpt lat="39.8144370" lon="-6.3548070">
        <ele>470.8</ele>
        <time>2019-07-09T16:03:33Z</time>
      </trkpt>
      <trkpt lat="39.8144210" lon="-6.3550190">
        <ele>469.8</ele>
        <time>2019-07-09T16:03:35Z</time>
      </trkpt>
      <trkpt lat="39.8145240" lon="-6.3552860">
        <ele>468.8</ele>
        <time>2019-07-09T16:03:38Z</time>
      </trkpt>
      <trkpt lat="39.8145790" lon="-6.3553500">
        <ele>468.6</ele>
        <time>2019-07-09T16:03:39Z</time>
      </trkpt>
      <trkpt lat="39.8146360" lon="-6.3554080">
        <ele>468.4</ele>
        <time>2019-07-09T16:03:40Z</time>
      </trkpt>
      <trkpt lat="39.8148110" lon="-6.3555710">
        <ele>468.0</ele>
        <time>2019-07-09T16:03:43Z</time>
      </trkpt>
      <trkpt lat="39.8150430" lon="-6.3557670">
        <ele>467.4</ele>
        <time>2019-07-09T16:03:47Z</time>
      </trkpt>
      <trkpt lat="39.8151360" lon="-6.3558740">
        <ele>467.0</ele>
        <time>2019-07-09T16:03:49Z</time>
      </trkpt>
      <trkpt lat="39.8151730" lon="-6.3559330">
        <ele>466.8</ele>
        <time>2019-07-09T16:03:50Z</time>
      </trkpt>
      <trkpt lat="39.8153080" lon="-6.3562550">
        <ele>466.6</ele>
        <time>2019-07-09T16:03:55Z</time>
      </trkpt>
      <trkpt lat="39.8153240" lon="-6.3563260">
        <ele>466.6</ele>
        <time>2019-07-09T16:03:56Z</time>
      </trkpt>
      <trkpt lat="39.8153980" lon="-6.3567500">
        <ele>466.4</ele>
        <time>2019-07-09T16:04:02Z</time>
      </trkpt>
      <trkpt lat="39.8154100" lon="-6.3568200">
        <ele>466.4</ele>
        <time>2019-07-09T16:04:03Z</time>
      </trkpt>
      <trkpt lat="39.8154410" lon="-6.3570310">
        <ele>466.6</ele>
        <time>2019-07-09T16:04:06Z</time>
      </trkpt>
      <trkpt lat="39.8154720" lon="-6.3572380">
        <ele>466.4</ele>
        <time>2019-07-09T16:04:09Z</time>
      </trkpt>
      <trkpt lat="39.8155210" lon="-6.3575790">
        <ele>466.2</ele>
        <time>2019-07-09T16:04:14Z</time>
      </trkpt>
      <trkpt lat="39.8155510" lon="-6.3577870">
        <ele>465.8</ele>
        <time>2019-07-09T16:04:17Z</time>
      </trkpt>
      <trkpt lat="39.8155860" lon="-6.3579980">
        <ele>465.2</ele>
        <time>2019-07-09T16:04:20Z</time>
      </trkpt>
      <trkpt lat="39.8156360" lon="-6.3582920">
        <ele>464.8</ele>
        <time>2019-07-09T16:04:24Z</time>
      </trkpt>
      <trkpt lat="39.8156930" lon="-6.3589080">
        <ele>464.2</ele>
        <time>2019-07-09T16:04:32Z</time>
      </trkpt>
      <trkpt lat="39.8157520" lon="-6.3594950">
        <ele>463.4</ele>
        <time>2019-07-09T16:04:40Z</time>
      </trkpt>
      <trkpt lat="39.8158110" lon="-6.3599130">
        <ele>464.2</ele>
        <time>2019-07-09T16:04:47Z</time>
      </trkpt>
      <trkpt lat="39.8159250" lon="-6.3602780">
        <ele>464.4</ele>
        <time>2019-07-09T16:04:54Z</time>
      </trkpt>
      <trkpt lat="39.8160590" lon="-6.3606090">
        <ele>463.6</ele>
        <time>2019-07-09T16:05:00Z</time>
      </trkpt>
      <trkpt lat="39.8161190" lon="-6.3607240">
        <ele>463.0</ele>
        <time>2019-07-09T16:05:02Z</time>
      </trkpt>
      <trkpt lat="39.8162760" lon="-6.3610610">
        <ele>463.2</ele>
        <time>2019-07-09T16:05:08Z</time>
      </trkpt>
      <trkpt lat="39.8164510" lon="-6.3614720">
        <ele>464.0</ele>
        <time>2019-07-09T16:05:17Z</time>
      </trkpt>
      <trkpt lat="39.8164890" lon="-6.3615610">
        <ele>464.2</ele>
        <time>2019-07-09T16:05:19Z</time>
      </trkpt>
      <trkpt lat="39.8166340" lon="-6.3618560">
        <ele>465.0</ele>
        <time>2019-07-09T16:05:26Z</time>
      </trkpt>
      <trkpt lat="39.8166530" lon="-6.3618960">
        <ele>465.0</ele>
        <time>2019-07-09T16:05:27Z</time>
      </trkpt>
      <trkpt lat="39.8166720" lon="-6.3619380">
        <ele>465.2</ele>
        <time>2019-07-09T16:05:28Z</time>
      </trkpt>
      <trkpt lat="39.8167820" lon="-6.3621190">
        <ele>466.0</ele>
        <time>2019-07-09T16:05:33Z</time>
      </trkpt>
      <trkpt lat="39.8169020" lon="-6.3622120">
        <ele>466.2</ele>
        <time>2019-07-09T16:05:37Z</time>
      </trkpt>
      <trkpt lat="39.8169390" lon="-6.3622250">
        <ele>466.4</ele>
        <time>2019-07-09T16:05:38Z</time>
      </trkpt>
      <trkpt lat="39.8171380" lon="-6.3622160">
        <ele>466.2</ele>
        <time>2019-07-09T16:05:43Z</time>
      </trkpt>
      <trkpt lat="39.8174020" lon="-6.3621780">
        <ele>466.0</ele>
        <time>2019-07-09T16:05:49Z</time>
      </trkpt>
      <trkpt lat="39.8175000" lon="-6.3621630">
        <ele>465.8</ele>
        <time>2019-07-09T16:05:51Z</time>
      </trkpt>
      <trkpt lat="39.8175480" lon="-6.3621590">
        <ele>465.8</ele>
        <time>2019-07-09T16:05:52Z</time>
      </trkpt>
      <trkpt lat="39.8177030" lon="-6.3621780">
        <ele>465.6</ele>
        <time>2019-07-09T16:05:55Z</time>
      </trkpt>
      <trkpt lat="39.8177540" lon="-6.3621960">
        <ele>465.4</ele>
        <time>2019-07-09T16:05:56Z</time>
      </trkpt>
      <trkpt lat="39.8178590" lon="-6.3622480">
        <ele>465.2</ele>
        <time>2019-07-09T16:05:58Z</time>
      </trkpt>
      <trkpt lat="39.8179110" lon="-6.3622810">
        <ele>465.0</ele>
        <time>2019-07-09T16:05:59Z</time>
      </trkpt>
      <trkpt lat="39.8180080" lon="-6.3623620">
        <ele>464.6</ele>
        <time>2019-07-09T16:06:01Z</time>
      </trkpt>
      <trkpt lat="39.8182050" lon="-6.3625410">
        <ele>464.4</ele>
        <time>2019-07-09T16:06:05Z</time>
      </trkpt>
      <trkpt lat="39.8182610" lon="-6.3625750">
        <ele>464.2</ele>
        <time>2019-07-09T16:06:06Z</time>
      </trkpt>
      <trkpt lat="39.8183190" lon="-6.3625950">
        <ele>464.0</ele>
        <time>2019-07-09T16:06:07Z</time>
      </trkpt>
      <trkpt lat="39.8185310" lon="-6.3625940">
        <ele>463.6</ele>
        <time>2019-07-09T16:06:11Z</time>
      </trkpt>
      <trkpt lat="39.8186120" lon="-6.3625670">
        <ele>463.6</ele>
        <time>2019-07-09T16:06:13Z</time>
      </trkpt>
      <trkpt lat="39.8186470" lon="-6.3625480">
        <ele>463.8</ele>
        <time>2019-07-09T16:06:14Z</time>
      </trkpt>
      <trkpt lat="39.8187100" lon="-6.3625120">
        <ele>463.8</ele>
        <time>2019-07-09T16:06:16Z</time>
      </trkpt>
      <trkpt lat="39.8188670" lon="-6.3624430">
        <ele>465.0</ele>
        <time>2019-07-09T16:06:21Z</time>
      </trkpt>
      <trkpt lat="39.8189270" lon="-6.3624150">
        <ele>465.4</ele>
        <time>2019-07-09T16:06:23Z</time>
      </trkpt>
      <trkpt lat="39.8190200" lon="-6.3623950">
        <ele>466.2</ele>
        <time>2019-07-09T16:06:26Z</time>
      </trkpt>
      <trkpt lat="39.8191180" lon="-6.3624130">
        <ele>466.8</ele>
        <time>2019-07-09T16:06:29Z</time>
      </trkpt>
      <trkpt lat="39.8191480" lon="-6.3624210">
        <ele>467.2</ele>
        <time>2019-07-09T16:06:30Z</time>
      </trkpt>
      <trkpt lat="39.8192550" lon="-6.3624760">
        <ele>468.2</ele>
        <time>2019-07-09T16:06:34Z</time>
      </trkpt>
      <trkpt lat="39.8193000" lon="-6.3625120">
        <ele>468.8</ele>
        <time>2019-07-09T16:06:36Z</time>
      </trkpt>
      <trkpt lat="39.8193630" lon="-6.3625690">
        <ele>469.6</ele>
        <time>2019-07-09T16:06:39Z</time>
      </trkpt>
      <trkpt lat="39.8194190" lon="-6.3626350">
        <ele>470.4</ele>
        <time>2019-07-09T16:06:42Z</time>
      </trkpt>
      <trkpt lat="39.8194340" lon="-6.3626600">
        <ele>470.6</ele>
        <time>2019-07-09T16:06:43Z</time>
      </trkpt>
      <trkpt lat="39.8195140" lon="-6.3628550">
        <ele>471.8</ele>
        <time>2019-07-09T16:06:49Z</time>
      </trkpt>
      <trkpt lat="39.8195560" lon="-6.3629940">
        <ele>472.8</ele>
        <time>2019-07-09T16:06:53Z</time>
      </trkpt>
      <trkpt lat="39.8195800" lon="-6.3630620">
        <ele>473.2</ele>
        <time>2019-07-09T16:06:55Z</time>
      </trkpt>
      <trkpt lat="39.8196010" lon="-6.3631360">
        <ele>474.0</ele>
        <time>2019-07-09T16:06:57Z</time>
      </trkpt>
      <trkpt lat="39.8196210" lon="-6.3632820">
        <ele>475.0</ele>
        <time>2019-07-09T16:07:01Z</time>
      </trkpt>
      <trkpt lat="39.8196930" lon="-6.3635290">
        <ele>476.2</ele>
        <time>2019-07-09T16:07:08Z</time>
      </trkpt>
      <trkpt lat="39.8196980" lon="-6.3635670">
        <ele>476.4</ele>
        <time>2019-07-09T16:07:09Z</time>
      </trkpt>
      <trkpt lat="39.8197500" lon="-6.3637430">
        <ele>477.6</ele>
        <time>2019-07-09T16:07:14Z</time>
      </trkpt>
      <trkpt lat="39.8197840" lon="-6.3638870">
        <ele>478.4</ele>
        <time>2019-07-09T16:07:18Z</time>
      </trkpt>
      <trkpt lat="39.8198160" lon="-6.3639930">
        <ele>478.6</ele>
        <time>2019-07-09T16:07:21Z</time>
      </trkpt>
      <trkpt lat="39.8198740" lon="-6.3642530">
        <ele>479.8</ele>
        <time>2019-07-09T16:07:28Z</time>
      </trkpt>
      <trkpt lat="39.8198860" lon="-6.3642900">
        <ele>479.8</ele>
        <time>2019-07-09T16:07:29Z</time>
      </trkpt>
      <trkpt lat="39.8199650" lon="-6.3645320">
        <ele>480.4</ele>
        <time>2019-07-09T16:07:36Z</time>
      </trkpt>
      <trkpt lat="39.8200100" lon="-6.3645860">
        <ele>480.8</ele>
        <time>2019-07-09T16:07:38Z</time>
      </trkpt>
      <trkpt lat="39.8201310" lon="-6.3647060">
        <ele>481.0</ele>
        <time>2019-07-09T16:07:43Z</time>
      </trkpt>
      <trkpt lat="39.8202260" lon="-6.3648200">
        <ele>481.4</ele>
        <time>2019-07-09T16:07:47Z</time>
      </trkpt>
      <trkpt lat="39.8202900" lon="-6.3649800">
        <ele>481.4</ele>
        <time>2019-07-09T16:07:51Z</time>
      </trkpt>
      <trkpt lat="39.8202590" lon="-6.3651760">
        <ele>481.6</ele>
        <time>2019-07-09T16:07:55Z</time>
      </trkpt>
      <trkpt lat="39.8202340" lon="-6.3652180">
        <ele>481.6</ele>
        <time>2019-07-09T16:07:56Z</time>
      </trkpt>
      <trkpt lat="39.8201280" lon="-6.3653070">
        <ele>481.6</ele>
        <time>2019-07-09T16:07:59Z</time>
      </trkpt>
      <trkpt lat="39.8199390" lon="-6.3653120">
        <ele>481.4</ele>
        <time>2019-07-09T16:08:03Z</time>
      </trkpt>
      <trkpt lat="39.8197930" lon="-6.3652580">
        <ele>481.4</ele>
        <time>2019-07-09T16:08:06Z</time>
      </trkpt>
      <trkpt lat="39.8196320" lon="-6.3652150">
        <ele>481.0</ele>
        <time>2019-07-09T16:08:09Z</time>
      </trkpt>
      <trkpt lat="39.8195160" lon="-6.3651880">
        <ele>480.8</ele>
        <time>2019-07-09T16:08:11Z</time>
      </trkpt>
      <trkpt lat="39.8192720" lon="-6.3651200">
        <ele>480.2</ele>
        <time>2019-07-09T16:08:15Z</time>
      </trkpt>
      <trkpt lat="39.8190180" lon="-6.3650670">
        <ele>479.8</ele>
        <time>2019-07-09T16:08:19Z</time>
      </trkpt>
      <trkpt lat="39.8188190" lon="-6.3650650">
        <ele>479.4</ele>
        <time>2019-07-09T16:08:22Z</time>
      </trkpt>
      <trkpt lat="39.8185250" lon="-6.3650960">
        <ele>478.6</ele>
        <time>2019-07-09T16:08:26Z</time>
      </trkpt>
      <trkpt lat="39.8182930" lon="-6.3651520">
        <ele>477.8</ele>
        <time>2019-07-09T16:08:29Z</time>
      </trkpt>
      <trkpt lat="39.8182170" lon="-6.3651840">
        <ele>477.6</ele>
        <time>2019-07-09T16:08:30Z</time>
      </trkpt>
      <trkpt lat="39.8179920" lon="-6.3653250">
        <ele>476.2</ele>
        <time>2019-07-09T16:08:33Z</time>
      </trkpt>
      <trkpt lat="39.8176830" lon="-6.3655420">
        <ele>475.2</ele>
        <time>2019-07-09T16:08:37Z</time>
      </trkpt>
      <trkpt lat="39.8173690" lon="-6.3657740">
        <ele>474.0</ele>
        <time>2019-07-09T16:08:41Z</time>
      </trkpt>
      <trkpt lat="39.8172920" lon="-6.3658330">
        <ele>473.6</ele>
        <time>2019-07-09T16:08:42Z</time>
      </trkpt>
      <trkpt lat="39.8171320" lon="-6.3659450">
        <ele>472.8</ele>
        <time>2019-07-09T16:08:44Z</time>
      </trkpt>
      <trkpt lat="39.8167880" lon="-6.3661210">
        <ele>471.6</ele>
        <time>2019-07-09T16:08:48Z</time>
      </trkpt>
      <trkpt lat="39.8164230" lon="-6.3662350">
        <ele>470.6</ele>
        <time>2019-07-09T16:08:52Z</time>
      </trkpt>
      <trkpt lat="39.8163320" lon="-6.3662620">
        <ele>470.2</ele>
        <time>2019-07-09T16:08:53Z</time>
      </trkpt>
      <trkpt lat="39.8161460" lon="-6.3663130">
        <ele>469.4</ele>
        <time>2019-07-09T16:08:55Z</time>
      </trkpt>
      <trkpt lat="39.8160520" lon="-6.3663370">
        <ele>468.8</ele>
        <time>2019-07-09T16:08:56Z</time>
      </trkpt>
      <trkpt lat="39.8157680" lon="-6.3664100">
        <ele>467.4</ele>
        <time>2019-07-09T16:08:59Z</time>
      </trkpt>
      <trkpt lat="39.8154800" lon="-6.3664840">
        <ele>466.4</ele>
        <time>2019-07-09T16:09:02Z</time>
      </trkpt>
      <trkpt lat="39.8152880" lon="-6.3665360">
        <ele>465.8</ele>
        <time>2019-07-09T16:09:04Z</time>
      </trkpt>
      <trkpt lat="39.8151900" lon="-6.3665600">
        <ele>465.4</ele>
        <time>2019-07-09T16:09:05Z</time>
      </trkpt>
      <trkpt lat="39.8148970" lon="-6.3666350">
        <ele>463.8</ele>
        <time>2019-07-09T16:09:08Z</time>
      </trkpt>
      <trkpt lat="39.8146110" lon="-6.3667260">
        <ele>462.8</ele>
        <time>2019-07-09T16:09:11Z</time>
      </trkpt>
      <trkpt lat="39.8145180" lon="-6.3667640">
        <ele>462.4</ele>
        <time>2019-07-09T16:09:12Z</time>
      </trkpt>
      <trkpt lat="39.8143380" lon="-6.3668560">
        <ele>461.6</ele>
        <time>2019-07-09T16:09:14Z</time>
      </trkpt>
      <trkpt lat="39.8140710" lon="-6.3670230">
        <ele>460.4</ele>
        <time>2019-07-09T16:09:17Z</time>
      </trkpt>
      <trkpt lat="39.8139830" lon="-6.3670810">
        <ele>460.0</ele>
        <time>2019-07-09T16:09:18Z</time>
      </trkpt>
      <trkpt lat="39.8138030" lon="-6.3671900">
        <ele>458.8</ele>
        <time>2019-07-09T16:09:20Z</time>
      </trkpt>
      <trkpt lat="39.8136260" lon="-6.3673060">
        <ele>457.8</ele>
        <time>2019-07-09T16:09:22Z</time>
      </trkpt>
      <trkpt lat="39.8133620" lon="-6.3674910">
        <ele>456.6</ele>
        <time>2019-07-09T16:09:25Z</time>
      </trkpt>
      <trkpt lat="39.8132730" lon="-6.3675520">
        <ele>456.2</ele>
        <time>2019-07-09T16:09:26Z</time>
      </trkpt>
      <trkpt lat="39.8130890" lon="-6.3676660">
        <ele>455.2</ele>
        <time>2019-07-09T16:09:28Z</time>
      </trkpt>
      <trkpt lat="39.8129050" lon="-6.3677800">
        <ele>454.2</ele>
        <time>2019-07-09T16:09:30Z</time>
      </trkpt>
      <trkpt lat="39.8127230" lon="-6.3678990">
        <ele>453.2</ele>
        <time>2019-07-09T16:09:32Z</time>
      </trkpt>
      <trkpt lat="39.8124520" lon="-6.3680850">
        <ele>452.0</ele>
        <time>2019-07-09T16:09:35Z</time>
      </trkpt>
      <trkpt lat="39.8121810" lon="-6.3682680">
        <ele>450.8</ele>
        <time>2019-07-09T16:09:38Z</time>
      </trkpt>
      <trkpt lat="39.8119360" lon="-6.3684950">
        <ele>449.8</ele>
        <time>2019-07-09T16:09:41Z</time>
      </trkpt>
      <trkpt lat="39.8117580" lon="-6.3688100">
        <ele>448.4</ele>
        <time>2019-07-09T16:09:44Z</time>
      </trkpt>
      <trkpt lat="39.8116750" lon="-6.3690490">
        <ele>446.8</ele>
        <time>2019-07-09T16:09:46Z</time>
      </trkpt>
      <trkpt lat="39.8115630" lon="-6.3694060">
        <ele>445.6</ele>
        <time>2019-07-09T16:09:49Z</time>
      </trkpt>
      <trkpt lat="39.8114910" lon="-6.3696390">
        <ele>444.4</ele>
        <time>2019-07-09T16:09:51Z</time>
      </trkpt>
      <trkpt lat="39.8113600" lon="-6.3699660">
        <ele>443.6</ele>
        <time>2019-07-09T16:09:54Z</time>
      </trkpt>
      <trkpt lat="39.8113070" lon="-6.3700650">
        <ele>443.2</ele>
        <time>2019-07-09T16:09:55Z</time>
      </trkpt>
      <trkpt lat="39.8112470" lon="-6.3701560">
        <ele>443.0</ele>
        <time>2019-07-09T16:09:56Z</time>
      </trkpt>
      <trkpt lat="39.8111080" lon="-6.3703120">
        <ele>442.0</ele>
        <time>2019-07-09T16:09:58Z</time>
      </trkpt>
      <trkpt lat="39.8110280" lon="-6.3703730">
        <ele>441.4</ele>
        <time>2019-07-09T16:09:59Z</time>
      </trkpt>
      <trkpt lat="39.8109430" lon="-6.3704240">
        <ele>441.0</ele>
        <time>2019-07-09T16:10:00Z</time>
      </trkpt>
      <trkpt lat="39.8107590" lon="-6.3704990">
        <ele>439.8</ele>
        <time>2019-07-09T16:10:02Z</time>
      </trkpt>
      <trkpt lat="39.8106640" lon="-6.3705310">
        <ele>439.4</ele>
        <time>2019-07-09T16:10:03Z</time>
      </trkpt>
      <trkpt lat="39.8104700" lon="-6.3705960">
        <ele>438.2</ele>
        <time>2019-07-09T16:10:05Z</time>
      </trkpt>
      <trkpt lat="39.8102670" lon="-6.3706560">
        <ele>437.2</ele>
        <time>2019-07-09T16:10:07Z</time>
      </trkpt>
      <trkpt lat="39.8100560" lon="-6.3707020">
        <ele>436.2</ele>
        <time>2019-07-09T16:10:09Z</time>
      </trkpt>
      <trkpt lat="39.8099490" lon="-6.3707250">
        <ele>435.8</ele>
        <time>2019-07-09T16:10:10Z</time>
      </trkpt>
      <trkpt lat="39.8097370" lon="-6.3707770">
        <ele>434.8</ele>
        <time>2019-07-09T16:10:12Z</time>
      </trkpt>
      <trkpt lat="39.8095230" lon="-6.3708160">
        <ele>434.0</ele>
        <time>2019-07-09T16:10:14Z</time>
      </trkpt>
      <trkpt lat="39.8094160" lon="-6.3708150">
        <ele>433.4</ele>
        <time>2019-07-09T16:10:15Z</time>
      </trkpt>
      <trkpt lat="39.8092080" lon="-6.3707650">
        <ele>432.6</ele>
        <time>2019-07-09T16:10:17Z</time>
      </trkpt>
      <trkpt lat="39.8091140" lon="-6.3707060">
        <ele>432.4</ele>
        <time>2019-07-09T16:10:18Z</time>
      </trkpt>
      <trkpt lat="39.8089640" lon="-6.3705240">
        <ele>432.0</ele>
        <time>2019-07-09T16:10:20Z</time>
      </trkpt>
      <trkpt lat="39.8089110" lon="-6.3704150">
        <ele>431.4</ele>
        <time>2019-07-09T16:10:21Z</time>
      </trkpt>
      <trkpt lat="39.8088690" lon="-6.3703010">
        <ele>431.0</ele>
        <time>2019-07-09T16:10:22Z</time>
      </trkpt>
      <trkpt lat="39.8088310" lon="-6.3701840">
        <ele>430.6</ele>
        <time>2019-07-09T16:10:23Z</time>
      </trkpt>
      <trkpt lat="39.8087500" lon="-6.3699530">
        <ele>429.4</ele>
        <time>2019-07-09T16:10:25Z</time>
      </trkpt>
      <trkpt lat="39.8087070" lon="-6.3698390">
        <ele>429.0</ele>
        <time>2019-07-09T16:10:26Z</time>
      </trkpt>
      <trkpt lat="39.8085840" lon="-6.3694880">
        <ele>427.8</ele>
        <time>2019-07-09T16:10:29Z</time>
      </trkpt>
      <trkpt lat="39.8085070" lon="-6.3692560">
        <ele>427.2</ele>
        <time>2019-07-09T16:10:31Z</time>
      </trkpt>
      <trkpt lat="39.8084680" lon="-6.3691410">
        <ele>426.6</ele>
        <time>2019-07-09T16:10:32Z</time>
      </trkpt>
      <trkpt lat="39.8083820" lon="-6.3689150">
        <ele>425.4</ele>
        <time>2019-07-09T16:10:34Z</time>
      </trkpt>
      <trkpt lat="39.8081820" lon="-6.3684700">
        <ele>424.4</ele>
        <time>2019-07-09T16:10:38Z</time>
      </trkpt>
      <trkpt lat="39.8080530" lon="-6.3682640">
        <ele>423.6</ele>
        <time>2019-07-09T16:10:40Z</time>
      </trkpt>
      <trkpt lat="39.8079830" lon="-6.3681660">
        <ele>423.0</ele>
        <time>2019-07-09T16:10:41Z</time>
      </trkpt>
      <trkpt lat="39.8078390" lon="-6.3679670">
        <ele>422.0</ele>
        <time>2019-07-09T16:10:43Z</time>
      </trkpt>
      <trkpt lat="39.8076810" lon="-6.3677710">
        <ele>420.8</ele>
        <time>2019-07-09T16:10:45Z</time>
      </trkpt>
      <trkpt lat="39.8075910" lon="-6.3676830">
        <ele>420.2</ele>
        <time>2019-07-09T16:10:46Z</time>
      </trkpt>
      <trkpt lat="39.8074910" lon="-6.3676130">
        <ele>419.8</ele>
        <time>2019-07-09T16:10:47Z</time>
      </trkpt>
      <trkpt lat="39.8072710" lon="-6.3675470">
        <ele>418.2</ele>
        <time>2019-07-09T16:10:49Z</time>
      </trkpt>
      <trkpt lat="39.8069220" lon="-6.3675770">
        <ele>416.6</ele>
        <time>2019-07-09T16:10:52Z</time>
      </trkpt>
      <trkpt lat="39.8068050" lon="-6.3676000">
        <ele>416.0</ele>
        <time>2019-07-09T16:10:53Z</time>
      </trkpt>
      <trkpt lat="39.8066870" lon="-6.3676270">
        <ele>415.6</ele>
        <time>2019-07-09T16:10:54Z</time>
      </trkpt>
      <trkpt lat="39.8064500" lon="-6.3676820">
        <ele>414.4</ele>
        <time>2019-07-09T16:10:56Z</time>
      </trkpt>
      <trkpt lat="39.8062160" lon="-6.3677470">
        <ele>413.0</ele>
        <time>2019-07-09T16:10:58Z</time>
      </trkpt>
      <trkpt lat="39.8058640" lon="-6.3678330">
        <ele>411.6</ele>
        <time>2019-07-09T16:11:01Z</time>
      </trkpt>
      <trkpt lat="39.8057480" lon="-6.3678620">
        <ele>410.8</ele>
        <time>2019-07-09T16:11:02Z</time>
      </trkpt>
      <trkpt lat="39.8056310" lon="-6.3678930">
        <ele>410.2</ele>
        <time>2019-07-09T16:11:03Z</time>
      </trkpt>
      <trkpt lat="39.8053970" lon="-6.3679520">
        <ele>409.2</ele>
        <time>2019-07-09T16:11:05Z</time>
      </trkpt>
      <trkpt lat="39.8052790" lon="-6.3679820">
        <ele>408.6</ele>
        <time>2019-07-09T16:11:06Z</time>
      </trkpt>
      <trkpt lat="39.8050410" lon="-6.3680440">
        <ele>407.6</ele>
        <time>2019-07-09T16:11:08Z</time>
      </trkpt>
      <trkpt lat="39.8048020" lon="-6.3681050">
        <ele>406.2</ele>
        <time>2019-07-09T16:11:10Z</time>
      </trkpt>
      <trkpt lat="39.8045630" lon="-6.3681640">
        <ele>405.2</ele>
        <time>2019-07-09T16:11:12Z</time>
      </trkpt>
      <trkpt lat="39.8044440" lon="-6.3681960">
        <ele>404.8</ele>
        <time>2019-07-09T16:11:13Z</time>
      </trkpt>
      <trkpt lat="39.8042150" lon="-6.3682650">
        <ele>404.0</ele>
        <time>2019-07-09T16:11:15Z</time>
      </trkpt>
      <trkpt lat="39.8037790" lon="-6.3683720">
        <ele>403.2</ele>
        <time>2019-07-09T16:11:19Z</time>
      </trkpt>
      <trkpt lat="39.8036760" lon="-6.3683970">
        <ele>402.8</ele>
        <time>2019-07-09T16:11:20Z</time>
      </trkpt>
      <trkpt lat="39.8032800" lon="-6.3685010">
        <ele>401.8</ele>
        <time>2019-07-09T16:11:24Z</time>
      </trkpt>
      <trkpt lat="39.8031830" lon="-6.3685240">
        <ele>401.8</ele>
        <time>2019-07-09T16:11:25Z</time>
      </trkpt>
      <trkpt lat="39.8030880" lon="-6.3685500">
        <ele>401.6</ele>
        <time>2019-07-09T16:11:26Z</time>
      </trkpt>
      <trkpt lat="39.8025620" lon="-6.3687690">
        <ele>400.8</ele>
        <time>2019-07-09T16:11:32Z</time>
      </trkpt>
      <trkpt lat="39.8024830" lon="-6.3688190">
        <ele>400.6</ele>
        <time>2019-07-09T16:11:33Z</time>
      </trkpt>
      <trkpt lat="39.8022710" lon="-6.3689970">
        <ele>400.4</ele>
        <time>2019-07-09T16:11:36Z</time>
      </trkpt>
      <trkpt lat="39.8020780" lon="-6.3691750">
        <ele>399.8</ele>
        <time>2019-07-09T16:11:39Z</time>
      </trkpt>
      <trkpt lat="39.8020200" lon="-6.3692380">
        <ele>399.6</ele>
        <time>2019-07-09T16:11:40Z</time>
      </trkpt>
      <trkpt lat="39.8019180" lon="-6.3693770">
        <ele>399.2</ele>
        <time>2019-07-09T16:11:42Z</time>
      </trkpt>
      <trkpt lat="39.8017390" lon="-6.3696620">
        <ele>398.6</ele>
        <time>2019-07-09T16:11:46Z</time>
      </trkpt>
      <trkpt lat="39.8016540" lon="-6.3698060">
        <ele>398.4</ele>
        <time>2019-07-09T16:11:48Z</time>
      </trkpt>
      <trkpt lat="39.8015810" lon="-6.3699640">
        <ele>398.0</ele>
        <time>2019-07-09T16:11:50Z</time>
      </trkpt>
      <trkpt lat="39.8014440" lon="-6.3702950">
        <ele>397.4</ele>
        <time>2019-07-09T16:11:54Z</time>
      </trkpt>
      <trkpt lat="39.8013480" lon="-6.3705390">
        <ele>397.4</ele>
        <time>2019-07-09T16:11:57Z</time>
      </trkpt>
      <trkpt lat="39.8010910" lon="-6.3711500">
        <ele>396.8</ele>
        <time>2019-07-09T16:12:05Z</time>
      </trkpt>
      <trkpt lat="39.8009790" lon="-6.3714260">
        <ele>396.8</ele>
        <time>2019-07-09T16:12:09Z</time>
      </trkpt>
      <trkpt lat="39.8008930" lon="-6.3716230">
        <ele>396.8</ele>
        <time>2019-07-09T16:12:12Z</time>
      </trkpt>
      <trkpt lat="39.8008040" lon="-6.3718100">
        <ele>396.6</ele>
        <time>2019-07-09T16:12:15Z</time>
      </trkpt>
      <trkpt lat="39.8006860" lon="-6.3720560">
        <ele>396.8</ele>
        <time>2019-07-09T16:12:19Z</time>
      </trkpt>
      <trkpt lat="39.8005690" lon="-6.3722870">
        <ele>396.8</ele>
        <time>2019-07-09T16:12:23Z</time>
      </trkpt>
      <trkpt lat="39.8004600" lon="-6.3724350">
        <ele>397.0</ele>
        <time>2019-07-09T16:12:26Z</time>
      </trkpt>
      <trkpt lat="39.8000780" lon="-6.3728460">
        <ele>396.8</ele>
        <time>2019-07-09T16:12:35Z</time>
      </trkpt>
      <trkpt lat="39.7999440" lon="-6.3729720">
        <ele>397.0</ele>
        <time>2019-07-09T16:12:38Z</time>
      </trkpt>
      <trkpt lat="39.7997940" lon="-6.3730690">
        <ele>397.0</ele>
        <time>2019-07-09T16:12:41Z</time>
      </trkpt>
      <trkpt lat="39.7993700" lon="-6.3733000">
        <ele>397.2</ele>
        <time>2019-07-09T16:12:49Z</time>
      </trkpt>
      <trkpt lat="39.7988830" lon="-6.3735670">
        <ele>397.6</ele>
        <time>2019-07-09T16:12:58Z</time>
      </trkpt>
      <trkpt lat="39.7986640" lon="-6.3736890">
        <ele>397.4</ele>
        <time>2019-07-09T16:13:02Z</time>
      </trkpt>
      <trkpt lat="39.7983320" lon="-6.3738670">
        <ele>397.0</ele>
        <time>2019-07-09T16:13:08Z</time>
      </trkpt>
      <trkpt lat="39.7981670" lon="-6.3739580">
        <ele>396.8</ele>
        <time>2019-07-09T16:13:11Z</time>
      </trkpt>
      <trkpt lat="39.7980590" lon="-6.3740250">
        <ele>396.6</ele>
        <time>2019-07-09T16:13:13Z</time>
      </trkpt>
      <trkpt lat="39.7978400" lon="-6.3741560">
        <ele>396.4</ele>
        <time>2019-07-09T16:13:17Z</time>
      </trkpt>
      <trkpt lat="39.7975890" lon="-6.3743910">
        <ele>396.2</ele>
        <time>2019-07-09T16:13:22Z</time>
      </trkpt>
      <trkpt lat="39.7974820" lon="-6.3744940">
        <ele>396.2</ele>
        <time>2019-07-09T16:13:23Z</time>
      </trkpt>
      <trkpt lat="39.7972520" lon="-6.3748040">
        <ele>395.6</ele>
        <time>2019-07-09T16:13:29Z</time>
      </trkpt>
      <trkpt lat="39.7970890" lon="-6.3750730">
        <ele>394.6</ele>
        <time>2019-07-09T16:13:33Z</time>
      </trkpt>
      <trkpt lat="39.7970560" lon="-6.3751500">
        <ele>394.4</ele>
        <time>2019-07-09T16:13:34Z</time>
      </trkpt>
      <trkpt lat="39.7970280" lon="-6.3752310">
        <ele>394.2</ele>
        <time>2019-07-09T16:13:35Z</time>
      </trkpt>
      <trkpt lat="39.7968970" lon="-6.3756670">
        <ele>393.4</ele>
        <time>2019-07-09T16:13:40Z</time>
      </trkpt>
      <trkpt lat="39.7968240" lon="-6.3759440">
        <ele>392.6</ele>
        <time>2019-07-09T16:13:43Z</time>
      </trkpt>
      <trkpt lat="39.7968040" lon="-6.3760410">
        <ele>392.4</ele>
        <time>2019-07-09T16:13:44Z</time>
      </trkpt>
      <trkpt lat="39.7966990" lon="-6.3766390">
        <ele>391.2</ele>
        <time>2019-07-09T16:13:50Z</time>
      </trkpt>
      <trkpt lat="39.7966810" lon="-6.3767400">
        <ele>390.4</ele>
        <time>2019-07-09T16:13:51Z</time>
      </trkpt>
      <trkpt lat="39.7966620" lon="-6.3768400">
        <ele>389.6</ele>
        <time>2019-07-09T16:13:52Z</time>
      </trkpt>
      <trkpt lat="39.7965850" lon="-6.3772280">
        <ele>388.6</ele>
        <time>2019-07-09T16:13:56Z</time>
      </trkpt>
      <trkpt lat="39.7965550" lon="-6.3774150">
        <ele>388.4</ele>
        <time>2019-07-09T16:13:58Z</time>
      </trkpt>
      <trkpt lat="39.7964310" lon="-6.3779550">
        <ele>387.6</ele>
        <time>2019-07-09T16:14:04Z</time>
      </trkpt>
      <trkpt lat="39.7963770" lon="-6.3781320">
        <ele>387.6</ele>
        <time>2019-07-09T16:14:05Z</time>
      </trkpt>
      <trkpt lat="39.7962010" lon="-6.3786500">
        <ele>386.6</ele>
        <time>2019-07-09T16:14:11Z</time>
      </trkpt>
      <trkpt lat="39.7961090" lon="-6.3789010">
        <ele>385.8</ele>
        <time>2019-07-09T16:14:15Z</time>
      </trkpt>
      <trkpt lat="39.7960470" lon="-6.3790650">
        <ele>385.4</ele>
        <time>2019-07-09T16:14:17Z</time>
      </trkpt>
      <trkpt lat="39.7959560" lon="-6.3793120">
        <ele>385.4</ele>
        <time>2019-07-09T16:14:20Z</time>
      </trkpt>
      <trkpt lat="39.7958920" lon="-6.3794750">
        <ele>385.2</ele>
        <time>2019-07-09T16:14:22Z</time>
      </trkpt>
      <trkpt lat="39.7958310" lon="-6.3796370">
        <ele>384.8</ele>
        <time>2019-07-09T16:14:24Z</time>
      </trkpt>
      <trkpt lat="39.7957710" lon="-6.3797960">
        <ele>384.6</ele>
        <time>2019-07-09T16:14:26Z</time>
      </trkpt>
      <trkpt lat="39.7957410" lon="-6.3798760">
        <ele>384.4</ele>
        <time>2019-07-09T16:14:27Z</time>
      </trkpt>
      <trkpt lat="39.7956240" lon="-6.3801940">
        <ele>383.6</ele>
        <time>2019-07-09T16:14:31Z</time>
      </trkpt>
      <trkpt lat="39.7955420" lon="-6.3804420">
        <ele>382.8</ele>
        <time>2019-07-09T16:14:34Z</time>
      </trkpt>
      <trkpt lat="39.7955130" lon="-6.3805280">
        <ele>382.4</ele>
        <time>2019-07-09T16:14:35Z</time>
      </trkpt>
      <trkpt lat="39.7954850" lon="-6.3806150">
        <ele>382.2</ele>
        <time>2019-07-09T16:14:36Z</time>
      </trkpt>
      <trkpt lat="39.7954100" lon="-6.3808970">
        <ele>381.2</ele>
        <time>2019-07-09T16:14:39Z</time>
      </trkpt>
      <trkpt lat="39.7953750" lon="-6.3812140">
        <ele>380.8</ele>
        <time>2019-07-09T16:14:41Z</time>
      </trkpt>
      <trkpt lat="39.7953730" lon="-6.3813230">
        <ele>380.2</ele>
        <time>2019-07-09T16:14:43Z</time>
      </trkpt>
      <trkpt lat="39.7954010" lon="-6.3816580">
        <ele>379.2</ele>
        <time>2019-07-09T16:14:46Z</time>
      </trkpt>
      <trkpt lat="39.7954140" lon="-6.3817720">
        <ele>379.0</ele>
        <time>2019-07-09T16:14:47Z</time>
      </trkpt>
      <trkpt lat="39.7954510" lon="-6.3821180">
        <ele>378.0</ele>
        <time>2019-07-09T16:14:50Z</time>
      </trkpt>
      <trkpt lat="39.7955160" lon="-6.3825920">
        <ele>376.8</ele>
        <time>2019-07-09T16:14:53Z</time>
      </trkpt>
      <trkpt lat="39.7955270" lon="-6.3827140">
        <ele>376.4</ele>
        <time>2019-07-09T16:14:54Z</time>
      </trkpt>
      <trkpt lat="39.7955370" lon="-6.3828360">
        <ele>375.6</ele>
        <time>2019-07-09T16:14:56Z</time>
      </trkpt>
      <trkpt lat="39.7955390" lon="-6.3832050">
        <ele>374.4</ele>
        <time>2019-07-09T16:14:59Z</time>
      </trkpt>
      <trkpt lat="39.7955220" lon="-6.3833280">
        <ele>374.0</ele>
        <time>2019-07-09T16:15:00Z</time>
      </trkpt>
      <trkpt lat="39.7954550" lon="-6.3835630">
        <ele>373.2</ele>
        <time>2019-07-09T16:15:02Z</time>
      </trkpt>
      <trkpt lat="39.7954100" lon="-6.3836760">
        <ele>372.8</ele>
        <time>2019-07-09T16:15:03Z</time>
      </trkpt>
      <trkpt lat="39.7953610" lon="-6.3837870">
        <ele>372.2</ele>
        <time>2019-07-09T16:15:04Z</time>
      </trkpt>
      <trkpt lat="39.7953070" lon="-6.3838990">
        <ele>371.4</ele>
        <time>2019-07-09T16:15:05Z</time>
      </trkpt>
      <trkpt lat="39.7952000" lon="-6.3841220">
        <ele>370.2</ele>
        <time>2019-07-09T16:15:07Z</time>
      </trkpt>
      <trkpt lat="39.7950830" lon="-6.3843420">
        <ele>369.0</ele>
        <time>2019-07-09T16:15:09Z</time>
      </trkpt>
      <trkpt lat="39.7950240" lon="-6.3844510">
        <ele>368.8</ele>
        <time>2019-07-09T16:15:10Z</time>
      </trkpt>
      <trkpt lat="39.7948480" lon="-6.3847750">
        <ele>368.0</ele>
        <time>2019-07-09T16:15:13Z</time>
      </trkpt>
      <trkpt lat="39.7946250" lon="-6.3851940">
        <ele>366.8</ele>
        <time>2019-07-09T16:15:17Z</time>
      </trkpt>
      <trkpt lat="39.7945170" lon="-6.3853980">
        <ele>366.2</ele>
        <time>2019-07-09T16:15:19Z</time>
      </trkpt>
      <trkpt lat="39.7944120" lon="-6.3856020">
        <ele>365.4</ele>
        <time>2019-07-09T16:15:21Z</time>
      </trkpt>
      <trkpt lat="39.7942440" lon="-6.3858960">
        <ele>364.2</ele>
        <time>2019-07-09T16:15:24Z</time>
      </trkpt>
      <trkpt lat="39.7941340" lon="-6.3860940">
        <ele>363.6</ele>
        <time>2019-07-09T16:15:26Z</time>
      </trkpt>
      <trkpt lat="39.7940260" lon="-6.3862860">
        <ele>363.2</ele>
        <time>2019-07-09T16:15:28Z</time>
      </trkpt>
      <trkpt lat="39.7938240" lon="-6.3866240">
        <ele>362.8</ele>
        <time>2019-07-09T16:15:32Z</time>
      </trkpt>
      <trkpt lat="39.7936190" lon="-6.3869880">
        <ele>362.6</ele>
        <time>2019-07-09T16:15:37Z</time>
      </trkpt>
      <trkpt lat="39.7934720" lon="-6.3872380">
        <ele>362.6</ele>
        <time>2019-07-09T16:15:41Z</time>
      </trkpt>
      <trkpt lat="39.7933740" lon="-6.3874280">
        <ele>362.6</ele>
        <time>2019-07-09T16:15:44Z</time>
      </trkpt>
      <trkpt lat="39.7933410" lon="-6.3874900">
        <ele>362.6</ele>
        <time>2019-07-09T16:15:45Z</time>
      </trkpt>
      <trkpt lat="39.7932730" lon="-6.3876090">
        <ele>362.6</ele>
        <time>2019-07-09T16:15:47Z</time>
      </trkpt>
      <trkpt lat="39.7931370" lon="-6.3878230">
        <ele>362.8</ele>
        <time>2019-07-09T16:15:51Z</time>
      </trkpt>
      <trkpt lat="39.7931120" lon="-6.3878790">
        <ele>362.8</ele>
        <time>2019-07-09T16:15:52Z</time>
      </trkpt>
      <trkpt lat="39.7929130" lon="-6.3883710">
        <ele>363.4</ele>
        <time>2019-07-09T16:16:01Z</time>
      </trkpt>
      <trkpt lat="39.7928360" lon="-6.3887380">
        <ele>363.8</ele>
        <time>2019-07-09T16:16:08Z</time>
      </trkpt>
      <trkpt lat="39.7928230" lon="-6.3888720">
        <ele>363.8</ele>
        <time>2019-07-09T16:16:11Z</time>
      </trkpt>
      <trkpt lat="39.7928190" lon="-6.3890860">
        <ele>364.0</ele>
        <time>2019-07-09T16:16:16Z</time>
      </trkpt>
      <trkpt lat="39.7928400" lon="-6.3892280">
        <ele>364.0</ele>
        <time>2019-07-09T16:16:19Z</time>
      </trkpt>
      <trkpt lat="39.7928630" lon="-6.3894840">
        <ele>364.2</ele>
        <time>2019-07-09T16:16:23Z</time>
      </trkpt>
      <trkpt lat="39.7928930" lon="-6.3897570">
        <ele>364.0</ele>
        <time>2019-07-09T16:16:29Z</time>
      </trkpt>
      <trkpt lat="39.7929040" lon="-6.3898690">
        <ele>364.0</ele>
        <time>2019-07-09T16:16:31Z</time>
      </trkpt>
      <trkpt lat="39.7929290" lon="-6.3900380">
        <ele>364.2</ele>
        <time>2019-07-09T16:16:34Z</time>
      </trkpt>
      <trkpt lat="39.7929490" lon="-6.3902700">
        <ele>364.2</ele>
        <time>2019-07-09T16:16:38Z</time>
      </trkpt>
      <trkpt lat="39.7929510" lon="-6.3903860">
        <ele>364.0</ele>
        <time>2019-07-09T16:16:40Z</time>
      </trkpt>
      <trkpt lat="39.7929120" lon="-6.3905460">
        <ele>364.0</ele>
        <time>2019-07-09T16:16:43Z</time>
      </trkpt>
      <trkpt lat="39.7928680" lon="-6.3906310">
        <ele>364.2</ele>
        <time>2019-07-09T16:16:45Z</time>
      </trkpt>
      <trkpt lat="39.7927620" lon="-6.3907600">
        <ele>364.4</ele>
        <time>2019-07-09T16:16:49Z</time>
      </trkpt>
      <trkpt lat="39.7925890" lon="-6.3908130">
        <ele>364.2</ele>
        <time>2019-07-09T16:16:54Z</time>
      </trkpt>
      <trkpt lat="39.7925530" lon="-6.3908190">
        <ele>364.2</ele>
        <time>2019-07-09T16:16:55Z</time>
      </trkpt>
      <trkpt lat="39.7924330" lon="-6.3908280">
        <ele>364.0</ele>
        <time>2019-07-09T16:16:58Z</time>
      </trkpt>
      <trkpt lat="39.7923630" lon="-6.3908270">
        <ele>363.8</ele>
        <time>2019-07-09T16:17:00Z</time>
      </trkpt>
      <trkpt lat="39.7923010" lon="-6.3908200">
        <ele>363.4</ele>
        <time>2019-07-09T16:17:02Z</time>
      </trkpt>
      <trkpt lat="39.7922670" lon="-6.3908170">
        <ele>363.4</ele>
        <time>2019-07-09T16:17:03Z</time>
      </trkpt>
      <trkpt lat="39.7921480" lon="-6.3908020">
        <ele>363.0</ele>
        <time>2019-07-09T16:17:06Z</time>
      </trkpt>
      <trkpt lat="39.7921050" lon="-6.3908080">
        <ele>363.0</ele>
        <time>2019-07-09T16:17:07Z</time>
      </trkpt>
      <trkpt lat="39.7920130" lon="-6.3908260">
        <ele>362.2</ele>
        <time>2019-07-09T16:17:09Z</time>
      </trkpt>
      <trkpt lat="39.7917940" lon="-6.3908770">
        <ele>361.4</ele>
        <time>2019-07-09T16:17:13Z</time>
      </trkpt>
      <trkpt lat="39.7917340" lon="-6.3908950">
        <ele>361.2</ele>
        <time>2019-07-09T16:17:14Z</time>
      </trkpt>
      <trkpt lat="39.7916140" lon="-6.3909470">
        <ele>360.8</ele>
        <time>2019-07-09T16:17:16Z</time>
      </trkpt>
      <trkpt lat="39.7914990" lon="-6.3910350">
        <ele>360.4</ele>
        <time>2019-07-09T16:17:18Z</time>
      </trkpt>
      <trkpt lat="39.7914480" lon="-6.3910930">
        <ele>360.0</ele>
        <time>2019-07-09T16:17:19Z</time>
      </trkpt>
      <trkpt lat="39.7912800" lon="-6.3913210">
        <ele>359.0</ele>
        <time>2019-07-09T16:17:23Z</time>
      </trkpt>
      <trkpt lat="39.7912440" lon="-6.3913700">
        <ele>358.8</ele>
        <time>2019-07-09T16:17:24Z</time>
      </trkpt>
      <trkpt lat="39.7911310" lon="-6.3915040">
        <ele>357.8</ele>
        <time>2019-07-09T16:17:28Z</time>
      </trkpt>
      <trkpt lat="39.7910910" lon="-6.3915400">
        <ele>357.6</ele>
        <time>2019-07-09T16:17:29Z</time>
      </trkpt>
      <trkpt lat="39.7910760" lon="-6.3915600">
        <ele>357.4</ele>
        <time>2019-07-09T16:17:31Z</time>
      </trkpt>
      <trkpt lat="39.7910400" lon="-6.3916080">
        <ele>357.0</ele>
        <time>2019-07-09T16:17:33Z</time>
      </trkpt>
      <trkpt lat="39.7909710" lon="-6.3917590">
        <ele>356.6</ele>
        <time>2019-07-09T16:17:37Z</time>
      </trkpt>
      <trkpt lat="39.7909460" lon="-6.3917970">
        <ele>356.4</ele>
        <time>2019-07-09T16:17:38Z</time>
      </trkpt>
      <trkpt lat="39.7909180" lon="-6.3918340">
        <ele>356.2</ele>
        <time>2019-07-09T16:17:39Z</time>
      </trkpt>
      <trkpt lat="39.7908040" lon="-6.3920120">
        <ele>355.8</ele>
        <time>2019-07-09T16:17:43Z</time>
      </trkpt>
      <trkpt lat="39.7901790" lon="-6.3921200">
        <ele>354.0</ele>
        <time>2019-07-09T16:18:46Z</time>
      </trkpt>
      <trkpt lat="39.7901990" lon="-6.3921190">
        <ele>354.0</ele>
        <time>2019-07-09T16:18:47Z</time>
      </trkpt>
      <trkpt lat="39.7895410" lon="-6.3919500">
        <ele>368.0</ele>
        <time>2019-07-10T04:43:16Z</time>
      </trkpt>
      <trkpt lat="39.7894890" lon="-6.3919630">
        <ele>367.8</ele>
        <time>2019-07-10T04:43:17Z</time>
      </trkpt>
      <trkpt lat="39.7894390" lon="-6.3919930">
        <ele>367.4</ele>
        <time>2019-07-10T04:43:18Z</time>
      </trkpt>
      <trkpt lat="39.7893910" lon="-6.3920340">
        <ele>367.6</ele>
        <time>2019-07-10T04:43:19Z</time>
      </trkpt>
      <trkpt lat="39.7892270" lon="-6.3922950">
        <ele>367.0</ele>
        <time>2019-07-10T04:43:23Z</time>
      </trkpt>
      <trkpt lat="39.7891890" lon="-6.3923650">
        <ele>366.8</ele>
        <time>2019-07-10T04:43:24Z</time>
      </trkpt>
      <trkpt lat="39.7890220" lon="-6.3926690">
        <ele>365.8</ele>
        <time>2019-07-10T04:43:28Z</time>
      </trkpt>
      <trkpt lat="39.7889320" lon="-6.3928340">
        <ele>365.4</ele>
        <time>2019-07-10T04:43:30Z</time>
      </trkpt>
      <trkpt lat="39.7888350" lon="-6.3930010">
        <ele>364.6</ele>
        <time>2019-07-10T04:43:32Z</time>
      </trkpt>
      <trkpt lat="39.7887300" lon="-6.3931550">
        <ele>363.8</ele>
        <time>2019-07-10T04:43:34Z</time>
      </trkpt>
      <trkpt lat="39.7886690" lon="-6.3932240">
        <ele>363.4</ele>
        <time>2019-07-10T04:43:35Z</time>
      </trkpt>
      <trkpt lat="39.7886010" lon="-6.3932860">
        <ele>363.0</ele>
        <time>2019-07-10T04:43:36Z</time>
      </trkpt>
      <trkpt lat="39.7883650" lon="-6.3934270">
        <ele>362.2</ele>
        <time>2019-07-10T04:43:39Z</time>
      </trkpt>
      <trkpt lat="39.7882810" lon="-6.3934680">
        <ele>362.0</ele>
        <time>2019-07-10T04:43:40Z</time>
      </trkpt>
      <trkpt lat="39.7881080" lon="-6.3935530">
        <ele>361.2</ele>
        <time>2019-07-10T04:43:42Z</time>
      </trkpt>
      <trkpt lat="39.7879070" lon="-6.3936610">
        <ele>359.8</ele>
        <time>2019-07-10T04:43:45Z</time>
      </trkpt>
      <trkpt lat="39.7878360" lon="-6.3936970">
        <ele>358.6</ele>
        <time>2019-07-10T04:43:47Z</time>
      </trkpt>
      <trkpt lat="39.7878220" lon="-6.3937000">
        <ele>358.2</ele>
        <time>2019-07-10T04:43:48Z</time>
      </trkpt>
      <trkpt lat="39.7878180" lon="-6.3937000">
        <ele>358.0</ele>
        <time>2019-07-10T04:43:50Z</time>
      </trkpt>
      <trkpt lat="39.7877950" lon="-6.3936670">
        <ele>357.6</ele>
        <time>2019-07-10T04:45:26Z</time>
      </trkpt>
      <trkpt lat="39.7877730" lon="-6.3936780">
        <ele>357.6</ele>
        <time>2019-07-10T04:45:27Z</time>
      </trkpt>
      <trkpt lat="39.7877110" lon="-6.3937020">
        <ele>357.4</ele>
        <time>2019-07-10T04:45:29Z</time>
      </trkpt>
      <trkpt lat="39.7875880" lon="-6.3937380">
        <ele>357.0</ele>
        <time>2019-07-10T04:45:32Z</time>
      </trkpt>
      <trkpt lat="39.7874960" lon="-6.3937870">
        <ele>356.6</ele>
        <time>2019-07-10T04:45:34Z</time>
      </trkpt>
      <trkpt lat="39.7873270" lon="-6.3938720">
        <ele>356.0</ele>
        <time>2019-07-10T04:45:37Z</time>
      </trkpt>
      <trkpt lat="39.7871310" lon="-6.3939550">
        <ele>355.4</ele>
        <time>2019-07-10T04:45:40Z</time>
      </trkpt>
      <trkpt lat="39.7869190" lon="-6.3940610">
        <ele>354.2</ele>
        <time>2019-07-10T04:45:43Z</time>
      </trkpt>
      <trkpt lat="39.7866050" lon="-6.3942070">
        <ele>353.2</ele>
        <time>2019-07-10T04:45:47Z</time>
      </trkpt>
      <trkpt lat="39.7863570" lon="-6.3943320">
        <ele>352.2</ele>
        <time>2019-07-10T04:45:50Z</time>
      </trkpt>
      <trkpt lat="39.7862710" lon="-6.3943730">
        <ele>351.8</ele>
        <time>2019-07-10T04:45:51Z</time>
      </trkpt>
      <trkpt lat="39.7860090" lon="-6.3944910">
        <ele>350.4</ele>
        <time>2019-07-10T04:45:54Z</time>
      </trkpt>
      <trkpt lat="39.7856420" lon="-6.3946050">
        <ele>349.0</ele>
        <time>2019-07-10T04:45:58Z</time>
      </trkpt>
      <trkpt lat="39.7853470" lon="-6.3946520">
        <ele>348.0</ele>
        <time>2019-07-10T04:46:01Z</time>
      </trkpt>
      <trkpt lat="39.7849410" lon="-6.3946900">
        <ele>346.4</ele>
        <time>2019-07-10T04:46:05Z</time>
      </trkpt>
      <trkpt lat="39.7848360" lon="-6.3946990">
        <ele>345.4</ele>
        <time>2019-07-10T04:46:06Z</time>
      </trkpt>
      <trkpt lat="39.7846240" lon="-6.3947170">
        <ele>344.0</ele>
        <time>2019-07-10T04:46:08Z</time>
      </trkpt>
      <trkpt lat="39.7844090" lon="-6.3947400">
        <ele>343.0</ele>
        <time>2019-07-10T04:46:10Z</time>
      </trkpt>
      <trkpt lat="39.7841910" lon="-6.3947650">
        <ele>341.8</ele>
        <time>2019-07-10T04:46:12Z</time>
      </trkpt>
      <trkpt lat="39.7839710" lon="-6.3947910">
        <ele>340.4</ele>
        <time>2019-07-10T04:46:14Z</time>
      </trkpt>
      <trkpt lat="39.7838600" lon="-6.3948040">
        <ele>340.2</ele>
        <time>2019-07-10T04:46:15Z</time>
      </trkpt>
      <trkpt lat="39.7836380" lon="-6.3948340">
        <ele>339.4</ele>
        <time>2019-07-10T04:46:17Z</time>
      </trkpt>
      <trkpt lat="39.7834270" lon="-6.3948810">
        <ele>338.2</ele>
        <time>2019-07-10T04:46:19Z</time>
      </trkpt>
      <trkpt lat="39.7833240" lon="-6.3949220">
        <ele>337.6</ele>
        <time>2019-07-10T04:46:20Z</time>
      </trkpt>
      <trkpt lat="39.7832260" lon="-6.3949790">
        <ele>337.0</ele>
        <time>2019-07-10T04:46:21Z</time>
      </trkpt>
      <trkpt lat="39.7830480" lon="-6.3951390">
        <ele>335.6</ele>
        <time>2019-07-10T04:46:23Z</time>
      </trkpt>
      <trkpt lat="39.7829680" lon="-6.3952370">
        <ele>334.8</ele>
        <time>2019-07-10T04:46:24Z</time>
      </trkpt>
      <trkpt lat="39.7828890" lon="-6.3953370">
        <ele>334.4</ele>
        <time>2019-07-10T04:46:25Z</time>
      </trkpt>
      <trkpt lat="39.7827330" lon="-6.3955420">
        <ele>333.2</ele>
        <time>2019-07-10T04:46:27Z</time>
      </trkpt>
      <trkpt lat="39.7825760" lon="-6.3957460">
        <ele>332.0</ele>
        <time>2019-07-10T04:46:29Z</time>
      </trkpt>
      <trkpt lat="39.7824290" lon="-6.3959650">
        <ele>330.6</ele>
        <time>2019-07-10T04:46:31Z</time>
      </trkpt>
      <trkpt lat="39.7822400" lon="-6.3963290">
        <ele>329.4</ele>
        <time>2019-07-10T04:46:34Z</time>
      </trkpt>
      <trkpt lat="39.7821200" lon="-6.3965790">
        <ele>327.8</ele>
        <time>2019-07-10T04:46:36Z</time>
      </trkpt>
      <trkpt lat="39.7820020" lon="-6.3968320">
        <ele>326.2</ele>
        <time>2019-07-10T04:46:38Z</time>
      </trkpt>
      <trkpt lat="39.7818800" lon="-6.3970840">
        <ele>325.2</ele>
        <time>2019-07-10T04:46:40Z</time>
      </trkpt>
      <trkpt lat="39.7817420" lon="-6.3973190">
        <ele>324.2</ele>
        <time>2019-07-10T04:46:42Z</time>
      </trkpt>
      <trkpt lat="39.7815950" lon="-6.3975460">
        <ele>323.2</ele>
        <time>2019-07-10T04:46:44Z</time>
      </trkpt>
      <trkpt lat="39.7814430" lon="-6.3977690">
        <ele>321.6</ele>
        <time>2019-07-10T04:46:46Z</time>
      </trkpt>
      <trkpt lat="39.7812930" lon="-6.3979950">
        <ele>320.4</ele>
        <time>2019-07-10T04:46:48Z</time>
      </trkpt>
      <trkpt lat="39.7811500" lon="-6.3982280">
        <ele>319.2</ele>
        <time>2019-07-10T04:46:50Z</time>
      </trkpt>
      <trkpt lat="39.7810270" lon="-6.3984780">
        <ele>318.4</ele>
        <time>2019-07-10T04:46:52Z</time>
      </trkpt>
      <trkpt lat="39.7809250" lon="-6.3987390">
        <ele>317.2</ele>
        <time>2019-07-10T04:46:54Z</time>
      </trkpt>
      <trkpt lat="39.7808300" lon="-6.3990010">
        <ele>316.0</ele>
        <time>2019-07-10T04:46:56Z</time>
      </trkpt>
      <trkpt lat="39.7806860" lon="-6.3993810">
        <ele>314.8</ele>
        <time>2019-07-10T04:46:59Z</time>
      </trkpt>
      <trkpt lat="39.7805530" lon="-6.3997480">
        <ele>313.8</ele>
        <time>2019-07-10T04:47:02Z</time>
      </trkpt>
      <trkpt lat="39.7805120" lon="-6.3998700">
        <ele>313.6</ele>
        <time>2019-07-10T04:47:03Z</time>
      </trkpt>
      <trkpt lat="39.7804000" lon="-6.4003810">
        <ele>312.4</ele>
        <time>2019-07-10T04:47:07Z</time>
      </trkpt>
      <trkpt lat="39.7803880" lon="-6.4007890">
        <ele>310.8</ele>
        <time>2019-07-10T04:47:10Z</time>
      </trkpt>
      <trkpt lat="39.7804010" lon="-6.4009250">
        <ele>310.6</ele>
        <time>2019-07-10T04:47:11Z</time>
      </trkpt>
      <trkpt lat="39.7804450" lon="-6.4011940">
        <ele>309.8</ele>
        <time>2019-07-10T04:47:13Z</time>
      </trkpt>
      <trkpt lat="39.7804840" lon="-6.4014580">
        <ele>308.8</ele>
        <time>2019-07-10T04:47:15Z</time>
      </trkpt>
      <trkpt lat="39.7805000" lon="-6.4015790">
        <ele>308.2</ele>
        <time>2019-07-10T04:47:16Z</time>
      </trkpt>
      <trkpt lat="39.7805230" lon="-6.4017730">
        <ele>307.4</ele>
        <time>2019-07-10T04:47:18Z</time>
      </trkpt>
      <trkpt lat="39.7805320" lon="-6.4018440">
        <ele>307.0</ele>
        <time>2019-07-10T04:47:19Z</time>
      </trkpt>
      <trkpt lat="39.7805510" lon="-6.4019470">
        <ele>306.4</ele>
        <time>2019-07-10T04:47:21Z</time>
      </trkpt>
      <trkpt lat="39.7805570" lon="-6.4019730">
        <ele>306.0</ele>
        <time>2019-07-10T04:47:22Z</time>
      </trkpt>
      <trkpt lat="39.7805590" lon="-6.4019790">
        <ele>305.6</ele>
        <time>2019-07-10T04:47:24Z</time>
      </trkpt>
      <trkpt lat="39.7805690" lon="-6.4019970">
        <ele>305.4</ele>
        <time>2019-07-10T04:47:59Z</time>
      </trkpt>
      <trkpt lat="39.7805700" lon="-6.4020250">
        <ele>305.2</ele>
        <time>2019-07-10T04:48:00Z</time>
      </trkpt>
      <trkpt lat="39.7805690" lon="-6.4020570">
        <ele>305.2</ele>
        <time>2019-07-10T04:48:01Z</time>
      </trkpt>
      <trkpt lat="39.7805610" lon="-6.4022360">
        <ele>305.2</ele>
        <time>2019-07-10T04:48:05Z</time>
      </trkpt>
      <trkpt lat="39.7805290" lon="-6.4026800">
        <ele>304.4</ele>
        <time>2019-07-10T04:48:12Z</time>
      </trkpt>
      <trkpt lat="39.7805200" lon="-6.4027550">
        <ele>304.0</ele>
        <time>2019-07-10T04:48:13Z</time>
      </trkpt>
      <trkpt lat="39.7804740" lon="-6.4030880">
        <ele>303.2</ele>
        <time>2019-07-10T04:48:17Z</time>
      </trkpt>
      <trkpt lat="39.7804440" lon="-6.4032660">
        <ele>302.8</ele>
        <time>2019-07-10T04:48:19Z</time>
      </trkpt>
      <trkpt lat="39.7803690" lon="-6.4036390">
        <ele>302.0</ele>
        <time>2019-07-10T04:48:23Z</time>
      </trkpt>
      <trkpt lat="39.7803080" lon="-6.4040340">
        <ele>301.2</ele>
        <time>2019-07-10T04:48:27Z</time>
      </trkpt>
      <trkpt lat="39.7802960" lon="-6.4041330">
        <ele>301.0</ele>
        <time>2019-07-10T04:48:28Z</time>
      </trkpt>
      <trkpt lat="39.7802410" lon="-6.4045140">
        <ele>300.4</ele>
        <time>2019-07-10T04:48:32Z</time>
      </trkpt>
      <trkpt lat="39.7801870" lon="-6.4046880">
        <ele>300.2</ele>
        <time>2019-07-10T04:48:34Z</time>
      </trkpt>
      <trkpt lat="39.7800640" lon="-6.4049140">
        <ele>300.0</ele>
        <time>2019-07-10T04:48:37Z</time>
      </trkpt>
      <trkpt lat="39.7800120" lon="-6.4049790">
        <ele>299.8</ele>
        <time>2019-07-10T04:48:38Z</time>
      </trkpt>
      <trkpt lat="39.7799590" lon="-6.4050430">
        <ele>299.8</ele>
        <time>2019-07-10T04:48:39Z</time>
      </trkpt>
      <trkpt lat="39.7797440" lon="-6.4053010">
        <ele>299.0</ele>
        <time>2019-07-10T04:48:43Z</time>
      </trkpt>
      <trkpt lat="39.7794670" lon="-6.4056280">
        <ele>298.4</ele>
        <time>2019-07-10T04:48:48Z</time>
      </trkpt>
      <trkpt lat="39.7793500" lon="-6.4057560">
        <ele>298.2</ele>
        <time>2019-07-10T04:48:50Z</time>
      </trkpt>
      <trkpt lat="39.7792910" lon="-6.4058210">
        <ele>298.0</ele>
        <time>2019-07-10T04:48:51Z</time>
      </trkpt>
      <trkpt lat="39.7791130" lon="-6.4060160">
        <ele>296.8</ele>
        <time>2019-07-10T04:48:54Z</time>
      </trkpt>
      <trkpt lat="39.7788790" lon="-6.4062840">
        <ele>296.0</ele>
        <time>2019-07-10T04:48:58Z</time>
      </trkpt>
      <trkpt lat="39.7788200" lon="-6.4063470">
        <ele>296.0</ele>
        <time>2019-07-10T04:48:59Z</time>
      </trkpt>
      <trkpt lat="39.7787620" lon="-6.4064100">
        <ele>295.8</ele>
        <time>2019-07-10T04:49:00Z</time>
      </trkpt>
      <trkpt lat="39.7784230" lon="-6.4067910">
        <ele>295.4</ele>
        <time>2019-07-10T04:49:06Z</time>
      </trkpt>
      <trkpt lat="39.7782130" lon="-6.4070340">
        <ele>295.0</ele>
        <time>2019-07-10T04:49:10Z</time>
      </trkpt>
      <trkpt lat="39.7781620" lon="-6.4070970">
        <ele>294.8</ele>
        <time>2019-07-10T04:49:11Z</time>
      </trkpt>
      <trkpt lat="39.7779010" lon="-6.4075030">
        <ele>294.4</ele>
        <time>2019-07-10T04:49:17Z</time>
      </trkpt>
      <trkpt lat="39.7776450" lon="-6.4080450">
        <ele>294.0</ele>
        <time>2019-07-10T04:49:24Z</time>
      </trkpt>
      <trkpt lat="39.7773880" lon="-6.4086450">
        <ele>293.0</ele>
        <time>2019-07-10T04:49:31Z</time>
      </trkpt>
      <trkpt lat="39.7773520" lon="-6.4087380">
        <ele>292.8</ele>
        <time>2019-07-10T04:49:32Z</time>
      </trkpt>
      <trkpt lat="39.7772360" lon="-6.4091320">
        <ele>292.0</ele>
        <time>2019-07-10T04:49:36Z</time>
      </trkpt>
      <trkpt lat="39.7772120" lon="-6.4092340">
        <ele>291.6</ele>
        <time>2019-07-10T04:49:37Z</time>
      </trkpt>
      <trkpt lat="39.7771420" lon="-6.4095480">
        <ele>290.8</ele>
        <time>2019-07-10T04:49:40Z</time>
      </trkpt>
      <trkpt lat="39.7771000" lon="-6.4098720">
        <ele>290.2</ele>
        <time>2019-07-10T04:49:43Z</time>
      </trkpt>
      <trkpt lat="39.7771020" lon="-6.4099830">
        <ele>290.0</ele>
        <time>2019-07-10T04:49:44Z</time>
      </trkpt>
      <trkpt lat="39.7771130" lon="-6.4100930">
        <ele>289.8</ele>
        <time>2019-07-10T04:49:45Z</time>
      </trkpt>
      <trkpt lat="39.7771840" lon="-6.4104030">
        <ele>289.0</ele>
        <time>2019-07-10T04:49:48Z</time>
      </trkpt>
      <trkpt lat="39.7772670" lon="-6.4107060">
        <ele>288.8</ele>
        <time>2019-07-10T04:49:51Z</time>
      </trkpt>
      <trkpt lat="39.7773440" lon="-6.4110070">
        <ele>288.0</ele>
        <time>2019-07-10T04:49:54Z</time>
      </trkpt>
      <trkpt lat="39.7773670" lon="-6.4111070">
        <ele>287.4</ele>
        <time>2019-07-10T04:49:55Z</time>
      </trkpt>
      <trkpt lat="39.7774190" lon="-6.4114100">
        <ele>286.8</ele>
        <time>2019-07-10T04:49:58Z</time>
      </trkpt>
      <trkpt lat="39.7774400" lon="-6.4116110">
        <ele>286.4</ele>
        <time>2019-07-10T04:50:00Z</time>
      </trkpt>
      <trkpt lat="39.7774770" lon="-6.4121000">
        <ele>286.0</ele>
        <time>2019-07-10T04:50:05Z</time>
      </trkpt>
      <trkpt lat="39.7774710" lon="-6.4122910">
        <ele>286.0</ele>
        <time>2019-07-10T04:50:07Z</time>
      </trkpt>
      <trkpt lat="39.7774570" lon="-6.4123830">
        <ele>286.0</ele>
        <time>2019-07-10T04:50:08Z</time>
      </trkpt>
      <trkpt lat="39.7774360" lon="-6.4124730">
        <ele>286.0</ele>
        <time>2019-07-10T04:50:09Z</time>
      </trkpt>
      <trkpt lat="39.7772930" lon="-6.4129110">
        <ele>285.6</ele>
        <time>2019-07-10T04:50:14Z</time>
      </trkpt>
      <trkpt lat="39.7772010" lon="-6.4131810">
        <ele>285.2</ele>
        <time>2019-07-10T04:50:17Z</time>
      </trkpt>
      <trkpt lat="39.7770070" lon="-6.4137120">
        <ele>284.6</ele>
        <time>2019-07-10T04:50:23Z</time>
      </trkpt>
      <trkpt lat="39.7768470" lon="-6.4141580">
        <ele>283.8</ele>
        <time>2019-07-10T04:50:28Z</time>
      </trkpt>
      <trkpt lat="39.7767550" lon="-6.4144290">
        <ele>283.4</ele>
        <time>2019-07-10T04:50:31Z</time>
      </trkpt>
      <trkpt lat="39.7765010" lon="-6.4151540">
        <ele>282.4</ele>
        <time>2019-07-10T04:50:39Z</time>
      </trkpt>
      <trkpt lat="39.7764700" lon="-6.4152430">
        <ele>282.4</ele>
        <time>2019-07-10T04:50:40Z</time>
      </trkpt>
      <trkpt lat="39.7762350" lon="-6.4158610">
        <ele>281.4</ele>
        <time>2019-07-10T04:50:47Z</time>
      </trkpt>
      <trkpt lat="39.7761930" lon="-6.4159450">
        <ele>281.2</ele>
        <time>2019-07-10T04:50:48Z</time>
      </trkpt>
      <trkpt lat="39.7759900" lon="-6.4162590">
        <ele>280.2</ele>
        <time>2019-07-10T04:50:52Z</time>
      </trkpt>
      <trkpt lat="39.7759320" lon="-6.4163310">
        <ele>280.2</ele>
        <time>2019-07-10T04:50:53Z</time>
      </trkpt>
      <trkpt lat="39.7755970" lon="-6.4166310">
        <ele>279.0</ele>
        <time>2019-07-10T04:50:58Z</time>
      </trkpt>
      <trkpt lat="39.7752330" lon="-6.4168800">
        <ele>278.0</ele>
        <time>2019-07-10T04:51:03Z</time>
      </trkpt>
      <trkpt lat="39.7749480" lon="-6.4170690">
        <ele>277.2</ele>
        <time>2019-07-10T04:51:07Z</time>
      </trkpt>
      <trkpt lat="39.7748780" lon="-6.4171180">
        <ele>277.0</ele>
        <time>2019-07-10T04:51:08Z</time>
      </trkpt>
      <trkpt lat="39.7743860" lon="-6.4174500">
        <ele>276.2</ele>
        <time>2019-07-10T04:51:15Z</time>
      </trkpt>
      <trkpt lat="39.7742490" lon="-6.4175540">
        <ele>275.8</ele>
        <time>2019-07-10T04:51:17Z</time>
      </trkpt>
      <trkpt lat="39.7739940" lon="-6.4178020">
        <ele>275.0</ele>
        <time>2019-07-10T04:51:21Z</time>
      </trkpt>
      <trkpt lat="39.7738760" lon="-6.4179410">
        <ele>274.6</ele>
        <time>2019-07-10T04:51:23Z</time>
      </trkpt>
      <trkpt lat="39.7735260" lon="-6.4183710">
        <ele>273.8</ele>
        <time>2019-07-10T04:51:29Z</time>
      </trkpt>
      <trkpt lat="39.7733520" lon="-6.4185830">
        <ele>273.6</ele>
        <time>2019-07-10T04:51:32Z</time>
      </trkpt>
      <trkpt lat="39.7730860" lon="-6.4189640">
        <ele>273.0</ele>
        <time>2019-07-10T04:51:37Z</time>
      </trkpt>
      <trkpt lat="39.7729860" lon="-6.4191230">
        <ele>272.6</ele>
        <time>2019-07-10T04:51:39Z</time>
      </trkpt>
      <trkpt lat="39.7727390" lon="-6.4195240">
        <ele>272.0</ele>
        <time>2019-07-10T04:51:44Z</time>
      </trkpt>
      <trkpt lat="39.7726890" lon="-6.4196010">
        <ele>271.8</ele>
        <time>2019-07-10T04:51:45Z</time>
      </trkpt>
      <trkpt lat="39.7725430" lon="-6.4198340">
        <ele>271.2</ele>
        <time>2019-07-10T04:51:48Z</time>
      </trkpt>
      <trkpt lat="39.7724040" lon="-6.4200720">
        <ele>270.8</ele>
        <time>2019-07-10T04:51:51Z</time>
      </trkpt>
      <trkpt lat="39.7720660" lon="-6.4206270">
        <ele>269.6</ele>
        <time>2019-07-10T04:51:58Z</time>
      </trkpt>
      <trkpt lat="39.7720190" lon="-6.4207090">
        <ele>269.6</ele>
        <time>2019-07-10T04:51:59Z</time>
      </trkpt>
      <trkpt lat="39.7718600" lon="-6.4210630">
        <ele>268.6</ele>
        <time>2019-07-10T04:52:03Z</time>
      </trkpt>
      <trkpt lat="39.7718330" lon="-6.4211560">
        <ele>268.6</ele>
        <time>2019-07-10T04:52:04Z</time>
      </trkpt>
      <trkpt lat="39.7717090" lon="-6.4218050">
        <ele>268.8</ele>
        <time>2019-07-10T04:52:11Z</time>
      </trkpt>
      <trkpt lat="39.7715960" lon="-6.4225160">
        <ele>268.6</ele>
        <time>2019-07-10T04:52:19Z</time>
      </trkpt>
      <trkpt lat="39.7715820" lon="-6.4226040">
        <ele>268.6</ele>
        <time>2019-07-10T04:52:20Z</time>
      </trkpt>
      <trkpt lat="39.7715360" lon="-6.4228660">
        <ele>268.4</ele>
        <time>2019-07-10T04:52:23Z</time>
      </trkpt>
      <trkpt lat="39.7714370" lon="-6.4232900">
        <ele>268.6</ele>
        <time>2019-07-10T04:52:28Z</time>
      </trkpt>
      <trkpt lat="39.7713380" lon="-6.4236060">
        <ele>268.8</ele>
        <time>2019-07-10T04:52:32Z</time>
      </trkpt>
      <trkpt lat="39.7712120" lon="-6.4239980">
        <ele>269.0</ele>
        <time>2019-07-10T04:52:37Z</time>
      </trkpt>
      <trkpt lat="39.7710610" lon="-6.4244590">
        <ele>269.2</ele>
        <time>2019-07-10T04:52:43Z</time>
      </trkpt>
      <trkpt lat="39.7709820" lon="-6.4246850">
        <ele>269.2</ele>
        <time>2019-07-10T04:52:46Z</time>
      </trkpt>
      <trkpt lat="39.7708010" lon="-6.4253480">
        <ele>268.6</ele>
        <time>2019-07-10T04:52:54Z</time>
      </trkpt>
      <trkpt lat="39.7707780" lon="-6.4255210">
        <ele>268.4</ele>
        <time>2019-07-10T04:52:56Z</time>
      </trkpt>
      <trkpt lat="39.7707120" lon="-6.4259500">
        <ele>268.2</ele>
        <time>2019-07-10T04:53:01Z</time>
      </trkpt>
      <trkpt lat="39.7706910" lon="-6.4260340">
        <ele>268.0</ele>
        <time>2019-07-10T04:53:02Z</time>
      </trkpt>
      <trkpt lat="39.7706350" lon="-6.4261940">
        <ele>267.8</ele>
        <time>2019-07-10T04:53:04Z</time>
      </trkpt>
      <trkpt lat="39.7705560" lon="-6.4263430">
        <ele>267.8</ele>
        <time>2019-07-10T04:53:06Z</time>
      </trkpt>
      <trkpt lat="39.7702800" lon="-6.4267830">
        <ele>267.0</ele>
        <time>2019-07-10T04:53:12Z</time>
      </trkpt>
      <trkpt lat="39.7700880" lon="-6.4270660">
        <ele>266.8</ele>
        <time>2019-07-10T04:53:16Z</time>
      </trkpt>
      <trkpt lat="39.7698600" lon="-6.4275290">
        <ele>266.4</ele>
        <time>2019-07-10T04:53:22Z</time>
      </trkpt>
      <trkpt lat="39.7698010" lon="-6.4277880">
        <ele>266.0</ele>
        <time>2019-07-10T04:53:25Z</time>
      </trkpt>
      <trkpt lat="39.7697330" lon="-6.4281400">
        <ele>265.2</ele>
        <time>2019-07-10T04:53:29Z</time>
      </trkpt>
      <trkpt lat="39.7696950" lon="-6.4283110">
        <ele>265.0</ele>
        <time>2019-07-10T04:53:31Z</time>
      </trkpt>
      <trkpt lat="39.7695950" lon="-6.4286050">
        <ele>265.0</ele>
        <time>2019-07-10T04:53:35Z</time>
      </trkpt>
      <trkpt lat="39.7695190" lon="-6.4287210">
        <ele>264.8</ele>
        <time>2019-07-10T04:53:37Z</time>
      </trkpt>
      <trkpt lat="39.7694790" lon="-6.4287730">
        <ele>264.8</ele>
        <time>2019-07-10T04:53:38Z</time>
      </trkpt>
      <trkpt lat="39.7694360" lon="-6.4288220">
        <ele>264.8</ele>
        <time>2019-07-10T04:53:39Z</time>
      </trkpt>
      <trkpt lat="39.7693910" lon="-6.4288680">
        <ele>264.8</ele>
        <time>2019-07-10T04:53:40Z</time>
      </trkpt>
      <trkpt lat="39.7691540" lon="-6.4291040">
        <ele>264.2</ele>
        <time>2019-07-10T04:53:45Z</time>
      </trkpt>
      <trkpt lat="39.7690530" lon="-6.4292080">
        <ele>264.0</ele>
        <time>2019-07-10T04:53:47Z</time>
      </trkpt>
      <trkpt lat="39.7685740" lon="-6.4296710">
        <ele>263.6</ele>
        <time>2019-07-10T04:53:56Z</time>
      </trkpt>
      <trkpt lat="39.7685200" lon="-6.4297210">
        <ele>263.6</ele>
        <time>2019-07-10T04:53:57Z</time>
      </trkpt>
      <trkpt lat="39.7680600" lon="-6.4301110">
        <ele>263.2</ele>
        <time>2019-07-10T04:54:05Z</time>
      </trkpt>
      <trkpt lat="39.7680010" lon="-6.4301580">
        <ele>263.0</ele>
        <time>2019-07-10T04:54:06Z</time>
      </trkpt>
      <trkpt lat="39.7675480" lon="-6.4305000">
        <ele>262.4</ele>
        <time>2019-07-10T04:54:14Z</time>
      </trkpt>
      <trkpt lat="39.7674330" lon="-6.4305600">
        <ele>262.4</ele>
        <time>2019-07-10T04:54:16Z</time>
      </trkpt>
      <trkpt lat="39.7671950" lon="-6.4306330">
        <ele>262.8</ele>
        <time>2019-07-10T04:54:20Z</time>
      </trkpt>
      <trkpt lat="39.7668180" lon="-6.4307200">
        <ele>262.0</ele>
        <time>2019-07-10T04:54:26Z</time>
      </trkpt>
      <trkpt lat="39.7667530" lon="-6.4307350">
        <ele>261.8</ele>
        <time>2019-07-10T04:54:27Z</time>
      </trkpt>
      <trkpt lat="39.7663510" lon="-6.4308350">
        <ele>261.0</ele>
        <time>2019-07-10T04:54:33Z</time>
      </trkpt>
      <trkpt lat="39.7662090" lon="-6.4308780">
        <ele>260.2</ele>
        <time>2019-07-10T04:54:35Z</time>
      </trkpt>
      <trkpt lat="39.7661340" lon="-6.4308960">
        <ele>259.8</ele>
        <time>2019-07-10T04:54:36Z</time>
      </trkpt>
      <trkpt lat="39.7657470" lon="-6.4309910">
        <ele>258.6</ele>
        <time>2019-07-10T04:54:41Z</time>
      </trkpt>
      <trkpt lat="39.7655050" lon="-6.4310730">
        <ele>257.8</ele>
        <time>2019-07-10T04:54:44Z</time>
      </trkpt>
      <trkpt lat="39.7652590" lon="-6.4311830">
        <ele>257.0</ele>
        <time>2019-07-10T04:54:47Z</time>
      </trkpt>
      <trkpt lat="39.7651770" lon="-6.4312280">
        <ele>256.6</ele>
        <time>2019-07-10T04:54:48Z</time>
      </trkpt>
      <trkpt lat="39.7650140" lon="-6.4313290">
        <ele>255.8</ele>
        <time>2019-07-10T04:54:50Z</time>
      </trkpt>
      <trkpt lat="39.7649340" lon="-6.4313870">
        <ele>255.4</ele>
        <time>2019-07-10T04:54:51Z</time>
      </trkpt>
      <trkpt lat="39.7647080" lon="-6.4315810">
        <ele>254.6</ele>
        <time>2019-07-10T04:54:54Z</time>
      </trkpt>
      <trkpt lat="39.7646390" lon="-6.4316530">
        <ele>254.4</ele>
        <time>2019-07-10T04:54:55Z</time>
      </trkpt>
      <trkpt lat="39.7645720" lon="-6.4317250">
        <ele>254.2</ele>
        <time>2019-07-10T04:54:56Z</time>
      </trkpt>
      <trkpt lat="39.7641930" lon="-6.4321390">
        <ele>253.2</ele>
        <time>2019-07-10T04:55:02Z</time>
      </trkpt>
      <trkpt lat="39.7641340" lon="-6.4322080">
        <ele>253.0</ele>
        <time>2019-07-10T04:55:03Z</time>
      </trkpt>
      <trkpt lat="39.7637330" lon="-6.4326380">
        <ele>252.8</ele>
        <time>2019-07-10T04:55:10Z</time>
      </trkpt>
      <trkpt lat="39.7634630" lon="-6.4329070">
        <ele>252.4</ele>
        <time>2019-07-10T04:55:15Z</time>
      </trkpt>
      <trkpt lat="39.7633430" lon="-6.4329990">
        <ele>252.2</ele>
        <time>2019-07-10T04:55:17Z</time>
      </trkpt>
      <trkpt lat="39.7632810" lon="-6.4330440">
        <ele>252.2</ele>
        <time>2019-07-10T04:55:18Z</time>
      </trkpt>
      <trkpt lat="39.7631520" lon="-6.4331310">
        <ele>252.0</ele>
        <time>2019-07-10T04:55:20Z</time>
      </trkpt>
      <trkpt lat="39.7630870" lon="-6.4331710">
        <ele>251.8</ele>
        <time>2019-07-10T04:55:21Z</time>
      </trkpt>
      <trkpt lat="39.7628180" lon="-6.4332980">
        <ele>251.6</ele>
        <time>2019-07-10T04:55:25Z</time>
      </trkpt>
      <trkpt lat="39.7626110" lon="-6.4333600">
        <ele>251.2</ele>
        <time>2019-07-10T04:55:28Z</time>
      </trkpt>
      <trkpt lat="39.7623990" lon="-6.4333860">
        <ele>250.8</ele>
        <time>2019-07-10T04:55:31Z</time>
      </trkpt>
      <trkpt lat="39.7621150" lon="-6.4333810">
        <ele>250.4</ele>
        <time>2019-07-10T04:55:35Z</time>
      </trkpt>
      <trkpt lat="39.7618340" lon="-6.4333320">
        <ele>250.2</ele>
        <time>2019-07-10T04:55:39Z</time>
      </trkpt>
      <trkpt lat="39.7613560" lon="-6.4331480">
        <ele>249.8</ele>
        <time>2019-07-10T04:55:46Z</time>
      </trkpt>
      <trkpt lat="39.7611530" lon="-6.4330510">
        <ele>249.6</ele>
        <time>2019-07-10T04:55:49Z</time>
      </trkpt>
      <trkpt lat="39.7610190" lon="-6.4329830">
        <ele>249.2</ele>
        <time>2019-07-10T04:55:51Z</time>
      </trkpt>
      <trkpt lat="39.7606830" lon="-6.4328170">
        <ele>248.8</ele>
        <time>2019-07-10T04:55:56Z</time>
      </trkpt>
      <trkpt lat="39.7604110" lon="-6.4326860">
        <ele>248.6</ele>
        <time>2019-07-10T04:56:00Z</time>
      </trkpt>
      <trkpt lat="39.7600760" lon="-6.4325200">
        <ele>248.2</ele>
        <time>2019-07-10T04:56:05Z</time>
      </trkpt>
      <trkpt lat="39.7600090" lon="-6.4324860">
        <ele>248.2</ele>
        <time>2019-07-10T04:56:06Z</time>
      </trkpt>
      <trkpt lat="39.7594800" lon="-6.4322190">
        <ele>247.4</ele>
        <time>2019-07-10T04:56:14Z</time>
      </trkpt>
      <trkpt lat="39.7593470" lon="-6.4321550">
        <ele>247.2</ele>
        <time>2019-07-10T04:56:16Z</time>
      </trkpt>
      <trkpt lat="39.7588140" lon="-6.4318910">
        <ele>247.0</ele>
        <time>2019-07-10T04:56:24Z</time>
      </trkpt>
      <trkpt lat="39.7586180" lon="-6.4317980">
        <ele>246.8</ele>
        <time>2019-07-10T04:56:27Z</time>
      </trkpt>
      <trkpt lat="39.7580600" lon="-6.4315280">
        <ele>247.0</ele>
        <time>2019-07-10T04:56:36Z</time>
      </trkpt>
      <trkpt lat="39.7579400" lon="-6.4314730">
        <ele>247.0</ele>
        <time>2019-07-10T04:56:38Z</time>
      </trkpt>
      <trkpt lat="39.7576470" lon="-6.4313480">
        <ele>247.2</ele>
        <time>2019-07-10T04:56:43Z</time>
      </trkpt>
      <trkpt lat="39.7574070" lon="-6.4312810">
        <ele>247.8</ele>
        <time>2019-07-10T04:56:47Z</time>
      </trkpt>
      <trkpt lat="39.7571100" lon="-6.4312340">
        <ele>248.2</ele>
        <time>2019-07-10T04:56:52Z</time>
      </trkpt>
      <trkpt lat="39.7569350" lon="-6.4312330">
        <ele>248.4</ele>
        <time>2019-07-10T04:56:55Z</time>
      </trkpt>
      <trkpt lat="39.7565460" lon="-6.4312700">
        <ele>248.8</ele>
        <time>2019-07-10T04:57:02Z</time>
      </trkpt>
      <trkpt lat="39.7561700" lon="-6.4313870">
        <ele>249.6</ele>
        <time>2019-07-10T04:57:09Z</time>
      </trkpt>
      <trkpt lat="39.7560650" lon="-6.4314280">
        <ele>249.8</ele>
        <time>2019-07-10T04:57:11Z</time>
      </trkpt>
      <trkpt lat="39.7557640" lon="-6.4315920">
        <ele>250.2</ele>
        <time>2019-07-10T04:57:17Z</time>
      </trkpt>
      <trkpt lat="39.7553850" lon="-6.4319040">
        <ele>250.4</ele>
        <time>2019-07-10T04:57:25Z</time>
      </trkpt>
      <trkpt lat="39.7549750" lon="-6.4323890">
        <ele>250.4</ele>
        <time>2019-07-10T04:57:34Z</time>
      </trkpt>
      <trkpt lat="39.7545790" lon="-6.4329280">
        <ele>250.4</ele>
        <time>2019-07-10T04:57:43Z</time>
      </trkpt>
      <trkpt lat="39.7544460" lon="-6.4331080">
        <ele>250.6</ele>
        <time>2019-07-10T04:57:46Z</time>
      </trkpt>
      <trkpt lat="39.7542690" lon="-6.4333490">
        <ele>250.2</ele>
        <time>2019-07-10T04:57:50Z</time>
      </trkpt>
      <trkpt lat="39.7539540" lon="-6.4337640">
        <ele>249.8</ele>
        <time>2019-07-10T04:57:57Z</time>
      </trkpt>
      <trkpt lat="39.7538150" lon="-6.4339450">
        <ele>249.8</ele>
        <time>2019-07-10T04:58:00Z</time>
      </trkpt>
      <trkpt lat="39.7536290" lon="-6.4341890">
        <ele>249.6</ele>
        <time>2019-07-10T04:58:04Z</time>
      </trkpt>
      <trkpt lat="39.7534480" lon="-6.4344320">
        <ele>249.6</ele>
        <time>2019-07-10T04:58:08Z</time>
      </trkpt>
      <trkpt lat="39.7530450" lon="-6.4349630">
        <ele>249.6</ele>
        <time>2019-07-10T04:58:17Z</time>
      </trkpt>
      <trkpt lat="39.7526420" lon="-6.4354740">
        <ele>249.4</ele>
        <time>2019-07-10T04:58:26Z</time>
      </trkpt>
      <trkpt lat="39.7525910" lon="-6.4355260">
        <ele>249.4</ele>
        <time>2019-07-10T04:58:27Z</time>
      </trkpt>
      <trkpt lat="39.7521060" lon="-6.4359780">
        <ele>249.4</ele>
        <time>2019-07-10T04:58:36Z</time>
      </trkpt>
      <trkpt lat="39.7516050" lon="-6.4363940">
        <ele>249.2</ele>
        <time>2019-07-10T04:58:45Z</time>
      </trkpt>
      <trkpt lat="39.7515510" lon="-6.4364400">
        <ele>249.2</ele>
        <time>2019-07-10T04:58:46Z</time>
      </trkpt>
      <trkpt lat="39.7514970" lon="-6.4364840">
        <ele>249.0</ele>
        <time>2019-07-10T04:58:47Z</time>
      </trkpt>
      <trkpt lat="39.7510100" lon="-6.4368820">
        <ele>248.2</ele>
        <time>2019-07-10T04:58:56Z</time>
      </trkpt>
      <trkpt lat="39.7508990" lon="-6.4369670">
        <ele>248.2</ele>
        <time>2019-07-10T04:58:58Z</time>
      </trkpt>
      <trkpt lat="39.7504430" lon="-6.4372550">
        <ele>248.4</ele>
        <time>2019-07-10T04:59:06Z</time>
      </trkpt>
      <trkpt lat="39.7501410" lon="-6.4373860">
        <ele>248.0</ele>
        <time>2019-07-10T04:59:11Z</time>
      </trkpt>
      <trkpt lat="39.7499520" lon="-6.4374590">
        <ele>248.0</ele>
        <time>2019-07-10T04:59:14Z</time>
      </trkpt>
      <trkpt lat="39.7498880" lon="-6.4374820">
        <ele>247.8</ele>
        <time>2019-07-10T04:59:15Z</time>
      </trkpt>
      <trkpt lat="39.7494460" lon="-6.4376370">
        <ele>247.6</ele>
        <time>2019-07-10T04:59:22Z</time>
      </trkpt>
      <trkpt lat="39.7488940" lon="-6.4378190">
        <ele>247.6</ele>
        <time>2019-07-10T04:59:31Z</time>
      </trkpt>
      <trkpt lat="39.7485450" lon="-6.4379680">
        <ele>247.2</ele>
        <time>2019-07-10T04:59:37Z</time>
      </trkpt>
      <trkpt lat="39.7482590" lon="-6.4381250">
        <ele>246.8</ele>
        <time>2019-07-10T04:59:42Z</time>
      </trkpt>
      <trkpt lat="39.7477480" lon="-6.4384730">
        <ele>246.8</ele>
        <time>2019-07-10T04:59:51Z</time>
      </trkpt>
      <trkpt lat="39.7476900" lon="-6.4385150">
        <ele>246.8</ele>
        <time>2019-07-10T04:59:52Z</time>
      </trkpt>
      <trkpt lat="39.7471700" lon="-6.4389030">
        <ele>246.6</ele>
        <time>2019-07-10T05:00:01Z</time>
      </trkpt>
      <trkpt lat="39.7469930" lon="-6.4390350">
        <ele>246.4</ele>
        <time>2019-07-10T05:00:04Z</time>
      </trkpt>
      <trkpt lat="39.7465300" lon="-6.4393870">
        <ele>246.4</ele>
        <time>2019-07-10T05:00:12Z</time>
      </trkpt>
      <trkpt lat="39.7464150" lon="-6.4394750">
        <ele>246.2</ele>
        <time>2019-07-10T05:00:14Z</time>
      </trkpt>
      <trkpt lat="39.7458930" lon="-6.4398700">
        <ele>245.6</ele>
        <time>2019-07-10T05:00:23Z</time>
      </trkpt>
      <trkpt lat="39.7457190" lon="-6.4400000">
        <ele>245.6</ele>
        <time>2019-07-10T05:00:26Z</time>
      </trkpt>
      <trkpt lat="39.7452450" lon="-6.4403510">
        <ele>245.6</ele>
        <time>2019-07-10T05:00:34Z</time>
      </trkpt>
      <trkpt lat="39.7451270" lon="-6.4404380">
        <ele>245.4</ele>
        <time>2019-07-10T05:00:36Z</time>
      </trkpt>
      <trkpt lat="39.7450700" lon="-6.4404830">
        <ele>245.2</ele>
        <time>2019-07-10T05:00:37Z</time>
      </trkpt>
      <trkpt lat="39.7445550" lon="-6.4408800">
        <ele>245.6</ele>
        <time>2019-07-10T05:00:46Z</time>
      </trkpt>
      <trkpt lat="39.7444980" lon="-6.4409220">
        <ele>245.6</ele>
        <time>2019-07-10T05:00:47Z</time>
      </trkpt>
      <trkpt lat="39.7439980" lon="-6.4412970">
        <ele>245.6</ele>
        <time>2019-07-10T05:00:56Z</time>
      </trkpt>
      <trkpt lat="39.7439430" lon="-6.4413380">
        <ele>245.6</ele>
        <time>2019-07-10T05:00:57Z</time>
      </trkpt>
      <trkpt lat="39.7434570" lon="-6.4417010">
        <ele>246.2</ele>
        <time>2019-07-10T05:01:06Z</time>
      </trkpt>
      <trkpt lat="39.7434020" lon="-6.4417420">
        <ele>246.2</ele>
        <time>2019-07-10T05:01:07Z</time>
      </trkpt>
      <trkpt lat="39.7431300" lon="-6.4419600">
        <ele>246.6</ele>
        <time>2019-07-10T05:01:12Z</time>
      </trkpt>
      <trkpt lat="39.7428630" lon="-6.4421700">
        <ele>247.0</ele>
        <time>2019-07-10T05:01:17Z</time>
      </trkpt>
      <trkpt lat="39.7423810" lon="-6.4425370">
        <ele>247.6</ele>
        <time>2019-07-10T05:01:26Z</time>
      </trkpt>
      <trkpt lat="39.7422720" lon="-6.4426200">
        <ele>247.8</ele>
        <time>2019-07-10T05:01:28Z</time>
      </trkpt>
      <trkpt lat="39.7418320" lon="-6.4429540">
        <ele>248.0</ele>
        <time>2019-07-10T05:01:36Z</time>
      </trkpt>
      <trkpt lat="39.7417220" lon="-6.4430370">
        <ele>248.0</ele>
        <time>2019-07-10T05:01:38Z</time>
      </trkpt>
      <trkpt lat="39.7412360" lon="-6.4434130">
        <ele>248.6</ele>
        <time>2019-07-10T05:01:47Z</time>
      </trkpt>
      <trkpt lat="39.7411830" lon="-6.4434530">
        <ele>248.6</ele>
        <time>2019-07-10T05:01:48Z</time>
      </trkpt>
      <trkpt lat="39.7411300" lon="-6.4434930">
        <ele>248.8</ele>
        <time>2019-07-10T05:01:49Z</time>
      </trkpt>
      <trkpt lat="39.7406540" lon="-6.4438610">
        <ele>249.2</ele>
        <time>2019-07-10T05:01:58Z</time>
      </trkpt>
      <trkpt lat="39.7401820" lon="-6.4442520">
        <ele>249.4</ele>
        <time>2019-07-10T05:02:07Z</time>
      </trkpt>
      <trkpt lat="39.7400800" lon="-6.4443450">
        <ele>249.4</ele>
        <time>2019-07-10T05:02:09Z</time>
      </trkpt>
      <trkpt lat="39.7399330" lon="-6.4444910">
        <ele>249.6</ele>
        <time>2019-07-10T05:02:12Z</time>
      </trkpt>
      <trkpt lat="39.7396470" lon="-6.4447800">
        <ele>249.8</ele>
        <time>2019-07-10T05:02:18Z</time>
      </trkpt>
      <trkpt lat="39.7394200" lon="-6.4450440">
        <ele>250.2</ele>
        <time>2019-07-10T05:02:23Z</time>
      </trkpt>
      <trkpt lat="39.7392850" lon="-6.4452150">
        <ele>250.4</ele>
        <time>2019-07-10T05:02:26Z</time>
      </trkpt>
      <trkpt lat="39.7388760" lon="-6.4457180">
        <ele>250.8</ele>
        <time>2019-07-10T05:02:35Z</time>
      </trkpt>
      <trkpt lat="39.7388320" lon="-6.4457740">
        <ele>250.8</ele>
        <time>2019-07-10T05:02:36Z</time>
      </trkpt>
      <trkpt lat="39.7386450" lon="-6.4459860">
        <ele>251.2</ele>
        <time>2019-07-10T05:02:40Z</time>
      </trkpt>
      <trkpt lat="39.7383590" lon="-6.4462910">
        <ele>251.6</ele>
        <time>2019-07-10T05:02:46Z</time>
      </trkpt>
      <trkpt lat="39.7379030" lon="-6.4466810">
        <ele>252.2</ele>
        <time>2019-07-10T05:02:55Z</time>
      </trkpt>
      <trkpt lat="39.7374490" lon="-6.4469440">
        <ele>252.0</ele>
        <time>2019-07-10T05:03:03Z</time>
      </trkpt>
      <trkpt lat="39.7373320" lon="-6.4470000">
        <ele>252.2</ele>
        <time>2019-07-10T05:03:05Z</time>
      </trkpt>
      <trkpt lat="39.7368490" lon="-6.4471910">
        <ele>253.0</ele>
        <time>2019-07-10T05:03:13Z</time>
      </trkpt>
      <trkpt lat="39.7362900" lon="-6.4473910">
        <ele>253.2</ele>
        <time>2019-07-10T05:03:22Z</time>
      </trkpt>
      <trkpt lat="39.7361660" lon="-6.4474340">
        <ele>253.2</ele>
        <time>2019-07-10T05:03:24Z</time>
      </trkpt>
      <trkpt lat="39.7357500" lon="-6.4475730">
        <ele>253.6</ele>
        <time>2019-07-10T05:03:31Z</time>
      </trkpt>
      <trkpt lat="39.7355990" lon="-6.4476350">
        <ele>253.6</ele>
        <time>2019-07-10T05:03:34Z</time>
      </trkpt>
      <trkpt lat="39.7353890" lon="-6.4477110">
        <ele>254.0</ele>
        <time>2019-07-10T05:03:38Z</time>
      </trkpt>
      <trkpt lat="39.7348220" lon="-6.4479030">
        <ele>254.6</ele>
        <time>2019-07-10T05:03:48Z</time>
      </trkpt>
      <trkpt lat="39.7342790" lon="-6.4481060">
        <ele>254.4</ele>
        <time>2019-07-10T05:03:57Z</time>
      </trkpt>
      <trkpt lat="39.7337430" lon="-6.4483900">
        <ele>254.2</ele>
        <time>2019-07-10T05:04:06Z</time>
      </trkpt>
      <trkpt lat="39.7332930" lon="-6.4487220">
        <ele>254.8</ele>
        <time>2019-07-10T05:04:14Z</time>
      </trkpt>
      <trkpt lat="39.7329720" lon="-6.4489930">
        <ele>255.0</ele>
        <time>2019-07-10T05:04:20Z</time>
      </trkpt>
      <trkpt lat="39.7328680" lon="-6.4490820">
        <ele>255.2</ele>
        <time>2019-07-10T05:04:22Z</time>
      </trkpt>
      <trkpt lat="39.7325940" lon="-6.4493300">
        <ele>256.2</ele>
        <time>2019-07-10T05:04:28Z</time>
      </trkpt>
      <trkpt lat="39.7325500" lon="-6.4493660">
        <ele>256.2</ele>
        <time>2019-07-10T05:04:29Z</time>
      </trkpt>
      <trkpt lat="39.7323870" lon="-6.4495200">
        <ele>257.2</ele>
        <time>2019-07-10T05:04:33Z</time>
      </trkpt>
      <trkpt lat="39.7322650" lon="-6.4496210">
        <ele>257.8</ele>
        <time>2019-07-10T05:04:36Z</time>
      </trkpt>
      <trkpt lat="39.7321480" lon="-6.4497190">
        <ele>258.2</ele>
        <time>2019-07-10T05:04:39Z</time>
      </trkpt>
      <trkpt lat="39.7319600" lon="-6.4498830">
        <ele>259.2</ele>
        <time>2019-07-10T05:04:44Z</time>
      </trkpt>
      <trkpt lat="39.7319230" lon="-6.4499140">
        <ele>259.4</ele>
        <time>2019-07-10T05:04:45Z</time>
      </trkpt>
      <trkpt lat="39.7317760" lon="-6.4500430">
        <ele>260.4</ele>
        <time>2019-07-10T05:04:49Z</time>
      </trkpt>
      <trkpt lat="39.7315940" lon="-6.4501930">
        <ele>261.4</ele>
        <time>2019-07-10T05:04:54Z</time>
      </trkpt>
      <trkpt lat="39.7315600" lon="-6.4502240">
        <ele>261.8</ele>
        <time>2019-07-10T05:04:55Z</time>
      </trkpt>
      <trkpt lat="39.7313440" lon="-6.4503830">
        <ele>262.8</ele>
        <time>2019-07-10T05:05:01Z</time>
      </trkpt>
      <trkpt lat="39.7313070" lon="-6.4504070">
        <ele>263.0</ele>
        <time>2019-07-10T05:05:02Z</time>
      </trkpt>
      <trkpt lat="39.7311040" lon="-6.4505010">
        <ele>264.0</ele>
        <time>2019-07-10T05:05:07Z</time>
      </trkpt>
      <trkpt lat="39.7310250" lon="-6.4505270">
        <ele>264.6</ele>
        <time>2019-07-10T05:05:09Z</time>
      </trkpt>
      <trkpt lat="39.7309070" lon="-6.4505480">
        <ele>265.2</ele>
        <time>2019-07-10T05:05:12Z</time>
      </trkpt>
      <trkpt lat="39.7307470" lon="-6.4505400">
        <ele>266.2</ele>
        <time>2019-07-10T05:05:16Z</time>
      </trkpt>
      <trkpt lat="39.7307080" lon="-6.4505350">
        <ele>266.4</ele>
        <time>2019-07-10T05:05:17Z</time>
      </trkpt>
      <trkpt lat="39.7305160" lon="-6.4504930">
        <ele>267.4</ele>
        <time>2019-07-10T05:05:22Z</time>
      </trkpt>
      <trkpt lat="39.7304780" lon="-6.4504720">
        <ele>267.4</ele>
        <time>2019-07-10T05:05:23Z</time>
      </trkpt>
      <trkpt lat="39.7302560" lon="-6.4503370">
        <ele>268.8</ele>
        <time>2019-07-10T05:05:29Z</time>
      </trkpt>
      <trkpt lat="39.7301610" lon="-6.4502530">
        <ele>269.4</ele>
        <time>2019-07-10T05:05:32Z</time>
      </trkpt>
      <trkpt lat="39.7300680" lon="-6.4501540">
        <ele>270.0</ele>
        <time>2019-07-10T05:05:35Z</time>
      </trkpt>
      <trkpt lat="39.7299280" lon="-6.4499970">
        <ele>271.0</ele>
        <time>2019-07-10T05:05:40Z</time>
      </trkpt>
      <trkpt lat="39.7299050" lon="-6.4499630">
        <ele>271.2</ele>
        <time>2019-07-10T05:05:41Z</time>
      </trkpt>
      <trkpt lat="39.7297290" lon="-6.4497050">
        <ele>271.8</ele>
        <time>2019-07-10T05:05:48Z</time>
      </trkpt>
      <trkpt lat="39.7296510" lon="-6.4495790">
        <ele>272.2</ele>
        <time>2019-07-10T05:05:51Z</time>
      </trkpt>
      <trkpt lat="39.7295420" lon="-6.4494270">
        <ele>273.2</ele>
        <time>2019-07-10T05:05:55Z</time>
      </trkpt>
      <trkpt lat="39.7294830" lon="-6.4493530">
        <ele>273.6</ele>
        <time>2019-07-10T05:05:57Z</time>
      </trkpt>
      <trkpt lat="39.7293580" lon="-6.4492230">
        <ele>274.4</ele>
        <time>2019-07-10T05:06:01Z</time>
      </trkpt>
      <trkpt lat="39.7292550" lon="-6.4491490">
        <ele>275.0</ele>
        <time>2019-07-10T05:06:04Z</time>
      </trkpt>
      <trkpt lat="39.7291480" lon="-6.4490880">
        <ele>275.6</ele>
        <time>2019-07-10T05:06:07Z</time>
      </trkpt>
      <trkpt lat="39.7289570" lon="-6.4490180">
        <ele>276.6</ele>
        <time>2019-07-10T05:06:12Z</time>
      </trkpt>
      <trkpt lat="39.7289170" lon="-6.4490080">
        <ele>276.6</ele>
        <time>2019-07-10T05:06:13Z</time>
      </trkpt>
      <trkpt lat="39.7286980" lon="-6.4489750">
        <ele>277.8</ele>
        <time>2019-07-10T05:06:19Z</time>
      </trkpt>
      <trkpt lat="39.7286630" lon="-6.4489710">
        <ele>278.0</ele>
        <time>2019-07-10T05:06:20Z</time>
      </trkpt>
      <trkpt lat="39.7284750" lon="-6.4489820">
        <ele>279.0</ele>
        <time>2019-07-10T05:06:25Z</time>
      </trkpt>
      <trkpt lat="39.7283950" lon="-6.4489830">
        <ele>279.4</ele>
        <time>2019-07-10T05:06:27Z</time>
      </trkpt>
      <trkpt lat="39.7282450" lon="-6.4489990">
        <ele>280.2</ele>
        <time>2019-07-10T05:06:31Z</time>
      </trkpt>
      <trkpt lat="39.7281370" lon="-6.4490020">
        <ele>281.0</ele>
        <time>2019-07-10T05:06:34Z</time>
      </trkpt>
      <trkpt lat="39.7280280" lon="-6.4490080">
        <ele>281.6</ele>
        <time>2019-07-10T05:06:37Z</time>
      </trkpt>
      <trkpt lat="39.7278410" lon="-6.4489920">
        <ele>282.6</ele>
        <time>2019-07-10T05:06:42Z</time>
      </trkpt>
      <trkpt lat="39.7275310" lon="-6.4489300">
        <ele>283.8</ele>
        <time>2019-07-10T05:06:50Z</time>
      </trkpt>
      <trkpt lat="39.7274530" lon="-6.4489080">
        <ele>284.2</ele>
        <time>2019-07-10T05:06:52Z</time>
      </trkpt>
      <trkpt lat="39.7272650" lon="-6.4488430">
        <ele>285.0</ele>
        <time>2019-07-10T05:06:57Z</time>
      </trkpt>
      <trkpt lat="39.7271900" lon="-6.4488230">
        <ele>285.2</ele>
        <time>2019-07-10T05:06:59Z</time>
      </trkpt>
      <trkpt lat="39.7270990" lon="-6.4487970">
        <ele>286.2</ele>
        <time>2019-07-10T05:07:02Z</time>
      </trkpt>
      <trkpt lat="39.7270440" lon="-6.4487770">
        <ele>286.6</ele>
        <time>2019-07-10T05:07:04Z</time>
      </trkpt>
      <trkpt lat="39.7268060" lon="-6.4487120">
        <ele>287.4</ele>
        <time>2019-07-10T05:07:11Z</time>
      </trkpt>
      <trkpt lat="39.7264030" lon="-6.4485920">
        <ele>288.2</ele>
        <time>2019-07-10T05:07:21Z</time>
      </trkpt>
      <trkpt lat="39.7262640" lon="-6.4485550">
        <ele>288.4</ele>
        <time>2019-07-10T05:07:24Z</time>
      </trkpt>
      <trkpt lat="39.7261160" lon="-6.4485100">
        <ele>288.2</ele>
        <time>2019-07-10T05:07:27Z</time>
      </trkpt>
      <trkpt lat="39.7259520" lon="-6.4484570">
        <ele>287.8</ele>
        <time>2019-07-10T05:07:30Z</time>
      </trkpt>
      <trkpt lat="39.7258930" lon="-6.4484390">
        <ele>287.8</ele>
        <time>2019-07-10T05:07:31Z</time>
      </trkpt>
      <trkpt lat="39.7258330" lon="-6.4484220">
        <ele>287.8</ele>
        <time>2019-07-10T05:07:32Z</time>
      </trkpt>
      <trkpt lat="39.7257040" lon="-6.4483870">
        <ele>287.2</ele>
        <time>2019-07-10T05:07:34Z</time>
      </trkpt>
      <trkpt lat="39.7254940" lon="-6.4483290">
        <ele>286.0</ele>
        <time>2019-07-10T05:07:37Z</time>
      </trkpt>
      <trkpt lat="39.7252660" lon="-6.4482630">
        <ele>285.0</ele>
        <time>2019-07-10T05:07:40Z</time>
      </trkpt>
      <trkpt lat="39.7251870" lon="-6.4482380">
        <ele>284.8</ele>
        <time>2019-07-10T05:07:41Z</time>
      </trkpt>
      <trkpt lat="39.7249390" lon="-6.4481620">
        <ele>283.6</ele>
        <time>2019-07-10T05:07:44Z</time>
      </trkpt>
      <trkpt lat="39.7247670" lon="-6.4481110">
        <ele>282.6</ele>
        <time>2019-07-10T05:07:46Z</time>
      </trkpt>
      <trkpt lat="39.7245890" lon="-6.4480700">
        <ele>281.8</ele>
        <time>2019-07-10T05:07:48Z</time>
      </trkpt>
      <trkpt lat="39.7244970" lon="-6.4480490">
        <ele>281.0</ele>
        <time>2019-07-10T05:07:49Z</time>
      </trkpt>
      <trkpt lat="39.7243050" lon="-6.4480160">
        <ele>280.0</ele>
        <time>2019-07-10T05:07:51Z</time>
      </trkpt>
      <trkpt lat="39.7241060" lon="-6.4480210">
        <ele>278.8</ele>
        <time>2019-07-10T05:07:53Z</time>
      </trkpt>
      <trkpt lat="39.7240040" lon="-6.4480410">
        <ele>278.2</ele>
        <time>2019-07-10T05:07:54Z</time>
      </trkpt>
      <trkpt lat="39.7239030" lon="-6.4480740">
        <ele>277.8</ele>
        <time>2019-07-10T05:07:55Z</time>
      </trkpt>
      <trkpt lat="39.7237030" lon="-6.4481600">
        <ele>276.8</ele>
        <time>2019-07-10T05:07:57Z</time>
      </trkpt>
      <trkpt lat="39.7236010" lon="-6.4482050">
        <ele>276.4</ele>
        <time>2019-07-10T05:07:58Z</time>
      </trkpt>
      <trkpt lat="39.7233980" lon="-6.4482920">
        <ele>275.4</ele>
        <time>2019-07-10T05:08:00Z</time>
      </trkpt>
      <trkpt lat="39.7231950" lon="-6.4483820">
        <ele>274.2</ele>
        <time>2019-07-10T05:08:02Z</time>
      </trkpt>
      <trkpt lat="39.7229910" lon="-6.4484730">
        <ele>273.0</ele>
        <time>2019-07-10T05:08:04Z</time>
      </trkpt>
      <trkpt lat="39.7227850" lon="-6.4485640">
        <ele>272.0</ele>
        <time>2019-07-10T05:08:06Z</time>
      </trkpt>
      <trkpt lat="39.7226820" lon="-6.4486110">
        <ele>271.4</ele>
        <time>2019-07-10T05:08:07Z</time>
      </trkpt>
      <trkpt lat="39.7225780" lon="-6.4486580">
        <ele>271.0</ele>
        <time>2019-07-10T05:08:08Z</time>
      </trkpt>
      <trkpt lat="39.7223670" lon="-6.4487510">
        <ele>269.6</ele>
        <time>2019-07-10T05:08:10Z</time>
      </trkpt>
      <trkpt lat="39.7221550" lon="-6.4488450">
        <ele>268.6</ele>
        <time>2019-07-10T05:08:12Z</time>
      </trkpt>
      <trkpt lat="39.7219420" lon="-6.4489390">
        <ele>267.6</ele>
        <time>2019-07-10T05:08:14Z</time>
      </trkpt>
      <trkpt lat="39.7217270" lon="-6.4490290">
        <ele>266.2</ele>
        <time>2019-07-10T05:08:16Z</time>
      </trkpt>
      <trkpt lat="39.7216190" lon="-6.4490680">
        <ele>265.0</ele>
        <time>2019-07-10T05:08:17Z</time>
      </trkpt>
      <trkpt lat="39.7215090" lon="-6.4490980">
        <ele>264.6</ele>
        <time>2019-07-10T05:08:18Z</time>
      </trkpt>
      <trkpt lat="39.7213980" lon="-6.4491140">
        <ele>264.0</ele>
        <time>2019-07-10T05:08:19Z</time>
      </trkpt>
      <trkpt lat="39.7211750" lon="-6.4491050">
        <ele>263.2</ele>
        <time>2019-07-10T05:08:21Z</time>
      </trkpt>
      <trkpt lat="39.7210650" lon="-6.4490810">
        <ele>262.6</ele>
        <time>2019-07-10T05:08:22Z</time>
      </trkpt>
      <trkpt lat="39.7208500" lon="-6.4489900">
        <ele>261.2</ele>
        <time>2019-07-10T05:08:24Z</time>
      </trkpt>
      <trkpt lat="39.7207480" lon="-6.4489270">
        <ele>260.4</ele>
        <time>2019-07-10T05:08:25Z</time>
      </trkpt>
      <trkpt lat="39.7206450" lon="-6.4488600">
        <ele>259.8</ele>
        <time>2019-07-10T05:08:26Z</time>
      </trkpt>
      <trkpt lat="39.7203390" lon="-6.4486700">
        <ele>258.4</ele>
        <time>2019-07-10T05:08:29Z</time>
      </trkpt>
      <trkpt lat="39.7202360" lon="-6.4486140">
        <ele>257.8</ele>
        <time>2019-07-10T05:08:30Z</time>
      </trkpt>
      <trkpt lat="39.7201320" lon="-6.4485650">
        <ele>257.0</ele>
        <time>2019-07-10T05:08:31Z</time>
      </trkpt>
      <trkpt lat="39.7199280" lon="-6.4485000">
        <ele>256.0</ele>
        <time>2019-07-10T05:08:33Z</time>
      </trkpt>
      <trkpt lat="39.7198280" lon="-6.4484870">
        <ele>255.8</ele>
        <time>2019-07-10T05:08:34Z</time>
      </trkpt>
      <trkpt lat="39.7194680" lon="-6.4485520">
        <ele>255.4</ele>
        <time>2019-07-10T05:08:38Z</time>
      </trkpt>
      <trkpt lat="39.7193900" lon="-6.4485890">
        <ele>255.4</ele>
        <time>2019-07-10T05:08:39Z</time>
      </trkpt>
      <trkpt lat="39.7190350" lon="-6.4487560">
        <ele>255.8</ele>
        <time>2019-07-10T05:08:44Z</time>
      </trkpt>
      <trkpt lat="39.7189000" lon="-6.4488220">
        <ele>255.8</ele>
        <time>2019-07-10T05:08:46Z</time>
      </trkpt>
      <trkpt lat="39.7187670" lon="-6.4488890">
        <ele>255.6</ele>
        <time>2019-07-10T05:08:48Z</time>
      </trkpt>
      <trkpt lat="39.7187010" lon="-6.4489220">
        <ele>255.8</ele>
        <time>2019-07-10T05:08:49Z</time>
      </trkpt>
      <trkpt lat="39.7185650" lon="-6.4489820">
        <ele>256.0</ele>
        <time>2019-07-10T05:08:51Z</time>
      </trkpt>
      <trkpt lat="39.7184300" lon="-6.4490380">
        <ele>256.2</ele>
        <time>2019-07-10T05:08:53Z</time>
      </trkpt>
      <trkpt lat="39.7181050" lon="-6.4491940">
        <ele>256.0</ele>
        <time>2019-07-10T05:08:58Z</time>
      </trkpt>
      <trkpt lat="39.7179780" lon="-6.4492520">
        <ele>256.0</ele>
        <time>2019-07-10T05:09:00Z</time>
      </trkpt>
      <trkpt lat="39.7177230" lon="-6.4493620">
        <ele>255.8</ele>
        <time>2019-07-10T05:09:04Z</time>
      </trkpt>
      <trkpt lat="39.7174700" lon="-6.4494890">
        <ele>256.0</ele>
        <time>2019-07-10T05:09:08Z</time>
      </trkpt>
      <trkpt lat="39.7169600" lon="-6.4497230">
        <ele>256.6</ele>
        <time>2019-07-10T05:09:16Z</time>
      </trkpt>
      <trkpt lat="39.7166500" lon="-6.4498610">
        <ele>256.0</ele>
        <time>2019-07-10T05:09:21Z</time>
      </trkpt>
      <trkpt lat="39.7163460" lon="-6.4500040">
        <ele>256.0</ele>
        <time>2019-07-10T05:09:26Z</time>
      </trkpt>
      <trkpt lat="39.7160470" lon="-6.4501370">
        <ele>255.6</ele>
        <time>2019-07-10T05:09:31Z</time>
      </trkpt>
      <trkpt lat="39.7155450" lon="-6.4503710">
        <ele>256.4</ele>
        <time>2019-07-10T05:09:40Z</time>
      </trkpt>
      <trkpt lat="39.7151400" lon="-6.4506470">
        <ele>256.8</ele>
        <time>2019-07-10T05:09:48Z</time>
      </trkpt>
      <trkpt lat="39.7149420" lon="-6.4509140">
        <ele>257.4</ele>
        <time>2019-07-10T05:09:53Z</time>
      </trkpt>
      <trkpt lat="39.7147870" lon="-6.4512870">
        <ele>258.6</ele>
        <time>2019-07-10T05:09:59Z</time>
      </trkpt>
      <trkpt lat="39.7145690" lon="-6.4518190">
        <ele>259.2</ele>
        <time>2019-07-10T05:10:08Z</time>
      </trkpt>
      <trkpt lat="39.7145100" lon="-6.4519300">
        <ele>259.6</ele>
        <time>2019-07-10T05:10:10Z</time>
      </trkpt>
      <trkpt lat="39.7144770" lon="-6.4519820">
        <ele>259.8</ele>
        <time>2019-07-10T05:10:11Z</time>
      </trkpt>
      <trkpt lat="39.7143680" lon="-6.4521220">
        <ele>260.2</ele>
        <time>2019-07-10T05:10:14Z</time>
      </trkpt>
      <trkpt lat="39.7140600" lon="-6.4523810">
        <ele>260.6</ele>
        <time>2019-07-10T05:10:21Z</time>
      </trkpt>
      <trkpt lat="39.7139130" lon="-6.4524560">
        <ele>260.8</ele>
        <time>2019-07-10T05:10:24Z</time>
      </trkpt>
      <trkpt lat="39.7137110" lon="-6.4525240">
        <ele>261.4</ele>
        <time>2019-07-10T05:10:28Z</time>
      </trkpt>
      <trkpt lat="39.7134090" lon="-6.4526030">
        <ele>262.2</ele>
        <time>2019-07-10T05:10:34Z</time>
      </trkpt>
      <trkpt lat="39.7132610" lon="-6.4526450">
        <ele>262.4</ele>
        <time>2019-07-10T05:10:37Z</time>
      </trkpt>
      <trkpt lat="39.7129680" lon="-6.4527300">
        <ele>263.2</ele>
        <time>2019-07-10T05:10:43Z</time>
      </trkpt>
      <trkpt lat="39.7128720" lon="-6.4527660">
        <ele>263.6</ele>
        <time>2019-07-10T05:10:45Z</time>
      </trkpt>
      <trkpt lat="39.7127350" lon="-6.4528380">
        <ele>264.0</ele>
        <time>2019-07-10T05:10:48Z</time>
      </trkpt>
      <trkpt lat="39.7126930" lon="-6.4528730">
        <ele>264.2</ele>
        <time>2019-07-10T05:10:49Z</time>
      </trkpt>
      <trkpt lat="39.7126510" lon="-6.4529140">
        <ele>264.2</ele>
        <time>2019-07-10T05:10:50Z</time>
      </trkpt>
      <trkpt lat="39.7124860" lon="-6.4530690">
        <ele>264.4</ele>
        <time>2019-07-10T05:10:54Z</time>
      </trkpt>
      <trkpt lat="39.7123730" lon="-6.4531960">
        <ele>264.8</ele>
        <time>2019-07-10T05:10:57Z</time>
      </trkpt>
      <trkpt lat="39.7122720" lon="-6.4533380">
        <ele>265.2</ele>
        <time>2019-07-10T05:11:00Z</time>
      </trkpt>
      <trkpt lat="39.7121410" lon="-6.4535260">
        <ele>265.8</ele>
        <time>2019-07-10T05:11:04Z</time>
      </trkpt>
      <trkpt lat="39.7120410" lon="-6.4536680">
        <ele>266.4</ele>
        <time>2019-07-10T05:11:07Z</time>
      </trkpt>
      <trkpt lat="39.7118430" lon="-6.4539570">
        <ele>267.4</ele>
        <time>2019-07-10T05:11:13Z</time>
      </trkpt>
      <trkpt lat="39.7118100" lon="-6.4540020">
        <ele>267.8</ele>
        <time>2019-07-10T05:11:14Z</time>
      </trkpt>
      <trkpt lat="39.7116450" lon="-6.4542330">
        <ele>268.6</ele>
        <time>2019-07-10T05:11:19Z</time>
      </trkpt>
      <trkpt lat="39.7115400" lon="-6.4543630">
        <ele>269.2</ele>
        <time>2019-07-10T05:11:22Z</time>
      </trkpt>
      <trkpt lat="39.7114630" lon="-6.4544430">
        <ele>269.6</ele>
        <time>2019-07-10T05:11:24Z</time>
      </trkpt>
      <trkpt lat="39.7112200" lon="-6.4546670">
        <ele>270.4</ele>
        <time>2019-07-10T05:11:30Z</time>
      </trkpt>
      <trkpt lat="39.7110900" lon="-6.4547630">
        <ele>271.0</ele>
        <time>2019-07-10T05:11:33Z</time>
      </trkpt>
      <trkpt lat="39.7107860" lon="-6.4549960">
        <ele>271.6</ele>
        <time>2019-07-10T05:11:40Z</time>
      </trkpt>
      <trkpt lat="39.7106970" lon="-6.4550600">
        <ele>272.0</ele>
        <time>2019-07-10T05:11:42Z</time>
      </trkpt>
      <trkpt lat="39.7103890" lon="-6.4552850">
        <ele>273.0</ele>
        <time>2019-07-10T05:11:49Z</time>
      </trkpt>
      <trkpt lat="39.7103440" lon="-6.4553170">
        <ele>273.0</ele>
        <time>2019-07-10T05:11:50Z</time>
      </trkpt>
      <trkpt lat="39.7100300" lon="-6.4555390">
        <ele>274.2</ele>
        <time>2019-07-10T05:11:57Z</time>
      </trkpt>
      <trkpt lat="39.7099420" lon="-6.4556030">
        <ele>274.6</ele>
        <time>2019-07-10T05:11:59Z</time>
      </trkpt>
      <trkpt lat="39.7097190" lon="-6.4557610">
        <ele>275.4</ele>
        <time>2019-07-10T05:12:04Z</time>
      </trkpt>
      <trkpt lat="39.7095060" lon="-6.4559190">
        <ele>276.4</ele>
        <time>2019-07-10T05:12:09Z</time>
      </trkpt>
      <trkpt lat="39.7094220" lon="-6.4559840">
        <ele>276.6</ele>
        <time>2019-07-10T05:12:11Z</time>
      </trkpt>
      <trkpt lat="39.7091640" lon="-6.4561750">
        <ele>277.0</ele>
        <time>2019-07-10T05:12:17Z</time>
      </trkpt>
      <trkpt lat="39.7090770" lon="-6.4562410">
        <ele>277.6</ele>
        <time>2019-07-10T05:12:19Z</time>
      </trkpt>
      <trkpt lat="39.7088100" lon="-6.4564270">
        <ele>278.6</ele>
        <time>2019-07-10T05:12:25Z</time>
      </trkpt>
      <trkpt lat="39.7087650" lon="-6.4564580">
        <ele>278.8</ele>
        <time>2019-07-10T05:12:26Z</time>
      </trkpt>
      <trkpt lat="39.7085850" lon="-6.4565810">
        <ele>280.0</ele>
        <time>2019-07-10T05:12:30Z</time>
      </trkpt>
      <trkpt lat="39.7083560" lon="-6.4567270">
        <ele>280.6</ele>
        <time>2019-07-10T05:12:35Z</time>
      </trkpt>
      <trkpt lat="39.7082630" lon="-6.4567750">
        <ele>281.0</ele>
        <time>2019-07-10T05:12:37Z</time>
      </trkpt>
      <trkpt lat="39.7080190" lon="-6.4568460">
        <ele>282.0</ele>
        <time>2019-07-10T05:12:42Z</time>
      </trkpt>
      <trkpt lat="39.7079670" lon="-6.4568520">
        <ele>282.0</ele>
        <time>2019-07-10T05:12:43Z</time>
      </trkpt>
      <trkpt lat="39.7076520" lon="-6.4568320">
        <ele>282.6</ele>
        <time>2019-07-10T05:12:49Z</time>
      </trkpt>
      <trkpt lat="39.7074940" lon="-6.4568060">
        <ele>283.2</ele>
        <time>2019-07-10T05:12:52Z</time>
      </trkpt>
      <trkpt lat="39.7071100" lon="-6.4567340">
        <ele>284.0</ele>
        <time>2019-07-10T05:12:59Z</time>
      </trkpt>
      <trkpt lat="39.7067590" lon="-6.4566650">
        <ele>283.6</ele>
        <time>2019-07-10T05:13:05Z</time>
      </trkpt>
      <trkpt lat="39.7066380" lon="-6.4566410">
        <ele>283.2</ele>
        <time>2019-07-10T05:13:07Z</time>
      </trkpt>
      <trkpt lat="39.7065190" lon="-6.4566170">
        <ele>282.8</ele>
        <time>2019-07-10T05:13:09Z</time>
      </trkpt>
      <trkpt lat="39.7063980" lon="-6.4565970">
        <ele>282.6</ele>
        <time>2019-07-10T05:13:11Z</time>
      </trkpt>
      <trkpt lat="39.7062730" lon="-6.4565890">
        <ele>282.4</ele>
        <time>2019-07-10T05:13:13Z</time>
      </trkpt>
      <trkpt lat="39.7060870" lon="-6.4565820">
        <ele>282.2</ele>
        <time>2019-07-10T05:13:16Z</time>
      </trkpt>
      <trkpt lat="39.7059670" lon="-6.4565900">
        <ele>282.2</ele>
        <time>2019-07-10T05:13:18Z</time>
      </trkpt>
      <trkpt lat="39.7057240" lon="-6.4566130">
        <ele>281.2</ele>
        <time>2019-07-10T05:13:22Z</time>
      </trkpt>
      <trkpt lat="39.7056600" lon="-6.4566200">
        <ele>281.2</ele>
        <time>2019-07-10T05:13:23Z</time>
      </trkpt>
      <trkpt lat="39.7055970" lon="-6.4566270">
        <ele>281.0</ele>
        <time>2019-07-10T05:13:24Z</time>
      </trkpt>
      <trkpt lat="39.7052820" lon="-6.4566590">
        <ele>281.0</ele>
        <time>2019-07-10T05:13:29Z</time>
      </trkpt>
      <trkpt lat="39.7049160" lon="-6.4567010">
        <ele>280.8</ele>
        <time>2019-07-10T05:13:35Z</time>
      </trkpt>
      <trkpt lat="39.7043930" lon="-6.4567600">
        <ele>281.6</ele>
        <time>2019-07-10T05:13:44Z</time>
      </trkpt>
      <trkpt lat="39.7042800" lon="-6.4567710">
        <ele>281.8</ele>
        <time>2019-07-10T05:13:46Z</time>
      </trkpt>
      <trkpt lat="39.7040550" lon="-6.4567970">
        <ele>282.4</ele>
        <time>2019-07-10T05:13:50Z</time>
      </trkpt>
      <trkpt lat="39.7037750" lon="-6.4568290">
        <ele>282.6</ele>
        <time>2019-07-10T05:13:55Z</time>
      </trkpt>
      <trkpt lat="39.7032570" lon="-6.4568810">
        <ele>282.6</ele>
        <time>2019-07-10T05:14:04Z</time>
      </trkpt>
      <trkpt lat="39.7028390" lon="-6.4569220">
        <ele>282.4</ele>
        <time>2019-07-10T05:14:11Z</time>
      </trkpt>
      <trkpt lat="39.7023800" lon="-6.4569690">
        <ele>281.4</ele>
        <time>2019-07-10T05:14:18Z</time>
      </trkpt>
      <trkpt lat="39.7023140" lon="-6.4569760">
        <ele>281.2</ele>
        <time>2019-07-10T05:14:19Z</time>
      </trkpt>
      <trkpt lat="39.7022490" lon="-6.4569850">
        <ele>281.0</ele>
        <time>2019-07-10T05:14:20Z</time>
      </trkpt>
      <trkpt lat="39.7021200" lon="-6.4570040">
        <ele>281.0</ele>
        <time>2019-07-10T05:14:22Z</time>
      </trkpt>
      <trkpt lat="39.7019930" lon="-6.4570190">
        <ele>280.8</ele>
        <time>2019-07-10T05:14:24Z</time>
      </trkpt>
      <trkpt lat="39.7016800" lon="-6.4570570">
        <ele>280.6</ele>
        <time>2019-07-10T05:14:29Z</time>
      </trkpt>
      <trkpt lat="39.7016160" lon="-6.4570690">
        <ele>280.4</ele>
        <time>2019-07-10T05:14:30Z</time>
      </trkpt>
      <trkpt lat="39.7012950" lon="-6.4571950">
        <ele>279.4</ele>
        <time>2019-07-10T05:14:35Z</time>
      </trkpt>
      <trkpt lat="39.7012340" lon="-6.4572330">
        <ele>279.4</ele>
        <time>2019-07-10T05:14:36Z</time>
      </trkpt>
      <trkpt lat="39.7011750" lon="-6.4572800">
        <ele>279.2</ele>
        <time>2019-07-10T05:14:37Z</time>
      </trkpt>
      <trkpt lat="39.7010640" lon="-6.4573900">
        <ele>279.0</ele>
        <time>2019-07-10T05:14:39Z</time>
      </trkpt>
      <trkpt lat="39.7009640" lon="-6.4575160">
        <ele>278.6</ele>
        <time>2019-07-10T05:14:41Z</time>
      </trkpt>
      <trkpt lat="39.7008810" lon="-6.4576610">
        <ele>278.4</ele>
        <time>2019-07-10T05:14:43Z</time>
      </trkpt>
      <trkpt lat="39.7008440" lon="-6.4577390">
        <ele>278.0</ele>
        <time>2019-07-10T05:14:44Z</time>
      </trkpt>
      <trkpt lat="39.7007810" lon="-6.4578980">
        <ele>277.8</ele>
        <time>2019-07-10T05:14:46Z</time>
      </trkpt>
      <trkpt lat="39.7006770" lon="-6.4582200">
        <ele>277.8</ele>
        <time>2019-07-10T05:14:50Z</time>
      </trkpt>
      <trkpt lat="39.7004710" lon="-6.4589570">
        <ele>277.6</ele>
        <time>2019-07-10T05:14:59Z</time>
      </trkpt>
      <trkpt lat="39.7003970" lon="-6.4592330">
        <ele>277.2</ele>
        <time>2019-07-10T05:15:02Z</time>
      </trkpt>
      <trkpt lat="39.7003140" lon="-6.4595290">
        <ele>276.4</ele>
        <time>2019-07-10T05:15:05Z</time>
      </trkpt>
      <trkpt lat="39.7002610" lon="-6.4597360">
        <ele>276.0</ele>
        <time>2019-07-10T05:15:07Z</time>
      </trkpt>
      <trkpt lat="39.7000540" lon="-6.4603570">
        <ele>274.8</ele>
        <time>2019-07-10T05:15:13Z</time>
      </trkpt>
      <trkpt lat="39.6998610" lon="-6.4607600">
        <ele>273.8</ele>
        <time>2019-07-10T05:15:17Z</time>
      </trkpt>
      <trkpt lat="39.6997520" lon="-6.4609640">
        <ele>273.4</ele>
        <time>2019-07-10T05:15:19Z</time>
      </trkpt>
      <trkpt lat="39.6996370" lon="-6.4611690">
        <ele>273.0</ele>
        <time>2019-07-10T05:15:21Z</time>
      </trkpt>
      <trkpt lat="39.6994040" lon="-6.4615850">
        <ele>271.8</ele>
        <time>2019-07-10T05:15:25Z</time>
      </trkpt>
      <trkpt lat="39.6991710" lon="-6.4620110">
        <ele>270.8</ele>
        <time>2019-07-10T05:15:29Z</time>
      </trkpt>
      <trkpt lat="39.6991120" lon="-6.4621180">
        <ele>270.4</ele>
        <time>2019-07-10T05:15:30Z</time>
      </trkpt>
      <trkpt lat="39.6989920" lon="-6.4623290">
        <ele>269.6</ele>
        <time>2019-07-10T05:15:32Z</time>
      </trkpt>
      <trkpt lat="39.6987470" lon="-6.4627410">
        <ele>268.4</ele>
        <time>2019-07-10T05:15:36Z</time>
      </trkpt>
      <trkpt lat="39.6985970" lon="-6.4629160">
        <ele>268.0</ele>
        <time>2019-07-10T05:15:38Z</time>
      </trkpt>
      <trkpt lat="39.6983400" lon="-6.4631260">
        <ele>267.4</ele>
        <time>2019-07-10T05:15:41Z</time>
      </trkpt>
      <trkpt lat="39.6982450" lon="-6.4631790">
        <ele>267.2</ele>
        <time>2019-07-10T05:15:42Z</time>
      </trkpt>
      <trkpt lat="39.6979420" lon="-6.4632700">
        <ele>266.0</ele>
        <time>2019-07-10T05:15:45Z</time>
      </trkpt>
      <trkpt lat="39.6978380" lon="-6.4632870">
        <ele>265.6</ele>
        <time>2019-07-10T05:15:46Z</time>
      </trkpt>
      <trkpt lat="39.6975240" lon="-6.4633410">
        <ele>264.8</ele>
        <time>2019-07-10T05:15:49Z</time>
      </trkpt>
      <trkpt lat="39.6972140" lon="-6.4634030">
        <ele>263.8</ele>
        <time>2019-07-10T05:15:52Z</time>
      </trkpt>
      <trkpt lat="39.6970090" lon="-6.4634360">
        <ele>263.0</ele>
        <time>2019-07-10T05:15:54Z</time>
      </trkpt>
      <trkpt lat="39.6969090" lon="-6.4634560">
        <ele>262.6</ele>
        <time>2019-07-10T05:15:55Z</time>
      </trkpt>
      <trkpt lat="39.6966180" lon="-6.4635650">
        <ele>261.4</ele>
        <time>2019-07-10T05:15:58Z</time>
      </trkpt>
      <trkpt lat="39.6963560" lon="-6.4637550">
        <ele>260.4</ele>
        <time>2019-07-10T05:16:01Z</time>
      </trkpt>
      <trkpt lat="39.6962790" lon="-6.4638350">
        <ele>260.2</ele>
        <time>2019-07-10T05:16:02Z</time>
      </trkpt>
      <trkpt lat="39.6960610" lon="-6.4640890">
        <ele>259.2</ele>
        <time>2019-07-10T05:16:05Z</time>
      </trkpt>
      <trkpt lat="39.6957720" lon="-6.4644220">
        <ele>258.0</ele>
        <time>2019-07-10T05:16:09Z</time>
      </trkpt>
      <trkpt lat="39.6956250" lon="-6.4645790">
        <ele>257.6</ele>
        <time>2019-07-10T05:16:11Z</time>
      </trkpt>
      <trkpt lat="39.6954660" lon="-6.4647110">
        <ele>257.0</ele>
        <time>2019-07-10T05:16:13Z</time>
      </trkpt>
      <trkpt lat="39.6953810" lon="-6.4647620">
        <ele>256.8</ele>
        <time>2019-07-10T05:16:14Z</time>
      </trkpt>
      <trkpt lat="39.6952930" lon="-6.4648050">
        <ele>256.6</ele>
        <time>2019-07-10T05:16:15Z</time>
      </trkpt>
      <trkpt lat="39.6949220" lon="-6.4648810">
        <ele>255.8</ele>
        <time>2019-07-10T05:16:19Z</time>
      </trkpt>
      <trkpt lat="39.6948270" lon="-6.4648700">
        <ele>255.6</ele>
        <time>2019-07-10T05:16:20Z</time>
      </trkpt>
      <trkpt lat="39.6945480" lon="-6.4647840">
        <ele>254.8</ele>
        <time>2019-07-10T05:16:23Z</time>
      </trkpt>
      <trkpt lat="39.6944570" lon="-6.4647420">
        <ele>254.4</ele>
        <time>2019-07-10T05:16:24Z</time>
      </trkpt>
      <trkpt lat="39.6941890" lon="-6.4646130">
        <ele>253.4</ele>
        <time>2019-07-10T05:16:27Z</time>
      </trkpt>
      <trkpt lat="39.6938530" lon="-6.4644410">
        <ele>252.6</ele>
        <time>2019-07-10T05:16:31Z</time>
      </trkpt>
      <trkpt lat="39.6935630" lon="-6.4642870">
        <ele>253.0</ele>
        <time>2019-07-10T05:16:35Z</time>
      </trkpt>
      <trkpt lat="39.6934960" lon="-6.4642500">
        <ele>253.0</ele>
        <time>2019-07-10T05:16:36Z</time>
      </trkpt>
      <trkpt lat="39.6934320" lon="-6.4642150">
        <ele>253.2</ele>
        <time>2019-07-10T05:16:37Z</time>
      </trkpt>
      <trkpt lat="39.6933070" lon="-6.4641460">
        <ele>253.4</ele>
        <time>2019-07-10T05:16:39Z</time>
      </trkpt>
      <trkpt lat="39.6931330" lon="-6.4640530">
        <ele>253.4</ele>
        <time>2019-07-10T05:16:42Z</time>
      </trkpt>
      <trkpt lat="39.6930190" lon="-6.4639940">
        <ele>253.8</ele>
        <time>2019-07-10T05:16:44Z</time>
      </trkpt>
      <trkpt lat="39.6928510" lon="-6.4639200">
        <ele>254.4</ele>
        <time>2019-07-10T05:16:47Z</time>
      </trkpt>
      <trkpt lat="39.6927390" lon="-6.4638880">
        <ele>254.6</ele>
        <time>2019-07-10T05:16:49Z</time>
      </trkpt>
      <trkpt lat="39.6926270" lon="-6.4638670">
        <ele>254.8</ele>
        <time>2019-07-10T05:16:51Z</time>
      </trkpt>
      <trkpt lat="39.6924640" lon="-6.4638450">
        <ele>255.0</ele>
        <time>2019-07-10T05:16:54Z</time>
      </trkpt>
      <trkpt lat="39.6923140" lon="-6.4638480">
        <ele>255.2</ele>
        <time>2019-07-10T05:16:57Z</time>
      </trkpt>
      <trkpt lat="39.6922650" lon="-6.4638590">
        <ele>255.4</ele>
        <time>2019-07-10T05:16:58Z</time>
      </trkpt>
      <trkpt lat="39.6920680" lon="-6.4639460">
        <ele>255.6</ele>
        <time>2019-07-10T05:17:02Z</time>
      </trkpt>
      <trkpt lat="39.6920190" lon="-6.4639710">
        <ele>255.6</ele>
        <time>2019-07-10T05:17:03Z</time>
      </trkpt>
      <trkpt lat="39.6919240" lon="-6.4640350">
        <ele>255.6</ele>
        <time>2019-07-10T05:17:05Z</time>
      </trkpt>
      <trkpt lat="39.6917450" lon="-6.4642140">
        <ele>255.6</ele>
        <time>2019-07-10T05:17:09Z</time>
      </trkpt>
      <trkpt lat="39.6917060" lon="-6.4642690">
        <ele>255.4</ele>
        <time>2019-07-10T05:17:10Z</time>
      </trkpt>
      <trkpt lat="39.6915070" lon="-6.4646580">
        <ele>255.4</ele>
        <time>2019-07-10T05:17:16Z</time>
      </trkpt>
      <trkpt lat="39.6912920" lon="-6.4652280">
        <ele>255.6</ele>
        <time>2019-07-10T05:17:24Z</time>
      </trkpt>
      <trkpt lat="39.6912660" lon="-6.4653020">
        <ele>255.6</ele>
        <time>2019-07-10T05:17:25Z</time>
      </trkpt>
      <trkpt lat="39.6911600" lon="-6.4655950">
        <ele>255.2</ele>
        <time>2019-07-10T05:17:29Z</time>
      </trkpt>
      <trkpt lat="39.6909980" lon="-6.4660430">
        <ele>255.2</ele>
        <time>2019-07-10T05:17:35Z</time>
      </trkpt>
      <trkpt lat="39.6908300" lon="-6.4664850">
        <ele>255.2</ele>
        <time>2019-07-10T05:17:41Z</time>
      </trkpt>
      <trkpt lat="39.6907490" lon="-6.4667080">
        <ele>255.2</ele>
        <time>2019-07-10T05:17:44Z</time>
      </trkpt>
      <trkpt lat="39.6905540" lon="-6.4672270">
        <ele>255.6</ele>
        <time>2019-07-10T05:17:51Z</time>
      </trkpt>
      <trkpt lat="39.6904700" lon="-6.4674500">
        <ele>255.6</ele>
        <time>2019-07-10T05:17:54Z</time>
      </trkpt>
      <trkpt lat="39.6902400" lon="-6.4680620">
        <ele>256.4</ele>
        <time>2019-07-10T05:18:02Z</time>
      </trkpt>
      <trkpt lat="39.6900480" lon="-6.4685970">
        <ele>256.8</ele>
        <time>2019-07-10T05:18:09Z</time>
      </trkpt>
      <trkpt lat="39.6900240" lon="-6.4686680">
        <ele>257.2</ele>
        <time>2019-07-10T05:18:10Z</time>
      </trkpt>
      <trkpt lat="39.6899340" lon="-6.4689350">
        <ele>258.0</ele>
        <time>2019-07-10T05:18:14Z</time>
      </trkpt>
      <trkpt lat="39.6898400" lon="-6.4691910">
        <ele>258.8</ele>
        <time>2019-07-10T05:18:18Z</time>
      </trkpt>
      <trkpt lat="39.6897920" lon="-6.4693150">
        <ele>259.0</ele>
        <time>2019-07-10T05:18:20Z</time>
      </trkpt>
      <trkpt lat="39.6897680" lon="-6.4693760">
        <ele>259.0</ele>
        <time>2019-07-10T05:18:21Z</time>
      </trkpt>
      <trkpt lat="39.6897050" lon="-6.4695660">
        <ele>260.0</ele>
        <time>2019-07-10T05:18:24Z</time>
      </trkpt>
      <trkpt lat="39.6896570" lon="-6.4696870">
        <ele>260.2</ele>
        <time>2019-07-10T05:18:26Z</time>
      </trkpt>
      <trkpt lat="39.6895840" lon="-6.4698590">
        <ele>260.8</ele>
        <time>2019-07-10T05:18:29Z</time>
      </trkpt>
      <trkpt lat="39.6895260" lon="-6.4699640">
        <ele>261.2</ele>
        <time>2019-07-10T05:18:31Z</time>
      </trkpt>
      <trkpt lat="39.6894970" lon="-6.4700170">
        <ele>261.4</ele>
        <time>2019-07-10T05:18:32Z</time>
      </trkpt>
      <trkpt lat="39.6893660" lon="-6.4702110">
        <ele>262.4</ele>
        <time>2019-07-10T05:18:36Z</time>
      </trkpt>
      <trkpt lat="39.6893290" lon="-6.4702540">
        <ele>262.4</ele>
        <time>2019-07-10T05:18:37Z</time>
      </trkpt>
      <trkpt lat="39.6892890" lon="-6.4702950">
        <ele>262.6</ele>
        <time>2019-07-10T05:18:38Z</time>
      </trkpt>
      <trkpt lat="39.6890310" lon="-6.4705020">
        <ele>263.6</ele>
        <time>2019-07-10T05:18:44Z</time>
      </trkpt>
      <trkpt lat="39.6889860" lon="-6.4705290">
        <ele>263.6</ele>
        <time>2019-07-10T05:18:45Z</time>
      </trkpt>
      <trkpt lat="39.6886410" lon="-6.4706450">
        <ele>264.6</ele>
        <time>2019-07-10T05:18:52Z</time>
      </trkpt>
      <trkpt lat="39.6883420" lon="-6.4707030">
        <ele>265.6</ele>
        <time>2019-07-10T05:18:58Z</time>
      </trkpt>
      <trkpt lat="39.6881490" lon="-6.4707440">
        <ele>266.6</ele>
        <time>2019-07-10T05:19:02Z</time>
      </trkpt>
      <trkpt lat="39.6881000" lon="-6.4707550">
        <ele>266.6</ele>
        <time>2019-07-10T05:19:03Z</time>
      </trkpt>
      <trkpt lat="39.6878220" lon="-6.4708880">
        <ele>268.0</ele>
        <time>2019-07-10T05:19:09Z</time>
      </trkpt>
      <trkpt lat="39.6875030" lon="-6.4711490">
        <ele>269.0</ele>
        <time>2019-07-10T05:19:17Z</time>
      </trkpt>
      <trkpt lat="39.6874650" lon="-6.4711850">
        <ele>269.2</ele>
        <time>2019-07-10T05:19:18Z</time>
      </trkpt>
      <trkpt lat="39.6872450" lon="-6.4713880">
        <ele>270.2</ele>
        <time>2019-07-10T05:19:24Z</time>
      </trkpt>
      <trkpt lat="39.6872070" lon="-6.4714170">
        <ele>270.4</ele>
        <time>2019-07-10T05:19:25Z</time>
      </trkpt>
      <trkpt lat="39.6870580" lon="-6.4715220">
        <ele>271.2</ele>
        <time>2019-07-10T05:19:29Z</time>
      </trkpt>
      <trkpt lat="39.6869070" lon="-6.4716140">
        <ele>272.0</ele>
        <time>2019-07-10T05:19:33Z</time>
      </trkpt>
      <trkpt lat="39.6868290" lon="-6.4716430">
        <ele>272.4</ele>
        <time>2019-07-10T05:19:35Z</time>
      </trkpt>
      <trkpt lat="39.6866290" lon="-6.4716720">
        <ele>273.4</ele>
        <time>2019-07-10T05:19:40Z</time>
      </trkpt>
      <trkpt lat="39.6863910" lon="-6.4716460">
        <ele>274.6</ele>
        <time>2019-07-10T05:19:46Z</time>
      </trkpt>
      <trkpt lat="39.6863130" lon="-6.4716190">
        <ele>274.8</ele>
        <time>2019-07-10T05:19:48Z</time>
      </trkpt>
      <trkpt lat="39.6861560" lon="-6.4715450">
        <ele>275.6</ele>
        <time>2019-07-10T05:19:52Z</time>
      </trkpt>
      <trkpt lat="39.6860350" lon="-6.4714990">
        <ele>276.2</ele>
        <time>2019-07-10T05:19:55Z</time>
      </trkpt>
      <trkpt lat="39.6859580" lon="-6.4714560">
        <ele>276.8</ele>
        <time>2019-07-10T05:19:57Z</time>
      </trkpt>
      <trkpt lat="39.6857390" lon="-6.4713170">
        <ele>278.0</ele>
        <time>2019-07-10T05:20:03Z</time>
      </trkpt>
      <trkpt lat="39.6855540" lon="-6.4712160">
        <ele>279.0</ele>
        <time>2019-07-10T05:20:08Z</time>
      </trkpt>
      <trkpt lat="39.6854080" lon="-6.4711570">
        <ele>279.6</ele>
        <time>2019-07-10T05:20:12Z</time>
      </trkpt>
      <trkpt lat="39.6853310" lon="-6.4711400">
        <ele>280.2</ele>
        <time>2019-07-10T05:20:14Z</time>
      </trkpt>
      <trkpt lat="39.6852130" lon="-6.4711180">
        <ele>280.8</ele>
        <time>2019-07-10T05:20:17Z</time>
      </trkpt>
      <trkpt lat="39.6851310" lon="-6.4711220">
        <ele>281.4</ele>
        <time>2019-07-10T05:20:19Z</time>
      </trkpt>
      <trkpt lat="39.6849230" lon="-6.4711750">
        <ele>282.6</ele>
        <time>2019-07-10T05:20:24Z</time>
      </trkpt>
      <trkpt lat="39.6848830" lon="-6.4711930">
        <ele>282.8</ele>
        <time>2019-07-10T05:20:25Z</time>
      </trkpt>
      <trkpt lat="39.6847290" lon="-6.4712800">
        <ele>283.6</ele>
        <time>2019-07-10T05:20:29Z</time>
      </trkpt>
      <trkpt lat="39.6846620" lon="-6.4713300">
        <ele>284.2</ele>
        <time>2019-07-10T05:20:31Z</time>
      </trkpt>
      <trkpt lat="39.6845380" lon="-6.4714430">
        <ele>284.8</ele>
        <time>2019-07-10T05:20:35Z</time>
      </trkpt>
      <trkpt lat="39.6844550" lon="-6.4715480">
        <ele>285.4</ele>
        <time>2019-07-10T05:20:38Z</time>
      </trkpt>
      <trkpt lat="39.6843580" lon="-6.4716970">
        <ele>286.0</ele>
        <time>2019-07-10T05:20:42Z</time>
      </trkpt>
      <trkpt lat="39.6842990" lon="-6.4718110">
        <ele>286.6</ele>
        <time>2019-07-10T05:20:45Z</time>
      </trkpt>
      <trkpt lat="39.6842630" lon="-6.4718890">
        <ele>287.0</ele>
        <time>2019-07-10T05:20:47Z</time>
      </trkpt>
      <trkpt lat="39.6841950" lon="-6.4721020">
        <ele>288.2</ele>
        <time>2019-07-10T05:20:52Z</time>
      </trkpt>
      <trkpt lat="39.6841850" lon="-6.4721450">
        <ele>288.4</ele>
        <time>2019-07-10T05:20:53Z</time>
      </trkpt>
      <trkpt lat="39.6841380" lon="-6.4723740">
        <ele>288.8</ele>
        <time>2019-07-10T05:20:58Z</time>
      </trkpt>
      <trkpt lat="39.6841250" lon="-6.4724220">
        <ele>289.0</ele>
        <time>2019-07-10T05:20:59Z</time>
      </trkpt>
      <trkpt lat="39.6840820" lon="-6.4726220">
        <ele>289.4</ele>
        <time>2019-07-10T05:21:03Z</time>
      </trkpt>
      <trkpt lat="39.6840390" lon="-6.4727820">
        <ele>289.6</ele>
        <time>2019-07-10T05:21:06Z</time>
      </trkpt>
      <trkpt lat="39.6839920" lon="-6.4729460">
        <ele>289.6</ele>
        <time>2019-07-10T05:21:09Z</time>
      </trkpt>
      <trkpt lat="39.6839380" lon="-6.4731070">
        <ele>289.8</ele>
        <time>2019-07-10T05:21:12Z</time>
      </trkpt>
      <trkpt lat="39.6838590" lon="-6.4732650">
        <ele>289.8</ele>
        <time>2019-07-10T05:21:15Z</time>
      </trkpt>
      <trkpt lat="39.6837970" lon="-6.4733640">
        <ele>289.6</ele>
        <time>2019-07-10T05:21:17Z</time>
      </trkpt>
      <trkpt lat="39.6837320" lon="-6.4734590">
        <ele>289.6</ele>
        <time>2019-07-10T05:21:19Z</time>
      </trkpt>
      <trkpt lat="39.6836980" lon="-6.4735030">
        <ele>289.6</ele>
        <time>2019-07-10T05:21:20Z</time>
      </trkpt>
      <trkpt lat="39.6835840" lon="-6.4736180">
        <ele>289.4</ele>
        <time>2019-07-10T05:21:23Z</time>
      </trkpt>
      <trkpt lat="39.6834600" lon="-6.4737130">
        <ele>289.2</ele>
        <time>2019-07-10T05:21:26Z</time>
      </trkpt>
      <trkpt lat="39.6833740" lon="-6.4737670">
        <ele>289.2</ele>
        <time>2019-07-10T05:21:28Z</time>
      </trkpt>
      <trkpt lat="39.6832840" lon="-6.4738070">
        <ele>289.0</ele>
        <time>2019-07-10T05:21:30Z</time>
      </trkpt>
      <trkpt lat="39.6832380" lon="-6.4738250">
        <ele>288.8</ele>
        <time>2019-07-10T05:21:31Z</time>
      </trkpt>
      <trkpt lat="39.6831930" lon="-6.4738390">
        <ele>288.6</ele>
        <time>2019-07-10T05:21:32Z</time>
      </trkpt>
      <trkpt lat="39.6829990" lon="-6.4738790">
        <ele>288.4</ele>
        <time>2019-07-10T05:21:36Z</time>
      </trkpt>
      <trkpt lat="39.6828970" lon="-6.4738870">
        <ele>288.4</ele>
        <time>2019-07-10T05:21:38Z</time>
      </trkpt>
      <trkpt lat="39.6828440" lon="-6.4738920">
        <ele>288.4</ele>
        <time>2019-07-10T05:21:39Z</time>
      </trkpt>
      <trkpt lat="39.6826210" lon="-6.4739000">
        <ele>288.0</ele>
        <time>2019-07-10T05:21:43Z</time>
      </trkpt>
      <trkpt lat="39.6824500" lon="-6.4739070">
        <ele>287.4</ele>
        <time>2019-07-10T05:21:46Z</time>
      </trkpt>
      <trkpt lat="39.6823920" lon="-6.4739110">
        <ele>287.2</ele>
        <time>2019-07-10T05:21:47Z</time>
      </trkpt>
      <trkpt lat="39.6822780" lon="-6.4739190">
        <ele>287.0</ele>
        <time>2019-07-10T05:21:49Z</time>
      </trkpt>
      <trkpt lat="39.6820080" lon="-6.4739810">
        <ele>287.2</ele>
        <time>2019-07-10T05:21:54Z</time>
      </trkpt>
      <trkpt lat="39.6818560" lon="-6.4740480">
        <ele>287.0</ele>
        <time>2019-07-10T05:21:57Z</time>
      </trkpt>
      <trkpt lat="39.6817290" lon="-6.4741470">
        <ele>287.2</ele>
        <time>2019-07-10T05:22:00Z</time>
      </trkpt>
      <trkpt lat="39.6816140" lon="-6.4742470">
        <ele>287.6</ele>
        <time>2019-07-10T05:22:03Z</time>
      </trkpt>
      <trkpt lat="39.6815400" lon="-6.4743060">
        <ele>288.2</ele>
        <time>2019-07-10T05:22:05Z</time>
      </trkpt>
      <trkpt lat="39.6815060" lon="-6.4743360">
        <ele>288.6</ele>
        <time>2019-07-10T05:22:06Z</time>
      </trkpt>
      <trkpt lat="39.6814410" lon="-6.4743980">
        <ele>289.0</ele>
        <time>2019-07-10T05:22:08Z</time>
      </trkpt>
      <trkpt lat="39.6813510" lon="-6.4744850">
        <ele>289.6</ele>
        <time>2019-07-10T05:22:11Z</time>
      </trkpt>
      <trkpt lat="39.6813230" lon="-6.4745070">
        <ele>289.6</ele>
        <time>2019-07-10T05:22:12Z</time>
      </trkpt>
      <trkpt lat="39.6812670" lon="-6.4745510">
        <ele>289.8</ele>
        <time>2019-07-10T05:22:14Z</time>
      </trkpt>
      <trkpt lat="39.6812130" lon="-6.4745930">
        <ele>290.2</ele>
        <time>2019-07-10T05:22:16Z</time>
      </trkpt>
      <trkpt lat="39.6811560" lon="-6.4746230">
        <ele>290.8</ele>
        <time>2019-07-10T05:22:18Z</time>
      </trkpt>
      <trkpt lat="39.6810670" lon="-6.4746740">
        <ele>291.2</ele>
        <time>2019-07-10T05:22:21Z</time>
      </trkpt>
      <trkpt lat="39.6810010" lon="-6.4747030">
        <ele>291.4</ele>
        <time>2019-07-10T05:22:23Z</time>
      </trkpt>
      <trkpt lat="39.6808960" lon="-6.4747420">
        <ele>291.8</ele>
        <time>2019-07-10T05:22:26Z</time>
      </trkpt>
      <trkpt lat="39.6807080" lon="-6.4747940">
        <ele>292.8</ele>
        <time>2019-07-10T05:22:31Z</time>
      </trkpt>
      <trkpt lat="39.6806300" lon="-6.4748070">
        <ele>293.2</ele>
        <time>2019-07-10T05:22:33Z</time>
      </trkpt>
      <trkpt lat="39.6804710" lon="-6.4748250">
        <ele>293.8</ele>
        <time>2019-07-10T05:22:37Z</time>
      </trkpt>
      <trkpt lat="39.6803530" lon="-6.4748400">
        <ele>294.6</ele>
        <time>2019-07-10T05:22:40Z</time>
      </trkpt>
      <trkpt lat="39.6803150" lon="-6.4748450">
        <ele>295.0</ele>
        <time>2019-07-10T05:22:41Z</time>
      </trkpt>
      <trkpt lat="39.6802010" lon="-6.4748620">
        <ele>295.6</ele>
        <time>2019-07-10T05:22:44Z</time>
      </trkpt>
      <trkpt lat="39.6801230" lon="-6.4748720">
        <ele>296.0</ele>
        <time>2019-07-10T05:22:46Z</time>
      </trkpt>
      <trkpt lat="39.6798930" lon="-6.4749030">
        <ele>297.0</ele>
        <time>2019-07-10T05:22:52Z</time>
      </trkpt>
      <trkpt lat="39.6798550" lon="-6.4749080">
        <ele>297.2</ele>
        <time>2019-07-10T05:22:53Z</time>
      </trkpt>
      <trkpt lat="39.6796700" lon="-6.4749350">
        <ele>298.4</ele>
        <time>2019-07-10T05:22:58Z</time>
      </trkpt>
      <trkpt lat="39.6795280" lon="-6.4749520">
        <ele>299.0</ele>
        <time>2019-07-10T05:23:02Z</time>
      </trkpt>
      <trkpt lat="39.6794540" lon="-6.4749550">
        <ele>299.4</ele>
        <time>2019-07-10T05:23:04Z</time>
      </trkpt>
      <trkpt lat="39.6792620" lon="-6.4749600">
        <ele>300.6</ele>
        <time>2019-07-10T05:23:09Z</time>
      </trkpt>
      <trkpt lat="39.6792230" lon="-6.4749560">
        <ele>301.0</ele>
        <time>2019-07-10T05:23:10Z</time>
      </trkpt>
      <trkpt lat="39.6791480" lon="-6.4749410">
        <ele>301.8</ele>
        <time>2019-07-10T05:23:12Z</time>
      </trkpt>
      <trkpt lat="39.6789280" lon="-6.4748630">
        <ele>302.8</ele>
        <time>2019-07-10T05:23:18Z</time>
      </trkpt>
      <trkpt lat="39.6787150" lon="-6.4747400">
        <ele>303.8</ele>
        <time>2019-07-10T05:23:24Z</time>
      </trkpt>
      <trkpt lat="39.6786430" lon="-6.4746910">
        <ele>304.0</ele>
        <time>2019-07-10T05:23:26Z</time>
      </trkpt>
      <trkpt lat="39.6784800" lon="-6.4745680">
        <ele>304.8</ele>
        <time>2019-07-10T05:23:31Z</time>
      </trkpt>
      <trkpt lat="39.6783890" lon="-6.4744980">
        <ele>305.2</ele>
        <time>2019-07-10T05:23:34Z</time>
      </trkpt>
      <trkpt lat="39.6782350" lon="-6.4743790">
        <ele>306.0</ele>
        <time>2019-07-10T05:23:39Z</time>
      </trkpt>
      <trkpt lat="39.6781380" lon="-6.4743050">
        <ele>306.4</ele>
        <time>2019-07-10T05:23:42Z</time>
      </trkpt>
      <trkpt lat="39.6780060" lon="-6.4742060">
        <ele>307.0</ele>
        <time>2019-07-10T05:23:46Z</time>
      </trkpt>
      <trkpt lat="39.6777700" lon="-6.4740400">
        <ele>308.0</ele>
        <time>2019-07-10T05:23:53Z</time>
      </trkpt>
      <trkpt lat="39.6776600" lon="-6.4739830">
        <ele>308.2</ele>
        <time>2019-07-10T05:23:56Z</time>
      </trkpt>
      <trkpt lat="39.6774660" lon="-6.4739150">
        <ele>309.0</ele>
        <time>2019-07-10T05:24:01Z</time>
      </trkpt>
      <trkpt lat="39.6773870" lon="-6.4739000">
        <ele>309.4</ele>
        <time>2019-07-10T05:24:03Z</time>
      </trkpt>
      <trkpt lat="39.6771440" lon="-6.4739040">
        <ele>310.6</ele>
        <time>2019-07-10T05:24:09Z</time>
      </trkpt>
      <trkpt lat="39.6768240" lon="-6.4739810">
        <ele>311.8</ele>
        <time>2019-07-10T05:24:17Z</time>
      </trkpt>
      <trkpt lat="39.6765150" lon="-6.4740850">
        <ele>312.8</ele>
        <time>2019-07-10T05:24:25Z</time>
      </trkpt>
      <trkpt lat="39.6764770" lon="-6.4740990">
        <ele>313.0</ele>
        <time>2019-07-10T05:24:26Z</time>
      </trkpt>
      <trkpt lat="39.6762880" lon="-6.4741620">
        <ele>313.8</ele>
        <time>2019-07-10T05:24:31Z</time>
      </trkpt>
      <trkpt lat="39.6761390" lon="-6.4742050">
        <ele>314.4</ele>
        <time>2019-07-10T05:24:35Z</time>
      </trkpt>
      <trkpt lat="39.6760640" lon="-6.4742140">
        <ele>315.0</ele>
        <time>2019-07-10T05:24:37Z</time>
      </trkpt>
      <trkpt lat="39.6758350" lon="-6.4742270">
        <ele>316.0</ele>
        <time>2019-07-10T05:24:43Z</time>
      </trkpt>
      <trkpt lat="39.6757960" lon="-6.4742220">
        <ele>316.4</ele>
        <time>2019-07-10T05:24:44Z</time>
      </trkpt>
      <trkpt lat="39.6756400" lon="-6.4741850">
        <ele>317.2</ele>
        <time>2019-07-10T05:24:48Z</time>
      </trkpt>
      <trkpt lat="39.6754580" lon="-6.4741150">
        <ele>317.8</ele>
        <time>2019-07-10T05:24:53Z</time>
      </trkpt>
      <trkpt lat="39.6753180" lon="-6.4740250">
        <ele>318.4</ele>
        <time>2019-07-10T05:24:57Z</time>
      </trkpt>
      <trkpt lat="39.6752220" lon="-6.4739330">
        <ele>319.4</ele>
        <time>2019-07-10T05:25:00Z</time>
      </trkpt>
      <trkpt lat="39.6750850" lon="-6.4737560">
        <ele>320.2</ele>
        <time>2019-07-10T05:25:05Z</time>
      </trkpt>
      <trkpt lat="39.6750210" lon="-6.4736200">
        <ele>320.8</ele>
        <time>2019-07-10T05:25:08Z</time>
      </trkpt>
      <trkpt lat="39.6749070" lon="-6.4733730">
        <ele>321.2</ele>
        <time>2019-07-10T05:25:13Z</time>
      </trkpt>
      <trkpt lat="39.6747520" lon="-6.4730240">
        <ele>321.8</ele>
        <time>2019-07-10T05:25:20Z</time>
      </trkpt>
      <trkpt lat="39.6746850" lon="-6.4728840">
        <ele>322.4</ele>
        <time>2019-07-10T05:25:23Z</time>
      </trkpt>
      <trkpt lat="39.6746210" lon="-6.4727470">
        <ele>323.0</ele>
        <time>2019-07-10T05:25:26Z</time>
      </trkpt>
      <trkpt lat="39.6744510" lon="-6.4724430">
        <ele>323.8</ele>
        <time>2019-07-10T05:25:33Z</time>
      </trkpt>
      <trkpt lat="39.6743670" lon="-6.4723240">
        <ele>324.0</ele>
        <time>2019-07-10T05:25:36Z</time>
      </trkpt>
      <trkpt lat="39.6741830" lon="-6.4721110">
        <ele>324.8</ele>
        <time>2019-07-10T05:25:42Z</time>
      </trkpt>
      <trkpt lat="39.6740770" lon="-6.4720190">
        <ele>325.2</ele>
        <time>2019-07-10T05:25:45Z</time>
      </trkpt>
      <trkpt lat="39.6738210" lon="-6.4718210">
        <ele>326.2</ele>
        <time>2019-07-10T05:25:52Z</time>
      </trkpt>
      <trkpt lat="39.6734730" lon="-6.4715890">
        <ele>327.0</ele>
        <time>2019-07-10T05:26:01Z</time>
      </trkpt>
      <trkpt lat="39.6732830" lon="-6.4714680">
        <ele>327.2</ele>
        <time>2019-07-10T05:26:06Z</time>
      </trkpt>
      <trkpt lat="39.6731570" lon="-6.4713870">
        <ele>327.8</ele>
        <time>2019-07-10T05:26:10Z</time>
      </trkpt>
      <trkpt lat="39.6731440" lon="-6.4713790">
        <ele>328.2</ele>
        <time>2019-07-10T05:26:13Z</time>
      </trkpt>
      <trkpt lat="39.6731220" lon="-6.4713610">
        <ele>328.6</ele>
        <time>2019-07-10T05:27:42Z</time>
      </trkpt>
      <trkpt lat="39.6731080" lon="-6.4713520">
        <ele>328.6</ele>
        <time>2019-07-10T05:27:43Z</time>
      </trkpt>
      <trkpt lat="39.6730710" lon="-6.4713300">
        <ele>328.6</ele>
        <time>2019-07-10T05:27:45Z</time>
      </trkpt>
      <trkpt lat="39.6730060" lon="-6.4712790">
        <ele>328.8</ele>
        <time>2019-07-10T05:27:48Z</time>
      </trkpt>
      <trkpt lat="39.6727870" lon="-6.4711150">
        <ele>329.6</ele>
        <time>2019-07-10T05:27:56Z</time>
      </trkpt>
      <trkpt lat="39.6725580" lon="-6.4709400">
        <ele>330.2</ele>
        <time>2019-07-10T05:28:03Z</time>
      </trkpt>
      <trkpt lat="39.6722420" lon="-6.4707310">
        <ele>330.2</ele>
        <time>2019-07-10T05:28:11Z</time>
      </trkpt>
      <trkpt lat="39.6721150" lon="-6.4706550">
        <ele>330.2</ele>
        <time>2019-07-10T05:28:14Z</time>
      </trkpt>
      <trkpt lat="39.6718800" lon="-6.4705740">
        <ele>329.8</ele>
        <time>2019-07-10T05:28:19Z</time>
      </trkpt>
      <trkpt lat="39.6716660" lon="-6.4705530">
        <ele>329.2</ele>
        <time>2019-07-10T05:28:23Z</time>
      </trkpt>
      <trkpt lat="39.6716110" lon="-6.4705540">
        <ele>329.0</ele>
        <time>2019-07-10T05:28:24Z</time>
      </trkpt>
      <trkpt lat="39.6715010" lon="-6.4705730">
        <ele>328.8</ele>
        <time>2019-07-10T05:28:26Z</time>
      </trkpt>
      <trkpt lat="39.6714460" lon="-6.4705910">
        <ele>328.8</ele>
        <time>2019-07-10T05:28:27Z</time>
      </trkpt>
      <trkpt lat="39.6712830" lon="-6.4706720">
        <ele>328.4</ele>
        <time>2019-07-10T05:28:30Z</time>
      </trkpt>
      <trkpt lat="39.6711760" lon="-6.4707430">
        <ele>327.8</ele>
        <time>2019-07-10T05:28:32Z</time>
      </trkpt>
      <trkpt lat="39.6711250" lon="-6.4707840">
        <ele>327.6</ele>
        <time>2019-07-10T05:28:33Z</time>
      </trkpt>
      <trkpt lat="39.6709370" lon="-6.4709850">
        <ele>327.0</ele>
        <time>2019-07-10T05:28:37Z</time>
      </trkpt>
      <trkpt lat="39.6708190" lon="-6.4711710">
        <ele>326.6</ele>
        <time>2019-07-10T05:28:40Z</time>
      </trkpt>
      <trkpt lat="39.6707840" lon="-6.4712380">
        <ele>326.4</ele>
        <time>2019-07-10T05:28:41Z</time>
      </trkpt>
      <trkpt lat="39.6707170" lon="-6.4713780">
        <ele>325.8</ele>
        <time>2019-07-10T05:28:43Z</time>
      </trkpt>
      <trkpt lat="39.6706560" lon="-6.4715180">
        <ele>325.4</ele>
        <time>2019-07-10T05:28:45Z</time>
      </trkpt>
      <trkpt lat="39.6704570" lon="-6.4719800">
        <ele>325.4</ele>
        <time>2019-07-10T05:28:52Z</time>
      </trkpt>
      <trkpt lat="39.6704000" lon="-6.4721130">
        <ele>325.4</ele>
        <time>2019-07-10T05:28:54Z</time>
      </trkpt>
      <trkpt lat="39.6703110" lon="-6.4723160">
        <ele>325.4</ele>
        <time>2019-07-10T05:28:57Z</time>
      </trkpt>
      <trkpt lat="39.6701700" lon="-6.4726540">
        <ele>325.2</ele>
        <time>2019-07-10T05:29:02Z</time>
      </trkpt>
      <trkpt lat="39.6700210" lon="-6.4729430">
        <ele>325.6</ele>
        <time>2019-07-10T05:29:07Z</time>
      </trkpt>
      <trkpt lat="39.6699910" lon="-6.4729960">
        <ele>325.8</ele>
        <time>2019-07-10T05:29:08Z</time>
      </trkpt>
      <trkpt lat="39.6699310" lon="-6.4730920">
        <ele>326.2</ele>
        <time>2019-07-10T05:29:10Z</time>
      </trkpt>
      <trkpt lat="39.6698700" lon="-6.4731850">
        <ele>326.6</ele>
        <time>2019-07-10T05:29:12Z</time>
      </trkpt>
      <trkpt lat="39.6697410" lon="-6.4733580">
        <ele>327.2</ele>
        <time>2019-07-10T05:29:16Z</time>
      </trkpt>
      <trkpt lat="39.6696110" lon="-6.4735270">
        <ele>327.8</ele>
        <time>2019-07-10T05:29:20Z</time>
      </trkpt>
      <trkpt lat="39.6695140" lon="-6.4736450">
        <ele>328.0</ele>
        <time>2019-07-10T05:29:23Z</time>
      </trkpt>
      <trkpt lat="39.6694520" lon="-6.4737220">
        <ele>328.4</ele>
        <time>2019-07-10T05:29:25Z</time>
      </trkpt>
      <trkpt lat="39.6693920" lon="-6.4737990">
        <ele>328.8</ele>
        <time>2019-07-10T05:29:27Z</time>
      </trkpt>
      <trkpt lat="39.6693020" lon="-6.4739170">
        <ele>329.2</ele>
        <time>2019-07-10T05:29:30Z</time>
      </trkpt>
      <trkpt lat="39.6692110" lon="-6.4740370">
        <ele>329.8</ele>
        <time>2019-07-10T05:29:33Z</time>
      </trkpt>
      <trkpt lat="39.6690900" lon="-6.4741950">
        <ele>330.4</ele>
        <time>2019-07-10T05:29:37Z</time>
      </trkpt>
      <trkpt lat="39.6690010" lon="-6.4743100">
        <ele>331.0</ele>
        <time>2019-07-10T05:29:40Z</time>
      </trkpt>
      <trkpt lat="39.6688280" lon="-6.4745350">
        <ele>332.0</ele>
        <time>2019-07-10T05:29:46Z</time>
      </trkpt>
      <trkpt lat="39.6687700" lon="-6.4746080">
        <ele>332.4</ele>
        <time>2019-07-10T05:29:48Z</time>
      </trkpt>
      <trkpt lat="39.6685960" lon="-6.4748290">
        <ele>333.2</ele>
        <time>2019-07-10T05:29:54Z</time>
      </trkpt>
      <trkpt lat="39.6684510" lon="-6.4750150">
        <ele>333.8</ele>
        <time>2019-07-10T05:29:59Z</time>
      </trkpt>
      <trkpt lat="39.6683330" lon="-6.4751610">
        <ele>334.4</ele>
        <time>2019-07-10T05:30:03Z</time>
      </trkpt>
      <trkpt lat="39.6681630" lon="-6.4753930">
        <ele>335.4</ele>
        <time>2019-07-10T05:30:09Z</time>
      </trkpt>
      <trkpt lat="39.6679840" lon="-6.4756330">
        <ele>336.4</ele>
        <time>2019-07-10T05:30:15Z</time>
      </trkpt>
      <trkpt lat="39.6678250" lon="-6.4758440">
        <ele>337.2</ele>
        <time>2019-07-10T05:30:20Z</time>
      </trkpt>
      <trkpt lat="39.6676280" lon="-6.4760940">
        <ele>337.6</ele>
        <time>2019-07-10T05:30:26Z</time>
      </trkpt>
      <trkpt lat="39.6674960" lon="-6.4762590">
        <ele>338.0</ele>
        <time>2019-07-10T05:30:30Z</time>
      </trkpt>
      <trkpt lat="39.6673670" lon="-6.4764190">
        <ele>338.4</ele>
        <time>2019-07-10T05:30:34Z</time>
      </trkpt>
      <trkpt lat="39.6673060" lon="-6.4765030">
        <ele>338.6</ele>
        <time>2019-07-10T05:30:36Z</time>
      </trkpt>
      <trkpt lat="39.6671530" lon="-6.4767120">
        <ele>339.2</ele>
        <time>2019-07-10T05:30:41Z</time>
      </trkpt>
      <trkpt lat="39.6670370" lon="-6.4768800">
        <ele>339.6</ele>
        <time>2019-07-10T05:30:45Z</time>
      </trkpt>
      <trkpt lat="39.6668980" lon="-6.4771010">
        <ele>340.0</ele>
        <time>2019-07-10T05:30:50Z</time>
      </trkpt>
      <trkpt lat="39.6668190" lon="-6.4772410">
        <ele>340.4</ele>
        <time>2019-07-10T05:30:53Z</time>
      </trkpt>
      <trkpt lat="39.6667740" lon="-6.4773420">
        <ele>340.6</ele>
        <time>2019-07-10T05:30:55Z</time>
      </trkpt>
      <trkpt lat="39.6667050" lon="-6.4774940">
        <ele>340.8</ele>
        <time>2019-07-10T05:30:58Z</time>
      </trkpt>
      <trkpt lat="39.6665770" lon="-6.4778000">
        <ele>341.6</ele>
        <time>2019-07-10T05:31:04Z</time>
      </trkpt>
      <trkpt lat="39.6664960" lon="-6.4780090">
        <ele>342.2</ele>
        <time>2019-07-10T05:31:08Z</time>
      </trkpt>
      <trkpt lat="39.6664370" lon="-6.4781630">
        <ele>342.6</ele>
        <time>2019-07-10T05:31:11Z</time>
      </trkpt>
      <trkpt lat="39.6662900" lon="-6.4785870">
        <ele>343.2</ele>
        <time>2019-07-10T05:31:19Z</time>
      </trkpt>
      <trkpt lat="39.6662320" lon="-6.4787510">
        <ele>343.8</ele>
        <time>2019-07-10T05:31:22Z</time>
      </trkpt>
      <trkpt lat="39.6661720" lon="-6.4789180">
        <ele>344.0</ele>
        <time>2019-07-10T05:31:25Z</time>
      </trkpt>
      <trkpt lat="39.6661300" lon="-6.4790310">
        <ele>344.2</ele>
        <time>2019-07-10T05:31:27Z</time>
      </trkpt>
      <trkpt lat="39.6660000" lon="-6.4794230">
        <ele>344.8</ele>
        <time>2019-07-10T05:31:34Z</time>
      </trkpt>
      <trkpt lat="39.6659220" lon="-6.4796410">
        <ele>345.2</ele>
        <time>2019-07-10T05:31:38Z</time>
      </trkpt>
      <trkpt lat="39.6658590" lon="-6.4798690">
        <ele>345.8</ele>
        <time>2019-07-10T05:31:42Z</time>
      </trkpt>
      <trkpt lat="39.6658580" lon="-6.4799920">
        <ele>346.0</ele>
        <time>2019-07-10T05:31:44Z</time>
      </trkpt>
      <trkpt lat="39.6659550" lon="-6.4801980">
        <ele>346.4</ele>
        <time>2019-07-10T05:31:48Z</time>
      </trkpt>
      <trkpt lat="39.6661120" lon="-6.4803180">
        <ele>347.2</ele>
        <time>2019-07-10T05:31:52Z</time>
      </trkpt>
      <trkpt lat="39.6661960" lon="-6.4803680">
        <ele>347.6</ele>
        <time>2019-07-10T05:31:54Z</time>
      </trkpt>
      <trkpt lat="39.6664410" lon="-6.4805180">
        <ele>348.2</ele>
        <time>2019-07-10T05:32:00Z</time>
      </trkpt>
      <trkpt lat="39.6664800" lon="-6.4805430">
        <ele>348.6</ele>
        <time>2019-07-10T05:32:01Z</time>
      </trkpt>
      <trkpt lat="39.6666320" lon="-6.4806490">
        <ele>349.2</ele>
        <time>2019-07-10T05:32:05Z</time>
      </trkpt>
      <trkpt lat="39.6667160" lon="-6.4806820">
        <ele>349.6</ele>
        <time>2019-07-10T05:32:07Z</time>
      </trkpt>
      <trkpt lat="39.6667980" lon="-6.4807200">
        <ele>349.8</ele>
        <time>2019-07-10T05:32:09Z</time>
      </trkpt>
      <trkpt lat="39.6669520" lon="-6.4808250">
        <ele>350.2</ele>
        <time>2019-07-10T05:32:13Z</time>
      </trkpt>
      <trkpt lat="39.6669910" lon="-6.4808490">
        <ele>350.4</ele>
        <time>2019-07-10T05:32:14Z</time>
      </trkpt>
      <trkpt lat="39.6672390" lon="-6.4809780">
        <ele>350.8</ele>
        <time>2019-07-10T05:32:20Z</time>
      </trkpt>
      <trkpt lat="39.6673920" lon="-6.4810880">
        <ele>351.4</ele>
        <time>2019-07-10T05:32:24Z</time>
      </trkpt>
      <trkpt lat="39.6676150" lon="-6.4812780">
        <ele>352.2</ele>
        <time>2019-07-10T05:32:30Z</time>
      </trkpt>
      <trkpt lat="39.6677210" lon="-6.4813840">
        <ele>352.4</ele>
        <time>2019-07-10T05:32:33Z</time>
      </trkpt>
      <trkpt lat="39.6678920" lon="-6.4815730">
        <ele>353.0</ele>
        <time>2019-07-10T05:32:38Z</time>
      </trkpt>
      <trkpt lat="39.6679790" lon="-6.4817110">
        <ele>353.6</ele>
        <time>2019-07-10T05:32:41Z</time>
      </trkpt>
      <trkpt lat="39.6680310" lon="-6.4818120">
        <ele>353.8</ele>
        <time>2019-07-10T05:32:43Z</time>
      </trkpt>
      <trkpt lat="39.6680620" lon="-6.4818590">
        <ele>353.8</ele>
        <time>2019-07-10T05:32:44Z</time>
      </trkpt>
      <trkpt lat="39.6681510" lon="-6.4819940">
        <ele>354.4</ele>
        <time>2019-07-10T05:32:47Z</time>
      </trkpt>
      <trkpt lat="39.6681940" lon="-6.4821010">
        <ele>354.6</ele>
        <time>2019-07-10T05:32:49Z</time>
      </trkpt>
      <trkpt lat="39.6682140" lon="-6.4821560">
        <ele>354.8</ele>
        <time>2019-07-10T05:32:50Z</time>
      </trkpt>
      <trkpt lat="39.6683590" lon="-6.4825350">
        <ele>355.6</ele>
        <time>2019-07-10T05:32:57Z</time>
      </trkpt>
      <trkpt lat="39.6683890" lon="-6.4826470">
        <ele>355.8</ele>
        <time>2019-07-10T05:32:59Z</time>
      </trkpt>
      <trkpt lat="39.6684540" lon="-6.4829300">
        <ele>356.4</ele>
        <time>2019-07-10T05:33:04Z</time>
      </trkpt>
      <trkpt lat="39.6684960" lon="-6.4830990">
        <ele>356.6</ele>
        <time>2019-07-10T05:33:07Z</time>
      </trkpt>
      <trkpt lat="39.6685090" lon="-6.4831560">
        <ele>356.8</ele>
        <time>2019-07-10T05:33:08Z</time>
      </trkpt>
      <trkpt lat="39.6685760" lon="-6.4835070">
        <ele>357.8</ele>
        <time>2019-07-10T05:33:14Z</time>
      </trkpt>
      <trkpt lat="39.6686160" lon="-6.4836910">
        <ele>358.0</ele>
        <time>2019-07-10T05:33:17Z</time>
      </trkpt>
      <trkpt lat="39.6686650" lon="-6.4839410">
        <ele>358.8</ele>
        <time>2019-07-10T05:33:21Z</time>
      </trkpt>
      <trkpt lat="39.6686970" lon="-6.4841270">
        <ele>359.2</ele>
        <time>2019-07-10T05:33:24Z</time>
      </trkpt>
      <trkpt lat="39.6687860" lon="-6.4845680">
        <ele>359.8</ele>
        <time>2019-07-10T05:33:31Z</time>
      </trkpt>
      <trkpt lat="39.6687960" lon="-6.4846310">
        <ele>360.0</ele>
        <time>2019-07-10T05:33:32Z</time>
      </trkpt>
      <trkpt lat="39.6688900" lon="-6.4850530">
        <ele>360.4</ele>
        <time>2019-07-10T05:33:39Z</time>
      </trkpt>
      <trkpt lat="39.6689350" lon="-6.4852990">
        <ele>361.0</ele>
        <time>2019-07-10T05:33:43Z</time>
      </trkpt>
      <trkpt lat="39.6690080" lon="-6.4856370">
        <ele>361.4</ele>
        <time>2019-07-10T05:33:48Z</time>
      </trkpt>
      <trkpt lat="39.6690500" lon="-6.4858630">
        <ele>361.0</ele>
        <time>2019-07-10T05:33:51Z</time>
      </trkpt>
      <trkpt lat="39.6690840" lon="-6.4860220">
        <ele>360.6</ele>
        <time>2019-07-10T05:33:53Z</time>
      </trkpt>
      <trkpt lat="39.6691140" lon="-6.4861920">
        <ele>360.2</ele>
        <time>2019-07-10T05:33:55Z</time>
      </trkpt>
      <trkpt lat="39.6691460" lon="-6.4863740">
        <ele>359.8</ele>
        <time>2019-07-10T05:33:57Z</time>
      </trkpt>
      <trkpt lat="39.6692060" lon="-6.4866570">
        <ele>358.8</ele>
        <time>2019-07-10T05:34:00Z</time>
      </trkpt>
      <trkpt lat="39.6692270" lon="-6.4867560">
        <ele>358.6</ele>
        <time>2019-07-10T05:34:01Z</time>
      </trkpt>
      <trkpt lat="39.6692470" lon="-6.4868570">
        <ele>358.4</ele>
        <time>2019-07-10T05:34:02Z</time>
      </trkpt>
      <trkpt lat="39.6693080" lon="-6.4871680">
        <ele>357.6</ele>
        <time>2019-07-10T05:34:05Z</time>
      </trkpt>
      <trkpt lat="39.6693290" lon="-6.4872750">
        <ele>357.4</ele>
        <time>2019-07-10T05:34:06Z</time>
      </trkpt>
      <trkpt lat="39.6693690" lon="-6.4874910">
        <ele>356.8</ele>
        <time>2019-07-10T05:34:08Z</time>
      </trkpt>
      <trkpt lat="39.6694130" lon="-6.4877090">
        <ele>356.2</ele>
        <time>2019-07-10T05:34:10Z</time>
      </trkpt>
      <trkpt lat="39.6694600" lon="-6.4879260">
        <ele>355.6</ele>
        <time>2019-07-10T05:34:12Z</time>
      </trkpt>
      <trkpt lat="39.6695080" lon="-6.4881420">
        <ele>355.0</ele>
        <time>2019-07-10T05:34:14Z</time>
      </trkpt>
      <trkpt lat="39.6695780" lon="-6.4884630">
        <ele>354.0</ele>
        <time>2019-07-10T05:34:17Z</time>
      </trkpt>
      <trkpt lat="39.6695980" lon="-6.4885710">
        <ele>353.8</ele>
        <time>2019-07-10T05:34:18Z</time>
      </trkpt>
      <trkpt lat="39.6696420" lon="-6.4887840">
        <ele>353.2</ele>
        <time>2019-07-10T05:34:20Z</time>
      </trkpt>
      <trkpt lat="39.6696860" lon="-6.4889940">
        <ele>352.8</ele>
        <time>2019-07-10T05:34:22Z</time>
      </trkpt>
      <trkpt lat="39.6697930" lon="-6.4895200">
        <ele>351.6</ele>
        <time>2019-07-10T05:34:27Z</time>
      </trkpt>
      <trkpt lat="39.6698550" lon="-6.4898330">
        <ele>351.0</ele>
        <time>2019-07-10T05:34:30Z</time>
      </trkpt>
      <trkpt lat="39.6699170" lon="-6.4901450">
        <ele>350.6</ele>
        <time>2019-07-10T05:34:33Z</time>
      </trkpt>
      <trkpt lat="39.6700410" lon="-6.4907550">
        <ele>349.6</ele>
        <time>2019-07-10T05:34:39Z</time>
      </trkpt>
      <trkpt lat="39.6701480" lon="-6.4912600">
        <ele>348.4</ele>
        <time>2019-07-10T05:34:44Z</time>
      </trkpt>
      <trkpt lat="39.6702230" lon="-6.4916660">
        <ele>347.4</ele>
        <time>2019-07-10T05:34:48Z</time>
      </trkpt>
      <trkpt lat="39.6703080" lon="-6.4920650">
        <ele>346.8</ele>
        <time>2019-07-10T05:34:52Z</time>
      </trkpt>
      <trkpt lat="39.6703480" lon="-6.4922660">
        <ele>346.4</ele>
        <time>2019-07-10T05:34:54Z</time>
      </trkpt>
      <trkpt lat="39.6704690" lon="-6.4928570">
        <ele>345.2</ele>
        <time>2019-07-10T05:35:00Z</time>
      </trkpt>
      <trkpt lat="39.6704880" lon="-6.4929510">
        <ele>345.0</ele>
        <time>2019-07-10T05:35:01Z</time>
      </trkpt>
      <trkpt lat="39.6705780" lon="-6.4933890">
        <ele>344.8</ele>
        <time>2019-07-10T05:35:06Z</time>
      </trkpt>
      <trkpt lat="39.6706080" lon="-6.4935520">
        <ele>344.8</ele>
        <time>2019-07-10T05:35:08Z</time>
      </trkpt>
      <trkpt lat="39.6706400" lon="-6.4937080">
        <ele>345.0</ele>
        <time>2019-07-10T05:35:10Z</time>
      </trkpt>
      <trkpt lat="39.6706560" lon="-6.4937830">
        <ele>345.2</ele>
        <time>2019-07-10T05:35:11Z</time>
      </trkpt>
      <trkpt lat="39.6706920" lon="-6.4940060">
        <ele>345.4</ele>
        <time>2019-07-10T05:35:14Z</time>
      </trkpt>
      <trkpt lat="39.6707050" lon="-6.4941540">
        <ele>345.6</ele>
        <time>2019-07-10T05:35:16Z</time>
      </trkpt>
      <trkpt lat="39.6707010" lon="-6.4944490">
        <ele>345.8</ele>
        <time>2019-07-10T05:35:20Z</time>
      </trkpt>
      <trkpt lat="39.6706910" lon="-6.4947290">
        <ele>345.8</ele>
        <time>2019-07-10T05:35:24Z</time>
      </trkpt>
      <trkpt lat="39.6706800" lon="-6.4947960">
        <ele>346.0</ele>
        <time>2019-07-10T05:35:25Z</time>
      </trkpt>
      <trkpt lat="39.6706660" lon="-6.4948630">
        <ele>346.0</ele>
        <time>2019-07-10T05:35:26Z</time>
      </trkpt>
      <trkpt lat="39.6705580" lon="-6.4952640">
        <ele>346.0</ele>
        <time>2019-07-10T05:35:32Z</time>
      </trkpt>
      <trkpt lat="39.6705310" lon="-6.4953290">
        <ele>346.0</ele>
        <time>2019-07-10T05:35:33Z</time>
      </trkpt>
      <trkpt lat="39.6703630" lon="-6.4957830">
        <ele>344.8</ele>
        <time>2019-07-10T05:35:39Z</time>
      </trkpt>
      <trkpt lat="39.6702580" lon="-6.4960530">
        <ele>343.8</ele>
        <time>2019-07-10T05:35:42Z</time>
      </trkpt>
      <trkpt lat="39.6701810" lon="-6.4962540">
        <ele>342.8</ele>
        <time>2019-07-10T05:35:44Z</time>
      </trkpt>
      <trkpt lat="39.6701390" lon="-6.4963590">
        <ele>342.2</ele>
        <time>2019-07-10T05:35:45Z</time>
      </trkpt>
      <trkpt lat="39.6700520" lon="-6.4965780">
        <ele>341.2</ele>
        <time>2019-07-10T05:35:47Z</time>
      </trkpt>
      <trkpt lat="39.6699640" lon="-6.4968100">
        <ele>340.2</ele>
        <time>2019-07-10T05:35:49Z</time>
      </trkpt>
      <trkpt lat="39.6698730" lon="-6.4970510">
        <ele>338.8</ele>
        <time>2019-07-10T05:35:51Z</time>
      </trkpt>
      <trkpt lat="39.6697770" lon="-6.4972980">
        <ele>337.8</ele>
        <time>2019-07-10T05:35:53Z</time>
      </trkpt>
      <trkpt lat="39.6696810" lon="-6.4975580">
        <ele>336.4</ele>
        <time>2019-07-10T05:35:55Z</time>
      </trkpt>
      <trkpt lat="39.6695860" lon="-6.4978280">
        <ele>335.2</ele>
        <time>2019-07-10T05:35:57Z</time>
      </trkpt>
      <trkpt lat="39.6694800" lon="-6.4980980">
        <ele>334.0</ele>
        <time>2019-07-10T05:35:59Z</time>
      </trkpt>
      <trkpt lat="39.6693710" lon="-6.4983740">
        <ele>332.4</ele>
        <time>2019-07-10T05:36:01Z</time>
      </trkpt>
      <trkpt lat="39.6692640" lon="-6.4986570">
        <ele>331.0</ele>
        <time>2019-07-10T05:36:03Z</time>
      </trkpt>
      <trkpt lat="39.6691550" lon="-6.4989440">
        <ele>329.6</ele>
        <time>2019-07-10T05:36:05Z</time>
      </trkpt>
      <trkpt lat="39.6691000" lon="-6.4990900">
        <ele>328.6</ele>
        <time>2019-07-10T05:36:06Z</time>
      </trkpt>
      <trkpt lat="39.6689890" lon="-6.4993830">
        <ele>327.2</ele>
        <time>2019-07-10T05:36:08Z</time>
      </trkpt>
      <trkpt lat="39.6688630" lon="-6.4996650">
        <ele>325.4</ele>
        <time>2019-07-10T05:36:10Z</time>
      </trkpt>
      <trkpt lat="39.6687870" lon="-6.4997940">
        <ele>324.8</ele>
        <time>2019-07-10T05:36:11Z</time>
      </trkpt>
      <trkpt lat="39.6686980" lon="-6.4999110">
        <ele>324.2</ele>
        <time>2019-07-10T05:36:12Z</time>
      </trkpt>
      <trkpt lat="39.6686010" lon="-6.5000160">
        <ele>323.6</ele>
        <time>2019-07-10T05:36:13Z</time>
      </trkpt>
      <trkpt lat="39.6684990" lon="-6.5001140">
        <ele>322.4</ele>
        <time>2019-07-10T05:36:14Z</time>
      </trkpt>
      <trkpt lat="39.6682920" lon="-6.5003060">
        <ele>320.8</ele>
        <time>2019-07-10T05:36:16Z</time>
      </trkpt>
      <trkpt lat="39.6680890" lon="-6.5004880">
        <ele>319.2</ele>
        <time>2019-07-10T05:36:18Z</time>
      </trkpt>
      <trkpt lat="39.6679900" lon="-6.5005760">
        <ele>318.4</ele>
        <time>2019-07-10T05:36:19Z</time>
      </trkpt>
      <trkpt lat="39.6678950" lon="-6.5006720">
        <ele>317.8</ele>
        <time>2019-07-10T05:36:20Z</time>
      </trkpt>
      <trkpt lat="39.6678070" lon="-6.5007790">
        <ele>317.2</ele>
        <time>2019-07-10T05:36:21Z</time>
      </trkpt>
      <trkpt lat="39.6677320" lon="-6.5009030">
        <ele>315.6</ele>
        <time>2019-07-10T05:36:22Z</time>
      </trkpt>
      <trkpt lat="39.6676340" lon="-6.5011890">
        <ele>314.0</ele>
        <time>2019-07-10T05:36:24Z</time>
      </trkpt>
      <trkpt lat="39.6676130" lon="-6.5013460">
        <ele>313.2</ele>
        <time>2019-07-10T05:36:25Z</time>
      </trkpt>
      <trkpt lat="39.6676120" lon="-6.5015070">
        <ele>312.6</ele>
        <time>2019-07-10T05:36:26Z</time>
      </trkpt>
      <trkpt lat="39.6676450" lon="-6.5018250">
        <ele>310.8</ele>
        <time>2019-07-10T05:36:28Z</time>
      </trkpt>
      <trkpt lat="39.6676840" lon="-6.5021460">
        <ele>309.2</ele>
        <time>2019-07-10T05:36:30Z</time>
      </trkpt>
      <trkpt lat="39.6677170" lon="-6.5024740">
        <ele>307.8</ele>
        <time>2019-07-10T05:36:32Z</time>
      </trkpt>
      <trkpt lat="39.6677540" lon="-6.5028010">
        <ele>306.4</ele>
        <time>2019-07-10T05:36:34Z</time>
      </trkpt>
      <trkpt lat="39.6677730" lon="-6.5029640">
        <ele>305.8</ele>
        <time>2019-07-10T05:36:35Z</time>
      </trkpt>
      <trkpt lat="39.6677910" lon="-6.5031280">
        <ele>305.0</ele>
        <time>2019-07-10T05:36:36Z</time>
      </trkpt>
      <trkpt lat="39.6678290" lon="-6.5034520">
        <ele>303.0</ele>
        <time>2019-07-10T05:36:38Z</time>
      </trkpt>
      <trkpt lat="39.6678670" lon="-6.5037730">
        <ele>301.6</ele>
        <time>2019-07-10T05:36:40Z</time>
      </trkpt>
      <trkpt lat="39.6678980" lon="-6.5040910">
        <ele>300.2</ele>
        <time>2019-07-10T05:36:42Z</time>
      </trkpt>
      <trkpt lat="39.6679030" lon="-6.5044090">
        <ele>298.6</ele>
        <time>2019-07-10T05:36:44Z</time>
      </trkpt>
      <trkpt lat="39.6678650" lon="-6.5047240">
        <ele>296.8</ele>
        <time>2019-07-10T05:36:46Z</time>
      </trkpt>
      <trkpt lat="39.6678330" lon="-6.5048790">
        <ele>296.4</ele>
        <time>2019-07-10T05:36:47Z</time>
      </trkpt>
      <trkpt lat="39.6677970" lon="-6.5050330">
        <ele>295.6</ele>
        <time>2019-07-10T05:36:48Z</time>
      </trkpt>
      <trkpt lat="39.6677260" lon="-6.5053410">
        <ele>293.6</ele>
        <time>2019-07-10T05:36:50Z</time>
      </trkpt>
      <trkpt lat="39.6676540" lon="-6.5056480">
        <ele>292.0</ele>
        <time>2019-07-10T05:36:52Z</time>
      </trkpt>
      <trkpt lat="39.6675780" lon="-6.5059540">
        <ele>290.8</ele>
        <time>2019-07-10T05:36:54Z</time>
      </trkpt>
      <trkpt lat="39.6675400" lon="-6.5061070">
        <ele>289.8</ele>
        <time>2019-07-10T05:36:55Z</time>
      </trkpt>
      <trkpt lat="39.6674630" lon="-6.5064130">
        <ele>288.4</ele>
        <time>2019-07-10T05:36:57Z</time>
      </trkpt>
      <trkpt lat="39.6673890" lon="-6.5067190">
        <ele>286.8</ele>
        <time>2019-07-10T05:36:59Z</time>
      </trkpt>
      <trkpt lat="39.6673570" lon="-6.5068740">
        <ele>285.8</ele>
        <time>2019-07-10T05:37:00Z</time>
      </trkpt>
      <trkpt lat="39.6673340" lon="-6.5070310">
        <ele>285.2</ele>
        <time>2019-07-10T05:37:01Z</time>
      </trkpt>
      <trkpt lat="39.6673220" lon="-6.5071900">
        <ele>284.4</ele>
        <time>2019-07-10T05:37:02Z</time>
      </trkpt>
      <trkpt lat="39.6673360" lon="-6.5075090">
        <ele>282.8</ele>
        <time>2019-07-10T05:37:04Z</time>
      </trkpt>
      <trkpt lat="39.6673640" lon="-6.5076640">
        <ele>282.0</ele>
        <time>2019-07-10T05:37:05Z</time>
      </trkpt>
      <trkpt lat="39.6674060" lon="-6.5078130">
        <ele>281.2</ele>
        <time>2019-07-10T05:37:06Z</time>
      </trkpt>
      <trkpt lat="39.6675250" lon="-6.5080950">
        <ele>279.4</ele>
        <time>2019-07-10T05:37:08Z</time>
      </trkpt>
      <trkpt lat="39.6676860" lon="-6.5083380">
        <ele>278.0</ele>
        <time>2019-07-10T05:37:10Z</time>
      </trkpt>
      <trkpt lat="39.6677790" lon="-6.5084420">
        <ele>277.0</ele>
        <time>2019-07-10T05:37:11Z</time>
      </trkpt>
      <trkpt lat="39.6678750" lon="-6.5085390">
        <ele>276.4</ele>
        <time>2019-07-10T05:37:12Z</time>
      </trkpt>
      <trkpt lat="39.6679740" lon="-6.5086320">
        <ele>275.8</ele>
        <time>2019-07-10T05:37:13Z</time>
      </trkpt>
      <trkpt lat="39.6680720" lon="-6.5087270">
        <ele>275.4</ele>
        <time>2019-07-10T05:37:14Z</time>
      </trkpt>
      <trkpt lat="39.6682660" lon="-6.5089200">
        <ele>274.0</ele>
        <time>2019-07-10T05:37:16Z</time>
      </trkpt>
      <trkpt lat="39.6683630" lon="-6.5090170">
        <ele>273.0</ele>
        <time>2019-07-10T05:37:17Z</time>
      </trkpt>
      <trkpt lat="39.6684600" lon="-6.5091130">
        <ele>272.4</ele>
        <time>2019-07-10T05:37:18Z</time>
      </trkpt>
      <trkpt lat="39.6686560" lon="-6.5093020">
        <ele>270.8</ele>
        <time>2019-07-10T05:37:20Z</time>
      </trkpt>
      <trkpt lat="39.6688510" lon="-6.5094960">
        <ele>269.0</ele>
        <time>2019-07-10T05:37:22Z</time>
      </trkpt>
      <trkpt lat="39.6690430" lon="-6.5096920">
        <ele>267.8</ele>
        <time>2019-07-10T05:37:24Z</time>
      </trkpt>
      <trkpt lat="39.6692370" lon="-6.5098830">
        <ele>266.4</ele>
        <time>2019-07-10T05:37:26Z</time>
      </trkpt>
      <trkpt lat="39.6693350" lon="-6.5099710">
        <ele>265.4</ele>
        <time>2019-07-10T05:37:27Z</time>
      </trkpt>
      <trkpt lat="39.6695430" lon="-6.5101210">
        <ele>264.0</ele>
        <time>2019-07-10T05:37:29Z</time>
      </trkpt>
      <trkpt lat="39.6696520" lon="-6.5101790">
        <ele>263.4</ele>
        <time>2019-07-10T05:37:30Z</time>
      </trkpt>
      <trkpt lat="39.6697610" lon="-6.5102220">
        <ele>263.0</ele>
        <time>2019-07-10T05:37:31Z</time>
      </trkpt>
      <trkpt lat="39.6698680" lon="-6.5102550">
        <ele>262.8</ele>
        <time>2019-07-10T05:37:32Z</time>
      </trkpt>
      <trkpt lat="39.6701780" lon="-6.5103300">
        <ele>262.2</ele>
        <time>2019-07-10T05:37:35Z</time>
      </trkpt>
      <trkpt lat="39.6702770" lon="-6.5103540">
        <ele>262.2</ele>
        <time>2019-07-10T05:37:36Z</time>
      </trkpt>
      <trkpt lat="39.6705610" lon="-6.5104310">
        <ele>261.6</ele>
        <time>2019-07-10T05:37:39Z</time>
      </trkpt>
      <trkpt lat="39.6709200" lon="-6.5105150">
        <ele>260.8</ele>
        <time>2019-07-10T05:37:43Z</time>
      </trkpt>
      <trkpt lat="39.6710890" lon="-6.5105520">
        <ele>260.6</ele>
        <time>2019-07-10T05:37:45Z</time>
      </trkpt>
      <trkpt lat="39.6713330" lon="-6.5106110">
        <ele>260.2</ele>
        <time>2019-07-10T05:37:48Z</time>
      </trkpt>
      <trkpt lat="39.6714130" lon="-6.5106290">
        <ele>260.0</ele>
        <time>2019-07-10T05:37:49Z</time>
      </trkpt>
      <trkpt lat="39.6715680" lon="-6.5106680">
        <ele>259.8</ele>
        <time>2019-07-10T05:37:51Z</time>
      </trkpt>
      <trkpt lat="39.6717220" lon="-6.5107090">
        <ele>259.6</ele>
        <time>2019-07-10T05:37:53Z</time>
      </trkpt>
      <trkpt lat="39.6722460" lon="-6.5108680">
        <ele>258.6</ele>
        <time>2019-07-10T05:38:00Z</time>
      </trkpt>
      <trkpt lat="39.6723810" lon="-6.5109540">
        <ele>258.2</ele>
        <time>2019-07-10T05:38:02Z</time>
      </trkpt>
      <trkpt lat="39.6724920" lon="-6.5110760">
        <ele>257.8</ele>
        <time>2019-07-10T05:38:04Z</time>
      </trkpt>
      <trkpt lat="39.6726280" lon="-6.5114000">
        <ele>257.6</ele>
        <time>2019-07-10T05:38:08Z</time>
      </trkpt>
      <trkpt lat="39.6726440" lon="-6.5114870">
        <ele>257.4</ele>
        <time>2019-07-10T05:38:09Z</time>
      </trkpt>
      <trkpt lat="39.6726600" lon="-6.5116660">
        <ele>257.4</ele>
        <time>2019-07-10T05:38:11Z</time>
      </trkpt>
      <trkpt lat="39.6726670" lon="-6.5118490">
        <ele>257.2</ele>
        <time>2019-07-10T05:38:13Z</time>
      </trkpt>
      <trkpt lat="39.6726740" lon="-6.5120290">
        <ele>257.0</ele>
        <time>2019-07-10T05:38:15Z</time>
      </trkpt>
      <trkpt lat="39.6726870" lon="-6.5123790">
        <ele>256.8</ele>
        <time>2019-07-10T05:38:19Z</time>
      </trkpt>
      <trkpt lat="39.6726930" lon="-6.5125480">
        <ele>257.0</ele>
        <time>2019-07-10T05:38:21Z</time>
      </trkpt>
      <trkpt lat="39.6727080" lon="-6.5127940">
        <ele>256.8</ele>
        <time>2019-07-10T05:38:24Z</time>
      </trkpt>
      <trkpt lat="39.6727200" lon="-6.5132770">
        <ele>256.6</ele>
        <time>2019-07-10T05:38:30Z</time>
      </trkpt>
      <trkpt lat="39.6727530" lon="-6.5139650">
        <ele>257.2</ele>
        <time>2019-07-10T05:38:39Z</time>
      </trkpt>
      <trkpt lat="39.6727550" lon="-6.5141590">
        <ele>257.6</ele>
        <time>2019-07-10T05:38:42Z</time>
      </trkpt>
      <trkpt lat="39.6727590" lon="-6.5143370">
        <ele>258.2</ele>
        <time>2019-07-10T05:38:45Z</time>
      </trkpt>
      <trkpt lat="39.6727600" lon="-6.5143930">
        <ele>258.4</ele>
        <time>2019-07-10T05:38:46Z</time>
      </trkpt>
      <trkpt lat="39.6727600" lon="-6.5144470">
        <ele>258.8</ele>
        <time>2019-07-10T05:38:47Z</time>
      </trkpt>
      <trkpt lat="39.6727640" lon="-6.5145490">
        <ele>259.4</ele>
        <time>2019-07-10T05:38:49Z</time>
      </trkpt>
      <trkpt lat="39.6727680" lon="-6.5146480">
        <ele>259.8</ele>
        <time>2019-07-10T05:38:51Z</time>
      </trkpt>
      <trkpt lat="39.6727730" lon="-6.5147450">
        <ele>260.4</ele>
        <time>2019-07-10T05:38:53Z</time>
      </trkpt>
      <trkpt lat="39.6727750" lon="-6.5147930">
        <ele>260.6</ele>
        <time>2019-07-10T05:38:54Z</time>
      </trkpt>
      <trkpt lat="39.6727770" lon="-6.5148870">
        <ele>261.0</ele>
        <time>2019-07-10T05:38:56Z</time>
      </trkpt>
      <trkpt lat="39.6727780" lon="-6.5150260">
        <ele>261.8</ele>
        <time>2019-07-10T05:38:59Z</time>
      </trkpt>
      <trkpt lat="39.6727770" lon="-6.5151190">
        <ele>262.2</ele>
        <time>2019-07-10T05:39:01Z</time>
      </trkpt>
      <trkpt lat="39.6727820" lon="-6.5152110">
        <ele>262.6</ele>
        <time>2019-07-10T05:39:03Z</time>
      </trkpt>
      <trkpt lat="39.6727860" lon="-6.5153480">
        <ele>263.2</ele>
        <time>2019-07-10T05:39:06Z</time>
      </trkpt>
      <trkpt lat="39.6727840" lon="-6.5155850">
        <ele>264.2</ele>
        <time>2019-07-10T05:39:11Z</time>
      </trkpt>
      <trkpt lat="39.6727820" lon="-6.5156830">
        <ele>264.8</ele>
        <time>2019-07-10T05:39:13Z</time>
      </trkpt>
      <trkpt lat="39.6727830" lon="-6.5157310">
        <ele>265.0</ele>
        <time>2019-07-10T05:39:14Z</time>
      </trkpt>
      <trkpt lat="39.6727860" lon="-6.5158270">
        <ele>265.4</ele>
        <time>2019-07-10T05:39:16Z</time>
      </trkpt>
      <trkpt lat="39.6727950" lon="-6.5160220">
        <ele>266.8</ele>
        <time>2019-07-10T05:39:20Z</time>
      </trkpt>
      <trkpt lat="39.6728230" lon="-6.5161640">
        <ele>267.0</ele>
        <time>2019-07-10T05:39:23Z</time>
      </trkpt>
      <trkpt lat="39.6728910" lon="-6.5163260">
        <ele>268.2</ele>
        <time>2019-07-10T05:39:27Z</time>
      </trkpt>
      <trkpt lat="39.6729380" lon="-6.5163920">
        <ele>268.6</ele>
        <time>2019-07-10T05:39:29Z</time>
      </trkpt>
      <trkpt lat="39.6730520" lon="-6.5164970">
        <ele>269.4</ele>
        <time>2019-07-10T05:39:33Z</time>
      </trkpt>
      <trkpt lat="39.6731180" lon="-6.5165320">
        <ele>270.0</ele>
        <time>2019-07-10T05:39:35Z</time>
      </trkpt>
      <trkpt lat="39.6731860" lon="-6.5165610">
        <ele>270.6</ele>
        <time>2019-07-10T05:39:37Z</time>
      </trkpt>
      <trkpt lat="39.6733230" lon="-6.5165750">
        <ele>271.4</ele>
        <time>2019-07-10T05:39:41Z</time>
      </trkpt>
      <trkpt lat="39.6733570" lon="-6.5165730">
        <ele>271.6</ele>
        <time>2019-07-10T05:39:42Z</time>
      </trkpt>
      <trkpt lat="39.6735170" lon="-6.5165190">
        <ele>273.0</ele>
        <time>2019-07-10T05:39:47Z</time>
      </trkpt>
      <trkpt lat="39.6736530" lon="-6.5164030">
        <ele>274.0</ele>
        <time>2019-07-10T05:39:52Z</time>
      </trkpt>
      <trkpt lat="39.6736740" lon="-6.5163700">
        <ele>274.2</ele>
        <time>2019-07-10T05:39:53Z</time>
      </trkpt>
      <trkpt lat="39.6737580" lon="-6.5162300">
        <ele>275.2</ele>
        <time>2019-07-10T05:39:57Z</time>
      </trkpt>
      <trkpt lat="39.6738440" lon="-6.5160920">
        <ele>276.0</ele>
        <time>2019-07-10T05:40:01Z</time>
      </trkpt>
      <trkpt lat="39.6738640" lon="-6.5160570">
        <ele>276.2</ele>
        <time>2019-07-10T05:40:02Z</time>
      </trkpt>
      <trkpt lat="39.6739670" lon="-6.5158830">
        <ele>277.4</ele>
        <time>2019-07-10T05:40:07Z</time>
      </trkpt>
      <trkpt lat="39.6740340" lon="-6.5157820">
        <ele>277.8</ele>
        <time>2019-07-10T05:40:10Z</time>
      </trkpt>
      <trkpt lat="39.6741160" lon="-6.5156410">
        <ele>278.4</ele>
        <time>2019-07-10T05:40:14Z</time>
      </trkpt>
      <trkpt lat="39.6741990" lon="-6.5155090">
        <ele>279.6</ele>
        <time>2019-07-10T05:40:18Z</time>
      </trkpt>
      <trkpt lat="39.6742990" lon="-6.5153510">
        <ele>280.6</ele>
        <time>2019-07-10T05:40:23Z</time>
      </trkpt>
      <trkpt lat="39.6743670" lon="-6.5152640">
        <ele>281.4</ele>
        <time>2019-07-10T05:40:26Z</time>
      </trkpt>
      <trkpt lat="39.6744140" lon="-6.5152080">
        <ele>281.6</ele>
        <time>2019-07-10T05:40:28Z</time>
      </trkpt>
      <trkpt lat="39.6745190" lon="-6.5150740">
        <ele>282.8</ele>
        <time>2019-07-10T05:40:33Z</time>
      </trkpt>
      <trkpt lat="39.6745640" lon="-6.5150250">
        <ele>283.0</ele>
        <time>2019-07-10T05:40:35Z</time>
      </trkpt>
      <trkpt lat="39.6746580" lon="-6.5149250">
        <ele>283.8</ele>
        <time>2019-07-10T05:40:39Z</time>
      </trkpt>
      <trkpt lat="39.6747550" lon="-6.5148290">
        <ele>284.4</ele>
        <time>2019-07-10T05:40:43Z</time>
      </trkpt>
      <trkpt lat="39.6748580" lon="-6.5147380">
        <ele>285.2</ele>
        <time>2019-07-10T05:40:47Z</time>
      </trkpt>
      <trkpt lat="39.6749390" lon="-6.5146730">
        <ele>286.0</ele>
        <time>2019-07-10T05:40:50Z</time>
      </trkpt>
      <trkpt lat="39.6749660" lon="-6.5146540">
        <ele>286.2</ele>
        <time>2019-07-10T05:40:51Z</time>
      </trkpt>
      <trkpt lat="39.6751200" lon="-6.5145720">
        <ele>287.2</ele>
        <time>2019-07-10T05:40:56Z</time>
      </trkpt>
      <trkpt lat="39.6751860" lon="-6.5145410">
        <ele>287.6</ele>
        <time>2019-07-10T05:40:58Z</time>
      </trkpt>
      <trkpt lat="39.6753230" lon="-6.5144940">
        <ele>288.4</ele>
        <time>2019-07-10T05:41:02Z</time>
      </trkpt>
      <trkpt lat="39.6754570" lon="-6.5144650">
        <ele>289.4</ele>
        <time>2019-07-10T05:41:06Z</time>
      </trkpt>
      <trkpt lat="39.6756580" lon="-6.5144290">
        <ele>290.6</ele>
        <time>2019-07-10T05:41:12Z</time>
      </trkpt>
      <trkpt lat="39.6756920" lon="-6.5144280">
        <ele>291.0</ele>
        <time>2019-07-10T05:41:13Z</time>
      </trkpt>
      <trkpt lat="39.6757950" lon="-6.5144280">
        <ele>291.8</ele>
        <time>2019-07-10T05:41:16Z</time>
      </trkpt>
      <trkpt lat="39.6759390" lon="-6.5144410">
        <ele>292.6</ele>
        <time>2019-07-10T05:41:20Z</time>
      </trkpt>
      <trkpt lat="39.6760170" lon="-6.5144550">
        <ele>292.8</ele>
        <time>2019-07-10T05:41:22Z</time>
      </trkpt>
      <trkpt lat="39.6762420" lon="-6.5145080">
        <ele>293.6</ele>
        <time>2019-07-10T05:41:28Z</time>
      </trkpt>
      <trkpt lat="39.6764630" lon="-6.5146110">
        <ele>294.0</ele>
        <time>2019-07-10T05:41:34Z</time>
      </trkpt>
      <trkpt lat="39.6765000" lon="-6.5146340">
        <ele>294.0</ele>
        <time>2019-07-10T05:41:35Z</time>
      </trkpt>
      <trkpt lat="39.6767580" lon="-6.5148030">
        <ele>294.4</ele>
        <time>2019-07-10T05:41:42Z</time>
      </trkpt>
      <trkpt lat="39.6768280" lon="-6.5148590">
        <ele>294.4</ele>
        <time>2019-07-10T05:41:44Z</time>
      </trkpt>
      <trkpt lat="39.6769340" lon="-6.5149470">
        <ele>294.4</ele>
        <time>2019-07-10T05:41:47Z</time>
      </trkpt>
      <trkpt lat="39.6770460" lon="-6.5150230">
        <ele>294.4</ele>
        <time>2019-07-10T05:41:50Z</time>
      </trkpt>
      <trkpt lat="39.6770820" lon="-6.5150500">
        <ele>294.6</ele>
        <time>2019-07-10T05:41:51Z</time>
      </trkpt>
      <trkpt lat="39.6771540" lon="-6.5151070">
        <ele>294.6</ele>
        <time>2019-07-10T05:41:53Z</time>
      </trkpt>
      <trkpt lat="39.6772980" lon="-6.5152200">
        <ele>294.8</ele>
        <time>2019-07-10T05:41:57Z</time>
      </trkpt>
      <trkpt lat="39.6774700" lon="-6.5153630">
        <ele>294.8</ele>
        <time>2019-07-10T05:42:02Z</time>
      </trkpt>
      <trkpt lat="39.6775400" lon="-6.5154110">
        <ele>295.0</ele>
        <time>2019-07-10T05:42:04Z</time>
      </trkpt>
      <trkpt lat="39.6777320" lon="-6.5155620">
        <ele>295.8</ele>
        <time>2019-07-10T05:42:10Z</time>
      </trkpt>
      <trkpt lat="39.6777930" lon="-6.5156100">
        <ele>296.0</ele>
        <time>2019-07-10T05:42:12Z</time>
      </trkpt>
      <trkpt lat="39.6779640" lon="-6.5157520">
        <ele>297.2</ele>
        <time>2019-07-10T05:42:18Z</time>
      </trkpt>
      <trkpt lat="39.6780210" lon="-6.5158020">
        <ele>297.4</ele>
        <time>2019-07-10T05:42:20Z</time>
      </trkpt>
      <trkpt lat="39.6781590" lon="-6.5159270">
        <ele>298.2</ele>
        <time>2019-07-10T05:42:25Z</time>
      </trkpt>
      <trkpt lat="39.6782430" lon="-6.5159880">
        <ele>298.6</ele>
        <time>2019-07-10T05:42:28Z</time>
      </trkpt>
      <trkpt lat="39.6783240" lon="-6.5160630">
        <ele>299.2</ele>
        <time>2019-07-10T05:42:31Z</time>
      </trkpt>
      <trkpt lat="39.6784890" lon="-6.5162060">
        <ele>300.2</ele>
        <time>2019-07-10T05:42:37Z</time>
      </trkpt>
      <trkpt lat="39.6785140" lon="-6.5162340">
        <ele>300.4</ele>
        <time>2019-07-10T05:42:38Z</time>
      </trkpt>
      <trkpt lat="39.6786800" lon="-6.5163760">
        <ele>301.4</ele>
        <time>2019-07-10T05:42:44Z</time>
      </trkpt>
      <trkpt lat="39.6787080" lon="-6.5163990">
        <ele>301.6</ele>
        <time>2019-07-10T05:42:45Z</time>
      </trkpt>
      <trkpt lat="39.6788710" lon="-6.5165440">
        <ele>302.6</ele>
        <time>2019-07-10T05:42:51Z</time>
      </trkpt>
      <trkpt lat="39.6789760" lon="-6.5166400">
        <ele>303.4</ele>
        <time>2019-07-10T05:42:55Z</time>
      </trkpt>
      <trkpt lat="39.6790240" lon="-6.5166930">
        <ele>303.8</ele>
        <time>2019-07-10T05:42:57Z</time>
      </trkpt>
      <trkpt lat="39.6791280" lon="-6.5167890">
        <ele>304.4</ele>
        <time>2019-07-10T05:43:01Z</time>
      </trkpt>
      <trkpt lat="39.6792080" lon="-6.5168630">
        <ele>304.8</ele>
        <time>2019-07-10T05:43:04Z</time>
      </trkpt>
      <trkpt lat="39.6793080" lon="-6.5169660">
        <ele>305.6</ele>
        <time>2019-07-10T05:43:08Z</time>
      </trkpt>
      <trkpt lat="39.6793590" lon="-6.5170150">
        <ele>306.0</ele>
        <time>2019-07-10T05:43:10Z</time>
      </trkpt>
      <trkpt lat="39.6795390" lon="-6.5171950">
        <ele>307.0</ele>
        <time>2019-07-10T05:43:17Z</time>
      </trkpt>
      <trkpt lat="39.6796950" lon="-6.5173540">
        <ele>308.2</ele>
        <time>2019-07-10T05:43:23Z</time>
      </trkpt>
      <trkpt lat="39.6798160" lon="-6.5174990">
        <ele>309.0</ele>
        <time>2019-07-10T05:43:28Z</time>
      </trkpt>
      <trkpt lat="39.6798690" lon="-6.5175510">
        <ele>309.2</ele>
        <time>2019-07-10T05:43:30Z</time>
      </trkpt>
      <trkpt lat="39.6800030" lon="-6.5177010">
        <ele>310.2</ele>
        <time>2019-07-10T05:43:35Z</time>
      </trkpt>
      <trkpt lat="39.6801810" lon="-6.5178840">
        <ele>311.4</ele>
        <time>2019-07-10T05:43:41Z</time>
      </trkpt>
      <trkpt lat="39.6802710" lon="-6.5179740">
        <ele>312.0</ele>
        <time>2019-07-10T05:43:44Z</time>
      </trkpt>
      <trkpt lat="39.6803560" lon="-6.5180660">
        <ele>312.4</ele>
        <time>2019-07-10T05:43:47Z</time>
      </trkpt>
      <trkpt lat="39.6805290" lon="-6.5182460">
        <ele>313.6</ele>
        <time>2019-07-10T05:43:53Z</time>
      </trkpt>
      <trkpt lat="39.6805580" lon="-6.5182770">
        <ele>313.8</ele>
        <time>2019-07-10T05:43:54Z</time>
      </trkpt>
      <trkpt lat="39.6807270" lon="-6.5184620">
        <ele>315.0</ele>
        <time>2019-07-10T05:44:00Z</time>
      </trkpt>
      <trkpt lat="39.6808090" lon="-6.5185560">
        <ele>315.4</ele>
        <time>2019-07-10T05:44:03Z</time>
      </trkpt>
      <trkpt lat="39.6808890" lon="-6.5186460">
        <ele>316.0</ele>
        <time>2019-07-10T05:44:06Z</time>
      </trkpt>
      <trkpt lat="39.6810250" lon="-6.5187930">
        <ele>317.0</ele>
        <time>2019-07-10T05:44:11Z</time>
      </trkpt>
      <trkpt lat="39.6810790" lon="-6.5188540">
        <ele>317.4</ele>
        <time>2019-07-10T05:44:13Z</time>
      </trkpt>
      <trkpt lat="39.6811590" lon="-6.5189400">
        <ele>318.0</ele>
        <time>2019-07-10T05:44:16Z</time>
      </trkpt>
      <trkpt lat="39.6812950" lon="-6.5190870">
        <ele>318.8</ele>
        <time>2019-07-10T05:44:21Z</time>
      </trkpt>
      <trkpt lat="39.6813220" lon="-6.5191160">
        <ele>319.0</ele>
        <time>2019-07-10T05:44:22Z</time>
      </trkpt>
      <trkpt lat="39.6814810" lon="-6.5192910">
        <ele>320.0</ele>
        <time>2019-07-10T05:44:28Z</time>
      </trkpt>
      <trkpt lat="39.6815330" lon="-6.5193460">
        <ele>320.6</ele>
        <time>2019-07-10T05:44:30Z</time>
      </trkpt>
      <trkpt lat="39.6815840" lon="-6.5194040">
        <ele>321.2</ele>
        <time>2019-07-10T05:44:32Z</time>
      </trkpt>
      <trkpt lat="39.6817430" lon="-6.5195760">
        <ele>322.2</ele>
        <time>2019-07-10T05:44:38Z</time>
      </trkpt>
      <trkpt lat="39.6817690" lon="-6.5196060">
        <ele>322.2</ele>
        <time>2019-07-10T05:44:39Z</time>
      </trkpt>
      <trkpt lat="39.6819310" lon="-6.5197810">
        <ele>323.2</ele>
        <time>2019-07-10T05:44:45Z</time>
      </trkpt>
      <trkpt lat="39.6820110" lon="-6.5198700">
        <ele>323.8</ele>
        <time>2019-07-10T05:44:48Z</time>
      </trkpt>
      <trkpt lat="39.6821220" lon="-6.5199840">
        <ele>324.4</ele>
        <time>2019-07-10T05:44:52Z</time>
      </trkpt>
      <trkpt lat="39.6822300" lon="-6.5201030">
        <ele>325.4</ele>
        <time>2019-07-10T05:44:56Z</time>
      </trkpt>
      <trkpt lat="39.6822560" lon="-6.5201330">
        <ele>325.6</ele>
        <time>2019-07-10T05:44:57Z</time>
      </trkpt>
      <trkpt lat="39.6822830" lon="-6.5201620">
        <ele>325.8</ele>
        <time>2019-07-10T05:44:58Z</time>
      </trkpt>
      <trkpt lat="39.6824180" lon="-6.5203080">
        <ele>326.8</ele>
        <time>2019-07-10T05:45:03Z</time>
      </trkpt>
      <trkpt lat="39.6824730" lon="-6.5203710">
        <ele>327.2</ele>
        <time>2019-07-10T05:45:05Z</time>
      </trkpt>
      <trkpt lat="39.6825830" lon="-6.5204900">
        <ele>327.8</ele>
        <time>2019-07-10T05:45:09Z</time>
      </trkpt>
      <trkpt lat="39.6827220" lon="-6.5206430">
        <ele>328.6</ele>
        <time>2019-07-10T05:45:14Z</time>
      </trkpt>
      <trkpt lat="39.6827770" lon="-6.5207040">
        <ele>328.8</ele>
        <time>2019-07-10T05:45:16Z</time>
      </trkpt>
      <trkpt lat="39.6829150" lon="-6.5208520">
        <ele>330.0</ele>
        <time>2019-07-10T05:45:21Z</time>
      </trkpt>
      <trkpt lat="39.6829700" lon="-6.5209130">
        <ele>330.2</ele>
        <time>2019-07-10T05:45:23Z</time>
      </trkpt>
      <trkpt lat="39.6830800" lon="-6.5210330">
        <ele>331.0</ele>
        <time>2019-07-10T05:45:27Z</time>
      </trkpt>
      <trkpt lat="39.6831900" lon="-6.5211510">
        <ele>332.2</ele>
        <time>2019-07-10T05:45:31Z</time>
      </trkpt>
      <trkpt lat="39.6832160" lon="-6.5211820">
        <ele>332.4</ele>
        <time>2019-07-10T05:45:32Z</time>
      </trkpt>
      <trkpt lat="39.6833490" lon="-6.5213320">
        <ele>333.4</ele>
        <time>2019-07-10T05:45:37Z</time>
      </trkpt>
      <trkpt lat="39.6834320" lon="-6.5214220">
        <ele>334.0</ele>
        <time>2019-07-10T05:45:40Z</time>
      </trkpt>
      <trkpt lat="39.6835180" lon="-6.5215070">
        <ele>334.4</ele>
        <time>2019-07-10T05:45:43Z</time>
      </trkpt>
      <trkpt lat="39.6836860" lon="-6.5216960">
        <ele>335.6</ele>
        <time>2019-07-10T05:45:49Z</time>
      </trkpt>
      <trkpt lat="39.6837130" lon="-6.5217280">
        <ele>335.8</ele>
        <time>2019-07-10T05:45:50Z</time>
      </trkpt>
      <trkpt lat="39.6838250" lon="-6.5218530">
        <ele>336.6</ele>
        <time>2019-07-10T05:45:54Z</time>
      </trkpt>
      <trkpt lat="39.6839350" lon="-6.5219780">
        <ele>337.2</ele>
        <time>2019-07-10T05:45:58Z</time>
      </trkpt>
      <trkpt lat="39.6840240" lon="-6.5220650">
        <ele>337.8</ele>
        <time>2019-07-10T05:46:01Z</time>
      </trkpt>
      <trkpt lat="39.6841690" lon="-6.5222170">
        <ele>339.0</ele>
        <time>2019-07-10T05:46:06Z</time>
      </trkpt>
      <trkpt lat="39.6841970" lon="-6.5222500">
        <ele>339.2</ele>
        <time>2019-07-10T05:46:07Z</time>
      </trkpt>
      <trkpt lat="39.6842540" lon="-6.5223160">
        <ele>340.0</ele>
        <time>2019-07-10T05:46:09Z</time>
      </trkpt>
      <trkpt lat="39.6844480" lon="-6.5224990">
        <ele>341.0</ele>
        <time>2019-07-10T05:46:15Z</time>
      </trkpt>
      <trkpt lat="39.6844810" lon="-6.5225290">
        <ele>341.2</ele>
        <time>2019-07-10T05:46:16Z</time>
      </trkpt>
      <trkpt lat="39.6846610" lon="-6.5226720">
        <ele>342.2</ele>
        <time>2019-07-10T05:46:21Z</time>
      </trkpt>
      <trkpt lat="39.6848320" lon="-6.5228080">
        <ele>342.2</ele>
        <time>2019-07-10T05:46:26Z</time>
      </trkpt>
      <trkpt lat="39.6848700" lon="-6.5228900">
        <ele>342.4</ele>
        <time>2019-07-10T05:46:28Z</time>
      </trkpt>
      <trkpt lat="39.6848750" lon="-6.5229360">
        <ele>342.4</ele>
        <time>2019-07-10T05:46:29Z</time>
      </trkpt>
      <trkpt lat="39.6848700" lon="-6.5231090">
        <ele>343.2</ele>
        <time>2019-07-10T05:46:34Z</time>
      </trkpt>
      <trkpt lat="39.6848680" lon="-6.5231420">
        <ele>343.6</ele>
        <time>2019-07-10T05:46:37Z</time>
      </trkpt>
      <trkpt lat="39.6848720" lon="-6.5231790">
        <ele>344.0</ele>
        <time>2019-07-10T05:47:04Z</time>
      </trkpt>
      <trkpt lat="39.6848820" lon="-6.5232000">
        <ele>344.0</ele>
        <time>2019-07-10T05:47:05Z</time>
      </trkpt>
      <trkpt lat="39.6849410" lon="-6.5232730">
        <ele>343.6</ele>
        <time>2019-07-10T05:47:08Z</time>
      </trkpt>
      <trkpt lat="39.6850780" lon="-6.5234480">
        <ele>343.0</ele>
        <time>2019-07-10T05:47:12Z</time>
      </trkpt>
      <trkpt lat="39.6851210" lon="-6.5235000">
        <ele>342.8</ele>
        <time>2019-07-10T05:47:13Z</time>
      </trkpt>
      <trkpt lat="39.6852070" lon="-6.5236100">
        <ele>342.2</ele>
        <time>2019-07-10T05:47:15Z</time>
      </trkpt>
      <trkpt lat="39.6853030" lon="-6.5237240">
        <ele>341.6</ele>
        <time>2019-07-10T05:47:17Z</time>
      </trkpt>
      <trkpt lat="39.6853560" lon="-6.5237850">
        <ele>341.2</ele>
        <time>2019-07-10T05:47:18Z</time>
      </trkpt>
      <trkpt lat="39.6854650" lon="-6.5239220">
        <ele>340.4</ele>
        <time>2019-07-10T05:47:20Z</time>
      </trkpt>
      <trkpt lat="39.6855810" lon="-6.5240800">
        <ele>339.4</ele>
        <time>2019-07-10T05:47:22Z</time>
      </trkpt>
      <trkpt lat="39.6856440" lon="-6.5241650">
        <ele>338.6</ele>
        <time>2019-07-10T05:47:23Z</time>
      </trkpt>
      <trkpt lat="39.6857090" lon="-6.5242520">
        <ele>338.0</ele>
        <time>2019-07-10T05:47:24Z</time>
      </trkpt>
      <trkpt lat="39.6858480" lon="-6.5244230">
        <ele>336.8</ele>
        <time>2019-07-10T05:47:26Z</time>
      </trkpt>
      <trkpt lat="39.6860010" lon="-6.5245870">
        <ele>335.6</ele>
        <time>2019-07-10T05:47:28Z</time>
      </trkpt>
      <trkpt lat="39.6860810" lon="-6.5246660">
        <ele>334.6</ele>
        <time>2019-07-10T05:47:29Z</time>
      </trkpt>
      <trkpt lat="39.6861580" lon="-6.5247420">
        <ele>334.2</ele>
        <time>2019-07-10T05:47:30Z</time>
      </trkpt>
      <trkpt lat="39.6862810" lon="-6.5248610">
        <ele>333.6</ele>
        <time>2019-07-10T05:47:32Z</time>
      </trkpt>
      <trkpt lat="39.6864270" lon="-6.5249820">
        <ele>334.2</ele>
        <time>2019-07-10T05:47:36Z</time>
      </trkpt>
      <trkpt lat="39.6864780" lon="-6.5250300">
        <ele>335.0</ele>
        <time>2019-07-10T05:47:38Z</time>
      </trkpt>
      <trkpt lat="39.6865050" lon="-6.5250520">
        <ele>335.4</ele>
        <time>2019-07-10T05:47:39Z</time>
      </trkpt>
      <trkpt lat="39.6865530" lon="-6.5250990">
        <ele>336.4</ele>
        <time>2019-07-10T05:47:41Z</time>
      </trkpt>
      <trkpt lat="39.6865760" lon="-6.5251230">
        <ele>336.6</ele>
        <time>2019-07-10T05:47:42Z</time>
      </trkpt>
      <trkpt lat="39.6866230" lon="-6.5251750">
        <ele>337.0</ele>
        <time>2019-07-10T05:47:44Z</time>
      </trkpt>
      <trkpt lat="39.6866710" lon="-6.5252350">
        <ele>337.6</ele>
        <time>2019-07-10T05:47:46Z</time>
      </trkpt>
      <trkpt lat="39.6867500" lon="-6.5253260">
        <ele>338.4</ele>
        <time>2019-07-10T05:47:49Z</time>
      </trkpt>
      <trkpt lat="39.6868490" lon="-6.5254510">
        <ele>338.6</ele>
        <time>2019-07-10T05:47:52Z</time>
      </trkpt>
      <trkpt lat="39.6869260" lon="-6.5255570">
        <ele>338.4</ele>
        <time>2019-07-10T05:47:54Z</time>
      </trkpt>
      <trkpt lat="39.6870830" lon="-6.5257770">
        <ele>337.6</ele>
        <time>2019-07-10T05:47:58Z</time>
      </trkpt>
      <trkpt lat="39.6872030" lon="-6.5259300">
        <ele>337.6</ele>
        <time>2019-07-10T05:48:01Z</time>
      </trkpt>
      <trkpt lat="39.6874700" lon="-6.5262630">
        <ele>337.0</ele>
        <time>2019-07-10T05:48:07Z</time>
      </trkpt>
      <trkpt lat="39.6878000" lon="-6.5266530">
        <ele>336.6</ele>
        <time>2019-07-10T05:48:14Z</time>
      </trkpt>
      <trkpt lat="39.6878480" lon="-6.5267020">
        <ele>336.6</ele>
        <time>2019-07-10T05:48:15Z</time>
      </trkpt>
      <trkpt lat="39.6881550" lon="-6.5270130">
        <ele>337.4</ele>
        <time>2019-07-10T05:48:22Z</time>
      </trkpt>
      <trkpt lat="39.6883080" lon="-6.5271690">
        <ele>337.8</ele>
        <time>2019-07-10T05:48:26Z</time>
      </trkpt>
      <trkpt lat="39.6884180" lon="-6.5272810">
        <ele>338.8</ele>
        <time>2019-07-10T05:48:29Z</time>
      </trkpt>
      <trkpt lat="39.6886610" lon="-6.5275460">
        <ele>339.2</ele>
        <time>2019-07-10T05:48:35Z</time>
      </trkpt>
      <trkpt lat="39.6889970" lon="-6.5278430">
        <ele>338.4</ele>
        <time>2019-07-10T05:48:42Z</time>
      </trkpt>
      <trkpt lat="39.6890470" lon="-6.5278790">
        <ele>338.4</ele>
        <time>2019-07-10T05:48:43Z</time>
      </trkpt>
      <trkpt lat="39.6893430" lon="-6.5281280">
        <ele>337.6</ele>
        <time>2019-07-10T05:48:49Z</time>
      </trkpt>
      <trkpt lat="39.6896000" lon="-6.5284780">
        <ele>337.0</ele>
        <time>2019-07-10T05:48:55Z</time>
      </trkpt>
      <trkpt lat="39.6897480" lon="-6.5287080">
        <ele>336.4</ele>
        <time>2019-07-10T05:48:59Z</time>
      </trkpt>
      <trkpt lat="39.6897800" lon="-6.5287710">
        <ele>336.2</ele>
        <time>2019-07-10T05:49:00Z</time>
      </trkpt>
      <trkpt lat="39.6898060" lon="-6.5288400">
        <ele>336.2</ele>
        <time>2019-07-10T05:49:01Z</time>
      </trkpt>
      <trkpt lat="39.6898260" lon="-6.5289130">
        <ele>336.0</ele>
        <time>2019-07-10T05:49:02Z</time>
      </trkpt>
      <trkpt lat="39.6898540" lon="-6.5290650">
        <ele>335.8</ele>
        <time>2019-07-10T05:49:04Z</time>
      </trkpt>
      <trkpt lat="39.6898710" lon="-6.5291370">
        <ele>335.8</ele>
        <time>2019-07-10T05:49:05Z</time>
      </trkpt>
      <trkpt lat="39.6899300" lon="-6.5292550">
        <ele>335.6</ele>
        <time>2019-07-10T05:49:07Z</time>
      </trkpt>
      <trkpt lat="39.6900710" lon="-6.5293610">
        <ele>336.0</ele>
        <time>2019-07-10T05:49:10Z</time>
      </trkpt>
      <trkpt lat="39.6901170" lon="-6.5293940">
        <ele>336.0</ele>
        <time>2019-07-10T05:49:11Z</time>
      </trkpt>
      <trkpt lat="39.6903020" lon="-6.5295980">
        <ele>336.6</ele>
        <time>2019-07-10T05:49:16Z</time>
      </trkpt>
      <trkpt lat="39.6904040" lon="-6.5297130">
        <ele>337.2</ele>
        <time>2019-07-10T05:49:19Z</time>
      </trkpt>
      <trkpt lat="39.6904410" lon="-6.5297490">
        <ele>337.6</ele>
        <time>2019-07-10T05:49:20Z</time>
      </trkpt>
      <trkpt lat="39.6905970" lon="-6.5298800">
        <ele>338.2</ele>
        <time>2019-07-10T05:49:24Z</time>
      </trkpt>
      <trkpt lat="39.6907120" lon="-6.5299830">
        <ele>338.6</ele>
        <time>2019-07-10T05:49:27Z</time>
      </trkpt>
      <trkpt lat="39.6907450" lon="-6.5300200">
        <ele>338.8</ele>
        <time>2019-07-10T05:49:28Z</time>
      </trkpt>
      <trkpt lat="39.6908470" lon="-6.5301240">
        <ele>339.2</ele>
        <time>2019-07-10T05:49:31Z</time>
      </trkpt>
      <trkpt lat="39.6909430" lon="-6.5302280">
        <ele>339.6</ele>
        <time>2019-07-10T05:49:34Z</time>
      </trkpt>
      <trkpt lat="39.6909750" lon="-6.5302640">
        <ele>339.8</ele>
        <time>2019-07-10T05:49:35Z</time>
      </trkpt>
      <trkpt lat="39.6910750" lon="-6.5303690">
        <ele>340.6</ele>
        <time>2019-07-10T05:49:38Z</time>
      </trkpt>
      <trkpt lat="39.6911080" lon="-6.5304070">
        <ele>340.8</ele>
        <time>2019-07-10T05:49:39Z</time>
      </trkpt>
      <trkpt lat="39.6912060" lon="-6.5305120">
        <ele>341.6</ele>
        <time>2019-07-10T05:49:42Z</time>
      </trkpt>
      <trkpt lat="39.6912390" lon="-6.5305430">
        <ele>342.0</ele>
        <time>2019-07-10T05:49:43Z</time>
      </trkpt>
      <trkpt lat="39.6913410" lon="-6.5306160">
        <ele>342.8</ele>
        <time>2019-07-10T05:49:46Z</time>
      </trkpt>
      <trkpt lat="39.6913760" lon="-6.5306350">
        <ele>343.0</ele>
        <time>2019-07-10T05:49:47Z</time>
      </trkpt>
      <trkpt lat="39.6915120" lon="-6.5307110">
        <ele>344.0</ele>
        <time>2019-07-10T05:49:51Z</time>
      </trkpt>
      <trkpt lat="39.6915460" lon="-6.5307310">
        <ele>344.2</ele>
        <time>2019-07-10T05:49:52Z</time>
      </trkpt>
      <trkpt lat="39.6916510" lon="-6.5307870">
        <ele>345.0</ele>
        <time>2019-07-10T05:49:55Z</time>
      </trkpt>
      <trkpt lat="39.6917880" lon="-6.5308670">
        <ele>346.0</ele>
        <time>2019-07-10T05:49:59Z</time>
      </trkpt>
      <trkpt lat="39.6918570" lon="-6.5309160">
        <ele>346.8</ele>
        <time>2019-07-10T05:50:01Z</time>
      </trkpt>
      <trkpt lat="39.6919230" lon="-6.5309670">
        <ele>347.2</ele>
        <time>2019-07-10T05:50:03Z</time>
      </trkpt>
      <trkpt lat="39.6920240" lon="-6.5310510">
        <ele>347.4</ele>
        <time>2019-07-10T05:50:06Z</time>
      </trkpt>
      <trkpt lat="39.6921030" lon="-6.5311020">
        <ele>347.4</ele>
        <time>2019-07-10T05:50:08Z</time>
      </trkpt>
      <trkpt lat="39.6923630" lon="-6.5312590">
        <ele>346.0</ele>
        <time>2019-07-10T05:50:13Z</time>
      </trkpt>
      <trkpt lat="39.6925560" lon="-6.5313420">
        <ele>344.8</ele>
        <time>2019-07-10T05:50:16Z</time>
      </trkpt>
      <trkpt lat="39.6927570" lon="-6.5314430">
        <ele>344.0</ele>
        <time>2019-07-10T05:50:19Z</time>
      </trkpt>
      <trkpt lat="39.6928240" lon="-6.5314870">
        <ele>343.8</ele>
        <time>2019-07-10T05:50:20Z</time>
      </trkpt>
      <trkpt lat="39.6928890" lon="-6.5315380">
        <ele>343.4</ele>
        <time>2019-07-10T05:50:21Z</time>
      </trkpt>
      <trkpt lat="39.6930090" lon="-6.5316440">
        <ele>342.8</ele>
        <time>2019-07-10T05:50:23Z</time>
      </trkpt>
      <trkpt lat="39.6930690" lon="-6.5316810">
        <ele>342.4</ele>
        <time>2019-07-10T05:50:24Z</time>
      </trkpt>
      <trkpt lat="39.6931310" lon="-6.5317000">
        <ele>342.2</ele>
        <time>2019-07-10T05:50:25Z</time>
      </trkpt>
      <trkpt lat="39.6932560" lon="-6.5316960">
        <ele>342.2</ele>
        <time>2019-07-10T05:50:27Z</time>
      </trkpt>
      <trkpt lat="39.6933160" lon="-6.5316940">
        <ele>342.2</ele>
        <time>2019-07-10T05:50:28Z</time>
      </trkpt>
      <trkpt lat="39.6934830" lon="-6.5317290">
        <ele>342.2</ele>
        <time>2019-07-10T05:50:31Z</time>
      </trkpt>
      <trkpt lat="39.6935870" lon="-6.5317990">
        <ele>342.0</ele>
        <time>2019-07-10T05:50:33Z</time>
      </trkpt>
      <trkpt lat="39.6936980" lon="-6.5318940">
        <ele>341.4</ele>
        <time>2019-07-10T05:50:35Z</time>
      </trkpt>
      <trkpt lat="39.6937550" lon="-6.5319420">
        <ele>341.0</ele>
        <time>2019-07-10T05:50:36Z</time>
      </trkpt>
      <trkpt lat="39.6938140" lon="-6.5319830">
        <ele>340.8</ele>
        <time>2019-07-10T05:50:37Z</time>
      </trkpt>
      <trkpt lat="39.6939900" lon="-6.5320650">
        <ele>340.4</ele>
        <time>2019-07-10T05:50:40Z</time>
      </trkpt>
      <trkpt lat="39.6940970" lon="-6.5321050">
        <ele>340.4</ele>
        <time>2019-07-10T05:50:42Z</time>
      </trkpt>
      <trkpt lat="39.6942330" lon="-6.5322020">
        <ele>340.4</ele>
        <time>2019-07-10T05:50:45Z</time>
      </trkpt>
      <trkpt lat="39.6943040" lon="-6.5322840">
        <ele>340.6</ele>
        <time>2019-07-10T05:50:47Z</time>
      </trkpt>
      <trkpt lat="39.6944410" lon="-6.5324220">
        <ele>341.2</ele>
        <time>2019-07-10T05:50:51Z</time>
      </trkpt>
      <trkpt lat="39.6945190" lon="-6.5325060">
        <ele>341.2</ele>
        <time>2019-07-10T05:50:53Z</time>
      </trkpt>
      <trkpt lat="39.6946600" lon="-6.5326360">
        <ele>340.6</ele>
        <time>2019-07-10T05:50:56Z</time>
      </trkpt>
      <trkpt lat="39.6949930" lon="-6.5328010">
        <ele>340.2</ele>
        <time>2019-07-10T05:51:02Z</time>
      </trkpt>
      <trkpt lat="39.6951090" lon="-6.5328310">
        <ele>340.0</ele>
        <time>2019-07-10T05:51:04Z</time>
      </trkpt>
      <trkpt lat="39.6951650" lon="-6.5328490">
        <ele>340.0</ele>
        <time>2019-07-10T05:51:05Z</time>
      </trkpt>
      <trkpt lat="39.6953320" lon="-6.5329120">
        <ele>339.8</ele>
        <time>2019-07-10T05:51:08Z</time>
      </trkpt>
      <trkpt lat="39.6955500" lon="-6.5330340">
        <ele>339.4</ele>
        <time>2019-07-10T05:51:12Z</time>
      </trkpt>
      <trkpt lat="39.6956000" lon="-6.5330760">
        <ele>339.2</ele>
        <time>2019-07-10T05:51:13Z</time>
      </trkpt>
      <trkpt lat="39.6956450" lon="-6.5331260">
        <ele>339.0</ele>
        <time>2019-07-10T05:51:14Z</time>
      </trkpt>
      <trkpt lat="39.6958000" lon="-6.5333350">
        <ele>338.8</ele>
        <time>2019-07-10T05:51:18Z</time>
      </trkpt>
      <trkpt lat="39.6958340" lon="-6.5333870">
        <ele>339.0</ele>
        <time>2019-07-10T05:51:19Z</time>
      </trkpt>
      <trkpt lat="39.6959450" lon="-6.5335260">
        <ele>339.0</ele>
        <time>2019-07-10T05:51:22Z</time>
      </trkpt>
      <trkpt lat="39.6960800" lon="-6.5336410">
        <ele>338.8</ele>
        <time>2019-07-10T05:51:25Z</time>
      </trkpt>
      <trkpt lat="39.6961820" lon="-6.5337000">
        <ele>338.6</ele>
        <time>2019-07-10T05:51:27Z</time>
      </trkpt>
      <trkpt lat="39.6963600" lon="-6.5337560">
        <ele>338.2</ele>
        <time>2019-07-10T05:51:30Z</time>
      </trkpt>
      <trkpt lat="39.6964240" lon="-6.5337660">
        <ele>337.8</ele>
        <time>2019-07-10T05:51:31Z</time>
      </trkpt>
      <trkpt lat="39.6964890" lon="-6.5337690">
        <ele>337.6</ele>
        <time>2019-07-10T05:51:32Z</time>
      </trkpt>
      <trkpt lat="39.6967410" lon="-6.5337560">
        <ele>337.0</ele>
        <time>2019-07-10T05:51:36Z</time>
      </trkpt>
      <trkpt lat="39.6968030" lon="-6.5337590">
        <ele>336.8</ele>
        <time>2019-07-10T05:51:37Z</time>
      </trkpt>
      <trkpt lat="39.6968670" lon="-6.5337680">
        <ele>336.8</ele>
        <time>2019-07-10T05:51:38Z</time>
      </trkpt>
      <trkpt lat="39.6970650" lon="-6.5338150">
        <ele>336.0</ele>
        <time>2019-07-10T05:51:41Z</time>
      </trkpt>
      <trkpt lat="39.6971320" lon="-6.5338340">
        <ele>335.6</ele>
        <time>2019-07-10T05:51:42Z</time>
      </trkpt>
      <trkpt lat="39.6972670" lon="-6.5338750">
        <ele>335.0</ele>
        <time>2019-07-10T05:51:44Z</time>
      </trkpt>
      <trkpt lat="39.6973340" lon="-6.5339020">
        <ele>334.6</ele>
        <time>2019-07-10T05:51:45Z</time>
      </trkpt>
      <trkpt lat="39.6973990" lon="-6.5339360">
        <ele>334.4</ele>
        <time>2019-07-10T05:51:46Z</time>
      </trkpt>
      <trkpt lat="39.6974600" lon="-6.5339780">
        <ele>334.2</ele>
        <time>2019-07-10T05:51:47Z</time>
      </trkpt>
      <trkpt lat="39.6976280" lon="-6.5340870">
        <ele>333.4</ele>
        <time>2019-07-10T05:51:50Z</time>
      </trkpt>
      <trkpt lat="39.6976860" lon="-6.5341140">
        <ele>332.8</ele>
        <time>2019-07-10T05:51:51Z</time>
      </trkpt>
      <trkpt lat="39.6977480" lon="-6.5341360">
        <ele>331.8</ele>
        <time>2019-07-10T05:51:52Z</time>
      </trkpt>
      <trkpt lat="39.6978920" lon="-6.5341830">
        <ele>330.6</ele>
        <time>2019-07-10T05:51:54Z</time>
      </trkpt>
      <trkpt lat="39.6980530" lon="-6.5342460">
        <ele>329.2</ele>
        <time>2019-07-10T05:51:56Z</time>
      </trkpt>
      <trkpt lat="39.6981300" lon="-6.5342880">
        <ele>328.6</ele>
        <time>2019-07-10T05:51:57Z</time>
      </trkpt>
      <trkpt lat="39.6982020" lon="-6.5343380">
        <ele>328.2</ele>
        <time>2019-07-10T05:51:58Z</time>
      </trkpt>
      <trkpt lat="39.6983160" lon="-6.5344420">
        <ele>327.8</ele>
        <time>2019-07-10T05:52:00Z</time>
      </trkpt>
      <trkpt lat="39.6985840" lon="-6.5346540">
        <ele>328.0</ele>
        <time>2019-07-10T05:52:05Z</time>
      </trkpt>
      <trkpt lat="39.6987170" lon="-6.5347440">
        <ele>326.8</ele>
        <time>2019-07-10T05:52:07Z</time>
      </trkpt>
      <trkpt lat="39.6988580" lon="-6.5348190">
        <ele>325.8</ele>
        <time>2019-07-10T05:52:09Z</time>
      </trkpt>
      <trkpt lat="39.6989260" lon="-6.5348570">
        <ele>325.6</ele>
        <time>2019-07-10T05:52:10Z</time>
      </trkpt>
      <trkpt lat="39.6989910" lon="-6.5349030">
        <ele>325.4</ele>
        <time>2019-07-10T05:52:11Z</time>
      </trkpt>
      <trkpt lat="39.6991900" lon="-6.5350520">
        <ele>324.8</ele>
        <time>2019-07-10T05:52:14Z</time>
      </trkpt>
      <trkpt lat="39.6992620" lon="-6.5350940">
        <ele>324.6</ele>
        <time>2019-07-10T05:52:15Z</time>
      </trkpt>
      <trkpt lat="39.6994050" lon="-6.5351650">
        <ele>323.8</ele>
        <time>2019-07-10T05:52:17Z</time>
      </trkpt>
      <trkpt lat="39.6995280" lon="-6.5352030">
        <ele>323.0</ele>
        <time>2019-07-10T05:52:19Z</time>
      </trkpt>
      <trkpt lat="39.6996330" lon="-6.5352290">
        <ele>322.4</ele>
        <time>2019-07-10T05:52:21Z</time>
      </trkpt>
      <trkpt lat="39.6997720" lon="-6.5352510">
        <ele>321.0</ele>
        <time>2019-07-10T05:52:24Z</time>
      </trkpt>
      <trkpt lat="39.6998680" lon="-6.5352530">
        <ele>319.4</ele>
        <time>2019-07-10T05:52:26Z</time>
      </trkpt>
      <trkpt lat="39.6999780" lon="-6.5352530">
        <ele>318.0</ele>
        <time>2019-07-10T05:52:28Z</time>
      </trkpt>
      <trkpt lat="39.7000270" lon="-6.5352510">
        <ele>317.2</ele>
        <time>2019-07-10T05:52:29Z</time>
      </trkpt>
      <trkpt lat="39.7000740" lon="-6.5352500">
        <ele>316.6</ele>
        <time>2019-07-10T05:52:30Z</time>
      </trkpt>
      <trkpt lat="39.7001560" lon="-6.5352540">
        <ele>315.2</ele>
        <time>2019-07-10T05:52:32Z</time>
      </trkpt>
      <trkpt lat="39.7001940" lon="-6.5352660">
        <ele>314.4</ele>
        <time>2019-07-10T05:52:33Z</time>
      </trkpt>
      <trkpt lat="39.7002360" lon="-6.5352890">
        <ele>314.0</ele>
        <time>2019-07-10T05:52:34Z</time>
      </trkpt>
      <trkpt lat="39.7003510" lon="-6.5354300">
        <ele>312.6</ele>
        <time>2019-07-10T05:52:37Z</time>
      </trkpt>
      <trkpt lat="39.7004290" lon="-6.5356880">
        <ele>312.2</ele>
        <time>2019-07-10T05:52:41Z</time>
      </trkpt>
      <trkpt lat="39.7005790" lon="-6.5385740">
        <ele>304.6</ele>
        <time>2019-07-10T05:55:25Z</time>
      </trkpt>
      <trkpt lat="39.7005670" lon="-6.5385950">
        <ele>304.6</ele>
        <time>2019-07-10T05:55:26Z</time>
      </trkpt>
      <trkpt lat="39.7005230" lon="-6.5386510">
        <ele>304.6</ele>
        <time>2019-07-10T05:55:29Z</time>
      </trkpt>
      <trkpt lat="39.7004790" lon="-6.5387050">
        <ele>304.6</ele>
        <time>2019-07-10T05:55:32Z</time>
      </trkpt>
      <trkpt lat="39.7004670" lon="-6.5387130">
        <ele>304.6</ele>
        <time>2019-07-10T05:55:33Z</time>
      </trkpt>
      <trkpt lat="39.7004600" lon="-6.5387090">
        <ele>304.8</ele>
        <time>2019-07-10T05:55:34Z</time>
      </trkpt>
      <trkpt lat="39.7005050" lon="-6.5386400">
        <ele>305.0</ele>
        <time>2019-07-10T05:55:38Z</time>
      </trkpt>
      <trkpt lat="39.7005370" lon="-6.5385990">
        <ele>305.0</ele>
        <time>2019-07-10T05:55:40Z</time>
      </trkpt>
      <trkpt lat="39.7005680" lon="-6.5385570">
        <ele>304.0</ele>
        <time>2019-07-10T05:55:41Z</time>
      </trkpt>
      <trkpt lat="39.7005870" lon="-6.5384680">
        <ele>304.6</ele>
        <time>2019-07-10T05:55:43Z</time>
      </trkpt>
      <trkpt lat="39.7006000" lon="-6.5383380">
        <ele>305.4</ele>
        <time>2019-07-10T05:55:46Z</time>
      </trkpt>
      <trkpt lat="39.7006270" lon="-6.5382440">
        <ele>305.0</ele>
        <time>2019-07-10T05:55:49Z</time>
      </trkpt>
      <trkpt lat="39.7006530" lon="-6.5381970">
        <ele>305.2</ele>
        <time>2019-07-10T05:55:51Z</time>
      </trkpt>
      <trkpt lat="39.7006850" lon="-6.5381530">
        <ele>305.4</ele>
        <time>2019-07-10T05:55:53Z</time>
      </trkpt>
      <trkpt lat="39.7007010" lon="-6.5381300">
        <ele>305.8</ele>
        <time>2019-07-10T05:55:54Z</time>
      </trkpt>
      <trkpt lat="39.7007380" lon="-6.5380870">
        <ele>306.4</ele>
        <time>2019-07-10T05:55:56Z</time>
      </trkpt>
      <trkpt lat="39.7007720" lon="-6.5380500">
        <ele>307.0</ele>
        <time>2019-07-10T05:55:58Z</time>
      </trkpt>
      <trkpt lat="39.7008260" lon="-6.5379930">
        <ele>307.4</ele>
        <time>2019-07-10T05:56:01Z</time>
      </trkpt>
      <trkpt lat="39.7008580" lon="-6.5379620">
        <ele>307.8</ele>
        <time>2019-07-10T05:56:03Z</time>
      </trkpt>
      <trkpt lat="39.7008930" lon="-6.5379380">
        <ele>308.6</ele>
        <time>2019-07-10T05:56:05Z</time>
      </trkpt>
      <trkpt lat="39.7009230" lon="-6.5379160">
        <ele>309.6</ele>
        <time>2019-07-10T05:56:07Z</time>
      </trkpt>
      <trkpt lat="39.7009360" lon="-6.5379060">
        <ele>310.0</ele>
        <time>2019-07-10T05:56:08Z</time>
      </trkpt>
      <trkpt lat="39.7009490" lon="-6.5378950">
        <ele>310.6</ele>
        <time>2019-07-10T05:56:09Z</time>
      </trkpt>
      <trkpt lat="39.7009640" lon="-6.5378830">
        <ele>311.0</ele>
        <time>2019-07-10T05:56:10Z</time>
      </trkpt>
      <trkpt lat="39.7009910" lon="-6.5378590">
        <ele>311.6</ele>
        <time>2019-07-10T05:56:12Z</time>
      </trkpt>
      <trkpt lat="39.7010190" lon="-6.5378390">
        <ele>312.2</ele>
        <time>2019-07-10T05:56:14Z</time>
      </trkpt>
      <trkpt lat="39.7010610" lon="-6.5378100">
        <ele>312.8</ele>
        <time>2019-07-10T05:56:17Z</time>
      </trkpt>
      <trkpt lat="39.7010750" lon="-6.5377950">
        <ele>313.0</ele>
        <time>2019-07-10T05:56:18Z</time>
      </trkpt>
      <trkpt lat="39.7010890" lon="-6.5377820">
        <ele>313.2</ele>
        <time>2019-07-10T05:56:19Z</time>
      </trkpt>
      <trkpt lat="39.7011760" lon="-6.5376980">
        <ele>314.4</ele>
        <time>2019-07-10T05:56:26Z</time>
      </trkpt>
      <trkpt lat="39.7011910" lon="-6.5376850">
        <ele>314.4</ele>
        <time>2019-07-10T05:56:27Z</time>
      </trkpt>
      <trkpt lat="39.7013040" lon="-6.5375920">
        <ele>315.4</ele>
        <time>2019-07-10T05:56:33Z</time>
      </trkpt>
      <trkpt lat="39.7013720" lon="-6.5375320">
        <ele>315.6</ele>
        <time>2019-07-10T05:56:36Z</time>
      </trkpt>
      <trkpt lat="39.7015560" lon="-6.5373840">
        <ele>316.4</ele>
        <time>2019-07-10T05:56:43Z</time>
      </trkpt>
      <trkpt lat="39.7015780" lon="-6.5373660">
        <ele>316.6</ele>
        <time>2019-07-10T05:56:44Z</time>
      </trkpt>
      <trkpt lat="39.7017060" lon="-6.5373010">
        <ele>317.8</ele>
        <time>2019-07-10T05:56:49Z</time>
      </trkpt>
      <trkpt lat="39.7017370" lon="-6.5373030">
        <ele>317.8</ele>
        <time>2019-07-10T05:56:50Z</time>
      </trkpt>
      <trkpt lat="39.7017860" lon="-6.5373370">
        <ele>318.2</ele>
        <time>2019-07-10T05:56:52Z</time>
      </trkpt>
      <trkpt lat="39.7018200" lon="-6.5373900">
        <ele>318.4</ele>
        <time>2019-07-10T05:56:54Z</time>
      </trkpt>
      <trkpt lat="39.7018380" lon="-6.5374160">
        <ele>318.8</ele>
        <time>2019-07-10T05:56:55Z</time>
      </trkpt>
      <trkpt lat="39.7019220" lon="-6.5375580">
        <ele>320.0</ele>
        <time>2019-07-10T05:57:00Z</time>
      </trkpt>
      <trkpt lat="39.7019840" lon="-6.5376660">
        <ele>320.2</ele>
        <time>2019-07-10T05:57:03Z</time>
      </trkpt>
      <trkpt lat="39.7020380" lon="-6.5377400">
        <ele>320.0</ele>
        <time>2019-07-10T05:57:05Z</time>
      </trkpt>
      <trkpt lat="39.7021340" lon="-6.5378430">
        <ele>319.6</ele>
        <time>2019-07-10T05:57:08Z</time>
      </trkpt>
      <trkpt lat="39.7022240" lon="-6.5379350">
        <ele>319.4</ele>
        <time>2019-07-10T05:57:11Z</time>
      </trkpt>
      <trkpt lat="39.7022930" lon="-6.5380270">
        <ele>319.6</ele>
        <time>2019-07-10T05:57:14Z</time>
      </trkpt>
      <trkpt lat="39.7023760" lon="-6.5381340">
        <ele>319.4</ele>
        <time>2019-07-10T05:57:18Z</time>
      </trkpt>
      <trkpt lat="39.7024120" lon="-6.5381830">
        <ele>319.6</ele>
        <time>2019-07-10T05:57:20Z</time>
      </trkpt>
      <trkpt lat="39.7024560" lon="-6.5382550">
        <ele>320.0</ele>
        <time>2019-07-10T05:57:23Z</time>
      </trkpt>
      <trkpt lat="39.7025020" lon="-6.5383190">
        <ele>320.2</ele>
        <time>2019-07-10T05:57:26Z</time>
      </trkpt>
      <trkpt lat="39.7025140" lon="-6.5383460">
        <ele>320.2</ele>
        <time>2019-07-10T05:57:27Z</time>
      </trkpt>
      <trkpt lat="39.7025430" lon="-6.5384280">
        <ele>320.6</ele>
        <time>2019-07-10T05:57:30Z</time>
      </trkpt>
      <trkpt lat="39.7025510" lon="-6.5384480">
        <ele>320.6</ele>
        <time>2019-07-10T05:57:32Z</time>
      </trkpt>
      <trkpt lat="39.7025490" lon="-6.5384490">
        <ele>320.6</ele>
        <time>2019-07-10T05:57:33Z</time>
      </trkpt>
      <trkpt lat="39.7025550" lon="-6.5384800">
        <ele>320.4</ele>
        <time>2019-07-10T05:58:47Z</time>
      </trkpt>
      <trkpt lat="39.7025700" lon="-6.5384970">
        <ele>320.6</ele>
        <time>2019-07-10T05:58:48Z</time>
      </trkpt>
      <trkpt lat="39.7025860" lon="-6.5385170">
        <ele>320.8</ele>
        <time>2019-07-10T05:58:49Z</time>
      </trkpt>
      <trkpt lat="39.7026190" lon="-6.5385670">
        <ele>320.8</ele>
        <time>2019-07-10T05:58:51Z</time>
      </trkpt>
      <trkpt lat="39.7026950" lon="-6.5386820">
        <ele>320.8</ele>
        <time>2019-07-10T05:58:55Z</time>
      </trkpt>
      <trkpt lat="39.7027170" lon="-6.5387190">
        <ele>321.0</ele>
        <time>2019-07-10T05:58:56Z</time>
      </trkpt>
      <trkpt lat="39.7027390" lon="-6.5387620">
        <ele>321.0</ele>
        <time>2019-07-10T05:58:57Z</time>
      </trkpt>
      <trkpt lat="39.7028520" lon="-6.5389790">
        <ele>321.0</ele>
        <time>2019-07-10T05:59:02Z</time>
      </trkpt>
      <trkpt lat="39.7028940" lon="-6.5390720">
        <ele>320.8</ele>
        <time>2019-07-10T05:59:04Z</time>
      </trkpt>
      <trkpt lat="39.7029230" lon="-6.5391780">
        <ele>320.8</ele>
        <time>2019-07-10T05:59:06Z</time>
      </trkpt>
      <trkpt lat="39.7029620" lon="-6.5393870">
        <ele>321.0</ele>
        <time>2019-07-10T05:59:10Z</time>
      </trkpt>
      <trkpt lat="39.7029780" lon="-6.5394770">
        <ele>321.0</ele>
        <time>2019-07-10T05:59:12Z</time>
      </trkpt>
      <trkpt lat="39.7030270" lon="-6.5396950">
        <ele>322.0</ele>
        <time>2019-07-10T05:59:17Z</time>
      </trkpt>
      <trkpt lat="39.7030680" lon="-6.5397980">
        <ele>321.6</ele>
        <time>2019-07-10T05:59:19Z</time>
      </trkpt>
      <trkpt lat="39.7031090" lon="-6.5398950">
        <ele>321.0</ele>
        <time>2019-07-10T05:59:21Z</time>
      </trkpt>
      <trkpt lat="39.7031360" lon="-6.5399350">
        <ele>321.0</ele>
        <time>2019-07-10T05:59:22Z</time>
      </trkpt>
      <trkpt lat="39.7032260" lon="-6.5400400">
        <ele>320.8</ele>
        <time>2019-07-10T05:59:25Z</time>
      </trkpt>
      <trkpt lat="39.7032720" lon="-6.5401160">
        <ele>321.0</ele>
        <time>2019-07-10T05:59:27Z</time>
      </trkpt>
      <trkpt lat="39.7033380" lon="-6.5402300">
        <ele>321.2</ele>
        <time>2019-07-10T05:59:30Z</time>
      </trkpt>
      <trkpt lat="39.7034170" lon="-6.5403660">
        <ele>321.2</ele>
        <time>2019-07-10T05:59:34Z</time>
      </trkpt>
      <trkpt lat="39.7035540" lon="-6.5405920">
        <ele>322.0</ele>
        <time>2019-07-10T05:59:41Z</time>
      </trkpt>
      <trkpt lat="39.7036250" lon="-6.5407960">
        <ele>322.2</ele>
        <time>2019-07-10T05:59:46Z</time>
      </trkpt>
      <trkpt lat="39.7036400" lon="-6.5408950">
        <ele>323.0</ele>
        <time>2019-07-10T05:59:49Z</time>
      </trkpt>
      <trkpt lat="39.7036420" lon="-6.5409250">
        <ele>323.2</ele>
        <time>2019-07-10T05:59:50Z</time>
      </trkpt>
      <trkpt lat="39.7036450" lon="-6.5409590">
        <ele>323.6</ele>
        <time>2019-07-10T05:59:51Z</time>
      </trkpt>
      <trkpt lat="39.7036690" lon="-6.5410560">
        <ele>324.6</ele>
        <time>2019-07-10T05:59:54Z</time>
      </trkpt>
      <trkpt lat="39.7036920" lon="-6.5411240">
        <ele>325.0</ele>
        <time>2019-07-10T05:59:56Z</time>
      </trkpt>
      <trkpt lat="39.7037220" lon="-6.5412120">
        <ele>325.6</ele>
        <time>2019-07-10T05:59:59Z</time>
      </trkpt>
      <trkpt lat="39.7037760" lon="-6.5413060">
        <ele>326.0</ele>
        <time>2019-07-10T06:00:02Z</time>
      </trkpt>
      <trkpt lat="39.7039460" lon="-6.5414870">
        <ele>326.2</ele>
        <time>2019-07-10T06:00:08Z</time>
      </trkpt>
      <trkpt lat="39.7040400" lon="-6.5415820">
        <ele>326.2</ele>
        <time>2019-07-10T06:00:11Z</time>
      </trkpt>
      <trkpt lat="39.7041140" lon="-6.5416260">
        <ele>326.2</ele>
        <time>2019-07-10T06:00:13Z</time>
      </trkpt>
      <trkpt lat="39.7041940" lon="-6.5416430">
        <ele>326.6</ele>
        <time>2019-07-10T06:00:15Z</time>
      </trkpt>
      <trkpt lat="39.7042330" lon="-6.5416510">
        <ele>326.6</ele>
        <time>2019-07-10T06:00:16Z</time>
      </trkpt>
      <trkpt lat="39.7043400" lon="-6.5416480">
        <ele>326.4</ele>
        <time>2019-07-10T06:00:19Z</time>
      </trkpt>
      <trkpt lat="39.7045570" lon="-6.5416240">
        <ele>327.4</ele>
        <time>2019-07-10T06:00:25Z</time>
      </trkpt>
      <trkpt lat="39.7048270" lon="-6.5416380">
        <ele>327.6</ele>
        <time>2019-07-10T06:00:32Z</time>
      </trkpt>
      <trkpt lat="39.7050550" lon="-6.5416890">
        <ele>328.8</ele>
        <time>2019-07-10T06:00:39Z</time>
      </trkpt>
      <trkpt lat="39.7051130" lon="-6.5418480">
        <ele>329.4</ele>
        <time>2019-07-10T06:00:43Z</time>
      </trkpt>
      <trkpt lat="39.7051640" lon="-6.5419530">
        <ele>330.0</ele>
        <time>2019-07-10T06:00:46Z</time>
      </trkpt>
      <trkpt lat="39.7052040" lon="-6.5420600">
        <ele>330.6</ele>
        <time>2019-07-10T06:00:49Z</time>
      </trkpt>
      <trkpt lat="39.7052180" lon="-6.5420870">
        <ele>331.2</ele>
        <time>2019-07-10T06:00:50Z</time>
      </trkpt>
      <trkpt lat="39.7052590" lon="-6.5421770">
        <ele>332.0</ele>
        <time>2019-07-10T06:00:53Z</time>
      </trkpt>
      <trkpt lat="39.7052730" lon="-6.5422160">
        <ele>332.2</ele>
        <time>2019-07-10T06:00:54Z</time>
      </trkpt>
      <trkpt lat="39.7053000" lon="-6.5423070">
        <ele>332.2</ele>
        <time>2019-07-10T06:00:56Z</time>
      </trkpt>
      <trkpt lat="39.7053620" lon="-6.5425040">
        <ele>332.2</ele>
        <time>2019-07-10T06:01:00Z</time>
      </trkpt>
      <trkpt lat="39.7054460" lon="-6.5428570">
        <ele>332.0</ele>
        <time>2019-07-10T06:01:06Z</time>
      </trkpt>
      <trkpt lat="39.7054800" lon="-6.5430340">
        <ele>331.8</ele>
        <time>2019-07-10T06:01:09Z</time>
      </trkpt>
      <trkpt lat="39.7055530" lon="-6.5433190">
        <ele>332.2</ele>
        <time>2019-07-10T06:01:14Z</time>
      </trkpt>
      <trkpt lat="39.7055790" lon="-6.5434320">
        <ele>332.4</ele>
        <time>2019-07-10T06:01:16Z</time>
      </trkpt>
      <trkpt lat="39.7055820" lon="-6.5436400">
        <ele>333.0</ele>
        <time>2019-07-10T06:01:20Z</time>
      </trkpt>
      <trkpt lat="39.7055800" lon="-6.5436860">
        <ele>333.4</ele>
        <time>2019-07-10T06:01:21Z</time>
      </trkpt>
      <trkpt lat="39.7055930" lon="-6.5439220">
        <ele>334.4</ele>
        <time>2019-07-10T06:01:26Z</time>
      </trkpt>
      <trkpt lat="39.7055980" lon="-6.5439700">
        <ele>334.4</ele>
        <time>2019-07-10T06:01:27Z</time>
      </trkpt>
      <trkpt lat="39.7056410" lon="-6.5442600">
        <ele>335.6</ele>
        <time>2019-07-10T06:01:33Z</time>
      </trkpt>
      <trkpt lat="39.7056500" lon="-6.5443090">
        <ele>335.8</ele>
        <time>2019-07-10T06:01:34Z</time>
      </trkpt>
      <trkpt lat="39.7056420" lon="-6.5444930">
        <ele>336.0</ele>
        <time>2019-07-10T06:01:38Z</time>
      </trkpt>
      <trkpt lat="39.7055900" lon="-6.5445650">
        <ele>336.0</ele>
        <time>2019-07-10T06:01:40Z</time>
      </trkpt>
      <trkpt lat="39.7054990" lon="-6.5446720">
        <ele>335.6</ele>
        <time>2019-07-10T06:01:43Z</time>
      </trkpt>
      <trkpt lat="39.7054250" lon="-6.5447810">
        <ele>335.2</ele>
        <time>2019-07-10T06:01:46Z</time>
      </trkpt>
      <trkpt lat="39.7054350" lon="-6.5448560">
        <ele>334.6</ele>
        <time>2019-07-10T06:01:48Z</time>
      </trkpt>
      <trkpt lat="39.7055150" lon="-6.5449380">
        <ele>334.4</ele>
        <time>2019-07-10T06:01:51Z</time>
      </trkpt>
      <trkpt lat="39.7055430" lon="-6.5449560">
        <ele>334.2</ele>
        <time>2019-07-10T06:01:52Z</time>
      </trkpt>
      <trkpt lat="39.7057120" lon="-6.5450740">
        <ele>334.4</ele>
        <time>2019-07-10T06:01:57Z</time>
      </trkpt>
      <trkpt lat="39.7057950" lon="-6.5451360">
        <ele>334.4</ele>
        <time>2019-07-10T06:01:59Z</time>
      </trkpt>
      <trkpt lat="39.7059180" lon="-6.5452670">
        <ele>333.8</ele>
        <time>2019-07-10T06:02:02Z</time>
      </trkpt>
      <trkpt lat="39.7059980" lon="-6.5453740">
        <ele>333.4</ele>
        <time>2019-07-10T06:02:04Z</time>
      </trkpt>
      <trkpt lat="39.7061220" lon="-6.5455380">
        <ele>332.6</ele>
        <time>2019-07-10T06:02:07Z</time>
      </trkpt>
      <trkpt lat="39.7061600" lon="-6.5455960">
        <ele>332.2</ele>
        <time>2019-07-10T06:02:08Z</time>
      </trkpt>
      <trkpt lat="39.7062000" lon="-6.5456560">
        <ele>331.8</ele>
        <time>2019-07-10T06:02:09Z</time>
      </trkpt>
      <trkpt lat="39.7063610" lon="-6.5459230">
        <ele>331.2</ele>
        <time>2019-07-10T06:02:13Z</time>
      </trkpt>
      <trkpt lat="39.7064020" lon="-6.5459960">
        <ele>330.8</ele>
        <time>2019-07-10T06:02:14Z</time>
      </trkpt>
      <trkpt lat="39.7064430" lon="-6.5460680">
        <ele>330.4</ele>
        <time>2019-07-10T06:02:15Z</time>
      </trkpt>
      <trkpt lat="39.7065610" lon="-6.5462810">
        <ele>329.8</ele>
        <time>2019-07-10T06:02:18Z</time>
      </trkpt>
      <trkpt lat="39.7066570" lon="-6.5464690">
        <ele>329.8</ele>
        <time>2019-07-10T06:02:21Z</time>
      </trkpt>
      <trkpt lat="39.7066890" lon="-6.5465260">
        <ele>329.8</ele>
        <time>2019-07-10T06:02:22Z</time>
      </trkpt>
      <trkpt lat="39.7068070" lon="-6.5466430">
        <ele>329.2</ele>
        <time>2019-07-10T06:02:25Z</time>
      </trkpt>
      <trkpt lat="39.7069990" lon="-6.5468150">
        <ele>329.6</ele>
        <time>2019-07-10T06:02:30Z</time>
      </trkpt>
      <trkpt lat="39.7070340" lon="-6.5468470">
        <ele>329.8</ele>
        <time>2019-07-10T06:02:31Z</time>
      </trkpt>
      <trkpt lat="39.7070670" lon="-6.5468780">
        <ele>329.8</ele>
        <time>2019-07-10T06:02:32Z</time>
      </trkpt>
      <trkpt lat="39.7072330" lon="-6.5470180">
        <ele>330.0</ele>
        <time>2019-07-10T06:02:37Z</time>
      </trkpt>
      <trkpt lat="39.7073850" lon="-6.5471490">
        <ele>330.6</ele>
        <time>2019-07-10T06:02:42Z</time>
      </trkpt>
      <trkpt lat="39.7075390" lon="-6.5473900">
        <ele>330.4</ele>
        <time>2019-07-10T06:02:48Z</time>
      </trkpt>
      <trkpt lat="39.7076190" lon="-6.5475470">
        <ele>330.0</ele>
        <time>2019-07-10T06:02:51Z</time>
      </trkpt>
      <trkpt lat="39.7076820" lon="-6.5476960">
        <ele>329.2</ele>
        <time>2019-07-10T06:02:54Z</time>
      </trkpt>
      <trkpt lat="39.7077270" lon="-6.5477970">
        <ele>328.4</ele>
        <time>2019-07-10T06:02:56Z</time>
      </trkpt>
      <trkpt lat="39.7078440" lon="-6.5480570">
        <ele>327.8</ele>
        <time>2019-07-10T06:03:01Z</time>
      </trkpt>
      <trkpt lat="39.7079520" lon="-6.5483330">
        <ele>328.2</ele>
        <time>2019-07-10T06:03:07Z</time>
      </trkpt>
      <trkpt lat="39.7080340" lon="-6.5485620">
        <ele>329.0</ele>
        <time>2019-07-10T06:03:13Z</time>
      </trkpt>
      <trkpt lat="39.7080610" lon="-6.5486250">
        <ele>329.6</ele>
        <time>2019-07-10T06:03:16Z</time>
      </trkpt>
      <trkpt lat="39.7080760" lon="-6.5486630">
        <ele>330.0</ele>
        <time>2019-07-10T06:03:18Z</time>
      </trkpt>
      <trkpt lat="39.7081570" lon="-6.5487210">
        <ele>330.4</ele>
        <time>2019-07-10T06:03:22Z</time>
      </trkpt>
      <trkpt lat="39.7081820" lon="-6.5487330">
        <ele>330.6</ele>
        <time>2019-07-10T06:03:23Z</time>
      </trkpt>
      <trkpt lat="39.7083370" lon="-6.5487790">
        <ele>330.8</ele>
        <time>2019-07-10T06:03:28Z</time>
      </trkpt>
      <trkpt lat="39.7083980" lon="-6.5488080">
        <ele>330.8</ele>
        <time>2019-07-10T06:03:30Z</time>
      </trkpt>
      <trkpt lat="39.7086530" lon="-6.5488930">
        <ele>330.4</ele>
        <time>2019-07-10T06:03:36Z</time>
      </trkpt>
      <trkpt lat="39.7088200" lon="-6.5489460">
        <ele>329.6</ele>
        <time>2019-07-10T06:03:39Z</time>
      </trkpt>
      <trkpt lat="39.7089780" lon="-6.5489870">
        <ele>328.8</ele>
        <time>2019-07-10T06:03:42Z</time>
      </trkpt>
      <trkpt lat="39.7090690" lon="-6.5490160">
        <ele>328.2</ele>
        <time>2019-07-10T06:03:44Z</time>
      </trkpt>
      <trkpt lat="39.7092130" lon="-6.5490710">
        <ele>327.4</ele>
        <time>2019-07-10T06:03:47Z</time>
      </trkpt>
      <trkpt lat="39.7092530" lon="-6.5490840">
        <ele>327.0</ele>
        <time>2019-07-10T06:03:48Z</time>
      </trkpt>
      <trkpt lat="39.7093430" lon="-6.5491080">
        <ele>326.0</ele>
        <time>2019-07-10T06:03:51Z</time>
      </trkpt>
      <trkpt lat="39.7093950" lon="-6.5491600">
        <ele>325.2</ele>
        <time>2019-07-10T06:03:53Z</time>
      </trkpt>
      <trkpt lat="39.7094110" lon="-6.5492050">
        <ele>325.0</ele>
        <time>2019-07-10T06:03:54Z</time>
      </trkpt>
      <trkpt lat="39.7094210" lon="-6.5492570">
        <ele>324.8</ele>
        <time>2019-07-10T06:03:55Z</time>
      </trkpt>
      <trkpt lat="39.7094870" lon="-6.5495130">
        <ele>324.6</ele>
        <time>2019-07-10T06:04:00Z</time>
      </trkpt>
      <trkpt lat="39.7095330" lon="-6.5496150">
        <ele>324.6</ele>
        <time>2019-07-10T06:04:04Z</time>
      </trkpt>
      <trkpt lat="39.7095720" lon="-6.5497140">
        <ele>324.4</ele>
        <time>2019-07-10T06:04:09Z</time>
      </trkpt>
      <trkpt lat="39.7095740" lon="-6.5497280">
        <ele>324.4</ele>
        <time>2019-07-10T06:04:10Z</time>
      </trkpt>
      <trkpt lat="39.7096270" lon="-6.5498380">
        <ele>324.6</ele>
        <time>2019-07-10T06:04:16Z</time>
      </trkpt>
      <trkpt lat="39.7096480" lon="-6.5498470">
        <ele>324.6</ele>
        <time>2019-07-10T06:04:17Z</time>
      </trkpt>
      <trkpt lat="39.7096720" lon="-6.5498740">
        <ele>324.8</ele>
        <time>2019-07-10T06:04:19Z</time>
      </trkpt>
      <trkpt lat="39.7096280" lon="-6.5499030">
        <ele>324.8</ele>
        <time>2019-07-10T06:04:22Z</time>
      </trkpt>
      <trkpt lat="39.7095910" lon="-6.5499240">
        <ele>324.6</ele>
        <time>2019-07-10T06:04:24Z</time>
      </trkpt>
      <trkpt lat="39.7095200" lon="-6.5499610">
        <ele>324.8</ele>
        <time>2019-07-10T06:04:29Z</time>
      </trkpt>
      <trkpt lat="39.7095110" lon="-6.5499670">
        <ele>325.0</ele>
        <time>2019-07-10T06:04:30Z</time>
      </trkpt>
      <trkpt lat="39.7095220" lon="-6.5499990">
        <ele>325.0</ele>
        <time>2019-07-10T06:04:33Z</time>
      </trkpt>
      <trkpt lat="39.7095810" lon="-6.5499450">
        <ele>325.0</ele>
        <time>2019-07-10T06:04:36Z</time>
      </trkpt>
      <trkpt lat="39.7097300" lon="-6.5497930">
        <ele>325.0</ele>
        <time>2019-07-10T06:04:41Z</time>
      </trkpt>
      <trkpt lat="39.7098040" lon="-6.5497310">
        <ele>325.0</ele>
        <time>2019-07-10T06:04:43Z</time>
      </trkpt>
      <trkpt lat="39.7099330" lon="-6.5496590">
        <ele>324.6</ele>
        <time>2019-07-10T06:04:46Z</time>
      </trkpt>
      <trkpt lat="39.7099760" lon="-6.5496270">
        <ele>324.6</ele>
        <time>2019-07-10T06:04:47Z</time>
      </trkpt>
      <trkpt lat="39.7102210" lon="-6.5494590">
        <ele>324.6</ele>
        <time>2019-07-10T06:04:53Z</time>
      </trkpt>
      <trkpt lat="39.7103670" lon="-6.5493660">
        <ele>324.4</ele>
        <time>2019-07-10T06:04:58Z</time>
      </trkpt>
      <trkpt lat="39.7103410" lon="-6.5493990">
        <ele>324.0</ele>
        <time>2019-07-10T06:05:01Z</time>
      </trkpt>
      <trkpt lat="39.7102740" lon="-6.5494590">
        <ele>324.0</ele>
        <time>2019-07-10T06:05:04Z</time>
      </trkpt>
      <trkpt lat="39.7102680" lon="-6.5494970">
        <ele>324.0</ele>
        <time>2019-07-10T06:05:05Z</time>
      </trkpt>
      <trkpt lat="39.7103020" lon="-6.5496220">
        <ele>324.2</ele>
        <time>2019-07-10T06:05:08Z</time>
      </trkpt>
      <trkpt lat="39.7103180" lon="-6.5496660">
        <ele>324.2</ele>
        <time>2019-07-10T06:05:09Z</time>
      </trkpt>
      <trkpt lat="39.7103780" lon="-6.5498370">
        <ele>325.0</ele>
        <time>2019-07-10T06:05:13Z</time>
      </trkpt>
      <trkpt lat="39.7103990" lon="-6.5499330">
        <ele>325.0</ele>
        <time>2019-07-10T06:05:15Z</time>
      </trkpt>
      <trkpt lat="39.7104230" lon="-6.5500730">
        <ele>325.6</ele>
        <time>2019-07-10T06:05:18Z</time>
      </trkpt>
      <trkpt lat="39.7104380" lon="-6.5502530">
        <ele>326.4</ele>
        <time>2019-07-10T06:05:22Z</time>
      </trkpt>
      <trkpt lat="39.7104440" lon="-6.5503380">
        <ele>326.6</ele>
        <time>2019-07-10T06:05:24Z</time>
      </trkpt>
      <trkpt lat="39.7104480" lon="-6.5504120">
        <ele>327.2</ele>
        <time>2019-07-10T06:05:26Z</time>
      </trkpt>
      <trkpt lat="39.7104510" lon="-6.5504990">
        <ele>327.8</ele>
        <time>2019-07-10T06:05:29Z</time>
      </trkpt>
      <trkpt lat="39.7104500" lon="-6.5505880">
        <ele>328.4</ele>
        <time>2019-07-10T06:05:32Z</time>
      </trkpt>
      <trkpt lat="39.7104540" lon="-6.5506170">
        <ele>328.6</ele>
        <time>2019-07-10T06:05:33Z</time>
      </trkpt>
      <trkpt lat="39.7104650" lon="-6.5507300">
        <ele>329.6</ele>
        <time>2019-07-10T06:05:37Z</time>
      </trkpt>
      <trkpt lat="39.7104670" lon="-6.5507590">
        <ele>329.8</ele>
        <time>2019-07-10T06:05:38Z</time>
      </trkpt>
      <trkpt lat="39.7104760" lon="-6.5508510">
        <ele>330.6</ele>
        <time>2019-07-10T06:05:41Z</time>
      </trkpt>
      <trkpt lat="39.7104730" lon="-6.5508860">
        <ele>330.8</ele>
        <time>2019-07-10T06:05:42Z</time>
      </trkpt>
      <trkpt lat="39.7104700" lon="-6.5509220">
        <ele>331.2</ele>
        <time>2019-07-10T06:05:43Z</time>
      </trkpt>
      <trkpt lat="39.7104650" lon="-6.5510280">
        <ele>331.8</ele>
        <time>2019-07-10T06:05:46Z</time>
      </trkpt>
      <trkpt lat="39.7104610" lon="-6.5510610">
        <ele>332.0</ele>
        <time>2019-07-10T06:05:47Z</time>
      </trkpt>
      <trkpt lat="39.7104640" lon="-6.5511350">
        <ele>332.2</ele>
        <time>2019-07-10T06:05:49Z</time>
      </trkpt>
      <trkpt lat="39.7104910" lon="-6.5513530">
        <ele>332.8</ele>
        <time>2019-07-10T06:05:54Z</time>
      </trkpt>
      <trkpt lat="39.7105980" lon="-6.5516120">
        <ele>332.6</ele>
        <time>2019-07-10T06:06:00Z</time>
      </trkpt>
      <trkpt lat="39.7106220" lon="-6.5516600">
        <ele>332.4</ele>
        <time>2019-07-10T06:06:01Z</time>
      </trkpt>
      <trkpt lat="39.7106920" lon="-6.5518020">
        <ele>332.0</ele>
        <time>2019-07-10T06:06:04Z</time>
      </trkpt>
      <trkpt lat="39.7107080" lon="-6.5518590">
        <ele>332.0</ele>
        <time>2019-07-10T06:06:05Z</time>
      </trkpt>
      <trkpt lat="39.7107250" lon="-6.5519180">
        <ele>332.0</ele>
        <time>2019-07-10T06:06:06Z</time>
      </trkpt>
      <trkpt lat="39.7107500" lon="-6.5519780">
        <ele>331.8</ele>
        <time>2019-07-10T06:06:07Z</time>
      </trkpt>
      <trkpt lat="39.7107620" lon="-6.5521040">
        <ele>331.2</ele>
        <time>2019-07-10T06:06:09Z</time>
      </trkpt>
      <trkpt lat="39.7107710" lon="-6.5521680">
        <ele>330.6</ele>
        <time>2019-07-10T06:06:10Z</time>
      </trkpt>
      <trkpt lat="39.7107720" lon="-6.5522350">
        <ele>330.6</ele>
        <time>2019-07-10T06:06:11Z</time>
      </trkpt>
      <trkpt lat="39.7107720" lon="-6.5524500">
        <ele>330.0</ele>
        <time>2019-07-10T06:06:14Z</time>
      </trkpt>
      <trkpt lat="39.7107800" lon="-6.5525860">
        <ele>330.0</ele>
        <time>2019-07-10T06:06:16Z</time>
      </trkpt>
      <trkpt lat="39.7107880" lon="-6.5526510">
        <ele>330.0</ele>
        <time>2019-07-10T06:06:17Z</time>
      </trkpt>
      <trkpt lat="39.7108320" lon="-6.5528350">
        <ele>330.0</ele>
        <time>2019-07-10T06:06:20Z</time>
      </trkpt>
      <trkpt lat="39.7108680" lon="-6.5529480">
        <ele>330.0</ele>
        <time>2019-07-10T06:06:22Z</time>
      </trkpt>
      <trkpt lat="39.7109300" lon="-6.5531750">
        <ele>330.2</ele>
        <time>2019-07-10T06:06:26Z</time>
      </trkpt>
      <trkpt lat="39.7109400" lon="-6.5532340">
        <ele>330.2</ele>
        <time>2019-07-10T06:06:27Z</time>
      </trkpt>
      <trkpt lat="39.7109670" lon="-6.5534090">
        <ele>330.4</ele>
        <time>2019-07-10T06:06:30Z</time>
      </trkpt>
      <trkpt lat="39.7109950" lon="-6.5535210">
        <ele>330.8</ele>
        <time>2019-07-10T06:06:32Z</time>
      </trkpt>
      <trkpt lat="39.7111230" lon="-6.5538960">
        <ele>330.8</ele>
        <time>2019-07-10T06:06:39Z</time>
      </trkpt>
      <trkpt lat="39.7112560" lon="-6.5542050">
        <ele>331.0</ele>
        <time>2019-07-10T06:06:45Z</time>
      </trkpt>
      <trkpt lat="39.7113050" lon="-6.5543010">
        <ele>331.0</ele>
        <time>2019-07-10T06:06:47Z</time>
      </trkpt>
      <trkpt lat="39.7113980" lon="-6.5545560">
        <ele>331.6</ele>
        <time>2019-07-10T06:06:52Z</time>
      </trkpt>
      <trkpt lat="39.7114470" lon="-6.5546490">
        <ele>332.0</ele>
        <time>2019-07-10T06:06:54Z</time>
      </trkpt>
      <trkpt lat="39.7115730" lon="-6.5548250">
        <ele>332.0</ele>
        <time>2019-07-10T06:06:58Z</time>
      </trkpt>
      <trkpt lat="39.7116090" lon="-6.5548670">
        <ele>332.0</ele>
        <time>2019-07-10T06:06:59Z</time>
      </trkpt>
      <trkpt lat="39.7116450" lon="-6.5549080">
        <ele>332.0</ele>
        <time>2019-07-10T06:07:00Z</time>
      </trkpt>
      <trkpt lat="39.7118130" lon="-6.5550990">
        <ele>332.4</ele>
        <time>2019-07-10T06:07:05Z</time>
      </trkpt>
      <trkpt lat="39.7118460" lon="-6.5551350">
        <ele>333.0</ele>
        <time>2019-07-10T06:07:06Z</time>
      </trkpt>
      <trkpt lat="39.7118790" lon="-6.5551740">
        <ele>333.0</ele>
        <time>2019-07-10T06:07:07Z</time>
      </trkpt>
      <trkpt lat="39.7120680" lon="-6.5554790">
        <ele>333.6</ele>
        <time>2019-07-10T06:07:14Z</time>
      </trkpt>
      <trkpt lat="39.7121210" lon="-6.5555420">
        <ele>334.0</ele>
        <time>2019-07-10T06:07:16Z</time>
      </trkpt>
      <trkpt lat="39.7122020" lon="-6.5556220">
        <ele>334.4</ele>
        <time>2019-07-10T06:07:19Z</time>
      </trkpt>
      <trkpt lat="39.7122560" lon="-6.5556750">
        <ele>335.0</ele>
        <time>2019-07-10T06:07:21Z</time>
      </trkpt>
      <trkpt lat="39.7123880" lon="-6.5557640">
        <ele>335.4</ele>
        <time>2019-07-10T06:07:25Z</time>
      </trkpt>
      <trkpt lat="39.7124280" lon="-6.5557800">
        <ele>335.4</ele>
        <time>2019-07-10T06:07:26Z</time>
      </trkpt>
      <trkpt lat="39.7127020" lon="-6.5557900">
        <ele>335.0</ele>
        <time>2019-07-10T06:07:32Z</time>
      </trkpt>
      <trkpt lat="39.7127730" lon="-6.5557790">
        <ele>334.4</ele>
        <time>2019-07-10T06:07:35Z</time>
      </trkpt>
      <trkpt lat="39.7127940" lon="-6.5557750">
        <ele>334.2</ele>
        <time>2019-07-10T06:07:36Z</time>
      </trkpt>
      <trkpt lat="39.7128760" lon="-6.5557690">
        <ele>333.8</ele>
        <time>2019-07-10T06:07:39Z</time>
      </trkpt>
      <trkpt lat="39.7129350" lon="-6.5557490">
        <ele>333.6</ele>
        <time>2019-07-10T06:07:41Z</time>
      </trkpt>
      <trkpt lat="39.7129670" lon="-6.5557380">
        <ele>333.4</ele>
        <time>2019-07-10T06:07:42Z</time>
      </trkpt>
      <trkpt lat="39.7131810" lon="-6.5556770">
        <ele>332.8</ele>
        <time>2019-07-10T06:07:48Z</time>
      </trkpt>
      <trkpt lat="39.7132210" lon="-6.5556710">
        <ele>332.8</ele>
        <time>2019-07-10T06:07:49Z</time>
      </trkpt>
      <trkpt lat="39.7134140" lon="-6.5555720">
        <ele>333.0</ele>
        <time>2019-07-10T06:07:54Z</time>
      </trkpt>
      <trkpt lat="39.7135930" lon="-6.5555140">
        <ele>333.2</ele>
        <time>2019-07-10T06:07:59Z</time>
      </trkpt>
      <trkpt lat="39.7136550" lon="-6.5555520">
        <ele>333.4</ele>
        <time>2019-07-10T06:08:01Z</time>
      </trkpt>
      <trkpt lat="39.7136860" lon="-6.5556350">
        <ele>333.4</ele>
        <time>2019-07-10T06:08:03Z</time>
      </trkpt>
      <trkpt lat="39.7137020" lon="-6.5557330">
        <ele>333.4</ele>
        <time>2019-07-10T06:08:05Z</time>
      </trkpt>
      <trkpt lat="39.7137220" lon="-6.5558890">
        <ele>333.8</ele>
        <time>2019-07-10T06:08:08Z</time>
      </trkpt>
      <trkpt lat="39.7137380" lon="-6.5559960">
        <ele>334.2</ele>
        <time>2019-07-10T06:08:10Z</time>
      </trkpt>
      <trkpt lat="39.7137860" lon="-6.5563210">
        <ele>334.6</ele>
        <time>2019-07-10T06:08:16Z</time>
      </trkpt>
      <trkpt lat="39.7137950" lon="-6.5563740">
        <ele>334.8</ele>
        <time>2019-07-10T06:08:17Z</time>
      </trkpt>
      <trkpt lat="39.7138000" lon="-6.5564270">
        <ele>335.0</ele>
        <time>2019-07-10T06:08:18Z</time>
      </trkpt>
      <trkpt lat="39.7138200" lon="-6.5566130">
        <ele>335.8</ele>
        <time>2019-07-10T06:08:22Z</time>
      </trkpt>
      <trkpt lat="39.7138250" lon="-6.5566940">
        <ele>336.2</ele>
        <time>2019-07-10T06:08:24Z</time>
      </trkpt>
      <trkpt lat="39.7138550" lon="-6.5568430">
        <ele>337.2</ele>
        <time>2019-07-10T06:08:28Z</time>
      </trkpt>
      <trkpt lat="39.7138620" lon="-6.5569210">
        <ele>337.6</ele>
        <time>2019-07-10T06:08:30Z</time>
      </trkpt>
      <trkpt lat="39.7138610" lon="-6.5570390">
        <ele>338.0</ele>
        <time>2019-07-10T06:08:33Z</time>
      </trkpt>
      <trkpt lat="39.7138570" lon="-6.5571600">
        <ele>338.2</ele>
        <time>2019-07-10T06:08:36Z</time>
      </trkpt>
      <trkpt lat="39.7138560" lon="-6.5572010">
        <ele>338.4</ele>
        <time>2019-07-10T06:08:37Z</time>
      </trkpt>
      <trkpt lat="39.7138590" lon="-6.5573660">
        <ele>339.2</ele>
        <time>2019-07-10T06:08:41Z</time>
      </trkpt>
      <trkpt lat="39.7138780" lon="-6.5575610">
        <ele>340.2</ele>
        <time>2019-07-10T06:08:46Z</time>
      </trkpt>
      <trkpt lat="39.7138860" lon="-6.5575990">
        <ele>340.2</ele>
        <time>2019-07-10T06:08:47Z</time>
      </trkpt>
      <trkpt lat="39.7139230" lon="-6.5577870">
        <ele>341.4</ele>
        <time>2019-07-10T06:08:52Z</time>
      </trkpt>
      <trkpt lat="39.7139460" lon="-6.5579390">
        <ele>342.0</ele>
        <time>2019-07-10T06:08:56Z</time>
      </trkpt>
      <trkpt lat="39.7139600" lon="-6.5580140">
        <ele>342.6</ele>
        <time>2019-07-10T06:08:58Z</time>
      </trkpt>
      <trkpt lat="39.7139830" lon="-6.5581190">
        <ele>343.6</ele>
        <time>2019-07-10T06:09:01Z</time>
      </trkpt>
      <trkpt lat="39.7140100" lon="-6.5582210">
        <ele>344.2</ele>
        <time>2019-07-10T06:09:04Z</time>
      </trkpt>
      <trkpt lat="39.7140230" lon="-6.5582860">
        <ele>344.8</ele>
        <time>2019-07-10T06:09:06Z</time>
      </trkpt>
      <trkpt lat="39.7140610" lon="-6.5584400">
        <ele>345.8</ele>
        <time>2019-07-10T06:09:11Z</time>
      </trkpt>
      <trkpt lat="39.7140790" lon="-6.5585560">
        <ele>347.0</ele>
        <time>2019-07-10T06:09:15Z</time>
      </trkpt>
      <trkpt lat="39.7140940" lon="-6.5586460">
        <ele>347.6</ele>
        <time>2019-07-10T06:09:18Z</time>
      </trkpt>
      <trkpt lat="39.7140970" lon="-6.5586740">
        <ele>348.0</ele>
        <time>2019-07-10T06:09:19Z</time>
      </trkpt>
      <trkpt lat="39.7140980" lon="-6.5587030">
        <ele>348.4</ele>
        <time>2019-07-10T06:09:20Z</time>
      </trkpt>
      <trkpt lat="39.7141050" lon="-6.5587930">
        <ele>349.2</ele>
        <time>2019-07-10T06:09:23Z</time>
      </trkpt>
      <trkpt lat="39.7141200" lon="-6.5589150">
        <ele>350.4</ele>
        <time>2019-07-10T06:09:27Z</time>
      </trkpt>
      <trkpt lat="39.7141250" lon="-6.5589470">
        <ele>350.8</ele>
        <time>2019-07-10T06:09:28Z</time>
      </trkpt>
      <trkpt lat="39.7141440" lon="-6.5590750">
        <ele>351.6</ele>
        <time>2019-07-10T06:09:32Z</time>
      </trkpt>
      <trkpt lat="39.7141460" lon="-6.5592190">
        <ele>352.2</ele>
        <time>2019-07-10T06:09:36Z</time>
      </trkpt>
      <trkpt lat="39.7141570" lon="-6.5593420">
        <ele>352.6</ele>
        <time>2019-07-10T06:09:39Z</time>
      </trkpt>
      <trkpt lat="39.7141830" lon="-6.5594900">
        <ele>352.6</ele>
        <time>2019-07-10T06:09:42Z</time>
      </trkpt>
      <trkpt lat="39.7141990" lon="-6.5595460">
        <ele>352.6</ele>
        <time>2019-07-10T06:09:43Z</time>
      </trkpt>
      <trkpt lat="39.7142790" lon="-6.5597850">
        <ele>352.4</ele>
        <time>2019-07-10T06:09:47Z</time>
      </trkpt>
      <trkpt lat="39.7143000" lon="-6.5598430">
        <ele>352.2</ele>
        <time>2019-07-10T06:09:48Z</time>
      </trkpt>
      <trkpt lat="39.7143870" lon="-6.5600700">
        <ele>352.2</ele>
        <time>2019-07-10T06:09:52Z</time>
      </trkpt>
      <trkpt lat="39.7144480" lon="-6.5602350">
        <ele>352.4</ele>
        <time>2019-07-10T06:09:55Z</time>
      </trkpt>
      <trkpt lat="39.7144660" lon="-6.5602870">
        <ele>352.6</ele>
        <time>2019-07-10T06:09:56Z</time>
      </trkpt>
      <trkpt lat="39.7144870" lon="-6.5603350">
        <ele>352.8</ele>
        <time>2019-07-10T06:09:57Z</time>
      </trkpt>
      <trkpt lat="39.7145270" lon="-6.5604330">
        <ele>353.2</ele>
        <time>2019-07-10T06:09:59Z</time>
      </trkpt>
      <trkpt lat="39.7145600" lon="-6.5605450">
        <ele>353.4</ele>
        <time>2019-07-10T06:10:01Z</time>
      </trkpt>
      <trkpt lat="39.7146060" lon="-6.5606520">
        <ele>353.4</ele>
        <time>2019-07-10T06:10:03Z</time>
      </trkpt>
      <trkpt lat="39.7146480" lon="-6.5607680">
        <ele>353.6</ele>
        <time>2019-07-10T06:10:05Z</time>
      </trkpt>
      <trkpt lat="39.7146660" lon="-6.5608280">
        <ele>353.6</ele>
        <time>2019-07-10T06:10:06Z</time>
      </trkpt>
      <trkpt lat="39.7147330" lon="-6.5611480">
        <ele>353.6</ele>
        <time>2019-07-10T06:10:11Z</time>
      </trkpt>
      <trkpt lat="39.7147400" lon="-6.5612090">
        <ele>353.6</ele>
        <time>2019-07-10T06:10:12Z</time>
      </trkpt>
      <trkpt lat="39.7147600" lon="-6.5613980">
        <ele>354.0</ele>
        <time>2019-07-10T06:10:15Z</time>
      </trkpt>
      <trkpt lat="39.7148050" lon="-6.5616420">
        <ele>354.4</ele>
        <time>2019-07-10T06:10:19Z</time>
      </trkpt>
      <trkpt lat="39.7148170" lon="-6.5617020">
        <ele>354.6</ele>
        <time>2019-07-10T06:10:20Z</time>
      </trkpt>
      <trkpt lat="39.7148310" lon="-6.5617610">
        <ele>354.6</ele>
        <time>2019-07-10T06:10:21Z</time>
      </trkpt>
      <trkpt lat="39.7148960" lon="-6.5620500">
        <ele>355.2</ele>
        <time>2019-07-10T06:10:26Z</time>
      </trkpt>
      <trkpt lat="39.7149810" lon="-6.5623980">
        <ele>355.8</ele>
        <time>2019-07-10T06:10:32Z</time>
      </trkpt>
      <trkpt lat="39.7149920" lon="-6.5624550">
        <ele>355.8</ele>
        <time>2019-07-10T06:10:33Z</time>
      </trkpt>
      <trkpt lat="39.7150700" lon="-6.5628530">
        <ele>357.0</ele>
        <time>2019-07-10T06:10:40Z</time>
      </trkpt>
      <trkpt lat="39.7150800" lon="-6.5629060">
        <ele>357.0</ele>
        <time>2019-07-10T06:10:41Z</time>
      </trkpt>
      <trkpt lat="39.7151410" lon="-6.5631490">
        <ele>358.0</ele>
        <time>2019-07-10T06:10:46Z</time>
      </trkpt>
      <trkpt lat="39.7151680" lon="-6.5632450">
        <ele>358.4</ele>
        <time>2019-07-10T06:10:48Z</time>
      </trkpt>
      <trkpt lat="39.7152000" lon="-6.5633440">
        <ele>358.8</ele>
        <time>2019-07-10T06:10:50Z</time>
      </trkpt>
      <trkpt lat="39.7152170" lon="-6.5633940">
        <ele>359.0</ele>
        <time>2019-07-10T06:10:51Z</time>
      </trkpt>
      <trkpt lat="39.7153090" lon="-6.5636530">
        <ele>359.6</ele>
        <time>2019-07-10T06:10:56Z</time>
      </trkpt>
      <trkpt lat="39.7154150" lon="-6.5639740">
        <ele>360.0</ele>
        <time>2019-07-10T06:11:02Z</time>
      </trkpt>
      <trkpt lat="39.7154530" lon="-6.5640860">
        <ele>360.0</ele>
        <time>2019-07-10T06:11:04Z</time>
      </trkpt>
      <trkpt lat="39.7155740" lon="-6.5645600">
        <ele>360.8</ele>
        <time>2019-07-10T06:11:12Z</time>
      </trkpt>
      <trkpt lat="39.7156240" lon="-6.5649170">
        <ele>360.8</ele>
        <time>2019-07-10T06:11:18Z</time>
      </trkpt>
      <trkpt lat="39.7156290" lon="-6.5649750">
        <ele>360.8</ele>
        <time>2019-07-10T06:11:19Z</time>
      </trkpt>
      <trkpt lat="39.7156340" lon="-6.5650320">
        <ele>361.0</ele>
        <time>2019-07-10T06:11:20Z</time>
      </trkpt>
      <trkpt lat="39.7156550" lon="-6.5652770">
        <ele>362.4</ele>
        <time>2019-07-10T06:11:25Z</time>
      </trkpt>
      <trkpt lat="39.7156590" lon="-6.5653180">
        <ele>362.8</ele>
        <time>2019-07-10T06:11:26Z</time>
      </trkpt>
      <trkpt lat="39.7156600" lon="-6.5653940">
        <ele>363.8</ele>
        <time>2019-07-10T06:11:28Z</time>
      </trkpt>
      <trkpt lat="39.7156610" lon="-6.5654690">
        <ele>364.4</ele>
        <time>2019-07-10T06:11:30Z</time>
      </trkpt>
      <trkpt lat="39.7156600" lon="-6.5655090">
        <ele>365.0</ele>
        <time>2019-07-10T06:11:31Z</time>
      </trkpt>
      <trkpt lat="39.7156590" lon="-6.5655940">
        <ele>365.8</ele>
        <time>2019-07-10T06:11:33Z</time>
      </trkpt>
      <trkpt lat="39.7156550" lon="-6.5656370">
        <ele>366.0</ele>
        <time>2019-07-10T06:11:34Z</time>
      </trkpt>
      <trkpt lat="39.7156410" lon="-6.5657180">
        <ele>366.4</ele>
        <time>2019-07-10T06:11:36Z</time>
      </trkpt>
      <trkpt lat="39.7156340" lon="-6.5657970">
        <ele>367.2</ele>
        <time>2019-07-10T06:11:38Z</time>
      </trkpt>
      <trkpt lat="39.7156310" lon="-6.5658400">
        <ele>367.6</ele>
        <time>2019-07-10T06:11:39Z</time>
      </trkpt>
      <trkpt lat="39.7156180" lon="-6.5660720">
        <ele>368.2</ele>
        <time>2019-07-10T06:11:44Z</time>
      </trkpt>
      <trkpt lat="39.7156120" lon="-6.5662350">
        <ele>368.4</ele>
        <time>2019-07-10T06:11:47Z</time>
      </trkpt>
      <trkpt lat="39.7156280" lon="-6.5665180">
        <ele>369.4</ele>
        <time>2019-07-10T06:11:53Z</time>
      </trkpt>
      <trkpt lat="39.7156340" lon="-6.5665630">
        <ele>369.6</ele>
        <time>2019-07-10T06:11:54Z</time>
      </trkpt>
      <trkpt lat="39.7156750" lon="-6.5669830">
        <ele>370.2</ele>
        <time>2019-07-10T06:12:02Z</time>
      </trkpt>
      <trkpt lat="39.7156690" lon="-6.5670870">
        <ele>370.4</ele>
        <time>2019-07-10T06:12:04Z</time>
      </trkpt>
      <trkpt lat="39.7156370" lon="-6.5673310">
        <ele>371.2</ele>
        <time>2019-07-10T06:12:09Z</time>
      </trkpt>
      <trkpt lat="39.7156290" lon="-6.5673760">
        <ele>371.6</ele>
        <time>2019-07-10T06:12:10Z</time>
      </trkpt>
      <trkpt lat="39.7155990" lon="-6.5675450">
        <ele>372.8</ele>
        <time>2019-07-10T06:12:14Z</time>
      </trkpt>
      <trkpt lat="39.7155770" lon="-6.5676590">
        <ele>373.6</ele>
        <time>2019-07-10T06:12:17Z</time>
      </trkpt>
      <trkpt lat="39.7155690" lon="-6.5676950">
        <ele>374.0</ele>
        <time>2019-07-10T06:12:18Z</time>
      </trkpt>
      <trkpt lat="39.7155490" lon="-6.5678580">
        <ele>375.2</ele>
        <time>2019-07-10T06:12:22Z</time>
      </trkpt>
      <trkpt lat="39.7155460" lon="-6.5679010">
        <ele>375.4</ele>
        <time>2019-07-10T06:12:23Z</time>
      </trkpt>
      <trkpt lat="39.7155330" lon="-6.5680750">
        <ele>376.4</ele>
        <time>2019-07-10T06:12:27Z</time>
      </trkpt>
      <trkpt lat="39.7154990" lon="-6.5682610">
        <ele>376.8</ele>
        <time>2019-07-10T06:12:31Z</time>
      </trkpt>
      <trkpt lat="39.7154050" lon="-6.5684690">
        <ele>377.4</ele>
        <time>2019-07-10T06:12:36Z</time>
      </trkpt>
      <trkpt lat="39.7153820" lon="-6.5685070">
        <ele>377.6</ele>
        <time>2019-07-10T06:12:37Z</time>
      </trkpt>
      <trkpt lat="39.7152460" lon="-6.5687590">
        <ele>378.6</ele>
        <time>2019-07-10T06:12:44Z</time>
      </trkpt>
      <trkpt lat="39.7152280" lon="-6.5687980">
        <ele>379.0</ele>
        <time>2019-07-10T06:12:45Z</time>
      </trkpt>
      <trkpt lat="39.7151730" lon="-6.5689850">
        <ele>379.6</ele>
        <time>2019-07-10T06:12:49Z</time>
      </trkpt>
      <trkpt lat="39.7151650" lon="-6.5690400">
        <ele>379.8</ele>
        <time>2019-07-10T06:12:50Z</time>
      </trkpt>
      <trkpt lat="39.7151560" lon="-6.5690970">
        <ele>379.8</ele>
        <time>2019-07-10T06:12:51Z</time>
      </trkpt>
      <trkpt lat="39.7151340" lon="-6.5692190">
        <ele>379.4</ele>
        <time>2019-07-10T06:12:53Z</time>
      </trkpt>
      <trkpt lat="39.7151590" lon="-6.5693860">
        <ele>379.4</ele>
        <time>2019-07-10T06:12:56Z</time>
      </trkpt>
      <trkpt lat="39.7152180" lon="-6.5694710">
        <ele>379.2</ele>
        <time>2019-07-10T06:12:58Z</time>
      </trkpt>
      <trkpt lat="39.7153050" lon="-6.5696170">
        <ele>379.4</ele>
        <time>2019-07-10T06:13:01Z</time>
      </trkpt>
      <trkpt lat="39.7154420" lon="-6.5699660">
        <ele>379.0</ele>
        <time>2019-07-10T06:13:07Z</time>
      </trkpt>
      <trkpt lat="39.7155110" lon="-6.5700740">
        <ele>378.8</ele>
        <time>2019-07-10T06:13:09Z</time>
      </trkpt>
      <trkpt lat="39.7155960" lon="-6.5701500">
        <ele>379.0</ele>
        <time>2019-07-10T06:13:11Z</time>
      </trkpt>
      <trkpt lat="39.7156830" lon="-6.5702050">
        <ele>379.2</ele>
        <time>2019-07-10T06:13:13Z</time>
      </trkpt>
      <trkpt lat="39.7157960" lon="-6.5702640">
        <ele>379.6</ele>
        <time>2019-07-10T06:13:16Z</time>
      </trkpt>
      <trkpt lat="39.7158920" lon="-6.5703090">
        <ele>380.6</ele>
        <time>2019-07-10T06:13:19Z</time>
      </trkpt>
      <trkpt lat="39.7159460" lon="-6.5703430">
        <ele>381.6</ele>
        <time>2019-07-10T06:13:21Z</time>
      </trkpt>
      <trkpt lat="39.7160640" lon="-6.5704430">
        <ele>382.8</ele>
        <time>2019-07-10T06:13:25Z</time>
      </trkpt>
      <trkpt lat="39.7160960" lon="-6.5704800">
        <ele>383.0</ele>
        <time>2019-07-10T06:13:26Z</time>
      </trkpt>
      <trkpt lat="39.7162700" lon="-6.5707170">
        <ele>382.6</ele>
        <time>2019-07-10T06:13:31Z</time>
      </trkpt>
      <trkpt lat="39.7163060" lon="-6.5707820">
        <ele>382.4</ele>
        <time>2019-07-10T06:13:32Z</time>
      </trkpt>
      <trkpt lat="39.7163720" lon="-6.5709370">
        <ele>381.6</ele>
        <time>2019-07-10T06:13:34Z</time>
      </trkpt>
      <trkpt lat="39.7164030" lon="-6.5710230">
        <ele>381.2</ele>
        <time>2019-07-10T06:13:35Z</time>
      </trkpt>
      <trkpt lat="39.7164310" lon="-6.5711120">
        <ele>380.6</ele>
        <time>2019-07-10T06:13:36Z</time>
      </trkpt>
      <trkpt lat="39.7164740" lon="-6.5712980">
        <ele>379.4</ele>
        <time>2019-07-10T06:13:38Z</time>
      </trkpt>
      <trkpt lat="39.7164820" lon="-6.5714870">
        <ele>378.4</ele>
        <time>2019-07-10T06:13:40Z</time>
      </trkpt>
      <trkpt lat="39.7164770" lon="-6.5715820">
        <ele>378.2</ele>
        <time>2019-07-10T06:13:41Z</time>
      </trkpt>
      <trkpt lat="39.7164540" lon="-6.5717690">
        <ele>377.2</ele>
        <time>2019-07-10T06:13:43Z</time>
      </trkpt>
      <trkpt lat="39.7164400" lon="-6.5718600">
        <ele>377.0</ele>
        <time>2019-07-10T06:13:44Z</time>
      </trkpt>
      <trkpt lat="39.7164270" lon="-6.5719490">
        <ele>376.8</ele>
        <time>2019-07-10T06:13:45Z</time>
      </trkpt>
      <trkpt lat="39.7164010" lon="-6.5723570">
        <ele>376.4</ele>
        <time>2019-07-10T06:13:50Z</time>
      </trkpt>
      <trkpt lat="39.7164310" lon="-6.5725020">
        <ele>376.2</ele>
        <time>2019-07-10T06:13:52Z</time>
      </trkpt>
      <trkpt lat="39.7164860" lon="-6.5726670">
        <ele>376.0</ele>
        <time>2019-07-10T06:13:54Z</time>
      </trkpt>
      <trkpt lat="39.7165260" lon="-6.5727570">
        <ele>375.6</ele>
        <time>2019-07-10T06:13:55Z</time>
      </trkpt>
      <trkpt lat="39.7166290" lon="-6.5729270">
        <ele>374.4</ele>
        <time>2019-07-10T06:13:57Z</time>
      </trkpt>
      <trkpt lat="39.7166880" lon="-6.5730040">
        <ele>373.6</ele>
        <time>2019-07-10T06:13:58Z</time>
      </trkpt>
      <trkpt lat="39.7167450" lon="-6.5730750">
        <ele>372.8</ele>
        <time>2019-07-10T06:13:59Z</time>
      </trkpt>
      <trkpt lat="39.7168450" lon="-6.5732220">
        <ele>371.8</ele>
        <time>2019-07-10T06:14:01Z</time>
      </trkpt>
      <trkpt lat="39.7168880" lon="-6.5732980">
        <ele>371.6</ele>
        <time>2019-07-10T06:14:02Z</time>
      </trkpt>
      <trkpt lat="39.7169330" lon="-6.5733700">
        <ele>371.0</ele>
        <time>2019-07-10T06:14:03Z</time>
      </trkpt>
      <trkpt lat="39.7170320" lon="-6.5734840">
        <ele>370.4</ele>
        <time>2019-07-10T06:14:05Z</time>
      </trkpt>
      <trkpt lat="39.7170790" lon="-6.5735260">
        <ele>370.2</ele>
        <time>2019-07-10T06:14:06Z</time>
      </trkpt>
      <trkpt lat="39.7171240" lon="-6.5735600">
        <ele>370.0</ele>
        <time>2019-07-10T06:14:07Z</time>
      </trkpt>
      <trkpt lat="39.7172060" lon="-6.5736050">
        <ele>369.4</ele>
        <time>2019-07-10T06:14:09Z</time>
      </trkpt>
      <trkpt lat="39.7172450" lon="-6.5736320">
        <ele>369.2</ele>
        <time>2019-07-10T06:14:10Z</time>
      </trkpt>
      <trkpt lat="39.7172850" lon="-6.5736650">
        <ele>369.0</ele>
        <time>2019-07-10T06:14:11Z</time>
      </trkpt>
      <trkpt lat="39.7174350" lon="-6.5738060">
        <ele>368.6</ele>
        <time>2019-07-10T06:14:14Z</time>
      </trkpt>
      <trkpt lat="39.7174890" lon="-6.5738610">
        <ele>367.6</ele>
        <time>2019-07-10T06:14:15Z</time>
      </trkpt>
      <trkpt lat="39.7175420" lon="-6.5739090">
        <ele>366.8</ele>
        <time>2019-07-10T06:14:16Z</time>
      </trkpt>
      <trkpt lat="39.7175960" lon="-6.5739470">
        <ele>366.2</ele>
        <time>2019-07-10T06:14:17Z</time>
      </trkpt>
      <trkpt lat="39.7176540" lon="-6.5739780">
        <ele>365.4</ele>
        <time>2019-07-10T06:14:18Z</time>
      </trkpt>
      <trkpt lat="39.7177180" lon="-6.5740070">
        <ele>364.6</ele>
        <time>2019-07-10T06:14:19Z</time>
      </trkpt>
      <trkpt lat="39.7178470" lon="-6.5740610">
        <ele>363.0</ele>
        <time>2019-07-10T06:14:21Z</time>
      </trkpt>
      <trkpt lat="39.7179070" lon="-6.5740750">
        <ele>362.4</ele>
        <time>2019-07-10T06:14:22Z</time>
      </trkpt>
      <trkpt lat="39.7180240" lon="-6.5740530">
        <ele>361.6</ele>
        <time>2019-07-10T06:14:24Z</time>
      </trkpt>
      <trkpt lat="39.7180780" lon="-6.5740220">
        <ele>361.4</ele>
        <time>2019-07-10T06:14:25Z</time>
      </trkpt>
      <trkpt lat="39.7181300" lon="-6.5739830">
        <ele>361.0</ele>
        <time>2019-07-10T06:14:26Z</time>
      </trkpt>
      <trkpt lat="39.7181810" lon="-6.5739430">
        <ele>360.6</ele>
        <time>2019-07-10T06:14:27Z</time>
      </trkpt>
      <trkpt lat="39.7182800" lon="-6.5738810">
        <ele>360.2</ele>
        <time>2019-07-10T06:14:29Z</time>
      </trkpt>
      <trkpt lat="39.7183260" lon="-6.5738750">
        <ele>360.0</ele>
        <time>2019-07-10T06:14:30Z</time>
      </trkpt>
      <trkpt lat="39.7184560" lon="-6.5739460">
        <ele>359.8</ele>
        <time>2019-07-10T06:14:33Z</time>
      </trkpt>
      <trkpt lat="39.7185050" lon="-6.5739800">
        <ele>359.6</ele>
        <time>2019-07-10T06:14:34Z</time>
      </trkpt>
      <trkpt lat="39.7187130" lon="-6.5741610">
        <ele>358.4</ele>
        <time>2019-07-10T06:14:38Z</time>
      </trkpt>
      <trkpt lat="39.7188700" lon="-6.5743120">
        <ele>357.8</ele>
        <time>2019-07-10T06:14:41Z</time>
      </trkpt>
      <trkpt lat="39.7189410" lon="-6.5744450">
        <ele>357.4</ele>
        <time>2019-07-10T06:14:43Z</time>
      </trkpt>
      <trkpt lat="39.7190090" lon="-6.5746440">
        <ele>357.2</ele>
        <time>2019-07-10T06:14:46Z</time>
      </trkpt>
      <trkpt lat="39.7190270" lon="-6.5747730">
        <ele>357.4</ele>
        <time>2019-07-10T06:14:48Z</time>
      </trkpt>
      <trkpt lat="39.7190290" lon="-6.5748350">
        <ele>357.6</ele>
        <time>2019-07-10T06:14:49Z</time>
      </trkpt>
      <trkpt lat="39.7190270" lon="-6.5748960">
        <ele>357.6</ele>
        <time>2019-07-10T06:14:50Z</time>
      </trkpt>
      <trkpt lat="39.7190190" lon="-6.5750090">
        <ele>358.0</ele>
        <time>2019-07-10T06:14:52Z</time>
      </trkpt>
      <trkpt lat="39.7190100" lon="-6.5750590">
        <ele>358.0</ele>
        <time>2019-07-10T06:14:53Z</time>
      </trkpt>
      <trkpt lat="39.7189950" lon="-6.5751540">
        <ele>358.6</ele>
        <time>2019-07-10T06:14:55Z</time>
      </trkpt>
      <trkpt lat="39.7189800" lon="-6.5752450">
        <ele>359.8</ele>
        <time>2019-07-10T06:14:57Z</time>
      </trkpt>
      <trkpt lat="39.7189720" lon="-6.5753330">
        <ele>360.8</ele>
        <time>2019-07-10T06:14:59Z</time>
      </trkpt>
      <trkpt lat="39.7189710" lon="-6.5753770">
        <ele>361.4</ele>
        <time>2019-07-10T06:15:00Z</time>
      </trkpt>
      <trkpt lat="39.7189990" lon="-6.5755120">
        <ele>362.0</ele>
        <time>2019-07-10T06:15:03Z</time>
      </trkpt>
      <trkpt lat="39.7190130" lon="-6.5755600">
        <ele>362.2</ele>
        <time>2019-07-10T06:15:04Z</time>
      </trkpt>
      <trkpt lat="39.7190270" lon="-6.5756080">
        <ele>362.6</ele>
        <time>2019-07-10T06:15:05Z</time>
      </trkpt>
      <trkpt lat="39.7190590" lon="-6.5757560">
        <ele>363.2</ele>
        <time>2019-07-10T06:15:08Z</time>
      </trkpt>
      <trkpt lat="39.7190750" lon="-6.5758490">
        <ele>363.6</ele>
        <time>2019-07-10T06:15:10Z</time>
      </trkpt>
      <trkpt lat="39.7190950" lon="-6.5759430">
        <ele>364.2</ele>
        <time>2019-07-10T06:15:12Z</time>
      </trkpt>
      <trkpt lat="39.7191480" lon="-6.5761270">
        <ele>364.2</ele>
        <time>2019-07-10T06:15:15Z</time>
      </trkpt>
      <trkpt lat="39.7191650" lon="-6.5762020">
        <ele>364.0</ele>
        <time>2019-07-10T06:15:16Z</time>
      </trkpt>
      <trkpt lat="39.7191630" lon="-6.5765440">
        <ele>363.0</ele>
        <time>2019-07-10T06:15:20Z</time>
      </trkpt>
      <trkpt lat="39.7191310" lon="-6.5767230">
        <ele>362.6</ele>
        <time>2019-07-10T06:15:22Z</time>
      </trkpt>
      <trkpt lat="39.7190940" lon="-6.5768990">
        <ele>362.0</ele>
        <time>2019-07-10T06:15:24Z</time>
      </trkpt>
      <trkpt lat="39.7190590" lon="-6.5770730">
        <ele>361.4</ele>
        <time>2019-07-10T06:15:26Z</time>
      </trkpt>
      <trkpt lat="39.7190260" lon="-6.5774220">
        <ele>360.4</ele>
        <time>2019-07-10T06:15:30Z</time>
      </trkpt>
      <trkpt lat="39.7190250" lon="-6.5775070">
        <ele>360.4</ele>
        <time>2019-07-10T06:15:31Z</time>
      </trkpt>
      <trkpt lat="39.7190180" lon="-6.5776860">
        <ele>359.0</ele>
        <time>2019-07-10T06:15:33Z</time>
      </trkpt>
      <trkpt lat="39.7190210" lon="-6.5778690">
        <ele>357.4</ele>
        <time>2019-07-10T06:15:35Z</time>
      </trkpt>
      <trkpt lat="39.7190350" lon="-6.5779570">
        <ele>356.8</ele>
        <time>2019-07-10T06:15:36Z</time>
      </trkpt>
      <trkpt lat="39.7190590" lon="-6.5780410">
        <ele>355.8</ele>
        <time>2019-07-10T06:15:37Z</time>
      </trkpt>
      <trkpt lat="39.7190910" lon="-6.5781210">
        <ele>354.8</ele>
        <time>2019-07-10T06:15:38Z</time>
      </trkpt>
      <trkpt lat="39.7191320" lon="-6.5781970">
        <ele>354.2</ele>
        <time>2019-07-10T06:15:39Z</time>
      </trkpt>
      <trkpt lat="39.7191810" lon="-6.5782680">
        <ele>353.4</ele>
        <time>2019-07-10T06:15:40Z</time>
      </trkpt>
      <trkpt lat="39.7192350" lon="-6.5783380">
        <ele>352.8</ele>
        <time>2019-07-10T06:15:41Z</time>
      </trkpt>
      <trkpt lat="39.7193420" lon="-6.5784860">
        <ele>352.0</ele>
        <time>2019-07-10T06:15:43Z</time>
      </trkpt>
      <trkpt lat="39.7193910" lon="-6.5785530">
        <ele>351.6</ele>
        <time>2019-07-10T06:15:44Z</time>
      </trkpt>
      <trkpt lat="39.7194810" lon="-6.5786680">
        <ele>350.6</ele>
        <time>2019-07-10T06:15:46Z</time>
      </trkpt>
      <trkpt lat="39.7195370" lon="-6.5787040">
        <ele>350.2</ele>
        <time>2019-07-10T06:15:47Z</time>
      </trkpt>
      <trkpt lat="39.7196570" lon="-6.5787610">
        <ele>349.6</ele>
        <time>2019-07-10T06:15:49Z</time>
      </trkpt>
      <trkpt lat="39.7197190" lon="-6.5787980">
        <ele>349.2</ele>
        <time>2019-07-10T06:15:50Z</time>
      </trkpt>
      <trkpt lat="39.7198470" lon="-6.5788690">
        <ele>348.6</ele>
        <time>2019-07-10T06:15:52Z</time>
      </trkpt>
      <trkpt lat="39.7199100" lon="-6.5789140">
        <ele>348.2</ele>
        <time>2019-07-10T06:15:53Z</time>
      </trkpt>
      <trkpt lat="39.7200690" lon="-6.5790790">
        <ele>347.6</ele>
        <time>2019-07-10T06:15:56Z</time>
      </trkpt>
      <trkpt lat="39.7202450" lon="-6.5792670">
        <ele>347.0</ele>
        <time>2019-07-10T06:15:59Z</time>
      </trkpt>
      <trkpt lat="39.7203130" lon="-6.5793230">
        <ele>346.4</ele>
        <time>2019-07-10T06:16:00Z</time>
      </trkpt>
      <trkpt lat="39.7203840" lon="-6.5793680">
        <ele>345.8</ele>
        <time>2019-07-10T06:16:01Z</time>
      </trkpt>
      <trkpt lat="39.7205140" lon="-6.5794210">
        <ele>345.4</ele>
        <time>2019-07-10T06:16:03Z</time>
      </trkpt>
      <trkpt lat="39.7206260" lon="-6.5794740">
        <ele>344.8</ele>
        <time>2019-07-10T06:16:06Z</time>
      </trkpt>
      <trkpt lat="39.7206830" lon="-6.5796540">
        <ele>344.4</ele>
        <time>2019-07-10T06:16:10Z</time>
      </trkpt>
      <trkpt lat="39.7207020" lon="-6.5797790">
        <ele>344.2</ele>
        <time>2019-07-10T06:16:12Z</time>
      </trkpt>
      <trkpt lat="39.7207000" lon="-6.5799160">
        <ele>343.8</ele>
        <time>2019-07-10T06:16:14Z</time>
      </trkpt>
      <trkpt lat="39.7206930" lon="-6.5799840">
        <ele>343.8</ele>
        <time>2019-07-10T06:16:15Z</time>
      </trkpt>
      <trkpt lat="39.7206730" lon="-6.5803230">
        <ele>343.6</ele>
        <time>2019-07-10T06:16:20Z</time>
      </trkpt>
      <trkpt lat="39.7206820" lon="-6.5803910">
        <ele>343.6</ele>
        <time>2019-07-10T06:16:21Z</time>
      </trkpt>
      <trkpt lat="39.7207340" lon="-6.5806700">
        <ele>343.8</ele>
        <time>2019-07-10T06:16:25Z</time>
      </trkpt>
      <trkpt lat="39.7207700" lon="-6.5808860">
        <ele>344.0</ele>
        <time>2019-07-10T06:16:28Z</time>
      </trkpt>
      <trkpt lat="39.7207900" lon="-6.5809550">
        <ele>344.0</ele>
        <time>2019-07-10T06:16:29Z</time>
      </trkpt>
      <trkpt lat="39.7208670" lon="-6.5811410">
        <ele>344.2</ele>
        <time>2019-07-10T06:16:32Z</time>
      </trkpt>
      <trkpt lat="39.7208860" lon="-6.5812030">
        <ele>344.2</ele>
        <time>2019-07-10T06:16:33Z</time>
      </trkpt>
      <trkpt lat="39.7208940" lon="-6.5812670">
        <ele>344.4</ele>
        <time>2019-07-10T06:16:34Z</time>
      </trkpt>
      <trkpt lat="39.7208860" lon="-6.5814580">
        <ele>344.6</ele>
        <time>2019-07-10T06:16:37Z</time>
      </trkpt>
      <trkpt lat="39.7208740" lon="-6.5816340">
        <ele>344.8</ele>
        <time>2019-07-10T06:16:40Z</time>
      </trkpt>
      <trkpt lat="39.7208690" lon="-6.5816900">
        <ele>345.0</ele>
        <time>2019-07-10T06:16:41Z</time>
      </trkpt>
      <trkpt lat="39.7208430" lon="-6.5819040">
        <ele>346.2</ele>
        <time>2019-07-10T06:16:45Z</time>
      </trkpt>
      <trkpt lat="39.7208270" lon="-6.5819970">
        <ele>346.6</ele>
        <time>2019-07-10T06:16:47Z</time>
      </trkpt>
      <trkpt lat="39.7207940" lon="-6.5821260">
        <ele>347.2</ele>
        <time>2019-07-10T06:16:50Z</time>
      </trkpt>
      <trkpt lat="39.7207820" lon="-6.5821660">
        <ele>347.4</ele>
        <time>2019-07-10T06:16:51Z</time>
      </trkpt>
      <trkpt lat="39.7207510" lon="-6.5822890">
        <ele>348.6</ele>
        <time>2019-07-10T06:16:54Z</time>
      </trkpt>
      <trkpt lat="39.7207430" lon="-6.5823300">
        <ele>348.8</ele>
        <time>2019-07-10T06:16:55Z</time>
      </trkpt>
      <trkpt lat="39.7207280" lon="-6.5824130">
        <ele>349.8</ele>
        <time>2019-07-10T06:16:57Z</time>
      </trkpt>
      <trkpt lat="39.7207180" lon="-6.5824970">
        <ele>350.2</ele>
        <time>2019-07-10T06:16:59Z</time>
      </trkpt>
      <trkpt lat="39.7207060" lon="-6.5825830">
        <ele>350.8</ele>
        <time>2019-07-10T06:17:01Z</time>
      </trkpt>
      <trkpt lat="39.7206950" lon="-6.5826710">
        <ele>351.4</ele>
        <time>2019-07-10T06:17:03Z</time>
      </trkpt>
      <trkpt lat="39.7206880" lon="-6.5827600">
        <ele>351.8</ele>
        <time>2019-07-10T06:17:05Z</time>
      </trkpt>
      <trkpt lat="39.7206790" lon="-6.5828920">
        <ele>352.2</ele>
        <time>2019-07-10T06:17:08Z</time>
      </trkpt>
      <trkpt lat="39.7206750" lon="-6.5830240">
        <ele>352.6</ele>
        <time>2019-07-10T06:17:11Z</time>
      </trkpt>
      <trkpt lat="39.7206740" lon="-6.5831120">
        <ele>353.0</ele>
        <time>2019-07-10T06:17:13Z</time>
      </trkpt>
      <trkpt lat="39.7207230" lon="-6.5832720">
        <ele>353.8</ele>
        <time>2019-07-10T06:17:17Z</time>
      </trkpt>
      <trkpt lat="39.7207460" lon="-6.5833040">
        <ele>354.2</ele>
        <time>2019-07-10T06:17:18Z</time>
      </trkpt>
      <trkpt lat="39.7208680" lon="-6.5834220">
        <ele>355.4</ele>
        <time>2019-07-10T06:17:23Z</time>
      </trkpt>
      <trkpt lat="39.7209710" lon="-6.5835230">
        <ele>356.4</ele>
        <time>2019-07-10T06:17:27Z</time>
      </trkpt>
      <trkpt lat="39.7210540" lon="-6.5836450">
        <ele>356.6</ele>
        <time>2019-07-10T06:17:30Z</time>
      </trkpt>
      <trkpt lat="39.7212280" lon="-6.5839080">
        <ele>355.2</ele>
        <time>2019-07-10T06:17:35Z</time>
      </trkpt>
      <trkpt lat="39.7213120" lon="-6.5840230">
        <ele>355.0</ele>
        <time>2019-07-10T06:17:37Z</time>
      </trkpt>
      <trkpt lat="39.7214050" lon="-6.5841450">
        <ele>354.6</ele>
        <time>2019-07-10T06:17:39Z</time>
      </trkpt>
      <trkpt lat="39.7215020" lon="-6.5842670">
        <ele>354.0</ele>
        <time>2019-07-10T06:17:41Z</time>
      </trkpt>
      <trkpt lat="39.7215520" lon="-6.5843220">
        <ele>353.6</ele>
        <time>2019-07-10T06:17:42Z</time>
      </trkpt>
      <trkpt lat="39.7216070" lon="-6.5843760">
        <ele>353.2</ele>
        <time>2019-07-10T06:17:43Z</time>
      </trkpt>
      <trkpt lat="39.7216620" lon="-6.5844320">
        <ele>353.0</ele>
        <time>2019-07-10T06:17:44Z</time>
      </trkpt>
      <trkpt lat="39.7217640" lon="-6.5845500">
        <ele>352.0</ele>
        <time>2019-07-10T06:17:46Z</time>
      </trkpt>
      <trkpt lat="39.7218110" lon="-6.5846190">
        <ele>351.6</ele>
        <time>2019-07-10T06:17:47Z</time>
      </trkpt>
      <trkpt lat="39.7218560" lon="-6.5846970">
        <ele>350.8</ele>
        <time>2019-07-10T06:17:48Z</time>
      </trkpt>
      <trkpt lat="39.7218970" lon="-6.5847820">
        <ele>350.4</ele>
        <time>2019-07-10T06:17:49Z</time>
      </trkpt>
      <trkpt lat="39.7220210" lon="-6.5850490">
        <ele>349.0</ele>
        <time>2019-07-10T06:17:52Z</time>
      </trkpt>
      <trkpt lat="39.7221100" lon="-6.5852350">
        <ele>348.4</ele>
        <time>2019-07-10T06:17:54Z</time>
      </trkpt>
      <trkpt lat="39.7222020" lon="-6.5854200">
        <ele>347.4</ele>
        <time>2019-07-10T06:17:56Z</time>
      </trkpt>
      <trkpt lat="39.7222820" lon="-6.5856140">
        <ele>346.8</ele>
        <time>2019-07-10T06:17:58Z</time>
      </trkpt>
      <trkpt lat="39.7223130" lon="-6.5857150">
        <ele>346.6</ele>
        <time>2019-07-10T06:17:59Z</time>
      </trkpt>
      <trkpt lat="39.7223400" lon="-6.5858170">
        <ele>346.2</ele>
        <time>2019-07-10T06:18:00Z</time>
      </trkpt>
      <trkpt lat="39.7224140" lon="-6.5861190">
        <ele>345.6</ele>
        <time>2019-07-10T06:18:03Z</time>
      </trkpt>
      <trkpt lat="39.7224420" lon="-6.5862170">
        <ele>345.0</ele>
        <time>2019-07-10T06:18:04Z</time>
      </trkpt>
      <trkpt lat="39.7224990" lon="-6.5864100">
        <ele>344.4</ele>
        <time>2019-07-10T06:18:06Z</time>
      </trkpt>
      <trkpt lat="39.7225630" lon="-6.5865980">
        <ele>344.0</ele>
        <time>2019-07-10T06:18:08Z</time>
      </trkpt>
      <trkpt lat="39.7226490" lon="-6.5868770">
        <ele>343.6</ele>
        <time>2019-07-10T06:18:11Z</time>
      </trkpt>
      <trkpt lat="39.7226780" lon="-6.5870660">
        <ele>343.4</ele>
        <time>2019-07-10T06:18:13Z</time>
      </trkpt>
      <trkpt lat="39.7226880" lon="-6.5872600">
        <ele>343.0</ele>
        <time>2019-07-10T06:18:15Z</time>
      </trkpt>
      <trkpt lat="39.7226780" lon="-6.5874510">
        <ele>342.8</ele>
        <time>2019-07-10T06:18:17Z</time>
      </trkpt>
      <trkpt lat="39.7226730" lon="-6.5875430">
        <ele>342.8</ele>
        <time>2019-07-10T06:18:18Z</time>
      </trkpt>
      <trkpt lat="39.7226750" lon="-6.5876340">
        <ele>342.6</ele>
        <time>2019-07-10T06:18:19Z</time>
      </trkpt>
      <trkpt lat="39.7227270" lon="-6.5878780">
        <ele>342.4</ele>
        <time>2019-07-10T06:18:22Z</time>
      </trkpt>
      <trkpt lat="39.7228090" lon="-6.5882320">
        <ele>342.2</ele>
        <time>2019-07-10T06:18:27Z</time>
      </trkpt>
      <trkpt lat="39.7228500" lon="-6.5884400">
        <ele>342.6</ele>
        <time>2019-07-10T06:18:30Z</time>
      </trkpt>
      <trkpt lat="39.7228890" lon="-6.5886380">
        <ele>343.2</ele>
        <time>2019-07-10T06:18:33Z</time>
      </trkpt>
      <trkpt lat="39.7228990" lon="-6.5887020">
        <ele>343.4</ele>
        <time>2019-07-10T06:18:34Z</time>
      </trkpt>
      <trkpt lat="39.7229220" lon="-6.5888250">
        <ele>344.2</ele>
        <time>2019-07-10T06:18:36Z</time>
      </trkpt>
      <trkpt lat="39.7229520" lon="-6.5889430">
        <ele>344.8</ele>
        <time>2019-07-10T06:18:38Z</time>
      </trkpt>
      <trkpt lat="39.7229880" lon="-6.5890560">
        <ele>345.2</ele>
        <time>2019-07-10T06:18:40Z</time>
      </trkpt>
      <trkpt lat="39.7230050" lon="-6.5891140">
        <ele>345.4</ele>
        <time>2019-07-10T06:18:41Z</time>
      </trkpt>
      <trkpt lat="39.7230720" lon="-6.5893580">
        <ele>345.6</ele>
        <time>2019-07-10T06:18:45Z</time>
      </trkpt>
      <trkpt lat="39.7231210" lon="-6.5895510">
        <ele>346.0</ele>
        <time>2019-07-10T06:18:48Z</time>
      </trkpt>
      <trkpt lat="39.7231550" lon="-6.5896750">
        <ele>346.0</ele>
        <time>2019-07-10T06:18:50Z</time>
      </trkpt>
      <trkpt lat="39.7231730" lon="-6.5897980">
        <ele>346.6</ele>
        <time>2019-07-10T06:18:52Z</time>
      </trkpt>
      <trkpt lat="39.7231820" lon="-6.5898630">
        <ele>346.8</ele>
        <time>2019-07-10T06:18:53Z</time>
      </trkpt>
      <trkpt lat="39.7232110" lon="-6.5900590">
        <ele>347.2</ele>
        <time>2019-07-10T06:18:56Z</time>
      </trkpt>
      <trkpt lat="39.7232350" lon="-6.5902510">
        <ele>347.6</ele>
        <time>2019-07-10T06:18:59Z</time>
      </trkpt>
      <trkpt lat="39.7232570" lon="-6.5904390">
        <ele>348.6</ele>
        <time>2019-07-10T06:19:02Z</time>
      </trkpt>
      <trkpt lat="39.7232630" lon="-6.5905010">
        <ele>348.8</ele>
        <time>2019-07-10T06:19:03Z</time>
      </trkpt>
      <trkpt lat="39.7232780" lon="-6.5907530">
        <ele>349.4</ele>
        <time>2019-07-10T06:19:07Z</time>
      </trkpt>
      <trkpt lat="39.7232830" lon="-6.5908760">
        <ele>350.0</ele>
        <time>2019-07-10T06:19:09Z</time>
      </trkpt>
      <trkpt lat="39.7232880" lon="-6.5909370">
        <ele>350.4</ele>
        <time>2019-07-10T06:19:10Z</time>
      </trkpt>
      <trkpt lat="39.7232980" lon="-6.5910480">
        <ele>351.0</ele>
        <time>2019-07-10T06:19:12Z</time>
      </trkpt>
      <trkpt lat="39.7233050" lon="-6.5911020">
        <ele>351.0</ele>
        <time>2019-07-10T06:19:13Z</time>
      </trkpt>
      <trkpt lat="39.7233430" lon="-6.5913020">
        <ele>352.0</ele>
        <time>2019-07-10T06:19:17Z</time>
      </trkpt>
      <trkpt lat="39.7233820" lon="-6.5914420">
        <ele>353.2</ele>
        <time>2019-07-10T06:19:20Z</time>
      </trkpt>
      <trkpt lat="39.7234290" lon="-6.5915780">
        <ele>354.2</ele>
        <time>2019-07-10T06:19:23Z</time>
      </trkpt>
      <trkpt lat="39.7234420" lon="-6.5916230">
        <ele>354.8</ele>
        <time>2019-07-10T06:19:24Z</time>
      </trkpt>
      <trkpt lat="39.7234550" lon="-6.5916650">
        <ele>355.2</ele>
        <time>2019-07-10T06:19:25Z</time>
      </trkpt>
      <trkpt lat="39.7234860" lon="-6.5917960">
        <ele>356.0</ele>
        <time>2019-07-10T06:19:28Z</time>
      </trkpt>
      <trkpt lat="39.7235090" lon="-6.5919200">
        <ele>356.2</ele>
        <time>2019-07-10T06:19:30Z</time>
      </trkpt>
      <trkpt lat="39.7235930" lon="-6.5922290">
        <ele>355.0</ele>
        <time>2019-07-10T06:19:34Z</time>
      </trkpt>
      <trkpt lat="39.7236130" lon="-6.5923070">
        <ele>354.6</ele>
        <time>2019-07-10T06:19:35Z</time>
      </trkpt>
      <trkpt lat="39.7236710" lon="-6.5925780">
        <ele>354.0</ele>
        <time>2019-07-10T06:19:38Z</time>
      </trkpt>
      <trkpt lat="39.7236970" lon="-6.5926710">
        <ele>353.8</ele>
        <time>2019-07-10T06:19:39Z</time>
      </trkpt>
      <trkpt lat="39.7237420" lon="-6.5928510">
        <ele>353.2</ele>
        <time>2019-07-10T06:19:41Z</time>
      </trkpt>
      <trkpt lat="39.7237750" lon="-6.5930280">
        <ele>352.6</ele>
        <time>2019-07-10T06:19:43Z</time>
      </trkpt>
      <trkpt lat="39.7238110" lon="-6.5932040">
        <ele>351.8</ele>
        <time>2019-07-10T06:19:45Z</time>
      </trkpt>
      <trkpt lat="39.7238280" lon="-6.5932990">
        <ele>351.2</ele>
        <time>2019-07-10T06:19:46Z</time>
      </trkpt>
      <trkpt lat="39.7238450" lon="-6.5933960">
        <ele>350.6</ele>
        <time>2019-07-10T06:19:47Z</time>
      </trkpt>
      <trkpt lat="39.7238600" lon="-6.5934940">
        <ele>349.8</ele>
        <time>2019-07-10T06:19:48Z</time>
      </trkpt>
      <trkpt lat="39.7238740" lon="-6.5935890">
        <ele>349.4</ele>
        <time>2019-07-10T06:19:49Z</time>
      </trkpt>
      <trkpt lat="39.7239170" lon="-6.5937770">
        <ele>348.4</ele>
        <time>2019-07-10T06:19:51Z</time>
      </trkpt>
      <trkpt lat="39.7239480" lon="-6.5938710">
        <ele>347.4</ele>
        <time>2019-07-10T06:19:52Z</time>
      </trkpt>
      <trkpt lat="39.7239870" lon="-6.5939670">
        <ele>347.0</ele>
        <time>2019-07-10T06:19:53Z</time>
      </trkpt>
      <trkpt lat="39.7240710" lon="-6.5941460">
        <ele>345.8</ele>
        <time>2019-07-10T06:19:55Z</time>
      </trkpt>
      <trkpt lat="39.7241140" lon="-6.5942230">
        <ele>345.4</ele>
        <time>2019-07-10T06:19:56Z</time>
      </trkpt>
      <trkpt lat="39.7242090" lon="-6.5943580">
        <ele>345.0</ele>
        <time>2019-07-10T06:19:58Z</time>
      </trkpt>
      <trkpt lat="39.7242600" lon="-6.5944210">
        <ele>344.8</ele>
        <time>2019-07-10T06:19:59Z</time>
      </trkpt>
      <trkpt lat="39.7243080" lon="-6.5944810">
        <ele>344.6</ele>
        <time>2019-07-10T06:20:00Z</time>
      </trkpt>
      <trkpt lat="39.7244030" lon="-6.5945930">
        <ele>344.2</ele>
        <time>2019-07-10T06:20:02Z</time>
      </trkpt>
      <trkpt lat="39.7245170" lon="-6.5947110">
        <ele>343.6</ele>
        <time>2019-07-10T06:20:04Z</time>
      </trkpt>
      <trkpt lat="39.7245810" lon="-6.5947740">
        <ele>343.4</ele>
        <time>2019-07-10T06:20:05Z</time>
      </trkpt>
      <trkpt lat="39.7247740" lon="-6.5949250">
        <ele>342.4</ele>
        <time>2019-07-10T06:20:08Z</time>
      </trkpt>
      <trkpt lat="39.7248270" lon="-6.5949660">
        <ele>342.2</ele>
        <time>2019-07-10T06:20:09Z</time>
      </trkpt>
      <trkpt lat="39.7248730" lon="-6.5950120">
        <ele>342.0</ele>
        <time>2019-07-10T06:20:10Z</time>
      </trkpt>
      <trkpt lat="39.7249690" lon="-6.5951340">
        <ele>341.8</ele>
        <time>2019-07-10T06:20:12Z</time>
      </trkpt>
      <trkpt lat="39.7250230" lon="-6.5952040">
        <ele>341.4</ele>
        <time>2019-07-10T06:20:13Z</time>
      </trkpt>
      <trkpt lat="39.7250760" lon="-6.5952770">
        <ele>340.6</ele>
        <time>2019-07-10T06:20:14Z</time>
      </trkpt>
      <trkpt lat="39.7251750" lon="-6.5954320">
        <ele>339.0</ele>
        <time>2019-07-10T06:20:16Z</time>
      </trkpt>
      <trkpt lat="39.7252610" lon="-6.5955840">
        <ele>338.0</ele>
        <time>2019-07-10T06:20:18Z</time>
      </trkpt>
      <trkpt lat="39.7253340" lon="-6.5957300">
        <ele>337.0</ele>
        <time>2019-07-10T06:20:20Z</time>
      </trkpt>
      <trkpt lat="39.7253640" lon="-6.5958060">
        <ele>336.6</ele>
        <time>2019-07-10T06:20:21Z</time>
      </trkpt>
      <trkpt lat="39.7253930" lon="-6.5958830">
        <ele>335.8</ele>
        <time>2019-07-10T06:20:22Z</time>
      </trkpt>
      <trkpt lat="39.7254230" lon="-6.5959580">
        <ele>335.0</ele>
        <time>2019-07-10T06:20:23Z</time>
      </trkpt>
      <trkpt lat="39.7255080" lon="-6.5961650">
        <ele>333.6</ele>
        <time>2019-07-10T06:20:26Z</time>
      </trkpt>
      <trkpt lat="39.7255380" lon="-6.5962180">
        <ele>333.2</ele>
        <time>2019-07-10T06:20:27Z</time>
      </trkpt>
      <trkpt lat="39.7255720" lon="-6.5962680">
        <ele>333.0</ele>
        <time>2019-07-10T06:20:28Z</time>
      </trkpt>
      <trkpt lat="39.7256480" lon="-6.5963690">
        <ele>332.0</ele>
        <time>2019-07-10T06:20:30Z</time>
      </trkpt>
      <trkpt lat="39.7257230" lon="-6.5964900">
        <ele>330.6</ele>
        <time>2019-07-10T06:20:32Z</time>
      </trkpt>
      <trkpt lat="39.7257610" lon="-6.5965640">
        <ele>329.8</ele>
        <time>2019-07-10T06:20:33Z</time>
      </trkpt>
      <trkpt lat="39.7258060" lon="-6.5966450">
        <ele>328.6</ele>
        <time>2019-07-10T06:20:34Z</time>
      </trkpt>
      <trkpt lat="39.7258540" lon="-6.5967280">
        <ele>327.2</ele>
        <time>2019-07-10T06:20:35Z</time>
      </trkpt>
      <trkpt lat="39.7259010" lon="-6.5968130">
        <ele>325.8</ele>
        <time>2019-07-10T06:20:36Z</time>
      </trkpt>
      <trkpt lat="39.7259450" lon="-6.5969060">
        <ele>325.0</ele>
        <time>2019-07-10T06:20:37Z</time>
      </trkpt>
      <trkpt lat="39.7259830" lon="-6.5970070">
        <ele>324.0</ele>
        <time>2019-07-10T06:20:38Z</time>
      </trkpt>
      <trkpt lat="39.7260420" lon="-6.5972300">
        <ele>322.4</ele>
        <time>2019-07-10T06:20:40Z</time>
      </trkpt>
      <trkpt lat="39.7260970" lon="-6.5974640">
        <ele>321.2</ele>
        <time>2019-07-10T06:20:42Z</time>
      </trkpt>
      <trkpt lat="39.7261270" lon="-6.5975780">
        <ele>320.6</ele>
        <time>2019-07-10T06:20:43Z</time>
      </trkpt>
      <trkpt lat="39.7261520" lon="-6.5976940">
        <ele>320.0</ele>
        <time>2019-07-10T06:20:44Z</time>
      </trkpt>
      <trkpt lat="39.7261700" lon="-6.5978020">
        <ele>319.4</ele>
        <time>2019-07-10T06:20:45Z</time>
      </trkpt>
      <trkpt lat="39.7261820" lon="-6.5978810">
        <ele>318.6</ele>
        <time>2019-07-10T06:20:46Z</time>
      </trkpt>
      <trkpt lat="39.7261950" lon="-6.5979800">
        <ele>317.4</ele>
        <time>2019-07-10T06:20:49Z</time>
      </trkpt>
      <trkpt lat="39.7261930" lon="-6.5979830">
        <ele>317.4</ele>
        <time>2019-07-10T06:20:51Z</time>
      </trkpt>
      <trkpt lat="39.7262090" lon="-6.5980380">
        <ele>317.6</ele>
        <time>2019-07-10T06:23:05Z</time>
      </trkpt>
      <trkpt lat="39.7262100" lon="-6.5980630">
        <ele>317.6</ele>
        <time>2019-07-10T06:23:06Z</time>
      </trkpt>
      <trkpt lat="39.7262320" lon="-6.5982500">
        <ele>316.6</ele>
        <time>2019-07-10T06:23:10Z</time>
      </trkpt>
      <trkpt lat="39.7262450" lon="-6.5983050">
        <ele>316.4</ele>
        <time>2019-07-10T06:23:11Z</time>
      </trkpt>
      <trkpt lat="39.7262590" lon="-6.5983550">
        <ele>316.4</ele>
        <time>2019-07-10T06:23:12Z</time>
      </trkpt>
      <trkpt lat="39.7262880" lon="-6.5984400">
        <ele>317.0</ele>
        <time>2019-07-10T06:23:14Z</time>
      </trkpt>
      <trkpt lat="39.7263040" lon="-6.5984750">
        <ele>317.4</ele>
        <time>2019-07-10T06:23:15Z</time>
      </trkpt>
      <trkpt lat="39.7263330" lon="-6.5985300">
        <ele>318.2</ele>
        <time>2019-07-10T06:23:17Z</time>
      </trkpt>
      <trkpt lat="39.7263490" lon="-6.5985540">
        <ele>318.4</ele>
        <time>2019-07-10T06:23:18Z</time>
      </trkpt>
      <trkpt lat="39.7263660" lon="-6.5985800">
        <ele>318.6</ele>
        <time>2019-07-10T06:23:19Z</time>
      </trkpt>
      <trkpt lat="39.7264050" lon="-6.5986280">
        <ele>319.2</ele>
        <time>2019-07-10T06:23:21Z</time>
      </trkpt>
      <trkpt lat="39.7264390" lon="-6.5986790">
        <ele>319.8</ele>
        <time>2019-07-10T06:23:23Z</time>
      </trkpt>
      <trkpt lat="39.7264610" lon="-6.5987310">
        <ele>321.0</ele>
        <time>2019-07-10T06:23:25Z</time>
      </trkpt>
      <trkpt lat="39.7264720" lon="-6.5987840">
        <ele>321.6</ele>
        <time>2019-07-10T06:23:27Z</time>
      </trkpt>
      <trkpt lat="39.7264700" lon="-6.5988670">
        <ele>322.0</ele>
        <time>2019-07-10T06:23:29Z</time>
      </trkpt>
      <trkpt lat="39.7264630" lon="-6.5989840">
        <ele>322.0</ele>
        <time>2019-07-10T06:23:31Z</time>
      </trkpt>
      <trkpt lat="39.7264670" lon="-6.5991830">
        <ele>321.8</ele>
        <time>2019-07-10T06:23:34Z</time>
      </trkpt>
      <trkpt lat="39.7264750" lon="-6.5993980">
        <ele>321.0</ele>
        <time>2019-07-10T06:23:37Z</time>
      </trkpt>
      <trkpt lat="39.7265070" lon="-6.5997020">
        <ele>321.0</ele>
        <time>2019-07-10T06:23:42Z</time>
      </trkpt>
      <trkpt lat="39.7265420" lon="-6.5998400">
        <ele>322.2</ele>
        <time>2019-07-10T06:23:46Z</time>
      </trkpt>
      <trkpt lat="39.7265490" lon="-6.5998710">
        <ele>322.8</ele>
        <time>2019-07-10T06:23:47Z</time>
      </trkpt>
      <trkpt lat="39.7265580" lon="-6.5999390">
        <ele>323.6</ele>
        <time>2019-07-10T06:23:49Z</time>
      </trkpt>
      <trkpt lat="39.7265650" lon="-6.6001290">
        <ele>323.8</ele>
        <time>2019-07-10T06:23:53Z</time>
      </trkpt>
      <trkpt lat="39.7265830" lon="-6.6003800">
        <ele>323.0</ele>
        <time>2019-07-10T06:23:56Z</time>
      </trkpt>
      <trkpt lat="39.7265980" lon="-6.6004790">
        <ele>322.0</ele>
        <time>2019-07-10T06:23:57Z</time>
      </trkpt>
      <trkpt lat="39.7266340" lon="-6.6006510">
        <ele>321.0</ele>
        <time>2019-07-10T06:23:59Z</time>
      </trkpt>
      <trkpt lat="39.7266550" lon="-6.6007150">
        <ele>320.6</ele>
        <time>2019-07-10T06:24:00Z</time>
      </trkpt>
      <trkpt lat="39.7266730" lon="-6.6008890">
        <ele>319.8</ele>
        <time>2019-07-10T06:24:03Z</time>
      </trkpt>
      <trkpt lat="39.7266670" lon="-6.6009710">
        <ele>319.4</ele>
        <time>2019-07-10T06:24:04Z</time>
      </trkpt>
      <trkpt lat="39.7266580" lon="-6.6010620">
        <ele>318.6</ele>
        <time>2019-07-10T06:24:05Z</time>
      </trkpt>
      <trkpt lat="39.7266470" lon="-6.6011460">
        <ele>318.0</ele>
        <time>2019-07-10T06:24:06Z</time>
      </trkpt>
      <trkpt lat="39.7266200" lon="-6.6013150">
        <ele>317.2</ele>
        <time>2019-07-10T06:24:08Z</time>
      </trkpt>
      <trkpt lat="39.7265790" lon="-6.6015080">
        <ele>316.6</ele>
        <time>2019-07-10T06:24:10Z</time>
      </trkpt>
      <trkpt lat="39.7265500" lon="-6.6016080">
        <ele>316.0</ele>
        <time>2019-07-10T06:24:11Z</time>
      </trkpt>
      <trkpt lat="39.7264720" lon="-6.6018030">
        <ele>314.4</ele>
        <time>2019-07-10T06:24:13Z</time>
      </trkpt>
      <trkpt lat="39.7263940" lon="-6.6019850">
        <ele>314.0</ele>
        <time>2019-07-10T06:24:15Z</time>
      </trkpt>
      <trkpt lat="39.7263250" lon="-6.6021190">
        <ele>314.0</ele>
        <time>2019-07-10T06:24:17Z</time>
      </trkpt>
      <trkpt lat="39.7262920" lon="-6.6021650">
        <ele>314.2</ele>
        <time>2019-07-10T06:24:18Z</time>
      </trkpt>
      <trkpt lat="39.7262380" lon="-6.6022510">
        <ele>314.2</ele>
        <time>2019-07-10T06:24:20Z</time>
      </trkpt>
      <trkpt lat="39.7262170" lon="-6.6023620">
        <ele>313.4</ele>
        <time>2019-07-10T06:24:22Z</time>
      </trkpt>
      <trkpt lat="39.7262640" lon="-6.6025560">
        <ele>312.0</ele>
        <time>2019-07-10T06:24:25Z</time>
      </trkpt>
      <trkpt lat="39.7263220" lon="-6.6026620">
        <ele>310.6</ele>
        <time>2019-07-10T06:24:27Z</time>
      </trkpt>
      <trkpt lat="39.7263850" lon="-6.6027550">
        <ele>309.4</ele>
        <time>2019-07-10T06:24:29Z</time>
      </trkpt>
      <trkpt lat="39.7264270" lon="-6.6028070">
        <ele>308.8</ele>
        <time>2019-07-10T06:24:30Z</time>
      </trkpt>
      <trkpt lat="39.7264740" lon="-6.6028600">
        <ele>308.2</ele>
        <time>2019-07-10T06:24:31Z</time>
      </trkpt>
      <trkpt lat="39.7265280" lon="-6.6029120">
        <ele>307.6</ele>
        <time>2019-07-10T06:24:32Z</time>
      </trkpt>
      <trkpt lat="39.7265850" lon="-6.6029510">
        <ele>306.6</ele>
        <time>2019-07-10T06:24:33Z</time>
      </trkpt>
      <trkpt lat="39.7266390" lon="-6.6029730">
        <ele>306.0</ele>
        <time>2019-07-10T06:24:34Z</time>
      </trkpt>
      <trkpt lat="39.7266950" lon="-6.6029740">
        <ele>305.4</ele>
        <time>2019-07-10T06:24:35Z</time>
      </trkpt>
      <trkpt lat="39.7268020" lon="-6.6029540">
        <ele>304.8</ele>
        <time>2019-07-10T06:24:37Z</time>
      </trkpt>
      <trkpt lat="39.7268530" lon="-6.6029510">
        <ele>304.6</ele>
        <time>2019-07-10T06:24:38Z</time>
      </trkpt>
      <trkpt lat="39.7269850" lon="-6.6030320">
        <ele>304.4</ele>
        <time>2019-07-10T06:24:41Z</time>
      </trkpt>
      <trkpt lat="39.7270570" lon="-6.6031720">
        <ele>304.4</ele>
        <time>2019-07-10T06:24:44Z</time>
      </trkpt>
      <trkpt lat="39.7270530" lon="-6.6032670">
        <ele>304.4</ele>
        <time>2019-07-10T06:24:46Z</time>
      </trkpt>
      <trkpt lat="39.7270480" lon="-6.6033200">
        <ele>304.2</ele>
        <time>2019-07-10T06:24:47Z</time>
      </trkpt>
      <trkpt lat="39.7270450" lon="-6.6033850">
        <ele>304.0</ele>
        <time>2019-07-10T06:24:48Z</time>
      </trkpt>
      <trkpt lat="39.7270450" lon="-6.6035540">
        <ele>302.8</ele>
        <time>2019-07-10T06:24:50Z</time>
      </trkpt>
      <trkpt lat="39.7270500" lon="-6.6037180">
        <ele>302.0</ele>
        <time>2019-07-10T06:24:52Z</time>
      </trkpt>
      <trkpt lat="39.7270500" lon="-6.6037900">
        <ele>301.4</ele>
        <time>2019-07-10T06:24:53Z</time>
      </trkpt>
      <trkpt lat="39.7270400" lon="-6.6039320">
        <ele>300.6</ele>
        <time>2019-07-10T06:24:55Z</time>
      </trkpt>
      <trkpt lat="39.7270310" lon="-6.6040060">
        <ele>300.2</ele>
        <time>2019-07-10T06:24:56Z</time>
      </trkpt>
      <trkpt lat="39.7270230" lon="-6.6040780">
        <ele>299.6</ele>
        <time>2019-07-10T06:24:57Z</time>
      </trkpt>
      <trkpt lat="39.7270180" lon="-6.6041490">
        <ele>298.8</ele>
        <time>2019-07-10T06:24:58Z</time>
      </trkpt>
      <trkpt lat="39.7270150" lon="-6.6042150">
        <ele>297.8</ele>
        <time>2019-07-10T06:24:59Z</time>
      </trkpt>
      <trkpt lat="39.7270130" lon="-6.6042790">
        <ele>296.8</ele>
        <time>2019-07-10T06:25:00Z</time>
      </trkpt>
      <trkpt lat="39.7270080" lon="-6.6043450">
        <ele>295.4</ele>
        <time>2019-07-10T06:25:01Z</time>
      </trkpt>
      <trkpt lat="39.7269880" lon="-6.6044840">
        <ele>294.2</ele>
        <time>2019-07-10T06:25:03Z</time>
      </trkpt>
      <trkpt lat="39.7269640" lon="-6.6046080">
        <ele>292.6</ele>
        <time>2019-07-10T06:25:05Z</time>
      </trkpt>
      <trkpt lat="39.7269390" lon="-6.6047470">
        <ele>291.2</ele>
        <time>2019-07-10T06:25:07Z</time>
      </trkpt>
      <trkpt lat="39.7269170" lon="-6.6049080">
        <ele>289.8</ele>
        <time>2019-07-10T06:25:09Z</time>
      </trkpt>
      <trkpt lat="39.7269010" lon="-6.6050690">
        <ele>288.2</ele>
        <time>2019-07-10T06:25:11Z</time>
      </trkpt>
      <trkpt lat="39.7268940" lon="-6.6052190">
        <ele>286.6</ele>
        <time>2019-07-10T06:25:13Z</time>
      </trkpt>
      <trkpt lat="39.7269140" lon="-6.6053600">
        <ele>285.6</ele>
        <time>2019-07-10T06:25:15Z</time>
      </trkpt>
      <trkpt lat="39.7269500" lon="-6.6055060">
        <ele>284.8</ele>
        <time>2019-07-10T06:25:17Z</time>
      </trkpt>
      <trkpt lat="39.7269700" lon="-6.6055830">
        <ele>284.2</ele>
        <time>2019-07-10T06:25:18Z</time>
      </trkpt>
      <trkpt lat="39.7270460" lon="-6.6059150">
        <ele>283.2</ele>
        <time>2019-07-10T06:25:22Z</time>
      </trkpt>
      <trkpt lat="39.7270860" lon="-6.6060810">
        <ele>282.2</ele>
        <time>2019-07-10T06:25:24Z</time>
      </trkpt>
      <trkpt lat="39.7271040" lon="-6.6061560">
        <ele>281.4</ele>
        <time>2019-07-10T06:25:25Z</time>
      </trkpt>
      <trkpt lat="39.7271480" lon="-6.6064170">
        <ele>280.4</ele>
        <time>2019-07-10T06:25:29Z</time>
      </trkpt>
      <trkpt lat="39.7271870" lon="-6.6066210">
        <ele>279.4</ele>
        <time>2019-07-10T06:25:33Z</time>
      </trkpt>
      <trkpt lat="39.7272010" lon="-6.6066470">
        <ele>279.2</ele>
        <time>2019-07-10T06:25:34Z</time>
      </trkpt>
      <trkpt lat="39.7272250" lon="-6.6067010">
        <ele>278.8</ele>
        <time>2019-07-10T06:25:36Z</time>
      </trkpt>
      <trkpt lat="39.7272330" lon="-6.6067300">
        <ele>278.6</ele>
        <time>2019-07-10T06:25:38Z</time>
      </trkpt>
      <trkpt lat="39.7272330" lon="-6.6067290">
        <ele>278.4</ele>
        <time>2019-07-10T06:25:39Z</time>
      </trkpt>
      <trkpt lat="39.7272560" lon="-6.6068540">
        <ele>278.4</ele>
        <time>2019-07-10T06:25:58Z</time>
      </trkpt>
      <trkpt lat="39.7272570" lon="-6.6068660">
        <ele>278.4</ele>
        <time>2019-07-10T06:25:59Z</time>
      </trkpt>
      <trkpt lat="39.7272590" lon="-6.6068790">
        <ele>278.6</ele>
        <time>2019-07-10T06:26:00Z</time>
      </trkpt>
      <trkpt lat="39.7272600" lon="-6.6069260">
        <ele>278.8</ele>
        <time>2019-07-10T06:26:03Z</time>
      </trkpt>
      <trkpt lat="39.7272390" lon="-6.6070090">
        <ele>279.2</ele>
        <time>2019-07-10T06:26:09Z</time>
      </trkpt>
      <trkpt lat="39.7272390" lon="-6.6070170">
        <ele>279.4</ele>
        <time>2019-07-10T06:26:11Z</time>
      </trkpt>
      <trkpt lat="39.7273100" lon="-6.6071290">
        <ele>280.2</ele>
        <time>2019-07-10T06:27:26Z</time>
      </trkpt>
      <trkpt lat="39.7273260" lon="-6.6071460">
        <ele>280.2</ele>
        <time>2019-07-10T06:27:27Z</time>
      </trkpt>
      <trkpt lat="39.7273920" lon="-6.6072070">
        <ele>280.6</ele>
        <time>2019-07-10T06:27:30Z</time>
      </trkpt>
      <trkpt lat="39.7274730" lon="-6.6072600">
        <ele>281.2</ele>
        <time>2019-07-10T06:27:33Z</time>
      </trkpt>
      <trkpt lat="39.7275200" lon="-6.6072990">
        <ele>281.8</ele>
        <time>2019-07-10T06:27:35Z</time>
      </trkpt>
      <trkpt lat="39.7275440" lon="-6.6073170">
        <ele>282.2</ele>
        <time>2019-07-10T06:27:36Z</time>
      </trkpt>
      <trkpt lat="39.7275900" lon="-6.6073570">
        <ele>283.2</ele>
        <time>2019-07-10T06:27:38Z</time>
      </trkpt>
      <trkpt lat="39.7276090" lon="-6.6073840">
        <ele>283.6</ele>
        <time>2019-07-10T06:27:39Z</time>
      </trkpt>
      <trkpt lat="39.7276580" lon="-6.6074550">
        <ele>284.4</ele>
        <time>2019-07-10T06:27:42Z</time>
      </trkpt>
      <trkpt lat="39.7276790" lon="-6.6074780">
        <ele>284.6</ele>
        <time>2019-07-10T06:27:43Z</time>
      </trkpt>
      <trkpt lat="39.7276990" lon="-6.6074980">
        <ele>284.8</ele>
        <time>2019-07-10T06:27:44Z</time>
      </trkpt>
      <trkpt lat="39.7277510" lon="-6.6075450">
        <ele>285.6</ele>
        <time>2019-07-10T06:27:47Z</time>
      </trkpt>
      <trkpt lat="39.7277810" lon="-6.6075670">
        <ele>285.8</ele>
        <time>2019-07-10T06:27:48Z</time>
      </trkpt>
      <trkpt lat="39.7278160" lon="-6.6075900">
        <ele>285.8</ele>
        <time>2019-07-10T06:27:49Z</time>
      </trkpt>
      <trkpt lat="39.7279330" lon="-6.6076630">
        <ele>285.8</ele>
        <time>2019-07-10T06:27:52Z</time>
      </trkpt>
      <trkpt lat="39.7280510" lon="-6.6077560">
        <ele>285.6</ele>
        <time>2019-07-10T06:27:55Z</time>
      </trkpt>
      <trkpt lat="39.7282220" lon="-6.6078720">
        <ele>286.8</ele>
        <time>2019-07-10T06:28:01Z</time>
      </trkpt>
      <trkpt lat="39.7282450" lon="-6.6078850">
        <ele>287.0</ele>
        <time>2019-07-10T06:28:02Z</time>
      </trkpt>
      <trkpt lat="39.7283030" lon="-6.6079070">
        <ele>288.4</ele>
        <time>2019-07-10T06:28:05Z</time>
      </trkpt>
      <trkpt lat="39.7283200" lon="-6.6079180">
        <ele>289.2</ele>
        <time>2019-07-10T06:28:06Z</time>
      </trkpt>
      <trkpt lat="39.7283390" lon="-6.6079310">
        <ele>289.6</ele>
        <time>2019-07-10T06:28:07Z</time>
      </trkpt>
      <trkpt lat="39.7284470" lon="-6.6079990">
        <ele>290.4</ele>
        <time>2019-07-10T06:28:12Z</time>
      </trkpt>
      <trkpt lat="39.7284940" lon="-6.6080190">
        <ele>290.6</ele>
        <time>2019-07-10T06:28:14Z</time>
      </trkpt>
      <trkpt lat="39.7285790" lon="-6.6080450">
        <ele>291.8</ele>
        <time>2019-07-10T06:28:18Z</time>
      </trkpt>
      <trkpt lat="39.7286360" lon="-6.6080630">
        <ele>292.6</ele>
        <time>2019-07-10T06:28:21Z</time>
      </trkpt>
      <trkpt lat="39.7286540" lon="-6.6080680">
        <ele>293.0</ele>
        <time>2019-07-10T06:28:22Z</time>
      </trkpt>
      <trkpt lat="39.7287520" lon="-6.6081070">
        <ele>294.2</ele>
        <time>2019-07-10T06:28:27Z</time>
      </trkpt>
      <trkpt lat="39.7287740" lon="-6.6081170">
        <ele>294.4</ele>
        <time>2019-07-10T06:28:28Z</time>
      </trkpt>
      <trkpt lat="39.7289200" lon="-6.6082180">
        <ele>294.6</ele>
        <time>2019-07-10T06:28:33Z</time>
      </trkpt>
      <trkpt lat="39.7291050" lon="-6.6083800">
        <ele>294.2</ele>
        <time>2019-07-10T06:28:38Z</time>
      </trkpt>
      <trkpt lat="39.7291330" lon="-6.6084030">
        <ele>294.2</ele>
        <time>2019-07-10T06:28:39Z</time>
      </trkpt>
      <trkpt lat="39.7292580" lon="-6.6084540">
        <ele>295.0</ele>
        <time>2019-07-10T06:28:44Z</time>
      </trkpt>
      <trkpt lat="39.7293570" lon="-6.6085030">
        <ele>296.2</ele>
        <time>2019-07-10T06:28:48Z</time>
      </trkpt>
      <trkpt lat="39.7294320" lon="-6.6085460">
        <ele>297.0</ele>
        <time>2019-07-10T06:28:51Z</time>
      </trkpt>
      <trkpt lat="39.7294560" lon="-6.6085610">
        <ele>297.2</ele>
        <time>2019-07-10T06:28:52Z</time>
      </trkpt>
      <trkpt lat="39.7296000" lon="-6.6086880">
        <ele>297.8</ele>
        <time>2019-07-10T06:28:57Z</time>
      </trkpt>
      <trkpt lat="39.7297010" lon="-6.6087260">
        <ele>297.2</ele>
        <time>2019-07-10T06:28:59Z</time>
      </trkpt>
      <trkpt lat="39.7297520" lon="-6.6087440">
        <ele>296.4</ele>
        <time>2019-07-10T06:29:00Z</time>
      </trkpt>
      <trkpt lat="39.7297980" lon="-6.6087710">
        <ele>295.6</ele>
        <time>2019-07-10T06:29:01Z</time>
      </trkpt>
      <trkpt lat="39.7298760" lon="-6.6088380">
        <ele>295.0</ele>
        <time>2019-07-10T06:29:03Z</time>
      </trkpt>
      <trkpt lat="39.7299280" lon="-6.6089080">
        <ele>295.4</ele>
        <time>2019-07-10T06:29:05Z</time>
      </trkpt>
      <trkpt lat="39.7299460" lon="-6.6089370">
        <ele>295.6</ele>
        <time>2019-07-10T06:29:06Z</time>
      </trkpt>
      <trkpt lat="39.7300590" lon="-6.6091500">
        <ele>296.0</ele>
        <time>2019-07-10T06:29:13Z</time>
      </trkpt>
      <trkpt lat="39.7301570" lon="-6.6093160">
        <ele>296.0</ele>
        <time>2019-07-10T06:29:18Z</time>
      </trkpt>
      <trkpt lat="39.7301760" lon="-6.6093480">
        <ele>296.2</ele>
        <time>2019-07-10T06:29:19Z</time>
      </trkpt>
      <trkpt lat="39.7302970" lon="-6.6094880">
        <ele>296.8</ele>
        <time>2019-07-10T06:29:25Z</time>
      </trkpt>
      <trkpt lat="39.7303110" lon="-6.6095100">
        <ele>297.0</ele>
        <time>2019-07-10T06:29:26Z</time>
      </trkpt>
      <trkpt lat="39.7303440" lon="-6.6095730">
        <ele>297.8</ele>
        <time>2019-07-10T06:29:29Z</time>
      </trkpt>
      <trkpt lat="39.7303590" lon="-6.6095840">
        <ele>297.8</ele>
        <time>2019-07-10T06:29:30Z</time>
      </trkpt>
      <trkpt lat="39.7303780" lon="-6.6095930">
        <ele>298.0</ele>
        <time>2019-07-10T06:29:31Z</time>
      </trkpt>
      <trkpt lat="39.7304560" lon="-6.6096180">
        <ele>298.6</ele>
        <time>2019-07-10T06:29:35Z</time>
      </trkpt>
      <trkpt lat="39.7304720" lon="-6.6096310">
        <ele>299.0</ele>
        <time>2019-07-10T06:29:36Z</time>
      </trkpt>
      <trkpt lat="39.7304840" lon="-6.6096490">
        <ele>299.2</ele>
        <time>2019-07-10T06:29:37Z</time>
      </trkpt>
      <trkpt lat="39.7304910" lon="-6.6096710">
        <ele>299.4</ele>
        <time>2019-07-10T06:29:38Z</time>
      </trkpt>
      <trkpt lat="39.7304980" lon="-6.6097360">
        <ele>300.0</ele>
        <time>2019-07-10T06:29:41Z</time>
      </trkpt>
      <trkpt lat="39.7304760" lon="-6.6097970">
        <ele>300.6</ele>
        <time>2019-07-10T06:29:44Z</time>
      </trkpt>
      <trkpt lat="39.7304680" lon="-6.6098410">
        <ele>301.0</ele>
        <time>2019-07-10T06:29:46Z</time>
      </trkpt>
      <trkpt lat="39.7304780" lon="-6.6098930">
        <ele>301.6</ele>
        <time>2019-07-10T06:29:49Z</time>
      </trkpt>
      <trkpt lat="39.7305530" lon="-6.6098790">
        <ele>302.0</ele>
        <time>2019-07-10T06:29:53Z</time>
      </trkpt>
      <trkpt lat="39.7305960" lon="-6.6098430">
        <ele>302.2</ele>
        <time>2019-07-10T06:29:55Z</time>
      </trkpt>
      <trkpt lat="39.7306410" lon="-6.6097880">
        <ele>303.0</ele>
        <time>2019-07-10T06:29:58Z</time>
      </trkpt>
      <trkpt lat="39.7306540" lon="-6.6097710">
        <ele>303.2</ele>
        <time>2019-07-10T06:29:59Z</time>
      </trkpt>
      <trkpt lat="39.7306820" lon="-6.6097190">
        <ele>304.0</ele>
        <time>2019-07-10T06:30:02Z</time>
      </trkpt>
      <trkpt lat="39.7307160" lon="-6.6097220">
        <ele>304.4</ele>
        <time>2019-07-10T06:30:04Z</time>
      </trkpt>
      <trkpt lat="39.7307350" lon="-6.6098460">
        <ele>304.8</ele>
        <time>2019-07-10T06:30:08Z</time>
      </trkpt>
      <trkpt lat="39.7307060" lon="-6.6099130">
        <ele>304.8</ele>
        <time>2019-07-10T06:30:10Z</time>
      </trkpt>
      <trkpt lat="39.7306840" lon="-6.6099680">
        <ele>304.8</ele>
        <time>2019-07-10T06:30:12Z</time>
      </trkpt>
      <trkpt lat="39.7306800" lon="-6.6100360">
        <ele>305.0</ele>
        <time>2019-07-10T06:30:14Z</time>
      </trkpt>
      <trkpt lat="39.7307090" lon="-6.6101250">
        <ele>305.6</ele>
        <time>2019-07-10T06:30:17Z</time>
      </trkpt>
      <trkpt lat="39.7307540" lon="-6.6101990">
        <ele>306.0</ele>
        <time>2019-07-10T06:30:20Z</time>
      </trkpt>
      <trkpt lat="39.7308050" lon="-6.6103090">
        <ele>307.2</ele>
        <time>2019-07-10T06:30:24Z</time>
      </trkpt>
      <trkpt lat="39.7308610" lon="-6.6104140">
        <ele>308.2</ele>
        <time>2019-07-10T06:30:28Z</time>
      </trkpt>
      <trkpt lat="39.7309260" lon="-6.6105070">
        <ele>309.0</ele>
        <time>2019-07-10T06:30:32Z</time>
      </trkpt>
      <trkpt lat="39.7309410" lon="-6.6105330">
        <ele>309.4</ele>
        <time>2019-07-10T06:30:33Z</time>
      </trkpt>
      <trkpt lat="39.7310010" lon="-6.6106560">
        <ele>310.4</ele>
        <time>2019-07-10T06:30:38Z</time>
      </trkpt>
      <trkpt lat="39.7310110" lon="-6.6106770">
        <ele>310.6</ele>
        <time>2019-07-10T06:30:39Z</time>
      </trkpt>
      <trkpt lat="39.7310350" lon="-6.6107190">
        <ele>311.6</ele>
        <time>2019-07-10T06:30:41Z</time>
      </trkpt>
      <trkpt lat="39.7310750" lon="-6.6108120">
        <ele>313.0</ele>
        <time>2019-07-10T06:30:45Z</time>
      </trkpt>
      <trkpt lat="39.7310950" lon="-6.6108580">
        <ele>314.0</ele>
        <time>2019-07-10T06:30:47Z</time>
      </trkpt>
      <trkpt lat="39.7311060" lon="-6.6108800">
        <ele>314.4</ele>
        <time>2019-07-10T06:30:48Z</time>
      </trkpt>
      <trkpt lat="39.7311340" lon="-6.6109490">
        <ele>315.4</ele>
        <time>2019-07-10T06:30:51Z</time>
      </trkpt>
      <trkpt lat="39.7311600" lon="-6.6110170">
        <ele>316.4</ele>
        <time>2019-07-10T06:30:54Z</time>
      </trkpt>
      <trkpt lat="39.7311870" lon="-6.6110910">
        <ele>317.6</ele>
        <time>2019-07-10T06:30:57Z</time>
      </trkpt>
      <trkpt lat="39.7311960" lon="-6.6111170">
        <ele>317.8</ele>
        <time>2019-07-10T06:30:58Z</time>
      </trkpt>
      <trkpt lat="39.7312260" lon="-6.6111920">
        <ele>318.6</ele>
        <time>2019-07-10T06:31:01Z</time>
      </trkpt>
      <trkpt lat="39.7312530" lon="-6.6112660">
        <ele>319.2</ele>
        <time>2019-07-10T06:31:04Z</time>
      </trkpt>
      <trkpt lat="39.7312770" lon="-6.6113160">
        <ele>319.8</ele>
        <time>2019-07-10T06:31:06Z</time>
      </trkpt>
      <trkpt lat="39.7313610" lon="-6.6114180">
        <ele>320.4</ele>
        <time>2019-07-10T06:31:10Z</time>
      </trkpt>
      <trkpt lat="39.7315230" lon="-6.6115640">
        <ele>319.8</ele>
        <time>2019-07-10T06:31:15Z</time>
      </trkpt>
      <trkpt lat="39.7316470" lon="-6.6116530">
        <ele>320.8</ele>
        <time>2019-07-10T06:31:20Z</time>
      </trkpt>
      <trkpt lat="39.7316690" lon="-6.6116790">
        <ele>320.8</ele>
        <time>2019-07-10T06:31:21Z</time>
      </trkpt>
      <trkpt lat="39.7317270" lon="-6.6117430">
        <ele>321.2</ele>
        <time>2019-07-10T06:31:24Z</time>
      </trkpt>
      <trkpt lat="39.7317780" lon="-6.6118200">
        <ele>321.6</ele>
        <time>2019-07-10T06:31:27Z</time>
      </trkpt>
      <trkpt lat="39.7318080" lon="-6.6118740">
        <ele>322.0</ele>
        <time>2019-07-10T06:31:29Z</time>
      </trkpt>
      <trkpt lat="39.7318710" lon="-6.6119550">
        <ele>323.2</ele>
        <time>2019-07-10T06:31:33Z</time>
      </trkpt>
      <trkpt lat="39.7319320" lon="-6.6120220">
        <ele>324.2</ele>
        <time>2019-07-10T06:31:37Z</time>
      </trkpt>
      <trkpt lat="39.7319510" lon="-6.6120470">
        <ele>324.6</ele>
        <time>2019-07-10T06:31:38Z</time>
      </trkpt>
      <trkpt lat="39.7319780" lon="-6.6120940">
        <ele>325.2</ele>
        <time>2019-07-10T06:31:40Z</time>
      </trkpt>
      <trkpt lat="39.7320250" lon="-6.6121900">
        <ele>326.4</ele>
        <time>2019-07-10T06:31:44Z</time>
      </trkpt>
      <trkpt lat="39.7320350" lon="-6.6122150">
        <ele>326.6</ele>
        <time>2019-07-10T06:31:45Z</time>
      </trkpt>
      <trkpt lat="39.7321020" lon="-6.6123860">
        <ele>327.2</ele>
        <time>2019-07-10T06:31:50Z</time>
      </trkpt>
      <trkpt lat="39.7322080" lon="-6.6125420">
        <ele>328.2</ele>
        <time>2019-07-10T06:31:56Z</time>
      </trkpt>
      <trkpt lat="39.7322210" lon="-6.6125640">
        <ele>328.4</ele>
        <time>2019-07-10T06:31:57Z</time>
      </trkpt>
      <trkpt lat="39.7322790" lon="-6.6126400">
        <ele>329.6</ele>
        <time>2019-07-10T06:32:01Z</time>
      </trkpt>
      <trkpt lat="39.7323160" lon="-6.6126800">
        <ele>330.0</ele>
        <time>2019-07-10T06:32:03Z</time>
      </trkpt>
      <trkpt lat="39.7323670" lon="-6.6127370">
        <ele>331.0</ele>
        <time>2019-07-10T06:32:06Z</time>
      </trkpt>
      <trkpt lat="39.7324260" lon="-6.6128140">
        <ele>332.2</ele>
        <time>2019-07-10T06:32:10Z</time>
      </trkpt>
      <trkpt lat="39.7324650" lon="-6.6128760">
        <ele>333.4</ele>
        <time>2019-07-10T06:32:13Z</time>
      </trkpt>
      <trkpt lat="39.7325050" lon="-6.6129750">
        <ele>334.8</ele>
        <time>2019-07-10T06:32:17Z</time>
      </trkpt>
      <trkpt lat="39.7325110" lon="-6.6130030">
        <ele>335.2</ele>
        <time>2019-07-10T06:32:18Z</time>
      </trkpt>
      <trkpt lat="39.7325150" lon="-6.6130300">
        <ele>335.8</ele>
        <time>2019-07-10T06:32:19Z</time>
      </trkpt>
      <trkpt lat="39.7325240" lon="-6.6131220">
        <ele>336.8</ele>
        <time>2019-07-10T06:32:22Z</time>
      </trkpt>
      <trkpt lat="39.7325160" lon="-6.6132580">
        <ele>337.6</ele>
        <time>2019-07-10T06:32:26Z</time>
      </trkpt>
      <trkpt lat="39.7325070" lon="-6.6133600">
        <ele>337.8</ele>
        <time>2019-07-10T06:32:29Z</time>
      </trkpt>
      <trkpt lat="39.7325280" lon="-6.6135200">
        <ele>339.0</ele>
        <time>2019-07-10T06:32:34Z</time>
      </trkpt>
      <trkpt lat="39.7325630" lon="-6.6136480">
        <ele>339.6</ele>
        <time>2019-07-10T06:32:38Z</time>
      </trkpt>
      <trkpt lat="39.7325710" lon="-6.6136800">
        <ele>339.8</ele>
        <time>2019-07-10T06:32:39Z</time>
      </trkpt>
      <trkpt lat="39.7325950" lon="-6.6137300">
        <ele>340.2</ele>
        <time>2019-07-10T06:32:41Z</time>
      </trkpt>
      <trkpt lat="39.7326200" lon="-6.6137800">
        <ele>340.8</ele>
        <time>2019-07-10T06:32:43Z</time>
      </trkpt>
      <trkpt lat="39.7326670" lon="-6.6139050">
        <ele>342.2</ele>
        <time>2019-07-10T06:32:48Z</time>
      </trkpt>
      <trkpt lat="39.7326740" lon="-6.6139320">
        <ele>342.6</ele>
        <time>2019-07-10T06:32:49Z</time>
      </trkpt>
      <trkpt lat="39.7326790" lon="-6.6139860">
        <ele>343.4</ele>
        <time>2019-07-10T06:32:51Z</time>
      </trkpt>
      <trkpt lat="39.7327000" lon="-6.6140930">
        <ele>344.6</ele>
        <time>2019-07-10T06:32:55Z</time>
      </trkpt>
      <trkpt lat="39.7327210" lon="-6.6141700">
        <ele>345.6</ele>
        <time>2019-07-10T06:32:58Z</time>
      </trkpt>
      <trkpt lat="39.7327180" lon="-6.6141970">
        <ele>346.0</ele>
        <time>2019-07-10T06:32:59Z</time>
      </trkpt>
      <trkpt lat="39.7327110" lon="-6.6142250">
        <ele>346.6</ele>
        <time>2019-07-10T06:33:00Z</time>
      </trkpt>
      <trkpt lat="39.7327150" lon="-6.6142800">
        <ele>347.2</ele>
        <time>2019-07-10T06:33:02Z</time>
      </trkpt>
      <trkpt lat="39.7327380" lon="-6.6143200">
        <ele>347.6</ele>
        <time>2019-07-10T06:33:04Z</time>
      </trkpt>
      <trkpt lat="39.7327810" lon="-6.6143690">
        <ele>348.6</ele>
        <time>2019-07-10T06:33:07Z</time>
      </trkpt>
      <trkpt lat="39.7328320" lon="-6.6144460">
        <ele>349.4</ele>
        <time>2019-07-10T06:33:11Z</time>
      </trkpt>
      <trkpt lat="39.7328460" lon="-6.6144650">
        <ele>349.8</ele>
        <time>2019-07-10T06:33:12Z</time>
      </trkpt>
      <trkpt lat="39.7329040" lon="-6.6145710">
        <ele>351.0</ele>
        <time>2019-07-10T06:33:17Z</time>
      </trkpt>
      <trkpt lat="39.7329220" lon="-6.6146140">
        <ele>351.6</ele>
        <time>2019-07-10T06:33:19Z</time>
      </trkpt>
      <trkpt lat="39.7329300" lon="-6.6146350">
        <ele>352.0</ele>
        <time>2019-07-10T06:33:20Z</time>
      </trkpt>
      <trkpt lat="39.7329570" lon="-6.6146950">
        <ele>353.0</ele>
        <time>2019-07-10T06:33:23Z</time>
      </trkpt>
      <trkpt lat="39.7329880" lon="-6.6147300">
        <ele>354.0</ele>
        <time>2019-07-10T06:33:25Z</time>
      </trkpt>
      <trkpt lat="39.7330090" lon="-6.6147710">
        <ele>354.4</ele>
        <time>2019-07-10T06:33:27Z</time>
      </trkpt>
      <trkpt lat="39.7330290" lon="-6.6148300">
        <ele>355.6</ele>
        <time>2019-07-10T06:33:30Z</time>
      </trkpt>
      <trkpt lat="39.7330650" lon="-6.6149050">
        <ele>356.8</ele>
        <time>2019-07-10T06:33:34Z</time>
      </trkpt>
      <trkpt lat="39.7330770" lon="-6.6149220">
        <ele>357.0</ele>
        <time>2019-07-10T06:33:35Z</time>
      </trkpt>
      <trkpt lat="39.7331010" lon="-6.6149560">
        <ele>357.8</ele>
        <time>2019-07-10T06:33:37Z</time>
      </trkpt>
      <trkpt lat="39.7331120" lon="-6.6150400">
        <ele>359.0</ele>
        <time>2019-07-10T06:33:41Z</time>
      </trkpt>
      <trkpt lat="39.7331040" lon="-6.6150620">
        <ele>359.4</ele>
        <time>2019-07-10T06:33:42Z</time>
      </trkpt>
      <trkpt lat="39.7330720" lon="-6.6151840">
        <ele>360.0</ele>
        <time>2019-07-10T06:33:46Z</time>
      </trkpt>
      <trkpt lat="39.7330660" lon="-6.6152220">
        <ele>360.0</ele>
        <time>2019-07-10T06:33:47Z</time>
      </trkpt>
      <trkpt lat="39.7330510" lon="-6.6153440">
        <ele>360.6</ele>
        <time>2019-07-10T06:33:52Z</time>
      </trkpt>
      <trkpt lat="39.7330500" lon="-6.6153430">
        <ele>361.0</ele>
        <time>2019-07-10T06:33:53Z</time>
      </trkpt>
      <trkpt lat="39.7330820" lon="-6.6154610">
        <ele>365.0</ele>
        <time>2019-07-10T06:34:30Z</time>
      </trkpt>
      <trkpt lat="39.7330960" lon="-6.6154750">
        <ele>365.0</ele>
        <time>2019-07-10T06:34:31Z</time>
      </trkpt>
      <trkpt lat="39.7331130" lon="-6.6154920">
        <ele>365.2</ele>
        <time>2019-07-10T06:34:32Z</time>
      </trkpt>
      <trkpt lat="39.7331340" lon="-6.6155090">
        <ele>365.2</ele>
        <time>2019-07-10T06:34:33Z</time>
      </trkpt>
      <trkpt lat="39.7331820" lon="-6.6155430">
        <ele>365.2</ele>
        <time>2019-07-10T06:34:35Z</time>
      </trkpt>
      <trkpt lat="39.7332280" lon="-6.6155740">
        <ele>365.4</ele>
        <time>2019-07-10T06:34:37Z</time>
      </trkpt>
      <trkpt lat="39.7332560" lon="-6.6156070">
        <ele>366.0</ele>
        <time>2019-07-10T06:34:39Z</time>
      </trkpt>
      <trkpt lat="39.7332810" lon="-6.6156530">
        <ele>366.6</ele>
        <time>2019-07-10T06:34:42Z</time>
      </trkpt>
      <trkpt lat="39.7333030" lon="-6.6156840">
        <ele>366.8</ele>
        <time>2019-07-10T06:34:44Z</time>
      </trkpt>
      <trkpt lat="39.7333200" lon="-6.6157110">
        <ele>367.2</ele>
        <time>2019-07-10T06:34:46Z</time>
      </trkpt>
      <trkpt lat="39.7333370" lon="-6.6157400">
        <ele>367.6</ele>
        <time>2019-07-10T06:34:48Z</time>
      </trkpt>
      <trkpt lat="39.7333500" lon="-6.6157850">
        <ele>367.6</ele>
        <time>2019-07-10T06:34:51Z</time>
      </trkpt>
      <trkpt lat="39.7333700" lon="-6.6158440">
        <ele>367.4</ele>
        <time>2019-07-10T06:34:54Z</time>
      </trkpt>
      <trkpt lat="39.7335080" lon="-6.6159550">
        <ele>367.2</ele>
        <time>2019-07-10T06:34:59Z</time>
      </trkpt>
      <trkpt lat="39.7336730" lon="-6.6160780">
        <ele>368.4</ele>
        <time>2019-07-10T06:35:05Z</time>
      </trkpt>
      <trkpt lat="39.7337120" lon="-6.6161240">
        <ele>369.2</ele>
        <time>2019-07-10T06:35:07Z</time>
      </trkpt>
      <trkpt lat="39.7337490" lon="-6.6161640">
        <ele>369.8</ele>
        <time>2019-07-10T06:35:09Z</time>
      </trkpt>
      <trkpt lat="39.7338090" lon="-6.6162080">
        <ele>370.6</ele>
        <time>2019-07-10T06:35:12Z</time>
      </trkpt>
      <trkpt lat="39.7338320" lon="-6.6162220">
        <ele>371.0</ele>
        <time>2019-07-10T06:35:13Z</time>
      </trkpt>
      <trkpt lat="39.7339380" lon="-6.6162580">
        <ele>372.0</ele>
        <time>2019-07-10T06:35:17Z</time>
      </trkpt>
      <trkpt lat="39.7339660" lon="-6.6162660">
        <ele>372.2</ele>
        <time>2019-07-10T06:35:18Z</time>
      </trkpt>
      <trkpt lat="39.7341380" lon="-6.6163200">
        <ele>373.2</ele>
        <time>2019-07-10T06:35:24Z</time>
      </trkpt>
      <trkpt lat="39.7342010" lon="-6.6163410">
        <ele>373.4</ele>
        <time>2019-07-10T06:35:26Z</time>
      </trkpt>
      <trkpt lat="39.7344260" lon="-6.6163910">
        <ele>372.8</ele>
        <time>2019-07-10T06:35:32Z</time>
      </trkpt>
      <trkpt lat="39.7345190" lon="-6.6163820">
        <ele>372.2</ele>
        <time>2019-07-10T06:35:34Z</time>
      </trkpt>
      <trkpt lat="39.7345680" lon="-6.6163570">
        <ele>372.0</ele>
        <time>2019-07-10T06:35:35Z</time>
      </trkpt>
      <trkpt lat="39.7346110" lon="-6.6163130">
        <ele>372.0</ele>
        <time>2019-07-10T06:35:36Z</time>
      </trkpt>
      <trkpt lat="39.7346440" lon="-6.6162570">
        <ele>371.8</ele>
        <time>2019-07-10T06:35:37Z</time>
      </trkpt>
      <trkpt lat="39.7346780" lon="-6.6161380">
        <ele>371.0</ele>
        <time>2019-07-10T06:35:39Z</time>
      </trkpt>
      <trkpt lat="39.7346850" lon="-6.6160860">
        <ele>371.0</ele>
        <time>2019-07-10T06:35:40Z</time>
      </trkpt>
      <trkpt lat="39.7347070" lon="-6.6159820">
        <ele>371.4</ele>
        <time>2019-07-10T06:35:43Z</time>
      </trkpt>
      <trkpt lat="39.7347380" lon="-6.6159250">
        <ele>371.8</ele>
        <time>2019-07-10T06:35:45Z</time>
      </trkpt>
      <trkpt lat="39.7347610" lon="-6.6159000">
        <ele>372.0</ele>
        <time>2019-07-10T06:35:46Z</time>
      </trkpt>
      <trkpt lat="39.7348130" lon="-6.6158530">
        <ele>372.2</ele>
        <time>2019-07-10T06:35:48Z</time>
      </trkpt>
      <trkpt lat="39.7349550" lon="-6.6156970">
        <ele>373.2</ele>
        <time>2019-07-10T06:35:54Z</time>
      </trkpt>
      <trkpt lat="39.7350220" lon="-6.6156260">
        <ele>373.8</ele>
        <time>2019-07-10T06:35:57Z</time>
      </trkpt>
      <trkpt lat="39.7350450" lon="-6.6156030">
        <ele>374.0</ele>
        <time>2019-07-10T06:35:58Z</time>
      </trkpt>
      <trkpt lat="39.7350680" lon="-6.6155810">
        <ele>374.4</ele>
        <time>2019-07-10T06:35:59Z</time>
      </trkpt>
      <trkpt lat="39.7351580" lon="-6.6154900">
        <ele>375.6</ele>
        <time>2019-07-10T06:36:03Z</time>
      </trkpt>
      <trkpt lat="39.7352320" lon="-6.6154350">
        <ele>377.0</ele>
        <time>2019-07-10T06:36:06Z</time>
      </trkpt>
      <trkpt lat="39.7352570" lon="-6.6154170">
        <ele>377.4</ele>
        <time>2019-07-10T06:36:07Z</time>
      </trkpt>
      <trkpt lat="39.7353380" lon="-6.6153680">
        <ele>378.0</ele>
        <time>2019-07-10T06:36:10Z</time>
      </trkpt>
      <trkpt lat="39.7354820" lon="-6.6152910">
        <ele>378.8</ele>
        <time>2019-07-10T06:36:15Z</time>
      </trkpt>
      <trkpt lat="39.7355800" lon="-6.6152860">
        <ele>378.6</ele>
        <time>2019-07-10T06:36:20Z</time>
      </trkpt>
      <trkpt lat="39.7355820" lon="-6.6152840">
        <ele>378.6</ele>
        <time>2019-07-10T06:36:21Z</time>
      </trkpt>
      <trkpt lat="39.7356510" lon="-6.6152920">
        <ele>378.2</ele>
        <time>2019-07-10T06:37:49Z</time>
      </trkpt>
      <trkpt lat="39.7356650" lon="-6.6152900">
        <ele>378.4</ele>
        <time>2019-07-10T06:37:50Z</time>
      </trkpt>
      <trkpt lat="39.7356820" lon="-6.6152880">
        <ele>378.4</ele>
        <time>2019-07-10T06:37:51Z</time>
      </trkpt>
      <trkpt lat="39.7357890" lon="-6.6152930">
        <ele>378.8</ele>
        <time>2019-07-10T06:37:55Z</time>
      </trkpt>
      <trkpt lat="39.7358610" lon="-6.6153400">
        <ele>378.8</ele>
        <time>2019-07-10T06:37:58Z</time>
      </trkpt>
      <trkpt lat="39.7359000" lon="-6.6154020">
        <ele>378.8</ele>
        <time>2019-07-10T06:38:00Z</time>
      </trkpt>
      <trkpt lat="39.7359100" lon="-6.6154510">
        <ele>378.4</ele>
        <time>2019-07-10T06:38:01Z</time>
      </trkpt>
      <trkpt lat="39.7359030" lon="-6.6156290">
        <ele>377.6</ele>
        <time>2019-07-10T06:38:04Z</time>
      </trkpt>
      <trkpt lat="39.7358930" lon="-6.6156880">
        <ele>377.4</ele>
        <time>2019-07-10T06:38:05Z</time>
      </trkpt>
      <trkpt lat="39.7358150" lon="-6.6159420">
        <ele>377.4</ele>
        <time>2019-07-10T06:38:10Z</time>
      </trkpt>
      <trkpt lat="39.7358060" lon="-6.6159950">
        <ele>377.6</ele>
        <time>2019-07-10T06:38:11Z</time>
      </trkpt>
      <trkpt lat="39.7358120" lon="-6.6162520">
        <ele>377.2</ele>
        <time>2019-07-10T06:38:15Z</time>
      </trkpt>
      <trkpt lat="39.7358280" lon="-6.6163290">
        <ele>377.0</ele>
        <time>2019-07-10T06:38:16Z</time>
      </trkpt>
      <trkpt lat="39.7358550" lon="-6.6164840">
        <ele>376.4</ele>
        <time>2019-07-10T06:38:18Z</time>
      </trkpt>
      <trkpt lat="39.7358560" lon="-6.6166280">
        <ele>375.8</ele>
        <time>2019-07-10T06:38:20Z</time>
      </trkpt>
      <trkpt lat="39.7358000" lon="-6.6167930">
        <ele>375.6</ele>
        <time>2019-07-10T06:38:23Z</time>
      </trkpt>
      <trkpt lat="39.7356800" lon="-6.6169200">
        <ele>376.0</ele>
        <time>2019-07-10T06:38:27Z</time>
      </trkpt>
      <trkpt lat="39.7356430" lon="-6.6169500">
        <ele>376.0</ele>
        <time>2019-07-10T06:38:28Z</time>
      </trkpt>
      <trkpt lat="39.7355180" lon="-6.6170420">
        <ele>375.6</ele>
        <time>2019-07-10T06:38:31Z</time>
      </trkpt>
      <trkpt lat="39.7354310" lon="-6.6171100">
        <ele>375.0</ele>
        <time>2019-07-10T06:38:33Z</time>
      </trkpt>
      <trkpt lat="39.7353910" lon="-6.6171430">
        <ele>374.8</ele>
        <time>2019-07-10T06:38:34Z</time>
      </trkpt>
      <trkpt lat="39.7353120" lon="-6.6172030">
        <ele>374.0</ele>
        <time>2019-07-10T06:38:36Z</time>
      </trkpt>
      <trkpt lat="39.7352250" lon="-6.6172650">
        <ele>373.0</ele>
        <time>2019-07-10T06:38:38Z</time>
      </trkpt>
      <trkpt lat="39.7351460" lon="-6.6173320">
        <ele>372.0</ele>
        <time>2019-07-10T06:38:40Z</time>
      </trkpt>
      <trkpt lat="39.7350860" lon="-6.6173770">
        <ele>370.8</ele>
        <time>2019-07-10T06:38:42Z</time>
      </trkpt>
      <trkpt lat="39.7350710" lon="-6.6173840">
        <ele>370.4</ele>
        <time>2019-07-10T06:38:43Z</time>
      </trkpt>
      <trkpt lat="39.7350660" lon="-6.6173820">
        <ele>370.0</ele>
        <time>2019-07-10T06:38:45Z</time>
      </trkpt>
      <trkpt lat="39.7350440" lon="-6.6174030">
        <ele>369.6</ele>
        <time>2019-07-10T06:39:35Z</time>
      </trkpt>
      <trkpt lat="39.7350230" lon="-6.6174180">
        <ele>369.6</ele>
        <time>2019-07-10T06:39:36Z</time>
      </trkpt>
      <trkpt lat="39.7349140" lon="-6.6174070">
        <ele>369.2</ele>
        <time>2019-07-10T06:39:39Z</time>
      </trkpt>
      <trkpt lat="39.7348190" lon="-6.6173340">
        <ele>368.6</ele>
        <time>2019-07-10T06:39:41Z</time>
      </trkpt>
      <trkpt lat="39.7347710" lon="-6.6172830">
        <ele>368.2</ele>
        <time>2019-07-10T06:39:42Z</time>
      </trkpt>
      <trkpt lat="39.7347200" lon="-6.6172350">
        <ele>367.6</ele>
        <time>2019-07-10T06:39:43Z</time>
      </trkpt>
      <trkpt lat="39.7345090" lon="-6.6170930">
        <ele>366.6</ele>
        <time>2019-07-10T06:39:47Z</time>
      </trkpt>
      <trkpt lat="39.7344180" lon="-6.6170500">
        <ele>366.6</ele>
        <time>2019-07-10T06:39:49Z</time>
      </trkpt>
      <trkpt lat="39.7343770" lon="-6.6170370">
        <ele>366.6</ele>
        <time>2019-07-10T06:39:50Z</time>
      </trkpt>
      <trkpt lat="39.7342680" lon="-6.6170400">
        <ele>367.4</ele>
        <time>2019-07-10T06:39:53Z</time>
      </trkpt>
      <trkpt lat="39.7342340" lon="-6.6170460">
        <ele>367.6</ele>
        <time>2019-07-10T06:39:54Z</time>
      </trkpt>
      <trkpt lat="39.7341670" lon="-6.6170580">
        <ele>368.2</ele>
        <time>2019-07-10T06:39:56Z</time>
      </trkpt>
      <trkpt lat="39.7340650" lon="-6.6171020">
        <ele>369.0</ele>
        <time>2019-07-10T06:39:59Z</time>
      </trkpt>
      <trkpt lat="39.7340270" lon="-6.6171190">
        <ele>369.0</ele>
        <time>2019-07-10T06:40:00Z</time>
      </trkpt>
      <trkpt lat="39.7338640" lon="-6.6171980">
        <ele>369.0</ele>
        <time>2019-07-10T06:40:04Z</time>
      </trkpt>
      <trkpt lat="39.7337450" lon="-6.6172760">
        <ele>369.2</ele>
        <time>2019-07-10T06:40:07Z</time>
      </trkpt>
      <trkpt lat="39.7335700" lon="-6.6174140">
        <ele>369.4</ele>
        <time>2019-07-10T06:40:12Z</time>
      </trkpt>
      <trkpt lat="39.7333490" lon="-6.6175860">
        <ele>368.2</ele>
        <time>2019-07-10T06:40:17Z</time>
      </trkpt>
      <trkpt lat="39.7332980" lon="-6.6176210">
        <ele>367.4</ele>
        <time>2019-07-10T06:40:18Z</time>
      </trkpt>
      <trkpt lat="39.7332490" lon="-6.6176620">
        <ele>367.2</ele>
        <time>2019-07-10T06:40:19Z</time>
      </trkpt>
      <trkpt lat="39.7331560" lon="-6.6177600">
        <ele>366.6</ele>
        <time>2019-07-10T06:40:21Z</time>
      </trkpt>
      <trkpt lat="39.7331080" lon="-6.6178080">
        <ele>366.2</ele>
        <time>2019-07-10T06:40:22Z</time>
      </trkpt>
      <trkpt lat="39.7330140" lon="-6.6179160">
        <ele>365.4</ele>
        <time>2019-07-10T06:40:24Z</time>
      </trkpt>
      <trkpt lat="39.7328730" lon="-6.6181190">
        <ele>364.2</ele>
        <time>2019-07-10T06:40:27Z</time>
      </trkpt>
      <trkpt lat="39.7327020" lon="-6.6183060">
        <ele>363.2</ele>
        <time>2019-07-10T06:40:30Z</time>
      </trkpt>
      <trkpt lat="39.7325350" lon="-6.6184880">
        <ele>362.4</ele>
        <time>2019-07-10T06:40:33Z</time>
      </trkpt>
      <trkpt lat="39.7322690" lon="-6.6187220">
        <ele>362.2</ele>
        <time>2019-07-10T06:40:38Z</time>
      </trkpt>
      <trkpt lat="39.7321740" lon="-6.6188170">
        <ele>362.0</ele>
        <time>2019-07-10T06:40:40Z</time>
      </trkpt>
      <trkpt lat="39.7320280" lon="-6.6189770">
        <ele>361.8</ele>
        <time>2019-07-10T06:40:43Z</time>
      </trkpt>
      <trkpt lat="39.7319740" lon="-6.6190260">
        <ele>361.6</ele>
        <time>2019-07-10T06:40:44Z</time>
      </trkpt>
      <trkpt lat="39.7318730" lon="-6.6191260">
        <ele>360.8</ele>
        <time>2019-07-10T06:40:46Z</time>
      </trkpt>
      <trkpt lat="39.7317930" lon="-6.6192570">
        <ele>360.4</ele>
        <time>2019-07-10T06:40:48Z</time>
      </trkpt>
      <trkpt lat="39.7317270" lon="-6.6194150">
        <ele>359.8</ele>
        <time>2019-07-10T06:40:50Z</time>
      </trkpt>
      <trkpt lat="39.7315990" lon="-6.6197360">
        <ele>359.0</ele>
        <time>2019-07-10T06:40:54Z</time>
      </trkpt>
      <trkpt lat="39.7315700" lon="-6.6198190">
        <ele>359.0</ele>
        <time>2019-07-10T06:40:55Z</time>
      </trkpt>
      <trkpt lat="39.7315510" lon="-6.6199940">
        <ele>358.8</ele>
        <time>2019-07-10T06:40:57Z</time>
      </trkpt>
      <trkpt lat="39.7315570" lon="-6.6200800">
        <ele>358.6</ele>
        <time>2019-07-10T06:40:58Z</time>
      </trkpt>
      <trkpt lat="39.7315680" lon="-6.6201640">
        <ele>358.4</ele>
        <time>2019-07-10T06:40:59Z</time>
      </trkpt>
      <trkpt lat="39.7316140" lon="-6.6204960">
        <ele>357.8</ele>
        <time>2019-07-10T06:41:03Z</time>
      </trkpt>
      <trkpt lat="39.7316260" lon="-6.6205900">
        <ele>357.4</ele>
        <time>2019-07-10T06:41:04Z</time>
      </trkpt>
      <trkpt lat="39.7316300" lon="-6.6206890">
        <ele>356.4</ele>
        <time>2019-07-10T06:41:05Z</time>
      </trkpt>
      <trkpt lat="39.7316110" lon="-6.6208830">
        <ele>355.6</ele>
        <time>2019-07-10T06:41:07Z</time>
      </trkpt>
      <trkpt lat="39.7315290" lon="-6.6210930">
        <ele>355.4</ele>
        <time>2019-07-10T06:41:10Z</time>
      </trkpt>
      <trkpt lat="39.7314660" lon="-6.6211790">
        <ele>356.2</ele>
        <time>2019-07-10T06:41:12Z</time>
      </trkpt>
      <trkpt lat="39.7314040" lon="-6.6212460">
        <ele>357.2</ele>
        <time>2019-07-10T06:41:14Z</time>
      </trkpt>
      <trkpt lat="39.7313710" lon="-6.6212720">
        <ele>357.6</ele>
        <time>2019-07-10T06:41:15Z</time>
      </trkpt>
      <trkpt lat="39.7313090" lon="-6.6213220">
        <ele>358.0</ele>
        <time>2019-07-10T06:41:17Z</time>
      </trkpt>
      <trkpt lat="39.7312470" lon="-6.6213620">
        <ele>358.8</ele>
        <time>2019-07-10T06:41:19Z</time>
      </trkpt>
      <trkpt lat="39.7311860" lon="-6.6213940">
        <ele>359.6</ele>
        <time>2019-07-10T06:41:21Z</time>
      </trkpt>
      <trkpt lat="39.7311570" lon="-6.6214080">
        <ele>360.0</ele>
        <time>2019-07-10T06:41:22Z</time>
      </trkpt>
      <trkpt lat="39.7311010" lon="-6.6214390">
        <ele>360.8</ele>
        <time>2019-07-10T06:41:24Z</time>
      </trkpt>
      <trkpt lat="39.7310760" lon="-6.6214520">
        <ele>361.4</ele>
        <time>2019-07-10T06:41:25Z</time>
      </trkpt>
      <trkpt lat="39.7310260" lon="-6.6214800">
        <ele>362.6</ele>
        <time>2019-07-10T06:41:27Z</time>
      </trkpt>
      <trkpt lat="39.7309750" lon="-6.6215100">
        <ele>363.0</ele>
        <time>2019-07-10T06:41:29Z</time>
      </trkpt>
      <trkpt lat="39.7309260" lon="-6.6215470">
        <ele>363.4</ele>
        <time>2019-07-10T06:41:31Z</time>
      </trkpt>
      <trkpt lat="39.7308990" lon="-6.6215700">
        <ele>363.6</ele>
        <time>2019-07-10T06:41:32Z</time>
      </trkpt>
      <trkpt lat="39.7308420" lon="-6.6216150">
        <ele>364.0</ele>
        <time>2019-07-10T06:41:34Z</time>
      </trkpt>
      <trkpt lat="39.7307800" lon="-6.6216690">
        <ele>364.0</ele>
        <time>2019-07-10T06:41:36Z</time>
      </trkpt>
      <trkpt lat="39.7306830" lon="-6.6217730">
        <ele>363.6</ele>
        <time>2019-07-10T06:41:39Z</time>
      </trkpt>
      <trkpt lat="39.7306010" lon="-6.6218600">
        <ele>363.4</ele>
        <time>2019-07-10T06:41:41Z</time>
      </trkpt>
      <trkpt lat="39.7304600" lon="-6.6220110">
        <ele>362.6</ele>
        <time>2019-07-10T06:41:44Z</time>
      </trkpt>
      <trkpt lat="39.7303710" lon="-6.6221350">
        <ele>361.4</ele>
        <time>2019-07-10T06:41:46Z</time>
      </trkpt>
      <trkpt lat="39.7301830" lon="-6.6224650">
        <ele>360.6</ele>
        <time>2019-07-10T06:41:51Z</time>
      </trkpt>
      <trkpt lat="39.7301440" lon="-6.6225390">
        <ele>360.4</ele>
        <time>2019-07-10T06:41:52Z</time>
      </trkpt>
      <trkpt lat="39.7300320" lon="-6.6227970">
        <ele>359.0</ele>
        <time>2019-07-10T06:41:55Z</time>
      </trkpt>
      <trkpt lat="39.7299600" lon="-6.6229920">
        <ele>358.4</ele>
        <time>2019-07-10T06:41:57Z</time>
      </trkpt>
      <trkpt lat="39.7298960" lon="-6.6231970">
        <ele>357.8</ele>
        <time>2019-07-10T06:41:59Z</time>
      </trkpt>
      <trkpt lat="39.7298350" lon="-6.6234120">
        <ele>356.6</ele>
        <time>2019-07-10T06:42:01Z</time>
      </trkpt>
      <trkpt lat="39.7297770" lon="-6.6236350">
        <ele>355.6</ele>
        <time>2019-07-10T06:42:03Z</time>
      </trkpt>
      <trkpt lat="39.7297480" lon="-6.6237490">
        <ele>355.2</ele>
        <time>2019-07-10T06:42:04Z</time>
      </trkpt>
      <trkpt lat="39.7297200" lon="-6.6238620">
        <ele>354.8</ele>
        <time>2019-07-10T06:42:05Z</time>
      </trkpt>
      <trkpt lat="39.7296710" lon="-6.6240880">
        <ele>354.2</ele>
        <time>2019-07-10T06:42:07Z</time>
      </trkpt>
      <trkpt lat="39.7296050" lon="-6.6244300">
        <ele>353.0</ele>
        <time>2019-07-10T06:42:10Z</time>
      </trkpt>
      <trkpt lat="39.7295860" lon="-6.6245440">
        <ele>352.8</ele>
        <time>2019-07-10T06:42:11Z</time>
      </trkpt>
      <trkpt lat="39.7295500" lon="-6.6248970">
        <ele>352.0</ele>
        <time>2019-07-10T06:42:14Z</time>
      </trkpt>
      <trkpt lat="39.7295470" lon="-6.6251400">
        <ele>351.4</ele>
        <time>2019-07-10T06:42:16Z</time>
      </trkpt>
      <trkpt lat="39.7295470" lon="-6.6252630">
        <ele>351.0</ele>
        <time>2019-07-10T06:42:17Z</time>
      </trkpt>
      <trkpt lat="39.7295390" lon="-6.6255030">
        <ele>350.4</ele>
        <time>2019-07-10T06:42:19Z</time>
      </trkpt>
      <trkpt lat="39.7295180" lon="-6.6258400">
        <ele>350.0</ele>
        <time>2019-07-10T06:42:22Z</time>
      </trkpt>
      <trkpt lat="39.7294820" lon="-6.6261260">
        <ele>350.0</ele>
        <time>2019-07-10T06:42:25Z</time>
      </trkpt>
      <trkpt lat="39.7294610" lon="-6.6262690">
        <ele>349.8</ele>
        <time>2019-07-10T06:42:27Z</time>
      </trkpt>
      <trkpt lat="39.7294040" lon="-6.6266390">
        <ele>348.8</ele>
        <time>2019-07-10T06:42:32Z</time>
      </trkpt>
      <trkpt lat="39.7293450" lon="-6.6268040">
        <ele>348.6</ele>
        <time>2019-07-10T06:42:35Z</time>
      </trkpt>
      <trkpt lat="39.7293210" lon="-6.6268490">
        <ele>349.0</ele>
        <time>2019-07-10T06:42:36Z</time>
      </trkpt>
      <trkpt lat="39.7292940" lon="-6.6268910">
        <ele>349.4</ele>
        <time>2019-07-10T06:42:37Z</time>
      </trkpt>
      <trkpt lat="39.7292490" lon="-6.6269740">
        <ele>349.8</ele>
        <time>2019-07-10T06:42:39Z</time>
      </trkpt>
      <trkpt lat="39.7292310" lon="-6.6270180">
        <ele>350.0</ele>
        <time>2019-07-10T06:42:40Z</time>
      </trkpt>
      <trkpt lat="39.7291840" lon="-6.6271540">
        <ele>350.8</ele>
        <time>2019-07-10T06:42:43Z</time>
      </trkpt>
      <trkpt lat="39.7291630" lon="-6.6272490">
        <ele>351.2</ele>
        <time>2019-07-10T06:42:45Z</time>
      </trkpt>
      <trkpt lat="39.7291460" lon="-6.6273970">
        <ele>351.8</ele>
        <time>2019-07-10T06:42:48Z</time>
      </trkpt>
      <trkpt lat="39.7291420" lon="-6.6274960">
        <ele>352.2</ele>
        <time>2019-07-10T06:42:50Z</time>
      </trkpt>
      <trkpt lat="39.7291500" lon="-6.6276410">
        <ele>352.6</ele>
        <time>2019-07-10T06:42:53Z</time>
      </trkpt>
      <trkpt lat="39.7291770" lon="-6.6277880">
        <ele>353.4</ele>
        <time>2019-07-10T06:42:56Z</time>
      </trkpt>
      <trkpt lat="39.7291960" lon="-6.6279280">
        <ele>354.6</ele>
        <time>2019-07-10T06:42:59Z</time>
      </trkpt>
      <trkpt lat="39.7291980" lon="-6.6280740">
        <ele>355.6</ele>
        <time>2019-07-10T06:43:02Z</time>
      </trkpt>
      <trkpt lat="39.7291940" lon="-6.6281250">
        <ele>355.8</ele>
        <time>2019-07-10T06:43:03Z</time>
      </trkpt>
      <trkpt lat="39.7291880" lon="-6.6281780">
        <ele>356.0</ele>
        <time>2019-07-10T06:43:04Z</time>
      </trkpt>
      <trkpt lat="39.7291150" lon="-6.6285280">
        <ele>356.0</ele>
        <time>2019-07-10T06:43:10Z</time>
      </trkpt>
      <trkpt lat="39.7290590" lon="-6.6288690">
        <ele>355.2</ele>
        <time>2019-07-10T06:43:15Z</time>
      </trkpt>
      <trkpt lat="39.7290600" lon="-6.6289530">
        <ele>355.0</ele>
        <time>2019-07-10T06:43:16Z</time>
      </trkpt>
      <trkpt lat="39.7290660" lon="-6.6290380">
        <ele>354.6</ele>
        <time>2019-07-10T06:43:17Z</time>
      </trkpt>
      <trkpt lat="39.7290800" lon="-6.6292040">
        <ele>354.2</ele>
        <time>2019-07-10T06:43:19Z</time>
      </trkpt>
      <trkpt lat="39.7291110" lon="-6.6294360">
        <ele>354.2</ele>
        <time>2019-07-10T06:43:22Z</time>
      </trkpt>
      <trkpt lat="39.7292450" lon="-6.6298420">
        <ele>354.4</ele>
        <time>2019-07-10T06:43:28Z</time>
      </trkpt>
      <trkpt lat="39.7294300" lon="-6.6301420">
        <ele>355.4</ele>
        <time>2019-07-10T06:43:34Z</time>
      </trkpt>
      <trkpt lat="39.7294660" lon="-6.6301890">
        <ele>355.8</ele>
        <time>2019-07-10T06:43:35Z</time>
      </trkpt>
      <trkpt lat="39.7295000" lon="-6.6302390">
        <ele>356.0</ele>
        <time>2019-07-10T06:43:36Z</time>
      </trkpt>
      <trkpt lat="39.7295710" lon="-6.6304100">
        <ele>356.4</ele>
        <time>2019-07-10T06:43:39Z</time>
      </trkpt>
      <trkpt lat="39.7295690" lon="-6.6306150">
        <ele>356.8</ele>
        <time>2019-07-10T06:43:43Z</time>
      </trkpt>
      <trkpt lat="39.7295670" lon="-6.6306480">
        <ele>357.0</ele>
        <time>2019-07-10T06:43:44Z</time>
      </trkpt>
      <trkpt lat="39.7295970" lon="-6.6307040">
        <ele>357.0</ele>
        <time>2019-07-10T06:43:47Z</time>
      </trkpt>
      <trkpt lat="39.7296400" lon="-6.6306870">
        <ele>357.6</ele>
        <time>2019-07-10T06:43:51Z</time>
      </trkpt>
      <trkpt lat="39.7296410" lon="-6.6306870">
        <ele>357.6</ele>
        <time>2019-07-10T06:43:52Z</time>
      </trkpt>
      <trkpt lat="39.7295900" lon="-6.6306780">
        <ele>357.0</ele>
        <time>2019-07-10T06:45:14Z</time>
      </trkpt>
      <trkpt lat="39.7295690" lon="-6.6306900">
        <ele>357.0</ele>
        <time>2019-07-10T06:45:15Z</time>
      </trkpt>
      <trkpt lat="39.7295480" lon="-6.6307060">
        <ele>356.8</ele>
        <time>2019-07-10T06:45:16Z</time>
      </trkpt>
      <trkpt lat="39.7295270" lon="-6.6307280">
        <ele>356.6</ele>
        <time>2019-07-10T06:45:19Z</time>
      </trkpt>
      <trkpt lat="39.7295720" lon="-6.6307190">
        <ele>357.0</ele>
        <time>2019-07-10T06:45:27Z</time>
      </trkpt>
      <trkpt lat="39.7296010" lon="-6.6306890">
        <ele>357.2</ele>
        <time>2019-07-10T06:45:29Z</time>
      </trkpt>
      <trkpt lat="39.7296410" lon="-6.6306560">
        <ele>357.4</ele>
        <time>2019-07-10T06:45:31Z</time>
      </trkpt>
      <trkpt lat="39.7297210" lon="-6.6306230">
        <ele>357.8</ele>
        <time>2019-07-10T06:45:34Z</time>
      </trkpt>
      <trkpt lat="39.7298470" lon="-6.6306450">
        <ele>358.6</ele>
        <time>2019-07-10T06:45:38Z</time>
      </trkpt>
      <trkpt lat="39.7298850" lon="-6.6306580">
        <ele>358.6</ele>
        <time>2019-07-10T06:45:39Z</time>
      </trkpt>
      <trkpt lat="39.7300770" lon="-6.6307830">
        <ele>357.0</ele>
        <time>2019-07-10T06:45:43Z</time>
      </trkpt>
      <trkpt lat="39.7301320" lon="-6.6308270">
        <ele>356.6</ele>
        <time>2019-07-10T06:45:44Z</time>
      </trkpt>
      <trkpt lat="39.7301900" lon="-6.6308660">
        <ele>356.2</ele>
        <time>2019-07-10T06:45:45Z</time>
      </trkpt>
      <trkpt lat="39.7303150" lon="-6.6309200">
        <ele>355.0</ele>
        <time>2019-07-10T06:45:47Z</time>
      </trkpt>
      <trkpt lat="39.7303800" lon="-6.6309300">
        <ele>354.6</ele>
        <time>2019-07-10T06:45:48Z</time>
      </trkpt>
      <trkpt lat="39.7304460" lon="-6.6309340">
        <ele>354.2</ele>
        <time>2019-07-10T06:45:49Z</time>
      </trkpt>
      <trkpt lat="39.7305110" lon="-6.6309370">
        <ele>354.0</ele>
        <time>2019-07-10T06:45:50Z</time>
      </trkpt>
      <trkpt lat="39.7306890" lon="-6.6309330">
        <ele>353.8</ele>
        <time>2019-07-10T06:45:53Z</time>
      </trkpt>
      <trkpt lat="39.7307420" lon="-6.6309400">
        <ele>354.0</ele>
        <time>2019-07-10T06:45:54Z</time>
      </trkpt>
      <trkpt lat="39.7309350" lon="-6.6309790">
        <ele>354.8</ele>
        <time>2019-07-10T06:45:58Z</time>
      </trkpt>
      <trkpt lat="39.7311420" lon="-6.6310370">
        <ele>354.6</ele>
        <time>2019-07-10T06:46:02Z</time>
      </trkpt>
      <trkpt lat="39.7312890" lon="-6.6311220">
        <ele>354.4</ele>
        <time>2019-07-10T06:46:05Z</time>
      </trkpt>
      <trkpt lat="39.7314280" lon="-6.6312350">
        <ele>354.4</ele>
        <time>2019-07-10T06:46:08Z</time>
      </trkpt>
      <trkpt lat="39.7315640" lon="-6.6313550">
        <ele>354.2</ele>
        <time>2019-07-10T06:46:11Z</time>
      </trkpt>
      <trkpt lat="39.7317090" lon="-6.6314600">
        <ele>353.4</ele>
        <time>2019-07-10T06:46:14Z</time>
      </trkpt>
      <trkpt lat="39.7318170" lon="-6.6315000">
        <ele>353.2</ele>
        <time>2019-07-10T06:46:16Z</time>
      </trkpt>
      <trkpt lat="39.7319580" lon="-6.6315290">
        <ele>353.2</ele>
        <time>2019-07-10T06:46:19Z</time>
      </trkpt>
      <trkpt lat="39.7320340" lon="-6.6315420">
        <ele>353.6</ele>
        <time>2019-07-10T06:46:21Z</time>
      </trkpt>
      <trkpt lat="39.7321640" lon="-6.6315510">
        <ele>355.0</ele>
        <time>2019-07-10T06:46:25Z</time>
      </trkpt>
      <trkpt lat="39.7322440" lon="-6.6315510">
        <ele>355.4</ele>
        <time>2019-07-10T06:46:28Z</time>
      </trkpt>
      <trkpt lat="39.7323140" lon="-6.6315560">
        <ele>355.2</ele>
        <time>2019-07-10T06:46:32Z</time>
      </trkpt>
      <trkpt lat="39.7323140" lon="-6.6315570">
        <ele>355.0</ele>
        <time>2019-07-10T06:46:33Z</time>
      </trkpt>
      <trkpt lat="39.7322750" lon="-6.6315680">
        <ele>355.0</ele>
        <time>2019-07-10T06:46:44Z</time>
      </trkpt>
      <trkpt lat="39.7322560" lon="-6.6315680">
        <ele>354.8</ele>
        <time>2019-07-10T06:46:46Z</time>
      </trkpt>
      <trkpt lat="39.7322560" lon="-6.6315680">
        <ele>354.8</ele>
        <time>2019-07-10T06:46:47Z</time>
      </trkpt>
      <trkpt lat="39.7322320" lon="-6.6315640">
        <ele>354.8</ele>
        <time>2019-07-10T06:47:31Z</time>
      </trkpt>
      <trkpt lat="39.7322140" lon="-6.6315640">
        <ele>354.8</ele>
        <time>2019-07-10T06:47:32Z</time>
      </trkpt>
      <trkpt lat="39.7321960" lon="-6.6315650">
        <ele>354.8</ele>
        <time>2019-07-10T06:47:33Z</time>
      </trkpt>
      <trkpt lat="39.7321760" lon="-6.6315650">
        <ele>354.8</ele>
        <time>2019-07-10T06:47:34Z</time>
      </trkpt>
      <trkpt lat="39.7321310" lon="-6.6315640">
        <ele>355.0</ele>
        <time>2019-07-10T06:47:36Z</time>
      </trkpt>
      <trkpt lat="39.7320080" lon="-6.6315500">
        <ele>355.2</ele>
        <time>2019-07-10T06:47:40Z</time>
      </trkpt>
      <trkpt lat="39.7318590" lon="-6.6315260">
        <ele>354.6</ele>
        <time>2019-07-10T06:47:43Z</time>
      </trkpt>
      <trkpt lat="39.7318040" lon="-6.6315120">
        <ele>354.0</ele>
        <time>2019-07-10T06:47:44Z</time>
      </trkpt>
      <trkpt lat="39.7317480" lon="-6.6314930">
        <ele>353.4</ele>
        <time>2019-07-10T06:47:45Z</time>
      </trkpt>
      <trkpt lat="39.7316440" lon="-6.6314410">
        <ele>353.0</ele>
        <time>2019-07-10T06:47:47Z</time>
      </trkpt>
      <trkpt lat="39.7315540" lon="-6.6313750">
        <ele>353.0</ele>
        <time>2019-07-10T06:47:49Z</time>
      </trkpt>
      <trkpt lat="39.7315130" lon="-6.6313390">
        <ele>353.2</ele>
        <time>2019-07-10T06:47:50Z</time>
      </trkpt>
      <trkpt lat="39.7314360" lon="-6.6312710">
        <ele>353.8</ele>
        <time>2019-07-10T06:47:52Z</time>
      </trkpt>
      <trkpt lat="39.7313270" lon="-6.6311780">
        <ele>354.0</ele>
        <time>2019-07-10T06:47:55Z</time>
      </trkpt>
      <trkpt lat="39.7312140" lon="-6.6310960">
        <ele>353.8</ele>
        <time>2019-07-10T06:47:58Z</time>
      </trkpt>
      <trkpt lat="39.7311310" lon="-6.6310530">
        <ele>354.2</ele>
        <time>2019-07-10T06:48:00Z</time>
      </trkpt>
      <trkpt lat="39.7309960" lon="-6.6310010">
        <ele>354.2</ele>
        <time>2019-07-10T06:48:03Z</time>
      </trkpt>
      <trkpt lat="39.7309510" lon="-6.6309900">
        <ele>354.0</ele>
        <time>2019-07-10T06:48:04Z</time>
      </trkpt>
      <trkpt lat="39.7307720" lon="-6.6309580">
        <ele>354.0</ele>
        <time>2019-07-10T06:48:08Z</time>
      </trkpt>
      <trkpt lat="39.7306120" lon="-6.6309370">
        <ele>354.0</ele>
        <time>2019-07-10T06:48:11Z</time>
      </trkpt>
      <trkpt lat="39.7305540" lon="-6.6309380">
        <ele>353.8</ele>
        <time>2019-07-10T06:48:12Z</time>
      </trkpt>
      <trkpt lat="39.7303270" lon="-6.6309340">
        <ele>353.6</ele>
        <time>2019-07-10T06:48:16Z</time>
      </trkpt>
      <trkpt lat="39.7302740" lon="-6.6309230">
        <ele>353.4</ele>
        <time>2019-07-10T06:48:17Z</time>
      </trkpt>
      <trkpt lat="39.7301350" lon="-6.6308590">
        <ele>353.6</ele>
        <time>2019-07-10T06:48:20Z</time>
      </trkpt>
      <trkpt lat="39.7300600" lon="-6.6308080">
        <ele>354.0</ele>
        <time>2019-07-10T06:48:22Z</time>
      </trkpt>
      <trkpt lat="39.7299770" lon="-6.6307320">
        <ele>355.2</ele>
        <time>2019-07-10T06:48:25Z</time>
      </trkpt>
      <trkpt lat="39.7299020" lon="-6.6306720">
        <ele>355.8</ele>
        <time>2019-07-10T06:48:28Z</time>
      </trkpt>
      <trkpt lat="39.7298480" lon="-6.6306460">
        <ele>356.4</ele>
        <time>2019-07-10T06:48:30Z</time>
      </trkpt>
      <trkpt lat="39.7297680" lon="-6.6306190">
        <ele>357.2</ele>
        <time>2019-07-10T06:48:33Z</time>
      </trkpt>
      <trkpt lat="39.7297170" lon="-6.6306160">
        <ele>357.4</ele>
        <time>2019-07-10T06:48:35Z</time>
      </trkpt>
      <trkpt lat="39.7296140" lon="-6.6306500">
        <ele>357.6</ele>
        <time>2019-07-10T06:48:38Z</time>
      </trkpt>
      <trkpt lat="39.7295740" lon="-6.6306780">
        <ele>357.6</ele>
        <time>2019-07-10T06:48:39Z</time>
      </trkpt>
      <trkpt lat="39.7294580" lon="-6.6308020">
        <ele>357.2</ele>
        <time>2019-07-10T06:48:42Z</time>
      </trkpt>
      <trkpt lat="39.7293510" lon="-6.6309190">
        <ele>357.0</ele>
        <time>2019-07-10T06:48:45Z</time>
      </trkpt>
      <trkpt lat="39.7293200" lon="-6.6309600">
        <ele>356.8</ele>
        <time>2019-07-10T06:48:46Z</time>
      </trkpt>
      <trkpt lat="39.7292640" lon="-6.6310570">
        <ele>356.8</ele>
        <time>2019-07-10T06:48:48Z</time>
      </trkpt>
      <trkpt lat="39.7292430" lon="-6.6311090">
        <ele>356.4</ele>
        <time>2019-07-10T06:48:49Z</time>
      </trkpt>
      <trkpt lat="39.7292270" lon="-6.6311620">
        <ele>356.2</ele>
        <time>2019-07-10T06:48:50Z</time>
      </trkpt>
      <trkpt lat="39.7292010" lon="-6.6312990">
        <ele>355.2</ele>
        <time>2019-07-10T06:48:52Z</time>
      </trkpt>
      <trkpt lat="39.7291950" lon="-6.6313810">
        <ele>354.4</ele>
        <time>2019-07-10T06:48:53Z</time>
      </trkpt>
      <trkpt lat="39.7291950" lon="-6.6314690">
        <ele>353.8</ele>
        <time>2019-07-10T06:48:54Z</time>
      </trkpt>
      <trkpt lat="39.7291930" lon="-6.6316540">
        <ele>352.2</ele>
        <time>2019-07-10T06:48:56Z</time>
      </trkpt>
      <trkpt lat="39.7291850" lon="-6.6317370">
        <ele>351.6</ele>
        <time>2019-07-10T06:48:57Z</time>
      </trkpt>
      <trkpt lat="39.7291700" lon="-6.6318090">
        <ele>350.8</ele>
        <time>2019-07-10T06:48:58Z</time>
      </trkpt>
      <trkpt lat="39.7290550" lon="-6.6320230">
        <ele>350.0</ele>
        <time>2019-07-10T06:49:02Z</time>
      </trkpt>
      <trkpt lat="39.7290170" lon="-6.6320700">
        <ele>349.8</ele>
        <time>2019-07-10T06:49:03Z</time>
      </trkpt>
      <trkpt lat="39.7288420" lon="-6.6322170">
        <ele>349.6</ele>
        <time>2019-07-10T06:49:07Z</time>
      </trkpt>
      <trkpt lat="39.7287390" lon="-6.6322970">
        <ele>349.2</ele>
        <time>2019-07-10T06:49:09Z</time>
      </trkpt>
      <trkpt lat="39.7286190" lon="-6.6323810">
        <ele>348.6</ele>
        <time>2019-07-10T06:49:11Z</time>
      </trkpt>
      <trkpt lat="39.7285610" lon="-6.6324330">
        <ele>347.8</ele>
        <time>2019-07-10T06:49:12Z</time>
      </trkpt>
      <trkpt lat="39.7285090" lon="-6.6324960">
        <ele>347.4</ele>
        <time>2019-07-10T06:49:13Z</time>
      </trkpt>
      <trkpt lat="39.7283670" lon="-6.6327250">
        <ele>346.6</ele>
        <time>2019-07-10T06:49:16Z</time>
      </trkpt>
      <trkpt lat="39.7283220" lon="-6.6328110">
        <ele>346.4</ele>
        <time>2019-07-10T06:49:17Z</time>
      </trkpt>
      <trkpt lat="39.7282470" lon="-6.6329850">
        <ele>345.4</ele>
        <time>2019-07-10T06:49:19Z</time>
      </trkpt>
      <trkpt lat="39.7282220" lon="-6.6330670">
        <ele>345.0</ele>
        <time>2019-07-10T06:49:20Z</time>
      </trkpt>
      <trkpt lat="39.7282000" lon="-6.6331460">
        <ele>344.8</ele>
        <time>2019-07-10T06:49:21Z</time>
      </trkpt>
      <trkpt lat="39.7281410" lon="-6.6333890">
        <ele>343.6</ele>
        <time>2019-07-10T06:49:24Z</time>
      </trkpt>
      <trkpt lat="39.7280950" lon="-6.6335460">
        <ele>342.6</ele>
        <time>2019-07-10T06:49:26Z</time>
      </trkpt>
      <trkpt lat="39.7280570" lon="-6.6336160">
        <ele>342.4</ele>
        <time>2019-07-10T06:49:27Z</time>
      </trkpt>
      <trkpt lat="39.7278450" lon="-6.6338510">
        <ele>341.4</ele>
        <time>2019-07-10T06:49:31Z</time>
      </trkpt>
      <trkpt lat="39.7277900" lon="-6.6338910">
        <ele>341.2</ele>
        <time>2019-07-10T06:49:32Z</time>
      </trkpt>
      <trkpt lat="39.7276170" lon="-6.6340110">
        <ele>340.6</ele>
        <time>2019-07-10T06:49:36Z</time>
      </trkpt>
      <trkpt lat="39.7275540" lon="-6.6340620">
        <ele>341.2</ele>
        <time>2019-07-10T06:49:38Z</time>
      </trkpt>
      <trkpt lat="39.7275030" lon="-6.6341170">
        <ele>342.0</ele>
        <time>2019-07-10T06:49:40Z</time>
      </trkpt>
      <trkpt lat="39.7274790" lon="-6.6341420">
        <ele>342.4</ele>
        <time>2019-07-10T06:49:41Z</time>
      </trkpt>
      <trkpt lat="39.7274550" lon="-6.6341650">
        <ele>342.6</ele>
        <time>2019-07-10T06:49:42Z</time>
      </trkpt>
      <trkpt lat="39.7273800" lon="-6.6342320">
        <ele>343.6</ele>
        <time>2019-07-10T06:49:45Z</time>
      </trkpt>
      <trkpt lat="39.7272950" lon="-6.6342950">
        <ele>344.8</ele>
        <time>2019-07-10T06:49:48Z</time>
      </trkpt>
      <trkpt lat="39.7272650" lon="-6.6343160">
        <ele>345.0</ele>
        <time>2019-07-10T06:49:49Z</time>
      </trkpt>
      <trkpt lat="39.7270840" lon="-6.6344070">
        <ele>345.4</ele>
        <time>2019-07-10T06:49:54Z</time>
      </trkpt>
      <trkpt lat="39.7270430" lon="-6.6344210">
        <ele>345.6</ele>
        <time>2019-07-10T06:49:55Z</time>
      </trkpt>
      <trkpt lat="39.7269270" lon="-6.6344840">
        <ele>345.6</ele>
        <time>2019-07-10T06:49:58Z</time>
      </trkpt>
      <trkpt lat="39.7268190" lon="-6.6345760">
        <ele>346.0</ele>
        <time>2019-07-10T06:50:01Z</time>
      </trkpt>
      <trkpt lat="39.7267930" lon="-6.6346160">
        <ele>345.8</ele>
        <time>2019-07-10T06:50:02Z</time>
      </trkpt>
      <trkpt lat="39.7266790" lon="-6.6348830">
        <ele>346.6</ele>
        <time>2019-07-10T06:50:08Z</time>
      </trkpt>
      <trkpt lat="39.7266610" lon="-6.6349260">
        <ele>346.8</ele>
        <time>2019-07-10T06:50:09Z</time>
      </trkpt>
      <trkpt lat="39.7266090" lon="-6.6350510">
        <ele>347.4</ele>
        <time>2019-07-10T06:50:12Z</time>
      </trkpt>
      <trkpt lat="39.7265530" lon="-6.6351700">
        <ele>348.0</ele>
        <time>2019-07-10T06:50:15Z</time>
      </trkpt>
      <trkpt lat="39.7265150" lon="-6.6352460">
        <ele>348.4</ele>
        <time>2019-07-10T06:50:17Z</time>
      </trkpt>
      <trkpt lat="39.7264590" lon="-6.6353410">
        <ele>349.0</ele>
        <time>2019-07-10T06:50:20Z</time>
      </trkpt>
      <trkpt lat="39.7263910" lon="-6.6354560">
        <ele>350.0</ele>
        <time>2019-07-10T06:50:24Z</time>
      </trkpt>
      <trkpt lat="39.7263750" lon="-6.6354850">
        <ele>350.2</ele>
        <time>2019-07-10T06:50:25Z</time>
      </trkpt>
      <trkpt lat="39.7263090" lon="-6.6356390">
        <ele>351.6</ele>
        <time>2019-07-10T06:50:30Z</time>
      </trkpt>
      <trkpt lat="39.7262900" lon="-6.6357020">
        <ele>352.0</ele>
        <time>2019-07-10T06:50:32Z</time>
      </trkpt>
      <trkpt lat="39.7262650" lon="-6.6357870">
        <ele>352.6</ele>
        <time>2019-07-10T06:50:35Z</time>
      </trkpt>
      <trkpt lat="39.7262460" lon="-6.6358420">
        <ele>353.8</ele>
        <time>2019-07-10T06:50:37Z</time>
      </trkpt>
      <trkpt lat="39.7262290" lon="-6.6359020">
        <ele>354.4</ele>
        <time>2019-07-10T06:50:39Z</time>
      </trkpt>
      <trkpt lat="39.7262080" lon="-6.6359670">
        <ele>355.0</ele>
        <time>2019-07-10T06:50:41Z</time>
      </trkpt>
      <trkpt lat="39.7261360" lon="-6.6361340">
        <ele>355.6</ele>
        <time>2019-07-10T06:50:46Z</time>
      </trkpt>
      <trkpt lat="39.7260900" lon="-6.6362260">
        <ele>356.0</ele>
        <time>2019-07-10T06:50:49Z</time>
      </trkpt>
      <trkpt lat="39.7260280" lon="-6.6363690">
        <ele>356.4</ele>
        <time>2019-07-10T06:50:54Z</time>
      </trkpt>
      <trkpt lat="39.7260120" lon="-6.6364290">
        <ele>356.8</ele>
        <time>2019-07-10T06:50:56Z</time>
      </trkpt>
      <trkpt lat="39.7259860" lon="-6.6364840">
        <ele>357.2</ele>
        <time>2019-07-10T06:50:58Z</time>
      </trkpt>
      <trkpt lat="39.7259370" lon="-6.6365570">
        <ele>357.6</ele>
        <time>2019-07-10T06:51:01Z</time>
      </trkpt>
      <trkpt lat="39.7258900" lon="-6.6366320">
        <ele>358.2</ele>
        <time>2019-07-10T06:51:04Z</time>
      </trkpt>
      <trkpt lat="39.7258350" lon="-6.6367050">
        <ele>358.8</ele>
        <time>2019-07-10T06:51:07Z</time>
      </trkpt>
      <trkpt lat="39.7257990" lon="-6.6367570">
        <ele>359.4</ele>
        <time>2019-07-10T06:51:09Z</time>
      </trkpt>
      <trkpt lat="39.7257820" lon="-6.6367850">
        <ele>359.6</ele>
        <time>2019-07-10T06:51:10Z</time>
      </trkpt>
      <trkpt lat="39.7256710" lon="-6.6368960">
        <ele>360.4</ele>
        <time>2019-07-10T06:51:15Z</time>
      </trkpt>
      <trkpt lat="39.7256480" lon="-6.6369160">
        <ele>360.8</ele>
        <time>2019-07-10T06:51:16Z</time>
      </trkpt>
      <trkpt lat="39.7255750" lon="-6.6369770">
        <ele>361.6</ele>
        <time>2019-07-10T06:51:19Z</time>
      </trkpt>
      <trkpt lat="39.7254700" lon="-6.6370640">
        <ele>362.0</ele>
        <time>2019-07-10T06:51:23Z</time>
      </trkpt>
      <trkpt lat="39.7252850" lon="-6.6372110">
        <ele>362.8</ele>
        <time>2019-07-10T06:51:30Z</time>
      </trkpt>
      <trkpt lat="39.7252340" lon="-6.6372640">
        <ele>363.0</ele>
        <time>2019-07-10T06:51:32Z</time>
      </trkpt>
      <trkpt lat="39.7251280" lon="-6.6373490">
        <ele>364.0</ele>
        <time>2019-07-10T06:51:36Z</time>
      </trkpt>
      <trkpt lat="39.7250600" lon="-6.6373750">
        <ele>364.4</ele>
        <time>2019-07-10T06:51:38Z</time>
      </trkpt>
      <trkpt lat="39.7248240" lon="-6.6374390">
        <ele>364.0</ele>
        <time>2019-07-10T06:51:43Z</time>
      </trkpt>
      <trkpt lat="39.7247280" lon="-6.6374690">
        <ele>363.8</ele>
        <time>2019-07-10T06:51:45Z</time>
      </trkpt>
      <trkpt lat="39.7245790" lon="-6.6374940">
        <ele>363.6</ele>
        <time>2019-07-10T06:51:48Z</time>
      </trkpt>
      <trkpt lat="39.7244730" lon="-6.6375020">
        <ele>363.6</ele>
        <time>2019-07-10T06:51:50Z</time>
      </trkpt>
      <trkpt lat="39.7243180" lon="-6.6375500">
        <ele>363.4</ele>
        <time>2019-07-10T06:51:53Z</time>
      </trkpt>
      <trkpt lat="39.7242210" lon="-6.6376010">
        <ele>363.4</ele>
        <time>2019-07-10T06:51:55Z</time>
      </trkpt>
      <trkpt lat="39.7240870" lon="-6.6376700">
        <ele>363.6</ele>
        <time>2019-07-10T06:51:58Z</time>
      </trkpt>
      <trkpt lat="39.7240020" lon="-6.6377000">
        <ele>363.8</ele>
        <time>2019-07-10T06:52:00Z</time>
      </trkpt>
      <trkpt lat="39.7237370" lon="-6.6377170">
        <ele>363.8</ele>
        <time>2019-07-10T06:52:05Z</time>
      </trkpt>
      <trkpt lat="39.7234000" lon="-6.6377300">
        <ele>363.4</ele>
        <time>2019-07-10T06:52:11Z</time>
      </trkpt>
      <trkpt lat="39.7232820" lon="-6.6377190">
        <ele>363.2</ele>
        <time>2019-07-10T06:52:13Z</time>
      </trkpt>
      <trkpt lat="39.7231000" lon="-6.6376780">
        <ele>362.8</ele>
        <time>2019-07-10T06:52:16Z</time>
      </trkpt>
      <trkpt lat="39.7229830" lon="-6.6376420">
        <ele>362.4</ele>
        <time>2019-07-10T06:52:18Z</time>
      </trkpt>
      <trkpt lat="39.7229250" lon="-6.6376340">
        <ele>362.4</ele>
        <time>2019-07-10T06:52:19Z</time>
      </trkpt>
      <trkpt lat="39.7227540" lon="-6.6375870">
        <ele>362.6</ele>
        <time>2019-07-10T06:52:22Z</time>
      </trkpt>
      <trkpt lat="39.7227000" lon="-6.6375630">
        <ele>362.8</ele>
        <time>2019-07-10T06:52:23Z</time>
      </trkpt>
      <trkpt lat="39.7226470" lon="-6.6375410">
        <ele>363.0</ele>
        <time>2019-07-10T06:52:24Z</time>
      </trkpt>
      <trkpt lat="39.7224010" lon="-6.6374460">
        <ele>363.6</ele>
        <time>2019-07-10T06:52:29Z</time>
      </trkpt>
      <trkpt lat="39.7223610" lon="-6.6374230">
        <ele>364.0</ele>
        <time>2019-07-10T06:52:30Z</time>
      </trkpt>
      <trkpt lat="39.7222600" lon="-6.6373470">
        <ele>364.2</ele>
        <time>2019-07-10T06:52:33Z</time>
      </trkpt>
      <trkpt lat="39.7221650" lon="-6.6372770">
        <ele>364.4</ele>
        <time>2019-07-10T06:52:36Z</time>
      </trkpt>
      <trkpt lat="39.7220200" lon="-6.6372320">
        <ele>365.0</ele>
        <time>2019-07-10T06:52:40Z</time>
      </trkpt>
      <trkpt lat="39.7219050" lon="-6.6372240">
        <ele>365.6</ele>
        <time>2019-07-10T06:52:43Z</time>
      </trkpt>
      <trkpt lat="39.7218290" lon="-6.6372190">
        <ele>366.0</ele>
        <time>2019-07-10T06:52:45Z</time>
      </trkpt>
      <trkpt lat="39.7216800" lon="-6.6372090">
        <ele>366.4</ele>
        <time>2019-07-10T06:52:49Z</time>
      </trkpt>
      <trkpt lat="39.7216050" lon="-6.6372100">
        <ele>367.2</ele>
        <time>2019-07-10T06:52:51Z</time>
      </trkpt>
      <trkpt lat="39.7215320" lon="-6.6372250">
        <ele>367.6</ele>
        <time>2019-07-10T06:52:53Z</time>
      </trkpt>
      <trkpt lat="39.7214630" lon="-6.6372610">
        <ele>368.0</ele>
        <time>2019-07-10T06:52:55Z</time>
      </trkpt>
      <trkpt lat="39.7213860" lon="-6.6373380">
        <ele>368.4</ele>
        <time>2019-07-10T06:52:58Z</time>
      </trkpt>
      <trkpt lat="39.7213070" lon="-6.6374380">
        <ele>369.4</ele>
        <time>2019-07-10T06:53:02Z</time>
      </trkpt>
      <trkpt lat="39.7212600" lon="-6.6374860">
        <ele>370.0</ele>
        <time>2019-07-10T06:53:04Z</time>
      </trkpt>
      <trkpt lat="39.7211750" lon="-6.6375400">
        <ele>370.6</ele>
        <time>2019-07-10T06:53:07Z</time>
      </trkpt>
      <trkpt lat="39.7210950" lon="-6.6375960">
        <ele>371.8</ele>
        <time>2019-07-10T06:53:10Z</time>
      </trkpt>
      <trkpt lat="39.7209370" lon="-6.6376630">
        <ele>372.8</ele>
        <time>2019-07-10T06:53:15Z</time>
      </trkpt>
      <trkpt lat="39.7208730" lon="-6.6376760">
        <ele>373.0</ele>
        <time>2019-07-10T06:53:17Z</time>
      </trkpt>
      <trkpt lat="39.7208410" lon="-6.6376770">
        <ele>373.4</ele>
        <time>2019-07-10T06:53:18Z</time>
      </trkpt>
      <trkpt lat="39.7207740" lon="-6.6376660">
        <ele>374.2</ele>
        <time>2019-07-10T06:53:20Z</time>
      </trkpt>
      <trkpt lat="39.7206580" lon="-6.6376140">
        <ele>375.4</ele>
        <time>2019-07-10T06:53:24Z</time>
      </trkpt>
      <trkpt lat="39.7205270" lon="-6.6375060">
        <ele>376.4</ele>
        <time>2019-07-10T06:53:29Z</time>
      </trkpt>
      <trkpt lat="39.7203210" lon="-6.6373380">
        <ele>376.8</ele>
        <time>2019-07-10T06:53:35Z</time>
      </trkpt>
      <trkpt lat="39.7202850" lon="-6.6372960">
        <ele>376.8</ele>
        <time>2019-07-10T06:53:36Z</time>
      </trkpt>
      <trkpt lat="39.7201690" lon="-6.6371900">
        <ele>376.6</ele>
        <time>2019-07-10T06:53:39Z</time>
      </trkpt>
      <trkpt lat="39.7200930" lon="-6.6371140">
        <ele>376.6</ele>
        <time>2019-07-10T06:53:41Z</time>
      </trkpt>
      <trkpt lat="39.7200200" lon="-6.6370300">
        <ele>376.6</ele>
        <time>2019-07-10T06:53:43Z</time>
      </trkpt>
      <trkpt lat="39.7199790" lon="-6.6369950">
        <ele>376.8</ele>
        <time>2019-07-10T06:53:44Z</time>
      </trkpt>
      <trkpt lat="39.7198660" lon="-6.6368880">
        <ele>376.6</ele>
        <time>2019-07-10T06:53:47Z</time>
      </trkpt>
      <trkpt lat="39.7197920" lon="-6.6368090">
        <ele>376.4</ele>
        <time>2019-07-10T06:53:49Z</time>
      </trkpt>
      <trkpt lat="39.7197480" lon="-6.6367760">
        <ele>376.2</ele>
        <time>2019-07-10T06:53:50Z</time>
      </trkpt>
      <trkpt lat="39.7196030" lon="-6.6367310">
        <ele>376.2</ele>
        <time>2019-07-10T06:53:53Z</time>
      </trkpt>
      <trkpt lat="39.7195550" lon="-6.6367400">
        <ele>376.2</ele>
        <time>2019-07-10T06:53:54Z</time>
      </trkpt>
      <trkpt lat="39.7193710" lon="-6.6367320">
        <ele>376.6</ele>
        <time>2019-07-10T06:53:58Z</time>
      </trkpt>
      <trkpt lat="39.7192700" lon="-6.6367170">
        <ele>376.6</ele>
        <time>2019-07-10T06:54:00Z</time>
      </trkpt>
      <trkpt lat="39.7191050" lon="-6.6366450">
        <ele>376.2</ele>
        <time>2019-07-10T06:54:03Z</time>
      </trkpt>
      <trkpt lat="39.7189880" lon="-6.6366070">
        <ele>376.0</ele>
        <time>2019-07-10T06:54:05Z</time>
      </trkpt>
      <trkpt lat="39.7188800" lon="-6.6365720">
        <ele>375.8</ele>
        <time>2019-07-10T06:54:07Z</time>
      </trkpt>
      <trkpt lat="39.7188290" lon="-6.6365490">
        <ele>375.8</ele>
        <time>2019-07-10T06:54:08Z</time>
      </trkpt>
      <trkpt lat="39.7186320" lon="-6.6364930">
        <ele>376.0</ele>
        <time>2019-07-10T06:54:12Z</time>
      </trkpt>
      <trkpt lat="39.7185830" lon="-6.6364920">
        <ele>376.0</ele>
        <time>2019-07-10T06:54:13Z</time>
      </trkpt>
      <trkpt lat="39.7184030" lon="-6.6365750">
        <ele>376.8</ele>
        <time>2019-07-10T06:54:17Z</time>
      </trkpt>
      <trkpt lat="39.7181480" lon="-6.6368020">
        <ele>377.0</ele>
        <time>2019-07-10T06:54:23Z</time>
      </trkpt>
      <trkpt lat="39.7180650" lon="-6.6368850">
        <ele>377.0</ele>
        <time>2019-07-10T06:54:25Z</time>
      </trkpt>
      <trkpt lat="39.7179770" lon="-6.6369440">
        <ele>377.4</ele>
        <time>2019-07-10T06:54:27Z</time>
      </trkpt>
      <trkpt lat="39.7179330" lon="-6.6369650">
        <ele>377.6</ele>
        <time>2019-07-10T06:54:28Z</time>
      </trkpt>
      <trkpt lat="39.7178900" lon="-6.6369820">
        <ele>377.8</ele>
        <time>2019-07-10T06:54:29Z</time>
      </trkpt>
      <trkpt lat="39.7178100" lon="-6.6370120">
        <ele>378.0</ele>
        <time>2019-07-10T06:54:31Z</time>
      </trkpt>
      <trkpt lat="39.7177690" lon="-6.6370190">
        <ele>378.4</ele>
        <time>2019-07-10T06:54:32Z</time>
      </trkpt>
      <trkpt lat="39.7176880" lon="-6.6370300">
        <ele>378.8</ele>
        <time>2019-07-10T06:54:34Z</time>
      </trkpt>
      <trkpt lat="39.7176170" lon="-6.6370590">
        <ele>379.4</ele>
        <time>2019-07-10T06:54:36Z</time>
      </trkpt>
      <trkpt lat="39.7175130" lon="-6.6371040">
        <ele>380.2</ele>
        <time>2019-07-10T06:54:39Z</time>
      </trkpt>
      <trkpt lat="39.7174760" lon="-6.6371150">
        <ele>380.4</ele>
        <time>2019-07-10T06:54:40Z</time>
      </trkpt>
      <trkpt lat="39.7173560" lon="-6.6371490">
        <ele>380.8</ele>
        <time>2019-07-10T06:54:43Z</time>
      </trkpt>
      <trkpt lat="39.7172590" lon="-6.6371530">
        <ele>381.2</ele>
        <time>2019-07-10T06:54:45Z</time>
      </trkpt>
      <trkpt lat="39.7170880" lon="-6.6371630">
        <ele>381.2</ele>
        <time>2019-07-10T06:54:48Z</time>
      </trkpt>
      <trkpt lat="39.7169750" lon="-6.6371570">
        <ele>381.2</ele>
        <time>2019-07-10T06:54:50Z</time>
      </trkpt>
      <trkpt lat="39.7167590" lon="-6.6371530">
        <ele>381.2</ele>
        <time>2019-07-10T06:54:54Z</time>
      </trkpt>
      <trkpt lat="39.7167030" lon="-6.6371490">
        <ele>381.2</ele>
        <time>2019-07-10T06:54:55Z</time>
      </trkpt>
      <trkpt lat="39.7166460" lon="-6.6371370">
        <ele>381.2</ele>
        <time>2019-07-10T06:54:56Z</time>
      </trkpt>
      <trkpt lat="39.7165890" lon="-6.6371300">
        <ele>381.2</ele>
        <time>2019-07-10T06:54:57Z</time>
      </trkpt>
      <trkpt lat="39.7163630" lon="-6.6371420">
        <ele>381.2</ele>
        <time>2019-07-10T06:55:01Z</time>
      </trkpt>
      <trkpt lat="39.7162060" lon="-6.6371600">
        <ele>381.4</ele>
        <time>2019-07-10T06:55:04Z</time>
      </trkpt>
      <trkpt lat="39.7161100" lon="-6.6371290">
        <ele>381.6</ele>
        <time>2019-07-10T06:55:06Z</time>
      </trkpt>
      <trkpt lat="39.7160180" lon="-6.6370620">
        <ele>381.6</ele>
        <time>2019-07-10T06:55:08Z</time>
      </trkpt>
      <trkpt lat="39.7159450" lon="-6.6369600">
        <ele>381.8</ele>
        <time>2019-07-10T06:55:10Z</time>
      </trkpt>
      <trkpt lat="39.7158740" lon="-6.6367870">
        <ele>382.0</ele>
        <time>2019-07-10T06:55:13Z</time>
      </trkpt>
      <trkpt lat="39.7158520" lon="-6.6367310">
        <ele>382.0</ele>
        <time>2019-07-10T06:55:14Z</time>
      </trkpt>
      <trkpt lat="39.7158240" lon="-6.6366810">
        <ele>382.0</ele>
        <time>2019-07-10T06:55:15Z</time>
      </trkpt>
      <trkpt lat="39.7157170" lon="-6.6365720">
        <ele>382.4</ele>
        <time>2019-07-10T06:55:18Z</time>
      </trkpt>
      <trkpt lat="39.7156730" lon="-6.6365550">
        <ele>382.6</ele>
        <time>2019-07-10T06:55:19Z</time>
      </trkpt>
      <trkpt lat="39.7154960" lon="-6.6366050">
        <ele>383.2</ele>
        <time>2019-07-10T06:55:23Z</time>
      </trkpt>
      <trkpt lat="39.7154280" lon="-6.6366700">
        <ele>383.8</ele>
        <time>2019-07-10T06:55:25Z</time>
      </trkpt>
      <trkpt lat="39.7153140" lon="-6.6367660">
        <ele>384.0</ele>
        <time>2019-07-10T06:55:28Z</time>
      </trkpt>
      <trkpt lat="39.7151290" lon="-6.6367980">
        <ele>384.4</ele>
        <time>2019-07-10T06:55:32Z</time>
      </trkpt>
      <trkpt lat="39.7150850" lon="-6.6367900">
        <ele>384.6</ele>
        <time>2019-07-10T06:55:33Z</time>
      </trkpt>
      <trkpt lat="39.7149990" lon="-6.6367660">
        <ele>385.2</ele>
        <time>2019-07-10T06:55:35Z</time>
      </trkpt>
      <trkpt lat="39.7149240" lon="-6.6367450">
        <ele>386.0</ele>
        <time>2019-07-10T06:55:37Z</time>
      </trkpt>
      <trkpt lat="39.7148260" lon="-6.6367040">
        <ele>387.2</ele>
        <time>2019-07-10T06:55:40Z</time>
      </trkpt>
      <trkpt lat="39.7147250" lon="-6.6366370">
        <ele>387.6</ele>
        <time>2019-07-10T06:55:43Z</time>
      </trkpt>
      <trkpt lat="39.7146910" lon="-6.6366020">
        <ele>387.6</ele>
        <time>2019-07-10T06:55:44Z</time>
      </trkpt>
      <trkpt lat="39.7145950" lon="-6.6364750">
        <ele>388.2</ele>
        <time>2019-07-10T06:55:47Z</time>
      </trkpt>
      <trkpt lat="39.7145560" lon="-6.6364380">
        <ele>388.4</ele>
        <time>2019-07-10T06:55:48Z</time>
      </trkpt>
      <trkpt lat="39.7145160" lon="-6.6364030">
        <ele>388.4</ele>
        <time>2019-07-10T06:55:49Z</time>
      </trkpt>
      <trkpt lat="39.7143340" lon="-6.6362150">
        <ele>389.2</ele>
        <time>2019-07-10T06:55:54Z</time>
      </trkpt>
      <trkpt lat="39.7143040" lon="-6.6361720">
        <ele>389.4</ele>
        <time>2019-07-10T06:55:55Z</time>
      </trkpt>
      <trkpt lat="39.7142080" lon="-6.6360050">
        <ele>390.6</ele>
        <time>2019-07-10T06:55:59Z</time>
      </trkpt>
      <trkpt lat="39.7141800" lon="-6.6359140">
        <ele>391.0</ele>
        <time>2019-07-10T06:56:01Z</time>
      </trkpt>
      <trkpt lat="39.7141550" lon="-6.6357550">
        <ele>391.4</ele>
        <time>2019-07-10T06:56:04Z</time>
      </trkpt>
      <trkpt lat="39.7141430" lon="-6.6357020">
        <ele>391.4</ele>
        <time>2019-07-10T06:56:05Z</time>
      </trkpt>
      <trkpt lat="39.7141240" lon="-6.6356520">
        <ele>391.4</ele>
        <time>2019-07-10T06:56:06Z</time>
      </trkpt>
      <trkpt lat="39.7139990" lon="-6.6354890">
        <ele>392.0</ele>
        <time>2019-07-10T06:56:10Z</time>
      </trkpt>
      <trkpt lat="39.7139610" lon="-6.6354570">
        <ele>392.0</ele>
        <time>2019-07-10T06:56:11Z</time>
      </trkpt>
      <trkpt lat="39.7138430" lon="-6.6353660">
        <ele>392.4</ele>
        <time>2019-07-10T06:56:14Z</time>
      </trkpt>
      <trkpt lat="39.7138020" lon="-6.6353430">
        <ele>392.4</ele>
        <time>2019-07-10T06:56:15Z</time>
      </trkpt>
      <trkpt lat="39.7137150" lon="-6.6353040">
        <ele>392.6</ele>
        <time>2019-07-10T06:56:17Z</time>
      </trkpt>
      <trkpt lat="39.7136050" lon="-6.6351900">
        <ele>392.6</ele>
        <time>2019-07-10T06:56:20Z</time>
      </trkpt>
      <trkpt lat="39.7135710" lon="-6.6351410">
        <ele>392.6</ele>
        <time>2019-07-10T06:56:21Z</time>
      </trkpt>
      <trkpt lat="39.7134680" lon="-6.6348990">
        <ele>392.4</ele>
        <time>2019-07-10T06:56:25Z</time>
      </trkpt>
      <trkpt lat="39.7134390" lon="-6.6348380">
        <ele>392.4</ele>
        <time>2019-07-10T06:56:26Z</time>
      </trkpt>
      <trkpt lat="39.7133100" lon="-6.6347000">
        <ele>392.4</ele>
        <time>2019-07-10T06:56:29Z</time>
      </trkpt>
      <trkpt lat="39.7132100" lon="-6.6346350">
        <ele>392.4</ele>
        <time>2019-07-10T06:56:31Z</time>
      </trkpt>
      <trkpt lat="39.7130660" lon="-6.6345410">
        <ele>392.4</ele>
        <time>2019-07-10T06:56:34Z</time>
      </trkpt>
      <trkpt lat="39.7130190" lon="-6.6345160">
        <ele>392.4</ele>
        <time>2019-07-10T06:56:35Z</time>
      </trkpt>
      <trkpt lat="39.7129700" lon="-6.6344980">
        <ele>392.4</ele>
        <time>2019-07-10T06:56:36Z</time>
      </trkpt>
      <trkpt lat="39.7128240" lon="-6.6344630">
        <ele>392.8</ele>
        <time>2019-07-10T06:56:39Z</time>
      </trkpt>
      <trkpt lat="39.7127730" lon="-6.6344610">
        <ele>392.8</ele>
        <time>2019-07-10T06:56:40Z</time>
      </trkpt>
      <trkpt lat="39.7126660" lon="-6.6344580">
        <ele>392.8</ele>
        <time>2019-07-10T06:56:42Z</time>
      </trkpt>
      <trkpt lat="39.7124470" lon="-6.6344290">
        <ele>392.8</ele>
        <time>2019-07-10T06:56:46Z</time>
      </trkpt>
      <trkpt lat="39.7123950" lon="-6.6344230">
        <ele>392.8</ele>
        <time>2019-07-10T06:56:47Z</time>
      </trkpt>
      <trkpt lat="39.7121910" lon="-6.6344190">
        <ele>392.8</ele>
        <time>2019-07-10T06:56:51Z</time>
      </trkpt>
      <trkpt lat="39.7120970" lon="-6.6344550">
        <ele>393.4</ele>
        <time>2019-07-10T06:56:53Z</time>
      </trkpt>
      <trkpt lat="39.7120080" lon="-6.6345190">
        <ele>393.8</ele>
        <time>2019-07-10T06:56:55Z</time>
      </trkpt>
      <trkpt lat="39.7118570" lon="-6.6346720">
        <ele>394.0</ele>
        <time>2019-07-10T06:56:59Z</time>
      </trkpt>
      <trkpt lat="39.7117910" lon="-6.6347570">
        <ele>394.2</ele>
        <time>2019-07-10T06:57:01Z</time>
      </trkpt>
      <trkpt lat="39.7117530" lon="-6.6347890">
        <ele>394.4</ele>
        <time>2019-07-10T06:57:02Z</time>
      </trkpt>
      <trkpt lat="39.7116200" lon="-6.6348800">
        <ele>394.6</ele>
        <time>2019-07-10T06:57:06Z</time>
      </trkpt>
      <trkpt lat="39.7116040" lon="-6.6348860">
        <ele>394.6</ele>
        <time>2019-07-10T06:57:09Z</time>
      </trkpt>
      <trkpt lat="39.7115870" lon="-6.6349040">
        <ele>394.4</ele>
        <time>2019-07-10T06:57:28Z</time>
      </trkpt>
      <trkpt lat="39.7115790" lon="-6.6349210">
        <ele>394.4</ele>
        <time>2019-07-10T06:57:29Z</time>
      </trkpt>
      <trkpt lat="39.7115750" lon="-6.6349440">
        <ele>394.4</ele>
        <time>2019-07-10T06:57:30Z</time>
      </trkpt>
      <trkpt lat="39.7115760" lon="-6.6350060">
        <ele>394.6</ele>
        <time>2019-07-10T06:57:32Z</time>
      </trkpt>
      <trkpt lat="39.7115510" lon="-6.6351140">
        <ele>394.8</ele>
        <time>2019-07-10T06:57:35Z</time>
      </trkpt>
      <trkpt lat="39.7115190" lon="-6.6352340">
        <ele>395.4</ele>
        <time>2019-07-10T06:57:38Z</time>
      </trkpt>
      <trkpt lat="39.7114650" lon="-6.6354100">
        <ele>395.6</ele>
        <time>2019-07-10T06:57:42Z</time>
      </trkpt>
      <trkpt lat="39.7113590" lon="-6.6356260">
        <ele>396.0</ele>
        <time>2019-07-10T06:57:47Z</time>
      </trkpt>
      <trkpt lat="39.7113520" lon="-6.6357400">
        <ele>396.0</ele>
        <time>2019-07-10T06:57:49Z</time>
      </trkpt>
      <trkpt lat="39.7113670" lon="-6.6358670">
        <ele>395.4</ele>
        <time>2019-07-10T06:57:51Z</time>
      </trkpt>
      <trkpt lat="39.7113920" lon="-6.6360470">
        <ele>394.0</ele>
        <time>2019-07-10T06:57:54Z</time>
      </trkpt>
      <trkpt lat="39.7113890" lon="-6.6361610">
        <ele>393.2</ele>
        <time>2019-07-10T06:57:56Z</time>
      </trkpt>
      <trkpt lat="39.7113670" lon="-6.6362130">
        <ele>392.8</ele>
        <time>2019-07-10T06:57:57Z</time>
      </trkpt>
      <trkpt lat="39.7113400" lon="-6.6362670">
        <ele>392.4</ele>
        <time>2019-07-10T06:57:58Z</time>
      </trkpt>
      <trkpt lat="39.7113130" lon="-6.6363210">
        <ele>392.2</ele>
        <time>2019-07-10T06:57:59Z</time>
      </trkpt>
      <trkpt lat="39.7112920" lon="-6.6363720">
        <ele>392.0</ele>
        <time>2019-07-10T06:58:00Z</time>
      </trkpt>
      <trkpt lat="39.7112630" lon="-6.6364660">
        <ele>391.6</ele>
        <time>2019-07-10T06:58:02Z</time>
      </trkpt>
      <trkpt lat="39.7112220" lon="-6.6366090">
        <ele>390.6</ele>
        <time>2019-07-10T06:58:05Z</time>
      </trkpt>
      <trkpt lat="39.7112160" lon="-6.6366370">
        <ele>390.2</ele>
        <time>2019-07-10T06:58:06Z</time>
      </trkpt>
      <trkpt lat="39.7112140" lon="-6.6366550">
        <ele>389.8</ele>
        <time>2019-07-10T06:58:09Z</time>
      </trkpt>
      <trkpt lat="39.7112100" lon="-6.6366890">
        <ele>389.6</ele>
        <time>2019-07-10T06:58:11Z</time>
      </trkpt>
      <trkpt lat="39.7112030" lon="-6.6367660">
        <ele>389.6</ele>
        <time>2019-07-10T06:58:13Z</time>
      </trkpt>
      <trkpt lat="39.7111990" lon="-6.6369360">
        <ele>389.0</ele>
        <time>2019-07-10T06:58:16Z</time>
      </trkpt>
      <trkpt lat="39.7112050" lon="-6.6370630">
        <ele>388.4</ele>
        <time>2019-07-10T06:58:18Z</time>
      </trkpt>
      <trkpt lat="39.7112040" lon="-6.6372000">
        <ele>387.8</ele>
        <time>2019-07-10T06:58:20Z</time>
      </trkpt>
      <trkpt lat="39.7111910" lon="-6.6374520">
        <ele>386.8</ele>
        <time>2019-07-10T06:58:24Z</time>
      </trkpt>
      <trkpt lat="39.7111950" lon="-6.6375070">
        <ele>386.6</ele>
        <time>2019-07-10T06:58:26Z</time>
      </trkpt>
      <trkpt lat="39.7111950" lon="-6.6375120">
        <ele>386.6</ele>
        <time>2019-07-10T06:58:27Z</time>
      </trkpt>
      <trkpt lat="39.7111960" lon="-6.6375100">
        <ele>386.6</ele>
        <time>2019-07-10T06:58:28Z</time>
      </trkpt>
      <trkpt lat="39.7112220" lon="-6.6375700">
        <ele>386.4</ele>
        <time>2019-07-10T07:00:12Z</time>
      </trkpt>
      <trkpt lat="39.7112380" lon="-6.6376150">
        <ele>386.4</ele>
        <time>2019-07-10T07:00:14Z</time>
      </trkpt>
      <trkpt lat="39.7113380" lon="-6.6377950">
        <ele>387.0</ele>
        <time>2019-07-10T07:00:20Z</time>
      </trkpt>
      <trkpt lat="39.7113680" lon="-6.6378600">
        <ele>387.4</ele>
        <time>2019-07-10T07:00:22Z</time>
      </trkpt>
      <trkpt lat="39.7114040" lon="-6.6379450">
        <ele>388.4</ele>
        <time>2019-07-10T07:00:25Z</time>
      </trkpt>
      <trkpt lat="39.7114260" lon="-6.6380080">
        <ele>388.8</ele>
        <time>2019-07-10T07:00:27Z</time>
      </trkpt>
      <trkpt lat="39.7114450" lon="-6.6381150">
        <ele>389.8</ele>
        <time>2019-07-10T07:00:30Z</time>
      </trkpt>
      <trkpt lat="39.7114290" lon="-6.6382200">
        <ele>390.4</ele>
        <time>2019-07-10T07:00:33Z</time>
      </trkpt>
      <trkpt lat="39.7113810" lon="-6.6383040">
        <ele>390.6</ele>
        <time>2019-07-10T07:00:36Z</time>
      </trkpt>
      <trkpt lat="39.7113320" lon="-6.6383530">
        <ele>390.6</ele>
        <time>2019-07-10T07:00:38Z</time>
      </trkpt>
      <trkpt lat="39.7113110" lon="-6.6383780">
        <ele>390.6</ele>
        <time>2019-07-10T07:00:39Z</time>
      </trkpt>
      <trkpt lat="39.7112970" lon="-6.6383970">
        <ele>390.8</ele>
        <time>2019-07-10T07:00:41Z</time>
      </trkpt>
      <trkpt lat="39.7112980" lon="-6.6383960">
        <ele>390.8</ele>
        <time>2019-07-10T07:00:42Z</time>
      </trkpt>
      <trkpt lat="39.7113280" lon="-6.6383380">
        <ele>391.4</ele>
        <time>2019-07-10T07:00:49Z</time>
      </trkpt>
      <trkpt lat="39.7113720" lon="-6.6382960">
        <ele>391.2</ele>
        <time>2019-07-10T07:00:51Z</time>
      </trkpt>
      <trkpt lat="39.7114130" lon="-6.6382400">
        <ele>391.0</ele>
        <time>2019-07-10T07:00:53Z</time>
      </trkpt>
      <trkpt lat="39.7114550" lon="-6.6381280">
        <ele>390.8</ele>
        <time>2019-07-10T07:00:56Z</time>
      </trkpt>
      <trkpt lat="39.7114390" lon="-6.6380330">
        <ele>390.8</ele>
        <time>2019-07-10T07:00:58Z</time>
      </trkpt>
      <trkpt lat="39.7114050" lon="-6.6379260">
        <ele>390.2</ele>
        <time>2019-07-10T07:01:00Z</time>
      </trkpt>
      <trkpt lat="39.7113210" lon="-6.6377400">
        <ele>389.4</ele>
        <time>2019-07-10T07:01:03Z</time>
      </trkpt>
      <trkpt lat="39.7112900" lon="-6.6376780">
        <ele>388.8</ele>
        <time>2019-07-10T07:01:04Z</time>
      </trkpt>
      <trkpt lat="39.7112630" lon="-6.6376210">
        <ele>388.0</ele>
        <time>2019-07-10T07:01:05Z</time>
      </trkpt>
      <trkpt lat="39.7112230" lon="-6.6375160">
        <ele>387.2</ele>
        <time>2019-07-10T07:01:08Z</time>
      </trkpt>
      <trkpt lat="39.7112240" lon="-6.6375010">
        <ele>387.0</ele>
        <time>2019-07-10T07:01:10Z</time>
      </trkpt>
      <trkpt lat="39.7112140" lon="-6.6374440">
        <ele>386.6</ele>
        <time>2019-07-10T07:01:35Z</time>
      </trkpt>
      <trkpt lat="39.7112120" lon="-6.6374190">
        <ele>386.6</ele>
        <time>2019-07-10T07:01:36Z</time>
      </trkpt>
      <trkpt lat="39.7112270" lon="-6.6371490">
        <ele>387.4</ele>
        <time>2019-07-10T07:01:44Z</time>
      </trkpt>
      <trkpt lat="39.7112240" lon="-6.6369020">
        <ele>388.0</ele>
        <time>2019-07-10T07:01:50Z</time>
      </trkpt>
      <trkpt lat="39.7112250" lon="-6.6368170">
        <ele>388.4</ele>
        <time>2019-07-10T07:01:52Z</time>
      </trkpt>
      <trkpt lat="39.7112380" lon="-6.6367100">
        <ele>388.8</ele>
        <time>2019-07-10T07:01:55Z</time>
      </trkpt>
      <trkpt lat="39.7112440" lon="-6.6366770">
        <ele>389.0</ele>
        <time>2019-07-10T07:01:56Z</time>
      </trkpt>
      <trkpt lat="39.7112580" lon="-6.6366130">
        <ele>389.8</ele>
        <time>2019-07-10T07:01:58Z</time>
      </trkpt>
      <trkpt lat="39.7112710" lon="-6.6365520">
        <ele>390.0</ele>
        <time>2019-07-10T07:02:00Z</time>
      </trkpt>
      <trkpt lat="39.7112770" lon="-6.6365230">
        <ele>390.4</ele>
        <time>2019-07-10T07:02:01Z</time>
      </trkpt>
      <trkpt lat="39.7112970" lon="-6.6364310">
        <ele>391.0</ele>
        <time>2019-07-10T07:02:04Z</time>
      </trkpt>
      <trkpt lat="39.7113050" lon="-6.6364000">
        <ele>391.0</ele>
        <time>2019-07-10T07:02:05Z</time>
      </trkpt>
      <trkpt lat="39.7113320" lon="-6.6363120">
        <ele>391.2</ele>
        <time>2019-07-10T07:02:08Z</time>
      </trkpt>
      <trkpt lat="39.7113430" lon="-6.6362830">
        <ele>391.4</ele>
        <time>2019-07-10T07:02:09Z</time>
      </trkpt>
      <trkpt lat="39.7113940" lon="-6.6361620">
        <ele>392.4</ele>
        <time>2019-07-10T07:02:13Z</time>
      </trkpt>
      <trkpt lat="39.7114030" lon="-6.6361280">
        <ele>392.6</ele>
        <time>2019-07-10T07:02:14Z</time>
      </trkpt>
      <trkpt lat="39.7114180" lon="-6.6359810">
        <ele>393.2</ele>
        <time>2019-07-10T07:02:18Z</time>
      </trkpt>
      <trkpt lat="39.7114140" lon="-6.6359490">
        <ele>393.4</ele>
        <time>2019-07-10T07:02:19Z</time>
      </trkpt>
      <trkpt lat="39.7114050" lon="-6.6359200">
        <ele>393.6</ele>
        <time>2019-07-10T07:02:20Z</time>
      </trkpt>
      <trkpt lat="39.7113630" lon="-6.6357610">
        <ele>394.4</ele>
        <time>2019-07-10T07:02:25Z</time>
      </trkpt>
      <trkpt lat="39.7113520" lon="-6.6356950">
        <ele>394.6</ele>
        <time>2019-07-10T07:02:27Z</time>
      </trkpt>
      <trkpt lat="39.7113740" lon="-6.6355610">
        <ele>395.4</ele>
        <time>2019-07-10T07:02:31Z</time>
      </trkpt>
      <trkpt lat="39.7114100" lon="-6.6355030">
        <ele>395.8</ele>
        <time>2019-07-10T07:02:33Z</time>
      </trkpt>
      <trkpt lat="39.7114710" lon="-6.6353970">
        <ele>396.0</ele>
        <time>2019-07-10T07:02:36Z</time>
      </trkpt>
      <trkpt lat="39.7115470" lon="-6.6351760">
        <ele>395.8</ele>
        <time>2019-07-10T07:02:41Z</time>
      </trkpt>
      <trkpt lat="39.7115910" lon="-6.6349820">
        <ele>395.4</ele>
        <time>2019-07-10T07:02:45Z</time>
      </trkpt>
      <trkpt lat="39.7115700" lon="-6.6348730">
        <ele>394.8</ele>
        <time>2019-07-10T07:02:47Z</time>
      </trkpt>
      <trkpt lat="39.7115460" lon="-6.6348240">
        <ele>394.4</ele>
        <time>2019-07-10T07:02:48Z</time>
      </trkpt>
      <trkpt lat="39.7114810" lon="-6.6347380">
        <ele>393.8</ele>
        <time>2019-07-10T07:02:50Z</time>
      </trkpt>
      <trkpt lat="39.7114480" lon="-6.6346930">
        <ele>393.6</ele>
        <time>2019-07-10T07:02:51Z</time>
      </trkpt>
      <trkpt lat="39.7114160" lon="-6.6346410">
        <ele>393.6</ele>
        <time>2019-07-10T07:02:52Z</time>
      </trkpt>
      <trkpt lat="39.7113600" lon="-6.6345150">
        <ele>393.4</ele>
        <time>2019-07-10T07:02:54Z</time>
      </trkpt>
      <trkpt lat="39.7113380" lon="-6.6344430">
        <ele>393.0</ele>
        <time>2019-07-10T07:02:55Z</time>
      </trkpt>
      <trkpt lat="39.7113180" lon="-6.6343670">
        <ele>392.6</ele>
        <time>2019-07-10T07:02:56Z</time>
      </trkpt>
      <trkpt lat="39.7112990" lon="-6.6342890">
        <ele>392.0</ele>
        <time>2019-07-10T07:02:57Z</time>
      </trkpt>
      <trkpt lat="39.7112610" lon="-6.6340660">
        <ele>391.4</ele>
        <time>2019-07-10T07:03:00Z</time>
      </trkpt>
      <trkpt lat="39.7112600" lon="-6.6339930">
        <ele>391.2</ele>
        <time>2019-07-10T07:03:01Z</time>
      </trkpt>
      <trkpt lat="39.7112650" lon="-6.6338480">
        <ele>391.0</ele>
        <time>2019-07-10T07:03:03Z</time>
      </trkpt>
      <trkpt lat="39.7112630" lon="-6.6337030">
        <ele>390.8</ele>
        <time>2019-07-10T07:03:05Z</time>
      </trkpt>
      <trkpt lat="39.7112600" lon="-6.6336320">
        <ele>390.8</ele>
        <time>2019-07-10T07:03:06Z</time>
      </trkpt>
      <trkpt lat="39.7112490" lon="-6.6334320">
        <ele>390.0</ele>
        <time>2019-07-10T07:03:09Z</time>
      </trkpt>
      <trkpt lat="39.7112230" lon="-6.6332380">
        <ele>389.0</ele>
        <time>2019-07-10T07:03:12Z</time>
      </trkpt>
      <trkpt lat="39.7112010" lon="-6.6331140">
        <ele>387.8</ele>
        <time>2019-07-10T07:03:14Z</time>
      </trkpt>
      <trkpt lat="39.7111930" lon="-6.6330450">
        <ele>387.2</ele>
        <time>2019-07-10T07:03:15Z</time>
      </trkpt>
      <trkpt lat="39.7111950" lon="-6.6329110">
        <ele>386.4</ele>
        <time>2019-07-10T07:03:17Z</time>
      </trkpt>
      <trkpt lat="39.7112170" lon="-6.6327710">
        <ele>385.2</ele>
        <time>2019-07-10T07:03:19Z</time>
      </trkpt>
      <trkpt lat="39.7112330" lon="-6.6326120">
        <ele>384.2</ele>
        <time>2019-07-10T07:03:21Z</time>
      </trkpt>
      <trkpt lat="39.7112370" lon="-6.6325270">
        <ele>383.6</ele>
        <time>2019-07-10T07:03:22Z</time>
      </trkpt>
      <trkpt lat="39.7112340" lon="-6.6324400">
        <ele>382.8</ele>
        <time>2019-07-10T07:03:23Z</time>
      </trkpt>
      <trkpt lat="39.7112260" lon="-6.6323540">
        <ele>382.2</ele>
        <time>2019-07-10T07:03:24Z</time>
      </trkpt>
      <trkpt lat="39.7112170" lon="-6.6322720">
        <ele>381.6</ele>
        <time>2019-07-10T07:03:25Z</time>
      </trkpt>
      <trkpt lat="39.7112090" lon="-6.6321970">
        <ele>381.0</ele>
        <time>2019-07-10T07:03:26Z</time>
      </trkpt>
      <trkpt lat="39.7112080" lon="-6.6321250">
        <ele>380.4</ele>
        <time>2019-07-10T07:03:27Z</time>
      </trkpt>
      <trkpt lat="39.7112200" lon="-6.6319780">
        <ele>379.8</ele>
        <time>2019-07-10T07:03:29Z</time>
      </trkpt>
      <trkpt lat="39.7112390" lon="-6.6317560">
        <ele>378.6</ele>
        <time>2019-07-10T07:03:32Z</time>
      </trkpt>
      <trkpt lat="39.7112320" lon="-6.6316810">
        <ele>378.4</ele>
        <time>2019-07-10T07:03:33Z</time>
      </trkpt>
      <trkpt lat="39.7112170" lon="-6.6316070">
        <ele>378.2</ele>
        <time>2019-07-10T07:03:34Z</time>
      </trkpt>
      <trkpt lat="39.7111600" lon="-6.6313890">
        <ele>377.4</ele>
        <time>2019-07-10T07:03:37Z</time>
      </trkpt>
      <trkpt lat="39.7111310" lon="-6.6312750">
        <ele>376.6</ele>
        <time>2019-07-10T07:03:39Z</time>
      </trkpt>
      <trkpt lat="39.7111180" lon="-6.6312270">
        <ele>376.4</ele>
        <time>2019-07-10T07:03:40Z</time>
      </trkpt>
      <trkpt lat="39.7110910" lon="-6.6311360">
        <ele>375.2</ele>
        <time>2019-07-10T07:03:43Z</time>
      </trkpt>
      <trkpt lat="39.7110450" lon="-6.6310320">
        <ele>374.4</ele>
        <time>2019-07-10T07:03:46Z</time>
      </trkpt>
      <trkpt lat="39.7110200" lon="-6.6309890">
        <ele>374.2</ele>
        <time>2019-07-10T07:03:47Z</time>
      </trkpt>
      <trkpt lat="39.7109360" lon="-6.6308390">
        <ele>373.2</ele>
        <time>2019-07-10T07:03:50Z</time>
      </trkpt>
      <trkpt lat="39.7109150" lon="-6.6307760">
        <ele>373.0</ele>
        <time>2019-07-10T07:03:51Z</time>
      </trkpt>
      <trkpt lat="39.7109000" lon="-6.6307090">
        <ele>373.0</ele>
        <time>2019-07-10T07:03:52Z</time>
      </trkpt>
      <trkpt lat="39.7108950" lon="-6.6304400">
        <ele>372.8</ele>
        <time>2019-07-10T07:03:56Z</time>
      </trkpt>
      <trkpt lat="39.7109090" lon="-6.6301470">
        <ele>373.0</ele>
        <time>2019-07-10T07:04:01Z</time>
      </trkpt>
      <trkpt lat="39.7109020" lon="-6.6300930">
        <ele>373.2</ele>
        <time>2019-07-10T07:04:02Z</time>
      </trkpt>
      <trkpt lat="39.7108590" lon="-6.6299290">
        <ele>373.0</ele>
        <time>2019-07-10T07:04:05Z</time>
      </trkpt>
      <trkpt lat="39.7107770" lon="-6.6297660">
        <ele>372.6</ele>
        <time>2019-07-10T07:04:08Z</time>
      </trkpt>
      <trkpt lat="39.7106940" lon="-6.6296660">
        <ele>372.0</ele>
        <time>2019-07-10T07:04:10Z</time>
      </trkpt>
      <trkpt lat="39.7106490" lon="-6.6296180">
        <ele>371.8</ele>
        <time>2019-07-10T07:04:11Z</time>
      </trkpt>
      <trkpt lat="39.7106080" lon="-6.6295630">
        <ele>371.4</ele>
        <time>2019-07-10T07:04:12Z</time>
      </trkpt>
      <trkpt lat="39.7105750" lon="-6.6295010">
        <ele>371.2</ele>
        <time>2019-07-10T07:04:13Z</time>
      </trkpt>
      <trkpt lat="39.7105210" lon="-6.6293680">
        <ele>370.8</ele>
        <time>2019-07-10T07:04:15Z</time>
      </trkpt>
      <trkpt lat="39.7104970" lon="-6.6292990">
        <ele>370.8</ele>
        <time>2019-07-10T07:04:16Z</time>
      </trkpt>
      <trkpt lat="39.7104470" lon="-6.6291690">
        <ele>370.6</ele>
        <time>2019-07-10T07:04:18Z</time>
      </trkpt>
      <trkpt lat="39.7103760" lon="-6.6290620">
        <ele>370.4</ele>
        <time>2019-07-10T07:04:20Z</time>
      </trkpt>
      <trkpt lat="39.7103070" lon="-6.6289570">
        <ele>370.2</ele>
        <time>2019-07-10T07:04:22Z</time>
      </trkpt>
      <trkpt lat="39.7102770" lon="-6.6289050">
        <ele>370.2</ele>
        <time>2019-07-10T07:04:23Z</time>
      </trkpt>
      <trkpt lat="39.7101960" lon="-6.6287580">
        <ele>370.4</ele>
        <time>2019-07-10T07:04:26Z</time>
      </trkpt>
      <trkpt lat="39.7101200" lon="-6.6286540">
        <ele>370.8</ele>
        <time>2019-07-10T07:04:29Z</time>
      </trkpt>
      <trkpt lat="39.7101020" lon="-6.6286290">
        <ele>370.6</ele>
        <time>2019-07-10T07:04:32Z</time>
      </trkpt>
      <trkpt lat="39.7100780" lon="-6.6286010">
        <ele>370.4</ele>
        <time>2019-07-10T07:04:41Z</time>
      </trkpt>
      <trkpt lat="39.7100360" lon="-6.6285500">
        <ele>370.4</ele>
        <time>2019-07-10T07:04:43Z</time>
      </trkpt>
      <trkpt lat="39.7100080" lon="-6.6285150">
        <ele>370.4</ele>
        <time>2019-07-10T07:04:44Z</time>
      </trkpt>
      <trkpt lat="39.7099020" lon="-6.6283920">
        <ele>369.8</ele>
        <time>2019-07-10T07:04:47Z</time>
      </trkpt>
      <trkpt lat="39.7098610" lon="-6.6283450">
        <ele>369.6</ele>
        <time>2019-07-10T07:04:48Z</time>
      </trkpt>
      <trkpt lat="39.7097700" lon="-6.6282370">
        <ele>368.4</ele>
        <time>2019-07-10T07:04:50Z</time>
      </trkpt>
      <trkpt lat="39.7096520" lon="-6.6280590">
        <ele>367.2</ele>
        <time>2019-07-10T07:04:53Z</time>
      </trkpt>
      <trkpt lat="39.7095180" lon="-6.6278940">
        <ele>366.0</ele>
        <time>2019-07-10T07:04:56Z</time>
      </trkpt>
      <trkpt lat="39.7094290" lon="-6.6277920">
        <ele>365.2</ele>
        <time>2019-07-10T07:04:58Z</time>
      </trkpt>
      <trkpt lat="39.7093840" lon="-6.6277390">
        <ele>364.8</ele>
        <time>2019-07-10T07:04:59Z</time>
      </trkpt>
      <trkpt lat="39.7092440" lon="-6.6275640">
        <ele>363.8</ele>
        <time>2019-07-10T07:05:02Z</time>
      </trkpt>
      <trkpt lat="39.7091470" lon="-6.6274380">
        <ele>363.0</ele>
        <time>2019-07-10T07:05:04Z</time>
      </trkpt>
      <trkpt lat="39.7090950" lon="-6.6273760">
        <ele>362.6</ele>
        <time>2019-07-10T07:05:05Z</time>
      </trkpt>
      <trkpt lat="39.7089020" lon="-6.6270940">
        <ele>361.4</ele>
        <time>2019-07-10T07:05:09Z</time>
      </trkpt>
      <trkpt lat="39.7088580" lon="-6.6270170">
        <ele>361.0</ele>
        <time>2019-07-10T07:05:10Z</time>
      </trkpt>
      <trkpt lat="39.7087720" lon="-6.6268660">
        <ele>360.4</ele>
        <time>2019-07-10T07:05:12Z</time>
      </trkpt>
      <trkpt lat="39.7086930" lon="-6.6267120">
        <ele>359.0</ele>
        <time>2019-07-10T07:05:14Z</time>
      </trkpt>
      <trkpt lat="39.7085830" lon="-6.6264810">
        <ele>358.2</ele>
        <time>2019-07-10T07:05:17Z</time>
      </trkpt>
      <trkpt lat="39.7084390" lon="-6.6262840">
        <ele>357.8</ele>
        <time>2019-07-10T07:05:20Z</time>
      </trkpt>
      <trkpt lat="39.7083410" lon="-6.6261610">
        <ele>357.2</ele>
        <time>2019-07-10T07:05:22Z</time>
      </trkpt>
      <trkpt lat="39.7082510" lon="-6.6260400">
        <ele>356.8</ele>
        <time>2019-07-10T07:05:24Z</time>
      </trkpt>
      <trkpt lat="39.7082120" lon="-6.6259790">
        <ele>356.6</ele>
        <time>2019-07-10T07:05:25Z</time>
      </trkpt>
      <trkpt lat="39.7081370" lon="-6.6258530">
        <ele>356.4</ele>
        <time>2019-07-10T07:05:27Z</time>
      </trkpt>
      <trkpt lat="39.7080990" lon="-6.6257940">
        <ele>356.4</ele>
        <time>2019-07-10T07:05:28Z</time>
      </trkpt>
      <trkpt lat="39.7080310" lon="-6.6256740">
        <ele>356.2</ele>
        <time>2019-07-10T07:05:30Z</time>
      </trkpt>
      <trkpt lat="39.7079580" lon="-6.6254750">
        <ele>355.6</ele>
        <time>2019-07-10T07:05:33Z</time>
      </trkpt>
      <trkpt lat="39.7078740" lon="-6.6252660">
        <ele>355.0</ele>
        <time>2019-07-10T07:05:36Z</time>
      </trkpt>
      <trkpt lat="39.7077700" lon="-6.6251450">
        <ele>354.2</ele>
        <time>2019-07-10T07:05:38Z</time>
      </trkpt>
      <trkpt lat="39.7076010" lon="-6.6249300">
        <ele>352.8</ele>
        <time>2019-07-10T07:05:41Z</time>
      </trkpt>
      <trkpt lat="39.7075620" lon="-6.6248460">
        <ele>352.6</ele>
        <time>2019-07-10T07:05:42Z</time>
      </trkpt>
      <trkpt lat="39.7074860" lon="-6.6245870">
        <ele>352.2</ele>
        <time>2019-07-10T07:05:45Z</time>
      </trkpt>
      <trkpt lat="39.7074380" lon="-6.6244290">
        <ele>352.0</ele>
        <time>2019-07-10T07:05:47Z</time>
      </trkpt>
      <trkpt lat="39.7073480" lon="-6.6242280">
        <ele>351.8</ele>
        <time>2019-07-10T07:05:50Z</time>
      </trkpt>
      <trkpt lat="39.7072890" lon="-6.6240970">
        <ele>351.8</ele>
        <time>2019-07-10T07:05:52Z</time>
      </trkpt>
      <trkpt lat="39.7072230" lon="-6.6239700">
        <ele>351.6</ele>
        <time>2019-07-10T07:05:54Z</time>
      </trkpt>
      <trkpt lat="39.7070710" lon="-6.6237220">
        <ele>351.4</ele>
        <time>2019-07-10T07:05:58Z</time>
      </trkpt>
      <trkpt lat="39.7070100" lon="-6.6235900">
        <ele>351.0</ele>
        <time>2019-07-10T07:06:00Z</time>
      </trkpt>
      <trkpt lat="39.7069830" lon="-6.6235250">
        <ele>350.8</ele>
        <time>2019-07-10T07:06:01Z</time>
      </trkpt>
      <trkpt lat="39.7069610" lon="-6.6234560">
        <ele>350.8</ele>
        <time>2019-07-10T07:06:02Z</time>
      </trkpt>
      <trkpt lat="39.7069290" lon="-6.6233190">
        <ele>350.8</ele>
        <time>2019-07-10T07:06:04Z</time>
      </trkpt>
      <trkpt lat="39.7069050" lon="-6.6232010">
        <ele>351.0</ele>
        <time>2019-07-10T07:06:06Z</time>
      </trkpt>
      <trkpt lat="39.7068650" lon="-6.6230440">
        <ele>351.2</ele>
        <time>2019-07-10T07:06:09Z</time>
      </trkpt>
      <trkpt lat="39.7067770" lon="-6.6228110">
        <ele>350.6</ele>
        <time>2019-07-10T07:06:13Z</time>
      </trkpt>
      <trkpt lat="39.7067420" lon="-6.6227540">
        <ele>350.6</ele>
        <time>2019-07-10T07:06:14Z</time>
      </trkpt>
      <trkpt lat="39.7066430" lon="-6.6226520">
        <ele>349.6</ele>
        <time>2019-07-10T07:06:16Z</time>
      </trkpt>
      <trkpt lat="39.7065820" lon="-6.6226120">
        <ele>349.0</ele>
        <time>2019-07-10T07:06:17Z</time>
      </trkpt>
      <trkpt lat="39.7065180" lon="-6.6225850">
        <ele>348.2</ele>
        <time>2019-07-10T07:06:18Z</time>
      </trkpt>
      <trkpt lat="39.7064580" lon="-6.6225690">
        <ele>347.8</ele>
        <time>2019-07-10T07:06:19Z</time>
      </trkpt>
      <trkpt lat="39.7063500" lon="-6.6225420">
        <ele>347.2</ele>
        <time>2019-07-10T07:06:21Z</time>
      </trkpt>
      <trkpt lat="39.7062980" lon="-6.6225190">
        <ele>347.0</ele>
        <time>2019-07-10T07:06:22Z</time>
      </trkpt>
      <trkpt lat="39.7061460" lon="-6.6223890">
        <ele>346.6</ele>
        <time>2019-07-10T07:06:25Z</time>
      </trkpt>
      <trkpt lat="39.7060940" lon="-6.6223410">
        <ele>346.0</ele>
        <time>2019-07-10T07:06:26Z</time>
      </trkpt>
      <trkpt lat="39.7060450" lon="-6.6222910">
        <ele>345.6</ele>
        <time>2019-07-10T07:06:27Z</time>
      </trkpt>
      <trkpt lat="39.7059170" lon="-6.6221270">
        <ele>345.0</ele>
        <time>2019-07-10T07:06:30Z</time>
      </trkpt>
      <trkpt lat="39.7058820" lon="-6.6220700">
        <ele>345.0</ele>
        <time>2019-07-10T07:06:31Z</time>
      </trkpt>
      <trkpt lat="39.7058150" lon="-6.6219680">
        <ele>344.8</ele>
        <time>2019-07-10T07:06:33Z</time>
      </trkpt>
      <trkpt lat="39.7057460" lon="-6.6218560">
        <ele>344.8</ele>
        <time>2019-07-10T07:06:35Z</time>
      </trkpt>
      <trkpt lat="39.7056880" lon="-6.6217210">
        <ele>344.6</ele>
        <time>2019-07-10T07:06:37Z</time>
      </trkpt>
      <trkpt lat="39.7055990" lon="-6.6215040">
        <ele>343.8</ele>
        <time>2019-07-10T07:06:40Z</time>
      </trkpt>
      <trkpt lat="39.7055650" lon="-6.6214360">
        <ele>343.4</ele>
        <time>2019-07-10T07:06:41Z</time>
      </trkpt>
      <trkpt lat="39.7055010" lon="-6.6213170">
        <ele>343.0</ele>
        <time>2019-07-10T07:06:43Z</time>
      </trkpt>
      <trkpt lat="39.7054720" lon="-6.6212610">
        <ele>342.8</ele>
        <time>2019-07-10T07:06:44Z</time>
      </trkpt>
      <trkpt lat="39.7054180" lon="-6.6211510">
        <ele>341.8</ele>
        <time>2019-07-10T07:06:46Z</time>
      </trkpt>
      <trkpt lat="39.7053570" lon="-6.6210390">
        <ele>341.2</ele>
        <time>2019-07-10T07:06:48Z</time>
      </trkpt>
      <trkpt lat="39.7053170" lon="-6.6209850">
        <ele>341.0</ele>
        <time>2019-07-10T07:06:49Z</time>
      </trkpt>
      <trkpt lat="39.7052690" lon="-6.6209350">
        <ele>340.4</ele>
        <time>2019-07-10T07:06:50Z</time>
      </trkpt>
      <trkpt lat="39.7051500" lon="-6.6208420">
        <ele>339.2</ele>
        <time>2019-07-10T07:06:52Z</time>
      </trkpt>
      <trkpt lat="39.7050850" lon="-6.6207980">
        <ele>338.0</ele>
        <time>2019-07-10T07:06:53Z</time>
      </trkpt>
      <trkpt lat="39.7050220" lon="-6.6207520">
        <ele>336.8</ele>
        <time>2019-07-10T07:06:54Z</time>
      </trkpt>
      <trkpt lat="39.7049100" lon="-6.6206290">
        <ele>335.6</ele>
        <time>2019-07-10T07:06:56Z</time>
      </trkpt>
      <trkpt lat="39.7048620" lon="-6.6205570">
        <ele>335.0</ele>
        <time>2019-07-10T07:06:57Z</time>
      </trkpt>
      <trkpt lat="39.7048180" lon="-6.6204840">
        <ele>334.8</ele>
        <time>2019-07-10T07:06:58Z</time>
      </trkpt>
      <trkpt lat="39.7046880" lon="-6.6202890">
        <ele>334.4</ele>
        <time>2019-07-10T07:07:01Z</time>
      </trkpt>
      <trkpt lat="39.7046360" lon="-6.6202320">
        <ele>334.2</ele>
        <time>2019-07-10T07:07:02Z</time>
      </trkpt>
      <trkpt lat="39.7043840" lon="-6.6200790">
        <ele>333.0</ele>
        <time>2019-07-10T07:07:06Z</time>
      </trkpt>
      <trkpt lat="39.7042670" lon="-6.6200210">
        <ele>332.8</ele>
        <time>2019-07-10T07:07:08Z</time>
      </trkpt>
      <trkpt lat="39.7041750" lon="-6.6199240">
        <ele>332.4</ele>
        <time>2019-07-10T07:07:10Z</time>
      </trkpt>
      <trkpt lat="39.7040580" lon="-6.6197360">
        <ele>331.8</ele>
        <time>2019-07-10T07:07:13Z</time>
      </trkpt>
      <trkpt lat="39.7039570" lon="-6.6195220">
        <ele>331.0</ele>
        <time>2019-07-10T07:07:16Z</time>
      </trkpt>
      <trkpt lat="39.7039240" lon="-6.6194440">
        <ele>330.8</ele>
        <time>2019-07-10T07:07:17Z</time>
      </trkpt>
      <trkpt lat="39.7037420" lon="-6.6190930">
        <ele>329.6</ele>
        <time>2019-07-10T07:07:22Z</time>
      </trkpt>
      <trkpt lat="39.7035040" lon="-6.6186600">
        <ele>329.2</ele>
        <time>2019-07-10T07:07:29Z</time>
      </trkpt>
      <trkpt lat="39.7034370" lon="-6.6185550">
        <ele>329.2</ele>
        <time>2019-07-10T07:07:31Z</time>
      </trkpt>
      <trkpt lat="39.7033290" lon="-6.6183650">
        <ele>329.6</ele>
        <time>2019-07-10T07:07:35Z</time>
      </trkpt>
      <trkpt lat="39.7032550" lon="-6.6181400">
        <ele>329.4</ele>
        <time>2019-07-10T07:07:40Z</time>
      </trkpt>
      <trkpt lat="39.7032470" lon="-6.6180910">
        <ele>329.2</ele>
        <time>2019-07-10T07:07:41Z</time>
      </trkpt>
      <trkpt lat="39.7032420" lon="-6.6179220">
        <ele>328.4</ele>
        <time>2019-07-10T07:07:44Z</time>
      </trkpt>
      <trkpt lat="39.7032440" lon="-6.6178620">
        <ele>328.0</ele>
        <time>2019-07-10T07:07:45Z</time>
      </trkpt>
      <trkpt lat="39.7032410" lon="-6.6178030">
        <ele>327.8</ele>
        <time>2019-07-10T07:07:46Z</time>
      </trkpt>
      <trkpt lat="39.7032120" lon="-6.6175550">
        <ele>327.4</ele>
        <time>2019-07-10T07:07:50Z</time>
      </trkpt>
      <trkpt lat="39.7032010" lon="-6.6174910">
        <ele>327.2</ele>
        <time>2019-07-10T07:07:51Z</time>
      </trkpt>
      <trkpt lat="39.7031690" lon="-6.6173520">
        <ele>326.2</ele>
        <time>2019-07-10T07:07:53Z</time>
      </trkpt>
      <trkpt lat="39.7031080" lon="-6.6172130">
        <ele>325.6</ele>
        <time>2019-07-10T07:07:55Z</time>
      </trkpt>
      <trkpt lat="39.7030720" lon="-6.6171450">
        <ele>325.4</ele>
        <time>2019-07-10T07:07:56Z</time>
      </trkpt>
      <trkpt lat="39.7030310" lon="-6.6170780">
        <ele>325.0</ele>
        <time>2019-07-10T07:07:57Z</time>
      </trkpt>
      <trkpt lat="39.7028700" lon="-6.6168110">
        <ele>323.8</ele>
        <time>2019-07-10T07:08:01Z</time>
      </trkpt>
      <trkpt lat="39.7028360" lon="-6.6167410">
        <ele>323.6</ele>
        <time>2019-07-10T07:08:02Z</time>
      </trkpt>
      <trkpt lat="39.7027710" lon="-6.6165210">
        <ele>323.0</ele>
        <time>2019-07-10T07:08:05Z</time>
      </trkpt>
      <trkpt lat="39.7027710" lon="-6.6164470">
        <ele>322.8</ele>
        <time>2019-07-10T07:08:06Z</time>
      </trkpt>
      <trkpt lat="39.7027780" lon="-6.6163750">
        <ele>322.6</ele>
        <time>2019-07-10T07:08:07Z</time>
      </trkpt>
      <trkpt lat="39.7027810" lon="-6.6163030">
        <ele>322.4</ele>
        <time>2019-07-10T07:08:08Z</time>
      </trkpt>
      <trkpt lat="39.7027770" lon="-6.6162310">
        <ele>322.4</ele>
        <time>2019-07-10T07:08:09Z</time>
      </trkpt>
      <trkpt lat="39.7027360" lon="-6.6160140">
        <ele>322.0</ele>
        <time>2019-07-10T07:08:12Z</time>
      </trkpt>
      <trkpt lat="39.7027190" lon="-6.6159410">
        <ele>321.8</ele>
        <time>2019-07-10T07:08:13Z</time>
      </trkpt>
      <trkpt lat="39.7027040" lon="-6.6158670">
        <ele>321.4</ele>
        <time>2019-07-10T07:08:14Z</time>
      </trkpt>
      <trkpt lat="39.7026880" lon="-6.6157220">
        <ele>322.0</ele>
        <time>2019-07-10T07:08:16Z</time>
      </trkpt>
      <trkpt lat="39.7026620" lon="-6.6153660">
        <ele>321.4</ele>
        <time>2019-07-10T07:08:21Z</time>
      </trkpt>
      <trkpt lat="39.7026550" lon="-6.6151680">
        <ele>320.8</ele>
        <time>2019-07-10T07:08:24Z</time>
      </trkpt>
      <trkpt lat="39.7026470" lon="-6.6151010">
        <ele>320.2</ele>
        <time>2019-07-10T07:08:25Z</time>
      </trkpt>
      <trkpt lat="39.7026270" lon="-6.6149720">
        <ele>319.4</ele>
        <time>2019-07-10T07:08:27Z</time>
      </trkpt>
      <trkpt lat="39.7025870" lon="-6.6148350">
        <ele>318.8</ele>
        <time>2019-07-10T07:08:30Z</time>
      </trkpt>
      <trkpt lat="39.7025620" lon="-6.6148070">
        <ele>318.2</ele>
        <time>2019-07-10T07:08:31Z</time>
      </trkpt>
      <trkpt lat="39.7024980" lon="-6.6147500">
        <ele>318.2</ele>
        <time>2019-07-10T07:08:33Z</time>
      </trkpt>
      <trkpt lat="39.7024230" lon="-6.6146940">
        <ele>318.2</ele>
        <time>2019-07-10T07:08:35Z</time>
      </trkpt>
      <trkpt lat="39.7023440" lon="-6.6146340">
        <ele>318.2</ele>
        <time>2019-07-10T07:08:37Z</time>
      </trkpt>
      <trkpt lat="39.7022320" lon="-6.6144480">
        <ele>317.6</ele>
        <time>2019-07-10T07:08:41Z</time>
      </trkpt>
      <trkpt lat="39.7021660" lon="-6.6143020">
        <ele>317.8</ele>
        <time>2019-07-10T07:08:44Z</time>
      </trkpt>
      <trkpt lat="39.7021110" lon="-6.6142360">
        <ele>318.4</ele>
        <time>2019-07-10T07:08:46Z</time>
      </trkpt>
      <trkpt lat="39.7020610" lon="-6.6142270">
        <ele>318.8</ele>
        <time>2019-07-10T07:08:48Z</time>
      </trkpt>
      <trkpt lat="39.7020290" lon="-6.6142450">
        <ele>319.0</ele>
        <time>2019-07-10T07:08:50Z</time>
      </trkpt>
      <trkpt lat="39.7020190" lon="-6.6142610">
        <ele>319.0</ele>
        <time>2019-07-10T07:08:51Z</time>
      </trkpt>
      <trkpt lat="39.7020150" lon="-6.6143670">
        <ele>319.4</ele>
        <time>2019-07-10T07:08:55Z</time>
      </trkpt>
      <trkpt lat="39.7019690" lon="-6.6145530">
        <ele>319.0</ele>
        <time>2019-07-10T07:08:59Z</time>
      </trkpt>
      <trkpt lat="39.7019510" lon="-6.6146030">
        <ele>319.0</ele>
        <time>2019-07-10T07:09:00Z</time>
      </trkpt>
      <trkpt lat="39.7019060" lon="-6.6147040">
        <ele>318.8</ele>
        <time>2019-07-10T07:09:02Z</time>
      </trkpt>
      <trkpt lat="39.7018270" lon="-6.6148680">
        <ele>318.8</ele>
        <time>2019-07-10T07:09:05Z</time>
      </trkpt>
      <trkpt lat="39.7015940" lon="-6.6153640">
        <ele>319.0</ele>
        <time>2019-07-10T07:09:14Z</time>
      </trkpt>
      <trkpt lat="39.7015500" lon="-6.6154750">
        <ele>319.4</ele>
        <time>2019-07-10T07:09:16Z</time>
      </trkpt>
      <trkpt lat="39.7014360" lon="-6.6157190">
        <ele>320.2</ele>
        <time>2019-07-10T07:09:21Z</time>
      </trkpt>
      <trkpt lat="39.7013930" lon="-6.6158140">
        <ele>320.8</ele>
        <time>2019-07-10T07:09:23Z</time>
      </trkpt>
      <trkpt lat="39.7013050" lon="-6.6159980">
        <ele>321.6</ele>
        <time>2019-07-10T07:09:27Z</time>
      </trkpt>
      <trkpt lat="39.7012850" lon="-6.6160450">
        <ele>321.6</ele>
        <time>2019-07-10T07:09:28Z</time>
      </trkpt>
      <trkpt lat="39.7012630" lon="-6.6160900">
        <ele>322.0</ele>
        <time>2019-07-10T07:09:29Z</time>
      </trkpt>
      <trkpt lat="39.7011890" lon="-6.6162060">
        <ele>322.8</ele>
        <time>2019-07-10T07:09:32Z</time>
      </trkpt>
      <trkpt lat="39.7011640" lon="-6.6162390">
        <ele>322.8</ele>
        <time>2019-07-10T07:09:33Z</time>
      </trkpt>
      <trkpt lat="39.7011370" lon="-6.6162700">
        <ele>323.2</ele>
        <time>2019-07-10T07:09:34Z</time>
      </trkpt>
      <trkpt lat="39.7010570" lon="-6.6164150">
        <ele>323.6</ele>
        <time>2019-07-10T07:09:38Z</time>
      </trkpt>
      <trkpt lat="39.7009810" lon="-6.6165990">
        <ele>324.0</ele>
        <time>2019-07-10T07:09:42Z</time>
      </trkpt>
      <trkpt lat="39.7009230" lon="-6.6167400">
        <ele>324.6</ele>
        <time>2019-07-10T07:09:45Z</time>
      </trkpt>
      <trkpt lat="39.7008650" lon="-6.6168900">
        <ele>324.8</ele>
        <time>2019-07-10T07:09:48Z</time>
      </trkpt>
      <trkpt lat="39.7007770" lon="-6.6170840">
        <ele>325.2</ele>
        <time>2019-07-10T07:09:52Z</time>
      </trkpt>
      <trkpt lat="39.7006250" lon="-6.6174300">
        <ele>325.8</ele>
        <time>2019-07-10T07:09:59Z</time>
      </trkpt>
      <trkpt lat="39.7006000" lon="-6.6174790">
        <ele>326.0</ele>
        <time>2019-07-10T07:10:00Z</time>
      </trkpt>
      <trkpt lat="39.7005770" lon="-6.6175300">
        <ele>326.2</ele>
        <time>2019-07-10T07:10:01Z</time>
      </trkpt>
      <trkpt lat="39.7004000" lon="-6.6178860">
        <ele>326.6</ele>
        <time>2019-07-10T07:10:08Z</time>
      </trkpt>
      <trkpt lat="39.7002270" lon="-6.6181780">
        <ele>327.2</ele>
        <time>2019-07-10T07:10:14Z</time>
      </trkpt>
      <trkpt lat="39.7001640" lon="-6.6182790">
        <ele>327.4</ele>
        <time>2019-07-10T07:10:16Z</time>
      </trkpt>
      <trkpt lat="39.6999300" lon="-6.6186450">
        <ele>328.0</ele>
        <time>2019-07-10T07:10:23Z</time>
      </trkpt>
      <trkpt lat="39.6998660" lon="-6.6187540">
        <ele>328.4</ele>
        <time>2019-07-10T07:10:25Z</time>
      </trkpt>
      <trkpt lat="39.6996310" lon="-6.6191250">
        <ele>329.4</ele>
        <time>2019-07-10T07:10:32Z</time>
      </trkpt>
      <trkpt lat="39.6995660" lon="-6.6192280">
        <ele>329.6</ele>
        <time>2019-07-10T07:10:34Z</time>
      </trkpt>
      <trkpt lat="39.6993460" lon="-6.6195830">
        <ele>330.6</ele>
        <time>2019-07-10T07:10:41Z</time>
      </trkpt>
      <trkpt lat="39.6992280" lon="-6.6197750">
        <ele>331.4</ele>
        <time>2019-07-10T07:10:45Z</time>
      </trkpt>
      <trkpt lat="39.6992000" lon="-6.6198230">
        <ele>331.6</ele>
        <time>2019-07-10T07:10:46Z</time>
      </trkpt>
      <trkpt lat="39.6990860" lon="-6.6200150">
        <ele>332.8</ele>
        <time>2019-07-10T07:10:50Z</time>
      </trkpt>
      <trkpt lat="39.6990290" lon="-6.6201100">
        <ele>333.2</ele>
        <time>2019-07-10T07:10:52Z</time>
      </trkpt>
      <trkpt lat="39.6989660" lon="-6.6202020">
        <ele>333.4</ele>
        <time>2019-07-10T07:10:54Z</time>
      </trkpt>
      <trkpt lat="39.6988940" lon="-6.6203500">
        <ele>334.0</ele>
        <time>2019-07-10T07:10:57Z</time>
      </trkpt>
      <trkpt lat="39.6988310" lon="-6.6205010">
        <ele>334.6</ele>
        <time>2019-07-10T07:11:00Z</time>
      </trkpt>
      <trkpt lat="39.6987710" lon="-6.6206560">
        <ele>335.2</ele>
        <time>2019-07-10T07:11:03Z</time>
      </trkpt>
      <trkpt lat="39.6986720" lon="-6.6209640">
        <ele>336.2</ele>
        <time>2019-07-10T07:11:09Z</time>
      </trkpt>
      <trkpt lat="39.6985870" lon="-6.6213340">
        <ele>337.2</ele>
        <time>2019-07-10T07:11:16Z</time>
      </trkpt>
      <trkpt lat="39.6985760" lon="-6.6213860">
        <ele>337.4</ele>
        <time>2019-07-10T07:11:17Z</time>
      </trkpt>
      <trkpt lat="39.6984970" lon="-6.6217360">
        <ele>338.4</ele>
        <time>2019-07-10T07:11:24Z</time>
      </trkpt>
      <trkpt lat="39.6984490" lon="-6.6219880">
        <ele>339.4</ele>
        <time>2019-07-10T07:11:29Z</time>
      </trkpt>
      <trkpt lat="39.6984260" lon="-6.6220910">
        <ele>339.8</ele>
        <time>2019-07-10T07:11:31Z</time>
      </trkpt>
      <trkpt lat="39.6984130" lon="-6.6221420">
        <ele>340.0</ele>
        <time>2019-07-10T07:11:32Z</time>
      </trkpt>
      <trkpt lat="39.6983740" lon="-6.6223490">
        <ele>340.6</ele>
        <time>2019-07-10T07:11:36Z</time>
      </trkpt>
      <trkpt lat="39.6983240" lon="-6.6225480">
        <ele>341.2</ele>
        <time>2019-07-10T07:11:40Z</time>
      </trkpt>
      <trkpt lat="39.6983120" lon="-6.6226520">
        <ele>341.6</ele>
        <time>2019-07-10T07:11:42Z</time>
      </trkpt>
      <trkpt lat="39.6982570" lon="-6.6229560">
        <ele>342.4</ele>
        <time>2019-07-10T07:11:47Z</time>
      </trkpt>
      <trkpt lat="39.6982570" lon="-6.6229560">
        <ele>342.6</ele>
        <time>2019-07-10T07:11:48Z</time>
      </trkpt>
      <trkpt lat="39.6981970" lon="-6.6232450">
        <ele>343.8</ele>
        <time>2019-07-10T07:11:53Z</time>
      </trkpt>
      <trkpt lat="39.6981640" lon="-6.6233820">
        <ele>344.6</ele>
        <time>2019-07-10T07:11:57Z</time>
      </trkpt>
      <trkpt lat="39.6981540" lon="-6.6234270">
        <ele>345.0</ele>
        <time>2019-07-10T07:11:58Z</time>
      </trkpt>
      <trkpt lat="39.6981200" lon="-6.6236470">
        <ele>346.2</ele>
        <time>2019-07-10T07:12:03Z</time>
      </trkpt>
      <trkpt lat="39.6980840" lon="-6.6237900">
        <ele>347.2</ele>
        <time>2019-07-10T07:12:07Z</time>
      </trkpt>
      <trkpt lat="39.6980810" lon="-6.6238240">
        <ele>347.4</ele>
        <time>2019-07-10T07:12:08Z</time>
      </trkpt>
      <trkpt lat="39.6980530" lon="-6.6239770">
        <ele>348.4</ele>
        <time>2019-07-10T07:12:12Z</time>
      </trkpt>
      <trkpt lat="39.6980420" lon="-6.6240530">
        <ele>348.6</ele>
        <time>2019-07-10T07:12:14Z</time>
      </trkpt>
      <trkpt lat="39.6980080" lon="-6.6242110">
        <ele>349.6</ele>
        <time>2019-07-10T07:12:18Z</time>
      </trkpt>
      <trkpt lat="39.6979750" lon="-6.6243640">
        <ele>351.0</ele>
        <time>2019-07-10T07:12:22Z</time>
      </trkpt>
      <trkpt lat="39.6979220" lon="-6.6246030">
        <ele>352.2</ele>
        <time>2019-07-10T07:12:28Z</time>
      </trkpt>
      <trkpt lat="39.6979120" lon="-6.6246440">
        <ele>352.4</ele>
        <time>2019-07-10T07:12:29Z</time>
      </trkpt>
      <trkpt lat="39.6978620" lon="-6.6249350">
        <ele>353.4</ele>
        <time>2019-07-10T07:12:35Z</time>
      </trkpt>
      <trkpt lat="39.6978530" lon="-6.6249730">
        <ele>354.0</ele>
        <time>2019-07-10T07:12:37Z</time>
      </trkpt>
      <trkpt lat="39.6978320" lon="-6.6250530">
        <ele>354.4</ele>
        <time>2019-07-10T07:12:39Z</time>
      </trkpt>
      <trkpt lat="39.6978140" lon="-6.6251790">
        <ele>355.2</ele>
        <time>2019-07-10T07:12:42Z</time>
      </trkpt>
      <trkpt lat="39.6978070" lon="-6.6252210">
        <ele>355.6</ele>
        <time>2019-07-10T07:12:43Z</time>
      </trkpt>
      <trkpt lat="39.6977670" lon="-6.6254270">
        <ele>356.8</ele>
        <time>2019-07-10T07:12:48Z</time>
      </trkpt>
      <trkpt lat="39.6977590" lon="-6.6254680">
        <ele>357.0</ele>
        <time>2019-07-10T07:12:49Z</time>
      </trkpt>
      <trkpt lat="39.6977400" lon="-6.6255910">
        <ele>358.0</ele>
        <time>2019-07-10T07:12:52Z</time>
      </trkpt>
      <trkpt lat="39.6977170" lon="-6.6257980">
        <ele>359.0</ele>
        <time>2019-07-10T07:12:57Z</time>
      </trkpt>
      <trkpt lat="39.6977080" lon="-6.6258830">
        <ele>359.4</ele>
        <time>2019-07-10T07:12:59Z</time>
      </trkpt>
      <trkpt lat="39.6977050" lon="-6.6260130">
        <ele>360.2</ele>
        <time>2019-07-10T07:13:02Z</time>
      </trkpt>
      <trkpt lat="39.6976930" lon="-6.6261420">
        <ele>360.6</ele>
        <time>2019-07-10T07:13:05Z</time>
      </trkpt>
      <trkpt lat="39.6976920" lon="-6.6262300">
        <ele>361.4</ele>
        <time>2019-07-10T07:13:07Z</time>
      </trkpt>
      <trkpt lat="39.6976980" lon="-6.6263550">
        <ele>362.4</ele>
        <time>2019-07-10T07:13:10Z</time>
      </trkpt>
      <trkpt lat="39.6977100" lon="-6.6265160">
        <ele>363.0</ele>
        <time>2019-07-10T07:13:14Z</time>
      </trkpt>
      <trkpt lat="39.6977130" lon="-6.6265570">
        <ele>363.4</ele>
        <time>2019-07-10T07:13:15Z</time>
      </trkpt>
      <trkpt lat="39.6977400" lon="-6.6267570">
        <ele>364.6</ele>
        <time>2019-07-10T07:13:20Z</time>
      </trkpt>
      <trkpt lat="39.6977470" lon="-6.6267970">
        <ele>365.0</ele>
        <time>2019-07-10T07:13:21Z</time>
      </trkpt>
      <trkpt lat="39.6977780" lon="-6.6269620">
        <ele>365.6</ele>
        <time>2019-07-10T07:13:25Z</time>
      </trkpt>
      <trkpt lat="39.6978420" lon="-6.6271710">
        <ele>366.8</ele>
        <time>2019-07-10T07:13:29Z</time>
      </trkpt>
      <trkpt lat="39.6979010" lon="-6.6273300">
        <ele>367.8</ele>
        <time>2019-07-10T07:13:34Z</time>
      </trkpt>
      <trkpt lat="39.6979580" lon="-6.6274420">
        <ele>368.4</ele>
        <time>2019-07-10T07:13:37Z</time>
      </trkpt>
      <trkpt lat="39.6979980" lon="-6.6275160">
        <ele>369.0</ele>
        <time>2019-07-10T07:13:39Z</time>
      </trkpt>
      <trkpt lat="39.6980850" lon="-6.6276570">
        <ele>370.0</ele>
        <time>2019-07-10T07:13:43Z</time>
      </trkpt>
      <trkpt lat="39.6982030" lon="-6.6278200">
        <ele>371.0</ele>
        <time>2019-07-10T07:13:47Z</time>
      </trkpt>
      <trkpt lat="39.6982720" lon="-6.6279170">
        <ele>372.0</ele>
        <time>2019-07-10T07:13:51Z</time>
      </trkpt>
      <trkpt lat="39.6983400" lon="-6.6280070">
        <ele>373.2</ele>
        <time>2019-07-10T07:13:54Z</time>
      </trkpt>
      <trkpt lat="39.6984880" lon="-6.6281930">
        <ele>374.2</ele>
        <time>2019-07-10T07:13:59Z</time>
      </trkpt>
      <trkpt lat="39.6985640" lon="-6.6282830">
        <ele>375.0</ele>
        <time>2019-07-10T07:14:03Z</time>
      </trkpt>
      <trkpt lat="39.6985880" lon="-6.6283130">
        <ele>375.2</ele>
        <time>2019-07-10T07:14:04Z</time>
      </trkpt>
      <trkpt lat="39.6987150" lon="-6.6284590">
        <ele>376.4</ele>
        <time>2019-07-10T07:14:09Z</time>
      </trkpt>
      <trkpt lat="39.6987910" lon="-6.6285370">
        <ele>377.0</ele>
        <time>2019-07-10T07:14:12Z</time>
      </trkpt>
      <trkpt lat="39.6988430" lon="-6.6285860">
        <ele>377.6</ele>
        <time>2019-07-10T07:14:14Z</time>
      </trkpt>
      <trkpt lat="39.6989730" lon="-6.6286940">
        <ele>378.8</ele>
        <time>2019-07-10T07:14:19Z</time>
      </trkpt>
      <trkpt lat="39.6990010" lon="-6.6287150">
        <ele>379.0</ele>
        <time>2019-07-10T07:14:20Z</time>
      </trkpt>
      <trkpt lat="39.6991140" lon="-6.6287910">
        <ele>379.8</ele>
        <time>2019-07-10T07:14:24Z</time>
      </trkpt>
      <trkpt lat="39.6992310" lon="-6.6288520">
        <ele>381.2</ele>
        <time>2019-07-10T07:14:28Z</time>
      </trkpt>
      <trkpt lat="39.6992910" lon="-6.6288750">
        <ele>381.4</ele>
        <time>2019-07-10T07:14:29Z</time>
      </trkpt>
      <trkpt lat="39.6994150" lon="-6.6289150">
        <ele>382.4</ele>
        <time>2019-07-10T07:14:34Z</time>
      </trkpt>
      <trkpt lat="39.6994780" lon="-6.6289330">
        <ele>382.6</ele>
        <time>2019-07-10T07:14:36Z</time>
      </trkpt>
      <trkpt lat="39.6995670" lon="-6.6289550">
        <ele>383.4</ele>
        <time>2019-07-10T07:14:39Z</time>
      </trkpt>
      <trkpt lat="39.6996550" lon="-6.6289790">
        <ele>384.2</ele>
        <time>2019-07-10T07:14:42Z</time>
      </trkpt>
      <trkpt lat="39.6996830" lon="-6.6289930">
        <ele>384.4</ele>
        <time>2019-07-10T07:14:43Z</time>
      </trkpt>
      <trkpt lat="39.6997980" lon="-6.6290460">
        <ele>385.6</ele>
        <time>2019-07-10T07:14:47Z</time>
      </trkpt>
      <trkpt lat="39.6998580" lon="-6.6290680">
        <ele>386.0</ele>
        <time>2019-07-10T07:14:49Z</time>
      </trkpt>
      <trkpt lat="39.6999170" lon="-6.6290900">
        <ele>386.6</ele>
        <time>2019-07-10T07:14:51Z</time>
      </trkpt>
      <trkpt lat="39.7000270" lon="-6.6291560">
        <ele>387.2</ele>
        <time>2019-07-10T07:14:55Z</time>
      </trkpt>
      <trkpt lat="39.7001040" lon="-6.6291940">
        <ele>387.8</ele>
        <time>2019-07-10T07:14:58Z</time>
      </trkpt>
      <trkpt lat="39.7001550" lon="-6.6292200">
        <ele>388.0</ele>
        <time>2019-07-10T07:15:00Z</time>
      </trkpt>
      <trkpt lat="39.7002310" lon="-6.6292840">
        <ele>388.8</ele>
        <time>2019-07-10T07:15:03Z</time>
      </trkpt>
      <trkpt lat="39.7003100" lon="-6.6293480">
        <ele>389.6</ele>
        <time>2019-07-10T07:15:06Z</time>
      </trkpt>
      <trkpt lat="39.7003340" lon="-6.6293700">
        <ele>389.8</ele>
        <time>2019-07-10T07:15:07Z</time>
      </trkpt>
      <trkpt lat="39.7004550" lon="-6.6294860">
        <ele>390.8</ele>
        <time>2019-07-10T07:15:11Z</time>
      </trkpt>
      <trkpt lat="39.7004550" lon="-6.6294860">
        <ele>391.0</ele>
        <time>2019-07-10T07:15:12Z</time>
      </trkpt>
      <trkpt lat="39.7005940" lon="-6.6296630">
        <ele>392.0</ele>
        <time>2019-07-10T07:15:18Z</time>
      </trkpt>
      <trkpt lat="39.7006170" lon="-6.6296950">
        <ele>392.2</ele>
        <time>2019-07-10T07:15:19Z</time>
      </trkpt>
      <trkpt lat="39.7006840" lon="-6.6297940">
        <ele>393.0</ele>
        <time>2019-07-10T07:15:22Z</time>
      </trkpt>
      <trkpt lat="39.7007840" lon="-6.6299660">
        <ele>394.2</ele>
        <time>2019-07-10T07:15:27Z</time>
      </trkpt>
      <trkpt lat="39.7008010" lon="-6.6300020">
        <ele>394.4</ele>
        <time>2019-07-10T07:15:28Z</time>
      </trkpt>
      <trkpt lat="39.7008550" lon="-6.6301120">
        <ele>395.4</ele>
        <time>2019-07-10T07:15:31Z</time>
      </trkpt>
      <trkpt lat="39.7009630" lon="-6.6303440">
        <ele>396.4</ele>
        <time>2019-07-10T07:15:37Z</time>
      </trkpt>
      <trkpt lat="39.7009780" lon="-6.6303840">
        <ele>396.8</ele>
        <time>2019-07-10T07:15:38Z</time>
      </trkpt>
      <trkpt lat="39.7010460" lon="-6.6305350">
        <ele>397.6</ele>
        <time>2019-07-10T07:15:41Z</time>
      </trkpt>
      <trkpt lat="39.7010830" lon="-6.6306030">
        <ele>398.2</ele>
        <time>2019-07-10T07:15:44Z</time>
      </trkpt>
      <trkpt lat="39.7011140" lon="-6.6306790">
        <ele>398.6</ele>
        <time>2019-07-10T07:15:46Z</time>
      </trkpt>
      <trkpt lat="39.7011950" lon="-6.6308730">
        <ele>399.8</ele>
        <time>2019-07-10T07:15:51Z</time>
      </trkpt>
      <trkpt lat="39.7012110" lon="-6.6309130">
        <ele>400.0</ele>
        <time>2019-07-10T07:15:52Z</time>
      </trkpt>
      <trkpt lat="39.7012560" lon="-6.6310390">
        <ele>400.8</ele>
        <time>2019-07-10T07:15:55Z</time>
      </trkpt>
      <trkpt lat="39.7013820" lon="-6.6313470">
        <ele>402.0</ele>
        <time>2019-07-10T07:16:02Z</time>
      </trkpt>
      <trkpt lat="39.7014570" lon="-6.6315340">
        <ele>402.6</ele>
        <time>2019-07-10T07:16:06Z</time>
      </trkpt>
      <trkpt lat="39.7015200" lon="-6.6316810">
        <ele>402.8</ele>
        <time>2019-07-10T07:16:09Z</time>
      </trkpt>
      <trkpt lat="39.7015810" lon="-6.6318350">
        <ele>403.0</ele>
        <time>2019-07-10T07:16:11Z</time>
      </trkpt>
      <trkpt lat="39.7015810" lon="-6.6318350">
        <ele>403.0</ele>
        <time>2019-07-10T07:16:12Z</time>
      </trkpt>
      <trkpt lat="39.7016880" lon="-6.6320650">
        <ele>403.2</ele>
        <time>2019-07-10T07:16:17Z</time>
      </trkpt>
      <trkpt lat="39.7017000" lon="-6.6320860">
        <ele>403.2</ele>
        <time>2019-07-10T07:16:18Z</time>
      </trkpt>
      <trkpt lat="39.7017220" lon="-6.6321250">
        <ele>403.2</ele>
        <time>2019-07-10T07:16:20Z</time>
      </trkpt>
      <trkpt lat="39.7017300" lon="-6.6321350">
        <ele>403.0</ele>
        <time>2019-07-10T07:16:23Z</time>
      </trkpt>
      <trkpt lat="39.7017460" lon="-6.6321870">
        <ele>402.4</ele>
        <time>2019-07-10T07:17:19Z</time>
      </trkpt>
      <trkpt lat="39.7017540" lon="-6.6322160">
        <ele>402.4</ele>
        <time>2019-07-10T07:17:20Z</time>
      </trkpt>
      <trkpt lat="39.7017650" lon="-6.6322490">
        <ele>402.4</ele>
        <time>2019-07-10T07:17:21Z</time>
      </trkpt>
      <trkpt lat="39.7018120" lon="-6.6323660">
        <ele>402.2</ele>
        <time>2019-07-10T07:17:24Z</time>
      </trkpt>
      <trkpt lat="39.7018740" lon="-6.6325070">
        <ele>402.2</ele>
        <time>2019-07-10T07:17:27Z</time>
      </trkpt>
      <trkpt lat="39.7019730" lon="-6.6327510">
        <ele>401.4</ele>
        <time>2019-07-10T07:17:31Z</time>
      </trkpt>
      <trkpt lat="39.7020340" lon="-6.6328920">
        <ele>401.0</ele>
        <time>2019-07-10T07:17:33Z</time>
      </trkpt>
      <trkpt lat="39.7020990" lon="-6.6330470">
        <ele>400.4</ele>
        <time>2019-07-10T07:17:35Z</time>
      </trkpt>
      <trkpt lat="39.7022040" lon="-6.6333110">
        <ele>399.4</ele>
        <time>2019-07-10T07:17:38Z</time>
      </trkpt>
      <trkpt lat="39.7022410" lon="-6.6334070">
        <ele>399.0</ele>
        <time>2019-07-10T07:17:39Z</time>
      </trkpt>
      <trkpt lat="39.7023540" lon="-6.6337240">
        <ele>398.2</ele>
        <time>2019-07-10T07:17:41Z</time>
      </trkpt>
      <trkpt lat="39.7024210" lon="-6.6339580">
        <ele>396.8</ele>
        <time>2019-07-10T07:17:44Z</time>
      </trkpt>
      <trkpt lat="39.7024890" lon="-6.6342090">
        <ele>395.6</ele>
        <time>2019-07-10T07:17:46Z</time>
      </trkpt>
      <trkpt lat="39.7025520" lon="-6.6344750">
        <ele>394.2</ele>
        <time>2019-07-10T07:17:48Z</time>
      </trkpt>
      <trkpt lat="39.7026070" lon="-6.6347560">
        <ele>393.2</ele>
        <time>2019-07-10T07:17:50Z</time>
      </trkpt>
      <trkpt lat="39.7026550" lon="-6.6350510">
        <ele>391.8</ele>
        <time>2019-07-10T07:17:52Z</time>
      </trkpt>
      <trkpt lat="39.7026890" lon="-6.6353560">
        <ele>390.6</ele>
        <time>2019-07-10T07:17:54Z</time>
      </trkpt>
      <trkpt lat="39.7027020" lon="-6.6355130">
        <ele>389.8</ele>
        <time>2019-07-10T07:17:55Z</time>
      </trkpt>
      <trkpt lat="39.7027130" lon="-6.6356720">
        <ele>389.2</ele>
        <time>2019-07-10T07:17:56Z</time>
      </trkpt>
      <trkpt lat="39.7027220" lon="-6.6359950">
        <ele>388.0</ele>
        <time>2019-07-10T07:17:58Z</time>
      </trkpt>
      <trkpt lat="39.7027140" lon="-6.6363240">
        <ele>386.6</ele>
        <time>2019-07-10T07:18:00Z</time>
      </trkpt>
      <trkpt lat="39.7026960" lon="-6.6366590">
        <ele>385.2</ele>
        <time>2019-07-10T07:18:02Z</time>
      </trkpt>
      <trkpt lat="39.7026650" lon="-6.6369940">
        <ele>383.4</ele>
        <time>2019-07-10T07:18:04Z</time>
      </trkpt>
      <trkpt lat="39.7026170" lon="-6.6373230">
        <ele>382.2</ele>
        <time>2019-07-10T07:18:06Z</time>
      </trkpt>
      <trkpt lat="39.7025240" lon="-6.6378020">
        <ele>381.0</ele>
        <time>2019-07-10T07:18:09Z</time>
      </trkpt>
      <trkpt lat="39.7024100" lon="-6.6382640">
        <ele>379.8</ele>
        <time>2019-07-10T07:18:12Z</time>
      </trkpt>
      <trkpt lat="39.7023060" lon="-6.6387210">
        <ele>378.8</ele>
        <time>2019-07-10T07:18:15Z</time>
      </trkpt>
      <trkpt lat="39.7021990" lon="-6.6391640">
        <ele>377.8</ele>
        <time>2019-07-10T07:18:18Z</time>
      </trkpt>
      <trkpt lat="39.7021640" lon="-6.6393080">
        <ele>377.6</ele>
        <time>2019-07-10T07:18:19Z</time>
      </trkpt>
      <trkpt lat="39.7019930" lon="-6.6400050">
        <ele>376.6</ele>
        <time>2019-07-10T07:18:23Z</time>
      </trkpt>
      <trkpt lat="39.7019030" lon="-6.6404060">
        <ele>376.2</ele>
        <time>2019-07-10T07:18:27Z</time>
      </trkpt>
      <trkpt lat="39.7018510" lon="-6.6408060">
        <ele>375.8</ele>
        <time>2019-07-10T07:18:29Z</time>
      </trkpt>
      <trkpt lat="39.7018460" lon="-6.6409370">
        <ele>375.4</ele>
        <time>2019-07-10T07:18:31Z</time>
      </trkpt>
      <trkpt lat="39.7018650" lon="-6.6415710">
        <ele>374.8</ele>
        <time>2019-07-10T07:18:35Z</time>
      </trkpt>
      <trkpt lat="39.7018850" lon="-6.6416900">
        <ele>374.6</ele>
        <time>2019-07-10T07:18:37Z</time>
      </trkpt>
      <trkpt lat="39.7019090" lon="-6.6418060">
        <ele>374.4</ele>
        <time>2019-07-10T07:18:38Z</time>
      </trkpt>
      <trkpt lat="39.7020160" lon="-6.6423490">
        <ele>374.2</ele>
        <time>2019-07-10T07:18:43Z</time>
      </trkpt>
      <trkpt lat="39.7021650" lon="-6.6430740">
        <ele>373.4</ele>
        <time>2019-07-10T07:18:50Z</time>
      </trkpt>
      <trkpt lat="39.7022530" lon="-6.6435240">
        <ele>372.0</ele>
        <time>2019-07-10T07:18:53Z</time>
      </trkpt>
      <trkpt lat="39.7022980" lon="-6.6437530">
        <ele>371.0</ele>
        <time>2019-07-10T07:18:56Z</time>
      </trkpt>
      <trkpt lat="39.7023910" lon="-6.6442150">
        <ele>370.0</ele>
        <time>2019-07-10T07:19:00Z</time>
      </trkpt>
      <trkpt lat="39.7024830" lon="-6.6446900">
        <ele>368.8</ele>
        <time>2019-07-10T07:19:04Z</time>
      </trkpt>
      <trkpt lat="39.7025610" lon="-6.6450800">
        <ele>367.2</ele>
        <time>2019-07-10T07:19:07Z</time>
      </trkpt>
      <trkpt lat="39.7025910" lon="-6.6452180">
        <ele>366.2</ele>
        <time>2019-07-10T07:19:08Z</time>
      </trkpt>
      <trkpt lat="39.7026200" lon="-6.6453590">
        <ele>365.4</ele>
        <time>2019-07-10T07:19:09Z</time>
      </trkpt>
      <trkpt lat="39.7027080" lon="-6.6457830">
        <ele>364.2</ele>
        <time>2019-07-10T07:19:11Z</time>
      </trkpt>
      <trkpt lat="39.7027380" lon="-6.6459210">
        <ele>362.8</ele>
        <time>2019-07-10T07:19:13Z</time>
      </trkpt>
      <trkpt lat="39.7028110" lon="-6.6463220">
        <ele>362.2</ele>
        <time>2019-07-10T07:19:16Z</time>
      </trkpt>
      <trkpt lat="39.7028590" lon="-6.6465640">
        <ele>362.2</ele>
        <time>2019-07-10T07:19:17Z</time>
      </trkpt>
      <trkpt lat="39.7028830" lon="-6.6466770">
        <ele>362.2</ele>
        <time>2019-07-10T07:19:18Z</time>
      </trkpt>
      <trkpt lat="39.7029070" lon="-6.6467910">
        <ele>362.4</ele>
        <time>2019-07-10T07:19:20Z</time>
      </trkpt>
      <trkpt lat="39.7029290" lon="-6.6469000">
        <ele>362.8</ele>
        <time>2019-07-10T07:19:21Z</time>
      </trkpt>
      <trkpt lat="39.7029500" lon="-6.6470080">
        <ele>363.0</ele>
        <time>2019-07-10T07:19:22Z</time>
      </trkpt>
      <trkpt lat="39.7031130" lon="-6.6478350">
        <ele>363.4</ele>
        <time>2019-07-10T07:19:29Z</time>
      </trkpt>
      <trkpt lat="39.7032650" lon="-6.6486340">
        <ele>361.8</ele>
        <time>2019-07-10T07:19:37Z</time>
      </trkpt>
      <trkpt lat="39.7032900" lon="-6.6487590">
        <ele>361.4</ele>
        <time>2019-07-10T07:19:38Z</time>
      </trkpt>
      <trkpt lat="39.7033400" lon="-6.6490160">
        <ele>360.2</ele>
        <time>2019-07-10T07:19:40Z</time>
      </trkpt>
      <trkpt lat="39.7033880" lon="-6.6492830">
        <ele>359.0</ele>
        <time>2019-07-10T07:19:42Z</time>
      </trkpt>
      <trkpt lat="39.7034420" lon="-6.6495590">
        <ele>358.4</ele>
        <time>2019-07-10T07:19:44Z</time>
      </trkpt>
      <trkpt lat="39.7034720" lon="-6.6497000">
        <ele>357.6</ele>
        <time>2019-07-10T07:19:45Z</time>
      </trkpt>
      <trkpt lat="39.7035590" lon="-6.6501360">
        <ele>356.4</ele>
        <time>2019-07-10T07:19:47Z</time>
      </trkpt>
      <trkpt lat="39.7036170" lon="-6.6504310">
        <ele>354.6</ele>
        <time>2019-07-10T07:19:50Z</time>
      </trkpt>
      <trkpt lat="39.7036760" lon="-6.6507170">
        <ele>353.4</ele>
        <time>2019-07-10T07:19:52Z</time>
      </trkpt>
      <trkpt lat="39.7038110" lon="-6.6513740">
        <ele>352.8</ele>
        <time>2019-07-10T07:19:57Z</time>
      </trkpt>
      <trkpt lat="39.7038760" lon="-6.6517000">
        <ele>353.6</ele>
        <time>2019-07-10T07:19:59Z</time>
      </trkpt>
      <trkpt lat="39.7038950" lon="-6.6517990">
        <ele>354.4</ele>
        <time>2019-07-10T07:20:01Z</time>
      </trkpt>
      <trkpt lat="39.7039150" lon="-6.6518940">
        <ele>354.8</ele>
        <time>2019-07-10T07:20:02Z</time>
      </trkpt>
      <trkpt lat="39.7039520" lon="-6.6520750">
        <ele>355.6</ele>
        <time>2019-07-10T07:20:04Z</time>
      </trkpt>
      <trkpt lat="39.7040170" lon="-6.6524210">
        <ele>356.4</ele>
        <time>2019-07-10T07:20:08Z</time>
      </trkpt>
      <trkpt lat="39.7040320" lon="-6.6525040">
        <ele>356.8</ele>
        <time>2019-07-10T07:20:09Z</time>
      </trkpt>
      <trkpt lat="39.7040730" lon="-6.6527570">
        <ele>357.2</ele>
        <time>2019-07-10T07:20:12Z</time>
      </trkpt>
      <trkpt lat="39.7041880" lon="-6.6532900">
        <ele>357.2</ele>
        <time>2019-07-10T07:20:17Z</time>
      </trkpt>
      <trkpt lat="39.7043080" lon="-6.6539200">
        <ele>355.6</ele>
        <time>2019-07-10T07:20:24Z</time>
      </trkpt>
      <trkpt lat="39.7043290" lon="-6.6540310">
        <ele>355.2</ele>
        <time>2019-07-10T07:20:25Z</time>
      </trkpt>
      <trkpt lat="39.7043940" lon="-6.6543690">
        <ele>354.6</ele>
        <time>2019-07-10T07:20:28Z</time>
      </trkpt>
      <trkpt lat="39.7044370" lon="-6.6546040">
        <ele>353.6</ele>
        <time>2019-07-10T07:20:30Z</time>
      </trkpt>
      <trkpt lat="39.7044820" lon="-6.6548430">
        <ele>353.0</ele>
        <time>2019-07-10T07:20:32Z</time>
      </trkpt>
      <trkpt lat="39.7045060" lon="-6.6549630">
        <ele>353.0</ele>
        <time>2019-07-10T07:20:33Z</time>
      </trkpt>
      <trkpt lat="39.7045810" lon="-6.6553210">
        <ele>352.2</ele>
        <time>2019-07-10T07:20:36Z</time>
      </trkpt>
      <trkpt lat="39.7046500" lon="-6.6556730">
        <ele>351.2</ele>
        <time>2019-07-10T07:20:39Z</time>
      </trkpt>
      <trkpt lat="39.7046950" lon="-6.6559050">
        <ele>351.0</ele>
        <time>2019-07-10T07:20:41Z</time>
      </trkpt>
      <trkpt lat="39.7047190" lon="-6.6560160">
        <ele>350.8</ele>
        <time>2019-07-10T07:20:42Z</time>
      </trkpt>
      <trkpt lat="39.7048300" lon="-6.6565320">
        <ele>351.0</ele>
        <time>2019-07-10T07:20:46Z</time>
      </trkpt>
      <trkpt lat="39.7048680" lon="-6.6567250">
        <ele>351.6</ele>
        <time>2019-07-10T07:20:49Z</time>
      </trkpt>
      <trkpt lat="39.7049230" lon="-6.6570060">
        <ele>352.0</ele>
        <time>2019-07-10T07:20:52Z</time>
      </trkpt>
      <trkpt lat="39.7050140" lon="-6.6574500">
        <ele>353.0</ele>
        <time>2019-07-10T07:20:57Z</time>
      </trkpt>
      <trkpt lat="39.7050290" lon="-6.6575380">
        <ele>353.0</ele>
        <time>2019-07-10T07:20:58Z</time>
      </trkpt>
      <trkpt lat="39.7051130" lon="-6.6579510">
        <ele>354.2</ele>
        <time>2019-07-10T07:21:03Z</time>
      </trkpt>
      <trkpt lat="39.7051580" lon="-6.6581800">
        <ele>354.6</ele>
        <time>2019-07-10T07:21:05Z</time>
      </trkpt>
      <trkpt lat="39.7051870" lon="-6.6583240">
        <ele>355.4</ele>
        <time>2019-07-10T07:21:08Z</time>
      </trkpt>
      <trkpt lat="39.7052440" lon="-6.6586000">
        <ele>356.4</ele>
        <time>2019-07-10T07:21:12Z</time>
      </trkpt>
      <trkpt lat="39.7052580" lon="-6.6586680">
        <ele>356.6</ele>
        <time>2019-07-10T07:21:13Z</time>
      </trkpt>
      <trkpt lat="39.7052850" lon="-6.6588070">
        <ele>357.0</ele>
        <time>2019-07-10T07:21:15Z</time>
      </trkpt>
      <trkpt lat="39.7053250" lon="-6.6590180">
        <ele>357.2</ele>
        <time>2019-07-10T07:21:17Z</time>
      </trkpt>
      <trkpt lat="39.7053540" lon="-6.6591670">
        <ele>357.6</ele>
        <time>2019-07-10T07:21:20Z</time>
      </trkpt>
      <trkpt lat="39.7053690" lon="-6.6592450">
        <ele>357.6</ele>
        <time>2019-07-10T07:21:21Z</time>
      </trkpt>
      <trkpt lat="39.7054200" lon="-6.6594930">
        <ele>357.6</ele>
        <time>2019-07-10T07:21:24Z</time>
      </trkpt>
      <trkpt lat="39.7055280" lon="-6.6600770">
        <ele>356.8</ele>
        <time>2019-07-10T07:21:30Z</time>
      </trkpt>
      <trkpt lat="39.7055500" lon="-6.6601810">
        <ele>356.4</ele>
        <time>2019-07-10T07:21:31Z</time>
      </trkpt>
      <trkpt lat="39.7056140" lon="-6.6604580">
        <ele>356.2</ele>
        <time>2019-07-10T07:21:33Z</time>
      </trkpt>
      <trkpt lat="39.7056770" lon="-6.6607360">
        <ele>355.4</ele>
        <time>2019-07-10T07:21:36Z</time>
      </trkpt>
      <trkpt lat="39.7056940" lon="-6.6607930">
        <ele>355.2</ele>
        <time>2019-07-10T07:21:37Z</time>
      </trkpt>
      <trkpt lat="39.7057100" lon="-6.6608510">
        <ele>354.2</ele>
        <time>2019-07-10T07:21:38Z</time>
      </trkpt>
      <trkpt lat="39.7057430" lon="-6.6609670">
        <ele>353.8</ele>
        <time>2019-07-10T07:21:39Z</time>
      </trkpt>
      <trkpt lat="39.7058920" lon="-6.6614340">
        <ele>352.6</ele>
        <time>2019-07-10T07:21:42Z</time>
      </trkpt>
      <trkpt lat="39.7059340" lon="-6.6615530">
        <ele>351.6</ele>
        <time>2019-07-10T07:21:44Z</time>
      </trkpt>
      <trkpt lat="39.7059770" lon="-6.6616710">
        <ele>351.2</ele>
        <time>2019-07-10T07:21:45Z</time>
      </trkpt>
      <trkpt lat="39.7060190" lon="-6.6617910">
        <ele>350.8</ele>
        <time>2019-07-10T07:21:46Z</time>
      </trkpt>
      <trkpt lat="39.7061380" lon="-6.6621520">
        <ele>350.4</ele>
        <time>2019-07-10T07:21:48Z</time>
      </trkpt>
      <trkpt lat="39.7061790" lon="-6.6622700">
        <ele>350.0</ele>
        <time>2019-07-10T07:21:50Z</time>
      </trkpt>
      <trkpt lat="39.7063730" lon="-6.6628190">
        <ele>349.4</ele>
        <time>2019-07-10T07:21:54Z</time>
      </trkpt>
      <trkpt lat="39.7064080" lon="-6.6629240">
        <ele>349.0</ele>
        <time>2019-07-10T07:21:56Z</time>
      </trkpt>
      <trkpt lat="39.7065090" lon="-6.6632310">
        <ele>348.6</ele>
        <time>2019-07-10T07:21:59Z</time>
      </trkpt>
      <trkpt lat="39.7066490" lon="-6.6636290">
        <ele>348.2</ele>
        <time>2019-07-10T07:22:03Z</time>
      </trkpt>
      <trkpt lat="39.7067240" lon="-6.6638370">
        <ele>348.0</ele>
        <time>2019-07-10T07:22:05Z</time>
      </trkpt>
      <trkpt lat="39.7068720" lon="-6.6642810">
        <ele>347.2</ele>
        <time>2019-07-10T07:22:09Z</time>
      </trkpt>
      <trkpt lat="39.7069140" lon="-6.6643940">
        <ele>346.6</ele>
        <time>2019-07-10T07:22:10Z</time>
      </trkpt>
      <trkpt lat="39.7070810" lon="-6.6648650">
        <ele>345.4</ele>
        <time>2019-07-10T07:22:14Z</time>
      </trkpt>
      <trkpt lat="39.7071660" lon="-6.6651100">
        <ele>344.4</ele>
        <time>2019-07-10T07:22:16Z</time>
      </trkpt>
      <trkpt lat="39.7072100" lon="-6.6652350">
        <ele>344.0</ele>
        <time>2019-07-10T07:22:17Z</time>
      </trkpt>
      <trkpt lat="39.7073880" lon="-6.6657410">
        <ele>342.6</ele>
        <time>2019-07-10T07:22:21Z</time>
      </trkpt>
      <trkpt lat="39.7075630" lon="-6.6662500">
        <ele>341.6</ele>
        <time>2019-07-10T07:22:24Z</time>
      </trkpt>
      <trkpt lat="39.7076930" lon="-6.6666310">
        <ele>340.2</ele>
        <time>2019-07-10T07:22:28Z</time>
      </trkpt>
      <trkpt lat="39.7078220" lon="-6.6670000">
        <ele>339.8</ele>
        <time>2019-07-10T07:22:30Z</time>
      </trkpt>
      <trkpt lat="39.7078650" lon="-6.6671190">
        <ele>339.0</ele>
        <time>2019-07-10T07:22:32Z</time>
      </trkpt>
      <trkpt lat="39.7080630" lon="-6.6677160">
        <ele>338.0</ele>
        <time>2019-07-10T07:22:36Z</time>
      </trkpt>
      <trkpt lat="39.7081550" lon="-6.6680800">
        <ele>337.0</ele>
        <time>2019-07-10T07:22:40Z</time>
      </trkpt>
      <trkpt lat="39.7081770" lon="-6.6682050">
        <ele>336.8</ele>
        <time>2019-07-10T07:22:41Z</time>
      </trkpt>
      <trkpt lat="39.7081930" lon="-6.6683330">
        <ele>336.4</ele>
        <time>2019-07-10T07:22:42Z</time>
      </trkpt>
      <trkpt lat="39.7082240" lon="-6.6685880">
        <ele>335.8</ele>
        <time>2019-07-10T07:22:44Z</time>
      </trkpt>
      <trkpt lat="39.7082230" lon="-6.6692520">
        <ele>334.6</ele>
        <time>2019-07-10T07:22:48Z</time>
      </trkpt>
      <trkpt lat="39.7082100" lon="-6.6693870">
        <ele>333.4</ele>
        <time>2019-07-10T07:22:50Z</time>
      </trkpt>
      <trkpt lat="39.7081280" lon="-6.6700820">
        <ele>332.2</ele>
        <time>2019-07-10T07:22:54Z</time>
      </trkpt>
      <trkpt lat="39.7081110" lon="-6.6702240">
        <ele>331.8</ele>
        <time>2019-07-10T07:22:55Z</time>
      </trkpt>
      <trkpt lat="39.7080940" lon="-6.6703660">
        <ele>330.6</ele>
        <time>2019-07-10T07:22:57Z</time>
      </trkpt>
      <trkpt lat="39.7080780" lon="-6.6705080">
        <ele>329.6</ele>
        <time>2019-07-10T07:22:58Z</time>
      </trkpt>
      <trkpt lat="39.7080240" lon="-6.6709220">
        <ele>328.4</ele>
        <time>2019-07-10T07:23:00Z</time>
      </trkpt>
      <trkpt lat="39.7080080" lon="-6.6710560">
        <ele>328.0</ele>
        <time>2019-07-10T07:23:02Z</time>
      </trkpt>
      <trkpt lat="39.7079610" lon="-6.6714420">
        <ele>327.8</ele>
        <time>2019-07-10T07:23:05Z</time>
      </trkpt>
      <trkpt lat="39.7079090" lon="-6.6719100">
        <ele>327.8</ele>
        <time>2019-07-10T07:23:09Z</time>
      </trkpt>
      <trkpt lat="39.7078890" lon="-6.6721140">
        <ele>328.2</ele>
        <time>2019-07-10T07:23:11Z</time>
      </trkpt>
      <trkpt lat="39.7078670" lon="-6.6723030">
        <ele>328.8</ele>
        <time>2019-07-10T07:23:13Z</time>
      </trkpt>
      <trkpt lat="39.7078460" lon="-6.6724800">
        <ele>329.2</ele>
        <time>2019-07-10T07:23:15Z</time>
      </trkpt>
      <trkpt lat="39.7078330" lon="-6.6725650">
        <ele>329.6</ele>
        <time>2019-07-10T07:23:16Z</time>
      </trkpt>
      <trkpt lat="39.7078040" lon="-6.6728810">
        <ele>330.4</ele>
        <time>2019-07-10T07:23:20Z</time>
      </trkpt>
      <trkpt lat="39.7077980" lon="-6.6729550">
        <ele>330.6</ele>
        <time>2019-07-10T07:23:21Z</time>
      </trkpt>
      <trkpt lat="39.7077940" lon="-6.6731000">
        <ele>331.2</ele>
        <time>2019-07-10T07:23:23Z</time>
      </trkpt>
      <trkpt lat="39.7077930" lon="-6.6732370">
        <ele>331.6</ele>
        <time>2019-07-10T07:23:24Z</time>
      </trkpt>
      <trkpt lat="39.7077930" lon="-6.6732370">
        <ele>331.8</ele>
        <time>2019-07-10T07:23:25Z</time>
      </trkpt>
      <trkpt lat="39.7077920" lon="-6.6733630">
        <ele>332.4</ele>
        <time>2019-07-10T07:23:27Z</time>
      </trkpt>
      <trkpt lat="39.7077940" lon="-6.6734220">
        <ele>332.8</ele>
        <time>2019-07-10T07:23:28Z</time>
      </trkpt>
      <trkpt lat="39.7078010" lon="-6.6735970">
        <ele>334.0</ele>
        <time>2019-07-10T07:23:31Z</time>
      </trkpt>
      <trkpt lat="39.7078030" lon="-6.6737060">
        <ele>335.0</ele>
        <time>2019-07-10T07:23:33Z</time>
      </trkpt>
      <trkpt lat="39.7078060" lon="-6.6737600">
        <ele>335.2</ele>
        <time>2019-07-10T07:23:34Z</time>
      </trkpt>
      <trkpt lat="39.7078080" lon="-6.6739180">
        <ele>335.8</ele>
        <time>2019-07-10T07:23:36Z</time>
      </trkpt>
      <trkpt lat="39.7078070" lon="-6.6739430">
        <ele>336.0</ele>
        <time>2019-07-10T07:23:37Z</time>
      </trkpt>
      <trkpt lat="39.7078060" lon="-6.6739680">
        <ele>336.2</ele>
        <time>2019-07-10T07:23:38Z</time>
      </trkpt>
      <trkpt lat="39.7078050" lon="-6.6740610">
        <ele>336.8</ele>
        <time>2019-07-10T07:23:40Z</time>
      </trkpt>
      <trkpt lat="39.7078080" lon="-6.6741880">
        <ele>337.4</ele>
        <time>2019-07-10T07:23:42Z</time>
      </trkpt>
      <trkpt lat="39.7078100" lon="-6.6742290">
        <ele>337.8</ele>
        <time>2019-07-10T07:23:44Z</time>
      </trkpt>
      <trkpt lat="39.7078130" lon="-6.6744290">
        <ele>338.6</ele>
        <time>2019-07-10T07:23:48Z</time>
      </trkpt>
      <trkpt lat="39.7078160" lon="-6.6745090">
        <ele>339.8</ele>
        <time>2019-07-10T07:23:51Z</time>
      </trkpt>
      <trkpt lat="39.7078180" lon="-6.6747130">
        <ele>340.8</ele>
        <time>2019-07-10T07:23:56Z</time>
      </trkpt>
      <trkpt lat="39.7078380" lon="-6.6749330">
        <ele>341.6</ele>
        <time>2019-07-10T07:24:00Z</time>
      </trkpt>
      <trkpt lat="39.7078380" lon="-6.6749330">
        <ele>341.8</ele>
        <time>2019-07-10T07:24:01Z</time>
      </trkpt>
      <trkpt lat="39.7078360" lon="-6.6752090">
        <ele>343.0</ele>
        <time>2019-07-10T07:24:06Z</time>
      </trkpt>
      <trkpt lat="39.7078410" lon="-6.6753040">
        <ele>343.6</ele>
        <time>2019-07-10T07:24:09Z</time>
      </trkpt>
      <trkpt lat="39.7078420" lon="-6.6753520">
        <ele>344.0</ele>
        <time>2019-07-10T07:24:10Z</time>
      </trkpt>
      <trkpt lat="39.7078480" lon="-6.6755950">
        <ele>345.2</ele>
        <time>2019-07-10T07:24:15Z</time>
      </trkpt>
      <trkpt lat="39.7078570" lon="-6.6756890">
        <ele>345.6</ele>
        <time>2019-07-10T07:24:17Z</time>
      </trkpt>
      <trkpt lat="39.7078630" lon="-6.6757870">
        <ele>346.2</ele>
        <time>2019-07-10T07:24:19Z</time>
      </trkpt>
      <trkpt lat="39.7078650" lon="-6.6760760">
        <ele>347.4</ele>
        <time>2019-07-10T07:24:24Z</time>
      </trkpt>
      <trkpt lat="39.7078650" lon="-6.6760760">
        <ele>347.6</ele>
        <time>2019-07-10T07:24:25Z</time>
      </trkpt>
      <trkpt lat="39.7078710" lon="-6.6762180">
        <ele>348.6</ele>
        <time>2019-07-10T07:24:28Z</time>
      </trkpt>
      <trkpt lat="39.7078690" lon="-6.6764570">
        <ele>349.8</ele>
        <time>2019-07-10T07:24:33Z</time>
      </trkpt>
      <trkpt lat="39.7078730" lon="-6.6765060">
        <ele>350.0</ele>
        <time>2019-07-10T07:24:34Z</time>
      </trkpt>
      <trkpt lat="39.7078800" lon="-6.6767010">
        <ele>351.0</ele>
        <time>2019-07-10T07:24:38Z</time>
      </trkpt>
      <trkpt lat="39.7078830" lon="-6.6769430">
        <ele>351.8</ele>
        <time>2019-07-10T07:24:42Z</time>
      </trkpt>
      <trkpt lat="39.7078830" lon="-6.6769430">
        <ele>352.0</ele>
        <time>2019-07-10T07:24:43Z</time>
      </trkpt>
      <trkpt lat="39.7078870" lon="-6.6773280">
        <ele>353.0</ele>
        <time>2019-07-10T07:24:51Z</time>
      </trkpt>
      <trkpt lat="39.7078890" lon="-6.6774280">
        <ele>353.4</ele>
        <time>2019-07-10T07:24:53Z</time>
      </trkpt>
      <trkpt lat="39.7078930" lon="-6.6776410">
        <ele>354.0</ele>
        <time>2019-07-10T07:24:57Z</time>
      </trkpt>
      <trkpt lat="39.7078950" lon="-6.6778740">
        <ele>354.4</ele>
        <time>2019-07-10T07:25:00Z</time>
      </trkpt>
      <trkpt lat="39.7078950" lon="-6.6778740">
        <ele>354.6</ele>
        <time>2019-07-10T07:25:01Z</time>
      </trkpt>
      <trkpt lat="39.7078900" lon="-6.6781180">
        <ele>355.0</ele>
        <time>2019-07-10T07:25:05Z</time>
      </trkpt>
      <trkpt lat="39.7078890" lon="-6.6781820">
        <ele>355.2</ele>
        <time>2019-07-10T07:25:06Z</time>
      </trkpt>
      <trkpt lat="39.7078770" lon="-6.6783770">
        <ele>355.2</ele>
        <time>2019-07-10T07:25:09Z</time>
      </trkpt>
      <trkpt lat="39.7078460" lon="-6.6786500">
        <ele>355.4</ele>
        <time>2019-07-10T07:25:13Z</time>
      </trkpt>
      <trkpt lat="39.7078230" lon="-6.6788650">
        <ele>355.4</ele>
        <time>2019-07-10T07:25:16Z</time>
      </trkpt>
      <trkpt lat="39.7077980" lon="-6.6790940">
        <ele>355.4</ele>
        <time>2019-07-10T07:25:18Z</time>
      </trkpt>
      <trkpt lat="39.7077800" lon="-6.6792520">
        <ele>355.2</ele>
        <time>2019-07-10T07:25:21Z</time>
      </trkpt>
      <trkpt lat="39.7077490" lon="-6.6794980">
        <ele>355.2</ele>
        <time>2019-07-10T07:25:24Z</time>
      </trkpt>
      <trkpt lat="39.7077040" lon="-6.6798300">
        <ele>355.2</ele>
        <time>2019-07-10T07:25:28Z</time>
      </trkpt>
      <trkpt lat="39.7076750" lon="-6.6800810">
        <ele>355.2</ele>
        <time>2019-07-10T07:25:31Z</time>
      </trkpt>
      <trkpt lat="39.7076470" lon="-6.6803290">
        <ele>355.4</ele>
        <time>2019-07-10T07:25:34Z</time>
      </trkpt>
      <trkpt lat="39.7076210" lon="-6.6805760">
        <ele>355.6</ele>
        <time>2019-07-10T07:25:37Z</time>
      </trkpt>
      <trkpt lat="39.7075920" lon="-6.6808170">
        <ele>355.8</ele>
        <time>2019-07-10T07:25:40Z</time>
      </trkpt>
      <trkpt lat="39.7075640" lon="-6.6810550">
        <ele>356.2</ele>
        <time>2019-07-10T07:25:43Z</time>
      </trkpt>
      <trkpt lat="39.7075230" lon="-6.6813710">
        <ele>356.6</ele>
        <time>2019-07-10T07:25:47Z</time>
      </trkpt>
      <trkpt lat="39.7074890" lon="-6.6816110">
        <ele>357.0</ele>
        <time>2019-07-10T07:25:50Z</time>
      </trkpt>
      <trkpt lat="39.7074690" lon="-6.6817730">
        <ele>357.2</ele>
        <time>2019-07-10T07:25:52Z</time>
      </trkpt>
      <trkpt lat="39.7074120" lon="-6.6822550">
        <ele>358.0</ele>
        <time>2019-07-10T07:25:58Z</time>
      </trkpt>
      <trkpt lat="39.7073860" lon="-6.6824900">
        <ele>358.2</ele>
        <time>2019-07-10T07:26:01Z</time>
      </trkpt>
      <trkpt lat="39.7073550" lon="-6.6828000">
        <ele>358.8</ele>
        <time>2019-07-10T07:26:05Z</time>
      </trkpt>
      <trkpt lat="39.7073180" lon="-6.6830970">
        <ele>359.4</ele>
        <time>2019-07-10T07:26:09Z</time>
      </trkpt>
      <trkpt lat="39.7072940" lon="-6.6833170">
        <ele>359.6</ele>
        <time>2019-07-10T07:26:12Z</time>
      </trkpt>
      <trkpt lat="39.7072860" lon="-6.6834660">
        <ele>359.6</ele>
        <time>2019-07-10T07:26:14Z</time>
      </trkpt>
      <trkpt lat="39.7072740" lon="-6.6837590">
        <ele>360.2</ele>
        <time>2019-07-10T07:26:18Z</time>
      </trkpt>
      <trkpt lat="39.7072770" lon="-6.6839050">
        <ele>360.4</ele>
        <time>2019-07-10T07:26:20Z</time>
      </trkpt>
      <trkpt lat="39.7072870" lon="-6.6841250">
        <ele>360.6</ele>
        <time>2019-07-10T07:26:23Z</time>
      </trkpt>
      <trkpt lat="39.7073200" lon="-6.6845580">
        <ele>361.4</ele>
        <time>2019-07-10T07:26:29Z</time>
      </trkpt>
      <trkpt lat="39.7073370" lon="-6.6847040">
        <ele>361.4</ele>
        <time>2019-07-10T07:26:30Z</time>
      </trkpt>
      <trkpt lat="39.7074440" lon="-6.6852670">
        <ele>362.6</ele>
        <time>2019-07-10T07:26:39Z</time>
      </trkpt>
      <trkpt lat="39.7076520" lon="-6.6859330">
        <ele>363.0</ele>
        <time>2019-07-10T07:26:48Z</time>
      </trkpt>
      <trkpt lat="39.7077170" lon="-6.6861250">
        <ele>363.6</ele>
        <time>2019-07-10T07:26:52Z</time>
      </trkpt>
      <trkpt lat="39.7078610" lon="-6.6864960">
        <ele>364.4</ele>
        <time>2019-07-10T07:26:58Z</time>
      </trkpt>
      <trkpt lat="39.7079460" lon="-6.6867510">
        <ele>364.8</ele>
        <time>2019-07-10T07:27:02Z</time>
      </trkpt>
      <trkpt lat="39.7080700" lon="-6.6870710">
        <ele>365.2</ele>
        <time>2019-07-10T07:27:06Z</time>
      </trkpt>
      <trkpt lat="39.7082330" lon="-6.6875120">
        <ele>364.8</ele>
        <time>2019-07-10T07:27:13Z</time>
      </trkpt>
      <trkpt lat="39.7082620" lon="-6.6875920">
        <ele>364.8</ele>
        <time>2019-07-10T07:27:14Z</time>
      </trkpt>
      <trkpt lat="39.7083550" lon="-6.6878310">
        <ele>364.4</ele>
        <time>2019-07-10T07:27:17Z</time>
      </trkpt>
      <trkpt lat="39.7084120" lon="-6.6879960">
        <ele>364.0</ele>
        <time>2019-07-10T07:27:19Z</time>
      </trkpt>
      <trkpt lat="39.7084690" lon="-6.6881650">
        <ele>363.8</ele>
        <time>2019-07-10T07:27:21Z</time>
      </trkpt>
      <trkpt lat="39.7086880" lon="-6.6888430">
        <ele>363.2</ele>
        <time>2019-07-10T07:27:29Z</time>
      </trkpt>
      <trkpt lat="39.7087290" lon="-6.6890200">
        <ele>363.0</ele>
        <time>2019-07-10T07:27:30Z</time>
      </trkpt>
      <trkpt lat="39.7088090" lon="-6.6896430">
        <ele>363.0</ele>
        <time>2019-07-10T07:27:38Z</time>
      </trkpt>
      <trkpt lat="39.7087880" lon="-6.6904230">
        <ele>363.6</ele>
        <time>2019-07-10T07:27:47Z</time>
      </trkpt>
      <trkpt lat="39.7087420" lon="-6.6911020">
        <ele>364.4</ele>
        <time>2019-07-10T07:27:55Z</time>
      </trkpt>
      <trkpt lat="39.7086850" lon="-6.6917800">
        <ele>364.0</ele>
        <time>2019-07-10T07:28:03Z</time>
      </trkpt>
      <trkpt lat="39.7086520" lon="-6.6921150">
        <ele>364.4</ele>
        <time>2019-07-10T07:28:06Z</time>
      </trkpt>
      <trkpt lat="39.7086040" lon="-6.6923550">
        <ele>364.6</ele>
        <time>2019-07-10T07:28:09Z</time>
      </trkpt>
      <trkpt lat="39.7085890" lon="-6.6924350">
        <ele>364.8</ele>
        <time>2019-07-10T07:28:11Z</time>
      </trkpt>
      <trkpt lat="39.7084420" lon="-6.6930790">
        <ele>365.2</ele>
        <time>2019-07-10T07:28:18Z</time>
      </trkpt>
      <trkpt lat="39.7084200" lon="-6.6931580">
        <ele>365.4</ele>
        <time>2019-07-10T07:28:19Z</time>
      </trkpt>
      <trkpt lat="39.7083030" lon="-6.6935440">
        <ele>366.0</ele>
        <time>2019-07-10T07:28:24Z</time>
      </trkpt>
      <trkpt lat="39.7081580" lon="-6.6940100">
        <ele>366.6</ele>
        <time>2019-07-10T07:28:30Z</time>
      </trkpt>
      <trkpt lat="39.7079380" lon="-6.6947380">
        <ele>366.6</ele>
        <time>2019-07-10T07:28:40Z</time>
      </trkpt>
      <trkpt lat="39.7079110" lon="-6.6948270">
        <ele>366.6</ele>
        <time>2019-07-10T07:28:41Z</time>
      </trkpt>
      <trkpt lat="39.7076890" lon="-6.6956020">
        <ele>365.6</ele>
        <time>2019-07-10T07:28:48Z</time>
      </trkpt>
      <trkpt lat="39.7076890" lon="-6.6956020">
        <ele>365.6</ele>
        <time>2019-07-10T07:28:49Z</time>
      </trkpt>
      <trkpt lat="39.7075680" lon="-6.6960120">
        <ele>365.0</ele>
        <time>2019-07-10T07:28:53Z</time>
      </trkpt>
      <trkpt lat="39.7074130" lon="-6.6965370">
        <ele>364.2</ele>
        <time>2019-07-10T07:28:58Z</time>
      </trkpt>
      <trkpt lat="39.7073150" lon="-6.6968560">
        <ele>364.2</ele>
        <time>2019-07-10T07:29:00Z</time>
      </trkpt>
      <trkpt lat="39.7072470" lon="-6.6970700">
        <ele>363.8</ele>
        <time>2019-07-10T07:29:03Z</time>
      </trkpt>
      <trkpt lat="39.7071190" lon="-6.6975130">
        <ele>363.2</ele>
        <time>2019-07-10T07:29:06Z</time>
      </trkpt>
      <trkpt lat="39.7070840" lon="-6.6976270">
        <ele>362.8</ele>
        <time>2019-07-10T07:29:08Z</time>
      </trkpt>
      <trkpt lat="39.7070490" lon="-6.6977440">
        <ele>362.4</ele>
        <time>2019-07-10T07:29:09Z</time>
      </trkpt>
      <trkpt lat="39.7069080" lon="-6.6982220">
        <ele>361.4</ele>
        <time>2019-07-10T07:29:12Z</time>
      </trkpt>
      <trkpt lat="39.7068720" lon="-6.6983440">
        <ele>360.4</ele>
        <time>2019-07-10T07:29:14Z</time>
      </trkpt>
      <trkpt lat="39.7067970" lon="-6.6985910">
        <ele>359.8</ele>
        <time>2019-07-10T07:29:16Z</time>
      </trkpt>
      <trkpt lat="39.7067600" lon="-6.6987170">
        <ele>359.6</ele>
        <time>2019-07-10T07:29:17Z</time>
      </trkpt>
      <trkpt lat="39.7067220" lon="-6.6988450">
        <ele>359.0</ele>
        <time>2019-07-10T07:29:18Z</time>
      </trkpt>
      <trkpt lat="39.7066470" lon="-6.6991010">
        <ele>358.0</ele>
        <time>2019-07-10T07:29:20Z</time>
      </trkpt>
      <trkpt lat="39.7066070" lon="-6.6992320">
        <ele>357.6</ele>
        <time>2019-07-10T07:29:21Z</time>
      </trkpt>
      <trkpt lat="39.7064500" lon="-6.6997560">
        <ele>356.4</ele>
        <time>2019-07-10T07:29:25Z</time>
      </trkpt>
      <trkpt lat="39.7063390" lon="-6.7001430">
        <ele>355.4</ele>
        <time>2019-07-10T07:29:28Z</time>
      </trkpt>
      <trkpt lat="39.7063020" lon="-6.7002690">
        <ele>355.4</ele>
        <time>2019-07-10T07:29:29Z</time>
      </trkpt>
      <trkpt lat="39.7061210" lon="-6.7008780">
        <ele>354.2</ele>
        <time>2019-07-10T07:29:34Z</time>
      </trkpt>
      <trkpt lat="39.7060170" lon="-6.7012310">
        <ele>353.8</ele>
        <time>2019-07-10T07:29:37Z</time>
      </trkpt>
      <trkpt lat="39.7058810" lon="-6.7016880">
        <ele>353.2</ele>
        <time>2019-07-10T07:29:41Z</time>
      </trkpt>
      <trkpt lat="39.7058150" lon="-6.7019080">
        <ele>353.0</ele>
        <time>2019-07-10T07:29:43Z</time>
      </trkpt>
      <trkpt lat="39.7057470" lon="-6.7021290">
        <ele>352.8</ele>
        <time>2019-07-10T07:29:45Z</time>
      </trkpt>
      <trkpt lat="39.7056810" lon="-6.7023500">
        <ele>352.8</ele>
        <time>2019-07-10T07:29:47Z</time>
      </trkpt>
      <trkpt lat="39.7054810" lon="-6.7030160">
        <ele>352.2</ele>
        <time>2019-07-10T07:29:53Z</time>
      </trkpt>
      <trkpt lat="39.7053200" lon="-6.7035720">
        <ele>351.6</ele>
        <time>2019-07-10T07:29:58Z</time>
      </trkpt>
      <trkpt lat="39.7051880" lon="-6.7040070">
        <ele>351.4</ele>
        <time>2019-07-10T07:30:02Z</time>
      </trkpt>
      <trkpt lat="39.7050350" lon="-6.7045240">
        <ele>351.6</ele>
        <time>2019-07-10T07:30:06Z</time>
      </trkpt>
      <trkpt lat="39.7049810" lon="-6.7047170">
        <ele>352.0</ele>
        <time>2019-07-10T07:30:09Z</time>
      </trkpt>
      <trkpt lat="39.7049570" lon="-6.7048110">
        <ele>352.2</ele>
        <time>2019-07-10T07:30:10Z</time>
      </trkpt>
      <trkpt lat="39.7048570" lon="-6.7051440">
        <ele>353.0</ele>
        <time>2019-07-10T07:30:14Z</time>
      </trkpt>
      <trkpt lat="39.7048360" lon="-6.7052200">
        <ele>353.4</ele>
        <time>2019-07-10T07:30:15Z</time>
      </trkpt>
      <trkpt lat="39.7048150" lon="-6.7052940">
        <ele>353.6</ele>
        <time>2019-07-10T07:30:16Z</time>
      </trkpt>
      <trkpt lat="39.7047500" lon="-6.7054940">
        <ele>354.2</ele>
        <time>2019-07-10T07:30:18Z</time>
      </trkpt>
      <trkpt lat="39.7047500" lon="-6.7054940">
        <ele>354.4</ele>
        <time>2019-07-10T07:30:19Z</time>
      </trkpt>
      <trkpt lat="39.7046950" lon="-6.7056850">
        <ele>355.4</ele>
        <time>2019-07-10T07:30:22Z</time>
      </trkpt>
      <trkpt lat="39.7046790" lon="-6.7057510">
        <ele>355.6</ele>
        <time>2019-07-10T07:30:23Z</time>
      </trkpt>
      <trkpt lat="39.7046460" lon="-6.7058830">
        <ele>355.8</ele>
        <time>2019-07-10T07:30:24Z</time>
      </trkpt>
      <trkpt lat="39.7046090" lon="-6.7060110">
        <ele>356.8</ele>
        <time>2019-07-10T07:30:27Z</time>
      </trkpt>
      <trkpt lat="39.7045670" lon="-6.7061350">
        <ele>357.4</ele>
        <time>2019-07-10T07:30:29Z</time>
      </trkpt>
      <trkpt lat="39.7045120" lon="-6.7063240">
        <ele>358.0</ele>
        <time>2019-07-10T07:30:32Z</time>
      </trkpt>
      <trkpt lat="39.7044590" lon="-6.7065110">
        <ele>359.0</ele>
        <time>2019-07-10T07:30:35Z</time>
      </trkpt>
      <trkpt lat="39.7044250" lon="-6.7066390">
        <ele>359.2</ele>
        <time>2019-07-10T07:30:36Z</time>
      </trkpt>
      <trkpt lat="39.7044100" lon="-6.7067040">
        <ele>359.8</ele>
        <time>2019-07-10T07:30:38Z</time>
      </trkpt>
      <trkpt lat="39.7043760" lon="-6.7068290">
        <ele>360.4</ele>
        <time>2019-07-10T07:30:40Z</time>
      </trkpt>
      <trkpt lat="39.7043360" lon="-6.7070090">
        <ele>360.8</ele>
        <time>2019-07-10T07:30:42Z</time>
      </trkpt>
      <trkpt lat="39.7043270" lon="-6.7070680">
        <ele>361.4</ele>
        <time>2019-07-10T07:30:44Z</time>
      </trkpt>
      <trkpt lat="39.7043080" lon="-6.7071810">
        <ele>361.6</ele>
        <time>2019-07-10T07:30:45Z</time>
      </trkpt>
      <trkpt lat="39.7042720" lon="-6.7073440">
        <ele>362.6</ele>
        <time>2019-07-10T07:30:48Z</time>
      </trkpt>
      <trkpt lat="39.7042540" lon="-6.7074520">
        <ele>363.4</ele>
        <time>2019-07-10T07:30:51Z</time>
      </trkpt>
      <trkpt lat="39.7042470" lon="-6.7075080">
        <ele>363.6</ele>
        <time>2019-07-10T07:30:52Z</time>
      </trkpt>
      <trkpt lat="39.7042240" lon="-6.7076740">
        <ele>364.4</ele>
        <time>2019-07-10T07:30:54Z</time>
      </trkpt>
      <trkpt lat="39.7042140" lon="-6.7077300">
        <ele>365.0</ele>
        <time>2019-07-10T07:30:56Z</time>
      </trkpt>
      <trkpt lat="39.7041680" lon="-6.7080140">
        <ele>366.2</ele>
        <time>2019-07-10T07:31:00Z</time>
      </trkpt>
      <trkpt lat="39.7041450" lon="-6.7081800">
        <ele>367.2</ele>
        <time>2019-07-10T07:31:04Z</time>
      </trkpt>
      <trkpt lat="39.7041050" lon="-6.7083980">
        <ele>368.2</ele>
        <time>2019-07-10T07:31:08Z</time>
      </trkpt>
      <trkpt lat="39.7040810" lon="-6.7085100">
        <ele>368.6</ele>
        <time>2019-07-10T07:31:10Z</time>
      </trkpt>
      <trkpt lat="39.7040410" lon="-6.7087510">
        <ele>369.2</ele>
        <time>2019-07-10T07:31:14Z</time>
      </trkpt>
      <trkpt lat="39.7039830" lon="-6.7090600">
        <ele>369.8</ele>
        <time>2019-07-10T07:31:18Z</time>
      </trkpt>
      <trkpt lat="39.7039010" lon="-6.7094680">
        <ele>369.8</ele>
        <time>2019-07-10T07:31:25Z</time>
      </trkpt>
      <trkpt lat="39.7038740" lon="-6.7096210">
        <ele>369.6</ele>
        <time>2019-07-10T07:31:27Z</time>
      </trkpt>
      <trkpt lat="39.7038150" lon="-6.7099710">
        <ele>369.2</ele>
        <time>2019-07-10T07:31:30Z</time>
      </trkpt>
      <trkpt lat="39.7037960" lon="-6.7100670">
        <ele>368.8</ele>
        <time>2019-07-10T07:31:32Z</time>
      </trkpt>
      <trkpt lat="39.7037770" lon="-6.7101670">
        <ele>368.6</ele>
        <time>2019-07-10T07:31:33Z</time>
      </trkpt>
      <trkpt lat="39.7037580" lon="-6.7102710">
        <ele>368.2</ele>
        <time>2019-07-10T07:31:34Z</time>
      </trkpt>
      <trkpt lat="39.7037380" lon="-6.7103780">
        <ele>367.8</ele>
        <time>2019-07-10T07:31:35Z</time>
      </trkpt>
      <trkpt lat="39.7036980" lon="-6.7106010">
        <ele>367.2</ele>
        <time>2019-07-10T07:31:37Z</time>
      </trkpt>
      <trkpt lat="39.7036580" lon="-6.7108300">
        <ele>366.0</ele>
        <time>2019-07-10T07:31:39Z</time>
      </trkpt>
      <trkpt lat="39.7036390" lon="-6.7109450">
        <ele>365.8</ele>
        <time>2019-07-10T07:31:40Z</time>
      </trkpt>
      <trkpt lat="39.7035840" lon="-6.7112670">
        <ele>365.4</ele>
        <time>2019-07-10T07:31:43Z</time>
      </trkpt>
      <trkpt lat="39.7035260" lon="-6.7115560">
        <ele>365.8</ele>
        <time>2019-07-10T07:31:46Z</time>
      </trkpt>
      <trkpt lat="39.7034520" lon="-6.7118250">
        <ele>366.2</ele>
        <time>2019-07-10T07:31:49Z</time>
      </trkpt>
      <trkpt lat="39.7033730" lon="-6.7120780">
        <ele>366.4</ele>
        <time>2019-07-10T07:31:52Z</time>
      </trkpt>
      <trkpt lat="39.7033460" lon="-6.7121600">
        <ele>366.4</ele>
        <time>2019-07-10T07:31:53Z</time>
      </trkpt>
      <trkpt lat="39.7032900" lon="-6.7123230">
        <ele>366.8</ele>
        <time>2019-07-10T07:31:55Z</time>
      </trkpt>
      <trkpt lat="39.7031050" lon="-6.7128030">
        <ele>366.6</ele>
        <time>2019-07-10T07:32:01Z</time>
      </trkpt>
      <trkpt lat="39.7029910" lon="-6.7133220">
        <ele>366.6</ele>
        <time>2019-07-10T07:32:07Z</time>
      </trkpt>
      <trkpt lat="39.7029790" lon="-6.7135990">
        <ele>366.6</ele>
        <time>2019-07-10T07:32:10Z</time>
      </trkpt>
      <trkpt lat="39.7030050" lon="-6.7138860">
        <ele>366.4</ele>
        <time>2019-07-10T07:32:12Z</time>
      </trkpt>
      <trkpt lat="39.7030050" lon="-6.7138860">
        <ele>366.2</ele>
        <time>2019-07-10T07:32:13Z</time>
      </trkpt>
      <trkpt lat="39.7030720" lon="-6.7141890">
        <ele>365.4</ele>
        <time>2019-07-10T07:32:16Z</time>
      </trkpt>
      <trkpt lat="39.7031840" lon="-6.7145020">
        <ele>364.4</ele>
        <time>2019-07-10T07:32:18Z</time>
      </trkpt>
      <trkpt lat="39.7032730" lon="-6.7147250">
        <ele>363.2</ele>
        <time>2019-07-10T07:32:21Z</time>
      </trkpt>
      <trkpt lat="39.7033650" lon="-6.7149590">
        <ele>361.6</ele>
        <time>2019-07-10T07:32:23Z</time>
      </trkpt>
      <trkpt lat="39.7034620" lon="-6.7152010">
        <ele>360.4</ele>
        <time>2019-07-10T07:32:25Z</time>
      </trkpt>
      <trkpt lat="39.7035630" lon="-6.7154490">
        <ele>359.0</ele>
        <time>2019-07-10T07:32:27Z</time>
      </trkpt>
      <trkpt lat="39.7036700" lon="-6.7157040">
        <ele>358.0</ele>
        <time>2019-07-10T07:32:29Z</time>
      </trkpt>
      <trkpt lat="39.7037230" lon="-6.7158340">
        <ele>357.4</ele>
        <time>2019-07-10T07:32:30Z</time>
      </trkpt>
      <trkpt lat="39.7038280" lon="-6.7160940">
        <ele>356.2</ele>
        <time>2019-07-10T07:32:32Z</time>
      </trkpt>
      <trkpt lat="39.7039810" lon="-6.7164770">
        <ele>354.8</ele>
        <time>2019-07-10T07:32:35Z</time>
      </trkpt>
      <trkpt lat="39.7041320" lon="-6.7168520">
        <ele>353.6</ele>
        <time>2019-07-10T07:32:38Z</time>
      </trkpt>
      <trkpt lat="39.7043810" lon="-6.7174490">
        <ele>352.4</ele>
        <time>2019-07-10T07:32:42Z</time>
      </trkpt>
      <trkpt lat="39.7045550" lon="-6.7178890">
        <ele>352.2</ele>
        <time>2019-07-10T07:32:47Z</time>
      </trkpt>
      <trkpt lat="39.7045920" lon="-6.7179920">
        <ele>352.2</ele>
        <time>2019-07-10T07:32:48Z</time>
      </trkpt>
      <trkpt lat="39.7046660" lon="-6.7181990">
        <ele>352.2</ele>
        <time>2019-07-10T07:32:50Z</time>
      </trkpt>
      <trkpt lat="39.7047780" lon="-6.7187230">
        <ele>351.2</ele>
        <time>2019-07-10T07:32:54Z</time>
      </trkpt>
      <trkpt lat="39.7047780" lon="-6.7187230">
        <ele>351.0</ele>
        <time>2019-07-10T07:32:55Z</time>
      </trkpt>
      <trkpt lat="39.7048320" lon="-6.7191660">
        <ele>349.8</ele>
        <time>2019-07-10T07:32:59Z</time>
      </trkpt>
      <trkpt lat="39.7048840" lon="-6.7196270">
        <ele>348.8</ele>
        <time>2019-07-10T07:33:03Z</time>
      </trkpt>
      <trkpt lat="39.7048970" lon="-6.7197420">
        <ele>348.4</ele>
        <time>2019-07-10T07:33:04Z</time>
      </trkpt>
      <trkpt lat="39.7049600" lon="-6.7203740">
        <ele>347.6</ele>
        <time>2019-07-10T07:33:10Z</time>
      </trkpt>
      <trkpt lat="39.7049410" lon="-6.7206550">
        <ele>347.8</ele>
        <time>2019-07-10T07:33:12Z</time>
      </trkpt>
      <trkpt lat="39.7049280" lon="-6.7207420">
        <ele>348.0</ele>
        <time>2019-07-10T07:33:14Z</time>
      </trkpt>
      <trkpt lat="39.7049110" lon="-6.7208250">
        <ele>348.2</ele>
        <time>2019-07-10T07:33:15Z</time>
      </trkpt>
      <trkpt lat="39.7048740" lon="-6.7209770">
        <ele>348.8</ele>
        <time>2019-07-10T07:33:17Z</time>
      </trkpt>
      <trkpt lat="39.7048280" lon="-6.7211140">
        <ele>349.4</ele>
        <time>2019-07-10T07:33:19Z</time>
      </trkpt>
      <trkpt lat="39.7048060" lon="-6.7211790">
        <ele>349.8</ele>
        <time>2019-07-10T07:33:20Z</time>
      </trkpt>
      <trkpt lat="39.7047840" lon="-6.7212440">
        <ele>350.0</ele>
        <time>2019-07-10T07:33:21Z</time>
      </trkpt>
      <trkpt lat="39.7047600" lon="-6.7213070">
        <ele>350.2</ele>
        <time>2019-07-10T07:33:22Z</time>
      </trkpt>
      <trkpt lat="39.7046910" lon="-6.7214870">
        <ele>350.6</ele>
        <time>2019-07-10T07:33:24Z</time>
      </trkpt>
      <trkpt lat="39.7046910" lon="-6.7214870">
        <ele>350.8</ele>
        <time>2019-07-10T07:33:25Z</time>
      </trkpt>
      <trkpt lat="39.7046510" lon="-6.7216030">
        <ele>351.4</ele>
        <time>2019-07-10T07:33:27Z</time>
      </trkpt>
      <trkpt lat="39.7046320" lon="-6.7216620">
        <ele>351.6</ele>
        <time>2019-07-10T07:33:28Z</time>
      </trkpt>
      <trkpt lat="39.7045630" lon="-6.7218260">
        <ele>352.0</ele>
        <time>2019-07-10T07:33:30Z</time>
      </trkpt>
      <trkpt lat="39.7045420" lon="-6.7218810">
        <ele>352.2</ele>
        <time>2019-07-10T07:33:32Z</time>
      </trkpt>
      <trkpt lat="39.7045050" lon="-6.7219920">
        <ele>352.6</ele>
        <time>2019-07-10T07:33:34Z</time>
      </trkpt>
      <trkpt lat="39.7044870" lon="-6.7220460">
        <ele>353.0</ele>
        <time>2019-07-10T07:33:35Z</time>
      </trkpt>
      <trkpt lat="39.7044480" lon="-6.7221520">
        <ele>353.4</ele>
        <time>2019-07-10T07:33:37Z</time>
      </trkpt>
      <trkpt lat="39.7044090" lon="-6.7222570">
        <ele>353.8</ele>
        <time>2019-07-10T07:33:39Z</time>
      </trkpt>
      <trkpt lat="39.7043890" lon="-6.7223090">
        <ele>354.2</ele>
        <time>2019-07-10T07:33:40Z</time>
      </trkpt>
      <trkpt lat="39.7043310" lon="-6.7224670">
        <ele>355.0</ele>
        <time>2019-07-10T07:33:43Z</time>
      </trkpt>
      <trkpt lat="39.7043110" lon="-6.7225200">
        <ele>355.4</ele>
        <time>2019-07-10T07:33:44Z</time>
      </trkpt>
      <trkpt lat="39.7042580" lon="-6.7226820">
        <ele>356.2</ele>
        <time>2019-07-10T07:33:47Z</time>
      </trkpt>
      <trkpt lat="39.7042390" lon="-6.7227360">
        <ele>356.6</ele>
        <time>2019-07-10T07:33:48Z</time>
      </trkpt>
      <trkpt lat="39.7041990" lon="-6.7228370">
        <ele>357.0</ele>
        <time>2019-07-10T07:33:50Z</time>
      </trkpt>
      <trkpt lat="39.7041550" lon="-6.7229340">
        <ele>357.6</ele>
        <time>2019-07-10T07:33:52Z</time>
      </trkpt>
      <trkpt lat="39.7041380" lon="-6.7229860">
        <ele>357.6</ele>
        <time>2019-07-10T07:33:53Z</time>
      </trkpt>
      <trkpt lat="39.7040970" lon="-6.7231480">
        <ele>358.6</ele>
        <time>2019-07-10T07:33:56Z</time>
      </trkpt>
      <trkpt lat="39.7040780" lon="-6.7232040">
        <ele>358.8</ele>
        <time>2019-07-10T07:33:57Z</time>
      </trkpt>
      <trkpt lat="39.7040460" lon="-6.7233160">
        <ele>359.2</ele>
        <time>2019-07-10T07:33:59Z</time>
      </trkpt>
      <trkpt lat="39.7039480" lon="-6.7238770">
        <ele>359.6</ele>
        <time>2019-07-10T07:34:08Z</time>
      </trkpt>
      <trkpt lat="39.7038810" lon="-6.7243400">
        <ele>359.2</ele>
        <time>2019-07-10T07:34:14Z</time>
      </trkpt>
      <trkpt lat="39.7038690" lon="-6.7244280">
        <ele>359.0</ele>
        <time>2019-07-10T07:34:15Z</time>
      </trkpt>
      <trkpt lat="39.7038470" lon="-6.7246140">
        <ele>358.6</ele>
        <time>2019-07-10T07:34:17Z</time>
      </trkpt>
      <trkpt lat="39.7038250" lon="-6.7248150">
        <ele>357.6</ele>
        <time>2019-07-10T07:34:19Z</time>
      </trkpt>
      <trkpt lat="39.7037960" lon="-6.7250230">
        <ele>357.0</ele>
        <time>2019-07-10T07:34:21Z</time>
      </trkpt>
      <trkpt lat="39.7037820" lon="-6.7251260">
        <ele>356.6</ele>
        <time>2019-07-10T07:34:22Z</time>
      </trkpt>
      <trkpt lat="39.7037670" lon="-6.7252280">
        <ele>356.2</ele>
        <time>2019-07-10T07:34:23Z</time>
      </trkpt>
      <trkpt lat="39.7037090" lon="-6.7257040">
        <ele>356.0</ele>
        <time>2019-07-10T07:34:28Z</time>
      </trkpt>
      <trkpt lat="39.7036770" lon="-6.7259560">
        <ele>356.4</ele>
        <time>2019-07-10T07:34:30Z</time>
      </trkpt>
      <trkpt lat="39.7036540" lon="-6.7261160">
        <ele>357.0</ele>
        <time>2019-07-10T07:34:33Z</time>
      </trkpt>
      <trkpt lat="39.7036310" lon="-6.7262720">
        <ele>357.2</ele>
        <time>2019-07-10T07:34:35Z</time>
      </trkpt>
      <trkpt lat="39.7036130" lon="-6.7264280">
        <ele>357.4</ele>
        <time>2019-07-10T07:34:37Z</time>
      </trkpt>
      <trkpt lat="39.7035660" lon="-6.7268870">
        <ele>358.4</ele>
        <time>2019-07-10T07:34:42Z</time>
      </trkpt>
      <trkpt lat="39.7035520" lon="-6.7270440">
        <ele>358.6</ele>
        <time>2019-07-10T07:34:45Z</time>
      </trkpt>
      <trkpt lat="39.7034960" lon="-6.7276000">
        <ele>359.4</ele>
        <time>2019-07-10T07:34:52Z</time>
      </trkpt>
      <trkpt lat="39.7034700" lon="-6.7279160">
        <ele>359.6</ele>
        <time>2019-07-10T07:34:56Z</time>
      </trkpt>
      <trkpt lat="39.7034210" lon="-6.7285040">
        <ele>360.2</ele>
        <time>2019-07-10T07:35:04Z</time>
      </trkpt>
      <trkpt lat="39.7034140" lon="-6.7285740">
        <ele>360.4</ele>
        <time>2019-07-10T07:35:05Z</time>
      </trkpt>
      <trkpt lat="39.7033770" lon="-6.7289290">
        <ele>361.2</ele>
        <time>2019-07-10T07:35:10Z</time>
      </trkpt>
      <trkpt lat="39.7033720" lon="-6.7290010">
        <ele>361.6</ele>
        <time>2019-07-10T07:35:11Z</time>
      </trkpt>
      <trkpt lat="39.7033450" lon="-6.7292130">
        <ele>361.8</ele>
        <time>2019-07-10T07:35:14Z</time>
      </trkpt>
      <trkpt lat="39.7033210" lon="-6.7294280">
        <ele>362.6</ele>
        <time>2019-07-10T07:35:17Z</time>
      </trkpt>
      <trkpt lat="39.7032850" lon="-6.7298630">
        <ele>363.6</ele>
        <time>2019-07-10T07:35:23Z</time>
      </trkpt>
      <trkpt lat="39.7032690" lon="-6.7300060">
        <ele>363.6</ele>
        <time>2019-07-10T07:35:24Z</time>
      </trkpt>
      <trkpt lat="39.7032520" lon="-6.7302220">
        <ele>364.4</ele>
        <time>2019-07-10T07:35:28Z</time>
      </trkpt>
      <trkpt lat="39.7032290" lon="-6.7304380">
        <ele>364.8</ele>
        <time>2019-07-10T07:35:31Z</time>
      </trkpt>
      <trkpt lat="39.7032230" lon="-6.7305100">
        <ele>364.8</ele>
        <time>2019-07-10T07:35:32Z</time>
      </trkpt>
      <trkpt lat="39.7031900" lon="-6.7308670">
        <ele>365.6</ele>
        <time>2019-07-10T07:35:37Z</time>
      </trkpt>
      <trkpt lat="39.7031730" lon="-6.7310130">
        <ele>365.8</ele>
        <time>2019-07-10T07:35:39Z</time>
      </trkpt>
      <trkpt lat="39.7031610" lon="-6.7311640">
        <ele>366.2</ele>
        <time>2019-07-10T07:35:41Z</time>
      </trkpt>
      <trkpt lat="39.7031200" lon="-6.7317700">
        <ele>366.8</ele>
        <time>2019-07-10T07:35:48Z</time>
      </trkpt>
      <trkpt lat="39.7031210" lon="-6.7318450">
        <ele>367.0</ele>
        <time>2019-07-10T07:35:50Z</time>
      </trkpt>
      <trkpt lat="39.7031260" lon="-6.7319190">
        <ele>367.4</ele>
        <time>2019-07-10T07:35:51Z</time>
      </trkpt>
      <trkpt lat="39.7031610" lon="-6.7322010">
        <ele>368.2</ele>
        <time>2019-07-10T07:35:54Z</time>
      </trkpt>
      <trkpt lat="39.7031730" lon="-6.7322650">
        <ele>368.8</ele>
        <time>2019-07-10T07:35:56Z</time>
      </trkpt>
      <trkpt lat="39.7032110" lon="-6.7323920">
        <ele>369.4</ele>
        <time>2019-07-10T07:35:58Z</time>
      </trkpt>
      <trkpt lat="39.7032750" lon="-6.7325770">
        <ele>370.2</ele>
        <time>2019-07-10T07:36:01Z</time>
      </trkpt>
      <trkpt lat="39.7032970" lon="-6.7326370">
        <ele>370.4</ele>
        <time>2019-07-10T07:36:02Z</time>
      </trkpt>
      <trkpt lat="39.7033200" lon="-6.7326930">
        <ele>370.8</ele>
        <time>2019-07-10T07:36:03Z</time>
      </trkpt>
      <trkpt lat="39.7033950" lon="-6.7328560">
        <ele>371.6</ele>
        <time>2019-07-10T07:36:05Z</time>
      </trkpt>
      <trkpt lat="39.7034920" lon="-6.7330760">
        <ele>372.4</ele>
        <time>2019-07-10T07:36:10Z</time>
      </trkpt>
      <trkpt lat="39.7035910" lon="-6.7332830">
        <ele>373.6</ele>
        <time>2019-07-10T07:36:14Z</time>
      </trkpt>
      <trkpt lat="39.7037180" lon="-6.7335740">
        <ele>374.6</ele>
        <time>2019-07-10T07:36:19Z</time>
      </trkpt>
      <trkpt lat="39.7037580" lon="-6.7336740">
        <ele>375.0</ele>
        <time>2019-07-10T07:36:21Z</time>
      </trkpt>
      <trkpt lat="39.7038470" lon="-6.7338740">
        <ele>375.6</ele>
        <time>2019-07-10T07:36:25Z</time>
      </trkpt>
      <trkpt lat="39.7039570" lon="-6.7341100">
        <ele>376.8</ele>
        <time>2019-07-10T07:36:30Z</time>
      </trkpt>
      <trkpt lat="39.7039760" lon="-6.7341560">
        <ele>377.2</ele>
        <time>2019-07-10T07:36:32Z</time>
      </trkpt>
      <trkpt lat="39.7041070" lon="-6.7344070">
        <ele>377.8</ele>
        <time>2019-07-10T07:36:37Z</time>
      </trkpt>
      <trkpt lat="39.7041470" lon="-6.7344960">
        <ele>378.2</ele>
        <time>2019-07-10T07:36:39Z</time>
      </trkpt>
      <trkpt lat="39.7042250" lon="-6.7346780">
        <ele>379.0</ele>
        <time>2019-07-10T07:36:43Z</time>
      </trkpt>
      <trkpt lat="39.7043210" lon="-6.7348970">
        <ele>380.0</ele>
        <time>2019-07-10T07:36:48Z</time>
      </trkpt>
      <trkpt lat="39.7043390" lon="-6.7349400">
        <ele>380.4</ele>
        <time>2019-07-10T07:36:50Z</time>
      </trkpt>
      <trkpt lat="39.7044170" lon="-6.7351020">
        <ele>381.0</ele>
        <time>2019-07-10T07:36:53Z</time>
      </trkpt>
      <trkpt lat="39.7044910" lon="-6.7352630">
        <ele>382.2</ele>
        <time>2019-07-10T07:36:57Z</time>
      </trkpt>
      <trkpt lat="39.7044910" lon="-6.7352630">
        <ele>382.4</ele>
        <time>2019-07-10T07:36:58Z</time>
      </trkpt>
      <trkpt lat="39.7045630" lon="-6.7354150">
        <ele>383.2</ele>
        <time>2019-07-10T07:37:01Z</time>
      </trkpt>
      <trkpt lat="39.7046020" lon="-6.7354880">
        <ele>384.0</ele>
        <time>2019-07-10T07:37:04Z</time>
      </trkpt>
      <trkpt lat="39.7046380" lon="-6.7355640">
        <ele>384.2</ele>
        <time>2019-07-10T07:37:05Z</time>
      </trkpt>
      <trkpt lat="39.7047170" lon="-6.7357310">
        <ele>385.4</ele>
        <time>2019-07-10T07:37:09Z</time>
      </trkpt>
      <trkpt lat="39.7047950" lon="-6.7359030">
        <ele>386.4</ele>
        <time>2019-07-10T07:37:13Z</time>
      </trkpt>
      <trkpt lat="39.7048790" lon="-6.7360910">
        <ele>387.2</ele>
        <time>2019-07-10T07:37:17Z</time>
      </trkpt>
      <trkpt lat="39.7049440" lon="-6.7361790">
        <ele>387.4</ele>
        <time>2019-07-10T07:37:19Z</time>
      </trkpt>
      <trkpt lat="39.7051750" lon="-6.7365460">
        <ele>388.0</ele>
        <time>2019-07-10T07:37:27Z</time>
      </trkpt>
      <trkpt lat="39.7053380" lon="-6.7367670">
        <ele>388.0</ele>
        <time>2019-07-10T07:37:30Z</time>
      </trkpt>
      <trkpt lat="39.7053810" lon="-6.7368270">
        <ele>387.8</ele>
        <time>2019-07-10T07:37:32Z</time>
      </trkpt>
      <trkpt lat="39.7054760" lon="-6.7369500">
        <ele>387.4</ele>
        <time>2019-07-10T07:37:34Z</time>
      </trkpt>
      <trkpt lat="39.7055760" lon="-6.7370820">
        <ele>387.2</ele>
        <time>2019-07-10T07:37:35Z</time>
      </trkpt>
      <trkpt lat="39.7056730" lon="-6.7372350">
        <ele>386.6</ele>
        <time>2019-07-10T07:37:37Z</time>
      </trkpt>
      <trkpt lat="39.7057010" lon="-6.7372970">
        <ele>386.4</ele>
        <time>2019-07-10T07:37:38Z</time>
      </trkpt>
      <trkpt lat="39.7057290" lon="-6.7373590">
        <ele>385.8</ele>
        <time>2019-07-10T07:37:39Z</time>
      </trkpt>
      <trkpt lat="39.7058420" lon="-6.7376080">
        <ele>385.2</ele>
        <time>2019-07-10T07:37:41Z</time>
      </trkpt>
      <trkpt lat="39.7059030" lon="-6.7378280">
        <ele>384.4</ele>
        <time>2019-07-10T07:37:43Z</time>
      </trkpt>
      <trkpt lat="39.7059140" lon="-6.7378880">
        <ele>384.0</ele>
        <time>2019-07-10T07:37:44Z</time>
      </trkpt>
      <trkpt lat="39.7059250" lon="-6.7379480">
        <ele>383.6</ele>
        <time>2019-07-10T07:37:45Z</time>
      </trkpt>
      <trkpt lat="39.7059810" lon="-6.7382700">
        <ele>383.0</ele>
        <time>2019-07-10T07:37:46Z</time>
      </trkpt>
      <trkpt lat="39.7060150" lon="-6.7384710">
        <ele>381.8</ele>
        <time>2019-07-10T07:37:48Z</time>
      </trkpt>
      <trkpt lat="39.7060430" lon="-6.7386170">
        <ele>380.2</ele>
        <time>2019-07-10T07:37:50Z</time>
      </trkpt>
      <trkpt lat="39.7060970" lon="-6.7389310">
        <ele>378.6</ele>
        <time>2019-07-10T07:37:52Z</time>
      </trkpt>
      <trkpt lat="39.7061500" lon="-6.7391830">
        <ele>377.6</ele>
        <time>2019-07-10T07:37:53Z</time>
      </trkpt>
      <trkpt lat="39.7062020" lon="-6.7394350">
        <ele>376.2</ele>
        <time>2019-07-10T07:37:54Z</time>
      </trkpt>
      <trkpt lat="39.7062540" lon="-6.7396050">
        <ele>374.2</ele>
        <time>2019-07-10T07:37:55Z</time>
      </trkpt>
      <trkpt lat="39.7062960" lon="-6.7397150">
        <ele>372.8</ele>
        <time>2019-07-10T07:37:56Z</time>
      </trkpt>
      <trkpt lat="39.7063370" lon="-6.7398260">
        <ele>371.6</ele>
        <time>2019-07-10T07:37:57Z</time>
      </trkpt>
      <trkpt lat="39.7065040" lon="-6.7402670">
        <ele>369.4</ele>
        <time>2019-07-10T07:37:59Z</time>
      </trkpt>
      <trkpt lat="39.7066140" lon="-6.7406010">
        <ele>367.6</ele>
        <time>2019-07-10T07:38:01Z</time>
      </trkpt>
      <trkpt lat="39.7066900" lon="-6.7409450">
        <ele>365.8</ele>
        <time>2019-07-10T07:38:03Z</time>
      </trkpt>
      <trkpt lat="39.7067170" lon="-6.7413010">
        <ele>364.2</ele>
        <time>2019-07-10T07:38:05Z</time>
      </trkpt>
      <trkpt lat="39.7067040" lon="-6.7416620">
        <ele>362.2</ele>
        <time>2019-07-10T07:38:07Z</time>
      </trkpt>
      <trkpt lat="39.7066780" lon="-6.7420210">
        <ele>360.6</ele>
        <time>2019-07-10T07:38:09Z</time>
      </trkpt>
      <trkpt lat="39.7066550" lon="-6.7423790">
        <ele>359.4</ele>
        <time>2019-07-10T07:38:11Z</time>
      </trkpt>
      <trkpt lat="39.7066280" lon="-6.7427360">
        <ele>358.4</ele>
        <time>2019-07-10T07:38:13Z</time>
      </trkpt>
      <trkpt lat="39.7065950" lon="-6.7430900">
        <ele>357.4</ele>
        <time>2019-07-10T07:38:15Z</time>
      </trkpt>
      <trkpt lat="39.7065610" lon="-6.7434410">
        <ele>356.0</ele>
        <time>2019-07-10T07:38:17Z</time>
      </trkpt>
      <trkpt lat="39.7065400" lon="-6.7436150">
        <ele>355.6</ele>
        <time>2019-07-10T07:38:18Z</time>
      </trkpt>
      <trkpt lat="39.7065190" lon="-6.7437880">
        <ele>354.4</ele>
        <time>2019-07-10T07:38:20Z</time>
      </trkpt>
      <trkpt lat="39.7064690" lon="-6.7441320">
        <ele>352.8</ele>
        <time>2019-07-10T07:38:22Z</time>
      </trkpt>
      <trkpt lat="39.7063760" lon="-6.7446420">
        <ele>351.6</ele>
        <time>2019-07-10T07:38:24Z</time>
      </trkpt>
      <trkpt lat="39.7063480" lon="-6.7448120">
        <ele>351.0</ele>
        <time>2019-07-10T07:38:25Z</time>
      </trkpt>
      <trkpt lat="39.7063290" lon="-6.7449230">
        <ele>350.0</ele>
        <time>2019-07-10T07:38:26Z</time>
      </trkpt>
      <trkpt lat="39.7063090" lon="-6.7450340">
        <ele>349.0</ele>
        <time>2019-07-10T07:38:27Z</time>
      </trkpt>
      <trkpt lat="39.7062300" lon="-6.7454780">
        <ele>347.4</ele>
        <time>2019-07-10T07:38:29Z</time>
      </trkpt>
      <trkpt lat="39.7061400" lon="-6.7457890">
        <ele>346.4</ele>
        <time>2019-07-10T07:38:31Z</time>
      </trkpt>
      <trkpt lat="39.7060120" lon="-6.7460700">
        <ele>345.6</ele>
        <time>2019-07-10T07:38:33Z</time>
      </trkpt>
      <trkpt lat="39.7059500" lon="-6.7461600">
        <ele>345.0</ele>
        <time>2019-07-10T07:38:34Z</time>
      </trkpt>
      <trkpt lat="39.7058870" lon="-6.7462490">
        <ele>344.4</ele>
        <time>2019-07-10T07:38:35Z</time>
      </trkpt>
      <trkpt lat="39.7057610" lon="-6.7464280">
        <ele>343.6</ele>
        <time>2019-07-10T07:38:36Z</time>
      </trkpt>
      <trkpt lat="39.7056680" lon="-6.7465340">
        <ele>342.4</ele>
        <time>2019-07-10T07:38:38Z</time>
      </trkpt>
      <trkpt lat="39.7054820" lon="-6.7467380">
        <ele>341.4</ele>
        <time>2019-07-10T07:38:40Z</time>
      </trkpt>
      <trkpt lat="39.7053980" lon="-6.7468350">
        <ele>341.0</ele>
        <time>2019-07-10T07:38:41Z</time>
      </trkpt>
      <trkpt lat="39.7051460" lon="-6.7471240">
        <ele>341.0</ele>
        <time>2019-07-10T07:38:44Z</time>
      </trkpt>
      <trkpt lat="39.7047040" lon="-6.7476040">
        <ele>341.4</ele>
        <time>2019-07-10T07:38:49Z</time>
      </trkpt>
      <trkpt lat="39.7044770" lon="-6.7479260">
        <ele>341.6</ele>
        <time>2019-07-10T07:38:53Z</time>
      </trkpt>
      <trkpt lat="39.7043930" lon="-6.7481080">
        <ele>341.2</ele>
        <time>2019-07-10T07:38:55Z</time>
      </trkpt>
      <trkpt lat="39.7042650" lon="-6.7485100">
        <ele>340.6</ele>
        <time>2019-07-10T07:38:59Z</time>
      </trkpt>
      <trkpt lat="39.7042470" lon="-6.7486200">
        <ele>340.4</ele>
        <time>2019-07-10T07:39:00Z</time>
      </trkpt>
      <trkpt lat="39.7042340" lon="-6.7487340">
        <ele>340.0</ele>
        <time>2019-07-10T07:39:02Z</time>
      </trkpt>
      <trkpt lat="39.7042120" lon="-6.7492190">
        <ele>338.6</ele>
        <time>2019-07-10T07:39:05Z</time>
      </trkpt>
      <trkpt lat="39.7042070" lon="-6.7494840">
        <ele>337.4</ele>
        <time>2019-07-10T07:39:08Z</time>
      </trkpt>
      <trkpt lat="39.7041980" lon="-6.7497660">
        <ele>336.4</ele>
        <time>2019-07-10T07:39:10Z</time>
      </trkpt>
      <trkpt lat="39.7041950" lon="-6.7499940">
        <ele>335.8</ele>
        <time>2019-07-10T07:39:11Z</time>
      </trkpt>
      <trkpt lat="39.7041920" lon="-6.7502210">
        <ele>335.0</ele>
        <time>2019-07-10T07:39:12Z</time>
      </trkpt>
      <trkpt lat="39.7041930" lon="-6.7503810">
        <ele>333.6</ele>
        <time>2019-07-10T07:39:14Z</time>
      </trkpt>
      <trkpt lat="39.7041890" lon="-6.7507090">
        <ele>332.2</ele>
        <time>2019-07-10T07:39:16Z</time>
      </trkpt>
      <trkpt lat="39.7041810" lon="-6.7509290">
        <ele>331.8</ele>
        <time>2019-07-10T07:39:17Z</time>
      </trkpt>
      <trkpt lat="39.7041660" lon="-6.7513690">
        <ele>331.0</ele>
        <time>2019-07-10T07:39:19Z</time>
      </trkpt>
      <trkpt lat="39.7041530" lon="-6.7518460">
        <ele>329.6</ele>
        <time>2019-07-10T07:39:22Z</time>
      </trkpt>
      <trkpt lat="39.7041490" lon="-6.7521530">
        <ele>328.4</ele>
        <time>2019-07-10T07:39:24Z</time>
      </trkpt>
      <trkpt lat="39.7041460" lon="-6.7523050">
        <ele>328.0</ele>
        <time>2019-07-10T07:39:25Z</time>
      </trkpt>
      <trkpt lat="39.7041410" lon="-6.7526090">
        <ele>327.2</ele>
        <time>2019-07-10T07:39:27Z</time>
      </trkpt>
      <trkpt lat="39.7041270" lon="-6.7529160">
        <ele>326.2</ele>
        <time>2019-07-10T07:39:29Z</time>
      </trkpt>
      <trkpt lat="39.7040850" lon="-6.7532230">
        <ele>325.0</ele>
        <time>2019-07-10T07:39:31Z</time>
      </trkpt>
      <trkpt lat="39.7040010" lon="-6.7535180">
        <ele>323.8</ele>
        <time>2019-07-10T07:39:33Z</time>
      </trkpt>
      <trkpt lat="39.7038770" lon="-6.7537940">
        <ele>322.8</ele>
        <time>2019-07-10T07:39:35Z</time>
      </trkpt>
      <trkpt lat="39.7037220" lon="-6.7540530">
        <ele>321.4</ele>
        <time>2019-07-10T07:39:37Z</time>
      </trkpt>
      <trkpt lat="39.7035650" lon="-6.7543050">
        <ele>320.2</ele>
        <time>2019-07-10T07:39:39Z</time>
      </trkpt>
      <trkpt lat="39.7034870" lon="-6.7544270">
        <ele>319.6</ele>
        <time>2019-07-10T07:39:40Z</time>
      </trkpt>
      <trkpt lat="39.7034110" lon="-6.7545460">
        <ele>319.0</ele>
        <time>2019-07-10T07:39:41Z</time>
      </trkpt>
      <trkpt lat="39.7031500" lon="-6.7550120">
        <ele>318.2</ele>
        <time>2019-07-10T07:39:45Z</time>
      </trkpt>
      <trkpt lat="39.7030750" lon="-6.7552630">
        <ele>318.2</ele>
        <time>2019-07-10T07:39:47Z</time>
      </trkpt>
      <trkpt lat="39.7030400" lon="-6.7555150">
        <ele>318.2</ele>
        <time>2019-07-10T07:39:49Z</time>
      </trkpt>
      <trkpt lat="39.7030490" lon="-6.7557610">
        <ele>318.2</ele>
        <time>2019-07-10T07:39:51Z</time>
      </trkpt>
      <trkpt lat="39.7030960" lon="-6.7559860">
        <ele>318.2</ele>
        <time>2019-07-10T07:39:53Z</time>
      </trkpt>
      <trkpt lat="39.7032780" lon="-6.7563460">
        <ele>318.2</ele>
        <time>2019-07-10T07:39:57Z</time>
      </trkpt>
      <trkpt lat="39.7033880" lon="-6.7564930">
        <ele>318.2</ele>
        <time>2019-07-10T07:39:59Z</time>
      </trkpt>
      <trkpt lat="39.7036120" lon="-6.7567370">
        <ele>318.4</ele>
        <time>2019-07-10T07:40:03Z</time>
      </trkpt>
      <trkpt lat="39.7037660" lon="-6.7569110">
        <ele>318.6</ele>
        <time>2019-07-10T07:40:06Z</time>
      </trkpt>
      <trkpt lat="39.7038140" lon="-6.7569700">
        <ele>318.6</ele>
        <time>2019-07-10T07:40:07Z</time>
      </trkpt>
      <trkpt lat="39.7038870" lon="-6.7570520">
        <ele>318.6</ele>
        <time>2019-07-10T07:40:08Z</time>
      </trkpt>
      <trkpt lat="39.7039590" lon="-6.7571340">
        <ele>318.6</ele>
        <time>2019-07-10T07:40:10Z</time>
      </trkpt>
      <trkpt lat="39.7040550" lon="-6.7572380">
        <ele>318.8</ele>
        <time>2019-07-10T07:40:12Z</time>
      </trkpt>
      <trkpt lat="39.7043680" lon="-6.7576070">
        <ele>319.0</ele>
        <time>2019-07-10T07:40:20Z</time>
      </trkpt>
      <trkpt lat="39.7044530" lon="-6.7577090">
        <ele>319.0</ele>
        <time>2019-07-10T07:40:21Z</time>
      </trkpt>
      <trkpt lat="39.7046210" lon="-6.7579220">
        <ele>319.4</ele>
        <time>2019-07-10T07:40:25Z</time>
      </trkpt>
      <trkpt lat="39.7046930" lon="-6.7580410">
        <ele>319.6</ele>
        <time>2019-07-10T07:40:27Z</time>
      </trkpt>
      <trkpt lat="39.7046930" lon="-6.7580410">
        <ele>319.6</ele>
        <time>2019-07-10T07:40:28Z</time>
      </trkpt>
      <trkpt lat="39.7048700" lon="-6.7584300">
        <ele>320.0</ele>
        <time>2019-07-10T07:40:33Z</time>
      </trkpt>
      <trkpt lat="39.7049100" lon="-6.7585700">
        <ele>320.0</ele>
        <time>2019-07-10T07:40:35Z</time>
      </trkpt>
      <trkpt lat="39.7049370" lon="-6.7587180">
        <ele>320.2</ele>
        <time>2019-07-10T07:40:38Z</time>
      </trkpt>
      <trkpt lat="39.7050060" lon="-6.7591640">
        <ele>320.4</ele>
        <time>2019-07-10T07:40:43Z</time>
      </trkpt>
      <trkpt lat="39.7050700" lon="-6.7596250">
        <ele>320.0</ele>
        <time>2019-07-10T07:40:49Z</time>
      </trkpt>
      <trkpt lat="39.7051100" lon="-6.7598550">
        <ele>320.6</ele>
        <time>2019-07-10T07:40:52Z</time>
      </trkpt>
      <trkpt lat="39.7051290" lon="-6.7600100">
        <ele>320.8</ele>
        <time>2019-07-10T07:40:54Z</time>
      </trkpt>
      <trkpt lat="39.7052140" lon="-6.7607060">
        <ele>320.4</ele>
        <time>2019-07-10T07:41:03Z</time>
      </trkpt>
      <trkpt lat="39.7052330" lon="-6.7608480">
        <ele>320.8</ele>
        <time>2019-07-10T07:41:05Z</time>
      </trkpt>
      <trkpt lat="39.7052540" lon="-6.7609840">
        <ele>321.6</ele>
        <time>2019-07-10T07:41:07Z</time>
      </trkpt>
      <trkpt lat="39.7053060" lon="-6.7613470">
        <ele>322.8</ele>
        <time>2019-07-10T07:41:13Z</time>
      </trkpt>
      <trkpt lat="39.7053410" lon="-6.7616140">
        <ele>324.2</ele>
        <time>2019-07-10T07:41:18Z</time>
      </trkpt>
      <trkpt lat="39.7053620" lon="-6.7618140">
        <ele>325.0</ele>
        <time>2019-07-10T07:41:22Z</time>
      </trkpt>
      <trkpt lat="39.7053690" lon="-6.7618630">
        <ele>325.4</ele>
        <time>2019-07-10T07:41:23Z</time>
      </trkpt>
      <trkpt lat="39.7053780" lon="-6.7619110">
        <ele>325.6</ele>
        <time>2019-07-10T07:41:24Z</time>
      </trkpt>
      <trkpt lat="39.7054050" lon="-6.7620560">
        <ele>326.6</ele>
        <time>2019-07-10T07:41:28Z</time>
      </trkpt>
      <trkpt lat="39.7054300" lon="-6.7622480">
        <ele>327.4</ele>
        <time>2019-07-10T07:41:31Z</time>
      </trkpt>
      <trkpt lat="39.7054300" lon="-6.7622480">
        <ele>327.8</ele>
        <time>2019-07-10T07:41:32Z</time>
      </trkpt>
      <trkpt lat="39.7054520" lon="-6.7624340">
        <ele>328.8</ele>
        <time>2019-07-10T07:41:35Z</time>
      </trkpt>
      <trkpt lat="39.7054620" lon="-6.7625240">
        <ele>330.0</ele>
        <time>2019-07-10T07:41:38Z</time>
      </trkpt>
      <trkpt lat="39.7054860" lon="-6.7627050">
        <ele>331.2</ele>
        <time>2019-07-10T07:41:41Z</time>
      </trkpt>
      <trkpt lat="39.7054970" lon="-6.7627960">
        <ele>332.0</ele>
        <time>2019-07-10T07:41:44Z</time>
      </trkpt>
      <trkpt lat="39.7055100" lon="-6.7628860">
        <ele>332.4</ele>
        <time>2019-07-10T07:41:46Z</time>
      </trkpt>
      <trkpt lat="39.7055260" lon="-6.7630780">
        <ele>333.4</ele>
        <time>2019-07-10T07:41:50Z</time>
      </trkpt>
      <trkpt lat="39.7055420" lon="-6.7632920">
        <ele>334.0</ele>
        <time>2019-07-10T07:41:53Z</time>
      </trkpt>
      <trkpt lat="39.7055480" lon="-6.7633470">
        <ele>334.4</ele>
        <time>2019-07-10T07:41:54Z</time>
      </trkpt>
      <trkpt lat="39.7055550" lon="-6.7636010">
        <ele>335.8</ele>
        <time>2019-07-10T07:41:59Z</time>
      </trkpt>
      <trkpt lat="39.7055590" lon="-6.7636500">
        <ele>336.0</ele>
        <time>2019-07-10T07:42:00Z</time>
      </trkpt>
      <trkpt lat="39.7055650" lon="-6.7637950">
        <ele>336.8</ele>
        <time>2019-07-10T07:42:04Z</time>
      </trkpt>
      <trkpt lat="39.7055640" lon="-6.7640800">
        <ele>337.8</ele>
        <time>2019-07-10T07:42:09Z</time>
      </trkpt>
      <trkpt lat="39.7055600" lon="-6.7642690">
        <ele>339.0</ele>
        <time>2019-07-10T07:42:14Z</time>
      </trkpt>
      <trkpt lat="39.7055560" lon="-6.7644960">
        <ele>340.0</ele>
        <time>2019-07-10T07:42:18Z</time>
      </trkpt>
      <trkpt lat="39.7055520" lon="-6.7645430">
        <ele>340.0</ele>
        <time>2019-07-10T07:42:19Z</time>
      </trkpt>
      <trkpt lat="39.7055550" lon="-6.7647860">
        <ele>340.8</ele>
        <time>2019-07-10T07:42:24Z</time>
      </trkpt>
      <trkpt lat="39.7055660" lon="-6.7649270">
        <ele>341.2</ele>
        <time>2019-07-10T07:42:27Z</time>
      </trkpt>
      <trkpt lat="39.7055810" lon="-6.7651140">
        <ele>342.2</ele>
        <time>2019-07-10T07:42:32Z</time>
      </trkpt>
      <trkpt lat="39.7055850" lon="-6.7652070">
        <ele>342.2</ele>
        <time>2019-07-10T07:42:33Z</time>
      </trkpt>
      <trkpt lat="39.7055950" lon="-6.7653410">
        <ele>342.8</ele>
        <time>2019-07-10T07:42:36Z</time>
      </trkpt>
      <trkpt lat="39.7055930" lon="-6.7653850">
        <ele>343.4</ele>
        <time>2019-07-10T07:42:38Z</time>
      </trkpt>
      <trkpt lat="39.7055950" lon="-6.7655750">
        <ele>343.8</ele>
        <time>2019-07-10T07:42:41Z</time>
      </trkpt>
      <trkpt lat="39.7056040" lon="-6.7657180">
        <ele>344.4</ele>
        <time>2019-07-10T07:42:44Z</time>
      </trkpt>
      <trkpt lat="39.7055930" lon="-6.7658650">
        <ele>344.8</ele>
        <time>2019-07-10T07:42:47Z</time>
      </trkpt>
      <trkpt lat="39.7055510" lon="-6.7661240">
        <ele>345.4</ele>
        <time>2019-07-10T07:42:52Z</time>
      </trkpt>
      <trkpt lat="39.7055240" lon="-6.7663420">
        <ele>345.8</ele>
        <time>2019-07-10T07:42:56Z</time>
      </trkpt>
      <trkpt lat="39.7055170" lon="-6.7663950">
        <ele>346.0</ele>
        <time>2019-07-10T07:42:57Z</time>
      </trkpt>
      <trkpt lat="39.7054910" lon="-6.7666030">
        <ele>346.6</ele>
        <time>2019-07-10T07:43:01Z</time>
      </trkpt>
      <trkpt lat="39.7054470" lon="-6.7669170">
        <ele>347.4</ele>
        <time>2019-07-10T07:43:07Z</time>
      </trkpt>
      <trkpt lat="39.7054470" lon="-6.7669170">
        <ele>347.8</ele>
        <time>2019-07-10T07:43:08Z</time>
      </trkpt>
      <trkpt lat="39.7054130" lon="-6.7672140">
        <ele>349.0</ele>
        <time>2019-07-10T07:43:14Z</time>
      </trkpt>
      <trkpt lat="39.7053880" lon="-6.7673500">
        <ele>349.6</ele>
        <time>2019-07-10T07:43:16Z</time>
      </trkpt>
      <trkpt lat="39.7053800" lon="-6.7673950">
        <ele>349.8</ele>
        <time>2019-07-10T07:43:17Z</time>
      </trkpt>
      <trkpt lat="39.7053370" lon="-6.7676170">
        <ele>350.8</ele>
        <time>2019-07-10T07:43:22Z</time>
      </trkpt>
      <trkpt lat="39.7053250" lon="-6.7676600">
        <ele>351.0</ele>
        <time>2019-07-10T07:43:23Z</time>
      </trkpt>
      <trkpt lat="39.7052970" lon="-6.7677460">
        <ele>351.8</ele>
        <time>2019-07-10T07:43:26Z</time>
      </trkpt>
      <trkpt lat="39.7052060" lon="-6.7680020">
        <ele>352.8</ele>
        <time>2019-07-10T07:43:31Z</time>
      </trkpt>
      <trkpt lat="39.7051180" lon="-6.7682030">
        <ele>354.0</ele>
        <time>2019-07-10T07:43:36Z</time>
      </trkpt>
      <trkpt lat="39.7050850" lon="-6.7682840">
        <ele>354.4</ele>
        <time>2019-07-10T07:43:38Z</time>
      </trkpt>
      <trkpt lat="39.7050360" lon="-6.7684050">
        <ele>355.4</ele>
        <time>2019-07-10T07:43:41Z</time>
      </trkpt>
      <trkpt lat="39.7049450" lon="-6.7685910">
        <ele>356.4</ele>
        <time>2019-07-10T07:43:46Z</time>
      </trkpt>
      <trkpt lat="39.7048580" lon="-6.7687910">
        <ele>357.4</ele>
        <time>2019-07-10T07:43:51Z</time>
      </trkpt>
      <trkpt lat="39.7048470" lon="-6.7688360">
        <ele>357.6</ele>
        <time>2019-07-10T07:43:52Z</time>
      </trkpt>
      <trkpt lat="39.7047820" lon="-6.7690800">
        <ele>358.4</ele>
        <time>2019-07-10T07:43:58Z</time>
      </trkpt>
      <trkpt lat="39.7047670" lon="-6.7691810">
        <ele>358.4</ele>
        <time>2019-07-10T07:43:59Z</time>
      </trkpt>
      <trkpt lat="39.7047610" lon="-6.7692360">
        <ele>358.6</ele>
        <time>2019-07-10T07:44:00Z</time>
      </trkpt>
      <trkpt lat="39.7047530" lon="-6.7692950">
        <ele>358.6</ele>
        <time>2019-07-10T07:44:01Z</time>
      </trkpt>
      <trkpt lat="39.7047420" lon="-6.7693550">
        <ele>358.6</ele>
        <time>2019-07-10T07:44:02Z</time>
      </trkpt>
      <trkpt lat="39.7047260" lon="-6.7696260">
        <ele>358.6</ele>
        <time>2019-07-10T07:44:06Z</time>
      </trkpt>
      <trkpt lat="39.7047250" lon="-6.7697740">
        <ele>358.0</ele>
        <time>2019-07-10T07:44:08Z</time>
      </trkpt>
      <trkpt lat="39.7047220" lon="-6.7699270">
        <ele>358.0</ele>
        <time>2019-07-10T07:44:10Z</time>
      </trkpt>
      <trkpt lat="39.7047190" lon="-6.7701680">
        <ele>357.8</ele>
        <time>2019-07-10T07:44:13Z</time>
      </trkpt>
      <trkpt lat="39.7047140" lon="-6.7703330">
        <ele>357.6</ele>
        <time>2019-07-10T07:44:15Z</time>
      </trkpt>
      <trkpt lat="39.7047110" lon="-6.7704160">
        <ele>357.6</ele>
        <time>2019-07-10T07:44:16Z</time>
      </trkpt>
      <trkpt lat="39.7047090" lon="-6.7704980">
        <ele>357.4</ele>
        <time>2019-07-10T07:44:17Z</time>
      </trkpt>
      <trkpt lat="39.7047070" lon="-6.7707430">
        <ele>357.6</ele>
        <time>2019-07-10T07:44:20Z</time>
      </trkpt>
      <trkpt lat="39.7046990" lon="-6.7709910">
        <ele>357.2</ele>
        <time>2019-07-10T07:44:23Z</time>
      </trkpt>
      <trkpt lat="39.7046920" lon="-6.7713240">
        <ele>357.0</ele>
        <time>2019-07-10T07:44:27Z</time>
      </trkpt>
      <trkpt lat="39.7046900" lon="-6.7718270">
        <ele>357.2</ele>
        <time>2019-07-10T07:44:33Z</time>
      </trkpt>
      <trkpt lat="39.7046830" lon="-6.7720910">
        <ele>357.0</ele>
        <time>2019-07-10T07:44:36Z</time>
      </trkpt>
      <trkpt lat="39.7046730" lon="-6.7723630">
        <ele>356.6</ele>
        <time>2019-07-10T07:44:39Z</time>
      </trkpt>
      <trkpt lat="39.7046690" lon="-6.7724570">
        <ele>356.4</ele>
        <time>2019-07-10T07:44:40Z</time>
      </trkpt>
      <trkpt lat="39.7046610" lon="-6.7726440">
        <ele>356.4</ele>
        <time>2019-07-10T07:44:42Z</time>
      </trkpt>
      <trkpt lat="39.7046580" lon="-6.7730080">
        <ele>355.8</ele>
        <time>2019-07-10T07:44:46Z</time>
      </trkpt>
      <trkpt lat="39.7046510" lon="-6.7736520">
        <ele>356.0</ele>
        <time>2019-07-10T07:44:54Z</time>
      </trkpt>
      <trkpt lat="39.7046400" lon="-6.7740260">
        <ele>357.2</ele>
        <time>2019-07-10T07:45:00Z</time>
      </trkpt>
      <trkpt lat="39.7046430" lon="-6.7741240">
        <ele>357.6</ele>
        <time>2019-07-10T07:45:02Z</time>
      </trkpt>
      <trkpt lat="39.7046330" lon="-6.7742590">
        <ele>358.6</ele>
        <time>2019-07-10T07:45:05Z</time>
      </trkpt>
      <trkpt lat="39.7046310" lon="-6.7742980">
        <ele>359.0</ele>
        <time>2019-07-10T07:45:06Z</time>
      </trkpt>
      <trkpt lat="39.7046330" lon="-6.7744130">
        <ele>359.8</ele>
        <time>2019-07-10T07:45:09Z</time>
      </trkpt>
      <trkpt lat="39.7046330" lon="-6.7744530">
        <ele>360.2</ele>
        <time>2019-07-10T07:45:10Z</time>
      </trkpt>
      <trkpt lat="39.7046340" lon="-6.7745370">
        <ele>360.6</ele>
        <time>2019-07-10T07:45:12Z</time>
      </trkpt>
      <trkpt lat="39.7046370" lon="-6.7746690">
        <ele>361.2</ele>
        <time>2019-07-10T07:45:15Z</time>
      </trkpt>
      <trkpt lat="39.7046350" lon="-6.7747570">
        <ele>362.0</ele>
        <time>2019-07-10T07:45:17Z</time>
      </trkpt>
      <trkpt lat="39.7046320" lon="-6.7748440">
        <ele>362.4</ele>
        <time>2019-07-10T07:45:19Z</time>
      </trkpt>
      <trkpt lat="39.7046310" lon="-6.7749310">
        <ele>362.8</ele>
        <time>2019-07-10T07:45:21Z</time>
      </trkpt>
      <trkpt lat="39.7046250" lon="-6.7750610">
        <ele>363.6</ele>
        <time>2019-07-10T07:45:24Z</time>
      </trkpt>
      <trkpt lat="39.7046220" lon="-6.7751040">
        <ele>363.8</ele>
        <time>2019-07-10T07:45:25Z</time>
      </trkpt>
      <trkpt lat="39.7046160" lon="-6.7752760">
        <ele>364.8</ele>
        <time>2019-07-10T07:45:29Z</time>
      </trkpt>
      <trkpt lat="39.7046050" lon="-6.7754960">
        <ele>366.0</ele>
        <time>2019-07-10T07:45:34Z</time>
      </trkpt>
      <trkpt lat="39.7045990" lon="-6.7756280">
        <ele>366.6</ele>
        <time>2019-07-10T07:45:37Z</time>
      </trkpt>
      <trkpt lat="39.7045950" lon="-6.7757150">
        <ele>367.0</ele>
        <time>2019-07-10T07:45:39Z</time>
      </trkpt>
      <trkpt lat="39.7045790" lon="-6.7758890">
        <ele>368.0</ele>
        <time>2019-07-10T07:45:43Z</time>
      </trkpt>
      <trkpt lat="39.7045730" lon="-6.7759330">
        <ele>368.2</ele>
        <time>2019-07-10T07:45:44Z</time>
      </trkpt>
      <trkpt lat="39.7045480" lon="-6.7761580">
        <ele>369.2</ele>
        <time>2019-07-10T07:45:49Z</time>
      </trkpt>
      <trkpt lat="39.7045250" lon="-6.7763790">
        <ele>370.2</ele>
        <time>2019-07-10T07:45:54Z</time>
      </trkpt>
      <trkpt lat="39.7045200" lon="-6.7764220">
        <ele>370.2</ele>
        <time>2019-07-10T07:45:55Z</time>
      </trkpt>
      <trkpt lat="39.7044790" lon="-6.7766810">
        <ele>371.2</ele>
        <time>2019-07-10T07:46:01Z</time>
      </trkpt>
      <trkpt lat="39.7044710" lon="-6.7767680">
        <ele>371.4</ele>
        <time>2019-07-10T07:46:03Z</time>
      </trkpt>
      <trkpt lat="39.7044580" lon="-6.7768990">
        <ele>372.2</ele>
        <time>2019-07-10T07:46:06Z</time>
      </trkpt>
      <trkpt lat="39.7044310" lon="-6.7771180">
        <ele>373.2</ele>
        <time>2019-07-10T07:46:11Z</time>
      </trkpt>
      <trkpt lat="39.7044270" lon="-6.7771620">
        <ele>373.4</ele>
        <time>2019-07-10T07:46:12Z</time>
      </trkpt>
      <trkpt lat="39.7043990" lon="-6.7773800">
        <ele>374.2</ele>
        <time>2019-07-10T07:46:17Z</time>
      </trkpt>
      <trkpt lat="39.7043840" lon="-6.7775130">
        <ele>375.0</ele>
        <time>2019-07-10T07:46:20Z</time>
      </trkpt>
      <trkpt lat="39.7043680" lon="-6.7776470">
        <ele>375.4</ele>
        <time>2019-07-10T07:46:23Z</time>
      </trkpt>
      <trkpt lat="39.7043240" lon="-6.7778750">
        <ele>376.4</ele>
        <time>2019-07-10T07:46:28Z</time>
      </trkpt>
      <trkpt lat="39.7043130" lon="-6.7779220">
        <ele>376.6</ele>
        <time>2019-07-10T07:46:29Z</time>
      </trkpt>
      <trkpt lat="39.7042170" lon="-6.7782060">
        <ele>377.4</ele>
        <time>2019-07-10T07:46:35Z</time>
      </trkpt>
      <trkpt lat="39.7041970" lon="-6.7782570">
        <ele>377.4</ele>
        <time>2019-07-10T07:46:36Z</time>
      </trkpt>
      <trkpt lat="39.7041540" lon="-6.7783620">
        <ele>377.4</ele>
        <time>2019-07-10T07:46:38Z</time>
      </trkpt>
      <trkpt lat="39.7040730" lon="-6.7785200">
        <ele>377.4</ele>
        <time>2019-07-10T07:46:41Z</time>
      </trkpt>
      <trkpt lat="39.7040060" lon="-6.7786270">
        <ele>377.4</ele>
        <time>2019-07-10T07:46:43Z</time>
      </trkpt>
      <trkpt lat="39.7038650" lon="-6.7788470">
        <ele>377.2</ele>
        <time>2019-07-10T07:46:47Z</time>
      </trkpt>
      <trkpt lat="39.7037550" lon="-6.7790080">
        <ele>377.0</ele>
        <time>2019-07-10T07:46:50Z</time>
      </trkpt>
      <trkpt lat="39.7036130" lon="-6.7792230">
        <ele>376.8</ele>
        <time>2019-07-10T07:46:54Z</time>
      </trkpt>
      <trkpt lat="39.7033900" lon="-6.7795640">
        <ele>376.6</ele>
        <time>2019-07-10T07:47:00Z</time>
      </trkpt>
      <trkpt lat="39.7033520" lon="-6.7796220">
        <ele>376.6</ele>
        <time>2019-07-10T07:47:02Z</time>
      </trkpt>
      <trkpt lat="39.7032820" lon="-6.7797500">
        <ele>376.6</ele>
        <time>2019-07-10T07:47:03Z</time>
      </trkpt>
      <trkpt lat="39.7032250" lon="-6.7798960">
        <ele>376.4</ele>
        <time>2019-07-10T07:47:05Z</time>
      </trkpt>
      <trkpt lat="39.7030980" lon="-6.7803120">
        <ele>375.6</ele>
        <time>2019-07-10T07:47:10Z</time>
      </trkpt>
      <trkpt lat="39.7030620" lon="-6.7804970">
        <ele>375.0</ele>
        <time>2019-07-10T07:47:12Z</time>
      </trkpt>
      <trkpt lat="39.7030330" lon="-6.7807890">
        <ele>374.4</ele>
        <time>2019-07-10T07:47:15Z</time>
      </trkpt>
      <trkpt lat="39.7030300" lon="-6.7808890">
        <ele>374.2</ele>
        <time>2019-07-10T07:47:16Z</time>
      </trkpt>
      <trkpt lat="39.7030700" lon="-6.7813920">
        <ele>373.4</ele>
        <time>2019-07-10T07:47:21Z</time>
      </trkpt>
      <trkpt lat="39.7030820" lon="-6.7814900">
        <ele>373.2</ele>
        <time>2019-07-10T07:47:22Z</time>
      </trkpt>
      <trkpt lat="39.7031540" lon="-6.7819770">
        <ele>373.2</ele>
        <time>2019-07-10T07:47:28Z</time>
      </trkpt>
      <trkpt lat="39.7032160" lon="-6.7823690">
        <ele>373.0</ele>
        <time>2019-07-10T07:47:31Z</time>
      </trkpt>
      <trkpt lat="39.7033210" lon="-6.7831360">
        <ele>372.6</ele>
        <time>2019-07-10T07:47:39Z</time>
      </trkpt>
      <trkpt lat="39.7033350" lon="-6.7832300">
        <ele>372.4</ele>
        <time>2019-07-10T07:47:40Z</time>
      </trkpt>
      <trkpt lat="39.7033770" lon="-6.7835120">
        <ele>372.4</ele>
        <time>2019-07-10T07:47:43Z</time>
      </trkpt>
      <trkpt lat="39.7034600" lon="-6.7840920">
        <ele>371.8</ele>
        <time>2019-07-10T07:47:50Z</time>
      </trkpt>
      <trkpt lat="39.7034880" lon="-6.7842900">
        <ele>371.8</ele>
        <time>2019-07-10T07:47:51Z</time>
      </trkpt>
      <trkpt lat="39.7035440" lon="-6.7846920">
        <ele>371.2</ele>
        <time>2019-07-10T07:47:55Z</time>
      </trkpt>
      <trkpt lat="39.7036420" lon="-6.7854040">
        <ele>370.6</ele>
        <time>2019-07-10T07:48:02Z</time>
      </trkpt>
      <trkpt lat="39.7036720" lon="-6.7856060">
        <ele>370.4</ele>
        <time>2019-07-10T07:48:04Z</time>
      </trkpt>
      <trkpt lat="39.7037450" lon="-6.7860850">
        <ele>370.4</ele>
        <time>2019-07-10T07:48:09Z</time>
      </trkpt>
      <trkpt lat="39.7037850" lon="-6.7863490">
        <ele>370.4</ele>
        <time>2019-07-10T07:48:12Z</time>
      </trkpt>
      <trkpt lat="39.7038710" lon="-6.7869030">
        <ele>370.8</ele>
        <time>2019-07-10T07:48:19Z</time>
      </trkpt>
      <trkpt lat="39.7039230" lon="-6.7872650">
        <ele>371.8</ele>
        <time>2019-07-10T07:48:24Z</time>
      </trkpt>
      <trkpt lat="39.7039440" lon="-6.7874080">
        <ele>372.4</ele>
        <time>2019-07-10T07:48:26Z</time>
      </trkpt>
      <trkpt lat="39.7039520" lon="-6.7874800">
        <ele>372.6</ele>
        <time>2019-07-10T07:48:27Z</time>
      </trkpt>
      <trkpt lat="39.7040320" lon="-6.7880610">
        <ele>373.0</ele>
        <time>2019-07-10T07:48:35Z</time>
      </trkpt>
      <trkpt lat="39.7041210" lon="-6.7887040">
        <ele>371.6</ele>
        <time>2019-07-10T07:48:42Z</time>
      </trkpt>
      <trkpt lat="39.7041470" lon="-6.7889100">
        <ele>371.0</ele>
        <time>2019-07-10T07:48:44Z</time>
      </trkpt>
      <trkpt lat="39.7041760" lon="-6.7891220">
        <ele>370.4</ele>
        <time>2019-07-10T07:48:46Z</time>
      </trkpt>
      <trkpt lat="39.7042050" lon="-6.7893380">
        <ele>369.8</ele>
        <time>2019-07-10T07:48:48Z</time>
      </trkpt>
      <trkpt lat="39.7042180" lon="-6.7894490">
        <ele>369.0</ele>
        <time>2019-07-10T07:48:50Z</time>
      </trkpt>
      <trkpt lat="39.7042370" lon="-6.7895830">
        <ele>368.8</ele>
        <time>2019-07-10T07:48:51Z</time>
      </trkpt>
      <trkpt lat="39.7043120" lon="-6.7901180">
        <ele>367.6</ele>
        <time>2019-07-10T07:48:55Z</time>
      </trkpt>
      <trkpt lat="39.7043440" lon="-6.7903430">
        <ele>367.0</ele>
        <time>2019-07-10T07:48:57Z</time>
      </trkpt>
      <trkpt lat="39.7043740" lon="-6.7905690">
        <ele>366.6</ele>
        <time>2019-07-10T07:48:59Z</time>
      </trkpt>
      <trkpt lat="39.7044470" lon="-6.7910290">
        <ele>365.2</ele>
        <time>2019-07-10T07:49:03Z</time>
      </trkpt>
      <trkpt lat="39.7044790" lon="-6.7912620">
        <ele>364.6</ele>
        <time>2019-07-10T07:49:05Z</time>
      </trkpt>
      <trkpt lat="39.7045100" lon="-6.7914920">
        <ele>364.2</ele>
        <time>2019-07-10T07:49:07Z</time>
      </trkpt>
      <trkpt lat="39.7045610" lon="-6.7918300">
        <ele>363.2</ele>
        <time>2019-07-10T07:49:10Z</time>
      </trkpt>
      <trkpt lat="39.7046220" lon="-6.7922530">
        <ele>362.4</ele>
        <time>2019-07-10T07:49:14Z</time>
      </trkpt>
      <trkpt lat="39.7046510" lon="-6.7924460">
        <ele>362.4</ele>
        <time>2019-07-10T07:49:16Z</time>
      </trkpt>
      <trkpt lat="39.7047160" lon="-6.7928830">
        <ele>363.4</ele>
        <time>2019-07-10T07:49:21Z</time>
      </trkpt>
      <trkpt lat="39.7047630" lon="-6.7932040">
        <ele>364.0</ele>
        <time>2019-07-10T07:49:25Z</time>
      </trkpt>
      <trkpt lat="39.7047820" lon="-6.7933640">
        <ele>364.2</ele>
        <time>2019-07-10T07:49:27Z</time>
      </trkpt>
      <trkpt lat="39.7048180" lon="-6.7936000">
        <ele>364.4</ele>
        <time>2019-07-10T07:49:30Z</time>
      </trkpt>
      <trkpt lat="39.7048510" lon="-6.7938420">
        <ele>364.2</ele>
        <time>2019-07-10T07:49:33Z</time>
      </trkpt>
      <trkpt lat="39.7049540" lon="-6.7945910">
        <ele>364.0</ele>
        <time>2019-07-10T07:49:42Z</time>
      </trkpt>
      <trkpt lat="39.7050460" lon="-6.7952110">
        <ele>363.4</ele>
        <time>2019-07-10T07:49:50Z</time>
      </trkpt>
      <trkpt lat="39.7051550" lon="-6.7959670">
        <ele>363.4</ele>
        <time>2019-07-10T07:49:57Z</time>
      </trkpt>
      <trkpt lat="39.7051970" lon="-6.7962440">
        <ele>363.4</ele>
        <time>2019-07-10T07:50:00Z</time>
      </trkpt>
      <trkpt lat="39.7053120" lon="-6.7970050">
        <ele>363.6</ele>
        <time>2019-07-10T07:50:09Z</time>
      </trkpt>
      <trkpt lat="39.7053210" lon="-6.7970850">
        <ele>363.6</ele>
        <time>2019-07-10T07:50:10Z</time>
      </trkpt>
      <trkpt lat="39.7053850" lon="-6.7975520">
        <ele>364.0</ele>
        <time>2019-07-10T07:50:16Z</time>
      </trkpt>
      <trkpt lat="39.7054170" lon="-6.7977800">
        <ele>364.2</ele>
        <time>2019-07-10T07:50:20Z</time>
      </trkpt>
      <trkpt lat="39.7055250" lon="-6.7985400">
        <ele>365.0</ele>
        <time>2019-07-10T07:50:29Z</time>
      </trkpt>
      <trkpt lat="39.7055470" lon="-6.7986940">
        <ele>365.2</ele>
        <time>2019-07-10T07:50:32Z</time>
      </trkpt>
      <trkpt lat="39.7056480" lon="-6.7993770">
        <ele>366.0</ele>
        <time>2019-07-10T07:50:40Z</time>
      </trkpt>
      <trkpt lat="39.7056730" lon="-6.7995840">
        <ele>366.4</ele>
        <time>2019-07-10T07:50:44Z</time>
      </trkpt>
      <trkpt lat="39.7056980" lon="-6.7997150">
        <ele>366.6</ele>
        <time>2019-07-10T07:50:46Z</time>
      </trkpt>
      <trkpt lat="39.7057330" lon="-6.7999640">
        <ele>367.4</ele>
        <time>2019-07-10T07:50:49Z</time>
      </trkpt>
      <trkpt lat="39.7057760" lon="-6.8001960">
        <ele>368.6</ele>
        <time>2019-07-10T07:50:53Z</time>
      </trkpt>
      <trkpt lat="39.7058360" lon="-6.8004260">
        <ele>369.4</ele>
        <time>2019-07-10T07:50:57Z</time>
      </trkpt>
      <trkpt lat="39.7058690" lon="-6.8005480">
        <ele>369.6</ele>
        <time>2019-07-10T07:50:59Z</time>
      </trkpt>
      <trkpt lat="39.7059280" lon="-6.8007360">
        <ele>370.0</ele>
        <time>2019-07-10T07:51:02Z</time>
      </trkpt>
      <trkpt lat="39.7059920" lon="-6.8009260">
        <ele>370.2</ele>
        <time>2019-07-10T07:51:05Z</time>
      </trkpt>
      <trkpt lat="39.7060340" lon="-6.8010580">
        <ele>370.6</ele>
        <time>2019-07-10T07:51:08Z</time>
      </trkpt>
      <trkpt lat="39.7060980" lon="-6.8012580">
        <ele>370.8</ele>
        <time>2019-07-10T07:51:10Z</time>
      </trkpt>
      <trkpt lat="39.7062780" lon="-6.8018450">
        <ele>371.4</ele>
        <time>2019-07-10T07:51:20Z</time>
      </trkpt>
      <trkpt lat="39.7063440" lon="-6.8020390">
        <ele>371.4</ele>
        <time>2019-07-10T07:51:22Z</time>
      </trkpt>
      <trkpt lat="39.7064030" lon="-6.8022430">
        <ele>371.4</ele>
        <time>2019-07-10T07:51:26Z</time>
      </trkpt>
      <trkpt lat="39.7064890" lon="-6.8025240">
        <ele>371.6</ele>
        <time>2019-07-10T07:51:29Z</time>
      </trkpt>
      <trkpt lat="39.7065350" lon="-6.8026670">
        <ele>371.8</ele>
        <time>2019-07-10T07:51:32Z</time>
      </trkpt>
      <trkpt lat="39.7066300" lon="-6.8029610">
        <ele>371.8</ele>
        <time>2019-07-10T07:51:35Z</time>
      </trkpt>
      <trkpt lat="39.7066760" lon="-6.8031130">
        <ele>371.4</ele>
        <time>2019-07-10T07:51:38Z</time>
      </trkpt>
      <trkpt lat="39.7067210" lon="-6.8032660">
        <ele>371.2</ele>
        <time>2019-07-10T07:51:39Z</time>
      </trkpt>
      <trkpt lat="39.7068440" lon="-6.8037440">
        <ele>370.6</ele>
        <time>2019-07-10T07:51:45Z</time>
      </trkpt>
      <trkpt lat="39.7068550" lon="-6.8038300">
        <ele>370.6</ele>
        <time>2019-07-10T07:51:46Z</time>
      </trkpt>
      <trkpt lat="39.7068980" lon="-6.8044080">
        <ele>369.4</ele>
        <time>2019-07-10T07:51:52Z</time>
      </trkpt>
      <trkpt lat="39.7069030" lon="-6.8045150">
        <ele>369.0</ele>
        <time>2019-07-10T07:51:53Z</time>
      </trkpt>
      <trkpt lat="39.7069160" lon="-6.8047370">
        <ele>368.4</ele>
        <time>2019-07-10T07:51:55Z</time>
      </trkpt>
      <trkpt lat="39.7069420" lon="-6.8052090">
        <ele>367.2</ele>
        <time>2019-07-10T07:51:59Z</time>
      </trkpt>
      <trkpt lat="39.7069570" lon="-6.8054540">
        <ele>366.8</ele>
        <time>2019-07-10T07:52:01Z</time>
      </trkpt>
      <trkpt lat="39.7069690" lon="-6.8057060">
        <ele>366.0</ele>
        <time>2019-07-10T07:52:03Z</time>
      </trkpt>
      <trkpt lat="39.7069880" lon="-6.8060980">
        <ele>364.6</ele>
        <time>2019-07-10T07:52:06Z</time>
      </trkpt>
      <trkpt lat="39.7070180" lon="-6.8065010">
        <ele>363.6</ele>
        <time>2019-07-10T07:52:09Z</time>
      </trkpt>
      <trkpt lat="39.7070270" lon="-6.8066380">
        <ele>363.2</ele>
        <time>2019-07-10T07:52:10Z</time>
      </trkpt>
      <trkpt lat="39.7070420" lon="-6.8069150">
        <ele>362.2</ele>
        <time>2019-07-10T07:52:12Z</time>
      </trkpt>
      <trkpt lat="39.7070600" lon="-6.8073270">
        <ele>360.8</ele>
        <time>2019-07-10T07:52:15Z</time>
      </trkpt>
      <trkpt lat="39.7070820" lon="-6.8077200">
        <ele>360.0</ele>
        <time>2019-07-10T07:52:18Z</time>
      </trkpt>
      <trkpt lat="39.7070880" lon="-6.8078360">
        <ele>359.8</ele>
        <time>2019-07-10T07:52:19Z</time>
      </trkpt>
      <trkpt lat="39.7071040" lon="-6.8080340">
        <ele>359.2</ele>
        <time>2019-07-10T07:52:21Z</time>
      </trkpt>
      <trkpt lat="39.7071410" lon="-6.8081940">
        <ele>359.0</ele>
        <time>2019-07-10T07:52:23Z</time>
      </trkpt>
      <trkpt lat="39.7071700" lon="-6.8082660">
        <ele>358.8</ele>
        <time>2019-07-10T07:52:24Z</time>
      </trkpt>
      <trkpt lat="39.7073140" lon="-6.8084500">
        <ele>358.4</ele>
        <time>2019-07-10T07:52:27Z</time>
      </trkpt>
      <trkpt lat="39.7075510" lon="-6.8087090">
        <ele>357.6</ele>
        <time>2019-07-10T07:52:31Z</time>
      </trkpt>
      <trkpt lat="39.7076620" lon="-6.8088490">
        <ele>357.0</ele>
        <time>2019-07-10T07:52:34Z</time>
      </trkpt>
      <trkpt lat="39.7078760" lon="-6.8091060">
        <ele>357.2</ele>
        <time>2019-07-10T07:52:38Z</time>
      </trkpt>
      <trkpt lat="39.7079740" lon="-6.8092040">
        <ele>357.4</ele>
        <time>2019-07-10T07:52:39Z</time>
      </trkpt>
      <trkpt lat="39.7080770" lon="-6.8092800">
        <ele>357.8</ele>
        <time>2019-07-10T07:52:41Z</time>
      </trkpt>
      <trkpt lat="39.7081770" lon="-6.8093510">
        <ele>358.4</ele>
        <time>2019-07-10T07:52:43Z</time>
      </trkpt>
      <trkpt lat="39.7082130" lon="-6.8093760">
        <ele>358.8</ele>
        <time>2019-07-10T07:52:44Z</time>
      </trkpt>
      <trkpt lat="39.7082490" lon="-6.8094020">
        <ele>359.0</ele>
        <time>2019-07-10T07:52:45Z</time>
      </trkpt>
      <trkpt lat="39.7083210" lon="-6.8094540">
        <ele>359.2</ele>
        <time>2019-07-10T07:52:46Z</time>
      </trkpt>
      <trkpt lat="39.7083680" lon="-6.8094840">
        <ele>359.8</ele>
        <time>2019-07-10T07:52:47Z</time>
      </trkpt>
      <trkpt lat="39.7084640" lon="-6.8095420">
        <ele>360.6</ele>
        <time>2019-07-10T07:52:50Z</time>
      </trkpt>
      <trkpt lat="39.7085560" lon="-6.8096020">
        <ele>360.8</ele>
        <time>2019-07-10T07:52:51Z</time>
      </trkpt>
      <trkpt lat="39.7086500" lon="-6.8096650">
        <ele>361.2</ele>
        <time>2019-07-10T07:52:53Z</time>
      </trkpt>
      <trkpt lat="39.7087430" lon="-6.8097380">
        <ele>361.6</ele>
        <time>2019-07-10T07:52:55Z</time>
      </trkpt>
      <trkpt lat="39.7088380" lon="-6.8098120">
        <ele>361.6</ele>
        <time>2019-07-10T07:52:58Z</time>
      </trkpt>
      <trkpt lat="39.7090260" lon="-6.8099760">
        <ele>361.8</ele>
        <time>2019-07-10T07:53:01Z</time>
      </trkpt>
      <trkpt lat="39.7090260" lon="-6.8099760">
        <ele>362.0</ele>
        <time>2019-07-10T07:53:02Z</time>
      </trkpt>
      <trkpt lat="39.7093740" lon="-6.8104180">
        <ele>361.4</ele>
        <time>2019-07-10T07:53:09Z</time>
      </trkpt>
      <trkpt lat="39.7094710" lon="-6.8105320">
        <ele>360.8</ele>
        <time>2019-07-10T07:53:11Z</time>
      </trkpt>
      <trkpt lat="39.7095770" lon="-6.8106450">
        <ele>360.2</ele>
        <time>2019-07-10T07:53:14Z</time>
      </trkpt>
      <trkpt lat="39.7096990" lon="-6.8107470">
        <ele>359.8</ele>
        <time>2019-07-10T07:53:15Z</time>
      </trkpt>
      <trkpt lat="39.7098400" lon="-6.8108330">
        <ele>359.0</ele>
        <time>2019-07-10T07:53:17Z</time>
      </trkpt>
      <trkpt lat="39.7099180" lon="-6.8108700">
        <ele>358.4</ele>
        <time>2019-07-10T07:53:18Z</time>
      </trkpt>
      <trkpt lat="39.7100000" lon="-6.8109030">
        <ele>358.0</ele>
        <time>2019-07-10T07:53:20Z</time>
      </trkpt>
      <trkpt lat="39.7101730" lon="-6.8109650">
        <ele>357.0</ele>
        <time>2019-07-10T07:53:22Z</time>
      </trkpt>
      <trkpt lat="39.7104450" lon="-6.8110600">
        <ele>355.4</ele>
        <time>2019-07-10T07:53:24Z</time>
      </trkpt>
      <trkpt lat="39.7105380" lon="-6.8110940">
        <ele>354.2</ele>
        <time>2019-07-10T07:53:26Z</time>
      </trkpt>
      <trkpt lat="39.7108320" lon="-6.8111780">
        <ele>353.4</ele>
        <time>2019-07-10T07:53:28Z</time>
      </trkpt>
      <trkpt lat="39.7109330" lon="-6.8112060">
        <ele>352.8</ele>
        <time>2019-07-10T07:53:29Z</time>
      </trkpt>
      <trkpt lat="39.7111360" lon="-6.8112740">
        <ele>351.4</ele>
        <time>2019-07-10T07:53:31Z</time>
      </trkpt>
      <trkpt lat="39.7112040" lon="-6.8112970">
        <ele>350.6</ele>
        <time>2019-07-10T07:53:32Z</time>
      </trkpt>
      <trkpt lat="39.7112710" lon="-6.8113210">
        <ele>349.8</ele>
        <time>2019-07-10T07:53:33Z</time>
      </trkpt>
      <trkpt lat="39.7115410" lon="-6.8114140">
        <ele>348.8</ele>
        <time>2019-07-10T07:53:35Z</time>
      </trkpt>
      <trkpt lat="39.7117310" lon="-6.8114810">
        <ele>347.6</ele>
        <time>2019-07-10T07:53:37Z</time>
      </trkpt>
      <trkpt lat="39.7119130" lon="-6.8115620">
        <ele>347.0</ele>
        <time>2019-07-10T07:53:39Z</time>
      </trkpt>
      <trkpt lat="39.7120800" lon="-6.8116640">
        <ele>346.6</ele>
        <time>2019-07-10T07:53:41Z</time>
      </trkpt>
      <trkpt lat="39.7122280" lon="-6.8117780">
        <ele>345.8</ele>
        <time>2019-07-10T07:53:43Z</time>
      </trkpt>
      <trkpt lat="39.7122980" lon="-6.8118310">
        <ele>345.4</ele>
        <time>2019-07-10T07:53:44Z</time>
      </trkpt>
      <trkpt lat="39.7123670" lon="-6.8118850">
        <ele>344.4</ele>
        <time>2019-07-10T07:53:46Z</time>
      </trkpt>
      <trkpt lat="39.7124910" lon="-6.8119890">
        <ele>344.0</ele>
        <time>2019-07-10T07:53:47Z</time>
      </trkpt>
      <trkpt lat="39.7125940" lon="-6.8120830">
        <ele>343.4</ele>
        <time>2019-07-10T07:53:49Z</time>
      </trkpt>
      <trkpt lat="39.7126370" lon="-6.8121230">
        <ele>343.0</ele>
        <time>2019-07-10T07:53:51Z</time>
      </trkpt>
      <trkpt lat="39.7126790" lon="-6.8121550">
        <ele>342.6</ele>
        <time>2019-07-10T07:53:52Z</time>
      </trkpt>
      <trkpt lat="39.7128100" lon="-6.8121410">
        <ele>342.2</ele>
        <time>2019-07-10T07:53:54Z</time>
      </trkpt>
      <trkpt lat="39.7130240" lon="-6.8119730">
        <ele>342.0</ele>
        <time>2019-07-10T07:53:59Z</time>
      </trkpt>
      <trkpt lat="39.7131110" lon="-6.8119150">
        <ele>342.2</ele>
        <time>2019-07-10T07:54:01Z</time>
      </trkpt>
      <trkpt lat="39.7133710" lon="-6.8117400">
        <ele>343.2</ele>
        <time>2019-07-10T07:54:08Z</time>
      </trkpt>
      <trkpt lat="39.7134570" lon="-6.8116860">
        <ele>343.4</ele>
        <time>2019-07-10T07:54:10Z</time>
      </trkpt>
      <trkpt lat="39.7135410" lon="-6.8116310">
        <ele>343.4</ele>
        <time>2019-07-10T07:54:11Z</time>
      </trkpt>
      <trkpt lat="39.7135850" lon="-6.8116060">
        <ele>343.6</ele>
        <time>2019-07-10T07:54:12Z</time>
      </trkpt>
      <trkpt lat="39.7136300" lon="-6.8115840">
        <ele>344.0</ele>
        <time>2019-07-10T07:54:14Z</time>
      </trkpt>
      <trkpt lat="39.7137140" lon="-6.8115200">
        <ele>344.0</ele>
        <time>2019-07-10T07:54:15Z</time>
      </trkpt>
      <trkpt lat="39.7138000" lon="-6.8114580">
        <ele>344.0</ele>
        <time>2019-07-10T07:54:17Z</time>
      </trkpt>
      <trkpt lat="39.7138860" lon="-6.8114080">
        <ele>344.0</ele>
        <time>2019-07-10T07:54:19Z</time>
      </trkpt>
      <trkpt lat="39.7139650" lon="-6.8113550">
        <ele>344.2</ele>
        <time>2019-07-10T07:54:21Z</time>
      </trkpt>
      <trkpt lat="39.7140880" lon="-6.8112720">
        <ele>344.4</ele>
        <time>2019-07-10T07:54:24Z</time>
      </trkpt>
      <trkpt lat="39.7141340" lon="-6.8112490">
        <ele>344.6</ele>
        <time>2019-07-10T07:54:25Z</time>
      </trkpt>
      <trkpt lat="39.7143760" lon="-6.8111270">
        <ele>344.8</ele>
        <time>2019-07-10T07:54:30Z</time>
      </trkpt>
      <trkpt lat="39.7145230" lon="-6.8110430">
        <ele>344.6</ele>
        <time>2019-07-10T07:54:34Z</time>
      </trkpt>
      <trkpt lat="39.7149310" lon="-6.8108250">
        <ele>344.8</ele>
        <time>2019-07-10T07:54:42Z</time>
      </trkpt>
      <trkpt lat="39.7150680" lon="-6.8107320">
        <ele>344.6</ele>
        <time>2019-07-10T07:54:45Z</time>
      </trkpt>
      <trkpt lat="39.7151170" lon="-6.8106900">
        <ele>343.8</ele>
        <time>2019-07-10T07:54:47Z</time>
      </trkpt>
      <trkpt lat="39.7151990" lon="-6.8105750">
        <ele>343.2</ele>
        <time>2019-07-10T07:54:48Z</time>
      </trkpt>
      <trkpt lat="39.7152160" lon="-6.8105410">
        <ele>342.8</ele>
        <time>2019-07-10T07:54:49Z</time>
      </trkpt>
      <trkpt lat="39.7152330" lon="-6.8105060">
        <ele>342.4</ele>
        <time>2019-07-10T07:54:50Z</time>
      </trkpt>
      <trkpt lat="39.7153040" lon="-6.8103760">
        <ele>342.2</ele>
        <time>2019-07-10T07:54:51Z</time>
      </trkpt>
      <trkpt lat="39.7153950" lon="-6.8102950">
        <ele>341.6</ele>
        <time>2019-07-10T07:54:53Z</time>
      </trkpt>
      <trkpt lat="39.7155020" lon="-6.8102770">
        <ele>341.4</ele>
        <time>2019-07-10T07:54:55Z</time>
      </trkpt>
      <trkpt lat="39.7155390" lon="-6.8102840">
        <ele>341.2</ele>
        <time>2019-07-10T07:54:56Z</time>
      </trkpt>
      <trkpt lat="39.7155760" lon="-6.8102920">
        <ele>341.2</ele>
        <time>2019-07-10T07:54:57Z</time>
      </trkpt>
      <trkpt lat="39.7157230" lon="-6.8103230">
        <ele>340.8</ele>
        <time>2019-07-10T07:54:59Z</time>
      </trkpt>
      <trkpt lat="39.7158390" lon="-6.8103590">
        <ele>340.2</ele>
        <time>2019-07-10T07:55:01Z</time>
      </trkpt>
      <trkpt lat="39.7159470" lon="-6.8103840">
        <ele>339.6</ele>
        <time>2019-07-10T07:55:03Z</time>
      </trkpt>
      <trkpt lat="39.7160760" lon="-6.8104350">
        <ele>339.6</ele>
        <time>2019-07-10T07:55:06Z</time>
      </trkpt>
      <trkpt lat="39.7161120" lon="-6.8104510">
        <ele>339.0</ele>
        <time>2019-07-10T07:55:07Z</time>
      </trkpt>
      <trkpt lat="39.7161700" lon="-6.8104900">
        <ele>337.8</ele>
        <time>2019-07-10T07:55:09Z</time>
      </trkpt>
      <trkpt lat="39.7162180" lon="-6.8105270">
        <ele>337.0</ele>
        <time>2019-07-10T07:55:11Z</time>
      </trkpt>
      <trkpt lat="39.7162380" lon="-6.8105480">
        <ele>336.8</ele>
        <time>2019-07-10T07:55:12Z</time>
      </trkpt>
      <trkpt lat="39.7162610" lon="-6.8106450">
        <ele>336.4</ele>
        <time>2019-07-10T07:55:15Z</time>
      </trkpt>
      <trkpt lat="39.7162610" lon="-6.8106450">
        <ele>336.4</ele>
        <time>2019-07-10T07:55:16Z</time>
      </trkpt>
      <trkpt lat="39.7162320" lon="-6.8107670">
        <ele>336.2</ele>
        <time>2019-07-10T07:55:18Z</time>
      </trkpt>
      <trkpt lat="39.7161990" lon="-6.8109210">
        <ele>336.2</ele>
        <time>2019-07-10T07:55:21Z</time>
      </trkpt>
      <trkpt lat="39.7161520" lon="-6.8112010">
        <ele>335.8</ele>
        <time>2019-07-10T07:55:26Z</time>
      </trkpt>
      <trkpt lat="39.7160910" lon="-6.8115260">
        <ele>335.2</ele>
        <time>2019-07-10T07:55:29Z</time>
      </trkpt>
      <trkpt lat="39.7160460" lon="-6.8118560">
        <ele>334.6</ele>
        <time>2019-07-10T07:55:34Z</time>
      </trkpt>
      <trkpt lat="39.7160200" lon="-6.8120070">
        <ele>334.6</ele>
        <time>2019-07-10T07:55:35Z</time>
      </trkpt>
      <trkpt lat="39.7159840" lon="-6.8121360">
        <ele>335.0</ele>
        <time>2019-07-10T07:55:38Z</time>
      </trkpt>
      <trkpt lat="39.7159120" lon="-6.8123210">
        <ele>335.6</ele>
        <time>2019-07-10T07:55:42Z</time>
      </trkpt>
      <trkpt lat="39.7158890" lon="-6.8124010">
        <ele>336.4</ele>
        <time>2019-07-10T07:55:46Z</time>
      </trkpt>
      <trkpt lat="39.7158780" lon="-6.8124500">
        <ele>337.0</ele>
        <time>2019-07-10T07:56:46Z</time>
      </trkpt>
      <trkpt lat="39.7158680" lon="-6.8124990">
        <ele>337.0</ele>
        <time>2019-07-10T07:56:47Z</time>
      </trkpt>
      <trkpt lat="39.7158570" lon="-6.8125480">
        <ele>337.4</ele>
        <time>2019-07-10T07:56:53Z</time>
      </trkpt>
      <trkpt lat="39.7158470" lon="-6.8125970">
        <ele>337.8</ele>
        <time>2019-07-10T07:56:56Z</time>
      </trkpt>
      <trkpt lat="39.7158360" lon="-6.8126460">
        <ele>337.8</ele>
        <time>2019-07-10T07:56:57Z</time>
      </trkpt>
      <trkpt lat="39.7158340" lon="-6.8126820">
        <ele>338.0</ele>
        <time>2019-07-10T07:56:58Z</time>
      </trkpt>
      <trkpt lat="39.7158320" lon="-6.8127180">
        <ele>338.2</ele>
        <time>2019-07-10T07:56:59Z</time>
      </trkpt>
      <trkpt lat="39.7158290" lon="-6.8127920">
        <ele>338.6</ele>
        <time>2019-07-10T07:57:01Z</time>
      </trkpt>
      <trkpt lat="39.7158290" lon="-6.8127920">
        <ele>339.0</ele>
        <time>2019-07-10T07:57:02Z</time>
      </trkpt>
      <trkpt lat="39.7158210" lon="-6.8128650">
        <ele>339.4</ele>
        <time>2019-07-10T07:57:04Z</time>
      </trkpt>
      <trkpt lat="39.7157970" lon="-6.8129810">
        <ele>339.8</ele>
        <time>2019-07-10T07:57:06Z</time>
      </trkpt>
      <trkpt lat="39.7157860" lon="-6.8130210">
        <ele>340.0</ele>
        <time>2019-07-10T07:57:07Z</time>
      </trkpt>
      <trkpt lat="39.7157640" lon="-6.8130950">
        <ele>340.8</ele>
        <time>2019-07-10T07:57:10Z</time>
      </trkpt>
      <trkpt lat="39.7157530" lon="-6.8132120">
        <ele>341.4</ele>
        <time>2019-07-10T07:57:12Z</time>
      </trkpt>
      <trkpt lat="39.7157520" lon="-6.8132480">
        <ele>341.8</ele>
        <time>2019-07-10T07:57:13Z</time>
      </trkpt>
      <trkpt lat="39.7157520" lon="-6.8133190">
        <ele>342.4</ele>
        <time>2019-07-10T07:57:15Z</time>
      </trkpt>
      <trkpt lat="39.7157520" lon="-6.8133190">
        <ele>342.6</ele>
        <time>2019-07-10T07:57:16Z</time>
      </trkpt>
      <trkpt lat="39.7157560" lon="-6.8134360">
        <ele>343.2</ele>
        <time>2019-07-10T07:57:18Z</time>
      </trkpt>
      <trkpt lat="39.7157680" lon="-6.8135580">
        <ele>343.6</ele>
        <time>2019-07-10T07:57:21Z</time>
      </trkpt>
      <trkpt lat="39.7157790" lon="-6.8136390">
        <ele>343.8</ele>
        <time>2019-07-10T07:57:23Z</time>
      </trkpt>
      <trkpt lat="39.7158250" lon="-6.8138520">
        <ele>343.6</ele>
        <time>2019-07-10T07:57:27Z</time>
      </trkpt>
      <trkpt lat="39.7159080" lon="-6.8141390">
        <ele>342.6</ele>
        <time>2019-07-10T07:57:32Z</time>
      </trkpt>
      <trkpt lat="39.7159670" lon="-6.8143010">
        <ele>342.2</ele>
        <time>2019-07-10T07:57:33Z</time>
      </trkpt>
      <trkpt lat="39.7160430" lon="-6.8144600">
        <ele>341.8</ele>
        <time>2019-07-10T07:57:35Z</time>
      </trkpt>
      <trkpt lat="39.7160880" lon="-6.8145350">
        <ele>341.4</ele>
        <time>2019-07-10T07:57:36Z</time>
      </trkpt>
      <trkpt lat="39.7161360" lon="-6.8146050">
        <ele>341.2</ele>
        <time>2019-07-10T07:57:38Z</time>
      </trkpt>
      <trkpt lat="39.7162100" lon="-6.8146790">
        <ele>341.0</ele>
        <time>2019-07-10T07:57:39Z</time>
      </trkpt>
      <trkpt lat="39.7163580" lon="-6.8148260">
        <ele>340.8</ele>
        <time>2019-07-10T07:57:41Z</time>
      </trkpt>
      <trkpt lat="39.7164110" lon="-6.8148770">
        <ele>340.8</ele>
        <time>2019-07-10T07:57:42Z</time>
      </trkpt>
      <trkpt lat="39.7164590" lon="-6.8149320">
        <ele>340.8</ele>
        <time>2019-07-10T07:57:43Z</time>
      </trkpt>
      <trkpt lat="39.7165340" lon="-6.8150550">
        <ele>340.8</ele>
        <time>2019-07-10T07:57:45Z</time>
      </trkpt>
      <trkpt lat="39.7165440" lon="-6.8150860">
        <ele>340.8</ele>
        <time>2019-07-10T07:57:46Z</time>
      </trkpt>
      <trkpt lat="39.7165540" lon="-6.8151180">
        <ele>340.8</ele>
        <time>2019-07-10T07:57:47Z</time>
      </trkpt>
      <trkpt lat="39.7166150" lon="-6.8153070">
        <ele>341.0</ele>
        <time>2019-07-10T07:57:50Z</time>
      </trkpt>
      <trkpt lat="39.7166390" lon="-6.8154170">
        <ele>341.0</ele>
        <time>2019-07-10T07:57:51Z</time>
      </trkpt>
      <trkpt lat="39.7166660" lon="-6.8155140">
        <ele>341.6</ele>
        <time>2019-07-10T07:57:53Z</time>
      </trkpt>
      <trkpt lat="39.7166870" lon="-6.8156170">
        <ele>341.8</ele>
        <time>2019-07-10T07:57:55Z</time>
      </trkpt>
      <trkpt lat="39.7166850" lon="-6.8157320">
        <ele>342.0</ele>
        <time>2019-07-10T07:57:57Z</time>
      </trkpt>
      <trkpt lat="39.7166780" lon="-6.8159160">
        <ele>342.2</ele>
        <time>2019-07-10T07:58:00Z</time>
      </trkpt>
      <trkpt lat="39.7166800" lon="-6.8159740">
        <ele>342.2</ele>
        <time>2019-07-10T07:58:01Z</time>
      </trkpt>
      <trkpt lat="39.7166980" lon="-6.8160250">
        <ele>342.0</ele>
        <time>2019-07-10T07:58:02Z</time>
      </trkpt>
      <trkpt lat="39.7167150" lon="-6.8160760">
        <ele>342.0</ele>
        <time>2019-07-10T07:58:03Z</time>
      </trkpt>
      <trkpt lat="39.7167810" lon="-6.8161610">
        <ele>341.8</ele>
        <time>2019-07-10T07:58:05Z</time>
      </trkpt>
      <trkpt lat="39.7168440" lon="-6.8162450">
        <ele>341.4</ele>
        <time>2019-07-10T07:58:08Z</time>
      </trkpt>
      <trkpt lat="39.7168700" lon="-6.8163620">
        <ele>341.2</ele>
        <time>2019-07-10T07:58:09Z</time>
      </trkpt>
      <trkpt lat="39.7169080" lon="-6.8166390">
        <ele>340.6</ele>
        <time>2019-07-10T07:58:13Z</time>
      </trkpt>
      <trkpt lat="39.7169080" lon="-6.8166390">
        <ele>340.6</ele>
        <time>2019-07-10T07:58:14Z</time>
      </trkpt>
      <trkpt lat="39.7169780" lon="-6.8168760">
        <ele>340.4</ele>
        <time>2019-07-10T07:58:17Z</time>
      </trkpt>
      <trkpt lat="39.7170210" lon="-6.8170180">
        <ele>341.0</ele>
        <time>2019-07-10T07:58:20Z</time>
      </trkpt>
      <trkpt lat="39.7171330" lon="-6.8171940">
        <ele>341.6</ele>
        <time>2019-07-10T07:58:25Z</time>
      </trkpt>
      <trkpt lat="39.7171330" lon="-6.8171940">
        <ele>341.6</ele>
        <time>2019-07-10T07:58:26Z</time>
      </trkpt>
      <trkpt lat="39.7171730" lon="-6.8172850">
        <ele>342.0</ele>
        <time>2019-07-10T07:58:30Z</time>
      </trkpt>
      <trkpt lat="39.7172060" lon="-6.8173440">
        <ele>341.2</ele>
        <time>2019-07-10T07:59:41Z</time>
      </trkpt>
      <trkpt lat="39.7172190" lon="-6.8173560">
        <ele>341.2</ele>
        <time>2019-07-10T07:59:42Z</time>
      </trkpt>
      <trkpt lat="39.7172340" lon="-6.8173700">
        <ele>341.0</ele>
        <time>2019-07-10T07:59:44Z</time>
      </trkpt>
      <trkpt lat="39.7173230" lon="-6.8175260">
        <ele>341.0</ele>
        <time>2019-07-10T07:59:48Z</time>
      </trkpt>
      <trkpt lat="39.7173320" lon="-6.8176130">
        <ele>340.6</ele>
        <time>2019-07-10T07:59:50Z</time>
      </trkpt>
      <trkpt lat="39.7173300" lon="-6.8176570">
        <ele>340.2</ele>
        <time>2019-07-10T07:59:51Z</time>
      </trkpt>
      <trkpt lat="39.7173120" lon="-6.8177060">
        <ele>340.0</ele>
        <time>2019-07-10T07:59:52Z</time>
      </trkpt>
      <trkpt lat="39.7172790" lon="-6.8177530">
        <ele>339.6</ele>
        <time>2019-07-10T07:59:53Z</time>
      </trkpt>
      <trkpt lat="39.7172010" lon="-6.8178450">
        <ele>338.8</ele>
        <time>2019-07-10T07:59:56Z</time>
      </trkpt>
      <trkpt lat="39.7171340" lon="-6.8179370">
        <ele>338.4</ele>
        <time>2019-07-10T07:59:57Z</time>
      </trkpt>
      <trkpt lat="39.7171130" lon="-6.8180390">
        <ele>338.0</ele>
        <time>2019-07-10T07:59:59Z</time>
      </trkpt>
      <trkpt lat="39.7171070" lon="-6.8180970">
        <ele>337.8</ele>
        <time>2019-07-10T08:00:00Z</time>
      </trkpt>
      <trkpt lat="39.7170810" lon="-6.8183990">
        <ele>336.4</ele>
        <time>2019-07-10T08:00:05Z</time>
      </trkpt>
      <trkpt lat="39.7170730" lon="-6.8184530">
        <ele>335.4</ele>
        <time>2019-07-10T08:00:06Z</time>
      </trkpt>
      <trkpt lat="39.7170390" lon="-6.8185320">
        <ele>334.0</ele>
        <time>2019-07-10T08:00:08Z</time>
      </trkpt>
      <trkpt lat="39.7170200" lon="-6.8185730">
        <ele>333.6</ele>
        <time>2019-07-10T08:00:09Z</time>
      </trkpt>
      <trkpt lat="39.7170020" lon="-6.8186170">
        <ele>333.4</ele>
        <time>2019-07-10T08:00:10Z</time>
      </trkpt>
      <trkpt lat="39.7170020" lon="-6.8186750">
        <ele>332.8</ele>
        <time>2019-07-10T08:00:11Z</time>
      </trkpt>
      <trkpt lat="39.7170250" lon="-6.8187800">
        <ele>331.6</ele>
        <time>2019-07-10T08:00:13Z</time>
      </trkpt>
      <trkpt lat="39.7170370" lon="-6.8188280">
        <ele>330.8</ele>
        <time>2019-07-10T08:00:14Z</time>
      </trkpt>
      <trkpt lat="39.7170540" lon="-6.8188730">
        <ele>330.4</ele>
        <time>2019-07-10T08:00:15Z</time>
      </trkpt>
      <trkpt lat="39.7170990" lon="-6.8189790">
        <ele>329.2</ele>
        <time>2019-07-10T08:00:18Z</time>
      </trkpt>
      <trkpt lat="39.7172130" lon="-6.8190590">
        <ele>328.4</ele>
        <time>2019-07-10T08:00:22Z</time>
      </trkpt>
      <trkpt lat="39.7173170" lon="-6.8191340">
        <ele>328.0</ele>
        <time>2019-07-10T08:00:25Z</time>
      </trkpt>
      <trkpt lat="39.7173980" lon="-6.8191960">
        <ele>327.6</ele>
        <time>2019-07-10T08:00:28Z</time>
      </trkpt>
      <trkpt lat="39.7176800" lon="-6.8193870">
        <ele>327.0</ele>
        <time>2019-07-10T08:00:33Z</time>
      </trkpt>
      <trkpt lat="39.7177240" lon="-6.8194120">
        <ele>327.0</ele>
        <time>2019-07-10T08:00:34Z</time>
      </trkpt>
      <trkpt lat="39.7177670" lon="-6.8194370">
        <ele>327.0</ele>
        <time>2019-07-10T08:00:35Z</time>
      </trkpt>
      <trkpt lat="39.7178720" lon="-6.8195640">
        <ele>326.8</ele>
        <time>2019-07-10T08:00:39Z</time>
      </trkpt>
      <trkpt lat="39.7178700" lon="-6.8196600">
        <ele>326.6</ele>
        <time>2019-07-10T08:00:41Z</time>
      </trkpt>
      <trkpt lat="39.7178790" lon="-6.8197730">
        <ele>326.2</ele>
        <time>2019-07-10T08:00:43Z</time>
      </trkpt>
      <trkpt lat="39.7178900" lon="-6.8198840">
        <ele>325.8</ele>
        <time>2019-07-10T08:00:45Z</time>
      </trkpt>
      <trkpt lat="39.7179380" lon="-6.8200000">
        <ele>324.8</ele>
        <time>2019-07-10T08:00:48Z</time>
      </trkpt>
      <trkpt lat="39.7180540" lon="-6.8200240">
        <ele>324.6</ele>
        <time>2019-07-10T08:00:51Z</time>
      </trkpt>
      <trkpt lat="39.7180890" lon="-6.8200190">
        <ele>324.6</ele>
        <time>2019-07-10T08:00:52Z</time>
      </trkpt>
      <trkpt lat="39.7181420" lon="-6.8200180">
        <ele>325.0</ele>
        <time>2019-07-10T08:00:54Z</time>
      </trkpt>
      <trkpt lat="39.7181670" lon="-6.8200230">
        <ele>325.2</ele>
        <time>2019-07-10T08:00:55Z</time>
      </trkpt>
      <trkpt lat="39.7181940" lon="-6.8200300">
        <ele>325.4</ele>
        <time>2019-07-10T08:00:56Z</time>
      </trkpt>
      <trkpt lat="39.7182200" lon="-6.8200380">
        <ele>325.6</ele>
        <time>2019-07-10T08:00:57Z</time>
      </trkpt>
      <trkpt lat="39.7182670" lon="-6.8200570">
        <ele>325.8</ele>
        <time>2019-07-10T08:00:59Z</time>
      </trkpt>
      <trkpt lat="39.7183600" lon="-6.8201010">
        <ele>326.0</ele>
        <time>2019-07-10T08:01:03Z</time>
      </trkpt>
      <trkpt lat="39.7185360" lon="-6.8202200">
        <ele>325.4</ele>
        <time>2019-07-10T08:01:09Z</time>
      </trkpt>
      <trkpt lat="39.7185760" lon="-6.8202890">
        <ele>324.8</ele>
        <time>2019-07-10T08:01:11Z</time>
      </trkpt>
      <trkpt lat="39.7185790" lon="-6.8203940">
        <ele>324.8</ele>
        <time>2019-07-10T08:01:13Z</time>
      </trkpt>
      <trkpt lat="39.7185730" lon="-6.8205210">
        <ele>324.6</ele>
        <time>2019-07-10T08:01:15Z</time>
      </trkpt>
      <trkpt lat="39.7186020" lon="-6.8207230">
        <ele>323.8</ele>
        <time>2019-07-10T08:01:18Z</time>
      </trkpt>
      <trkpt lat="39.7186140" lon="-6.8207880">
        <ele>323.2</ele>
        <time>2019-07-10T08:01:19Z</time>
      </trkpt>
      <trkpt lat="39.7186490" lon="-6.8208890">
        <ele>322.2</ele>
        <time>2019-07-10T08:01:21Z</time>
      </trkpt>
      <trkpt lat="39.7186750" lon="-6.8209360">
        <ele>321.8</ele>
        <time>2019-07-10T08:01:22Z</time>
      </trkpt>
      <trkpt lat="39.7187330" lon="-6.8210320">
        <ele>321.0</ele>
        <time>2019-07-10T08:01:24Z</time>
      </trkpt>
      <trkpt lat="39.7187820" lon="-6.8211590">
        <ele>320.0</ele>
        <time>2019-07-10T08:01:27Z</time>
      </trkpt>
      <trkpt lat="39.7187920" lon="-6.8212170">
        <ele>319.2</ele>
        <time>2019-07-10T08:01:29Z</time>
      </trkpt>
      <trkpt lat="39.7187790" lon="-6.8213030">
        <ele>319.0</ele>
        <time>2019-07-10T08:01:31Z</time>
      </trkpt>
      <trkpt lat="39.7187560" lon="-6.8214170">
        <ele>318.4</ele>
        <time>2019-07-10T08:01:34Z</time>
      </trkpt>
      <trkpt lat="39.7187030" lon="-6.8216290">
        <ele>317.8</ele>
        <time>2019-07-10T08:01:36Z</time>
      </trkpt>
      <trkpt lat="39.7186090" lon="-6.8220200">
        <ele>316.8</ele>
        <time>2019-07-10T08:01:41Z</time>
      </trkpt>
      <trkpt lat="39.7185590" lon="-6.8221720">
        <ele>316.6</ele>
        <time>2019-07-10T08:01:43Z</time>
      </trkpt>
      <trkpt lat="39.7185110" lon="-6.8223230">
        <ele>316.6</ele>
        <time>2019-07-10T08:01:45Z</time>
      </trkpt>
      <trkpt lat="39.7183700" lon="-6.8228200">
        <ele>317.0</ele>
        <time>2019-07-10T08:01:52Z</time>
      </trkpt>
      <trkpt lat="39.7183280" lon="-6.8230220">
        <ele>317.4</ele>
        <time>2019-07-10T08:01:55Z</time>
      </trkpt>
      <trkpt lat="39.7183080" lon="-6.8231440">
        <ele>317.8</ele>
        <time>2019-07-10T08:01:57Z</time>
      </trkpt>
      <trkpt lat="39.7183020" lon="-6.8231990">
        <ele>318.0</ele>
        <time>2019-07-10T08:01:58Z</time>
      </trkpt>
      <trkpt lat="39.7182920" lon="-6.8233060">
        <ele>318.6</ele>
        <time>2019-07-10T08:02:00Z</time>
      </trkpt>
      <trkpt lat="39.7182900" lon="-6.8233560">
        <ele>318.8</ele>
        <time>2019-07-10T08:02:01Z</time>
      </trkpt>
      <trkpt lat="39.7182920" lon="-6.8234560">
        <ele>319.6</ele>
        <time>2019-07-10T08:02:03Z</time>
      </trkpt>
      <trkpt lat="39.7182930" lon="-6.8235090">
        <ele>320.0</ele>
        <time>2019-07-10T08:02:04Z</time>
      </trkpt>
      <trkpt lat="39.7182940" lon="-6.8235630">
        <ele>320.4</ele>
        <time>2019-07-10T08:02:05Z</time>
      </trkpt>
      <trkpt lat="39.7182950" lon="-6.8237270">
        <ele>321.0</ele>
        <time>2019-07-10T08:02:08Z</time>
      </trkpt>
      <trkpt lat="39.7182850" lon="-6.8238850">
        <ele>321.6</ele>
        <time>2019-07-10T08:02:11Z</time>
      </trkpt>
      <trkpt lat="39.7182820" lon="-6.8239370">
        <ele>321.6</ele>
        <time>2019-07-10T08:02:12Z</time>
      </trkpt>
      <trkpt lat="39.7182780" lon="-6.8240930">
        <ele>322.0</ele>
        <time>2019-07-10T08:02:15Z</time>
      </trkpt>
      <trkpt lat="39.7182720" lon="-6.8241950">
        <ele>322.2</ele>
        <time>2019-07-10T08:02:17Z</time>
      </trkpt>
      <trkpt lat="39.7182480" lon="-6.8243890">
        <ele>322.8</ele>
        <time>2019-07-10T08:02:21Z</time>
      </trkpt>
      <trkpt lat="39.7182380" lon="-6.8244810">
        <ele>323.2</ele>
        <time>2019-07-10T08:02:23Z</time>
      </trkpt>
      <trkpt lat="39.7182190" lon="-6.8248090">
        <ele>324.2</ele>
        <time>2019-07-10T08:02:30Z</time>
      </trkpt>
      <trkpt lat="39.7181770" lon="-6.8252120">
        <ele>324.6</ele>
        <time>2019-07-10T08:02:38Z</time>
      </trkpt>
      <trkpt lat="39.7181280" lon="-6.8255290">
        <ele>325.2</ele>
        <time>2019-07-10T08:02:44Z</time>
      </trkpt>
      <trkpt lat="39.7181060" lon="-6.8256300">
        <ele>325.4</ele>
        <time>2019-07-10T08:02:46Z</time>
      </trkpt>
      <trkpt lat="39.7180840" lon="-6.8257300">
        <ele>325.8</ele>
        <time>2019-07-10T08:02:48Z</time>
      </trkpt>
      <trkpt lat="39.7180070" lon="-6.8260170">
        <ele>326.4</ele>
        <time>2019-07-10T08:02:54Z</time>
      </trkpt>
      <trkpt lat="39.7179720" lon="-6.8261600">
        <ele>326.8</ele>
        <time>2019-07-10T08:02:57Z</time>
      </trkpt>
      <trkpt lat="39.7179560" lon="-6.8262580">
        <ele>327.6</ele>
        <time>2019-07-10T08:02:59Z</time>
      </trkpt>
      <trkpt lat="39.7179400" lon="-6.8264150">
        <ele>328.0</ele>
        <time>2019-07-10T08:03:02Z</time>
      </trkpt>
      <trkpt lat="39.7179300" lon="-6.8264700">
        <ele>328.0</ele>
        <time>2019-07-10T08:03:04Z</time>
      </trkpt>
      <trkpt lat="39.7178490" lon="-6.8268360">
        <ele>327.6</ele>
        <time>2019-07-10T08:03:09Z</time>
      </trkpt>
      <trkpt lat="39.7178430" lon="-6.8268980">
        <ele>327.6</ele>
        <time>2019-07-10T08:03:10Z</time>
      </trkpt>
      <trkpt lat="39.7178390" lon="-6.8269600">
        <ele>327.6</ele>
        <time>2019-07-10T08:03:11Z</time>
      </trkpt>
      <trkpt lat="39.7178420" lon="-6.8270870">
        <ele>327.6</ele>
        <time>2019-07-10T08:03:13Z</time>
      </trkpt>
      <trkpt lat="39.7178630" lon="-6.8272150">
        <ele>327.6</ele>
        <time>2019-07-10T08:03:15Z</time>
      </trkpt>
      <trkpt lat="39.7178810" lon="-6.8272760">
        <ele>327.6</ele>
        <time>2019-07-10T08:03:16Z</time>
      </trkpt>
      <trkpt lat="39.7180430" lon="-6.8276450">
        <ele>327.6</ele>
        <time>2019-07-10T08:03:22Z</time>
      </trkpt>
      <trkpt lat="39.7181200" lon="-6.8278410">
        <ele>327.2</ele>
        <time>2019-07-10T08:03:25Z</time>
      </trkpt>
      <trkpt lat="39.7181730" lon="-6.8279700">
        <ele>327.0</ele>
        <time>2019-07-10T08:03:27Z</time>
      </trkpt>
      <trkpt lat="39.7182270" lon="-6.8280990">
        <ele>326.8</ele>
        <time>2019-07-10T08:03:29Z</time>
      </trkpt>
      <trkpt lat="39.7184410" lon="-6.8286140">
        <ele>327.2</ele>
        <time>2019-07-10T08:03:38Z</time>
      </trkpt>
      <trkpt lat="39.7186570" lon="-6.8291380">
        <ele>328.2</ele>
        <time>2019-07-10T08:03:46Z</time>
      </trkpt>
      <trkpt lat="39.7188290" lon="-6.8296410">
        <ele>328.6</ele>
        <time>2019-07-10T08:03:54Z</time>
      </trkpt>
      <trkpt lat="39.7189500" lon="-6.8300140">
        <ele>328.0</ele>
        <time>2019-07-10T08:03:59Z</time>
      </trkpt>
      <trkpt lat="39.7190020" lon="-6.8301740">
        <ele>327.2</ele>
        <time>2019-07-10T08:04:02Z</time>
      </trkpt>
      <trkpt lat="39.7191380" lon="-6.8305830">
        <ele>326.6</ele>
        <time>2019-07-10T08:04:06Z</time>
      </trkpt>
      <trkpt lat="39.7192240" lon="-6.8308240">
        <ele>326.2</ele>
        <time>2019-07-10T08:04:09Z</time>
      </trkpt>
      <trkpt lat="39.7193070" lon="-6.8310560">
        <ele>325.8</ele>
        <time>2019-07-10T08:04:12Z</time>
      </trkpt>
      <trkpt lat="39.7193320" lon="-6.8311340">
        <ele>325.6</ele>
        <time>2019-07-10T08:04:14Z</time>
      </trkpt>
      <trkpt lat="39.7195690" lon="-6.8318320">
        <ele>325.0</ele>
        <time>2019-07-10T08:04:22Z</time>
      </trkpt>
      <trkpt lat="39.7195950" lon="-6.8319100">
        <ele>324.8</ele>
        <time>2019-07-10T08:04:23Z</time>
      </trkpt>
      <trkpt lat="39.7196490" lon="-6.8320680">
        <ele>324.6</ele>
        <time>2019-07-10T08:04:25Z</time>
      </trkpt>
      <trkpt lat="39.7197020" lon="-6.8322280">
        <ele>324.2</ele>
        <time>2019-07-10T08:04:27Z</time>
      </trkpt>
      <trkpt lat="39.7198040" lon="-6.8325540">
        <ele>324.0</ele>
        <time>2019-07-10T08:04:31Z</time>
      </trkpt>
      <trkpt lat="39.7199860" lon="-6.8331190">
        <ele>323.4</ele>
        <time>2019-07-10T08:04:38Z</time>
      </trkpt>
      <trkpt lat="39.7200350" lon="-6.8333060">
        <ele>323.2</ele>
        <time>2019-07-10T08:04:40Z</time>
      </trkpt>
      <trkpt lat="39.7201040" lon="-6.8336150">
        <ele>322.4</ele>
        <time>2019-07-10T08:04:43Z</time>
      </trkpt>
      <trkpt lat="39.7201740" lon="-6.8339440">
        <ele>321.0</ele>
        <time>2019-07-10T08:04:46Z</time>
      </trkpt>
      <trkpt lat="39.7202390" lon="-6.8342980">
        <ele>319.6</ele>
        <time>2019-07-10T08:04:49Z</time>
      </trkpt>
      <trkpt lat="39.7203140" lon="-6.8346630">
        <ele>318.2</ele>
        <time>2019-07-10T08:04:52Z</time>
      </trkpt>
      <trkpt lat="39.7203630" lon="-6.8349100">
        <ele>317.2</ele>
        <time>2019-07-10T08:04:54Z</time>
      </trkpt>
      <trkpt lat="39.7204460" lon="-6.8352840">
        <ele>315.8</ele>
        <time>2019-07-10T08:04:57Z</time>
      </trkpt>
      <trkpt lat="39.7205360" lon="-6.8356660">
        <ele>314.8</ele>
        <time>2019-07-10T08:05:00Z</time>
      </trkpt>
      <trkpt lat="39.7205630" lon="-6.8357970">
        <ele>314.2</ele>
        <time>2019-07-10T08:05:01Z</time>
      </trkpt>
      <trkpt lat="39.7205880" lon="-6.8359310">
        <ele>313.6</ele>
        <time>2019-07-10T08:05:02Z</time>
      </trkpt>
      <trkpt lat="39.7206420" lon="-6.8362020">
        <ele>312.6</ele>
        <time>2019-07-10T08:05:04Z</time>
      </trkpt>
      <trkpt lat="39.7206930" lon="-6.8366050">
        <ele>311.4</ele>
        <time>2019-07-10T08:05:07Z</time>
      </trkpt>
      <trkpt lat="39.7206930" lon="-6.8370700">
        <ele>311.0</ele>
        <time>2019-07-10T08:05:11Z</time>
      </trkpt>
      <trkpt lat="39.7206860" lon="-6.8375250">
        <ele>312.0</ele>
        <time>2019-07-10T08:05:16Z</time>
      </trkpt>
      <trkpt lat="39.7206830" lon="-6.8376850">
        <ele>312.4</ele>
        <time>2019-07-10T08:05:18Z</time>
      </trkpt>
      <trkpt lat="39.7206810" lon="-6.8377620">
        <ele>312.6</ele>
        <time>2019-07-10T08:05:19Z</time>
      </trkpt>
      <trkpt lat="39.7206790" lon="-6.8379100">
        <ele>313.2</ele>
        <time>2019-07-10T08:05:21Z</time>
      </trkpt>
      <trkpt lat="39.7206760" lon="-6.8380550">
        <ele>313.8</ele>
        <time>2019-07-10T08:05:23Z</time>
      </trkpt>
      <trkpt lat="39.7206730" lon="-6.8381970">
        <ele>314.6</ele>
        <time>2019-07-10T08:05:26Z</time>
      </trkpt>
      <trkpt lat="39.7206750" lon="-6.8383340">
        <ele>314.8</ele>
        <time>2019-07-10T08:05:28Z</time>
      </trkpt>
      <trkpt lat="39.7206700" lon="-6.8386520">
        <ele>315.8</ele>
        <time>2019-07-10T08:05:32Z</time>
      </trkpt>
      <trkpt lat="39.7206710" lon="-6.8387150">
        <ele>316.0</ele>
        <time>2019-07-10T08:05:33Z</time>
      </trkpt>
      <trkpt lat="39.7206590" lon="-6.8389740">
        <ele>316.2</ele>
        <time>2019-07-10T08:05:37Z</time>
      </trkpt>
      <trkpt lat="39.7206540" lon="-6.8391760">
        <ele>316.2</ele>
        <time>2019-07-10T08:05:40Z</time>
      </trkpt>
      <trkpt lat="39.7206500" lon="-6.8396540">
        <ele>315.8</ele>
        <time>2019-07-10T08:05:46Z</time>
      </trkpt>
      <trkpt lat="39.7206610" lon="-6.8399430">
        <ele>315.2</ele>
        <time>2019-07-10T08:05:49Z</time>
      </trkpt>
      <trkpt lat="39.7206660" lon="-6.8400450">
        <ele>314.8</ele>
        <time>2019-07-10T08:05:50Z</time>
      </trkpt>
      <trkpt lat="39.7206850" lon="-6.8402640">
        <ele>314.2</ele>
        <time>2019-07-10T08:05:52Z</time>
      </trkpt>
      <trkpt lat="39.7207020" lon="-6.8403780">
        <ele>313.8</ele>
        <time>2019-07-10T08:05:53Z</time>
      </trkpt>
      <trkpt lat="39.7207900" lon="-6.8407250">
        <ele>312.8</ele>
        <time>2019-07-10T08:05:56Z</time>
      </trkpt>
      <trkpt lat="39.7208930" lon="-6.8410790">
        <ele>311.2</ele>
        <time>2019-07-10T08:05:59Z</time>
      </trkpt>
      <trkpt lat="39.7209210" lon="-6.8412010">
        <ele>310.2</ele>
        <time>2019-07-10T08:06:00Z</time>
      </trkpt>
      <trkpt lat="39.7209670" lon="-6.8414510">
        <ele>309.0</ele>
        <time>2019-07-10T08:06:02Z</time>
      </trkpt>
      <trkpt lat="39.7210010" lon="-6.8418370">
        <ele>307.6</ele>
        <time>2019-07-10T08:06:05Z</time>
      </trkpt>
      <trkpt lat="39.7209990" lon="-6.8419700">
        <ele>307.2</ele>
        <time>2019-07-10T08:06:06Z</time>
      </trkpt>
      <trkpt lat="39.7209840" lon="-6.8421040">
        <ele>306.6</ele>
        <time>2019-07-10T08:06:07Z</time>
      </trkpt>
      <trkpt lat="39.7209170" lon="-6.8423680">
        <ele>305.2</ele>
        <time>2019-07-10T08:06:09Z</time>
      </trkpt>
      <trkpt lat="39.7208720" lon="-6.8424980">
        <ele>304.6</ele>
        <time>2019-07-10T08:06:10Z</time>
      </trkpt>
      <trkpt lat="39.7208240" lon="-6.8426270">
        <ele>304.0</ele>
        <time>2019-07-10T08:06:11Z</time>
      </trkpt>
      <trkpt lat="39.7207160" lon="-6.8428810">
        <ele>302.8</ele>
        <time>2019-07-10T08:06:13Z</time>
      </trkpt>
      <trkpt lat="39.7206600" lon="-6.8430080">
        <ele>302.2</ele>
        <time>2019-07-10T08:06:14Z</time>
      </trkpt>
      <trkpt lat="39.7205990" lon="-6.8431330">
        <ele>301.2</ele>
        <time>2019-07-10T08:06:15Z</time>
      </trkpt>
      <trkpt lat="39.7204700" lon="-6.8433820">
        <ele>300.2</ele>
        <time>2019-07-10T08:06:17Z</time>
      </trkpt>
      <trkpt lat="39.7203360" lon="-6.8436260">
        <ele>299.0</ele>
        <time>2019-07-10T08:06:19Z</time>
      </trkpt>
      <trkpt lat="39.7202670" lon="-6.8437440">
        <ele>298.6</ele>
        <time>2019-07-10T08:06:20Z</time>
      </trkpt>
      <trkpt lat="39.7201280" lon="-6.8439770">
        <ele>297.6</ele>
        <time>2019-07-10T08:06:22Z</time>
      </trkpt>
      <trkpt lat="39.7199280" lon="-6.8443070">
        <ele>296.4</ele>
        <time>2019-07-10T08:06:25Z</time>
      </trkpt>
      <trkpt lat="39.7198020" lon="-6.8445160">
        <ele>296.0</ele>
        <time>2019-07-10T08:06:27Z</time>
      </trkpt>
      <trkpt lat="39.7195550" lon="-6.8449140">
        <ele>295.6</ele>
        <time>2019-07-10T08:06:31Z</time>
      </trkpt>
      <trkpt lat="39.7194950" lon="-6.8450130">
        <ele>295.2</ele>
        <time>2019-07-10T08:06:32Z</time>
      </trkpt>
      <trkpt lat="39.7193240" lon="-6.8452900">
        <ele>294.8</ele>
        <time>2019-07-10T08:06:35Z</time>
      </trkpt>
      <trkpt lat="39.7192330" lon="-6.8454310">
        <ele>294.2</ele>
        <time>2019-07-10T08:06:37Z</time>
      </trkpt>
      <trkpt lat="39.7191580" lon="-6.8455490">
        <ele>293.4</ele>
        <time>2019-07-10T08:06:39Z</time>
      </trkpt>
      <trkpt lat="39.7191320" lon="-6.8456030">
        <ele>293.0</ele>
        <time>2019-07-10T08:06:40Z</time>
      </trkpt>
      <trkpt lat="39.7191190" lon="-6.8456970">
        <ele>292.4</ele>
        <time>2019-07-10T08:06:42Z</time>
      </trkpt>
      <trkpt lat="39.7191450" lon="-6.8458000">
        <ele>292.0</ele>
        <time>2019-07-10T08:06:45Z</time>
      </trkpt>
      <trkpt lat="39.7191780" lon="-6.8458490">
        <ele>292.0</ele>
        <time>2019-07-10T08:06:47Z</time>
      </trkpt>
      <trkpt lat="39.7192250" lon="-6.8458980">
        <ele>292.0</ele>
        <time>2019-07-10T08:06:49Z</time>
      </trkpt>
      <trkpt lat="39.7192970" lon="-6.8459940">
        <ele>292.6</ele>
        <time>2019-07-10T08:06:53Z</time>
      </trkpt>
      <trkpt lat="39.7193260" lon="-6.8460560">
        <ele>293.4</ele>
        <time>2019-07-10T08:06:55Z</time>
      </trkpt>
      <trkpt lat="39.7193650" lon="-6.8461190">
        <ele>293.8</ele>
        <time>2019-07-10T08:06:57Z</time>
      </trkpt>
      <trkpt lat="39.7194110" lon="-6.8461710">
        <ele>294.4</ele>
        <time>2019-07-10T08:06:59Z</time>
      </trkpt>
      <trkpt lat="39.7194360" lon="-6.8461950">
        <ele>294.6</ele>
        <time>2019-07-10T08:07:00Z</time>
      </trkpt>
      <trkpt lat="39.7194620" lon="-6.8462170">
        <ele>295.0</ele>
        <time>2019-07-10T08:07:01Z</time>
      </trkpt>
      <trkpt lat="39.7195160" lon="-6.8462500">
        <ele>295.4</ele>
        <time>2019-07-10T08:07:03Z</time>
      </trkpt>
      <trkpt lat="39.7195460" lon="-6.8462600">
        <ele>295.6</ele>
        <time>2019-07-10T08:07:04Z</time>
      </trkpt>
      <trkpt lat="39.7195780" lon="-6.8462630">
        <ele>295.8</ele>
        <time>2019-07-10T08:07:05Z</time>
      </trkpt>
      <trkpt lat="39.7196090" lon="-6.8462630">
        <ele>296.0</ele>
        <time>2019-07-10T08:07:06Z</time>
      </trkpt>
      <trkpt lat="39.7196700" lon="-6.8462570">
        <ele>296.4</ele>
        <time>2019-07-10T08:07:08Z</time>
      </trkpt>
      <trkpt lat="39.7197330" lon="-6.8462430">
        <ele>296.8</ele>
        <time>2019-07-10T08:07:10Z</time>
      </trkpt>
      <trkpt lat="39.7197930" lon="-6.8462170">
        <ele>297.2</ele>
        <time>2019-07-10T08:07:12Z</time>
      </trkpt>
      <trkpt lat="39.7198520" lon="-6.8461880">
        <ele>297.4</ele>
        <time>2019-07-10T08:07:14Z</time>
      </trkpt>
      <trkpt lat="39.7198810" lon="-6.8461720">
        <ele>297.4</ele>
        <time>2019-07-10T08:07:15Z</time>
      </trkpt>
      <trkpt lat="39.7199750" lon="-6.8461210">
        <ele>297.6</ele>
        <time>2019-07-10T08:07:18Z</time>
      </trkpt>
      <trkpt lat="39.7200770" lon="-6.8460600">
        <ele>298.0</ele>
        <time>2019-07-10T08:07:21Z</time>
      </trkpt>
      <trkpt lat="39.7201800" lon="-6.8459910">
        <ele>298.4</ele>
        <time>2019-07-10T08:07:24Z</time>
      </trkpt>
      <trkpt lat="39.7202470" lon="-6.8459410">
        <ele>298.4</ele>
        <time>2019-07-10T08:07:26Z</time>
      </trkpt>
      <trkpt lat="39.7203460" lon="-6.8458680">
        <ele>298.8</ele>
        <time>2019-07-10T08:07:29Z</time>
      </trkpt>
      <trkpt lat="39.7205950" lon="-6.8456780">
        <ele>299.2</ele>
        <time>2019-07-10T08:07:37Z</time>
      </trkpt>
      <trkpt lat="39.7206830" lon="-6.8456070">
        <ele>299.6</ele>
        <time>2019-07-10T08:07:40Z</time>
      </trkpt>
      <trkpt lat="39.7207690" lon="-6.8455420">
        <ele>300.6</ele>
        <time>2019-07-10T08:07:43Z</time>
      </trkpt>
      <trkpt lat="39.7207960" lon="-6.8455220">
        <ele>300.8</ele>
        <time>2019-07-10T08:07:44Z</time>
      </trkpt>
      <trkpt lat="39.7209260" lon="-6.8454220">
        <ele>301.6</ele>
        <time>2019-07-10T08:07:49Z</time>
      </trkpt>
      <trkpt lat="39.7209520" lon="-6.8454020">
        <ele>301.8</ele>
        <time>2019-07-10T08:07:50Z</time>
      </trkpt>
      <trkpt lat="39.7210050" lon="-6.8453620">
        <ele>302.4</ele>
        <time>2019-07-10T08:07:52Z</time>
      </trkpt>
      <trkpt lat="39.7210570" lon="-6.8453230">
        <ele>303.0</ele>
        <time>2019-07-10T08:07:54Z</time>
      </trkpt>
      <trkpt lat="39.7211110" lon="-6.8452830">
        <ele>303.2</ele>
        <time>2019-07-10T08:07:56Z</time>
      </trkpt>
      <trkpt lat="39.7212200" lon="-6.8452090">
        <ele>304.0</ele>
        <time>2019-07-10T08:08:00Z</time>
      </trkpt>
      <trkpt lat="39.7212470" lon="-6.8451910">
        <ele>304.2</ele>
        <time>2019-07-10T08:08:01Z</time>
      </trkpt>
      <trkpt lat="39.7213700" lon="-6.8450950">
        <ele>305.2</ele>
        <time>2019-07-10T08:08:06Z</time>
      </trkpt>
      <trkpt lat="39.7213960" lon="-6.8450800">
        <ele>305.6</ele>
        <time>2019-07-10T08:08:07Z</time>
      </trkpt>
      <trkpt lat="39.7214700" lon="-6.8450310">
        <ele>306.6</ele>
        <time>2019-07-10T08:08:10Z</time>
      </trkpt>
      <trkpt lat="39.7215620" lon="-6.8449680">
        <ele>307.8</ele>
        <time>2019-07-10T08:08:14Z</time>
      </trkpt>
      <trkpt lat="39.7217200" lon="-6.8448460">
        <ele>308.8</ele>
        <time>2019-07-10T08:08:22Z</time>
      </trkpt>
      <trkpt lat="39.7217390" lon="-6.8448310">
        <ele>309.2</ele>
        <time>2019-07-10T08:08:23Z</time>
      </trkpt>
      <trkpt lat="39.7218190" lon="-6.8447780">
        <ele>310.2</ele>
        <time>2019-07-10T08:08:27Z</time>
      </trkpt>
      <trkpt lat="39.7218790" lon="-6.8447350">
        <ele>310.8</ele>
        <time>2019-07-10T08:08:30Z</time>
      </trkpt>
      <trkpt lat="39.7219320" lon="-6.8446900">
        <ele>311.2</ele>
        <time>2019-07-10T08:08:33Z</time>
      </trkpt>
      <trkpt lat="39.7220490" lon="-6.8446100">
        <ele>312.4</ele>
        <time>2019-07-10T08:08:39Z</time>
      </trkpt>
      <trkpt lat="39.7221470" lon="-6.8445320">
        <ele>313.4</ele>
        <time>2019-07-10T08:08:44Z</time>
      </trkpt>
      <trkpt lat="39.7221900" lon="-6.8445050">
        <ele>314.2</ele>
        <time>2019-07-10T08:08:46Z</time>
      </trkpt>
      <trkpt lat="39.7223360" lon="-6.8444090">
        <ele>314.6</ele>
        <time>2019-07-10T08:08:52Z</time>
      </trkpt>
      <trkpt lat="39.7223660" lon="-6.8443900">
        <ele>314.6</ele>
        <time>2019-07-10T08:08:53Z</time>
      </trkpt>
      <trkpt lat="39.7224920" lon="-6.8442990">
        <ele>314.8</ele>
        <time>2019-07-10T08:08:57Z</time>
      </trkpt>
      <trkpt lat="39.7225750" lon="-6.8442350">
        <ele>314.4</ele>
        <time>2019-07-10T08:08:59Z</time>
      </trkpt>
      <trkpt lat="39.7226660" lon="-6.8441580">
        <ele>313.8</ele>
        <time>2019-07-10T08:09:01Z</time>
      </trkpt>
      <trkpt lat="39.7227120" lon="-6.8441210">
        <ele>313.6</ele>
        <time>2019-07-10T08:09:02Z</time>
      </trkpt>
      <trkpt lat="39.7227550" lon="-6.8440810">
        <ele>313.0</ele>
        <time>2019-07-10T08:09:03Z</time>
      </trkpt>
      <trkpt lat="39.7227960" lon="-6.8440410">
        <ele>312.8</ele>
        <time>2019-07-10T08:09:04Z</time>
      </trkpt>
      <trkpt lat="39.7228370" lon="-6.8440050">
        <ele>312.6</ele>
        <time>2019-07-10T08:09:05Z</time>
      </trkpt>
      <trkpt lat="39.7230950" lon="-6.8437950">
        <ele>313.0</ele>
        <time>2019-07-10T08:09:12Z</time>
      </trkpt>
      <trkpt lat="39.7231610" lon="-6.8437470">
        <ele>313.4</ele>
        <time>2019-07-10T08:09:14Z</time>
      </trkpt>
      <trkpt lat="39.7231930" lon="-6.8437250">
        <ele>313.6</ele>
        <time>2019-07-10T08:09:15Z</time>
      </trkpt>
      <trkpt lat="39.7233130" lon="-6.8436370">
        <ele>314.8</ele>
        <time>2019-07-10T08:09:19Z</time>
      </trkpt>
      <trkpt lat="39.7234970" lon="-6.8434880">
        <ele>315.2</ele>
        <time>2019-07-10T08:09:25Z</time>
      </trkpt>
      <trkpt lat="39.7237550" lon="-6.8433000">
        <ele>315.0</ele>
        <time>2019-07-10T08:09:32Z</time>
      </trkpt>
      <trkpt lat="39.7238740" lon="-6.8432300">
        <ele>314.8</ele>
        <time>2019-07-10T08:09:35Z</time>
      </trkpt>
      <trkpt lat="39.7240370" lon="-6.8431170">
        <ele>314.8</ele>
        <time>2019-07-10T08:09:39Z</time>
      </trkpt>
      <trkpt lat="39.7242120" lon="-6.8430150">
        <ele>315.0</ele>
        <time>2019-07-10T08:09:43Z</time>
      </trkpt>
      <trkpt lat="39.7244210" lon="-6.8429020">
        <ele>314.8</ele>
        <time>2019-07-10T08:09:48Z</time>
      </trkpt>
      <trkpt lat="39.7245780" lon="-6.8428320">
        <ele>314.6</ele>
        <time>2019-07-10T08:09:52Z</time>
      </trkpt>
      <trkpt lat="39.7246970" lon="-6.8427950">
        <ele>314.8</ele>
        <time>2019-07-10T08:09:55Z</time>
      </trkpt>
      <trkpt lat="39.7250550" lon="-6.8426820">
        <ele>315.6</ele>
        <time>2019-07-10T08:10:04Z</time>
      </trkpt>
      <trkpt lat="39.7252460" lon="-6.8426340">
        <ele>316.0</ele>
        <time>2019-07-10T08:10:09Z</time>
      </trkpt>
      <trkpt lat="39.7253780" lon="-6.8426070">
        <ele>316.6</ele>
        <time>2019-07-10T08:10:13Z</time>
      </trkpt>
      <trkpt lat="39.7256040" lon="-6.8425550">
        <ele>317.2</ele>
        <time>2019-07-10T08:10:20Z</time>
      </trkpt>
      <trkpt lat="39.7256730" lon="-6.8425600">
        <ele>317.4</ele>
        <time>2019-07-10T08:10:22Z</time>
      </trkpt>
      <trkpt lat="39.7257510" lon="-6.8426420">
        <ele>317.6</ele>
        <time>2019-07-10T08:10:25Z</time>
      </trkpt>
      <trkpt lat="39.7257580" lon="-6.8426760">
        <ele>317.6</ele>
        <time>2019-07-10T08:10:26Z</time>
      </trkpt>
      <trkpt lat="39.7257500" lon="-6.8426980">
        <ele>317.0</ele>
        <time>2019-07-10T08:10:29Z</time>
      </trkpt>
      <trkpt lat="39.7257490" lon="-6.8427460">
        <ele>317.8</ele>
        <time>2019-07-10T08:11:06Z</time>
      </trkpt>
      <trkpt lat="39.7257520" lon="-6.8427690">
        <ele>317.8</ele>
        <time>2019-07-10T08:11:07Z</time>
      </trkpt>
      <trkpt lat="39.7257560" lon="-6.8427930">
        <ele>317.8</ele>
        <time>2019-07-10T08:11:08Z</time>
      </trkpt>
      <trkpt lat="39.7257560" lon="-6.8429640">
        <ele>317.0</ele>
        <time>2019-07-10T08:11:14Z</time>
      </trkpt>
      <trkpt lat="39.7257570" lon="-6.8430300">
        <ele>317.2</ele>
        <time>2019-07-10T08:11:16Z</time>
      </trkpt>
      <trkpt lat="39.7257570" lon="-6.8431630">
        <ele>317.2</ele>
        <time>2019-07-10T08:11:20Z</time>
      </trkpt>
      <trkpt lat="39.7257630" lon="-6.8432620">
        <ele>317.0</ele>
        <time>2019-07-10T08:11:23Z</time>
      </trkpt>
      <trkpt lat="39.7257570" lon="-6.8434960">
        <ele>316.6</ele>
        <time>2019-07-10T08:11:30Z</time>
      </trkpt>
      <trkpt lat="39.7257560" lon="-6.8435500">
        <ele>316.8</ele>
        <time>2019-07-10T08:11:34Z</time>
      </trkpt>
      <trkpt lat="39.7257510" lon="-6.8435810">
        <ele>316.4</ele>
        <time>2019-07-10T08:12:21Z</time>
      </trkpt>
      <trkpt lat="39.7257520" lon="-6.8436390">
        <ele>316.2</ele>
        <time>2019-07-10T08:12:23Z</time>
      </trkpt>
      <trkpt lat="39.7257520" lon="-6.8436780">
        <ele>316.0</ele>
        <time>2019-07-10T08:12:24Z</time>
      </trkpt>
      <trkpt lat="39.7257560" lon="-6.8437690">
        <ele>315.6</ele>
        <time>2019-07-10T08:12:26Z</time>
      </trkpt>
      <trkpt lat="39.7257550" lon="-6.8438760">
        <ele>315.6</ele>
        <time>2019-07-10T08:12:28Z</time>
      </trkpt>
      <trkpt lat="39.7257540" lon="-6.8441210">
        <ele>315.8</ele>
        <time>2019-07-10T08:12:32Z</time>
      </trkpt>
      <trkpt lat="39.7257540" lon="-6.8443260">
        <ele>315.8</ele>
        <time>2019-07-10T08:12:35Z</time>
      </trkpt>
      <trkpt lat="39.7257500" lon="-6.8446860">
        <ele>315.2</ele>
        <time>2019-07-10T08:12:40Z</time>
      </trkpt>
      <trkpt lat="39.7257700" lon="-6.8449070">
        <ele>315.0</ele>
        <time>2019-07-10T08:12:43Z</time>
      </trkpt>
      <trkpt lat="39.7258030" lon="-6.8450450">
        <ele>315.0</ele>
        <time>2019-07-10T08:12:45Z</time>
      </trkpt>
      <trkpt lat="39.7258680" lon="-6.8452230">
        <ele>315.6</ele>
        <time>2019-07-10T08:12:48Z</time>
      </trkpt>
      <trkpt lat="39.7259110" lon="-6.8453220">
        <ele>316.2</ele>
        <time>2019-07-10T08:12:50Z</time>
      </trkpt>
      <trkpt lat="39.7259530" lon="-6.8454110">
        <ele>317.0</ele>
        <time>2019-07-10T08:12:52Z</time>
      </trkpt>
      <trkpt lat="39.7259930" lon="-6.8454990">
        <ele>317.6</ele>
        <time>2019-07-10T08:12:54Z</time>
      </trkpt>
      <trkpt lat="39.7260130" lon="-6.8455420">
        <ele>317.8</ele>
        <time>2019-07-10T08:12:55Z</time>
      </trkpt>
      <trkpt lat="39.7260900" lon="-6.8457180">
        <ele>318.2</ele>
        <time>2019-07-10T08:12:59Z</time>
      </trkpt>
      <trkpt lat="39.7261350" lon="-6.8458080">
        <ele>318.6</ele>
        <time>2019-07-10T08:13:01Z</time>
      </trkpt>
      <trkpt lat="39.7261600" lon="-6.8458540">
        <ele>318.6</ele>
        <time>2019-07-10T08:13:02Z</time>
      </trkpt>
      <trkpt lat="39.7262280" lon="-6.8459960">
        <ele>318.6</ele>
        <time>2019-07-10T08:13:05Z</time>
      </trkpt>
      <trkpt lat="39.7262410" lon="-6.8461140">
        <ele>318.2</ele>
        <time>2019-07-10T08:13:07Z</time>
      </trkpt>
      <trkpt lat="39.7262260" lon="-6.8463140">
        <ele>317.6</ele>
        <time>2019-07-10T08:13:10Z</time>
      </trkpt>
      <trkpt lat="39.7262220" lon="-6.8463820">
        <ele>316.8</ele>
        <time>2019-07-10T08:13:11Z</time>
      </trkpt>
      <trkpt lat="39.7262120" lon="-6.8465310">
        <ele>315.2</ele>
        <time>2019-07-10T08:13:13Z</time>
      </trkpt>
      <trkpt lat="39.7261990" lon="-6.8467030">
        <ele>314.0</ele>
        <time>2019-07-10T08:13:15Z</time>
      </trkpt>
      <trkpt lat="39.7261850" lon="-6.8468680">
        <ele>312.4</ele>
        <time>2019-07-10T08:13:17Z</time>
      </trkpt>
      <trkpt lat="39.7261730" lon="-6.8470400">
        <ele>310.6</ele>
        <time>2019-07-10T08:13:19Z</time>
      </trkpt>
      <trkpt lat="39.7261640" lon="-6.8471330">
        <ele>309.6</ele>
        <time>2019-07-10T08:13:20Z</time>
      </trkpt>
      <trkpt lat="39.7261460" lon="-6.8473230">
        <ele>308.0</ele>
        <time>2019-07-10T08:13:22Z</time>
      </trkpt>
      <trkpt lat="39.7261270" lon="-6.8475160">
        <ele>306.0</ele>
        <time>2019-07-10T08:13:24Z</time>
      </trkpt>
      <trkpt lat="39.7261190" lon="-6.8476170">
        <ele>304.8</ele>
        <time>2019-07-10T08:13:25Z</time>
      </trkpt>
      <trkpt lat="39.7261000" lon="-6.8478340">
        <ele>303.6</ele>
        <time>2019-07-10T08:13:27Z</time>
      </trkpt>
      <trkpt lat="39.7260730" lon="-6.8480520">
        <ele>302.2</ele>
        <time>2019-07-10T08:13:29Z</time>
      </trkpt>
      <trkpt lat="39.7260600" lon="-6.8481590">
        <ele>301.0</ele>
        <time>2019-07-10T08:13:30Z</time>
      </trkpt>
      <trkpt lat="39.7260440" lon="-6.8482660">
        <ele>300.0</ele>
        <time>2019-07-10T08:13:31Z</time>
      </trkpt>
      <trkpt lat="39.7260260" lon="-6.8483720">
        <ele>299.4</ele>
        <time>2019-07-10T08:13:32Z</time>
      </trkpt>
      <trkpt lat="39.7259750" lon="-6.8485640">
        <ele>298.0</ele>
        <time>2019-07-10T08:13:34Z</time>
      </trkpt>
      <trkpt lat="39.7259410" lon="-6.8486510">
        <ele>297.2</ele>
        <time>2019-07-10T08:13:35Z</time>
      </trkpt>
      <trkpt lat="39.7259040" lon="-6.8487350">
        <ele>296.6</ele>
        <time>2019-07-10T08:13:36Z</time>
      </trkpt>
      <trkpt lat="39.7258380" lon="-6.8488960">
        <ele>296.0</ele>
        <time>2019-07-10T08:13:38Z</time>
      </trkpt>
      <trkpt lat="39.7258210" lon="-6.8489770">
        <ele>295.4</ele>
        <time>2019-07-10T08:13:39Z</time>
      </trkpt>
      <trkpt lat="39.7258190" lon="-6.8490610">
        <ele>295.2</ele>
        <time>2019-07-10T08:13:40Z</time>
      </trkpt>
      <trkpt lat="39.7258540" lon="-6.8492300">
        <ele>294.0</ele>
        <time>2019-07-10T08:13:42Z</time>
      </trkpt>
      <trkpt lat="39.7258890" lon="-6.8493110">
        <ele>293.4</ele>
        <time>2019-07-10T08:13:43Z</time>
      </trkpt>
      <trkpt lat="39.7259310" lon="-6.8493890">
        <ele>293.0</ele>
        <time>2019-07-10T08:13:44Z</time>
      </trkpt>
      <trkpt lat="39.7260290" lon="-6.8495280">
        <ele>292.6</ele>
        <time>2019-07-10T08:13:46Z</time>
      </trkpt>
      <trkpt lat="39.7260770" lon="-6.8495870">
        <ele>292.4</ele>
        <time>2019-07-10T08:13:47Z</time>
      </trkpt>
      <trkpt lat="39.7262100" lon="-6.8497300">
        <ele>292.4</ele>
        <time>2019-07-10T08:13:50Z</time>
      </trkpt>
      <trkpt lat="39.7262500" lon="-6.8497740">
        <ele>292.4</ele>
        <time>2019-07-10T08:13:51Z</time>
      </trkpt>
      <trkpt lat="39.7262850" lon="-6.8498210">
        <ele>292.6</ele>
        <time>2019-07-10T08:13:52Z</time>
      </trkpt>
      <trkpt lat="39.7263170" lon="-6.8498710">
        <ele>292.6</ele>
        <time>2019-07-10T08:13:53Z</time>
      </trkpt>
      <trkpt lat="39.7263790" lon="-6.8499710">
        <ele>292.8</ele>
        <time>2019-07-10T08:13:55Z</time>
      </trkpt>
      <trkpt lat="39.7265900" lon="-6.8502760">
        <ele>293.4</ele>
        <time>2019-07-10T08:14:01Z</time>
      </trkpt>
      <trkpt lat="39.7266670" lon="-6.8503710">
        <ele>293.6</ele>
        <time>2019-07-10T08:14:03Z</time>
      </trkpt>
      <trkpt lat="39.7268020" lon="-6.8504670">
        <ele>294.0</ele>
        <time>2019-07-10T08:14:06Z</time>
      </trkpt>
      <trkpt lat="39.7268490" lon="-6.8504790">
        <ele>294.0</ele>
        <time>2019-07-10T08:14:07Z</time>
      </trkpt>
      <trkpt lat="39.7269770" lon="-6.8504810">
        <ele>294.8</ele>
        <time>2019-07-10T08:14:10Z</time>
      </trkpt>
      <trkpt lat="39.7270150" lon="-6.8504800">
        <ele>294.8</ele>
        <time>2019-07-10T08:14:11Z</time>
      </trkpt>
      <trkpt lat="39.7270850" lon="-6.8504830">
        <ele>295.4</ele>
        <time>2019-07-10T08:14:13Z</time>
      </trkpt>
      <trkpt lat="39.7271530" lon="-6.8504900">
        <ele>296.4</ele>
        <time>2019-07-10T08:14:15Z</time>
      </trkpt>
      <trkpt lat="39.7271870" lon="-6.8504990">
        <ele>296.8</ele>
        <time>2019-07-10T08:14:16Z</time>
      </trkpt>
      <trkpt lat="39.7272540" lon="-6.8505270">
        <ele>297.6</ele>
        <time>2019-07-10T08:14:18Z</time>
      </trkpt>
      <trkpt lat="39.7273210" lon="-6.8505620">
        <ele>297.8</ele>
        <time>2019-07-10T08:14:20Z</time>
      </trkpt>
      <trkpt lat="39.7273870" lon="-6.8506070">
        <ele>298.0</ele>
        <time>2019-07-10T08:14:22Z</time>
      </trkpt>
      <trkpt lat="39.7274590" lon="-6.8506560">
        <ele>298.2</ele>
        <time>2019-07-10T08:14:24Z</time>
      </trkpt>
      <trkpt lat="39.7274960" lon="-6.8506830">
        <ele>298.2</ele>
        <time>2019-07-10T08:14:25Z</time>
      </trkpt>
      <trkpt lat="39.7276090" lon="-6.8507680">
        <ele>298.6</ele>
        <time>2019-07-10T08:14:28Z</time>
      </trkpt>
      <trkpt lat="39.7277200" lon="-6.8508440">
        <ele>299.0</ele>
        <time>2019-07-10T08:14:31Z</time>
      </trkpt>
      <trkpt lat="39.7277810" lon="-6.8508850">
        <ele>299.4</ele>
        <time>2019-07-10T08:14:33Z</time>
      </trkpt>
      <trkpt lat="39.7278330" lon="-6.8509220">
        <ele>300.2</ele>
        <time>2019-07-10T08:14:35Z</time>
      </trkpt>
      <trkpt lat="39.7279370" lon="-6.8509880">
        <ele>301.6</ele>
        <time>2019-07-10T08:14:39Z</time>
      </trkpt>
      <trkpt lat="39.7279890" lon="-6.8510230">
        <ele>302.4</ele>
        <time>2019-07-10T08:14:41Z</time>
      </trkpt>
      <trkpt lat="39.7280160" lon="-6.8510410">
        <ele>302.8</ele>
        <time>2019-07-10T08:14:42Z</time>
      </trkpt>
      <trkpt lat="39.7281450" lon="-6.8511040">
        <ele>303.6</ele>
        <time>2019-07-10T08:14:46Z</time>
      </trkpt>
      <trkpt lat="39.7282210" lon="-6.8511300">
        <ele>303.6</ele>
        <time>2019-07-10T08:14:48Z</time>
      </trkpt>
      <trkpt lat="39.7284960" lon="-6.8511770">
        <ele>303.4</ele>
        <time>2019-07-10T08:14:54Z</time>
      </trkpt>
      <trkpt lat="39.7286790" lon="-6.8511990">
        <ele>303.2</ele>
        <time>2019-07-10T08:14:58Z</time>
      </trkpt>
      <trkpt lat="39.7288260" lon="-6.8512180">
        <ele>303.2</ele>
        <time>2019-07-10T08:15:01Z</time>
      </trkpt>
      <trkpt lat="39.7289380" lon="-6.8512380">
        <ele>303.0</ele>
        <time>2019-07-10T08:15:03Z</time>
      </trkpt>
      <trkpt lat="39.7290740" lon="-6.8512690">
        <ele>302.0</ele>
        <time>2019-07-10T08:15:05Z</time>
      </trkpt>
      <trkpt lat="39.7291480" lon="-6.8512820">
        <ele>301.4</ele>
        <time>2019-07-10T08:15:06Z</time>
      </trkpt>
      <trkpt lat="39.7292210" lon="-6.8512910">
        <ele>300.8</ele>
        <time>2019-07-10T08:15:07Z</time>
      </trkpt>
      <trkpt lat="39.7293450" lon="-6.8512940">
        <ele>300.4</ele>
        <time>2019-07-10T08:15:09Z</time>
      </trkpt>
      <trkpt lat="39.7293910" lon="-6.8512920">
        <ele>300.4</ele>
        <time>2019-07-10T08:15:10Z</time>
      </trkpt>
      <trkpt lat="39.7295720" lon="-6.8512710">
        <ele>301.4</ele>
        <time>2019-07-10T08:15:15Z</time>
      </trkpt>
      <trkpt lat="39.7296070" lon="-6.8512620">
        <ele>301.8</ele>
        <time>2019-07-10T08:15:16Z</time>
      </trkpt>
      <trkpt lat="39.7297230" lon="-6.8512380">
        <ele>302.8</ele>
        <time>2019-07-10T08:15:19Z</time>
      </trkpt>
      <trkpt lat="39.7297670" lon="-6.8512230">
        <ele>303.0</ele>
        <time>2019-07-10T08:15:20Z</time>
      </trkpt>
      <trkpt lat="39.7299140" lon="-6.8511690">
        <ele>302.8</ele>
        <time>2019-07-10T08:15:23Z</time>
      </trkpt>
      <trkpt lat="39.7301250" lon="-6.8510920">
        <ele>302.0</ele>
        <time>2019-07-10T08:15:27Z</time>
      </trkpt>
      <trkpt lat="39.7302320" lon="-6.8510710">
        <ele>302.0</ele>
        <time>2019-07-10T08:15:29Z</time>
      </trkpt>
      <trkpt lat="39.7302870" lon="-6.8510670">
        <ele>302.0</ele>
        <time>2019-07-10T08:15:30Z</time>
      </trkpt>
      <trkpt lat="39.7304030" lon="-6.8510700">
        <ele>302.0</ele>
        <time>2019-07-10T08:15:32Z</time>
      </trkpt>
      <trkpt lat="39.7305340" lon="-6.8510840">
        <ele>301.6</ele>
        <time>2019-07-10T08:15:34Z</time>
      </trkpt>
      <trkpt lat="39.7306750" lon="-6.8511080">
        <ele>300.4</ele>
        <time>2019-07-10T08:15:36Z</time>
      </trkpt>
      <trkpt lat="39.7307490" lon="-6.8511210">
        <ele>300.0</ele>
        <time>2019-07-10T08:15:37Z</time>
      </trkpt>
      <trkpt lat="39.7308270" lon="-6.8511320">
        <ele>299.4</ele>
        <time>2019-07-10T08:15:38Z</time>
      </trkpt>
      <trkpt lat="39.7309890" lon="-6.8511560">
        <ele>298.2</ele>
        <time>2019-07-10T08:15:40Z</time>
      </trkpt>
      <trkpt lat="39.7312380" lon="-6.8512140">
        <ele>297.0</ele>
        <time>2019-07-10T08:15:43Z</time>
      </trkpt>
      <trkpt lat="39.7314050" lon="-6.8512680">
        <ele>295.4</ele>
        <time>2019-07-10T08:15:45Z</time>
      </trkpt>
      <trkpt lat="39.7315680" lon="-6.8513270">
        <ele>294.0</ele>
        <time>2019-07-10T08:15:47Z</time>
      </trkpt>
      <trkpt lat="39.7317900" lon="-6.8514220">
        <ele>293.0</ele>
        <time>2019-07-10T08:15:50Z</time>
      </trkpt>
      <trkpt lat="39.7319880" lon="-6.8514820">
        <ele>293.0</ele>
        <time>2019-07-10T08:15:53Z</time>
      </trkpt>
      <trkpt lat="39.7320420" lon="-6.8514930">
        <ele>293.2</ele>
        <time>2019-07-10T08:15:54Z</time>
      </trkpt>
      <trkpt lat="39.7321680" lon="-6.8515030">
        <ele>294.2</ele>
        <time>2019-07-10T08:15:57Z</time>
      </trkpt>
      <trkpt lat="39.7322370" lon="-6.8515040">
        <ele>295.2</ele>
        <time>2019-07-10T08:15:59Z</time>
      </trkpt>
      <trkpt lat="39.7322710" lon="-6.8515030">
        <ele>295.6</ele>
        <time>2019-07-10T08:16:00Z</time>
      </trkpt>
      <trkpt lat="39.7323810" lon="-6.8514950">
        <ele>296.8</ele>
        <time>2019-07-10T08:16:03Z</time>
      </trkpt>
      <trkpt lat="39.7325160" lon="-6.8514870">
        <ele>296.8</ele>
        <time>2019-07-10T08:16:06Z</time>
      </trkpt>
      <trkpt lat="39.7325660" lon="-6.8514840">
        <ele>296.8</ele>
        <time>2019-07-10T08:16:07Z</time>
      </trkpt>
      <trkpt lat="39.7326770" lon="-6.8514830">
        <ele>296.6</ele>
        <time>2019-07-10T08:16:09Z</time>
      </trkpt>
      <trkpt lat="39.7327370" lon="-6.8514810">
        <ele>296.4</ele>
        <time>2019-07-10T08:16:10Z</time>
      </trkpt>
      <trkpt lat="39.7328630" lon="-6.8514740">
        <ele>296.0</ele>
        <time>2019-07-10T08:16:12Z</time>
      </trkpt>
      <trkpt lat="39.7329290" lon="-6.8514710">
        <ele>295.6</ele>
        <time>2019-07-10T08:16:13Z</time>
      </trkpt>
      <trkpt lat="39.7331410" lon="-6.8514620">
        <ele>294.2</ele>
        <time>2019-07-10T08:16:16Z</time>
      </trkpt>
      <trkpt lat="39.7333540" lon="-6.8514780">
        <ele>293.4</ele>
        <time>2019-07-10T08:16:19Z</time>
      </trkpt>
      <trkpt lat="39.7334190" lon="-6.8514920">
        <ele>293.2</ele>
        <time>2019-07-10T08:16:20Z</time>
      </trkpt>
      <trkpt lat="39.7335360" lon="-6.8515360">
        <ele>293.0</ele>
        <time>2019-07-10T08:16:22Z</time>
      </trkpt>
      <trkpt lat="39.7336420" lon="-6.8515770">
        <ele>292.8</ele>
        <time>2019-07-10T08:16:24Z</time>
      </trkpt>
      <trkpt lat="39.7338300" lon="-6.8516600">
        <ele>293.4</ele>
        <time>2019-07-10T08:16:28Z</time>
      </trkpt>
      <trkpt lat="39.7339190" lon="-6.8517150">
        <ele>293.8</ele>
        <time>2019-07-10T08:16:30Z</time>
      </trkpt>
      <trkpt lat="39.7340500" lon="-6.8517980">
        <ele>294.0</ele>
        <time>2019-07-10T08:16:33Z</time>
      </trkpt>
      <trkpt lat="39.7340900" lon="-6.8518270">
        <ele>294.4</ele>
        <time>2019-07-10T08:16:34Z</time>
      </trkpt>
      <trkpt lat="39.7341990" lon="-6.8519210">
        <ele>295.0</ele>
        <time>2019-07-10T08:16:37Z</time>
      </trkpt>
      <trkpt lat="39.7342670" lon="-6.8519860">
        <ele>295.4</ele>
        <time>2019-07-10T08:16:39Z</time>
      </trkpt>
      <trkpt lat="39.7343730" lon="-6.8521000">
        <ele>296.0</ele>
        <time>2019-07-10T08:16:42Z</time>
      </trkpt>
      <trkpt lat="39.7344150" lon="-6.8521340">
        <ele>295.8</ele>
        <time>2019-07-10T08:16:43Z</time>
      </trkpt>
      <trkpt lat="39.7346680" lon="-6.8522440">
        <ele>295.4</ele>
        <time>2019-07-10T08:16:47Z</time>
      </trkpt>
      <trkpt lat="39.7347520" lon="-6.8522580">
        <ele>295.0</ele>
        <time>2019-07-10T08:16:48Z</time>
      </trkpt>
      <trkpt lat="39.7348370" lon="-6.8522660">
        <ele>293.8</ele>
        <time>2019-07-10T08:16:49Z</time>
      </trkpt>
      <trkpt lat="39.7349230" lon="-6.8522710">
        <ele>292.6</ele>
        <time>2019-07-10T08:16:50Z</time>
      </trkpt>
      <trkpt lat="39.7350060" lon="-6.8522790">
        <ele>292.0</ele>
        <time>2019-07-10T08:16:51Z</time>
      </trkpt>
      <trkpt lat="39.7350830" lon="-6.8522950">
        <ele>291.6</ele>
        <time>2019-07-10T08:16:52Z</time>
      </trkpt>
      <trkpt lat="39.7352560" lon="-6.8523880">
        <ele>291.2</ele>
        <time>2019-07-10T08:16:55Z</time>
      </trkpt>
      <trkpt lat="39.7353380" lon="-6.8524710">
        <ele>291.4</ele>
        <time>2019-07-10T08:16:57Z</time>
      </trkpt>
      <trkpt lat="39.7354600" lon="-6.8526080">
        <ele>292.4</ele>
        <time>2019-07-10T08:17:00Z</time>
      </trkpt>
      <trkpt lat="39.7355040" lon="-6.8526530">
        <ele>292.6</ele>
        <time>2019-07-10T08:17:01Z</time>
      </trkpt>
      <trkpt lat="39.7356370" lon="-6.8527850">
        <ele>292.6</ele>
        <time>2019-07-10T08:17:04Z</time>
      </trkpt>
      <trkpt lat="39.7358340" lon="-6.8529800">
        <ele>293.4</ele>
        <time>2019-07-10T08:17:09Z</time>
      </trkpt>
      <trkpt lat="39.7359450" lon="-6.8531030">
        <ele>293.6</ele>
        <time>2019-07-10T08:17:12Z</time>
      </trkpt>
      <trkpt lat="39.7359930" lon="-6.8532150">
        <ele>293.6</ele>
        <time>2019-07-10T08:17:14Z</time>
      </trkpt>
      <trkpt lat="39.7359990" lon="-6.8534480">
        <ele>293.4</ele>
        <time>2019-07-10T08:17:18Z</time>
      </trkpt>
      <trkpt lat="39.7359530" lon="-6.8535470">
        <ele>292.6</ele>
        <time>2019-07-10T08:17:20Z</time>
      </trkpt>
      <trkpt lat="39.7359220" lon="-6.8536000">
        <ele>292.4</ele>
        <time>2019-07-10T08:17:21Z</time>
      </trkpt>
      <trkpt lat="39.7358890" lon="-6.8536520">
        <ele>292.2</ele>
        <time>2019-07-10T08:17:22Z</time>
      </trkpt>
      <trkpt lat="39.7358320" lon="-6.8537320">
        <ele>291.4</ele>
        <time>2019-07-10T08:17:24Z</time>
      </trkpt>
      <trkpt lat="39.7358160" lon="-6.8537450">
        <ele>291.2</ele>
        <time>2019-07-10T08:17:25Z</time>
      </trkpt>
      <trkpt lat="39.7358050" lon="-6.8537470">
        <ele>291.0</ele>
        <time>2019-07-10T08:17:27Z</time>
      </trkpt>
      <trkpt lat="39.7357890" lon="-6.8537640">
        <ele>290.8</ele>
        <time>2019-07-10T08:19:06Z</time>
      </trkpt>
      <trkpt lat="39.7357790" lon="-6.8537850">
        <ele>290.8</ele>
        <time>2019-07-10T08:19:07Z</time>
      </trkpt>
      <trkpt lat="39.7357270" lon="-6.8538760">
        <ele>290.8</ele>
        <time>2019-07-10T08:19:10Z</time>
      </trkpt>
      <trkpt lat="39.7356720" lon="-6.8539530">
        <ele>290.8</ele>
        <time>2019-07-10T08:19:12Z</time>
      </trkpt>
      <trkpt lat="39.7354390" lon="-6.8542620">
        <ele>290.8</ele>
        <time>2019-07-10T08:19:19Z</time>
      </trkpt>
      <trkpt lat="39.7353550" lon="-6.8543660">
        <ele>290.6</ele>
        <time>2019-07-10T08:19:21Z</time>
      </trkpt>
      <trkpt lat="39.7353080" lon="-6.8544250">
        <ele>290.4</ele>
        <time>2019-07-10T08:19:22Z</time>
      </trkpt>
      <trkpt lat="39.7352090" lon="-6.8545510">
        <ele>289.8</ele>
        <time>2019-07-10T08:19:24Z</time>
      </trkpt>
      <trkpt lat="39.7351590" lon="-6.8546150">
        <ele>289.2</ele>
        <time>2019-07-10T08:19:25Z</time>
      </trkpt>
      <trkpt lat="39.7351090" lon="-6.8546860">
        <ele>288.6</ele>
        <time>2019-07-10T08:19:26Z</time>
      </trkpt>
      <trkpt lat="39.7350630" lon="-6.8547660">
        <ele>287.8</ele>
        <time>2019-07-10T08:19:27Z</time>
      </trkpt>
      <trkpt lat="39.7350240" lon="-6.8548540">
        <ele>286.6</ele>
        <time>2019-07-10T08:19:28Z</time>
      </trkpt>
      <trkpt lat="39.7349560" lon="-6.8550190">
        <ele>285.6</ele>
        <time>2019-07-10T08:19:30Z</time>
      </trkpt>
      <trkpt lat="39.7348900" lon="-6.8551400">
        <ele>284.8</ele>
        <time>2019-07-10T08:19:32Z</time>
      </trkpt>
      <trkpt lat="39.7347490" lon="-6.8552680">
        <ele>284.6</ele>
        <time>2019-07-10T08:19:35Z</time>
      </trkpt>
      <trkpt lat="39.7346890" lon="-6.8553100">
        <ele>284.4</ele>
        <time>2019-07-10T08:19:36Z</time>
      </trkpt>
      <trkpt lat="39.7344770" lon="-6.8554400">
        <ele>282.8</ele>
        <time>2019-07-10T08:19:39Z</time>
      </trkpt>
      <trkpt lat="39.7344020" lon="-6.8554790">
        <ele>282.0</ele>
        <time>2019-07-10T08:19:40Z</time>
      </trkpt>
      <trkpt lat="39.7343300" lon="-6.8555130">
        <ele>280.8</ele>
        <time>2019-07-10T08:19:41Z</time>
      </trkpt>
      <trkpt lat="39.7341930" lon="-6.8555640">
        <ele>279.2</ele>
        <time>2019-07-10T08:19:43Z</time>
      </trkpt>
      <trkpt lat="39.7340460" lon="-6.8556050">
        <ele>277.6</ele>
        <time>2019-07-10T08:19:45Z</time>
      </trkpt>
      <trkpt lat="39.7339680" lon="-6.8556350">
        <ele>276.6</ele>
        <time>2019-07-10T08:19:46Z</time>
      </trkpt>
      <trkpt lat="39.7338360" lon="-6.8557310">
        <ele>275.4</ele>
        <time>2019-07-10T08:19:48Z</time>
      </trkpt>
      <trkpt lat="39.7337270" lon="-6.8559140">
        <ele>275.6</ele>
        <time>2019-07-10T08:19:51Z</time>
      </trkpt>
      <trkpt lat="39.7336850" lon="-6.8560300">
        <ele>276.8</ele>
        <time>2019-07-10T08:19:53Z</time>
      </trkpt>
      <trkpt lat="39.7336480" lon="-6.8561450">
        <ele>277.4</ele>
        <time>2019-07-10T08:19:55Z</time>
      </trkpt>
      <trkpt lat="39.7336020" lon="-6.8562640">
        <ele>277.6</ele>
        <time>2019-07-10T08:19:57Z</time>
      </trkpt>
      <trkpt lat="39.7335690" lon="-6.8563250">
        <ele>277.8</ele>
        <time>2019-07-10T08:19:58Z</time>
      </trkpt>
      <trkpt lat="39.7334720" lon="-6.8564440">
        <ele>277.2</ele>
        <time>2019-07-10T08:20:00Z</time>
      </trkpt>
      <trkpt lat="39.7333760" lon="-6.8565710">
        <ele>276.8</ele>
        <time>2019-07-10T08:20:02Z</time>
      </trkpt>
      <trkpt lat="39.7333080" lon="-6.8567130">
        <ele>276.2</ele>
        <time>2019-07-10T08:20:04Z</time>
      </trkpt>
      <trkpt lat="39.7332540" lon="-6.8568560">
        <ele>275.6</ele>
        <time>2019-07-10T08:20:06Z</time>
      </trkpt>
      <trkpt lat="39.7331830" lon="-6.8569520">
        <ele>275.4</ele>
        <time>2019-07-10T08:20:08Z</time>
      </trkpt>
      <trkpt lat="39.7330310" lon="-6.8569910">
        <ele>274.8</ele>
        <time>2019-07-10T08:20:11Z</time>
      </trkpt>
      <trkpt lat="39.7329700" lon="-6.8569900">
        <ele>274.6</ele>
        <time>2019-07-10T08:20:12Z</time>
      </trkpt>
      <trkpt lat="39.7329050" lon="-6.8569960">
        <ele>274.6</ele>
        <time>2019-07-10T08:20:13Z</time>
      </trkpt>
      <trkpt lat="39.7327940" lon="-6.8570450">
        <ele>274.2</ele>
        <time>2019-07-10T08:20:15Z</time>
      </trkpt>
      <trkpt lat="39.7327520" lon="-6.8570850">
        <ele>273.2</ele>
        <time>2019-07-10T08:20:16Z</time>
      </trkpt>
      <trkpt lat="39.7326920" lon="-6.8571850">
        <ele>271.6</ele>
        <time>2019-07-10T08:20:18Z</time>
      </trkpt>
      <trkpt lat="39.7326570" lon="-6.8572990">
        <ele>271.2</ele>
        <time>2019-07-10T08:20:20Z</time>
      </trkpt>
      <trkpt lat="39.7326400" lon="-6.8573510">
        <ele>271.4</ele>
        <time>2019-07-10T08:20:21Z</time>
      </trkpt>
      <trkpt lat="39.7326210" lon="-6.8574000">
        <ele>271.6</ele>
        <time>2019-07-10T08:20:22Z</time>
      </trkpt>
      <trkpt lat="39.7326010" lon="-6.8574500">
        <ele>271.8</ele>
        <time>2019-07-10T08:20:23Z</time>
      </trkpt>
      <trkpt lat="39.7325810" lon="-6.8575010">
        <ele>272.2</ele>
        <time>2019-07-10T08:20:24Z</time>
      </trkpt>
      <trkpt lat="39.7325580" lon="-6.8575560">
        <ele>272.6</ele>
        <time>2019-07-10T08:20:25Z</time>
      </trkpt>
      <trkpt lat="39.7325150" lon="-6.8576760">
        <ele>273.0</ele>
        <time>2019-07-10T08:20:27Z</time>
      </trkpt>
      <trkpt lat="39.7324980" lon="-6.8577390">
        <ele>273.4</ele>
        <time>2019-07-10T08:20:28Z</time>
      </trkpt>
      <trkpt lat="39.7324860" lon="-6.8578020">
        <ele>273.8</ele>
        <time>2019-07-10T08:20:29Z</time>
      </trkpt>
      <trkpt lat="39.7324780" lon="-6.8580590">
        <ele>274.4</ele>
        <time>2019-07-10T08:20:33Z</time>
      </trkpt>
      <trkpt lat="39.7324830" lon="-6.8583010">
        <ele>274.8</ele>
        <time>2019-07-10T08:20:37Z</time>
      </trkpt>
      <trkpt lat="39.7324780" lon="-6.8584310">
        <ele>274.6</ele>
        <time>2019-07-10T08:20:39Z</time>
      </trkpt>
      <trkpt lat="39.7324760" lon="-6.8586130">
        <ele>274.8</ele>
        <time>2019-07-10T08:20:42Z</time>
      </trkpt>
      <trkpt lat="39.7324750" lon="-6.8587900">
        <ele>274.8</ele>
        <time>2019-07-10T08:20:45Z</time>
      </trkpt>
      <trkpt lat="39.7324690" lon="-6.8588530">
        <ele>274.6</ele>
        <time>2019-07-10T08:20:46Z</time>
      </trkpt>
      <trkpt lat="39.7324090" lon="-6.8590530">
        <ele>273.4</ele>
        <time>2019-07-10T08:20:49Z</time>
      </trkpt>
      <trkpt lat="39.7323090" lon="-6.8591790">
        <ele>272.0</ele>
        <time>2019-07-10T08:20:51Z</time>
      </trkpt>
      <trkpt lat="39.7322370" lon="-6.8592380">
        <ele>271.2</ele>
        <time>2019-07-10T08:20:52Z</time>
      </trkpt>
      <trkpt lat="39.7321580" lon="-6.8592930">
        <ele>270.4</ele>
        <time>2019-07-10T08:20:53Z</time>
      </trkpt>
      <trkpt lat="39.7319850" lon="-6.8593840">
        <ele>268.8</ele>
        <time>2019-07-10T08:20:55Z</time>
      </trkpt>
      <trkpt lat="39.7318940" lon="-6.8594190">
        <ele>268.2</ele>
        <time>2019-07-10T08:20:56Z</time>
      </trkpt>
      <trkpt lat="39.7318110" lon="-6.8594470">
        <ele>267.0</ele>
        <time>2019-07-10T08:20:57Z</time>
      </trkpt>
      <trkpt lat="39.7317290" lon="-6.8594660">
        <ele>266.4</ele>
        <time>2019-07-10T08:20:58Z</time>
      </trkpt>
      <trkpt lat="39.7316480" lon="-6.8594770">
        <ele>265.8</ele>
        <time>2019-07-10T08:20:59Z</time>
      </trkpt>
      <trkpt lat="39.7315740" lon="-6.8594800">
        <ele>265.4</ele>
        <time>2019-07-10T08:21:00Z</time>
      </trkpt>
      <trkpt lat="39.7314430" lon="-6.8594650">
        <ele>264.2</ele>
        <time>2019-07-10T08:21:02Z</time>
      </trkpt>
      <trkpt lat="39.7313850" lon="-6.8594530">
        <ele>263.2</ele>
        <time>2019-07-10T08:21:03Z</time>
      </trkpt>
      <trkpt lat="39.7313330" lon="-6.8594450">
        <ele>262.6</ele>
        <time>2019-07-10T08:21:04Z</time>
      </trkpt>
      <trkpt lat="39.7312630" lon="-6.8594780">
        <ele>260.8</ele>
        <time>2019-07-10T08:21:06Z</time>
      </trkpt>
      <trkpt lat="39.7312560" lon="-6.8595110">
        <ele>259.8</ele>
        <time>2019-07-10T08:21:07Z</time>
      </trkpt>
      <trkpt lat="39.7312910" lon="-6.8595770">
        <ele>258.4</ele>
        <time>2019-07-10T08:21:09Z</time>
      </trkpt>
      <trkpt lat="39.7313250" lon="-6.8596080">
        <ele>258.0</ele>
        <time>2019-07-10T08:21:10Z</time>
      </trkpt>
      <trkpt lat="39.7314110" lon="-6.8596740">
        <ele>257.4</ele>
        <time>2019-07-10T08:21:12Z</time>
      </trkpt>
      <trkpt lat="39.7314610" lon="-6.8597070">
        <ele>257.2</ele>
        <time>2019-07-10T08:21:13Z</time>
      </trkpt>
      <trkpt lat="39.7315670" lon="-6.8597710">
        <ele>256.8</ele>
        <time>2019-07-10T08:21:15Z</time>
      </trkpt>
      <trkpt lat="39.7316240" lon="-6.8597960">
        <ele>256.4</ele>
        <time>2019-07-10T08:21:16Z</time>
      </trkpt>
      <trkpt lat="39.7316830" lon="-6.8598170">
        <ele>256.2</ele>
        <time>2019-07-10T08:21:17Z</time>
      </trkpt>
      <trkpt lat="39.7317720" lon="-6.8598600">
        <ele>255.4</ele>
        <time>2019-07-10T08:21:19Z</time>
      </trkpt>
      <trkpt lat="39.7317930" lon="-6.8598980">
        <ele>255.0</ele>
        <time>2019-07-10T08:21:20Z</time>
      </trkpt>
      <trkpt lat="39.7317820" lon="-6.8599750">
        <ele>253.8</ele>
        <time>2019-07-10T08:21:22Z</time>
      </trkpt>
      <trkpt lat="39.7317010" lon="-6.8600250">
        <ele>252.8</ele>
        <time>2019-07-10T08:21:24Z</time>
      </trkpt>
      <trkpt lat="39.7316360" lon="-6.8600390">
        <ele>252.2</ele>
        <time>2019-07-10T08:21:25Z</time>
      </trkpt>
      <trkpt lat="39.7315610" lon="-6.8600520">
        <ele>251.4</ele>
        <time>2019-07-10T08:21:26Z</time>
      </trkpt>
      <trkpt lat="39.7314080" lon="-6.8600880">
        <ele>249.6</ele>
        <time>2019-07-10T08:21:28Z</time>
      </trkpt>
      <trkpt lat="39.7313390" lon="-6.8601060">
        <ele>248.2</ele>
        <time>2019-07-10T08:21:29Z</time>
      </trkpt>
      <trkpt lat="39.7312180" lon="-6.8601370">
        <ele>246.2</ele>
        <time>2019-07-10T08:21:31Z</time>
      </trkpt>
      <trkpt lat="39.7311690" lon="-6.8601560">
        <ele>245.2</ele>
        <time>2019-07-10T08:21:32Z</time>
      </trkpt>
      <trkpt lat="39.7311280" lon="-6.8601790">
        <ele>244.2</ele>
        <time>2019-07-10T08:21:33Z</time>
      </trkpt>
      <trkpt lat="39.7311010" lon="-6.8602090">
        <ele>243.0</ele>
        <time>2019-07-10T08:21:34Z</time>
      </trkpt>
      <trkpt lat="39.7311010" lon="-6.8602890">
        <ele>241.2</ele>
        <time>2019-07-10T08:21:36Z</time>
      </trkpt>
      <trkpt lat="39.7311690" lon="-6.8603720">
        <ele>240.6</ele>
        <time>2019-07-10T08:21:39Z</time>
      </trkpt>
      <trkpt lat="39.7311930" lon="-6.8603970">
        <ele>240.6</ele>
        <time>2019-07-10T08:21:40Z</time>
      </trkpt>
      <trkpt lat="39.7312350" lon="-6.8604600">
        <ele>241.0</ele>
        <time>2019-07-10T08:21:42Z</time>
      </trkpt>
      <trkpt lat="39.7313030" lon="-6.8605510">
        <ele>241.4</ele>
        <time>2019-07-10T08:21:45Z</time>
      </trkpt>
      <trkpt lat="39.7313530" lon="-6.8606100">
        <ele>241.8</ele>
        <time>2019-07-10T08:21:47Z</time>
      </trkpt>
      <trkpt lat="39.7313760" lon="-6.8606420">
        <ele>242.0</ele>
        <time>2019-07-10T08:21:48Z</time>
      </trkpt>
      <trkpt lat="39.7314150" lon="-6.8607010">
        <ele>242.6</ele>
        <time>2019-07-10T08:21:50Z</time>
      </trkpt>
      <trkpt lat="39.7314550" lon="-6.8607570">
        <ele>243.2</ele>
        <time>2019-07-10T08:21:52Z</time>
      </trkpt>
      <trkpt lat="39.7314920" lon="-6.8608170">
        <ele>243.6</ele>
        <time>2019-07-10T08:21:54Z</time>
      </trkpt>
      <trkpt lat="39.7315080" lon="-6.8608510">
        <ele>244.0</ele>
        <time>2019-07-10T08:21:55Z</time>
      </trkpt>
      <trkpt lat="39.7315340" lon="-6.8609270">
        <ele>244.6</ele>
        <time>2019-07-10T08:21:57Z</time>
      </trkpt>
      <trkpt lat="39.7315540" lon="-6.8610070">
        <ele>245.0</ele>
        <time>2019-07-10T08:21:59Z</time>
      </trkpt>
      <trkpt lat="39.7315600" lon="-6.8610810">
        <ele>245.6</ele>
        <time>2019-07-10T08:22:01Z</time>
      </trkpt>
      <trkpt lat="39.7315510" lon="-6.8611470">
        <ele>246.2</ele>
        <time>2019-07-10T08:22:03Z</time>
      </trkpt>
      <trkpt lat="39.7315270" lon="-6.8612130">
        <ele>246.6</ele>
        <time>2019-07-10T08:22:05Z</time>
      </trkpt>
      <trkpt lat="39.7314450" lon="-6.8612900">
        <ele>247.2</ele>
        <time>2019-07-10T08:22:08Z</time>
      </trkpt>
      <trkpt lat="39.7314070" lon="-6.8613050">
        <ele>247.4</ele>
        <time>2019-07-10T08:22:09Z</time>
      </trkpt>
      <trkpt lat="39.7313320" lon="-6.8613450">
        <ele>247.4</ele>
        <time>2019-07-10T08:22:11Z</time>
      </trkpt>
      <trkpt lat="39.7312670" lon="-6.8614090">
        <ele>247.6</ele>
        <time>2019-07-10T08:22:13Z</time>
      </trkpt>
      <trkpt lat="39.7310500" lon="-6.8616830">
        <ele>247.8</ele>
        <time>2019-07-10T08:22:20Z</time>
      </trkpt>
      <trkpt lat="39.7309800" lon="-6.8617520">
        <ele>248.0</ele>
        <time>2019-07-10T08:22:22Z</time>
      </trkpt>
      <trkpt lat="39.7309060" lon="-6.8618210">
        <ele>248.4</ele>
        <time>2019-07-10T08:22:24Z</time>
      </trkpt>
      <trkpt lat="39.7308280" lon="-6.8618850">
        <ele>248.6</ele>
        <time>2019-07-10T08:22:26Z</time>
      </trkpt>
      <trkpt lat="39.7306900" lon="-6.8619340">
        <ele>248.8</ele>
        <time>2019-07-10T08:22:29Z</time>
      </trkpt>
      <trkpt lat="39.7306420" lon="-6.8619380">
        <ele>249.0</ele>
        <time>2019-07-10T08:22:30Z</time>
      </trkpt>
      <trkpt lat="39.7304990" lon="-6.8619410">
        <ele>249.4</ele>
        <time>2019-07-10T08:22:33Z</time>
      </trkpt>
      <trkpt lat="39.7304520" lon="-6.8619640">
        <ele>249.6</ele>
        <time>2019-07-10T08:22:34Z</time>
      </trkpt>
      <trkpt lat="39.7303320" lon="-6.8620980">
        <ele>249.6</ele>
        <time>2019-07-10T08:22:37Z</time>
      </trkpt>
      <trkpt lat="39.7302910" lon="-6.8621450">
        <ele>249.6</ele>
        <time>2019-07-10T08:22:38Z</time>
      </trkpt>
      <trkpt lat="39.7302450" lon="-6.8621880">
        <ele>249.6</ele>
        <time>2019-07-10T08:22:39Z</time>
      </trkpt>
      <trkpt lat="39.7300900" lon="-6.8622910">
        <ele>249.8</ele>
        <time>2019-07-10T08:22:42Z</time>
      </trkpt>
      <trkpt lat="39.7299600" lon="-6.8624560">
        <ele>249.8</ele>
        <time>2019-07-10T08:22:45Z</time>
      </trkpt>
      <trkpt lat="39.7299260" lon="-6.8625230">
        <ele>249.8</ele>
        <time>2019-07-10T08:22:46Z</time>
      </trkpt>
      <trkpt lat="39.7298940" lon="-6.8625930">
        <ele>249.4</ele>
        <time>2019-07-10T08:22:47Z</time>
      </trkpt>
      <trkpt lat="39.7298710" lon="-6.8626590">
        <ele>249.0</ele>
        <time>2019-07-10T08:22:48Z</time>
      </trkpt>
      <trkpt lat="39.7298600" lon="-6.8627210">
        <ele>248.2</ele>
        <time>2019-07-10T08:22:49Z</time>
      </trkpt>
      <trkpt lat="39.7298650" lon="-6.8627810">
        <ele>247.6</ele>
        <time>2019-07-10T08:22:50Z</time>
      </trkpt>
      <trkpt lat="39.7299510" lon="-6.8628910">
        <ele>247.4</ele>
        <time>2019-07-10T08:22:53Z</time>
      </trkpt>
      <trkpt lat="39.7300220" lon="-6.8629300">
        <ele>247.6</ele>
        <time>2019-07-10T08:22:55Z</time>
      </trkpt>
      <trkpt lat="39.7300890" lon="-6.8629760">
        <ele>248.0</ele>
        <time>2019-07-10T08:22:57Z</time>
      </trkpt>
      <trkpt lat="39.7301500" lon="-6.8630420">
        <ele>248.6</ele>
        <time>2019-07-10T08:22:59Z</time>
      </trkpt>
      <trkpt lat="39.7301890" lon="-6.8631360">
        <ele>248.6</ele>
        <time>2019-07-10T08:23:01Z</time>
      </trkpt>
      <trkpt lat="39.7301890" lon="-6.8632560">
        <ele>248.6</ele>
        <time>2019-07-10T08:23:03Z</time>
      </trkpt>
      <trkpt lat="39.7301130" lon="-6.8634520">
        <ele>248.0</ele>
        <time>2019-07-10T08:23:06Z</time>
      </trkpt>
      <trkpt lat="39.7300800" lon="-6.8635190">
        <ele>247.8</ele>
        <time>2019-07-10T08:23:07Z</time>
      </trkpt>
      <trkpt lat="39.7300150" lon="-6.8636470">
        <ele>247.4</ele>
        <time>2019-07-10T08:23:09Z</time>
      </trkpt>
      <trkpt lat="39.7299930" lon="-6.8637660">
        <ele>247.0</ele>
        <time>2019-07-10T08:23:11Z</time>
      </trkpt>
      <trkpt lat="39.7300070" lon="-6.8638180">
        <ele>246.8</ele>
        <time>2019-07-10T08:23:12Z</time>
      </trkpt>
      <trkpt lat="39.7300650" lon="-6.8638870">
        <ele>246.8</ele>
        <time>2019-07-10T08:23:14Z</time>
      </trkpt>
      <trkpt lat="39.7301540" lon="-6.8639490">
        <ele>246.6</ele>
        <time>2019-07-10T08:23:17Z</time>
      </trkpt>
      <trkpt lat="39.7301940" lon="-6.8640120">
        <ele>247.0</ele>
        <time>2019-07-10T08:23:19Z</time>
      </trkpt>
      <trkpt lat="39.7302150" lon="-6.8640930">
        <ele>247.4</ele>
        <time>2019-07-10T08:23:21Z</time>
      </trkpt>
      <trkpt lat="39.7302190" lon="-6.8641900">
        <ele>247.6</ele>
        <time>2019-07-10T08:23:23Z</time>
      </trkpt>
      <trkpt lat="39.7302130" lon="-6.8642960">
        <ele>248.2</ele>
        <time>2019-07-10T08:23:25Z</time>
      </trkpt>
      <trkpt lat="39.7301820" lon="-6.8644640">
        <ele>248.0</ele>
        <time>2019-07-10T08:23:28Z</time>
      </trkpt>
      <trkpt lat="39.7301680" lon="-6.8645160">
        <ele>248.2</ele>
        <time>2019-07-10T08:23:29Z</time>
      </trkpt>
      <trkpt lat="39.7301390" lon="-6.8646660">
        <ele>249.0</ele>
        <time>2019-07-10T08:23:32Z</time>
      </trkpt>
      <trkpt lat="39.7301430" lon="-6.8647190">
        <ele>249.0</ele>
        <time>2019-07-10T08:23:33Z</time>
      </trkpt>
      <trkpt lat="39.7301720" lon="-6.8648120">
        <ele>249.2</ele>
        <time>2019-07-10T08:23:35Z</time>
      </trkpt>
      <trkpt lat="39.7301910" lon="-6.8648530">
        <ele>249.4</ele>
        <time>2019-07-10T08:23:36Z</time>
      </trkpt>
      <trkpt lat="39.7302180" lon="-6.8649330">
        <ele>249.8</ele>
        <time>2019-07-10T08:23:38Z</time>
      </trkpt>
      <trkpt lat="39.7302440" lon="-6.8650820">
        <ele>250.4</ele>
        <time>2019-07-10T08:23:42Z</time>
      </trkpt>
      <trkpt lat="39.7302720" lon="-6.8651920">
        <ele>251.4</ele>
        <time>2019-07-10T08:23:45Z</time>
      </trkpt>
      <trkpt lat="39.7302860" lon="-6.8652690">
        <ele>251.8</ele>
        <time>2019-07-10T08:23:47Z</time>
      </trkpt>
      <trkpt lat="39.7302890" lon="-6.8654300">
        <ele>252.8</ele>
        <time>2019-07-10T08:23:51Z</time>
      </trkpt>
      <trkpt lat="39.7302840" lon="-6.8654700">
        <ele>252.8</ele>
        <time>2019-07-10T08:23:52Z</time>
      </trkpt>
      <trkpt lat="39.7302320" lon="-6.8656140">
        <ele>254.0</ele>
        <time>2019-07-10T08:23:56Z</time>
      </trkpt>
      <trkpt lat="39.7302100" lon="-6.8656420">
        <ele>254.4</ele>
        <time>2019-07-10T08:23:57Z</time>
      </trkpt>
      <trkpt lat="39.7301340" lon="-6.8657040">
        <ele>255.2</ele>
        <time>2019-07-10T08:24:00Z</time>
      </trkpt>
      <trkpt lat="39.7301070" lon="-6.8657240">
        <ele>255.2</ele>
        <time>2019-07-10T08:24:01Z</time>
      </trkpt>
      <trkpt lat="39.7300220" lon="-6.8657870">
        <ele>255.8</ele>
        <time>2019-07-10T08:24:04Z</time>
      </trkpt>
      <trkpt lat="39.7298950" lon="-6.8658880">
        <ele>256.4</ele>
        <time>2019-07-10T08:24:09Z</time>
      </trkpt>
      <trkpt lat="39.7298200" lon="-6.8659460">
        <ele>257.2</ele>
        <time>2019-07-10T08:24:12Z</time>
      </trkpt>
      <trkpt lat="39.7297640" lon="-6.8659780">
        <ele>257.4</ele>
        <time>2019-07-10T08:24:14Z</time>
      </trkpt>
      <trkpt lat="39.7296000" lon="-6.8660320">
        <ele>258.2</ele>
        <time>2019-07-10T08:24:19Z</time>
      </trkpt>
      <trkpt lat="39.7295170" lon="-6.8660480">
        <ele>257.8</ele>
        <time>2019-07-10T08:24:21Z</time>
      </trkpt>
      <trkpt lat="39.7294120" lon="-6.8660640">
        <ele>257.4</ele>
        <time>2019-07-10T08:24:23Z</time>
      </trkpt>
      <trkpt lat="39.7293520" lon="-6.8660800">
        <ele>257.0</ele>
        <time>2019-07-10T08:24:24Z</time>
      </trkpt>
      <trkpt lat="39.7292250" lon="-6.8661140">
        <ele>256.0</ele>
        <time>2019-07-10T08:24:26Z</time>
      </trkpt>
      <trkpt lat="39.7290880" lon="-6.8661510">
        <ele>254.8</ele>
        <time>2019-07-10T08:24:28Z</time>
      </trkpt>
      <trkpt lat="39.7289580" lon="-6.8661890">
        <ele>253.2</ele>
        <time>2019-07-10T08:24:30Z</time>
      </trkpt>
      <trkpt lat="39.7288370" lon="-6.8662230">
        <ele>251.6</ele>
        <time>2019-07-10T08:24:32Z</time>
      </trkpt>
      <trkpt lat="39.7287200" lon="-6.8662510">
        <ele>250.2</ele>
        <time>2019-07-10T08:24:34Z</time>
      </trkpt>
      <trkpt lat="39.7286640" lon="-6.8662670">
        <ele>249.8</ele>
        <time>2019-07-10T08:24:35Z</time>
      </trkpt>
      <trkpt lat="39.7286140" lon="-6.8662860">
        <ele>249.0</ele>
        <time>2019-07-10T08:24:36Z</time>
      </trkpt>
      <trkpt lat="39.7285660" lon="-6.8663090">
        <ele>248.6</ele>
        <time>2019-07-10T08:24:37Z</time>
      </trkpt>
      <trkpt lat="39.7284960" lon="-6.8663830">
        <ele>247.6</ele>
        <time>2019-07-10T08:24:39Z</time>
      </trkpt>
      <trkpt lat="39.7284770" lon="-6.8664370">
        <ele>246.8</ele>
        <time>2019-07-10T08:24:40Z</time>
      </trkpt>
      <trkpt lat="39.7284630" lon="-6.8665030">
        <ele>245.8</ele>
        <time>2019-07-10T08:24:41Z</time>
      </trkpt>
      <trkpt lat="39.7284320" lon="-6.8666370">
        <ele>244.4</ele>
        <time>2019-07-10T08:24:43Z</time>
      </trkpt>
      <trkpt lat="39.7284130" lon="-6.8666930">
        <ele>243.8</ele>
        <time>2019-07-10T08:24:44Z</time>
      </trkpt>
      <trkpt lat="39.7283900" lon="-6.8667390">
        <ele>243.4</ele>
        <time>2019-07-10T08:24:45Z</time>
      </trkpt>
      <trkpt lat="39.7282920" lon="-6.8668500">
        <ele>242.2</ele>
        <time>2019-07-10T08:24:48Z</time>
      </trkpt>
      <trkpt lat="39.7282500" lon="-6.8668860">
        <ele>242.0</ele>
        <time>2019-07-10T08:24:49Z</time>
      </trkpt>
      <trkpt lat="39.7282050" lon="-6.8669160">
        <ele>241.8</ele>
        <time>2019-07-10T08:24:50Z</time>
      </trkpt>
      <trkpt lat="39.7280690" lon="-6.8669470">
        <ele>241.0</ele>
        <time>2019-07-10T08:24:53Z</time>
      </trkpt>
      <trkpt lat="39.7280290" lon="-6.8669480">
        <ele>240.8</ele>
        <time>2019-07-10T08:24:54Z</time>
      </trkpt>
      <trkpt lat="39.7279930" lon="-6.8669470">
        <ele>239.6</ele>
        <time>2019-07-10T08:24:56Z</time>
      </trkpt>
      <trkpt lat="39.7279900" lon="-6.8669460">
        <ele>239.2</ele>
        <time>2019-07-10T08:24:57Z</time>
      </trkpt>
      <trkpt lat="39.7279910" lon="-6.8669460">
        <ele>238.8</ele>
        <time>2019-07-10T08:24:58Z</time>
      </trkpt>
      <trkpt lat="39.7279760" lon="-6.8669430">
        <ele>238.0</ele>
        <time>2019-07-10T08:25:30Z</time>
      </trkpt>
      <trkpt lat="39.7279280" lon="-6.8669500">
        <ele>238.0</ele>
        <time>2019-07-10T08:25:32Z</time>
      </trkpt>
      <trkpt lat="39.7278320" lon="-6.8670010">
        <ele>237.6</ele>
        <time>2019-07-10T08:25:35Z</time>
      </trkpt>
      <trkpt lat="39.7278010" lon="-6.8670380">
        <ele>237.4</ele>
        <time>2019-07-10T08:25:36Z</time>
      </trkpt>
      <trkpt lat="39.7276960" lon="-6.8672100">
        <ele>236.8</ele>
        <time>2019-07-10T08:25:40Z</time>
      </trkpt>
      <trkpt lat="39.7275620" lon="-6.8672220">
        <ele>236.2</ele>
        <time>2019-07-10T08:25:43Z</time>
      </trkpt>
      <trkpt lat="39.7275030" lon="-6.8672130">
        <ele>236.2</ele>
        <time>2019-07-10T08:25:44Z</time>
      </trkpt>
      <trkpt lat="39.7274400" lon="-6.8672010">
        <ele>235.6</ele>
        <time>2019-07-10T08:25:45Z</time>
      </trkpt>
      <trkpt lat="39.7273040" lon="-6.8671620">
        <ele>234.2</ele>
        <time>2019-07-10T08:25:47Z</time>
      </trkpt>
      <trkpt lat="39.7271630" lon="-6.8671180">
        <ele>232.4</ele>
        <time>2019-07-10T08:25:49Z</time>
      </trkpt>
      <trkpt lat="39.7270240" lon="-6.8670680">
        <ele>231.4</ele>
        <time>2019-07-10T08:25:51Z</time>
      </trkpt>
      <trkpt lat="39.7269550" lon="-6.8670300">
        <ele>231.2</ele>
        <time>2019-07-10T08:25:52Z</time>
      </trkpt>
      <trkpt lat="39.7268870" lon="-6.8669860">
        <ele>230.8</ele>
        <time>2019-07-10T08:25:53Z</time>
      </trkpt>
      <trkpt lat="39.7267560" lon="-6.8668910">
        <ele>230.0</ele>
        <time>2019-07-10T08:25:55Z</time>
      </trkpt>
      <trkpt lat="39.7266090" lon="-6.8668040">
        <ele>228.4</ele>
        <time>2019-07-10T08:25:57Z</time>
      </trkpt>
      <trkpt lat="39.7265280" lon="-6.8667670">
        <ele>227.4</ele>
        <time>2019-07-10T08:25:58Z</time>
      </trkpt>
      <trkpt lat="39.7264450" lon="-6.8667360">
        <ele>226.8</ele>
        <time>2019-07-10T08:25:59Z</time>
      </trkpt>
      <trkpt lat="39.7262080" lon="-6.8666480">
        <ele>225.6</ele>
        <time>2019-07-10T08:26:02Z</time>
      </trkpt>
      <trkpt lat="39.7260580" lon="-6.8666050">
        <ele>225.6</ele>
        <time>2019-07-10T08:26:04Z</time>
      </trkpt>
      <trkpt lat="39.7258550" lon="-6.8665190">
        <ele>225.6</ele>
        <time>2019-07-10T08:26:07Z</time>
      </trkpt>
      <trkpt lat="39.7257440" lon="-6.8664280">
        <ele>225.6</ele>
        <time>2019-07-10T08:26:09Z</time>
      </trkpt>
      <trkpt lat="39.7255870" lon="-6.8663110">
        <ele>224.4</ele>
        <time>2019-07-10T08:26:13Z</time>
      </trkpt>
      <trkpt lat="39.7255340" lon="-6.8664180">
        <ele>223.6</ele>
        <time>2019-07-10T08:26:16Z</time>
      </trkpt>
      <trkpt lat="39.7255270" lon="-6.8664730">
        <ele>223.6</ele>
        <time>2019-07-10T08:26:17Z</time>
      </trkpt>
      <trkpt lat="39.7255170" lon="-6.8665370">
        <ele>223.4</ele>
        <time>2019-07-10T08:26:18Z</time>
      </trkpt>
      <trkpt lat="39.7254900" lon="-6.8666880">
        <ele>222.8</ele>
        <time>2019-07-10T08:26:20Z</time>
      </trkpt>
      <trkpt lat="39.7254760" lon="-6.8667670">
        <ele>222.6</ele>
        <time>2019-07-10T08:26:21Z</time>
      </trkpt>
      <trkpt lat="39.7254540" lon="-6.8668940">
        <ele>221.2</ele>
        <time>2019-07-10T08:26:23Z</time>
      </trkpt>
      <trkpt lat="39.7254460" lon="-6.8669350">
        <ele>220.4</ele>
        <time>2019-07-10T08:26:24Z</time>
      </trkpt>
      <trkpt lat="39.7254360" lon="-6.8669610">
        <ele>219.8</ele>
        <time>2019-07-10T08:26:25Z</time>
      </trkpt>
      <trkpt lat="39.7254160" lon="-6.8669850">
        <ele>219.4</ele>
        <time>2019-07-10T08:26:28Z</time>
      </trkpt>
      <trkpt lat="39.7254130" lon="-6.8669850">
        <ele>219.4</ele>
        <time>2019-07-10T08:26:29Z</time>
      </trkpt>
      <trkpt lat="39.7253740" lon="-6.8670370">
        <ele>219.8</ele>
        <time>2019-07-10T08:27:04Z</time>
      </trkpt>
      <trkpt lat="39.7253600" lon="-6.8670470">
        <ele>219.8</ele>
        <time>2019-07-10T08:27:05Z</time>
      </trkpt>
      <trkpt lat="39.7253220" lon="-6.8670590">
        <ele>220.0</ele>
        <time>2019-07-10T08:27:07Z</time>
      </trkpt>
      <trkpt lat="39.7252070" lon="-6.8671070">
        <ele>220.6</ele>
        <time>2019-07-10T08:27:12Z</time>
      </trkpt>
      <trkpt lat="39.7251800" lon="-6.8671210">
        <ele>220.8</ele>
        <time>2019-07-10T08:27:13Z</time>
      </trkpt>
      <trkpt lat="39.7250770" lon="-6.8672030">
        <ele>221.2</ele>
        <time>2019-07-10T08:27:17Z</time>
      </trkpt>
      <trkpt lat="39.7250270" lon="-6.8672500">
        <ele>221.6</ele>
        <time>2019-07-10T08:27:19Z</time>
      </trkpt>
      <trkpt lat="39.7249800" lon="-6.8673020">
        <ele>222.0</ele>
        <time>2019-07-10T08:27:21Z</time>
      </trkpt>
      <trkpt lat="39.7249000" lon="-6.8674320">
        <ele>222.6</ele>
        <time>2019-07-10T08:27:25Z</time>
      </trkpt>
      <trkpt lat="39.7248820" lon="-6.8674640">
        <ele>222.8</ele>
        <time>2019-07-10T08:27:26Z</time>
      </trkpt>
      <trkpt lat="39.7248480" lon="-6.8675300">
        <ele>223.2</ele>
        <time>2019-07-10T08:27:28Z</time>
      </trkpt>
      <trkpt lat="39.7248090" lon="-6.8676980">
        <ele>223.8</ele>
        <time>2019-07-10T08:27:32Z</time>
      </trkpt>
      <trkpt lat="39.7248060" lon="-6.8680380">
        <ele>223.8</ele>
        <time>2019-07-10T08:27:38Z</time>
      </trkpt>
      <trkpt lat="39.7247240" lon="-6.8681550">
        <ele>223.8</ele>
        <time>2019-07-10T08:27:41Z</time>
      </trkpt>
      <trkpt lat="39.7245890" lon="-6.8681830">
        <ele>223.4</ele>
        <time>2019-07-10T08:27:44Z</time>
      </trkpt>
      <trkpt lat="39.7244900" lon="-6.8681970">
        <ele>222.8</ele>
        <time>2019-07-10T08:27:46Z</time>
      </trkpt>
      <trkpt lat="39.7243300" lon="-6.8682180">
        <ele>223.0</ele>
        <time>2019-07-10T08:27:49Z</time>
      </trkpt>
      <trkpt lat="39.7242380" lon="-6.8682850">
        <ele>222.6</ele>
        <time>2019-07-10T08:27:51Z</time>
      </trkpt>
      <trkpt lat="39.7241470" lon="-6.8683770">
        <ele>222.2</ele>
        <time>2019-07-10T08:27:53Z</time>
      </trkpt>
      <trkpt lat="39.7241020" lon="-6.8684200">
        <ele>221.8</ele>
        <time>2019-07-10T08:27:54Z</time>
      </trkpt>
      <trkpt lat="39.7240530" lon="-6.8684590">
        <ele>221.4</ele>
        <time>2019-07-10T08:27:55Z</time>
      </trkpt>
      <trkpt lat="39.7239940" lon="-6.8684890">
        <ele>220.8</ele>
        <time>2019-07-10T08:27:56Z</time>
      </trkpt>
      <trkpt lat="39.7239280" lon="-6.8685090">
        <ele>220.4</ele>
        <time>2019-07-10T08:27:57Z</time>
      </trkpt>
      <trkpt lat="39.7237330" lon="-6.8685410">
        <ele>219.2</ele>
        <time>2019-07-10T08:28:00Z</time>
      </trkpt>
      <trkpt lat="39.7236800" lon="-6.8685520">
        <ele>218.8</ele>
        <time>2019-07-10T08:28:01Z</time>
      </trkpt>
      <trkpt lat="39.7235930" lon="-6.8685880">
        <ele>218.8</ele>
        <time>2019-07-10T08:28:03Z</time>
      </trkpt>
      <trkpt lat="39.7235580" lon="-6.8686110">
        <ele>219.0</ele>
        <time>2019-07-10T08:28:04Z</time>
      </trkpt>
      <trkpt lat="39.7235270" lon="-6.8686360">
        <ele>219.2</ele>
        <time>2019-07-10T08:28:05Z</time>
      </trkpt>
      <trkpt lat="39.7234320" lon="-6.8686990">
        <ele>220.2</ele>
        <time>2019-07-10T08:28:08Z</time>
      </trkpt>
      <trkpt lat="39.7233370" lon="-6.8687360">
        <ele>220.6</ele>
        <time>2019-07-10T08:28:11Z</time>
      </trkpt>
      <trkpt lat="39.7232400" lon="-6.8687780">
        <ele>220.6</ele>
        <time>2019-07-10T08:28:14Z</time>
      </trkpt>
      <trkpt lat="39.7231700" lon="-6.8688570">
        <ele>220.4</ele>
        <time>2019-07-10T08:28:16Z</time>
      </trkpt>
      <trkpt lat="39.7231050" lon="-6.8689440">
        <ele>220.0</ele>
        <time>2019-07-10T08:28:18Z</time>
      </trkpt>
      <trkpt lat="39.7230760" lon="-6.8690490">
        <ele>219.8</ele>
        <time>2019-07-10T08:28:20Z</time>
      </trkpt>
      <trkpt lat="39.7231410" lon="-6.8691880">
        <ele>219.4</ele>
        <time>2019-07-10T08:28:23Z</time>
      </trkpt>
      <trkpt lat="39.7231750" lon="-6.8692310">
        <ele>219.4</ele>
        <time>2019-07-10T08:28:24Z</time>
      </trkpt>
      <trkpt lat="39.7233930" lon="-6.8694740">
        <ele>219.4</ele>
        <time>2019-07-10T08:28:30Z</time>
      </trkpt>
      <trkpt lat="39.7234310" lon="-6.8695030">
        <ele>219.6</ele>
        <time>2019-07-10T08:28:31Z</time>
      </trkpt>
      <trkpt lat="39.7235700" lon="-6.8695670">
        <ele>220.2</ele>
        <time>2019-07-10T08:28:35Z</time>
      </trkpt>
      <trkpt lat="39.7236890" lon="-6.8696080">
        <ele>221.0</ele>
        <time>2019-07-10T08:28:39Z</time>
      </trkpt>
      <trkpt lat="39.7237190" lon="-6.8696120">
        <ele>221.2</ele>
        <time>2019-07-10T08:28:40Z</time>
      </trkpt>
      <trkpt lat="39.7237760" lon="-6.8696250">
        <ele>222.2</ele>
        <time>2019-07-10T08:28:42Z</time>
      </trkpt>
      <trkpt lat="39.7238020" lon="-6.8696290">
        <ele>222.6</ele>
        <time>2019-07-10T08:28:43Z</time>
      </trkpt>
      <trkpt lat="39.7238710" lon="-6.8696400">
        <ele>223.6</ele>
        <time>2019-07-10T08:28:46Z</time>
      </trkpt>
      <trkpt lat="39.7239480" lon="-6.8696160">
        <ele>223.8</ele>
        <time>2019-07-10T08:28:49Z</time>
      </trkpt>
      <trkpt lat="39.7240240" lon="-6.8695470">
        <ele>224.6</ele>
        <time>2019-07-10T08:28:52Z</time>
      </trkpt>
      <trkpt lat="39.7241030" lon="-6.8694670">
        <ele>225.6</ele>
        <time>2019-07-10T08:28:55Z</time>
      </trkpt>
      <trkpt lat="39.7242600" lon="-6.8693880">
        <ele>226.4</ele>
        <time>2019-07-10T08:29:00Z</time>
      </trkpt>
      <trkpt lat="39.7243240" lon="-6.8693810">
        <ele>226.8</ele>
        <time>2019-07-10T08:29:02Z</time>
      </trkpt>
      <trkpt lat="39.7244590" lon="-6.8694400">
        <ele>227.8</ele>
        <time>2019-07-10T08:29:07Z</time>
      </trkpt>
      <trkpt lat="39.7246080" lon="-6.8695300">
        <ele>228.8</ele>
        <time>2019-07-10T08:29:13Z</time>
      </trkpt>
      <trkpt lat="39.7246730" lon="-6.8695740">
        <ele>230.0</ele>
        <time>2019-07-10T08:29:16Z</time>
      </trkpt>
      <trkpt lat="39.7247780" lon="-6.8696530">
        <ele>231.2</ele>
        <time>2019-07-10T08:29:21Z</time>
      </trkpt>
      <trkpt lat="39.7248670" lon="-6.8697970">
        <ele>232.2</ele>
        <time>2019-07-10T08:29:27Z</time>
      </trkpt>
      <trkpt lat="39.7248850" lon="-6.8698540">
        <ele>232.6</ele>
        <time>2019-07-10T08:29:29Z</time>
      </trkpt>
      <trkpt lat="39.7249130" lon="-6.8700790">
        <ele>233.4</ele>
        <time>2019-07-10T08:29:36Z</time>
      </trkpt>
      <trkpt lat="39.7249180" lon="-6.8702590">
        <ele>234.6</ele>
        <time>2019-07-10T08:29:41Z</time>
      </trkpt>
      <trkpt lat="39.7249230" lon="-6.8702940">
        <ele>234.8</ele>
        <time>2019-07-10T08:29:42Z</time>
      </trkpt>
      <trkpt lat="39.7249450" lon="-6.8704030">
        <ele>235.6</ele>
        <time>2019-07-10T08:29:45Z</time>
      </trkpt>
      <trkpt lat="39.7250160" lon="-6.8705150">
        <ele>236.2</ele>
        <time>2019-07-10T08:29:49Z</time>
      </trkpt>
      <trkpt lat="39.7250630" lon="-6.8705510">
        <ele>236.8</ele>
        <time>2019-07-10T08:29:51Z</time>
      </trkpt>
      <trkpt lat="39.7251340" lon="-6.8706090">
        <ele>237.8</ele>
        <time>2019-07-10T08:29:54Z</time>
      </trkpt>
      <trkpt lat="39.7252070" lon="-6.8706820">
        <ele>238.4</ele>
        <time>2019-07-10T08:29:57Z</time>
      </trkpt>
      <trkpt lat="39.7252940" lon="-6.8707830">
        <ele>239.0</ele>
        <time>2019-07-10T08:30:01Z</time>
      </trkpt>
      <trkpt lat="39.7253420" lon="-6.8708760">
        <ele>239.4</ele>
        <time>2019-07-10T08:30:04Z</time>
      </trkpt>
      <trkpt lat="39.7253760" lon="-6.8709590">
        <ele>239.6</ele>
        <time>2019-07-10T08:30:06Z</time>
      </trkpt>
      <trkpt lat="39.7254040" lon="-6.8710700">
        <ele>239.6</ele>
        <time>2019-07-10T08:30:08Z</time>
      </trkpt>
      <trkpt lat="39.7254370" lon="-6.8712700">
        <ele>239.2</ele>
        <time>2019-07-10T08:30:11Z</time>
      </trkpt>
      <trkpt lat="39.7254650" lon="-6.8714190">
        <ele>238.6</ele>
        <time>2019-07-10T08:30:13Z</time>
      </trkpt>
      <trkpt lat="39.7254800" lon="-6.8714990">
        <ele>238.2</ele>
        <time>2019-07-10T08:30:14Z</time>
      </trkpt>
      <trkpt lat="39.7254940" lon="-6.8715780">
        <ele>237.8</ele>
        <time>2019-07-10T08:30:15Z</time>
      </trkpt>
      <trkpt lat="39.7255030" lon="-6.8716520">
        <ele>237.6</ele>
        <time>2019-07-10T08:30:16Z</time>
      </trkpt>
      <trkpt lat="39.7254790" lon="-6.8718030">
        <ele>236.6</ele>
        <time>2019-07-10T08:30:18Z</time>
      </trkpt>
      <trkpt lat="39.7254150" lon="-6.8719670">
        <ele>236.0</ele>
        <time>2019-07-10T08:30:20Z</time>
      </trkpt>
      <trkpt lat="39.7253800" lon="-6.8720520">
        <ele>235.4</ele>
        <time>2019-07-10T08:30:21Z</time>
      </trkpt>
      <trkpt lat="39.7253420" lon="-6.8721350">
        <ele>234.8</ele>
        <time>2019-07-10T08:30:22Z</time>
      </trkpt>
      <trkpt lat="39.7252920" lon="-6.8722070">
        <ele>234.4</ele>
        <time>2019-07-10T08:30:23Z</time>
      </trkpt>
      <trkpt lat="39.7252330" lon="-6.8722670">
        <ele>234.2</ele>
        <time>2019-07-10T08:30:24Z</time>
      </trkpt>
      <trkpt lat="39.7251690" lon="-6.8723200">
        <ele>233.8</ele>
        <time>2019-07-10T08:30:25Z</time>
      </trkpt>
      <trkpt lat="39.7250400" lon="-6.8724280">
        <ele>233.2</ele>
        <time>2019-07-10T08:30:27Z</time>
      </trkpt>
      <trkpt lat="39.7249770" lon="-6.8724870">
        <ele>233.0</ele>
        <time>2019-07-10T08:30:28Z</time>
      </trkpt>
      <trkpt lat="39.7248200" lon="-6.8727100">
        <ele>232.4</ele>
        <time>2019-07-10T08:30:31Z</time>
      </trkpt>
      <trkpt lat="39.7247420" lon="-6.8728750">
        <ele>232.2</ele>
        <time>2019-07-10T08:30:33Z</time>
      </trkpt>
      <trkpt lat="39.7246960" lon="-6.8730270">
        <ele>232.2</ele>
        <time>2019-07-10T08:30:35Z</time>
      </trkpt>
      <trkpt lat="39.7246820" lon="-6.8730920">
        <ele>232.4</ele>
        <time>2019-07-10T08:30:36Z</time>
      </trkpt>
      <trkpt lat="39.7246400" lon="-6.8732500">
        <ele>233.0</ele>
        <time>2019-07-10T08:30:39Z</time>
      </trkpt>
      <trkpt lat="39.7246250" lon="-6.8732960">
        <ele>233.2</ele>
        <time>2019-07-10T08:30:40Z</time>
      </trkpt>
      <trkpt lat="39.7246070" lon="-6.8733870">
        <ele>233.6</ele>
        <time>2019-07-10T08:30:42Z</time>
      </trkpt>
      <trkpt lat="39.7245960" lon="-6.8734770">
        <ele>234.0</ele>
        <time>2019-07-10T08:30:44Z</time>
      </trkpt>
      <trkpt lat="39.7245800" lon="-6.8735610">
        <ele>234.6</ele>
        <time>2019-07-10T08:30:46Z</time>
      </trkpt>
      <trkpt lat="39.7245530" lon="-6.8736340">
        <ele>235.2</ele>
        <time>2019-07-10T08:30:48Z</time>
      </trkpt>
      <trkpt lat="39.7245330" lon="-6.8737120">
        <ele>235.8</ele>
        <time>2019-07-10T08:30:50Z</time>
      </trkpt>
      <trkpt lat="39.7245220" lon="-6.8737920">
        <ele>236.4</ele>
        <time>2019-07-10T08:30:52Z</time>
      </trkpt>
      <trkpt lat="39.7245070" lon="-6.8738720">
        <ele>237.0</ele>
        <time>2019-07-10T08:30:54Z</time>
      </trkpt>
      <trkpt lat="39.7244720" lon="-6.8739870">
        <ele>237.4</ele>
        <time>2019-07-10T08:30:57Z</time>
      </trkpt>
      <trkpt lat="39.7244610" lon="-6.8740250">
        <ele>237.8</ele>
        <time>2019-07-10T08:30:58Z</time>
      </trkpt>
      <trkpt lat="39.7244330" lon="-6.8740970">
        <ele>238.2</ele>
        <time>2019-07-10T08:31:00Z</time>
      </trkpt>
      <trkpt lat="39.7243890" lon="-6.8742060">
        <ele>238.8</ele>
        <time>2019-07-10T08:31:03Z</time>
      </trkpt>
      <trkpt lat="39.7243180" lon="-6.8743500">
        <ele>239.8</ele>
        <time>2019-07-10T08:31:07Z</time>
      </trkpt>
      <trkpt lat="39.7243000" lon="-6.8743850">
        <ele>240.0</ele>
        <time>2019-07-10T08:31:08Z</time>
      </trkpt>
      <trkpt lat="39.7242200" lon="-6.8745230">
        <ele>240.4</ele>
        <time>2019-07-10T08:31:12Z</time>
      </trkpt>
      <trkpt lat="39.7241410" lon="-6.8746670">
        <ele>240.8</ele>
        <time>2019-07-10T08:31:16Z</time>
      </trkpt>
      <trkpt lat="39.7241060" lon="-6.8747420">
        <ele>241.0</ele>
        <time>2019-07-10T08:31:18Z</time>
      </trkpt>
      <trkpt lat="39.7239720" lon="-6.8750260">
        <ele>241.8</ele>
        <time>2019-07-10T08:31:25Z</time>
      </trkpt>
      <trkpt lat="39.7239220" lon="-6.8752490">
        <ele>242.2</ele>
        <time>2019-07-10T08:31:29Z</time>
      </trkpt>
      <trkpt lat="39.7238930" lon="-6.8753660">
        <ele>242.2</ele>
        <time>2019-07-10T08:31:31Z</time>
      </trkpt>
      <trkpt lat="39.7238400" lon="-6.8755310">
        <ele>242.4</ele>
        <time>2019-07-10T08:31:34Z</time>
      </trkpt>
      <trkpt lat="39.7237650" lon="-6.8756140">
        <ele>242.2</ele>
        <time>2019-07-10T08:31:36Z</time>
      </trkpt>
      <trkpt lat="39.7236520" lon="-6.8756460">
        <ele>241.6</ele>
        <time>2019-07-10T08:31:38Z</time>
      </trkpt>
      <trkpt lat="39.7235870" lon="-6.8756390">
        <ele>241.2</ele>
        <time>2019-07-10T08:31:39Z</time>
      </trkpt>
      <trkpt lat="39.7235180" lon="-6.8756260">
        <ele>241.0</ele>
        <time>2019-07-10T08:31:40Z</time>
      </trkpt>
      <trkpt lat="39.7232820" lon="-6.8755810">
        <ele>239.8</ele>
        <time>2019-07-10T08:31:43Z</time>
      </trkpt>
      <trkpt lat="39.7231970" lon="-6.8755830">
        <ele>239.2</ele>
        <time>2019-07-10T08:31:44Z</time>
      </trkpt>
      <trkpt lat="39.7230360" lon="-6.8756370">
        <ele>238.2</ele>
        <time>2019-07-10T08:31:46Z</time>
      </trkpt>
      <trkpt lat="39.7229660" lon="-6.8756880">
        <ele>238.0</ele>
        <time>2019-07-10T08:31:47Z</time>
      </trkpt>
      <trkpt lat="39.7228580" lon="-6.8758150">
        <ele>237.8</ele>
        <time>2019-07-10T08:31:49Z</time>
      </trkpt>
      <trkpt lat="39.7228150" lon="-6.8758810">
        <ele>237.8</ele>
        <time>2019-07-10T08:31:50Z</time>
      </trkpt>
      <trkpt lat="39.7227000" lon="-6.8760600">
        <ele>238.4</ele>
        <time>2019-07-10T08:31:53Z</time>
      </trkpt>
      <trkpt lat="39.7226210" lon="-6.8761670">
        <ele>238.8</ele>
        <time>2019-07-10T08:31:55Z</time>
      </trkpt>
      <trkpt lat="39.7225790" lon="-6.8762190">
        <ele>239.0</ele>
        <time>2019-07-10T08:31:56Z</time>
      </trkpt>
      <trkpt lat="39.7223970" lon="-6.8764600">
        <ele>239.0</ele>
        <time>2019-07-10T08:32:00Z</time>
      </trkpt>
      <trkpt lat="39.7223440" lon="-6.8765240">
        <ele>238.8</ele>
        <time>2019-07-10T08:32:01Z</time>
      </trkpt>
      <trkpt lat="39.7219770" lon="-6.8769130">
        <ele>237.6</ele>
        <time>2019-07-10T08:32:07Z</time>
      </trkpt>
      <trkpt lat="39.7219140" lon="-6.8769770">
        <ele>237.2</ele>
        <time>2019-07-10T08:32:08Z</time>
      </trkpt>
      <trkpt lat="39.7217860" lon="-6.8771010">
        <ele>236.6</ele>
        <time>2019-07-10T08:32:10Z</time>
      </trkpt>
      <trkpt lat="39.7214320" lon="-6.8774520">
        <ele>236.8</ele>
        <time>2019-07-10T08:32:16Z</time>
      </trkpt>
      <trkpt lat="39.7212590" lon="-6.8775980">
        <ele>236.8</ele>
        <time>2019-07-10T08:32:19Z</time>
      </trkpt>
      <trkpt lat="39.7210760" lon="-6.8777150">
        <ele>236.6</ele>
        <time>2019-07-10T08:32:22Z</time>
      </trkpt>
      <trkpt lat="39.7210110" lon="-6.8777440">
        <ele>236.6</ele>
        <time>2019-07-10T08:32:23Z</time>
      </trkpt>
      <trkpt lat="39.7207970" lon="-6.8778080">
        <ele>236.2</ele>
        <time>2019-07-10T08:32:26Z</time>
      </trkpt>
      <trkpt lat="39.7207210" lon="-6.8778250">
        <ele>236.0</ele>
        <time>2019-07-10T08:32:27Z</time>
      </trkpt>
      <trkpt lat="39.7204820" lon="-6.8778720">
        <ele>235.0</ele>
        <time>2019-07-10T08:32:30Z</time>
      </trkpt>
      <trkpt lat="39.7203340" lon="-6.8779630">
        <ele>234.4</ele>
        <time>2019-07-10T08:32:32Z</time>
      </trkpt>
      <trkpt lat="39.7202500" lon="-6.8781290">
        <ele>234.2</ele>
        <time>2019-07-10T08:32:34Z</time>
      </trkpt>
      <trkpt lat="39.7202250" lon="-6.8783110">
        <ele>234.4</ele>
        <time>2019-07-10T08:32:36Z</time>
      </trkpt>
      <trkpt lat="39.7202000" lon="-6.8784820">
        <ele>234.6</ele>
        <time>2019-07-10T08:32:38Z</time>
      </trkpt>
      <trkpt lat="39.7201120" lon="-6.8787880">
        <ele>234.4</ele>
        <time>2019-07-10T08:32:42Z</time>
      </trkpt>
      <trkpt lat="39.7200710" lon="-6.8789330">
        <ele>233.8</ele>
        <time>2019-07-10T08:32:44Z</time>
      </trkpt>
      <trkpt lat="39.7200340" lon="-6.8790400">
        <ele>232.8</ele>
        <time>2019-07-10T08:32:46Z</time>
      </trkpt>
      <trkpt lat="39.7200110" lon="-6.8791070">
        <ele>231.8</ele>
        <time>2019-07-10T08:32:48Z</time>
      </trkpt>
      <trkpt lat="39.7199980" lon="-6.8791420">
        <ele>231.4</ele>
        <time>2019-07-10T08:32:49Z</time>
      </trkpt>
      <trkpt lat="39.7199720" lon="-6.8791760">
        <ele>230.8</ele>
        <time>2019-07-10T08:32:50Z</time>
      </trkpt>
      <trkpt lat="39.7199340" lon="-6.8792080">
        <ele>230.4</ele>
        <time>2019-07-10T08:32:51Z</time>
      </trkpt>
      <trkpt lat="39.7198850" lon="-6.8792360">
        <ele>230.0</ele>
        <time>2019-07-10T08:32:52Z</time>
      </trkpt>
      <trkpt lat="39.7197770" lon="-6.8792830">
        <ele>228.8</ele>
        <time>2019-07-10T08:32:55Z</time>
      </trkpt>
      <trkpt lat="39.7197620" lon="-6.8792360">
        <ele>227.8</ele>
        <time>2019-07-10T08:32:58Z</time>
      </trkpt>
      <trkpt lat="39.7198330" lon="-6.8792340">
        <ele>227.4</ele>
        <time>2019-07-10T08:33:01Z</time>
      </trkpt>
      <trkpt lat="39.7199430" lon="-6.8792800">
        <ele>227.8</ele>
        <time>2019-07-10T08:33:05Z</time>
      </trkpt>
      <trkpt lat="39.7199680" lon="-6.8792870">
        <ele>227.8</ele>
        <time>2019-07-10T08:33:06Z</time>
      </trkpt>
      <trkpt lat="39.7200690" lon="-6.8793230">
        <ele>228.8</ele>
        <time>2019-07-10T08:33:10Z</time>
      </trkpt>
      <trkpt lat="39.7201510" lon="-6.8793720">
        <ele>228.8</ele>
        <time>2019-07-10T08:33:13Z</time>
      </trkpt>
      <trkpt lat="39.7201780" lon="-6.8793910">
        <ele>228.8</ele>
        <time>2019-07-10T08:33:14Z</time>
      </trkpt>
      <trkpt lat="39.7199540" lon="-6.8793460">
        <ele>229.0</ele>
        <time>2019-07-10T08:36:50Z</time>
      </trkpt>
      <trkpt lat="39.7199360" lon="-6.8793390">
        <ele>229.0</ele>
        <time>2019-07-10T08:36:51Z</time>
      </trkpt>
      <trkpt lat="39.7198970" lon="-6.8793240">
        <ele>229.0</ele>
        <time>2019-07-10T08:36:52Z</time>
      </trkpt>
      <trkpt lat="39.7197440" lon="-6.8792870">
        <ele>228.4</ele>
        <time>2019-07-10T08:36:55Z</time>
      </trkpt>
      <trkpt lat="39.7196160" lon="-6.8792660">
        <ele>227.6</ele>
        <time>2019-07-10T08:36:57Z</time>
      </trkpt>
      <trkpt lat="39.7193950" lon="-6.8792300">
        <ele>226.4</ele>
        <time>2019-07-10T08:37:00Z</time>
      </trkpt>
      <trkpt lat="39.7191490" lon="-6.8791930">
        <ele>225.2</ele>
        <time>2019-07-10T08:37:03Z</time>
      </trkpt>
      <trkpt lat="39.7189770" lon="-6.8791570">
        <ele>224.6</ele>
        <time>2019-07-10T08:37:05Z</time>
      </trkpt>
      <trkpt lat="39.7188930" lon="-6.8791260">
        <ele>224.2</ele>
        <time>2019-07-10T08:37:06Z</time>
      </trkpt>
      <trkpt lat="39.7186760" lon="-6.8790040">
        <ele>223.4</ele>
        <time>2019-07-10T08:37:09Z</time>
      </trkpt>
      <trkpt lat="39.7186170" lon="-6.8789520">
        <ele>223.2</ele>
        <time>2019-07-10T08:37:10Z</time>
      </trkpt>
      <trkpt lat="39.7185190" lon="-6.8788590">
        <ele>222.8</ele>
        <time>2019-07-10T08:37:12Z</time>
      </trkpt>
      <trkpt lat="39.7184760" lon="-6.8788270">
        <ele>222.6</ele>
        <time>2019-07-10T08:37:13Z</time>
      </trkpt>
      <trkpt lat="39.7184380" lon="-6.8788140">
        <ele>222.4</ele>
        <time>2019-07-10T08:37:14Z</time>
      </trkpt>
      <trkpt lat="39.7183860" lon="-6.8788420">
        <ele>222.2</ele>
        <time>2019-07-10T08:37:16Z</time>
      </trkpt>
      <trkpt lat="39.7183710" lon="-6.8788760">
        <ele>222.0</ele>
        <time>2019-07-10T08:37:17Z</time>
      </trkpt>
      <trkpt lat="39.7183840" lon="-6.8790610">
        <ele>221.2</ele>
        <time>2019-07-10T08:37:21Z</time>
      </trkpt>
      <trkpt lat="39.7183990" lon="-6.8791070">
        <ele>221.0</ele>
        <time>2019-07-10T08:37:22Z</time>
      </trkpt>
      <trkpt lat="39.7184850" lon="-6.8792980">
        <ele>220.8</ele>
        <time>2019-07-10T08:37:27Z</time>
      </trkpt>
      <trkpt lat="39.7185020" lon="-6.8793630">
        <ele>221.2</ele>
        <time>2019-07-10T08:37:29Z</time>
      </trkpt>
      <trkpt lat="39.7185040" lon="-6.8795070">
        <ele>220.8</ele>
        <time>2019-07-10T08:37:32Z</time>
      </trkpt>
      <trkpt lat="39.7184110" lon="-6.8796570">
        <ele>220.2</ele>
        <time>2019-07-10T08:37:35Z</time>
      </trkpt>
      <trkpt lat="39.7183050" lon="-6.8797870">
        <ele>220.0</ele>
        <time>2019-07-10T08:37:38Z</time>
      </trkpt>
      <trkpt lat="39.7182420" lon="-6.8798750">
        <ele>219.8</ele>
        <time>2019-07-10T08:37:40Z</time>
      </trkpt>
      <trkpt lat="39.7182120" lon="-6.8799190">
        <ele>219.8</ele>
        <time>2019-07-10T08:37:41Z</time>
      </trkpt>
      <trkpt lat="39.7181860" lon="-6.8799650">
        <ele>219.8</ele>
        <time>2019-07-10T08:37:42Z</time>
      </trkpt>
      <trkpt lat="39.7181070" lon="-6.8801490">
        <ele>220.0</ele>
        <time>2019-07-10T08:37:46Z</time>
      </trkpt>
      <trkpt lat="39.7180710" lon="-6.8802260">
        <ele>220.6</ele>
        <time>2019-07-10T08:37:48Z</time>
      </trkpt>
      <trkpt lat="39.7180450" lon="-6.8803000">
        <ele>221.0</ele>
        <time>2019-07-10T08:37:50Z</time>
      </trkpt>
      <trkpt lat="39.7180130" lon="-6.8803980">
        <ele>221.6</ele>
        <time>2019-07-10T08:37:53Z</time>
      </trkpt>
      <trkpt lat="39.7180000" lon="-6.8804290">
        <ele>221.8</ele>
        <time>2019-07-10T08:37:54Z</time>
      </trkpt>
      <trkpt lat="39.7179870" lon="-6.8804590">
        <ele>222.0</ele>
        <time>2019-07-10T08:37:55Z</time>
      </trkpt>
      <trkpt lat="39.7179480" lon="-6.8805470">
        <ele>223.2</ele>
        <time>2019-07-10T08:37:58Z</time>
      </trkpt>
      <trkpt lat="39.7179270" lon="-6.8806030">
        <ele>223.8</ele>
        <time>2019-07-10T08:38:00Z</time>
      </trkpt>
      <trkpt lat="39.7179120" lon="-6.8806470">
        <ele>224.4</ele>
        <time>2019-07-10T08:38:02Z</time>
      </trkpt>
      <trkpt lat="39.7178750" lon="-6.8807290">
        <ele>225.2</ele>
        <time>2019-07-10T08:38:06Z</time>
      </trkpt>
      <trkpt lat="39.7178710" lon="-6.8807480">
        <ele>225.4</ele>
        <time>2019-07-10T08:38:07Z</time>
      </trkpt>
      <trkpt lat="39.7178700" lon="-6.8807710">
        <ele>225.6</ele>
        <time>2019-07-10T08:38:08Z</time>
      </trkpt>
      <trkpt lat="39.7178520" lon="-6.8808260">
        <ele>226.4</ele>
        <time>2019-07-10T08:38:11Z</time>
      </trkpt>
      <trkpt lat="39.7178440" lon="-6.8808420">
        <ele>226.6</ele>
        <time>2019-07-10T08:38:12Z</time>
      </trkpt>
      <trkpt lat="39.7178390" lon="-6.8808600">
        <ele>227.0</ele>
        <time>2019-07-10T08:38:13Z</time>
      </trkpt>
      <trkpt lat="39.7178320" lon="-6.8808730">
        <ele>227.2</ele>
        <time>2019-07-10T08:38:14Z</time>
      </trkpt>
      <trkpt lat="39.7178050" lon="-6.8808770">
        <ele>227.4</ele>
        <time>2019-07-10T08:38:18Z</time>
      </trkpt>
      <trkpt lat="39.7178300" lon="-6.8808560">
        <ele>227.6</ele>
        <time>2019-07-10T08:38:20Z</time>
      </trkpt>
      <trkpt lat="39.7178590" lon="-6.8808010">
        <ele>227.8</ele>
        <time>2019-07-10T08:38:22Z</time>
      </trkpt>
      <trkpt lat="39.7179190" lon="-6.8807080">
        <ele>227.6</ele>
        <time>2019-07-10T08:38:24Z</time>
      </trkpt>
      <trkpt lat="39.7179590" lon="-6.8806540">
        <ele>227.2</ele>
        <time>2019-07-10T08:38:25Z</time>
      </trkpt>
      <trkpt lat="39.7180690" lon="-6.8805910">
        <ele>226.6</ele>
        <time>2019-07-10T08:38:28Z</time>
      </trkpt>
      <trkpt lat="39.7181110" lon="-6.8805720">
        <ele>227.2</ele>
        <time>2019-07-10T08:38:30Z</time>
      </trkpt>
      <trkpt lat="39.7181250" lon="-6.8805610">
        <ele>227.4</ele>
        <time>2019-07-10T08:38:31Z</time>
      </trkpt>
      <trkpt lat="39.7181340" lon="-6.8805430">
        <ele>227.6</ele>
        <time>2019-07-10T08:38:32Z</time>
      </trkpt>
      <trkpt lat="39.7181750" lon="-6.8805130">
        <ele>228.0</ele>
        <time>2019-07-10T08:38:35Z</time>
      </trkpt>
      <trkpt lat="39.7182280" lon="-6.8804990">
        <ele>228.2</ele>
        <time>2019-07-10T08:38:38Z</time>
      </trkpt>
      <trkpt lat="39.7182480" lon="-6.8804940">
        <ele>228.2</ele>
        <time>2019-07-10T08:38:39Z</time>
      </trkpt>
      <trkpt lat="39.7182740" lon="-6.8805160">
        <ele>228.6</ele>
        <time>2019-07-10T08:38:41Z</time>
      </trkpt>
      <trkpt lat="39.7182790" lon="-6.8805380">
        <ele>228.8</ele>
        <time>2019-07-10T08:38:42Z</time>
      </trkpt>
      <trkpt lat="39.7182840" lon="-6.8806310">
        <ele>229.8</ele>
        <time>2019-07-10T08:38:46Z</time>
      </trkpt>
      <trkpt lat="39.7183020" lon="-6.8806880">
        <ele>230.8</ele>
        <time>2019-07-10T08:38:49Z</time>
      </trkpt>
      <trkpt lat="39.7183030" lon="-6.8807190">
        <ele>231.0</ele>
        <time>2019-07-10T08:38:51Z</time>
      </trkpt>
      <trkpt lat="39.7182720" lon="-6.8807470">
        <ele>231.2</ele>
        <time>2019-07-10T08:38:53Z</time>
      </trkpt>
      <trkpt lat="39.7181920" lon="-6.8808570">
        <ele>231.8</ele>
        <time>2019-07-10T08:38:58Z</time>
      </trkpt>
      <trkpt lat="39.7181780" lon="-6.8808800">
        <ele>232.2</ele>
        <time>2019-07-10T08:38:59Z</time>
      </trkpt>
      <trkpt lat="39.7181650" lon="-6.8809020">
        <ele>232.4</ele>
        <time>2019-07-10T08:39:00Z</time>
      </trkpt>
      <trkpt lat="39.7181200" lon="-6.8809910">
        <ele>233.4</ele>
        <time>2019-07-10T08:39:04Z</time>
      </trkpt>
      <trkpt lat="39.7180860" lon="-6.8810650">
        <ele>234.6</ele>
        <time>2019-07-10T08:39:08Z</time>
      </trkpt>
      <trkpt lat="39.7180600" lon="-6.8811300">
        <ele>235.0</ele>
        <time>2019-07-10T08:39:11Z</time>
      </trkpt>
      <trkpt lat="39.7180270" lon="-6.8812460">
        <ele>235.6</ele>
        <time>2019-07-10T08:39:15Z</time>
      </trkpt>
      <trkpt lat="39.7179990" lon="-6.8812950">
        <ele>235.8</ele>
        <time>2019-07-10T08:39:17Z</time>
      </trkpt>
      <trkpt lat="39.7179030" lon="-6.8814470">
        <ele>236.0</ele>
        <time>2019-07-10T08:39:22Z</time>
      </trkpt>
      <trkpt lat="39.7178850" lon="-6.8814770">
        <ele>236.0</ele>
        <time>2019-07-10T08:39:23Z</time>
      </trkpt>
      <trkpt lat="39.7178750" lon="-6.8815720">
        <ele>236.2</ele>
        <time>2019-07-10T08:39:26Z</time>
      </trkpt>
      <trkpt lat="39.7178860" lon="-6.8816340">
        <ele>236.4</ele>
        <time>2019-07-10T08:39:28Z</time>
      </trkpt>
      <trkpt lat="39.7178980" lon="-6.8817050">
        <ele>236.6</ele>
        <time>2019-07-10T08:39:30Z</time>
      </trkpt>
      <trkpt lat="39.7178920" lon="-6.8818190">
        <ele>236.8</ele>
        <time>2019-07-10T08:39:33Z</time>
      </trkpt>
      <trkpt lat="39.7178860" lon="-6.8818540">
        <ele>236.8</ele>
        <time>2019-07-10T08:39:34Z</time>
      </trkpt>
      <trkpt lat="39.7178860" lon="-6.8819240">
        <ele>237.0</ele>
        <time>2019-07-10T08:39:36Z</time>
      </trkpt>
      <trkpt lat="39.7179180" lon="-6.8820240">
        <ele>237.0</ele>
        <time>2019-07-10T08:39:39Z</time>
      </trkpt>
      <trkpt lat="39.7179920" lon="-6.8822000">
        <ele>237.6</ele>
        <time>2019-07-10T08:39:45Z</time>
      </trkpt>
      <trkpt lat="39.7180010" lon="-6.8822300">
        <ele>237.6</ele>
        <time>2019-07-10T08:39:46Z</time>
      </trkpt>
      <trkpt lat="39.7180250" lon="-6.8823160">
        <ele>238.0</ele>
        <time>2019-07-10T08:39:50Z</time>
      </trkpt>
      <trkpt lat="39.7180400" lon="-6.8823270">
        <ele>238.4</ele>
        <time>2019-07-10T08:39:54Z</time>
      </trkpt>
      <trkpt lat="39.7180410" lon="-6.8824380">
        <ele>238.0</ele>
        <time>2019-07-10T08:43:30Z</time>
      </trkpt>
      <trkpt lat="39.7180480" lon="-6.8824500">
        <ele>238.2</ele>
        <time>2019-07-10T08:43:31Z</time>
      </trkpt>
      <trkpt lat="39.7180560" lon="-6.8824680">
        <ele>238.2</ele>
        <time>2019-07-10T08:43:32Z</time>
      </trkpt>
      <trkpt lat="39.7180840" lon="-6.8825600">
        <ele>238.6</ele>
        <time>2019-07-10T08:43:37Z</time>
      </trkpt>
      <trkpt lat="39.7180920" lon="-6.8826040">
        <ele>238.8</ele>
        <time>2019-07-10T08:43:39Z</time>
      </trkpt>
      <trkpt lat="39.7181050" lon="-6.8826370">
        <ele>239.0</ele>
        <time>2019-07-10T08:43:41Z</time>
      </trkpt>
      <trkpt lat="39.7181090" lon="-6.8826540">
        <ele>239.2</ele>
        <time>2019-07-10T08:43:42Z</time>
      </trkpt>
      <trkpt lat="39.7181200" lon="-6.8826860">
        <ele>239.4</ele>
        <time>2019-07-10T08:43:45Z</time>
      </trkpt>
      <trkpt lat="39.7181090" lon="-6.8826930">
        <ele>239.6</ele>
        <time>2019-07-10T08:43:46Z</time>
      </trkpt>
      <trkpt lat="39.7180950" lon="-6.8826190">
        <ele>239.6</ele>
        <time>2019-07-10T08:43:51Z</time>
      </trkpt>
      <trkpt lat="39.7180880" lon="-6.8825560">
        <ele>238.8</ele>
        <time>2019-07-10T08:43:57Z</time>
      </trkpt>
      <trkpt lat="39.7180810" lon="-6.8825350">
        <ele>238.6</ele>
        <time>2019-07-10T08:44:01Z</time>
      </trkpt>
      <trkpt lat="39.7179830" lon="-6.8824030">
        <ele>238.2</ele>
        <time>2019-07-10T08:44:14Z</time>
      </trkpt>
      <trkpt lat="39.7179750" lon="-6.8823650">
        <ele>238.2</ele>
        <time>2019-07-10T08:44:15Z</time>
      </trkpt>
      <trkpt lat="39.7179740" lon="-6.8822630">
        <ele>238.0</ele>
        <time>2019-07-10T08:44:17Z</time>
      </trkpt>
      <trkpt lat="39.7179550" lon="-6.8821430">
        <ele>237.6</ele>
        <time>2019-07-10T08:44:19Z</time>
      </trkpt>
      <trkpt lat="39.7179460" lon="-6.8820790">
        <ele>237.4</ele>
        <time>2019-07-10T08:44:20Z</time>
      </trkpt>
      <trkpt lat="39.7179250" lon="-6.8820220">
        <ele>237.4</ele>
        <time>2019-07-10T08:44:21Z</time>
      </trkpt>
      <trkpt lat="39.7178500" lon="-6.8819350">
        <ele>237.2</ele>
        <time>2019-07-10T08:44:23Z</time>
      </trkpt>
      <trkpt lat="39.7177010" lon="-6.8819010">
        <ele>236.8</ele>
        <time>2019-07-10T08:44:26Z</time>
      </trkpt>
      <trkpt lat="39.7176050" lon="-6.8818800">
        <ele>236.2</ele>
        <time>2019-07-10T08:44:28Z</time>
      </trkpt>
      <trkpt lat="39.7174310" lon="-6.8817970">
        <ele>236.6</ele>
        <time>2019-07-10T08:44:32Z</time>
      </trkpt>
      <trkpt lat="39.7172940" lon="-6.8816800">
        <ele>237.0</ele>
        <time>2019-07-10T08:44:36Z</time>
      </trkpt>
      <trkpt lat="39.7172430" lon="-6.8816230">
        <ele>237.2</ele>
        <time>2019-07-10T08:44:38Z</time>
      </trkpt>
      <trkpt lat="39.7171130" lon="-6.8814750">
        <ele>237.6</ele>
        <time>2019-07-10T08:44:43Z</time>
      </trkpt>
      <trkpt lat="39.7170620" lon="-6.8814190">
        <ele>238.0</ele>
        <time>2019-07-10T08:44:45Z</time>
      </trkpt>
      <trkpt lat="39.7169840" lon="-6.8813540">
        <ele>238.6</ele>
        <time>2019-07-10T08:44:48Z</time>
      </trkpt>
      <trkpt lat="39.7169310" lon="-6.8813160">
        <ele>239.0</ele>
        <time>2019-07-10T08:44:50Z</time>
      </trkpt>
      <trkpt lat="39.7169030" lon="-6.8813000">
        <ele>239.2</ele>
        <time>2019-07-10T08:44:51Z</time>
      </trkpt>
      <trkpt lat="39.7168460" lon="-6.8812760">
        <ele>239.6</ele>
        <time>2019-07-10T08:44:53Z</time>
      </trkpt>
      <trkpt lat="39.7167850" lon="-6.8812670">
        <ele>239.8</ele>
        <time>2019-07-10T08:44:55Z</time>
      </trkpt>
      <trkpt lat="39.7167210" lon="-6.8812720">
        <ele>240.2</ele>
        <time>2019-07-10T08:44:57Z</time>
      </trkpt>
      <trkpt lat="39.7166310" lon="-6.8813040">
        <ele>240.8</ele>
        <time>2019-07-10T08:45:00Z</time>
      </trkpt>
      <trkpt lat="39.7165230" lon="-6.8813710">
        <ele>241.6</ele>
        <time>2019-07-10T08:45:04Z</time>
      </trkpt>
      <trkpt lat="39.7164730" lon="-6.8814120">
        <ele>242.0</ele>
        <time>2019-07-10T08:45:06Z</time>
      </trkpt>
      <trkpt lat="39.7163780" lon="-6.8815160">
        <ele>242.4</ele>
        <time>2019-07-10T08:45:10Z</time>
      </trkpt>
      <trkpt lat="39.7163290" lon="-6.8815710">
        <ele>242.8</ele>
        <time>2019-07-10T08:45:12Z</time>
      </trkpt>
      <trkpt lat="39.7163040" lon="-6.8815970">
        <ele>243.0</ele>
        <time>2019-07-10T08:45:13Z</time>
      </trkpt>
      <trkpt lat="39.7162110" lon="-6.8817090">
        <ele>243.6</ele>
        <time>2019-07-10T08:45:17Z</time>
      </trkpt>
      <trkpt lat="39.7161210" lon="-6.8818250">
        <ele>244.0</ele>
        <time>2019-07-10T08:45:21Z</time>
      </trkpt>
      <trkpt lat="39.7160980" lon="-6.8818520">
        <ele>244.2</ele>
        <time>2019-07-10T08:45:22Z</time>
      </trkpt>
      <trkpt lat="39.7159820" lon="-6.8819830">
        <ele>245.0</ele>
        <time>2019-07-10T08:45:27Z</time>
      </trkpt>
      <trkpt lat="39.7159100" lon="-6.8820590">
        <ele>245.4</ele>
        <time>2019-07-10T08:45:30Z</time>
      </trkpt>
      <trkpt lat="39.7158130" lon="-6.8821650">
        <ele>246.2</ele>
        <time>2019-07-10T08:45:34Z</time>
      </trkpt>
      <trkpt lat="39.7157110" lon="-6.8822940">
        <ele>246.4</ele>
        <time>2019-07-10T08:45:38Z</time>
      </trkpt>
      <trkpt lat="39.7156060" lon="-6.8824480">
        <ele>246.8</ele>
        <time>2019-07-10T08:45:43Z</time>
      </trkpt>
      <trkpt lat="39.7155180" lon="-6.8825350">
        <ele>247.0</ele>
        <time>2019-07-10T08:45:47Z</time>
      </trkpt>
      <trkpt lat="39.7154960" lon="-6.8825610">
        <ele>247.0</ele>
        <time>2019-07-10T08:45:48Z</time>
      </trkpt>
      <trkpt lat="39.7153750" lon="-6.8826910">
        <ele>246.8</ele>
        <time>2019-07-10T08:45:53Z</time>
      </trkpt>
      <trkpt lat="39.7152540" lon="-6.8827900">
        <ele>247.4</ele>
        <time>2019-07-10T08:45:57Z</time>
      </trkpt>
      <trkpt lat="39.7151640" lon="-6.8828680">
        <ele>247.6</ele>
        <time>2019-07-10T08:46:00Z</time>
      </trkpt>
      <trkpt lat="39.7150690" lon="-6.8829310">
        <ele>248.0</ele>
        <time>2019-07-10T08:46:03Z</time>
      </trkpt>
      <trkpt lat="39.7149500" lon="-6.8830020">
        <ele>248.4</ele>
        <time>2019-07-10T08:46:07Z</time>
      </trkpt>
      <trkpt lat="39.7149270" lon="-6.8830210">
        <ele>248.4</ele>
        <time>2019-07-10T08:46:08Z</time>
      </trkpt>
      <trkpt lat="39.7147030" lon="-6.8832030">
        <ele>249.0</ele>
        <time>2019-07-10T08:46:17Z</time>
      </trkpt>
      <trkpt lat="39.7146640" lon="-6.8832430">
        <ele>249.2</ele>
        <time>2019-07-10T08:46:19Z</time>
      </trkpt>
      <trkpt lat="39.7146480" lon="-6.8832600">
        <ele>249.4</ele>
        <time>2019-07-10T08:46:20Z</time>
      </trkpt>
      <trkpt lat="39.7146020" lon="-6.8832990">
        <ele>250.0</ele>
        <time>2019-07-10T08:46:23Z</time>
      </trkpt>
      <trkpt lat="39.7145260" lon="-6.8833820">
        <ele>250.6</ele>
        <time>2019-07-10T08:46:28Z</time>
      </trkpt>
      <trkpt lat="39.7145070" lon="-6.8834040">
        <ele>250.6</ele>
        <time>2019-07-10T08:46:29Z</time>
      </trkpt>
      <trkpt lat="39.7143490" lon="-6.8835140">
        <ele>251.8</ele>
        <time>2019-07-10T08:46:35Z</time>
      </trkpt>
      <trkpt lat="39.7142920" lon="-6.8835440">
        <ele>252.2</ele>
        <time>2019-07-10T08:46:37Z</time>
      </trkpt>
      <trkpt lat="39.7141310" lon="-6.8836480">
        <ele>252.6</ele>
        <time>2019-07-10T08:46:43Z</time>
      </trkpt>
      <trkpt lat="39.7141060" lon="-6.8836700">
        <ele>252.8</ele>
        <time>2019-07-10T08:46:44Z</time>
      </trkpt>
      <trkpt lat="39.7140550" lon="-6.8837200">
        <ele>253.2</ele>
        <time>2019-07-10T08:46:46Z</time>
      </trkpt>
      <trkpt lat="39.7139440" lon="-6.8838000">
        <ele>253.8</ele>
        <time>2019-07-10T08:46:50Z</time>
      </trkpt>
      <trkpt lat="39.7138640" lon="-6.8838600">
        <ele>254.4</ele>
        <time>2019-07-10T08:46:53Z</time>
      </trkpt>
      <trkpt lat="39.7137530" lon="-6.8839270">
        <ele>255.0</ele>
        <time>2019-07-10T08:46:57Z</time>
      </trkpt>
      <trkpt lat="39.7136950" lon="-6.8839390">
        <ele>255.4</ele>
        <time>2019-07-10T08:46:59Z</time>
      </trkpt>
      <trkpt lat="39.7135940" lon="-6.8840450">
        <ele>255.6</ele>
        <time>2019-07-10T08:47:03Z</time>
      </trkpt>
      <trkpt lat="39.7135660" lon="-6.8840670">
        <ele>255.8</ele>
        <time>2019-07-10T08:47:04Z</time>
      </trkpt>
      <trkpt lat="39.7134820" lon="-6.8841270">
        <ele>256.0</ele>
        <time>2019-07-10T08:47:07Z</time>
      </trkpt>
      <trkpt lat="39.7133650" lon="-6.8841420">
        <ele>256.6</ele>
        <time>2019-07-10T08:47:11Z</time>
      </trkpt>
      <trkpt lat="39.7133210" lon="-6.8840670">
        <ele>257.2</ele>
        <time>2019-07-10T08:47:14Z</time>
      </trkpt>
      <trkpt lat="39.7133210" lon="-6.8840370">
        <ele>257.2</ele>
        <time>2019-07-10T08:47:15Z</time>
      </trkpt>
      <trkpt lat="39.7133310" lon="-6.8840110">
        <ele>257.2</ele>
        <time>2019-07-10T08:47:16Z</time>
      </trkpt>
      <trkpt lat="39.7139330" lon="-6.8837380">
        <ele>255.8</ele>
        <time>2019-07-10T08:53:10Z</time>
      </trkpt>
      <trkpt lat="39.7139530" lon="-6.8837230">
        <ele>255.6</ele>
        <time>2019-07-10T08:53:11Z</time>
      </trkpt>
      <trkpt lat="39.7142540" lon="-6.8835900">
        <ele>253.6</ele>
        <time>2019-07-10T09:23:46Z</time>
      </trkpt>
      <trkpt lat="39.7143000" lon="-6.8835110">
        <ele>253.6</ele>
        <time>2019-07-10T09:23:48Z</time>
      </trkpt>
      <trkpt lat="39.7143710" lon="-6.8834340">
        <ele>253.6</ele>
        <time>2019-07-10T09:23:50Z</time>
      </trkpt>
      <trkpt lat="39.7144960" lon="-6.8833110">
        <ele>253.2</ele>
        <time>2019-07-10T09:23:53Z</time>
      </trkpt>
      <trkpt lat="39.7146410" lon="-6.8831800">
        <ele>252.6</ele>
        <time>2019-07-10T09:23:56Z</time>
      </trkpt>
      <trkpt lat="39.7147480" lon="-6.8830880">
        <ele>252.2</ele>
        <time>2019-07-10T09:23:58Z</time>
      </trkpt>
      <trkpt lat="39.7148060" lon="-6.8830480">
        <ele>251.8</ele>
        <time>2019-07-10T09:23:59Z</time>
      </trkpt>
      <trkpt lat="39.7148650" lon="-6.8830090">
        <ele>251.2</ele>
        <time>2019-07-10T09:24:00Z</time>
      </trkpt>
      <trkpt lat="39.7151430" lon="-6.8827690">
        <ele>250.0</ele>
        <time>2019-07-10T09:24:05Z</time>
      </trkpt>
      <trkpt lat="39.7152940" lon="-6.8826020">
        <ele>249.6</ele>
        <time>2019-07-10T09:24:08Z</time>
      </trkpt>
      <trkpt lat="39.7154960" lon="-6.8823890">
        <ele>248.8</ele>
        <time>2019-07-10T09:24:12Z</time>
      </trkpt>
      <trkpt lat="39.7155910" lon="-6.8822860">
        <ele>248.2</ele>
        <time>2019-07-10T09:24:14Z</time>
      </trkpt>
      <trkpt lat="39.7156820" lon="-6.8821850">
        <ele>247.6</ele>
        <time>2019-07-10T09:24:16Z</time>
      </trkpt>
      <trkpt lat="39.7158110" lon="-6.8820390">
        <ele>247.6</ele>
        <time>2019-07-10T09:24:19Z</time>
      </trkpt>
      <trkpt lat="39.7159380" lon="-6.8818970">
        <ele>247.4</ele>
        <time>2019-07-10T09:24:22Z</time>
      </trkpt>
      <trkpt lat="39.7161610" lon="-6.8816380">
        <ele>246.4</ele>
        <time>2019-07-10T09:24:27Z</time>
      </trkpt>
      <trkpt lat="39.7162590" lon="-6.8815220">
        <ele>245.8</ele>
        <time>2019-07-10T09:24:29Z</time>
      </trkpt>
      <trkpt lat="39.7163100" lon="-6.8814650">
        <ele>245.4</ele>
        <time>2019-07-10T09:24:30Z</time>
      </trkpt>
      <trkpt lat="39.7165320" lon="-6.8812640">
        <ele>244.4</ele>
        <time>2019-07-10T09:24:34Z</time>
      </trkpt>
      <trkpt lat="39.7165930" lon="-6.8812290">
        <ele>244.0</ele>
        <time>2019-07-10T09:24:35Z</time>
      </trkpt>
      <trkpt lat="39.7167980" lon="-6.8812000">
        <ele>243.2</ele>
        <time>2019-07-10T09:24:38Z</time>
      </trkpt>
      <trkpt lat="39.7170120" lon="-6.8812820">
        <ele>242.0</ele>
        <time>2019-07-10T09:24:41Z</time>
      </trkpt>
      <trkpt lat="39.7170770" lon="-6.8813350">
        <ele>241.4</ele>
        <time>2019-07-10T09:24:42Z</time>
      </trkpt>
      <trkpt lat="39.7171810" lon="-6.8814520">
        <ele>240.8</ele>
        <time>2019-07-10T09:24:44Z</time>
      </trkpt>
      <trkpt lat="39.7172660" lon="-6.8815360">
        <ele>239.8</ele>
        <time>2019-07-10T09:24:46Z</time>
      </trkpt>
      <trkpt lat="39.7173580" lon="-6.8814890">
        <ele>238.6</ele>
        <time>2019-07-10T09:24:49Z</time>
      </trkpt>
      <trkpt lat="39.7173060" lon="-6.8812990">
        <ele>237.4</ele>
        <time>2019-07-10T09:24:52Z</time>
      </trkpt>
      <trkpt lat="39.7172540" lon="-6.8811510">
        <ele>236.4</ele>
        <time>2019-07-10T09:24:54Z</time>
      </trkpt>
      <trkpt lat="39.7172140" lon="-6.8810030">
        <ele>235.8</ele>
        <time>2019-07-10T09:24:56Z</time>
      </trkpt>
      <trkpt lat="39.7172100" lon="-6.8809260">
        <ele>235.6</ele>
        <time>2019-07-10T09:24:57Z</time>
      </trkpt>
      <trkpt lat="39.7172530" lon="-6.8807730">
        <ele>235.0</ele>
        <time>2019-07-10T09:24:59Z</time>
      </trkpt>
      <trkpt lat="39.7173020" lon="-6.8807120">
        <ele>234.8</ele>
        <time>2019-07-10T09:25:00Z</time>
      </trkpt>
      <trkpt lat="39.7174250" lon="-6.8806380">
        <ele>233.8</ele>
        <time>2019-07-10T09:25:02Z</time>
      </trkpt>
      <trkpt lat="39.7174940" lon="-6.8806050">
        <ele>233.6</ele>
        <time>2019-07-10T09:25:03Z</time>
      </trkpt>
      <trkpt lat="39.7176300" lon="-6.8805100">
        <ele>233.0</ele>
        <time>2019-07-10T09:25:05Z</time>
      </trkpt>
      <trkpt lat="39.7176900" lon="-6.8804420">
        <ele>232.4</ele>
        <time>2019-07-10T09:25:06Z</time>
      </trkpt>
      <trkpt lat="39.7177380" lon="-6.8803620">
        <ele>232.0</ele>
        <time>2019-07-10T09:25:07Z</time>
      </trkpt>
      <trkpt lat="39.7178080" lon="-6.8801830">
        <ele>231.0</ele>
        <time>2019-07-10T09:25:09Z</time>
      </trkpt>
      <trkpt lat="39.7178770" lon="-6.8799990">
        <ele>230.0</ele>
        <time>2019-07-10T09:25:11Z</time>
      </trkpt>
      <trkpt lat="39.7180120" lon="-6.8797350">
        <ele>229.0</ele>
        <time>2019-07-10T09:25:14Z</time>
      </trkpt>
      <trkpt lat="39.7180620" lon="-6.8796610">
        <ele>228.4</ele>
        <time>2019-07-10T09:25:15Z</time>
      </trkpt>
      <trkpt lat="39.7181130" lon="-6.8795990">
        <ele>227.8</ele>
        <time>2019-07-10T09:25:16Z</time>
      </trkpt>
      <trkpt lat="39.7182290" lon="-6.8794810">
        <ele>226.8</ele>
        <time>2019-07-10T09:25:18Z</time>
      </trkpt>
      <trkpt lat="39.7183610" lon="-6.8793730">
        <ele>225.6</ele>
        <time>2019-07-10T09:25:20Z</time>
      </trkpt>
      <trkpt lat="39.7184700" lon="-6.8793040">
        <ele>224.4</ele>
        <time>2019-07-10T09:25:22Z</time>
      </trkpt>
      <trkpt lat="39.7185160" lon="-6.8792850">
        <ele>223.6</ele>
        <time>2019-07-10T09:25:23Z</time>
      </trkpt>
      <trkpt lat="39.7185640" lon="-6.8792660">
        <ele>223.0</ele>
        <time>2019-07-10T09:25:24Z</time>
      </trkpt>
      <trkpt lat="39.7186160" lon="-6.8792500">
        <ele>222.8</ele>
        <time>2019-07-10T09:25:25Z</time>
      </trkpt>
      <trkpt lat="39.7187350" lon="-6.8792320">
        <ele>222.2</ele>
        <time>2019-07-10T09:25:27Z</time>
      </trkpt>
      <trkpt lat="39.7188010" lon="-6.8792270">
        <ele>221.6</ele>
        <time>2019-07-10T09:25:28Z</time>
      </trkpt>
      <trkpt lat="39.7189430" lon="-6.8792360">
        <ele>220.8</ele>
        <time>2019-07-10T09:25:30Z</time>
      </trkpt>
      <trkpt lat="39.7190950" lon="-6.8792740">
        <ele>219.8</ele>
        <time>2019-07-10T09:25:32Z</time>
      </trkpt>
      <trkpt lat="39.7191730" lon="-6.8793070">
        <ele>219.4</ele>
        <time>2019-07-10T09:25:33Z</time>
      </trkpt>
      <trkpt lat="39.7192510" lon="-6.8793460">
        <ele>219.0</ele>
        <time>2019-07-10T09:25:34Z</time>
      </trkpt>
      <trkpt lat="39.7193320" lon="-6.8793900">
        <ele>218.4</ele>
        <time>2019-07-10T09:25:35Z</time>
      </trkpt>
      <trkpt lat="39.7194960" lon="-6.8794830">
        <ele>217.0</ele>
        <time>2019-07-10T09:25:37Z</time>
      </trkpt>
      <trkpt lat="39.7196610" lon="-6.8795780">
        <ele>215.8</ele>
        <time>2019-07-10T09:25:39Z</time>
      </trkpt>
      <trkpt lat="39.7198330" lon="-6.8796660">
        <ele>215.0</ele>
        <time>2019-07-10T09:25:41Z</time>
      </trkpt>
      <trkpt lat="39.7199220" lon="-6.8797060">
        <ele>214.6</ele>
        <time>2019-07-10T09:25:42Z</time>
      </trkpt>
      <trkpt lat="39.7201000" lon="-6.8797860">
        <ele>213.6</ele>
        <time>2019-07-10T09:25:44Z</time>
      </trkpt>
      <trkpt lat="39.7201900" lon="-6.8798300">
        <ele>213.4</ele>
        <time>2019-07-10T09:25:45Z</time>
      </trkpt>
      <trkpt lat="39.7203660" lon="-6.8799150">
        <ele>212.6</ele>
        <time>2019-07-10T09:25:47Z</time>
      </trkpt>
      <trkpt lat="39.7206400" lon="-6.8800300">
        <ele>211.2</ele>
        <time>2019-07-10T09:25:50Z</time>
      </trkpt>
      <trkpt lat="39.7208280" lon="-6.8800860">
        <ele>210.0</ele>
        <time>2019-07-10T09:25:52Z</time>
      </trkpt>
      <trkpt lat="39.7209220" lon="-6.8801180">
        <ele>209.6</ele>
        <time>2019-07-10T09:25:53Z</time>
      </trkpt>
      <trkpt lat="39.7211010" lon="-6.8802220">
        <ele>208.6</ele>
        <time>2019-07-10T09:25:55Z</time>
      </trkpt>
      <trkpt lat="39.7212720" lon="-6.8803570">
        <ele>207.2</ele>
        <time>2019-07-10T09:25:57Z</time>
      </trkpt>
      <trkpt lat="39.7213600" lon="-6.8804160">
        <ele>206.6</ele>
        <time>2019-07-10T09:25:58Z</time>
      </trkpt>
      <trkpt lat="39.7214530" lon="-6.8804650">
        <ele>205.8</ele>
        <time>2019-07-10T09:25:59Z</time>
      </trkpt>
      <trkpt lat="39.7215450" lon="-6.8805120">
        <ele>205.2</ele>
        <time>2019-07-10T09:26:00Z</time>
      </trkpt>
      <trkpt lat="39.7216360" lon="-6.8805600">
        <ele>204.8</ele>
        <time>2019-07-10T09:26:01Z</time>
      </trkpt>
      <trkpt lat="39.7218100" lon="-6.8806620">
        <ele>203.8</ele>
        <time>2019-07-10T09:26:03Z</time>
      </trkpt>
      <trkpt lat="39.7218900" lon="-6.8807260">
        <ele>203.4</ele>
        <time>2019-07-10T09:26:04Z</time>
      </trkpt>
      <trkpt lat="39.7219600" lon="-6.8808170">
        <ele>203.2</ele>
        <time>2019-07-10T09:26:05Z</time>
      </trkpt>
      <trkpt lat="39.7220490" lon="-6.8810350">
        <ele>202.2</ele>
        <time>2019-07-10T09:26:07Z</time>
      </trkpt>
      <trkpt lat="39.7220310" lon="-6.8813910">
        <ele>201.6</ele>
        <time>2019-07-10T09:26:10Z</time>
      </trkpt>
      <trkpt lat="39.7220040" lon="-6.8815050">
        <ele>201.4</ele>
        <time>2019-07-10T09:26:11Z</time>
      </trkpt>
      <trkpt lat="39.7218710" lon="-6.8818190">
        <ele>200.0</ele>
        <time>2019-07-10T09:26:14Z</time>
      </trkpt>
      <trkpt lat="39.7217540" lon="-6.8820040">
        <ele>199.0</ele>
        <time>2019-07-10T09:26:16Z</time>
      </trkpt>
      <trkpt lat="39.7216960" lon="-6.8821000">
        <ele>198.6</ele>
        <time>2019-07-10T09:26:17Z</time>
      </trkpt>
      <trkpt lat="39.7216460" lon="-6.8822050">
        <ele>198.2</ele>
        <time>2019-07-10T09:26:18Z</time>
      </trkpt>
      <trkpt lat="39.7216100" lon="-6.8823190">
        <ele>198.0</ele>
        <time>2019-07-10T09:26:19Z</time>
      </trkpt>
      <trkpt lat="39.7215930" lon="-6.8824420">
        <ele>197.4</ele>
        <time>2019-07-10T09:26:20Z</time>
      </trkpt>
      <trkpt lat="39.7216050" lon="-6.8826950">
        <ele>196.6</ele>
        <time>2019-07-10T09:26:22Z</time>
      </trkpt>
      <trkpt lat="39.7216310" lon="-6.8828170">
        <ele>196.2</ele>
        <time>2019-07-10T09:26:23Z</time>
      </trkpt>
      <trkpt lat="39.7217270" lon="-6.8830310">
        <ele>195.8</ele>
        <time>2019-07-10T09:26:25Z</time>
      </trkpt>
      <trkpt lat="39.7218710" lon="-6.8831870">
        <ele>195.0</ele>
        <time>2019-07-10T09:26:27Z</time>
      </trkpt>
      <trkpt lat="39.7219520" lon="-6.8832480">
        <ele>194.4</ele>
        <time>2019-07-10T09:26:28Z</time>
      </trkpt>
      <trkpt lat="39.7220350" lon="-6.8833030">
        <ele>193.8</ele>
        <time>2019-07-10T09:26:29Z</time>
      </trkpt>
      <trkpt lat="39.7222780" lon="-6.8834720">
        <ele>192.8</ele>
        <time>2019-07-10T09:26:32Z</time>
      </trkpt>
      <trkpt lat="39.7223550" lon="-6.8835400">
        <ele>192.6</ele>
        <time>2019-07-10T09:26:33Z</time>
      </trkpt>
      <trkpt lat="39.7224280" lon="-6.8836180">
        <ele>192.0</ele>
        <time>2019-07-10T09:26:34Z</time>
      </trkpt>
      <trkpt lat="39.7224980" lon="-6.8837040">
        <ele>191.8</ele>
        <time>2019-07-10T09:26:35Z</time>
      </trkpt>
      <trkpt lat="39.7226180" lon="-6.8838840">
        <ele>191.0</ele>
        <time>2019-07-10T09:26:37Z</time>
      </trkpt>
      <trkpt lat="39.7226630" lon="-6.8839810">
        <ele>190.6</ele>
        <time>2019-07-10T09:26:38Z</time>
      </trkpt>
      <trkpt lat="39.7227330" lon="-6.8841990">
        <ele>189.4</ele>
        <time>2019-07-10T09:26:40Z</time>
      </trkpt>
      <trkpt lat="39.7227820" lon="-6.8844380">
        <ele>188.6</ele>
        <time>2019-07-10T09:26:42Z</time>
      </trkpt>
      <trkpt lat="39.7227980" lon="-6.8845640">
        <ele>188.0</ele>
        <time>2019-07-10T09:26:43Z</time>
      </trkpt>
      <trkpt lat="39.7228140" lon="-6.8848280">
        <ele>186.8</ele>
        <time>2019-07-10T09:26:45Z</time>
      </trkpt>
      <trkpt lat="39.7228200" lon="-6.8849640">
        <ele>186.0</ele>
        <time>2019-07-10T09:26:46Z</time>
      </trkpt>
      <trkpt lat="39.7228250" lon="-6.8851030">
        <ele>185.2</ele>
        <time>2019-07-10T09:26:47Z</time>
      </trkpt>
      <trkpt lat="39.7228360" lon="-6.8853940">
        <ele>183.8</ele>
        <time>2019-07-10T09:26:49Z</time>
      </trkpt>
      <trkpt lat="39.7228430" lon="-6.8856960">
        <ele>182.6</ele>
        <time>2019-07-10T09:26:51Z</time>
      </trkpt>
      <trkpt lat="39.7228470" lon="-6.8858450">
        <ele>181.8</ele>
        <time>2019-07-10T09:26:52Z</time>
      </trkpt>
      <trkpt lat="39.7228540" lon="-6.8859930">
        <ele>181.2</ele>
        <time>2019-07-10T09:26:53Z</time>
      </trkpt>
      <trkpt lat="39.7228630" lon="-6.8862910">
        <ele>179.6</ele>
        <time>2019-07-10T09:26:55Z</time>
      </trkpt>
      <trkpt lat="39.7228660" lon="-6.8865870">
        <ele>178.2</ele>
        <time>2019-07-10T09:26:57Z</time>
      </trkpt>
      <trkpt lat="39.7228640" lon="-6.8867370">
        <ele>177.6</ele>
        <time>2019-07-10T09:26:58Z</time>
      </trkpt>
      <trkpt lat="39.7228590" lon="-6.8868870">
        <ele>177.2</ele>
        <time>2019-07-10T09:26:59Z</time>
      </trkpt>
      <trkpt lat="39.7228400" lon="-6.8871860">
        <ele>175.8</ele>
        <time>2019-07-10T09:27:01Z</time>
      </trkpt>
      <trkpt lat="39.7228160" lon="-6.8873300">
        <ele>175.2</ele>
        <time>2019-07-10T09:27:02Z</time>
      </trkpt>
      <trkpt lat="39.7227830" lon="-6.8874710">
        <ele>174.2</ele>
        <time>2019-07-10T09:27:03Z</time>
      </trkpt>
      <trkpt lat="39.7227070" lon="-6.8877370">
        <ele>172.8</ele>
        <time>2019-07-10T09:27:05Z</time>
      </trkpt>
      <trkpt lat="39.7226790" lon="-6.8878670">
        <ele>172.4</ele>
        <time>2019-07-10T09:27:06Z</time>
      </trkpt>
      <trkpt lat="39.7226710" lon="-6.8880020">
        <ele>171.8</ele>
        <time>2019-07-10T09:27:07Z</time>
      </trkpt>
      <trkpt lat="39.7226860" lon="-6.8881370">
        <ele>171.4</ele>
        <time>2019-07-10T09:27:08Z</time>
      </trkpt>
      <trkpt lat="39.7227480" lon="-6.8884010">
        <ele>169.8</ele>
        <time>2019-07-10T09:27:10Z</time>
      </trkpt>
      <trkpt lat="39.7228120" lon="-6.8886650">
        <ele>168.4</ele>
        <time>2019-07-10T09:27:12Z</time>
      </trkpt>
      <trkpt lat="39.7228680" lon="-6.8890050">
        <ele>167.0</ele>
        <time>2019-07-10T09:27:15Z</time>
      </trkpt>
      <trkpt lat="39.7228620" lon="-6.8893030">
        <ele>165.6</ele>
        <time>2019-07-10T09:27:18Z</time>
      </trkpt>
      <trkpt lat="39.7228540" lon="-6.8894010">
        <ele>165.0</ele>
        <time>2019-07-10T09:27:19Z</time>
      </trkpt>
      <trkpt lat="39.7228400" lon="-6.8894960">
        <ele>164.4</ele>
        <time>2019-07-10T09:27:20Z</time>
      </trkpt>
      <trkpt lat="39.7227870" lon="-6.8896860">
        <ele>163.4</ele>
        <time>2019-07-10T09:27:22Z</time>
      </trkpt>
      <trkpt lat="39.7227610" lon="-6.8897830">
        <ele>163.0</ele>
        <time>2019-07-10T09:27:23Z</time>
      </trkpt>
      <trkpt lat="39.7227150" lon="-6.8899570">
        <ele>162.0</ele>
        <time>2019-07-10T09:27:25Z</time>
      </trkpt>
      <trkpt lat="39.7226630" lon="-6.8901220">
        <ele>160.8</ele>
        <time>2019-07-10T09:27:27Z</time>
      </trkpt>
      <trkpt lat="39.7226320" lon="-6.8901990">
        <ele>160.2</ele>
        <time>2019-07-10T09:27:28Z</time>
      </trkpt>
      <trkpt lat="39.7225600" lon="-6.8903460">
        <ele>159.2</ele>
        <time>2019-07-10T09:27:30Z</time>
      </trkpt>
      <trkpt lat="39.7224550" lon="-6.8905860">
        <ele>158.2</ele>
        <time>2019-07-10T09:27:33Z</time>
      </trkpt>
      <trkpt lat="39.7223580" lon="-6.8908020">
        <ele>157.0</ele>
        <time>2019-07-10T09:27:36Z</time>
      </trkpt>
      <trkpt lat="39.7222950" lon="-6.8909150">
        <ele>156.4</ele>
        <time>2019-07-10T09:27:38Z</time>
      </trkpt>
      <trkpt lat="39.7222690" lon="-6.8909570">
        <ele>156.0</ele>
        <time>2019-07-10T09:27:39Z</time>
      </trkpt>
      <trkpt lat="39.7222380" lon="-6.8910080">
        <ele>155.4</ele>
        <time>2019-07-10T09:27:41Z</time>
      </trkpt>
      <trkpt lat="39.7222290" lon="-6.8910200">
        <ele>155.0</ele>
        <time>2019-07-10T09:27:42Z</time>
      </trkpt>
      <trkpt lat="39.7222260" lon="-6.8910230">
        <ele>154.8</ele>
        <time>2019-07-10T09:27:44Z</time>
      </trkpt>
      <trkpt lat="39.7222140" lon="-6.8909490">
        <ele>154.6</ele>
        <time>2019-07-10T09:29:50Z</time>
      </trkpt>
      <trkpt lat="39.7222230" lon="-6.8909230">
        <ele>154.6</ele>
        <time>2019-07-10T09:29:53Z</time>
      </trkpt>
      <trkpt lat="39.7222390" lon="-6.8908820">
        <ele>154.6</ele>
        <time>2019-07-10T09:29:58Z</time>
      </trkpt>
      <trkpt lat="39.7222950" lon="-6.8907690">
        <ele>155.0</ele>
        <time>2019-07-10T09:30:05Z</time>
      </trkpt>
      <trkpt lat="39.7223360" lon="-6.8907030">
        <ele>155.4</ele>
        <time>2019-07-10T09:30:08Z</time>
      </trkpt>
      <trkpt lat="39.7223730" lon="-6.8906390">
        <ele>155.8</ele>
        <time>2019-07-10T09:30:11Z</time>
      </trkpt>
      <trkpt lat="39.7224030" lon="-6.8905690">
        <ele>155.8</ele>
        <time>2019-07-10T09:30:15Z</time>
      </trkpt>
      <trkpt lat="39.7224280" lon="-6.8905330">
        <ele>156.2</ele>
        <time>2019-07-10T09:30:17Z</time>
      </trkpt>
      <trkpt lat="39.7224710" lon="-6.8904170">
        <ele>156.8</ele>
        <time>2019-07-10T09:30:22Z</time>
      </trkpt>
      <trkpt lat="39.7224810" lon="-6.8903940">
        <ele>157.0</ele>
        <time>2019-07-10T09:30:23Z</time>
      </trkpt>
      <trkpt lat="39.7225440" lon="-6.8902550">
        <ele>157.6</ele>
        <time>2019-07-10T09:30:28Z</time>
      </trkpt>
      <trkpt lat="39.7225680" lon="-6.8901920">
        <ele>158.0</ele>
        <time>2019-07-10T09:30:30Z</time>
      </trkpt>
      <trkpt lat="39.7225770" lon="-6.8901590">
        <ele>158.2</ele>
        <time>2019-07-10T09:30:31Z</time>
      </trkpt>
      <trkpt lat="39.7226120" lon="-6.8900600">
        <ele>158.6</ele>
        <time>2019-07-10T09:30:34Z</time>
      </trkpt>
      <trkpt lat="39.7226760" lon="-6.8899430">
        <ele>159.0</ele>
        <time>2019-07-10T09:30:38Z</time>
      </trkpt>
      <trkpt lat="39.7226850" lon="-6.8899100">
        <ele>159.2</ele>
        <time>2019-07-10T09:30:39Z</time>
      </trkpt>
      <trkpt lat="39.7227380" lon="-6.8897300">
        <ele>160.0</ele>
        <time>2019-07-10T09:30:45Z</time>
      </trkpt>
      <trkpt lat="39.7227550" lon="-6.8896680">
        <ele>160.4</ele>
        <time>2019-07-10T09:30:47Z</time>
      </trkpt>
      <trkpt lat="39.7227900" lon="-6.8895070">
        <ele>161.0</ele>
        <time>2019-07-10T09:30:52Z</time>
      </trkpt>
      <trkpt lat="39.7227970" lon="-6.8894750">
        <ele>161.2</ele>
        <time>2019-07-10T09:30:53Z</time>
      </trkpt>
      <trkpt lat="39.7228130" lon="-6.8894120">
        <ele>161.6</ele>
        <time>2019-07-10T09:30:55Z</time>
      </trkpt>
      <trkpt lat="39.7228400" lon="-6.8892450">
        <ele>162.0</ele>
        <time>2019-07-10T09:31:00Z</time>
      </trkpt>
      <trkpt lat="39.7228480" lon="-6.8890710">
        <ele>162.8</ele>
        <time>2019-07-10T09:31:05Z</time>
      </trkpt>
      <trkpt lat="39.7228480" lon="-6.8889650">
        <ele>163.6</ele>
        <time>2019-07-10T09:31:08Z</time>
      </trkpt>
      <trkpt lat="39.7228440" lon="-6.8888940">
        <ele>164.0</ele>
        <time>2019-07-10T09:31:10Z</time>
      </trkpt>
      <trkpt lat="39.7228270" lon="-6.8887510">
        <ele>165.0</ele>
        <time>2019-07-10T09:31:14Z</time>
      </trkpt>
      <trkpt lat="39.7228030" lon="-6.8886430">
        <ele>165.4</ele>
        <time>2019-07-10T09:31:17Z</time>
      </trkpt>
      <trkpt lat="39.7227750" lon="-6.8885020">
        <ele>166.2</ele>
        <time>2019-07-10T09:31:21Z</time>
      </trkpt>
      <trkpt lat="39.7227420" lon="-6.8883600">
        <ele>166.8</ele>
        <time>2019-07-10T09:31:25Z</time>
      </trkpt>
      <trkpt lat="39.7227040" lon="-6.8881830">
        <ele>167.4</ele>
        <time>2019-07-10T09:31:30Z</time>
      </trkpt>
      <trkpt lat="39.7226710" lon="-6.8880420">
        <ele>168.2</ele>
        <time>2019-07-10T09:31:34Z</time>
      </trkpt>
      <trkpt lat="39.7226530" lon="-6.8879720">
        <ele>168.4</ele>
        <time>2019-07-10T09:31:36Z</time>
      </trkpt>
      <trkpt lat="39.7226520" lon="-6.8878160">
        <ele>168.8</ele>
        <time>2019-07-10T09:31:40Z</time>
      </trkpt>
      <trkpt lat="39.7226980" lon="-6.8876170">
        <ele>169.8</ele>
        <time>2019-07-10T09:31:45Z</time>
      </trkpt>
      <trkpt lat="39.7227090" lon="-6.8875780">
        <ele>169.8</ele>
        <time>2019-07-10T09:31:46Z</time>
      </trkpt>
      <trkpt lat="39.7227680" lon="-6.8873890">
        <ele>170.8</ele>
        <time>2019-07-10T09:31:51Z</time>
      </trkpt>
      <trkpt lat="39.7227850" lon="-6.8873130">
        <ele>171.0</ele>
        <time>2019-07-10T09:31:53Z</time>
      </trkpt>
      <trkpt lat="39.7228120" lon="-6.8871580">
        <ele>171.8</ele>
        <time>2019-07-10T09:31:57Z</time>
      </trkpt>
      <trkpt lat="39.7228180" lon="-6.8870030">
        <ele>172.6</ele>
        <time>2019-07-10T09:32:01Z</time>
      </trkpt>
      <trkpt lat="39.7228230" lon="-6.8869230">
        <ele>173.0</ele>
        <time>2019-07-10T09:32:03Z</time>
      </trkpt>
      <trkpt lat="39.7228340" lon="-6.8866030">
        <ele>173.8</ele>
        <time>2019-07-10T09:32:11Z</time>
      </trkpt>
      <trkpt lat="39.7228340" lon="-6.8865640">
        <ele>174.0</ele>
        <time>2019-07-10T09:32:12Z</time>
      </trkpt>
      <trkpt lat="39.7228390" lon="-6.8863280">
        <ele>175.2</ele>
        <time>2019-07-10T09:32:18Z</time>
      </trkpt>
      <trkpt lat="39.7228380" lon="-6.8862880">
        <ele>175.4</ele>
        <time>2019-07-10T09:32:19Z</time>
      </trkpt>
      <trkpt lat="39.7228200" lon="-6.8861270">
        <ele>176.4</ele>
        <time>2019-07-10T09:32:23Z</time>
      </trkpt>
      <trkpt lat="39.7227610" lon="-6.8860360">
        <ele>176.8</ele>
        <time>2019-07-10T09:32:26Z</time>
      </trkpt>
      <trkpt lat="39.7226540" lon="-6.8859310">
        <ele>177.4</ele>
        <time>2019-07-10T09:32:30Z</time>
      </trkpt>
      <trkpt lat="39.7225090" lon="-6.8858240">
        <ele>178.2</ele>
        <time>2019-07-10T09:32:35Z</time>
      </trkpt>
      <trkpt lat="39.7224320" lon="-6.8857590">
        <ele>178.8</ele>
        <time>2019-07-10T09:32:38Z</time>
      </trkpt>
      <trkpt lat="39.7223430" lon="-6.8856720">
        <ele>179.6</ele>
        <time>2019-07-10T09:32:42Z</time>
      </trkpt>
      <trkpt lat="39.7223410" lon="-6.8856510">
        <ele>179.8</ele>
        <time>2019-07-10T09:32:43Z</time>
      </trkpt>
      <trkpt lat="39.7223480" lon="-6.8856330">
        <ele>180.0</ele>
        <time>2019-07-10T09:32:44Z</time>
      </trkpt>
      <trkpt lat="39.7223590" lon="-6.8855110">
        <ele>180.0</ele>
        <time>2019-07-10T09:32:48Z</time>
      </trkpt>
      <trkpt lat="39.7223820" lon="-6.8852950">
        <ele>180.6</ele>
        <time>2019-07-10T09:32:54Z</time>
      </trkpt>
      <trkpt lat="39.7223910" lon="-6.8852400">
        <ele>181.2</ele>
        <time>2019-07-10T09:32:57Z</time>
      </trkpt>
      <trkpt lat="39.7223920" lon="-6.8852310">
        <ele>181.6</ele>
        <time>2019-07-10T09:32:58Z</time>
      </trkpt>
      <trkpt lat="39.7224320" lon="-6.8851580">
        <ele>181.8</ele>
        <time>2019-07-10T09:33:03Z</time>
      </trkpt>
      <trkpt lat="39.7225790" lon="-6.8851270">
        <ele>182.0</ele>
        <time>2019-07-10T09:33:08Z</time>
      </trkpt>
      <trkpt lat="39.7227320" lon="-6.8850710">
        <ele>182.0</ele>
        <time>2019-07-10T09:33:12Z</time>
      </trkpt>
      <trkpt lat="39.7227900" lon="-6.8850160">
        <ele>182.0</ele>
        <time>2019-07-10T09:33:14Z</time>
      </trkpt>
      <trkpt lat="39.7228010" lon="-6.8848980">
        <ele>182.4</ele>
        <time>2019-07-10T09:33:17Z</time>
      </trkpt>
      <trkpt lat="39.7227980" lon="-6.8848270">
        <ele>182.6</ele>
        <time>2019-07-10T09:33:19Z</time>
      </trkpt>
      <trkpt lat="39.7227900" lon="-6.8846810">
        <ele>183.0</ele>
        <time>2019-07-10T09:33:23Z</time>
      </trkpt>
      <trkpt lat="39.7227890" lon="-6.8846400">
        <ele>183.2</ele>
        <time>2019-07-10T09:33:24Z</time>
      </trkpt>
      <trkpt lat="39.7227890" lon="-6.8845570">
        <ele>183.6</ele>
        <time>2019-07-10T09:33:26Z</time>
      </trkpt>
      <trkpt lat="39.7227790" lon="-6.8844350">
        <ele>184.0</ele>
        <time>2019-07-10T09:33:29Z</time>
      </trkpt>
      <trkpt lat="39.7227560" lon="-6.8842750">
        <ele>184.8</ele>
        <time>2019-07-10T09:33:33Z</time>
      </trkpt>
      <trkpt lat="39.7227070" lon="-6.8840790">
        <ele>186.0</ele>
        <time>2019-07-10T09:33:38Z</time>
      </trkpt>
      <trkpt lat="39.7226670" lon="-6.8839680">
        <ele>186.6</ele>
        <time>2019-07-10T09:33:41Z</time>
      </trkpt>
      <trkpt lat="39.7226140" lon="-6.8838650">
        <ele>187.4</ele>
        <time>2019-07-10T09:33:44Z</time>
      </trkpt>
      <trkpt lat="39.7225090" lon="-6.8837020">
        <ele>188.6</ele>
        <time>2019-07-10T09:33:49Z</time>
      </trkpt>
      <trkpt lat="39.7223350" lon="-6.8834950">
        <ele>189.8</ele>
        <time>2019-07-10T09:33:56Z</time>
      </trkpt>
      <trkpt lat="39.7223080" lon="-6.8834720">
        <ele>190.0</ele>
        <time>2019-07-10T09:33:57Z</time>
      </trkpt>
      <trkpt lat="39.7221260" lon="-6.8833540">
        <ele>191.0</ele>
        <time>2019-07-10T09:34:03Z</time>
      </trkpt>
      <trkpt lat="39.7220650" lon="-6.8833120">
        <ele>191.2</ele>
        <time>2019-07-10T09:34:05Z</time>
      </trkpt>
      <trkpt lat="39.7220030" lon="-6.8832670">
        <ele>191.4</ele>
        <time>2019-07-10T09:34:07Z</time>
      </trkpt>
      <trkpt lat="39.7219080" lon="-6.8832040">
        <ele>192.0</ele>
        <time>2019-07-10T09:34:10Z</time>
      </trkpt>
      <trkpt lat="39.7218190" lon="-6.8831280">
        <ele>192.8</ele>
        <time>2019-07-10T09:34:13Z</time>
      </trkpt>
      <trkpt lat="39.7217330" lon="-6.8830320">
        <ele>193.2</ele>
        <time>2019-07-10T09:34:16Z</time>
      </trkpt>
      <trkpt lat="39.7216080" lon="-6.8828600">
        <ele>193.8</ele>
        <time>2019-07-10T09:34:21Z</time>
      </trkpt>
      <trkpt lat="39.7215690" lon="-6.8827410">
        <ele>194.4</ele>
        <time>2019-07-10T09:34:24Z</time>
      </trkpt>
      <trkpt lat="39.7215420" lon="-6.8825550">
        <ele>194.8</ele>
        <time>2019-07-10T09:34:28Z</time>
      </trkpt>
      <trkpt lat="39.7215640" lon="-6.8822760">
        <ele>195.4</ele>
        <time>2019-07-10T09:34:34Z</time>
      </trkpt>
      <trkpt lat="39.7215750" lon="-6.8822310">
        <ele>195.6</ele>
        <time>2019-07-10T09:34:35Z</time>
      </trkpt>
      <trkpt lat="39.7216980" lon="-6.8819410">
        <ele>196.8</ele>
        <time>2019-07-10T09:34:42Z</time>
      </trkpt>
      <trkpt lat="39.7218870" lon="-6.8816140">
        <ele>197.8</ele>
        <time>2019-07-10T09:34:50Z</time>
      </trkpt>
      <trkpt lat="39.7219080" lon="-6.8815720">
        <ele>198.0</ele>
        <time>2019-07-10T09:34:51Z</time>
      </trkpt>
      <trkpt lat="39.7219930" lon="-6.8812970">
        <ele>199.0</ele>
        <time>2019-07-10T09:34:57Z</time>
      </trkpt>
      <trkpt lat="39.7219990" lon="-6.8812510">
        <ele>199.2</ele>
        <time>2019-07-10T09:34:58Z</time>
      </trkpt>
      <trkpt lat="39.7219890" lon="-6.8809210">
        <ele>199.8</ele>
        <time>2019-07-10T09:35:05Z</time>
      </trkpt>
      <trkpt lat="39.7219540" lon="-6.8808280">
        <ele>200.0</ele>
        <time>2019-07-10T09:35:07Z</time>
      </trkpt>
      <trkpt lat="39.7218700" lon="-6.8807310">
        <ele>200.8</ele>
        <time>2019-07-10T09:35:10Z</time>
      </trkpt>
      <trkpt lat="39.7217310" lon="-6.8806480">
        <ele>201.2</ele>
        <time>2019-07-10T09:35:14Z</time>
      </trkpt>
      <trkpt lat="39.7215870" lon="-6.8805720">
        <ele>202.0</ele>
        <time>2019-07-10T09:35:18Z</time>
      </trkpt>
      <trkpt lat="39.7214440" lon="-6.8804920">
        <ele>202.4</ele>
        <time>2019-07-10T09:35:22Z</time>
      </trkpt>
      <trkpt lat="39.7213360" lon="-6.8804370">
        <ele>203.0</ele>
        <time>2019-07-10T09:35:25Z</time>
      </trkpt>
      <trkpt lat="39.7212340" lon="-6.8803730">
        <ele>203.6</ele>
        <time>2019-07-10T09:35:28Z</time>
      </trkpt>
      <trkpt lat="39.7210720" lon="-6.8802490">
        <ele>204.6</ele>
        <time>2019-07-10T09:35:33Z</time>
      </trkpt>
      <trkpt lat="39.7210380" lon="-6.8802240">
        <ele>204.8</ele>
        <time>2019-07-10T09:35:34Z</time>
      </trkpt>
      <trkpt lat="39.7208340" lon="-6.8801460">
        <ele>205.8</ele>
        <time>2019-07-10T09:35:40Z</time>
      </trkpt>
      <trkpt lat="39.7207980" lon="-6.8801380">
        <ele>206.0</ele>
        <time>2019-07-10T09:35:41Z</time>
      </trkpt>
      <trkpt lat="39.7205960" lon="-6.8800870">
        <ele>207.0</ele>
        <time>2019-07-10T09:35:47Z</time>
      </trkpt>
      <trkpt lat="39.7204940" lon="-6.8800390">
        <ele>207.8</ele>
        <time>2019-07-10T09:35:50Z</time>
      </trkpt>
      <trkpt lat="39.7204610" lon="-6.8800220">
        <ele>208.0</ele>
        <time>2019-07-10T09:35:51Z</time>
      </trkpt>
      <trkpt lat="39.7202270" lon="-6.8799120">
        <ele>209.2</ele>
        <time>2019-07-10T09:35:58Z</time>
      </trkpt>
      <trkpt lat="39.7201620" lon="-6.8798840">
        <ele>209.6</ele>
        <time>2019-07-10T09:36:00Z</time>
      </trkpt>
      <trkpt lat="39.7200270" lon="-6.8798130">
        <ele>210.2</ele>
        <time>2019-07-10T09:36:04Z</time>
      </trkpt>
      <trkpt lat="39.7198640" lon="-6.8797350">
        <ele>211.6</ele>
        <time>2019-07-10T09:36:09Z</time>
      </trkpt>
      <trkpt lat="39.7198310" lon="-6.8797180">
        <ele>211.6</ele>
        <time>2019-07-10T09:36:10Z</time>
      </trkpt>
      <trkpt lat="39.7196640" lon="-6.8796420">
        <ele>212.6</ele>
        <time>2019-07-10T09:36:15Z</time>
      </trkpt>
      <trkpt lat="39.7195640" lon="-6.8795890">
        <ele>213.0</ele>
        <time>2019-07-10T09:36:18Z</time>
      </trkpt>
      <trkpt lat="39.7194010" lon="-6.8794990">
        <ele>213.6</ele>
        <time>2019-07-10T09:36:23Z</time>
      </trkpt>
      <trkpt lat="39.7192690" lon="-6.8794260">
        <ele>214.4</ele>
        <time>2019-07-10T09:36:27Z</time>
      </trkpt>
      <trkpt lat="39.7191650" lon="-6.8793780">
        <ele>215.0</ele>
        <time>2019-07-10T09:36:30Z</time>
      </trkpt>
      <trkpt lat="39.7190300" lon="-6.8793350">
        <ele>215.6</ele>
        <time>2019-07-10T09:36:34Z</time>
      </trkpt>
      <trkpt lat="39.7189550" lon="-6.8793210">
        <ele>216.0</ele>
        <time>2019-07-10T09:36:36Z</time>
      </trkpt>
      <trkpt lat="39.7187960" lon="-6.8793050">
        <ele>217.6</ele>
        <time>2019-07-10T09:36:41Z</time>
      </trkpt>
      <trkpt lat="39.7187360" lon="-6.8793000">
        <ele>218.0</ele>
        <time>2019-07-10T09:36:43Z</time>
      </trkpt>
      <trkpt lat="39.7186440" lon="-6.8793180">
        <ele>218.6</ele>
        <time>2019-07-10T09:36:46Z</time>
      </trkpt>
      <trkpt lat="39.7185230" lon="-6.8793570">
        <ele>219.8</ele>
        <time>2019-07-10T09:36:50Z</time>
      </trkpt>
      <trkpt lat="39.7184940" lon="-6.8793690">
        <ele>220.0</ele>
        <time>2019-07-10T09:36:51Z</time>
      </trkpt>
      <trkpt lat="39.7184120" lon="-6.8794160">
        <ele>221.0</ele>
        <time>2019-07-10T09:36:54Z</time>
      </trkpt>
      <trkpt lat="39.7182990" lon="-6.8794950">
        <ele>222.0</ele>
        <time>2019-07-10T09:36:58Z</time>
      </trkpt>
      <trkpt lat="39.7182720" lon="-6.8795180">
        <ele>222.2</ele>
        <time>2019-07-10T09:36:59Z</time>
      </trkpt>
      <trkpt lat="39.7181390" lon="-6.8796550">
        <ele>223.4</ele>
        <time>2019-07-10T09:37:04Z</time>
      </trkpt>
      <trkpt lat="39.7180740" lon="-6.8797520">
        <ele>224.4</ele>
        <time>2019-07-10T09:37:07Z</time>
      </trkpt>
      <trkpt lat="39.7180300" lon="-6.8798170">
        <ele>224.8</ele>
        <time>2019-07-10T09:37:09Z</time>
      </trkpt>
      <trkpt lat="39.7180110" lon="-6.8798520">
        <ele>225.2</ele>
        <time>2019-07-10T09:37:10Z</time>
      </trkpt>
      <trkpt lat="39.7179420" lon="-6.8799880">
        <ele>226.0</ele>
        <time>2019-07-10T09:37:14Z</time>
      </trkpt>
      <trkpt lat="39.7179280" lon="-6.8800230">
        <ele>226.2</ele>
        <time>2019-07-10T09:37:15Z</time>
      </trkpt>
      <trkpt lat="39.7178600" lon="-6.8802160">
        <ele>227.2</ele>
        <time>2019-07-10T09:37:20Z</time>
      </trkpt>
      <trkpt lat="39.7177910" lon="-6.8803810">
        <ele>228.2</ele>
        <time>2019-07-10T09:37:24Z</time>
      </trkpt>
      <trkpt lat="39.7176990" lon="-6.8805240">
        <ele>229.2</ele>
        <time>2019-07-10T09:37:28Z</time>
      </trkpt>
      <trkpt lat="39.7176130" lon="-6.8806090">
        <ele>230.0</ele>
        <time>2019-07-10T09:37:31Z</time>
      </trkpt>
      <trkpt lat="39.7175470" lon="-6.8806520">
        <ele>230.4</ele>
        <time>2019-07-10T09:37:33Z</time>
      </trkpt>
      <trkpt lat="39.7173760" lon="-6.8807350">
        <ele>231.2</ele>
        <time>2019-07-10T09:37:38Z</time>
      </trkpt>
      <trkpt lat="39.7173420" lon="-6.8807530">
        <ele>231.4</ele>
        <time>2019-07-10T09:37:39Z</time>
      </trkpt>
      <trkpt lat="39.7172530" lon="-6.8808920">
        <ele>232.2</ele>
        <time>2019-07-10T09:37:43Z</time>
      </trkpt>
      <trkpt lat="39.7172470" lon="-6.8809330">
        <ele>232.6</ele>
        <time>2019-07-10T09:37:44Z</time>
      </trkpt>
      <trkpt lat="39.7172680" lon="-6.8811030">
        <ele>233.6</ele>
        <time>2019-07-10T09:37:48Z</time>
      </trkpt>
      <trkpt lat="39.7173410" lon="-6.8813360">
        <ele>234.6</ele>
        <time>2019-07-10T09:37:54Z</time>
      </trkpt>
      <trkpt lat="39.7173500" lon="-6.8813730">
        <ele>235.0</ele>
        <time>2019-07-10T09:37:55Z</time>
      </trkpt>
      <trkpt lat="39.7173910" lon="-6.8815650">
        <ele>235.8</ele>
        <time>2019-07-10T09:38:00Z</time>
      </trkpt>
      <trkpt lat="39.7173820" lon="-6.8816070">
        <ele>235.8</ele>
        <time>2019-07-10T09:38:01Z</time>
      </trkpt>
      <trkpt lat="39.7173620" lon="-6.8816420">
        <ele>236.0</ele>
        <time>2019-07-10T09:38:02Z</time>
      </trkpt>
      <trkpt lat="39.7173320" lon="-6.8816670">
        <ele>236.2</ele>
        <time>2019-07-10T09:38:03Z</time>
      </trkpt>
      <trkpt lat="39.7172410" lon="-6.8816320">
        <ele>236.8</ele>
        <time>2019-07-10T09:38:06Z</time>
      </trkpt>
      <trkpt lat="39.7172160" lon="-6.8816010">
        <ele>237.0</ele>
        <time>2019-07-10T09:38:07Z</time>
      </trkpt>
      <trkpt lat="39.7171900" lon="-6.8815710">
        <ele>237.0</ele>
        <time>2019-07-10T09:38:08Z</time>
      </trkpt>
      <trkpt lat="39.7170410" lon="-6.8814110">
        <ele>238.0</ele>
        <time>2019-07-10T09:38:14Z</time>
      </trkpt>
      <trkpt lat="39.7170160" lon="-6.8813860">
        <ele>238.2</ele>
        <time>2019-07-10T09:38:15Z</time>
      </trkpt>
      <trkpt lat="39.7168520" lon="-6.8812830">
        <ele>239.4</ele>
        <time>2019-07-10T09:38:21Z</time>
      </trkpt>
      <trkpt lat="39.7166930" lon="-6.8812670">
        <ele>240.2</ele>
        <time>2019-07-10T09:38:26Z</time>
      </trkpt>
      <trkpt lat="39.7166260" lon="-6.8812810">
        <ele>240.6</ele>
        <time>2019-07-10T09:38:28Z</time>
      </trkpt>
      <trkpt lat="39.7164950" lon="-6.8813620">
        <ele>241.4</ele>
        <time>2019-07-10T09:38:32Z</time>
      </trkpt>
      <trkpt lat="39.7164600" lon="-6.8813850">
        <ele>241.6</ele>
        <time>2019-07-10T09:38:33Z</time>
      </trkpt>
      <trkpt lat="39.7163070" lon="-6.8815420">
        <ele>242.4</ele>
        <time>2019-07-10T09:38:38Z</time>
      </trkpt>
      <trkpt lat="39.7162480" lon="-6.8816190">
        <ele>242.8</ele>
        <time>2019-07-10T09:38:40Z</time>
      </trkpt>
      <trkpt lat="39.7160670" lon="-6.8818320">
        <ele>243.8</ele>
        <time>2019-07-10T09:38:46Z</time>
      </trkpt>
      <trkpt lat="39.7159210" lon="-6.8819790">
        <ele>245.0</ele>
        <time>2019-07-10T09:38:51Z</time>
      </trkpt>
      <trkpt lat="39.7158590" lon="-6.8820430">
        <ele>245.4</ele>
        <time>2019-07-10T09:38:53Z</time>
      </trkpt>
      <trkpt lat="39.7157310" lon="-6.8821980">
        <ele>246.2</ele>
        <time>2019-07-10T09:38:57Z</time>
      </trkpt>
      <trkpt lat="39.7156010" lon="-6.8823780">
        <ele>246.4</ele>
        <time>2019-07-10T09:39:01Z</time>
      </trkpt>
      <trkpt lat="39.7153800" lon="-6.8826160">
        <ele>246.8</ele>
        <time>2019-07-10T09:39:07Z</time>
      </trkpt>
      <trkpt lat="39.7152990" lon="-6.8826920">
        <ele>247.0</ele>
        <time>2019-07-10T09:39:09Z</time>
      </trkpt>
      <trkpt lat="39.7152190" lon="-6.8827640">
        <ele>247.4</ele>
        <time>2019-07-10T09:39:11Z</time>
      </trkpt>
      <trkpt lat="39.7151780" lon="-6.8827970">
        <ele>247.6</ele>
        <time>2019-07-10T09:39:12Z</time>
      </trkpt>
      <trkpt lat="39.7150070" lon="-6.8829210">
        <ele>248.0</ele>
        <time>2019-07-10T09:39:16Z</time>
      </trkpt>
      <trkpt lat="39.7148410" lon="-6.8830550">
        <ele>248.4</ele>
        <time>2019-07-10T09:39:20Z</time>
      </trkpt>
      <trkpt lat="39.7146820" lon="-6.8831930">
        <ele>249.4</ele>
        <time>2019-07-10T09:39:24Z</time>
      </trkpt>
      <trkpt lat="39.7146430" lon="-6.8832260">
        <ele>249.6</ele>
        <time>2019-07-10T09:39:25Z</time>
      </trkpt>
      <trkpt lat="39.7145010" lon="-6.8833450">
        <ele>250.6</ele>
        <time>2019-07-10T09:39:29Z</time>
      </trkpt>
      <trkpt lat="39.7144670" lon="-6.8833740">
        <ele>250.8</ele>
        <time>2019-07-10T09:39:30Z</time>
      </trkpt>
      <trkpt lat="39.7143270" lon="-6.8834800">
        <ele>251.8</ele>
        <time>2019-07-10T09:39:34Z</time>
      </trkpt>
      <trkpt lat="39.7142220" lon="-6.8835600">
        <ele>252.4</ele>
        <time>2019-07-10T09:39:37Z</time>
      </trkpt>
      <trkpt lat="39.7141540" lon="-6.8836090">
        <ele>252.8</ele>
        <time>2019-07-10T09:39:39Z</time>
      </trkpt>
      <trkpt lat="39.7139460" lon="-6.8837720">
        <ele>254.0</ele>
        <time>2019-07-10T09:39:45Z</time>
      </trkpt>
      <trkpt lat="39.7137330" lon="-6.8839380">
        <ele>255.2</ele>
        <time>2019-07-10T09:39:51Z</time>
      </trkpt>
      <trkpt lat="39.7136980" lon="-6.8839580">
        <ele>255.6</ele>
        <time>2019-07-10T09:39:52Z</time>
      </trkpt>
      <trkpt lat="39.7135880" lon="-6.8840350">
        <ele>255.8</ele>
        <time>2019-07-10T09:39:55Z</time>
      </trkpt>
      <trkpt lat="39.7134930" lon="-6.8841470">
        <ele>256.4</ele>
        <time>2019-07-10T09:39:58Z</time>
      </trkpt>
      <trkpt lat="39.7134590" lon="-6.8841830">
        <ele>256.6</ele>
        <time>2019-07-10T09:39:59Z</time>
      </trkpt>
      <trkpt lat="39.7133100" lon="-6.8842920">
        <ele>257.2</ele>
        <time>2019-07-10T09:40:03Z</time>
      </trkpt>
      <trkpt lat="39.7132730" lon="-6.8843230">
        <ele>257.4</ele>
        <time>2019-07-10T09:40:04Z</time>
      </trkpt>
      <trkpt lat="39.7130570" lon="-6.8844980">
        <ele>258.6</ele>
        <time>2019-07-10T09:40:10Z</time>
      </trkpt>
      <trkpt lat="39.7130200" lon="-6.8845250">
        <ele>258.6</ele>
        <time>2019-07-10T09:40:11Z</time>
      </trkpt>
      <trkpt lat="39.7128760" lon="-6.8846350">
        <ele>259.8</ele>
        <time>2019-07-10T09:40:15Z</time>
      </trkpt>
      <trkpt lat="39.7127310" lon="-6.8847500">
        <ele>261.0</ele>
        <time>2019-07-10T09:40:19Z</time>
      </trkpt>
      <trkpt lat="39.7126950" lon="-6.8847790">
        <ele>261.2</ele>
        <time>2019-07-10T09:40:20Z</time>
      </trkpt>
      <trkpt lat="39.7124750" lon="-6.8849580">
        <ele>262.2</ele>
        <time>2019-07-10T09:40:26Z</time>
      </trkpt>
      <trkpt lat="39.7124050" lon="-6.8850170">
        <ele>262.6</ele>
        <time>2019-07-10T09:40:28Z</time>
      </trkpt>
      <trkpt lat="39.7123000" lon="-6.8850990">
        <ele>263.2</ele>
        <time>2019-07-10T09:40:31Z</time>
      </trkpt>
      <trkpt lat="39.7121610" lon="-6.8852070">
        <ele>264.0</ele>
        <time>2019-07-10T09:40:35Z</time>
      </trkpt>
      <trkpt lat="39.7120950" lon="-6.8852610">
        <ele>264.4</ele>
        <time>2019-07-10T09:40:37Z</time>
      </trkpt>
      <trkpt lat="39.7119270" lon="-6.8853940">
        <ele>265.4</ele>
        <time>2019-07-10T09:40:42Z</time>
      </trkpt>
      <trkpt lat="39.7118930" lon="-6.8854220">
        <ele>265.6</ele>
        <time>2019-07-10T09:40:43Z</time>
      </trkpt>
      <trkpt lat="39.7117190" lon="-6.8855630">
        <ele>266.6</ele>
        <time>2019-07-10T09:40:48Z</time>
      </trkpt>
      <trkpt lat="39.7116150" lon="-6.8856500">
        <ele>267.2</ele>
        <time>2019-07-10T09:40:51Z</time>
      </trkpt>
      <trkpt lat="39.7115790" lon="-6.8856740">
        <ele>267.6</ele>
        <time>2019-07-10T09:40:52Z</time>
      </trkpt>
      <trkpt lat="39.7115430" lon="-6.8857000">
        <ele>267.8</ele>
        <time>2019-07-10T09:40:53Z</time>
      </trkpt>
      <trkpt lat="39.7114040" lon="-6.8858110">
        <ele>268.4</ele>
        <time>2019-07-10T09:40:57Z</time>
      </trkpt>
      <trkpt lat="39.7113360" lon="-6.8858620">
        <ele>268.6</ele>
        <time>2019-07-10T09:40:59Z</time>
      </trkpt>
      <trkpt lat="39.7113010" lon="-6.8858890">
        <ele>268.8</ele>
        <time>2019-07-10T09:41:00Z</time>
      </trkpt>
      <trkpt lat="39.7111650" lon="-6.8859880">
        <ele>269.8</ele>
        <time>2019-07-10T09:41:04Z</time>
      </trkpt>
      <trkpt lat="39.7110240" lon="-6.8860900">
        <ele>270.8</ele>
        <time>2019-07-10T09:41:08Z</time>
      </trkpt>
      <trkpt lat="39.7109870" lon="-6.8861130">
        <ele>271.0</ele>
        <time>2019-07-10T09:41:09Z</time>
      </trkpt>
      <trkpt lat="39.7108740" lon="-6.8861770">
        <ele>272.2</ele>
        <time>2019-07-10T09:41:12Z</time>
      </trkpt>
      <trkpt lat="39.7106760" lon="-6.8862550">
        <ele>273.2</ele>
        <time>2019-07-10T09:41:17Z</time>
      </trkpt>
      <trkpt lat="39.7104640" lon="-6.8862750">
        <ele>274.4</ele>
        <time>2019-07-10T09:41:22Z</time>
      </trkpt>
      <trkpt lat="39.7103800" lon="-6.8862800">
        <ele>274.8</ele>
        <time>2019-07-10T09:41:24Z</time>
      </trkpt>
      <trkpt lat="39.7101880" lon="-6.8862430">
        <ele>275.4</ele>
        <time>2019-07-10T09:41:29Z</time>
      </trkpt>
      <trkpt lat="39.7101530" lon="-6.8862290">
        <ele>275.2</ele>
        <time>2019-07-10T09:41:30Z</time>
      </trkpt>
      <trkpt lat="39.7100450" lon="-6.8861850">
        <ele>275.6</ele>
        <time>2019-07-10T09:41:33Z</time>
      </trkpt>
      <trkpt lat="39.7099670" lon="-6.8861450">
        <ele>275.8</ele>
        <time>2019-07-10T09:41:35Z</time>
      </trkpt>
      <trkpt lat="39.7098910" lon="-6.8860840">
        <ele>276.0</ele>
        <time>2019-07-10T09:41:37Z</time>
      </trkpt>
      <trkpt lat="39.7096900" lon="-6.8859050">
        <ele>275.8</ele>
        <time>2019-07-10T09:41:42Z</time>
      </trkpt>
      <trkpt lat="39.7095750" lon="-6.8857960">
        <ele>276.0</ele>
        <time>2019-07-10T09:41:45Z</time>
      </trkpt>
      <trkpt lat="39.7095020" lon="-6.8857250">
        <ele>276.2</ele>
        <time>2019-07-10T09:41:47Z</time>
      </trkpt>
      <trkpt lat="39.7094650" lon="-6.8856940">
        <ele>276.2</ele>
        <time>2019-07-10T09:41:48Z</time>
      </trkpt>
      <trkpt lat="39.7093950" lon="-6.8856490">
        <ele>276.0</ele>
        <time>2019-07-10T09:41:50Z</time>
      </trkpt>
      <trkpt lat="39.7093670" lon="-6.8856580">
        <ele>276.0</ele>
        <time>2019-07-10T09:41:51Z</time>
      </trkpt>
      <trkpt lat="39.7093670" lon="-6.8857390">
        <ele>276.2</ele>
        <time>2019-07-10T09:41:53Z</time>
      </trkpt>
      <trkpt lat="39.7094620" lon="-6.8858220">
        <ele>276.4</ele>
        <time>2019-07-10T09:41:56Z</time>
      </trkpt>
      <trkpt lat="39.7094990" lon="-6.8858510">
        <ele>276.6</ele>
        <time>2019-07-10T09:41:57Z</time>
      </trkpt>
      <trkpt lat="39.7096890" lon="-6.8860180">
        <ele>276.8</ele>
        <time>2019-07-10T09:42:02Z</time>
      </trkpt>
      <trkpt lat="39.7097700" lon="-6.8860810">
        <ele>276.8</ele>
        <time>2019-07-10T09:42:04Z</time>
      </trkpt>
      <trkpt lat="39.7100920" lon="-6.8862550">
        <ele>276.4</ele>
        <time>2019-07-10T09:42:11Z</time>
      </trkpt>
      <trkpt lat="39.7103610" lon="-6.8863280">
        <ele>276.2</ele>
        <time>2019-07-10T09:42:16Z</time>
      </trkpt>
      <trkpt lat="39.7104670" lon="-6.8863490">
        <ele>276.2</ele>
        <time>2019-07-10T09:42:18Z</time>
      </trkpt>
      <trkpt lat="39.7105130" lon="-6.8863840">
        <ele>276.2</ele>
        <time>2019-07-10T09:42:19Z</time>
      </trkpt>
      <trkpt lat="39.7105600" lon="-6.8864890">
        <ele>275.8</ele>
        <time>2019-07-10T09:42:21Z</time>
      </trkpt>
      <trkpt lat="39.7105010" lon="-6.8866470">
        <ele>275.6</ele>
        <time>2019-07-10T09:42:24Z</time>
      </trkpt>
      <trkpt lat="39.7104680" lon="-6.8866930">
        <ele>275.6</ele>
        <time>2019-07-10T09:42:25Z</time>
      </trkpt>
      <trkpt lat="39.7104020" lon="-6.8867970">
        <ele>275.4</ele>
        <time>2019-07-10T09:42:27Z</time>
      </trkpt>
      <trkpt lat="39.7103180" lon="-6.8869810">
        <ele>275.4</ele>
        <time>2019-07-10T09:42:30Z</time>
      </trkpt>
      <trkpt lat="39.7101930" lon="-6.8872350">
        <ele>274.8</ele>
        <time>2019-07-10T09:42:34Z</time>
      </trkpt>
      <trkpt lat="39.7101580" lon="-6.8873020">
        <ele>274.8</ele>
        <time>2019-07-10T09:42:35Z</time>
      </trkpt>
      <trkpt lat="39.7101140" lon="-6.8873640">
        <ele>274.4</ele>
        <time>2019-07-10T09:42:36Z</time>
      </trkpt>
      <trkpt lat="39.7100650" lon="-6.8874230">
        <ele>274.0</ele>
        <time>2019-07-10T09:42:37Z</time>
      </trkpt>
      <trkpt lat="39.7099060" lon="-6.8875950">
        <ele>273.4</ele>
        <time>2019-07-10T09:42:40Z</time>
      </trkpt>
      <trkpt lat="39.7096950" lon="-6.8878380">
        <ele>272.2</ele>
        <time>2019-07-10T09:42:44Z</time>
      </trkpt>
      <trkpt lat="39.7096430" lon="-6.8878990">
        <ele>272.0</ele>
        <time>2019-07-10T09:42:45Z</time>
      </trkpt>
      <trkpt lat="39.7093980" lon="-6.8882130">
        <ele>271.0</ele>
        <time>2019-07-10T09:42:50Z</time>
      </trkpt>
      <trkpt lat="39.7092990" lon="-6.8883400">
        <ele>270.8</ele>
        <time>2019-07-10T09:42:52Z</time>
      </trkpt>
      <trkpt lat="39.7091920" lon="-6.8884690">
        <ele>270.4</ele>
        <time>2019-07-10T09:42:54Z</time>
      </trkpt>
      <trkpt lat="39.7089980" lon="-6.8886280">
        <ele>270.0</ele>
        <time>2019-07-10T09:42:57Z</time>
      </trkpt>
      <trkpt lat="39.7087850" lon="-6.8887680">
        <ele>268.8</ele>
        <time>2019-07-10T09:43:00Z</time>
      </trkpt>
      <trkpt lat="39.7085680" lon="-6.8888830">
        <ele>268.2</ele>
        <time>2019-07-10T09:43:03Z</time>
      </trkpt>
      <trkpt lat="39.7081610" lon="-6.8890250">
        <ele>268.0</ele>
        <time>2019-07-10T09:43:09Z</time>
      </trkpt>
      <trkpt lat="39.7080950" lon="-6.8890410">
        <ele>268.2</ele>
        <time>2019-07-10T09:43:10Z</time>
      </trkpt>
      <trkpt lat="39.7079610" lon="-6.8890680">
        <ele>268.2</ele>
        <time>2019-07-10T09:43:12Z</time>
      </trkpt>
      <trkpt lat="39.7076390" lon="-6.8891270">
        <ele>268.2</ele>
        <time>2019-07-10T09:43:17Z</time>
      </trkpt>
      <trkpt lat="39.7074780" lon="-6.8891500">
        <ele>269.0</ele>
        <time>2019-07-10T09:43:20Z</time>
      </trkpt>
      <trkpt lat="39.7073160" lon="-6.8891540">
        <ele>269.4</ele>
        <time>2019-07-10T09:43:23Z</time>
      </trkpt>
      <trkpt lat="39.7070740" lon="-6.8891610">
        <ele>269.8</ele>
        <time>2019-07-10T09:43:27Z</time>
      </trkpt>
      <trkpt lat="39.7068270" lon="-6.8891780">
        <ele>269.8</ele>
        <time>2019-07-10T09:43:31Z</time>
      </trkpt>
      <trkpt lat="39.7063680" lon="-6.8891710">
        <ele>269.4</ele>
        <time>2019-07-10T09:43:38Z</time>
      </trkpt>
      <trkpt lat="39.7059120" lon="-6.8892350">
        <ele>269.6</ele>
        <time>2019-07-10T09:43:45Z</time>
      </trkpt>
      <trkpt lat="39.7054420" lon="-6.8893130">
        <ele>270.2</ele>
        <time>2019-07-10T09:43:53Z</time>
      </trkpt>
      <trkpt lat="39.7051790" lon="-6.8893810">
        <ele>270.8</ele>
        <time>2019-07-10T09:43:58Z</time>
      </trkpt>
      <trkpt lat="39.7051270" lon="-6.8893950">
        <ele>271.0</ele>
        <time>2019-07-10T09:43:59Z</time>
      </trkpt>
      <trkpt lat="39.7049730" lon="-6.8894390">
        <ele>272.0</ele>
        <time>2019-07-10T09:44:02Z</time>
      </trkpt>
      <trkpt lat="39.7049220" lon="-6.8894540">
        <ele>272.4</ele>
        <time>2019-07-10T09:44:03Z</time>
      </trkpt>
      <trkpt lat="39.7047690" lon="-6.8895010">
        <ele>273.4</ele>
        <time>2019-07-10T09:44:06Z</time>
      </trkpt>
      <trkpt lat="39.7046200" lon="-6.8895390">
        <ele>274.6</ele>
        <time>2019-07-10T09:44:09Z</time>
      </trkpt>
      <trkpt lat="39.7044860" lon="-6.8895830">
        <ele>275.6</ele>
        <time>2019-07-10T09:44:12Z</time>
      </trkpt>
      <trkpt lat="39.7044440" lon="-6.8895990">
        <ele>275.8</ele>
        <time>2019-07-10T09:44:13Z</time>
      </trkpt>
      <trkpt lat="39.7043210" lon="-6.8896310">
        <ele>276.8</ele>
        <time>2019-07-10T09:44:16Z</time>
      </trkpt>
      <trkpt lat="39.7042800" lon="-6.8896410">
        <ele>277.2</ele>
        <time>2019-07-10T09:44:17Z</time>
      </trkpt>
      <trkpt lat="39.7041930" lon="-6.8896610">
        <ele>278.0</ele>
        <time>2019-07-10T09:44:19Z</time>
      </trkpt>
      <trkpt lat="39.7041470" lon="-6.8896700">
        <ele>278.4</ele>
        <time>2019-07-10T09:44:20Z</time>
      </trkpt>
      <trkpt lat="39.7039580" lon="-6.8897120">
        <ele>278.4</ele>
        <time>2019-07-10T09:44:24Z</time>
      </trkpt>
      <trkpt lat="39.7037680" lon="-6.8897610">
        <ele>278.6</ele>
        <time>2019-07-10T09:44:28Z</time>
      </trkpt>
      <trkpt lat="39.7032990" lon="-6.8898650">
        <ele>279.4</ele>
        <time>2019-07-10T09:44:38Z</time>
      </trkpt>
      <trkpt lat="39.7029160" lon="-6.8900030">
        <ele>280.4</ele>
        <time>2019-07-10T09:44:46Z</time>
      </trkpt>
      <trkpt lat="39.7028670" lon="-6.8900200">
        <ele>280.4</ele>
        <time>2019-07-10T09:44:47Z</time>
      </trkpt>
      <trkpt lat="39.7025150" lon="-6.8901300">
        <ele>281.0</ele>
        <time>2019-07-10T09:44:54Z</time>
      </trkpt>
      <trkpt lat="39.7023420" lon="-6.8901880">
        <ele>281.0</ele>
        <time>2019-07-10T09:44:57Z</time>
      </trkpt>
      <trkpt lat="39.7022150" lon="-6.8902260">
        <ele>280.8</ele>
        <time>2019-07-10T09:44:59Z</time>
      </trkpt>
      <trkpt lat="39.7021520" lon="-6.8902520">
        <ele>280.4</ele>
        <time>2019-07-10T09:45:00Z</time>
      </trkpt>
      <trkpt lat="39.7019750" lon="-6.8903750">
        <ele>280.0</ele>
        <time>2019-07-10T09:45:03Z</time>
      </trkpt>
      <trkpt lat="39.7019230" lon="-6.8904290">
        <ele>279.4</ele>
        <time>2019-07-10T09:45:04Z</time>
      </trkpt>
      <trkpt lat="39.7018800" lon="-6.8904940">
        <ele>279.2</ele>
        <time>2019-07-10T09:45:05Z</time>
      </trkpt>
      <trkpt lat="39.7017930" lon="-6.8906980">
        <ele>279.0</ele>
        <time>2019-07-10T09:45:08Z</time>
      </trkpt>
      <trkpt lat="39.7017680" lon="-6.8907540">
        <ele>279.4</ele>
        <time>2019-07-10T09:45:09Z</time>
      </trkpt>
      <trkpt lat="39.7016820" lon="-6.8908970">
        <ele>280.0</ele>
        <time>2019-07-10T09:45:12Z</time>
      </trkpt>
      <trkpt lat="39.7016500" lon="-6.8909380">
        <ele>280.6</ele>
        <time>2019-07-10T09:45:13Z</time>
      </trkpt>
      <trkpt lat="39.7016160" lon="-6.8909750">
        <ele>280.8</ele>
        <time>2019-07-10T09:45:14Z</time>
      </trkpt>
      <trkpt lat="39.7015030" lon="-6.8910640">
        <ele>281.6</ele>
        <time>2019-07-10T09:45:17Z</time>
      </trkpt>
      <trkpt lat="39.7014290" lon="-6.8911150">
        <ele>282.6</ele>
        <time>2019-07-10T09:45:19Z</time>
      </trkpt>
      <trkpt lat="39.7013920" lon="-6.8911360">
        <ele>282.8</ele>
        <time>2019-07-10T09:45:20Z</time>
      </trkpt>
      <trkpt lat="39.7012280" lon="-6.8912040">
        <ele>284.0</ele>
        <time>2019-07-10T09:45:24Z</time>
      </trkpt>
      <trkpt lat="39.7011860" lon="-6.8912170">
        <ele>284.4</ele>
        <time>2019-07-10T09:45:25Z</time>
      </trkpt>
      <trkpt lat="39.7011410" lon="-6.8912230">
        <ele>284.6</ele>
        <time>2019-07-10T09:45:26Z</time>
      </trkpt>
      <trkpt lat="39.7010500" lon="-6.8912100">
        <ele>285.2</ele>
        <time>2019-07-10T09:45:28Z</time>
      </trkpt>
      <trkpt lat="39.7010080" lon="-6.8911920">
        <ele>285.4</ele>
        <time>2019-07-10T09:45:29Z</time>
      </trkpt>
      <trkpt lat="39.7009270" lon="-6.8911400">
        <ele>285.8</ele>
        <time>2019-07-10T09:45:31Z</time>
      </trkpt>
      <trkpt lat="39.7008060" lon="-6.8910530">
        <ele>286.4</ele>
        <time>2019-07-10T09:45:34Z</time>
      </trkpt>
      <trkpt lat="39.7006880" lon="-6.8909640">
        <ele>287.2</ele>
        <time>2019-07-10T09:45:37Z</time>
      </trkpt>
      <trkpt lat="39.7006500" lon="-6.8909340">
        <ele>287.4</ele>
        <time>2019-07-10T09:45:38Z</time>
      </trkpt>
      <trkpt lat="39.7003620" lon="-6.8907130">
        <ele>288.4</ele>
        <time>2019-07-10T09:45:45Z</time>
      </trkpt>
      <trkpt lat="39.7002720" lon="-6.8906420">
        <ele>288.6</ele>
        <time>2019-07-10T09:45:47Z</time>
      </trkpt>
      <trkpt lat="39.6999750" lon="-6.8904610">
        <ele>288.4</ele>
        <time>2019-07-10T09:45:53Z</time>
      </trkpt>
      <trkpt lat="39.6996400" lon="-6.8903900">
        <ele>288.2</ele>
        <time>2019-07-10T09:45:59Z</time>
      </trkpt>
      <trkpt lat="39.6995840" lon="-6.8903730">
        <ele>288.2</ele>
        <time>2019-07-10T09:46:00Z</time>
      </trkpt>
      <trkpt lat="39.6995280" lon="-6.8903510">
        <ele>288.2</ele>
        <time>2019-07-10T09:46:01Z</time>
      </trkpt>
      <trkpt lat="39.6992990" lon="-6.8902090">
        <ele>288.0</ele>
        <time>2019-07-10T09:46:05Z</time>
      </trkpt>
      <trkpt lat="39.6991800" lon="-6.8901160">
        <ele>287.4</ele>
        <time>2019-07-10T09:46:07Z</time>
      </trkpt>
      <trkpt lat="39.6989180" lon="-6.8899210">
        <ele>286.8</ele>
        <time>2019-07-10T09:46:11Z</time>
      </trkpt>
      <trkpt lat="39.6986610" lon="-6.8897770">
        <ele>286.4</ele>
        <time>2019-07-10T09:46:15Z</time>
      </trkpt>
      <trkpt lat="39.6986030" lon="-6.8897510">
        <ele>286.4</ele>
        <time>2019-07-10T09:46:16Z</time>
      </trkpt>
      <trkpt lat="39.6983420" lon="-6.8896750">
        <ele>287.6</ele>
        <time>2019-07-10T09:46:21Z</time>
      </trkpt>
      <trkpt lat="39.6982910" lon="-6.8896670">
        <ele>288.0</ele>
        <time>2019-07-10T09:46:22Z</time>
      </trkpt>
      <trkpt lat="39.6981380" lon="-6.8896520">
        <ele>288.8</ele>
        <time>2019-07-10T09:46:25Z</time>
      </trkpt>
      <trkpt lat="39.6980380" lon="-6.8896540">
        <ele>289.6</ele>
        <time>2019-07-10T09:46:27Z</time>
      </trkpt>
      <trkpt lat="39.6979370" lon="-6.8896820">
        <ele>290.0</ele>
        <time>2019-07-10T09:46:29Z</time>
      </trkpt>
      <trkpt lat="39.6978830" lon="-6.8897010">
        <ele>290.0</ele>
        <time>2019-07-10T09:46:30Z</time>
      </trkpt>
      <trkpt lat="39.6975700" lon="-6.8898080">
        <ele>289.4</ele>
        <time>2019-07-10T09:46:35Z</time>
      </trkpt>
      <trkpt lat="39.6974200" lon="-6.8898500">
        <ele>288.8</ele>
        <time>2019-07-10T09:46:37Z</time>
      </trkpt>
      <trkpt lat="39.6971920" lon="-6.8898880">
        <ele>287.6</ele>
        <time>2019-07-10T09:46:40Z</time>
      </trkpt>
      <trkpt lat="39.6971190" lon="-6.8898920">
        <ele>287.4</ele>
        <time>2019-07-10T09:46:41Z</time>
      </trkpt>
      <trkpt lat="39.6968330" lon="-6.8899110">
        <ele>287.2</ele>
        <time>2019-07-10T09:46:45Z</time>
      </trkpt>
      <trkpt lat="39.6967010" lon="-6.8899200">
        <ele>287.2</ele>
        <time>2019-07-10T09:46:47Z</time>
      </trkpt>
      <trkpt lat="39.6966370" lon="-6.8899260">
        <ele>287.2</ele>
        <time>2019-07-10T09:46:48Z</time>
      </trkpt>
      <trkpt lat="39.6965300" lon="-6.8899560">
        <ele>287.0</ele>
        <time>2019-07-10T09:46:50Z</time>
      </trkpt>
      <trkpt lat="39.6964900" lon="-6.8899930">
        <ele>287.0</ele>
        <time>2019-07-10T09:46:51Z</time>
      </trkpt>
      <trkpt lat="39.6964340" lon="-6.8901120">
        <ele>286.6</ele>
        <time>2019-07-10T09:46:53Z</time>
      </trkpt>
      <trkpt lat="39.6964040" lon="-6.8901840">
        <ele>286.2</ele>
        <time>2019-07-10T09:46:54Z</time>
      </trkpt>
      <trkpt lat="39.6962420" lon="-6.8903900">
        <ele>284.8</ele>
        <time>2019-07-10T09:46:57Z</time>
      </trkpt>
      <trkpt lat="39.6961790" lon="-6.8904480">
        <ele>284.2</ele>
        <time>2019-07-10T09:46:58Z</time>
      </trkpt>
      <trkpt lat="39.6961220" lon="-6.8904960">
        <ele>283.4</ele>
        <time>2019-07-10T09:46:59Z</time>
      </trkpt>
      <trkpt lat="39.6960090" lon="-6.8905680">
        <ele>282.0</ele>
        <time>2019-07-10T09:47:01Z</time>
      </trkpt>
      <trkpt lat="39.6958010" lon="-6.8905830">
        <ele>280.6</ele>
        <time>2019-07-10T09:47:04Z</time>
      </trkpt>
      <trkpt lat="39.6955680" lon="-6.8905460">
        <ele>279.4</ele>
        <time>2019-07-10T09:47:07Z</time>
      </trkpt>
      <trkpt lat="39.6953190" lon="-6.8905070">
        <ele>279.0</ele>
        <time>2019-07-10T09:47:10Z</time>
      </trkpt>
      <trkpt lat="39.6951430" lon="-6.8904920">
        <ele>278.2</ele>
        <time>2019-07-10T09:47:12Z</time>
      </trkpt>
      <trkpt lat="39.6949620" lon="-6.8904870">
        <ele>277.0</ele>
        <time>2019-07-10T09:47:14Z</time>
      </trkpt>
      <trkpt lat="39.6947780" lon="-6.8905010">
        <ele>276.2</ele>
        <time>2019-07-10T09:47:16Z</time>
      </trkpt>
      <trkpt lat="39.6946860" lon="-6.8905080">
        <ele>275.4</ele>
        <time>2019-07-10T09:47:17Z</time>
      </trkpt>
      <trkpt lat="39.6944990" lon="-6.8905210">
        <ele>274.4</ele>
        <time>2019-07-10T09:47:19Z</time>
      </trkpt>
      <trkpt lat="39.6943210" lon="-6.8905280">
        <ele>273.2</ele>
        <time>2019-07-10T09:47:21Z</time>
      </trkpt>
      <trkpt lat="39.6941460" lon="-6.8905230">
        <ele>272.6</ele>
        <time>2019-07-10T09:47:23Z</time>
      </trkpt>
      <trkpt lat="39.6939690" lon="-6.8905100">
        <ele>272.0</ele>
        <time>2019-07-10T09:47:25Z</time>
      </trkpt>
      <trkpt lat="39.6936900" lon="-6.8904910">
        <ele>270.6</ele>
        <time>2019-07-10T09:47:28Z</time>
      </trkpt>
      <trkpt lat="39.6935100" lon="-6.8904830">
        <ele>269.4</ele>
        <time>2019-07-10T09:47:30Z</time>
      </trkpt>
      <trkpt lat="39.6932200" lon="-6.8904350">
        <ele>268.8</ele>
        <time>2019-07-10T09:47:34Z</time>
      </trkpt>
      <trkpt lat="39.6928720" lon="-6.8903420">
        <ele>268.4</ele>
        <time>2019-07-10T09:47:39Z</time>
      </trkpt>
      <trkpt lat="39.6927960" lon="-6.8903260">
        <ele>267.8</ele>
        <time>2019-07-10T09:47:40Z</time>
      </trkpt>
      <trkpt lat="39.6926430" lon="-6.8902920">
        <ele>267.2</ele>
        <time>2019-07-10T09:47:42Z</time>
      </trkpt>
      <trkpt lat="39.6922620" lon="-6.8902250">
        <ele>266.6</ele>
        <time>2019-07-10T09:47:47Z</time>
      </trkpt>
      <trkpt lat="39.6919710" lon="-6.8902010">
        <ele>266.0</ele>
        <time>2019-07-10T09:47:51Z</time>
      </trkpt>
      <trkpt lat="39.6918540" lon="-6.8902050">
        <ele>265.8</ele>
        <time>2019-07-10T09:47:53Z</time>
      </trkpt>
      <trkpt lat="39.6916800" lon="-6.8902110">
        <ele>265.6</ele>
        <time>2019-07-10T09:47:56Z</time>
      </trkpt>
      <trkpt lat="39.6915420" lon="-6.8901870">
        <ele>265.2</ele>
        <time>2019-07-10T09:47:58Z</time>
      </trkpt>
      <trkpt lat="39.6912970" lon="-6.8901360">
        <ele>264.0</ele>
        <time>2019-07-10T09:48:01Z</time>
      </trkpt>
      <trkpt lat="39.6911390" lon="-6.8901130">
        <ele>263.4</ele>
        <time>2019-07-10T09:48:03Z</time>
      </trkpt>
      <trkpt lat="39.6909880" lon="-6.8901000">
        <ele>263.0</ele>
        <time>2019-07-10T09:48:05Z</time>
      </trkpt>
      <trkpt lat="39.6908360" lon="-6.8900730">
        <ele>261.8</ele>
        <time>2019-07-10T09:48:07Z</time>
      </trkpt>
      <trkpt lat="39.6907600" lon="-6.8900520">
        <ele>261.4</ele>
        <time>2019-07-10T09:48:08Z</time>
      </trkpt>
      <trkpt lat="39.6905310" lon="-6.8899470">
        <ele>260.6</ele>
        <time>2019-07-10T09:48:11Z</time>
      </trkpt>
      <trkpt lat="39.6903040" lon="-6.8898170">
        <ele>259.2</ele>
        <time>2019-07-10T09:48:14Z</time>
      </trkpt>
      <trkpt lat="39.6900550" lon="-6.8896410">
        <ele>258.6</ele>
        <time>2019-07-10T09:48:18Z</time>
      </trkpt>
      <trkpt lat="39.6898690" lon="-6.8895130">
        <ele>258.2</ele>
        <time>2019-07-10T09:48:21Z</time>
      </trkpt>
      <trkpt lat="39.6897470" lon="-6.8894540">
        <ele>257.6</ele>
        <time>2019-07-10T09:48:23Z</time>
      </trkpt>
      <trkpt lat="39.6895960" lon="-6.8894530">
        <ele>257.6</ele>
        <time>2019-07-10T09:48:26Z</time>
      </trkpt>
      <trkpt lat="39.6895330" lon="-6.8895000">
        <ele>258.0</ele>
        <time>2019-07-10T09:48:28Z</time>
      </trkpt>
      <trkpt lat="39.6894760" lon="-6.8895450">
        <ele>258.4</ele>
        <time>2019-07-10T09:48:30Z</time>
      </trkpt>
      <trkpt lat="39.6894200" lon="-6.8895940">
        <ele>258.6</ele>
        <time>2019-07-10T09:48:32Z</time>
      </trkpt>
      <trkpt lat="39.6893580" lon="-6.8896430">
        <ele>258.8</ele>
        <time>2019-07-10T09:48:34Z</time>
      </trkpt>
      <trkpt lat="39.6892990" lon="-6.8896940">
        <ele>259.2</ele>
        <time>2019-07-10T09:48:36Z</time>
      </trkpt>
      <trkpt lat="39.6892710" lon="-6.8897230">
        <ele>259.4</ele>
        <time>2019-07-10T09:48:37Z</time>
      </trkpt>
      <trkpt lat="39.6892220" lon="-6.8897730">
        <ele>260.0</ele>
        <time>2019-07-10T09:48:39Z</time>
      </trkpt>
      <trkpt lat="39.6891990" lon="-6.8897960">
        <ele>260.6</ele>
        <time>2019-07-10T09:48:40Z</time>
      </trkpt>
      <trkpt lat="39.6891540" lon="-6.8898440">
        <ele>261.2</ele>
        <time>2019-07-10T09:48:42Z</time>
      </trkpt>
      <trkpt lat="39.6891330" lon="-6.8898680">
        <ele>261.8</ele>
        <time>2019-07-10T09:48:43Z</time>
      </trkpt>
      <trkpt lat="39.6890900" lon="-6.8899140">
        <ele>262.6</ele>
        <time>2019-07-10T09:48:45Z</time>
      </trkpt>
      <trkpt lat="39.6890700" lon="-6.8899370">
        <ele>263.0</ele>
        <time>2019-07-10T09:48:46Z</time>
      </trkpt>
      <trkpt lat="39.6890290" lon="-6.8899830">
        <ele>263.8</ele>
        <time>2019-07-10T09:48:48Z</time>
      </trkpt>
      <trkpt lat="39.6890070" lon="-6.8900030">
        <ele>264.2</ele>
        <time>2019-07-10T09:48:49Z</time>
      </trkpt>
      <trkpt lat="39.6889640" lon="-6.8900460">
        <ele>264.6</ele>
        <time>2019-07-10T09:48:51Z</time>
      </trkpt>
      <trkpt lat="39.6889200" lon="-6.8900910">
        <ele>265.2</ele>
        <time>2019-07-10T09:48:53Z</time>
      </trkpt>
      <trkpt lat="39.6888730" lon="-6.8901330">
        <ele>265.8</ele>
        <time>2019-07-10T09:48:55Z</time>
      </trkpt>
      <trkpt lat="39.6887870" lon="-6.8901790">
        <ele>266.0</ele>
        <time>2019-07-10T09:48:58Z</time>
      </trkpt>
      <trkpt lat="39.6887590" lon="-6.8901900">
        <ele>266.2</ele>
        <time>2019-07-10T09:48:59Z</time>
      </trkpt>
      <trkpt lat="39.6887300" lon="-6.8901990">
        <ele>266.4</ele>
        <time>2019-07-10T09:49:00Z</time>
      </trkpt>
      <trkpt lat="39.6886330" lon="-6.8902140">
        <ele>267.6</ele>
        <time>2019-07-10T09:49:04Z</time>
      </trkpt>
      <trkpt lat="39.6885880" lon="-6.8902170">
        <ele>268.2</ele>
        <time>2019-07-10T09:49:06Z</time>
      </trkpt>
      <trkpt lat="39.6885650" lon="-6.8902200">
        <ele>268.6</ele>
        <time>2019-07-10T09:49:07Z</time>
      </trkpt>
      <trkpt lat="39.6884250" lon="-6.8902070">
        <ele>269.0</ele>
        <time>2019-07-10T09:49:12Z</time>
      </trkpt>
      <trkpt lat="39.6882150" lon="-6.8901250">
        <ele>268.6</ele>
        <time>2019-07-10T09:49:17Z</time>
      </trkpt>
      <trkpt lat="39.6879380" lon="-6.8899620">
        <ele>268.0</ele>
        <time>2019-07-10T09:49:23Z</time>
      </trkpt>
      <trkpt lat="39.6878490" lon="-6.8899010">
        <ele>267.8</ele>
        <time>2019-07-10T09:49:25Z</time>
      </trkpt>
      <trkpt lat="39.6878010" lon="-6.8898770">
        <ele>267.6</ele>
        <time>2019-07-10T09:49:26Z</time>
      </trkpt>
      <trkpt lat="39.6876990" lon="-6.8898440">
        <ele>267.4</ele>
        <time>2019-07-10T09:49:28Z</time>
      </trkpt>
      <trkpt lat="39.6875940" lon="-6.8898170">
        <ele>266.8</ele>
        <time>2019-07-10T09:49:30Z</time>
      </trkpt>
      <trkpt lat="39.6874920" lon="-6.8898000">
        <ele>266.0</ele>
        <time>2019-07-10T09:49:32Z</time>
      </trkpt>
      <trkpt lat="39.6873810" lon="-6.8898000">
        <ele>264.8</ele>
        <time>2019-07-10T09:49:34Z</time>
      </trkpt>
      <trkpt lat="39.6873260" lon="-6.8897990">
        <ele>264.4</ele>
        <time>2019-07-10T09:49:35Z</time>
      </trkpt>
      <trkpt lat="39.6872190" lon="-6.8897780">
        <ele>263.6</ele>
        <time>2019-07-10T09:49:37Z</time>
      </trkpt>
      <trkpt lat="39.6871660" lon="-6.8897640">
        <ele>263.0</ele>
        <time>2019-07-10T09:49:38Z</time>
      </trkpt>
      <trkpt lat="39.6871140" lon="-6.8897520">
        <ele>262.4</ele>
        <time>2019-07-10T09:49:39Z</time>
      </trkpt>
      <trkpt lat="39.6870590" lon="-6.8897440">
        <ele>261.4</ele>
        <time>2019-07-10T09:49:40Z</time>
      </trkpt>
      <trkpt lat="39.6869980" lon="-6.8897430">
        <ele>260.6</ele>
        <time>2019-07-10T09:49:41Z</time>
      </trkpt>
      <trkpt lat="39.6869320" lon="-6.8897480">
        <ele>259.8</ele>
        <time>2019-07-10T09:49:42Z</time>
      </trkpt>
      <trkpt lat="39.6868650" lon="-6.8897600">
        <ele>259.0</ele>
        <time>2019-07-10T09:49:43Z</time>
      </trkpt>
      <trkpt lat="39.6867930" lon="-6.8897830">
        <ele>258.0</ele>
        <time>2019-07-10T09:49:44Z</time>
      </trkpt>
      <trkpt lat="39.6867160" lon="-6.8898110">
        <ele>256.8</ele>
        <time>2019-07-10T09:49:45Z</time>
      </trkpt>
      <trkpt lat="39.6866360" lon="-6.8898390">
        <ele>255.6</ele>
        <time>2019-07-10T09:49:46Z</time>
      </trkpt>
      <trkpt lat="39.6864950" lon="-6.8898940">
        <ele>254.2</ele>
        <time>2019-07-10T09:49:48Z</time>
      </trkpt>
      <trkpt lat="39.6864360" lon="-6.8899260">
        <ele>253.6</ele>
        <time>2019-07-10T09:49:49Z</time>
      </trkpt>
      <trkpt lat="39.6863830" lon="-6.8899640">
        <ele>253.2</ele>
        <time>2019-07-10T09:49:50Z</time>
      </trkpt>
      <trkpt lat="39.6862820" lon="-6.8900530">
        <ele>251.6</ele>
        <time>2019-07-10T09:49:52Z</time>
      </trkpt>
      <trkpt lat="39.6862300" lon="-6.8901040">
        <ele>250.6</ele>
        <time>2019-07-10T09:49:53Z</time>
      </trkpt>
      <trkpt lat="39.6861210" lon="-6.8902140">
        <ele>249.2</ele>
        <time>2019-07-10T09:49:55Z</time>
      </trkpt>
      <trkpt lat="39.6860650" lon="-6.8902670">
        <ele>248.2</ele>
        <time>2019-07-10T09:49:56Z</time>
      </trkpt>
      <trkpt lat="39.6859600" lon="-6.8903610">
        <ele>246.0</ele>
        <time>2019-07-10T09:49:58Z</time>
      </trkpt>
      <trkpt lat="39.6859110" lon="-6.8904000">
        <ele>245.0</ele>
        <time>2019-07-10T09:49:59Z</time>
      </trkpt>
      <trkpt lat="39.6858610" lon="-6.8904360">
        <ele>243.6</ele>
        <time>2019-07-10T09:50:00Z</time>
      </trkpt>
      <trkpt lat="39.6858180" lon="-6.8904700">
        <ele>242.4</ele>
        <time>2019-07-10T09:50:01Z</time>
      </trkpt>
      <trkpt lat="39.6857590" lon="-6.8905330">
        <ele>241.4</ele>
        <time>2019-07-10T09:50:03Z</time>
      </trkpt>
      <trkpt lat="39.6857300" lon="-6.8905910">
        <ele>241.0</ele>
        <time>2019-07-10T09:50:05Z</time>
      </trkpt>
      <trkpt lat="39.6856900" lon="-6.8906600">
        <ele>241.0</ele>
        <time>2019-07-10T09:50:08Z</time>
      </trkpt>
      <trkpt lat="39.6856720" lon="-6.8906810">
        <ele>241.0</ele>
        <time>2019-07-10T09:50:09Z</time>
      </trkpt>
      <trkpt lat="39.6856530" lon="-6.8907030">
        <ele>241.0</ele>
        <time>2019-07-10T09:50:10Z</time>
      </trkpt>
      <trkpt lat="39.6856320" lon="-6.8907260">
        <ele>241.0</ele>
        <time>2019-07-10T09:50:11Z</time>
      </trkpt>
      <trkpt lat="39.6855850" lon="-6.8907760">
        <ele>241.2</ele>
        <time>2019-07-10T09:50:13Z</time>
      </trkpt>
      <trkpt lat="39.6855340" lon="-6.8908140">
        <ele>241.8</ele>
        <time>2019-07-10T09:50:15Z</time>
      </trkpt>
      <trkpt lat="39.6855110" lon="-6.8908300">
        <ele>242.0</ele>
        <time>2019-07-10T09:50:16Z</time>
      </trkpt>
      <trkpt lat="39.6854660" lon="-6.8908640">
        <ele>242.8</ele>
        <time>2019-07-10T09:50:18Z</time>
      </trkpt>
      <trkpt lat="39.6854220" lon="-6.8908910">
        <ele>243.8</ele>
        <time>2019-07-10T09:50:20Z</time>
      </trkpt>
      <trkpt lat="39.6853800" lon="-6.8909200">
        <ele>244.4</ele>
        <time>2019-07-10T09:50:22Z</time>
      </trkpt>
      <trkpt lat="39.6853350" lon="-6.8909470">
        <ele>244.8</ele>
        <time>2019-07-10T09:50:24Z</time>
      </trkpt>
      <trkpt lat="39.6853120" lon="-6.8909610">
        <ele>245.4</ele>
        <time>2019-07-10T09:50:25Z</time>
      </trkpt>
      <trkpt lat="39.6852360" lon="-6.8910000">
        <ele>246.2</ele>
        <time>2019-07-10T09:50:28Z</time>
      </trkpt>
      <trkpt lat="39.6851810" lon="-6.8910300">
        <ele>246.6</ele>
        <time>2019-07-10T09:50:30Z</time>
      </trkpt>
      <trkpt lat="39.6850920" lon="-6.8910680">
        <ele>247.4</ele>
        <time>2019-07-10T09:50:33Z</time>
      </trkpt>
      <trkpt lat="39.6850620" lon="-6.8910780">
        <ele>247.6</ele>
        <time>2019-07-10T09:50:34Z</time>
      </trkpt>
      <trkpt lat="39.6849080" lon="-6.8911160">
        <ele>248.2</ele>
        <time>2019-07-10T09:50:39Z</time>
      </trkpt>
      <trkpt lat="39.6848160" lon="-6.8911090">
        <ele>248.6</ele>
        <time>2019-07-10T09:50:42Z</time>
      </trkpt>
      <trkpt lat="39.6847060" lon="-6.8910830">
        <ele>249.8</ele>
        <time>2019-07-10T09:50:46Z</time>
      </trkpt>
      <trkpt lat="39.6845500" lon="-6.8910280">
        <ele>250.8</ele>
        <time>2019-07-10T09:50:52Z</time>
      </trkpt>
      <trkpt lat="39.6844750" lon="-6.8909920">
        <ele>251.4</ele>
        <time>2019-07-10T09:50:55Z</time>
      </trkpt>
      <trkpt lat="39.6844490" lon="-6.8909840">
        <ele>251.8</ele>
        <time>2019-07-10T09:50:56Z</time>
      </trkpt>
      <trkpt lat="39.6843430" lon="-6.8909390">
        <ele>253.2</ele>
        <time>2019-07-10T09:51:00Z</time>
      </trkpt>
      <trkpt lat="39.6842870" lon="-6.8909200">
        <ele>253.8</ele>
        <time>2019-07-10T09:51:02Z</time>
      </trkpt>
      <trkpt lat="39.6842000" lon="-6.8908890">
        <ele>254.4</ele>
        <time>2019-07-10T09:51:05Z</time>
      </trkpt>
      <trkpt lat="39.6840270" lon="-6.8908510">
        <ele>255.4</ele>
        <time>2019-07-10T09:51:10Z</time>
      </trkpt>
      <trkpt lat="39.6839580" lon="-6.8908320">
        <ele>255.6</ele>
        <time>2019-07-10T09:51:12Z</time>
      </trkpt>
      <trkpt lat="39.6838030" lon="-6.8908100">
        <ele>256.4</ele>
        <time>2019-07-10T09:51:17Z</time>
      </trkpt>
      <trkpt lat="39.6837740" lon="-6.8908050">
        <ele>256.8</ele>
        <time>2019-07-10T09:51:18Z</time>
      </trkpt>
      <trkpt lat="39.6836650" lon="-6.8907880">
        <ele>258.0</ele>
        <time>2019-07-10T09:51:22Z</time>
      </trkpt>
      <trkpt lat="39.6835610" lon="-6.8907730">
        <ele>259.0</ele>
        <time>2019-07-10T09:51:26Z</time>
      </trkpt>
      <trkpt lat="39.6835340" lon="-6.8907700">
        <ele>259.2</ele>
        <time>2019-07-10T09:51:27Z</time>
      </trkpt>
      <trkpt lat="39.6834560" lon="-6.8907630">
        <ele>260.2</ele>
        <time>2019-07-10T09:51:30Z</time>
      </trkpt>
      <trkpt lat="39.6833210" lon="-6.8907400">
        <ele>261.2</ele>
        <time>2019-07-10T09:51:34Z</time>
      </trkpt>
      <trkpt lat="39.6830890" lon="-6.8907090">
        <ele>259.8</ele>
        <time>2019-07-10T09:51:38Z</time>
      </trkpt>
      <trkpt lat="39.6829530" lon="-6.8906810">
        <ele>259.4</ele>
        <time>2019-07-10T09:51:41Z</time>
      </trkpt>
      <trkpt lat="39.6829180" lon="-6.8906710">
        <ele>259.4</ele>
        <time>2019-07-10T09:51:42Z</time>
      </trkpt>
      <trkpt lat="39.6827150" lon="-6.8905740">
        <ele>260.8</ele>
        <time>2019-07-10T09:51:47Z</time>
      </trkpt>
      <trkpt lat="39.6826090" lon="-6.8905230">
        <ele>261.0</ele>
        <time>2019-07-10T09:51:49Z</time>
      </trkpt>
      <trkpt lat="39.6824770" lon="-6.8904980">
        <ele>261.0</ele>
        <time>2019-07-10T09:51:52Z</time>
      </trkpt>
      <trkpt lat="39.6824080" lon="-6.8904980">
        <ele>261.2</ele>
        <time>2019-07-10T09:51:54Z</time>
      </trkpt>
      <trkpt lat="39.6822960" lon="-6.8905040">
        <ele>262.8</ele>
        <time>2019-07-10T09:51:57Z</time>
      </trkpt>
      <trkpt lat="39.6822540" lon="-6.8905010">
        <ele>263.0</ele>
        <time>2019-07-10T09:51:58Z</time>
      </trkpt>
      <trkpt lat="39.6819570" lon="-6.8904700">
        <ele>262.6</ele>
        <time>2019-07-10T09:52:04Z</time>
      </trkpt>
      <trkpt lat="39.6819040" lon="-6.8904680">
        <ele>262.4</ele>
        <time>2019-07-10T09:52:05Z</time>
      </trkpt>
      <trkpt lat="39.6818080" lon="-6.8904780">
        <ele>262.2</ele>
        <time>2019-07-10T09:52:07Z</time>
      </trkpt>
      <trkpt lat="39.6817260" lon="-6.8904950">
        <ele>261.8</ele>
        <time>2019-07-10T09:52:09Z</time>
      </trkpt>
      <trkpt lat="39.6816160" lon="-6.8905220">
        <ele>262.8</ele>
        <time>2019-07-10T09:52:13Z</time>
      </trkpt>
      <trkpt lat="39.6815970" lon="-6.8905290">
        <ele>263.4</ele>
        <time>2019-07-10T09:52:14Z</time>
      </trkpt>
      <trkpt lat="39.6815780" lon="-6.8905360">
        <ele>263.8</ele>
        <time>2019-07-10T09:52:15Z</time>
      </trkpt>
      <trkpt lat="39.6815390" lon="-6.8905550">
        <ele>265.0</ele>
        <time>2019-07-10T09:52:17Z</time>
      </trkpt>
      <trkpt lat="39.6814770" lon="-6.8905870">
        <ele>266.2</ele>
        <time>2019-07-10T09:52:20Z</time>
      </trkpt>
      <trkpt lat="39.6814110" lon="-6.8906240">
        <ele>266.8</ele>
        <time>2019-07-10T09:52:23Z</time>
      </trkpt>
      <trkpt lat="39.6813900" lon="-6.8906370">
        <ele>267.2</ele>
        <time>2019-07-10T09:52:24Z</time>
      </trkpt>
      <trkpt lat="39.6813500" lon="-6.8906650">
        <ele>268.4</ele>
        <time>2019-07-10T09:52:26Z</time>
      </trkpt>
      <trkpt lat="39.6812820" lon="-6.8907010">
        <ele>269.4</ele>
        <time>2019-07-10T09:52:29Z</time>
      </trkpt>
      <trkpt lat="39.6812610" lon="-6.8907140">
        <ele>269.8</ele>
        <time>2019-07-10T09:52:30Z</time>
      </trkpt>
      <trkpt lat="39.6812200" lon="-6.8907460">
        <ele>270.6</ele>
        <time>2019-07-10T09:52:32Z</time>
      </trkpt>
      <trkpt lat="39.6811610" lon="-6.8907990">
        <ele>272.0</ele>
        <time>2019-07-10T09:52:35Z</time>
      </trkpt>
      <trkpt lat="39.6810990" lon="-6.8908520">
        <ele>273.4</ele>
        <time>2019-07-10T09:52:38Z</time>
      </trkpt>
      <trkpt lat="39.6810220" lon="-6.8909280">
        <ele>274.4</ele>
        <time>2019-07-10T09:52:42Z</time>
      </trkpt>
      <trkpt lat="39.6809430" lon="-6.8910030">
        <ele>275.6</ele>
        <time>2019-07-10T09:52:46Z</time>
      </trkpt>
      <trkpt lat="39.6808920" lon="-6.8910320">
        <ele>276.2</ele>
        <time>2019-07-10T09:52:48Z</time>
      </trkpt>
      <trkpt lat="39.6808380" lon="-6.8910580">
        <ele>277.2</ele>
        <time>2019-07-10T09:52:50Z</time>
      </trkpt>
      <trkpt lat="39.6806590" lon="-6.8911250">
        <ele>277.4</ele>
        <time>2019-07-10T09:52:55Z</time>
      </trkpt>
      <trkpt lat="39.6806210" lon="-6.8911450">
        <ele>277.4</ele>
        <time>2019-07-10T09:52:56Z</time>
      </trkpt>
      <trkpt lat="39.6804800" lon="-6.8912300">
        <ele>278.0</ele>
        <time>2019-07-10T09:53:00Z</time>
      </trkpt>
      <trkpt lat="39.6804400" lon="-6.8912500">
        <ele>277.8</ele>
        <time>2019-07-10T09:53:01Z</time>
      </trkpt>
      <trkpt lat="39.6803550" lon="-6.8912910">
        <ele>277.4</ele>
        <time>2019-07-10T09:53:03Z</time>
      </trkpt>
      <trkpt lat="39.6802580" lon="-6.8913390">
        <ele>276.8</ele>
        <time>2019-07-10T09:53:05Z</time>
      </trkpt>
      <trkpt lat="39.6800850" lon="-6.8914270">
        <ele>276.0</ele>
        <time>2019-07-10T09:53:08Z</time>
      </trkpt>
      <trkpt lat="39.6799570" lon="-6.8914970">
        <ele>275.4</ele>
        <time>2019-07-10T09:53:10Z</time>
      </trkpt>
      <trkpt lat="39.6798920" lon="-6.8915280">
        <ele>274.8</ele>
        <time>2019-07-10T09:53:11Z</time>
      </trkpt>
      <trkpt lat="39.6798330" lon="-6.8915630">
        <ele>274.6</ele>
        <time>2019-07-10T09:53:12Z</time>
      </trkpt>
      <trkpt lat="39.6797330" lon="-6.8916360">
        <ele>274.4</ele>
        <time>2019-07-10T09:53:14Z</time>
      </trkpt>
      <trkpt lat="39.6796900" lon="-6.8916640">
        <ele>274.2</ele>
        <time>2019-07-10T09:53:15Z</time>
      </trkpt>
      <trkpt lat="39.6795700" lon="-6.8917410">
        <ele>274.8</ele>
        <time>2019-07-10T09:53:18Z</time>
      </trkpt>
      <trkpt lat="39.6794410" lon="-6.8918210">
        <ele>275.0</ele>
        <time>2019-07-10T09:53:21Z</time>
      </trkpt>
      <trkpt lat="39.6793910" lon="-6.8918420">
        <ele>274.8</ele>
        <time>2019-07-10T09:53:22Z</time>
      </trkpt>
      <trkpt lat="39.6792740" lon="-6.8918870">
        <ele>274.4</ele>
        <time>2019-07-10T09:53:24Z</time>
      </trkpt>
      <trkpt lat="39.6792030" lon="-6.8919060">
        <ele>274.0</ele>
        <time>2019-07-10T09:53:25Z</time>
      </trkpt>
      <trkpt lat="39.6791220" lon="-6.8919290">
        <ele>273.4</ele>
        <time>2019-07-10T09:53:26Z</time>
      </trkpt>
      <trkpt lat="39.6788770" lon="-6.8920030">
        <ele>272.0</ele>
        <time>2019-07-10T09:53:29Z</time>
      </trkpt>
      <trkpt lat="39.6788190" lon="-6.8920230">
        <ele>271.8</ele>
        <time>2019-07-10T09:53:30Z</time>
      </trkpt>
      <trkpt lat="39.6787100" lon="-6.8920590">
        <ele>272.4</ele>
        <time>2019-07-10T09:53:33Z</time>
      </trkpt>
      <trkpt lat="39.6786210" lon="-6.8920880">
        <ele>273.4</ele>
        <time>2019-07-10T09:53:36Z</time>
      </trkpt>
      <trkpt lat="39.6785560" lon="-6.8921070">
        <ele>274.2</ele>
        <time>2019-07-10T09:53:38Z</time>
      </trkpt>
      <trkpt lat="39.6785190" lon="-6.8921200">
        <ele>274.4</ele>
        <time>2019-07-10T09:53:39Z</time>
      </trkpt>
      <trkpt lat="39.6784790" lon="-6.8921330">
        <ele>274.8</ele>
        <time>2019-07-10T09:53:40Z</time>
      </trkpt>
      <trkpt lat="39.6784360" lon="-6.8921460">
        <ele>275.0</ele>
        <time>2019-07-10T09:53:41Z</time>
      </trkpt>
      <trkpt lat="39.6780690" lon="-6.8922690">
        <ele>274.8</ele>
        <time>2019-07-10T09:53:49Z</time>
      </trkpt>
      <trkpt lat="39.6779580" lon="-6.8922940">
        <ele>275.0</ele>
        <time>2019-07-10T09:53:51Z</time>
      </trkpt>
      <trkpt lat="39.6778330" lon="-6.8923520">
        <ele>274.8</ele>
        <time>2019-07-10T09:53:54Z</time>
      </trkpt>
      <trkpt lat="39.6777490" lon="-6.8924030">
        <ele>275.4</ele>
        <time>2019-07-10T09:53:57Z</time>
      </trkpt>
      <trkpt lat="39.6776600" lon="-6.8924480">
        <ele>276.6</ele>
        <time>2019-07-10T09:54:00Z</time>
      </trkpt>
      <trkpt lat="39.6774130" lon="-6.8925570">
        <ele>276.2</ele>
        <time>2019-07-10T09:54:05Z</time>
      </trkpt>
      <trkpt lat="39.6772760" lon="-6.8926150">
        <ele>275.4</ele>
        <time>2019-07-10T09:54:07Z</time>
      </trkpt>
      <trkpt lat="39.6770780" lon="-6.8926840">
        <ele>274.6</ele>
        <time>2019-07-10T09:54:10Z</time>
      </trkpt>
      <trkpt lat="39.6769600" lon="-6.8927300">
        <ele>274.6</ele>
        <time>2019-07-10T09:54:12Z</time>
      </trkpt>
      <trkpt lat="39.6768630" lon="-6.8927650">
        <ele>274.8</ele>
        <time>2019-07-10T09:54:14Z</time>
      </trkpt>
      <trkpt lat="39.6767050" lon="-6.8928180">
        <ele>276.2</ele>
        <time>2019-07-10T09:54:18Z</time>
      </trkpt>
      <trkpt lat="39.6766720" lon="-6.8928270">
        <ele>276.4</ele>
        <time>2019-07-10T09:54:19Z</time>
      </trkpt>
      <trkpt lat="39.6766390" lon="-6.8928350">
        <ele>276.6</ele>
        <time>2019-07-10T09:54:20Z</time>
      </trkpt>
      <trkpt lat="39.6765390" lon="-6.8928510">
        <ele>277.8</ele>
        <time>2019-07-10T09:54:23Z</time>
      </trkpt>
      <trkpt lat="39.6764240" lon="-6.8928210">
        <ele>278.8</ele>
        <time>2019-07-10T09:54:27Z</time>
      </trkpt>
      <trkpt lat="39.6763040" lon="-6.8927200">
        <ele>279.8</ele>
        <time>2019-07-10T09:54:32Z</time>
      </trkpt>
      <trkpt lat="39.6762310" lon="-6.8926750">
        <ele>280.8</ele>
        <time>2019-07-10T09:54:35Z</time>
      </trkpt>
      <trkpt lat="39.6762060" lon="-6.8926640">
        <ele>281.4</ele>
        <time>2019-07-10T09:54:36Z</time>
      </trkpt>
      <trkpt lat="39.6761370" lon="-6.8926430">
        <ele>282.4</ele>
        <time>2019-07-10T09:54:39Z</time>
      </trkpt>
      <trkpt lat="39.6761150" lon="-6.8926350">
        <ele>282.8</ele>
        <time>2019-07-10T09:54:40Z</time>
      </trkpt>
      <trkpt lat="39.6760480" lon="-6.8925990">
        <ele>284.0</ele>
        <time>2019-07-10T09:54:43Z</time>
      </trkpt>
      <trkpt lat="39.6759480" lon="-6.8925500">
        <ele>285.0</ele>
        <time>2019-07-10T09:54:47Z</time>
      </trkpt>
      <trkpt lat="39.6758620" lon="-6.8925040">
        <ele>286.0</ele>
        <time>2019-07-10T09:54:50Z</time>
      </trkpt>
      <trkpt lat="39.6757960" lon="-6.8924730">
        <ele>286.0</ele>
        <time>2019-07-10T09:54:52Z</time>
      </trkpt>
      <trkpt lat="39.6756320" lon="-6.8923970">
        <ele>286.4</ele>
        <time>2019-07-10T09:54:57Z</time>
      </trkpt>
      <trkpt lat="39.6755410" lon="-6.8923760">
        <ele>287.4</ele>
        <time>2019-07-10T09:55:00Z</time>
      </trkpt>
      <trkpt lat="39.6754080" lon="-6.8923630">
        <ele>288.2</ele>
        <time>2019-07-10T09:55:04Z</time>
      </trkpt>
      <trkpt lat="39.6752980" lon="-6.8923560">
        <ele>288.6</ele>
        <time>2019-07-10T09:55:07Z</time>
      </trkpt>
      <trkpt lat="39.6751420" lon="-6.8923490">
        <ele>289.2</ele>
        <time>2019-07-10T09:55:11Z</time>
      </trkpt>
      <trkpt lat="39.6751010" lon="-6.8923540">
        <ele>289.2</ele>
        <time>2019-07-10T09:55:12Z</time>
      </trkpt>
      <trkpt lat="39.6749770" lon="-6.8923950">
        <ele>289.2</ele>
        <time>2019-07-10T09:55:15Z</time>
      </trkpt>
      <trkpt lat="39.6748600" lon="-6.8924400">
        <ele>289.6</ele>
        <time>2019-07-10T09:55:18Z</time>
      </trkpt>
      <trkpt lat="39.6746820" lon="-6.8925050">
        <ele>290.8</ele>
        <time>2019-07-10T09:55:23Z</time>
      </trkpt>
      <trkpt lat="39.6745660" lon="-6.8925410">
        <ele>291.2</ele>
        <time>2019-07-10T09:55:26Z</time>
      </trkpt>
      <trkpt lat="39.6744480" lon="-6.8925830">
        <ele>291.8</ele>
        <time>2019-07-10T09:55:29Z</time>
      </trkpt>
      <trkpt lat="39.6743350" lon="-6.8926440">
        <ele>293.0</ele>
        <time>2019-07-10T09:55:32Z</time>
      </trkpt>
      <trkpt lat="39.6742640" lon="-6.8926890">
        <ele>293.4</ele>
        <time>2019-07-10T09:55:34Z</time>
      </trkpt>
      <trkpt lat="39.6741300" lon="-6.8927870">
        <ele>294.0</ele>
        <time>2019-07-10T09:55:38Z</time>
      </trkpt>
      <trkpt lat="39.6740300" lon="-6.8928570">
        <ele>295.4</ele>
        <time>2019-07-10T09:55:41Z</time>
      </trkpt>
      <trkpt lat="39.6739980" lon="-6.8928800">
        <ele>295.6</ele>
        <time>2019-07-10T09:55:42Z</time>
      </trkpt>
      <trkpt lat="39.6738930" lon="-6.8929940">
        <ele>296.8</ele>
        <time>2019-07-10T09:55:46Z</time>
      </trkpt>
      <trkpt lat="39.6737220" lon="-6.8934060">
        <ele>296.2</ele>
        <time>2019-07-10T09:55:53Z</time>
      </trkpt>
      <trkpt lat="39.6736510" lon="-6.8935930">
        <ele>296.2</ele>
        <time>2019-07-10T09:55:56Z</time>
      </trkpt>
      <trkpt lat="39.6735620" lon="-6.8937630">
        <ele>296.2</ele>
        <time>2019-07-10T09:55:59Z</time>
      </trkpt>
      <trkpt lat="39.6735270" lon="-6.8938130">
        <ele>296.0</ele>
        <time>2019-07-10T09:56:00Z</time>
      </trkpt>
      <trkpt lat="39.6734510" lon="-6.8939000">
        <ele>295.2</ele>
        <time>2019-07-10T09:56:02Z</time>
      </trkpt>
      <trkpt lat="39.6734080" lon="-6.8939400">
        <ele>294.6</ele>
        <time>2019-07-10T09:56:03Z</time>
      </trkpt>
      <trkpt lat="39.6733600" lon="-6.8939780">
        <ele>294.2</ele>
        <time>2019-07-10T09:56:04Z</time>
      </trkpt>
      <trkpt lat="39.6733080" lon="-6.8940080">
        <ele>293.6</ele>
        <time>2019-07-10T09:56:05Z</time>
      </trkpt>
      <trkpt lat="39.6732500" lon="-6.8940290">
        <ele>293.2</ele>
        <time>2019-07-10T09:56:06Z</time>
      </trkpt>
      <trkpt lat="39.6731880" lon="-6.8940390">
        <ele>292.8</ele>
        <time>2019-07-10T09:56:07Z</time>
      </trkpt>
      <trkpt lat="39.6730600" lon="-6.8940420">
        <ele>292.2</ele>
        <time>2019-07-10T09:56:09Z</time>
      </trkpt>
      <trkpt lat="39.6729990" lon="-6.8940430">
        <ele>291.8</ele>
        <time>2019-07-10T09:56:10Z</time>
      </trkpt>
      <trkpt lat="39.6729440" lon="-6.8940500">
        <ele>291.2</ele>
        <time>2019-07-10T09:56:11Z</time>
      </trkpt>
      <trkpt lat="39.6728940" lon="-6.8940650">
        <ele>290.6</ele>
        <time>2019-07-10T09:56:12Z</time>
      </trkpt>
      <trkpt lat="39.6728470" lon="-6.8940840">
        <ele>290.2</ele>
        <time>2019-07-10T09:56:13Z</time>
      </trkpt>
      <trkpt lat="39.6727520" lon="-6.8941380">
        <ele>290.0</ele>
        <time>2019-07-10T09:56:15Z</time>
      </trkpt>
      <trkpt lat="39.6725020" lon="-6.8942910">
        <ele>290.2</ele>
        <time>2019-07-10T09:56:20Z</time>
      </trkpt>
      <trkpt lat="39.6723390" lon="-6.8944010">
        <ele>289.4</ele>
        <time>2019-07-10T09:56:23Z</time>
      </trkpt>
      <trkpt lat="39.6722420" lon="-6.8944690">
        <ele>288.8</ele>
        <time>2019-07-10T09:56:25Z</time>
      </trkpt>
      <trkpt lat="39.6721470" lon="-6.8945380">
        <ele>288.2</ele>
        <time>2019-07-10T09:56:27Z</time>
      </trkpt>
      <trkpt lat="39.6720460" lon="-6.8946090">
        <ele>287.8</ele>
        <time>2019-07-10T09:56:29Z</time>
      </trkpt>
      <trkpt lat="39.6718830" lon="-6.8947560">
        <ele>286.8</ele>
        <time>2019-07-10T09:56:32Z</time>
      </trkpt>
      <trkpt lat="39.6717070" lon="-6.8949270">
        <ele>285.6</ele>
        <time>2019-07-10T09:56:35Z</time>
      </trkpt>
      <trkpt lat="39.6715830" lon="-6.8950470">
        <ele>284.6</ele>
        <time>2019-07-10T09:56:37Z</time>
      </trkpt>
      <trkpt lat="39.6714670" lon="-6.8951600">
        <ele>284.0</ele>
        <time>2019-07-10T09:56:39Z</time>
      </trkpt>
      <trkpt lat="39.6712970" lon="-6.8953070">
        <ele>283.2</ele>
        <time>2019-07-10T09:56:42Z</time>
      </trkpt>
      <trkpt lat="39.6711810" lon="-6.8953990">
        <ele>282.2</ele>
        <time>2019-07-10T09:56:44Z</time>
      </trkpt>
      <trkpt lat="39.6711220" lon="-6.8954510">
        <ele>281.8</ele>
        <time>2019-07-10T09:56:45Z</time>
      </trkpt>
      <trkpt lat="39.6710670" lon="-6.8955070">
        <ele>281.0</ele>
        <time>2019-07-10T09:56:46Z</time>
      </trkpt>
      <trkpt lat="39.6709600" lon="-6.8956200">
        <ele>279.6</ele>
        <time>2019-07-10T09:56:48Z</time>
      </trkpt>
      <trkpt lat="39.6708610" lon="-6.8957270">
        <ele>278.8</ele>
        <time>2019-07-10T09:56:50Z</time>
      </trkpt>
      <trkpt lat="39.6708170" lon="-6.8957840">
        <ele>278.4</ele>
        <time>2019-07-10T09:56:51Z</time>
      </trkpt>
      <trkpt lat="39.6707470" lon="-6.8959150">
        <ele>277.4</ele>
        <time>2019-07-10T09:56:53Z</time>
      </trkpt>
      <trkpt lat="39.6707200" lon="-6.8959870">
        <ele>276.8</ele>
        <time>2019-07-10T09:56:54Z</time>
      </trkpt>
      <trkpt lat="39.6706690" lon="-6.8961230">
        <ele>276.2</ele>
        <time>2019-07-10T09:56:56Z</time>
      </trkpt>
      <trkpt lat="39.6706070" lon="-6.8962810">
        <ele>275.6</ele>
        <time>2019-07-10T09:56:59Z</time>
      </trkpt>
      <trkpt lat="39.6705850" lon="-6.8963280">
        <ele>275.8</ele>
        <time>2019-07-10T09:57:00Z</time>
      </trkpt>
      <trkpt lat="39.6705410" lon="-6.8964210">
        <ele>276.6</ele>
        <time>2019-07-10T09:57:02Z</time>
      </trkpt>
      <trkpt lat="39.6704970" lon="-6.8965140">
        <ele>277.4</ele>
        <time>2019-07-10T09:57:04Z</time>
      </trkpt>
      <trkpt lat="39.6704540" lon="-6.8966130">
        <ele>278.0</ele>
        <time>2019-07-10T09:57:06Z</time>
      </trkpt>
      <trkpt lat="39.6704310" lon="-6.8966700">
        <ele>278.0</ele>
        <time>2019-07-10T09:57:07Z</time>
      </trkpt>
      <trkpt lat="39.6704050" lon="-6.8967300">
        <ele>277.8</ele>
        <time>2019-07-10T09:57:08Z</time>
      </trkpt>
      <trkpt lat="39.6703070" lon="-6.8968990">
        <ele>277.2</ele>
        <time>2019-07-10T09:57:11Z</time>
      </trkpt>
      <trkpt lat="39.6702130" lon="-6.8970610">
        <ele>277.8</ele>
        <time>2019-07-10T09:57:15Z</time>
      </trkpt>
      <trkpt lat="39.6701200" lon="-6.8972330">
        <ele>278.2</ele>
        <time>2019-07-10T09:57:19Z</time>
      </trkpt>
      <trkpt lat="39.6700650" lon="-6.8973170">
        <ele>278.2</ele>
        <time>2019-07-10T09:57:21Z</time>
      </trkpt>
      <trkpt lat="39.6700180" lon="-6.8974050">
        <ele>278.4</ele>
        <time>2019-07-10T09:57:23Z</time>
      </trkpt>
      <trkpt lat="39.6699920" lon="-6.8974480">
        <ele>278.6</ele>
        <time>2019-07-10T09:57:24Z</time>
      </trkpt>
      <trkpt lat="39.6698890" lon="-6.8975900">
        <ele>278.2</ele>
        <time>2019-07-10T09:57:27Z</time>
      </trkpt>
      <trkpt lat="39.6698090" lon="-6.8977020">
        <ele>277.8</ele>
        <time>2019-07-10T09:57:29Z</time>
      </trkpt>
      <trkpt lat="39.6697740" lon="-6.8977510">
        <ele>277.0</ele>
        <time>2019-07-10T09:57:30Z</time>
      </trkpt>
      <trkpt lat="39.6697150" lon="-6.8978410">
        <ele>276.2</ele>
        <time>2019-07-10T09:57:32Z</time>
      </trkpt>
      <trkpt lat="39.6696840" lon="-6.8978870">
        <ele>275.8</ele>
        <time>2019-07-10T09:57:33Z</time>
      </trkpt>
      <trkpt lat="39.6695620" lon="-6.8980570">
        <ele>275.0</ele>
        <time>2019-07-10T09:57:37Z</time>
      </trkpt>
      <trkpt lat="39.6695280" lon="-6.8981010">
        <ele>275.0</ele>
        <time>2019-07-10T09:57:38Z</time>
      </trkpt>
      <trkpt lat="39.6694290" lon="-6.8982240">
        <ele>275.0</ele>
        <time>2019-07-10T09:57:41Z</time>
      </trkpt>
      <trkpt lat="39.6693420" lon="-6.8983450">
        <ele>275.4</ele>
        <time>2019-07-10T09:57:44Z</time>
      </trkpt>
      <trkpt lat="39.6692160" lon="-6.8985160">
        <ele>275.8</ele>
        <time>2019-07-10T09:57:48Z</time>
      </trkpt>
      <trkpt lat="39.6691370" lon="-6.8986100">
        <ele>275.4</ele>
        <time>2019-07-10T09:57:50Z</time>
      </trkpt>
      <trkpt lat="39.6689670" lon="-6.8988330">
        <ele>274.8</ele>
        <time>2019-07-10T09:57:54Z</time>
      </trkpt>
      <trkpt lat="39.6688710" lon="-6.8989670">
        <ele>274.0</ele>
        <time>2019-07-10T09:57:56Z</time>
      </trkpt>
      <trkpt lat="39.6687820" lon="-6.8991140">
        <ele>273.6</ele>
        <time>2019-07-10T09:57:58Z</time>
      </trkpt>
      <trkpt lat="39.6686830" lon="-6.8993130">
        <ele>272.6</ele>
        <time>2019-07-10T09:58:01Z</time>
      </trkpt>
      <trkpt lat="39.6686480" lon="-6.8993680">
        <ele>272.2</ele>
        <time>2019-07-10T09:58:02Z</time>
      </trkpt>
      <trkpt lat="39.6685380" lon="-6.8995040">
        <ele>271.6</ele>
        <time>2019-07-10T09:58:05Z</time>
      </trkpt>
      <trkpt lat="39.6683750" lon="-6.8997150">
        <ele>271.2</ele>
        <time>2019-07-10T09:58:09Z</time>
      </trkpt>
      <trkpt lat="39.6682810" lon="-6.8998410">
        <ele>270.4</ele>
        <time>2019-07-10T09:58:11Z</time>
      </trkpt>
      <trkpt lat="39.6681910" lon="-6.8999660">
        <ele>270.2</ele>
        <time>2019-07-10T09:58:13Z</time>
      </trkpt>
      <trkpt lat="39.6681490" lon="-6.9000220">
        <ele>269.6</ele>
        <time>2019-07-10T09:58:14Z</time>
      </trkpt>
      <trkpt lat="39.6681080" lon="-6.9000730">
        <ele>269.4</ele>
        <time>2019-07-10T09:58:15Z</time>
      </trkpt>
      <trkpt lat="39.6680670" lon="-6.9001230">
        <ele>269.2</ele>
        <time>2019-07-10T09:58:16Z</time>
      </trkpt>
      <trkpt lat="39.6680260" lon="-6.9001720">
        <ele>269.0</ele>
        <time>2019-07-10T09:58:17Z</time>
      </trkpt>
      <trkpt lat="39.6679230" lon="-6.9003140">
        <ele>268.0</ele>
        <time>2019-07-10T09:58:20Z</time>
      </trkpt>
      <trkpt lat="39.6678610" lon="-6.9004080">
        <ele>267.2</ele>
        <time>2019-07-10T09:58:22Z</time>
      </trkpt>
      <trkpt lat="39.6678270" lon="-6.9004650">
        <ele>266.6</ele>
        <time>2019-07-10T09:58:23Z</time>
      </trkpt>
      <trkpt lat="39.6677600" lon="-6.9005830">
        <ele>265.6</ele>
        <time>2019-07-10T09:58:25Z</time>
      </trkpt>
      <trkpt lat="39.6677100" lon="-6.9006840">
        <ele>264.8</ele>
        <time>2019-07-10T09:58:27Z</time>
      </trkpt>
      <trkpt lat="39.6676950" lon="-6.9007360">
        <ele>264.4</ele>
        <time>2019-07-10T09:58:29Z</time>
      </trkpt>
      <trkpt lat="39.6676910" lon="-6.9007540">
        <ele>264.4</ele>
        <time>2019-07-10T09:58:30Z</time>
      </trkpt>
      <trkpt lat="39.6676830" lon="-6.9007650">
        <ele>264.4</ele>
        <time>2019-07-10T09:58:31Z</time>
      </trkpt>
      <trkpt lat="39.6676650" lon="-6.9007830">
        <ele>264.4</ele>
        <time>2019-07-10T09:58:33Z</time>
      </trkpt>
      <trkpt lat="39.6676410" lon="-6.9008220">
        <ele>264.4</ele>
        <time>2019-07-10T09:58:35Z</time>
      </trkpt>
      <trkpt lat="39.6675540" lon="-6.9009310">
        <ele>264.4</ele>
        <time>2019-07-10T09:58:39Z</time>
      </trkpt>
      <trkpt lat="39.6673940" lon="-6.9011390">
        <ele>263.6</ele>
        <time>2019-07-10T09:58:44Z</time>
      </trkpt>
      <trkpt lat="39.6673550" lon="-6.9011820">
        <ele>263.4</ele>
        <time>2019-07-10T09:58:45Z</time>
      </trkpt>
      <trkpt lat="39.6673130" lon="-6.9012210">
        <ele>263.4</ele>
        <time>2019-07-10T09:58:46Z</time>
      </trkpt>
      <trkpt lat="39.6671890" lon="-6.9013670">
        <ele>263.6</ele>
        <time>2019-07-10T09:58:49Z</time>
      </trkpt>
      <trkpt lat="39.6671270" lon="-6.9014760">
        <ele>263.2</ele>
        <time>2019-07-10T09:58:51Z</time>
      </trkpt>
      <trkpt lat="39.6670960" lon="-6.9015230">
        <ele>263.0</ele>
        <time>2019-07-10T09:58:52Z</time>
      </trkpt>
      <trkpt lat="39.6670590" lon="-6.9015630">
        <ele>262.8</ele>
        <time>2019-07-10T09:58:53Z</time>
      </trkpt>
      <trkpt lat="39.6669790" lon="-6.9016410">
        <ele>262.6</ele>
        <time>2019-07-10T09:58:55Z</time>
      </trkpt>
      <trkpt lat="39.6669380" lon="-6.9016820">
        <ele>262.6</ele>
        <time>2019-07-10T09:58:56Z</time>
      </trkpt>
      <trkpt lat="39.6667650" lon="-6.9018350">
        <ele>261.8</ele>
        <time>2019-07-10T09:59:00Z</time>
      </trkpt>
      <trkpt lat="39.6667270" lon="-6.9018670">
        <ele>261.4</ele>
        <time>2019-07-10T09:59:01Z</time>
      </trkpt>
      <trkpt lat="39.6665720" lon="-6.9019840">
        <ele>261.0</ele>
        <time>2019-07-10T09:59:05Z</time>
      </trkpt>
      <trkpt lat="39.6664890" lon="-6.9020450">
        <ele>261.0</ele>
        <time>2019-07-10T09:59:07Z</time>
      </trkpt>
      <trkpt lat="39.6662310" lon="-6.9022270">
        <ele>261.0</ele>
        <time>2019-07-10T09:59:13Z</time>
      </trkpt>
      <trkpt lat="39.6661380" lon="-6.9022950">
        <ele>260.8</ele>
        <time>2019-07-10T09:59:15Z</time>
      </trkpt>
      <trkpt lat="39.6660050" lon="-6.9024010">
        <ele>260.4</ele>
        <time>2019-07-10T09:59:18Z</time>
      </trkpt>
      <trkpt lat="39.6658920" lon="-6.9025130">
        <ele>260.2</ele>
        <time>2019-07-10T09:59:21Z</time>
      </trkpt>
      <trkpt lat="39.6657260" lon="-6.9027070">
        <ele>260.0</ele>
        <time>2019-07-10T09:59:25Z</time>
      </trkpt>
      <trkpt lat="39.6656850" lon="-6.9027640">
        <ele>260.0</ele>
        <time>2019-07-10T09:59:26Z</time>
      </trkpt>
      <trkpt lat="39.6656120" lon="-6.9028670">
        <ele>260.0</ele>
        <time>2019-07-10T09:59:28Z</time>
      </trkpt>
      <trkpt lat="39.6655170" lon="-6.9029760">
        <ele>259.4</ele>
        <time>2019-07-10T09:59:31Z</time>
      </trkpt>
      <trkpt lat="39.6654150" lon="-6.9030510">
        <ele>259.4</ele>
        <time>2019-07-10T09:59:34Z</time>
      </trkpt>
      <trkpt lat="39.6653510" lon="-6.9031130">
        <ele>259.6</ele>
        <time>2019-07-10T09:59:36Z</time>
      </trkpt>
      <trkpt lat="39.6653270" lon="-6.9031410">
        <ele>259.8</ele>
        <time>2019-07-10T09:59:37Z</time>
      </trkpt>
      <trkpt lat="39.6652410" lon="-6.9032290">
        <ele>260.0</ele>
        <time>2019-07-10T09:59:40Z</time>
      </trkpt>
      <trkpt lat="39.6651980" lon="-6.9032570">
        <ele>259.8</ele>
        <time>2019-07-10T09:59:41Z</time>
      </trkpt>
      <trkpt lat="39.6651120" lon="-6.9033220">
        <ele>259.8</ele>
        <time>2019-07-10T09:59:43Z</time>
      </trkpt>
      <trkpt lat="39.6649720" lon="-6.9034610">
        <ele>259.2</ele>
        <time>2019-07-10T09:59:46Z</time>
      </trkpt>
      <trkpt lat="39.6648040" lon="-6.9036660">
        <ele>258.4</ele>
        <time>2019-07-10T09:59:50Z</time>
      </trkpt>
      <trkpt lat="39.6647720" lon="-6.9037090">
        <ele>258.0</ele>
        <time>2019-07-10T09:59:51Z</time>
      </trkpt>
      <trkpt lat="39.6647130" lon="-6.9037840">
        <ele>257.4</ele>
        <time>2019-07-10T09:59:53Z</time>
      </trkpt>
      <trkpt lat="39.6646030" lon="-6.9039230">
        <ele>256.6</ele>
        <time>2019-07-10T09:59:57Z</time>
      </trkpt>
      <trkpt lat="39.6645480" lon="-6.9039620">
        <ele>256.0</ele>
        <time>2019-07-10T09:59:59Z</time>
      </trkpt>
      <trkpt lat="39.6644690" lon="-6.9040180">
        <ele>255.0</ele>
        <time>2019-07-10T10:00:02Z</time>
      </trkpt>
      <trkpt lat="39.6644430" lon="-6.9040430">
        <ele>254.8</ele>
        <time>2019-07-10T10:00:03Z</time>
      </trkpt>
      <trkpt lat="39.6643900" lon="-6.9041060">
        <ele>254.8</ele>
        <time>2019-07-10T10:00:05Z</time>
      </trkpt>
      <trkpt lat="39.6643120" lon="-6.9042140">
        <ele>254.6</ele>
        <time>2019-07-10T10:00:08Z</time>
      </trkpt>
      <trkpt lat="39.6642580" lon="-6.9042830">
        <ele>254.6</ele>
        <time>2019-07-10T10:00:10Z</time>
      </trkpt>
      <trkpt lat="39.6641410" lon="-6.9044220">
        <ele>253.8</ele>
        <time>2019-07-10T10:00:14Z</time>
      </trkpt>
      <trkpt lat="39.6640790" lon="-6.9045040">
        <ele>253.8</ele>
        <time>2019-07-10T10:00:16Z</time>
      </trkpt>
      <trkpt lat="39.6640220" lon="-6.9045860">
        <ele>253.8</ele>
        <time>2019-07-10T10:00:18Z</time>
      </trkpt>
      <trkpt lat="39.6639650" lon="-6.9046920">
        <ele>253.6</ele>
        <time>2019-07-10T10:00:21Z</time>
      </trkpt>
      <trkpt lat="39.6638790" lon="-6.9048250">
        <ele>253.0</ele>
        <time>2019-07-10T10:00:26Z</time>
      </trkpt>
      <trkpt lat="39.6638450" lon="-6.9048860">
        <ele>253.2</ele>
        <time>2019-07-10T10:00:28Z</time>
      </trkpt>
      <trkpt lat="39.6638070" lon="-6.9049520">
        <ele>253.6</ele>
        <time>2019-07-10T10:00:30Z</time>
      </trkpt>
      <trkpt lat="39.6637380" lon="-6.9050730">
        <ele>253.2</ele>
        <time>2019-07-10T10:00:34Z</time>
      </trkpt>
      <trkpt lat="39.6637290" lon="-6.9050850">
        <ele>252.8</ele>
        <time>2019-07-10T10:00:35Z</time>
      </trkpt>
      <trkpt lat="39.6636990" lon="-6.9051310">
        <ele>252.2</ele>
        <time>2019-07-10T10:00:39Z</time>
      </trkpt>
      <trkpt lat="39.6636690" lon="-6.9052110">
        <ele>252.0</ele>
        <time>2019-07-10T10:00:42Z</time>
      </trkpt>
      <trkpt lat="39.6636390" lon="-6.9052960">
        <ele>251.8</ele>
        <time>2019-07-10T10:00:45Z</time>
      </trkpt>
      <trkpt lat="39.6635940" lon="-6.9054000">
        <ele>252.2</ele>
        <time>2019-07-10T10:00:48Z</time>
      </trkpt>
      <trkpt lat="39.6635630" lon="-6.9054690">
        <ele>252.6</ele>
        <time>2019-07-10T10:00:50Z</time>
      </trkpt>
      <trkpt lat="39.6635210" lon="-6.9055780">
        <ele>253.2</ele>
        <time>2019-07-10T10:00:53Z</time>
      </trkpt>
      <trkpt lat="39.6634930" lon="-6.9056410">
        <ele>253.8</ele>
        <time>2019-07-10T10:00:55Z</time>
      </trkpt>
      <trkpt lat="39.6634170" lon="-6.9057370">
        <ele>255.2</ele>
        <time>2019-07-10T10:00:59Z</time>
      </trkpt>
      <trkpt lat="39.6633590" lon="-6.9057690">
        <ele>256.4</ele>
        <time>2019-07-10T10:01:02Z</time>
      </trkpt>
      <trkpt lat="39.6633020" lon="-6.9057990">
        <ele>257.6</ele>
        <time>2019-07-10T10:01:05Z</time>
      </trkpt>
      <trkpt lat="39.6632300" lon="-6.9058210">
        <ele>258.2</ele>
        <time>2019-07-10T10:01:09Z</time>
      </trkpt>
      <trkpt lat="39.6632210" lon="-6.9058170">
        <ele>258.0</ele>
        <time>2019-07-10T10:01:10Z</time>
      </trkpt>
      <trkpt lat="39.6632210" lon="-6.9058160">
        <ele>257.8</ele>
        <time>2019-07-10T10:01:11Z</time>
      </trkpt>
      <trkpt lat="39.6631920" lon="-6.9058760">
        <ele>257.2</ele>
        <time>2019-07-10T10:01:42Z</time>
      </trkpt>
      <trkpt lat="39.6631730" lon="-6.9059220">
        <ele>257.4</ele>
        <time>2019-07-10T10:01:44Z</time>
      </trkpt>
      <trkpt lat="39.6631380" lon="-6.9060210">
        <ele>257.0</ele>
        <time>2019-07-10T10:01:47Z</time>
      </trkpt>
      <trkpt lat="39.6630840" lon="-6.9061200">
        <ele>257.2</ele>
        <time>2019-07-10T10:01:50Z</time>
      </trkpt>
      <trkpt lat="39.6630410" lon="-6.9061740">
        <ele>257.4</ele>
        <time>2019-07-10T10:01:52Z</time>
      </trkpt>
      <trkpt lat="39.6629200" lon="-6.9063090">
        <ele>257.4</ele>
        <time>2019-07-10T10:01:57Z</time>
      </trkpt>
      <trkpt lat="39.6628360" lon="-6.9064490">
        <ele>258.8</ele>
        <time>2019-07-10T10:02:02Z</time>
      </trkpt>
      <trkpt lat="39.6628170" lon="-6.9064950">
        <ele>259.0</ele>
        <time>2019-07-10T10:02:04Z</time>
      </trkpt>
      <trkpt lat="39.6627810" lon="-6.9065360">
        <ele>259.6</ele>
        <time>2019-07-10T10:02:06Z</time>
      </trkpt>
      <trkpt lat="39.6627190" lon="-6.9065930">
        <ele>260.2</ele>
        <time>2019-07-10T10:02:09Z</time>
      </trkpt>
      <trkpt lat="39.6626800" lon="-6.9066350">
        <ele>261.2</ele>
        <time>2019-07-10T10:02:11Z</time>
      </trkpt>
      <trkpt lat="39.6626610" lon="-6.9066590">
        <ele>261.6</ele>
        <time>2019-07-10T10:02:12Z</time>
      </trkpt>
      <trkpt lat="39.6626200" lon="-6.9067080">
        <ele>262.0</ele>
        <time>2019-07-10T10:02:14Z</time>
      </trkpt>
      <trkpt lat="39.6625620" lon="-6.9067960">
        <ele>262.6</ele>
        <time>2019-07-10T10:02:17Z</time>
      </trkpt>
      <trkpt lat="39.6624920" lon="-6.9068950">
        <ele>263.2</ele>
        <time>2019-07-10T10:02:20Z</time>
      </trkpt>
      <trkpt lat="39.6623190" lon="-6.9071380">
        <ele>263.6</ele>
        <time>2019-07-10T10:02:28Z</time>
      </trkpt>
      <trkpt lat="39.6621730" lon="-6.9072580">
        <ele>264.0</ele>
        <time>2019-07-10T10:02:33Z</time>
      </trkpt>
      <trkpt lat="39.6620220" lon="-6.9073680">
        <ele>264.8</ele>
        <time>2019-07-10T10:02:39Z</time>
      </trkpt>
      <trkpt lat="39.6618770" lon="-6.9075200">
        <ele>265.8</ele>
        <time>2019-07-10T10:02:46Z</time>
      </trkpt>
      <trkpt lat="39.6618560" lon="-6.9075400">
        <ele>266.2</ele>
        <time>2019-07-10T10:02:47Z</time>
      </trkpt>
      <trkpt lat="39.6618130" lon="-6.9075800">
        <ele>267.0</ele>
        <time>2019-07-10T10:02:49Z</time>
      </trkpt>
      <trkpt lat="39.6617490" lon="-6.9076360">
        <ele>268.2</ele>
        <time>2019-07-10T10:02:52Z</time>
      </trkpt>
      <trkpt lat="39.6616900" lon="-6.9076950">
        <ele>269.2</ele>
        <time>2019-07-10T10:02:55Z</time>
      </trkpt>
      <trkpt lat="39.6616730" lon="-6.9077150">
        <ele>269.4</ele>
        <time>2019-07-10T10:02:56Z</time>
      </trkpt>
      <trkpt lat="39.6616200" lon="-6.9077740">
        <ele>270.4</ele>
        <time>2019-07-10T10:02:59Z</time>
      </trkpt>
      <trkpt lat="39.6616040" lon="-6.9077920">
        <ele>270.8</ele>
        <time>2019-07-10T10:03:00Z</time>
      </trkpt>
      <trkpt lat="39.6615570" lon="-6.9078430">
        <ele>272.2</ele>
        <time>2019-07-10T10:03:03Z</time>
      </trkpt>
      <trkpt lat="39.6615060" lon="-6.9078860">
        <ele>273.4</ele>
        <time>2019-07-10T10:03:06Z</time>
      </trkpt>
      <trkpt lat="39.6614550" lon="-6.9079280">
        <ele>274.4</ele>
        <time>2019-07-10T10:03:09Z</time>
      </trkpt>
      <trkpt lat="39.6613000" lon="-6.9080840">
        <ele>274.8</ele>
        <time>2019-07-10T10:03:15Z</time>
      </trkpt>
      <trkpt lat="39.6612040" lon="-6.9082540">
        <ele>273.8</ele>
        <time>2019-07-10T10:03:19Z</time>
      </trkpt>
      <trkpt lat="39.6610490" lon="-6.9083920">
        <ele>275.2</ele>
        <time>2019-07-10T10:03:26Z</time>
      </trkpt>
      <trkpt lat="39.6610280" lon="-6.9084150">
        <ele>275.4</ele>
        <time>2019-07-10T10:03:27Z</time>
      </trkpt>
      <trkpt lat="39.6609680" lon="-6.9085410">
        <ele>276.4</ele>
        <time>2019-07-10T10:03:31Z</time>
      </trkpt>
      <trkpt lat="39.6609530" lon="-6.9085710">
        <ele>276.6</ele>
        <time>2019-07-10T10:03:32Z</time>
      </trkpt>
      <trkpt lat="39.6609050" lon="-6.9086560">
        <ele>277.8</ele>
        <time>2019-07-10T10:03:35Z</time>
      </trkpt>
      <trkpt lat="39.6608450" lon="-6.9087630">
        <ele>279.2</ele>
        <time>2019-07-10T10:03:39Z</time>
      </trkpt>
      <trkpt lat="39.6607910" lon="-6.9088690">
        <ele>280.4</ele>
        <time>2019-07-10T10:03:43Z</time>
      </trkpt>
      <trkpt lat="39.6607640" lon="-6.9089160">
        <ele>281.6</ele>
        <time>2019-07-10T10:03:45Z</time>
      </trkpt>
      <trkpt lat="39.6607520" lon="-6.9089390">
        <ele>281.8</ele>
        <time>2019-07-10T10:03:46Z</time>
      </trkpt>
      <trkpt lat="39.6607260" lon="-6.9089880">
        <ele>282.6</ele>
        <time>2019-07-10T10:03:48Z</time>
      </trkpt>
      <trkpt lat="39.6607000" lon="-6.9090400">
        <ele>283.8</ele>
        <time>2019-07-10T10:03:50Z</time>
      </trkpt>
      <trkpt lat="39.6606580" lon="-6.9091120">
        <ele>284.6</ele>
        <time>2019-07-10T10:03:53Z</time>
      </trkpt>
      <trkpt lat="39.6606440" lon="-6.9091340">
        <ele>284.8</ele>
        <time>2019-07-10T10:03:54Z</time>
      </trkpt>
      <trkpt lat="39.6606030" lon="-6.9092020">
        <ele>285.8</ele>
        <time>2019-07-10T10:03:57Z</time>
      </trkpt>
      <trkpt lat="39.6605370" lon="-6.9093010">
        <ele>286.8</ele>
        <time>2019-07-10T10:04:01Z</time>
      </trkpt>
      <trkpt lat="39.6605180" lon="-6.9093280">
        <ele>286.8</ele>
        <time>2019-07-10T10:04:02Z</time>
      </trkpt>
      <trkpt lat="39.6604090" lon="-6.9094680">
        <ele>288.0</ele>
        <time>2019-07-10T10:04:07Z</time>
      </trkpt>
      <trkpt lat="39.6603400" lon="-6.9095500">
        <ele>288.6</ele>
        <time>2019-07-10T10:04:10Z</time>
      </trkpt>
      <trkpt lat="39.6601990" lon="-6.9097210">
        <ele>288.6</ele>
        <time>2019-07-10T10:04:16Z</time>
      </trkpt>
      <trkpt lat="39.6601500" lon="-6.9097830">
        <ele>288.2</ele>
        <time>2019-07-10T10:04:18Z</time>
      </trkpt>
      <trkpt lat="39.6599940" lon="-6.9099700">
        <ele>288.8</ele>
        <time>2019-07-10T10:04:24Z</time>
      </trkpt>
      <trkpt lat="39.6599660" lon="-6.9100040">
        <ele>288.8</ele>
        <time>2019-07-10T10:04:25Z</time>
      </trkpt>
      <trkpt lat="39.6598630" lon="-6.9101300">
        <ele>289.0</ele>
        <time>2019-07-10T10:04:29Z</time>
      </trkpt>
      <trkpt lat="39.6598230" lon="-6.9101780">
        <ele>289.0</ele>
        <time>2019-07-10T10:04:31Z</time>
      </trkpt>
      <trkpt lat="39.6598030" lon="-6.9102010">
        <ele>289.0</ele>
        <time>2019-07-10T10:04:32Z</time>
      </trkpt>
      <trkpt lat="39.6597360" lon="-6.9102760">
        <ele>289.2</ele>
        <time>2019-07-10T10:04:35Z</time>
      </trkpt>
      <trkpt lat="39.6596520" lon="-6.9103780">
        <ele>290.6</ele>
        <time>2019-07-10T10:04:39Z</time>
      </trkpt>
      <trkpt lat="39.6596090" lon="-6.9104280">
        <ele>291.2</ele>
        <time>2019-07-10T10:04:41Z</time>
      </trkpt>
      <trkpt lat="39.6595680" lon="-6.9104760">
        <ele>292.0</ele>
        <time>2019-07-10T10:04:43Z</time>
      </trkpt>
      <trkpt lat="39.6594760" lon="-6.9105940">
        <ele>293.2</ele>
        <time>2019-07-10T10:04:48Z</time>
      </trkpt>
      <trkpt lat="39.6594430" lon="-6.9106400">
        <ele>293.6</ele>
        <time>2019-07-10T10:04:50Z</time>
      </trkpt>
      <trkpt lat="39.6594050" lon="-6.9106860">
        <ele>294.2</ele>
        <time>2019-07-10T10:04:52Z</time>
      </trkpt>
      <trkpt lat="39.6592950" lon="-6.9108250">
        <ele>295.4</ele>
        <time>2019-07-10T10:04:57Z</time>
      </trkpt>
      <trkpt lat="39.6592730" lon="-6.9108550">
        <ele>295.6</ele>
        <time>2019-07-10T10:04:58Z</time>
      </trkpt>
      <trkpt lat="39.6591290" lon="-6.9110610">
        <ele>296.0</ele>
        <time>2019-07-10T10:05:04Z</time>
      </trkpt>
      <trkpt lat="39.6591050" lon="-6.9111020">
        <ele>296.0</ele>
        <time>2019-07-10T10:05:05Z</time>
      </trkpt>
      <trkpt lat="39.6590300" lon="-6.9112330">
        <ele>295.6</ele>
        <time>2019-07-10T10:05:08Z</time>
      </trkpt>
      <trkpt lat="39.6590020" lon="-6.9112660">
        <ele>295.4</ele>
        <time>2019-07-10T10:05:09Z</time>
      </trkpt>
      <trkpt lat="39.6588620" lon="-6.9114170">
        <ele>295.6</ele>
        <time>2019-07-10T10:05:15Z</time>
      </trkpt>
      <trkpt lat="39.6588260" lon="-6.9114950">
        <ele>296.2</ele>
        <time>2019-07-10T10:05:18Z</time>
      </trkpt>
      <trkpt lat="39.6587660" lon="-6.9115910">
        <ele>296.2</ele>
        <time>2019-07-10T10:05:21Z</time>
      </trkpt>
      <trkpt lat="39.6586240" lon="-6.9118050">
        <ele>295.6</ele>
        <time>2019-07-10T10:05:26Z</time>
      </trkpt>
      <trkpt lat="39.6585910" lon="-6.9118460">
        <ele>295.4</ele>
        <time>2019-07-10T10:05:27Z</time>
      </trkpt>
      <trkpt lat="39.6584760" lon="-6.9119790">
        <ele>294.8</ele>
        <time>2019-07-10T10:05:30Z</time>
      </trkpt>
      <trkpt lat="39.6584320" lon="-6.9120240">
        <ele>294.2</ele>
        <time>2019-07-10T10:05:31Z</time>
      </trkpt>
      <trkpt lat="39.6582940" lon="-6.9121680">
        <ele>293.8</ele>
        <time>2019-07-10T10:05:34Z</time>
      </trkpt>
      <trkpt lat="39.6581370" lon="-6.9123180">
        <ele>293.4</ele>
        <time>2019-07-10T10:05:37Z</time>
      </trkpt>
      <trkpt lat="39.6580830" lon="-6.9123690">
        <ele>293.2</ele>
        <time>2019-07-10T10:05:38Z</time>
      </trkpt>
      <trkpt lat="39.6579300" lon="-6.9125160">
        <ele>292.0</ele>
        <time>2019-07-10T10:05:41Z</time>
      </trkpt>
      <trkpt lat="39.6578480" lon="-6.9126040">
        <ele>291.0</ele>
        <time>2019-07-10T10:05:43Z</time>
      </trkpt>
      <trkpt lat="39.6578130" lon="-6.9126470">
        <ele>290.6</ele>
        <time>2019-07-10T10:05:44Z</time>
      </trkpt>
      <trkpt lat="39.6577430" lon="-6.9127620">
        <ele>289.8</ele>
        <time>2019-07-10T10:05:47Z</time>
      </trkpt>
      <trkpt lat="39.6577280" lon="-6.9127830">
        <ele>289.6</ele>
        <time>2019-07-10T10:05:48Z</time>
      </trkpt>
      <trkpt lat="39.6577190" lon="-6.9127900">
        <ele>289.6</ele>
        <time>2019-07-10T10:05:50Z</time>
      </trkpt>
      <trkpt lat="39.6577190" lon="-6.9127890">
        <ele>289.4</ele>
        <time>2019-07-10T10:05:51Z</time>
      </trkpt>
      <trkpt lat="39.6577000" lon="-6.9128550">
        <ele>289.0</ele>
        <time>2019-07-10T10:07:04Z</time>
      </trkpt>
      <trkpt lat="39.6576930" lon="-6.9128800">
        <ele>289.2</ele>
        <time>2019-07-10T10:07:05Z</time>
      </trkpt>
      <trkpt lat="39.6576830" lon="-6.9129080">
        <ele>289.2</ele>
        <time>2019-07-10T10:07:06Z</time>
      </trkpt>
      <trkpt lat="39.6576020" lon="-6.9131080">
        <ele>289.0</ele>
        <time>2019-07-10T10:07:11Z</time>
      </trkpt>
      <trkpt lat="39.6575640" lon="-6.9131910">
        <ele>288.8</ele>
        <time>2019-07-10T10:07:13Z</time>
      </trkpt>
      <trkpt lat="39.6574320" lon="-6.9134310">
        <ele>288.8</ele>
        <time>2019-07-10T10:07:19Z</time>
      </trkpt>
      <trkpt lat="39.6572270" lon="-6.9137100">
        <ele>289.0</ele>
        <time>2019-07-10T10:07:26Z</time>
      </trkpt>
      <trkpt lat="39.6570840" lon="-6.9138740">
        <ele>289.0</ele>
        <time>2019-07-10T10:07:30Z</time>
      </trkpt>
      <trkpt lat="39.6569120" lon="-6.9140780">
        <ele>289.0</ele>
        <time>2019-07-10T10:07:35Z</time>
      </trkpt>
      <trkpt lat="39.6567670" lon="-6.9142590">
        <ele>288.4</ele>
        <time>2019-07-10T10:07:39Z</time>
      </trkpt>
      <trkpt lat="39.6566460" lon="-6.9143980">
        <ele>288.2</ele>
        <time>2019-07-10T10:07:42Z</time>
      </trkpt>
      <trkpt lat="39.6566030" lon="-6.9144450">
        <ele>288.0</ele>
        <time>2019-07-10T10:07:43Z</time>
      </trkpt>
      <trkpt lat="39.6564410" lon="-6.9146570">
        <ele>287.6</ele>
        <time>2019-07-10T10:07:47Z</time>
      </trkpt>
      <trkpt lat="39.6563630" lon="-6.9147700">
        <ele>287.2</ele>
        <time>2019-07-10T10:07:49Z</time>
      </trkpt>
      <trkpt lat="39.6562600" lon="-6.9149030">
        <ele>286.8</ele>
        <time>2019-07-10T10:07:52Z</time>
      </trkpt>
      <trkpt lat="39.6562280" lon="-6.9149400">
        <ele>286.4</ele>
        <time>2019-07-10T10:07:53Z</time>
      </trkpt>
      <trkpt lat="39.6561950" lon="-6.9149730">
        <ele>286.2</ele>
        <time>2019-07-10T10:07:54Z</time>
      </trkpt>
      <trkpt lat="39.6560400" lon="-6.9151140">
        <ele>285.4</ele>
        <time>2019-07-10T10:07:58Z</time>
      </trkpt>
      <trkpt lat="39.6560080" lon="-6.9151690">
        <ele>285.2</ele>
        <time>2019-07-10T10:07:59Z</time>
      </trkpt>
      <trkpt lat="39.6559500" lon="-6.9152910">
        <ele>284.6</ele>
        <time>2019-07-10T10:08:01Z</time>
      </trkpt>
      <trkpt lat="39.6559160" lon="-6.9153470">
        <ele>284.2</ele>
        <time>2019-07-10T10:08:02Z</time>
      </trkpt>
      <trkpt lat="39.6558480" lon="-6.9154510">
        <ele>283.6</ele>
        <time>2019-07-10T10:08:04Z</time>
      </trkpt>
      <trkpt lat="39.6558150" lon="-6.9154940">
        <ele>283.8</ele>
        <time>2019-07-10T10:08:05Z</time>
      </trkpt>
      <trkpt lat="39.6556880" lon="-6.9156350">
        <ele>283.4</ele>
        <time>2019-07-10T10:08:09Z</time>
      </trkpt>
      <trkpt lat="39.6556590" lon="-6.9156660">
        <ele>283.0</ele>
        <time>2019-07-10T10:08:10Z</time>
      </trkpt>
      <trkpt lat="39.6555960" lon="-6.9157190">
        <ele>282.8</ele>
        <time>2019-07-10T10:08:12Z</time>
      </trkpt>
      <trkpt lat="39.6554980" lon="-6.9157810">
        <ele>283.0</ele>
        <time>2019-07-10T10:08:15Z</time>
      </trkpt>
      <trkpt lat="39.6553650" lon="-6.9158630">
        <ele>283.2</ele>
        <time>2019-07-10T10:08:19Z</time>
      </trkpt>
      <trkpt lat="39.6551840" lon="-6.9159190">
        <ele>283.4</ele>
        <time>2019-07-10T10:08:24Z</time>
      </trkpt>
      <trkpt lat="39.6550410" lon="-6.9159540">
        <ele>284.0</ele>
        <time>2019-07-10T10:08:28Z</time>
      </trkpt>
      <trkpt lat="39.6548280" lon="-6.9159970">
        <ele>284.2</ele>
        <time>2019-07-10T10:08:34Z</time>
      </trkpt>
      <trkpt lat="39.6546470" lon="-6.9160940">
        <ele>285.0</ele>
        <time>2019-07-10T10:08:40Z</time>
      </trkpt>
      <trkpt lat="39.6546230" lon="-6.9161150">
        <ele>285.0</ele>
        <time>2019-07-10T10:08:41Z</time>
      </trkpt>
      <trkpt lat="39.6545060" lon="-6.9162130">
        <ele>286.2</ele>
        <time>2019-07-10T10:08:46Z</time>
      </trkpt>
      <trkpt lat="39.6544870" lon="-6.9162340">
        <ele>286.4</ele>
        <time>2019-07-10T10:08:47Z</time>
      </trkpt>
      <trkpt lat="39.6544230" lon="-6.9163050">
        <ele>287.0</ele>
        <time>2019-07-10T10:08:50Z</time>
      </trkpt>
      <trkpt lat="39.6543820" lon="-6.9163560">
        <ele>287.2</ele>
        <time>2019-07-10T10:08:52Z</time>
      </trkpt>
      <trkpt lat="39.6542980" lon="-6.9164530">
        <ele>288.0</ele>
        <time>2019-07-10T10:08:56Z</time>
      </trkpt>
      <trkpt lat="39.6542500" lon="-6.9164990">
        <ele>288.4</ele>
        <time>2019-07-10T10:08:58Z</time>
      </trkpt>
      <trkpt lat="39.6541030" lon="-6.9166400">
        <ele>289.2</ele>
        <time>2019-07-10T10:09:04Z</time>
      </trkpt>
      <trkpt lat="39.6540780" lon="-6.9166620">
        <ele>289.2</ele>
        <time>2019-07-10T10:09:05Z</time>
      </trkpt>
      <trkpt lat="39.6539740" lon="-6.9167530">
        <ele>289.6</ele>
        <time>2019-07-10T10:09:09Z</time>
      </trkpt>
      <trkpt lat="39.6538390" lon="-6.9168610">
        <ele>290.2</ele>
        <time>2019-07-10T10:09:14Z</time>
      </trkpt>
      <trkpt lat="39.6536590" lon="-6.9170320">
        <ele>290.6</ele>
        <time>2019-07-10T10:09:21Z</time>
      </trkpt>
      <trkpt lat="39.6536120" lon="-6.9170830">
        <ele>291.0</ele>
        <time>2019-07-10T10:09:23Z</time>
      </trkpt>
      <trkpt lat="39.6534830" lon="-6.9172090">
        <ele>291.2</ele>
        <time>2019-07-10T10:09:28Z</time>
      </trkpt>
      <trkpt lat="39.6534030" lon="-6.9172810">
        <ele>291.6</ele>
        <time>2019-07-10T10:09:31Z</time>
      </trkpt>
      <trkpt lat="39.6532960" lon="-6.9173760">
        <ele>291.6</ele>
        <time>2019-07-10T10:09:35Z</time>
      </trkpt>
      <trkpt lat="39.6531750" lon="-6.9174790">
        <ele>292.0</ele>
        <time>2019-07-10T10:09:40Z</time>
      </trkpt>
      <trkpt lat="39.6529960" lon="-6.9176310">
        <ele>292.8</ele>
        <time>2019-07-10T10:09:47Z</time>
      </trkpt>
      <trkpt lat="39.6529460" lon="-6.9176750">
        <ele>293.2</ele>
        <time>2019-07-10T10:09:49Z</time>
      </trkpt>
      <trkpt lat="39.6527450" lon="-6.9178380">
        <ele>293.8</ele>
        <time>2019-07-10T10:09:57Z</time>
      </trkpt>
      <trkpt lat="39.6526390" lon="-6.9179190">
        <ele>293.8</ele>
        <time>2019-07-10T10:10:01Z</time>
      </trkpt>
      <trkpt lat="39.6525500" lon="-6.9180030">
        <ele>294.8</ele>
        <time>2019-07-10T10:10:05Z</time>
      </trkpt>
      <trkpt lat="39.6525070" lon="-6.9180520">
        <ele>295.2</ele>
        <time>2019-07-10T10:10:07Z</time>
      </trkpt>
      <trkpt lat="39.6523780" lon="-6.9182290">
        <ele>296.2</ele>
        <time>2019-07-10T10:10:13Z</time>
      </trkpt>
      <trkpt lat="39.6523390" lon="-6.9182930">
        <ele>296.4</ele>
        <time>2019-07-10T10:10:15Z</time>
      </trkpt>
      <trkpt lat="39.6521710" lon="-6.9185910">
        <ele>296.4</ele>
        <time>2019-07-10T10:10:24Z</time>
      </trkpt>
      <trkpt lat="39.6521270" lon="-6.9187050">
        <ele>297.4</ele>
        <time>2019-07-10T10:10:27Z</time>
      </trkpt>
      <trkpt lat="39.6520840" lon="-6.9188610">
        <ele>298.0</ele>
        <time>2019-07-10T10:10:31Z</time>
      </trkpt>
      <trkpt lat="39.6520430" lon="-6.9190130">
        <ele>298.6</ele>
        <time>2019-07-10T10:10:35Z</time>
      </trkpt>
      <trkpt lat="39.6519520" lon="-6.9193080">
        <ele>299.4</ele>
        <time>2019-07-10T10:10:43Z</time>
      </trkpt>
      <trkpt lat="39.6519240" lon="-6.9193820">
        <ele>299.6</ele>
        <time>2019-07-10T10:10:45Z</time>
      </trkpt>
      <trkpt lat="39.6518450" lon="-6.9196010">
        <ele>300.8</ele>
        <time>2019-07-10T10:10:51Z</time>
      </trkpt>
      <trkpt lat="39.6517190" lon="-6.9199560">
        <ele>301.0</ele>
        <time>2019-07-10T10:10:59Z</time>
      </trkpt>
      <trkpt lat="39.6516680" lon="-6.9201150">
        <ele>300.4</ele>
        <time>2019-07-10T10:11:02Z</time>
      </trkpt>
      <trkpt lat="39.6516490" lon="-6.9201900">
        <ele>300.4</ele>
        <time>2019-07-10T10:11:04Z</time>
      </trkpt>
      <trkpt lat="39.6516260" lon="-6.9202370">
        <ele>299.8</ele>
        <time>2019-07-10T10:11:08Z</time>
      </trkpt>
      <trkpt lat="39.6516250" lon="-6.9202380">
        <ele>299.8</ele>
        <time>2019-07-10T10:11:09Z</time>
      </trkpt>
      <trkpt lat="39.6516210" lon="-6.9202630">
        <ele>299.6</ele>
        <time>2019-07-10T10:11:12Z</time>
      </trkpt>
      <trkpt lat="39.6516210" lon="-6.9202750">
        <ele>299.6</ele>
        <time>2019-07-10T10:11:13Z</time>
      </trkpt>
      <trkpt lat="39.6516190" lon="-6.9202810">
        <ele>299.6</ele>
        <time>2019-07-10T10:11:15Z</time>
      </trkpt>
      <trkpt lat="39.6515990" lon="-6.9203210">
        <ele>299.8</ele>
        <time>2019-07-10T10:11:20Z</time>
      </trkpt>
      <trkpt lat="39.6515930" lon="-6.9203440">
        <ele>299.8</ele>
        <time>2019-07-10T10:11:21Z</time>
      </trkpt>
      <trkpt lat="39.6515490" lon="-6.9205100">
        <ele>300.4</ele>
        <time>2019-07-10T10:11:26Z</time>
      </trkpt>
      <trkpt lat="39.6514860" lon="-6.9207840">
        <ele>300.8</ele>
        <time>2019-07-10T10:11:33Z</time>
      </trkpt>
      <trkpt lat="39.6514670" lon="-6.9208590">
        <ele>300.8</ele>
        <time>2019-07-10T10:11:35Z</time>
      </trkpt>
      <trkpt lat="39.6514030" lon="-6.9211720">
        <ele>301.4</ele>
        <time>2019-07-10T10:11:43Z</time>
      </trkpt>
      <trkpt lat="39.6513080" lon="-6.9214950">
        <ele>301.2</ele>
        <time>2019-07-10T10:11:51Z</time>
      </trkpt>
      <trkpt lat="39.6512180" lon="-6.9217320">
        <ele>301.6</ele>
        <time>2019-07-10T10:11:57Z</time>
      </trkpt>
      <trkpt lat="39.6511700" lon="-6.9218430">
        <ele>301.8</ele>
        <time>2019-07-10T10:12:00Z</time>
      </trkpt>
      <trkpt lat="39.6510350" lon="-6.9221610">
        <ele>301.6</ele>
        <time>2019-07-10T10:12:08Z</time>
      </trkpt>
      <trkpt lat="39.6508670" lon="-6.9225730">
        <ele>301.8</ele>
        <time>2019-07-10T10:12:17Z</time>
      </trkpt>
      <trkpt lat="39.6508480" lon="-6.9226210">
        <ele>302.0</ele>
        <time>2019-07-10T10:12:18Z</time>
      </trkpt>
      <trkpt lat="39.6507240" lon="-6.9229160">
        <ele>301.6</ele>
        <time>2019-07-10T10:12:25Z</time>
      </trkpt>
      <trkpt lat="39.6505820" lon="-6.9232660">
        <ele>302.0</ele>
        <time>2019-07-10T10:12:34Z</time>
      </trkpt>
      <trkpt lat="39.6505080" lon="-6.9233750">
        <ele>302.0</ele>
        <time>2019-07-10T10:12:38Z</time>
      </trkpt>
      <trkpt lat="39.6504510" lon="-6.9235630">
        <ele>301.8</ele>
        <time>2019-07-10T10:12:43Z</time>
      </trkpt>
      <trkpt lat="39.6503550" lon="-6.9237140">
        <ele>301.4</ele>
        <time>2019-07-10T10:12:48Z</time>
      </trkpt>
      <trkpt lat="39.6503360" lon="-6.9237290">
        <ele>301.2</ele>
        <time>2019-07-10T10:12:49Z</time>
      </trkpt>
      <trkpt lat="39.6503300" lon="-6.9237330">
        <ele>301.2</ele>
        <time>2019-07-10T10:12:51Z</time>
      </trkpt>
      <trkpt lat="39.6503070" lon="-6.9237220">
        <ele>301.0</ele>
        <time>2019-07-10T10:13:17Z</time>
      </trkpt>
      <trkpt lat="39.6502940" lon="-6.9237120">
        <ele>301.0</ele>
        <time>2019-07-10T10:13:18Z</time>
      </trkpt>
      <trkpt lat="39.6502550" lon="-6.9236780">
        <ele>301.2</ele>
        <time>2019-07-10T10:13:20Z</time>
      </trkpt>
      <trkpt lat="39.6502110" lon="-6.9236190">
        <ele>301.4</ele>
        <time>2019-07-10T10:13:22Z</time>
      </trkpt>
      <trkpt lat="39.6501220" lon="-6.9234530">
        <ele>302.0</ele>
        <time>2019-07-10T10:13:26Z</time>
      </trkpt>
      <trkpt lat="39.6500780" lon="-6.9233650">
        <ele>302.4</ele>
        <time>2019-07-10T10:13:28Z</time>
      </trkpt>
      <trkpt lat="39.6499150" lon="-6.9230290">
        <ele>303.0</ele>
        <time>2019-07-10T10:13:35Z</time>
      </trkpt>
      <trkpt lat="39.6498900" lon="-6.9229810">
        <ele>303.0</ele>
        <time>2019-07-10T10:13:36Z</time>
      </trkpt>
      <trkpt lat="39.6498670" lon="-6.9229320">
        <ele>303.2</ele>
        <time>2019-07-10T10:13:37Z</time>
      </trkpt>
      <trkpt lat="39.6498030" lon="-6.9227880">
        <ele>303.8</ele>
        <time>2019-07-10T10:13:40Z</time>
      </trkpt>
      <trkpt lat="39.6497180" lon="-6.9226140">
        <ele>304.2</ele>
        <time>2019-07-10T10:13:44Z</time>
      </trkpt>
      <trkpt lat="39.6496980" lon="-6.9225730">
        <ele>304.6</ele>
        <time>2019-07-10T10:13:45Z</time>
      </trkpt>
      <trkpt lat="39.6496230" lon="-6.9224080">
        <ele>305.6</ele>
        <time>2019-07-10T10:13:49Z</time>
      </trkpt>
      <trkpt lat="39.6495800" lon="-6.9223290">
        <ele>306.2</ele>
        <time>2019-07-10T10:13:51Z</time>
      </trkpt>
      <trkpt lat="39.6495350" lon="-6.9222470">
        <ele>306.6</ele>
        <time>2019-07-10T10:13:53Z</time>
      </trkpt>
      <trkpt lat="39.6494010" lon="-6.9220330">
        <ele>307.2</ele>
        <time>2019-07-10T10:13:58Z</time>
      </trkpt>
      <trkpt lat="39.6493720" lon="-6.9219870">
        <ele>307.2</ele>
        <time>2019-07-10T10:13:59Z</time>
      </trkpt>
      <trkpt lat="39.6490840" lon="-6.9215270">
        <ele>307.2</ele>
        <time>2019-07-10T10:14:08Z</time>
      </trkpt>
      <trkpt lat="39.6487520" lon="-6.9209780">
        <ele>306.0</ele>
        <time>2019-07-10T10:14:17Z</time>
      </trkpt>
      <trkpt lat="39.6486120" lon="-6.9207320">
        <ele>306.0</ele>
        <time>2019-07-10T10:14:21Z</time>
      </trkpt>
      <trkpt lat="39.6485470" lon="-6.9206180">
        <ele>306.2</ele>
        <time>2019-07-10T10:14:23Z</time>
      </trkpt>
      <trkpt lat="39.6484830" lon="-6.9205090">
        <ele>306.2</ele>
        <time>2019-07-10T10:14:25Z</time>
      </trkpt>
      <trkpt lat="39.6484530" lon="-6.9204550">
        <ele>306.2</ele>
        <time>2019-07-10T10:14:26Z</time>
      </trkpt>
      <trkpt lat="39.6483090" lon="-6.9202020">
        <ele>306.6</ele>
        <time>2019-07-10T10:14:31Z</time>
      </trkpt>
      <trkpt lat="39.6482340" lon="-6.9200530">
        <ele>307.0</ele>
        <time>2019-07-10T10:14:34Z</time>
      </trkpt>
      <trkpt lat="39.6480940" lon="-6.9197860">
        <ele>307.6</ele>
        <time>2019-07-10T10:14:40Z</time>
      </trkpt>
      <trkpt lat="39.6480730" lon="-6.9197450">
        <ele>308.0</ele>
        <time>2019-07-10T10:14:41Z</time>
      </trkpt>
      <trkpt lat="39.6480290" lon="-6.9196670">
        <ele>308.6</ele>
        <time>2019-07-10T10:14:43Z</time>
      </trkpt>
      <trkpt lat="39.6479270" lon="-6.9194750">
        <ele>309.8</ele>
        <time>2019-07-10T10:14:48Z</time>
      </trkpt>
      <trkpt lat="39.6479050" lon="-6.9194370">
        <ele>310.0</ele>
        <time>2019-07-10T10:14:49Z</time>
      </trkpt>
      <trkpt lat="39.6478430" lon="-6.9193220">
        <ele>310.8</ele>
        <time>2019-07-10T10:14:52Z</time>
      </trkpt>
      <trkpt lat="39.6477260" lon="-6.9191170">
        <ele>311.8</ele>
        <time>2019-07-10T10:14:57Z</time>
      </trkpt>
      <trkpt lat="39.6474840" lon="-6.9187430">
        <ele>311.6</ele>
        <time>2019-07-10T10:15:05Z</time>
      </trkpt>
      <trkpt lat="39.6473680" lon="-6.9185280">
        <ele>311.6</ele>
        <time>2019-07-10T10:15:09Z</time>
      </trkpt>
      <trkpt lat="39.6473120" lon="-6.9184090">
        <ele>311.0</ele>
        <time>2019-07-10T10:15:11Z</time>
      </trkpt>
      <trkpt lat="39.6472530" lon="-6.9182840">
        <ele>310.4</ele>
        <time>2019-07-10T10:15:13Z</time>
      </trkpt>
      <trkpt lat="39.6471930" lon="-6.9181530">
        <ele>309.8</ele>
        <time>2019-07-10T10:15:15Z</time>
      </trkpt>
      <trkpt lat="39.6470400" lon="-6.9178180">
        <ele>309.8</ele>
        <time>2019-07-10T10:15:20Z</time>
      </trkpt>
      <trkpt lat="39.6470090" lon="-6.9177530">
        <ele>309.8</ele>
        <time>2019-07-10T10:15:21Z</time>
      </trkpt>
      <trkpt lat="39.6469480" lon="-6.9176260">
        <ele>309.2</ele>
        <time>2019-07-10T10:15:23Z</time>
      </trkpt>
      <trkpt lat="39.6468600" lon="-6.9174390">
        <ele>308.8</ele>
        <time>2019-07-10T10:15:26Z</time>
      </trkpt>
      <trkpt lat="39.6467730" lon="-6.9172560">
        <ele>308.6</ele>
        <time>2019-07-10T10:15:29Z</time>
      </trkpt>
      <trkpt lat="39.6465780" lon="-6.9169070">
        <ele>309.0</ele>
        <time>2019-07-10T10:15:35Z</time>
      </trkpt>
      <trkpt lat="39.6464320" lon="-6.9166570">
        <ele>308.4</ele>
        <time>2019-07-10T10:15:39Z</time>
      </trkpt>
      <trkpt lat="39.6463550" lon="-6.9165350">
        <ele>307.6</ele>
        <time>2019-07-10T10:15:41Z</time>
      </trkpt>
      <trkpt lat="39.6462350" lon="-6.9163330">
        <ele>306.8</ele>
        <time>2019-07-10T10:15:44Z</time>
      </trkpt>
      <trkpt lat="39.6461930" lon="-6.9162600">
        <ele>306.4</ele>
        <time>2019-07-10T10:15:45Z</time>
      </trkpt>
      <trkpt lat="39.6460190" lon="-6.9159710">
        <ele>305.0</ele>
        <time>2019-07-10T10:15:49Z</time>
      </trkpt>
      <trkpt lat="39.6459380" lon="-6.9158370">
        <ele>304.8</ele>
        <time>2019-07-10T10:15:51Z</time>
      </trkpt>
      <trkpt lat="39.6457400" lon="-6.9155270">
        <ele>304.4</ele>
        <time>2019-07-10T10:15:56Z</time>
      </trkpt>
      <trkpt lat="39.6456690" lon="-6.9154160">
        <ele>304.4</ele>
        <time>2019-07-10T10:15:58Z</time>
      </trkpt>
      <trkpt lat="39.6456410" lon="-6.9153680">
        <ele>304.4</ele>
        <time>2019-07-10T10:15:59Z</time>
      </trkpt>
      <trkpt lat="39.6455800" lon="-6.9152560">
        <ele>305.6</ele>
        <time>2019-07-10T10:16:02Z</time>
      </trkpt>
      <trkpt lat="39.6455390" lon="-6.9151890">
        <ele>306.4</ele>
        <time>2019-07-10T10:16:04Z</time>
      </trkpt>
      <trkpt lat="39.6455020" lon="-6.9151200">
        <ele>306.8</ele>
        <time>2019-07-10T10:16:06Z</time>
      </trkpt>
      <trkpt lat="39.6454660" lon="-6.9150480">
        <ele>307.4</ele>
        <time>2019-07-10T10:16:08Z</time>
      </trkpt>
      <trkpt lat="39.6453880" lon="-6.9149040">
        <ele>308.6</ele>
        <time>2019-07-10T10:16:12Z</time>
      </trkpt>
      <trkpt lat="39.6453510" lon="-6.9148370">
        <ele>309.4</ele>
        <time>2019-07-10T10:16:14Z</time>
      </trkpt>
      <trkpt lat="39.6453150" lon="-6.9147720">
        <ele>309.8</ele>
        <time>2019-07-10T10:16:16Z</time>
      </trkpt>
      <trkpt lat="39.6452290" lon="-6.9146250">
        <ele>310.6</ele>
        <time>2019-07-10T10:16:20Z</time>
      </trkpt>
      <trkpt lat="39.6452040" lon="-6.9145870">
        <ele>310.6</ele>
        <time>2019-07-10T10:16:21Z</time>
      </trkpt>
      <trkpt lat="39.6451220" lon="-6.9144640">
        <ele>310.8</ele>
        <time>2019-07-10T10:16:24Z</time>
      </trkpt>
      <trkpt lat="39.6450930" lon="-6.9144190">
        <ele>310.8</ele>
        <time>2019-07-10T10:16:25Z</time>
      </trkpt>
      <trkpt lat="39.6449980" lon="-6.9142730">
        <ele>310.6</ele>
        <time>2019-07-10T10:16:28Z</time>
      </trkpt>
      <trkpt lat="39.6449610" lon="-6.9142190">
        <ele>310.4</ele>
        <time>2019-07-10T10:16:29Z</time>
      </trkpt>
      <trkpt lat="39.6447500" lon="-6.9138560">
        <ele>308.8</ele>
        <time>2019-07-10T10:16:35Z</time>
      </trkpt>
      <trkpt lat="39.6447180" lon="-6.9137960">
        <ele>308.6</ele>
        <time>2019-07-10T10:16:36Z</time>
      </trkpt>
      <trkpt lat="39.6446890" lon="-6.9137360">
        <ele>308.4</ele>
        <time>2019-07-10T10:16:37Z</time>
      </trkpt>
      <trkpt lat="39.6444590" lon="-6.9132660">
        <ele>308.8</ele>
        <time>2019-07-10T10:16:45Z</time>
      </trkpt>
      <trkpt lat="39.6444310" lon="-6.9132110">
        <ele>308.8</ele>
        <time>2019-07-10T10:16:46Z</time>
      </trkpt>
      <trkpt lat="39.6443460" lon="-6.9130450">
        <ele>309.4</ele>
        <time>2019-07-10T10:16:49Z</time>
      </trkpt>
      <trkpt lat="39.6441940" lon="-6.9127510">
        <ele>309.4</ele>
        <time>2019-07-10T10:16:54Z</time>
      </trkpt>
      <trkpt lat="39.6441600" lon="-6.9126900">
        <ele>309.4</ele>
        <time>2019-07-10T10:16:55Z</time>
      </trkpt>
      <trkpt lat="39.6439970" lon="-6.9123960">
        <ele>309.6</ele>
        <time>2019-07-10T10:17:00Z</time>
      </trkpt>
      <trkpt lat="39.6439370" lon="-6.9122840">
        <ele>309.6</ele>
        <time>2019-07-10T10:17:02Z</time>
      </trkpt>
      <trkpt lat="39.6438030" lon="-6.9120210">
        <ele>309.6</ele>
        <time>2019-07-10T10:17:07Z</time>
      </trkpt>
      <trkpt lat="39.6437770" lon="-6.9119710">
        <ele>309.6</ele>
        <time>2019-07-10T10:17:08Z</time>
      </trkpt>
      <trkpt lat="39.6435900" lon="-6.9115650">
        <ele>309.8</ele>
        <time>2019-07-10T10:17:15Z</time>
      </trkpt>
      <trkpt lat="39.6434850" lon="-6.9112000">
        <ele>309.2</ele>
        <time>2019-07-10T10:17:21Z</time>
      </trkpt>
      <trkpt lat="39.6434180" lon="-6.9108300">
        <ele>310.0</ele>
        <time>2019-07-10T10:17:27Z</time>
      </trkpt>
      <trkpt lat="39.6434080" lon="-6.9107660">
        <ele>310.0</ele>
        <time>2019-07-10T10:17:28Z</time>
      </trkpt>
      <trkpt lat="39.6433540" lon="-6.9104570">
        <ele>310.0</ele>
        <time>2019-07-10T10:17:33Z</time>
      </trkpt>
      <trkpt lat="39.6433190" lon="-6.9102920">
        <ele>310.6</ele>
        <time>2019-07-10T10:17:36Z</time>
      </trkpt>
      <trkpt lat="39.6433080" lon="-6.9102350">
        <ele>310.8</ele>
        <time>2019-07-10T10:17:37Z</time>
      </trkpt>
      <trkpt lat="39.6432750" lon="-6.9100590">
        <ele>311.4</ele>
        <time>2019-07-10T10:17:40Z</time>
      </trkpt>
      <trkpt lat="39.6432220" lon="-6.9098810">
        <ele>311.8</ele>
        <time>2019-07-10T10:17:43Z</time>
      </trkpt>
      <trkpt lat="39.6432010" lon="-6.9098240">
        <ele>311.8</ele>
        <time>2019-07-10T10:17:44Z</time>
      </trkpt>
      <trkpt lat="39.6430250" lon="-6.9093960">
        <ele>312.8</ele>
        <time>2019-07-10T10:17:52Z</time>
      </trkpt>
      <trkpt lat="39.6429800" lon="-6.9092850">
        <ele>313.0</ele>
        <time>2019-07-10T10:17:54Z</time>
      </trkpt>
      <trkpt lat="39.6428680" lon="-6.9090190">
        <ele>313.4</ele>
        <time>2019-07-10T10:17:58Z</time>
      </trkpt>
      <trkpt lat="39.6426670" lon="-6.9086860">
        <ele>311.8</ele>
        <time>2019-07-10T10:18:03Z</time>
      </trkpt>
      <trkpt lat="39.6425090" lon="-6.9085240">
        <ele>310.8</ele>
        <time>2019-07-10T10:18:06Z</time>
      </trkpt>
      <trkpt lat="39.6423630" lon="-6.9083440">
        <ele>310.2</ele>
        <time>2019-07-10T10:18:09Z</time>
      </trkpt>
      <trkpt lat="39.6422850" lon="-6.9082170">
        <ele>310.2</ele>
        <time>2019-07-10T10:18:11Z</time>
      </trkpt>
      <trkpt lat="39.6421970" lon="-6.9080220">
        <ele>310.0</ele>
        <time>2019-07-10T10:18:14Z</time>
      </trkpt>
      <trkpt lat="39.6420590" lon="-6.9076890">
        <ele>311.0</ele>
        <time>2019-07-10T10:18:20Z</time>
      </trkpt>
      <trkpt lat="39.6419980" lon="-6.9075390">
        <ele>312.0</ele>
        <time>2019-07-10T10:18:23Z</time>
      </trkpt>
      <trkpt lat="39.6419060" lon="-6.9073230">
        <ele>313.6</ele>
        <time>2019-07-10T10:18:28Z</time>
      </trkpt>
      <trkpt lat="39.6418330" lon="-6.9071580">
        <ele>314.6</ele>
        <time>2019-07-10T10:18:32Z</time>
      </trkpt>
      <trkpt lat="39.6417390" lon="-6.9070180">
        <ele>315.4</ele>
        <time>2019-07-10T10:18:36Z</time>
      </trkpt>
      <trkpt lat="39.6415440" lon="-6.9068660">
        <ele>315.8</ele>
        <time>2019-07-10T10:18:42Z</time>
      </trkpt>
      <trkpt lat="39.6414440" lon="-6.9067900">
        <ele>316.4</ele>
        <time>2019-07-10T10:18:45Z</time>
      </trkpt>
      <trkpt lat="39.6413100" lon="-6.9066840">
        <ele>316.8</ele>
        <time>2019-07-10T10:18:49Z</time>
      </trkpt>
      <trkpt lat="39.6412760" lon="-6.9066580">
        <ele>317.0</ele>
        <time>2019-07-10T10:18:50Z</time>
      </trkpt>
      <trkpt lat="39.6411750" lon="-6.9065780">
        <ele>317.6</ele>
        <time>2019-07-10T10:18:53Z</time>
      </trkpt>
      <trkpt lat="39.6411060" lon="-6.9065230">
        <ele>318.0</ele>
        <time>2019-07-10T10:18:55Z</time>
      </trkpt>
      <trkpt lat="39.6408180" lon="-6.9062880">
        <ele>318.0</ele>
        <time>2019-07-10T10:19:03Z</time>
      </trkpt>
      <trkpt lat="39.6406750" lon="-6.9062140">
        <ele>318.2</ele>
        <time>2019-07-10T10:19:07Z</time>
      </trkpt>
      <trkpt lat="39.6406470" lon="-6.9062330">
        <ele>318.4</ele>
        <time>2019-07-10T10:19:08Z</time>
      </trkpt>
      <trkpt lat="39.6405310" lon="-6.9064380">
        <ele>319.0</ele>
        <time>2019-07-10T10:19:13Z</time>
      </trkpt>
      <trkpt lat="39.6402880" lon="-6.9068780">
        <ele>320.0</ele>
        <time>2019-07-10T10:19:22Z</time>
      </trkpt>
      <trkpt lat="39.6401350" lon="-6.9071390">
        <ele>320.0</ele>
        <time>2019-07-10T10:19:27Z</time>
      </trkpt>
      <trkpt lat="39.6400120" lon="-6.9073630">
        <ele>320.6</ele>
        <time>2019-07-10T10:19:31Z</time>
      </trkpt>
      <trkpt lat="39.6398460" lon="-6.9076580">
        <ele>320.4</ele>
        <time>2019-07-10T10:19:36Z</time>
      </trkpt>
      <trkpt lat="39.6397020" lon="-6.9079090">
        <ele>320.4</ele>
        <time>2019-07-10T10:19:40Z</time>
      </trkpt>
      <trkpt lat="39.6395900" lon="-6.9081030">
        <ele>320.4</ele>
        <time>2019-07-10T10:19:43Z</time>
      </trkpt>
      <trkpt lat="39.6393520" lon="-6.9085200">
        <ele>320.2</ele>
        <time>2019-07-10T10:19:49Z</time>
      </trkpt>
      <trkpt lat="39.6391840" lon="-6.9088170">
        <ele>320.2</ele>
        <time>2019-07-10T10:19:53Z</time>
      </trkpt>
      <trkpt lat="39.6390610" lon="-6.9090410">
        <ele>320.0</ele>
        <time>2019-07-10T10:19:56Z</time>
      </trkpt>
      <trkpt lat="39.6390190" lon="-6.9091140">
        <ele>319.8</ele>
        <time>2019-07-10T10:19:57Z</time>
      </trkpt>
      <trkpt lat="39.6388970" lon="-6.9093350">
        <ele>319.8</ele>
        <time>2019-07-10T10:20:00Z</time>
      </trkpt>
      <trkpt lat="39.6386870" lon="-6.9097170">
        <ele>319.6</ele>
        <time>2019-07-10T10:20:05Z</time>
      </trkpt>
      <trkpt lat="39.6383280" lon="-6.9103540">
        <ele>319.6</ele>
        <time>2019-07-10T10:20:13Z</time>
      </trkpt>
      <trkpt lat="39.6379990" lon="-6.9109330">
        <ele>319.4</ele>
        <time>2019-07-10T10:20:20Z</time>
      </trkpt>
      <trkpt lat="39.6379060" lon="-6.9111080">
        <ele>319.2</ele>
        <time>2019-07-10T10:20:22Z</time>
      </trkpt>
      <trkpt lat="39.6376540" lon="-6.9115370">
        <ele>319.0</ele>
        <time>2019-07-10T10:20:27Z</time>
      </trkpt>
      <trkpt lat="39.6376070" lon="-6.9116270">
        <ele>318.8</ele>
        <time>2019-07-10T10:20:28Z</time>
      </trkpt>
      <trkpt lat="39.6372590" lon="-6.9122350">
        <ele>318.2</ele>
        <time>2019-07-10T10:20:35Z</time>
      </trkpt>
      <trkpt lat="39.6371590" lon="-6.9124140">
        <ele>318.0</ele>
        <time>2019-07-10T10:20:37Z</time>
      </trkpt>
      <trkpt lat="39.6368050" lon="-6.9130400">
        <ele>317.2</ele>
        <time>2019-07-10T10:20:44Z</time>
      </trkpt>
      <trkpt lat="39.6366510" lon="-6.9133110">
        <ele>317.0</ele>
        <time>2019-07-10T10:20:47Z</time>
      </trkpt>
      <trkpt lat="39.6364490" lon="-6.9136660">
        <ele>316.4</ele>
        <time>2019-07-10T10:20:51Z</time>
      </trkpt>
      <trkpt lat="39.6361970" lon="-6.9140960">
        <ele>315.8</ele>
        <time>2019-07-10T10:20:56Z</time>
      </trkpt>
      <trkpt lat="39.6359600" lon="-6.9145300">
        <ele>315.8</ele>
        <time>2019-07-10T10:21:01Z</time>
      </trkpt>
      <trkpt lat="39.6357140" lon="-6.9149600">
        <ele>315.2</ele>
        <time>2019-07-10T10:21:06Z</time>
      </trkpt>
      <trkpt lat="39.6356160" lon="-6.9151340">
        <ele>314.8</ele>
        <time>2019-07-10T10:21:08Z</time>
      </trkpt>
      <trkpt lat="39.6355130" lon="-6.9152990">
        <ele>314.6</ele>
        <time>2019-07-10T10:21:10Z</time>
      </trkpt>
      <trkpt lat="39.6353240" lon="-6.9156310">
        <ele>314.0</ele>
        <time>2019-07-10T10:21:14Z</time>
      </trkpt>
      <trkpt lat="39.6352770" lon="-6.9157160">
        <ele>313.6</ele>
        <time>2019-07-10T10:21:15Z</time>
      </trkpt>
      <trkpt lat="39.6351350" lon="-6.9159700">
        <ele>313.4</ele>
        <time>2019-07-10T10:21:18Z</time>
      </trkpt>
      <trkpt lat="39.6349410" lon="-6.9163020">
        <ele>313.2</ele>
        <time>2019-07-10T10:21:22Z</time>
      </trkpt>
      <trkpt lat="39.6346350" lon="-6.9168620">
        <ele>313.0</ele>
        <time>2019-07-10T10:21:29Z</time>
      </trkpt>
      <trkpt lat="39.6343520" lon="-6.9173810">
        <ele>313.6</ele>
        <time>2019-07-10T10:21:36Z</time>
      </trkpt>
      <trkpt lat="39.6342770" lon="-6.9175110">
        <ele>313.8</ele>
        <time>2019-07-10T10:21:38Z</time>
      </trkpt>
      <trkpt lat="39.6340520" lon="-6.9178940">
        <ele>314.6</ele>
        <time>2019-07-10T10:21:45Z</time>
      </trkpt>
      <trkpt lat="39.6340230" lon="-6.9179490">
        <ele>314.8</ele>
        <time>2019-07-10T10:21:46Z</time>
      </trkpt>
      <trkpt lat="39.6338450" lon="-6.9182630">
        <ele>315.6</ele>
        <time>2019-07-10T10:21:52Z</time>
      </trkpt>
      <trkpt lat="39.6337850" lon="-6.9183680">
        <ele>315.8</ele>
        <time>2019-07-10T10:21:54Z</time>
      </trkpt>
      <trkpt lat="39.6336380" lon="-6.9186260">
        <ele>316.2</ele>
        <time>2019-07-10T10:21:59Z</time>
      </trkpt>
      <trkpt lat="39.6335190" lon="-6.9188370">
        <ele>316.6</ele>
        <time>2019-07-10T10:22:03Z</time>
      </trkpt>
      <trkpt lat="39.6334850" lon="-6.9188870">
        <ele>316.8</ele>
        <time>2019-07-10T10:22:04Z</time>
      </trkpt>
      <trkpt lat="39.6334200" lon="-6.9189890">
        <ele>317.0</ele>
        <time>2019-07-10T10:22:06Z</time>
      </trkpt>
      <trkpt lat="39.6333010" lon="-6.9192120">
        <ele>317.4</ele>
        <time>2019-07-10T10:22:10Z</time>
      </trkpt>
      <trkpt lat="39.6332410" lon="-6.9193270">
        <ele>317.8</ele>
        <time>2019-07-10T10:22:12Z</time>
      </trkpt>
      <trkpt lat="39.6332100" lon="-6.9193830">
        <ele>318.0</ele>
        <time>2019-07-10T10:22:13Z</time>
      </trkpt>
      <trkpt lat="39.6330210" lon="-6.9197130">
        <ele>319.0</ele>
        <time>2019-07-10T10:22:19Z</time>
      </trkpt>
      <trkpt lat="39.6329280" lon="-6.9198780">
        <ele>319.2</ele>
        <time>2019-07-10T10:22:22Z</time>
      </trkpt>
      <trkpt lat="39.6326850" lon="-6.9203180">
        <ele>320.0</ele>
        <time>2019-07-10T10:22:30Z</time>
      </trkpt>
      <trkpt lat="39.6325580" lon="-6.9205400">
        <ele>320.4</ele>
        <time>2019-07-10T10:22:34Z</time>
      </trkpt>
      <trkpt lat="39.6323680" lon="-6.9208720">
        <ele>321.0</ele>
        <time>2019-07-10T10:22:40Z</time>
      </trkpt>
      <trkpt lat="39.6321770" lon="-6.9212160">
        <ele>321.6</ele>
        <time>2019-07-10T10:22:46Z</time>
      </trkpt>
      <trkpt lat="39.6320790" lon="-6.9213890">
        <ele>321.8</ele>
        <time>2019-07-10T10:22:49Z</time>
      </trkpt>
      <trkpt lat="39.6318870" lon="-6.9217250">
        <ele>322.8</ele>
        <time>2019-07-10T10:22:55Z</time>
      </trkpt>
      <trkpt lat="39.6318270" lon="-6.9218360">
        <ele>323.0</ele>
        <time>2019-07-10T10:22:57Z</time>
      </trkpt>
      <trkpt lat="39.6315720" lon="-6.9222920">
        <ele>323.6</ele>
        <time>2019-07-10T10:23:05Z</time>
      </trkpt>
      <trkpt lat="39.6314000" lon="-6.9225910">
        <ele>323.8</ele>
        <time>2019-07-10T10:23:10Z</time>
      </trkpt>
      <trkpt lat="39.6312970" lon="-6.9227770">
        <ele>324.0</ele>
        <time>2019-07-10T10:23:13Z</time>
      </trkpt>
      <trkpt lat="39.6312610" lon="-6.9228380">
        <ele>324.0</ele>
        <time>2019-07-10T10:23:14Z</time>
      </trkpt>
      <trkpt lat="39.6310800" lon="-6.9231380">
        <ele>324.2</ele>
        <time>2019-07-10T10:23:19Z</time>
      </trkpt>
      <trkpt lat="39.6310070" lon="-6.9232570">
        <ele>324.0</ele>
        <time>2019-07-10T10:23:21Z</time>
      </trkpt>
      <trkpt lat="39.6307070" lon="-6.9237870">
        <ele>323.6</ele>
        <time>2019-07-10T10:23:29Z</time>
      </trkpt>
      <trkpt lat="39.6305850" lon="-6.9240070">
        <ele>323.2</ele>
        <time>2019-07-10T10:23:32Z</time>
      </trkpt>
      <trkpt lat="39.6304560" lon="-6.9242330">
        <ele>323.0</ele>
        <time>2019-07-10T10:23:35Z</time>
      </trkpt>
      <trkpt lat="39.6303720" lon="-6.9243880">
        <ele>322.8</ele>
        <time>2019-07-10T10:23:37Z</time>
      </trkpt>
      <trkpt lat="39.6302870" lon="-6.9245470">
        <ele>322.4</ele>
        <time>2019-07-10T10:23:39Z</time>
      </trkpt>
      <trkpt lat="39.6301080" lon="-6.9248590">
        <ele>322.0</ele>
        <time>2019-07-10T10:23:43Z</time>
      </trkpt>
      <trkpt lat="39.6300180" lon="-6.9250170">
        <ele>321.8</ele>
        <time>2019-07-10T10:23:45Z</time>
      </trkpt>
      <trkpt lat="39.6299250" lon="-6.9251690">
        <ele>321.8</ele>
        <time>2019-07-10T10:23:47Z</time>
      </trkpt>
      <trkpt lat="39.6296980" lon="-6.9255740">
        <ele>321.0</ele>
        <time>2019-07-10T10:23:52Z</time>
      </trkpt>
      <trkpt lat="39.6296000" lon="-6.9257380">
        <ele>321.0</ele>
        <time>2019-07-10T10:23:54Z</time>
      </trkpt>
      <trkpt lat="39.6293670" lon="-6.9261610">
        <ele>320.6</ele>
        <time>2019-07-10T10:23:59Z</time>
      </trkpt>
      <trkpt lat="39.6292220" lon="-6.9264120">
        <ele>320.6</ele>
        <time>2019-07-10T10:24:02Z</time>
      </trkpt>
      <trkpt lat="39.6290340" lon="-6.9267320">
        <ele>320.8</ele>
        <time>2019-07-10T10:24:06Z</time>
      </trkpt>
      <trkpt lat="39.6289040" lon="-6.9269710">
        <ele>321.0</ele>
        <time>2019-07-10T10:24:09Z</time>
      </trkpt>
      <trkpt lat="39.6286930" lon="-6.9273420">
        <ele>321.4</ele>
        <time>2019-07-10T10:24:14Z</time>
      </trkpt>
      <trkpt lat="39.6285750" lon="-6.9275560">
        <ele>321.4</ele>
        <time>2019-07-10T10:24:17Z</time>
      </trkpt>
      <trkpt lat="39.6283340" lon="-6.9279670">
        <ele>322.0</ele>
        <time>2019-07-10T10:24:23Z</time>
      </trkpt>
      <trkpt lat="39.6282490" lon="-6.9280930">
        <ele>322.4</ele>
        <time>2019-07-10T10:24:25Z</time>
      </trkpt>
      <trkpt lat="39.6279570" lon="-6.9286190">
        <ele>323.2</ele>
        <time>2019-07-10T10:24:33Z</time>
      </trkpt>
      <trkpt lat="39.6276830" lon="-6.9291300">
        <ele>324.2</ele>
        <time>2019-07-10T10:24:41Z</time>
      </trkpt>
      <trkpt lat="39.6276490" lon="-6.9291950">
        <ele>324.2</ele>
        <time>2019-07-10T10:24:42Z</time>
      </trkpt>
      <trkpt lat="39.6274270" lon="-6.9295710">
        <ele>325.0</ele>
        <time>2019-07-10T10:24:48Z</time>
      </trkpt>
      <trkpt lat="39.6272230" lon="-6.9299330">
        <ele>325.4</ele>
        <time>2019-07-10T10:24:54Z</time>
      </trkpt>
      <trkpt lat="39.6271890" lon="-6.9299940">
        <ele>325.6</ele>
        <time>2019-07-10T10:24:55Z</time>
      </trkpt>
      <trkpt lat="39.6270150" lon="-6.9303030">
        <ele>326.0</ele>
        <time>2019-07-10T10:25:00Z</time>
      </trkpt>
      <trkpt lat="39.6268430" lon="-6.9306130">
        <ele>326.4</ele>
        <time>2019-07-10T10:25:05Z</time>
      </trkpt>
      <trkpt lat="39.6268090" lon="-6.9306760">
        <ele>326.6</ele>
        <time>2019-07-10T10:25:06Z</time>
      </trkpt>
      <trkpt lat="39.6265410" lon="-6.9311510">
        <ele>327.6</ele>
        <time>2019-07-10T10:25:14Z</time>
      </trkpt>
      <trkpt lat="39.6262550" lon="-6.9316040">
        <ele>328.4</ele>
        <time>2019-07-10T10:25:22Z</time>
      </trkpt>
      <trkpt lat="39.6262160" lon="-6.9316570">
        <ele>328.6</ele>
        <time>2019-07-10T10:25:23Z</time>
      </trkpt>
      <trkpt lat="39.6258520" lon="-6.9321250">
        <ele>329.6</ele>
        <time>2019-07-10T10:25:32Z</time>
      </trkpt>
      <trkpt lat="39.6255890" lon="-6.9324160">
        <ele>330.2</ele>
        <time>2019-07-10T10:25:38Z</time>
      </trkpt>
      <trkpt lat="39.6255000" lon="-6.9325180">
        <ele>330.4</ele>
        <time>2019-07-10T10:25:40Z</time>
      </trkpt>
      <trkpt lat="39.6253250" lon="-6.9327170">
        <ele>330.8</ele>
        <time>2019-07-10T10:25:44Z</time>
      </trkpt>
      <trkpt lat="39.6252010" lon="-6.9328730">
        <ele>331.0</ele>
        <time>2019-07-10T10:25:47Z</time>
      </trkpt>
      <trkpt lat="39.6249030" lon="-6.9332190">
        <ele>331.8</ele>
        <time>2019-07-10T10:25:54Z</time>
      </trkpt>
      <trkpt lat="39.6247650" lon="-6.9333640">
        <ele>332.2</ele>
        <time>2019-07-10T10:25:57Z</time>
      </trkpt>
      <trkpt lat="39.6245400" lon="-6.9336170">
        <ele>332.4</ele>
        <time>2019-07-10T10:26:02Z</time>
      </trkpt>
      <trkpt lat="39.6243200" lon="-6.9338870">
        <ele>332.8</ele>
        <time>2019-07-10T10:26:07Z</time>
      </trkpt>
      <trkpt lat="39.6239420" lon="-6.9343210">
        <ele>333.8</ele>
        <time>2019-07-10T10:26:15Z</time>
      </trkpt>
      <trkpt lat="39.6235080" lon="-6.9348270">
        <ele>334.4</ele>
        <time>2019-07-10T10:26:24Z</time>
      </trkpt>
      <trkpt lat="39.6234590" lon="-6.9348810">
        <ele>334.4</ele>
        <time>2019-07-10T10:26:25Z</time>
      </trkpt>
      <trkpt lat="39.6230240" lon="-6.9353910">
        <ele>334.4</ele>
        <time>2019-07-10T10:26:34Z</time>
      </trkpt>
      <trkpt lat="39.6229750" lon="-6.9354480">
        <ele>334.4</ele>
        <time>2019-07-10T10:26:35Z</time>
      </trkpt>
      <trkpt lat="39.6227290" lon="-6.9357320">
        <ele>334.6</ele>
        <time>2019-07-10T10:26:40Z</time>
      </trkpt>
      <trkpt lat="39.6225220" lon="-6.9359550">
        <ele>334.6</ele>
        <time>2019-07-10T10:26:44Z</time>
      </trkpt>
      <trkpt lat="39.6224220" lon="-6.9360730">
        <ele>334.6</ele>
        <time>2019-07-10T10:26:46Z</time>
      </trkpt>
      <trkpt lat="39.6221700" lon="-6.9363710">
        <ele>334.8</ele>
        <time>2019-07-10T10:26:51Z</time>
      </trkpt>
      <trkpt lat="39.6220120" lon="-6.9365480">
        <ele>334.6</ele>
        <time>2019-07-10T10:26:54Z</time>
      </trkpt>
      <trkpt lat="39.6215850" lon="-6.9370360">
        <ele>335.0</ele>
        <time>2019-07-10T10:27:02Z</time>
      </trkpt>
      <trkpt lat="39.6214790" lon="-6.9371630">
        <ele>335.4</ele>
        <time>2019-07-10T10:27:04Z</time>
      </trkpt>
      <trkpt lat="39.6211030" lon="-6.9376030">
        <ele>335.0</ele>
        <time>2019-07-10T10:27:11Z</time>
      </trkpt>
      <trkpt lat="39.6206710" lon="-6.9381040">
        <ele>334.2</ele>
        <time>2019-07-10T10:27:19Z</time>
      </trkpt>
      <trkpt lat="39.6205090" lon="-6.9382920">
        <ele>334.2</ele>
        <time>2019-07-10T10:27:22Z</time>
      </trkpt>
      <trkpt lat="39.6200720" lon="-6.9388000">
        <ele>333.6</ele>
        <time>2019-07-10T10:27:30Z</time>
      </trkpt>
      <trkpt lat="39.6200180" lon="-6.9388610">
        <ele>333.6</ele>
        <time>2019-07-10T10:27:31Z</time>
      </trkpt>
      <trkpt lat="39.6199640" lon="-6.9389230">
        <ele>333.4</ele>
        <time>2019-07-10T10:27:32Z</time>
      </trkpt>
      <trkpt lat="39.6195310" lon="-6.9394210">
        <ele>332.6</ele>
        <time>2019-07-10T10:27:40Z</time>
      </trkpt>
      <trkpt lat="39.6194780" lon="-6.9394900">
        <ele>332.6</ele>
        <time>2019-07-10T10:27:41Z</time>
      </trkpt>
      <trkpt lat="39.6193680" lon="-6.9396270">
        <ele>332.6</ele>
        <time>2019-07-10T10:27:43Z</time>
      </trkpt>
      <trkpt lat="39.6191390" lon="-6.9398880">
        <ele>332.2</ele>
        <time>2019-07-10T10:27:47Z</time>
      </trkpt>
      <trkpt lat="39.6190850" lon="-6.9399540">
        <ele>332.2</ele>
        <time>2019-07-10T10:27:48Z</time>
      </trkpt>
      <trkpt lat="39.6188070" lon="-6.9402720">
        <ele>331.6</ele>
        <time>2019-07-10T10:27:53Z</time>
      </trkpt>
      <trkpt lat="39.6185940" lon="-6.9405260">
        <ele>331.4</ele>
        <time>2019-07-10T10:27:57Z</time>
      </trkpt>
      <trkpt lat="39.6184830" lon="-6.9406560">
        <ele>331.2</ele>
        <time>2019-07-10T10:27:59Z</time>
      </trkpt>
      <trkpt lat="39.6183700" lon="-6.9407910">
        <ele>331.0</ele>
        <time>2019-07-10T10:28:01Z</time>
      </trkpt>
      <trkpt lat="39.6181370" lon="-6.9410610">
        <ele>330.4</ele>
        <time>2019-07-10T10:28:05Z</time>
      </trkpt>
      <trkpt lat="39.6178420" lon="-6.9414070">
        <ele>330.6</ele>
        <time>2019-07-10T10:28:10Z</time>
      </trkpt>
      <trkpt lat="39.6176090" lon="-6.9416800">
        <ele>330.2</ele>
        <time>2019-07-10T10:28:14Z</time>
      </trkpt>
      <trkpt lat="39.6175490" lon="-6.9417510">
        <ele>330.2</ele>
        <time>2019-07-10T10:28:15Z</time>
      </trkpt>
      <trkpt lat="39.6174270" lon="-6.9418940">
        <ele>330.0</ele>
        <time>2019-07-10T10:28:17Z</time>
      </trkpt>
      <trkpt lat="39.6170580" lon="-6.9423350">
        <ele>329.8</ele>
        <time>2019-07-10T10:28:23Z</time>
      </trkpt>
      <trkpt lat="39.6167330" lon="-6.9428300">
        <ele>329.6</ele>
        <time>2019-07-10T10:28:29Z</time>
      </trkpt>
      <trkpt lat="39.6166860" lon="-6.9429200">
        <ele>329.6</ele>
        <time>2019-07-10T10:28:30Z</time>
      </trkpt>
      <trkpt lat="39.6164130" lon="-6.9435820">
        <ele>329.2</ele>
        <time>2019-07-10T10:28:37Z</time>
      </trkpt>
      <trkpt lat="39.6162810" lon="-6.9439570">
        <ele>329.0</ele>
        <time>2019-07-10T10:28:41Z</time>
      </trkpt>
      <trkpt lat="39.6161490" lon="-6.9443200">
        <ele>329.0</ele>
        <time>2019-07-10T10:28:45Z</time>
      </trkpt>
      <trkpt lat="39.6160900" lon="-6.9445010">
        <ele>329.0</ele>
        <time>2019-07-10T10:28:47Z</time>
      </trkpt>
      <trkpt lat="39.6159980" lon="-6.9447620">
        <ele>329.2</ele>
        <time>2019-07-10T10:28:50Z</time>
      </trkpt>
      <trkpt lat="39.6159420" lon="-6.9449310">
        <ele>329.6</ele>
        <time>2019-07-10T10:28:52Z</time>
      </trkpt>
      <trkpt lat="39.6158310" lon="-6.9452540">
        <ele>330.2</ele>
        <time>2019-07-10T10:28:56Z</time>
      </trkpt>
      <trkpt lat="39.6157260" lon="-6.9455530">
        <ele>330.6</ele>
        <time>2019-07-10T10:29:00Z</time>
      </trkpt>
      <trkpt lat="39.6156320" lon="-6.9458370">
        <ele>331.2</ele>
        <time>2019-07-10T10:29:04Z</time>
      </trkpt>
      <trkpt lat="39.6155350" lon="-6.9461180">
        <ele>331.8</ele>
        <time>2019-07-10T10:29:08Z</time>
      </trkpt>
      <trkpt lat="39.6154630" lon="-6.9463310">
        <ele>332.2</ele>
        <time>2019-07-10T10:29:11Z</time>
      </trkpt>
      <trkpt lat="39.6154390" lon="-6.9464030">
        <ele>332.4</ele>
        <time>2019-07-10T10:29:12Z</time>
      </trkpt>
      <trkpt lat="39.6153660" lon="-6.9466150">
        <ele>332.8</ele>
        <time>2019-07-10T10:29:15Z</time>
      </trkpt>
      <trkpt lat="39.6153420" lon="-6.9466870">
        <ele>333.0</ele>
        <time>2019-07-10T10:29:16Z</time>
      </trkpt>
      <trkpt lat="39.6152680" lon="-6.9469050">
        <ele>333.4</ele>
        <time>2019-07-10T10:29:19Z</time>
      </trkpt>
      <trkpt lat="39.6152430" lon="-6.9469770">
        <ele>333.6</ele>
        <time>2019-07-10T10:29:20Z</time>
      </trkpt>
      <trkpt lat="39.6151350" lon="-6.9472700">
        <ele>334.2</ele>
        <time>2019-07-10T10:29:24Z</time>
      </trkpt>
      <trkpt lat="39.6151100" lon="-6.9473460">
        <ele>334.4</ele>
        <time>2019-07-10T10:29:25Z</time>
      </trkpt>
      <trkpt lat="39.6150600" lon="-6.9475000">
        <ele>334.6</ele>
        <time>2019-07-10T10:29:27Z</time>
      </trkpt>
      <trkpt lat="39.6149000" lon="-6.9479720">
        <ele>334.6</ele>
        <time>2019-07-10T10:29:33Z</time>
      </trkpt>
      <trkpt lat="39.6148170" lon="-6.9482170">
        <ele>334.8</ele>
        <time>2019-07-10T10:29:36Z</time>
      </trkpt>
      <trkpt lat="39.6146970" lon="-6.9485580">
        <ele>334.4</ele>
        <time>2019-07-10T10:29:40Z</time>
      </trkpt>
      <trkpt lat="39.6146370" lon="-6.9487380">
        <ele>334.2</ele>
        <time>2019-07-10T10:29:42Z</time>
      </trkpt>
      <trkpt lat="39.6145400" lon="-6.9490210">
        <ele>333.8</ele>
        <time>2019-07-10T10:29:45Z</time>
      </trkpt>
      <trkpt lat="39.6144720" lon="-6.9492160">
        <ele>333.2</ele>
        <time>2019-07-10T10:29:47Z</time>
      </trkpt>
      <trkpt lat="39.6143700" lon="-6.9495130">
        <ele>332.6</ele>
        <time>2019-07-10T10:29:50Z</time>
      </trkpt>
      <trkpt lat="39.6142680" lon="-6.9498170">
        <ele>332.2</ele>
        <time>2019-07-10T10:29:53Z</time>
      </trkpt>
      <trkpt lat="39.6142340" lon="-6.9499190">
        <ele>332.2</ele>
        <time>2019-07-10T10:29:54Z</time>
      </trkpt>
      <trkpt lat="39.6141280" lon="-6.9502140">
        <ele>332.0</ele>
        <time>2019-07-10T10:29:57Z</time>
      </trkpt>
      <trkpt lat="39.6140240" lon="-6.9504980">
        <ele>331.8</ele>
        <time>2019-07-10T10:30:00Z</time>
      </trkpt>
      <trkpt lat="39.6139050" lon="-6.9508680">
        <ele>331.2</ele>
        <time>2019-07-10T10:30:04Z</time>
      </trkpt>
      <trkpt lat="39.6138110" lon="-6.9511420">
        <ele>330.8</ele>
        <time>2019-07-10T10:30:07Z</time>
      </trkpt>
      <trkpt lat="39.6137790" lon="-6.9512330">
        <ele>330.8</ele>
        <time>2019-07-10T10:30:08Z</time>
      </trkpt>
      <trkpt lat="39.6136840" lon="-6.9515060">
        <ele>330.8</ele>
        <time>2019-07-10T10:30:11Z</time>
      </trkpt>
      <trkpt lat="39.6134980" lon="-6.9520520">
        <ele>330.8</ele>
        <time>2019-07-10T10:30:17Z</time>
      </trkpt>
      <trkpt lat="39.6133460" lon="-6.9525000">
        <ele>330.6</ele>
        <time>2019-07-10T10:30:22Z</time>
      </trkpt>
      <trkpt lat="39.6132160" lon="-6.9528520">
        <ele>330.4</ele>
        <time>2019-07-10T10:30:26Z</time>
      </trkpt>
      <trkpt lat="39.6131540" lon="-6.9530320">
        <ele>330.2</ele>
        <time>2019-07-10T10:30:28Z</time>
      </trkpt>
      <trkpt lat="39.6129670" lon="-6.9535880">
        <ele>330.0</ele>
        <time>2019-07-10T10:30:34Z</time>
      </trkpt>
      <trkpt lat="39.6127350" lon="-6.9542360">
        <ele>329.2</ele>
        <time>2019-07-10T10:30:41Z</time>
      </trkpt>
      <trkpt lat="39.6126430" lon="-6.9545180">
        <ele>329.4</ele>
        <time>2019-07-10T10:30:44Z</time>
      </trkpt>
      <trkpt lat="39.6124220" lon="-6.9551650">
        <ele>329.2</ele>
        <time>2019-07-10T10:30:51Z</time>
      </trkpt>
      <trkpt lat="39.6123570" lon="-6.9553450">
        <ele>329.2</ele>
        <time>2019-07-10T10:30:53Z</time>
      </trkpt>
      <trkpt lat="39.6122610" lon="-6.9556160">
        <ele>329.2</ele>
        <time>2019-07-10T10:30:56Z</time>
      </trkpt>
      <trkpt lat="39.6120370" lon="-6.9562540">
        <ele>328.8</ele>
        <time>2019-07-10T10:31:03Z</time>
      </trkpt>
      <trkpt lat="39.6120040" lon="-6.9563470">
        <ele>328.6</ele>
        <time>2019-07-10T10:31:04Z</time>
      </trkpt>
      <trkpt lat="39.6117830" lon="-6.9570150">
        <ele>328.0</ele>
        <time>2019-07-10T10:31:11Z</time>
      </trkpt>
      <trkpt lat="39.6117520" lon="-6.9571120">
        <ele>328.0</ele>
        <time>2019-07-10T10:31:12Z</time>
      </trkpt>
      <trkpt lat="39.6115580" lon="-6.9576780">
        <ele>328.0</ele>
        <time>2019-07-10T10:31:18Z</time>
      </trkpt>
      <trkpt lat="39.6115250" lon="-6.9577690">
        <ele>328.0</ele>
        <time>2019-07-10T10:31:19Z</time>
      </trkpt>
      <trkpt lat="39.6114930" lon="-6.9578580">
        <ele>327.8</ele>
        <time>2019-07-10T10:31:20Z</time>
      </trkpt>
      <trkpt lat="39.6113030" lon="-6.9584150">
        <ele>327.4</ele>
        <time>2019-07-10T10:31:26Z</time>
      </trkpt>
      <trkpt lat="39.6111710" lon="-6.9588010">
        <ele>327.2</ele>
        <time>2019-07-10T10:31:30Z</time>
      </trkpt>
      <trkpt lat="39.6110710" lon="-6.9591010">
        <ele>326.8</ele>
        <time>2019-07-10T10:31:33Z</time>
      </trkpt>
      <trkpt lat="39.6109260" lon="-6.9595120">
        <ele>326.0</ele>
        <time>2019-07-10T10:31:37Z</time>
      </trkpt>
      <trkpt lat="39.6108900" lon="-6.9596170">
        <ele>325.8</ele>
        <time>2019-07-10T10:31:38Z</time>
      </trkpt>
      <trkpt lat="39.6107450" lon="-6.9600310">
        <ele>324.6</ele>
        <time>2019-07-10T10:31:42Z</time>
      </trkpt>
      <trkpt lat="39.6105700" lon="-6.9605450">
        <ele>323.4</ele>
        <time>2019-07-10T10:31:47Z</time>
      </trkpt>
      <trkpt lat="39.6105350" lon="-6.9606480">
        <ele>323.2</ele>
        <time>2019-07-10T10:31:48Z</time>
      </trkpt>
      <trkpt lat="39.6104260" lon="-6.9609540">
        <ele>322.4</ele>
        <time>2019-07-10T10:31:51Z</time>
      </trkpt>
      <trkpt lat="39.6103190" lon="-6.9612650">
        <ele>321.6</ele>
        <time>2019-07-10T10:31:54Z</time>
      </trkpt>
      <trkpt lat="39.6102490" lon="-6.9614770">
        <ele>321.2</ele>
        <time>2019-07-10T10:31:56Z</time>
      </trkpt>
      <trkpt lat="39.6102100" lon="-6.9615820">
        <ele>321.0</ele>
        <time>2019-07-10T10:31:57Z</time>
      </trkpt>
      <trkpt lat="39.6100210" lon="-6.9621180">
        <ele>320.0</ele>
        <time>2019-07-10T10:32:02Z</time>
      </trkpt>
      <trkpt lat="39.6099060" lon="-6.9624560">
        <ele>319.0</ele>
        <time>2019-07-10T10:32:05Z</time>
      </trkpt>
      <trkpt lat="39.6098670" lon="-6.9625710">
        <ele>318.8</ele>
        <time>2019-07-10T10:32:06Z</time>
      </trkpt>
      <trkpt lat="39.6096210" lon="-6.9632720">
        <ele>318.0</ele>
        <time>2019-07-10T10:32:12Z</time>
      </trkpt>
      <trkpt lat="39.6095400" lon="-6.9635130">
        <ele>317.8</ele>
        <time>2019-07-10T10:32:14Z</time>
      </trkpt>
      <trkpt lat="39.6095000" lon="-6.9636340">
        <ele>317.4</ele>
        <time>2019-07-10T10:32:15Z</time>
      </trkpt>
      <trkpt lat="39.6093760" lon="-6.9640010">
        <ele>316.6</ele>
        <time>2019-07-10T10:32:18Z</time>
      </trkpt>
      <trkpt lat="39.6092530" lon="-6.9643670">
        <ele>315.4</ele>
        <time>2019-07-10T10:32:21Z</time>
      </trkpt>
      <trkpt lat="39.6091280" lon="-6.9647320">
        <ele>314.4</ele>
        <time>2019-07-10T10:32:24Z</time>
      </trkpt>
      <trkpt lat="39.6090880" lon="-6.9648530">
        <ele>314.2</ele>
        <time>2019-07-10T10:32:25Z</time>
      </trkpt>
      <trkpt lat="39.6088870" lon="-6.9654380">
        <ele>313.2</ele>
        <time>2019-07-10T10:32:30Z</time>
      </trkpt>
      <trkpt lat="39.6088120" lon="-6.9656600">
        <ele>312.8</ele>
        <time>2019-07-10T10:32:32Z</time>
      </trkpt>
      <trkpt lat="39.6085630" lon="-6.9663740">
        <ele>312.2</ele>
        <time>2019-07-10T10:32:39Z</time>
      </trkpt>
      <trkpt lat="39.6084610" lon="-6.9666610">
        <ele>312.2</ele>
        <time>2019-07-10T10:32:42Z</time>
      </trkpt>
      <trkpt lat="39.6083370" lon="-6.9670300">
        <ele>312.0</ele>
        <time>2019-07-10T10:32:46Z</time>
      </trkpt>
      <trkpt lat="39.6083060" lon="-6.9671170">
        <ele>312.0</ele>
        <time>2019-07-10T10:32:47Z</time>
      </trkpt>
      <trkpt lat="39.6081880" lon="-6.9674620">
        <ele>312.0</ele>
        <time>2019-07-10T10:32:51Z</time>
      </trkpt>
      <trkpt lat="39.6080720" lon="-6.9677910">
        <ele>312.6</ele>
        <time>2019-07-10T10:32:55Z</time>
      </trkpt>
      <trkpt lat="39.6079590" lon="-6.9681070">
        <ele>312.8</ele>
        <time>2019-07-10T10:32:59Z</time>
      </trkpt>
      <trkpt lat="39.6079070" lon="-6.9682650">
        <ele>313.2</ele>
        <time>2019-07-10T10:33:01Z</time>
      </trkpt>
      <trkpt lat="39.6078550" lon="-6.9684170">
        <ele>313.6</ele>
        <time>2019-07-10T10:33:03Z</time>
      </trkpt>
      <trkpt lat="39.6077040" lon="-6.9688600">
        <ele>314.2</ele>
        <time>2019-07-10T10:33:09Z</time>
      </trkpt>
      <trkpt lat="39.6076530" lon="-6.9690020">
        <ele>314.4</ele>
        <time>2019-07-10T10:33:11Z</time>
      </trkpt>
      <trkpt lat="39.6076070" lon="-6.9691480">
        <ele>314.8</ele>
        <time>2019-07-10T10:33:13Z</time>
      </trkpt>
      <trkpt lat="39.6074920" lon="-6.9694970">
        <ele>315.2</ele>
        <time>2019-07-10T10:33:18Z</time>
      </trkpt>
      <trkpt lat="39.6074400" lon="-6.9696320">
        <ele>315.4</ele>
        <time>2019-07-10T10:33:20Z</time>
      </trkpt>
      <trkpt lat="39.6073040" lon="-6.9700370">
        <ele>316.4</ele>
        <time>2019-07-10T10:33:26Z</time>
      </trkpt>
      <trkpt lat="39.6072600" lon="-6.9701730">
        <ele>316.4</ele>
        <time>2019-07-10T10:33:28Z</time>
      </trkpt>
      <trkpt lat="39.6071120" lon="-6.9705690">
        <ele>316.6</ele>
        <time>2019-07-10T10:33:34Z</time>
      </trkpt>
      <trkpt lat="39.6068080" lon="-6.9712200">
        <ele>317.0</ele>
        <time>2019-07-10T10:33:44Z</time>
      </trkpt>
      <trkpt lat="39.6066120" lon="-6.9715250">
        <ele>317.0</ele>
        <time>2019-07-10T10:33:49Z</time>
      </trkpt>
      <trkpt lat="39.6064820" lon="-6.9717080">
        <ele>317.0</ele>
        <time>2019-07-10T10:33:52Z</time>
      </trkpt>
      <trkpt lat="39.6062510" lon="-6.9720290">
        <ele>316.8</ele>
        <time>2019-07-10T10:33:57Z</time>
      </trkpt>
      <trkpt lat="39.6061540" lon="-6.9721560">
        <ele>316.8</ele>
        <time>2019-07-10T10:33:59Z</time>
      </trkpt>
      <trkpt lat="39.6060070" lon="-6.9723480">
        <ele>316.4</ele>
        <time>2019-07-10T10:34:02Z</time>
      </trkpt>
      <trkpt lat="39.6058580" lon="-6.9725430">
        <ele>316.2</ele>
        <time>2019-07-10T10:34:05Z</time>
      </trkpt>
      <trkpt lat="39.6057060" lon="-6.9727530">
        <ele>315.6</ele>
        <time>2019-07-10T10:34:08Z</time>
      </trkpt>
      <trkpt lat="39.6056530" lon="-6.9728260">
        <ele>315.4</ele>
        <time>2019-07-10T10:34:09Z</time>
      </trkpt>
      <trkpt lat="39.6053830" lon="-6.9731930">
        <ele>314.8</ele>
        <time>2019-07-10T10:34:14Z</time>
      </trkpt>
      <trkpt lat="39.6052730" lon="-6.9733410">
        <ele>314.6</ele>
        <time>2019-07-10T10:34:16Z</time>
      </trkpt>
      <trkpt lat="39.6051020" lon="-6.9735710">
        <ele>314.0</ele>
        <time>2019-07-10T10:34:19Z</time>
      </trkpt>
      <trkpt lat="39.6049320" lon="-6.9738030">
        <ele>313.6</ele>
        <time>2019-07-10T10:34:22Z</time>
      </trkpt>
      <trkpt lat="39.6048750" lon="-6.9738810">
        <ele>313.4</ele>
        <time>2019-07-10T10:34:23Z</time>
      </trkpt>
      <trkpt lat="39.6047620" lon="-6.9740380">
        <ele>313.0</ele>
        <time>2019-07-10T10:34:25Z</time>
      </trkpt>
      <trkpt lat="39.6045910" lon="-6.9742830">
        <ele>312.4</ele>
        <time>2019-07-10T10:34:28Z</time>
      </trkpt>
      <trkpt lat="39.6045300" lon="-6.9743650">
        <ele>312.0</ele>
        <time>2019-07-10T10:34:29Z</time>
      </trkpt>
      <trkpt lat="39.6042250" lon="-6.9747840">
        <ele>311.2</ele>
        <time>2019-07-10T10:34:34Z</time>
      </trkpt>
      <trkpt lat="39.6039700" lon="-6.9751210">
        <ele>310.4</ele>
        <time>2019-07-10T10:34:38Z</time>
      </trkpt>
      <trkpt lat="39.6037810" lon="-6.9753770">
        <ele>310.0</ele>
        <time>2019-07-10T10:34:41Z</time>
      </trkpt>
      <trkpt lat="39.6034120" lon="-6.9758860">
        <ele>309.0</ele>
        <time>2019-07-10T10:34:47Z</time>
      </trkpt>
      <trkpt lat="39.6030030" lon="-6.9764490">
        <ele>308.0</ele>
        <time>2019-07-10T10:34:54Z</time>
      </trkpt>
      <trkpt lat="39.6029460" lon="-6.9765270">
        <ele>308.0</ele>
        <time>2019-07-10T10:34:55Z</time>
      </trkpt>
      <trkpt lat="39.6025610" lon="-6.9770500">
        <ele>307.4</ele>
        <time>2019-07-10T10:35:02Z</time>
      </trkpt>
      <trkpt lat="39.6024540" lon="-6.9771970">
        <ele>307.4</ele>
        <time>2019-07-10T10:35:04Z</time>
      </trkpt>
      <trkpt lat="39.6020760" lon="-6.9776990">
        <ele>307.0</ele>
        <time>2019-07-10T10:35:11Z</time>
      </trkpt>
      <trkpt lat="39.6019700" lon="-6.9778490">
        <ele>307.0</ele>
        <time>2019-07-10T10:35:13Z</time>
      </trkpt>
      <trkpt lat="39.6019160" lon="-6.9779220">
        <ele>306.8</ele>
        <time>2019-07-10T10:35:14Z</time>
      </trkpt>
      <trkpt lat="39.6015270" lon="-6.9784540">
        <ele>306.2</ele>
        <time>2019-07-10T10:35:21Z</time>
      </trkpt>
      <trkpt lat="39.6014110" lon="-6.9786100">
        <ele>305.8</ele>
        <time>2019-07-10T10:35:23Z</time>
      </trkpt>
      <trkpt lat="39.6013530" lon="-6.9786870">
        <ele>305.8</ele>
        <time>2019-07-10T10:35:24Z</time>
      </trkpt>
      <trkpt lat="39.6011770" lon="-6.9789220">
        <ele>304.8</ele>
        <time>2019-07-10T10:35:27Z</time>
      </trkpt>
      <trkpt lat="39.6009970" lon="-6.9791620">
        <ele>304.4</ele>
        <time>2019-07-10T10:35:30Z</time>
      </trkpt>
      <trkpt lat="39.6008170" lon="-6.9794130">
        <ele>303.6</ele>
        <time>2019-07-10T10:35:33Z</time>
      </trkpt>
      <trkpt lat="39.6006300" lon="-6.9796690">
        <ele>302.6</ele>
        <time>2019-07-10T10:35:36Z</time>
      </trkpt>
      <trkpt lat="39.6003110" lon="-6.9801100">
        <ele>301.6</ele>
        <time>2019-07-10T10:35:41Z</time>
      </trkpt>
      <trkpt lat="39.5999870" lon="-6.9805480">
        <ele>300.2</ele>
        <time>2019-07-10T10:35:46Z</time>
      </trkpt>
      <trkpt lat="39.5998000" lon="-6.9808120">
        <ele>299.0</ele>
        <time>2019-07-10T10:35:49Z</time>
      </trkpt>
      <trkpt lat="39.5996750" lon="-6.9809830">
        <ele>298.4</ele>
        <time>2019-07-10T10:35:51Z</time>
      </trkpt>
      <trkpt lat="39.5994320" lon="-6.9813230">
        <ele>297.8</ele>
        <time>2019-07-10T10:35:55Z</time>
      </trkpt>
      <trkpt lat="39.5993110" lon="-6.9814890">
        <ele>297.6</ele>
        <time>2019-07-10T10:35:57Z</time>
      </trkpt>
      <trkpt lat="39.5991320" lon="-6.9817370">
        <ele>297.4</ele>
        <time>2019-07-10T10:36:00Z</time>
      </trkpt>
      <trkpt lat="39.5987820" lon="-6.9822330">
        <ele>296.8</ele>
        <time>2019-07-10T10:36:06Z</time>
      </trkpt>
      <trkpt lat="39.5986020" lon="-6.9824690">
        <ele>296.8</ele>
        <time>2019-07-10T10:36:09Z</time>
      </trkpt>
      <trkpt lat="39.5981940" lon="-6.9830280">
        <ele>296.4</ele>
        <time>2019-07-10T10:36:16Z</time>
      </trkpt>
      <trkpt lat="39.5981370" lon="-6.9831070">
        <ele>296.4</ele>
        <time>2019-07-10T10:36:17Z</time>
      </trkpt>
      <trkpt lat="39.5977330" lon="-6.9836580">
        <ele>296.0</ele>
        <time>2019-07-10T10:36:24Z</time>
      </trkpt>
      <trkpt lat="39.5975610" lon="-6.9838930">
        <ele>296.0</ele>
        <time>2019-07-10T10:36:27Z</time>
      </trkpt>
      <trkpt lat="39.5974450" lon="-6.9840480">
        <ele>295.8</ele>
        <time>2019-07-10T10:36:29Z</time>
      </trkpt>
      <trkpt lat="39.5970460" lon="-6.9845950">
        <ele>295.4</ele>
        <time>2019-07-10T10:36:36Z</time>
      </trkpt>
      <trkpt lat="39.5966510" lon="-6.9851350">
        <ele>295.0</ele>
        <time>2019-07-10T10:36:43Z</time>
      </trkpt>
      <trkpt lat="39.5964830" lon="-6.9853660">
        <ele>294.8</ele>
        <time>2019-07-10T10:36:46Z</time>
      </trkpt>
      <trkpt lat="39.5964250" lon="-6.9854420">
        <ele>294.8</ele>
        <time>2019-07-10T10:36:47Z</time>
      </trkpt>
      <trkpt lat="39.5960300" lon="-6.9859820">
        <ele>294.4</ele>
        <time>2019-07-10T10:36:54Z</time>
      </trkpt>
      <trkpt lat="39.5959720" lon="-6.9860590">
        <ele>294.4</ele>
        <time>2019-07-10T10:36:55Z</time>
      </trkpt>
      <trkpt lat="39.5956230" lon="-6.9865210">
        <ele>293.8</ele>
        <time>2019-07-10T10:37:01Z</time>
      </trkpt>
      <trkpt lat="39.5953350" lon="-6.9869100">
        <ele>293.6</ele>
        <time>2019-07-10T10:37:06Z</time>
      </trkpt>
      <trkpt lat="39.5949500" lon="-6.9874420">
        <ele>293.4</ele>
        <time>2019-07-10T10:37:13Z</time>
      </trkpt>
      <trkpt lat="39.5948970" lon="-6.9875150">
        <ele>293.4</ele>
        <time>2019-07-10T10:37:14Z</time>
      </trkpt>
      <trkpt lat="39.5946170" lon="-6.9878860">
        <ele>292.8</ele>
        <time>2019-07-10T10:37:19Z</time>
      </trkpt>
      <trkpt lat="39.5945010" lon="-6.9880430">
        <ele>292.4</ele>
        <time>2019-07-10T10:37:21Z</time>
      </trkpt>
      <trkpt lat="39.5943810" lon="-6.9882090">
        <ele>292.0</ele>
        <time>2019-07-10T10:37:23Z</time>
      </trkpt>
      <trkpt lat="39.5943190" lon="-6.9882940">
        <ele>291.8</ele>
        <time>2019-07-10T10:37:24Z</time>
      </trkpt>
      <trkpt lat="39.5942560" lon="-6.9883810">
        <ele>291.4</ele>
        <time>2019-07-10T10:37:25Z</time>
      </trkpt>
      <trkpt lat="39.5941330" lon="-6.9885750">
        <ele>290.8</ele>
        <time>2019-07-10T10:37:27Z</time>
      </trkpt>
      <trkpt lat="39.5940330" lon="-6.9888050">
        <ele>290.4</ele>
        <time>2019-07-10T10:37:29Z</time>
      </trkpt>
      <trkpt lat="39.5939580" lon="-6.9890600">
        <ele>288.6</ele>
        <time>2019-07-10T10:37:31Z</time>
      </trkpt>
      <trkpt lat="39.5939230" lon="-6.9893390">
        <ele>287.0</ele>
        <time>2019-07-10T10:37:33Z</time>
      </trkpt>
      <trkpt lat="39.5939210" lon="-6.9896280">
        <ele>285.4</ele>
        <time>2019-07-10T10:37:35Z</time>
      </trkpt>
      <trkpt lat="39.5939280" lon="-6.9897740">
        <ele>284.6</ele>
        <time>2019-07-10T10:37:36Z</time>
      </trkpt>
      <trkpt lat="39.5939350" lon="-6.9899210">
        <ele>284.0</ele>
        <time>2019-07-10T10:37:37Z</time>
      </trkpt>
      <trkpt lat="39.5939430" lon="-6.9902170">
        <ele>282.8</ele>
        <time>2019-07-10T10:37:39Z</time>
      </trkpt>
      <trkpt lat="39.5939390" lon="-6.9905170">
        <ele>281.0</ele>
        <time>2019-07-10T10:37:41Z</time>
      </trkpt>
      <trkpt lat="39.5939220" lon="-6.9908230">
        <ele>279.8</ele>
        <time>2019-07-10T10:37:43Z</time>
      </trkpt>
      <trkpt lat="39.5938740" lon="-6.9911300">
        <ele>278.6</ele>
        <time>2019-07-10T10:37:45Z</time>
      </trkpt>
      <trkpt lat="39.5937890" lon="-6.9914280">
        <ele>277.4</ele>
        <time>2019-07-10T10:37:47Z</time>
      </trkpt>
      <trkpt lat="39.5936740" lon="-6.9917130">
        <ele>275.8</ele>
        <time>2019-07-10T10:37:49Z</time>
      </trkpt>
      <trkpt lat="39.5935300" lon="-6.9919790">
        <ele>274.0</ele>
        <time>2019-07-10T10:37:51Z</time>
      </trkpt>
      <trkpt lat="39.5933690" lon="-6.9922360">
        <ele>272.8</ele>
        <time>2019-07-10T10:37:53Z</time>
      </trkpt>
      <trkpt lat="39.5932020" lon="-6.9924920">
        <ele>271.0</ele>
        <time>2019-07-10T10:37:55Z</time>
      </trkpt>
      <trkpt lat="39.5930310" lon="-6.9927460">
        <ele>269.2</ele>
        <time>2019-07-10T10:37:57Z</time>
      </trkpt>
      <trkpt lat="39.5929430" lon="-6.9928720">
        <ele>268.4</ele>
        <time>2019-07-10T10:37:58Z</time>
      </trkpt>
      <trkpt lat="39.5928550" lon="-6.9929970">
        <ele>267.6</ele>
        <time>2019-07-10T10:37:59Z</time>
      </trkpt>
      <trkpt lat="39.5926830" lon="-6.9932520">
        <ele>266.0</ele>
        <time>2019-07-10T10:38:01Z</time>
      </trkpt>
      <trkpt lat="39.5925110" lon="-6.9935070">
        <ele>264.4</ele>
        <time>2019-07-10T10:38:03Z</time>
      </trkpt>
      <trkpt lat="39.5923250" lon="-6.9937480">
        <ele>263.0</ele>
        <time>2019-07-10T10:38:05Z</time>
      </trkpt>
      <trkpt lat="39.5921130" lon="-6.9939540">
        <ele>261.6</ele>
        <time>2019-07-10T10:38:07Z</time>
      </trkpt>
      <trkpt lat="39.5919950" lon="-6.9940320">
        <ele>261.0</ele>
        <time>2019-07-10T10:38:08Z</time>
      </trkpt>
      <trkpt lat="39.5918690" lon="-6.9940900">
        <ele>260.0</ele>
        <time>2019-07-10T10:38:09Z</time>
      </trkpt>
      <trkpt lat="39.5916030" lon="-6.9941520">
        <ele>258.6</ele>
        <time>2019-07-10T10:38:11Z</time>
      </trkpt>
      <trkpt lat="39.5913310" lon="-6.9941460">
        <ele>256.8</ele>
        <time>2019-07-10T10:38:13Z</time>
      </trkpt>
      <trkpt lat="39.5911960" lon="-6.9941270">
        <ele>255.8</ele>
        <time>2019-07-10T10:38:14Z</time>
      </trkpt>
      <trkpt lat="39.5910600" lon="-6.9941030">
        <ele>255.0</ele>
        <time>2019-07-10T10:38:15Z</time>
      </trkpt>
      <trkpt lat="39.5907860" lon="-6.9940590">
        <ele>253.2</ele>
        <time>2019-07-10T10:38:17Z</time>
      </trkpt>
      <trkpt lat="39.5905060" lon="-6.9940400">
        <ele>251.4</ele>
        <time>2019-07-10T10:38:19Z</time>
      </trkpt>
      <trkpt lat="39.5903660" lon="-6.9940490">
        <ele>250.8</ele>
        <time>2019-07-10T10:38:20Z</time>
      </trkpt>
      <trkpt lat="39.5902260" lon="-6.9940690">
        <ele>249.4</ele>
        <time>2019-07-10T10:38:21Z</time>
      </trkpt>
      <trkpt lat="39.5899510" lon="-6.9941340">
        <ele>247.6</ele>
        <time>2019-07-10T10:38:23Z</time>
      </trkpt>
      <trkpt lat="39.5898130" lon="-6.9941830">
        <ele>246.8</ele>
        <time>2019-07-10T10:38:24Z</time>
      </trkpt>
      <trkpt lat="39.5896790" lon="-6.9942470">
        <ele>246.2</ele>
        <time>2019-07-10T10:38:25Z</time>
      </trkpt>
      <trkpt lat="39.5894290" lon="-6.9944170">
        <ele>244.8</ele>
        <time>2019-07-10T10:38:27Z</time>
      </trkpt>
      <trkpt lat="39.5892030" lon="-6.9946300">
        <ele>243.4</ele>
        <time>2019-07-10T10:38:29Z</time>
      </trkpt>
      <trkpt lat="39.5890960" lon="-6.9947420">
        <ele>242.2</ele>
        <time>2019-07-10T10:38:30Z</time>
      </trkpt>
      <trkpt lat="39.5889920" lon="-6.9948570">
        <ele>241.4</ele>
        <time>2019-07-10T10:38:31Z</time>
      </trkpt>
      <trkpt lat="39.5888920" lon="-6.9949730">
        <ele>241.0</ele>
        <time>2019-07-10T10:38:32Z</time>
      </trkpt>
      <trkpt lat="39.5886990" lon="-6.9952080">
        <ele>240.0</ele>
        <time>2019-07-10T10:38:34Z</time>
      </trkpt>
      <trkpt lat="39.5884130" lon="-6.9955390">
        <ele>239.0</ele>
        <time>2019-07-10T10:38:37Z</time>
      </trkpt>
      <trkpt lat="39.5883150" lon="-6.9956370">
        <ele>238.8</ele>
        <time>2019-07-10T10:38:38Z</time>
      </trkpt>
      <trkpt lat="39.5881080" lon="-6.9958000">
        <ele>238.4</ele>
        <time>2019-07-10T10:38:40Z</time>
      </trkpt>
      <trkpt lat="39.5879990" lon="-6.9958600">
        <ele>238.0</ele>
        <time>2019-07-10T10:38:41Z</time>
      </trkpt>
      <trkpt lat="39.5878890" lon="-6.9959070">
        <ele>238.0</ele>
        <time>2019-07-10T10:38:42Z</time>
      </trkpt>
      <trkpt lat="39.5875610" lon="-6.9960030">
        <ele>237.2</ele>
        <time>2019-07-10T10:38:45Z</time>
      </trkpt>
      <trkpt lat="39.5873510" lon="-6.9960530">
        <ele>236.8</ele>
        <time>2019-07-10T10:38:47Z</time>
      </trkpt>
      <trkpt lat="39.5872490" lon="-6.9960830">
        <ele>236.6</ele>
        <time>2019-07-10T10:38:48Z</time>
      </trkpt>
      <trkpt lat="39.5871490" lon="-6.9961160">
        <ele>236.4</ele>
        <time>2019-07-10T10:38:49Z</time>
      </trkpt>
      <trkpt lat="39.5869520" lon="-6.9961910">
        <ele>235.8</ele>
        <time>2019-07-10T10:38:51Z</time>
      </trkpt>
      <trkpt lat="39.5868540" lon="-6.9962280">
        <ele>235.8</ele>
        <time>2019-07-10T10:38:52Z</time>
      </trkpt>
      <trkpt lat="39.5864650" lon="-6.9963890">
        <ele>234.4</ele>
        <time>2019-07-10T10:38:56Z</time>
      </trkpt>
      <trkpt lat="39.5861700" lon="-6.9965070">
        <ele>233.4</ele>
        <time>2019-07-10T10:38:59Z</time>
      </trkpt>
      <trkpt lat="39.5858730" lon="-6.9966430">
        <ele>232.0</ele>
        <time>2019-07-10T10:39:02Z</time>
      </trkpt>
      <trkpt lat="39.5856710" lon="-6.9967210">
        <ele>231.0</ele>
        <time>2019-07-10T10:39:04Z</time>
      </trkpt>
      <trkpt lat="39.5854620" lon="-6.9967510">
        <ele>229.6</ele>
        <time>2019-07-10T10:39:06Z</time>
      </trkpt>
      <trkpt lat="39.5853550" lon="-6.9967460">
        <ele>229.2</ele>
        <time>2019-07-10T10:39:07Z</time>
      </trkpt>
      <trkpt lat="39.5851430" lon="-6.9967120">
        <ele>228.2</ele>
        <time>2019-07-10T10:39:09Z</time>
      </trkpt>
      <trkpt lat="39.5849330" lon="-6.9966610">
        <ele>227.2</ele>
        <time>2019-07-10T10:39:11Z</time>
      </trkpt>
      <trkpt lat="39.5848270" lon="-6.9966390">
        <ele>226.6</ele>
        <time>2019-07-10T10:39:12Z</time>
      </trkpt>
      <trkpt lat="39.5847200" lon="-6.9966220">
        <ele>226.0</ele>
        <time>2019-07-10T10:39:13Z</time>
      </trkpt>
      <trkpt lat="39.5843970" lon="-6.9966140">
        <ele>224.8</ele>
        <time>2019-07-10T10:39:16Z</time>
      </trkpt>
      <trkpt lat="39.5842930" lon="-6.9966280">
        <ele>224.2</ele>
        <time>2019-07-10T10:39:17Z</time>
      </trkpt>
      <trkpt lat="39.5841910" lon="-6.9966540">
        <ele>223.8</ele>
        <time>2019-07-10T10:39:18Z</time>
      </trkpt>
      <trkpt lat="39.5838920" lon="-6.9967630">
        <ele>222.4</ele>
        <time>2019-07-10T10:39:21Z</time>
      </trkpt>
      <trkpt lat="39.5837930" lon="-6.9968000">
        <ele>221.8</ele>
        <time>2019-07-10T10:39:22Z</time>
      </trkpt>
      <trkpt lat="39.5835960" lon="-6.9968730">
        <ele>220.8</ele>
        <time>2019-07-10T10:39:24Z</time>
      </trkpt>
      <trkpt lat="39.5834000" lon="-6.9969460">
        <ele>219.8</ele>
        <time>2019-07-10T10:39:26Z</time>
      </trkpt>
      <trkpt lat="39.5832040" lon="-6.9970210">
        <ele>218.8</ele>
        <time>2019-07-10T10:39:28Z</time>
      </trkpt>
      <trkpt lat="39.5829080" lon="-6.9971350">
        <ele>217.4</ele>
        <time>2019-07-10T10:39:31Z</time>
      </trkpt>
      <trkpt lat="39.5827050" lon="-6.9972040">
        <ele>216.0</ele>
        <time>2019-07-10T10:39:33Z</time>
      </trkpt>
      <trkpt lat="39.5824930" lon="-6.9972490">
        <ele>215.0</ele>
        <time>2019-07-10T10:39:35Z</time>
      </trkpt>
      <trkpt lat="39.5823850" lon="-6.9972530">
        <ele>214.6</ele>
        <time>2019-07-10T10:39:36Z</time>
      </trkpt>
      <trkpt lat="39.5822760" lon="-6.9972380">
        <ele>214.0</ele>
        <time>2019-07-10T10:39:37Z</time>
      </trkpt>
      <trkpt lat="39.5821660" lon="-6.9972130">
        <ele>213.4</ele>
        <time>2019-07-10T10:39:38Z</time>
      </trkpt>
      <trkpt lat="39.5819460" lon="-6.9971480">
        <ele>212.4</ele>
        <time>2019-07-10T10:39:40Z</time>
      </trkpt>
      <trkpt lat="39.5817230" lon="-6.9970790">
        <ele>210.8</ele>
        <time>2019-07-10T10:39:42Z</time>
      </trkpt>
      <trkpt lat="39.5814970" lon="-6.9970220">
        <ele>209.6</ele>
        <time>2019-07-10T10:39:44Z</time>
      </trkpt>
      <trkpt lat="39.5812660" lon="-6.9969900">
        <ele>208.2</ele>
        <time>2019-07-10T10:39:46Z</time>
      </trkpt>
      <trkpt lat="39.5811490" lon="-6.9969910">
        <ele>207.6</ele>
        <time>2019-07-10T10:39:47Z</time>
      </trkpt>
      <trkpt lat="39.5810340" lon="-6.9970020">
        <ele>206.6</ele>
        <time>2019-07-10T10:39:48Z</time>
      </trkpt>
      <trkpt lat="39.5809200" lon="-6.9970270">
        <ele>205.6</ele>
        <time>2019-07-10T10:39:49Z</time>
      </trkpt>
      <trkpt lat="39.5808080" lon="-6.9970630">
        <ele>205.0</ele>
        <time>2019-07-10T10:39:50Z</time>
      </trkpt>
      <trkpt lat="39.5806980" lon="-6.9971040">
        <ele>204.0</ele>
        <time>2019-07-10T10:39:51Z</time>
      </trkpt>
      <trkpt lat="39.5805890" lon="-6.9971470">
        <ele>203.4</ele>
        <time>2019-07-10T10:39:52Z</time>
      </trkpt>
      <trkpt lat="39.5802650" lon="-6.9972660">
        <ele>202.2</ele>
        <time>2019-07-10T10:39:55Z</time>
      </trkpt>
      <trkpt lat="39.5800470" lon="-6.9973120">
        <ele>201.2</ele>
        <time>2019-07-10T10:39:57Z</time>
      </trkpt>
      <trkpt lat="39.5799370" lon="-6.9973160">
        <ele>200.6</ele>
        <time>2019-07-10T10:39:58Z</time>
      </trkpt>
      <trkpt lat="39.5798250" lon="-6.9973070">
        <ele>199.8</ele>
        <time>2019-07-10T10:39:59Z</time>
      </trkpt>
      <trkpt lat="39.5796040" lon="-6.9972600">
        <ele>198.4</ele>
        <time>2019-07-10T10:40:01Z</time>
      </trkpt>
      <trkpt lat="39.5793840" lon="-6.9971670">
        <ele>197.2</ele>
        <time>2019-07-10T10:40:03Z</time>
      </trkpt>
      <trkpt lat="39.5792750" lon="-6.9971110">
        <ele>196.8</ele>
        <time>2019-07-10T10:40:04Z</time>
      </trkpt>
      <trkpt lat="39.5791650" lon="-6.9970530">
        <ele>196.0</ele>
        <time>2019-07-10T10:40:05Z</time>
      </trkpt>
      <trkpt lat="39.5789380" lon="-6.9969470">
        <ele>194.6</ele>
        <time>2019-07-10T10:40:07Z</time>
      </trkpt>
      <trkpt lat="39.5786960" lon="-6.9968810">
        <ele>193.2</ele>
        <time>2019-07-10T10:40:09Z</time>
      </trkpt>
      <trkpt lat="39.5785710" lon="-6.9968670">
        <ele>192.6</ele>
        <time>2019-07-10T10:40:10Z</time>
      </trkpt>
      <trkpt lat="39.5784460" lon="-6.9968720">
        <ele>191.8</ele>
        <time>2019-07-10T10:40:11Z</time>
      </trkpt>
      <trkpt lat="39.5783210" lon="-6.9968930">
        <ele>191.0</ele>
        <time>2019-07-10T10:40:12Z</time>
      </trkpt>
      <trkpt lat="39.5781970" lon="-6.9969310">
        <ele>190.2</ele>
        <time>2019-07-10T10:40:13Z</time>
      </trkpt>
      <trkpt lat="39.5780750" lon="-6.9969820">
        <ele>189.6</ele>
        <time>2019-07-10T10:40:14Z</time>
      </trkpt>
      <trkpt lat="39.5779530" lon="-6.9970360">
        <ele>189.0</ele>
        <time>2019-07-10T10:40:15Z</time>
      </trkpt>
      <trkpt lat="39.5778290" lon="-6.9970880">
        <ele>188.2</ele>
        <time>2019-07-10T10:40:16Z</time>
      </trkpt>
      <trkpt lat="39.5777020" lon="-6.9971360">
        <ele>187.6</ele>
        <time>2019-07-10T10:40:17Z</time>
      </trkpt>
      <trkpt lat="39.5775720" lon="-6.9971710">
        <ele>186.6</ele>
        <time>2019-07-10T10:40:18Z</time>
      </trkpt>
      <trkpt lat="39.5773070" lon="-6.9971910">
        <ele>185.2</ele>
        <time>2019-07-10T10:40:20Z</time>
      </trkpt>
      <trkpt lat="39.5770390" lon="-6.9971530">
        <ele>183.8</ele>
        <time>2019-07-10T10:40:22Z</time>
      </trkpt>
      <trkpt lat="39.5767690" lon="-6.9970890">
        <ele>182.2</ele>
        <time>2019-07-10T10:40:24Z</time>
      </trkpt>
      <trkpt lat="39.5764980" lon="-6.9970220">
        <ele>180.6</ele>
        <time>2019-07-10T10:40:26Z</time>
      </trkpt>
      <trkpt lat="39.5762200" lon="-6.9969710">
        <ele>178.8</ele>
        <time>2019-07-10T10:40:28Z</time>
      </trkpt>
      <trkpt lat="39.5759380" lon="-6.9969350">
        <ele>177.2</ele>
        <time>2019-07-10T10:40:30Z</time>
      </trkpt>
      <trkpt lat="39.5756520" lon="-6.9968950">
        <ele>175.6</ele>
        <time>2019-07-10T10:40:32Z</time>
      </trkpt>
      <trkpt lat="39.5753690" lon="-6.9968590">
        <ele>174.4</ele>
        <time>2019-07-10T10:40:34Z</time>
      </trkpt>
      <trkpt lat="39.5750920" lon="-6.9968370">
        <ele>173.4</ele>
        <time>2019-07-10T10:40:36Z</time>
      </trkpt>
      <trkpt lat="39.5749570" lon="-6.9968350">
        <ele>173.0</ele>
        <time>2019-07-10T10:40:37Z</time>
      </trkpt>
      <trkpt lat="39.5746950" lon="-6.9968540">
        <ele>172.4</ele>
        <time>2019-07-10T10:40:39Z</time>
      </trkpt>
      <trkpt lat="39.5744520" lon="-6.9969060">
        <ele>172.0</ele>
        <time>2019-07-10T10:40:41Z</time>
      </trkpt>
      <trkpt lat="39.5740350" lon="-6.9970360">
        <ele>172.0</ele>
        <time>2019-07-10T10:40:45Z</time>
      </trkpt>
      <trkpt lat="39.5736340" lon="-6.9971700">
        <ele>172.8</ele>
        <time>2019-07-10T10:40:50Z</time>
      </trkpt>
      <trkpt lat="39.5734320" lon="-6.9972370">
        <ele>173.4</ele>
        <time>2019-07-10T10:40:53Z</time>
      </trkpt>
      <trkpt lat="39.5732510" lon="-6.9972980">
        <ele>173.6</ele>
        <time>2019-07-10T10:40:56Z</time>
      </trkpt>
      <trkpt lat="39.5728770" lon="-6.9974220">
        <ele>174.2</ele>
        <time>2019-07-10T10:41:03Z</time>
      </trkpt>
      <trkpt lat="39.5727390" lon="-6.9974690">
        <ele>174.6</ele>
        <time>2019-07-10T10:41:06Z</time>
      </trkpt>
      <trkpt lat="39.5725830" lon="-6.9975240">
        <ele>175.2</ele>
        <time>2019-07-10T10:41:10Z</time>
      </trkpt>
      <trkpt lat="39.5724420" lon="-6.9975840">
        <ele>175.8</ele>
        <time>2019-07-10T10:41:14Z</time>
      </trkpt>
      <trkpt lat="39.5723480" lon="-6.9976330">
        <ele>176.6</ele>
        <time>2019-07-10T10:41:17Z</time>
      </trkpt>
      <trkpt lat="39.5723170" lon="-6.9976510">
        <ele>176.8</ele>
        <time>2019-07-10T10:41:18Z</time>
      </trkpt>
      <trkpt lat="39.5722870" lon="-6.9976730">
        <ele>177.0</ele>
        <time>2019-07-10T10:41:19Z</time>
      </trkpt>
      <trkpt lat="39.5721680" lon="-6.9977420">
        <ele>177.6</ele>
        <time>2019-07-10T10:41:23Z</time>
      </trkpt>
      <trkpt lat="39.5720840" lon="-6.9977920">
        <ele>178.4</ele>
        <time>2019-07-10T10:41:26Z</time>
      </trkpt>
      <trkpt lat="39.5720030" lon="-6.9978450">
        <ele>179.2</ele>
        <time>2019-07-10T10:41:29Z</time>
      </trkpt>
      <trkpt lat="39.5719230" lon="-6.9978940">
        <ele>179.6</ele>
        <time>2019-07-10T10:41:32Z</time>
      </trkpt>
      <trkpt lat="39.5718510" lon="-6.9979550">
        <ele>180.4</ele>
        <time>2019-07-10T10:41:35Z</time>
      </trkpt>
      <trkpt lat="39.5718030" lon="-6.9979910">
        <ele>181.0</ele>
        <time>2019-07-10T10:41:37Z</time>
      </trkpt>
      <trkpt lat="39.5717090" lon="-6.9980640">
        <ele>182.0</ele>
        <time>2019-07-10T10:41:41Z</time>
      </trkpt>
      <trkpt lat="39.5716860" lon="-6.9980870">
        <ele>182.4</ele>
        <time>2019-07-10T10:41:42Z</time>
      </trkpt>
      <trkpt lat="39.5715860" lon="-6.9981560">
        <ele>183.2</ele>
        <time>2019-07-10T10:41:46Z</time>
      </trkpt>
      <trkpt lat="39.5714830" lon="-6.9982160">
        <ele>184.0</ele>
        <time>2019-07-10T10:41:50Z</time>
      </trkpt>
      <trkpt lat="39.5714560" lon="-6.9982290">
        <ele>184.2</ele>
        <time>2019-07-10T10:41:51Z</time>
      </trkpt>
      <trkpt lat="39.5713210" lon="-6.9982940">
        <ele>185.4</ele>
        <time>2019-07-10T10:41:56Z</time>
      </trkpt>
      <trkpt lat="39.5712930" lon="-6.9983060">
        <ele>185.6</ele>
        <time>2019-07-10T10:41:57Z</time>
      </trkpt>
      <trkpt lat="39.5712370" lon="-6.9983210">
        <ele>186.6</ele>
        <time>2019-07-10T10:41:59Z</time>
      </trkpt>
      <trkpt lat="39.5711290" lon="-6.9983580">
        <ele>187.6</ele>
        <time>2019-07-10T10:42:03Z</time>
      </trkpt>
      <trkpt lat="39.5711020" lon="-6.9983640">
        <ele>187.6</ele>
        <time>2019-07-10T10:42:04Z</time>
      </trkpt>
      <trkpt lat="39.5709900" lon="-6.9983860">
        <ele>188.8</ele>
        <time>2019-07-10T10:42:08Z</time>
      </trkpt>
      <trkpt lat="39.5708530" lon="-6.9984010">
        <ele>190.0</ele>
        <time>2019-07-10T10:42:13Z</time>
      </trkpt>
      <trkpt lat="39.5707050" lon="-6.9984140">
        <ele>191.2</ele>
        <time>2019-07-10T10:42:18Z</time>
      </trkpt>
      <trkpt lat="39.5706760" lon="-6.9984100">
        <ele>191.4</ele>
        <time>2019-07-10T10:42:19Z</time>
      </trkpt>
      <trkpt lat="39.5705620" lon="-6.9983740">
        <ele>192.2</ele>
        <time>2019-07-10T10:42:23Z</time>
      </trkpt>
      <trkpt lat="39.5704210" lon="-6.9983260">
        <ele>193.6</ele>
        <time>2019-07-10T10:42:28Z</time>
      </trkpt>
      <trkpt lat="39.5703920" lon="-6.9983140">
        <ele>193.8</ele>
        <time>2019-07-10T10:42:29Z</time>
      </trkpt>
      <trkpt lat="39.5702420" lon="-6.9982470">
        <ele>194.6</ele>
        <time>2019-07-10T10:42:34Z</time>
      </trkpt>
      <trkpt lat="39.5701530" lon="-6.9982220">
        <ele>195.6</ele>
        <time>2019-07-10T10:42:37Z</time>
      </trkpt>
      <trkpt lat="39.5701230" lon="-6.9982120">
        <ele>195.8</ele>
        <time>2019-07-10T10:42:38Z</time>
      </trkpt>
      <trkpt lat="39.5699850" lon="-6.9981620">
        <ele>197.0</ele>
        <time>2019-07-10T10:42:43Z</time>
      </trkpt>
      <trkpt lat="39.5698160" lon="-6.9980930">
        <ele>198.2</ele>
        <time>2019-07-10T10:42:49Z</time>
      </trkpt>
      <trkpt lat="39.5697060" lon="-6.9980720">
        <ele>199.2</ele>
        <time>2019-07-10T10:42:53Z</time>
      </trkpt>
      <trkpt lat="39.5696780" lon="-6.9980680">
        <ele>199.4</ele>
        <time>2019-07-10T10:42:54Z</time>
      </trkpt>
      <trkpt lat="39.5695470" lon="-6.9980240">
        <ele>200.4</ele>
        <time>2019-07-10T10:42:59Z</time>
      </trkpt>
      <trkpt lat="39.5695220" lon="-6.9980170">
        <ele>200.8</ele>
        <time>2019-07-10T10:43:00Z</time>
      </trkpt>
      <trkpt lat="39.5694140" lon="-6.9980100">
        <ele>201.6</ele>
        <time>2019-07-10T10:43:04Z</time>
      </trkpt>
      <trkpt lat="39.5693110" lon="-6.9980070">
        <ele>202.4</ele>
        <time>2019-07-10T10:43:08Z</time>
      </trkpt>
      <trkpt lat="39.5692850" lon="-6.9980090">
        <ele>202.8</ele>
        <time>2019-07-10T10:43:09Z</time>
      </trkpt>
      <trkpt lat="39.5691540" lon="-6.9980440">
        <ele>203.8</ele>
        <time>2019-07-10T10:43:14Z</time>
      </trkpt>
      <trkpt lat="39.5691270" lon="-6.9980590">
        <ele>204.0</ele>
        <time>2019-07-10T10:43:15Z</time>
      </trkpt>
      <trkpt lat="39.5690140" lon="-6.9981060">
        <ele>205.0</ele>
        <time>2019-07-10T10:43:19Z</time>
      </trkpt>
      <trkpt lat="39.5689010" lon="-6.9981720">
        <ele>206.0</ele>
        <time>2019-07-10T10:43:23Z</time>
      </trkpt>
      <trkpt lat="39.5687650" lon="-6.9982770">
        <ele>207.4</ele>
        <time>2019-07-10T10:43:28Z</time>
      </trkpt>
      <trkpt lat="39.5686820" lon="-6.9983340">
        <ele>207.8</ele>
        <time>2019-07-10T10:43:31Z</time>
      </trkpt>
      <trkpt lat="39.5686150" lon="-6.9984130">
        <ele>208.4</ele>
        <time>2019-07-10T10:43:34Z</time>
      </trkpt>
      <trkpt lat="39.5685260" lon="-6.9985320">
        <ele>209.4</ele>
        <time>2019-07-10T10:43:38Z</time>
      </trkpt>
      <trkpt lat="39.5683850" lon="-6.9987260">
        <ele>210.6</ele>
        <time>2019-07-10T10:43:44Z</time>
      </trkpt>
      <trkpt lat="39.5683360" lon="-6.9987850">
        <ele>211.0</ele>
        <time>2019-07-10T10:43:46Z</time>
      </trkpt>
      <trkpt lat="39.5682490" lon="-6.9989250">
        <ele>211.8</ele>
        <time>2019-07-10T10:43:50Z</time>
      </trkpt>
      <trkpt lat="39.5681820" lon="-6.9990220">
        <ele>212.4</ele>
        <time>2019-07-10T10:43:53Z</time>
      </trkpt>
      <trkpt lat="39.5681140" lon="-6.9991190">
        <ele>213.0</ele>
        <time>2019-07-10T10:43:56Z</time>
      </trkpt>
      <trkpt lat="39.5680210" lon="-6.9992450">
        <ele>213.4</ele>
        <time>2019-07-10T10:44:00Z</time>
      </trkpt>
      <trkpt lat="39.5679190" lon="-6.9994100">
        <ele>214.0</ele>
        <time>2019-07-10T10:44:05Z</time>
      </trkpt>
      <trkpt lat="39.5678760" lon="-6.9994760">
        <ele>214.6</ele>
        <time>2019-07-10T10:44:07Z</time>
      </trkpt>
      <trkpt lat="39.5677690" lon="-6.9996440">
        <ele>215.2</ele>
        <time>2019-07-10T10:44:12Z</time>
      </trkpt>
      <trkpt lat="39.5676990" lon="-6.9997380">
        <ele>216.0</ele>
        <time>2019-07-10T10:44:15Z</time>
      </trkpt>
      <trkpt lat="39.5676770" lon="-6.9997710">
        <ele>216.4</ele>
        <time>2019-07-10T10:44:16Z</time>
      </trkpt>
      <trkpt lat="39.5676020" lon="-6.9999140">
        <ele>217.6</ele>
        <time>2019-07-10T10:44:20Z</time>
      </trkpt>
      <trkpt lat="39.5675410" lon="-7.0000110">
        <ele>218.4</ele>
        <time>2019-07-10T10:44:23Z</time>
      </trkpt>
      <trkpt lat="39.5675070" lon="-7.0000710">
        <ele>218.8</ele>
        <time>2019-07-10T10:44:25Z</time>
      </trkpt>
      <trkpt lat="39.5674400" lon="-7.0002210">
        <ele>220.0</ele>
        <time>2019-07-10T10:44:30Z</time>
      </trkpt>
      <trkpt lat="39.5674300" lon="-7.0002510">
        <ele>220.2</ele>
        <time>2019-07-10T10:44:31Z</time>
      </trkpt>
      <trkpt lat="39.5673970" lon="-7.0003430">
        <ele>221.0</ele>
        <time>2019-07-10T10:44:34Z</time>
      </trkpt>
      <trkpt lat="39.5673860" lon="-7.0003730">
        <ele>221.0</ele>
        <time>2019-07-10T10:44:35Z</time>
      </trkpt>
      <trkpt lat="39.5673380" lon="-7.0005350">
        <ele>222.2</ele>
        <time>2019-07-10T10:44:40Z</time>
      </trkpt>
      <trkpt lat="39.5672920" lon="-7.0007010">
        <ele>223.2</ele>
        <time>2019-07-10T10:44:45Z</time>
      </trkpt>
      <trkpt lat="39.5672870" lon="-7.0007360">
        <ele>223.6</ele>
        <time>2019-07-10T10:44:46Z</time>
      </trkpt>
      <trkpt lat="39.5672700" lon="-7.0008400">
        <ele>224.6</ele>
        <time>2019-07-10T10:44:49Z</time>
      </trkpt>
      <trkpt lat="39.5672470" lon="-7.0010130">
        <ele>225.8</ele>
        <time>2019-07-10T10:44:54Z</time>
      </trkpt>
      <trkpt lat="39.5672430" lon="-7.0010480">
        <ele>226.0</ele>
        <time>2019-07-10T10:44:55Z</time>
      </trkpt>
      <trkpt lat="39.5672250" lon="-7.0011530">
        <ele>226.8</ele>
        <time>2019-07-10T10:44:58Z</time>
      </trkpt>
      <trkpt lat="39.5672050" lon="-7.0013260">
        <ele>228.0</ele>
        <time>2019-07-10T10:45:03Z</time>
      </trkpt>
      <trkpt lat="39.5672020" lon="-7.0013610">
        <ele>228.2</ele>
        <time>2019-07-10T10:45:04Z</time>
      </trkpt>
      <trkpt lat="39.5671930" lon="-7.0014630">
        <ele>229.0</ele>
        <time>2019-07-10T10:45:07Z</time>
      </trkpt>
      <trkpt lat="39.5671840" lon="-7.0016020">
        <ele>230.2</ele>
        <time>2019-07-10T10:45:11Z</time>
      </trkpt>
      <trkpt lat="39.5671790" lon="-7.0016360">
        <ele>230.4</ele>
        <time>2019-07-10T10:45:12Z</time>
      </trkpt>
      <trkpt lat="39.5671610" lon="-7.0017800">
        <ele>231.4</ele>
        <time>2019-07-10T10:45:16Z</time>
      </trkpt>
      <trkpt lat="39.5671490" lon="-7.0019200">
        <ele>232.4</ele>
        <time>2019-07-10T10:45:20Z</time>
      </trkpt>
      <trkpt lat="39.5671280" lon="-7.0020960">
        <ele>233.6</ele>
        <time>2019-07-10T10:45:25Z</time>
      </trkpt>
      <trkpt lat="39.5671310" lon="-7.0021720">
        <ele>234.0</ele>
        <time>2019-07-10T10:45:27Z</time>
      </trkpt>
      <trkpt lat="39.5671270" lon="-7.0022850">
        <ele>234.8</ele>
        <time>2019-07-10T10:45:30Z</time>
      </trkpt>
      <trkpt lat="39.5671190" lon="-7.0024350">
        <ele>236.0</ele>
        <time>2019-07-10T10:45:34Z</time>
      </trkpt>
      <trkpt lat="39.5671170" lon="-7.0024730">
        <ele>236.2</ele>
        <time>2019-07-10T10:45:35Z</time>
      </trkpt>
      <trkpt lat="39.5671130" lon="-7.0026660">
        <ele>237.2</ele>
        <time>2019-07-10T10:45:40Z</time>
      </trkpt>
      <trkpt lat="39.5671190" lon="-7.0027370">
        <ele>237.8</ele>
        <time>2019-07-10T10:45:42Z</time>
      </trkpt>
      <trkpt lat="39.5671330" lon="-7.0028420">
        <ele>238.4</ele>
        <time>2019-07-10T10:45:45Z</time>
      </trkpt>
      <trkpt lat="39.5671600" lon="-7.0029760">
        <ele>239.6</ele>
        <time>2019-07-10T10:45:49Z</time>
      </trkpt>
      <trkpt lat="39.5672070" lon="-7.0031370">
        <ele>240.6</ele>
        <time>2019-07-10T10:45:54Z</time>
      </trkpt>
      <trkpt lat="39.5672270" lon="-7.0032000">
        <ele>241.0</ele>
        <time>2019-07-10T10:45:56Z</time>
      </trkpt>
      <trkpt lat="39.5672580" lon="-7.0032930">
        <ele>241.8</ele>
        <time>2019-07-10T10:45:59Z</time>
      </trkpt>
      <trkpt lat="39.5672870" lon="-7.0034180">
        <ele>242.6</ele>
        <time>2019-07-10T10:46:03Z</time>
      </trkpt>
      <trkpt lat="39.5673000" lon="-7.0034490">
        <ele>242.8</ele>
        <time>2019-07-10T10:46:04Z</time>
      </trkpt>
      <trkpt lat="39.5673500" lon="-7.0035360">
        <ele>244.0</ele>
        <time>2019-07-10T10:46:07Z</time>
      </trkpt>
      <trkpt lat="39.5673880" lon="-7.0035940">
        <ele>244.4</ele>
        <time>2019-07-10T10:46:09Z</time>
      </trkpt>
      <trkpt lat="39.5674430" lon="-7.0036780">
        <ele>245.0</ele>
        <time>2019-07-10T10:46:12Z</time>
      </trkpt>
      <trkpt lat="39.5675190" lon="-7.0037900">
        <ele>246.2</ele>
        <time>2019-07-10T10:46:16Z</time>
      </trkpt>
      <trkpt lat="39.5675410" lon="-7.0038150">
        <ele>246.4</ele>
        <time>2019-07-10T10:46:17Z</time>
      </trkpt>
      <trkpt lat="39.5676290" lon="-7.0039120">
        <ele>247.4</ele>
        <time>2019-07-10T10:46:21Z</time>
      </trkpt>
      <trkpt lat="39.5677240" lon="-7.0039900">
        <ele>248.4</ele>
        <time>2019-07-10T10:46:25Z</time>
      </trkpt>
      <trkpt lat="39.5677450" lon="-7.0040120">
        <ele>248.6</ele>
        <time>2019-07-10T10:46:26Z</time>
      </trkpt>
      <trkpt lat="39.5678540" lon="-7.0041160">
        <ele>249.6</ele>
        <time>2019-07-10T10:46:31Z</time>
      </trkpt>
      <trkpt lat="39.5679060" lon="-7.0041350">
        <ele>250.4</ele>
        <time>2019-07-10T10:46:33Z</time>
      </trkpt>
      <trkpt lat="39.5679310" lon="-7.0041470">
        <ele>250.6</ele>
        <time>2019-07-10T10:46:34Z</time>
      </trkpt>
      <trkpt lat="39.5680240" lon="-7.0042080">
        <ele>252.0</ele>
        <time>2019-07-10T10:46:38Z</time>
      </trkpt>
      <trkpt lat="39.5680760" lon="-7.0042290">
        <ele>252.6</ele>
        <time>2019-07-10T10:46:40Z</time>
      </trkpt>
      <trkpt lat="39.5681260" lon="-7.0042530">
        <ele>253.4</ele>
        <time>2019-07-10T10:46:42Z</time>
      </trkpt>
      <trkpt lat="39.5682470" lon="-7.0043160">
        <ele>254.0</ele>
        <time>2019-07-10T10:46:47Z</time>
      </trkpt>
      <trkpt lat="39.5682730" lon="-7.0043330">
        <ele>254.4</ele>
        <time>2019-07-10T10:46:48Z</time>
      </trkpt>
      <trkpt lat="39.5683810" lon="-7.0043870">
        <ele>255.6</ele>
        <time>2019-07-10T10:46:52Z</time>
      </trkpt>
      <trkpt lat="39.5684920" lon="-7.0044290">
        <ele>256.6</ele>
        <time>2019-07-10T10:46:56Z</time>
      </trkpt>
      <trkpt lat="39.5685190" lon="-7.0044410">
        <ele>256.6</ele>
        <time>2019-07-10T10:46:57Z</time>
      </trkpt>
      <trkpt lat="39.5686600" lon="-7.0045130">
        <ele>258.0</ele>
        <time>2019-07-10T10:47:02Z</time>
      </trkpt>
      <trkpt lat="39.5687140" lon="-7.0045380">
        <ele>258.6</ele>
        <time>2019-07-10T10:47:04Z</time>
      </trkpt>
      <trkpt lat="39.5687670" lon="-7.0045700">
        <ele>258.8</ele>
        <time>2019-07-10T10:47:06Z</time>
      </trkpt>
      <trkpt lat="39.5689040" lon="-7.0046410">
        <ele>259.8</ele>
        <time>2019-07-10T10:47:11Z</time>
      </trkpt>
      <trkpt lat="39.5689300" lon="-7.0046580">
        <ele>260.2</ele>
        <time>2019-07-10T10:47:12Z</time>
      </trkpt>
      <trkpt lat="39.5690940" lon="-7.0047670">
        <ele>261.4</ele>
        <time>2019-07-10T10:47:18Z</time>
      </trkpt>
      <trkpt lat="39.5691200" lon="-7.0047890">
        <ele>261.6</ele>
        <time>2019-07-10T10:47:19Z</time>
      </trkpt>
      <trkpt lat="39.5692590" lon="-7.0048950">
        <ele>262.6</ele>
        <time>2019-07-10T10:47:24Z</time>
      </trkpt>
      <trkpt lat="39.5693690" lon="-7.0049770">
        <ele>263.6</ele>
        <time>2019-07-10T10:47:28Z</time>
      </trkpt>
      <trkpt lat="39.5695830" lon="-7.0051760">
        <ele>264.6</ele>
        <time>2019-07-10T10:47:36Z</time>
      </trkpt>
      <trkpt lat="39.5697340" lon="-7.0053410">
        <ele>265.8</ele>
        <time>2019-07-10T10:47:42Z</time>
      </trkpt>
      <trkpt lat="39.5698880" lon="-7.0055480">
        <ele>266.8</ele>
        <time>2019-07-10T10:47:48Z</time>
      </trkpt>
      <trkpt lat="39.5699620" lon="-7.0056580">
        <ele>267.4</ele>
        <time>2019-07-10T10:47:51Z</time>
      </trkpt>
      <trkpt lat="39.5700410" lon="-7.0057600">
        <ele>267.8</ele>
        <time>2019-07-10T10:47:54Z</time>
      </trkpt>
      <trkpt lat="39.5701030" lon="-7.0058710">
        <ele>268.0</ele>
        <time>2019-07-10T10:47:57Z</time>
      </trkpt>
      <trkpt lat="39.5701630" lon="-7.0059870">
        <ele>268.6</ele>
        <time>2019-07-10T10:48:00Z</time>
      </trkpt>
      <trkpt lat="39.5702220" lon="-7.0061030">
        <ele>269.0</ele>
        <time>2019-07-10T10:48:03Z</time>
      </trkpt>
      <trkpt lat="39.5702380" lon="-7.0061450">
        <ele>269.0</ele>
        <time>2019-07-10T10:48:04Z</time>
      </trkpt>
      <trkpt lat="39.5703460" lon="-7.0064490">
        <ele>270.0</ele>
        <time>2019-07-10T10:48:11Z</time>
      </trkpt>
      <trkpt lat="39.5703910" lon="-7.0065760">
        <ele>270.4</ele>
        <time>2019-07-10T10:48:14Z</time>
      </trkpt>
      <trkpt lat="39.5704470" lon="-7.0067450">
        <ele>271.2</ele>
        <time>2019-07-10T10:48:18Z</time>
      </trkpt>
      <trkpt lat="39.5704910" lon="-7.0069250">
        <ele>271.6</ele>
        <time>2019-07-10T10:48:22Z</time>
      </trkpt>
      <trkpt lat="39.5705430" lon="-7.0071480">
        <ele>272.2</ele>
        <time>2019-07-10T10:48:27Z</time>
      </trkpt>
      <trkpt lat="39.5705810" lon="-7.0073790">
        <ele>273.0</ele>
        <time>2019-07-10T10:48:32Z</time>
      </trkpt>
      <trkpt lat="39.5705930" lon="-7.0074710">
        <ele>273.2</ele>
        <time>2019-07-10T10:48:34Z</time>
      </trkpt>
      <trkpt lat="39.5706270" lon="-7.0076990">
        <ele>274.4</ele>
        <time>2019-07-10T10:48:39Z</time>
      </trkpt>
      <trkpt lat="39.5706540" lon="-7.0079740">
        <ele>275.4</ele>
        <time>2019-07-10T10:48:45Z</time>
      </trkpt>
      <trkpt lat="39.5706970" lon="-7.0083870">
        <ele>276.4</ele>
        <time>2019-07-10T10:48:54Z</time>
      </trkpt>
      <trkpt lat="39.5707030" lon="-7.0084330">
        <ele>276.6</ele>
        <time>2019-07-10T10:48:55Z</time>
      </trkpt>
      <trkpt lat="39.5707400" lon="-7.0087200">
        <ele>277.8</ele>
        <time>2019-07-10T10:49:01Z</time>
      </trkpt>
      <trkpt lat="39.5707580" lon="-7.0088180">
        <ele>278.0</ele>
        <time>2019-07-10T10:49:03Z</time>
      </trkpt>
      <trkpt lat="39.5707950" lon="-7.0090690">
        <ele>278.8</ele>
        <time>2019-07-10T10:49:08Z</time>
      </trkpt>
      <trkpt lat="39.5708080" lon="-7.0091750">
        <ele>279.4</ele>
        <time>2019-07-10T10:49:10Z</time>
      </trkpt>
      <trkpt lat="39.5708200" lon="-7.0092860">
        <ele>279.6</ele>
        <time>2019-07-10T10:49:12Z</time>
      </trkpt>
      <trkpt lat="39.5708560" lon="-7.0095650">
        <ele>279.8</ele>
        <time>2019-07-10T10:49:17Z</time>
      </trkpt>
      <trkpt lat="39.5708870" lon="-7.0098490">
        <ele>280.2</ele>
        <time>2019-07-10T10:49:22Z</time>
      </trkpt>
      <trkpt lat="39.5709280" lon="-7.0101970">
        <ele>280.6</ele>
        <time>2019-07-10T10:49:28Z</time>
      </trkpt>
      <trkpt lat="39.5709340" lon="-7.0102560">
        <ele>280.6</ele>
        <time>2019-07-10T10:49:29Z</time>
      </trkpt>
      <trkpt lat="39.5709580" lon="-7.0105680">
        <ele>280.8</ele>
        <time>2019-07-10T10:49:34Z</time>
      </trkpt>
      <trkpt lat="39.5709650" lon="-7.0107590">
        <ele>281.0</ele>
        <time>2019-07-10T10:49:37Z</time>
      </trkpt>
      <trkpt lat="39.5709700" lon="-7.0108890">
        <ele>281.0</ele>
        <time>2019-07-10T10:49:39Z</time>
      </trkpt>
      <trkpt lat="39.5709730" lon="-7.0109550">
        <ele>281.2</ele>
        <time>2019-07-10T10:49:40Z</time>
      </trkpt>
      <trkpt lat="39.5709730" lon="-7.0111570">
        <ele>281.2</ele>
        <time>2019-07-10T10:49:43Z</time>
      </trkpt>
      <trkpt lat="39.5709530" lon="-7.0115150">
        <ele>280.8</ele>
        <time>2019-07-10T10:49:48Z</time>
      </trkpt>
      <trkpt lat="39.5709470" lon="-7.0115900">
        <ele>280.8</ele>
        <time>2019-07-10T10:49:49Z</time>
      </trkpt>
      <trkpt lat="39.5709260" lon="-7.0118190">
        <ele>280.8</ele>
        <time>2019-07-10T10:49:52Z</time>
      </trkpt>
      <trkpt lat="39.5708960" lon="-7.0120560">
        <ele>280.8</ele>
        <time>2019-07-10T10:49:55Z</time>
      </trkpt>
      <trkpt lat="39.5708730" lon="-7.0122960">
        <ele>280.6</ele>
        <time>2019-07-10T10:49:58Z</time>
      </trkpt>
      <trkpt lat="39.5708120" lon="-7.0126980">
        <ele>280.4</ele>
        <time>2019-07-10T10:50:03Z</time>
      </trkpt>
      <trkpt lat="39.5707100" lon="-7.0130030">
        <ele>280.2</ele>
        <time>2019-07-10T10:50:07Z</time>
      </trkpt>
      <trkpt lat="39.5706490" lon="-7.0131530">
        <ele>280.0</ele>
        <time>2019-07-10T10:50:09Z</time>
      </trkpt>
      <trkpt lat="39.5703950" lon="-7.0135550">
        <ele>279.8</ele>
        <time>2019-07-10T10:50:15Z</time>
      </trkpt>
      <trkpt lat="39.5703450" lon="-7.0136170">
        <ele>279.8</ele>
        <time>2019-07-10T10:50:16Z</time>
      </trkpt>
      <trkpt lat="39.5700180" lon="-7.0139620">
        <ele>279.2</ele>
        <time>2019-07-10T10:50:22Z</time>
      </trkpt>
      <trkpt lat="39.5695650" lon="-7.0144210">
        <ele>279.4</ele>
        <time>2019-07-10T10:50:30Z</time>
      </trkpt>
      <trkpt lat="39.5695090" lon="-7.0144760">
        <ele>279.4</ele>
        <time>2019-07-10T10:50:31Z</time>
      </trkpt>
      <trkpt lat="39.5692420" lon="-7.0147400">
        <ele>279.4</ele>
        <time>2019-07-10T10:50:36Z</time>
      </trkpt>
      <trkpt lat="39.5690430" lon="-7.0149370">
        <ele>279.2</ele>
        <time>2019-07-10T10:50:40Z</time>
      </trkpt>
      <trkpt lat="39.5689440" lon="-7.0150380">
        <ele>279.2</ele>
        <time>2019-07-10T10:50:42Z</time>
      </trkpt>
      <trkpt lat="39.5686480" lon="-7.0153410">
        <ele>279.0</ele>
        <time>2019-07-10T10:50:48Z</time>
      </trkpt>
      <trkpt lat="39.5684000" lon="-7.0155800">
        <ele>279.0</ele>
        <time>2019-07-10T10:50:53Z</time>
      </trkpt>
      <trkpt lat="39.5682550" lon="-7.0157260">
        <ele>279.4</ele>
        <time>2019-07-10T10:50:56Z</time>
      </trkpt>
      <trkpt lat="39.5678350" lon="-7.0161620">
        <ele>280.0</ele>
        <time>2019-07-10T10:51:05Z</time>
      </trkpt>
      <trkpt lat="39.5675090" lon="-7.0164770">
        <ele>280.2</ele>
        <time>2019-07-10T10:51:12Z</time>
      </trkpt>
      <trkpt lat="39.5670900" lon="-7.0169020">
        <ele>280.6</ele>
        <time>2019-07-10T10:51:21Z</time>
      </trkpt>
      <trkpt lat="39.5667520" lon="-7.0172330">
        <ele>280.6</ele>
        <time>2019-07-10T10:51:28Z</time>
      </trkpt>
      <trkpt lat="39.5665110" lon="-7.0174780">
        <ele>281.0</ele>
        <time>2019-07-10T10:51:33Z</time>
      </trkpt>
      <trkpt lat="39.5663610" lon="-7.0176160">
        <ele>281.4</ele>
        <time>2019-07-10T10:51:36Z</time>
      </trkpt>
      <trkpt lat="39.5661330" lon="-7.0178680">
        <ele>282.2</ele>
        <time>2019-07-10T10:51:41Z</time>
      </trkpt>
      <trkpt lat="39.5659940" lon="-7.0180070">
        <ele>282.6</ele>
        <time>2019-07-10T10:51:44Z</time>
      </trkpt>
      <trkpt lat="39.5656320" lon="-7.0183760">
        <ele>282.4</ele>
        <time>2019-07-10T10:51:52Z</time>
      </trkpt>
      <trkpt lat="39.5652300" lon="-7.0187970">
        <ele>283.0</ele>
        <time>2019-07-10T10:52:01Z</time>
      </trkpt>
      <trkpt lat="39.5651370" lon="-7.0188890">
        <ele>283.2</ele>
        <time>2019-07-10T10:52:03Z</time>
      </trkpt>
      <trkpt lat="39.5648170" lon="-7.0192140">
        <ele>283.4</ele>
        <time>2019-07-10T10:52:10Z</time>
      </trkpt>
      <trkpt lat="39.5643450" lon="-7.0196770">
        <ele>283.8</ele>
        <time>2019-07-10T10:52:20Z</time>
      </trkpt>
      <trkpt lat="39.5642980" lon="-7.0197250">
        <ele>284.0</ele>
        <time>2019-07-10T10:52:21Z</time>
      </trkpt>
      <trkpt lat="39.5638740" lon="-7.0201550">
        <ele>284.4</ele>
        <time>2019-07-10T10:52:30Z</time>
      </trkpt>
      <trkpt lat="39.5638270" lon="-7.0202030">
        <ele>284.4</ele>
        <time>2019-07-10T10:52:31Z</time>
      </trkpt>
      <trkpt lat="39.5634060" lon="-7.0206560">
        <ele>284.8</ele>
        <time>2019-07-10T10:52:40Z</time>
      </trkpt>
      <trkpt lat="39.5630950" lon="-7.0211670">
        <ele>285.2</ele>
        <time>2019-07-10T10:52:48Z</time>
      </trkpt>
      <trkpt lat="39.5630050" lon="-7.0213810">
        <ele>285.4</ele>
        <time>2019-07-10T10:52:51Z</time>
      </trkpt>
      <trkpt lat="39.5628890" lon="-7.0217610">
        <ele>285.4</ele>
        <time>2019-07-10T10:52:56Z</time>
      </trkpt>
      <trkpt lat="39.5627410" lon="-7.0224730">
        <ele>286.0</ele>
        <time>2019-07-10T10:53:05Z</time>
      </trkpt>
      <trkpt lat="39.5625930" lon="-7.0231740">
        <ele>286.0</ele>
        <time>2019-07-10T10:53:14Z</time>
      </trkpt>
      <trkpt lat="39.5625750" lon="-7.0232500">
        <ele>286.0</ele>
        <time>2019-07-10T10:53:15Z</time>
      </trkpt>
      <trkpt lat="39.5625040" lon="-7.0235490">
        <ele>286.4</ele>
        <time>2019-07-10T10:53:19Z</time>
      </trkpt>
      <trkpt lat="39.5624340" lon="-7.0237660">
        <ele>286.6</ele>
        <time>2019-07-10T10:53:22Z</time>
      </trkpt>
      <trkpt lat="39.5622010" lon="-7.0242330">
        <ele>287.4</ele>
        <time>2019-07-10T10:53:29Z</time>
      </trkpt>
      <trkpt lat="39.5620290" lon="-7.0244580">
        <ele>287.6</ele>
        <time>2019-07-10T10:53:33Z</time>
      </trkpt>
      <trkpt lat="39.5619310" lon="-7.0245580">
        <ele>287.6</ele>
        <time>2019-07-10T10:53:35Z</time>
      </trkpt>
      <trkpt lat="39.5615560" lon="-7.0248350">
        <ele>288.0</ele>
        <time>2019-07-10T10:53:42Z</time>
      </trkpt>
      <trkpt lat="39.5611940" lon="-7.0249440">
        <ele>288.4</ele>
        <time>2019-07-10T10:53:48Z</time>
      </trkpt>
      <trkpt lat="39.5610680" lon="-7.0249650">
        <ele>288.6</ele>
        <time>2019-07-10T10:53:50Z</time>
      </trkpt>
      <trkpt lat="39.5606920" lon="-7.0250070">
        <ele>288.8</ele>
        <time>2019-07-10T10:53:56Z</time>
      </trkpt>
      <trkpt lat="39.5601380" lon="-7.0250610">
        <ele>289.6</ele>
        <time>2019-07-10T10:54:05Z</time>
      </trkpt>
      <trkpt lat="39.5597790" lon="-7.0250910">
        <ele>290.0</ele>
        <time>2019-07-10T10:54:11Z</time>
      </trkpt>
      <trkpt lat="39.5591910" lon="-7.0251450">
        <ele>290.6</ele>
        <time>2019-07-10T10:54:21Z</time>
      </trkpt>
      <trkpt lat="39.5588380" lon="-7.0251770">
        <ele>291.0</ele>
        <time>2019-07-10T10:54:27Z</time>
      </trkpt>
      <trkpt lat="39.5586600" lon="-7.0252000">
        <ele>291.0</ele>
        <time>2019-07-10T10:54:30Z</time>
      </trkpt>
      <trkpt lat="39.5581890" lon="-7.0252500">
        <ele>290.8</ele>
        <time>2019-07-10T10:54:38Z</time>
      </trkpt>
      <trkpt lat="39.5577750" lon="-7.0252950">
        <ele>291.4</ele>
        <time>2019-07-10T10:54:45Z</time>
      </trkpt>
      <trkpt lat="39.5572030" lon="-7.0253570">
        <ele>291.6</ele>
        <time>2019-07-10T10:54:55Z</time>
      </trkpt>
      <trkpt lat="39.5569160" lon="-7.0253860">
        <ele>292.0</ele>
        <time>2019-07-10T10:55:00Z</time>
      </trkpt>
      <trkpt lat="39.5566260" lon="-7.0254040">
        <ele>292.6</ele>
        <time>2019-07-10T10:55:05Z</time>
      </trkpt>
      <trkpt lat="39.5561660" lon="-7.0254530">
        <ele>293.2</ele>
        <time>2019-07-10T10:55:13Z</time>
      </trkpt>
      <trkpt lat="39.5561080" lon="-7.0254560">
        <ele>293.2</ele>
        <time>2019-07-10T10:55:14Z</time>
      </trkpt>
      <trkpt lat="39.5557630" lon="-7.0255050">
        <ele>293.6</ele>
        <time>2019-07-10T10:55:20Z</time>
      </trkpt>
      <trkpt lat="39.5552020" lon="-7.0255550">
        <ele>294.2</ele>
        <time>2019-07-10T10:55:30Z</time>
      </trkpt>
      <trkpt lat="39.5549800" lon="-7.0255430">
        <ele>294.2</ele>
        <time>2019-07-10T10:55:34Z</time>
      </trkpt>
      <trkpt lat="39.5548100" lon="-7.0255080">
        <ele>294.6</ele>
        <time>2019-07-10T10:55:37Z</time>
      </trkpt>
      <trkpt lat="39.5547540" lon="-7.0254880">
        <ele>294.6</ele>
        <time>2019-07-10T10:55:38Z</time>
      </trkpt>
      <trkpt lat="39.5545180" lon="-7.0253830">
        <ele>294.2</ele>
        <time>2019-07-10T10:55:42Z</time>
      </trkpt>
      <trkpt lat="39.5544040" lon="-7.0252930">
        <ele>294.2</ele>
        <time>2019-07-10T10:55:44Z</time>
      </trkpt>
      <trkpt lat="39.5540780" lon="-7.0249880">
        <ele>293.6</ele>
        <time>2019-07-10T10:55:50Z</time>
      </trkpt>
      <trkpt lat="39.5540240" lon="-7.0249280">
        <ele>293.2</ele>
        <time>2019-07-10T10:55:51Z</time>
      </trkpt>
      <trkpt lat="39.5536590" lon="-7.0245450">
        <ele>292.2</ele>
        <time>2019-07-10T10:55:57Z</time>
      </trkpt>
      <trkpt lat="39.5535860" lon="-7.0244870">
        <ele>291.8</ele>
        <time>2019-07-10T10:55:58Z</time>
      </trkpt>
      <trkpt lat="39.5533410" lon="-7.0243440">
        <ele>290.8</ele>
        <time>2019-07-10T10:56:01Z</time>
      </trkpt>
      <trkpt lat="39.5532510" lon="-7.0243080">
        <ele>290.4</ele>
        <time>2019-07-10T10:56:02Z</time>
      </trkpt>
      <trkpt lat="39.5530620" lon="-7.0242620">
        <ele>289.6</ele>
        <time>2019-07-10T10:56:04Z</time>
      </trkpt>
      <trkpt lat="39.5528610" lon="-7.0242560">
        <ele>288.6</ele>
        <time>2019-07-10T10:56:06Z</time>
      </trkpt>
      <trkpt lat="39.5527590" lon="-7.0242630">
        <ele>288.0</ele>
        <time>2019-07-10T10:56:07Z</time>
      </trkpt>
      <trkpt lat="39.5525560" lon="-7.0242880">
        <ele>287.6</ele>
        <time>2019-07-10T10:56:09Z</time>
      </trkpt>
      <trkpt lat="39.5523530" lon="-7.0243250">
        <ele>287.0</ele>
        <time>2019-07-10T10:56:11Z</time>
      </trkpt>
      <trkpt lat="39.5522510" lon="-7.0243420">
        <ele>286.6</ele>
        <time>2019-07-10T10:56:12Z</time>
      </trkpt>
      <trkpt lat="39.5520500" lon="-7.0243780">
        <ele>285.6</ele>
        <time>2019-07-10T10:56:14Z</time>
      </trkpt>
      <trkpt lat="39.5515670" lon="-7.0244710">
        <ele>284.6</ele>
        <time>2019-07-10T10:56:19Z</time>
      </trkpt>
      <trkpt lat="39.5514750" lon="-7.0244890">
        <ele>284.4</ele>
        <time>2019-07-10T10:56:20Z</time>
      </trkpt>
      <trkpt lat="39.5512930" lon="-7.0245210">
        <ele>284.0</ele>
        <time>2019-07-10T10:56:22Z</time>
      </trkpt>
      <trkpt lat="39.5510350" lon="-7.0245620">
        <ele>283.6</ele>
        <time>2019-07-10T10:56:25Z</time>
      </trkpt>
      <trkpt lat="39.5508750" lon="-7.0245970">
        <ele>283.4</ele>
        <time>2019-07-10T10:56:27Z</time>
      </trkpt>
      <trkpt lat="39.5507250" lon="-7.0246380">
        <ele>283.4</ele>
        <time>2019-07-10T10:56:29Z</time>
      </trkpt>
      <trkpt lat="39.5504550" lon="-7.0247240">
        <ele>283.4</ele>
        <time>2019-07-10T10:56:33Z</time>
      </trkpt>
      <trkpt lat="39.5503310" lon="-7.0247760">
        <ele>283.4</ele>
        <time>2019-07-10T10:56:35Z</time>
      </trkpt>
      <trkpt lat="39.5501050" lon="-7.0248960">
        <ele>283.4</ele>
        <time>2019-07-10T10:56:39Z</time>
      </trkpt>
      <trkpt lat="39.5500540" lon="-7.0249290">
        <ele>283.4</ele>
        <time>2019-07-10T10:56:40Z</time>
      </trkpt>
      <trkpt lat="39.5499110" lon="-7.0250290">
        <ele>283.6</ele>
        <time>2019-07-10T10:56:43Z</time>
      </trkpt>
      <trkpt lat="39.5497780" lon="-7.0251350">
        <ele>283.8</ele>
        <time>2019-07-10T10:56:46Z</time>
      </trkpt>
      <trkpt lat="39.5497370" lon="-7.0251690">
        <ele>284.2</ele>
        <time>2019-07-10T10:56:47Z</time>
      </trkpt>
      <trkpt lat="39.5496570" lon="-7.0252450">
        <ele>284.4</ele>
        <time>2019-07-10T10:56:49Z</time>
      </trkpt>
      <trkpt lat="39.5495820" lon="-7.0253270">
        <ele>284.6</ele>
        <time>2019-07-10T10:56:51Z</time>
      </trkpt>
      <trkpt lat="39.5495070" lon="-7.0254060">
        <ele>284.8</ele>
        <time>2019-07-10T10:56:53Z</time>
      </trkpt>
      <trkpt lat="39.5494350" lon="-7.0254860">
        <ele>285.2</ele>
        <time>2019-07-10T10:56:55Z</time>
      </trkpt>
      <trkpt lat="39.5493680" lon="-7.0255710">
        <ele>285.6</ele>
        <time>2019-07-10T10:56:57Z</time>
      </trkpt>
      <trkpt lat="39.5492760" lon="-7.0256980">
        <ele>286.6</ele>
        <time>2019-07-10T10:57:00Z</time>
      </trkpt>
      <trkpt lat="39.5492470" lon="-7.0257420">
        <ele>286.8</ele>
        <time>2019-07-10T10:57:01Z</time>
      </trkpt>
      <trkpt lat="39.5492190" lon="-7.0257860">
        <ele>287.2</ele>
        <time>2019-07-10T10:57:02Z</time>
      </trkpt>
      <trkpt lat="39.5491320" lon="-7.0259240">
        <ele>287.6</ele>
        <time>2019-07-10T10:57:05Z</time>
      </trkpt>
      <trkpt lat="39.5490750" lon="-7.0260180">
        <ele>287.8</ele>
        <time>2019-07-10T10:57:07Z</time>
      </trkpt>
      <trkpt lat="39.5489940" lon="-7.0261610">
        <ele>288.8</ele>
        <time>2019-07-10T10:57:10Z</time>
      </trkpt>
      <trkpt lat="39.5489450" lon="-7.0262620">
        <ele>289.2</ele>
        <time>2019-07-10T10:57:12Z</time>
      </trkpt>
      <trkpt lat="39.5489220" lon="-7.0263120">
        <ele>289.4</ele>
        <time>2019-07-10T10:57:13Z</time>
      </trkpt>
      <trkpt lat="39.5488330" lon="-7.0264980">
        <ele>290.2</ele>
        <time>2019-07-10T10:57:17Z</time>
      </trkpt>
      <trkpt lat="39.5487410" lon="-7.0266880">
        <ele>291.0</ele>
        <time>2019-07-10T10:57:21Z</time>
      </trkpt>
      <trkpt lat="39.5486980" lon="-7.0267860">
        <ele>291.4</ele>
        <time>2019-07-10T10:57:23Z</time>
      </trkpt>
      <trkpt lat="39.5485380" lon="-7.0271220">
        <ele>292.6</ele>
        <time>2019-07-10T10:57:30Z</time>
      </trkpt>
      <trkpt lat="39.5484890" lon="-7.0272150">
        <ele>293.2</ele>
        <time>2019-07-10T10:57:32Z</time>
      </trkpt>
      <trkpt lat="39.5483930" lon="-7.0274120">
        <ele>293.8</ele>
        <time>2019-07-10T10:57:36Z</time>
      </trkpt>
      <trkpt lat="39.5483070" lon="-7.0276170">
        <ele>294.8</ele>
        <time>2019-07-10T10:57:40Z</time>
      </trkpt>
      <trkpt lat="39.5482600" lon="-7.0277150">
        <ele>295.4</ele>
        <time>2019-07-10T10:57:42Z</time>
      </trkpt>
      <trkpt lat="39.5481840" lon="-7.0278570">
        <ele>295.8</ele>
        <time>2019-07-10T10:57:45Z</time>
      </trkpt>
      <trkpt lat="39.5481620" lon="-7.0279070">
        <ele>296.0</ele>
        <time>2019-07-10T10:57:46Z</time>
      </trkpt>
      <trkpt lat="39.5480980" lon="-7.0280600">
        <ele>296.8</ele>
        <time>2019-07-10T10:57:49Z</time>
      </trkpt>
      <trkpt lat="39.5480740" lon="-7.0281100">
        <ele>297.0</ele>
        <time>2019-07-10T10:57:50Z</time>
      </trkpt>
      <trkpt lat="39.5479060" lon="-7.0284130">
        <ele>298.2</ele>
        <time>2019-07-10T10:57:56Z</time>
      </trkpt>
      <trkpt lat="39.5478790" lon="-7.0284650">
        <ele>298.2</ele>
        <time>2019-07-10T10:57:57Z</time>
      </trkpt>
      <trkpt lat="39.5477200" lon="-7.0287160">
        <ele>299.2</ele>
        <time>2019-07-10T10:58:02Z</time>
      </trkpt>
      <trkpt lat="39.5476500" lon="-7.0288170">
        <ele>299.6</ele>
        <time>2019-07-10T10:58:04Z</time>
      </trkpt>
      <trkpt lat="39.5474980" lon="-7.0290050">
        <ele>300.2</ele>
        <time>2019-07-10T10:58:08Z</time>
      </trkpt>
      <trkpt lat="39.5473430" lon="-7.0291760">
        <ele>301.2</ele>
        <time>2019-07-10T10:58:12Z</time>
      </trkpt>
      <trkpt lat="39.5470940" lon="-7.0294050">
        <ele>301.8</ele>
        <time>2019-07-10T10:58:18Z</time>
      </trkpt>
      <trkpt lat="39.5469670" lon="-7.0295210">
        <ele>302.4</ele>
        <time>2019-07-10T10:58:21Z</time>
      </trkpt>
      <trkpt lat="39.5467570" lon="-7.0297140">
        <ele>303.0</ele>
        <time>2019-07-10T10:58:26Z</time>
      </trkpt>
      <trkpt lat="39.5465500" lon="-7.0299100">
        <ele>303.4</ele>
        <time>2019-07-10T10:58:31Z</time>
      </trkpt>
      <trkpt lat="39.5462910" lon="-7.0301390">
        <ele>304.4</ele>
        <time>2019-07-10T10:58:37Z</time>
      </trkpt>
      <trkpt lat="39.5461140" lon="-7.0302960">
        <ele>304.8</ele>
        <time>2019-07-10T10:58:41Z</time>
      </trkpt>
      <trkpt lat="39.5458460" lon="-7.0305320">
        <ele>305.4</ele>
        <time>2019-07-10T10:58:47Z</time>
      </trkpt>
      <trkpt lat="39.5457560" lon="-7.0306160">
        <ele>305.6</ele>
        <time>2019-07-10T10:58:49Z</time>
      </trkpt>
      <trkpt lat="39.5454770" lon="-7.0308700">
        <ele>306.0</ele>
        <time>2019-07-10T10:58:55Z</time>
      </trkpt>
      <trkpt lat="39.5452910" lon="-7.0310330">
        <ele>306.6</ele>
        <time>2019-07-10T10:58:59Z</time>
      </trkpt>
      <trkpt lat="39.5450180" lon="-7.0312840">
        <ele>307.6</ele>
        <time>2019-07-10T10:59:05Z</time>
      </trkpt>
      <trkpt lat="39.5449730" lon="-7.0313270">
        <ele>307.6</ele>
        <time>2019-07-10T10:59:06Z</time>
      </trkpt>
      <trkpt lat="39.5446490" lon="-7.0316190">
        <ele>308.4</ele>
        <time>2019-07-10T10:59:13Z</time>
      </trkpt>
      <trkpt lat="39.5445120" lon="-7.0317410">
        <ele>308.8</ele>
        <time>2019-07-10T10:59:16Z</time>
      </trkpt>
      <trkpt lat="39.5442280" lon="-7.0319700">
        <ele>309.6</ele>
        <time>2019-07-10T10:59:22Z</time>
      </trkpt>
      <trkpt lat="39.5441830" lon="-7.0320090">
        <ele>309.8</ele>
        <time>2019-07-10T10:59:23Z</time>
      </trkpt>
      <trkpt lat="39.5438900" lon="-7.0322030">
        <ele>310.8</ele>
        <time>2019-07-10T10:59:29Z</time>
      </trkpt>
      <trkpt lat="39.5437890" lon="-7.0322560">
        <ele>310.8</ele>
        <time>2019-07-10T10:59:31Z</time>
      </trkpt>
      <trkpt lat="39.5434860" lon="-7.0323810">
        <ele>311.4</ele>
        <time>2019-07-10T10:59:37Z</time>
      </trkpt>
      <trkpt lat="39.5430900" lon="-7.0324750">
        <ele>311.4</ele>
        <time>2019-07-10T10:59:44Z</time>
      </trkpt>
      <trkpt lat="39.5427790" lon="-7.0325090">
        <ele>311.6</ele>
        <time>2019-07-10T10:59:49Z</time>
      </trkpt>
      <trkpt lat="39.5427140" lon="-7.0325130">
        <ele>311.4</ele>
        <time>2019-07-10T10:59:50Z</time>
      </trkpt>
      <trkpt lat="39.5423660" lon="-7.0325420">
        <ele>310.8</ele>
        <time>2019-07-10T10:59:55Z</time>
      </trkpt>
      <trkpt lat="39.5422150" lon="-7.0325530">
        <ele>310.4</ele>
        <time>2019-07-10T10:59:57Z</time>
      </trkpt>
      <trkpt lat="39.5419820" lon="-7.0325700">
        <ele>310.0</ele>
        <time>2019-07-10T11:00:00Z</time>
      </trkpt>
      <trkpt lat="39.5419020" lon="-7.0325750">
        <ele>309.8</ele>
        <time>2019-07-10T11:00:01Z</time>
      </trkpt>
      <trkpt lat="39.5415880" lon="-7.0326050">
        <ele>309.2</ele>
        <time>2019-07-10T11:00:05Z</time>
      </trkpt>
      <trkpt lat="39.5412770" lon="-7.0326340">
        <ele>308.6</ele>
        <time>2019-07-10T11:00:09Z</time>
      </trkpt>
      <trkpt lat="39.5411250" lon="-7.0326570">
        <ele>308.2</ele>
        <time>2019-07-10T11:00:11Z</time>
      </trkpt>
      <trkpt lat="39.5410500" lon="-7.0326670">
        <ele>307.8</ele>
        <time>2019-07-10T11:00:12Z</time>
      </trkpt>
      <trkpt lat="39.5409740" lon="-7.0326750">
        <ele>307.4</ele>
        <time>2019-07-10T11:00:13Z</time>
      </trkpt>
      <trkpt lat="39.5406720" lon="-7.0327100">
        <ele>307.2</ele>
        <time>2019-07-10T11:00:17Z</time>
      </trkpt>
      <trkpt lat="39.5405290" lon="-7.0327450">
        <ele>307.2</ele>
        <time>2019-07-10T11:00:19Z</time>
      </trkpt>
      <trkpt lat="39.5403910" lon="-7.0327850">
        <ele>307.0</ele>
        <time>2019-07-10T11:00:21Z</time>
      </trkpt>
      <trkpt lat="39.5402600" lon="-7.0328350">
        <ele>306.8</ele>
        <time>2019-07-10T11:00:23Z</time>
      </trkpt>
      <trkpt lat="39.5401330" lon="-7.0328960">
        <ele>307.0</ele>
        <time>2019-07-10T11:00:25Z</time>
      </trkpt>
      <trkpt lat="39.5400690" lon="-7.0329240">
        <ele>307.0</ele>
        <time>2019-07-10T11:00:26Z</time>
      </trkpt>
      <trkpt lat="39.5399460" lon="-7.0329900">
        <ele>307.2</ele>
        <time>2019-07-10T11:00:28Z</time>
      </trkpt>
      <trkpt lat="39.5397040" lon="-7.0331490">
        <ele>307.2</ele>
        <time>2019-07-10T11:00:32Z</time>
      </trkpt>
      <trkpt lat="39.5393800" lon="-7.0334320">
        <ele>307.2</ele>
        <time>2019-07-10T11:00:38Z</time>
      </trkpt>
      <trkpt lat="39.5393290" lon="-7.0334820">
        <ele>307.2</ele>
        <time>2019-07-10T11:00:39Z</time>
      </trkpt>
      <trkpt lat="39.5390280" lon="-7.0337760">
        <ele>307.6</ele>
        <time>2019-07-10T11:00:45Z</time>
      </trkpt>
      <trkpt lat="39.5389800" lon="-7.0338250">
        <ele>307.6</ele>
        <time>2019-07-10T11:00:46Z</time>
      </trkpt>
      <trkpt lat="39.5386480" lon="-7.0341740">
        <ele>307.6</ele>
        <time>2019-07-10T11:00:53Z</time>
      </trkpt>
      <trkpt lat="39.5383170" lon="-7.0345170">
        <ele>308.0</ele>
        <time>2019-07-10T11:01:00Z</time>
      </trkpt>
      <trkpt lat="39.5379950" lon="-7.0348520">
        <ele>308.0</ele>
        <time>2019-07-10T11:01:07Z</time>
      </trkpt>
      <trkpt lat="39.5378340" lon="-7.0350210">
        <ele>308.0</ele>
        <time>2019-07-10T11:01:11Z</time>
      </trkpt>
      <trkpt lat="39.5377940" lon="-7.0350560">
        <ele>308.0</ele>
        <time>2019-07-10T11:01:12Z</time>
      </trkpt>
      <trkpt lat="39.5374440" lon="-7.0354280">
        <ele>308.0</ele>
        <time>2019-07-10T11:01:21Z</time>
      </trkpt>
      <trkpt lat="39.5371140" lon="-7.0357710">
        <ele>308.4</ele>
        <time>2019-07-10T11:01:29Z</time>
      </trkpt>
      <trkpt lat="39.5368750" lon="-7.0360400">
        <ele>308.6</ele>
        <time>2019-07-10T11:01:35Z</time>
      </trkpt>
      <trkpt lat="39.5368340" lon="-7.0360820">
        <ele>308.8</ele>
        <time>2019-07-10T11:01:36Z</time>
      </trkpt>
      <trkpt lat="39.5367530" lon="-7.0361650">
        <ele>309.0</ele>
        <time>2019-07-10T11:01:38Z</time>
      </trkpt>
      <trkpt lat="39.5364800" lon="-7.0364430">
        <ele>309.8</ele>
        <time>2019-07-10T11:01:45Z</time>
      </trkpt>
      <trkpt lat="39.5364450" lon="-7.0364840">
        <ele>310.0</ele>
        <time>2019-07-10T11:01:46Z</time>
      </trkpt>
      <trkpt lat="39.5361880" lon="-7.0367410">
        <ele>310.8</ele>
        <time>2019-07-10T11:01:53Z</time>
      </trkpt>
      <trkpt lat="39.5361520" lon="-7.0367770">
        <ele>311.0</ele>
        <time>2019-07-10T11:01:54Z</time>
      </trkpt>
      <trkpt lat="39.5360820" lon="-7.0368460">
        <ele>311.4</ele>
        <time>2019-07-10T11:01:56Z</time>
      </trkpt>
      <trkpt lat="39.5359780" lon="-7.0369480">
        <ele>312.0</ele>
        <time>2019-07-10T11:01:59Z</time>
      </trkpt>
      <trkpt lat="39.5358490" lon="-7.0370970">
        <ele>312.8</ele>
        <time>2019-07-10T11:02:03Z</time>
      </trkpt>
      <trkpt lat="39.5357850" lon="-7.0371710">
        <ele>313.0</ele>
        <time>2019-07-10T11:02:05Z</time>
      </trkpt>
      <trkpt lat="39.5357520" lon="-7.0372060">
        <ele>313.2</ele>
        <time>2019-07-10T11:02:06Z</time>
      </trkpt>
      <trkpt lat="39.5356150" lon="-7.0373390">
        <ele>314.0</ele>
        <time>2019-07-10T11:02:10Z</time>
      </trkpt>
      <trkpt lat="39.5355800" lon="-7.0373740">
        <ele>314.2</ele>
        <time>2019-07-10T11:02:11Z</time>
      </trkpt>
      <trkpt lat="39.5355150" lon="-7.0374520">
        <ele>314.6</ele>
        <time>2019-07-10T11:02:13Z</time>
      </trkpt>
      <trkpt lat="39.5353840" lon="-7.0376120">
        <ele>315.4</ele>
        <time>2019-07-10T11:02:17Z</time>
      </trkpt>
      <trkpt lat="39.5352360" lon="-7.0378270">
        <ele>315.8</ele>
        <time>2019-07-10T11:02:22Z</time>
      </trkpt>
      <trkpt lat="39.5351490" lon="-7.0379670">
        <ele>316.4</ele>
        <time>2019-07-10T11:02:25Z</time>
      </trkpt>
      <trkpt lat="39.5350180" lon="-7.0382140">
        <ele>317.0</ele>
        <time>2019-07-10T11:02:30Z</time>
      </trkpt>
      <trkpt lat="39.5349440" lon="-7.0383660">
        <ele>317.6</ele>
        <time>2019-07-10T11:02:33Z</time>
      </trkpt>
      <trkpt lat="39.5348320" lon="-7.0386280">
        <ele>318.0</ele>
        <time>2019-07-10T11:02:38Z</time>
      </trkpt>
      <trkpt lat="39.5347390" lon="-7.0389080">
        <ele>318.4</ele>
        <time>2019-07-10T11:02:43Z</time>
      </trkpt>
      <trkpt lat="39.5347210" lon="-7.0389650">
        <ele>318.6</ele>
        <time>2019-07-10T11:02:44Z</time>
      </trkpt>
      <trkpt lat="39.5346990" lon="-7.0390190">
        <ele>318.6</ele>
        <time>2019-07-10T11:02:45Z</time>
      </trkpt>
      <trkpt lat="39.5346750" lon="-7.0390720">
        <ele>318.8</ele>
        <time>2019-07-10T11:02:46Z</time>
      </trkpt>
      <trkpt lat="39.5345700" lon="-7.0393480">
        <ele>319.6</ele>
        <time>2019-07-10T11:02:51Z</time>
      </trkpt>
      <trkpt lat="39.5344940" lon="-7.0395780">
        <ele>320.2</ele>
        <time>2019-07-10T11:02:55Z</time>
      </trkpt>
      <trkpt lat="39.5344130" lon="-7.0398030">
        <ele>320.6</ele>
        <time>2019-07-10T11:02:59Z</time>
      </trkpt>
      <trkpt lat="39.5342780" lon="-7.0401430">
        <ele>321.4</ele>
        <time>2019-07-10T11:03:05Z</time>
      </trkpt>
      <trkpt lat="39.5342110" lon="-7.0403210">
        <ele>321.6</ele>
        <time>2019-07-10T11:03:08Z</time>
      </trkpt>
      <trkpt lat="39.5341900" lon="-7.0403810">
        <ele>321.6</ele>
        <time>2019-07-10T11:03:09Z</time>
      </trkpt>
      <trkpt lat="39.5340390" lon="-7.0408070">
        <ele>322.8</ele>
        <time>2019-07-10T11:03:16Z</time>
      </trkpt>
      <trkpt lat="39.5339100" lon="-7.0411670">
        <ele>323.8</ele>
        <time>2019-07-10T11:03:22Z</time>
      </trkpt>
      <trkpt lat="39.5338420" lon="-7.0413390">
        <ele>324.2</ele>
        <time>2019-07-10T11:03:25Z</time>
      </trkpt>
      <trkpt lat="39.5337180" lon="-7.0416920">
        <ele>324.8</ele>
        <time>2019-07-10T11:03:31Z</time>
      </trkpt>
      <trkpt lat="39.5336730" lon="-7.0418140">
        <ele>325.0</ele>
        <time>2019-07-10T11:03:33Z</time>
      </trkpt>
      <trkpt lat="39.5335570" lon="-7.0421200">
        <ele>325.4</ele>
        <time>2019-07-10T11:03:38Z</time>
      </trkpt>
      <trkpt lat="39.5334680" lon="-7.0423550">
        <ele>326.0</ele>
        <time>2019-07-10T11:03:42Z</time>
      </trkpt>
      <trkpt lat="39.5333660" lon="-7.0426610">
        <ele>326.6</ele>
        <time>2019-07-10T11:03:47Z</time>
      </trkpt>
      <trkpt lat="39.5332990" lon="-7.0428490">
        <ele>327.0</ele>
        <time>2019-07-10T11:03:50Z</time>
      </trkpt>
      <trkpt lat="39.5331400" lon="-7.0432830">
        <ele>328.0</ele>
        <time>2019-07-10T11:03:57Z</time>
      </trkpt>
      <trkpt lat="39.5331160" lon="-7.0433440">
        <ele>328.2</ele>
        <time>2019-07-10T11:03:58Z</time>
      </trkpt>
      <trkpt lat="39.5329360" lon="-7.0438290">
        <ele>329.2</ele>
        <time>2019-07-10T11:04:06Z</time>
      </trkpt>
      <trkpt lat="39.5327250" lon="-7.0443980">
        <ele>330.2</ele>
        <time>2019-07-10T11:04:15Z</time>
      </trkpt>
      <trkpt lat="39.5325630" lon="-7.0448520">
        <ele>331.2</ele>
        <time>2019-07-10T11:04:22Z</time>
      </trkpt>
      <trkpt lat="39.5324280" lon="-7.0452300">
        <ele>332.4</ele>
        <time>2019-07-10T11:04:28Z</time>
      </trkpt>
      <trkpt lat="39.5323620" lon="-7.0454220">
        <ele>332.6</ele>
        <time>2019-07-10T11:04:31Z</time>
      </trkpt>
      <trkpt lat="39.5322000" lon="-7.0458680">
        <ele>333.2</ele>
        <time>2019-07-10T11:04:38Z</time>
      </trkpt>
      <trkpt lat="39.5321790" lon="-7.0459300">
        <ele>333.4</ele>
        <time>2019-07-10T11:04:39Z</time>
      </trkpt>
      <trkpt lat="39.5321580" lon="-7.0459950">
        <ele>333.4</ele>
        <time>2019-07-10T11:04:40Z</time>
      </trkpt>
      <trkpt lat="39.5321340" lon="-7.0460570">
        <ele>333.6</ele>
        <time>2019-07-10T11:04:41Z</time>
      </trkpt>
      <trkpt lat="39.5319840" lon="-7.0464440">
        <ele>334.4</ele>
        <time>2019-07-10T11:04:47Z</time>
      </trkpt>
      <trkpt lat="39.5318070" lon="-7.0469100">
        <ele>335.6</ele>
        <time>2019-07-10T11:04:54Z</time>
      </trkpt>
      <trkpt lat="39.5317040" lon="-7.0471720">
        <ele>336.2</ele>
        <time>2019-07-10T11:04:58Z</time>
      </trkpt>
      <trkpt lat="39.5316220" lon="-7.0473660">
        <ele>336.6</ele>
        <time>2019-07-10T11:05:01Z</time>
      </trkpt>
      <trkpt lat="39.5314310" lon="-7.0477320">
        <ele>337.4</ele>
        <time>2019-07-10T11:05:07Z</time>
      </trkpt>
      <trkpt lat="39.5313570" lon="-7.0478420">
        <ele>337.8</ele>
        <time>2019-07-10T11:05:09Z</time>
      </trkpt>
      <trkpt lat="39.5310640" lon="-7.0482190">
        <ele>338.6</ele>
        <time>2019-07-10T11:05:16Z</time>
      </trkpt>
      <trkpt lat="39.5310170" lon="-7.0482700">
        <ele>338.8</ele>
        <time>2019-07-10T11:05:17Z</time>
      </trkpt>
      <trkpt lat="39.5307830" lon="-7.0485070">
        <ele>338.8</ele>
        <time>2019-07-10T11:05:22Z</time>
      </trkpt>
      <trkpt lat="39.5306420" lon="-7.0486460">
        <ele>338.4</ele>
        <time>2019-07-10T11:05:25Z</time>
      </trkpt>
      <trkpt lat="39.5305950" lon="-7.0486960">
        <ele>338.4</ele>
        <time>2019-07-10T11:05:26Z</time>
      </trkpt>
      <trkpt lat="39.5305050" lon="-7.0488060">
        <ele>338.4</ele>
        <time>2019-07-10T11:05:28Z</time>
      </trkpt>
      <trkpt lat="39.5304060" lon="-7.0489110">
        <ele>338.2</ele>
        <time>2019-07-10T11:05:30Z</time>
      </trkpt>
      <trkpt lat="39.5303000" lon="-7.0490100">
        <ele>338.0</ele>
        <time>2019-07-10T11:05:32Z</time>
      </trkpt>
      <trkpt lat="39.5301440" lon="-7.0491820">
        <ele>337.6</ele>
        <time>2019-07-10T11:05:35Z</time>
      </trkpt>
      <trkpt lat="39.5299750" lon="-7.0493500">
        <ele>337.2</ele>
        <time>2019-07-10T11:05:38Z</time>
      </trkpt>
      <trkpt lat="39.5297440" lon="-7.0495940">
        <ele>336.6</ele>
        <time>2019-07-10T11:05:42Z</time>
      </trkpt>
      <trkpt lat="39.5294910" lon="-7.0498470">
        <ele>335.8</ele>
        <time>2019-07-10T11:05:46Z</time>
      </trkpt>
      <trkpt lat="39.5294270" lon="-7.0499150">
        <ele>335.4</ele>
        <time>2019-07-10T11:05:47Z</time>
      </trkpt>
      <trkpt lat="39.5292290" lon="-7.0501290">
        <ele>334.2</ele>
        <time>2019-07-10T11:05:50Z</time>
      </trkpt>
      <trkpt lat="39.5290900" lon="-7.0502740">
        <ele>333.8</ele>
        <time>2019-07-10T11:05:52Z</time>
      </trkpt>
      <trkpt lat="39.5289460" lon="-7.0504210">
        <ele>333.2</ele>
        <time>2019-07-10T11:05:54Z</time>
      </trkpt>
      <trkpt lat="39.5287180" lon="-7.0506480">
        <ele>332.2</ele>
        <time>2019-07-10T11:05:57Z</time>
      </trkpt>
      <trkpt lat="39.5285620" lon="-7.0508100">
        <ele>331.2</ele>
        <time>2019-07-10T11:05:59Z</time>
      </trkpt>
      <trkpt lat="39.5284110" lon="-7.0509730">
        <ele>330.8</ele>
        <time>2019-07-10T11:06:01Z</time>
      </trkpt>
      <trkpt lat="39.5282620" lon="-7.0511270">
        <ele>330.2</ele>
        <time>2019-07-10T11:06:03Z</time>
      </trkpt>
      <trkpt lat="39.5279290" lon="-7.0514750">
        <ele>329.6</ele>
        <time>2019-07-10T11:06:08Z</time>
      </trkpt>
      <trkpt lat="39.5276840" lon="-7.0517360">
        <ele>330.4</ele>
        <time>2019-07-10T11:06:13Z</time>
      </trkpt>
      <trkpt lat="39.5276030" lon="-7.0518110">
        <ele>330.8</ele>
        <time>2019-07-10T11:06:15Z</time>
      </trkpt>
      <trkpt lat="39.5275680" lon="-7.0518510">
        <ele>331.0</ele>
        <time>2019-07-10T11:06:16Z</time>
      </trkpt>
      <trkpt lat="39.5275370" lon="-7.0518930">
        <ele>331.0</ele>
        <time>2019-07-10T11:06:17Z</time>
      </trkpt>
      <trkpt lat="39.5275100" lon="-7.0519330">
        <ele>331.4</ele>
        <time>2019-07-10T11:06:18Z</time>
      </trkpt>
      <trkpt lat="39.5274190" lon="-7.0521170">
        <ele>332.4</ele>
        <time>2019-07-10T11:06:23Z</time>
      </trkpt>
      <trkpt lat="39.5274450" lon="-7.0522290">
        <ele>333.0</ele>
        <time>2019-07-10T11:06:26Z</time>
      </trkpt>
      <trkpt lat="39.5274730" lon="-7.0523020">
        <ele>333.0</ele>
        <time>2019-07-10T11:06:28Z</time>
      </trkpt>
      <trkpt lat="39.5275330" lon="-7.0525260">
        <ele>333.2</ele>
        <time>2019-07-10T11:06:34Z</time>
      </trkpt>
      <trkpt lat="39.5274600" lon="-7.0526140">
        <ele>333.2</ele>
        <time>2019-07-10T11:06:38Z</time>
      </trkpt>
      <trkpt lat="39.5274370" lon="-7.0526500">
        <ele>333.2</ele>
        <time>2019-07-10T11:06:40Z</time>
      </trkpt>
      <trkpt lat="39.5274300" lon="-7.0526700">
        <ele>333.6</ele>
        <time>2019-07-10T11:06:43Z</time>
      </trkpt>
      <trkpt lat="39.5274320" lon="-7.0526700">
        <ele>333.4</ele>
        <time>2019-07-10T11:06:44Z</time>
      </trkpt>
      <trkpt lat="39.5273930" lon="-7.0527250">
        <ele>334.2</ele>
        <time>2019-07-10T11:09:16Z</time>
      </trkpt>
      <trkpt lat="39.5273870" lon="-7.0527410">
        <ele>334.2</ele>
        <time>2019-07-10T11:09:17Z</time>
      </trkpt>
      <trkpt lat="39.5273690" lon="-7.0527690">
        <ele>334.0</ele>
        <time>2019-07-10T11:09:19Z</time>
      </trkpt>
      <trkpt lat="39.5273010" lon="-7.0528660">
        <ele>334.0</ele>
        <time>2019-07-10T11:09:24Z</time>
      </trkpt>
      <trkpt lat="39.5272250" lon="-7.0529820">
        <ele>334.2</ele>
        <time>2019-07-10T11:09:28Z</time>
      </trkpt>
      <trkpt lat="39.5271790" lon="-7.0530400">
        <ele>334.0</ele>
        <time>2019-07-10T11:09:30Z</time>
      </trkpt>
      <trkpt lat="39.5270910" lon="-7.0531880">
        <ele>333.6</ele>
        <time>2019-07-10T11:09:35Z</time>
      </trkpt>
      <trkpt lat="39.5270840" lon="-7.0532040">
        <ele>333.6</ele>
        <time>2019-07-10T11:09:36Z</time>
      </trkpt>
      <trkpt lat="39.5270810" lon="-7.0532130">
        <ele>333.4</ele>
        <time>2019-07-10T11:09:38Z</time>
      </trkpt>
      <trkpt lat="39.5270400" lon="-7.0532600">
        <ele>333.4</ele>
        <time>2019-07-10T11:09:42Z</time>
      </trkpt>
      <trkpt lat="39.5270310" lon="-7.0532660">
        <ele>333.4</ele>
        <time>2019-07-10T11:09:43Z</time>
      </trkpt>
      <trkpt lat="39.5270120" lon="-7.0532840">
        <ele>333.2</ele>
        <time>2019-07-10T11:09:47Z</time>
      </trkpt>
      <trkpt lat="39.5269640" lon="-7.0533330">
        <ele>332.8</ele>
        <time>2019-07-10T11:10:20Z</time>
      </trkpt>
      <trkpt lat="39.5268490" lon="-7.0534090">
        <ele>332.6</ele>
        <time>2019-07-10T11:10:24Z</time>
      </trkpt>
      <trkpt lat="39.5266770" lon="-7.0534750">
        <ele>332.0</ele>
        <time>2019-07-10T11:10:28Z</time>
      </trkpt>
      <trkpt lat="39.5266280" lon="-7.0534880">
        <ele>331.8</ele>
        <time>2019-07-10T11:10:29Z</time>
      </trkpt>
      <trkpt lat="39.5265810" lon="-7.0535050">
        <ele>331.4</ele>
        <time>2019-07-10T11:10:30Z</time>
      </trkpt>
      <trkpt lat="39.5264930" lon="-7.0535460">
        <ele>330.8</ele>
        <time>2019-07-10T11:10:32Z</time>
      </trkpt>
      <trkpt lat="39.5264640" lon="-7.0535750">
        <ele>330.2</ele>
        <time>2019-07-10T11:10:33Z</time>
      </trkpt>
      <trkpt lat="39.5264700" lon="-7.0537010">
        <ele>329.6</ele>
        <time>2019-07-10T11:10:36Z</time>
      </trkpt>
      <trkpt lat="39.5265030" lon="-7.0537640">
        <ele>329.6</ele>
        <time>2019-07-10T11:10:38Z</time>
      </trkpt>
      <trkpt lat="39.5265490" lon="-7.0538500">
        <ele>329.8</ele>
        <time>2019-07-10T11:10:41Z</time>
      </trkpt>
      <trkpt lat="39.5265800" lon="-7.0538890">
        <ele>330.0</ele>
        <time>2019-07-10T11:10:45Z</time>
      </trkpt>
      <trkpt lat="39.5265970" lon="-7.0538820">
        <ele>330.0</ele>
        <time>2019-07-10T11:10:48Z</time>
      </trkpt>
      <trkpt lat="39.5265970" lon="-7.0538800">
        <ele>330.0</ele>
        <time>2019-07-10T11:10:49Z</time>
      </trkpt>
      <trkpt lat="39.5266910" lon="-7.0539360">
        <ele>331.0</ele>
        <time>2019-07-10T11:17:14Z</time>
      </trkpt>
      <trkpt lat="39.5266850" lon="-7.0539680">
        <ele>331.0</ele>
        <time>2019-07-10T11:17:15Z</time>
      </trkpt>
      <trkpt lat="39.5266990" lon="-7.0540250">
        <ele>330.8</ele>
        <time>2019-07-10T11:17:18Z</time>
      </trkpt>
      <trkpt lat="39.5267240" lon="-7.0540440">
        <ele>331.0</ele>
        <time>2019-07-10T11:17:20Z</time>
      </trkpt>
      <trkpt lat="39.5268030" lon="-7.0540890">
        <ele>331.6</ele>
        <time>2019-07-10T11:17:26Z</time>
      </trkpt>
      <trkpt lat="39.5268250" lon="-7.0541050">
        <ele>332.0</ele>
        <time>2019-07-10T11:17:28Z</time>
      </trkpt>
      <trkpt lat="39.5268390" lon="-7.0541260">
        <ele>332.0</ele>
        <time>2019-07-10T11:17:30Z</time>
      </trkpt>
      <trkpt lat="39.5268430" lon="-7.0541430">
        <ele>332.2</ele>
        <time>2019-07-10T11:17:31Z</time>
      </trkpt>
      <trkpt lat="39.5268360" lon="-7.0542890">
        <ele>332.0</ele>
        <time>2019-07-10T11:17:38Z</time>
      </trkpt>
      <trkpt lat="39.5268290" lon="-7.0543130">
        <ele>332.0</ele>
        <time>2019-07-10T11:17:39Z</time>
      </trkpt>
      <trkpt lat="39.5268280" lon="-7.0543400">
        <ele>332.0</ele>
        <time>2019-07-10T11:17:40Z</time>
      </trkpt>
      <trkpt lat="39.5268700" lon="-7.0543830">
        <ele>332.0</ele>
        <time>2019-07-10T11:17:43Z</time>
      </trkpt>
      <trkpt lat="39.5269140" lon="-7.0543680">
        <ele>332.0</ele>
        <time>2019-07-10T11:17:45Z</time>
      </trkpt>
      <trkpt lat="39.5269770" lon="-7.0543480">
        <ele>332.2</ele>
        <time>2019-07-10T11:17:48Z</time>
      </trkpt>
      <trkpt lat="39.5269990" lon="-7.0543410">
        <ele>332.4</ele>
        <time>2019-07-10T11:17:49Z</time>
      </trkpt>
      <trkpt lat="39.5270320" lon="-7.0543280">
        <ele>332.4</ele>
        <time>2019-07-10T11:17:54Z</time>
      </trkpt>
      <trkpt lat="39.5270030" lon="-7.0543380">
        <ele>332.6</ele>
        <time>2019-07-10T11:17:57Z</time>
      </trkpt>
      <trkpt lat="39.5269610" lon="-7.0543570">
        <ele>332.6</ele>
        <time>2019-07-10T11:17:59Z</time>
      </trkpt>
      <trkpt lat="39.5268150" lon="-7.0544550">
        <ele>332.2</ele>
        <time>2019-07-10T11:18:04Z</time>
      </trkpt>
      <trkpt lat="39.5267910" lon="-7.0545190">
        <ele>332.0</ele>
        <time>2019-07-10T11:18:06Z</time>
      </trkpt>
      <trkpt lat="39.5267890" lon="-7.0545410">
        <ele>331.8</ele>
        <time>2019-07-10T11:18:07Z</time>
      </trkpt>
      <trkpt lat="39.5267890" lon="-7.0545620">
        <ele>331.6</ele>
        <time>2019-07-10T11:18:08Z</time>
      </trkpt>
      <trkpt lat="39.5268090" lon="-7.0546710">
        <ele>331.6</ele>
        <time>2019-07-10T11:18:13Z</time>
      </trkpt>
      <trkpt lat="39.5269110" lon="-7.0547850">
        <ele>331.4</ele>
        <time>2019-07-10T11:18:18Z</time>
      </trkpt>
      <trkpt lat="39.5269840" lon="-7.0549130">
        <ele>331.2</ele>
        <time>2019-07-10T11:18:21Z</time>
      </trkpt>
      <trkpt lat="39.5270340" lon="-7.0550070">
        <ele>330.6</ele>
        <time>2019-07-10T11:18:23Z</time>
      </trkpt>
      <trkpt lat="39.5270600" lon="-7.0550470">
        <ele>330.4</ele>
        <time>2019-07-10T11:18:24Z</time>
      </trkpt>
      <trkpt lat="39.5270830" lon="-7.0550870">
        <ele>329.8</ele>
        <time>2019-07-10T11:18:25Z</time>
      </trkpt>
      <trkpt lat="39.5270930" lon="-7.0551380">
        <ele>329.4</ele>
        <time>2019-07-10T11:18:26Z</time>
      </trkpt>
      <trkpt lat="39.5270790" lon="-7.0552560">
        <ele>329.0</ele>
        <time>2019-07-10T11:18:28Z</time>
      </trkpt>
      <trkpt lat="39.5270540" lon="-7.0554330">
        <ele>328.2</ele>
        <time>2019-07-10T11:18:31Z</time>
      </trkpt>
      <trkpt lat="39.5270470" lon="-7.0555020">
        <ele>328.0</ele>
        <time>2019-07-10T11:18:32Z</time>
      </trkpt>
      <trkpt lat="39.5270410" lon="-7.0555770">
        <ele>327.6</ele>
        <time>2019-07-10T11:18:33Z</time>
      </trkpt>
      <trkpt lat="39.5270400" lon="-7.0558340">
        <ele>327.2</ele>
        <time>2019-07-10T11:18:36Z</time>
      </trkpt>
      <trkpt lat="39.5270430" lon="-7.0560310">
        <ele>326.6</ele>
        <time>2019-07-10T11:18:38Z</time>
      </trkpt>
      <trkpt lat="39.5270530" lon="-7.0562330">
        <ele>326.0</ele>
        <time>2019-07-10T11:18:40Z</time>
      </trkpt>
      <trkpt lat="39.5270560" lon="-7.0564370">
        <ele>325.4</ele>
        <time>2019-07-10T11:18:42Z</time>
      </trkpt>
      <trkpt lat="39.5270410" lon="-7.0566490">
        <ele>325.0</ele>
        <time>2019-07-10T11:18:44Z</time>
      </trkpt>
      <trkpt lat="39.5270130" lon="-7.0568690">
        <ele>323.6</ele>
        <time>2019-07-10T11:18:46Z</time>
      </trkpt>
      <trkpt lat="39.5270010" lon="-7.0569810">
        <ele>322.4</ele>
        <time>2019-07-10T11:18:47Z</time>
      </trkpt>
      <trkpt lat="39.5269790" lon="-7.0573050">
        <ele>321.2</ele>
        <time>2019-07-10T11:18:50Z</time>
      </trkpt>
      <trkpt lat="39.5269770" lon="-7.0574120">
        <ele>320.8</ele>
        <time>2019-07-10T11:18:51Z</time>
      </trkpt>
      <trkpt lat="39.5269800" lon="-7.0577040">
        <ele>320.0</ele>
        <time>2019-07-10T11:18:54Z</time>
      </trkpt>
      <trkpt lat="39.5269750" lon="-7.0577950">
        <ele>319.8</ele>
        <time>2019-07-10T11:18:55Z</time>
      </trkpt>
      <trkpt lat="39.5269630" lon="-7.0578910">
        <ele>319.6</ele>
        <time>2019-07-10T11:18:56Z</time>
      </trkpt>
      <trkpt lat="39.5269430" lon="-7.0580690">
        <ele>318.8</ele>
        <time>2019-07-10T11:18:58Z</time>
      </trkpt>
      <trkpt lat="39.5269060" lon="-7.0583910">
        <ele>318.0</ele>
        <time>2019-07-10T11:19:02Z</time>
      </trkpt>
      <trkpt lat="39.5268910" lon="-7.0584660">
        <ele>317.8</ele>
        <time>2019-07-10T11:19:03Z</time>
      </trkpt>
      <trkpt lat="39.5268520" lon="-7.0586100">
        <ele>317.8</ele>
        <time>2019-07-10T11:19:05Z</time>
      </trkpt>
      <trkpt lat="39.5267900" lon="-7.0588240">
        <ele>317.6</ele>
        <time>2019-07-10T11:19:08Z</time>
      </trkpt>
      <trkpt lat="39.5267670" lon="-7.0589680">
        <ele>317.8</ele>
        <time>2019-07-10T11:19:10Z</time>
      </trkpt>
      <trkpt lat="39.5267530" lon="-7.0591790">
        <ele>317.4</ele>
        <time>2019-07-10T11:19:13Z</time>
      </trkpt>
      <trkpt lat="39.5267530" lon="-7.0593990">
        <ele>316.6</ele>
        <time>2019-07-10T11:19:16Z</time>
      </trkpt>
      <trkpt lat="39.5267420" lon="-7.0597140">
        <ele>315.8</ele>
        <time>2019-07-10T11:19:20Z</time>
      </trkpt>
      <trkpt lat="39.5267340" lon="-7.0597980">
        <ele>315.6</ele>
        <time>2019-07-10T11:19:21Z</time>
      </trkpt>
      <trkpt lat="39.5266850" lon="-7.0602440">
        <ele>314.6</ele>
        <time>2019-07-10T11:19:26Z</time>
      </trkpt>
      <trkpt lat="39.5266880" lon="-7.0603380">
        <ele>314.0</ele>
        <time>2019-07-10T11:19:27Z</time>
      </trkpt>
      <trkpt lat="39.5267250" lon="-7.0606100">
        <ele>313.4</ele>
        <time>2019-07-10T11:19:30Z</time>
      </trkpt>
      <trkpt lat="39.5267490" lon="-7.0608900">
        <ele>313.2</ele>
        <time>2019-07-10T11:19:33Z</time>
      </trkpt>
      <trkpt lat="39.5267720" lon="-7.0610770">
        <ele>312.6</ele>
        <time>2019-07-10T11:19:35Z</time>
      </trkpt>
      <trkpt lat="39.5268020" lon="-7.0612570">
        <ele>312.4</ele>
        <time>2019-07-10T11:19:37Z</time>
      </trkpt>
      <trkpt lat="39.5268380" lon="-7.0614270">
        <ele>312.0</ele>
        <time>2019-07-10T11:19:39Z</time>
      </trkpt>
      <trkpt lat="39.5269780" lon="-7.0619110">
        <ele>311.2</ele>
        <time>2019-07-10T11:19:45Z</time>
      </trkpt>
      <trkpt lat="39.5270240" lon="-7.0620850">
        <ele>310.6</ele>
        <time>2019-07-10T11:19:47Z</time>
      </trkpt>
      <trkpt lat="39.5270400" lon="-7.0621760">
        <ele>310.4</ele>
        <time>2019-07-10T11:19:48Z</time>
      </trkpt>
      <trkpt lat="39.5270470" lon="-7.0622690">
        <ele>310.2</ele>
        <time>2019-07-10T11:19:49Z</time>
      </trkpt>
      <trkpt lat="39.5270510" lon="-7.0623580">
        <ele>309.8</ele>
        <time>2019-07-10T11:19:50Z</time>
      </trkpt>
      <trkpt lat="39.5270550" lon="-7.0624460">
        <ele>309.4</ele>
        <time>2019-07-10T11:19:51Z</time>
      </trkpt>
      <trkpt lat="39.5270610" lon="-7.0625310">
        <ele>309.0</ele>
        <time>2019-07-10T11:19:52Z</time>
      </trkpt>
      <trkpt lat="39.5270690" lon="-7.0626120">
        <ele>308.8</ele>
        <time>2019-07-10T11:19:53Z</time>
      </trkpt>
      <trkpt lat="39.5271140" lon="-7.0628390">
        <ele>308.6</ele>
        <time>2019-07-10T11:19:56Z</time>
      </trkpt>
      <trkpt lat="39.5271430" lon="-7.0629830">
        <ele>309.0</ele>
        <time>2019-07-10T11:19:58Z</time>
      </trkpt>
      <trkpt lat="39.5271620" lon="-7.0630470">
        <ele>309.0</ele>
        <time>2019-07-10T11:19:59Z</time>
      </trkpt>
      <trkpt lat="39.5272200" lon="-7.0631650">
        <ele>309.2</ele>
        <time>2019-07-10T11:20:01Z</time>
      </trkpt>
      <trkpt lat="39.5274130" lon="-7.0634820">
        <ele>308.8</ele>
        <time>2019-07-10T11:20:07Z</time>
      </trkpt>
      <trkpt lat="39.5275160" lon="-7.0636500">
        <ele>308.4</ele>
        <time>2019-07-10T11:20:10Z</time>
      </trkpt>
      <trkpt lat="39.5275910" lon="-7.0638380">
        <ele>308.4</ele>
        <time>2019-07-10T11:20:13Z</time>
      </trkpt>
      <trkpt lat="39.5276270" lon="-7.0639690">
        <ele>308.8</ele>
        <time>2019-07-10T11:20:15Z</time>
      </trkpt>
      <trkpt lat="39.5276580" lon="-7.0641700">
        <ele>309.2</ele>
        <time>2019-07-10T11:20:18Z</time>
      </trkpt>
      <trkpt lat="39.5277430" lon="-7.0645640">
        <ele>309.2</ele>
        <time>2019-07-10T11:20:24Z</time>
      </trkpt>
      <trkpt lat="39.5278130" lon="-7.0648900">
        <ele>309.6</ele>
        <time>2019-07-10T11:20:29Z</time>
      </trkpt>
      <trkpt lat="39.5278720" lon="-7.0652120">
        <ele>309.2</ele>
        <time>2019-07-10T11:20:34Z</time>
      </trkpt>
      <trkpt lat="39.5278970" lon="-7.0653390">
        <ele>309.4</ele>
        <time>2019-07-10T11:20:36Z</time>
      </trkpt>
      <trkpt lat="39.5279430" lon="-7.0655230">
        <ele>309.8</ele>
        <time>2019-07-10T11:20:39Z</time>
      </trkpt>
      <trkpt lat="39.5279890" lon="-7.0656370">
        <ele>310.0</ele>
        <time>2019-07-10T11:20:41Z</time>
      </trkpt>
      <trkpt lat="39.5280130" lon="-7.0656930">
        <ele>310.2</ele>
        <time>2019-07-10T11:20:42Z</time>
      </trkpt>
      <trkpt lat="39.5281190" lon="-7.0659180">
        <ele>310.2</ele>
        <time>2019-07-10T11:20:46Z</time>
      </trkpt>
      <trkpt lat="39.5281870" lon="-7.0660870">
        <ele>310.2</ele>
        <time>2019-07-10T11:20:49Z</time>
      </trkpt>
      <trkpt lat="39.5282080" lon="-7.0663140">
        <ele>310.6</ele>
        <time>2019-07-10T11:20:53Z</time>
      </trkpt>
      <trkpt lat="39.5282010" lon="-7.0663710">
        <ele>311.0</ele>
        <time>2019-07-10T11:20:54Z</time>
      </trkpt>
      <trkpt lat="39.5281960" lon="-7.0664270">
        <ele>311.2</ele>
        <time>2019-07-10T11:20:55Z</time>
      </trkpt>
      <trkpt lat="39.5281620" lon="-7.0666450">
        <ele>311.6</ele>
        <time>2019-07-10T11:20:59Z</time>
      </trkpt>
      <trkpt lat="39.5281500" lon="-7.0667500">
        <ele>311.8</ele>
        <time>2019-07-10T11:21:01Z</time>
      </trkpt>
      <trkpt lat="39.5281420" lon="-7.0668530">
        <ele>312.4</ele>
        <time>2019-07-10T11:21:03Z</time>
      </trkpt>
      <trkpt lat="39.5281350" lon="-7.0669040">
        <ele>312.8</ele>
        <time>2019-07-10T11:21:04Z</time>
      </trkpt>
      <trkpt lat="39.5280990" lon="-7.0671000">
        <ele>313.6</ele>
        <time>2019-07-10T11:21:08Z</time>
      </trkpt>
      <trkpt lat="39.5280720" lon="-7.0673470">
        <ele>314.6</ele>
        <time>2019-07-10T11:21:13Z</time>
      </trkpt>
      <trkpt lat="39.5280650" lon="-7.0674380">
        <ele>315.4</ele>
        <time>2019-07-10T11:21:15Z</time>
      </trkpt>
      <trkpt lat="39.5280600" lon="-7.0674800">
        <ele>315.6</ele>
        <time>2019-07-10T11:21:16Z</time>
      </trkpt>
      <trkpt lat="39.5280230" lon="-7.0676250">
        <ele>317.0</ele>
        <time>2019-07-10T11:21:20Z</time>
      </trkpt>
      <trkpt lat="39.5280100" lon="-7.0676580">
        <ele>317.2</ele>
        <time>2019-07-10T11:21:21Z</time>
      </trkpt>
      <trkpt lat="39.5279500" lon="-7.0677920">
        <ele>318.2</ele>
        <time>2019-07-10T11:21:25Z</time>
      </trkpt>
      <trkpt lat="39.5278790" lon="-7.0679640">
        <ele>318.8</ele>
        <time>2019-07-10T11:21:29Z</time>
      </trkpt>
      <trkpt lat="39.5278670" lon="-7.0680150">
        <ele>319.0</ele>
        <time>2019-07-10T11:21:30Z</time>
      </trkpt>
      <trkpt lat="39.5278610" lon="-7.0681730">
        <ele>319.2</ele>
        <time>2019-07-10T11:21:33Z</time>
      </trkpt>
      <trkpt lat="39.5278690" lon="-7.0682270">
        <ele>319.4</ele>
        <time>2019-07-10T11:21:34Z</time>
      </trkpt>
      <trkpt lat="39.5278870" lon="-7.0683410">
        <ele>319.6</ele>
        <time>2019-07-10T11:21:36Z</time>
      </trkpt>
      <trkpt lat="39.5279320" lon="-7.0685950">
        <ele>320.0</ele>
        <time>2019-07-10T11:21:40Z</time>
      </trkpt>
      <trkpt lat="39.5280210" lon="-7.0691090">
        <ele>319.8</ele>
        <time>2019-07-10T11:21:48Z</time>
      </trkpt>
      <trkpt lat="39.5280310" lon="-7.0691750">
        <ele>320.0</ele>
        <time>2019-07-10T11:21:49Z</time>
      </trkpt>
      <trkpt lat="39.5280520" lon="-7.0694410">
        <ele>320.4</ele>
        <time>2019-07-10T11:21:53Z</time>
      </trkpt>
      <trkpt lat="39.5280600" lon="-7.0695060">
        <ele>320.6</ele>
        <time>2019-07-10T11:21:54Z</time>
      </trkpt>
      <trkpt lat="39.5281160" lon="-7.0698710">
        <ele>321.2</ele>
        <time>2019-07-10T11:22:00Z</time>
      </trkpt>
      <trkpt lat="39.5281270" lon="-7.0699230">
        <ele>321.2</ele>
        <time>2019-07-10T11:22:01Z</time>
      </trkpt>
      <trkpt lat="39.5281360" lon="-7.0699720">
        <ele>321.6</ele>
        <time>2019-07-10T11:22:02Z</time>
      </trkpt>
      <trkpt lat="39.5281310" lon="-7.0701190">
        <ele>322.6</ele>
        <time>2019-07-10T11:22:05Z</time>
      </trkpt>
      <trkpt lat="39.5281220" lon="-7.0701660">
        <ele>323.0</ele>
        <time>2019-07-10T11:22:06Z</time>
      </trkpt>
      <trkpt lat="39.5281040" lon="-7.0702590">
        <ele>323.6</ele>
        <time>2019-07-10T11:22:08Z</time>
      </trkpt>
      <trkpt lat="39.5280570" lon="-7.0705650">
        <ele>324.8</ele>
        <time>2019-07-10T11:22:14Z</time>
      </trkpt>
      <trkpt lat="39.5280190" lon="-7.0708460">
        <ele>325.8</ele>
        <time>2019-07-10T11:22:19Z</time>
      </trkpt>
      <trkpt lat="39.5280070" lon="-7.0710170">
        <ele>326.0</ele>
        <time>2019-07-10T11:22:22Z</time>
      </trkpt>
      <trkpt lat="39.5280140" lon="-7.0713220">
        <ele>326.4</ele>
        <time>2019-07-10T11:22:27Z</time>
      </trkpt>
      <trkpt lat="39.5280250" lon="-7.0713860">
        <ele>326.4</ele>
        <time>2019-07-10T11:22:28Z</time>
      </trkpt>
      <trkpt lat="39.5280460" lon="-7.0715150">
        <ele>326.8</ele>
        <time>2019-07-10T11:22:30Z</time>
      </trkpt>
      <trkpt lat="39.5280950" lon="-7.0717870">
        <ele>326.8</ele>
        <time>2019-07-10T11:22:34Z</time>
      </trkpt>
      <trkpt lat="39.5281120" lon="-7.0718570">
        <ele>326.8</ele>
        <time>2019-07-10T11:22:35Z</time>
      </trkpt>
      <trkpt lat="39.5281700" lon="-7.0720650">
        <ele>326.8</ele>
        <time>2019-07-10T11:22:38Z</time>
      </trkpt>
      <trkpt lat="39.5282310" lon="-7.0722660">
        <ele>326.6</ele>
        <time>2019-07-10T11:22:41Z</time>
      </trkpt>
      <trkpt lat="39.5282710" lon="-7.0724010">
        <ele>326.6</ele>
        <time>2019-07-10T11:22:43Z</time>
      </trkpt>
      <trkpt lat="39.5283670" lon="-7.0727370">
        <ele>326.8</ele>
        <time>2019-07-10T11:22:48Z</time>
      </trkpt>
      <trkpt lat="39.5284730" lon="-7.0730450">
        <ele>326.6</ele>
        <time>2019-07-10T11:22:53Z</time>
      </trkpt>
      <trkpt lat="39.5285430" lon="-7.0732160">
        <ele>326.8</ele>
        <time>2019-07-10T11:22:56Z</time>
      </trkpt>
      <trkpt lat="39.5286940" lon="-7.0735510">
        <ele>328.0</ele>
        <time>2019-07-10T11:23:02Z</time>
      </trkpt>
      <trkpt lat="39.5287730" lon="-7.0737170">
        <ele>328.6</ele>
        <time>2019-07-10T11:23:05Z</time>
      </trkpt>
      <trkpt lat="39.5288820" lon="-7.0739340">
        <ele>329.2</ele>
        <time>2019-07-10T11:23:09Z</time>
      </trkpt>
      <trkpt lat="39.5289830" lon="-7.0741330">
        <ele>329.4</ele>
        <time>2019-07-10T11:23:13Z</time>
      </trkpt>
      <trkpt lat="39.5290810" lon="-7.0743320">
        <ele>330.2</ele>
        <time>2019-07-10T11:23:17Z</time>
      </trkpt>
      <trkpt lat="39.5292690" lon="-7.0747430">
        <ele>331.0</ele>
        <time>2019-07-10T11:23:25Z</time>
      </trkpt>
      <trkpt lat="39.5292900" lon="-7.0747910">
        <ele>331.4</ele>
        <time>2019-07-10T11:23:26Z</time>
      </trkpt>
      <trkpt lat="39.5293970" lon="-7.0750100">
        <ele>332.6</ele>
        <time>2019-07-10T11:23:31Z</time>
      </trkpt>
      <trkpt lat="39.5294200" lon="-7.0750520">
        <ele>333.0</ele>
        <time>2019-07-10T11:23:32Z</time>
      </trkpt>
      <trkpt lat="39.5294690" lon="-7.0751360">
        <ele>333.6</ele>
        <time>2019-07-10T11:23:34Z</time>
      </trkpt>
      <trkpt lat="39.5296530" lon="-7.0754070">
        <ele>334.8</ele>
        <time>2019-07-10T11:23:41Z</time>
      </trkpt>
      <trkpt lat="39.5296800" lon="-7.0754450">
        <ele>335.2</ele>
        <time>2019-07-10T11:23:42Z</time>
      </trkpt>
      <trkpt lat="39.5298740" lon="-7.0757230">
        <ele>335.8</ele>
        <time>2019-07-10T11:23:49Z</time>
      </trkpt>
      <trkpt lat="39.5299880" lon="-7.0759000">
        <ele>336.6</ele>
        <time>2019-07-10T11:23:53Z</time>
      </trkpt>
      <trkpt lat="39.5300590" lon="-7.0760400">
        <ele>336.8</ele>
        <time>2019-07-10T11:23:56Z</time>
      </trkpt>
      <trkpt lat="39.5301610" lon="-7.0762690">
        <ele>337.4</ele>
        <time>2019-07-10T11:24:01Z</time>
      </trkpt>
      <trkpt lat="39.5302120" lon="-7.0764070">
        <ele>338.2</ele>
        <time>2019-07-10T11:24:04Z</time>
      </trkpt>
      <trkpt lat="39.5302750" lon="-7.0765860">
        <ele>339.4</ele>
        <time>2019-07-10T11:24:08Z</time>
      </trkpt>
      <trkpt lat="39.5302910" lon="-7.0766300">
        <ele>339.6</ele>
        <time>2019-07-10T11:24:09Z</time>
      </trkpt>
      <trkpt lat="39.5304020" lon="-7.0769560">
        <ele>340.6</ele>
        <time>2019-07-10T11:24:16Z</time>
      </trkpt>
      <trkpt lat="39.5304330" lon="-7.0770490">
        <ele>341.0</ele>
        <time>2019-07-10T11:24:18Z</time>
      </trkpt>
      <trkpt lat="39.5304620" lon="-7.0771420">
        <ele>341.8</ele>
        <time>2019-07-10T11:24:20Z</time>
      </trkpt>
      <trkpt lat="39.5305640" lon="-7.0774760">
        <ele>343.0</ele>
        <time>2019-07-10T11:24:27Z</time>
      </trkpt>
      <trkpt lat="39.5305930" lon="-7.0775790">
        <ele>344.0</ele>
        <time>2019-07-10T11:24:29Z</time>
      </trkpt>
      <trkpt lat="39.5306890" lon="-7.0779100">
        <ele>343.4</ele>
        <time>2019-07-10T11:24:35Z</time>
      </trkpt>
      <trkpt lat="39.5307430" lon="-7.0780830">
        <ele>343.2</ele>
        <time>2019-07-10T11:24:38Z</time>
      </trkpt>
      <trkpt lat="39.5308270" lon="-7.0782940">
        <ele>343.8</ele>
        <time>2019-07-10T11:24:42Z</time>
      </trkpt>
      <trkpt lat="39.5309250" lon="-7.0784900">
        <ele>344.4</ele>
        <time>2019-07-10T11:24:46Z</time>
      </trkpt>
      <trkpt lat="39.5309920" lon="-7.0786400">
        <ele>344.2</ele>
        <time>2019-07-10T11:24:49Z</time>
      </trkpt>
      <trkpt lat="39.5310130" lon="-7.0786880">
        <ele>343.8</ele>
        <time>2019-07-10T11:24:50Z</time>
      </trkpt>
      <trkpt lat="39.5310530" lon="-7.0787850">
        <ele>343.8</ele>
        <time>2019-07-10T11:24:52Z</time>
      </trkpt>
      <trkpt lat="39.5311220" lon="-7.0789920">
        <ele>345.0</ele>
        <time>2019-07-10T11:24:56Z</time>
      </trkpt>
      <trkpt lat="39.5311370" lon="-7.0790450">
        <ele>345.4</ele>
        <time>2019-07-10T11:24:57Z</time>
      </trkpt>
      <trkpt lat="39.5312570" lon="-7.0794820">
        <ele>346.2</ele>
        <time>2019-07-10T11:25:05Z</time>
      </trkpt>
      <trkpt lat="39.5313470" lon="-7.0797520">
        <ele>346.8</ele>
        <time>2019-07-10T11:25:10Z</time>
      </trkpt>
      <trkpt lat="39.5314020" lon="-7.0799090">
        <ele>348.0</ele>
        <time>2019-07-10T11:25:13Z</time>
      </trkpt>
      <trkpt lat="39.5314390" lon="-7.0800100">
        <ele>348.2</ele>
        <time>2019-07-10T11:25:15Z</time>
      </trkpt>
      <trkpt lat="39.5314920" lon="-7.0801550">
        <ele>349.0</ele>
        <time>2019-07-10T11:25:18Z</time>
      </trkpt>
      <trkpt lat="39.5315610" lon="-7.0803440">
        <ele>349.2</ele>
        <time>2019-07-10T11:25:22Z</time>
      </trkpt>
      <trkpt lat="39.5316140" lon="-7.0804870">
        <ele>350.2</ele>
        <time>2019-07-10T11:25:25Z</time>
      </trkpt>
      <trkpt lat="39.5316700" lon="-7.0806300">
        <ele>351.2</ele>
        <time>2019-07-10T11:25:28Z</time>
      </trkpt>
      <trkpt lat="39.5317070" lon="-7.0807250">
        <ele>351.4</ele>
        <time>2019-07-10T11:25:30Z</time>
      </trkpt>
      <trkpt lat="39.5318480" lon="-7.0810680">
        <ele>352.0</ele>
        <time>2019-07-10T11:25:37Z</time>
      </trkpt>
      <trkpt lat="39.5318730" lon="-7.0811150">
        <ele>352.2</ele>
        <time>2019-07-10T11:25:38Z</time>
      </trkpt>
      <trkpt lat="39.5319000" lon="-7.0811640">
        <ele>352.4</ele>
        <time>2019-07-10T11:25:39Z</time>
      </trkpt>
      <trkpt lat="39.5319290" lon="-7.0812120">
        <ele>352.2</ele>
        <time>2019-07-10T11:25:40Z</time>
      </trkpt>
      <trkpt lat="39.5320960" lon="-7.0814380">
        <ele>352.2</ele>
        <time>2019-07-10T11:25:45Z</time>
      </trkpt>
      <trkpt lat="39.5323620" lon="-7.0818270">
        <ele>352.2</ele>
        <time>2019-07-10T11:25:53Z</time>
      </trkpt>
      <trkpt lat="39.5325590" lon="-7.0823320">
        <ele>353.6</ele>
        <time>2019-07-10T11:26:01Z</time>
      </trkpt>
      <trkpt lat="39.5326940" lon="-7.0827030">
        <ele>353.4</ele>
        <time>2019-07-10T11:26:07Z</time>
      </trkpt>
      <trkpt lat="39.5327190" lon="-7.0827650">
        <ele>353.4</ele>
        <time>2019-07-10T11:26:08Z</time>
      </trkpt>
      <trkpt lat="39.5327720" lon="-7.0828850">
        <ele>353.4</ele>
        <time>2019-07-10T11:26:10Z</time>
      </trkpt>
      <trkpt lat="39.5328550" lon="-7.0830580">
        <ele>353.4</ele>
        <time>2019-07-10T11:26:13Z</time>
      </trkpt>
      <trkpt lat="39.5329450" lon="-7.0832270">
        <ele>353.8</ele>
        <time>2019-07-10T11:26:16Z</time>
      </trkpt>
      <trkpt lat="39.5330920" lon="-7.0835170">
        <ele>354.4</ele>
        <time>2019-07-10T11:26:21Z</time>
      </trkpt>
      <trkpt lat="39.5331450" lon="-7.0836390">
        <ele>354.2</ele>
        <time>2019-07-10T11:26:23Z</time>
      </trkpt>
      <trkpt lat="39.5333170" lon="-7.0840610">
        <ele>354.6</ele>
        <time>2019-07-10T11:26:30Z</time>
      </trkpt>
      <trkpt lat="39.5333660" lon="-7.0841820">
        <ele>354.8</ele>
        <time>2019-07-10T11:26:32Z</time>
      </trkpt>
      <trkpt lat="39.5335350" lon="-7.0845800">
        <ele>355.6</ele>
        <time>2019-07-10T11:26:39Z</time>
      </trkpt>
      <trkpt lat="39.5335580" lon="-7.0846350">
        <ele>355.6</ele>
        <time>2019-07-10T11:26:40Z</time>
      </trkpt>
      <trkpt lat="39.5336960" lon="-7.0849520">
        <ele>356.2</ele>
        <time>2019-07-10T11:26:46Z</time>
      </trkpt>
      <trkpt lat="39.5337400" lon="-7.0850530">
        <ele>356.8</ele>
        <time>2019-07-10T11:26:48Z</time>
      </trkpt>
      <trkpt lat="39.5337620" lon="-7.0851030">
        <ele>357.2</ele>
        <time>2019-07-10T11:26:49Z</time>
      </trkpt>
      <trkpt lat="39.5338050" lon="-7.0852000">
        <ele>358.2</ele>
        <time>2019-07-10T11:26:51Z</time>
      </trkpt>
      <trkpt lat="39.5338980" lon="-7.0854230">
        <ele>359.2</ele>
        <time>2019-07-10T11:26:56Z</time>
      </trkpt>
      <trkpt lat="39.5339170" lon="-7.0854700">
        <ele>359.4</ele>
        <time>2019-07-10T11:26:57Z</time>
      </trkpt>
      <trkpt lat="39.5340220" lon="-7.0857140">
        <ele>360.0</ele>
        <time>2019-07-10T11:27:02Z</time>
      </trkpt>
      <trkpt lat="39.5340650" lon="-7.0858130">
        <ele>360.0</ele>
        <time>2019-07-10T11:27:04Z</time>
      </trkpt>
      <trkpt lat="39.5341140" lon="-7.0859140">
        <ele>360.8</ele>
        <time>2019-07-10T11:27:06Z</time>
      </trkpt>
      <trkpt lat="39.5342720" lon="-7.0861930">
        <ele>361.8</ele>
        <time>2019-07-10T11:27:12Z</time>
      </trkpt>
      <trkpt lat="39.5345100" lon="-7.0864790">
        <ele>362.4</ele>
        <time>2019-07-10T11:27:20Z</time>
      </trkpt>
      <trkpt lat="39.5346580" lon="-7.0866340">
        <ele>363.0</ele>
        <time>2019-07-10T11:27:25Z</time>
      </trkpt>
      <trkpt lat="39.5348290" lon="-7.0868300">
        <ele>363.8</ele>
        <time>2019-07-10T11:27:31Z</time>
      </trkpt>
      <trkpt lat="39.5348570" lon="-7.0868650">
        <ele>364.2</ele>
        <time>2019-07-10T11:27:32Z</time>
      </trkpt>
      <trkpt lat="39.5349940" lon="-7.0870570">
        <ele>365.2</ele>
        <time>2019-07-10T11:27:37Z</time>
      </trkpt>
      <trkpt lat="39.5350730" lon="-7.0871780">
        <ele>366.2</ele>
        <time>2019-07-10T11:27:40Z</time>
      </trkpt>
      <trkpt lat="39.5351000" lon="-7.0872200">
        <ele>366.4</ele>
        <time>2019-07-10T11:27:41Z</time>
      </trkpt>
      <trkpt lat="39.5353010" lon="-7.0875440">
        <ele>366.6</ele>
        <time>2019-07-10T11:27:48Z</time>
      </trkpt>
      <trkpt lat="39.5355010" lon="-7.0879040">
        <ele>366.2</ele>
        <time>2019-07-10T11:27:54Z</time>
      </trkpt>
      <trkpt lat="39.5356020" lon="-7.0881220">
        <ele>365.8</ele>
        <time>2019-07-10T11:27:57Z</time>
      </trkpt>
      <trkpt lat="39.5356800" lon="-7.0883550">
        <ele>365.6</ele>
        <time>2019-07-10T11:28:00Z</time>
      </trkpt>
      <trkpt lat="39.5356960" lon="-7.0884350">
        <ele>365.6</ele>
        <time>2019-07-10T11:28:01Z</time>
      </trkpt>
      <trkpt lat="39.5357190" lon="-7.0886000">
        <ele>365.4</ele>
        <time>2019-07-10T11:28:03Z</time>
      </trkpt>
      <trkpt lat="39.5357410" lon="-7.0887580">
        <ele>365.4</ele>
        <time>2019-07-10T11:28:05Z</time>
      </trkpt>
      <trkpt lat="39.5358530" lon="-7.0891760">
        <ele>366.2</ele>
        <time>2019-07-10T11:28:11Z</time>
      </trkpt>
      <trkpt lat="39.5358740" lon="-7.0892420">
        <ele>366.6</ele>
        <time>2019-07-10T11:28:12Z</time>
      </trkpt>
      <trkpt lat="39.5359910" lon="-7.0895970">
        <ele>366.2</ele>
        <time>2019-07-10T11:28:17Z</time>
      </trkpt>
      <trkpt lat="39.5360520" lon="-7.0897370">
        <ele>366.0</ele>
        <time>2019-07-10T11:28:19Z</time>
      </trkpt>
      <trkpt lat="39.5362380" lon="-7.0900360">
        <ele>366.8</ele>
        <time>2019-07-10T11:28:24Z</time>
      </trkpt>
      <trkpt lat="39.5362800" lon="-7.0900860">
        <ele>366.4</ele>
        <time>2019-07-10T11:28:25Z</time>
      </trkpt>
      <trkpt lat="39.5364740" lon="-7.0903500">
        <ele>366.2</ele>
        <time>2019-07-10T11:28:30Z</time>
      </trkpt>
      <trkpt lat="39.5365010" lon="-7.0904110">
        <ele>366.4</ele>
        <time>2019-07-10T11:28:31Z</time>
      </trkpt>
      <trkpt lat="39.5366350" lon="-7.0908640">
        <ele>367.8</ele>
        <time>2019-07-10T11:28:38Z</time>
      </trkpt>
      <trkpt lat="39.5367320" lon="-7.0913260">
        <ele>368.4</ele>
        <time>2019-07-10T11:28:45Z</time>
      </trkpt>
      <trkpt lat="39.5367420" lon="-7.0913910">
        <ele>368.6</ele>
        <time>2019-07-10T11:28:46Z</time>
      </trkpt>
      <trkpt lat="39.5367590" lon="-7.0915240">
        <ele>369.0</ele>
        <time>2019-07-10T11:28:48Z</time>
      </trkpt>
      <trkpt lat="39.5368200" lon="-7.0919220">
        <ele>369.6</ele>
        <time>2019-07-10T11:28:54Z</time>
      </trkpt>
      <trkpt lat="39.5369050" lon="-7.0923360">
        <ele>370.0</ele>
        <time>2019-07-10T11:29:00Z</time>
      </trkpt>
      <trkpt lat="39.5369530" lon="-7.0925510">
        <ele>369.6</ele>
        <time>2019-07-10T11:29:03Z</time>
      </trkpt>
      <trkpt lat="39.5370050" lon="-7.0927740">
        <ele>368.6</ele>
        <time>2019-07-10T11:29:06Z</time>
      </trkpt>
      <trkpt lat="39.5370750" lon="-7.0930710">
        <ele>368.8</ele>
        <time>2019-07-10T11:29:10Z</time>
      </trkpt>
      <trkpt lat="39.5372430" lon="-7.0935970">
        <ele>369.8</ele>
        <time>2019-07-10T11:29:18Z</time>
      </trkpt>
      <trkpt lat="39.5373010" lon="-7.0937540">
        <ele>371.2</ele>
        <time>2019-07-10T11:29:21Z</time>
      </trkpt>
      <trkpt lat="39.5374120" lon="-7.0940080">
        <ele>372.4</ele>
        <time>2019-07-10T11:29:26Z</time>
      </trkpt>
      <trkpt lat="39.5375800" lon="-7.0943080">
        <ele>373.2</ele>
        <time>2019-07-10T11:29:32Z</time>
      </trkpt>
      <trkpt lat="39.5376110" lon="-7.0943570">
        <ele>373.4</ele>
        <time>2019-07-10T11:29:33Z</time>
      </trkpt>
      <trkpt lat="39.5377330" lon="-7.0945520">
        <ele>373.6</ele>
        <time>2019-07-10T11:29:37Z</time>
      </trkpt>
      <trkpt lat="39.5378940" lon="-7.0947940">
        <ele>373.8</ele>
        <time>2019-07-10T11:29:42Z</time>
      </trkpt>
      <trkpt lat="39.5380360" lon="-7.0950070">
        <ele>374.8</ele>
        <time>2019-07-10T11:29:46Z</time>
      </trkpt>
      <trkpt lat="39.5381060" lon="-7.0951190">
        <ele>374.6</ele>
        <time>2019-07-10T11:29:48Z</time>
      </trkpt>
      <trkpt lat="39.5383930" lon="-7.0956200">
        <ele>374.0</ele>
        <time>2019-07-10T11:29:57Z</time>
      </trkpt>
      <trkpt lat="39.5385560" lon="-7.0959130">
        <ele>374.4</ele>
        <time>2019-07-10T11:30:02Z</time>
      </trkpt>
      <trkpt lat="39.5386540" lon="-7.0960890">
        <ele>374.2</ele>
        <time>2019-07-10T11:30:05Z</time>
      </trkpt>
      <trkpt lat="39.5388160" lon="-7.0963980">
        <ele>375.4</ele>
        <time>2019-07-10T11:30:11Z</time>
      </trkpt>
      <trkpt lat="39.5388390" lon="-7.0964410">
        <ele>376.2</ele>
        <time>2019-07-10T11:30:12Z</time>
      </trkpt>
      <trkpt lat="39.5389260" lon="-7.0965960">
        <ele>377.2</ele>
        <time>2019-07-10T11:30:16Z</time>
      </trkpt>
      <trkpt lat="39.5389470" lon="-7.0966330">
        <ele>377.2</ele>
        <time>2019-07-10T11:30:17Z</time>
      </trkpt>
      <trkpt lat="39.5389680" lon="-7.0966700">
        <ele>377.4</ele>
        <time>2019-07-10T11:30:18Z</time>
      </trkpt>
      <trkpt lat="39.5390100" lon="-7.0967440">
        <ele>378.8</ele>
        <time>2019-07-10T11:30:20Z</time>
      </trkpt>
      <trkpt lat="39.5390950" lon="-7.0968950">
        <ele>379.8</ele>
        <time>2019-07-10T11:30:24Z</time>
      </trkpt>
      <trkpt lat="39.5391190" lon="-7.0969320">
        <ele>379.8</ele>
        <time>2019-07-10T11:30:25Z</time>
      </trkpt>
      <trkpt lat="39.5391650" lon="-7.0970070">
        <ele>379.6</ele>
        <time>2019-07-10T11:30:27Z</time>
      </trkpt>
      <trkpt lat="39.5393490" lon="-7.0973140">
        <ele>381.0</ele>
        <time>2019-07-10T11:30:35Z</time>
      </trkpt>
      <trkpt lat="39.5393740" lon="-7.0973520">
        <ele>381.2</ele>
        <time>2019-07-10T11:30:36Z</time>
      </trkpt>
      <trkpt lat="39.5395890" lon="-7.0976870">
        <ele>381.6</ele>
        <time>2019-07-10T11:30:44Z</time>
      </trkpt>
      <trkpt lat="39.5397160" lon="-7.0978830">
        <ele>382.0</ele>
        <time>2019-07-10T11:30:48Z</time>
      </trkpt>
      <trkpt lat="39.5398810" lon="-7.0981320">
        <ele>381.6</ele>
        <time>2019-07-10T11:30:53Z</time>
      </trkpt>
      <trkpt lat="39.5399690" lon="-7.0982960">
        <ele>381.6</ele>
        <time>2019-07-10T11:30:56Z</time>
      </trkpt>
      <trkpt lat="39.5400750" lon="-7.0985010">
        <ele>381.4</ele>
        <time>2019-07-10T11:31:00Z</time>
      </trkpt>
      <trkpt lat="39.5401000" lon="-7.0985480">
        <ele>381.4</ele>
        <time>2019-07-10T11:31:01Z</time>
      </trkpt>
      <trkpt lat="39.5401470" lon="-7.0986600">
        <ele>381.8</ele>
        <time>2019-07-10T11:31:04Z</time>
      </trkpt>
      <trkpt lat="39.5401520" lon="-7.0986780">
        <ele>381.8</ele>
        <time>2019-07-10T11:31:05Z</time>
      </trkpt>
      <trkpt lat="39.5401520" lon="-7.0986800">
        <ele>381.8</ele>
        <time>2019-07-10T11:31:07Z</time>
      </trkpt>
      <trkpt lat="39.5401710" lon="-7.0987880">
        <ele>381.8</ele>
        <time>2019-07-10T11:33:07Z</time>
      </trkpt>
      <trkpt lat="39.5401620" lon="-7.0988020">
        <ele>381.8</ele>
        <time>2019-07-10T11:33:08Z</time>
      </trkpt>
      <trkpt lat="39.5400910" lon="-7.0989460">
        <ele>382.4</ele>
        <time>2019-07-10T11:33:15Z</time>
      </trkpt>
      <trkpt lat="39.5400590" lon="-7.0990650">
        <ele>382.2</ele>
        <time>2019-07-10T11:33:20Z</time>
      </trkpt>
      <trkpt lat="39.5400320" lon="-7.0992680">
        <ele>382.6</ele>
        <time>2019-07-10T11:33:26Z</time>
      </trkpt>
      <trkpt lat="39.5399850" lon="-7.0995490">
        <ele>382.8</ele>
        <time>2019-07-10T11:33:33Z</time>
      </trkpt>
      <trkpt lat="39.5399610" lon="-7.0996420">
        <ele>383.2</ele>
        <time>2019-07-10T11:33:35Z</time>
      </trkpt>
      <trkpt lat="39.5399350" lon="-7.0997420">
        <ele>383.4</ele>
        <time>2019-07-10T11:33:37Z</time>
      </trkpt>
      <trkpt lat="39.5399120" lon="-7.0998950">
        <ele>384.0</ele>
        <time>2019-07-10T11:33:40Z</time>
      </trkpt>
      <trkpt lat="39.5399000" lon="-7.0999980">
        <ele>384.2</ele>
        <time>2019-07-10T11:33:42Z</time>
      </trkpt>
      <trkpt lat="39.5398650" lon="-7.1002170">
        <ele>384.2</ele>
        <time>2019-07-10T11:33:46Z</time>
      </trkpt>
      <trkpt lat="39.5398370" lon="-7.1003260">
        <ele>384.2</ele>
        <time>2019-07-10T11:33:48Z</time>
      </trkpt>
      <trkpt lat="39.5398060" lon="-7.1004360">
        <ele>384.2</ele>
        <time>2019-07-10T11:33:50Z</time>
      </trkpt>
      <trkpt lat="39.5397200" lon="-7.1006460">
        <ele>384.4</ele>
        <time>2019-07-10T11:33:54Z</time>
      </trkpt>
      <trkpt lat="39.5397020" lon="-7.1006970">
        <ele>384.4</ele>
        <time>2019-07-10T11:33:55Z</time>
      </trkpt>
      <trkpt lat="39.5396860" lon="-7.1008650">
        <ele>384.8</ele>
        <time>2019-07-10T11:33:58Z</time>
      </trkpt>
      <trkpt lat="39.5397150" lon="-7.1009750">
        <ele>385.0</ele>
        <time>2019-07-10T11:34:00Z</time>
      </trkpt>
      <trkpt lat="39.5397720" lon="-7.1010780">
        <ele>385.0</ele>
        <time>2019-07-10T11:34:02Z</time>
      </trkpt>
      <trkpt lat="39.5399620" lon="-7.1014570">
        <ele>385.2</ele>
        <time>2019-07-10T11:34:09Z</time>
      </trkpt>
      <trkpt lat="39.5400560" lon="-7.1016940">
        <ele>385.4</ele>
        <time>2019-07-10T11:34:13Z</time>
      </trkpt>
      <trkpt lat="39.5401440" lon="-7.1018670">
        <ele>385.6</ele>
        <time>2019-07-10T11:34:16Z</time>
      </trkpt>
      <trkpt lat="39.5402270" lon="-7.1020450">
        <ele>386.0</ele>
        <time>2019-07-10T11:34:19Z</time>
      </trkpt>
      <trkpt lat="39.5403170" lon="-7.1022900">
        <ele>386.2</ele>
        <time>2019-07-10T11:34:23Z</time>
      </trkpt>
      <trkpt lat="39.5404250" lon="-7.1026500">
        <ele>387.2</ele>
        <time>2019-07-10T11:34:29Z</time>
      </trkpt>
      <trkpt lat="39.5404600" lon="-7.1027630">
        <ele>387.2</ele>
        <time>2019-07-10T11:34:31Z</time>
      </trkpt>
      <trkpt lat="39.5405870" lon="-7.1031710">
        <ele>388.0</ele>
        <time>2019-07-10T11:34:38Z</time>
      </trkpt>
      <trkpt lat="39.5406130" lon="-7.1032920">
        <ele>388.2</ele>
        <time>2019-07-10T11:34:40Z</time>
      </trkpt>
      <trkpt lat="39.5407300" lon="-7.1037960">
        <ele>388.4</ele>
        <time>2019-07-10T11:34:48Z</time>
      </trkpt>
      <trkpt lat="39.5407990" lon="-7.1040650">
        <ele>387.6</ele>
        <time>2019-07-10T11:34:52Z</time>
      </trkpt>
      <trkpt lat="39.5408290" lon="-7.1042080">
        <ele>387.0</ele>
        <time>2019-07-10T11:34:54Z</time>
      </trkpt>
      <trkpt lat="39.5408470" lon="-7.1042790">
        <ele>386.8</ele>
        <time>2019-07-10T11:34:55Z</time>
      </trkpt>
      <trkpt lat="39.5408970" lon="-7.1044150">
        <ele>386.4</ele>
        <time>2019-07-10T11:34:57Z</time>
      </trkpt>
      <trkpt lat="39.5409500" lon="-7.1045130">
        <ele>386.2</ele>
        <time>2019-07-10T11:34:59Z</time>
      </trkpt>
      <trkpt lat="39.5409730" lon="-7.1045480">
        <ele>386.2</ele>
        <time>2019-07-10T11:35:00Z</time>
      </trkpt>
      <trkpt lat="39.5410410" lon="-7.1046480">
        <ele>386.2</ele>
        <time>2019-07-10T11:35:03Z</time>
      </trkpt>
      <trkpt lat="39.5410690" lon="-7.1046840">
        <ele>386.0</ele>
        <time>2019-07-10T11:35:04Z</time>
      </trkpt>
      <trkpt lat="39.5410940" lon="-7.1047210">
        <ele>385.8</ele>
        <time>2019-07-10T11:35:05Z</time>
      </trkpt>
      <trkpt lat="39.5411180" lon="-7.1047670">
        <ele>385.4</ele>
        <time>2019-07-10T11:35:06Z</time>
      </trkpt>
      <trkpt lat="39.5411720" lon="-7.1048710">
        <ele>385.2</ele>
        <time>2019-07-10T11:35:08Z</time>
      </trkpt>
      <trkpt lat="39.5412350" lon="-7.1049790">
        <ele>384.8</ele>
        <time>2019-07-10T11:35:10Z</time>
      </trkpt>
      <trkpt lat="39.5413310" lon="-7.1051630">
        <ele>384.2</ele>
        <time>2019-07-10T11:35:13Z</time>
      </trkpt>
      <trkpt lat="39.5413710" lon="-7.1052200">
        <ele>383.8</ele>
        <time>2019-07-10T11:35:14Z</time>
      </trkpt>
      <trkpt lat="39.5414160" lon="-7.1052740">
        <ele>383.6</ele>
        <time>2019-07-10T11:35:15Z</time>
      </trkpt>
      <trkpt lat="39.5415070" lon="-7.1053880">
        <ele>383.2</ele>
        <time>2019-07-10T11:35:17Z</time>
      </trkpt>
      <trkpt lat="39.5415770" lon="-7.1055280">
        <ele>382.8</ele>
        <time>2019-07-10T11:35:19Z</time>
      </trkpt>
      <trkpt lat="39.5416050" lon="-7.1056050">
        <ele>382.4</ele>
        <time>2019-07-10T11:35:20Z</time>
      </trkpt>
      <trkpt lat="39.5416610" lon="-7.1057600">
        <ele>382.0</ele>
        <time>2019-07-10T11:35:22Z</time>
      </trkpt>
      <trkpt lat="39.5417370" lon="-7.1059020">
        <ele>381.4</ele>
        <time>2019-07-10T11:35:24Z</time>
      </trkpt>
      <trkpt lat="39.5417770" lon="-7.1059690">
        <ele>381.0</ele>
        <time>2019-07-10T11:35:25Z</time>
      </trkpt>
      <trkpt lat="39.5418450" lon="-7.1061180">
        <ele>380.4</ele>
        <time>2019-07-10T11:35:27Z</time>
      </trkpt>
      <trkpt lat="39.5418770" lon="-7.1061920">
        <ele>380.4</ele>
        <time>2019-07-10T11:35:28Z</time>
      </trkpt>
      <trkpt lat="39.5419120" lon="-7.1062620">
        <ele>380.2</ele>
        <time>2019-07-10T11:35:29Z</time>
      </trkpt>
      <trkpt lat="39.5420310" lon="-7.1064740">
        <ele>379.6</ele>
        <time>2019-07-10T11:35:32Z</time>
      </trkpt>
      <trkpt lat="39.5420700" lon="-7.1065500">
        <ele>379.4</ele>
        <time>2019-07-10T11:35:33Z</time>
      </trkpt>
      <trkpt lat="39.5421070" lon="-7.1066290">
        <ele>379.2</ele>
        <time>2019-07-10T11:35:34Z</time>
      </trkpt>
      <trkpt lat="39.5422290" lon="-7.1068600">
        <ele>379.0</ele>
        <time>2019-07-10T11:35:37Z</time>
      </trkpt>
      <trkpt lat="39.5423010" lon="-7.1070170">
        <ele>378.8</ele>
        <time>2019-07-10T11:35:39Z</time>
      </trkpt>
      <trkpt lat="39.5423690" lon="-7.1071760">
        <ele>378.6</ele>
        <time>2019-07-10T11:35:41Z</time>
      </trkpt>
      <trkpt lat="39.5424030" lon="-7.1072570">
        <ele>378.4</ele>
        <time>2019-07-10T11:35:42Z</time>
      </trkpt>
      <trkpt lat="39.5424420" lon="-7.1073320">
        <ele>378.2</ele>
        <time>2019-07-10T11:35:43Z</time>
      </trkpt>
      <trkpt lat="39.5424830" lon="-7.1074010">
        <ele>378.2</ele>
        <time>2019-07-10T11:35:44Z</time>
      </trkpt>
      <trkpt lat="39.5425970" lon="-7.1076180">
        <ele>377.4</ele>
        <time>2019-07-10T11:35:47Z</time>
      </trkpt>
      <trkpt lat="39.5426240" lon="-7.1076990">
        <ele>377.2</ele>
        <time>2019-07-10T11:35:48Z</time>
      </trkpt>
      <trkpt lat="39.5426420" lon="-7.1077850">
        <ele>377.0</ele>
        <time>2019-07-10T11:35:49Z</time>
      </trkpt>
      <trkpt lat="39.5427170" lon="-7.1082000">
        <ele>376.4</ele>
        <time>2019-07-10T11:35:54Z</time>
      </trkpt>
      <trkpt lat="39.5427300" lon="-7.1082850">
        <ele>376.4</ele>
        <time>2019-07-10T11:35:55Z</time>
      </trkpt>
      <trkpt lat="39.5427670" lon="-7.1084520">
        <ele>376.2</ele>
        <time>2019-07-10T11:35:57Z</time>
      </trkpt>
      <trkpt lat="39.5427890" lon="-7.1085300">
        <ele>376.0</ele>
        <time>2019-07-10T11:35:58Z</time>
      </trkpt>
      <trkpt lat="39.5428320" lon="-7.1086790">
        <ele>375.4</ele>
        <time>2019-07-10T11:36:00Z</time>
      </trkpt>
      <trkpt lat="39.5428830" lon="-7.1089020">
        <ele>374.8</ele>
        <time>2019-07-10T11:36:03Z</time>
      </trkpt>
      <trkpt lat="39.5429240" lon="-7.1090470">
        <ele>374.8</ele>
        <time>2019-07-10T11:36:05Z</time>
      </trkpt>
      <trkpt lat="39.5429740" lon="-7.1091940">
        <ele>375.0</ele>
        <time>2019-07-10T11:36:07Z</time>
      </trkpt>
      <trkpt lat="39.5430440" lon="-7.1094230">
        <ele>375.0</ele>
        <time>2019-07-10T11:36:10Z</time>
      </trkpt>
      <trkpt lat="39.5430750" lon="-7.1095730">
        <ele>374.4</ele>
        <time>2019-07-10T11:36:12Z</time>
      </trkpt>
      <trkpt lat="39.5432200" lon="-7.1101220">
        <ele>374.4</ele>
        <time>2019-07-10T11:36:20Z</time>
      </trkpt>
      <trkpt lat="39.5433220" lon="-7.1104930">
        <ele>374.8</ele>
        <time>2019-07-10T11:36:26Z</time>
      </trkpt>
      <trkpt lat="39.5433400" lon="-7.1105530">
        <ele>375.0</ele>
        <time>2019-07-10T11:36:27Z</time>
      </trkpt>
      <trkpt lat="39.5433640" lon="-7.1106100">
        <ele>375.0</ele>
        <time>2019-07-10T11:36:28Z</time>
      </trkpt>
      <trkpt lat="39.5434180" lon="-7.1107180">
        <ele>375.2</ele>
        <time>2019-07-10T11:36:30Z</time>
      </trkpt>
      <trkpt lat="39.5434660" lon="-7.1108420">
        <ele>375.4</ele>
        <time>2019-07-10T11:36:32Z</time>
      </trkpt>
      <trkpt lat="39.5435510" lon="-7.1112310">
        <ele>374.8</ele>
        <time>2019-07-10T11:36:37Z</time>
      </trkpt>
      <trkpt lat="39.5436170" lon="-7.1114960">
        <ele>373.8</ele>
        <time>2019-07-10T11:36:40Z</time>
      </trkpt>
      <trkpt lat="39.5436820" lon="-7.1117560">
        <ele>372.4</ele>
        <time>2019-07-10T11:36:43Z</time>
      </trkpt>
      <trkpt lat="39.5436990" lon="-7.1118360">
        <ele>372.4</ele>
        <time>2019-07-10T11:36:44Z</time>
      </trkpt>
      <trkpt lat="39.5437020" lon="-7.1121590">
        <ele>371.8</ele>
        <time>2019-07-10T11:36:48Z</time>
      </trkpt>
      <trkpt lat="39.5437050" lon="-7.1123920">
        <ele>371.2</ele>
        <time>2019-07-10T11:36:51Z</time>
      </trkpt>
      <trkpt lat="39.5437260" lon="-7.1125470">
        <ele>371.0</ele>
        <time>2019-07-10T11:36:53Z</time>
      </trkpt>
      <trkpt lat="39.5437520" lon="-7.1127070">
        <ele>370.0</ele>
        <time>2019-07-10T11:36:55Z</time>
      </trkpt>
      <trkpt lat="39.5437770" lon="-7.1128790">
        <ele>368.6</ele>
        <time>2019-07-10T11:36:57Z</time>
      </trkpt>
      <trkpt lat="39.5437970" lon="-7.1129600">
        <ele>367.8</ele>
        <time>2019-07-10T11:36:58Z</time>
      </trkpt>
      <trkpt lat="39.5438160" lon="-7.1130400">
        <ele>367.6</ele>
        <time>2019-07-10T11:36:59Z</time>
      </trkpt>
      <trkpt lat="39.5438410" lon="-7.1131870">
        <ele>367.2</ele>
        <time>2019-07-10T11:37:01Z</time>
      </trkpt>
      <trkpt lat="39.5438570" lon="-7.1132520">
        <ele>367.2</ele>
        <time>2019-07-10T11:37:02Z</time>
      </trkpt>
      <trkpt lat="39.5439130" lon="-7.1133640">
        <ele>366.2</ele>
        <time>2019-07-10T11:37:04Z</time>
      </trkpt>
      <trkpt lat="39.5439770" lon="-7.1134700">
        <ele>365.2</ele>
        <time>2019-07-10T11:37:06Z</time>
      </trkpt>
      <trkpt lat="39.5440440" lon="-7.1135850">
        <ele>364.6</ele>
        <time>2019-07-10T11:37:08Z</time>
      </trkpt>
      <trkpt lat="39.5441760" lon="-7.1137580">
        <ele>364.2</ele>
        <time>2019-07-10T11:37:11Z</time>
      </trkpt>
      <trkpt lat="39.5442210" lon="-7.1138170">
        <ele>364.0</ele>
        <time>2019-07-10T11:37:12Z</time>
      </trkpt>
      <trkpt lat="39.5442620" lon="-7.1138800">
        <ele>364.0</ele>
        <time>2019-07-10T11:37:13Z</time>
      </trkpt>
      <trkpt lat="39.5443250" lon="-7.1140230">
        <ele>363.8</ele>
        <time>2019-07-10T11:37:15Z</time>
      </trkpt>
      <trkpt lat="39.5443700" lon="-7.1141620">
        <ele>363.4</ele>
        <time>2019-07-10T11:37:17Z</time>
      </trkpt>
      <trkpt lat="39.5444610" lon="-7.1143370">
        <ele>363.4</ele>
        <time>2019-07-10T11:37:20Z</time>
      </trkpt>
      <trkpt lat="39.5444980" lon="-7.1143860">
        <ele>363.2</ele>
        <time>2019-07-10T11:37:21Z</time>
      </trkpt>
      <trkpt lat="39.5445800" lon="-7.1144740">
        <ele>363.0</ele>
        <time>2019-07-10T11:37:23Z</time>
      </trkpt>
      <trkpt lat="39.5446670" lon="-7.1145680">
        <ele>363.0</ele>
        <time>2019-07-10T11:37:25Z</time>
      </trkpt>
      <trkpt lat="39.5448370" lon="-7.1147320">
        <ele>362.8</ele>
        <time>2019-07-10T11:37:29Z</time>
      </trkpt>
      <trkpt lat="39.5449510" lon="-7.1148540">
        <ele>362.8</ele>
        <time>2019-07-10T11:37:32Z</time>
      </trkpt>
      <trkpt lat="39.5450280" lon="-7.1149270">
        <ele>363.2</ele>
        <time>2019-07-10T11:37:34Z</time>
      </trkpt>
      <trkpt lat="39.5451380" lon="-7.1150420">
        <ele>363.4</ele>
        <time>2019-07-10T11:37:38Z</time>
      </trkpt>
      <trkpt lat="39.5451650" lon="-7.1151460">
        <ele>364.0</ele>
        <time>2019-07-10T11:37:41Z</time>
      </trkpt>
      <trkpt lat="39.5451680" lon="-7.1151840">
        <ele>364.2</ele>
        <time>2019-07-10T11:37:42Z</time>
      </trkpt>
      <trkpt lat="39.5451700" lon="-7.1152250">
        <ele>364.6</ele>
        <time>2019-07-10T11:37:43Z</time>
      </trkpt>
      <trkpt lat="39.5451860" lon="-7.1153040">
        <ele>365.0</ele>
        <time>2019-07-10T11:37:45Z</time>
      </trkpt>
      <trkpt lat="39.5452000" lon="-7.1153440">
        <ele>365.6</ele>
        <time>2019-07-10T11:37:46Z</time>
      </trkpt>
      <trkpt lat="39.5452150" lon="-7.1153850">
        <ele>365.8</ele>
        <time>2019-07-10T11:37:47Z</time>
      </trkpt>
      <trkpt lat="39.5452580" lon="-7.1155180">
        <ele>366.2</ele>
        <time>2019-07-10T11:37:50Z</time>
      </trkpt>
      <trkpt lat="39.5452750" lon="-7.1155640">
        <ele>366.2</ele>
        <time>2019-07-10T11:37:51Z</time>
      </trkpt>
      <trkpt lat="39.5453080" lon="-7.1156660">
        <ele>366.2</ele>
        <time>2019-07-10T11:37:53Z</time>
      </trkpt>
      <trkpt lat="39.5453660" lon="-7.1158980">
        <ele>366.0</ele>
        <time>2019-07-10T11:37:57Z</time>
      </trkpt>
      <trkpt lat="39.5454090" lon="-7.1160760">
        <ele>366.2</ele>
        <time>2019-07-10T11:38:00Z</time>
      </trkpt>
      <trkpt lat="39.5454270" lon="-7.1161320">
        <ele>366.2</ele>
        <time>2019-07-10T11:38:01Z</time>
      </trkpt>
      <trkpt lat="39.5454720" lon="-7.1162370">
        <ele>366.2</ele>
        <time>2019-07-10T11:38:03Z</time>
      </trkpt>
      <trkpt lat="39.5455550" lon="-7.1163910">
        <ele>366.2</ele>
        <time>2019-07-10T11:38:06Z</time>
      </trkpt>
      <trkpt lat="39.5456380" lon="-7.1165770">
        <ele>366.2</ele>
        <time>2019-07-10T11:38:09Z</time>
      </trkpt>
      <trkpt lat="39.5456860" lon="-7.1167360">
        <ele>365.4</ele>
        <time>2019-07-10T11:38:11Z</time>
      </trkpt>
      <trkpt lat="39.5457350" lon="-7.1169070">
        <ele>364.6</ele>
        <time>2019-07-10T11:38:13Z</time>
      </trkpt>
      <trkpt lat="39.5457930" lon="-7.1170720">
        <ele>364.2</ele>
        <time>2019-07-10T11:38:15Z</time>
      </trkpt>
      <trkpt lat="39.5458670" lon="-7.1172080">
        <ele>364.0</ele>
        <time>2019-07-10T11:38:17Z</time>
      </trkpt>
      <trkpt lat="39.5460230" lon="-7.1175150">
        <ele>364.4</ele>
        <time>2019-07-10T11:38:22Z</time>
      </trkpt>
      <trkpt lat="39.5460530" lon="-7.1175700">
        <ele>364.4</ele>
        <time>2019-07-10T11:38:23Z</time>
      </trkpt>
      <trkpt lat="39.5461630" lon="-7.1177540">
        <ele>365.0</ele>
        <time>2019-07-10T11:38:27Z</time>
      </trkpt>
      <trkpt lat="39.5462200" lon="-7.1178420">
        <ele>365.8</ele>
        <time>2019-07-10T11:38:29Z</time>
      </trkpt>
      <trkpt lat="39.5463030" lon="-7.1179870">
        <ele>366.2</ele>
        <time>2019-07-10T11:38:32Z</time>
      </trkpt>
      <trkpt lat="39.5463850" lon="-7.1181330">
        <ele>366.2</ele>
        <time>2019-07-10T11:38:35Z</time>
      </trkpt>
      <trkpt lat="39.5464160" lon="-7.1181770">
        <ele>366.2</ele>
        <time>2019-07-10T11:38:36Z</time>
      </trkpt>
      <trkpt lat="39.5465510" lon="-7.1183460">
        <ele>367.0</ele>
        <time>2019-07-10T11:38:40Z</time>
      </trkpt>
      <trkpt lat="39.5466760" lon="-7.1185240">
        <ele>367.4</ele>
        <time>2019-07-10T11:38:44Z</time>
      </trkpt>
      <trkpt lat="39.5467860" lon="-7.1187160">
        <ele>368.0</ele>
        <time>2019-07-10T11:38:48Z</time>
      </trkpt>
      <trkpt lat="39.5468090" lon="-7.1187660">
        <ele>368.0</ele>
        <time>2019-07-10T11:38:49Z</time>
      </trkpt>
      <trkpt lat="39.5468360" lon="-7.1188150">
        <ele>368.2</ele>
        <time>2019-07-10T11:38:50Z</time>
      </trkpt>
      <trkpt lat="39.5468920" lon="-7.1189080">
        <ele>368.6</ele>
        <time>2019-07-10T11:38:52Z</time>
      </trkpt>
      <trkpt lat="39.5469490" lon="-7.1189960">
        <ele>369.0</ele>
        <time>2019-07-10T11:38:54Z</time>
      </trkpt>
      <trkpt lat="39.5470380" lon="-7.1191170">
        <ele>369.4</ele>
        <time>2019-07-10T11:38:57Z</time>
      </trkpt>
      <trkpt lat="39.5470620" lon="-7.1191620">
        <ele>369.6</ele>
        <time>2019-07-10T11:38:58Z</time>
      </trkpt>
      <trkpt lat="39.5471030" lon="-7.1192540">
        <ele>370.2</ele>
        <time>2019-07-10T11:39:00Z</time>
      </trkpt>
      <trkpt lat="39.5471660" lon="-7.1194370">
        <ele>370.4</ele>
        <time>2019-07-10T11:39:04Z</time>
      </trkpt>
      <trkpt lat="39.5472510" lon="-7.1196440">
        <ele>371.0</ele>
        <time>2019-07-10T11:39:09Z</time>
      </trkpt>
      <trkpt lat="39.5472600" lon="-7.1196830">
        <ele>371.2</ele>
        <time>2019-07-10T11:39:10Z</time>
      </trkpt>
      <trkpt lat="39.5472790" lon="-7.1197620">
        <ele>371.6</ele>
        <time>2019-07-10T11:39:13Z</time>
      </trkpt>
      <trkpt lat="39.5472780" lon="-7.1197690">
        <ele>371.6</ele>
        <time>2019-07-10T11:39:14Z</time>
      </trkpt>
      <trkpt lat="39.5472790" lon="-7.1197690">
        <ele>371.6</ele>
        <time>2019-07-10T11:39:15Z</time>
      </trkpt>
      <trkpt lat="39.5473110" lon="-7.1198340">
        <ele>371.8</ele>
        <time>2019-07-10T11:40:17Z</time>
      </trkpt>
      <trkpt lat="39.5473220" lon="-7.1198490">
        <ele>372.0</ele>
        <time>2019-07-10T11:40:18Z</time>
      </trkpt>
      <trkpt lat="39.5473310" lon="-7.1198650">
        <ele>372.0</ele>
        <time>2019-07-10T11:40:19Z</time>
      </trkpt>
      <trkpt lat="39.5473480" lon="-7.1199280">
        <ele>372.0</ele>
        <time>2019-07-10T11:40:23Z</time>
      </trkpt>
      <trkpt lat="39.5473490" lon="-7.1199390">
        <ele>372.2</ele>
        <time>2019-07-10T11:40:25Z</time>
      </trkpt>
      <trkpt lat="39.5473490" lon="-7.1199390">
        <ele>372.2</ele>
        <time>2019-07-10T11:40:26Z</time>
      </trkpt>
      <trkpt lat="39.5473510" lon="-7.1199720">
        <ele>371.8</ele>
        <time>2019-07-10T11:40:36Z</time>
      </trkpt>
      <trkpt lat="39.5473710" lon="-7.1200160">
        <ele>371.8</ele>
        <time>2019-07-10T11:40:38Z</time>
      </trkpt>
      <trkpt lat="39.5474090" lon="-7.1201240">
        <ele>372.2</ele>
        <time>2019-07-10T11:40:41Z</time>
      </trkpt>
      <trkpt lat="39.5474390" lon="-7.1202130">
        <ele>372.2</ele>
        <time>2019-07-10T11:40:43Z</time>
      </trkpt>
      <trkpt lat="39.5474770" lon="-7.1203120">
        <ele>372.0</ele>
        <time>2019-07-10T11:40:45Z</time>
      </trkpt>
      <trkpt lat="39.5474920" lon="-7.1203670">
        <ele>371.8</ele>
        <time>2019-07-10T11:40:46Z</time>
      </trkpt>
      <trkpt lat="39.5475070" lon="-7.1204940">
        <ele>371.4</ele>
        <time>2019-07-10T11:40:48Z</time>
      </trkpt>
      <trkpt lat="39.5475120" lon="-7.1206310">
        <ele>371.0</ele>
        <time>2019-07-10T11:40:50Z</time>
      </trkpt>
      <trkpt lat="39.5475180" lon="-7.1208100">
        <ele>369.6</ele>
        <time>2019-07-10T11:40:53Z</time>
      </trkpt>
      <trkpt lat="39.5475230" lon="-7.1208670">
        <ele>369.2</ele>
        <time>2019-07-10T11:40:54Z</time>
      </trkpt>
      <trkpt lat="39.5475490" lon="-7.1210520">
        <ele>368.6</ele>
        <time>2019-07-10T11:40:57Z</time>
      </trkpt>
      <trkpt lat="39.5475750" lon="-7.1211880">
        <ele>367.8</ele>
        <time>2019-07-10T11:40:59Z</time>
      </trkpt>
      <trkpt lat="39.5475940" lon="-7.1212600">
        <ele>367.2</ele>
        <time>2019-07-10T11:41:00Z</time>
      </trkpt>
      <trkpt lat="39.5476160" lon="-7.1213350">
        <ele>366.4</ele>
        <time>2019-07-10T11:41:01Z</time>
      </trkpt>
      <trkpt lat="39.5476700" lon="-7.1214730">
        <ele>365.8</ele>
        <time>2019-07-10T11:41:03Z</time>
      </trkpt>
      <trkpt lat="39.5477230" lon="-7.1215830">
        <ele>365.4</ele>
        <time>2019-07-10T11:41:05Z</time>
      </trkpt>
      <trkpt lat="39.5477470" lon="-7.1216390">
        <ele>365.4</ele>
        <time>2019-07-10T11:41:06Z</time>
      </trkpt>
      <trkpt lat="39.5477840" lon="-7.1217570">
        <ele>364.6</ele>
        <time>2019-07-10T11:41:08Z</time>
      </trkpt>
      <trkpt lat="39.5477980" lon="-7.1218150">
        <ele>364.2</ele>
        <time>2019-07-10T11:41:09Z</time>
      </trkpt>
      <trkpt lat="39.5478130" lon="-7.1218720">
        <ele>364.0</ele>
        <time>2019-07-10T11:41:10Z</time>
      </trkpt>
      <trkpt lat="39.5478740" lon="-7.1220440">
        <ele>363.0</ele>
        <time>2019-07-10T11:41:13Z</time>
      </trkpt>
      <trkpt lat="39.5479200" lon="-7.1221320">
        <ele>362.4</ele>
        <time>2019-07-10T11:41:15Z</time>
      </trkpt>
      <trkpt lat="39.5479480" lon="-7.1221650">
        <ele>362.0</ele>
        <time>2019-07-10T11:41:16Z</time>
      </trkpt>
      <trkpt lat="39.5480220" lon="-7.1222040">
        <ele>361.0</ele>
        <time>2019-07-10T11:41:18Z</time>
      </trkpt>
      <trkpt lat="39.5480600" lon="-7.1222190">
        <ele>360.8</ele>
        <time>2019-07-10T11:41:19Z</time>
      </trkpt>
      <trkpt lat="39.5481430" lon="-7.1222920">
        <ele>359.6</ele>
        <time>2019-07-10T11:41:22Z</time>
      </trkpt>
      <trkpt lat="39.5481570" lon="-7.1223280">
        <ele>359.4</ele>
        <time>2019-07-10T11:41:23Z</time>
      </trkpt>
      <trkpt lat="39.5482140" lon="-7.1224090">
        <ele>359.0</ele>
        <time>2019-07-10T11:41:26Z</time>
      </trkpt>
      <trkpt lat="39.5482440" lon="-7.1224240">
        <ele>359.2</ele>
        <time>2019-07-10T11:41:27Z</time>
      </trkpt>
      <trkpt lat="39.5482820" lon="-7.1224330">
        <ele>359.2</ele>
        <time>2019-07-10T11:41:28Z</time>
      </trkpt>
      <trkpt lat="39.5483220" lon="-7.1224400">
        <ele>359.0</ele>
        <time>2019-07-10T11:41:29Z</time>
      </trkpt>
      <trkpt lat="39.5484020" lon="-7.1224490">
        <ele>359.2</ele>
        <time>2019-07-10T11:41:31Z</time>
      </trkpt>
      <trkpt lat="39.5484420" lon="-7.1224470">
        <ele>359.2</ele>
        <time>2019-07-10T11:41:32Z</time>
      </trkpt>
      <trkpt lat="39.5485700" lon="-7.1224390">
        <ele>359.0</ele>
        <time>2019-07-10T11:41:35Z</time>
      </trkpt>
      <trkpt lat="39.5487120" lon="-7.1224190">
        <ele>358.8</ele>
        <time>2019-07-10T11:41:38Z</time>
      </trkpt>
      <trkpt lat="39.5488000" lon="-7.1224410">
        <ele>358.6</ele>
        <time>2019-07-10T11:41:40Z</time>
      </trkpt>
      <trkpt lat="39.5488700" lon="-7.1224950">
        <ele>358.8</ele>
        <time>2019-07-10T11:41:42Z</time>
      </trkpt>
      <trkpt lat="39.5489110" lon="-7.1225700">
        <ele>359.2</ele>
        <time>2019-07-10T11:41:44Z</time>
      </trkpt>
      <trkpt lat="39.5489340" lon="-7.1226510">
        <ele>359.8</ele>
        <time>2019-07-10T11:41:46Z</time>
      </trkpt>
      <trkpt lat="39.5489410" lon="-7.1226950">
        <ele>359.8</ele>
        <time>2019-07-10T11:41:47Z</time>
      </trkpt>
      <trkpt lat="39.5489470" lon="-7.1227830">
        <ele>360.4</ele>
        <time>2019-07-10T11:41:49Z</time>
      </trkpt>
      <trkpt lat="39.5489640" lon="-7.1228750">
        <ele>360.4</ele>
        <time>2019-07-10T11:41:51Z</time>
      </trkpt>
      <trkpt lat="39.5490080" lon="-7.1230470">
        <ele>360.4</ele>
        <time>2019-07-10T11:41:54Z</time>
      </trkpt>
      <trkpt lat="39.5490440" lon="-7.1231950">
        <ele>360.0</ele>
        <time>2019-07-10T11:41:56Z</time>
      </trkpt>
      <trkpt lat="39.5491140" lon="-7.1234240">
        <ele>358.6</ele>
        <time>2019-07-10T11:41:59Z</time>
      </trkpt>
      <trkpt lat="39.5491750" lon="-7.1235790">
        <ele>357.2</ele>
        <time>2019-07-10T11:42:01Z</time>
      </trkpt>
      <trkpt lat="39.5492090" lon="-7.1236570">
        <ele>356.8</ele>
        <time>2019-07-10T11:42:02Z</time>
      </trkpt>
      <trkpt lat="39.5492820" lon="-7.1238100">
        <ele>356.0</ele>
        <time>2019-07-10T11:42:04Z</time>
      </trkpt>
      <trkpt lat="39.5493240" lon="-7.1238810">
        <ele>355.8</ele>
        <time>2019-07-10T11:42:05Z</time>
      </trkpt>
      <trkpt lat="39.5494100" lon="-7.1239910">
        <ele>355.6</ele>
        <time>2019-07-10T11:42:07Z</time>
      </trkpt>
      <trkpt lat="39.5495560" lon="-7.1241180">
        <ele>354.8</ele>
        <time>2019-07-10T11:42:11Z</time>
      </trkpt>
      <trkpt lat="39.5495940" lon="-7.1241450">
        <ele>354.6</ele>
        <time>2019-07-10T11:42:12Z</time>
      </trkpt>
      <trkpt lat="39.5496820" lon="-7.1242650">
        <ele>353.6</ele>
        <time>2019-07-10T11:42:15Z</time>
      </trkpt>
      <trkpt lat="39.5496980" lon="-7.1243240">
        <ele>353.0</ele>
        <time>2019-07-10T11:42:16Z</time>
      </trkpt>
      <trkpt lat="39.5497170" lon="-7.1244550">
        <ele>352.4</ele>
        <time>2019-07-10T11:42:18Z</time>
      </trkpt>
      <trkpt lat="39.5497400" lon="-7.1245930">
        <ele>351.8</ele>
        <time>2019-07-10T11:42:20Z</time>
      </trkpt>
      <trkpt lat="39.5497530" lon="-7.1246630">
        <ele>351.6</ele>
        <time>2019-07-10T11:42:21Z</time>
      </trkpt>
      <trkpt lat="39.5497680" lon="-7.1247320">
        <ele>351.2</ele>
        <time>2019-07-10T11:42:22Z</time>
      </trkpt>
      <trkpt lat="39.5497860" lon="-7.1248010">
        <ele>351.0</ele>
        <time>2019-07-10T11:42:23Z</time>
      </trkpt>
      <trkpt lat="39.5498470" lon="-7.1249280">
        <ele>350.8</ele>
        <time>2019-07-10T11:42:25Z</time>
      </trkpt>
      <trkpt lat="39.5498910" lon="-7.1249830">
        <ele>350.8</ele>
        <time>2019-07-10T11:42:26Z</time>
      </trkpt>
      <trkpt lat="39.5499980" lon="-7.1250800">
        <ele>350.6</ele>
        <time>2019-07-10T11:42:28Z</time>
      </trkpt>
      <trkpt lat="39.5500510" lon="-7.1251300">
        <ele>350.2</ele>
        <time>2019-07-10T11:42:29Z</time>
      </trkpt>
      <trkpt lat="39.5500980" lon="-7.1251830">
        <ele>349.6</ele>
        <time>2019-07-10T11:42:30Z</time>
      </trkpt>
      <trkpt lat="39.5501840" lon="-7.1253000">
        <ele>349.2</ele>
        <time>2019-07-10T11:42:32Z</time>
      </trkpt>
      <trkpt lat="39.5502240" lon="-7.1253570">
        <ele>348.8</ele>
        <time>2019-07-10T11:42:33Z</time>
      </trkpt>
      <trkpt lat="39.5503630" lon="-7.1255860">
        <ele>348.2</ele>
        <time>2019-07-10T11:42:37Z</time>
      </trkpt>
      <trkpt lat="39.5505010" lon="-7.1258310">
        <ele>347.8</ele>
        <time>2019-07-10T11:42:41Z</time>
      </trkpt>
      <trkpt lat="39.5505420" lon="-7.1258860">
        <ele>347.8</ele>
        <time>2019-07-10T11:42:42Z</time>
      </trkpt>
      <trkpt lat="39.5505860" lon="-7.1259350">
        <ele>347.8</ele>
        <time>2019-07-10T11:42:43Z</time>
      </trkpt>
      <trkpt lat="39.5506760" lon="-7.1260280">
        <ele>347.6</ele>
        <time>2019-07-10T11:42:45Z</time>
      </trkpt>
      <trkpt lat="39.5508130" lon="-7.1261790">
        <ele>347.2</ele>
        <time>2019-07-10T11:42:48Z</time>
      </trkpt>
      <trkpt lat="39.5509010" lon="-7.1262940">
        <ele>346.6</ele>
        <time>2019-07-10T11:42:50Z</time>
      </trkpt>
      <trkpt lat="39.5511860" lon="-7.1266790">
        <ele>345.8</ele>
        <time>2019-07-10T11:42:56Z</time>
      </trkpt>
      <trkpt lat="39.5512230" lon="-7.1267520">
        <ele>345.6</ele>
        <time>2019-07-10T11:42:57Z</time>
      </trkpt>
      <trkpt lat="39.5513560" lon="-7.1270380">
        <ele>345.2</ele>
        <time>2019-07-10T11:43:01Z</time>
      </trkpt>
      <trkpt lat="39.5514970" lon="-7.1271670">
        <ele>345.0</ele>
        <time>2019-07-10T11:43:04Z</time>
      </trkpt>
      <trkpt lat="39.5516530" lon="-7.1272670">
        <ele>344.2</ele>
        <time>2019-07-10T11:43:07Z</time>
      </trkpt>
      <trkpt lat="39.5517430" lon="-7.1273350">
        <ele>343.6</ele>
        <time>2019-07-10T11:43:09Z</time>
      </trkpt>
      <trkpt lat="39.5518210" lon="-7.1273990">
        <ele>343.2</ele>
        <time>2019-07-10T11:43:11Z</time>
      </trkpt>
      <trkpt lat="39.5518840" lon="-7.1274800">
        <ele>343.2</ele>
        <time>2019-07-10T11:43:13Z</time>
      </trkpt>
      <trkpt lat="39.5519110" lon="-7.1275230">
        <ele>343.2</ele>
        <time>2019-07-10T11:43:14Z</time>
      </trkpt>
      <trkpt lat="39.5519360" lon="-7.1275690">
        <ele>343.4</ele>
        <time>2019-07-10T11:43:15Z</time>
      </trkpt>
      <trkpt lat="39.5519580" lon="-7.1276180">
        <ele>343.6</ele>
        <time>2019-07-10T11:43:16Z</time>
      </trkpt>
      <trkpt lat="39.5520060" lon="-7.1277630">
        <ele>343.4</ele>
        <time>2019-07-10T11:43:19Z</time>
      </trkpt>
      <trkpt lat="39.5520660" lon="-7.1279360">
        <ele>344.2</ele>
        <time>2019-07-10T11:43:23Z</time>
      </trkpt>
      <trkpt lat="39.5520770" lon="-7.1279760">
        <ele>344.2</ele>
        <time>2019-07-10T11:43:24Z</time>
      </trkpt>
      <trkpt lat="39.5520870" lon="-7.1280160">
        <ele>344.4</ele>
        <time>2019-07-10T11:43:25Z</time>
      </trkpt>
      <trkpt lat="39.5521030" lon="-7.1280940">
        <ele>344.6</ele>
        <time>2019-07-10T11:43:27Z</time>
      </trkpt>
      <trkpt lat="39.5521380" lon="-7.1282050">
        <ele>345.2</ele>
        <time>2019-07-10T11:43:30Z</time>
      </trkpt>
      <trkpt lat="39.5521510" lon="-7.1282390">
        <ele>345.4</ele>
        <time>2019-07-10T11:43:31Z</time>
      </trkpt>
      <trkpt lat="39.5521650" lon="-7.1282720">
        <ele>345.8</ele>
        <time>2019-07-10T11:43:32Z</time>
      </trkpt>
      <trkpt lat="39.5521890" lon="-7.1283460">
        <ele>346.4</ele>
        <time>2019-07-10T11:43:34Z</time>
      </trkpt>
      <trkpt lat="39.5522010" lon="-7.1283840">
        <ele>346.6</ele>
        <time>2019-07-10T11:43:35Z</time>
      </trkpt>
      <trkpt lat="39.5522290" lon="-7.1284650">
        <ele>347.0</ele>
        <time>2019-07-10T11:43:37Z</time>
      </trkpt>
      <trkpt lat="39.5522450" lon="-7.1285040">
        <ele>347.4</ele>
        <time>2019-07-10T11:43:38Z</time>
      </trkpt>
      <trkpt lat="39.5522630" lon="-7.1285420">
        <ele>347.8</ele>
        <time>2019-07-10T11:43:39Z</time>
      </trkpt>
      <trkpt lat="39.5523020" lon="-7.1286130">
        <ele>348.2</ele>
        <time>2019-07-10T11:43:41Z</time>
      </trkpt>
      <trkpt lat="39.5523770" lon="-7.1286910">
        <ele>348.8</ele>
        <time>2019-07-10T11:43:44Z</time>
      </trkpt>
      <trkpt lat="39.5524020" lon="-7.1287140">
        <ele>348.8</ele>
        <time>2019-07-10T11:43:45Z</time>
      </trkpt>
      <trkpt lat="39.5524800" lon="-7.1288010">
        <ele>349.2</ele>
        <time>2019-07-10T11:43:48Z</time>
      </trkpt>
      <trkpt lat="39.5525360" lon="-7.1288800">
        <ele>349.2</ele>
        <time>2019-07-10T11:43:50Z</time>
      </trkpt>
      <trkpt lat="39.5525600" lon="-7.1289310">
        <ele>349.0</ele>
        <time>2019-07-10T11:43:51Z</time>
      </trkpt>
      <trkpt lat="39.5526500" lon="-7.1291680">
        <ele>348.2</ele>
        <time>2019-07-10T11:43:55Z</time>
      </trkpt>
      <trkpt lat="39.5527610" lon="-7.1293820">
        <ele>347.8</ele>
        <time>2019-07-10T11:43:59Z</time>
      </trkpt>
      <trkpt lat="39.5527910" lon="-7.1294210">
        <ele>347.8</ele>
        <time>2019-07-10T11:44:00Z</time>
      </trkpt>
      <trkpt lat="39.5528210" lon="-7.1294570">
        <ele>347.8</ele>
        <time>2019-07-10T11:44:01Z</time>
      </trkpt>
      <trkpt lat="39.5529000" lon="-7.1295780">
        <ele>348.2</ele>
        <time>2019-07-10T11:44:04Z</time>
      </trkpt>
      <trkpt lat="39.5529820" lon="-7.1296890">
        <ele>348.2</ele>
        <time>2019-07-10T11:44:07Z</time>
      </trkpt>
      <trkpt lat="39.5530060" lon="-7.1297340">
        <ele>348.4</ele>
        <time>2019-07-10T11:44:08Z</time>
      </trkpt>
      <trkpt lat="39.5530970" lon="-7.1299000">
        <ele>348.6</ele>
        <time>2019-07-10T11:44:12Z</time>
      </trkpt>
      <trkpt lat="39.5532090" lon="-7.1301200">
        <ele>349.2</ele>
        <time>2019-07-10T11:44:17Z</time>
      </trkpt>
      <trkpt lat="39.5532300" lon="-7.1301660">
        <ele>349.6</ele>
        <time>2019-07-10T11:44:18Z</time>
      </trkpt>
      <trkpt lat="39.5532690" lon="-7.1302540">
        <ele>350.0</ele>
        <time>2019-07-10T11:44:20Z</time>
      </trkpt>
      <trkpt lat="39.5532900" lon="-7.1303040">
        <ele>350.4</ele>
        <time>2019-07-10T11:44:21Z</time>
      </trkpt>
      <trkpt lat="39.5533510" lon="-7.1304490">
        <ele>351.0</ele>
        <time>2019-07-10T11:44:24Z</time>
      </trkpt>
      <trkpt lat="39.5533970" lon="-7.1305920">
        <ele>351.4</ele>
        <time>2019-07-10T11:44:27Z</time>
      </trkpt>
      <trkpt lat="39.5534500" lon="-7.1307350">
        <ele>352.0</ele>
        <time>2019-07-10T11:44:30Z</time>
      </trkpt>
      <trkpt lat="39.5534910" lon="-7.1308240">
        <ele>352.6</ele>
        <time>2019-07-10T11:44:32Z</time>
      </trkpt>
      <trkpt lat="39.5535750" lon="-7.1310020">
        <ele>353.4</ele>
        <time>2019-07-10T11:44:36Z</time>
      </trkpt>
      <trkpt lat="39.5535920" lon="-7.1310500">
        <ele>353.8</ele>
        <time>2019-07-10T11:44:37Z</time>
      </trkpt>
      <trkpt lat="39.5536240" lon="-7.1311480">
        <ele>354.4</ele>
        <time>2019-07-10T11:44:39Z</time>
      </trkpt>
      <trkpt lat="39.5536630" lon="-7.1312920">
        <ele>354.8</ele>
        <time>2019-07-10T11:44:42Z</time>
      </trkpt>
      <trkpt lat="39.5536830" lon="-7.1313310">
        <ele>355.2</ele>
        <time>2019-07-10T11:44:43Z</time>
      </trkpt>
      <trkpt lat="39.5537030" lon="-7.1313700">
        <ele>355.6</ele>
        <time>2019-07-10T11:44:44Z</time>
      </trkpt>
      <trkpt lat="39.5537860" lon="-7.1315700">
        <ele>356.4</ele>
        <time>2019-07-10T11:44:49Z</time>
      </trkpt>
      <trkpt lat="39.5538410" lon="-7.1316890">
        <ele>357.8</ele>
        <time>2019-07-10T11:44:52Z</time>
      </trkpt>
      <trkpt lat="39.5539070" lon="-7.1318050">
        <ele>359.0</ele>
        <time>2019-07-10T11:44:55Z</time>
      </trkpt>
      <trkpt lat="39.5539530" lon="-7.1318820">
        <ele>359.2</ele>
        <time>2019-07-10T11:44:57Z</time>
      </trkpt>
      <trkpt lat="39.5541060" lon="-7.1321270">
        <ele>359.4</ele>
        <time>2019-07-10T11:45:03Z</time>
      </trkpt>
      <trkpt lat="39.5541310" lon="-7.1321720">
        <ele>359.6</ele>
        <time>2019-07-10T11:45:04Z</time>
      </trkpt>
      <trkpt lat="39.5542280" lon="-7.1323690">
        <ele>360.0</ele>
        <time>2019-07-10T11:45:08Z</time>
      </trkpt>
      <trkpt lat="39.5542750" lon="-7.1324780">
        <ele>359.6</ele>
        <time>2019-07-10T11:45:10Z</time>
      </trkpt>
      <trkpt lat="39.5543720" lon="-7.1326840">
        <ele>359.2</ele>
        <time>2019-07-10T11:45:14Z</time>
      </trkpt>
      <trkpt lat="39.5544530" lon="-7.1328200">
        <ele>359.8</ele>
        <time>2019-07-10T11:45:17Z</time>
      </trkpt>
      <trkpt lat="39.5545480" lon="-7.1329460">
        <ele>360.4</ele>
        <time>2019-07-10T11:45:20Z</time>
      </trkpt>
      <trkpt lat="39.5546910" lon="-7.1331350">
        <ele>360.2</ele>
        <time>2019-07-10T11:45:24Z</time>
      </trkpt>
      <trkpt lat="39.5548470" lon="-7.1333180">
        <ele>359.8</ele>
        <time>2019-07-10T11:45:28Z</time>
      </trkpt>
      <trkpt lat="39.5548840" lon="-7.1333630">
        <ele>359.8</ele>
        <time>2019-07-10T11:45:29Z</time>
      </trkpt>
      <trkpt lat="39.5549590" lon="-7.1334510">
        <ele>359.8</ele>
        <time>2019-07-10T11:45:31Z</time>
      </trkpt>
      <trkpt lat="39.5552640" lon="-7.1337590">
        <ele>360.0</ele>
        <time>2019-07-10T11:45:38Z</time>
      </trkpt>
      <trkpt lat="39.5553550" lon="-7.1338550">
        <ele>359.6</ele>
        <time>2019-07-10T11:45:40Z</time>
      </trkpt>
      <trkpt lat="39.5554560" lon="-7.1339540">
        <ele>359.2</ele>
        <time>2019-07-10T11:45:42Z</time>
      </trkpt>
      <trkpt lat="39.5555750" lon="-7.1340600">
        <ele>359.0</ele>
        <time>2019-07-10T11:45:44Z</time>
      </trkpt>
      <trkpt lat="39.5556400" lon="-7.1341210">
        <ele>358.2</ele>
        <time>2019-07-10T11:45:45Z</time>
      </trkpt>
      <trkpt lat="39.5557570" lon="-7.1342410">
        <ele>357.0</ele>
        <time>2019-07-10T11:45:47Z</time>
      </trkpt>
      <trkpt lat="39.5558180" lon="-7.1342900">
        <ele>356.4</ele>
        <time>2019-07-10T11:45:48Z</time>
      </trkpt>
      <trkpt lat="39.5559380" lon="-7.1343760">
        <ele>355.8</ele>
        <time>2019-07-10T11:45:50Z</time>
      </trkpt>
      <trkpt lat="39.5560870" lon="-7.1345250">
        <ele>355.4</ele>
        <time>2019-07-10T11:45:53Z</time>
      </trkpt>
      <trkpt lat="39.5562640" lon="-7.1346960">
        <ele>355.0</ele>
        <time>2019-07-10T11:45:57Z</time>
      </trkpt>
      <trkpt lat="39.5563450" lon="-7.1347550">
        <ele>355.4</ele>
        <time>2019-07-10T11:45:59Z</time>
      </trkpt>
      <trkpt lat="39.5564540" lon="-7.1348180">
        <ele>356.0</ele>
        <time>2019-07-10T11:46:02Z</time>
      </trkpt>
      <trkpt lat="39.5564880" lon="-7.1348470">
        <ele>356.0</ele>
        <time>2019-07-10T11:46:03Z</time>
      </trkpt>
      <trkpt lat="39.5566000" lon="-7.1349440">
        <ele>355.6</ele>
        <time>2019-07-10T11:46:06Z</time>
      </trkpt>
      <trkpt lat="39.5567150" lon="-7.1350600">
        <ele>355.6</ele>
        <time>2019-07-10T11:46:09Z</time>
      </trkpt>
      <trkpt lat="39.5567460" lon="-7.1351040">
        <ele>355.6</ele>
        <time>2019-07-10T11:46:10Z</time>
      </trkpt>
      <trkpt lat="39.5568300" lon="-7.1352660">
        <ele>356.4</ele>
        <time>2019-07-10T11:46:14Z</time>
      </trkpt>
      <trkpt lat="39.5568750" lon="-7.1353230">
        <ele>357.0</ele>
        <time>2019-07-10T11:46:16Z</time>
      </trkpt>
      <trkpt lat="39.5569550" lon="-7.1354300">
        <ele>357.6</ele>
        <time>2019-07-10T11:46:19Z</time>
      </trkpt>
      <trkpt lat="39.5570050" lon="-7.1355130">
        <ele>357.6</ele>
        <time>2019-07-10T11:46:21Z</time>
      </trkpt>
      <trkpt lat="39.5571340" lon="-7.1358050">
        <ele>358.4</ele>
        <time>2019-07-10T11:46:27Z</time>
      </trkpt>
      <trkpt lat="39.5571570" lon="-7.1358470">
        <ele>358.6</ele>
        <time>2019-07-10T11:46:28Z</time>
      </trkpt>
      <trkpt lat="39.5572670" lon="-7.1360690">
        <ele>359.6</ele>
        <time>2019-07-10T11:46:33Z</time>
      </trkpt>
      <trkpt lat="39.5573380" lon="-7.1362080">
        <ele>360.0</ele>
        <time>2019-07-10T11:46:36Z</time>
      </trkpt>
      <trkpt lat="39.5575030" lon="-7.1365340">
        <ele>359.8</ele>
        <time>2019-07-10T11:46:42Z</time>
      </trkpt>
      <trkpt lat="39.5575370" lon="-7.1365910">
        <ele>359.8</ele>
        <time>2019-07-10T11:46:43Z</time>
      </trkpt>
      <trkpt lat="39.5576140" lon="-7.1366950">
        <ele>359.6</ele>
        <time>2019-07-10T11:46:45Z</time>
      </trkpt>
      <trkpt lat="39.5576520" lon="-7.1367390">
        <ele>359.2</ele>
        <time>2019-07-10T11:46:46Z</time>
      </trkpt>
      <trkpt lat="39.5576880" lon="-7.1367780">
        <ele>359.0</ele>
        <time>2019-07-10T11:46:47Z</time>
      </trkpt>
      <trkpt lat="39.5577570" lon="-7.1368590">
        <ele>358.6</ele>
        <time>2019-07-10T11:46:49Z</time>
      </trkpt>
      <trkpt lat="39.5578320" lon="-7.1369560">
        <ele>357.2</ele>
        <time>2019-07-10T11:46:51Z</time>
      </trkpt>
      <trkpt lat="39.5578720" lon="-7.1370100">
        <ele>356.8</ele>
        <time>2019-07-10T11:46:52Z</time>
      </trkpt>
      <trkpt lat="39.5579870" lon="-7.1371680">
        <ele>356.0</ele>
        <time>2019-07-10T11:46:55Z</time>
      </trkpt>
      <trkpt lat="39.5581010" lon="-7.1373220">
        <ele>354.6</ele>
        <time>2019-07-10T11:46:58Z</time>
      </trkpt>
      <trkpt lat="39.5581380" lon="-7.1373720">
        <ele>354.2</ele>
        <time>2019-07-10T11:46:59Z</time>
      </trkpt>
      <trkpt lat="39.5581760" lon="-7.1374160">
        <ele>353.8</ele>
        <time>2019-07-10T11:47:00Z</time>
      </trkpt>
      <trkpt lat="39.5582960" lon="-7.1375070">
        <ele>353.4</ele>
        <time>2019-07-10T11:47:03Z</time>
      </trkpt>
      <trkpt lat="39.5583350" lon="-7.1375340">
        <ele>353.4</ele>
        <time>2019-07-10T11:47:04Z</time>
      </trkpt>
      <trkpt lat="39.5584690" lon="-7.1376660">
        <ele>353.4</ele>
        <time>2019-07-10T11:47:08Z</time>
      </trkpt>
      <trkpt lat="39.5585230" lon="-7.1377270">
        <ele>354.4</ele>
        <time>2019-07-10T11:47:10Z</time>
      </trkpt>
      <trkpt lat="39.5585450" lon="-7.1377530">
        <ele>354.6</ele>
        <time>2019-07-10T11:47:11Z</time>
      </trkpt>
      <trkpt lat="39.5586300" lon="-7.1378550">
        <ele>355.2</ele>
        <time>2019-07-10T11:47:15Z</time>
      </trkpt>
      <trkpt lat="39.5586930" lon="-7.1379450">
        <ele>355.8</ele>
        <time>2019-07-10T11:47:18Z</time>
      </trkpt>
      <trkpt lat="39.5587530" lon="-7.1380370">
        <ele>356.6</ele>
        <time>2019-07-10T11:47:21Z</time>
      </trkpt>
      <trkpt lat="39.5587750" lon="-7.1380680">
        <ele>356.8</ele>
        <time>2019-07-10T11:47:22Z</time>
      </trkpt>
      <trkpt lat="39.5587970" lon="-7.1380980">
        <ele>357.0</ele>
        <time>2019-07-10T11:47:23Z</time>
      </trkpt>
      <trkpt lat="39.5588620" lon="-7.1381920">
        <ele>357.6</ele>
        <time>2019-07-10T11:47:26Z</time>
      </trkpt>
      <trkpt lat="39.5589300" lon="-7.1382920">
        <ele>358.0</ele>
        <time>2019-07-10T11:47:29Z</time>
      </trkpt>
      <trkpt lat="39.5589520" lon="-7.1383260">
        <ele>358.2</ele>
        <time>2019-07-10T11:47:30Z</time>
      </trkpt>
      <trkpt lat="39.5590880" lon="-7.1384710">
        <ele>359.0</ele>
        <time>2019-07-10T11:47:35Z</time>
      </trkpt>
      <trkpt lat="39.5591270" lon="-7.1384940">
        <ele>359.2</ele>
        <time>2019-07-10T11:47:36Z</time>
      </trkpt>
      <trkpt lat="39.5593050" lon="-7.1385930">
        <ele>359.2</ele>
        <time>2019-07-10T11:47:40Z</time>
      </trkpt>
      <trkpt lat="39.5594000" lon="-7.1386550">
        <ele>358.8</ele>
        <time>2019-07-10T11:47:42Z</time>
      </trkpt>
      <trkpt lat="39.5595020" lon="-7.1387060">
        <ele>358.4</ele>
        <time>2019-07-10T11:47:44Z</time>
      </trkpt>
      <trkpt lat="39.5596150" lon="-7.1387600">
        <ele>358.2</ele>
        <time>2019-07-10T11:47:46Z</time>
      </trkpt>
      <trkpt lat="39.5597350" lon="-7.1388170">
        <ele>357.8</ele>
        <time>2019-07-10T11:47:48Z</time>
      </trkpt>
      <trkpt lat="39.5599070" lon="-7.1388970">
        <ele>357.0</ele>
        <time>2019-07-10T11:47:51Z</time>
      </trkpt>
      <trkpt lat="39.5599980" lon="-7.1389750">
        <ele>356.4</ele>
        <time>2019-07-10T11:47:53Z</time>
      </trkpt>
      <trkpt lat="39.5600760" lon="-7.1390770">
        <ele>355.8</ele>
        <time>2019-07-10T11:47:55Z</time>
      </trkpt>
      <trkpt lat="39.5601510" lon="-7.1391840">
        <ele>355.4</ele>
        <time>2019-07-10T11:47:57Z</time>
      </trkpt>
      <trkpt lat="39.5602240" lon="-7.1392930">
        <ele>355.2</ele>
        <time>2019-07-10T11:47:59Z</time>
      </trkpt>
      <trkpt lat="39.5603470" lon="-7.1394620">
        <ele>354.8</ele>
        <time>2019-07-10T11:48:02Z</time>
      </trkpt>
      <trkpt lat="39.5604790" lon="-7.1396410">
        <ele>354.2</ele>
        <time>2019-07-10T11:48:05Z</time>
      </trkpt>
      <trkpt lat="39.5605700" lon="-7.1397550">
        <ele>353.6</ele>
        <time>2019-07-10T11:48:07Z</time>
      </trkpt>
      <trkpt lat="39.5606960" lon="-7.1399220">
        <ele>352.8</ele>
        <time>2019-07-10T11:48:10Z</time>
      </trkpt>
      <trkpt lat="39.5608130" lon="-7.1400910">
        <ele>353.2</ele>
        <time>2019-07-10T11:48:14Z</time>
      </trkpt>
      <trkpt lat="39.5608640" lon="-7.1401590">
        <ele>353.4</ele>
        <time>2019-07-10T11:48:16Z</time>
      </trkpt>
      <trkpt lat="39.5610050" lon="-7.1403500">
        <ele>353.8</ele>
        <time>2019-07-10T11:48:21Z</time>
      </trkpt>
      <trkpt lat="39.5610700" lon="-7.1404200">
        <ele>353.6</ele>
        <time>2019-07-10T11:48:23Z</time>
      </trkpt>
      <trkpt lat="39.5611680" lon="-7.1405200">
        <ele>353.6</ele>
        <time>2019-07-10T11:48:26Z</time>
      </trkpt>
      <trkpt lat="39.5612160" lon="-7.1405860">
        <ele>354.0</ele>
        <time>2019-07-10T11:48:28Z</time>
      </trkpt>
      <trkpt lat="39.5612310" lon="-7.1406210">
        <ele>354.4</ele>
        <time>2019-07-10T11:48:29Z</time>
      </trkpt>
      <trkpt lat="39.5612390" lon="-7.1406620">
        <ele>354.6</ele>
        <time>2019-07-10T11:48:30Z</time>
      </trkpt>
      <trkpt lat="39.5612550" lon="-7.1407570">
        <ele>355.2</ele>
        <time>2019-07-10T11:48:32Z</time>
      </trkpt>
      <trkpt lat="39.5612870" lon="-7.1408560">
        <ele>355.4</ele>
        <time>2019-07-10T11:48:34Z</time>
      </trkpt>
      <trkpt lat="39.5613810" lon="-7.1410750">
        <ele>355.6</ele>
        <time>2019-07-10T11:48:38Z</time>
      </trkpt>
      <trkpt lat="39.5614390" lon="-7.1412040">
        <ele>355.4</ele>
        <time>2019-07-10T11:48:40Z</time>
      </trkpt>
      <trkpt lat="39.5615220" lon="-7.1414050">
        <ele>354.8</ele>
        <time>2019-07-10T11:48:43Z</time>
      </trkpt>
      <trkpt lat="39.5616470" lon="-7.1416150">
        <ele>354.0</ele>
        <time>2019-07-10T11:48:47Z</time>
      </trkpt>
      <trkpt lat="39.5616740" lon="-7.1416680">
        <ele>354.2</ele>
        <time>2019-07-10T11:48:48Z</time>
      </trkpt>
      <trkpt lat="39.5618320" lon="-7.1419280">
        <ele>354.4</ele>
        <time>2019-07-10T11:48:54Z</time>
      </trkpt>
      <trkpt lat="39.5619990" lon="-7.1422050">
        <ele>355.4</ele>
        <time>2019-07-10T11:49:01Z</time>
      </trkpt>
      <trkpt lat="39.5620180" lon="-7.1422470">
        <ele>355.4</ele>
        <time>2019-07-10T11:49:02Z</time>
      </trkpt>
      <trkpt lat="39.5620540" lon="-7.1423250">
        <ele>355.8</ele>
        <time>2019-07-10T11:49:04Z</time>
      </trkpt>
      <trkpt lat="39.5621050" lon="-7.1424700">
        <ele>356.8</ele>
        <time>2019-07-10T11:49:08Z</time>
      </trkpt>
      <trkpt lat="39.5621190" lon="-7.1425030">
        <ele>357.0</ele>
        <time>2019-07-10T11:49:09Z</time>
      </trkpt>
      <trkpt lat="39.5621550" lon="-7.1426030">
        <ele>358.0</ele>
        <time>2019-07-10T11:49:12Z</time>
      </trkpt>
      <trkpt lat="39.5621670" lon="-7.1426350">
        <ele>358.2</ele>
        <time>2019-07-10T11:49:13Z</time>
      </trkpt>
      <trkpt lat="39.5622040" lon="-7.1427210">
        <ele>359.4</ele>
        <time>2019-07-10T11:49:16Z</time>
      </trkpt>
      <trkpt lat="39.5622500" lon="-7.1428110">
        <ele>360.2</ele>
        <time>2019-07-10T11:49:19Z</time>
      </trkpt>
      <trkpt lat="39.5622670" lon="-7.1428410">
        <ele>360.4</ele>
        <time>2019-07-10T11:49:20Z</time>
      </trkpt>
      <trkpt lat="39.5622850" lon="-7.1428720">
        <ele>360.6</ele>
        <time>2019-07-10T11:49:21Z</time>
      </trkpt>
      <trkpt lat="39.5623780" lon="-7.1430900">
        <ele>360.6</ele>
        <time>2019-07-10T11:49:26Z</time>
      </trkpt>
      <trkpt lat="39.5625760" lon="-7.1435090">
        <ele>359.6</ele>
        <time>2019-07-10T11:49:33Z</time>
      </trkpt>
      <trkpt lat="39.5626110" lon="-7.1435800">
        <ele>359.4</ele>
        <time>2019-07-10T11:49:34Z</time>
      </trkpt>
      <trkpt lat="39.5627150" lon="-7.1437840">
        <ele>358.2</ele>
        <time>2019-07-10T11:49:37Z</time>
      </trkpt>
      <trkpt lat="39.5627730" lon="-7.1438980">
        <ele>357.6</ele>
        <time>2019-07-10T11:49:39Z</time>
      </trkpt>
      <trkpt lat="39.5628450" lon="-7.1440470">
        <ele>357.8</ele>
        <time>2019-07-10T11:49:42Z</time>
      </trkpt>
      <trkpt lat="39.5628840" lon="-7.1441350">
        <ele>358.2</ele>
        <time>2019-07-10T11:49:44Z</time>
      </trkpt>
      <trkpt lat="39.5629080" lon="-7.1442330">
        <ele>358.6</ele>
        <time>2019-07-10T11:49:46Z</time>
      </trkpt>
      <trkpt lat="39.5629170" lon="-7.1443360">
        <ele>358.4</ele>
        <time>2019-07-10T11:49:48Z</time>
      </trkpt>
      <trkpt lat="39.5629210" lon="-7.1443730">
        <ele>358.2</ele>
        <time>2019-07-10T11:49:49Z</time>
      </trkpt>
      <trkpt lat="39.5629210" lon="-7.1443950">
        <ele>358.2</ele>
        <time>2019-07-10T11:49:50Z</time>
      </trkpt>
      <trkpt lat="39.5629200" lon="-7.1444020">
        <ele>358.0</ele>
        <time>2019-07-10T11:49:52Z</time>
      </trkpt>
      <trkpt lat="39.5629430" lon="-7.1444890">
        <ele>357.6</ele>
        <time>2019-07-10T11:50:32Z</time>
      </trkpt>
      <trkpt lat="39.5629620" lon="-7.1445460">
        <ele>357.4</ele>
        <time>2019-07-10T11:50:34Z</time>
      </trkpt>
      <trkpt lat="39.5629730" lon="-7.1445750">
        <ele>357.2</ele>
        <time>2019-07-10T11:50:35Z</time>
      </trkpt>
      <trkpt lat="39.5630420" lon="-7.1446570">
        <ele>357.2</ele>
        <time>2019-07-10T11:50:38Z</time>
      </trkpt>
      <trkpt lat="39.5631310" lon="-7.1447740">
        <ele>357.2</ele>
        <time>2019-07-10T11:50:41Z</time>
      </trkpt>
      <trkpt lat="39.5631640" lon="-7.1448230">
        <ele>356.8</ele>
        <time>2019-07-10T11:50:42Z</time>
      </trkpt>
      <trkpt lat="39.5632000" lon="-7.1448740">
        <ele>356.2</ele>
        <time>2019-07-10T11:50:43Z</time>
      </trkpt>
      <trkpt lat="39.5632800" lon="-7.1449670">
        <ele>355.4</ele>
        <time>2019-07-10T11:50:45Z</time>
      </trkpt>
      <trkpt lat="39.5633260" lon="-7.1450070">
        <ele>355.0</ele>
        <time>2019-07-10T11:50:46Z</time>
      </trkpt>
      <trkpt lat="39.5634240" lon="-7.1450840">
        <ele>354.8</ele>
        <time>2019-07-10T11:50:48Z</time>
      </trkpt>
      <trkpt lat="39.5635020" lon="-7.1451620">
        <ele>354.4</ele>
        <time>2019-07-10T11:50:50Z</time>
      </trkpt>
      <trkpt lat="39.5635340" lon="-7.1452070">
        <ele>353.8</ele>
        <time>2019-07-10T11:50:51Z</time>
      </trkpt>
      <trkpt lat="39.5635880" lon="-7.1452880">
        <ele>353.8</ele>
        <time>2019-07-10T11:50:53Z</time>
      </trkpt>
      <trkpt lat="39.5636370" lon="-7.1453540">
        <ele>352.8</ele>
        <time>2019-07-10T11:50:55Z</time>
      </trkpt>
      <trkpt lat="39.5637500" lon="-7.1454910">
        <ele>352.0</ele>
        <time>2019-07-10T11:50:59Z</time>
      </trkpt>
      <trkpt lat="39.5638220" lon="-7.1455650">
        <ele>351.8</ele>
        <time>2019-07-10T11:51:01Z</time>
      </trkpt>
      <trkpt lat="39.5638940" lon="-7.1456550">
        <ele>351.2</ele>
        <time>2019-07-10T11:51:03Z</time>
      </trkpt>
      <trkpt lat="39.5639620" lon="-7.1457520">
        <ele>350.8</ele>
        <time>2019-07-10T11:51:05Z</time>
      </trkpt>
      <trkpt lat="39.5641930" lon="-7.1460020">
        <ele>349.6</ele>
        <time>2019-07-10T11:51:11Z</time>
      </trkpt>
      <trkpt lat="39.5642700" lon="-7.1460870">
        <ele>349.4</ele>
        <time>2019-07-10T11:51:13Z</time>
      </trkpt>
      <trkpt lat="39.5643130" lon="-7.1461230">
        <ele>349.2</ele>
        <time>2019-07-10T11:51:14Z</time>
      </trkpt>
      <trkpt lat="39.5643620" lon="-7.1461530">
        <ele>349.4</ele>
        <time>2019-07-10T11:51:15Z</time>
      </trkpt>
      <trkpt lat="39.5644130" lon="-7.1461790">
        <ele>349.4</ele>
        <time>2019-07-10T11:51:16Z</time>
      </trkpt>
      <trkpt lat="39.5646720" lon="-7.1463110">
        <ele>349.2</ele>
        <time>2019-07-10T11:51:21Z</time>
      </trkpt>
      <trkpt lat="39.5648280" lon="-7.1463700">
        <ele>348.6</ele>
        <time>2019-07-10T11:51:24Z</time>
      </trkpt>
      <trkpt lat="39.5650310" lon="-7.1464530">
        <ele>348.8</ele>
        <time>2019-07-10T11:51:28Z</time>
      </trkpt>
      <trkpt lat="39.5651750" lon="-7.1465030">
        <ele>349.0</ele>
        <time>2019-07-10T11:51:31Z</time>
      </trkpt>
      <trkpt lat="39.5652710" lon="-7.1465250">
        <ele>349.2</ele>
        <time>2019-07-10T11:51:33Z</time>
      </trkpt>
      <trkpt lat="39.5654590" lon="-7.1466040">
        <ele>349.0</ele>
        <time>2019-07-10T11:51:37Z</time>
      </trkpt>
      <trkpt lat="39.5654970" lon="-7.1466410">
        <ele>349.0</ele>
        <time>2019-07-10T11:51:38Z</time>
      </trkpt>
      <trkpt lat="39.5656100" lon="-7.1467580">
        <ele>349.0</ele>
        <time>2019-07-10T11:51:41Z</time>
      </trkpt>
      <trkpt lat="39.5656940" lon="-7.1468250">
        <ele>349.2</ele>
        <time>2019-07-10T11:51:43Z</time>
      </trkpt>
      <trkpt lat="39.5657790" lon="-7.1469020">
        <ele>349.2</ele>
        <time>2019-07-10T11:51:45Z</time>
      </trkpt>
      <trkpt lat="39.5659710" lon="-7.1470950">
        <ele>349.0</ele>
        <time>2019-07-10T11:51:50Z</time>
      </trkpt>
      <trkpt lat="39.5659980" lon="-7.1471420">
        <ele>349.0</ele>
        <time>2019-07-10T11:51:51Z</time>
      </trkpt>
      <trkpt lat="39.5660390" lon="-7.1473130">
        <ele>348.2</ele>
        <time>2019-07-10T11:51:54Z</time>
      </trkpt>
      <trkpt lat="39.5660500" lon="-7.1473660">
        <ele>348.0</ele>
        <time>2019-07-10T11:51:55Z</time>
      </trkpt>
      <trkpt lat="39.5660610" lon="-7.1474190">
        <ele>347.6</ele>
        <time>2019-07-10T11:51:56Z</time>
      </trkpt>
      <trkpt lat="39.5660730" lon="-7.1476020">
        <ele>347.0</ele>
        <time>2019-07-10T11:51:59Z</time>
      </trkpt>
      <trkpt lat="39.5660790" lon="-7.1476670">
        <ele>346.8</ele>
        <time>2019-07-10T11:52:00Z</time>
      </trkpt>
      <trkpt lat="39.5660890" lon="-7.1477280">
        <ele>346.6</ele>
        <time>2019-07-10T11:52:01Z</time>
      </trkpt>
      <trkpt lat="39.5661010" lon="-7.1477900">
        <ele>346.4</ele>
        <time>2019-07-10T11:52:02Z</time>
      </trkpt>
      <trkpt lat="39.5661380" lon="-7.1479200">
        <ele>345.4</ele>
        <time>2019-07-10T11:52:04Z</time>
      </trkpt>
      <trkpt lat="39.5661670" lon="-7.1479870">
        <ele>345.0</ele>
        <time>2019-07-10T11:52:05Z</time>
      </trkpt>
      <trkpt lat="39.5662380" lon="-7.1481130">
        <ele>344.0</ele>
        <time>2019-07-10T11:52:07Z</time>
      </trkpt>
      <trkpt lat="39.5663130" lon="-7.1482240">
        <ele>343.4</ele>
        <time>2019-07-10T11:52:09Z</time>
      </trkpt>
      <trkpt lat="39.5663560" lon="-7.1482680">
        <ele>343.2</ele>
        <time>2019-07-10T11:52:10Z</time>
      </trkpt>
      <trkpt lat="39.5664050" lon="-7.1483030">
        <ele>342.8</ele>
        <time>2019-07-10T11:52:11Z</time>
      </trkpt>
      <trkpt lat="39.5665110" lon="-7.1483630">
        <ele>341.8</ele>
        <time>2019-07-10T11:52:13Z</time>
      </trkpt>
      <trkpt lat="39.5665680" lon="-7.1483970">
        <ele>341.4</ele>
        <time>2019-07-10T11:52:14Z</time>
      </trkpt>
      <trkpt lat="39.5666250" lon="-7.1484340">
        <ele>341.0</ele>
        <time>2019-07-10T11:52:15Z</time>
      </trkpt>
      <trkpt lat="39.5667890" lon="-7.1485560">
        <ele>340.2</ele>
        <time>2019-07-10T11:52:18Z</time>
      </trkpt>
      <trkpt lat="39.5669890" lon="-7.1487030">
        <ele>339.8</ele>
        <time>2019-07-10T11:52:22Z</time>
      </trkpt>
      <trkpt lat="39.5672120" lon="-7.1488680">
        <ele>339.8</ele>
        <time>2019-07-10T11:52:27Z</time>
      </trkpt>
      <trkpt lat="39.5672520" lon="-7.1489020">
        <ele>339.8</ele>
        <time>2019-07-10T11:52:28Z</time>
      </trkpt>
      <trkpt lat="39.5672890" lon="-7.1489330">
        <ele>339.8</ele>
        <time>2019-07-10T11:52:29Z</time>
      </trkpt>
      <trkpt lat="39.5673540" lon="-7.1489870">
        <ele>340.2</ele>
        <time>2019-07-10T11:52:31Z</time>
      </trkpt>
      <trkpt lat="39.5674420" lon="-7.1490610">
        <ele>341.2</ele>
        <time>2019-07-10T11:52:34Z</time>
      </trkpt>
      <trkpt lat="39.5674700" lon="-7.1490860">
        <ele>341.6</ele>
        <time>2019-07-10T11:52:35Z</time>
      </trkpt>
      <trkpt lat="39.5675250" lon="-7.1491440">
        <ele>341.8</ele>
        <time>2019-07-10T11:52:37Z</time>
      </trkpt>
      <trkpt lat="39.5676140" lon="-7.1493240">
        <ele>341.6</ele>
        <time>2019-07-10T11:52:41Z</time>
      </trkpt>
      <trkpt lat="39.5676580" lon="-7.1494350">
        <ele>341.6</ele>
        <time>2019-07-10T11:52:43Z</time>
      </trkpt>
      <trkpt lat="39.5676920" lon="-7.1496360">
        <ele>341.6</ele>
        <time>2019-07-10T11:52:46Z</time>
      </trkpt>
      <trkpt lat="39.5677190" lon="-7.1497800">
        <ele>340.4</ele>
        <time>2019-07-10T11:52:48Z</time>
      </trkpt>
      <trkpt lat="39.5677910" lon="-7.1500350">
        <ele>339.2</ele>
        <time>2019-07-10T11:52:52Z</time>
      </trkpt>
      <trkpt lat="39.5678150" lon="-7.1500870">
        <ele>339.0</ele>
        <time>2019-07-10T11:52:53Z</time>
      </trkpt>
      <trkpt lat="39.5678870" lon="-7.1501600">
        <ele>338.6</ele>
        <time>2019-07-10T11:52:55Z</time>
      </trkpt>
      <trkpt lat="39.5679670" lon="-7.1502200">
        <ele>338.4</ele>
        <time>2019-07-10T11:52:57Z</time>
      </trkpt>
      <trkpt lat="39.5680660" lon="-7.1503120">
        <ele>339.2</ele>
        <time>2019-07-10T11:53:00Z</time>
      </trkpt>
      <trkpt lat="39.5680920" lon="-7.1503450">
        <ele>339.6</ele>
        <time>2019-07-10T11:53:01Z</time>
      </trkpt>
      <trkpt lat="39.5681380" lon="-7.1504190">
        <ele>340.4</ele>
        <time>2019-07-10T11:53:03Z</time>
      </trkpt>
      <trkpt lat="39.5681550" lon="-7.1504570">
        <ele>340.8</ele>
        <time>2019-07-10T11:53:04Z</time>
      </trkpt>
      <trkpt lat="39.5682090" lon="-7.1505720">
        <ele>341.6</ele>
        <time>2019-07-10T11:53:07Z</time>
      </trkpt>
      <trkpt lat="39.5682280" lon="-7.1506080">
        <ele>341.8</ele>
        <time>2019-07-10T11:53:08Z</time>
      </trkpt>
      <trkpt lat="39.5683260" lon="-7.1507520">
        <ele>343.0</ele>
        <time>2019-07-10T11:53:12Z</time>
      </trkpt>
      <trkpt lat="39.5683580" lon="-7.1507790">
        <ele>343.2</ele>
        <time>2019-07-10T11:53:13Z</time>
      </trkpt>
      <trkpt lat="39.5684900" lon="-7.1508970">
        <ele>343.8</ele>
        <time>2019-07-10T11:53:17Z</time>
      </trkpt>
      <trkpt lat="39.5685540" lon="-7.1509650">
        <ele>344.0</ele>
        <time>2019-07-10T11:53:19Z</time>
      </trkpt>
      <trkpt lat="39.5685820" lon="-7.1510050">
        <ele>344.0</ele>
        <time>2019-07-10T11:53:20Z</time>
      </trkpt>
      <trkpt lat="39.5686770" lon="-7.1512370">
        <ele>344.4</ele>
        <time>2019-07-10T11:53:25Z</time>
      </trkpt>
      <trkpt lat="39.5686880" lon="-7.1512850">
        <ele>344.4</ele>
        <time>2019-07-10T11:53:26Z</time>
      </trkpt>
      <trkpt lat="39.5687320" lon="-7.1514270">
        <ele>344.4</ele>
        <time>2019-07-10T11:53:29Z</time>
      </trkpt>
      <trkpt lat="39.5687610" lon="-7.1515960">
        <ele>344.2</ele>
        <time>2019-07-10T11:53:32Z</time>
      </trkpt>
      <trkpt lat="39.5687670" lon="-7.1517020">
        <ele>343.8</ele>
        <time>2019-07-10T11:53:34Z</time>
      </trkpt>
      <trkpt lat="39.5687690" lon="-7.1517960">
        <ele>343.0</ele>
        <time>2019-07-10T11:53:36Z</time>
      </trkpt>
      <trkpt lat="39.5687760" lon="-7.1518420">
        <ele>342.8</ele>
        <time>2019-07-10T11:53:37Z</time>
      </trkpt>
      <trkpt lat="39.5687950" lon="-7.1519480">
        <ele>341.6</ele>
        <time>2019-07-10T11:53:39Z</time>
      </trkpt>
      <trkpt lat="39.5688100" lon="-7.1520820">
        <ele>341.0</ele>
        <time>2019-07-10T11:53:41Z</time>
      </trkpt>
      <trkpt lat="39.5688290" lon="-7.1522410">
        <ele>340.6</ele>
        <time>2019-07-10T11:53:43Z</time>
      </trkpt>
      <trkpt lat="39.5688380" lon="-7.1523140">
        <ele>340.4</ele>
        <time>2019-07-10T11:53:44Z</time>
      </trkpt>
      <trkpt lat="39.5688460" lon="-7.1523800">
        <ele>339.8</ele>
        <time>2019-07-10T11:53:45Z</time>
      </trkpt>
      <trkpt lat="39.5688520" lon="-7.1524460">
        <ele>339.2</ele>
        <time>2019-07-10T11:53:46Z</time>
      </trkpt>
      <trkpt lat="39.5688640" lon="-7.1525110">
        <ele>338.6</ele>
        <time>2019-07-10T11:53:47Z</time>
      </trkpt>
      <trkpt lat="39.5689140" lon="-7.1526160">
        <ele>337.8</ele>
        <time>2019-07-10T11:53:49Z</time>
      </trkpt>
      <trkpt lat="39.5690520" lon="-7.1527160">
        <ele>336.8</ele>
        <time>2019-07-10T11:53:52Z</time>
      </trkpt>
      <trkpt lat="39.5690990" lon="-7.1527440">
        <ele>336.4</ele>
        <time>2019-07-10T11:53:53Z</time>
      </trkpt>
      <trkpt lat="39.5691840" lon="-7.1528120">
        <ele>335.8</ele>
        <time>2019-07-10T11:53:55Z</time>
      </trkpt>
      <trkpt lat="39.5692660" lon="-7.1528950">
        <ele>335.8</ele>
        <time>2019-07-10T11:53:57Z</time>
      </trkpt>
      <trkpt lat="39.5693040" lon="-7.1529470">
        <ele>335.8</ele>
        <time>2019-07-10T11:53:58Z</time>
      </trkpt>
      <trkpt lat="39.5694360" lon="-7.1530870">
        <ele>335.6</ele>
        <time>2019-07-10T11:54:01Z</time>
      </trkpt>
      <trkpt lat="39.5695300" lon="-7.1531720">
        <ele>334.6</ele>
        <time>2019-07-10T11:54:03Z</time>
      </trkpt>
      <trkpt lat="39.5697030" lon="-7.1533770">
        <ele>334.0</ele>
        <time>2019-07-10T11:54:07Z</time>
      </trkpt>
      <trkpt lat="39.5697770" lon="-7.1534880">
        <ele>333.8</ele>
        <time>2019-07-10T11:54:09Z</time>
      </trkpt>
      <trkpt lat="39.5698160" lon="-7.1535440">
        <ele>333.6</ele>
        <time>2019-07-10T11:54:10Z</time>
      </trkpt>
      <trkpt lat="39.5700590" lon="-7.1538590">
        <ele>332.8</ele>
        <time>2019-07-10T11:54:16Z</time>
      </trkpt>
      <trkpt lat="39.5700960" lon="-7.1539080">
        <ele>332.8</ele>
        <time>2019-07-10T11:54:17Z</time>
      </trkpt>
      <trkpt lat="39.5701870" lon="-7.1540320">
        <ele>333.2</ele>
        <time>2019-07-10T11:54:20Z</time>
      </trkpt>
      <trkpt lat="39.5702400" lon="-7.1541350">
        <ele>333.6</ele>
        <time>2019-07-10T11:54:22Z</time>
      </trkpt>
      <trkpt lat="39.5703310" lon="-7.1543180">
        <ele>332.6</ele>
        <time>2019-07-10T11:54:25Z</time>
      </trkpt>
      <trkpt lat="39.5703600" lon="-7.1543810">
        <ele>332.4</ele>
        <time>2019-07-10T11:54:26Z</time>
      </trkpt>
      <trkpt lat="39.5704140" lon="-7.1545740">
        <ele>331.8</ele>
        <time>2019-07-10T11:54:29Z</time>
      </trkpt>
      <trkpt lat="39.5704510" lon="-7.1547650">
        <ele>331.8</ele>
        <time>2019-07-10T11:54:32Z</time>
      </trkpt>
      <trkpt lat="39.5704500" lon="-7.1549300">
        <ele>331.6</ele>
        <time>2019-07-10T11:54:35Z</time>
      </trkpt>
      <trkpt lat="39.5704490" lon="-7.1549790">
        <ele>331.6</ele>
        <time>2019-07-10T11:54:36Z</time>
      </trkpt>
      <trkpt lat="39.5704460" lon="-7.1551570">
        <ele>331.8</ele>
        <time>2019-07-10T11:54:40Z</time>
      </trkpt>
      <trkpt lat="39.5704390" lon="-7.1552450">
        <ele>332.6</ele>
        <time>2019-07-10T11:54:42Z</time>
      </trkpt>
      <trkpt lat="39.5704350" lon="-7.1552890">
        <ele>332.8</ele>
        <time>2019-07-10T11:54:43Z</time>
      </trkpt>
      <trkpt lat="39.5703950" lon="-7.1555230">
        <ele>333.0</ele>
        <time>2019-07-10T11:54:48Z</time>
      </trkpt>
      <trkpt lat="39.5703680" lon="-7.1556240">
        <ele>333.0</ele>
        <time>2019-07-10T11:54:50Z</time>
      </trkpt>
      <trkpt lat="39.5703260" lon="-7.1558200">
        <ele>333.4</ele>
        <time>2019-07-10T11:54:54Z</time>
      </trkpt>
      <trkpt lat="39.5703200" lon="-7.1559190">
        <ele>333.6</ele>
        <time>2019-07-10T11:54:56Z</time>
      </trkpt>
      <trkpt lat="39.5703670" lon="-7.1560540">
        <ele>334.0</ele>
        <time>2019-07-10T11:55:00Z</time>
      </trkpt>
      <trkpt lat="39.5704340" lon="-7.1562230">
        <ele>334.2</ele>
        <time>2019-07-10T11:55:05Z</time>
      </trkpt>
      <trkpt lat="39.5704260" lon="-7.1563970">
        <ele>334.2</ele>
        <time>2019-07-10T11:55:09Z</time>
      </trkpt>
      <trkpt lat="39.5704230" lon="-7.1564400">
        <ele>334.4</ele>
        <time>2019-07-10T11:55:10Z</time>
      </trkpt>
      <trkpt lat="39.5704020" lon="-7.1565670">
        <ele>335.0</ele>
        <time>2019-07-10T11:55:13Z</time>
      </trkpt>
      <trkpt lat="39.5703680" lon="-7.1566880">
        <ele>335.6</ele>
        <time>2019-07-10T11:55:16Z</time>
      </trkpt>
      <trkpt lat="39.5703190" lon="-7.1568040">
        <ele>336.0</ele>
        <time>2019-07-10T11:55:19Z</time>
      </trkpt>
      <trkpt lat="39.5702860" lon="-7.1569390">
        <ele>335.8</ele>
        <time>2019-07-10T11:55:22Z</time>
      </trkpt>
      <trkpt lat="39.5702590" lon="-7.1571690">
        <ele>336.2</ele>
        <time>2019-07-10T11:55:27Z</time>
      </trkpt>
      <trkpt lat="39.5702770" lon="-7.1572530">
        <ele>336.6</ele>
        <time>2019-07-10T11:55:29Z</time>
      </trkpt>
      <trkpt lat="39.5703220" lon="-7.1573600">
        <ele>337.4</ele>
        <time>2019-07-10T11:55:32Z</time>
      </trkpt>
      <trkpt lat="39.5703650" lon="-7.1574530">
        <ele>338.0</ele>
        <time>2019-07-10T11:55:35Z</time>
      </trkpt>
      <trkpt lat="39.5704100" lon="-7.1575490">
        <ele>338.6</ele>
        <time>2019-07-10T11:55:38Z</time>
      </trkpt>
      <trkpt lat="39.5704530" lon="-7.1576550">
        <ele>339.4</ele>
        <time>2019-07-10T11:55:41Z</time>
      </trkpt>
      <trkpt lat="39.5704700" lon="-7.1576900">
        <ele>339.8</ele>
        <time>2019-07-10T11:55:42Z</time>
      </trkpt>
      <trkpt lat="39.5705040" lon="-7.1577610">
        <ele>340.2</ele>
        <time>2019-07-10T11:55:44Z</time>
      </trkpt>
      <trkpt lat="39.5705710" lon="-7.1579050">
        <ele>340.8</ele>
        <time>2019-07-10T11:55:48Z</time>
      </trkpt>
      <trkpt lat="39.5706160" lon="-7.1580150">
        <ele>341.8</ele>
        <time>2019-07-10T11:55:51Z</time>
      </trkpt>
      <trkpt lat="39.5706920" lon="-7.1582790">
        <ele>343.0</ele>
        <time>2019-07-10T11:55:58Z</time>
      </trkpt>
      <trkpt lat="39.5707010" lon="-7.1583160">
        <ele>343.2</ele>
        <time>2019-07-10T11:55:59Z</time>
      </trkpt>
      <trkpt lat="39.5707270" lon="-7.1583870">
        <ele>344.2</ele>
        <time>2019-07-10T11:56:01Z</time>
      </trkpt>
      <trkpt lat="39.5707600" lon="-7.1584970">
        <ele>345.2</ele>
        <time>2019-07-10T11:56:04Z</time>
      </trkpt>
      <trkpt lat="39.5707980" lon="-7.1586070">
        <ele>345.6</ele>
        <time>2019-07-10T11:56:07Z</time>
      </trkpt>
      <trkpt lat="39.5708610" lon="-7.1587610">
        <ele>346.2</ele>
        <time>2019-07-10T11:56:11Z</time>
      </trkpt>
      <trkpt lat="39.5709210" lon="-7.1589130">
        <ele>346.0</ele>
        <time>2019-07-10T11:56:14Z</time>
      </trkpt>
      <trkpt lat="39.5709840" lon="-7.1591030">
        <ele>345.4</ele>
        <time>2019-07-10T11:56:17Z</time>
      </trkpt>
      <trkpt lat="39.5710050" lon="-7.1591650">
        <ele>345.2</ele>
        <time>2019-07-10T11:56:18Z</time>
      </trkpt>
      <trkpt lat="39.5710250" lon="-7.1592210">
        <ele>345.0</ele>
        <time>2019-07-10T11:56:19Z</time>
      </trkpt>
      <trkpt lat="39.5710450" lon="-7.1592710">
        <ele>344.8</ele>
        <time>2019-07-10T11:56:20Z</time>
      </trkpt>
      <trkpt lat="39.5711390" lon="-7.1593720">
        <ele>344.0</ele>
        <time>2019-07-10T11:56:23Z</time>
      </trkpt>
      <trkpt lat="39.5711830" lon="-7.1593870">
        <ele>343.8</ele>
        <time>2019-07-10T11:56:24Z</time>
      </trkpt>
      <trkpt lat="39.5712310" lon="-7.1593960">
        <ele>343.8</ele>
        <time>2019-07-10T11:56:25Z</time>
      </trkpt>
      <trkpt lat="39.5714930" lon="-7.1594290">
        <ele>343.6</ele>
        <time>2019-07-10T11:56:30Z</time>
      </trkpt>
      <trkpt lat="39.5715460" lon="-7.1594220">
        <ele>343.6</ele>
        <time>2019-07-10T11:56:31Z</time>
      </trkpt>
      <trkpt lat="39.5716910" lon="-7.1594230">
        <ele>343.2</ele>
        <time>2019-07-10T11:56:34Z</time>
      </trkpt>
      <trkpt lat="39.5717300" lon="-7.1594270">
        <ele>343.0</ele>
        <time>2019-07-10T11:56:35Z</time>
      </trkpt>
      <trkpt lat="39.5718320" lon="-7.1594640">
        <ele>342.4</ele>
        <time>2019-07-10T11:56:38Z</time>
      </trkpt>
      <trkpt lat="39.5718940" lon="-7.1595010">
        <ele>341.8</ele>
        <time>2019-07-10T11:56:40Z</time>
      </trkpt>
      <trkpt lat="39.5719460" lon="-7.1595440">
        <ele>341.0</ele>
        <time>2019-07-10T11:56:42Z</time>
      </trkpt>
      <trkpt lat="39.5719880" lon="-7.1595910">
        <ele>340.4</ele>
        <time>2019-07-10T11:56:44Z</time>
      </trkpt>
      <trkpt lat="39.5720080" lon="-7.1596150">
        <ele>340.2</ele>
        <time>2019-07-10T11:56:45Z</time>
      </trkpt>
      <trkpt lat="39.5720810" lon="-7.1596820">
        <ele>339.4</ele>
        <time>2019-07-10T11:56:48Z</time>
      </trkpt>
      <trkpt lat="39.5721620" lon="-7.1597810">
        <ele>338.8</ele>
        <time>2019-07-10T11:56:51Z</time>
      </trkpt>
      <trkpt lat="39.5722030" lon="-7.1598530">
        <ele>338.2</ele>
        <time>2019-07-10T11:56:53Z</time>
      </trkpt>
      <trkpt lat="39.5722450" lon="-7.1599420">
        <ele>337.6</ele>
        <time>2019-07-10T11:56:55Z</time>
      </trkpt>
      <trkpt lat="39.5722760" lon="-7.1599890">
        <ele>337.2</ele>
        <time>2019-07-10T11:56:56Z</time>
      </trkpt>
      <trkpt lat="39.5723120" lon="-7.1600330">
        <ele>337.2</ele>
        <time>2019-07-10T11:56:57Z</time>
      </trkpt>
      <trkpt lat="39.5723870" lon="-7.1601160">
        <ele>336.4</ele>
        <time>2019-07-10T11:56:59Z</time>
      </trkpt>
      <trkpt lat="39.5724260" lon="-7.1601570">
        <ele>336.0</ele>
        <time>2019-07-10T11:57:00Z</time>
      </trkpt>
      <trkpt lat="39.5725020" lon="-7.1602370">
        <ele>335.8</ele>
        <time>2019-07-10T11:57:02Z</time>
      </trkpt>
      <trkpt lat="39.5725350" lon="-7.1602760">
        <ele>335.8</ele>
        <time>2019-07-10T11:57:03Z</time>
      </trkpt>
      <trkpt lat="39.5726400" lon="-7.1604380">
        <ele>335.4</ele>
        <time>2019-07-10T11:57:07Z</time>
      </trkpt>
      <trkpt lat="39.5726760" lon="-7.1605390">
        <ele>335.4</ele>
        <time>2019-07-10T11:57:09Z</time>
      </trkpt>
      <trkpt lat="39.5727100" lon="-7.1606380">
        <ele>335.4</ele>
        <time>2019-07-10T11:57:11Z</time>
      </trkpt>
      <trkpt lat="39.5727720" lon="-7.1607700">
        <ele>335.6</ele>
        <time>2019-07-10T11:57:14Z</time>
      </trkpt>
      <trkpt lat="39.5728570" lon="-7.1609200">
        <ele>336.4</ele>
        <time>2019-07-10T11:57:18Z</time>
      </trkpt>
      <trkpt lat="39.5729130" lon="-7.1609760">
        <ele>337.0</ele>
        <time>2019-07-10T11:57:20Z</time>
      </trkpt>
      <trkpt lat="39.5729410" lon="-7.1610020">
        <ele>337.2</ele>
        <time>2019-07-10T11:57:21Z</time>
      </trkpt>
      <trkpt lat="39.5730190" lon="-7.1611450">
        <ele>337.2</ele>
        <time>2019-07-10T11:57:25Z</time>
      </trkpt>
      <trkpt lat="39.5730630" lon="-7.1612550">
        <ele>337.8</ele>
        <time>2019-07-10T11:57:28Z</time>
      </trkpt>
      <trkpt lat="39.5731020" lon="-7.1613230">
        <ele>337.8</ele>
        <time>2019-07-10T11:57:30Z</time>
      </trkpt>
      <trkpt lat="39.5731770" lon="-7.1614110">
        <ele>338.4</ele>
        <time>2019-07-10T11:57:33Z</time>
      </trkpt>
      <trkpt lat="39.5732240" lon="-7.1614760">
        <ele>339.4</ele>
        <time>2019-07-10T11:57:35Z</time>
      </trkpt>
      <trkpt lat="39.5732480" lon="-7.1615090">
        <ele>339.8</ele>
        <time>2019-07-10T11:57:36Z</time>
      </trkpt>
      <trkpt lat="39.5733270" lon="-7.1616040">
        <ele>340.0</ele>
        <time>2019-07-10T11:57:39Z</time>
      </trkpt>
      <trkpt lat="39.5733690" lon="-7.1616730">
        <ele>340.8</ele>
        <time>2019-07-10T11:57:41Z</time>
      </trkpt>
      <trkpt lat="39.5733910" lon="-7.1617080">
        <ele>341.0</ele>
        <time>2019-07-10T11:57:42Z</time>
      </trkpt>
      <trkpt lat="39.5734710" lon="-7.1618060">
        <ele>341.2</ele>
        <time>2019-07-10T11:57:45Z</time>
      </trkpt>
      <trkpt lat="39.5735610" lon="-7.1618770">
        <ele>341.8</ele>
        <time>2019-07-10T11:57:48Z</time>
      </trkpt>
      <trkpt lat="39.5735910" lon="-7.1618950">
        <ele>341.8</ele>
        <time>2019-07-10T11:57:49Z</time>
      </trkpt>
      <trkpt lat="39.5737390" lon="-7.1619950">
        <ele>343.0</ele>
        <time>2019-07-10T11:57:54Z</time>
      </trkpt>
      <trkpt lat="39.5737700" lon="-7.1620130">
        <ele>343.2</ele>
        <time>2019-07-10T11:57:55Z</time>
      </trkpt>
      <trkpt lat="39.5738650" lon="-7.1620450">
        <ele>344.2</ele>
        <time>2019-07-10T11:57:58Z</time>
      </trkpt>
      <trkpt lat="39.5739120" lon="-7.1620640">
        <ele>344.6</ele>
        <time>2019-07-10T11:58:00Z</time>
      </trkpt>
      <trkpt lat="39.5740380" lon="-7.1621250">
        <ele>345.2</ele>
        <time>2019-07-10T11:58:05Z</time>
      </trkpt>
      <trkpt lat="39.5740650" lon="-7.1621380">
        <ele>345.8</ele>
        <time>2019-07-10T11:58:06Z</time>
      </trkpt>
      <trkpt lat="39.5741230" lon="-7.1621510">
        <ele>346.4</ele>
        <time>2019-07-10T11:58:08Z</time>
      </trkpt>
      <trkpt lat="39.5742400" lon="-7.1621980">
        <ele>347.0</ele>
        <time>2019-07-10T11:58:12Z</time>
      </trkpt>
      <trkpt lat="39.5743000" lon="-7.1622330">
        <ele>347.6</ele>
        <time>2019-07-10T11:58:14Z</time>
      </trkpt>
      <trkpt lat="39.5744400" lon="-7.1623770">
        <ele>348.6</ele>
        <time>2019-07-10T11:58:19Z</time>
      </trkpt>
      <trkpt lat="39.5745490" lon="-7.1625150">
        <ele>348.4</ele>
        <time>2019-07-10T11:58:23Z</time>
      </trkpt>
      <trkpt lat="39.5746470" lon="-7.1626240">
        <ele>348.6</ele>
        <time>2019-07-10T11:58:26Z</time>
      </trkpt>
      <trkpt lat="39.5746810" lon="-7.1626600">
        <ele>348.6</ele>
        <time>2019-07-10T11:58:27Z</time>
      </trkpt>
      <trkpt lat="39.5747490" lon="-7.1627330">
        <ele>349.0</ele>
        <time>2019-07-10T11:58:29Z</time>
      </trkpt>
      <trkpt lat="39.5748200" lon="-7.1628690">
        <ele>349.4</ele>
        <time>2019-07-10T11:58:32Z</time>
      </trkpt>
      <trkpt lat="39.5748380" lon="-7.1629190">
        <ele>349.8</ele>
        <time>2019-07-10T11:58:33Z</time>
      </trkpt>
      <trkpt lat="39.5748820" lon="-7.1630160">
        <ele>350.0</ele>
        <time>2019-07-10T11:58:35Z</time>
      </trkpt>
      <trkpt lat="39.5749310" lon="-7.1631190">
        <ele>350.2</ele>
        <time>2019-07-10T11:58:37Z</time>
      </trkpt>
      <trkpt lat="39.5749530" lon="-7.1631740">
        <ele>350.2</ele>
        <time>2019-07-10T11:58:38Z</time>
      </trkpt>
      <trkpt lat="39.5750230" lon="-7.1634160">
        <ele>350.0</ele>
        <time>2019-07-10T11:58:42Z</time>
      </trkpt>
      <trkpt lat="39.5750840" lon="-7.1636120">
        <ele>349.6</ele>
        <time>2019-07-10T11:58:45Z</time>
      </trkpt>
      <trkpt lat="39.5752030" lon="-7.1639220">
        <ele>349.4</ele>
        <time>2019-07-10T11:58:50Z</time>
      </trkpt>
      <trkpt lat="39.5752840" lon="-7.1640960">
        <ele>349.4</ele>
        <time>2019-07-10T11:58:53Z</time>
      </trkpt>
      <trkpt lat="39.5753400" lon="-7.1642080">
        <ele>349.4</ele>
        <time>2019-07-10T11:58:55Z</time>
      </trkpt>
      <trkpt lat="39.5753670" lon="-7.1642640">
        <ele>349.4</ele>
        <time>2019-07-10T11:58:56Z</time>
      </trkpt>
      <trkpt lat="39.5754100" lon="-7.1643760">
        <ele>349.6</ele>
        <time>2019-07-10T11:58:58Z</time>
      </trkpt>
      <trkpt lat="39.5754740" lon="-7.1645960">
        <ele>350.0</ele>
        <time>2019-07-10T11:59:02Z</time>
      </trkpt>
      <trkpt lat="39.5755240" lon="-7.1648070">
        <ele>350.8</ele>
        <time>2019-07-10T11:59:06Z</time>
      </trkpt>
      <trkpt lat="39.5755750" lon="-7.1649630">
        <ele>351.0</ele>
        <time>2019-07-10T11:59:09Z</time>
      </trkpt>
      <trkpt lat="39.5755930" lon="-7.1650150">
        <ele>351.0</ele>
        <time>2019-07-10T11:59:10Z</time>
      </trkpt>
      <trkpt lat="39.5756380" lon="-7.1651830">
        <ele>351.2</ele>
        <time>2019-07-10T11:59:13Z</time>
      </trkpt>
      <trkpt lat="39.5756800" lon="-7.1652890">
        <ele>351.4</ele>
        <time>2019-07-10T11:59:15Z</time>
      </trkpt>
      <trkpt lat="39.5757030" lon="-7.1653290">
        <ele>351.4</ele>
        <time>2019-07-10T11:59:16Z</time>
      </trkpt>
      <trkpt lat="39.5757590" lon="-7.1654430">
        <ele>351.0</ele>
        <time>2019-07-10T11:59:19Z</time>
      </trkpt>
      <trkpt lat="39.5758170" lon="-7.1655640">
        <ele>350.4</ele>
        <time>2019-07-10T11:59:22Z</time>
      </trkpt>
      <trkpt lat="39.5758320" lon="-7.1656150">
        <ele>350.2</ele>
        <time>2019-07-10T11:59:23Z</time>
      </trkpt>
      <trkpt lat="39.5758480" lon="-7.1656650">
        <ele>350.0</ele>
        <time>2019-07-10T11:59:24Z</time>
      </trkpt>
      <trkpt lat="39.5758990" lon="-7.1658200">
        <ele>350.0</ele>
        <time>2019-07-10T11:59:27Z</time>
      </trkpt>
      <trkpt lat="39.5759460" lon="-7.1659220">
        <ele>350.0</ele>
        <time>2019-07-10T11:59:29Z</time>
      </trkpt>
      <trkpt lat="39.5760340" lon="-7.1660630">
        <ele>350.0</ele>
        <time>2019-07-10T11:59:32Z</time>
      </trkpt>
      <trkpt lat="39.5760690" lon="-7.1661050">
        <ele>350.0</ele>
        <time>2019-07-10T11:59:33Z</time>
      </trkpt>
      <trkpt lat="39.5762630" lon="-7.1663790">
        <ele>349.8</ele>
        <time>2019-07-10T11:59:39Z</time>
      </trkpt>
      <trkpt lat="39.5763080" lon="-7.1664790">
        <ele>350.4</ele>
        <time>2019-07-10T11:59:41Z</time>
      </trkpt>
      <trkpt lat="39.5763440" lon="-7.1665800">
        <ele>350.6</ele>
        <time>2019-07-10T11:59:43Z</time>
      </trkpt>
      <trkpt lat="39.5763770" lon="-7.1668040">
        <ele>350.8</ele>
        <time>2019-07-10T11:59:47Z</time>
      </trkpt>
      <trkpt lat="39.5763870" lon="-7.1668620">
        <ele>351.0</ele>
        <time>2019-07-10T11:59:48Z</time>
      </trkpt>
      <trkpt lat="39.5763890" lon="-7.1669190">
        <ele>351.2</ele>
        <time>2019-07-10T11:59:49Z</time>
      </trkpt>
      <trkpt lat="39.5763900" lon="-7.1670310">
        <ele>350.6</ele>
        <time>2019-07-10T11:59:51Z</time>
      </trkpt>
      <trkpt lat="39.5763970" lon="-7.1670880">
        <ele>350.0</ele>
        <time>2019-07-10T11:59:52Z</time>
      </trkpt>
      <trkpt lat="39.5764540" lon="-7.1672750">
        <ele>349.2</ele>
        <time>2019-07-10T11:59:55Z</time>
      </trkpt>
      <trkpt lat="39.5764800" lon="-7.1673360">
        <ele>349.0</ele>
        <time>2019-07-10T11:59:56Z</time>
      </trkpt>
      <trkpt lat="39.5765120" lon="-7.1673860">
        <ele>348.6</ele>
        <time>2019-07-10T11:59:57Z</time>
      </trkpt>
      <trkpt lat="39.5766130" lon="-7.1675240">
        <ele>347.6</ele>
        <time>2019-07-10T12:00:00Z</time>
      </trkpt>
      <trkpt lat="39.5766760" lon="-7.1675960">
        <ele>346.6</ele>
        <time>2019-07-10T12:00:02Z</time>
      </trkpt>
      <trkpt lat="39.5767180" lon="-7.1676210">
        <ele>346.0</ele>
        <time>2019-07-10T12:00:03Z</time>
      </trkpt>
      <trkpt lat="39.5769030" lon="-7.1676930">
        <ele>345.6</ele>
        <time>2019-07-10T12:00:07Z</time>
      </trkpt>
      <trkpt lat="39.5769410" lon="-7.1677200">
        <ele>345.6</ele>
        <time>2019-07-10T12:00:08Z</time>
      </trkpt>
      <trkpt lat="39.5770130" lon="-7.1677640">
        <ele>344.6</ele>
        <time>2019-07-10T12:00:10Z</time>
      </trkpt>
      <trkpt lat="39.5771320" lon="-7.1677770">
        <ele>344.4</ele>
        <time>2019-07-10T12:00:13Z</time>
      </trkpt>
      <trkpt lat="39.5772630" lon="-7.1677780">
        <ele>343.6</ele>
        <time>2019-07-10T12:00:16Z</time>
      </trkpt>
      <trkpt lat="39.5774020" lon="-7.1677850">
        <ele>343.4</ele>
        <time>2019-07-10T12:00:19Z</time>
      </trkpt>
      <trkpt lat="39.5775400" lon="-7.1678090">
        <ele>343.8</ele>
        <time>2019-07-10T12:00:22Z</time>
      </trkpt>
      <trkpt lat="39.5777110" lon="-7.1678330">
        <ele>342.8</ele>
        <time>2019-07-10T12:00:26Z</time>
      </trkpt>
      <trkpt lat="39.5777990" lon="-7.1678650">
        <ele>342.6</ele>
        <time>2019-07-10T12:00:28Z</time>
      </trkpt>
      <trkpt lat="39.5778450" lon="-7.1678810">
        <ele>342.8</ele>
        <time>2019-07-10T12:00:29Z</time>
      </trkpt>
      <trkpt lat="39.5779880" lon="-7.1679190">
        <ele>341.8</ele>
        <time>2019-07-10T12:00:32Z</time>
      </trkpt>
      <trkpt lat="39.5782140" lon="-7.1680070">
        <ele>342.6</ele>
        <time>2019-07-10T12:00:37Z</time>
      </trkpt>
      <trkpt lat="39.5782970" lon="-7.1680400">
        <ele>342.6</ele>
        <time>2019-07-10T12:00:39Z</time>
      </trkpt>
      <trkpt lat="39.5785040" lon="-7.1681300">
        <ele>342.4</ele>
        <time>2019-07-10T12:00:44Z</time>
      </trkpt>
      <trkpt lat="39.5787600" lon="-7.1682460">
        <ele>342.6</ele>
        <time>2019-07-10T12:00:50Z</time>
      </trkpt>
      <trkpt lat="39.5788920" lon="-7.1683260">
        <ele>342.8</ele>
        <time>2019-07-10T12:00:54Z</time>
      </trkpt>
      <trkpt lat="39.5790760" lon="-7.1684020">
        <ele>343.2</ele>
        <time>2019-07-10T12:01:00Z</time>
      </trkpt>
      <trkpt lat="39.5791820" lon="-7.1684110">
        <ele>344.0</ele>
        <time>2019-07-10T12:01:04Z</time>
      </trkpt>
      <trkpt lat="39.5792330" lon="-7.1684120">
        <ele>344.0</ele>
        <time>2019-07-10T12:01:06Z</time>
      </trkpt>
      <trkpt lat="39.5792830" lon="-7.1684150">
        <ele>344.2</ele>
        <time>2019-07-10T12:01:08Z</time>
      </trkpt>
      <trkpt lat="39.5793640" lon="-7.1684080">
        <ele>344.4</ele>
        <time>2019-07-10T12:01:11Z</time>
      </trkpt>
      <trkpt lat="39.5794150" lon="-7.1684090">
        <ele>345.0</ele>
        <time>2019-07-10T12:01:13Z</time>
      </trkpt>
      <trkpt lat="39.5794400" lon="-7.1684110">
        <ele>345.2</ele>
        <time>2019-07-10T12:01:14Z</time>
      </trkpt>
      <trkpt lat="39.5795690" lon="-7.1684150">
        <ele>346.0</ele>
        <time>2019-07-10T12:01:19Z</time>
      </trkpt>
      <trkpt lat="39.5795970" lon="-7.1684110">
        <ele>346.2</ele>
        <time>2019-07-10T12:01:20Z</time>
      </trkpt>
      <trkpt lat="39.5796870" lon="-7.1684000">
        <ele>346.8</ele>
        <time>2019-07-10T12:01:23Z</time>
      </trkpt>
      <trkpt lat="39.5797760" lon="-7.1683910">
        <ele>347.0</ele>
        <time>2019-07-10T12:01:26Z</time>
      </trkpt>
      <trkpt lat="39.5799460" lon="-7.1683890">
        <ele>347.2</ele>
        <time>2019-07-10T12:01:31Z</time>
      </trkpt>
      <trkpt lat="39.5799860" lon="-7.1683950">
        <ele>347.4</ele>
        <time>2019-07-10T12:01:32Z</time>
      </trkpt>
      <trkpt lat="39.5801580" lon="-7.1684720">
        <ele>347.0</ele>
        <time>2019-07-10T12:01:36Z</time>
      </trkpt>
      <trkpt lat="39.5802450" lon="-7.1685180">
        <ele>346.2</ele>
        <time>2019-07-10T12:01:38Z</time>
      </trkpt>
      <trkpt lat="39.5803710" lon="-7.1685790">
        <ele>345.0</ele>
        <time>2019-07-10T12:01:41Z</time>
      </trkpt>
      <trkpt lat="39.5804160" lon="-7.1686060">
        <ele>344.8</ele>
        <time>2019-07-10T12:01:42Z</time>
      </trkpt>
      <trkpt lat="39.5805110" lon="-7.1686680">
        <ele>344.6</ele>
        <time>2019-07-10T12:01:44Z</time>
      </trkpt>
      <trkpt lat="39.5806220" lon="-7.1687190">
        <ele>343.6</ele>
        <time>2019-07-10T12:01:46Z</time>
      </trkpt>
      <trkpt lat="39.5807470" lon="-7.1687320">
        <ele>343.0</ele>
        <time>2019-07-10T12:01:48Z</time>
      </trkpt>
      <trkpt lat="39.5808120" lon="-7.1687290">
        <ele>342.6</ele>
        <time>2019-07-10T12:01:49Z</time>
      </trkpt>
      <trkpt lat="39.5808730" lon="-7.1687250">
        <ele>342.4</ele>
        <time>2019-07-10T12:01:50Z</time>
      </trkpt>
      <trkpt lat="39.5809320" lon="-7.1687280">
        <ele>342.0</ele>
        <time>2019-07-10T12:01:51Z</time>
      </trkpt>
      <trkpt lat="39.5810450" lon="-7.1687600">
        <ele>341.8</ele>
        <time>2019-07-10T12:01:53Z</time>
      </trkpt>
      <trkpt lat="39.5810990" lon="-7.1687720">
        <ele>341.6</ele>
        <time>2019-07-10T12:01:54Z</time>
      </trkpt>
      <trkpt lat="39.5811460" lon="-7.1687850">
        <ele>341.4</ele>
        <time>2019-07-10T12:01:55Z</time>
      </trkpt>
      <trkpt lat="39.5812540" lon="-7.1688040">
        <ele>342.0</ele>
        <time>2019-07-10T12:01:58Z</time>
      </trkpt>
      <trkpt lat="39.5812880" lon="-7.1688010">
        <ele>342.2</ele>
        <time>2019-07-10T12:01:59Z</time>
      </trkpt>
      <trkpt lat="39.5813600" lon="-7.1687980">
        <ele>342.6</ele>
        <time>2019-07-10T12:02:01Z</time>
      </trkpt>
      <trkpt lat="39.5815220" lon="-7.1687810">
        <ele>342.8</ele>
        <time>2019-07-10T12:02:05Z</time>
      </trkpt>
      <trkpt lat="39.5815670" lon="-7.1687790">
        <ele>342.4</ele>
        <time>2019-07-10T12:02:06Z</time>
      </trkpt>
      <trkpt lat="39.5817350" lon="-7.1687840">
        <ele>341.2</ele>
        <time>2019-07-10T12:02:09Z</time>
      </trkpt>
      <trkpt lat="39.5817940" lon="-7.1687880">
        <ele>341.2</ele>
        <time>2019-07-10T12:02:10Z</time>
      </trkpt>
      <trkpt lat="39.5819590" lon="-7.1688620">
        <ele>340.2</ele>
        <time>2019-07-10T12:02:13Z</time>
      </trkpt>
      <trkpt lat="39.5820110" lon="-7.1688980">
        <ele>339.8</ele>
        <time>2019-07-10T12:02:14Z</time>
      </trkpt>
      <trkpt lat="39.5821120" lon="-7.1689680">
        <ele>339.2</ele>
        <time>2019-07-10T12:02:16Z</time>
      </trkpt>
      <trkpt lat="39.5821620" lon="-7.1690010">
        <ele>338.8</ele>
        <time>2019-07-10T12:02:17Z</time>
      </trkpt>
      <trkpt lat="39.5822960" lon="-7.1691110">
        <ele>338.6</ele>
        <time>2019-07-10T12:02:20Z</time>
      </trkpt>
      <trkpt lat="39.5824390" lon="-7.1692080">
        <ele>337.8</ele>
        <time>2019-07-10T12:02:23Z</time>
      </trkpt>
      <trkpt lat="39.5825910" lon="-7.1692840">
        <ele>337.4</ele>
        <time>2019-07-10T12:02:26Z</time>
      </trkpt>
      <trkpt lat="39.5828620" lon="-7.1693540">
        <ele>336.8</ele>
        <time>2019-07-10T12:02:31Z</time>
      </trkpt>
      <trkpt lat="39.5829690" lon="-7.1693800">
        <ele>336.4</ele>
        <time>2019-07-10T12:02:33Z</time>
      </trkpt>
      <trkpt lat="39.5830200" lon="-7.1693940">
        <ele>336.4</ele>
        <time>2019-07-10T12:02:34Z</time>
      </trkpt>
      <trkpt lat="39.5831190" lon="-7.1694360">
        <ele>336.4</ele>
        <time>2019-07-10T12:02:36Z</time>
      </trkpt>
      <trkpt lat="39.5832050" lon="-7.1694870">
        <ele>336.4</ele>
        <time>2019-07-10T12:02:38Z</time>
      </trkpt>
      <trkpt lat="39.5833580" lon="-7.1695700">
        <ele>337.0</ele>
        <time>2019-07-10T12:02:42Z</time>
      </trkpt>
      <trkpt lat="39.5833920" lon="-7.1695810">
        <ele>337.4</ele>
        <time>2019-07-10T12:02:43Z</time>
      </trkpt>
      <trkpt lat="39.5834610" lon="-7.1695950">
        <ele>338.0</ele>
        <time>2019-07-10T12:02:45Z</time>
      </trkpt>
      <trkpt lat="39.5835700" lon="-7.1696350">
        <ele>338.0</ele>
        <time>2019-07-10T12:02:48Z</time>
      </trkpt>
      <trkpt lat="39.5838160" lon="-7.1697430">
        <ele>337.8</ele>
        <time>2019-07-10T12:02:54Z</time>
      </trkpt>
      <trkpt lat="39.5839440" lon="-7.1698100">
        <ele>337.8</ele>
        <time>2019-07-10T12:02:57Z</time>
      </trkpt>
      <trkpt lat="39.5840490" lon="-7.1698950">
        <ele>338.8</ele>
        <time>2019-07-10T12:03:00Z</time>
      </trkpt>
      <trkpt lat="39.5840790" lon="-7.1699210">
        <ele>339.2</ele>
        <time>2019-07-10T12:03:01Z</time>
      </trkpt>
      <trkpt lat="39.5841800" lon="-7.1699720">
        <ele>338.8</ele>
        <time>2019-07-10T12:03:04Z</time>
      </trkpt>
      <trkpt lat="39.5842800" lon="-7.1700330">
        <ele>339.6</ele>
        <time>2019-07-10T12:03:07Z</time>
      </trkpt>
      <trkpt lat="39.5843470" lon="-7.1700740">
        <ele>340.2</ele>
        <time>2019-07-10T12:03:09Z</time>
      </trkpt>
      <trkpt lat="39.5843790" lon="-7.1700920">
        <ele>340.4</ele>
        <time>2019-07-10T12:03:10Z</time>
      </trkpt>
      <trkpt lat="39.5844450" lon="-7.1701370">
        <ele>340.6</ele>
        <time>2019-07-10T12:03:12Z</time>
      </trkpt>
      <trkpt lat="39.5845640" lon="-7.1702170">
        <ele>340.4</ele>
        <time>2019-07-10T12:03:15Z</time>
      </trkpt>
      <trkpt lat="39.5847830" lon="-7.1703830">
        <ele>339.2</ele>
        <time>2019-07-10T12:03:20Z</time>
      </trkpt>
      <trkpt lat="39.5848220" lon="-7.1704200">
        <ele>338.6</ele>
        <time>2019-07-10T12:03:21Z</time>
      </trkpt>
      <trkpt lat="39.5848910" lon="-7.1704900">
        <ele>338.0</ele>
        <time>2019-07-10T12:03:23Z</time>
      </trkpt>
      <trkpt lat="39.5849610" lon="-7.1705610">
        <ele>337.2</ele>
        <time>2019-07-10T12:03:25Z</time>
      </trkpt>
      <trkpt lat="39.5849990" lon="-7.1706000">
        <ele>337.0</ele>
        <time>2019-07-10T12:03:26Z</time>
      </trkpt>
      <trkpt lat="39.5850380" lon="-7.1706380">
        <ele>336.8</ele>
        <time>2019-07-10T12:03:27Z</time>
      </trkpt>
      <trkpt lat="39.5851130" lon="-7.1707160">
        <ele>336.6</ele>
        <time>2019-07-10T12:03:29Z</time>
      </trkpt>
      <trkpt lat="39.5851500" lon="-7.1707490">
        <ele>336.0</ele>
        <time>2019-07-10T12:03:30Z</time>
      </trkpt>
      <trkpt lat="39.5852240" lon="-7.1708100">
        <ele>335.4</ele>
        <time>2019-07-10T12:03:32Z</time>
      </trkpt>
      <trkpt lat="39.5852980" lon="-7.1708620">
        <ele>335.0</ele>
        <time>2019-07-10T12:03:34Z</time>
      </trkpt>
      <trkpt lat="39.5853300" lon="-7.1708850">
        <ele>334.6</ele>
        <time>2019-07-10T12:03:35Z</time>
      </trkpt>
      <trkpt lat="39.5853670" lon="-7.1709040">
        <ele>334.2</ele>
        <time>2019-07-10T12:03:36Z</time>
      </trkpt>
      <trkpt lat="39.5854080" lon="-7.1709230">
        <ele>334.2</ele>
        <time>2019-07-10T12:03:37Z</time>
      </trkpt>
      <trkpt lat="39.5854920" lon="-7.1709560">
        <ele>334.0</ele>
        <time>2019-07-10T12:03:39Z</time>
      </trkpt>
      <trkpt lat="39.5856250" lon="-7.1709730">
        <ele>333.8</ele>
        <time>2019-07-10T12:03:42Z</time>
      </trkpt>
      <trkpt lat="39.5857240" lon="-7.1709690">
        <ele>333.6</ele>
        <time>2019-07-10T12:03:44Z</time>
      </trkpt>
      <trkpt lat="39.5857750" lon="-7.1709620">
        <ele>333.4</ele>
        <time>2019-07-10T12:03:45Z</time>
      </trkpt>
      <trkpt lat="39.5858740" lon="-7.1709480">
        <ele>332.2</ele>
        <time>2019-07-10T12:03:47Z</time>
      </trkpt>
      <trkpt lat="39.5859210" lon="-7.1709460">
        <ele>332.0</ele>
        <time>2019-07-10T12:03:48Z</time>
      </trkpt>
      <trkpt lat="39.5859660" lon="-7.1709490">
        <ele>331.8</ele>
        <time>2019-07-10T12:03:49Z</time>
      </trkpt>
      <trkpt lat="39.5861390" lon="-7.1710100">
        <ele>331.6</ele>
        <time>2019-07-10T12:03:53Z</time>
      </trkpt>
      <trkpt lat="39.5862310" lon="-7.1710310">
        <ele>331.4</ele>
        <time>2019-07-10T12:03:55Z</time>
      </trkpt>
      <trkpt lat="39.5863240" lon="-7.1710390">
        <ele>331.4</ele>
        <time>2019-07-10T12:03:57Z</time>
      </trkpt>
      <trkpt lat="39.5864180" lon="-7.1710350">
        <ele>331.4</ele>
        <time>2019-07-10T12:03:59Z</time>
      </trkpt>
      <trkpt lat="39.5865590" lon="-7.1710210">
        <ele>332.0</ele>
        <time>2019-07-10T12:04:02Z</time>
      </trkpt>
      <trkpt lat="39.5866330" lon="-7.1710250">
        <ele>332.4</ele>
        <time>2019-07-10T12:04:04Z</time>
      </trkpt>
      <trkpt lat="39.5866830" lon="-7.1710570">
        <ele>332.6</ele>
        <time>2019-07-10T12:04:06Z</time>
      </trkpt>
      <trkpt lat="39.5867730" lon="-7.1711090">
        <ele>333.0</ele>
        <time>2019-07-10T12:04:09Z</time>
      </trkpt>
      <trkpt lat="39.5869630" lon="-7.1711840">
        <ele>333.0</ele>
        <time>2019-07-10T12:04:13Z</time>
      </trkpt>
      <trkpt lat="39.5871560" lon="-7.1712230">
        <ele>332.0</ele>
        <time>2019-07-10T12:04:16Z</time>
      </trkpt>
      <trkpt lat="39.5872740" lon="-7.1712510">
        <ele>331.4</ele>
        <time>2019-07-10T12:04:18Z</time>
      </trkpt>
      <trkpt lat="39.5873290" lon="-7.1712730">
        <ele>331.0</ele>
        <time>2019-07-10T12:04:19Z</time>
      </trkpt>
      <trkpt lat="39.5874780" lon="-7.1713750">
        <ele>330.4</ele>
        <time>2019-07-10T12:04:22Z</time>
      </trkpt>
      <trkpt lat="39.5875780" lon="-7.1714420">
        <ele>330.4</ele>
        <time>2019-07-10T12:04:24Z</time>
      </trkpt>
      <trkpt lat="39.5877780" lon="-7.1715570">
        <ele>330.0</ele>
        <time>2019-07-10T12:04:28Z</time>
      </trkpt>
      <trkpt lat="39.5878650" lon="-7.1715950">
        <ele>330.0</ele>
        <time>2019-07-10T12:04:30Z</time>
      </trkpt>
      <trkpt lat="39.5879060" lon="-7.1716060">
        <ele>330.0</ele>
        <time>2019-07-10T12:04:31Z</time>
      </trkpt>
      <trkpt lat="39.5880270" lon="-7.1716860">
        <ele>329.8</ele>
        <time>2019-07-10T12:04:34Z</time>
      </trkpt>
      <trkpt lat="39.5880930" lon="-7.1718050">
        <ele>329.4</ele>
        <time>2019-07-10T12:04:36Z</time>
      </trkpt>
      <trkpt lat="39.5881720" lon="-7.1720010">
        <ele>328.8</ele>
        <time>2019-07-10T12:04:39Z</time>
      </trkpt>
      <trkpt lat="39.5882020" lon="-7.1720630">
        <ele>328.6</ele>
        <time>2019-07-10T12:04:40Z</time>
      </trkpt>
      <trkpt lat="39.5882400" lon="-7.1721180">
        <ele>328.4</ele>
        <time>2019-07-10T12:04:41Z</time>
      </trkpt>
      <trkpt lat="39.5883310" lon="-7.1722070">
        <ele>328.2</ele>
        <time>2019-07-10T12:04:43Z</time>
      </trkpt>
      <trkpt lat="39.5884190" lon="-7.1722910">
        <ele>328.0</ele>
        <time>2019-07-10T12:04:45Z</time>
      </trkpt>
      <trkpt lat="39.5885330" lon="-7.1724370">
        <ele>327.8</ele>
        <time>2019-07-10T12:04:48Z</time>
      </trkpt>
      <trkpt lat="39.5885730" lon="-7.1724840">
        <ele>327.6</ele>
        <time>2019-07-10T12:04:49Z</time>
      </trkpt>
      <trkpt lat="39.5886700" lon="-7.1725350">
        <ele>327.4</ele>
        <time>2019-07-10T12:04:51Z</time>
      </trkpt>
      <trkpt lat="39.5887220" lon="-7.1725420">
        <ele>327.2</ele>
        <time>2019-07-10T12:04:52Z</time>
      </trkpt>
      <trkpt lat="39.5887720" lon="-7.1725460">
        <ele>327.2</ele>
        <time>2019-07-10T12:04:53Z</time>
      </trkpt>
      <trkpt lat="39.5889700" lon="-7.1725850">
        <ele>326.6</ele>
        <time>2019-07-10T12:04:57Z</time>
      </trkpt>
      <trkpt lat="39.5890200" lon="-7.1726040">
        <ele>326.2</ele>
        <time>2019-07-10T12:04:58Z</time>
      </trkpt>
      <trkpt lat="39.5891680" lon="-7.1726770">
        <ele>326.0</ele>
        <time>2019-07-10T12:05:01Z</time>
      </trkpt>
      <trkpt lat="39.5892600" lon="-7.1727420">
        <ele>326.0</ele>
        <time>2019-07-10T12:05:03Z</time>
      </trkpt>
      <trkpt lat="39.5893340" lon="-7.1728100">
        <ele>326.0</ele>
        <time>2019-07-10T12:05:05Z</time>
      </trkpt>
      <trkpt lat="39.5893720" lon="-7.1728410">
        <ele>326.0</ele>
        <time>2019-07-10T12:05:06Z</time>
      </trkpt>
      <trkpt lat="39.5894530" lon="-7.1728800">
        <ele>326.2</ele>
        <time>2019-07-10T12:05:08Z</time>
      </trkpt>
      <trkpt lat="39.5895590" lon="-7.1729110">
        <ele>326.2</ele>
        <time>2019-07-10T12:05:11Z</time>
      </trkpt>
      <trkpt lat="39.5896400" lon="-7.1729290">
        <ele>326.2</ele>
        <time>2019-07-10T12:05:13Z</time>
      </trkpt>
      <trkpt lat="39.5899110" lon="-7.1729940">
        <ele>326.0</ele>
        <time>2019-07-10T12:05:19Z</time>
      </trkpt>
      <trkpt lat="39.5900000" lon="-7.1729960">
        <ele>326.2</ele>
        <time>2019-07-10T12:05:21Z</time>
      </trkpt>
      <trkpt lat="39.5901780" lon="-7.1729910">
        <ele>326.0</ele>
        <time>2019-07-10T12:05:25Z</time>
      </trkpt>
      <trkpt lat="39.5903030" lon="-7.1729980">
        <ele>326.0</ele>
        <time>2019-07-10T12:05:28Z</time>
      </trkpt>
      <trkpt lat="39.5904700" lon="-7.1730060">
        <ele>326.6</ele>
        <time>2019-07-10T12:05:33Z</time>
      </trkpt>
      <trkpt lat="39.5904970" lon="-7.1729960">
        <ele>326.8</ele>
        <time>2019-07-10T12:05:34Z</time>
      </trkpt>
      <trkpt lat="39.5906250" lon="-7.1729940">
        <ele>327.2</ele>
        <time>2019-07-10T12:05:38Z</time>
      </trkpt>
      <trkpt lat="39.5906600" lon="-7.1730020">
        <ele>327.4</ele>
        <time>2019-07-10T12:05:39Z</time>
      </trkpt>
      <trkpt lat="39.5907840" lon="-7.1730310">
        <ele>327.8</ele>
        <time>2019-07-10T12:05:43Z</time>
      </trkpt>
      <trkpt lat="39.5909350" lon="-7.1730700">
        <ele>328.6</ele>
        <time>2019-07-10T12:05:48Z</time>
      </trkpt>
      <trkpt lat="39.5910890" lon="-7.1731300">
        <ele>329.4</ele>
        <time>2019-07-10T12:05:53Z</time>
      </trkpt>
      <trkpt lat="39.5911490" lon="-7.1731730">
        <ele>329.4</ele>
        <time>2019-07-10T12:05:55Z</time>
      </trkpt>
      <trkpt lat="39.5912430" lon="-7.1732640">
        <ele>329.4</ele>
        <time>2019-07-10T12:05:58Z</time>
      </trkpt>
      <trkpt lat="39.5913550" lon="-7.1733510">
        <ele>329.4</ele>
        <time>2019-07-10T12:06:01Z</time>
      </trkpt>
      <trkpt lat="39.5915400" lon="-7.1734470">
        <ele>329.0</ele>
        <time>2019-07-10T12:06:06Z</time>
      </trkpt>
      <trkpt lat="39.5915730" lon="-7.1734690">
        <ele>328.8</ele>
        <time>2019-07-10T12:06:07Z</time>
      </trkpt>
      <trkpt lat="39.5916570" lon="-7.1735640">
        <ele>327.8</ele>
        <time>2019-07-10T12:06:10Z</time>
      </trkpt>
      <trkpt lat="39.5916670" lon="-7.1736060">
        <ele>327.6</ele>
        <time>2019-07-10T12:06:11Z</time>
      </trkpt>
      <trkpt lat="39.5916860" lon="-7.1737670">
        <ele>326.8</ele>
        <time>2019-07-10T12:06:14Z</time>
      </trkpt>
      <trkpt lat="39.5917040" lon="-7.1738280">
        <ele>326.4</ele>
        <time>2019-07-10T12:06:15Z</time>
      </trkpt>
      <trkpt lat="39.5917470" lon="-7.1739590">
        <ele>326.0</ele>
        <time>2019-07-10T12:06:17Z</time>
      </trkpt>
      <trkpt lat="39.5917850" lon="-7.1740960">
        <ele>325.4</ele>
        <time>2019-07-10T12:06:19Z</time>
      </trkpt>
      <trkpt lat="39.5918020" lon="-7.1741650">
        <ele>325.2</ele>
        <time>2019-07-10T12:06:20Z</time>
      </trkpt>
      <trkpt lat="39.5918830" lon="-7.1743980">
        <ele>325.0</ele>
        <time>2019-07-10T12:06:24Z</time>
      </trkpt>
      <trkpt lat="39.5919000" lon="-7.1744480">
        <ele>325.0</ele>
        <time>2019-07-10T12:06:25Z</time>
      </trkpt>
      <trkpt lat="39.5919700" lon="-7.1747220">
        <ele>325.2</ele>
        <time>2019-07-10T12:06:31Z</time>
      </trkpt>
      <trkpt lat="39.5919710" lon="-7.1750300">
        <ele>326.0</ele>
        <time>2019-07-10T12:06:38Z</time>
      </trkpt>
      <trkpt lat="39.5919850" lon="-7.1753080">
        <ele>326.0</ele>
        <time>2019-07-10T12:06:44Z</time>
      </trkpt>
      <trkpt lat="39.5920510" lon="-7.1754610">
        <ele>325.6</ele>
        <time>2019-07-10T12:06:47Z</time>
      </trkpt>
      <trkpt lat="39.5920920" lon="-7.1755410">
        <ele>325.2</ele>
        <time>2019-07-10T12:06:49Z</time>
      </trkpt>
      <trkpt lat="39.5921990" lon="-7.1756180">
        <ele>324.4</ele>
        <time>2019-07-10T12:06:53Z</time>
      </trkpt>
      <trkpt lat="39.5922790" lon="-7.1756160">
        <ele>324.2</ele>
        <time>2019-07-10T12:06:55Z</time>
      </trkpt>
      <trkpt lat="39.5924250" lon="-7.1756120">
        <ele>323.4</ele>
        <time>2019-07-10T12:06:58Z</time>
      </trkpt>
      <trkpt lat="39.5925310" lon="-7.1756230">
        <ele>322.8</ele>
        <time>2019-07-10T12:07:00Z</time>
      </trkpt>
      <trkpt lat="39.5927240" lon="-7.1756790">
        <ele>322.6</ele>
        <time>2019-07-10T12:07:04Z</time>
      </trkpt>
      <trkpt lat="39.5928340" lon="-7.1757050">
        <ele>322.8</ele>
        <time>2019-07-10T12:07:07Z</time>
      </trkpt>
      <trkpt lat="39.5928890" lon="-7.1757300">
        <ele>322.8</ele>
        <time>2019-07-10T12:07:09Z</time>
      </trkpt>
      <trkpt lat="39.5929480" lon="-7.1757690">
        <ele>323.0</ele>
        <time>2019-07-10T12:07:11Z</time>
      </trkpt>
      <trkpt lat="39.5930180" lon="-7.1757990">
        <ele>323.0</ele>
        <time>2019-07-10T12:07:13Z</time>
      </trkpt>
      <trkpt lat="39.5930860" lon="-7.1758270">
        <ele>323.0</ele>
        <time>2019-07-10T12:07:15Z</time>
      </trkpt>
      <trkpt lat="39.5932860" lon="-7.1758820">
        <ele>323.0</ele>
        <time>2019-07-10T12:07:21Z</time>
      </trkpt>
      <trkpt lat="39.5933510" lon="-7.1758490">
        <ele>324.0</ele>
        <time>2019-07-10T12:07:24Z</time>
      </trkpt>
      <trkpt lat="39.5934020" lon="-7.1758130">
        <ele>324.6</ele>
        <time>2019-07-10T12:07:26Z</time>
      </trkpt>
      <trkpt lat="39.5935960" lon="-7.1757070">
        <ele>324.6</ele>
        <time>2019-07-10T12:07:33Z</time>
      </trkpt>
      <trkpt lat="39.5936630" lon="-7.1756880">
        <ele>325.2</ele>
        <time>2019-07-10T12:07:36Z</time>
      </trkpt>
      <trkpt lat="39.5937830" lon="-7.1756830">
        <ele>325.6</ele>
        <time>2019-07-10T12:07:41Z</time>
      </trkpt>
      <trkpt lat="39.5938890" lon="-7.1757230">
        <ele>326.2</ele>
        <time>2019-07-10T12:07:45Z</time>
      </trkpt>
      <trkpt lat="39.5939570" lon="-7.1757390">
        <ele>326.2</ele>
        <time>2019-07-10T12:07:47Z</time>
      </trkpt>
      <trkpt lat="39.5941490" lon="-7.1757410">
        <ele>326.4</ele>
        <time>2019-07-10T12:07:52Z</time>
      </trkpt>
      <trkpt lat="39.5942340" lon="-7.1757430">
        <ele>326.0</ele>
        <time>2019-07-10T12:07:55Z</time>
      </trkpt>
      <trkpt lat="39.5942850" lon="-7.1757470">
        <ele>325.8</ele>
        <time>2019-07-10T12:07:57Z</time>
      </trkpt>
      <trkpt lat="39.5944240" lon="-7.1756980">
        <ele>325.0</ele>
        <time>2019-07-10T12:08:02Z</time>
      </trkpt>
      <trkpt lat="39.5945020" lon="-7.1756890">
        <ele>324.8</ele>
        <time>2019-07-10T12:08:04Z</time>
      </trkpt>
      <trkpt lat="39.5945950" lon="-7.1757030">
        <ele>324.6</ele>
        <time>2019-07-10T12:08:06Z</time>
      </trkpt>
      <trkpt lat="39.5946820" lon="-7.1757380">
        <ele>324.2</ele>
        <time>2019-07-10T12:08:08Z</time>
      </trkpt>
      <trkpt lat="39.5947790" lon="-7.1757840">
        <ele>323.2</ele>
        <time>2019-07-10T12:08:10Z</time>
      </trkpt>
      <trkpt lat="39.5948270" lon="-7.1758020">
        <ele>322.6</ele>
        <time>2019-07-10T12:08:11Z</time>
      </trkpt>
      <trkpt lat="39.5948750" lon="-7.1758170">
        <ele>322.0</ele>
        <time>2019-07-10T12:08:12Z</time>
      </trkpt>
      <trkpt lat="39.5950860" lon="-7.1758640">
        <ele>320.6</ele>
        <time>2019-07-10T12:08:16Z</time>
      </trkpt>
      <trkpt lat="39.5951350" lon="-7.1758700">
        <ele>320.2</ele>
        <time>2019-07-10T12:08:17Z</time>
      </trkpt>
      <trkpt lat="39.5951820" lon="-7.1758720">
        <ele>319.8</ele>
        <time>2019-07-10T12:08:18Z</time>
      </trkpt>
      <trkpt lat="39.5952750" lon="-7.1758540">
        <ele>319.2</ele>
        <time>2019-07-10T12:08:20Z</time>
      </trkpt>
      <trkpt lat="39.5953710" lon="-7.1758180">
        <ele>318.8</ele>
        <time>2019-07-10T12:08:22Z</time>
      </trkpt>
      <trkpt lat="39.5954670" lon="-7.1757740">
        <ele>317.8</ele>
        <time>2019-07-10T12:08:24Z</time>
      </trkpt>
      <trkpt lat="39.5956580" lon="-7.1756590">
        <ele>317.4</ele>
        <time>2019-07-10T12:08:28Z</time>
      </trkpt>
      <trkpt lat="39.5957060" lon="-7.1756370">
        <ele>317.2</ele>
        <time>2019-07-10T12:08:29Z</time>
      </trkpt>
      <trkpt lat="39.5957540" lon="-7.1756250">
        <ele>316.8</ele>
        <time>2019-07-10T12:08:30Z</time>
      </trkpt>
      <trkpt lat="39.5958480" lon="-7.1756320">
        <ele>316.2</ele>
        <time>2019-07-10T12:08:32Z</time>
      </trkpt>
      <trkpt lat="39.5959890" lon="-7.1756940">
        <ele>316.2</ele>
        <time>2019-07-10T12:08:35Z</time>
      </trkpt>
      <trkpt lat="39.5960800" lon="-7.1757330">
        <ele>316.2</ele>
        <time>2019-07-10T12:08:37Z</time>
      </trkpt>
      <trkpt lat="39.5962370" lon="-7.1757700">
        <ele>316.0</ele>
        <time>2019-07-10T12:08:41Z</time>
      </trkpt>
      <trkpt lat="39.5962670" lon="-7.1757760">
        <ele>316.2</ele>
        <time>2019-07-10T12:08:42Z</time>
      </trkpt>
      <trkpt lat="39.5963280" lon="-7.1758060">
        <ele>316.4</ele>
        <time>2019-07-10T12:08:44Z</time>
      </trkpt>
      <trkpt lat="39.5964560" lon="-7.1758970">
        <ele>317.0</ele>
        <time>2019-07-10T12:08:48Z</time>
      </trkpt>
      <trkpt lat="39.5966260" lon="-7.1759960">
        <ele>317.2</ele>
        <time>2019-07-10T12:08:53Z</time>
      </trkpt>
      <trkpt lat="39.5967650" lon="-7.1760510">
        <ele>317.6</ele>
        <time>2019-07-10T12:08:57Z</time>
      </trkpt>
      <trkpt lat="39.5968210" lon="-7.1760860">
        <ele>317.6</ele>
        <time>2019-07-10T12:08:59Z</time>
      </trkpt>
      <trkpt lat="39.5969140" lon="-7.1761820">
        <ele>317.4</ele>
        <time>2019-07-10T12:09:03Z</time>
      </trkpt>
      <trkpt lat="39.5969810" lon="-7.1762670">
        <ele>317.8</ele>
        <time>2019-07-10T12:09:06Z</time>
      </trkpt>
      <trkpt lat="39.5970050" lon="-7.1762890">
        <ele>318.0</ele>
        <time>2019-07-10T12:09:07Z</time>
      </trkpt>
      <trkpt lat="39.5971280" lon="-7.1763340">
        <ele>319.0</ele>
        <time>2019-07-10T12:09:11Z</time>
      </trkpt>
      <trkpt lat="39.5971590" lon="-7.1763360">
        <ele>319.2</ele>
        <time>2019-07-10T12:09:12Z</time>
      </trkpt>
      <trkpt lat="39.5972820" lon="-7.1763070">
        <ele>319.8</ele>
        <time>2019-07-10T12:09:16Z</time>
      </trkpt>
      <trkpt lat="39.5974470" lon="-7.1763160">
        <ele>319.6</ele>
        <time>2019-07-10T12:09:20Z</time>
      </trkpt>
      <trkpt lat="39.5975270" lon="-7.1763400">
        <ele>319.4</ele>
        <time>2019-07-10T12:09:22Z</time>
      </trkpt>
      <trkpt lat="39.5977590" lon="-7.1763970">
        <ele>318.6</ele>
        <time>2019-07-10T12:09:28Z</time>
      </trkpt>
      <trkpt lat="39.5977930" lon="-7.1764250">
        <ele>318.4</ele>
        <time>2019-07-10T12:09:29Z</time>
      </trkpt>
      <trkpt lat="39.5978960" lon="-7.1765400">
        <ele>317.8</ele>
        <time>2019-07-10T12:09:32Z</time>
      </trkpt>
      <trkpt lat="39.5979830" lon="-7.1766000">
        <ele>316.8</ele>
        <time>2019-07-10T12:09:34Z</time>
      </trkpt>
      <trkpt lat="39.5980170" lon="-7.1766160">
        <ele>316.0</ele>
        <time>2019-07-10T12:09:35Z</time>
      </trkpt>
      <trkpt lat="39.5980460" lon="-7.1766260">
        <ele>315.6</ele>
        <time>2019-07-10T12:09:36Z</time>
      </trkpt>
      <trkpt lat="39.5980960" lon="-7.1766230">
        <ele>315.0</ele>
        <time>2019-07-10T12:09:38Z</time>
      </trkpt>
      <trkpt lat="39.5981140" lon="-7.1766100">
        <ele>314.6</ele>
        <time>2019-07-10T12:09:40Z</time>
      </trkpt>
      <trkpt lat="39.5981140" lon="-7.1766100">
        <ele>314.6</ele>
        <time>2019-07-10T12:09:41Z</time>
      </trkpt>
      <trkpt lat="39.5982160" lon="-7.1766140">
        <ele>314.8</ele>
        <time>2019-07-10T12:10:30Z</time>
      </trkpt>
      <trkpt lat="39.5982380" lon="-7.1766520">
        <ele>314.8</ele>
        <time>2019-07-10T12:10:32Z</time>
      </trkpt>
      <trkpt lat="39.5983060" lon="-7.1768530">
        <ele>315.4</ele>
        <time>2019-07-10T12:10:38Z</time>
      </trkpt>
      <trkpt lat="39.5983900" lon="-7.1771660">
        <ele>315.4</ele>
        <time>2019-07-10T12:10:44Z</time>
      </trkpt>
      <trkpt lat="39.5984600" lon="-7.1774490">
        <ele>315.6</ele>
        <time>2019-07-10T12:10:49Z</time>
      </trkpt>
      <trkpt lat="39.5984890" lon="-7.1775550">
        <ele>315.8</ele>
        <time>2019-07-10T12:10:51Z</time>
      </trkpt>
      <trkpt lat="39.5985040" lon="-7.1776020">
        <ele>315.8</ele>
        <time>2019-07-10T12:10:52Z</time>
      </trkpt>
      <trkpt lat="39.5985670" lon="-7.1778550">
        <ele>316.6</ele>
        <time>2019-07-10T12:10:58Z</time>
      </trkpt>
      <trkpt lat="39.5985780" lon="-7.1778970">
        <ele>316.8</ele>
        <time>2019-07-10T12:10:59Z</time>
      </trkpt>
      <trkpt lat="39.5986120" lon="-7.1780250">
        <ele>317.4</ele>
        <time>2019-07-10T12:11:02Z</time>
      </trkpt>
      <trkpt lat="39.5986340" lon="-7.1781050">
        <ele>318.0</ele>
        <time>2019-07-10T12:11:04Z</time>
      </trkpt>
      <trkpt lat="39.5986680" lon="-7.1782210">
        <ele>318.6</ele>
        <time>2019-07-10T12:11:07Z</time>
      </trkpt>
      <trkpt lat="39.5986840" lon="-7.1783020">
        <ele>319.2</ele>
        <time>2019-07-10T12:11:09Z</time>
      </trkpt>
      <trkpt lat="39.5987200" lon="-7.1784600">
        <ele>320.0</ele>
        <time>2019-07-10T12:11:13Z</time>
      </trkpt>
      <trkpt lat="39.5987420" lon="-7.1785390">
        <ele>320.4</ele>
        <time>2019-07-10T12:11:15Z</time>
      </trkpt>
      <trkpt lat="39.5987650" lon="-7.1786210">
        <ele>320.8</ele>
        <time>2019-07-10T12:11:17Z</time>
      </trkpt>
      <trkpt lat="39.5988090" lon="-7.1787940">
        <ele>321.4</ele>
        <time>2019-07-10T12:11:21Z</time>
      </trkpt>
      <trkpt lat="39.5988240" lon="-7.1788900">
        <ele>321.8</ele>
        <time>2019-07-10T12:11:23Z</time>
      </trkpt>
      <trkpt lat="39.5988910" lon="-7.1791320">
        <ele>322.4</ele>
        <time>2019-07-10T12:11:28Z</time>
      </trkpt>
      <trkpt lat="39.5989160" lon="-7.1792370">
        <ele>322.6</ele>
        <time>2019-07-10T12:11:30Z</time>
      </trkpt>
      <trkpt lat="39.5989260" lon="-7.1792920">
        <ele>322.6</ele>
        <time>2019-07-10T12:11:31Z</time>
      </trkpt>
      <trkpt lat="39.5989480" lon="-7.1794030">
        <ele>322.6</ele>
        <time>2019-07-10T12:11:33Z</time>
      </trkpt>
      <trkpt lat="39.5989630" lon="-7.1794600">
        <ele>322.8</ele>
        <time>2019-07-10T12:11:34Z</time>
      </trkpt>
      <trkpt lat="39.5990730" lon="-7.1798810">
        <ele>323.2</ele>
        <time>2019-07-10T12:11:41Z</time>
      </trkpt>
      <trkpt lat="39.5991380" lon="-7.1801090">
        <ele>323.4</ele>
        <time>2019-07-10T12:11:45Z</time>
      </trkpt>
      <trkpt lat="39.5991740" lon="-7.1802180">
        <ele>323.6</ele>
        <time>2019-07-10T12:11:47Z</time>
      </trkpt>
      <trkpt lat="39.5992070" lon="-7.1803220">
        <ele>324.0</ele>
        <time>2019-07-10T12:11:49Z</time>
      </trkpt>
      <trkpt lat="39.5992410" lon="-7.1804220">
        <ele>324.2</ele>
        <time>2019-07-10T12:11:51Z</time>
      </trkpt>
      <trkpt lat="39.5992800" lon="-7.1805170">
        <ele>324.6</ele>
        <time>2019-07-10T12:11:53Z</time>
      </trkpt>
      <trkpt lat="39.5993130" lon="-7.1806130">
        <ele>325.0</ele>
        <time>2019-07-10T12:11:55Z</time>
      </trkpt>
      <trkpt lat="39.5994160" lon="-7.1808670">
        <ele>325.6</ele>
        <time>2019-07-10T12:12:00Z</time>
      </trkpt>
      <trkpt lat="39.5994380" lon="-7.1809230">
        <ele>325.8</ele>
        <time>2019-07-10T12:12:01Z</time>
      </trkpt>
      <trkpt lat="39.5996120" lon="-7.1813730">
        <ele>326.2</ele>
        <time>2019-07-10T12:12:09Z</time>
      </trkpt>
      <trkpt lat="39.5996730" lon="-7.1815350">
        <ele>326.8</ele>
        <time>2019-07-10T12:12:12Z</time>
      </trkpt>
      <trkpt lat="39.5997700" lon="-7.1817980">
        <ele>327.4</ele>
        <time>2019-07-10T12:12:17Z</time>
      </trkpt>
      <trkpt lat="39.5998170" lon="-7.1819020">
        <ele>327.8</ele>
        <time>2019-07-10T12:12:19Z</time>
      </trkpt>
      <trkpt lat="39.5999320" lon="-7.1822340">
        <ele>328.6</ele>
        <time>2019-07-10T12:12:25Z</time>
      </trkpt>
      <trkpt lat="39.5999710" lon="-7.1823510">
        <ele>328.6</ele>
        <time>2019-07-10T12:12:27Z</time>
      </trkpt>
      <trkpt lat="39.6000210" lon="-7.1825330">
        <ele>328.8</ele>
        <time>2019-07-10T12:12:30Z</time>
      </trkpt>
      <trkpt lat="39.6000350" lon="-7.1825980">
        <ele>328.8</ele>
        <time>2019-07-10T12:12:31Z</time>
      </trkpt>
      <trkpt lat="39.6000870" lon="-7.1829380">
        <ele>328.8</ele>
        <time>2019-07-10T12:12:36Z</time>
      </trkpt>
      <trkpt lat="39.6001070" lon="-7.1831580">
        <ele>328.6</ele>
        <time>2019-07-10T12:12:39Z</time>
      </trkpt>
      <trkpt lat="39.6001140" lon="-7.1833120">
        <ele>328.4</ele>
        <time>2019-07-10T12:12:41Z</time>
      </trkpt>
      <trkpt lat="39.6001180" lon="-7.1834690">
        <ele>328.4</ele>
        <time>2019-07-10T12:12:43Z</time>
      </trkpt>
      <trkpt lat="39.6001320" lon="-7.1837980">
        <ele>327.8</ele>
        <time>2019-07-10T12:12:47Z</time>
      </trkpt>
      <trkpt lat="39.6001380" lon="-7.1838830">
        <ele>327.6</ele>
        <time>2019-07-10T12:12:48Z</time>
      </trkpt>
      <trkpt lat="39.6001610" lon="-7.1841410">
        <ele>327.2</ele>
        <time>2019-07-10T12:12:51Z</time>
      </trkpt>
      <trkpt lat="39.6002010" lon="-7.1844050">
        <ele>326.6</ele>
        <time>2019-07-10T12:12:54Z</time>
      </trkpt>
      <trkpt lat="39.6002420" lon="-7.1845790">
        <ele>326.6</ele>
        <time>2019-07-10T12:12:56Z</time>
      </trkpt>
      <trkpt lat="39.6003980" lon="-7.1850990">
        <ele>326.2</ele>
        <time>2019-07-10T12:13:02Z</time>
      </trkpt>
      <trkpt lat="39.6004290" lon="-7.1851810">
        <ele>326.2</ele>
        <time>2019-07-10T12:13:03Z</time>
      </trkpt>
      <trkpt lat="39.6004900" lon="-7.1853450">
        <ele>326.2</ele>
        <time>2019-07-10T12:13:05Z</time>
      </trkpt>
      <trkpt lat="39.6007020" lon="-7.1859090">
        <ele>325.8</ele>
        <time>2019-07-10T12:13:12Z</time>
      </trkpt>
      <trkpt lat="39.6007350" lon="-7.1859920">
        <ele>325.6</ele>
        <time>2019-07-10T12:13:13Z</time>
      </trkpt>
      <trkpt lat="39.6008340" lon="-7.1862410">
        <ele>325.4</ele>
        <time>2019-07-10T12:13:16Z</time>
      </trkpt>
      <trkpt lat="39.6010220" lon="-7.1867310">
        <ele>324.8</ele>
        <time>2019-07-10T12:13:22Z</time>
      </trkpt>
      <trkpt lat="39.6011130" lon="-7.1869700">
        <ele>324.6</ele>
        <time>2019-07-10T12:13:25Z</time>
      </trkpt>
      <trkpt lat="39.6011980" lon="-7.1872050">
        <ele>324.4</ele>
        <time>2019-07-10T12:13:28Z</time>
      </trkpt>
      <trkpt lat="39.6012270" lon="-7.1872820">
        <ele>324.2</ele>
        <time>2019-07-10T12:13:29Z</time>
      </trkpt>
      <trkpt lat="39.6013740" lon="-7.1876790">
        <ele>323.6</ele>
        <time>2019-07-10T12:13:34Z</time>
      </trkpt>
      <trkpt lat="39.6014670" lon="-7.1879180">
        <ele>323.4</ele>
        <time>2019-07-10T12:13:37Z</time>
      </trkpt>
      <trkpt lat="39.6016510" lon="-7.1884130">
        <ele>322.4</ele>
        <time>2019-07-10T12:13:43Z</time>
      </trkpt>
      <trkpt lat="39.6017130" lon="-7.1885770">
        <ele>322.2</ele>
        <time>2019-07-10T12:13:45Z</time>
      </trkpt>
      <trkpt lat="39.6017970" lon="-7.1888210">
        <ele>322.0</ele>
        <time>2019-07-10T12:13:48Z</time>
      </trkpt>
      <trkpt lat="39.6018600" lon="-7.1890720">
        <ele>321.6</ele>
        <time>2019-07-10T12:13:51Z</time>
      </trkpt>
      <trkpt lat="39.6018760" lon="-7.1891590">
        <ele>321.6</ele>
        <time>2019-07-10T12:13:52Z</time>
      </trkpt>
      <trkpt lat="39.6019030" lon="-7.1893390">
        <ele>321.2</ele>
        <time>2019-07-10T12:13:54Z</time>
      </trkpt>
      <trkpt lat="39.6019640" lon="-7.1897830">
        <ele>321.0</ele>
        <time>2019-07-10T12:13:59Z</time>
      </trkpt>
      <trkpt lat="39.6019740" lon="-7.1898670">
        <ele>321.0</ele>
        <time>2019-07-10T12:14:00Z</time>
      </trkpt>
      <trkpt lat="39.6020110" lon="-7.1901790">
        <ele>321.2</ele>
        <time>2019-07-10T12:14:04Z</time>
      </trkpt>
      <trkpt lat="39.6020430" lon="-7.1903880">
        <ele>321.4</ele>
        <time>2019-07-10T12:14:07Z</time>
      </trkpt>
      <trkpt lat="39.6020700" lon="-7.1905120">
        <ele>321.6</ele>
        <time>2019-07-10T12:14:09Z</time>
      </trkpt>
      <trkpt lat="39.6020880" lon="-7.1905670">
        <ele>321.8</ele>
        <time>2019-07-10T12:14:10Z</time>
      </trkpt>
      <trkpt lat="39.6021220" lon="-7.1906710">
        <ele>322.4</ele>
        <time>2019-07-10T12:14:12Z</time>
      </trkpt>
      <trkpt lat="39.6021720" lon="-7.1908110">
        <ele>323.4</ele>
        <time>2019-07-10T12:14:15Z</time>
      </trkpt>
      <trkpt lat="39.6022230" lon="-7.1909470">
        <ele>324.4</ele>
        <time>2019-07-10T12:14:18Z</time>
      </trkpt>
      <trkpt lat="39.6022580" lon="-7.1910380">
        <ele>325.0</ele>
        <time>2019-07-10T12:14:20Z</time>
      </trkpt>
      <trkpt lat="39.6022930" lon="-7.1911320">
        <ele>325.6</ele>
        <time>2019-07-10T12:14:22Z</time>
      </trkpt>
      <trkpt lat="39.6023310" lon="-7.1912240">
        <ele>326.0</ele>
        <time>2019-07-10T12:14:24Z</time>
      </trkpt>
      <trkpt lat="39.6023720" lon="-7.1913100">
        <ele>326.8</ele>
        <time>2019-07-10T12:14:26Z</time>
      </trkpt>
      <trkpt lat="39.6024160" lon="-7.1913920">
        <ele>327.2</ele>
        <time>2019-07-10T12:14:28Z</time>
      </trkpt>
      <trkpt lat="39.6024620" lon="-7.1914720">
        <ele>328.0</ele>
        <time>2019-07-10T12:14:30Z</time>
      </trkpt>
      <trkpt lat="39.6025290" lon="-7.1915780">
        <ele>328.8</ele>
        <time>2019-07-10T12:14:33Z</time>
      </trkpt>
      <trkpt lat="39.6025490" lon="-7.1916030">
        <ele>329.2</ele>
        <time>2019-07-10T12:14:34Z</time>
      </trkpt>
      <trkpt lat="39.6025680" lon="-7.1916230">
        <ele>329.2</ele>
        <time>2019-07-10T12:14:35Z</time>
      </trkpt>
      <trkpt lat="39.6025890" lon="-7.1916330">
        <ele>329.6</ele>
        <time>2019-07-10T12:14:36Z</time>
      </trkpt>
      <trkpt lat="39.6026590" lon="-7.1916290">
        <ele>330.0</ele>
        <time>2019-07-10T12:14:39Z</time>
      </trkpt>
      <trkpt lat="39.6028140" lon="-7.1915660">
        <ele>330.2</ele>
        <time>2019-07-10T12:14:44Z</time>
      </trkpt>
      <trkpt lat="39.6030830" lon="-7.1914860">
        <ele>329.6</ele>
        <time>2019-07-10T12:14:50Z</time>
      </trkpt>
      <trkpt lat="39.6032540" lon="-7.1914510">
        <ele>328.8</ele>
        <time>2019-07-10T12:14:53Z</time>
      </trkpt>
      <trkpt lat="39.6033820" lon="-7.1914610">
        <ele>328.4</ele>
        <time>2019-07-10T12:14:55Z</time>
      </trkpt>
      <trkpt lat="39.6035190" lon="-7.1914810">
        <ele>327.6</ele>
        <time>2019-07-10T12:14:57Z</time>
      </trkpt>
      <trkpt lat="39.6036620" lon="-7.1915050">
        <ele>326.8</ele>
        <time>2019-07-10T12:14:59Z</time>
      </trkpt>
      <trkpt lat="39.6037320" lon="-7.1915210">
        <ele>326.6</ele>
        <time>2019-07-10T12:15:00Z</time>
      </trkpt>
      <trkpt lat="39.6039360" lon="-7.1915670">
        <ele>326.2</ele>
        <time>2019-07-10T12:15:03Z</time>
      </trkpt>
      <trkpt lat="39.6042350" lon="-7.1916460">
        <ele>326.2</ele>
        <time>2019-07-10T12:15:08Z</time>
      </trkpt>
      <trkpt lat="39.6042720" lon="-7.1916590">
        <ele>326.2</ele>
        <time>2019-07-10T12:15:09Z</time>
      </trkpt>
      <trkpt lat="39.6043150" lon="-7.1916170">
        <ele>326.2</ele>
        <time>2019-07-10T12:15:12Z</time>
      </trkpt>
      <trkpt lat="39.6042770" lon="-7.1915430">
        <ele>326.2</ele>
        <time>2019-07-10T12:15:16Z</time>
      </trkpt>
      <trkpt lat="39.6042550" lon="-7.1915340">
        <ele>326.2</ele>
        <time>2019-07-10T12:15:17Z</time>
      </trkpt>
      <trkpt lat="39.6042320" lon="-7.1915300">
        <ele>326.2</ele>
        <time>2019-07-10T12:15:18Z</time>
      </trkpt>
      <trkpt lat="39.6042150" lon="-7.1915200">
        <ele>326.4</ele>
        <time>2019-07-10T12:15:19Z</time>
      </trkpt>
      <trkpt lat="39.6042080" lon="-7.1915010">
        <ele>326.4</ele>
        <time>2019-07-10T12:15:20Z</time>
      </trkpt>
      <trkpt lat="39.6042080" lon="-7.1914870">
        <ele>326.4</ele>
        <time>2019-07-10T12:15:21Z</time>
      </trkpt>
      <trkpt lat="39.6042060" lon="-7.1914820">
        <ele>326.4</ele>
        <time>2019-07-10T12:15:23Z</time>
      </trkpt>
      <trkpt lat="39.6041660" lon="-7.1915380">
        <ele>328.0</ele>
        <time>2019-07-10T12:25:09Z</time>
      </trkpt>
      <trkpt lat="39.6041860" lon="-7.1915780">
        <ele>328.0</ele>
        <time>2019-07-10T12:25:11Z</time>
      </trkpt>
      <trkpt lat="39.6042940" lon="-7.1916570">
        <ele>327.6</ele>
        <time>2019-07-10T12:25:16Z</time>
      </trkpt>
      <trkpt lat="39.6043220" lon="-7.1916740">
        <ele>327.6</ele>
        <time>2019-07-10T12:25:17Z</time>
      </trkpt>
      <trkpt lat="39.6044190" lon="-7.1917450">
        <ele>327.6</ele>
        <time>2019-07-10T12:25:20Z</time>
      </trkpt>
      <trkpt lat="39.6044530" lon="-7.1917800">
        <ele>327.4</ele>
        <time>2019-07-10T12:25:21Z</time>
      </trkpt>
      <trkpt lat="39.6045200" lon="-7.1918650">
        <ele>327.4</ele>
        <time>2019-07-10T12:25:23Z</time>
      </trkpt>
      <trkpt lat="39.6046990" lon="-7.1921060">
        <ele>327.4</ele>
        <time>2019-07-10T12:25:28Z</time>
      </trkpt>
      <trkpt lat="39.6048010" lon="-7.1922640">
        <ele>327.4</ele>
        <time>2019-07-10T12:25:31Z</time>
      </trkpt>
      <trkpt lat="39.6048310" lon="-7.1923220">
        <ele>327.2</ele>
        <time>2019-07-10T12:25:32Z</time>
      </trkpt>
      <trkpt lat="39.6048770" lon="-7.1924470">
        <ele>327.2</ele>
        <time>2019-07-10T12:25:34Z</time>
      </trkpt>
      <trkpt lat="39.6048980" lon="-7.1926460">
        <ele>327.2</ele>
        <time>2019-07-10T12:25:37Z</time>
      </trkpt>
      <trkpt lat="39.6048950" lon="-7.1927120">
        <ele>327.2</ele>
        <time>2019-07-10T12:25:38Z</time>
      </trkpt>
      <trkpt lat="39.6048790" lon="-7.1928460">
        <ele>327.2</ele>
        <time>2019-07-10T12:25:40Z</time>
      </trkpt>
      <trkpt lat="39.6048180" lon="-7.1931760">
        <ele>327.2</ele>
        <time>2019-07-10T12:25:45Z</time>
      </trkpt>
      <trkpt lat="39.6048120" lon="-7.1932450">
        <ele>327.2</ele>
        <time>2019-07-10T12:25:46Z</time>
      </trkpt>
      <trkpt lat="39.6048270" lon="-7.1934600">
        <ele>327.2</ele>
        <time>2019-07-10T12:25:49Z</time>
      </trkpt>
      <trkpt lat="39.6049230" lon="-7.1937330">
        <ele>326.8</ele>
        <time>2019-07-10T12:25:53Z</time>
      </trkpt>
      <trkpt lat="39.6049540" lon="-7.1937990">
        <ele>326.8</ele>
        <time>2019-07-10T12:25:54Z</time>
      </trkpt>
      <trkpt lat="39.6051470" lon="-7.1941620">
        <ele>327.2</ele>
        <time>2019-07-10T12:26:00Z</time>
      </trkpt>
      <trkpt lat="39.6051750" lon="-7.1942140">
        <ele>327.4</ele>
        <time>2019-07-10T12:26:01Z</time>
      </trkpt>
      <trkpt lat="39.6053020" lon="-7.1944490">
        <ele>328.4</ele>
        <time>2019-07-10T12:26:06Z</time>
      </trkpt>
      <trkpt lat="39.6053440" lon="-7.1945370">
        <ele>329.2</ele>
        <time>2019-07-10T12:26:08Z</time>
      </trkpt>
      <trkpt lat="39.6053650" lon="-7.1945800">
        <ele>329.6</ele>
        <time>2019-07-10T12:26:09Z</time>
      </trkpt>
      <trkpt lat="39.6054260" lon="-7.1947030">
        <ele>330.4</ele>
        <time>2019-07-10T12:26:12Z</time>
      </trkpt>
      <trkpt lat="39.6054480" lon="-7.1947410">
        <ele>330.8</ele>
        <time>2019-07-10T12:26:13Z</time>
      </trkpt>
      <trkpt lat="39.6055100" lon="-7.1948540">
        <ele>331.6</ele>
        <time>2019-07-10T12:26:16Z</time>
      </trkpt>
      <trkpt lat="39.6055300" lon="-7.1948910">
        <ele>331.8</ele>
        <time>2019-07-10T12:26:17Z</time>
      </trkpt>
      <trkpt lat="39.6055910" lon="-7.1950000">
        <ele>332.4</ele>
        <time>2019-07-10T12:26:20Z</time>
      </trkpt>
      <trkpt lat="39.6056280" lon="-7.1950710">
        <ele>333.0</ele>
        <time>2019-07-10T12:26:22Z</time>
      </trkpt>
      <trkpt lat="39.6056960" lon="-7.1952070">
        <ele>334.2</ele>
        <time>2019-07-10T12:26:26Z</time>
      </trkpt>
      <trkpt lat="39.6057660" lon="-7.1953270">
        <ele>335.2</ele>
        <time>2019-07-10T12:26:30Z</time>
      </trkpt>
      <trkpt lat="39.6058010" lon="-7.1953800">
        <ele>335.8</ele>
        <time>2019-07-10T12:26:32Z</time>
      </trkpt>
      <trkpt lat="39.6058460" lon="-7.1955130">
        <ele>336.8</ele>
        <time>2019-07-10T12:26:36Z</time>
      </trkpt>
      <trkpt lat="39.6058540" lon="-7.1955500">
        <ele>337.0</ele>
        <time>2019-07-10T12:26:37Z</time>
      </trkpt>
      <trkpt lat="39.6058740" lon="-7.1957740">
        <ele>337.6</ele>
        <time>2019-07-10T12:26:42Z</time>
      </trkpt>
      <trkpt lat="39.6058790" lon="-7.1958710">
        <ele>337.8</ele>
        <time>2019-07-10T12:26:44Z</time>
      </trkpt>
      <trkpt lat="39.6058300" lon="-7.1961970">
        <ele>338.0</ele>
        <time>2019-07-10T12:26:50Z</time>
      </trkpt>
      <trkpt lat="39.6057490" lon="-7.1965980">
        <ele>338.2</ele>
        <time>2019-07-10T12:26:57Z</time>
      </trkpt>
      <trkpt lat="39.6057120" lon="-7.1967610">
        <ele>338.4</ele>
        <time>2019-07-10T12:27:00Z</time>
      </trkpt>
      <trkpt lat="39.6056790" lon="-7.1969170">
        <ele>339.0</ele>
        <time>2019-07-10T12:27:03Z</time>
      </trkpt>
      <trkpt lat="39.6056370" lon="-7.1971080">
        <ele>339.6</ele>
        <time>2019-07-10T12:27:07Z</time>
      </trkpt>
      <trkpt lat="39.6056180" lon="-7.1972030">
        <ele>340.0</ele>
        <time>2019-07-10T12:27:09Z</time>
      </trkpt>
      <trkpt lat="39.6055430" lon="-7.1974820">
        <ele>341.2</ele>
        <time>2019-07-10T12:27:15Z</time>
      </trkpt>
      <trkpt lat="39.6055060" lon="-7.1976180">
        <ele>341.6</ele>
        <time>2019-07-10T12:27:18Z</time>
      </trkpt>
      <trkpt lat="39.6054730" lon="-7.1977560">
        <ele>342.2</ele>
        <time>2019-07-10T12:27:21Z</time>
      </trkpt>
      <trkpt lat="39.6053970" lon="-7.1980230">
        <ele>343.4</ele>
        <time>2019-07-10T12:27:27Z</time>
      </trkpt>
      <trkpt lat="39.6053860" lon="-7.1980680">
        <ele>343.8</ele>
        <time>2019-07-10T12:27:28Z</time>
      </trkpt>
      <trkpt lat="39.6053670" lon="-7.1982490">
        <ele>344.4</ele>
        <time>2019-07-10T12:27:32Z</time>
      </trkpt>
      <trkpt lat="39.6053830" lon="-7.1982930">
        <ele>344.4</ele>
        <time>2019-07-10T12:27:33Z</time>
      </trkpt>
      <trkpt lat="39.6054770" lon="-7.1983920">
        <ele>344.6</ele>
        <time>2019-07-10T12:27:36Z</time>
      </trkpt>
      <trkpt lat="39.6055150" lon="-7.1984190">
        <ele>344.6</ele>
        <time>2019-07-10T12:27:37Z</time>
      </trkpt>
      <trkpt lat="39.6057580" lon="-7.1985010">
        <ele>345.2</ele>
        <time>2019-07-10T12:27:43Z</time>
      </trkpt>
      <trkpt lat="39.6058380" lon="-7.1985130">
        <ele>345.6</ele>
        <time>2019-07-10T12:27:45Z</time>
      </trkpt>
      <trkpt lat="39.6060910" lon="-7.1985760">
        <ele>346.2</ele>
        <time>2019-07-10T12:27:51Z</time>
      </trkpt>
      <trkpt lat="39.6062140" lon="-7.1986390">
        <ele>346.4</ele>
        <time>2019-07-10T12:27:54Z</time>
      </trkpt>
      <trkpt lat="39.6062950" lon="-7.1987010">
        <ele>346.4</ele>
        <time>2019-07-10T12:27:56Z</time>
      </trkpt>
      <trkpt lat="39.6063360" lon="-7.1987370">
        <ele>346.4</ele>
        <time>2019-07-10T12:27:57Z</time>
      </trkpt>
      <trkpt lat="39.6064580" lon="-7.1988670">
        <ele>346.2</ele>
        <time>2019-07-10T12:28:00Z</time>
      </trkpt>
      <trkpt lat="39.6065770" lon="-7.1990280">
        <ele>345.6</ele>
        <time>2019-07-10T12:28:03Z</time>
      </trkpt>
      <trkpt lat="39.6066630" lon="-7.1991510">
        <ele>345.4</ele>
        <time>2019-07-10T12:28:05Z</time>
      </trkpt>
      <trkpt lat="39.6067590" lon="-7.1992800">
        <ele>345.2</ele>
        <time>2019-07-10T12:28:07Z</time>
      </trkpt>
      <trkpt lat="39.6068150" lon="-7.1993410">
        <ele>344.8</ele>
        <time>2019-07-10T12:28:08Z</time>
      </trkpt>
      <trkpt lat="39.6068770" lon="-7.1993980">
        <ele>344.6</ele>
        <time>2019-07-10T12:28:09Z</time>
      </trkpt>
      <trkpt lat="39.6070680" lon="-7.1995230">
        <ele>343.8</ele>
        <time>2019-07-10T12:28:12Z</time>
      </trkpt>
      <trkpt lat="39.6073470" lon="-7.1996460">
        <ele>344.4</ele>
        <time>2019-07-10T12:28:17Z</time>
      </trkpt>
      <trkpt lat="39.6073950" lon="-7.1996760">
        <ele>344.6</ele>
        <time>2019-07-10T12:28:18Z</time>
      </trkpt>
      <trkpt lat="39.6077350" lon="-7.1999390">
        <ele>345.2</ele>
        <time>2019-07-10T12:28:25Z</time>
      </trkpt>
      <trkpt lat="39.6078430" lon="-7.2000370">
        <ele>344.8</ele>
        <time>2019-07-10T12:28:27Z</time>
      </trkpt>
      <trkpt lat="39.6080820" lon="-7.2002410">
        <ele>344.2</ele>
        <time>2019-07-10T12:28:31Z</time>
      </trkpt>
      <trkpt lat="39.6082690" lon="-7.2003910">
        <ele>344.0</ele>
        <time>2019-07-10T12:28:34Z</time>
      </trkpt>
      <trkpt lat="39.6084540" lon="-7.2005080">
        <ele>344.2</ele>
        <time>2019-07-10T12:28:37Z</time>
      </trkpt>
      <trkpt lat="39.6085170" lon="-7.2005310">
        <ele>344.4</ele>
        <time>2019-07-10T12:28:38Z</time>
      </trkpt>
      <trkpt lat="39.6086360" lon="-7.2005590">
        <ele>344.6</ele>
        <time>2019-07-10T12:28:40Z</time>
      </trkpt>
      <trkpt lat="39.6088660" lon="-7.2005860">
        <ele>345.2</ele>
        <time>2019-07-10T12:28:44Z</time>
      </trkpt>
      <trkpt lat="39.6091610" lon="-7.2006150">
        <ele>345.4</ele>
        <time>2019-07-10T12:28:49Z</time>
      </trkpt>
      <trkpt lat="39.6092810" lon="-7.2006490">
        <ele>345.2</ele>
        <time>2019-07-10T12:28:51Z</time>
      </trkpt>
      <trkpt lat="39.6094020" lon="-7.2007090">
        <ele>345.2</ele>
        <time>2019-07-10T12:28:53Z</time>
      </trkpt>
      <trkpt lat="39.6095240" lon="-7.2008020">
        <ele>345.0</ele>
        <time>2019-07-10T12:28:55Z</time>
      </trkpt>
      <trkpt lat="39.6100210" lon="-7.2012290">
        <ele>343.8</ele>
        <time>2019-07-10T12:29:03Z</time>
      </trkpt>
      <trkpt lat="39.6101980" lon="-7.2013740">
        <ele>343.6</ele>
        <time>2019-07-10T12:29:07Z</time>
      </trkpt>
      <trkpt lat="39.6102040" lon="-7.2013820">
        <ele>343.6</ele>
        <time>2019-07-10T12:29:08Z</time>
      </trkpt>
      <trkpt lat="39.6102040" lon="-7.2013800">
        <ele>343.4</ele>
        <time>2019-07-10T12:29:09Z</time>
      </trkpt>
      <trkpt lat="39.6102230" lon="-7.2013970">
        <ele>343.2</ele>
        <time>2019-07-10T12:30:04Z</time>
      </trkpt>
      <trkpt lat="39.6102590" lon="-7.2014270">
        <ele>343.0</ele>
        <time>2019-07-10T12:30:06Z</time>
      </trkpt>
      <trkpt lat="39.6102810" lon="-7.2014440">
        <ele>343.0</ele>
        <time>2019-07-10T12:30:07Z</time>
      </trkpt>
      <trkpt lat="39.6103690" lon="-7.2015010">
        <ele>343.0</ele>
        <time>2019-07-10T12:30:10Z</time>
      </trkpt>
      <trkpt lat="39.6104450" lon="-7.2015390">
        <ele>343.0</ele>
        <time>2019-07-10T12:30:12Z</time>
      </trkpt>
      <trkpt lat="39.6106030" lon="-7.2015780">
        <ele>342.6</ele>
        <time>2019-07-10T12:30:15Z</time>
      </trkpt>
      <trkpt lat="39.6106670" lon="-7.2015900">
        <ele>342.4</ele>
        <time>2019-07-10T12:30:16Z</time>
      </trkpt>
      <trkpt lat="39.6110190" lon="-7.2016580">
        <ele>341.4</ele>
        <time>2019-07-10T12:30:21Z</time>
      </trkpt>
      <trkpt lat="39.6113850" lon="-7.2017350">
        <ele>342.4</ele>
        <time>2019-07-10T12:30:27Z</time>
      </trkpt>
      <trkpt lat="39.6115320" lon="-7.2017710">
        <ele>343.2</ele>
        <time>2019-07-10T12:30:30Z</time>
      </trkpt>
      <trkpt lat="39.6115790" lon="-7.2017890">
        <ele>343.6</ele>
        <time>2019-07-10T12:30:31Z</time>
      </trkpt>
      <trkpt lat="39.6116230" lon="-7.2018120">
        <ele>343.8</ele>
        <time>2019-07-10T12:30:32Z</time>
      </trkpt>
      <trkpt lat="39.6116680" lon="-7.2018400">
        <ele>344.0</ele>
        <time>2019-07-10T12:30:33Z</time>
      </trkpt>
      <trkpt lat="39.6119020" lon="-7.2020080">
        <ele>344.8</ele>
        <time>2019-07-10T12:30:38Z</time>
      </trkpt>
      <trkpt lat="39.6120010" lon="-7.2021040">
        <ele>344.6</ele>
        <time>2019-07-10T12:30:40Z</time>
      </trkpt>
      <trkpt lat="39.6122770" lon="-7.2024170">
        <ele>343.8</ele>
        <time>2019-07-10T12:30:45Z</time>
      </trkpt>
      <trkpt lat="39.6123380" lon="-7.2024910">
        <ele>343.2</ele>
        <time>2019-07-10T12:30:46Z</time>
      </trkpt>
      <trkpt lat="39.6124630" lon="-7.2026350">
        <ele>342.2</ele>
        <time>2019-07-10T12:30:48Z</time>
      </trkpt>
      <trkpt lat="39.6127670" lon="-7.2029920">
        <ele>341.0</ele>
        <time>2019-07-10T12:30:53Z</time>
      </trkpt>
      <trkpt lat="39.6130170" lon="-7.2032990">
        <ele>341.6</ele>
        <time>2019-07-10T12:30:58Z</time>
      </trkpt>
      <trkpt lat="39.6130870" lon="-7.2034040">
        <ele>342.2</ele>
        <time>2019-07-10T12:31:00Z</time>
      </trkpt>
      <trkpt lat="39.6131740" lon="-7.2035530">
        <ele>343.2</ele>
        <time>2019-07-10T12:31:03Z</time>
      </trkpt>
      <trkpt lat="39.6132010" lon="-7.2036030">
        <ele>343.4</ele>
        <time>2019-07-10T12:31:04Z</time>
      </trkpt>
      <trkpt lat="39.6133250" lon="-7.2038600">
        <ele>344.4</ele>
        <time>2019-07-10T12:31:09Z</time>
      </trkpt>
      <trkpt lat="39.6133690" lon="-7.2039630">
        <ele>344.6</ele>
        <time>2019-07-10T12:31:11Z</time>
      </trkpt>
      <trkpt lat="39.6134320" lon="-7.2041100">
        <ele>345.4</ele>
        <time>2019-07-10T12:31:14Z</time>
      </trkpt>
      <trkpt lat="39.6135190" lon="-7.2043030">
        <ele>346.4</ele>
        <time>2019-07-10T12:31:18Z</time>
      </trkpt>
      <trkpt lat="39.6135380" lon="-7.2043500">
        <ele>346.6</ele>
        <time>2019-07-10T12:31:19Z</time>
      </trkpt>
      <trkpt lat="39.6136580" lon="-7.2046290">
        <ele>347.8</ele>
        <time>2019-07-10T12:31:25Z</time>
      </trkpt>
      <trkpt lat="39.6136780" lon="-7.2046750">
        <ele>348.0</ele>
        <time>2019-07-10T12:31:26Z</time>
      </trkpt>
      <trkpt lat="39.6138080" lon="-7.2049030">
        <ele>348.4</ele>
        <time>2019-07-10T12:31:31Z</time>
      </trkpt>
      <trkpt lat="39.6139430" lon="-7.2051120">
        <ele>348.4</ele>
        <time>2019-07-10T12:31:35Z</time>
      </trkpt>
      <trkpt lat="39.6140140" lon="-7.2052280">
        <ele>348.2</ele>
        <time>2019-07-10T12:31:37Z</time>
      </trkpt>
      <trkpt lat="39.6142550" lon="-7.2055960">
        <ele>347.6</ele>
        <time>2019-07-10T12:31:43Z</time>
      </trkpt>
      <trkpt lat="39.6143400" lon="-7.2057230">
        <ele>347.4</ele>
        <time>2019-07-10T12:31:45Z</time>
      </trkpt>
      <trkpt lat="39.6144260" lon="-7.2058540">
        <ele>347.2</ele>
        <time>2019-07-10T12:31:47Z</time>
      </trkpt>
      <trkpt lat="39.6145500" lon="-7.2060520">
        <ele>347.2</ele>
        <time>2019-07-10T12:31:50Z</time>
      </trkpt>
      <trkpt lat="39.6146690" lon="-7.2062520">
        <ele>347.2</ele>
        <time>2019-07-10T12:31:53Z</time>
      </trkpt>
      <trkpt lat="39.6147060" lon="-7.2063190">
        <ele>347.2</ele>
        <time>2019-07-10T12:31:54Z</time>
      </trkpt>
      <trkpt lat="39.6148300" lon="-7.2066100">
        <ele>347.0</ele>
        <time>2019-07-10T12:31:58Z</time>
      </trkpt>
      <trkpt lat="39.6148910" lon="-7.2067660">
        <ele>346.8</ele>
        <time>2019-07-10T12:32:00Z</time>
      </trkpt>
      <trkpt lat="39.6151470" lon="-7.2074440">
        <ele>345.8</ele>
        <time>2019-07-10T12:32:08Z</time>
      </trkpt>
      <trkpt lat="39.6152900" lon="-7.2078030">
        <ele>346.2</ele>
        <time>2019-07-10T12:32:13Z</time>
      </trkpt>
      <trkpt lat="39.6153120" lon="-7.2078660">
        <ele>346.4</ele>
        <time>2019-07-10T12:32:14Z</time>
      </trkpt>
      <trkpt lat="39.6153750" lon="-7.2080450">
        <ele>347.0</ele>
        <time>2019-07-10T12:32:17Z</time>
      </trkpt>
      <trkpt lat="39.6154190" lon="-7.2082280">
        <ele>347.8</ele>
        <time>2019-07-10T12:32:20Z</time>
      </trkpt>
      <trkpt lat="39.6154300" lon="-7.2082910">
        <ele>348.0</ele>
        <time>2019-07-10T12:32:21Z</time>
      </trkpt>
      <trkpt lat="39.6154580" lon="-7.2085460">
        <ele>348.4</ele>
        <time>2019-07-10T12:32:25Z</time>
      </trkpt>
      <trkpt lat="39.6154590" lon="-7.2087390">
        <ele>348.8</ele>
        <time>2019-07-10T12:32:28Z</time>
      </trkpt>
      <trkpt lat="39.6154630" lon="-7.2092490">
        <ele>349.0</ele>
        <time>2019-07-10T12:32:35Z</time>
      </trkpt>
      <trkpt lat="39.6154710" lon="-7.2097090">
        <ele>348.0</ele>
        <time>2019-07-10T12:32:40Z</time>
      </trkpt>
      <trkpt lat="39.6154730" lon="-7.2098040">
        <ele>347.8</ele>
        <time>2019-07-10T12:32:41Z</time>
      </trkpt>
      <trkpt lat="39.6154760" lon="-7.2098950">
        <ele>347.8</ele>
        <time>2019-07-10T12:32:42Z</time>
      </trkpt>
      <trkpt lat="39.6154820" lon="-7.2104750">
        <ele>347.6</ele>
        <time>2019-07-10T12:32:49Z</time>
      </trkpt>
      <trkpt lat="39.6154840" lon="-7.2105500">
        <ele>347.6</ele>
        <time>2019-07-10T12:32:50Z</time>
      </trkpt>
      <trkpt lat="39.6154870" lon="-7.2108440">
        <ele>348.2</ele>
        <time>2019-07-10T12:32:54Z</time>
      </trkpt>
      <trkpt lat="39.6154890" lon="-7.2110590">
        <ele>349.0</ele>
        <time>2019-07-10T12:32:57Z</time>
      </trkpt>
      <trkpt lat="39.6154810" lon="-7.2113360">
        <ele>349.8</ele>
        <time>2019-07-10T12:33:01Z</time>
      </trkpt>
      <trkpt lat="39.6154710" lon="-7.2114060">
        <ele>350.0</ele>
        <time>2019-07-10T12:33:02Z</time>
      </trkpt>
      <trkpt lat="39.6154560" lon="-7.2114760">
        <ele>350.2</ele>
        <time>2019-07-10T12:33:03Z</time>
      </trkpt>
      <trkpt lat="39.6154210" lon="-7.2116190">
        <ele>350.2</ele>
        <time>2019-07-10T12:33:05Z</time>
      </trkpt>
      <trkpt lat="39.6153430" lon="-7.2118320">
        <ele>350.0</ele>
        <time>2019-07-10T12:33:08Z</time>
      </trkpt>
      <trkpt lat="39.6151010" lon="-7.2124850">
        <ele>349.8</ele>
        <time>2019-07-10T12:33:17Z</time>
      </trkpt>
      <trkpt lat="39.6148980" lon="-7.2130170">
        <ele>351.0</ele>
        <time>2019-07-10T12:33:25Z</time>
      </trkpt>
      <trkpt lat="39.6148520" lon="-7.2131390">
        <ele>351.4</ele>
        <time>2019-07-10T12:33:27Z</time>
      </trkpt>
      <trkpt lat="39.6147840" lon="-7.2133140">
        <ele>352.0</ele>
        <time>2019-07-10T12:33:30Z</time>
      </trkpt>
      <trkpt lat="39.6147620" lon="-7.2133700">
        <ele>352.2</ele>
        <time>2019-07-10T12:33:31Z</time>
      </trkpt>
      <trkpt lat="39.6146800" lon="-7.2135810">
        <ele>353.4</ele>
        <time>2019-07-10T12:33:35Z</time>
      </trkpt>
      <trkpt lat="39.6146610" lon="-7.2136330">
        <ele>353.8</ele>
        <time>2019-07-10T12:33:36Z</time>
      </trkpt>
      <trkpt lat="39.6146430" lon="-7.2136870">
        <ele>354.0</ele>
        <time>2019-07-10T12:33:37Z</time>
      </trkpt>
      <trkpt lat="39.6145120" lon="-7.2140730">
        <ele>354.8</ele>
        <time>2019-07-10T12:33:44Z</time>
      </trkpt>
      <trkpt lat="39.6144820" lon="-7.2141950">
        <ele>355.0</ele>
        <time>2019-07-10T12:33:46Z</time>
      </trkpt>
      <trkpt lat="39.6144670" lon="-7.2144690">
        <ele>355.0</ele>
        <time>2019-07-10T12:33:50Z</time>
      </trkpt>
      <trkpt lat="39.6144900" lon="-7.2147090">
        <ele>354.6</ele>
        <time>2019-07-10T12:33:53Z</time>
      </trkpt>
      <trkpt lat="39.6145390" lon="-7.2148790">
        <ele>354.0</ele>
        <time>2019-07-10T12:33:55Z</time>
      </trkpt>
      <trkpt lat="39.6145740" lon="-7.2149650">
        <ele>353.8</ele>
        <time>2019-07-10T12:33:56Z</time>
      </trkpt>
      <trkpt lat="39.6146560" lon="-7.2151360">
        <ele>353.0</ele>
        <time>2019-07-10T12:33:58Z</time>
      </trkpt>
      <trkpt lat="39.6146990" lon="-7.2152230">
        <ele>352.4</ele>
        <time>2019-07-10T12:33:59Z</time>
      </trkpt>
      <trkpt lat="39.6147400" lon="-7.2153120">
        <ele>352.2</ele>
        <time>2019-07-10T12:34:00Z</time>
      </trkpt>
      <trkpt lat="39.6148110" lon="-7.2154950">
        <ele>351.6</ele>
        <time>2019-07-10T12:34:02Z</time>
      </trkpt>
      <trkpt lat="39.6148350" lon="-7.2155850">
        <ele>351.4</ele>
        <time>2019-07-10T12:34:03Z</time>
      </trkpt>
      <trkpt lat="39.6148530" lon="-7.2156710">
        <ele>351.4</ele>
        <time>2019-07-10T12:34:04Z</time>
      </trkpt>
      <trkpt lat="39.6148860" lon="-7.2158350">
        <ele>351.6</ele>
        <time>2019-07-10T12:34:06Z</time>
      </trkpt>
      <trkpt lat="39.6149850" lon="-7.2162860">
        <ele>352.4</ele>
        <time>2019-07-10T12:34:12Z</time>
      </trkpt>
      <trkpt lat="39.6150160" lon="-7.2164330">
        <ele>352.6</ele>
        <time>2019-07-10T12:34:14Z</time>
      </trkpt>
      <trkpt lat="39.6150950" lon="-7.2168610">
        <ele>353.0</ele>
        <time>2019-07-10T12:34:19Z</time>
      </trkpt>
      <trkpt lat="39.6151750" lon="-7.2172780">
        <ele>351.8</ele>
        <time>2019-07-10T12:34:23Z</time>
      </trkpt>
      <trkpt lat="39.6151960" lon="-7.2173870">
        <ele>351.6</ele>
        <time>2019-07-10T12:34:24Z</time>
      </trkpt>
      <trkpt lat="39.6152190" lon="-7.2174950">
        <ele>350.8</ele>
        <time>2019-07-10T12:34:25Z</time>
      </trkpt>
      <trkpt lat="39.6152430" lon="-7.2176030">
        <ele>350.4</ele>
        <time>2019-07-10T12:34:26Z</time>
      </trkpt>
      <trkpt lat="39.6153350" lon="-7.2180260">
        <ele>349.4</ele>
        <time>2019-07-10T12:34:30Z</time>
      </trkpt>
      <trkpt lat="39.6153890" lon="-7.2182340">
        <ele>349.0</ele>
        <time>2019-07-10T12:34:32Z</time>
      </trkpt>
      <trkpt lat="39.6154190" lon="-7.2183390">
        <ele>348.8</ele>
        <time>2019-07-10T12:34:33Z</time>
      </trkpt>
      <trkpt lat="39.6155130" lon="-7.2186700">
        <ele>347.8</ele>
        <time>2019-07-10T12:34:36Z</time>
      </trkpt>
      <trkpt lat="39.6155820" lon="-7.2189110">
        <ele>346.6</ele>
        <time>2019-07-10T12:34:38Z</time>
      </trkpt>
      <trkpt lat="39.6156210" lon="-7.2190360">
        <ele>346.2</ele>
        <time>2019-07-10T12:34:39Z</time>
      </trkpt>
      <trkpt lat="39.6156600" lon="-7.2191660">
        <ele>345.6</ele>
        <time>2019-07-10T12:34:40Z</time>
      </trkpt>
      <trkpt lat="39.6157390" lon="-7.2194390">
        <ele>344.4</ele>
        <time>2019-07-10T12:34:42Z</time>
      </trkpt>
      <trkpt lat="39.6158230" lon="-7.2197230">
        <ele>343.0</ele>
        <time>2019-07-10T12:34:44Z</time>
      </trkpt>
      <trkpt lat="39.6158640" lon="-7.2198670">
        <ele>342.6</ele>
        <time>2019-07-10T12:34:45Z</time>
      </trkpt>
      <trkpt lat="39.6159070" lon="-7.2200100">
        <ele>342.0</ele>
        <time>2019-07-10T12:34:46Z</time>
      </trkpt>
      <trkpt lat="39.6160010" lon="-7.2202890">
        <ele>341.0</ele>
        <time>2019-07-10T12:34:48Z</time>
      </trkpt>
      <trkpt lat="39.6161130" lon="-7.2205560">
        <ele>340.2</ele>
        <time>2019-07-10T12:34:50Z</time>
      </trkpt>
      <trkpt lat="39.6162390" lon="-7.2207990">
        <ele>339.6</ele>
        <time>2019-07-10T12:34:52Z</time>
      </trkpt>
      <trkpt lat="39.6163640" lon="-7.2210320">
        <ele>338.8</ele>
        <time>2019-07-10T12:34:54Z</time>
      </trkpt>
      <trkpt lat="39.6164210" lon="-7.2211470">
        <ele>338.6</ele>
        <time>2019-07-10T12:34:55Z</time>
      </trkpt>
      <trkpt lat="39.6165120" lon="-7.2213810">
        <ele>338.2</ele>
        <time>2019-07-10T12:34:57Z</time>
      </trkpt>
      <trkpt lat="39.6165600" lon="-7.2216230">
        <ele>337.8</ele>
        <time>2019-07-10T12:34:59Z</time>
      </trkpt>
      <trkpt lat="39.6166060" lon="-7.2222450">
        <ele>336.4</ele>
        <time>2019-07-10T12:35:04Z</time>
      </trkpt>
      <trkpt lat="39.6166020" lon="-7.2223660">
        <ele>336.0</ele>
        <time>2019-07-10T12:35:05Z</time>
      </trkpt>
      <trkpt lat="39.6165900" lon="-7.2224840">
        <ele>335.8</ele>
        <time>2019-07-10T12:35:06Z</time>
      </trkpt>
      <trkpt lat="39.6165380" lon="-7.2227030">
        <ele>335.4</ele>
        <time>2019-07-10T12:35:08Z</time>
      </trkpt>
      <trkpt lat="39.6165030" lon="-7.2228020">
        <ele>335.2</ele>
        <time>2019-07-10T12:35:09Z</time>
      </trkpt>
      <trkpt lat="39.6164220" lon="-7.2229790">
        <ele>335.2</ele>
        <time>2019-07-10T12:35:11Z</time>
      </trkpt>
      <trkpt lat="39.6163340" lon="-7.2231350">
        <ele>335.2</ele>
        <time>2019-07-10T12:35:13Z</time>
      </trkpt>
      <trkpt lat="39.6162900" lon="-7.2232070">
        <ele>335.2</ele>
        <time>2019-07-10T12:35:14Z</time>
      </trkpt>
      <trkpt lat="39.6162480" lon="-7.2232760">
        <ele>335.4</ele>
        <time>2019-07-10T12:35:15Z</time>
      </trkpt>
      <trkpt lat="39.6161310" lon="-7.2234700">
        <ele>335.8</ele>
        <time>2019-07-10T12:35:18Z</time>
      </trkpt>
      <trkpt lat="39.6160550" lon="-7.2235850">
        <ele>336.0</ele>
        <time>2019-07-10T12:35:20Z</time>
      </trkpt>
      <trkpt lat="39.6159840" lon="-7.2236950">
        <ele>336.4</ele>
        <time>2019-07-10T12:35:22Z</time>
      </trkpt>
      <trkpt lat="39.6159160" lon="-7.2237990">
        <ele>336.6</ele>
        <time>2019-07-10T12:35:24Z</time>
      </trkpt>
      <trkpt lat="39.6158240" lon="-7.2239560">
        <ele>337.2</ele>
        <time>2019-07-10T12:35:27Z</time>
      </trkpt>
      <trkpt lat="39.6157650" lon="-7.2240610">
        <ele>337.8</ele>
        <time>2019-07-10T12:35:29Z</time>
      </trkpt>
      <trkpt lat="39.6156530" lon="-7.2242790">
        <ele>338.2</ele>
        <time>2019-07-10T12:35:33Z</time>
      </trkpt>
      <trkpt lat="39.6156320" lon="-7.2243380">
        <ele>338.2</ele>
        <time>2019-07-10T12:35:34Z</time>
      </trkpt>
      <trkpt lat="39.6156140" lon="-7.2243980">
        <ele>338.4</ele>
        <time>2019-07-10T12:35:35Z</time>
      </trkpt>
      <trkpt lat="39.6155740" lon="-7.2245610">
        <ele>338.8</ele>
        <time>2019-07-10T12:35:38Z</time>
      </trkpt>
      <trkpt lat="39.6155590" lon="-7.2247100">
        <ele>339.4</ele>
        <time>2019-07-10T12:35:41Z</time>
      </trkpt>
      <trkpt lat="39.6155480" lon="-7.2248040">
        <ele>340.0</ele>
        <time>2019-07-10T12:35:43Z</time>
      </trkpt>
      <trkpt lat="39.6155310" lon="-7.2249880">
        <ele>341.0</ele>
        <time>2019-07-10T12:35:47Z</time>
      </trkpt>
      <trkpt lat="39.6155180" lon="-7.2250720">
        <ele>341.4</ele>
        <time>2019-07-10T12:35:49Z</time>
      </trkpt>
      <trkpt lat="39.6155130" lon="-7.2251570">
        <ele>341.8</ele>
        <time>2019-07-10T12:35:51Z</time>
      </trkpt>
      <trkpt lat="39.6155130" lon="-7.2252010">
        <ele>342.0</ele>
        <time>2019-07-10T12:35:52Z</time>
      </trkpt>
      <trkpt lat="39.6155110" lon="-7.2253360">
        <ele>342.6</ele>
        <time>2019-07-10T12:35:55Z</time>
      </trkpt>
      <trkpt lat="39.6155250" lon="-7.2255440">
        <ele>343.0</ele>
        <time>2019-07-10T12:35:59Z</time>
      </trkpt>
      <trkpt lat="39.6155630" lon="-7.2259280">
        <ele>342.8</ele>
        <time>2019-07-10T12:36:05Z</time>
      </trkpt>
      <trkpt lat="39.6155970" lon="-7.2264200">
        <ele>343.0</ele>
        <time>2019-07-10T12:36:12Z</time>
      </trkpt>
      <trkpt lat="39.6155990" lon="-7.2264790">
        <ele>343.2</ele>
        <time>2019-07-10T12:36:13Z</time>
      </trkpt>
      <trkpt lat="39.6156080" lon="-7.2267600">
        <ele>344.4</ele>
        <time>2019-07-10T12:36:19Z</time>
      </trkpt>
      <trkpt lat="39.6156060" lon="-7.2269480">
        <ele>345.4</ele>
        <time>2019-07-10T12:36:23Z</time>
      </trkpt>
      <trkpt lat="39.6156180" lon="-7.2271310">
        <ele>346.6</ele>
        <time>2019-07-10T12:36:27Z</time>
      </trkpt>
      <trkpt lat="39.6156220" lon="-7.2272230">
        <ele>347.0</ele>
        <time>2019-07-10T12:36:29Z</time>
      </trkpt>
      <trkpt lat="39.6156320" lon="-7.2273630">
        <ele>347.6</ele>
        <time>2019-07-10T12:36:32Z</time>
      </trkpt>
      <trkpt lat="39.6156410" lon="-7.2274090">
        <ele>347.6</ele>
        <time>2019-07-10T12:36:33Z</time>
      </trkpt>
      <trkpt lat="39.6156770" lon="-7.2275410">
        <ele>348.8</ele>
        <time>2019-07-10T12:36:36Z</time>
      </trkpt>
      <trkpt lat="39.6156900" lon="-7.2275850">
        <ele>348.8</ele>
        <time>2019-07-10T12:36:37Z</time>
      </trkpt>
      <trkpt lat="39.6157830" lon="-7.2278460">
        <ele>349.4</ele>
        <time>2019-07-10T12:36:42Z</time>
      </trkpt>
      <trkpt lat="39.6159380" lon="-7.2282800">
        <ele>349.2</ele>
        <time>2019-07-10T12:36:49Z</time>
      </trkpt>
      <trkpt lat="39.6159780" lon="-7.2284220">
        <ele>349.2</ele>
        <time>2019-07-10T12:36:51Z</time>
      </trkpt>
      <trkpt lat="39.6160040" lon="-7.2285710">
        <ele>349.0</ele>
        <time>2019-07-10T12:36:53Z</time>
      </trkpt>
      <trkpt lat="39.6160140" lon="-7.2286460">
        <ele>349.0</ele>
        <time>2019-07-10T12:36:54Z</time>
      </trkpt>
      <trkpt lat="39.6160200" lon="-7.2287220">
        <ele>349.0</ele>
        <time>2019-07-10T12:36:55Z</time>
      </trkpt>
      <trkpt lat="39.6160070" lon="-7.2289570">
        <ele>349.2</ele>
        <time>2019-07-10T12:36:58Z</time>
      </trkpt>
      <trkpt lat="39.6159960" lon="-7.2290370">
        <ele>349.2</ele>
        <time>2019-07-10T12:36:59Z</time>
      </trkpt>
      <trkpt lat="39.6159510" lon="-7.2292760">
        <ele>349.0</ele>
        <time>2019-07-10T12:37:02Z</time>
      </trkpt>
      <trkpt lat="39.6159110" lon="-7.2294420">
        <ele>349.0</ele>
        <time>2019-07-10T12:37:04Z</time>
      </trkpt>
      <trkpt lat="39.6158730" lon="-7.2296250">
        <ele>348.0</ele>
        <time>2019-07-10T12:37:06Z</time>
      </trkpt>
      <trkpt lat="39.6158540" lon="-7.2297210">
        <ele>347.6</ele>
        <time>2019-07-10T12:37:07Z</time>
      </trkpt>
      <trkpt lat="39.6158070" lon="-7.2299220">
        <ele>346.8</ele>
        <time>2019-07-10T12:37:09Z</time>
      </trkpt>
      <trkpt lat="39.6157810" lon="-7.2300290">
        <ele>346.2</ele>
        <time>2019-07-10T12:37:10Z</time>
      </trkpt>
      <trkpt lat="39.6157540" lon="-7.2301390">
        <ele>345.8</ele>
        <time>2019-07-10T12:37:11Z</time>
      </trkpt>
      <trkpt lat="39.6157040" lon="-7.2303710">
        <ele>344.6</ele>
        <time>2019-07-10T12:37:13Z</time>
      </trkpt>
      <trkpt lat="39.6156500" lon="-7.2306170">
        <ele>344.0</ele>
        <time>2019-07-10T12:37:15Z</time>
      </trkpt>
      <trkpt lat="39.6156220" lon="-7.2307420">
        <ele>343.6</ele>
        <time>2019-07-10T12:37:16Z</time>
      </trkpt>
      <trkpt lat="39.6155950" lon="-7.2308700">
        <ele>343.2</ele>
        <time>2019-07-10T12:37:17Z</time>
      </trkpt>
      <trkpt lat="39.6155650" lon="-7.2310000">
        <ele>342.8</ele>
        <time>2019-07-10T12:37:18Z</time>
      </trkpt>
      <trkpt lat="39.6155360" lon="-7.2311320">
        <ele>342.2</ele>
        <time>2019-07-10T12:37:19Z</time>
      </trkpt>
      <trkpt lat="39.6154820" lon="-7.2313940">
        <ele>341.2</ele>
        <time>2019-07-10T12:37:21Z</time>
      </trkpt>
      <trkpt lat="39.6153910" lon="-7.2317810">
        <ele>339.6</ele>
        <time>2019-07-10T12:37:24Z</time>
      </trkpt>
      <trkpt lat="39.6153350" lon="-7.2320340">
        <ele>339.0</ele>
        <time>2019-07-10T12:37:26Z</time>
      </trkpt>
      <trkpt lat="39.6152510" lon="-7.2324060">
        <ele>338.4</ele>
        <time>2019-07-10T12:37:29Z</time>
      </trkpt>
      <trkpt lat="39.6151930" lon="-7.2326510">
        <ele>338.2</ele>
        <time>2019-07-10T12:37:31Z</time>
      </trkpt>
      <trkpt lat="39.6151300" lon="-7.2329040">
        <ele>337.2</ele>
        <time>2019-07-10T12:37:33Z</time>
      </trkpt>
      <trkpt lat="39.6150220" lon="-7.2332950">
        <ele>335.6</ele>
        <time>2019-07-10T12:37:36Z</time>
      </trkpt>
      <trkpt lat="39.6149460" lon="-7.2335630">
        <ele>334.2</ele>
        <time>2019-07-10T12:37:38Z</time>
      </trkpt>
      <trkpt lat="39.6148430" lon="-7.2339700">
        <ele>332.8</ele>
        <time>2019-07-10T12:37:41Z</time>
      </trkpt>
      <trkpt lat="39.6147350" lon="-7.2343750">
        <ele>331.6</ele>
        <time>2019-07-10T12:37:44Z</time>
      </trkpt>
      <trkpt lat="39.6146550" lon="-7.2347610">
        <ele>330.4</ele>
        <time>2019-07-10T12:37:47Z</time>
      </trkpt>
      <trkpt lat="39.6146060" lon="-7.2352210">
        <ele>329.8</ele>
        <time>2019-07-10T12:37:51Z</time>
      </trkpt>
      <trkpt lat="39.6145970" lon="-7.2353210">
        <ele>329.8</ele>
        <time>2019-07-10T12:37:52Z</time>
      </trkpt>
      <trkpt lat="39.6145800" lon="-7.2355000">
        <ele>330.4</ele>
        <time>2019-07-10T12:37:54Z</time>
      </trkpt>
      <trkpt lat="39.6145600" lon="-7.2356700">
        <ele>331.0</ele>
        <time>2019-07-10T12:37:56Z</time>
      </trkpt>
      <trkpt lat="39.6145360" lon="-7.2358470">
        <ele>331.2</ele>
        <time>2019-07-10T12:37:58Z</time>
      </trkpt>
      <trkpt lat="39.6144050" lon="-7.2364860">
        <ele>330.8</ele>
        <time>2019-07-10T12:38:05Z</time>
      </trkpt>
      <trkpt lat="39.6141950" lon="-7.2371590">
        <ele>329.4</ele>
        <time>2019-07-10T12:38:12Z</time>
      </trkpt>
      <trkpt lat="39.6141660" lon="-7.2372590">
        <ele>329.2</ele>
        <time>2019-07-10T12:38:13Z</time>
      </trkpt>
      <trkpt lat="39.6139940" lon="-7.2377990">
        <ele>328.8</ele>
        <time>2019-07-10T12:38:19Z</time>
      </trkpt>
      <trkpt lat="39.6138600" lon="-7.2381080">
        <ele>329.0</ele>
        <time>2019-07-10T12:38:23Z</time>
      </trkpt>
      <trkpt lat="39.6138190" lon="-7.2381770">
        <ele>329.2</ele>
        <time>2019-07-10T12:38:24Z</time>
      </trkpt>
      <trkpt lat="39.6135810" lon="-7.2385140">
        <ele>329.2</ele>
        <time>2019-07-10T12:38:29Z</time>
      </trkpt>
      <trkpt lat="39.6134760" lon="-7.2386400">
        <ele>329.0</ele>
        <time>2019-07-10T12:38:31Z</time>
      </trkpt>
      <trkpt lat="39.6131870" lon="-7.2390360">
        <ele>328.8</ele>
        <time>2019-07-10T12:38:37Z</time>
      </trkpt>
      <trkpt lat="39.6130030" lon="-7.2392770">
        <ele>329.2</ele>
        <time>2019-07-10T12:38:41Z</time>
      </trkpt>
      <trkpt lat="39.6128870" lon="-7.2394300">
        <ele>329.6</ele>
        <time>2019-07-10T12:38:44Z</time>
      </trkpt>
      <trkpt lat="39.6127870" lon="-7.2395590">
        <ele>330.2</ele>
        <time>2019-07-10T12:38:47Z</time>
      </trkpt>
      <trkpt lat="39.6127240" lon="-7.2396390">
        <ele>330.8</ele>
        <time>2019-07-10T12:38:49Z</time>
      </trkpt>
      <trkpt lat="39.6126570" lon="-7.2397120">
        <ele>331.4</ele>
        <time>2019-07-10T12:38:51Z</time>
      </trkpt>
      <trkpt lat="39.6125560" lon="-7.2398200">
        <ele>332.0</ele>
        <time>2019-07-10T12:38:54Z</time>
      </trkpt>
      <trkpt lat="39.6124180" lon="-7.2399630">
        <ele>332.6</ele>
        <time>2019-07-10T12:38:58Z</time>
      </trkpt>
      <trkpt lat="39.6123520" lon="-7.2400340">
        <ele>333.0</ele>
        <time>2019-07-10T12:39:00Z</time>
      </trkpt>
      <trkpt lat="39.6123180" lon="-7.2400660">
        <ele>333.2</ele>
        <time>2019-07-10T12:39:01Z</time>
      </trkpt>
      <trkpt lat="39.6122070" lon="-7.2401600">
        <ele>334.0</ele>
        <time>2019-07-10T12:39:04Z</time>
      </trkpt>
      <trkpt lat="39.6121330" lon="-7.2402250">
        <ele>334.4</ele>
        <time>2019-07-10T12:39:06Z</time>
      </trkpt>
      <trkpt lat="39.6120220" lon="-7.2403150">
        <ele>334.8</ele>
        <time>2019-07-10T12:39:09Z</time>
      </trkpt>
      <trkpt lat="39.6119460" lon="-7.2403700">
        <ele>335.2</ele>
        <time>2019-07-10T12:39:11Z</time>
      </trkpt>
      <trkpt lat="39.6117990" lon="-7.2404790">
        <ele>335.8</ele>
        <time>2019-07-10T12:39:15Z</time>
      </trkpt>
      <trkpt lat="39.6116420" lon="-7.2405790">
        <ele>336.2</ele>
        <time>2019-07-10T12:39:19Z</time>
      </trkpt>
      <trkpt lat="39.6114370" lon="-7.2406940">
        <ele>337.2</ele>
        <time>2019-07-10T12:39:24Z</time>
      </trkpt>
      <trkpt lat="39.6113950" lon="-7.2407130">
        <ele>337.4</ele>
        <time>2019-07-10T12:39:25Z</time>
      </trkpt>
      <trkpt lat="39.6110680" lon="-7.2408800">
        <ele>338.6</ele>
        <time>2019-07-10T12:39:33Z</time>
      </trkpt>
      <trkpt lat="39.6108490" lon="-7.2409690">
        <ele>339.6</ele>
        <time>2019-07-10T12:39:38Z</time>
      </trkpt>
      <trkpt lat="39.6106770" lon="-7.2410360">
        <ele>340.2</ele>
        <time>2019-07-10T12:39:42Z</time>
      </trkpt>
      <trkpt lat="39.6104580" lon="-7.2411060">
        <ele>340.6</ele>
        <time>2019-07-10T12:39:47Z</time>
      </trkpt>
      <trkpt lat="39.6103280" lon="-7.2411500">
        <ele>341.2</ele>
        <time>2019-07-10T12:39:50Z</time>
      </trkpt>
      <trkpt lat="39.6101970" lon="-7.2411840">
        <ele>342.0</ele>
        <time>2019-07-10T12:39:53Z</time>
      </trkpt>
      <trkpt lat="39.6099760" lon="-7.2412240">
        <ele>342.6</ele>
        <time>2019-07-10T12:39:58Z</time>
      </trkpt>
      <trkpt lat="39.6098390" lon="-7.2412430">
        <ele>343.0</ele>
        <time>2019-07-10T12:40:01Z</time>
      </trkpt>
      <trkpt lat="39.6095260" lon="-7.2412860">
        <ele>344.0</ele>
        <time>2019-07-10T12:40:08Z</time>
      </trkpt>
      <trkpt lat="39.6094810" lon="-7.2412910">
        <ele>344.2</ele>
        <time>2019-07-10T12:40:09Z</time>
      </trkpt>
      <trkpt lat="39.6092990" lon="-7.2413020">
        <ele>344.6</ele>
        <time>2019-07-10T12:40:13Z</time>
      </trkpt>
      <trkpt lat="39.6092100" lon="-7.2413190">
        <ele>344.8</ele>
        <time>2019-07-10T12:40:15Z</time>
      </trkpt>
      <trkpt lat="39.6091200" lon="-7.2413320">
        <ele>345.2</ele>
        <time>2019-07-10T12:40:17Z</time>
      </trkpt>
      <trkpt lat="39.6088150" lon="-7.2413690">
        <ele>346.4</ele>
        <time>2019-07-10T12:40:24Z</time>
      </trkpt>
      <trkpt lat="39.6087320" lon="-7.2413750">
        <ele>346.8</ele>
        <time>2019-07-10T12:40:26Z</time>
      </trkpt>
      <trkpt lat="39.6086110" lon="-7.2413950">
        <ele>347.4</ele>
        <time>2019-07-10T12:40:29Z</time>
      </trkpt>
      <trkpt lat="39.6084970" lon="-7.2414050">
        <ele>348.4</ele>
        <time>2019-07-10T12:40:32Z</time>
      </trkpt>
      <trkpt lat="39.6084610" lon="-7.2414090">
        <ele>348.8</ele>
        <time>2019-07-10T12:40:33Z</time>
      </trkpt>
      <trkpt lat="39.6083270" lon="-7.2414240">
        <ele>350.0</ele>
        <time>2019-07-10T12:40:37Z</time>
      </trkpt>
      <trkpt lat="39.6082590" lon="-7.2414300">
        <ele>350.6</ele>
        <time>2019-07-10T12:40:39Z</time>
      </trkpt>
      <trkpt lat="39.6081910" lon="-7.2414340">
        <ele>351.2</ele>
        <time>2019-07-10T12:40:41Z</time>
      </trkpt>
      <trkpt lat="39.6080630" lon="-7.2414500">
        <ele>352.2</ele>
        <time>2019-07-10T12:40:45Z</time>
      </trkpt>
      <trkpt lat="39.6079980" lon="-7.2414670">
        <ele>352.6</ele>
        <time>2019-07-10T12:40:47Z</time>
      </trkpt>
      <trkpt lat="39.6078130" lon="-7.2415450">
        <ele>352.4</ele>
        <time>2019-07-10T12:40:52Z</time>
      </trkpt>
      <trkpt lat="39.6076370" lon="-7.2416280">
        <ele>352.0</ele>
        <time>2019-07-10T12:40:56Z</time>
      </trkpt>
      <trkpt lat="39.6075400" lon="-7.2416670">
        <ele>351.6</ele>
        <time>2019-07-10T12:40:58Z</time>
      </trkpt>
      <trkpt lat="39.6074330" lon="-7.2417110">
        <ele>351.2</ele>
        <time>2019-07-10T12:41:00Z</time>
      </trkpt>
      <trkpt lat="39.6073770" lon="-7.2417370">
        <ele>351.0</ele>
        <time>2019-07-10T12:41:01Z</time>
      </trkpt>
      <trkpt lat="39.6072840" lon="-7.2417860">
        <ele>350.6</ele>
        <time>2019-07-10T12:41:03Z</time>
      </trkpt>
      <trkpt lat="39.6072540" lon="-7.2417910">
        <ele>350.4</ele>
        <time>2019-07-10T12:41:04Z</time>
      </trkpt>
      <trkpt lat="39.6072330" lon="-7.2417820">
        <ele>350.0</ele>
        <time>2019-07-10T12:41:05Z</time>
      </trkpt>
      <trkpt lat="39.6072160" lon="-7.2417760">
        <ele>349.6</ele>
        <time>2019-07-10T12:41:06Z</time>
      </trkpt>
      <trkpt lat="39.6071990" lon="-7.2417680">
        <ele>349.4</ele>
        <time>2019-07-10T12:41:08Z</time>
      </trkpt>
      <trkpt lat="39.6071940" lon="-7.2417610">
        <ele>349.4</ele>
        <time>2019-07-10T12:41:09Z</time>
      </trkpt>
      <trkpt lat="39.6071580" lon="-7.2417730">
        <ele>348.6</ele>
        <time>2019-07-10T12:42:47Z</time>
      </trkpt>
      <trkpt lat="39.6070480" lon="-7.2418860">
        <ele>348.6</ele>
        <time>2019-07-10T12:42:52Z</time>
      </trkpt>
      <trkpt lat="39.6068260" lon="-7.2420190">
        <ele>347.6</ele>
        <time>2019-07-10T12:42:58Z</time>
      </trkpt>
      <trkpt lat="39.6066270" lon="-7.2420540">
        <ele>347.0</ele>
        <time>2019-07-10T12:43:02Z</time>
      </trkpt>
      <trkpt lat="39.6065770" lon="-7.2420750">
        <ele>346.8</ele>
        <time>2019-07-10T12:43:03Z</time>
      </trkpt>
      <trkpt lat="39.6064800" lon="-7.2421260">
        <ele>346.4</ele>
        <time>2019-07-10T12:43:05Z</time>
      </trkpt>
      <trkpt lat="39.6063270" lon="-7.2422080">
        <ele>346.0</ele>
        <time>2019-07-10T12:43:08Z</time>
      </trkpt>
      <trkpt lat="39.6062740" lon="-7.2422320">
        <ele>346.0</ele>
        <time>2019-07-10T12:43:09Z</time>
      </trkpt>
      <trkpt lat="39.6061720" lon="-7.2422970">
        <ele>345.6</ele>
        <time>2019-07-10T12:43:11Z</time>
      </trkpt>
      <trkpt lat="39.6061220" lon="-7.2423340">
        <ele>345.4</ele>
        <time>2019-07-10T12:43:12Z</time>
      </trkpt>
      <trkpt lat="39.6060710" lon="-7.2423680">
        <ele>345.4</ele>
        <time>2019-07-10T12:43:13Z</time>
      </trkpt>
      <trkpt lat="39.6060210" lon="-7.2423980">
        <ele>345.2</ele>
        <time>2019-07-10T12:43:14Z</time>
      </trkpt>
      <trkpt lat="39.6057900" lon="-7.2424990">
        <ele>344.8</ele>
        <time>2019-07-10T12:43:18Z</time>
      </trkpt>
      <trkpt lat="39.6056710" lon="-7.2425490">
        <ele>344.4</ele>
        <time>2019-07-10T12:43:20Z</time>
      </trkpt>
      <trkpt lat="39.6054380" lon="-7.2426710">
        <ele>343.4</ele>
        <time>2019-07-10T12:43:24Z</time>
      </trkpt>
      <trkpt lat="39.6053810" lon="-7.2427060">
        <ele>343.2</ele>
        <time>2019-07-10T12:43:25Z</time>
      </trkpt>
      <trkpt lat="39.6052080" lon="-7.2428050">
        <ele>342.8</ele>
        <time>2019-07-10T12:43:28Z</time>
      </trkpt>
      <trkpt lat="39.6051090" lon="-7.2428650">
        <ele>341.8</ele>
        <time>2019-07-10T12:43:30Z</time>
      </trkpt>
      <trkpt lat="39.6050790" lon="-7.2428910">
        <ele>341.4</ele>
        <time>2019-07-10T12:43:31Z</time>
      </trkpt>
      <trkpt lat="39.6050470" lon="-7.2429440">
        <ele>340.6</ele>
        <time>2019-07-10T12:43:33Z</time>
      </trkpt>
      <trkpt lat="39.6050510" lon="-7.2429740">
        <ele>340.4</ele>
        <time>2019-07-10T12:43:34Z</time>
      </trkpt>
      <trkpt lat="39.6050400" lon="-7.2430000">
        <ele>339.8</ele>
        <time>2019-07-10T12:43:37Z</time>
      </trkpt>
      <trkpt lat="39.6050400" lon="-7.2430010">
        <ele>339.6</ele>
        <time>2019-07-10T12:43:38Z</time>
      </trkpt>
      <trkpt lat="39.6050390" lon="-7.2430030">
        <ele>339.6</ele>
        <time>2019-07-10T12:43:39Z</time>
      </trkpt>
      <trkpt lat="39.6050060" lon="-7.2430120">
        <ele>339.6</ele>
        <time>2019-07-10T12:43:42Z</time>
      </trkpt>
      <trkpt lat="39.6049870" lon="-7.2430290">
        <ele>339.6</ele>
        <time>2019-07-10T12:43:43Z</time>
      </trkpt>
      <trkpt lat="39.6048520" lon="-7.2431540">
        <ele>338.8</ele>
        <time>2019-07-10T12:43:48Z</time>
      </trkpt>
      <trkpt lat="39.6047110" lon="-7.2432580">
        <ele>338.6</ele>
        <time>2019-07-10T12:43:52Z</time>
      </trkpt>
      <trkpt lat="39.6046980" lon="-7.2432980">
        <ele>338.6</ele>
        <time>2019-07-10T12:43:53Z</time>
      </trkpt>
      <trkpt lat="39.6047190" lon="-7.2434230">
        <ele>338.8</ele>
        <time>2019-07-10T12:43:56Z</time>
      </trkpt>
      <trkpt lat="39.6047560" lon="-7.2434950">
        <ele>339.4</ele>
        <time>2019-07-10T12:43:58Z</time>
      </trkpt>
      <trkpt lat="39.6047730" lon="-7.2435280">
        <ele>339.6</ele>
        <time>2019-07-10T12:43:59Z</time>
      </trkpt>
      <trkpt lat="39.6047890" lon="-7.2435660">
        <ele>339.6</ele>
        <time>2019-07-10T12:44:00Z</time>
      </trkpt>
      <trkpt lat="39.6048220" lon="-7.2436470">
        <ele>340.0</ele>
        <time>2019-07-10T12:44:02Z</time>
      </trkpt>
      <trkpt lat="39.6048560" lon="-7.2437310">
        <ele>340.4</ele>
        <time>2019-07-10T12:44:04Z</time>
      </trkpt>
      <trkpt lat="39.6048700" lon="-7.2437710">
        <ele>340.8</ele>
        <time>2019-07-10T12:44:05Z</time>
      </trkpt>
      <trkpt lat="39.6049150" lon="-7.2438900">
        <ele>341.4</ele>
        <time>2019-07-10T12:44:08Z</time>
      </trkpt>
      <trkpt lat="39.6049620" lon="-7.2440080">
        <ele>341.8</ele>
        <time>2019-07-10T12:44:11Z</time>
      </trkpt>
      <trkpt lat="39.6049950" lon="-7.2440860">
        <ele>342.0</ele>
        <time>2019-07-10T12:44:13Z</time>
      </trkpt>
      <trkpt lat="39.6050420" lon="-7.2441970">
        <ele>342.6</ele>
        <time>2019-07-10T12:44:16Z</time>
      </trkpt>
      <trkpt lat="39.6050570" lon="-7.2442330">
        <ele>343.0</ele>
        <time>2019-07-10T12:44:17Z</time>
      </trkpt>
      <trkpt lat="39.6050780" lon="-7.2443090">
        <ele>343.4</ele>
        <time>2019-07-10T12:44:19Z</time>
      </trkpt>
      <trkpt lat="39.6051070" lon="-7.2443770">
        <ele>344.2</ele>
        <time>2019-07-10T12:44:21Z</time>
      </trkpt>
      <trkpt lat="39.6051200" lon="-7.2444080">
        <ele>344.6</ele>
        <time>2019-07-10T12:44:22Z</time>
      </trkpt>
      <trkpt lat="39.6051420" lon="-7.2444730">
        <ele>345.2</ele>
        <time>2019-07-10T12:44:24Z</time>
      </trkpt>
      <trkpt lat="39.6051660" lon="-7.2445740">
        <ele>345.6</ele>
        <time>2019-07-10T12:44:27Z</time>
      </trkpt>
      <trkpt lat="39.6051720" lon="-7.2446090">
        <ele>345.8</ele>
        <time>2019-07-10T12:44:28Z</time>
      </trkpt>
      <trkpt lat="39.6051810" lon="-7.2447100">
        <ele>346.4</ele>
        <time>2019-07-10T12:44:31Z</time>
      </trkpt>
      <trkpt lat="39.6052140" lon="-7.2448460">
        <ele>347.2</ele>
        <time>2019-07-10T12:44:35Z</time>
      </trkpt>
      <trkpt lat="39.6052220" lon="-7.2448810">
        <ele>347.4</ele>
        <time>2019-07-10T12:44:36Z</time>
      </trkpt>
      <trkpt lat="39.6052980" lon="-7.2450580">
        <ele>348.4</ele>
        <time>2019-07-10T12:44:41Z</time>
      </trkpt>
      <trkpt lat="39.6053130" lon="-7.2450920">
        <ele>348.6</ele>
        <time>2019-07-10T12:44:42Z</time>
      </trkpt>
      <trkpt lat="39.6054120" lon="-7.2452770">
        <ele>349.2</ele>
        <time>2019-07-10T12:44:48Z</time>
      </trkpt>
      <trkpt lat="39.6055390" lon="-7.2455020">
        <ele>349.6</ele>
        <time>2019-07-10T12:44:55Z</time>
      </trkpt>
      <trkpt lat="39.6056520" lon="-7.2457310">
        <ele>348.4</ele>
        <time>2019-07-10T12:45:00Z</time>
      </trkpt>
      <trkpt lat="39.6056800" lon="-7.2457780">
        <ele>348.4</ele>
        <time>2019-07-10T12:45:01Z</time>
      </trkpt>
      <trkpt lat="39.6057360" lon="-7.2458610">
        <ele>348.2</ele>
        <time>2019-07-10T12:45:03Z</time>
      </trkpt>
      <trkpt lat="39.6057930" lon="-7.2459530">
        <ele>348.0</ele>
        <time>2019-07-10T12:45:05Z</time>
      </trkpt>
      <trkpt lat="39.6058290" lon="-7.2460020">
        <ele>347.6</ele>
        <time>2019-07-10T12:45:06Z</time>
      </trkpt>
      <trkpt lat="39.6058700" lon="-7.2460470">
        <ele>347.4</ele>
        <time>2019-07-10T12:45:07Z</time>
      </trkpt>
      <trkpt lat="39.6060100" lon="-7.2461730">
        <ele>346.6</ele>
        <time>2019-07-10T12:45:10Z</time>
      </trkpt>
      <trkpt lat="39.6060990" lon="-7.2462470">
        <ele>346.4</ele>
        <time>2019-07-10T12:45:12Z</time>
      </trkpt>
      <trkpt lat="39.6061320" lon="-7.2462730">
        <ele>346.2</ele>
        <time>2019-07-10T12:45:13Z</time>
      </trkpt>
      <trkpt lat="39.6061760" lon="-7.2462960">
        <ele>345.6</ele>
        <time>2019-07-10T12:45:15Z</time>
      </trkpt>
      <trkpt lat="39.6062070" lon="-7.2462990">
        <ele>345.2</ele>
        <time>2019-07-10T12:45:17Z</time>
      </trkpt>
      <trkpt lat="39.6062290" lon="-7.2463450">
        <ele>345.2</ele>
        <time>2019-07-10T12:45:19Z</time>
      </trkpt>
      <trkpt lat="39.6062350" lon="-7.2464120">
        <ele>345.2</ele>
        <time>2019-07-10T12:45:21Z</time>
      </trkpt>
      <trkpt lat="39.6062460" lon="-7.2465360">
        <ele>345.2</ele>
        <time>2019-07-10T12:45:24Z</time>
      </trkpt>
      <trkpt lat="39.6062640" lon="-7.2467250">
        <ele>344.6</ele>
        <time>2019-07-10T12:45:28Z</time>
      </trkpt>
      <trkpt lat="39.6062850" lon="-7.2468370">
        <ele>344.2</ele>
        <time>2019-07-10T12:45:30Z</time>
      </trkpt>
      <trkpt lat="39.6062970" lon="-7.2468950">
        <ele>344.2</ele>
        <time>2019-07-10T12:45:31Z</time>
      </trkpt>
      <trkpt lat="39.6063120" lon="-7.2470140">
        <ele>343.8</ele>
        <time>2019-07-10T12:45:33Z</time>
      </trkpt>
      <trkpt lat="39.6063040" lon="-7.2471900">
        <ele>343.6</ele>
        <time>2019-07-10T12:45:36Z</time>
      </trkpt>
      <trkpt lat="39.6062630" lon="-7.2475510">
        <ele>343.8</ele>
        <time>2019-07-10T12:45:42Z</time>
      </trkpt>
      <trkpt lat="39.6062590" lon="-7.2476060">
        <ele>343.8</ele>
        <time>2019-07-10T12:45:43Z</time>
      </trkpt>
      <trkpt lat="39.6062510" lon="-7.2476570">
        <ele>343.8</ele>
        <time>2019-07-10T12:45:44Z</time>
      </trkpt>
      <trkpt lat="39.6062420" lon="-7.2477570">
        <ele>344.0</ele>
        <time>2019-07-10T12:45:46Z</time>
      </trkpt>
      <trkpt lat="39.6062360" lon="-7.2478600">
        <ele>344.4</ele>
        <time>2019-07-10T12:45:48Z</time>
      </trkpt>
      <trkpt lat="39.6062310" lon="-7.2479570">
        <ele>344.4</ele>
        <time>2019-07-10T12:45:50Z</time>
      </trkpt>
      <trkpt lat="39.6062560" lon="-7.2481270">
        <ele>345.0</ele>
        <time>2019-07-10T12:45:54Z</time>
      </trkpt>
      <trkpt lat="39.6062810" lon="-7.2482200">
        <ele>345.0</ele>
        <time>2019-07-10T12:45:56Z</time>
      </trkpt>
      <trkpt lat="39.6063070" lon="-7.2483230">
        <ele>345.2</ele>
        <time>2019-07-10T12:45:58Z</time>
      </trkpt>
      <trkpt lat="39.6063230" lon="-7.2483700">
        <ele>345.2</ele>
        <time>2019-07-10T12:45:59Z</time>
      </trkpt>
      <trkpt lat="39.6063360" lon="-7.2484240">
        <ele>345.2</ele>
        <time>2019-07-10T12:46:01Z</time>
      </trkpt>
      <trkpt lat="39.6063340" lon="-7.2484310">
        <ele>345.0</ele>
        <time>2019-07-10T12:46:02Z</time>
      </trkpt>
      <trkpt lat="39.6063340" lon="-7.2484310">
        <ele>344.8</ele>
        <time>2019-07-10T12:46:03Z</time>
      </trkpt>
      <trkpt lat="39.6063410" lon="-7.2484790">
        <ele>345.2</ele>
        <time>2019-07-10T12:46:17Z</time>
      </trkpt>
      <trkpt lat="39.6063480" lon="-7.2485440">
        <ele>345.2</ele>
        <time>2019-07-10T12:46:19Z</time>
      </trkpt>
      <trkpt lat="39.6063710" lon="-7.2487290">
        <ele>345.2</ele>
        <time>2019-07-10T12:46:23Z</time>
      </trkpt>
      <trkpt lat="39.6063770" lon="-7.2488380">
        <ele>345.4</ele>
        <time>2019-07-10T12:46:25Z</time>
      </trkpt>
      <trkpt lat="39.6064230" lon="-7.2493150">
        <ele>345.6</ele>
        <time>2019-07-10T12:46:33Z</time>
      </trkpt>
      <trkpt lat="39.6065320" lon="-7.2498870">
        <ele>345.4</ele>
        <time>2019-07-10T12:46:42Z</time>
      </trkpt>
      <trkpt lat="39.6066550" lon="-7.2504460">
        <ele>344.6</ele>
        <time>2019-07-10T12:46:50Z</time>
      </trkpt>
      <trkpt lat="39.6066810" lon="-7.2506970">
        <ele>344.2</ele>
        <time>2019-07-10T12:46:53Z</time>
      </trkpt>
      <trkpt lat="39.6067090" lon="-7.2509730">
        <ele>343.4</ele>
        <time>2019-07-10T12:46:56Z</time>
      </trkpt>
      <trkpt lat="39.6067170" lon="-7.2510700">
        <ele>343.0</ele>
        <time>2019-07-10T12:46:57Z</time>
      </trkpt>
      <trkpt lat="39.6067450" lon="-7.2513770">
        <ele>341.8</ele>
        <time>2019-07-10T12:47:00Z</time>
      </trkpt>
      <trkpt lat="39.6067620" lon="-7.2516890">
        <ele>341.0</ele>
        <time>2019-07-10T12:47:03Z</time>
      </trkpt>
      <trkpt lat="39.6067700" lon="-7.2517890">
        <ele>340.8</ele>
        <time>2019-07-10T12:47:04Z</time>
      </trkpt>
      <trkpt lat="39.6067990" lon="-7.2519770">
        <ele>340.6</ele>
        <time>2019-07-10T12:47:06Z</time>
      </trkpt>
      <trkpt lat="39.6068220" lon="-7.2520610">
        <ele>340.6</ele>
        <time>2019-07-10T12:47:07Z</time>
      </trkpt>
      <trkpt lat="39.6068790" lon="-7.2522100">
        <ele>340.8</ele>
        <time>2019-07-10T12:47:09Z</time>
      </trkpt>
      <trkpt lat="39.6069060" lon="-7.2522810">
        <ele>341.0</ele>
        <time>2019-07-10T12:47:10Z</time>
      </trkpt>
      <trkpt lat="39.6069320" lon="-7.2523480">
        <ele>341.2</ele>
        <time>2019-07-10T12:47:11Z</time>
      </trkpt>
      <trkpt lat="39.6069540" lon="-7.2524130">
        <ele>341.4</ele>
        <time>2019-07-10T12:47:12Z</time>
      </trkpt>
      <trkpt lat="39.6069700" lon="-7.2524790">
        <ele>341.6</ele>
        <time>2019-07-10T12:47:13Z</time>
      </trkpt>
      <trkpt lat="39.6069900" lon="-7.2526110">
        <ele>341.8</ele>
        <time>2019-07-10T12:47:15Z</time>
      </trkpt>
      <trkpt lat="39.6069970" lon="-7.2526780">
        <ele>342.0</ele>
        <time>2019-07-10T12:47:16Z</time>
      </trkpt>
      <trkpt lat="39.6070030" lon="-7.2527440">
        <ele>342.2</ele>
        <time>2019-07-10T12:47:17Z</time>
      </trkpt>
      <trkpt lat="39.6070110" lon="-7.2530210">
        <ele>342.6</ele>
        <time>2019-07-10T12:47:21Z</time>
      </trkpt>
      <trkpt lat="39.6070160" lon="-7.2531640">
        <ele>342.6</ele>
        <time>2019-07-10T12:47:23Z</time>
      </trkpt>
      <trkpt lat="39.6070420" lon="-7.2533000">
        <ele>342.6</ele>
        <time>2019-07-10T12:47:25Z</time>
      </trkpt>
      <trkpt lat="39.6071400" lon="-7.2536120">
        <ele>343.2</ele>
        <time>2019-07-10T12:47:30Z</time>
      </trkpt>
      <trkpt lat="39.6071640" lon="-7.2537270">
        <ele>343.4</ele>
        <time>2019-07-10T12:47:32Z</time>
      </trkpt>
      <trkpt lat="39.6071830" lon="-7.2538370">
        <ele>344.0</ele>
        <time>2019-07-10T12:47:34Z</time>
      </trkpt>
      <trkpt lat="39.6071870" lon="-7.2538920">
        <ele>344.4</ele>
        <time>2019-07-10T12:47:35Z</time>
      </trkpt>
      <trkpt lat="39.6071880" lon="-7.2540800">
        <ele>344.8</ele>
        <time>2019-07-10T12:47:38Z</time>
      </trkpt>
      <trkpt lat="39.6071830" lon="-7.2545600">
        <ele>343.2</ele>
        <time>2019-07-10T12:47:44Z</time>
      </trkpt>
      <trkpt lat="39.6071820" lon="-7.2548420">
        <ele>342.2</ele>
        <time>2019-07-10T12:47:47Z</time>
      </trkpt>
      <trkpt lat="39.6071820" lon="-7.2552370">
        <ele>341.2</ele>
        <time>2019-07-10T12:47:51Z</time>
      </trkpt>
      <trkpt lat="39.6071840" lon="-7.2555450">
        <ele>340.0</ele>
        <time>2019-07-10T12:47:54Z</time>
      </trkpt>
      <trkpt lat="39.6071840" lon="-7.2556500">
        <ele>339.8</ele>
        <time>2019-07-10T12:47:55Z</time>
      </trkpt>
      <trkpt lat="39.6071830" lon="-7.2558610">
        <ele>339.0</ele>
        <time>2019-07-10T12:47:57Z</time>
      </trkpt>
      <trkpt lat="39.6071820" lon="-7.2559650">
        <ele>338.6</ele>
        <time>2019-07-10T12:47:58Z</time>
      </trkpt>
      <trkpt lat="39.6071790" lon="-7.2561720">
        <ele>338.2</ele>
        <time>2019-07-10T12:48:00Z</time>
      </trkpt>
      <trkpt lat="39.6071960" lon="-7.2563800">
        <ele>337.8</ele>
        <time>2019-07-10T12:48:02Z</time>
      </trkpt>
      <trkpt lat="39.6072440" lon="-7.2565780">
        <ele>337.6</ele>
        <time>2019-07-10T12:48:04Z</time>
      </trkpt>
      <trkpt lat="39.6072750" lon="-7.2566700">
        <ele>337.4</ele>
        <time>2019-07-10T12:48:05Z</time>
      </trkpt>
      <trkpt lat="39.6073690" lon="-7.2569380">
        <ele>337.2</ele>
        <time>2019-07-10T12:48:08Z</time>
      </trkpt>
      <trkpt lat="39.6074690" lon="-7.2571840">
        <ele>337.2</ele>
        <time>2019-07-10T12:48:11Z</time>
      </trkpt>
      <trkpt lat="39.6076200" lon="-7.2575660">
        <ele>337.4</ele>
        <time>2019-07-10T12:48:16Z</time>
      </trkpt>
      <trkpt lat="39.6076700" lon="-7.2577120">
        <ele>337.6</ele>
        <time>2019-07-10T12:48:18Z</time>
      </trkpt>
      <trkpt lat="39.6078040" lon="-7.2580630">
        <ele>338.0</ele>
        <time>2019-07-10T12:48:23Z</time>
      </trkpt>
      <trkpt lat="39.6078820" lon="-7.2582710">
        <ele>338.8</ele>
        <time>2019-07-10T12:48:26Z</time>
      </trkpt>
      <trkpt lat="39.6079360" lon="-7.2584080">
        <ele>339.4</ele>
        <time>2019-07-10T12:48:28Z</time>
      </trkpt>
      <trkpt lat="39.6081080" lon="-7.2588150">
        <ele>339.8</ele>
        <time>2019-07-10T12:48:34Z</time>
      </trkpt>
      <trkpt lat="39.6082060" lon="-7.2590110">
        <ele>339.8</ele>
        <time>2019-07-10T12:48:37Z</time>
      </trkpt>
      <trkpt lat="39.6084860" lon="-7.2595790">
        <ele>340.0</ele>
        <time>2019-07-10T12:48:46Z</time>
      </trkpt>
      <trkpt lat="39.6087770" lon="-7.2601850">
        <ele>340.8</ele>
        <time>2019-07-10T12:48:56Z</time>
      </trkpt>
      <trkpt lat="39.6089920" lon="-7.2606030">
        <ele>340.8</ele>
        <time>2019-07-10T12:49:04Z</time>
      </trkpt>
      <trkpt lat="39.6090380" lon="-7.2607140">
        <ele>340.4</ele>
        <time>2019-07-10T12:49:06Z</time>
      </trkpt>
      <trkpt lat="39.6091190" lon="-7.2608810">
        <ele>340.4</ele>
        <time>2019-07-10T12:49:09Z</time>
      </trkpt>
      <trkpt lat="39.6091780" lon="-7.2609970">
        <ele>340.2</ele>
        <time>2019-07-10T12:49:11Z</time>
      </trkpt>
      <trkpt lat="39.6092110" lon="-7.2610560">
        <ele>340.0</ele>
        <time>2019-07-10T12:49:12Z</time>
      </trkpt>
      <trkpt lat="39.6093110" lon="-7.2612500">
        <ele>339.0</ele>
        <time>2019-07-10T12:49:15Z</time>
      </trkpt>
      <trkpt lat="39.6093430" lon="-7.2613220">
        <ele>338.8</ele>
        <time>2019-07-10T12:49:16Z</time>
      </trkpt>
      <trkpt lat="39.6094030" lon="-7.2614770">
        <ele>338.2</ele>
        <time>2019-07-10T12:49:18Z</time>
      </trkpt>
      <trkpt lat="39.6094970" lon="-7.2617420">
        <ele>337.4</ele>
        <time>2019-07-10T12:49:21Z</time>
      </trkpt>
      <trkpt lat="39.6095680" lon="-7.2619320">
        <ele>336.4</ele>
        <time>2019-07-10T12:49:23Z</time>
      </trkpt>
      <trkpt lat="39.6096060" lon="-7.2620300">
        <ele>336.0</ele>
        <time>2019-07-10T12:49:24Z</time>
      </trkpt>
      <trkpt lat="39.6096850" lon="-7.2622290">
        <ele>335.2</ele>
        <time>2019-07-10T12:49:26Z</time>
      </trkpt>
      <trkpt lat="39.6097570" lon="-7.2624310">
        <ele>334.0</ele>
        <time>2019-07-10T12:49:28Z</time>
      </trkpt>
      <trkpt lat="39.6098640" lon="-7.2627250">
        <ele>333.0</ele>
        <time>2019-07-10T12:49:31Z</time>
      </trkpt>
      <trkpt lat="39.6098990" lon="-7.2628250">
        <ele>332.8</ele>
        <time>2019-07-10T12:49:32Z</time>
      </trkpt>
      <trkpt lat="39.6100410" lon="-7.2632100">
        <ele>332.0</ele>
        <time>2019-07-10T12:49:36Z</time>
      </trkpt>
      <trkpt lat="39.6102020" lon="-7.2636910">
        <ele>330.6</ele>
        <time>2019-07-10T12:49:41Z</time>
      </trkpt>
      <trkpt lat="39.6102270" lon="-7.2637910">
        <ele>330.2</ele>
        <time>2019-07-10T12:49:42Z</time>
      </trkpt>
      <trkpt lat="39.6102730" lon="-7.2639940">
        <ele>329.6</ele>
        <time>2019-07-10T12:49:44Z</time>
      </trkpt>
      <trkpt lat="39.6103330" lon="-7.2643040">
        <ele>328.4</ele>
        <time>2019-07-10T12:49:47Z</time>
      </trkpt>
      <trkpt lat="39.6103780" lon="-7.2646060">
        <ele>327.6</ele>
        <time>2019-07-10T12:49:50Z</time>
      </trkpt>
      <trkpt lat="39.6103920" lon="-7.2647040">
        <ele>327.4</ele>
        <time>2019-07-10T12:49:51Z</time>
      </trkpt>
      <trkpt lat="39.6104290" lon="-7.2650880">
        <ele>326.4</ele>
        <time>2019-07-10T12:49:55Z</time>
      </trkpt>
      <trkpt lat="39.6104470" lon="-7.2652720">
        <ele>326.0</ele>
        <time>2019-07-10T12:49:57Z</time>
      </trkpt>
      <trkpt lat="39.6104700" lon="-7.2654500">
        <ele>325.8</ele>
        <time>2019-07-10T12:49:59Z</time>
      </trkpt>
      <trkpt lat="39.6104990" lon="-7.2657100">
        <ele>326.0</ele>
        <time>2019-07-10T12:50:02Z</time>
      </trkpt>
      <trkpt lat="39.6105250" lon="-7.2659580">
        <ele>326.0</ele>
        <time>2019-07-10T12:50:05Z</time>
      </trkpt>
      <trkpt lat="39.6105320" lon="-7.2660380">
        <ele>326.0</ele>
        <time>2019-07-10T12:50:06Z</time>
      </trkpt>
      <trkpt lat="39.6105630" lon="-7.2663480">
        <ele>326.2</ele>
        <time>2019-07-10T12:50:10Z</time>
      </trkpt>
      <trkpt lat="39.6105920" lon="-7.2666520">
        <ele>326.6</ele>
        <time>2019-07-10T12:50:14Z</time>
      </trkpt>
      <trkpt lat="39.6106080" lon="-7.2669490">
        <ele>326.8</ele>
        <time>2019-07-10T12:50:18Z</time>
      </trkpt>
      <trkpt lat="39.6106060" lon="-7.2670250">
        <ele>327.0</ele>
        <time>2019-07-10T12:50:19Z</time>
      </trkpt>
      <trkpt lat="39.6105940" lon="-7.2671770">
        <ele>327.2</ele>
        <time>2019-07-10T12:50:21Z</time>
      </trkpt>
      <trkpt lat="39.6105380" lon="-7.2679030">
        <ele>327.2</ele>
        <time>2019-07-10T12:50:30Z</time>
      </trkpt>
      <trkpt lat="39.6105220" lon="-7.2681590">
        <ele>327.0</ele>
        <time>2019-07-10T12:50:33Z</time>
      </trkpt>
      <trkpt lat="39.6104940" lon="-7.2685030">
        <ele>326.6</ele>
        <time>2019-07-10T12:50:37Z</time>
      </trkpt>
      <trkpt lat="39.6104760" lon="-7.2687670">
        <ele>326.2</ele>
        <time>2019-07-10T12:50:40Z</time>
      </trkpt>
      <trkpt lat="39.6104520" lon="-7.2690240">
        <ele>325.8</ele>
        <time>2019-07-10T12:50:43Z</time>
      </trkpt>
      <trkpt lat="39.6104320" lon="-7.2693640">
        <ele>325.6</ele>
        <time>2019-07-10T12:50:47Z</time>
      </trkpt>
      <trkpt lat="39.6104260" lon="-7.2694510">
        <ele>325.6</ele>
        <time>2019-07-10T12:50:48Z</time>
      </trkpt>
      <trkpt lat="39.6103960" lon="-7.2699890">
        <ele>325.0</ele>
        <time>2019-07-10T12:50:54Z</time>
      </trkpt>
      <trkpt lat="39.6103910" lon="-7.2701770">
        <ele>324.6</ele>
        <time>2019-07-10T12:50:56Z</time>
      </trkpt>
      <trkpt lat="39.6103890" lon="-7.2702740">
        <ele>324.4</ele>
        <time>2019-07-10T12:50:57Z</time>
      </trkpt>
      <trkpt lat="39.6103830" lon="-7.2706870">
        <ele>323.4</ele>
        <time>2019-07-10T12:51:01Z</time>
      </trkpt>
      <trkpt lat="39.6103800" lon="-7.2710250">
        <ele>322.6</ele>
        <time>2019-07-10T12:51:04Z</time>
      </trkpt>
      <trkpt lat="39.6103800" lon="-7.2711420">
        <ele>322.2</ele>
        <time>2019-07-10T12:51:05Z</time>
      </trkpt>
      <trkpt lat="39.6103790" lon="-7.2713790">
        <ele>320.8</ele>
        <time>2019-07-10T12:51:07Z</time>
      </trkpt>
      <trkpt lat="39.6103720" lon="-7.2716130">
        <ele>320.4</ele>
        <time>2019-07-10T12:51:09Z</time>
      </trkpt>
      <trkpt lat="39.6103590" lon="-7.2719540">
        <ele>319.8</ele>
        <time>2019-07-10T12:51:12Z</time>
      </trkpt>
      <trkpt lat="39.6103090" lon="-7.2722690">
        <ele>319.0</ele>
        <time>2019-07-10T12:51:15Z</time>
      </trkpt>
      <trkpt lat="39.6102680" lon="-7.2724610">
        <ele>319.0</ele>
        <time>2019-07-10T12:51:17Z</time>
      </trkpt>
      <trkpt lat="39.6102260" lon="-7.2726440">
        <ele>318.6</ele>
        <time>2019-07-10T12:51:19Z</time>
      </trkpt>
      <trkpt lat="39.6101900" lon="-7.2728280">
        <ele>318.4</ele>
        <time>2019-07-10T12:51:21Z</time>
      </trkpt>
      <trkpt lat="39.6101340" lon="-7.2731060">
        <ele>318.2</ele>
        <time>2019-07-10T12:51:24Z</time>
      </trkpt>
      <trkpt lat="39.6100200" lon="-7.2735670">
        <ele>317.6</ele>
        <time>2019-07-10T12:51:29Z</time>
      </trkpt>
      <trkpt lat="39.6099810" lon="-7.2736510">
        <ele>317.2</ele>
        <time>2019-07-10T12:51:30Z</time>
      </trkpt>
      <trkpt lat="39.6098220" lon="-7.2738740">
        <ele>316.2</ele>
        <time>2019-07-10T12:51:33Z</time>
      </trkpt>
      <trkpt lat="39.6097620" lon="-7.2739410">
        <ele>316.0</ele>
        <time>2019-07-10T12:51:34Z</time>
      </trkpt>
      <trkpt lat="39.6095160" lon="-7.2741960">
        <ele>315.0</ele>
        <time>2019-07-10T12:51:38Z</time>
      </trkpt>
      <trkpt lat="39.6092770" lon="-7.2744430">
        <ele>314.6</ele>
        <time>2019-07-10T12:51:42Z</time>
      </trkpt>
      <trkpt lat="39.6089370" lon="-7.2748000">
        <ele>314.0</ele>
        <time>2019-07-10T12:51:48Z</time>
      </trkpt>
      <trkpt lat="39.6088370" lon="-7.2749360">
        <ele>313.8</ele>
        <time>2019-07-10T12:51:50Z</time>
      </trkpt>
      <trkpt lat="39.6087520" lon="-7.2750940">
        <ele>313.4</ele>
        <time>2019-07-10T12:51:52Z</time>
      </trkpt>
      <trkpt lat="39.6086810" lon="-7.2752740">
        <ele>312.6</ele>
        <time>2019-07-10T12:51:54Z</time>
      </trkpt>
      <trkpt lat="39.6086520" lon="-7.2753720">
        <ele>312.4</ele>
        <time>2019-07-10T12:51:55Z</time>
      </trkpt>
      <trkpt lat="39.6085950" lon="-7.2755770">
        <ele>311.6</ele>
        <time>2019-07-10T12:51:57Z</time>
      </trkpt>
      <trkpt lat="39.6084920" lon="-7.2759020">
        <ele>310.4</ele>
        <time>2019-07-10T12:52:00Z</time>
      </trkpt>
      <trkpt lat="39.6084580" lon="-7.2760170">
        <ele>310.0</ele>
        <time>2019-07-10T12:52:01Z</time>
      </trkpt>
      <trkpt lat="39.6083900" lon="-7.2762560">
        <ele>308.8</ele>
        <time>2019-07-10T12:52:03Z</time>
      </trkpt>
      <trkpt lat="39.6082780" lon="-7.2766310">
        <ele>307.2</ele>
        <time>2019-07-10T12:52:06Z</time>
      </trkpt>
      <trkpt lat="39.6082000" lon="-7.2768970">
        <ele>306.0</ele>
        <time>2019-07-10T12:52:08Z</time>
      </trkpt>
      <trkpt lat="39.6081130" lon="-7.2771690">
        <ele>304.2</ele>
        <time>2019-07-10T12:52:10Z</time>
      </trkpt>
      <trkpt lat="39.6080080" lon="-7.2774320">
        <ele>302.6</ele>
        <time>2019-07-10T12:52:12Z</time>
      </trkpt>
      <trkpt lat="39.6079440" lon="-7.2775510">
        <ele>302.0</ele>
        <time>2019-07-10T12:52:13Z</time>
      </trkpt>
      <trkpt lat="39.6078720" lon="-7.2776590">
        <ele>301.4</ele>
        <time>2019-07-10T12:52:14Z</time>
      </trkpt>
      <trkpt lat="39.6077170" lon="-7.2778460">
        <ele>300.4</ele>
        <time>2019-07-10T12:52:16Z</time>
      </trkpt>
      <trkpt lat="39.6076400" lon="-7.2779320">
        <ele>300.2</ele>
        <time>2019-07-10T12:52:17Z</time>
      </trkpt>
      <trkpt lat="39.6075020" lon="-7.2781120">
        <ele>299.2</ele>
        <time>2019-07-10T12:52:19Z</time>
      </trkpt>
      <trkpt lat="39.6074130" lon="-7.2783280">
        <ele>298.8</ele>
        <time>2019-07-10T12:52:21Z</time>
      </trkpt>
      <trkpt lat="39.6073960" lon="-7.2785700">
        <ele>298.0</ele>
        <time>2019-07-10T12:52:23Z</time>
      </trkpt>
      <trkpt lat="39.6074030" lon="-7.2786940">
        <ele>297.8</ele>
        <time>2019-07-10T12:52:24Z</time>
      </trkpt>
      <trkpt lat="39.6074230" lon="-7.2789420">
        <ele>297.2</ele>
        <time>2019-07-10T12:52:26Z</time>
      </trkpt>
      <trkpt lat="39.6074270" lon="-7.2791750">
        <ele>296.4</ele>
        <time>2019-07-10T12:52:28Z</time>
      </trkpt>
      <trkpt lat="39.6074040" lon="-7.2792860">
        <ele>296.0</ele>
        <time>2019-07-10T12:52:29Z</time>
      </trkpt>
      <trkpt lat="39.6072890" lon="-7.2794700">
        <ele>295.0</ele>
        <time>2019-07-10T12:52:31Z</time>
      </trkpt>
      <trkpt lat="39.6072060" lon="-7.2795330">
        <ele>294.2</ele>
        <time>2019-07-10T12:52:32Z</time>
      </trkpt>
      <trkpt lat="39.6070230" lon="-7.2796160">
        <ele>292.6</ele>
        <time>2019-07-10T12:52:34Z</time>
      </trkpt>
      <trkpt lat="39.6068390" lon="-7.2796970">
        <ele>291.4</ele>
        <time>2019-07-10T12:52:36Z</time>
      </trkpt>
      <trkpt lat="39.6067530" lon="-7.2797500">
        <ele>291.0</ele>
        <time>2019-07-10T12:52:37Z</time>
      </trkpt>
      <trkpt lat="39.6066730" lon="-7.2798160">
        <ele>290.6</ele>
        <time>2019-07-10T12:52:38Z</time>
      </trkpt>
      <trkpt lat="39.6065990" lon="-7.2798910">
        <ele>290.2</ele>
        <time>2019-07-10T12:52:39Z</time>
      </trkpt>
      <trkpt lat="39.6064310" lon="-7.2801730">
        <ele>289.2</ele>
        <time>2019-07-10T12:52:42Z</time>
      </trkpt>
      <trkpt lat="39.6064120" lon="-7.2805240">
        <ele>288.2</ele>
        <time>2019-07-10T12:52:45Z</time>
      </trkpt>
      <trkpt lat="39.6064380" lon="-7.2806430">
        <ele>287.8</ele>
        <time>2019-07-10T12:52:46Z</time>
      </trkpt>
      <trkpt lat="39.6065110" lon="-7.2808740">
        <ele>286.8</ele>
        <time>2019-07-10T12:52:48Z</time>
      </trkpt>
      <trkpt lat="39.6065550" lon="-7.2809870">
        <ele>286.2</ele>
        <time>2019-07-10T12:52:49Z</time>
      </trkpt>
      <trkpt lat="39.6066020" lon="-7.2810960">
        <ele>285.4</ele>
        <time>2019-07-10T12:52:50Z</time>
      </trkpt>
      <trkpt lat="39.6068260" lon="-7.2816290">
        <ele>284.2</ele>
        <time>2019-07-10T12:52:55Z</time>
      </trkpt>
      <trkpt lat="39.6068650" lon="-7.2817330">
        <ele>283.8</ele>
        <time>2019-07-10T12:52:56Z</time>
      </trkpt>
      <trkpt lat="39.6069430" lon="-7.2819360">
        <ele>283.6</ele>
        <time>2019-07-10T12:52:58Z</time>
      </trkpt>
      <trkpt lat="39.6070180" lon="-7.2821410">
        <ele>283.4</ele>
        <time>2019-07-10T12:53:00Z</time>
      </trkpt>
      <trkpt lat="39.6071140" lon="-7.2824520">
        <ele>283.4</ele>
        <time>2019-07-10T12:53:03Z</time>
      </trkpt>
      <trkpt lat="39.6072140" lon="-7.2828760">
        <ele>283.2</ele>
        <time>2019-07-10T12:53:07Z</time>
      </trkpt>
      <trkpt lat="39.6072620" lon="-7.2830950">
        <ele>282.6</ele>
        <time>2019-07-10T12:53:09Z</time>
      </trkpt>
      <trkpt lat="39.6073480" lon="-7.2834220">
        <ele>282.2</ele>
        <time>2019-07-10T12:53:12Z</time>
      </trkpt>
      <trkpt lat="39.6074670" lon="-7.2837360">
        <ele>281.0</ele>
        <time>2019-07-10T12:53:15Z</time>
      </trkpt>
      <trkpt lat="39.6075980" lon="-7.2840230">
        <ele>280.0</ele>
        <time>2019-07-10T12:53:18Z</time>
      </trkpt>
      <trkpt lat="39.6077350" lon="-7.2842740">
        <ele>279.4</ele>
        <time>2019-07-10T12:53:21Z</time>
      </trkpt>
      <trkpt lat="39.6079260" lon="-7.2845700">
        <ele>279.2</ele>
        <time>2019-07-10T12:53:25Z</time>
      </trkpt>
      <trkpt lat="39.6080090" lon="-7.2847240">
        <ele>279.0</ele>
        <time>2019-07-10T12:53:27Z</time>
      </trkpt>
      <trkpt lat="39.6080440" lon="-7.2848060">
        <ele>279.0</ele>
        <time>2019-07-10T12:53:28Z</time>
      </trkpt>
      <trkpt lat="39.6081740" lon="-7.2852350">
        <ele>278.4</ele>
        <time>2019-07-10T12:53:33Z</time>
      </trkpt>
      <trkpt lat="39.6082270" lon="-7.2855070">
        <ele>277.8</ele>
        <time>2019-07-10T12:53:36Z</time>
      </trkpt>
      <trkpt lat="39.6082830" lon="-7.2859070">
        <ele>276.6</ele>
        <time>2019-07-10T12:53:40Z</time>
      </trkpt>
      <trkpt lat="39.6083430" lon="-7.2863290">
        <ele>275.8</ele>
        <time>2019-07-10T12:53:44Z</time>
      </trkpt>
      <trkpt lat="39.6083970" lon="-7.2867270">
        <ele>274.8</ele>
        <time>2019-07-10T12:53:48Z</time>
      </trkpt>
      <trkpt lat="39.6084100" lon="-7.2868240">
        <ele>274.4</ele>
        <time>2019-07-10T12:53:49Z</time>
      </trkpt>
      <trkpt lat="39.6084340" lon="-7.2871120">
        <ele>274.2</ele>
        <time>2019-07-10T12:53:52Z</time>
      </trkpt>
      <trkpt lat="39.6084440" lon="-7.2874030">
        <ele>273.6</ele>
        <time>2019-07-10T12:53:55Z</time>
      </trkpt>
      <trkpt lat="39.6084390" lon="-7.2875010">
        <ele>273.4</ele>
        <time>2019-07-10T12:53:56Z</time>
      </trkpt>
      <trkpt lat="39.6083820" lon="-7.2879980">
        <ele>272.6</ele>
        <time>2019-07-10T12:54:01Z</time>
      </trkpt>
      <trkpt lat="39.6083740" lon="-7.2881960">
        <ele>272.4</ele>
        <time>2019-07-10T12:54:03Z</time>
      </trkpt>
      <trkpt lat="39.6084240" lon="-7.2887610">
        <ele>272.0</ele>
        <time>2019-07-10T12:54:09Z</time>
      </trkpt>
      <trkpt lat="39.6084880" lon="-7.2892730">
        <ele>272.2</ele>
        <time>2019-07-10T12:54:15Z</time>
      </trkpt>
      <trkpt lat="39.6085230" lon="-7.2895140">
        <ele>272.6</ele>
        <time>2019-07-10T12:54:18Z</time>
      </trkpt>
      <trkpt lat="39.6085620" lon="-7.2899350">
        <ele>272.6</ele>
        <time>2019-07-10T12:54:23Z</time>
      </trkpt>
      <trkpt lat="39.6085490" lon="-7.2900230">
        <ele>272.4</ele>
        <time>2019-07-10T12:54:24Z</time>
      </trkpt>
      <trkpt lat="39.6084390" lon="-7.2902560">
        <ele>271.6</ele>
        <time>2019-07-10T12:54:27Z</time>
      </trkpt>
      <trkpt lat="39.6083840" lon="-7.2903190">
        <ele>271.4</ele>
        <time>2019-07-10T12:54:28Z</time>
      </trkpt>
      <trkpt lat="39.6081860" lon="-7.2904770">
        <ele>271.0</ele>
        <time>2019-07-10T12:54:31Z</time>
      </trkpt>
      <trkpt lat="39.6079660" lon="-7.2906490">
        <ele>270.4</ele>
        <time>2019-07-10T12:54:34Z</time>
      </trkpt>
      <trkpt lat="39.6077220" lon="-7.2908400">
        <ele>269.0</ele>
        <time>2019-07-10T12:54:37Z</time>
      </trkpt>
      <trkpt lat="39.6075560" lon="-7.2909840">
        <ele>267.4</ele>
        <time>2019-07-10T12:54:39Z</time>
      </trkpt>
      <trkpt lat="39.6074890" lon="-7.2910820">
        <ele>267.0</ele>
        <time>2019-07-10T12:54:40Z</time>
      </trkpt>
      <trkpt lat="39.6074370" lon="-7.2911950">
        <ele>266.4</ele>
        <time>2019-07-10T12:54:41Z</time>
      </trkpt>
      <trkpt lat="39.6073700" lon="-7.2914360">
        <ele>265.2</ele>
        <time>2019-07-10T12:54:43Z</time>
      </trkpt>
      <trkpt lat="39.6073580" lon="-7.2915490">
        <ele>264.0</ele>
        <time>2019-07-10T12:54:44Z</time>
      </trkpt>
      <trkpt lat="39.6073980" lon="-7.2917590">
        <ele>262.6</ele>
        <time>2019-07-10T12:54:46Z</time>
      </trkpt>
      <trkpt lat="39.6075710" lon="-7.2920110">
        <ele>261.2</ele>
        <time>2019-07-10T12:54:49Z</time>
      </trkpt>
      <trkpt lat="39.6076490" lon="-7.2922110">
        <ele>260.2</ele>
        <time>2019-07-10T12:54:51Z</time>
      </trkpt>
      <trkpt lat="39.6076630" lon="-7.2923240">
        <ele>259.6</ele>
        <time>2019-07-10T12:54:52Z</time>
      </trkpt>
      <trkpt lat="39.6076650" lon="-7.2924390">
        <ele>259.2</ele>
        <time>2019-07-10T12:54:53Z</time>
      </trkpt>
      <trkpt lat="39.6076640" lon="-7.2925540">
        <ele>258.6</ele>
        <time>2019-07-10T12:54:54Z</time>
      </trkpt>
      <trkpt lat="39.6076700" lon="-7.2926610">
        <ele>258.2</ele>
        <time>2019-07-10T12:54:55Z</time>
      </trkpt>
      <trkpt lat="39.6076950" lon="-7.2927510">
        <ele>257.8</ele>
        <time>2019-07-10T12:54:56Z</time>
      </trkpt>
      <trkpt lat="39.6077980" lon="-7.2928660">
        <ele>256.6</ele>
        <time>2019-07-10T12:54:58Z</time>
      </trkpt>
      <trkpt lat="39.6079530" lon="-7.2928820">
        <ele>255.4</ele>
        <time>2019-07-10T12:55:00Z</time>
      </trkpt>
      <trkpt lat="39.6080380" lon="-7.2928830">
        <ele>254.8</ele>
        <time>2019-07-10T12:55:01Z</time>
      </trkpt>
      <trkpt lat="39.6081220" lon="-7.2928990">
        <ele>254.4</ele>
        <time>2019-07-10T12:55:02Z</time>
      </trkpt>
      <trkpt lat="39.6082830" lon="-7.2929940">
        <ele>253.0</ele>
        <time>2019-07-10T12:55:04Z</time>
      </trkpt>
      <trkpt lat="39.6084220" lon="-7.2931650">
        <ele>251.8</ele>
        <time>2019-07-10T12:55:06Z</time>
      </trkpt>
      <trkpt lat="39.6084780" lon="-7.2932730">
        <ele>251.2</ele>
        <time>2019-07-10T12:55:07Z</time>
      </trkpt>
      <trkpt lat="39.6085290" lon="-7.2933910">
        <ele>250.6</ele>
        <time>2019-07-10T12:55:08Z</time>
      </trkpt>
      <trkpt lat="39.6086290" lon="-7.2936420">
        <ele>249.2</ele>
        <time>2019-07-10T12:55:10Z</time>
      </trkpt>
      <trkpt lat="39.6087360" lon="-7.2938810">
        <ele>247.8</ele>
        <time>2019-07-10T12:55:12Z</time>
      </trkpt>
      <trkpt lat="39.6087860" lon="-7.2939890">
        <ele>246.8</ele>
        <time>2019-07-10T12:55:13Z</time>
      </trkpt>
      <trkpt lat="39.6088270" lon="-7.2940920">
        <ele>245.4</ele>
        <time>2019-07-10T12:55:14Z</time>
      </trkpt>
      <trkpt lat="39.6088580" lon="-7.2941900">
        <ele>244.8</ele>
        <time>2019-07-10T12:55:15Z</time>
      </trkpt>
      <trkpt lat="39.6088780" lon="-7.2942810">
        <ele>244.0</ele>
        <time>2019-07-10T12:55:16Z</time>
      </trkpt>
      <trkpt lat="39.6088680" lon="-7.2944480">
        <ele>242.6</ele>
        <time>2019-07-10T12:55:18Z</time>
      </trkpt>
      <trkpt lat="39.6088310" lon="-7.2945190">
        <ele>241.8</ele>
        <time>2019-07-10T12:55:19Z</time>
      </trkpt>
      <trkpt lat="39.6087750" lon="-7.2945750">
        <ele>241.2</ele>
        <time>2019-07-10T12:55:20Z</time>
      </trkpt>
      <trkpt lat="39.6086250" lon="-7.2946590">
        <ele>240.4</ele>
        <time>2019-07-10T12:55:22Z</time>
      </trkpt>
      <trkpt lat="39.6085390" lon="-7.2946990">
        <ele>239.6</ele>
        <time>2019-07-10T12:55:23Z</time>
      </trkpt>
      <trkpt lat="39.6083530" lon="-7.2947960">
        <ele>238.0</ele>
        <time>2019-07-10T12:55:25Z</time>
      </trkpt>
      <trkpt lat="39.6082560" lon="-7.2948590">
        <ele>237.0</ele>
        <time>2019-07-10T12:55:26Z</time>
      </trkpt>
      <trkpt lat="39.6081580" lon="-7.2949310">
        <ele>236.4</ele>
        <time>2019-07-10T12:55:27Z</time>
      </trkpt>
      <trkpt lat="39.6079700" lon="-7.2950830">
        <ele>233.8</ele>
        <time>2019-07-10T12:55:29Z</time>
      </trkpt>
      <trkpt lat="39.6078800" lon="-7.2951550">
        <ele>232.6</ele>
        <time>2019-07-10T12:55:30Z</time>
      </trkpt>
      <trkpt lat="39.6077960" lon="-7.2952240">
        <ele>231.4</ele>
        <time>2019-07-10T12:55:31Z</time>
      </trkpt>
      <trkpt lat="39.6077170" lon="-7.2952910">
        <ele>230.4</ele>
        <time>2019-07-10T12:55:32Z</time>
      </trkpt>
      <trkpt lat="39.6076450" lon="-7.2953570">
        <ele>229.0</ele>
        <time>2019-07-10T12:55:33Z</time>
      </trkpt>
      <trkpt lat="39.6075140" lon="-7.2954740">
        <ele>227.4</ele>
        <time>2019-07-10T12:55:35Z</time>
      </trkpt>
      <trkpt lat="39.6073750" lon="-7.2955620">
        <ele>225.8</ele>
        <time>2019-07-10T12:55:37Z</time>
      </trkpt>
      <trkpt lat="39.6072990" lon="-7.2955890">
        <ele>224.6</ele>
        <time>2019-07-10T12:55:38Z</time>
      </trkpt>
      <trkpt lat="39.6072140" lon="-7.2956000">
        <ele>224.0</ele>
        <time>2019-07-10T12:55:39Z</time>
      </trkpt>
      <trkpt lat="39.6071240" lon="-7.2955920">
        <ele>223.4</ele>
        <time>2019-07-10T12:55:40Z</time>
      </trkpt>
      <trkpt lat="39.6069370" lon="-7.2955390">
        <ele>222.0</ele>
        <time>2019-07-10T12:55:42Z</time>
      </trkpt>
      <trkpt lat="39.6067600" lon="-7.2954670">
        <ele>220.2</ele>
        <time>2019-07-10T12:55:44Z</time>
      </trkpt>
      <trkpt lat="39.6066120" lon="-7.2954050">
        <ele>218.8</ele>
        <time>2019-07-10T12:55:46Z</time>
      </trkpt>
      <trkpt lat="39.6065500" lon="-7.2953930">
        <ele>217.6</ele>
        <time>2019-07-10T12:55:47Z</time>
      </trkpt>
      <trkpt lat="39.6064990" lon="-7.2954020">
        <ele>216.8</ele>
        <time>2019-07-10T12:55:48Z</time>
      </trkpt>
      <trkpt lat="39.6064630" lon="-7.2954400">
        <ele>216.4</ele>
        <time>2019-07-10T12:55:49Z</time>
      </trkpt>
      <trkpt lat="39.6064540" lon="-7.2955780">
        <ele>215.2</ele>
        <time>2019-07-10T12:55:51Z</time>
      </trkpt>
      <trkpt lat="39.6065040" lon="-7.2957510">
        <ele>214.2</ele>
        <time>2019-07-10T12:55:53Z</time>
      </trkpt>
      <trkpt lat="39.6065230" lon="-7.2958450">
        <ele>213.2</ele>
        <time>2019-07-10T12:55:54Z</time>
      </trkpt>
      <trkpt lat="39.6065260" lon="-7.2959410">
        <ele>212.6</ele>
        <time>2019-07-10T12:55:55Z</time>
      </trkpt>
      <trkpt lat="39.6064730" lon="-7.2961250">
        <ele>211.4</ele>
        <time>2019-07-10T12:55:57Z</time>
      </trkpt>
      <trkpt lat="39.6063480" lon="-7.2962640">
        <ele>210.2</ele>
        <time>2019-07-10T12:55:59Z</time>
      </trkpt>
      <trkpt lat="39.6062660" lon="-7.2963180">
        <ele>209.6</ele>
        <time>2019-07-10T12:56:00Z</time>
      </trkpt>
      <trkpt lat="39.6061760" lon="-7.2963710">
        <ele>208.6</ele>
        <time>2019-07-10T12:56:01Z</time>
      </trkpt>
      <trkpt lat="39.6060810" lon="-7.2964240">
        <ele>207.4</ele>
        <time>2019-07-10T12:56:02Z</time>
      </trkpt>
      <trkpt lat="39.6059800" lon="-7.2964780">
        <ele>206.4</ele>
        <time>2019-07-10T12:56:03Z</time>
      </trkpt>
      <trkpt lat="39.6058750" lon="-7.2965330">
        <ele>205.4</ele>
        <time>2019-07-10T12:56:04Z</time>
      </trkpt>
      <trkpt lat="39.6057680" lon="-7.2965930">
        <ele>204.6</ele>
        <time>2019-07-10T12:56:05Z</time>
      </trkpt>
      <trkpt lat="39.6056650" lon="-7.2966550">
        <ele>203.6</ele>
        <time>2019-07-10T12:56:06Z</time>
      </trkpt>
      <trkpt lat="39.6055650" lon="-7.2967200">
        <ele>202.4</ele>
        <time>2019-07-10T12:56:07Z</time>
      </trkpt>
      <trkpt lat="39.6054710" lon="-7.2967850">
        <ele>201.0</ele>
        <time>2019-07-10T12:56:08Z</time>
      </trkpt>
      <trkpt lat="39.6053830" lon="-7.2968470">
        <ele>200.2</ele>
        <time>2019-07-10T12:56:09Z</time>
      </trkpt>
      <trkpt lat="39.6053000" lon="-7.2969040">
        <ele>198.6</ele>
        <time>2019-07-10T12:56:10Z</time>
      </trkpt>
      <trkpt lat="39.6052210" lon="-7.2969590">
        <ele>197.6</ele>
        <time>2019-07-10T12:56:11Z</time>
      </trkpt>
      <trkpt lat="39.6051450" lon="-7.2970170">
        <ele>196.4</ele>
        <time>2019-07-10T12:56:12Z</time>
      </trkpt>
      <trkpt lat="39.6050700" lon="-7.2970880">
        <ele>195.2</ele>
        <time>2019-07-10T12:56:13Z</time>
      </trkpt>
      <trkpt lat="39.6049550" lon="-7.2972770">
        <ele>194.2</ele>
        <time>2019-07-10T12:56:15Z</time>
      </trkpt>
      <trkpt lat="39.6049210" lon="-7.2973900">
        <ele>193.4</ele>
        <time>2019-07-10T12:56:16Z</time>
      </trkpt>
      <trkpt lat="39.6048990" lon="-7.2975130">
        <ele>192.4</ele>
        <time>2019-07-10T12:56:17Z</time>
      </trkpt>
      <trkpt lat="39.6048840" lon="-7.2976420">
        <ele>190.8</ele>
        <time>2019-07-10T12:56:18Z</time>
      </trkpt>
      <trkpt lat="39.6048720" lon="-7.2977680">
        <ele>189.8</ele>
        <time>2019-07-10T12:56:19Z</time>
      </trkpt>
      <trkpt lat="39.6048620" lon="-7.2978890">
        <ele>188.6</ele>
        <time>2019-07-10T12:56:20Z</time>
      </trkpt>
      <trkpt lat="39.6048450" lon="-7.2981120">
        <ele>186.4</ele>
        <time>2019-07-10T12:56:22Z</time>
      </trkpt>
      <trkpt lat="39.6048370" lon="-7.2982110">
        <ele>185.4</ele>
        <time>2019-07-10T12:56:23Z</time>
      </trkpt>
      <trkpt lat="39.6048210" lon="-7.2983910">
        <ele>183.6</ele>
        <time>2019-07-10T12:56:25Z</time>
      </trkpt>
      <trkpt lat="39.6048100" lon="-7.2984840">
        <ele>182.6</ele>
        <time>2019-07-10T12:56:26Z</time>
      </trkpt>
      <trkpt lat="39.6047790" lon="-7.2986810">
        <ele>181.0</ele>
        <time>2019-07-10T12:56:28Z</time>
      </trkpt>
      <trkpt lat="39.6047540" lon="-7.2987740">
        <ele>180.2</ele>
        <time>2019-07-10T12:56:29Z</time>
      </trkpt>
      <trkpt lat="39.6047180" lon="-7.2988580">
        <ele>179.6</ele>
        <time>2019-07-10T12:56:30Z</time>
      </trkpt>
      <trkpt lat="39.6046240" lon="-7.2990150">
        <ele>177.8</ele>
        <time>2019-07-10T12:56:32Z</time>
      </trkpt>
      <trkpt lat="39.6045750" lon="-7.2990840">
        <ele>177.2</ele>
        <time>2019-07-10T12:56:33Z</time>
      </trkpt>
      <trkpt lat="39.6045260" lon="-7.2991450">
        <ele>176.6</ele>
        <time>2019-07-10T12:56:34Z</time>
      </trkpt>
      <trkpt lat="39.6044260" lon="-7.2992300">
        <ele>176.0</ele>
        <time>2019-07-10T12:56:36Z</time>
      </trkpt>
      <trkpt lat="39.6043180" lon="-7.2992440">
        <ele>175.8</ele>
        <time>2019-07-10T12:56:38Z</time>
      </trkpt>
      <trkpt lat="39.6042660" lon="-7.2992240">
        <ele>175.8</ele>
        <time>2019-07-10T12:56:39Z</time>
      </trkpt>
      <trkpt lat="39.6042170" lon="-7.2991970">
        <ele>175.8</ele>
        <time>2019-07-10T12:56:40Z</time>
      </trkpt>
      <trkpt lat="39.6041700" lon="-7.2991690">
        <ele>176.0</ele>
        <time>2019-07-10T12:56:41Z</time>
      </trkpt>
      <trkpt lat="39.6040800" lon="-7.2991160">
        <ele>176.0</ele>
        <time>2019-07-10T12:56:43Z</time>
      </trkpt>
      <trkpt lat="39.6039980" lon="-7.2990610">
        <ele>176.4</ele>
        <time>2019-07-10T12:56:45Z</time>
      </trkpt>
      <trkpt lat="39.6038080" lon="-7.2989300">
        <ele>177.2</ele>
        <time>2019-07-10T12:56:50Z</time>
      </trkpt>
      <trkpt lat="39.6037170" lon="-7.2988610">
        <ele>177.8</ele>
        <time>2019-07-10T12:56:53Z</time>
      </trkpt>
      <trkpt lat="39.6036320" lon="-7.2988030">
        <ele>178.6</ele>
        <time>2019-07-10T12:56:56Z</time>
      </trkpt>
      <trkpt lat="39.6036060" lon="-7.2987820">
        <ele>178.8</ele>
        <time>2019-07-10T12:56:57Z</time>
      </trkpt>
      <trkpt lat="39.6035580" lon="-7.2987440">
        <ele>179.4</ele>
        <time>2019-07-10T12:56:59Z</time>
      </trkpt>
      <trkpt lat="39.6035340" lon="-7.2987240">
        <ele>180.0</ele>
        <time>2019-07-10T12:57:00Z</time>
      </trkpt>
      <trkpt lat="39.6034850" lon="-7.2986960">
        <ele>180.8</ele>
        <time>2019-07-10T12:57:02Z</time>
      </trkpt>
      <trkpt lat="39.6034310" lon="-7.2986800">
        <ele>181.0</ele>
        <time>2019-07-10T12:57:04Z</time>
      </trkpt>
      <trkpt lat="39.6033530" lon="-7.2986810">
        <ele>181.8</ele>
        <time>2019-07-10T12:57:07Z</time>
      </trkpt>
      <trkpt lat="39.6033100" lon="-7.2987120">
        <ele>182.2</ele>
        <time>2019-07-10T12:57:09Z</time>
      </trkpt>
      <trkpt lat="39.6032690" lon="-7.2987960">
        <ele>182.8</ele>
        <time>2019-07-10T12:57:12Z</time>
      </trkpt>
      <trkpt lat="39.6032580" lon="-7.2988660">
        <ele>183.4</ele>
        <time>2019-07-10T12:57:14Z</time>
      </trkpt>
      <trkpt lat="39.6032500" lon="-7.2989980">
        <ele>184.2</ele>
        <time>2019-07-10T12:57:18Z</time>
      </trkpt>
      <trkpt lat="39.6032500" lon="-7.2990310">
        <ele>184.4</ele>
        <time>2019-07-10T12:57:19Z</time>
      </trkpt>
      <trkpt lat="39.6032490" lon="-7.2991000">
        <ele>184.8</ele>
        <time>2019-07-10T12:57:21Z</time>
      </trkpt>
      <trkpt lat="39.6032390" lon="-7.2992330">
        <ele>185.6</ele>
        <time>2019-07-10T12:57:25Z</time>
      </trkpt>
      <trkpt lat="39.6032320" lon="-7.2992990">
        <ele>185.8</ele>
        <time>2019-07-10T12:57:27Z</time>
      </trkpt>
      <trkpt lat="39.6032200" lon="-7.2993970">
        <ele>186.8</ele>
        <time>2019-07-10T12:57:30Z</time>
      </trkpt>
      <trkpt lat="39.6032080" lon="-7.2994260">
        <ele>187.0</ele>
        <time>2019-07-10T12:57:31Z</time>
      </trkpt>
      <trkpt lat="39.6031350" lon="-7.2995700">
        <ele>188.2</ele>
        <time>2019-07-10T12:57:36Z</time>
      </trkpt>
      <trkpt lat="39.6031220" lon="-7.2995990">
        <ele>188.4</ele>
        <time>2019-07-10T12:57:37Z</time>
      </trkpt>
      <trkpt lat="39.6030600" lon="-7.2997020">
        <ele>189.2</ele>
        <time>2019-07-10T12:57:41Z</time>
      </trkpt>
      <trkpt lat="39.6030310" lon="-7.2997520">
        <ele>189.6</ele>
        <time>2019-07-10T12:57:43Z</time>
      </trkpt>
      <trkpt lat="39.6029740" lon="-7.2998550">
        <ele>190.4</ele>
        <time>2019-07-10T12:57:47Z</time>
      </trkpt>
      <trkpt lat="39.6029120" lon="-7.2999470">
        <ele>191.2</ele>
        <time>2019-07-10T12:57:51Z</time>
      </trkpt>
      <trkpt lat="39.6028810" lon="-7.2999920">
        <ele>191.8</ele>
        <time>2019-07-10T12:57:53Z</time>
      </trkpt>
      <trkpt lat="39.6028050" lon="-7.3001210">
        <ele>193.0</ele>
        <time>2019-07-10T12:57:58Z</time>
      </trkpt>
      <trkpt lat="39.6027110" lon="-7.3002810">
        <ele>194.2</ele>
        <time>2019-07-10T12:58:04Z</time>
      </trkpt>
      <trkpt lat="39.6026600" lon="-7.3003910">
        <ele>195.2</ele>
        <time>2019-07-10T12:58:08Z</time>
      </trkpt>
      <trkpt lat="39.6026040" lon="-7.3005520">
        <ele>196.0</ele>
        <time>2019-07-10T12:58:13Z</time>
      </trkpt>
      <trkpt lat="39.6026060" lon="-7.3007060">
        <ele>196.4</ele>
        <time>2019-07-10T12:58:17Z</time>
      </trkpt>
      <trkpt lat="39.6026170" lon="-7.3007420">
        <ele>196.6</ele>
        <time>2019-07-10T12:58:18Z</time>
      </trkpt>
      <trkpt lat="39.6026320" lon="-7.3007760">
        <ele>196.8</ele>
        <time>2019-07-10T12:58:19Z</time>
      </trkpt>
      <trkpt lat="39.6027070" lon="-7.3009060">
        <ele>197.4</ele>
        <time>2019-07-10T12:58:23Z</time>
      </trkpt>
      <trkpt lat="39.6027250" lon="-7.3009400">
        <ele>197.6</ele>
        <time>2019-07-10T12:58:24Z</time>
      </trkpt>
      <trkpt lat="39.6028430" lon="-7.3011390">
        <ele>198.6</ele>
        <time>2019-07-10T12:58:30Z</time>
      </trkpt>
      <trkpt lat="39.6029020" lon="-7.3012360">
        <ele>199.0</ele>
        <time>2019-07-10T12:58:33Z</time>
      </trkpt>
      <trkpt lat="39.6029490" lon="-7.3012870">
        <ele>199.8</ele>
        <time>2019-07-10T12:58:35Z</time>
      </trkpt>
      <trkpt lat="39.6030300" lon="-7.3014060">
        <ele>200.8</ele>
        <time>2019-07-10T12:58:39Z</time>
      </trkpt>
      <trkpt lat="39.6030500" lon="-7.3014350">
        <ele>201.0</ele>
        <time>2019-07-10T12:58:40Z</time>
      </trkpt>
      <trkpt lat="39.6031280" lon="-7.3015500">
        <ele>202.2</ele>
        <time>2019-07-10T12:58:44Z</time>
      </trkpt>
      <trkpt lat="39.6031730" lon="-7.3016460">
        <ele>202.6</ele>
        <time>2019-07-10T12:58:47Z</time>
      </trkpt>
      <trkpt lat="39.6032020" lon="-7.3017480">
        <ele>203.4</ele>
        <time>2019-07-10T12:58:50Z</time>
      </trkpt>
      <trkpt lat="39.6032430" lon="-7.3018870">
        <ele>204.6</ele>
        <time>2019-07-10T12:58:54Z</time>
      </trkpt>
      <trkpt lat="39.6032730" lon="-7.3020760">
        <ele>205.6</ele>
        <time>2019-07-10T12:58:59Z</time>
      </trkpt>
      <trkpt lat="39.6032770" lon="-7.3021950">
        <ele>206.0</ele>
        <time>2019-07-10T12:59:02Z</time>
      </trkpt>
      <trkpt lat="39.6032820" lon="-7.3023570">
        <ele>206.6</ele>
        <time>2019-07-10T12:59:06Z</time>
      </trkpt>
      <trkpt lat="39.6033090" lon="-7.3025260">
        <ele>207.2</ele>
        <time>2019-07-10T12:59:10Z</time>
      </trkpt>
      <trkpt lat="39.6033940" lon="-7.3026640">
        <ele>208.0</ele>
        <time>2019-07-10T12:59:14Z</time>
      </trkpt>
      <trkpt lat="39.6035230" lon="-7.3027020">
        <ele>208.8</ele>
        <time>2019-07-10T12:59:18Z</time>
      </trkpt>
      <trkpt lat="39.6035540" lon="-7.3026920">
        <ele>209.2</ele>
        <time>2019-07-10T12:59:19Z</time>
      </trkpt>
      <trkpt lat="39.6036390" lon="-7.3026400">
        <ele>210.2</ele>
        <time>2019-07-10T12:59:22Z</time>
      </trkpt>
      <trkpt lat="39.6036880" lon="-7.3025840">
        <ele>210.8</ele>
        <time>2019-07-10T12:59:24Z</time>
      </trkpt>
      <trkpt lat="39.6037310" lon="-7.3025220">
        <ele>211.2</ele>
        <time>2019-07-10T12:59:26Z</time>
      </trkpt>
      <trkpt lat="39.6038530" lon="-7.3023810">
        <ele>212.2</ele>
        <time>2019-07-10T12:59:31Z</time>
      </trkpt>
      <trkpt lat="39.6038820" lon="-7.3023590">
        <ele>212.4</ele>
        <time>2019-07-10T12:59:32Z</time>
      </trkpt>
      <trkpt lat="39.6040150" lon="-7.3023200">
        <ele>213.2</ele>
        <time>2019-07-10T12:59:36Z</time>
      </trkpt>
      <trkpt lat="39.6040500" lon="-7.3023190">
        <ele>213.4</ele>
        <time>2019-07-10T12:59:37Z</time>
      </trkpt>
      <trkpt lat="39.6040820" lon="-7.3023220">
        <ele>213.8</ele>
        <time>2019-07-10T12:59:38Z</time>
      </trkpt>
      <trkpt lat="39.6042440" lon="-7.3023120">
        <ele>214.6</ele>
        <time>2019-07-10T12:59:43Z</time>
      </trkpt>
      <trkpt lat="39.6042730" lon="-7.3022860">
        <ele>214.8</ele>
        <time>2019-07-10T12:59:44Z</time>
      </trkpt>
      <trkpt lat="39.6042930" lon="-7.3022000">
        <ele>215.0</ele>
        <time>2019-07-10T12:59:46Z</time>
      </trkpt>
      <trkpt lat="39.6042730" lon="-7.3020590">
        <ele>215.6</ele>
        <time>2019-07-10T12:59:49Z</time>
      </trkpt>
      <trkpt lat="39.6042470" lon="-7.3019120">
        <ele>216.0</ele>
        <time>2019-07-10T12:59:52Z</time>
      </trkpt>
      <trkpt lat="39.6042380" lon="-7.3018620">
        <ele>216.2</ele>
        <time>2019-07-10T12:59:53Z</time>
      </trkpt>
      <trkpt lat="39.6041960" lon="-7.3016190">
        <ele>217.0</ele>
        <time>2019-07-10T12:59:58Z</time>
      </trkpt>
      <trkpt lat="39.6041960" lon="-7.3014820">
        <ele>217.8</ele>
        <time>2019-07-10T13:00:01Z</time>
      </trkpt>
      <trkpt lat="39.6042160" lon="-7.3013930">
        <ele>218.2</ele>
        <time>2019-07-10T13:00:03Z</time>
      </trkpt>
      <trkpt lat="39.6042830" lon="-7.3012220">
        <ele>219.2</ele>
        <time>2019-07-10T13:00:07Z</time>
      </trkpt>
      <trkpt lat="39.6043070" lon="-7.3011860">
        <ele>219.4</ele>
        <time>2019-07-10T13:00:08Z</time>
      </trkpt>
      <trkpt lat="39.6044370" lon="-7.3010730">
        <ele>220.0</ele>
        <time>2019-07-10T13:00:12Z</time>
      </trkpt>
      <trkpt lat="39.6045910" lon="-7.3009310">
        <ele>220.8</ele>
        <time>2019-07-10T13:00:17Z</time>
      </trkpt>
      <trkpt lat="39.6046510" lon="-7.3008810">
        <ele>221.6</ele>
        <time>2019-07-10T13:00:19Z</time>
      </trkpt>
      <trkpt lat="39.6046790" lon="-7.3008560">
        <ele>221.8</ele>
        <time>2019-07-10T13:00:20Z</time>
      </trkpt>
      <trkpt lat="39.6047660" lon="-7.3007840">
        <ele>223.0</ele>
        <time>2019-07-10T13:00:23Z</time>
      </trkpt>
      <trkpt lat="39.6048540" lon="-7.3006680">
        <ele>223.8</ele>
        <time>2019-07-10T13:00:27Z</time>
      </trkpt>
      <trkpt lat="39.6048760" lon="-7.3006410">
        <ele>224.0</ele>
        <time>2019-07-10T13:00:28Z</time>
      </trkpt>
      <trkpt lat="39.6049450" lon="-7.3005620">
        <ele>225.0</ele>
        <time>2019-07-10T13:00:31Z</time>
      </trkpt>
      <trkpt lat="39.6050490" lon="-7.3004810">
        <ele>226.2</ele>
        <time>2019-07-10T13:00:35Z</time>
      </trkpt>
      <trkpt lat="39.6050800" lon="-7.3004740">
        <ele>226.4</ele>
        <time>2019-07-10T13:00:36Z</time>
      </trkpt>
      <trkpt lat="39.6052010" lon="-7.3004880">
        <ele>227.2</ele>
        <time>2019-07-10T13:00:40Z</time>
      </trkpt>
      <trkpt lat="39.6052300" lon="-7.3004990">
        <ele>227.4</ele>
        <time>2019-07-10T13:00:41Z</time>
      </trkpt>
      <trkpt lat="39.6053150" lon="-7.3005990">
        <ele>228.0</ele>
        <time>2019-07-10T13:00:45Z</time>
      </trkpt>
      <trkpt lat="39.6053470" lon="-7.3007160">
        <ele>228.4</ele>
        <time>2019-07-10T13:00:48Z</time>
      </trkpt>
      <trkpt lat="39.6053710" lon="-7.3008720">
        <ele>229.2</ele>
        <time>2019-07-10T13:00:52Z</time>
      </trkpt>
      <trkpt lat="39.6053750" lon="-7.3009100">
        <ele>229.6</ele>
        <time>2019-07-10T13:00:53Z</time>
      </trkpt>
      <trkpt lat="39.6053820" lon="-7.3010930">
        <ele>230.8</ele>
        <time>2019-07-10T13:00:58Z</time>
      </trkpt>
      <trkpt lat="39.6053820" lon="-7.3012070">
        <ele>231.8</ele>
        <time>2019-07-10T13:01:01Z</time>
      </trkpt>
      <trkpt lat="39.6053600" lon="-7.3013950">
        <ele>232.8</ele>
        <time>2019-07-10T13:01:06Z</time>
      </trkpt>
      <trkpt lat="39.6053400" lon="-7.3014700">
        <ele>233.6</ele>
        <time>2019-07-10T13:01:08Z</time>
      </trkpt>
      <trkpt lat="39.6053110" lon="-7.3015400">
        <ele>233.8</ele>
        <time>2019-07-10T13:01:10Z</time>
      </trkpt>
      <trkpt lat="39.6052500" lon="-7.3017610">
        <ele>235.2</ele>
        <time>2019-07-10T13:01:16Z</time>
      </trkpt>
      <trkpt lat="39.6052140" lon="-7.3019410">
        <ele>236.4</ele>
        <time>2019-07-10T13:01:21Z</time>
      </trkpt>
      <trkpt lat="39.6052120" lon="-7.3020150">
        <ele>236.8</ele>
        <time>2019-07-10T13:01:23Z</time>
      </trkpt>
      <trkpt lat="39.6052520" lon="-7.3021940">
        <ele>237.6</ele>
        <time>2019-07-10T13:01:28Z</time>
      </trkpt>
      <trkpt lat="39.6052810" lon="-7.3022960">
        <ele>238.2</ele>
        <time>2019-07-10T13:01:31Z</time>
      </trkpt>
      <trkpt lat="39.6053050" lon="-7.3023630">
        <ele>238.8</ele>
        <time>2019-07-10T13:01:33Z</time>
      </trkpt>
      <trkpt lat="39.6053640" lon="-7.3024870">
        <ele>240.0</ele>
        <time>2019-07-10T13:01:37Z</time>
      </trkpt>
      <trkpt lat="39.6053970" lon="-7.3025400">
        <ele>240.8</ele>
        <time>2019-07-10T13:01:39Z</time>
      </trkpt>
      <trkpt lat="39.6054360" lon="-7.3025920">
        <ele>241.2</ele>
        <time>2019-07-10T13:01:41Z</time>
      </trkpt>
      <trkpt lat="39.6055380" lon="-7.3027080">
        <ele>242.0</ele>
        <time>2019-07-10T13:01:46Z</time>
      </trkpt>
      <trkpt lat="39.6055610" lon="-7.3027290">
        <ele>242.2</ele>
        <time>2019-07-10T13:01:47Z</time>
      </trkpt>
      <trkpt lat="39.6057120" lon="-7.3027900">
        <ele>243.4</ele>
        <time>2019-07-10T13:01:53Z</time>
      </trkpt>
      <trkpt lat="39.6057410" lon="-7.3027920">
        <ele>243.8</ele>
        <time>2019-07-10T13:01:54Z</time>
      </trkpt>
      <trkpt lat="39.6058790" lon="-7.3027520">
        <ele>244.8</ele>
        <time>2019-07-10T13:01:59Z</time>
      </trkpt>
      <trkpt lat="39.6059070" lon="-7.3027370">
        <ele>245.0</ele>
        <time>2019-07-10T13:02:00Z</time>
      </trkpt>
      <trkpt lat="39.6060410" lon="-7.3026520">
        <ele>246.0</ele>
        <time>2019-07-10T13:02:05Z</time>
      </trkpt>
      <trkpt lat="39.6061470" lon="-7.3025810">
        <ele>247.2</ele>
        <time>2019-07-10T13:02:09Z</time>
      </trkpt>
      <trkpt lat="39.6062320" lon="-7.3025760">
        <ele>248.0</ele>
        <time>2019-07-10T13:02:12Z</time>
      </trkpt>
      <trkpt lat="39.6062580" lon="-7.3025920">
        <ele>248.2</ele>
        <time>2019-07-10T13:02:13Z</time>
      </trkpt>
      <trkpt lat="39.6063150" lon="-7.3026700">
        <ele>248.8</ele>
        <time>2019-07-10T13:02:16Z</time>
      </trkpt>
      <trkpt lat="39.6063130" lon="-7.3027370">
        <ele>249.4</ele>
        <time>2019-07-10T13:02:18Z</time>
      </trkpt>
      <trkpt lat="39.6062870" lon="-7.3028030">
        <ele>249.6</ele>
        <time>2019-07-10T13:02:20Z</time>
      </trkpt>
      <trkpt lat="39.6062500" lon="-7.3028670">
        <ele>250.4</ele>
        <time>2019-07-10T13:02:22Z</time>
      </trkpt>
      <trkpt lat="39.6061400" lon="-7.3030060">
        <ele>251.4</ele>
        <time>2019-07-10T13:02:27Z</time>
      </trkpt>
      <trkpt lat="39.6061150" lon="-7.3030290">
        <ele>251.6</ele>
        <time>2019-07-10T13:02:28Z</time>
      </trkpt>
      <trkpt lat="39.6060360" lon="-7.3030840">
        <ele>252.4</ele>
        <time>2019-07-10T13:02:31Z</time>
      </trkpt>
      <trkpt lat="39.6059310" lon="-7.3031470">
        <ele>253.6</ele>
        <time>2019-07-10T13:02:35Z</time>
      </trkpt>
      <trkpt lat="39.6058250" lon="-7.3032090">
        <ele>254.8</ele>
        <time>2019-07-10T13:02:39Z</time>
      </trkpt>
      <trkpt lat="39.6057420" lon="-7.3032510">
        <ele>255.2</ele>
        <time>2019-07-10T13:02:42Z</time>
      </trkpt>
      <trkpt lat="39.6056570" lon="-7.3032930">
        <ele>256.0</ele>
        <time>2019-07-10T13:02:45Z</time>
      </trkpt>
      <trkpt lat="39.6055220" lon="-7.3033770">
        <ele>257.0</ele>
        <time>2019-07-10T13:02:50Z</time>
      </trkpt>
      <trkpt lat="39.6054980" lon="-7.3034020">
        <ele>257.2</ele>
        <time>2019-07-10T13:02:51Z</time>
      </trkpt>
      <trkpt lat="39.6054050" lon="-7.3035060">
        <ele>258.2</ele>
        <time>2019-07-10T13:02:55Z</time>
      </trkpt>
      <trkpt lat="39.6053640" lon="-7.3035630">
        <ele>259.0</ele>
        <time>2019-07-10T13:02:57Z</time>
      </trkpt>
      <trkpt lat="39.6053190" lon="-7.3036630">
        <ele>259.6</ele>
        <time>2019-07-10T13:03:00Z</time>
      </trkpt>
      <trkpt lat="39.6052720" lon="-7.3038110">
        <ele>260.4</ele>
        <time>2019-07-10T13:03:04Z</time>
      </trkpt>
      <trkpt lat="39.6052590" lon="-7.3038490">
        <ele>260.6</ele>
        <time>2019-07-10T13:03:05Z</time>
      </trkpt>
      <trkpt lat="39.6052090" lon="-7.3040600">
        <ele>261.4</ele>
        <time>2019-07-10T13:03:10Z</time>
      </trkpt>
      <trkpt lat="39.6051650" lon="-7.3041890">
        <ele>261.8</ele>
        <time>2019-07-10T13:03:13Z</time>
      </trkpt>
      <trkpt lat="39.6051110" lon="-7.3043740">
        <ele>262.2</ele>
        <time>2019-07-10T13:03:17Z</time>
      </trkpt>
      <trkpt lat="39.6050020" lon="-7.3045870">
        <ele>262.8</ele>
        <time>2019-07-10T13:03:22Z</time>
      </trkpt>
      <trkpt lat="39.6049430" lon="-7.3046650">
        <ele>263.0</ele>
        <time>2019-07-10T13:03:24Z</time>
      </trkpt>
      <trkpt lat="39.6047510" lon="-7.3048750">
        <ele>263.2</ele>
        <time>2019-07-10T13:03:30Z</time>
      </trkpt>
      <trkpt lat="39.6046860" lon="-7.3049410">
        <ele>263.4</ele>
        <time>2019-07-10T13:03:32Z</time>
      </trkpt>
      <trkpt lat="39.6046550" lon="-7.3049770">
        <ele>263.4</ele>
        <time>2019-07-10T13:03:33Z</time>
      </trkpt>
      <trkpt lat="39.6045870" lon="-7.3050450">
        <ele>263.8</ele>
        <time>2019-07-10T13:03:35Z</time>
      </trkpt>
      <trkpt lat="39.6045150" lon="-7.3051070">
        <ele>264.0</ele>
        <time>2019-07-10T13:03:37Z</time>
      </trkpt>
      <trkpt lat="39.6044130" lon="-7.3052100">
        <ele>264.2</ele>
        <time>2019-07-10T13:03:40Z</time>
      </trkpt>
      <trkpt lat="39.6042040" lon="-7.3053990">
        <ele>265.2</ele>
        <time>2019-07-10T13:03:46Z</time>
      </trkpt>
      <trkpt lat="39.6041430" lon="-7.3054550">
        <ele>265.8</ele>
        <time>2019-07-10T13:03:48Z</time>
      </trkpt>
      <trkpt lat="39.6041120" lon="-7.3054830">
        <ele>266.2</ele>
        <time>2019-07-10T13:03:49Z</time>
      </trkpt>
      <trkpt lat="39.6040250" lon="-7.3055750">
        <ele>267.4</ele>
        <time>2019-07-10T13:03:52Z</time>
      </trkpt>
      <trkpt lat="39.6039380" lon="-7.3056600">
        <ele>268.6</ele>
        <time>2019-07-10T13:03:55Z</time>
      </trkpt>
      <trkpt lat="39.6037830" lon="-7.3058160">
        <ele>269.8</ele>
        <time>2019-07-10T13:04:00Z</time>
      </trkpt>
      <trkpt lat="39.6036780" lon="-7.3059110">
        <ele>270.0</ele>
        <time>2019-07-10T13:04:03Z</time>
      </trkpt>
      <trkpt lat="39.6034340" lon="-7.3061430">
        <ele>269.6</ele>
        <time>2019-07-10T13:04:09Z</time>
      </trkpt>
      <trkpt lat="39.6032830" lon="-7.3062830">
        <ele>269.0</ele>
        <time>2019-07-10T13:04:12Z</time>
      </trkpt>
      <trkpt lat="39.6031840" lon="-7.3064130">
        <ele>268.8</ele>
        <time>2019-07-10T13:04:14Z</time>
      </trkpt>
      <trkpt lat="39.6031400" lon="-7.3064920">
        <ele>268.6</ele>
        <time>2019-07-10T13:04:15Z</time>
      </trkpt>
      <trkpt lat="39.6030730" lon="-7.3066830">
        <ele>267.8</ele>
        <time>2019-07-10T13:04:17Z</time>
      </trkpt>
      <trkpt lat="39.6030510" lon="-7.3067910">
        <ele>267.2</ele>
        <time>2019-07-10T13:04:18Z</time>
      </trkpt>
      <trkpt lat="39.6030320" lon="-7.3069050">
        <ele>266.6</ele>
        <time>2019-07-10T13:04:19Z</time>
      </trkpt>
      <trkpt lat="39.6030140" lon="-7.3070210">
        <ele>266.2</ele>
        <time>2019-07-10T13:04:20Z</time>
      </trkpt>
      <trkpt lat="39.6029970" lon="-7.3071360">
        <ele>265.8</ele>
        <time>2019-07-10T13:04:21Z</time>
      </trkpt>
      <trkpt lat="39.6029810" lon="-7.3072490">
        <ele>265.4</ele>
        <time>2019-07-10T13:04:22Z</time>
      </trkpt>
      <trkpt lat="39.6029670" lon="-7.3073570">
        <ele>265.2</ele>
        <time>2019-07-10T13:04:23Z</time>
      </trkpt>
      <trkpt lat="39.6029540" lon="-7.3074600">
        <ele>264.8</ele>
        <time>2019-07-10T13:04:24Z</time>
      </trkpt>
      <trkpt lat="39.6029290" lon="-7.3076450">
        <ele>264.6</ele>
        <time>2019-07-10T13:04:26Z</time>
      </trkpt>
      <trkpt lat="39.6029160" lon="-7.3077280">
        <ele>264.8</ele>
        <time>2019-07-10T13:04:27Z</time>
      </trkpt>
      <trkpt lat="39.6028850" lon="-7.3079510">
        <ele>265.2</ele>
        <time>2019-07-10T13:04:30Z</time>
      </trkpt>
      <trkpt lat="39.6028600" lon="-7.3081530">
        <ele>265.8</ele>
        <time>2019-07-10T13:04:33Z</time>
      </trkpt>
      <trkpt lat="39.6028390" lon="-7.3083450">
        <ele>266.2</ele>
        <time>2019-07-10T13:04:36Z</time>
      </trkpt>
      <trkpt lat="39.6028030" lon="-7.3085790">
        <ele>267.4</ele>
        <time>2019-07-10T13:04:40Z</time>
      </trkpt>
      <trkpt lat="39.6027880" lon="-7.3086840">
        <ele>267.6</ele>
        <time>2019-07-10T13:04:42Z</time>
      </trkpt>
      <trkpt lat="39.6027670" lon="-7.3088860">
        <ele>268.4</ele>
        <time>2019-07-10T13:04:46Z</time>
      </trkpt>
      <trkpt lat="39.6027520" lon="-7.3090320">
        <ele>269.0</ele>
        <time>2019-07-10T13:04:49Z</time>
      </trkpt>
      <trkpt lat="39.6027440" lon="-7.3091290">
        <ele>269.6</ele>
        <time>2019-07-10T13:04:51Z</time>
      </trkpt>
      <trkpt lat="39.6027250" lon="-7.3092640">
        <ele>270.4</ele>
        <time>2019-07-10T13:04:54Z</time>
      </trkpt>
      <trkpt lat="39.6027130" lon="-7.3093490">
        <ele>270.8</ele>
        <time>2019-07-10T13:04:56Z</time>
      </trkpt>
      <trkpt lat="39.6027010" lon="-7.3094350">
        <ele>271.4</ele>
        <time>2019-07-10T13:04:58Z</time>
      </trkpt>
      <trkpt lat="39.6026950" lon="-7.3094800">
        <ele>271.8</ele>
        <time>2019-07-10T13:04:59Z</time>
      </trkpt>
      <trkpt lat="39.6026810" lon="-7.3096110">
        <ele>272.6</ele>
        <time>2019-07-10T13:05:02Z</time>
      </trkpt>
      <trkpt lat="39.6026720" lon="-7.3096960">
        <ele>273.0</ele>
        <time>2019-07-10T13:05:04Z</time>
      </trkpt>
      <trkpt lat="39.6026600" lon="-7.3097830">
        <ele>273.8</ele>
        <time>2019-07-10T13:05:06Z</time>
      </trkpt>
      <trkpt lat="39.6026510" lon="-7.3098250">
        <ele>274.4</ele>
        <time>2019-07-10T13:05:07Z</time>
      </trkpt>
      <trkpt lat="39.6026310" lon="-7.3099890">
        <ele>275.8</ele>
        <time>2019-07-10T13:05:11Z</time>
      </trkpt>
      <trkpt lat="39.6026100" lon="-7.3101420">
        <ele>277.0</ele>
        <time>2019-07-10T13:05:15Z</time>
      </trkpt>
      <trkpt lat="39.6026030" lon="-7.3102510">
        <ele>278.0</ele>
        <time>2019-07-10T13:05:18Z</time>
      </trkpt>
      <trkpt lat="39.6025840" lon="-7.3103780">
        <ele>279.0</ele>
        <time>2019-07-10T13:05:22Z</time>
      </trkpt>
      <trkpt lat="39.6025740" lon="-7.3104750">
        <ele>279.8</ele>
        <time>2019-07-10T13:05:25Z</time>
      </trkpt>
      <trkpt lat="39.6025620" lon="-7.3105440">
        <ele>280.4</ele>
        <time>2019-07-10T13:05:27Z</time>
      </trkpt>
      <trkpt lat="39.6025380" lon="-7.3107190">
        <ele>281.6</ele>
        <time>2019-07-10T13:05:32Z</time>
      </trkpt>
      <trkpt lat="39.6025290" lon="-7.3107880">
        <ele>282.2</ele>
        <time>2019-07-10T13:05:34Z</time>
      </trkpt>
      <trkpt lat="39.6025210" lon="-7.3108590">
        <ele>282.6</ele>
        <time>2019-07-10T13:05:36Z</time>
      </trkpt>
      <trkpt lat="39.6024900" lon="-7.3110440">
        <ele>283.2</ele>
        <time>2019-07-10T13:05:41Z</time>
      </trkpt>
      <trkpt lat="39.6024780" lon="-7.3111650">
        <ele>283.8</ele>
        <time>2019-07-10T13:05:44Z</time>
      </trkpt>
      <trkpt lat="39.6024750" lon="-7.3113500">
        <ele>284.4</ele>
        <time>2019-07-10T13:05:48Z</time>
      </trkpt>
      <trkpt lat="39.6024670" lon="-7.3117010">
        <ele>285.0</ele>
        <time>2019-07-10T13:05:55Z</time>
      </trkpt>
      <trkpt lat="39.6024640" lon="-7.3117550">
        <ele>285.0</ele>
        <time>2019-07-10T13:05:56Z</time>
      </trkpt>
      <trkpt lat="39.6024580" lon="-7.3118080">
        <ele>285.0</ele>
        <time>2019-07-10T13:05:57Z</time>
      </trkpt>
      <trkpt lat="39.6024180" lon="-7.3120380">
        <ele>285.4</ele>
        <time>2019-07-10T13:06:01Z</time>
      </trkpt>
      <trkpt lat="39.6024080" lon="-7.3121010">
        <ele>285.4</ele>
        <time>2019-07-10T13:06:02Z</time>
      </trkpt>
      <trkpt lat="39.6023850" lon="-7.3122940">
        <ele>285.6</ele>
        <time>2019-07-10T13:06:05Z</time>
      </trkpt>
      <trkpt lat="39.6023700" lon="-7.3124310">
        <ele>285.6</ele>
        <time>2019-07-10T13:06:07Z</time>
      </trkpt>
      <trkpt lat="39.6023480" lon="-7.3125700">
        <ele>285.4</ele>
        <time>2019-07-10T13:06:09Z</time>
      </trkpt>
      <trkpt lat="39.6023130" lon="-7.3127860">
        <ele>285.2</ele>
        <time>2019-07-10T13:06:12Z</time>
      </trkpt>
      <trkpt lat="39.6022890" lon="-7.3129330">
        <ele>285.2</ele>
        <time>2019-07-10T13:06:14Z</time>
      </trkpt>
      <trkpt lat="39.6022490" lon="-7.3131630">
        <ele>285.0</ele>
        <time>2019-07-10T13:06:17Z</time>
      </trkpt>
      <trkpt lat="39.6022370" lon="-7.3132430">
        <ele>285.0</ele>
        <time>2019-07-10T13:06:18Z</time>
      </trkpt>
      <trkpt lat="39.6022070" lon="-7.3134070">
        <ele>284.8</ele>
        <time>2019-07-10T13:06:20Z</time>
      </trkpt>
      <trkpt lat="39.6021560" lon="-7.3136700">
        <ele>284.2</ele>
        <time>2019-07-10T13:06:23Z</time>
      </trkpt>
      <trkpt lat="39.6021200" lon="-7.3138500">
        <ele>284.0</ele>
        <time>2019-07-10T13:06:25Z</time>
      </trkpt>
      <trkpt lat="39.6021060" lon="-7.3139420">
        <ele>283.6</ele>
        <time>2019-07-10T13:06:26Z</time>
      </trkpt>
      <trkpt lat="39.6020970" lon="-7.3140360">
        <ele>283.0</ele>
        <time>2019-07-10T13:06:27Z</time>
      </trkpt>
      <trkpt lat="39.6020920" lon="-7.3141310">
        <ele>282.6</ele>
        <time>2019-07-10T13:06:28Z</time>
      </trkpt>
      <trkpt lat="39.6021000" lon="-7.3144040">
        <ele>282.2</ele>
        <time>2019-07-10T13:06:31Z</time>
      </trkpt>
      <trkpt lat="39.6021170" lon="-7.3145760">
        <ele>282.2</ele>
        <time>2019-07-10T13:06:33Z</time>
      </trkpt>
      <trkpt lat="39.6021590" lon="-7.3148820">
        <ele>283.2</ele>
        <time>2019-07-10T13:06:37Z</time>
      </trkpt>
      <trkpt lat="39.6021820" lon="-7.3150860">
        <ele>283.6</ele>
        <time>2019-07-10T13:06:40Z</time>
      </trkpt>
      <trkpt lat="39.6021890" lon="-7.3151480">
        <ele>283.8</ele>
        <time>2019-07-10T13:06:41Z</time>
      </trkpt>
      <trkpt lat="39.6022030" lon="-7.3152700">
        <ele>284.2</ele>
        <time>2019-07-10T13:06:43Z</time>
      </trkpt>
      <trkpt lat="39.6022100" lon="-7.3153300">
        <ele>284.6</ele>
        <time>2019-07-10T13:06:44Z</time>
      </trkpt>
      <trkpt lat="39.6022200" lon="-7.3154440">
        <ele>285.0</ele>
        <time>2019-07-10T13:06:46Z</time>
      </trkpt>
      <trkpt lat="39.6022380" lon="-7.3156070">
        <ele>286.0</ele>
        <time>2019-07-10T13:06:49Z</time>
      </trkpt>
      <trkpt lat="39.6022440" lon="-7.3156610">
        <ele>286.2</ele>
        <time>2019-07-10T13:06:50Z</time>
      </trkpt>
      <trkpt lat="39.6022590" lon="-7.3158190">
        <ele>287.4</ele>
        <time>2019-07-10T13:06:53Z</time>
      </trkpt>
      <trkpt lat="39.6022630" lon="-7.3158690">
        <ele>287.6</ele>
        <time>2019-07-10T13:06:54Z</time>
      </trkpt>
      <trkpt lat="39.6022720" lon="-7.3160140">
        <ele>288.4</ele>
        <time>2019-07-10T13:06:57Z</time>
      </trkpt>
      <trkpt lat="39.6022770" lon="-7.3161500">
        <ele>289.4</ele>
        <time>2019-07-10T13:07:00Z</time>
      </trkpt>
      <trkpt lat="39.6022750" lon="-7.3161940">
        <ele>289.6</ele>
        <time>2019-07-10T13:07:01Z</time>
      </trkpt>
      <trkpt lat="39.6022730" lon="-7.3162380">
        <ele>289.8</ele>
        <time>2019-07-10T13:07:02Z</time>
      </trkpt>
      <trkpt lat="39.6022620" lon="-7.3163800">
        <ele>290.2</ele>
        <time>2019-07-10T13:07:05Z</time>
      </trkpt>
      <trkpt lat="39.6022230" lon="-7.3165690">
        <ele>290.6</ele>
        <time>2019-07-10T13:07:09Z</time>
      </trkpt>
      <trkpt lat="39.6021700" lon="-7.3169030">
        <ele>291.8</ele>
        <time>2019-07-10T13:07:16Z</time>
      </trkpt>
      <trkpt lat="39.6021740" lon="-7.3169490">
        <ele>292.0</ele>
        <time>2019-07-10T13:07:17Z</time>
      </trkpt>
      <trkpt lat="39.6022410" lon="-7.3171320">
        <ele>292.2</ele>
        <time>2019-07-10T13:07:21Z</time>
      </trkpt>
      <trkpt lat="39.6022650" lon="-7.3171750">
        <ele>292.4</ele>
        <time>2019-07-10T13:07:22Z</time>
      </trkpt>
      <trkpt lat="39.6024070" lon="-7.3173860">
        <ele>293.0</ele>
        <time>2019-07-10T13:07:27Z</time>
      </trkpt>
      <trkpt lat="39.6025770" lon="-7.3176440">
        <ele>293.0</ele>
        <time>2019-07-10T13:07:33Z</time>
      </trkpt>
      <trkpt lat="39.6026680" lon="-7.3177880">
        <ele>293.2</ele>
        <time>2019-07-10T13:07:36Z</time>
      </trkpt>
      <trkpt lat="39.6027280" lon="-7.3178890">
        <ele>293.0</ele>
        <time>2019-07-10T13:07:38Z</time>
      </trkpt>
      <trkpt lat="39.6027950" lon="-7.3179910">
        <ele>292.4</ele>
        <time>2019-07-10T13:07:40Z</time>
      </trkpt>
      <trkpt lat="39.6028650" lon="-7.3180990">
        <ele>292.0</ele>
        <time>2019-07-10T13:07:42Z</time>
      </trkpt>
      <trkpt lat="39.6029020" lon="-7.3181550">
        <ele>291.8</ele>
        <time>2019-07-10T13:07:43Z</time>
      </trkpt>
      <trkpt lat="39.6029410" lon="-7.3182130">
        <ele>291.6</ele>
        <time>2019-07-10T13:07:44Z</time>
      </trkpt>
      <trkpt lat="39.6030660" lon="-7.3184030">
        <ele>290.8</ele>
        <time>2019-07-10T13:07:47Z</time>
      </trkpt>
      <trkpt lat="39.6031500" lon="-7.3185420">
        <ele>290.0</ele>
        <time>2019-07-10T13:07:49Z</time>
      </trkpt>
      <trkpt lat="39.6031910" lon="-7.3186180">
        <ele>289.8</ele>
        <time>2019-07-10T13:07:50Z</time>
      </trkpt>
      <trkpt lat="39.6032280" lon="-7.3187020">
        <ele>289.4</ele>
        <time>2019-07-10T13:07:51Z</time>
      </trkpt>
      <trkpt lat="39.6032750" lon="-7.3188920">
        <ele>288.8</ele>
        <time>2019-07-10T13:07:53Z</time>
      </trkpt>
      <trkpt lat="39.6032870" lon="-7.3189960">
        <ele>288.4</ele>
        <time>2019-07-10T13:07:54Z</time>
      </trkpt>
      <trkpt lat="39.6032950" lon="-7.3191050">
        <ele>288.0</ele>
        <time>2019-07-10T13:07:55Z</time>
      </trkpt>
      <trkpt lat="39.6033000" lon="-7.3192170">
        <ele>287.4</ele>
        <time>2019-07-10T13:07:56Z</time>
      </trkpt>
      <trkpt lat="39.6033070" lon="-7.3194590">
        <ele>286.0</ele>
        <time>2019-07-10T13:07:58Z</time>
      </trkpt>
      <trkpt lat="39.6033130" lon="-7.3197230">
        <ele>284.8</ele>
        <time>2019-07-10T13:08:00Z</time>
      </trkpt>
      <trkpt lat="39.6033120" lon="-7.3198630">
        <ele>284.0</ele>
        <time>2019-07-10T13:08:01Z</time>
      </trkpt>
      <trkpt lat="39.6033110" lon="-7.3200070">
        <ele>282.8</ele>
        <time>2019-07-10T13:08:02Z</time>
      </trkpt>
      <trkpt lat="39.6033090" lon="-7.3201540">
        <ele>282.2</ele>
        <time>2019-07-10T13:08:03Z</time>
      </trkpt>
      <trkpt lat="39.6033080" lon="-7.3203000">
        <ele>281.4</ele>
        <time>2019-07-10T13:08:04Z</time>
      </trkpt>
      <trkpt lat="39.6033110" lon="-7.3205870">
        <ele>280.0</ele>
        <time>2019-07-10T13:08:06Z</time>
      </trkpt>
      <trkpt lat="39.6033330" lon="-7.3208770">
        <ele>278.8</ele>
        <time>2019-07-10T13:08:08Z</time>
      </trkpt>
      <trkpt lat="39.6033540" lon="-7.3210190">
        <ele>277.8</ele>
        <time>2019-07-10T13:08:09Z</time>
      </trkpt>
      <trkpt lat="39.6034140" lon="-7.3212940">
        <ele>276.4</ele>
        <time>2019-07-10T13:08:11Z</time>
      </trkpt>
      <trkpt lat="39.6034970" lon="-7.3215590">
        <ele>274.6</ele>
        <time>2019-07-10T13:08:13Z</time>
      </trkpt>
      <trkpt lat="39.6035540" lon="-7.3216860">
        <ele>273.8</ele>
        <time>2019-07-10T13:08:14Z</time>
      </trkpt>
      <trkpt lat="39.6036210" lon="-7.3218110">
        <ele>272.8</ele>
        <time>2019-07-10T13:08:15Z</time>
      </trkpt>
      <trkpt lat="39.6036910" lon="-7.3219360">
        <ele>271.8</ele>
        <time>2019-07-10T13:08:16Z</time>
      </trkpt>
      <trkpt lat="39.6038320" lon="-7.3221910">
        <ele>270.0</ele>
        <time>2019-07-10T13:08:18Z</time>
      </trkpt>
      <trkpt lat="39.6039020" lon="-7.3223180">
        <ele>268.8</ele>
        <time>2019-07-10T13:08:19Z</time>
      </trkpt>
      <trkpt lat="39.6040430" lon="-7.3225610">
        <ele>267.2</ele>
        <time>2019-07-10T13:08:21Z</time>
      </trkpt>
      <trkpt lat="39.6041830" lon="-7.3228070">
        <ele>265.4</ele>
        <time>2019-07-10T13:08:23Z</time>
      </trkpt>
      <trkpt lat="39.6043060" lon="-7.3230670">
        <ele>263.6</ele>
        <time>2019-07-10T13:08:25Z</time>
      </trkpt>
      <trkpt lat="39.6043950" lon="-7.3233440">
        <ele>262.0</ele>
        <time>2019-07-10T13:08:27Z</time>
      </trkpt>
      <trkpt lat="39.6044630" lon="-7.3236050">
        <ele>260.8</ele>
        <time>2019-07-10T13:08:29Z</time>
      </trkpt>
      <trkpt lat="39.6045170" lon="-7.3238610">
        <ele>259.8</ele>
        <time>2019-07-10T13:08:31Z</time>
      </trkpt>
      <trkpt lat="39.6045620" lon="-7.3241090">
        <ele>258.8</ele>
        <time>2019-07-10T13:08:33Z</time>
      </trkpt>
      <trkpt lat="39.6045730" lon="-7.3242310">
        <ele>258.4</ele>
        <time>2019-07-10T13:08:34Z</time>
      </trkpt>
      <trkpt lat="39.6045670" lon="-7.3243500">
        <ele>257.6</ele>
        <time>2019-07-10T13:08:35Z</time>
      </trkpt>
      <trkpt lat="39.6044960" lon="-7.3245710">
        <ele>256.6</ele>
        <time>2019-07-10T13:08:37Z</time>
      </trkpt>
      <trkpt lat="39.6044410" lon="-7.3246690">
        <ele>256.2</ele>
        <time>2019-07-10T13:08:38Z</time>
      </trkpt>
      <trkpt lat="39.6043840" lon="-7.3247580">
        <ele>255.6</ele>
        <time>2019-07-10T13:08:39Z</time>
      </trkpt>
      <trkpt lat="39.6043300" lon="-7.3248400">
        <ele>255.2</ele>
        <time>2019-07-10T13:08:40Z</time>
      </trkpt>
      <trkpt lat="39.6042400" lon="-7.3249840">
        <ele>255.0</ele>
        <time>2019-07-10T13:08:42Z</time>
      </trkpt>
      <trkpt lat="39.6041630" lon="-7.3251100">
        <ele>255.6</ele>
        <time>2019-07-10T13:08:44Z</time>
      </trkpt>
      <trkpt lat="39.6040910" lon="-7.3252090">
        <ele>256.4</ele>
        <time>2019-07-10T13:08:46Z</time>
      </trkpt>
      <trkpt lat="39.6040580" lon="-7.3252530">
        <ele>256.6</ele>
        <time>2019-07-10T13:08:47Z</time>
      </trkpt>
      <trkpt lat="39.6040050" lon="-7.3253340">
        <ele>257.2</ele>
        <time>2019-07-10T13:08:49Z</time>
      </trkpt>
      <trkpt lat="39.6039820" lon="-7.3253720">
        <ele>257.6</ele>
        <time>2019-07-10T13:08:50Z</time>
      </trkpt>
      <trkpt lat="39.6039320" lon="-7.3254440">
        <ele>258.0</ele>
        <time>2019-07-10T13:08:52Z</time>
      </trkpt>
      <trkpt lat="39.6039070" lon="-7.3254790">
        <ele>258.6</ele>
        <time>2019-07-10T13:08:53Z</time>
      </trkpt>
      <trkpt lat="39.6038820" lon="-7.3255150">
        <ele>258.8</ele>
        <time>2019-07-10T13:08:54Z</time>
      </trkpt>
      <trkpt lat="39.6038150" lon="-7.3256220">
        <ele>259.8</ele>
        <time>2019-07-10T13:08:57Z</time>
      </trkpt>
      <trkpt lat="39.6037920" lon="-7.3256550">
        <ele>260.2</ele>
        <time>2019-07-10T13:08:58Z</time>
      </trkpt>
      <trkpt lat="39.6037460" lon="-7.3257200">
        <ele>260.8</ele>
        <time>2019-07-10T13:09:00Z</time>
      </trkpt>
      <trkpt lat="39.6037040" lon="-7.3257890">
        <ele>261.2</ele>
        <time>2019-07-10T13:09:02Z</time>
      </trkpt>
      <trkpt lat="39.6036410" lon="-7.3258930">
        <ele>261.8</ele>
        <time>2019-07-10T13:09:05Z</time>
      </trkpt>
      <trkpt lat="39.6035950" lon="-7.3259580">
        <ele>262.2</ele>
        <time>2019-07-10T13:09:07Z</time>
      </trkpt>
      <trkpt lat="39.6035700" lon="-7.3259910">
        <ele>262.4</ele>
        <time>2019-07-10T13:09:08Z</time>
      </trkpt>
      <trkpt lat="39.6034590" lon="-7.3261660">
        <ele>263.2</ele>
        <time>2019-07-10T13:09:13Z</time>
      </trkpt>
      <trkpt lat="39.6033870" lon="-7.3262680">
        <ele>263.8</ele>
        <time>2019-07-10T13:09:16Z</time>
      </trkpt>
      <trkpt lat="39.6033410" lon="-7.3263400">
        <ele>264.4</ele>
        <time>2019-07-10T13:09:18Z</time>
      </trkpt>
      <trkpt lat="39.6032100" lon="-7.3265470">
        <ele>265.2</ele>
        <time>2019-07-10T13:09:24Z</time>
      </trkpt>
      <trkpt lat="39.6031630" lon="-7.3266100">
        <ele>265.6</ele>
        <time>2019-07-10T13:09:26Z</time>
      </trkpt>
      <trkpt lat="39.6030680" lon="-7.3267870">
        <ele>266.4</ele>
        <time>2019-07-10T13:09:31Z</time>
      </trkpt>
      <trkpt lat="39.6030300" lon="-7.3268580">
        <ele>266.8</ele>
        <time>2019-07-10T13:09:33Z</time>
      </trkpt>
      <trkpt lat="39.6029910" lon="-7.3270250">
        <ele>267.6</ele>
        <time>2019-07-10T13:09:37Z</time>
      </trkpt>
      <trkpt lat="39.6029950" lon="-7.3271150">
        <ele>267.8</ele>
        <time>2019-07-10T13:09:39Z</time>
      </trkpt>
      <trkpt lat="39.6030380" lon="-7.3272500">
        <ele>268.4</ele>
        <time>2019-07-10T13:09:42Z</time>
      </trkpt>
      <trkpt lat="39.6031190" lon="-7.3274860">
        <ele>269.0</ele>
        <time>2019-07-10T13:09:47Z</time>
      </trkpt>
      <trkpt lat="39.6032070" lon="-7.3277230">
        <ele>269.4</ele>
        <time>2019-07-10T13:09:52Z</time>
      </trkpt>
      <trkpt lat="39.6032570" lon="-7.3278700">
        <ele>270.0</ele>
        <time>2019-07-10T13:09:55Z</time>
      </trkpt>
      <trkpt lat="39.6033350" lon="-7.3281590">
        <ele>270.4</ele>
        <time>2019-07-10T13:10:01Z</time>
      </trkpt>
      <trkpt lat="39.6033440" lon="-7.3283580">
        <ele>271.2</ele>
        <time>2019-07-10T13:10:05Z</time>
      </trkpt>
      <trkpt lat="39.6033430" lon="-7.3285060">
        <ele>271.6</ele>
        <time>2019-07-10T13:10:08Z</time>
      </trkpt>
      <trkpt lat="39.6033460" lon="-7.3286530">
        <ele>272.2</ele>
        <time>2019-07-10T13:10:11Z</time>
      </trkpt>
      <trkpt lat="39.6033340" lon="-7.3288980">
        <ele>273.0</ele>
        <time>2019-07-10T13:10:16Z</time>
      </trkpt>
      <trkpt lat="39.6033320" lon="-7.3289480">
        <ele>273.4</ele>
        <time>2019-07-10T13:10:17Z</time>
      </trkpt>
      <trkpt lat="39.6033250" lon="-7.3291980">
        <ele>274.6</ele>
        <time>2019-07-10T13:10:22Z</time>
      </trkpt>
      <trkpt lat="39.6033190" lon="-7.3292980">
        <ele>275.0</ele>
        <time>2019-07-10T13:10:24Z</time>
      </trkpt>
      <trkpt lat="39.6033300" lon="-7.3295480">
        <ele>275.6</ele>
        <time>2019-07-10T13:10:29Z</time>
      </trkpt>
      <trkpt lat="39.6033350" lon="-7.3297020">
        <ele>276.4</ele>
        <time>2019-07-10T13:10:32Z</time>
      </trkpt>
      <trkpt lat="39.6033390" lon="-7.3298070">
        <ele>276.6</ele>
        <time>2019-07-10T13:10:34Z</time>
      </trkpt>
      <trkpt lat="39.6033520" lon="-7.3300090">
        <ele>277.8</ele>
        <time>2019-07-10T13:10:38Z</time>
      </trkpt>
      <trkpt lat="39.6033650" lon="-7.3301560">
        <ele>278.4</ele>
        <time>2019-07-10T13:10:41Z</time>
      </trkpt>
      <trkpt lat="39.6033670" lon="-7.3303030">
        <ele>278.8</ele>
        <time>2019-07-10T13:10:44Z</time>
      </trkpt>
      <trkpt lat="39.6033820" lon="-7.3305030">
        <ele>279.6</ele>
        <time>2019-07-10T13:10:48Z</time>
      </trkpt>
      <trkpt lat="39.6033840" lon="-7.3306540">
        <ele>279.8</ele>
        <time>2019-07-10T13:10:51Z</time>
      </trkpt>
      <trkpt lat="39.6033860" lon="-7.3308470">
        <ele>281.0</ele>
        <time>2019-07-10T13:10:55Z</time>
      </trkpt>
      <trkpt lat="39.6033880" lon="-7.3310370">
        <ele>282.0</ele>
        <time>2019-07-10T13:10:59Z</time>
      </trkpt>
      <trkpt lat="39.6033680" lon="-7.3312220">
        <ele>282.8</ele>
        <time>2019-07-10T13:11:03Z</time>
      </trkpt>
      <trkpt lat="39.6033610" lon="-7.3312680">
        <ele>283.2</ele>
        <time>2019-07-10T13:11:04Z</time>
      </trkpt>
      <trkpt lat="39.6033230" lon="-7.3314450">
        <ele>284.4</ele>
        <time>2019-07-10T13:11:08Z</time>
      </trkpt>
      <trkpt lat="39.6033020" lon="-7.3315310">
        <ele>284.8</ele>
        <time>2019-07-10T13:11:10Z</time>
      </trkpt>
      <trkpt lat="39.6032610" lon="-7.3316540">
        <ele>285.4</ele>
        <time>2019-07-10T13:11:13Z</time>
      </trkpt>
      <trkpt lat="39.6032040" lon="-7.3318150">
        <ele>286.6</ele>
        <time>2019-07-10T13:11:17Z</time>
      </trkpt>
      <trkpt lat="39.6031880" lon="-7.3318530">
        <ele>286.8</ele>
        <time>2019-07-10T13:11:18Z</time>
      </trkpt>
      <trkpt lat="39.6031360" lon="-7.3319690">
        <ele>287.6</ele>
        <time>2019-07-10T13:11:21Z</time>
      </trkpt>
      <trkpt lat="39.6030620" lon="-7.3321650">
        <ele>288.8</ele>
        <time>2019-07-10T13:11:26Z</time>
      </trkpt>
      <trkpt lat="39.6030490" lon="-7.3322050">
        <ele>289.0</ele>
        <time>2019-07-10T13:11:27Z</time>
      </trkpt>
      <trkpt lat="39.6029810" lon="-7.3323570">
        <ele>290.0</ele>
        <time>2019-07-10T13:11:31Z</time>
      </trkpt>
      <trkpt lat="39.6029250" lon="-7.3325140">
        <ele>291.2</ele>
        <time>2019-07-10T13:11:35Z</time>
      </trkpt>
      <trkpt lat="39.6029140" lon="-7.3325540">
        <ele>291.4</ele>
        <time>2019-07-10T13:11:36Z</time>
      </trkpt>
      <trkpt lat="39.6028710" lon="-7.3326720">
        <ele>292.2</ele>
        <time>2019-07-10T13:11:39Z</time>
      </trkpt>
      <trkpt lat="39.6028100" lon="-7.3328260">
        <ele>293.4</ele>
        <time>2019-07-10T13:11:43Z</time>
      </trkpt>
      <trkpt lat="39.6027500" lon="-7.3329760">
        <ele>294.4</ele>
        <time>2019-07-10T13:11:47Z</time>
      </trkpt>
      <trkpt lat="39.6027050" lon="-7.3330850">
        <ele>295.6</ele>
        <time>2019-07-10T13:11:50Z</time>
      </trkpt>
      <trkpt lat="39.6026730" lon="-7.3331560">
        <ele>296.4</ele>
        <time>2019-07-10T13:11:52Z</time>
      </trkpt>
      <trkpt lat="39.6026530" lon="-7.3331880">
        <ele>296.6</ele>
        <time>2019-07-10T13:11:53Z</time>
      </trkpt>
      <trkpt lat="39.6025610" lon="-7.3332990">
        <ele>298.0</ele>
        <time>2019-07-10T13:11:57Z</time>
      </trkpt>
      <trkpt lat="39.6025060" lon="-7.3333380">
        <ele>298.4</ele>
        <time>2019-07-10T13:11:59Z</time>
      </trkpt>
      <trkpt lat="39.6024170" lon="-7.3333900">
        <ele>299.2</ele>
        <time>2019-07-10T13:12:02Z</time>
      </trkpt>
      <trkpt lat="39.6022880" lon="-7.3334470">
        <ele>300.2</ele>
        <time>2019-07-10T13:12:06Z</time>
      </trkpt>
      <trkpt lat="39.6022540" lon="-7.3334610">
        <ele>300.4</ele>
        <time>2019-07-10T13:12:07Z</time>
      </trkpt>
      <trkpt lat="39.6020990" lon="-7.3336060">
        <ele>301.2</ele>
        <time>2019-07-10T13:12:12Z</time>
      </trkpt>
      <trkpt lat="39.6020050" lon="-7.3338090">
        <ele>301.0</ele>
        <time>2019-07-10T13:12:16Z</time>
      </trkpt>
      <trkpt lat="39.6019850" lon="-7.3338740">
        <ele>300.8</ele>
        <time>2019-07-10T13:12:17Z</time>
      </trkpt>
      <trkpt lat="39.6018650" lon="-7.3342720">
        <ele>299.8</ele>
        <time>2019-07-10T13:12:22Z</time>
      </trkpt>
      <trkpt lat="39.6018380" lon="-7.3343690">
        <ele>299.4</ele>
        <time>2019-07-10T13:12:23Z</time>
      </trkpt>
      <trkpt lat="39.6017860" lon="-7.3345820">
        <ele>298.4</ele>
        <time>2019-07-10T13:12:25Z</time>
      </trkpt>
      <trkpt lat="39.6017580" lon="-7.3346960">
        <ele>297.8</ele>
        <time>2019-07-10T13:12:26Z</time>
      </trkpt>
      <trkpt lat="39.6017330" lon="-7.3348130">
        <ele>297.4</ele>
        <time>2019-07-10T13:12:27Z</time>
      </trkpt>
      <trkpt lat="39.6017160" lon="-7.3349380">
        <ele>297.0</ele>
        <time>2019-07-10T13:12:28Z</time>
      </trkpt>
      <trkpt lat="39.6017100" lon="-7.3350670">
        <ele>296.6</ele>
        <time>2019-07-10T13:12:29Z</time>
      </trkpt>
      <trkpt lat="39.6017110" lon="-7.3351960">
        <ele>296.2</ele>
        <time>2019-07-10T13:12:30Z</time>
      </trkpt>
      <trkpt lat="39.6017170" lon="-7.3353250">
        <ele>295.6</ele>
        <time>2019-07-10T13:12:31Z</time>
      </trkpt>
      <trkpt lat="39.6017250" lon="-7.3354530">
        <ele>295.2</ele>
        <time>2019-07-10T13:12:32Z</time>
      </trkpt>
      <trkpt lat="39.6017340" lon="-7.3355830">
        <ele>294.8</ele>
        <time>2019-07-10T13:12:33Z</time>
      </trkpt>
      <trkpt lat="39.6017450" lon="-7.3358420">
        <ele>293.6</ele>
        <time>2019-07-10T13:12:35Z</time>
      </trkpt>
      <trkpt lat="39.6017590" lon="-7.3361020">
        <ele>293.0</ele>
        <time>2019-07-10T13:12:37Z</time>
      </trkpt>
      <trkpt lat="39.6017760" lon="-7.3362310">
        <ele>292.6</ele>
        <time>2019-07-10T13:12:38Z</time>
      </trkpt>
      <trkpt lat="39.6018300" lon="-7.3364870">
        <ele>291.8</ele>
        <time>2019-07-10T13:12:40Z</time>
      </trkpt>
      <trkpt lat="39.6018720" lon="-7.3366130">
        <ele>291.0</ele>
        <time>2019-07-10T13:12:41Z</time>
      </trkpt>
      <trkpt lat="39.6019880" lon="-7.3368490">
        <ele>289.8</ele>
        <time>2019-07-10T13:12:43Z</time>
      </trkpt>
      <trkpt lat="39.6020580" lon="-7.3369540">
        <ele>289.0</ele>
        <time>2019-07-10T13:12:44Z</time>
      </trkpt>
      <trkpt lat="39.6021280" lon="-7.3370520">
        <ele>288.6</ele>
        <time>2019-07-10T13:12:45Z</time>
      </trkpt>
      <trkpt lat="39.6023140" lon="-7.3373050">
        <ele>288.6</ele>
        <time>2019-07-10T13:12:48Z</time>
      </trkpt>
      <trkpt lat="39.6024570" lon="-7.3374950">
        <ele>289.4</ele>
        <time>2019-07-10T13:12:51Z</time>
      </trkpt>
      <trkpt lat="39.6024970" lon="-7.3375490">
        <ele>289.8</ele>
        <time>2019-07-10T13:12:52Z</time>
      </trkpt>
      <trkpt lat="39.6025670" lon="-7.3376510">
        <ele>290.4</ele>
        <time>2019-07-10T13:12:54Z</time>
      </trkpt>
      <trkpt lat="39.6026300" lon="-7.3377370">
        <ele>291.0</ele>
        <time>2019-07-10T13:12:56Z</time>
      </trkpt>
      <trkpt lat="39.6026560" lon="-7.3377800">
        <ele>291.2</ele>
        <time>2019-07-10T13:12:57Z</time>
      </trkpt>
      <trkpt lat="39.6027310" lon="-7.3379060">
        <ele>291.6</ele>
        <time>2019-07-10T13:13:00Z</time>
      </trkpt>
      <trkpt lat="39.6027650" lon="-7.3380020">
        <ele>292.0</ele>
        <time>2019-07-10T13:13:02Z</time>
      </trkpt>
      <trkpt lat="39.6027740" lon="-7.3380550">
        <ele>292.4</ele>
        <time>2019-07-10T13:13:03Z</time>
      </trkpt>
      <trkpt lat="39.6027630" lon="-7.3382850">
        <ele>292.8</ele>
        <time>2019-07-10T13:13:07Z</time>
      </trkpt>
      <trkpt lat="39.6027520" lon="-7.3383440">
        <ele>293.2</ele>
        <time>2019-07-10T13:13:08Z</time>
      </trkpt>
      <trkpt lat="39.6027380" lon="-7.3384040">
        <ele>293.4</ele>
        <time>2019-07-10T13:13:09Z</time>
      </trkpt>
      <trkpt lat="39.6027270" lon="-7.3384640">
        <ele>293.4</ele>
        <time>2019-07-10T13:13:10Z</time>
      </trkpt>
      <trkpt lat="39.6026990" lon="-7.3387730">
        <ele>294.2</ele>
        <time>2019-07-10T13:13:15Z</time>
      </trkpt>
      <trkpt lat="39.6026960" lon="-7.3388340">
        <ele>294.2</ele>
        <time>2019-07-10T13:13:16Z</time>
      </trkpt>
      <trkpt lat="39.6026970" lon="-7.3388950">
        <ele>294.2</ele>
        <time>2019-07-10T13:13:17Z</time>
      </trkpt>
      <trkpt lat="39.6027230" lon="-7.3391390">
        <ele>295.0</ele>
        <time>2019-07-10T13:13:21Z</time>
      </trkpt>
      <trkpt lat="39.6027340" lon="-7.3391990">
        <ele>295.2</ele>
        <time>2019-07-10T13:13:22Z</time>
      </trkpt>
      <trkpt lat="39.6027870" lon="-7.3394310">
        <ele>296.4</ele>
        <time>2019-07-10T13:13:26Z</time>
      </trkpt>
      <trkpt lat="39.6028270" lon="-7.3396140">
        <ele>296.8</ele>
        <time>2019-07-10T13:13:29Z</time>
      </trkpt>
      <trkpt lat="39.6029350" lon="-7.3401180">
        <ele>297.0</ele>
        <time>2019-07-10T13:13:36Z</time>
      </trkpt>
      <trkpt lat="39.6030220" lon="-7.3406020">
        <ele>295.8</ele>
        <time>2019-07-10T13:13:41Z</time>
      </trkpt>
      <trkpt lat="39.6030600" lon="-7.3408200">
        <ele>295.0</ele>
        <time>2019-07-10T13:13:43Z</time>
      </trkpt>
      <trkpt lat="39.6031060" lon="-7.3410430">
        <ele>294.0</ele>
        <time>2019-07-10T13:13:45Z</time>
      </trkpt>
      <trkpt lat="39.6031320" lon="-7.3411520">
        <ele>293.8</ele>
        <time>2019-07-10T13:13:46Z</time>
      </trkpt>
      <trkpt lat="39.6031810" lon="-7.3413670">
        <ele>293.2</ele>
        <time>2019-07-10T13:13:48Z</time>
      </trkpt>
      <trkpt lat="39.6032240" lon="-7.3415700">
        <ele>293.2</ele>
        <time>2019-07-10T13:13:50Z</time>
      </trkpt>
      <trkpt lat="39.6032420" lon="-7.3416620">
        <ele>293.0</ele>
        <time>2019-07-10T13:13:51Z</time>
      </trkpt>
      <trkpt lat="39.6032770" lon="-7.3418360">
        <ele>293.2</ele>
        <time>2019-07-10T13:13:53Z</time>
      </trkpt>
      <trkpt lat="39.6033270" lon="-7.3420790">
        <ele>293.8</ele>
        <time>2019-07-10T13:13:56Z</time>
      </trkpt>
      <trkpt lat="39.6033870" lon="-7.3423790">
        <ele>295.0</ele>
        <time>2019-07-10T13:14:00Z</time>
      </trkpt>
      <trkpt lat="39.6034440" lon="-7.3426640">
        <ele>296.2</ele>
        <time>2019-07-10T13:14:04Z</time>
      </trkpt>
      <trkpt lat="39.6035230" lon="-7.3429980">
        <ele>297.2</ele>
        <time>2019-07-10T13:14:09Z</time>
      </trkpt>
      <trkpt lat="39.6036460" lon="-7.3432930">
        <ele>298.2</ele>
        <time>2019-07-10T13:14:14Z</time>
      </trkpt>
      <trkpt lat="39.6036730" lon="-7.3433520">
        <ele>298.4</ele>
        <time>2019-07-10T13:14:15Z</time>
      </trkpt>
      <trkpt lat="39.6037020" lon="-7.3434100">
        <ele>298.4</ele>
        <time>2019-07-10T13:14:16Z</time>
      </trkpt>
      <trkpt lat="39.6038140" lon="-7.3436410">
        <ele>298.8</ele>
        <time>2019-07-10T13:14:20Z</time>
      </trkpt>
      <trkpt lat="39.6039050" lon="-7.3438040">
        <ele>299.4</ele>
        <time>2019-07-10T13:14:23Z</time>
      </trkpt>
      <trkpt lat="39.6040210" lon="-7.3440250">
        <ele>300.0</ele>
        <time>2019-07-10T13:14:27Z</time>
      </trkpt>
      <trkpt lat="39.6041520" lon="-7.3443140">
        <ele>300.4</ele>
        <time>2019-07-10T13:14:32Z</time>
      </trkpt>
      <trkpt lat="39.6042300" lon="-7.3444910">
        <ele>300.8</ele>
        <time>2019-07-10T13:14:35Z</time>
      </trkpt>
      <trkpt lat="39.6042780" lon="-7.3446130">
        <ele>300.8</ele>
        <time>2019-07-10T13:14:37Z</time>
      </trkpt>
      <trkpt lat="39.6043230" lon="-7.3448130">
        <ele>301.0</ele>
        <time>2019-07-10T13:14:40Z</time>
      </trkpt>
      <trkpt lat="39.6043270" lon="-7.3448830">
        <ele>301.2</ele>
        <time>2019-07-10T13:14:41Z</time>
      </trkpt>
      <trkpt lat="39.6043270" lon="-7.3450210">
        <ele>301.4</ele>
        <time>2019-07-10T13:14:43Z</time>
      </trkpt>
      <trkpt lat="39.6043160" lon="-7.3452170">
        <ele>302.6</ele>
        <time>2019-07-10T13:14:46Z</time>
      </trkpt>
      <trkpt lat="39.6043030" lon="-7.3453380">
        <ele>303.4</ele>
        <time>2019-07-10T13:14:48Z</time>
      </trkpt>
      <trkpt lat="39.6043000" lon="-7.3453970">
        <ele>303.6</ele>
        <time>2019-07-10T13:14:49Z</time>
      </trkpt>
      <trkpt lat="39.6042930" lon="-7.3455110">
        <ele>303.8</ele>
        <time>2019-07-10T13:14:51Z</time>
      </trkpt>
      <trkpt lat="39.6042760" lon="-7.3456730">
        <ele>303.8</ele>
        <time>2019-07-10T13:14:54Z</time>
      </trkpt>
      <trkpt lat="39.6042560" lon="-7.3458840">
        <ele>304.8</ele>
        <time>2019-07-10T13:14:58Z</time>
      </trkpt>
      <trkpt lat="39.6042360" lon="-7.3460440">
        <ele>306.2</ele>
        <time>2019-07-10T13:15:01Z</time>
      </trkpt>
      <trkpt lat="39.6042250" lon="-7.3461530">
        <ele>306.8</ele>
        <time>2019-07-10T13:15:03Z</time>
      </trkpt>
      <trkpt lat="39.6042140" lon="-7.3462610">
        <ele>307.2</ele>
        <time>2019-07-10T13:15:05Z</time>
      </trkpt>
      <trkpt lat="39.6041850" lon="-7.3465150">
        <ele>308.4</ele>
        <time>2019-07-10T13:15:10Z</time>
      </trkpt>
      <trkpt lat="39.6041800" lon="-7.3465650">
        <ele>308.6</ele>
        <time>2019-07-10T13:15:11Z</time>
      </trkpt>
      <trkpt lat="39.6041520" lon="-7.3468200">
        <ele>309.4</ele>
        <time>2019-07-10T13:15:16Z</time>
      </trkpt>
      <trkpt lat="39.6041220" lon="-7.3470240">
        <ele>310.2</ele>
        <time>2019-07-10T13:15:20Z</time>
      </trkpt>
      <trkpt lat="39.6041130" lon="-7.3471230">
        <ele>310.6</ele>
        <time>2019-07-10T13:15:22Z</time>
      </trkpt>
      <trkpt lat="39.6040750" lon="-7.3475340">
        <ele>312.0</ele>
        <time>2019-07-10T13:15:30Z</time>
      </trkpt>
      <trkpt lat="39.6040370" lon="-7.3478970">
        <ele>312.8</ele>
        <time>2019-07-10T13:15:37Z</time>
      </trkpt>
      <trkpt lat="39.6040200" lon="-7.3480490">
        <ele>313.2</ele>
        <time>2019-07-10T13:15:40Z</time>
      </trkpt>
      <trkpt lat="39.6040090" lon="-7.3482500">
        <ele>314.4</ele>
        <time>2019-07-10T13:15:44Z</time>
      </trkpt>
      <trkpt lat="39.6040100" lon="-7.3484040">
        <ele>314.8</ele>
        <time>2019-07-10T13:15:47Z</time>
      </trkpt>
      <trkpt lat="39.6040530" lon="-7.3487420">
        <ele>314.8</ele>
        <time>2019-07-10T13:15:53Z</time>
      </trkpt>
      <trkpt lat="39.6040810" lon="-7.3488670">
        <ele>314.8</ele>
        <time>2019-07-10T13:15:55Z</time>
      </trkpt>
      <trkpt lat="39.6041600" lon="-7.3490560">
        <ele>314.4</ele>
        <time>2019-07-10T13:15:58Z</time>
      </trkpt>
      <trkpt lat="39.6041890" lon="-7.3491230">
        <ele>314.4</ele>
        <time>2019-07-10T13:15:59Z</time>
      </trkpt>
      <trkpt lat="39.6042430" lon="-7.3492640">
        <ele>314.0</ele>
        <time>2019-07-10T13:16:01Z</time>
      </trkpt>
      <trkpt lat="39.6043290" lon="-7.3494810">
        <ele>313.6</ele>
        <time>2019-07-10T13:16:04Z</time>
      </trkpt>
      <trkpt lat="39.6043610" lon="-7.3495540">
        <ele>313.4</ele>
        <time>2019-07-10T13:16:05Z</time>
      </trkpt>
      <trkpt lat="39.6043920" lon="-7.3496280">
        <ele>313.2</ele>
        <time>2019-07-10T13:16:06Z</time>
      </trkpt>
      <trkpt lat="39.6044510" lon="-7.3497780">
        <ele>312.8</ele>
        <time>2019-07-10T13:16:08Z</time>
      </trkpt>
      <trkpt lat="39.6045120" lon="-7.3499310">
        <ele>312.2</ele>
        <time>2019-07-10T13:16:10Z</time>
      </trkpt>
      <trkpt lat="39.6045440" lon="-7.3500080">
        <ele>311.8</ele>
        <time>2019-07-10T13:16:11Z</time>
      </trkpt>
      <trkpt lat="39.6046070" lon="-7.3501640">
        <ele>311.2</ele>
        <time>2019-07-10T13:16:13Z</time>
      </trkpt>
      <trkpt lat="39.6046360" lon="-7.3502430">
        <ele>311.2</ele>
        <time>2019-07-10T13:16:14Z</time>
      </trkpt>
      <trkpt lat="39.6048000" lon="-7.3508410">
        <ele>311.0</ele>
        <time>2019-07-10T13:16:21Z</time>
      </trkpt>
      <trkpt lat="39.6048200" lon="-7.3509340">
        <ele>310.8</ele>
        <time>2019-07-10T13:16:22Z</time>
      </trkpt>
      <trkpt lat="39.6048990" lon="-7.3513080">
        <ele>310.4</ele>
        <time>2019-07-10T13:16:26Z</time>
      </trkpt>
      <trkpt lat="39.6049170" lon="-7.3514030">
        <ele>310.4</ele>
        <time>2019-07-10T13:16:27Z</time>
      </trkpt>
      <trkpt lat="39.6050390" lon="-7.3519840">
        <ele>309.8</ele>
        <time>2019-07-10T13:16:33Z</time>
      </trkpt>
      <trkpt lat="39.6050560" lon="-7.3520820">
        <ele>309.8</ele>
        <time>2019-07-10T13:16:34Z</time>
      </trkpt>
      <trkpt lat="39.6050720" lon="-7.3521800">
        <ele>309.6</ele>
        <time>2019-07-10T13:16:35Z</time>
      </trkpt>
      <trkpt lat="39.6051670" lon="-7.3526660">
        <ele>308.6</ele>
        <time>2019-07-10T13:16:40Z</time>
      </trkpt>
      <trkpt lat="39.6052040" lon="-7.3528610">
        <ele>308.0</ele>
        <time>2019-07-10T13:16:42Z</time>
      </trkpt>
      <trkpt lat="39.6052220" lon="-7.3529590">
        <ele>307.8</ele>
        <time>2019-07-10T13:16:43Z</time>
      </trkpt>
      <trkpt lat="39.6052400" lon="-7.3530550">
        <ele>307.4</ele>
        <time>2019-07-10T13:16:44Z</time>
      </trkpt>
      <trkpt lat="39.6053130" lon="-7.3534210">
        <ele>306.8</ele>
        <time>2019-07-10T13:16:48Z</time>
      </trkpt>
      <trkpt lat="39.6053610" lon="-7.3536760">
        <ele>306.8</ele>
        <time>2019-07-10T13:16:51Z</time>
      </trkpt>
      <trkpt lat="39.6054430" lon="-7.3541170">
        <ele>307.2</ele>
        <time>2019-07-10T13:16:57Z</time>
      </trkpt>
      <trkpt lat="39.6054570" lon="-7.3541830">
        <ele>307.4</ele>
        <time>2019-07-10T13:16:58Z</time>
      </trkpt>
      <trkpt lat="39.6054820" lon="-7.3543120">
        <ele>308.0</ele>
        <time>2019-07-10T13:17:00Z</time>
      </trkpt>
      <trkpt lat="39.6055100" lon="-7.3544420">
        <ele>308.4</ele>
        <time>2019-07-10T13:17:02Z</time>
      </trkpt>
      <trkpt lat="39.6055230" lon="-7.3545100">
        <ele>308.6</ele>
        <time>2019-07-10T13:17:03Z</time>
      </trkpt>
      <trkpt lat="39.6055630" lon="-7.3547200">
        <ele>308.8</ele>
        <time>2019-07-10T13:17:06Z</time>
      </trkpt>
      <trkpt lat="39.6055770" lon="-7.3547930">
        <ele>309.0</ele>
        <time>2019-07-10T13:17:07Z</time>
      </trkpt>
      <trkpt lat="39.6057030" lon="-7.3552620">
        <ele>308.6</ele>
        <time>2019-07-10T13:17:13Z</time>
      </trkpt>
      <trkpt lat="39.6059480" lon="-7.3557130">
        <ele>308.2</ele>
        <time>2019-07-10T13:17:19Z</time>
      </trkpt>
      <trkpt lat="39.6059890" lon="-7.3557810">
        <ele>308.0</ele>
        <time>2019-07-10T13:17:20Z</time>
      </trkpt>
      <trkpt lat="39.6062260" lon="-7.3561370">
        <ele>308.6</ele>
        <time>2019-07-10T13:17:26Z</time>
      </trkpt>
      <trkpt lat="39.6063830" lon="-7.3563870">
        <ele>309.2</ele>
        <time>2019-07-10T13:17:31Z</time>
      </trkpt>
      <trkpt lat="39.6064120" lon="-7.3564360">
        <ele>309.4</ele>
        <time>2019-07-10T13:17:32Z</time>
      </trkpt>
      <trkpt lat="39.6064390" lon="-7.3564870">
        <ele>309.6</ele>
        <time>2019-07-10T13:17:33Z</time>
      </trkpt>
      <trkpt lat="39.6064670" lon="-7.3565340">
        <ele>309.8</ele>
        <time>2019-07-10T13:17:34Z</time>
      </trkpt>
      <trkpt lat="39.6066380" lon="-7.3568240">
        <ele>311.0</ele>
        <time>2019-07-10T13:17:40Z</time>
      </trkpt>
      <trkpt lat="39.6067210" lon="-7.3569580">
        <ele>311.2</ele>
        <time>2019-07-10T13:17:43Z</time>
      </trkpt>
      <trkpt lat="39.6067990" lon="-7.3570970">
        <ele>312.2</ele>
        <time>2019-07-10T13:17:46Z</time>
      </trkpt>
      <trkpt lat="39.6068560" lon="-7.3571810">
        <ele>312.6</ele>
        <time>2019-07-10T13:17:48Z</time>
      </trkpt>
      <trkpt lat="39.6069090" lon="-7.3572660">
        <ele>313.2</ele>
        <time>2019-07-10T13:17:50Z</time>
      </trkpt>
      <trkpt lat="39.6070260" lon="-7.3574820">
        <ele>314.0</ele>
        <time>2019-07-10T13:17:55Z</time>
      </trkpt>
      <trkpt lat="39.6070510" lon="-7.3575230">
        <ele>314.2</ele>
        <time>2019-07-10T13:17:56Z</time>
      </trkpt>
      <trkpt lat="39.6071720" lon="-7.3577790">
        <ele>315.2</ele>
        <time>2019-07-10T13:18:02Z</time>
      </trkpt>
      <trkpt lat="39.6071850" lon="-7.3578260">
        <ele>315.4</ele>
        <time>2019-07-10T13:18:03Z</time>
      </trkpt>
      <trkpt lat="39.6072240" lon="-7.3580720">
        <ele>316.4</ele>
        <time>2019-07-10T13:18:08Z</time>
      </trkpt>
      <trkpt lat="39.6072270" lon="-7.3582220">
        <ele>316.8</ele>
        <time>2019-07-10T13:18:11Z</time>
      </trkpt>
      <trkpt lat="39.6072310" lon="-7.3583220">
        <ele>317.4</ele>
        <time>2019-07-10T13:18:13Z</time>
      </trkpt>
      <trkpt lat="39.6072440" lon="-7.3586840">
        <ele>318.6</ele>
        <time>2019-07-10T13:18:20Z</time>
      </trkpt>
      <trkpt lat="39.6072450" lon="-7.3587390">
        <ele>318.6</ele>
        <time>2019-07-10T13:18:21Z</time>
      </trkpt>
      <trkpt lat="39.6072700" lon="-7.3590110">
        <ele>319.4</ele>
        <time>2019-07-10T13:18:26Z</time>
      </trkpt>
      <trkpt lat="39.6072720" lon="-7.3591210">
        <ele>319.8</ele>
        <time>2019-07-10T13:18:28Z</time>
      </trkpt>
      <trkpt lat="39.6072700" lon="-7.3595060">
        <ele>320.6</ele>
        <time>2019-07-10T13:18:35Z</time>
      </trkpt>
      <trkpt lat="39.6072600" lon="-7.3596250">
        <ele>320.8</ele>
        <time>2019-07-10T13:18:37Z</time>
      </trkpt>
      <trkpt lat="39.6072090" lon="-7.3599290">
        <ele>321.0</ele>
        <time>2019-07-10T13:18:42Z</time>
      </trkpt>
      <trkpt lat="39.6071940" lon="-7.3599910">
        <ele>321.0</ele>
        <time>2019-07-10T13:18:43Z</time>
      </trkpt>
      <trkpt lat="39.6070850" lon="-7.3603110">
        <ele>321.0</ele>
        <time>2019-07-10T13:18:48Z</time>
      </trkpt>
      <trkpt lat="39.6070070" lon="-7.3605160">
        <ele>320.8</ele>
        <time>2019-07-10T13:18:51Z</time>
      </trkpt>
      <trkpt lat="39.6069590" lon="-7.3606580">
        <ele>320.2</ele>
        <time>2019-07-10T13:18:53Z</time>
      </trkpt>
      <trkpt lat="39.6069120" lon="-7.3608000">
        <ele>320.0</ele>
        <time>2019-07-10T13:18:55Z</time>
      </trkpt>
      <trkpt lat="39.6068840" lon="-7.3608680">
        <ele>319.8</ele>
        <time>2019-07-10T13:18:56Z</time>
      </trkpt>
      <trkpt lat="39.6068540" lon="-7.3609370">
        <ele>319.6</ele>
        <time>2019-07-10T13:18:57Z</time>
      </trkpt>
      <trkpt lat="39.6066230" lon="-7.3614240">
        <ele>319.4</ele>
        <time>2019-07-10T13:19:04Z</time>
      </trkpt>
      <trkpt lat="39.6065080" lon="-7.3616260">
        <ele>319.4</ele>
        <time>2019-07-10T13:19:07Z</time>
      </trkpt>
      <trkpt lat="39.6063320" lon="-7.3619820">
        <ele>319.2</ele>
        <time>2019-07-10T13:19:12Z</time>
      </trkpt>
      <trkpt lat="39.6062780" lon="-7.3621380">
        <ele>319.4</ele>
        <time>2019-07-10T13:19:14Z</time>
      </trkpt>
      <trkpt lat="39.6062360" lon="-7.3623820">
        <ele>319.6</ele>
        <time>2019-07-10T13:19:17Z</time>
      </trkpt>
      <trkpt lat="39.6062060" lon="-7.3627010">
        <ele>319.4</ele>
        <time>2019-07-10T13:19:21Z</time>
      </trkpt>
      <trkpt lat="39.6061900" lon="-7.3629330">
        <ele>319.6</ele>
        <time>2019-07-10T13:19:24Z</time>
      </trkpt>
      <trkpt lat="39.6061450" lon="-7.3633820">
        <ele>320.0</ele>
        <time>2019-07-10T13:19:30Z</time>
      </trkpt>
      <trkpt lat="39.6061340" lon="-7.3635250">
        <ele>320.0</ele>
        <time>2019-07-10T13:19:32Z</time>
      </trkpt>
      <trkpt lat="39.6060920" lon="-7.3640150">
        <ele>320.4</ele>
        <time>2019-07-10T13:19:39Z</time>
      </trkpt>
      <trkpt lat="39.6060940" lon="-7.3641550">
        <ele>320.4</ele>
        <time>2019-07-10T13:19:41Z</time>
      </trkpt>
      <trkpt lat="39.6061420" lon="-7.3643560">
        <ele>320.6</ele>
        <time>2019-07-10T13:19:44Z</time>
      </trkpt>
      <trkpt lat="39.6061640" lon="-7.3644200">
        <ele>320.8</ele>
        <time>2019-07-10T13:19:45Z</time>
      </trkpt>
      <trkpt lat="39.6063120" lon="-7.3647950">
        <ele>321.4</ele>
        <time>2019-07-10T13:19:51Z</time>
      </trkpt>
      <trkpt lat="39.6063620" lon="-7.3649220">
        <ele>321.6</ele>
        <time>2019-07-10T13:19:53Z</time>
      </trkpt>
      <trkpt lat="39.6064400" lon="-7.3651170">
        <ele>321.8</ele>
        <time>2019-07-10T13:19:56Z</time>
      </trkpt>
      <trkpt lat="39.6065580" lon="-7.3654570">
        <ele>322.2</ele>
        <time>2019-07-10T13:20:01Z</time>
      </trkpt>
      <trkpt lat="39.6066340" lon="-7.3658170">
        <ele>322.6</ele>
        <time>2019-07-10T13:20:06Z</time>
      </trkpt>
      <trkpt lat="39.6066370" lon="-7.3658920">
        <ele>322.6</ele>
        <time>2019-07-10T13:20:07Z</time>
      </trkpt>
      <trkpt lat="39.6066430" lon="-7.3663970">
        <ele>322.8</ele>
        <time>2019-07-10T13:20:14Z</time>
      </trkpt>
      <trkpt lat="39.6066450" lon="-7.3665390">
        <ele>323.0</ele>
        <time>2019-07-10T13:20:16Z</time>
      </trkpt>
      <trkpt lat="39.6066390" lon="-7.3670240">
        <ele>324.0</ele>
        <time>2019-07-10T13:20:23Z</time>
      </trkpt>
      <trkpt lat="39.6065710" lon="-7.3674390">
        <ele>325.0</ele>
        <time>2019-07-10T13:20:29Z</time>
      </trkpt>
      <trkpt lat="39.6065520" lon="-7.3675070">
        <ele>325.2</ele>
        <time>2019-07-10T13:20:30Z</time>
      </trkpt>
      <trkpt lat="39.6063820" lon="-7.3679750">
        <ele>326.0</ele>
        <time>2019-07-10T13:20:37Z</time>
      </trkpt>
      <trkpt lat="39.6063560" lon="-7.3680420">
        <ele>326.2</ele>
        <time>2019-07-10T13:20:38Z</time>
      </trkpt>
      <trkpt lat="39.6061490" lon="-7.3685690">
        <ele>327.2</ele>
        <time>2019-07-10T13:20:46Z</time>
      </trkpt>
      <trkpt lat="39.6060910" lon="-7.3686960">
        <ele>327.4</ele>
        <time>2019-07-10T13:20:48Z</time>
      </trkpt>
      <trkpt lat="39.6059460" lon="-7.3691690">
        <ele>328.2</ele>
        <time>2019-07-10T13:20:55Z</time>
      </trkpt>
      <trkpt lat="39.6059290" lon="-7.3692370">
        <ele>328.2</ele>
        <time>2019-07-10T13:20:56Z</time>
      </trkpt>
      <trkpt lat="39.6058610" lon="-7.3696570">
        <ele>329.2</ele>
        <time>2019-07-10T13:21:02Z</time>
      </trkpt>
      <trkpt lat="39.6058410" lon="-7.3697940">
        <ele>329.4</ele>
        <time>2019-07-10T13:21:04Z</time>
      </trkpt>
      <trkpt lat="39.6058040" lon="-7.3701240">
        <ele>330.4</ele>
        <time>2019-07-10T13:21:09Z</time>
      </trkpt>
      <trkpt lat="39.6057970" lon="-7.3701870">
        <ele>330.6</ele>
        <time>2019-07-10T13:21:10Z</time>
      </trkpt>
      <trkpt lat="39.6057590" lon="-7.3705880">
        <ele>331.6</ele>
        <time>2019-07-10T13:21:17Z</time>
      </trkpt>
      <trkpt lat="39.6057530" lon="-7.3706420">
        <ele>331.8</ele>
        <time>2019-07-10T13:21:18Z</time>
      </trkpt>
      <trkpt lat="39.6057220" lon="-7.3709000">
        <ele>332.6</ele>
        <time>2019-07-10T13:21:23Z</time>
      </trkpt>
      <trkpt lat="39.6057180" lon="-7.3709470">
        <ele>332.8</ele>
        <time>2019-07-10T13:21:24Z</time>
      </trkpt>
      <trkpt lat="39.6056900" lon="-7.3711750">
        <ele>333.8</ele>
        <time>2019-07-10T13:21:29Z</time>
      </trkpt>
      <trkpt lat="39.6056720" lon="-7.3713190">
        <ele>334.4</ele>
        <time>2019-07-10T13:21:32Z</time>
      </trkpt>
      <trkpt lat="39.6056510" lon="-7.3714670">
        <ele>334.8</ele>
        <time>2019-07-10T13:21:35Z</time>
      </trkpt>
      <trkpt lat="39.6056190" lon="-7.3717170">
        <ele>336.0</ele>
        <time>2019-07-10T13:21:40Z</time>
      </trkpt>
      <trkpt lat="39.6055990" lon="-7.3718720">
        <ele>336.4</ele>
        <time>2019-07-10T13:21:43Z</time>
      </trkpt>
      <trkpt lat="39.6054820" lon="-7.3721890">
        <ele>336.8</ele>
        <time>2019-07-10T13:21:49Z</time>
      </trkpt>
      <trkpt lat="39.6054130" lon="-7.3723570">
        <ele>336.8</ele>
        <time>2019-07-10T13:21:52Z</time>
      </trkpt>
      <trkpt lat="39.6052350" lon="-7.3727610">
        <ele>337.6</ele>
        <time>2019-07-10T13:21:59Z</time>
      </trkpt>
      <trkpt lat="39.6051640" lon="-7.3729420">
        <ele>337.8</ele>
        <time>2019-07-10T13:22:02Z</time>
      </trkpt>
      <trkpt lat="39.6050330" lon="-7.3732390">
        <ele>338.4</ele>
        <time>2019-07-10T13:22:07Z</time>
      </trkpt>
      <trkpt lat="39.6050060" lon="-7.3732980">
        <ele>338.4</ele>
        <time>2019-07-10T13:22:08Z</time>
      </trkpt>
      <trkpt lat="39.6048780" lon="-7.3735970">
        <ele>339.0</ele>
        <time>2019-07-10T13:22:13Z</time>
      </trkpt>
      <trkpt lat="39.6047890" lon="-7.3737700">
        <ele>339.6</ele>
        <time>2019-07-10T13:22:16Z</time>
      </trkpt>
      <trkpt lat="39.6047100" lon="-7.3739550">
        <ele>340.0</ele>
        <time>2019-07-10T13:22:19Z</time>
      </trkpt>
      <trkpt lat="39.6046090" lon="-7.3742010">
        <ele>340.6</ele>
        <time>2019-07-10T13:22:23Z</time>
      </trkpt>
      <trkpt lat="39.6045140" lon="-7.3744370">
        <ele>341.2</ele>
        <time>2019-07-10T13:22:27Z</time>
      </trkpt>
      <trkpt lat="39.6044180" lon="-7.3746560">
        <ele>342.2</ele>
        <time>2019-07-10T13:22:31Z</time>
      </trkpt>
      <trkpt lat="39.6043950" lon="-7.3747090">
        <ele>342.4</ele>
        <time>2019-07-10T13:22:32Z</time>
      </trkpt>
      <trkpt lat="39.6042800" lon="-7.3749720">
        <ele>343.4</ele>
        <time>2019-07-10T13:22:37Z</time>
      </trkpt>
      <trkpt lat="39.6042140" lon="-7.3751310">
        <ele>344.0</ele>
        <time>2019-07-10T13:22:40Z</time>
      </trkpt>
      <trkpt lat="39.6041400" lon="-7.3753500">
        <ele>344.6</ele>
        <time>2019-07-10T13:22:44Z</time>
      </trkpt>
      <trkpt lat="39.6040880" lon="-7.3755890">
        <ele>345.6</ele>
        <time>2019-07-10T13:22:48Z</time>
      </trkpt>
      <trkpt lat="39.6040860" lon="-7.3756510">
        <ele>345.8</ele>
        <time>2019-07-10T13:22:49Z</time>
      </trkpt>
      <trkpt lat="39.6041130" lon="-7.3758360">
        <ele>346.4</ele>
        <time>2019-07-10T13:22:52Z</time>
      </trkpt>
      <trkpt lat="39.6041270" lon="-7.3758970">
        <ele>346.6</ele>
        <time>2019-07-10T13:22:53Z</time>
      </trkpt>
      <trkpt lat="39.6041430" lon="-7.3759570">
        <ele>346.8</ele>
        <time>2019-07-10T13:22:54Z</time>
      </trkpt>
      <trkpt lat="39.6042790" lon="-7.3764610">
        <ele>347.0</ele>
        <time>2019-07-10T13:23:02Z</time>
      </trkpt>
      <trkpt lat="39.6043490" lon="-7.3767280">
        <ele>347.0</ele>
        <time>2019-07-10T13:23:06Z</time>
      </trkpt>
      <trkpt lat="39.6044080" lon="-7.3769350">
        <ele>347.2</ele>
        <time>2019-07-10T13:23:09Z</time>
      </trkpt>
      <trkpt lat="39.6044300" lon="-7.3770050">
        <ele>347.2</ele>
        <time>2019-07-10T13:23:10Z</time>
      </trkpt>
      <trkpt lat="39.6044670" lon="-7.3771500">
        <ele>347.2</ele>
        <time>2019-07-10T13:23:12Z</time>
      </trkpt>
      <trkpt lat="39.6045210" lon="-7.3773700">
        <ele>347.2</ele>
        <time>2019-07-10T13:23:15Z</time>
      </trkpt>
      <trkpt lat="39.6045570" lon="-7.3775200">
        <ele>347.2</ele>
        <time>2019-07-10T13:23:17Z</time>
      </trkpt>
      <trkpt lat="39.6045780" lon="-7.3776720">
        <ele>347.0</ele>
        <time>2019-07-10T13:23:19Z</time>
      </trkpt>
      <trkpt lat="39.6045690" lon="-7.3778290">
        <ele>346.8</ele>
        <time>2019-07-10T13:23:21Z</time>
      </trkpt>
      <trkpt lat="39.6044860" lon="-7.3780410">
        <ele>346.8</ele>
        <time>2019-07-10T13:23:24Z</time>
      </trkpt>
      <trkpt lat="39.6042890" lon="-7.3782330">
        <ele>347.0</ele>
        <time>2019-07-10T13:23:28Z</time>
      </trkpt>
      <trkpt lat="39.6042350" lon="-7.3782650">
        <ele>347.2</ele>
        <time>2019-07-10T13:23:29Z</time>
      </trkpt>
      <trkpt lat="39.6040160" lon="-7.3783730">
        <ele>347.8</ele>
        <time>2019-07-10T13:23:33Z</time>
      </trkpt>
      <trkpt lat="39.6039100" lon="-7.3784210">
        <ele>348.2</ele>
        <time>2019-07-10T13:23:35Z</time>
      </trkpt>
      <trkpt lat="39.6036200" lon="-7.3785630">
        <ele>349.0</ele>
        <time>2019-07-10T13:23:41Z</time>
      </trkpt>
      <trkpt lat="39.6035300" lon="-7.3786100">
        <ele>349.6</ele>
        <time>2019-07-10T13:23:43Z</time>
      </trkpt>
      <trkpt lat="39.6034370" lon="-7.3786470">
        <ele>350.0</ele>
        <time>2019-07-10T13:23:45Z</time>
      </trkpt>
      <trkpt lat="39.6033920" lon="-7.3786680">
        <ele>350.2</ele>
        <time>2019-07-10T13:23:46Z</time>
      </trkpt>
      <trkpt lat="39.6032130" lon="-7.3787640">
        <ele>350.6</ele>
        <time>2019-07-10T13:23:50Z</time>
      </trkpt>
      <trkpt lat="39.6030380" lon="-7.3788600">
        <ele>351.2</ele>
        <time>2019-07-10T13:23:54Z</time>
      </trkpt>
      <trkpt lat="39.6029620" lon="-7.3789350">
        <ele>351.4</ele>
        <time>2019-07-10T13:23:56Z</time>
      </trkpt>
      <trkpt lat="39.6028200" lon="-7.3791050">
        <ele>352.0</ele>
        <time>2019-07-10T13:24:00Z</time>
      </trkpt>
      <trkpt lat="39.6027090" lon="-7.3792230">
        <ele>352.2</ele>
        <time>2019-07-10T13:24:03Z</time>
      </trkpt>
      <trkpt lat="39.6026740" lon="-7.3792660">
        <ele>352.4</ele>
        <time>2019-07-10T13:24:04Z</time>
      </trkpt>
      <trkpt lat="39.6024540" lon="-7.3795220">
        <ele>352.8</ele>
        <time>2019-07-10T13:24:10Z</time>
      </trkpt>
      <trkpt lat="39.6024180" lon="-7.3795690">
        <ele>353.0</ele>
        <time>2019-07-10T13:24:11Z</time>
      </trkpt>
      <trkpt lat="39.6023460" lon="-7.3796660">
        <ele>353.4</ele>
        <time>2019-07-10T13:24:13Z</time>
      </trkpt>
      <trkpt lat="39.6021480" lon="-7.3798860">
        <ele>354.0</ele>
        <time>2019-07-10T13:24:18Z</time>
      </trkpt>
      <trkpt lat="39.6020610" lon="-7.3799680">
        <ele>354.0</ele>
        <time>2019-07-10T13:24:20Z</time>
      </trkpt>
      <trkpt lat="39.6019200" lon="-7.3800690">
        <ele>354.6</ele>
        <time>2019-07-10T13:24:23Z</time>
      </trkpt>
      <trkpt lat="39.6018740" lon="-7.3801060">
        <ele>354.6</ele>
        <time>2019-07-10T13:24:24Z</time>
      </trkpt>
      <trkpt lat="39.6014480" lon="-7.3804360">
        <ele>355.6</ele>
        <time>2019-07-10T13:24:33Z</time>
      </trkpt>
      <trkpt lat="39.6014020" lon="-7.3804700">
        <ele>355.8</ele>
        <time>2019-07-10T13:24:34Z</time>
      </trkpt>
      <trkpt lat="39.6011340" lon="-7.3807310">
        <ele>356.6</ele>
        <time>2019-07-10T13:24:40Z</time>
      </trkpt>
      <trkpt lat="39.6008540" lon="-7.3810620">
        <ele>356.2</ele>
        <time>2019-07-10T13:24:46Z</time>
      </trkpt>
      <trkpt lat="39.6007940" lon="-7.3811160">
        <ele>355.8</ele>
        <time>2019-07-10T13:24:47Z</time>
      </trkpt>
      <trkpt lat="39.6007280" lon="-7.3811650">
        <ele>355.6</ele>
        <time>2019-07-10T13:24:48Z</time>
      </trkpt>
      <trkpt lat="39.6004290" lon="-7.3813510">
        <ele>354.2</ele>
        <time>2019-07-10T13:24:52Z</time>
      </trkpt>
      <trkpt lat="39.6002740" lon="-7.3814570">
        <ele>353.2</ele>
        <time>2019-07-10T13:24:54Z</time>
      </trkpt>
      <trkpt lat="39.6001210" lon="-7.3815790">
        <ele>352.6</ele>
        <time>2019-07-10T13:24:56Z</time>
      </trkpt>
      <trkpt lat="39.5999790" lon="-7.3817240">
        <ele>352.2</ele>
        <time>2019-07-10T13:24:58Z</time>
      </trkpt>
      <trkpt lat="39.5997750" lon="-7.3819560">
        <ele>351.2</ele>
        <time>2019-07-10T13:25:01Z</time>
      </trkpt>
      <trkpt lat="39.5997050" lon="-7.3820300">
        <ele>351.0</ele>
        <time>2019-07-10T13:25:02Z</time>
      </trkpt>
      <trkpt lat="39.5995650" lon="-7.3821720">
        <ele>350.6</ele>
        <time>2019-07-10T13:25:04Z</time>
      </trkpt>
      <trkpt lat="39.5994920" lon="-7.3822340">
        <ele>350.6</ele>
        <time>2019-07-10T13:25:05Z</time>
      </trkpt>
      <trkpt lat="39.5991100" lon="-7.3824540">
        <ele>350.4</ele>
        <time>2019-07-10T13:25:10Z</time>
      </trkpt>
      <trkpt lat="39.5987580" lon="-7.3826440">
        <ele>350.4</ele>
        <time>2019-07-10T13:25:15Z</time>
      </trkpt>
      <trkpt lat="39.5986330" lon="-7.3827090">
        <ele>350.4</ele>
        <time>2019-07-10T13:25:17Z</time>
      </trkpt>
      <trkpt lat="39.5983530" lon="-7.3828860">
        <ele>350.8</ele>
        <time>2019-07-10T13:25:22Z</time>
      </trkpt>
      <trkpt lat="39.5983070" lon="-7.3829340">
        <ele>350.6</ele>
        <time>2019-07-10T13:25:23Z</time>
      </trkpt>
      <trkpt lat="39.5980340" lon="-7.3833370">
        <ele>350.0</ele>
        <time>2019-07-10T13:25:30Z</time>
      </trkpt>
      <trkpt lat="39.5980060" lon="-7.3834100">
        <ele>350.0</ele>
        <time>2019-07-10T13:25:31Z</time>
      </trkpt>
      <trkpt lat="39.5979810" lon="-7.3835730">
        <ele>349.8</ele>
        <time>2019-07-10T13:25:33Z</time>
      </trkpt>
      <trkpt lat="39.5980500" lon="-7.3838040">
        <ele>349.6</ele>
        <time>2019-07-10T13:25:36Z</time>
      </trkpt>
      <trkpt lat="39.5982190" lon="-7.3839210">
        <ele>349.4</ele>
        <time>2019-07-10T13:25:39Z</time>
      </trkpt>
      <trkpt lat="39.5984710" lon="-7.3840310">
        <ele>349.0</ele>
        <time>2019-07-10T13:25:43Z</time>
      </trkpt>
      <trkpt lat="39.5987320" lon="-7.3841560">
        <ele>348.4</ele>
        <time>2019-07-10T13:25:47Z</time>
      </trkpt>
      <trkpt lat="39.5992880" lon="-7.3844040">
        <ele>347.8</ele>
        <time>2019-07-10T13:25:55Z</time>
      </trkpt>
      <trkpt lat="39.5994320" lon="-7.3844570">
        <ele>347.6</ele>
        <time>2019-07-10T13:25:57Z</time>
      </trkpt>
      <trkpt lat="39.5998690" lon="-7.3846260">
        <ele>347.0</ele>
        <time>2019-07-10T13:26:03Z</time>
      </trkpt>
      <trkpt lat="39.5999420" lon="-7.3846540">
        <ele>346.8</ele>
        <time>2019-07-10T13:26:04Z</time>
      </trkpt>
      <trkpt lat="39.6002360" lon="-7.3847690">
        <ele>346.4</ele>
        <time>2019-07-10T13:26:08Z</time>
      </trkpt>
      <trkpt lat="39.6004530" lon="-7.3848540">
        <ele>345.8</ele>
        <time>2019-07-10T13:26:11Z</time>
      </trkpt>
      <trkpt lat="39.6008140" lon="-7.3849900">
        <ele>345.6</ele>
        <time>2019-07-10T13:26:16Z</time>
      </trkpt>
      <trkpt lat="39.6013840" lon="-7.3852120">
        <ele>345.0</ele>
        <time>2019-07-10T13:26:24Z</time>
      </trkpt>
      <trkpt lat="39.6015200" lon="-7.3852700">
        <ele>345.0</ele>
        <time>2019-07-10T13:26:26Z</time>
      </trkpt>
      <trkpt lat="39.6017210" lon="-7.3853500">
        <ele>345.0</ele>
        <time>2019-07-10T13:26:29Z</time>
      </trkpt>
      <trkpt lat="39.6020490" lon="-7.3854810">
        <ele>344.4</ele>
        <time>2019-07-10T13:26:34Z</time>
      </trkpt>
      <trkpt lat="39.6023110" lon="-7.3855840">
        <ele>343.8</ele>
        <time>2019-07-10T13:26:38Z</time>
      </trkpt>
      <trkpt lat="39.6027020" lon="-7.3857420">
        <ele>343.6</ele>
        <time>2019-07-10T13:26:44Z</time>
      </trkpt>
      <trkpt lat="39.6032100" lon="-7.3859860">
        <ele>343.6</ele>
        <time>2019-07-10T13:26:52Z</time>
      </trkpt>
      <trkpt lat="39.6035180" lon="-7.3861750">
        <ele>343.4</ele>
        <time>2019-07-10T13:26:57Z</time>
      </trkpt>
      <trkpt lat="39.6037480" lon="-7.3863510">
        <ele>343.4</ele>
        <time>2019-07-10T13:27:01Z</time>
      </trkpt>
      <trkpt lat="39.6038030" lon="-7.3863960">
        <ele>343.4</ele>
        <time>2019-07-10T13:27:02Z</time>
      </trkpt>
      <trkpt lat="39.6042720" lon="-7.3868380">
        <ele>343.2</ele>
        <time>2019-07-10T13:27:11Z</time>
      </trkpt>
      <trkpt lat="39.6046870" lon="-7.3873560">
        <ele>343.0</ele>
        <time>2019-07-10T13:27:20Z</time>
      </trkpt>
      <trkpt lat="39.6047310" lon="-7.3874200">
        <ele>343.0</ele>
        <time>2019-07-10T13:27:21Z</time>
      </trkpt>
      <trkpt lat="39.6048560" lon="-7.3876140">
        <ele>342.8</ele>
        <time>2019-07-10T13:27:24Z</time>
      </trkpt>
      <trkpt lat="39.6050270" lon="-7.3878680">
        <ele>342.8</ele>
        <time>2019-07-10T13:27:28Z</time>
      </trkpt>
      <trkpt lat="39.6050680" lon="-7.3879360">
        <ele>342.8</ele>
        <time>2019-07-10T13:27:29Z</time>
      </trkpt>
      <trkpt lat="39.6054360" lon="-7.3885460">
        <ele>342.6</ele>
        <time>2019-07-10T13:27:38Z</time>
      </trkpt>
      <trkpt lat="39.6056820" lon="-7.3889520">
        <ele>341.6</ele>
        <time>2019-07-10T13:27:44Z</time>
      </trkpt>
      <trkpt lat="39.6058500" lon="-7.3892270">
        <ele>341.0</ele>
        <time>2019-07-10T13:27:48Z</time>
      </trkpt>
      <trkpt lat="39.6061860" lon="-7.3898000">
        <ele>340.6</ele>
        <time>2019-07-10T13:27:56Z</time>
      </trkpt>
      <trkpt lat="39.6062290" lon="-7.3898710">
        <ele>340.4</ele>
        <time>2019-07-10T13:27:57Z</time>
      </trkpt>
      <trkpt lat="39.6065680" lon="-7.3904360">
        <ele>340.2</ele>
        <time>2019-07-10T13:28:05Z</time>
      </trkpt>
      <trkpt lat="39.6068650" lon="-7.3909160">
        <ele>339.2</ele>
        <time>2019-07-10T13:28:12Z</time>
      </trkpt>
      <trkpt lat="39.6069060" lon="-7.3909850">
        <ele>339.0</ele>
        <time>2019-07-10T13:28:13Z</time>
      </trkpt>
      <trkpt lat="39.6072410" lon="-7.3915520">
        <ele>338.4</ele>
        <time>2019-07-10T13:28:21Z</time>
      </trkpt>
      <trkpt lat="39.6072840" lon="-7.3916240">
        <ele>338.2</ele>
        <time>2019-07-10T13:28:22Z</time>
      </trkpt>
      <trkpt lat="39.6074140" lon="-7.3918360">
        <ele>338.2</ele>
        <time>2019-07-10T13:28:25Z</time>
      </trkpt>
      <trkpt lat="39.6077630" lon="-7.3923970">
        <ele>337.4</ele>
        <time>2019-07-10T13:28:33Z</time>
      </trkpt>
      <trkpt lat="39.6081270" lon="-7.3929840">
        <ele>337.4</ele>
        <time>2019-07-10T13:28:41Z</time>
      </trkpt>
      <trkpt lat="39.6081720" lon="-7.3930590">
        <ele>337.2</ele>
        <time>2019-07-10T13:28:42Z</time>
      </trkpt>
      <trkpt lat="39.6082630" lon="-7.3932100">
        <ele>337.2</ele>
        <time>2019-07-10T13:28:44Z</time>
      </trkpt>
      <trkpt lat="39.6085310" lon="-7.3936580">
        <ele>336.8</ele>
        <time>2019-07-10T13:28:50Z</time>
      </trkpt>
      <trkpt lat="39.6086240" lon="-7.3938020">
        <ele>337.0</ele>
        <time>2019-07-10T13:28:52Z</time>
      </trkpt>
      <trkpt lat="39.6089350" lon="-7.3943130">
        <ele>337.2</ele>
        <time>2019-07-10T13:28:59Z</time>
      </trkpt>
      <trkpt lat="39.6092770" lon="-7.3948790">
        <ele>336.4</ele>
        <time>2019-07-10T13:29:07Z</time>
      </trkpt>
      <trkpt lat="39.6095400" lon="-7.3953040">
        <ele>336.2</ele>
        <time>2019-07-10T13:29:13Z</time>
      </trkpt>
      <trkpt lat="39.6096280" lon="-7.3954510">
        <ele>336.0</ele>
        <time>2019-07-10T13:29:15Z</time>
      </trkpt>
      <trkpt lat="39.6100010" lon="-7.3960570">
        <ele>335.6</ele>
        <time>2019-07-10T13:29:23Z</time>
      </trkpt>
      <trkpt lat="39.6101000" lon="-7.3962130">
        <ele>335.4</ele>
        <time>2019-07-10T13:29:25Z</time>
      </trkpt>
      <trkpt lat="39.6102570" lon="-7.3964410">
        <ele>335.2</ele>
        <time>2019-07-10T13:29:28Z</time>
      </trkpt>
      <trkpt lat="39.6105240" lon="-7.3968140">
        <ele>334.6</ele>
        <time>2019-07-10T13:29:33Z</time>
      </trkpt>
      <trkpt lat="39.6108030" lon="-7.3971480">
        <ele>334.0</ele>
        <time>2019-07-10T13:29:38Z</time>
      </trkpt>
      <trkpt lat="39.6109100" lon="-7.3972790">
        <ele>334.0</ele>
        <time>2019-07-10T13:29:40Z</time>
      </trkpt>
      <trkpt lat="39.6112240" lon="-7.3976540">
        <ele>333.6</ele>
        <time>2019-07-10T13:29:46Z</time>
      </trkpt>
      <trkpt lat="39.6113820" lon="-7.3978320">
        <ele>333.8</ele>
        <time>2019-07-10T13:29:49Z</time>
      </trkpt>
      <trkpt lat="39.6117370" lon="-7.3982400">
        <ele>333.4</ele>
        <time>2019-07-10T13:29:56Z</time>
      </trkpt>
      <trkpt lat="39.6119350" lon="-7.3984800">
        <ele>333.4</ele>
        <time>2019-07-10T13:30:00Z</time>
      </trkpt>
      <trkpt lat="39.6120840" lon="-7.3986530">
        <ele>333.8</ele>
        <time>2019-07-10T13:30:03Z</time>
      </trkpt>
      <trkpt lat="39.6124240" lon="-7.3990500">
        <ele>333.6</ele>
        <time>2019-07-10T13:30:10Z</time>
      </trkpt>
      <trkpt lat="39.6125210" lon="-7.3991650">
        <ele>333.2</ele>
        <time>2019-07-10T13:30:12Z</time>
      </trkpt>
      <trkpt lat="39.6129600" lon="-7.3996730">
        <ele>333.8</ele>
        <time>2019-07-10T13:30:21Z</time>
      </trkpt>
      <trkpt lat="39.6130530" lon="-7.3997870">
        <ele>334.2</ele>
        <time>2019-07-10T13:30:23Z</time>
      </trkpt>
      <trkpt lat="39.6133170" lon="-7.4000980">
        <ele>334.8</ele>
        <time>2019-07-10T13:30:29Z</time>
      </trkpt>
      <trkpt lat="39.6136000" lon="-7.4004330">
        <ele>335.0</ele>
        <time>2019-07-10T13:30:36Z</time>
      </trkpt>
      <trkpt lat="39.6136800" lon="-7.4005180">
        <ele>335.2</ele>
        <time>2019-07-10T13:30:38Z</time>
      </trkpt>
      <trkpt lat="39.6139210" lon="-7.4007850">
        <ele>335.6</ele>
        <time>2019-07-10T13:30:44Z</time>
      </trkpt>
      <trkpt lat="39.6139590" lon="-7.4008320">
        <ele>335.6</ele>
        <time>2019-07-10T13:30:45Z</time>
      </trkpt>
      <trkpt lat="39.6140760" lon="-7.4009640">
        <ele>335.8</ele>
        <time>2019-07-10T13:30:48Z</time>
      </trkpt>
      <trkpt lat="39.6143520" lon="-7.4012760">
        <ele>336.0</ele>
        <time>2019-07-10T13:30:55Z</time>
      </trkpt>
      <trkpt lat="39.6147450" lon="-7.4016950">
        <ele>336.0</ele>
        <time>2019-07-10T13:31:04Z</time>
      </trkpt>
      <trkpt lat="39.6151600" lon="-7.4020450">
        <ele>335.4</ele>
        <time>2019-07-10T13:31:12Z</time>
      </trkpt>
      <trkpt lat="39.6153330" lon="-7.4021550">
        <ele>335.2</ele>
        <time>2019-07-10T13:31:15Z</time>
      </trkpt>
      <trkpt lat="39.6155580" lon="-7.4023020">
        <ele>334.6</ele>
        <time>2019-07-10T13:31:19Z</time>
      </trkpt>
      <trkpt lat="39.6158310" lon="-7.4024480">
        <ele>334.4</ele>
        <time>2019-07-10T13:31:24Z</time>
      </trkpt>
      <trkpt lat="39.6158750" lon="-7.4024930">
        <ele>334.4</ele>
        <time>2019-07-10T13:31:25Z</time>
      </trkpt>
      <trkpt lat="39.6159390" lon="-7.4026920">
        <ele>334.0</ele>
        <time>2019-07-10T13:31:28Z</time>
      </trkpt>
      <trkpt lat="39.6158990" lon="-7.4028480">
        <ele>333.4</ele>
        <time>2019-07-10T13:31:30Z</time>
      </trkpt>
      <trkpt lat="39.6158570" lon="-7.4029130">
        <ele>333.2</ele>
        <time>2019-07-10T13:31:31Z</time>
      </trkpt>
      <trkpt lat="39.6157450" lon="-7.4030150">
        <ele>333.0</ele>
        <time>2019-07-10T13:31:33Z</time>
      </trkpt>
      <trkpt lat="39.6156840" lon="-7.4030580">
        <ele>333.0</ele>
        <time>2019-07-10T13:31:34Z</time>
      </trkpt>
      <trkpt lat="39.6156220" lon="-7.4030980">
        <ele>332.8</ele>
        <time>2019-07-10T13:31:35Z</time>
      </trkpt>
      <trkpt lat="39.6152870" lon="-7.4032580">
        <ele>332.0</ele>
        <time>2019-07-10T13:31:40Z</time>
      </trkpt>
      <trkpt lat="39.6152180" lon="-7.4032820">
        <ele>331.8</ele>
        <time>2019-07-10T13:31:41Z</time>
      </trkpt>
      <trkpt lat="39.6151480" lon="-7.4033060">
        <ele>331.4</ele>
        <time>2019-07-10T13:31:42Z</time>
      </trkpt>
      <trkpt lat="39.6147460" lon="-7.4034470">
        <ele>331.0</ele>
        <time>2019-07-10T13:31:48Z</time>
      </trkpt>
      <trkpt lat="39.6146150" lon="-7.4034920">
        <ele>331.4</ele>
        <time>2019-07-10T13:31:50Z</time>
      </trkpt>
      <trkpt lat="39.6143530" lon="-7.4035550">
        <ele>332.0</ele>
        <time>2019-07-10T13:31:54Z</time>
      </trkpt>
      <trkpt lat="39.6141630" lon="-7.4035880">
        <ele>332.2</ele>
        <time>2019-07-10T13:31:57Z</time>
      </trkpt>
      <trkpt lat="39.6139800" lon="-7.4036000">
        <ele>332.6</ele>
        <time>2019-07-10T13:32:00Z</time>
      </trkpt>
      <trkpt lat="39.6137960" lon="-7.4035920">
        <ele>332.8</ele>
        <time>2019-07-10T13:32:03Z</time>
      </trkpt>
      <trkpt lat="39.6133570" lon="-7.4035780">
        <ele>332.2</ele>
        <time>2019-07-10T13:32:10Z</time>
      </trkpt>
      <trkpt lat="39.6128700" lon="-7.4035390">
        <ele>331.4</ele>
        <time>2019-07-10T13:32:17Z</time>
      </trkpt>
      <trkpt lat="39.6125720" lon="-7.4035440">
        <ele>330.8</ele>
        <time>2019-07-10T13:32:21Z</time>
      </trkpt>
      <trkpt lat="39.6123320" lon="-7.4035520">
        <ele>330.0</ele>
        <time>2019-07-10T13:32:24Z</time>
      </trkpt>
      <trkpt lat="39.6122500" lon="-7.4035660">
        <ele>329.8</ele>
        <time>2019-07-10T13:32:25Z</time>
      </trkpt>
      <trkpt lat="39.6120820" lon="-7.4036130">
        <ele>329.2</ele>
        <time>2019-07-10T13:32:27Z</time>
      </trkpt>
      <trkpt lat="39.6119120" lon="-7.4036790">
        <ele>328.4</ele>
        <time>2019-07-10T13:32:29Z</time>
      </trkpt>
      <trkpt lat="39.6115100" lon="-7.4039300">
        <ele>327.6</ele>
        <time>2019-07-10T13:32:34Z</time>
      </trkpt>
      <trkpt lat="39.6113000" lon="-7.4041160">
        <ele>327.0</ele>
        <time>2019-07-10T13:32:37Z</time>
      </trkpt>
      <trkpt lat="39.6111120" lon="-7.4043130">
        <ele>326.6</ele>
        <time>2019-07-10T13:32:40Z</time>
      </trkpt>
      <trkpt lat="39.6110530" lon="-7.4043790">
        <ele>326.4</ele>
        <time>2019-07-10T13:32:41Z</time>
      </trkpt>
      <trkpt lat="39.6109350" lon="-7.4045080">
        <ele>326.6</ele>
        <time>2019-07-10T13:32:43Z</time>
      </trkpt>
      <trkpt lat="39.6106090" lon="-7.4048660">
        <ele>326.8</ele>
        <time>2019-07-10T13:32:49Z</time>
      </trkpt>
      <trkpt lat="39.6104190" lon="-7.4050780">
        <ele>327.6</ele>
        <time>2019-07-10T13:32:53Z</time>
      </trkpt>
      <trkpt lat="39.6103300" lon="-7.4051750">
        <ele>327.8</ele>
        <time>2019-07-10T13:32:55Z</time>
      </trkpt>
      <trkpt lat="39.6102860" lon="-7.4052210">
        <ele>328.0</ele>
        <time>2019-07-10T13:32:56Z</time>
      </trkpt>
      <trkpt lat="39.6101600" lon="-7.4053610">
        <ele>328.2</ele>
        <time>2019-07-10T13:32:59Z</time>
      </trkpt>
      <trkpt lat="39.6099970" lon="-7.4055310">
        <ele>328.6</ele>
        <time>2019-07-10T13:33:03Z</time>
      </trkpt>
      <trkpt lat="39.6099590" lon="-7.4055750">
        <ele>328.8</ele>
        <time>2019-07-10T13:33:04Z</time>
      </trkpt>
      <trkpt lat="39.6097510" lon="-7.4057960">
        <ele>329.4</ele>
        <time>2019-07-10T13:33:10Z</time>
      </trkpt>
      <trkpt lat="39.6096920" lon="-7.4058650">
        <ele>329.8</ele>
        <time>2019-07-10T13:33:12Z</time>
      </trkpt>
      <trkpt lat="39.6096060" lon="-7.4059600">
        <ele>330.4</ele>
        <time>2019-07-10T13:33:15Z</time>
      </trkpt>
      <trkpt lat="39.6095210" lon="-7.4060510">
        <ele>331.0</ele>
        <time>2019-07-10T13:33:18Z</time>
      </trkpt>
      <trkpt lat="39.6094920" lon="-7.4060830">
        <ele>331.2</ele>
        <time>2019-07-10T13:33:19Z</time>
      </trkpt>
      <trkpt lat="39.6094070" lon="-7.4061790">
        <ele>331.8</ele>
        <time>2019-07-10T13:33:22Z</time>
      </trkpt>
      <trkpt lat="39.6093490" lon="-7.4062390">
        <ele>332.2</ele>
        <time>2019-07-10T13:33:24Z</time>
      </trkpt>
      <trkpt lat="39.6092320" lon="-7.4063660">
        <ele>333.0</ele>
        <time>2019-07-10T13:33:28Z</time>
      </trkpt>
      <trkpt lat="39.6091740" lon="-7.4064290">
        <ele>333.2</ele>
        <time>2019-07-10T13:33:30Z</time>
      </trkpt>
      <trkpt lat="39.6090300" lon="-7.4065830">
        <ele>334.4</ele>
        <time>2019-07-10T13:33:35Z</time>
      </trkpt>
      <trkpt lat="39.6089710" lon="-7.4066430">
        <ele>334.8</ele>
        <time>2019-07-10T13:33:37Z</time>
      </trkpt>
      <trkpt lat="39.6088550" lon="-7.4067710">
        <ele>335.6</ele>
        <time>2019-07-10T13:33:41Z</time>
      </trkpt>
      <trkpt lat="39.6087390" lon="-7.4069030">
        <ele>336.6</ele>
        <time>2019-07-10T13:33:45Z</time>
      </trkpt>
      <trkpt lat="39.6086770" lon="-7.4069600">
        <ele>337.0</ele>
        <time>2019-07-10T13:33:47Z</time>
      </trkpt>
      <trkpt lat="39.6085880" lon="-7.4070550">
        <ele>337.6</ele>
        <time>2019-07-10T13:33:50Z</time>
      </trkpt>
      <trkpt lat="39.6084700" lon="-7.4071850">
        <ele>338.4</ele>
        <time>2019-07-10T13:33:54Z</time>
      </trkpt>
      <trkpt lat="39.6084400" lon="-7.4072160">
        <ele>338.8</ele>
        <time>2019-07-10T13:33:55Z</time>
      </trkpt>
      <trkpt lat="39.6083220" lon="-7.4073450">
        <ele>340.0</ele>
        <time>2019-07-10T13:33:59Z</time>
      </trkpt>
      <trkpt lat="39.6082020" lon="-7.4074800">
        <ele>340.6</ele>
        <time>2019-07-10T13:34:03Z</time>
      </trkpt>
      <trkpt lat="39.6081470" lon="-7.4075550">
        <ele>341.0</ele>
        <time>2019-07-10T13:34:05Z</time>
      </trkpt>
      <trkpt lat="39.6080170" lon="-7.4077520">
        <ele>342.2</ele>
        <time>2019-07-10T13:34:10Z</time>
      </trkpt>
      <trkpt lat="39.6079940" lon="-7.4077920">
        <ele>342.4</ele>
        <time>2019-07-10T13:34:11Z</time>
      </trkpt>
      <trkpt lat="39.6079040" lon="-7.4079600">
        <ele>343.4</ele>
        <time>2019-07-10T13:34:15Z</time>
      </trkpt>
      <trkpt lat="39.6078670" lon="-7.4080540">
        <ele>343.6</ele>
        <time>2019-07-10T13:34:17Z</time>
      </trkpt>
      <trkpt lat="39.6078360" lon="-7.4081530">
        <ele>343.8</ele>
        <time>2019-07-10T13:34:19Z</time>
      </trkpt>
      <trkpt lat="39.6077650" lon="-7.4084040">
        <ele>344.4</ele>
        <time>2019-07-10T13:34:24Z</time>
      </trkpt>
      <trkpt lat="39.6077140" lon="-7.4086190">
        <ele>344.4</ele>
        <time>2019-07-10T13:34:28Z</time>
      </trkpt>
      <trkpt lat="39.6076790" lon="-7.4087780">
        <ele>344.4</ele>
        <time>2019-07-10T13:34:31Z</time>
      </trkpt>
      <trkpt lat="39.6076560" lon="-7.4088900">
        <ele>344.4</ele>
        <time>2019-07-10T13:34:33Z</time>
      </trkpt>
      <trkpt lat="39.6076160" lon="-7.4090670">
        <ele>344.4</ele>
        <time>2019-07-10T13:34:36Z</time>
      </trkpt>
      <trkpt lat="39.6075900" lon="-7.4091930">
        <ele>344.4</ele>
        <time>2019-07-10T13:34:38Z</time>
      </trkpt>
      <trkpt lat="39.6075650" lon="-7.4093280">
        <ele>344.0</ele>
        <time>2019-07-10T13:34:40Z</time>
      </trkpt>
      <trkpt lat="39.6075400" lon="-7.4094740">
        <ele>343.8</ele>
        <time>2019-07-10T13:34:42Z</time>
      </trkpt>
      <trkpt lat="39.6075320" lon="-7.4095500">
        <ele>343.8</ele>
        <time>2019-07-10T13:34:43Z</time>
      </trkpt>
      <trkpt lat="39.6075270" lon="-7.4096300">
        <ele>343.6</ele>
        <time>2019-07-10T13:34:44Z</time>
      </trkpt>
      <trkpt lat="39.6075220" lon="-7.4097120">
        <ele>343.6</ele>
        <time>2019-07-10T13:34:45Z</time>
      </trkpt>
      <trkpt lat="39.6075200" lon="-7.4097960">
        <ele>343.4</ele>
        <time>2019-07-10T13:34:46Z</time>
      </trkpt>
      <trkpt lat="39.6075210" lon="-7.4098810">
        <ele>343.2</ele>
        <time>2019-07-10T13:34:47Z</time>
      </trkpt>
      <trkpt lat="39.6075380" lon="-7.4101530">
        <ele>342.6</ele>
        <time>2019-07-10T13:34:50Z</time>
      </trkpt>
      <trkpt lat="39.6075810" lon="-7.4104330">
        <ele>342.2</ele>
        <time>2019-07-10T13:34:53Z</time>
      </trkpt>
      <trkpt lat="39.6076290" lon="-7.4106200">
        <ele>341.8</ele>
        <time>2019-07-10T13:34:55Z</time>
      </trkpt>
      <trkpt lat="39.6076900" lon="-7.4108050">
        <ele>341.4</ele>
        <time>2019-07-10T13:34:57Z</time>
      </trkpt>
      <trkpt lat="39.6077240" lon="-7.4108950">
        <ele>341.2</ele>
        <time>2019-07-10T13:34:58Z</time>
      </trkpt>
      <trkpt lat="39.6077990" lon="-7.4110710">
        <ele>340.8</ele>
        <time>2019-07-10T13:35:00Z</time>
      </trkpt>
      <trkpt lat="39.6078400" lon="-7.4111540">
        <ele>340.6</ele>
        <time>2019-07-10T13:35:01Z</time>
      </trkpt>
      <trkpt lat="39.6079760" lon="-7.4113890">
        <ele>340.2</ele>
        <time>2019-07-10T13:35:04Z</time>
      </trkpt>
      <trkpt lat="39.6080210" lon="-7.4114660">
        <ele>340.0</ele>
        <time>2019-07-10T13:35:05Z</time>
      </trkpt>
      <trkpt lat="39.6081140" lon="-7.4116150">
        <ele>339.8</ele>
        <time>2019-07-10T13:35:07Z</time>
      </trkpt>
      <trkpt lat="39.6082580" lon="-7.4118350">
        <ele>339.2</ele>
        <time>2019-07-10T13:35:10Z</time>
      </trkpt>
      <trkpt lat="39.6083550" lon="-7.4119820">
        <ele>339.2</ele>
        <time>2019-07-10T13:35:12Z</time>
      </trkpt>
      <trkpt lat="39.6084470" lon="-7.4121300">
        <ele>339.2</ele>
        <time>2019-07-10T13:35:14Z</time>
      </trkpt>
      <trkpt lat="39.6088070" lon="-7.4126970">
        <ele>339.2</ele>
        <time>2019-07-10T13:35:22Z</time>
      </trkpt>
      <trkpt lat="39.6088500" lon="-7.4127660">
        <ele>339.2</ele>
        <time>2019-07-10T13:35:23Z</time>
      </trkpt>
      <trkpt lat="39.6092270" lon="-7.4133760">
        <ele>339.2</ele>
        <time>2019-07-10T13:35:32Z</time>
      </trkpt>
      <trkpt lat="39.6093080" lon="-7.4135060">
        <ele>339.4</ele>
        <time>2019-07-10T13:35:34Z</time>
      </trkpt>
      <trkpt lat="39.6095530" lon="-7.4138880">
        <ele>338.8</ele>
        <time>2019-07-10T13:35:40Z</time>
      </trkpt>
      <trkpt lat="39.6096340" lon="-7.4140190">
        <ele>338.6</ele>
        <time>2019-07-10T13:35:42Z</time>
      </trkpt>
      <trkpt lat="39.6100000" lon="-7.4146220">
        <ele>338.2</ele>
        <time>2019-07-10T13:35:51Z</time>
      </trkpt>
      <trkpt lat="39.6101290" lon="-7.4148290">
        <ele>338.0</ele>
        <time>2019-07-10T13:35:54Z</time>
      </trkpt>
      <trkpt lat="39.6103670" lon="-7.4152010">
        <ele>337.0</ele>
        <time>2019-07-10T13:35:59Z</time>
      </trkpt>
      <trkpt lat="39.6105180" lon="-7.4154590">
        <ele>336.2</ele>
        <time>2019-07-10T13:36:02Z</time>
      </trkpt>
      <trkpt lat="39.6105710" lon="-7.4155480">
        <ele>335.6</ele>
        <time>2019-07-10T13:36:03Z</time>
      </trkpt>
      <trkpt lat="39.6106850" lon="-7.4157250">
        <ele>334.8</ele>
        <time>2019-07-10T13:36:05Z</time>
      </trkpt>
      <trkpt lat="39.6107430" lon="-7.4158160">
        <ele>334.6</ele>
        <time>2019-07-10T13:36:06Z</time>
      </trkpt>
      <trkpt lat="39.6108570" lon="-7.4160020">
        <ele>333.8</ele>
        <time>2019-07-10T13:36:08Z</time>
      </trkpt>
      <trkpt lat="39.6109140" lon="-7.4160950">
        <ele>333.4</ele>
        <time>2019-07-10T13:36:09Z</time>
      </trkpt>
      <trkpt lat="39.6111420" lon="-7.4164520">
        <ele>332.6</ele>
        <time>2019-07-10T13:36:13Z</time>
      </trkpt>
      <trkpt lat="39.6111970" lon="-7.4165350">
        <ele>332.4</ele>
        <time>2019-07-10T13:36:14Z</time>
      </trkpt>
      <trkpt lat="39.6113020" lon="-7.4166990">
        <ele>332.4</ele>
        <time>2019-07-10T13:36:16Z</time>
      </trkpt>
      <trkpt lat="39.6114420" lon="-7.4169350">
        <ele>332.4</ele>
        <time>2019-07-10T13:36:19Z</time>
      </trkpt>
      <trkpt lat="39.6115360" lon="-7.4170780">
        <ele>332.4</ele>
        <time>2019-07-10T13:36:21Z</time>
      </trkpt>
      <trkpt lat="39.6116220" lon="-7.4172230">
        <ele>332.6</ele>
        <time>2019-07-10T13:36:23Z</time>
      </trkpt>
      <trkpt lat="39.6117110" lon="-7.4173630">
        <ele>332.6</ele>
        <time>2019-07-10T13:36:25Z</time>
      </trkpt>
      <trkpt lat="39.6119790" lon="-7.4177850">
        <ele>332.8</ele>
        <time>2019-07-10T13:36:31Z</time>
      </trkpt>
      <trkpt lat="39.6120700" lon="-7.4179340">
        <ele>332.8</ele>
        <time>2019-07-10T13:36:33Z</time>
      </trkpt>
      <trkpt lat="39.6121630" lon="-7.4180870">
        <ele>332.8</ele>
        <time>2019-07-10T13:36:35Z</time>
      </trkpt>
      <trkpt lat="39.6124980" lon="-7.4186390">
        <ele>332.2</ele>
        <time>2019-07-10T13:36:42Z</time>
      </trkpt>
      <trkpt lat="39.6125940" lon="-7.4187920">
        <ele>332.0</ele>
        <time>2019-07-10T13:36:44Z</time>
      </trkpt>
      <trkpt lat="39.6129540" lon="-7.4193460">
        <ele>332.8</ele>
        <time>2019-07-10T13:36:52Z</time>
      </trkpt>
      <trkpt lat="39.6131000" lon="-7.4195640">
        <ele>332.0</ele>
        <time>2019-07-10T13:36:55Z</time>
      </trkpt>
      <trkpt lat="39.6132600" lon="-7.4198070">
        <ele>331.0</ele>
        <time>2019-07-10T13:36:58Z</time>
      </trkpt>
      <trkpt lat="39.6134430" lon="-7.4200750">
        <ele>329.8</ele>
        <time>2019-07-10T13:37:01Z</time>
      </trkpt>
      <trkpt lat="39.6135720" lon="-7.4202600">
        <ele>328.8</ele>
        <time>2019-07-10T13:37:03Z</time>
      </trkpt>
      <trkpt lat="39.6137050" lon="-7.4204510">
        <ele>328.2</ele>
        <time>2019-07-10T13:37:05Z</time>
      </trkpt>
      <trkpt lat="39.6139010" lon="-7.4207350">
        <ele>327.6</ele>
        <time>2019-07-10T13:37:08Z</time>
      </trkpt>
      <trkpt lat="39.6140940" lon="-7.4210200">
        <ele>326.6</ele>
        <time>2019-07-10T13:37:11Z</time>
      </trkpt>
      <trkpt lat="39.6142930" lon="-7.4213030">
        <ele>326.0</ele>
        <time>2019-07-10T13:37:14Z</time>
      </trkpt>
      <trkpt lat="39.6144940" lon="-7.4215730">
        <ele>325.4</ele>
        <time>2019-07-10T13:37:17Z</time>
      </trkpt>
      <trkpt lat="39.6147130" lon="-7.4218220">
        <ele>324.4</ele>
        <time>2019-07-10T13:37:20Z</time>
      </trkpt>
      <trkpt lat="39.6147930" lon="-7.4218970">
        <ele>324.2</ele>
        <time>2019-07-10T13:37:21Z</time>
      </trkpt>
      <trkpt lat="39.6151110" lon="-7.4221850">
        <ele>323.2</ele>
        <time>2019-07-10T13:37:25Z</time>
      </trkpt>
      <trkpt lat="39.6154220" lon="-7.4224570">
        <ele>322.8</ele>
        <time>2019-07-10T13:37:29Z</time>
      </trkpt>
      <trkpt lat="39.6155750" lon="-7.4225890">
        <ele>322.0</ele>
        <time>2019-07-10T13:37:31Z</time>
      </trkpt>
      <trkpt lat="39.6157900" lon="-7.4227950">
        <ele>321.6</ele>
        <time>2019-07-10T13:37:34Z</time>
      </trkpt>
      <trkpt lat="39.6159190" lon="-7.4229360">
        <ele>321.4</ele>
        <time>2019-07-10T13:37:36Z</time>
      </trkpt>
      <trkpt lat="39.6161310" lon="-7.4232340">
        <ele>321.4</ele>
        <time>2019-07-10T13:37:40Z</time>
      </trkpt>
      <trkpt lat="39.6161810" lon="-7.4233070">
        <ele>321.6</ele>
        <time>2019-07-10T13:37:41Z</time>
      </trkpt>
      <trkpt lat="39.6164510" lon="-7.4237390">
        <ele>321.4</ele>
        <time>2019-07-10T13:37:47Z</time>
      </trkpt>
      <trkpt lat="39.6166330" lon="-7.4240430">
        <ele>321.2</ele>
        <time>2019-07-10T13:37:51Z</time>
      </trkpt>
      <trkpt lat="39.6167770" lon="-7.4242910">
        <ele>320.6</ele>
        <time>2019-07-10T13:37:54Z</time>
      </trkpt>
      <trkpt lat="39.6170110" lon="-7.4247200">
        <ele>320.0</ele>
        <time>2019-07-10T13:37:59Z</time>
      </trkpt>
      <trkpt lat="39.6171400" lon="-7.4249670">
        <ele>320.0</ele>
        <time>2019-07-10T13:38:02Z</time>
      </trkpt>
      <trkpt lat="39.6171790" lon="-7.4250470">
        <ele>320.0</ele>
        <time>2019-07-10T13:38:03Z</time>
      </trkpt>
      <trkpt lat="39.6173310" lon="-7.4253480">
        <ele>320.6</ele>
        <time>2019-07-10T13:38:07Z</time>
      </trkpt>
      <trkpt lat="39.6174370" lon="-7.4255420">
        <ele>321.0</ele>
        <time>2019-07-10T13:38:10Z</time>
      </trkpt>
      <trkpt lat="39.6174690" lon="-7.4256040">
        <ele>321.2</ele>
        <time>2019-07-10T13:38:11Z</time>
      </trkpt>
      <trkpt lat="39.6177080" lon="-7.4260020">
        <ele>322.2</ele>
        <time>2019-07-10T13:38:18Z</time>
      </trkpt>
      <trkpt lat="39.6178850" lon="-7.4262750">
        <ele>322.6</ele>
        <time>2019-07-10T13:38:23Z</time>
      </trkpt>
      <trkpt lat="39.6179900" lon="-7.4264430">
        <ele>322.8</ele>
        <time>2019-07-10T13:38:26Z</time>
      </trkpt>
      <trkpt lat="39.6183400" lon="-7.4270020">
        <ele>322.8</ele>
        <time>2019-07-10T13:38:36Z</time>
      </trkpt>
      <trkpt lat="39.6183750" lon="-7.4270610">
        <ele>322.8</ele>
        <time>2019-07-10T13:38:37Z</time>
      </trkpt>
      <trkpt lat="39.6185790" lon="-7.4273940">
        <ele>322.4</ele>
        <time>2019-07-10T13:38:42Z</time>
      </trkpt>
      <trkpt lat="39.6186260" lon="-7.4274730">
        <ele>322.6</ele>
        <time>2019-07-10T13:38:43Z</time>
      </trkpt>
      <trkpt lat="39.6188260" lon="-7.4278410">
        <ele>321.4</ele>
        <time>2019-07-10T13:38:47Z</time>
      </trkpt>
      <trkpt lat="39.6188690" lon="-7.4279510">
        <ele>320.8</ele>
        <time>2019-07-10T13:38:48Z</time>
      </trkpt>
      <trkpt lat="39.6189080" lon="-7.4280660">
        <ele>320.2</ele>
        <time>2019-07-10T13:38:49Z</time>
      </trkpt>
      <trkpt lat="39.6189690" lon="-7.4283040">
        <ele>319.6</ele>
        <time>2019-07-10T13:38:51Z</time>
      </trkpt>
      <trkpt lat="39.6190270" lon="-7.4285400">
        <ele>319.0</ele>
        <time>2019-07-10T13:38:53Z</time>
      </trkpt>
      <trkpt lat="39.6190890" lon="-7.4287690">
        <ele>318.0</ele>
        <time>2019-07-10T13:38:55Z</time>
      </trkpt>
      <trkpt lat="39.6191870" lon="-7.4292030">
        <ele>317.0</ele>
        <time>2019-07-10T13:38:59Z</time>
      </trkpt>
      <trkpt lat="39.6192100" lon="-7.4293030">
        <ele>317.2</ele>
        <time>2019-07-10T13:39:00Z</time>
      </trkpt>
      <trkpt lat="39.6193320" lon="-7.4298290">
        <ele>318.0</ele>
        <time>2019-07-10T13:39:06Z</time>
      </trkpt>
      <trkpt lat="39.6193890" lon="-7.4300700">
        <ele>318.4</ele>
        <time>2019-07-10T13:39:09Z</time>
      </trkpt>
      <trkpt lat="39.6194840" lon="-7.4304760">
        <ele>318.8</ele>
        <time>2019-07-10T13:39:14Z</time>
      </trkpt>
      <trkpt lat="39.6196280" lon="-7.4311270">
        <ele>317.2</ele>
        <time>2019-07-10T13:39:21Z</time>
      </trkpt>
      <trkpt lat="39.6196730" lon="-7.4313040">
        <ele>316.8</ele>
        <time>2019-07-10T13:39:23Z</time>
      </trkpt>
      <trkpt lat="39.6197360" lon="-7.4315480">
        <ele>316.6</ele>
        <time>2019-07-10T13:39:26Z</time>
      </trkpt>
      <trkpt lat="39.6198110" lon="-7.4317710">
        <ele>316.8</ele>
        <time>2019-07-10T13:39:29Z</time>
      </trkpt>
      <trkpt lat="39.6198710" lon="-7.4319150">
        <ele>317.0</ele>
        <time>2019-07-10T13:39:31Z</time>
      </trkpt>
      <trkpt lat="39.6199080" lon="-7.4319860">
        <ele>317.0</ele>
        <time>2019-07-10T13:39:32Z</time>
      </trkpt>
      <trkpt lat="39.6200310" lon="-7.4322100">
        <ele>316.6</ele>
        <time>2019-07-10T13:39:35Z</time>
      </trkpt>
      <trkpt lat="39.6201680" lon="-7.4324560">
        <ele>316.0</ele>
        <time>2019-07-10T13:39:38Z</time>
      </trkpt>
      <trkpt lat="39.6202170" lon="-7.4325440">
        <ele>315.8</ele>
        <time>2019-07-10T13:39:39Z</time>
      </trkpt>
      <trkpt lat="39.6203750" lon="-7.4328180">
        <ele>314.8</ele>
        <time>2019-07-10T13:39:42Z</time>
      </trkpt>
      <trkpt lat="39.6204200" lon="-7.4329190">
        <ele>314.6</ele>
        <time>2019-07-10T13:39:43Z</time>
      </trkpt>
      <trkpt lat="39.6205180" lon="-7.4332390">
        <ele>314.2</ele>
        <time>2019-07-10T13:39:46Z</time>
      </trkpt>
      <trkpt lat="39.6205400" lon="-7.4333480">
        <ele>314.0</ele>
        <time>2019-07-10T13:39:47Z</time>
      </trkpt>
      <trkpt lat="39.6205810" lon="-7.4335590">
        <ele>313.8</ele>
        <time>2019-07-10T13:39:49Z</time>
      </trkpt>
      <trkpt lat="39.6206840" lon="-7.4340720">
        <ele>312.6</ele>
        <time>2019-07-10T13:39:54Z</time>
      </trkpt>
      <trkpt lat="39.6207080" lon="-7.4341740">
        <ele>312.4</ele>
        <time>2019-07-10T13:39:55Z</time>
      </trkpt>
      <trkpt lat="39.6207690" lon="-7.4343820">
        <ele>311.6</ele>
        <time>2019-07-10T13:39:57Z</time>
      </trkpt>
      <trkpt lat="39.6208780" lon="-7.4347100">
        <ele>310.6</ele>
        <time>2019-07-10T13:40:00Z</time>
      </trkpt>
      <trkpt lat="39.6209750" lon="-7.4350820">
        <ele>309.2</ele>
        <time>2019-07-10T13:40:03Z</time>
      </trkpt>
      <trkpt lat="39.6210000" lon="-7.4352160">
        <ele>308.4</ele>
        <time>2019-07-10T13:40:04Z</time>
      </trkpt>
      <trkpt lat="39.6210210" lon="-7.4353570">
        <ele>307.6</ele>
        <time>2019-07-10T13:40:05Z</time>
      </trkpt>
      <trkpt lat="39.6210490" lon="-7.4356500">
        <ele>306.0</ele>
        <time>2019-07-10T13:40:07Z</time>
      </trkpt>
      <trkpt lat="39.6210530" lon="-7.4357990">
        <ele>305.2</ele>
        <time>2019-07-10T13:40:08Z</time>
      </trkpt>
      <trkpt lat="39.6210510" lon="-7.4359480">
        <ele>304.6</ele>
        <time>2019-07-10T13:40:09Z</time>
      </trkpt>
      <trkpt lat="39.6210280" lon="-7.4362430">
        <ele>303.6</ele>
        <time>2019-07-10T13:40:11Z</time>
      </trkpt>
      <trkpt lat="39.6209880" lon="-7.4365320">
        <ele>302.6</ele>
        <time>2019-07-10T13:40:13Z</time>
      </trkpt>
      <trkpt lat="39.6209580" lon="-7.4366730">
        <ele>302.2</ele>
        <time>2019-07-10T13:40:14Z</time>
      </trkpt>
      <trkpt lat="39.6208380" lon="-7.4370730">
        <ele>301.8</ele>
        <time>2019-07-10T13:40:17Z</time>
      </trkpt>
      <trkpt lat="39.6206060" lon="-7.4377860">
        <ele>302.0</ele>
        <time>2019-07-10T13:40:23Z</time>
      </trkpt>
      <trkpt lat="39.6205800" lon="-7.4379000">
        <ele>302.0</ele>
        <time>2019-07-10T13:40:24Z</time>
      </trkpt>
      <trkpt lat="39.6205040" lon="-7.4383280">
        <ele>302.0</ele>
        <time>2019-07-10T13:40:28Z</time>
      </trkpt>
      <trkpt lat="39.6204840" lon="-7.4385320">
        <ele>302.0</ele>
        <time>2019-07-10T13:40:30Z</time>
      </trkpt>
      <trkpt lat="39.6204700" lon="-7.4387320">
        <ele>301.4</ele>
        <time>2019-07-10T13:40:32Z</time>
      </trkpt>
      <trkpt lat="39.6204620" lon="-7.4390330">
        <ele>300.8</ele>
        <time>2019-07-10T13:40:35Z</time>
      </trkpt>
      <trkpt lat="39.6204620" lon="-7.4392370">
        <ele>300.4</ele>
        <time>2019-07-10T13:40:37Z</time>
      </trkpt>
      <trkpt lat="39.6204640" lon="-7.4395590">
        <ele>299.2</ele>
        <time>2019-07-10T13:40:40Z</time>
      </trkpt>
      <trkpt lat="39.6204660" lon="-7.4397880">
        <ele>298.0</ele>
        <time>2019-07-10T13:40:42Z</time>
      </trkpt>
      <trkpt lat="39.6204710" lon="-7.4399090">
        <ele>297.6</ele>
        <time>2019-07-10T13:40:43Z</time>
      </trkpt>
      <trkpt lat="39.6204900" lon="-7.4401620">
        <ele>296.6</ele>
        <time>2019-07-10T13:40:45Z</time>
      </trkpt>
      <trkpt lat="39.6205250" lon="-7.4404260">
        <ele>295.0</ele>
        <time>2019-07-10T13:40:47Z</time>
      </trkpt>
      <trkpt lat="39.6205500" lon="-7.4405590">
        <ele>294.2</ele>
        <time>2019-07-10T13:40:48Z</time>
      </trkpt>
      <trkpt lat="39.6205780" lon="-7.4406900">
        <ele>293.2</ele>
        <time>2019-07-10T13:40:49Z</time>
      </trkpt>
      <trkpt lat="39.6206460" lon="-7.4409500">
        <ele>292.0</ele>
        <time>2019-07-10T13:40:51Z</time>
      </trkpt>
      <trkpt lat="39.6207250" lon="-7.4412060">
        <ele>290.6</ele>
        <time>2019-07-10T13:40:53Z</time>
      </trkpt>
      <trkpt lat="39.6207700" lon="-7.4413330">
        <ele>290.0</ele>
        <time>2019-07-10T13:40:54Z</time>
      </trkpt>
      <trkpt lat="39.6208210" lon="-7.4414570">
        <ele>289.4</ele>
        <time>2019-07-10T13:40:55Z</time>
      </trkpt>
      <trkpt lat="39.6209320" lon="-7.4416970">
        <ele>288.2</ele>
        <time>2019-07-10T13:40:57Z</time>
      </trkpt>
      <trkpt lat="39.6210490" lon="-7.4419260">
        <ele>287.4</ele>
        <time>2019-07-10T13:40:59Z</time>
      </trkpt>
      <trkpt lat="39.6211070" lon="-7.4420390">
        <ele>287.0</ele>
        <time>2019-07-10T13:41:00Z</time>
      </trkpt>
      <trkpt lat="39.6212750" lon="-7.4423690">
        <ele>285.8</ele>
        <time>2019-07-10T13:41:03Z</time>
      </trkpt>
      <trkpt lat="39.6213860" lon="-7.4425830">
        <ele>284.8</ele>
        <time>2019-07-10T13:41:05Z</time>
      </trkpt>
      <trkpt lat="39.6214940" lon="-7.4427970">
        <ele>284.0</ele>
        <time>2019-07-10T13:41:07Z</time>
      </trkpt>
      <trkpt lat="39.6215480" lon="-7.4429030">
        <ele>283.6</ele>
        <time>2019-07-10T13:41:08Z</time>
      </trkpt>
      <trkpt lat="39.6217060" lon="-7.4432250">
        <ele>282.4</ele>
        <time>2019-07-10T13:41:11Z</time>
      </trkpt>
      <trkpt lat="39.6218660" lon="-7.4435370">
        <ele>281.2</ele>
        <time>2019-07-10T13:41:14Z</time>
      </trkpt>
      <trkpt lat="39.6219160" lon="-7.4436360">
        <ele>281.2</ele>
        <time>2019-07-10T13:41:15Z</time>
      </trkpt>
      <trkpt lat="39.6221410" lon="-7.4440720">
        <ele>281.0</ele>
        <time>2019-07-10T13:41:20Z</time>
      </trkpt>
      <trkpt lat="39.6222070" lon="-7.4442030">
        <ele>281.2</ele>
        <time>2019-07-10T13:41:22Z</time>
      </trkpt>
      <trkpt lat="39.6222620" lon="-7.4443070">
        <ele>281.6</ele>
        <time>2019-07-10T13:41:24Z</time>
      </trkpt>
      <trkpt lat="39.6222880" lon="-7.4443510">
        <ele>282.0</ele>
        <time>2019-07-10T13:41:25Z</time>
      </trkpt>
      <trkpt lat="39.6223300" lon="-7.4444280">
        <ele>282.6</ele>
        <time>2019-07-10T13:41:27Z</time>
      </trkpt>
      <trkpt lat="39.6223830" lon="-7.4445310">
        <ele>283.6</ele>
        <time>2019-07-10T13:41:30Z</time>
      </trkpt>
      <trkpt lat="39.6224120" lon="-7.4446000">
        <ele>284.0</ele>
        <time>2019-07-10T13:41:32Z</time>
      </trkpt>
      <trkpt lat="39.6224390" lon="-7.4446670">
        <ele>284.4</ele>
        <time>2019-07-10T13:41:34Z</time>
      </trkpt>
      <trkpt lat="39.6224530" lon="-7.4446980">
        <ele>284.6</ele>
        <time>2019-07-10T13:41:35Z</time>
      </trkpt>
      <trkpt lat="39.6224870" lon="-7.4447550">
        <ele>285.4</ele>
        <time>2019-07-10T13:41:37Z</time>
      </trkpt>
      <trkpt lat="39.6225220" lon="-7.4448140">
        <ele>286.0</ele>
        <time>2019-07-10T13:41:39Z</time>
      </trkpt>
      <trkpt lat="39.6225510" lon="-7.4448730">
        <ele>286.4</ele>
        <time>2019-07-10T13:41:41Z</time>
      </trkpt>
      <trkpt lat="39.6225980" lon="-7.4449580">
        <ele>287.2</ele>
        <time>2019-07-10T13:41:44Z</time>
      </trkpt>
      <trkpt lat="39.6226130" lon="-7.4449880">
        <ele>287.2</ele>
        <time>2019-07-10T13:41:45Z</time>
      </trkpt>
      <trkpt lat="39.6226380" lon="-7.4450480">
        <ele>287.6</ele>
        <time>2019-07-10T13:41:47Z</time>
      </trkpt>
      <trkpt lat="39.6226850" lon="-7.4451300">
        <ele>288.4</ele>
        <time>2019-07-10T13:41:50Z</time>
      </trkpt>
      <trkpt lat="39.6227300" lon="-7.4452150">
        <ele>289.0</ele>
        <time>2019-07-10T13:41:53Z</time>
      </trkpt>
      <trkpt lat="39.6227560" lon="-7.4452730">
        <ele>289.4</ele>
        <time>2019-07-10T13:41:55Z</time>
      </trkpt>
      <trkpt lat="39.6227800" lon="-7.4453280">
        <ele>289.6</ele>
        <time>2019-07-10T13:41:57Z</time>
      </trkpt>
      <trkpt lat="39.6228290" lon="-7.4454050">
        <ele>290.2</ele>
        <time>2019-07-10T13:42:00Z</time>
      </trkpt>
      <trkpt lat="39.6228530" lon="-7.4454660">
        <ele>290.4</ele>
        <time>2019-07-10T13:42:02Z</time>
      </trkpt>
      <trkpt lat="39.6229050" lon="-7.4455820">
        <ele>291.4</ele>
        <time>2019-07-10T13:42:06Z</time>
      </trkpt>
      <trkpt lat="39.6229210" lon="-7.4456080">
        <ele>291.6</ele>
        <time>2019-07-10T13:42:07Z</time>
      </trkpt>
      <trkpt lat="39.6229360" lon="-7.4456350">
        <ele>292.0</ele>
        <time>2019-07-10T13:42:08Z</time>
      </trkpt>
      <trkpt lat="39.6229820" lon="-7.4457180">
        <ele>292.6</ele>
        <time>2019-07-10T13:42:11Z</time>
      </trkpt>
      <trkpt lat="39.6230550" lon="-7.4458620">
        <ele>293.8</ele>
        <time>2019-07-10T13:42:16Z</time>
      </trkpt>
      <trkpt lat="39.6230990" lon="-7.4459440">
        <ele>294.6</ele>
        <time>2019-07-10T13:42:19Z</time>
      </trkpt>
      <trkpt lat="39.6231230" lon="-7.4460070">
        <ele>295.0</ele>
        <time>2019-07-10T13:42:21Z</time>
      </trkpt>
      <trkpt lat="39.6231900" lon="-7.4461490">
        <ele>296.2</ele>
        <time>2019-07-10T13:42:26Z</time>
      </trkpt>
      <trkpt lat="39.6232770" lon="-7.4463120">
        <ele>297.4</ele>
        <time>2019-07-10T13:42:32Z</time>
      </trkpt>
      <trkpt lat="39.6232920" lon="-7.4463390">
        <ele>297.8</ele>
        <time>2019-07-10T13:42:33Z</time>
      </trkpt>
      <trkpt lat="39.6233400" lon="-7.4464180">
        <ele>298.4</ele>
        <time>2019-07-10T13:42:36Z</time>
      </trkpt>
      <trkpt lat="39.6234020" lon="-7.4465680">
        <ele>299.6</ele>
        <time>2019-07-10T13:42:41Z</time>
      </trkpt>
      <trkpt lat="39.6234800" lon="-7.4467020">
        <ele>300.6</ele>
        <time>2019-07-10T13:42:46Z</time>
      </trkpt>
      <trkpt lat="39.6235400" lon="-7.4468150">
        <ele>301.6</ele>
        <time>2019-07-10T13:42:50Z</time>
      </trkpt>
      <trkpt lat="39.6236110" lon="-7.4469920">
        <ele>302.6</ele>
        <time>2019-07-10T13:42:56Z</time>
      </trkpt>
      <trkpt lat="39.6236240" lon="-7.4470200">
        <ele>303.0</ele>
        <time>2019-07-10T13:42:57Z</time>
      </trkpt>
      <trkpt lat="39.6236860" lon="-7.4471320">
        <ele>304.0</ele>
        <time>2019-07-10T13:43:01Z</time>
      </trkpt>
      <trkpt lat="39.6237290" lon="-7.4472240">
        <ele>304.6</ele>
        <time>2019-07-10T13:43:04Z</time>
      </trkpt>
      <trkpt lat="39.6237420" lon="-7.4472560">
        <ele>305.0</ele>
        <time>2019-07-10T13:43:05Z</time>
      </trkpt>
      <trkpt lat="39.6238140" lon="-7.4474510">
        <ele>306.6</ele>
        <time>2019-07-10T13:43:11Z</time>
      </trkpt>
      <trkpt lat="39.6238360" lon="-7.4475120">
        <ele>307.0</ele>
        <time>2019-07-10T13:43:13Z</time>
      </trkpt>
      <trkpt lat="39.6238670" lon="-7.4476110">
        <ele>307.6</ele>
        <time>2019-07-10T13:43:16Z</time>
      </trkpt>
      <trkpt lat="39.6239190" lon="-7.4477770">
        <ele>308.4</ele>
        <time>2019-07-10T13:43:21Z</time>
      </trkpt>
      <trkpt lat="39.6239280" lon="-7.4478120">
        <ele>308.8</ele>
        <time>2019-07-10T13:43:22Z</time>
      </trkpt>
      <trkpt lat="39.6239780" lon="-7.4480280">
        <ele>309.8</ele>
        <time>2019-07-10T13:43:28Z</time>
      </trkpt>
      <trkpt lat="39.6239850" lon="-7.4480660">
        <ele>310.2</ele>
        <time>2019-07-10T13:43:29Z</time>
      </trkpt>
      <trkpt lat="39.6240220" lon="-7.4483440">
        <ele>311.0</ele>
        <time>2019-07-10T13:43:36Z</time>
      </trkpt>
      <trkpt lat="39.6240450" lon="-7.4485030">
        <ele>311.8</ele>
        <time>2019-07-10T13:43:40Z</time>
      </trkpt>
      <trkpt lat="39.6240470" lon="-7.4485450">
        <ele>312.0</ele>
        <time>2019-07-10T13:43:41Z</time>
      </trkpt>
      <trkpt lat="39.6240590" lon="-7.4487090">
        <ele>313.0</ele>
        <time>2019-07-10T13:43:45Z</time>
      </trkpt>
      <trkpt lat="39.6240670" lon="-7.4489610">
        <ele>314.2</ele>
        <time>2019-07-10T13:43:51Z</time>
      </trkpt>
      <trkpt lat="39.6240670" lon="-7.4490450">
        <ele>314.6</ele>
        <time>2019-07-10T13:43:53Z</time>
      </trkpt>
      <trkpt lat="39.6240700" lon="-7.4491280">
        <ele>315.2</ele>
        <time>2019-07-10T13:43:55Z</time>
      </trkpt>
      <trkpt lat="39.6240680" lon="-7.4493310">
        <ele>316.0</ele>
        <time>2019-07-10T13:44:00Z</time>
      </trkpt>
      <trkpt lat="39.6240670" lon="-7.4493720">
        <ele>316.4</ele>
        <time>2019-07-10T13:44:01Z</time>
      </trkpt>
      <trkpt lat="39.6240540" lon="-7.4495700">
        <ele>317.6</ele>
        <time>2019-07-10T13:44:06Z</time>
      </trkpt>
      <trkpt lat="39.6240500" lon="-7.4496090">
        <ele>317.8</ele>
        <time>2019-07-10T13:44:07Z</time>
      </trkpt>
      <trkpt lat="39.6240420" lon="-7.4498040">
        <ele>318.6</ele>
        <time>2019-07-10T13:44:12Z</time>
      </trkpt>
      <trkpt lat="39.6240480" lon="-7.4498840">
        <ele>319.0</ele>
        <time>2019-07-10T13:44:14Z</time>
      </trkpt>
      <trkpt lat="39.6240400" lon="-7.4500880">
        <ele>319.8</ele>
        <time>2019-07-10T13:44:19Z</time>
      </trkpt>
      <trkpt lat="39.6240320" lon="-7.4502490">
        <ele>320.4</ele>
        <time>2019-07-10T13:44:23Z</time>
      </trkpt>
      <trkpt lat="39.6240230" lon="-7.4503240">
        <ele>320.8</ele>
        <time>2019-07-10T13:44:25Z</time>
      </trkpt>
      <trkpt lat="39.6240200" lon="-7.4505120">
        <ele>321.8</ele>
        <time>2019-07-10T13:44:30Z</time>
      </trkpt>
      <trkpt lat="39.6240110" lon="-7.4506970">
        <ele>323.0</ele>
        <time>2019-07-10T13:44:35Z</time>
      </trkpt>
      <trkpt lat="39.6240020" lon="-7.4507680">
        <ele>323.2</ele>
        <time>2019-07-10T13:44:37Z</time>
      </trkpt>
      <trkpt lat="39.6239930" lon="-7.4509130">
        <ele>324.2</ele>
        <time>2019-07-10T13:44:41Z</time>
      </trkpt>
      <trkpt lat="39.6239940" lon="-7.4510940">
        <ele>325.2</ele>
        <time>2019-07-10T13:44:46Z</time>
      </trkpt>
      <trkpt lat="39.6239900" lon="-7.4511300">
        <ele>325.4</ele>
        <time>2019-07-10T13:44:47Z</time>
      </trkpt>
      <trkpt lat="39.6239740" lon="-7.4513180">
        <ele>326.4</ele>
        <time>2019-07-10T13:44:52Z</time>
      </trkpt>
      <trkpt lat="39.6239750" lon="-7.4513580">
        <ele>326.6</ele>
        <time>2019-07-10T13:44:53Z</time>
      </trkpt>
      <trkpt lat="39.6239730" lon="-7.4515490">
        <ele>327.8</ele>
        <time>2019-07-10T13:44:58Z</time>
      </trkpt>
      <trkpt lat="39.6239690" lon="-7.4516960">
        <ele>328.8</ele>
        <time>2019-07-10T13:45:02Z</time>
      </trkpt>
      <trkpt lat="39.6239730" lon="-7.4519720">
        <ele>329.8</ele>
        <time>2019-07-10T13:45:09Z</time>
      </trkpt>
      <trkpt lat="39.6239740" lon="-7.4520110">
        <ele>330.0</ele>
        <time>2019-07-10T13:45:10Z</time>
      </trkpt>
      <trkpt lat="39.6239890" lon="-7.4522090">
        <ele>331.0</ele>
        <time>2019-07-10T13:45:15Z</time>
      </trkpt>
      <trkpt lat="39.6239950" lon="-7.4522490">
        <ele>331.2</ele>
        <time>2019-07-10T13:45:16Z</time>
      </trkpt>
      <trkpt lat="39.6240230" lon="-7.4524480">
        <ele>332.2</ele>
        <time>2019-07-10T13:45:21Z</time>
      </trkpt>
      <trkpt lat="39.6240530" lon="-7.4526010">
        <ele>332.8</ele>
        <time>2019-07-10T13:45:25Z</time>
      </trkpt>
      <trkpt lat="39.6240730" lon="-7.4526750">
        <ele>333.4</ele>
        <time>2019-07-10T13:45:27Z</time>
      </trkpt>
      <trkpt lat="39.6241040" lon="-7.4528220">
        <ele>334.6</ele>
        <time>2019-07-10T13:45:31Z</time>
      </trkpt>
      <trkpt lat="39.6241160" lon="-7.4528580">
        <ele>334.8</ele>
        <time>2019-07-10T13:45:32Z</time>
      </trkpt>
      <trkpt lat="39.6241970" lon="-7.4530770">
        <ele>335.6</ele>
        <time>2019-07-10T13:45:38Z</time>
      </trkpt>
      <trkpt lat="39.6242110" lon="-7.4531120">
        <ele>335.8</ele>
        <time>2019-07-10T13:45:39Z</time>
      </trkpt>
      <trkpt lat="39.6242850" lon="-7.4532880">
        <ele>336.8</ele>
        <time>2019-07-10T13:45:44Z</time>
      </trkpt>
      <trkpt lat="39.6243340" lon="-7.4533910">
        <ele>337.2</ele>
        <time>2019-07-10T13:45:47Z</time>
      </trkpt>
      <trkpt lat="39.6243890" lon="-7.4534920">
        <ele>337.8</ele>
        <time>2019-07-10T13:45:50Z</time>
      </trkpt>
      <trkpt lat="39.6244800" lon="-7.4536650">
        <ele>338.8</ele>
        <time>2019-07-10T13:45:55Z</time>
      </trkpt>
      <trkpt lat="39.6245000" lon="-7.4537000">
        <ele>338.8</ele>
        <time>2019-07-10T13:45:56Z</time>
      </trkpt>
      <trkpt lat="39.6246100" lon="-7.4539130">
        <ele>340.0</ele>
        <time>2019-07-10T13:46:02Z</time>
      </trkpt>
      <trkpt lat="39.6246510" lon="-7.4539830">
        <ele>340.0</ele>
        <time>2019-07-10T13:46:04Z</time>
      </trkpt>
      <trkpt lat="39.6247980" lon="-7.4542320">
        <ele>340.6</ele>
        <time>2019-07-10T13:46:11Z</time>
      </trkpt>
      <trkpt lat="39.6249020" lon="-7.4544290">
        <ele>341.0</ele>
        <time>2019-07-10T13:46:16Z</time>
      </trkpt>
      <trkpt lat="39.6250020" lon="-7.4545920">
        <ele>341.0</ele>
        <time>2019-07-10T13:46:20Z</time>
      </trkpt>
      <trkpt lat="39.6251740" lon="-7.4549000">
        <ele>341.4</ele>
        <time>2019-07-10T13:46:27Z</time>
      </trkpt>
      <trkpt lat="39.6252010" lon="-7.4549480">
        <ele>341.4</ele>
        <time>2019-07-10T13:46:28Z</time>
      </trkpt>
      <trkpt lat="39.6253360" lon="-7.4552060">
        <ele>341.0</ele>
        <time>2019-07-10T13:46:33Z</time>
      </trkpt>
      <trkpt lat="39.6254260" lon="-7.4553650">
        <ele>340.6</ele>
        <time>2019-07-10T13:46:36Z</time>
      </trkpt>
      <trkpt lat="39.6254890" lon="-7.4554720">
        <ele>340.4</ele>
        <time>2019-07-10T13:46:38Z</time>
      </trkpt>
      <trkpt lat="39.6255180" lon="-7.4555280">
        <ele>340.4</ele>
        <time>2019-07-10T13:46:39Z</time>
      </trkpt>
      <trkpt lat="39.6255800" lon="-7.4556400">
        <ele>340.4</ele>
        <time>2019-07-10T13:46:41Z</time>
      </trkpt>
      <trkpt lat="39.6256450" lon="-7.4557550">
        <ele>340.2</ele>
        <time>2019-07-10T13:46:43Z</time>
      </trkpt>
      <trkpt lat="39.6257120" lon="-7.4558690">
        <ele>340.2</ele>
        <time>2019-07-10T13:46:45Z</time>
      </trkpt>
      <trkpt lat="39.6257870" lon="-7.4559790">
        <ele>339.8</ele>
        <time>2019-07-10T13:46:47Z</time>
      </trkpt>
      <trkpt lat="39.6260040" lon="-7.4562510">
        <ele>338.8</ele>
        <time>2019-07-10T13:46:52Z</time>
      </trkpt>
      <trkpt lat="39.6260530" lon="-7.4563030">
        <ele>338.6</ele>
        <time>2019-07-10T13:46:53Z</time>
      </trkpt>
      <trkpt lat="39.6262530" lon="-7.4565070">
        <ele>338.0</ele>
        <time>2019-07-10T13:46:57Z</time>
      </trkpt>
      <trkpt lat="39.6263550" lon="-7.4566030">
        <ele>337.8</ele>
        <time>2019-07-10T13:46:59Z</time>
      </trkpt>
      <trkpt lat="39.6265640" lon="-7.4567880">
        <ele>337.4</ele>
        <time>2019-07-10T13:47:03Z</time>
      </trkpt>
      <trkpt lat="39.6268940" lon="-7.4570900">
        <ele>336.6</ele>
        <time>2019-07-10T13:47:09Z</time>
      </trkpt>
      <trkpt lat="39.6270090" lon="-7.4571920">
        <ele>336.4</ele>
        <time>2019-07-10T13:47:11Z</time>
      </trkpt>
      <trkpt lat="39.6274210" lon="-7.4575610">
        <ele>335.6</ele>
        <time>2019-07-10T13:47:18Z</time>
      </trkpt>
      <trkpt lat="39.6274810" lon="-7.4576120">
        <ele>335.4</ele>
        <time>2019-07-10T13:47:19Z</time>
      </trkpt>
      <trkpt lat="39.6276550" lon="-7.4577670">
        <ele>334.8</ele>
        <time>2019-07-10T13:47:22Z</time>
      </trkpt>
      <trkpt lat="39.6277680" lon="-7.4578720">
        <ele>334.4</ele>
        <time>2019-07-10T13:47:24Z</time>
      </trkpt>
      <trkpt lat="39.6279930" lon="-7.4580740">
        <ele>333.8</ele>
        <time>2019-07-10T13:47:28Z</time>
      </trkpt>
      <trkpt lat="39.6281660" lon="-7.4582270">
        <ele>333.4</ele>
        <time>2019-07-10T13:47:31Z</time>
      </trkpt>
      <trkpt lat="39.6284610" lon="-7.4584970">
        <ele>332.6</ele>
        <time>2019-07-10T13:47:36Z</time>
      </trkpt>
      <trkpt lat="39.6285830" lon="-7.4586090">
        <ele>332.4</ele>
        <time>2019-07-10T13:47:38Z</time>
      </trkpt>
      <trkpt lat="39.6287080" lon="-7.4587190">
        <ele>332.4</ele>
        <time>2019-07-10T13:47:40Z</time>
      </trkpt>
      <trkpt lat="39.6291980" lon="-7.4591550">
        <ele>331.6</ele>
        <time>2019-07-10T13:47:48Z</time>
      </trkpt>
      <trkpt lat="39.6294290" lon="-7.4593770">
        <ele>331.2</ele>
        <time>2019-07-10T13:47:52Z</time>
      </trkpt>
      <trkpt lat="39.6296630" lon="-7.4595840">
        <ele>331.4</ele>
        <time>2019-07-10T13:47:56Z</time>
      </trkpt>
      <trkpt lat="39.6300820" lon="-7.4600480">
        <ele>330.8</ele>
        <time>2019-07-10T13:48:04Z</time>
      </trkpt>
      <trkpt lat="39.6303250" lon="-7.4604050">
        <ele>330.2</ele>
        <time>2019-07-10T13:48:09Z</time>
      </trkpt>
      <trkpt lat="39.6304250" lon="-7.4605570">
        <ele>329.8</ele>
        <time>2019-07-10T13:48:11Z</time>
      </trkpt>
      <trkpt lat="39.6305270" lon="-7.4607170">
        <ele>329.0</ele>
        <time>2019-07-10T13:48:13Z</time>
      </trkpt>
      <trkpt lat="39.6307390" lon="-7.4610480">
        <ele>327.8</ele>
        <time>2019-07-10T13:48:17Z</time>
      </trkpt>
      <trkpt lat="39.6309010" lon="-7.4612970">
        <ele>326.8</ele>
        <time>2019-07-10T13:48:20Z</time>
      </trkpt>
      <trkpt lat="39.6310640" lon="-7.4615450">
        <ele>326.2</ele>
        <time>2019-07-10T13:48:23Z</time>
      </trkpt>
      <trkpt lat="39.6311680" lon="-7.4617150">
        <ele>325.6</ele>
        <time>2019-07-10T13:48:25Z</time>
      </trkpt>
      <trkpt lat="39.6312540" lon="-7.4618990">
        <ele>325.0</ele>
        <time>2019-07-10T13:48:27Z</time>
      </trkpt>
      <trkpt lat="39.6313520" lon="-7.4621910">
        <ele>324.6</ele>
        <time>2019-07-10T13:48:30Z</time>
      </trkpt>
      <trkpt lat="39.6314060" lon="-7.4623840">
        <ele>324.2</ele>
        <time>2019-07-10T13:48:32Z</time>
      </trkpt>
      <trkpt lat="39.6314780" lon="-7.4625620">
        <ele>324.0</ele>
        <time>2019-07-10T13:48:34Z</time>
      </trkpt>
      <trkpt lat="39.6315770" lon="-7.4627130">
        <ele>324.0</ele>
        <time>2019-07-10T13:48:36Z</time>
      </trkpt>
      <trkpt lat="39.6316910" lon="-7.4628400">
        <ele>324.0</ele>
        <time>2019-07-10T13:48:38Z</time>
      </trkpt>
      <trkpt lat="39.6317500" lon="-7.4628970">
        <ele>324.0</ele>
        <time>2019-07-10T13:48:39Z</time>
      </trkpt>
      <trkpt lat="39.6318710" lon="-7.4630080">
        <ele>324.0</ele>
        <time>2019-07-10T13:48:41Z</time>
      </trkpt>
      <trkpt lat="39.6322560" lon="-7.4634530">
        <ele>323.6</ele>
        <time>2019-07-10T13:48:48Z</time>
      </trkpt>
      <trkpt lat="39.6323030" lon="-7.4635320">
        <ele>323.6</ele>
        <time>2019-07-10T13:48:49Z</time>
      </trkpt>
      <trkpt lat="39.6324480" lon="-7.4637800">
        <ele>322.4</ele>
        <time>2019-07-10T13:48:52Z</time>
      </trkpt>
      <trkpt lat="39.6325970" lon="-7.4640470">
        <ele>321.6</ele>
        <time>2019-07-10T13:48:55Z</time>
      </trkpt>
      <trkpt lat="39.6326450" lon="-7.4641400">
        <ele>321.2</ele>
        <time>2019-07-10T13:48:56Z</time>
      </trkpt>
      <trkpt lat="39.6327860" lon="-7.4644200">
        <ele>320.0</ele>
        <time>2019-07-10T13:48:59Z</time>
      </trkpt>
      <trkpt lat="39.6329290" lon="-7.4646930">
        <ele>318.8</ele>
        <time>2019-07-10T13:49:02Z</time>
      </trkpt>
      <trkpt lat="39.6330250" lon="-7.4648720">
        <ele>318.4</ele>
        <time>2019-07-10T13:49:04Z</time>
      </trkpt>
      <trkpt lat="39.6331560" lon="-7.4651410">
        <ele>317.6</ele>
        <time>2019-07-10T13:49:07Z</time>
      </trkpt>
      <trkpt lat="39.6333310" lon="-7.4654780">
        <ele>316.6</ele>
        <time>2019-07-10T13:49:11Z</time>
      </trkpt>
      <trkpt lat="39.6334950" lon="-7.4657970">
        <ele>316.4</ele>
        <time>2019-07-10T13:49:15Z</time>
      </trkpt>
      <trkpt lat="39.6336530" lon="-7.4661010">
        <ele>316.4</ele>
        <time>2019-07-10T13:49:19Z</time>
      </trkpt>
      <trkpt lat="39.6339880" lon="-7.4667540">
        <ele>317.2</ele>
        <time>2019-07-10T13:49:28Z</time>
      </trkpt>
      <trkpt lat="39.6343070" lon="-7.4673800">
        <ele>317.8</ele>
        <time>2019-07-10T13:49:37Z</time>
      </trkpt>
      <trkpt lat="39.6346450" lon="-7.4680210">
        <ele>318.2</ele>
        <time>2019-07-10T13:49:46Z</time>
      </trkpt>
      <trkpt lat="39.6349310" lon="-7.4685670">
        <ele>318.2</ele>
        <time>2019-07-10T13:49:53Z</time>
      </trkpt>
      <trkpt lat="39.6350670" lon="-7.4688250">
        <ele>316.2</ele>
        <time>2019-07-10T13:49:56Z</time>
      </trkpt>
      <trkpt lat="39.6352060" lon="-7.4690950">
        <ele>315.4</ele>
        <time>2019-07-10T13:49:59Z</time>
      </trkpt>
      <trkpt lat="39.6352530" lon="-7.4691880">
        <ele>315.2</ele>
        <time>2019-07-10T13:50:00Z</time>
      </trkpt>
      <trkpt lat="39.6353950" lon="-7.4694680">
        <ele>314.2</ele>
        <time>2019-07-10T13:50:03Z</time>
      </trkpt>
      <trkpt lat="39.6354420" lon="-7.4695620">
        <ele>314.0</ele>
        <time>2019-07-10T13:50:04Z</time>
      </trkpt>
      <trkpt lat="39.6356250" lon="-7.4699310">
        <ele>313.2</ele>
        <time>2019-07-10T13:50:08Z</time>
      </trkpt>
      <trkpt lat="39.6358440" lon="-7.4703510">
        <ele>313.4</ele>
        <time>2019-07-10T13:50:13Z</time>
      </trkpt>
      <trkpt lat="39.6358850" lon="-7.4704300">
        <ele>313.4</ele>
        <time>2019-07-10T13:50:14Z</time>
      </trkpt>
      <trkpt lat="39.6361050" lon="-7.4708570">
        <ele>313.6</ele>
        <time>2019-07-10T13:50:20Z</time>
      </trkpt>
      <trkpt lat="39.6362290" lon="-7.4711040">
        <ele>314.4</ele>
        <time>2019-07-10T13:50:24Z</time>
      </trkpt>
      <trkpt lat="39.6362900" lon="-7.4712160">
        <ele>314.8</ele>
        <time>2019-07-10T13:50:26Z</time>
      </trkpt>
      <trkpt lat="39.6363200" lon="-7.4712700">
        <ele>315.2</ele>
        <time>2019-07-10T13:50:27Z</time>
      </trkpt>
      <trkpt lat="39.6364120" lon="-7.4714330">
        <ele>315.6</ele>
        <time>2019-07-10T13:50:30Z</time>
      </trkpt>
      <trkpt lat="39.6364920" lon="-7.4715970">
        <ele>316.2</ele>
        <time>2019-07-10T13:50:33Z</time>
      </trkpt>
      <trkpt lat="39.6366330" lon="-7.4718630">
        <ele>317.2</ele>
        <time>2019-07-10T13:50:38Z</time>
      </trkpt>
      <trkpt lat="39.6366620" lon="-7.4719180">
        <ele>317.4</ele>
        <time>2019-07-10T13:50:39Z</time>
      </trkpt>
      <trkpt lat="39.6367450" lon="-7.4720850">
        <ele>318.2</ele>
        <time>2019-07-10T13:50:42Z</time>
      </trkpt>
      <trkpt lat="39.6368250" lon="-7.4722550">
        <ele>318.6</ele>
        <time>2019-07-10T13:50:45Z</time>
      </trkpt>
      <trkpt lat="39.6369100" lon="-7.4724220">
        <ele>318.8</ele>
        <time>2019-07-10T13:50:48Z</time>
      </trkpt>
      <trkpt lat="39.6370010" lon="-7.4725870">
        <ele>319.0</ele>
        <time>2019-07-10T13:50:51Z</time>
      </trkpt>
      <trkpt lat="39.6372620" lon="-7.4731090">
        <ele>319.4</ele>
        <time>2019-07-10T13:51:00Z</time>
      </trkpt>
      <trkpt lat="39.6374120" lon="-7.4733940">
        <ele>319.4</ele>
        <time>2019-07-10T13:51:05Z</time>
      </trkpt>
      <trkpt lat="39.6375100" lon="-7.4735780">
        <ele>319.2</ele>
        <time>2019-07-10T13:51:08Z</time>
      </trkpt>
      <trkpt lat="39.6376050" lon="-7.4737630">
        <ele>319.4</ele>
        <time>2019-07-10T13:51:11Z</time>
      </trkpt>
      <trkpt lat="39.6376640" lon="-7.4738910">
        <ele>319.2</ele>
        <time>2019-07-10T13:51:13Z</time>
      </trkpt>
      <trkpt lat="39.6377290" lon="-7.4740150">
        <ele>318.8</ele>
        <time>2019-07-10T13:51:15Z</time>
      </trkpt>
      <trkpt lat="39.6378530" lon="-7.4742680">
        <ele>318.4</ele>
        <time>2019-07-10T13:51:19Z</time>
      </trkpt>
      <trkpt lat="39.6379180" lon="-7.4743930">
        <ele>318.4</ele>
        <time>2019-07-10T13:51:21Z</time>
      </trkpt>
      <trkpt lat="39.6379510" lon="-7.4744560">
        <ele>318.2</ele>
        <time>2019-07-10T13:51:22Z</time>
      </trkpt>
      <trkpt lat="39.6380150" lon="-7.4745810">
        <ele>318.2</ele>
        <time>2019-07-10T13:51:24Z</time>
      </trkpt>
      <trkpt lat="39.6380800" lon="-7.4747060">
        <ele>318.0</ele>
        <time>2019-07-10T13:51:26Z</time>
      </trkpt>
      <trkpt lat="39.6381450" lon="-7.4748340">
        <ele>317.8</ele>
        <time>2019-07-10T13:51:28Z</time>
      </trkpt>
      <trkpt lat="39.6382070" lon="-7.4749640">
        <ele>317.4</ele>
        <time>2019-07-10T13:51:30Z</time>
      </trkpt>
      <trkpt lat="39.6383140" lon="-7.4751470">
        <ele>317.2</ele>
        <time>2019-07-10T13:51:33Z</time>
      </trkpt>
      <trkpt lat="39.6383470" lon="-7.4752110">
        <ele>317.0</ele>
        <time>2019-07-10T13:51:34Z</time>
      </trkpt>
      <trkpt lat="39.6385010" lon="-7.4755290">
        <ele>316.6</ele>
        <time>2019-07-10T13:51:39Z</time>
      </trkpt>
      <trkpt lat="39.6385680" lon="-7.4756570">
        <ele>316.6</ele>
        <time>2019-07-10T13:51:41Z</time>
      </trkpt>
      <trkpt lat="39.6386380" lon="-7.4757860">
        <ele>316.4</ele>
        <time>2019-07-10T13:51:43Z</time>
      </trkpt>
      <trkpt lat="39.6388400" lon="-7.4761750">
        <ele>315.6</ele>
        <time>2019-07-10T13:51:49Z</time>
      </trkpt>
      <trkpt lat="39.6389390" lon="-7.4763650">
        <ele>315.6</ele>
        <time>2019-07-10T13:51:52Z</time>
      </trkpt>
      <trkpt lat="39.6390320" lon="-7.4765570">
        <ele>315.6</ele>
        <time>2019-07-10T13:51:55Z</time>
      </trkpt>
      <trkpt lat="39.6391030" lon="-7.4766790">
        <ele>315.4</ele>
        <time>2019-07-10T13:51:57Z</time>
      </trkpt>
      <trkpt lat="39.6392300" lon="-7.4769330">
        <ele>315.2</ele>
        <time>2019-07-10T13:52:01Z</time>
      </trkpt>
      <trkpt lat="39.6392620" lon="-7.4769940">
        <ele>315.2</ele>
        <time>2019-07-10T13:52:02Z</time>
      </trkpt>
      <trkpt lat="39.6393570" lon="-7.4771770">
        <ele>314.8</ele>
        <time>2019-07-10T13:52:05Z</time>
      </trkpt>
      <trkpt lat="39.6395160" lon="-7.4774690">
        <ele>314.4</ele>
        <time>2019-07-10T13:52:10Z</time>
      </trkpt>
      <trkpt lat="39.6395500" lon="-7.4775260">
        <ele>314.4</ele>
        <time>2019-07-10T13:52:11Z</time>
      </trkpt>
      <trkpt lat="39.6397690" lon="-7.4778520">
        <ele>313.8</ele>
        <time>2019-07-10T13:52:17Z</time>
      </trkpt>
      <trkpt lat="39.6398480" lon="-7.4779630">
        <ele>313.4</ele>
        <time>2019-07-10T13:52:19Z</time>
      </trkpt>
      <trkpt lat="39.6399300" lon="-7.4780720">
        <ele>313.2</ele>
        <time>2019-07-10T13:52:21Z</time>
      </trkpt>
      <trkpt lat="39.6400990" lon="-7.4782850">
        <ele>312.8</ele>
        <time>2019-07-10T13:52:25Z</time>
      </trkpt>
      <trkpt lat="39.6401840" lon="-7.4783920">
        <ele>312.6</ele>
        <time>2019-07-10T13:52:27Z</time>
      </trkpt>
      <trkpt lat="39.6402710" lon="-7.4784980">
        <ele>312.6</ele>
        <time>2019-07-10T13:52:29Z</time>
      </trkpt>
      <trkpt lat="39.6404530" lon="-7.4787190">
        <ele>312.2</ele>
        <time>2019-07-10T13:52:33Z</time>
      </trkpt>
      <trkpt lat="39.6407480" lon="-7.4790650">
        <ele>312.0</ele>
        <time>2019-07-10T13:52:39Z</time>
      </trkpt>
      <trkpt lat="39.6408450" lon="-7.4791890">
        <ele>311.8</ele>
        <time>2019-07-10T13:52:41Z</time>
      </trkpt>
      <trkpt lat="39.6410430" lon="-7.4794210">
        <ele>311.2</ele>
        <time>2019-07-10T13:52:45Z</time>
      </trkpt>
      <trkpt lat="39.6411360" lon="-7.4795340">
        <ele>311.0</ele>
        <time>2019-07-10T13:52:47Z</time>
      </trkpt>
      <trkpt lat="39.6411840" lon="-7.4795910">
        <ele>311.0</ele>
        <time>2019-07-10T13:52:48Z</time>
      </trkpt>
      <trkpt lat="39.6413710" lon="-7.4798100">
        <ele>310.4</ele>
        <time>2019-07-10T13:52:52Z</time>
      </trkpt>
      <trkpt lat="39.6414600" lon="-7.4799180">
        <ele>310.2</ele>
        <time>2019-07-10T13:52:54Z</time>
      </trkpt>
      <trkpt lat="39.6415040" lon="-7.4799700">
        <ele>310.2</ele>
        <time>2019-07-10T13:52:55Z</time>
      </trkpt>
      <trkpt lat="39.6415910" lon="-7.4800740">
        <ele>310.0</ele>
        <time>2019-07-10T13:52:57Z</time>
      </trkpt>
      <trkpt lat="39.6416830" lon="-7.4801720">
        <ele>310.0</ele>
        <time>2019-07-10T13:52:59Z</time>
      </trkpt>
      <trkpt lat="39.6417720" lon="-7.4802800">
        <ele>309.8</ele>
        <time>2019-07-10T13:53:01Z</time>
      </trkpt>
      <trkpt lat="39.6419060" lon="-7.4804500">
        <ele>309.6</ele>
        <time>2019-07-10T13:53:04Z</time>
      </trkpt>
      <trkpt lat="39.6421390" lon="-7.4807250">
        <ele>309.4</ele>
        <time>2019-07-10T13:53:09Z</time>
      </trkpt>
      <trkpt lat="39.6423140" lon="-7.4809410">
        <ele>309.4</ele>
        <time>2019-07-10T13:53:13Z</time>
      </trkpt>
      <trkpt lat="39.6424470" lon="-7.4810930">
        <ele>309.6</ele>
        <time>2019-07-10T13:53:16Z</time>
      </trkpt>
      <trkpt lat="39.6426520" lon="-7.4813460">
        <ele>309.8</ele>
        <time>2019-07-10T13:53:21Z</time>
      </trkpt>
      <trkpt lat="39.6428120" lon="-7.4815330">
        <ele>310.0</ele>
        <time>2019-07-10T13:53:25Z</time>
      </trkpt>
      <trkpt lat="39.6429650" lon="-7.4817140">
        <ele>310.4</ele>
        <time>2019-07-10T13:53:29Z</time>
      </trkpt>
      <trkpt lat="39.6431140" lon="-7.4818970">
        <ele>310.6</ele>
        <time>2019-07-10T13:53:33Z</time>
      </trkpt>
      <trkpt lat="39.6433070" lon="-7.4821330">
        <ele>311.0</ele>
        <time>2019-07-10T13:53:38Z</time>
      </trkpt>
      <trkpt lat="39.6436770" lon="-7.4825700">
        <ele>310.6</ele>
        <time>2019-07-10T13:53:47Z</time>
      </trkpt>
      <trkpt lat="39.6438900" lon="-7.4828200">
        <ele>310.4</ele>
        <time>2019-07-10T13:53:52Z</time>
      </trkpt>
      <trkpt lat="39.6439790" lon="-7.4829260">
        <ele>310.0</ele>
        <time>2019-07-10T13:53:54Z</time>
      </trkpt>
      <trkpt lat="39.6440220" lon="-7.4829840">
        <ele>310.0</ele>
        <time>2019-07-10T13:53:55Z</time>
      </trkpt>
      <trkpt lat="39.6442600" lon="-7.4832890">
        <ele>309.2</ele>
        <time>2019-07-10T13:54:00Z</time>
      </trkpt>
      <trkpt lat="39.6443130" lon="-7.4833530">
        <ele>309.0</ele>
        <time>2019-07-10T13:54:01Z</time>
      </trkpt>
      <trkpt lat="39.6444260" lon="-7.4834850">
        <ele>308.4</ele>
        <time>2019-07-10T13:54:03Z</time>
      </trkpt>
      <trkpt lat="39.6444850" lon="-7.4835520">
        <ele>308.0</ele>
        <time>2019-07-10T13:54:04Z</time>
      </trkpt>
      <trkpt lat="39.6446680" lon="-7.4837730">
        <ele>306.8</ele>
        <time>2019-07-10T13:54:07Z</time>
      </trkpt>
      <trkpt lat="39.6449890" lon="-7.4841640">
        <ele>305.8</ele>
        <time>2019-07-10T13:54:12Z</time>
      </trkpt>
      <trkpt lat="39.6451820" lon="-7.4843930">
        <ele>304.8</ele>
        <time>2019-07-10T13:54:15Z</time>
      </trkpt>
      <trkpt lat="39.6453050" lon="-7.4845420">
        <ele>304.4</ele>
        <time>2019-07-10T13:54:17Z</time>
      </trkpt>
      <trkpt lat="39.6456300" lon="-7.4849550">
        <ele>304.0</ele>
        <time>2019-07-10T13:54:23Z</time>
      </trkpt>
      <trkpt lat="39.6457190" lon="-7.4850850">
        <ele>303.6</ele>
        <time>2019-07-10T13:54:25Z</time>
      </trkpt>
      <trkpt lat="39.6458410" lon="-7.4852710">
        <ele>303.6</ele>
        <time>2019-07-10T13:54:28Z</time>
      </trkpt>
      <trkpt lat="39.6459170" lon="-7.4853920">
        <ele>303.6</ele>
        <time>2019-07-10T13:54:30Z</time>
      </trkpt>
      <trkpt lat="39.6460230" lon="-7.4855720">
        <ele>303.6</ele>
        <time>2019-07-10T13:54:33Z</time>
      </trkpt>
      <trkpt lat="39.6461950" lon="-7.4858860">
        <ele>303.6</ele>
        <time>2019-07-10T13:54:38Z</time>
      </trkpt>
      <trkpt lat="39.6462560" lon="-7.4860240">
        <ele>303.4</ele>
        <time>2019-07-10T13:54:40Z</time>
      </trkpt>
      <trkpt lat="39.6464720" lon="-7.4864330">
        <ele>302.8</ele>
        <time>2019-07-10T13:54:46Z</time>
      </trkpt>
      <trkpt lat="39.6465430" lon="-7.4865810">
        <ele>302.6</ele>
        <time>2019-07-10T13:54:48Z</time>
      </trkpt>
      <trkpt lat="39.6467800" lon="-7.4870360">
        <ele>301.8</ele>
        <time>2019-07-10T13:54:54Z</time>
      </trkpt>
      <trkpt lat="39.6468570" lon="-7.4871980">
        <ele>301.6</ele>
        <time>2019-07-10T13:54:56Z</time>
      </trkpt>
      <trkpt lat="39.6470210" lon="-7.4875150">
        <ele>300.8</ele>
        <time>2019-07-10T13:55:00Z</time>
      </trkpt>
      <trkpt lat="39.6471000" lon="-7.4876760">
        <ele>300.4</ele>
        <time>2019-07-10T13:55:02Z</time>
      </trkpt>
      <trkpt lat="39.6474220" lon="-7.4882820">
        <ele>299.4</ele>
        <time>2019-07-10T13:55:10Z</time>
      </trkpt>
      <trkpt lat="39.6474590" lon="-7.4883530">
        <ele>299.4</ele>
        <time>2019-07-10T13:55:11Z</time>
      </trkpt>
      <trkpt lat="39.6476890" lon="-7.4888090">
        <ele>299.8</ele>
        <time>2019-07-10T13:55:18Z</time>
      </trkpt>
      <trkpt lat="39.6479210" lon="-7.4892570">
        <ele>300.4</ele>
        <time>2019-07-10T13:55:26Z</time>
      </trkpt>
      <trkpt lat="39.6480330" lon="-7.4894570">
        <ele>300.6</ele>
        <time>2019-07-10T13:55:30Z</time>
      </trkpt>
      <trkpt lat="39.6481120" lon="-7.4896090">
        <ele>300.8</ele>
        <time>2019-07-10T13:55:33Z</time>
      </trkpt>
      <trkpt lat="39.6481660" lon="-7.4897120">
        <ele>301.0</ele>
        <time>2019-07-10T13:55:35Z</time>
      </trkpt>
      <trkpt lat="39.6482350" lon="-7.4898650">
        <ele>301.6</ele>
        <time>2019-07-10T13:55:38Z</time>
      </trkpt>
      <trkpt lat="39.6483270" lon="-7.4900480">
        <ele>302.0</ele>
        <time>2019-07-10T13:55:42Z</time>
      </trkpt>
      <trkpt lat="39.6484590" lon="-7.4903030">
        <ele>301.8</ele>
        <time>2019-07-10T13:55:48Z</time>
      </trkpt>
      <trkpt lat="39.6485170" lon="-7.4904410">
        <ele>301.4</ele>
        <time>2019-07-10T13:55:51Z</time>
      </trkpt>
      <trkpt lat="39.6485380" lon="-7.4904880">
        <ele>301.2</ele>
        <time>2019-07-10T13:55:52Z</time>
      </trkpt>
      <trkpt lat="39.6485640" lon="-7.4905360">
        <ele>301.2</ele>
        <time>2019-07-10T13:55:53Z</time>
      </trkpt>
      <trkpt lat="39.6487050" lon="-7.4907880">
        <ele>301.0</ele>
        <time>2019-07-10T13:55:58Z</time>
      </trkpt>
      <trkpt lat="39.6487970" lon="-7.4909580">
        <ele>300.6</ele>
        <time>2019-07-10T13:56:01Z</time>
      </trkpt>
      <trkpt lat="39.6488290" lon="-7.4910190">
        <ele>300.4</ele>
        <time>2019-07-10T13:56:02Z</time>
      </trkpt>
      <trkpt lat="39.6489230" lon="-7.4912100">
        <ele>300.2</ele>
        <time>2019-07-10T13:56:05Z</time>
      </trkpt>
      <trkpt lat="39.6490850" lon="-7.4915120">
        <ele>299.8</ele>
        <time>2019-07-10T13:56:10Z</time>
      </trkpt>
      <trkpt lat="39.6492490" lon="-7.4918010">
        <ele>299.2</ele>
        <time>2019-07-10T13:56:15Z</time>
      </trkpt>
      <trkpt lat="39.6493350" lon="-7.4920000">
        <ele>298.6</ele>
        <time>2019-07-10T13:56:18Z</time>
      </trkpt>
      <trkpt lat="39.6493590" lon="-7.4920740">
        <ele>298.2</ele>
        <time>2019-07-10T13:56:19Z</time>
      </trkpt>
      <trkpt lat="39.6494290" lon="-7.4924130">
        <ele>297.0</ele>
        <time>2019-07-10T13:56:23Z</time>
      </trkpt>
      <trkpt lat="39.6494790" lon="-7.4927960">
        <ele>295.6</ele>
        <time>2019-07-10T13:56:27Z</time>
      </trkpt>
      <trkpt lat="39.6495290" lon="-7.4930930">
        <ele>294.8</ele>
        <time>2019-07-10T13:56:30Z</time>
      </trkpt>
      <trkpt lat="39.6495720" lon="-7.4933810">
        <ele>294.4</ele>
        <time>2019-07-10T13:56:33Z</time>
      </trkpt>
      <trkpt lat="39.6496110" lon="-7.4936290">
        <ele>293.8</ele>
        <time>2019-07-10T13:56:36Z</time>
      </trkpt>
      <trkpt lat="39.6496490" lon="-7.4938590">
        <ele>292.6</ele>
        <time>2019-07-10T13:56:39Z</time>
      </trkpt>
      <trkpt lat="39.6496740" lon="-7.4940240">
        <ele>291.4</ele>
        <time>2019-07-10T13:56:41Z</time>
      </trkpt>
      <trkpt lat="39.6496860" lon="-7.4941100">
        <ele>291.0</ele>
        <time>2019-07-10T13:56:42Z</time>
      </trkpt>
      <trkpt lat="39.6497140" lon="-7.4942810">
        <ele>290.6</ele>
        <time>2019-07-10T13:56:44Z</time>
      </trkpt>
      <trkpt lat="39.6497660" lon="-7.4946010">
        <ele>290.4</ele>
        <time>2019-07-10T13:56:48Z</time>
      </trkpt>
      <trkpt lat="39.6498460" lon="-7.4950700">
        <ele>290.0</ele>
        <time>2019-07-10T13:56:55Z</time>
      </trkpt>
      <trkpt lat="39.6498860" lon="-7.4952900">
        <ele>290.2</ele>
        <time>2019-07-10T13:56:59Z</time>
      </trkpt>
      <trkpt lat="39.6499090" lon="-7.4955050">
        <ele>290.4</ele>
        <time>2019-07-10T13:57:03Z</time>
      </trkpt>
      <trkpt lat="39.6499300" lon="-7.4956070">
        <ele>290.4</ele>
        <time>2019-07-10T13:57:05Z</time>
      </trkpt>
      <trkpt lat="39.6499470" lon="-7.4957060">
        <ele>290.4</ele>
        <time>2019-07-10T13:57:07Z</time>
      </trkpt>
      <trkpt lat="39.6499560" lon="-7.4958010">
        <ele>290.4</ele>
        <time>2019-07-10T13:57:09Z</time>
      </trkpt>
      <trkpt lat="39.6500030" lon="-7.4961440">
        <ele>290.4</ele>
        <time>2019-07-10T13:57:16Z</time>
      </trkpt>
      <trkpt lat="39.6500400" lon="-7.4963690">
        <ele>289.8</ele>
        <time>2019-07-10T13:57:20Z</time>
      </trkpt>
      <trkpt lat="39.6500640" lon="-7.4965510">
        <ele>289.6</ele>
        <time>2019-07-10T13:57:23Z</time>
      </trkpt>
      <trkpt lat="39.6501070" lon="-7.4966800">
        <ele>289.4</ele>
        <time>2019-07-10T13:57:25Z</time>
      </trkpt>
      <trkpt lat="39.6498630" lon="-7.4990260">
        <ele>268.4</ele>
        <time>2019-07-10T14:49:51Z</time>
      </trkpt>
      <trkpt lat="39.6498170" lon="-7.4990610">
        <ele>268.6</ele>
        <time>2019-07-10T14:49:52Z</time>
      </trkpt>
      <trkpt lat="39.6494370" lon="-7.4993330">
        <ele>268.2</ele>
        <time>2019-07-10T14:50:00Z</time>
      </trkpt>
      <trkpt lat="39.6493000" lon="-7.4994290">
        <ele>268.0</ele>
        <time>2019-07-10T14:50:03Z</time>
      </trkpt>
      <trkpt lat="39.6491640" lon="-7.4995170">
        <ele>267.8</ele>
        <time>2019-07-10T14:50:06Z</time>
      </trkpt>
      <trkpt lat="39.6490700" lon="-7.4995620">
        <ele>267.4</ele>
        <time>2019-07-10T14:50:08Z</time>
      </trkpt>
      <trkpt lat="39.6490190" lon="-7.4995750">
        <ele>267.4</ele>
        <time>2019-07-10T14:50:09Z</time>
      </trkpt>
      <trkpt lat="39.6489090" lon="-7.4995930">
        <ele>267.2</ele>
        <time>2019-07-10T14:50:11Z</time>
      </trkpt>
      <trkpt lat="39.6486540" lon="-7.4995920">
        <ele>266.2</ele>
        <time>2019-07-10T14:50:15Z</time>
      </trkpt>
      <trkpt lat="39.6484380" lon="-7.4995830">
        <ele>265.0</ele>
        <time>2019-07-10T14:50:18Z</time>
      </trkpt>
      <trkpt lat="39.6481280" lon="-7.4995990">
        <ele>264.0</ele>
        <time>2019-07-10T14:50:22Z</time>
      </trkpt>
      <trkpt lat="39.6480500" lon="-7.4996110">
        <ele>263.8</ele>
        <time>2019-07-10T14:50:23Z</time>
      </trkpt>
      <trkpt lat="39.6476640" lon="-7.4996840">
        <ele>262.8</ele>
        <time>2019-07-10T14:50:28Z</time>
      </trkpt>
      <trkpt lat="39.6475910" lon="-7.4997140">
        <ele>262.6</ele>
        <time>2019-07-10T14:50:29Z</time>
      </trkpt>
      <trkpt lat="39.6474110" lon="-7.4998780">
        <ele>262.2</ele>
        <time>2019-07-10T14:50:32Z</time>
      </trkpt>
      <trkpt lat="39.6473270" lon="-7.5000420">
        <ele>261.8</ele>
        <time>2019-07-10T14:50:34Z</time>
      </trkpt>
      <trkpt lat="39.6472630" lon="-7.5002300">
        <ele>260.8</ele>
        <time>2019-07-10T14:50:36Z</time>
      </trkpt>
      <trkpt lat="39.6472370" lon="-7.5003250">
        <ele>260.2</ele>
        <time>2019-07-10T14:50:37Z</time>
      </trkpt>
      <trkpt lat="39.6471930" lon="-7.5005210">
        <ele>259.2</ele>
        <time>2019-07-10T14:50:39Z</time>
      </trkpt>
      <trkpt lat="39.6471680" lon="-7.5007250">
        <ele>258.2</ele>
        <time>2019-07-10T14:50:41Z</time>
      </trkpt>
      <trkpt lat="39.6471880" lon="-7.5011320">
        <ele>257.2</ele>
        <time>2019-07-10T14:50:45Z</time>
      </trkpt>
      <trkpt lat="39.6472040" lon="-7.5012320">
        <ele>257.0</ele>
        <time>2019-07-10T14:50:46Z</time>
      </trkpt>
      <trkpt lat="39.6472510" lon="-7.5015320">
        <ele>256.2</ele>
        <time>2019-07-10T14:50:49Z</time>
      </trkpt>
      <trkpt lat="39.6472680" lon="-7.5016290">
        <ele>256.0</ele>
        <time>2019-07-10T14:50:50Z</time>
      </trkpt>
      <trkpt lat="39.6473470" lon="-7.5019100">
        <ele>255.4</ele>
        <time>2019-07-10T14:50:53Z</time>
      </trkpt>
      <trkpt lat="39.6473880" lon="-7.5019960">
        <ele>255.2</ele>
        <time>2019-07-10T14:50:54Z</time>
      </trkpt>
      <trkpt lat="39.6475470" lon="-7.5022240">
        <ele>254.8</ele>
        <time>2019-07-10T14:50:57Z</time>
      </trkpt>
      <trkpt lat="39.6478230" lon="-7.5024480">
        <ele>253.6</ele>
        <time>2019-07-10T14:51:01Z</time>
      </trkpt>
      <trkpt lat="39.6481240" lon="-7.5026410">
        <ele>252.4</ele>
        <time>2019-07-10T14:51:05Z</time>
      </trkpt>
      <trkpt lat="39.6483410" lon="-7.5028120">
        <ele>251.6</ele>
        <time>2019-07-10T14:51:08Z</time>
      </trkpt>
      <trkpt lat="39.6484660" lon="-7.5029560">
        <ele>251.2</ele>
        <time>2019-07-10T14:51:10Z</time>
      </trkpt>
      <trkpt lat="39.6485620" lon="-7.5031400">
        <ele>250.8</ele>
        <time>2019-07-10T14:51:12Z</time>
      </trkpt>
      <trkpt lat="39.6486120" lon="-7.5033530">
        <ele>250.2</ele>
        <time>2019-07-10T14:51:14Z</time>
      </trkpt>
      <trkpt lat="39.6486240" lon="-7.5034630">
        <ele>249.8</ele>
        <time>2019-07-10T14:51:15Z</time>
      </trkpt>
      <trkpt lat="39.6486290" lon="-7.5036860">
        <ele>249.2</ele>
        <time>2019-07-10T14:51:17Z</time>
      </trkpt>
      <trkpt lat="39.6486240" lon="-7.5037980">
        <ele>248.8</ele>
        <time>2019-07-10T14:51:18Z</time>
      </trkpt>
      <trkpt lat="39.6486150" lon="-7.5039090">
        <ele>248.4</ele>
        <time>2019-07-10T14:51:19Z</time>
      </trkpt>
      <trkpt lat="39.6485850" lon="-7.5042370">
        <ele>248.0</ele>
        <time>2019-07-10T14:51:22Z</time>
      </trkpt>
      <trkpt lat="39.6485490" lon="-7.5046500">
        <ele>247.4</ele>
        <time>2019-07-10T14:51:26Z</time>
      </trkpt>
      <trkpt lat="39.6485450" lon="-7.5047480">
        <ele>247.4</ele>
        <time>2019-07-10T14:51:27Z</time>
      </trkpt>
      <trkpt lat="39.6485480" lon="-7.5049340">
        <ele>247.2</ele>
        <time>2019-07-10T14:51:29Z</time>
      </trkpt>
      <trkpt lat="39.6485760" lon="-7.5051000">
        <ele>247.0</ele>
        <time>2019-07-10T14:51:31Z</time>
      </trkpt>
      <trkpt lat="39.6486180" lon="-7.5052490">
        <ele>247.0</ele>
        <time>2019-07-10T14:51:33Z</time>
      </trkpt>
      <trkpt lat="39.6486570" lon="-7.5053930">
        <ele>247.2</ele>
        <time>2019-07-10T14:51:35Z</time>
      </trkpt>
      <trkpt lat="39.6487020" lon="-7.5055260">
        <ele>247.2</ele>
        <time>2019-07-10T14:51:37Z</time>
      </trkpt>
      <trkpt lat="39.6488820" lon="-7.5060500">
        <ele>247.6</ele>
        <time>2019-07-10T14:51:46Z</time>
      </trkpt>
      <trkpt lat="39.6489290" lon="-7.5061910">
        <ele>247.6</ele>
        <time>2019-07-10T14:51:49Z</time>
      </trkpt>
      <trkpt lat="39.6489770" lon="-7.5063200">
        <ele>248.0</ele>
        <time>2019-07-10T14:51:52Z</time>
      </trkpt>
      <trkpt lat="39.6489930" lon="-7.5063600">
        <ele>248.2</ele>
        <time>2019-07-10T14:51:53Z</time>
      </trkpt>
      <trkpt lat="39.6490330" lon="-7.5064780">
        <ele>248.6</ele>
        <time>2019-07-10T14:51:56Z</time>
      </trkpt>
      <trkpt lat="39.6490570" lon="-7.5065520">
        <ele>249.0</ele>
        <time>2019-07-10T14:51:58Z</time>
      </trkpt>
      <trkpt lat="39.6490960" lon="-7.5066570">
        <ele>249.2</ele>
        <time>2019-07-10T14:52:01Z</time>
      </trkpt>
      <trkpt lat="39.6491400" lon="-7.5067960">
        <ele>249.6</ele>
        <time>2019-07-10T14:52:05Z</time>
      </trkpt>
      <trkpt lat="39.6491750" lon="-7.5068950">
        <ele>249.8</ele>
        <time>2019-07-10T14:52:08Z</time>
      </trkpt>
      <trkpt lat="39.6491870" lon="-7.5069270">
        <ele>250.0</ele>
        <time>2019-07-10T14:52:09Z</time>
      </trkpt>
      <trkpt lat="39.6492530" lon="-7.5071260">
        <ele>250.8</ele>
        <time>2019-07-10T14:52:15Z</time>
      </trkpt>
      <trkpt lat="39.6492670" lon="-7.5071570">
        <ele>250.8</ele>
        <time>2019-07-10T14:52:16Z</time>
      </trkpt>
      <trkpt lat="39.6492920" lon="-7.5072210">
        <ele>251.2</ele>
        <time>2019-07-10T14:52:18Z</time>
      </trkpt>
      <trkpt lat="39.6493370" lon="-7.5073440">
        <ele>251.6</ele>
        <time>2019-07-10T14:52:22Z</time>
      </trkpt>
      <trkpt lat="39.6493580" lon="-7.5074070">
        <ele>252.0</ele>
        <time>2019-07-10T14:52:24Z</time>
      </trkpt>
      <trkpt lat="39.6494030" lon="-7.5075340">
        <ele>252.4</ele>
        <time>2019-07-10T14:52:28Z</time>
      </trkpt>
      <trkpt lat="39.6494570" lon="-7.5077100">
        <ele>253.2</ele>
        <time>2019-07-10T14:52:33Z</time>
      </trkpt>
      <trkpt lat="39.6494700" lon="-7.5077480">
        <ele>253.4</ele>
        <time>2019-07-10T14:52:34Z</time>
      </trkpt>
      <trkpt lat="39.6495370" lon="-7.5079710">
        <ele>254.0</ele>
        <time>2019-07-10T14:52:40Z</time>
      </trkpt>
      <trkpt lat="39.6496040" lon="-7.5082070">
        <ele>254.4</ele>
        <time>2019-07-10T14:52:46Z</time>
      </trkpt>
      <trkpt lat="39.6496120" lon="-7.5082510">
        <ele>254.6</ele>
        <time>2019-07-10T14:52:47Z</time>
      </trkpt>
      <trkpt lat="39.6496210" lon="-7.5082960">
        <ele>254.6</ele>
        <time>2019-07-10T14:52:48Z</time>
      </trkpt>
      <trkpt lat="39.6496940" lon="-7.5086740">
        <ele>255.6</ele>
        <time>2019-07-10T14:52:56Z</time>
      </trkpt>
      <trkpt lat="39.6497030" lon="-7.5087240">
        <ele>255.8</ele>
        <time>2019-07-10T14:52:57Z</time>
      </trkpt>
      <trkpt lat="39.6497350" lon="-7.5089740">
        <ele>256.8</ele>
        <time>2019-07-10T14:53:02Z</time>
      </trkpt>
      <trkpt lat="39.6497710" lon="-7.5091770">
        <ele>257.4</ele>
        <time>2019-07-10T14:53:06Z</time>
      </trkpt>
      <trkpt lat="39.6498140" lon="-7.5093900">
        <ele>257.8</ele>
        <time>2019-07-10T14:53:10Z</time>
      </trkpt>
      <trkpt lat="39.6498510" lon="-7.5095930">
        <ele>258.6</ele>
        <time>2019-07-10T14:53:14Z</time>
      </trkpt>
      <trkpt lat="39.6498680" lon="-7.5096890">
        <ele>258.8</ele>
        <time>2019-07-10T14:53:16Z</time>
      </trkpt>
      <trkpt lat="39.6499240" lon="-7.5100090">
        <ele>260.2</ele>
        <time>2019-07-10T14:53:23Z</time>
      </trkpt>
      <trkpt lat="39.6499340" lon="-7.5100530">
        <ele>260.2</ele>
        <time>2019-07-10T14:53:24Z</time>
      </trkpt>
      <trkpt lat="39.6500050" lon="-7.5103170">
        <ele>261.2</ele>
        <time>2019-07-10T14:53:30Z</time>
      </trkpt>
      <trkpt lat="39.6500260" lon="-7.5104020">
        <ele>261.6</ele>
        <time>2019-07-10T14:53:32Z</time>
      </trkpt>
      <trkpt lat="39.6500840" lon="-7.5106100">
        <ele>262.4</ele>
        <time>2019-07-10T14:53:37Z</time>
      </trkpt>
      <trkpt lat="39.6501260" lon="-7.5107310">
        <ele>262.8</ele>
        <time>2019-07-10T14:53:40Z</time>
      </trkpt>
      <trkpt lat="39.6501890" lon="-7.5109490">
        <ele>263.4</ele>
        <time>2019-07-10T14:53:45Z</time>
      </trkpt>
      <trkpt lat="39.6502220" lon="-7.5110820">
        <ele>264.0</ele>
        <time>2019-07-10T14:53:48Z</time>
      </trkpt>
      <trkpt lat="39.6502860" lon="-7.5113670">
        <ele>264.0</ele>
        <time>2019-07-10T14:53:54Z</time>
      </trkpt>
      <trkpt lat="39.6503100" lon="-7.5114840">
        <ele>264.0</ele>
        <time>2019-07-10T14:53:56Z</time>
      </trkpt>
      <trkpt lat="39.6503630" lon="-7.5117540">
        <ele>263.6</ele>
        <time>2019-07-10T14:54:00Z</time>
      </trkpt>
      <trkpt lat="39.6503850" lon="-7.5119080">
        <ele>263.4</ele>
        <time>2019-07-10T14:54:02Z</time>
      </trkpt>
      <trkpt lat="39.6504140" lon="-7.5120690">
        <ele>262.8</ele>
        <time>2019-07-10T14:54:04Z</time>
      </trkpt>
      <trkpt lat="39.6504480" lon="-7.5122360">
        <ele>262.6</ele>
        <time>2019-07-10T14:54:06Z</time>
      </trkpt>
      <trkpt lat="39.6505110" lon="-7.5125940">
        <ele>261.6</ele>
        <time>2019-07-10T14:54:10Z</time>
      </trkpt>
      <trkpt lat="39.6505270" lon="-7.5126880">
        <ele>261.4</ele>
        <time>2019-07-10T14:54:11Z</time>
      </trkpt>
      <trkpt lat="39.6505630" lon="-7.5128810">
        <ele>261.0</ele>
        <time>2019-07-10T14:54:13Z</time>
      </trkpt>
      <trkpt lat="39.6506050" lon="-7.5130810">
        <ele>260.4</ele>
        <time>2019-07-10T14:54:15Z</time>
      </trkpt>
      <trkpt lat="39.6506430" lon="-7.5132900">
        <ele>259.6</ele>
        <time>2019-07-10T14:54:17Z</time>
      </trkpt>
      <trkpt lat="39.6506610" lon="-7.5133980">
        <ele>259.0</ele>
        <time>2019-07-10T14:54:18Z</time>
      </trkpt>
      <trkpt lat="39.6506980" lon="-7.5136180">
        <ele>258.6</ele>
        <time>2019-07-10T14:54:20Z</time>
      </trkpt>
      <trkpt lat="39.6507390" lon="-7.5138420">
        <ele>258.0</ele>
        <time>2019-07-10T14:54:22Z</time>
      </trkpt>
      <trkpt lat="39.6507610" lon="-7.5139540">
        <ele>257.6</ele>
        <time>2019-07-10T14:54:23Z</time>
      </trkpt>
      <trkpt lat="39.6508060" lon="-7.5141790">
        <ele>256.8</ele>
        <time>2019-07-10T14:54:25Z</time>
      </trkpt>
      <trkpt lat="39.6508500" lon="-7.5144030">
        <ele>256.0</ele>
        <time>2019-07-10T14:54:27Z</time>
      </trkpt>
      <trkpt lat="39.6509120" lon="-7.5147270">
        <ele>255.8</ele>
        <time>2019-07-10T14:54:30Z</time>
      </trkpt>
      <trkpt lat="39.6509620" lon="-7.5149270">
        <ele>255.4</ele>
        <time>2019-07-10T14:54:32Z</time>
      </trkpt>
      <trkpt lat="39.6509960" lon="-7.5150170">
        <ele>255.4</ele>
        <time>2019-07-10T14:54:33Z</time>
      </trkpt>
      <trkpt lat="39.6510840" lon="-7.5151650">
        <ele>255.4</ele>
        <time>2019-07-10T14:54:35Z</time>
      </trkpt>
      <trkpt lat="39.6511770" lon="-7.5152860">
        <ele>255.6</ele>
        <time>2019-07-10T14:54:37Z</time>
      </trkpt>
      <trkpt lat="39.6512220" lon="-7.5153410">
        <ele>255.6</ele>
        <time>2019-07-10T14:54:38Z</time>
      </trkpt>
      <trkpt lat="39.6513070" lon="-7.5154480">
        <ele>255.8</ele>
        <time>2019-07-10T14:54:40Z</time>
      </trkpt>
      <trkpt lat="39.6513460" lon="-7.5155010">
        <ele>256.0</ele>
        <time>2019-07-10T14:54:41Z</time>
      </trkpt>
      <trkpt lat="39.6516550" lon="-7.5159150">
        <ele>256.6</ele>
        <time>2019-07-10T14:54:49Z</time>
      </trkpt>
      <trkpt lat="39.6516940" lon="-7.5159690">
        <ele>256.6</ele>
        <time>2019-07-10T14:54:50Z</time>
      </trkpt>
      <trkpt lat="39.6517750" lon="-7.5160740">
        <ele>256.8</ele>
        <time>2019-07-10T14:54:52Z</time>
      </trkpt>
      <trkpt lat="39.6518540" lon="-7.5161750">
        <ele>257.0</ele>
        <time>2019-07-10T14:54:54Z</time>
      </trkpt>
      <trkpt lat="39.6521030" lon="-7.5164480">
        <ele>257.6</ele>
        <time>2019-07-10T14:55:00Z</time>
      </trkpt>
      <trkpt lat="39.6524990" lon="-7.5167150">
        <ele>256.4</ele>
        <time>2019-07-10T14:55:07Z</time>
      </trkpt>
      <trkpt lat="39.6527000" lon="-7.5168280">
        <ele>255.6</ele>
        <time>2019-07-10T14:55:10Z</time>
      </trkpt>
      <trkpt lat="39.6531130" lon="-7.5170600">
        <ele>255.0</ele>
        <time>2019-07-10T14:55:16Z</time>
      </trkpt>
      <trkpt lat="39.6531800" lon="-7.5170980">
        <ele>254.6</ele>
        <time>2019-07-10T14:55:17Z</time>
      </trkpt>
      <trkpt lat="39.6535450" lon="-7.5173170">
        <ele>254.8</ele>
        <time>2019-07-10T14:55:23Z</time>
      </trkpt>
      <trkpt lat="39.6535990" lon="-7.5173450">
        <ele>255.0</ele>
        <time>2019-07-10T14:55:24Z</time>
      </trkpt>
      <trkpt lat="39.6538060" lon="-7.5174380">
        <ele>255.2</ele>
        <time>2019-07-10T14:55:28Z</time>
      </trkpt>
      <trkpt lat="39.6539050" lon="-7.5174680">
        <ele>256.0</ele>
        <time>2019-07-10T14:55:30Z</time>
      </trkpt>
      <trkpt lat="39.6539550" lon="-7.5174760">
        <ele>256.2</ele>
        <time>2019-07-10T14:55:31Z</time>
      </trkpt>
      <trkpt lat="39.6543350" lon="-7.5174710">
        <ele>256.2</ele>
        <time>2019-07-10T14:55:38Z</time>
      </trkpt>
      <trkpt lat="39.6548140" lon="-7.5174060">
        <ele>255.0</ele>
        <time>2019-07-10T14:55:46Z</time>
      </trkpt>
      <trkpt lat="39.6548750" lon="-7.5174010">
        <ele>255.0</ele>
        <time>2019-07-10T14:55:47Z</time>
      </trkpt>
      <trkpt lat="39.6549950" lon="-7.5173860">
        <ele>254.4</ele>
        <time>2019-07-10T14:55:49Z</time>
      </trkpt>
      <trkpt lat="39.6552310" lon="-7.5173620">
        <ele>253.8</ele>
        <time>2019-07-10T14:55:53Z</time>
      </trkpt>
      <trkpt lat="39.6555230" lon="-7.5173540">
        <ele>254.4</ele>
        <time>2019-07-10T14:55:58Z</time>
      </trkpt>
      <trkpt lat="39.6559440" lon="-7.5174410">
        <ele>253.8</ele>
        <time>2019-07-10T14:56:05Z</time>
      </trkpt>
      <trkpt lat="39.6561620" lon="-7.5176190">
        <ele>253.6</ele>
        <time>2019-07-10T14:56:09Z</time>
      </trkpt>
      <trkpt lat="39.6562100" lon="-7.5176790">
        <ele>253.6</ele>
        <time>2019-07-10T14:56:10Z</time>
      </trkpt>
      <trkpt lat="39.6563310" lon="-7.5178820">
        <ele>253.8</ele>
        <time>2019-07-10T14:56:13Z</time>
      </trkpt>
      <trkpt lat="39.6563920" lon="-7.5180340">
        <ele>253.6</ele>
        <time>2019-07-10T14:56:15Z</time>
      </trkpt>
      <trkpt lat="39.6565380" lon="-7.5184270">
        <ele>252.8</ele>
        <time>2019-07-10T14:56:20Z</time>
      </trkpt>
      <trkpt lat="39.6566670" lon="-7.5187540">
        <ele>252.0</ele>
        <time>2019-07-10T14:56:24Z</time>
      </trkpt>
      <trkpt lat="39.6566970" lon="-7.5188420">
        <ele>251.8</ele>
        <time>2019-07-10T14:56:25Z</time>
      </trkpt>
      <trkpt lat="39.6568480" lon="-7.5193030">
        <ele>250.6</ele>
        <time>2019-07-10T14:56:30Z</time>
      </trkpt>
      <trkpt lat="39.6569150" lon="-7.5194970">
        <ele>250.0</ele>
        <time>2019-07-10T14:56:32Z</time>
      </trkpt>
      <trkpt lat="39.6569880" lon="-7.5196960">
        <ele>249.0</ele>
        <time>2019-07-10T14:56:34Z</time>
      </trkpt>
      <trkpt lat="39.6570630" lon="-7.5198990">
        <ele>248.0</ele>
        <time>2019-07-10T14:56:36Z</time>
      </trkpt>
      <trkpt lat="39.6571790" lon="-7.5202150">
        <ele>247.0</ele>
        <time>2019-07-10T14:56:39Z</time>
      </trkpt>
      <trkpt lat="39.6572180" lon="-7.5203220">
        <ele>246.6</ele>
        <time>2019-07-10T14:56:40Z</time>
      </trkpt>
      <trkpt lat="39.6573020" lon="-7.5205380">
        <ele>245.8</ele>
        <time>2019-07-10T14:56:42Z</time>
      </trkpt>
      <trkpt lat="39.6573540" lon="-7.5206410">
        <ele>245.6</ele>
        <time>2019-07-10T14:56:43Z</time>
      </trkpt>
      <trkpt lat="39.6574820" lon="-7.5208320">
        <ele>244.6</ele>
        <time>2019-07-10T14:56:45Z</time>
      </trkpt>
      <trkpt lat="39.6575510" lon="-7.5209240">
        <ele>244.0</ele>
        <time>2019-07-10T14:56:46Z</time>
      </trkpt>
      <trkpt lat="39.6576220" lon="-7.5210130">
        <ele>243.6</ele>
        <time>2019-07-10T14:56:47Z</time>
      </trkpt>
      <trkpt lat="39.6579010" lon="-7.5213520">
        <ele>242.4</ele>
        <time>2019-07-10T14:56:51Z</time>
      </trkpt>
      <trkpt lat="39.6579680" lon="-7.5214280">
        <ele>242.2</ele>
        <time>2019-07-10T14:56:52Z</time>
      </trkpt>
      <trkpt lat="39.6582530" lon="-7.5217610">
        <ele>242.4</ele>
        <time>2019-07-10T14:56:57Z</time>
      </trkpt>
      <trkpt lat="39.6583400" lon="-7.5218940">
        <ele>242.6</ele>
        <time>2019-07-10T14:56:59Z</time>
      </trkpt>
      <trkpt lat="39.6583790" lon="-7.5219620">
        <ele>242.8</ele>
        <time>2019-07-10T14:57:00Z</time>
      </trkpt>
      <trkpt lat="39.6584890" lon="-7.5221680">
        <ele>243.0</ele>
        <time>2019-07-10T14:57:03Z</time>
      </trkpt>
      <trkpt lat="39.6586560" lon="-7.5225100">
        <ele>243.4</ele>
        <time>2019-07-10T14:57:08Z</time>
      </trkpt>
      <trkpt lat="39.6587510" lon="-7.5227060">
        <ele>243.4</ele>
        <time>2019-07-10T14:57:11Z</time>
      </trkpt>
      <trkpt lat="39.6588140" lon="-7.5228360">
        <ele>243.6</ele>
        <time>2019-07-10T14:57:13Z</time>
      </trkpt>
      <trkpt lat="39.6590310" lon="-7.5232750">
        <ele>243.8</ele>
        <time>2019-07-10T14:57:20Z</time>
      </trkpt>
      <trkpt lat="39.6593010" lon="-7.5238410">
        <ele>243.4</ele>
        <time>2019-07-10T14:57:29Z</time>
      </trkpt>
      <trkpt lat="39.6594790" lon="-7.5242020">
        <ele>242.2</ele>
        <time>2019-07-10T14:57:34Z</time>
      </trkpt>
      <trkpt lat="39.6595200" lon="-7.5242840">
        <ele>241.8</ele>
        <time>2019-07-10T14:57:35Z</time>
      </trkpt>
      <trkpt lat="39.6596190" lon="-7.5244450">
        <ele>241.0</ele>
        <time>2019-07-10T14:57:37Z</time>
      </trkpt>
      <trkpt lat="39.6597440" lon="-7.5245940">
        <ele>240.2</ele>
        <time>2019-07-10T14:57:39Z</time>
      </trkpt>
      <trkpt lat="39.6598130" lon="-7.5246650">
        <ele>240.0</ele>
        <time>2019-07-10T14:57:40Z</time>
      </trkpt>
      <trkpt lat="39.6599650" lon="-7.5247970">
        <ele>238.4</ele>
        <time>2019-07-10T14:57:42Z</time>
      </trkpt>
      <trkpt lat="39.6601390" lon="-7.5248910">
        <ele>237.4</ele>
        <time>2019-07-10T14:57:44Z</time>
      </trkpt>
      <trkpt lat="39.6602310" lon="-7.5249240">
        <ele>236.8</ele>
        <time>2019-07-10T14:57:45Z</time>
      </trkpt>
      <trkpt lat="39.6604180" lon="-7.5249720">
        <ele>235.6</ele>
        <time>2019-07-10T14:57:47Z</time>
      </trkpt>
      <trkpt lat="39.6606050" lon="-7.5249880">
        <ele>235.0</ele>
        <time>2019-07-10T14:57:49Z</time>
      </trkpt>
      <trkpt lat="39.6607840" lon="-7.5249630">
        <ele>234.4</ele>
        <time>2019-07-10T14:57:51Z</time>
      </trkpt>
      <trkpt lat="39.6609540" lon="-7.5249200">
        <ele>234.2</ele>
        <time>2019-07-10T14:57:53Z</time>
      </trkpt>
      <trkpt lat="39.6612710" lon="-7.5248160">
        <ele>233.8</ele>
        <time>2019-07-10T14:57:57Z</time>
      </trkpt>
      <trkpt lat="39.6615720" lon="-7.5247030">
        <ele>233.6</ele>
        <time>2019-07-10T14:58:01Z</time>
      </trkpt>
      <trkpt lat="39.6616470" lon="-7.5246830">
        <ele>233.4</ele>
        <time>2019-07-10T14:58:02Z</time>
      </trkpt>
      <trkpt lat="39.6617220" lon="-7.5246710">
        <ele>233.4</ele>
        <time>2019-07-10T14:58:03Z</time>
      </trkpt>
      <trkpt lat="39.6618700" lon="-7.5246840">
        <ele>233.4</ele>
        <time>2019-07-10T14:58:05Z</time>
      </trkpt>
      <trkpt lat="39.6620770" lon="-7.5248080">
        <ele>233.2</ele>
        <time>2019-07-10T14:58:08Z</time>
      </trkpt>
      <trkpt lat="39.6622330" lon="-7.5250500">
        <ele>232.4</ele>
        <time>2019-07-10T14:58:11Z</time>
      </trkpt>
      <trkpt lat="39.6623140" lon="-7.5253690">
        <ele>231.2</ele>
        <time>2019-07-10T14:58:14Z</time>
      </trkpt>
      <trkpt lat="39.6623390" lon="-7.5254830">
        <ele>230.8</ele>
        <time>2019-07-10T14:58:15Z</time>
      </trkpt>
      <trkpt lat="39.6624250" lon="-7.5257010">
        <ele>229.8</ele>
        <time>2019-07-10T14:58:17Z</time>
      </trkpt>
      <trkpt lat="39.6624870" lon="-7.5257960">
        <ele>229.2</ele>
        <time>2019-07-10T14:58:18Z</time>
      </trkpt>
      <trkpt lat="39.6625580" lon="-7.5258790">
        <ele>228.6</ele>
        <time>2019-07-10T14:58:19Z</time>
      </trkpt>
      <trkpt lat="39.6627160" lon="-7.5260110">
        <ele>227.4</ele>
        <time>2019-07-10T14:58:21Z</time>
      </trkpt>
      <trkpt lat="39.6627980" lon="-7.5260670">
        <ele>227.2</ele>
        <time>2019-07-10T14:58:22Z</time>
      </trkpt>
      <trkpt lat="39.6631810" lon="-7.5263770">
        <ele>226.0</ele>
        <time>2019-07-10T14:58:27Z</time>
      </trkpt>
      <trkpt lat="39.6633350" lon="-7.5266740">
        <ele>225.2</ele>
        <time>2019-07-10T14:58:30Z</time>
      </trkpt>
      <trkpt lat="39.6633700" lon="-7.5267930">
        <ele>225.0</ele>
        <time>2019-07-10T14:58:31Z</time>
      </trkpt>
      <trkpt lat="39.6634340" lon="-7.5270370">
        <ele>224.0</ele>
        <time>2019-07-10T14:58:33Z</time>
      </trkpt>
      <trkpt lat="39.6634710" lon="-7.5271570">
        <ele>223.6</ele>
        <time>2019-07-10T14:58:34Z</time>
      </trkpt>
      <trkpt lat="39.6635200" lon="-7.5272720">
        <ele>223.0</ele>
        <time>2019-07-10T14:58:35Z</time>
      </trkpt>
      <trkpt lat="39.6635820" lon="-7.5273770">
        <ele>222.4</ele>
        <time>2019-07-10T14:58:36Z</time>
      </trkpt>
      <trkpt lat="39.6637520" lon="-7.5275210">
        <ele>221.4</ele>
        <time>2019-07-10T14:58:38Z</time>
      </trkpt>
      <trkpt lat="39.6638540" lon="-7.5275450">
        <ele>221.0</ele>
        <time>2019-07-10T14:58:39Z</time>
      </trkpt>
      <trkpt lat="39.6640610" lon="-7.5275380">
        <ele>219.8</ele>
        <time>2019-07-10T14:58:41Z</time>
      </trkpt>
      <trkpt lat="39.6641630" lon="-7.5275430">
        <ele>219.4</ele>
        <time>2019-07-10T14:58:42Z</time>
      </trkpt>
      <trkpt lat="39.6643520" lon="-7.5276360">
        <ele>218.6</ele>
        <time>2019-07-10T14:58:44Z</time>
      </trkpt>
      <trkpt lat="39.6644820" lon="-7.5278300">
        <ele>217.6</ele>
        <time>2019-07-10T14:58:46Z</time>
      </trkpt>
      <trkpt lat="39.6645220" lon="-7.5279490">
        <ele>217.0</ele>
        <time>2019-07-10T14:58:47Z</time>
      </trkpt>
      <trkpt lat="39.6645640" lon="-7.5282090">
        <ele>216.2</ele>
        <time>2019-07-10T14:58:49Z</time>
      </trkpt>
      <trkpt lat="39.6645690" lon="-7.5283440">
        <ele>215.4</ele>
        <time>2019-07-10T14:58:50Z</time>
      </trkpt>
      <trkpt lat="39.6645640" lon="-7.5284800">
        <ele>214.4</ele>
        <time>2019-07-10T14:58:51Z</time>
      </trkpt>
      <trkpt lat="39.6645310" lon="-7.5287530">
        <ele>213.4</ele>
        <time>2019-07-10T14:58:53Z</time>
      </trkpt>
      <trkpt lat="39.6645100" lon="-7.5288910">
        <ele>212.6</ele>
        <time>2019-07-10T14:58:54Z</time>
      </trkpt>
      <trkpt lat="39.6644710" lon="-7.5291620">
        <ele>211.6</ele>
        <time>2019-07-10T14:58:56Z</time>
      </trkpt>
      <trkpt lat="39.6644440" lon="-7.5294320">
        <ele>210.4</ele>
        <time>2019-07-10T14:58:58Z</time>
      </trkpt>
      <trkpt lat="39.6644420" lon="-7.5295700">
        <ele>209.6</ele>
        <time>2019-07-10T14:58:59Z</time>
      </trkpt>
      <trkpt lat="39.6644510" lon="-7.5297050">
        <ele>209.0</ele>
        <time>2019-07-10T14:59:00Z</time>
      </trkpt>
      <trkpt lat="39.6644820" lon="-7.5299330">
        <ele>207.6</ele>
        <time>2019-07-10T14:59:02Z</time>
      </trkpt>
      <trkpt lat="39.6645330" lon="-7.5301880">
        <ele>206.2</ele>
        <time>2019-07-10T14:59:05Z</time>
      </trkpt>
      <trkpt lat="39.6645490" lon="-7.5302680">
        <ele>205.6</ele>
        <time>2019-07-10T14:59:06Z</time>
      </trkpt>
      <trkpt lat="39.6645660" lon="-7.5303500">
        <ele>205.0</ele>
        <time>2019-07-10T14:59:07Z</time>
      </trkpt>
      <trkpt lat="39.6646250" lon="-7.5306130">
        <ele>204.0</ele>
        <time>2019-07-10T14:59:10Z</time>
      </trkpt>
      <trkpt lat="39.6646680" lon="-7.5308050">
        <ele>203.0</ele>
        <time>2019-07-10T14:59:12Z</time>
      </trkpt>
      <trkpt lat="39.6646930" lon="-7.5309050">
        <ele>202.6</ele>
        <time>2019-07-10T14:59:13Z</time>
      </trkpt>
      <trkpt lat="39.6647630" lon="-7.5312110">
        <ele>201.2</ele>
        <time>2019-07-10T14:59:16Z</time>
      </trkpt>
      <trkpt lat="39.6648140" lon="-7.5314180">
        <ele>200.4</ele>
        <time>2019-07-10T14:59:18Z</time>
      </trkpt>
      <trkpt lat="39.6648390" lon="-7.5315230">
        <ele>200.0</ele>
        <time>2019-07-10T14:59:19Z</time>
      </trkpt>
      <trkpt lat="39.6649180" lon="-7.5318450">
        <ele>199.0</ele>
        <time>2019-07-10T14:59:22Z</time>
      </trkpt>
      <trkpt lat="39.6649430" lon="-7.5319560">
        <ele>198.6</ele>
        <time>2019-07-10T14:59:23Z</time>
      </trkpt>
      <trkpt lat="39.6649950" lon="-7.5321870">
        <ele>197.4</ele>
        <time>2019-07-10T14:59:25Z</time>
      </trkpt>
      <trkpt lat="39.6650220" lon="-7.5323070">
        <ele>196.8</ele>
        <time>2019-07-10T14:59:26Z</time>
      </trkpt>
      <trkpt lat="39.6650490" lon="-7.5324310">
        <ele>196.2</ele>
        <time>2019-07-10T14:59:27Z</time>
      </trkpt>
      <trkpt lat="39.6651100" lon="-7.5326910">
        <ele>194.6</ele>
        <time>2019-07-10T14:59:29Z</time>
      </trkpt>
      <trkpt lat="39.6651410" lon="-7.5328260">
        <ele>193.4</ele>
        <time>2019-07-10T14:59:30Z</time>
      </trkpt>
      <trkpt lat="39.6651700" lon="-7.5329630">
        <ele>192.2</ele>
        <time>2019-07-10T14:59:31Z</time>
      </trkpt>
      <trkpt lat="39.6651950" lon="-7.5331020">
        <ele>192.0</ele>
        <time>2019-07-10T14:59:32Z</time>
      </trkpt>
      <trkpt lat="39.6652290" lon="-7.5333860">
        <ele>191.0</ele>
        <time>2019-07-10T14:59:34Z</time>
      </trkpt>
      <trkpt lat="39.6652280" lon="-7.5336690">
        <ele>189.8</ele>
        <time>2019-07-10T14:59:36Z</time>
      </trkpt>
      <trkpt lat="39.6651940" lon="-7.5339480">
        <ele>188.6</ele>
        <time>2019-07-10T14:59:38Z</time>
      </trkpt>
      <trkpt lat="39.6651150" lon="-7.5342120">
        <ele>187.4</ele>
        <time>2019-07-10T14:59:40Z</time>
      </trkpt>
      <trkpt lat="39.6649720" lon="-7.5344220">
        <ele>186.2</ele>
        <time>2019-07-10T14:59:42Z</time>
      </trkpt>
      <trkpt lat="39.6648820" lon="-7.5345070">
        <ele>185.8</ele>
        <time>2019-07-10T14:59:43Z</time>
      </trkpt>
      <trkpt lat="39.6647880" lon="-7.5345860">
        <ele>185.2</ele>
        <time>2019-07-10T14:59:44Z</time>
      </trkpt>
      <trkpt lat="39.6645950" lon="-7.5347510">
        <ele>184.0</ele>
        <time>2019-07-10T14:59:46Z</time>
      </trkpt>
      <trkpt lat="39.6644960" lon="-7.5348400">
        <ele>182.6</ele>
        <time>2019-07-10T14:59:47Z</time>
      </trkpt>
      <trkpt lat="39.6643990" lon="-7.5349330">
        <ele>181.6</ele>
        <time>2019-07-10T14:59:48Z</time>
      </trkpt>
      <trkpt lat="39.6643080" lon="-7.5350320">
        <ele>180.6</ele>
        <time>2019-07-10T14:59:49Z</time>
      </trkpt>
      <trkpt lat="39.6642290" lon="-7.5351400">
        <ele>179.8</ele>
        <time>2019-07-10T14:59:50Z</time>
      </trkpt>
      <trkpt lat="39.6641670" lon="-7.5352590">
        <ele>179.0</ele>
        <time>2019-07-10T14:59:51Z</time>
      </trkpt>
      <trkpt lat="39.6641040" lon="-7.5355300">
        <ele>177.6</ele>
        <time>2019-07-10T14:59:53Z</time>
      </trkpt>
      <trkpt lat="39.6641080" lon="-7.5358170">
        <ele>176.4</ele>
        <time>2019-07-10T14:59:55Z</time>
      </trkpt>
      <trkpt lat="39.6641200" lon="-7.5359590">
        <ele>176.0</ele>
        <time>2019-07-10T14:59:56Z</time>
      </trkpt>
      <trkpt lat="39.6641520" lon="-7.5362390">
        <ele>175.0</ele>
        <time>2019-07-10T14:59:58Z</time>
      </trkpt>
      <trkpt lat="39.6641960" lon="-7.5365110">
        <ele>174.2</ele>
        <time>2019-07-10T15:00:00Z</time>
      </trkpt>
      <trkpt lat="39.6642110" lon="-7.5366440">
        <ele>173.6</ele>
        <time>2019-07-10T15:00:01Z</time>
      </trkpt>
      <trkpt lat="39.6642120" lon="-7.5367760">
        <ele>173.0</ele>
        <time>2019-07-10T15:00:02Z</time>
      </trkpt>
      <trkpt lat="39.6641530" lon="-7.5370330">
        <ele>171.6</ele>
        <time>2019-07-10T15:00:04Z</time>
      </trkpt>
      <trkpt lat="39.6640930" lon="-7.5371440">
        <ele>171.0</ele>
        <time>2019-07-10T15:00:05Z</time>
      </trkpt>
      <trkpt lat="39.6639380" lon="-7.5373250">
        <ele>170.2</ele>
        <time>2019-07-10T15:00:07Z</time>
      </trkpt>
      <trkpt lat="39.6638480" lon="-7.5373840">
        <ele>169.8</ele>
        <time>2019-07-10T15:00:08Z</time>
      </trkpt>
      <trkpt lat="39.6637550" lon="-7.5374060">
        <ele>169.0</ele>
        <time>2019-07-10T15:00:09Z</time>
      </trkpt>
      <trkpt lat="39.6636600" lon="-7.5373950">
        <ele>168.4</ele>
        <time>2019-07-10T15:00:10Z</time>
      </trkpt>
      <trkpt lat="39.6635670" lon="-7.5373570">
        <ele>167.8</ele>
        <time>2019-07-10T15:00:11Z</time>
      </trkpt>
      <trkpt lat="39.6633900" lon="-7.5372390">
        <ele>167.0</ele>
        <time>2019-07-10T15:00:13Z</time>
      </trkpt>
      <trkpt lat="39.6633040" lon="-7.5371860">
        <ele>166.4</ele>
        <time>2019-07-10T15:00:14Z</time>
      </trkpt>
      <trkpt lat="39.6631630" lon="-7.5371480">
        <ele>165.2</ele>
        <time>2019-07-10T15:00:16Z</time>
      </trkpt>
      <trkpt lat="39.6630930" lon="-7.5372050">
        <ele>164.4</ele>
        <time>2019-07-10T15:00:18Z</time>
      </trkpt>
      <trkpt lat="39.6630960" lon="-7.5372530">
        <ele>164.0</ele>
        <time>2019-07-10T15:00:19Z</time>
      </trkpt>
      <trkpt lat="39.6631660" lon="-7.5373380">
        <ele>163.2</ele>
        <time>2019-07-10T15:00:21Z</time>
      </trkpt>
      <trkpt lat="39.6632190" lon="-7.5373720">
        <ele>162.8</ele>
        <time>2019-07-10T15:00:22Z</time>
      </trkpt>
      <trkpt lat="39.6633260" lon="-7.5374570">
        <ele>161.8</ele>
        <time>2019-07-10T15:00:24Z</time>
      </trkpt>
      <trkpt lat="39.6633700" lon="-7.5375220">
        <ele>161.4</ele>
        <time>2019-07-10T15:00:25Z</time>
      </trkpt>
      <trkpt lat="39.6634180" lon="-7.5376880">
        <ele>160.2</ele>
        <time>2019-07-10T15:00:27Z</time>
      </trkpt>
      <trkpt lat="39.6634310" lon="-7.5377770">
        <ele>159.8</ele>
        <time>2019-07-10T15:00:28Z</time>
      </trkpt>
      <trkpt lat="39.6635590" lon="-7.5379830">
        <ele>159.4</ele>
        <time>2019-07-10T15:00:31Z</time>
      </trkpt>
      <trkpt lat="39.6637030" lon="-7.5380040">
        <ele>159.0</ele>
        <time>2019-07-10T15:00:33Z</time>
      </trkpt>
      <trkpt lat="39.6638980" lon="-7.5378640">
        <ele>158.0</ele>
        <time>2019-07-10T15:00:36Z</time>
      </trkpt>
      <trkpt lat="39.6639560" lon="-7.5378000">
        <ele>157.8</ele>
        <time>2019-07-10T15:00:37Z</time>
      </trkpt>
      <trkpt lat="39.6641220" lon="-7.5375930">
        <ele>157.2</ele>
        <time>2019-07-10T15:00:40Z</time>
      </trkpt>
      <trkpt lat="39.6642270" lon="-7.5374520">
        <ele>156.6</ele>
        <time>2019-07-10T15:00:42Z</time>
      </trkpt>
      <trkpt lat="39.6643340" lon="-7.5373030">
        <ele>156.0</ele>
        <time>2019-07-10T15:00:44Z</time>
      </trkpt>
      <trkpt lat="39.6644370" lon="-7.5371410">
        <ele>155.2</ele>
        <time>2019-07-10T15:00:46Z</time>
      </trkpt>
      <trkpt lat="39.6644810" lon="-7.5370490">
        <ele>154.8</ele>
        <time>2019-07-10T15:00:47Z</time>
      </trkpt>
      <trkpt lat="39.6645160" lon="-7.5369470">
        <ele>154.4</ele>
        <time>2019-07-10T15:00:48Z</time>
      </trkpt>
      <trkpt lat="39.6645600" lon="-7.5367250">
        <ele>153.4</ele>
        <time>2019-07-10T15:00:50Z</time>
      </trkpt>
      <trkpt lat="39.6645800" lon="-7.5365050">
        <ele>152.4</ele>
        <time>2019-07-10T15:00:52Z</time>
      </trkpt>
      <trkpt lat="39.6645820" lon="-7.5364060">
        <ele>151.8</ele>
        <time>2019-07-10T15:00:53Z</time>
      </trkpt>
      <trkpt lat="39.6645760" lon="-7.5362280">
        <ele>151.2</ele>
        <time>2019-07-10T15:00:55Z</time>
      </trkpt>
      <trkpt lat="39.6645730" lon="-7.5361510">
        <ele>150.8</ele>
        <time>2019-07-10T15:00:56Z</time>
      </trkpt>
      <trkpt lat="39.6645790" lon="-7.5360100">
        <ele>150.2</ele>
        <time>2019-07-10T15:00:58Z</time>
      </trkpt>
      <trkpt lat="39.6645950" lon="-7.5359590">
        <ele>149.8</ele>
        <time>2019-07-10T15:00:59Z</time>
      </trkpt>
      <trkpt lat="39.6646120" lon="-7.5359280">
        <ele>149.4</ele>
        <time>2019-07-10T15:01:00Z</time>
      </trkpt>
      <trkpt lat="39.6646740" lon="-7.5358920">
        <ele>149.0</ele>
        <time>2019-07-10T15:01:03Z</time>
      </trkpt>
      <trkpt lat="39.6647170" lon="-7.5358770">
        <ele>148.8</ele>
        <time>2019-07-10T15:01:05Z</time>
      </trkpt>
      <trkpt lat="39.6647280" lon="-7.5358750">
        <ele>148.8</ele>
        <time>2019-07-10T15:01:07Z</time>
      </trkpt>
      <trkpt lat="39.6647280" lon="-7.5358760">
        <ele>148.6</ele>
        <time>2019-07-10T15:01:08Z</time>
      </trkpt>
      <trkpt lat="39.6647350" lon="-7.5359130">
        <ele>148.8</ele>
        <time>2019-07-10T15:01:44Z</time>
      </trkpt>
      <trkpt lat="39.6647410" lon="-7.5359780">
        <ele>148.8</ele>
        <time>2019-07-10T15:01:46Z</time>
      </trkpt>
      <trkpt lat="39.6647390" lon="-7.5360690">
        <ele>148.6</ele>
        <time>2019-07-10T15:01:48Z</time>
      </trkpt>
      <trkpt lat="39.6647350" lon="-7.5361230">
        <ele>148.4</ele>
        <time>2019-07-10T15:01:49Z</time>
      </trkpt>
      <trkpt lat="39.6647160" lon="-7.5363070">
        <ele>148.0</ele>
        <time>2019-07-10T15:01:52Z</time>
      </trkpt>
      <trkpt lat="39.6647040" lon="-7.5364500">
        <ele>147.6</ele>
        <time>2019-07-10T15:01:54Z</time>
      </trkpt>
      <trkpt lat="39.6646910" lon="-7.5366090">
        <ele>146.8</ele>
        <time>2019-07-10T15:01:56Z</time>
      </trkpt>
      <trkpt lat="39.6646560" lon="-7.5369660">
        <ele>145.8</ele>
        <time>2019-07-10T15:02:00Z</time>
      </trkpt>
      <trkpt lat="39.6646370" lon="-7.5371510">
        <ele>145.2</ele>
        <time>2019-07-10T15:02:02Z</time>
      </trkpt>
      <trkpt lat="39.6646160" lon="-7.5372350">
        <ele>144.8</ele>
        <time>2019-07-10T15:02:03Z</time>
      </trkpt>
      <trkpt lat="39.6645880" lon="-7.5373140">
        <ele>144.4</ele>
        <time>2019-07-10T15:02:04Z</time>
      </trkpt>
      <trkpt lat="39.6644760" lon="-7.5375430">
        <ele>143.6</ele>
        <time>2019-07-10T15:02:07Z</time>
      </trkpt>
      <trkpt lat="39.6644070" lon="-7.5376740">
        <ele>143.0</ele>
        <time>2019-07-10T15:02:09Z</time>
      </trkpt>
      <trkpt lat="39.6643790" lon="-7.5377300">
        <ele>142.6</ele>
        <time>2019-07-10T15:02:10Z</time>
      </trkpt>
      <trkpt lat="39.6642440" lon="-7.5379970">
        <ele>141.4</ele>
        <time>2019-07-10T15:02:15Z</time>
      </trkpt>
      <trkpt lat="39.6641310" lon="-7.5381790">
        <ele>140.4</ele>
        <time>2019-07-10T15:02:18Z</time>
      </trkpt>
      <trkpt lat="39.6640880" lon="-7.5382420">
        <ele>139.6</ele>
        <time>2019-07-10T15:02:19Z</time>
      </trkpt>
      <trkpt lat="39.6640500" lon="-7.5382990">
        <ele>139.2</ele>
        <time>2019-07-10T15:02:20Z</time>
      </trkpt>
      <trkpt lat="39.6639720" lon="-7.5383970">
        <ele>137.8</ele>
        <time>2019-07-10T15:02:22Z</time>
      </trkpt>
      <trkpt lat="39.6639300" lon="-7.5384490">
        <ele>137.4</ele>
        <time>2019-07-10T15:02:23Z</time>
      </trkpt>
      <trkpt lat="39.6638950" lon="-7.5385010">
        <ele>137.0</ele>
        <time>2019-07-10T15:02:24Z</time>
      </trkpt>
      <trkpt lat="39.6638660" lon="-7.5385490">
        <ele>136.8</ele>
        <time>2019-07-10T15:02:25Z</time>
      </trkpt>
      <trkpt lat="39.6638120" lon="-7.5386310">
        <ele>136.2</ele>
        <time>2019-07-10T15:02:27Z</time>
      </trkpt>
      <trkpt lat="39.6636570" lon="-7.5387140">
        <ele>135.8</ele>
        <time>2019-07-10T15:02:31Z</time>
      </trkpt>
      <trkpt lat="39.6636130" lon="-7.5387250">
        <ele>135.6</ele>
        <time>2019-07-10T15:02:32Z</time>
      </trkpt>
      <trkpt lat="39.6634330" lon="-7.5387570">
        <ele>135.2</ele>
        <time>2019-07-10T15:02:37Z</time>
      </trkpt>
      <trkpt lat="39.6633960" lon="-7.5387520">
        <ele>135.6</ele>
        <time>2019-07-10T15:02:39Z</time>
      </trkpt>
      <trkpt lat="39.6633400" lon="-7.5387100">
        <ele>135.4</ele>
        <time>2019-07-10T15:02:42Z</time>
      </trkpt>
      <trkpt lat="39.6632370" lon="-7.5385530">
        <ele>135.4</ele>
        <time>2019-07-10T15:02:50Z</time>
      </trkpt>
      <trkpt lat="39.6631680" lon="-7.5384170">
        <ele>135.4</ele>
        <time>2019-07-10T15:02:56Z</time>
      </trkpt>
      <trkpt lat="39.6631040" lon="-7.5382870">
        <ele>135.4</ele>
        <time>2019-07-10T15:03:00Z</time>
      </trkpt>
      <trkpt lat="39.6630890" lon="-7.5382510">
        <ele>135.4</ele>
        <time>2019-07-10T15:03:01Z</time>
      </trkpt>
      <trkpt lat="39.6630020" lon="-7.5380560">
        <ele>135.4</ele>
        <time>2019-07-10T15:03:07Z</time>
      </trkpt>
      <trkpt lat="39.6629900" lon="-7.5380320">
        <ele>135.4</ele>
        <time>2019-07-10T15:03:08Z</time>
      </trkpt>
      <trkpt lat="39.6629300" lon="-7.5379170">
        <ele>135.2</ele>
        <time>2019-07-10T15:03:12Z</time>
      </trkpt>
      <trkpt lat="39.6628980" lon="-7.5378640">
        <ele>135.2</ele>
        <time>2019-07-10T15:03:14Z</time>
      </trkpt>
      <trkpt lat="39.6628630" lon="-7.5377950">
        <ele>135.6</ele>
        <time>2019-07-10T15:03:19Z</time>
      </trkpt>
      <trkpt lat="39.6619500" lon="-7.5392470">
        <ele>123.0</ele>
        <time>2019-07-10T15:24:10Z</time>
      </trkpt>
      <trkpt lat="39.6619270" lon="-7.5392660">
        <ele>132.0</ele>
        <time>2019-07-10T15:24:13Z</time>
      </trkpt>
      <trkpt lat="39.6619140" lon="-7.5392610">
        <ele>132.4</ele>
        <time>2019-07-10T15:24:15Z</time>
      </trkpt>
      <trkpt lat="39.6619010" lon="-7.5392530">
        <ele>132.8</ele>
        <time>2019-07-10T15:24:17Z</time>
      </trkpt>
      <trkpt lat="39.6618940" lon="-7.5392450">
        <ele>132.8</ele>
        <time>2019-07-10T15:24:18Z</time>
      </trkpt>
      <trkpt lat="39.6618880" lon="-7.5392360">
        <ele>133.0</ele>
        <time>2019-07-10T15:24:19Z</time>
      </trkpt>
      <trkpt lat="39.6618830" lon="-7.5392220">
        <ele>133.2</ele>
        <time>2019-07-10T15:24:21Z</time>
      </trkpt>
      <trkpt lat="39.6618830" lon="-7.5392220">
        <ele>133.4</ele>
        <time>2019-07-10T15:24:22Z</time>
      </trkpt>
      <trkpt lat="39.6618740" lon="-7.5393170">
        <ele>137.0</ele>
        <time>2019-07-10T15:25:46Z</time>
      </trkpt>
      <trkpt lat="39.6618780" lon="-7.5393460">
        <ele>137.0</ele>
        <time>2019-07-10T15:25:47Z</time>
      </trkpt>
      <trkpt lat="39.6619260" lon="-7.5395430">
        <ele>137.0</ele>
        <time>2019-07-10T15:25:53Z</time>
      </trkpt>
      <trkpt lat="39.6619370" lon="-7.5395810">
        <ele>137.0</ele>
        <time>2019-07-10T15:25:54Z</time>
      </trkpt>
      <trkpt lat="39.6619630" lon="-7.5396610">
        <ele>137.0</ele>
        <time>2019-07-10T15:25:56Z</time>
      </trkpt>
      <trkpt lat="39.6619780" lon="-7.5397030">
        <ele>137.0</ele>
        <time>2019-07-10T15:25:57Z</time>
      </trkpt>
      <trkpt lat="39.6620190" lon="-7.5398460">
        <ele>137.0</ele>
        <time>2019-07-10T15:26:00Z</time>
      </trkpt>
      <trkpt lat="39.6620620" lon="-7.5400380">
        <ele>137.4</ele>
        <time>2019-07-10T15:26:04Z</time>
      </trkpt>
      <trkpt lat="39.6620910" lon="-7.5401280">
        <ele>137.4</ele>
        <time>2019-07-10T15:26:06Z</time>
      </trkpt>
      <trkpt lat="39.6621520" lon="-7.5403500">
        <ele>137.4</ele>
        <time>2019-07-10T15:26:11Z</time>
      </trkpt>
      <trkpt lat="39.6621590" lon="-7.5403870">
        <ele>137.6</ele>
        <time>2019-07-10T15:26:12Z</time>
      </trkpt>
      <trkpt lat="39.6621900" lon="-7.5405010">
        <ele>137.8</ele>
        <time>2019-07-10T15:26:15Z</time>
      </trkpt>
      <trkpt lat="39.6622090" lon="-7.5406010">
        <ele>137.8</ele>
        <time>2019-07-10T15:26:17Z</time>
      </trkpt>
      <trkpt lat="39.6622140" lon="-7.5406570">
        <ele>137.8</ele>
        <time>2019-07-10T15:26:18Z</time>
      </trkpt>
      <trkpt lat="39.6621820" lon="-7.5408790">
        <ele>138.0</ele>
        <time>2019-07-10T15:26:23Z</time>
      </trkpt>
      <trkpt lat="39.6621640" lon="-7.5409080">
        <ele>138.2</ele>
        <time>2019-07-10T15:26:24Z</time>
      </trkpt>
      <trkpt lat="39.6621100" lon="-7.5409940">
        <ele>138.8</ele>
        <time>2019-07-10T15:26:27Z</time>
      </trkpt>
      <trkpt lat="39.6620810" lon="-7.5410480">
        <ele>139.0</ele>
        <time>2019-07-10T15:26:29Z</time>
      </trkpt>
      <trkpt lat="39.6620460" lon="-7.5410890">
        <ele>139.2</ele>
        <time>2019-07-10T15:26:31Z</time>
      </trkpt>
      <trkpt lat="39.6619570" lon="-7.5411600">
        <ele>139.8</ele>
        <time>2019-07-10T15:26:35Z</time>
      </trkpt>
      <trkpt lat="39.6618960" lon="-7.5412270">
        <ele>140.6</ele>
        <time>2019-07-10T15:26:38Z</time>
      </trkpt>
      <trkpt lat="39.6618070" lon="-7.5413070">
        <ele>141.4</ele>
        <time>2019-07-10T15:26:42Z</time>
      </trkpt>
      <trkpt lat="39.6617620" lon="-7.5413410">
        <ele>141.8</ele>
        <time>2019-07-10T15:26:44Z</time>
      </trkpt>
      <trkpt lat="39.6616690" lon="-7.5413950">
        <ele>142.4</ele>
        <time>2019-07-10T15:26:48Z</time>
      </trkpt>
      <trkpt lat="39.6616200" lon="-7.5414220">
        <ele>143.0</ele>
        <time>2019-07-10T15:26:50Z</time>
      </trkpt>
      <trkpt lat="39.6615710" lon="-7.5414480">
        <ele>143.4</ele>
        <time>2019-07-10T15:26:52Z</time>
      </trkpt>
      <trkpt lat="39.6614640" lon="-7.5415400">
        <ele>144.2</ele>
        <time>2019-07-10T15:26:57Z</time>
      </trkpt>
      <trkpt lat="39.6614020" lon="-7.5415850">
        <ele>145.0</ele>
        <time>2019-07-10T15:27:00Z</time>
      </trkpt>
      <trkpt lat="39.6613590" lon="-7.5416160">
        <ele>145.4</ele>
        <time>2019-07-10T15:27:02Z</time>
      </trkpt>
      <trkpt lat="39.6612240" lon="-7.5416970">
        <ele>146.6</ele>
        <time>2019-07-10T15:27:08Z</time>
      </trkpt>
      <trkpt lat="39.6612030" lon="-7.5417140">
        <ele>146.8</ele>
        <time>2019-07-10T15:27:09Z</time>
      </trkpt>
      <trkpt lat="39.6610970" lon="-7.5417890">
        <ele>147.6</ele>
        <time>2019-07-10T15:27:14Z</time>
      </trkpt>
      <trkpt lat="39.6610500" lon="-7.5418100">
        <ele>148.0</ele>
        <time>2019-07-10T15:27:16Z</time>
      </trkpt>
      <trkpt lat="39.6609750" lon="-7.5419010">
        <ele>148.8</ele>
        <time>2019-07-10T15:27:20Z</time>
      </trkpt>
      <trkpt lat="39.6609120" lon="-7.5419640">
        <ele>149.6</ele>
        <time>2019-07-10T15:27:23Z</time>
      </trkpt>
      <trkpt lat="39.6608510" lon="-7.5420340">
        <ele>150.0</ele>
        <time>2019-07-10T15:27:26Z</time>
      </trkpt>
      <trkpt lat="39.6607780" lon="-7.5421390">
        <ele>151.0</ele>
        <time>2019-07-10T15:27:30Z</time>
      </trkpt>
      <trkpt lat="39.6607600" lon="-7.5421650">
        <ele>151.4</ele>
        <time>2019-07-10T15:27:31Z</time>
      </trkpt>
      <trkpt lat="39.6607070" lon="-7.5422430">
        <ele>152.2</ele>
        <time>2019-07-10T15:27:34Z</time>
      </trkpt>
      <trkpt lat="39.6606340" lon="-7.5423350">
        <ele>153.2</ele>
        <time>2019-07-10T15:27:38Z</time>
      </trkpt>
      <trkpt lat="39.6606180" lon="-7.5423610">
        <ele>153.4</ele>
        <time>2019-07-10T15:27:39Z</time>
      </trkpt>
      <trkpt lat="39.6605580" lon="-7.5424680">
        <ele>154.4</ele>
        <time>2019-07-10T15:27:43Z</time>
      </trkpt>
      <trkpt lat="39.6605140" lon="-7.5425480">
        <ele>155.2</ele>
        <time>2019-07-10T15:27:46Z</time>
      </trkpt>
      <trkpt lat="39.6604950" lon="-7.5425720">
        <ele>155.6</ele>
        <time>2019-07-10T15:27:47Z</time>
      </trkpt>
      <trkpt lat="39.6604220" lon="-7.5426690">
        <ele>156.6</ele>
        <time>2019-07-10T15:27:51Z</time>
      </trkpt>
      <trkpt lat="39.6603450" lon="-7.5427580">
        <ele>157.8</ele>
        <time>2019-07-10T15:27:55Z</time>
      </trkpt>
      <trkpt lat="39.6602380" lon="-7.5428570">
        <ele>158.8</ele>
        <time>2019-07-10T15:28:00Z</time>
      </trkpt>
      <trkpt lat="39.6601340" lon="-7.5429090">
        <ele>159.8</ele>
        <time>2019-07-10T15:28:04Z</time>
      </trkpt>
      <trkpt lat="39.6601060" lon="-7.5429200">
        <ele>160.0</ele>
        <time>2019-07-10T15:28:05Z</time>
      </trkpt>
      <trkpt lat="39.6599690" lon="-7.5429470">
        <ele>161.0</ele>
        <time>2019-07-10T15:28:10Z</time>
      </trkpt>
      <trkpt lat="39.6599150" lon="-7.5429520">
        <ele>161.6</ele>
        <time>2019-07-10T15:28:12Z</time>
      </trkpt>
      <trkpt lat="39.6598070" lon="-7.5429530">
        <ele>162.4</ele>
        <time>2019-07-10T15:28:16Z</time>
      </trkpt>
      <trkpt lat="39.6596970" lon="-7.5429380">
        <ele>163.2</ele>
        <time>2019-07-10T15:28:20Z</time>
      </trkpt>
      <trkpt lat="39.6596710" lon="-7.5429270">
        <ele>163.6</ele>
        <time>2019-07-10T15:28:21Z</time>
      </trkpt>
      <trkpt lat="39.6595370" lon="-7.5428930">
        <ele>164.4</ele>
        <time>2019-07-10T15:28:26Z</time>
      </trkpt>
      <trkpt lat="39.6594840" lon="-7.5428700">
        <ele>164.8</ele>
        <time>2019-07-10T15:28:28Z</time>
      </trkpt>
      <trkpt lat="39.6594000" lon="-7.5428500">
        <ele>165.6</ele>
        <time>2019-07-10T15:28:31Z</time>
      </trkpt>
      <trkpt lat="39.6592940" lon="-7.5428040">
        <ele>166.0</ele>
        <time>2019-07-10T15:28:35Z</time>
      </trkpt>
      <trkpt lat="39.6592140" lon="-7.5427700">
        <ele>166.6</ele>
        <time>2019-07-10T15:28:38Z</time>
      </trkpt>
      <trkpt lat="39.6590730" lon="-7.5427380">
        <ele>167.8</ele>
        <time>2019-07-10T15:28:43Z</time>
      </trkpt>
      <trkpt lat="39.6590440" lon="-7.5427290">
        <ele>167.8</ele>
        <time>2019-07-10T15:28:44Z</time>
      </trkpt>
      <trkpt lat="39.6589030" lon="-7.5426720">
        <ele>169.2</ele>
        <time>2019-07-10T15:28:49Z</time>
      </trkpt>
      <trkpt lat="39.6588510" lon="-7.5426420">
        <ele>169.4</ele>
        <time>2019-07-10T15:28:51Z</time>
      </trkpt>
      <trkpt lat="39.6587730" lon="-7.5426190">
        <ele>170.2</ele>
        <time>2019-07-10T15:28:54Z</time>
      </trkpt>
      <trkpt lat="39.6586610" lon="-7.5425940">
        <ele>171.2</ele>
        <time>2019-07-10T15:28:58Z</time>
      </trkpt>
      <trkpt lat="39.6585520" lon="-7.5425480">
        <ele>172.4</ele>
        <time>2019-07-10T15:29:02Z</time>
      </trkpt>
      <trkpt lat="39.6584710" lon="-7.5425090">
        <ele>173.6</ele>
        <time>2019-07-10T15:29:05Z</time>
      </trkpt>
      <trkpt lat="39.6584190" lon="-7.5424850">
        <ele>174.0</ele>
        <time>2019-07-10T15:29:07Z</time>
      </trkpt>
      <trkpt lat="39.6583430" lon="-7.5424460">
        <ele>174.6</ele>
        <time>2019-07-10T15:29:10Z</time>
      </trkpt>
      <trkpt lat="39.6582490" lon="-7.5423620">
        <ele>175.6</ele>
        <time>2019-07-10T15:29:14Z</time>
      </trkpt>
      <trkpt lat="39.6582270" lon="-7.5423390">
        <ele>176.0</ele>
        <time>2019-07-10T15:29:15Z</time>
      </trkpt>
      <trkpt lat="39.6581450" lon="-7.5422380">
        <ele>177.0</ele>
        <time>2019-07-10T15:29:19Z</time>
      </trkpt>
      <trkpt lat="39.6580420" lon="-7.5421080">
        <ele>178.2</ele>
        <time>2019-07-10T15:29:24Z</time>
      </trkpt>
      <trkpt lat="39.6579470" lon="-7.5419580">
        <ele>179.4</ele>
        <time>2019-07-10T15:29:29Z</time>
      </trkpt>
      <trkpt lat="39.6579110" lon="-7.5418990">
        <ele>180.0</ele>
        <time>2019-07-10T15:29:31Z</time>
      </trkpt>
      <trkpt lat="39.6578830" lon="-7.5418340">
        <ele>180.6</ele>
        <time>2019-07-10T15:29:33Z</time>
      </trkpt>
      <trkpt lat="39.6578180" lon="-7.5417100">
        <ele>181.8</ele>
        <time>2019-07-10T15:29:37Z</time>
      </trkpt>
      <trkpt lat="39.6577890" lon="-7.5416470">
        <ele>182.2</ele>
        <time>2019-07-10T15:29:39Z</time>
      </trkpt>
      <trkpt lat="39.6577570" lon="-7.5415880">
        <ele>182.8</ele>
        <time>2019-07-10T15:29:41Z</time>
      </trkpt>
      <trkpt lat="39.6576590" lon="-7.5414530">
        <ele>184.0</ele>
        <time>2019-07-10T15:29:46Z</time>
      </trkpt>
      <trkpt lat="39.6576390" lon="-7.5414270">
        <ele>184.2</ele>
        <time>2019-07-10T15:29:47Z</time>
      </trkpt>
      <trkpt lat="39.6575460" lon="-7.5413380">
        <ele>185.2</ele>
        <time>2019-07-10T15:29:51Z</time>
      </trkpt>
      <trkpt lat="39.6574410" lon="-7.5412690">
        <ele>186.2</ele>
        <time>2019-07-10T15:29:55Z</time>
      </trkpt>
      <trkpt lat="39.6574150" lon="-7.5412520">
        <ele>186.4</ele>
        <time>2019-07-10T15:29:56Z</time>
      </trkpt>
      <trkpt lat="39.6573090" lon="-7.5411900">
        <ele>187.6</ele>
        <time>2019-07-10T15:30:00Z</time>
      </trkpt>
      <trkpt lat="39.6571990" lon="-7.5411270">
        <ele>188.6</ele>
        <time>2019-07-10T15:30:04Z</time>
      </trkpt>
      <trkpt lat="39.6570690" lon="-7.5410470">
        <ele>189.8</ele>
        <time>2019-07-10T15:30:09Z</time>
      </trkpt>
      <trkpt lat="39.6569610" lon="-7.5409910">
        <ele>190.8</ele>
        <time>2019-07-10T15:30:13Z</time>
      </trkpt>
      <trkpt lat="39.6569360" lon="-7.5409740">
        <ele>191.0</ele>
        <time>2019-07-10T15:30:14Z</time>
      </trkpt>
      <trkpt lat="39.6568330" lon="-7.5409040">
        <ele>192.2</ele>
        <time>2019-07-10T15:30:18Z</time>
      </trkpt>
      <trkpt lat="39.6567250" lon="-7.5408570">
        <ele>192.8</ele>
        <time>2019-07-10T15:30:22Z</time>
      </trkpt>
      <trkpt lat="39.6566970" lon="-7.5408440">
        <ele>193.2</ele>
        <time>2019-07-10T15:30:23Z</time>
      </trkpt>
      <trkpt lat="39.6565660" lon="-7.5407590">
        <ele>194.4</ele>
        <time>2019-07-10T15:30:28Z</time>
      </trkpt>
      <trkpt lat="39.6564850" lon="-7.5407060">
        <ele>195.6</ele>
        <time>2019-07-10T15:30:31Z</time>
      </trkpt>
      <trkpt lat="39.6564560" lon="-7.5406920">
        <ele>195.6</ele>
        <time>2019-07-10T15:30:32Z</time>
      </trkpt>
      <trkpt lat="39.6563480" lon="-7.5406280">
        <ele>196.6</ele>
        <time>2019-07-10T15:30:36Z</time>
      </trkpt>
      <trkpt lat="39.6562730" lon="-7.5405690">
        <ele>197.6</ele>
        <time>2019-07-10T15:30:39Z</time>
      </trkpt>
      <trkpt lat="39.6562470" lon="-7.5405510">
        <ele>197.8</ele>
        <time>2019-07-10T15:30:40Z</time>
      </trkpt>
      <trkpt lat="39.6561710" lon="-7.5404990">
        <ele>198.8</ele>
        <time>2019-07-10T15:30:43Z</time>
      </trkpt>
      <trkpt lat="39.6560770" lon="-7.5404170">
        <ele>199.8</ele>
        <time>2019-07-10T15:30:47Z</time>
      </trkpt>
      <trkpt lat="39.6560540" lon="-7.5403940">
        <ele>200.0</ele>
        <time>2019-07-10T15:30:48Z</time>
      </trkpt>
      <trkpt lat="39.6559610" lon="-7.5403090">
        <ele>201.0</ele>
        <time>2019-07-10T15:30:52Z</time>
      </trkpt>
      <trkpt lat="39.6558630" lon="-7.5402300">
        <ele>202.0</ele>
        <time>2019-07-10T15:30:56Z</time>
      </trkpt>
      <trkpt lat="39.6557110" lon="-7.5401150">
        <ele>203.0</ele>
        <time>2019-07-10T15:31:02Z</time>
      </trkpt>
      <trkpt lat="39.6556880" lon="-7.5400900">
        <ele>203.4</ele>
        <time>2019-07-10T15:31:03Z</time>
      </trkpt>
      <trkpt lat="39.6555680" lon="-7.5399670">
        <ele>204.2</ele>
        <time>2019-07-10T15:31:08Z</time>
      </trkpt>
      <trkpt lat="39.6554610" lon="-7.5398610">
        <ele>205.2</ele>
        <time>2019-07-10T15:31:12Z</time>
      </trkpt>
      <trkpt lat="39.6554340" lon="-7.5398370">
        <ele>205.4</ele>
        <time>2019-07-10T15:31:13Z</time>
      </trkpt>
      <trkpt lat="39.6552920" lon="-7.5397440">
        <ele>206.4</ele>
        <time>2019-07-10T15:31:18Z</time>
      </trkpt>
      <trkpt lat="39.6551150" lon="-7.5396400">
        <ele>207.6</ele>
        <time>2019-07-10T15:31:24Z</time>
      </trkpt>
      <trkpt lat="39.6550860" lon="-7.5396240">
        <ele>207.8</ele>
        <time>2019-07-10T15:31:25Z</time>
      </trkpt>
      <trkpt lat="39.6549620" lon="-7.5395790">
        <ele>208.8</ele>
        <time>2019-07-10T15:31:29Z</time>
      </trkpt>
      <trkpt lat="39.6548720" lon="-7.5395350">
        <ele>209.4</ele>
        <time>2019-07-10T15:31:32Z</time>
      </trkpt>
      <trkpt lat="39.6547850" lon="-7.5394840">
        <ele>210.0</ele>
        <time>2019-07-10T15:31:35Z</time>
      </trkpt>
      <trkpt lat="39.6546370" lon="-7.5394060">
        <ele>211.0</ele>
        <time>2019-07-10T15:31:40Z</time>
      </trkpt>
      <trkpt lat="39.6545790" lon="-7.5393810">
        <ele>211.4</ele>
        <time>2019-07-10T15:31:42Z</time>
      </trkpt>
      <trkpt lat="39.6544630" lon="-7.5393150">
        <ele>212.2</ele>
        <time>2019-07-10T15:31:46Z</time>
      </trkpt>
      <trkpt lat="39.6543520" lon="-7.5392470">
        <ele>213.0</ele>
        <time>2019-07-10T15:31:50Z</time>
      </trkpt>
      <trkpt lat="39.6543230" lon="-7.5392290">
        <ele>213.4</ele>
        <time>2019-07-10T15:31:51Z</time>
      </trkpt>
      <trkpt lat="39.6541570" lon="-7.5390870">
        <ele>214.6</ele>
        <time>2019-07-10T15:31:57Z</time>
      </trkpt>
      <trkpt lat="39.6539950" lon="-7.5389010">
        <ele>215.8</ele>
        <time>2019-07-10T15:32:03Z</time>
      </trkpt>
      <trkpt lat="39.6539690" lon="-7.5388680">
        <ele>215.8</ele>
        <time>2019-07-10T15:32:04Z</time>
      </trkpt>
      <trkpt lat="39.6538090" lon="-7.5386530">
        <ele>217.0</ele>
        <time>2019-07-10T15:32:10Z</time>
      </trkpt>
      <trkpt lat="39.6537400" lon="-7.5385280">
        <ele>217.8</ele>
        <time>2019-07-10T15:32:13Z</time>
      </trkpt>
      <trkpt lat="39.6537180" lon="-7.5384850">
        <ele>218.2</ele>
        <time>2019-07-10T15:32:14Z</time>
      </trkpt>
      <trkpt lat="39.6535430" lon="-7.5381330">
        <ele>219.2</ele>
        <time>2019-07-10T15:32:22Z</time>
      </trkpt>
      <trkpt lat="39.6534370" lon="-7.5378540">
        <ele>220.2</ele>
        <time>2019-07-10T15:32:28Z</time>
      </trkpt>
      <trkpt lat="39.6533910" lon="-7.5377700">
        <ele>220.8</ele>
        <time>2019-07-10T15:32:30Z</time>
      </trkpt>
      <trkpt lat="39.6533140" lon="-7.5376470">
        <ele>221.4</ele>
        <time>2019-07-10T15:32:33Z</time>
      </trkpt>
      <trkpt lat="39.6531430" lon="-7.5374200">
        <ele>222.4</ele>
        <time>2019-07-10T15:32:39Z</time>
      </trkpt>
      <trkpt lat="39.6529120" lon="-7.5371680">
        <ele>223.2</ele>
        <time>2019-07-10T15:32:46Z</time>
      </trkpt>
      <trkpt lat="39.6528510" lon="-7.5370980">
        <ele>223.8</ele>
        <time>2019-07-10T15:32:48Z</time>
      </trkpt>
      <trkpt lat="39.6527560" lon="-7.5370000">
        <ele>224.4</ele>
        <time>2019-07-10T15:32:51Z</time>
      </trkpt>
      <trkpt lat="39.6525320" lon="-7.5367700">
        <ele>225.4</ele>
        <time>2019-07-10T15:32:58Z</time>
      </trkpt>
      <trkpt lat="39.6523730" lon="-7.5366060">
        <ele>226.4</ele>
        <time>2019-07-10T15:33:03Z</time>
      </trkpt>
      <trkpt lat="39.6522430" lon="-7.5364820">
        <ele>227.4</ele>
        <time>2019-07-10T15:33:07Z</time>
      </trkpt>
      <trkpt lat="39.6522120" lon="-7.5364480">
        <ele>227.6</ele>
        <time>2019-07-10T15:33:08Z</time>
      </trkpt>
      <trkpt lat="39.6520180" lon="-7.5362640">
        <ele>228.6</ele>
        <time>2019-07-10T15:33:14Z</time>
      </trkpt>
      <trkpt lat="39.6517880" lon="-7.5361380">
        <ele>229.6</ele>
        <time>2019-07-10T15:33:20Z</time>
      </trkpt>
      <trkpt lat="39.6517090" lon="-7.5361000">
        <ele>230.2</ele>
        <time>2019-07-10T15:33:22Z</time>
      </trkpt>
      <trkpt lat="39.6515850" lon="-7.5360630">
        <ele>230.8</ele>
        <time>2019-07-10T15:33:25Z</time>
      </trkpt>
      <trkpt lat="39.6514590" lon="-7.5360260">
        <ele>231.4</ele>
        <time>2019-07-10T15:33:28Z</time>
      </trkpt>
      <trkpt lat="39.6513740" lon="-7.5360070">
        <ele>231.8</ele>
        <time>2019-07-10T15:33:30Z</time>
      </trkpt>
      <trkpt lat="39.6511150" lon="-7.5359530">
        <ele>233.2</ele>
        <time>2019-07-10T15:33:36Z</time>
      </trkpt>
      <trkpt lat="39.6510720" lon="-7.5359450">
        <ele>233.2</ele>
        <time>2019-07-10T15:33:37Z</time>
      </trkpt>
      <trkpt lat="39.6508570" lon="-7.5359340">
        <ele>234.2</ele>
        <time>2019-07-10T15:33:42Z</time>
      </trkpt>
      <trkpt lat="39.6507290" lon="-7.5359360">
        <ele>234.6</ele>
        <time>2019-07-10T15:33:45Z</time>
      </trkpt>
      <trkpt lat="39.6505590" lon="-7.5359170">
        <ele>235.2</ele>
        <time>2019-07-10T15:33:49Z</time>
      </trkpt>
      <trkpt lat="39.6504340" lon="-7.5359190">
        <ele>235.8</ele>
        <time>2019-07-10T15:33:52Z</time>
      </trkpt>
      <trkpt lat="39.6503100" lon="-7.5359090">
        <ele>236.4</ele>
        <time>2019-07-10T15:33:55Z</time>
      </trkpt>
      <trkpt lat="39.6502310" lon="-7.5358980">
        <ele>236.8</ele>
        <time>2019-07-10T15:33:57Z</time>
      </trkpt>
      <trkpt lat="39.6501520" lon="-7.5358810">
        <ele>237.4</ele>
        <time>2019-07-10T15:33:59Z</time>
      </trkpt>
      <trkpt lat="39.6501140" lon="-7.5358760">
        <ele>237.6</ele>
        <time>2019-07-10T15:34:00Z</time>
      </trkpt>
      <trkpt lat="39.6499600" lon="-7.5358640">
        <ele>238.4</ele>
        <time>2019-07-10T15:34:04Z</time>
      </trkpt>
      <trkpt lat="39.6498000" lon="-7.5358400">
        <ele>239.6</ele>
        <time>2019-07-10T15:34:08Z</time>
      </trkpt>
      <trkpt lat="39.6497600" lon="-7.5358300">
        <ele>239.6</ele>
        <time>2019-07-10T15:34:09Z</time>
      </trkpt>
      <trkpt lat="39.6495610" lon="-7.5357700">
        <ele>240.6</ele>
        <time>2019-07-10T15:34:14Z</time>
      </trkpt>
      <trkpt lat="39.6495210" lon="-7.5357630">
        <ele>240.8</ele>
        <time>2019-07-10T15:34:15Z</time>
      </trkpt>
      <trkpt lat="39.6493650" lon="-7.5357150">
        <ele>241.6</ele>
        <time>2019-07-10T15:34:19Z</time>
      </trkpt>
      <trkpt lat="39.6492470" lon="-7.5356780">
        <ele>242.2</ele>
        <time>2019-07-10T15:34:22Z</time>
      </trkpt>
      <trkpt lat="39.6491250" lon="-7.5356410">
        <ele>242.8</ele>
        <time>2019-07-10T15:34:25Z</time>
      </trkpt>
      <trkpt lat="39.6490060" lon="-7.5355990">
        <ele>243.0</ele>
        <time>2019-07-10T15:34:28Z</time>
      </trkpt>
      <trkpt lat="39.6488490" lon="-7.5355430">
        <ele>244.0</ele>
        <time>2019-07-10T15:34:32Z</time>
      </trkpt>
      <trkpt lat="39.6487250" lon="-7.5355200">
        <ele>244.8</ele>
        <time>2019-07-10T15:34:35Z</time>
      </trkpt>
      <trkpt lat="39.6486420" lon="-7.5354940">
        <ele>245.0</ele>
        <time>2019-07-10T15:34:37Z</time>
      </trkpt>
      <trkpt lat="39.6484770" lon="-7.5354620">
        <ele>245.8</ele>
        <time>2019-07-10T15:34:41Z</time>
      </trkpt>
      <trkpt lat="39.6484370" lon="-7.5354560">
        <ele>246.0</ele>
        <time>2019-07-10T15:34:42Z</time>
      </trkpt>
      <trkpt lat="39.6482350" lon="-7.5354320">
        <ele>247.0</ele>
        <time>2019-07-10T15:34:47Z</time>
      </trkpt>
      <trkpt lat="39.6481560" lon="-7.5354190">
        <ele>247.4</ele>
        <time>2019-07-10T15:34:49Z</time>
      </trkpt>
      <trkpt lat="39.6481160" lon="-7.5354120">
        <ele>247.6</ele>
        <time>2019-07-10T15:34:50Z</time>
      </trkpt>
      <trkpt lat="39.6480750" lon="-7.5354050">
        <ele>248.0</ele>
        <time>2019-07-10T15:34:51Z</time>
      </trkpt>
      <trkpt lat="39.6479150" lon="-7.5353920">
        <ele>249.2</ele>
        <time>2019-07-10T15:34:55Z</time>
      </trkpt>
      <trkpt lat="39.6477920" lon="-7.5353850">
        <ele>249.6</ele>
        <time>2019-07-10T15:34:58Z</time>
      </trkpt>
      <trkpt lat="39.6475870" lon="-7.5353730">
        <ele>250.4</ele>
        <time>2019-07-10T15:35:03Z</time>
      </trkpt>
      <trkpt lat="39.6474320" lon="-7.5353440">
        <ele>251.4</ele>
        <time>2019-07-10T15:35:07Z</time>
      </trkpt>
      <trkpt lat="39.6473930" lon="-7.5353400">
        <ele>251.6</ele>
        <time>2019-07-10T15:35:08Z</time>
      </trkpt>
      <trkpt lat="39.6471880" lon="-7.5353310">
        <ele>252.6</ele>
        <time>2019-07-10T15:35:13Z</time>
      </trkpt>
      <trkpt lat="39.6471470" lon="-7.5353240">
        <ele>252.8</ele>
        <time>2019-07-10T15:35:14Z</time>
      </trkpt>
      <trkpt lat="39.6470260" lon="-7.5353090">
        <ele>253.6</ele>
        <time>2019-07-10T15:35:17Z</time>
      </trkpt>
      <trkpt lat="39.6468230" lon="-7.5352500">
        <ele>254.8</ele>
        <time>2019-07-10T15:35:22Z</time>
      </trkpt>
      <trkpt lat="39.6466550" lon="-7.5351930">
        <ele>255.4</ele>
        <time>2019-07-10T15:35:26Z</time>
      </trkpt>
      <trkpt lat="39.6465730" lon="-7.5351570">
        <ele>255.8</ele>
        <time>2019-07-10T15:35:28Z</time>
      </trkpt>
      <trkpt lat="39.6464900" lon="-7.5351130">
        <ele>256.2</ele>
        <time>2019-07-10T15:35:30Z</time>
      </trkpt>
      <trkpt lat="39.6463290" lon="-7.5349950">
        <ele>257.0</ele>
        <time>2019-07-10T15:35:34Z</time>
      </trkpt>
      <trkpt lat="39.6461650" lon="-7.5348550">
        <ele>257.8</ele>
        <time>2019-07-10T15:35:38Z</time>
      </trkpt>
      <trkpt lat="39.6458970" lon="-7.5345210">
        <ele>257.6</ele>
        <time>2019-07-10T15:35:45Z</time>
      </trkpt>
      <trkpt lat="39.6457360" lon="-7.5343020">
        <ele>257.4</ele>
        <time>2019-07-10T15:35:49Z</time>
      </trkpt>
      <trkpt lat="39.6456130" lon="-7.5341290">
        <ele>257.0</ele>
        <time>2019-07-10T15:35:52Z</time>
      </trkpt>
      <trkpt lat="39.6455710" lon="-7.5340720">
        <ele>256.8</ele>
        <time>2019-07-10T15:35:53Z</time>
      </trkpt>
      <trkpt lat="39.6454890" lon="-7.5339550">
        <ele>256.8</ele>
        <time>2019-07-10T15:35:55Z</time>
      </trkpt>
      <trkpt lat="39.6454060" lon="-7.5338380">
        <ele>256.6</ele>
        <time>2019-07-10T15:35:57Z</time>
      </trkpt>
      <trkpt lat="39.6453200" lon="-7.5337220">
        <ele>256.6</ele>
        <time>2019-07-10T15:35:59Z</time>
      </trkpt>
      <trkpt lat="39.6451930" lon="-7.5335440">
        <ele>256.0</ele>
        <time>2019-07-10T15:36:02Z</time>
      </trkpt>
      <trkpt lat="39.6451490" lon="-7.5334860">
        <ele>255.8</ele>
        <time>2019-07-10T15:36:03Z</time>
      </trkpt>
      <trkpt lat="39.6450570" lon="-7.5333770">
        <ele>255.8</ele>
        <time>2019-07-10T15:36:05Z</time>
      </trkpt>
      <trkpt lat="39.6448660" lon="-7.5331670">
        <ele>255.6</ele>
        <time>2019-07-10T15:36:09Z</time>
      </trkpt>
      <trkpt lat="39.6448130" lon="-7.5331220">
        <ele>255.4</ele>
        <time>2019-07-10T15:36:10Z</time>
      </trkpt>
      <trkpt lat="39.6447560" lon="-7.5330820">
        <ele>255.4</ele>
        <time>2019-07-10T15:36:11Z</time>
      </trkpt>
      <trkpt lat="39.6445090" lon="-7.5329500">
        <ele>254.8</ele>
        <time>2019-07-10T15:36:15Z</time>
      </trkpt>
      <trkpt lat="39.6444430" lon="-7.5329270">
        <ele>254.6</ele>
        <time>2019-07-10T15:36:16Z</time>
      </trkpt>
      <trkpt lat="39.6443760" lon="-7.5329070">
        <ele>254.6</ele>
        <time>2019-07-10T15:36:17Z</time>
      </trkpt>
      <trkpt lat="39.6439590" lon="-7.5328790">
        <ele>253.8</ele>
        <time>2019-07-10T15:36:23Z</time>
      </trkpt>
      <trkpt lat="39.6438900" lon="-7.5328910">
        <ele>253.6</ele>
        <time>2019-07-10T15:36:24Z</time>
      </trkpt>
      <trkpt lat="39.6436270" lon="-7.5329940">
        <ele>253.0</ele>
        <time>2019-07-10T15:36:28Z</time>
      </trkpt>
      <trkpt lat="39.6433530" lon="-7.5332090">
        <ele>252.6</ele>
        <time>2019-07-10T15:36:33Z</time>
      </trkpt>
      <trkpt lat="39.6431640" lon="-7.5333670">
        <ele>252.8</ele>
        <time>2019-07-10T15:36:37Z</time>
      </trkpt>
      <trkpt lat="39.6430730" lon="-7.5334470">
        <ele>252.8</ele>
        <time>2019-07-10T15:36:39Z</time>
      </trkpt>
      <trkpt lat="39.6429850" lon="-7.5335290">
        <ele>253.0</ele>
        <time>2019-07-10T15:36:41Z</time>
      </trkpt>
      <trkpt lat="39.6428140" lon="-7.5336830">
        <ele>253.6</ele>
        <time>2019-07-10T15:36:45Z</time>
      </trkpt>
      <trkpt lat="39.6427350" lon="-7.5337590">
        <ele>254.2</ele>
        <time>2019-07-10T15:36:47Z</time>
      </trkpt>
      <trkpt lat="39.6426960" lon="-7.5337970">
        <ele>254.4</ele>
        <time>2019-07-10T15:36:48Z</time>
      </trkpt>
      <trkpt lat="39.6425720" lon="-7.5338920">
        <ele>255.0</ele>
        <time>2019-07-10T15:36:51Z</time>
      </trkpt>
      <trkpt lat="39.6424900" lon="-7.5339500">
        <ele>255.4</ele>
        <time>2019-07-10T15:36:53Z</time>
      </trkpt>
      <trkpt lat="39.6424500" lon="-7.5339790">
        <ele>255.6</ele>
        <time>2019-07-10T15:36:54Z</time>
      </trkpt>
      <trkpt lat="39.6423240" lon="-7.5340500">
        <ele>256.0</ele>
        <time>2019-07-10T15:36:57Z</time>
      </trkpt>
      <trkpt lat="39.6421940" lon="-7.5341010">
        <ele>256.8</ele>
        <time>2019-07-10T15:37:00Z</time>
      </trkpt>
      <trkpt lat="39.6420600" lon="-7.5341420">
        <ele>257.4</ele>
        <time>2019-07-10T15:37:03Z</time>
      </trkpt>
      <trkpt lat="39.6419720" lon="-7.5341530">
        <ele>257.8</ele>
        <time>2019-07-10T15:37:05Z</time>
      </trkpt>
      <trkpt lat="39.6419270" lon="-7.5341600">
        <ele>258.0</ele>
        <time>2019-07-10T15:37:06Z</time>
      </trkpt>
      <trkpt lat="39.6418370" lon="-7.5341680">
        <ele>258.4</ele>
        <time>2019-07-10T15:37:08Z</time>
      </trkpt>
      <trkpt lat="39.6417040" lon="-7.5341540">
        <ele>258.8</ele>
        <time>2019-07-10T15:37:11Z</time>
      </trkpt>
      <trkpt lat="39.6416590" lon="-7.5341540">
        <ele>258.8</ele>
        <time>2019-07-10T15:37:12Z</time>
      </trkpt>
      <trkpt lat="39.6413510" lon="-7.5341260">
        <ele>260.2</ele>
        <time>2019-07-10T15:37:19Z</time>
      </trkpt>
      <trkpt lat="39.6413090" lon="-7.5341210">
        <ele>260.4</ele>
        <time>2019-07-10T15:37:20Z</time>
      </trkpt>
      <trkpt lat="39.6411370" lon="-7.5341100">
        <ele>261.2</ele>
        <time>2019-07-10T15:37:24Z</time>
      </trkpt>
      <trkpt lat="39.6409610" lon="-7.5341020">
        <ele>261.8</ele>
        <time>2019-07-10T15:37:28Z</time>
      </trkpt>
      <trkpt lat="39.6408280" lon="-7.5341060">
        <ele>262.4</ele>
        <time>2019-07-10T15:37:31Z</time>
      </trkpt>
      <trkpt lat="39.6406050" lon="-7.5341410">
        <ele>263.6</ele>
        <time>2019-07-10T15:37:36Z</time>
      </trkpt>
      <trkpt lat="39.6405620" lon="-7.5341490">
        <ele>263.6</ele>
        <time>2019-07-10T15:37:37Z</time>
      </trkpt>
      <trkpt lat="39.6403120" lon="-7.5342440">
        <ele>264.8</ele>
        <time>2019-07-10T15:37:43Z</time>
      </trkpt>
      <trkpt lat="39.6402300" lon="-7.5342880">
        <ele>265.0</ele>
        <time>2019-07-10T15:37:45Z</time>
      </trkpt>
      <trkpt lat="39.6401070" lon="-7.5343520">
        <ele>265.8</ele>
        <time>2019-07-10T15:37:48Z</time>
      </trkpt>
      <trkpt lat="39.6400670" lon="-7.5343720">
        <ele>266.0</ele>
        <time>2019-07-10T15:37:49Z</time>
      </trkpt>
      <trkpt lat="39.6399870" lon="-7.5344230">
        <ele>266.4</ele>
        <time>2019-07-10T15:37:51Z</time>
      </trkpt>
      <trkpt lat="39.6399080" lon="-7.5344780">
        <ele>267.0</ele>
        <time>2019-07-10T15:37:53Z</time>
      </trkpt>
      <trkpt lat="39.6396160" lon="-7.5346710">
        <ele>267.8</ele>
        <time>2019-07-10T15:38:00Z</time>
      </trkpt>
      <trkpt lat="39.6395740" lon="-7.5346950">
        <ele>268.0</ele>
        <time>2019-07-10T15:38:01Z</time>
      </trkpt>
      <trkpt lat="39.6395330" lon="-7.5347240">
        <ele>268.2</ele>
        <time>2019-07-10T15:38:02Z</time>
      </trkpt>
      <trkpt lat="39.6393680" lon="-7.5348450">
        <ele>268.8</ele>
        <time>2019-07-10T15:38:06Z</time>
      </trkpt>
      <trkpt lat="39.6392790" lon="-7.5348940">
        <ele>269.0</ele>
        <time>2019-07-10T15:38:08Z</time>
      </trkpt>
      <trkpt lat="39.6390550" lon="-7.5350260">
        <ele>269.6</ele>
        <time>2019-07-10T15:38:13Z</time>
      </trkpt>
      <trkpt lat="39.6389170" lon="-7.5351080">
        <ele>269.6</ele>
        <time>2019-07-10T15:38:16Z</time>
      </trkpt>
      <trkpt lat="39.6387330" lon="-7.5351990">
        <ele>269.6</ele>
        <time>2019-07-10T15:38:20Z</time>
      </trkpt>
      <trkpt lat="39.6386880" lon="-7.5352240">
        <ele>269.8</ele>
        <time>2019-07-10T15:38:21Z</time>
      </trkpt>
      <trkpt lat="39.6386420" lon="-7.5352460">
        <ele>269.8</ele>
        <time>2019-07-10T15:38:22Z</time>
      </trkpt>
      <trkpt lat="39.6384500" lon="-7.5353070">
        <ele>270.4</ele>
        <time>2019-07-10T15:38:26Z</time>
      </trkpt>
      <trkpt lat="39.6383520" lon="-7.5353380">
        <ele>270.4</ele>
        <time>2019-07-10T15:38:28Z</time>
      </trkpt>
      <trkpt lat="39.6382540" lon="-7.5353680">
        <ele>270.6</ele>
        <time>2019-07-10T15:38:30Z</time>
      </trkpt>
      <trkpt lat="39.6380570" lon="-7.5354170">
        <ele>270.8</ele>
        <time>2019-07-10T15:38:34Z</time>
      </trkpt>
      <trkpt lat="39.6378610" lon="-7.5354630">
        <ele>271.4</ele>
        <time>2019-07-10T15:38:38Z</time>
      </trkpt>
      <trkpt lat="39.6376620" lon="-7.5355050">
        <ele>272.0</ele>
        <time>2019-07-10T15:38:42Z</time>
      </trkpt>
      <trkpt lat="39.6372200" lon="-7.5356000">
        <ele>272.6</ele>
        <time>2019-07-10T15:38:51Z</time>
      </trkpt>
      <trkpt lat="39.6370740" lon="-7.5356300">
        <ele>273.2</ele>
        <time>2019-07-10T15:38:54Z</time>
      </trkpt>
      <trkpt lat="39.6367830" lon="-7.5356930">
        <ele>273.6</ele>
        <time>2019-07-10T15:39:00Z</time>
      </trkpt>
      <trkpt lat="39.6365200" lon="-7.5357510">
        <ele>274.2</ele>
        <time>2019-07-10T15:39:05Z</time>
      </trkpt>
      <trkpt lat="39.6363610" lon="-7.5357840">
        <ele>274.4</ele>
        <time>2019-07-10T15:39:08Z</time>
      </trkpt>
      <trkpt lat="39.6359870" lon="-7.5358580">
        <ele>275.0</ele>
        <time>2019-07-10T15:39:15Z</time>
      </trkpt>
      <trkpt lat="39.6359350" lon="-7.5358680">
        <ele>275.2</ele>
        <time>2019-07-10T15:39:16Z</time>
      </trkpt>
      <trkpt lat="39.6356280" lon="-7.5359420">
        <ele>276.2</ele>
        <time>2019-07-10T15:39:22Z</time>
      </trkpt>
      <trkpt lat="39.6355760" lon="-7.5359510">
        <ele>276.4</ele>
        <time>2019-07-10T15:39:23Z</time>
      </trkpt>
      <trkpt lat="39.6352100" lon="-7.5359810">
        <ele>277.0</ele>
        <time>2019-07-10T15:39:30Z</time>
      </trkpt>
      <trkpt lat="39.6351060" lon="-7.5359930">
        <ele>277.4</ele>
        <time>2019-07-10T15:39:32Z</time>
      </trkpt>
      <trkpt lat="39.6350540" lon="-7.5359980">
        <ele>277.6</ele>
        <time>2019-07-10T15:39:33Z</time>
      </trkpt>
      <trkpt lat="39.6350020" lon="-7.5359980">
        <ele>277.6</ele>
        <time>2019-07-10T15:39:34Z</time>
      </trkpt>
      <trkpt lat="39.6348430" lon="-7.5359740">
        <ele>277.8</ele>
        <time>2019-07-10T15:39:37Z</time>
      </trkpt>
      <trkpt lat="39.6345210" lon="-7.5359430">
        <ele>278.2</ele>
        <time>2019-07-10T15:39:43Z</time>
      </trkpt>
      <trkpt lat="39.6343590" lon="-7.5359070">
        <ele>278.4</ele>
        <time>2019-07-10T15:39:46Z</time>
      </trkpt>
      <trkpt lat="39.6340310" lon="-7.5358320">
        <ele>279.4</ele>
        <time>2019-07-10T15:39:52Z</time>
      </trkpt>
      <trkpt lat="39.6338690" lon="-7.5358020">
        <ele>279.6</ele>
        <time>2019-07-10T15:39:55Z</time>
      </trkpt>
      <trkpt lat="39.6335100" lon="-7.5357170">
        <ele>280.4</ele>
        <time>2019-07-10T15:40:02Z</time>
      </trkpt>
      <trkpt lat="39.6334590" lon="-7.5357060">
        <ele>280.6</ele>
        <time>2019-07-10T15:40:03Z</time>
      </trkpt>
      <trkpt lat="39.6332090" lon="-7.5356410">
        <ele>281.4</ele>
        <time>2019-07-10T15:40:08Z</time>
      </trkpt>
      <trkpt lat="39.6330090" lon="-7.5355960">
        <ele>281.8</ele>
        <time>2019-07-10T15:40:12Z</time>
      </trkpt>
      <trkpt lat="39.6328060" lon="-7.5355460">
        <ele>282.6</ele>
        <time>2019-07-10T15:40:16Z</time>
      </trkpt>
      <trkpt lat="39.6327560" lon="-7.5355330">
        <ele>282.8</ele>
        <time>2019-07-10T15:40:17Z</time>
      </trkpt>
      <trkpt lat="39.6326540" lon="-7.5355140">
        <ele>283.0</ele>
        <time>2019-07-10T15:40:19Z</time>
      </trkpt>
      <trkpt lat="39.6324050" lon="-7.5354480">
        <ele>283.8</ele>
        <time>2019-07-10T15:40:24Z</time>
      </trkpt>
      <trkpt lat="39.6322570" lon="-7.5354210">
        <ele>284.4</ele>
        <time>2019-07-10T15:40:27Z</time>
      </trkpt>
      <trkpt lat="39.6321100" lon="-7.5353890">
        <ele>284.8</ele>
        <time>2019-07-10T15:40:30Z</time>
      </trkpt>
      <trkpt lat="39.6317150" lon="-7.5353100">
        <ele>285.8</ele>
        <time>2019-07-10T15:40:38Z</time>
      </trkpt>
      <trkpt lat="39.6316650" lon="-7.5353010">
        <ele>286.0</ele>
        <time>2019-07-10T15:40:39Z</time>
      </trkpt>
      <trkpt lat="39.6313720" lon="-7.5352140">
        <ele>286.6</ele>
        <time>2019-07-10T15:40:45Z</time>
      </trkpt>
      <trkpt lat="39.6312700" lon="-7.5351980">
        <ele>287.2</ele>
        <time>2019-07-10T15:40:47Z</time>
      </trkpt>
      <trkpt lat="39.6310070" lon="-7.5351460">
        <ele>287.8</ele>
        <time>2019-07-10T15:40:52Z</time>
      </trkpt>
      <trkpt lat="39.6306360" lon="-7.5350670">
        <ele>288.2</ele>
        <time>2019-07-10T15:40:59Z</time>
      </trkpt>
      <trkpt lat="39.6302590" lon="-7.5350010">
        <ele>288.2</ele>
        <time>2019-07-10T15:41:06Z</time>
      </trkpt>
      <trkpt lat="39.6299780" lon="-7.5349480">
        <ele>287.6</ele>
        <time>2019-07-10T15:41:11Z</time>
      </trkpt>
      <trkpt lat="39.6297500" lon="-7.5349090">
        <ele>287.2</ele>
        <time>2019-07-10T15:41:15Z</time>
      </trkpt>
      <trkpt lat="39.6296930" lon="-7.5348950">
        <ele>287.2</ele>
        <time>2019-07-10T15:41:16Z</time>
      </trkpt>
      <trkpt lat="39.6295780" lon="-7.5348690">
        <ele>286.8</ele>
        <time>2019-07-10T15:41:18Z</time>
      </trkpt>
      <trkpt lat="39.6294010" lon="-7.5348380">
        <ele>286.6</ele>
        <time>2019-07-10T15:41:21Z</time>
      </trkpt>
      <trkpt lat="39.6292250" lon="-7.5348020">
        <ele>286.2</ele>
        <time>2019-07-10T15:41:24Z</time>
      </trkpt>
      <trkpt lat="39.6290480" lon="-7.5347670">
        <ele>285.8</ele>
        <time>2019-07-10T15:41:27Z</time>
      </trkpt>
      <trkpt lat="39.6288010" lon="-7.5347230">
        <ele>285.4</ele>
        <time>2019-07-10T15:41:31Z</time>
      </trkpt>
      <trkpt lat="39.6286680" lon="-7.5347010">
        <ele>285.4</ele>
        <time>2019-07-10T15:41:33Z</time>
      </trkpt>
      <trkpt lat="39.6283120" lon="-7.5346320">
        <ele>285.0</ele>
        <time>2019-07-10T15:41:38Z</time>
      </trkpt>
      <trkpt lat="39.6280890" lon="-7.5345900">
        <ele>284.6</ele>
        <time>2019-07-10T15:41:41Z</time>
      </trkpt>
      <trkpt lat="39.6279410" lon="-7.5345680">
        <ele>284.4</ele>
        <time>2019-07-10T15:41:43Z</time>
      </trkpt>
      <trkpt lat="39.6277190" lon="-7.5345300">
        <ele>284.0</ele>
        <time>2019-07-10T15:41:46Z</time>
      </trkpt>
      <trkpt lat="39.6274220" lon="-7.5344830">
        <ele>283.6</ele>
        <time>2019-07-10T15:41:50Z</time>
      </trkpt>
      <trkpt lat="39.6272740" lon="-7.5344610">
        <ele>283.4</ele>
        <time>2019-07-10T15:41:52Z</time>
      </trkpt>
      <trkpt lat="39.6268290" lon="-7.5344070">
        <ele>282.6</ele>
        <time>2019-07-10T15:41:58Z</time>
      </trkpt>
      <trkpt lat="39.6266750" lon="-7.5343990">
        <ele>282.0</ele>
        <time>2019-07-10T15:42:00Z</time>
      </trkpt>
      <trkpt lat="39.6265960" lon="-7.5343970">
        <ele>282.0</ele>
        <time>2019-07-10T15:42:01Z</time>
      </trkpt>
      <trkpt lat="39.6260480" lon="-7.5343930">
        <ele>281.8</ele>
        <time>2019-07-10T15:42:08Z</time>
      </trkpt>
      <trkpt lat="39.6259030" lon="-7.5343960">
        <ele>282.0</ele>
        <time>2019-07-10T15:42:10Z</time>
      </trkpt>
      <trkpt lat="39.6255150" lon="-7.5344050">
        <ele>283.0</ele>
        <time>2019-07-10T15:42:16Z</time>
      </trkpt>
      <trkpt lat="39.6253450" lon="-7.5344050">
        <ele>283.6</ele>
        <time>2019-07-10T15:42:19Z</time>
      </trkpt>
      <trkpt lat="39.6251840" lon="-7.5343980">
        <ele>284.2</ele>
        <time>2019-07-10T15:42:22Z</time>
      </trkpt>
      <trkpt lat="39.6250820" lon="-7.5343870">
        <ele>284.6</ele>
        <time>2019-07-10T15:42:24Z</time>
      </trkpt>
      <trkpt lat="39.6248850" lon="-7.5343510">
        <ele>285.4</ele>
        <time>2019-07-10T15:42:28Z</time>
      </trkpt>
      <trkpt lat="39.6247880" lon="-7.5343290">
        <ele>285.6</ele>
        <time>2019-07-10T15:42:30Z</time>
      </trkpt>
      <trkpt lat="39.6246380" lon="-7.5343050">
        <ele>286.2</ele>
        <time>2019-07-10T15:42:33Z</time>
      </trkpt>
      <trkpt lat="39.6244930" lon="-7.5342760">
        <ele>286.8</ele>
        <time>2019-07-10T15:42:36Z</time>
      </trkpt>
      <trkpt lat="39.6244010" lon="-7.5342600">
        <ele>287.4</ele>
        <time>2019-07-10T15:42:38Z</time>
      </trkpt>
      <trkpt lat="39.6243570" lon="-7.5342510">
        <ele>287.4</ele>
        <time>2019-07-10T15:42:39Z</time>
      </trkpt>
      <trkpt lat="39.6242690" lon="-7.5342330">
        <ele>287.8</ele>
        <time>2019-07-10T15:42:41Z</time>
      </trkpt>
      <trkpt lat="39.6240890" lon="-7.5342010">
        <ele>288.6</ele>
        <time>2019-07-10T15:42:45Z</time>
      </trkpt>
      <trkpt lat="39.6240430" lon="-7.5341920">
        <ele>289.0</ele>
        <time>2019-07-10T15:42:46Z</time>
      </trkpt>
      <trkpt lat="39.6239010" lon="-7.5341630">
        <ele>289.4</ele>
        <time>2019-07-10T15:42:49Z</time>
      </trkpt>
      <trkpt lat="39.6237560" lon="-7.5341280">
        <ele>289.8</ele>
        <time>2019-07-10T15:42:52Z</time>
      </trkpt>
      <trkpt lat="39.6235640" lon="-7.5340740">
        <ele>290.6</ele>
        <time>2019-07-10T15:42:56Z</time>
      </trkpt>
      <trkpt lat="39.6235170" lon="-7.5340580">
        <ele>290.6</ele>
        <time>2019-07-10T15:42:57Z</time>
      </trkpt>
      <trkpt lat="39.6233290" lon="-7.5339650">
        <ele>290.8</ele>
        <time>2019-07-10T15:43:01Z</time>
      </trkpt>
      <trkpt lat="39.6232810" lon="-7.5339420">
        <ele>291.0</ele>
        <time>2019-07-10T15:43:02Z</time>
      </trkpt>
      <trkpt lat="39.6229380" lon="-7.5337790">
        <ele>292.0</ele>
        <time>2019-07-10T15:43:09Z</time>
      </trkpt>
      <trkpt lat="39.6228900" lon="-7.5337540">
        <ele>292.2</ele>
        <time>2019-07-10T15:43:10Z</time>
      </trkpt>
      <trkpt lat="39.6228430" lon="-7.5337260">
        <ele>292.4</ele>
        <time>2019-07-10T15:43:11Z</time>
      </trkpt>
      <trkpt lat="39.6226520" lon="-7.5336140">
        <ele>292.6</ele>
        <time>2019-07-10T15:43:15Z</time>
      </trkpt>
      <trkpt lat="39.6225030" lon="-7.5335310">
        <ele>293.0</ele>
        <time>2019-07-10T15:43:18Z</time>
      </trkpt>
      <trkpt lat="39.6223530" lon="-7.5334550">
        <ele>293.6</ele>
        <time>2019-07-10T15:43:21Z</time>
      </trkpt>
      <trkpt lat="39.6221080" lon="-7.5333290">
        <ele>294.0</ele>
        <time>2019-07-10T15:43:26Z</time>
      </trkpt>
      <trkpt lat="39.6219160" lon="-7.5332280">
        <ele>294.6</ele>
        <time>2019-07-10T15:43:30Z</time>
      </trkpt>
      <trkpt lat="39.6215830" lon="-7.5330550">
        <ele>295.2</ele>
        <time>2019-07-10T15:43:37Z</time>
      </trkpt>
      <trkpt lat="39.6215340" lon="-7.5330290">
        <ele>295.2</ele>
        <time>2019-07-10T15:43:38Z</time>
      </trkpt>
      <trkpt lat="39.6211340" lon="-7.5328670">
        <ele>295.8</ele>
        <time>2019-07-10T15:43:46Z</time>
      </trkpt>
      <trkpt lat="39.6209260" lon="-7.5327990">
        <ele>296.2</ele>
        <time>2019-07-10T15:43:50Z</time>
      </trkpt>
      <trkpt lat="39.6207690" lon="-7.5327650">
        <ele>297.0</ele>
        <time>2019-07-10T15:43:53Z</time>
      </trkpt>
      <trkpt lat="39.6206670" lon="-7.5327450">
        <ele>297.2</ele>
        <time>2019-07-10T15:43:55Z</time>
      </trkpt>
      <trkpt lat="39.6204050" lon="-7.5327030">
        <ele>298.0</ele>
        <time>2019-07-10T15:44:00Z</time>
      </trkpt>
      <trkpt lat="39.6203540" lon="-7.5326980">
        <ele>298.0</ele>
        <time>2019-07-10T15:44:01Z</time>
      </trkpt>
      <trkpt lat="39.6202020" lon="-7.5327010">
        <ele>298.4</ele>
        <time>2019-07-10T15:44:04Z</time>
      </trkpt>
      <trkpt lat="39.6201000" lon="-7.5326960">
        <ele>298.6</ele>
        <time>2019-07-10T15:44:06Z</time>
      </trkpt>
      <trkpt lat="39.6196430" lon="-7.5326690">
        <ele>299.6</ele>
        <time>2019-07-10T15:44:15Z</time>
      </trkpt>
      <trkpt lat="39.6190860" lon="-7.5326650">
        <ele>300.4</ele>
        <time>2019-07-10T15:44:26Z</time>
      </trkpt>
      <trkpt lat="39.6190350" lon="-7.5326640">
        <ele>300.4</ele>
        <time>2019-07-10T15:44:27Z</time>
      </trkpt>
      <trkpt lat="39.6189840" lon="-7.5326640">
        <ele>300.6</ele>
        <time>2019-07-10T15:44:28Z</time>
      </trkpt>
      <trkpt lat="39.6186740" lon="-7.5326270">
        <ele>301.4</ele>
        <time>2019-07-10T15:44:34Z</time>
      </trkpt>
      <trkpt lat="39.6182660" lon="-7.5325790">
        <ele>302.4</ele>
        <time>2019-07-10T15:44:42Z</time>
      </trkpt>
      <trkpt lat="39.6182160" lon="-7.5325710">
        <ele>302.4</ele>
        <time>2019-07-10T15:44:43Z</time>
      </trkpt>
      <trkpt lat="39.6181640" lon="-7.5325610">
        <ele>302.6</ele>
        <time>2019-07-10T15:44:44Z</time>
      </trkpt>
      <trkpt lat="39.6177360" lon="-7.5324460">
        <ele>303.4</ele>
        <time>2019-07-10T15:44:52Z</time>
      </trkpt>
      <trkpt lat="39.6176820" lon="-7.5324320">
        <ele>303.6</ele>
        <time>2019-07-10T15:44:53Z</time>
      </trkpt>
      <trkpt lat="39.6173650" lon="-7.5323340">
        <ele>304.6</ele>
        <time>2019-07-10T15:44:59Z</time>
      </trkpt>
      <trkpt lat="39.6171580" lon="-7.5322640">
        <ele>305.0</ele>
        <time>2019-07-10T15:45:03Z</time>
      </trkpt>
      <trkpt lat="39.6168950" lon="-7.5321880">
        <ele>305.6</ele>
        <time>2019-07-10T15:45:08Z</time>
      </trkpt>
      <trkpt lat="39.6167400" lon="-7.5321320">
        <ele>305.8</ele>
        <time>2019-07-10T15:45:11Z</time>
      </trkpt>
      <trkpt lat="39.6164300" lon="-7.5320450">
        <ele>306.6</ele>
        <time>2019-07-10T15:45:17Z</time>
      </trkpt>
      <trkpt lat="39.6163270" lon="-7.5320080">
        <ele>306.8</ele>
        <time>2019-07-10T15:45:19Z</time>
      </trkpt>
      <trkpt lat="39.6159550" lon="-7.5318960">
        <ele>307.4</ele>
        <time>2019-07-10T15:45:26Z</time>
      </trkpt>
      <trkpt lat="39.6158490" lon="-7.5318600">
        <ele>307.6</ele>
        <time>2019-07-10T15:45:28Z</time>
      </trkpt>
      <trkpt lat="39.6155830" lon="-7.5317770">
        <ele>308.2</ele>
        <time>2019-07-10T15:45:33Z</time>
      </trkpt>
      <trkpt lat="39.6153100" lon="-7.5316930">
        <ele>308.6</ele>
        <time>2019-07-10T15:45:38Z</time>
      </trkpt>
      <trkpt lat="39.6151460" lon="-7.5316490">
        <ele>308.8</ele>
        <time>2019-07-10T15:45:41Z</time>
      </trkpt>
      <trkpt lat="39.6149310" lon="-7.5315780">
        <ele>309.6</ele>
        <time>2019-07-10T15:45:45Z</time>
      </trkpt>
      <trkpt lat="39.6146100" lon="-7.5314850">
        <ele>310.0</ele>
        <time>2019-07-10T15:45:51Z</time>
      </trkpt>
      <trkpt lat="39.6143970" lon="-7.5314080">
        <ele>310.6</ele>
        <time>2019-07-10T15:45:55Z</time>
      </trkpt>
      <trkpt lat="39.6141800" lon="-7.5313450">
        <ele>311.2</ele>
        <time>2019-07-10T15:45:59Z</time>
      </trkpt>
      <trkpt lat="39.6139650" lon="-7.5312780">
        <ele>311.6</ele>
        <time>2019-07-10T15:46:03Z</time>
      </trkpt>
      <trkpt lat="39.6136930" lon="-7.5312040">
        <ele>311.8</ele>
        <time>2019-07-10T15:46:08Z</time>
      </trkpt>
      <trkpt lat="39.6134780" lon="-7.5311470">
        <ele>312.6</ele>
        <time>2019-07-10T15:46:12Z</time>
      </trkpt>
      <trkpt lat="39.6132180" lon="-7.5310700">
        <ele>313.8</ele>
        <time>2019-07-10T15:46:17Z</time>
      </trkpt>
      <trkpt lat="39.6128050" lon="-7.5309960">
        <ele>314.4</ele>
        <time>2019-07-10T15:46:25Z</time>
      </trkpt>
      <trkpt lat="39.6126970" lon="-7.5309910">
        <ele>314.8</ele>
        <time>2019-07-10T15:46:27Z</time>
      </trkpt>
      <trkpt lat="39.6123770" lon="-7.5310070">
        <ele>316.0</ele>
        <time>2019-07-10T15:46:33Z</time>
      </trkpt>
      <trkpt lat="39.6119410" lon="-7.5310170">
        <ele>317.0</ele>
        <time>2019-07-10T15:46:41Z</time>
      </trkpt>
      <trkpt lat="39.6118290" lon="-7.5310160">
        <ele>317.0</ele>
        <time>2019-07-10T15:46:43Z</time>
      </trkpt>
      <trkpt lat="39.6116050" lon="-7.5310200">
        <ele>316.8</ele>
        <time>2019-07-10T15:46:47Z</time>
      </trkpt>
      <trkpt lat="39.6114880" lon="-7.5310280">
        <ele>316.8</ele>
        <time>2019-07-10T15:46:49Z</time>
      </trkpt>
      <trkpt lat="39.6111260" lon="-7.5310420">
        <ele>317.0</ele>
        <time>2019-07-10T15:46:55Z</time>
      </trkpt>
      <trkpt lat="39.6110070" lon="-7.5310470">
        <ele>317.0</ele>
        <time>2019-07-10T15:46:57Z</time>
      </trkpt>
      <trkpt lat="39.6104990" lon="-7.5310610">
        <ele>316.8</ele>
        <time>2019-07-10T15:47:05Z</time>
      </trkpt>
      <trkpt lat="39.6100140" lon="-7.5310740">
        <ele>316.6</ele>
        <time>2019-07-10T15:47:12Z</time>
      </trkpt>
      <trkpt lat="39.6098710" lon="-7.5310840">
        <ele>316.2</ele>
        <time>2019-07-10T15:47:14Z</time>
      </trkpt>
      <trkpt lat="39.6093850" lon="-7.5311970">
        <ele>316.2</ele>
        <time>2019-07-10T15:47:21Z</time>
      </trkpt>
      <trkpt lat="39.6088200" lon="-7.5313870">
        <ele>316.8</ele>
        <time>2019-07-10T15:47:30Z</time>
      </trkpt>
      <trkpt lat="39.6083420" lon="-7.5315400">
        <ele>317.4</ele>
        <time>2019-07-10T15:47:38Z</time>
      </trkpt>
      <trkpt lat="39.6078860" lon="-7.5317160">
        <ele>317.6</ele>
        <time>2019-07-10T15:47:46Z</time>
      </trkpt>
      <trkpt lat="39.6076160" lon="-7.5318410">
        <ele>318.0</ele>
        <time>2019-07-10T15:47:51Z</time>
      </trkpt>
      <trkpt lat="39.6074660" lon="-7.5319350">
        <ele>318.2</ele>
        <time>2019-07-10T15:47:54Z</time>
      </trkpt>
      <trkpt lat="39.6071190" lon="-7.5321320">
        <ele>319.0</ele>
        <time>2019-07-10T15:48:01Z</time>
      </trkpt>
      <trkpt lat="39.6066200" lon="-7.5323880">
        <ele>319.4</ele>
        <time>2019-07-10T15:48:10Z</time>
      </trkpt>
      <trkpt lat="39.6065610" lon="-7.5324130">
        <ele>319.4</ele>
        <time>2019-07-10T15:48:11Z</time>
      </trkpt>
      <trkpt lat="39.6063140" lon="-7.5324820">
        <ele>319.4</ele>
        <time>2019-07-10T15:48:15Z</time>
      </trkpt>
      <trkpt lat="39.6061890" lon="-7.5325100">
        <ele>319.2</ele>
        <time>2019-07-10T15:48:17Z</time>
      </trkpt>
      <trkpt lat="39.6058550" lon="-7.5325620">
        <ele>318.4</ele>
        <time>2019-07-10T15:48:22Z</time>
      </trkpt>
      <trkpt lat="39.6057110" lon="-7.5325810">
        <ele>318.0</ele>
        <time>2019-07-10T15:48:24Z</time>
      </trkpt>
      <trkpt lat="39.6056380" lon="-7.5325920">
        <ele>317.4</ele>
        <time>2019-07-10T15:48:25Z</time>
      </trkpt>
      <trkpt lat="39.6054110" lon="-7.5326200">
        <ele>316.8</ele>
        <time>2019-07-10T15:48:28Z</time>
      </trkpt>
      <trkpt lat="39.6053340" lon="-7.5326310">
        <ele>316.4</ele>
        <time>2019-07-10T15:48:29Z</time>
      </trkpt>
      <trkpt lat="39.6050180" lon="-7.5326750">
        <ele>315.2</ele>
        <time>2019-07-10T15:48:33Z</time>
      </trkpt>
      <trkpt lat="39.6049350" lon="-7.5326800">
        <ele>314.8</ele>
        <time>2019-07-10T15:48:34Z</time>
      </trkpt>
      <trkpt lat="39.6047620" lon="-7.5326780">
        <ele>314.2</ele>
        <time>2019-07-10T15:48:36Z</time>
      </trkpt>
      <trkpt lat="39.6044860" lon="-7.5326640">
        <ele>312.6</ele>
        <time>2019-07-10T15:48:39Z</time>
      </trkpt>
      <trkpt lat="39.6043910" lon="-7.5326540">
        <ele>312.0</ele>
        <time>2019-07-10T15:48:40Z</time>
      </trkpt>
      <trkpt lat="39.6042940" lon="-7.5326390">
        <ele>311.4</ele>
        <time>2019-07-10T15:48:41Z</time>
      </trkpt>
      <trkpt lat="39.6040040" lon="-7.5325720">
        <ele>310.2</ele>
        <time>2019-07-10T15:48:44Z</time>
      </trkpt>
      <trkpt lat="39.6038100" lon="-7.5325120">
        <ele>309.2</ele>
        <time>2019-07-10T15:48:46Z</time>
      </trkpt>
      <trkpt lat="39.6035220" lon="-7.5324280">
        <ele>307.8</ele>
        <time>2019-07-10T15:48:49Z</time>
      </trkpt>
      <trkpt lat="39.6032270" lon="-7.5323810">
        <ele>306.6</ele>
        <time>2019-07-10T15:48:52Z</time>
      </trkpt>
      <trkpt lat="39.6029280" lon="-7.5323870">
        <ele>305.2</ele>
        <time>2019-07-10T15:48:55Z</time>
      </trkpt>
      <trkpt lat="39.6027270" lon="-7.5323940">
        <ele>304.0</ele>
        <time>2019-07-10T15:48:57Z</time>
      </trkpt>
      <trkpt lat="39.6026240" lon="-7.5323970">
        <ele>303.4</ele>
        <time>2019-07-10T15:48:58Z</time>
      </trkpt>
      <trkpt lat="39.6025210" lon="-7.5323980">
        <ele>302.8</ele>
        <time>2019-07-10T15:48:59Z</time>
      </trkpt>
      <trkpt lat="39.6022110" lon="-7.5323610">
        <ele>301.6</ele>
        <time>2019-07-10T15:49:02Z</time>
      </trkpt>
      <trkpt lat="39.6021130" lon="-7.5323290">
        <ele>301.2</ele>
        <time>2019-07-10T15:49:03Z</time>
      </trkpt>
      <trkpt lat="39.6019300" lon="-7.5322430">
        <ele>300.2</ele>
        <time>2019-07-10T15:49:05Z</time>
      </trkpt>
      <trkpt lat="39.6018440" lon="-7.5321930">
        <ele>300.0</ele>
        <time>2019-07-10T15:49:06Z</time>
      </trkpt>
      <trkpt lat="39.6017610" lon="-7.5321410">
        <ele>299.8</ele>
        <time>2019-07-10T15:49:07Z</time>
      </trkpt>
      <trkpt lat="39.6015270" lon="-7.5319850">
        <ele>299.2</ele>
        <time>2019-07-10T15:49:10Z</time>
      </trkpt>
      <trkpt lat="39.6013120" lon="-7.5318300">
        <ele>298.8</ele>
        <time>2019-07-10T15:49:13Z</time>
      </trkpt>
      <trkpt lat="39.6008660" lon="-7.5315140">
        <ele>298.0</ele>
        <time>2019-07-10T15:49:20Z</time>
      </trkpt>
      <trkpt lat="39.6005580" lon="-7.5312880">
        <ele>298.4</ele>
        <time>2019-07-10T15:49:26Z</time>
      </trkpt>
      <trkpt lat="39.6004250" lon="-7.5311960">
        <ele>298.6</ele>
        <time>2019-07-10T15:49:29Z</time>
      </trkpt>
      <trkpt lat="39.6003450" lon="-7.5311340">
        <ele>298.8</ele>
        <time>2019-07-10T15:49:31Z</time>
      </trkpt>
      <trkpt lat="39.6002850" lon="-7.5310880">
        <ele>298.8</ele>
        <time>2019-07-10T15:49:33Z</time>
      </trkpt>
      <trkpt lat="39.6001850" lon="-7.5309810">
        <ele>299.2</ele>
        <time>2019-07-10T15:49:37Z</time>
      </trkpt>
      <trkpt lat="39.6001350" lon="-7.5309250">
        <ele>299.4</ele>
        <time>2019-07-10T15:49:39Z</time>
      </trkpt>
      <trkpt lat="39.5999800" lon="-7.5307680">
        <ele>299.2</ele>
        <time>2019-07-10T15:49:45Z</time>
      </trkpt>
      <trkpt lat="39.5998990" lon="-7.5308370">
        <ele>299.2</ele>
        <time>2019-07-10T15:49:48Z</time>
      </trkpt>
      <trkpt lat="39.5998720" lon="-7.5309070">
        <ele>299.6</ele>
        <time>2019-07-10T15:49:50Z</time>
      </trkpt>
      <trkpt lat="39.5998500" lon="-7.5309650">
        <ele>299.8</ele>
        <time>2019-07-10T15:49:52Z</time>
      </trkpt>
      <trkpt lat="39.5998370" lon="-7.5309920">
        <ele>300.0</ele>
        <time>2019-07-10T15:49:53Z</time>
      </trkpt>
      <trkpt lat="39.5998240" lon="-7.5310190">
        <ele>300.4</ele>
        <time>2019-07-10T15:49:54Z</time>
      </trkpt>
      <trkpt lat="39.5997970" lon="-7.5311140">
        <ele>301.0</ele>
        <time>2019-07-10T15:49:57Z</time>
      </trkpt>
      <trkpt lat="39.5997780" lon="-7.5311780">
        <ele>301.4</ele>
        <time>2019-07-10T15:49:59Z</time>
      </trkpt>
      <trkpt lat="39.5997680" lon="-7.5312100">
        <ele>301.6</ele>
        <time>2019-07-10T15:50:00Z</time>
      </trkpt>
      <trkpt lat="39.5997450" lon="-7.5312730">
        <ele>302.2</ele>
        <time>2019-07-10T15:50:02Z</time>
      </trkpt>
      <trkpt lat="39.5997240" lon="-7.5313410">
        <ele>302.8</ele>
        <time>2019-07-10T15:50:04Z</time>
      </trkpt>
      <trkpt lat="39.5997000" lon="-7.5314140">
        <ele>303.2</ele>
        <time>2019-07-10T15:50:06Z</time>
      </trkpt>
      <trkpt lat="39.5996600" lon="-7.5315230">
        <ele>303.8</ele>
        <time>2019-07-10T15:50:09Z</time>
      </trkpt>
      <trkpt lat="39.5996270" lon="-7.5316410">
        <ele>304.6</ele>
        <time>2019-07-10T15:50:12Z</time>
      </trkpt>
      <trkpt lat="39.5995930" lon="-7.5317570">
        <ele>304.8</ele>
        <time>2019-07-10T15:50:15Z</time>
      </trkpt>
      <trkpt lat="39.5995540" lon="-7.5319130">
        <ele>305.6</ele>
        <time>2019-07-10T15:50:19Z</time>
      </trkpt>
      <trkpt lat="39.5995280" lon="-7.5319860">
        <ele>305.8</ele>
        <time>2019-07-10T15:50:21Z</time>
      </trkpt>
      <trkpt lat="39.5994930" lon="-7.5320510">
        <ele>306.0</ele>
        <time>2019-07-10T15:50:23Z</time>
      </trkpt>
      <trkpt lat="39.5993490" lon="-7.5321390">
        <ele>307.0</ele>
        <time>2019-07-10T15:50:28Z</time>
      </trkpt>
      <trkpt lat="39.5991400" lon="-7.5321450">
        <ele>308.0</ele>
        <time>2019-07-10T15:50:34Z</time>
      </trkpt>
      <trkpt lat="39.5991060" lon="-7.5321490">
        <ele>308.2</ele>
        <time>2019-07-10T15:50:35Z</time>
      </trkpt>
      <trkpt lat="39.5988900" lon="-7.5321690">
        <ele>309.2</ele>
        <time>2019-07-10T15:50:41Z</time>
      </trkpt>
      <trkpt lat="39.5987790" lon="-7.5321860">
        <ele>309.6</ele>
        <time>2019-07-10T15:50:44Z</time>
      </trkpt>
      <trkpt lat="39.5985910" lon="-7.5321970">
        <ele>310.4</ele>
        <time>2019-07-10T15:50:49Z</time>
      </trkpt>
      <trkpt lat="39.5984410" lon="-7.5321940">
        <ele>311.2</ele>
        <time>2019-07-10T15:50:53Z</time>
      </trkpt>
      <trkpt lat="39.5983320" lon="-7.5322180">
        <ele>311.4</ele>
        <time>2019-07-10T15:50:56Z</time>
      </trkpt>
      <trkpt lat="39.5981900" lon="-7.5322450">
        <ele>311.8</ele>
        <time>2019-07-10T15:51:00Z</time>
      </trkpt>
      <trkpt lat="39.5980510" lon="-7.5322650">
        <ele>312.6</ele>
        <time>2019-07-10T15:51:04Z</time>
      </trkpt>
      <trkpt lat="39.5979940" lon="-7.5322920">
        <ele>313.0</ele>
        <time>2019-07-10T15:51:06Z</time>
      </trkpt>
      <trkpt lat="39.5979080" lon="-7.5323350">
        <ele>313.2</ele>
        <time>2019-07-10T15:51:09Z</time>
      </trkpt>
      <trkpt lat="39.5978450" lon="-7.5323580">
        <ele>313.4</ele>
        <time>2019-07-10T15:51:11Z</time>
      </trkpt>
      <trkpt lat="39.5978160" lon="-7.5323810">
        <ele>313.6</ele>
        <time>2019-07-10T15:51:12Z</time>
      </trkpt>
      <trkpt lat="39.5977350" lon="-7.5325260">
        <ele>314.0</ele>
        <time>2019-07-10T15:51:16Z</time>
      </trkpt>
      <trkpt lat="39.5976960" lon="-7.5326650">
        <ele>314.0</ele>
        <time>2019-07-10T15:51:19Z</time>
      </trkpt>
      <trkpt lat="39.5976650" lon="-7.5328160">
        <ele>313.8</ele>
        <time>2019-07-10T15:51:22Z</time>
      </trkpt>
      <trkpt lat="39.5976510" lon="-7.5328660">
        <ele>313.8</ele>
        <time>2019-07-10T15:51:23Z</time>
      </trkpt>
      <trkpt lat="39.5975860" lon="-7.5331510">
        <ele>313.8</ele>
        <time>2019-07-10T15:51:28Z</time>
      </trkpt>
      <trkpt lat="39.5975410" lon="-7.5333410">
        <ele>313.8</ele>
        <time>2019-07-10T15:51:31Z</time>
      </trkpt>
      <trkpt lat="39.5974580" lon="-7.5336660">
        <ele>313.8</ele>
        <time>2019-07-10T15:51:36Z</time>
      </trkpt>
      <trkpt lat="39.5973340" lon="-7.5341430">
        <ele>313.8</ele>
        <time>2019-07-10T15:51:43Z</time>
      </trkpt>
      <trkpt lat="39.5972810" lon="-7.5343530">
        <ele>314.0</ele>
        <time>2019-07-10T15:51:46Z</time>
      </trkpt>
      <trkpt lat="39.5971430" lon="-7.5348720">
        <ele>313.8</ele>
        <time>2019-07-10T15:51:53Z</time>
      </trkpt>
      <trkpt lat="39.5971240" lon="-7.5349550">
        <ele>313.6</ele>
        <time>2019-07-10T15:51:54Z</time>
      </trkpt>
      <trkpt lat="39.5970800" lon="-7.5351340">
        <ele>313.2</ele>
        <time>2019-07-10T15:51:56Z</time>
      </trkpt>
      <trkpt lat="39.5969980" lon="-7.5354430">
        <ele>312.4</ele>
        <time>2019-07-10T15:51:59Z</time>
      </trkpt>
      <trkpt lat="39.5969400" lon="-7.5356780">
        <ele>311.0</ele>
        <time>2019-07-10T15:52:01Z</time>
      </trkpt>
      <trkpt lat="39.5968770" lon="-7.5359340">
        <ele>309.8</ele>
        <time>2019-07-10T15:52:03Z</time>
      </trkpt>
      <trkpt lat="39.5968430" lon="-7.5360670">
        <ele>309.0</ele>
        <time>2019-07-10T15:52:04Z</time>
      </trkpt>
      <trkpt lat="39.5968090" lon="-7.5362010">
        <ele>308.0</ele>
        <time>2019-07-10T15:52:05Z</time>
      </trkpt>
      <trkpt lat="39.5967400" lon="-7.5364720">
        <ele>306.8</ele>
        <time>2019-07-10T15:52:07Z</time>
      </trkpt>
      <trkpt lat="39.5966750" lon="-7.5367330">
        <ele>305.2</ele>
        <time>2019-07-10T15:52:09Z</time>
      </trkpt>
      <trkpt lat="39.5966150" lon="-7.5369730">
        <ele>304.8</ele>
        <time>2019-07-10T15:52:11Z</time>
      </trkpt>
      <trkpt lat="39.5965580" lon="-7.5371920">
        <ele>304.6</ele>
        <time>2019-07-10T15:52:13Z</time>
      </trkpt>
      <trkpt lat="39.5964850" lon="-7.5374940">
        <ele>304.8</ele>
        <time>2019-07-10T15:52:16Z</time>
      </trkpt>
      <trkpt lat="39.5964360" lon="-7.5376810">
        <ele>305.0</ele>
        <time>2019-07-10T15:52:18Z</time>
      </trkpt>
      <trkpt lat="39.5963890" lon="-7.5378640">
        <ele>305.6</ele>
        <time>2019-07-10T15:52:20Z</time>
      </trkpt>
      <trkpt lat="39.5962980" lon="-7.5382110">
        <ele>306.2</ele>
        <time>2019-07-10T15:52:24Z</time>
      </trkpt>
      <trkpt lat="39.5961210" lon="-7.5387680">
        <ele>306.6</ele>
        <time>2019-07-10T15:52:31Z</time>
      </trkpt>
      <trkpt lat="39.5960080" lon="-7.5391220">
        <ele>306.0</ele>
        <time>2019-07-10T15:52:35Z</time>
      </trkpt>
      <trkpt lat="39.5959390" lon="-7.5393220">
        <ele>305.4</ele>
        <time>2019-07-10T15:52:37Z</time>
      </trkpt>
      <trkpt lat="39.5959040" lon="-7.5394310">
        <ele>305.0</ele>
        <time>2019-07-10T15:52:38Z</time>
      </trkpt>
      <trkpt lat="39.5958320" lon="-7.5396630">
        <ele>303.6</ele>
        <time>2019-07-10T15:52:40Z</time>
      </trkpt>
      <trkpt lat="39.5957540" lon="-7.5399140">
        <ele>302.2</ele>
        <time>2019-07-10T15:52:42Z</time>
      </trkpt>
      <trkpt lat="39.5956710" lon="-7.5401780">
        <ele>300.4</ele>
        <time>2019-07-10T15:52:44Z</time>
      </trkpt>
      <trkpt lat="39.5955820" lon="-7.5404500">
        <ele>299.0</ele>
        <time>2019-07-10T15:52:46Z</time>
      </trkpt>
      <trkpt lat="39.5954930" lon="-7.5407240">
        <ele>297.0</ele>
        <time>2019-07-10T15:52:48Z</time>
      </trkpt>
      <trkpt lat="39.5954520" lon="-7.5408560">
        <ele>296.2</ele>
        <time>2019-07-10T15:52:49Z</time>
      </trkpt>
      <trkpt lat="39.5954110" lon="-7.5409860">
        <ele>294.8</ele>
        <time>2019-07-10T15:52:50Z</time>
      </trkpt>
      <trkpt lat="39.5953330" lon="-7.5412450">
        <ele>293.2</ele>
        <time>2019-07-10T15:52:52Z</time>
      </trkpt>
      <trkpt lat="39.5952630" lon="-7.5415120">
        <ele>291.6</ele>
        <time>2019-07-10T15:52:54Z</time>
      </trkpt>
      <trkpt lat="39.5952390" lon="-7.5416550">
        <ele>290.8</ele>
        <time>2019-07-10T15:52:55Z</time>
      </trkpt>
      <trkpt lat="39.5952270" lon="-7.5418060">
        <ele>290.4</ele>
        <time>2019-07-10T15:52:56Z</time>
      </trkpt>
      <trkpt lat="39.5952240" lon="-7.5421130">
        <ele>288.6</ele>
        <time>2019-07-10T15:52:58Z</time>
      </trkpt>
      <trkpt lat="39.5952280" lon="-7.5422670">
        <ele>287.8</ele>
        <time>2019-07-10T15:52:59Z</time>
      </trkpt>
      <trkpt lat="39.5952330" lon="-7.5424190">
        <ele>287.2</ele>
        <time>2019-07-10T15:53:00Z</time>
      </trkpt>
      <trkpt lat="39.5952380" lon="-7.5427090">
        <ele>286.2</ele>
        <time>2019-07-10T15:53:02Z</time>
      </trkpt>
      <trkpt lat="39.5952420" lon="-7.5429710">
        <ele>285.8</ele>
        <time>2019-07-10T15:53:04Z</time>
      </trkpt>
      <trkpt lat="39.5952550" lon="-7.5433950">
        <ele>286.6</ele>
        <time>2019-07-10T15:53:08Z</time>
      </trkpt>
      <trkpt lat="39.5952560" lon="-7.5434840">
        <ele>287.2</ele>
        <time>2019-07-10T15:53:09Z</time>
      </trkpt>
      <trkpt lat="39.5952570" lon="-7.5437200">
        <ele>288.4</ele>
        <time>2019-07-10T15:53:12Z</time>
      </trkpt>
      <trkpt lat="39.5952550" lon="-7.5437910">
        <ele>288.6</ele>
        <time>2019-07-10T15:53:13Z</time>
      </trkpt>
      <trkpt lat="39.5952480" lon="-7.5440550">
        <ele>289.6</ele>
        <time>2019-07-10T15:53:17Z</time>
      </trkpt>
      <trkpt lat="39.5952320" lon="-7.5442610">
        <ele>289.8</ele>
        <time>2019-07-10T15:53:20Z</time>
      </trkpt>
      <trkpt lat="39.5951640" lon="-7.5447540">
        <ele>289.4</ele>
        <time>2019-07-10T15:53:26Z</time>
      </trkpt>
      <trkpt lat="39.5951120" lon="-7.5451490">
        <ele>288.2</ele>
        <time>2019-07-10T15:53:30Z</time>
      </trkpt>
      <trkpt lat="39.5950690" lon="-7.5454680">
        <ele>287.2</ele>
        <time>2019-07-10T15:53:33Z</time>
      </trkpt>
      <trkpt lat="39.5950540" lon="-7.5455770">
        <ele>287.0</ele>
        <time>2019-07-10T15:53:34Z</time>
      </trkpt>
      <trkpt lat="39.5950080" lon="-7.5459070">
        <ele>285.8</ele>
        <time>2019-07-10T15:53:37Z</time>
      </trkpt>
      <trkpt lat="39.5949560" lon="-7.5462430">
        <ele>284.4</ele>
        <time>2019-07-10T15:53:40Z</time>
      </trkpt>
      <trkpt lat="39.5949400" lon="-7.5463570">
        <ele>284.0</ele>
        <time>2019-07-10T15:53:41Z</time>
      </trkpt>
      <trkpt lat="39.5949090" lon="-7.5465880">
        <ele>283.0</ele>
        <time>2019-07-10T15:53:43Z</time>
      </trkpt>
      <trkpt lat="39.5948510" lon="-7.5469330">
        <ele>281.8</ele>
        <time>2019-07-10T15:53:46Z</time>
      </trkpt>
      <trkpt lat="39.5947810" lon="-7.5472840">
        <ele>280.6</ele>
        <time>2019-07-10T15:53:49Z</time>
      </trkpt>
      <trkpt lat="39.5947000" lon="-7.5476330">
        <ele>279.6</ele>
        <time>2019-07-10T15:53:52Z</time>
      </trkpt>
      <trkpt lat="39.5946730" lon="-7.5477480">
        <ele>279.4</ele>
        <time>2019-07-10T15:53:53Z</time>
      </trkpt>
      <trkpt lat="39.5946010" lon="-7.5480990">
        <ele>278.2</ele>
        <time>2019-07-10T15:53:56Z</time>
      </trkpt>
      <trkpt lat="39.5945510" lon="-7.5483360">
        <ele>277.4</ele>
        <time>2019-07-10T15:53:58Z</time>
      </trkpt>
      <trkpt lat="39.5945240" lon="-7.5484550">
        <ele>277.0</ele>
        <time>2019-07-10T15:53:59Z</time>
      </trkpt>
      <trkpt lat="39.5944690" lon="-7.5486960">
        <ele>275.8</ele>
        <time>2019-07-10T15:54:01Z</time>
      </trkpt>
      <trkpt lat="39.5944130" lon="-7.5489410">
        <ele>274.6</ele>
        <time>2019-07-10T15:54:03Z</time>
      </trkpt>
      <trkpt lat="39.5943580" lon="-7.5491880">
        <ele>273.6</ele>
        <time>2019-07-10T15:54:05Z</time>
      </trkpt>
      <trkpt lat="39.5942750" lon="-7.5495650">
        <ele>272.2</ele>
        <time>2019-07-10T15:54:08Z</time>
      </trkpt>
      <trkpt lat="39.5942150" lon="-7.5498200">
        <ele>271.2</ele>
        <time>2019-07-10T15:54:10Z</time>
      </trkpt>
      <trkpt lat="39.5941180" lon="-7.5502060">
        <ele>269.8</ele>
        <time>2019-07-10T15:54:13Z</time>
      </trkpt>
      <trkpt lat="39.5940360" lon="-7.5504580">
        <ele>268.8</ele>
        <time>2019-07-10T15:54:15Z</time>
      </trkpt>
      <trkpt lat="39.5939870" lon="-7.5505810">
        <ele>268.2</ele>
        <time>2019-07-10T15:54:16Z</time>
      </trkpt>
      <trkpt lat="39.5937940" lon="-7.5510210">
        <ele>267.2</ele>
        <time>2019-07-10T15:54:20Z</time>
      </trkpt>
      <trkpt lat="39.5936470" lon="-7.5513470">
        <ele>268.2</ele>
        <time>2019-07-10T15:54:24Z</time>
      </trkpt>
      <trkpt lat="39.5936180" lon="-7.5514170">
        <ele>268.4</ele>
        <time>2019-07-10T15:54:25Z</time>
      </trkpt>
      <trkpt lat="39.5935910" lon="-7.5514820">
        <ele>269.0</ele>
        <time>2019-07-10T15:54:26Z</time>
      </trkpt>
      <trkpt lat="39.5935660" lon="-7.5515430">
        <ele>269.2</ele>
        <time>2019-07-10T15:54:27Z</time>
      </trkpt>
      <trkpt lat="39.5935420" lon="-7.5516010">
        <ele>269.6</ele>
        <time>2019-07-10T15:54:28Z</time>
      </trkpt>
      <trkpt lat="39.5935160" lon="-7.5516560">
        <ele>269.8</ele>
        <time>2019-07-10T15:54:29Z</time>
      </trkpt>
      <trkpt lat="39.5934910" lon="-7.5517090">
        <ele>270.2</ele>
        <time>2019-07-10T15:54:30Z</time>
      </trkpt>
      <trkpt lat="39.5934680" lon="-7.5517600">
        <ele>270.4</ele>
        <time>2019-07-10T15:54:31Z</time>
      </trkpt>
      <trkpt lat="39.5934450" lon="-7.5518110">
        <ele>270.6</ele>
        <time>2019-07-10T15:54:32Z</time>
      </trkpt>
      <trkpt lat="39.5933830" lon="-7.5519620">
        <ele>271.4</ele>
        <time>2019-07-10T15:54:35Z</time>
      </trkpt>
      <trkpt lat="39.5933610" lon="-7.5520100">
        <ele>271.8</ele>
        <time>2019-07-10T15:54:36Z</time>
      </trkpt>
      <trkpt lat="39.5933390" lon="-7.5520570">
        <ele>272.0</ele>
        <time>2019-07-10T15:54:37Z</time>
      </trkpt>
      <trkpt lat="39.5933190" lon="-7.5521050">
        <ele>272.4</ele>
        <time>2019-07-10T15:54:38Z</time>
      </trkpt>
      <trkpt lat="39.5932790" lon="-7.5522000">
        <ele>273.0</ele>
        <time>2019-07-10T15:54:40Z</time>
      </trkpt>
      <trkpt lat="39.5932330" lon="-7.5522880">
        <ele>273.6</ele>
        <time>2019-07-10T15:54:42Z</time>
      </trkpt>
      <trkpt lat="39.5931880" lon="-7.5523780">
        <ele>274.0</ele>
        <time>2019-07-10T15:54:44Z</time>
      </trkpt>
      <trkpt lat="39.5931510" lon="-7.5524690">
        <ele>274.6</ele>
        <time>2019-07-10T15:54:46Z</time>
      </trkpt>
      <trkpt lat="39.5931140" lon="-7.5525580">
        <ele>275.0</ele>
        <time>2019-07-10T15:54:48Z</time>
      </trkpt>
      <trkpt lat="39.5930960" lon="-7.5526020">
        <ele>275.4</ele>
        <time>2019-07-10T15:54:49Z</time>
      </trkpt>
      <trkpt lat="39.5930390" lon="-7.5527270">
        <ele>276.4</ele>
        <time>2019-07-10T15:54:52Z</time>
      </trkpt>
      <trkpt lat="39.5930180" lon="-7.5527680">
        <ele>276.6</ele>
        <time>2019-07-10T15:54:53Z</time>
      </trkpt>
      <trkpt lat="39.5929450" lon="-7.5529380">
        <ele>277.2</ele>
        <time>2019-07-10T15:54:57Z</time>
      </trkpt>
      <trkpt lat="39.5929080" lon="-7.5530140">
        <ele>277.8</ele>
        <time>2019-07-10T15:54:59Z</time>
      </trkpt>
      <trkpt lat="39.5928360" lon="-7.5531570">
        <ele>278.6</ele>
        <time>2019-07-10T15:55:03Z</time>
      </trkpt>
      <trkpt lat="39.5928200" lon="-7.5531950">
        <ele>279.0</ele>
        <time>2019-07-10T15:55:04Z</time>
      </trkpt>
      <trkpt lat="39.5927730" lon="-7.5533070">
        <ele>279.6</ele>
        <time>2019-07-10T15:55:07Z</time>
      </trkpt>
      <trkpt lat="39.5927430" lon="-7.5533810">
        <ele>280.0</ele>
        <time>2019-07-10T15:55:09Z</time>
      </trkpt>
      <trkpt lat="39.5926620" lon="-7.5535660">
        <ele>281.4</ele>
        <time>2019-07-10T15:55:14Z</time>
      </trkpt>
      <trkpt lat="39.5926260" lon="-7.5536390">
        <ele>281.8</ele>
        <time>2019-07-10T15:55:16Z</time>
      </trkpt>
      <trkpt lat="39.5925760" lon="-7.5537480">
        <ele>282.4</ele>
        <time>2019-07-10T15:55:19Z</time>
      </trkpt>
      <trkpt lat="39.5924890" lon="-7.5539300">
        <ele>283.6</ele>
        <time>2019-07-10T15:55:24Z</time>
      </trkpt>
      <trkpt lat="39.5924740" lon="-7.5539670">
        <ele>283.8</ele>
        <time>2019-07-10T15:55:25Z</time>
      </trkpt>
      <trkpt lat="39.5924080" lon="-7.5541030">
        <ele>284.6</ele>
        <time>2019-07-10T15:55:29Z</time>
      </trkpt>
      <trkpt lat="39.5923310" lon="-7.5542810">
        <ele>285.8</ele>
        <time>2019-07-10T15:55:34Z</time>
      </trkpt>
      <trkpt lat="39.5922300" lon="-7.5544960">
        <ele>287.0</ele>
        <time>2019-07-10T15:55:40Z</time>
      </trkpt>
      <trkpt lat="39.5921750" lon="-7.5546100">
        <ele>287.4</ele>
        <time>2019-07-10T15:55:43Z</time>
      </trkpt>
      <trkpt lat="39.5920320" lon="-7.5548660">
        <ele>287.6</ele>
        <time>2019-07-10T15:55:49Z</time>
      </trkpt>
      <trkpt lat="39.5920030" lon="-7.5549140">
        <ele>287.6</ele>
        <time>2019-07-10T15:55:50Z</time>
      </trkpt>
      <trkpt lat="39.5919030" lon="-7.5550760">
        <ele>287.4</ele>
        <time>2019-07-10T15:55:53Z</time>
      </trkpt>
      <trkpt lat="39.5917780" lon="-7.5552690">
        <ele>286.6</ele>
        <time>2019-07-10T15:55:56Z</time>
      </trkpt>
      <trkpt lat="39.5916850" lon="-7.5554130">
        <ele>286.0</ele>
        <time>2019-07-10T15:55:58Z</time>
      </trkpt>
      <trkpt lat="39.5916360" lon="-7.5554910">
        <ele>285.4</ele>
        <time>2019-07-10T15:55:59Z</time>
      </trkpt>
      <trkpt lat="39.5915850" lon="-7.5555710">
        <ele>285.2</ele>
        <time>2019-07-10T15:56:00Z</time>
      </trkpt>
      <trkpt lat="39.5914780" lon="-7.5557350">
        <ele>284.2</ele>
        <time>2019-07-10T15:56:02Z</time>
      </trkpt>
      <trkpt lat="39.5913670" lon="-7.5559050">
        <ele>283.6</ele>
        <time>2019-07-10T15:56:04Z</time>
      </trkpt>
      <trkpt lat="39.5913090" lon="-7.5559910">
        <ele>283.2</ele>
        <time>2019-07-10T15:56:05Z</time>
      </trkpt>
      <trkpt lat="39.5911930" lon="-7.5561720">
        <ele>282.0</ele>
        <time>2019-07-10T15:56:07Z</time>
      </trkpt>
      <trkpt lat="39.5910840" lon="-7.5563670">
        <ele>281.0</ele>
        <time>2019-07-10T15:56:09Z</time>
      </trkpt>
      <trkpt lat="39.5910400" lon="-7.5564760">
        <ele>280.4</ele>
        <time>2019-07-10T15:56:10Z</time>
      </trkpt>
      <trkpt lat="39.5909930" lon="-7.5567100">
        <ele>279.4</ele>
        <time>2019-07-10T15:56:12Z</time>
      </trkpt>
      <trkpt lat="39.5910260" lon="-7.5570590">
        <ele>278.6</ele>
        <time>2019-07-10T15:56:15Z</time>
      </trkpt>
      <trkpt lat="39.5911560" lon="-7.5573220">
        <ele>278.4</ele>
        <time>2019-07-10T15:56:18Z</time>
      </trkpt>
      <trkpt lat="39.5912650" lon="-7.5574460">
        <ele>278.4</ele>
        <time>2019-07-10T15:56:20Z</time>
      </trkpt>
      <trkpt lat="39.5913670" lon="-7.5575430">
        <ele>278.4</ele>
        <time>2019-07-10T15:56:22Z</time>
      </trkpt>
      <trkpt lat="39.5916070" lon="-7.5577400">
        <ele>279.8</ele>
        <time>2019-07-10T15:56:27Z</time>
      </trkpt>
      <trkpt lat="39.5916990" lon="-7.5578130">
        <ele>280.2</ele>
        <time>2019-07-10T15:56:29Z</time>
      </trkpt>
      <trkpt lat="39.5917900" lon="-7.5578900">
        <ele>280.4</ele>
        <time>2019-07-10T15:56:31Z</time>
      </trkpt>
      <trkpt lat="39.5918780" lon="-7.5579720">
        <ele>280.8</ele>
        <time>2019-07-10T15:56:33Z</time>
      </trkpt>
      <trkpt lat="39.5919620" lon="-7.5580470">
        <ele>281.4</ele>
        <time>2019-07-10T15:56:35Z</time>
      </trkpt>
      <trkpt lat="39.5920040" lon="-7.5580830">
        <ele>281.6</ele>
        <time>2019-07-10T15:56:36Z</time>
      </trkpt>
      <trkpt lat="39.5921300" lon="-7.5581980">
        <ele>282.2</ele>
        <time>2019-07-10T15:56:39Z</time>
      </trkpt>
      <trkpt lat="39.5922130" lon="-7.5582770">
        <ele>282.8</ele>
        <time>2019-07-10T15:56:41Z</time>
      </trkpt>
      <trkpt lat="39.5922990" lon="-7.5583500">
        <ele>283.2</ele>
        <time>2019-07-10T15:56:43Z</time>
      </trkpt>
      <trkpt lat="39.5923410" lon="-7.5583850">
        <ele>283.2</ele>
        <time>2019-07-10T15:56:44Z</time>
      </trkpt>
      <trkpt lat="39.5924630" lon="-7.5584860">
        <ele>284.0</ele>
        <time>2019-07-10T15:56:47Z</time>
      </trkpt>
      <trkpt lat="39.5925800" lon="-7.5585920">
        <ele>284.4</ele>
        <time>2019-07-10T15:56:50Z</time>
      </trkpt>
      <trkpt lat="39.5927240" lon="-7.5587430">
        <ele>285.0</ele>
        <time>2019-07-10T15:56:54Z</time>
      </trkpt>
      <trkpt lat="39.5927560" lon="-7.5587790">
        <ele>285.2</ele>
        <time>2019-07-10T15:56:55Z</time>
      </trkpt>
      <trkpt lat="39.5928170" lon="-7.5588580">
        <ele>285.4</ele>
        <time>2019-07-10T15:56:57Z</time>
      </trkpt>
      <trkpt lat="39.5928440" lon="-7.5589020">
        <ele>285.8</ele>
        <time>2019-07-10T15:56:58Z</time>
      </trkpt>
      <trkpt lat="39.5928720" lon="-7.5589440">
        <ele>286.0</ele>
        <time>2019-07-10T15:56:59Z</time>
      </trkpt>
      <trkpt lat="39.5929370" lon="-7.5590180">
        <ele>286.2</ele>
        <time>2019-07-10T15:57:01Z</time>
      </trkpt>
      <trkpt lat="39.5930020" lon="-7.5590840">
        <ele>286.4</ele>
        <time>2019-07-10T15:57:03Z</time>
      </trkpt>
      <trkpt lat="39.5930320" lon="-7.5591230">
        <ele>286.6</ele>
        <time>2019-07-10T15:57:04Z</time>
      </trkpt>
      <trkpt lat="39.5931150" lon="-7.5592500">
        <ele>287.0</ele>
        <time>2019-07-10T15:57:07Z</time>
      </trkpt>
      <trkpt lat="39.5931740" lon="-7.5593340">
        <ele>287.2</ele>
        <time>2019-07-10T15:57:09Z</time>
      </trkpt>
      <trkpt lat="39.5932370" lon="-7.5594130">
        <ele>287.6</ele>
        <time>2019-07-10T15:57:11Z</time>
      </trkpt>
      <trkpt lat="39.5933550" lon="-7.5595680">
        <ele>288.4</ele>
        <time>2019-07-10T15:57:15Z</time>
      </trkpt>
      <trkpt lat="39.5934320" lon="-7.5596990">
        <ele>288.8</ele>
        <time>2019-07-10T15:57:18Z</time>
      </trkpt>
      <trkpt lat="39.5935230" lon="-7.5598800">
        <ele>289.4</ele>
        <time>2019-07-10T15:57:22Z</time>
      </trkpt>
      <trkpt lat="39.5935940" lon="-7.5600090">
        <ele>290.0</ele>
        <time>2019-07-10T15:57:25Z</time>
      </trkpt>
      <trkpt lat="39.5936660" lon="-7.5601910">
        <ele>290.6</ele>
        <time>2019-07-10T15:57:29Z</time>
      </trkpt>
      <trkpt lat="39.5937330" lon="-7.5603570">
        <ele>291.4</ele>
        <time>2019-07-10T15:57:33Z</time>
      </trkpt>
      <trkpt lat="39.5937490" lon="-7.5603970">
        <ele>291.8</ele>
        <time>2019-07-10T15:57:34Z</time>
      </trkpt>
      <trkpt lat="39.5938580" lon="-7.5606650">
        <ele>292.6</ele>
        <time>2019-07-10T15:57:41Z</time>
      </trkpt>
      <trkpt lat="39.5938710" lon="-7.5607040">
        <ele>292.8</ele>
        <time>2019-07-10T15:57:42Z</time>
      </trkpt>
      <trkpt lat="39.5939480" lon="-7.5608960">
        <ele>293.8</ele>
        <time>2019-07-10T15:57:47Z</time>
      </trkpt>
      <trkpt lat="39.5940170" lon="-7.5610870">
        <ele>295.0</ele>
        <time>2019-07-10T15:57:52Z</time>
      </trkpt>
      <trkpt lat="39.5940910" lon="-7.5612740">
        <ele>296.0</ele>
        <time>2019-07-10T15:57:57Z</time>
      </trkpt>
      <trkpt lat="39.5941600" lon="-7.5614650">
        <ele>297.2</ele>
        <time>2019-07-10T15:58:02Z</time>
      </trkpt>
      <trkpt lat="39.5942240" lon="-7.5616110">
        <ele>297.8</ele>
        <time>2019-07-10T15:58:06Z</time>
      </trkpt>
      <trkpt lat="39.5942520" lon="-7.5616890">
        <ele>298.0</ele>
        <time>2019-07-10T15:58:08Z</time>
      </trkpt>
      <trkpt lat="39.5943110" lon="-7.5618430">
        <ele>299.2</ele>
        <time>2019-07-10T15:58:12Z</time>
      </trkpt>
      <trkpt lat="39.5943410" lon="-7.5619230">
        <ele>299.6</ele>
        <time>2019-07-10T15:58:14Z</time>
      </trkpt>
      <trkpt lat="39.5943870" lon="-7.5620480">
        <ele>300.2</ele>
        <time>2019-07-10T15:58:17Z</time>
      </trkpt>
      <trkpt lat="39.5944360" lon="-7.5621750">
        <ele>301.2</ele>
        <time>2019-07-10T15:58:20Z</time>
      </trkpt>
      <trkpt lat="39.5944860" lon="-7.5622910">
        <ele>301.8</ele>
        <time>2019-07-10T15:58:23Z</time>
      </trkpt>
      <trkpt lat="39.5945190" lon="-7.5623720">
        <ele>302.4</ele>
        <time>2019-07-10T15:58:25Z</time>
      </trkpt>
      <trkpt lat="39.5945820" lon="-7.5625240">
        <ele>303.4</ele>
        <time>2019-07-10T15:58:29Z</time>
      </trkpt>
      <trkpt lat="39.5946250" lon="-7.5626440">
        <ele>304.2</ele>
        <time>2019-07-10T15:58:32Z</time>
      </trkpt>
      <trkpt lat="39.5946540" lon="-7.5627230">
        <ele>304.6</ele>
        <time>2019-07-10T15:58:34Z</time>
      </trkpt>
      <trkpt lat="39.5947140" lon="-7.5628780">
        <ele>305.8</ele>
        <time>2019-07-10T15:58:38Z</time>
      </trkpt>
      <trkpt lat="39.5947290" lon="-7.5629170">
        <ele>306.0</ele>
        <time>2019-07-10T15:58:39Z</time>
      </trkpt>
      <trkpt lat="39.5947710" lon="-7.5630370">
        <ele>307.0</ele>
        <time>2019-07-10T15:58:42Z</time>
      </trkpt>
      <trkpt lat="39.5948500" lon="-7.5632180">
        <ele>308.0</ele>
        <time>2019-07-10T15:58:47Z</time>
      </trkpt>
      <trkpt lat="39.5949360" lon="-7.5633980">
        <ele>309.0</ele>
        <time>2019-07-10T15:58:52Z</time>
      </trkpt>
      <trkpt lat="39.5949750" lon="-7.5634680">
        <ele>309.6</ele>
        <time>2019-07-10T15:58:54Z</time>
      </trkpt>
      <trkpt lat="39.5950180" lon="-7.5635330">
        <ele>310.0</ele>
        <time>2019-07-10T15:58:56Z</time>
      </trkpt>
      <trkpt lat="39.5951230" lon="-7.5636450">
        <ele>311.2</ele>
        <time>2019-07-10T15:59:00Z</time>
      </trkpt>
      <trkpt lat="39.5951510" lon="-7.5636710">
        <ele>311.4</ele>
        <time>2019-07-10T15:59:01Z</time>
      </trkpt>
      <trkpt lat="39.5952640" lon="-7.5637690">
        <ele>312.4</ele>
        <time>2019-07-10T15:59:05Z</time>
      </trkpt>
      <trkpt lat="39.5953520" lon="-7.5638430">
        <ele>313.4</ele>
        <time>2019-07-10T15:59:08Z</time>
      </trkpt>
      <trkpt lat="39.5954400" lon="-7.5639230">
        <ele>314.2</ele>
        <time>2019-07-10T15:59:11Z</time>
      </trkpt>
      <trkpt lat="39.5954710" lon="-7.5639500">
        <ele>314.6</ele>
        <time>2019-07-10T15:59:12Z</time>
      </trkpt>
      <trkpt lat="39.5955900" lon="-7.5640430">
        <ele>315.8</ele>
        <time>2019-07-10T15:59:16Z</time>
      </trkpt>
      <trkpt lat="39.5956420" lon="-7.5640900">
        <ele>316.2</ele>
        <time>2019-07-10T15:59:18Z</time>
      </trkpt>
      <trkpt lat="39.5957200" lon="-7.5641560">
        <ele>317.0</ele>
        <time>2019-07-10T15:59:21Z</time>
      </trkpt>
      <trkpt lat="39.5958530" lon="-7.5642620">
        <ele>318.2</ele>
        <time>2019-07-10T15:59:26Z</time>
      </trkpt>
      <trkpt lat="39.5958810" lon="-7.5642870">
        <ele>318.4</ele>
        <time>2019-07-10T15:59:27Z</time>
      </trkpt>
      <trkpt lat="39.5959960" lon="-7.5643910">
        <ele>319.2</ele>
        <time>2019-07-10T15:59:31Z</time>
      </trkpt>
      <trkpt lat="39.5961110" lon="-7.5644940">
        <ele>320.2</ele>
        <time>2019-07-10T15:59:35Z</time>
      </trkpt>
      <trkpt lat="39.5961410" lon="-7.5645220">
        <ele>320.4</ele>
        <time>2019-07-10T15:59:36Z</time>
      </trkpt>
      <trkpt lat="39.5963600" lon="-7.5647120">
        <ele>321.2</ele>
        <time>2019-07-10T15:59:43Z</time>
      </trkpt>
      <trkpt lat="39.5963910" lon="-7.5647400">
        <ele>321.4</ele>
        <time>2019-07-10T15:59:44Z</time>
      </trkpt>
      <trkpt lat="39.5965140" lon="-7.5648580">
        <ele>321.8</ele>
        <time>2019-07-10T15:59:48Z</time>
      </trkpt>
      <trkpt lat="39.5965780" lon="-7.5649140">
        <ele>322.0</ele>
        <time>2019-07-10T15:59:50Z</time>
      </trkpt>
      <trkpt lat="39.5966410" lon="-7.5649720">
        <ele>322.2</ele>
        <time>2019-07-10T15:59:52Z</time>
      </trkpt>
      <trkpt lat="39.5967340" lon="-7.5650680">
        <ele>322.8</ele>
        <time>2019-07-10T15:59:55Z</time>
      </trkpt>
      <trkpt lat="39.5968010" lon="-7.5651250">
        <ele>322.6</ele>
        <time>2019-07-10T15:59:57Z</time>
      </trkpt>
      <trkpt lat="39.5968970" lon="-7.5652080">
        <ele>323.0</ele>
        <time>2019-07-10T16:00:00Z</time>
      </trkpt>
      <trkpt lat="39.5969590" lon="-7.5652650">
        <ele>323.4</ele>
        <time>2019-07-10T16:00:02Z</time>
      </trkpt>
      <trkpt lat="39.5970150" lon="-7.5653310">
        <ele>323.4</ele>
        <time>2019-07-10T16:00:04Z</time>
      </trkpt>
      <trkpt lat="39.5971040" lon="-7.5654340">
        <ele>323.8</ele>
        <time>2019-07-10T16:00:07Z</time>
      </trkpt>
      <trkpt lat="39.5972320" lon="-7.5655880">
        <ele>324.2</ele>
        <time>2019-07-10T16:00:11Z</time>
      </trkpt>
      <trkpt lat="39.5974650" lon="-7.5659180">
        <ele>324.0</ele>
        <time>2019-07-10T16:00:18Z</time>
      </trkpt>
      <trkpt lat="39.5975210" lon="-7.5660250">
        <ele>324.0</ele>
        <time>2019-07-10T16:00:20Z</time>
      </trkpt>
      <trkpt lat="39.5976770" lon="-7.5663050">
        <ele>323.6</ele>
        <time>2019-07-10T16:00:25Z</time>
      </trkpt>
      <trkpt lat="39.5978040" lon="-7.5665370">
        <ele>323.6</ele>
        <time>2019-07-10T16:00:29Z</time>
      </trkpt>
      <trkpt lat="39.5979050" lon="-7.5667200">
        <ele>323.4</ele>
        <time>2019-07-10T16:00:32Z</time>
      </trkpt>
      <trkpt lat="39.5979430" lon="-7.5667820">
        <ele>323.2</ele>
        <time>2019-07-10T16:00:33Z</time>
      </trkpt>
      <trkpt lat="39.5982170" lon="-7.5672600">
        <ele>322.8</ele>
        <time>2019-07-10T16:00:40Z</time>
      </trkpt>
      <trkpt lat="39.5984190" lon="-7.5676390">
        <ele>322.2</ele>
        <time>2019-07-10T16:00:45Z</time>
      </trkpt>
      <trkpt lat="39.5984920" lon="-7.5678090">
        <ele>321.8</ele>
        <time>2019-07-10T16:00:47Z</time>
      </trkpt>
      <trkpt lat="39.5985930" lon="-7.5680800">
        <ele>321.0</ele>
        <time>2019-07-10T16:00:50Z</time>
      </trkpt>
      <trkpt lat="39.5986920" lon="-7.5683670">
        <ele>320.2</ele>
        <time>2019-07-10T16:00:53Z</time>
      </trkpt>
      <trkpt lat="39.5987250" lon="-7.5684670">
        <ele>320.0</ele>
        <time>2019-07-10T16:00:54Z</time>
      </trkpt>
      <trkpt lat="39.5987580" lon="-7.5685670">
        <ele>319.8</ele>
        <time>2019-07-10T16:00:55Z</time>
      </trkpt>
      <trkpt lat="39.5989270" lon="-7.5690690">
        <ele>318.8</ele>
        <time>2019-07-10T16:01:00Z</time>
      </trkpt>
      <trkpt lat="39.5990020" lon="-7.5692670">
        <ele>317.8</ele>
        <time>2019-07-10T16:01:02Z</time>
      </trkpt>
      <trkpt lat="39.5990440" lon="-7.5693620">
        <ele>317.4</ele>
        <time>2019-07-10T16:01:03Z</time>
      </trkpt>
      <trkpt lat="39.5991830" lon="-7.5696330">
        <ele>316.2</ele>
        <time>2019-07-10T16:01:06Z</time>
      </trkpt>
      <trkpt lat="39.5993310" lon="-7.5698860">
        <ele>315.4</ele>
        <time>2019-07-10T16:01:09Z</time>
      </trkpt>
      <trkpt lat="39.5994200" lon="-7.5700470">
        <ele>315.0</ele>
        <time>2019-07-10T16:01:11Z</time>
      </trkpt>
      <trkpt lat="39.5995100" lon="-7.5701970">
        <ele>314.6</ele>
        <time>2019-07-10T16:01:13Z</time>
      </trkpt>
      <trkpt lat="39.5995540" lon="-7.5702710">
        <ele>314.6</ele>
        <time>2019-07-10T16:01:14Z</time>
      </trkpt>
      <trkpt lat="39.5996960" lon="-7.5704790">
        <ele>314.4</ele>
        <time>2019-07-10T16:01:17Z</time>
      </trkpt>
      <trkpt lat="39.6000070" lon="-7.5707940">
        <ele>314.2</ele>
        <time>2019-07-10T16:01:23Z</time>
      </trkpt>
      <trkpt lat="39.6002070" lon="-7.5709780">
        <ele>314.6</ele>
        <time>2019-07-10T16:01:27Z</time>
      </trkpt>
      <trkpt lat="39.6004580" lon="-7.5711910">
        <ele>315.0</ele>
        <time>2019-07-10T16:01:32Z</time>
      </trkpt>
      <trkpt lat="39.6007440" lon="-7.5714460">
        <ele>315.6</ele>
        <time>2019-07-10T16:01:38Z</time>
      </trkpt>
      <trkpt lat="39.6010280" lon="-7.5716990">
        <ele>315.8</ele>
        <time>2019-07-10T16:01:44Z</time>
      </trkpt>
      <trkpt lat="39.6011590" lon="-7.5718420">
        <ele>316.2</ele>
        <time>2019-07-10T16:01:47Z</time>
      </trkpt>
      <trkpt lat="39.6011990" lon="-7.5718940">
        <ele>316.2</ele>
        <time>2019-07-10T16:01:48Z</time>
      </trkpt>
      <trkpt lat="39.6012630" lon="-7.5720100">
        <ele>316.2</ele>
        <time>2019-07-10T16:01:50Z</time>
      </trkpt>
      <trkpt lat="39.6014520" lon="-7.5724250">
        <ele>317.0</ele>
        <time>2019-07-10T16:01:57Z</time>
      </trkpt>
      <trkpt lat="39.6014740" lon="-7.5724830">
        <ele>317.2</ele>
        <time>2019-07-10T16:01:58Z</time>
      </trkpt>
      <trkpt lat="39.6015870" lon="-7.5727850">
        <ele>317.8</ele>
        <time>2019-07-10T16:02:03Z</time>
      </trkpt>
      <trkpt lat="39.6016110" lon="-7.5728440">
        <ele>317.8</ele>
        <time>2019-07-10T16:02:04Z</time>
      </trkpt>
      <trkpt lat="39.6017080" lon="-7.5730750">
        <ele>318.4</ele>
        <time>2019-07-10T16:02:08Z</time>
      </trkpt>
      <trkpt lat="39.6018590" lon="-7.5734210">
        <ele>319.2</ele>
        <time>2019-07-10T16:02:14Z</time>
      </trkpt>
      <trkpt lat="39.6019070" lon="-7.5735380">
        <ele>319.4</ele>
        <time>2019-07-10T16:02:16Z</time>
      </trkpt>
      <trkpt lat="39.6020690" lon="-7.5739380">
        <ele>320.4</ele>
        <time>2019-07-10T16:02:23Z</time>
      </trkpt>
      <trkpt lat="39.6020930" lon="-7.5739950">
        <ele>320.6</ele>
        <time>2019-07-10T16:02:24Z</time>
      </trkpt>
      <trkpt lat="39.6023420" lon="-7.5745720">
        <ele>321.0</ele>
        <time>2019-07-10T16:02:34Z</time>
      </trkpt>
      <trkpt lat="39.6024680" lon="-7.5748210">
        <ele>320.4</ele>
        <time>2019-07-10T16:02:38Z</time>
      </trkpt>
      <trkpt lat="39.6025670" lon="-7.5750230">
        <ele>319.8</ele>
        <time>2019-07-10T16:02:41Z</time>
      </trkpt>
      <trkpt lat="39.6026760" lon="-7.5752270">
        <ele>319.4</ele>
        <time>2019-07-10T16:02:44Z</time>
      </trkpt>
      <trkpt lat="39.6027520" lon="-7.5753680">
        <ele>319.2</ele>
        <time>2019-07-10T16:02:46Z</time>
      </trkpt>
      <trkpt lat="39.6028240" lon="-7.5755170">
        <ele>319.0</ele>
        <time>2019-07-10T16:02:48Z</time>
      </trkpt>
      <trkpt lat="39.6029040" lon="-7.5756650">
        <ele>318.6</ele>
        <time>2019-07-10T16:02:50Z</time>
      </trkpt>
      <trkpt lat="39.6029860" lon="-7.5758160">
        <ele>318.2</ele>
        <time>2019-07-10T16:02:52Z</time>
      </trkpt>
      <trkpt lat="39.6031090" lon="-7.5760490">
        <ele>317.8</ele>
        <time>2019-07-10T16:02:55Z</time>
      </trkpt>
      <trkpt lat="39.6031510" lon="-7.5761260">
        <ele>317.6</ele>
        <time>2019-07-10T16:02:56Z</time>
      </trkpt>
      <trkpt lat="39.6032340" lon="-7.5762840">
        <ele>317.4</ele>
        <time>2019-07-10T16:02:58Z</time>
      </trkpt>
      <trkpt lat="39.6032750" lon="-7.5763630">
        <ele>317.0</ele>
        <time>2019-07-10T16:02:59Z</time>
      </trkpt>
      <trkpt lat="39.6033920" lon="-7.5766080">
        <ele>316.6</ele>
        <time>2019-07-10T16:03:02Z</time>
      </trkpt>
      <trkpt lat="39.6034640" lon="-7.5767740">
        <ele>316.0</ele>
        <time>2019-07-10T16:03:04Z</time>
      </trkpt>
      <trkpt lat="39.6034990" lon="-7.5768560">
        <ele>315.8</ele>
        <time>2019-07-10T16:03:05Z</time>
      </trkpt>
      <trkpt lat="39.6035590" lon="-7.5770180">
        <ele>315.2</ele>
        <time>2019-07-10T16:03:07Z</time>
      </trkpt>
      <trkpt lat="39.6036670" lon="-7.5773470">
        <ele>314.8</ele>
        <time>2019-07-10T16:03:11Z</time>
      </trkpt>
      <trkpt lat="39.6037250" lon="-7.5775140">
        <ele>314.6</ele>
        <time>2019-07-10T16:03:13Z</time>
      </trkpt>
      <trkpt lat="39.6038090" lon="-7.5777660">
        <ele>314.4</ele>
        <time>2019-07-10T16:03:16Z</time>
      </trkpt>
      <trkpt lat="39.6040490" lon="-7.5784360">
        <ele>314.0</ele>
        <time>2019-07-10T16:03:24Z</time>
      </trkpt>
      <trkpt lat="39.6040810" lon="-7.5785190">
        <ele>314.0</ele>
        <time>2019-07-10T16:03:25Z</time>
      </trkpt>
      <trkpt lat="39.6041800" lon="-7.5787600">
        <ele>313.8</ele>
        <time>2019-07-10T16:03:28Z</time>
      </trkpt>
      <trkpt lat="39.6043670" lon="-7.5791350">
        <ele>313.4</ele>
        <time>2019-07-10T16:03:33Z</time>
      </trkpt>
      <trkpt lat="39.6046650" lon="-7.5797340">
        <ele>312.4</ele>
        <time>2019-07-10T16:03:41Z</time>
      </trkpt>
      <trkpt lat="39.6047740" lon="-7.5799630">
        <ele>312.2</ele>
        <time>2019-07-10T16:03:44Z</time>
      </trkpt>
      <trkpt lat="39.6049860" lon="-7.5805030">
        <ele>311.8</ele>
        <time>2019-07-10T16:03:51Z</time>
      </trkpt>
      <trkpt lat="39.6050150" lon="-7.5807440">
        <ele>311.6</ele>
        <time>2019-07-10T16:03:54Z</time>
      </trkpt>
      <trkpt lat="39.6050080" lon="-7.5809000">
        <ele>311.8</ele>
        <time>2019-07-10T16:03:56Z</time>
      </trkpt>
      <trkpt lat="39.6049600" lon="-7.5812560">
        <ele>312.0</ele>
        <time>2019-07-10T16:04:01Z</time>
      </trkpt>
      <trkpt lat="39.6049300" lon="-7.5813880">
        <ele>312.4</ele>
        <time>2019-07-10T16:04:03Z</time>
      </trkpt>
      <trkpt lat="39.6048930" lon="-7.5815870">
        <ele>313.0</ele>
        <time>2019-07-10T16:04:06Z</time>
      </trkpt>
      <trkpt lat="39.6048470" lon="-7.5818480">
        <ele>313.6</ele>
        <time>2019-07-10T16:04:10Z</time>
      </trkpt>
      <trkpt lat="39.6048230" lon="-7.5819840">
        <ele>313.6</ele>
        <time>2019-07-10T16:04:12Z</time>
      </trkpt>
      <trkpt lat="39.6047220" lon="-7.5825250">
        <ele>313.2</ele>
        <time>2019-07-10T16:04:19Z</time>
      </trkpt>
      <trkpt lat="39.6046860" lon="-7.5829720">
        <ele>312.4</ele>
        <time>2019-07-10T16:04:24Z</time>
      </trkpt>
      <trkpt lat="39.6047300" lon="-7.5832450">
        <ele>311.2</ele>
        <time>2019-07-10T16:04:27Z</time>
      </trkpt>
      <trkpt lat="39.6047570" lon="-7.5833300">
        <ele>311.0</ele>
        <time>2019-07-10T16:04:28Z</time>
      </trkpt>
      <trkpt lat="39.6048900" lon="-7.5836650">
        <ele>310.0</ele>
        <time>2019-07-10T16:04:32Z</time>
      </trkpt>
      <trkpt lat="39.6049600" lon="-7.5838460">
        <ele>309.6</ele>
        <time>2019-07-10T16:04:34Z</time>
      </trkpt>
      <trkpt lat="39.6050360" lon="-7.5840410">
        <ele>308.6</ele>
        <time>2019-07-10T16:04:36Z</time>
      </trkpt>
      <trkpt lat="39.6051190" lon="-7.5842480">
        <ele>307.4</ele>
        <time>2019-07-10T16:04:38Z</time>
      </trkpt>
      <trkpt lat="39.6052040" lon="-7.5844700">
        <ele>306.4</ele>
        <time>2019-07-10T16:04:40Z</time>
      </trkpt>
      <trkpt lat="39.6052750" lon="-7.5847180">
        <ele>305.2</ele>
        <time>2019-07-10T16:04:42Z</time>
      </trkpt>
      <trkpt lat="39.6053170" lon="-7.5849900">
        <ele>303.4</ele>
        <time>2019-07-10T16:04:44Z</time>
      </trkpt>
      <trkpt lat="39.6053530" lon="-7.5852740">
        <ele>302.0</ele>
        <time>2019-07-10T16:04:46Z</time>
      </trkpt>
      <trkpt lat="39.6053920" lon="-7.5855650">
        <ele>300.2</ele>
        <time>2019-07-10T16:04:48Z</time>
      </trkpt>
      <trkpt lat="39.6054280" lon="-7.5858660">
        <ele>298.4</ele>
        <time>2019-07-10T16:04:50Z</time>
      </trkpt>
      <trkpt lat="39.6054480" lon="-7.5860200">
        <ele>297.6</ele>
        <time>2019-07-10T16:04:51Z</time>
      </trkpt>
      <trkpt lat="39.6054700" lon="-7.5861770">
        <ele>297.0</ele>
        <time>2019-07-10T16:04:52Z</time>
      </trkpt>
      <trkpt lat="39.6055230" lon="-7.5864950">
        <ele>295.2</ele>
        <time>2019-07-10T16:04:54Z</time>
      </trkpt>
      <trkpt lat="39.6055510" lon="-7.5866570">
        <ele>294.0</ele>
        <time>2019-07-10T16:04:55Z</time>
      </trkpt>
      <trkpt lat="39.6056060" lon="-7.5869890">
        <ele>292.6</ele>
        <time>2019-07-10T16:04:57Z</time>
      </trkpt>
      <trkpt lat="39.6056640" lon="-7.5873270">
        <ele>290.4</ele>
        <time>2019-07-10T16:04:59Z</time>
      </trkpt>
      <trkpt lat="39.6057250" lon="-7.5876680">
        <ele>288.6</ele>
        <time>2019-07-10T16:05:01Z</time>
      </trkpt>
      <trkpt lat="39.6057540" lon="-7.5878390">
        <ele>287.4</ele>
        <time>2019-07-10T16:05:02Z</time>
      </trkpt>
      <trkpt lat="39.6058100" lon="-7.5881850">
        <ele>285.6</ele>
        <time>2019-07-10T16:05:04Z</time>
      </trkpt>
      <trkpt lat="39.6058670" lon="-7.5885290">
        <ele>283.4</ele>
        <time>2019-07-10T16:05:06Z</time>
      </trkpt>
      <trkpt lat="39.6058960" lon="-7.5886970">
        <ele>282.0</ele>
        <time>2019-07-10T16:05:07Z</time>
      </trkpt>
      <trkpt lat="39.6059240" lon="-7.5888640">
        <ele>281.2</ele>
        <time>2019-07-10T16:05:08Z</time>
      </trkpt>
      <trkpt lat="39.6059510" lon="-7.5890280">
        <ele>280.6</ele>
        <time>2019-07-10T16:05:09Z</time>
      </trkpt>
      <trkpt lat="39.6060070" lon="-7.5893470">
        <ele>279.4</ele>
        <time>2019-07-10T16:05:11Z</time>
      </trkpt>
      <trkpt lat="39.6060630" lon="-7.5896540">
        <ele>278.4</ele>
        <time>2019-07-10T16:05:13Z</time>
      </trkpt>
      <trkpt lat="39.6061140" lon="-7.5899500">
        <ele>277.6</ele>
        <time>2019-07-10T16:05:15Z</time>
      </trkpt>
      <trkpt lat="39.6061380" lon="-7.5900940">
        <ele>277.2</ele>
        <time>2019-07-10T16:05:16Z</time>
      </trkpt>
      <trkpt lat="39.6061820" lon="-7.5903760">
        <ele>276.0</ele>
        <time>2019-07-10T16:05:18Z</time>
      </trkpt>
      <trkpt lat="39.6062740" lon="-7.5909140">
        <ele>275.0</ele>
        <time>2019-07-10T16:05:22Z</time>
      </trkpt>
      <trkpt lat="39.6063400" lon="-7.5913000">
        <ele>273.8</ele>
        <time>2019-07-10T16:05:25Z</time>
      </trkpt>
      <trkpt lat="39.6064220" lon="-7.5917940">
        <ele>272.6</ele>
        <time>2019-07-10T16:05:29Z</time>
      </trkpt>
      <trkpt lat="39.6064440" lon="-7.5919130">
        <ele>272.4</ele>
        <time>2019-07-10T16:05:30Z</time>
      </trkpt>
      <trkpt lat="39.6065060" lon="-7.5922690">
        <ele>271.4</ele>
        <time>2019-07-10T16:05:33Z</time>
      </trkpt>
      <trkpt lat="39.6066020" lon="-7.5928460">
        <ele>270.4</ele>
        <time>2019-07-10T16:05:38Z</time>
      </trkpt>
      <trkpt lat="39.6066210" lon="-7.5929600">
        <ele>270.0</ele>
        <time>2019-07-10T16:05:39Z</time>
      </trkpt>
      <trkpt lat="39.6066960" lon="-7.5934100">
        <ele>269.0</ele>
        <time>2019-07-10T16:05:43Z</time>
      </trkpt>
      <trkpt lat="39.6067690" lon="-7.5938500">
        <ele>267.8</ele>
        <time>2019-07-10T16:05:47Z</time>
      </trkpt>
      <trkpt lat="39.6067880" lon="-7.5939570">
        <ele>267.6</ele>
        <time>2019-07-10T16:05:48Z</time>
      </trkpt>
      <trkpt lat="39.6068480" lon="-7.5942760">
        <ele>267.0</ele>
        <time>2019-07-10T16:05:51Z</time>
      </trkpt>
      <trkpt lat="39.6068850" lon="-7.5944890">
        <ele>266.4</ele>
        <time>2019-07-10T16:05:53Z</time>
      </trkpt>
      <trkpt lat="39.6069370" lon="-7.5948070">
        <ele>265.4</ele>
        <time>2019-07-10T16:05:56Z</time>
      </trkpt>
      <trkpt lat="39.6070420" lon="-7.5954390">
        <ele>264.0</ele>
        <time>2019-07-10T16:06:02Z</time>
      </trkpt>
      <trkpt lat="39.6071290" lon="-7.5959700">
        <ele>262.8</ele>
        <time>2019-07-10T16:06:07Z</time>
      </trkpt>
      <trkpt lat="39.6071970" lon="-7.5963940">
        <ele>261.8</ele>
        <time>2019-07-10T16:06:11Z</time>
      </trkpt>
      <trkpt lat="39.6072650" lon="-7.5969200">
        <ele>260.6</ele>
        <time>2019-07-10T16:06:16Z</time>
      </trkpt>
      <trkpt lat="39.6072760" lon="-7.5972420">
        <ele>259.6</ele>
        <time>2019-07-10T16:06:19Z</time>
      </trkpt>
      <trkpt lat="39.6072740" lon="-7.5976750">
        <ele>258.6</ele>
        <time>2019-07-10T16:06:23Z</time>
      </trkpt>
      <trkpt lat="39.6072670" lon="-7.5977820">
        <ele>258.4</ele>
        <time>2019-07-10T16:06:24Z</time>
      </trkpt>
      <trkpt lat="39.6072430" lon="-7.5982020">
        <ele>257.6</ele>
        <time>2019-07-10T16:06:28Z</time>
      </trkpt>
      <trkpt lat="39.6072280" lon="-7.5984960">
        <ele>257.2</ele>
        <time>2019-07-10T16:06:31Z</time>
      </trkpt>
      <trkpt lat="39.6072220" lon="-7.5985890">
        <ele>257.2</ele>
        <time>2019-07-10T16:06:32Z</time>
      </trkpt>
      <trkpt lat="39.6071920" lon="-7.5991830">
        <ele>257.4</ele>
        <time>2019-07-10T16:06:39Z</time>
      </trkpt>
      <trkpt lat="39.6071850" lon="-7.5993460">
        <ele>257.4</ele>
        <time>2019-07-10T16:06:41Z</time>
      </trkpt>
      <trkpt lat="39.6071800" lon="-7.5995090">
        <ele>257.4</ele>
        <time>2019-07-10T16:06:43Z</time>
      </trkpt>
      <trkpt lat="39.6071610" lon="-7.5998280">
        <ele>257.6</ele>
        <time>2019-07-10T16:06:47Z</time>
      </trkpt>
      <trkpt lat="39.6071360" lon="-7.6003950">
        <ele>257.6</ele>
        <time>2019-07-10T16:06:54Z</time>
      </trkpt>
      <trkpt lat="39.6071240" lon="-7.6005630">
        <ele>257.6</ele>
        <time>2019-07-10T16:06:56Z</time>
      </trkpt>
      <trkpt lat="39.6071150" lon="-7.6008170">
        <ele>257.4</ele>
        <time>2019-07-10T16:06:59Z</time>
      </trkpt>
      <trkpt lat="39.6071050" lon="-7.6010700">
        <ele>257.4</ele>
        <time>2019-07-10T16:07:02Z</time>
      </trkpt>
      <trkpt lat="39.6070830" lon="-7.6014020">
        <ele>257.4</ele>
        <time>2019-07-10T16:07:06Z</time>
      </trkpt>
      <trkpt lat="39.6070550" lon="-7.6021350">
        <ele>257.4</ele>
        <time>2019-07-10T16:07:15Z</time>
      </trkpt>
      <trkpt lat="39.6070610" lon="-7.6025320">
        <ele>257.2</ele>
        <time>2019-07-10T16:07:20Z</time>
      </trkpt>
      <trkpt lat="39.6070670" lon="-7.6028420">
        <ele>257.0</ele>
        <time>2019-07-10T16:07:24Z</time>
      </trkpt>
      <trkpt lat="39.6070680" lon="-7.6029220">
        <ele>256.8</ele>
        <time>2019-07-10T16:07:25Z</time>
      </trkpt>
      <trkpt lat="39.6070710" lon="-7.6031770">
        <ele>256.4</ele>
        <time>2019-07-10T16:07:28Z</time>
      </trkpt>
      <trkpt lat="39.6070700" lon="-7.6034650">
        <ele>255.4</ele>
        <time>2019-07-10T16:07:31Z</time>
      </trkpt>
      <trkpt lat="39.6070790" lon="-7.6037910">
        <ele>254.2</ele>
        <time>2019-07-10T16:07:34Z</time>
      </trkpt>
      <trkpt lat="39.6070910" lon="-7.6040300">
        <ele>252.8</ele>
        <time>2019-07-10T16:07:36Z</time>
      </trkpt>
      <trkpt lat="39.6071170" lon="-7.6042810">
        <ele>251.6</ele>
        <time>2019-07-10T16:07:38Z</time>
      </trkpt>
      <trkpt lat="39.6071580" lon="-7.6045410">
        <ele>250.2</ele>
        <time>2019-07-10T16:07:40Z</time>
      </trkpt>
      <trkpt lat="39.6071810" lon="-7.6046740">
        <ele>249.6</ele>
        <time>2019-07-10T16:07:41Z</time>
      </trkpt>
      <trkpt lat="39.6072030" lon="-7.6048090">
        <ele>248.8</ele>
        <time>2019-07-10T16:07:42Z</time>
      </trkpt>
      <trkpt lat="39.6072530" lon="-7.6050850">
        <ele>247.6</ele>
        <time>2019-07-10T16:07:44Z</time>
      </trkpt>
      <trkpt lat="39.6073080" lon="-7.6053690">
        <ele>245.8</ele>
        <time>2019-07-10T16:07:46Z</time>
      </trkpt>
      <trkpt lat="39.6073630" lon="-7.6056580">
        <ele>244.2</ele>
        <time>2019-07-10T16:07:48Z</time>
      </trkpt>
      <trkpt lat="39.6074480" lon="-7.6060820">
        <ele>242.8</ele>
        <time>2019-07-10T16:07:51Z</time>
      </trkpt>
      <trkpt lat="39.6075070" lon="-7.6064860">
        <ele>241.8</ele>
        <time>2019-07-10T16:07:54Z</time>
      </trkpt>
      <trkpt lat="39.6075200" lon="-7.6066170">
        <ele>241.6</ele>
        <time>2019-07-10T16:07:55Z</time>
      </trkpt>
      <trkpt lat="39.6075600" lon="-7.6072250">
        <ele>241.0</ele>
        <time>2019-07-10T16:08:00Z</time>
      </trkpt>
      <trkpt lat="39.6075940" lon="-7.6079680">
        <ele>241.0</ele>
        <time>2019-07-10T16:08:07Z</time>
      </trkpt>
      <trkpt lat="39.6076110" lon="-7.6082640">
        <ele>240.8</ele>
        <time>2019-07-10T16:08:10Z</time>
      </trkpt>
      <trkpt lat="39.6075970" lon="-7.6086460">
        <ele>240.8</ele>
        <time>2019-07-10T16:08:14Z</time>
      </trkpt>
      <trkpt lat="39.6075450" lon="-7.6091720">
        <ele>241.0</ele>
        <time>2019-07-10T16:08:20Z</time>
      </trkpt>
      <trkpt lat="39.6075150" lon="-7.6093360">
        <ele>241.0</ele>
        <time>2019-07-10T16:08:22Z</time>
      </trkpt>
      <trkpt lat="39.6074930" lon="-7.6094960">
        <ele>241.0</ele>
        <time>2019-07-10T16:08:24Z</time>
      </trkpt>
      <trkpt lat="39.6074540" lon="-7.6098710">
        <ele>242.0</ele>
        <time>2019-07-10T16:08:29Z</time>
      </trkpt>
      <trkpt lat="39.6074440" lon="-7.6101400">
        <ele>242.4</ele>
        <time>2019-07-10T16:08:33Z</time>
      </trkpt>
      <trkpt lat="39.6074360" lon="-7.6102680">
        <ele>242.8</ele>
        <time>2019-07-10T16:08:35Z</time>
      </trkpt>
      <trkpt lat="39.6074300" lon="-7.6103920">
        <ele>243.0</ele>
        <time>2019-07-10T16:08:37Z</time>
      </trkpt>
      <trkpt lat="39.6074260" lon="-7.6106160">
        <ele>243.8</ele>
        <time>2019-07-10T16:08:41Z</time>
      </trkpt>
      <trkpt lat="39.6074470" lon="-7.6107630">
        <ele>244.6</ele>
        <time>2019-07-10T16:08:44Z</time>
      </trkpt>
      <trkpt lat="39.6074560" lon="-7.6108100">
        <ele>245.0</ele>
        <time>2019-07-10T16:08:45Z</time>
      </trkpt>
      <trkpt lat="39.6074890" lon="-7.6109430">
        <ele>245.8</ele>
        <time>2019-07-10T16:08:48Z</time>
      </trkpt>
      <trkpt lat="39.6074980" lon="-7.6109830">
        <ele>246.2</ele>
        <time>2019-07-10T16:08:49Z</time>
      </trkpt>
      <trkpt lat="39.6075150" lon="-7.6110560">
        <ele>246.8</ele>
        <time>2019-07-10T16:08:51Z</time>
      </trkpt>
      <trkpt lat="39.6075250" lon="-7.6111320">
        <ele>247.2</ele>
        <time>2019-07-10T16:08:53Z</time>
      </trkpt>
      <trkpt lat="39.6075410" lon="-7.6112580">
        <ele>247.8</ele>
        <time>2019-07-10T16:08:57Z</time>
      </trkpt>
      <trkpt lat="39.6075500" lon="-7.6112830">
        <ele>247.8</ele>
        <time>2019-07-10T16:08:58Z</time>
      </trkpt>
      <trkpt lat="39.6075650" lon="-7.6112980">
        <ele>248.0</ele>
        <time>2019-07-10T16:08:59Z</time>
      </trkpt>
      <trkpt lat="39.6076400" lon="-7.6113250">
        <ele>248.0</ele>
        <time>2019-07-10T16:09:02Z</time>
      </trkpt>
      <trkpt lat="39.6078270" lon="-7.6113550">
        <ele>247.4</ele>
        <time>2019-07-10T16:09:07Z</time>
      </trkpt>
      <trkpt lat="39.6080050" lon="-7.6113580">
        <ele>246.6</ele>
        <time>2019-07-10T16:09:11Z</time>
      </trkpt>
      <trkpt lat="39.6080960" lon="-7.6113560">
        <ele>246.4</ele>
        <time>2019-07-10T16:09:13Z</time>
      </trkpt>
      <trkpt lat="39.6081410" lon="-7.6113590">
        <ele>246.2</ele>
        <time>2019-07-10T16:09:14Z</time>
      </trkpt>
      <trkpt lat="39.6081850" lon="-7.6113660">
        <ele>246.2</ele>
        <time>2019-07-10T16:09:15Z</time>
      </trkpt>
      <trkpt lat="39.6082560" lon="-7.6113930">
        <ele>246.2</ele>
        <time>2019-07-10T16:09:17Z</time>
      </trkpt>
      <trkpt lat="39.6082780" lon="-7.6114210">
        <ele>246.2</ele>
        <time>2019-07-10T16:09:18Z</time>
      </trkpt>
      <trkpt lat="39.6082960" lon="-7.6115610">
        <ele>246.2</ele>
        <time>2019-07-10T16:09:22Z</time>
      </trkpt>
      <trkpt lat="39.6082910" lon="-7.6115940">
        <ele>246.4</ele>
        <time>2019-07-10T16:09:23Z</time>
      </trkpt>
      <trkpt lat="39.6082260" lon="-7.6118260">
        <ele>247.8</ele>
        <time>2019-07-10T16:09:30Z</time>
      </trkpt>
      <trkpt lat="39.6081730" lon="-7.6119970">
        <ele>248.2</ele>
        <time>2019-07-10T16:09:34Z</time>
      </trkpt>
      <trkpt lat="39.6081610" lon="-7.6120520">
        <ele>248.2</ele>
        <time>2019-07-10T16:09:35Z</time>
      </trkpt>
      <trkpt lat="39.6081000" lon="-7.6122330">
        <ele>247.6</ele>
        <time>2019-07-10T16:09:38Z</time>
      </trkpt>
      <trkpt lat="39.6080560" lon="-7.6123860">
        <ele>247.2</ele>
        <time>2019-07-10T16:09:40Z</time>
      </trkpt>
      <trkpt lat="39.6080300" lon="-7.6124680">
        <ele>247.2</ele>
        <time>2019-07-10T16:09:41Z</time>
      </trkpt>
      <trkpt lat="39.6079350" lon="-7.6128130">
        <ele>246.0</ele>
        <time>2019-07-10T16:09:45Z</time>
      </trkpt>
      <trkpt lat="39.6079040" lon="-7.6129930">
        <ele>245.4</ele>
        <time>2019-07-10T16:09:47Z</time>
      </trkpt>
      <trkpt lat="39.6078840" lon="-7.6131710">
        <ele>245.2</ele>
        <time>2019-07-10T16:09:49Z</time>
      </trkpt>
      <trkpt lat="39.6078540" lon="-7.6134190">
        <ele>245.2</ele>
        <time>2019-07-10T16:09:52Z</time>
      </trkpt>
      <trkpt lat="39.6078340" lon="-7.6135760">
        <ele>245.0</ele>
        <time>2019-07-10T16:09:54Z</time>
      </trkpt>
      <trkpt lat="39.6078260" lon="-7.6136560">
        <ele>244.4</ele>
        <time>2019-07-10T16:09:55Z</time>
      </trkpt>
      <trkpt lat="39.6077900" lon="-7.6139780">
        <ele>243.6</ele>
        <time>2019-07-10T16:09:59Z</time>
      </trkpt>
      <trkpt lat="39.6077470" lon="-7.6142990">
        <ele>243.8</ele>
        <time>2019-07-10T16:10:03Z</time>
      </trkpt>
      <trkpt lat="39.6077200" lon="-7.6145220">
        <ele>243.4</ele>
        <time>2019-07-10T16:10:06Z</time>
      </trkpt>
      <trkpt lat="39.6077010" lon="-7.6147140">
        <ele>243.4</ele>
        <time>2019-07-10T16:10:09Z</time>
      </trkpt>
      <trkpt lat="39.6076780" lon="-7.6148840">
        <ele>244.2</ele>
        <time>2019-07-10T16:10:12Z</time>
      </trkpt>
      <trkpt lat="39.6076630" lon="-7.6151180">
        <ele>243.6</ele>
        <time>2019-07-10T16:10:16Z</time>
      </trkpt>
      <trkpt lat="39.6076630" lon="-7.6151810">
        <ele>243.4</ele>
        <time>2019-07-10T16:10:17Z</time>
      </trkpt>
      <trkpt lat="39.6077050" lon="-7.6154490">
        <ele>242.8</ele>
        <time>2019-07-10T16:10:21Z</time>
      </trkpt>
      <trkpt lat="39.6077960" lon="-7.6158210">
        <ele>242.0</ele>
        <time>2019-07-10T16:10:26Z</time>
      </trkpt>
      <trkpt lat="39.6078440" lon="-7.6159830">
        <ele>241.4</ele>
        <time>2019-07-10T16:10:28Z</time>
      </trkpt>
      <trkpt lat="39.6078970" lon="-7.6161500">
        <ele>241.0</ele>
        <time>2019-07-10T16:10:30Z</time>
      </trkpt>
      <trkpt lat="39.6079660" lon="-7.6165270">
        <ele>239.6</ele>
        <time>2019-07-10T16:10:34Z</time>
      </trkpt>
      <trkpt lat="39.6079850" lon="-7.6167240">
        <ele>238.6</ele>
        <time>2019-07-10T16:10:36Z</time>
      </trkpt>
      <trkpt lat="39.6079980" lon="-7.6168200">
        <ele>238.4</ele>
        <time>2019-07-10T16:10:37Z</time>
      </trkpt>
      <trkpt lat="39.6080490" lon="-7.6169870">
        <ele>238.0</ele>
        <time>2019-07-10T16:10:39Z</time>
      </trkpt>
      <trkpt lat="39.6081700" lon="-7.6171720">
        <ele>238.2</ele>
        <time>2019-07-10T16:10:42Z</time>
      </trkpt>
      <trkpt lat="39.6082100" lon="-7.6172240">
        <ele>238.0</ele>
        <time>2019-07-10T16:10:43Z</time>
      </trkpt>
      <trkpt lat="39.6082770" lon="-7.6173270">
        <ele>238.0</ele>
        <time>2019-07-10T16:10:45Z</time>
      </trkpt>
      <trkpt lat="39.6083100" lon="-7.6173780">
        <ele>238.0</ele>
        <time>2019-07-10T16:10:46Z</time>
      </trkpt>
      <trkpt lat="39.6083830" lon="-7.6174730">
        <ele>238.0</ele>
        <time>2019-07-10T16:10:48Z</time>
      </trkpt>
      <trkpt lat="39.6085170" lon="-7.6176540">
        <ele>238.4</ele>
        <time>2019-07-10T16:10:53Z</time>
      </trkpt>
      <trkpt lat="39.6085280" lon="-7.6176730">
        <ele>238.6</ele>
        <time>2019-07-10T16:10:56Z</time>
      </trkpt>
      <trkpt lat="39.6085420" lon="-7.6176940">
        <ele>238.2</ele>
        <time>2019-07-10T16:11:41Z</time>
      </trkpt>
      <trkpt lat="39.6085560" lon="-7.6177180">
        <ele>238.2</ele>
        <time>2019-07-10T16:11:42Z</time>
      </trkpt>
      <trkpt lat="39.6085740" lon="-7.6177460">
        <ele>238.2</ele>
        <time>2019-07-10T16:11:43Z</time>
      </trkpt>
      <trkpt lat="39.6085940" lon="-7.6177760">
        <ele>238.2</ele>
        <time>2019-07-10T16:11:44Z</time>
      </trkpt>
      <trkpt lat="39.6086410" lon="-7.6178420">
        <ele>238.0</ele>
        <time>2019-07-10T16:11:46Z</time>
      </trkpt>
      <trkpt lat="39.6086620" lon="-7.6178820">
        <ele>238.0</ele>
        <time>2019-07-10T16:11:47Z</time>
      </trkpt>
      <trkpt lat="39.6087060" lon="-7.6180060">
        <ele>237.6</ele>
        <time>2019-07-10T16:11:50Z</time>
      </trkpt>
      <trkpt lat="39.6087200" lon="-7.6180550">
        <ele>237.0</ele>
        <time>2019-07-10T16:11:52Z</time>
      </trkpt>
      <trkpt lat="39.6087260" lon="-7.6180740">
        <ele>236.8</ele>
        <time>2019-07-10T16:11:54Z</time>
      </trkpt>
      <trkpt lat="39.6087250" lon="-7.6180750">
        <ele>236.6</ele>
        <time>2019-07-10T16:11:55Z</time>
      </trkpt>
      <trkpt lat="39.6087200" lon="-7.6181140">
        <ele>236.4</ele>
        <time>2019-07-10T16:12:02Z</time>
      </trkpt>
      <trkpt lat="39.6087090" lon="-7.6181950">
        <ele>236.4</ele>
        <time>2019-07-10T16:12:04Z</time>
      </trkpt>
      <trkpt lat="39.6086580" lon="-7.6183920">
        <ele>235.0</ele>
        <time>2019-07-10T16:12:08Z</time>
      </trkpt>
      <trkpt lat="39.6086260" lon="-7.6185190">
        <ele>233.8</ele>
        <time>2019-07-10T16:12:10Z</time>
      </trkpt>
      <trkpt lat="39.6085810" lon="-7.6186540">
        <ele>232.4</ele>
        <time>2019-07-10T16:12:12Z</time>
      </trkpt>
      <trkpt lat="39.6085070" lon="-7.6187580">
        <ele>231.4</ele>
        <time>2019-07-10T16:12:14Z</time>
      </trkpt>
      <trkpt lat="39.6084190" lon="-7.6188460">
        <ele>230.8</ele>
        <time>2019-07-10T16:12:16Z</time>
      </trkpt>
      <trkpt lat="39.6083430" lon="-7.6189980">
        <ele>230.2</ele>
        <time>2019-07-10T16:12:19Z</time>
      </trkpt>
      <trkpt lat="39.6083300" lon="-7.6190450">
        <ele>230.2</ele>
        <time>2019-07-10T16:12:20Z</time>
      </trkpt>
      <trkpt lat="39.6083030" lon="-7.6191400">
        <ele>230.2</ele>
        <time>2019-07-10T16:12:22Z</time>
      </trkpt>
      <trkpt lat="39.6082890" lon="-7.6191870">
        <ele>230.2</ele>
        <time>2019-07-10T16:12:23Z</time>
      </trkpt>
      <trkpt lat="39.6082590" lon="-7.6192920">
        <ele>230.4</ele>
        <time>2019-07-10T16:12:25Z</time>
      </trkpt>
      <trkpt lat="39.6082420" lon="-7.6193500">
        <ele>230.4</ele>
        <time>2019-07-10T16:12:26Z</time>
      </trkpt>
      <trkpt lat="39.6082220" lon="-7.6194710">
        <ele>230.4</ele>
        <time>2019-07-10T16:12:28Z</time>
      </trkpt>
      <trkpt lat="39.6082410" lon="-7.6195920">
        <ele>230.2</ele>
        <time>2019-07-10T16:12:30Z</time>
      </trkpt>
      <trkpt lat="39.6082840" lon="-7.6197010">
        <ele>230.2</ele>
        <time>2019-07-10T16:12:32Z</time>
      </trkpt>
      <trkpt lat="39.6083510" lon="-7.6198460">
        <ele>231.2</ele>
        <time>2019-07-10T16:12:35Z</time>
      </trkpt>
      <trkpt lat="39.6084400" lon="-7.6200090">
        <ele>231.8</ele>
        <time>2019-07-10T16:12:39Z</time>
      </trkpt>
      <trkpt lat="39.6084990" lon="-7.6200920">
        <ele>232.0</ele>
        <time>2019-07-10T16:12:41Z</time>
      </trkpt>
      <trkpt lat="39.6086300" lon="-7.6202540">
        <ele>232.0</ele>
        <time>2019-07-10T16:12:45Z</time>
      </trkpt>
      <trkpt lat="39.6086650" lon="-7.6202940">
        <ele>231.8</ele>
        <time>2019-07-10T16:12:46Z</time>
      </trkpt>
      <trkpt lat="39.6087260" lon="-7.6203750">
        <ele>232.0</ele>
        <time>2019-07-10T16:12:48Z</time>
      </trkpt>
      <trkpt lat="39.6087690" lon="-7.6205310">
        <ele>232.2</ele>
        <time>2019-07-10T16:12:51Z</time>
      </trkpt>
      <trkpt lat="39.6087770" lon="-7.6205800">
        <ele>232.4</ele>
        <time>2019-07-10T16:12:52Z</time>
      </trkpt>
      <trkpt lat="39.6088300" lon="-7.6208640">
        <ele>233.4</ele>
        <time>2019-07-10T16:12:58Z</time>
      </trkpt>
      <trkpt lat="39.6088390" lon="-7.6209030">
        <ele>233.6</ele>
        <time>2019-07-10T16:12:59Z</time>
      </trkpt>
      <trkpt lat="39.6088590" lon="-7.6210070">
        <ele>234.4</ele>
        <time>2019-07-10T16:13:02Z</time>
      </trkpt>
      <trkpt lat="39.6088780" lon="-7.6211080">
        <ele>235.2</ele>
        <time>2019-07-10T16:13:05Z</time>
      </trkpt>
      <trkpt lat="39.6088800" lon="-7.6211440">
        <ele>235.6</ele>
        <time>2019-07-10T16:13:06Z</time>
      </trkpt>
      <trkpt lat="39.6089260" lon="-7.6213660">
        <ele>236.6</ele>
        <time>2019-07-10T16:13:12Z</time>
      </trkpt>
      <trkpt lat="39.6090260" lon="-7.6216180">
        <ele>236.4</ele>
        <time>2019-07-10T16:13:17Z</time>
      </trkpt>
      <trkpt lat="39.6090560" lon="-7.6216780">
        <ele>236.0</ele>
        <time>2019-07-10T16:13:18Z</time>
      </trkpt>
      <trkpt lat="39.6091690" lon="-7.6218860">
        <ele>234.6</ele>
        <time>2019-07-10T16:13:21Z</time>
      </trkpt>
      <trkpt lat="39.6092460" lon="-7.6220260">
        <ele>233.0</ele>
        <time>2019-07-10T16:13:23Z</time>
      </trkpt>
      <trkpt lat="39.6093540" lon="-7.6222210">
        <ele>231.6</ele>
        <time>2019-07-10T16:13:26Z</time>
      </trkpt>
      <trkpt lat="39.6094170" lon="-7.6223670">
        <ele>231.4</ele>
        <time>2019-07-10T16:13:28Z</time>
      </trkpt>
      <trkpt lat="39.6094520" lon="-7.6224360">
        <ele>231.2</ele>
        <time>2019-07-10T16:13:29Z</time>
      </trkpt>
      <trkpt lat="39.6095280" lon="-7.6225350">
        <ele>230.6</ele>
        <time>2019-07-10T16:13:31Z</time>
      </trkpt>
      <trkpt lat="39.6095700" lon="-7.6225650">
        <ele>230.4</ele>
        <time>2019-07-10T16:13:32Z</time>
      </trkpt>
      <trkpt lat="39.6096120" lon="-7.6225900">
        <ele>230.0</ele>
        <time>2019-07-10T16:13:33Z</time>
      </trkpt>
      <trkpt lat="39.6096850" lon="-7.6226430">
        <ele>229.2</ele>
        <time>2019-07-10T16:13:35Z</time>
      </trkpt>
      <trkpt lat="39.6097440" lon="-7.6227130">
        <ele>228.2</ele>
        <time>2019-07-10T16:13:37Z</time>
      </trkpt>
      <trkpt lat="39.6097720" lon="-7.6227520">
        <ele>227.6</ele>
        <time>2019-07-10T16:13:38Z</time>
      </trkpt>
      <trkpt lat="39.6098320" lon="-7.6228280">
        <ele>225.8</ele>
        <time>2019-07-10T16:13:40Z</time>
      </trkpt>
      <trkpt lat="39.6099510" lon="-7.6229400">
        <ele>224.2</ele>
        <time>2019-07-10T16:13:43Z</time>
      </trkpt>
      <trkpt lat="39.6100820" lon="-7.6230390">
        <ele>223.2</ele>
        <time>2019-07-10T16:13:46Z</time>
      </trkpt>
      <trkpt lat="39.6102050" lon="-7.6231460">
        <ele>222.0</ele>
        <time>2019-07-10T16:13:49Z</time>
      </trkpt>
      <trkpt lat="39.6102410" lon="-7.6231900">
        <ele>221.2</ele>
        <time>2019-07-10T16:13:50Z</time>
      </trkpt>
      <trkpt lat="39.6102760" lon="-7.6232350">
        <ele>220.4</ele>
        <time>2019-07-10T16:13:51Z</time>
      </trkpt>
      <trkpt lat="39.6103500" lon="-7.6233380">
        <ele>219.2</ele>
        <time>2019-07-10T16:13:53Z</time>
      </trkpt>
      <trkpt lat="39.6103880" lon="-7.6234000">
        <ele>218.8</ele>
        <time>2019-07-10T16:13:54Z</time>
      </trkpt>
      <trkpt lat="39.6104220" lon="-7.6234720">
        <ele>218.4</ele>
        <time>2019-07-10T16:13:55Z</time>
      </trkpt>
      <trkpt lat="39.6104540" lon="-7.6235480">
        <ele>218.0</ele>
        <time>2019-07-10T16:13:56Z</time>
      </trkpt>
      <trkpt lat="39.6105430" lon="-7.6237920">
        <ele>217.4</ele>
        <time>2019-07-10T16:13:59Z</time>
      </trkpt>
      <trkpt lat="39.6106000" lon="-7.6239570">
        <ele>216.8</ele>
        <time>2019-07-10T16:14:01Z</time>
      </trkpt>
      <trkpt lat="39.6106320" lon="-7.6240360">
        <ele>216.4</ele>
        <time>2019-07-10T16:14:02Z</time>
      </trkpt>
      <trkpt lat="39.6106940" lon="-7.6241880">
        <ele>215.6</ele>
        <time>2019-07-10T16:14:04Z</time>
      </trkpt>
      <trkpt lat="39.6108170" lon="-7.6244500">
        <ele>215.6</ele>
        <time>2019-07-10T16:14:08Z</time>
      </trkpt>
      <trkpt lat="39.6110300" lon="-7.6249300">
        <ele>215.0</ele>
        <time>2019-07-10T16:14:16Z</time>
      </trkpt>
      <trkpt lat="39.6110520" lon="-7.6249870">
        <ele>214.4</ele>
        <time>2019-07-10T16:14:17Z</time>
      </trkpt>
      <trkpt lat="39.6110940" lon="-7.6250920">
        <ele>213.6</ele>
        <time>2019-07-10T16:14:19Z</time>
      </trkpt>
      <trkpt lat="39.6111500" lon="-7.6251860">
        <ele>213.4</ele>
        <time>2019-07-10T16:14:21Z</time>
      </trkpt>
      <trkpt lat="39.6112490" lon="-7.6253260">
        <ele>212.2</ele>
        <time>2019-07-10T16:14:24Z</time>
      </trkpt>
      <trkpt lat="39.6113450" lon="-7.6254810">
        <ele>210.8</ele>
        <time>2019-07-10T16:14:27Z</time>
      </trkpt>
      <trkpt lat="39.6114150" lon="-7.6255990">
        <ele>209.2</ele>
        <time>2019-07-10T16:14:29Z</time>
      </trkpt>
      <trkpt lat="39.6114730" lon="-7.6257190">
        <ele>207.6</ele>
        <time>2019-07-10T16:14:31Z</time>
      </trkpt>
      <trkpt lat="39.6115010" lon="-7.6257800">
        <ele>207.0</ele>
        <time>2019-07-10T16:14:32Z</time>
      </trkpt>
      <trkpt lat="39.6115340" lon="-7.6258430">
        <ele>206.6</ele>
        <time>2019-07-10T16:14:33Z</time>
      </trkpt>
      <trkpt lat="39.6116110" lon="-7.6259640">
        <ele>205.2</ele>
        <time>2019-07-10T16:14:35Z</time>
      </trkpt>
      <trkpt lat="39.6116990" lon="-7.6260680">
        <ele>203.8</ele>
        <time>2019-07-10T16:14:37Z</time>
      </trkpt>
      <trkpt lat="39.6118540" lon="-7.6261770">
        <ele>202.8</ele>
        <time>2019-07-10T16:14:40Z</time>
      </trkpt>
      <trkpt lat="39.6118980" lon="-7.6262120">
        <ele>202.8</ele>
        <time>2019-07-10T16:14:41Z</time>
      </trkpt>
      <trkpt lat="39.6120280" lon="-7.6264120">
        <ele>202.0</ele>
        <time>2019-07-10T16:14:45Z</time>
      </trkpt>
      <trkpt lat="39.6120540" lon="-7.6264660">
        <ele>201.4</ele>
        <time>2019-07-10T16:14:46Z</time>
      </trkpt>
      <trkpt lat="39.6121900" lon="-7.6267380">
        <ele>200.6</ele>
        <time>2019-07-10T16:14:51Z</time>
      </trkpt>
      <trkpt lat="39.6122130" lon="-7.6267880">
        <ele>200.2</ele>
        <time>2019-07-10T16:14:52Z</time>
      </trkpt>
      <trkpt lat="39.6122980" lon="-7.6269760">
        <ele>199.2</ele>
        <time>2019-07-10T16:14:56Z</time>
      </trkpt>
      <trkpt lat="39.6123460" lon="-7.6270860">
        <ele>198.4</ele>
        <time>2019-07-10T16:14:58Z</time>
      </trkpt>
      <trkpt lat="39.6123670" lon="-7.6271350">
        <ele>197.6</ele>
        <time>2019-07-10T16:14:59Z</time>
      </trkpt>
      <trkpt lat="39.6124330" lon="-7.6272810">
        <ele>196.4</ele>
        <time>2019-07-10T16:15:02Z</time>
      </trkpt>
      <trkpt lat="39.6124770" lon="-7.6273970">
        <ele>195.4</ele>
        <time>2019-07-10T16:15:04Z</time>
      </trkpt>
      <trkpt lat="39.6124940" lon="-7.6274600">
        <ele>195.0</ele>
        <time>2019-07-10T16:15:05Z</time>
      </trkpt>
      <trkpt lat="39.6125070" lon="-7.6276090">
        <ele>193.6</ele>
        <time>2019-07-10T16:15:07Z</time>
      </trkpt>
      <trkpt lat="39.6125060" lon="-7.6276910">
        <ele>192.4</ele>
        <time>2019-07-10T16:15:08Z</time>
      </trkpt>
      <trkpt lat="39.6124840" lon="-7.6280210">
        <ele>191.4</ele>
        <time>2019-07-10T16:15:12Z</time>
      </trkpt>
      <trkpt lat="39.6124840" lon="-7.6280990">
        <ele>191.0</ele>
        <time>2019-07-10T16:15:13Z</time>
      </trkpt>
      <trkpt lat="39.6124890" lon="-7.6281750">
        <ele>190.6</ele>
        <time>2019-07-10T16:15:14Z</time>
      </trkpt>
      <trkpt lat="39.6124970" lon="-7.6282460">
        <ele>190.2</ele>
        <time>2019-07-10T16:15:15Z</time>
      </trkpt>
      <trkpt lat="39.6125360" lon="-7.6284460">
        <ele>189.2</ele>
        <time>2019-07-10T16:15:18Z</time>
      </trkpt>
      <trkpt lat="39.6125540" lon="-7.6285100">
        <ele>189.0</ele>
        <time>2019-07-10T16:15:19Z</time>
      </trkpt>
      <trkpt lat="39.6125760" lon="-7.6285690">
        <ele>188.8</ele>
        <time>2019-07-10T16:15:20Z</time>
      </trkpt>
      <trkpt lat="39.6126540" lon="-7.6287340">
        <ele>187.6</ele>
        <time>2019-07-10T16:15:23Z</time>
      </trkpt>
      <trkpt lat="39.6126840" lon="-7.6287940">
        <ele>187.0</ele>
        <time>2019-07-10T16:15:24Z</time>
      </trkpt>
      <trkpt lat="39.6127170" lon="-7.6288630">
        <ele>186.6</ele>
        <time>2019-07-10T16:15:25Z</time>
      </trkpt>
      <trkpt lat="39.6127460" lon="-7.6289360">
        <ele>186.2</ele>
        <time>2019-07-10T16:15:26Z</time>
      </trkpt>
      <trkpt lat="39.6127700" lon="-7.6290930">
        <ele>185.6</ele>
        <time>2019-07-10T16:15:28Z</time>
      </trkpt>
      <trkpt lat="39.6127430" lon="-7.6292360">
        <ele>184.4</ele>
        <time>2019-07-10T16:15:30Z</time>
      </trkpt>
      <trkpt lat="39.6127210" lon="-7.6292910">
        <ele>184.0</ele>
        <time>2019-07-10T16:15:31Z</time>
      </trkpt>
      <trkpt lat="39.6127000" lon="-7.6293350">
        <ele>183.8</ele>
        <time>2019-07-10T16:15:32Z</time>
      </trkpt>
      <trkpt lat="39.6126650" lon="-7.6294110">
        <ele>184.0</ele>
        <time>2019-07-10T16:15:34Z</time>
      </trkpt>
      <trkpt lat="39.6126520" lon="-7.6294510">
        <ele>184.2</ele>
        <time>2019-07-10T16:15:35Z</time>
      </trkpt>
      <trkpt lat="39.6126410" lon="-7.6294910">
        <ele>184.2</ele>
        <time>2019-07-10T16:15:36Z</time>
      </trkpt>
      <trkpt lat="39.6126310" lon="-7.6295730">
        <ele>184.4</ele>
        <time>2019-07-10T16:15:38Z</time>
      </trkpt>
      <trkpt lat="39.6126250" lon="-7.6296670">
        <ele>184.8</ele>
        <time>2019-07-10T16:15:40Z</time>
      </trkpt>
      <trkpt lat="39.6126250" lon="-7.6297180">
        <ele>185.0</ele>
        <time>2019-07-10T16:15:41Z</time>
      </trkpt>
      <trkpt lat="39.6126720" lon="-7.6300830">
        <ele>185.2</ele>
        <time>2019-07-10T16:15:48Z</time>
      </trkpt>
      <trkpt lat="39.6127270" lon="-7.6303280">
        <ele>184.8</ele>
        <time>2019-07-10T16:15:52Z</time>
      </trkpt>
      <trkpt lat="39.6127400" lon="-7.6304080">
        <ele>184.6</ele>
        <time>2019-07-10T16:15:53Z</time>
      </trkpt>
      <trkpt lat="39.6127800" lon="-7.6307610">
        <ele>183.0</ele>
        <time>2019-07-10T16:15:57Z</time>
      </trkpt>
      <trkpt lat="39.6128180" lon="-7.6309470">
        <ele>182.2</ele>
        <time>2019-07-10T16:15:59Z</time>
      </trkpt>
      <trkpt lat="39.6128410" lon="-7.6310380">
        <ele>181.6</ele>
        <time>2019-07-10T16:16:00Z</time>
      </trkpt>
      <trkpt lat="39.6129280" lon="-7.6312970">
        <ele>180.8</ele>
        <time>2019-07-10T16:16:03Z</time>
      </trkpt>
      <trkpt lat="39.6129880" lon="-7.6314600">
        <ele>180.6</ele>
        <time>2019-07-10T16:16:05Z</time>
      </trkpt>
      <trkpt lat="39.6131030" lon="-7.6317780">
        <ele>179.8</ele>
        <time>2019-07-10T16:16:09Z</time>
      </trkpt>
      <trkpt lat="39.6131580" lon="-7.6319270">
        <ele>179.8</ele>
        <time>2019-07-10T16:16:11Z</time>
      </trkpt>
      <trkpt lat="39.6131970" lon="-7.6320720">
        <ele>180.0</ele>
        <time>2019-07-10T16:16:13Z</time>
      </trkpt>
      <trkpt lat="39.6132400" lon="-7.6322050">
        <ele>180.0</ele>
        <time>2019-07-10T16:16:15Z</time>
      </trkpt>
      <trkpt lat="39.6133020" lon="-7.6323140">
        <ele>180.0</ele>
        <time>2019-07-10T16:16:17Z</time>
      </trkpt>
      <trkpt lat="39.6133720" lon="-7.6324060">
        <ele>179.8</ele>
        <time>2019-07-10T16:16:19Z</time>
      </trkpt>
      <trkpt lat="39.6134300" lon="-7.6324840">
        <ele>180.4</ele>
        <time>2019-07-10T16:16:21Z</time>
      </trkpt>
      <trkpt lat="39.6134560" lon="-7.6325210">
        <ele>180.6</ele>
        <time>2019-07-10T16:16:22Z</time>
      </trkpt>
      <trkpt lat="39.6134800" lon="-7.6325590">
        <ele>180.8</ele>
        <time>2019-07-10T16:16:23Z</time>
      </trkpt>
      <trkpt lat="39.6135240" lon="-7.6326320">
        <ele>181.4</ele>
        <time>2019-07-10T16:16:25Z</time>
      </trkpt>
      <trkpt lat="39.6135610" lon="-7.6327080">
        <ele>182.0</ele>
        <time>2019-07-10T16:16:27Z</time>
      </trkpt>
      <trkpt lat="39.6135760" lon="-7.6327550">
        <ele>182.2</ele>
        <time>2019-07-10T16:16:28Z</time>
      </trkpt>
      <trkpt lat="39.6136020" lon="-7.6328730">
        <ele>182.4</ele>
        <time>2019-07-10T16:16:30Z</time>
      </trkpt>
      <trkpt lat="39.6136010" lon="-7.6330250">
        <ele>182.4</ele>
        <time>2019-07-10T16:16:32Z</time>
      </trkpt>
      <trkpt lat="39.6135690" lon="-7.6331880">
        <ele>182.0</ele>
        <time>2019-07-10T16:16:34Z</time>
      </trkpt>
      <trkpt lat="39.6135290" lon="-7.6333610">
        <ele>180.4</ele>
        <time>2019-07-10T16:16:36Z</time>
      </trkpt>
      <trkpt lat="39.6134730" lon="-7.6335240">
        <ele>178.8</ele>
        <time>2019-07-10T16:16:38Z</time>
      </trkpt>
      <trkpt lat="39.6134500" lon="-7.6336790">
        <ele>178.0</ele>
        <time>2019-07-10T16:16:40Z</time>
      </trkpt>
      <trkpt lat="39.6134740" lon="-7.6338120">
        <ele>177.6</ele>
        <time>2019-07-10T16:16:42Z</time>
      </trkpt>
      <trkpt lat="39.6135150" lon="-7.6339240">
        <ele>177.2</ele>
        <time>2019-07-10T16:16:44Z</time>
      </trkpt>
      <trkpt lat="39.6135880" lon="-7.6341300">
        <ele>177.2</ele>
        <time>2019-07-10T16:16:48Z</time>
      </trkpt>
      <trkpt lat="39.6136350" lon="-7.6342750">
        <ele>177.8</ele>
        <time>2019-07-10T16:16:51Z</time>
      </trkpt>
      <trkpt lat="39.6137180" lon="-7.6344500">
        <ele>178.4</ele>
        <time>2019-07-10T16:16:55Z</time>
      </trkpt>
      <trkpt lat="39.6137710" lon="-7.6345350">
        <ele>178.4</ele>
        <time>2019-07-10T16:16:57Z</time>
      </trkpt>
      <trkpt lat="39.6137970" lon="-7.6345900">
        <ele>178.4</ele>
        <time>2019-07-10T16:16:58Z</time>
      </trkpt>
      <trkpt lat="39.6138390" lon="-7.6347300">
        <ele>178.0</ele>
        <time>2019-07-10T16:17:00Z</time>
      </trkpt>
      <trkpt lat="39.6138510" lon="-7.6348130">
        <ele>177.4</ele>
        <time>2019-07-10T16:17:01Z</time>
      </trkpt>
      <trkpt lat="39.6138640" lon="-7.6349800">
        <ele>176.8</ele>
        <time>2019-07-10T16:17:03Z</time>
      </trkpt>
      <trkpt lat="39.6138730" lon="-7.6350530">
        <ele>176.2</ele>
        <time>2019-07-10T16:17:04Z</time>
      </trkpt>
      <trkpt lat="39.6138820" lon="-7.6351170">
        <ele>176.0</ele>
        <time>2019-07-10T16:17:05Z</time>
      </trkpt>
      <trkpt lat="39.6139500" lon="-7.6353520">
        <ele>176.8</ele>
        <time>2019-07-10T16:17:10Z</time>
      </trkpt>
      <trkpt lat="39.6140260" lon="-7.6354870">
        <ele>177.0</ele>
        <time>2019-07-10T16:17:13Z</time>
      </trkpt>
      <trkpt lat="39.6140930" lon="-7.6355760">
        <ele>176.8</ele>
        <time>2019-07-10T16:17:15Z</time>
      </trkpt>
      <trkpt lat="39.6141340" lon="-7.6356290">
        <ele>176.4</ele>
        <time>2019-07-10T16:17:16Z</time>
      </trkpt>
      <trkpt lat="39.6142130" lon="-7.6357380">
        <ele>175.2</ele>
        <time>2019-07-10T16:17:18Z</time>
      </trkpt>
      <trkpt lat="39.6142480" lon="-7.6357920">
        <ele>174.6</ele>
        <time>2019-07-10T16:17:19Z</time>
      </trkpt>
      <trkpt lat="39.6142860" lon="-7.6358480">
        <ele>173.8</ele>
        <time>2019-07-10T16:17:20Z</time>
      </trkpt>
      <trkpt lat="39.6143580" lon="-7.6359550">
        <ele>172.8</ele>
        <time>2019-07-10T16:17:22Z</time>
      </trkpt>
      <trkpt lat="39.6144300" lon="-7.6360620">
        <ele>172.0</ele>
        <time>2019-07-10T16:17:24Z</time>
      </trkpt>
      <trkpt lat="39.6144670" lon="-7.6361190">
        <ele>171.2</ele>
        <time>2019-07-10T16:17:25Z</time>
      </trkpt>
      <trkpt lat="39.6145390" lon="-7.6362390">
        <ele>169.8</ele>
        <time>2019-07-10T16:17:27Z</time>
      </trkpt>
      <trkpt lat="39.6146110" lon="-7.6363700">
        <ele>168.2</ele>
        <time>2019-07-10T16:17:29Z</time>
      </trkpt>
      <trkpt lat="39.6146450" lon="-7.6364320">
        <ele>167.6</ele>
        <time>2019-07-10T16:17:30Z</time>
      </trkpt>
      <trkpt lat="39.6147100" lon="-7.6365530">
        <ele>166.8</ele>
        <time>2019-07-10T16:17:32Z</time>
      </trkpt>
      <trkpt lat="39.6148160" lon="-7.6367190">
        <ele>165.4</ele>
        <time>2019-07-10T16:17:35Z</time>
      </trkpt>
      <trkpt lat="39.6148540" lon="-7.6367720">
        <ele>165.0</ele>
        <time>2019-07-10T16:17:36Z</time>
      </trkpt>
      <trkpt lat="39.6149330" lon="-7.6368870">
        <ele>164.2</ele>
        <time>2019-07-10T16:17:38Z</time>
      </trkpt>
      <trkpt lat="39.6149700" lon="-7.6369480">
        <ele>163.6</ele>
        <time>2019-07-10T16:17:39Z</time>
      </trkpt>
      <trkpt lat="39.6150050" lon="-7.6370120">
        <ele>162.6</ele>
        <time>2019-07-10T16:17:40Z</time>
      </trkpt>
      <trkpt lat="39.6150440" lon="-7.6370770">
        <ele>161.8</ele>
        <time>2019-07-10T16:17:41Z</time>
      </trkpt>
      <trkpt lat="39.6150880" lon="-7.6371400">
        <ele>161.2</ele>
        <time>2019-07-10T16:17:42Z</time>
      </trkpt>
      <trkpt lat="39.6151720" lon="-7.6372640">
        <ele>160.0</ele>
        <time>2019-07-10T16:17:44Z</time>
      </trkpt>
      <trkpt lat="39.6152150" lon="-7.6373200">
        <ele>159.4</ele>
        <time>2019-07-10T16:17:45Z</time>
      </trkpt>
      <trkpt lat="39.6152600" lon="-7.6373670">
        <ele>159.0</ele>
        <time>2019-07-10T16:17:46Z</time>
      </trkpt>
      <trkpt lat="39.6153050" lon="-7.6374020">
        <ele>158.6</ele>
        <time>2019-07-10T16:17:47Z</time>
      </trkpt>
      <trkpt lat="39.6153540" lon="-7.6374210">
        <ele>158.0</ele>
        <time>2019-07-10T16:17:48Z</time>
      </trkpt>
      <trkpt lat="39.6154570" lon="-7.6374140">
        <ele>157.4</ele>
        <time>2019-07-10T16:17:50Z</time>
      </trkpt>
      <trkpt lat="39.6156510" lon="-7.6373290">
        <ele>157.0</ele>
        <time>2019-07-10T16:17:54Z</time>
      </trkpt>
      <trkpt lat="39.6157400" lon="-7.6372720">
        <ele>156.8</ele>
        <time>2019-07-10T16:17:56Z</time>
      </trkpt>
      <trkpt lat="39.6159710" lon="-7.6371450">
        <ele>156.2</ele>
        <time>2019-07-10T16:18:01Z</time>
      </trkpt>
      <trkpt lat="39.6160220" lon="-7.6371270">
        <ele>156.0</ele>
        <time>2019-07-10T16:18:02Z</time>
      </trkpt>
      <trkpt lat="39.6160770" lon="-7.6371160">
        <ele>155.8</ele>
        <time>2019-07-10T16:18:03Z</time>
      </trkpt>
      <trkpt lat="39.6163100" lon="-7.6370800">
        <ele>155.0</ele>
        <time>2019-07-10T16:18:07Z</time>
      </trkpt>
      <trkpt lat="39.6164240" lon="-7.6370500">
        <ele>154.6</ele>
        <time>2019-07-10T16:18:09Z</time>
      </trkpt>
      <trkpt lat="39.6166980" lon="-7.6369900">
        <ele>153.8</ele>
        <time>2019-07-10T16:18:14Z</time>
      </trkpt>
      <trkpt lat="39.6167410" lon="-7.6369890">
        <ele>153.4</ele>
        <time>2019-07-10T16:18:15Z</time>
      </trkpt>
      <trkpt lat="39.6167810" lon="-7.6369970">
        <ele>153.2</ele>
        <time>2019-07-10T16:18:16Z</time>
      </trkpt>
      <trkpt lat="39.6168700" lon="-7.6370950">
        <ele>152.8</ele>
        <time>2019-07-10T16:18:19Z</time>
      </trkpt>
      <trkpt lat="39.6168850" lon="-7.6371380">
        <ele>152.6</ele>
        <time>2019-07-10T16:18:20Z</time>
      </trkpt>
      <trkpt lat="39.6168960" lon="-7.6371850">
        <ele>152.6</ele>
        <time>2019-07-10T16:18:21Z</time>
      </trkpt>
      <trkpt lat="39.6168950" lon="-7.6372810">
        <ele>152.6</ele>
        <time>2019-07-10T16:18:23Z</time>
      </trkpt>
      <trkpt lat="39.6167820" lon="-7.6374450">
        <ele>152.6</ele>
        <time>2019-07-10T16:18:27Z</time>
      </trkpt>
      <trkpt lat="39.6167400" lon="-7.6374810">
        <ele>152.6</ele>
        <time>2019-07-10T16:18:28Z</time>
      </trkpt>
      <trkpt lat="39.6165740" lon="-7.6376180">
        <ele>152.6</ele>
        <time>2019-07-10T16:18:32Z</time>
      </trkpt>
      <trkpt lat="39.6165350" lon="-7.6376430">
        <ele>152.6</ele>
        <time>2019-07-10T16:18:33Z</time>
      </trkpt>
      <trkpt lat="39.6164890" lon="-7.6376950">
        <ele>151.6</ele>
        <time>2019-07-10T16:18:35Z</time>
      </trkpt>
      <trkpt lat="39.6164850" lon="-7.6377260">
        <ele>151.2</ele>
        <time>2019-07-10T16:18:36Z</time>
      </trkpt>
      <trkpt lat="39.6165030" lon="-7.6377690">
        <ele>150.4</ele>
        <time>2019-07-10T16:18:38Z</time>
      </trkpt>
      <trkpt lat="39.6165380" lon="-7.6377790">
        <ele>149.6</ele>
        <time>2019-07-10T16:18:40Z</time>
      </trkpt>
      <trkpt lat="39.6165670" lon="-7.6377750">
        <ele>149.2</ele>
        <time>2019-07-10T16:18:41Z</time>
      </trkpt>
      <trkpt lat="39.6166430" lon="-7.6377540">
        <ele>148.2</ele>
        <time>2019-07-10T16:18:43Z</time>
      </trkpt>
      <trkpt lat="39.6166930" lon="-7.6377400">
        <ele>147.6</ele>
        <time>2019-07-10T16:18:44Z</time>
      </trkpt>
      <trkpt lat="39.6167950" lon="-7.6377190">
        <ele>146.2</ele>
        <time>2019-07-10T16:18:46Z</time>
      </trkpt>
      <trkpt lat="39.6168970" lon="-7.6377160">
        <ele>144.8</ele>
        <time>2019-07-10T16:18:48Z</time>
      </trkpt>
      <trkpt lat="39.6169440" lon="-7.6377230">
        <ele>144.2</ele>
        <time>2019-07-10T16:18:49Z</time>
      </trkpt>
      <trkpt lat="39.6169920" lon="-7.6377370">
        <ele>143.6</ele>
        <time>2019-07-10T16:18:50Z</time>
      </trkpt>
      <trkpt lat="39.6171520" lon="-7.6377850">
        <ele>142.4</ele>
        <time>2019-07-10T16:18:53Z</time>
      </trkpt>
      <trkpt lat="39.6172010" lon="-7.6378060">
        <ele>141.6</ele>
        <time>2019-07-10T16:18:54Z</time>
      </trkpt>
      <trkpt lat="39.6172490" lon="-7.6378370">
        <ele>140.6</ele>
        <time>2019-07-10T16:18:55Z</time>
      </trkpt>
      <trkpt lat="39.6173530" lon="-7.6379330">
        <ele>138.6</ele>
        <time>2019-07-10T16:18:57Z</time>
      </trkpt>
      <trkpt lat="39.6174600" lon="-7.6380370">
        <ele>136.8</ele>
        <time>2019-07-10T16:18:59Z</time>
      </trkpt>
      <trkpt lat="39.6175480" lon="-7.6381140">
        <ele>135.4</ele>
        <time>2019-07-10T16:19:01Z</time>
      </trkpt>
      <trkpt lat="39.6175800" lon="-7.6381440">
        <ele>135.0</ele>
        <time>2019-07-10T16:19:02Z</time>
      </trkpt>
      <trkpt lat="39.6176540" lon="-7.6382380">
        <ele>134.4</ele>
        <time>2019-07-10T16:19:05Z</time>
      </trkpt>
      <trkpt lat="39.6177050" lon="-7.6383610">
        <ele>133.6</ele>
        <time>2019-07-10T16:19:07Z</time>
      </trkpt>
      <trkpt lat="39.6177310" lon="-7.6384420">
        <ele>132.8</ele>
        <time>2019-07-10T16:19:08Z</time>
      </trkpt>
      <trkpt lat="39.6177590" lon="-7.6385180">
        <ele>132.0</ele>
        <time>2019-07-10T16:19:09Z</time>
      </trkpt>
      <trkpt lat="39.6177850" lon="-7.6385880">
        <ele>131.4</ele>
        <time>2019-07-10T16:19:10Z</time>
      </trkpt>
      <trkpt lat="39.6178060" lon="-7.6386510">
        <ele>131.0</ele>
        <time>2019-07-10T16:19:11Z</time>
      </trkpt>
      <trkpt lat="39.6178840" lon="-7.6388590">
        <ele>131.2</ele>
        <time>2019-07-10T16:19:15Z</time>
      </trkpt>
      <trkpt lat="39.6179270" lon="-7.6388930">
        <ele>131.4</ele>
        <time>2019-07-10T16:19:16Z</time>
      </trkpt>
      <trkpt lat="39.6180660" lon="-7.6389170">
        <ele>130.8</ele>
        <time>2019-07-10T16:19:19Z</time>
      </trkpt>
      <trkpt lat="39.6181720" lon="-7.6390120">
        <ele>130.2</ele>
        <time>2019-07-10T16:19:22Z</time>
      </trkpt>
      <trkpt lat="39.6181980" lon="-7.6390580">
        <ele>130.2</ele>
        <time>2019-07-10T16:19:23Z</time>
      </trkpt>
      <trkpt lat="39.6182570" lon="-7.6392890">
        <ele>130.2</ele>
        <time>2019-07-10T16:19:27Z</time>
      </trkpt>
      <trkpt lat="39.6182860" lon="-7.6393380">
        <ele>130.0</ele>
        <time>2019-07-10T16:19:28Z</time>
      </trkpt>
      <trkpt lat="39.6183520" lon="-7.6394110">
        <ele>129.4</ele>
        <time>2019-07-10T16:19:30Z</time>
      </trkpt>
      <trkpt lat="39.6183820" lon="-7.6394430">
        <ele>129.2</ele>
        <time>2019-07-10T16:19:31Z</time>
      </trkpt>
      <trkpt lat="39.6184310" lon="-7.6395030">
        <ele>129.6</ele>
        <time>2019-07-10T16:19:33Z</time>
      </trkpt>
      <trkpt lat="39.6184700" lon="-7.6395570">
        <ele>130.0</ele>
        <time>2019-07-10T16:19:35Z</time>
      </trkpt>
      <trkpt lat="39.6184890" lon="-7.6395880">
        <ele>130.2</ele>
        <time>2019-07-10T16:19:36Z</time>
      </trkpt>
      <trkpt lat="39.6185120" lon="-7.6396230">
        <ele>130.4</ele>
        <time>2019-07-10T16:19:37Z</time>
      </trkpt>
      <trkpt lat="39.6185620" lon="-7.6397110">
        <ele>130.6</ele>
        <time>2019-07-10T16:19:39Z</time>
      </trkpt>
      <trkpt lat="39.6185780" lon="-7.6397710">
        <ele>130.0</ele>
        <time>2019-07-10T16:19:40Z</time>
      </trkpt>
      <trkpt lat="39.6185830" lon="-7.6399070">
        <ele>129.6</ele>
        <time>2019-07-10T16:19:42Z</time>
      </trkpt>
      <trkpt lat="39.6185930" lon="-7.6399710">
        <ele>129.2</ele>
        <time>2019-07-10T16:19:43Z</time>
      </trkpt>
      <trkpt lat="39.6186210" lon="-7.6400240">
        <ele>129.2</ele>
        <time>2019-07-10T16:19:44Z</time>
      </trkpt>
      <trkpt lat="39.6187490" lon="-7.6400690">
        <ele>128.6</ele>
        <time>2019-07-10T16:19:47Z</time>
      </trkpt>
      <trkpt lat="39.6187880" lon="-7.6400690">
        <ele>128.6</ele>
        <time>2019-07-10T16:19:48Z</time>
      </trkpt>
      <trkpt lat="39.6188590" lon="-7.6400800">
        <ele>128.8</ele>
        <time>2019-07-10T16:19:50Z</time>
      </trkpt>
      <trkpt lat="39.6189090" lon="-7.6401150">
        <ele>129.0</ele>
        <time>2019-07-10T16:19:52Z</time>
      </trkpt>
      <trkpt lat="39.6189370" lon="-7.6401550">
        <ele>130.0</ele>
        <time>2019-07-10T16:19:54Z</time>
      </trkpt>
      <trkpt lat="39.6189490" lon="-7.6401780">
        <ele>130.4</ele>
        <time>2019-07-10T16:19:55Z</time>
      </trkpt>
      <trkpt lat="39.6189730" lon="-7.6402330">
        <ele>131.4</ele>
        <time>2019-07-10T16:19:57Z</time>
      </trkpt>
      <trkpt lat="39.6189830" lon="-7.6402640">
        <ele>131.6</ele>
        <time>2019-07-10T16:19:58Z</time>
      </trkpt>
      <trkpt lat="39.6190220" lon="-7.6404090">
        <ele>132.2</ele>
        <time>2019-07-10T16:20:02Z</time>
      </trkpt>
      <trkpt lat="39.6190380" lon="-7.6405400">
        <ele>132.2</ele>
        <time>2019-07-10T16:20:05Z</time>
      </trkpt>
      <trkpt lat="39.6190510" lon="-7.6407580">
        <ele>132.8</ele>
        <time>2019-07-10T16:20:10Z</time>
      </trkpt>
      <trkpt lat="39.6190540" lon="-7.6408470">
        <ele>132.8</ele>
        <time>2019-07-10T16:20:12Z</time>
      </trkpt>
      <trkpt lat="39.6190730" lon="-7.6410570">
        <ele>132.4</ele>
        <time>2019-07-10T16:20:16Z</time>
      </trkpt>
      <trkpt lat="39.6190760" lon="-7.6411070">
        <ele>132.2</ele>
        <time>2019-07-10T16:20:17Z</time>
      </trkpt>
      <trkpt lat="39.6190850" lon="-7.6411850">
        <ele>131.4</ele>
        <time>2019-07-10T16:20:19Z</time>
      </trkpt>
      <trkpt lat="39.6190900" lon="-7.6412300">
        <ele>131.2</ele>
        <time>2019-07-10T16:20:20Z</time>
      </trkpt>
      <trkpt lat="39.6191020" lon="-7.6412870">
        <ele>131.0</ele>
        <time>2019-07-10T16:20:21Z</time>
      </trkpt>
      <trkpt lat="39.6191700" lon="-7.6414510">
        <ele>130.8</ele>
        <time>2019-07-10T16:20:24Z</time>
      </trkpt>
      <trkpt lat="39.6191940" lon="-7.6414910">
        <ele>130.6</ele>
        <time>2019-07-10T16:20:25Z</time>
      </trkpt>
      <trkpt lat="39.6192220" lon="-7.6415200">
        <ele>130.0</ele>
        <time>2019-07-10T16:20:26Z</time>
      </trkpt>
      <trkpt lat="39.6193310" lon="-7.6415750">
        <ele>129.4</ele>
        <time>2019-07-10T16:20:29Z</time>
      </trkpt>
      <trkpt lat="39.6194800" lon="-7.6416650">
        <ele>128.8</ele>
        <time>2019-07-10T16:20:34Z</time>
      </trkpt>
      <trkpt lat="39.6195190" lon="-7.6417460">
        <ele>127.8</ele>
        <time>2019-07-10T16:20:38Z</time>
      </trkpt>
      <trkpt lat="39.6195410" lon="-7.6417750">
        <ele>127.6</ele>
        <time>2019-07-10T16:23:20Z</time>
      </trkpt>
      <trkpt lat="39.6195620" lon="-7.6418050">
        <ele>127.4</ele>
        <time>2019-07-10T16:23:21Z</time>
      </trkpt>
      <trkpt lat="39.6197040" lon="-7.6420680">
        <ele>126.6</ele>
        <time>2019-07-10T16:23:27Z</time>
      </trkpt>
      <trkpt lat="39.6197600" lon="-7.6422450">
        <ele>126.2</ele>
        <time>2019-07-10T16:23:31Z</time>
      </trkpt>
      <trkpt lat="39.6197930" lon="-7.6423430">
        <ele>126.6</ele>
        <time>2019-07-10T16:23:34Z</time>
      </trkpt>
      <trkpt lat="39.6198240" lon="-7.6424240">
        <ele>127.6</ele>
        <time>2019-07-10T16:23:37Z</time>
      </trkpt>
      <trkpt lat="39.6198320" lon="-7.6424520">
        <ele>127.8</ele>
        <time>2019-07-10T16:23:38Z</time>
      </trkpt>
      <trkpt lat="39.6198470" lon="-7.6425010">
        <ele>128.4</ele>
        <time>2019-07-10T16:23:40Z</time>
      </trkpt>
      <trkpt lat="39.6198550" lon="-7.6425250">
        <ele>128.8</ele>
        <time>2019-07-10T16:23:41Z</time>
      </trkpt>
      <trkpt lat="39.6198620" lon="-7.6425510">
        <ele>129.0</ele>
        <time>2019-07-10T16:23:42Z</time>
      </trkpt>
      <trkpt lat="39.6199010" lon="-7.6426940">
        <ele>129.6</ele>
        <time>2019-07-10T16:23:46Z</time>
      </trkpt>
      <trkpt lat="39.6199630" lon="-7.6429830">
        <ele>128.8</ele>
        <time>2019-07-10T16:23:51Z</time>
      </trkpt>
      <trkpt lat="39.6200100" lon="-7.6432200">
        <ele>128.8</ele>
        <time>2019-07-10T16:23:57Z</time>
      </trkpt>
      <trkpt lat="39.6200370" lon="-7.6433610">
        <ele>129.8</ele>
        <time>2019-07-10T16:24:01Z</time>
      </trkpt>
      <trkpt lat="39.6200470" lon="-7.6433930">
        <ele>130.4</ele>
        <time>2019-07-10T16:24:02Z</time>
      </trkpt>
      <trkpt lat="39.6200570" lon="-7.6434540">
        <ele>131.2</ele>
        <time>2019-07-10T16:24:04Z</time>
      </trkpt>
      <trkpt lat="39.6200660" lon="-7.6435110">
        <ele>131.4</ele>
        <time>2019-07-10T16:24:06Z</time>
      </trkpt>
      <trkpt lat="39.6201130" lon="-7.6436400">
        <ele>132.0</ele>
        <time>2019-07-10T16:24:10Z</time>
      </trkpt>
      <trkpt lat="39.6201870" lon="-7.6438270">
        <ele>132.8</ele>
        <time>2019-07-10T16:24:15Z</time>
      </trkpt>
      <trkpt lat="39.6202040" lon="-7.6438670">
        <ele>132.8</ele>
        <time>2019-07-10T16:24:16Z</time>
      </trkpt>
      <trkpt lat="39.6203330" lon="-7.6441540">
        <ele>132.8</ele>
        <time>2019-07-10T16:24:22Z</time>
      </trkpt>
      <trkpt lat="39.6204600" lon="-7.6444440">
        <ele>132.0</ele>
        <time>2019-07-10T16:24:27Z</time>
      </trkpt>
      <trkpt lat="39.6204900" lon="-7.6445100">
        <ele>131.6</ele>
        <time>2019-07-10T16:24:28Z</time>
      </trkpt>
      <trkpt lat="39.6205210" lon="-7.6445800">
        <ele>131.6</ele>
        <time>2019-07-10T16:24:29Z</time>
      </trkpt>
      <trkpt lat="39.6206230" lon="-7.6447990">
        <ele>130.6</ele>
        <time>2019-07-10T16:24:32Z</time>
      </trkpt>
      <trkpt lat="39.6206860" lon="-7.6449490">
        <ele>130.4</ele>
        <time>2019-07-10T16:24:34Z</time>
      </trkpt>
      <trkpt lat="39.6207170" lon="-7.6450220">
        <ele>130.4</ele>
        <time>2019-07-10T16:24:35Z</time>
      </trkpt>
      <trkpt lat="39.6207450" lon="-7.6450920">
        <ele>130.4</ele>
        <time>2019-07-10T16:24:36Z</time>
      </trkpt>
      <trkpt lat="39.6207710" lon="-7.6451580">
        <ele>130.2</ele>
        <time>2019-07-10T16:24:37Z</time>
      </trkpt>
      <trkpt lat="39.6208220" lon="-7.6452880">
        <ele>130.0</ele>
        <time>2019-07-10T16:24:39Z</time>
      </trkpt>
      <trkpt lat="39.6208690" lon="-7.6454240">
        <ele>129.6</ele>
        <time>2019-07-10T16:24:41Z</time>
      </trkpt>
      <trkpt lat="39.6208910" lon="-7.6454970">
        <ele>129.4</ele>
        <time>2019-07-10T16:24:42Z</time>
      </trkpt>
      <trkpt lat="39.6209170" lon="-7.6455720">
        <ele>129.4</ele>
        <time>2019-07-10T16:24:43Z</time>
      </trkpt>
      <trkpt lat="39.6209480" lon="-7.6456440">
        <ele>129.0</ele>
        <time>2019-07-10T16:24:44Z</time>
      </trkpt>
      <trkpt lat="39.6210150" lon="-7.6457800">
        <ele>128.0</ele>
        <time>2019-07-10T16:24:46Z</time>
      </trkpt>
      <trkpt lat="39.6210860" lon="-7.6459040">
        <ele>127.6</ele>
        <time>2019-07-10T16:24:48Z</time>
      </trkpt>
      <trkpt lat="39.6211230" lon="-7.6459660">
        <ele>127.4</ele>
        <time>2019-07-10T16:24:49Z</time>
      </trkpt>
      <trkpt lat="39.6212270" lon="-7.6461660">
        <ele>127.4</ele>
        <time>2019-07-10T16:24:52Z</time>
      </trkpt>
      <trkpt lat="39.6212960" lon="-7.6462960">
        <ele>127.2</ele>
        <time>2019-07-10T16:24:54Z</time>
      </trkpt>
      <trkpt lat="39.6213290" lon="-7.6463540">
        <ele>127.0</ele>
        <time>2019-07-10T16:24:55Z</time>
      </trkpt>
      <trkpt lat="39.6214280" lon="-7.6465070">
        <ele>126.4</ele>
        <time>2019-07-10T16:24:58Z</time>
      </trkpt>
      <trkpt lat="39.6214940" lon="-7.6466000">
        <ele>126.0</ele>
        <time>2019-07-10T16:25:00Z</time>
      </trkpt>
      <trkpt lat="39.6215570" lon="-7.6466850">
        <ele>126.2</ele>
        <time>2019-07-10T16:25:02Z</time>
      </trkpt>
      <trkpt lat="39.6216150" lon="-7.6467600">
        <ele>126.4</ele>
        <time>2019-07-10T16:25:04Z</time>
      </trkpt>
      <trkpt lat="39.6216700" lon="-7.6468280">
        <ele>126.4</ele>
        <time>2019-07-10T16:25:06Z</time>
      </trkpt>
      <trkpt lat="39.6216940" lon="-7.6468580">
        <ele>126.6</ele>
        <time>2019-07-10T16:25:07Z</time>
      </trkpt>
      <trkpt lat="39.6217190" lon="-7.6468860">
        <ele>126.8</ele>
        <time>2019-07-10T16:25:08Z</time>
      </trkpt>
      <trkpt lat="39.6217440" lon="-7.6469140">
        <ele>127.2</ele>
        <time>2019-07-10T16:25:09Z</time>
      </trkpt>
      <trkpt lat="39.6218460" lon="-7.6470320">
        <ele>128.2</ele>
        <time>2019-07-10T16:25:13Z</time>
      </trkpt>
      <trkpt lat="39.6219560" lon="-7.6471540">
        <ele>128.6</ele>
        <time>2019-07-10T16:25:17Z</time>
      </trkpt>
      <trkpt lat="39.6219850" lon="-7.6471850">
        <ele>128.6</ele>
        <time>2019-07-10T16:25:18Z</time>
      </trkpt>
      <trkpt lat="39.6221130" lon="-7.6472980">
        <ele>128.2</ele>
        <time>2019-07-10T16:25:22Z</time>
      </trkpt>
      <trkpt lat="39.6221940" lon="-7.6474120">
        <ele>127.0</ele>
        <time>2019-07-10T16:25:25Z</time>
      </trkpt>
      <trkpt lat="39.6222510" lon="-7.6474950">
        <ele>125.8</ele>
        <time>2019-07-10T16:25:27Z</time>
      </trkpt>
      <trkpt lat="39.6223150" lon="-7.6475870">
        <ele>124.6</ele>
        <time>2019-07-10T16:25:29Z</time>
      </trkpt>
      <trkpt lat="39.6223790" lon="-7.6476810">
        <ele>123.6</ele>
        <time>2019-07-10T16:25:31Z</time>
      </trkpt>
      <trkpt lat="39.6224370" lon="-7.6477870">
        <ele>122.4</ele>
        <time>2019-07-10T16:25:34Z</time>
      </trkpt>
      <trkpt lat="39.6224330" lon="-7.6479180">
        <ele>121.4</ele>
        <time>2019-07-10T16:25:38Z</time>
      </trkpt>
      <trkpt lat="39.6224030" lon="-7.6479610">
        <ele>120.2</ele>
        <time>2019-07-10T16:25:40Z</time>
      </trkpt>
      <trkpt lat="39.6223420" lon="-7.6480160">
        <ele>119.4</ele>
        <time>2019-07-10T16:25:42Z</time>
      </trkpt>
      <trkpt lat="39.6223050" lon="-7.6480490">
        <ele>119.0</ele>
        <time>2019-07-10T16:25:43Z</time>
      </trkpt>
      <trkpt lat="39.6222100" lon="-7.6481370">
        <ele>118.0</ele>
        <time>2019-07-10T16:25:46Z</time>
      </trkpt>
      <trkpt lat="39.6221800" lon="-7.6481550">
        <ele>117.6</ele>
        <time>2019-07-10T16:25:47Z</time>
      </trkpt>
      <trkpt lat="39.6221230" lon="-7.6481920">
        <ele>116.2</ele>
        <time>2019-07-10T16:25:49Z</time>
      </trkpt>
      <trkpt lat="39.6220650" lon="-7.6482420">
        <ele>115.2</ele>
        <time>2019-07-10T16:25:51Z</time>
      </trkpt>
      <trkpt lat="39.6220010" lon="-7.6483070">
        <ele>114.0</ele>
        <time>2019-07-10T16:25:53Z</time>
      </trkpt>
      <trkpt lat="39.6219700" lon="-7.6483390">
        <ele>113.8</ele>
        <time>2019-07-10T16:25:54Z</time>
      </trkpt>
      <trkpt lat="39.6219210" lon="-7.6484060">
        <ele>112.8</ele>
        <time>2019-07-10T16:25:56Z</time>
      </trkpt>
      <trkpt lat="39.6218820" lon="-7.6484660">
        <ele>111.8</ele>
        <time>2019-07-10T16:25:58Z</time>
      </trkpt>
      <trkpt lat="39.6218760" lon="-7.6484940">
        <ele>111.2</ele>
        <time>2019-07-10T16:25:59Z</time>
      </trkpt>
      <trkpt lat="39.6218940" lon="-7.6485350">
        <ele>110.4</ele>
        <time>2019-07-10T16:26:01Z</time>
      </trkpt>
      <trkpt lat="39.6219250" lon="-7.6485360">
        <ele>109.6</ele>
        <time>2019-07-10T16:26:03Z</time>
      </trkpt>
      <trkpt lat="39.6219430" lon="-7.6485190">
        <ele>109.2</ele>
        <time>2019-07-10T16:26:04Z</time>
      </trkpt>
      <trkpt lat="39.6219830" lon="-7.6484640">
        <ele>108.2</ele>
        <time>2019-07-10T16:26:06Z</time>
      </trkpt>
      <trkpt lat="39.6220070" lon="-7.6484320">
        <ele>108.0</ele>
        <time>2019-07-10T16:26:07Z</time>
      </trkpt>
      <trkpt lat="39.6220340" lon="-7.6483990">
        <ele>107.8</ele>
        <time>2019-07-10T16:26:08Z</time>
      </trkpt>
      <trkpt lat="39.6221740" lon="-7.6482890">
        <ele>107.4</ele>
        <time>2019-07-10T16:26:13Z</time>
      </trkpt>
      <trkpt lat="39.6221980" lon="-7.6482750">
        <ele>107.6</ele>
        <time>2019-07-10T16:26:14Z</time>
      </trkpt>
      <trkpt lat="39.6222230" lon="-7.6482620">
        <ele>108.0</ele>
        <time>2019-07-10T16:26:15Z</time>
      </trkpt>
      <trkpt lat="39.6222760" lon="-7.6482380">
        <ele>108.4</ele>
        <time>2019-07-10T16:26:17Z</time>
      </trkpt>
      <trkpt lat="39.6223350" lon="-7.6482060">
        <ele>109.0</ele>
        <time>2019-07-10T16:26:19Z</time>
      </trkpt>
      <trkpt lat="39.6223650" lon="-7.6481910">
        <ele>109.2</ele>
        <time>2019-07-10T16:26:20Z</time>
      </trkpt>
      <trkpt lat="39.6223970" lon="-7.6481800">
        <ele>109.4</ele>
        <time>2019-07-10T16:26:21Z</time>
      </trkpt>
      <trkpt lat="39.6224730" lon="-7.6481660">
        <ele>109.4</ele>
        <time>2019-07-10T16:26:23Z</time>
      </trkpt>
      <trkpt lat="39.6225560" lon="-7.6481890">
        <ele>109.2</ele>
        <time>2019-07-10T16:26:25Z</time>
      </trkpt>
      <trkpt lat="39.6226420" lon="-7.6482550">
        <ele>109.0</ele>
        <time>2019-07-10T16:26:28Z</time>
      </trkpt>
      <trkpt lat="39.6226670" lon="-7.6482830">
        <ele>108.2</ele>
        <time>2019-07-10T16:26:29Z</time>
      </trkpt>
      <trkpt lat="39.6226910" lon="-7.6483130">
        <ele>107.8</ele>
        <time>2019-07-10T16:26:30Z</time>
      </trkpt>
      <trkpt lat="39.6227160" lon="-7.6483460">
        <ele>107.2</ele>
        <time>2019-07-10T16:26:31Z</time>
      </trkpt>
      <trkpt lat="39.6227610" lon="-7.6484100">
        <ele>106.0</ele>
        <time>2019-07-10T16:26:33Z</time>
      </trkpt>
      <trkpt lat="39.6228010" lon="-7.6484680">
        <ele>104.6</ele>
        <time>2019-07-10T16:26:35Z</time>
      </trkpt>
      <trkpt lat="39.6228320" lon="-7.6485050">
        <ele>103.4</ele>
        <time>2019-07-10T16:26:37Z</time>
      </trkpt>
      <trkpt lat="39.6228550" lon="-7.6485280">
        <ele>102.8</ele>
        <time>2019-07-10T16:26:39Z</time>
      </trkpt>
      <trkpt lat="39.6228590" lon="-7.6485400">
        <ele>102.2</ele>
        <time>2019-07-10T16:26:41Z</time>
      </trkpt>
      <trkpt lat="39.6228600" lon="-7.6485440">
        <ele>102.2</ele>
        <time>2019-07-10T16:26:42Z</time>
      </trkpt>
      <trkpt lat="39.6230750" lon="-7.6483130">
        <ele>100.0</ele>
        <time>2019-07-10T16:27:28Z</time>
      </trkpt>
      <trkpt lat="39.6230410" lon="-7.6483340">
        <ele>100.2</ele>
        <time>2019-07-10T16:27:31Z</time>
      </trkpt>
      <trkpt lat="39.6229990" lon="-7.6483580">
        <ele>100.4</ele>
        <time>2019-07-10T16:27:35Z</time>
      </trkpt>
      <trkpt lat="39.6229690" lon="-7.6483810">
        <ele>100.4</ele>
        <time>2019-07-10T16:27:38Z</time>
      </trkpt>
      <trkpt lat="39.6229400" lon="-7.6484100">
        <ele>100.2</ele>
        <time>2019-07-10T16:27:41Z</time>
      </trkpt>
      <trkpt lat="39.6229000" lon="-7.6484290">
        <ele>100.8</ele>
        <time>2019-07-10T16:27:45Z</time>
      </trkpt>
      <trkpt lat="39.6228940" lon="-7.6484310">
        <ele>101.0</ele>
        <time>2019-07-10T16:27:46Z</time>
      </trkpt>
      <trkpt lat="39.6228690" lon="-7.6484450">
        <ele>101.8</ele>
        <time>2019-07-10T16:27:50Z</time>
      </trkpt>
      <trkpt lat="39.6228770" lon="-7.6484870">
        <ele>102.0</ele>
        <time>2019-07-10T16:27:52Z</time>
      </trkpt>
      <trkpt lat="39.6228750" lon="-7.6484960">
        <ele>102.2</ele>
        <time>2019-07-10T16:27:53Z</time>
      </trkpt>
      <trkpt lat="39.6228810" lon="-7.6485030">
        <ele>102.4</ele>
        <time>2019-07-10T16:27:55Z</time>
      </trkpt>
      <trkpt lat="39.6228430" lon="-7.6486410">
        <ele>101.6</ele>
        <time>2019-07-10T16:28:22Z</time>
      </trkpt>
      <trkpt lat="39.6228160" lon="-7.6486650">
        <ele>101.8</ele>
        <time>2019-07-10T16:28:23Z</time>
      </trkpt>
      <trkpt lat="39.6227770" lon="-7.6486900">
        <ele>101.8</ele>
        <time>2019-07-10T16:28:24Z</time>
      </trkpt>
      <trkpt lat="39.6226190" lon="-7.6487550">
        <ele>101.0</ele>
        <time>2019-07-10T16:28:28Z</time>
      </trkpt>
      <trkpt lat="39.6225890" lon="-7.6487660">
        <ele>100.6</ele>
        <time>2019-07-10T16:28:29Z</time>
      </trkpt>
      <trkpt lat="39.6225420" lon="-7.6487830">
        <ele>99.8</ele>
        <time>2019-07-10T16:28:31Z</time>
      </trkpt>
      <trkpt lat="39.6224980" lon="-7.6487940">
        <ele>100.2</ele>
        <time>2019-07-10T16:28:33Z</time>
      </trkpt>
      <trkpt lat="39.6224450" lon="-7.6488200">
        <ele>100.8</ele>
        <time>2019-07-10T16:28:36Z</time>
      </trkpt>
      <trkpt lat="39.6224300" lon="-7.6488350">
        <ele>101.2</ele>
        <time>2019-07-10T16:28:37Z</time>
      </trkpt>
      <trkpt lat="39.6224050" lon="-7.6488710">
        <ele>101.6</ele>
        <time>2019-07-10T16:28:39Z</time>
      </trkpt>
      <trkpt lat="39.6223930" lon="-7.6489490">
        <ele>102.4</ele>
        <time>2019-07-10T16:28:42Z</time>
      </trkpt>
      <trkpt lat="39.6223870" lon="-7.6490290">
        <ele>103.4</ele>
        <time>2019-07-10T16:28:45Z</time>
      </trkpt>
      <trkpt lat="39.6223790" lon="-7.6491000">
        <ele>104.2</ele>
        <time>2019-07-10T16:28:48Z</time>
      </trkpt>
      <trkpt lat="39.6223790" lon="-7.6491250">
        <ele>104.4</ele>
        <time>2019-07-10T16:28:49Z</time>
      </trkpt>
      <trkpt lat="39.6223790" lon="-7.6491790">
        <ele>105.0</ele>
        <time>2019-07-10T16:28:51Z</time>
      </trkpt>
      <trkpt lat="39.6223810" lon="-7.6492570">
        <ele>105.4</ele>
        <time>2019-07-10T16:28:54Z</time>
      </trkpt>
      <trkpt lat="39.6223860" lon="-7.6492790">
        <ele>105.6</ele>
        <time>2019-07-10T16:28:55Z</time>
      </trkpt>
      <trkpt lat="39.6223940" lon="-7.6493550">
        <ele>106.2</ele>
        <time>2019-07-10T16:28:58Z</time>
      </trkpt>
      <trkpt lat="39.6223930" lon="-7.6493790">
        <ele>106.4</ele>
        <time>2019-07-10T16:28:59Z</time>
      </trkpt>
      <trkpt lat="39.6223790" lon="-7.6494530">
        <ele>106.8</ele>
        <time>2019-07-10T16:29:02Z</time>
      </trkpt>
      <trkpt lat="39.6223680" lon="-7.6495050">
        <ele>107.4</ele>
        <time>2019-07-10T16:29:04Z</time>
      </trkpt>
      <trkpt lat="39.6223600" lon="-7.6495580">
        <ele>108.2</ele>
        <time>2019-07-10T16:29:06Z</time>
      </trkpt>
      <trkpt lat="39.6223340" lon="-7.6496580">
        <ele>109.6</ele>
        <time>2019-07-10T16:29:10Z</time>
      </trkpt>
      <trkpt lat="39.6223140" lon="-7.6497380">
        <ele>110.6</ele>
        <time>2019-07-10T16:29:13Z</time>
      </trkpt>
      <trkpt lat="39.6223090" lon="-7.6497660">
        <ele>110.8</ele>
        <time>2019-07-10T16:29:14Z</time>
      </trkpt>
      <trkpt lat="39.6222740" lon="-7.6498870">
        <ele>111.6</ele>
        <time>2019-07-10T16:29:19Z</time>
      </trkpt>
      <trkpt lat="39.6222650" lon="-7.6499120">
        <ele>111.8</ele>
        <time>2019-07-10T16:29:20Z</time>
      </trkpt>
      <trkpt lat="39.6222570" lon="-7.6499410">
        <ele>112.2</ele>
        <time>2019-07-10T16:29:21Z</time>
      </trkpt>
      <trkpt lat="39.6222350" lon="-7.6500360">
        <ele>113.4</ele>
        <time>2019-07-10T16:29:24Z</time>
      </trkpt>
      <trkpt lat="39.6222160" lon="-7.6501020">
        <ele>113.6</ele>
        <time>2019-07-10T16:29:26Z</time>
      </trkpt>
      <trkpt lat="39.6221480" lon="-7.6503550">
        <ele>114.6</ele>
        <time>2019-07-10T16:29:34Z</time>
      </trkpt>
      <trkpt lat="39.6220850" lon="-7.6506300">
        <ele>115.6</ele>
        <time>2019-07-10T16:29:43Z</time>
      </trkpt>
      <trkpt lat="39.6220860" lon="-7.6508750">
        <ele>116.8</ele>
        <time>2019-07-10T16:29:50Z</time>
      </trkpt>
      <trkpt lat="39.6221140" lon="-7.6510560">
        <ele>118.0</ele>
        <time>2019-07-10T16:29:56Z</time>
      </trkpt>
      <trkpt lat="39.6221260" lon="-7.6511100">
        <ele>118.6</ele>
        <time>2019-07-10T16:29:58Z</time>
      </trkpt>
      <trkpt lat="39.6221470" lon="-7.6511930">
        <ele>119.0</ele>
        <time>2019-07-10T16:30:01Z</time>
      </trkpt>
      <trkpt lat="39.6221820" lon="-7.6513020">
        <ele>120.2</ele>
        <time>2019-07-10T16:30:05Z</time>
      </trkpt>
      <trkpt lat="39.6222450" lon="-7.6514300">
        <ele>121.4</ele>
        <time>2019-07-10T16:30:10Z</time>
      </trkpt>
      <trkpt lat="39.6222900" lon="-7.6514930">
        <ele>122.0</ele>
        <time>2019-07-10T16:30:13Z</time>
      </trkpt>
      <trkpt lat="39.6223240" lon="-7.6515330">
        <ele>122.4</ele>
        <time>2019-07-10T16:30:15Z</time>
      </trkpt>
      <trkpt lat="39.6223970" lon="-7.6515950">
        <ele>122.6</ele>
        <time>2019-07-10T16:30:19Z</time>
      </trkpt>
      <trkpt lat="39.6225080" lon="-7.6516540">
        <ele>123.6</ele>
        <time>2019-07-10T16:30:24Z</time>
      </trkpt>
      <trkpt lat="39.6225340" lon="-7.6516650">
        <ele>123.8</ele>
        <time>2019-07-10T16:30:25Z</time>
      </trkpt>
      <trkpt lat="39.6227580" lon="-7.6517910">
        <ele>124.8</ele>
        <time>2019-07-10T16:30:33Z</time>
      </trkpt>
      <trkpt lat="39.6229280" lon="-7.6519550">
        <ele>125.8</ele>
        <time>2019-07-10T16:30:39Z</time>
      </trkpt>
      <trkpt lat="39.6229580" lon="-7.6519820">
        <ele>125.8</ele>
        <time>2019-07-10T16:30:40Z</time>
      </trkpt>
      <trkpt lat="39.6230650" lon="-7.6520740">
        <ele>126.0</ele>
        <time>2019-07-10T16:30:44Z</time>
      </trkpt>
      <trkpt lat="39.6231160" lon="-7.6521100">
        <ele>126.4</ele>
        <time>2019-07-10T16:30:46Z</time>
      </trkpt>
      <trkpt lat="39.6231960" lon="-7.6521560">
        <ele>127.2</ele>
        <time>2019-07-10T16:30:49Z</time>
      </trkpt>
      <trkpt lat="39.6233060" lon="-7.6522200">
        <ele>128.0</ele>
        <time>2019-07-10T16:30:53Z</time>
      </trkpt>
      <trkpt lat="39.6233610" lon="-7.6522480">
        <ele>128.2</ele>
        <time>2019-07-10T16:30:55Z</time>
      </trkpt>
      <trkpt lat="39.6235200" lon="-7.6523200">
        <ele>129.4</ele>
        <time>2019-07-10T16:31:01Z</time>
      </trkpt>
      <trkpt lat="39.6236310" lon="-7.6523510">
        <ele>130.6</ele>
        <time>2019-07-10T16:31:05Z</time>
      </trkpt>
      <trkpt lat="39.6237160" lon="-7.6523600">
        <ele>131.2</ele>
        <time>2019-07-10T16:31:08Z</time>
      </trkpt>
      <trkpt lat="39.6237410" lon="-7.6523650">
        <ele>131.6</ele>
        <time>2019-07-10T16:31:09Z</time>
      </trkpt>
      <trkpt lat="39.6238480" lon="-7.6523760">
        <ele>132.2</ele>
        <time>2019-07-10T16:31:13Z</time>
      </trkpt>
      <trkpt lat="39.6239020" lon="-7.6523810">
        <ele>132.6</ele>
        <time>2019-07-10T16:31:15Z</time>
      </trkpt>
      <trkpt lat="39.6239280" lon="-7.6523820">
        <ele>132.8</ele>
        <time>2019-07-10T16:31:16Z</time>
      </trkpt>
      <trkpt lat="39.6239750" lon="-7.6523810">
        <ele>133.8</ele>
        <time>2019-07-10T16:31:18Z</time>
      </trkpt>
      <trkpt lat="39.6240400" lon="-7.6523740">
        <ele>134.8</ele>
        <time>2019-07-10T16:31:21Z</time>
      </trkpt>
      <trkpt lat="39.6240620" lon="-7.6523700">
        <ele>135.2</ele>
        <time>2019-07-10T16:31:22Z</time>
      </trkpt>
      <trkpt lat="39.6241600" lon="-7.6523500">
        <ele>136.0</ele>
        <time>2019-07-10T16:31:26Z</time>
      </trkpt>
      <trkpt lat="39.6242480" lon="-7.6523380">
        <ele>136.4</ele>
        <time>2019-07-10T16:31:29Z</time>
      </trkpt>
      <trkpt lat="39.6244100" lon="-7.6523450">
        <ele>137.0</ele>
        <time>2019-07-10T16:31:34Z</time>
      </trkpt>
      <trkpt lat="39.6244760" lon="-7.6523420">
        <ele>137.2</ele>
        <time>2019-07-10T16:31:36Z</time>
      </trkpt>
      <trkpt lat="39.6245980" lon="-7.6523250">
        <ele>138.2</ele>
        <time>2019-07-10T16:31:40Z</time>
      </trkpt>
      <trkpt lat="39.6246490" lon="-7.6523000">
        <ele>138.4</ele>
        <time>2019-07-10T16:31:42Z</time>
      </trkpt>
      <trkpt lat="39.6247770" lon="-7.6521550">
        <ele>138.6</ele>
        <time>2019-07-10T16:31:47Z</time>
      </trkpt>
      <trkpt lat="39.6248430" lon="-7.6520220">
        <ele>138.0</ele>
        <time>2019-07-10T16:31:50Z</time>
      </trkpt>
      <trkpt lat="39.6248810" lon="-7.6519320">
        <ele>137.6</ele>
        <time>2019-07-10T16:31:52Z</time>
      </trkpt>
      <trkpt lat="39.6249000" lon="-7.6518830">
        <ele>137.2</ele>
        <time>2019-07-10T16:31:53Z</time>
      </trkpt>
      <trkpt lat="39.6249160" lon="-7.6518390">
        <ele>136.8</ele>
        <time>2019-07-10T16:31:54Z</time>
      </trkpt>
      <trkpt lat="39.6249360" lon="-7.6517650">
        <ele>136.4</ele>
        <time>2019-07-10T16:31:56Z</time>
      </trkpt>
      <trkpt lat="39.6249420" lon="-7.6516960">
        <ele>136.0</ele>
        <time>2019-07-10T16:31:58Z</time>
      </trkpt>
      <trkpt lat="39.6249510" lon="-7.6516560">
        <ele>135.6</ele>
        <time>2019-07-10T16:31:59Z</time>
      </trkpt>
      <trkpt lat="39.6249660" lon="-7.6516210">
        <ele>135.4</ele>
        <time>2019-07-10T16:32:00Z</time>
      </trkpt>
      <trkpt lat="39.6250140" lon="-7.6515980">
        <ele>134.6</ele>
        <time>2019-07-10T16:32:02Z</time>
      </trkpt>
      <trkpt lat="39.6250340" lon="-7.6516110">
        <ele>134.4</ele>
        <time>2019-07-10T16:32:03Z</time>
      </trkpt>
      <trkpt lat="39.6250520" lon="-7.6516800">
        <ele>134.2</ele>
        <time>2019-07-10T16:32:05Z</time>
      </trkpt>
      <trkpt lat="39.6250410" lon="-7.6517790">
        <ele>133.6</ele>
        <time>2019-07-10T16:32:07Z</time>
      </trkpt>
      <trkpt lat="39.6250280" lon="-7.6518250">
        <ele>133.4</ele>
        <time>2019-07-10T16:32:08Z</time>
      </trkpt>
      <trkpt lat="39.6250160" lon="-7.6518600">
        <ele>132.8</ele>
        <time>2019-07-10T16:32:09Z</time>
      </trkpt>
      <trkpt lat="39.6250110" lon="-7.6518870">
        <ele>132.6</ele>
        <time>2019-07-10T16:32:10Z</time>
      </trkpt>
      <trkpt lat="39.6250120" lon="-7.6519130">
        <ele>132.2</ele>
        <time>2019-07-10T16:32:11Z</time>
      </trkpt>
      <trkpt lat="39.6250060" lon="-7.6519800">
        <ele>131.4</ele>
        <time>2019-07-10T16:32:13Z</time>
      </trkpt>
      <trkpt lat="39.6250010" lon="-7.6520260">
        <ele>131.0</ele>
        <time>2019-07-10T16:32:14Z</time>
      </trkpt>
      <trkpt lat="39.6249700" lon="-7.6522290">
        <ele>129.8</ele>
        <time>2019-07-10T16:32:18Z</time>
      </trkpt>
      <trkpt lat="39.6249420" lon="-7.6523530">
        <ele>128.4</ele>
        <time>2019-07-10T16:32:21Z</time>
      </trkpt>
      <trkpt lat="39.6249170" lon="-7.6524280">
        <ele>127.8</ele>
        <time>2019-07-10T16:32:23Z</time>
      </trkpt>
      <trkpt lat="39.6249040" lon="-7.6524620">
        <ele>127.4</ele>
        <time>2019-07-10T16:32:24Z</time>
      </trkpt>
      <trkpt lat="39.6248640" lon="-7.6525840">
        <ele>126.2</ele>
        <time>2019-07-10T16:32:27Z</time>
      </trkpt>
      <trkpt lat="39.6248520" lon="-7.6526340">
        <ele>125.8</ele>
        <time>2019-07-10T16:32:28Z</time>
      </trkpt>
      <trkpt lat="39.6248330" lon="-7.6527300">
        <ele>124.6</ele>
        <time>2019-07-10T16:32:30Z</time>
      </trkpt>
      <trkpt lat="39.6248100" lon="-7.6528390">
        <ele>123.4</ele>
        <time>2019-07-10T16:32:33Z</time>
      </trkpt>
      <trkpt lat="39.6248090" lon="-7.6528700">
        <ele>123.2</ele>
        <time>2019-07-10T16:32:34Z</time>
      </trkpt>
      <trkpt lat="39.6248370" lon="-7.6529020">
        <ele>123.0</ele>
        <time>2019-07-10T16:32:36Z</time>
      </trkpt>
      <trkpt lat="39.6249020" lon="-7.6528700">
        <ele>122.6</ele>
        <time>2019-07-10T16:32:40Z</time>
      </trkpt>
      <trkpt lat="39.6249270" lon="-7.6528300">
        <ele>122.6</ele>
        <time>2019-07-10T16:32:42Z</time>
      </trkpt>
      <trkpt lat="39.6249550" lon="-7.6527700">
        <ele>122.8</ele>
        <time>2019-07-10T16:32:44Z</time>
      </trkpt>
      <trkpt lat="39.6249720" lon="-7.6527380">
        <ele>122.8</ele>
        <time>2019-07-10T16:32:45Z</time>
      </trkpt>
      <trkpt lat="39.6251120" lon="-7.6525190">
        <ele>123.6</ele>
        <time>2019-07-10T16:32:52Z</time>
      </trkpt>
      <trkpt lat="39.6251320" lon="-7.6524940">
        <ele>123.6</ele>
        <time>2019-07-10T16:32:53Z</time>
      </trkpt>
      <trkpt lat="39.6251860" lon="-7.6524230">
        <ele>123.6</ele>
        <time>2019-07-10T16:32:56Z</time>
      </trkpt>
      <trkpt lat="39.6252170" lon="-7.6523860">
        <ele>124.2</ele>
        <time>2019-07-10T16:32:58Z</time>
      </trkpt>
      <trkpt lat="39.6252320" lon="-7.6523700">
        <ele>124.4</ele>
        <time>2019-07-10T16:32:59Z</time>
      </trkpt>
      <trkpt lat="39.6252520" lon="-7.6523340">
        <ele>125.0</ele>
        <time>2019-07-10T16:33:01Z</time>
      </trkpt>
      <trkpt lat="39.6252800" lon="-7.6523020">
        <ele>125.4</ele>
        <time>2019-07-10T16:33:03Z</time>
      </trkpt>
      <trkpt lat="39.6252970" lon="-7.6522900">
        <ele>125.6</ele>
        <time>2019-07-10T16:33:04Z</time>
      </trkpt>
      <trkpt lat="39.6253300" lon="-7.6522670">
        <ele>126.4</ele>
        <time>2019-07-10T16:33:06Z</time>
      </trkpt>
      <trkpt lat="39.6253470" lon="-7.6522550">
        <ele>126.8</ele>
        <time>2019-07-10T16:33:07Z</time>
      </trkpt>
      <trkpt lat="39.6253800" lon="-7.6522310">
        <ele>127.2</ele>
        <time>2019-07-10T16:33:09Z</time>
      </trkpt>
      <trkpt lat="39.6253930" lon="-7.6522180">
        <ele>128.0</ele>
        <time>2019-07-10T16:33:10Z</time>
      </trkpt>
      <trkpt lat="39.6254150" lon="-7.6521840">
        <ele>129.0</ele>
        <time>2019-07-10T16:33:12Z</time>
      </trkpt>
      <trkpt lat="39.6254420" lon="-7.6521390">
        <ele>129.8</ele>
        <time>2019-07-10T16:33:15Z</time>
      </trkpt>
      <trkpt lat="39.6254560" lon="-7.6521240">
        <ele>130.0</ele>
        <time>2019-07-10T16:33:16Z</time>
      </trkpt>
      <trkpt lat="39.6254880" lon="-7.6521050">
        <ele>130.6</ele>
        <time>2019-07-10T16:33:18Z</time>
      </trkpt>
      <trkpt lat="39.6255260" lon="-7.6520860">
        <ele>131.4</ele>
        <time>2019-07-10T16:33:20Z</time>
      </trkpt>
      <trkpt lat="39.6255960" lon="-7.6520900">
        <ele>131.8</ele>
        <time>2019-07-10T16:33:23Z</time>
      </trkpt>
      <trkpt lat="39.6257250" lon="-7.6521260">
        <ele>132.6</ele>
        <time>2019-07-10T16:33:28Z</time>
      </trkpt>
      <trkpt lat="39.6257550" lon="-7.6521340">
        <ele>132.6</ele>
        <time>2019-07-10T16:33:29Z</time>
      </trkpt>
      <trkpt lat="39.6259300" lon="-7.6521350">
        <ele>133.2</ele>
        <time>2019-07-10T16:33:34Z</time>
      </trkpt>
      <trkpt lat="39.6261160" lon="-7.6521140">
        <ele>133.6</ele>
        <time>2019-07-10T16:33:40Z</time>
      </trkpt>
      <trkpt lat="39.6261460" lon="-7.6521170">
        <ele>134.0</ele>
        <time>2019-07-10T16:33:41Z</time>
      </trkpt>
      <trkpt lat="39.6262740" lon="-7.6521470">
        <ele>134.6</ele>
        <time>2019-07-10T16:33:45Z</time>
      </trkpt>
      <trkpt lat="39.6263430" lon="-7.6521800">
        <ele>134.6</ele>
        <time>2019-07-10T16:33:47Z</time>
      </trkpt>
      <trkpt lat="39.6264190" lon="-7.6522260">
        <ele>134.4</ele>
        <time>2019-07-10T16:33:49Z</time>
      </trkpt>
      <trkpt lat="39.6265260" lon="-7.6522850">
        <ele>134.2</ele>
        <time>2019-07-10T16:33:52Z</time>
      </trkpt>
      <trkpt lat="39.6266190" lon="-7.6523330">
        <ele>133.6</ele>
        <time>2019-07-10T16:33:55Z</time>
      </trkpt>
      <trkpt lat="39.6266480" lon="-7.6523490">
        <ele>133.0</ele>
        <time>2019-07-10T16:33:56Z</time>
      </trkpt>
      <trkpt lat="39.6266780" lon="-7.6523650">
        <ele>132.6</ele>
        <time>2019-07-10T16:33:57Z</time>
      </trkpt>
      <trkpt lat="39.6267500" lon="-7.6524020">
        <ele>132.2</ele>
        <time>2019-07-10T16:33:59Z</time>
      </trkpt>
      <trkpt lat="39.6267920" lon="-7.6524210">
        <ele>132.0</ele>
        <time>2019-07-10T16:34:00Z</time>
      </trkpt>
      <trkpt lat="39.6268780" lon="-7.6524590">
        <ele>131.6</ele>
        <time>2019-07-10T16:34:02Z</time>
      </trkpt>
      <trkpt lat="39.6269700" lon="-7.6524900">
        <ele>130.4</ele>
        <time>2019-07-10T16:34:04Z</time>
      </trkpt>
      <trkpt lat="39.6270680" lon="-7.6525170">
        <ele>129.4</ele>
        <time>2019-07-10T16:34:06Z</time>
      </trkpt>
      <trkpt lat="39.6271570" lon="-7.6525450">
        <ele>128.6</ele>
        <time>2019-07-10T16:34:08Z</time>
      </trkpt>
      <trkpt lat="39.6272350" lon="-7.6525760">
        <ele>128.0</ele>
        <time>2019-07-10T16:34:10Z</time>
      </trkpt>
      <trkpt lat="39.6273430" lon="-7.6526210">
        <ele>126.8</ele>
        <time>2019-07-10T16:34:13Z</time>
      </trkpt>
      <trkpt lat="39.6273850" lon="-7.6526490">
        <ele>126.2</ele>
        <time>2019-07-10T16:34:14Z</time>
      </trkpt>
      <trkpt lat="39.6274240" lon="-7.6526880">
        <ele>125.6</ele>
        <time>2019-07-10T16:34:15Z</time>
      </trkpt>
      <trkpt lat="39.6274830" lon="-7.6527900">
        <ele>124.8</ele>
        <time>2019-07-10T16:34:17Z</time>
      </trkpt>
      <trkpt lat="39.6274950" lon="-7.6528490">
        <ele>124.6</ele>
        <time>2019-07-10T16:34:18Z</time>
      </trkpt>
      <trkpt lat="39.6274960" lon="-7.6529030">
        <ele>124.4</ele>
        <time>2019-07-10T16:34:19Z</time>
      </trkpt>
      <trkpt lat="39.6274920" lon="-7.6529530">
        <ele>124.2</ele>
        <time>2019-07-10T16:34:20Z</time>
      </trkpt>
      <trkpt lat="39.6274860" lon="-7.6530060">
        <ele>123.6</ele>
        <time>2019-07-10T16:34:21Z</time>
      </trkpt>
      <trkpt lat="39.6274830" lon="-7.6530630">
        <ele>123.2</ele>
        <time>2019-07-10T16:34:22Z</time>
      </trkpt>
      <trkpt lat="39.6275360" lon="-7.6531730">
        <ele>122.8</ele>
        <time>2019-07-10T16:34:25Z</time>
      </trkpt>
      <trkpt lat="39.6276460" lon="-7.6531730">
        <ele>122.6</ele>
        <time>2019-07-10T16:34:29Z</time>
      </trkpt>
      <trkpt lat="39.6277150" lon="-7.6531770">
        <ele>123.0</ele>
        <time>2019-07-10T16:34:31Z</time>
      </trkpt>
      <trkpt lat="39.6278850" lon="-7.6532330">
        <ele>123.6</ele>
        <time>2019-07-10T16:34:36Z</time>
      </trkpt>
      <trkpt lat="39.6280750" lon="-7.6533980">
        <ele>123.8</ele>
        <time>2019-07-10T16:34:42Z</time>
      </trkpt>
      <trkpt lat="39.6281320" lon="-7.6534370">
        <ele>123.4</ele>
        <time>2019-07-10T16:34:44Z</time>
      </trkpt>
      <trkpt lat="39.6282090" lon="-7.6535170">
        <ele>122.2</ele>
        <time>2019-07-10T16:34:47Z</time>
      </trkpt>
      <trkpt lat="39.6282340" lon="-7.6535460">
        <ele>122.0</ele>
        <time>2019-07-10T16:34:48Z</time>
      </trkpt>
      <trkpt lat="39.6283160" lon="-7.6536690">
        <ele>120.6</ele>
        <time>2019-07-10T16:34:52Z</time>
      </trkpt>
      <trkpt lat="39.6283360" lon="-7.6536970">
        <ele>120.0</ele>
        <time>2019-07-10T16:34:53Z</time>
      </trkpt>
      <trkpt lat="39.6283580" lon="-7.6537320">
        <ele>119.4</ele>
        <time>2019-07-10T16:34:54Z</time>
      </trkpt>
      <trkpt lat="39.6283970" lon="-7.6538780">
        <ele>118.0</ele>
        <time>2019-07-10T16:34:57Z</time>
      </trkpt>
      <trkpt lat="39.6283860" lon="-7.6540290">
        <ele>116.6</ele>
        <time>2019-07-10T16:35:00Z</time>
      </trkpt>
      <trkpt lat="39.6283780" lon="-7.6541240">
        <ele>115.0</ele>
        <time>2019-07-10T16:35:02Z</time>
      </trkpt>
      <trkpt lat="39.6283870" lon="-7.6541660">
        <ele>114.6</ele>
        <time>2019-07-10T16:35:03Z</time>
      </trkpt>
      <trkpt lat="39.6284040" lon="-7.6542000">
        <ele>114.0</ele>
        <time>2019-07-10T16:35:04Z</time>
      </trkpt>
      <trkpt lat="39.6284300" lon="-7.6542220">
        <ele>113.8</ele>
        <time>2019-07-10T16:35:05Z</time>
      </trkpt>
      <trkpt lat="39.6285070" lon="-7.6542170">
        <ele>113.4</ele>
        <time>2019-07-10T16:35:08Z</time>
      </trkpt>
      <trkpt lat="39.6285810" lon="-7.6542180">
        <ele>113.8</ele>
        <time>2019-07-10T16:35:11Z</time>
      </trkpt>
      <trkpt lat="39.6286310" lon="-7.6542350">
        <ele>114.2</ele>
        <time>2019-07-10T16:35:13Z</time>
      </trkpt>
      <trkpt lat="39.6287740" lon="-7.6544040">
        <ele>114.8</ele>
        <time>2019-07-10T16:35:19Z</time>
      </trkpt>
      <trkpt lat="39.6288010" lon="-7.6544420">
        <ele>114.8</ele>
        <time>2019-07-10T16:35:20Z</time>
      </trkpt>
      <trkpt lat="39.6289480" lon="-7.6546370">
        <ele>114.8</ele>
        <time>2019-07-10T16:35:25Z</time>
      </trkpt>
      <trkpt lat="39.6290030" lon="-7.6547260">
        <ele>113.6</ele>
        <time>2019-07-10T16:35:27Z</time>
      </trkpt>
      <trkpt lat="39.6290420" lon="-7.6548210">
        <ele>113.0</ele>
        <time>2019-07-10T16:35:29Z</time>
      </trkpt>
      <trkpt lat="39.6290520" lon="-7.6548680">
        <ele>112.8</ele>
        <time>2019-07-10T16:35:30Z</time>
      </trkpt>
      <trkpt lat="39.6290580" lon="-7.6549550">
        <ele>111.8</ele>
        <time>2019-07-10T16:35:32Z</time>
      </trkpt>
      <trkpt lat="39.6290420" lon="-7.6550460">
        <ele>110.2</ele>
        <time>2019-07-10T16:35:34Z</time>
      </trkpt>
      <trkpt lat="39.6290580" lon="-7.6551110">
        <ele>109.2</ele>
        <time>2019-07-10T16:35:36Z</time>
      </trkpt>
      <trkpt lat="39.6290790" lon="-7.6551360">
        <ele>108.8</ele>
        <time>2019-07-10T16:35:37Z</time>
      </trkpt>
      <trkpt lat="39.6291320" lon="-7.6551700">
        <ele>108.0</ele>
        <time>2019-07-10T16:35:39Z</time>
      </trkpt>
      <trkpt lat="39.6291860" lon="-7.6551830">
        <ele>107.8</ele>
        <time>2019-07-10T16:35:41Z</time>
      </trkpt>
      <trkpt lat="39.6292130" lon="-7.6551870">
        <ele>108.0</ele>
        <time>2019-07-10T16:35:42Z</time>
      </trkpt>
      <trkpt lat="39.6292360" lon="-7.6551830">
        <ele>108.0</ele>
        <time>2019-07-10T16:35:43Z</time>
      </trkpt>
      <trkpt lat="39.6292790" lon="-7.6551750">
        <ele>109.0</ele>
        <time>2019-07-10T16:35:45Z</time>
      </trkpt>
      <trkpt lat="39.6293000" lon="-7.6551800">
        <ele>109.6</ele>
        <time>2019-07-10T16:35:46Z</time>
      </trkpt>
      <trkpt lat="39.6293190" lon="-7.6551880">
        <ele>110.0</ele>
        <time>2019-07-10T16:35:47Z</time>
      </trkpt>
      <trkpt lat="39.6293370" lon="-7.6551990">
        <ele>110.2</ele>
        <time>2019-07-10T16:35:48Z</time>
      </trkpt>
      <trkpt lat="39.6293670" lon="-7.6552270">
        <ele>110.8</ele>
        <time>2019-07-10T16:35:50Z</time>
      </trkpt>
      <trkpt lat="39.6293940" lon="-7.6552730">
        <ele>111.4</ele>
        <time>2019-07-10T16:35:52Z</time>
      </trkpt>
      <trkpt lat="39.6294180" lon="-7.6553240">
        <ele>112.2</ele>
        <time>2019-07-10T16:35:54Z</time>
      </trkpt>
      <trkpt lat="39.6294500" lon="-7.6553710">
        <ele>112.6</ele>
        <time>2019-07-10T16:35:56Z</time>
      </trkpt>
      <trkpt lat="39.6294950" lon="-7.6554430">
        <ele>114.0</ele>
        <time>2019-07-10T16:35:59Z</time>
      </trkpt>
      <trkpt lat="39.6295370" lon="-7.6555430">
        <ele>114.6</ele>
        <time>2019-07-10T16:36:03Z</time>
      </trkpt>
      <trkpt lat="39.6295580" lon="-7.6555990">
        <ele>114.8</ele>
        <time>2019-07-10T16:36:05Z</time>
      </trkpt>
      <trkpt lat="39.6296270" lon="-7.6557820">
        <ele>116.0</ele>
        <time>2019-07-10T16:36:11Z</time>
      </trkpt>
      <trkpt lat="39.6296360" lon="-7.6558100">
        <ele>116.4</ele>
        <time>2019-07-10T16:36:12Z</time>
      </trkpt>
      <trkpt lat="39.6296740" lon="-7.6559490">
        <ele>116.8</ele>
        <time>2019-07-10T16:36:17Z</time>
      </trkpt>
      <trkpt lat="39.6296910" lon="-7.6559810">
        <ele>117.2</ele>
        <time>2019-07-10T16:36:18Z</time>
      </trkpt>
      <trkpt lat="39.6297360" lon="-7.6560570">
        <ele>117.2</ele>
        <time>2019-07-10T16:36:20Z</time>
      </trkpt>
      <trkpt lat="39.6298280" lon="-7.6561890">
        <ele>116.6</ele>
        <time>2019-07-10T16:36:23Z</time>
      </trkpt>
      <trkpt lat="39.6299520" lon="-7.6563430">
        <ele>116.2</ele>
        <time>2019-07-10T16:36:27Z</time>
      </trkpt>
      <trkpt lat="39.6299840" lon="-7.6563840">
        <ele>116.2</ele>
        <time>2019-07-10T16:36:28Z</time>
      </trkpt>
      <trkpt lat="39.6300480" lon="-7.6564680">
        <ele>116.2</ele>
        <time>2019-07-10T16:36:30Z</time>
      </trkpt>
      <trkpt lat="39.6301400" lon="-7.6565770">
        <ele>116.0</ele>
        <time>2019-07-10T16:36:33Z</time>
      </trkpt>
      <trkpt lat="39.6302490" lon="-7.6567210">
        <ele>116.0</ele>
        <time>2019-07-10T16:36:37Z</time>
      </trkpt>
      <trkpt lat="39.6303270" lon="-7.6568230">
        <ele>116.2</ele>
        <time>2019-07-10T16:36:40Z</time>
      </trkpt>
      <trkpt lat="39.6303750" lon="-7.6568930">
        <ele>116.4</ele>
        <time>2019-07-10T16:36:42Z</time>
      </trkpt>
      <trkpt lat="39.6304020" lon="-7.6569340">
        <ele>116.0</ele>
        <time>2019-07-10T16:36:43Z</time>
      </trkpt>
      <trkpt lat="39.6304570" lon="-7.6570120">
        <ele>115.8</ele>
        <time>2019-07-10T16:36:45Z</time>
      </trkpt>
      <trkpt lat="39.6305030" lon="-7.6570730">
        <ele>114.8</ele>
        <time>2019-07-10T16:36:47Z</time>
      </trkpt>
      <trkpt lat="39.6305200" lon="-7.6570990">
        <ele>114.4</ele>
        <time>2019-07-10T16:36:48Z</time>
      </trkpt>
      <trkpt lat="39.6305420" lon="-7.6571360">
        <ele>114.0</ele>
        <time>2019-07-10T16:36:52Z</time>
      </trkpt>
      <trkpt lat="39.6305810" lon="-7.6571690">
        <ele>114.0</ele>
        <time>2019-07-10T16:36:56Z</time>
      </trkpt>
      <trkpt lat="39.6305960" lon="-7.6571950">
        <ele>113.8</ele>
        <time>2019-07-10T16:36:58Z</time>
      </trkpt>
      <trkpt lat="39.6305970" lon="-7.6571960">
        <ele>113.8</ele>
        <time>2019-07-10T16:36:59Z</time>
      </trkpt>
      <trkpt lat="39.6305960" lon="-7.6571970">
        <ele>113.6</ele>
        <time>2019-07-10T16:37:00Z</time>
      </trkpt>
      <trkpt lat="39.6306180" lon="-7.6572340">
        <ele>114.0</ele>
        <time>2019-07-10T16:37:44Z</time>
      </trkpt>
      <trkpt lat="39.6306290" lon="-7.6572600">
        <ele>114.0</ele>
        <time>2019-07-10T16:37:45Z</time>
      </trkpt>
      <trkpt lat="39.6306250" lon="-7.6573940">
        <ele>113.8</ele>
        <time>2019-07-10T16:37:49Z</time>
      </trkpt>
      <trkpt lat="39.6305120" lon="-7.6575720">
        <ele>113.2</ele>
        <time>2019-07-10T16:37:54Z</time>
      </trkpt>
      <trkpt lat="39.6304110" lon="-7.6576740">
        <ele>113.0</ele>
        <time>2019-07-10T16:37:57Z</time>
      </trkpt>
      <trkpt lat="39.6303710" lon="-7.6577220">
        <ele>112.4</ele>
        <time>2019-07-10T16:37:58Z</time>
      </trkpt>
      <trkpt lat="39.6303320" lon="-7.6577730">
        <ele>111.8</ele>
        <time>2019-07-10T16:37:59Z</time>
      </trkpt>
      <trkpt lat="39.6303040" lon="-7.6578220">
        <ele>111.0</ele>
        <time>2019-07-10T16:38:00Z</time>
      </trkpt>
      <trkpt lat="39.6302850" lon="-7.6579200">
        <ele>110.6</ele>
        <time>2019-07-10T16:38:02Z</time>
      </trkpt>
      <trkpt lat="39.6303470" lon="-7.6579930">
        <ele>110.6</ele>
        <time>2019-07-10T16:38:05Z</time>
      </trkpt>
      <trkpt lat="39.6304140" lon="-7.6579910">
        <ele>110.8</ele>
        <time>2019-07-10T16:38:08Z</time>
      </trkpt>
      <trkpt lat="39.6304510" lon="-7.6579880">
        <ele>111.0</ele>
        <time>2019-07-10T16:38:10Z</time>
      </trkpt>
      <trkpt lat="39.6304690" lon="-7.6579890">
        <ele>111.2</ele>
        <time>2019-07-10T16:38:11Z</time>
      </trkpt>
      <trkpt lat="39.6305130" lon="-7.6579880">
        <ele>111.6</ele>
        <time>2019-07-10T16:38:13Z</time>
      </trkpt>
      <trkpt lat="39.6305420" lon="-7.6579890">
        <ele>111.8</ele>
        <time>2019-07-10T16:38:14Z</time>
      </trkpt>
      <trkpt lat="39.6305730" lon="-7.6579920">
        <ele>111.8</ele>
        <time>2019-07-10T16:38:15Z</time>
      </trkpt>
      <trkpt lat="39.6307520" lon="-7.6579940">
        <ele>112.0</ele>
        <time>2019-07-10T16:38:20Z</time>
      </trkpt>
      <trkpt lat="39.6307850" lon="-7.6579930">
        <ele>112.0</ele>
        <time>2019-07-10T16:38:21Z</time>
      </trkpt>
      <trkpt lat="39.6309270" lon="-7.6580490">
        <ele>112.6</ele>
        <time>2019-07-10T16:38:25Z</time>
      </trkpt>
      <trkpt lat="39.6310810" lon="-7.6582150">
        <ele>111.8</ele>
        <time>2019-07-10T16:38:29Z</time>
      </trkpt>
      <trkpt lat="39.6311690" lon="-7.6583030">
        <ele>110.4</ele>
        <time>2019-07-10T16:38:31Z</time>
      </trkpt>
      <trkpt lat="39.6312160" lon="-7.6583470">
        <ele>109.8</ele>
        <time>2019-07-10T16:38:32Z</time>
      </trkpt>
      <trkpt lat="39.6312620" lon="-7.6583920">
        <ele>109.4</ele>
        <time>2019-07-10T16:38:33Z</time>
      </trkpt>
      <trkpt lat="39.6313670" lon="-7.6584980">
        <ele>108.2</ele>
        <time>2019-07-10T16:38:36Z</time>
      </trkpt>
      <trkpt lat="39.6315120" lon="-7.6586820">
        <ele>108.2</ele>
        <time>2019-07-10T16:38:42Z</time>
      </trkpt>
      <trkpt lat="39.6315670" lon="-7.6587510">
        <ele>108.8</ele>
        <time>2019-07-10T16:38:44Z</time>
      </trkpt>
      <trkpt lat="39.6316580" lon="-7.6588910">
        <ele>109.0</ele>
        <time>2019-07-10T16:38:47Z</time>
      </trkpt>
      <trkpt lat="39.6317290" lon="-7.6589930">
        <ele>108.8</ele>
        <time>2019-07-10T16:38:49Z</time>
      </trkpt>
      <trkpt lat="39.6318800" lon="-7.6591690">
        <ele>109.0</ele>
        <time>2019-07-10T16:38:53Z</time>
      </trkpt>
      <trkpt lat="39.6319830" lon="-7.6592990">
        <ele>109.4</ele>
        <time>2019-07-10T16:38:56Z</time>
      </trkpt>
      <trkpt lat="39.6321500" lon="-7.6595110">
        <ele>110.0</ele>
        <time>2019-07-10T16:39:01Z</time>
      </trkpt>
      <trkpt lat="39.6322940" lon="-7.6596720">
        <ele>110.6</ele>
        <time>2019-07-10T16:39:05Z</time>
      </trkpt>
      <trkpt lat="39.6324060" lon="-7.6598060">
        <ele>110.8</ele>
        <time>2019-07-10T16:39:08Z</time>
      </trkpt>
      <trkpt lat="39.6325160" lon="-7.6599390">
        <ele>110.2</ele>
        <time>2019-07-10T16:39:11Z</time>
      </trkpt>
      <trkpt lat="39.6325860" lon="-7.6600490">
        <ele>109.6</ele>
        <time>2019-07-10T16:39:13Z</time>
      </trkpt>
      <trkpt lat="39.6326250" lon="-7.6601060">
        <ele>109.6</ele>
        <time>2019-07-10T16:39:14Z</time>
      </trkpt>
      <trkpt lat="39.6327760" lon="-7.6602770">
        <ele>109.2</ele>
        <time>2019-07-10T16:39:18Z</time>
      </trkpt>
      <trkpt lat="39.6328660" lon="-7.6603920">
        <ele>109.2</ele>
        <time>2019-07-10T16:39:21Z</time>
      </trkpt>
      <trkpt lat="39.6329510" lon="-7.6605230">
        <ele>109.4</ele>
        <time>2019-07-10T16:39:24Z</time>
      </trkpt>
      <trkpt lat="39.6331910" lon="-7.6608590">
        <ele>109.6</ele>
        <time>2019-07-10T16:39:32Z</time>
      </trkpt>
      <trkpt lat="39.6332330" lon="-7.6609050">
        <ele>109.8</ele>
        <time>2019-07-10T16:39:33Z</time>
      </trkpt>
      <trkpt lat="39.6333740" lon="-7.6610140">
        <ele>109.6</ele>
        <time>2019-07-10T16:39:36Z</time>
      </trkpt>
      <trkpt lat="39.6335170" lon="-7.6611240">
        <ele>109.0</ele>
        <time>2019-07-10T16:39:39Z</time>
      </trkpt>
      <trkpt lat="39.6336290" lon="-7.6612340">
        <ele>108.6</ele>
        <time>2019-07-10T16:39:42Z</time>
      </trkpt>
      <trkpt lat="39.6336610" lon="-7.6612660">
        <ele>108.4</ele>
        <time>2019-07-10T16:39:43Z</time>
      </trkpt>
      <trkpt lat="39.6338260" lon="-7.6614170">
        <ele>108.2</ele>
        <time>2019-07-10T16:39:48Z</time>
      </trkpt>
      <trkpt lat="39.6340140" lon="-7.6616220">
        <ele>109.4</ele>
        <time>2019-07-10T16:39:54Z</time>
      </trkpt>
      <trkpt lat="39.6340770" lon="-7.6616740">
        <ele>110.0</ele>
        <time>2019-07-10T16:39:56Z</time>
      </trkpt>
      <trkpt lat="39.6341110" lon="-7.6616970">
        <ele>110.6</ele>
        <time>2019-07-10T16:39:57Z</time>
      </trkpt>
      <trkpt lat="39.6342050" lon="-7.6617730">
        <ele>111.2</ele>
        <time>2019-07-10T16:40:00Z</time>
      </trkpt>
      <trkpt lat="39.6342940" lon="-7.6618560">
        <ele>111.4</ele>
        <time>2019-07-10T16:40:03Z</time>
      </trkpt>
      <trkpt lat="39.6343210" lon="-7.6618800">
        <ele>111.6</ele>
        <time>2019-07-10T16:40:04Z</time>
      </trkpt>
      <trkpt lat="39.6343960" lon="-7.6619550">
        <ele>112.2</ele>
        <time>2019-07-10T16:40:07Z</time>
      </trkpt>
      <trkpt lat="39.6344840" lon="-7.6620120">
        <ele>112.8</ele>
        <time>2019-07-10T16:40:10Z</time>
      </trkpt>
      <trkpt lat="39.6346480" lon="-7.6620560">
        <ele>114.0</ele>
        <time>2019-07-10T16:40:15Z</time>
      </trkpt>
      <trkpt lat="39.6346760" lon="-7.6620760">
        <ele>114.0</ele>
        <time>2019-07-10T16:40:16Z</time>
      </trkpt>
      <trkpt lat="39.6348210" lon="-7.6622550">
        <ele>114.2</ele>
        <time>2019-07-10T16:40:22Z</time>
      </trkpt>
      <trkpt lat="39.6349420" lon="-7.6624420">
        <ele>113.2</ele>
        <time>2019-07-10T16:40:27Z</time>
      </trkpt>
      <trkpt lat="39.6349830" lon="-7.6625070">
        <ele>113.2</ele>
        <time>2019-07-10T16:40:29Z</time>
      </trkpt>
      <trkpt lat="39.6350850" lon="-7.6626460">
        <ele>115.2</ele>
        <time>2019-07-10T16:40:35Z</time>
      </trkpt>
      <trkpt lat="39.6351020" lon="-7.6626720">
        <ele>115.4</ele>
        <time>2019-07-10T16:40:36Z</time>
      </trkpt>
      <trkpt lat="39.6352370" lon="-7.6628620">
        <ele>116.2</ele>
        <time>2019-07-10T16:40:42Z</time>
      </trkpt>
      <trkpt lat="39.6353960" lon="-7.6629610">
        <ele>116.4</ele>
        <time>2019-07-10T16:40:47Z</time>
      </trkpt>
      <trkpt lat="39.6355920" lon="-7.6630990">
        <ele>116.6</ele>
        <time>2019-07-10T16:40:53Z</time>
      </trkpt>
      <trkpt lat="39.6356690" lon="-7.6631660">
        <ele>117.2</ele>
        <time>2019-07-10T16:40:56Z</time>
      </trkpt>
      <trkpt lat="39.6357370" lon="-7.6632130">
        <ele>117.8</ele>
        <time>2019-07-10T16:40:59Z</time>
      </trkpt>
      <trkpt lat="39.6359010" lon="-7.6632920">
        <ele>118.0</ele>
        <time>2019-07-10T16:41:03Z</time>
      </trkpt>
      <trkpt lat="39.6360910" lon="-7.6633870">
        <ele>116.4</ele>
        <time>2019-07-10T16:41:07Z</time>
      </trkpt>
      <trkpt lat="39.6361320" lon="-7.6634170">
        <ele>116.2</ele>
        <time>2019-07-10T16:41:08Z</time>
      </trkpt>
      <trkpt lat="39.6361690" lon="-7.6634460">
        <ele>116.0</ele>
        <time>2019-07-10T16:41:09Z</time>
      </trkpt>
      <trkpt lat="39.6362710" lon="-7.6635330">
        <ele>115.8</ele>
        <time>2019-07-10T16:41:12Z</time>
      </trkpt>
      <trkpt lat="39.6363840" lon="-7.6636510">
        <ele>115.0</ele>
        <time>2019-07-10T16:41:15Z</time>
      </trkpt>
      <trkpt lat="39.6364580" lon="-7.6637340">
        <ele>114.4</ele>
        <time>2019-07-10T16:41:17Z</time>
      </trkpt>
      <trkpt lat="39.6365320" lon="-7.6638150">
        <ele>114.0</ele>
        <time>2019-07-10T16:41:19Z</time>
      </trkpt>
      <trkpt lat="39.6365860" lon="-7.6638710">
        <ele>113.0</ele>
        <time>2019-07-10T16:41:21Z</time>
      </trkpt>
      <trkpt lat="39.6366460" lon="-7.6639300">
        <ele>112.0</ele>
        <time>2019-07-10T16:41:24Z</time>
      </trkpt>
      <trkpt lat="39.6366990" lon="-7.6639820">
        <ele>111.8</ele>
        <time>2019-07-10T16:41:26Z</time>
      </trkpt>
      <trkpt lat="39.6367780" lon="-7.6640490">
        <ele>110.8</ele>
        <time>2019-07-10T16:41:28Z</time>
      </trkpt>
      <trkpt lat="39.6368660" lon="-7.6641230">
        <ele>109.6</ele>
        <time>2019-07-10T16:41:30Z</time>
      </trkpt>
      <trkpt lat="39.6369070" lon="-7.6641610">
        <ele>109.0</ele>
        <time>2019-07-10T16:41:31Z</time>
      </trkpt>
      <trkpt lat="39.6370230" lon="-7.6643030">
        <ele>108.6</ele>
        <time>2019-07-10T16:41:35Z</time>
      </trkpt>
      <trkpt lat="39.6370590" lon="-7.6643370">
        <ele>108.8</ele>
        <time>2019-07-10T16:41:36Z</time>
      </trkpt>
      <trkpt lat="39.6371670" lon="-7.6644350">
        <ele>109.4</ele>
        <time>2019-07-10T16:41:39Z</time>
      </trkpt>
      <trkpt lat="39.6373070" lon="-7.6645260">
        <ele>110.0</ele>
        <time>2019-07-10T16:41:43Z</time>
      </trkpt>
      <trkpt lat="39.6374990" lon="-7.6646000">
        <ele>109.4</ele>
        <time>2019-07-10T16:41:48Z</time>
      </trkpt>
      <trkpt lat="39.6375860" lon="-7.6646510">
        <ele>109.0</ele>
        <time>2019-07-10T16:41:50Z</time>
      </trkpt>
      <trkpt lat="39.6377420" lon="-7.6647610">
        <ele>108.6</ele>
        <time>2019-07-10T16:41:53Z</time>
      </trkpt>
      <trkpt lat="39.6378340" lon="-7.6648450">
        <ele>108.2</ele>
        <time>2019-07-10T16:41:55Z</time>
      </trkpt>
      <trkpt lat="39.6378700" lon="-7.6648890">
        <ele>108.0</ele>
        <time>2019-07-10T16:41:56Z</time>
      </trkpt>
      <trkpt lat="39.6379540" lon="-7.6650190">
        <ele>108.0</ele>
        <time>2019-07-10T16:41:59Z</time>
      </trkpt>
      <trkpt lat="39.6379820" lon="-7.6650500">
        <ele>108.0</ele>
        <time>2019-07-10T16:42:00Z</time>
      </trkpt>
      <trkpt lat="39.6380970" lon="-7.6651650">
        <ele>108.6</ele>
        <time>2019-07-10T16:42:04Z</time>
      </trkpt>
      <trkpt lat="39.6381270" lon="-7.6651860">
        <ele>108.6</ele>
        <time>2019-07-10T16:42:05Z</time>
      </trkpt>
      <trkpt lat="39.6382190" lon="-7.6652350">
        <ele>109.0</ele>
        <time>2019-07-10T16:42:08Z</time>
      </trkpt>
      <trkpt lat="39.6383210" lon="-7.6652810">
        <ele>109.2</ele>
        <time>2019-07-10T16:42:11Z</time>
      </trkpt>
      <trkpt lat="39.6385190" lon="-7.6654470">
        <ele>109.6</ele>
        <time>2019-07-10T16:42:17Z</time>
      </trkpt>
      <trkpt lat="39.6385770" lon="-7.6654940">
        <ele>110.6</ele>
        <time>2019-07-10T16:42:19Z</time>
      </trkpt>
      <trkpt lat="39.6386080" lon="-7.6655120">
        <ele>110.8</ele>
        <time>2019-07-10T16:42:20Z</time>
      </trkpt>
      <trkpt lat="39.6387660" lon="-7.6655860">
        <ele>111.4</ele>
        <time>2019-07-10T16:42:25Z</time>
      </trkpt>
      <trkpt lat="39.6389620" lon="-7.6656960">
        <ele>112.0</ele>
        <time>2019-07-10T16:42:31Z</time>
      </trkpt>
      <trkpt lat="39.6390650" lon="-7.6657570">
        <ele>112.6</ele>
        <time>2019-07-10T16:42:35Z</time>
      </trkpt>
      <trkpt lat="39.6391200" lon="-7.6658030">
        <ele>113.0</ele>
        <time>2019-07-10T16:42:37Z</time>
      </trkpt>
      <trkpt lat="39.6392890" lon="-7.6659200">
        <ele>112.6</ele>
        <time>2019-07-10T16:42:42Z</time>
      </trkpt>
      <trkpt lat="39.6394830" lon="-7.6660300">
        <ele>112.4</ele>
        <time>2019-07-10T16:42:47Z</time>
      </trkpt>
      <trkpt lat="39.6395490" lon="-7.6660800">
        <ele>112.2</ele>
        <time>2019-07-10T16:42:49Z</time>
      </trkpt>
      <trkpt lat="39.6397480" lon="-7.6662040">
        <ele>112.0</ele>
        <time>2019-07-10T16:42:56Z</time>
      </trkpt>
      <trkpt lat="39.6398500" lon="-7.6662210">
        <ele>112.2</ele>
        <time>2019-07-10T16:42:59Z</time>
      </trkpt>
      <trkpt lat="39.6399270" lon="-7.6662590">
        <ele>112.4</ele>
        <time>2019-07-10T16:43:01Z</time>
      </trkpt>
      <trkpt lat="39.6401660" lon="-7.6664490">
        <ele>112.6</ele>
        <time>2019-07-10T16:43:08Z</time>
      </trkpt>
      <trkpt lat="39.6402890" lon="-7.6665810">
        <ele>113.0</ele>
        <time>2019-07-10T16:43:12Z</time>
      </trkpt>
      <trkpt lat="39.6403640" lon="-7.6666270">
        <ele>113.0</ele>
        <time>2019-07-10T16:43:14Z</time>
      </trkpt>
      <trkpt lat="39.6404740" lon="-7.6666820">
        <ele>113.2</ele>
        <time>2019-07-10T16:43:17Z</time>
      </trkpt>
      <trkpt lat="39.6405250" lon="-7.6667300">
        <ele>113.4</ele>
        <time>2019-07-10T16:43:19Z</time>
      </trkpt>
      <trkpt lat="39.6405480" lon="-7.6667510">
        <ele>113.4</ele>
        <time>2019-07-10T16:43:20Z</time>
      </trkpt>
      <trkpt lat="39.6406170" lon="-7.6668380">
        <ele>114.6</ele>
        <time>2019-07-10T16:43:24Z</time>
      </trkpt>
      <trkpt lat="39.6406450" lon="-7.6668900">
        <ele>115.4</ele>
        <time>2019-07-10T16:43:26Z</time>
      </trkpt>
      <trkpt lat="39.6406590" lon="-7.6669130">
        <ele>115.6</ele>
        <time>2019-07-10T16:43:27Z</time>
      </trkpt>
      <trkpt lat="39.6407030" lon="-7.6669850">
        <ele>116.8</ele>
        <time>2019-07-10T16:43:31Z</time>
      </trkpt>
      <trkpt lat="39.6407170" lon="-7.6669980">
        <ele>117.0</ele>
        <time>2019-07-10T16:43:32Z</time>
      </trkpt>
      <trkpt lat="39.6407740" lon="-7.6670480">
        <ele>118.0</ele>
        <time>2019-07-10T16:43:36Z</time>
      </trkpt>
      <trkpt lat="39.6408270" lon="-7.6671070">
        <ele>119.0</ele>
        <time>2019-07-10T16:43:40Z</time>
      </trkpt>
      <trkpt lat="39.6408470" lon="-7.6671470">
        <ele>119.6</ele>
        <time>2019-07-10T16:43:42Z</time>
      </trkpt>
      <trkpt lat="39.6408490" lon="-7.6671930">
        <ele>120.2</ele>
        <time>2019-07-10T16:43:44Z</time>
      </trkpt>
      <trkpt lat="39.6408500" lon="-7.6672140">
        <ele>120.4</ele>
        <time>2019-07-10T16:43:45Z</time>
      </trkpt>
      <trkpt lat="39.6408680" lon="-7.6672760">
        <ele>121.2</ele>
        <time>2019-07-10T16:43:48Z</time>
      </trkpt>
      <trkpt lat="39.6408860" lon="-7.6673440">
        <ele>121.8</ele>
        <time>2019-07-10T16:43:51Z</time>
      </trkpt>
      <trkpt lat="39.6408920" lon="-7.6673940">
        <ele>122.4</ele>
        <time>2019-07-10T16:43:53Z</time>
      </trkpt>
      <trkpt lat="39.6409090" lon="-7.6674370">
        <ele>122.6</ele>
        <time>2019-07-10T16:43:55Z</time>
      </trkpt>
      <trkpt lat="39.6409340" lon="-7.6674740">
        <ele>122.8</ele>
        <time>2019-07-10T16:43:57Z</time>
      </trkpt>
      <trkpt lat="39.6409630" lon="-7.6675060">
        <ele>123.4</ele>
        <time>2019-07-10T16:43:59Z</time>
      </trkpt>
      <trkpt lat="39.6410210" lon="-7.6675690">
        <ele>124.8</ele>
        <time>2019-07-10T16:44:03Z</time>
      </trkpt>
      <trkpt lat="39.6410360" lon="-7.6675810">
        <ele>125.0</ele>
        <time>2019-07-10T16:44:04Z</time>
      </trkpt>
      <trkpt lat="39.6411320" lon="-7.6676660">
        <ele>126.0</ele>
        <time>2019-07-10T16:44:10Z</time>
      </trkpt>
      <trkpt lat="39.6411600" lon="-7.6676970">
        <ele>126.2</ele>
        <time>2019-07-10T16:44:12Z</time>
      </trkpt>
      <trkpt lat="39.6412000" lon="-7.6677380">
        <ele>127.2</ele>
        <time>2019-07-10T16:44:15Z</time>
      </trkpt>
      <trkpt lat="39.6412370" lon="-7.6677830">
        <ele>127.8</ele>
        <time>2019-07-10T16:44:18Z</time>
      </trkpt>
      <trkpt lat="39.6412980" lon="-7.6678440">
        <ele>128.2</ele>
        <time>2019-07-10T16:44:22Z</time>
      </trkpt>
      <trkpt lat="39.6413540" lon="-7.6679010">
        <ele>129.0</ele>
        <time>2019-07-10T16:44:25Z</time>
      </trkpt>
      <trkpt lat="39.6414310" lon="-7.6679810">
        <ele>129.2</ele>
        <time>2019-07-10T16:44:29Z</time>
      </trkpt>
      <trkpt lat="39.6415130" lon="-7.6680770">
        <ele>130.6</ele>
        <time>2019-07-10T16:44:34Z</time>
      </trkpt>
      <trkpt lat="39.6415290" lon="-7.6680970">
        <ele>130.8</ele>
        <time>2019-07-10T16:44:35Z</time>
      </trkpt>
      <trkpt lat="39.6415750" lon="-7.6681630">
        <ele>131.6</ele>
        <time>2019-07-10T16:44:38Z</time>
      </trkpt>
      <trkpt lat="39.6416510" lon="-7.6682520">
        <ele>132.4</ele>
        <time>2019-07-10T16:44:43Z</time>
      </trkpt>
      <trkpt lat="39.6416670" lon="-7.6682670">
        <ele>133.2</ele>
        <time>2019-07-10T16:44:44Z</time>
      </trkpt>
      <trkpt lat="39.6417020" lon="-7.6682970">
        <ele>134.2</ele>
        <time>2019-07-10T16:44:46Z</time>
      </trkpt>
      <trkpt lat="39.6417730" lon="-7.6683530">
        <ele>135.6</ele>
        <time>2019-07-10T16:44:50Z</time>
      </trkpt>
      <trkpt lat="39.6418040" lon="-7.6683790">
        <ele>136.2</ele>
        <time>2019-07-10T16:44:52Z</time>
      </trkpt>
      <trkpt lat="39.6418750" lon="-7.6684370">
        <ele>136.6</ele>
        <time>2019-07-10T16:44:56Z</time>
      </trkpt>
      <trkpt lat="39.6419120" lon="-7.6684680">
        <ele>136.8</ele>
        <time>2019-07-10T16:44:58Z</time>
      </trkpt>
      <trkpt lat="39.6420000" lon="-7.6685410">
        <ele>138.0</ele>
        <time>2019-07-10T16:45:03Z</time>
      </trkpt>
      <trkpt lat="39.6420470" lon="-7.6685850">
        <ele>139.2</ele>
        <time>2019-07-10T16:45:06Z</time>
      </trkpt>
      <trkpt lat="39.6421850" lon="-7.6686900">
        <ele>140.4</ele>
        <time>2019-07-10T16:45:13Z</time>
      </trkpt>
      <trkpt lat="39.6423720" lon="-7.6688390">
        <ele>140.8</ele>
        <time>2019-07-10T16:45:20Z</time>
      </trkpt>
      <trkpt lat="39.6424610" lon="-7.6689390">
        <ele>141.6</ele>
        <time>2019-07-10T16:45:24Z</time>
      </trkpt>
      <trkpt lat="39.6425480" lon="-7.6690250">
        <ele>142.6</ele>
        <time>2019-07-10T16:45:28Z</time>
      </trkpt>
      <trkpt lat="39.6425750" lon="-7.6690400">
        <ele>142.8</ele>
        <time>2019-07-10T16:45:29Z</time>
      </trkpt>
      <trkpt lat="39.6426750" lon="-7.6691010">
        <ele>144.0</ele>
        <time>2019-07-10T16:45:33Z</time>
      </trkpt>
      <trkpt lat="39.6427550" lon="-7.6691570">
        <ele>144.4</ele>
        <time>2019-07-10T16:45:36Z</time>
      </trkpt>
      <trkpt lat="39.6428790" lon="-7.6692620">
        <ele>145.2</ele>
        <time>2019-07-10T16:45:41Z</time>
      </trkpt>
      <trkpt lat="39.6429390" lon="-7.6693400">
        <ele>146.2</ele>
        <time>2019-07-10T16:45:44Z</time>
      </trkpt>
      <trkpt lat="39.6429560" lon="-7.6693740">
        <ele>146.4</ele>
        <time>2019-07-10T16:45:45Z</time>
      </trkpt>
      <trkpt lat="39.6430140" lon="-7.6695630">
        <ele>146.6</ele>
        <time>2019-07-10T16:45:50Z</time>
      </trkpt>
      <trkpt lat="39.6430870" lon="-7.6697520">
        <ele>146.6</ele>
        <time>2019-07-10T16:45:55Z</time>
      </trkpt>
      <trkpt lat="39.6432490" lon="-7.6698280">
        <ele>147.2</ele>
        <time>2019-07-10T16:46:00Z</time>
      </trkpt>
      <trkpt lat="39.6432840" lon="-7.6698330">
        <ele>147.4</ele>
        <time>2019-07-10T16:46:01Z</time>
      </trkpt>
      <trkpt lat="39.6434340" lon="-7.6699140">
        <ele>148.4</ele>
        <time>2019-07-10T16:46:06Z</time>
      </trkpt>
      <trkpt lat="39.6434500" lon="-7.6699440">
        <ele>148.8</ele>
        <time>2019-07-10T16:46:07Z</time>
      </trkpt>
      <trkpt lat="39.6435090" lon="-7.6701000">
        <ele>149.8</ele>
        <time>2019-07-10T16:46:12Z</time>
      </trkpt>
      <trkpt lat="39.6435280" lon="-7.6701630">
        <ele>150.0</ele>
        <time>2019-07-10T16:46:14Z</time>
      </trkpt>
      <trkpt lat="39.6435520" lon="-7.6702450">
        <ele>151.0</ele>
        <time>2019-07-10T16:46:17Z</time>
      </trkpt>
      <trkpt lat="39.6435660" lon="-7.6702700">
        <ele>151.4</ele>
        <time>2019-07-10T16:46:18Z</time>
      </trkpt>
      <trkpt lat="39.6436900" lon="-7.6703980">
        <ele>151.4</ele>
        <time>2019-07-10T16:46:22Z</time>
      </trkpt>
      <trkpt lat="39.6438490" lon="-7.6704480">
        <ele>151.0</ele>
        <time>2019-07-10T16:46:25Z</time>
      </trkpt>
      <trkpt lat="39.6439120" lon="-7.6704530">
        <ele>150.6</ele>
        <time>2019-07-10T16:46:26Z</time>
      </trkpt>
      <trkpt lat="39.6439780" lon="-7.6704520">
        <ele>150.2</ele>
        <time>2019-07-10T16:46:27Z</time>
      </trkpt>
      <trkpt lat="39.6441160" lon="-7.6704200">
        <ele>149.4</ele>
        <time>2019-07-10T16:46:29Z</time>
      </trkpt>
      <trkpt lat="39.6441900" lon="-7.6704040">
        <ele>149.2</ele>
        <time>2019-07-10T16:46:30Z</time>
      </trkpt>
      <trkpt lat="39.6443470" lon="-7.6703850">
        <ele>148.4</ele>
        <time>2019-07-10T16:46:32Z</time>
      </trkpt>
      <trkpt lat="39.6444310" lon="-7.6703860">
        <ele>147.8</ele>
        <time>2019-07-10T16:46:33Z</time>
      </trkpt>
      <trkpt lat="39.6445150" lon="-7.6704000">
        <ele>147.4</ele>
        <time>2019-07-10T16:46:34Z</time>
      </trkpt>
      <trkpt lat="39.6446840" lon="-7.6704640">
        <ele>146.8</ele>
        <time>2019-07-10T16:46:36Z</time>
      </trkpt>
      <trkpt lat="39.6448550" lon="-7.6705550">
        <ele>145.8</ele>
        <time>2019-07-10T16:46:38Z</time>
      </trkpt>
      <trkpt lat="39.6449370" lon="-7.6706180">
        <ele>145.0</ele>
        <time>2019-07-10T16:46:39Z</time>
      </trkpt>
      <trkpt lat="39.6450790" lon="-7.6707920">
        <ele>143.6</ele>
        <time>2019-07-10T16:46:41Z</time>
      </trkpt>
      <trkpt lat="39.6452960" lon="-7.6710770">
        <ele>142.2</ele>
        <time>2019-07-10T16:46:44Z</time>
      </trkpt>
      <trkpt lat="39.6453810" lon="-7.6711560">
        <ele>141.8</ele>
        <time>2019-07-10T16:46:45Z</time>
      </trkpt>
      <trkpt lat="39.6454690" lon="-7.6712310">
        <ele>141.4</ele>
        <time>2019-07-10T16:46:46Z</time>
      </trkpt>
      <trkpt lat="39.6455580" lon="-7.6713090">
        <ele>140.6</ele>
        <time>2019-07-10T16:46:47Z</time>
      </trkpt>
      <trkpt lat="39.6456440" lon="-7.6713940">
        <ele>140.0</ele>
        <time>2019-07-10T16:46:48Z</time>
      </trkpt>
      <trkpt lat="39.6457280" lon="-7.6714890">
        <ele>139.6</ele>
        <time>2019-07-10T16:46:49Z</time>
      </trkpt>
      <trkpt lat="39.6458050" lon="-7.6715940">
        <ele>138.8</ele>
        <time>2019-07-10T16:46:50Z</time>
      </trkpt>
      <trkpt lat="39.6458770" lon="-7.6717070">
        <ele>138.0</ele>
        <time>2019-07-10T16:46:51Z</time>
      </trkpt>
      <trkpt lat="39.6460030" lon="-7.6719590">
        <ele>136.4</ele>
        <time>2019-07-10T16:46:53Z</time>
      </trkpt>
      <trkpt lat="39.6460570" lon="-7.6720940">
        <ele>135.8</ele>
        <time>2019-07-10T16:46:54Z</time>
      </trkpt>
      <trkpt lat="39.6461090" lon="-7.6722320">
        <ele>135.2</ele>
        <time>2019-07-10T16:46:55Z</time>
      </trkpt>
      <trkpt lat="39.6462160" lon="-7.6725050">
        <ele>134.0</ele>
        <time>2019-07-10T16:46:57Z</time>
      </trkpt>
      <trkpt lat="39.6463260" lon="-7.6727860">
        <ele>132.8</ele>
        <time>2019-07-10T16:46:59Z</time>
      </trkpt>
      <trkpt lat="39.6464270" lon="-7.6730760">
        <ele>131.2</ele>
        <time>2019-07-10T16:47:01Z</time>
      </trkpt>
      <trkpt lat="39.6465090" lon="-7.6733740">
        <ele>129.8</ele>
        <time>2019-07-10T16:47:03Z</time>
      </trkpt>
      <trkpt lat="39.6465360" lon="-7.6735270">
        <ele>129.2</ele>
        <time>2019-07-10T16:47:04Z</time>
      </trkpt>
      <trkpt lat="39.6465500" lon="-7.6736760">
        <ele>128.4</ele>
        <time>2019-07-10T16:47:05Z</time>
      </trkpt>
      <trkpt lat="39.6465190" lon="-7.6739540">
        <ele>126.4</ele>
        <time>2019-07-10T16:47:07Z</time>
      </trkpt>
      <trkpt lat="39.6464750" lon="-7.6740840">
        <ele>125.4</ele>
        <time>2019-07-10T16:47:08Z</time>
      </trkpt>
      <trkpt lat="39.6464180" lon="-7.6742050">
        <ele>125.0</ele>
        <time>2019-07-10T16:47:09Z</time>
      </trkpt>
      <trkpt lat="39.6463110" lon="-7.6744600">
        <ele>123.6</ele>
        <time>2019-07-10T16:47:11Z</time>
      </trkpt>
      <trkpt lat="39.6462780" lon="-7.6746000">
        <ele>123.2</ele>
        <time>2019-07-10T16:47:12Z</time>
      </trkpt>
      <trkpt lat="39.6462560" lon="-7.6747420">
        <ele>122.8</ele>
        <time>2019-07-10T16:47:13Z</time>
      </trkpt>
      <trkpt lat="39.6462360" lon="-7.6748820">
        <ele>122.2</ele>
        <time>2019-07-10T16:47:14Z</time>
      </trkpt>
      <trkpt lat="39.6462110" lon="-7.6750230">
        <ele>121.6</ele>
        <time>2019-07-10T16:47:15Z</time>
      </trkpt>
      <trkpt lat="39.6461870" lon="-7.6751580">
        <ele>121.0</ele>
        <time>2019-07-10T16:47:16Z</time>
      </trkpt>
      <trkpt lat="39.6461630" lon="-7.6752860">
        <ele>120.4</ele>
        <time>2019-07-10T16:47:17Z</time>
      </trkpt>
      <trkpt lat="39.6461210" lon="-7.6755290">
        <ele>119.6</ele>
        <time>2019-07-10T16:47:19Z</time>
      </trkpt>
      <trkpt lat="39.6461190" lon="-7.6756470">
        <ele>119.4</ele>
        <time>2019-07-10T16:47:20Z</time>
      </trkpt>
      <trkpt lat="39.6462210" lon="-7.6759520">
        <ele>119.4</ele>
        <time>2019-07-10T16:47:23Z</time>
      </trkpt>
      <trkpt lat="39.6464030" lon="-7.6761240">
        <ele>119.4</ele>
        <time>2019-07-10T16:47:26Z</time>
      </trkpt>
      <trkpt lat="39.6464650" lon="-7.6761660">
        <ele>119.4</ele>
        <time>2019-07-10T16:47:27Z</time>
      </trkpt>
      <trkpt lat="39.6466350" lon="-7.6762900">
        <ele>119.4</ele>
        <time>2019-07-10T16:47:30Z</time>
      </trkpt>
      <trkpt lat="39.6467370" lon="-7.6763680">
        <ele>119.4</ele>
        <time>2019-07-10T16:47:32Z</time>
      </trkpt>
      <trkpt lat="39.6470770" lon="-7.6766010">
        <ele>119.4</ele>
        <time>2019-07-10T16:47:39Z</time>
      </trkpt>
      <trkpt lat="39.6472310" lon="-7.6767130">
        <ele>119.6</ele>
        <time>2019-07-10T16:47:42Z</time>
      </trkpt>
      <trkpt lat="39.6473820" lon="-7.6768250">
        <ele>119.6</ele>
        <time>2019-07-10T16:47:45Z</time>
      </trkpt>
      <trkpt lat="39.6474820" lon="-7.6769030">
        <ele>119.6</ele>
        <time>2019-07-10T16:47:47Z</time>
      </trkpt>
      <trkpt lat="39.6476880" lon="-7.6770280">
        <ele>119.4</ele>
        <time>2019-07-10T16:47:51Z</time>
      </trkpt>
      <trkpt lat="39.6478000" lon="-7.6770360">
        <ele>119.4</ele>
        <time>2019-07-10T16:47:53Z</time>
      </trkpt>
      <trkpt lat="39.6479460" lon="-7.6769350">
        <ele>119.4</ele>
        <time>2019-07-10T16:47:56Z</time>
      </trkpt>
      <trkpt lat="39.6479860" lon="-7.6768870">
        <ele>119.4</ele>
        <time>2019-07-10T16:47:57Z</time>
      </trkpt>
      <trkpt lat="39.6480990" lon="-7.6767430">
        <ele>119.8</ele>
        <time>2019-07-10T16:48:00Z</time>
      </trkpt>
      <trkpt lat="39.6482040" lon="-7.6765920">
        <ele>120.2</ele>
        <time>2019-07-10T16:48:03Z</time>
      </trkpt>
      <trkpt lat="39.6482370" lon="-7.6765400">
        <ele>120.4</ele>
        <time>2019-07-10T16:48:04Z</time>
      </trkpt>
      <trkpt lat="39.6483410" lon="-7.6764060">
        <ele>120.8</ele>
        <time>2019-07-10T16:48:07Z</time>
      </trkpt>
      <trkpt lat="39.6484120" lon="-7.6763230">
        <ele>121.2</ele>
        <time>2019-07-10T16:48:09Z</time>
      </trkpt>
      <trkpt lat="39.6484500" lon="-7.6762780">
        <ele>121.4</ele>
        <time>2019-07-10T16:48:10Z</time>
      </trkpt>
      <trkpt lat="39.6484860" lon="-7.6762310">
        <ele>121.6</ele>
        <time>2019-07-10T16:48:11Z</time>
      </trkpt>
      <trkpt lat="39.6486260" lon="-7.6760300">
        <ele>122.0</ele>
        <time>2019-07-10T16:48:15Z</time>
      </trkpt>
      <trkpt lat="39.6486620" lon="-7.6759790">
        <ele>122.2</ele>
        <time>2019-07-10T16:48:16Z</time>
      </trkpt>
      <trkpt lat="39.6489140" lon="-7.6756130">
        <ele>122.4</ele>
        <time>2019-07-10T16:48:23Z</time>
      </trkpt>
      <trkpt lat="39.6492740" lon="-7.6750950">
        <ele>122.2</ele>
        <time>2019-07-10T16:48:33Z</time>
      </trkpt>
      <trkpt lat="39.6494940" lon="-7.6747890">
        <ele>122.4</ele>
        <time>2019-07-10T16:48:39Z</time>
      </trkpt>
      <trkpt lat="39.6495300" lon="-7.6747300">
        <ele>122.4</ele>
        <time>2019-07-10T16:48:40Z</time>
      </trkpt>
      <trkpt lat="39.6496100" lon="-7.6746060">
        <ele>122.2</ele>
        <time>2019-07-10T16:48:42Z</time>
      </trkpt>
      <trkpt lat="39.6498440" lon="-7.6742800">
        <ele>121.0</ele>
        <time>2019-07-10T16:48:47Z</time>
      </trkpt>
      <trkpt lat="39.6499520" lon="-7.6741430">
        <ele>120.8</ele>
        <time>2019-07-10T16:48:49Z</time>
      </trkpt>
      <trkpt lat="39.6500090" lon="-7.6740750">
        <ele>120.6</ele>
        <time>2019-07-10T16:48:50Z</time>
      </trkpt>
      <trkpt lat="39.6503160" lon="-7.6737770">
        <ele>119.6</ele>
        <time>2019-07-10T16:48:55Z</time>
      </trkpt>
      <trkpt lat="39.6503800" lon="-7.6737340">
        <ele>119.6</ele>
        <time>2019-07-10T16:48:56Z</time>
      </trkpt>
      <trkpt lat="39.6506200" lon="-7.6736240">
        <ele>119.8</ele>
        <time>2019-07-10T16:49:00Z</time>
      </trkpt>
      <trkpt lat="39.6508320" lon="-7.6735580">
        <ele>120.6</ele>
        <time>2019-07-10T16:49:04Z</time>
      </trkpt>
      <trkpt lat="39.6508760" lon="-7.6735410">
        <ele>120.8</ele>
        <time>2019-07-10T16:49:05Z</time>
      </trkpt>
      <trkpt lat="39.6510820" lon="-7.6734550">
        <ele>121.6</ele>
        <time>2019-07-10T16:49:10Z</time>
      </trkpt>
      <trkpt lat="39.6512430" lon="-7.6733900">
        <ele>122.0</ele>
        <time>2019-07-10T16:49:14Z</time>
      </trkpt>
      <trkpt lat="39.6513520" lon="-7.6734360">
        <ele>122.2</ele>
        <time>2019-07-10T16:49:17Z</time>
      </trkpt>
      <trkpt lat="39.6514250" lon="-7.6735340">
        <ele>122.4</ele>
        <time>2019-07-10T16:49:20Z</time>
      </trkpt>
      <trkpt lat="39.6514540" lon="-7.6735520">
        <ele>122.8</ele>
        <time>2019-07-10T16:49:21Z</time>
      </trkpt>
      <trkpt lat="39.6515150" lon="-7.6735780">
        <ele>123.2</ele>
        <time>2019-07-10T16:49:23Z</time>
      </trkpt>
      <trkpt lat="39.6516080" lon="-7.6736210">
        <ele>124.2</ele>
        <time>2019-07-10T16:49:26Z</time>
      </trkpt>
      <trkpt lat="39.6516390" lon="-7.6736290">
        <ele>124.4</ele>
        <time>2019-07-10T16:49:27Z</time>
      </trkpt>
      <trkpt lat="39.6517230" lon="-7.6736430">
        <ele>125.4</ele>
        <time>2019-07-10T16:49:30Z</time>
      </trkpt>
      <trkpt lat="39.6517870" lon="-7.6736260">
        <ele>126.0</ele>
        <time>2019-07-10T16:49:32Z</time>
      </trkpt>
      <trkpt lat="39.6518520" lon="-7.6735990">
        <ele>126.4</ele>
        <time>2019-07-10T16:49:34Z</time>
      </trkpt>
      <trkpt lat="39.6519560" lon="-7.6735610">
        <ele>127.0</ele>
        <time>2019-07-10T16:49:37Z</time>
      </trkpt>
      <trkpt lat="39.6520960" lon="-7.6735020">
        <ele>127.6</ele>
        <time>2019-07-10T16:49:41Z</time>
      </trkpt>
      <trkpt lat="39.6522290" lon="-7.6734490">
        <ele>128.2</ele>
        <time>2019-07-10T16:49:45Z</time>
      </trkpt>
      <trkpt lat="39.6522610" lon="-7.6734380">
        <ele>128.6</ele>
        <time>2019-07-10T16:49:46Z</time>
      </trkpt>
      <trkpt lat="39.6523530" lon="-7.6734070">
        <ele>129.4</ele>
        <time>2019-07-10T16:49:49Z</time>
      </trkpt>
      <trkpt lat="39.6523830" lon="-7.6733970">
        <ele>129.6</ele>
        <time>2019-07-10T16:49:50Z</time>
      </trkpt>
      <trkpt lat="39.6524430" lon="-7.6733770">
        <ele>130.2</ele>
        <time>2019-07-10T16:49:52Z</time>
      </trkpt>
      <trkpt lat="39.6525370" lon="-7.6733490">
        <ele>130.8</ele>
        <time>2019-07-10T16:49:55Z</time>
      </trkpt>
      <trkpt lat="39.6527250" lon="-7.6733090">
        <ele>131.6</ele>
        <time>2019-07-10T16:50:01Z</time>
      </trkpt>
      <trkpt lat="39.6527560" lon="-7.6733050">
        <ele>131.8</ele>
        <time>2019-07-10T16:50:02Z</time>
      </trkpt>
      <trkpt lat="39.6529160" lon="-7.6732890">
        <ele>132.6</ele>
        <time>2019-07-10T16:50:07Z</time>
      </trkpt>
      <trkpt lat="39.6529470" lon="-7.6732860">
        <ele>133.0</ele>
        <time>2019-07-10T16:50:08Z</time>
      </trkpt>
      <trkpt lat="39.6530880" lon="-7.6732590">
        <ele>133.8</ele>
        <time>2019-07-10T16:50:13Z</time>
      </trkpt>
      <trkpt lat="39.6531140" lon="-7.6732600">
        <ele>134.0</ele>
        <time>2019-07-10T16:50:14Z</time>
      </trkpt>
      <trkpt lat="39.6532140" lon="-7.6732350">
        <ele>134.8</ele>
        <time>2019-07-10T16:50:19Z</time>
      </trkpt>
      <trkpt lat="39.6532260" lon="-7.6732520">
        <ele>135.0</ele>
        <time>2019-07-10T16:50:20Z</time>
      </trkpt>
      <trkpt lat="39.6532140" lon="-7.6733080">
        <ele>135.4</ele>
        <time>2019-07-10T16:50:23Z</time>
      </trkpt>
      <trkpt lat="39.6531580" lon="-7.6733200">
        <ele>135.4</ele>
        <time>2019-07-10T16:50:25Z</time>
      </trkpt>
      <trkpt lat="39.6530760" lon="-7.6733270">
        <ele>135.2</ele>
        <time>2019-07-10T16:50:27Z</time>
      </trkpt>
      <trkpt lat="39.6529780" lon="-7.6733400">
        <ele>134.6</ele>
        <time>2019-07-10T16:50:29Z</time>
      </trkpt>
      <trkpt lat="39.6528670" lon="-7.6733490">
        <ele>134.2</ele>
        <time>2019-07-10T16:50:31Z</time>
      </trkpt>
      <trkpt lat="39.6527460" lon="-7.6733590">
        <ele>133.6</ele>
        <time>2019-07-10T16:50:33Z</time>
      </trkpt>
      <trkpt lat="39.6526170" lon="-7.6733800">
        <ele>132.8</ele>
        <time>2019-07-10T16:50:35Z</time>
      </trkpt>
      <trkpt lat="39.6524810" lon="-7.6734130">
        <ele>132.4</ele>
        <time>2019-07-10T16:50:37Z</time>
      </trkpt>
      <trkpt lat="39.6523380" lon="-7.6734560">
        <ele>132.0</ele>
        <time>2019-07-10T16:50:39Z</time>
      </trkpt>
      <trkpt lat="39.6521860" lon="-7.6734980">
        <ele>131.2</ele>
        <time>2019-07-10T16:50:41Z</time>
      </trkpt>
      <trkpt lat="39.6520270" lon="-7.6735500">
        <ele>130.2</ele>
        <time>2019-07-10T16:50:43Z</time>
      </trkpt>
      <trkpt lat="39.6518720" lon="-7.6736080">
        <ele>129.0</ele>
        <time>2019-07-10T16:50:45Z</time>
      </trkpt>
      <trkpt lat="39.6518010" lon="-7.6736290">
        <ele>128.4</ele>
        <time>2019-07-10T16:50:46Z</time>
      </trkpt>
      <trkpt lat="39.6516650" lon="-7.6736510">
        <ele>127.6</ele>
        <time>2019-07-10T16:50:48Z</time>
      </trkpt>
      <trkpt lat="39.6515920" lon="-7.6736490">
        <ele>127.2</ele>
        <time>2019-07-10T16:50:49Z</time>
      </trkpt>
      <trkpt lat="39.6514620" lon="-7.6736250">
        <ele>126.2</ele>
        <time>2019-07-10T16:50:51Z</time>
      </trkpt>
      <trkpt lat="39.6513550" lon="-7.6735930">
        <ele>125.4</ele>
        <time>2019-07-10T16:50:53Z</time>
      </trkpt>
      <trkpt lat="39.6513120" lon="-7.6735740">
        <ele>124.8</ele>
        <time>2019-07-10T16:50:54Z</time>
      </trkpt>
      <trkpt lat="39.6512640" lon="-7.6735240">
        <ele>123.4</ele>
        <time>2019-07-10T16:50:56Z</time>
      </trkpt>
      <trkpt lat="39.6512660" lon="-7.6734810">
        <ele>122.6</ele>
        <time>2019-07-10T16:50:58Z</time>
      </trkpt>
      <trkpt lat="39.6512710" lon="-7.6734590">
        <ele>122.4</ele>
        <time>2019-07-10T16:50:59Z</time>
      </trkpt>
      <trkpt lat="39.6512840" lon="-7.6734300">
        <ele>122.2</ele>
        <time>2019-07-10T16:51:00Z</time>
      </trkpt>
      <trkpt lat="39.6513430" lon="-7.6733760">
        <ele>122.4</ele>
        <time>2019-07-10T16:51:02Z</time>
      </trkpt>
      <trkpt lat="39.6514340" lon="-7.6733370">
        <ele>122.2</ele>
        <time>2019-07-10T16:51:04Z</time>
      </trkpt>
      <trkpt lat="39.6516670" lon="-7.6732490">
        <ele>121.6</ele>
        <time>2019-07-10T16:51:08Z</time>
      </trkpt>
      <trkpt lat="39.6517310" lon="-7.6732210">
        <ele>121.2</ele>
        <time>2019-07-10T16:51:09Z</time>
      </trkpt>
      <trkpt lat="39.6519290" lon="-7.6731130">
        <ele>120.6</ele>
        <time>2019-07-10T16:51:12Z</time>
      </trkpt>
      <trkpt lat="39.6521230" lon="-7.6729710">
        <ele>119.8</ele>
        <time>2019-07-10T16:51:15Z</time>
      </trkpt>
      <trkpt lat="39.6522570" lon="-7.6728680">
        <ele>119.4</ele>
        <time>2019-07-10T16:51:17Z</time>
      </trkpt>
      <trkpt lat="39.6525210" lon="-7.6726550">
        <ele>118.4</ele>
        <time>2019-07-10T16:51:21Z</time>
      </trkpt>
      <trkpt lat="39.6525800" lon="-7.6725900">
        <ele>118.2</ele>
        <time>2019-07-10T16:51:22Z</time>
      </trkpt>
      <trkpt lat="39.6527100" lon="-7.6723250">
        <ele>117.2</ele>
        <time>2019-07-10T16:51:25Z</time>
      </trkpt>
      <trkpt lat="39.6527620" lon="-7.6720060">
        <ele>116.4</ele>
        <time>2019-07-10T16:51:28Z</time>
      </trkpt>
      <trkpt lat="39.6527710" lon="-7.6719040">
        <ele>116.2</ele>
        <time>2019-07-10T16:51:29Z</time>
      </trkpt>
      <trkpt lat="39.6527790" lon="-7.6718060">
        <ele>116.0</ele>
        <time>2019-07-10T16:51:30Z</time>
      </trkpt>
      <trkpt lat="39.6528090" lon="-7.6714670">
        <ele>116.4</ele>
        <time>2019-07-10T16:51:34Z</time>
      </trkpt>
      <trkpt lat="39.6528530" lon="-7.6711080">
        <ele>117.0</ele>
        <time>2019-07-10T16:51:39Z</time>
      </trkpt>
      <trkpt lat="39.6528870" lon="-7.6709030">
        <ele>117.2</ele>
        <time>2019-07-10T16:51:42Z</time>
      </trkpt>
      <trkpt lat="39.6529480" lon="-7.6704320">
        <ele>116.6</ele>
        <time>2019-07-10T16:51:48Z</time>
      </trkpt>
      <trkpt lat="39.6529710" lon="-7.6702570">
        <ele>116.4</ele>
        <time>2019-07-10T16:51:50Z</time>
      </trkpt>
      <trkpt lat="39.6530140" lon="-7.6700820">
        <ele>116.0</ele>
        <time>2019-07-10T16:51:52Z</time>
      </trkpt>
      <trkpt lat="39.6530460" lon="-7.6699990">
        <ele>115.8</ele>
        <time>2019-07-10T16:51:53Z</time>
      </trkpt>
      <trkpt lat="39.6532030" lon="-7.6697990">
        <ele>115.2</ele>
        <time>2019-07-10T16:51:56Z</time>
      </trkpt>
      <trkpt lat="39.6532700" lon="-7.6697540">
        <ele>115.0</ele>
        <time>2019-07-10T16:51:57Z</time>
      </trkpt>
      <trkpt lat="39.6534150" lon="-7.6697050">
        <ele>114.4</ele>
        <time>2019-07-10T16:51:59Z</time>
      </trkpt>
      <trkpt lat="39.6535680" lon="-7.6696810">
        <ele>113.8</ele>
        <time>2019-07-10T16:52:01Z</time>
      </trkpt>
      <trkpt lat="39.6537950" lon="-7.6696290">
        <ele>112.6</ele>
        <time>2019-07-10T16:52:04Z</time>
      </trkpt>
      <trkpt lat="39.6538680" lon="-7.6695990">
        <ele>112.4</ele>
        <time>2019-07-10T16:52:05Z</time>
      </trkpt>
      <trkpt lat="39.6540640" lon="-7.6694410">
        <ele>111.8</ele>
        <time>2019-07-10T16:52:08Z</time>
      </trkpt>
      <trkpt lat="39.6541160" lon="-7.6693680">
        <ele>111.6</ele>
        <time>2019-07-10T16:52:09Z</time>
      </trkpt>
      <trkpt lat="39.6542060" lon="-7.6692140">
        <ele>110.8</ele>
        <time>2019-07-10T16:52:11Z</time>
      </trkpt>
      <trkpt lat="39.6542490" lon="-7.6691390">
        <ele>110.6</ele>
        <time>2019-07-10T16:52:12Z</time>
      </trkpt>
      <trkpt lat="39.6544720" lon="-7.6687490">
        <ele>110.6</ele>
        <time>2019-07-10T16:52:18Z</time>
      </trkpt>
      <trkpt lat="39.6545690" lon="-7.6685580">
        <ele>111.2</ele>
        <time>2019-07-10T16:52:22Z</time>
      </trkpt>
      <trkpt lat="39.6546120" lon="-7.6684760">
        <ele>111.6</ele>
        <time>2019-07-10T16:52:24Z</time>
      </trkpt>
      <trkpt lat="39.6546670" lon="-7.6683630">
        <ele>112.0</ele>
        <time>2019-07-10T16:52:27Z</time>
      </trkpt>
      <trkpt lat="39.6547410" lon="-7.6682240">
        <ele>112.8</ele>
        <time>2019-07-10T16:52:31Z</time>
      </trkpt>
      <trkpt lat="39.6547590" lon="-7.6681940">
        <ele>113.0</ele>
        <time>2019-07-10T16:52:32Z</time>
      </trkpt>
      <trkpt lat="39.6548230" lon="-7.6680700">
        <ele>113.8</ele>
        <time>2019-07-10T16:52:36Z</time>
      </trkpt>
      <trkpt lat="39.6548530" lon="-7.6680060">
        <ele>114.2</ele>
        <time>2019-07-10T16:52:38Z</time>
      </trkpt>
      <trkpt lat="39.6549020" lon="-7.6679070">
        <ele>114.8</ele>
        <time>2019-07-10T16:52:41Z</time>
      </trkpt>
      <trkpt lat="39.6549190" lon="-7.6678750">
        <ele>115.0</ele>
        <time>2019-07-10T16:52:42Z</time>
      </trkpt>
      <trkpt lat="39.6549540" lon="-7.6678120">
        <ele>115.2</ele>
        <time>2019-07-10T16:52:44Z</time>
      </trkpt>
      <trkpt lat="39.6549900" lon="-7.6677470">
        <ele>115.8</ele>
        <time>2019-07-10T16:52:46Z</time>
      </trkpt>
      <trkpt lat="39.6550230" lon="-7.6676810">
        <ele>116.0</ele>
        <time>2019-07-10T16:52:48Z</time>
      </trkpt>
      <trkpt lat="39.6550760" lon="-7.6675890">
        <ele>116.8</ele>
        <time>2019-07-10T16:52:51Z</time>
      </trkpt>
      <trkpt lat="39.6551230" lon="-7.6674880">
        <ele>117.0</ele>
        <time>2019-07-10T16:52:54Z</time>
      </trkpt>
      <trkpt lat="39.6551610" lon="-7.6674260">
        <ele>117.2</ele>
        <time>2019-07-10T16:52:56Z</time>
      </trkpt>
      <trkpt lat="39.6552180" lon="-7.6673320">
        <ele>118.0</ele>
        <time>2019-07-10T16:52:59Z</time>
      </trkpt>
      <trkpt lat="39.6552740" lon="-7.6672420">
        <ele>118.4</ele>
        <time>2019-07-10T16:53:02Z</time>
      </trkpt>
      <trkpt lat="39.6553660" lon="-7.6670910">
        <ele>119.4</ele>
        <time>2019-07-10T16:53:07Z</time>
      </trkpt>
      <trkpt lat="39.6553830" lon="-7.6670590">
        <ele>119.6</ele>
        <time>2019-07-10T16:53:08Z</time>
      </trkpt>
      <trkpt lat="39.6554300" lon="-7.6669590">
        <ele>120.0</ele>
        <time>2019-07-10T16:53:11Z</time>
      </trkpt>
      <trkpt lat="39.6554810" lon="-7.6668640">
        <ele>120.6</ele>
        <time>2019-07-10T16:53:14Z</time>
      </trkpt>
      <trkpt lat="39.6555700" lon="-7.6667020">
        <ele>121.4</ele>
        <time>2019-07-10T16:53:19Z</time>
      </trkpt>
      <trkpt lat="39.6556270" lon="-7.6665990">
        <ele>121.6</ele>
        <time>2019-07-10T16:53:22Z</time>
      </trkpt>
      <trkpt lat="39.6557440" lon="-7.6663680">
        <ele>123.0</ele>
        <time>2019-07-10T16:53:29Z</time>
      </trkpt>
      <trkpt lat="39.6557600" lon="-7.6663340">
        <ele>123.2</ele>
        <time>2019-07-10T16:53:30Z</time>
      </trkpt>
      <trkpt lat="39.6558390" lon="-7.6661680">
        <ele>123.4</ele>
        <time>2019-07-10T16:53:35Z</time>
      </trkpt>
      <trkpt lat="39.6558710" lon="-7.6661040">
        <ele>123.4</ele>
        <time>2019-07-10T16:53:37Z</time>
      </trkpt>
      <trkpt lat="39.6559250" lon="-7.6659950">
        <ele>123.4</ele>
        <time>2019-07-10T16:53:41Z</time>
      </trkpt>
      <trkpt lat="39.6559540" lon="-7.6659430">
        <ele>123.6</ele>
        <time>2019-07-10T16:53:43Z</time>
      </trkpt>
      <trkpt lat="39.6559710" lon="-7.6659160">
        <ele>123.6</ele>
        <time>2019-07-10T16:53:44Z</time>
      </trkpt>
      <trkpt lat="39.6557510" lon="-7.6664920">
        <ele>123.6</ele>
        <time>2019-07-10T16:56:31Z</time>
      </trkpt>
      <trkpt lat="39.6557340" lon="-7.6665190">
        <ele>123.4</ele>
        <time>2019-07-10T16:56:32Z</time>
      </trkpt>
      <trkpt lat="39.6555630" lon="-7.6668390">
        <ele>122.6</ele>
        <time>2019-07-10T16:56:37Z</time>
      </trkpt>
      <trkpt lat="39.6554870" lon="-7.6669800">
        <ele>122.0</ele>
        <time>2019-07-10T16:56:39Z</time>
      </trkpt>
      <trkpt lat="39.6554100" lon="-7.6671290">
        <ele>121.6</ele>
        <time>2019-07-10T16:56:41Z</time>
      </trkpt>
      <trkpt lat="39.6552280" lon="-7.6674540">
        <ele>119.8</ele>
        <time>2019-07-10T16:56:45Z</time>
      </trkpt>
      <trkpt lat="39.6551780" lon="-7.6675440">
        <ele>119.4</ele>
        <time>2019-07-10T16:56:46Z</time>
      </trkpt>
      <trkpt lat="39.6550120" lon="-7.6678250">
        <ele>118.6</ele>
        <time>2019-07-10T16:56:49Z</time>
      </trkpt>
      <trkpt lat="39.6548340" lon="-7.6681260">
        <ele>117.0</ele>
        <time>2019-07-10T16:56:52Z</time>
      </trkpt>
      <trkpt lat="39.6547150" lon="-7.6683410">
        <ele>116.2</ele>
        <time>2019-07-10T16:56:54Z</time>
      </trkpt>
      <trkpt lat="39.6546550" lon="-7.6684510">
        <ele>115.8</ele>
        <time>2019-07-10T16:56:55Z</time>
      </trkpt>
      <trkpt lat="39.6545360" lon="-7.6686780">
        <ele>114.2</ele>
        <time>2019-07-10T16:56:57Z</time>
      </trkpt>
      <trkpt lat="39.6543490" lon="-7.6690100">
        <ele>112.6</ele>
        <time>2019-07-10T16:57:00Z</time>
      </trkpt>
      <trkpt lat="39.6542300" lon="-7.6692140">
        <ele>111.4</ele>
        <time>2019-07-10T16:57:02Z</time>
      </trkpt>
      <trkpt lat="39.6541220" lon="-7.6694040">
        <ele>110.8</ele>
        <time>2019-07-10T16:57:04Z</time>
      </trkpt>
      <trkpt lat="39.6540670" lon="-7.6694880">
        <ele>110.8</ele>
        <time>2019-07-10T16:57:05Z</time>
      </trkpt>
      <trkpt lat="39.6540090" lon="-7.6695580">
        <ele>110.8</ele>
        <time>2019-07-10T16:57:06Z</time>
      </trkpt>
      <trkpt lat="39.6538860" lon="-7.6696580">
        <ele>111.0</ele>
        <time>2019-07-10T16:57:08Z</time>
      </trkpt>
      <trkpt lat="39.6536560" lon="-7.6697390">
        <ele>111.6</ele>
        <time>2019-07-10T16:57:12Z</time>
      </trkpt>
      <trkpt lat="39.6535010" lon="-7.6697600">
        <ele>112.2</ele>
        <time>2019-07-10T16:57:15Z</time>
      </trkpt>
      <trkpt lat="39.6534020" lon="-7.6697830">
        <ele>112.4</ele>
        <time>2019-07-10T16:57:17Z</time>
      </trkpt>
      <trkpt lat="39.6533070" lon="-7.6698010">
        <ele>112.6</ele>
        <time>2019-07-10T16:57:19Z</time>
      </trkpt>
      <trkpt lat="39.6531470" lon="-7.6698920">
        <ele>113.0</ele>
        <time>2019-07-10T16:57:23Z</time>
      </trkpt>
      <trkpt lat="39.6531130" lon="-7.6699290">
        <ele>113.2</ele>
        <time>2019-07-10T16:57:24Z</time>
      </trkpt>
      <trkpt lat="39.6530550" lon="-7.6700140">
        <ele>113.6</ele>
        <time>2019-07-10T16:57:26Z</time>
      </trkpt>
      <trkpt lat="39.6530110" lon="-7.6701060">
        <ele>114.0</ele>
        <time>2019-07-10T16:57:28Z</time>
      </trkpt>
      <trkpt lat="39.6529940" lon="-7.6701550">
        <ele>114.4</ele>
        <time>2019-07-10T16:57:29Z</time>
      </trkpt>
      <trkpt lat="39.6529790" lon="-7.6702610">
        <ele>114.4</ele>
        <time>2019-07-10T16:57:31Z</time>
      </trkpt>
      <trkpt lat="39.6529620" lon="-7.6703680">
        <ele>114.8</ele>
        <time>2019-07-10T16:57:33Z</time>
      </trkpt>
      <trkpt lat="39.6529480" lon="-7.6704820">
        <ele>115.4</ele>
        <time>2019-07-10T16:57:35Z</time>
      </trkpt>
      <trkpt lat="39.6529420" lon="-7.6705400">
        <ele>115.6</ele>
        <time>2019-07-10T16:57:36Z</time>
      </trkpt>
      <trkpt lat="39.6529270" lon="-7.6706560">
        <ele>115.8</ele>
        <time>2019-07-10T16:57:38Z</time>
      </trkpt>
      <trkpt lat="39.6529150" lon="-7.6707740">
        <ele>116.0</ele>
        <time>2019-07-10T16:57:40Z</time>
      </trkpt>
      <trkpt lat="39.6528960" lon="-7.6709510">
        <ele>116.6</ele>
        <time>2019-07-10T16:57:43Z</time>
      </trkpt>
      <trkpt lat="39.6528900" lon="-7.6710720">
        <ele>117.0</ele>
        <time>2019-07-10T16:57:45Z</time>
      </trkpt>
      <trkpt lat="39.6528670" lon="-7.6712580">
        <ele>117.2</ele>
        <time>2019-07-10T16:57:48Z</time>
      </trkpt>
      <trkpt lat="39.6528470" lon="-7.6713850">
        <ele>117.2</ele>
        <time>2019-07-10T16:57:50Z</time>
      </trkpt>
      <trkpt lat="39.6527870" lon="-7.6718950">
        <ele>116.4</ele>
        <time>2019-07-10T16:57:57Z</time>
      </trkpt>
      <trkpt lat="39.6527550" lon="-7.6721380">
        <ele>116.0</ele>
        <time>2019-07-10T16:58:00Z</time>
      </trkpt>
      <trkpt lat="39.6527080" lon="-7.6724430">
        <ele>115.8</ele>
        <time>2019-07-10T16:58:04Z</time>
      </trkpt>
      <trkpt lat="39.6526110" lon="-7.6725980">
        <ele>116.2</ele>
        <time>2019-07-10T16:58:07Z</time>
      </trkpt>
      <trkpt lat="39.6524600" lon="-7.6727500">
        <ele>117.0</ele>
        <time>2019-07-10T16:58:11Z</time>
      </trkpt>
      <trkpt lat="39.6523050" lon="-7.6728740">
        <ele>118.0</ele>
        <time>2019-07-10T16:58:15Z</time>
      </trkpt>
      <trkpt lat="39.6522670" lon="-7.6729020">
        <ele>118.0</ele>
        <time>2019-07-10T16:58:16Z</time>
      </trkpt>
      <trkpt lat="39.6519770" lon="-7.6731010">
        <ele>119.2</ele>
        <time>2019-07-10T16:58:24Z</time>
      </trkpt>
      <trkpt lat="39.6517980" lon="-7.6732260">
        <ele>119.8</ele>
        <time>2019-07-10T16:58:29Z</time>
      </trkpt>
      <trkpt lat="39.6517230" lon="-7.6732670">
        <ele>120.0</ele>
        <time>2019-07-10T16:58:31Z</time>
      </trkpt>
      <trkpt lat="39.6516860" lon="-7.6732840">
        <ele>120.2</ele>
        <time>2019-07-10T16:58:32Z</time>
      </trkpt>
      <trkpt lat="39.6514920" lon="-7.6733420">
        <ele>121.4</ele>
        <time>2019-07-10T16:58:37Z</time>
      </trkpt>
      <trkpt lat="39.6514540" lon="-7.6733550">
        <ele>121.6</ele>
        <time>2019-07-10T16:58:38Z</time>
      </trkpt>
      <trkpt lat="39.6513600" lon="-7.6734180">
        <ele>122.2</ele>
        <time>2019-07-10T16:58:41Z</time>
      </trkpt>
      <trkpt lat="39.6513470" lon="-7.6734540">
        <ele>122.4</ele>
        <time>2019-07-10T16:58:42Z</time>
      </trkpt>
      <trkpt lat="39.6513490" lon="-7.6734890">
        <ele>122.4</ele>
        <time>2019-07-10T16:58:43Z</time>
      </trkpt>
      <trkpt lat="39.6513850" lon="-7.6735320">
        <ele>123.0</ele>
        <time>2019-07-10T16:58:45Z</time>
      </trkpt>
      <trkpt lat="39.6514370" lon="-7.6735530">
        <ele>123.4</ele>
        <time>2019-07-10T16:58:47Z</time>
      </trkpt>
      <trkpt lat="39.6515460" lon="-7.6735880">
        <ele>124.6</ele>
        <time>2019-07-10T16:58:51Z</time>
      </trkpt>
      <trkpt lat="39.6516550" lon="-7.6736070">
        <ele>125.8</ele>
        <time>2019-07-10T16:58:55Z</time>
      </trkpt>
      <trkpt lat="39.6517050" lon="-7.6736000">
        <ele>126.2</ele>
        <time>2019-07-10T16:58:57Z</time>
      </trkpt>
      <trkpt lat="39.6518180" lon="-7.6735700">
        <ele>126.8</ele>
        <time>2019-07-10T16:59:01Z</time>
      </trkpt>
      <trkpt lat="39.6519090" lon="-7.6735360">
        <ele>127.4</ele>
        <time>2019-07-10T16:59:04Z</time>
      </trkpt>
      <trkpt lat="39.6519720" lon="-7.6735190">
        <ele>128.0</ele>
        <time>2019-07-10T16:59:06Z</time>
      </trkpt>
      <trkpt lat="39.6521570" lon="-7.6734630">
        <ele>128.6</ele>
        <time>2019-07-10T16:59:12Z</time>
      </trkpt>
      <trkpt lat="39.6522180" lon="-7.6734470">
        <ele>129.0</ele>
        <time>2019-07-10T16:59:14Z</time>
      </trkpt>
      <trkpt lat="39.6523690" lon="-7.6733920">
        <ele>130.0</ele>
        <time>2019-07-10T16:59:19Z</time>
      </trkpt>
      <trkpt lat="39.6524000" lon="-7.6733860">
        <ele>130.2</ele>
        <time>2019-07-10T16:59:20Z</time>
      </trkpt>
      <trkpt lat="39.6525250" lon="-7.6733590">
        <ele>131.2</ele>
        <time>2019-07-10T16:59:24Z</time>
      </trkpt>
      <trkpt lat="39.6526870" lon="-7.6733170">
        <ele>132.0</ele>
        <time>2019-07-10T16:59:29Z</time>
      </trkpt>
      <trkpt lat="39.6527850" lon="-7.6732940">
        <ele>132.4</ele>
        <time>2019-07-10T16:59:32Z</time>
      </trkpt>
      <trkpt lat="39.6529490" lon="-7.6732840">
        <ele>133.4</ele>
        <time>2019-07-10T16:59:37Z</time>
      </trkpt>
      <trkpt lat="39.6529820" lon="-7.6732770">
        <ele>133.6</ele>
        <time>2019-07-10T16:59:38Z</time>
      </trkpt>
      <trkpt lat="39.6531660" lon="-7.6732390">
        <ele>134.6</ele>
        <time>2019-07-10T16:59:44Z</time>
      </trkpt>
      <trkpt lat="39.6532890" lon="-7.6732170">
        <ele>135.6</ele>
        <time>2019-07-10T16:59:48Z</time>
      </trkpt>
      <trkpt lat="39.6534400" lon="-7.6731850">
        <ele>136.8</ele>
        <time>2019-07-10T16:59:53Z</time>
      </trkpt>
      <trkpt lat="39.6535010" lon="-7.6731690">
        <ele>137.6</ele>
        <time>2019-07-10T16:59:55Z</time>
      </trkpt>
      <trkpt lat="39.6535590" lon="-7.6731530">
        <ele>138.0</ele>
        <time>2019-07-10T16:59:57Z</time>
      </trkpt>
      <trkpt lat="39.6537040" lon="-7.6731010">
        <ele>139.4</ele>
        <time>2019-07-10T17:00:02Z</time>
      </trkpt>
      <trkpt lat="39.6537320" lon="-7.6730890">
        <ele>139.8</ele>
        <time>2019-07-10T17:00:03Z</time>
      </trkpt>
      <trkpt lat="39.6538170" lon="-7.6730520">
        <ele>140.6</ele>
        <time>2019-07-10T17:00:06Z</time>
      </trkpt>
      <trkpt lat="39.6539040" lon="-7.6730090">
        <ele>141.6</ele>
        <time>2019-07-10T17:00:09Z</time>
      </trkpt>
      <trkpt lat="39.6539600" lon="-7.6729800">
        <ele>142.2</ele>
        <time>2019-07-10T17:00:11Z</time>
      </trkpt>
      <trkpt lat="39.6540160" lon="-7.6729550">
        <ele>142.8</ele>
        <time>2019-07-10T17:00:13Z</time>
      </trkpt>
      <trkpt lat="39.6541330" lon="-7.6729320">
        <ele>143.8</ele>
        <time>2019-07-10T17:00:17Z</time>
      </trkpt>
      <trkpt lat="39.6541630" lon="-7.6729310">
        <ele>144.0</ele>
        <time>2019-07-10T17:00:18Z</time>
      </trkpt>
      <trkpt lat="39.6543060" lon="-7.6728970">
        <ele>145.2</ele>
        <time>2019-07-10T17:00:23Z</time>
      </trkpt>
      <trkpt lat="39.6543410" lon="-7.6728710">
        <ele>145.6</ele>
        <time>2019-07-10T17:00:25Z</time>
      </trkpt>
      <trkpt lat="39.6543980" lon="-7.6728730">
        <ele>146.2</ele>
        <time>2019-07-10T17:00:30Z</time>
      </trkpt>
      <trkpt lat="39.6544120" lon="-7.6728820">
        <ele>146.2</ele>
        <time>2019-07-10T17:00:31Z</time>
      </trkpt>
      <trkpt lat="39.6545240" lon="-7.6729680">
        <ele>146.8</ele>
        <time>2019-07-10T17:00:36Z</time>
      </trkpt>
      <trkpt lat="39.6546690" lon="-7.6731680">
        <ele>147.0</ele>
        <time>2019-07-10T17:00:42Z</time>
      </trkpt>
      <trkpt lat="39.6547470" lon="-7.6732890">
        <ele>147.2</ele>
        <time>2019-07-10T17:00:45Z</time>
      </trkpt>
      <trkpt lat="39.6548030" lon="-7.6733690">
        <ele>147.4</ele>
        <time>2019-07-10T17:00:47Z</time>
      </trkpt>
      <trkpt lat="39.6548840" lon="-7.6734920">
        <ele>147.8</ele>
        <time>2019-07-10T17:00:50Z</time>
      </trkpt>
      <trkpt lat="39.6549620" lon="-7.6735850">
        <ele>148.6</ele>
        <time>2019-07-10T17:00:53Z</time>
      </trkpt>
      <trkpt lat="39.6550380" lon="-7.6736580">
        <ele>149.2</ele>
        <time>2019-07-10T17:00:56Z</time>
      </trkpt>
      <trkpt lat="39.6550850" lon="-7.6737110">
        <ele>149.8</ele>
        <time>2019-07-10T17:00:58Z</time>
      </trkpt>
      <trkpt lat="39.6551800" lon="-7.6738210">
        <ele>151.0</ele>
        <time>2019-07-10T17:01:02Z</time>
      </trkpt>
      <trkpt lat="39.6552560" lon="-7.6738940">
        <ele>152.2</ele>
        <time>2019-07-10T17:01:05Z</time>
      </trkpt>
      <trkpt lat="39.6553710" lon="-7.6740370">
        <ele>153.0</ele>
        <time>2019-07-10T17:01:10Z</time>
      </trkpt>
      <trkpt lat="39.6553880" lon="-7.6740660">
        <ele>153.4</ele>
        <time>2019-07-10T17:01:11Z</time>
      </trkpt>
      <trkpt lat="39.6554220" lon="-7.6741160">
        <ele>154.4</ele>
        <time>2019-07-10T17:01:13Z</time>
      </trkpt>
      <trkpt lat="39.6554360" lon="-7.6741420">
        <ele>154.8</ele>
        <time>2019-07-10T17:01:14Z</time>
      </trkpt>
      <trkpt lat="39.6554420" lon="-7.6741920">
        <ele>155.2</ele>
        <time>2019-07-10T17:01:16Z</time>
      </trkpt>
      <trkpt lat="39.6554330" lon="-7.6742130">
        <ele>155.2</ele>
        <time>2019-07-10T17:01:17Z</time>
      </trkpt>
      <trkpt lat="39.6554050" lon="-7.6742500">
        <ele>155.8</ele>
        <time>2019-07-10T17:01:20Z</time>
      </trkpt>
      <trkpt lat="39.6554050" lon="-7.6742550">
        <ele>156.2</ele>
        <time>2019-07-10T17:01:22Z</time>
      </trkpt>
      <trkpt lat="39.6554430" lon="-7.6741860">
        <ele>156.4</ele>
        <time>2019-07-10T17:01:37Z</time>
      </trkpt>
      <trkpt lat="39.6554890" lon="-7.6741880">
        <ele>156.4</ele>
        <time>2019-07-10T17:01:39Z</time>
      </trkpt>
      <trkpt lat="39.6555600" lon="-7.6741890">
        <ele>156.4</ele>
        <time>2019-07-10T17:01:42Z</time>
      </trkpt>
      <trkpt lat="39.6555810" lon="-7.6742090">
        <ele>156.4</ele>
        <time>2019-07-10T17:01:43Z</time>
      </trkpt>
      <trkpt lat="39.6556510" lon="-7.6742610">
        <ele>157.0</ele>
        <time>2019-07-10T17:01:46Z</time>
      </trkpt>
      <trkpt lat="39.6556970" lon="-7.6743030">
        <ele>157.6</ele>
        <time>2019-07-10T17:01:48Z</time>
      </trkpt>
      <trkpt lat="39.6557790" lon="-7.6743590">
        <ele>158.2</ele>
        <time>2019-07-10T17:01:51Z</time>
      </trkpt>
      <trkpt lat="39.6558660" lon="-7.6743990">
        <ele>159.0</ele>
        <time>2019-07-10T17:01:54Z</time>
      </trkpt>
      <trkpt lat="39.6559220" lon="-7.6744230">
        <ele>159.2</ele>
        <time>2019-07-10T17:01:56Z</time>
      </trkpt>
      <trkpt lat="39.6560590" lon="-7.6744630">
        <ele>160.4</ele>
        <time>2019-07-10T17:02:01Z</time>
      </trkpt>
      <trkpt lat="39.6560880" lon="-7.6744670">
        <ele>160.6</ele>
        <time>2019-07-10T17:02:02Z</time>
      </trkpt>
      <trkpt lat="39.6561730" lon="-7.6744770">
        <ele>161.6</ele>
        <time>2019-07-10T17:02:05Z</time>
      </trkpt>
      <trkpt lat="39.6562880" lon="-7.6744790">
        <ele>162.4</ele>
        <time>2019-07-10T17:02:09Z</time>
      </trkpt>
      <trkpt lat="39.6563170" lon="-7.6744760">
        <ele>162.6</ele>
        <time>2019-07-10T17:02:10Z</time>
      </trkpt>
      <trkpt lat="39.6564650" lon="-7.6744620">
        <ele>163.8</ele>
        <time>2019-07-10T17:02:15Z</time>
      </trkpt>
      <trkpt lat="39.6565590" lon="-7.6744630">
        <ele>164.6</ele>
        <time>2019-07-10T17:02:18Z</time>
      </trkpt>
      <trkpt lat="39.6566280" lon="-7.6744530">
        <ele>164.8</ele>
        <time>2019-07-10T17:02:20Z</time>
      </trkpt>
      <trkpt lat="39.6567580" lon="-7.6744730">
        <ele>166.0</ele>
        <time>2019-07-10T17:02:24Z</time>
      </trkpt>
      <trkpt lat="39.6569460" lon="-7.6745440">
        <ele>167.2</ele>
        <time>2019-07-10T17:02:30Z</time>
      </trkpt>
      <trkpt lat="39.6569790" lon="-7.6745620">
        <ele>167.4</ele>
        <time>2019-07-10T17:02:31Z</time>
      </trkpt>
      <trkpt lat="39.6570960" lon="-7.6746570">
        <ele>168.2</ele>
        <time>2019-07-10T17:02:35Z</time>
      </trkpt>
      <trkpt lat="39.6571450" lon="-7.6747190">
        <ele>168.6</ele>
        <time>2019-07-10T17:02:37Z</time>
      </trkpt>
      <trkpt lat="39.6572350" lon="-7.6748500">
        <ele>169.2</ele>
        <time>2019-07-10T17:02:41Z</time>
      </trkpt>
      <trkpt lat="39.6572880" lon="-7.6749510">
        <ele>170.0</ele>
        <time>2019-07-10T17:02:44Z</time>
      </trkpt>
      <trkpt lat="39.6573050" lon="-7.6749850">
        <ele>170.4</ele>
        <time>2019-07-10T17:02:45Z</time>
      </trkpt>
      <trkpt lat="39.6573550" lon="-7.6751330">
        <ele>171.8</ele>
        <time>2019-07-10T17:02:49Z</time>
      </trkpt>
      <trkpt lat="39.6573670" lon="-7.6752080">
        <ele>172.4</ele>
        <time>2019-07-10T17:02:51Z</time>
      </trkpt>
      <trkpt lat="39.6573790" lon="-7.6752790">
        <ele>172.8</ele>
        <time>2019-07-10T17:02:53Z</time>
      </trkpt>
      <trkpt lat="39.6574010" lon="-7.6753790">
        <ele>174.0</ele>
        <time>2019-07-10T17:02:56Z</time>
      </trkpt>
      <trkpt lat="39.6574190" lon="-7.6754370">
        <ele>174.4</ele>
        <time>2019-07-10T17:02:58Z</time>
      </trkpt>
      <trkpt lat="39.6574390" lon="-7.6755220">
        <ele>175.2</ele>
        <time>2019-07-10T17:03:01Z</time>
      </trkpt>
      <trkpt lat="39.6574870" lon="-7.6756500">
        <ele>176.0</ele>
        <time>2019-07-10T17:03:06Z</time>
      </trkpt>
      <trkpt lat="39.6575190" lon="-7.6757070">
        <ele>176.2</ele>
        <time>2019-07-10T17:03:08Z</time>
      </trkpt>
      <trkpt lat="39.6576200" lon="-7.6758330">
        <ele>177.4</ele>
        <time>2019-07-10T17:03:13Z</time>
      </trkpt>
      <trkpt lat="39.6577430" lon="-7.6760040">
        <ele>178.4</ele>
        <time>2019-07-10T17:03:19Z</time>
      </trkpt>
      <trkpt lat="39.6577880" lon="-7.6760590">
        <ele>178.6</ele>
        <time>2019-07-10T17:03:21Z</time>
      </trkpt>
      <trkpt lat="39.6578350" lon="-7.6761120">
        <ele>179.6</ele>
        <time>2019-07-10T17:03:23Z</time>
      </trkpt>
      <trkpt lat="39.6579460" lon="-7.6762480">
        <ele>180.6</ele>
        <time>2019-07-10T17:03:28Z</time>
      </trkpt>
      <trkpt lat="39.6579660" lon="-7.6762770">
        <ele>180.8</ele>
        <time>2019-07-10T17:03:29Z</time>
      </trkpt>
      <trkpt lat="39.6580980" lon="-7.6764440">
        <ele>181.6</ele>
        <time>2019-07-10T17:03:35Z</time>
      </trkpt>
      <trkpt lat="39.6581190" lon="-7.6764680">
        <ele>181.8</ele>
        <time>2019-07-10T17:03:36Z</time>
      </trkpt>
      <trkpt lat="39.6582370" lon="-7.6766100">
        <ele>182.6</ele>
        <time>2019-07-10T17:03:41Z</time>
      </trkpt>
      <trkpt lat="39.6582850" lon="-7.6766710">
        <ele>183.0</ele>
        <time>2019-07-10T17:03:43Z</time>
      </trkpt>
      <trkpt lat="39.6583660" lon="-7.6767400">
        <ele>183.8</ele>
        <time>2019-07-10T17:03:46Z</time>
      </trkpt>
      <trkpt lat="39.6584530" lon="-7.6768010">
        <ele>184.4</ele>
        <time>2019-07-10T17:03:49Z</time>
      </trkpt>
      <trkpt lat="39.6585130" lon="-7.6768380">
        <ele>184.8</ele>
        <time>2019-07-10T17:03:51Z</time>
      </trkpt>
      <trkpt lat="39.6586900" lon="-7.6769600">
        <ele>185.4</ele>
        <time>2019-07-10T17:03:57Z</time>
      </trkpt>
      <trkpt lat="39.6587470" lon="-7.6770060">
        <ele>186.0</ele>
        <time>2019-07-10T17:03:59Z</time>
      </trkpt>
      <trkpt lat="39.6589190" lon="-7.6771380">
        <ele>187.0</ele>
        <time>2019-07-10T17:04:05Z</time>
      </trkpt>
      <trkpt lat="39.6589450" lon="-7.6771600">
        <ele>187.0</ele>
        <time>2019-07-10T17:04:06Z</time>
      </trkpt>
      <trkpt lat="39.6590750" lon="-7.6772750">
        <ele>188.0</ele>
        <time>2019-07-10T17:04:11Z</time>
      </trkpt>
      <trkpt lat="39.6590980" lon="-7.6773060">
        <ele>188.2</ele>
        <time>2019-07-10T17:04:12Z</time>
      </trkpt>
      <trkpt lat="39.6591640" lon="-7.6774720">
        <ele>188.4</ele>
        <time>2019-07-10T17:04:16Z</time>
      </trkpt>
      <trkpt lat="39.6591750" lon="-7.6775770">
        <ele>188.2</ele>
        <time>2019-07-10T17:04:18Z</time>
      </trkpt>
      <trkpt lat="39.6591740" lon="-7.6777680">
        <ele>187.8</ele>
        <time>2019-07-10T17:04:21Z</time>
      </trkpt>
      <trkpt lat="39.6591770" lon="-7.6778360">
        <ele>187.8</ele>
        <time>2019-07-10T17:04:22Z</time>
      </trkpt>
      <trkpt lat="39.6592070" lon="-7.6779740">
        <ele>187.4</ele>
        <time>2019-07-10T17:04:24Z</time>
      </trkpt>
      <trkpt lat="39.6592310" lon="-7.6780440">
        <ele>187.0</ele>
        <time>2019-07-10T17:04:25Z</time>
      </trkpt>
      <trkpt lat="39.6592620" lon="-7.6781150">
        <ele>186.8</ele>
        <time>2019-07-10T17:04:26Z</time>
      </trkpt>
      <trkpt lat="39.6593260" lon="-7.6782510">
        <ele>186.6</ele>
        <time>2019-07-10T17:04:28Z</time>
      </trkpt>
      <trkpt lat="39.6593830" lon="-7.6783790">
        <ele>186.4</ele>
        <time>2019-07-10T17:04:30Z</time>
      </trkpt>
      <trkpt lat="39.6594100" lon="-7.6784320">
        <ele>186.4</ele>
        <time>2019-07-10T17:04:31Z</time>
      </trkpt>
      <trkpt lat="39.6595290" lon="-7.6787090">
        <ele>187.0</ele>
        <time>2019-07-10T17:04:37Z</time>
      </trkpt>
      <trkpt lat="39.6596090" lon="-7.6787970">
        <ele>187.4</ele>
        <time>2019-07-10T17:04:40Z</time>
      </trkpt>
      <trkpt lat="39.6592660" lon="-7.6780940">
        <ele>174.4</ele>
        <time>2019-07-11T04:27:48Z</time>
      </trkpt>
      <trkpt lat="39.6592480" lon="-7.6780650">
        <ele>175.0</ele>
        <time>2019-07-11T04:27:49Z</time>
      </trkpt>
      <trkpt lat="39.6592040" lon="-7.6779670">
        <ele>175.8</ele>
        <time>2019-07-11T04:27:52Z</time>
      </trkpt>
      <trkpt lat="39.6591840" lon="-7.6778950">
        <ele>175.8</ele>
        <time>2019-07-11T04:27:54Z</time>
      </trkpt>
      <trkpt lat="39.6591420" lon="-7.6777260">
        <ele>176.0</ele>
        <time>2019-07-11T04:27:59Z</time>
      </trkpt>
      <trkpt lat="39.6591390" lon="-7.6776920">
        <ele>176.0</ele>
        <time>2019-07-11T04:28:00Z</time>
      </trkpt>
      <trkpt lat="39.6591410" lon="-7.6775190">
        <ele>176.4</ele>
        <time>2019-07-11T04:28:05Z</time>
      </trkpt>
      <trkpt lat="39.6591240" lon="-7.6774100">
        <ele>176.8</ele>
        <time>2019-07-11T04:28:08Z</time>
      </trkpt>
      <trkpt lat="39.6590440" lon="-7.6772810">
        <ele>177.4</ele>
        <time>2019-07-11T04:28:12Z</time>
      </trkpt>
      <trkpt lat="39.6590170" lon="-7.6772550">
        <ele>177.4</ele>
        <time>2019-07-11T04:28:13Z</time>
      </trkpt>
      <trkpt lat="39.6588650" lon="-7.6771270">
        <ele>177.8</ele>
        <time>2019-07-11T04:28:18Z</time>
      </trkpt>
      <trkpt lat="39.6588270" lon="-7.6770990">
        <ele>177.8</ele>
        <time>2019-07-11T04:28:19Z</time>
      </trkpt>
      <trkpt lat="39.6586520" lon="-7.6769640">
        <ele>176.8</ele>
        <time>2019-07-11T04:28:23Z</time>
      </trkpt>
      <trkpt lat="39.6585510" lon="-7.6768880">
        <ele>176.2</ele>
        <time>2019-07-11T04:28:25Z</time>
      </trkpt>
      <trkpt lat="39.6584500" lon="-7.6768040">
        <ele>175.6</ele>
        <time>2019-07-11T04:28:27Z</time>
      </trkpt>
      <trkpt lat="39.6583060" lon="-7.6766810">
        <ele>174.8</ele>
        <time>2019-07-11T04:28:30Z</time>
      </trkpt>
      <trkpt lat="39.6582610" lon="-7.6766430">
        <ele>174.4</ele>
        <time>2019-07-11T04:28:31Z</time>
      </trkpt>
      <trkpt lat="39.6581770" lon="-7.6765730">
        <ele>173.6</ele>
        <time>2019-07-11T04:28:33Z</time>
      </trkpt>
      <trkpt lat="39.6581360" lon="-7.6765300">
        <ele>173.0</ele>
        <time>2019-07-11T04:28:34Z</time>
      </trkpt>
      <trkpt lat="39.6580030" lon="-7.6763810">
        <ele>171.8</ele>
        <time>2019-07-11T04:28:37Z</time>
      </trkpt>
      <trkpt lat="39.6579570" lon="-7.6763230">
        <ele>171.4</ele>
        <time>2019-07-11T04:28:38Z</time>
      </trkpt>
      <trkpt lat="39.6578790" lon="-7.6762230">
        <ele>170.6</ele>
        <time>2019-07-11T04:28:40Z</time>
      </trkpt>
      <trkpt lat="39.6578100" lon="-7.6761360">
        <ele>170.2</ele>
        <time>2019-07-11T04:28:42Z</time>
      </trkpt>
      <trkpt lat="39.6576910" lon="-7.6759760">
        <ele>169.2</ele>
        <time>2019-07-11T04:28:45Z</time>
      </trkpt>
      <trkpt lat="39.6575980" lon="-7.6758540">
        <ele>168.6</ele>
        <time>2019-07-11T04:28:47Z</time>
      </trkpt>
      <trkpt lat="39.6575490" lon="-7.6757930">
        <ele>168.0</ele>
        <time>2019-07-11T04:28:48Z</time>
      </trkpt>
      <trkpt lat="39.6574620" lon="-7.6756780">
        <ele>167.0</ele>
        <time>2019-07-11T04:28:50Z</time>
      </trkpt>
      <trkpt lat="39.6573960" lon="-7.6755670">
        <ele>166.6</ele>
        <time>2019-07-11T04:28:52Z</time>
      </trkpt>
      <trkpt lat="39.6573450" lon="-7.6754090">
        <ele>166.0</ele>
        <time>2019-07-11T04:28:55Z</time>
      </trkpt>
      <trkpt lat="39.6573310" lon="-7.6753430">
        <ele>165.6</ele>
        <time>2019-07-11T04:28:56Z</time>
      </trkpt>
      <trkpt lat="39.6573160" lon="-7.6752690">
        <ele>164.8</ele>
        <time>2019-07-11T04:28:57Z</time>
      </trkpt>
      <trkpt lat="39.6572970" lon="-7.6751880">
        <ele>163.6</ele>
        <time>2019-07-11T04:28:58Z</time>
      </trkpt>
      <trkpt lat="39.6572510" lon="-7.6750220">
        <ele>162.8</ele>
        <time>2019-07-11T04:29:00Z</time>
      </trkpt>
      <trkpt lat="39.6572280" lon="-7.6749430">
        <ele>162.4</ele>
        <time>2019-07-11T04:29:01Z</time>
      </trkpt>
      <trkpt lat="39.6572000" lon="-7.6748700">
        <ele>161.8</ele>
        <time>2019-07-11T04:29:02Z</time>
      </trkpt>
      <trkpt lat="39.6571650" lon="-7.6747970">
        <ele>161.2</ele>
        <time>2019-07-11T04:29:03Z</time>
      </trkpt>
      <trkpt lat="39.6571200" lon="-7.6747270">
        <ele>160.6</ele>
        <time>2019-07-11T04:29:04Z</time>
      </trkpt>
      <trkpt lat="39.6570660" lon="-7.6746610">
        <ele>160.0</ele>
        <time>2019-07-11T04:29:05Z</time>
      </trkpt>
      <trkpt lat="39.6569380" lon="-7.6745510">
        <ele>158.6</ele>
        <time>2019-07-11T04:29:07Z</time>
      </trkpt>
      <trkpt lat="39.6568730" lon="-7.6745100">
        <ele>158.2</ele>
        <time>2019-07-11T04:29:08Z</time>
      </trkpt>
      <trkpt lat="39.6567390" lon="-7.6744530">
        <ele>157.0</ele>
        <time>2019-07-11T04:29:10Z</time>
      </trkpt>
      <trkpt lat="39.6565860" lon="-7.6744360">
        <ele>156.0</ele>
        <time>2019-07-11T04:29:12Z</time>
      </trkpt>
      <trkpt lat="39.6565030" lon="-7.6744380">
        <ele>155.6</ele>
        <time>2019-07-11T04:29:13Z</time>
      </trkpt>
      <trkpt lat="39.6564190" lon="-7.6744430">
        <ele>155.0</ele>
        <time>2019-07-11T04:29:14Z</time>
      </trkpt>
      <trkpt lat="39.6562630" lon="-7.6744570">
        <ele>153.8</ele>
        <time>2019-07-11T04:29:16Z</time>
      </trkpt>
      <trkpt lat="39.6561910" lon="-7.6744570">
        <ele>153.2</ele>
        <time>2019-07-11T04:29:17Z</time>
      </trkpt>
      <trkpt lat="39.6561170" lon="-7.6744530">
        <ele>152.6</ele>
        <time>2019-07-11T04:29:18Z</time>
      </trkpt>
      <trkpt lat="39.6559030" lon="-7.6744140">
        <ele>151.4</ele>
        <time>2019-07-11T04:29:21Z</time>
      </trkpt>
      <trkpt lat="39.6558400" lon="-7.6743930">
        <ele>150.8</ele>
        <time>2019-07-11T04:29:22Z</time>
      </trkpt>
      <trkpt lat="39.6557760" lon="-7.6743680">
        <ele>149.8</ele>
        <time>2019-07-11T04:29:23Z</time>
      </trkpt>
      <trkpt lat="39.6557130" lon="-7.6743410">
        <ele>149.2</ele>
        <time>2019-07-11T04:29:24Z</time>
      </trkpt>
      <trkpt lat="39.6556530" lon="-7.6743060">
        <ele>148.8</ele>
        <time>2019-07-11T04:29:25Z</time>
      </trkpt>
      <trkpt lat="39.6555380" lon="-7.6742230">
        <ele>147.8</ele>
        <time>2019-07-11T04:29:27Z</time>
      </trkpt>
      <trkpt lat="39.6554790" lon="-7.6741670">
        <ele>147.2</ele>
        <time>2019-07-11T04:29:28Z</time>
      </trkpt>
      <trkpt lat="39.6553550" lon="-7.6740470">
        <ele>145.8</ele>
        <time>2019-07-11T04:29:30Z</time>
      </trkpt>
      <trkpt lat="39.6552970" lon="-7.6739870">
        <ele>144.8</ele>
        <time>2019-07-11T04:29:31Z</time>
      </trkpt>
      <trkpt lat="39.6552420" lon="-7.6739280">
        <ele>144.2</ele>
        <time>2019-07-11T04:29:32Z</time>
      </trkpt>
      <trkpt lat="39.6551900" lon="-7.6738720">
        <ele>143.4</ele>
        <time>2019-07-11T04:29:33Z</time>
      </trkpt>
      <trkpt lat="39.6550780" lon="-7.6737520">
        <ele>142.2</ele>
        <time>2019-07-11T04:29:35Z</time>
      </trkpt>
      <trkpt lat="39.6549620" lon="-7.6736360">
        <ele>140.8</ele>
        <time>2019-07-11T04:29:37Z</time>
      </trkpt>
      <trkpt lat="39.6548630" lon="-7.6735330">
        <ele>139.0</ele>
        <time>2019-07-11T04:29:39Z</time>
      </trkpt>
      <trkpt lat="39.6547670" lon="-7.6734120">
        <ele>137.6</ele>
        <time>2019-07-11T04:29:41Z</time>
      </trkpt>
      <trkpt lat="39.6547190" lon="-7.6733430">
        <ele>137.0</ele>
        <time>2019-07-11T04:29:42Z</time>
      </trkpt>
      <trkpt lat="39.6546290" lon="-7.6732090">
        <ele>136.4</ele>
        <time>2019-07-11T04:29:44Z</time>
      </trkpt>
      <trkpt lat="39.6544500" lon="-7.6729650">
        <ele>135.4</ele>
        <time>2019-07-11T04:29:48Z</time>
      </trkpt>
      <trkpt lat="39.6542640" lon="-7.6728840">
        <ele>134.8</ele>
        <time>2019-07-11T04:29:51Z</time>
      </trkpt>
      <trkpt lat="39.6541200" lon="-7.6729080">
        <ele>134.2</ele>
        <time>2019-07-11T04:29:53Z</time>
      </trkpt>
      <trkpt lat="39.6540450" lon="-7.6729370">
        <ele>134.0</ele>
        <time>2019-07-11T04:29:54Z</time>
      </trkpt>
      <trkpt lat="39.6539710" lon="-7.6729730">
        <ele>133.4</ele>
        <time>2019-07-11T04:29:55Z</time>
      </trkpt>
      <trkpt lat="39.6539000" lon="-7.6730080">
        <ele>132.8</ele>
        <time>2019-07-11T04:29:56Z</time>
      </trkpt>
      <trkpt lat="39.6537500" lon="-7.6730740">
        <ele>131.6</ele>
        <time>2019-07-11T04:29:58Z</time>
      </trkpt>
      <trkpt lat="39.6536660" lon="-7.6731060">
        <ele>130.6</ele>
        <time>2019-07-11T04:29:59Z</time>
      </trkpt>
      <trkpt lat="39.6535770" lon="-7.6731360">
        <ele>130.0</ele>
        <time>2019-07-11T04:30:00Z</time>
      </trkpt>
      <trkpt lat="39.6533870" lon="-7.6731910">
        <ele>128.2</ele>
        <time>2019-07-11T04:30:02Z</time>
      </trkpt>
      <trkpt lat="39.6531970" lon="-7.6732290">
        <ele>126.4</ele>
        <time>2019-07-11T04:30:04Z</time>
      </trkpt>
      <trkpt lat="39.6530990" lon="-7.6732440">
        <ele>125.4</ele>
        <time>2019-07-11T04:30:05Z</time>
      </trkpt>
      <trkpt lat="39.6529120" lon="-7.6732730">
        <ele>123.6</ele>
        <time>2019-07-11T04:30:07Z</time>
      </trkpt>
      <trkpt lat="39.6527390" lon="-7.6733030">
        <ele>122.0</ele>
        <time>2019-07-11T04:30:09Z</time>
      </trkpt>
      <trkpt lat="39.6526570" lon="-7.6733200">
        <ele>121.2</ele>
        <time>2019-07-11T04:30:10Z</time>
      </trkpt>
      <trkpt lat="39.6525750" lon="-7.6733380">
        <ele>120.6</ele>
        <time>2019-07-11T04:30:11Z</time>
      </trkpt>
      <trkpt lat="39.6523270" lon="-7.6734020">
        <ele>119.4</ele>
        <time>2019-07-11T04:30:14Z</time>
      </trkpt>
      <trkpt lat="39.6521740" lon="-7.6734490">
        <ele>118.2</ele>
        <time>2019-07-11T04:30:16Z</time>
      </trkpt>
      <trkpt lat="39.6521010" lon="-7.6734740">
        <ele>117.6</ele>
        <time>2019-07-11T04:30:17Z</time>
      </trkpt>
      <trkpt lat="39.6520280" lon="-7.6734990">
        <ele>117.0</ele>
        <time>2019-07-11T04:30:18Z</time>
      </trkpt>
      <trkpt lat="39.6518270" lon="-7.6735600">
        <ele>115.6</ele>
        <time>2019-07-11T04:30:21Z</time>
      </trkpt>
      <trkpt lat="39.6517290" lon="-7.6735870">
        <ele>115.0</ele>
        <time>2019-07-11T04:30:23Z</time>
      </trkpt>
      <trkpt lat="39.6516890" lon="-7.6735950">
        <ele>114.6</ele>
        <time>2019-07-11T04:30:24Z</time>
      </trkpt>
      <trkpt lat="39.6516060" lon="-7.6736090">
        <ele>113.8</ele>
        <time>2019-07-11T04:30:26Z</time>
      </trkpt>
      <trkpt lat="39.6515570" lon="-7.6736070">
        <ele>113.4</ele>
        <time>2019-07-11T04:30:27Z</time>
      </trkpt>
      <trkpt lat="39.6515050" lon="-7.6735980">
        <ele>113.0</ele>
        <time>2019-07-11T04:30:28Z</time>
      </trkpt>
      <trkpt lat="39.6514050" lon="-7.6735680">
        <ele>112.4</ele>
        <time>2019-07-11T04:30:30Z</time>
      </trkpt>
      <trkpt lat="39.6513600" lon="-7.6735510">
        <ele>112.2</ele>
        <time>2019-07-11T04:30:31Z</time>
      </trkpt>
      <trkpt lat="39.6513120" lon="-7.6735380">
        <ele>111.6</ele>
        <time>2019-07-11T04:30:32Z</time>
      </trkpt>
      <trkpt lat="39.6512590" lon="-7.6735250">
        <ele>111.0</ele>
        <time>2019-07-11T04:30:33Z</time>
      </trkpt>
      <trkpt lat="39.6512060" lon="-7.6735150">
        <ele>110.6</ele>
        <time>2019-07-11T04:30:34Z</time>
      </trkpt>
      <trkpt lat="39.6511000" lon="-7.6735130">
        <ele>109.8</ele>
        <time>2019-07-11T04:30:36Z</time>
      </trkpt>
      <trkpt lat="39.6510450" lon="-7.6735190">
        <ele>109.6</ele>
        <time>2019-07-11T04:30:37Z</time>
      </trkpt>
      <trkpt lat="39.6509880" lon="-7.6735280">
        <ele>109.4</ele>
        <time>2019-07-11T04:30:38Z</time>
      </trkpt>
      <trkpt lat="39.6507550" lon="-7.6735980">
        <ele>108.8</ele>
        <time>2019-07-11T04:30:42Z</time>
      </trkpt>
      <trkpt lat="39.6506320" lon="-7.6736460">
        <ele>108.2</ele>
        <time>2019-07-11T04:30:44Z</time>
      </trkpt>
      <trkpt lat="39.6504390" lon="-7.6737250">
        <ele>107.4</ele>
        <time>2019-07-11T04:30:47Z</time>
      </trkpt>
      <trkpt lat="39.6503750" lon="-7.6737580">
        <ele>107.2</ele>
        <time>2019-07-11T04:30:48Z</time>
      </trkpt>
      <trkpt lat="39.6502510" lon="-7.6738470">
        <ele>106.6</ele>
        <time>2019-07-11T04:30:50Z</time>
      </trkpt>
      <trkpt lat="39.6501920" lon="-7.6738960">
        <ele>106.2</ele>
        <time>2019-07-11T04:30:51Z</time>
      </trkpt>
      <trkpt lat="39.6499930" lon="-7.6740990">
        <ele>106.0</ele>
        <time>2019-07-11T04:30:55Z</time>
      </trkpt>
      <trkpt lat="39.6498240" lon="-7.6742910">
        <ele>106.8</ele>
        <time>2019-07-11T04:31:00Z</time>
      </trkpt>
      <trkpt lat="39.6497510" lon="-7.6743960">
        <ele>107.2</ele>
        <time>2019-07-11T04:31:04Z</time>
      </trkpt>
      <trkpt lat="39.6497400" lon="-7.6744140">
        <ele>107.4</ele>
        <time>2019-07-11T04:31:05Z</time>
      </trkpt>
      <trkpt lat="39.6497280" lon="-7.6744380">
        <ele>107.4</ele>
        <time>2019-07-11T04:31:08Z</time>
      </trkpt>
      <trkpt lat="39.6496840" lon="-7.6745340">
        <ele>108.0</ele>
        <time>2019-07-11T04:31:48Z</time>
      </trkpt>
      <trkpt lat="39.6496400" lon="-7.6745920">
        <ele>108.4</ele>
        <time>2019-07-11T04:31:52Z</time>
      </trkpt>
      <trkpt lat="39.6496100" lon="-7.6746260">
        <ele>108.4</ele>
        <time>2019-07-11T04:31:54Z</time>
      </trkpt>
      <trkpt lat="39.6495620" lon="-7.6746880">
        <ele>108.6</ele>
        <time>2019-07-11T04:31:57Z</time>
      </trkpt>
      <trkpt lat="39.6495040" lon="-7.6747520">
        <ele>108.6</ele>
        <time>2019-07-11T04:32:00Z</time>
      </trkpt>
      <trkpt lat="39.6493980" lon="-7.6749000">
        <ele>109.2</ele>
        <time>2019-07-11T04:32:05Z</time>
      </trkpt>
      <trkpt lat="39.6493740" lon="-7.6749340">
        <ele>109.2</ele>
        <time>2019-07-11T04:32:06Z</time>
      </trkpt>
      <trkpt lat="39.6492660" lon="-7.6750870">
        <ele>109.2</ele>
        <time>2019-07-11T04:32:10Z</time>
      </trkpt>
      <trkpt lat="39.6491850" lon="-7.6751970">
        <ele>109.2</ele>
        <time>2019-07-11T04:32:13Z</time>
      </trkpt>
      <trkpt lat="39.6490150" lon="-7.6754270">
        <ele>109.6</ele>
        <time>2019-07-11T04:32:19Z</time>
      </trkpt>
      <trkpt lat="39.6489520" lon="-7.6755080">
        <ele>109.6</ele>
        <time>2019-07-11T04:32:21Z</time>
      </trkpt>
      <trkpt lat="39.6487090" lon="-7.6758450">
        <ele>109.2</ele>
        <time>2019-07-11T04:32:29Z</time>
      </trkpt>
      <trkpt lat="39.6484490" lon="-7.6761990">
        <ele>109.2</ele>
        <time>2019-07-11T04:32:37Z</time>
      </trkpt>
      <trkpt lat="39.6483760" lon="-7.6762960">
        <ele>109.0</ele>
        <time>2019-07-11T04:32:39Z</time>
      </trkpt>
      <trkpt lat="39.6482170" lon="-7.6765190">
        <ele>108.6</ele>
        <time>2019-07-11T04:32:43Z</time>
      </trkpt>
      <trkpt lat="39.6480820" lon="-7.6767050">
        <ele>108.4</ele>
        <time>2019-07-11T04:32:46Z</time>
      </trkpt>
      <trkpt lat="39.6478790" lon="-7.6769420">
        <ele>107.6</ele>
        <time>2019-07-11T04:32:50Z</time>
      </trkpt>
      <trkpt lat="39.6478230" lon="-7.6769730">
        <ele>107.2</ele>
        <time>2019-07-11T04:32:51Z</time>
      </trkpt>
      <trkpt lat="39.6476440" lon="-7.6769700">
        <ele>107.0</ele>
        <time>2019-07-11T04:32:54Z</time>
      </trkpt>
      <trkpt lat="39.6474380" lon="-7.6768450">
        <ele>107.2</ele>
        <time>2019-07-11T04:32:58Z</time>
      </trkpt>
      <trkpt lat="39.6473910" lon="-7.6768140">
        <ele>107.2</ele>
        <time>2019-07-11T04:32:59Z</time>
      </trkpt>
      <trkpt lat="39.6471310" lon="-7.6766240">
        <ele>107.2</ele>
        <time>2019-07-11T04:33:05Z</time>
      </trkpt>
      <trkpt lat="39.6469090" lon="-7.6764610">
        <ele>107.6</ele>
        <time>2019-07-11T04:33:10Z</time>
      </trkpt>
      <trkpt lat="39.6467750" lon="-7.6763590">
        <ele>107.4</ele>
        <time>2019-07-11T04:33:13Z</time>
      </trkpt>
      <trkpt lat="39.6465050" lon="-7.6761540">
        <ele>107.2</ele>
        <time>2019-07-11T04:33:19Z</time>
      </trkpt>
      <trkpt lat="39.6463730" lon="-7.6760570">
        <ele>107.4</ele>
        <time>2019-07-11T04:33:22Z</time>
      </trkpt>
      <trkpt lat="39.6462090" lon="-7.6759320">
        <ele>107.4</ele>
        <time>2019-07-11T04:33:26Z</time>
      </trkpt>
      <trkpt lat="39.6461420" lon="-7.6758540">
        <ele>107.2</ele>
        <time>2019-07-11T04:33:28Z</time>
      </trkpt>
      <trkpt lat="39.6460630" lon="-7.6756870">
        <ele>107.0</ele>
        <time>2019-07-11T04:33:32Z</time>
      </trkpt>
      <trkpt lat="39.6460550" lon="-7.6756610">
        <ele>107.0</ele>
        <time>2019-07-11T04:33:33Z</time>
      </trkpt>
      <trkpt lat="39.6460500" lon="-7.6756370">
        <ele>106.8</ele>
        <time>2019-07-11T04:33:36Z</time>
      </trkpt>
      <trkpt lat="39.6460580" lon="-7.6755930">
        <ele>106.6</ele>
        <time>2019-07-11T04:34:05Z</time>
      </trkpt>
      <trkpt lat="39.6460580" lon="-7.6755690">
        <ele>106.6</ele>
        <time>2019-07-11T04:34:06Z</time>
      </trkpt>
      <trkpt lat="39.6460510" lon="-7.6755080">
        <ele>106.6</ele>
        <time>2019-07-11T04:34:08Z</time>
      </trkpt>
      <trkpt lat="39.6460580" lon="-7.6754290">
        <ele>106.6</ele>
        <time>2019-07-11T04:34:10Z</time>
      </trkpt>
      <trkpt lat="39.6460670" lon="-7.6753840">
        <ele>106.6</ele>
        <time>2019-07-11T04:34:11Z</time>
      </trkpt>
      <trkpt lat="39.6461000" lon="-7.6752350">
        <ele>106.6</ele>
        <time>2019-07-11T04:34:14Z</time>
      </trkpt>
      <trkpt lat="39.6461270" lon="-7.6750720">
        <ele>106.4</ele>
        <time>2019-07-11T04:34:17Z</time>
      </trkpt>
      <trkpt lat="39.6461870" lon="-7.6747020">
        <ele>106.8</ele>
        <time>2019-07-11T04:34:24Z</time>
      </trkpt>
      <trkpt lat="39.6462190" lon="-7.6745410">
        <ele>107.4</ele>
        <time>2019-07-11T04:34:28Z</time>
      </trkpt>
      <trkpt lat="39.6462270" lon="-7.6745020">
        <ele>107.6</ele>
        <time>2019-07-11T04:34:29Z</time>
      </trkpt>
      <trkpt lat="39.6462360" lon="-7.6744310">
        <ele>107.8</ele>
        <time>2019-07-11T04:34:31Z</time>
      </trkpt>
      <trkpt lat="39.6462760" lon="-7.6742920">
        <ele>108.8</ele>
        <time>2019-07-11T04:34:35Z</time>
      </trkpt>
      <trkpt lat="39.6462900" lon="-7.6742560">
        <ele>108.6</ele>
        <time>2019-07-11T04:34:36Z</time>
      </trkpt>
      <trkpt lat="39.6463050" lon="-7.6742200">
        <ele>108.8</ele>
        <time>2019-07-11T04:34:37Z</time>
      </trkpt>
      <trkpt lat="39.6463560" lon="-7.6741150">
        <ele>109.4</ele>
        <time>2019-07-11T04:34:40Z</time>
      </trkpt>
      <trkpt lat="39.6464060" lon="-7.6740070">
        <ele>110.0</ele>
        <time>2019-07-11T04:34:43Z</time>
      </trkpt>
      <trkpt lat="39.6464250" lon="-7.6739730">
        <ele>110.2</ele>
        <time>2019-07-11T04:34:44Z</time>
      </trkpt>
      <trkpt lat="39.6464550" lon="-7.6739020">
        <ele>110.6</ele>
        <time>2019-07-11T04:34:46Z</time>
      </trkpt>
      <trkpt lat="39.6464750" lon="-7.6738290">
        <ele>111.0</ele>
        <time>2019-07-11T04:34:48Z</time>
      </trkpt>
      <trkpt lat="39.6464860" lon="-7.6737550">
        <ele>111.4</ele>
        <time>2019-07-11T04:34:50Z</time>
      </trkpt>
      <trkpt lat="39.6465040" lon="-7.6736490">
        <ele>112.0</ele>
        <time>2019-07-11T04:34:53Z</time>
      </trkpt>
      <trkpt lat="39.6465040" lon="-7.6736140">
        <ele>112.2</ele>
        <time>2019-07-11T04:34:54Z</time>
      </trkpt>
      <trkpt lat="39.6464980" lon="-7.6735420">
        <ele>112.4</ele>
        <time>2019-07-11T04:34:56Z</time>
      </trkpt>
      <trkpt lat="39.6464740" lon="-7.6734020">
        <ele>113.2</ele>
        <time>2019-07-11T04:35:00Z</time>
      </trkpt>
      <trkpt lat="39.6464600" lon="-7.6732970">
        <ele>113.8</ele>
        <time>2019-07-11T04:35:03Z</time>
      </trkpt>
      <trkpt lat="39.6464430" lon="-7.6731940">
        <ele>114.4</ele>
        <time>2019-07-11T04:35:06Z</time>
      </trkpt>
      <trkpt lat="39.6463990" lon="-7.6730300">
        <ele>115.0</ele>
        <time>2019-07-11T04:35:11Z</time>
      </trkpt>
      <trkpt lat="39.6463460" lon="-7.6729470">
        <ele>115.6</ele>
        <time>2019-07-11T04:35:14Z</time>
      </trkpt>
      <trkpt lat="39.6462990" lon="-7.6728550">
        <ele>116.0</ele>
        <time>2019-07-11T04:35:17Z</time>
      </trkpt>
      <trkpt lat="39.6462350" lon="-7.6726940">
        <ele>116.6</ele>
        <time>2019-07-11T04:35:22Z</time>
      </trkpt>
      <trkpt lat="39.6461990" lon="-7.6725980">
        <ele>117.2</ele>
        <time>2019-07-11T04:35:25Z</time>
      </trkpt>
      <trkpt lat="39.6461630" lon="-7.6725010">
        <ele>117.6</ele>
        <time>2019-07-11T04:35:28Z</time>
      </trkpt>
      <trkpt lat="39.6461060" lon="-7.6723410">
        <ele>118.6</ele>
        <time>2019-07-11T04:35:33Z</time>
      </trkpt>
      <trkpt lat="39.6460940" lon="-7.6723120">
        <ele>118.8</ele>
        <time>2019-07-11T04:35:34Z</time>
      </trkpt>
      <trkpt lat="39.6460410" lon="-7.6721620">
        <ele>119.4</ele>
        <time>2019-07-11T04:35:39Z</time>
      </trkpt>
      <trkpt lat="39.6459940" lon="-7.6720350">
        <ele>119.8</ele>
        <time>2019-07-11T04:35:43Z</time>
      </trkpt>
      <trkpt lat="39.6459790" lon="-7.6720040">
        <ele>120.2</ele>
        <time>2019-07-11T04:35:44Z</time>
      </trkpt>
      <trkpt lat="39.6459400" lon="-7.6719110">
        <ele>121.0</ele>
        <time>2019-07-11T04:35:47Z</time>
      </trkpt>
      <trkpt lat="39.6458780" lon="-7.6717910">
        <ele>121.6</ele>
        <time>2019-07-11T04:35:51Z</time>
      </trkpt>
      <trkpt lat="39.6458240" lon="-7.6717020">
        <ele>122.0</ele>
        <time>2019-07-11T04:35:54Z</time>
      </trkpt>
      <trkpt lat="39.6457290" lon="-7.6715590">
        <ele>122.8</ele>
        <time>2019-07-11T04:35:59Z</time>
      </trkpt>
      <trkpt lat="39.6456870" lon="-7.6715070">
        <ele>123.2</ele>
        <time>2019-07-11T04:36:01Z</time>
      </trkpt>
      <trkpt lat="39.6455650" lon="-7.6713730">
        <ele>124.2</ele>
        <time>2019-07-11T04:36:07Z</time>
      </trkpt>
      <trkpt lat="39.6454590" lon="-7.6712760">
        <ele>125.4</ele>
        <time>2019-07-11T04:36:12Z</time>
      </trkpt>
      <trkpt lat="39.6453960" lon="-7.6712150">
        <ele>125.8</ele>
        <time>2019-07-11T04:36:15Z</time>
      </trkpt>
      <trkpt lat="39.6453330" lon="-7.6711560">
        <ele>126.6</ele>
        <time>2019-07-11T04:36:18Z</time>
      </trkpt>
      <trkpt lat="39.6452430" lon="-7.6710830">
        <ele>127.0</ele>
        <time>2019-07-11T04:36:22Z</time>
      </trkpt>
      <trkpt lat="39.6451760" lon="-7.6710120">
        <ele>127.6</ele>
        <time>2019-07-11T04:36:25Z</time>
      </trkpt>
      <trkpt lat="39.6451180" lon="-7.6709280">
        <ele>128.2</ele>
        <time>2019-07-11T04:36:28Z</time>
      </trkpt>
      <trkpt lat="39.6450680" lon="-7.6708330">
        <ele>128.8</ele>
        <time>2019-07-11T04:36:31Z</time>
      </trkpt>
      <trkpt lat="39.6449600" lon="-7.6706920">
        <ele>129.6</ele>
        <time>2019-07-11T04:36:36Z</time>
      </trkpt>
      <trkpt lat="39.6449370" lon="-7.6706640">
        <ele>129.8</ele>
        <time>2019-07-11T04:36:37Z</time>
      </trkpt>
      <trkpt lat="39.6447700" lon="-7.6705200">
        <ele>130.8</ele>
        <time>2019-07-11T04:36:44Z</time>
      </trkpt>
      <trkpt lat="39.6446130" lon="-7.6704490">
        <ele>132.0</ele>
        <time>2019-07-11T04:36:50Z</time>
      </trkpt>
      <trkpt lat="39.6445590" lon="-7.6704240">
        <ele>132.6</ele>
        <time>2019-07-11T04:36:52Z</time>
      </trkpt>
      <trkpt lat="39.6444480" lon="-7.6703840">
        <ele>133.2</ele>
        <time>2019-07-11T04:36:56Z</time>
      </trkpt>
      <trkpt lat="39.6443610" lon="-7.6703730">
        <ele>133.8</ele>
        <time>2019-07-11T04:36:59Z</time>
      </trkpt>
      <trkpt lat="39.6443020" lon="-7.6703760">
        <ele>134.2</ele>
        <time>2019-07-11T04:37:01Z</time>
      </trkpt>
      <trkpt lat="39.6441610" lon="-7.6704090">
        <ele>135.4</ele>
        <time>2019-07-11T04:37:06Z</time>
      </trkpt>
      <trkpt lat="39.6441330" lon="-7.6704160">
        <ele>135.6</ele>
        <time>2019-07-11T04:37:07Z</time>
      </trkpt>
      <trkpt lat="39.6440480" lon="-7.6704320">
        <ele>136.4</ele>
        <time>2019-07-11T04:37:10Z</time>
      </trkpt>
      <trkpt lat="39.6438760" lon="-7.6704560">
        <ele>137.4</ele>
        <time>2019-07-11T04:37:16Z</time>
      </trkpt>
      <trkpt lat="39.6437360" lon="-7.6704240">
        <ele>138.4</ele>
        <time>2019-07-11T04:37:21Z</time>
      </trkpt>
      <trkpt lat="39.6437080" lon="-7.6704150">
        <ele>138.6</ele>
        <time>2019-07-11T04:37:22Z</time>
      </trkpt>
      <trkpt lat="39.6435710" lon="-7.6703400">
        <ele>139.6</ele>
        <time>2019-07-11T04:37:27Z</time>
      </trkpt>
      <trkpt lat="39.6435240" lon="-7.6702990">
        <ele>139.8</ele>
        <time>2019-07-11T04:37:29Z</time>
      </trkpt>
      <trkpt lat="39.6434260" lon="-7.6702030">
        <ele>140.6</ele>
        <time>2019-07-11T04:37:33Z</time>
      </trkpt>
      <trkpt lat="39.6432750" lon="-7.6700690">
        <ele>141.4</ele>
        <time>2019-07-11T04:37:39Z</time>
      </trkpt>
      <trkpt lat="39.6432490" lon="-7.6700520">
        <ele>141.6</ele>
        <time>2019-07-11T04:37:40Z</time>
      </trkpt>
      <trkpt lat="39.6430940" lon="-7.6699760">
        <ele>142.8</ele>
        <time>2019-07-11T04:37:46Z</time>
      </trkpt>
      <trkpt lat="39.6430690" lon="-7.6699600">
        <ele>143.0</ele>
        <time>2019-07-11T04:37:47Z</time>
      </trkpt>
      <trkpt lat="39.6429640" lon="-7.6699030">
        <ele>143.8</ele>
        <time>2019-07-11T04:37:51Z</time>
      </trkpt>
      <trkpt lat="39.6428910" lon="-7.6698320">
        <ele>144.8</ele>
        <time>2019-07-11T04:37:54Z</time>
      </trkpt>
      <trkpt lat="39.6428670" lon="-7.6698100">
        <ele>145.0</ele>
        <time>2019-07-11T04:37:55Z</time>
      </trkpt>
      <trkpt lat="39.6427170" lon="-7.6696950">
        <ele>146.0</ele>
        <time>2019-07-11T04:38:01Z</time>
      </trkpt>
      <trkpt lat="39.6426900" lon="-7.6696770">
        <ele>146.0</ele>
        <time>2019-07-11T04:38:02Z</time>
      </trkpt>
      <trkpt lat="39.6425260" lon="-7.6695800">
        <ele>147.2</ele>
        <time>2019-07-11T04:38:08Z</time>
      </trkpt>
      <trkpt lat="39.6424690" lon="-7.6695520">
        <ele>147.6</ele>
        <time>2019-07-11T04:38:10Z</time>
      </trkpt>
      <trkpt lat="39.6423820" lon="-7.6695170">
        <ele>148.2</ele>
        <time>2019-07-11T04:38:13Z</time>
      </trkpt>
      <trkpt lat="39.6422390" lon="-7.6694530">
        <ele>149.6</ele>
        <time>2019-07-11T04:38:18Z</time>
      </trkpt>
      <trkpt lat="39.6420650" lon="-7.6693860">
        <ele>150.6</ele>
        <time>2019-07-11T04:38:24Z</time>
      </trkpt>
      <trkpt lat="39.6420350" lon="-7.6693760">
        <ele>150.8</ele>
        <time>2019-07-11T04:38:25Z</time>
      </trkpt>
      <trkpt lat="39.6418930" lon="-7.6693190">
        <ele>151.6</ele>
        <time>2019-07-11T04:38:30Z</time>
      </trkpt>
      <trkpt lat="39.6417470" lon="-7.6692720">
        <ele>152.8</ele>
        <time>2019-07-11T04:38:35Z</time>
      </trkpt>
      <trkpt lat="39.6415710" lon="-7.6692160">
        <ele>153.8</ele>
        <time>2019-07-11T04:38:41Z</time>
      </trkpt>
      <trkpt lat="39.6414220" lon="-7.6691750">
        <ele>154.8</ele>
        <time>2019-07-11T04:38:46Z</time>
      </trkpt>
      <trkpt lat="39.6413920" lon="-7.6691650">
        <ele>155.0</ele>
        <time>2019-07-11T04:38:47Z</time>
      </trkpt>
      <trkpt lat="39.6412370" lon="-7.6691210">
        <ele>156.2</ele>
        <time>2019-07-11T04:38:52Z</time>
      </trkpt>
      <trkpt lat="39.6411460" lon="-7.6690940">
        <ele>156.8</ele>
        <time>2019-07-11T04:38:55Z</time>
      </trkpt>
      <trkpt lat="39.6410570" lon="-7.6690630">
        <ele>157.2</ele>
        <time>2019-07-11T04:38:58Z</time>
      </trkpt>
      <trkpt lat="39.6409370" lon="-7.6690270">
        <ele>158.0</ele>
        <time>2019-07-11T04:39:02Z</time>
      </trkpt>
      <trkpt lat="39.6408760" lon="-7.6690080">
        <ele>158.4</ele>
        <time>2019-07-11T04:39:04Z</time>
      </trkpt>
      <trkpt lat="39.6407250" lon="-7.6689690">
        <ele>159.4</ele>
        <time>2019-07-11T04:39:09Z</time>
      </trkpt>
      <trkpt lat="39.6406960" lon="-7.6689610">
        <ele>159.6</ele>
        <time>2019-07-11T04:39:10Z</time>
      </trkpt>
      <trkpt lat="39.6405500" lon="-7.6689180">
        <ele>160.6</ele>
        <time>2019-07-11T04:39:15Z</time>
      </trkpt>
      <trkpt lat="39.6404280" lon="-7.6688820">
        <ele>161.2</ele>
        <time>2019-07-11T04:39:19Z</time>
      </trkpt>
      <trkpt lat="39.6403380" lon="-7.6688560">
        <ele>161.8</ele>
        <time>2019-07-11T04:39:22Z</time>
      </trkpt>
      <trkpt lat="39.6401900" lon="-7.6687990">
        <ele>162.8</ele>
        <time>2019-07-11T04:39:27Z</time>
      </trkpt>
      <trkpt lat="39.6401600" lon="-7.6687880">
        <ele>163.0</ele>
        <time>2019-07-11T04:39:28Z</time>
      </trkpt>
      <trkpt lat="39.6400190" lon="-7.6687100">
        <ele>164.0</ele>
        <time>2019-07-11T04:39:33Z</time>
      </trkpt>
      <trkpt lat="39.6398460" lon="-7.6686290">
        <ele>165.4</ele>
        <time>2019-07-11T04:39:39Z</time>
      </trkpt>
      <trkpt lat="39.6397880" lon="-7.6686020">
        <ele>165.8</ele>
        <time>2019-07-11T04:39:41Z</time>
      </trkpt>
      <trkpt lat="39.6396750" lon="-7.6685350">
        <ele>166.4</ele>
        <time>2019-07-11T04:39:45Z</time>
      </trkpt>
      <trkpt lat="39.6395190" lon="-7.6684490">
        <ele>167.4</ele>
        <time>2019-07-11T04:39:50Z</time>
      </trkpt>
      <trkpt lat="39.6393660" lon="-7.6683580">
        <ele>168.6</ele>
        <time>2019-07-11T04:39:55Z</time>
      </trkpt>
      <trkpt lat="39.6393010" lon="-7.6683220">
        <ele>168.8</ele>
        <time>2019-07-11T04:39:57Z</time>
      </trkpt>
      <trkpt lat="39.6391340" lon="-7.6682330">
        <ele>169.6</ele>
        <time>2019-07-11T04:40:02Z</time>
      </trkpt>
      <trkpt lat="39.6389970" lon="-7.6681440">
        <ele>170.0</ele>
        <time>2019-07-11T04:40:06Z</time>
      </trkpt>
      <trkpt lat="39.6388240" lon="-7.6680290">
        <ele>170.8</ele>
        <time>2019-07-11T04:40:11Z</time>
      </trkpt>
      <trkpt lat="39.6387280" lon="-7.6679620">
        <ele>171.6</ele>
        <time>2019-07-11T04:40:14Z</time>
      </trkpt>
      <trkpt lat="39.6386670" lon="-7.6679120">
        <ele>172.0</ele>
        <time>2019-07-11T04:40:16Z</time>
      </trkpt>
      <trkpt lat="39.6385060" lon="-7.6677950">
        <ele>173.0</ele>
        <time>2019-07-11T04:40:21Z</time>
      </trkpt>
      <trkpt lat="39.6384740" lon="-7.6677730">
        <ele>173.2</ele>
        <time>2019-07-11T04:40:22Z</time>
      </trkpt>
      <trkpt lat="39.6383810" lon="-7.6677040">
        <ele>174.0</ele>
        <time>2019-07-11T04:40:25Z</time>
      </trkpt>
      <trkpt lat="39.6381650" lon="-7.6675660">
        <ele>175.2</ele>
        <time>2019-07-11T04:40:32Z</time>
      </trkpt>
      <trkpt lat="39.6380470" lon="-7.6675120">
        <ele>176.4</ele>
        <time>2019-07-11T04:40:36Z</time>
      </trkpt>
      <trkpt lat="39.6379220" lon="-7.6674750">
        <ele>177.2</ele>
        <time>2019-07-11T04:40:40Z</time>
      </trkpt>
      <trkpt lat="39.6378570" lon="-7.6674530">
        <ele>177.6</ele>
        <time>2019-07-11T04:40:42Z</time>
      </trkpt>
      <trkpt lat="39.6376520" lon="-7.6674060">
        <ele>178.6</ele>
        <time>2019-07-11T04:40:48Z</time>
      </trkpt>
      <trkpt lat="39.6374890" lon="-7.6674070">
        <ele>179.8</ele>
        <time>2019-07-11T04:40:53Z</time>
      </trkpt>
      <trkpt lat="39.6373950" lon="-7.6674180">
        <ele>180.6</ele>
        <time>2019-07-11T04:40:56Z</time>
      </trkpt>
      <trkpt lat="39.6373320" lon="-7.6674160">
        <ele>181.0</ele>
        <time>2019-07-11T04:40:58Z</time>
      </trkpt>
      <trkpt lat="39.6371770" lon="-7.6674100">
        <ele>182.2</ele>
        <time>2019-07-11T04:41:03Z</time>
      </trkpt>
      <trkpt lat="39.6370830" lon="-7.6673910">
        <ele>182.8</ele>
        <time>2019-07-11T04:41:06Z</time>
      </trkpt>
      <trkpt lat="39.6370210" lon="-7.6673660">
        <ele>183.2</ele>
        <time>2019-07-11T04:41:08Z</time>
      </trkpt>
      <trkpt lat="39.6369090" lon="-7.6672850">
        <ele>184.0</ele>
        <time>2019-07-11T04:41:12Z</time>
      </trkpt>
      <trkpt lat="39.6368540" lon="-7.6672410">
        <ele>184.4</ele>
        <time>2019-07-11T04:41:14Z</time>
      </trkpt>
      <trkpt lat="39.6366950" lon="-7.6670890">
        <ele>185.4</ele>
        <time>2019-07-11T04:41:20Z</time>
      </trkpt>
      <trkpt lat="39.6366690" lon="-7.6670640">
        <ele>185.6</ele>
        <time>2019-07-11T04:41:21Z</time>
      </trkpt>
      <trkpt lat="39.6365630" lon="-7.6669680">
        <ele>186.4</ele>
        <time>2019-07-11T04:41:25Z</time>
      </trkpt>
      <trkpt lat="39.6364480" lon="-7.6668750">
        <ele>187.0</ele>
        <time>2019-07-11T04:41:29Z</time>
      </trkpt>
      <trkpt lat="39.6363890" lon="-7.6668290">
        <ele>187.6</ele>
        <time>2019-07-11T04:41:31Z</time>
      </trkpt>
      <trkpt lat="39.6362740" lon="-7.6667360">
        <ele>188.6</ele>
        <time>2019-07-11T04:41:35Z</time>
      </trkpt>
      <trkpt lat="39.6362450" lon="-7.6667120">
        <ele>188.8</ele>
        <time>2019-07-11T04:41:36Z</time>
      </trkpt>
      <trkpt lat="39.6361300" lon="-7.6666270">
        <ele>189.6</ele>
        <time>2019-07-11T04:41:40Z</time>
      </trkpt>
      <trkpt lat="39.6360420" lon="-7.6665670">
        <ele>190.2</ele>
        <time>2019-07-11T04:41:43Z</time>
      </trkpt>
      <trkpt lat="39.6359520" lon="-7.6665080">
        <ele>190.6</ele>
        <time>2019-07-11T04:41:46Z</time>
      </trkpt>
      <trkpt lat="39.6358290" lon="-7.6664510">
        <ele>191.6</ele>
        <time>2019-07-11T04:41:50Z</time>
      </trkpt>
      <trkpt lat="39.6357960" lon="-7.6664440">
        <ele>191.8</ele>
        <time>2019-07-11T04:41:51Z</time>
      </trkpt>
      <trkpt lat="39.6356600" lon="-7.6664300">
        <ele>192.6</ele>
        <time>2019-07-11T04:41:55Z</time>
      </trkpt>
      <trkpt lat="39.6354910" lon="-7.6664190">
        <ele>193.8</ele>
        <time>2019-07-11T04:42:00Z</time>
      </trkpt>
      <trkpt lat="39.6354570" lon="-7.6664180">
        <ele>194.0</ele>
        <time>2019-07-11T04:42:01Z</time>
      </trkpt>
      <trkpt lat="39.6353890" lon="-7.6664080">
        <ele>194.8</ele>
        <time>2019-07-11T04:42:03Z</time>
      </trkpt>
      <trkpt lat="39.6351890" lon="-7.6663470">
        <ele>196.0</ele>
        <time>2019-07-11T04:42:09Z</time>
      </trkpt>
      <trkpt lat="39.6351580" lon="-7.6663310">
        <ele>196.2</ele>
        <time>2019-07-11T04:42:10Z</time>
      </trkpt>
      <trkpt lat="39.6350060" lon="-7.6662450">
        <ele>197.2</ele>
        <time>2019-07-11T04:42:15Z</time>
      </trkpt>
      <trkpt lat="39.6348910" lon="-7.6661570">
        <ele>198.4</ele>
        <time>2019-07-11T04:42:19Z</time>
      </trkpt>
      <trkpt lat="39.6347110" lon="-7.6660380">
        <ele>199.4</ele>
        <time>2019-07-11T04:42:25Z</time>
      </trkpt>
      <trkpt lat="39.6346540" lon="-7.6659970">
        <ele>200.0</ele>
        <time>2019-07-11T04:42:27Z</time>
      </trkpt>
      <trkpt lat="39.6345730" lon="-7.6659260">
        <ele>200.6</ele>
        <time>2019-07-11T04:42:30Z</time>
      </trkpt>
      <trkpt lat="39.6344580" lon="-7.6658470">
        <ele>201.4</ele>
        <time>2019-07-11T04:42:34Z</time>
      </trkpt>
      <trkpt lat="39.6344270" lon="-7.6658340">
        <ele>201.8</ele>
        <time>2019-07-11T04:42:35Z</time>
      </trkpt>
      <trkpt lat="39.6342900" lon="-7.6657210">
        <ele>203.0</ele>
        <time>2019-07-11T04:42:40Z</time>
      </trkpt>
      <trkpt lat="39.6340900" lon="-7.6655680">
        <ele>204.2</ele>
        <time>2019-07-11T04:42:47Z</time>
      </trkpt>
      <trkpt lat="39.6339510" lon="-7.6654480">
        <ele>205.2</ele>
        <time>2019-07-11T04:42:52Z</time>
      </trkpt>
      <trkpt lat="39.6338360" lon="-7.6653610">
        <ele>205.8</ele>
        <time>2019-07-11T04:42:56Z</time>
      </trkpt>
      <trkpt lat="39.6337800" lon="-7.6653170">
        <ele>206.2</ele>
        <time>2019-07-11T04:42:58Z</time>
      </trkpt>
      <trkpt lat="39.6336230" lon="-7.6652380">
        <ele>207.2</ele>
        <time>2019-07-11T04:43:03Z</time>
      </trkpt>
      <trkpt lat="39.6334620" lon="-7.6651850">
        <ele>208.4</ele>
        <time>2019-07-11T04:43:08Z</time>
      </trkpt>
      <trkpt lat="39.6333650" lon="-7.6651510">
        <ele>209.2</ele>
        <time>2019-07-11T04:43:11Z</time>
      </trkpt>
      <trkpt lat="39.6333030" lon="-7.6651190">
        <ele>209.6</ele>
        <time>2019-07-11T04:43:13Z</time>
      </trkpt>
      <trkpt lat="39.6331150" lon="-7.6650200">
        <ele>210.6</ele>
        <time>2019-07-11T04:43:19Z</time>
      </trkpt>
      <trkpt lat="39.6330810" lon="-7.6650090">
        <ele>211.0</ele>
        <time>2019-07-11T04:43:20Z</time>
      </trkpt>
      <trkpt lat="39.6329550" lon="-7.6649610">
        <ele>211.8</ele>
        <time>2019-07-11T04:43:24Z</time>
      </trkpt>
      <trkpt lat="39.6328650" lon="-7.6649090">
        <ele>212.6</ele>
        <time>2019-07-11T04:43:27Z</time>
      </trkpt>
      <trkpt lat="39.6328060" lon="-7.6648620">
        <ele>213.0</ele>
        <time>2019-07-11T04:43:29Z</time>
      </trkpt>
      <trkpt lat="39.6326650" lon="-7.6647590">
        <ele>214.2</ele>
        <time>2019-07-11T04:43:34Z</time>
      </trkpt>
      <trkpt lat="39.6326400" lon="-7.6647320">
        <ele>214.4</ele>
        <time>2019-07-11T04:43:35Z</time>
      </trkpt>
      <trkpt lat="39.6325620" lon="-7.6646410">
        <ele>215.2</ele>
        <time>2019-07-11T04:43:38Z</time>
      </trkpt>
      <trkpt lat="39.6324230" lon="-7.6645060">
        <ele>216.0</ele>
        <time>2019-07-11T04:43:43Z</time>
      </trkpt>
      <trkpt lat="39.6323970" lon="-7.6644800">
        <ele>216.2</ele>
        <time>2019-07-11T04:43:44Z</time>
      </trkpt>
      <trkpt lat="39.6322840" lon="-7.6643830">
        <ele>217.2</ele>
        <time>2019-07-11T04:43:48Z</time>
      </trkpt>
      <trkpt lat="39.6322250" lon="-7.6643400">
        <ele>217.6</ele>
        <time>2019-07-11T04:43:50Z</time>
      </trkpt>
      <trkpt lat="39.6321090" lon="-7.6642510">
        <ele>218.2</ele>
        <time>2019-07-11T04:43:54Z</time>
      </trkpt>
      <trkpt lat="39.6319620" lon="-7.6641470">
        <ele>219.4</ele>
        <time>2019-07-11T04:43:59Z</time>
      </trkpt>
      <trkpt lat="39.6318140" lon="-7.6640510">
        <ele>220.6</ele>
        <time>2019-07-11T04:44:04Z</time>
      </trkpt>
      <trkpt lat="39.6317850" lon="-7.6640300">
        <ele>220.6</ele>
        <time>2019-07-11T04:44:05Z</time>
      </trkpt>
      <trkpt lat="39.6316750" lon="-7.6639370">
        <ele>221.6</ele>
        <time>2019-07-11T04:44:09Z</time>
      </trkpt>
      <trkpt lat="39.6315860" lon="-7.6638700">
        <ele>222.4</ele>
        <time>2019-07-11T04:44:12Z</time>
      </trkpt>
      <trkpt lat="39.6315310" lon="-7.6638300">
        <ele>222.8</ele>
        <time>2019-07-11T04:44:14Z</time>
      </trkpt>
      <trkpt lat="39.6313840" lon="-7.6637520">
        <ele>223.2</ele>
        <time>2019-07-11T04:44:19Z</time>
      </trkpt>
      <trkpt lat="39.6313010" lon="-7.6636950">
        <ele>224.0</ele>
        <time>2019-07-11T04:44:22Z</time>
      </trkpt>
      <trkpt lat="39.6311540" lon="-7.6636260">
        <ele>225.0</ele>
        <time>2019-07-11T04:44:27Z</time>
      </trkpt>
      <trkpt lat="39.6311260" lon="-7.6636080">
        <ele>225.2</ele>
        <time>2019-07-11T04:44:28Z</time>
      </trkpt>
      <trkpt lat="39.6310030" lon="-7.6635740">
        <ele>226.0</ele>
        <time>2019-07-11T04:44:32Z</time>
      </trkpt>
      <trkpt lat="39.6309730" lon="-7.6635660">
        <ele>226.2</ele>
        <time>2019-07-11T04:44:33Z</time>
      </trkpt>
      <trkpt lat="39.6308850" lon="-7.6635320">
        <ele>227.0</ele>
        <time>2019-07-11T04:44:36Z</time>
      </trkpt>
      <trkpt lat="39.6307910" lon="-7.6635290">
        <ele>227.6</ele>
        <time>2019-07-11T04:44:39Z</time>
      </trkpt>
      <trkpt lat="39.6306950" lon="-7.6635210">
        <ele>228.2</ele>
        <time>2019-07-11T04:44:42Z</time>
      </trkpt>
      <trkpt lat="39.6305390" lon="-7.6634980">
        <ele>229.2</ele>
        <time>2019-07-11T04:44:47Z</time>
      </trkpt>
      <trkpt lat="39.6303890" lon="-7.6634780">
        <ele>230.4</ele>
        <time>2019-07-11T04:44:52Z</time>
      </trkpt>
      <trkpt lat="39.6303290" lon="-7.6634730">
        <ele>230.8</ele>
        <time>2019-07-11T04:44:54Z</time>
      </trkpt>
      <trkpt lat="39.6302130" lon="-7.6634750">
        <ele>231.4</ele>
        <time>2019-07-11T04:44:58Z</time>
      </trkpt>
      <trkpt lat="39.6301030" lon="-7.6634600">
        <ele>232.2</ele>
        <time>2019-07-11T04:45:02Z</time>
      </trkpt>
      <trkpt lat="39.6300480" lon="-7.6634390">
        <ele>232.2</ele>
        <time>2019-07-11T04:45:04Z</time>
      </trkpt>
      <trkpt lat="39.6299070" lon="-7.6633920">
        <ele>233.2</ele>
        <time>2019-07-11T04:45:09Z</time>
      </trkpt>
      <trkpt lat="39.6298810" lon="-7.6633830">
        <ele>233.6</ele>
        <time>2019-07-11T04:45:10Z</time>
      </trkpt>
      <trkpt lat="39.6297390" lon="-7.6633120">
        <ele>234.4</ele>
        <time>2019-07-11T04:45:15Z</time>
      </trkpt>
      <trkpt lat="39.6296810" lon="-7.6632800">
        <ele>234.6</ele>
        <time>2019-07-11T04:45:17Z</time>
      </trkpt>
      <trkpt lat="39.6295340" lon="-7.6632070">
        <ele>236.0</ele>
        <time>2019-07-11T04:45:22Z</time>
      </trkpt>
      <trkpt lat="39.6294740" lon="-7.6631720">
        <ele>236.4</ele>
        <time>2019-07-11T04:45:24Z</time>
      </trkpt>
      <trkpt lat="39.6293520" lon="-7.6631140">
        <ele>237.0</ele>
        <time>2019-07-11T04:45:28Z</time>
      </trkpt>
      <trkpt lat="39.6292580" lon="-7.6630790">
        <ele>237.8</ele>
        <time>2019-07-11T04:45:31Z</time>
      </trkpt>
      <trkpt lat="39.6291940" lon="-7.6630570">
        <ele>238.2</ele>
        <time>2019-07-11T04:45:33Z</time>
      </trkpt>
      <trkpt lat="39.6290970" lon="-7.6630270">
        <ele>238.8</ele>
        <time>2019-07-11T04:45:37Z</time>
      </trkpt>
      <trkpt lat="39.6290770" lon="-7.6630170">
        <ele>239.2</ele>
        <time>2019-07-11T04:45:39Z</time>
      </trkpt>
      <trkpt lat="39.6290660" lon="-7.6630120">
        <ele>239.2</ele>
        <time>2019-07-11T04:45:40Z</time>
      </trkpt>
      <trkpt lat="39.6290280" lon="-7.6630140">
        <ele>239.4</ele>
        <time>2019-07-11T04:45:42Z</time>
      </trkpt>
      <trkpt lat="39.6288670" lon="-7.6630170">
        <ele>240.2</ele>
        <time>2019-07-11T04:45:48Z</time>
      </trkpt>
      <trkpt lat="39.6288090" lon="-7.6630190">
        <ele>240.6</ele>
        <time>2019-07-11T04:45:50Z</time>
      </trkpt>
      <trkpt lat="39.6287200" lon="-7.6630120">
        <ele>241.4</ele>
        <time>2019-07-11T04:45:53Z</time>
      </trkpt>
      <trkpt lat="39.6285950" lon="-7.6630040">
        <ele>242.4</ele>
        <time>2019-07-11T04:45:57Z</time>
      </trkpt>
      <trkpt lat="39.6284030" lon="-7.6629520">
        <ele>243.0</ele>
        <time>2019-07-11T04:46:03Z</time>
      </trkpt>
      <trkpt lat="39.6283420" lon="-7.6629250">
        <ele>243.4</ele>
        <time>2019-07-11T04:46:05Z</time>
      </trkpt>
      <trkpt lat="39.6281800" lon="-7.6628760">
        <ele>244.2</ele>
        <time>2019-07-11T04:46:10Z</time>
      </trkpt>
      <trkpt lat="39.6281470" lon="-7.6628690">
        <ele>244.6</ele>
        <time>2019-07-11T04:46:11Z</time>
      </trkpt>
      <trkpt lat="39.6279430" lon="-7.6628350">
        <ele>245.8</ele>
        <time>2019-07-11T04:46:17Z</time>
      </trkpt>
      <trkpt lat="39.6278750" lon="-7.6628250">
        <ele>246.2</ele>
        <time>2019-07-11T04:46:19Z</time>
      </trkpt>
      <trkpt lat="39.6278050" lon="-7.6628170">
        <ele>246.8</ele>
        <time>2019-07-11T04:46:21Z</time>
      </trkpt>
      <trkpt lat="39.6276290" lon="-7.6628130">
        <ele>248.0</ele>
        <time>2019-07-11T04:46:26Z</time>
      </trkpt>
      <trkpt lat="39.6275250" lon="-7.6628180">
        <ele>248.6</ele>
        <time>2019-07-11T04:46:29Z</time>
      </trkpt>
      <trkpt lat="39.6274560" lon="-7.6628270">
        <ele>249.0</ele>
        <time>2019-07-11T04:46:31Z</time>
      </trkpt>
      <trkpt lat="39.6273170" lon="-7.6628450">
        <ele>250.0</ele>
        <time>2019-07-11T04:46:35Z</time>
      </trkpt>
      <trkpt lat="39.6272160" lon="-7.6628590">
        <ele>250.6</ele>
        <time>2019-07-11T04:46:38Z</time>
      </trkpt>
      <trkpt lat="39.6271480" lon="-7.6628650">
        <ele>251.2</ele>
        <time>2019-07-11T04:46:40Z</time>
      </trkpt>
      <trkpt lat="39.6269820" lon="-7.6628740">
        <ele>252.2</ele>
        <time>2019-07-11T04:46:45Z</time>
      </trkpt>
      <trkpt lat="39.6269480" lon="-7.6628760">
        <ele>252.6</ele>
        <time>2019-07-11T04:46:46Z</time>
      </trkpt>
      <trkpt lat="39.6268140" lon="-7.6628750">
        <ele>253.4</ele>
        <time>2019-07-11T04:46:50Z</time>
      </trkpt>
      <trkpt lat="39.6266790" lon="-7.6628800">
        <ele>254.2</ele>
        <time>2019-07-11T04:46:54Z</time>
      </trkpt>
      <trkpt lat="39.6266450" lon="-7.6628750">
        <ele>254.6</ele>
        <time>2019-07-11T04:46:55Z</time>
      </trkpt>
      <trkpt lat="39.6264730" lon="-7.6628730">
        <ele>255.6</ele>
        <time>2019-07-11T04:47:00Z</time>
      </trkpt>
      <trkpt lat="39.6264400" lon="-7.6628750">
        <ele>255.8</ele>
        <time>2019-07-11T04:47:01Z</time>
      </trkpt>
      <trkpt lat="39.6263080" lon="-7.6628990">
        <ele>256.4</ele>
        <time>2019-07-11T04:47:05Z</time>
      </trkpt>
      <trkpt lat="39.6261800" lon="-7.6629420">
        <ele>257.4</ele>
        <time>2019-07-11T04:47:09Z</time>
      </trkpt>
      <trkpt lat="39.6261490" lon="-7.6629600">
        <ele>257.6</ele>
        <time>2019-07-11T04:47:10Z</time>
      </trkpt>
      <trkpt lat="39.6259990" lon="-7.6630620">
        <ele>258.8</ele>
        <time>2019-07-11T04:47:15Z</time>
      </trkpt>
      <trkpt lat="39.6259420" lon="-7.6631160">
        <ele>259.4</ele>
        <time>2019-07-11T04:47:17Z</time>
      </trkpt>
      <trkpt lat="39.6258840" lon="-7.6631660">
        <ele>259.8</ele>
        <time>2019-07-11T04:47:19Z</time>
      </trkpt>
      <trkpt lat="39.6257380" lon="-7.6633010">
        <ele>261.0</ele>
        <time>2019-07-11T04:47:24Z</time>
      </trkpt>
      <trkpt lat="39.6256240" lon="-7.6633980">
        <ele>262.0</ele>
        <time>2019-07-11T04:47:28Z</time>
      </trkpt>
      <trkpt lat="39.6255250" lon="-7.6635200">
        <ele>262.8</ele>
        <time>2019-07-11T04:47:32Z</time>
      </trkpt>
      <trkpt lat="39.6254980" lon="-7.6635490">
        <ele>263.0</ele>
        <time>2019-07-11T04:47:33Z</time>
      </trkpt>
      <trkpt lat="39.6253410" lon="-7.6637340">
        <ele>264.2</ele>
        <time>2019-07-11T04:47:39Z</time>
      </trkpt>
      <trkpt lat="39.6252910" lon="-7.6637980">
        <ele>264.6</ele>
        <time>2019-07-11T04:47:41Z</time>
      </trkpt>
      <trkpt lat="39.6252230" lon="-7.6638980">
        <ele>265.4</ele>
        <time>2019-07-11T04:47:44Z</time>
      </trkpt>
      <trkpt lat="39.6251160" lon="-7.6640690">
        <ele>266.2</ele>
        <time>2019-07-11T04:47:49Z</time>
      </trkpt>
      <trkpt lat="39.6250930" lon="-7.6641020">
        <ele>266.6</ele>
        <time>2019-07-11T04:47:50Z</time>
      </trkpt>
      <trkpt lat="39.6249900" lon="-7.6642800">
        <ele>267.6</ele>
        <time>2019-07-11T04:47:55Z</time>
      </trkpt>
      <trkpt lat="39.6249000" lon="-7.6644200">
        <ele>268.2</ele>
        <time>2019-07-11T04:47:59Z</time>
      </trkpt>
      <trkpt lat="39.6247960" lon="-7.6645450">
        <ele>268.8</ele>
        <time>2019-07-11T04:48:03Z</time>
      </trkpt>
      <trkpt lat="39.6247020" lon="-7.6646240">
        <ele>268.8</ele>
        <time>2019-07-11T04:48:06Z</time>
      </trkpt>
      <trkpt lat="39.6245210" lon="-7.6647370">
        <ele>269.2</ele>
        <time>2019-07-11T04:48:11Z</time>
      </trkpt>
      <trkpt lat="39.6244010" lon="-7.6647890">
        <ele>269.6</ele>
        <time>2019-07-11T04:48:14Z</time>
      </trkpt>
      <trkpt lat="39.6243590" lon="-7.6648030">
        <ele>269.6</ele>
        <time>2019-07-11T04:48:15Z</time>
      </trkpt>
      <trkpt lat="39.6241460" lon="-7.6648800">
        <ele>269.8</ele>
        <time>2019-07-11T04:48:20Z</time>
      </trkpt>
      <trkpt lat="39.6240570" lon="-7.6649010">
        <ele>270.0</ele>
        <time>2019-07-11T04:48:22Z</time>
      </trkpt>
      <trkpt lat="39.6240110" lon="-7.6649100">
        <ele>270.0</ele>
        <time>2019-07-11T04:48:23Z</time>
      </trkpt>
      <trkpt lat="39.6238230" lon="-7.6649330">
        <ele>270.0</ele>
        <time>2019-07-11T04:48:27Z</time>
      </trkpt>
      <trkpt lat="39.6236210" lon="-7.6649270">
        <ele>270.0</ele>
        <time>2019-07-11T04:48:31Z</time>
      </trkpt>
      <trkpt lat="39.6233580" lon="-7.6648850">
        <ele>270.0</ele>
        <time>2019-07-11T04:48:36Z</time>
      </trkpt>
      <trkpt lat="39.6231420" lon="-7.6648620">
        <ele>270.2</ele>
        <time>2019-07-11T04:48:40Z</time>
      </trkpt>
      <trkpt lat="39.6229870" lon="-7.6648340">
        <ele>270.4</ele>
        <time>2019-07-11T04:48:43Z</time>
      </trkpt>
      <trkpt lat="39.6227830" lon="-7.6647990">
        <ele>270.4</ele>
        <time>2019-07-11T04:48:47Z</time>
      </trkpt>
      <trkpt lat="39.6227340" lon="-7.6647890">
        <ele>270.6</ele>
        <time>2019-07-11T04:48:48Z</time>
      </trkpt>
      <trkpt lat="39.6224040" lon="-7.6646970">
        <ele>271.2</ele>
        <time>2019-07-11T04:48:55Z</time>
      </trkpt>
      <trkpt lat="39.6222680" lon="-7.6646580">
        <ele>271.6</ele>
        <time>2019-07-11T04:48:58Z</time>
      </trkpt>
      <trkpt lat="39.6220430" lon="-7.6645990">
        <ele>272.6</ele>
        <time>2019-07-11T04:49:03Z</time>
      </trkpt>
      <trkpt lat="39.6219980" lon="-7.6645880">
        <ele>272.8</ele>
        <time>2019-07-11T04:49:04Z</time>
      </trkpt>
      <trkpt lat="39.6219540" lon="-7.6645760">
        <ele>272.8</ele>
        <time>2019-07-11T04:49:05Z</time>
      </trkpt>
      <trkpt lat="39.6215550" lon="-7.6644660">
        <ele>273.8</ele>
        <time>2019-07-11T04:49:14Z</time>
      </trkpt>
      <trkpt lat="39.6215120" lon="-7.6644550">
        <ele>274.0</ele>
        <time>2019-07-11T04:49:15Z</time>
      </trkpt>
      <trkpt lat="39.6213000" lon="-7.6644050">
        <ele>275.0</ele>
        <time>2019-07-11T04:49:20Z</time>
      </trkpt>
      <trkpt lat="39.6210910" lon="-7.6643720">
        <ele>275.8</ele>
        <time>2019-07-11T04:49:25Z</time>
      </trkpt>
      <trkpt lat="39.6210500" lon="-7.6643660">
        <ele>276.0</ele>
        <time>2019-07-11T04:49:26Z</time>
      </trkpt>
      <trkpt lat="39.6208070" lon="-7.6643320">
        <ele>277.2</ele>
        <time>2019-07-11T04:49:32Z</time>
      </trkpt>
      <trkpt lat="39.6206870" lon="-7.6643170">
        <ele>277.6</ele>
        <time>2019-07-11T04:49:35Z</time>
      </trkpt>
      <trkpt lat="39.6205670" lon="-7.6642940">
        <ele>278.4</ele>
        <time>2019-07-11T04:49:38Z</time>
      </trkpt>
      <trkpt lat="39.6203320" lon="-7.6642570">
        <ele>279.4</ele>
        <time>2019-07-11T04:49:44Z</time>
      </trkpt>
      <trkpt lat="39.6200950" lon="-7.6642240">
        <ele>280.6</ele>
        <time>2019-07-11T04:49:50Z</time>
      </trkpt>
      <trkpt lat="39.6200190" lon="-7.6642080">
        <ele>281.2</ele>
        <time>2019-07-11T04:49:52Z</time>
      </trkpt>
      <trkpt lat="39.6198650" lon="-7.6641850">
        <ele>281.8</ele>
        <time>2019-07-11T04:49:56Z</time>
      </trkpt>
      <trkpt lat="39.6196660" lon="-7.6641600">
        <ele>282.6</ele>
        <time>2019-07-11T04:50:01Z</time>
      </trkpt>
      <trkpt lat="39.6195860" lon="-7.6641380">
        <ele>283.0</ele>
        <time>2019-07-11T04:50:03Z</time>
      </trkpt>
      <trkpt lat="39.6193820" lon="-7.6640950">
        <ele>284.2</ele>
        <time>2019-07-11T04:50:08Z</time>
      </trkpt>
      <trkpt lat="39.6192630" lon="-7.6640690">
        <ele>284.6</ele>
        <time>2019-07-11T04:50:11Z</time>
      </trkpt>
      <trkpt lat="39.6191450" lon="-7.6640420">
        <ele>285.2</ele>
        <time>2019-07-11T04:50:14Z</time>
      </trkpt>
      <trkpt lat="39.6189920" lon="-7.6640000">
        <ele>286.0</ele>
        <time>2019-07-11T04:50:18Z</time>
      </trkpt>
      <trkpt lat="39.6189530" lon="-7.6639860">
        <ele>286.2</ele>
        <time>2019-07-11T04:50:19Z</time>
      </trkpt>
      <trkpt lat="39.6187580" lon="-7.6639350">
        <ele>287.2</ele>
        <time>2019-07-11T04:50:24Z</time>
      </trkpt>
      <trkpt lat="39.6186040" lon="-7.6638850">
        <ele>288.0</ele>
        <time>2019-07-11T04:50:28Z</time>
      </trkpt>
      <trkpt lat="39.6185280" lon="-7.6638630">
        <ele>288.4</ele>
        <time>2019-07-11T04:50:30Z</time>
      </trkpt>
      <trkpt lat="39.6182930" lon="-7.6638010">
        <ele>289.6</ele>
        <time>2019-07-11T04:50:36Z</time>
      </trkpt>
      <trkpt lat="39.6180650" lon="-7.6637390">
        <ele>290.8</ele>
        <time>2019-07-11T04:50:42Z</time>
      </trkpt>
      <trkpt lat="39.6179140" lon="-7.6636960">
        <ele>291.6</ele>
        <time>2019-07-11T04:50:46Z</time>
      </trkpt>
      <trkpt lat="39.6178390" lon="-7.6636770">
        <ele>291.8</ele>
        <time>2019-07-11T04:50:48Z</time>
      </trkpt>
      <trkpt lat="39.6176540" lon="-7.6636180">
        <ele>292.8</ele>
        <time>2019-07-11T04:50:53Z</time>
      </trkpt>
      <trkpt lat="39.6176170" lon="-7.6636090">
        <ele>293.0</ele>
        <time>2019-07-11T04:50:54Z</time>
      </trkpt>
      <trkpt lat="39.6174270" lon="-7.6635560">
        <ele>293.8</ele>
        <time>2019-07-11T04:50:59Z</time>
      </trkpt>
      <trkpt lat="39.6172710" lon="-7.6635190">
        <ele>294.8</ele>
        <time>2019-07-11T04:51:03Z</time>
      </trkpt>
      <trkpt lat="39.6172320" lon="-7.6635080">
        <ele>295.0</ele>
        <time>2019-07-11T04:51:04Z</time>
      </trkpt>
      <trkpt lat="39.6169630" lon="-7.6634510">
        <ele>296.0</ele>
        <time>2019-07-11T04:51:11Z</time>
      </trkpt>
      <trkpt lat="39.6167330" lon="-7.6634340">
        <ele>297.2</ele>
        <time>2019-07-11T04:51:17Z</time>
      </trkpt>
      <trkpt lat="39.6166170" lon="-7.6634270">
        <ele>298.0</ele>
        <time>2019-07-11T04:51:20Z</time>
      </trkpt>
      <trkpt lat="39.6165390" lon="-7.6634220">
        <ele>298.4</ele>
        <time>2019-07-11T04:51:22Z</time>
      </trkpt>
      <trkpt lat="39.6163460" lon="-7.6633860">
        <ele>299.4</ele>
        <time>2019-07-11T04:51:27Z</time>
      </trkpt>
      <trkpt lat="39.6162690" lon="-7.6633600">
        <ele>300.0</ele>
        <time>2019-07-11T04:51:29Z</time>
      </trkpt>
      <trkpt lat="39.6162300" lon="-7.6633550">
        <ele>300.4</ele>
        <time>2019-07-11T04:51:30Z</time>
      </trkpt>
      <trkpt lat="39.6161900" lon="-7.6633530">
        <ele>300.6</ele>
        <time>2019-07-11T04:51:31Z</time>
      </trkpt>
      <trkpt lat="39.6160330" lon="-7.6633350">
        <ele>301.2</ele>
        <time>2019-07-11T04:51:35Z</time>
      </trkpt>
      <trkpt lat="39.6158770" lon="-7.6633020">
        <ele>301.6</ele>
        <time>2019-07-11T04:51:39Z</time>
      </trkpt>
      <trkpt lat="39.6156790" lon="-7.6632710">
        <ele>302.6</ele>
        <time>2019-07-11T04:51:44Z</time>
      </trkpt>
      <trkpt lat="39.6156390" lon="-7.6632670">
        <ele>302.8</ele>
        <time>2019-07-11T04:51:45Z</time>
      </trkpt>
      <trkpt lat="39.6154810" lon="-7.6632530">
        <ele>303.6</ele>
        <time>2019-07-11T04:51:49Z</time>
      </trkpt>
      <trkpt lat="39.6152450" lon="-7.6632400">
        <ele>304.8</ele>
        <time>2019-07-11T04:51:55Z</time>
      </trkpt>
      <trkpt lat="39.6152060" lon="-7.6632370">
        <ele>305.0</ele>
        <time>2019-07-11T04:51:56Z</time>
      </trkpt>
      <trkpt lat="39.6150900" lon="-7.6632300">
        <ele>306.0</ele>
        <time>2019-07-11T04:51:59Z</time>
      </trkpt>
      <trkpt lat="39.6148970" lon="-7.6632140">
        <ele>307.0</ele>
        <time>2019-07-11T04:52:04Z</time>
      </trkpt>
      <trkpt lat="39.6146590" lon="-7.6631770">
        <ele>308.0</ele>
        <time>2019-07-11T04:52:10Z</time>
      </trkpt>
      <trkpt lat="39.6144960" lon="-7.6631410">
        <ele>308.8</ele>
        <time>2019-07-11T04:52:14Z</time>
      </trkpt>
      <trkpt lat="39.6144130" lon="-7.6631210">
        <ele>309.2</ele>
        <time>2019-07-11T04:52:16Z</time>
      </trkpt>
      <trkpt lat="39.6141220" lon="-7.6630470">
        <ele>310.2</ele>
        <time>2019-07-11T04:52:23Z</time>
      </trkpt>
      <trkpt lat="39.6140400" lon="-7.6630230">
        <ele>310.6</ele>
        <time>2019-07-11T04:52:25Z</time>
      </trkpt>
      <trkpt lat="39.6139180" lon="-7.6629880">
        <ele>311.4</ele>
        <time>2019-07-11T04:52:28Z</time>
      </trkpt>
      <trkpt lat="39.6137160" lon="-7.6629320">
        <ele>312.4</ele>
        <time>2019-07-11T04:52:33Z</time>
      </trkpt>
      <trkpt lat="39.6136760" lon="-7.6629240">
        <ele>312.6</ele>
        <time>2019-07-11T04:52:34Z</time>
      </trkpt>
      <trkpt lat="39.6134320" lon="-7.6628660">
        <ele>313.6</ele>
        <time>2019-07-11T04:52:40Z</time>
      </trkpt>
      <trkpt lat="39.6133920" lon="-7.6628550">
        <ele>313.8</ele>
        <time>2019-07-11T04:52:41Z</time>
      </trkpt>
      <trkpt lat="39.6132320" lon="-7.6628230">
        <ele>314.8</ele>
        <time>2019-07-11T04:52:45Z</time>
      </trkpt>
      <trkpt lat="39.6130740" lon="-7.6627740">
        <ele>315.4</ele>
        <time>2019-07-11T04:52:49Z</time>
      </trkpt>
      <trkpt lat="39.6129560" lon="-7.6627460">
        <ele>315.8</ele>
        <time>2019-07-11T04:52:52Z</time>
      </trkpt>
      <trkpt lat="39.6128760" lon="-7.6627330">
        <ele>316.0</ele>
        <time>2019-07-11T04:52:54Z</time>
      </trkpt>
      <trkpt lat="39.6128360" lon="-7.6627200">
        <ele>316.2</ele>
        <time>2019-07-11T04:52:55Z</time>
      </trkpt>
      <trkpt lat="39.6127560" lon="-7.6626960">
        <ele>316.6</ele>
        <time>2019-07-11T04:52:57Z</time>
      </trkpt>
      <trkpt lat="39.6127140" lon="-7.6626930">
        <ele>316.8</ele>
        <time>2019-07-11T04:52:58Z</time>
      </trkpt>
      <trkpt lat="39.6125870" lon="-7.6627120">
        <ele>317.6</ele>
        <time>2019-07-11T04:53:01Z</time>
      </trkpt>
      <trkpt lat="39.6125450" lon="-7.6627260">
        <ele>317.6</ele>
        <time>2019-07-11T04:53:02Z</time>
      </trkpt>
      <trkpt lat="39.6124360" lon="-7.6628060">
        <ele>318.0</ele>
        <time>2019-07-11T04:53:05Z</time>
      </trkpt>
      <trkpt lat="39.6124060" lon="-7.6628420">
        <ele>318.0</ele>
        <time>2019-07-11T04:53:06Z</time>
      </trkpt>
      <trkpt lat="39.6123350" lon="-7.6629660">
        <ele>318.8</ele>
        <time>2019-07-11T04:53:09Z</time>
      </trkpt>
      <trkpt lat="39.6123150" lon="-7.6630100">
        <ele>319.2</ele>
        <time>2019-07-11T04:53:10Z</time>
      </trkpt>
      <trkpt lat="39.6122720" lon="-7.6630930">
        <ele>319.8</ele>
        <time>2019-07-11T04:53:12Z</time>
      </trkpt>
      <trkpt lat="39.6122100" lon="-7.6632180">
        <ele>320.4</ele>
        <time>2019-07-11T04:53:15Z</time>
      </trkpt>
      <trkpt lat="39.6121120" lon="-7.6633800">
        <ele>321.6</ele>
        <time>2019-07-11T04:53:19Z</time>
      </trkpt>
      <trkpt lat="39.6120830" lon="-7.6634170">
        <ele>321.8</ele>
        <time>2019-07-11T04:53:20Z</time>
      </trkpt>
      <trkpt lat="39.6119410" lon="-7.6635170">
        <ele>322.8</ele>
        <time>2019-07-11T04:53:24Z</time>
      </trkpt>
      <trkpt lat="39.6119010" lon="-7.6635320">
        <ele>323.0</ele>
        <time>2019-07-11T04:53:25Z</time>
      </trkpt>
      <trkpt lat="39.6118610" lon="-7.6635440">
        <ele>323.0</ele>
        <time>2019-07-11T04:53:26Z</time>
      </trkpt>
      <trkpt lat="39.6116990" lon="-7.6635570">
        <ele>324.0</ele>
        <time>2019-07-11T04:53:30Z</time>
      </trkpt>
      <trkpt lat="39.6115400" lon="-7.6635530">
        <ele>325.0</ele>
        <time>2019-07-11T04:53:34Z</time>
      </trkpt>
      <trkpt lat="39.6114980" lon="-7.6635520">
        <ele>325.2</ele>
        <time>2019-07-11T04:53:35Z</time>
      </trkpt>
      <trkpt lat="39.6114570" lon="-7.6635530">
        <ele>325.2</ele>
        <time>2019-07-11T04:53:36Z</time>
      </trkpt>
      <trkpt lat="39.6112440" lon="-7.6635520">
        <ele>325.8</ele>
        <time>2019-07-11T04:53:41Z</time>
      </trkpt>
      <trkpt lat="39.6111080" lon="-7.6635510">
        <ele>325.8</ele>
        <time>2019-07-11T04:53:44Z</time>
      </trkpt>
      <trkpt lat="39.6110610" lon="-7.6635480">
        <ele>326.0</ele>
        <time>2019-07-11T04:53:45Z</time>
      </trkpt>
      <trkpt lat="39.6110140" lon="-7.6635450">
        <ele>326.2</ele>
        <time>2019-07-11T04:53:46Z</time>
      </trkpt>
      <trkpt lat="39.6108250" lon="-7.6635320">
        <ele>326.0</ele>
        <time>2019-07-11T04:53:50Z</time>
      </trkpt>
      <trkpt lat="39.6106820" lon="-7.6635290">
        <ele>325.8</ele>
        <time>2019-07-11T04:53:53Z</time>
      </trkpt>
      <trkpt lat="39.6106330" lon="-7.6635320">
        <ele>325.8</ele>
        <time>2019-07-11T04:53:54Z</time>
      </trkpt>
      <trkpt lat="39.6105340" lon="-7.6635320">
        <ele>325.8</ele>
        <time>2019-07-11T04:53:56Z</time>
      </trkpt>
      <trkpt lat="39.6104310" lon="-7.6635270">
        <ele>325.6</ele>
        <time>2019-07-11T04:53:58Z</time>
      </trkpt>
      <trkpt lat="39.6102660" lon="-7.6635140">
        <ele>325.4</ele>
        <time>2019-07-11T04:54:01Z</time>
      </trkpt>
      <trkpt lat="39.6100410" lon="-7.6635060">
        <ele>325.2</ele>
        <time>2019-07-11T04:54:05Z</time>
      </trkpt>
      <trkpt lat="39.6099840" lon="-7.6635060">
        <ele>325.0</ele>
        <time>2019-07-11T04:54:06Z</time>
      </trkpt>
      <trkpt lat="39.6098730" lon="-7.6635030">
        <ele>324.8</ele>
        <time>2019-07-11T04:54:08Z</time>
      </trkpt>
      <trkpt lat="39.6095920" lon="-7.6634900">
        <ele>324.0</ele>
        <time>2019-07-11T04:54:13Z</time>
      </trkpt>
      <trkpt lat="39.6095320" lon="-7.6634880">
        <ele>323.8</ele>
        <time>2019-07-11T04:54:14Z</time>
      </trkpt>
      <trkpt lat="39.6094740" lon="-7.6634880">
        <ele>323.8</ele>
        <time>2019-07-11T04:54:15Z</time>
      </trkpt>
      <trkpt lat="39.6093600" lon="-7.6634830">
        <ele>323.4</ele>
        <time>2019-07-11T04:54:17Z</time>
      </trkpt>
      <trkpt lat="39.6093010" lon="-7.6634800">
        <ele>323.4</ele>
        <time>2019-07-11T04:54:18Z</time>
      </trkpt>
      <trkpt lat="39.6091800" lon="-7.6634750">
        <ele>323.0</ele>
        <time>2019-07-11T04:54:20Z</time>
      </trkpt>
      <trkpt lat="39.6091180" lon="-7.6634700">
        <ele>322.8</ele>
        <time>2019-07-11T04:54:21Z</time>
      </trkpt>
      <trkpt lat="39.6089940" lon="-7.6634500">
        <ele>322.6</ele>
        <time>2019-07-11T04:54:23Z</time>
      </trkpt>
      <trkpt lat="39.6087260" lon="-7.6634080">
        <ele>321.8</ele>
        <time>2019-07-11T04:54:27Z</time>
      </trkpt>
      <trkpt lat="39.6083670" lon="-7.6633370">
        <ele>320.6</ele>
        <time>2019-07-11T04:54:32Z</time>
      </trkpt>
      <trkpt lat="39.6081430" lon="-7.6632900">
        <ele>320.0</ele>
        <time>2019-07-11T04:54:35Z</time>
      </trkpt>
      <trkpt lat="39.6080680" lon="-7.6632660">
        <ele>319.4</ele>
        <time>2019-07-11T04:54:36Z</time>
      </trkpt>
      <trkpt lat="39.6078400" lon="-7.6631740">
        <ele>318.4</ele>
        <time>2019-07-11T04:54:39Z</time>
      </trkpt>
      <trkpt lat="39.6076820" lon="-7.6631140">
        <ele>317.8</ele>
        <time>2019-07-11T04:54:41Z</time>
      </trkpt>
      <trkpt lat="39.6075230" lon="-7.6630550">
        <ele>317.0</ele>
        <time>2019-07-11T04:54:43Z</time>
      </trkpt>
      <trkpt lat="39.6072830" lon="-7.6629480">
        <ele>315.8</ele>
        <time>2019-07-11T04:54:46Z</time>
      </trkpt>
      <trkpt lat="39.6071260" lon="-7.6628710">
        <ele>315.2</ele>
        <time>2019-07-11T04:54:48Z</time>
      </trkpt>
      <trkpt lat="39.6069710" lon="-7.6628030">
        <ele>314.8</ele>
        <time>2019-07-11T04:54:50Z</time>
      </trkpt>
      <trkpt lat="39.6066020" lon="-7.6626530">
        <ele>314.6</ele>
        <time>2019-07-11T04:54:55Z</time>
      </trkpt>
      <trkpt lat="39.6063440" lon="-7.6625290">
        <ele>314.4</ele>
        <time>2019-07-11T04:54:59Z</time>
      </trkpt>
      <trkpt lat="39.6062200" lon="-7.6624710">
        <ele>314.4</ele>
        <time>2019-07-11T04:55:01Z</time>
      </trkpt>
      <trkpt lat="39.6059700" lon="-7.6623510">
        <ele>314.2</ele>
        <time>2019-07-11T04:55:05Z</time>
      </trkpt>
      <trkpt lat="39.6057860" lon="-7.6622560">
        <ele>313.8</ele>
        <time>2019-07-11T04:55:08Z</time>
      </trkpt>
      <trkpt lat="39.6054590" lon="-7.6620210">
        <ele>313.2</ele>
        <time>2019-07-11T04:55:14Z</time>
      </trkpt>
      <trkpt lat="39.6053660" lon="-7.6619130">
        <ele>312.8</ele>
        <time>2019-07-11T04:55:16Z</time>
      </trkpt>
      <trkpt lat="39.6052970" lon="-7.6617740">
        <ele>312.6</ele>
        <time>2019-07-11T04:55:18Z</time>
      </trkpt>
      <trkpt lat="39.6050970" lon="-7.6613260">
        <ele>311.6</ele>
        <time>2019-07-11T04:55:24Z</time>
      </trkpt>
      <trkpt lat="39.6050320" lon="-7.6611720">
        <ele>311.2</ele>
        <time>2019-07-11T04:55:26Z</time>
      </trkpt>
      <trkpt lat="39.6049690" lon="-7.6610130">
        <ele>310.8</ele>
        <time>2019-07-11T04:55:28Z</time>
      </trkpt>
      <trkpt lat="39.6049350" lon="-7.6609350">
        <ele>310.4</ele>
        <time>2019-07-11T04:55:29Z</time>
      </trkpt>
      <trkpt lat="39.6048580" lon="-7.6607750">
        <ele>310.0</ele>
        <time>2019-07-11T04:55:31Z</time>
      </trkpt>
      <trkpt lat="39.6047670" lon="-7.6606290">
        <ele>309.4</ele>
        <time>2019-07-11T04:55:33Z</time>
      </trkpt>
      <trkpt lat="39.6046440" lon="-7.6605190">
        <ele>308.6</ele>
        <time>2019-07-11T04:55:35Z</time>
      </trkpt>
      <trkpt lat="39.6044870" lon="-7.6605120">
        <ele>308.0</ele>
        <time>2019-07-11T04:55:37Z</time>
      </trkpt>
      <trkpt lat="39.6043330" lon="-7.6605720">
        <ele>307.6</ele>
        <time>2019-07-11T04:55:39Z</time>
      </trkpt>
      <trkpt lat="39.6041760" lon="-7.6606420">
        <ele>306.8</ele>
        <time>2019-07-11T04:55:41Z</time>
      </trkpt>
      <trkpt lat="39.6038390" lon="-7.6606870">
        <ele>305.8</ele>
        <time>2019-07-11T04:55:45Z</time>
      </trkpt>
      <trkpt lat="39.6037520" lon="-7.6606820">
        <ele>305.4</ele>
        <time>2019-07-11T04:55:46Z</time>
      </trkpt>
      <trkpt lat="39.6035760" lon="-7.6606500">
        <ele>304.4</ele>
        <time>2019-07-11T04:55:48Z</time>
      </trkpt>
      <trkpt lat="39.6034000" lon="-7.6606130">
        <ele>303.6</ele>
        <time>2019-07-11T04:55:50Z</time>
      </trkpt>
      <trkpt lat="39.6033100" lon="-7.6605880">
        <ele>303.2</ele>
        <time>2019-07-11T04:55:51Z</time>
      </trkpt>
      <trkpt lat="39.6030460" lon="-7.6604800">
        <ele>301.8</ele>
        <time>2019-07-11T04:55:54Z</time>
      </trkpt>
      <trkpt lat="39.6029550" lon="-7.6604430">
        <ele>301.0</ele>
        <time>2019-07-11T04:55:55Z</time>
      </trkpt>
      <trkpt lat="39.6028620" lon="-7.6604140">
        <ele>300.6</ele>
        <time>2019-07-11T04:55:56Z</time>
      </trkpt>
      <trkpt lat="39.6025740" lon="-7.6603860">
        <ele>299.4</ele>
        <time>2019-07-11T04:55:59Z</time>
      </trkpt>
      <trkpt lat="39.6023810" lon="-7.6603550">
        <ele>298.4</ele>
        <time>2019-07-11T04:56:01Z</time>
      </trkpt>
      <trkpt lat="39.6022000" lon="-7.6602680">
        <ele>297.8</ele>
        <time>2019-07-11T04:56:03Z</time>
      </trkpt>
      <trkpt lat="39.6021160" lon="-7.6602070">
        <ele>297.2</ele>
        <time>2019-07-11T04:56:04Z</time>
      </trkpt>
      <trkpt lat="39.6020340" lon="-7.6601410">
        <ele>296.8</ele>
        <time>2019-07-11T04:56:05Z</time>
      </trkpt>
      <trkpt lat="39.6018730" lon="-7.6600060">
        <ele>296.0</ele>
        <time>2019-07-11T04:56:07Z</time>
      </trkpt>
      <trkpt lat="39.6017910" lon="-7.6599370">
        <ele>295.6</ele>
        <time>2019-07-11T04:56:08Z</time>
      </trkpt>
      <trkpt lat="39.6016270" lon="-7.6598090">
        <ele>294.6</ele>
        <time>2019-07-11T04:56:10Z</time>
      </trkpt>
      <trkpt lat="39.6015440" lon="-7.6597610">
        <ele>294.2</ele>
        <time>2019-07-11T04:56:11Z</time>
      </trkpt>
      <trkpt lat="39.6014590" lon="-7.6597370">
        <ele>293.6</ele>
        <time>2019-07-11T04:56:12Z</time>
      </trkpt>
      <trkpt lat="39.6013760" lon="-7.6597440">
        <ele>293.2</ele>
        <time>2019-07-11T04:56:13Z</time>
      </trkpt>
      <trkpt lat="39.6013000" lon="-7.6597820">
        <ele>292.8</ele>
        <time>2019-07-11T04:56:14Z</time>
      </trkpt>
      <trkpt lat="39.6011830" lon="-7.6599330">
        <ele>291.8</ele>
        <time>2019-07-11T04:56:16Z</time>
      </trkpt>
      <trkpt lat="39.6011490" lon="-7.6600360">
        <ele>291.4</ele>
        <time>2019-07-11T04:56:17Z</time>
      </trkpt>
      <trkpt lat="39.6011010" lon="-7.6602590">
        <ele>290.6</ele>
        <time>2019-07-11T04:56:19Z</time>
      </trkpt>
      <trkpt lat="39.6010660" lon="-7.6604720">
        <ele>289.4</ele>
        <time>2019-07-11T04:56:21Z</time>
      </trkpt>
      <trkpt lat="39.6010480" lon="-7.6606400">
        <ele>288.6</ele>
        <time>2019-07-11T04:56:23Z</time>
      </trkpt>
      <trkpt lat="39.6010580" lon="-7.6607110">
        <ele>288.4</ele>
        <time>2019-07-11T04:56:24Z</time>
      </trkpt>
      <trkpt lat="39.6011690" lon="-7.6608650">
        <ele>287.2</ele>
        <time>2019-07-11T04:56:27Z</time>
      </trkpt>
      <trkpt lat="39.6013050" lon="-7.6609290">
        <ele>286.4</ele>
        <time>2019-07-11T04:56:29Z</time>
      </trkpt>
      <trkpt lat="39.6013800" lon="-7.6609640">
        <ele>286.0</ele>
        <time>2019-07-11T04:56:30Z</time>
      </trkpt>
      <trkpt lat="39.6014570" lon="-7.6610010">
        <ele>285.6</ele>
        <time>2019-07-11T04:56:31Z</time>
      </trkpt>
      <trkpt lat="39.6016170" lon="-7.6610790">
        <ele>284.8</ele>
        <time>2019-07-11T04:56:33Z</time>
      </trkpt>
      <trkpt lat="39.6018580" lon="-7.6611870">
        <ele>283.2</ele>
        <time>2019-07-11T04:56:36Z</time>
      </trkpt>
      <trkpt lat="39.6020880" lon="-7.6612870">
        <ele>282.8</ele>
        <time>2019-07-11T04:56:39Z</time>
      </trkpt>
      <trkpt lat="39.6023030" lon="-7.6613950">
        <ele>282.6</ele>
        <time>2019-07-11T04:56:42Z</time>
      </trkpt>
      <trkpt lat="39.6025820" lon="-7.6615270">
        <ele>282.4</ele>
        <time>2019-07-11T04:56:46Z</time>
      </trkpt>
      <trkpt lat="39.6027220" lon="-7.6615950">
        <ele>282.4</ele>
        <time>2019-07-11T04:56:48Z</time>
      </trkpt>
      <trkpt lat="39.6028690" lon="-7.6616630">
        <ele>282.0</ele>
        <time>2019-07-11T04:56:50Z</time>
      </trkpt>
      <trkpt lat="39.6031080" lon="-7.6617760">
        <ele>281.0</ele>
        <time>2019-07-11T04:56:53Z</time>
      </trkpt>
      <trkpt lat="39.6031910" lon="-7.6618150">
        <ele>280.6</ele>
        <time>2019-07-11T04:56:54Z</time>
      </trkpt>
      <trkpt lat="39.6033560" lon="-7.6618930">
        <ele>279.8</ele>
        <time>2019-07-11T04:56:56Z</time>
      </trkpt>
      <trkpt lat="39.6037280" lon="-7.6620640">
        <ele>279.0</ele>
        <time>2019-07-11T04:57:01Z</time>
      </trkpt>
      <trkpt lat="39.6039380" lon="-7.6621840">
        <ele>280.6</ele>
        <time>2019-07-11T04:57:05Z</time>
      </trkpt>
      <trkpt lat="39.6039830" lon="-7.6622130">
        <ele>281.0</ele>
        <time>2019-07-11T04:57:06Z</time>
      </trkpt>
      <trkpt lat="39.6040640" lon="-7.6622770">
        <ele>282.0</ele>
        <time>2019-07-11T04:57:08Z</time>
      </trkpt>
      <trkpt lat="39.6041360" lon="-7.6623450">
        <ele>282.6</ele>
        <time>2019-07-11T04:57:10Z</time>
      </trkpt>
      <trkpt lat="39.6042010" lon="-7.6624190">
        <ele>283.0</ele>
        <time>2019-07-11T04:57:12Z</time>
      </trkpt>
      <trkpt lat="39.6042320" lon="-7.6624550">
        <ele>283.2</ele>
        <time>2019-07-11T04:57:13Z</time>
      </trkpt>
      <trkpt lat="39.6042910" lon="-7.6625260">
        <ele>283.8</ele>
        <time>2019-07-11T04:57:15Z</time>
      </trkpt>
      <trkpt lat="39.6043620" lon="-7.6626580">
        <ele>284.4</ele>
        <time>2019-07-11T04:57:18Z</time>
      </trkpt>
      <trkpt lat="39.6044000" lon="-7.6627610">
        <ele>284.6</ele>
        <time>2019-07-11T04:57:20Z</time>
      </trkpt>
      <trkpt lat="39.6044450" lon="-7.6629350">
        <ele>284.6</ele>
        <time>2019-07-11T04:57:23Z</time>
      </trkpt>
      <trkpt lat="39.6044590" lon="-7.6630000">
        <ele>284.4</ele>
        <time>2019-07-11T04:57:24Z</time>
      </trkpt>
      <trkpt lat="39.6044970" lon="-7.6632330">
        <ele>284.0</ele>
        <time>2019-07-11T04:57:27Z</time>
      </trkpt>
      <trkpt lat="39.6045000" lon="-7.6633260">
        <ele>283.6</ele>
        <time>2019-07-11T04:57:28Z</time>
      </trkpt>
      <trkpt lat="39.6044930" lon="-7.6634260">
        <ele>283.2</ele>
        <time>2019-07-11T04:57:29Z</time>
      </trkpt>
      <trkpt lat="39.6044530" lon="-7.6636330">
        <ele>282.0</ele>
        <time>2019-07-11T04:57:31Z</time>
      </trkpt>
      <trkpt lat="39.6044220" lon="-7.6637350">
        <ele>281.2</ele>
        <time>2019-07-11T04:57:32Z</time>
      </trkpt>
      <trkpt lat="39.6043850" lon="-7.6638370">
        <ele>280.4</ele>
        <time>2019-07-11T04:57:33Z</time>
      </trkpt>
      <trkpt lat="39.6042910" lon="-7.6640500">
        <ele>279.2</ele>
        <time>2019-07-11T04:57:35Z</time>
      </trkpt>
      <trkpt lat="39.6042380" lon="-7.6641640">
        <ele>278.2</ele>
        <time>2019-07-11T04:57:36Z</time>
      </trkpt>
      <trkpt lat="39.6041840" lon="-7.6642840">
        <ele>277.2</ele>
        <time>2019-07-11T04:57:37Z</time>
      </trkpt>
      <trkpt lat="39.6041260" lon="-7.6644100">
        <ele>276.2</ele>
        <time>2019-07-11T04:57:38Z</time>
      </trkpt>
      <trkpt lat="39.6040030" lon="-7.6646740">
        <ele>274.4</ele>
        <time>2019-07-11T04:57:40Z</time>
      </trkpt>
      <trkpt lat="39.6039360" lon="-7.6648120">
        <ele>273.6</ele>
        <time>2019-07-11T04:57:41Z</time>
      </trkpt>
      <trkpt lat="39.6038680" lon="-7.6649540">
        <ele>272.6</ele>
        <time>2019-07-11T04:57:42Z</time>
      </trkpt>
      <trkpt lat="39.6038000" lon="-7.6651000">
        <ele>271.2</ele>
        <time>2019-07-11T04:57:43Z</time>
      </trkpt>
      <trkpt lat="39.6037320" lon="-7.6652470">
        <ele>270.0</ele>
        <time>2019-07-11T04:57:44Z</time>
      </trkpt>
      <trkpt lat="39.6036640" lon="-7.6653930">
        <ele>269.0</ele>
        <time>2019-07-11T04:57:45Z</time>
      </trkpt>
      <trkpt lat="39.6035960" lon="-7.6655400">
        <ele>267.8</ele>
        <time>2019-07-11T04:57:46Z</time>
      </trkpt>
      <trkpt lat="39.6035300" lon="-7.6656840">
        <ele>267.2</ele>
        <time>2019-07-11T04:57:47Z</time>
      </trkpt>
      <trkpt lat="39.6034650" lon="-7.6658270">
        <ele>266.2</ele>
        <time>2019-07-11T04:57:48Z</time>
      </trkpt>
      <trkpt lat="39.6033390" lon="-7.6661040">
        <ele>265.4</ele>
        <time>2019-07-11T04:57:50Z</time>
      </trkpt>
      <trkpt lat="39.6032160" lon="-7.6663710">
        <ele>265.0</ele>
        <time>2019-07-11T04:57:52Z</time>
      </trkpt>
      <trkpt lat="39.6030990" lon="-7.6666280">
        <ele>264.6</ele>
        <time>2019-07-11T04:57:54Z</time>
      </trkpt>
      <trkpt lat="39.6029150" lon="-7.6671390">
        <ele>264.0</ele>
        <time>2019-07-11T04:57:58Z</time>
      </trkpt>
      <trkpt lat="39.6028870" lon="-7.6672720">
        <ele>263.8</ele>
        <time>2019-07-11T04:57:59Z</time>
      </trkpt>
      <trkpt lat="39.6028370" lon="-7.6678210">
        <ele>262.4</ele>
        <time>2019-07-11T04:58:03Z</time>
      </trkpt>
      <trkpt lat="39.6028300" lon="-7.6679650">
        <ele>261.8</ele>
        <time>2019-07-11T04:58:04Z</time>
      </trkpt>
      <trkpt lat="39.6028180" lon="-7.6681120">
        <ele>261.0</ele>
        <time>2019-07-11T04:58:05Z</time>
      </trkpt>
      <trkpt lat="39.6027970" lon="-7.6684170">
        <ele>259.0</ele>
        <time>2019-07-11T04:58:07Z</time>
      </trkpt>
      <trkpt lat="39.6027890" lon="-7.6685750">
        <ele>258.0</ele>
        <time>2019-07-11T04:58:08Z</time>
      </trkpt>
      <trkpt lat="39.6027810" lon="-7.6687360">
        <ele>257.0</ele>
        <time>2019-07-11T04:58:09Z</time>
      </trkpt>
      <trkpt lat="39.6027580" lon="-7.6690660">
        <ele>255.2</ele>
        <time>2019-07-11T04:58:11Z</time>
      </trkpt>
      <trkpt lat="39.6027460" lon="-7.6692360">
        <ele>253.8</ele>
        <time>2019-07-11T04:58:12Z</time>
      </trkpt>
      <trkpt lat="39.6027320" lon="-7.6694070">
        <ele>252.6</ele>
        <time>2019-07-11T04:58:13Z</time>
      </trkpt>
      <trkpt lat="39.6027200" lon="-7.6695810">
        <ele>251.2</ele>
        <time>2019-07-11T04:58:14Z</time>
      </trkpt>
      <trkpt lat="39.6027100" lon="-7.6697570">
        <ele>250.2</ele>
        <time>2019-07-11T04:58:15Z</time>
      </trkpt>
      <trkpt lat="39.6027010" lon="-7.6699340">
        <ele>249.0</ele>
        <time>2019-07-11T04:58:16Z</time>
      </trkpt>
      <trkpt lat="39.6026910" lon="-7.6701120">
        <ele>247.6</ele>
        <time>2019-07-11T04:58:17Z</time>
      </trkpt>
      <trkpt lat="39.6026690" lon="-7.6704610">
        <ele>246.0</ele>
        <time>2019-07-11T04:58:19Z</time>
      </trkpt>
      <trkpt lat="39.6026600" lon="-7.6706290">
        <ele>244.6</ele>
        <time>2019-07-11T04:58:20Z</time>
      </trkpt>
      <trkpt lat="39.6026570" lon="-7.6709630">
        <ele>242.8</ele>
        <time>2019-07-11T04:58:22Z</time>
      </trkpt>
      <trkpt lat="39.6026840" lon="-7.6712980">
        <ele>241.0</ele>
        <time>2019-07-11T04:58:24Z</time>
      </trkpt>
      <trkpt lat="39.6027130" lon="-7.6714620">
        <ele>240.2</ele>
        <time>2019-07-11T04:58:25Z</time>
      </trkpt>
      <trkpt lat="39.6027540" lon="-7.6716240">
        <ele>239.2</ele>
        <time>2019-07-11T04:58:26Z</time>
      </trkpt>
      <trkpt lat="39.6028030" lon="-7.6717810">
        <ele>238.2</ele>
        <time>2019-07-11T04:58:27Z</time>
      </trkpt>
      <trkpt lat="39.6028580" lon="-7.6719350">
        <ele>237.0</ele>
        <time>2019-07-11T04:58:28Z</time>
      </trkpt>
      <trkpt lat="39.6029210" lon="-7.6720840">
        <ele>236.0</ele>
        <time>2019-07-11T04:58:29Z</time>
      </trkpt>
      <trkpt lat="39.6029890" lon="-7.6722280">
        <ele>235.0</ele>
        <time>2019-07-11T04:58:30Z</time>
      </trkpt>
      <trkpt lat="39.6031300" lon="-7.6725140">
        <ele>233.2</ele>
        <time>2019-07-11T04:58:32Z</time>
      </trkpt>
      <trkpt lat="39.6032660" lon="-7.6728020">
        <ele>231.6</ele>
        <time>2019-07-11T04:58:34Z</time>
      </trkpt>
      <trkpt lat="39.6034010" lon="-7.6730810">
        <ele>229.8</ele>
        <time>2019-07-11T04:58:36Z</time>
      </trkpt>
      <trkpt lat="39.6035360" lon="-7.6733430">
        <ele>229.0</ele>
        <time>2019-07-11T04:58:38Z</time>
      </trkpt>
      <trkpt lat="39.6035990" lon="-7.6734740">
        <ele>228.4</ele>
        <time>2019-07-11T04:58:39Z</time>
      </trkpt>
      <trkpt lat="39.6037840" lon="-7.6738760">
        <ele>226.6</ele>
        <time>2019-07-11T04:58:42Z</time>
      </trkpt>
      <trkpt lat="39.6039170" lon="-7.6741460">
        <ele>224.8</ele>
        <time>2019-07-11T04:58:44Z</time>
      </trkpt>
      <trkpt lat="39.6040520" lon="-7.6744220">
        <ele>223.2</ele>
        <time>2019-07-11T04:58:46Z</time>
      </trkpt>
      <trkpt lat="39.6041830" lon="-7.6747060">
        <ele>221.6</ele>
        <time>2019-07-11T04:58:48Z</time>
      </trkpt>
      <trkpt lat="39.6042490" lon="-7.6748490">
        <ele>220.6</ele>
        <time>2019-07-11T04:58:49Z</time>
      </trkpt>
      <trkpt lat="39.6043160" lon="-7.6749920">
        <ele>219.4</ele>
        <time>2019-07-11T04:58:50Z</time>
      </trkpt>
      <trkpt lat="39.6043840" lon="-7.6751360">
        <ele>218.2</ele>
        <time>2019-07-11T04:58:51Z</time>
      </trkpt>
      <trkpt lat="39.6044520" lon="-7.6752790">
        <ele>217.2</ele>
        <time>2019-07-11T04:58:52Z</time>
      </trkpt>
      <trkpt lat="39.6045860" lon="-7.6755610">
        <ele>215.4</ele>
        <time>2019-07-11T04:58:54Z</time>
      </trkpt>
      <trkpt lat="39.6047120" lon="-7.6758240">
        <ele>214.2</ele>
        <time>2019-07-11T04:58:56Z</time>
      </trkpt>
      <trkpt lat="39.6048230" lon="-7.6760610">
        <ele>213.8</ele>
        <time>2019-07-11T04:58:58Z</time>
      </trkpt>
      <trkpt lat="39.6049650" lon="-7.6763610">
        <ele>214.4</ele>
        <time>2019-07-11T04:59:01Z</time>
      </trkpt>
      <trkpt lat="39.6050070" lon="-7.6764460">
        <ele>214.6</ele>
        <time>2019-07-11T04:59:02Z</time>
      </trkpt>
      <trkpt lat="39.6051140" lon="-7.6766700">
        <ele>215.4</ele>
        <time>2019-07-11T04:59:05Z</time>
      </trkpt>
      <trkpt lat="39.6051780" lon="-7.6768050">
        <ele>215.8</ele>
        <time>2019-07-11T04:59:07Z</time>
      </trkpt>
      <trkpt lat="39.6052090" lon="-7.6768700">
        <ele>216.2</ele>
        <time>2019-07-11T04:59:08Z</time>
      </trkpt>
      <trkpt lat="39.6052400" lon="-7.6769340">
        <ele>216.6</ele>
        <time>2019-07-11T04:59:09Z</time>
      </trkpt>
      <trkpt lat="39.6052710" lon="-7.6769970">
        <ele>216.6</ele>
        <time>2019-07-11T04:59:10Z</time>
      </trkpt>
      <trkpt lat="39.6054210" lon="-7.6773330">
        <ele>216.6</ele>
        <time>2019-07-11T04:59:15Z</time>
      </trkpt>
      <trkpt lat="39.6056050" lon="-7.6777090">
        <ele>215.6</ele>
        <time>2019-07-11T04:59:20Z</time>
      </trkpt>
      <trkpt lat="39.6056460" lon="-7.6777880">
        <ele>215.2</ele>
        <time>2019-07-11T04:59:21Z</time>
      </trkpt>
      <trkpt lat="39.6057660" lon="-7.6780410">
        <ele>214.2</ele>
        <time>2019-07-11T04:59:24Z</time>
      </trkpt>
      <trkpt lat="39.6058460" lon="-7.6782190">
        <ele>213.6</ele>
        <time>2019-07-11T04:59:26Z</time>
      </trkpt>
      <trkpt lat="39.6058870" lon="-7.6783110">
        <ele>213.2</ele>
        <time>2019-07-11T04:59:27Z</time>
      </trkpt>
      <trkpt lat="39.6059280" lon="-7.6784020">
        <ele>212.8</ele>
        <time>2019-07-11T04:59:28Z</time>
      </trkpt>
      <trkpt lat="39.6061060" lon="-7.6787760">
        <ele>211.2</ele>
        <time>2019-07-11T04:59:32Z</time>
      </trkpt>
      <trkpt lat="39.6062470" lon="-7.6790660">
        <ele>210.0</ele>
        <time>2019-07-11T04:59:35Z</time>
      </trkpt>
      <trkpt lat="39.6062950" lon="-7.6791640">
        <ele>210.0</ele>
        <time>2019-07-11T04:59:36Z</time>
      </trkpt>
      <trkpt lat="39.6063900" lon="-7.6793650">
        <ele>209.2</ele>
        <time>2019-07-11T04:59:38Z</time>
      </trkpt>
      <trkpt lat="39.6065330" lon="-7.6796730">
        <ele>207.8</ele>
        <time>2019-07-11T04:59:41Z</time>
      </trkpt>
      <trkpt lat="39.6066820" lon="-7.6799840">
        <ele>206.8</ele>
        <time>2019-07-11T04:59:44Z</time>
      </trkpt>
      <trkpt lat="39.6067800" lon="-7.6801980">
        <ele>206.2</ele>
        <time>2019-07-11T04:59:46Z</time>
      </trkpt>
      <trkpt lat="39.6068270" lon="-7.6803090">
        <ele>205.6</ele>
        <time>2019-07-11T04:59:47Z</time>
      </trkpt>
      <trkpt lat="39.6069280" lon="-7.6805310">
        <ele>204.6</ele>
        <time>2019-07-11T04:59:49Z</time>
      </trkpt>
      <trkpt lat="39.6070380" lon="-7.6807570">
        <ele>203.4</ele>
        <time>2019-07-11T04:59:51Z</time>
      </trkpt>
      <trkpt lat="39.6071450" lon="-7.6809920">
        <ele>201.6</ele>
        <time>2019-07-11T04:59:53Z</time>
      </trkpt>
      <trkpt lat="39.6072330" lon="-7.6812500">
        <ele>200.2</ele>
        <time>2019-07-11T04:59:55Z</time>
      </trkpt>
      <trkpt lat="39.6072970" lon="-7.6815310">
        <ele>199.0</ele>
        <time>2019-07-11T04:59:57Z</time>
      </trkpt>
      <trkpt lat="39.6073290" lon="-7.6818250">
        <ele>197.4</ele>
        <time>2019-07-11T04:59:59Z</time>
      </trkpt>
      <trkpt lat="39.6073550" lon="-7.6821180">
        <ele>196.0</ele>
        <time>2019-07-11T05:00:01Z</time>
      </trkpt>
      <trkpt lat="39.6073690" lon="-7.6822620">
        <ele>195.0</ele>
        <time>2019-07-11T05:00:02Z</time>
      </trkpt>
      <trkpt lat="39.6073810" lon="-7.6824030">
        <ele>194.4</ele>
        <time>2019-07-11T05:00:03Z</time>
      </trkpt>
      <trkpt lat="39.6074140" lon="-7.6828180">
        <ele>193.0</ele>
        <time>2019-07-11T05:00:06Z</time>
      </trkpt>
      <trkpt lat="39.6074520" lon="-7.6832210">
        <ele>191.6</ele>
        <time>2019-07-11T05:00:09Z</time>
      </trkpt>
      <trkpt lat="39.6074760" lon="-7.6834840">
        <ele>191.0</ele>
        <time>2019-07-11T05:00:11Z</time>
      </trkpt>
      <trkpt lat="39.6074880" lon="-7.6836140">
        <ele>190.6</ele>
        <time>2019-07-11T05:00:12Z</time>
      </trkpt>
      <trkpt lat="39.6075210" lon="-7.6839990">
        <ele>189.4</ele>
        <time>2019-07-11T05:00:15Z</time>
      </trkpt>
      <trkpt lat="39.6075550" lon="-7.6843760">
        <ele>188.2</ele>
        <time>2019-07-11T05:00:18Z</time>
      </trkpt>
      <trkpt lat="39.6075930" lon="-7.6847470">
        <ele>187.4</ele>
        <time>2019-07-11T05:00:21Z</time>
      </trkpt>
      <trkpt lat="39.6076040" lon="-7.6848710">
        <ele>186.8</ele>
        <time>2019-07-11T05:00:22Z</time>
      </trkpt>
      <trkpt lat="39.6076340" lon="-7.6852400">
        <ele>185.8</ele>
        <time>2019-07-11T05:00:25Z</time>
      </trkpt>
      <trkpt lat="39.6076680" lon="-7.6856080">
        <ele>184.4</ele>
        <time>2019-07-11T05:00:28Z</time>
      </trkpt>
      <trkpt lat="39.6076990" lon="-7.6859810">
        <ele>183.4</ele>
        <time>2019-07-11T05:00:31Z</time>
      </trkpt>
      <trkpt lat="39.6077310" lon="-7.6863590">
        <ele>182.2</ele>
        <time>2019-07-11T05:00:34Z</time>
      </trkpt>
      <trkpt lat="39.6077520" lon="-7.6866110">
        <ele>181.2</ele>
        <time>2019-07-11T05:00:36Z</time>
      </trkpt>
      <trkpt lat="39.6077910" lon="-7.6869880">
        <ele>180.2</ele>
        <time>2019-07-11T05:00:39Z</time>
      </trkpt>
      <trkpt lat="39.6078240" lon="-7.6873660">
        <ele>179.0</ele>
        <time>2019-07-11T05:00:42Z</time>
      </trkpt>
      <trkpt lat="39.6078480" lon="-7.6876190">
        <ele>177.8</ele>
        <time>2019-07-11T05:00:44Z</time>
      </trkpt>
      <trkpt lat="39.6078860" lon="-7.6879970">
        <ele>176.4</ele>
        <time>2019-07-11T05:00:47Z</time>
      </trkpt>
      <trkpt lat="39.6079190" lon="-7.6883760">
        <ele>175.2</ele>
        <time>2019-07-11T05:00:50Z</time>
      </trkpt>
      <trkpt lat="39.6079400" lon="-7.6886300">
        <ele>174.4</ele>
        <time>2019-07-11T05:00:52Z</time>
      </trkpt>
      <trkpt lat="39.6079510" lon="-7.6887570">
        <ele>174.0</ele>
        <time>2019-07-11T05:00:53Z</time>
      </trkpt>
      <trkpt lat="39.6079890" lon="-7.6891350">
        <ele>172.6</ele>
        <time>2019-07-11T05:00:56Z</time>
      </trkpt>
      <trkpt lat="39.6080220" lon="-7.6895160">
        <ele>171.0</ele>
        <time>2019-07-11T05:00:59Z</time>
      </trkpt>
      <trkpt lat="39.6080440" lon="-7.6897740">
        <ele>170.2</ele>
        <time>2019-07-11T05:01:01Z</time>
      </trkpt>
      <trkpt lat="39.6080560" lon="-7.6899030">
        <ele>169.6</ele>
        <time>2019-07-11T05:01:02Z</time>
      </trkpt>
      <trkpt lat="39.6080970" lon="-7.6902910">
        <ele>168.4</ele>
        <time>2019-07-11T05:01:05Z</time>
      </trkpt>
      <trkpt lat="39.6081160" lon="-7.6905540">
        <ele>167.4</ele>
        <time>2019-07-11T05:01:07Z</time>
      </trkpt>
      <trkpt lat="39.6081370" lon="-7.6908180">
        <ele>166.0</ele>
        <time>2019-07-11T05:01:09Z</time>
      </trkpt>
      <trkpt lat="39.6081640" lon="-7.6910830">
        <ele>165.0</ele>
        <time>2019-07-11T05:01:11Z</time>
      </trkpt>
      <trkpt lat="39.6081870" lon="-7.6913510">
        <ele>163.8</ele>
        <time>2019-07-11T05:01:13Z</time>
      </trkpt>
      <trkpt lat="39.6082250" lon="-7.6917480">
        <ele>162.2</ele>
        <time>2019-07-11T05:01:16Z</time>
      </trkpt>
      <trkpt lat="39.6082520" lon="-7.6920000">
        <ele>161.4</ele>
        <time>2019-07-11T05:01:18Z</time>
      </trkpt>
      <trkpt lat="39.6082860" lon="-7.6923550">
        <ele>161.0</ele>
        <time>2019-07-11T05:01:21Z</time>
      </trkpt>
      <trkpt lat="39.6083140" lon="-7.6926780">
        <ele>160.6</ele>
        <time>2019-07-11T05:01:24Z</time>
      </trkpt>
      <trkpt lat="39.6083520" lon="-7.6932480">
        <ele>160.4</ele>
        <time>2019-07-11T05:01:30Z</time>
      </trkpt>
      <trkpt lat="39.6083610" lon="-7.6933350">
        <ele>160.4</ele>
        <time>2019-07-11T05:01:31Z</time>
      </trkpt>
      <trkpt lat="39.6083720" lon="-7.6934200">
        <ele>160.4</ele>
        <time>2019-07-11T05:01:32Z</time>
      </trkpt>
      <trkpt lat="39.6084470" lon="-7.6937450">
        <ele>159.8</ele>
        <time>2019-07-11T05:01:36Z</time>
      </trkpt>
      <trkpt lat="39.6084720" lon="-7.6938240">
        <ele>159.6</ele>
        <time>2019-07-11T05:01:37Z</time>
      </trkpt>
      <trkpt lat="39.6085290" lon="-7.6939810">
        <ele>159.2</ele>
        <time>2019-07-11T05:01:39Z</time>
      </trkpt>
      <trkpt lat="39.6086180" lon="-7.6942100">
        <ele>158.8</ele>
        <time>2019-07-11T05:01:42Z</time>
      </trkpt>
      <trkpt lat="39.6086620" lon="-7.6943410">
        <ele>158.4</ele>
        <time>2019-07-11T05:01:44Z</time>
      </trkpt>
      <trkpt lat="39.6086260" lon="-7.6945260">
        <ele>157.8</ele>
        <time>2019-07-11T05:01:47Z</time>
      </trkpt>
      <trkpt lat="39.6085880" lon="-7.6945700">
        <ele>157.6</ele>
        <time>2019-07-11T05:01:48Z</time>
      </trkpt>
      <trkpt lat="39.6084990" lon="-7.6946350">
        <ele>157.6</ele>
        <time>2019-07-11T05:01:50Z</time>
      </trkpt>
      <trkpt lat="39.6084510" lon="-7.6946660">
        <ele>157.6</ele>
        <time>2019-07-11T05:01:51Z</time>
      </trkpt>
      <trkpt lat="39.6083100" lon="-7.6947650">
        <ele>157.6</ele>
        <time>2019-07-11T05:01:54Z</time>
      </trkpt>
      <trkpt lat="39.6082620" lon="-7.6947970">
        <ele>157.8</ele>
        <time>2019-07-11T05:01:55Z</time>
      </trkpt>
      <trkpt lat="39.6081650" lon="-7.6948620">
        <ele>157.6</ele>
        <time>2019-07-11T05:01:57Z</time>
      </trkpt>
      <trkpt lat="39.6079690" lon="-7.6950020">
        <ele>157.4</ele>
        <time>2019-07-11T05:02:01Z</time>
      </trkpt>
      <trkpt lat="39.6075850" lon="-7.6952610">
        <ele>156.6</ele>
        <time>2019-07-11T05:02:08Z</time>
      </trkpt>
      <trkpt lat="39.6075250" lon="-7.6953010">
        <ele>156.2</ele>
        <time>2019-07-11T05:02:09Z</time>
      </trkpt>
      <trkpt lat="39.6073400" lon="-7.6954290">
        <ele>155.4</ele>
        <time>2019-07-11T05:02:12Z</time>
      </trkpt>
      <trkpt lat="39.6070760" lon="-7.6956170">
        <ele>154.2</ele>
        <time>2019-07-11T05:02:16Z</time>
      </trkpt>
      <trkpt lat="39.6070070" lon="-7.6956640">
        <ele>153.6</ele>
        <time>2019-07-11T05:02:17Z</time>
      </trkpt>
      <trkpt lat="39.6068690" lon="-7.6957600">
        <ele>153.0</ele>
        <time>2019-07-11T05:02:19Z</time>
      </trkpt>
      <trkpt lat="39.6065880" lon="-7.6959500">
        <ele>151.8</ele>
        <time>2019-07-11T05:02:23Z</time>
      </trkpt>
      <trkpt lat="39.6065190" lon="-7.6960010">
        <ele>151.6</ele>
        <time>2019-07-11T05:02:24Z</time>
      </trkpt>
      <trkpt lat="39.6063800" lon="-7.6961020">
        <ele>150.6</ele>
        <time>2019-07-11T05:02:26Z</time>
      </trkpt>
      <trkpt lat="39.6061010" lon="-7.6962940">
        <ele>149.6</ele>
        <time>2019-07-11T05:02:30Z</time>
      </trkpt>
      <trkpt lat="39.6060330" lon="-7.6963420">
        <ele>149.2</ele>
        <time>2019-07-11T05:02:31Z</time>
      </trkpt>
      <trkpt lat="39.6058980" lon="-7.6964340">
        <ele>148.6</ele>
        <time>2019-07-11T05:02:33Z</time>
      </trkpt>
      <trkpt lat="39.6056570" lon="-7.6966080">
        <ele>147.8</ele>
        <time>2019-07-11T05:02:37Z</time>
      </trkpt>
      <trkpt lat="39.6054880" lon="-7.6967280">
        <ele>148.0</ele>
        <time>2019-07-11T05:02:40Z</time>
      </trkpt>
      <trkpt lat="39.6053330" lon="-7.6968420">
        <ele>148.0</ele>
        <time>2019-07-11T05:02:43Z</time>
      </trkpt>
      <trkpt lat="39.6052370" lon="-7.6969170">
        <ele>148.0</ele>
        <time>2019-07-11T05:02:45Z</time>
      </trkpt>
      <trkpt lat="39.6048970" lon="-7.6971620">
        <ele>148.2</ele>
        <time>2019-07-11T05:02:52Z</time>
      </trkpt>
      <trkpt lat="39.6047090" lon="-7.6972920">
        <ele>148.4</ele>
        <time>2019-07-11T05:02:56Z</time>
      </trkpt>
      <trkpt lat="39.6045710" lon="-7.6973960">
        <ele>148.6</ele>
        <time>2019-07-11T05:02:59Z</time>
      </trkpt>
      <trkpt lat="39.6042540" lon="-7.6976030">
        <ele>148.8</ele>
        <time>2019-07-11T05:03:06Z</time>
      </trkpt>
      <trkpt lat="39.6042110" lon="-7.6976340">
        <ele>148.8</ele>
        <time>2019-07-11T05:03:07Z</time>
      </trkpt>
      <trkpt lat="39.6038990" lon="-7.6978570">
        <ele>148.6</ele>
        <time>2019-07-11T05:03:14Z</time>
      </trkpt>
      <trkpt lat="39.6037190" lon="-7.6979840">
        <ele>149.4</ele>
        <time>2019-07-11T05:03:18Z</time>
      </trkpt>
      <trkpt lat="39.6034950" lon="-7.6981480">
        <ele>149.6</ele>
        <time>2019-07-11T05:03:23Z</time>
      </trkpt>
      <trkpt lat="39.6033590" lon="-7.6982450">
        <ele>149.8</ele>
        <time>2019-07-11T05:03:26Z</time>
      </trkpt>
      <trkpt lat="39.6030720" lon="-7.6984090">
        <ele>150.0</ele>
        <time>2019-07-11T05:03:32Z</time>
      </trkpt>
      <trkpt lat="39.6029210" lon="-7.6984500">
        <ele>150.0</ele>
        <time>2019-07-11T05:03:35Z</time>
      </trkpt>
      <trkpt lat="39.6027660" lon="-7.6984590">
        <ele>150.2</ele>
        <time>2019-07-11T05:03:38Z</time>
      </trkpt>
      <trkpt lat="39.6024480" lon="-7.6984310">
        <ele>150.4</ele>
        <time>2019-07-11T05:03:44Z</time>
      </trkpt>
      <trkpt lat="39.6020160" lon="-7.6983810">
        <ele>150.4</ele>
        <time>2019-07-11T05:03:52Z</time>
      </trkpt>
      <trkpt lat="39.6019040" lon="-7.6983750">
        <ele>150.4</ele>
        <time>2019-07-11T05:03:54Z</time>
      </trkpt>
      <trkpt lat="39.6017320" lon="-7.6983590">
        <ele>150.4</ele>
        <time>2019-07-11T05:03:57Z</time>
      </trkpt>
      <trkpt lat="39.6012610" lon="-7.6983060">
        <ele>150.0</ele>
        <time>2019-07-11T05:04:05Z</time>
      </trkpt>
      <trkpt lat="39.6010230" lon="-7.6982860">
        <ele>149.8</ele>
        <time>2019-07-11T05:04:09Z</time>
      </trkpt>
      <trkpt lat="39.6009000" lon="-7.6982650">
        <ele>149.2</ele>
        <time>2019-07-11T05:04:11Z</time>
      </trkpt>
      <trkpt lat="39.6007040" lon="-7.6982090">
        <ele>148.8</ele>
        <time>2019-07-11T05:04:14Z</time>
      </trkpt>
      <trkpt lat="39.6004970" lon="-7.6981330">
        <ele>147.8</ele>
        <time>2019-07-11T05:04:17Z</time>
      </trkpt>
      <trkpt lat="39.6004260" lon="-7.6981020">
        <ele>147.2</ele>
        <time>2019-07-11T05:04:18Z</time>
      </trkpt>
      <trkpt lat="39.6002790" lon="-7.6980490">
        <ele>146.2</ele>
        <time>2019-07-11T05:04:20Z</time>
      </trkpt>
      <trkpt lat="39.6000700" lon="-7.6979710">
        <ele>145.0</ele>
        <time>2019-07-11T05:04:23Z</time>
      </trkpt>
      <trkpt lat="39.5998570" lon="-7.6978840">
        <ele>143.8</ele>
        <time>2019-07-11T05:04:26Z</time>
      </trkpt>
      <trkpt lat="39.5997030" lon="-7.6978270">
        <ele>142.6</ele>
        <time>2019-07-11T05:04:28Z</time>
      </trkpt>
      <trkpt lat="39.5994880" lon="-7.6977450">
        <ele>141.6</ele>
        <time>2019-07-11T05:04:31Z</time>
      </trkpt>
      <trkpt lat="39.5993660" lon="-7.6977020">
        <ele>140.4</ele>
        <time>2019-07-11T05:04:33Z</time>
      </trkpt>
      <trkpt lat="39.5992540" lon="-7.6976490">
        <ele>139.8</ele>
        <time>2019-07-11T05:04:35Z</time>
      </trkpt>
      <trkpt lat="39.5991980" lon="-7.6976220">
        <ele>139.4</ele>
        <time>2019-07-11T05:04:36Z</time>
      </trkpt>
      <trkpt lat="39.5991460" lon="-7.6975860">
        <ele>139.2</ele>
        <time>2019-07-11T05:04:37Z</time>
      </trkpt>
      <trkpt lat="39.5991010" lon="-7.6975380">
        <ele>138.8</ele>
        <time>2019-07-11T05:04:38Z</time>
      </trkpt>
      <trkpt lat="39.5990630" lon="-7.6974780">
        <ele>138.2</ele>
        <time>2019-07-11T05:04:39Z</time>
      </trkpt>
      <trkpt lat="39.5990000" lon="-7.6973390">
        <ele>137.2</ele>
        <time>2019-07-11T05:04:41Z</time>
      </trkpt>
      <trkpt lat="39.5989740" lon="-7.6972730">
        <ele>136.6</ele>
        <time>2019-07-11T05:04:42Z</time>
      </trkpt>
      <trkpt lat="39.5989050" lon="-7.6970600">
        <ele>135.2</ele>
        <time>2019-07-11T05:04:45Z</time>
      </trkpt>
      <trkpt lat="39.5988570" lon="-7.6969260">
        <ele>134.0</ele>
        <time>2019-07-11T05:04:47Z</time>
      </trkpt>
      <trkpt lat="39.5988030" lon="-7.6967440">
        <ele>132.4</ele>
        <time>2019-07-11T05:04:50Z</time>
      </trkpt>
      <trkpt lat="39.5987890" lon="-7.6966790">
        <ele>132.0</ele>
        <time>2019-07-11T05:04:51Z</time>
      </trkpt>
      <trkpt lat="39.5987800" lon="-7.6966180">
        <ele>131.2</ele>
        <time>2019-07-11T05:04:52Z</time>
      </trkpt>
      <trkpt lat="39.5987600" lon="-7.6964200">
        <ele>129.6</ele>
        <time>2019-07-11T05:04:55Z</time>
      </trkpt>
      <trkpt lat="39.5987420" lon="-7.6962840">
        <ele>128.4</ele>
        <time>2019-07-11T05:04:57Z</time>
      </trkpt>
      <trkpt lat="39.5987260" lon="-7.6961480">
        <ele>127.4</ele>
        <time>2019-07-11T05:04:59Z</time>
      </trkpt>
      <trkpt lat="39.5987180" lon="-7.6960830">
        <ele>126.4</ele>
        <time>2019-07-11T05:05:00Z</time>
      </trkpt>
      <trkpt lat="39.5987090" lon="-7.6960230">
        <ele>125.8</ele>
        <time>2019-07-11T05:05:01Z</time>
      </trkpt>
      <trkpt lat="39.5986950" lon="-7.6959720">
        <ele>125.0</ele>
        <time>2019-07-11T05:05:02Z</time>
      </trkpt>
      <trkpt lat="39.5986760" lon="-7.6959280">
        <ele>124.4</ele>
        <time>2019-07-11T05:05:03Z</time>
      </trkpt>
      <trkpt lat="39.5986500" lon="-7.6958930">
        <ele>123.8</ele>
        <time>2019-07-11T05:05:04Z</time>
      </trkpt>
      <trkpt lat="39.5985850" lon="-7.6958540">
        <ele>122.4</ele>
        <time>2019-07-11T05:05:06Z</time>
      </trkpt>
      <trkpt lat="39.5985530" lon="-7.6958580">
        <ele>121.8</ele>
        <time>2019-07-11T05:05:07Z</time>
      </trkpt>
      <trkpt lat="39.5985220" lon="-7.6958730">
        <ele>121.2</ele>
        <time>2019-07-11T05:05:08Z</time>
      </trkpt>
      <trkpt lat="39.5984300" lon="-7.6959870">
        <ele>120.0</ele>
        <time>2019-07-11T05:05:12Z</time>
      </trkpt>
      <trkpt lat="39.5984140" lon="-7.6960200">
        <ele>119.8</ele>
        <time>2019-07-11T05:05:13Z</time>
      </trkpt>
      <trkpt lat="39.5983810" lon="-7.6960920">
        <ele>118.8</ele>
        <time>2019-07-11T05:05:15Z</time>
      </trkpt>
      <trkpt lat="39.5983660" lon="-7.6961770">
        <ele>118.0</ele>
        <time>2019-07-11T05:05:17Z</time>
      </trkpt>
      <trkpt lat="39.5983610" lon="-7.6962310">
        <ele>117.6</ele>
        <time>2019-07-11T05:05:18Z</time>
      </trkpt>
      <trkpt lat="39.5983500" lon="-7.6962930">
        <ele>117.4</ele>
        <time>2019-07-11T05:05:19Z</time>
      </trkpt>
      <trkpt lat="39.5983130" lon="-7.6964210">
        <ele>116.8</ele>
        <time>2019-07-11T05:05:21Z</time>
      </trkpt>
      <trkpt lat="39.5982890" lon="-7.6964790">
        <ele>116.4</ele>
        <time>2019-07-11T05:05:22Z</time>
      </trkpt>
      <trkpt lat="39.5982380" lon="-7.6965690">
        <ele>115.4</ele>
        <time>2019-07-11T05:05:24Z</time>
      </trkpt>
      <trkpt lat="39.5982030" lon="-7.6965940">
        <ele>114.8</ele>
        <time>2019-07-11T05:05:25Z</time>
      </trkpt>
      <trkpt lat="39.5981670" lon="-7.6966060">
        <ele>114.2</ele>
        <time>2019-07-11T05:05:26Z</time>
      </trkpt>
      <trkpt lat="39.5980460" lon="-7.6965640">
        <ele>113.2</ele>
        <time>2019-07-11T05:05:29Z</time>
      </trkpt>
      <trkpt lat="39.5980010" lon="-7.6965400">
        <ele>113.0</ele>
        <time>2019-07-11T05:05:30Z</time>
      </trkpt>
      <trkpt lat="39.5979570" lon="-7.6965190">
        <ele>112.8</ele>
        <time>2019-07-11T05:05:31Z</time>
      </trkpt>
      <trkpt lat="39.5978710" lon="-7.6964730">
        <ele>111.0</ele>
        <time>2019-07-11T05:05:33Z</time>
      </trkpt>
      <trkpt lat="39.5977850" lon="-7.6964330">
        <ele>109.6</ele>
        <time>2019-07-11T05:05:35Z</time>
      </trkpt>
      <trkpt lat="39.5976710" lon="-7.6963920">
        <ele>108.4</ele>
        <time>2019-07-11T05:05:38Z</time>
      </trkpt>
      <trkpt lat="39.5976290" lon="-7.6963910">
        <ele>108.0</ele>
        <time>2019-07-11T05:05:39Z</time>
      </trkpt>
      <trkpt lat="39.5975810" lon="-7.6964010">
        <ele>107.2</ele>
        <time>2019-07-11T05:05:40Z</time>
      </trkpt>
      <trkpt lat="39.5975280" lon="-7.6964230">
        <ele>106.2</ele>
        <time>2019-07-11T05:05:41Z</time>
      </trkpt>
      <trkpt lat="39.5974200" lon="-7.6964870">
        <ele>105.2</ele>
        <time>2019-07-11T05:05:43Z</time>
      </trkpt>
      <trkpt lat="39.5973670" lon="-7.6965210">
        <ele>104.8</ele>
        <time>2019-07-11T05:05:44Z</time>
      </trkpt>
      <trkpt lat="39.5973140" lon="-7.6965570">
        <ele>104.6</ele>
        <time>2019-07-11T05:05:45Z</time>
      </trkpt>
      <trkpt lat="39.5972130" lon="-7.6966300">
        <ele>104.4</ele>
        <time>2019-07-11T05:05:47Z</time>
      </trkpt>
      <trkpt lat="39.5971200" lon="-7.6966550">
        <ele>104.2</ele>
        <time>2019-07-11T05:05:49Z</time>
      </trkpt>
      <trkpt lat="39.5970290" lon="-7.6965920">
        <ele>104.2</ele>
        <time>2019-07-11T05:05:52Z</time>
      </trkpt>
      <trkpt lat="39.5969890" lon="-7.6965460">
        <ele>104.4</ele>
        <time>2019-07-11T05:05:54Z</time>
      </trkpt>
      <trkpt lat="39.5969540" lon="-7.6965040">
        <ele>104.8</ele>
        <time>2019-07-11T05:05:56Z</time>
      </trkpt>
      <trkpt lat="39.5969190" lon="-7.6964590">
        <ele>105.2</ele>
        <time>2019-07-11T05:05:58Z</time>
      </trkpt>
      <trkpt lat="39.5969000" lon="-7.6964350">
        <ele>105.6</ele>
        <time>2019-07-11T05:05:59Z</time>
      </trkpt>
      <trkpt lat="39.5968570" lon="-7.6963920">
        <ele>106.0</ele>
        <time>2019-07-11T05:06:01Z</time>
      </trkpt>
      <trkpt lat="39.5967900" lon="-7.6963280">
        <ele>106.8</ele>
        <time>2019-07-11T05:06:04Z</time>
      </trkpt>
      <trkpt lat="39.5967420" lon="-7.6962910">
        <ele>107.0</ele>
        <time>2019-07-11T05:06:06Z</time>
      </trkpt>
      <trkpt lat="39.5966000" lon="-7.6961840">
        <ele>108.2</ele>
        <time>2019-07-11T05:06:12Z</time>
      </trkpt>
      <trkpt lat="39.5965760" lon="-7.6961690">
        <ele>108.2</ele>
        <time>2019-07-11T05:06:13Z</time>
      </trkpt>
      <trkpt lat="39.5964580" lon="-7.6960910">
        <ele>109.0</ele>
        <time>2019-07-11T05:06:18Z</time>
      </trkpt>
      <trkpt lat="39.5964320" lon="-7.6960720">
        <ele>109.2</ele>
        <time>2019-07-11T05:06:19Z</time>
      </trkpt>
      <trkpt lat="39.5964070" lon="-7.6960600">
        <ele>109.4</ele>
        <time>2019-07-11T05:06:20Z</time>
      </trkpt>
      <trkpt lat="39.5963570" lon="-7.6960370">
        <ele>109.8</ele>
        <time>2019-07-11T05:06:22Z</time>
      </trkpt>
      <trkpt lat="39.5963100" lon="-7.6960130">
        <ele>110.2</ele>
        <time>2019-07-11T05:06:24Z</time>
      </trkpt>
      <trkpt lat="39.5962640" lon="-7.6959950">
        <ele>110.6</ele>
        <time>2019-07-11T05:06:26Z</time>
      </trkpt>
      <trkpt lat="39.5962190" lon="-7.6959790">
        <ele>111.0</ele>
        <time>2019-07-11T05:06:28Z</time>
      </trkpt>
      <trkpt lat="39.5961950" lon="-7.6959680">
        <ele>111.2</ele>
        <time>2019-07-11T05:06:29Z</time>
      </trkpt>
      <trkpt lat="39.5960990" lon="-7.6959290">
        <ele>111.8</ele>
        <time>2019-07-11T05:06:33Z</time>
      </trkpt>
      <trkpt lat="39.5960250" lon="-7.6959020">
        <ele>112.6</ele>
        <time>2019-07-11T05:06:36Z</time>
      </trkpt>
      <trkpt lat="39.5960010" lon="-7.6958940">
        <ele>112.8</ele>
        <time>2019-07-11T05:06:37Z</time>
      </trkpt>
      <trkpt lat="39.5958990" lon="-7.6958550">
        <ele>113.6</ele>
        <time>2019-07-11T05:06:41Z</time>
      </trkpt>
      <trkpt lat="39.5958510" lon="-7.6958330">
        <ele>114.0</ele>
        <time>2019-07-11T05:06:43Z</time>
      </trkpt>
      <trkpt lat="39.5957720" lon="-7.6958070">
        <ele>114.6</ele>
        <time>2019-07-11T05:06:46Z</time>
      </trkpt>
      <trkpt lat="39.5956490" lon="-7.6957890">
        <ele>116.0</ele>
        <time>2019-07-11T05:06:51Z</time>
      </trkpt>
      <trkpt lat="39.5956240" lon="-7.6957880">
        <ele>116.4</ele>
        <time>2019-07-11T05:06:52Z</time>
      </trkpt>
      <trkpt lat="39.5955750" lon="-7.6957850">
        <ele>117.2</ele>
        <time>2019-07-11T05:06:54Z</time>
      </trkpt>
      <trkpt lat="39.5954790" lon="-7.6957950">
        <ele>118.2</ele>
        <time>2019-07-11T05:06:58Z</time>
      </trkpt>
      <trkpt lat="39.5954300" lon="-7.6958040">
        <ele>118.8</ele>
        <time>2019-07-11T05:07:00Z</time>
      </trkpt>
      <trkpt lat="39.5953580" lon="-7.6958260">
        <ele>119.2</ele>
        <time>2019-07-11T05:07:03Z</time>
      </trkpt>
      <trkpt lat="39.5952620" lon="-7.6958580">
        <ele>120.2</ele>
        <time>2019-07-11T05:07:07Z</time>
      </trkpt>
      <trkpt lat="39.5952390" lon="-7.6958670">
        <ele>120.6</ele>
        <time>2019-07-11T05:07:08Z</time>
      </trkpt>
      <trkpt lat="39.5951480" lon="-7.6958990">
        <ele>121.4</ele>
        <time>2019-07-11T05:07:12Z</time>
      </trkpt>
      <trkpt lat="39.5950390" lon="-7.6959320">
        <ele>122.4</ele>
        <time>2019-07-11T05:07:17Z</time>
      </trkpt>
      <trkpt lat="39.5949060" lon="-7.6959800">
        <ele>123.6</ele>
        <time>2019-07-11T05:07:23Z</time>
      </trkpt>
      <trkpt lat="39.5948380" lon="-7.6960080">
        <ele>124.4</ele>
        <time>2019-07-11T05:07:26Z</time>
      </trkpt>
      <trkpt lat="39.5948110" lon="-7.6960140">
        <ele>124.6</ele>
        <time>2019-07-11T05:07:27Z</time>
      </trkpt>
      <trkpt lat="39.5946900" lon="-7.6960570">
        <ele>125.6</ele>
        <time>2019-07-11T05:07:32Z</time>
      </trkpt>
      <trkpt lat="39.5946420" lon="-7.6960770">
        <ele>126.0</ele>
        <time>2019-07-11T05:07:34Z</time>
      </trkpt>
      <trkpt lat="39.5945760" lon="-7.6961070">
        <ele>126.6</ele>
        <time>2019-07-11T05:07:37Z</time>
      </trkpt>
      <trkpt lat="39.5944790" lon="-7.6961420">
        <ele>127.8</ele>
        <time>2019-07-11T05:07:41Z</time>
      </trkpt>
      <trkpt lat="39.5944580" lon="-7.6961530">
        <ele>128.2</ele>
        <time>2019-07-11T05:07:42Z</time>
      </trkpt>
      <trkpt lat="39.5943710" lon="-7.6961910">
        <ele>128.8</ele>
        <time>2019-07-11T05:07:46Z</time>
      </trkpt>
      <trkpt lat="39.5942830" lon="-7.6962280">
        <ele>129.8</ele>
        <time>2019-07-11T05:07:50Z</time>
      </trkpt>
      <trkpt lat="39.5942000" lon="-7.6962740">
        <ele>131.0</ele>
        <time>2019-07-11T05:07:54Z</time>
      </trkpt>
      <trkpt lat="39.5941010" lon="-7.6963360">
        <ele>132.0</ele>
        <time>2019-07-11T05:07:59Z</time>
      </trkpt>
      <trkpt lat="39.5940820" lon="-7.6963510">
        <ele>132.2</ele>
        <time>2019-07-11T05:08:00Z</time>
      </trkpt>
      <trkpt lat="39.5940070" lon="-7.6964080">
        <ele>133.2</ele>
        <time>2019-07-11T05:08:04Z</time>
      </trkpt>
      <trkpt lat="39.5939470" lon="-7.6964380">
        <ele>134.0</ele>
        <time>2019-07-11T05:08:07Z</time>
      </trkpt>
      <trkpt lat="39.5939270" lon="-7.6964460">
        <ele>134.4</ele>
        <time>2019-07-11T05:08:08Z</time>
      </trkpt>
      <trkpt lat="39.5938220" lon="-7.6964970">
        <ele>135.4</ele>
        <time>2019-07-11T05:08:13Z</time>
      </trkpt>
      <trkpt lat="39.5938010" lon="-7.6965010">
        <ele>135.4</ele>
        <time>2019-07-11T05:08:14Z</time>
      </trkpt>
      <trkpt lat="39.5937130" lon="-7.6965280">
        <ele>136.6</ele>
        <time>2019-07-11T05:08:18Z</time>
      </trkpt>
      <trkpt lat="39.5936910" lon="-7.6965370">
        <ele>136.8</ele>
        <time>2019-07-11T05:08:19Z</time>
      </trkpt>
      <trkpt lat="39.5936270" lon="-7.6965810">
        <ele>137.6</ele>
        <time>2019-07-11T05:08:22Z</time>
      </trkpt>
      <trkpt lat="39.5935570" lon="-7.6966320">
        <ele>139.0</ele>
        <time>2019-07-11T05:08:26Z</time>
      </trkpt>
      <trkpt lat="39.5935390" lon="-7.6966460">
        <ele>139.2</ele>
        <time>2019-07-11T05:08:27Z</time>
      </trkpt>
      <trkpt lat="39.5934810" lon="-7.6966740">
        <ele>140.2</ele>
        <time>2019-07-11T05:08:30Z</time>
      </trkpt>
      <trkpt lat="39.5934130" lon="-7.6967180">
        <ele>141.0</ele>
        <time>2019-07-11T05:08:34Z</time>
      </trkpt>
      <trkpt lat="39.5933950" lon="-7.6967260">
        <ele>141.4</ele>
        <time>2019-07-11T05:08:35Z</time>
      </trkpt>
      <trkpt lat="39.5933240" lon="-7.6967460">
        <ele>142.2</ele>
        <time>2019-07-11T05:08:39Z</time>
      </trkpt>
      <trkpt lat="39.5932610" lon="-7.6967310">
        <ele>143.0</ele>
        <time>2019-07-11T05:08:42Z</time>
      </trkpt>
      <trkpt lat="39.5932180" lon="-7.6967140">
        <ele>143.4</ele>
        <time>2019-07-11T05:08:44Z</time>
      </trkpt>
      <trkpt lat="39.5931170" lon="-7.6966670">
        <ele>144.4</ele>
        <time>2019-07-11T05:08:49Z</time>
      </trkpt>
      <trkpt lat="39.5930990" lon="-7.6966570">
        <ele>144.6</ele>
        <time>2019-07-11T05:08:50Z</time>
      </trkpt>
      <trkpt lat="39.5930290" lon="-7.6966300">
        <ele>145.8</ele>
        <time>2019-07-11T05:08:54Z</time>
      </trkpt>
      <trkpt lat="39.5929730" lon="-7.6966150">
        <ele>146.8</ele>
        <time>2019-07-11T05:08:57Z</time>
      </trkpt>
      <trkpt lat="39.5928980" lon="-7.6966130">
        <ele>147.8</ele>
        <time>2019-07-11T05:09:01Z</time>
      </trkpt>
      <trkpt lat="39.5928440" lon="-7.6966270">
        <ele>148.2</ele>
        <time>2019-07-11T05:09:04Z</time>
      </trkpt>
      <trkpt lat="39.5927940" lon="-7.6966590">
        <ele>149.0</ele>
        <time>2019-07-11T05:09:07Z</time>
      </trkpt>
      <trkpt lat="39.5927520" lon="-7.6966990">
        <ele>150.0</ele>
        <time>2019-07-11T05:09:10Z</time>
      </trkpt>
      <trkpt lat="39.5926960" lon="-7.6968030">
        <ele>151.2</ele>
        <time>2019-07-11T05:09:15Z</time>
      </trkpt>
      <trkpt lat="39.5926840" lon="-7.6968250">
        <ele>151.4</ele>
        <time>2019-07-11T05:09:16Z</time>
      </trkpt>
      <trkpt lat="39.5926370" lon="-7.6969180">
        <ele>152.2</ele>
        <time>2019-07-11T05:09:20Z</time>
      </trkpt>
      <trkpt lat="39.5925990" lon="-7.6969890">
        <ele>153.0</ele>
        <time>2019-07-11T05:09:23Z</time>
      </trkpt>
      <trkpt lat="39.5925720" lon="-7.6970340">
        <ele>153.4</ele>
        <time>2019-07-11T05:09:25Z</time>
      </trkpt>
      <trkpt lat="39.5925100" lon="-7.6971170">
        <ele>154.4</ele>
        <time>2019-07-11T05:09:29Z</time>
      </trkpt>
      <trkpt lat="39.5924410" lon="-7.6971900">
        <ele>155.4</ele>
        <time>2019-07-11T05:09:33Z</time>
      </trkpt>
      <trkpt lat="39.5924020" lon="-7.6972150">
        <ele>155.8</ele>
        <time>2019-07-11T05:09:35Z</time>
      </trkpt>
      <trkpt lat="39.5923350" lon="-7.6972250">
        <ele>156.6</ele>
        <time>2019-07-11T05:09:38Z</time>
      </trkpt>
      <trkpt lat="39.5922880" lon="-7.6972080">
        <ele>157.2</ele>
        <time>2019-07-11T05:09:40Z</time>
      </trkpt>
      <trkpt lat="39.5922190" lon="-7.6971800">
        <ele>157.8</ele>
        <time>2019-07-11T05:09:43Z</time>
      </trkpt>
      <trkpt lat="39.5921040" lon="-7.6971340">
        <ele>159.0</ele>
        <time>2019-07-11T05:09:48Z</time>
      </trkpt>
      <trkpt lat="39.5919870" lon="-7.6971220">
        <ele>160.2</ele>
        <time>2019-07-11T05:09:53Z</time>
      </trkpt>
      <trkpt lat="39.5919450" lon="-7.6971370">
        <ele>160.8</ele>
        <time>2019-07-11T05:09:55Z</time>
      </trkpt>
      <trkpt lat="39.5919090" lon="-7.6971600">
        <ele>161.4</ele>
        <time>2019-07-11T05:09:57Z</time>
      </trkpt>
      <trkpt lat="39.5918220" lon="-7.6972270">
        <ele>162.4</ele>
        <time>2019-07-11T05:10:02Z</time>
      </trkpt>
      <trkpt lat="39.5918060" lon="-7.6972420">
        <ele>162.6</ele>
        <time>2019-07-11T05:10:03Z</time>
      </trkpt>
      <trkpt lat="39.5917580" lon="-7.6972920">
        <ele>163.6</ele>
        <time>2019-07-11T05:10:06Z</time>
      </trkpt>
      <trkpt lat="39.5916750" lon="-7.6973790">
        <ele>164.8</ele>
        <time>2019-07-11T05:10:11Z</time>
      </trkpt>
      <trkpt lat="39.5916190" lon="-7.6974490">
        <ele>166.0</ele>
        <time>2019-07-11T05:10:15Z</time>
      </trkpt>
      <trkpt lat="39.5915950" lon="-7.6974890">
        <ele>166.4</ele>
        <time>2019-07-11T05:10:17Z</time>
      </trkpt>
      <trkpt lat="39.5915680" lon="-7.6975590">
        <ele>167.2</ele>
        <time>2019-07-11T05:10:20Z</time>
      </trkpt>
      <trkpt lat="39.5915550" lon="-7.6976340">
        <ele>168.2</ele>
        <time>2019-07-11T05:10:23Z</time>
      </trkpt>
      <trkpt lat="39.5915480" lon="-7.6976580">
        <ele>168.4</ele>
        <time>2019-07-11T05:10:24Z</time>
      </trkpt>
      <trkpt lat="39.5915430" lon="-7.6977330">
        <ele>169.2</ele>
        <time>2019-07-11T05:10:27Z</time>
      </trkpt>
      <trkpt lat="39.5915310" lon="-7.6978310">
        <ele>169.6</ele>
        <time>2019-07-11T05:10:31Z</time>
      </trkpt>
      <trkpt lat="39.5915340" lon="-7.6979060">
        <ele>170.4</ele>
        <time>2019-07-11T05:10:34Z</time>
      </trkpt>
      <trkpt lat="39.5915450" lon="-7.6980090">
        <ele>171.2</ele>
        <time>2019-07-11T05:10:38Z</time>
      </trkpt>
      <trkpt lat="39.5915500" lon="-7.6980330">
        <ele>171.6</ele>
        <time>2019-07-11T05:10:39Z</time>
      </trkpt>
      <trkpt lat="39.5915580" lon="-7.6981600">
        <ele>172.6</ele>
        <time>2019-07-11T05:10:44Z</time>
      </trkpt>
      <trkpt lat="39.5915570" lon="-7.6981880">
        <ele>172.8</ele>
        <time>2019-07-11T05:10:45Z</time>
      </trkpt>
      <trkpt lat="39.5915660" lon="-7.6983040">
        <ele>173.6</ele>
        <time>2019-07-11T05:10:49Z</time>
      </trkpt>
      <trkpt lat="39.5915670" lon="-7.6983660">
        <ele>174.4</ele>
        <time>2019-07-11T05:10:51Z</time>
      </trkpt>
      <trkpt lat="39.5915670" lon="-7.6983980">
        <ele>174.8</ele>
        <time>2019-07-11T05:10:52Z</time>
      </trkpt>
      <trkpt lat="39.5915450" lon="-7.6985420">
        <ele>175.8</ele>
        <time>2019-07-11T05:10:57Z</time>
      </trkpt>
      <trkpt lat="39.5915370" lon="-7.6985690">
        <ele>176.0</ele>
        <time>2019-07-11T05:10:58Z</time>
      </trkpt>
      <trkpt lat="39.5914950" lon="-7.6986760">
        <ele>176.8</ele>
        <time>2019-07-11T05:11:02Z</time>
      </trkpt>
      <trkpt lat="39.5914750" lon="-7.6987320">
        <ele>177.2</ele>
        <time>2019-07-11T05:11:04Z</time>
      </trkpt>
      <trkpt lat="39.5914350" lon="-7.6988320">
        <ele>178.2</ele>
        <time>2019-07-11T05:11:08Z</time>
      </trkpt>
      <trkpt lat="39.5914030" lon="-7.6989120">
        <ele>179.0</ele>
        <time>2019-07-11T05:11:11Z</time>
      </trkpt>
      <trkpt lat="39.5913790" lon="-7.6989640">
        <ele>179.4</ele>
        <time>2019-07-11T05:11:13Z</time>
      </trkpt>
      <trkpt lat="39.5912950" lon="-7.6991110">
        <ele>180.4</ele>
        <time>2019-07-11T05:11:19Z</time>
      </trkpt>
      <trkpt lat="39.5912790" lon="-7.6991340">
        <ele>180.6</ele>
        <time>2019-07-11T05:11:20Z</time>
      </trkpt>
      <trkpt lat="39.5912130" lon="-7.6992270">
        <ele>181.4</ele>
        <time>2019-07-11T05:11:24Z</time>
      </trkpt>
      <trkpt lat="39.5911530" lon="-7.6993220">
        <ele>182.2</ele>
        <time>2019-07-11T05:11:28Z</time>
      </trkpt>
      <trkpt lat="39.5911400" lon="-7.6993490">
        <ele>182.6</ele>
        <time>2019-07-11T05:11:29Z</time>
      </trkpt>
      <trkpt lat="39.5910580" lon="-7.6994690">
        <ele>183.6</ele>
        <time>2019-07-11T05:11:34Z</time>
      </trkpt>
      <trkpt lat="39.5910430" lon="-7.6994940">
        <ele>184.0</ele>
        <time>2019-07-11T05:11:35Z</time>
      </trkpt>
      <trkpt lat="39.5909780" lon="-7.6996150">
        <ele>184.8</ele>
        <time>2019-07-11T05:11:40Z</time>
      </trkpt>
      <trkpt lat="39.5909110" lon="-7.6997370">
        <ele>186.0</ele>
        <time>2019-07-11T05:11:45Z</time>
      </trkpt>
      <trkpt lat="39.5908660" lon="-7.6998090">
        <ele>186.6</ele>
        <time>2019-07-11T05:11:48Z</time>
      </trkpt>
      <trkpt lat="39.5908330" lon="-7.6998540">
        <ele>187.2</ele>
        <time>2019-07-11T05:11:50Z</time>
      </trkpt>
      <trkpt lat="39.5907540" lon="-7.6999310">
        <ele>188.2</ele>
        <time>2019-07-11T05:11:54Z</time>
      </trkpt>
      <trkpt lat="39.5907070" lon="-7.6999620">
        <ele>188.6</ele>
        <time>2019-07-11T05:11:56Z</time>
      </trkpt>
      <trkpt lat="39.5906540" lon="-7.6999890">
        <ele>189.2</ele>
        <time>2019-07-11T05:11:58Z</time>
      </trkpt>
      <trkpt lat="39.5905330" lon="-7.7000170">
        <ele>189.8</ele>
        <time>2019-07-11T05:12:02Z</time>
      </trkpt>
      <trkpt lat="39.5903080" lon="-7.7000430">
        <ele>190.2</ele>
        <time>2019-07-11T05:12:09Z</time>
      </trkpt>
      <trkpt lat="39.5901250" lon="-7.7000590">
        <ele>190.6</ele>
        <time>2019-07-11T05:12:14Z</time>
      </trkpt>
      <trkpt lat="39.5900460" lon="-7.7000670">
        <ele>190.4</ele>
        <time>2019-07-11T05:12:16Z</time>
      </trkpt>
      <trkpt lat="39.5899640" lon="-7.7000780">
        <ele>190.4</ele>
        <time>2019-07-11T05:12:18Z</time>
      </trkpt>
      <trkpt lat="39.5899240" lon="-7.7000810">
        <ele>190.4</ele>
        <time>2019-07-11T05:12:19Z</time>
      </trkpt>
      <trkpt lat="39.5898440" lon="-7.7000890">
        <ele>190.4</ele>
        <time>2019-07-11T05:12:21Z</time>
      </trkpt>
      <trkpt lat="39.5897200" lon="-7.7001140">
        <ele>190.4</ele>
        <time>2019-07-11T05:12:24Z</time>
      </trkpt>
      <trkpt lat="39.5895510" lon="-7.7001780">
        <ele>190.4</ele>
        <time>2019-07-11T05:12:28Z</time>
      </trkpt>
      <trkpt lat="39.5894210" lon="-7.7002220">
        <ele>190.4</ele>
        <time>2019-07-11T05:12:31Z</time>
      </trkpt>
      <trkpt lat="39.5893770" lon="-7.7002360">
        <ele>190.4</ele>
        <time>2019-07-11T05:12:32Z</time>
      </trkpt>
      <trkpt lat="39.5892440" lon="-7.7002770">
        <ele>190.4</ele>
        <time>2019-07-11T05:12:35Z</time>
      </trkpt>
      <trkpt lat="39.5891120" lon="-7.7003120">
        <ele>190.6</ele>
        <time>2019-07-11T05:12:38Z</time>
      </trkpt>
      <trkpt lat="39.5888760" lon="-7.7003930">
        <ele>191.4</ele>
        <time>2019-07-11T05:12:44Z</time>
      </trkpt>
      <trkpt lat="39.5888100" lon="-7.7004200">
        <ele>191.6</ele>
        <time>2019-07-11T05:12:46Z</time>
      </trkpt>
      <trkpt lat="39.5886830" lon="-7.7004670">
        <ele>192.4</ele>
        <time>2019-07-11T05:12:50Z</time>
      </trkpt>
      <trkpt lat="39.5885950" lon="-7.7004990">
        <ele>193.2</ele>
        <time>2019-07-11T05:12:53Z</time>
      </trkpt>
      <trkpt lat="39.5885380" lon="-7.7005210">
        <ele>193.6</ele>
        <time>2019-07-11T05:12:55Z</time>
      </trkpt>
      <trkpt lat="39.5883700" lon="-7.7005730">
        <ele>195.0</ele>
        <time>2019-07-11T05:13:01Z</time>
      </trkpt>
      <trkpt lat="39.5883170" lon="-7.7005930">
        <ele>195.6</ele>
        <time>2019-07-11T05:13:03Z</time>
      </trkpt>
      <trkpt lat="39.5882100" lon="-7.7006340">
        <ele>196.2</ele>
        <time>2019-07-11T05:13:07Z</time>
      </trkpt>
      <trkpt lat="39.5880970" lon="-7.7006740">
        <ele>197.0</ele>
        <time>2019-07-11T05:13:11Z</time>
      </trkpt>
      <trkpt lat="39.5880680" lon="-7.7006830">
        <ele>197.2</ele>
        <time>2019-07-11T05:13:12Z</time>
      </trkpt>
      <trkpt lat="39.5880080" lon="-7.7007010">
        <ele>197.6</ele>
        <time>2019-07-11T05:13:14Z</time>
      </trkpt>
      <trkpt lat="39.5877950" lon="-7.7007670">
        <ele>198.4</ele>
        <time>2019-07-11T05:13:21Z</time>
      </trkpt>
      <trkpt lat="39.5875290" lon="-7.7008610">
        <ele>199.0</ele>
        <time>2019-07-11T05:13:29Z</time>
      </trkpt>
      <trkpt lat="39.5873520" lon="-7.7008980">
        <ele>199.4</ele>
        <time>2019-07-11T05:13:34Z</time>
      </trkpt>
      <trkpt lat="39.5872760" lon="-7.7008910">
        <ele>199.4</ele>
        <time>2019-07-11T05:13:36Z</time>
      </trkpt>
      <trkpt lat="39.5870750" lon="-7.7007650">
        <ele>200.0</ele>
        <time>2019-07-11T05:13:42Z</time>
      </trkpt>
      <trkpt lat="39.5868940" lon="-7.7006010">
        <ele>200.6</ele>
        <time>2019-07-11T05:13:48Z</time>
      </trkpt>
      <trkpt lat="39.5868260" lon="-7.7005590">
        <ele>200.8</ele>
        <time>2019-07-11T05:13:50Z</time>
      </trkpt>
      <trkpt lat="39.5866470" lon="-7.7005060">
        <ele>201.6</ele>
        <time>2019-07-11T05:13:55Z</time>
      </trkpt>
      <trkpt lat="39.5866100" lon="-7.7005090">
        <ele>201.8</ele>
        <time>2019-07-11T05:13:56Z</time>
      </trkpt>
      <trkpt lat="39.5863500" lon="-7.7005140">
        <ele>201.8</ele>
        <time>2019-07-11T05:14:03Z</time>
      </trkpt>
      <trkpt lat="39.5861800" lon="-7.7005340">
        <ele>202.6</ele>
        <time>2019-07-11T05:14:08Z</time>
      </trkpt>
      <trkpt lat="39.5860850" lon="-7.7005440">
        <ele>203.0</ele>
        <time>2019-07-11T05:14:11Z</time>
      </trkpt>
      <trkpt lat="39.5859550" lon="-7.7005410">
        <ele>203.6</ele>
        <time>2019-07-11T05:14:15Z</time>
      </trkpt>
      <trkpt lat="39.5858240" lon="-7.7005440">
        <ele>204.4</ele>
        <time>2019-07-11T05:14:19Z</time>
      </trkpt>
      <trkpt lat="39.5857920" lon="-7.7005440">
        <ele>204.8</ele>
        <time>2019-07-11T05:14:20Z</time>
      </trkpt>
      <trkpt lat="39.5856280" lon="-7.7005450">
        <ele>205.6</ele>
        <time>2019-07-11T05:14:25Z</time>
      </trkpt>
      <trkpt lat="39.5855950" lon="-7.7005410">
        <ele>205.8</ele>
        <time>2019-07-11T05:14:26Z</time>
      </trkpt>
      <trkpt lat="39.5855620" lon="-7.7005340">
        <ele>206.0</ele>
        <time>2019-07-11T05:14:27Z</time>
      </trkpt>
      <trkpt lat="39.5853950" lon="-7.7004920">
        <ele>207.0</ele>
        <time>2019-07-11T05:14:32Z</time>
      </trkpt>
      <trkpt lat="39.5853020" lon="-7.7004520">
        <ele>207.4</ele>
        <time>2019-07-11T05:14:35Z</time>
      </trkpt>
      <trkpt lat="39.5852380" lon="-7.7004340">
        <ele>208.2</ele>
        <time>2019-07-11T05:14:37Z</time>
      </trkpt>
      <trkpt lat="39.5850820" lon="-7.7003930">
        <ele>208.8</ele>
        <time>2019-07-11T05:14:42Z</time>
      </trkpt>
      <trkpt lat="39.5849860" lon="-7.7003740">
        <ele>209.2</ele>
        <time>2019-07-11T05:14:45Z</time>
      </trkpt>
      <trkpt lat="39.5848570" lon="-7.7003440">
        <ele>210.2</ele>
        <time>2019-07-11T05:14:49Z</time>
      </trkpt>
      <trkpt lat="39.5847950" lon="-7.7003320">
        <ele>210.8</ele>
        <time>2019-07-11T05:14:51Z</time>
      </trkpt>
      <trkpt lat="39.5847030" lon="-7.7003200">
        <ele>211.2</ele>
        <time>2019-07-11T05:14:54Z</time>
      </trkpt>
      <trkpt lat="39.5845460" lon="-7.7003020">
        <ele>212.2</ele>
        <time>2019-07-11T05:14:59Z</time>
      </trkpt>
      <trkpt lat="39.5844830" lon="-7.7002960">
        <ele>213.0</ele>
        <time>2019-07-11T05:15:01Z</time>
      </trkpt>
      <trkpt lat="39.5844510" lon="-7.7002910">
        <ele>213.4</ele>
        <time>2019-07-11T05:15:02Z</time>
      </trkpt>
      <trkpt lat="39.5842600" lon="-7.7002630">
        <ele>214.8</ele>
        <time>2019-07-11T05:15:08Z</time>
      </trkpt>
      <trkpt lat="39.5841970" lon="-7.7002540">
        <ele>215.2</ele>
        <time>2019-07-11T05:15:10Z</time>
      </trkpt>
      <trkpt lat="39.5840430" lon="-7.7002420">
        <ele>216.0</ele>
        <time>2019-07-11T05:15:15Z</time>
      </trkpt>
      <trkpt lat="39.5839520" lon="-7.7002390">
        <ele>217.2</ele>
        <time>2019-07-11T05:15:18Z</time>
      </trkpt>
      <trkpt lat="39.5837650" lon="-7.7002590">
        <ele>218.4</ele>
        <time>2019-07-11T05:15:24Z</time>
      </trkpt>
      <trkpt lat="39.5837340" lon="-7.7002620">
        <ele>218.4</ele>
        <time>2019-07-11T05:15:25Z</time>
      </trkpt>
      <trkpt lat="39.5835830" lon="-7.7003010">
        <ele>219.4</ele>
        <time>2019-07-11T05:15:30Z</time>
      </trkpt>
      <trkpt lat="39.5834960" lon="-7.7003200">
        <ele>220.4</ele>
        <time>2019-07-11T05:15:33Z</time>
      </trkpt>
      <trkpt lat="39.5833790" lon="-7.7003620">
        <ele>221.4</ele>
        <time>2019-07-11T05:15:37Z</time>
      </trkpt>
      <trkpt lat="39.5832910" lon="-7.7003980">
        <ele>222.2</ele>
        <time>2019-07-11T05:15:40Z</time>
      </trkpt>
      <trkpt lat="39.5832000" lon="-7.7004390">
        <ele>222.6</ele>
        <time>2019-07-11T05:15:43Z</time>
      </trkpt>
      <trkpt lat="39.5830220" lon="-7.7005230">
        <ele>223.6</ele>
        <time>2019-07-11T05:15:49Z</time>
      </trkpt>
      <trkpt lat="39.5829330" lon="-7.7005620">
        <ele>224.6</ele>
        <time>2019-07-11T05:15:52Z</time>
      </trkpt>
      <trkpt lat="39.5827850" lon="-7.7006130">
        <ele>225.6</ele>
        <time>2019-07-11T05:15:57Z</time>
      </trkpt>
      <trkpt lat="39.5826970" lon="-7.7006580">
        <ele>226.8</ele>
        <time>2019-07-11T05:16:00Z</time>
      </trkpt>
      <trkpt lat="39.5825660" lon="-7.7007190">
        <ele>227.8</ele>
        <time>2019-07-11T05:16:04Z</time>
      </trkpt>
      <trkpt lat="39.5825320" lon="-7.7007380">
        <ele>227.8</ele>
        <time>2019-07-11T05:16:05Z</time>
      </trkpt>
      <trkpt lat="39.5822810" lon="-7.7008350">
        <ele>227.8</ele>
        <time>2019-07-11T05:16:12Z</time>
      </trkpt>
      <trkpt lat="39.5822400" lon="-7.7008460">
        <ele>227.8</ele>
        <time>2019-07-11T05:16:13Z</time>
      </trkpt>
      <trkpt lat="39.5820650" lon="-7.7009070">
        <ele>227.6</ele>
        <time>2019-07-11T05:16:17Z</time>
      </trkpt>
      <trkpt lat="39.5819710" lon="-7.7009330">
        <ele>227.2</ele>
        <time>2019-07-11T05:16:19Z</time>
      </trkpt>
      <trkpt lat="39.5818740" lon="-7.7009560">
        <ele>227.0</ele>
        <time>2019-07-11T05:16:21Z</time>
      </trkpt>
      <trkpt lat="39.5817740" lon="-7.7009690">
        <ele>227.0</ele>
        <time>2019-07-11T05:16:23Z</time>
      </trkpt>
      <trkpt lat="39.5816710" lon="-7.7009790">
        <ele>227.0</ele>
        <time>2019-07-11T05:16:25Z</time>
      </trkpt>
      <trkpt lat="39.5815700" lon="-7.7009890">
        <ele>227.0</ele>
        <time>2019-07-11T05:16:27Z</time>
      </trkpt>
      <trkpt lat="39.5814230" lon="-7.7010050">
        <ele>227.0</ele>
        <time>2019-07-11T05:16:30Z</time>
      </trkpt>
      <trkpt lat="39.5812080" lon="-7.7010220">
        <ele>227.6</ele>
        <time>2019-07-11T05:16:35Z</time>
      </trkpt>
      <trkpt lat="39.5810160" lon="-7.7010420">
        <ele>228.8</ele>
        <time>2019-07-11T05:16:41Z</time>
      </trkpt>
      <trkpt lat="39.5809580" lon="-7.7010490">
        <ele>229.0</ele>
        <time>2019-07-11T05:16:43Z</time>
      </trkpt>
      <trkpt lat="39.5808760" lon="-7.7010590">
        <ele>229.8</ele>
        <time>2019-07-11T05:16:46Z</time>
      </trkpt>
      <trkpt lat="39.5807700" lon="-7.7010710">
        <ele>231.0</ele>
        <time>2019-07-11T05:16:50Z</time>
      </trkpt>
      <trkpt lat="39.5806900" lon="-7.7010870">
        <ele>231.8</ele>
        <time>2019-07-11T05:16:53Z</time>
      </trkpt>
      <trkpt lat="39.5806630" lon="-7.7010910">
        <ele>232.2</ele>
        <time>2019-07-11T05:16:54Z</time>
      </trkpt>
      <trkpt lat="39.5805310" lon="-7.7011200">
        <ele>233.0</ele>
        <time>2019-07-11T05:16:59Z</time>
      </trkpt>
      <trkpt lat="39.5805060" lon="-7.7011260">
        <ele>233.2</ele>
        <time>2019-07-11T05:17:00Z</time>
      </trkpt>
      <trkpt lat="39.5804540" lon="-7.7011390">
        <ele>233.8</ele>
        <time>2019-07-11T05:17:02Z</time>
      </trkpt>
      <trkpt lat="39.5803730" lon="-7.7011580">
        <ele>234.4</ele>
        <time>2019-07-11T05:17:05Z</time>
      </trkpt>
      <trkpt lat="39.5802680" lon="-7.7011870">
        <ele>235.4</ele>
        <time>2019-07-11T05:17:09Z</time>
      </trkpt>
      <trkpt lat="39.5802160" lon="-7.7012000">
        <ele>236.0</ele>
        <time>2019-07-11T05:17:11Z</time>
      </trkpt>
      <trkpt lat="39.5801380" lon="-7.7012220">
        <ele>236.6</ele>
        <time>2019-07-11T05:17:14Z</time>
      </trkpt>
      <trkpt lat="39.5800310" lon="-7.7012500">
        <ele>237.8</ele>
        <time>2019-07-11T05:17:18Z</time>
      </trkpt>
      <trkpt lat="39.5798870" lon="-7.7012810">
        <ele>239.0</ele>
        <time>2019-07-11T05:17:23Z</time>
      </trkpt>
      <trkpt lat="39.5798060" lon="-7.7013060">
        <ele>239.8</ele>
        <time>2019-07-11T05:17:26Z</time>
      </trkpt>
      <trkpt lat="39.5797800" lon="-7.7013150">
        <ele>240.2</ele>
        <time>2019-07-11T05:17:27Z</time>
      </trkpt>
      <trkpt lat="39.5796410" lon="-7.7013650">
        <ele>241.2</ele>
        <time>2019-07-11T05:17:32Z</time>
      </trkpt>
      <trkpt lat="39.5796140" lon="-7.7013720">
        <ele>241.2</ele>
        <time>2019-07-11T05:17:33Z</time>
      </trkpt>
      <trkpt lat="39.5795320" lon="-7.7013960">
        <ele>242.4</ele>
        <time>2019-07-11T05:17:36Z</time>
      </trkpt>
      <trkpt lat="39.5793620" lon="-7.7014410">
        <ele>243.4</ele>
        <time>2019-07-11T05:17:42Z</time>
      </trkpt>
      <trkpt lat="39.5792720" lon="-7.7014470">
        <ele>243.4</ele>
        <time>2019-07-11T05:17:45Z</time>
      </trkpt>
      <trkpt lat="39.5791410" lon="-7.7014380">
        <ele>244.2</ele>
        <time>2019-07-11T05:17:49Z</time>
      </trkpt>
      <trkpt lat="39.5790770" lon="-7.7014150">
        <ele>244.6</ele>
        <time>2019-07-11T05:17:51Z</time>
      </trkpt>
      <trkpt lat="39.5789170" lon="-7.7013400">
        <ele>244.8</ele>
        <time>2019-07-11T05:17:56Z</time>
      </trkpt>
      <trkpt lat="39.5788850" lon="-7.7013200">
        <ele>244.8</ele>
        <time>2019-07-11T05:17:57Z</time>
      </trkpt>
      <trkpt lat="39.5787620" lon="-7.7012200">
        <ele>245.0</ele>
        <time>2019-07-11T05:18:01Z</time>
      </trkpt>
      <trkpt lat="39.5786550" lon="-7.7011580">
        <ele>245.2</ele>
        <time>2019-07-11T05:18:04Z</time>
      </trkpt>
      <trkpt lat="39.5785090" lon="-7.7010730">
        <ele>245.6</ele>
        <time>2019-07-11T05:18:08Z</time>
      </trkpt>
      <trkpt lat="39.5784730" lon="-7.7010510">
        <ele>245.6</ele>
        <time>2019-07-11T05:18:09Z</time>
      </trkpt>
      <trkpt lat="39.5783990" lon="-7.7010010">
        <ele>245.6</ele>
        <time>2019-07-11T05:18:11Z</time>
      </trkpt>
      <trkpt lat="39.5782860" lon="-7.7009320">
        <ele>245.8</ele>
        <time>2019-07-11T05:18:14Z</time>
      </trkpt>
      <trkpt lat="39.5781710" lon="-7.7008670">
        <ele>246.0</ele>
        <time>2019-07-11T05:18:17Z</time>
      </trkpt>
      <trkpt lat="39.5780910" lon="-7.7008260">
        <ele>246.0</ele>
        <time>2019-07-11T05:18:19Z</time>
      </trkpt>
      <trkpt lat="39.5780530" lon="-7.7008000">
        <ele>246.0</ele>
        <time>2019-07-11T05:18:20Z</time>
      </trkpt>
      <trkpt lat="39.5777340" lon="-7.7006050">
        <ele>246.4</ele>
        <time>2019-07-11T05:18:28Z</time>
      </trkpt>
      <trkpt lat="39.5776950" lon="-7.7005810">
        <ele>246.6</ele>
        <time>2019-07-11T05:18:29Z</time>
      </trkpt>
      <trkpt lat="39.5774160" lon="-7.7003910">
        <ele>246.6</ele>
        <time>2019-07-11T05:18:36Z</time>
      </trkpt>
      <trkpt lat="39.5773800" lon="-7.7003510">
        <ele>246.6</ele>
        <time>2019-07-11T05:18:37Z</time>
      </trkpt>
      <trkpt lat="39.5772710" lon="-7.7001510">
        <ele>246.8</ele>
        <time>2019-07-11T05:18:41Z</time>
      </trkpt>
      <trkpt lat="39.5772510" lon="-7.7000930">
        <ele>246.8</ele>
        <time>2019-07-11T05:18:42Z</time>
      </trkpt>
      <trkpt lat="39.5771290" lon="-7.6996670">
        <ele>247.0</ele>
        <time>2019-07-11T05:18:49Z</time>
      </trkpt>
      <trkpt lat="39.5770920" lon="-7.6995490">
        <ele>247.2</ele>
        <time>2019-07-11T05:18:51Z</time>
      </trkpt>
      <trkpt lat="39.5769600" lon="-7.6992180">
        <ele>247.8</ele>
        <time>2019-07-11T05:18:57Z</time>
      </trkpt>
      <trkpt lat="39.5769380" lon="-7.6991660">
        <ele>247.8</ele>
        <time>2019-07-11T05:18:58Z</time>
      </trkpt>
      <trkpt lat="39.5768300" lon="-7.6989280">
        <ele>248.6</ele>
        <time>2019-07-11T05:19:03Z</time>
      </trkpt>
      <trkpt lat="39.5767880" lon="-7.6988470">
        <ele>248.8</ele>
        <time>2019-07-11T05:19:05Z</time>
      </trkpt>
      <trkpt lat="39.5767190" lon="-7.6986780">
        <ele>249.4</ele>
        <time>2019-07-11T05:19:09Z</time>
      </trkpt>
      <trkpt lat="39.5766870" lon="-7.6985910">
        <ele>250.0</ele>
        <time>2019-07-11T05:19:11Z</time>
      </trkpt>
      <trkpt lat="39.5765520" lon="-7.6983270">
        <ele>251.2</ele>
        <time>2019-07-11T05:19:18Z</time>
      </trkpt>
      <trkpt lat="39.5764560" lon="-7.6981710">
        <ele>252.2</ele>
        <time>2019-07-11T05:19:23Z</time>
      </trkpt>
      <trkpt lat="39.5763730" lon="-7.6980030">
        <ele>252.8</ele>
        <time>2019-07-11T05:19:28Z</time>
      </trkpt>
      <trkpt lat="39.5763270" lon="-7.6978980">
        <ele>253.4</ele>
        <time>2019-07-11T05:19:31Z</time>
      </trkpt>
      <trkpt lat="39.5762810" lon="-7.6977990">
        <ele>253.8</ele>
        <time>2019-07-11T05:19:34Z</time>
      </trkpt>
      <trkpt lat="39.5762010" lon="-7.6976400">
        <ele>254.6</ele>
        <time>2019-07-11T05:19:39Z</time>
      </trkpt>
      <trkpt lat="39.5761870" lon="-7.6976120">
        <ele>254.8</ele>
        <time>2019-07-11T05:19:40Z</time>
      </trkpt>
      <trkpt lat="39.5761320" lon="-7.6975060">
        <ele>255.0</ele>
        <time>2019-07-11T05:19:46Z</time>
      </trkpt>
      <trkpt lat="39.5761240" lon="-7.6974950">
        <ele>255.0</ele>
        <time>2019-07-11T05:19:48Z</time>
      </trkpt>
      <trkpt lat="39.5761240" lon="-7.6974930">
        <ele>255.0</ele>
        <time>2019-07-11T05:19:49Z</time>
      </trkpt>
      <trkpt lat="39.5761030" lon="-7.6974160">
        <ele>255.4</ele>
        <time>2019-07-11T05:20:59Z</time>
      </trkpt>
      <trkpt lat="39.5760970" lon="-7.6973970">
        <ele>255.6</ele>
        <time>2019-07-11T05:21:00Z</time>
      </trkpt>
      <trkpt lat="39.5760610" lon="-7.6973330">
        <ele>255.8</ele>
        <time>2019-07-11T05:21:03Z</time>
      </trkpt>
      <trkpt lat="39.5760510" lon="-7.6973080">
        <ele>256.0</ele>
        <time>2019-07-11T05:21:04Z</time>
      </trkpt>
      <trkpt lat="39.5760410" lon="-7.6972800">
        <ele>256.0</ele>
        <time>2019-07-11T05:21:05Z</time>
      </trkpt>
      <trkpt lat="39.5759930" lon="-7.6971790">
        <ele>256.6</ele>
        <time>2019-07-11T05:21:09Z</time>
      </trkpt>
      <trkpt lat="39.5759650" lon="-7.6971290">
        <ele>257.0</ele>
        <time>2019-07-11T05:21:11Z</time>
      </trkpt>
      <trkpt lat="39.5758990" lon="-7.6970220">
        <ele>257.4</ele>
        <time>2019-07-11T05:21:15Z</time>
      </trkpt>
      <trkpt lat="39.5758540" lon="-7.6969300">
        <ele>257.6</ele>
        <time>2019-07-11T05:21:18Z</time>
      </trkpt>
      <trkpt lat="39.5758380" lon="-7.6969000">
        <ele>257.6</ele>
        <time>2019-07-11T05:21:19Z</time>
      </trkpt>
      <trkpt lat="39.5757920" lon="-7.6968130">
        <ele>258.2</ele>
        <time>2019-07-11T05:21:22Z</time>
      </trkpt>
      <trkpt lat="39.5757500" lon="-7.6967240">
        <ele>258.6</ele>
        <time>2019-07-11T05:21:25Z</time>
      </trkpt>
      <trkpt lat="39.5757340" lon="-7.6966950">
        <ele>258.8</ele>
        <time>2019-07-11T05:21:26Z</time>
      </trkpt>
      <trkpt lat="39.5756670" lon="-7.6965700">
        <ele>259.4</ele>
        <time>2019-07-11T05:21:30Z</time>
      </trkpt>
      <trkpt lat="39.5756350" lon="-7.6965050">
        <ele>259.6</ele>
        <time>2019-07-11T05:21:32Z</time>
      </trkpt>
      <trkpt lat="39.5755820" lon="-7.6964110">
        <ele>260.0</ele>
        <time>2019-07-11T05:21:35Z</time>
      </trkpt>
      <trkpt lat="39.5755420" lon="-7.6963490">
        <ele>260.6</ele>
        <time>2019-07-11T05:21:37Z</time>
      </trkpt>
      <trkpt lat="39.5753950" lon="-7.6961520">
        <ele>261.6</ele>
        <time>2019-07-11T05:21:44Z</time>
      </trkpt>
      <trkpt lat="39.5752330" lon="-7.6959360">
        <ele>262.8</ele>
        <time>2019-07-11T05:21:52Z</time>
      </trkpt>
      <trkpt lat="39.5752140" lon="-7.6959070">
        <ele>262.8</ele>
        <time>2019-07-11T05:21:53Z</time>
      </trkpt>
      <trkpt lat="39.5750810" lon="-7.6957140">
        <ele>263.8</ele>
        <time>2019-07-11T05:22:00Z</time>
      </trkpt>
      <trkpt lat="39.5750600" lon="-7.6956840">
        <ele>263.8</ele>
        <time>2019-07-11T05:22:01Z</time>
      </trkpt>
      <trkpt lat="39.5749650" lon="-7.6955380">
        <ele>265.0</ele>
        <time>2019-07-11T05:22:06Z</time>
      </trkpt>
      <trkpt lat="39.5749130" lon="-7.6954460">
        <ele>266.0</ele>
        <time>2019-07-11T05:22:09Z</time>
      </trkpt>
      <trkpt lat="39.5747390" lon="-7.6952130">
        <ele>266.8</ele>
        <time>2019-07-11T05:22:17Z</time>
      </trkpt>
      <trkpt lat="39.5747170" lon="-7.6951850">
        <ele>267.0</ele>
        <time>2019-07-11T05:22:18Z</time>
      </trkpt>
      <trkpt lat="39.5746100" lon="-7.6950290">
        <ele>267.6</ele>
        <time>2019-07-11T05:22:23Z</time>
      </trkpt>
      <trkpt lat="39.5745640" lon="-7.6949700">
        <ele>268.2</ele>
        <time>2019-07-11T05:22:25Z</time>
      </trkpt>
      <trkpt lat="39.5744450" lon="-7.6948770">
        <ele>268.4</ele>
        <time>2019-07-11T05:22:29Z</time>
      </trkpt>
      <trkpt lat="39.5742980" lon="-7.6948260">
        <ele>268.0</ele>
        <time>2019-07-11T05:22:33Z</time>
      </trkpt>
      <trkpt lat="39.5742500" lon="-7.6948300">
        <ele>267.6</ele>
        <time>2019-07-11T05:22:34Z</time>
      </trkpt>
      <trkpt lat="39.5741570" lon="-7.6948550">
        <ele>267.0</ele>
        <time>2019-07-11T05:22:36Z</time>
      </trkpt>
      <trkpt lat="39.5740690" lon="-7.6948880">
        <ele>266.0</ele>
        <time>2019-07-11T05:22:38Z</time>
      </trkpt>
      <trkpt lat="39.5740280" lon="-7.6949060">
        <ele>265.6</ele>
        <time>2019-07-11T05:22:39Z</time>
      </trkpt>
      <trkpt lat="39.5739830" lon="-7.6949260">
        <ele>265.0</ele>
        <time>2019-07-11T05:22:40Z</time>
      </trkpt>
      <trkpt lat="39.5739340" lon="-7.6949480">
        <ele>264.0</ele>
        <time>2019-07-11T05:22:41Z</time>
      </trkpt>
      <trkpt lat="39.5738400" lon="-7.6949960">
        <ele>262.8</ele>
        <time>2019-07-11T05:22:43Z</time>
      </trkpt>
      <trkpt lat="39.5737560" lon="-7.6950320">
        <ele>261.8</ele>
        <time>2019-07-11T05:22:45Z</time>
      </trkpt>
      <trkpt lat="39.5737160" lon="-7.6950570">
        <ele>261.6</ele>
        <time>2019-07-11T05:22:46Z</time>
      </trkpt>
      <trkpt lat="39.5736200" lon="-7.6951560">
        <ele>261.0</ele>
        <time>2019-07-11T05:22:49Z</time>
      </trkpt>
      <trkpt lat="39.5735870" lon="-7.6951920">
        <ele>260.8</ele>
        <time>2019-07-11T05:22:50Z</time>
      </trkpt>
      <trkpt lat="39.5735510" lon="-7.6952250">
        <ele>260.6</ele>
        <time>2019-07-11T05:22:51Z</time>
      </trkpt>
      <trkpt lat="39.5734730" lon="-7.6952790">
        <ele>260.4</ele>
        <time>2019-07-11T05:22:53Z</time>
      </trkpt>
      <trkpt lat="39.5734290" lon="-7.6952920">
        <ele>260.2</ele>
        <time>2019-07-11T05:22:54Z</time>
      </trkpt>
      <trkpt lat="39.5732760" lon="-7.6953090">
        <ele>259.6</ele>
        <time>2019-07-11T05:22:57Z</time>
      </trkpt>
      <trkpt lat="39.5732290" lon="-7.6953100">
        <ele>259.4</ele>
        <time>2019-07-11T05:22:58Z</time>
      </trkpt>
      <trkpt lat="39.5731960" lon="-7.6953090">
        <ele>259.0</ele>
        <time>2019-07-11T05:22:59Z</time>
      </trkpt>
      <trkpt lat="39.5731380" lon="-7.6953130">
        <ele>258.4</ele>
        <time>2019-07-11T05:23:01Z</time>
      </trkpt>
      <trkpt lat="39.5730630" lon="-7.6953060">
        <ele>257.8</ele>
        <time>2019-07-11T05:23:03Z</time>
      </trkpt>
      <trkpt lat="39.5730170" lon="-7.6953010">
        <ele>257.8</ele>
        <time>2019-07-11T05:23:04Z</time>
      </trkpt>
      <trkpt lat="39.5729230" lon="-7.6952890">
        <ele>257.0</ele>
        <time>2019-07-11T05:23:06Z</time>
      </trkpt>
      <trkpt lat="39.5728710" lon="-7.6952840">
        <ele>256.6</ele>
        <time>2019-07-11T05:23:07Z</time>
      </trkpt>
      <trkpt lat="39.5728160" lon="-7.6952760">
        <ele>256.4</ele>
        <time>2019-07-11T05:23:08Z</time>
      </trkpt>
      <trkpt lat="39.5727340" lon="-7.6952570">
        <ele>255.8</ele>
        <time>2019-07-11T05:23:10Z</time>
      </trkpt>
      <trkpt lat="39.5726990" lon="-7.6952370">
        <ele>255.4</ele>
        <time>2019-07-11T05:23:11Z</time>
      </trkpt>
      <trkpt lat="39.5726630" lon="-7.6952100">
        <ele>255.2</ele>
        <time>2019-07-11T05:23:12Z</time>
      </trkpt>
      <trkpt lat="39.5726210" lon="-7.6951780">
        <ele>254.8</ele>
        <time>2019-07-11T05:23:13Z</time>
      </trkpt>
      <trkpt lat="39.5725750" lon="-7.6951470">
        <ele>254.4</ele>
        <time>2019-07-11T05:23:14Z</time>
      </trkpt>
      <trkpt lat="39.5725280" lon="-7.6951100">
        <ele>254.0</ele>
        <time>2019-07-11T05:23:15Z</time>
      </trkpt>
      <trkpt lat="39.5724800" lon="-7.6950710">
        <ele>253.6</ele>
        <time>2019-07-11T05:23:16Z</time>
      </trkpt>
      <trkpt lat="39.5723250" lon="-7.6949540">
        <ele>252.6</ele>
        <time>2019-07-11T05:23:19Z</time>
      </trkpt>
      <trkpt lat="39.5722840" lon="-7.6949230">
        <ele>252.2</ele>
        <time>2019-07-11T05:23:20Z</time>
      </trkpt>
      <trkpt lat="39.5722210" lon="-7.6948870">
        <ele>251.8</ele>
        <time>2019-07-11T05:23:22Z</time>
      </trkpt>
      <trkpt lat="39.5721450" lon="-7.6949090">
        <ele>251.6</ele>
        <time>2019-07-11T05:23:24Z</time>
      </trkpt>
      <trkpt lat="39.5721070" lon="-7.6949780">
        <ele>251.4</ele>
        <time>2019-07-11T05:23:26Z</time>
      </trkpt>
      <trkpt lat="39.5721040" lon="-7.6950190">
        <ele>251.2</ele>
        <time>2019-07-11T05:23:27Z</time>
      </trkpt>
      <trkpt lat="39.5721520" lon="-7.6951240">
        <ele>250.8</ele>
        <time>2019-07-11T05:23:31Z</time>
      </trkpt>
      <trkpt lat="39.5721680" lon="-7.6951450">
        <ele>250.6</ele>
        <time>2019-07-11T05:23:32Z</time>
      </trkpt>
      <trkpt lat="39.5721870" lon="-7.6952430">
        <ele>250.4</ele>
        <time>2019-07-11T05:23:35Z</time>
      </trkpt>
      <trkpt lat="39.5721910" lon="-7.6952810">
        <ele>250.2</ele>
        <time>2019-07-11T05:23:36Z</time>
      </trkpt>
      <trkpt lat="39.5722140" lon="-7.6953970">
        <ele>250.2</ele>
        <time>2019-07-11T05:23:39Z</time>
      </trkpt>
      <trkpt lat="39.5722250" lon="-7.6954360">
        <ele>250.4</ele>
        <time>2019-07-11T05:23:40Z</time>
      </trkpt>
      <trkpt lat="39.5722960" lon="-7.6956970">
        <ele>250.0</ele>
        <time>2019-07-11T05:23:46Z</time>
      </trkpt>
      <trkpt lat="39.5722940" lon="-7.6958310">
        <ele>249.8</ele>
        <time>2019-07-11T05:23:50Z</time>
      </trkpt>
      <trkpt lat="39.5723680" lon="-7.6959540">
        <ele>249.6</ele>
        <time>2019-07-11T05:23:54Z</time>
      </trkpt>
      <trkpt lat="39.5724790" lon="-7.6959840">
        <ele>249.8</ele>
        <time>2019-07-11T05:23:58Z</time>
      </trkpt>
      <trkpt lat="39.5725050" lon="-7.6959760">
        <ele>250.0</ele>
        <time>2019-07-11T05:23:59Z</time>
      </trkpt>
      <trkpt lat="39.5725620" lon="-7.6959580">
        <ele>250.4</ele>
        <time>2019-07-11T05:24:01Z</time>
      </trkpt>
      <trkpt lat="39.5726170" lon="-7.6959460">
        <ele>250.8</ele>
        <time>2019-07-11T05:24:03Z</time>
      </trkpt>
      <trkpt lat="39.5726690" lon="-7.6959280">
        <ele>251.4</ele>
        <time>2019-07-11T05:24:05Z</time>
      </trkpt>
      <trkpt lat="39.5727460" lon="-7.6959000">
        <ele>252.2</ele>
        <time>2019-07-11T05:24:08Z</time>
      </trkpt>
      <trkpt lat="39.5727660" lon="-7.6958930">
        <ele>252.4</ele>
        <time>2019-07-11T05:24:09Z</time>
      </trkpt>
      <trkpt lat="39.5728130" lon="-7.6959030">
        <ele>252.8</ele>
        <time>2019-07-11T05:24:11Z</time>
      </trkpt>
      <trkpt lat="39.5728290" lon="-7.6959250">
        <ele>253.0</ele>
        <time>2019-07-11T05:24:12Z</time>
      </trkpt>
      <trkpt lat="39.5728450" lon="-7.6959850">
        <ele>253.4</ele>
        <time>2019-07-11T05:24:14Z</time>
      </trkpt>
      <trkpt lat="39.5728470" lon="-7.6960200">
        <ele>253.6</ele>
        <time>2019-07-11T05:24:15Z</time>
      </trkpt>
      <trkpt lat="39.5728450" lon="-7.6960960">
        <ele>253.6</ele>
        <time>2019-07-11T05:24:17Z</time>
      </trkpt>
      <trkpt lat="39.5728530" lon="-7.6962830">
        <ele>252.8</ele>
        <time>2019-07-11T05:24:21Z</time>
      </trkpt>
      <trkpt lat="39.5728560" lon="-7.6963570">
        <ele>252.4</ele>
        <time>2019-07-11T05:24:23Z</time>
      </trkpt>
      <trkpt lat="39.5728330" lon="-7.6964670">
        <ele>251.6</ele>
        <time>2019-07-11T05:24:26Z</time>
      </trkpt>
      <trkpt lat="39.5728240" lon="-7.6965080">
        <ele>251.2</ele>
        <time>2019-07-11T05:24:27Z</time>
      </trkpt>
      <trkpt lat="39.5727810" lon="-7.6966420">
        <ele>250.2</ele>
        <time>2019-07-11T05:24:30Z</time>
      </trkpt>
      <trkpt lat="39.5727640" lon="-7.6966830">
        <ele>249.4</ele>
        <time>2019-07-11T05:24:31Z</time>
      </trkpt>
      <trkpt lat="39.5727450" lon="-7.6967240">
        <ele>249.0</ele>
        <time>2019-07-11T05:24:32Z</time>
      </trkpt>
      <trkpt lat="39.5727030" lon="-7.6968080">
        <ele>247.8</ele>
        <time>2019-07-11T05:24:34Z</time>
      </trkpt>
      <trkpt lat="39.5726750" lon="-7.6968940">
        <ele>247.2</ele>
        <time>2019-07-11T05:24:36Z</time>
      </trkpt>
      <trkpt lat="39.5725560" lon="-7.6970960">
        <ele>247.4</ele>
        <time>2019-07-11T05:24:42Z</time>
      </trkpt>
      <trkpt lat="39.5724970" lon="-7.6971850">
        <ele>248.0</ele>
        <time>2019-07-11T05:24:45Z</time>
      </trkpt>
      <trkpt lat="39.5724170" lon="-7.6973290">
        <ele>249.2</ele>
        <time>2019-07-11T05:24:50Z</time>
      </trkpt>
      <trkpt lat="39.5724140" lon="-7.6974670">
        <ele>250.0</ele>
        <time>2019-07-11T05:24:54Z</time>
      </trkpt>
      <trkpt lat="39.5724120" lon="-7.6975380">
        <ele>250.2</ele>
        <time>2019-07-11T05:24:56Z</time>
      </trkpt>
      <trkpt lat="39.5724060" lon="-7.6975720">
        <ele>250.4</ele>
        <time>2019-07-11T05:24:57Z</time>
      </trkpt>
      <trkpt lat="39.5723680" lon="-7.6976570">
        <ele>250.8</ele>
        <time>2019-07-11T05:25:00Z</time>
      </trkpt>
      <trkpt lat="39.5723350" lon="-7.6977020">
        <ele>251.0</ele>
        <time>2019-07-11T05:25:02Z</time>
      </trkpt>
      <trkpt lat="39.5723020" lon="-7.6977510">
        <ele>251.6</ele>
        <time>2019-07-11T05:25:04Z</time>
      </trkpt>
      <trkpt lat="39.5722690" lon="-7.6978300">
        <ele>252.0</ele>
        <time>2019-07-11T05:25:07Z</time>
      </trkpt>
      <trkpt lat="39.5722460" lon="-7.6978760">
        <ele>252.8</ele>
        <time>2019-07-11T05:25:09Z</time>
      </trkpt>
      <trkpt lat="39.5722070" lon="-7.6979480">
        <ele>254.2</ele>
        <time>2019-07-11T05:25:12Z</time>
      </trkpt>
      <trkpt lat="39.5721990" lon="-7.6979740">
        <ele>254.6</ele>
        <time>2019-07-11T05:25:13Z</time>
      </trkpt>
      <trkpt lat="39.5721910" lon="-7.6980280">
        <ele>255.2</ele>
        <time>2019-07-11T05:25:15Z</time>
      </trkpt>
      <trkpt lat="39.5721800" lon="-7.6981040">
        <ele>256.2</ele>
        <time>2019-07-11T05:25:18Z</time>
      </trkpt>
      <trkpt lat="39.5721800" lon="-7.6981260">
        <ele>256.4</ele>
        <time>2019-07-11T05:25:19Z</time>
      </trkpt>
      <trkpt lat="39.5721810" lon="-7.6981510">
        <ele>256.8</ele>
        <time>2019-07-11T05:25:20Z</time>
      </trkpt>
      <trkpt lat="39.5721850" lon="-7.6982000">
        <ele>257.6</ele>
        <time>2019-07-11T05:25:22Z</time>
      </trkpt>
      <trkpt lat="39.5721900" lon="-7.6982700">
        <ele>258.6</ele>
        <time>2019-07-11T05:25:25Z</time>
      </trkpt>
      <trkpt lat="39.5721920" lon="-7.6982930">
        <ele>259.0</ele>
        <time>2019-07-11T05:25:26Z</time>
      </trkpt>
      <trkpt lat="39.5721970" lon="-7.6983620">
        <ele>259.8</ele>
        <time>2019-07-11T05:25:29Z</time>
      </trkpt>
      <trkpt lat="39.5722110" lon="-7.6984820">
        <ele>260.6</ele>
        <time>2019-07-11T05:25:33Z</time>
      </trkpt>
      <trkpt lat="39.5722130" lon="-7.6985110">
        <ele>261.0</ele>
        <time>2019-07-11T05:25:34Z</time>
      </trkpt>
      <trkpt lat="39.5722040" lon="-7.6987450">
        <ele>262.0</ele>
        <time>2019-07-11T05:25:41Z</time>
      </trkpt>
      <trkpt lat="39.5721940" lon="-7.6989890">
        <ele>261.8</ele>
        <time>2019-07-11T05:25:46Z</time>
      </trkpt>
      <trkpt lat="39.5722040" lon="-7.6990690">
        <ele>262.2</ele>
        <time>2019-07-11T05:25:48Z</time>
      </trkpt>
      <trkpt lat="39.5722070" lon="-7.6991840">
        <ele>262.6</ele>
        <time>2019-07-11T05:25:51Z</time>
      </trkpt>
      <trkpt lat="39.5721920" lon="-7.6994320">
        <ele>263.0</ele>
        <time>2019-07-11T05:25:56Z</time>
      </trkpt>
      <trkpt lat="39.5721750" lon="-7.6996110">
        <ele>263.0</ele>
        <time>2019-07-11T05:25:59Z</time>
      </trkpt>
      <trkpt lat="39.5721930" lon="-7.6997750">
        <ele>263.0</ele>
        <time>2019-07-11T05:26:02Z</time>
      </trkpt>
      <trkpt lat="39.5722030" lon="-7.6998270">
        <ele>263.0</ele>
        <time>2019-07-11T05:26:03Z</time>
      </trkpt>
      <trkpt lat="39.5722210" lon="-7.6999390">
        <ele>262.8</ele>
        <time>2019-07-11T05:26:05Z</time>
      </trkpt>
      <trkpt lat="39.5722180" lon="-7.7000600">
        <ele>262.8</ele>
        <time>2019-07-11T05:26:07Z</time>
      </trkpt>
      <trkpt lat="39.5722020" lon="-7.7001710">
        <ele>262.2</ele>
        <time>2019-07-11T05:26:09Z</time>
      </trkpt>
      <trkpt lat="39.5721700" lon="-7.7003600">
        <ele>261.2</ele>
        <time>2019-07-11T05:26:12Z</time>
      </trkpt>
      <trkpt lat="39.5721590" lon="-7.7004350">
        <ele>260.6</ele>
        <time>2019-07-11T05:26:13Z</time>
      </trkpt>
      <trkpt lat="39.5721420" lon="-7.7006000">
        <ele>258.8</ele>
        <time>2019-07-11T05:26:15Z</time>
      </trkpt>
      <trkpt lat="39.5721290" lon="-7.7006770">
        <ele>258.0</ele>
        <time>2019-07-11T05:26:16Z</time>
      </trkpt>
      <trkpt lat="39.5721110" lon="-7.7007440">
        <ele>257.8</ele>
        <time>2019-07-11T05:26:17Z</time>
      </trkpt>
      <trkpt lat="39.5720670" lon="-7.7008360">
        <ele>257.4</ele>
        <time>2019-07-11T05:26:19Z</time>
      </trkpt>
      <trkpt lat="39.5719930" lon="-7.7009160">
        <ele>257.6</ele>
        <time>2019-07-11T05:26:22Z</time>
      </trkpt>
      <trkpt lat="39.5719560" lon="-7.7009550">
        <ele>258.4</ele>
        <time>2019-07-11T05:26:24Z</time>
      </trkpt>
      <trkpt lat="39.5719410" lon="-7.7009720">
        <ele>258.8</ele>
        <time>2019-07-11T05:26:25Z</time>
      </trkpt>
      <trkpt lat="39.5718770" lon="-7.7010280">
        <ele>260.0</ele>
        <time>2019-07-11T05:26:29Z</time>
      </trkpt>
      <trkpt lat="39.5718510" lon="-7.7010580">
        <ele>260.4</ele>
        <time>2019-07-11T05:26:31Z</time>
      </trkpt>
      <trkpt lat="39.5718070" lon="-7.7011120">
        <ele>261.0</ele>
        <time>2019-07-11T05:26:34Z</time>
      </trkpt>
      <trkpt lat="39.5717650" lon="-7.7011680">
        <ele>261.2</ele>
        <time>2019-07-11T05:26:37Z</time>
      </trkpt>
      <trkpt lat="39.5717500" lon="-7.7011870">
        <ele>261.6</ele>
        <time>2019-07-11T05:26:38Z</time>
      </trkpt>
      <trkpt lat="39.5717240" lon="-7.7012260">
        <ele>262.2</ele>
        <time>2019-07-11T05:26:40Z</time>
      </trkpt>
      <trkpt lat="39.5716940" lon="-7.7012650">
        <ele>263.2</ele>
        <time>2019-07-11T05:26:44Z</time>
      </trkpt>
      <trkpt lat="39.5716660" lon="-7.7013060">
        <ele>263.6</ele>
        <time>2019-07-11T05:26:52Z</time>
      </trkpt>
      <trkpt lat="39.5716280" lon="-7.7013550">
        <ele>263.8</ele>
        <time>2019-07-11T05:26:55Z</time>
      </trkpt>
      <trkpt lat="39.5715860" lon="-7.7014100">
        <ele>264.6</ele>
        <time>2019-07-11T05:26:58Z</time>
      </trkpt>
      <trkpt lat="39.5715410" lon="-7.7014640">
        <ele>265.6</ele>
        <time>2019-07-11T05:27:01Z</time>
      </trkpt>
      <trkpt lat="39.5715250" lon="-7.7014790">
        <ele>265.8</ele>
        <time>2019-07-11T05:27:02Z</time>
      </trkpt>
      <trkpt lat="39.5714490" lon="-7.7015450">
        <ele>266.8</ele>
        <time>2019-07-11T05:27:07Z</time>
      </trkpt>
      <trkpt lat="39.5714210" lon="-7.7015670">
        <ele>267.6</ele>
        <time>2019-07-11T05:27:09Z</time>
      </trkpt>
      <trkpt lat="39.5714070" lon="-7.7015790">
        <ele>267.8</ele>
        <time>2019-07-11T05:27:10Z</time>
      </trkpt>
      <trkpt lat="39.5713630" lon="-7.7016080">
        <ele>268.4</ele>
        <time>2019-07-11T05:27:13Z</time>
      </trkpt>
      <trkpt lat="39.5713320" lon="-7.7016270">
        <ele>269.0</ele>
        <time>2019-07-11T05:27:15Z</time>
      </trkpt>
      <trkpt lat="39.5713160" lon="-7.7016380">
        <ele>269.4</ele>
        <time>2019-07-11T05:27:16Z</time>
      </trkpt>
      <trkpt lat="39.5712720" lon="-7.7016640">
        <ele>270.2</ele>
        <time>2019-07-11T05:27:19Z</time>
      </trkpt>
      <trkpt lat="39.5712320" lon="-7.7016940">
        <ele>271.4</ele>
        <time>2019-07-11T05:27:22Z</time>
      </trkpt>
      <trkpt lat="39.5712210" lon="-7.7017080">
        <ele>271.6</ele>
        <time>2019-07-11T05:27:23Z</time>
      </trkpt>
      <trkpt lat="39.5711980" lon="-7.7017360">
        <ele>272.0</ele>
        <time>2019-07-11T05:27:25Z</time>
      </trkpt>
      <trkpt lat="39.5711820" lon="-7.7017690">
        <ele>272.8</ele>
        <time>2019-07-11T05:27:27Z</time>
      </trkpt>
      <trkpt lat="39.5711790" lon="-7.7018050">
        <ele>273.4</ele>
        <time>2019-07-11T05:27:29Z</time>
      </trkpt>
      <trkpt lat="39.5711860" lon="-7.7018190">
        <ele>273.6</ele>
        <time>2019-07-11T05:27:30Z</time>
      </trkpt>
      <trkpt lat="39.5712010" lon="-7.7018300">
        <ele>273.8</ele>
        <time>2019-07-11T05:27:31Z</time>
      </trkpt>
      <trkpt lat="39.5712350" lon="-7.7018590">
        <ele>274.2</ele>
        <time>2019-07-11T05:27:33Z</time>
      </trkpt>
      <trkpt lat="39.5713350" lon="-7.7019960">
        <ele>275.0</ele>
        <time>2019-07-11T05:27:39Z</time>
      </trkpt>
      <trkpt lat="39.5713940" lon="-7.7020900">
        <ele>276.0</ele>
        <time>2019-07-11T05:27:43Z</time>
      </trkpt>
      <trkpt lat="39.5714120" lon="-7.7021100">
        <ele>276.2</ele>
        <time>2019-07-11T05:27:44Z</time>
      </trkpt>
      <trkpt lat="39.5714840" lon="-7.7021730">
        <ele>276.8</ele>
        <time>2019-07-11T05:27:48Z</time>
      </trkpt>
      <trkpt lat="39.5715620" lon="-7.7022370">
        <ele>277.8</ele>
        <time>2019-07-11T05:27:52Z</time>
      </trkpt>
      <trkpt lat="39.5715820" lon="-7.7022520">
        <ele>278.0</ele>
        <time>2019-07-11T05:27:53Z</time>
      </trkpt>
      <trkpt lat="39.5716330" lon="-7.7022930">
        <ele>279.0</ele>
        <time>2019-07-11T05:27:56Z</time>
      </trkpt>
      <trkpt lat="39.5716690" lon="-7.7023200">
        <ele>279.6</ele>
        <time>2019-07-11T05:27:58Z</time>
      </trkpt>
      <trkpt lat="39.5717030" lon="-7.7023520">
        <ele>280.4</ele>
        <time>2019-07-11T05:28:00Z</time>
      </trkpt>
      <trkpt lat="39.5717820" lon="-7.7024370">
        <ele>281.4</ele>
        <time>2019-07-11T05:28:05Z</time>
      </trkpt>
      <trkpt lat="39.5718280" lon="-7.7025490">
        <ele>282.6</ele>
        <time>2019-07-11T05:28:09Z</time>
      </trkpt>
      <trkpt lat="39.5718460" lon="-7.7026110">
        <ele>282.8</ele>
        <time>2019-07-11T05:28:11Z</time>
      </trkpt>
      <trkpt lat="39.5718880" lon="-7.7027780">
        <ele>284.0</ele>
        <time>2019-07-11T05:28:17Z</time>
      </trkpt>
      <trkpt lat="39.5719000" lon="-7.7028000">
        <ele>284.2</ele>
        <time>2019-07-11T05:28:18Z</time>
      </trkpt>
      <trkpt lat="39.5719300" lon="-7.7028430">
        <ele>285.0</ele>
        <time>2019-07-11T05:28:20Z</time>
      </trkpt>
      <trkpt lat="39.5720170" lon="-7.7029280">
        <ele>285.8</ele>
        <time>2019-07-11T05:28:24Z</time>
      </trkpt>
      <trkpt lat="39.5720400" lon="-7.7029480">
        <ele>286.0</ele>
        <time>2019-07-11T05:28:25Z</time>
      </trkpt>
      <trkpt lat="39.5722050" lon="-7.7030970">
        <ele>286.6</ele>
        <time>2019-07-11T05:28:32Z</time>
      </trkpt>
      <trkpt lat="39.5722920" lon="-7.7031860">
        <ele>287.2</ele>
        <time>2019-07-11T05:28:36Z</time>
      </trkpt>
      <trkpt lat="39.5723370" lon="-7.7032360">
        <ele>287.2</ele>
        <time>2019-07-11T05:28:38Z</time>
      </trkpt>
      <trkpt lat="39.5724350" lon="-7.7033790">
        <ele>288.2</ele>
        <time>2019-07-11T05:28:43Z</time>
      </trkpt>
      <trkpt lat="39.5724540" lon="-7.7034520">
        <ele>288.4</ele>
        <time>2019-07-11T05:28:45Z</time>
      </trkpt>
      <trkpt lat="39.5724660" lon="-7.7035490">
        <ele>289.4</ele>
        <time>2019-07-11T05:28:48Z</time>
      </trkpt>
      <trkpt lat="39.5724720" lon="-7.7036360">
        <ele>290.6</ele>
        <time>2019-07-11T05:28:51Z</time>
      </trkpt>
      <trkpt lat="39.5724740" lon="-7.7036650">
        <ele>290.8</ele>
        <time>2019-07-11T05:28:52Z</time>
      </trkpt>
      <trkpt lat="39.5724820" lon="-7.7037800">
        <ele>291.6</ele>
        <time>2019-07-11T05:28:56Z</time>
      </trkpt>
      <trkpt lat="39.5724940" lon="-7.7038770">
        <ele>292.4</ele>
        <time>2019-07-11T05:28:59Z</time>
      </trkpt>
      <trkpt lat="39.5724990" lon="-7.7039100">
        <ele>292.8</ele>
        <time>2019-07-11T05:29:00Z</time>
      </trkpt>
      <trkpt lat="39.5725320" lon="-7.7040400">
        <ele>294.0</ele>
        <time>2019-07-11T05:29:04Z</time>
      </trkpt>
      <trkpt lat="39.5725470" lon="-7.7041100">
        <ele>294.2</ele>
        <time>2019-07-11T05:29:06Z</time>
      </trkpt>
      <trkpt lat="39.5725670" lon="-7.7043350">
        <ele>295.0</ele>
        <time>2019-07-11T05:29:12Z</time>
      </trkpt>
      <trkpt lat="39.5725710" lon="-7.7043650">
        <ele>295.0</ele>
        <time>2019-07-11T05:29:13Z</time>
      </trkpt>
      <trkpt lat="39.5725820" lon="-7.7044990">
        <ele>295.2</ele>
        <time>2019-07-11T05:29:17Z</time>
      </trkpt>
      <trkpt lat="39.5725830" lon="-7.7045390">
        <ele>295.2</ele>
        <time>2019-07-11T05:29:18Z</time>
      </trkpt>
      <trkpt lat="39.5725830" lon="-7.7046370">
        <ele>295.0</ele>
        <time>2019-07-11T05:29:20Z</time>
      </trkpt>
      <trkpt lat="39.5725800" lon="-7.7046970">
        <ele>295.0</ele>
        <time>2019-07-11T05:29:21Z</time>
      </trkpt>
      <trkpt lat="39.5725740" lon="-7.7047620">
        <ele>294.8</ele>
        <time>2019-07-11T05:29:22Z</time>
      </trkpt>
      <trkpt lat="39.5725680" lon="-7.7048310">
        <ele>294.4</ele>
        <time>2019-07-11T05:29:23Z</time>
      </trkpt>
      <trkpt lat="39.5725630" lon="-7.7049010">
        <ele>293.8</ele>
        <time>2019-07-11T05:29:24Z</time>
      </trkpt>
      <trkpt lat="39.5725600" lon="-7.7050480">
        <ele>293.4</ele>
        <time>2019-07-11T05:29:26Z</time>
      </trkpt>
      <trkpt lat="39.5725570" lon="-7.7051220">
        <ele>293.2</ele>
        <time>2019-07-11T05:29:27Z</time>
      </trkpt>
      <trkpt lat="39.5725510" lon="-7.7051990">
        <ele>293.2</ele>
        <time>2019-07-11T05:29:28Z</time>
      </trkpt>
      <trkpt lat="39.5725390" lon="-7.7052780">
        <ele>292.8</ele>
        <time>2019-07-11T05:29:29Z</time>
      </trkpt>
      <trkpt lat="39.5725250" lon="-7.7053600">
        <ele>292.4</ele>
        <time>2019-07-11T05:29:30Z</time>
      </trkpt>
      <trkpt lat="39.5725140" lon="-7.7054420">
        <ele>291.8</ele>
        <time>2019-07-11T05:29:31Z</time>
      </trkpt>
      <trkpt lat="39.5725150" lon="-7.7056070">
        <ele>291.4</ele>
        <time>2019-07-11T05:29:33Z</time>
      </trkpt>
      <trkpt lat="39.5725380" lon="-7.7057530">
        <ele>291.4</ele>
        <time>2019-07-11T05:29:35Z</time>
      </trkpt>
      <trkpt lat="39.5725780" lon="-7.7059110">
        <ele>291.8</ele>
        <time>2019-07-11T05:29:38Z</time>
      </trkpt>
      <trkpt lat="39.5726700" lon="-7.7062030">
        <ele>291.2</ele>
        <time>2019-07-11T05:29:43Z</time>
      </trkpt>
      <trkpt lat="39.5727340" lon="-7.7063510">
        <ele>290.6</ele>
        <time>2019-07-11T05:29:45Z</time>
      </trkpt>
      <trkpt lat="39.5727640" lon="-7.7064240">
        <ele>290.2</ele>
        <time>2019-07-11T05:29:46Z</time>
      </trkpt>
      <trkpt lat="39.5728230" lon="-7.7065660">
        <ele>288.6</ele>
        <time>2019-07-11T05:29:48Z</time>
      </trkpt>
      <trkpt lat="39.5728520" lon="-7.7066290">
        <ele>288.2</ele>
        <time>2019-07-11T05:29:49Z</time>
      </trkpt>
      <trkpt lat="39.5729140" lon="-7.7067520">
        <ele>287.4</ele>
        <time>2019-07-11T05:29:51Z</time>
      </trkpt>
      <trkpt lat="39.5729750" lon="-7.7068610">
        <ele>286.6</ele>
        <time>2019-07-11T05:29:53Z</time>
      </trkpt>
      <trkpt lat="39.5730020" lon="-7.7069080">
        <ele>286.4</ele>
        <time>2019-07-11T05:29:54Z</time>
      </trkpt>
      <trkpt lat="39.5730270" lon="-7.7069540">
        <ele>286.2</ele>
        <time>2019-07-11T05:29:55Z</time>
      </trkpt>
      <trkpt lat="39.5730840" lon="-7.7070380">
        <ele>285.4</ele>
        <time>2019-07-11T05:29:58Z</time>
      </trkpt>
      <trkpt lat="39.5731000" lon="-7.7070730">
        <ele>284.6</ele>
        <time>2019-07-11T05:30:02Z</time>
      </trkpt>
      <trkpt lat="39.5731080" lon="-7.7071280">
        <ele>284.4</ele>
        <time>2019-07-11T05:30:17Z</time>
      </trkpt>
      <trkpt lat="39.5731140" lon="-7.7071450">
        <ele>284.4</ele>
        <time>2019-07-11T05:30:18Z</time>
      </trkpt>
      <trkpt lat="39.5731270" lon="-7.7072000">
        <ele>284.6</ele>
        <time>2019-07-11T05:30:20Z</time>
      </trkpt>
      <trkpt lat="39.5731360" lon="-7.7072320">
        <ele>284.6</ele>
        <time>2019-07-11T05:30:21Z</time>
      </trkpt>
      <trkpt lat="39.5731450" lon="-7.7072670">
        <ele>284.6</ele>
        <time>2019-07-11T05:30:22Z</time>
      </trkpt>
      <trkpt lat="39.5732170" lon="-7.7074920">
        <ele>284.4</ele>
        <time>2019-07-11T05:30:28Z</time>
      </trkpt>
      <trkpt lat="39.5732830" lon="-7.7076910">
        <ele>284.8</ele>
        <time>2019-07-11T05:30:33Z</time>
      </trkpt>
      <trkpt lat="39.5732930" lon="-7.7077370">
        <ele>284.8</ele>
        <time>2019-07-11T05:30:34Z</time>
      </trkpt>
      <trkpt lat="39.5733100" lon="-7.7079860">
        <ele>284.2</ele>
        <time>2019-07-11T05:30:39Z</time>
      </trkpt>
      <trkpt lat="39.5733070" lon="-7.7080400">
        <ele>283.8</ele>
        <time>2019-07-11T05:30:40Z</time>
      </trkpt>
      <trkpt lat="39.5732910" lon="-7.7081530">
        <ele>283.4</ele>
        <time>2019-07-11T05:30:42Z</time>
      </trkpt>
      <trkpt lat="39.5732490" lon="-7.7082680">
        <ele>283.2</ele>
        <time>2019-07-11T05:30:44Z</time>
      </trkpt>
      <trkpt lat="39.5731930" lon="-7.7083820">
        <ele>282.8</ele>
        <time>2019-07-11T05:30:46Z</time>
      </trkpt>
      <trkpt lat="39.5731670" lon="-7.7084400">
        <ele>282.4</ele>
        <time>2019-07-11T05:30:47Z</time>
      </trkpt>
      <trkpt lat="39.5731560" lon="-7.7085480">
        <ele>282.0</ele>
        <time>2019-07-11T05:30:49Z</time>
      </trkpt>
      <trkpt lat="39.5732030" lon="-7.7086330">
        <ele>281.8</ele>
        <time>2019-07-11T05:30:51Z</time>
      </trkpt>
      <trkpt lat="39.5732380" lon="-7.7086610">
        <ele>281.4</ele>
        <time>2019-07-11T05:30:52Z</time>
      </trkpt>
      <trkpt lat="39.5733330" lon="-7.7087200">
        <ele>281.4</ele>
        <time>2019-07-11T05:30:55Z</time>
      </trkpt>
      <trkpt lat="39.5734090" lon="-7.7087730">
        <ele>281.8</ele>
        <time>2019-07-11T05:30:58Z</time>
      </trkpt>
      <trkpt lat="39.5735530" lon="-7.7089330">
        <ele>282.0</ele>
        <time>2019-07-11T05:31:04Z</time>
      </trkpt>
      <trkpt lat="39.5736340" lon="-7.7090740">
        <ele>282.2</ele>
        <time>2019-07-11T05:31:08Z</time>
      </trkpt>
      <trkpt lat="39.5736630" lon="-7.7091580">
        <ele>282.0</ele>
        <time>2019-07-11T05:31:10Z</time>
      </trkpt>
      <trkpt lat="39.5736770" lon="-7.7092170">
        <ele>281.6</ele>
        <time>2019-07-11T05:31:14Z</time>
      </trkpt>
      <trkpt lat="39.5736760" lon="-7.7092170">
        <ele>281.6</ele>
        <time>2019-07-11T05:31:15Z</time>
      </trkpt>
      <trkpt lat="39.5736750" lon="-7.7092440">
        <ele>281.4</ele>
        <time>2019-07-11T05:32:19Z</time>
      </trkpt>
      <trkpt lat="39.5736800" lon="-7.7092660">
        <ele>281.4</ele>
        <time>2019-07-11T05:32:20Z</time>
      </trkpt>
      <trkpt lat="39.5736850" lon="-7.7092950">
        <ele>281.4</ele>
        <time>2019-07-11T05:32:21Z</time>
      </trkpt>
      <trkpt lat="39.5737160" lon="-7.7094360">
        <ele>281.0</ele>
        <time>2019-07-11T05:32:24Z</time>
      </trkpt>
      <trkpt lat="39.5737340" lon="-7.7094850">
        <ele>280.8</ele>
        <time>2019-07-11T05:32:25Z</time>
      </trkpt>
      <trkpt lat="39.5738400" lon="-7.7097960">
        <ele>280.2</ele>
        <time>2019-07-11T05:32:31Z</time>
      </trkpt>
      <trkpt lat="39.5738910" lon="-7.7100420">
        <ele>279.6</ele>
        <time>2019-07-11T05:32:35Z</time>
      </trkpt>
      <trkpt lat="39.5739220" lon="-7.7101490">
        <ele>280.0</ele>
        <time>2019-07-11T05:32:37Z</time>
      </trkpt>
      <trkpt lat="39.5739460" lon="-7.7102510">
        <ele>280.4</ele>
        <time>2019-07-11T05:32:39Z</time>
      </trkpt>
      <trkpt lat="39.5739580" lon="-7.7103570">
        <ele>280.6</ele>
        <time>2019-07-11T05:32:41Z</time>
      </trkpt>
      <trkpt lat="39.5739630" lon="-7.7104740">
        <ele>280.6</ele>
        <time>2019-07-11T05:32:43Z</time>
      </trkpt>
      <trkpt lat="39.5739820" lon="-7.7109150">
        <ele>279.2</ele>
        <time>2019-07-11T05:32:50Z</time>
      </trkpt>
      <trkpt lat="39.5739800" lon="-7.7110490">
        <ele>279.0</ele>
        <time>2019-07-11T05:32:52Z</time>
      </trkpt>
      <trkpt lat="39.5739640" lon="-7.7113350">
        <ele>278.4</ele>
        <time>2019-07-11T05:32:56Z</time>
      </trkpt>
      <trkpt lat="39.5739580" lon="-7.7114200">
        <ele>277.8</ele>
        <time>2019-07-11T05:32:57Z</time>
      </trkpt>
      <trkpt lat="39.5739570" lon="-7.7115050">
        <ele>277.2</ele>
        <time>2019-07-11T05:32:58Z</time>
      </trkpt>
      <trkpt lat="39.5739900" lon="-7.7116550">
        <ele>276.8</ele>
        <time>2019-07-11T05:33:00Z</time>
      </trkpt>
      <trkpt lat="39.5740460" lon="-7.7117540">
        <ele>276.8</ele>
        <time>2019-07-11T05:33:02Z</time>
      </trkpt>
      <trkpt lat="39.5740930" lon="-7.7118340">
        <ele>277.0</ele>
        <time>2019-07-11T05:33:04Z</time>
      </trkpt>
      <trkpt lat="39.5741300" lon="-7.7119190">
        <ele>277.4</ele>
        <time>2019-07-11T05:33:06Z</time>
      </trkpt>
      <trkpt lat="39.5741540" lon="-7.7119970">
        <ele>277.8</ele>
        <time>2019-07-11T05:33:08Z</time>
      </trkpt>
      <trkpt lat="39.5741740" lon="-7.7120760">
        <ele>278.6</ele>
        <time>2019-07-11T05:33:10Z</time>
      </trkpt>
      <trkpt lat="39.5741860" lon="-7.7121190">
        <ele>278.8</ele>
        <time>2019-07-11T05:33:11Z</time>
      </trkpt>
      <trkpt lat="39.5742330" lon="-7.7122560">
        <ele>279.6</ele>
        <time>2019-07-11T05:33:14Z</time>
      </trkpt>
      <trkpt lat="39.5742760" lon="-7.7123510">
        <ele>279.6</ele>
        <time>2019-07-11T05:33:16Z</time>
      </trkpt>
      <trkpt lat="39.5743870" lon="-7.7126660">
        <ele>279.6</ele>
        <time>2019-07-11T05:33:22Z</time>
      </trkpt>
      <trkpt lat="39.5744670" lon="-7.7128400">
        <ele>279.2</ele>
        <time>2019-07-11T05:33:25Z</time>
      </trkpt>
      <trkpt lat="39.5745130" lon="-7.7129320">
        <ele>279.2</ele>
        <time>2019-07-11T05:33:27Z</time>
      </trkpt>
      <trkpt lat="39.5746010" lon="-7.7131080">
        <ele>280.0</ele>
        <time>2019-07-11T05:33:32Z</time>
      </trkpt>
      <trkpt lat="39.5746130" lon="-7.7131340">
        <ele>280.4</ele>
        <time>2019-07-11T05:33:33Z</time>
      </trkpt>
      <trkpt lat="39.5746400" lon="-7.7131830">
        <ele>281.2</ele>
        <time>2019-07-11T05:33:35Z</time>
      </trkpt>
      <trkpt lat="39.5746720" lon="-7.7132270">
        <ele>282.0</ele>
        <time>2019-07-11T05:33:37Z</time>
      </trkpt>
      <trkpt lat="39.5746870" lon="-7.7132520">
        <ele>282.4</ele>
        <time>2019-07-11T05:33:38Z</time>
      </trkpt>
      <trkpt lat="39.5747030" lon="-7.7132770">
        <ele>282.6</ele>
        <time>2019-07-11T05:33:39Z</time>
      </trkpt>
      <trkpt lat="39.5747350" lon="-7.7133220">
        <ele>283.2</ele>
        <time>2019-07-11T05:33:41Z</time>
      </trkpt>
      <trkpt lat="39.5747500" lon="-7.7133400">
        <ele>283.6</ele>
        <time>2019-07-11T05:33:42Z</time>
      </trkpt>
      <trkpt lat="39.5747930" lon="-7.7134100">
        <ele>284.6</ele>
        <time>2019-07-11T05:33:45Z</time>
      </trkpt>
      <trkpt lat="39.5748250" lon="-7.7134610">
        <ele>285.4</ele>
        <time>2019-07-11T05:33:47Z</time>
      </trkpt>
      <trkpt lat="39.5748420" lon="-7.7134870">
        <ele>285.8</ele>
        <time>2019-07-11T05:33:48Z</time>
      </trkpt>
      <trkpt lat="39.5748930" lon="-7.7135470">
        <ele>286.6</ele>
        <time>2019-07-11T05:33:51Z</time>
      </trkpt>
      <trkpt lat="39.5749110" lon="-7.7135680">
        <ele>287.0</ele>
        <time>2019-07-11T05:33:52Z</time>
      </trkpt>
      <trkpt lat="39.5749480" lon="-7.7136070">
        <ele>287.4</ele>
        <time>2019-07-11T05:33:54Z</time>
      </trkpt>
      <trkpt lat="39.5749740" lon="-7.7136380">
        <ele>288.0</ele>
        <time>2019-07-11T05:33:56Z</time>
      </trkpt>
      <trkpt lat="39.5749850" lon="-7.7136690">
        <ele>288.8</ele>
        <time>2019-07-11T05:33:59Z</time>
      </trkpt>
      <trkpt lat="39.5749950" lon="-7.7136870">
        <ele>289.2</ele>
        <time>2019-07-11T05:34:01Z</time>
      </trkpt>
      <trkpt lat="39.5750310" lon="-7.7137380">
        <ele>289.8</ele>
        <time>2019-07-11T05:34:05Z</time>
      </trkpt>
      <trkpt lat="39.5750820" lon="-7.7138120">
        <ele>290.4</ele>
        <time>2019-07-11T05:34:09Z</time>
      </trkpt>
      <trkpt lat="39.5751190" lon="-7.7138770">
        <ele>291.0</ele>
        <time>2019-07-11T05:34:12Z</time>
      </trkpt>
      <trkpt lat="39.5751500" lon="-7.7139470">
        <ele>291.6</ele>
        <time>2019-07-11T05:34:15Z</time>
      </trkpt>
      <trkpt lat="39.5751710" lon="-7.7140180">
        <ele>292.4</ele>
        <time>2019-07-11T05:34:18Z</time>
      </trkpt>
      <trkpt lat="39.5752040" lon="-7.7140530">
        <ele>292.6</ele>
        <time>2019-07-11T05:34:20Z</time>
      </trkpt>
      <trkpt lat="39.5752580" lon="-7.7140690">
        <ele>293.0</ele>
        <time>2019-07-11T05:34:22Z</time>
      </trkpt>
      <trkpt lat="39.5754900" lon="-7.7140870">
        <ele>292.6</ele>
        <time>2019-07-11T05:34:28Z</time>
      </trkpt>
      <trkpt lat="39.5756190" lon="-7.7141000">
        <ele>292.2</ele>
        <time>2019-07-11T05:34:31Z</time>
      </trkpt>
      <trkpt lat="39.5757060" lon="-7.7141090">
        <ele>292.2</ele>
        <time>2019-07-11T05:34:33Z</time>
      </trkpt>
      <trkpt lat="39.5757490" lon="-7.7141140">
        <ele>292.0</ele>
        <time>2019-07-11T05:34:34Z</time>
      </trkpt>
      <trkpt lat="39.5758320" lon="-7.7141210">
        <ele>292.0</ele>
        <time>2019-07-11T05:34:36Z</time>
      </trkpt>
      <trkpt lat="39.5759180" lon="-7.7141280">
        <ele>292.0</ele>
        <time>2019-07-11T05:34:38Z</time>
      </trkpt>
      <trkpt lat="39.5760060" lon="-7.7141440">
        <ele>292.0</ele>
        <time>2019-07-11T05:34:40Z</time>
      </trkpt>
      <trkpt lat="39.5761330" lon="-7.7141980">
        <ele>292.2</ele>
        <time>2019-07-11T05:34:43Z</time>
      </trkpt>
      <trkpt lat="39.5761730" lon="-7.7142210">
        <ele>292.4</ele>
        <time>2019-07-11T05:34:44Z</time>
      </trkpt>
      <trkpt lat="39.5762080" lon="-7.7142500">
        <ele>292.2</ele>
        <time>2019-07-11T05:34:45Z</time>
      </trkpt>
      <trkpt lat="39.5762690" lon="-7.7143260">
        <ele>292.2</ele>
        <time>2019-07-11T05:34:47Z</time>
      </trkpt>
      <trkpt lat="39.5762950" lon="-7.7143690">
        <ele>292.2</ele>
        <time>2019-07-11T05:34:48Z</time>
      </trkpt>
      <trkpt lat="39.5763380" lon="-7.7144640">
        <ele>292.2</ele>
        <time>2019-07-11T05:34:50Z</time>
      </trkpt>
      <trkpt lat="39.5763560" lon="-7.7145150">
        <ele>292.4</ele>
        <time>2019-07-11T05:34:51Z</time>
      </trkpt>
      <trkpt lat="39.5763870" lon="-7.7146210">
        <ele>292.4</ele>
        <time>2019-07-11T05:34:53Z</time>
      </trkpt>
      <trkpt lat="39.5764170" lon="-7.7147290">
        <ele>292.6</ele>
        <time>2019-07-11T05:34:55Z</time>
      </trkpt>
      <trkpt lat="39.5764590" lon="-7.7148950">
        <ele>292.6</ele>
        <time>2019-07-11T05:34:58Z</time>
      </trkpt>
      <trkpt lat="39.5765150" lon="-7.7150560">
        <ele>292.6</ele>
        <time>2019-07-11T05:35:01Z</time>
      </trkpt>
      <trkpt lat="39.5765640" lon="-7.7151610">
        <ele>292.6</ele>
        <time>2019-07-11T05:35:03Z</time>
      </trkpt>
      <trkpt lat="39.5766280" lon="-7.7152620">
        <ele>292.4</ele>
        <time>2019-07-11T05:35:05Z</time>
      </trkpt>
      <trkpt lat="39.5766680" lon="-7.7153100">
        <ele>292.4</ele>
        <time>2019-07-11T05:35:06Z</time>
      </trkpt>
      <trkpt lat="39.5767610" lon="-7.7154080">
        <ele>292.0</ele>
        <time>2019-07-11T05:35:08Z</time>
      </trkpt>
      <trkpt lat="39.5768600" lon="-7.7155210">
        <ele>291.2</ele>
        <time>2019-07-11T05:35:10Z</time>
      </trkpt>
      <trkpt lat="39.5769110" lon="-7.7155830">
        <ele>290.8</ele>
        <time>2019-07-11T05:35:11Z</time>
      </trkpt>
      <trkpt lat="39.5770220" lon="-7.7157100">
        <ele>290.0</ele>
        <time>2019-07-11T05:35:13Z</time>
      </trkpt>
      <trkpt lat="39.5771400" lon="-7.7158420">
        <ele>289.2</ele>
        <time>2019-07-11T05:35:15Z</time>
      </trkpt>
      <trkpt lat="39.5772010" lon="-7.7159090">
        <ele>289.0</ele>
        <time>2019-07-11T05:35:16Z</time>
      </trkpt>
      <trkpt lat="39.5772610" lon="-7.7159770">
        <ele>288.6</ele>
        <time>2019-07-11T05:35:17Z</time>
      </trkpt>
      <trkpt lat="39.5774320" lon="-7.7161840">
        <ele>288.0</ele>
        <time>2019-07-11T05:35:20Z</time>
      </trkpt>
      <trkpt lat="39.5774820" lon="-7.7162580">
        <ele>287.8</ele>
        <time>2019-07-11T05:35:21Z</time>
      </trkpt>
      <trkpt lat="39.5775540" lon="-7.7163790">
        <ele>287.4</ele>
        <time>2019-07-11T05:35:23Z</time>
      </trkpt>
      <trkpt lat="39.5775900" lon="-7.7164440">
        <ele>287.0</ele>
        <time>2019-07-11T05:35:26Z</time>
      </trkpt>
      <trkpt lat="39.5775580" lon="-7.7164370">
        <ele>286.8</ele>
        <time>2019-07-11T05:35:29Z</time>
      </trkpt>
      <trkpt lat="39.5775430" lon="-7.7163930">
        <ele>286.8</ele>
        <time>2019-07-11T05:35:31Z</time>
      </trkpt>
      <trkpt lat="39.5775060" lon="-7.7163490">
        <ele>286.6</ele>
        <time>2019-07-11T05:35:34Z</time>
      </trkpt>
      <trkpt lat="39.5774680" lon="-7.7164020">
        <ele>286.6</ele>
        <time>2019-07-11T05:35:37Z</time>
      </trkpt>
      <trkpt lat="39.5774780" lon="-7.7164890">
        <ele>286.2</ele>
        <time>2019-07-11T05:35:42Z</time>
      </trkpt>
      <trkpt lat="39.5774740" lon="-7.7164950">
        <ele>286.0</ele>
        <time>2019-07-11T05:35:44Z</time>
      </trkpt>
      <trkpt lat="39.5774950" lon="-7.7165250">
        <ele>286.2</ele>
        <time>2019-07-11T05:35:54Z</time>
      </trkpt>
      <trkpt lat="39.5775040" lon="-7.7165360">
        <ele>286.2</ele>
        <time>2019-07-11T05:35:55Z</time>
      </trkpt>
      <trkpt lat="39.5775180" lon="-7.7165620">
        <ele>286.2</ele>
        <time>2019-07-11T05:35:57Z</time>
      </trkpt>
      <trkpt lat="39.5775360" lon="-7.7166550">
        <ele>286.2</ele>
        <time>2019-07-11T05:36:01Z</time>
      </trkpt>
      <trkpt lat="39.5775430" lon="-7.7168700">
        <ele>286.2</ele>
        <time>2019-07-11T05:36:07Z</time>
      </trkpt>
      <trkpt lat="39.5774870" lon="-7.7171230">
        <ele>285.8</ele>
        <time>2019-07-11T05:36:12Z</time>
      </trkpt>
      <trkpt lat="39.5774660" lon="-7.7171830">
        <ele>285.6</ele>
        <time>2019-07-11T05:36:13Z</time>
      </trkpt>
      <trkpt lat="39.5773640" lon="-7.7174000">
        <ele>284.4</ele>
        <time>2019-07-11T05:36:17Z</time>
      </trkpt>
      <trkpt lat="39.5773420" lon="-7.7174510">
        <ele>284.2</ele>
        <time>2019-07-11T05:36:18Z</time>
      </trkpt>
      <trkpt lat="39.5772780" lon="-7.7177240">
        <ele>283.2</ele>
        <time>2019-07-11T05:36:23Z</time>
      </trkpt>
      <trkpt lat="39.5772570" lon="-7.7178220">
        <ele>283.2</ele>
        <time>2019-07-11T05:36:25Z</time>
      </trkpt>
      <trkpt lat="39.5772390" lon="-7.7179100">
        <ele>283.4</ele>
        <time>2019-07-11T05:36:27Z</time>
      </trkpt>
      <trkpt lat="39.5772060" lon="-7.7180180">
        <ele>284.0</ele>
        <time>2019-07-11T05:36:30Z</time>
      </trkpt>
      <trkpt lat="39.5771730" lon="-7.7181310">
        <ele>284.6</ele>
        <time>2019-07-11T05:36:33Z</time>
      </trkpt>
      <trkpt lat="39.5771390" lon="-7.7182500">
        <ele>285.0</ele>
        <time>2019-07-11T05:36:36Z</time>
      </trkpt>
      <trkpt lat="39.5771060" lon="-7.7183750">
        <ele>285.2</ele>
        <time>2019-07-11T05:36:39Z</time>
      </trkpt>
      <trkpt lat="39.5770690" lon="-7.7184960">
        <ele>285.2</ele>
        <time>2019-07-11T05:36:42Z</time>
      </trkpt>
      <trkpt lat="39.5770600" lon="-7.7185370">
        <ele>285.2</ele>
        <time>2019-07-11T05:36:43Z</time>
      </trkpt>
      <trkpt lat="39.5770310" lon="-7.7186610">
        <ele>285.6</ele>
        <time>2019-07-11T05:36:46Z</time>
      </trkpt>
      <trkpt lat="39.5769920" lon="-7.7187660">
        <ele>285.4</ele>
        <time>2019-07-11T05:36:49Z</time>
      </trkpt>
      <trkpt lat="39.5769740" lon="-7.7188000">
        <ele>285.6</ele>
        <time>2019-07-11T05:36:50Z</time>
      </trkpt>
      <trkpt lat="39.5768960" lon="-7.7189810">
        <ele>286.6</ele>
        <time>2019-07-11T05:36:56Z</time>
      </trkpt>
      <trkpt lat="39.5768830" lon="-7.7190130">
        <ele>286.8</ele>
        <time>2019-07-11T05:36:57Z</time>
      </trkpt>
      <trkpt lat="39.5767910" lon="-7.7192300">
        <ele>287.2</ele>
        <time>2019-07-11T05:37:05Z</time>
      </trkpt>
      <trkpt lat="39.5767910" lon="-7.7192310">
        <ele>287.2</ele>
        <time>2019-07-11T05:37:06Z</time>
      </trkpt>
      <trkpt lat="39.5767730" lon="-7.7192740">
        <ele>287.6</ele>
        <time>2019-07-11T05:37:16Z</time>
      </trkpt>
      <trkpt lat="39.5767640" lon="-7.7192920">
        <ele>287.6</ele>
        <time>2019-07-11T05:37:17Z</time>
      </trkpt>
      <trkpt lat="39.5767540" lon="-7.7193150">
        <ele>287.6</ele>
        <time>2019-07-11T05:37:18Z</time>
      </trkpt>
      <trkpt lat="39.5767450" lon="-7.7193400">
        <ele>287.6</ele>
        <time>2019-07-11T05:37:19Z</time>
      </trkpt>
      <trkpt lat="39.5766600" lon="-7.7195190">
        <ele>287.6</ele>
        <time>2019-07-11T05:37:25Z</time>
      </trkpt>
      <trkpt lat="39.5765590" lon="-7.7197510">
        <ele>288.0</ele>
        <time>2019-07-11T05:37:32Z</time>
      </trkpt>
      <trkpt lat="39.5764340" lon="-7.7200320">
        <ele>288.4</ele>
        <time>2019-07-11T05:37:40Z</time>
      </trkpt>
      <trkpt lat="39.5763040" lon="-7.7203260">
        <ele>288.2</ele>
        <time>2019-07-11T05:37:48Z</time>
      </trkpt>
      <trkpt lat="39.5762640" lon="-7.7204350">
        <ele>288.6</ele>
        <time>2019-07-11T05:37:51Z</time>
      </trkpt>
      <trkpt lat="39.5762000" lon="-7.7206340">
        <ele>288.6</ele>
        <time>2019-07-11T05:37:56Z</time>
      </trkpt>
      <trkpt lat="39.5761800" lon="-7.7207340">
        <ele>288.2</ele>
        <time>2019-07-11T05:37:58Z</time>
      </trkpt>
      <trkpt lat="39.5761720" lon="-7.7208490">
        <ele>287.8</ele>
        <time>2019-07-11T05:38:00Z</time>
      </trkpt>
      <trkpt lat="39.5761620" lon="-7.7209120">
        <ele>287.6</ele>
        <time>2019-07-11T05:38:01Z</time>
      </trkpt>
      <trkpt lat="39.5761480" lon="-7.7209760">
        <ele>287.4</ele>
        <time>2019-07-11T05:38:02Z</time>
      </trkpt>
      <trkpt lat="39.5760960" lon="-7.7212350">
        <ele>286.6</ele>
        <time>2019-07-11T05:38:06Z</time>
      </trkpt>
      <trkpt lat="39.5760900" lon="-7.7212950">
        <ele>286.2</ele>
        <time>2019-07-11T05:38:07Z</time>
      </trkpt>
      <trkpt lat="39.5760850" lon="-7.7214720">
        <ele>286.0</ele>
        <time>2019-07-11T05:38:11Z</time>
      </trkpt>
      <trkpt lat="39.5760740" lon="-7.7216690">
        <ele>286.8</ele>
        <time>2019-07-11T05:38:17Z</time>
      </trkpt>
      <trkpt lat="39.5759940" lon="-7.7219160">
        <ele>287.4</ele>
        <time>2019-07-11T05:38:24Z</time>
      </trkpt>
      <trkpt lat="39.5759330" lon="-7.7220770">
        <ele>287.6</ele>
        <time>2019-07-11T05:38:28Z</time>
      </trkpt>
      <trkpt lat="39.5758900" lon="-7.7221930">
        <ele>288.0</ele>
        <time>2019-07-11T05:38:31Z</time>
      </trkpt>
      <trkpt lat="39.5758130" lon="-7.7223950">
        <ele>288.4</ele>
        <time>2019-07-11T05:38:36Z</time>
      </trkpt>
      <trkpt lat="39.5757960" lon="-7.7224400">
        <ele>288.6</ele>
        <time>2019-07-11T05:38:37Z</time>
      </trkpt>
      <trkpt lat="39.5757560" lon="-7.7225310">
        <ele>288.8</ele>
        <time>2019-07-11T05:38:39Z</time>
      </trkpt>
      <trkpt lat="39.5756340" lon="-7.7227990">
        <ele>288.6</ele>
        <time>2019-07-11T05:38:44Z</time>
      </trkpt>
      <trkpt lat="39.5755800" lon="-7.7229150">
        <ele>288.4</ele>
        <time>2019-07-11T05:38:46Z</time>
      </trkpt>
      <trkpt lat="39.5754810" lon="-7.7231600">
        <ele>287.6</ele>
        <time>2019-07-11T05:38:50Z</time>
      </trkpt>
      <trkpt lat="39.5753510" lon="-7.7235270">
        <ele>287.4</ele>
        <time>2019-07-11T05:38:56Z</time>
      </trkpt>
      <trkpt lat="39.5753180" lon="-7.7236460">
        <ele>286.8</ele>
        <time>2019-07-11T05:38:58Z</time>
      </trkpt>
      <trkpt lat="39.5752960" lon="-7.7237630">
        <ele>286.6</ele>
        <time>2019-07-11T05:39:00Z</time>
      </trkpt>
      <trkpt lat="39.5752910" lon="-7.7238210">
        <ele>286.6</ele>
        <time>2019-07-11T05:39:01Z</time>
      </trkpt>
      <trkpt lat="39.5752890" lon="-7.7238800">
        <ele>286.4</ele>
        <time>2019-07-11T05:39:02Z</time>
      </trkpt>
      <trkpt lat="39.5752800" lon="-7.7240540">
        <ele>286.6</ele>
        <time>2019-07-11T05:39:05Z</time>
      </trkpt>
      <trkpt lat="39.5752790" lon="-7.7241710">
        <ele>286.4</ele>
        <time>2019-07-11T05:39:07Z</time>
      </trkpt>
      <trkpt lat="39.5752860" lon="-7.7242910">
        <ele>286.6</ele>
        <time>2019-07-11T05:39:09Z</time>
      </trkpt>
      <trkpt lat="39.5752870" lon="-7.7244720">
        <ele>287.0</ele>
        <time>2019-07-11T05:39:12Z</time>
      </trkpt>
      <trkpt lat="39.5753090" lon="-7.7246390">
        <ele>287.2</ele>
        <time>2019-07-11T05:39:15Z</time>
      </trkpt>
      <trkpt lat="39.5753330" lon="-7.7247440">
        <ele>287.2</ele>
        <time>2019-07-11T05:39:17Z</time>
      </trkpt>
      <trkpt lat="39.5753940" lon="-7.7249370">
        <ele>287.2</ele>
        <time>2019-07-11T05:39:21Z</time>
      </trkpt>
      <trkpt lat="39.5754800" lon="-7.7252930">
        <ele>287.4</ele>
        <time>2019-07-11T05:39:28Z</time>
      </trkpt>
      <trkpt lat="39.5754990" lon="-7.7254370">
        <ele>287.4</ele>
        <time>2019-07-11T05:39:31Z</time>
      </trkpt>
      <trkpt lat="39.5755130" lon="-7.7255410">
        <ele>287.4</ele>
        <time>2019-07-11T05:39:33Z</time>
      </trkpt>
      <trkpt lat="39.5755420" lon="-7.7257880">
        <ele>287.2</ele>
        <time>2019-07-11T05:39:37Z</time>
      </trkpt>
      <trkpt lat="39.5755480" lon="-7.7259190">
        <ele>287.0</ele>
        <time>2019-07-11T05:39:39Z</time>
      </trkpt>
      <trkpt lat="39.5755700" lon="-7.7264560">
        <ele>287.0</ele>
        <time>2019-07-11T05:39:47Z</time>
      </trkpt>
      <trkpt lat="39.5755590" lon="-7.7268610">
        <ele>286.8</ele>
        <time>2019-07-11T05:39:53Z</time>
      </trkpt>
      <trkpt lat="39.5754840" lon="-7.7273280">
        <ele>286.6</ele>
        <time>2019-07-11T05:40:00Z</time>
      </trkpt>
      <trkpt lat="39.5754750" lon="-7.7273920">
        <ele>286.6</ele>
        <time>2019-07-11T05:40:01Z</time>
      </trkpt>
      <trkpt lat="39.5754670" lon="-7.7274570">
        <ele>286.4</ele>
        <time>2019-07-11T05:40:02Z</time>
      </trkpt>
      <trkpt lat="39.5754560" lon="-7.7275870">
        <ele>286.4</ele>
        <time>2019-07-11T05:40:04Z</time>
      </trkpt>
      <trkpt lat="39.5754350" lon="-7.7277170">
        <ele>286.4</ele>
        <time>2019-07-11T05:40:06Z</time>
      </trkpt>
      <trkpt lat="39.5753410" lon="-7.7280730">
        <ele>286.4</ele>
        <time>2019-07-11T05:40:12Z</time>
      </trkpt>
      <trkpt lat="39.5751130" lon="-7.7285410">
        <ele>286.6</ele>
        <time>2019-07-11T05:40:21Z</time>
      </trkpt>
      <trkpt lat="39.5750860" lon="-7.7285860">
        <ele>286.6</ele>
        <time>2019-07-11T05:40:22Z</time>
      </trkpt>
      <trkpt lat="39.5750320" lon="-7.7286810">
        <ele>286.8</ele>
        <time>2019-07-11T05:40:24Z</time>
      </trkpt>
      <trkpt lat="39.5749530" lon="-7.7288340">
        <ele>287.0</ele>
        <time>2019-07-11T05:40:27Z</time>
      </trkpt>
      <trkpt lat="39.5747280" lon="-7.7292750">
        <ele>286.2</ele>
        <time>2019-07-11T05:40:35Z</time>
      </trkpt>
      <trkpt lat="39.5746340" lon="-7.7295180">
        <ele>286.0</ele>
        <time>2019-07-11T05:40:39Z</time>
      </trkpt>
      <trkpt lat="39.5745780" lon="-7.7297070">
        <ele>286.0</ele>
        <time>2019-07-11T05:40:42Z</time>
      </trkpt>
      <trkpt lat="39.5744450" lon="-7.7303320">
        <ele>285.4</ele>
        <time>2019-07-11T05:40:51Z</time>
      </trkpt>
      <trkpt lat="39.5744180" lon="-7.7304750">
        <ele>285.2</ele>
        <time>2019-07-11T05:40:53Z</time>
      </trkpt>
      <trkpt lat="39.5743820" lon="-7.7307610">
        <ele>284.6</ele>
        <time>2019-07-11T05:40:57Z</time>
      </trkpt>
      <trkpt lat="39.5743780" lon="-7.7308320">
        <ele>284.2</ele>
        <time>2019-07-11T05:40:58Z</time>
      </trkpt>
      <trkpt lat="39.5743800" lon="-7.7309710">
        <ele>284.2</ele>
        <time>2019-07-11T05:41:00Z</time>
      </trkpt>
      <trkpt lat="39.5743960" lon="-7.7311040">
        <ele>284.2</ele>
        <time>2019-07-11T05:41:02Z</time>
      </trkpt>
      <trkpt lat="39.5744080" lon="-7.7311690">
        <ele>284.0</ele>
        <time>2019-07-11T05:41:03Z</time>
      </trkpt>
      <trkpt lat="39.5744550" lon="-7.7314450">
        <ele>283.8</ele>
        <time>2019-07-11T05:41:07Z</time>
      </trkpt>
      <trkpt lat="39.5744950" lon="-7.7317280">
        <ele>283.6</ele>
        <time>2019-07-11T05:41:11Z</time>
      </trkpt>
      <trkpt lat="39.5745050" lon="-7.7317980">
        <ele>283.6</ele>
        <time>2019-07-11T05:41:12Z</time>
      </trkpt>
      <trkpt lat="39.5745340" lon="-7.7320160">
        <ele>283.2</ele>
        <time>2019-07-11T05:41:15Z</time>
      </trkpt>
      <trkpt lat="39.5745750" lon="-7.7323790">
        <ele>283.0</ele>
        <time>2019-07-11T05:41:20Z</time>
      </trkpt>
      <trkpt lat="39.5745680" lon="-7.7328800">
        <ele>282.2</ele>
        <time>2019-07-11T05:41:27Z</time>
      </trkpt>
      <trkpt lat="39.5745590" lon="-7.7329490">
        <ele>282.0</ele>
        <time>2019-07-11T05:41:28Z</time>
      </trkpt>
      <trkpt lat="39.5744800" lon="-7.7332810">
        <ele>281.4</ele>
        <time>2019-07-11T05:41:33Z</time>
      </trkpt>
      <trkpt lat="39.5744600" lon="-7.7333420">
        <ele>281.4</ele>
        <time>2019-07-11T05:41:34Z</time>
      </trkpt>
      <trkpt lat="39.5744380" lon="-7.7333980">
        <ele>281.6</ele>
        <time>2019-07-11T05:41:35Z</time>
      </trkpt>
      <trkpt lat="39.5743530" lon="-7.7336040">
        <ele>282.0</ele>
        <time>2019-07-11T05:41:39Z</time>
      </trkpt>
      <trkpt lat="39.5742340" lon="-7.7338440">
        <ele>282.8</ele>
        <time>2019-07-11T05:41:45Z</time>
      </trkpt>
      <trkpt lat="39.5742120" lon="-7.7338790">
        <ele>283.0</ele>
        <time>2019-07-11T05:41:46Z</time>
      </trkpt>
      <trkpt lat="39.5741660" lon="-7.7339470">
        <ele>283.4</ele>
        <time>2019-07-11T05:41:48Z</time>
      </trkpt>
      <trkpt lat="39.5740640" lon="-7.7340880">
        <ele>283.6</ele>
        <time>2019-07-11T05:41:52Z</time>
      </trkpt>
      <trkpt lat="39.5739210" lon="-7.7342720">
        <ele>283.8</ele>
        <time>2019-07-11T05:41:57Z</time>
      </trkpt>
      <trkpt lat="39.5738630" lon="-7.7343490">
        <ele>283.8</ele>
        <time>2019-07-11T05:41:59Z</time>
      </trkpt>
      <trkpt lat="39.5738030" lon="-7.7344230">
        <ele>283.6</ele>
        <time>2019-07-11T05:42:01Z</time>
      </trkpt>
      <trkpt lat="39.5737140" lon="-7.7345380">
        <ele>283.8</ele>
        <time>2019-07-11T05:42:04Z</time>
      </trkpt>
      <trkpt lat="39.5735950" lon="-7.7347020">
        <ele>284.0</ele>
        <time>2019-07-11T05:42:08Z</time>
      </trkpt>
      <trkpt lat="39.5735650" lon="-7.7347400">
        <ele>284.0</ele>
        <time>2019-07-11T05:42:09Z</time>
      </trkpt>
      <trkpt lat="39.5734190" lon="-7.7349200">
        <ele>285.0</ele>
        <time>2019-07-11T05:42:14Z</time>
      </trkpt>
      <trkpt lat="39.5733710" lon="-7.7349900">
        <ele>285.4</ele>
        <time>2019-07-11T05:42:16Z</time>
      </trkpt>
      <trkpt lat="39.5733030" lon="-7.7350880">
        <ele>286.2</ele>
        <time>2019-07-11T05:42:19Z</time>
      </trkpt>
      <trkpt lat="39.5732040" lon="-7.7352490">
        <ele>287.2</ele>
        <time>2019-07-11T05:42:24Z</time>
      </trkpt>
      <trkpt lat="39.5731850" lon="-7.7352810">
        <ele>287.4</ele>
        <time>2019-07-11T05:42:25Z</time>
      </trkpt>
      <trkpt lat="39.5730520" lon="-7.7355210">
        <ele>288.2</ele>
        <time>2019-07-11T05:42:32Z</time>
      </trkpt>
      <trkpt lat="39.5730090" lon="-7.7355980">
        <ele>288.2</ele>
        <time>2019-07-11T05:42:34Z</time>
      </trkpt>
      <trkpt lat="39.5728680" lon="-7.7359460">
        <ele>288.8</ele>
        <time>2019-07-11T05:42:42Z</time>
      </trkpt>
      <trkpt lat="39.5727510" lon="-7.7361600">
        <ele>289.2</ele>
        <time>2019-07-11T05:42:47Z</time>
      </trkpt>
      <trkpt lat="39.5727240" lon="-7.7362010">
        <ele>289.2</ele>
        <time>2019-07-11T05:42:48Z</time>
      </trkpt>
      <trkpt lat="39.5726680" lon="-7.7362870">
        <ele>289.4</ele>
        <time>2019-07-11T05:42:50Z</time>
      </trkpt>
      <trkpt lat="39.5725640" lon="-7.7364660">
        <ele>289.4</ele>
        <time>2019-07-11T05:42:54Z</time>
      </trkpt>
      <trkpt lat="39.5724090" lon="-7.7366850">
        <ele>289.4</ele>
        <time>2019-07-11T05:42:59Z</time>
      </trkpt>
      <trkpt lat="39.5723360" lon="-7.7367710">
        <ele>289.4</ele>
        <time>2019-07-11T05:43:01Z</time>
      </trkpt>
      <trkpt lat="39.5722110" lon="-7.7369460">
        <ele>289.8</ele>
        <time>2019-07-11T05:43:05Z</time>
      </trkpt>
      <trkpt lat="39.5721540" lon="-7.7370450">
        <ele>289.8</ele>
        <time>2019-07-11T05:43:07Z</time>
      </trkpt>
      <trkpt lat="39.5720560" lon="-7.7371970">
        <ele>289.8</ele>
        <time>2019-07-11T05:43:10Z</time>
      </trkpt>
      <trkpt lat="39.5719460" lon="-7.7373540">
        <ele>289.0</ele>
        <time>2019-07-11T05:43:13Z</time>
      </trkpt>
      <trkpt lat="39.5718710" lon="-7.7374510">
        <ele>288.2</ele>
        <time>2019-07-11T05:43:15Z</time>
      </trkpt>
      <trkpt lat="39.5718320" lon="-7.7375010">
        <ele>287.6</ele>
        <time>2019-07-11T05:43:16Z</time>
      </trkpt>
      <trkpt lat="39.5717130" lon="-7.7376580">
        <ele>286.6</ele>
        <time>2019-07-11T05:43:19Z</time>
      </trkpt>
      <trkpt lat="39.5716450" lon="-7.7377580">
        <ele>285.8</ele>
        <time>2019-07-11T05:43:21Z</time>
      </trkpt>
      <trkpt lat="39.5716160" lon="-7.7378090">
        <ele>285.4</ele>
        <time>2019-07-11T05:43:22Z</time>
      </trkpt>
      <trkpt lat="39.5715290" lon="-7.7379740">
        <ele>283.6</ele>
        <time>2019-07-11T05:43:25Z</time>
      </trkpt>
      <trkpt lat="39.5715040" lon="-7.7380330">
        <ele>282.8</ele>
        <time>2019-07-11T05:43:26Z</time>
      </trkpt>
      <trkpt lat="39.5714820" lon="-7.7380920">
        <ele>282.0</ele>
        <time>2019-07-11T05:43:27Z</time>
      </trkpt>
      <trkpt lat="39.5714620" lon="-7.7381510">
        <ele>281.4</ele>
        <time>2019-07-11T05:43:28Z</time>
      </trkpt>
      <trkpt lat="39.5714380" lon="-7.7382130">
        <ele>281.2</ele>
        <time>2019-07-11T05:43:29Z</time>
      </trkpt>
      <trkpt lat="39.5714110" lon="-7.7382760">
        <ele>280.2</ele>
        <time>2019-07-11T05:43:30Z</time>
      </trkpt>
      <trkpt lat="39.5713830" lon="-7.7383360">
        <ele>279.4</ele>
        <time>2019-07-11T05:43:31Z</time>
      </trkpt>
      <trkpt lat="39.5713530" lon="-7.7383900">
        <ele>278.6</ele>
        <time>2019-07-11T05:43:32Z</time>
      </trkpt>
      <trkpt lat="39.5713230" lon="-7.7384370">
        <ele>278.0</ele>
        <time>2019-07-11T05:43:33Z</time>
      </trkpt>
      <trkpt lat="39.5712970" lon="-7.7384810">
        <ele>277.4</ele>
        <time>2019-07-11T05:43:34Z</time>
      </trkpt>
      <trkpt lat="39.5712290" lon="-7.7386040">
        <ele>275.6</ele>
        <time>2019-07-11T05:43:37Z</time>
      </trkpt>
      <trkpt lat="39.5711860" lon="-7.7386940">
        <ele>274.4</ele>
        <time>2019-07-11T05:43:39Z</time>
      </trkpt>
      <trkpt lat="39.5711150" lon="-7.7388410">
        <ele>273.2</ele>
        <time>2019-07-11T05:43:42Z</time>
      </trkpt>
      <trkpt lat="39.5710770" lon="-7.7389400">
        <ele>272.0</ele>
        <time>2019-07-11T05:43:44Z</time>
      </trkpt>
      <trkpt lat="39.5710420" lon="-7.7390330">
        <ele>271.0</ele>
        <time>2019-07-11T05:43:46Z</time>
      </trkpt>
      <trkpt lat="39.5710240" lon="-7.7390780">
        <ele>270.6</ele>
        <time>2019-07-11T05:43:47Z</time>
      </trkpt>
      <trkpt lat="39.5709990" lon="-7.7391240">
        <ele>270.0</ele>
        <time>2019-07-11T05:43:48Z</time>
      </trkpt>
      <trkpt lat="39.5709640" lon="-7.7391710">
        <ele>269.4</ele>
        <time>2019-07-11T05:43:49Z</time>
      </trkpt>
      <trkpt lat="39.5709210" lon="-7.7392130">
        <ele>269.0</ele>
        <time>2019-07-11T05:43:50Z</time>
      </trkpt>
      <trkpt lat="39.5708380" lon="-7.7392840">
        <ele>268.2</ele>
        <time>2019-07-11T05:43:52Z</time>
      </trkpt>
      <trkpt lat="39.5707660" lon="-7.7393430">
        <ele>266.8</ele>
        <time>2019-07-11T05:43:54Z</time>
      </trkpt>
      <trkpt lat="39.5707250" lon="-7.7393710">
        <ele>266.0</ele>
        <time>2019-07-11T05:43:55Z</time>
      </trkpt>
      <trkpt lat="39.5706790" lon="-7.7394050">
        <ele>265.4</ele>
        <time>2019-07-11T05:43:56Z</time>
      </trkpt>
      <trkpt lat="39.5705310" lon="-7.7395400">
        <ele>264.2</ele>
        <time>2019-07-11T05:43:59Z</time>
      </trkpt>
      <trkpt lat="39.5704230" lon="-7.7397240">
        <ele>263.2</ele>
        <time>2019-07-11T05:44:02Z</time>
      </trkpt>
      <trkpt lat="39.5703910" lon="-7.7397930">
        <ele>262.4</ele>
        <time>2019-07-11T05:44:03Z</time>
      </trkpt>
      <trkpt lat="39.5703600" lon="-7.7398660">
        <ele>262.0</ele>
        <time>2019-07-11T05:44:04Z</time>
      </trkpt>
      <trkpt lat="39.5702800" lon="-7.7400780">
        <ele>261.0</ele>
        <time>2019-07-11T05:44:07Z</time>
      </trkpt>
      <trkpt lat="39.5702300" lon="-7.7402120">
        <ele>260.2</ele>
        <time>2019-07-11T05:44:09Z</time>
      </trkpt>
      <trkpt lat="39.5702060" lon="-7.7402800">
        <ele>260.0</ele>
        <time>2019-07-11T05:44:10Z</time>
      </trkpt>
      <trkpt lat="39.5701660" lon="-7.7404140">
        <ele>259.8</ele>
        <time>2019-07-11T05:44:12Z</time>
      </trkpt>
      <trkpt lat="39.5701370" lon="-7.7406270">
        <ele>259.8</ele>
        <time>2019-07-11T05:44:15Z</time>
      </trkpt>
      <trkpt lat="39.5700990" lon="-7.7408160">
        <ele>259.2</ele>
        <time>2019-07-11T05:44:18Z</time>
      </trkpt>
      <trkpt lat="39.5700770" lon="-7.7408780">
        <ele>258.8</ele>
        <time>2019-07-11T05:44:19Z</time>
      </trkpt>
      <trkpt lat="39.5700140" lon="-7.7410840">
        <ele>257.2</ele>
        <time>2019-07-11T05:44:22Z</time>
      </trkpt>
      <trkpt lat="39.5699630" lon="-7.7412300">
        <ele>256.4</ele>
        <time>2019-07-11T05:44:24Z</time>
      </trkpt>
      <trkpt lat="39.5699030" lon="-7.7413720">
        <ele>255.8</ele>
        <time>2019-07-11T05:44:26Z</time>
      </trkpt>
      <trkpt lat="39.5698030" lon="-7.7415670">
        <ele>254.6</ele>
        <time>2019-07-11T05:44:29Z</time>
      </trkpt>
      <trkpt lat="39.5697730" lon="-7.7416360">
        <ele>254.4</ele>
        <time>2019-07-11T05:44:30Z</time>
      </trkpt>
      <trkpt lat="39.5697370" lon="-7.7417050">
        <ele>254.2</ele>
        <time>2019-07-11T05:44:31Z</time>
      </trkpt>
      <trkpt lat="39.5696410" lon="-7.7418910">
        <ele>253.6</ele>
        <time>2019-07-11T05:44:34Z</time>
      </trkpt>
      <trkpt lat="39.5695440" lon="-7.7420940">
        <ele>252.4</ele>
        <time>2019-07-11T05:44:37Z</time>
      </trkpt>
      <trkpt lat="39.5694870" lon="-7.7422350">
        <ele>251.6</ele>
        <time>2019-07-11T05:44:39Z</time>
      </trkpt>
      <trkpt lat="39.5694570" lon="-7.7423040">
        <ele>251.2</ele>
        <time>2019-07-11T05:44:40Z</time>
      </trkpt>
      <trkpt lat="39.5693290" lon="-7.7426410">
        <ele>250.8</ele>
        <time>2019-07-11T05:44:45Z</time>
      </trkpt>
      <trkpt lat="39.5692770" lon="-7.7427690">
        <ele>250.4</ele>
        <time>2019-07-11T05:44:47Z</time>
      </trkpt>
      <trkpt lat="39.5692210" lon="-7.7428980">
        <ele>250.2</ele>
        <time>2019-07-11T05:44:49Z</time>
      </trkpt>
      <trkpt lat="39.5691970" lon="-7.7429630">
        <ele>250.0</ele>
        <time>2019-07-11T05:44:50Z</time>
      </trkpt>
      <trkpt lat="39.5691820" lon="-7.7430290">
        <ele>249.8</ele>
        <time>2019-07-11T05:44:51Z</time>
      </trkpt>
      <trkpt lat="39.5692040" lon="-7.7432090">
        <ele>249.4</ele>
        <time>2019-07-11T05:44:54Z</time>
      </trkpt>
      <trkpt lat="39.5693020" lon="-7.7434330">
        <ele>249.2</ele>
        <time>2019-07-11T05:44:59Z</time>
      </trkpt>
      <trkpt lat="39.5693110" lon="-7.7434920">
        <ele>249.0</ele>
        <time>2019-07-11T05:45:00Z</time>
      </trkpt>
      <trkpt lat="39.5692940" lon="-7.7436700">
        <ele>247.4</ele>
        <time>2019-07-11T05:45:03Z</time>
      </trkpt>
      <trkpt lat="39.5692620" lon="-7.7438100">
        <ele>246.4</ele>
        <time>2019-07-11T05:45:05Z</time>
      </trkpt>
      <trkpt lat="39.5692470" lon="-7.7438860">
        <ele>246.0</ele>
        <time>2019-07-11T05:45:06Z</time>
      </trkpt>
      <trkpt lat="39.5692280" lon="-7.7440360">
        <ele>245.2</ele>
        <time>2019-07-11T05:45:08Z</time>
      </trkpt>
      <trkpt lat="39.5691800" lon="-7.7444270">
        <ele>244.8</ele>
        <time>2019-07-11T05:45:14Z</time>
      </trkpt>
      <trkpt lat="39.5691530" lon="-7.7445910">
        <ele>245.2</ele>
        <time>2019-07-11T05:45:17Z</time>
      </trkpt>
      <trkpt lat="39.5691320" lon="-7.7447280">
        <ele>245.8</ele>
        <time>2019-07-11T05:45:20Z</time>
      </trkpt>
      <trkpt lat="39.5691110" lon="-7.7448660">
        <ele>246.4</ele>
        <time>2019-07-11T05:45:23Z</time>
      </trkpt>
      <trkpt lat="39.5690900" lon="-7.7450250">
        <ele>246.4</ele>
        <time>2019-07-11T05:45:26Z</time>
      </trkpt>
      <trkpt lat="39.5690650" lon="-7.7451790">
        <ele>246.4</ele>
        <time>2019-07-11T05:45:29Z</time>
      </trkpt>
      <trkpt lat="39.5690420" lon="-7.7453270">
        <ele>246.2</ele>
        <time>2019-07-11T05:45:32Z</time>
      </trkpt>
      <trkpt lat="39.5690240" lon="-7.7454300">
        <ele>246.4</ele>
        <time>2019-07-11T05:45:34Z</time>
      </trkpt>
      <trkpt lat="39.5690210" lon="-7.7454880">
        <ele>246.6</ele>
        <time>2019-07-11T05:45:35Z</time>
      </trkpt>
      <trkpt lat="39.5690170" lon="-7.7457350">
        <ele>246.8</ele>
        <time>2019-07-11T05:45:39Z</time>
      </trkpt>
      <trkpt lat="39.5690150" lon="-7.7457910">
        <ele>247.0</ele>
        <time>2019-07-11T05:45:40Z</time>
      </trkpt>
      <trkpt lat="39.5690170" lon="-7.7459840">
        <ele>247.6</ele>
        <time>2019-07-11T05:45:44Z</time>
      </trkpt>
      <trkpt lat="39.5690190" lon="-7.7460630">
        <ele>248.0</ele>
        <time>2019-07-11T05:45:46Z</time>
      </trkpt>
      <trkpt lat="39.5690210" lon="-7.7460980">
        <ele>248.6</ele>
        <time>2019-07-11T05:45:47Z</time>
      </trkpt>
      <trkpt lat="39.5690250" lon="-7.7462170">
        <ele>249.6</ele>
        <time>2019-07-11T05:45:51Z</time>
      </trkpt>
      <trkpt lat="39.5690260" lon="-7.7462480">
        <ele>249.8</ele>
        <time>2019-07-11T05:45:52Z</time>
      </trkpt>
      <trkpt lat="39.5689990" lon="-7.7463870">
        <ele>250.4</ele>
        <time>2019-07-11T05:45:56Z</time>
      </trkpt>
      <trkpt lat="39.5689810" lon="-7.7464210">
        <ele>250.4</ele>
        <time>2019-07-11T05:45:57Z</time>
      </trkpt>
      <trkpt lat="39.5689180" lon="-7.7465070">
        <ele>250.8</ele>
        <time>2019-07-11T05:46:00Z</time>
      </trkpt>
      <trkpt lat="39.5688360" lon="-7.7466010">
        <ele>251.8</ele>
        <time>2019-07-11T05:46:04Z</time>
      </trkpt>
      <trkpt lat="39.5687390" lon="-7.7467590">
        <ele>252.6</ele>
        <time>2019-07-11T05:46:09Z</time>
      </trkpt>
      <trkpt lat="39.5687240" lon="-7.7467990">
        <ele>252.8</ele>
        <time>2019-07-11T05:46:10Z</time>
      </trkpt>
      <trkpt lat="39.5687120" lon="-7.7468450">
        <ele>252.8</ele>
        <time>2019-07-11T05:46:11Z</time>
      </trkpt>
      <trkpt lat="39.5687100" lon="-7.7469490">
        <ele>252.6</ele>
        <time>2019-07-11T05:46:13Z</time>
      </trkpt>
      <trkpt lat="39.5687190" lon="-7.7470700">
        <ele>252.4</ele>
        <time>2019-07-11T05:46:15Z</time>
      </trkpt>
      <trkpt lat="39.5687320" lon="-7.7473140">
        <ele>251.6</ele>
        <time>2019-07-11T05:46:18Z</time>
      </trkpt>
      <trkpt lat="39.5687570" lon="-7.7474660">
        <ele>251.0</ele>
        <time>2019-07-11T05:46:20Z</time>
      </trkpt>
      <trkpt lat="39.5687960" lon="-7.7476190">
        <ele>250.6</ele>
        <time>2019-07-11T05:46:22Z</time>
      </trkpt>
      <trkpt lat="39.5688520" lon="-7.7478540">
        <ele>250.0</ele>
        <time>2019-07-11T05:46:25Z</time>
      </trkpt>
      <trkpt lat="39.5688710" lon="-7.7479160">
        <ele>249.8</ele>
        <time>2019-07-11T05:46:26Z</time>
      </trkpt>
      <trkpt lat="39.5688900" lon="-7.7479700">
        <ele>249.4</ele>
        <time>2019-07-11T05:46:27Z</time>
      </trkpt>
      <trkpt lat="39.5689110" lon="-7.7480200">
        <ele>249.2</ele>
        <time>2019-07-11T05:46:28Z</time>
      </trkpt>
      <trkpt lat="39.5689620" lon="-7.7481210">
        <ele>248.6</ele>
        <time>2019-07-11T05:46:30Z</time>
      </trkpt>
      <trkpt lat="39.5689980" lon="-7.7481720">
        <ele>248.4</ele>
        <time>2019-07-11T05:46:31Z</time>
      </trkpt>
      <trkpt lat="39.5690830" lon="-7.7482810">
        <ele>247.6</ele>
        <time>2019-07-11T05:46:33Z</time>
      </trkpt>
      <trkpt lat="39.5691260" lon="-7.7483390">
        <ele>247.0</ele>
        <time>2019-07-11T05:46:34Z</time>
      </trkpt>
      <trkpt lat="39.5691610" lon="-7.7484010">
        <ele>246.6</ele>
        <time>2019-07-11T05:46:35Z</time>
      </trkpt>
      <trkpt lat="39.5692060" lon="-7.7485300">
        <ele>246.2</ele>
        <time>2019-07-11T05:46:37Z</time>
      </trkpt>
      <trkpt lat="39.5692180" lon="-7.7488070">
        <ele>246.6</ele>
        <time>2019-07-11T05:46:42Z</time>
      </trkpt>
      <trkpt lat="39.5691720" lon="-7.7489310">
        <ele>247.2</ele>
        <time>2019-07-11T05:46:45Z</time>
      </trkpt>
      <trkpt lat="39.5691220" lon="-7.7490000">
        <ele>247.6</ele>
        <time>2019-07-11T05:46:47Z</time>
      </trkpt>
      <trkpt lat="39.5689650" lon="-7.7491670">
        <ele>248.0</ele>
        <time>2019-07-11T05:46:52Z</time>
      </trkpt>
      <trkpt lat="39.5688750" lon="-7.7492230">
        <ele>247.8</ele>
        <time>2019-07-11T05:46:54Z</time>
      </trkpt>
      <trkpt lat="39.5686850" lon="-7.7492700">
        <ele>247.6</ele>
        <time>2019-07-11T05:46:58Z</time>
      </trkpt>
      <trkpt lat="39.5686440" lon="-7.7492770">
        <ele>247.8</ele>
        <time>2019-07-11T05:46:59Z</time>
      </trkpt>
      <trkpt lat="39.5685710" lon="-7.7493070">
        <ele>248.2</ele>
        <time>2019-07-11T05:47:01Z</time>
      </trkpt>
      <trkpt lat="39.5685130" lon="-7.7493760">
        <ele>248.6</ele>
        <time>2019-07-11T05:47:03Z</time>
      </trkpt>
      <trkpt lat="39.5684950" lon="-7.7494270">
        <ele>248.8</ele>
        <time>2019-07-11T05:47:04Z</time>
      </trkpt>
      <trkpt lat="39.5684560" lon="-7.7496020">
        <ele>248.8</ele>
        <time>2019-07-11T05:47:07Z</time>
      </trkpt>
      <trkpt lat="39.5684380" lon="-7.7496590">
        <ele>248.6</ele>
        <time>2019-07-11T05:47:08Z</time>
      </trkpt>
      <trkpt lat="39.5683730" lon="-7.7498340">
        <ele>248.6</ele>
        <time>2019-07-11T05:47:11Z</time>
      </trkpt>
      <trkpt lat="39.5682870" lon="-7.7500030">
        <ele>248.2</ele>
        <time>2019-07-11T05:47:14Z</time>
      </trkpt>
      <trkpt lat="39.5682270" lon="-7.7501170">
        <ele>247.8</ele>
        <time>2019-07-11T05:47:16Z</time>
      </trkpt>
      <trkpt lat="39.5681530" lon="-7.7503030">
        <ele>247.4</ele>
        <time>2019-07-11T05:47:19Z</time>
      </trkpt>
      <trkpt lat="39.5680960" lon="-7.7504320">
        <ele>247.0</ele>
        <time>2019-07-11T05:47:21Z</time>
      </trkpt>
      <trkpt lat="39.5679950" lon="-7.7506370">
        <ele>245.8</ele>
        <time>2019-07-11T05:47:24Z</time>
      </trkpt>
      <trkpt lat="39.5679640" lon="-7.7507080">
        <ele>245.4</ele>
        <time>2019-07-11T05:47:25Z</time>
      </trkpt>
      <trkpt lat="39.5679370" lon="-7.7507790">
        <ele>245.2</ele>
        <time>2019-07-11T05:47:26Z</time>
      </trkpt>
      <trkpt lat="39.5678860" lon="-7.7510020">
        <ele>244.8</ele>
        <time>2019-07-11T05:47:29Z</time>
      </trkpt>
      <trkpt lat="39.5678780" lon="-7.7510700">
        <ele>244.8</ele>
        <time>2019-07-11T05:47:30Z</time>
      </trkpt>
      <trkpt lat="39.5678770" lon="-7.7512610">
        <ele>244.8</ele>
        <time>2019-07-11T05:47:33Z</time>
      </trkpt>
      <trkpt lat="39.5678750" lon="-7.7514580">
        <ele>244.8</ele>
        <time>2019-07-11T05:47:36Z</time>
      </trkpt>
      <trkpt lat="39.5678530" lon="-7.7517220">
        <ele>244.6</ele>
        <time>2019-07-11T05:47:40Z</time>
      </trkpt>
      <trkpt lat="39.5678300" lon="-7.7518520">
        <ele>244.8</ele>
        <time>2019-07-11T05:47:42Z</time>
      </trkpt>
      <trkpt lat="39.5678200" lon="-7.7519150">
        <ele>244.8</ele>
        <time>2019-07-11T05:47:43Z</time>
      </trkpt>
      <trkpt lat="39.5677730" lon="-7.7522290">
        <ele>245.2</ele>
        <time>2019-07-11T05:47:49Z</time>
      </trkpt>
      <trkpt lat="39.5677570" lon="-7.7523130">
        <ele>245.8</ele>
        <time>2019-07-11T05:47:51Z</time>
      </trkpt>
      <trkpt lat="39.5677440" lon="-7.7523910">
        <ele>246.4</ele>
        <time>2019-07-11T05:47:53Z</time>
      </trkpt>
      <trkpt lat="39.5677330" lon="-7.7524650">
        <ele>246.8</ele>
        <time>2019-07-11T05:47:55Z</time>
      </trkpt>
      <trkpt lat="39.5677280" lon="-7.7525040">
        <ele>247.2</ele>
        <time>2019-07-11T05:47:56Z</time>
      </trkpt>
      <trkpt lat="39.5677080" lon="-7.7526030">
        <ele>248.2</ele>
        <time>2019-07-11T05:47:59Z</time>
      </trkpt>
      <trkpt lat="39.5677000" lon="-7.7526370">
        <ele>248.2</ele>
        <time>2019-07-11T05:48:00Z</time>
      </trkpt>
      <trkpt lat="39.5676860" lon="-7.7527190">
        <ele>248.6</ele>
        <time>2019-07-11T05:48:02Z</time>
      </trkpt>
      <trkpt lat="39.5676500" lon="-7.7529010">
        <ele>248.6</ele>
        <time>2019-07-11T05:48:06Z</time>
      </trkpt>
      <trkpt lat="39.5676170" lon="-7.7530060">
        <ele>248.2</ele>
        <time>2019-07-11T05:48:08Z</time>
      </trkpt>
      <trkpt lat="39.5675770" lon="-7.7530910">
        <ele>247.6</ele>
        <time>2019-07-11T05:48:10Z</time>
      </trkpt>
      <trkpt lat="39.5675540" lon="-7.7531320">
        <ele>247.2</ele>
        <time>2019-07-11T05:48:11Z</time>
      </trkpt>
      <trkpt lat="39.5675220" lon="-7.7531730">
        <ele>246.6</ele>
        <time>2019-07-11T05:48:12Z</time>
      </trkpt>
      <trkpt lat="39.5674860" lon="-7.7532080">
        <ele>246.0</ele>
        <time>2019-07-11T05:48:13Z</time>
      </trkpt>
      <trkpt lat="39.5673850" lon="-7.7532890">
        <ele>245.0</ele>
        <time>2019-07-11T05:48:16Z</time>
      </trkpt>
      <trkpt lat="39.5673430" lon="-7.7533150">
        <ele>244.6</ele>
        <time>2019-07-11T05:48:17Z</time>
      </trkpt>
      <trkpt lat="39.5671770" lon="-7.7533780">
        <ele>243.4</ele>
        <time>2019-07-11T05:48:20Z</time>
      </trkpt>
      <trkpt lat="39.5671150" lon="-7.7533830">
        <ele>242.8</ele>
        <time>2019-07-11T05:48:21Z</time>
      </trkpt>
      <trkpt lat="39.5670510" lon="-7.7533830">
        <ele>242.2</ele>
        <time>2019-07-11T05:48:22Z</time>
      </trkpt>
      <trkpt lat="39.5669400" lon="-7.7533950">
        <ele>241.8</ele>
        <time>2019-07-11T05:48:24Z</time>
      </trkpt>
      <trkpt lat="39.5668970" lon="-7.7534070">
        <ele>241.8</ele>
        <time>2019-07-11T05:48:25Z</time>
      </trkpt>
      <trkpt lat="39.5667430" lon="-7.7535430">
        <ele>242.2</ele>
        <time>2019-07-11T05:48:30Z</time>
      </trkpt>
      <trkpt lat="39.5667130" lon="-7.7535910">
        <ele>242.2</ele>
        <time>2019-07-11T05:48:31Z</time>
      </trkpt>
      <trkpt lat="39.5666520" lon="-7.7537020">
        <ele>242.0</ele>
        <time>2019-07-11T05:48:33Z</time>
      </trkpt>
      <trkpt lat="39.5665900" lon="-7.7537980">
        <ele>241.6</ele>
        <time>2019-07-11T05:48:35Z</time>
      </trkpt>
      <trkpt lat="39.5664910" lon="-7.7538600">
        <ele>242.4</ele>
        <time>2019-07-11T05:48:39Z</time>
      </trkpt>
      <trkpt lat="39.5664330" lon="-7.7538400">
        <ele>242.6</ele>
        <time>2019-07-11T05:48:41Z</time>
      </trkpt>
      <trkpt lat="39.5663660" lon="-7.7537850">
        <ele>242.4</ele>
        <time>2019-07-11T05:48:43Z</time>
      </trkpt>
      <trkpt lat="39.5662120" lon="-7.7536090">
        <ele>241.2</ele>
        <time>2019-07-11T05:48:47Z</time>
      </trkpt>
      <trkpt lat="39.5661730" lon="-7.7535620">
        <ele>240.8</ele>
        <time>2019-07-11T05:48:48Z</time>
      </trkpt>
      <trkpt lat="39.5660910" lon="-7.7534650">
        <ele>240.0</ele>
        <time>2019-07-11T05:48:50Z</time>
      </trkpt>
      <trkpt lat="39.5660060" lon="-7.7533660">
        <ele>238.4</ele>
        <time>2019-07-11T05:48:52Z</time>
      </trkpt>
      <trkpt lat="39.5659190" lon="-7.7532770">
        <ele>237.4</ele>
        <time>2019-07-11T05:48:54Z</time>
      </trkpt>
      <trkpt lat="39.5658730" lon="-7.7532340">
        <ele>237.2</ele>
        <time>2019-07-11T05:48:55Z</time>
      </trkpt>
      <trkpt lat="39.5657770" lon="-7.7531520">
        <ele>236.2</ele>
        <time>2019-07-11T05:48:57Z</time>
      </trkpt>
      <trkpt lat="39.5656460" lon="-7.7530560">
        <ele>235.4</ele>
        <time>2019-07-11T05:49:00Z</time>
      </trkpt>
      <trkpt lat="39.5655730" lon="-7.7529960">
        <ele>235.0</ele>
        <time>2019-07-11T05:49:02Z</time>
      </trkpt>
      <trkpt lat="39.5654680" lon="-7.7529050">
        <ele>234.0</ele>
        <time>2019-07-11T05:49:05Z</time>
      </trkpt>
      <trkpt lat="39.5654420" lon="-7.7528750">
        <ele>233.6</ele>
        <time>2019-07-11T05:49:06Z</time>
      </trkpt>
      <trkpt lat="39.5653940" lon="-7.7528130">
        <ele>232.4</ele>
        <time>2019-07-11T05:49:08Z</time>
      </trkpt>
      <trkpt lat="39.5653410" lon="-7.7527420">
        <ele>231.0</ele>
        <time>2019-07-11T05:49:10Z</time>
      </trkpt>
      <trkpt lat="39.5652640" lon="-7.7526360">
        <ele>229.2</ele>
        <time>2019-07-11T05:49:13Z</time>
      </trkpt>
      <trkpt lat="39.5652270" lon="-7.7525760">
        <ele>227.8</ele>
        <time>2019-07-11T05:49:15Z</time>
      </trkpt>
      <trkpt lat="39.5651960" lon="-7.7525220">
        <ele>226.0</ele>
        <time>2019-07-11T05:49:17Z</time>
      </trkpt>
      <trkpt lat="39.5651630" lon="-7.7524500">
        <ele>224.8</ele>
        <time>2019-07-11T05:49:19Z</time>
      </trkpt>
      <trkpt lat="39.5651110" lon="-7.7523600">
        <ele>223.2</ele>
        <time>2019-07-11T05:49:21Z</time>
      </trkpt>
      <trkpt lat="39.5650760" lon="-7.7523120">
        <ele>222.4</ele>
        <time>2019-07-11T05:49:22Z</time>
      </trkpt>
      <trkpt lat="39.5650320" lon="-7.7522610">
        <ele>221.6</ele>
        <time>2019-07-11T05:49:23Z</time>
      </trkpt>
      <trkpt lat="39.5648770" lon="-7.7521680">
        <ele>220.4</ele>
        <time>2019-07-11T05:49:26Z</time>
      </trkpt>
      <trkpt lat="39.5648150" lon="-7.7521510">
        <ele>219.8</ele>
        <time>2019-07-11T05:49:27Z</time>
      </trkpt>
      <trkpt lat="39.5646080" lon="-7.7521000">
        <ele>219.0</ele>
        <time>2019-07-11T05:49:30Z</time>
      </trkpt>
      <trkpt lat="39.5645410" lon="-7.7520800">
        <ele>218.6</ele>
        <time>2019-07-11T05:49:31Z</time>
      </trkpt>
      <trkpt lat="39.5644020" lon="-7.7520290">
        <ele>217.8</ele>
        <time>2019-07-11T05:49:33Z</time>
      </trkpt>
      <trkpt lat="39.5642590" lon="-7.7519820">
        <ele>217.4</ele>
        <time>2019-07-11T05:49:35Z</time>
      </trkpt>
      <trkpt lat="39.5640060" lon="-7.7519190">
        <ele>216.8</ele>
        <time>2019-07-11T05:49:39Z</time>
      </trkpt>
      <trkpt lat="39.5639040" lon="-7.7518420">
        <ele>215.4</ele>
        <time>2019-07-11T05:49:41Z</time>
      </trkpt>
      <trkpt lat="39.5638010" lon="-7.7517270">
        <ele>214.6</ele>
        <time>2019-07-11T05:49:43Z</time>
      </trkpt>
      <trkpt lat="39.5637500" lon="-7.7516680">
        <ele>214.2</ele>
        <time>2019-07-11T05:49:44Z</time>
      </trkpt>
      <trkpt lat="39.5635830" lon="-7.7515220">
        <ele>213.4</ele>
        <time>2019-07-11T05:49:47Z</time>
      </trkpt>
      <trkpt lat="39.5635280" lon="-7.7514830">
        <ele>213.2</ele>
        <time>2019-07-11T05:49:48Z</time>
      </trkpt>
      <trkpt lat="39.5634780" lon="-7.7514470">
        <ele>213.0</ele>
        <time>2019-07-11T05:49:49Z</time>
      </trkpt>
      <trkpt lat="39.5634350" lon="-7.7514090">
        <ele>213.0</ele>
        <time>2019-07-11T05:49:50Z</time>
      </trkpt>
      <trkpt lat="39.5633560" lon="-7.7513150">
        <ele>212.6</ele>
        <time>2019-07-11T05:49:52Z</time>
      </trkpt>
      <trkpt lat="39.5632310" lon="-7.7511410">
        <ele>212.0</ele>
        <time>2019-07-11T05:49:55Z</time>
      </trkpt>
      <trkpt lat="39.5631840" lon="-7.7510690">
        <ele>211.0</ele>
        <time>2019-07-11T05:49:56Z</time>
      </trkpt>
      <trkpt lat="39.5631360" lon="-7.7509930">
        <ele>210.2</ele>
        <time>2019-07-11T05:49:57Z</time>
      </trkpt>
      <trkpt lat="39.5630380" lon="-7.7508500">
        <ele>209.0</ele>
        <time>2019-07-11T05:49:59Z</time>
      </trkpt>
      <trkpt lat="39.5628880" lon="-7.7506540">
        <ele>208.0</ele>
        <time>2019-07-11T05:50:02Z</time>
      </trkpt>
      <trkpt lat="39.5628370" lon="-7.7505910">
        <ele>208.0</ele>
        <time>2019-07-11T05:50:03Z</time>
      </trkpt>
      <trkpt lat="39.5625380" lon="-7.7502160">
        <ele>206.6</ele>
        <time>2019-07-11T05:50:09Z</time>
      </trkpt>
      <trkpt lat="39.5623870" lon="-7.7500350">
        <ele>205.4</ele>
        <time>2019-07-11T05:50:12Z</time>
      </trkpt>
      <trkpt lat="39.5623330" lon="-7.7499810">
        <ele>205.0</ele>
        <time>2019-07-11T05:50:13Z</time>
      </trkpt>
      <trkpt lat="39.5622130" lon="-7.7499020">
        <ele>204.6</ele>
        <time>2019-07-11T05:50:15Z</time>
      </trkpt>
      <trkpt lat="39.5621500" lon="-7.7498830">
        <ele>204.2</ele>
        <time>2019-07-11T05:50:16Z</time>
      </trkpt>
      <trkpt lat="39.5620460" lon="-7.7498590">
        <ele>204.0</ele>
        <time>2019-07-11T05:50:18Z</time>
      </trkpt>
      <trkpt lat="39.5619950" lon="-7.7498420">
        <ele>203.8</ele>
        <time>2019-07-11T05:50:19Z</time>
      </trkpt>
      <trkpt lat="39.5618970" lon="-7.7497740">
        <ele>203.0</ele>
        <time>2019-07-11T05:50:21Z</time>
      </trkpt>
      <trkpt lat="39.5617890" lon="-7.7496900">
        <ele>202.8</ele>
        <time>2019-07-11T05:50:23Z</time>
      </trkpt>
      <trkpt lat="39.5617360" lon="-7.7496560">
        <ele>202.6</ele>
        <time>2019-07-11T05:50:24Z</time>
      </trkpt>
      <trkpt lat="39.5615730" lon="-7.7496220">
        <ele>202.2</ele>
        <time>2019-07-11T05:50:27Z</time>
      </trkpt>
      <trkpt lat="39.5615170" lon="-7.7496270">
        <ele>202.0</ele>
        <time>2019-07-11T05:50:28Z</time>
      </trkpt>
      <trkpt lat="39.5614580" lon="-7.7496370">
        <ele>201.8</ele>
        <time>2019-07-11T05:50:29Z</time>
      </trkpt>
      <trkpt lat="39.5612680" lon="-7.7496610">
        <ele>201.0</ele>
        <time>2019-07-11T05:50:32Z</time>
      </trkpt>
      <trkpt lat="39.5611480" lon="-7.7496710">
        <ele>199.6</ele>
        <time>2019-07-11T05:50:34Z</time>
      </trkpt>
      <trkpt lat="39.5610440" lon="-7.7496640">
        <ele>198.4</ele>
        <time>2019-07-11T05:50:36Z</time>
      </trkpt>
      <trkpt lat="39.5609930" lon="-7.7496460">
        <ele>197.8</ele>
        <time>2019-07-11T05:50:37Z</time>
      </trkpt>
      <trkpt lat="39.5609000" lon="-7.7495780">
        <ele>197.0</ele>
        <time>2019-07-11T05:50:39Z</time>
      </trkpt>
      <trkpt lat="39.5608260" lon="-7.7494730">
        <ele>196.4</ele>
        <time>2019-07-11T05:50:41Z</time>
      </trkpt>
      <trkpt lat="39.5608040" lon="-7.7494060">
        <ele>195.8</ele>
        <time>2019-07-11T05:50:42Z</time>
      </trkpt>
      <trkpt lat="39.5607780" lon="-7.7492590">
        <ele>194.8</ele>
        <time>2019-07-11T05:50:44Z</time>
      </trkpt>
      <trkpt lat="39.5607700" lon="-7.7491870">
        <ele>194.6</ele>
        <time>2019-07-11T05:50:45Z</time>
      </trkpt>
      <trkpt lat="39.5607610" lon="-7.7491250">
        <ele>194.2</ele>
        <time>2019-07-11T05:50:46Z</time>
      </trkpt>
      <trkpt lat="39.5607410" lon="-7.7490450">
        <ele>194.0</ele>
        <time>2019-07-11T05:50:48Z</time>
      </trkpt>
      <trkpt lat="39.5607330" lon="-7.7490250">
        <ele>193.4</ele>
        <time>2019-07-11T05:50:51Z</time>
      </trkpt>
      <trkpt lat="39.5607050" lon="-7.7489910">
        <ele>193.4</ele>
        <time>2019-07-11T05:51:07Z</time>
      </trkpt>
      <trkpt lat="39.5606830" lon="-7.7489660">
        <ele>193.2</ele>
        <time>2019-07-11T05:51:08Z</time>
      </trkpt>
      <trkpt lat="39.5606290" lon="-7.7488980">
        <ele>192.8</ele>
        <time>2019-07-11T05:51:10Z</time>
      </trkpt>
      <trkpt lat="39.5605960" lon="-7.7488620">
        <ele>192.4</ele>
        <time>2019-07-11T05:51:11Z</time>
      </trkpt>
      <trkpt lat="39.5605630" lon="-7.7488230">
        <ele>192.2</ele>
        <time>2019-07-11T05:51:12Z</time>
      </trkpt>
      <trkpt lat="39.5604500" lon="-7.7486980">
        <ele>191.6</ele>
        <time>2019-07-11T05:51:15Z</time>
      </trkpt>
      <trkpt lat="39.5604120" lon="-7.7486540">
        <ele>191.4</ele>
        <time>2019-07-11T05:51:16Z</time>
      </trkpt>
      <trkpt lat="39.5602810" lon="-7.7484760">
        <ele>191.0</ele>
        <time>2019-07-11T05:51:20Z</time>
      </trkpt>
      <trkpt lat="39.5602030" lon="-7.7483940">
        <ele>190.6</ele>
        <time>2019-07-11T05:51:22Z</time>
      </trkpt>
      <trkpt lat="39.5601120" lon="-7.7483180">
        <ele>190.6</ele>
        <time>2019-07-11T05:51:24Z</time>
      </trkpt>
      <trkpt lat="39.5599690" lon="-7.7482180">
        <ele>189.8</ele>
        <time>2019-07-11T05:51:27Z</time>
      </trkpt>
      <trkpt lat="39.5598730" lon="-7.7481580">
        <ele>189.4</ele>
        <time>2019-07-11T05:51:29Z</time>
      </trkpt>
      <trkpt lat="39.5596710" lon="-7.7480240">
        <ele>189.6</ele>
        <time>2019-07-11T05:51:34Z</time>
      </trkpt>
      <trkpt lat="39.5595930" lon="-7.7479310">
        <ele>189.8</ele>
        <time>2019-07-11T05:51:37Z</time>
      </trkpt>
      <trkpt lat="39.5595720" lon="-7.7478890">
        <ele>189.8</ele>
        <time>2019-07-11T05:51:38Z</time>
      </trkpt>
      <trkpt lat="39.5595560" lon="-7.7478360">
        <ele>189.8</ele>
        <time>2019-07-11T05:51:39Z</time>
      </trkpt>
      <trkpt lat="39.5594830" lon="-7.7475230">
        <ele>188.6</ele>
        <time>2019-07-11T05:51:44Z</time>
      </trkpt>
      <trkpt lat="39.5594590" lon="-7.7474430">
        <ele>187.8</ele>
        <time>2019-07-11T05:51:45Z</time>
      </trkpt>
      <trkpt lat="39.5594000" lon="-7.7472730">
        <ele>186.6</ele>
        <time>2019-07-11T05:51:47Z</time>
      </trkpt>
      <trkpt lat="39.5593360" lon="-7.7471060">
        <ele>185.0</ele>
        <time>2019-07-11T05:51:49Z</time>
      </trkpt>
      <trkpt lat="39.5592230" lon="-7.7467270">
        <ele>184.2</ele>
        <time>2019-07-11T05:51:54Z</time>
      </trkpt>
      <trkpt lat="39.5591840" lon="-7.7465890">
        <ele>183.8</ele>
        <time>2019-07-11T05:51:56Z</time>
      </trkpt>
      <trkpt lat="39.5591480" lon="-7.7464410">
        <ele>182.8</ele>
        <time>2019-07-11T05:51:58Z</time>
      </trkpt>
      <trkpt lat="39.5591160" lon="-7.7462990">
        <ele>181.8</ele>
        <time>2019-07-11T05:52:00Z</time>
      </trkpt>
      <trkpt lat="39.5591070" lon="-7.7462420">
        <ele>181.2</ele>
        <time>2019-07-11T05:52:01Z</time>
      </trkpt>
      <trkpt lat="39.5591240" lon="-7.7460970">
        <ele>180.6</ele>
        <time>2019-07-11T05:52:04Z</time>
      </trkpt>
      <trkpt lat="39.5591400" lon="-7.7460510">
        <ele>180.0</ele>
        <time>2019-07-11T05:52:05Z</time>
      </trkpt>
      <trkpt lat="39.5591840" lon="-7.7459710">
        <ele>179.4</ele>
        <time>2019-07-11T05:52:07Z</time>
      </trkpt>
      <trkpt lat="39.5592370" lon="-7.7458840">
        <ele>179.0</ele>
        <time>2019-07-11T05:52:09Z</time>
      </trkpt>
      <trkpt lat="39.5592890" lon="-7.7457780">
        <ele>177.4</ele>
        <time>2019-07-11T05:52:11Z</time>
      </trkpt>
      <trkpt lat="39.5593390" lon="-7.7456450">
        <ele>175.6</ele>
        <time>2019-07-11T05:52:13Z</time>
      </trkpt>
      <trkpt lat="39.5593620" lon="-7.7455690">
        <ele>174.8</ele>
        <time>2019-07-11T05:52:14Z</time>
      </trkpt>
      <trkpt lat="39.5593760" lon="-7.7454980">
        <ele>174.2</ele>
        <time>2019-07-11T05:52:15Z</time>
      </trkpt>
      <trkpt lat="39.5593830" lon="-7.7453810">
        <ele>173.4</ele>
        <time>2019-07-11T05:52:17Z</time>
      </trkpt>
      <trkpt lat="39.5593750" lon="-7.7453330">
        <ele>173.0</ele>
        <time>2019-07-11T05:52:18Z</time>
      </trkpt>
      <trkpt lat="39.5593180" lon="-7.7452110">
        <ele>172.2</ele>
        <time>2019-07-11T05:52:21Z</time>
      </trkpt>
      <trkpt lat="39.5592950" lon="-7.7451840">
        <ele>172.0</ele>
        <time>2019-07-11T05:52:22Z</time>
      </trkpt>
      <trkpt lat="39.5592460" lon="-7.7451410">
        <ele>171.8</ele>
        <time>2019-07-11T05:52:24Z</time>
      </trkpt>
      <trkpt lat="39.5592090" lon="-7.7451050">
        <ele>172.2</ele>
        <time>2019-07-11T05:52:26Z</time>
      </trkpt>
      <trkpt lat="39.5591920" lon="-7.7450900">
        <ele>172.6</ele>
        <time>2019-07-11T05:52:27Z</time>
      </trkpt>
      <trkpt lat="39.5591780" lon="-7.7450730">
        <ele>172.8</ele>
        <time>2019-07-11T05:52:28Z</time>
      </trkpt>
      <trkpt lat="39.5591640" lon="-7.7450570">
        <ele>173.0</ele>
        <time>2019-07-11T05:52:29Z</time>
      </trkpt>
      <trkpt lat="39.5591490" lon="-7.7450410">
        <ele>173.2</ele>
        <time>2019-07-11T05:52:30Z</time>
      </trkpt>
      <trkpt lat="39.5591350" lon="-7.7450270">
        <ele>173.4</ele>
        <time>2019-07-11T05:52:31Z</time>
      </trkpt>
      <trkpt lat="39.5591210" lon="-7.7450110">
        <ele>173.8</ele>
        <time>2019-07-11T05:52:32Z</time>
      </trkpt>
      <trkpt lat="39.5591070" lon="-7.7449920">
        <ele>174.4</ele>
        <time>2019-07-11T05:52:33Z</time>
      </trkpt>
      <trkpt lat="39.5590940" lon="-7.7449740">
        <ele>174.8</ele>
        <time>2019-07-11T05:52:34Z</time>
      </trkpt>
      <trkpt lat="39.5590670" lon="-7.7449420">
        <ele>175.4</ele>
        <time>2019-07-11T05:52:36Z</time>
      </trkpt>
      <trkpt lat="39.5590440" lon="-7.7449100">
        <ele>176.2</ele>
        <time>2019-07-11T05:52:38Z</time>
      </trkpt>
      <trkpt lat="39.5590310" lon="-7.7448950">
        <ele>176.4</ele>
        <time>2019-07-11T05:52:39Z</time>
      </trkpt>
      <trkpt lat="39.5590080" lon="-7.7448610">
        <ele>177.2</ele>
        <time>2019-07-11T05:52:41Z</time>
      </trkpt>
      <trkpt lat="39.5589820" lon="-7.7448330">
        <ele>177.6</ele>
        <time>2019-07-11T05:52:43Z</time>
      </trkpt>
      <trkpt lat="39.5589590" lon="-7.7448080">
        <ele>178.2</ele>
        <time>2019-07-11T05:52:45Z</time>
      </trkpt>
      <trkpt lat="39.5589210" lon="-7.7447810">
        <ele>178.6</ele>
        <time>2019-07-11T05:52:48Z</time>
      </trkpt>
      <trkpt lat="39.5588710" lon="-7.7447310">
        <ele>179.6</ele>
        <time>2019-07-11T05:52:52Z</time>
      </trkpt>
      <trkpt lat="39.5588580" lon="-7.7447200">
        <ele>179.8</ele>
        <time>2019-07-11T05:52:53Z</time>
      </trkpt>
      <trkpt lat="39.5587910" lon="-7.7446250">
        <ele>180.4</ele>
        <time>2019-07-11T05:52:58Z</time>
      </trkpt>
      <trkpt lat="39.5587670" lon="-7.7445790">
        <ele>180.8</ele>
        <time>2019-07-11T05:53:00Z</time>
      </trkpt>
      <trkpt lat="39.5586830" lon="-7.7443710">
        <ele>181.6</ele>
        <time>2019-07-11T05:53:07Z</time>
      </trkpt>
      <trkpt lat="39.5586720" lon="-7.7443370">
        <ele>181.6</ele>
        <time>2019-07-11T05:53:08Z</time>
      </trkpt>
      <trkpt lat="39.5586590" lon="-7.7443010">
        <ele>182.0</ele>
        <time>2019-07-11T05:53:09Z</time>
      </trkpt>
      <trkpt lat="39.5585910" lon="-7.7440560">
        <ele>182.6</ele>
        <time>2019-07-11T05:53:15Z</time>
      </trkpt>
      <trkpt lat="39.5584990" lon="-7.7438440">
        <ele>182.8</ele>
        <time>2019-07-11T05:53:20Z</time>
      </trkpt>
      <trkpt lat="39.5584530" lon="-7.7437730">
        <ele>183.0</ele>
        <time>2019-07-11T05:53:22Z</time>
      </trkpt>
      <trkpt lat="39.5583440" lon="-7.7436590">
        <ele>183.4</ele>
        <time>2019-07-11T05:53:26Z</time>
      </trkpt>
      <trkpt lat="39.5582650" lon="-7.7435690">
        <ele>184.0</ele>
        <time>2019-07-11T05:53:29Z</time>
      </trkpt>
      <trkpt lat="39.5581400" lon="-7.7434100">
        <ele>184.6</ele>
        <time>2019-07-11T05:53:34Z</time>
      </trkpt>
      <trkpt lat="39.5580700" lon="-7.7433080">
        <ele>185.2</ele>
        <time>2019-07-11T05:53:37Z</time>
      </trkpt>
      <trkpt lat="39.5579340" lon="-7.7430970">
        <ele>186.2</ele>
        <time>2019-07-11T05:53:43Z</time>
      </trkpt>
      <trkpt lat="39.5578230" lon="-7.7428670">
        <ele>187.4</ele>
        <time>2019-07-11T05:53:49Z</time>
      </trkpt>
      <trkpt lat="39.5577790" lon="-7.7427550">
        <ele>188.0</ele>
        <time>2019-07-11T05:53:52Z</time>
      </trkpt>
      <trkpt lat="39.5577670" lon="-7.7427190">
        <ele>188.4</ele>
        <time>2019-07-11T05:53:53Z</time>
      </trkpt>
      <trkpt lat="39.5576910" lon="-7.7424950">
        <ele>189.8</ele>
        <time>2019-07-11T05:53:59Z</time>
      </trkpt>
      <trkpt lat="39.5576640" lon="-7.7424190">
        <ele>190.4</ele>
        <time>2019-07-11T05:54:01Z</time>
      </trkpt>
      <trkpt lat="39.5576050" lon="-7.7422730">
        <ele>191.0</ele>
        <time>2019-07-11T05:54:05Z</time>
      </trkpt>
      <trkpt lat="39.5575470" lon="-7.7421400">
        <ele>192.0</ele>
        <time>2019-07-11T05:54:09Z</time>
      </trkpt>
      <trkpt lat="39.5575340" lon="-7.7421070">
        <ele>192.2</ele>
        <time>2019-07-11T05:54:10Z</time>
      </trkpt>
      <trkpt lat="39.5574950" lon="-7.7420200">
        <ele>193.2</ele>
        <time>2019-07-11T05:54:13Z</time>
      </trkpt>
      <trkpt lat="39.5574600" lon="-7.7419390">
        <ele>194.2</ele>
        <time>2019-07-11T05:54:16Z</time>
      </trkpt>
      <trkpt lat="39.5574480" lon="-7.7419110">
        <ele>194.4</ele>
        <time>2019-07-11T05:54:17Z</time>
      </trkpt>
      <trkpt lat="39.5573800" lon="-7.7417180">
        <ele>195.6</ele>
        <time>2019-07-11T05:54:23Z</time>
      </trkpt>
      <trkpt lat="39.5573320" lon="-7.7415200">
        <ele>196.8</ele>
        <time>2019-07-11T05:54:29Z</time>
      </trkpt>
      <trkpt lat="39.5573250" lon="-7.7414880">
        <ele>196.8</ele>
        <time>2019-07-11T05:54:30Z</time>
      </trkpt>
      <trkpt lat="39.5572890" lon="-7.7412670">
        <ele>197.8</ele>
        <time>2019-07-11T05:54:36Z</time>
      </trkpt>
      <trkpt lat="39.5572820" lon="-7.7412320">
        <ele>198.2</ele>
        <time>2019-07-11T05:54:37Z</time>
      </trkpt>
      <trkpt lat="39.5572540" lon="-7.7410920">
        <ele>198.8</ele>
        <time>2019-07-11T05:54:41Z</time>
      </trkpt>
      <trkpt lat="39.5572150" lon="-7.7409510">
        <ele>199.4</ele>
        <time>2019-07-11T05:54:45Z</time>
      </trkpt>
      <trkpt lat="39.5571500" lon="-7.7408050">
        <ele>200.0</ele>
        <time>2019-07-11T05:54:49Z</time>
      </trkpt>
      <trkpt lat="39.5570910" lon="-7.7407030">
        <ele>200.2</ele>
        <time>2019-07-11T05:54:52Z</time>
      </trkpt>
      <trkpt lat="39.5569630" lon="-7.7405460">
        <ele>201.2</ele>
        <time>2019-07-11T05:54:58Z</time>
      </trkpt>
      <trkpt lat="39.5569410" lon="-7.7405210">
        <ele>201.4</ele>
        <time>2019-07-11T05:54:59Z</time>
      </trkpt>
      <trkpt lat="39.5568670" lon="-7.7404310">
        <ele>202.4</ele>
        <time>2019-07-11T05:55:03Z</time>
      </trkpt>
      <trkpt lat="39.5568160" lon="-7.7403620">
        <ele>203.4</ele>
        <time>2019-07-11T05:55:06Z</time>
      </trkpt>
      <trkpt lat="39.5567340" lon="-7.7402310">
        <ele>204.4</ele>
        <time>2019-07-11T05:55:11Z</time>
      </trkpt>
      <trkpt lat="39.5567030" lon="-7.7401650">
        <ele>204.8</ele>
        <time>2019-07-11T05:55:13Z</time>
      </trkpt>
      <trkpt lat="39.5566550" lon="-7.7400610">
        <ele>205.2</ele>
        <time>2019-07-11T05:55:16Z</time>
      </trkpt>
      <trkpt lat="39.5566400" lon="-7.7400280">
        <ele>205.4</ele>
        <time>2019-07-11T05:55:17Z</time>
      </trkpt>
      <trkpt lat="39.5565680" lon="-7.7398550">
        <ele>206.2</ele>
        <time>2019-07-11T05:55:22Z</time>
      </trkpt>
      <trkpt lat="39.5564800" lon="-7.7396810">
        <ele>206.6</ele>
        <time>2019-07-11T05:55:27Z</time>
      </trkpt>
      <trkpt lat="39.5564080" lon="-7.7395470">
        <ele>207.0</ele>
        <time>2019-07-11T05:55:31Z</time>
      </trkpt>
      <trkpt lat="39.5563540" lon="-7.7394510">
        <ele>207.6</ele>
        <time>2019-07-11T05:55:34Z</time>
      </trkpt>
      <trkpt lat="39.5562710" lon="-7.7393410">
        <ele>208.6</ele>
        <time>2019-07-11T05:55:38Z</time>
      </trkpt>
      <trkpt lat="39.5562500" lon="-7.7393130">
        <ele>208.8</ele>
        <time>2019-07-11T05:55:39Z</time>
      </trkpt>
      <trkpt lat="39.5561110" lon="-7.7391760">
        <ele>210.0</ele>
        <time>2019-07-11T05:55:45Z</time>
      </trkpt>
      <trkpt lat="39.5560870" lon="-7.7391530">
        <ele>210.0</ele>
        <time>2019-07-11T05:55:46Z</time>
      </trkpt>
      <trkpt lat="39.5559870" lon="-7.7390890">
        <ele>211.0</ele>
        <time>2019-07-11T05:55:50Z</time>
      </trkpt>
      <trkpt lat="39.5559120" lon="-7.7390440">
        <ele>211.6</ele>
        <time>2019-07-11T05:55:53Z</time>
      </trkpt>
      <trkpt lat="39.5558600" lon="-7.7390140">
        <ele>212.2</ele>
        <time>2019-07-11T05:55:55Z</time>
      </trkpt>
      <trkpt lat="39.5557660" lon="-7.7389520">
        <ele>213.2</ele>
        <time>2019-07-11T05:55:59Z</time>
      </trkpt>
      <trkpt lat="39.5557230" lon="-7.7389200">
        <ele>213.8</ele>
        <time>2019-07-11T05:56:01Z</time>
      </trkpt>
      <trkpt lat="39.5556740" lon="-7.7388870">
        <ele>214.2</ele>
        <time>2019-07-11T05:56:03Z</time>
      </trkpt>
      <trkpt lat="39.5555700" lon="-7.7387650">
        <ele>215.4</ele>
        <time>2019-07-11T05:56:08Z</time>
      </trkpt>
      <trkpt lat="39.5554560" lon="-7.7386120">
        <ele>216.4</ele>
        <time>2019-07-11T05:56:15Z</time>
      </trkpt>
      <trkpt lat="39.5554450" lon="-7.7385920">
        <ele>216.4</ele>
        <time>2019-07-11T05:56:18Z</time>
      </trkpt>
      <trkpt lat="39.5554430" lon="-7.7385550">
        <ele>216.4</ele>
        <time>2019-07-11T05:56:28Z</time>
      </trkpt>
      <trkpt lat="39.5554450" lon="-7.7385350">
        <ele>216.4</ele>
        <time>2019-07-11T05:56:29Z</time>
      </trkpt>
      <trkpt lat="39.5554570" lon="-7.7383900">
        <ele>216.8</ele>
        <time>2019-07-11T05:56:34Z</time>
      </trkpt>
      <trkpt lat="39.5554640" lon="-7.7382450">
        <ele>217.4</ele>
        <time>2019-07-11T05:56:38Z</time>
      </trkpt>
      <trkpt lat="39.5554510" lon="-7.7381130">
        <ele>217.2</ele>
        <time>2019-07-11T05:56:41Z</time>
      </trkpt>
      <trkpt lat="39.5554200" lon="-7.7377280">
        <ele>217.0</ele>
        <time>2019-07-11T05:56:48Z</time>
      </trkpt>
      <trkpt lat="39.5554090" lon="-7.7376720">
        <ele>216.8</ele>
        <time>2019-07-11T05:56:49Z</time>
      </trkpt>
      <trkpt lat="39.5553470" lon="-7.7375190">
        <ele>216.8</ele>
        <time>2019-07-11T05:56:52Z</time>
      </trkpt>
      <trkpt lat="39.5553160" lon="-7.7374790">
        <ele>216.6</ele>
        <time>2019-07-11T05:56:53Z</time>
      </trkpt>
      <trkpt lat="39.5551490" lon="-7.7373750">
        <ele>216.6</ele>
        <time>2019-07-11T05:56:57Z</time>
      </trkpt>
      <trkpt lat="39.5550640" lon="-7.7373200">
        <ele>216.6</ele>
        <time>2019-07-11T05:56:59Z</time>
      </trkpt>
      <trkpt lat="39.5550270" lon="-7.7372840">
        <ele>216.6</ele>
        <time>2019-07-11T05:57:00Z</time>
      </trkpt>
      <trkpt lat="39.5549760" lon="-7.7371810">
        <ele>216.2</ele>
        <time>2019-07-11T05:57:02Z</time>
      </trkpt>
      <trkpt lat="39.5549920" lon="-7.7370050">
        <ele>215.6</ele>
        <time>2019-07-11T05:57:05Z</time>
      </trkpt>
      <trkpt lat="39.5550080" lon="-7.7369500">
        <ele>215.4</ele>
        <time>2019-07-11T05:57:06Z</time>
      </trkpt>
      <trkpt lat="39.5550250" lon="-7.7368950">
        <ele>215.4</ele>
        <time>2019-07-11T05:57:07Z</time>
      </trkpt>
      <trkpt lat="39.5550540" lon="-7.7367910">
        <ele>215.4</ele>
        <time>2019-07-11T05:57:09Z</time>
      </trkpt>
      <trkpt lat="39.5550460" lon="-7.7366880">
        <ele>215.4</ele>
        <time>2019-07-11T05:57:11Z</time>
      </trkpt>
      <trkpt lat="39.5549540" lon="-7.7365690">
        <ele>215.2</ele>
        <time>2019-07-11T05:57:14Z</time>
      </trkpt>
      <trkpt lat="39.5549160" lon="-7.7365280">
        <ele>215.0</ele>
        <time>2019-07-11T05:57:15Z</time>
      </trkpt>
      <trkpt lat="39.5548810" lon="-7.7364820">
        <ele>215.0</ele>
        <time>2019-07-11T05:57:16Z</time>
      </trkpt>
      <trkpt lat="39.5548200" lon="-7.7363150">
        <ele>214.8</ele>
        <time>2019-07-11T05:57:19Z</time>
      </trkpt>
      <trkpt lat="39.5547610" lon="-7.7361660">
        <ele>214.4</ele>
        <time>2019-07-11T05:57:22Z</time>
      </trkpt>
      <trkpt lat="39.5547270" lon="-7.7361290">
        <ele>214.4</ele>
        <time>2019-07-11T05:57:23Z</time>
      </trkpt>
      <trkpt lat="39.5546050" lon="-7.7360780">
        <ele>214.2</ele>
        <time>2019-07-11T05:57:26Z</time>
      </trkpt>
      <trkpt lat="39.5545640" lon="-7.7360680">
        <ele>214.2</ele>
        <time>2019-07-11T05:57:27Z</time>
      </trkpt>
      <trkpt lat="39.5544200" lon="-7.7359950">
        <ele>214.2</ele>
        <time>2019-07-11T05:57:31Z</time>
      </trkpt>
      <trkpt lat="39.5544010" lon="-7.7359490">
        <ele>214.0</ele>
        <time>2019-07-11T05:57:32Z</time>
      </trkpt>
      <trkpt lat="39.5544070" lon="-7.7357900">
        <ele>213.6</ele>
        <time>2019-07-11T05:57:35Z</time>
      </trkpt>
      <trkpt lat="39.5544150" lon="-7.7356280">
        <ele>213.4</ele>
        <time>2019-07-11T05:57:38Z</time>
      </trkpt>
      <trkpt lat="39.5544060" lon="-7.7355160">
        <ele>213.4</ele>
        <time>2019-07-11T05:57:40Z</time>
      </trkpt>
      <trkpt lat="39.5543930" lon="-7.7354620">
        <ele>213.4</ele>
        <time>2019-07-11T05:57:41Z</time>
      </trkpt>
      <trkpt lat="39.5543740" lon="-7.7354130">
        <ele>213.2</ele>
        <time>2019-07-11T05:57:42Z</time>
      </trkpt>
      <trkpt lat="39.5542750" lon="-7.7353040">
        <ele>213.2</ele>
        <time>2019-07-11T05:57:45Z</time>
      </trkpt>
      <trkpt lat="39.5542320" lon="-7.7352830">
        <ele>213.0</ele>
        <time>2019-07-11T05:57:46Z</time>
      </trkpt>
      <trkpt lat="39.5541040" lon="-7.7352290">
        <ele>212.2</ele>
        <time>2019-07-11T05:57:49Z</time>
      </trkpt>
      <trkpt lat="39.5540320" lon="-7.7351920">
        <ele>211.2</ele>
        <time>2019-07-11T05:57:51Z</time>
      </trkpt>
      <trkpt lat="39.5539950" lon="-7.7351720">
        <ele>211.0</ele>
        <time>2019-07-11T05:57:52Z</time>
      </trkpt>
      <trkpt lat="39.5539020" lon="-7.7351160">
        <ele>210.0</ele>
        <time>2019-07-11T05:57:55Z</time>
      </trkpt>
      <trkpt lat="39.5538720" lon="-7.7351140">
        <ele>209.8</ele>
        <time>2019-07-11T05:57:56Z</time>
      </trkpt>
      <trkpt lat="39.5538230" lon="-7.7351340">
        <ele>209.6</ele>
        <time>2019-07-11T05:57:58Z</time>
      </trkpt>
      <trkpt lat="39.5538080" lon="-7.7351510">
        <ele>209.6</ele>
        <time>2019-07-11T05:57:59Z</time>
      </trkpt>
      <trkpt lat="39.5537810" lon="-7.7351920">
        <ele>210.0</ele>
        <time>2019-07-11T05:58:01Z</time>
      </trkpt>
      <trkpt lat="39.5537590" lon="-7.7352280">
        <ele>210.4</ele>
        <time>2019-07-11T05:58:03Z</time>
      </trkpt>
      <trkpt lat="39.5537510" lon="-7.7352440">
        <ele>211.0</ele>
        <time>2019-07-11T05:58:04Z</time>
      </trkpt>
      <trkpt lat="39.5537390" lon="-7.7352610">
        <ele>211.4</ele>
        <time>2019-07-11T05:58:05Z</time>
      </trkpt>
      <trkpt lat="39.5537260" lon="-7.7352800">
        <ele>211.8</ele>
        <time>2019-07-11T05:58:06Z</time>
      </trkpt>
      <trkpt lat="39.5537130" lon="-7.7353010">
        <ele>211.8</ele>
        <time>2019-07-11T05:58:07Z</time>
      </trkpt>
      <trkpt lat="39.5537010" lon="-7.7353230">
        <ele>212.0</ele>
        <time>2019-07-11T05:58:08Z</time>
      </trkpt>
      <trkpt lat="39.5536770" lon="-7.7353710">
        <ele>212.6</ele>
        <time>2019-07-11T05:58:10Z</time>
      </trkpt>
      <trkpt lat="39.5536520" lon="-7.7354210">
        <ele>213.0</ele>
        <time>2019-07-11T05:58:12Z</time>
      </trkpt>
      <trkpt lat="39.5536170" lon="-7.7354820">
        <ele>214.0</ele>
        <time>2019-07-11T05:58:15Z</time>
      </trkpt>
      <trkpt lat="39.5536040" lon="-7.7355040">
        <ele>214.4</ele>
        <time>2019-07-11T05:58:16Z</time>
      </trkpt>
      <trkpt lat="39.5535620" lon="-7.7355740">
        <ele>215.0</ele>
        <time>2019-07-11T05:58:19Z</time>
      </trkpt>
      <trkpt lat="39.5535490" lon="-7.7355960">
        <ele>215.4</ele>
        <time>2019-07-11T05:58:20Z</time>
      </trkpt>
      <trkpt lat="39.5535110" lon="-7.7356590">
        <ele>216.6</ele>
        <time>2019-07-11T05:58:23Z</time>
      </trkpt>
      <trkpt lat="39.5534730" lon="-7.7357250">
        <ele>217.6</ele>
        <time>2019-07-11T05:58:26Z</time>
      </trkpt>
      <trkpt lat="39.5534590" lon="-7.7357480">
        <ele>217.8</ele>
        <time>2019-07-11T05:58:27Z</time>
      </trkpt>
      <trkpt lat="39.5534480" lon="-7.7357690">
        <ele>218.2</ele>
        <time>2019-07-11T05:58:28Z</time>
      </trkpt>
      <trkpt lat="39.5534180" lon="-7.7358250">
        <ele>218.8</ele>
        <time>2019-07-11T05:58:31Z</time>
      </trkpt>
      <trkpt lat="39.5534080" lon="-7.7358440">
        <ele>219.0</ele>
        <time>2019-07-11T05:58:32Z</time>
      </trkpt>
      <trkpt lat="39.5533690" lon="-7.7359230">
        <ele>220.2</ele>
        <time>2019-07-11T05:58:36Z</time>
      </trkpt>
      <trkpt lat="39.5533080" lon="-7.7360450">
        <ele>221.4</ele>
        <time>2019-07-11T05:58:42Z</time>
      </trkpt>
      <trkpt lat="39.5532970" lon="-7.7360650">
        <ele>221.6</ele>
        <time>2019-07-11T05:58:43Z</time>
      </trkpt>
      <trkpt lat="39.5532640" lon="-7.7361260">
        <ele>222.6</ele>
        <time>2019-07-11T05:58:46Z</time>
      </trkpt>
      <trkpt lat="39.5532160" lon="-7.7362050">
        <ele>223.8</ele>
        <time>2019-07-11T05:58:50Z</time>
      </trkpt>
      <trkpt lat="39.5531880" lon="-7.7362380">
        <ele>224.4</ele>
        <time>2019-07-11T05:58:52Z</time>
      </trkpt>
      <trkpt lat="39.5531580" lon="-7.7362700">
        <ele>224.8</ele>
        <time>2019-07-11T05:58:54Z</time>
      </trkpt>
      <trkpt lat="39.5530870" lon="-7.7363420">
        <ele>226.0</ele>
        <time>2019-07-11T05:58:59Z</time>
      </trkpt>
      <trkpt lat="39.5530730" lon="-7.7363580">
        <ele>226.2</ele>
        <time>2019-07-11T05:59:00Z</time>
      </trkpt>
      <trkpt lat="39.5530310" lon="-7.7364000">
        <ele>227.2</ele>
        <time>2019-07-11T05:59:03Z</time>
      </trkpt>
      <trkpt lat="39.5529720" lon="-7.7364580">
        <ele>228.2</ele>
        <time>2019-07-11T05:59:07Z</time>
      </trkpt>
      <trkpt lat="39.5529040" lon="-7.7365330">
        <ele>229.6</ele>
        <time>2019-07-11T05:59:12Z</time>
      </trkpt>
      <trkpt lat="39.5528900" lon="-7.7365470">
        <ele>230.0</ele>
        <time>2019-07-11T05:59:13Z</time>
      </trkpt>
      <trkpt lat="39.5528610" lon="-7.7365710">
        <ele>230.6</ele>
        <time>2019-07-11T05:59:15Z</time>
      </trkpt>
      <trkpt lat="39.5527840" lon="-7.7366360">
        <ele>231.8</ele>
        <time>2019-07-11T05:59:20Z</time>
      </trkpt>
      <trkpt lat="39.5527520" lon="-7.7366640">
        <ele>232.2</ele>
        <time>2019-07-11T05:59:22Z</time>
      </trkpt>
      <trkpt lat="39.5526960" lon="-7.7367210">
        <ele>233.2</ele>
        <time>2019-07-11T05:59:26Z</time>
      </trkpt>
      <trkpt lat="39.5526400" lon="-7.7367840">
        <ele>234.4</ele>
        <time>2019-07-11T05:59:30Z</time>
      </trkpt>
      <trkpt lat="39.5525520" lon="-7.7368900">
        <ele>235.6</ele>
        <time>2019-07-11T05:59:36Z</time>
      </trkpt>
      <trkpt lat="39.5525110" lon="-7.7369370">
        <ele>236.0</ele>
        <time>2019-07-11T05:59:39Z</time>
      </trkpt>
      <trkpt lat="39.5524720" lon="-7.7369790">
        <ele>236.8</ele>
        <time>2019-07-11T05:59:42Z</time>
      </trkpt>
      <trkpt lat="39.5524620" lon="-7.7369940">
        <ele>237.0</ele>
        <time>2019-07-11T05:59:43Z</time>
      </trkpt>
      <trkpt lat="39.5524400" lon="-7.7370190">
        <ele>237.6</ele>
        <time>2019-07-11T05:59:45Z</time>
      </trkpt>
      <trkpt lat="39.5524270" lon="-7.7370300">
        <ele>237.8</ele>
        <time>2019-07-11T05:59:46Z</time>
      </trkpt>
      <trkpt lat="39.5524040" lon="-7.7370600">
        <ele>238.4</ele>
        <time>2019-07-11T05:59:48Z</time>
      </trkpt>
      <trkpt lat="39.5523830" lon="-7.7370940">
        <ele>239.0</ele>
        <time>2019-07-11T05:59:50Z</time>
      </trkpt>
      <trkpt lat="39.5523730" lon="-7.7371090">
        <ele>239.4</ele>
        <time>2019-07-11T05:59:51Z</time>
      </trkpt>
      <trkpt lat="39.5523510" lon="-7.7371490">
        <ele>240.2</ele>
        <time>2019-07-11T05:59:54Z</time>
      </trkpt>
      <trkpt lat="39.5523350" lon="-7.7371950">
        <ele>241.4</ele>
        <time>2019-07-11T05:59:57Z</time>
      </trkpt>
      <trkpt lat="39.5523320" lon="-7.7372120">
        <ele>241.8</ele>
        <time>2019-07-11T05:59:58Z</time>
      </trkpt>
      <trkpt lat="39.5523190" lon="-7.7372500">
        <ele>242.6</ele>
        <time>2019-07-11T06:00:01Z</time>
      </trkpt>
      <trkpt lat="39.5523350" lon="-7.7372690">
        <ele>243.2</ele>
        <time>2019-07-11T06:00:03Z</time>
      </trkpt>
      <trkpt lat="39.5523390" lon="-7.7372750">
        <ele>243.6</ele>
        <time>2019-07-11T06:00:05Z</time>
      </trkpt>
      <trkpt lat="39.5522300" lon="-7.7375860">
        <ele>247.0</ele>
        <time>2019-07-11T06:01:33Z</time>
      </trkpt>
      <trkpt lat="39.5522250" lon="-7.7376070">
        <ele>247.0</ele>
        <time>2019-07-11T06:01:34Z</time>
      </trkpt>
      <trkpt lat="39.5521860" lon="-7.7377720">
        <ele>247.2</ele>
        <time>2019-07-11T06:01:41Z</time>
      </trkpt>
      <trkpt lat="39.5521380" lon="-7.7378570">
        <ele>247.4</ele>
        <time>2019-07-11T06:01:44Z</time>
      </trkpt>
      <trkpt lat="39.5520850" lon="-7.7379510">
        <ele>247.4</ele>
        <time>2019-07-11T06:01:47Z</time>
      </trkpt>
      <trkpt lat="39.5520340" lon="-7.7380850">
        <ele>248.0</ele>
        <time>2019-07-11T06:01:51Z</time>
      </trkpt>
      <trkpt lat="39.5520140" lon="-7.7381170">
        <ele>248.2</ele>
        <time>2019-07-11T06:01:52Z</time>
      </trkpt>
      <trkpt lat="39.5519100" lon="-7.7383240">
        <ele>248.4</ele>
        <time>2019-07-11T06:01:58Z</time>
      </trkpt>
      <trkpt lat="39.5517950" lon="-7.7384810">
        <ele>249.2</ele>
        <time>2019-07-11T06:02:04Z</time>
      </trkpt>
      <trkpt lat="39.5517580" lon="-7.7385270">
        <ele>249.6</ele>
        <time>2019-07-11T06:02:06Z</time>
      </trkpt>
      <trkpt lat="39.5516490" lon="-7.7386740">
        <ele>249.2</ele>
        <time>2019-07-11T06:02:11Z</time>
      </trkpt>
      <trkpt lat="39.5515670" lon="-7.7387270">
        <ele>248.0</ele>
        <time>2019-07-11T06:02:14Z</time>
      </trkpt>
      <trkpt lat="39.5515390" lon="-7.7387400">
        <ele>247.8</ele>
        <time>2019-07-11T06:02:15Z</time>
      </trkpt>
      <trkpt lat="39.5514310" lon="-7.7387750">
        <ele>247.4</ele>
        <time>2019-07-11T06:02:18Z</time>
      </trkpt>
      <trkpt lat="39.5513860" lon="-7.7387700">
        <ele>247.2</ele>
        <time>2019-07-11T06:02:19Z</time>
      </trkpt>
      <trkpt lat="39.5513400" lon="-7.7387610">
        <ele>246.8</ele>
        <time>2019-07-11T06:02:20Z</time>
      </trkpt>
      <trkpt lat="39.5512920" lon="-7.7387470">
        <ele>246.4</ele>
        <time>2019-07-11T06:02:21Z</time>
      </trkpt>
      <trkpt lat="39.5512450" lon="-7.7387280">
        <ele>245.4</ele>
        <time>2019-07-11T06:02:22Z</time>
      </trkpt>
      <trkpt lat="39.5511640" lon="-7.7386950">
        <ele>244.4</ele>
        <time>2019-07-11T06:02:24Z</time>
      </trkpt>
      <trkpt lat="39.5511270" lon="-7.7386790">
        <ele>244.2</ele>
        <time>2019-07-11T06:02:25Z</time>
      </trkpt>
      <trkpt lat="39.5510240" lon="-7.7386200">
        <ele>243.0</ele>
        <time>2019-07-11T06:02:28Z</time>
      </trkpt>
      <trkpt lat="39.5509990" lon="-7.7385970">
        <ele>242.6</ele>
        <time>2019-07-11T06:02:29Z</time>
      </trkpt>
      <trkpt lat="39.5509310" lon="-7.7385520">
        <ele>241.8</ele>
        <time>2019-07-11T06:02:31Z</time>
      </trkpt>
      <trkpt lat="39.5508510" lon="-7.7385050">
        <ele>241.0</ele>
        <time>2019-07-11T06:02:33Z</time>
      </trkpt>
      <trkpt lat="39.5508130" lon="-7.7384850">
        <ele>240.4</ele>
        <time>2019-07-11T06:02:34Z</time>
      </trkpt>
      <trkpt lat="39.5507350" lon="-7.7384580">
        <ele>239.4</ele>
        <time>2019-07-11T06:02:36Z</time>
      </trkpt>
      <trkpt lat="39.5506940" lon="-7.7384490">
        <ele>238.8</ele>
        <time>2019-07-11T06:02:37Z</time>
      </trkpt>
      <trkpt lat="39.5506320" lon="-7.7384300">
        <ele>237.6</ele>
        <time>2019-07-11T06:02:39Z</time>
      </trkpt>
      <trkpt lat="39.5506140" lon="-7.7384180">
        <ele>236.6</ele>
        <time>2019-07-11T06:02:41Z</time>
      </trkpt>
      <trkpt lat="39.5506140" lon="-7.7384180">
        <ele>236.2</ele>
        <time>2019-07-11T06:02:42Z</time>
      </trkpt>
      <trkpt lat="39.5505820" lon="-7.7384150">
        <ele>234.8</ele>
        <time>2019-07-11T06:04:26Z</time>
      </trkpt>
      <trkpt lat="39.5505510" lon="-7.7384100">
        <ele>234.8</ele>
        <time>2019-07-11T06:04:28Z</time>
      </trkpt>
      <trkpt lat="39.5505190" lon="-7.7384060">
        <ele>234.6</ele>
        <time>2019-07-11T06:04:30Z</time>
      </trkpt>
      <trkpt lat="39.5504910" lon="-7.7384020">
        <ele>234.4</ele>
        <time>2019-07-11T06:04:32Z</time>
      </trkpt>
      <trkpt lat="39.5504810" lon="-7.7384000">
        <ele>234.2</ele>
        <time>2019-07-11T06:04:35Z</time>
      </trkpt>
      <trkpt lat="39.5504360" lon="-7.7384010">
        <ele>233.8</ele>
        <time>2019-07-11T06:04:40Z</time>
      </trkpt>
      <trkpt lat="39.5504210" lon="-7.7384110">
        <ele>233.6</ele>
        <time>2019-07-11T06:04:41Z</time>
      </trkpt>
      <trkpt lat="39.5503520" lon="-7.7384480">
        <ele>232.8</ele>
        <time>2019-07-11T06:04:46Z</time>
      </trkpt>
      <trkpt lat="39.5503290" lon="-7.7384670">
        <ele>232.6</ele>
        <time>2019-07-11T06:04:47Z</time>
      </trkpt>
      <trkpt lat="39.5501990" lon="-7.7385470">
        <ele>231.8</ele>
        <time>2019-07-11T06:04:51Z</time>
      </trkpt>
      <trkpt lat="39.5501210" lon="-7.7385800">
        <ele>231.4</ele>
        <time>2019-07-11T06:04:53Z</time>
      </trkpt>
      <trkpt lat="39.5500250" lon="-7.7386200">
        <ele>231.4</ele>
        <time>2019-07-11T06:04:56Z</time>
      </trkpt>
      <trkpt lat="39.5499660" lon="-7.7386790">
        <ele>231.6</ele>
        <time>2019-07-11T06:04:59Z</time>
      </trkpt>
      <trkpt lat="39.5499100" lon="-7.7387410">
        <ele>231.8</ele>
        <time>2019-07-11T06:05:02Z</time>
      </trkpt>
      <trkpt lat="39.5498310" lon="-7.7388300">
        <ele>232.0</ele>
        <time>2019-07-11T06:05:06Z</time>
      </trkpt>
      <trkpt lat="39.5498100" lon="-7.7388550">
        <ele>232.0</ele>
        <time>2019-07-11T06:05:07Z</time>
      </trkpt>
      <trkpt lat="39.5496810" lon="-7.7390340">
        <ele>232.0</ele>
        <time>2019-07-11T06:05:13Z</time>
      </trkpt>
      <trkpt lat="39.5496070" lon="-7.7390930">
        <ele>232.4</ele>
        <time>2019-07-11T06:05:16Z</time>
      </trkpt>
      <trkpt lat="39.5495360" lon="-7.7391320">
        <ele>233.4</ele>
        <time>2019-07-11T06:05:19Z</time>
      </trkpt>
      <trkpt lat="39.5495190" lon="-7.7391430">
        <ele>233.6</ele>
        <time>2019-07-11T06:05:20Z</time>
      </trkpt>
      <trkpt lat="39.5494620" lon="-7.7391790">
        <ele>233.8</ele>
        <time>2019-07-11T06:05:23Z</time>
      </trkpt>
      <trkpt lat="39.5494020" lon="-7.7392170">
        <ele>234.0</ele>
        <time>2019-07-11T06:05:26Z</time>
      </trkpt>
      <trkpt lat="39.5493640" lon="-7.7392430">
        <ele>234.6</ele>
        <time>2019-07-11T06:05:28Z</time>
      </trkpt>
      <trkpt lat="39.5493450" lon="-7.7392600">
        <ele>234.8</ele>
        <time>2019-07-11T06:05:29Z</time>
      </trkpt>
      <trkpt lat="39.5492680" lon="-7.7393270">
        <ele>235.6</ele>
        <time>2019-07-11T06:05:33Z</time>
      </trkpt>
      <trkpt lat="39.5492530" lon="-7.7393450">
        <ele>236.0</ele>
        <time>2019-07-11T06:05:34Z</time>
      </trkpt>
      <trkpt lat="39.5491740" lon="-7.7394380">
        <ele>237.0</ele>
        <time>2019-07-11T06:05:39Z</time>
      </trkpt>
      <trkpt lat="39.5491600" lon="-7.7394590">
        <ele>237.0</ele>
        <time>2019-07-11T06:05:40Z</time>
      </trkpt>
      <trkpt lat="39.5490690" lon="-7.7395740">
        <ele>238.0</ele>
        <time>2019-07-11T06:05:46Z</time>
      </trkpt>
      <trkpt lat="39.5490500" lon="-7.7395940">
        <ele>238.2</ele>
        <time>2019-07-11T06:05:47Z</time>
      </trkpt>
      <trkpt lat="39.5489270" lon="-7.7397590">
        <ele>239.2</ele>
        <time>2019-07-11T06:05:55Z</time>
      </trkpt>
      <trkpt lat="39.5488780" lon="-7.7398030">
        <ele>240.2</ele>
        <time>2019-07-11T06:05:58Z</time>
      </trkpt>
      <trkpt lat="39.5488360" lon="-7.7398500">
        <ele>240.8</ele>
        <time>2019-07-11T06:06:01Z</time>
      </trkpt>
      <trkpt lat="39.5488020" lon="-7.7398810">
        <ele>241.2</ele>
        <time>2019-07-11T06:06:03Z</time>
      </trkpt>
      <trkpt lat="39.5487340" lon="-7.7399560">
        <ele>242.4</ele>
        <time>2019-07-11T06:06:07Z</time>
      </trkpt>
      <trkpt lat="39.5487190" lon="-7.7399760">
        <ele>242.6</ele>
        <time>2019-07-11T06:06:08Z</time>
      </trkpt>
      <trkpt lat="39.5486690" lon="-7.7400380">
        <ele>243.4</ele>
        <time>2019-07-11T06:06:11Z</time>
      </trkpt>
      <trkpt lat="39.5486070" lon="-7.7401200">
        <ele>244.4</ele>
        <time>2019-07-11T06:06:15Z</time>
      </trkpt>
      <trkpt lat="39.5485510" lon="-7.7402090">
        <ele>245.6</ele>
        <time>2019-07-11T06:06:19Z</time>
      </trkpt>
      <trkpt lat="39.5485030" lon="-7.7403100">
        <ele>246.6</ele>
        <time>2019-07-11T06:06:23Z</time>
      </trkpt>
      <trkpt lat="39.5484920" lon="-7.7403370">
        <ele>246.6</ele>
        <time>2019-07-11T06:06:24Z</time>
      </trkpt>
      <trkpt lat="39.5484330" lon="-7.7404280">
        <ele>247.6</ele>
        <time>2019-07-11T06:06:28Z</time>
      </trkpt>
      <trkpt lat="39.5484260" lon="-7.7404550">
        <ele>247.8</ele>
        <time>2019-07-11T06:06:29Z</time>
      </trkpt>
      <trkpt lat="39.5483570" lon="-7.7405770">
        <ele>249.0</ele>
        <time>2019-07-11T06:06:34Z</time>
      </trkpt>
      <trkpt lat="39.5483030" lon="-7.7406730">
        <ele>250.0</ele>
        <time>2019-07-11T06:06:38Z</time>
      </trkpt>
      <trkpt lat="39.5482800" lon="-7.7407300">
        <ele>250.6</ele>
        <time>2019-07-11T06:06:40Z</time>
      </trkpt>
      <trkpt lat="39.5482480" lon="-7.7407800">
        <ele>251.2</ele>
        <time>2019-07-11T06:06:42Z</time>
      </trkpt>
      <trkpt lat="39.5481540" lon="-7.7408940">
        <ele>252.2</ele>
        <time>2019-07-11T06:06:47Z</time>
      </trkpt>
      <trkpt lat="39.5481350" lon="-7.7409180">
        <ele>252.2</ele>
        <time>2019-07-11T06:06:48Z</time>
      </trkpt>
      <trkpt lat="39.5480100" lon="-7.7410520">
        <ele>253.4</ele>
        <time>2019-07-11T06:06:54Z</time>
      </trkpt>
      <trkpt lat="39.5478820" lon="-7.7412350">
        <ele>253.4</ele>
        <time>2019-07-11T06:07:00Z</time>
      </trkpt>
      <trkpt lat="39.5478390" lon="-7.7413940">
        <ele>253.4</ele>
        <time>2019-07-11T06:07:03Z</time>
      </trkpt>
      <trkpt lat="39.5478250" lon="-7.7414590">
        <ele>253.2</ele>
        <time>2019-07-11T06:07:04Z</time>
      </trkpt>
      <trkpt lat="39.5478120" lon="-7.7415320">
        <ele>252.8</ele>
        <time>2019-07-11T06:07:05Z</time>
      </trkpt>
      <trkpt lat="39.5478000" lon="-7.7416130">
        <ele>252.6</ele>
        <time>2019-07-11T06:07:06Z</time>
      </trkpt>
      <trkpt lat="39.5477860" lon="-7.7417020">
        <ele>252.2</ele>
        <time>2019-07-11T06:07:07Z</time>
      </trkpt>
      <trkpt lat="39.5477720" lon="-7.7417970">
        <ele>251.8</ele>
        <time>2019-07-11T06:07:08Z</time>
      </trkpt>
      <trkpt lat="39.5477380" lon="-7.7420100">
        <ele>250.8</ele>
        <time>2019-07-11T06:07:10Z</time>
      </trkpt>
      <trkpt lat="39.5477160" lon="-7.7421250">
        <ele>250.0</ele>
        <time>2019-07-11T06:07:11Z</time>
      </trkpt>
      <trkpt lat="39.5476920" lon="-7.7422450">
        <ele>249.0</ele>
        <time>2019-07-11T06:07:12Z</time>
      </trkpt>
      <trkpt lat="39.5476360" lon="-7.7424920">
        <ele>247.8</ele>
        <time>2019-07-11T06:07:14Z</time>
      </trkpt>
      <trkpt lat="39.5475160" lon="-7.7428500">
        <ele>246.4</ele>
        <time>2019-07-11T06:07:17Z</time>
      </trkpt>
      <trkpt lat="39.5473810" lon="-7.7431790">
        <ele>244.8</ele>
        <time>2019-07-11T06:07:20Z</time>
      </trkpt>
      <trkpt lat="39.5472520" lon="-7.7434900">
        <ele>244.2</ele>
        <time>2019-07-11T06:07:23Z</time>
      </trkpt>
      <trkpt lat="39.5472080" lon="-7.7435920">
        <ele>244.0</ele>
        <time>2019-07-11T06:07:24Z</time>
      </trkpt>
      <trkpt lat="39.5471240" lon="-7.7437920">
        <ele>243.8</ele>
        <time>2019-07-11T06:07:26Z</time>
      </trkpt>
      <trkpt lat="39.5470300" lon="-7.7439770">
        <ele>243.0</ele>
        <time>2019-07-11T06:07:28Z</time>
      </trkpt>
      <trkpt lat="39.5469740" lon="-7.7440550">
        <ele>243.0</ele>
        <time>2019-07-11T06:07:29Z</time>
      </trkpt>
      <trkpt lat="39.5469150" lon="-7.7441210">
        <ele>242.6</ele>
        <time>2019-07-11T06:07:30Z</time>
      </trkpt>
      <trkpt lat="39.5467960" lon="-7.7442340">
        <ele>242.6</ele>
        <time>2019-07-11T06:07:32Z</time>
      </trkpt>
      <trkpt lat="39.5467430" lon="-7.7442870">
        <ele>242.6</ele>
        <time>2019-07-11T06:07:33Z</time>
      </trkpt>
      <trkpt lat="39.5465660" lon="-7.7444730">
        <ele>243.8</ele>
        <time>2019-07-11T06:07:37Z</time>
      </trkpt>
      <trkpt lat="39.5465280" lon="-7.7445140">
        <ele>244.0</ele>
        <time>2019-07-11T06:07:38Z</time>
      </trkpt>
      <trkpt lat="39.5464940" lon="-7.7445570">
        <ele>244.2</ele>
        <time>2019-07-11T06:07:39Z</time>
      </trkpt>
      <trkpt lat="39.5464480" lon="-7.7446480">
        <ele>245.0</ele>
        <time>2019-07-11T06:07:41Z</time>
      </trkpt>
      <trkpt lat="39.5464350" lon="-7.7446940">
        <ele>245.4</ele>
        <time>2019-07-11T06:07:42Z</time>
      </trkpt>
      <trkpt lat="39.5464170" lon="-7.7447830">
        <ele>246.6</ele>
        <time>2019-07-11T06:07:44Z</time>
      </trkpt>
      <trkpt lat="39.5464090" lon="-7.7448670">
        <ele>247.6</ele>
        <time>2019-07-11T06:07:46Z</time>
      </trkpt>
      <trkpt lat="39.5464040" lon="-7.7449090">
        <ele>247.8</ele>
        <time>2019-07-11T06:07:47Z</time>
      </trkpt>
      <trkpt lat="39.5463990" lon="-7.7449500">
        <ele>248.4</ele>
        <time>2019-07-11T06:07:48Z</time>
      </trkpt>
      <trkpt lat="39.5463950" lon="-7.7449920">
        <ele>248.6</ele>
        <time>2019-07-11T06:07:49Z</time>
      </trkpt>
      <trkpt lat="39.5463930" lon="-7.7450320">
        <ele>249.0</ele>
        <time>2019-07-11T06:07:50Z</time>
      </trkpt>
      <trkpt lat="39.5463900" lon="-7.7451100">
        <ele>249.8</ele>
        <time>2019-07-11T06:07:52Z</time>
      </trkpt>
      <trkpt lat="39.5463820" lon="-7.7451500">
        <ele>250.0</ele>
        <time>2019-07-11T06:07:53Z</time>
      </trkpt>
      <trkpt lat="39.5462710" lon="-7.7453900">
        <ele>251.0</ele>
        <time>2019-07-11T06:07:59Z</time>
      </trkpt>
      <trkpt lat="39.5462050" lon="-7.7454680">
        <ele>251.0</ele>
        <time>2019-07-11T06:08:01Z</time>
      </trkpt>
      <trkpt lat="39.5460450" lon="-7.7456130">
        <ele>250.8</ele>
        <time>2019-07-11T06:08:05Z</time>
      </trkpt>
      <trkpt lat="39.5457490" lon="-7.7458830">
        <ele>249.6</ele>
        <time>2019-07-11T06:08:11Z</time>
      </trkpt>
      <trkpt lat="39.5456910" lon="-7.7459320">
        <ele>249.4</ele>
        <time>2019-07-11T06:08:12Z</time>
      </trkpt>
      <trkpt lat="39.5456310" lon="-7.7459840">
        <ele>249.0</ele>
        <time>2019-07-11T06:08:13Z</time>
      </trkpt>
      <trkpt lat="39.5455690" lon="-7.7460390">
        <ele>248.6</ele>
        <time>2019-07-11T06:08:14Z</time>
      </trkpt>
      <trkpt lat="39.5454390" lon="-7.7461600">
        <ele>247.4</ele>
        <time>2019-07-11T06:08:16Z</time>
      </trkpt>
      <trkpt lat="39.5452960" lon="-7.7462890">
        <ele>246.4</ele>
        <time>2019-07-11T06:08:18Z</time>
      </trkpt>
      <trkpt lat="39.5451470" lon="-7.7464240">
        <ele>245.2</ele>
        <time>2019-07-11T06:08:20Z</time>
      </trkpt>
      <trkpt lat="39.5449910" lon="-7.7465650">
        <ele>244.2</ele>
        <time>2019-07-11T06:08:22Z</time>
      </trkpt>
      <trkpt lat="39.5448300" lon="-7.7467120">
        <ele>243.4</ele>
        <time>2019-07-11T06:08:24Z</time>
      </trkpt>
      <trkpt lat="39.5447510" lon="-7.7467860">
        <ele>242.8</ele>
        <time>2019-07-11T06:08:25Z</time>
      </trkpt>
      <trkpt lat="39.5445970" lon="-7.7469180">
        <ele>242.2</ele>
        <time>2019-07-11T06:08:27Z</time>
      </trkpt>
      <trkpt lat="39.5445230" lon="-7.7469690">
        <ele>242.0</ele>
        <time>2019-07-11T06:08:28Z</time>
      </trkpt>
      <trkpt lat="39.5444510" lon="-7.7470050">
        <ele>242.0</ele>
        <time>2019-07-11T06:08:29Z</time>
      </trkpt>
      <trkpt lat="39.5442340" lon="-7.7470600">
        <ele>242.0</ele>
        <time>2019-07-11T06:08:32Z</time>
      </trkpt>
      <trkpt lat="39.5441570" lon="-7.7470740">
        <ele>242.0</ele>
        <time>2019-07-11T06:08:33Z</time>
      </trkpt>
      <trkpt lat="39.5439950" lon="-7.7471190">
        <ele>241.8</ele>
        <time>2019-07-11T06:08:35Z</time>
      </trkpt>
      <trkpt lat="39.5438540" lon="-7.7472400">
        <ele>240.0</ele>
        <time>2019-07-11T06:08:37Z</time>
      </trkpt>
      <trkpt lat="39.5438090" lon="-7.7473310">
        <ele>238.8</ele>
        <time>2019-07-11T06:08:38Z</time>
      </trkpt>
      <trkpt lat="39.5437780" lon="-7.7474320">
        <ele>237.6</ele>
        <time>2019-07-11T06:08:39Z</time>
      </trkpt>
      <trkpt lat="39.5437520" lon="-7.7475310">
        <ele>236.2</ele>
        <time>2019-07-11T06:08:40Z</time>
      </trkpt>
      <trkpt lat="39.5437180" lon="-7.7476200">
        <ele>235.2</ele>
        <time>2019-07-11T06:08:41Z</time>
      </trkpt>
      <trkpt lat="39.5436710" lon="-7.7476950">
        <ele>234.2</ele>
        <time>2019-07-11T06:08:42Z</time>
      </trkpt>
      <trkpt lat="39.5436090" lon="-7.7477460">
        <ele>233.4</ele>
        <time>2019-07-11T06:08:43Z</time>
      </trkpt>
      <trkpt lat="39.5435360" lon="-7.7477760">
        <ele>232.6</ele>
        <time>2019-07-11T06:08:44Z</time>
      </trkpt>
      <trkpt lat="39.5433510" lon="-7.7477650">
        <ele>230.8</ele>
        <time>2019-07-11T06:08:46Z</time>
      </trkpt>
      <trkpt lat="39.5432510" lon="-7.7477480">
        <ele>229.8</ele>
        <time>2019-07-11T06:08:47Z</time>
      </trkpt>
      <trkpt lat="39.5431470" lon="-7.7477320">
        <ele>228.0</ele>
        <time>2019-07-11T06:08:48Z</time>
      </trkpt>
      <trkpt lat="39.5430400" lon="-7.7477170">
        <ele>227.0</ele>
        <time>2019-07-11T06:08:49Z</time>
      </trkpt>
      <trkpt lat="39.5428250" lon="-7.7476920">
        <ele>225.4</ele>
        <time>2019-07-11T06:08:51Z</time>
      </trkpt>
      <trkpt lat="39.5427210" lon="-7.7476790">
        <ele>224.8</ele>
        <time>2019-07-11T06:08:52Z</time>
      </trkpt>
      <trkpt lat="39.5426230" lon="-7.7476530">
        <ele>224.2</ele>
        <time>2019-07-11T06:08:53Z</time>
      </trkpt>
      <trkpt lat="39.5424530" lon="-7.7475450">
        <ele>223.4</ele>
        <time>2019-07-11T06:08:55Z</time>
      </trkpt>
      <trkpt lat="39.5422710" lon="-7.7473170">
        <ele>223.6</ele>
        <time>2019-07-11T06:08:58Z</time>
      </trkpt>
      <trkpt lat="39.5421230" lon="-7.7471200">
        <ele>224.0</ele>
        <time>2019-07-11T06:09:01Z</time>
      </trkpt>
      <trkpt lat="39.5420690" lon="-7.7470810">
        <ele>224.2</ele>
        <time>2019-07-11T06:09:02Z</time>
      </trkpt>
      <trkpt lat="39.5419100" lon="-7.7470690">
        <ele>224.6</ele>
        <time>2019-07-11T06:09:05Z</time>
      </trkpt>
      <trkpt lat="39.5418630" lon="-7.7470830">
        <ele>224.8</ele>
        <time>2019-07-11T06:09:06Z</time>
      </trkpt>
      <trkpt lat="39.5417790" lon="-7.7471120">
        <ele>225.2</ele>
        <time>2019-07-11T06:09:08Z</time>
      </trkpt>
      <trkpt lat="39.5417040" lon="-7.7471420">
        <ele>225.6</ele>
        <time>2019-07-11T06:09:10Z</time>
      </trkpt>
      <trkpt lat="39.5416680" lon="-7.7471530">
        <ele>225.8</ele>
        <time>2019-07-11T06:09:11Z</time>
      </trkpt>
      <trkpt lat="39.5415720" lon="-7.7471790">
        <ele>226.8</ele>
        <time>2019-07-11T06:09:14Z</time>
      </trkpt>
      <trkpt lat="39.5414920" lon="-7.7472150">
        <ele>227.6</ele>
        <time>2019-07-11T06:09:17Z</time>
      </trkpt>
      <trkpt lat="39.5414420" lon="-7.7472290">
        <ele>228.0</ele>
        <time>2019-07-11T06:09:19Z</time>
      </trkpt>
      <trkpt lat="39.5414180" lon="-7.7472330">
        <ele>228.4</ele>
        <time>2019-07-11T06:09:20Z</time>
      </trkpt>
      <trkpt lat="39.5413670" lon="-7.7472300">
        <ele>229.0</ele>
        <time>2019-07-11T06:09:22Z</time>
      </trkpt>
      <trkpt lat="39.5413420" lon="-7.7472280">
        <ele>229.4</ele>
        <time>2019-07-11T06:09:23Z</time>
      </trkpt>
      <trkpt lat="39.5412740" lon="-7.7471980">
        <ele>230.2</ele>
        <time>2019-07-11T06:09:26Z</time>
      </trkpt>
      <trkpt lat="39.5412330" lon="-7.7471720">
        <ele>230.8</ele>
        <time>2019-07-11T06:09:28Z</time>
      </trkpt>
      <trkpt lat="39.5412140" lon="-7.7471560">
        <ele>231.2</ele>
        <time>2019-07-11T06:09:29Z</time>
      </trkpt>
      <trkpt lat="39.5411960" lon="-7.7471380">
        <ele>231.4</ele>
        <time>2019-07-11T06:09:30Z</time>
      </trkpt>
      <trkpt lat="39.5411450" lon="-7.7470820">
        <ele>232.0</ele>
        <time>2019-07-11T06:09:33Z</time>
      </trkpt>
      <trkpt lat="39.5411050" lon="-7.7470540">
        <ele>232.4</ele>
        <time>2019-07-11T06:09:35Z</time>
      </trkpt>
      <trkpt lat="39.5410840" lon="-7.7470410">
        <ele>232.6</ele>
        <time>2019-07-11T06:09:36Z</time>
      </trkpt>
      <trkpt lat="39.5410260" lon="-7.7470110">
        <ele>233.6</ele>
        <time>2019-07-11T06:09:39Z</time>
      </trkpt>
      <trkpt lat="39.5409640" lon="-7.7470060">
        <ele>234.4</ele>
        <time>2019-07-11T06:09:42Z</time>
      </trkpt>
      <trkpt lat="39.5409430" lon="-7.7470060">
        <ele>234.8</ele>
        <time>2019-07-11T06:09:43Z</time>
      </trkpt>
      <trkpt lat="39.5408600" lon="-7.7469990">
        <ele>236.0</ele>
        <time>2019-07-11T06:09:47Z</time>
      </trkpt>
      <trkpt lat="39.5407770" lon="-7.7469870">
        <ele>237.2</ele>
        <time>2019-07-11T06:09:51Z</time>
      </trkpt>
      <trkpt lat="39.5406930" lon="-7.7469680">
        <ele>238.2</ele>
        <time>2019-07-11T06:09:55Z</time>
      </trkpt>
      <trkpt lat="39.5406070" lon="-7.7469350">
        <ele>239.4</ele>
        <time>2019-07-11T06:09:59Z</time>
      </trkpt>
      <trkpt lat="39.5405160" lon="-7.7468910">
        <ele>240.4</ele>
        <time>2019-07-11T06:10:03Z</time>
      </trkpt>
      <trkpt lat="39.5404440" lon="-7.7468770">
        <ele>240.8</ele>
        <time>2019-07-11T06:10:06Z</time>
      </trkpt>
      <trkpt lat="39.5402490" lon="-7.7468040">
        <ele>241.6</ele>
        <time>2019-07-11T06:10:13Z</time>
      </trkpt>
      <trkpt lat="39.5400280" lon="-7.7467760">
        <ele>242.4</ele>
        <time>2019-07-11T06:10:20Z</time>
      </trkpt>
      <trkpt lat="39.5399270" lon="-7.7468120">
        <ele>242.6</ele>
        <time>2019-07-11T06:10:23Z</time>
      </trkpt>
      <trkpt lat="39.5398450" lon="-7.7468770">
        <ele>243.2</ele>
        <time>2019-07-11T06:10:26Z</time>
      </trkpt>
      <trkpt lat="39.5397670" lon="-7.7469540">
        <ele>243.6</ele>
        <time>2019-07-11T06:10:29Z</time>
      </trkpt>
      <trkpt lat="39.5397040" lon="-7.7470400">
        <ele>244.2</ele>
        <time>2019-07-11T06:10:32Z</time>
      </trkpt>
      <trkpt lat="39.5396160" lon="-7.7471550">
        <ele>244.8</ele>
        <time>2019-07-11T06:10:36Z</time>
      </trkpt>
      <trkpt lat="39.5395270" lon="-7.7472610">
        <ele>245.6</ele>
        <time>2019-07-11T06:10:40Z</time>
      </trkpt>
      <trkpt lat="39.5395080" lon="-7.7472870">
        <ele>245.8</ele>
        <time>2019-07-11T06:10:41Z</time>
      </trkpt>
      <trkpt lat="39.5393820" lon="-7.7474470">
        <ele>247.0</ele>
        <time>2019-07-11T06:10:47Z</time>
      </trkpt>
      <trkpt lat="39.5393000" lon="-7.7475430">
        <ele>248.4</ele>
        <time>2019-07-11T06:10:51Z</time>
      </trkpt>
      <trkpt lat="39.5392210" lon="-7.7476390">
        <ele>249.0</ele>
        <time>2019-07-11T06:10:55Z</time>
      </trkpt>
      <trkpt lat="39.5391830" lon="-7.7476850">
        <ele>249.6</ele>
        <time>2019-07-11T06:10:57Z</time>
      </trkpt>
      <trkpt lat="39.5391100" lon="-7.7477830">
        <ele>250.2</ele>
        <time>2019-07-11T06:11:01Z</time>
      </trkpt>
      <trkpt lat="39.5390700" lon="-7.7478280">
        <ele>250.6</ele>
        <time>2019-07-11T06:11:03Z</time>
      </trkpt>
      <trkpt lat="39.5389940" lon="-7.7479230">
        <ele>251.6</ele>
        <time>2019-07-11T06:11:07Z</time>
      </trkpt>
      <trkpt lat="39.5389530" lon="-7.7479670">
        <ele>252.2</ele>
        <time>2019-07-11T06:11:09Z</time>
      </trkpt>
      <trkpt lat="39.5389190" lon="-7.7480160">
        <ele>252.4</ele>
        <time>2019-07-11T06:11:11Z</time>
      </trkpt>
      <trkpt lat="39.5388410" lon="-7.7481010">
        <ele>253.2</ele>
        <time>2019-07-11T06:11:15Z</time>
      </trkpt>
      <trkpt lat="39.5388130" lon="-7.7481440">
        <ele>253.6</ele>
        <time>2019-07-11T06:11:17Z</time>
      </trkpt>
      <trkpt lat="39.5387750" lon="-7.7482050">
        <ele>254.4</ele>
        <time>2019-07-11T06:11:21Z</time>
      </trkpt>
      <trkpt lat="39.5387430" lon="-7.7482300">
        <ele>254.6</ele>
        <time>2019-07-11T06:11:23Z</time>
      </trkpt>
      <trkpt lat="39.5386720" lon="-7.7482540">
        <ele>255.4</ele>
        <time>2019-07-11T06:11:27Z</time>
      </trkpt>
      <trkpt lat="39.5386500" lon="-7.7482490">
        <ele>255.8</ele>
        <time>2019-07-11T06:11:28Z</time>
      </trkpt>
      <trkpt lat="39.5385450" lon="-7.7481990">
        <ele>256.8</ele>
        <time>2019-07-11T06:11:33Z</time>
      </trkpt>
      <trkpt lat="39.5385250" lon="-7.7481940">
        <ele>257.0</ele>
        <time>2019-07-11T06:11:34Z</time>
      </trkpt>
      <trkpt lat="39.5384380" lon="-7.7481680">
        <ele>258.0</ele>
        <time>2019-07-11T06:11:38Z</time>
      </trkpt>
      <trkpt lat="39.5384140" lon="-7.7481680">
        <ele>258.4</ele>
        <time>2019-07-11T06:11:39Z</time>
      </trkpt>
      <trkpt lat="39.5383250" lon="-7.7482100">
        <ele>259.2</ele>
        <time>2019-07-11T06:11:43Z</time>
      </trkpt>
      <trkpt lat="39.5383030" lon="-7.7482220">
        <ele>259.4</ele>
        <time>2019-07-11T06:11:44Z</time>
      </trkpt>
      <trkpt lat="39.5382100" lon="-7.7482720">
        <ele>260.2</ele>
        <time>2019-07-11T06:11:49Z</time>
      </trkpt>
      <trkpt lat="39.5381950" lon="-7.7482780">
        <ele>260.4</ele>
        <time>2019-07-11T06:11:50Z</time>
      </trkpt>
      <trkpt lat="39.5380680" lon="-7.7483120">
        <ele>261.2</ele>
        <time>2019-07-11T06:11:56Z</time>
      </trkpt>
      <trkpt lat="39.5380440" lon="-7.7483150">
        <ele>261.4</ele>
        <time>2019-07-11T06:11:57Z</time>
      </trkpt>
      <trkpt lat="39.5378900" lon="-7.7483790">
        <ele>262.2</ele>
        <time>2019-07-11T06:12:03Z</time>
      </trkpt>
      <trkpt lat="39.5378330" lon="-7.7484000">
        <ele>262.2</ele>
        <time>2019-07-11T06:12:05Z</time>
      </trkpt>
      <trkpt lat="39.5377660" lon="-7.7484240">
        <ele>262.2</ele>
        <time>2019-07-11T06:12:07Z</time>
      </trkpt>
      <trkpt lat="39.5376980" lon="-7.7484470">
        <ele>262.2</ele>
        <time>2019-07-11T06:12:09Z</time>
      </trkpt>
      <trkpt lat="39.5376620" lon="-7.7484690">
        <ele>262.0</ele>
        <time>2019-07-11T06:12:10Z</time>
      </trkpt>
      <trkpt lat="39.5375740" lon="-7.7485880">
        <ele>261.4</ele>
        <time>2019-07-11T06:12:13Z</time>
      </trkpt>
      <trkpt lat="39.5375440" lon="-7.7486310">
        <ele>261.4</ele>
        <time>2019-07-11T06:12:14Z</time>
      </trkpt>
      <trkpt lat="39.5374630" lon="-7.7486990">
        <ele>261.0</ele>
        <time>2019-07-11T06:12:16Z</time>
      </trkpt>
      <trkpt lat="39.5374230" lon="-7.7487290">
        <ele>260.8</ele>
        <time>2019-07-11T06:12:17Z</time>
      </trkpt>
      <trkpt lat="39.5373840" lon="-7.7487610">
        <ele>260.4</ele>
        <time>2019-07-11T06:12:18Z</time>
      </trkpt>
      <trkpt lat="39.5373430" lon="-7.7487880">
        <ele>260.0</ele>
        <time>2019-07-11T06:12:19Z</time>
      </trkpt>
      <trkpt lat="39.5372630" lon="-7.7487850">
        <ele>259.2</ele>
        <time>2019-07-11T06:12:21Z</time>
      </trkpt>
      <trkpt lat="39.5372320" lon="-7.7487550">
        <ele>258.8</ele>
        <time>2019-07-11T06:12:22Z</time>
      </trkpt>
      <trkpt lat="39.5371990" lon="-7.7487170">
        <ele>258.4</ele>
        <time>2019-07-11T06:12:23Z</time>
      </trkpt>
      <trkpt lat="39.5371620" lon="-7.7486840">
        <ele>258.2</ele>
        <time>2019-07-11T06:12:24Z</time>
      </trkpt>
      <trkpt lat="39.5370500" lon="-7.7486790">
        <ele>258.2</ele>
        <time>2019-07-11T06:12:27Z</time>
      </trkpt>
      <trkpt lat="39.5370010" lon="-7.7487070">
        <ele>258.8</ele>
        <time>2019-07-11T06:12:29Z</time>
      </trkpt>
      <trkpt lat="39.5369530" lon="-7.7487250">
        <ele>259.4</ele>
        <time>2019-07-11T06:12:31Z</time>
      </trkpt>
      <trkpt lat="39.5369280" lon="-7.7487350">
        <ele>259.8</ele>
        <time>2019-07-11T06:12:32Z</time>
      </trkpt>
      <trkpt lat="39.5369040" lon="-7.7487490">
        <ele>260.2</ele>
        <time>2019-07-11T06:12:33Z</time>
      </trkpt>
      <trkpt lat="39.5368560" lon="-7.7487710">
        <ele>260.6</ele>
        <time>2019-07-11T06:12:35Z</time>
      </trkpt>
      <trkpt lat="39.5367870" lon="-7.7488010">
        <ele>261.4</ele>
        <time>2019-07-11T06:12:38Z</time>
      </trkpt>
      <trkpt lat="39.5367170" lon="-7.7488360">
        <ele>262.2</ele>
        <time>2019-07-11T06:12:41Z</time>
      </trkpt>
      <trkpt lat="39.5366920" lon="-7.7488500">
        <ele>262.4</ele>
        <time>2019-07-11T06:12:42Z</time>
      </trkpt>
      <trkpt lat="39.5366380" lon="-7.7488720">
        <ele>263.0</ele>
        <time>2019-07-11T06:12:44Z</time>
      </trkpt>
      <trkpt lat="39.5365790" lon="-7.7488910">
        <ele>263.4</ele>
        <time>2019-07-11T06:12:46Z</time>
      </trkpt>
      <trkpt lat="39.5365000" lon="-7.7489300">
        <ele>264.2</ele>
        <time>2019-07-11T06:12:49Z</time>
      </trkpt>
      <trkpt lat="39.5364730" lon="-7.7489430">
        <ele>264.4</ele>
        <time>2019-07-11T06:12:50Z</time>
      </trkpt>
      <trkpt lat="39.5364450" lon="-7.7489580">
        <ele>264.6</ele>
        <time>2019-07-11T06:12:51Z</time>
      </trkpt>
      <trkpt lat="39.5363550" lon="-7.7489880">
        <ele>265.0</ele>
        <time>2019-07-11T06:12:54Z</time>
      </trkpt>
      <trkpt lat="39.5362650" lon="-7.7490240">
        <ele>265.8</ele>
        <time>2019-07-11T06:12:57Z</time>
      </trkpt>
      <trkpt lat="39.5362410" lon="-7.7490510">
        <ele>266.0</ele>
        <time>2019-07-11T06:12:58Z</time>
      </trkpt>
      <trkpt lat="39.5362290" lon="-7.7491180">
        <ele>266.2</ele>
        <time>2019-07-11T06:13:00Z</time>
      </trkpt>
      <trkpt lat="39.5362560" lon="-7.7492040">
        <ele>266.8</ele>
        <time>2019-07-11T06:13:03Z</time>
      </trkpt>
      <trkpt lat="39.5362690" lon="-7.7492290">
        <ele>267.2</ele>
        <time>2019-07-11T06:13:04Z</time>
      </trkpt>
      <trkpt lat="39.5362780" lon="-7.7492570">
        <ele>267.4</ele>
        <time>2019-07-11T06:13:05Z</time>
      </trkpt>
      <trkpt lat="39.5362890" lon="-7.7492870">
        <ele>267.8</ele>
        <time>2019-07-11T06:13:06Z</time>
      </trkpt>
      <trkpt lat="39.5363210" lon="-7.7493770">
        <ele>269.2</ele>
        <time>2019-07-11T06:13:09Z</time>
      </trkpt>
      <trkpt lat="39.5363230" lon="-7.7494820">
        <ele>270.2</ele>
        <time>2019-07-11T06:13:12Z</time>
      </trkpt>
      <trkpt lat="39.5363170" lon="-7.7495170">
        <ele>270.4</ele>
        <time>2019-07-11T06:13:13Z</time>
      </trkpt>
      <trkpt lat="39.5362740" lon="-7.7496350">
        <ele>271.4</ele>
        <time>2019-07-11T06:13:17Z</time>
      </trkpt>
      <trkpt lat="39.5362590" lon="-7.7496560">
        <ele>271.6</ele>
        <time>2019-07-11T06:13:18Z</time>
      </trkpt>
      <trkpt lat="39.5362030" lon="-7.7497040">
        <ele>272.6</ele>
        <time>2019-07-11T06:13:21Z</time>
      </trkpt>
      <trkpt lat="39.5361410" lon="-7.7497690">
        <ele>273.0</ele>
        <time>2019-07-11T06:13:24Z</time>
      </trkpt>
      <trkpt lat="39.5360960" lon="-7.7498140">
        <ele>274.0</ele>
        <time>2019-07-11T06:13:26Z</time>
      </trkpt>
      <trkpt lat="39.5360090" lon="-7.7499020">
        <ele>275.0</ele>
        <time>2019-07-11T06:13:30Z</time>
      </trkpt>
      <trkpt lat="39.5359220" lon="-7.7500000">
        <ele>275.2</ele>
        <time>2019-07-11T06:13:34Z</time>
      </trkpt>
      <trkpt lat="39.5358090" lon="-7.7501220">
        <ele>276.2</ele>
        <time>2019-07-11T06:13:39Z</time>
      </trkpt>
      <trkpt lat="39.5357630" lon="-7.7501760">
        <ele>276.4</ele>
        <time>2019-07-11T06:13:41Z</time>
      </trkpt>
      <trkpt lat="39.5356290" lon="-7.7503700">
        <ele>276.6</ele>
        <time>2019-07-11T06:13:47Z</time>
      </trkpt>
      <trkpt lat="39.5355830" lon="-7.7504400">
        <ele>276.8</ele>
        <time>2019-07-11T06:13:49Z</time>
      </trkpt>
      <trkpt lat="39.5355040" lon="-7.7505610">
        <ele>276.8</ele>
        <time>2019-07-11T06:13:52Z</time>
      </trkpt>
      <trkpt lat="39.5354240" lon="-7.7506870">
        <ele>276.6</ele>
        <time>2019-07-11T06:13:55Z</time>
      </trkpt>
      <trkpt lat="39.5353700" lon="-7.7507750">
        <ele>276.8</ele>
        <time>2019-07-11T06:13:57Z</time>
      </trkpt>
      <trkpt lat="39.5353180" lon="-7.7508630">
        <ele>276.8</ele>
        <time>2019-07-11T06:13:59Z</time>
      </trkpt>
      <trkpt lat="39.5352580" lon="-7.7510010">
        <ele>277.0</ele>
        <time>2019-07-11T06:14:02Z</time>
      </trkpt>
      <trkpt lat="39.5352420" lon="-7.7510460">
        <ele>277.2</ele>
        <time>2019-07-11T06:14:03Z</time>
      </trkpt>
      <trkpt lat="39.5351830" lon="-7.7512350">
        <ele>278.4</ele>
        <time>2019-07-11T06:14:08Z</time>
      </trkpt>
      <trkpt lat="39.5351730" lon="-7.7512650">
        <ele>278.6</ele>
        <time>2019-07-11T06:14:09Z</time>
      </trkpt>
      <trkpt lat="39.5351270" lon="-7.7513690">
        <ele>279.4</ele>
        <time>2019-07-11T06:14:13Z</time>
      </trkpt>
      <trkpt lat="39.5351130" lon="-7.7513950">
        <ele>279.8</ele>
        <time>2019-07-11T06:14:14Z</time>
      </trkpt>
      <trkpt lat="39.5350740" lon="-7.7514720">
        <ele>281.0</ele>
        <time>2019-07-11T06:14:17Z</time>
      </trkpt>
      <trkpt lat="39.5350220" lon="-7.7515770">
        <ele>282.0</ele>
        <time>2019-07-11T06:14:21Z</time>
      </trkpt>
      <trkpt lat="39.5349770" lon="-7.7516840">
        <ele>282.8</ele>
        <time>2019-07-11T06:14:25Z</time>
      </trkpt>
      <trkpt lat="39.5349460" lon="-7.7517700">
        <ele>283.4</ele>
        <time>2019-07-11T06:14:28Z</time>
      </trkpt>
      <trkpt lat="39.5349150" lon="-7.7518620">
        <ele>284.4</ele>
        <time>2019-07-11T06:14:31Z</time>
      </trkpt>
      <trkpt lat="39.5348850" lon="-7.7519560">
        <ele>285.4</ele>
        <time>2019-07-11T06:14:34Z</time>
      </trkpt>
      <trkpt lat="39.5347880" lon="-7.7521980">
        <ele>286.6</ele>
        <time>2019-07-11T06:14:41Z</time>
      </trkpt>
      <trkpt lat="39.5346960" lon="-7.7524040">
        <ele>286.6</ele>
        <time>2019-07-11T06:14:46Z</time>
      </trkpt>
      <trkpt lat="39.5346150" lon="-7.7525900">
        <ele>286.6</ele>
        <time>2019-07-11T06:14:50Z</time>
      </trkpt>
      <trkpt lat="39.5345680" lon="-7.7527380">
        <ele>286.6</ele>
        <time>2019-07-11T06:14:53Z</time>
      </trkpt>
      <trkpt lat="39.5345430" lon="-7.7528410">
        <ele>286.6</ele>
        <time>2019-07-11T06:14:55Z</time>
      </trkpt>
      <trkpt lat="39.5344970" lon="-7.7529970">
        <ele>286.6</ele>
        <time>2019-07-11T06:14:58Z</time>
      </trkpt>
      <trkpt lat="39.5344650" lon="-7.7531040">
        <ele>286.6</ele>
        <time>2019-07-11T06:15:00Z</time>
      </trkpt>
      <trkpt lat="39.5344290" lon="-7.7532070">
        <ele>286.6</ele>
        <time>2019-07-11T06:15:02Z</time>
      </trkpt>
      <trkpt lat="39.5343460" lon="-7.7534220">
        <ele>286.6</ele>
        <time>2019-07-11T06:15:06Z</time>
      </trkpt>
      <trkpt lat="39.5343210" lon="-7.7534780">
        <ele>286.4</ele>
        <time>2019-07-11T06:15:07Z</time>
      </trkpt>
      <trkpt lat="39.5342480" lon="-7.7536500">
        <ele>286.4</ele>
        <time>2019-07-11T06:15:10Z</time>
      </trkpt>
      <trkpt lat="39.5342230" lon="-7.7537080">
        <ele>286.4</ele>
        <time>2019-07-11T06:15:11Z</time>
      </trkpt>
      <trkpt lat="39.5341730" lon="-7.7538250">
        <ele>286.4</ele>
        <time>2019-07-11T06:15:13Z</time>
      </trkpt>
      <trkpt lat="39.5341190" lon="-7.7539470">
        <ele>286.4</ele>
        <time>2019-07-11T06:15:15Z</time>
      </trkpt>
      <trkpt lat="39.5340560" lon="-7.7541490">
        <ele>285.2</ele>
        <time>2019-07-11T06:15:18Z</time>
      </trkpt>
      <trkpt lat="39.5340430" lon="-7.7542250">
        <ele>285.0</ele>
        <time>2019-07-11T06:15:19Z</time>
      </trkpt>
      <trkpt lat="39.5340360" lon="-7.7543010">
        <ele>284.4</ele>
        <time>2019-07-11T06:15:20Z</time>
      </trkpt>
      <trkpt lat="39.5340350" lon="-7.7543710">
        <ele>283.8</ele>
        <time>2019-07-11T06:15:21Z</time>
      </trkpt>
      <trkpt lat="39.5340290" lon="-7.7544990">
        <ele>282.6</ele>
        <time>2019-07-11T06:15:23Z</time>
      </trkpt>
      <trkpt lat="39.5340290" lon="-7.7545540">
        <ele>282.2</ele>
        <time>2019-07-11T06:15:24Z</time>
      </trkpt>
      <trkpt lat="39.5340160" lon="-7.7546550">
        <ele>281.4</ele>
        <time>2019-07-11T06:15:26Z</time>
      </trkpt>
      <trkpt lat="39.5340000" lon="-7.7547050">
        <ele>281.0</ele>
        <time>2019-07-11T06:15:27Z</time>
      </trkpt>
      <trkpt lat="39.5339520" lon="-7.7548070">
        <ele>280.2</ele>
        <time>2019-07-11T06:15:29Z</time>
      </trkpt>
      <trkpt lat="39.5338990" lon="-7.7549780">
        <ele>279.2</ele>
        <time>2019-07-11T06:15:32Z</time>
      </trkpt>
      <trkpt lat="39.5338940" lon="-7.7551640">
        <ele>278.8</ele>
        <time>2019-07-11T06:15:35Z</time>
      </trkpt>
      <trkpt lat="39.5338890" lon="-7.7553470">
        <ele>278.4</ele>
        <time>2019-07-11T06:15:38Z</time>
      </trkpt>
      <trkpt lat="39.5338800" lon="-7.7555800">
        <ele>278.2</ele>
        <time>2019-07-11T06:15:42Z</time>
      </trkpt>
      <trkpt lat="39.5338700" lon="-7.7558000">
        <ele>278.2</ele>
        <time>2019-07-11T06:15:46Z</time>
      </trkpt>
      <trkpt lat="39.5338670" lon="-7.7559170">
        <ele>278.0</ele>
        <time>2019-07-11T06:15:48Z</time>
      </trkpt>
      <trkpt lat="39.5338600" lon="-7.7560450">
        <ele>277.6</ele>
        <time>2019-07-11T06:15:50Z</time>
      </trkpt>
      <trkpt lat="39.5338650" lon="-7.7561730">
        <ele>277.6</ele>
        <time>2019-07-11T06:15:52Z</time>
      </trkpt>
      <trkpt lat="39.5338830" lon="-7.7563590">
        <ele>277.2</ele>
        <time>2019-07-11T06:15:55Z</time>
      </trkpt>
      <trkpt lat="39.5339210" lon="-7.7564650">
        <ele>277.4</ele>
        <time>2019-07-11T06:15:57Z</time>
      </trkpt>
      <trkpt lat="39.5339640" lon="-7.7565570">
        <ele>277.2</ele>
        <time>2019-07-11T06:15:59Z</time>
      </trkpt>
      <trkpt lat="39.5340760" lon="-7.7567280">
        <ele>276.6</ele>
        <time>2019-07-11T06:16:03Z</time>
      </trkpt>
      <trkpt lat="39.5341520" lon="-7.7568190">
        <ele>276.2</ele>
        <time>2019-07-11T06:16:05Z</time>
      </trkpt>
      <trkpt lat="39.5342350" lon="-7.7569160">
        <ele>275.0</ele>
        <time>2019-07-11T06:16:07Z</time>
      </trkpt>
      <trkpt lat="39.5342820" lon="-7.7569620">
        <ele>274.8</ele>
        <time>2019-07-11T06:16:08Z</time>
      </trkpt>
      <trkpt lat="39.5344270" lon="-7.7570990">
        <ele>273.8</ele>
        <time>2019-07-11T06:16:11Z</time>
      </trkpt>
      <trkpt lat="39.5345630" lon="-7.7572480">
        <ele>272.8</ele>
        <time>2019-07-11T06:16:14Z</time>
      </trkpt>
      <trkpt lat="39.5346070" lon="-7.7573000">
        <ele>272.6</ele>
        <time>2019-07-11T06:16:15Z</time>
      </trkpt>
      <trkpt lat="39.5347030" lon="-7.7573990">
        <ele>271.8</ele>
        <time>2019-07-11T06:16:17Z</time>
      </trkpt>
      <trkpt lat="39.5347840" lon="-7.7574980">
        <ele>271.2</ele>
        <time>2019-07-11T06:16:19Z</time>
      </trkpt>
      <trkpt lat="39.5348110" lon="-7.7575570">
        <ele>270.6</ele>
        <time>2019-07-11T06:16:20Z</time>
      </trkpt>
      <trkpt lat="39.5348670" lon="-7.7577710">
        <ele>269.6</ele>
        <time>2019-07-11T06:16:23Z</time>
      </trkpt>
      <trkpt lat="39.5348950" lon="-7.7579350">
        <ele>268.6</ele>
        <time>2019-07-11T06:16:25Z</time>
      </trkpt>
      <trkpt lat="39.5349080" lon="-7.7580180">
        <ele>268.4</ele>
        <time>2019-07-11T06:16:26Z</time>
      </trkpt>
      <trkpt lat="39.5349510" lon="-7.7583650">
        <ele>267.0</ele>
        <time>2019-07-11T06:16:30Z</time>
      </trkpt>
      <trkpt lat="39.5349600" lon="-7.7584570">
        <ele>266.4</ele>
        <time>2019-07-11T06:16:31Z</time>
      </trkpt>
      <trkpt lat="39.5349660" lon="-7.7585520">
        <ele>266.2</ele>
        <time>2019-07-11T06:16:32Z</time>
      </trkpt>
      <trkpt lat="39.5349670" lon="-7.7586490">
        <ele>265.8</ele>
        <time>2019-07-11T06:16:33Z</time>
      </trkpt>
      <trkpt lat="39.5349650" lon="-7.7589550">
        <ele>264.6</ele>
        <time>2019-07-11T06:16:36Z</time>
      </trkpt>
      <trkpt lat="39.5349660" lon="-7.7592470">
        <ele>264.2</ele>
        <time>2019-07-11T06:16:39Z</time>
      </trkpt>
      <trkpt lat="39.5349360" lon="-7.7594210">
        <ele>264.0</ele>
        <time>2019-07-11T06:16:41Z</time>
      </trkpt>
      <trkpt lat="39.5348360" lon="-7.7596770">
        <ele>263.4</ele>
        <time>2019-07-11T06:16:44Z</time>
      </trkpt>
      <trkpt lat="39.5347920" lon="-7.7597690">
        <ele>263.0</ele>
        <time>2019-07-11T06:16:45Z</time>
      </trkpt>
      <trkpt lat="39.5346990" lon="-7.7599650">
        <ele>262.0</ele>
        <time>2019-07-11T06:16:47Z</time>
      </trkpt>
      <trkpt lat="39.5346180" lon="-7.7601440">
        <ele>260.6</ele>
        <time>2019-07-11T06:16:49Z</time>
      </trkpt>
      <trkpt lat="39.5345110" lon="-7.7603380">
        <ele>259.8</ele>
        <time>2019-07-11T06:16:52Z</time>
      </trkpt>
      <trkpt lat="39.5344890" lon="-7.7603750">
        <ele>259.6</ele>
        <time>2019-07-11T06:16:53Z</time>
      </trkpt>
      <trkpt lat="39.5344600" lon="-7.7604270">
        <ele>259.4</ele>
        <time>2019-07-11T06:16:57Z</time>
      </trkpt>
      <trkpt lat="39.5344590" lon="-7.7604260">
        <ele>259.6</ele>
        <time>2019-07-11T06:16:58Z</time>
      </trkpt>
      <trkpt lat="39.5344290" lon="-7.7604420">
        <ele>259.4</ele>
        <time>2019-07-11T06:17:09Z</time>
      </trkpt>
      <trkpt lat="39.5343830" lon="-7.7604820">
        <ele>259.4</ele>
        <time>2019-07-11T06:17:11Z</time>
      </trkpt>
      <trkpt lat="39.5342650" lon="-7.7606300">
        <ele>258.6</ele>
        <time>2019-07-11T06:17:15Z</time>
      </trkpt>
      <trkpt lat="39.5342340" lon="-7.7606750">
        <ele>258.4</ele>
        <time>2019-07-11T06:17:16Z</time>
      </trkpt>
      <trkpt lat="39.5341460" lon="-7.7608320">
        <ele>257.8</ele>
        <time>2019-07-11T06:17:19Z</time>
      </trkpt>
      <trkpt lat="39.5341190" lon="-7.7608870">
        <ele>257.6</ele>
        <time>2019-07-11T06:17:20Z</time>
      </trkpt>
      <trkpt lat="39.5340740" lon="-7.7609950">
        <ele>257.0</ele>
        <time>2019-07-11T06:17:22Z</time>
      </trkpt>
      <trkpt lat="39.5340300" lon="-7.7611050">
        <ele>256.4</ele>
        <time>2019-07-11T06:17:24Z</time>
      </trkpt>
      <trkpt lat="39.5339770" lon="-7.7612450">
        <ele>255.0</ele>
        <time>2019-07-11T06:17:27Z</time>
      </trkpt>
      <trkpt lat="39.5339530" lon="-7.7612940">
        <ele>254.4</ele>
        <time>2019-07-11T06:17:28Z</time>
      </trkpt>
      <trkpt lat="39.5339280" lon="-7.7613430">
        <ele>253.8</ele>
        <time>2019-07-11T06:17:29Z</time>
      </trkpt>
      <trkpt lat="39.5338830" lon="-7.7614490">
        <ele>252.8</ele>
        <time>2019-07-11T06:17:31Z</time>
      </trkpt>
      <trkpt lat="39.5338590" lon="-7.7615080">
        <ele>252.2</ele>
        <time>2019-07-11T06:17:32Z</time>
      </trkpt>
      <trkpt lat="39.5338030" lon="-7.7616490">
        <ele>251.4</ele>
        <time>2019-07-11T06:17:34Z</time>
      </trkpt>
      <trkpt lat="39.5337450" lon="-7.7617960">
        <ele>250.4</ele>
        <time>2019-07-11T06:17:36Z</time>
      </trkpt>
      <trkpt lat="39.5337160" lon="-7.7618690">
        <ele>250.0</ele>
        <time>2019-07-11T06:17:37Z</time>
      </trkpt>
      <trkpt lat="39.5336510" lon="-7.7620190">
        <ele>248.6</ele>
        <time>2019-07-11T06:17:39Z</time>
      </trkpt>
      <trkpt lat="39.5336230" lon="-7.7621010">
        <ele>248.4</ele>
        <time>2019-07-11T06:17:40Z</time>
      </trkpt>
      <trkpt lat="39.5335870" lon="-7.7624000">
        <ele>247.8</ele>
        <time>2019-07-11T06:17:44Z</time>
      </trkpt>
      <trkpt lat="39.5335830" lon="-7.7624660">
        <ele>247.8</ele>
        <time>2019-07-11T06:17:45Z</time>
      </trkpt>
      <trkpt lat="39.5335740" lon="-7.7625850">
        <ele>248.0</ele>
        <time>2019-07-11T06:17:47Z</time>
      </trkpt>
      <trkpt lat="39.5335630" lon="-7.7626340">
        <ele>248.2</ele>
        <time>2019-07-11T06:17:48Z</time>
      </trkpt>
      <trkpt lat="39.5335500" lon="-7.7626760">
        <ele>248.4</ele>
        <time>2019-07-11T06:17:49Z</time>
      </trkpt>
      <trkpt lat="39.5335190" lon="-7.7627430">
        <ele>249.4</ele>
        <time>2019-07-11T06:17:51Z</time>
      </trkpt>
      <trkpt lat="39.5335000" lon="-7.7627690">
        <ele>249.8</ele>
        <time>2019-07-11T06:17:52Z</time>
      </trkpt>
      <trkpt lat="39.5334610" lon="-7.7628120">
        <ele>250.8</ele>
        <time>2019-07-11T06:17:54Z</time>
      </trkpt>
      <trkpt lat="39.5334450" lon="-7.7628270">
        <ele>251.2</ele>
        <time>2019-07-11T06:17:55Z</time>
      </trkpt>
      <trkpt lat="39.5333810" lon="-7.7628600">
        <ele>252.2</ele>
        <time>2019-07-11T06:17:59Z</time>
      </trkpt>
      <trkpt lat="39.5333450" lon="-7.7628690">
        <ele>252.2</ele>
        <time>2019-07-11T06:18:01Z</time>
      </trkpt>
      <trkpt lat="39.5332120" lon="-7.7628590">
        <ele>252.0</ele>
        <time>2019-07-11T06:18:07Z</time>
      </trkpt>
      <trkpt lat="39.5330050" lon="-7.7628090">
        <ele>251.8</ele>
        <time>2019-07-11T06:18:13Z</time>
      </trkpt>
      <trkpt lat="39.5329510" lon="-7.7628400">
        <ele>252.0</ele>
        <time>2019-07-11T06:18:15Z</time>
      </trkpt>
      <trkpt lat="39.5329140" lon="-7.7629070">
        <ele>252.2</ele>
        <time>2019-07-11T06:18:17Z</time>
      </trkpt>
      <trkpt lat="39.5328750" lon="-7.7629970">
        <ele>252.0</ele>
        <time>2019-07-11T06:18:19Z</time>
      </trkpt>
      <trkpt lat="39.5328560" lon="-7.7630480">
        <ele>251.8</ele>
        <time>2019-07-11T06:18:20Z</time>
      </trkpt>
      <trkpt lat="39.5328230" lon="-7.7631460">
        <ele>251.6</ele>
        <time>2019-07-11T06:18:22Z</time>
      </trkpt>
      <trkpt lat="39.5327420" lon="-7.7634500">
        <ele>251.4</ele>
        <time>2019-07-11T06:18:28Z</time>
      </trkpt>
      <trkpt lat="39.5327390" lon="-7.7635060">
        <ele>251.4</ele>
        <time>2019-07-11T06:18:29Z</time>
      </trkpt>
      <trkpt lat="39.5327590" lon="-7.7636320">
        <ele>251.2</ele>
        <time>2019-07-11T06:18:31Z</time>
      </trkpt>
      <trkpt lat="39.5327800" lon="-7.7637000">
        <ele>250.8</ele>
        <time>2019-07-11T06:18:32Z</time>
      </trkpt>
      <trkpt lat="39.5328010" lon="-7.7637680">
        <ele>250.4</ele>
        <time>2019-07-11T06:18:33Z</time>
      </trkpt>
      <trkpt lat="39.5328230" lon="-7.7638330">
        <ele>249.8</ele>
        <time>2019-07-11T06:18:34Z</time>
      </trkpt>
      <trkpt lat="39.5328410" lon="-7.7638960">
        <ele>249.6</ele>
        <time>2019-07-11T06:18:35Z</time>
      </trkpt>
      <trkpt lat="39.5328490" lon="-7.7640210">
        <ele>249.2</ele>
        <time>2019-07-11T06:18:37Z</time>
      </trkpt>
      <trkpt lat="39.5327800" lon="-7.7642030">
        <ele>248.8</ele>
        <time>2019-07-11T06:18:40Z</time>
      </trkpt>
      <trkpt lat="39.5326970" lon="-7.7643350">
        <ele>247.6</ele>
        <time>2019-07-11T06:18:42Z</time>
      </trkpt>
      <trkpt lat="39.5326180" lon="-7.7644520">
        <ele>246.4</ele>
        <time>2019-07-11T06:18:44Z</time>
      </trkpt>
      <trkpt lat="39.5325430" lon="-7.7645820">
        <ele>245.2</ele>
        <time>2019-07-11T06:18:46Z</time>
      </trkpt>
      <trkpt lat="39.5324120" lon="-7.7647760">
        <ele>244.2</ele>
        <time>2019-07-11T06:18:49Z</time>
      </trkpt>
      <trkpt lat="39.5322210" lon="-7.7649760">
        <ele>243.2</ele>
        <time>2019-07-11T06:18:53Z</time>
      </trkpt>
      <trkpt lat="39.5321800" lon="-7.7650180">
        <ele>242.8</ele>
        <time>2019-07-11T06:18:54Z</time>
      </trkpt>
      <trkpt lat="39.5320910" lon="-7.7651080">
        <ele>241.6</ele>
        <time>2019-07-11T06:18:56Z</time>
      </trkpt>
      <trkpt lat="39.5319940" lon="-7.7651580">
        <ele>240.6</ele>
        <time>2019-07-11T06:18:58Z</time>
      </trkpt>
      <trkpt lat="39.5318440" lon="-7.7652010">
        <ele>239.6</ele>
        <time>2019-07-11T06:19:02Z</time>
      </trkpt>
      <trkpt lat="39.5318020" lon="-7.7652100">
        <ele>239.6</ele>
        <time>2019-07-11T06:19:03Z</time>
      </trkpt>
      <trkpt lat="39.5317590" lon="-7.7652220">
        <ele>239.6</ele>
        <time>2019-07-11T06:19:04Z</time>
      </trkpt>
      <trkpt lat="39.5316240" lon="-7.7652790">
        <ele>239.0</ele>
        <time>2019-07-11T06:19:07Z</time>
      </trkpt>
      <trkpt lat="39.5315040" lon="-7.7654350">
        <ele>239.0</ele>
        <time>2019-07-11T06:19:11Z</time>
      </trkpt>
      <trkpt lat="39.5314790" lon="-7.7654770">
        <ele>239.2</ele>
        <time>2019-07-11T06:19:12Z</time>
      </trkpt>
      <trkpt lat="39.5313660" lon="-7.7656310">
        <ele>239.4</ele>
        <time>2019-07-11T06:19:16Z</time>
      </trkpt>
      <trkpt lat="39.5313120" lon="-7.7657090">
        <ele>239.6</ele>
        <time>2019-07-11T06:19:18Z</time>
      </trkpt>
      <trkpt lat="39.5312520" lon="-7.7658300">
        <ele>240.0</ele>
        <time>2019-07-11T06:19:21Z</time>
      </trkpt>
      <trkpt lat="39.5312030" lon="-7.7659410">
        <ele>240.6</ele>
        <time>2019-07-11T06:19:24Z</time>
      </trkpt>
      <trkpt lat="39.5311730" lon="-7.7660010">
        <ele>241.0</ele>
        <time>2019-07-11T06:19:26Z</time>
      </trkpt>
      <trkpt lat="39.5311660" lon="-7.7660970">
        <ele>241.6</ele>
        <time>2019-07-11T06:19:29Z</time>
      </trkpt>
      <trkpt lat="39.5311860" lon="-7.7661550">
        <ele>242.2</ele>
        <time>2019-07-11T06:19:31Z</time>
      </trkpt>
      <trkpt lat="39.5312200" lon="-7.7662010">
        <ele>242.4</ele>
        <time>2019-07-11T06:19:33Z</time>
      </trkpt>
      <trkpt lat="39.5312620" lon="-7.7662310">
        <ele>242.8</ele>
        <time>2019-07-11T06:19:35Z</time>
      </trkpt>
      <trkpt lat="39.5313370" lon="-7.7662510">
        <ele>243.6</ele>
        <time>2019-07-11T06:19:38Z</time>
      </trkpt>
      <trkpt lat="39.5313650" lon="-7.7662490">
        <ele>243.8</ele>
        <time>2019-07-11T06:19:39Z</time>
      </trkpt>
      <trkpt lat="39.5314920" lon="-7.7662360">
        <ele>244.0</ele>
        <time>2019-07-11T06:19:43Z</time>
      </trkpt>
      <trkpt lat="39.5315570" lon="-7.7662560">
        <ele>244.0</ele>
        <time>2019-07-11T06:19:45Z</time>
      </trkpt>
      <trkpt lat="39.5315820" lon="-7.7662820">
        <ele>244.0</ele>
        <time>2019-07-11T06:19:46Z</time>
      </trkpt>
      <trkpt lat="39.5316110" lon="-7.7663570">
        <ele>244.2</ele>
        <time>2019-07-11T06:19:48Z</time>
      </trkpt>
      <trkpt lat="39.5316210" lon="-7.7664670">
        <ele>244.8</ele>
        <time>2019-07-11T06:19:51Z</time>
      </trkpt>
      <trkpt lat="39.5316340" lon="-7.7665260">
        <ele>245.2</ele>
        <time>2019-07-11T06:19:53Z</time>
      </trkpt>
      <trkpt lat="39.5316430" lon="-7.7665550">
        <ele>245.6</ele>
        <time>2019-07-11T06:19:54Z</time>
      </trkpt>
      <trkpt lat="39.5316690" lon="-7.7666420">
        <ele>246.0</ele>
        <time>2019-07-11T06:19:57Z</time>
      </trkpt>
      <trkpt lat="39.5317120" lon="-7.7667170">
        <ele>246.6</ele>
        <time>2019-07-11T06:20:00Z</time>
      </trkpt>
      <trkpt lat="39.5317710" lon="-7.7667870">
        <ele>247.2</ele>
        <time>2019-07-11T06:20:03Z</time>
      </trkpt>
      <trkpt lat="39.5318350" lon="-7.7668550">
        <ele>247.6</ele>
        <time>2019-07-11T06:20:06Z</time>
      </trkpt>
      <trkpt lat="39.5319200" lon="-7.7669510">
        <ele>248.2</ele>
        <time>2019-07-11T06:20:10Z</time>
      </trkpt>
      <trkpt lat="39.5320030" lon="-7.7670510">
        <ele>248.8</ele>
        <time>2019-07-11T06:20:14Z</time>
      </trkpt>
      <trkpt lat="39.5320630" lon="-7.7671410">
        <ele>249.2</ele>
        <time>2019-07-11T06:20:17Z</time>
      </trkpt>
      <trkpt lat="39.5321000" lon="-7.7672260">
        <ele>249.4</ele>
        <time>2019-07-11T06:20:19Z</time>
      </trkpt>
      <trkpt lat="39.5321150" lon="-7.7672770">
        <ele>249.4</ele>
        <time>2019-07-11T06:20:20Z</time>
      </trkpt>
      <trkpt lat="39.5321500" lon="-7.7674330">
        <ele>249.2</ele>
        <time>2019-07-11T06:20:23Z</time>
      </trkpt>
      <trkpt lat="39.5322050" lon="-7.7676890">
        <ele>249.2</ele>
        <time>2019-07-11T06:20:28Z</time>
      </trkpt>
      <trkpt lat="39.5322190" lon="-7.7677430">
        <ele>249.2</ele>
        <time>2019-07-11T06:20:29Z</time>
      </trkpt>
      <trkpt lat="39.5323100" lon="-7.7679240">
        <ele>249.0</ele>
        <time>2019-07-11T06:20:33Z</time>
      </trkpt>
      <trkpt lat="39.5324580" lon="-7.7681610">
        <ele>249.8</ele>
        <time>2019-07-11T06:20:39Z</time>
      </trkpt>
      <trkpt lat="39.5325210" lon="-7.7682680">
        <ele>250.4</ele>
        <time>2019-07-11T06:20:42Z</time>
      </trkpt>
      <trkpt lat="39.5326130" lon="-7.7684470">
        <ele>251.6</ele>
        <time>2019-07-11T06:20:47Z</time>
      </trkpt>
      <trkpt lat="39.5327070" lon="-7.7686500">
        <ele>252.2</ele>
        <time>2019-07-11T06:20:52Z</time>
      </trkpt>
      <trkpt lat="39.5327240" lon="-7.7686970">
        <ele>252.2</ele>
        <time>2019-07-11T06:20:53Z</time>
      </trkpt>
      <trkpt lat="39.5327960" lon="-7.7689510">
        <ele>252.4</ele>
        <time>2019-07-11T06:20:58Z</time>
      </trkpt>
      <trkpt lat="39.5328110" lon="-7.7690560">
        <ele>252.6</ele>
        <time>2019-07-11T06:21:00Z</time>
      </trkpt>
      <trkpt lat="39.5328180" lon="-7.7692590">
        <ele>253.4</ele>
        <time>2019-07-11T06:21:04Z</time>
      </trkpt>
      <trkpt lat="39.5328190" lon="-7.7693570">
        <ele>253.6</ele>
        <time>2019-07-11T06:21:06Z</time>
      </trkpt>
      <trkpt lat="39.5328400" lon="-7.7696450">
        <ele>254.0</ele>
        <time>2019-07-11T06:21:12Z</time>
      </trkpt>
      <trkpt lat="39.5328670" lon="-7.7699280">
        <ele>254.6</ele>
        <time>2019-07-11T06:21:19Z</time>
      </trkpt>
      <trkpt lat="39.5328710" lon="-7.7699610">
        <ele>255.0</ele>
        <time>2019-07-11T06:21:20Z</time>
      </trkpt>
      <trkpt lat="39.5328750" lon="-7.7700680">
        <ele>255.8</ele>
        <time>2019-07-11T06:21:24Z</time>
      </trkpt>
      <trkpt lat="39.5328750" lon="-7.7700870">
        <ele>256.0</ele>
        <time>2019-07-11T06:21:25Z</time>
      </trkpt>
      <trkpt lat="39.5328730" lon="-7.7701070">
        <ele>256.4</ele>
        <time>2019-07-11T06:21:28Z</time>
      </trkpt>
      <trkpt lat="39.5328700" lon="-7.7701520">
        <ele>256.8</ele>
        <time>2019-07-11T06:21:48Z</time>
      </trkpt>
      <trkpt lat="39.5328700" lon="-7.7701720">
        <ele>256.8</ele>
        <time>2019-07-11T06:21:49Z</time>
      </trkpt>
      <trkpt lat="39.5328780" lon="-7.7702510">
        <ele>257.0</ele>
        <time>2019-07-11T06:21:52Z</time>
      </trkpt>
      <trkpt lat="39.5328760" lon="-7.7703300">
        <ele>257.0</ele>
        <time>2019-07-11T06:21:54Z</time>
      </trkpt>
      <trkpt lat="39.5328790" lon="-7.7704310">
        <ele>256.8</ele>
        <time>2019-07-11T06:21:56Z</time>
      </trkpt>
      <trkpt lat="39.5328850" lon="-7.7705550">
        <ele>256.4</ele>
        <time>2019-07-11T06:21:58Z</time>
      </trkpt>
      <trkpt lat="39.5328860" lon="-7.7707610">
        <ele>255.6</ele>
        <time>2019-07-11T06:22:01Z</time>
      </trkpt>
      <trkpt lat="39.5328900" lon="-7.7708320">
        <ele>255.0</ele>
        <time>2019-07-11T06:22:02Z</time>
      </trkpt>
      <trkpt lat="39.5328960" lon="-7.7709050">
        <ele>254.4</ele>
        <time>2019-07-11T06:22:03Z</time>
      </trkpt>
      <trkpt lat="39.5329190" lon="-7.7711300">
        <ele>253.2</ele>
        <time>2019-07-11T06:22:06Z</time>
      </trkpt>
      <trkpt lat="39.5329090" lon="-7.7713620">
        <ele>252.6</ele>
        <time>2019-07-11T06:22:09Z</time>
      </trkpt>
      <trkpt lat="39.5328780" lon="-7.7715090">
        <ele>252.2</ele>
        <time>2019-07-11T06:22:11Z</time>
      </trkpt>
      <trkpt lat="39.5328020" lon="-7.7717030">
        <ele>251.2</ele>
        <time>2019-07-11T06:22:14Z</time>
      </trkpt>
      <trkpt lat="39.5327710" lon="-7.7717680">
        <ele>251.0</ele>
        <time>2019-07-11T06:22:15Z</time>
      </trkpt>
      <trkpt lat="39.5326470" lon="-7.7720030">
        <ele>250.0</ele>
        <time>2019-07-11T06:22:19Z</time>
      </trkpt>
      <trkpt lat="39.5326250" lon="-7.7720510">
        <ele>250.0</ele>
        <time>2019-07-11T06:22:20Z</time>
      </trkpt>
      <trkpt lat="39.5325890" lon="-7.7721190">
        <ele>250.0</ele>
        <time>2019-07-11T06:22:23Z</time>
      </trkpt>
      <trkpt lat="39.5325890" lon="-7.7721200">
        <ele>250.0</ele>
        <time>2019-07-11T06:22:24Z</time>
      </trkpt>
      <trkpt lat="39.5325790" lon="-7.7721620">
        <ele>250.0</ele>
        <time>2019-07-11T06:22:40Z</time>
      </trkpt>
      <trkpt lat="39.5325480" lon="-7.7722100">
        <ele>250.0</ele>
        <time>2019-07-11T06:22:42Z</time>
      </trkpt>
      <trkpt lat="39.5324310" lon="-7.7723850">
        <ele>249.6</ele>
        <time>2019-07-11T06:22:47Z</time>
      </trkpt>
      <trkpt lat="39.5323750" lon="-7.7724440">
        <ele>249.6</ele>
        <time>2019-07-11T06:22:49Z</time>
      </trkpt>
      <trkpt lat="39.5323090" lon="-7.7724960">
        <ele>248.8</ele>
        <time>2019-07-11T06:22:51Z</time>
      </trkpt>
      <trkpt lat="39.5322740" lon="-7.7725200">
        <ele>248.4</ele>
        <time>2019-07-11T06:22:52Z</time>
      </trkpt>
      <trkpt lat="39.5322080" lon="-7.7725570">
        <ele>247.4</ele>
        <time>2019-07-11T06:22:54Z</time>
      </trkpt>
      <trkpt lat="39.5321100" lon="-7.7725950">
        <ele>246.2</ele>
        <time>2019-07-11T06:22:57Z</time>
      </trkpt>
      <trkpt lat="39.5320720" lon="-7.7725960">
        <ele>245.8</ele>
        <time>2019-07-11T06:22:58Z</time>
      </trkpt>
      <trkpt lat="39.5320310" lon="-7.7725920">
        <ele>245.2</ele>
        <time>2019-07-11T06:22:59Z</time>
      </trkpt>
      <trkpt lat="39.5318970" lon="-7.7725230">
        <ele>244.2</ele>
        <time>2019-07-11T06:23:02Z</time>
      </trkpt>
      <trkpt lat="39.5318480" lon="-7.7725010">
        <ele>243.8</ele>
        <time>2019-07-11T06:23:03Z</time>
      </trkpt>
      <trkpt lat="39.5317570" lon="-7.7725070">
        <ele>243.4</ele>
        <time>2019-07-11T06:23:05Z</time>
      </trkpt>
      <trkpt lat="39.5317080" lon="-7.7725820">
        <ele>242.6</ele>
        <time>2019-07-11T06:23:07Z</time>
      </trkpt>
      <trkpt lat="39.5317000" lon="-7.7726250">
        <ele>242.4</ele>
        <time>2019-07-11T06:23:08Z</time>
      </trkpt>
      <trkpt lat="39.5316960" lon="-7.7726670">
        <ele>242.6</ele>
        <time>2019-07-11T06:23:09Z</time>
      </trkpt>
      <trkpt lat="39.5316960" lon="-7.7727050">
        <ele>242.8</ele>
        <time>2019-07-11T06:23:10Z</time>
      </trkpt>
      <trkpt lat="39.5316970" lon="-7.7727680">
        <ele>243.4</ele>
        <time>2019-07-11T06:23:12Z</time>
      </trkpt>
      <trkpt lat="39.5316990" lon="-7.7727960">
        <ele>243.6</ele>
        <time>2019-07-11T06:23:13Z</time>
      </trkpt>
      <trkpt lat="39.5317000" lon="-7.7728270">
        <ele>243.8</ele>
        <time>2019-07-11T06:23:14Z</time>
      </trkpt>
      <trkpt lat="39.5316960" lon="-7.7728990">
        <ele>244.4</ele>
        <time>2019-07-11T06:23:16Z</time>
      </trkpt>
      <trkpt lat="39.5316720" lon="-7.7730660">
        <ele>244.8</ele>
        <time>2019-07-11T06:23:20Z</time>
      </trkpt>
      <trkpt lat="39.5316280" lon="-7.7732480">
        <ele>244.8</ele>
        <time>2019-07-11T06:23:24Z</time>
      </trkpt>
      <trkpt lat="39.5315930" lon="-7.7733320">
        <ele>245.0</ele>
        <time>2019-07-11T06:23:26Z</time>
      </trkpt>
      <trkpt lat="39.5315400" lon="-7.7734150">
        <ele>245.0</ele>
        <time>2019-07-11T06:23:28Z</time>
      </trkpt>
      <trkpt lat="39.5314870" lon="-7.7735180">
        <ele>244.4</ele>
        <time>2019-07-11T06:23:30Z</time>
      </trkpt>
      <trkpt lat="39.5314380" lon="-7.7736560">
        <ele>243.4</ele>
        <time>2019-07-11T06:23:32Z</time>
      </trkpt>
      <trkpt lat="39.5313670" lon="-7.7738730">
        <ele>242.8</ele>
        <time>2019-07-11T06:23:35Z</time>
      </trkpt>
      <trkpt lat="39.5312850" lon="-7.7740800">
        <ele>242.4</ele>
        <time>2019-07-11T06:23:38Z</time>
      </trkpt>
      <trkpt lat="39.5311570" lon="-7.7743220">
        <ele>241.8</ele>
        <time>2019-07-11T06:23:42Z</time>
      </trkpt>
      <trkpt lat="39.5311210" lon="-7.7743750">
        <ele>241.6</ele>
        <time>2019-07-11T06:23:43Z</time>
      </trkpt>
      <trkpt lat="39.5310550" lon="-7.7744700">
        <ele>241.6</ele>
        <time>2019-07-11T06:23:45Z</time>
      </trkpt>
      <trkpt lat="39.5310110" lon="-7.7745610">
        <ele>241.6</ele>
        <time>2019-07-11T06:23:47Z</time>
      </trkpt>
      <trkpt lat="39.5309620" lon="-7.7746370">
        <ele>242.0</ele>
        <time>2019-07-11T06:23:49Z</time>
      </trkpt>
      <trkpt lat="39.5309120" lon="-7.7747060">
        <ele>242.2</ele>
        <time>2019-07-11T06:23:51Z</time>
      </trkpt>
      <trkpt lat="39.5308640" lon="-7.7747690">
        <ele>242.6</ele>
        <time>2019-07-11T06:23:53Z</time>
      </trkpt>
      <trkpt lat="39.5307920" lon="-7.7748570">
        <ele>243.4</ele>
        <time>2019-07-11T06:23:56Z</time>
      </trkpt>
      <trkpt lat="39.5307360" lon="-7.7749260">
        <ele>243.6</ele>
        <time>2019-07-11T06:23:58Z</time>
      </trkpt>
      <trkpt lat="39.5305860" lon="-7.7751000">
        <ele>242.6</ele>
        <time>2019-07-11T06:24:02Z</time>
      </trkpt>
      <trkpt lat="39.5305530" lon="-7.7751530">
        <ele>242.2</ele>
        <time>2019-07-11T06:24:03Z</time>
      </trkpt>
      <trkpt lat="39.5305430" lon="-7.7753290">
        <ele>241.2</ele>
        <time>2019-07-11T06:24:06Z</time>
      </trkpt>
      <trkpt lat="39.5305520" lon="-7.7753900">
        <ele>241.0</ele>
        <time>2019-07-11T06:24:07Z</time>
      </trkpt>
      <trkpt lat="39.5305600" lon="-7.7756060">
        <ele>240.4</ele>
        <time>2019-07-11T06:24:10Z</time>
      </trkpt>
      <trkpt lat="39.5305530" lon="-7.7756800">
        <ele>239.8</ele>
        <time>2019-07-11T06:24:11Z</time>
      </trkpt>
      <trkpt lat="39.5305060" lon="-7.7758840">
        <ele>239.2</ele>
        <time>2019-07-11T06:24:14Z</time>
      </trkpt>
      <trkpt lat="39.5304690" lon="-7.7760010">
        <ele>239.2</ele>
        <time>2019-07-11T06:24:16Z</time>
      </trkpt>
      <trkpt lat="39.5303960" lon="-7.7761560">
        <ele>239.4</ele>
        <time>2019-07-11T06:24:19Z</time>
      </trkpt>
      <trkpt lat="39.5302960" lon="-7.7762760">
        <ele>239.6</ele>
        <time>2019-07-11T06:24:22Z</time>
      </trkpt>
      <trkpt lat="39.5302500" lon="-7.7763180">
        <ele>239.6</ele>
        <time>2019-07-11T06:24:23Z</time>
      </trkpt>
      <trkpt lat="39.5301490" lon="-7.7764220">
        <ele>239.4</ele>
        <time>2019-07-11T06:24:25Z</time>
      </trkpt>
      <trkpt lat="39.5300930" lon="-7.7764810">
        <ele>238.8</ele>
        <time>2019-07-11T06:24:26Z</time>
      </trkpt>
      <trkpt lat="39.5300330" lon="-7.7765400">
        <ele>237.6</ele>
        <time>2019-07-11T06:24:27Z</time>
      </trkpt>
      <trkpt lat="39.5298650" lon="-7.7767080">
        <ele>236.0</ele>
        <time>2019-07-11T06:24:30Z</time>
      </trkpt>
      <trkpt lat="39.5298150" lon="-7.7767820">
        <ele>235.6</ele>
        <time>2019-07-11T06:24:31Z</time>
      </trkpt>
      <trkpt lat="39.5297290" lon="-7.7769540">
        <ele>234.6</ele>
        <time>2019-07-11T06:24:33Z</time>
      </trkpt>
      <trkpt lat="39.5296940" lon="-7.7770470">
        <ele>233.8</ele>
        <time>2019-07-11T06:24:34Z</time>
      </trkpt>
      <trkpt lat="39.5296660" lon="-7.7771420">
        <ele>233.2</ele>
        <time>2019-07-11T06:24:35Z</time>
      </trkpt>
      <trkpt lat="39.5296400" lon="-7.7774090">
        <ele>233.0</ele>
        <time>2019-07-11T06:24:38Z</time>
      </trkpt>
      <trkpt lat="39.5296230" lon="-7.7775470">
        <ele>233.4</ele>
        <time>2019-07-11T06:24:40Z</time>
      </trkpt>
      <trkpt lat="39.5296050" lon="-7.7776660">
        <ele>233.8</ele>
        <time>2019-07-11T06:24:42Z</time>
      </trkpt>
      <trkpt lat="39.5295980" lon="-7.7777160">
        <ele>234.4</ele>
        <time>2019-07-11T06:24:43Z</time>
      </trkpt>
      <trkpt lat="39.5295830" lon="-7.7777950">
        <ele>235.0</ele>
        <time>2019-07-11T06:24:45Z</time>
      </trkpt>
      <trkpt lat="39.5295780" lon="-7.7778300">
        <ele>235.4</ele>
        <time>2019-07-11T06:24:46Z</time>
      </trkpt>
      <trkpt lat="39.5295650" lon="-7.7778910">
        <ele>236.2</ele>
        <time>2019-07-11T06:24:48Z</time>
      </trkpt>
      <trkpt lat="39.5295600" lon="-7.7779200">
        <ele>236.6</ele>
        <time>2019-07-11T06:24:49Z</time>
      </trkpt>
      <trkpt lat="39.5295490" lon="-7.7780260">
        <ele>237.6</ele>
        <time>2019-07-11T06:24:52Z</time>
      </trkpt>
      <trkpt lat="39.5295370" lon="-7.7781070">
        <ele>237.6</ele>
        <time>2019-07-11T06:24:54Z</time>
      </trkpt>
      <trkpt lat="39.5295120" lon="-7.7783840">
        <ele>238.8</ele>
        <time>2019-07-11T06:25:01Z</time>
      </trkpt>
      <trkpt lat="39.5295050" lon="-7.7784150">
        <ele>239.0</ele>
        <time>2019-07-11T06:25:02Z</time>
      </trkpt>
      <trkpt lat="39.5294930" lon="-7.7785060">
        <ele>240.0</ele>
        <time>2019-07-11T06:25:05Z</time>
      </trkpt>
      <trkpt lat="39.5294860" lon="-7.7785630">
        <ele>240.6</ele>
        <time>2019-07-11T06:25:07Z</time>
      </trkpt>
      <trkpt lat="39.5294700" lon="-7.7786170">
        <ele>241.0</ele>
        <time>2019-07-11T06:25:09Z</time>
      </trkpt>
      <trkpt lat="39.5294590" lon="-7.7786450">
        <ele>241.2</ele>
        <time>2019-07-11T06:25:10Z</time>
      </trkpt>
      <trkpt lat="39.5294190" lon="-7.7787460">
        <ele>241.4</ele>
        <time>2019-07-11T06:25:13Z</time>
      </trkpt>
      <trkpt lat="39.5293650" lon="-7.7788600">
        <ele>241.2</ele>
        <time>2019-07-11T06:25:16Z</time>
      </trkpt>
      <trkpt lat="39.5292100" lon="-7.7791190">
        <ele>241.0</ele>
        <time>2019-07-11T06:25:22Z</time>
      </trkpt>
      <trkpt lat="39.5290870" lon="-7.7792570">
        <ele>242.0</ele>
        <time>2019-07-11T06:25:27Z</time>
      </trkpt>
      <trkpt lat="39.5290610" lon="-7.7792830">
        <ele>242.2</ele>
        <time>2019-07-11T06:25:28Z</time>
      </trkpt>
      <trkpt lat="39.5289140" lon="-7.7794250">
        <ele>243.0</ele>
        <time>2019-07-11T06:25:33Z</time>
      </trkpt>
      <trkpt lat="39.5288420" lon="-7.7794880">
        <ele>243.4</ele>
        <time>2019-07-11T06:25:35Z</time>
      </trkpt>
      <trkpt lat="39.5286230" lon="-7.7796560">
        <ele>243.0</ele>
        <time>2019-07-11T06:25:41Z</time>
      </trkpt>
      <trkpt lat="39.5285840" lon="-7.7796840">
        <ele>242.8</ele>
        <time>2019-07-11T06:25:42Z</time>
      </trkpt>
      <trkpt lat="39.5284760" lon="-7.7797620">
        <ele>243.0</ele>
        <time>2019-07-11T06:25:45Z</time>
      </trkpt>
      <trkpt lat="39.5283320" lon="-7.7798550">
        <ele>243.2</ele>
        <time>2019-07-11T06:25:49Z</time>
      </trkpt>
      <trkpt lat="39.5281340" lon="-7.7800030">
        <ele>244.0</ele>
        <time>2019-07-11T06:25:55Z</time>
      </trkpt>
      <trkpt lat="39.5278940" lon="-7.7800990">
        <ele>244.6</ele>
        <time>2019-07-11T06:26:02Z</time>
      </trkpt>
      <trkpt lat="39.5278110" lon="-7.7801220">
        <ele>244.6</ele>
        <time>2019-07-11T06:26:04Z</time>
      </trkpt>
      <trkpt lat="39.5277650" lon="-7.7801310">
        <ele>244.6</ele>
        <time>2019-07-11T06:26:05Z</time>
      </trkpt>
      <trkpt lat="39.5277130" lon="-7.7801390">
        <ele>244.4</ele>
        <time>2019-07-11T06:26:06Z</time>
      </trkpt>
      <trkpt lat="39.5276600" lon="-7.7801450">
        <ele>244.2</ele>
        <time>2019-07-11T06:26:07Z</time>
      </trkpt>
      <trkpt lat="39.5275090" lon="-7.7801650">
        <ele>243.6</ele>
        <time>2019-07-11T06:26:10Z</time>
      </trkpt>
      <trkpt lat="39.5274310" lon="-7.7801830">
        <ele>243.8</ele>
        <time>2019-07-11T06:26:12Z</time>
      </trkpt>
      <trkpt lat="39.5273590" lon="-7.7802030">
        <ele>244.2</ele>
        <time>2019-07-11T06:26:14Z</time>
      </trkpt>
      <trkpt lat="39.5272510" lon="-7.7802250">
        <ele>244.8</ele>
        <time>2019-07-11T06:26:17Z</time>
      </trkpt>
      <trkpt lat="39.5271790" lon="-7.7802340">
        <ele>245.0</ele>
        <time>2019-07-11T06:26:19Z</time>
      </trkpt>
      <trkpt lat="39.5271420" lon="-7.7802350">
        <ele>245.2</ele>
        <time>2019-07-11T06:26:20Z</time>
      </trkpt>
      <trkpt lat="39.5269610" lon="-7.7801900">
        <ele>245.2</ele>
        <time>2019-07-11T06:26:25Z</time>
      </trkpt>
      <trkpt lat="39.5269250" lon="-7.7801720">
        <ele>245.0</ele>
        <time>2019-07-11T06:26:26Z</time>
      </trkpt>
      <trkpt lat="39.5268230" lon="-7.7801630">
        <ele>244.8</ele>
        <time>2019-07-11T06:26:29Z</time>
      </trkpt>
      <trkpt lat="39.5268020" lon="-7.7801830">
        <ele>244.8</ele>
        <time>2019-07-11T06:26:30Z</time>
      </trkpt>
      <trkpt lat="39.5268190" lon="-7.7802660">
        <ele>244.0</ele>
        <time>2019-07-11T06:26:33Z</time>
      </trkpt>
      <trkpt lat="39.5268860" lon="-7.7802920">
        <ele>243.8</ele>
        <time>2019-07-11T06:26:35Z</time>
      </trkpt>
      <trkpt lat="39.5269260" lon="-7.7803090">
        <ele>243.6</ele>
        <time>2019-07-11T06:26:36Z</time>
      </trkpt>
      <trkpt lat="39.5269710" lon="-7.7803310">
        <ele>243.4</ele>
        <time>2019-07-11T06:26:37Z</time>
      </trkpt>
      <trkpt lat="39.5270730" lon="-7.7803800">
        <ele>242.8</ele>
        <time>2019-07-11T06:26:39Z</time>
      </trkpt>
      <trkpt lat="39.5272600" lon="-7.7804720">
        <ele>241.6</ele>
        <time>2019-07-11T06:26:42Z</time>
      </trkpt>
      <trkpt lat="39.5274830" lon="-7.7805730">
        <ele>240.6</ele>
        <time>2019-07-11T06:26:45Z</time>
      </trkpt>
      <trkpt lat="39.5276380" lon="-7.7806500">
        <ele>239.6</ele>
        <time>2019-07-11T06:26:47Z</time>
      </trkpt>
      <trkpt lat="39.5278050" lon="-7.7807310">
        <ele>238.0</ele>
        <time>2019-07-11T06:26:49Z</time>
      </trkpt>
      <trkpt lat="39.5279630" lon="-7.7808090">
        <ele>236.6</ele>
        <time>2019-07-11T06:26:51Z</time>
      </trkpt>
      <trkpt lat="39.5280310" lon="-7.7808440">
        <ele>235.8</ele>
        <time>2019-07-11T06:26:52Z</time>
      </trkpt>
      <trkpt lat="39.5280920" lon="-7.7808840">
        <ele>235.2</ele>
        <time>2019-07-11T06:26:53Z</time>
      </trkpt>
      <trkpt lat="39.5281960" lon="-7.7809980">
        <ele>234.4</ele>
        <time>2019-07-11T06:26:55Z</time>
      </trkpt>
      <trkpt lat="39.5282310" lon="-7.7810800">
        <ele>233.8</ele>
        <time>2019-07-11T06:26:56Z</time>
      </trkpt>
      <trkpt lat="39.5282550" lon="-7.7812800">
        <ele>233.0</ele>
        <time>2019-07-11T06:26:58Z</time>
      </trkpt>
      <trkpt lat="39.5282510" lon="-7.7813910">
        <ele>232.4</ele>
        <time>2019-07-11T06:26:59Z</time>
      </trkpt>
      <trkpt lat="39.5282440" lon="-7.7815050">
        <ele>231.6</ele>
        <time>2019-07-11T06:27:00Z</time>
      </trkpt>
      <trkpt lat="39.5282350" lon="-7.7816230">
        <ele>231.0</ele>
        <time>2019-07-11T06:27:01Z</time>
      </trkpt>
      <trkpt lat="39.5282170" lon="-7.7818710">
        <ele>229.2</ele>
        <time>2019-07-11T06:27:03Z</time>
      </trkpt>
      <trkpt lat="39.5281980" lon="-7.7821260">
        <ele>228.0</ele>
        <time>2019-07-11T06:27:05Z</time>
      </trkpt>
      <trkpt lat="39.5281720" lon="-7.7825030">
        <ele>226.6</ele>
        <time>2019-07-11T06:27:08Z</time>
      </trkpt>
      <trkpt lat="39.5281380" lon="-7.7828650">
        <ele>225.4</ele>
        <time>2019-07-11T06:27:11Z</time>
      </trkpt>
      <trkpt lat="39.5281050" lon="-7.7830970">
        <ele>225.0</ele>
        <time>2019-07-11T06:27:13Z</time>
      </trkpt>
      <trkpt lat="39.5280450" lon="-7.7834280">
        <ele>224.4</ele>
        <time>2019-07-11T06:27:16Z</time>
      </trkpt>
      <trkpt lat="39.5280130" lon="-7.7835260">
        <ele>224.2</ele>
        <time>2019-07-11T06:27:17Z</time>
      </trkpt>
      <trkpt lat="39.5279630" lon="-7.7836140">
        <ele>223.8</ele>
        <time>2019-07-11T06:27:18Z</time>
      </trkpt>
      <trkpt lat="39.5278970" lon="-7.7836820">
        <ele>223.4</ele>
        <time>2019-07-11T06:27:19Z</time>
      </trkpt>
      <trkpt lat="39.5277300" lon="-7.7837580">
        <ele>222.2</ele>
        <time>2019-07-11T06:27:21Z</time>
      </trkpt>
      <trkpt lat="39.5275370" lon="-7.7837800">
        <ele>220.6</ele>
        <time>2019-07-11T06:27:23Z</time>
      </trkpt>
      <trkpt lat="39.5274390" lon="-7.7837870">
        <ele>219.2</ele>
        <time>2019-07-11T06:27:24Z</time>
      </trkpt>
      <trkpt lat="39.5273430" lon="-7.7837970">
        <ele>218.0</ele>
        <time>2019-07-11T06:27:25Z</time>
      </trkpt>
      <trkpt lat="39.5272490" lon="-7.7838080">
        <ele>216.6</ele>
        <time>2019-07-11T06:27:26Z</time>
      </trkpt>
      <trkpt lat="39.5271570" lon="-7.7838200">
        <ele>215.6</ele>
        <time>2019-07-11T06:27:27Z</time>
      </trkpt>
      <trkpt lat="39.5270660" lon="-7.7838300">
        <ele>214.6</ele>
        <time>2019-07-11T06:27:28Z</time>
      </trkpt>
      <trkpt lat="39.5268970" lon="-7.7838550">
        <ele>212.4</ele>
        <time>2019-07-11T06:27:30Z</time>
      </trkpt>
      <trkpt lat="39.5268160" lon="-7.7838800">
        <ele>211.8</ele>
        <time>2019-07-11T06:27:31Z</time>
      </trkpt>
      <trkpt lat="39.5267350" lon="-7.7839110">
        <ele>210.8</ele>
        <time>2019-07-11T06:27:32Z</time>
      </trkpt>
      <trkpt lat="39.5264890" lon="-7.7840300">
        <ele>209.6</ele>
        <time>2019-07-11T06:27:35Z</time>
      </trkpt>
      <trkpt lat="39.5263340" lon="-7.7841180">
        <ele>208.2</ele>
        <time>2019-07-11T06:27:37Z</time>
      </trkpt>
      <trkpt lat="39.5261250" lon="-7.7842500">
        <ele>206.6</ele>
        <time>2019-07-11T06:27:40Z</time>
      </trkpt>
      <trkpt lat="39.5259800" lon="-7.7843580">
        <ele>205.4</ele>
        <time>2019-07-11T06:27:42Z</time>
      </trkpt>
      <trkpt lat="39.5259120" lon="-7.7844260">
        <ele>204.8</ele>
        <time>2019-07-11T06:27:43Z</time>
      </trkpt>
      <trkpt lat="39.5258500" lon="-7.7845020">
        <ele>204.0</ele>
        <time>2019-07-11T06:27:44Z</time>
      </trkpt>
      <trkpt lat="39.5257540" lon="-7.7846540">
        <ele>203.0</ele>
        <time>2019-07-11T06:27:46Z</time>
      </trkpt>
      <trkpt lat="39.5257320" lon="-7.7847290">
        <ele>202.6</ele>
        <time>2019-07-11T06:27:47Z</time>
      </trkpt>
      <trkpt lat="39.5257200" lon="-7.7848760">
        <ele>202.2</ele>
        <time>2019-07-11T06:27:50Z</time>
      </trkpt>
      <trkpt lat="39.5256540" lon="-7.7849670">
        <ele>202.0</ele>
        <time>2019-07-11T06:27:54Z</time>
      </trkpt>
      <trkpt lat="39.5256330" lon="-7.7849880">
        <ele>201.8</ele>
        <time>2019-07-11T06:27:55Z</time>
      </trkpt>
      <trkpt lat="39.5255940" lon="-7.7850490">
        <ele>201.2</ele>
        <time>2019-07-11T06:27:57Z</time>
      </trkpt>
      <trkpt lat="39.5255680" lon="-7.7850860">
        <ele>201.0</ele>
        <time>2019-07-11T06:27:58Z</time>
      </trkpt>
      <trkpt lat="39.5255360" lon="-7.7851270">
        <ele>200.6</ele>
        <time>2019-07-11T06:27:59Z</time>
      </trkpt>
      <trkpt lat="39.5254470" lon="-7.7852140">
        <ele>199.4</ele>
        <time>2019-07-11T06:28:01Z</time>
      </trkpt>
      <trkpt lat="39.5253920" lon="-7.7852620">
        <ele>199.0</ele>
        <time>2019-07-11T06:28:02Z</time>
      </trkpt>
      <trkpt lat="39.5252650" lon="-7.7853610">
        <ele>198.2</ele>
        <time>2019-07-11T06:28:04Z</time>
      </trkpt>
      <trkpt lat="39.5251430" lon="-7.7854510">
        <ele>197.0</ele>
        <time>2019-07-11T06:28:06Z</time>
      </trkpt>
      <trkpt lat="39.5250840" lon="-7.7854910">
        <ele>196.2</ele>
        <time>2019-07-11T06:28:07Z</time>
      </trkpt>
      <trkpt lat="39.5250260" lon="-7.7855280">
        <ele>195.6</ele>
        <time>2019-07-11T06:28:08Z</time>
      </trkpt>
      <trkpt lat="39.5249130" lon="-7.7855970">
        <ele>194.6</ele>
        <time>2019-07-11T06:28:10Z</time>
      </trkpt>
      <trkpt lat="39.5247980" lon="-7.7856730">
        <ele>193.0</ele>
        <time>2019-07-11T06:28:12Z</time>
      </trkpt>
      <trkpt lat="39.5247390" lon="-7.7857160">
        <ele>192.6</ele>
        <time>2019-07-11T06:28:13Z</time>
      </trkpt>
      <trkpt lat="39.5246090" lon="-7.7858010">
        <ele>191.6</ele>
        <time>2019-07-11T06:28:15Z</time>
      </trkpt>
      <trkpt lat="39.5244030" lon="-7.7859160">
        <ele>190.6</ele>
        <time>2019-07-11T06:28:18Z</time>
      </trkpt>
      <trkpt lat="39.5242710" lon="-7.7859620">
        <ele>189.6</ele>
        <time>2019-07-11T06:28:20Z</time>
      </trkpt>
      <trkpt lat="39.5241460" lon="-7.7859670">
        <ele>188.8</ele>
        <time>2019-07-11T06:28:22Z</time>
      </trkpt>
      <trkpt lat="39.5240920" lon="-7.7859560">
        <ele>188.4</ele>
        <time>2019-07-11T06:28:23Z</time>
      </trkpt>
      <trkpt lat="39.5240400" lon="-7.7859440">
        <ele>188.2</ele>
        <time>2019-07-11T06:28:24Z</time>
      </trkpt>
      <trkpt lat="39.5239870" lon="-7.7859390">
        <ele>188.0</ele>
        <time>2019-07-11T06:28:25Z</time>
      </trkpt>
      <trkpt lat="39.5238860" lon="-7.7859520">
        <ele>187.6</ele>
        <time>2019-07-11T06:28:27Z</time>
      </trkpt>
      <trkpt lat="39.5238360" lon="-7.7859710">
        <ele>187.2</ele>
        <time>2019-07-11T06:28:28Z</time>
      </trkpt>
      <trkpt lat="39.5237330" lon="-7.7860260">
        <ele>185.8</ele>
        <time>2019-07-11T06:28:30Z</time>
      </trkpt>
      <trkpt lat="39.5236310" lon="-7.7860840">
        <ele>184.4</ele>
        <time>2019-07-11T06:28:32Z</time>
      </trkpt>
      <trkpt lat="39.5234400" lon="-7.7861990">
        <ele>182.8</ele>
        <time>2019-07-11T06:28:36Z</time>
      </trkpt>
      <trkpt lat="39.5233360" lon="-7.7862460">
        <ele>181.6</ele>
        <time>2019-07-11T06:28:38Z</time>
      </trkpt>
      <trkpt lat="39.5232870" lon="-7.7862610">
        <ele>181.2</ele>
        <time>2019-07-11T06:28:39Z</time>
      </trkpt>
      <trkpt lat="39.5231790" lon="-7.7862670">
        <ele>180.2</ele>
        <time>2019-07-11T06:28:41Z</time>
      </trkpt>
      <trkpt lat="39.5231180" lon="-7.7862600">
        <ele>179.6</ele>
        <time>2019-07-11T06:28:42Z</time>
      </trkpt>
      <trkpt lat="39.5229950" lon="-7.7862260">
        <ele>178.4</ele>
        <time>2019-07-11T06:28:44Z</time>
      </trkpt>
      <trkpt lat="39.5228230" lon="-7.7861640">
        <ele>177.2</ele>
        <time>2019-07-11T06:28:47Z</time>
      </trkpt>
      <trkpt lat="39.5227110" lon="-7.7861020">
        <ele>175.8</ele>
        <time>2019-07-11T06:28:49Z</time>
      </trkpt>
      <trkpt lat="39.5226190" lon="-7.7860020">
        <ele>175.0</ele>
        <time>2019-07-11T06:28:51Z</time>
      </trkpt>
      <trkpt lat="39.5225870" lon="-7.7859370">
        <ele>174.8</ele>
        <time>2019-07-11T06:28:52Z</time>
      </trkpt>
      <trkpt lat="39.5225190" lon="-7.7857490">
        <ele>174.4</ele>
        <time>2019-07-11T06:28:55Z</time>
      </trkpt>
      <trkpt lat="39.5224970" lon="-7.7857020">
        <ele>174.4</ele>
        <time>2019-07-11T06:28:56Z</time>
      </trkpt>
      <trkpt lat="39.5224490" lon="-7.7856380">
        <ele>175.2</ele>
        <time>2019-07-11T06:28:58Z</time>
      </trkpt>
      <trkpt lat="39.5224230" lon="-7.7856110">
        <ele>175.6</ele>
        <time>2019-07-11T06:28:59Z</time>
      </trkpt>
      <trkpt lat="39.5223920" lon="-7.7855910">
        <ele>176.0</ele>
        <time>2019-07-11T06:29:00Z</time>
      </trkpt>
      <trkpt lat="39.5223550" lon="-7.7855770">
        <ele>176.0</ele>
        <time>2019-07-11T06:29:01Z</time>
      </trkpt>
      <trkpt lat="39.5222620" lon="-7.7855730">
        <ele>176.0</ele>
        <time>2019-07-11T06:29:03Z</time>
      </trkpt>
      <trkpt lat="39.5221530" lon="-7.7855700">
        <ele>175.6</ele>
        <time>2019-07-11T06:29:05Z</time>
      </trkpt>
      <trkpt lat="39.5220000" lon="-7.7855740">
        <ele>175.2</ele>
        <time>2019-07-11T06:29:08Z</time>
      </trkpt>
      <trkpt lat="39.5218700" lon="-7.7856370">
        <ele>176.4</ele>
        <time>2019-07-11T06:29:12Z</time>
      </trkpt>
      <trkpt lat="39.5218220" lon="-7.7856830">
        <ele>177.0</ele>
        <time>2019-07-11T06:29:14Z</time>
      </trkpt>
      <trkpt lat="39.5217700" lon="-7.7857800">
        <ele>177.2</ele>
        <time>2019-07-11T06:29:17Z</time>
      </trkpt>
      <trkpt lat="39.5217260" lon="-7.7859700">
        <ele>177.2</ele>
        <time>2019-07-11T06:29:21Z</time>
      </trkpt>
      <trkpt lat="39.5216970" lon="-7.7861270">
        <ele>177.0</ele>
        <time>2019-07-11T06:29:24Z</time>
      </trkpt>
      <trkpt lat="39.5216410" lon="-7.7862650">
        <ele>177.2</ele>
        <time>2019-07-11T06:29:27Z</time>
      </trkpt>
      <trkpt lat="39.5216180" lon="-7.7863030">
        <ele>177.4</ele>
        <time>2019-07-11T06:29:28Z</time>
      </trkpt>
      <trkpt lat="39.5215660" lon="-7.7863680">
        <ele>177.6</ele>
        <time>2019-07-11T06:29:30Z</time>
      </trkpt>
      <trkpt lat="39.5213880" lon="-7.7865450">
        <ele>177.6</ele>
        <time>2019-07-11T06:29:35Z</time>
      </trkpt>
      <trkpt lat="39.5213270" lon="-7.7866180">
        <ele>177.0</ele>
        <time>2019-07-11T06:29:37Z</time>
      </trkpt>
      <trkpt lat="39.5212060" lon="-7.7866800">
        <ele>177.0</ele>
        <time>2019-07-11T06:29:40Z</time>
      </trkpt>
      <trkpt lat="39.5210150" lon="-7.7866740">
        <ele>177.0</ele>
        <time>2019-07-11T06:29:44Z</time>
      </trkpt>
      <trkpt lat="39.5209650" lon="-7.7866650">
        <ele>176.8</ele>
        <time>2019-07-11T06:29:45Z</time>
      </trkpt>
      <trkpt lat="39.5208630" lon="-7.7866510">
        <ele>176.6</ele>
        <time>2019-07-11T06:29:47Z</time>
      </trkpt>
      <trkpt lat="39.5206550" lon="-7.7866140">
        <ele>176.4</ele>
        <time>2019-07-11T06:29:51Z</time>
      </trkpt>
      <trkpt lat="39.5206020" lon="-7.7866030">
        <ele>176.4</ele>
        <time>2019-07-11T06:29:52Z</time>
      </trkpt>
      <trkpt lat="39.5204400" lon="-7.7865650">
        <ele>176.4</ele>
        <time>2019-07-11T06:29:55Z</time>
      </trkpt>
      <trkpt lat="39.5202910" lon="-7.7864850">
        <ele>176.2</ele>
        <time>2019-07-11T06:29:58Z</time>
      </trkpt>
      <trkpt lat="39.5201180" lon="-7.7863730">
        <ele>176.2</ele>
        <time>2019-07-11T06:30:02Z</time>
      </trkpt>
      <trkpt lat="39.5200370" lon="-7.7863290">
        <ele>176.4</ele>
        <time>2019-07-11T06:30:04Z</time>
      </trkpt>
      <trkpt lat="39.5198820" lon="-7.7862670">
        <ele>176.2</ele>
        <time>2019-07-11T06:30:08Z</time>
      </trkpt>
      <trkpt lat="39.5198540" lon="-7.7862810">
        <ele>176.2</ele>
        <time>2019-07-11T06:30:09Z</time>
      </trkpt>
      <trkpt lat="39.5198340" lon="-7.7863090">
        <ele>176.2</ele>
        <time>2019-07-11T06:30:10Z</time>
      </trkpt>
      <trkpt lat="39.5197920" lon="-7.7864330">
        <ele>175.8</ele>
        <time>2019-07-11T06:30:13Z</time>
      </trkpt>
      <trkpt lat="39.5197510" lon="-7.7865690">
        <ele>175.6</ele>
        <time>2019-07-11T06:30:16Z</time>
      </trkpt>
      <trkpt lat="39.5197520" lon="-7.7866720">
        <ele>175.8</ele>
        <time>2019-07-11T06:30:19Z</time>
      </trkpt>
      <trkpt lat="39.5198200" lon="-7.7868020">
        <ele>176.8</ele>
        <time>2019-07-11T06:30:24Z</time>
      </trkpt>
      <trkpt lat="39.5198540" lon="-7.7868560">
        <ele>177.2</ele>
        <time>2019-07-11T06:30:26Z</time>
      </trkpt>
      <trkpt lat="39.5199130" lon="-7.7869340">
        <ele>177.6</ele>
        <time>2019-07-11T06:30:29Z</time>
      </trkpt>
      <trkpt lat="39.5200160" lon="-7.7870690">
        <ele>178.4</ele>
        <time>2019-07-11T06:30:34Z</time>
      </trkpt>
      <trkpt lat="39.5200840" lon="-7.7871460">
        <ele>179.0</ele>
        <time>2019-07-11T06:30:37Z</time>
      </trkpt>
      <trkpt lat="39.5201550" lon="-7.7872130">
        <ele>179.4</ele>
        <time>2019-07-11T06:30:40Z</time>
      </trkpt>
      <trkpt lat="39.5202530" lon="-7.7872860">
        <ele>179.8</ele>
        <time>2019-07-11T06:30:44Z</time>
      </trkpt>
      <trkpt lat="39.5203760" lon="-7.7873500">
        <ele>180.4</ele>
        <time>2019-07-11T06:30:49Z</time>
      </trkpt>
      <trkpt lat="39.5203990" lon="-7.7873610">
        <ele>180.4</ele>
        <time>2019-07-11T06:30:50Z</time>
      </trkpt>
      <trkpt lat="39.5204690" lon="-7.7873890">
        <ele>181.4</ele>
        <time>2019-07-11T06:30:53Z</time>
      </trkpt>
      <trkpt lat="39.5204920" lon="-7.7873990">
        <ele>181.8</ele>
        <time>2019-07-11T06:30:54Z</time>
      </trkpt>
      <trkpt lat="39.5205610" lon="-7.7874340">
        <ele>182.6</ele>
        <time>2019-07-11T06:30:57Z</time>
      </trkpt>
      <trkpt lat="39.5205840" lon="-7.7874490">
        <ele>182.8</ele>
        <time>2019-07-11T06:30:58Z</time>
      </trkpt>
      <trkpt lat="39.5206500" lon="-7.7874990">
        <ele>183.6</ele>
        <time>2019-07-11T06:31:01Z</time>
      </trkpt>
      <trkpt lat="39.5206710" lon="-7.7875200">
        <ele>183.8</ele>
        <time>2019-07-11T06:31:02Z</time>
      </trkpt>
      <trkpt lat="39.5207700" lon="-7.7876500">
        <ele>184.8</ele>
        <time>2019-07-11T06:31:07Z</time>
      </trkpt>
      <trkpt lat="39.5207910" lon="-7.7876770">
        <ele>184.8</ele>
        <time>2019-07-11T06:31:08Z</time>
      </trkpt>
      <trkpt lat="39.5208280" lon="-7.7877370">
        <ele>185.0</ele>
        <time>2019-07-11T06:31:10Z</time>
      </trkpt>
      <trkpt lat="39.5208460" lon="-7.7877660">
        <ele>185.0</ele>
        <time>2019-07-11T06:31:11Z</time>
      </trkpt>
      <trkpt lat="39.5209200" lon="-7.7879270">
        <ele>186.0</ele>
        <time>2019-07-11T06:31:16Z</time>
      </trkpt>
      <trkpt lat="39.5209210" lon="-7.7880030">
        <ele>186.4</ele>
        <time>2019-07-11T06:31:18Z</time>
      </trkpt>
      <trkpt lat="39.5208940" lon="-7.7880790">
        <ele>187.0</ele>
        <time>2019-07-11T06:31:20Z</time>
      </trkpt>
      <trkpt lat="39.5208480" lon="-7.7881400">
        <ele>187.2</ele>
        <time>2019-07-11T06:31:22Z</time>
      </trkpt>
      <trkpt lat="39.5206910" lon="-7.7882000">
        <ele>187.8</ele>
        <time>2019-07-11T06:31:27Z</time>
      </trkpt>
      <trkpt lat="39.5206560" lon="-7.7882000">
        <ele>188.0</ele>
        <time>2019-07-11T06:31:28Z</time>
      </trkpt>
      <trkpt lat="39.5204330" lon="-7.7881700">
        <ele>188.4</ele>
        <time>2019-07-11T06:31:34Z</time>
      </trkpt>
      <trkpt lat="39.5201950" lon="-7.7881800">
        <ele>189.2</ele>
        <time>2019-07-11T06:31:40Z</time>
      </trkpt>
      <trkpt lat="39.5200700" lon="-7.7883010">
        <ele>189.8</ele>
        <time>2019-07-11T06:31:44Z</time>
      </trkpt>
      <trkpt lat="39.5200500" lon="-7.7883430">
        <ele>190.0</ele>
        <time>2019-07-11T06:31:45Z</time>
      </trkpt>
      <trkpt lat="39.5200060" lon="-7.7884770">
        <ele>190.6</ele>
        <time>2019-07-11T06:31:48Z</time>
      </trkpt>
      <trkpt lat="39.5199840" lon="-7.7885810">
        <ele>191.0</ele>
        <time>2019-07-11T06:31:50Z</time>
      </trkpt>
      <trkpt lat="39.5199120" lon="-7.7891030">
        <ele>191.4</ele>
        <time>2019-07-11T06:31:59Z</time>
      </trkpt>
      <trkpt lat="39.5199020" lon="-7.7892200">
        <ele>191.6</ele>
        <time>2019-07-11T06:32:01Z</time>
      </trkpt>
      <trkpt lat="39.5198950" lon="-7.7892770">
        <ele>191.8</ele>
        <time>2019-07-11T06:32:02Z</time>
      </trkpt>
      <trkpt lat="39.5198390" lon="-7.7894320">
        <ele>192.0</ele>
        <time>2019-07-11T06:32:05Z</time>
      </trkpt>
      <trkpt lat="39.5198090" lon="-7.7894770">
        <ele>192.0</ele>
        <time>2019-07-11T06:32:06Z</time>
      </trkpt>
      <trkpt lat="39.5197770" lon="-7.7895190">
        <ele>192.0</ele>
        <time>2019-07-11T06:32:07Z</time>
      </trkpt>
      <trkpt lat="39.5196220" lon="-7.7896630">
        <ele>192.0</ele>
        <time>2019-07-11T06:32:11Z</time>
      </trkpt>
      <trkpt lat="39.5194200" lon="-7.7898010">
        <ele>192.4</ele>
        <time>2019-07-11T06:32:16Z</time>
      </trkpt>
      <trkpt lat="39.5193800" lon="-7.7898220">
        <ele>192.6</ele>
        <time>2019-07-11T06:32:17Z</time>
      </trkpt>
      <trkpt lat="39.5193400" lon="-7.7898440">
        <ele>192.8</ele>
        <time>2019-07-11T06:32:18Z</time>
      </trkpt>
      <trkpt lat="39.5190530" lon="-7.7900100">
        <ele>193.8</ele>
        <time>2019-07-11T06:32:25Z</time>
      </trkpt>
      <trkpt lat="39.5190090" lon="-7.7900380">
        <ele>194.0</ele>
        <time>2019-07-11T06:32:26Z</time>
      </trkpt>
      <trkpt lat="39.5189680" lon="-7.7900690">
        <ele>194.0</ele>
        <time>2019-07-11T06:32:27Z</time>
      </trkpt>
      <trkpt lat="39.5188480" lon="-7.7901400">
        <ele>193.8</ele>
        <time>2019-07-11T06:32:30Z</time>
      </trkpt>
      <trkpt lat="39.5186000" lon="-7.7902820">
        <ele>193.8</ele>
        <time>2019-07-11T06:32:36Z</time>
      </trkpt>
      <trkpt lat="39.5183740" lon="-7.7904290">
        <ele>194.8</ele>
        <time>2019-07-11T06:32:42Z</time>
      </trkpt>
      <trkpt lat="39.5183010" lon="-7.7904810">
        <ele>194.6</ele>
        <time>2019-07-11T06:32:44Z</time>
      </trkpt>
      <trkpt lat="39.5182300" lon="-7.7905440">
        <ele>194.6</ele>
        <time>2019-07-11T06:32:46Z</time>
      </trkpt>
      <trkpt lat="39.5181380" lon="-7.7906640">
        <ele>195.0</ele>
        <time>2019-07-11T06:32:49Z</time>
      </trkpt>
      <trkpt lat="39.5180360" lon="-7.7908690">
        <ele>196.4</ele>
        <time>2019-07-11T06:32:54Z</time>
      </trkpt>
      <trkpt lat="39.5180190" lon="-7.7909060">
        <ele>196.6</ele>
        <time>2019-07-11T06:32:55Z</time>
      </trkpt>
      <trkpt lat="39.5179790" lon="-7.7910070">
        <ele>197.4</ele>
        <time>2019-07-11T06:32:58Z</time>
      </trkpt>
      <trkpt lat="39.5179620" lon="-7.7911020">
        <ele>198.2</ele>
        <time>2019-07-11T06:33:01Z</time>
      </trkpt>
      <trkpt lat="39.5179590" lon="-7.7911350">
        <ele>198.4</ele>
        <time>2019-07-11T06:33:02Z</time>
      </trkpt>
      <trkpt lat="39.5179570" lon="-7.7911680">
        <ele>198.6</ele>
        <time>2019-07-11T06:33:03Z</time>
      </trkpt>
      <trkpt lat="39.5179690" lon="-7.7913680">
        <ele>199.8</ele>
        <time>2019-07-11T06:33:09Z</time>
      </trkpt>
      <trkpt lat="39.5179720" lon="-7.7914000">
        <ele>200.0</ele>
        <time>2019-07-11T06:33:10Z</time>
      </trkpt>
      <trkpt lat="39.5179850" lon="-7.7915310">
        <ele>200.8</ele>
        <time>2019-07-11T06:33:14Z</time>
      </trkpt>
      <trkpt lat="39.5179940" lon="-7.7916380">
        <ele>201.4</ele>
        <time>2019-07-11T06:33:17Z</time>
      </trkpt>
      <trkpt lat="39.5179970" lon="-7.7917090">
        <ele>202.2</ele>
        <time>2019-07-11T06:33:19Z</time>
      </trkpt>
      <trkpt lat="39.5180000" lon="-7.7918210">
        <ele>202.8</ele>
        <time>2019-07-11T06:33:22Z</time>
      </trkpt>
      <trkpt lat="39.5180010" lon="-7.7919360">
        <ele>203.2</ele>
        <time>2019-07-11T06:33:25Z</time>
      </trkpt>
      <trkpt lat="39.5180080" lon="-7.7920920">
        <ele>204.0</ele>
        <time>2019-07-11T06:33:29Z</time>
      </trkpt>
      <trkpt lat="39.5180150" lon="-7.7921710">
        <ele>204.4</ele>
        <time>2019-07-11T06:33:31Z</time>
      </trkpt>
      <trkpt lat="39.5180390" lon="-7.7923770">
        <ele>205.4</ele>
        <time>2019-07-11T06:33:36Z</time>
      </trkpt>
      <trkpt lat="39.5180820" lon="-7.7925370">
        <ele>206.6</ele>
        <time>2019-07-11T06:33:40Z</time>
      </trkpt>
      <trkpt lat="39.5182030" lon="-7.7927520">
        <ele>207.2</ele>
        <time>2019-07-11T06:33:47Z</time>
      </trkpt>
      <trkpt lat="39.5182210" lon="-7.7927760">
        <ele>207.6</ele>
        <time>2019-07-11T06:33:48Z</time>
      </trkpt>
      <trkpt lat="39.5183100" lon="-7.7928900">
        <ele>208.8</ele>
        <time>2019-07-11T06:33:53Z</time>
      </trkpt>
      <trkpt lat="39.5183610" lon="-7.7929560">
        <ele>210.0</ele>
        <time>2019-07-11T06:33:56Z</time>
      </trkpt>
      <trkpt lat="39.5183780" lon="-7.7929770">
        <ele>210.2</ele>
        <time>2019-07-11T06:33:57Z</time>
      </trkpt>
      <trkpt lat="39.5184420" lon="-7.7930550">
        <ele>211.2</ele>
        <time>2019-07-11T06:34:01Z</time>
      </trkpt>
      <trkpt lat="39.5185110" lon="-7.7931500">
        <ele>212.2</ele>
        <time>2019-07-11T06:34:06Z</time>
      </trkpt>
      <trkpt lat="39.5185820" lon="-7.7932380">
        <ele>213.4</ele>
        <time>2019-07-11T06:34:11Z</time>
      </trkpt>
      <trkpt lat="39.5185960" lon="-7.7932570">
        <ele>213.6</ele>
        <time>2019-07-11T06:34:12Z</time>
      </trkpt>
      <trkpt lat="39.5186500" lon="-7.7933330">
        <ele>214.4</ele>
        <time>2019-07-11T06:34:16Z</time>
      </trkpt>
      <trkpt lat="39.5187080" lon="-7.7934090">
        <ele>215.6</ele>
        <time>2019-07-11T06:34:20Z</time>
      </trkpt>
      <trkpt lat="39.5188120" lon="-7.7935460">
        <ele>216.8</ele>
        <time>2019-07-11T06:34:27Z</time>
      </trkpt>
      <trkpt lat="39.5188280" lon="-7.7935660">
        <ele>217.2</ele>
        <time>2019-07-11T06:34:28Z</time>
      </trkpt>
      <trkpt lat="39.5188720" lon="-7.7936350">
        <ele>218.0</ele>
        <time>2019-07-11T06:34:31Z</time>
      </trkpt>
      <trkpt lat="39.5189460" lon="-7.7937690">
        <ele>218.6</ele>
        <time>2019-07-11T06:34:36Z</time>
      </trkpt>
      <trkpt lat="39.5189730" lon="-7.7938220">
        <ele>219.4</ele>
        <time>2019-07-11T06:34:38Z</time>
      </trkpt>
      <trkpt lat="39.5190810" lon="-7.7940050">
        <ele>220.2</ele>
        <time>2019-07-11T06:34:45Z</time>
      </trkpt>
      <trkpt lat="39.5191330" lon="-7.7940840">
        <ele>220.6</ele>
        <time>2019-07-11T06:34:48Z</time>
      </trkpt>
      <trkpt lat="39.5192060" lon="-7.7941930">
        <ele>221.2</ele>
        <time>2019-07-11T06:34:52Z</time>
      </trkpt>
      <trkpt lat="39.5192920" lon="-7.7943370">
        <ele>221.6</ele>
        <time>2019-07-11T06:34:57Z</time>
      </trkpt>
      <trkpt lat="39.5193280" lon="-7.7943970">
        <ele>221.6</ele>
        <time>2019-07-11T06:34:59Z</time>
      </trkpt>
      <trkpt lat="39.5193460" lon="-7.7944290">
        <ele>221.8</ele>
        <time>2019-07-11T06:35:00Z</time>
      </trkpt>
      <trkpt lat="39.5194250" lon="-7.7945580">
        <ele>222.4</ele>
        <time>2019-07-11T06:35:04Z</time>
      </trkpt>
      <trkpt lat="39.5194630" lon="-7.7946200">
        <ele>222.6</ele>
        <time>2019-07-11T06:35:06Z</time>
      </trkpt>
      <trkpt lat="39.5195200" lon="-7.7947080">
        <ele>222.6</ele>
        <time>2019-07-11T06:35:09Z</time>
      </trkpt>
      <trkpt lat="39.5195600" lon="-7.7947650">
        <ele>222.6</ele>
        <time>2019-07-11T06:35:11Z</time>
      </trkpt>
      <trkpt lat="39.5196320" lon="-7.7948790">
        <ele>223.0</ele>
        <time>2019-07-11T06:35:15Z</time>
      </trkpt>
      <trkpt lat="39.5196760" lon="-7.7949650">
        <ele>223.8</ele>
        <time>2019-07-11T06:35:18Z</time>
      </trkpt>
      <trkpt lat="39.5197030" lon="-7.7950950">
        <ele>224.8</ele>
        <time>2019-07-11T06:35:22Z</time>
      </trkpt>
      <trkpt lat="39.5197040" lon="-7.7951670">
        <ele>225.2</ele>
        <time>2019-07-11T06:35:24Z</time>
      </trkpt>
      <trkpt lat="39.5196930" lon="-7.7952760">
        <ele>226.0</ele>
        <time>2019-07-11T06:35:27Z</time>
      </trkpt>
      <trkpt lat="39.5196580" lon="-7.7954140">
        <ele>226.4</ele>
        <time>2019-07-11T06:35:31Z</time>
      </trkpt>
      <trkpt lat="39.5196270" lon="-7.7955120">
        <ele>227.0</ele>
        <time>2019-07-11T06:35:34Z</time>
      </trkpt>
      <trkpt lat="39.5195750" lon="-7.7956420">
        <ele>228.0</ele>
        <time>2019-07-11T06:35:38Z</time>
      </trkpt>
      <trkpt lat="39.5195300" lon="-7.7957420">
        <ele>228.6</ele>
        <time>2019-07-11T06:35:41Z</time>
      </trkpt>
      <trkpt lat="39.5194860" lon="-7.7958390">
        <ele>229.2</ele>
        <time>2019-07-11T06:35:44Z</time>
      </trkpt>
      <trkpt lat="39.5194430" lon="-7.7959320">
        <ele>230.0</ele>
        <time>2019-07-11T06:35:47Z</time>
      </trkpt>
      <trkpt lat="39.5194120" lon="-7.7959940">
        <ele>230.4</ele>
        <time>2019-07-11T06:35:49Z</time>
      </trkpt>
      <trkpt lat="39.5193250" lon="-7.7961850">
        <ele>231.4</ele>
        <time>2019-07-11T06:35:55Z</time>
      </trkpt>
      <trkpt lat="39.5192970" lon="-7.7962450">
        <ele>232.0</ele>
        <time>2019-07-11T06:35:57Z</time>
      </trkpt>
      <trkpt lat="39.5192560" lon="-7.7963380">
        <ele>232.6</ele>
        <time>2019-07-11T06:36:00Z</time>
      </trkpt>
      <trkpt lat="39.5191730" lon="-7.7965240">
        <ele>233.4</ele>
        <time>2019-07-11T06:36:06Z</time>
      </trkpt>
      <trkpt lat="39.5191440" lon="-7.7965850">
        <ele>233.6</ele>
        <time>2019-07-11T06:36:08Z</time>
      </trkpt>
      <trkpt lat="39.5190430" lon="-7.7967950">
        <ele>235.0</ele>
        <time>2019-07-11T06:36:15Z</time>
      </trkpt>
      <trkpt lat="39.5190290" lon="-7.7968250">
        <ele>235.0</ele>
        <time>2019-07-11T06:36:16Z</time>
      </trkpt>
      <trkpt lat="39.5189730" lon="-7.7969470">
        <ele>236.0</ele>
        <time>2019-07-11T06:36:20Z</time>
      </trkpt>
      <trkpt lat="39.5188620" lon="-7.7971960">
        <ele>236.8</ele>
        <time>2019-07-11T06:36:28Z</time>
      </trkpt>
      <trkpt lat="39.5188330" lon="-7.7972610">
        <ele>237.4</ele>
        <time>2019-07-11T06:36:30Z</time>
      </trkpt>
      <trkpt lat="39.5187590" lon="-7.7974290">
        <ele>238.4</ele>
        <time>2019-07-11T06:36:35Z</time>
      </trkpt>
      <trkpt lat="39.5187460" lon="-7.7974660">
        <ele>238.6</ele>
        <time>2019-07-11T06:36:36Z</time>
      </trkpt>
      <trkpt lat="39.5186680" lon="-7.7976360">
        <ele>239.4</ele>
        <time>2019-07-11T06:36:41Z</time>
      </trkpt>
      <trkpt lat="39.5186090" lon="-7.7977740">
        <ele>240.2</ele>
        <time>2019-07-11T06:36:45Z</time>
      </trkpt>
      <trkpt lat="39.5185940" lon="-7.7978110">
        <ele>240.6</ele>
        <time>2019-07-11T06:36:46Z</time>
      </trkpt>
      <trkpt lat="39.5185190" lon="-7.7979890">
        <ele>241.2</ele>
        <time>2019-07-11T06:36:51Z</time>
      </trkpt>
      <trkpt lat="39.5184740" lon="-7.7980950">
        <ele>241.4</ele>
        <time>2019-07-11T06:36:54Z</time>
      </trkpt>
      <trkpt lat="39.5184410" lon="-7.7981680">
        <ele>241.8</ele>
        <time>2019-07-11T06:36:56Z</time>
      </trkpt>
      <trkpt lat="39.5183590" lon="-7.7983470">
        <ele>241.6</ele>
        <time>2019-07-11T06:37:01Z</time>
      </trkpt>
      <trkpt lat="39.5183110" lon="-7.7984560">
        <ele>241.6</ele>
        <time>2019-07-11T06:37:04Z</time>
      </trkpt>
      <trkpt lat="39.5182100" lon="-7.7986630">
        <ele>242.8</ele>
        <time>2019-07-11T06:37:10Z</time>
      </trkpt>
      <trkpt lat="39.5181580" lon="-7.7987600">
        <ele>243.2</ele>
        <time>2019-07-11T06:37:13Z</time>
      </trkpt>
      <trkpt lat="39.5181000" lon="-7.7988480">
        <ele>243.8</ele>
        <time>2019-07-11T06:37:16Z</time>
      </trkpt>
      <trkpt lat="39.5180260" lon="-7.7989480">
        <ele>244.6</ele>
        <time>2019-07-11T06:37:20Z</time>
      </trkpt>
      <trkpt lat="39.5180060" lon="-7.7989700">
        <ele>244.8</ele>
        <time>2019-07-11T06:37:21Z</time>
      </trkpt>
      <trkpt lat="39.5179430" lon="-7.7990270">
        <ele>246.2</ele>
        <time>2019-07-11T06:37:24Z</time>
      </trkpt>
      <trkpt lat="39.5178840" lon="-7.7990910">
        <ele>246.8</ele>
        <time>2019-07-11T06:37:27Z</time>
      </trkpt>
      <trkpt lat="39.5178620" lon="-7.7991070">
        <ele>246.8</ele>
        <time>2019-07-11T06:37:28Z</time>
      </trkpt>
      <trkpt lat="39.5178140" lon="-7.7991320">
        <ele>247.8</ele>
        <time>2019-07-11T06:37:30Z</time>
      </trkpt>
      <trkpt lat="39.5177390" lon="-7.7991660">
        <ele>249.0</ele>
        <time>2019-07-11T06:37:33Z</time>
      </trkpt>
      <trkpt lat="39.5176970" lon="-7.7991870">
        <ele>249.6</ele>
        <time>2019-07-11T06:37:35Z</time>
      </trkpt>
      <trkpt lat="39.5176780" lon="-7.7991970">
        <ele>250.0</ele>
        <time>2019-07-11T06:37:36Z</time>
      </trkpt>
      <trkpt lat="39.5176140" lon="-7.7992280">
        <ele>251.2</ele>
        <time>2019-07-11T06:37:39Z</time>
      </trkpt>
      <trkpt lat="39.5175130" lon="-7.7992780">
        <ele>251.8</ele>
        <time>2019-07-11T06:37:44Z</time>
      </trkpt>
      <trkpt lat="39.5174740" lon="-7.7993010">
        <ele>252.4</ele>
        <time>2019-07-11T06:37:46Z</time>
      </trkpt>
      <trkpt lat="39.5174120" lon="-7.7993330">
        <ele>253.4</ele>
        <time>2019-07-11T06:37:49Z</time>
      </trkpt>
      <trkpt lat="39.5173240" lon="-7.7993700">
        <ele>254.6</ele>
        <time>2019-07-11T06:37:53Z</time>
      </trkpt>
      <trkpt lat="39.5173010" lon="-7.7993760">
        <ele>255.0</ele>
        <time>2019-07-11T06:37:54Z</time>
      </trkpt>
      <trkpt lat="39.5172310" lon="-7.7993800">
        <ele>255.8</ele>
        <time>2019-07-11T06:37:57Z</time>
      </trkpt>
      <trkpt lat="39.5171640" lon="-7.7993790">
        <ele>256.0</ele>
        <time>2019-07-11T06:38:00Z</time>
      </trkpt>
      <trkpt lat="39.5171180" lon="-7.7993690">
        <ele>256.4</ele>
        <time>2019-07-11T06:38:02Z</time>
      </trkpt>
      <trkpt lat="39.5170720" lon="-7.7993480">
        <ele>257.0</ele>
        <time>2019-07-11T06:38:04Z</time>
      </trkpt>
      <trkpt lat="39.5169790" lon="-7.7993060">
        <ele>258.0</ele>
        <time>2019-07-11T06:38:08Z</time>
      </trkpt>
      <trkpt lat="39.5169070" lon="-7.7992660">
        <ele>258.6</ele>
        <time>2019-07-11T06:38:11Z</time>
      </trkpt>
      <trkpt lat="39.5168360" lon="-7.7992320">
        <ele>259.2</ele>
        <time>2019-07-11T06:38:14Z</time>
      </trkpt>
      <trkpt lat="39.5167420" lon="-7.7991840">
        <ele>260.2</ele>
        <time>2019-07-11T06:38:18Z</time>
      </trkpt>
      <trkpt lat="39.5166940" lon="-7.7991600">
        <ele>260.6</ele>
        <time>2019-07-11T06:38:20Z</time>
      </trkpt>
      <trkpt lat="39.5165770" lon="-7.7991070">
        <ele>261.2</ele>
        <time>2019-07-11T06:38:25Z</time>
      </trkpt>
      <trkpt lat="39.5165280" lon="-7.7990860">
        <ele>262.0</ele>
        <time>2019-07-11T06:38:27Z</time>
      </trkpt>
      <trkpt lat="39.5164810" lon="-7.7990640">
        <ele>262.8</ele>
        <time>2019-07-11T06:38:29Z</time>
      </trkpt>
      <trkpt lat="39.5163520" lon="-7.7989930">
        <ele>263.8</ele>
        <time>2019-07-11T06:38:35Z</time>
      </trkpt>
      <trkpt lat="39.5163310" lon="-7.7989800">
        <ele>264.0</ele>
        <time>2019-07-11T06:38:36Z</time>
      </trkpt>
      <trkpt lat="39.5162850" lon="-7.7989630">
        <ele>265.0</ele>
        <time>2019-07-11T06:38:38Z</time>
      </trkpt>
      <trkpt lat="39.5161710" lon="-7.7989240">
        <ele>266.0</ele>
        <time>2019-07-11T06:38:43Z</time>
      </trkpt>
      <trkpt lat="39.5160790" lon="-7.7988970">
        <ele>267.2</ele>
        <time>2019-07-11T06:38:47Z</time>
      </trkpt>
      <trkpt lat="39.5159850" lon="-7.7988860">
        <ele>268.4</ele>
        <time>2019-07-11T06:38:51Z</time>
      </trkpt>
      <trkpt lat="39.5158210" lon="-7.7988700">
        <ele>269.4</ele>
        <time>2019-07-11T06:38:58Z</time>
      </trkpt>
      <trkpt lat="39.5157710" lon="-7.7988690">
        <ele>269.8</ele>
        <time>2019-07-11T06:39:00Z</time>
      </trkpt>
      <trkpt lat="39.5156600" lon="-7.7988740">
        <ele>270.6</ele>
        <time>2019-07-11T06:39:04Z</time>
      </trkpt>
      <trkpt lat="39.5155810" lon="-7.7988800">
        <ele>271.4</ele>
        <time>2019-07-11T06:39:07Z</time>
      </trkpt>
      <trkpt lat="39.5155540" lon="-7.7988850">
        <ele>271.8</ele>
        <time>2019-07-11T06:39:08Z</time>
      </trkpt>
      <trkpt lat="39.5153390" lon="-7.7989380">
        <ele>272.4</ele>
        <time>2019-07-11T06:39:16Z</time>
      </trkpt>
      <trkpt lat="39.5152850" lon="-7.7989540">
        <ele>273.0</ele>
        <time>2019-07-11T06:39:18Z</time>
      </trkpt>
      <trkpt lat="39.5152310" lon="-7.7989690">
        <ele>273.6</ele>
        <time>2019-07-11T06:39:20Z</time>
      </trkpt>
      <trkpt lat="39.5151500" lon="-7.7989960">
        <ele>273.6</ele>
        <time>2019-07-11T06:39:23Z</time>
      </trkpt>
      <trkpt lat="39.5151230" lon="-7.7990070">
        <ele>273.4</ele>
        <time>2019-07-11T06:39:24Z</time>
      </trkpt>
      <trkpt lat="39.5150110" lon="-7.7990470">
        <ele>273.6</ele>
        <time>2019-07-11T06:39:28Z</time>
      </trkpt>
      <trkpt lat="39.5148990" lon="-7.7990920">
        <ele>274.2</ele>
        <time>2019-07-11T06:39:32Z</time>
      </trkpt>
      <trkpt lat="39.5148200" lon="-7.7991260">
        <ele>274.6</ele>
        <time>2019-07-11T06:39:35Z</time>
      </trkpt>
      <trkpt lat="39.5147400" lon="-7.7991610">
        <ele>274.8</ele>
        <time>2019-07-11T06:39:38Z</time>
      </trkpt>
      <trkpt lat="39.5146650" lon="-7.7992070">
        <ele>275.0</ele>
        <time>2019-07-11T06:39:41Z</time>
      </trkpt>
      <trkpt lat="39.5146400" lon="-7.7992210">
        <ele>275.2</ele>
        <time>2019-07-11T06:39:42Z</time>
      </trkpt>
      <trkpt lat="39.5144910" lon="-7.7992950">
        <ele>276.0</ele>
        <time>2019-07-11T06:39:48Z</time>
      </trkpt>
      <trkpt lat="39.5143870" lon="-7.7993270">
        <ele>276.0</ele>
        <time>2019-07-11T06:39:52Z</time>
      </trkpt>
      <trkpt lat="39.5143290" lon="-7.7993430">
        <ele>276.0</ele>
        <time>2019-07-11T06:39:54Z</time>
      </trkpt>
      <trkpt lat="39.5142640" lon="-7.7993380">
        <ele>275.8</ele>
        <time>2019-07-11T06:39:56Z</time>
      </trkpt>
      <trkpt lat="39.5140850" lon="-7.7993360">
        <ele>275.4</ele>
        <time>2019-07-11T06:40:01Z</time>
      </trkpt>
      <trkpt lat="39.5140090" lon="-7.7993300">
        <ele>275.2</ele>
        <time>2019-07-11T06:40:03Z</time>
      </trkpt>
      <trkpt lat="39.5139300" lon="-7.7993260">
        <ele>275.2</ele>
        <time>2019-07-11T06:40:05Z</time>
      </trkpt>
      <trkpt lat="39.5138470" lon="-7.7993090">
        <ele>275.0</ele>
        <time>2019-07-11T06:40:07Z</time>
      </trkpt>
      <trkpt lat="39.5137320" lon="-7.7992940">
        <ele>275.0</ele>
        <time>2019-07-11T06:40:10Z</time>
      </trkpt>
      <trkpt lat="39.5136380" lon="-7.7992910">
        <ele>275.0</ele>
        <time>2019-07-11T06:40:13Z</time>
      </trkpt>
      <trkpt lat="39.5135300" lon="-7.7992930">
        <ele>275.2</ele>
        <time>2019-07-11T06:40:17Z</time>
      </trkpt>
      <trkpt lat="39.5134810" lon="-7.7992810">
        <ele>275.6</ele>
        <time>2019-07-11T06:40:19Z</time>
      </trkpt>
      <trkpt lat="39.5134540" lon="-7.7992770">
        <ele>275.8</ele>
        <time>2019-07-11T06:40:20Z</time>
      </trkpt>
      <trkpt lat="39.5133980" lon="-7.7992760">
        <ele>276.2</ele>
        <time>2019-07-11T06:40:22Z</time>
      </trkpt>
      <trkpt lat="39.5133080" lon="-7.7992740">
        <ele>276.4</ele>
        <time>2019-07-11T06:40:25Z</time>
      </trkpt>
      <trkpt lat="39.5132520" lon="-7.7992790">
        <ele>276.8</ele>
        <time>2019-07-11T06:40:27Z</time>
      </trkpt>
      <trkpt lat="39.5131740" lon="-7.7993010">
        <ele>277.2</ele>
        <time>2019-07-11T06:40:30Z</time>
      </trkpt>
      <trkpt lat="39.5130980" lon="-7.7993370">
        <ele>277.8</ele>
        <time>2019-07-11T06:40:33Z</time>
      </trkpt>
      <trkpt lat="39.5130240" lon="-7.7993900">
        <ele>278.2</ele>
        <time>2019-07-11T06:40:36Z</time>
      </trkpt>
      <trkpt lat="39.5129670" lon="-7.7994180">
        <ele>278.8</ele>
        <time>2019-07-11T06:40:38Z</time>
      </trkpt>
      <trkpt lat="39.5129410" lon="-7.7994350">
        <ele>279.0</ele>
        <time>2019-07-11T06:40:39Z</time>
      </trkpt>
      <trkpt lat="39.5128850" lon="-7.7994640">
        <ele>279.4</ele>
        <time>2019-07-11T06:40:41Z</time>
      </trkpt>
      <trkpt lat="39.5128060" lon="-7.7994980">
        <ele>279.8</ele>
        <time>2019-07-11T06:40:44Z</time>
      </trkpt>
      <trkpt lat="39.5127570" lon="-7.7995220">
        <ele>280.4</ele>
        <time>2019-07-11T06:40:46Z</time>
      </trkpt>
      <trkpt lat="39.5127320" lon="-7.7995340">
        <ele>280.6</ele>
        <time>2019-07-11T06:40:47Z</time>
      </trkpt>
      <trkpt lat="39.5126590" lon="-7.7995690">
        <ele>281.4</ele>
        <time>2019-07-11T06:40:50Z</time>
      </trkpt>
      <trkpt lat="39.5126350" lon="-7.7995850">
        <ele>281.6</ele>
        <time>2019-07-11T06:40:51Z</time>
      </trkpt>
      <trkpt lat="39.5125660" lon="-7.7996330">
        <ele>282.6</ele>
        <time>2019-07-11T06:40:54Z</time>
      </trkpt>
      <trkpt lat="39.5125450" lon="-7.7996470">
        <ele>282.8</ele>
        <time>2019-07-11T06:40:55Z</time>
      </trkpt>
      <trkpt lat="39.5124300" lon="-7.7997050">
        <ele>284.0</ele>
        <time>2019-07-11T06:41:00Z</time>
      </trkpt>
      <trkpt lat="39.5124070" lon="-7.7997160">
        <ele>284.2</ele>
        <time>2019-07-11T06:41:01Z</time>
      </trkpt>
      <trkpt lat="39.5123010" lon="-7.7997760">
        <ele>285.2</ele>
        <time>2019-07-11T06:41:06Z</time>
      </trkpt>
      <trkpt lat="39.5122580" lon="-7.7997920">
        <ele>285.4</ele>
        <time>2019-07-11T06:41:08Z</time>
      </trkpt>
      <trkpt lat="39.5121990" lon="-7.7998230">
        <ele>286.4</ele>
        <time>2019-07-11T06:41:11Z</time>
      </trkpt>
      <trkpt lat="39.5121180" lon="-7.7998630">
        <ele>287.4</ele>
        <time>2019-07-11T06:41:15Z</time>
      </trkpt>
      <trkpt lat="39.5120030" lon="-7.7999430">
        <ele>288.6</ele>
        <time>2019-07-11T06:41:21Z</time>
      </trkpt>
      <trkpt lat="39.5119810" lon="-7.7999530">
        <ele>289.0</ele>
        <time>2019-07-11T06:41:22Z</time>
      </trkpt>
      <trkpt lat="39.5119170" lon="-7.7999910">
        <ele>289.8</ele>
        <time>2019-07-11T06:41:25Z</time>
      </trkpt>
      <trkpt lat="39.5118610" lon="-7.8000520">
        <ele>290.4</ele>
        <time>2019-07-11T06:41:28Z</time>
      </trkpt>
      <trkpt lat="39.5118200" lon="-7.8000970">
        <ele>290.8</ele>
        <time>2019-07-11T06:41:30Z</time>
      </trkpt>
      <trkpt lat="39.5117130" lon="-7.8002190">
        <ele>291.8</ele>
        <time>2019-07-11T06:41:35Z</time>
      </trkpt>
      <trkpt lat="39.5116330" lon="-7.8003600">
        <ele>293.0</ele>
        <time>2019-07-11T06:41:40Z</time>
      </trkpt>
      <trkpt lat="39.5115930" lon="-7.8004550">
        <ele>293.4</ele>
        <time>2019-07-11T06:41:43Z</time>
      </trkpt>
      <trkpt lat="39.5115200" lon="-7.8006150">
        <ele>294.0</ele>
        <time>2019-07-11T06:41:48Z</time>
      </trkpt>
      <trkpt lat="39.5114940" lon="-7.8006890">
        <ele>294.4</ele>
        <time>2019-07-11T06:41:50Z</time>
      </trkpt>
      <trkpt lat="39.5114110" lon="-7.8008750">
        <ele>294.8</ele>
        <time>2019-07-11T06:41:55Z</time>
      </trkpt>
      <trkpt lat="39.5113770" lon="-7.8009570">
        <ele>295.0</ele>
        <time>2019-07-11T06:41:57Z</time>
      </trkpt>
      <trkpt lat="39.5113030" lon="-7.8011360">
        <ele>295.2</ele>
        <time>2019-07-11T06:42:01Z</time>
      </trkpt>
      <trkpt lat="39.5112590" lon="-7.8012350">
        <ele>295.2</ele>
        <time>2019-07-11T06:42:03Z</time>
      </trkpt>
      <trkpt lat="39.5111940" lon="-7.8013990">
        <ele>295.0</ele>
        <time>2019-07-11T06:42:06Z</time>
      </trkpt>
      <trkpt lat="39.5111210" lon="-7.8015750">
        <ele>295.0</ele>
        <time>2019-07-11T06:42:09Z</time>
      </trkpt>
      <trkpt lat="39.5110960" lon="-7.8016340">
        <ele>294.8</ele>
        <time>2019-07-11T06:42:10Z</time>
      </trkpt>
      <trkpt lat="39.5110700" lon="-7.8016940">
        <ele>294.8</ele>
        <time>2019-07-11T06:42:11Z</time>
      </trkpt>
      <trkpt lat="39.5108960" lon="-7.8021120">
        <ele>293.8</ele>
        <time>2019-07-11T06:42:17Z</time>
      </trkpt>
      <trkpt lat="39.5108650" lon="-7.8021960">
        <ele>293.4</ele>
        <time>2019-07-11T06:42:18Z</time>
      </trkpt>
      <trkpt lat="39.5107520" lon="-7.8024640">
        <ele>292.4</ele>
        <time>2019-07-11T06:42:21Z</time>
      </trkpt>
      <trkpt lat="39.5107110" lon="-7.8025590">
        <ele>291.8</ele>
        <time>2019-07-11T06:42:22Z</time>
      </trkpt>
      <trkpt lat="39.5106710" lon="-7.8026580">
        <ele>291.2</ele>
        <time>2019-07-11T06:42:23Z</time>
      </trkpt>
      <trkpt lat="39.5105590" lon="-7.8029790">
        <ele>290.0</ele>
        <time>2019-07-11T06:42:26Z</time>
      </trkpt>
      <trkpt lat="39.5104960" lon="-7.8032090">
        <ele>288.8</ele>
        <time>2019-07-11T06:42:28Z</time>
      </trkpt>
      <trkpt lat="39.5104420" lon="-7.8034630">
        <ele>287.4</ele>
        <time>2019-07-11T06:42:30Z</time>
      </trkpt>
      <trkpt lat="39.5103920" lon="-7.8037420">
        <ele>286.0</ele>
        <time>2019-07-11T06:42:32Z</time>
      </trkpt>
      <trkpt lat="39.5103330" lon="-7.8040440">
        <ele>284.2</ele>
        <time>2019-07-11T06:42:34Z</time>
      </trkpt>
      <trkpt lat="39.5103040" lon="-7.8041980">
        <ele>283.0</ele>
        <time>2019-07-11T06:42:35Z</time>
      </trkpt>
      <trkpt lat="39.5102750" lon="-7.8043500">
        <ele>281.8</ele>
        <time>2019-07-11T06:42:36Z</time>
      </trkpt>
      <trkpt lat="39.5102450" lon="-7.8045010">
        <ele>280.6</ele>
        <time>2019-07-11T06:42:37Z</time>
      </trkpt>
      <trkpt lat="39.5102130" lon="-7.8046500">
        <ele>278.8</ele>
        <time>2019-07-11T06:42:38Z</time>
      </trkpt>
      <trkpt lat="39.5101840" lon="-7.8047950">
        <ele>277.6</ele>
        <time>2019-07-11T06:42:39Z</time>
      </trkpt>
      <trkpt lat="39.5101560" lon="-7.8049370">
        <ele>276.4</ele>
        <time>2019-07-11T06:42:40Z</time>
      </trkpt>
      <trkpt lat="39.5101020" lon="-7.8052220">
        <ele>274.6</ele>
        <time>2019-07-11T06:42:42Z</time>
      </trkpt>
      <trkpt lat="39.5100470" lon="-7.8055140">
        <ele>273.4</ele>
        <time>2019-07-11T06:42:44Z</time>
      </trkpt>
      <trkpt lat="39.5100220" lon="-7.8056560">
        <ele>272.6</ele>
        <time>2019-07-11T06:42:45Z</time>
      </trkpt>
      <trkpt lat="39.5099980" lon="-7.8057920">
        <ele>271.6</ele>
        <time>2019-07-11T06:42:46Z</time>
      </trkpt>
      <trkpt lat="39.5099200" lon="-7.8061380">
        <ele>270.4</ele>
        <time>2019-07-11T06:42:49Z</time>
      </trkpt>
      <trkpt lat="39.5098900" lon="-7.8062280">
        <ele>270.2</ele>
        <time>2019-07-11T06:42:50Z</time>
      </trkpt>
      <trkpt lat="39.5098100" lon="-7.8063460">
        <ele>270.2</ele>
        <time>2019-07-11T06:42:52Z</time>
      </trkpt>
      <trkpt lat="39.5096730" lon="-7.8063510">
        <ele>270.6</ele>
        <time>2019-07-11T06:42:55Z</time>
      </trkpt>
      <trkpt lat="39.5096020" lon="-7.8063000">
        <ele>271.2</ele>
        <time>2019-07-11T06:42:57Z</time>
      </trkpt>
      <trkpt lat="39.5095730" lon="-7.8062690">
        <ele>271.4</ele>
        <time>2019-07-11T06:42:58Z</time>
      </trkpt>
      <trkpt lat="39.5095470" lon="-7.8062370">
        <ele>271.6</ele>
        <time>2019-07-11T06:42:59Z</time>
      </trkpt>
      <trkpt lat="39.5095270" lon="-7.8062040">
        <ele>271.8</ele>
        <time>2019-07-11T06:43:00Z</time>
      </trkpt>
      <trkpt lat="39.5094810" lon="-7.8060950">
        <ele>272.6</ele>
        <time>2019-07-11T06:43:03Z</time>
      </trkpt>
      <trkpt lat="39.5094190" lon="-7.8059980">
        <ele>273.2</ele>
        <time>2019-07-11T06:43:06Z</time>
      </trkpt>
      <trkpt lat="39.5093930" lon="-7.8059710">
        <ele>273.6</ele>
        <time>2019-07-11T06:43:07Z</time>
      </trkpt>
      <trkpt lat="39.5093650" lon="-7.8059490">
        <ele>273.8</ele>
        <time>2019-07-11T06:43:08Z</time>
      </trkpt>
      <trkpt lat="39.5093040" lon="-7.8059220">
        <ele>274.2</ele>
        <time>2019-07-11T06:43:10Z</time>
      </trkpt>
      <trkpt lat="39.5092420" lon="-7.8059080">
        <ele>274.8</ele>
        <time>2019-07-11T06:43:12Z</time>
      </trkpt>
      <trkpt lat="39.5092110" lon="-7.8059050">
        <ele>275.0</ele>
        <time>2019-07-11T06:43:13Z</time>
      </trkpt>
      <trkpt lat="39.5091120" lon="-7.8059150">
        <ele>275.8</ele>
        <time>2019-07-11T06:43:16Z</time>
      </trkpt>
      <trkpt lat="39.5090780" lon="-7.8059150">
        <ele>276.2</ele>
        <time>2019-07-11T06:43:17Z</time>
      </trkpt>
      <trkpt lat="39.5090080" lon="-7.8059140">
        <ele>276.4</ele>
        <time>2019-07-11T06:43:19Z</time>
      </trkpt>
      <trkpt lat="39.5088990" lon="-7.8059240">
        <ele>276.8</ele>
        <time>2019-07-11T06:43:22Z</time>
      </trkpt>
      <trkpt lat="39.5087890" lon="-7.8059000">
        <ele>277.0</ele>
        <time>2019-07-11T06:43:25Z</time>
      </trkpt>
      <trkpt lat="39.5087540" lon="-7.8058810">
        <ele>277.2</ele>
        <time>2019-07-11T06:43:26Z</time>
      </trkpt>
      <trkpt lat="39.5085980" lon="-7.8057380">
        <ele>278.2</ele>
        <time>2019-07-11T06:43:31Z</time>
      </trkpt>
      <trkpt lat="39.5085730" lon="-7.8057010">
        <ele>278.4</ele>
        <time>2019-07-11T06:43:32Z</time>
      </trkpt>
      <trkpt lat="39.5085020" lon="-7.8055270">
        <ele>279.2</ele>
        <time>2019-07-11T06:43:36Z</time>
      </trkpt>
      <trkpt lat="39.5084650" lon="-7.8054400">
        <ele>279.6</ele>
        <time>2019-07-11T06:43:38Z</time>
      </trkpt>
      <trkpt lat="39.5083470" lon="-7.8052000">
        <ele>280.8</ele>
        <time>2019-07-11T06:43:44Z</time>
      </trkpt>
      <trkpt lat="39.5083210" lon="-7.8051690">
        <ele>281.0</ele>
        <time>2019-07-11T06:43:45Z</time>
      </trkpt>
      <trkpt lat="39.5081980" lon="-7.8051000">
        <ele>281.8</ele>
        <time>2019-07-11T06:43:49Z</time>
      </trkpt>
      <trkpt lat="39.5081660" lon="-7.8050980">
        <ele>282.2</ele>
        <time>2019-07-11T06:43:50Z</time>
      </trkpt>
      <trkpt lat="39.5080540" lon="-7.8051050">
        <ele>283.2</ele>
        <time>2019-07-11T06:43:54Z</time>
      </trkpt>
      <trkpt lat="39.5079360" lon="-7.8051280">
        <ele>284.2</ele>
        <time>2019-07-11T06:43:58Z</time>
      </trkpt>
      <trkpt lat="39.5078480" lon="-7.8051490">
        <ele>284.8</ele>
        <time>2019-07-11T06:44:01Z</time>
      </trkpt>
      <trkpt lat="39.5077490" lon="-7.8051740">
        <ele>285.4</ele>
        <time>2019-07-11T06:44:04Z</time>
      </trkpt>
      <trkpt lat="39.5076380" lon="-7.8052000">
        <ele>285.6</ele>
        <time>2019-07-11T06:44:07Z</time>
      </trkpt>
      <trkpt lat="39.5073920" lon="-7.8053160">
        <ele>286.4</ele>
        <time>2019-07-11T06:44:14Z</time>
      </trkpt>
      <trkpt lat="39.5071860" lon="-7.8055670">
        <ele>287.6</ele>
        <time>2019-07-11T06:44:22Z</time>
      </trkpt>
      <trkpt lat="39.5070720" lon="-7.8057350">
        <ele>288.6</ele>
        <time>2019-07-11T06:44:27Z</time>
      </trkpt>
      <trkpt lat="39.5070490" lon="-7.8057700">
        <ele>288.8</ele>
        <time>2019-07-11T06:44:28Z</time>
      </trkpt>
      <trkpt lat="39.5069930" lon="-7.8058250">
        <ele>289.2</ele>
        <time>2019-07-11T06:44:30Z</time>
      </trkpt>
      <trkpt lat="39.5068460" lon="-7.8059340">
        <ele>290.0</ele>
        <time>2019-07-11T06:44:35Z</time>
      </trkpt>
      <trkpt lat="39.5068130" lon="-7.8059440">
        <ele>290.2</ele>
        <time>2019-07-11T06:44:36Z</time>
      </trkpt>
      <trkpt lat="39.5066770" lon="-7.8059370">
        <ele>291.0</ele>
        <time>2019-07-11T06:44:40Z</time>
      </trkpt>
      <trkpt lat="39.5066120" lon="-7.8059090">
        <ele>291.4</ele>
        <time>2019-07-11T06:44:42Z</time>
      </trkpt>
      <trkpt lat="39.5064900" lon="-7.8058370">
        <ele>292.2</ele>
        <time>2019-07-11T06:44:46Z</time>
      </trkpt>
      <trkpt lat="39.5064310" lon="-7.8057980">
        <ele>292.4</ele>
        <time>2019-07-11T06:44:48Z</time>
      </trkpt>
      <trkpt lat="39.5063200" lon="-7.8056990">
        <ele>293.0</ele>
        <time>2019-07-11T06:44:52Z</time>
      </trkpt>
      <trkpt lat="39.5062700" lon="-7.8056450">
        <ele>293.6</ele>
        <time>2019-07-11T06:44:54Z</time>
      </trkpt>
      <trkpt lat="39.5062120" lon="-7.8055430">
        <ele>294.0</ele>
        <time>2019-07-11T06:44:57Z</time>
      </trkpt>
      <trkpt lat="39.5061750" lon="-7.8054270">
        <ele>294.4</ele>
        <time>2019-07-11T06:45:00Z</time>
      </trkpt>
      <trkpt lat="39.5061770" lon="-7.8053020">
        <ele>295.2</ele>
        <time>2019-07-11T06:45:03Z</time>
      </trkpt>
      <trkpt lat="39.5062030" lon="-7.8051720">
        <ele>295.6</ele>
        <time>2019-07-11T06:45:06Z</time>
      </trkpt>
      <trkpt lat="39.5062700" lon="-7.8050160">
        <ele>296.2</ele>
        <time>2019-07-11T06:45:10Z</time>
      </trkpt>
      <trkpt lat="39.5063230" lon="-7.8049490">
        <ele>296.4</ele>
        <time>2019-07-11T06:45:12Z</time>
      </trkpt>
      <trkpt lat="39.5065670" lon="-7.8047180">
        <ele>297.2</ele>
        <time>2019-07-11T06:45:20Z</time>
      </trkpt>
      <trkpt lat="39.5065980" lon="-7.8046950">
        <ele>297.4</ele>
        <time>2019-07-11T06:45:21Z</time>
      </trkpt>
      <trkpt lat="39.5067990" lon="-7.8045870">
        <ele>297.8</ele>
        <time>2019-07-11T06:45:27Z</time>
      </trkpt>
      <trkpt lat="39.5069820" lon="-7.8044950">
        <ele>298.2</ele>
        <time>2019-07-11T06:45:32Z</time>
      </trkpt>
      <trkpt lat="39.5070200" lon="-7.8044760">
        <ele>298.4</ele>
        <time>2019-07-11T06:45:33Z</time>
      </trkpt>
      <trkpt lat="39.5072360" lon="-7.8043680">
        <ele>299.2</ele>
        <time>2019-07-11T06:45:39Z</time>
      </trkpt>
      <trkpt lat="39.5072680" lon="-7.8043490">
        <ele>299.4</ele>
        <time>2019-07-11T06:45:40Z</time>
      </trkpt>
      <trkpt lat="39.5073010" lon="-7.8043310">
        <ele>299.6</ele>
        <time>2019-07-11T06:45:41Z</time>
      </trkpt>
      <trkpt lat="39.5074270" lon="-7.8042610">
        <ele>300.6</ele>
        <time>2019-07-11T06:45:45Z</time>
      </trkpt>
      <trkpt lat="39.5075220" lon="-7.8042110">
        <ele>301.0</ele>
        <time>2019-07-11T06:45:48Z</time>
      </trkpt>
      <trkpt lat="39.5076520" lon="-7.8041340">
        <ele>301.8</ele>
        <time>2019-07-11T06:45:52Z</time>
      </trkpt>
      <trkpt lat="39.5078120" lon="-7.8040190">
        <ele>302.4</ele>
        <time>2019-07-11T06:45:57Z</time>
      </trkpt>
      <trkpt lat="39.5078410" lon="-7.8039940">
        <ele>302.8</ele>
        <time>2019-07-11T06:45:58Z</time>
      </trkpt>
      <trkpt lat="39.5080020" lon="-7.8038170">
        <ele>303.8</ele>
        <time>2019-07-11T06:46:04Z</time>
      </trkpt>
      <trkpt lat="39.5081130" lon="-7.8036400">
        <ele>304.8</ele>
        <time>2019-07-11T06:46:09Z</time>
      </trkpt>
      <trkpt lat="39.5081600" lon="-7.8035670">
        <ele>305.2</ele>
        <time>2019-07-11T06:46:11Z</time>
      </trkpt>
      <trkpt lat="39.5082790" lon="-7.8033750">
        <ele>305.8</ele>
        <time>2019-07-11T06:46:16Z</time>
      </trkpt>
      <trkpt lat="39.5083400" lon="-7.8032610">
        <ele>306.4</ele>
        <time>2019-07-11T06:46:19Z</time>
      </trkpt>
      <trkpt lat="39.5084330" lon="-7.8031250">
        <ele>307.0</ele>
        <time>2019-07-11T06:46:23Z</time>
      </trkpt>
      <trkpt lat="39.5085050" lon="-7.8030190">
        <ele>307.6</ele>
        <time>2019-07-11T06:46:26Z</time>
      </trkpt>
      <trkpt lat="39.5085920" lon="-7.8028740">
        <ele>308.2</ele>
        <time>2019-07-11T06:46:30Z</time>
      </trkpt>
      <trkpt lat="39.5086840" lon="-7.8027310">
        <ele>309.0</ele>
        <time>2019-07-11T06:46:34Z</time>
      </trkpt>
      <trkpt lat="39.5087680" lon="-7.8025750">
        <ele>309.2</ele>
        <time>2019-07-11T06:46:38Z</time>
      </trkpt>
      <trkpt lat="39.5088420" lon="-7.8024540">
        <ele>309.6</ele>
        <time>2019-07-11T06:46:41Z</time>
      </trkpt>
      <trkpt lat="39.5089980" lon="-7.8021880">
        <ele>309.4</ele>
        <time>2019-07-11T06:46:47Z</time>
      </trkpt>
      <trkpt lat="39.5090540" lon="-7.8020840">
        <ele>309.2</ele>
        <time>2019-07-11T06:46:49Z</time>
      </trkpt>
      <trkpt lat="39.5090830" lon="-7.8020320">
        <ele>309.0</ele>
        <time>2019-07-11T06:46:50Z</time>
      </trkpt>
      <trkpt lat="39.5092440" lon="-7.8017570">
        <ele>308.2</ele>
        <time>2019-07-11T06:46:55Z</time>
      </trkpt>
      <trkpt lat="39.5093150" lon="-7.8016290">
        <ele>307.8</ele>
        <time>2019-07-11T06:46:57Z</time>
      </trkpt>
      <trkpt lat="39.5093820" lon="-7.8014920">
        <ele>307.4</ele>
        <time>2019-07-11T06:46:59Z</time>
      </trkpt>
      <trkpt lat="39.5094400" lon="-7.8013490">
        <ele>307.4</ele>
        <time>2019-07-11T06:47:01Z</time>
      </trkpt>
      <trkpt lat="39.5094830" lon="-7.8012010">
        <ele>307.4</ele>
        <time>2019-07-11T06:47:03Z</time>
      </trkpt>
      <trkpt lat="39.5095520" lon="-7.8007730">
        <ele>307.4</ele>
        <time>2019-07-11T06:47:09Z</time>
      </trkpt>
      <trkpt lat="39.5095820" lon="-7.8004980">
        <ele>308.0</ele>
        <time>2019-07-11T06:47:14Z</time>
      </trkpt>
      <trkpt lat="39.5096290" lon="-7.8002350">
        <ele>309.2</ele>
        <time>2019-07-11T06:47:20Z</time>
      </trkpt>
      <trkpt lat="39.5096340" lon="-7.8001910">
        <ele>309.4</ele>
        <time>2019-07-11T06:47:21Z</time>
      </trkpt>
      <trkpt lat="39.5096470" lon="-7.8000610">
        <ele>310.0</ele>
        <time>2019-07-11T06:47:24Z</time>
      </trkpt>
      <trkpt lat="39.5096640" lon="-7.7999790">
        <ele>310.4</ele>
        <time>2019-07-11T06:47:26Z</time>
      </trkpt>
      <trkpt lat="39.5096720" lon="-7.7999370">
        <ele>310.6</ele>
        <time>2019-07-11T06:47:27Z</time>
      </trkpt>
      <trkpt lat="39.5097240" lon="-7.7997180">
        <ele>311.4</ele>
        <time>2019-07-11T06:47:32Z</time>
      </trkpt>
      <trkpt lat="39.5097350" lon="-7.7996700">
        <ele>311.4</ele>
        <time>2019-07-11T06:47:33Z</time>
      </trkpt>
      <trkpt lat="39.5098370" lon="-7.7992840">
        <ele>311.0</ele>
        <time>2019-07-11T06:47:40Z</time>
      </trkpt>
      <trkpt lat="39.5098900" lon="-7.7990710">
        <ele>310.2</ele>
        <time>2019-07-11T06:47:43Z</time>
      </trkpt>
      <trkpt lat="39.5099590" lon="-7.7988310">
        <ele>309.6</ele>
        <time>2019-07-11T06:47:46Z</time>
      </trkpt>
      <trkpt lat="39.5100040" lon="-7.7986590">
        <ele>309.4</ele>
        <time>2019-07-11T06:47:48Z</time>
      </trkpt>
      <trkpt lat="39.5100170" lon="-7.7985700">
        <ele>309.2</ele>
        <time>2019-07-11T06:47:49Z</time>
      </trkpt>
      <trkpt lat="39.5100260" lon="-7.7984810">
        <ele>309.0</ele>
        <time>2019-07-11T06:47:50Z</time>
      </trkpt>
      <trkpt lat="39.5100320" lon="-7.7983910">
        <ele>308.6</ele>
        <time>2019-07-11T06:47:51Z</time>
      </trkpt>
      <trkpt lat="39.5100380" lon="-7.7982150">
        <ele>308.0</ele>
        <time>2019-07-11T06:47:53Z</time>
      </trkpt>
      <trkpt lat="39.5100140" lon="-7.7979670">
        <ele>307.8</ele>
        <time>2019-07-11T06:47:56Z</time>
      </trkpt>
      <trkpt lat="39.5099710" lon="-7.7976730">
        <ele>307.8</ele>
        <time>2019-07-11T06:48:00Z</time>
      </trkpt>
      <trkpt lat="39.5099470" lon="-7.7976060">
        <ele>307.8</ele>
        <time>2019-07-11T06:48:01Z</time>
      </trkpt>
      <trkpt lat="39.5097460" lon="-7.7972630">
        <ele>307.4</ele>
        <time>2019-07-11T06:48:07Z</time>
      </trkpt>
      <trkpt lat="39.5095810" lon="-7.7969940">
        <ele>308.0</ele>
        <time>2019-07-11T06:48:13Z</time>
      </trkpt>
      <trkpt lat="39.5095070" lon="-7.7968630">
        <ele>308.6</ele>
        <time>2019-07-11T06:48:16Z</time>
      </trkpt>
      <trkpt lat="39.5094590" lon="-7.7967800">
        <ele>309.0</ele>
        <time>2019-07-11T06:48:18Z</time>
      </trkpt>
      <trkpt lat="39.5094380" lon="-7.7967390">
        <ele>309.2</ele>
        <time>2019-07-11T06:48:19Z</time>
      </trkpt>
      <trkpt lat="39.5094040" lon="-7.7966490">
        <ele>309.8</ele>
        <time>2019-07-11T06:48:21Z</time>
      </trkpt>
      <trkpt lat="39.5093750" lon="-7.7965610">
        <ele>310.4</ele>
        <time>2019-07-11T06:48:23Z</time>
      </trkpt>
      <trkpt lat="39.5093380" lon="-7.7964310">
        <ele>311.0</ele>
        <time>2019-07-11T06:48:26Z</time>
      </trkpt>
      <trkpt lat="39.5093130" lon="-7.7963460">
        <ele>311.4</ele>
        <time>2019-07-11T06:48:28Z</time>
      </trkpt>
      <trkpt lat="39.5092900" lon="-7.7962570">
        <ele>311.8</ele>
        <time>2019-07-11T06:48:30Z</time>
      </trkpt>
      <trkpt lat="39.5092740" lon="-7.7961640">
        <ele>312.2</ele>
        <time>2019-07-11T06:48:32Z</time>
      </trkpt>
      <trkpt lat="39.5092660" lon="-7.7961170">
        <ele>312.2</ele>
        <time>2019-07-11T06:48:33Z</time>
      </trkpt>
      <trkpt lat="39.5092340" lon="-7.7959380">
        <ele>312.8</ele>
        <time>2019-07-11T06:48:37Z</time>
      </trkpt>
      <trkpt lat="39.5092170" lon="-7.7957940">
        <ele>313.4</ele>
        <time>2019-07-11T06:48:40Z</time>
      </trkpt>
      <trkpt lat="39.5091860" lon="-7.7955890">
        <ele>313.2</ele>
        <time>2019-07-11T06:48:44Z</time>
      </trkpt>
      <trkpt lat="39.5091500" lon="-7.7953130">
        <ele>313.2</ele>
        <time>2019-07-11T06:48:49Z</time>
      </trkpt>
      <trkpt lat="39.5091310" lon="-7.7952010">
        <ele>313.2</ele>
        <time>2019-07-11T06:48:51Z</time>
      </trkpt>
      <trkpt lat="39.5091230" lon="-7.7951420">
        <ele>313.0</ele>
        <time>2019-07-11T06:48:52Z</time>
      </trkpt>
      <trkpt lat="39.5091080" lon="-7.7950200">
        <ele>312.6</ele>
        <time>2019-07-11T06:48:54Z</time>
      </trkpt>
      <trkpt lat="39.5090960" lon="-7.7948940">
        <ele>312.2</ele>
        <time>2019-07-11T06:48:56Z</time>
      </trkpt>
      <trkpt lat="39.5090760" lon="-7.7946970">
        <ele>311.8</ele>
        <time>2019-07-11T06:48:59Z</time>
      </trkpt>
      <trkpt lat="39.5090670" lon="-7.7946310">
        <ele>311.6</ele>
        <time>2019-07-11T06:49:00Z</time>
      </trkpt>
      <trkpt lat="39.5090350" lon="-7.7944400">
        <ele>311.2</ele>
        <time>2019-07-11T06:49:03Z</time>
      </trkpt>
      <trkpt lat="39.5090100" lon="-7.7943180">
        <ele>311.2</ele>
        <time>2019-07-11T06:49:05Z</time>
      </trkpt>
      <trkpt lat="39.5089780" lon="-7.7941990">
        <ele>311.0</ele>
        <time>2019-07-11T06:49:07Z</time>
      </trkpt>
      <trkpt lat="39.5088890" lon="-7.7939210">
        <ele>311.0</ele>
        <time>2019-07-11T06:49:12Z</time>
      </trkpt>
      <trkpt lat="39.5088350" lon="-7.7938310">
        <ele>311.4</ele>
        <time>2019-07-11T06:49:14Z</time>
      </trkpt>
      <trkpt lat="39.5087090" lon="-7.7936070">
        <ele>311.8</ele>
        <time>2019-07-11T06:49:19Z</time>
      </trkpt>
      <trkpt lat="39.5086820" lon="-7.7935660">
        <ele>311.8</ele>
        <time>2019-07-11T06:49:20Z</time>
      </trkpt>
      <trkpt lat="39.5086570" lon="-7.7935260">
        <ele>312.0</ele>
        <time>2019-07-11T06:49:21Z</time>
      </trkpt>
      <trkpt lat="39.5086100" lon="-7.7934410">
        <ele>312.4</ele>
        <time>2019-07-11T06:49:23Z</time>
      </trkpt>
      <trkpt lat="39.5084890" lon="-7.7932400">
        <ele>313.0</ele>
        <time>2019-07-11T06:49:28Z</time>
      </trkpt>
      <trkpt lat="39.5084430" lon="-7.7931600">
        <ele>313.0</ele>
        <time>2019-07-11T06:49:30Z</time>
      </trkpt>
      <trkpt lat="39.5084000" lon="-7.7930790">
        <ele>313.2</ele>
        <time>2019-07-11T06:49:32Z</time>
      </trkpt>
      <trkpt lat="39.5082670" lon="-7.7928380">
        <ele>314.0</ele>
        <time>2019-07-11T06:49:38Z</time>
      </trkpt>
      <trkpt lat="39.5082220" lon="-7.7927590">
        <ele>314.2</ele>
        <time>2019-07-11T06:49:40Z</time>
      </trkpt>
      <trkpt lat="39.5081440" lon="-7.7926500">
        <ele>314.6</ele>
        <time>2019-07-11T06:49:43Z</time>
      </trkpt>
      <trkpt lat="39.5079860" lon="-7.7923700">
        <ele>315.0</ele>
        <time>2019-07-11T06:49:50Z</time>
      </trkpt>
      <trkpt lat="39.5078710" lon="-7.7921770">
        <ele>315.2</ele>
        <time>2019-07-11T06:49:55Z</time>
      </trkpt>
      <trkpt lat="39.5078340" lon="-7.7921020">
        <ele>315.4</ele>
        <time>2019-07-11T06:49:57Z</time>
      </trkpt>
      <trkpt lat="39.5077660" lon="-7.7919800">
        <ele>315.8</ele>
        <time>2019-07-11T06:50:01Z</time>
      </trkpt>
      <trkpt lat="39.5077200" lon="-7.7919010">
        <ele>315.8</ele>
        <time>2019-07-11T06:50:04Z</time>
      </trkpt>
      <trkpt lat="39.5075910" lon="-7.7917150">
        <ele>316.0</ele>
        <time>2019-07-11T06:50:10Z</time>
      </trkpt>
      <trkpt lat="39.5074820" lon="-7.7915810">
        <ele>316.0</ele>
        <time>2019-07-11T06:50:14Z</time>
      </trkpt>
      <trkpt lat="39.5073670" lon="-7.7914350">
        <ele>315.8</ele>
        <time>2019-07-11T06:50:18Z</time>
      </trkpt>
      <trkpt lat="39.5072490" lon="-7.7912830">
        <ele>315.8</ele>
        <time>2019-07-11T06:50:22Z</time>
      </trkpt>
      <trkpt lat="39.5071910" lon="-7.7912060">
        <ele>315.8</ele>
        <time>2019-07-11T06:50:24Z</time>
      </trkpt>
      <trkpt lat="39.5071310" lon="-7.7911310">
        <ele>315.8</ele>
        <time>2019-07-11T06:50:26Z</time>
      </trkpt>
      <trkpt lat="39.5070990" lon="-7.7910930">
        <ele>315.8</ele>
        <time>2019-07-11T06:50:27Z</time>
      </trkpt>
      <trkpt lat="39.5068660" lon="-7.7908170">
        <ele>315.6</ele>
        <time>2019-07-11T06:50:34Z</time>
      </trkpt>
      <trkpt lat="39.5067960" lon="-7.7907270">
        <ele>315.4</ele>
        <time>2019-07-11T06:50:36Z</time>
      </trkpt>
      <trkpt lat="39.5064640" lon="-7.7903130">
        <ele>315.0</ele>
        <time>2019-07-11T06:50:45Z</time>
      </trkpt>
      <trkpt lat="39.5061420" lon="-7.7899180">
        <ele>315.0</ele>
        <time>2019-07-11T06:50:53Z</time>
      </trkpt>
      <trkpt lat="39.5058130" lon="-7.7895200">
        <ele>314.8</ele>
        <time>2019-07-11T06:51:01Z</time>
      </trkpt>
      <trkpt lat="39.5054530" lon="-7.7891540">
        <ele>314.4</ele>
        <time>2019-07-11T06:51:09Z</time>
      </trkpt>
      <trkpt lat="39.5051790" lon="-7.7888840">
        <ele>314.0</ele>
        <time>2019-07-11T06:51:15Z</time>
      </trkpt>
      <trkpt lat="39.5050890" lon="-7.7887940">
        <ele>314.0</ele>
        <time>2019-07-11T06:51:17Z</time>
      </trkpt>
      <trkpt lat="39.5047230" lon="-7.7884350">
        <ele>313.8</ele>
        <time>2019-07-11T06:51:25Z</time>
      </trkpt>
      <trkpt lat="39.5043230" lon="-7.7880310">
        <ele>314.0</ele>
        <time>2019-07-11T06:51:34Z</time>
      </trkpt>
      <trkpt lat="39.5039840" lon="-7.7876890">
        <ele>314.0</ele>
        <time>2019-07-11T06:51:42Z</time>
      </trkpt>
      <trkpt lat="39.5038660" lon="-7.7875700">
        <ele>314.0</ele>
        <time>2019-07-11T06:51:45Z</time>
      </trkpt>
      <trkpt lat="39.5037640" lon="-7.7874520">
        <ele>314.0</ele>
        <time>2019-07-11T06:51:48Z</time>
      </trkpt>
      <trkpt lat="39.5034680" lon="-7.7870780">
        <ele>314.4</ele>
        <time>2019-07-11T06:51:57Z</time>
      </trkpt>
      <trkpt lat="39.5031580" lon="-7.7866480">
        <ele>314.4</ele>
        <time>2019-07-11T06:52:06Z</time>
      </trkpt>
      <trkpt lat="39.5030130" lon="-7.7864390">
        <ele>314.2</ele>
        <time>2019-07-11T06:52:10Z</time>
      </trkpt>
      <trkpt lat="39.5028560" lon="-7.7862340">
        <ele>314.0</ele>
        <time>2019-07-11T06:52:14Z</time>
      </trkpt>
      <trkpt lat="39.5026590" lon="-7.7859660">
        <ele>313.8</ele>
        <time>2019-07-11T06:52:19Z</time>
      </trkpt>
      <trkpt lat="39.5024270" lon="-7.7856480">
        <ele>313.6</ele>
        <time>2019-07-11T06:52:25Z</time>
      </trkpt>
      <trkpt lat="39.5021440" lon="-7.7852260">
        <ele>313.8</ele>
        <time>2019-07-11T06:52:33Z</time>
      </trkpt>
      <trkpt lat="39.5020670" lon="-7.7851360">
        <ele>313.8</ele>
        <time>2019-07-11T06:52:35Z</time>
      </trkpt>
      <trkpt lat="39.5018060" lon="-7.7847760">
        <ele>314.0</ele>
        <time>2019-07-11T06:52:42Z</time>
      </trkpt>
      <trkpt lat="39.5015350" lon="-7.7843970">
        <ele>314.0</ele>
        <time>2019-07-11T06:52:49Z</time>
      </trkpt>
      <trkpt lat="39.5014130" lon="-7.7842300">
        <ele>313.8</ele>
        <time>2019-07-11T06:52:52Z</time>
      </trkpt>
      <trkpt lat="39.5011360" lon="-7.7838420">
        <ele>313.4</ele>
        <time>2019-07-11T06:52:59Z</time>
      </trkpt>
      <trkpt lat="39.5010280" lon="-7.7836900">
        <ele>313.0</ele>
        <time>2019-07-11T06:53:02Z</time>
      </trkpt>
      <trkpt lat="39.5009940" lon="-7.7836390">
        <ele>312.8</ele>
        <time>2019-07-11T06:53:03Z</time>
      </trkpt>
      <trkpt lat="39.5008930" lon="-7.7834900">
        <ele>312.6</ele>
        <time>2019-07-11T06:53:06Z</time>
      </trkpt>
      <trkpt lat="39.5007440" lon="-7.7834050">
        <ele>312.6</ele>
        <time>2019-07-11T06:53:10Z</time>
      </trkpt>
      <trkpt lat="39.5006730" lon="-7.7834950">
        <ele>312.8</ele>
        <time>2019-07-11T06:53:13Z</time>
      </trkpt>
      <trkpt lat="39.5006600" lon="-7.7835360">
        <ele>312.8</ele>
        <time>2019-07-11T06:53:14Z</time>
      </trkpt>
      <trkpt lat="39.5006110" lon="-7.7836580">
        <ele>313.0</ele>
        <time>2019-07-11T06:53:17Z</time>
      </trkpt>
      <trkpt lat="39.5005770" lon="-7.7837450">
        <ele>313.4</ele>
        <time>2019-07-11T06:53:19Z</time>
      </trkpt>
      <trkpt lat="39.5004800" lon="-7.7839670">
        <ele>313.6</ele>
        <time>2019-07-11T06:53:24Z</time>
      </trkpt>
      <trkpt lat="39.5004550" lon="-7.7840080">
        <ele>313.6</ele>
        <time>2019-07-11T06:53:25Z</time>
      </trkpt>
      <trkpt lat="39.5003940" lon="-7.7840770">
        <ele>313.8</ele>
        <time>2019-07-11T06:53:27Z</time>
      </trkpt>
      <trkpt lat="39.5003240" lon="-7.7841340">
        <ele>313.6</ele>
        <time>2019-07-11T06:53:29Z</time>
      </trkpt>
      <trkpt lat="39.5001240" lon="-7.7842470">
        <ele>313.4</ele>
        <time>2019-07-11T06:53:34Z</time>
      </trkpt>
      <trkpt lat="39.5000410" lon="-7.7843010">
        <ele>313.4</ele>
        <time>2019-07-11T06:53:36Z</time>
      </trkpt>
      <trkpt lat="39.4997520" lon="-7.7844570">
        <ele>313.4</ele>
        <time>2019-07-11T06:53:42Z</time>
      </trkpt>
      <trkpt lat="39.4994780" lon="-7.7845940">
        <ele>312.2</ele>
        <time>2019-07-11T06:53:47Z</time>
      </trkpt>
      <trkpt lat="39.4994200" lon="-7.7846230">
        <ele>311.8</ele>
        <time>2019-07-11T06:53:48Z</time>
      </trkpt>
      <trkpt lat="39.4990700" lon="-7.7848050">
        <ele>311.0</ele>
        <time>2019-07-11T06:53:54Z</time>
      </trkpt>
      <trkpt lat="39.4989470" lon="-7.7848570">
        <ele>310.4</ele>
        <time>2019-07-11T06:53:56Z</time>
      </trkpt>
      <trkpt lat="39.4987560" lon="-7.7849040">
        <ele>310.0</ele>
        <time>2019-07-11T06:53:59Z</time>
      </trkpt>
      <trkpt lat="39.4986910" lon="-7.7849110">
        <ele>309.8</ele>
        <time>2019-07-11T06:54:00Z</time>
      </trkpt>
      <trkpt lat="39.4983690" lon="-7.7849080">
        <ele>309.6</ele>
        <time>2019-07-11T06:54:05Z</time>
      </trkpt>
      <trkpt lat="39.4983050" lon="-7.7849100">
        <ele>309.4</ele>
        <time>2019-07-11T06:54:06Z</time>
      </trkpt>
      <trkpt lat="39.4981790" lon="-7.7849120">
        <ele>309.0</ele>
        <time>2019-07-11T06:54:08Z</time>
      </trkpt>
      <trkpt lat="39.4980000" lon="-7.7848940">
        <ele>308.6</ele>
        <time>2019-07-11T06:54:11Z</time>
      </trkpt>
      <trkpt lat="39.4978840" lon="-7.7848960">
        <ele>308.4</ele>
        <time>2019-07-11T06:54:13Z</time>
      </trkpt>
      <trkpt lat="39.4977750" lon="-7.7849310">
        <ele>308.2</ele>
        <time>2019-07-11T06:54:15Z</time>
      </trkpt>
      <trkpt lat="39.4977220" lon="-7.7849570">
        <ele>308.2</ele>
        <time>2019-07-11T06:54:16Z</time>
      </trkpt>
      <trkpt lat="39.4974160" lon="-7.7851260">
        <ele>307.6</ele>
        <time>2019-07-11T06:54:22Z</time>
      </trkpt>
      <trkpt lat="39.4972140" lon="-7.7852680">
        <ele>307.2</ele>
        <time>2019-07-11T06:54:26Z</time>
      </trkpt>
      <trkpt lat="39.4970590" lon="-7.7853720">
        <ele>306.6</ele>
        <time>2019-07-11T06:54:29Z</time>
      </trkpt>
      <trkpt lat="39.4970050" lon="-7.7854070">
        <ele>306.8</ele>
        <time>2019-07-11T06:54:30Z</time>
      </trkpt>
      <trkpt lat="39.4969010" lon="-7.7854880">
        <ele>306.2</ele>
        <time>2019-07-11T06:54:32Z</time>
      </trkpt>
      <trkpt lat="39.4968450" lon="-7.7855260">
        <ele>306.0</ele>
        <time>2019-07-11T06:54:33Z</time>
      </trkpt>
      <trkpt lat="39.4967350" lon="-7.7856070">
        <ele>305.4</ele>
        <time>2019-07-11T06:54:35Z</time>
      </trkpt>
      <trkpt lat="39.4966310" lon="-7.7856750">
        <ele>304.8</ele>
        <time>2019-07-11T06:54:37Z</time>
      </trkpt>
      <trkpt lat="39.4965290" lon="-7.7857310">
        <ele>303.8</ele>
        <time>2019-07-11T06:54:39Z</time>
      </trkpt>
      <trkpt lat="39.4964750" lon="-7.7857600">
        <ele>303.6</ele>
        <time>2019-07-11T06:54:40Z</time>
      </trkpt>
      <trkpt lat="39.4962650" lon="-7.7858850">
        <ele>302.6</ele>
        <time>2019-07-11T06:54:44Z</time>
      </trkpt>
      <trkpt lat="39.4961500" lon="-7.7859560">
        <ele>302.2</ele>
        <time>2019-07-11T06:54:46Z</time>
      </trkpt>
      <trkpt lat="39.4960370" lon="-7.7860360">
        <ele>301.4</ele>
        <time>2019-07-11T06:54:48Z</time>
      </trkpt>
      <trkpt lat="39.4957620" lon="-7.7862590">
        <ele>300.6</ele>
        <time>2019-07-11T06:54:53Z</time>
      </trkpt>
      <trkpt lat="39.4957150" lon="-7.7863130">
        <ele>300.4</ele>
        <time>2019-07-11T06:54:54Z</time>
      </trkpt>
      <trkpt lat="39.4955400" lon="-7.7865400">
        <ele>299.6</ele>
        <time>2019-07-11T06:54:58Z</time>
      </trkpt>
      <trkpt lat="39.4954980" lon="-7.7865890">
        <ele>299.6</ele>
        <time>2019-07-11T06:54:59Z</time>
      </trkpt>
      <trkpt lat="39.4953840" lon="-7.7867470">
        <ele>299.4</ele>
        <time>2019-07-11T06:55:02Z</time>
      </trkpt>
      <trkpt lat="39.4952650" lon="-7.7868990">
        <ele>299.2</ele>
        <time>2019-07-11T06:55:05Z</time>
      </trkpt>
      <trkpt lat="39.4951390" lon="-7.7870480">
        <ele>298.6</ele>
        <time>2019-07-11T06:55:08Z</time>
      </trkpt>
      <trkpt lat="39.4949740" lon="-7.7872470">
        <ele>298.2</ele>
        <time>2019-07-11T06:55:12Z</time>
      </trkpt>
      <trkpt lat="39.4947640" lon="-7.7874740">
        <ele>298.4</ele>
        <time>2019-07-11T06:55:17Z</time>
      </trkpt>
      <trkpt lat="39.4946890" lon="-7.7875630">
        <ele>298.6</ele>
        <time>2019-07-11T06:55:19Z</time>
      </trkpt>
      <trkpt lat="39.4945210" lon="-7.7877510">
        <ele>297.0</ele>
        <time>2019-07-11T06:55:23Z</time>
      </trkpt>
      <trkpt lat="39.4944780" lon="-7.7878010">
        <ele>297.0</ele>
        <time>2019-07-11T06:55:24Z</time>
      </trkpt>
      <trkpt lat="39.4942140" lon="-7.7880830">
        <ele>296.0</ele>
        <time>2019-07-11T06:55:30Z</time>
      </trkpt>
      <trkpt lat="39.4941620" lon="-7.7881160">
        <ele>296.0</ele>
        <time>2019-07-11T06:55:31Z</time>
      </trkpt>
      <trkpt lat="39.4939430" lon="-7.7881650">
        <ele>296.0</ele>
        <time>2019-07-11T06:55:35Z</time>
      </trkpt>
      <trkpt lat="39.4938910" lon="-7.7881680">
        <ele>296.0</ele>
        <time>2019-07-11T06:55:36Z</time>
      </trkpt>
      <trkpt lat="39.4936950" lon="-7.7881820">
        <ele>295.6</ele>
        <time>2019-07-11T06:55:40Z</time>
      </trkpt>
      <trkpt lat="39.4935970" lon="-7.7881970">
        <ele>295.4</ele>
        <time>2019-07-11T06:55:42Z</time>
      </trkpt>
      <trkpt lat="39.4934210" lon="-7.7882480">
        <ele>295.6</ele>
        <time>2019-07-11T06:55:46Z</time>
      </trkpt>
      <trkpt lat="39.4933380" lon="-7.7882970">
        <ele>295.6</ele>
        <time>2019-07-11T06:55:48Z</time>
      </trkpt>
      <trkpt lat="39.4932020" lon="-7.7883730">
        <ele>295.8</ele>
        <time>2019-07-11T06:55:51Z</time>
      </trkpt>
      <trkpt lat="39.4930800" lon="-7.7884410">
        <ele>295.8</ele>
        <time>2019-07-11T06:55:54Z</time>
      </trkpt>
      <trkpt lat="39.4930080" lon="-7.7884970">
        <ele>295.4</ele>
        <time>2019-07-11T06:55:56Z</time>
      </trkpt>
      <trkpt lat="39.4929230" lon="-7.7886090">
        <ele>295.4</ele>
        <time>2019-07-11T06:55:59Z</time>
      </trkpt>
      <trkpt lat="39.4927500" lon="-7.7888500">
        <ele>295.2</ele>
        <time>2019-07-11T06:56:05Z</time>
      </trkpt>
      <trkpt lat="39.4927140" lon="-7.7888860">
        <ele>295.2</ele>
        <time>2019-07-11T06:56:06Z</time>
      </trkpt>
      <trkpt lat="39.4926420" lon="-7.7889520">
        <ele>295.4</ele>
        <time>2019-07-11T06:56:08Z</time>
      </trkpt>
      <trkpt lat="39.4926010" lon="-7.7889780">
        <ele>295.6</ele>
        <time>2019-07-11T06:56:09Z</time>
      </trkpt>
      <trkpt lat="39.4925580" lon="-7.7889940">
        <ele>295.6</ele>
        <time>2019-07-11T06:56:10Z</time>
      </trkpt>
      <trkpt lat="39.4923820" lon="-7.7890570">
        <ele>295.8</ele>
        <time>2019-07-11T06:56:14Z</time>
      </trkpt>
      <trkpt lat="39.4922920" lon="-7.7890780">
        <ele>295.8</ele>
        <time>2019-07-11T06:56:16Z</time>
      </trkpt>
      <trkpt lat="39.4922480" lon="-7.7890880">
        <ele>296.0</ele>
        <time>2019-07-11T06:56:17Z</time>
      </trkpt>
      <trkpt lat="39.4921150" lon="-7.7891200">
        <ele>296.0</ele>
        <time>2019-07-11T06:56:20Z</time>
      </trkpt>
      <trkpt lat="39.4920700" lon="-7.7891310">
        <ele>296.2</ele>
        <time>2019-07-11T06:56:21Z</time>
      </trkpt>
      <trkpt lat="39.4919360" lon="-7.7891370">
        <ele>296.4</ele>
        <time>2019-07-11T06:56:24Z</time>
      </trkpt>
      <trkpt lat="39.4917550" lon="-7.7891430">
        <ele>296.6</ele>
        <time>2019-07-11T06:56:28Z</time>
      </trkpt>
      <trkpt lat="39.4916100" lon="-7.7891470">
        <ele>296.8</ele>
        <time>2019-07-11T06:56:31Z</time>
      </trkpt>
      <trkpt lat="39.4915080" lon="-7.7891580">
        <ele>297.0</ele>
        <time>2019-07-11T06:56:33Z</time>
      </trkpt>
      <trkpt lat="39.4914580" lon="-7.7891700">
        <ele>296.8</ele>
        <time>2019-07-11T06:56:34Z</time>
      </trkpt>
      <trkpt lat="39.4912700" lon="-7.7892270">
        <ele>296.8</ele>
        <time>2019-07-11T06:56:38Z</time>
      </trkpt>
      <trkpt lat="39.4912220" lon="-7.7892380">
        <ele>296.8</ele>
        <time>2019-07-11T06:56:39Z</time>
      </trkpt>
      <trkpt lat="39.4910270" lon="-7.7893080">
        <ele>297.0</ele>
        <time>2019-07-11T06:56:43Z</time>
      </trkpt>
      <trkpt lat="39.4909780" lon="-7.7893290">
        <ele>297.0</ele>
        <time>2019-07-11T06:56:44Z</time>
      </trkpt>
      <trkpt lat="39.4907840" lon="-7.7894160">
        <ele>297.0</ele>
        <time>2019-07-11T06:56:48Z</time>
      </trkpt>
      <trkpt lat="39.4906830" lon="-7.7894490">
        <ele>296.8</ele>
        <time>2019-07-11T06:56:50Z</time>
      </trkpt>
      <trkpt lat="39.4905760" lon="-7.7894790">
        <ele>296.8</ele>
        <time>2019-07-11T06:56:52Z</time>
      </trkpt>
      <trkpt lat="39.4904130" lon="-7.7895380">
        <ele>296.4</ele>
        <time>2019-07-11T06:56:55Z</time>
      </trkpt>
      <trkpt lat="39.4902440" lon="-7.7895980">
        <ele>295.8</ele>
        <time>2019-07-11T06:56:58Z</time>
      </trkpt>
      <trkpt lat="39.4900710" lon="-7.7896570">
        <ele>295.6</ele>
        <time>2019-07-11T06:57:01Z</time>
      </trkpt>
      <trkpt lat="39.4899600" lon="-7.7896960">
        <ele>295.6</ele>
        <time>2019-07-11T06:57:03Z</time>
      </trkpt>
      <trkpt lat="39.4895810" lon="-7.7898140">
        <ele>294.8</ele>
        <time>2019-07-11T06:57:10Z</time>
      </trkpt>
      <trkpt lat="39.4895280" lon="-7.7898250">
        <ele>294.8</ele>
        <time>2019-07-11T06:57:11Z</time>
      </trkpt>
      <trkpt lat="39.4892390" lon="-7.7899190">
        <ele>294.8</ele>
        <time>2019-07-11T06:57:17Z</time>
      </trkpt>
      <trkpt lat="39.4889180" lon="-7.7901010">
        <ele>294.6</ele>
        <time>2019-07-11T06:57:24Z</time>
      </trkpt>
      <trkpt lat="39.4887490" lon="-7.7902260">
        <ele>294.8</ele>
        <time>2019-07-11T06:57:28Z</time>
      </trkpt>
      <trkpt lat="39.4886400" lon="-7.7903460">
        <ele>294.8</ele>
        <time>2019-07-11T06:57:31Z</time>
      </trkpt>
      <trkpt lat="39.4884420" lon="-7.7905570">
        <ele>294.6</ele>
        <time>2019-07-11T06:57:36Z</time>
      </trkpt>
      <trkpt lat="39.4883940" lon="-7.7905930">
        <ele>294.4</ele>
        <time>2019-07-11T06:57:37Z</time>
      </trkpt>
      <trkpt lat="39.4881290" lon="-7.7907460">
        <ele>293.8</ele>
        <time>2019-07-11T06:57:42Z</time>
      </trkpt>
      <trkpt lat="39.4880700" lon="-7.7907650">
        <ele>293.8</ele>
        <time>2019-07-11T06:57:43Z</time>
      </trkpt>
      <trkpt lat="39.4878940" lon="-7.7908360">
        <ele>293.2</ele>
        <time>2019-07-11T06:57:46Z</time>
      </trkpt>
      <trkpt lat="39.4877320" lon="-7.7909210">
        <ele>292.8</ele>
        <time>2019-07-11T06:57:49Z</time>
      </trkpt>
      <trkpt lat="39.4876810" lon="-7.7909490">
        <ele>292.6</ele>
        <time>2019-07-11T06:57:50Z</time>
      </trkpt>
      <trkpt lat="39.4874140" lon="-7.7911150">
        <ele>292.4</ele>
        <time>2019-07-11T06:57:56Z</time>
      </trkpt>
      <trkpt lat="39.4873740" lon="-7.7911500">
        <ele>292.4</ele>
        <time>2019-07-11T06:57:57Z</time>
      </trkpt>
      <trkpt lat="39.4872180" lon="-7.7912730">
        <ele>292.2</ele>
        <time>2019-07-11T06:58:01Z</time>
      </trkpt>
      <trkpt lat="39.4871820" lon="-7.7913060">
        <ele>292.2</ele>
        <time>2019-07-11T06:58:02Z</time>
      </trkpt>
      <trkpt lat="39.4871150" lon="-7.7913690">
        <ele>292.2</ele>
        <time>2019-07-11T06:58:04Z</time>
      </trkpt>
      <trkpt lat="39.4870550" lon="-7.7914450">
        <ele>292.2</ele>
        <time>2019-07-11T06:58:06Z</time>
      </trkpt>
      <trkpt lat="39.4868410" lon="-7.7917230">
        <ele>292.2</ele>
        <time>2019-07-11T06:58:13Z</time>
      </trkpt>
      <trkpt lat="39.4867010" lon="-7.7918590">
        <ele>292.4</ele>
        <time>2019-07-11T06:58:17Z</time>
      </trkpt>
      <trkpt lat="39.4866290" lon="-7.7919300">
        <ele>292.6</ele>
        <time>2019-07-11T06:58:19Z</time>
      </trkpt>
      <trkpt lat="39.4865180" lon="-7.7920350">
        <ele>292.6</ele>
        <time>2019-07-11T06:58:22Z</time>
      </trkpt>
      <trkpt lat="39.4863510" lon="-7.7922000">
        <ele>292.2</ele>
        <time>2019-07-11T06:58:26Z</time>
      </trkpt>
      <trkpt lat="39.4860760" lon="-7.7925130">
        <ele>291.6</ele>
        <time>2019-07-11T06:58:33Z</time>
      </trkpt>
      <trkpt lat="39.4857890" lon="-7.7927110">
        <ele>291.4</ele>
        <time>2019-07-11T06:58:39Z</time>
      </trkpt>
      <trkpt lat="39.4856850" lon="-7.7927650">
        <ele>291.2</ele>
        <time>2019-07-11T06:58:41Z</time>
      </trkpt>
      <trkpt lat="39.4855920" lon="-7.7928340">
        <ele>291.0</ele>
        <time>2019-07-11T06:58:43Z</time>
      </trkpt>
      <trkpt lat="39.4855500" lon="-7.7928780">
        <ele>291.0</ele>
        <time>2019-07-11T06:58:44Z</time>
      </trkpt>
      <trkpt lat="39.4854740" lon="-7.7929760">
        <ele>291.0</ele>
        <time>2019-07-11T06:58:46Z</time>
      </trkpt>
      <trkpt lat="39.4853490" lon="-7.7931830">
        <ele>291.0</ele>
        <time>2019-07-11T06:58:50Z</time>
      </trkpt>
      <trkpt lat="39.4852190" lon="-7.7934060">
        <ele>290.8</ele>
        <time>2019-07-11T06:58:55Z</time>
      </trkpt>
      <trkpt lat="39.4851340" lon="-7.7935200">
        <ele>291.0</ele>
        <time>2019-07-11T06:58:58Z</time>
      </trkpt>
      <trkpt lat="39.4850480" lon="-7.7936350">
        <ele>291.2</ele>
        <time>2019-07-11T06:59:01Z</time>
      </trkpt>
      <trkpt lat="39.4850150" lon="-7.7936750">
        <ele>291.4</ele>
        <time>2019-07-11T06:59:02Z</time>
      </trkpt>
      <trkpt lat="39.4847980" lon="-7.7939920">
        <ele>291.6</ele>
        <time>2019-07-11T06:59:09Z</time>
      </trkpt>
      <trkpt lat="39.4846650" lon="-7.7941580">
        <ele>292.0</ele>
        <time>2019-07-11T06:59:13Z</time>
      </trkpt>
      <trkpt lat="39.4846230" lon="-7.7941920">
        <ele>292.0</ele>
        <time>2019-07-11T06:59:14Z</time>
      </trkpt>
      <trkpt lat="39.4844210" lon="-7.7944120">
        <ele>291.8</ele>
        <time>2019-07-11T06:59:19Z</time>
      </trkpt>
      <trkpt lat="39.4841760" lon="-7.7947910">
        <ele>291.2</ele>
        <time>2019-07-11T06:59:26Z</time>
      </trkpt>
      <trkpt lat="39.4840210" lon="-7.7950600">
        <ele>291.0</ele>
        <time>2019-07-11T06:59:31Z</time>
      </trkpt>
      <trkpt lat="39.4839900" lon="-7.7951060">
        <ele>291.2</ele>
        <time>2019-07-11T06:59:32Z</time>
      </trkpt>
      <trkpt lat="39.4838470" lon="-7.7953280">
        <ele>291.4</ele>
        <time>2019-07-11T06:59:37Z</time>
      </trkpt>
      <trkpt lat="39.4837190" lon="-7.7955190">
        <ele>291.2</ele>
        <time>2019-07-11T06:59:41Z</time>
      </trkpt>
      <trkpt lat="39.4836360" lon="-7.7956060">
        <ele>291.0</ele>
        <time>2019-07-11T06:59:43Z</time>
      </trkpt>
      <trkpt lat="39.4834430" lon="-7.7958300">
        <ele>290.8</ele>
        <time>2019-07-11T06:59:48Z</time>
      </trkpt>
      <trkpt lat="39.4834110" lon="-7.7958800">
        <ele>290.6</ele>
        <time>2019-07-11T06:59:49Z</time>
      </trkpt>
      <trkpt lat="39.4832760" lon="-7.7960770">
        <ele>290.4</ele>
        <time>2019-07-11T06:59:53Z</time>
      </trkpt>
      <trkpt lat="39.4832350" lon="-7.7961190">
        <ele>290.4</ele>
        <time>2019-07-11T06:59:54Z</time>
      </trkpt>
      <trkpt lat="39.4831560" lon="-7.7962030">
        <ele>290.4</ele>
        <time>2019-07-11T06:59:56Z</time>
      </trkpt>
      <trkpt lat="39.4831180" lon="-7.7962460">
        <ele>290.4</ele>
        <time>2019-07-11T06:59:57Z</time>
      </trkpt>
      <trkpt lat="39.4830100" lon="-7.7963890">
        <ele>290.4</ele>
        <time>2019-07-11T07:00:00Z</time>
      </trkpt>
      <trkpt lat="39.4828640" lon="-7.7965670">
        <ele>290.8</ele>
        <time>2019-07-11T07:00:04Z</time>
      </trkpt>
      <trkpt lat="39.4827850" lon="-7.7966570">
        <ele>290.8</ele>
        <time>2019-07-11T07:00:06Z</time>
      </trkpt>
      <trkpt lat="39.4826630" lon="-7.7967880">
        <ele>290.6</ele>
        <time>2019-07-11T07:00:09Z</time>
      </trkpt>
      <trkpt lat="39.4825950" lon="-7.7968900">
        <ele>290.8</ele>
        <time>2019-07-11T07:00:11Z</time>
      </trkpt>
      <trkpt lat="39.4824170" lon="-7.7971410">
        <ele>291.0</ele>
        <time>2019-07-11T07:00:16Z</time>
      </trkpt>
      <trkpt lat="39.4821660" lon="-7.7974280">
        <ele>290.2</ele>
        <time>2019-07-11T07:00:22Z</time>
      </trkpt>
      <trkpt lat="39.4819370" lon="-7.7977010">
        <ele>289.8</ele>
        <time>2019-07-11T07:00:27Z</time>
      </trkpt>
      <trkpt lat="39.4818460" lon="-7.7978080">
        <ele>289.6</ele>
        <time>2019-07-11T07:00:29Z</time>
      </trkpt>
      <trkpt lat="39.4817970" lon="-7.7978570">
        <ele>289.4</ele>
        <time>2019-07-11T07:00:30Z</time>
      </trkpt>
      <trkpt lat="39.4816620" lon="-7.7980220">
        <ele>288.8</ele>
        <time>2019-07-11T07:00:33Z</time>
      </trkpt>
      <trkpt lat="39.4816210" lon="-7.7980790">
        <ele>288.8</ele>
        <time>2019-07-11T07:00:34Z</time>
      </trkpt>
      <trkpt lat="39.4815840" lon="-7.7981340">
        <ele>288.8</ele>
        <time>2019-07-11T07:00:35Z</time>
      </trkpt>
      <trkpt lat="39.4814650" lon="-7.7982780">
        <ele>288.8</ele>
        <time>2019-07-11T07:00:38Z</time>
      </trkpt>
      <trkpt lat="39.4813670" lon="-7.7984050">
        <ele>288.6</ele>
        <time>2019-07-11T07:00:41Z</time>
      </trkpt>
      <trkpt lat="39.4813140" lon="-7.7984970">
        <ele>288.6</ele>
        <time>2019-07-11T07:00:43Z</time>
      </trkpt>
      <trkpt lat="39.4812190" lon="-7.7986870">
        <ele>288.6</ele>
        <time>2019-07-11T07:00:47Z</time>
      </trkpt>
      <trkpt lat="39.4811180" lon="-7.7988690">
        <ele>289.0</ele>
        <time>2019-07-11T07:00:51Z</time>
      </trkpt>
      <trkpt lat="39.4810720" lon="-7.7989570">
        <ele>289.2</ele>
        <time>2019-07-11T07:00:53Z</time>
      </trkpt>
      <trkpt lat="39.4809620" lon="-7.7992020">
        <ele>289.6</ele>
        <time>2019-07-11T07:00:58Z</time>
      </trkpt>
      <trkpt lat="39.4809240" lon="-7.7993140">
        <ele>289.6</ele>
        <time>2019-07-11T07:01:00Z</time>
      </trkpt>
      <trkpt lat="39.4808160" lon="-7.7996670">
        <ele>289.6</ele>
        <time>2019-07-11T07:01:06Z</time>
      </trkpt>
      <trkpt lat="39.4807850" lon="-7.7997890">
        <ele>289.6</ele>
        <time>2019-07-11T07:01:08Z</time>
      </trkpt>
      <trkpt lat="39.4807270" lon="-7.7999640">
        <ele>289.6</ele>
        <time>2019-07-11T07:01:11Z</time>
      </trkpt>
      <trkpt lat="39.4806410" lon="-7.8001340">
        <ele>289.2</ele>
        <time>2019-07-11T07:01:14Z</time>
      </trkpt>
      <trkpt lat="39.4805200" lon="-7.8004410">
        <ele>288.8</ele>
        <time>2019-07-11T07:01:19Z</time>
      </trkpt>
      <trkpt lat="39.4804980" lon="-7.8005000">
        <ele>288.8</ele>
        <time>2019-07-11T07:01:20Z</time>
      </trkpt>
      <trkpt lat="39.4803140" lon="-7.8008680">
        <ele>289.0</ele>
        <time>2019-07-11T07:01:27Z</time>
      </trkpt>
      <trkpt lat="39.4802060" lon="-7.8010600">
        <ele>289.0</ele>
        <time>2019-07-11T07:01:31Z</time>
      </trkpt>
      <trkpt lat="39.4801780" lon="-7.8011740">
        <ele>289.2</ele>
        <time>2019-07-11T07:01:33Z</time>
      </trkpt>
      <trkpt lat="39.4800990" lon="-7.8015910">
        <ele>289.2</ele>
        <time>2019-07-11T07:01:40Z</time>
      </trkpt>
      <trkpt lat="39.4799860" lon="-7.8019750">
        <ele>289.0</ele>
        <time>2019-07-11T07:01:46Z</time>
      </trkpt>
      <trkpt lat="39.4797860" lon="-7.8024260">
        <ele>288.4</ele>
        <time>2019-07-11T07:01:53Z</time>
      </trkpt>
      <trkpt lat="39.4797200" lon="-7.8025390">
        <ele>288.2</ele>
        <time>2019-07-11T07:01:55Z</time>
      </trkpt>
      <trkpt lat="39.4796530" lon="-7.8026470">
        <ele>288.2</ele>
        <time>2019-07-11T07:01:57Z</time>
      </trkpt>
      <trkpt lat="39.4795870" lon="-7.8027570">
        <ele>288.0</ele>
        <time>2019-07-11T07:01:59Z</time>
      </trkpt>
      <trkpt lat="39.4795530" lon="-7.8028120">
        <ele>288.0</ele>
        <time>2019-07-11T07:02:00Z</time>
      </trkpt>
      <trkpt lat="39.4793860" lon="-7.8030120">
        <ele>287.6</ele>
        <time>2019-07-11T07:02:04Z</time>
      </trkpt>
      <trkpt lat="39.4792550" lon="-7.8031360">
        <ele>287.4</ele>
        <time>2019-07-11T07:02:07Z</time>
      </trkpt>
      <trkpt lat="39.4792110" lon="-7.8031800">
        <ele>287.4</ele>
        <time>2019-07-11T07:02:08Z</time>
      </trkpt>
      <trkpt lat="39.4791240" lon="-7.8032730">
        <ele>287.4</ele>
        <time>2019-07-11T07:02:10Z</time>
      </trkpt>
      <trkpt lat="39.4790800" lon="-7.8033100">
        <ele>287.2</ele>
        <time>2019-07-11T07:02:11Z</time>
      </trkpt>
      <trkpt lat="39.4789210" lon="-7.8034610">
        <ele>287.2</ele>
        <time>2019-07-11T07:02:15Z</time>
      </trkpt>
      <trkpt lat="39.4788170" lon="-7.8035780">
        <ele>287.2</ele>
        <time>2019-07-11T07:02:18Z</time>
      </trkpt>
      <trkpt lat="39.4787320" lon="-7.8037320">
        <ele>287.2</ele>
        <time>2019-07-11T07:02:21Z</time>
      </trkpt>
      <trkpt lat="39.4786450" lon="-7.8039070">
        <ele>287.2</ele>
        <time>2019-07-11T07:02:24Z</time>
      </trkpt>
      <trkpt lat="39.4785640" lon="-7.8040930">
        <ele>287.0</ele>
        <time>2019-07-11T07:02:27Z</time>
      </trkpt>
      <trkpt lat="39.4784820" lon="-7.8044140">
        <ele>286.6</ele>
        <time>2019-07-11T07:02:32Z</time>
      </trkpt>
      <trkpt lat="39.4784720" lon="-7.8044790">
        <ele>286.6</ele>
        <time>2019-07-11T07:02:33Z</time>
      </trkpt>
      <trkpt lat="39.4784420" lon="-7.8047360">
        <ele>286.8</ele>
        <time>2019-07-11T07:02:37Z</time>
      </trkpt>
      <trkpt lat="39.4784240" lon="-7.8049270">
        <ele>287.2</ele>
        <time>2019-07-11T07:02:40Z</time>
      </trkpt>
      <trkpt lat="39.4784200" lon="-7.8049900">
        <ele>287.2</ele>
        <time>2019-07-11T07:02:41Z</time>
      </trkpt>
      <trkpt lat="39.4783640" lon="-7.8054810">
        <ele>287.2</ele>
        <time>2019-07-11T07:02:49Z</time>
      </trkpt>
      <trkpt lat="39.4783060" lon="-7.8059180">
        <ele>287.4</ele>
        <time>2019-07-11T07:02:56Z</time>
      </trkpt>
      <trkpt lat="39.4782990" lon="-7.8059840">
        <ele>287.4</ele>
        <time>2019-07-11T07:02:57Z</time>
      </trkpt>
      <trkpt lat="39.4782890" lon="-7.8061160">
        <ele>287.2</ele>
        <time>2019-07-11T07:02:59Z</time>
      </trkpt>
      <trkpt lat="39.4782540" lon="-7.8063890">
        <ele>286.8</ele>
        <time>2019-07-11T07:03:03Z</time>
      </trkpt>
      <trkpt lat="39.4781940" lon="-7.8070380">
        <ele>286.4</ele>
        <time>2019-07-11T07:03:12Z</time>
      </trkpt>
      <trkpt lat="39.4781460" lon="-7.8073940">
        <ele>285.6</ele>
        <time>2019-07-11T07:03:17Z</time>
      </trkpt>
      <trkpt lat="39.4781050" lon="-7.8075170">
        <ele>285.4</ele>
        <time>2019-07-11T07:03:19Z</time>
      </trkpt>
      <trkpt lat="39.4780450" lon="-7.8076230">
        <ele>285.4</ele>
        <time>2019-07-11T07:03:21Z</time>
      </trkpt>
      <trkpt lat="39.4780180" lon="-7.8076750">
        <ele>285.4</ele>
        <time>2019-07-11T07:03:22Z</time>
      </trkpt>
      <trkpt lat="39.4779720" lon="-7.8077870">
        <ele>285.4</ele>
        <time>2019-07-11T07:03:24Z</time>
      </trkpt>
      <trkpt lat="39.4779110" lon="-7.8079780">
        <ele>285.2</ele>
        <time>2019-07-11T07:03:27Z</time>
      </trkpt>
      <trkpt lat="39.4778370" lon="-7.8082580">
        <ele>284.8</ele>
        <time>2019-07-11T07:03:31Z</time>
      </trkpt>
      <trkpt lat="39.4777980" lon="-7.8084080">
        <ele>284.4</ele>
        <time>2019-07-11T07:03:33Z</time>
      </trkpt>
      <trkpt lat="39.4777440" lon="-7.8086310">
        <ele>284.0</ele>
        <time>2019-07-11T07:03:36Z</time>
      </trkpt>
      <trkpt lat="39.4776880" lon="-7.8087680">
        <ele>284.0</ele>
        <time>2019-07-11T07:03:38Z</time>
      </trkpt>
      <trkpt lat="39.4775990" lon="-7.8089700">
        <ele>283.2</ele>
        <time>2019-07-11T07:03:41Z</time>
      </trkpt>
      <trkpt lat="39.4775040" lon="-7.8091570">
        <ele>282.8</ele>
        <time>2019-07-11T07:03:44Z</time>
      </trkpt>
      <trkpt lat="39.4772390" lon="-7.8096230">
        <ele>282.8</ele>
        <time>2019-07-11T07:03:52Z</time>
      </trkpt>
      <trkpt lat="39.4770260" lon="-7.8100090">
        <ele>282.8</ele>
        <time>2019-07-11T07:03:59Z</time>
      </trkpt>
      <trkpt lat="39.4768360" lon="-7.8104140">
        <ele>282.4</ele>
        <time>2019-07-11T07:04:06Z</time>
      </trkpt>
      <trkpt lat="39.4767760" lon="-7.8105230">
        <ele>282.4</ele>
        <time>2019-07-11T07:04:08Z</time>
      </trkpt>
      <trkpt lat="39.4766690" lon="-7.8107550">
        <ele>282.6</ele>
        <time>2019-07-11T07:04:12Z</time>
      </trkpt>
      <trkpt lat="39.4765550" lon="-7.8110010">
        <ele>282.2</ele>
        <time>2019-07-11T07:04:16Z</time>
      </trkpt>
      <trkpt lat="39.4764450" lon="-7.8112590">
        <ele>281.4</ele>
        <time>2019-07-11T07:04:20Z</time>
      </trkpt>
      <trkpt lat="39.4764170" lon="-7.8113230">
        <ele>281.4</ele>
        <time>2019-07-11T07:04:21Z</time>
      </trkpt>
      <trkpt lat="39.4762960" lon="-7.8115670">
        <ele>281.0</ele>
        <time>2019-07-11T07:04:25Z</time>
      </trkpt>
      <trkpt lat="39.4762680" lon="-7.8116270">
        <ele>281.0</ele>
        <time>2019-07-11T07:04:26Z</time>
      </trkpt>
      <trkpt lat="39.4760860" lon="-7.8119290">
        <ele>280.4</ele>
        <time>2019-07-11T07:04:32Z</time>
      </trkpt>
      <trkpt lat="39.4760260" lon="-7.8120280">
        <ele>280.4</ele>
        <time>2019-07-11T07:04:34Z</time>
      </trkpt>
      <trkpt lat="39.4759570" lon="-7.8121960">
        <ele>279.8</ele>
        <time>2019-07-11T07:04:37Z</time>
      </trkpt>
      <trkpt lat="39.4759340" lon="-7.8122520">
        <ele>279.6</ele>
        <time>2019-07-11T07:04:38Z</time>
      </trkpt>
      <trkpt lat="39.4758680" lon="-7.8124330">
        <ele>279.4</ele>
        <time>2019-07-11T07:04:41Z</time>
      </trkpt>
      <trkpt lat="39.4758300" lon="-7.8126330">
        <ele>279.6</ele>
        <time>2019-07-11T07:04:44Z</time>
      </trkpt>
      <trkpt lat="39.4758230" lon="-7.8126980">
        <ele>279.4</ele>
        <time>2019-07-11T07:04:45Z</time>
      </trkpt>
      <trkpt lat="39.4758110" lon="-7.8129060">
        <ele>278.8</ele>
        <time>2019-07-11T07:04:48Z</time>
      </trkpt>
      <trkpt lat="39.4758100" lon="-7.8129760">
        <ele>278.6</ele>
        <time>2019-07-11T07:04:49Z</time>
      </trkpt>
      <trkpt lat="39.4758080" lon="-7.8131770">
        <ele>278.6</ele>
        <time>2019-07-11T07:04:52Z</time>
      </trkpt>
      <trkpt lat="39.4758230" lon="-7.8135080">
        <ele>278.8</ele>
        <time>2019-07-11T07:04:57Z</time>
      </trkpt>
      <trkpt lat="39.4758660" lon="-7.8139260">
        <ele>278.2</ele>
        <time>2019-07-11T07:05:03Z</time>
      </trkpt>
      <trkpt lat="39.4758800" lon="-7.8139920">
        <ele>278.0</ele>
        <time>2019-07-11T07:05:04Z</time>
      </trkpt>
      <trkpt lat="39.4758960" lon="-7.8140580">
        <ele>278.0</ele>
        <time>2019-07-11T07:05:05Z</time>
      </trkpt>
      <trkpt lat="39.4760240" lon="-7.8145400">
        <ele>277.6</ele>
        <time>2019-07-11T07:05:12Z</time>
      </trkpt>
      <trkpt lat="39.4760410" lon="-7.8146140">
        <ele>277.4</ele>
        <time>2019-07-11T07:05:13Z</time>
      </trkpt>
      <trkpt lat="39.4760770" lon="-7.8148420">
        <ele>276.8</ele>
        <time>2019-07-11T07:05:16Z</time>
      </trkpt>
      <trkpt lat="39.4760840" lon="-7.8149170">
        <ele>276.6</ele>
        <time>2019-07-11T07:05:17Z</time>
      </trkpt>
      <trkpt lat="39.4760930" lon="-7.8150650">
        <ele>276.4</ele>
        <time>2019-07-11T07:05:19Z</time>
      </trkpt>
      <trkpt lat="39.4760960" lon="-7.8153530">
        <ele>276.2</ele>
        <time>2019-07-11T07:05:23Z</time>
      </trkpt>
      <trkpt lat="39.4760730" lon="-7.8156060">
        <ele>276.4</ele>
        <time>2019-07-11T07:05:27Z</time>
      </trkpt>
      <trkpt lat="39.4760670" lon="-7.8158650">
        <ele>275.8</ele>
        <time>2019-07-11T07:05:31Z</time>
      </trkpt>
      <trkpt lat="39.4760690" lon="-7.8159360">
        <ele>275.4</ele>
        <time>2019-07-11T07:05:32Z</time>
      </trkpt>
      <trkpt lat="39.4760740" lon="-7.8160080">
        <ele>275.2</ele>
        <time>2019-07-11T07:05:33Z</time>
      </trkpt>
      <trkpt lat="39.4760840" lon="-7.8160840">
        <ele>274.8</ele>
        <time>2019-07-11T07:05:34Z</time>
      </trkpt>
      <trkpt lat="39.4761080" lon="-7.8162340">
        <ele>274.4</ele>
        <time>2019-07-11T07:05:36Z</time>
      </trkpt>
      <trkpt lat="39.4761270" lon="-7.8163890">
        <ele>274.0</ele>
        <time>2019-07-11T07:05:38Z</time>
      </trkpt>
      <trkpt lat="39.4761510" lon="-7.8169340">
        <ele>273.4</ele>
        <time>2019-07-11T07:05:45Z</time>
      </trkpt>
      <trkpt lat="39.4761230" lon="-7.8171450">
        <ele>273.2</ele>
        <time>2019-07-11T07:05:48Z</time>
      </trkpt>
      <trkpt lat="39.4760620" lon="-7.8174120">
        <ele>272.8</ele>
        <time>2019-07-11T07:05:52Z</time>
      </trkpt>
      <trkpt lat="39.4759840" lon="-7.8176360">
        <ele>272.8</ele>
        <time>2019-07-11T07:05:56Z</time>
      </trkpt>
      <trkpt lat="39.4759430" lon="-7.8177370">
        <ele>273.2</ele>
        <time>2019-07-11T07:05:58Z</time>
      </trkpt>
      <trkpt lat="39.4758780" lon="-7.8178810">
        <ele>273.2</ele>
        <time>2019-07-11T07:06:01Z</time>
      </trkpt>
      <trkpt lat="39.4757900" lon="-7.8180720">
        <ele>273.6</ele>
        <time>2019-07-11T07:06:05Z</time>
      </trkpt>
      <trkpt lat="39.4757250" lon="-7.8182140">
        <ele>274.2</ele>
        <time>2019-07-11T07:06:08Z</time>
      </trkpt>
      <trkpt lat="39.4756330" lon="-7.8184360">
        <ele>274.4</ele>
        <time>2019-07-11T07:06:13Z</time>
      </trkpt>
      <trkpt lat="39.4755980" lon="-7.8185260">
        <ele>274.8</ele>
        <time>2019-07-11T07:06:15Z</time>
      </trkpt>
      <trkpt lat="39.4755550" lon="-7.8186610">
        <ele>275.2</ele>
        <time>2019-07-11T07:06:18Z</time>
      </trkpt>
      <trkpt lat="39.4755240" lon="-7.8187500">
        <ele>275.8</ele>
        <time>2019-07-11T07:06:20Z</time>
      </trkpt>
      <trkpt lat="39.4754600" lon="-7.8189350">
        <ele>276.0</ele>
        <time>2019-07-11T07:06:24Z</time>
      </trkpt>
      <trkpt lat="39.4754230" lon="-7.8190310">
        <ele>276.0</ele>
        <time>2019-07-11T07:06:26Z</time>
      </trkpt>
      <trkpt lat="39.4754010" lon="-7.8190820">
        <ele>275.8</ele>
        <time>2019-07-11T07:06:27Z</time>
      </trkpt>
      <trkpt lat="39.4753770" lon="-7.8191370">
        <ele>275.4</ele>
        <time>2019-07-11T07:06:28Z</time>
      </trkpt>
      <trkpt lat="39.4752890" lon="-7.8193170">
        <ele>274.0</ele>
        <time>2019-07-11T07:06:31Z</time>
      </trkpt>
      <trkpt lat="39.4752550" lon="-7.8193750">
        <ele>273.6</ele>
        <time>2019-07-11T07:06:32Z</time>
      </trkpt>
      <trkpt lat="39.4751430" lon="-7.8195300">
        <ele>272.6</ele>
        <time>2019-07-11T07:06:35Z</time>
      </trkpt>
      <trkpt lat="39.4750620" lon="-7.8196180">
        <ele>271.8</ele>
        <time>2019-07-11T07:06:37Z</time>
      </trkpt>
      <trkpt lat="39.4750190" lon="-7.8196560">
        <ele>271.6</ele>
        <time>2019-07-11T07:06:38Z</time>
      </trkpt>
      <trkpt lat="39.4749270" lon="-7.8197170">
        <ele>271.4</ele>
        <time>2019-07-11T07:06:40Z</time>
      </trkpt>
      <trkpt lat="39.4748410" lon="-7.8197590">
        <ele>271.2</ele>
        <time>2019-07-11T07:06:42Z</time>
      </trkpt>
      <trkpt lat="39.4746870" lon="-7.8198190">
        <ele>271.4</ele>
        <time>2019-07-11T07:06:46Z</time>
      </trkpt>
      <trkpt lat="39.4746270" lon="-7.8198450">
        <ele>271.8</ele>
        <time>2019-07-11T07:06:48Z</time>
      </trkpt>
      <trkpt lat="39.4745480" lon="-7.8198800">
        <ele>272.6</ele>
        <time>2019-07-11T07:06:51Z</time>
      </trkpt>
      <trkpt lat="39.4744480" lon="-7.8199210">
        <ele>273.4</ele>
        <time>2019-07-11T07:06:55Z</time>
      </trkpt>
      <trkpt lat="39.4744220" lon="-7.8199280">
        <ele>273.8</ele>
        <time>2019-07-11T07:06:56Z</time>
      </trkpt>
      <trkpt lat="39.4743640" lon="-7.8199400">
        <ele>274.0</ele>
        <time>2019-07-11T07:06:58Z</time>
      </trkpt>
      <trkpt lat="39.4742330" lon="-7.8199560">
        <ele>274.4</ele>
        <time>2019-07-11T07:07:02Z</time>
      </trkpt>
      <trkpt lat="39.4739490" lon="-7.8200180">
        <ele>274.2</ele>
        <time>2019-07-11T07:07:09Z</time>
      </trkpt>
      <trkpt lat="39.4738630" lon="-7.8200590">
        <ele>273.8</ele>
        <time>2019-07-11T07:07:11Z</time>
      </trkpt>
      <trkpt lat="39.4737400" lon="-7.8201470">
        <ele>273.2</ele>
        <time>2019-07-11T07:07:14Z</time>
      </trkpt>
      <trkpt lat="39.4736500" lon="-7.8202440">
        <ele>273.0</ele>
        <time>2019-07-11T07:07:17Z</time>
      </trkpt>
      <trkpt lat="39.4736220" lon="-7.8202780">
        <ele>272.8</ele>
        <time>2019-07-11T07:07:18Z</time>
      </trkpt>
      <trkpt lat="39.4735910" lon="-7.8203140">
        <ele>272.4</ele>
        <time>2019-07-11T07:07:19Z</time>
      </trkpt>
      <trkpt lat="39.4735200" lon="-7.8204110">
        <ele>271.6</ele>
        <time>2019-07-11T07:07:21Z</time>
      </trkpt>
      <trkpt lat="39.4734530" lon="-7.8205550">
        <ele>270.4</ele>
        <time>2019-07-11T07:07:23Z</time>
      </trkpt>
      <trkpt lat="39.4733820" lon="-7.8207250">
        <ele>269.0</ele>
        <time>2019-07-11T07:07:25Z</time>
      </trkpt>
      <trkpt lat="39.4733050" lon="-7.8208910">
        <ele>267.8</ele>
        <time>2019-07-11T07:07:27Z</time>
      </trkpt>
      <trkpt lat="39.4732330" lon="-7.8210500">
        <ele>267.6</ele>
        <time>2019-07-11T07:07:29Z</time>
      </trkpt>
      <trkpt lat="39.4731280" lon="-7.8212610">
        <ele>267.6</ele>
        <time>2019-07-11T07:07:32Z</time>
      </trkpt>
      <trkpt lat="39.4730250" lon="-7.8214500">
        <ele>267.6</ele>
        <time>2019-07-11T07:07:35Z</time>
      </trkpt>
      <trkpt lat="39.4728810" lon="-7.8216830">
        <ele>267.2</ele>
        <time>2019-07-11T07:07:40Z</time>
      </trkpt>
      <trkpt lat="39.4728560" lon="-7.8217180">
        <ele>267.0</ele>
        <time>2019-07-11T07:07:41Z</time>
      </trkpt>
      <trkpt lat="39.4728270" lon="-7.8217460">
        <ele>266.6</ele>
        <time>2019-07-11T07:07:42Z</time>
      </trkpt>
      <trkpt lat="39.4727600" lon="-7.8218020">
        <ele>265.2</ele>
        <time>2019-07-11T07:07:44Z</time>
      </trkpt>
      <trkpt lat="39.4727200" lon="-7.8218230">
        <ele>264.6</ele>
        <time>2019-07-11T07:07:45Z</time>
      </trkpt>
      <trkpt lat="39.4726730" lon="-7.8218370">
        <ele>264.2</ele>
        <time>2019-07-11T07:07:46Z</time>
      </trkpt>
      <trkpt lat="39.4725670" lon="-7.8218620">
        <ele>263.2</ele>
        <time>2019-07-11T07:07:48Z</time>
      </trkpt>
      <trkpt lat="39.4725150" lon="-7.8218770">
        <ele>262.2</ele>
        <time>2019-07-11T07:07:49Z</time>
      </trkpt>
      <trkpt lat="39.4724730" lon="-7.8218970">
        <ele>261.6</ele>
        <time>2019-07-11T07:07:50Z</time>
      </trkpt>
      <trkpt lat="39.4723750" lon="-7.8219640">
        <ele>260.0</ele>
        <time>2019-07-11T07:07:53Z</time>
      </trkpt>
      <trkpt lat="39.4722960" lon="-7.8220390">
        <ele>258.4</ele>
        <time>2019-07-11T07:07:56Z</time>
      </trkpt>
      <trkpt lat="39.4722100" lon="-7.8221370">
        <ele>256.8</ele>
        <time>2019-07-11T07:07:59Z</time>
      </trkpt>
      <trkpt lat="39.4721810" lon="-7.8221750">
        <ele>256.4</ele>
        <time>2019-07-11T07:08:00Z</time>
      </trkpt>
      <trkpt lat="39.4721530" lon="-7.8222190">
        <ele>255.4</ele>
        <time>2019-07-11T07:08:01Z</time>
      </trkpt>
      <trkpt lat="39.4720850" lon="-7.8223490">
        <ele>254.2</ele>
        <time>2019-07-11T07:08:04Z</time>
      </trkpt>
      <trkpt lat="39.4720400" lon="-7.8224960">
        <ele>253.2</ele>
        <time>2019-07-11T07:08:07Z</time>
      </trkpt>
      <trkpt lat="39.4719990" lon="-7.8226360">
        <ele>251.8</ele>
        <time>2019-07-11T07:08:10Z</time>
      </trkpt>
      <trkpt lat="39.4719740" lon="-7.8227770">
        <ele>250.4</ele>
        <time>2019-07-11T07:08:13Z</time>
      </trkpt>
      <trkpt lat="39.4719560" lon="-7.8229030">
        <ele>249.2</ele>
        <time>2019-07-11T07:08:16Z</time>
      </trkpt>
      <trkpt lat="39.4719330" lon="-7.8229800">
        <ele>248.6</ele>
        <time>2019-07-11T07:08:18Z</time>
      </trkpt>
      <trkpt lat="39.4719130" lon="-7.8230030">
        <ele>248.2</ele>
        <time>2019-07-11T07:08:19Z</time>
      </trkpt>
      <trkpt lat="39.4718240" lon="-7.8230350">
        <ele>247.0</ele>
        <time>2019-07-11T07:08:22Z</time>
      </trkpt>
      <trkpt lat="39.4717890" lon="-7.8230310">
        <ele>246.2</ele>
        <time>2019-07-11T07:08:23Z</time>
      </trkpt>
      <trkpt lat="39.4717550" lon="-7.8230250">
        <ele>245.8</ele>
        <time>2019-07-11T07:08:24Z</time>
      </trkpt>
      <trkpt lat="39.4717230" lon="-7.8230240">
        <ele>244.8</ele>
        <time>2019-07-11T07:08:25Z</time>
      </trkpt>
      <trkpt lat="39.4716420" lon="-7.8229970">
        <ele>243.6</ele>
        <time>2019-07-11T07:08:28Z</time>
      </trkpt>
      <trkpt lat="39.4715580" lon="-7.8229370">
        <ele>242.6</ele>
        <time>2019-07-11T07:08:31Z</time>
      </trkpt>
      <trkpt lat="39.4714990" lon="-7.8228980">
        <ele>241.4</ele>
        <time>2019-07-11T07:08:33Z</time>
      </trkpt>
      <trkpt lat="39.4714720" lon="-7.8228790">
        <ele>241.2</ele>
        <time>2019-07-11T07:08:34Z</time>
      </trkpt>
      <trkpt lat="39.4714060" lon="-7.8228630">
        <ele>240.4</ele>
        <time>2019-07-11T07:08:37Z</time>
      </trkpt>
      <trkpt lat="39.4713890" lon="-7.8228740">
        <ele>240.2</ele>
        <time>2019-07-11T07:08:38Z</time>
      </trkpt>
      <trkpt lat="39.4713740" lon="-7.8228940">
        <ele>239.6</ele>
        <time>2019-07-11T07:08:39Z</time>
      </trkpt>
      <trkpt lat="39.4713600" lon="-7.8229210">
        <ele>239.4</ele>
        <time>2019-07-11T07:08:40Z</time>
      </trkpt>
      <trkpt lat="39.4713230" lon="-7.8229790">
        <ele>238.6</ele>
        <time>2019-07-11T07:08:42Z</time>
      </trkpt>
      <trkpt lat="39.4713040" lon="-7.8230120">
        <ele>238.2</ele>
        <time>2019-07-11T07:08:43Z</time>
      </trkpt>
      <trkpt lat="39.4712790" lon="-7.8230860">
        <ele>236.2</ele>
        <time>2019-07-11T07:08:45Z</time>
      </trkpt>
      <trkpt lat="39.4712550" lon="-7.8231560">
        <ele>235.0</ele>
        <time>2019-07-11T07:08:47Z</time>
      </trkpt>
      <trkpt lat="39.4712260" lon="-7.8232660">
        <ele>233.6</ele>
        <time>2019-07-11T07:08:50Z</time>
      </trkpt>
      <trkpt lat="39.4711990" lon="-7.8233700">
        <ele>232.8</ele>
        <time>2019-07-11T07:08:52Z</time>
      </trkpt>
      <trkpt lat="39.4711810" lon="-7.8234290">
        <ele>232.2</ele>
        <time>2019-07-11T07:08:53Z</time>
      </trkpt>
      <trkpt lat="39.4711160" lon="-7.8236050">
        <ele>231.0</ele>
        <time>2019-07-11T07:08:56Z</time>
      </trkpt>
      <trkpt lat="39.4710900" lon="-7.8236580">
        <ele>230.0</ele>
        <time>2019-07-11T07:08:57Z</time>
      </trkpt>
      <trkpt lat="39.4710630" lon="-7.8237070">
        <ele>229.6</ele>
        <time>2019-07-11T07:08:58Z</time>
      </trkpt>
      <trkpt lat="39.4710370" lon="-7.8237500">
        <ele>229.0</ele>
        <time>2019-07-11T07:08:59Z</time>
      </trkpt>
      <trkpt lat="39.4710130" lon="-7.8237970">
        <ele>228.4</ele>
        <time>2019-07-11T07:09:00Z</time>
      </trkpt>
      <trkpt lat="39.4709410" lon="-7.8239330">
        <ele>226.8</ele>
        <time>2019-07-11T07:09:03Z</time>
      </trkpt>
      <trkpt lat="39.4709230" lon="-7.8239670">
        <ele>226.4</ele>
        <time>2019-07-11T07:09:04Z</time>
      </trkpt>
      <trkpt lat="39.4709040" lon="-7.8239980">
        <ele>225.6</ele>
        <time>2019-07-11T07:09:05Z</time>
      </trkpt>
      <trkpt lat="39.4708610" lon="-7.8240520">
        <ele>224.4</ele>
        <time>2019-07-11T07:09:07Z</time>
      </trkpt>
      <trkpt lat="39.4708030" lon="-7.8241010">
        <ele>223.2</ele>
        <time>2019-07-11T07:09:09Z</time>
      </trkpt>
      <trkpt lat="39.4707660" lon="-7.8241190">
        <ele>222.6</ele>
        <time>2019-07-11T07:09:10Z</time>
      </trkpt>
      <trkpt lat="39.4707230" lon="-7.8241340">
        <ele>221.6</ele>
        <time>2019-07-11T07:09:11Z</time>
      </trkpt>
      <trkpt lat="39.4706760" lon="-7.8241560">
        <ele>221.2</ele>
        <time>2019-07-11T07:09:12Z</time>
      </trkpt>
      <trkpt lat="39.4706300" lon="-7.8241880">
        <ele>220.2</ele>
        <time>2019-07-11T07:09:13Z</time>
      </trkpt>
      <trkpt lat="39.4705830" lon="-7.8242250">
        <ele>219.8</ele>
        <time>2019-07-11T07:09:14Z</time>
      </trkpt>
      <trkpt lat="39.4705380" lon="-7.8242690">
        <ele>219.6</ele>
        <time>2019-07-11T07:09:15Z</time>
      </trkpt>
      <trkpt lat="39.4704950" lon="-7.8243140">
        <ele>219.2</ele>
        <time>2019-07-11T07:09:16Z</time>
      </trkpt>
      <trkpt lat="39.4703890" lon="-7.8244180">
        <ele>218.0</ele>
        <time>2019-07-11T07:09:19Z</time>
      </trkpt>
      <trkpt lat="39.4703090" lon="-7.8244810">
        <ele>217.0</ele>
        <time>2019-07-11T07:09:22Z</time>
      </trkpt>
      <trkpt lat="39.4702790" lon="-7.8245370">
        <ele>216.0</ele>
        <time>2019-07-11T07:09:24Z</time>
      </trkpt>
      <trkpt lat="39.4702710" lon="-7.8245710">
        <ele>215.4</ele>
        <time>2019-07-11T07:09:25Z</time>
      </trkpt>
      <trkpt lat="39.4702730" lon="-7.8246390">
        <ele>214.0</ele>
        <time>2019-07-11T07:09:27Z</time>
      </trkpt>
      <trkpt lat="39.4702920" lon="-7.8246980">
        <ele>213.2</ele>
        <time>2019-07-11T07:09:29Z</time>
      </trkpt>
      <trkpt lat="39.4703010" lon="-7.8247330">
        <ele>212.8</ele>
        <time>2019-07-11T07:09:30Z</time>
      </trkpt>
      <trkpt lat="39.4703350" lon="-7.8248180">
        <ele>211.6</ele>
        <time>2019-07-11T07:09:32Z</time>
      </trkpt>
      <trkpt lat="39.4703620" lon="-7.8248660">
        <ele>211.0</ele>
        <time>2019-07-11T07:09:33Z</time>
      </trkpt>
      <trkpt lat="39.4703910" lon="-7.8249080">
        <ele>210.2</ele>
        <time>2019-07-11T07:09:34Z</time>
      </trkpt>
      <trkpt lat="39.4704570" lon="-7.8249960">
        <ele>209.0</ele>
        <time>2019-07-11T07:09:36Z</time>
      </trkpt>
      <trkpt lat="39.4705360" lon="-7.8250880">
        <ele>208.0</ele>
        <time>2019-07-11T07:09:38Z</time>
      </trkpt>
      <trkpt lat="39.4705770" lon="-7.8251310">
        <ele>207.6</ele>
        <time>2019-07-11T07:09:39Z</time>
      </trkpt>
      <trkpt lat="39.4706880" lon="-7.8252490">
        <ele>206.4</ele>
        <time>2019-07-11T07:09:42Z</time>
      </trkpt>
      <trkpt lat="39.4707240" lon="-7.8252890">
        <ele>206.2</ele>
        <time>2019-07-11T07:09:43Z</time>
      </trkpt>
      <trkpt lat="39.4707600" lon="-7.8253350">
        <ele>205.8</ele>
        <time>2019-07-11T07:09:44Z</time>
      </trkpt>
      <trkpt lat="39.4707960" lon="-7.8253870">
        <ele>204.8</ele>
        <time>2019-07-11T07:09:45Z</time>
      </trkpt>
      <trkpt lat="39.4708560" lon="-7.8254980">
        <ele>203.8</ele>
        <time>2019-07-11T07:09:47Z</time>
      </trkpt>
      <trkpt lat="39.4708960" lon="-7.8256330">
        <ele>202.2</ele>
        <time>2019-07-11T07:09:49Z</time>
      </trkpt>
      <trkpt lat="39.4709190" lon="-7.8257790">
        <ele>201.4</ele>
        <time>2019-07-11T07:09:51Z</time>
      </trkpt>
      <trkpt lat="39.4709290" lon="-7.8258470">
        <ele>201.0</ele>
        <time>2019-07-11T07:09:52Z</time>
      </trkpt>
      <trkpt lat="39.4709460" lon="-7.8259680">
        <ele>200.0</ele>
        <time>2019-07-11T07:09:54Z</time>
      </trkpt>
      <trkpt lat="39.4709580" lon="-7.8260960">
        <ele>199.2</ele>
        <time>2019-07-11T07:09:56Z</time>
      </trkpt>
      <trkpt lat="39.4709590" lon="-7.8261510">
        <ele>198.8</ele>
        <time>2019-07-11T07:09:57Z</time>
      </trkpt>
      <trkpt lat="39.4709550" lon="-7.8262350">
        <ele>197.8</ele>
        <time>2019-07-11T07:09:59Z</time>
      </trkpt>
      <trkpt lat="39.4709530" lon="-7.8262760">
        <ele>197.4</ele>
        <time>2019-07-11T07:10:00Z</time>
      </trkpt>
      <trkpt lat="39.4709550" lon="-7.8263600">
        <ele>195.8</ele>
        <time>2019-07-11T07:10:02Z</time>
      </trkpt>
      <trkpt lat="39.4709660" lon="-7.8264540">
        <ele>194.6</ele>
        <time>2019-07-11T07:10:04Z</time>
      </trkpt>
      <trkpt lat="39.4709740" lon="-7.8265040">
        <ele>193.6</ele>
        <time>2019-07-11T07:10:05Z</time>
      </trkpt>
      <trkpt lat="39.4709780" lon="-7.8265520">
        <ele>192.6</ele>
        <time>2019-07-11T07:10:06Z</time>
      </trkpt>
      <trkpt lat="39.4709900" lon="-7.8266360">
        <ele>191.4</ele>
        <time>2019-07-11T07:10:08Z</time>
      </trkpt>
      <trkpt lat="39.4709990" lon="-7.8266790">
        <ele>190.2</ele>
        <time>2019-07-11T07:10:09Z</time>
      </trkpt>
      <trkpt lat="39.4710050" lon="-7.8267320">
        <ele>189.6</ele>
        <time>2019-07-11T07:10:10Z</time>
      </trkpt>
      <trkpt lat="39.4710060" lon="-7.8267890">
        <ele>188.8</ele>
        <time>2019-07-11T07:10:11Z</time>
      </trkpt>
      <trkpt lat="39.4709620" lon="-7.8269260">
        <ele>187.2</ele>
        <time>2019-07-11T07:10:14Z</time>
      </trkpt>
      <trkpt lat="39.4709330" lon="-7.8269510">
        <ele>186.2</ele>
        <time>2019-07-11T07:10:15Z</time>
      </trkpt>
      <trkpt lat="39.4708520" lon="-7.8269820">
        <ele>185.0</ele>
        <time>2019-07-11T07:10:17Z</time>
      </trkpt>
      <trkpt lat="39.4707960" lon="-7.8269880">
        <ele>184.4</ele>
        <time>2019-07-11T07:10:18Z</time>
      </trkpt>
      <trkpt lat="39.4707310" lon="-7.8269960">
        <ele>183.8</ele>
        <time>2019-07-11T07:10:19Z</time>
      </trkpt>
      <trkpt lat="39.4706050" lon="-7.8270440">
        <ele>182.6</ele>
        <time>2019-07-11T07:10:21Z</time>
      </trkpt>
      <trkpt lat="39.4705430" lon="-7.8270800">
        <ele>182.0</ele>
        <time>2019-07-11T07:10:22Z</time>
      </trkpt>
      <trkpt lat="39.4704830" lon="-7.8271220">
        <ele>181.4</ele>
        <time>2019-07-11T07:10:23Z</time>
      </trkpt>
      <trkpt lat="39.4702370" lon="-7.8273050">
        <ele>180.2</ele>
        <time>2019-07-11T07:10:27Z</time>
      </trkpt>
      <trkpt lat="39.4701770" lon="-7.8273540">
        <ele>180.0</ele>
        <time>2019-07-11T07:10:28Z</time>
      </trkpt>
      <trkpt lat="39.4698680" lon="-7.8276550">
        <ele>179.6</ele>
        <time>2019-07-11T07:10:34Z</time>
      </trkpt>
      <trkpt lat="39.4696930" lon="-7.8278260">
        <ele>179.0</ele>
        <time>2019-07-11T07:10:38Z</time>
      </trkpt>
      <trkpt lat="39.4696440" lon="-7.8278840">
        <ele>178.4</ele>
        <time>2019-07-11T07:10:39Z</time>
      </trkpt>
      <trkpt lat="39.4695910" lon="-7.8279490">
        <ele>177.2</ele>
        <time>2019-07-11T07:10:40Z</time>
      </trkpt>
      <trkpt lat="39.4695390" lon="-7.8280160">
        <ele>175.6</ele>
        <time>2019-07-11T07:10:41Z</time>
      </trkpt>
      <trkpt lat="39.4694280" lon="-7.8281360">
        <ele>174.2</ele>
        <time>2019-07-11T07:10:43Z</time>
      </trkpt>
      <trkpt lat="39.4693690" lon="-7.8281860">
        <ele>173.4</ele>
        <time>2019-07-11T07:10:44Z</time>
      </trkpt>
      <trkpt lat="39.4693100" lon="-7.8282280">
        <ele>172.6</ele>
        <time>2019-07-11T07:10:45Z</time>
      </trkpt>
      <trkpt lat="39.4692030" lon="-7.8283090">
        <ele>171.8</ele>
        <time>2019-07-11T07:10:47Z</time>
      </trkpt>
      <trkpt lat="39.4691130" lon="-7.8283920">
        <ele>170.8</ele>
        <time>2019-07-11T07:10:49Z</time>
      </trkpt>
      <trkpt lat="39.4689400" lon="-7.8285690">
        <ele>169.6</ele>
        <time>2019-07-11T07:10:53Z</time>
      </trkpt>
      <trkpt lat="39.4688400" lon="-7.8286580">
        <ele>169.2</ele>
        <time>2019-07-11T07:10:55Z</time>
      </trkpt>
      <trkpt lat="39.4687310" lon="-7.8287310">
        <ele>168.4</ele>
        <time>2019-07-11T07:10:57Z</time>
      </trkpt>
      <trkpt lat="39.4685820" lon="-7.8288240">
        <ele>167.2</ele>
        <time>2019-07-11T07:11:00Z</time>
      </trkpt>
      <trkpt lat="39.4685390" lon="-7.8288580">
        <ele>166.4</ele>
        <time>2019-07-11T07:11:01Z</time>
      </trkpt>
      <trkpt lat="39.4684960" lon="-7.8288940">
        <ele>166.0</ele>
        <time>2019-07-11T07:11:02Z</time>
      </trkpt>
      <trkpt lat="39.4683970" lon="-7.8290120">
        <ele>164.8</ele>
        <time>2019-07-11T07:11:06Z</time>
      </trkpt>
      <trkpt lat="39.4683650" lon="-7.8290560">
        <ele>163.6</ele>
        <time>2019-07-11T07:11:09Z</time>
      </trkpt>
      <trkpt lat="39.4683260" lon="-7.8290880">
        <ele>162.6</ele>
        <time>2019-07-11T07:11:13Z</time>
      </trkpt>
      <trkpt lat="39.4683220" lon="-7.8290920">
        <ele>162.4</ele>
        <time>2019-07-11T07:11:14Z</time>
      </trkpt>
      <trkpt lat="39.4683240" lon="-7.8290960">
        <ele>162.2</ele>
        <time>2019-07-11T07:11:16Z</time>
      </trkpt>
      <trkpt lat="39.4680050" lon="-7.8291940">
        <ele>165.0</ele>
        <time>2019-07-11T07:13:29Z</time>
      </trkpt>
      <trkpt lat="39.4679930" lon="-7.8292050">
        <ele>165.2</ele>
        <time>2019-07-11T07:13:30Z</time>
      </trkpt>
      <trkpt lat="39.4679810" lon="-7.8292160">
        <ele>165.4</ele>
        <time>2019-07-11T07:13:31Z</time>
      </trkpt>
      <trkpt lat="39.4679550" lon="-7.8292340">
        <ele>165.6</ele>
        <time>2019-07-11T07:13:33Z</time>
      </trkpt>
      <trkpt lat="39.4679150" lon="-7.8292660">
        <ele>166.0</ele>
        <time>2019-07-11T07:13:36Z</time>
      </trkpt>
      <trkpt lat="39.4678850" lon="-7.8292880">
        <ele>166.4</ele>
        <time>2019-07-11T07:13:38Z</time>
      </trkpt>
      <trkpt lat="39.4677960" lon="-7.8293450">
        <ele>167.2</ele>
        <time>2019-07-11T07:13:43Z</time>
      </trkpt>
      <trkpt lat="39.4677750" lon="-7.8293510">
        <ele>167.4</ele>
        <time>2019-07-11T07:13:44Z</time>
      </trkpt>
      <trkpt lat="39.4676600" lon="-7.8294140">
        <ele>168.2</ele>
        <time>2019-07-11T07:13:50Z</time>
      </trkpt>
      <trkpt lat="39.4676400" lon="-7.8294250">
        <ele>168.2</ele>
        <time>2019-07-11T07:13:51Z</time>
      </trkpt>
      <trkpt lat="39.4675630" lon="-7.8294750">
        <ele>169.0</ele>
        <time>2019-07-11T07:13:55Z</time>
      </trkpt>
      <trkpt lat="39.4675440" lon="-7.8294890">
        <ele>169.2</ele>
        <time>2019-07-11T07:13:56Z</time>
      </trkpt>
      <trkpt lat="39.4675040" lon="-7.8295190">
        <ele>169.6</ele>
        <time>2019-07-11T07:13:58Z</time>
      </trkpt>
      <trkpt lat="39.4674870" lon="-7.8295380">
        <ele>169.8</ele>
        <time>2019-07-11T07:13:59Z</time>
      </trkpt>
      <trkpt lat="39.4674290" lon="-7.8296040">
        <ele>170.4</ele>
        <time>2019-07-11T07:14:02Z</time>
      </trkpt>
      <trkpt lat="39.4673730" lon="-7.8296650">
        <ele>170.6</ele>
        <time>2019-07-11T07:14:05Z</time>
      </trkpt>
      <trkpt lat="39.4673400" lon="-7.8297050">
        <ele>171.0</ele>
        <time>2019-07-11T07:14:07Z</time>
      </trkpt>
      <trkpt lat="39.4673070" lon="-7.8297420">
        <ele>171.4</ele>
        <time>2019-07-11T07:14:09Z</time>
      </trkpt>
      <trkpt lat="39.4672260" lon="-7.8298480">
        <ele>172.4</ele>
        <time>2019-07-11T07:14:15Z</time>
      </trkpt>
      <trkpt lat="39.4672120" lon="-7.8298650">
        <ele>172.6</ele>
        <time>2019-07-11T07:14:16Z</time>
      </trkpt>
      <trkpt lat="39.4671670" lon="-7.8299090">
        <ele>173.4</ele>
        <time>2019-07-11T07:14:19Z</time>
      </trkpt>
      <trkpt lat="39.4671060" lon="-7.8299620">
        <ele>174.0</ele>
        <time>2019-07-11T07:14:23Z</time>
      </trkpt>
      <trkpt lat="39.4670830" lon="-7.8299920">
        <ele>174.4</ele>
        <time>2019-07-11T07:14:25Z</time>
      </trkpt>
      <trkpt lat="39.4670060" lon="-7.8300720">
        <ele>175.6</ele>
        <time>2019-07-11T07:14:31Z</time>
      </trkpt>
      <trkpt lat="39.4669670" lon="-7.8301110">
        <ele>176.6</ele>
        <time>2019-07-11T07:14:34Z</time>
      </trkpt>
      <trkpt lat="39.4668940" lon="-7.8302030">
        <ele>177.6</ele>
        <time>2019-07-11T07:14:40Z</time>
      </trkpt>
      <trkpt lat="39.4668790" lon="-7.8302150">
        <ele>177.8</ele>
        <time>2019-07-11T07:14:41Z</time>
      </trkpt>
      <trkpt lat="39.4668250" lon="-7.8302620">
        <ele>179.0</ele>
        <time>2019-07-11T07:14:45Z</time>
      </trkpt>
      <trkpt lat="39.4667740" lon="-7.8303270">
        <ele>179.6</ele>
        <time>2019-07-11T07:14:49Z</time>
      </trkpt>
      <trkpt lat="39.4667540" lon="-7.8303640">
        <ele>180.0</ele>
        <time>2019-07-11T07:14:51Z</time>
      </trkpt>
      <trkpt lat="39.4667180" lon="-7.8304410">
        <ele>181.0</ele>
        <time>2019-07-11T07:14:55Z</time>
      </trkpt>
      <trkpt lat="39.4667090" lon="-7.8304570">
        <ele>181.2</ele>
        <time>2019-07-11T07:14:56Z</time>
      </trkpt>
      <trkpt lat="39.4666530" lon="-7.8305270">
        <ele>182.2</ele>
        <time>2019-07-11T07:15:01Z</time>
      </trkpt>
      <trkpt lat="39.4666300" lon="-7.8305530">
        <ele>182.8</ele>
        <time>2019-07-11T07:15:03Z</time>
      </trkpt>
      <trkpt lat="39.4666070" lon="-7.8305750">
        <ele>183.4</ele>
        <time>2019-07-11T07:15:05Z</time>
      </trkpt>
      <trkpt lat="39.4665460" lon="-7.8306130">
        <ele>184.4</ele>
        <time>2019-07-11T07:15:09Z</time>
      </trkpt>
      <trkpt lat="39.4665120" lon="-7.8306290">
        <ele>184.6</ele>
        <time>2019-07-11T07:15:11Z</time>
      </trkpt>
      <trkpt lat="39.4664690" lon="-7.8306700">
        <ele>185.6</ele>
        <time>2019-07-11T07:15:14Z</time>
      </trkpt>
      <trkpt lat="39.4664140" lon="-7.8307250">
        <ele>186.4</ele>
        <time>2019-07-11T07:15:18Z</time>
      </trkpt>
      <trkpt lat="39.4664000" lon="-7.8307380">
        <ele>186.8</ele>
        <time>2019-07-11T07:15:19Z</time>
      </trkpt>
      <trkpt lat="39.4663410" lon="-7.8308180">
        <ele>187.8</ele>
        <time>2019-07-11T07:15:24Z</time>
      </trkpt>
      <trkpt lat="39.4663280" lon="-7.8308350">
        <ele>188.2</ele>
        <time>2019-07-11T07:15:25Z</time>
      </trkpt>
      <trkpt lat="39.4662830" lon="-7.8308940">
        <ele>189.0</ele>
        <time>2019-07-11T07:15:29Z</time>
      </trkpt>
      <trkpt lat="39.4662240" lon="-7.8309740">
        <ele>190.2</ele>
        <time>2019-07-11T07:15:34Z</time>
      </trkpt>
      <trkpt lat="39.4662120" lon="-7.8309900">
        <ele>190.4</ele>
        <time>2019-07-11T07:15:35Z</time>
      </trkpt>
      <trkpt lat="39.4661890" lon="-7.8310190">
        <ele>191.2</ele>
        <time>2019-07-11T07:15:37Z</time>
      </trkpt>
      <trkpt lat="39.4661340" lon="-7.8310920">
        <ele>192.4</ele>
        <time>2019-07-11T07:15:42Z</time>
      </trkpt>
      <trkpt lat="39.4661230" lon="-7.8311060">
        <ele>192.8</ele>
        <time>2019-07-11T07:15:43Z</time>
      </trkpt>
      <trkpt lat="39.4660820" lon="-7.8311600">
        <ele>193.4</ele>
        <time>2019-07-11T07:15:47Z</time>
      </trkpt>
      <trkpt lat="39.4660480" lon="-7.8312220">
        <ele>194.6</ele>
        <time>2019-07-11T07:15:51Z</time>
      </trkpt>
      <trkpt lat="39.4660320" lon="-7.8312520">
        <ele>195.0</ele>
        <time>2019-07-11T07:15:53Z</time>
      </trkpt>
      <trkpt lat="39.4660170" lon="-7.8312830">
        <ele>195.8</ele>
        <time>2019-07-11T07:15:55Z</time>
      </trkpt>
      <trkpt lat="39.4659810" lon="-7.8313700">
        <ele>196.8</ele>
        <time>2019-07-11T07:16:00Z</time>
      </trkpt>
      <trkpt lat="39.4659450" lon="-7.8314500">
        <ele>198.2</ele>
        <time>2019-07-11T07:16:05Z</time>
      </trkpt>
      <trkpt lat="39.4659360" lon="-7.8314900">
        <ele>198.8</ele>
        <time>2019-07-11T07:16:07Z</time>
      </trkpt>
      <trkpt lat="39.4659160" lon="-7.8315280">
        <ele>199.4</ele>
        <time>2019-07-11T07:16:09Z</time>
      </trkpt>
      <trkpt lat="39.4658620" lon="-7.8315870">
        <ele>200.4</ele>
        <time>2019-07-11T07:16:13Z</time>
      </trkpt>
      <trkpt lat="39.4658500" lon="-7.8316000">
        <ele>200.4</ele>
        <time>2019-07-11T07:16:14Z</time>
      </trkpt>
      <trkpt lat="39.4657790" lon="-7.8316720">
        <ele>201.8</ele>
        <time>2019-07-11T07:16:19Z</time>
      </trkpt>
      <trkpt lat="39.4656860" lon="-7.8317540">
        <ele>202.6</ele>
        <time>2019-07-11T07:16:25Z</time>
      </trkpt>
      <trkpt lat="39.4656500" lon="-7.8317750">
        <ele>202.8</ele>
        <time>2019-07-11T07:16:27Z</time>
      </trkpt>
      <trkpt lat="39.4655260" lon="-7.8318080">
        <ele>203.4</ele>
        <time>2019-07-11T07:16:33Z</time>
      </trkpt>
      <trkpt lat="39.4655050" lon="-7.8318080">
        <ele>203.6</ele>
        <time>2019-07-11T07:16:34Z</time>
      </trkpt>
      <trkpt lat="39.4654630" lon="-7.8318070">
        <ele>203.8</ele>
        <time>2019-07-11T07:16:36Z</time>
      </trkpt>
      <trkpt lat="39.4653650" lon="-7.8317960">
        <ele>205.0</ele>
        <time>2019-07-11T07:16:41Z</time>
      </trkpt>
      <trkpt lat="39.4653460" lon="-7.8317920">
        <ele>205.0</ele>
        <time>2019-07-11T07:16:42Z</time>
      </trkpt>
      <trkpt lat="39.4652400" lon="-7.8317850">
        <ele>206.2</ele>
        <time>2019-07-11T07:16:48Z</time>
      </trkpt>
      <trkpt lat="39.4652210" lon="-7.8317830">
        <ele>206.6</ele>
        <time>2019-07-11T07:16:49Z</time>
      </trkpt>
      <trkpt lat="39.4651770" lon="-7.8317800">
        <ele>207.4</ele>
        <time>2019-07-11T07:16:52Z</time>
      </trkpt>
      <trkpt lat="39.4651170" lon="-7.8317740">
        <ele>208.4</ele>
        <time>2019-07-11T07:16:56Z</time>
      </trkpt>
      <trkpt lat="39.4650850" lon="-7.8317670">
        <ele>209.0</ele>
        <time>2019-07-11T07:16:58Z</time>
      </trkpt>
      <trkpt lat="39.4650420" lon="-7.8317650">
        <ele>209.6</ele>
        <time>2019-07-11T07:17:01Z</time>
      </trkpt>
      <trkpt lat="39.4649770" lon="-7.8317630">
        <ele>210.8</ele>
        <time>2019-07-11T07:17:05Z</time>
      </trkpt>
      <trkpt lat="39.4648980" lon="-7.8317950">
        <ele>211.8</ele>
        <time>2019-07-11T07:17:10Z</time>
      </trkpt>
      <trkpt lat="39.4648830" lon="-7.8318030">
        <ele>211.8</ele>
        <time>2019-07-11T07:17:11Z</time>
      </trkpt>
      <trkpt lat="39.4648660" lon="-7.8318100">
        <ele>212.2</ele>
        <time>2019-07-11T07:17:12Z</time>
      </trkpt>
      <trkpt lat="39.4648280" lon="-7.8318350">
        <ele>213.0</ele>
        <time>2019-07-11T07:17:15Z</time>
      </trkpt>
      <trkpt lat="39.4647820" lon="-7.8319010">
        <ele>213.6</ele>
        <time>2019-07-11T07:17:19Z</time>
      </trkpt>
      <trkpt lat="39.4647710" lon="-7.8319200">
        <ele>214.2</ele>
        <time>2019-07-11T07:17:20Z</time>
      </trkpt>
      <trkpt lat="39.4647480" lon="-7.8319960">
        <ele>215.2</ele>
        <time>2019-07-11T07:17:24Z</time>
      </trkpt>
      <trkpt lat="39.4647550" lon="-7.8320420">
        <ele>215.8</ele>
        <time>2019-07-11T07:17:26Z</time>
      </trkpt>
      <trkpt lat="39.4647530" lon="-7.8321080">
        <ele>216.4</ele>
        <time>2019-07-11T07:17:29Z</time>
      </trkpt>
      <trkpt lat="39.4647500" lon="-7.8321700">
        <ele>217.2</ele>
        <time>2019-07-11T07:17:32Z</time>
      </trkpt>
      <trkpt lat="39.4647470" lon="-7.8321910">
        <ele>217.4</ele>
        <time>2019-07-11T07:17:33Z</time>
      </trkpt>
      <trkpt lat="39.4647270" lon="-7.8322900">
        <ele>218.8</ele>
        <time>2019-07-11T07:17:38Z</time>
      </trkpt>
      <trkpt lat="39.4647110" lon="-7.8323300">
        <ele>219.2</ele>
        <time>2019-07-11T07:17:40Z</time>
      </trkpt>
      <trkpt lat="39.4646830" lon="-7.8323650">
        <ele>220.0</ele>
        <time>2019-07-11T07:17:42Z</time>
      </trkpt>
      <trkpt lat="39.4646210" lon="-7.8324250">
        <ele>220.6</ele>
        <time>2019-07-11T07:17:46Z</time>
      </trkpt>
      <trkpt lat="39.4645880" lon="-7.8324530">
        <ele>221.0</ele>
        <time>2019-07-11T07:17:48Z</time>
      </trkpt>
      <trkpt lat="39.4645190" lon="-7.8324920">
        <ele>221.8</ele>
        <time>2019-07-11T07:17:52Z</time>
      </trkpt>
      <trkpt lat="39.4645020" lon="-7.8324980">
        <ele>222.0</ele>
        <time>2019-07-11T07:17:53Z</time>
      </trkpt>
      <trkpt lat="39.4644210" lon="-7.8325300">
        <ele>223.2</ele>
        <time>2019-07-11T07:17:58Z</time>
      </trkpt>
      <trkpt lat="39.4643900" lon="-7.8325340">
        <ele>223.8</ele>
        <time>2019-07-11T07:18:00Z</time>
      </trkpt>
      <trkpt lat="39.4643550" lon="-7.8325300">
        <ele>224.2</ele>
        <time>2019-07-11T07:18:02Z</time>
      </trkpt>
      <trkpt lat="39.4642910" lon="-7.8325310">
        <ele>225.4</ele>
        <time>2019-07-11T07:18:06Z</time>
      </trkpt>
      <trkpt lat="39.4642750" lon="-7.8325280">
        <ele>225.8</ele>
        <time>2019-07-11T07:18:07Z</time>
      </trkpt>
      <trkpt lat="39.4642430" lon="-7.8325190">
        <ele>226.6</ele>
        <time>2019-07-11T07:18:09Z</time>
      </trkpt>
      <trkpt lat="39.4641720" lon="-7.8324800">
        <ele>227.8</ele>
        <time>2019-07-11T07:18:13Z</time>
      </trkpt>
      <trkpt lat="39.4640170" lon="-7.8323640">
        <ele>228.6</ele>
        <time>2019-07-11T07:18:21Z</time>
      </trkpt>
      <trkpt lat="39.4639650" lon="-7.8323380">
        <ele>229.0</ele>
        <time>2019-07-11T07:18:23Z</time>
      </trkpt>
      <trkpt lat="39.4637890" lon="-7.8322800">
        <ele>229.0</ele>
        <time>2019-07-11T07:18:29Z</time>
      </trkpt>
      <trkpt lat="39.4637110" lon="-7.8322580">
        <ele>228.8</ele>
        <time>2019-07-11T07:18:31Z</time>
      </trkpt>
      <trkpt lat="39.4636440" lon="-7.8322320">
        <ele>228.4</ele>
        <time>2019-07-11T07:18:33Z</time>
      </trkpt>
      <trkpt lat="39.4635940" lon="-7.8321990">
        <ele>228.2</ele>
        <time>2019-07-11T07:18:35Z</time>
      </trkpt>
      <trkpt lat="39.4634580" lon="-7.8321060">
        <ele>229.8</ele>
        <time>2019-07-11T07:18:42Z</time>
      </trkpt>
      <trkpt lat="39.4633850" lon="-7.8320660">
        <ele>231.0</ele>
        <time>2019-07-11T07:18:46Z</time>
      </trkpt>
      <trkpt lat="39.4633110" lon="-7.8320370">
        <ele>232.2</ele>
        <time>2019-07-11T07:18:50Z</time>
      </trkpt>
      <trkpt lat="39.4632330" lon="-7.8320180">
        <ele>233.4</ele>
        <time>2019-07-11T07:18:54Z</time>
      </trkpt>
      <trkpt lat="39.4631790" lon="-7.8319880">
        <ele>234.6</ele>
        <time>2019-07-11T07:18:57Z</time>
      </trkpt>
      <trkpt lat="39.4631600" lon="-7.8319790">
        <ele>235.0</ele>
        <time>2019-07-11T07:18:58Z</time>
      </trkpt>
      <trkpt lat="39.4631210" lon="-7.8319740">
        <ele>235.6</ele>
        <time>2019-07-11T07:19:00Z</time>
      </trkpt>
      <trkpt lat="39.4630450" lon="-7.8319600">
        <ele>236.8</ele>
        <time>2019-07-11T07:19:04Z</time>
      </trkpt>
      <trkpt lat="39.4630060" lon="-7.8319580">
        <ele>237.2</ele>
        <time>2019-07-11T07:19:06Z</time>
      </trkpt>
      <trkpt lat="39.4628930" lon="-7.8319510">
        <ele>237.8</ele>
        <time>2019-07-11T07:19:11Z</time>
      </trkpt>
      <trkpt lat="39.4628720" lon="-7.8319480">
        <ele>238.0</ele>
        <time>2019-07-11T07:19:12Z</time>
      </trkpt>
      <trkpt lat="39.4627560" lon="-7.8319020">
        <ele>238.8</ele>
        <time>2019-07-11T07:19:18Z</time>
      </trkpt>
      <trkpt lat="39.4627360" lon="-7.8318970">
        <ele>239.2</ele>
        <time>2019-07-11T07:19:19Z</time>
      </trkpt>
      <trkpt lat="39.4626750" lon="-7.8318730">
        <ele>240.0</ele>
        <time>2019-07-11T07:19:22Z</time>
      </trkpt>
      <trkpt lat="39.4626230" lon="-7.8318450">
        <ele>240.6</ele>
        <time>2019-07-11T07:19:25Z</time>
      </trkpt>
      <trkpt lat="39.4625490" lon="-7.8318100">
        <ele>241.2</ele>
        <time>2019-07-11T07:19:29Z</time>
      </trkpt>
      <trkpt lat="39.4624530" lon="-7.8317630">
        <ele>242.4</ele>
        <time>2019-07-11T07:19:34Z</time>
      </trkpt>
      <trkpt lat="39.4623760" lon="-7.8317220">
        <ele>243.4</ele>
        <time>2019-07-11T07:19:38Z</time>
      </trkpt>
      <trkpt lat="39.4622900" lon="-7.8316710">
        <ele>244.6</ele>
        <time>2019-07-11T07:19:43Z</time>
      </trkpt>
      <trkpt lat="39.4622170" lon="-7.8316270">
        <ele>245.6</ele>
        <time>2019-07-11T07:19:47Z</time>
      </trkpt>
      <trkpt lat="39.4621600" lon="-7.8315970">
        <ele>246.8</ele>
        <time>2019-07-11T07:19:50Z</time>
      </trkpt>
      <trkpt lat="39.4620240" lon="-7.8315150">
        <ele>247.6</ele>
        <time>2019-07-11T07:19:57Z</time>
      </trkpt>
      <trkpt lat="39.4619510" lon="-7.8314650">
        <ele>248.8</ele>
        <time>2019-07-11T07:20:01Z</time>
      </trkpt>
      <trkpt lat="39.4618470" lon="-7.8313860">
        <ele>249.6</ele>
        <time>2019-07-11T07:20:07Z</time>
      </trkpt>
      <trkpt lat="39.4618350" lon="-7.8313740">
        <ele>250.2</ele>
        <time>2019-07-11T07:20:08Z</time>
      </trkpt>
      <trkpt lat="39.4617780" lon="-7.8313200">
        <ele>251.4</ele>
        <time>2019-07-11T07:20:12Z</time>
      </trkpt>
      <trkpt lat="39.4617460" lon="-7.8312910">
        <ele>251.8</ele>
        <time>2019-07-11T07:20:14Z</time>
      </trkpt>
      <trkpt lat="39.4617190" lon="-7.8312580">
        <ele>252.4</ele>
        <time>2019-07-11T07:20:16Z</time>
      </trkpt>
      <trkpt lat="39.4616610" lon="-7.8311640">
        <ele>253.8</ele>
        <time>2019-07-11T07:20:21Z</time>
      </trkpt>
      <trkpt lat="39.4616110" lon="-7.8311030">
        <ele>255.0</ele>
        <time>2019-07-11T07:20:25Z</time>
      </trkpt>
      <trkpt lat="39.4615570" lon="-7.8310790">
        <ele>255.6</ele>
        <time>2019-07-11T07:20:28Z</time>
      </trkpt>
      <trkpt lat="39.4615200" lon="-7.8310800">
        <ele>256.0</ele>
        <time>2019-07-11T07:20:30Z</time>
      </trkpt>
      <trkpt lat="39.4614850" lon="-7.8311040">
        <ele>256.4</ele>
        <time>2019-07-11T07:20:32Z</time>
      </trkpt>
      <trkpt lat="39.4614720" lon="-7.8311280">
        <ele>256.6</ele>
        <time>2019-07-11T07:20:33Z</time>
      </trkpt>
      <trkpt lat="39.4614640" lon="-7.8311910">
        <ele>257.0</ele>
        <time>2019-07-11T07:20:35Z</time>
      </trkpt>
      <trkpt lat="39.4614630" lon="-7.8312230">
        <ele>257.2</ele>
        <time>2019-07-11T07:20:36Z</time>
      </trkpt>
      <trkpt lat="39.4614660" lon="-7.8312840">
        <ele>257.6</ele>
        <time>2019-07-11T07:20:38Z</time>
      </trkpt>
      <trkpt lat="39.4614900" lon="-7.8313890">
        <ele>258.2</ele>
        <time>2019-07-11T07:20:42Z</time>
      </trkpt>
      <trkpt lat="39.4615130" lon="-7.8315040">
        <ele>258.4</ele>
        <time>2019-07-11T07:20:46Z</time>
      </trkpt>
      <trkpt lat="39.4615400" lon="-7.8316500">
        <ele>259.4</ele>
        <time>2019-07-11T07:20:51Z</time>
      </trkpt>
      <trkpt lat="39.4615510" lon="-7.8317250">
        <ele>260.0</ele>
        <time>2019-07-11T07:20:54Z</time>
      </trkpt>
      <trkpt lat="39.4615520" lon="-7.8317520">
        <ele>260.4</ele>
        <time>2019-07-11T07:20:55Z</time>
      </trkpt>
      <trkpt lat="39.4615550" lon="-7.8318600">
        <ele>261.6</ele>
        <time>2019-07-11T07:20:59Z</time>
      </trkpt>
      <trkpt lat="39.4615540" lon="-7.8319420">
        <ele>261.8</ele>
        <time>2019-07-11T07:21:02Z</time>
      </trkpt>
      <trkpt lat="39.4615530" lon="-7.8319940">
        <ele>262.4</ele>
        <time>2019-07-11T07:21:04Z</time>
      </trkpt>
      <trkpt lat="39.4615600" lon="-7.8320740">
        <ele>263.6</ele>
        <time>2019-07-11T07:21:07Z</time>
      </trkpt>
      <trkpt lat="39.4615620" lon="-7.8321450">
        <ele>264.0</ele>
        <time>2019-07-11T07:21:10Z</time>
      </trkpt>
      <trkpt lat="39.4615630" lon="-7.8322230">
        <ele>264.6</ele>
        <time>2019-07-11T07:21:13Z</time>
      </trkpt>
      <trkpt lat="39.4615460" lon="-7.8323410">
        <ele>265.2</ele>
        <time>2019-07-11T07:21:17Z</time>
      </trkpt>
      <trkpt lat="39.4615190" lon="-7.8324230">
        <ele>265.8</ele>
        <time>2019-07-11T07:21:20Z</time>
      </trkpt>
      <trkpt lat="39.4614750" lon="-7.8325060">
        <ele>266.6</ele>
        <time>2019-07-11T07:21:23Z</time>
      </trkpt>
      <trkpt lat="39.4614410" lon="-7.8325600">
        <ele>267.0</ele>
        <time>2019-07-11T07:21:25Z</time>
      </trkpt>
      <trkpt lat="39.4613470" lon="-7.8326750">
        <ele>267.0</ele>
        <time>2019-07-11T07:21:30Z</time>
      </trkpt>
      <trkpt lat="39.4613230" lon="-7.8326920">
        <ele>267.0</ele>
        <time>2019-07-11T07:21:31Z</time>
      </trkpt>
      <trkpt lat="39.4611540" lon="-7.8327490">
        <ele>267.4</ele>
        <time>2019-07-11T07:21:36Z</time>
      </trkpt>
      <trkpt lat="39.4611160" lon="-7.8327590">
        <ele>267.4</ele>
        <time>2019-07-11T07:21:37Z</time>
      </trkpt>
      <trkpt lat="39.4609590" lon="-7.8327920">
        <ele>267.4</ele>
        <time>2019-07-11T07:21:41Z</time>
      </trkpt>
      <trkpt lat="39.4608750" lon="-7.8328290">
        <ele>267.2</ele>
        <time>2019-07-11T07:21:43Z</time>
      </trkpt>
      <trkpt lat="39.4608290" lon="-7.8328550">
        <ele>266.8</ele>
        <time>2019-07-11T07:21:44Z</time>
      </trkpt>
      <trkpt lat="39.4607830" lon="-7.8328870">
        <ele>266.2</ele>
        <time>2019-07-11T07:21:45Z</time>
      </trkpt>
      <trkpt lat="39.4607370" lon="-7.8329260">
        <ele>265.8</ele>
        <time>2019-07-11T07:21:46Z</time>
      </trkpt>
      <trkpt lat="39.4606560" lon="-7.8330290">
        <ele>265.2</ele>
        <time>2019-07-11T07:21:48Z</time>
      </trkpt>
      <trkpt lat="39.4605870" lon="-7.8331560">
        <ele>264.6</ele>
        <time>2019-07-11T07:21:50Z</time>
      </trkpt>
      <trkpt lat="39.4605420" lon="-7.8332730">
        <ele>263.8</ele>
        <time>2019-07-11T07:21:52Z</time>
      </trkpt>
      <trkpt lat="39.4605360" lon="-7.8333310">
        <ele>263.6</ele>
        <time>2019-07-11T07:21:53Z</time>
      </trkpt>
      <trkpt lat="39.4605380" lon="-7.8334360">
        <ele>263.2</ele>
        <time>2019-07-11T07:21:55Z</time>
      </trkpt>
      <trkpt lat="39.4605420" lon="-7.8334820">
        <ele>263.2</ele>
        <time>2019-07-11T07:21:56Z</time>
      </trkpt>
      <trkpt lat="39.4605460" lon="-7.8335810">
        <ele>263.0</ele>
        <time>2019-07-11T07:21:58Z</time>
      </trkpt>
      <trkpt lat="39.4605380" lon="-7.8336750">
        <ele>261.8</ele>
        <time>2019-07-11T07:22:00Z</time>
      </trkpt>
      <trkpt lat="39.4605310" lon="-7.8337200">
        <ele>261.4</ele>
        <time>2019-07-11T07:22:01Z</time>
      </trkpt>
      <trkpt lat="39.4605180" lon="-7.8337730">
        <ele>260.6</ele>
        <time>2019-07-11T07:22:02Z</time>
      </trkpt>
      <trkpt lat="39.4604740" lon="-7.8339450">
        <ele>259.4</ele>
        <time>2019-07-11T07:22:05Z</time>
      </trkpt>
      <trkpt lat="39.4604620" lon="-7.8339990">
        <ele>259.0</ele>
        <time>2019-07-11T07:22:06Z</time>
      </trkpt>
      <trkpt lat="39.4604490" lon="-7.8340510">
        <ele>258.0</ele>
        <time>2019-07-11T07:22:07Z</time>
      </trkpt>
      <trkpt lat="39.4604470" lon="-7.8341860">
        <ele>257.0</ele>
        <time>2019-07-11T07:22:10Z</time>
      </trkpt>
      <trkpt lat="39.4605430" lon="-7.8343460">
        <ele>255.6</ele>
        <time>2019-07-11T07:22:14Z</time>
      </trkpt>
      <trkpt lat="39.4605950" lon="-7.8344110">
        <ele>254.4</ele>
        <time>2019-07-11T07:22:16Z</time>
      </trkpt>
      <trkpt lat="39.4606390" lon="-7.8344540">
        <ele>253.0</ele>
        <time>2019-07-11T07:22:18Z</time>
      </trkpt>
      <trkpt lat="39.4607220" lon="-7.8345750">
        <ele>251.8</ele>
        <time>2019-07-11T07:22:22Z</time>
      </trkpt>
      <trkpt lat="39.4607420" lon="-7.8346120">
        <ele>251.4</ele>
        <time>2019-07-11T07:22:23Z</time>
      </trkpt>
      <trkpt lat="39.4607790" lon="-7.8346870">
        <ele>250.4</ele>
        <time>2019-07-11T07:22:25Z</time>
      </trkpt>
      <trkpt lat="39.4608020" lon="-7.8347480">
        <ele>249.0</ele>
        <time>2019-07-11T07:22:27Z</time>
      </trkpt>
      <trkpt lat="39.4608060" lon="-7.8347740">
        <ele>248.8</ele>
        <time>2019-07-11T07:22:28Z</time>
      </trkpt>
      <trkpt lat="39.4608080" lon="-7.8348500">
        <ele>248.0</ele>
        <time>2019-07-11T07:22:30Z</time>
      </trkpt>
      <trkpt lat="39.4607960" lon="-7.8349280">
        <ele>247.2</ele>
        <time>2019-07-11T07:22:32Z</time>
      </trkpt>
      <trkpt lat="39.4607870" lon="-7.8349600">
        <ele>246.6</ele>
        <time>2019-07-11T07:22:33Z</time>
      </trkpt>
      <trkpt lat="39.4607560" lon="-7.8350500">
        <ele>245.6</ele>
        <time>2019-07-11T07:22:36Z</time>
      </trkpt>
      <trkpt lat="39.4607400" lon="-7.8350830">
        <ele>245.2</ele>
        <time>2019-07-11T07:22:37Z</time>
      </trkpt>
      <trkpt lat="39.4607180" lon="-7.8351500">
        <ele>244.2</ele>
        <time>2019-07-11T07:22:39Z</time>
      </trkpt>
      <trkpt lat="39.4606830" lon="-7.8352410">
        <ele>242.8</ele>
        <time>2019-07-11T07:22:42Z</time>
      </trkpt>
      <trkpt lat="39.4606540" lon="-7.8353660">
        <ele>241.4</ele>
        <time>2019-07-11T07:22:46Z</time>
      </trkpt>
      <trkpt lat="39.4606550" lon="-7.8354300">
        <ele>240.6</ele>
        <time>2019-07-11T07:22:48Z</time>
      </trkpt>
      <trkpt lat="39.4606660" lon="-7.8354570">
        <ele>240.4</ele>
        <time>2019-07-11T07:22:49Z</time>
      </trkpt>
      <trkpt lat="39.4607090" lon="-7.8354930">
        <ele>239.4</ele>
        <time>2019-07-11T07:22:51Z</time>
      </trkpt>
      <trkpt lat="39.4607380" lon="-7.8355010">
        <ele>238.8</ele>
        <time>2019-07-11T07:22:52Z</time>
      </trkpt>
      <trkpt lat="39.4607700" lon="-7.8354990">
        <ele>238.2</ele>
        <time>2019-07-11T07:22:53Z</time>
      </trkpt>
      <trkpt lat="39.4608490" lon="-7.8354790">
        <ele>237.4</ele>
        <time>2019-07-11T07:22:55Z</time>
      </trkpt>
      <trkpt lat="39.4608940" lon="-7.8354650">
        <ele>237.2</ele>
        <time>2019-07-11T07:22:56Z</time>
      </trkpt>
      <trkpt lat="39.4609840" lon="-7.8354340">
        <ele>236.4</ele>
        <time>2019-07-11T07:22:58Z</time>
      </trkpt>
      <trkpt lat="39.4610200" lon="-7.8354160">
        <ele>235.8</ele>
        <time>2019-07-11T07:22:59Z</time>
      </trkpt>
      <trkpt lat="39.4610790" lon="-7.8353890">
        <ele>234.8</ele>
        <time>2019-07-11T07:23:01Z</time>
      </trkpt>
      <trkpt lat="39.4611060" lon="-7.8353890">
        <ele>234.4</ele>
        <time>2019-07-11T07:23:02Z</time>
      </trkpt>
      <trkpt lat="39.4611600" lon="-7.8354310">
        <ele>232.8</ele>
        <time>2019-07-11T07:23:05Z</time>
      </trkpt>
      <trkpt lat="39.4611670" lon="-7.8354910">
        <ele>231.8</ele>
        <time>2019-07-11T07:23:07Z</time>
      </trkpt>
      <trkpt lat="39.4611590" lon="-7.8355370">
        <ele>231.0</ele>
        <time>2019-07-11T07:23:09Z</time>
      </trkpt>
      <trkpt lat="39.4611530" lon="-7.8355640">
        <ele>230.6</ele>
        <time>2019-07-11T07:23:10Z</time>
      </trkpt>
      <trkpt lat="39.4611300" lon="-7.8356290">
        <ele>230.2</ele>
        <time>2019-07-11T07:23:12Z</time>
      </trkpt>
      <trkpt lat="39.4611030" lon="-7.8357000">
        <ele>229.4</ele>
        <time>2019-07-11T07:23:14Z</time>
      </trkpt>
      <trkpt lat="39.4610860" lon="-7.8358350">
        <ele>228.4</ele>
        <time>2019-07-11T07:23:18Z</time>
      </trkpt>
      <trkpt lat="39.4610840" lon="-7.8358720">
        <ele>227.8</ele>
        <time>2019-07-11T07:23:19Z</time>
      </trkpt>
      <trkpt lat="39.4610800" lon="-7.8359100">
        <ele>227.4</ele>
        <time>2019-07-11T07:23:20Z</time>
      </trkpt>
      <trkpt lat="39.4610700" lon="-7.8359940">
        <ele>226.2</ele>
        <time>2019-07-11T07:23:22Z</time>
      </trkpt>
      <trkpt lat="39.4610550" lon="-7.8360920">
        <ele>225.4</ele>
        <time>2019-07-11T07:23:24Z</time>
      </trkpt>
      <trkpt lat="39.4610440" lon="-7.8361340">
        <ele>225.0</ele>
        <time>2019-07-11T07:23:25Z</time>
      </trkpt>
      <trkpt lat="39.4610220" lon="-7.8361970">
        <ele>223.8</ele>
        <time>2019-07-11T07:23:27Z</time>
      </trkpt>
      <trkpt lat="39.4610120" lon="-7.8362210">
        <ele>223.4</ele>
        <time>2019-07-11T07:23:28Z</time>
      </trkpt>
      <trkpt lat="39.4609880" lon="-7.8362740">
        <ele>222.6</ele>
        <time>2019-07-11T07:23:30Z</time>
      </trkpt>
      <trkpt lat="39.4609420" lon="-7.8363600">
        <ele>221.6</ele>
        <time>2019-07-11T07:23:33Z</time>
      </trkpt>
      <trkpt lat="39.4609240" lon="-7.8363970">
        <ele>221.0</ele>
        <time>2019-07-11T07:23:34Z</time>
      </trkpt>
      <trkpt lat="39.4609130" lon="-7.8364380">
        <ele>220.0</ele>
        <time>2019-07-11T07:23:35Z</time>
      </trkpt>
      <trkpt lat="39.4609030" lon="-7.8365200">
        <ele>219.0</ele>
        <time>2019-07-11T07:23:37Z</time>
      </trkpt>
      <trkpt lat="39.4609050" lon="-7.8365690">
        <ele>218.2</ele>
        <time>2019-07-11T07:23:38Z</time>
      </trkpt>
      <trkpt lat="39.4609100" lon="-7.8366240">
        <ele>217.8</ele>
        <time>2019-07-11T07:23:39Z</time>
      </trkpt>
      <trkpt lat="39.4609120" lon="-7.8367170">
        <ele>216.4</ele>
        <time>2019-07-11T07:23:41Z</time>
      </trkpt>
      <trkpt lat="39.4609080" lon="-7.8367890">
        <ele>215.6</ele>
        <time>2019-07-11T07:23:43Z</time>
      </trkpt>
      <trkpt lat="39.4609080" lon="-7.8368270">
        <ele>215.0</ele>
        <time>2019-07-11T07:23:44Z</time>
      </trkpt>
      <trkpt lat="39.4609090" lon="-7.8369010">
        <ele>213.8</ele>
        <time>2019-07-11T07:23:46Z</time>
      </trkpt>
      <trkpt lat="39.4609100" lon="-7.8370250">
        <ele>212.4</ele>
        <time>2019-07-11T07:23:49Z</time>
      </trkpt>
      <trkpt lat="39.4609200" lon="-7.8371160">
        <ele>211.4</ele>
        <time>2019-07-11T07:23:51Z</time>
      </trkpt>
      <trkpt lat="39.4609330" lon="-7.8371850">
        <ele>210.0</ele>
        <time>2019-07-11T07:23:53Z</time>
      </trkpt>
      <trkpt lat="39.4609390" lon="-7.8372720">
        <ele>208.6</ele>
        <time>2019-07-11T07:23:55Z</time>
      </trkpt>
      <trkpt lat="39.4609400" lon="-7.8373230">
        <ele>208.0</ele>
        <time>2019-07-11T07:23:56Z</time>
      </trkpt>
      <trkpt lat="39.4609430" lon="-7.8373770">
        <ele>207.4</ele>
        <time>2019-07-11T07:23:57Z</time>
      </trkpt>
      <trkpt lat="39.4609490" lon="-7.8374830">
        <ele>206.2</ele>
        <time>2019-07-11T07:23:59Z</time>
      </trkpt>
      <trkpt lat="39.4609520" lon="-7.8375530">
        <ele>204.4</ele>
        <time>2019-07-11T07:24:01Z</time>
      </trkpt>
      <trkpt lat="39.4609500" lon="-7.8375960">
        <ele>203.4</ele>
        <time>2019-07-11T07:24:03Z</time>
      </trkpt>
      <trkpt lat="39.4609490" lon="-7.8376130">
        <ele>202.6</ele>
        <time>2019-07-11T07:24:05Z</time>
      </trkpt>
      <trkpt lat="39.4609490" lon="-7.8376140">
        <ele>202.4</ele>
        <time>2019-07-11T07:24:06Z</time>
      </trkpt>
      <trkpt lat="39.4609440" lon="-7.8376690">
        <ele>202.2</ele>
        <time>2019-07-11T07:24:09Z</time>
      </trkpt>
      <trkpt lat="39.4609290" lon="-7.8378180">
        <ele>201.0</ele>
        <time>2019-07-11T07:24:14Z</time>
      </trkpt>
      <trkpt lat="39.4609260" lon="-7.8378450">
        <ele>200.6</ele>
        <time>2019-07-11T07:24:15Z</time>
      </trkpt>
      <trkpt lat="39.4609070" lon="-7.8379900">
        <ele>199.4</ele>
        <time>2019-07-11T07:24:19Z</time>
      </trkpt>
      <trkpt lat="39.4609030" lon="-7.8380140">
        <ele>199.0</ele>
        <time>2019-07-11T07:24:20Z</time>
      </trkpt>
      <trkpt lat="39.4608850" lon="-7.8380500">
        <ele>198.4</ele>
        <time>2019-07-11T07:24:22Z</time>
      </trkpt>
      <trkpt lat="39.4608330" lon="-7.8380760">
        <ele>198.0</ele>
        <time>2019-07-11T07:24:24Z</time>
      </trkpt>
      <trkpt lat="39.4607670" lon="-7.8380850">
        <ele>197.0</ele>
        <time>2019-07-11T07:24:26Z</time>
      </trkpt>
      <trkpt lat="39.4607270" lon="-7.8380870">
        <ele>196.6</ele>
        <time>2019-07-11T07:24:28Z</time>
      </trkpt>
      <trkpt lat="39.4606690" lon="-7.8380660">
        <ele>196.4</ele>
        <time>2019-07-11T07:24:33Z</time>
      </trkpt>
      <trkpt lat="39.4606700" lon="-7.8380660">
        <ele>196.2</ele>
        <time>2019-07-11T07:24:34Z</time>
      </trkpt>
      <trkpt lat="39.4606350" lon="-7.8380650">
        <ele>195.6</ele>
        <time>2019-07-11T07:26:55Z</time>
      </trkpt>
      <trkpt lat="39.4605980" lon="-7.8380730">
        <ele>195.6</ele>
        <time>2019-07-11T07:26:57Z</time>
      </trkpt>
      <trkpt lat="39.4605730" lon="-7.8380810">
        <ele>195.4</ele>
        <time>2019-07-11T07:26:59Z</time>
      </trkpt>
      <trkpt lat="39.4605640" lon="-7.8380830">
        <ele>195.2</ele>
        <time>2019-07-11T07:27:01Z</time>
      </trkpt>
      <trkpt lat="39.4603800" lon="-7.8380530">
        <ele>195.4</ele>
        <time>2019-07-11T07:27:40Z</time>
      </trkpt>
      <trkpt lat="39.4603700" lon="-7.8380460">
        <ele>195.6</ele>
        <time>2019-07-11T07:27:41Z</time>
      </trkpt>
      <trkpt lat="39.4603630" lon="-7.8380480">
        <ele>195.8</ele>
        <time>2019-07-11T07:27:43Z</time>
      </trkpt>
      <trkpt lat="39.4603640" lon="-7.8380470">
        <ele>195.8</ele>
        <time>2019-07-11T07:27:44Z</time>
      </trkpt>
      <trkpt lat="39.4602500" lon="-7.8380010">
        <ele>197.2</ele>
        <time>2019-07-11T07:28:09Z</time>
      </trkpt>
      <trkpt lat="39.4601500" lon="-7.8379640">
        <ele>197.6</ele>
        <time>2019-07-11T07:28:15Z</time>
      </trkpt>
      <trkpt lat="39.4601200" lon="-7.8379580">
        <ele>197.6</ele>
        <time>2019-07-11T07:28:17Z</time>
      </trkpt>
      <trkpt lat="39.4600730" lon="-7.8379510">
        <ele>198.2</ele>
        <time>2019-07-11T07:28:20Z</time>
      </trkpt>
      <trkpt lat="39.4600030" lon="-7.8379380">
        <ele>199.2</ele>
        <time>2019-07-11T07:28:24Z</time>
      </trkpt>
      <trkpt lat="39.4599470" lon="-7.8379140">
        <ele>200.2</ele>
        <time>2019-07-11T07:28:28Z</time>
      </trkpt>
      <trkpt lat="39.4599320" lon="-7.8379100">
        <ele>200.4</ele>
        <time>2019-07-11T07:28:29Z</time>
      </trkpt>
      <trkpt lat="39.4598620" lon="-7.8378980">
        <ele>201.0</ele>
        <time>2019-07-11T07:28:33Z</time>
      </trkpt>
      <trkpt lat="39.4598260" lon="-7.8378850">
        <ele>201.2</ele>
        <time>2019-07-11T07:28:35Z</time>
      </trkpt>
      <trkpt lat="39.4597870" lon="-7.8378730">
        <ele>201.6</ele>
        <time>2019-07-11T07:28:37Z</time>
      </trkpt>
      <trkpt lat="39.4596890" lon="-7.8378550">
        <ele>202.0</ele>
        <time>2019-07-11T07:28:42Z</time>
      </trkpt>
      <trkpt lat="39.4596410" lon="-7.8378240">
        <ele>202.4</ele>
        <time>2019-07-11T07:28:45Z</time>
      </trkpt>
      <trkpt lat="39.4596100" lon="-7.8378220">
        <ele>202.6</ele>
        <time>2019-07-11T07:28:47Z</time>
      </trkpt>
      <trkpt lat="39.4595770" lon="-7.8378370">
        <ele>202.6</ele>
        <time>2019-07-11T07:28:49Z</time>
      </trkpt>
      <trkpt lat="39.4595360" lon="-7.8378850">
        <ele>203.2</ele>
        <time>2019-07-11T07:28:52Z</time>
      </trkpt>
      <trkpt lat="39.4595110" lon="-7.8379320">
        <ele>203.6</ele>
        <time>2019-07-11T07:28:54Z</time>
      </trkpt>
      <trkpt lat="39.4595030" lon="-7.8379570">
        <ele>203.8</ele>
        <time>2019-07-11T07:28:55Z</time>
      </trkpt>
      <trkpt lat="39.4594870" lon="-7.8379940">
        <ele>204.2</ele>
        <time>2019-07-11T07:28:57Z</time>
      </trkpt>
      <trkpt lat="39.4594640" lon="-7.8380290">
        <ele>204.4</ele>
        <time>2019-07-11T07:29:02Z</time>
      </trkpt>
      <trkpt lat="39.4594630" lon="-7.8380340">
        <ele>204.4</ele>
        <time>2019-07-11T07:29:04Z</time>
      </trkpt>
      <trkpt lat="39.4586060" lon="-7.8380520">
        <ele>227.6</ele>
        <time>2019-07-11T07:32:04Z</time>
      </trkpt>
      <trkpt lat="39.4585890" lon="-7.8380540">
        <ele>227.6</ele>
        <time>2019-07-11T07:32:05Z</time>
      </trkpt>
      <trkpt lat="39.4584990" lon="-7.8380560">
        <ele>227.6</ele>
        <time>2019-07-11T07:32:09Z</time>
      </trkpt>
      <trkpt lat="39.4584560" lon="-7.8380620">
        <ele>227.8</ele>
        <time>2019-07-11T07:32:11Z</time>
      </trkpt>
      <trkpt lat="39.4582650" lon="-7.8380790">
        <ele>228.0</ele>
        <time>2019-07-11T07:32:19Z</time>
      </trkpt>
      <trkpt lat="39.4582350" lon="-7.8380840">
        <ele>228.0</ele>
        <time>2019-07-11T07:32:20Z</time>
      </trkpt>
      <trkpt lat="39.4580760" lon="-7.8381490">
        <ele>228.4</ele>
        <time>2019-07-11T07:32:26Z</time>
      </trkpt>
      <trkpt lat="39.4580580" lon="-7.8381570">
        <ele>228.6</ele>
        <time>2019-07-11T07:32:27Z</time>
      </trkpt>
      <trkpt lat="39.4580240" lon="-7.8381720">
        <ele>229.0</ele>
        <time>2019-07-11T07:32:29Z</time>
      </trkpt>
      <trkpt lat="39.4579950" lon="-7.8381870">
        <ele>229.6</ele>
        <time>2019-07-11T07:32:31Z</time>
      </trkpt>
      <trkpt lat="39.4579780" lon="-7.8381950">
        <ele>229.8</ele>
        <time>2019-07-11T07:32:32Z</time>
      </trkpt>
      <trkpt lat="39.4579590" lon="-7.8382040">
        <ele>230.2</ele>
        <time>2019-07-11T07:32:33Z</time>
      </trkpt>
      <trkpt lat="39.4578980" lon="-7.8382240">
        <ele>230.8</ele>
        <time>2019-07-11T07:32:36Z</time>
      </trkpt>
      <trkpt lat="39.4578630" lon="-7.8382340">
        <ele>231.0</ele>
        <time>2019-07-11T07:32:38Z</time>
      </trkpt>
      <trkpt lat="39.4577930" lon="-7.8382620">
        <ele>231.8</ele>
        <time>2019-07-11T07:32:42Z</time>
      </trkpt>
      <trkpt lat="39.4577550" lon="-7.8382700">
        <ele>232.2</ele>
        <time>2019-07-11T07:32:44Z</time>
      </trkpt>
      <trkpt lat="39.4576910" lon="-7.8382960">
        <ele>233.4</ele>
        <time>2019-07-11T07:32:48Z</time>
      </trkpt>
      <trkpt lat="39.4576620" lon="-7.8383090">
        <ele>234.0</ele>
        <time>2019-07-11T07:32:50Z</time>
      </trkpt>
      <trkpt lat="39.4576500" lon="-7.8383160">
        <ele>234.6</ele>
        <time>2019-07-11T07:32:51Z</time>
      </trkpt>
      <trkpt lat="39.4575960" lon="-7.8383390">
        <ele>235.6</ele>
        <time>2019-07-11T07:32:55Z</time>
      </trkpt>
      <trkpt lat="39.4575740" lon="-7.8383440">
        <ele>236.8</ele>
        <time>2019-07-11T07:32:57Z</time>
      </trkpt>
      <trkpt lat="39.4575750" lon="-7.8383430">
        <ele>237.4</ele>
        <time>2019-07-11T07:32:59Z</time>
      </trkpt>
      <trkpt lat="39.4563750" lon="-7.8385220">
        <ele>259.8</ele>
        <time>2019-07-11T07:36:06Z</time>
      </trkpt>
      <trkpt lat="39.4563600" lon="-7.8385280">
        <ele>259.8</ele>
        <time>2019-07-11T07:36:07Z</time>
      </trkpt>
      <trkpt lat="39.4563240" lon="-7.8385410">
        <ele>259.6</ele>
        <time>2019-07-11T07:36:09Z</time>
      </trkpt>
      <trkpt lat="39.4562410" lon="-7.8385670">
        <ele>259.8</ele>
        <time>2019-07-11T07:36:13Z</time>
      </trkpt>
      <trkpt lat="39.4562200" lon="-7.8385720">
        <ele>259.8</ele>
        <time>2019-07-11T07:36:14Z</time>
      </trkpt>
      <trkpt lat="39.4560840" lon="-7.8385830">
        <ele>261.0</ele>
        <time>2019-07-11T07:36:21Z</time>
      </trkpt>
      <trkpt lat="39.4560070" lon="-7.8385940">
        <ele>261.4</ele>
        <time>2019-07-11T07:36:25Z</time>
      </trkpt>
      <trkpt lat="39.4559510" lon="-7.8386110">
        <ele>261.6</ele>
        <time>2019-07-11T07:36:28Z</time>
      </trkpt>
      <trkpt lat="39.4558050" lon="-7.8386880">
        <ele>262.0</ele>
        <time>2019-07-11T07:36:35Z</time>
      </trkpt>
      <trkpt lat="39.4556660" lon="-7.8387390">
        <ele>262.8</ele>
        <time>2019-07-11T07:36:42Z</time>
      </trkpt>
      <trkpt lat="39.4556480" lon="-7.8387460">
        <ele>263.0</ele>
        <time>2019-07-11T07:36:43Z</time>
      </trkpt>
      <trkpt lat="39.4555460" lon="-7.8387980">
        <ele>264.0</ele>
        <time>2019-07-11T07:36:49Z</time>
      </trkpt>
      <trkpt lat="39.4555300" lon="-7.8388060">
        <ele>264.2</ele>
        <time>2019-07-11T07:36:50Z</time>
      </trkpt>
      <trkpt lat="39.4554880" lon="-7.8388380">
        <ele>265.4</ele>
        <time>2019-07-11T07:36:53Z</time>
      </trkpt>
      <trkpt lat="39.4554270" lon="-7.8388760">
        <ele>265.6</ele>
        <time>2019-07-11T07:36:57Z</time>
      </trkpt>
      <trkpt lat="39.4553840" lon="-7.8389080">
        <ele>266.4</ele>
        <time>2019-07-11T07:37:00Z</time>
      </trkpt>
      <trkpt lat="39.4553170" lon="-7.8389630">
        <ele>267.4</ele>
        <time>2019-07-11T07:37:05Z</time>
      </trkpt>
      <trkpt lat="39.4553040" lon="-7.8389750">
        <ele>267.6</ele>
        <time>2019-07-11T07:37:06Z</time>
      </trkpt>
      <trkpt lat="39.4552920" lon="-7.8389880">
        <ele>267.8</ele>
        <time>2019-07-11T07:37:07Z</time>
      </trkpt>
      <trkpt lat="39.4552440" lon="-7.8390350">
        <ele>268.8</ele>
        <time>2019-07-11T07:37:11Z</time>
      </trkpt>
      <trkpt lat="39.4552040" lon="-7.8390610">
        <ele>269.2</ele>
        <time>2019-07-11T07:37:14Z</time>
      </trkpt>
      <trkpt lat="39.4551790" lon="-7.8390760">
        <ele>269.6</ele>
        <time>2019-07-11T07:37:16Z</time>
      </trkpt>
      <trkpt lat="39.4551670" lon="-7.8390860">
        <ele>269.8</ele>
        <time>2019-07-11T07:37:17Z</time>
      </trkpt>
      <trkpt lat="39.4551320" lon="-7.8391200">
        <ele>270.6</ele>
        <time>2019-07-11T07:37:20Z</time>
      </trkpt>
      <trkpt lat="39.4551210" lon="-7.8391320">
        <ele>271.0</ele>
        <time>2019-07-11T07:37:21Z</time>
      </trkpt>
      <trkpt lat="39.4550560" lon="-7.8391840">
        <ele>272.0</ele>
        <time>2019-07-11T07:37:26Z</time>
      </trkpt>
      <trkpt lat="39.4550410" lon="-7.8391960">
        <ele>272.2</ele>
        <time>2019-07-11T07:37:27Z</time>
      </trkpt>
      <trkpt lat="39.4549760" lon="-7.8392600">
        <ele>273.2</ele>
        <time>2019-07-11T07:37:32Z</time>
      </trkpt>
      <trkpt lat="39.4549270" lon="-7.8392880">
        <ele>273.4</ele>
        <time>2019-07-11T07:37:35Z</time>
      </trkpt>
      <trkpt lat="39.4548010" lon="-7.8393450">
        <ele>273.4</ele>
        <time>2019-07-11T07:37:41Z</time>
      </trkpt>
      <trkpt lat="39.4547490" lon="-7.8393520">
        <ele>273.2</ele>
        <time>2019-07-11T07:37:43Z</time>
      </trkpt>
      <trkpt lat="39.4546890" lon="-7.8393560">
        <ele>273.0</ele>
        <time>2019-07-11T07:37:45Z</time>
      </trkpt>
      <trkpt lat="39.4546110" lon="-7.8393530">
        <ele>272.8</ele>
        <time>2019-07-11T07:37:47Z</time>
      </trkpt>
      <trkpt lat="39.4545680" lon="-7.8393520">
        <ele>272.6</ele>
        <time>2019-07-11T07:37:48Z</time>
      </trkpt>
      <trkpt lat="39.4544860" lon="-7.8393560">
        <ele>272.4</ele>
        <time>2019-07-11T07:37:50Z</time>
      </trkpt>
      <trkpt lat="39.4544380" lon="-7.8393460">
        <ele>272.2</ele>
        <time>2019-07-11T07:37:51Z</time>
      </trkpt>
      <trkpt lat="39.4543890" lon="-7.8393270">
        <ele>271.8</ele>
        <time>2019-07-11T07:37:52Z</time>
      </trkpt>
      <trkpt lat="39.4542860" lon="-7.8392740">
        <ele>271.4</ele>
        <time>2019-07-11T07:37:54Z</time>
      </trkpt>
      <trkpt lat="39.4542330" lon="-7.8392550">
        <ele>270.8</ele>
        <time>2019-07-11T07:37:55Z</time>
      </trkpt>
      <trkpt lat="39.4541820" lon="-7.8392450">
        <ele>270.8</ele>
        <time>2019-07-11T07:37:56Z</time>
      </trkpt>
      <trkpt lat="39.4541310" lon="-7.8392400">
        <ele>270.6</ele>
        <time>2019-07-11T07:37:57Z</time>
      </trkpt>
      <trkpt lat="39.4540800" lon="-7.8392370">
        <ele>270.4</ele>
        <time>2019-07-11T07:37:58Z</time>
      </trkpt>
      <trkpt lat="39.4539890" lon="-7.8392380">
        <ele>270.2</ele>
        <time>2019-07-11T07:38:00Z</time>
      </trkpt>
      <trkpt lat="39.4538790" lon="-7.8392400">
        <ele>270.0</ele>
        <time>2019-07-11T07:38:03Z</time>
      </trkpt>
      <trkpt lat="39.4537010" lon="-7.8392710">
        <ele>270.4</ele>
        <time>2019-07-11T07:38:09Z</time>
      </trkpt>
      <trkpt lat="39.4535710" lon="-7.8393320">
        <ele>271.8</ele>
        <time>2019-07-11T07:38:15Z</time>
      </trkpt>
      <trkpt lat="39.4535520" lon="-7.8393470">
        <ele>272.0</ele>
        <time>2019-07-11T07:38:16Z</time>
      </trkpt>
      <trkpt lat="39.4534950" lon="-7.8394000">
        <ele>272.8</ele>
        <time>2019-07-11T07:38:19Z</time>
      </trkpt>
      <trkpt lat="39.4533990" lon="-7.8394950">
        <ele>273.0</ele>
        <time>2019-07-11T07:38:24Z</time>
      </trkpt>
      <trkpt lat="39.4532870" lon="-7.8396270">
        <ele>273.6</ele>
        <time>2019-07-11T07:38:30Z</time>
      </trkpt>
      <trkpt lat="39.4532280" lon="-7.8396900">
        <ele>274.0</ele>
        <time>2019-07-11T07:38:33Z</time>
      </trkpt>
      <trkpt lat="39.4531210" lon="-7.8398200">
        <ele>274.2</ele>
        <time>2019-07-11T07:38:38Z</time>
      </trkpt>
      <trkpt lat="39.4529590" lon="-7.8399640">
        <ele>273.8</ele>
        <time>2019-07-11T07:38:43Z</time>
      </trkpt>
      <trkpt lat="39.4529220" lon="-7.8399880">
        <ele>273.6</ele>
        <time>2019-07-11T07:38:44Z</time>
      </trkpt>
      <trkpt lat="39.4527970" lon="-7.8400460">
        <ele>273.2</ele>
        <time>2019-07-11T07:38:47Z</time>
      </trkpt>
      <trkpt lat="39.4527010" lon="-7.8400710">
        <ele>273.0</ele>
        <time>2019-07-11T07:38:49Z</time>
      </trkpt>
      <trkpt lat="39.4526550" lon="-7.8400840">
        <ele>273.2</ele>
        <time>2019-07-11T07:38:50Z</time>
      </trkpt>
      <trkpt lat="39.4524800" lon="-7.8401560">
        <ele>273.6</ele>
        <time>2019-07-11T07:38:55Z</time>
      </trkpt>
      <trkpt lat="39.4523950" lon="-7.8401800">
        <ele>274.0</ele>
        <time>2019-07-11T07:38:58Z</time>
      </trkpt>
      <trkpt lat="39.4522680" lon="-7.8402040">
        <ele>274.8</ele>
        <time>2019-07-11T07:39:03Z</time>
      </trkpt>
      <trkpt lat="39.4522450" lon="-7.8402110">
        <ele>275.2</ele>
        <time>2019-07-11T07:39:04Z</time>
      </trkpt>
      <trkpt lat="39.4521790" lon="-7.8402270">
        <ele>276.0</ele>
        <time>2019-07-11T07:39:07Z</time>
      </trkpt>
      <trkpt lat="39.4520910" lon="-7.8402450">
        <ele>276.6</ele>
        <time>2019-07-11T07:39:11Z</time>
      </trkpt>
      <trkpt lat="39.4520240" lon="-7.8402620">
        <ele>277.0</ele>
        <time>2019-07-11T07:39:14Z</time>
      </trkpt>
      <trkpt lat="39.4519250" lon="-7.8402870">
        <ele>277.8</ele>
        <time>2019-07-11T07:39:18Z</time>
      </trkpt>
      <trkpt lat="39.4519000" lon="-7.8402920">
        <ele>278.0</ele>
        <time>2019-07-11T07:39:19Z</time>
      </trkpt>
      <trkpt lat="39.4518770" lon="-7.8402980">
        <ele>278.2</ele>
        <time>2019-07-11T07:39:20Z</time>
      </trkpt>
      <trkpt lat="39.4517520" lon="-7.8403490">
        <ele>278.4</ele>
        <time>2019-07-11T07:39:25Z</time>
      </trkpt>
      <trkpt lat="39.4516250" lon="-7.8403790">
        <ele>278.2</ele>
        <time>2019-07-11T07:39:29Z</time>
      </trkpt>
      <trkpt lat="39.4515540" lon="-7.8403990">
        <ele>278.0</ele>
        <time>2019-07-11T07:39:31Z</time>
      </trkpt>
      <trkpt lat="39.4515140" lon="-7.8404110">
        <ele>278.0</ele>
        <time>2019-07-11T07:39:32Z</time>
      </trkpt>
      <trkpt lat="39.4514280" lon="-7.8404290">
        <ele>277.4</ele>
        <time>2019-07-11T07:39:34Z</time>
      </trkpt>
      <trkpt lat="39.4513750" lon="-7.8404310">
        <ele>277.0</ele>
        <time>2019-07-11T07:39:35Z</time>
      </trkpt>
      <trkpt lat="39.4513180" lon="-7.8404320">
        <ele>276.6</ele>
        <time>2019-07-11T07:39:36Z</time>
      </trkpt>
      <trkpt lat="39.4510900" lon="-7.8404160">
        <ele>276.0</ele>
        <time>2019-07-11T07:39:40Z</time>
      </trkpt>
      <trkpt lat="39.4510360" lon="-7.8404140">
        <ele>276.0</ele>
        <time>2019-07-11T07:39:41Z</time>
      </trkpt>
      <trkpt lat="39.4508460" lon="-7.8403950">
        <ele>276.0</ele>
        <time>2019-07-11T07:39:45Z</time>
      </trkpt>
      <trkpt lat="39.4508020" lon="-7.8403980">
        <ele>276.2</ele>
        <time>2019-07-11T07:39:46Z</time>
      </trkpt>
      <trkpt lat="39.4507610" lon="-7.8404040">
        <ele>276.2</ele>
        <time>2019-07-11T07:39:47Z</time>
      </trkpt>
      <trkpt lat="39.4505540" lon="-7.8404600">
        <ele>276.0</ele>
        <time>2019-07-11T07:39:52Z</time>
      </trkpt>
      <trkpt lat="39.4504680" lon="-7.8404980">
        <ele>276.0</ele>
        <time>2019-07-11T07:39:54Z</time>
      </trkpt>
      <trkpt lat="39.4503840" lon="-7.8405540">
        <ele>276.0</ele>
        <time>2019-07-11T07:39:56Z</time>
      </trkpt>
      <trkpt lat="39.4503040" lon="-7.8406220">
        <ele>276.0</ele>
        <time>2019-07-11T07:39:58Z</time>
      </trkpt>
      <trkpt lat="39.4502670" lon="-7.8406640">
        <ele>276.0</ele>
        <time>2019-07-11T07:39:59Z</time>
      </trkpt>
      <trkpt lat="39.4501780" lon="-7.8408180">
        <ele>275.8</ele>
        <time>2019-07-11T07:40:02Z</time>
      </trkpt>
      <trkpt lat="39.4501630" lon="-7.8408790">
        <ele>275.6</ele>
        <time>2019-07-11T07:40:03Z</time>
      </trkpt>
      <trkpt lat="39.4501530" lon="-7.8409410">
        <ele>275.4</ele>
        <time>2019-07-11T07:40:04Z</time>
      </trkpt>
      <trkpt lat="39.4501510" lon="-7.8411330">
        <ele>275.0</ele>
        <time>2019-07-11T07:40:07Z</time>
      </trkpt>
      <trkpt lat="39.4501540" lon="-7.8411950">
        <ele>274.8</ele>
        <time>2019-07-11T07:40:08Z</time>
      </trkpt>
      <trkpt lat="39.4501560" lon="-7.8413890">
        <ele>275.0</ele>
        <time>2019-07-11T07:40:12Z</time>
      </trkpt>
      <trkpt lat="39.4501590" lon="-7.8414250">
        <ele>275.0</ele>
        <time>2019-07-11T07:40:13Z</time>
      </trkpt>
      <trkpt lat="39.4501720" lon="-7.8414940">
        <ele>275.2</ele>
        <time>2019-07-11T07:40:15Z</time>
      </trkpt>
      <trkpt lat="39.4502250" lon="-7.8416220">
        <ele>276.0</ele>
        <time>2019-07-11T07:40:19Z</time>
      </trkpt>
      <trkpt lat="39.4502690" lon="-7.8417190">
        <ele>276.6</ele>
        <time>2019-07-11T07:40:22Z</time>
      </trkpt>
      <trkpt lat="39.4502990" lon="-7.8418220">
        <ele>277.0</ele>
        <time>2019-07-11T07:40:25Z</time>
      </trkpt>
      <trkpt lat="39.4503310" lon="-7.8419210">
        <ele>277.2</ele>
        <time>2019-07-11T07:40:28Z</time>
      </trkpt>
      <trkpt lat="39.4503470" lon="-7.8420350">
        <ele>277.4</ele>
        <time>2019-07-11T07:40:31Z</time>
      </trkpt>
      <trkpt lat="39.4503440" lon="-7.8421110">
        <ele>277.8</ele>
        <time>2019-07-11T07:40:33Z</time>
      </trkpt>
      <trkpt lat="39.4502970" lon="-7.8422690">
        <ele>278.4</ele>
        <time>2019-07-11T07:40:37Z</time>
      </trkpt>
      <trkpt lat="39.4501410" lon="-7.8425800">
        <ele>278.2</ele>
        <time>2019-07-11T07:40:44Z</time>
      </trkpt>
      <trkpt lat="39.4500410" lon="-7.8427180">
        <ele>278.0</ele>
        <time>2019-07-11T07:40:48Z</time>
      </trkpt>
      <trkpt lat="39.4499910" lon="-7.8427810">
        <ele>278.0</ele>
        <time>2019-07-11T07:40:50Z</time>
      </trkpt>
      <trkpt lat="39.4498040" lon="-7.8429870">
        <ele>278.0</ele>
        <time>2019-07-11T07:40:56Z</time>
      </trkpt>
      <trkpt lat="39.4497600" lon="-7.8430160">
        <ele>277.8</ele>
        <time>2019-07-11T07:40:57Z</time>
      </trkpt>
      <trkpt lat="39.4497140" lon="-7.8430360">
        <ele>277.6</ele>
        <time>2019-07-11T07:40:58Z</time>
      </trkpt>
      <trkpt lat="39.4496130" lon="-7.8430490">
        <ele>277.0</ele>
        <time>2019-07-11T07:41:00Z</time>
      </trkpt>
      <trkpt lat="39.4494350" lon="-7.8430390">
        <ele>276.6</ele>
        <time>2019-07-11T07:41:03Z</time>
      </trkpt>
      <trkpt lat="39.4493160" lon="-7.8430090">
        <ele>275.6</ele>
        <time>2019-07-11T07:41:05Z</time>
      </trkpt>
      <trkpt lat="39.4491460" lon="-7.8429600">
        <ele>275.4</ele>
        <time>2019-07-11T07:41:08Z</time>
      </trkpt>
      <trkpt lat="39.4490390" lon="-7.8429430">
        <ele>275.2</ele>
        <time>2019-07-11T07:41:10Z</time>
      </trkpt>
      <trkpt lat="39.4489890" lon="-7.8429450">
        <ele>275.2</ele>
        <time>2019-07-11T07:41:11Z</time>
      </trkpt>
      <trkpt lat="39.4487630" lon="-7.8430050">
        <ele>275.2</ele>
        <time>2019-07-11T07:41:16Z</time>
      </trkpt>
      <trkpt lat="39.4487220" lon="-7.8430240">
        <ele>275.2</ele>
        <time>2019-07-11T07:41:17Z</time>
      </trkpt>
      <trkpt lat="39.4485210" lon="-7.8431390">
        <ele>275.6</ele>
        <time>2019-07-11T07:41:22Z</time>
      </trkpt>
      <trkpt lat="39.4484870" lon="-7.8431750">
        <ele>275.6</ele>
        <time>2019-07-11T07:41:23Z</time>
      </trkpt>
      <trkpt lat="39.4411430" lon="-7.8526840">
        <ele>286.0</ele>
        <time>2019-07-11T07:45:43Z</time>
      </trkpt>
      <trkpt lat="39.4411310" lon="-7.8527140">
        <ele>286.0</ele>
        <time>2019-07-11T07:45:44Z</time>
      </trkpt>
      <trkpt lat="39.4409530" lon="-7.8532090">
        <ele>285.8</ele>
        <time>2019-07-11T07:45:52Z</time>
      </trkpt>
      <trkpt lat="39.4407260" lon="-7.8538470">
        <ele>285.8</ele>
        <time>2019-07-11T07:46:02Z</time>
      </trkpt>
      <trkpt lat="39.4405670" lon="-7.8544490">
        <ele>286.2</ele>
        <time>2019-07-11T07:46:11Z</time>
      </trkpt>
      <trkpt lat="39.4404620" lon="-7.8550040">
        <ele>286.4</ele>
        <time>2019-07-11T07:46:19Z</time>
      </trkpt>
      <trkpt lat="39.4404510" lon="-7.8550750">
        <ele>286.6</ele>
        <time>2019-07-11T07:46:20Z</time>
      </trkpt>
      <trkpt lat="39.4403840" lon="-7.8556370">
        <ele>286.0</ele>
        <time>2019-07-11T07:46:28Z</time>
      </trkpt>
      <trkpt lat="39.4403760" lon="-7.8557080">
        <ele>286.0</ele>
        <time>2019-07-11T07:46:29Z</time>
      </trkpt>
      <trkpt lat="39.4403610" lon="-7.8559930">
        <ele>286.0</ele>
        <time>2019-07-11T07:46:33Z</time>
      </trkpt>
      <trkpt lat="39.4403500" lon="-7.8562810">
        <ele>286.2</ele>
        <time>2019-07-11T07:46:37Z</time>
      </trkpt>
      <trkpt lat="39.4403600" lon="-7.8568430">
        <ele>286.4</ele>
        <time>2019-07-11T07:46:45Z</time>
      </trkpt>
      <trkpt lat="39.4404110" lon="-7.8573990">
        <ele>286.8</ele>
        <time>2019-07-11T07:46:53Z</time>
      </trkpt>
      <trkpt lat="39.4405040" lon="-7.8581100">
        <ele>286.4</ele>
        <time>2019-07-11T07:47:03Z</time>
      </trkpt>
      <trkpt lat="39.4405150" lon="-7.8581810">
        <ele>286.4</ele>
        <time>2019-07-11T07:47:04Z</time>
      </trkpt>
      <trkpt lat="39.4405720" lon="-7.8586070">
        <ele>286.4</ele>
        <time>2019-07-11T07:47:10Z</time>
      </trkpt>
      <trkpt lat="39.4406010" lon="-7.8588140">
        <ele>286.2</ele>
        <time>2019-07-11T07:47:13Z</time>
      </trkpt>
      <trkpt lat="39.4406650" lon="-7.8593050">
        <ele>285.8</ele>
        <time>2019-07-11T07:47:20Z</time>
      </trkpt>
      <trkpt lat="39.4406760" lon="-7.8593760">
        <ele>285.8</ele>
        <time>2019-07-11T07:47:21Z</time>
      </trkpt>
      <trkpt lat="39.4407240" lon="-7.8597340">
        <ele>285.4</ele>
        <time>2019-07-11T07:47:26Z</time>
      </trkpt>
      <trkpt lat="39.4407720" lon="-7.8600250">
        <ele>284.8</ele>
        <time>2019-07-11T07:47:30Z</time>
      </trkpt>
      <trkpt lat="39.4407830" lon="-7.8601000">
        <ele>284.6</ele>
        <time>2019-07-11T07:47:31Z</time>
      </trkpt>
      <trkpt lat="39.4408110" lon="-7.8603350">
        <ele>284.4</ele>
        <time>2019-07-11T07:47:34Z</time>
      </trkpt>
      <trkpt lat="39.4408690" lon="-7.8607500">
        <ele>284.2</ele>
        <time>2019-07-11T07:47:39Z</time>
      </trkpt>
      <trkpt lat="39.4409500" lon="-7.8613510">
        <ele>283.8</ele>
        <time>2019-07-11T07:47:46Z</time>
      </trkpt>
      <trkpt lat="39.4409780" lon="-7.8615180">
        <ele>283.6</ele>
        <time>2019-07-11T07:47:48Z</time>
      </trkpt>
      <trkpt lat="39.4410280" lon="-7.8619170">
        <ele>283.4</ele>
        <time>2019-07-11T07:47:53Z</time>
      </trkpt>
      <trkpt lat="39.4410520" lon="-7.8620670">
        <ele>283.4</ele>
        <time>2019-07-11T07:47:55Z</time>
      </trkpt>
      <trkpt lat="39.4410840" lon="-7.8622890">
        <ele>283.6</ele>
        <time>2019-07-11T07:47:58Z</time>
      </trkpt>
      <trkpt lat="39.4411150" lon="-7.8625100">
        <ele>283.6</ele>
        <time>2019-07-11T07:48:01Z</time>
      </trkpt>
      <trkpt lat="39.4411520" lon="-7.8627320">
        <ele>283.8</ele>
        <time>2019-07-11T07:48:04Z</time>
      </trkpt>
      <trkpt lat="39.4411720" lon="-7.8628810">
        <ele>284.0</ele>
        <time>2019-07-11T07:48:06Z</time>
      </trkpt>
      <trkpt lat="39.4412230" lon="-7.8632490">
        <ele>284.2</ele>
        <time>2019-07-11T07:48:11Z</time>
      </trkpt>
      <trkpt lat="39.4412550" lon="-7.8634700">
        <ele>284.4</ele>
        <time>2019-07-11T07:48:14Z</time>
      </trkpt>
      <trkpt lat="39.4413380" lon="-7.8640610">
        <ele>284.8</ele>
        <time>2019-07-11T07:48:22Z</time>
      </trkpt>
      <trkpt lat="39.4413600" lon="-7.8642080">
        <ele>285.0</ele>
        <time>2019-07-11T07:48:24Z</time>
      </trkpt>
      <trkpt lat="39.4414370" lon="-7.8647840">
        <ele>285.0</ele>
        <time>2019-07-11T07:48:32Z</time>
      </trkpt>
      <trkpt lat="39.4415180" lon="-7.8654130">
        <ele>285.4</ele>
        <time>2019-07-11T07:48:41Z</time>
      </trkpt>
      <trkpt lat="39.4415960" lon="-7.8659850">
        <ele>285.6</ele>
        <time>2019-07-11T07:48:49Z</time>
      </trkpt>
      <trkpt lat="39.4416990" lon="-7.8667110">
        <ele>285.8</ele>
        <time>2019-07-11T07:48:59Z</time>
      </trkpt>
      <trkpt lat="39.4417930" lon="-7.8674040">
        <ele>285.8</ele>
        <time>2019-07-11T07:49:08Z</time>
      </trkpt>
      <trkpt lat="39.4418050" lon="-7.8674800">
        <ele>285.8</ele>
        <time>2019-07-11T07:49:09Z</time>
      </trkpt>
      <trkpt lat="39.4418920" lon="-7.8681090">
        <ele>285.4</ele>
        <time>2019-07-11T07:49:17Z</time>
      </trkpt>
      <trkpt lat="39.4419690" lon="-7.8686680">
        <ele>285.6</ele>
        <time>2019-07-11T07:49:24Z</time>
      </trkpt>
      <trkpt lat="39.4419910" lon="-7.8688190">
        <ele>285.6</ele>
        <time>2019-07-11T07:49:26Z</time>
      </trkpt>
      <trkpt lat="39.4420150" lon="-7.8689630">
        <ele>285.4</ele>
        <time>2019-07-11T07:49:28Z</time>
      </trkpt>
      <trkpt lat="39.4420350" lon="-7.8691060">
        <ele>285.2</ele>
        <time>2019-07-11T07:49:30Z</time>
      </trkpt>
      <trkpt lat="39.4421010" lon="-7.8695540">
        <ele>285.0</ele>
        <time>2019-07-11T07:49:36Z</time>
      </trkpt>
      <trkpt lat="39.4421680" lon="-7.8700250">
        <ele>284.4</ele>
        <time>2019-07-11T07:49:42Z</time>
      </trkpt>
      <trkpt lat="39.4422170" lon="-7.8703370">
        <ele>284.4</ele>
        <time>2019-07-11T07:49:46Z</time>
      </trkpt>
      <trkpt lat="39.4422510" lon="-7.8705640">
        <ele>284.6</ele>
        <time>2019-07-11T07:49:49Z</time>
      </trkpt>
      <trkpt lat="39.4422950" lon="-7.8708610">
        <ele>284.4</ele>
        <time>2019-07-11T07:49:53Z</time>
      </trkpt>
      <trkpt lat="39.4423220" lon="-7.8710070">
        <ele>284.8</ele>
        <time>2019-07-11T07:49:55Z</time>
      </trkpt>
      <trkpt lat="39.4424220" lon="-7.8714390">
        <ele>284.6</ele>
        <time>2019-07-11T07:50:01Z</time>
      </trkpt>
      <trkpt lat="39.4426000" lon="-7.8720360">
        <ele>284.6</ele>
        <time>2019-07-11T07:50:10Z</time>
      </trkpt>
      <trkpt lat="39.4427120" lon="-7.8723560">
        <ele>284.8</ele>
        <time>2019-07-11T07:50:15Z</time>
      </trkpt>
      <trkpt lat="39.4428120" lon="-7.8725950">
        <ele>285.2</ele>
        <time>2019-07-11T07:50:19Z</time>
      </trkpt>
      <trkpt lat="39.4428370" lon="-7.8726530">
        <ele>285.4</ele>
        <time>2019-07-11T07:50:20Z</time>
      </trkpt>
      <trkpt lat="39.4429930" lon="-7.8729980">
        <ele>286.0</ele>
        <time>2019-07-11T07:50:26Z</time>
      </trkpt>
      <trkpt lat="39.4430480" lon="-7.8731120">
        <ele>286.2</ele>
        <time>2019-07-11T07:50:28Z</time>
      </trkpt>
      <trkpt lat="39.4431330" lon="-7.8732820">
        <ele>286.4</ele>
        <time>2019-07-11T07:50:31Z</time>
      </trkpt>
      <trkpt lat="39.4432350" lon="-7.8735120">
        <ele>286.8</ele>
        <time>2019-07-11T07:50:35Z</time>
      </trkpt>
      <trkpt lat="39.4434820" lon="-7.8740180">
        <ele>287.0</ele>
        <time>2019-07-11T07:50:44Z</time>
      </trkpt>
      <trkpt lat="39.4437530" lon="-7.8745730">
        <ele>287.4</ele>
        <time>2019-07-11T07:50:54Z</time>
      </trkpt>
      <trkpt lat="39.4437800" lon="-7.8746270">
        <ele>287.4</ele>
        <time>2019-07-11T07:50:55Z</time>
      </trkpt>
      <trkpt lat="39.4439610" lon="-7.8750120">
        <ele>288.0</ele>
        <time>2019-07-11T07:51:02Z</time>
      </trkpt>
      <trkpt lat="39.4440840" lon="-7.8752870">
        <ele>288.4</ele>
        <time>2019-07-11T07:51:07Z</time>
      </trkpt>
      <trkpt lat="39.4441780" lon="-7.8755080">
        <ele>288.8</ele>
        <time>2019-07-11T07:51:11Z</time>
      </trkpt>
      <trkpt lat="39.4443950" lon="-7.8760850">
        <ele>289.4</ele>
        <time>2019-07-11T07:51:21Z</time>
      </trkpt>
      <trkpt lat="39.4444730" lon="-7.8763260">
        <ele>289.4</ele>
        <time>2019-07-11T07:51:25Z</time>
      </trkpt>
      <trkpt lat="39.4445360" lon="-7.8765810">
        <ele>289.8</ele>
        <time>2019-07-11T07:51:29Z</time>
      </trkpt>
      <trkpt lat="39.4446450" lon="-7.8770380">
        <ele>289.8</ele>
        <time>2019-07-11T07:51:36Z</time>
      </trkpt>
      <trkpt lat="39.4446850" lon="-7.8772430">
        <ele>289.6</ele>
        <time>2019-07-11T07:51:39Z</time>
      </trkpt>
      <trkpt lat="39.4447630" lon="-7.8777540">
        <ele>289.4</ele>
        <time>2019-07-11T07:51:46Z</time>
      </trkpt>
      <trkpt lat="39.4448390" lon="-7.8783760">
        <ele>289.0</ele>
        <time>2019-07-11T07:51:54Z</time>
      </trkpt>
      <trkpt lat="39.4449170" lon="-7.8789880">
        <ele>289.2</ele>
        <time>2019-07-11T07:52:02Z</time>
      </trkpt>
      <trkpt lat="39.4449880" lon="-7.8795100">
        <ele>288.8</ele>
        <time>2019-07-11T07:52:09Z</time>
      </trkpt>
      <trkpt lat="39.4450840" lon="-7.8802770">
        <ele>288.8</ele>
        <time>2019-07-11T07:52:19Z</time>
      </trkpt>
      <trkpt lat="39.4451770" lon="-7.8810020">
        <ele>288.6</ele>
        <time>2019-07-11T07:52:28Z</time>
      </trkpt>
      <trkpt lat="39.4451870" lon="-7.8810810">
        <ele>288.6</ele>
        <time>2019-07-11T07:52:29Z</time>
      </trkpt>
      <trkpt lat="39.4452660" lon="-7.8817130">
        <ele>288.6</ele>
        <time>2019-07-11T07:52:37Z</time>
      </trkpt>
      <trkpt lat="39.4453130" lon="-7.8821080">
        <ele>288.4</ele>
        <time>2019-07-11T07:52:42Z</time>
      </trkpt>
      <trkpt lat="39.4453350" lon="-7.8822670">
        <ele>288.4</ele>
        <time>2019-07-11T07:52:44Z</time>
      </trkpt>
      <trkpt lat="39.4454040" lon="-7.8828270">
        <ele>288.4</ele>
        <time>2019-07-11T07:52:51Z</time>
      </trkpt>
      <trkpt lat="39.4454720" lon="-7.8833730">
        <ele>288.0</ele>
        <time>2019-07-11T07:52:58Z</time>
      </trkpt>
      <trkpt lat="39.4455430" lon="-7.8839460">
        <ele>288.0</ele>
        <time>2019-07-11T07:53:05Z</time>
      </trkpt>
      <trkpt lat="39.4456300" lon="-7.8846670">
        <ele>288.2</ele>
        <time>2019-07-11T07:53:14Z</time>
      </trkpt>
      <trkpt lat="39.4456420" lon="-7.8847450">
        <ele>288.2</ele>
        <time>2019-07-11T07:53:15Z</time>
      </trkpt>
      <trkpt lat="39.4457300" lon="-7.8854510">
        <ele>288.2</ele>
        <time>2019-07-11T07:53:24Z</time>
      </trkpt>
      <trkpt lat="39.4458160" lon="-7.8861600">
        <ele>287.4</ele>
        <time>2019-07-11T07:53:33Z</time>
      </trkpt>
      <trkpt lat="39.4459110" lon="-7.8868800">
        <ele>287.4</ele>
        <time>2019-07-11T07:53:42Z</time>
      </trkpt>
      <trkpt lat="39.4459400" lon="-7.8871220">
        <ele>287.4</ele>
        <time>2019-07-11T07:53:45Z</time>
      </trkpt>
      <trkpt lat="39.4460340" lon="-7.8878390">
        <ele>287.0</ele>
        <time>2019-07-11T07:53:54Z</time>
      </trkpt>
      <trkpt lat="39.4461260" lon="-7.8885370">
        <ele>287.0</ele>
        <time>2019-07-11T07:54:03Z</time>
      </trkpt>
      <trkpt lat="39.4461860" lon="-7.8890710">
        <ele>286.8</ele>
        <time>2019-07-11T07:54:10Z</time>
      </trkpt>
      <trkpt lat="39.4462740" lon="-7.8897750">
        <ele>286.6</ele>
        <time>2019-07-11T07:54:19Z</time>
      </trkpt>
      <trkpt lat="39.4463580" lon="-7.8904630">
        <ele>286.4</ele>
        <time>2019-07-11T07:54:28Z</time>
      </trkpt>
      <trkpt lat="39.4463670" lon="-7.8905400">
        <ele>286.4</ele>
        <time>2019-07-11T07:54:29Z</time>
      </trkpt>
      <trkpt lat="39.4464580" lon="-7.8912300">
        <ele>286.2</ele>
        <time>2019-07-11T07:54:38Z</time>
      </trkpt>
      <trkpt lat="39.4465150" lon="-7.8916750">
        <ele>286.2</ele>
        <time>2019-07-11T07:54:44Z</time>
      </trkpt>
      <trkpt lat="39.4465240" lon="-7.8917460">
        <ele>286.2</ele>
        <time>2019-07-11T07:54:45Z</time>
      </trkpt>
      <trkpt lat="39.4465500" lon="-7.8919660">
        <ele>286.2</ele>
        <time>2019-07-11T07:54:48Z</time>
      </trkpt>
      <trkpt lat="39.4465700" lon="-7.8921190">
        <ele>286.4</ele>
        <time>2019-07-11T07:54:50Z</time>
      </trkpt>
      <trkpt lat="39.4466100" lon="-7.8924290">
        <ele>286.4</ele>
        <time>2019-07-11T07:54:54Z</time>
      </trkpt>
      <trkpt lat="39.4466990" lon="-7.8931730">
        <ele>286.4</ele>
        <time>2019-07-11T07:55:04Z</time>
      </trkpt>
      <trkpt lat="39.4467050" lon="-7.8932440">
        <ele>286.4</ele>
        <time>2019-07-11T07:55:05Z</time>
      </trkpt>
      <trkpt lat="39.4467720" lon="-7.8937250">
        <ele>286.6</ele>
        <time>2019-07-11T07:55:12Z</time>
      </trkpt>
      <trkpt lat="39.4468310" lon="-7.8941950">
        <ele>287.2</ele>
        <time>2019-07-11T07:55:19Z</time>
      </trkpt>
      <trkpt lat="39.4468550" lon="-7.8943940">
        <ele>287.6</ele>
        <time>2019-07-11T07:55:22Z</time>
      </trkpt>
      <trkpt lat="39.4468930" lon="-7.8947200">
        <ele>288.0</ele>
        <time>2019-07-11T07:55:27Z</time>
      </trkpt>
      <trkpt lat="39.4469120" lon="-7.8948500">
        <ele>288.0</ele>
        <time>2019-07-11T07:55:29Z</time>
      </trkpt>
      <trkpt lat="39.4469790" lon="-7.8953620">
        <ele>288.8</ele>
        <time>2019-07-11T07:55:37Z</time>
      </trkpt>
      <trkpt lat="39.4469940" lon="-7.8954850">
        <ele>288.8</ele>
        <time>2019-07-11T07:55:39Z</time>
      </trkpt>
      <trkpt lat="39.4470550" lon="-7.8959070">
        <ele>289.2</ele>
        <time>2019-07-11T07:55:46Z</time>
      </trkpt>
      <trkpt lat="39.4470970" lon="-7.8961260">
        <ele>289.4</ele>
        <time>2019-07-11T07:55:51Z</time>
      </trkpt>
      <trkpt lat="39.4470970" lon="-7.8961340">
        <ele>289.4</ele>
        <time>2019-07-11T07:55:53Z</time>
      </trkpt>
      <trkpt lat="39.4471040" lon="-7.8961670">
        <ele>289.2</ele>
        <time>2019-07-11T07:56:01Z</time>
      </trkpt>
      <trkpt lat="39.4471080" lon="-7.8961920">
        <ele>289.2</ele>
        <time>2019-07-11T07:56:02Z</time>
      </trkpt>
      <trkpt lat="39.4471280" lon="-7.8962780">
        <ele>289.4</ele>
        <time>2019-07-11T07:56:05Z</time>
      </trkpt>
      <trkpt lat="39.4471560" lon="-7.8963870">
        <ele>289.4</ele>
        <time>2019-07-11T07:56:08Z</time>
      </trkpt>
      <trkpt lat="39.4471780" lon="-7.8964670">
        <ele>289.4</ele>
        <time>2019-07-11T07:56:10Z</time>
      </trkpt>
      <trkpt lat="39.4472360" lon="-7.8966960">
        <ele>289.6</ele>
        <time>2019-07-11T07:56:15Z</time>
      </trkpt>
      <trkpt lat="39.4473720" lon="-7.8971160">
        <ele>289.6</ele>
        <time>2019-07-11T07:56:23Z</time>
      </trkpt>
      <trkpt lat="39.4475660" lon="-7.8976270">
        <ele>289.4</ele>
        <time>2019-07-11T07:56:32Z</time>
      </trkpt>
      <trkpt lat="39.4477610" lon="-7.8980540">
        <ele>288.8</ele>
        <time>2019-07-11T07:56:39Z</time>
      </trkpt>
      <trkpt lat="39.4479280" lon="-7.8983660">
        <ele>288.8</ele>
        <time>2019-07-11T07:56:44Z</time>
      </trkpt>
      <trkpt lat="39.4479620" lon="-7.8984300">
        <ele>288.6</ele>
        <time>2019-07-11T07:56:45Z</time>
      </trkpt>
      <trkpt lat="39.4480740" lon="-7.8986180">
        <ele>288.0</ele>
        <time>2019-07-11T07:56:48Z</time>
      </trkpt>
      <trkpt lat="39.4481940" lon="-7.8988120">
        <ele>287.6</ele>
        <time>2019-07-11T07:56:51Z</time>
      </trkpt>
      <trkpt lat="39.4484440" lon="-7.8992260">
        <ele>286.6</ele>
        <time>2019-07-11T07:56:57Z</time>
      </trkpt>
      <trkpt lat="39.4484880" lon="-7.8992960">
        <ele>286.4</ele>
        <time>2019-07-11T07:56:58Z</time>
      </trkpt>
      <trkpt lat="39.4485320" lon="-7.8993670">
        <ele>286.2</ele>
        <time>2019-07-11T07:56:59Z</time>
      </trkpt>
      <trkpt lat="39.4486690" lon="-7.8995860">
        <ele>285.4</ele>
        <time>2019-07-11T07:57:02Z</time>
      </trkpt>
      <trkpt lat="39.4489030" lon="-7.8999680">
        <ele>284.2</ele>
        <time>2019-07-11T07:57:07Z</time>
      </trkpt>
      <trkpt lat="39.4490000" lon="-7.9001250">
        <ele>283.6</ele>
        <time>2019-07-11T07:57:09Z</time>
      </trkpt>
      <trkpt lat="39.4490970" lon="-7.9002860">
        <ele>283.0</ele>
        <time>2019-07-11T07:57:11Z</time>
      </trkpt>
      <trkpt lat="39.4492380" lon="-7.9005460">
        <ele>281.8</ele>
        <time>2019-07-11T07:57:14Z</time>
      </trkpt>
      <trkpt lat="39.4493710" lon="-7.9008260">
        <ele>281.2</ele>
        <time>2019-07-11T07:57:17Z</time>
      </trkpt>
      <trkpt lat="39.4494140" lon="-7.9009220">
        <ele>281.0</ele>
        <time>2019-07-11T07:57:18Z</time>
      </trkpt>
      <trkpt lat="39.4495370" lon="-7.9012180">
        <ele>279.8</ele>
        <time>2019-07-11T07:57:21Z</time>
      </trkpt>
      <trkpt lat="39.4496580" lon="-7.9015200">
        <ele>278.6</ele>
        <time>2019-07-11T07:57:24Z</time>
      </trkpt>
      <trkpt lat="39.4497260" lon="-7.9017300">
        <ele>277.8</ele>
        <time>2019-07-11T07:57:26Z</time>
      </trkpt>
      <trkpt lat="39.4497590" lon="-7.9018370">
        <ele>277.4</ele>
        <time>2019-07-11T07:57:27Z</time>
      </trkpt>
      <trkpt lat="39.4498820" lon="-7.9022700">
        <ele>276.2</ele>
        <time>2019-07-11T07:57:31Z</time>
      </trkpt>
      <trkpt lat="39.4499580" lon="-7.9026050">
        <ele>275.8</ele>
        <time>2019-07-11T07:57:34Z</time>
      </trkpt>
      <trkpt lat="39.4500220" lon="-7.9029480">
        <ele>275.6</ele>
        <time>2019-07-11T07:57:37Z</time>
      </trkpt>
      <trkpt lat="39.4500570" lon="-7.9031790">
        <ele>275.0</ele>
        <time>2019-07-11T07:57:39Z</time>
      </trkpt>
      <trkpt lat="39.4500990" lon="-7.9035270">
        <ele>273.8</ele>
        <time>2019-07-11T07:57:42Z</time>
      </trkpt>
      <trkpt lat="39.4501320" lon="-7.9040010">
        <ele>272.6</ele>
        <time>2019-07-11T07:57:46Z</time>
      </trkpt>
      <trkpt lat="39.4501390" lon="-7.9044830">
        <ele>271.8</ele>
        <time>2019-07-11T07:57:50Z</time>
      </trkpt>
      <trkpt lat="39.4501380" lon="-7.9046050">
        <ele>271.4</ele>
        <time>2019-07-11T07:57:51Z</time>
      </trkpt>
      <trkpt lat="39.4501270" lon="-7.9050940">
        <ele>270.2</ele>
        <time>2019-07-11T07:57:55Z</time>
      </trkpt>
      <trkpt lat="39.4501190" lon="-7.9055760">
        <ele>269.2</ele>
        <time>2019-07-11T07:57:59Z</time>
      </trkpt>
      <trkpt lat="39.4501180" lon="-7.9056960">
        <ele>269.0</ele>
        <time>2019-07-11T07:58:00Z</time>
      </trkpt>
      <trkpt lat="39.4501250" lon="-7.9062920">
        <ele>268.2</ele>
        <time>2019-07-11T07:58:05Z</time>
      </trkpt>
      <trkpt lat="39.4501290" lon="-7.9067720">
        <ele>267.0</ele>
        <time>2019-07-11T07:58:09Z</time>
      </trkpt>
      <trkpt lat="39.4501270" lon="-7.9071340">
        <ele>265.8</ele>
        <time>2019-07-11T07:58:12Z</time>
      </trkpt>
      <trkpt lat="39.4501300" lon="-7.9076240">
        <ele>264.8</ele>
        <time>2019-07-11T07:58:16Z</time>
      </trkpt>
      <trkpt lat="39.4501300" lon="-7.9078690">
        <ele>264.4</ele>
        <time>2019-07-11T07:58:18Z</time>
      </trkpt>
      <trkpt lat="39.4501290" lon="-7.9081150">
        <ele>263.8</ele>
        <time>2019-07-11T07:58:20Z</time>
      </trkpt>
      <trkpt lat="39.4501300" lon="-7.9087290">
        <ele>262.8</ele>
        <time>2019-07-11T07:58:25Z</time>
      </trkpt>
      <trkpt lat="39.4501300" lon="-7.9090910">
        <ele>261.6</ele>
        <time>2019-07-11T07:58:28Z</time>
      </trkpt>
      <trkpt lat="39.4501320" lon="-7.9093310">
        <ele>260.4</ele>
        <time>2019-07-11T07:58:30Z</time>
      </trkpt>
      <trkpt lat="39.4501310" lon="-7.9096860">
        <ele>259.2</ele>
        <time>2019-07-11T07:58:33Z</time>
      </trkpt>
      <trkpt lat="39.4501300" lon="-7.9102750">
        <ele>258.2</ele>
        <time>2019-07-11T07:58:38Z</time>
      </trkpt>
      <trkpt lat="39.4501320" lon="-7.9105080">
        <ele>257.6</ele>
        <time>2019-07-11T07:58:40Z</time>
      </trkpt>
      <trkpt lat="39.4501330" lon="-7.9107410">
        <ele>257.0</ele>
        <time>2019-07-11T07:58:42Z</time>
      </trkpt>
      <trkpt lat="39.4501360" lon="-7.9113160">
        <ele>256.0</ele>
        <time>2019-07-11T07:58:47Z</time>
      </trkpt>
      <trkpt lat="39.4501370" lon="-7.9115440">
        <ele>255.8</ele>
        <time>2019-07-11T07:58:49Z</time>
      </trkpt>
      <trkpt lat="39.4501350" lon="-7.9118830">
        <ele>255.0</ele>
        <time>2019-07-11T07:58:52Z</time>
      </trkpt>
      <trkpt lat="39.4501290" lon="-7.9122210">
        <ele>253.8</ele>
        <time>2019-07-11T07:58:55Z</time>
      </trkpt>
      <trkpt lat="39.4501280" lon="-7.9124420">
        <ele>253.4</ele>
        <time>2019-07-11T07:58:57Z</time>
      </trkpt>
      <trkpt lat="39.4501330" lon="-7.9127750">
        <ele>252.8</ele>
        <time>2019-07-11T07:59:00Z</time>
      </trkpt>
      <trkpt lat="39.4501330" lon="-7.9133270">
        <ele>251.8</ele>
        <time>2019-07-11T07:59:05Z</time>
      </trkpt>
      <trkpt lat="39.4501310" lon="-7.9140910">
        <ele>250.8</ele>
        <time>2019-07-11T07:59:12Z</time>
      </trkpt>
      <trkpt lat="39.4501290" lon="-7.9143060">
        <ele>250.2</ele>
        <time>2019-07-11T07:59:14Z</time>
      </trkpt>
      <trkpt lat="39.4501290" lon="-7.9145190">
        <ele>249.6</ele>
        <time>2019-07-11T07:59:16Z</time>
      </trkpt>
      <trkpt lat="39.4501340" lon="-7.9151460">
        <ele>248.8</ele>
        <time>2019-07-11T07:59:22Z</time>
      </trkpt>
      <trkpt lat="39.4501310" lon="-7.9154510">
        <ele>248.0</ele>
        <time>2019-07-11T07:59:25Z</time>
      </trkpt>
      <trkpt lat="39.4501340" lon="-7.9155520">
        <ele>247.6</ele>
        <time>2019-07-11T07:59:26Z</time>
      </trkpt>
      <trkpt lat="39.4501350" lon="-7.9160440">
        <ele>247.0</ele>
        <time>2019-07-11T07:59:31Z</time>
      </trkpt>
      <trkpt lat="39.4501350" lon="-7.9161420">
        <ele>246.8</ele>
        <time>2019-07-11T07:59:32Z</time>
      </trkpt>
      <trkpt lat="39.4501340" lon="-7.9162400">
        <ele>246.6</ele>
        <time>2019-07-11T07:59:33Z</time>
      </trkpt>
      <trkpt lat="39.4501370" lon="-7.9167200">
        <ele>245.6</ele>
        <time>2019-07-11T07:59:38Z</time>
      </trkpt>
      <trkpt lat="39.4501360" lon="-7.9170060">
        <ele>245.2</ele>
        <time>2019-07-11T07:59:41Z</time>
      </trkpt>
      <trkpt lat="39.4501330" lon="-7.9172900">
        <ele>244.8</ele>
        <time>2019-07-11T07:59:44Z</time>
      </trkpt>
      <trkpt lat="39.4501350" lon="-7.9175760">
        <ele>244.6</ele>
        <time>2019-07-11T07:59:47Z</time>
      </trkpt>
      <trkpt lat="39.4501380" lon="-7.9179590">
        <ele>244.0</ele>
        <time>2019-07-11T07:59:51Z</time>
      </trkpt>
      <trkpt lat="39.4501350" lon="-7.9181510">
        <ele>243.4</ele>
        <time>2019-07-11T07:59:53Z</time>
      </trkpt>
      <trkpt lat="39.4501320" lon="-7.9186380">
        <ele>242.4</ele>
        <time>2019-07-11T07:59:58Z</time>
      </trkpt>
      <trkpt lat="39.4501340" lon="-7.9190320">
        <ele>241.8</ele>
        <time>2019-07-11T08:00:02Z</time>
      </trkpt>
      <trkpt lat="39.4501340" lon="-7.9193270">
        <ele>241.2</ele>
        <time>2019-07-11T08:00:05Z</time>
      </trkpt>
      <trkpt lat="39.4501360" lon="-7.9198310">
        <ele>240.0</ele>
        <time>2019-07-11T08:00:10Z</time>
      </trkpt>
      <trkpt lat="39.4501390" lon="-7.9201460">
        <ele>239.2</ele>
        <time>2019-07-11T08:00:13Z</time>
      </trkpt>
      <trkpt lat="39.4501470" lon="-7.9203630">
        <ele>239.0</ele>
        <time>2019-07-11T08:00:15Z</time>
      </trkpt>
      <trkpt lat="39.4501870" lon="-7.9208170">
        <ele>238.0</ele>
        <time>2019-07-11T08:00:19Z</time>
      </trkpt>
      <trkpt lat="39.4502020" lon="-7.9209350">
        <ele>237.4</ele>
        <time>2019-07-11T08:00:20Z</time>
      </trkpt>
      <trkpt lat="39.4502370" lon="-7.9211750">
        <ele>236.4</ele>
        <time>2019-07-11T08:00:22Z</time>
      </trkpt>
      <trkpt lat="39.4502920" lon="-7.9215430">
        <ele>235.4</ele>
        <time>2019-07-11T08:00:25Z</time>
      </trkpt>
      <trkpt lat="39.4503340" lon="-7.9217920">
        <ele>234.4</ele>
        <time>2019-07-11T08:00:27Z</time>
      </trkpt>
      <trkpt lat="39.4503600" lon="-7.9219170">
        <ele>234.0</ele>
        <time>2019-07-11T08:00:28Z</time>
      </trkpt>
      <trkpt lat="39.4504810" lon="-7.9224130">
        <ele>232.6</ele>
        <time>2019-07-11T08:00:32Z</time>
      </trkpt>
      <trkpt lat="39.4505520" lon="-7.9226600">
        <ele>232.0</ele>
        <time>2019-07-11T08:00:34Z</time>
      </trkpt>
      <trkpt lat="39.4506260" lon="-7.9229110">
        <ele>231.4</ele>
        <time>2019-07-11T08:00:36Z</time>
      </trkpt>
      <trkpt lat="39.4506980" lon="-7.9231670">
        <ele>229.8</ele>
        <time>2019-07-11T08:00:38Z</time>
      </trkpt>
      <trkpt lat="39.4508550" lon="-7.9236830">
        <ele>228.8</ele>
        <time>2019-07-11T08:00:42Z</time>
      </trkpt>
      <trkpt lat="39.4508950" lon="-7.9238130">
        <ele>228.2</ele>
        <time>2019-07-11T08:00:43Z</time>
      </trkpt>
      <trkpt lat="39.4509350" lon="-7.9239430">
        <ele>227.6</ele>
        <time>2019-07-11T08:00:44Z</time>
      </trkpt>
      <trkpt lat="39.4511480" lon="-7.9245590">
        <ele>226.6</ele>
        <time>2019-07-11T08:00:49Z</time>
      </trkpt>
      <trkpt lat="39.4511900" lon="-7.9246760">
        <ele>226.2</ele>
        <time>2019-07-11T08:00:50Z</time>
      </trkpt>
      <trkpt lat="39.4512790" lon="-7.9249020">
        <ele>225.8</ele>
        <time>2019-07-11T08:00:52Z</time>
      </trkpt>
      <trkpt lat="39.4513690" lon="-7.9251140">
        <ele>225.6</ele>
        <time>2019-07-11T08:00:54Z</time>
      </trkpt>
      <trkpt lat="39.4514570" lon="-7.9253120">
        <ele>225.4</ele>
        <time>2019-07-11T08:00:56Z</time>
      </trkpt>
      <trkpt lat="39.4516790" lon="-7.9257270">
        <ele>225.4</ele>
        <time>2019-07-11T08:01:01Z</time>
      </trkpt>
      <trkpt lat="39.4518570" lon="-7.9260570">
        <ele>226.0</ele>
        <time>2019-07-11T08:01:06Z</time>
      </trkpt>
      <trkpt lat="39.4519270" lon="-7.9261700">
        <ele>226.2</ele>
        <time>2019-07-11T08:01:08Z</time>
      </trkpt>
      <trkpt lat="39.4519590" lon="-7.9262260">
        <ele>226.2</ele>
        <time>2019-07-11T08:01:09Z</time>
      </trkpt>
      <trkpt lat="39.4520210" lon="-7.9263360">
        <ele>226.4</ele>
        <time>2019-07-11T08:01:11Z</time>
      </trkpt>
      <trkpt lat="39.4520780" lon="-7.9264430">
        <ele>226.6</ele>
        <time>2019-07-11T08:01:13Z</time>
      </trkpt>
      <trkpt lat="39.4521060" lon="-7.9264970">
        <ele>226.6</ele>
        <time>2019-07-11T08:01:14Z</time>
      </trkpt>
      <trkpt lat="39.4523310" lon="-7.9268980">
        <ele>227.4</ele>
        <time>2019-07-11T08:01:22Z</time>
      </trkpt>
      <trkpt lat="39.4524080" lon="-7.9270400">
        <ele>227.4</ele>
        <time>2019-07-11T08:01:25Z</time>
      </trkpt>
      <trkpt lat="39.4524340" lon="-7.9270870">
        <ele>227.6</ele>
        <time>2019-07-11T08:01:26Z</time>
      </trkpt>
      <trkpt lat="39.4525390" lon="-7.9272760">
        <ele>228.0</ele>
        <time>2019-07-11T08:01:30Z</time>
      </trkpt>
      <trkpt lat="39.4526450" lon="-7.9274630">
        <ele>228.2</ele>
        <time>2019-07-11T08:01:34Z</time>
      </trkpt>
      <trkpt lat="39.4527000" lon="-7.9275530">
        <ele>228.6</ele>
        <time>2019-07-11T08:01:36Z</time>
      </trkpt>
      <trkpt lat="39.4527830" lon="-7.9276870">
        <ele>229.0</ele>
        <time>2019-07-11T08:01:39Z</time>
      </trkpt>
      <trkpt lat="39.4528110" lon="-7.9277310">
        <ele>229.2</ele>
        <time>2019-07-11T08:01:40Z</time>
      </trkpt>
      <trkpt lat="39.4530130" lon="-7.9280260">
        <ele>230.0</ele>
        <time>2019-07-11T08:01:47Z</time>
      </trkpt>
      <trkpt lat="39.4531310" lon="-7.9281850">
        <ele>230.6</ele>
        <time>2019-07-11T08:01:51Z</time>
      </trkpt>
      <trkpt lat="39.4531930" lon="-7.9282590">
        <ele>231.0</ele>
        <time>2019-07-11T08:01:53Z</time>
      </trkpt>
      <trkpt lat="39.4534130" lon="-7.9285150">
        <ele>232.0</ele>
        <time>2019-07-11T08:02:00Z</time>
      </trkpt>
      <trkpt lat="39.4534450" lon="-7.9285470">
        <ele>232.2</ele>
        <time>2019-07-11T08:02:01Z</time>
      </trkpt>
      <trkpt lat="39.4536310" lon="-7.9287380">
        <ele>233.2</ele>
        <time>2019-07-11T08:02:07Z</time>
      </trkpt>
      <trkpt lat="39.4536600" lon="-7.9287690">
        <ele>233.4</ele>
        <time>2019-07-11T08:02:08Z</time>
      </trkpt>
      <trkpt lat="39.4538360" lon="-7.9289430">
        <ele>234.4</ele>
        <time>2019-07-11T08:02:14Z</time>
      </trkpt>
      <trkpt lat="39.4538670" lon="-7.9289700">
        <ele>234.6</ele>
        <time>2019-07-11T08:02:15Z</time>
      </trkpt>
      <trkpt lat="39.4540430" lon="-7.9291340">
        <ele>235.4</ele>
        <time>2019-07-11T08:02:21Z</time>
      </trkpt>
      <trkpt lat="39.4541050" lon="-7.9291850">
        <ele>235.8</ele>
        <time>2019-07-11T08:02:23Z</time>
      </trkpt>
      <trkpt lat="39.4542890" lon="-7.9293350">
        <ele>236.4</ele>
        <time>2019-07-11T08:02:29Z</time>
      </trkpt>
      <trkpt lat="39.4544110" lon="-7.9294320">
        <ele>237.2</ele>
        <time>2019-07-11T08:02:33Z</time>
      </trkpt>
      <trkpt lat="39.4544710" lon="-7.9294760">
        <ele>237.4</ele>
        <time>2019-07-11T08:02:35Z</time>
      </trkpt>
      <trkpt lat="39.4546480" lon="-7.9296070">
        <ele>238.4</ele>
        <time>2019-07-11T08:02:41Z</time>
      </trkpt>
      <trkpt lat="39.4546770" lon="-7.9296320">
        <ele>238.6</ele>
        <time>2019-07-11T08:02:42Z</time>
      </trkpt>
      <trkpt lat="39.4548550" lon="-7.9297600">
        <ele>239.2</ele>
        <time>2019-07-11T08:02:48Z</time>
      </trkpt>
      <trkpt lat="39.4549720" lon="-7.9298530">
        <ele>239.8</ele>
        <time>2019-07-11T08:02:52Z</time>
      </trkpt>
      <trkpt lat="39.4551240" lon="-7.9299650">
        <ele>240.4</ele>
        <time>2019-07-11T08:02:57Z</time>
      </trkpt>
      <trkpt lat="39.4551830" lon="-7.9300100">
        <ele>240.6</ele>
        <time>2019-07-11T08:02:59Z</time>
      </trkpt>
      <trkpt lat="39.4554400" lon="-7.9302080">
        <ele>241.6</ele>
        <time>2019-07-11T08:03:08Z</time>
      </trkpt>
      <trkpt lat="39.4554690" lon="-7.9302290">
        <ele>241.6</ele>
        <time>2019-07-11T08:03:09Z</time>
      </trkpt>
      <trkpt lat="39.4557130" lon="-7.9303890">
        <ele>242.6</ele>
        <time>2019-07-11T08:03:17Z</time>
      </trkpt>
      <trkpt lat="39.4557460" lon="-7.9304040">
        <ele>242.8</ele>
        <time>2019-07-11T08:03:18Z</time>
      </trkpt>
      <trkpt lat="39.4559760" lon="-7.9305230">
        <ele>243.8</ele>
        <time>2019-07-11T08:03:25Z</time>
      </trkpt>
      <trkpt lat="39.4560080" lon="-7.9305370">
        <ele>243.8</ele>
        <time>2019-07-11T08:03:26Z</time>
      </trkpt>
      <trkpt lat="39.4562940" lon="-7.9305920">
        <ele>244.8</ele>
        <time>2019-07-11T08:03:34Z</time>
      </trkpt>
      <trkpt lat="39.4563320" lon="-7.9305950">
        <ele>245.0</ele>
        <time>2019-07-11T08:03:35Z</time>
      </trkpt>
      <trkpt lat="39.4565920" lon="-7.9306110">
        <ele>245.2</ele>
        <time>2019-07-11T08:03:42Z</time>
      </trkpt>
      <trkpt lat="39.4567380" lon="-7.9306180">
        <ele>245.8</ele>
        <time>2019-07-11T08:03:46Z</time>
      </trkpt>
      <trkpt lat="39.4567750" lon="-7.9306200">
        <ele>245.8</ele>
        <time>2019-07-11T08:03:47Z</time>
      </trkpt>
      <trkpt lat="39.4570340" lon="-7.9306440">
        <ele>246.6</ele>
        <time>2019-07-11T08:03:54Z</time>
      </trkpt>
      <trkpt lat="39.4571700" lon="-7.9306620">
        <ele>247.0</ele>
        <time>2019-07-11T08:03:58Z</time>
      </trkpt>
      <trkpt lat="39.4572350" lon="-7.9306780">
        <ele>247.4</ele>
        <time>2019-07-11T08:04:00Z</time>
      </trkpt>
      <trkpt lat="39.4573570" lon="-7.9307250">
        <ele>248.0</ele>
        <time>2019-07-11T08:04:04Z</time>
      </trkpt>
      <trkpt lat="39.4573880" lon="-7.9307320">
        <ele>248.2</ele>
        <time>2019-07-11T08:04:05Z</time>
      </trkpt>
      <trkpt lat="39.4575710" lon="-7.9307960">
        <ele>249.2</ele>
        <time>2019-07-11T08:04:11Z</time>
      </trkpt>
      <trkpt lat="39.4576280" lon="-7.9308270">
        <ele>249.6</ele>
        <time>2019-07-11T08:04:13Z</time>
      </trkpt>
      <trkpt lat="39.4577100" lon="-7.9308790">
        <ele>250.4</ele>
        <time>2019-07-11T08:04:16Z</time>
      </trkpt>
      <trkpt lat="39.4578050" lon="-7.9309510">
        <ele>251.0</ele>
        <time>2019-07-11T08:04:20Z</time>
      </trkpt>
      <trkpt lat="39.4578760" lon="-7.9310020">
        <ele>251.6</ele>
        <time>2019-07-11T08:04:23Z</time>
      </trkpt>
      <trkpt lat="39.4579690" lon="-7.9310660">
        <ele>252.2</ele>
        <time>2019-07-11T08:04:27Z</time>
      </trkpt>
      <trkpt lat="39.4580180" lon="-7.9311020">
        <ele>252.6</ele>
        <time>2019-07-11T08:04:29Z</time>
      </trkpt>
      <trkpt lat="39.4580810" lon="-7.9311750">
        <ele>253.0</ele>
        <time>2019-07-11T08:04:32Z</time>
      </trkpt>
      <trkpt lat="39.4581960" lon="-7.9312860">
        <ele>253.8</ele>
        <time>2019-07-11T08:04:37Z</time>
      </trkpt>
      <trkpt lat="39.4582740" lon="-7.9313890">
        <ele>254.6</ele>
        <time>2019-07-11T08:04:41Z</time>
      </trkpt>
      <trkpt lat="39.4583140" lon="-7.9314390">
        <ele>254.8</ele>
        <time>2019-07-11T08:04:43Z</time>
      </trkpt>
      <trkpt lat="39.4584320" lon="-7.9315890">
        <ele>255.6</ele>
        <time>2019-07-11T08:04:49Z</time>
      </trkpt>
      <trkpt lat="39.4584660" lon="-7.9316430">
        <ele>256.0</ele>
        <time>2019-07-11T08:04:51Z</time>
      </trkpt>
      <trkpt lat="39.4585410" lon="-7.9317330">
        <ele>257.2</ele>
        <time>2019-07-11T08:04:55Z</time>
      </trkpt>
      <trkpt lat="39.4585780" lon="-7.9317830">
        <ele>257.4</ele>
        <time>2019-07-11T08:04:57Z</time>
      </trkpt>
      <trkpt lat="39.4586720" lon="-7.9318950">
        <ele>258.2</ele>
        <time>2019-07-11T08:05:02Z</time>
      </trkpt>
      <trkpt lat="39.4587350" lon="-7.9319600">
        <ele>259.0</ele>
        <time>2019-07-11T08:05:05Z</time>
      </trkpt>
      <trkpt lat="39.4587790" lon="-7.9320010">
        <ele>259.4</ele>
        <time>2019-07-11T08:05:07Z</time>
      </trkpt>
      <trkpt lat="39.4589030" lon="-7.9320650">
        <ele>260.4</ele>
        <time>2019-07-11T08:05:12Z</time>
      </trkpt>
      <trkpt lat="39.4590670" lon="-7.9320780">
        <ele>261.6</ele>
        <time>2019-07-11T08:05:18Z</time>
      </trkpt>
      <trkpt lat="39.4590930" lon="-7.9320780">
        <ele>261.8</ele>
        <time>2019-07-11T08:05:19Z</time>
      </trkpt>
      <trkpt lat="39.4592180" lon="-7.9320760">
        <ele>262.6</ele>
        <time>2019-07-11T08:05:24Z</time>
      </trkpt>
      <trkpt lat="39.4592950" lon="-7.9320760">
        <ele>263.2</ele>
        <time>2019-07-11T08:05:27Z</time>
      </trkpt>
      <trkpt lat="39.4593440" lon="-7.9320780">
        <ele>263.6</ele>
        <time>2019-07-11T08:05:29Z</time>
      </trkpt>
      <trkpt lat="39.4595240" lon="-7.9320930">
        <ele>265.0</ele>
        <time>2019-07-11T08:05:36Z</time>
      </trkpt>
      <trkpt lat="39.4595780" lon="-7.9320950">
        <ele>265.4</ele>
        <time>2019-07-11T08:05:38Z</time>
      </trkpt>
      <trkpt lat="39.4597140" lon="-7.9321070">
        <ele>266.2</ele>
        <time>2019-07-11T08:05:43Z</time>
      </trkpt>
      <trkpt lat="39.4597670" lon="-7.9321170">
        <ele>266.6</ele>
        <time>2019-07-11T08:05:45Z</time>
      </trkpt>
      <trkpt lat="39.4598450" lon="-7.9321380">
        <ele>267.2</ele>
        <time>2019-07-11T08:05:48Z</time>
      </trkpt>
      <trkpt lat="39.4599520" lon="-7.9321490">
        <ele>268.2</ele>
        <time>2019-07-11T08:05:52Z</time>
      </trkpt>
      <trkpt lat="39.4599790" lon="-7.9321590">
        <ele>268.4</ele>
        <time>2019-07-11T08:05:53Z</time>
      </trkpt>
      <trkpt lat="39.4601510" lon="-7.9322040">
        <ele>269.2</ele>
        <time>2019-07-11T08:05:59Z</time>
      </trkpt>
      <trkpt lat="39.4602400" lon="-7.9322340">
        <ele>269.4</ele>
        <time>2019-07-11T08:06:02Z</time>
      </trkpt>
      <trkpt lat="39.4603530" lon="-7.9322780">
        <ele>269.8</ele>
        <time>2019-07-11T08:06:06Z</time>
      </trkpt>
      <trkpt lat="39.4605170" lon="-7.9323280">
        <ele>270.4</ele>
        <time>2019-07-11T08:06:12Z</time>
      </trkpt>
      <trkpt lat="39.4605440" lon="-7.9323390">
        <ele>270.6</ele>
        <time>2019-07-11T08:06:13Z</time>
      </trkpt>
      <trkpt lat="39.4606500" lon="-7.9323800">
        <ele>271.6</ele>
        <time>2019-07-11T08:06:17Z</time>
      </trkpt>
      <trkpt lat="39.4607570" lon="-7.9324220">
        <ele>272.2</ele>
        <time>2019-07-11T08:06:21Z</time>
      </trkpt>
      <trkpt lat="39.4608060" lon="-7.9324500">
        <ele>272.6</ele>
        <time>2019-07-11T08:06:23Z</time>
      </trkpt>
      <trkpt lat="39.4609160" lon="-7.9324610">
        <ele>273.4</ele>
        <time>2019-07-11T08:06:27Z</time>
      </trkpt>
      <trkpt lat="39.4609720" lon="-7.9324800">
        <ele>273.8</ele>
        <time>2019-07-11T08:06:29Z</time>
      </trkpt>
      <trkpt lat="39.4610770" lon="-7.9325210">
        <ele>274.8</ele>
        <time>2019-07-11T08:06:33Z</time>
      </trkpt>
      <trkpt lat="39.4611050" lon="-7.9325270">
        <ele>275.0</ele>
        <time>2019-07-11T08:06:34Z</time>
      </trkpt>
      <trkpt lat="39.4612630" lon="-7.9325820">
        <ele>275.8</ele>
        <time>2019-07-11T08:06:40Z</time>
      </trkpt>
      <trkpt lat="39.4612900" lon="-7.9325860">
        <ele>276.2</ele>
        <time>2019-07-11T08:06:41Z</time>
      </trkpt>
      <trkpt lat="39.4613140" lon="-7.9325960">
        <ele>276.6</ele>
        <time>2019-07-11T08:06:42Z</time>
      </trkpt>
      <trkpt lat="39.4613620" lon="-7.9326190">
        <ele>277.2</ele>
        <time>2019-07-11T08:06:44Z</time>
      </trkpt>
      <trkpt lat="39.4614640" lon="-7.9326570">
        <ele>278.0</ele>
        <time>2019-07-11T08:06:48Z</time>
      </trkpt>
      <trkpt lat="39.4616110" lon="-7.9327320">
        <ele>279.0</ele>
        <time>2019-07-11T08:06:54Z</time>
      </trkpt>
      <trkpt lat="39.4617280" lon="-7.9328050">
        <ele>280.4</ele>
        <time>2019-07-11T08:06:59Z</time>
      </trkpt>
      <trkpt lat="39.4618040" lon="-7.9328430">
        <ele>280.8</ele>
        <time>2019-07-11T08:07:02Z</time>
      </trkpt>
      <trkpt lat="39.4618520" lon="-7.9328740">
        <ele>281.8</ele>
        <time>2019-07-11T08:07:04Z</time>
      </trkpt>
      <trkpt lat="39.4619420" lon="-7.9329170">
        <ele>282.8</ele>
        <time>2019-07-11T08:07:08Z</time>
      </trkpt>
      <trkpt lat="39.4620130" lon="-7.9329440">
        <ele>283.4</ele>
        <time>2019-07-11T08:07:11Z</time>
      </trkpt>
      <trkpt lat="39.4621020" lon="-7.9330090">
        <ele>284.0</ele>
        <time>2019-07-11T08:07:15Z</time>
      </trkpt>
      <trkpt lat="39.4621720" lon="-7.9330410">
        <ele>284.6</ele>
        <time>2019-07-11T08:07:18Z</time>
      </trkpt>
      <trkpt lat="39.4622160" lon="-7.9330670">
        <ele>285.2</ele>
        <time>2019-07-11T08:07:20Z</time>
      </trkpt>
      <trkpt lat="39.4622940" lon="-7.9331210">
        <ele>286.0</ele>
        <time>2019-07-11T08:07:24Z</time>
      </trkpt>
      <trkpt lat="39.4623390" lon="-7.9331400">
        <ele>286.2</ele>
        <time>2019-07-11T08:07:26Z</time>
      </trkpt>
      <trkpt lat="39.4624440" lon="-7.9331960">
        <ele>287.4</ele>
        <time>2019-07-11T08:07:31Z</time>
      </trkpt>
      <trkpt lat="39.4624620" lon="-7.9332130">
        <ele>287.6</ele>
        <time>2019-07-11T08:07:32Z</time>
      </trkpt>
      <trkpt lat="39.4625530" lon="-7.9332910">
        <ele>288.4</ele>
        <time>2019-07-11T08:07:37Z</time>
      </trkpt>
      <trkpt lat="39.4625930" lon="-7.9333250">
        <ele>288.6</ele>
        <time>2019-07-11T08:07:39Z</time>
      </trkpt>
      <trkpt lat="39.4627030" lon="-7.9334480">
        <ele>289.2</ele>
        <time>2019-07-11T08:07:45Z</time>
      </trkpt>
      <trkpt lat="39.4627430" lon="-7.9335030">
        <ele>289.6</ele>
        <time>2019-07-11T08:07:47Z</time>
      </trkpt>
      <trkpt lat="39.4628030" lon="-7.9335950">
        <ele>289.8</ele>
        <time>2019-07-11T08:07:50Z</time>
      </trkpt>
      <trkpt lat="39.4628720" lon="-7.9336970">
        <ele>290.0</ele>
        <time>2019-07-11T08:07:53Z</time>
      </trkpt>
      <trkpt lat="39.4629530" lon="-7.9338210">
        <ele>289.8</ele>
        <time>2019-07-11T08:07:56Z</time>
      </trkpt>
      <trkpt lat="39.4630380" lon="-7.9339630">
        <ele>289.8</ele>
        <time>2019-07-11T08:07:59Z</time>
      </trkpt>
      <trkpt lat="39.4630660" lon="-7.9340100">
        <ele>289.8</ele>
        <time>2019-07-11T08:08:00Z</time>
      </trkpt>
      <trkpt lat="39.4632230" lon="-7.9342250">
        <ele>289.0</ele>
        <time>2019-07-11T08:08:05Z</time>
      </trkpt>
      <trkpt lat="39.4632550" lon="-7.9342670">
        <ele>289.0</ele>
        <time>2019-07-11T08:08:06Z</time>
      </trkpt>
      <trkpt lat="39.4632860" lon="-7.9343110">
        <ele>289.0</ele>
        <time>2019-07-11T08:08:07Z</time>
      </trkpt>
      <trkpt lat="39.4633700" lon="-7.9344370">
        <ele>288.8</ele>
        <time>2019-07-11T08:08:10Z</time>
      </trkpt>
      <trkpt lat="39.4634020" lon="-7.9345330">
        <ele>288.8</ele>
        <time>2019-07-11T08:08:13Z</time>
      </trkpt>
      <trkpt lat="39.4634140" lon="-7.9345540">
        <ele>288.8</ele>
        <time>2019-07-11T08:08:16Z</time>
      </trkpt>
      <trkpt lat="39.4634950" lon="-7.9345990">
        <ele>289.0</ele>
        <time>2019-07-11T08:08:48Z</time>
      </trkpt>
      <trkpt lat="39.4635120" lon="-7.9346190">
        <ele>289.2</ele>
        <time>2019-07-11T08:08:49Z</time>
      </trkpt>
      <trkpt lat="39.4636240" lon="-7.9348010">
        <ele>289.2</ele>
        <time>2019-07-11T08:08:55Z</time>
      </trkpt>
      <trkpt lat="39.4637280" lon="-7.9349290">
        <ele>288.8</ele>
        <time>2019-07-11T08:08:59Z</time>
      </trkpt>
      <trkpt lat="39.4637510" lon="-7.9349740">
        <ele>288.6</ele>
        <time>2019-07-11T08:09:00Z</time>
      </trkpt>
      <trkpt lat="39.4638630" lon="-7.9351520">
        <ele>288.2</ele>
        <time>2019-07-11T08:09:04Z</time>
      </trkpt>
      <trkpt lat="39.4639280" lon="-7.9352430">
        <ele>288.0</ele>
        <time>2019-07-11T08:09:06Z</time>
      </trkpt>
      <trkpt lat="39.4640170" lon="-7.9353930">
        <ele>288.0</ele>
        <time>2019-07-11T08:09:09Z</time>
      </trkpt>
      <trkpt lat="39.4641350" lon="-7.9355990">
        <ele>287.4</ele>
        <time>2019-07-11T08:09:13Z</time>
      </trkpt>
      <trkpt lat="39.4641590" lon="-7.9356360">
        <ele>287.0</ele>
        <time>2019-07-11T08:09:14Z</time>
      </trkpt>
      <trkpt lat="39.4642090" lon="-7.9357160">
        <ele>286.4</ele>
        <time>2019-07-11T08:09:17Z</time>
      </trkpt>
      <trkpt lat="39.4642520" lon="-7.9357840">
        <ele>286.0</ele>
        <time>2019-07-11T08:09:20Z</time>
      </trkpt>
      <trkpt lat="39.4643070" lon="-7.9358820">
        <ele>285.8</ele>
        <time>2019-07-11T08:09:24Z</time>
      </trkpt>
      <trkpt lat="39.4643400" lon="-7.9359370">
        <ele>286.0</ele>
        <time>2019-07-11T08:09:26Z</time>
      </trkpt>
      <trkpt lat="39.4643720" lon="-7.9359890">
        <ele>286.2</ele>
        <time>2019-07-11T08:09:28Z</time>
      </trkpt>
      <trkpt lat="39.4644190" lon="-7.9360690">
        <ele>286.0</ele>
        <time>2019-07-11T08:09:31Z</time>
      </trkpt>
      <trkpt lat="39.4644590" lon="-7.9361290">
        <ele>286.2</ele>
        <time>2019-07-11T08:09:33Z</time>
      </trkpt>
      <trkpt lat="39.4645000" lon="-7.9361830">
        <ele>286.6</ele>
        <time>2019-07-11T08:09:35Z</time>
      </trkpt>
      <trkpt lat="39.4645540" lon="-7.9362620">
        <ele>287.0</ele>
        <time>2019-07-11T08:09:38Z</time>
      </trkpt>
      <trkpt lat="39.4646590" lon="-7.9364200">
        <ele>287.2</ele>
        <time>2019-07-11T08:09:44Z</time>
      </trkpt>
      <trkpt lat="39.4647150" lon="-7.9365090">
        <ele>287.6</ele>
        <time>2019-07-11T08:09:47Z</time>
      </trkpt>
      <trkpt lat="39.4647590" lon="-7.9365700">
        <ele>287.8</ele>
        <time>2019-07-11T08:09:49Z</time>
      </trkpt>
      <trkpt lat="39.4652050" lon="-7.9350760">
        <ele>287.6</ele>
        <time>2019-07-11T08:10:57Z</time>
      </trkpt>
      <trkpt lat="39.4652120" lon="-7.9350480">
        <ele>287.6</ele>
        <time>2019-07-11T08:10:58Z</time>
      </trkpt>
      <trkpt lat="39.4652300" lon="-7.9349970">
        <ele>287.4</ele>
        <time>2019-07-11T08:11:01Z</time>
      </trkpt>
      <trkpt lat="39.4652320" lon="-7.9349930">
        <ele>287.4</ele>
        <time>2019-07-11T08:11:02Z</time>
      </trkpt>
      <trkpt lat="39.4652140" lon="-7.9350630">
        <ele>287.4</ele>
        <time>2019-07-11T08:14:54Z</time>
      </trkpt>
      <trkpt lat="39.4651910" lon="-7.9351110">
        <ele>287.4</ele>
        <time>2019-07-11T08:14:56Z</time>
      </trkpt>
      <trkpt lat="39.4651890" lon="-7.9351760">
        <ele>287.2</ele>
        <time>2019-07-11T08:14:58Z</time>
      </trkpt>
      <trkpt lat="39.4652200" lon="-7.9352370">
        <ele>287.2</ele>
        <time>2019-07-11T08:15:00Z</time>
      </trkpt>
      <trkpt lat="39.4652700" lon="-7.9352830">
        <ele>287.0</ele>
        <time>2019-07-11T08:15:03Z</time>
      </trkpt>
      <trkpt lat="39.4652700" lon="-7.9352830">
        <ele>287.0</ele>
        <time>2019-07-11T08:15:04Z</time>
      </trkpt>
      <trkpt lat="39.4652710" lon="-7.9352850">
        <ele>287.0</ele>
        <time>2019-07-11T08:15:05Z</time>
      </trkpt>
      <trkpt lat="39.4652220" lon="-7.9353140">
        <ele>289.0</ele>
        <time>2019-07-11T08:18:56Z</time>
      </trkpt>
      <trkpt lat="39.4651790" lon="-7.9353390">
        <ele>287.8</ele>
        <time>2019-07-11T08:18:58Z</time>
      </trkpt>
      <trkpt lat="39.4651440" lon="-7.9354520">
        <ele>287.8</ele>
        <time>2019-07-11T08:19:02Z</time>
      </trkpt>
      <trkpt lat="39.4651450" lon="-7.9356530">
        <ele>287.8</ele>
        <time>2019-07-11T08:19:08Z</time>
      </trkpt>
      <trkpt lat="39.4651300" lon="-7.9358140">
        <ele>287.6</ele>
        <time>2019-07-11T08:19:13Z</time>
      </trkpt>
      <trkpt lat="39.4651030" lon="-7.9360340">
        <ele>287.2</ele>
        <time>2019-07-11T08:19:19Z</time>
      </trkpt>
      <trkpt lat="39.4650640" lon="-7.9363190">
        <ele>287.4</ele>
        <time>2019-07-11T08:19:26Z</time>
      </trkpt>
      <trkpt lat="39.4650090" lon="-7.9365830">
        <ele>288.0</ele>
        <time>2019-07-11T08:19:34Z</time>
      </trkpt>
      <trkpt lat="39.4650070" lon="-7.9367910">
        <ele>288.4</ele>
        <time>2019-07-11T08:19:41Z</time>
      </trkpt>
      <trkpt lat="39.4650170" lon="-7.9368170">
        <ele>288.4</ele>
        <time>2019-07-11T08:19:42Z</time>
      </trkpt>
      <trkpt lat="39.4650870" lon="-7.9369190">
        <ele>288.4</ele>
        <time>2019-07-11T08:19:46Z</time>
      </trkpt>
      <trkpt lat="39.4651080" lon="-7.9369430">
        <ele>288.4</ele>
        <time>2019-07-11T08:19:47Z</time>
      </trkpt>
      <trkpt lat="39.4651900" lon="-7.9370240">
        <ele>288.4</ele>
        <time>2019-07-11T08:19:51Z</time>
      </trkpt>
      <trkpt lat="39.4652330" lon="-7.9370420">
        <ele>288.4</ele>
        <time>2019-07-11T08:19:53Z</time>
      </trkpt>
      <trkpt lat="39.4653090" lon="-7.9370690">
        <ele>288.6</ele>
        <time>2019-07-11T08:19:57Z</time>
      </trkpt>
      <trkpt lat="39.4653120" lon="-7.9370860">
        <ele>288.6</ele>
        <time>2019-07-11T08:19:58Z</time>
      </trkpt>
      <trkpt lat="39.4653080" lon="-7.9371080">
        <ele>288.4</ele>
        <time>2019-07-11T08:20:01Z</time>
      </trkpt>
      <trkpt lat="39.4653340" lon="-7.9371500">
        <ele>288.6</ele>
        <time>2019-07-11T08:20:24Z</time>
      </trkpt>
      <trkpt lat="39.4654050" lon="-7.9372560">
        <ele>288.4</ele>
        <time>2019-07-11T08:20:31Z</time>
      </trkpt>
      <trkpt lat="39.4654690" lon="-7.9372890">
        <ele>288.2</ele>
        <time>2019-07-11T08:20:35Z</time>
      </trkpt>
      <trkpt lat="39.4654810" lon="-7.9372730">
        <ele>288.2</ele>
        <time>2019-07-11T08:20:36Z</time>
      </trkpt>
      <trkpt lat="39.4654840" lon="-7.9372280">
        <ele>288.4</ele>
        <time>2019-07-11T08:20:38Z</time>
      </trkpt>
      <trkpt lat="39.4654890" lon="-7.9371560">
        <ele>288.4</ele>
        <time>2019-07-11T08:20:41Z</time>
      </trkpt>
      <trkpt lat="39.4654920" lon="-7.9371240">
        <ele>288.4</ele>
        <time>2019-07-11T08:20:45Z</time>
      </trkpt>
      <trkpt lat="39.4654890" lon="-7.9371690">
        <ele>288.4</ele>
        <time>2019-07-11T08:20:59Z</time>
      </trkpt>
      <trkpt lat="39.4654570" lon="-7.9372070">
        <ele>288.4</ele>
        <time>2019-07-11T08:21:03Z</time>
      </trkpt>
      <trkpt lat="39.4654260" lon="-7.9372200">
        <ele>288.4</ele>
        <time>2019-07-11T08:21:05Z</time>
      </trkpt>
      <trkpt lat="39.4653940" lon="-7.9372380">
        <ele>288.6</ele>
        <time>2019-07-11T08:21:07Z</time>
      </trkpt>
      <trkpt lat="39.4653410" lon="-7.9372120">
        <ele>288.6</ele>
        <time>2019-07-11T08:21:10Z</time>
      </trkpt>
      <trkpt lat="39.4653240" lon="-7.9372030">
        <ele>288.6</ele>
        <time>2019-07-11T08:21:11Z</time>
      </trkpt>
      <trkpt lat="39.4653070" lon="-7.9372020">
        <ele>288.8</ele>
        <time>2019-07-11T08:21:12Z</time>
      </trkpt>
      <trkpt lat="39.4652540" lon="-7.9372350">
        <ele>288.8</ele>
        <time>2019-07-11T08:21:15Z</time>
      </trkpt>
      <trkpt lat="39.4651450" lon="-7.9373040">
        <ele>288.6</ele>
        <time>2019-07-11T08:21:21Z</time>
      </trkpt>
      <trkpt lat="39.4650910" lon="-7.9373670">
        <ele>288.6</ele>
        <time>2019-07-11T08:21:25Z</time>
      </trkpt>
      <trkpt lat="39.4650640" lon="-7.9373970">
        <ele>288.8</ele>
        <time>2019-07-11T08:21:27Z</time>
      </trkpt>
      <trkpt lat="39.4649840" lon="-7.9374600">
        <ele>288.8</ele>
        <time>2019-07-11T08:21:32Z</time>
      </trkpt>
      <trkpt lat="39.4649750" lon="-7.9374870">
        <ele>288.8</ele>
        <time>2019-07-11T08:21:33Z</time>
      </trkpt>
      <trkpt lat="39.4649120" lon="-7.9375920">
        <ele>288.6</ele>
        <time>2019-07-11T08:21:38Z</time>
      </trkpt>
      <trkpt lat="39.4648980" lon="-7.9375890">
        <ele>288.6</ele>
        <time>2019-07-11T08:21:39Z</time>
      </trkpt>
      <trkpt lat="39.4648750" lon="-7.9375780">
        <ele>288.8</ele>
        <time>2019-07-11T08:21:43Z</time>
      </trkpt>
      <trkpt lat="39.4648460" lon="-7.9375100">
        <ele>289.6</ele>
        <time>2019-07-11T08:48:14Z</time>
      </trkpt>
      <trkpt lat="39.4648590" lon="-7.9375030">
        <ele>289.8</ele>
        <time>2019-07-11T08:48:15Z</time>
      </trkpt>
      <trkpt lat="39.4648900" lon="-7.9374610">
        <ele>289.8</ele>
        <time>2019-07-11T08:48:18Z</time>
      </trkpt>
      <trkpt lat="39.4648980" lon="-7.9374390">
        <ele>289.8</ele>
        <time>2019-07-11T08:48:19Z</time>
      </trkpt>
      <trkpt lat="39.4648990" lon="-7.9374190">
        <ele>289.8</ele>
        <time>2019-07-11T08:48:20Z</time>
      </trkpt>
      <trkpt lat="39.4648990" lon="-7.9373560">
        <ele>289.6</ele>
        <time>2019-07-11T08:48:23Z</time>
      </trkpt>
      <trkpt lat="39.4648950" lon="-7.9372840">
        <ele>289.4</ele>
        <time>2019-07-11T08:48:26Z</time>
      </trkpt>
      <trkpt lat="39.4649190" lon="-7.9371970">
        <ele>289.4</ele>
        <time>2019-07-11T08:48:29Z</time>
      </trkpt>
      <trkpt lat="39.4649140" lon="-7.9370390">
        <ele>289.6</ele>
        <time>2019-07-11T08:48:34Z</time>
      </trkpt>
      <trkpt lat="39.4649160" lon="-7.9370080">
        <ele>289.6</ele>
        <time>2019-07-11T08:48:35Z</time>
      </trkpt>
      <trkpt lat="39.4649450" lon="-7.9368820">
        <ele>289.8</ele>
        <time>2019-07-11T08:48:39Z</time>
      </trkpt>
      <trkpt lat="39.4649560" lon="-7.9368190">
        <ele>289.6</ele>
        <time>2019-07-11T08:48:41Z</time>
      </trkpt>
      <trkpt lat="39.4649780" lon="-7.9365610">
        <ele>289.4</ele>
        <time>2019-07-11T08:48:48Z</time>
      </trkpt>
      <trkpt lat="39.4649900" lon="-7.9364290">
        <ele>289.4</ele>
        <time>2019-07-11T08:48:51Z</time>
      </trkpt>
      <trkpt lat="39.4650020" lon="-7.9363410">
        <ele>289.0</ele>
        <time>2019-07-11T08:48:53Z</time>
      </trkpt>
      <trkpt lat="39.4650090" lon="-7.9362980">
        <ele>289.0</ele>
        <time>2019-07-11T08:48:54Z</time>
      </trkpt>
      <trkpt lat="39.4650540" lon="-7.9360960">
        <ele>288.6</ele>
        <time>2019-07-11T08:48:59Z</time>
      </trkpt>
      <trkpt lat="39.4650710" lon="-7.9359840">
        <ele>288.4</ele>
        <time>2019-07-11T08:49:02Z</time>
      </trkpt>
      <trkpt lat="39.4650950" lon="-7.9357960">
        <ele>288.2</ele>
        <time>2019-07-11T08:49:07Z</time>
      </trkpt>
      <trkpt lat="39.4651100" lon="-7.9356360">
        <ele>288.0</ele>
        <time>2019-07-11T08:49:11Z</time>
      </trkpt>
      <trkpt lat="39.4651490" lon="-7.9353390">
        <ele>288.0</ele>
        <time>2019-07-11T08:49:19Z</time>
      </trkpt>
      <trkpt lat="39.4651590" lon="-7.9351900">
        <ele>288.4</ele>
        <time>2019-07-11T08:49:24Z</time>
      </trkpt>
      <trkpt lat="39.4652090" lon="-7.9350590">
        <ele>288.8</ele>
        <time>2019-07-11T08:49:29Z</time>
      </trkpt>
      <trkpt lat="39.4652190" lon="-7.9350300">
        <ele>288.8</ele>
        <time>2019-07-11T08:49:30Z</time>
      </trkpt>
      <trkpt lat="39.4652760" lon="-7.9348560">
        <ele>289.0</ele>
        <time>2019-07-11T08:49:37Z</time>
      </trkpt>
      <trkpt lat="39.4653160" lon="-7.9347340">
        <ele>289.2</ele>
        <time>2019-07-11T08:49:42Z</time>
      </trkpt>
      <trkpt lat="39.4653220" lon="-7.9347120">
        <ele>289.4</ele>
        <time>2019-07-11T08:49:43Z</time>
      </trkpt>
      <trkpt lat="39.4653390" lon="-7.9346630">
        <ele>289.6</ele>
        <time>2019-07-11T08:49:45Z</time>
      </trkpt>
      <trkpt lat="39.4653530" lon="-7.9345840">
        <ele>289.8</ele>
        <time>2019-07-11T08:49:48Z</time>
      </trkpt>
      <trkpt lat="39.4653820" lon="-7.9344860">
        <ele>289.8</ele>
        <time>2019-07-11T08:49:52Z</time>
      </trkpt>
      <trkpt lat="39.4653960" lon="-7.9344490">
        <ele>289.8</ele>
        <time>2019-07-11T08:49:54Z</time>
      </trkpt>
      <trkpt lat="39.4654370" lon="-7.9343350">
        <ele>290.6</ele>
        <time>2019-07-11T08:49:59Z</time>
      </trkpt>
      <trkpt lat="39.4654750" lon="-7.9341920">
        <ele>290.8</ele>
        <time>2019-07-11T08:50:05Z</time>
      </trkpt>
      <trkpt lat="39.4655080" lon="-7.9340620">
        <ele>291.4</ele>
        <time>2019-07-11T08:50:11Z</time>
      </trkpt>
      <trkpt lat="39.4655160" lon="-7.9340420">
        <ele>291.4</ele>
        <time>2019-07-11T08:50:12Z</time>
      </trkpt>
      <trkpt lat="39.4655270" lon="-7.9340040">
        <ele>291.6</ele>
        <time>2019-07-11T08:50:14Z</time>
      </trkpt>
      <trkpt lat="39.4655300" lon="-7.9339410">
        <ele>291.8</ele>
        <time>2019-07-11T08:50:17Z</time>
      </trkpt>
      <trkpt lat="39.4655330" lon="-7.9339190">
        <ele>291.8</ele>
        <time>2019-07-11T08:50:18Z</time>
      </trkpt>
      <trkpt lat="39.4655500" lon="-7.9337920">
        <ele>292.6</ele>
        <time>2019-07-11T08:50:24Z</time>
      </trkpt>
      <trkpt lat="39.4655530" lon="-7.9337550">
        <ele>292.8</ele>
        <time>2019-07-11T08:50:26Z</time>
      </trkpt>
      <trkpt lat="39.4655790" lon="-7.9336890">
        <ele>292.8</ele>
        <time>2019-07-11T08:50:30Z</time>
      </trkpt>
      <trkpt lat="39.4655950" lon="-7.9336560">
        <ele>292.6</ele>
        <time>2019-07-11T08:50:32Z</time>
      </trkpt>
      <trkpt lat="39.4656250" lon="-7.9335920">
        <ele>292.8</ele>
        <time>2019-07-11T08:50:38Z</time>
      </trkpt>
      <trkpt lat="39.4656740" lon="-7.9336530">
        <ele>292.4</ele>
        <time>2019-07-11T08:53:45Z</time>
      </trkpt>
      <trkpt lat="39.4656480" lon="-7.9336980">
        <ele>292.4</ele>
        <time>2019-07-11T08:53:47Z</time>
      </trkpt>
      <trkpt lat="39.4655640" lon="-7.9338300">
        <ele>291.8</ele>
        <time>2019-07-11T08:53:52Z</time>
      </trkpt>
      <trkpt lat="39.4655360" lon="-7.9339590">
        <ele>291.6</ele>
        <time>2019-07-11T08:53:55Z</time>
      </trkpt>
      <trkpt lat="39.4654900" lon="-7.9341360">
        <ele>291.2</ele>
        <time>2019-07-11T08:53:59Z</time>
      </trkpt>
      <trkpt lat="39.4654610" lon="-7.9342420">
        <ele>290.8</ele>
        <time>2019-07-11T08:54:02Z</time>
      </trkpt>
      <trkpt lat="39.4654540" lon="-7.9342660">
        <ele>290.6</ele>
        <time>2019-07-11T08:54:03Z</time>
      </trkpt>
      <trkpt lat="39.4654240" lon="-7.9344120">
        <ele>289.8</ele>
        <time>2019-07-11T08:54:09Z</time>
      </trkpt>
      <trkpt lat="39.4654180" lon="-7.9344700">
        <ele>289.6</ele>
        <time>2019-07-11T08:54:11Z</time>
      </trkpt>
      <trkpt lat="39.4654180" lon="-7.9345050">
        <ele>289.6</ele>
        <time>2019-07-11T08:54:12Z</time>
      </trkpt>
      <trkpt lat="39.4654200" lon="-7.9345440">
        <ele>289.6</ele>
        <time>2019-07-11T08:54:13Z</time>
      </trkpt>
      <trkpt lat="39.4653960" lon="-7.9346110">
        <ele>289.2</ele>
        <time>2019-07-11T08:54:16Z</time>
      </trkpt>
      <trkpt lat="39.4653650" lon="-7.9346790">
        <ele>288.8</ele>
        <time>2019-07-11T08:54:19Z</time>
      </trkpt>
      <trkpt lat="39.4653410" lon="-7.9347330">
        <ele>288.6</ele>
        <time>2019-07-11T08:54:21Z</time>
      </trkpt>
      <trkpt lat="39.4652890" lon="-7.9348860">
        <ele>288.4</ele>
        <time>2019-07-11T08:54:26Z</time>
      </trkpt>
      <trkpt lat="39.4652720" lon="-7.9349380">
        <ele>288.2</ele>
        <time>2019-07-11T08:54:30Z</time>
      </trkpt>
      <trkpt lat="39.4652720" lon="-7.9349380">
        <ele>288.2</ele>
        <time>2019-07-11T08:54:31Z</time>
      </trkpt>
      <trkpt lat="39.4652340" lon="-7.9351330">
        <ele>287.4</ele>
        <time>2019-07-11T09:00:44Z</time>
      </trkpt>
      <trkpt lat="39.4652340" lon="-7.9351540">
        <ele>287.4</ele>
        <time>2019-07-11T09:00:45Z</time>
      </trkpt>
      <trkpt lat="39.4652270" lon="-7.9351920">
        <ele>287.6</ele>
        <time>2019-07-11T09:00:47Z</time>
      </trkpt>
      <trkpt lat="39.4651800" lon="-7.9353700">
        <ele>287.4</ele>
        <time>2019-07-11T09:00:53Z</time>
      </trkpt>
      <trkpt lat="39.4651690" lon="-7.9354390">
        <ele>287.4</ele>
        <time>2019-07-11T09:00:55Z</time>
      </trkpt>
      <trkpt lat="39.4651530" lon="-7.9355170">
        <ele>287.4</ele>
        <time>2019-07-11T09:00:57Z</time>
      </trkpt>
      <trkpt lat="39.4651370" lon="-7.9355920">
        <ele>287.4</ele>
        <time>2019-07-11T09:00:59Z</time>
      </trkpt>
      <trkpt lat="39.4651330" lon="-7.9356250">
        <ele>287.4</ele>
        <time>2019-07-11T09:01:00Z</time>
      </trkpt>
      <trkpt lat="39.4651240" lon="-7.9358260">
        <ele>287.2</ele>
        <time>2019-07-11T09:01:05Z</time>
      </trkpt>
      <trkpt lat="39.4650790" lon="-7.9360470">
        <ele>287.4</ele>
        <time>2019-07-11T09:01:10Z</time>
      </trkpt>
      <trkpt lat="39.4650400" lon="-7.9362330">
        <ele>287.8</ele>
        <time>2019-07-11T09:01:15Z</time>
      </trkpt>
      <trkpt lat="39.4650160" lon="-7.9363750">
        <ele>288.0</ele>
        <time>2019-07-11T09:01:19Z</time>
      </trkpt>
      <trkpt lat="39.4649840" lon="-7.9365140">
        <ele>287.8</ele>
        <time>2019-07-11T09:01:23Z</time>
      </trkpt>
      <trkpt lat="39.4649690" lon="-7.9366310">
        <ele>288.0</ele>
        <time>2019-07-11T09:01:26Z</time>
      </trkpt>
      <trkpt lat="39.4649800" lon="-7.9367130">
        <ele>288.2</ele>
        <time>2019-07-11T09:01:28Z</time>
      </trkpt>
      <trkpt lat="39.4650560" lon="-7.9369920">
        <ele>288.6</ele>
        <time>2019-07-11T09:01:34Z</time>
      </trkpt>
      <trkpt lat="39.4650590" lon="-7.9372320">
        <ele>288.6</ele>
        <time>2019-07-11T09:01:39Z</time>
      </trkpt>
      <trkpt lat="39.4649460" lon="-7.9375590">
        <ele>288.4</ele>
        <time>2019-07-11T09:01:46Z</time>
      </trkpt>
      <trkpt lat="39.4649200" lon="-7.9376040">
        <ele>288.4</ele>
        <time>2019-07-11T09:01:47Z</time>
      </trkpt>
      <trkpt lat="39.4648280" lon="-7.9377280">
        <ele>288.4</ele>
        <time>2019-07-11T09:01:50Z</time>
      </trkpt>
      <trkpt lat="39.4647830" lon="-7.9378250">
        <ele>288.6</ele>
        <time>2019-07-11T09:01:52Z</time>
      </trkpt>
      <trkpt lat="39.4647150" lon="-7.9379710">
        <ele>288.8</ele>
        <time>2019-07-11T09:01:55Z</time>
      </trkpt>
      <trkpt lat="39.4645840" lon="-7.9382650">
        <ele>289.6</ele>
        <time>2019-07-11T09:02:01Z</time>
      </trkpt>
      <trkpt lat="39.4645410" lon="-7.9383620">
        <ele>289.8</ele>
        <time>2019-07-11T09:02:03Z</time>
      </trkpt>
      <trkpt lat="39.4644540" lon="-7.9385270">
        <ele>290.0</ele>
        <time>2019-07-11T09:02:07Z</time>
      </trkpt>
      <trkpt lat="39.4642740" lon="-7.9388620">
        <ele>290.4</ele>
        <time>2019-07-11T09:02:15Z</time>
      </trkpt>
      <trkpt lat="39.4642350" lon="-7.9389590">
        <ele>290.2</ele>
        <time>2019-07-11T09:02:17Z</time>
      </trkpt>
      <trkpt lat="39.4642120" lon="-7.9391430">
        <ele>290.0</ele>
        <time>2019-07-11T09:02:20Z</time>
      </trkpt>
      <trkpt lat="39.4642200" lon="-7.9392950">
        <ele>289.6</ele>
        <time>2019-07-11T09:02:22Z</time>
      </trkpt>
      <trkpt lat="39.4642270" lon="-7.9395550">
        <ele>288.6</ele>
        <time>2019-07-11T09:02:25Z</time>
      </trkpt>
      <trkpt lat="39.4642210" lon="-7.9397400">
        <ele>288.0</ele>
        <time>2019-07-11T09:02:27Z</time>
      </trkpt>
      <trkpt lat="39.4642000" lon="-7.9398370">
        <ele>287.6</ele>
        <time>2019-07-11T09:02:28Z</time>
      </trkpt>
      <trkpt lat="39.4641690" lon="-7.9399350">
        <ele>287.0</ele>
        <time>2019-07-11T09:02:29Z</time>
      </trkpt>
      <trkpt lat="39.4641280" lon="-7.9400340">
        <ele>286.4</ele>
        <time>2019-07-11T09:02:30Z</time>
      </trkpt>
      <trkpt lat="39.4640850" lon="-7.9401330">
        <ele>285.8</ele>
        <time>2019-07-11T09:02:31Z</time>
      </trkpt>
      <trkpt lat="39.4640400" lon="-7.9402310">
        <ele>285.4</ele>
        <time>2019-07-11T09:02:32Z</time>
      </trkpt>
      <trkpt lat="39.4639480" lon="-7.9404270">
        <ele>284.2</ele>
        <time>2019-07-11T09:02:34Z</time>
      </trkpt>
      <trkpt lat="39.4639010" lon="-7.9405280">
        <ele>282.8</ele>
        <time>2019-07-11T09:02:35Z</time>
      </trkpt>
      <trkpt lat="39.4638110" lon="-7.9407290">
        <ele>281.6</ele>
        <time>2019-07-11T09:02:37Z</time>
      </trkpt>
      <trkpt lat="39.4637420" lon="-7.9409240">
        <ele>280.2</ele>
        <time>2019-07-11T09:02:39Z</time>
      </trkpt>
      <trkpt lat="39.4637160" lon="-7.9410260">
        <ele>279.6</ele>
        <time>2019-07-11T09:02:40Z</time>
      </trkpt>
      <trkpt lat="39.4636980" lon="-7.9411310">
        <ele>278.8</ele>
        <time>2019-07-11T09:02:41Z</time>
      </trkpt>
      <trkpt lat="39.4637030" lon="-7.9413320">
        <ele>277.6</ele>
        <time>2019-07-11T09:02:43Z</time>
      </trkpt>
      <trkpt lat="39.4637500" lon="-7.9415200">
        <ele>276.6</ele>
        <time>2019-07-11T09:02:45Z</time>
      </trkpt>
      <trkpt lat="39.4637520" lon="-7.9417140">
        <ele>275.6</ele>
        <time>2019-07-11T09:02:47Z</time>
      </trkpt>
      <trkpt lat="39.4636220" lon="-7.9419660">
        <ele>274.8</ele>
        <time>2019-07-11T09:02:50Z</time>
      </trkpt>
      <trkpt lat="39.4635840" lon="-7.9420560">
        <ele>273.8</ele>
        <time>2019-07-11T09:02:51Z</time>
      </trkpt>
      <trkpt lat="39.4635720" lon="-7.9422550">
        <ele>273.2</ele>
        <time>2019-07-11T09:02:53Z</time>
      </trkpt>
      <trkpt lat="39.4636000" lon="-7.9424510">
        <ele>272.8</ele>
        <time>2019-07-11T09:02:55Z</time>
      </trkpt>
      <trkpt lat="39.4636140" lon="-7.9425500">
        <ele>272.6</ele>
        <time>2019-07-11T09:02:56Z</time>
      </trkpt>
      <trkpt lat="39.4636360" lon="-7.9427490">
        <ele>272.4</ele>
        <time>2019-07-11T09:02:58Z</time>
      </trkpt>
      <trkpt lat="39.4636530" lon="-7.9430480">
        <ele>271.6</ele>
        <time>2019-07-11T09:03:01Z</time>
      </trkpt>
      <trkpt lat="39.4636510" lon="-7.9431480">
        <ele>271.6</ele>
        <time>2019-07-11T09:03:02Z</time>
      </trkpt>
      <trkpt lat="39.4636350" lon="-7.9433470">
        <ele>271.2</ele>
        <time>2019-07-11T09:03:04Z</time>
      </trkpt>
      <trkpt lat="39.4635680" lon="-7.9437460">
        <ele>270.6</ele>
        <time>2019-07-11T09:03:08Z</time>
      </trkpt>
      <trkpt lat="39.4634970" lon="-7.9440400">
        <ele>270.0</ele>
        <time>2019-07-11T09:03:11Z</time>
      </trkpt>
      <trkpt lat="39.4634250" lon="-7.9443370">
        <ele>269.4</ele>
        <time>2019-07-11T09:03:14Z</time>
      </trkpt>
      <trkpt lat="39.4633110" lon="-7.9447480">
        <ele>268.2</ele>
        <time>2019-07-11T09:03:18Z</time>
      </trkpt>
      <trkpt lat="39.4632240" lon="-7.9450820">
        <ele>266.8</ele>
        <time>2019-07-11T09:03:21Z</time>
      </trkpt>
      <trkpt lat="39.4631230" lon="-7.9454390">
        <ele>266.0</ele>
        <time>2019-07-11T09:03:24Z</time>
      </trkpt>
      <trkpt lat="39.4630510" lon="-7.9456960">
        <ele>264.6</ele>
        <time>2019-07-11T09:03:26Z</time>
      </trkpt>
      <trkpt lat="39.4629720" lon="-7.9459670">
        <ele>263.4</ele>
        <time>2019-07-11T09:03:28Z</time>
      </trkpt>
      <trkpt lat="39.4628900" lon="-7.9462550">
        <ele>261.8</ele>
        <time>2019-07-11T09:03:30Z</time>
      </trkpt>
      <trkpt lat="39.4628010" lon="-7.9465520">
        <ele>259.8</ele>
        <time>2019-07-11T09:03:32Z</time>
      </trkpt>
      <trkpt lat="39.4627010" lon="-7.9468500">
        <ele>258.0</ele>
        <time>2019-07-11T09:03:34Z</time>
      </trkpt>
      <trkpt lat="39.4625920" lon="-7.9471480">
        <ele>256.6</ele>
        <time>2019-07-11T09:03:36Z</time>
      </trkpt>
      <trkpt lat="39.4624770" lon="-7.9474450">
        <ele>255.2</ele>
        <time>2019-07-11T09:03:38Z</time>
      </trkpt>
      <trkpt lat="39.4623470" lon="-7.9477330">
        <ele>254.0</ele>
        <time>2019-07-11T09:03:40Z</time>
      </trkpt>
      <trkpt lat="39.4622090" lon="-7.9480060">
        <ele>252.6</ele>
        <time>2019-07-11T09:03:42Z</time>
      </trkpt>
      <trkpt lat="39.4620700" lon="-7.9482740">
        <ele>251.4</ele>
        <time>2019-07-11T09:03:44Z</time>
      </trkpt>
      <trkpt lat="39.4618670" lon="-7.9486720">
        <ele>250.0</ele>
        <time>2019-07-11T09:03:47Z</time>
      </trkpt>
      <trkpt lat="39.4616530" lon="-7.9490440">
        <ele>248.8</ele>
        <time>2019-07-11T09:03:50Z</time>
      </trkpt>
      <trkpt lat="39.4613640" lon="-7.9495020">
        <ele>247.8</ele>
        <time>2019-07-11T09:03:54Z</time>
      </trkpt>
      <trkpt lat="39.4611510" lon="-7.9498220">
        <ele>247.2</ele>
        <time>2019-07-11T09:03:57Z</time>
      </trkpt>
      <trkpt lat="39.4610160" lon="-7.9500280">
        <ele>246.8</ele>
        <time>2019-07-11T09:03:59Z</time>
      </trkpt>
      <trkpt lat="39.4607770" lon="-7.9504310">
        <ele>246.0</ele>
        <time>2019-07-11T09:04:03Z</time>
      </trkpt>
      <trkpt lat="39.4605430" lon="-7.9510380">
        <ele>246.0</ele>
        <time>2019-07-11T09:04:09Z</time>
      </trkpt>
      <trkpt lat="39.4604730" lon="-7.9514430">
        <ele>245.8</ele>
        <time>2019-07-11T09:04:13Z</time>
      </trkpt>
      <trkpt lat="39.4604620" lon="-7.9516440">
        <ele>245.4</ele>
        <time>2019-07-11T09:04:15Z</time>
      </trkpt>
      <trkpt lat="39.4604650" lon="-7.9518460">
        <ele>245.2</ele>
        <time>2019-07-11T09:04:17Z</time>
      </trkpt>
      <trkpt lat="39.4604970" lon="-7.9521450">
        <ele>245.0</ele>
        <time>2019-07-11T09:04:20Z</time>
      </trkpt>
      <trkpt lat="39.4605240" lon="-7.9523450">
        <ele>244.6</ele>
        <time>2019-07-11T09:04:22Z</time>
      </trkpt>
      <trkpt lat="39.4606040" lon="-7.9528510">
        <ele>243.6</ele>
        <time>2019-07-11T09:04:27Z</time>
      </trkpt>
      <trkpt lat="39.4606190" lon="-7.9529560">
        <ele>243.4</ele>
        <time>2019-07-11T09:04:28Z</time>
      </trkpt>
      <trkpt lat="39.4606490" lon="-7.9534990">
        <ele>242.8</ele>
        <time>2019-07-11T09:04:33Z</time>
      </trkpt>
      <trkpt lat="39.4606470" lon="-7.9536110">
        <ele>242.4</ele>
        <time>2019-07-11T09:04:34Z</time>
      </trkpt>
      <trkpt lat="39.4606060" lon="-7.9540730">
        <ele>241.6</ele>
        <time>2019-07-11T09:04:38Z</time>
      </trkpt>
      <trkpt lat="39.4605900" lon="-7.9541910">
        <ele>241.2</ele>
        <time>2019-07-11T09:04:39Z</time>
      </trkpt>
      <trkpt lat="39.4605490" lon="-7.9544310">
        <ele>240.0</ele>
        <time>2019-07-11T09:04:41Z</time>
      </trkpt>
      <trkpt lat="39.4604550" lon="-7.9547960">
        <ele>239.0</ele>
        <time>2019-07-11T09:04:44Z</time>
      </trkpt>
      <trkpt lat="39.4603270" lon="-7.9551710">
        <ele>237.4</ele>
        <time>2019-07-11T09:04:47Z</time>
      </trkpt>
      <trkpt lat="39.4601820" lon="-7.9555510">
        <ele>236.0</ele>
        <time>2019-07-11T09:04:50Z</time>
      </trkpt>
      <trkpt lat="39.4600860" lon="-7.9558120">
        <ele>234.8</ele>
        <time>2019-07-11T09:04:52Z</time>
      </trkpt>
      <trkpt lat="39.4599930" lon="-7.9560830">
        <ele>233.2</ele>
        <time>2019-07-11T09:04:54Z</time>
      </trkpt>
      <trkpt lat="39.4599050" lon="-7.9563600">
        <ele>232.4</ele>
        <time>2019-07-11T09:04:56Z</time>
      </trkpt>
      <trkpt lat="39.4598630" lon="-7.9565020">
        <ele>231.8</ele>
        <time>2019-07-11T09:04:57Z</time>
      </trkpt>
      <trkpt lat="39.4598210" lon="-7.9566450">
        <ele>231.2</ele>
        <time>2019-07-11T09:04:58Z</time>
      </trkpt>
      <trkpt lat="39.4597590" lon="-7.9569360">
        <ele>230.0</ele>
        <time>2019-07-11T09:05:00Z</time>
      </trkpt>
      <trkpt lat="39.4597340" lon="-7.9570860">
        <ele>229.4</ele>
        <time>2019-07-11T09:05:01Z</time>
      </trkpt>
      <trkpt lat="39.4597110" lon="-7.9572400">
        <ele>228.8</ele>
        <time>2019-07-11T09:05:02Z</time>
      </trkpt>
      <trkpt lat="39.4596690" lon="-7.9575540">
        <ele>227.6</ele>
        <time>2019-07-11T09:05:04Z</time>
      </trkpt>
      <trkpt lat="39.4596390" lon="-7.9578720">
        <ele>226.2</ele>
        <time>2019-07-11T09:05:06Z</time>
      </trkpt>
      <trkpt lat="39.4596310" lon="-7.9580320">
        <ele>225.6</ele>
        <time>2019-07-11T09:05:07Z</time>
      </trkpt>
      <trkpt lat="39.4596230" lon="-7.9581950">
        <ele>224.6</ele>
        <time>2019-07-11T09:05:08Z</time>
      </trkpt>
      <trkpt lat="39.4596080" lon="-7.9585250">
        <ele>223.0</ele>
        <time>2019-07-11T09:05:10Z</time>
      </trkpt>
      <trkpt lat="39.4595990" lon="-7.9586910">
        <ele>222.0</ele>
        <time>2019-07-11T09:05:11Z</time>
      </trkpt>
      <trkpt lat="39.4595810" lon="-7.9590240">
        <ele>220.6</ele>
        <time>2019-07-11T09:05:13Z</time>
      </trkpt>
      <trkpt lat="39.4595660" lon="-7.9593610">
        <ele>218.6</ele>
        <time>2019-07-11T09:05:15Z</time>
      </trkpt>
      <trkpt lat="39.4595560" lon="-7.9595290">
        <ele>218.0</ele>
        <time>2019-07-11T09:05:16Z</time>
      </trkpt>
      <trkpt lat="39.4595470" lon="-7.9596980">
        <ele>217.0</ele>
        <time>2019-07-11T09:05:17Z</time>
      </trkpt>
      <trkpt lat="39.4595300" lon="-7.9600360">
        <ele>215.8</ele>
        <time>2019-07-11T09:05:19Z</time>
      </trkpt>
      <trkpt lat="39.4595100" lon="-7.9603740">
        <ele>214.2</ele>
        <time>2019-07-11T09:05:21Z</time>
      </trkpt>
      <trkpt lat="39.4594880" lon="-7.9607100">
        <ele>212.6</ele>
        <time>2019-07-11T09:05:23Z</time>
      </trkpt>
      <trkpt lat="39.4594670" lon="-7.9610440">
        <ele>211.4</ele>
        <time>2019-07-11T09:05:25Z</time>
      </trkpt>
      <trkpt lat="39.4594480" lon="-7.9613800">
        <ele>210.2</ele>
        <time>2019-07-11T09:05:27Z</time>
      </trkpt>
      <trkpt lat="39.4594290" lon="-7.9617140">
        <ele>208.8</ele>
        <time>2019-07-11T09:05:29Z</time>
      </trkpt>
      <trkpt lat="39.4594070" lon="-7.9620460">
        <ele>207.0</ele>
        <time>2019-07-11T09:05:31Z</time>
      </trkpt>
      <trkpt lat="39.4594000" lon="-7.9622130">
        <ele>205.8</ele>
        <time>2019-07-11T09:05:32Z</time>
      </trkpt>
      <trkpt lat="39.4593840" lon="-7.9625520">
        <ele>204.6</ele>
        <time>2019-07-11T09:05:34Z</time>
      </trkpt>
      <trkpt lat="39.4593740" lon="-7.9627210">
        <ele>204.0</ele>
        <time>2019-07-11T09:05:35Z</time>
      </trkpt>
      <trkpt lat="39.4593520" lon="-7.9630610">
        <ele>203.0</ele>
        <time>2019-07-11T09:05:37Z</time>
      </trkpt>
      <trkpt lat="39.4593240" lon="-7.9634050">
        <ele>201.0</ele>
        <time>2019-07-11T09:05:39Z</time>
      </trkpt>
      <trkpt lat="39.4592570" lon="-7.9639230">
        <ele>199.4</ele>
        <time>2019-07-11T09:05:42Z</time>
      </trkpt>
      <trkpt lat="39.4591950" lon="-7.9642670">
        <ele>198.2</ele>
        <time>2019-07-11T09:05:44Z</time>
      </trkpt>
      <trkpt lat="39.4591200" lon="-7.9646080">
        <ele>196.8</ele>
        <time>2019-07-11T09:05:46Z</time>
      </trkpt>
      <trkpt lat="39.4590360" lon="-7.9649410">
        <ele>195.4</ele>
        <time>2019-07-11T09:05:48Z</time>
      </trkpt>
      <trkpt lat="39.4589500" lon="-7.9652720">
        <ele>194.2</ele>
        <time>2019-07-11T09:05:50Z</time>
      </trkpt>
      <trkpt lat="39.4588630" lon="-7.9655990">
        <ele>192.4</ele>
        <time>2019-07-11T09:05:52Z</time>
      </trkpt>
      <trkpt lat="39.4587810" lon="-7.9659250">
        <ele>191.0</ele>
        <time>2019-07-11T09:05:54Z</time>
      </trkpt>
      <trkpt lat="39.4587040" lon="-7.9662470">
        <ele>189.2</ele>
        <time>2019-07-11T09:05:56Z</time>
      </trkpt>
      <trkpt lat="39.4586700" lon="-7.9664090">
        <ele>188.4</ele>
        <time>2019-07-11T09:05:57Z</time>
      </trkpt>
      <trkpt lat="39.4586400" lon="-7.9665710">
        <ele>188.0</ele>
        <time>2019-07-11T09:05:58Z</time>
      </trkpt>
      <trkpt lat="39.4585910" lon="-7.9668970">
        <ele>186.6</ele>
        <time>2019-07-11T09:06:00Z</time>
      </trkpt>
      <trkpt lat="39.4585570" lon="-7.9672260">
        <ele>185.0</ele>
        <time>2019-07-11T09:06:02Z</time>
      </trkpt>
      <trkpt lat="39.4585430" lon="-7.9675590">
        <ele>183.8</ele>
        <time>2019-07-11T09:06:04Z</time>
      </trkpt>
      <trkpt lat="39.4585460" lon="-7.9678900">
        <ele>182.4</ele>
        <time>2019-07-11T09:06:06Z</time>
      </trkpt>
      <trkpt lat="39.4585500" lon="-7.9680540">
        <ele>181.8</ele>
        <time>2019-07-11T09:06:07Z</time>
      </trkpt>
      <trkpt lat="39.4585560" lon="-7.9682160">
        <ele>181.2</ele>
        <time>2019-07-11T09:06:08Z</time>
      </trkpt>
      <trkpt lat="39.4585800" lon="-7.9685380">
        <ele>180.0</ele>
        <time>2019-07-11T09:06:10Z</time>
      </trkpt>
      <trkpt lat="39.4586130" lon="-7.9688520">
        <ele>178.0</ele>
        <time>2019-07-11T09:06:12Z</time>
      </trkpt>
      <trkpt lat="39.4586290" lon="-7.9690090">
        <ele>177.4</ele>
        <time>2019-07-11T09:06:13Z</time>
      </trkpt>
      <trkpt lat="39.4586450" lon="-7.9691660">
        <ele>176.8</ele>
        <time>2019-07-11T09:06:14Z</time>
      </trkpt>
      <trkpt lat="39.4586750" lon="-7.9694760">
        <ele>176.0</ele>
        <time>2019-07-11T09:06:16Z</time>
      </trkpt>
      <trkpt lat="39.4587060" lon="-7.9697810">
        <ele>174.8</ele>
        <time>2019-07-11T09:06:18Z</time>
      </trkpt>
      <trkpt lat="39.4587350" lon="-7.9700800">
        <ele>173.6</ele>
        <time>2019-07-11T09:06:20Z</time>
      </trkpt>
      <trkpt lat="39.4587690" lon="-7.9705180">
        <ele>172.6</ele>
        <time>2019-07-11T09:06:23Z</time>
      </trkpt>
      <trkpt lat="39.4587850" lon="-7.9709430">
        <ele>171.2</ele>
        <time>2019-07-11T09:06:26Z</time>
      </trkpt>
      <trkpt lat="39.4587700" lon="-7.9713510">
        <ele>169.8</ele>
        <time>2019-07-11T09:06:29Z</time>
      </trkpt>
      <trkpt lat="39.4587200" lon="-7.9718720">
        <ele>169.0</ele>
        <time>2019-07-11T09:06:33Z</time>
      </trkpt>
      <trkpt lat="39.4586970" lon="-7.9719970">
        <ele>168.8</ele>
        <time>2019-07-11T09:06:34Z</time>
      </trkpt>
      <trkpt lat="39.4586730" lon="-7.9721210">
        <ele>168.6</ele>
        <time>2019-07-11T09:06:35Z</time>
      </trkpt>
      <trkpt lat="39.4585610" lon="-7.9726000">
        <ele>168.0</ele>
        <time>2019-07-11T09:06:39Z</time>
      </trkpt>
      <trkpt lat="39.4584910" lon="-7.9728260">
        <ele>167.6</ele>
        <time>2019-07-11T09:06:41Z</time>
      </trkpt>
      <trkpt lat="39.4583410" lon="-7.9732600">
        <ele>166.8</ele>
        <time>2019-07-11T09:06:45Z</time>
      </trkpt>
      <trkpt lat="39.4581850" lon="-7.9736850">
        <ele>165.8</ele>
        <time>2019-07-11T09:06:49Z</time>
      </trkpt>
      <trkpt lat="39.4581460" lon="-7.9737910">
        <ele>165.6</ele>
        <time>2019-07-11T09:06:50Z</time>
      </trkpt>
      <trkpt lat="39.4580670" lon="-7.9740030">
        <ele>164.8</ele>
        <time>2019-07-11T09:06:52Z</time>
      </trkpt>
      <trkpt lat="39.4578300" lon="-7.9746430">
        <ele>163.6</ele>
        <time>2019-07-11T09:06:58Z</time>
      </trkpt>
      <trkpt lat="39.4576710" lon="-7.9750660">
        <ele>163.0</ele>
        <time>2019-07-11T09:07:02Z</time>
      </trkpt>
      <trkpt lat="39.4575930" lon="-7.9752720">
        <ele>162.8</ele>
        <time>2019-07-11T09:07:04Z</time>
      </trkpt>
      <trkpt lat="39.4573600" lon="-7.9758520">
        <ele>161.8</ele>
        <time>2019-07-11T09:07:10Z</time>
      </trkpt>
      <trkpt lat="39.4571630" lon="-7.9763770">
        <ele>162.0</ele>
        <time>2019-07-11T09:07:16Z</time>
      </trkpt>
      <trkpt lat="39.4571310" lon="-7.9764570">
        <ele>162.0</ele>
        <time>2019-07-11T09:07:17Z</time>
      </trkpt>
      <trkpt lat="39.4570660" lon="-7.9766110">
        <ele>162.2</ele>
        <time>2019-07-11T09:07:19Z</time>
      </trkpt>
      <trkpt lat="39.4569690" lon="-7.9768270">
        <ele>162.6</ele>
        <time>2019-07-11T09:07:22Z</time>
      </trkpt>
      <trkpt lat="39.4569110" lon="-7.9769690">
        <ele>162.8</ele>
        <time>2019-07-11T09:07:24Z</time>
      </trkpt>
      <trkpt lat="39.4568830" lon="-7.9770370">
        <ele>162.8</ele>
        <time>2019-07-11T09:07:25Z</time>
      </trkpt>
      <trkpt lat="39.4567070" lon="-7.9774230">
        <ele>162.6</ele>
        <time>2019-07-11T09:07:31Z</time>
      </trkpt>
      <trkpt lat="39.4565620" lon="-7.9777500">
        <ele>162.4</ele>
        <time>2019-07-11T09:07:36Z</time>
      </trkpt>
      <trkpt lat="39.4564300" lon="-7.9780260">
        <ele>162.4</ele>
        <time>2019-07-11T09:07:40Z</time>
      </trkpt>
      <trkpt lat="39.4562250" lon="-7.9784740">
        <ele>162.0</ele>
        <time>2019-07-11T09:07:46Z</time>
      </trkpt>
      <trkpt lat="39.4561150" lon="-7.9787140">
        <ele>161.4</ele>
        <time>2019-07-11T09:07:49Z</time>
      </trkpt>
      <trkpt lat="39.4560370" lon="-7.9788810">
        <ele>160.8</ele>
        <time>2019-07-11T09:07:51Z</time>
      </trkpt>
      <trkpt lat="39.4558740" lon="-7.9792250">
        <ele>159.8</ele>
        <time>2019-07-11T09:07:55Z</time>
      </trkpt>
      <trkpt lat="39.4558320" lon="-7.9793140">
        <ele>159.4</ele>
        <time>2019-07-11T09:07:56Z</time>
      </trkpt>
      <trkpt lat="39.4557440" lon="-7.9794960">
        <ele>158.8</ele>
        <time>2019-07-11T09:07:58Z</time>
      </trkpt>
      <trkpt lat="39.4556560" lon="-7.9796870">
        <ele>158.2</ele>
        <time>2019-07-11T09:08:00Z</time>
      </trkpt>
      <trkpt lat="39.4555180" lon="-7.9799870">
        <ele>157.2</ele>
        <time>2019-07-11T09:08:03Z</time>
      </trkpt>
      <trkpt lat="39.4554200" lon="-7.9801970">
        <ele>156.0</ele>
        <time>2019-07-11T09:08:05Z</time>
      </trkpt>
      <trkpt lat="39.4553700" lon="-7.9803050">
        <ele>155.6</ele>
        <time>2019-07-11T09:08:06Z</time>
      </trkpt>
      <trkpt lat="39.4552670" lon="-7.9805300">
        <ele>154.6</ele>
        <time>2019-07-11T09:08:08Z</time>
      </trkpt>
      <trkpt lat="39.4551590" lon="-7.9807620">
        <ele>153.4</ele>
        <time>2019-07-11T09:08:10Z</time>
      </trkpt>
      <trkpt lat="39.4550470" lon="-7.9810050">
        <ele>152.4</ele>
        <time>2019-07-11T09:08:12Z</time>
      </trkpt>
      <trkpt lat="39.4549980" lon="-7.9811330">
        <ele>151.6</ele>
        <time>2019-07-11T09:08:13Z</time>
      </trkpt>
      <trkpt lat="39.4549550" lon="-7.9812670">
        <ele>151.0</ele>
        <time>2019-07-11T09:08:14Z</time>
      </trkpt>
      <trkpt lat="39.4548870" lon="-7.9815510">
        <ele>150.0</ele>
        <time>2019-07-11T09:08:16Z</time>
      </trkpt>
      <trkpt lat="39.4548670" lon="-7.9817000">
        <ele>149.0</ele>
        <time>2019-07-11T09:08:17Z</time>
      </trkpt>
      <trkpt lat="39.4548560" lon="-7.9818510">
        <ele>148.2</ele>
        <time>2019-07-11T09:08:18Z</time>
      </trkpt>
      <trkpt lat="39.4548590" lon="-7.9821590">
        <ele>146.2</ele>
        <time>2019-07-11T09:08:20Z</time>
      </trkpt>
      <trkpt lat="39.4548730" lon="-7.9823130">
        <ele>145.4</ele>
        <time>2019-07-11T09:08:21Z</time>
      </trkpt>
      <trkpt lat="39.4548990" lon="-7.9824660">
        <ele>144.6</ele>
        <time>2019-07-11T09:08:22Z</time>
      </trkpt>
      <trkpt lat="39.4549800" lon="-7.9827630">
        <ele>143.4</ele>
        <time>2019-07-11T09:08:24Z</time>
      </trkpt>
      <trkpt lat="39.4550870" lon="-7.9830500">
        <ele>142.2</ele>
        <time>2019-07-11T09:08:26Z</time>
      </trkpt>
      <trkpt lat="39.4551480" lon="-7.9831910">
        <ele>141.2</ele>
        <time>2019-07-11T09:08:27Z</time>
      </trkpt>
      <trkpt lat="39.4552830" lon="-7.9834660">
        <ele>139.8</ele>
        <time>2019-07-11T09:08:29Z</time>
      </trkpt>
      <trkpt lat="39.4554220" lon="-7.9837440">
        <ele>138.4</ele>
        <time>2019-07-11T09:08:31Z</time>
      </trkpt>
      <trkpt lat="39.4556280" lon="-7.9841670">
        <ele>136.6</ele>
        <time>2019-07-11T09:08:34Z</time>
      </trkpt>
      <trkpt lat="39.4557540" lon="-7.9844540">
        <ele>135.0</ele>
        <time>2019-07-11T09:08:36Z</time>
      </trkpt>
      <trkpt lat="39.4558130" lon="-7.9845990">
        <ele>134.6</ele>
        <time>2019-07-11T09:08:37Z</time>
      </trkpt>
      <trkpt lat="39.4558710" lon="-7.9847460">
        <ele>134.0</ele>
        <time>2019-07-11T09:08:38Z</time>
      </trkpt>
      <trkpt lat="39.4559760" lon="-7.9850460">
        <ele>132.6</ele>
        <time>2019-07-11T09:08:40Z</time>
      </trkpt>
      <trkpt lat="39.4560740" lon="-7.9853500">
        <ele>131.2</ele>
        <time>2019-07-11T09:08:42Z</time>
      </trkpt>
      <trkpt lat="39.4561200" lon="-7.9855010">
        <ele>130.4</ele>
        <time>2019-07-11T09:08:43Z</time>
      </trkpt>
      <trkpt lat="39.4561650" lon="-7.9856520">
        <ele>129.6</ele>
        <time>2019-07-11T09:08:44Z</time>
      </trkpt>
      <trkpt lat="39.4562540" lon="-7.9859540">
        <ele>128.6</ele>
        <time>2019-07-11T09:08:46Z</time>
      </trkpt>
      <trkpt lat="39.4563830" lon="-7.9864030">
        <ele>127.2</ele>
        <time>2019-07-11T09:08:49Z</time>
      </trkpt>
      <trkpt lat="39.4564640" lon="-7.9866990">
        <ele>125.8</ele>
        <time>2019-07-11T09:08:51Z</time>
      </trkpt>
      <trkpt lat="39.4565430" lon="-7.9869880">
        <ele>125.4</ele>
        <time>2019-07-11T09:08:53Z</time>
      </trkpt>
      <trkpt lat="39.4566130" lon="-7.9872720">
        <ele>125.0</ele>
        <time>2019-07-11T09:08:55Z</time>
      </trkpt>
      <trkpt lat="39.4566960" lon="-7.9876940">
        <ele>123.8</ele>
        <time>2019-07-11T09:08:58Z</time>
      </trkpt>
      <trkpt lat="39.4567210" lon="-7.9878330">
        <ele>123.2</ele>
        <time>2019-07-11T09:08:59Z</time>
      </trkpt>
      <trkpt lat="39.4567790" lon="-7.9882410">
        <ele>122.4</ele>
        <time>2019-07-11T09:09:02Z</time>
      </trkpt>
      <trkpt lat="39.4568160" lon="-7.9886370">
        <ele>121.4</ele>
        <time>2019-07-11T09:09:05Z</time>
      </trkpt>
      <trkpt lat="39.4568250" lon="-7.9887670">
        <ele>121.2</ele>
        <time>2019-07-11T09:09:06Z</time>
      </trkpt>
      <trkpt lat="39.4568560" lon="-7.9893850">
        <ele>120.4</ele>
        <time>2019-07-11T09:09:11Z</time>
      </trkpt>
      <trkpt lat="39.4568600" lon="-7.9895050">
        <ele>120.4</ele>
        <time>2019-07-11T09:09:12Z</time>
      </trkpt>
      <trkpt lat="39.4568690" lon="-7.9897440">
        <ele>120.4</ele>
        <time>2019-07-11T09:09:14Z</time>
      </trkpt>
      <trkpt lat="39.4568980" lon="-7.9904420">
        <ele>119.8</ele>
        <time>2019-07-11T09:09:20Z</time>
      </trkpt>
      <trkpt lat="39.4569080" lon="-7.9906670">
        <ele>119.8</ele>
        <time>2019-07-11T09:09:22Z</time>
      </trkpt>
      <trkpt lat="39.4569170" lon="-7.9914120">
        <ele>119.8</ele>
        <time>2019-07-11T09:09:29Z</time>
      </trkpt>
      <trkpt lat="39.4568950" lon="-7.9921340">
        <ele>119.6</ele>
        <time>2019-07-11T09:09:36Z</time>
      </trkpt>
      <trkpt lat="39.4568780" lon="-7.9924400">
        <ele>119.4</ele>
        <time>2019-07-11T09:09:39Z</time>
      </trkpt>
      <trkpt lat="39.4568380" lon="-7.9931200">
        <ele>119.4</ele>
        <time>2019-07-11T09:09:46Z</time>
      </trkpt>
      <trkpt lat="39.4568260" lon="-7.9933030">
        <ele>119.4</ele>
        <time>2019-07-11T09:09:48Z</time>
      </trkpt>
      <trkpt lat="39.4567920" lon="-7.9938600">
        <ele>119.0</ele>
        <time>2019-07-11T09:09:55Z</time>
      </trkpt>
      <trkpt lat="39.4567910" lon="-7.9939970">
        <ele>119.0</ele>
        <time>2019-07-11T09:09:58Z</time>
      </trkpt>
      <trkpt lat="39.4567870" lon="-7.9940590">
        <ele>119.2</ele>
        <time>2019-07-11T09:10:03Z</time>
      </trkpt>
      <trkpt lat="39.4567520" lon="-7.9940290">
        <ele>119.4</ele>
        <time>2019-07-11T09:10:26Z</time>
      </trkpt>
      <trkpt lat="39.4567420" lon="-7.9939630">
        <ele>119.6</ele>
        <time>2019-07-11T09:10:28Z</time>
      </trkpt>
      <trkpt lat="39.4567300" lon="-7.9937700">
        <ele>119.4</ele>
        <time>2019-07-11T09:10:32Z</time>
      </trkpt>
      <trkpt lat="39.4567300" lon="-7.9937150">
        <ele>119.4</ele>
        <time>2019-07-11T09:10:33Z</time>
      </trkpt>
      <trkpt lat="39.4567420" lon="-7.9933500">
        <ele>119.0</ele>
        <time>2019-07-11T09:10:39Z</time>
      </trkpt>
      <trkpt lat="39.4567750" lon="-7.9927470">
        <ele>119.0</ele>
        <time>2019-07-11T09:10:48Z</time>
      </trkpt>
      <trkpt lat="39.4567890" lon="-7.9926780">
        <ele>118.8</ele>
        <time>2019-07-11T09:10:49Z</time>
      </trkpt>
      <trkpt lat="39.4568000" lon="-7.9926100">
        <ele>118.8</ele>
        <time>2019-07-11T09:10:50Z</time>
      </trkpt>
      <trkpt lat="39.4568310" lon="-7.9922660">
        <ele>118.8</ele>
        <time>2019-07-11T09:10:55Z</time>
      </trkpt>
      <trkpt lat="39.4568490" lon="-7.9918190">
        <ele>119.4</ele>
        <time>2019-07-11T09:11:02Z</time>
      </trkpt>
      <trkpt lat="39.4568570" lon="-7.9917590">
        <ele>119.4</ele>
        <time>2019-07-11T09:11:03Z</time>
      </trkpt>
      <trkpt lat="39.4569490" lon="-7.9916550">
        <ele>119.2</ele>
        <time>2019-07-11T09:11:06Z</time>
      </trkpt>
      <trkpt lat="39.4570630" lon="-7.9917320">
        <ele>119.2</ele>
        <time>2019-07-11T09:11:09Z</time>
      </trkpt>
      <trkpt lat="39.4571390" lon="-7.9919730">
        <ele>119.0</ele>
        <time>2019-07-11T09:11:13Z</time>
      </trkpt>
      <trkpt lat="39.4571240" lon="-7.9921800">
        <ele>118.8</ele>
        <time>2019-07-11T09:11:16Z</time>
      </trkpt>
      <trkpt lat="39.4571150" lon="-7.9923270">
        <ele>118.6</ele>
        <time>2019-07-11T09:11:18Z</time>
      </trkpt>
      <trkpt lat="39.4570810" lon="-7.9928800">
        <ele>118.2</ele>
        <time>2019-07-11T09:11:25Z</time>
      </trkpt>
      <trkpt lat="39.4570770" lon="-7.9930450">
        <ele>118.0</ele>
        <time>2019-07-11T09:11:27Z</time>
      </trkpt>
      <trkpt lat="39.4571000" lon="-7.9938020">
        <ele>117.6</ele>
        <time>2019-07-11T09:11:36Z</time>
      </trkpt>
      <trkpt lat="39.4571090" lon="-7.9938870">
        <ele>117.4</ele>
        <time>2019-07-11T09:11:37Z</time>
      </trkpt>
      <trkpt lat="39.4572050" lon="-7.9944750">
        <ele>117.2</ele>
        <time>2019-07-11T09:11:44Z</time>
      </trkpt>
      <trkpt lat="39.4572340" lon="-7.9945490">
        <ele>117.4</ele>
        <time>2019-07-11T09:11:45Z</time>
      </trkpt>
      <trkpt lat="39.4574130" lon="-7.9948340">
        <ele>118.0</ele>
        <time>2019-07-11T09:11:50Z</time>
      </trkpt>
      <trkpt lat="39.4575540" lon="-7.9949940">
        <ele>119.2</ele>
        <time>2019-07-11T09:11:54Z</time>
      </trkpt>
      <trkpt lat="39.4575850" lon="-7.9950320">
        <ele>119.4</ele>
        <time>2019-07-11T09:11:55Z</time>
      </trkpt>
      <trkpt lat="39.4576810" lon="-7.9951350">
        <ele>120.2</ele>
        <time>2019-07-11T09:11:58Z</time>
      </trkpt>
      <trkpt lat="39.4577460" lon="-7.9951950">
        <ele>120.6</ele>
        <time>2019-07-11T09:12:00Z</time>
      </trkpt>
      <trkpt lat="39.4578420" lon="-7.9952860">
        <ele>121.2</ele>
        <time>2019-07-11T09:12:03Z</time>
      </trkpt>
      <trkpt lat="39.4578720" lon="-7.9953160">
        <ele>121.4</ele>
        <time>2019-07-11T09:12:04Z</time>
      </trkpt>
      <trkpt lat="39.4579020" lon="-7.9953450">
        <ele>121.6</ele>
        <time>2019-07-11T09:12:05Z</time>
      </trkpt>
      <trkpt lat="39.4580360" lon="-7.9954370">
        <ele>122.8</ele>
        <time>2019-07-11T09:12:09Z</time>
      </trkpt>
      <trkpt lat="39.4581020" lon="-7.9954850">
        <ele>123.0</ele>
        <time>2019-07-11T09:12:11Z</time>
      </trkpt>
      <trkpt lat="39.4581910" lon="-7.9955550">
        <ele>123.8</ele>
        <time>2019-07-11T09:12:14Z</time>
      </trkpt>
      <trkpt lat="39.4582810" lon="-7.9955910">
        <ele>124.4</ele>
        <time>2019-07-11T09:12:17Z</time>
      </trkpt>
      <trkpt lat="39.4583790" lon="-7.9956220">
        <ele>125.0</ele>
        <time>2019-07-11T09:12:20Z</time>
      </trkpt>
      <trkpt lat="39.4585240" lon="-7.9956460">
        <ele>125.4</ele>
        <time>2019-07-11T09:12:24Z</time>
      </trkpt>
      <trkpt lat="39.4586850" lon="-7.9956880">
        <ele>125.8</ele>
        <time>2019-07-11T09:12:28Z</time>
      </trkpt>
      <trkpt lat="39.4587190" lon="-7.9957190">
        <ele>125.8</ele>
        <time>2019-07-11T09:12:29Z</time>
      </trkpt>
      <trkpt lat="39.4587470" lon="-7.9958760">
        <ele>126.0</ele>
        <time>2019-07-11T09:12:32Z</time>
      </trkpt>
      <trkpt lat="39.4587110" lon="-7.9959710">
        <ele>126.2</ele>
        <time>2019-07-11T09:12:34Z</time>
      </trkpt>
      <trkpt lat="39.4586660" lon="-7.9960490">
        <ele>126.8</ele>
        <time>2019-07-11T09:12:36Z</time>
      </trkpt>
      <trkpt lat="39.4586210" lon="-7.9961290">
        <ele>127.0</ele>
        <time>2019-07-11T09:12:38Z</time>
      </trkpt>
      <trkpt lat="39.4585540" lon="-7.9963070">
        <ele>126.8</ele>
        <time>2019-07-11T09:12:42Z</time>
      </trkpt>
      <trkpt lat="39.4584700" lon="-7.9967180">
        <ele>127.2</ele>
        <time>2019-07-11T09:12:50Z</time>
      </trkpt>
      <trkpt lat="39.4584480" lon="-7.9968320">
        <ele>127.2</ele>
        <time>2019-07-11T09:12:52Z</time>
      </trkpt>
      <trkpt lat="39.4584270" lon="-7.9971390">
        <ele>127.4</ele>
        <time>2019-07-11T09:12:57Z</time>
      </trkpt>
      <trkpt lat="39.4584230" lon="-7.9972020">
        <ele>127.6</ele>
        <time>2019-07-11T09:12:58Z</time>
      </trkpt>
      <trkpt lat="39.4584240" lon="-7.9972680">
        <ele>127.6</ele>
        <time>2019-07-11T09:12:59Z</time>
      </trkpt>
      <trkpt lat="39.4584600" lon="-7.9974620">
        <ele>127.6</ele>
        <time>2019-07-11T09:13:02Z</time>
      </trkpt>
      <trkpt lat="39.4586210" lon="-7.9976400">
        <ele>127.6</ele>
        <time>2019-07-11T09:13:06Z</time>
      </trkpt>
      <trkpt lat="39.4587580" lon="-7.9977710">
        <ele>127.6</ele>
        <time>2019-07-11T09:13:09Z</time>
      </trkpt>
      <trkpt lat="39.4588280" lon="-7.9978850">
        <ele>127.6</ele>
        <time>2019-07-11T09:13:11Z</time>
      </trkpt>
      <trkpt lat="39.4588590" lon="-7.9979450">
        <ele>127.6</ele>
        <time>2019-07-11T09:13:12Z</time>
      </trkpt>
      <trkpt lat="39.4590080" lon="-7.9983200">
        <ele>127.6</ele>
        <time>2019-07-11T09:13:18Z</time>
      </trkpt>
      <trkpt lat="39.4590340" lon="-7.9985320">
        <ele>127.6</ele>
        <time>2019-07-11T09:13:21Z</time>
      </trkpt>
      <trkpt lat="39.4590320" lon="-7.9986730">
        <ele>127.8</ele>
        <time>2019-07-11T09:13:23Z</time>
      </trkpt>
      <trkpt lat="39.4590140" lon="-7.9988130">
        <ele>127.6</ele>
        <time>2019-07-11T09:13:25Z</time>
      </trkpt>
      <trkpt lat="39.4589680" lon="-7.9990190">
        <ele>127.4</ele>
        <time>2019-07-11T09:13:28Z</time>
      </trkpt>
      <trkpt lat="39.4589560" lon="-7.9990890">
        <ele>127.4</ele>
        <time>2019-07-11T09:13:29Z</time>
      </trkpt>
      <trkpt lat="39.4589690" lon="-7.9992310">
        <ele>127.4</ele>
        <time>2019-07-11T09:13:31Z</time>
      </trkpt>
      <trkpt lat="39.4590330" lon="-7.9993520">
        <ele>127.4</ele>
        <time>2019-07-11T09:13:33Z</time>
      </trkpt>
      <trkpt lat="39.4590790" lon="-7.9994020">
        <ele>127.4</ele>
        <time>2019-07-11T09:13:34Z</time>
      </trkpt>
      <trkpt lat="39.4591280" lon="-7.9994470">
        <ele>127.2</ele>
        <time>2019-07-11T09:13:35Z</time>
      </trkpt>
      <trkpt lat="39.4592830" lon="-7.9995600">
        <ele>127.4</ele>
        <time>2019-07-11T09:13:38Z</time>
      </trkpt>
      <trkpt lat="39.4593930" lon="-7.9996160">
        <ele>127.4</ele>
        <time>2019-07-11T09:13:40Z</time>
      </trkpt>
      <trkpt lat="39.4595000" lon="-7.9996780">
        <ele>127.4</ele>
        <time>2019-07-11T09:13:42Z</time>
      </trkpt>
      <trkpt lat="39.4596530" lon="-7.9997780">
        <ele>127.4</ele>
        <time>2019-07-11T09:13:45Z</time>
      </trkpt>
      <trkpt lat="39.4597090" lon="-7.9998000">
        <ele>127.4</ele>
        <time>2019-07-11T09:13:46Z</time>
      </trkpt>
      <trkpt lat="39.4599480" lon="-7.9998090">
        <ele>127.2</ele>
        <time>2019-07-11T09:13:50Z</time>
      </trkpt>
      <trkpt lat="39.4601360" lon="-7.9997990">
        <ele>126.6</ele>
        <time>2019-07-11T09:13:53Z</time>
      </trkpt>
      <trkpt lat="39.4602540" lon="-7.9998550">
        <ele>126.4</ele>
        <time>2019-07-11T09:13:55Z</time>
      </trkpt>
      <trkpt lat="39.4603370" lon="-8.0000690">
        <ele>126.2</ele>
        <time>2019-07-11T09:13:58Z</time>
      </trkpt>
      <trkpt lat="39.4602860" lon="-8.0002890">
        <ele>126.2</ele>
        <time>2019-07-11T09:14:01Z</time>
      </trkpt>
      <trkpt lat="39.4601760" lon="-8.0004660">
        <ele>126.2</ele>
        <time>2019-07-11T09:14:04Z</time>
      </trkpt>
      <trkpt lat="39.4601400" lon="-8.0005240">
        <ele>126.2</ele>
        <time>2019-07-11T09:14:05Z</time>
      </trkpt>
      <trkpt lat="39.4601150" lon="-8.0005960">
        <ele>126.2</ele>
        <time>2019-07-11T09:14:06Z</time>
      </trkpt>
      <trkpt lat="39.4601140" lon="-8.0007720">
        <ele>125.6</ele>
        <time>2019-07-11T09:14:08Z</time>
      </trkpt>
      <trkpt lat="39.4601290" lon="-8.0008720">
        <ele>125.2</ele>
        <time>2019-07-11T09:14:09Z</time>
      </trkpt>
      <trkpt lat="39.4601500" lon="-8.0009770">
        <ele>124.4</ele>
        <time>2019-07-11T09:14:10Z</time>
      </trkpt>
      <trkpt lat="39.4601900" lon="-8.0011930">
        <ele>122.6</ele>
        <time>2019-07-11T09:14:12Z</time>
      </trkpt>
      <trkpt lat="39.4602240" lon="-8.0014030">
        <ele>121.8</ele>
        <time>2019-07-11T09:14:14Z</time>
      </trkpt>
      <trkpt lat="39.4602390" lon="-8.0015020">
        <ele>121.8</ele>
        <time>2019-07-11T09:14:15Z</time>
      </trkpt>
      <trkpt lat="39.4602720" lon="-8.0016880">
        <ele>121.6</ele>
        <time>2019-07-11T09:14:17Z</time>
      </trkpt>
      <trkpt lat="39.4603510" lon="-8.0019360">
        <ele>121.6</ele>
        <time>2019-07-11T09:14:20Z</time>
      </trkpt>
      <trkpt lat="39.4605160" lon="-8.0020910">
        <ele>121.4</ele>
        <time>2019-07-11T09:14:23Z</time>
      </trkpt>
      <trkpt lat="39.4607590" lon="-8.0021100">
        <ele>120.2</ele>
        <time>2019-07-11T09:14:26Z</time>
      </trkpt>
      <trkpt lat="39.4609360" lon="-8.0021120">
        <ele>119.2</ele>
        <time>2019-07-11T09:14:28Z</time>
      </trkpt>
      <trkpt lat="39.4611140" lon="-8.0021900">
        <ele>118.0</ele>
        <time>2019-07-11T09:14:30Z</time>
      </trkpt>
      <trkpt lat="39.4611940" lon="-8.0022630">
        <ele>117.2</ele>
        <time>2019-07-11T09:14:31Z</time>
      </trkpt>
      <trkpt lat="39.4612690" lon="-8.0023470">
        <ele>116.6</ele>
        <time>2019-07-11T09:14:32Z</time>
      </trkpt>
      <trkpt lat="39.4613430" lon="-8.0024390">
        <ele>116.0</ele>
        <time>2019-07-11T09:14:33Z</time>
      </trkpt>
      <trkpt lat="39.4614150" lon="-8.0025380">
        <ele>115.4</ele>
        <time>2019-07-11T09:14:34Z</time>
      </trkpt>
      <trkpt lat="39.4615390" lon="-8.0027410">
        <ele>114.0</ele>
        <time>2019-07-11T09:14:36Z</time>
      </trkpt>
      <trkpt lat="39.4615950" lon="-8.0028350">
        <ele>113.0</ele>
        <time>2019-07-11T09:14:37Z</time>
      </trkpt>
      <trkpt lat="39.4616550" lon="-8.0029210">
        <ele>112.6</ele>
        <time>2019-07-11T09:14:38Z</time>
      </trkpt>
      <trkpt lat="39.4617920" lon="-8.0030360">
        <ele>111.0</ele>
        <time>2019-07-11T09:14:40Z</time>
      </trkpt>
      <trkpt lat="39.4619380" lon="-8.0030510">
        <ele>109.8</ele>
        <time>2019-07-11T09:14:42Z</time>
      </trkpt>
      <trkpt lat="39.4620090" lon="-8.0030280">
        <ele>109.2</ele>
        <time>2019-07-11T09:14:43Z</time>
      </trkpt>
      <trkpt lat="39.4620820" lon="-8.0029970">
        <ele>108.4</ele>
        <time>2019-07-11T09:14:44Z</time>
      </trkpt>
      <trkpt lat="39.4622320" lon="-8.0029590">
        <ele>107.6</ele>
        <time>2019-07-11T09:14:46Z</time>
      </trkpt>
      <trkpt lat="39.4623080" lon="-8.0029650">
        <ele>107.0</ele>
        <time>2019-07-11T09:14:47Z</time>
      </trkpt>
      <trkpt lat="39.4624230" lon="-8.0030840">
        <ele>105.6</ele>
        <time>2019-07-11T09:14:49Z</time>
      </trkpt>
      <trkpt lat="39.4624790" lon="-8.0032780">
        <ele>104.2</ele>
        <time>2019-07-11T09:14:51Z</time>
      </trkpt>
      <trkpt lat="39.4624940" lon="-8.0033870">
        <ele>103.6</ele>
        <time>2019-07-11T09:14:52Z</time>
      </trkpt>
      <trkpt lat="39.4625050" lon="-8.0035010">
        <ele>103.2</ele>
        <time>2019-07-11T09:14:53Z</time>
      </trkpt>
      <trkpt lat="39.4625140" lon="-8.0036160">
        <ele>102.6</ele>
        <time>2019-07-11T09:14:54Z</time>
      </trkpt>
      <trkpt lat="39.4625350" lon="-8.0038550">
        <ele>101.4</ele>
        <time>2019-07-11T09:14:56Z</time>
      </trkpt>
      <trkpt lat="39.4625740" lon="-8.0041050">
        <ele>100.2</ele>
        <time>2019-07-11T09:14:58Z</time>
      </trkpt>
      <trkpt lat="39.4626340" lon="-8.0043620">
        <ele>98.4</ele>
        <time>2019-07-11T09:15:00Z</time>
      </trkpt>
      <trkpt lat="39.4627070" lon="-8.0046140">
        <ele>97.0</ele>
        <time>2019-07-11T09:15:02Z</time>
      </trkpt>
      <trkpt lat="39.4627470" lon="-8.0047310">
        <ele>96.0</ele>
        <time>2019-07-11T09:15:03Z</time>
      </trkpt>
      <trkpt lat="39.4627880" lon="-8.0048400">
        <ele>95.2</ele>
        <time>2019-07-11T09:15:04Z</time>
      </trkpt>
      <trkpt lat="39.4628760" lon="-8.0050250">
        <ele>94.0</ele>
        <time>2019-07-11T09:15:06Z</time>
      </trkpt>
      <trkpt lat="39.4629300" lon="-8.0051030">
        <ele>93.6</ele>
        <time>2019-07-11T09:15:07Z</time>
      </trkpt>
      <trkpt lat="39.4629960" lon="-8.0051740">
        <ele>92.8</ele>
        <time>2019-07-11T09:15:08Z</time>
      </trkpt>
      <trkpt lat="39.4631570" lon="-8.0052870">
        <ele>91.4</ele>
        <time>2019-07-11T09:15:10Z</time>
      </trkpt>
      <trkpt lat="39.4632490" lon="-8.0053370">
        <ele>90.4</ele>
        <time>2019-07-11T09:15:11Z</time>
      </trkpt>
      <trkpt lat="39.4633420" lon="-8.0053910">
        <ele>89.6</ele>
        <time>2019-07-11T09:15:12Z</time>
      </trkpt>
      <trkpt lat="39.4635320" lon="-8.0055070">
        <ele>88.2</ele>
        <time>2019-07-11T09:15:14Z</time>
      </trkpt>
      <trkpt lat="39.4636330" lon="-8.0055580">
        <ele>87.4</ele>
        <time>2019-07-11T09:15:15Z</time>
      </trkpt>
      <trkpt lat="39.4637360" lon="-8.0056040">
        <ele>86.4</ele>
        <time>2019-07-11T09:15:16Z</time>
      </trkpt>
      <trkpt lat="39.4639410" lon="-8.0056850">
        <ele>84.8</ele>
        <time>2019-07-11T09:15:18Z</time>
      </trkpt>
      <trkpt lat="39.4641370" lon="-8.0057590">
        <ele>83.6</ele>
        <time>2019-07-11T09:15:20Z</time>
      </trkpt>
      <trkpt lat="39.4642300" lon="-8.0058030">
        <ele>82.8</ele>
        <time>2019-07-11T09:15:21Z</time>
      </trkpt>
      <trkpt lat="39.4643180" lon="-8.0058540">
        <ele>82.4</ele>
        <time>2019-07-11T09:15:22Z</time>
      </trkpt>
      <trkpt lat="39.4644990" lon="-8.0059360">
        <ele>80.6</ele>
        <time>2019-07-11T09:15:24Z</time>
      </trkpt>
      <trkpt lat="39.4646930" lon="-8.0059830">
        <ele>79.6</ele>
        <time>2019-07-11T09:15:26Z</time>
      </trkpt>
      <trkpt lat="39.4647900" lon="-8.0060140">
        <ele>78.8</ele>
        <time>2019-07-11T09:15:27Z</time>
      </trkpt>
      <trkpt lat="39.4648830" lon="-8.0060640">
        <ele>78.2</ele>
        <time>2019-07-11T09:15:28Z</time>
      </trkpt>
      <trkpt lat="39.4649720" lon="-8.0061330">
        <ele>77.2</ele>
        <time>2019-07-11T09:15:29Z</time>
      </trkpt>
      <trkpt lat="39.4650620" lon="-8.0062060">
        <ele>76.6</ele>
        <time>2019-07-11T09:15:30Z</time>
      </trkpt>
      <trkpt lat="39.4652570" lon="-8.0063350">
        <ele>74.4</ele>
        <time>2019-07-11T09:15:32Z</time>
      </trkpt>
      <trkpt lat="39.4653610" lon="-8.0063810">
        <ele>73.6</ele>
        <time>2019-07-11T09:15:33Z</time>
      </trkpt>
      <trkpt lat="39.4654630" lon="-8.0064170">
        <ele>73.0</ele>
        <time>2019-07-11T09:15:34Z</time>
      </trkpt>
      <trkpt lat="39.4656420" lon="-8.0064620">
        <ele>71.4</ele>
        <time>2019-07-11T09:15:36Z</time>
      </trkpt>
      <trkpt lat="39.4657820" lon="-8.0064730">
        <ele>70.2</ele>
        <time>2019-07-11T09:15:38Z</time>
      </trkpt>
      <trkpt lat="39.4658360" lon="-8.0064670">
        <ele>69.6</ele>
        <time>2019-07-11T09:15:39Z</time>
      </trkpt>
      <trkpt lat="39.4658810" lon="-8.0064580">
        <ele>68.8</ele>
        <time>2019-07-11T09:15:40Z</time>
      </trkpt>
      <trkpt lat="39.4659830" lon="-8.0064840">
        <ele>67.6</ele>
        <time>2019-07-11T09:15:43Z</time>
      </trkpt>
      <trkpt lat="39.4660070" lon="-8.0066370">
        <ele>67.0</ele>
        <time>2019-07-11T09:15:46Z</time>
      </trkpt>
      <trkpt lat="39.4659760" lon="-8.0067530">
        <ele>66.6</ele>
        <time>2019-07-11T09:15:48Z</time>
      </trkpt>
      <trkpt lat="39.4659580" lon="-8.0068120">
        <ele>66.6</ele>
        <time>2019-07-11T09:15:49Z</time>
      </trkpt>
      <trkpt lat="39.4659040" lon="-8.0069940">
        <ele>66.4</ele>
        <time>2019-07-11T09:15:52Z</time>
      </trkpt>
      <trkpt lat="39.4658540" lon="-8.0071640">
        <ele>66.6</ele>
        <time>2019-07-11T09:15:55Z</time>
      </trkpt>
      <trkpt lat="39.4658330" lon="-8.0072190">
        <ele>66.6</ele>
        <time>2019-07-11T09:15:56Z</time>
      </trkpt>
      <trkpt lat="39.4657500" lon="-8.0073660">
        <ele>66.8</ele>
        <time>2019-07-11T09:15:59Z</time>
      </trkpt>
      <trkpt lat="39.4656540" lon="-8.0074960">
        <ele>67.0</ele>
        <time>2019-07-11T09:16:02Z</time>
      </trkpt>
      <trkpt lat="39.4655790" lon="-8.0075700">
        <ele>67.0</ele>
        <time>2019-07-11T09:16:04Z</time>
      </trkpt>
      <trkpt lat="39.4655370" lon="-8.0075980">
        <ele>67.2</ele>
        <time>2019-07-11T09:16:05Z</time>
      </trkpt>
      <trkpt lat="39.4654070" lon="-8.0076440">
        <ele>67.2</ele>
        <time>2019-07-11T09:16:08Z</time>
      </trkpt>
      <trkpt lat="39.4653190" lon="-8.0076660">
        <ele>67.4</ele>
        <time>2019-07-11T09:16:10Z</time>
      </trkpt>
      <trkpt lat="39.4652000" lon="-8.0077110">
        <ele>67.8</ele>
        <time>2019-07-11T09:16:13Z</time>
      </trkpt>
      <trkpt lat="39.4651640" lon="-8.0077280">
        <ele>68.0</ele>
        <time>2019-07-11T09:16:14Z</time>
      </trkpt>
      <trkpt lat="39.4651240" lon="-8.0077490">
        <ele>68.0</ele>
        <time>2019-07-11T09:16:15Z</time>
      </trkpt>
      <trkpt lat="39.4650080" lon="-8.0078330">
        <ele>68.6</ele>
        <time>2019-07-11T09:16:18Z</time>
      </trkpt>
      <trkpt lat="39.4649010" lon="-8.0079260">
        <ele>69.0</ele>
        <time>2019-07-11T09:16:21Z</time>
      </trkpt>
      <trkpt lat="39.4648660" lon="-8.0079560">
        <ele>69.0</ele>
        <time>2019-07-11T09:16:22Z</time>
      </trkpt>
      <trkpt lat="39.4647260" lon="-8.0080770">
        <ele>69.6</ele>
        <time>2019-07-11T09:16:26Z</time>
      </trkpt>
      <trkpt lat="39.4646680" lon="-8.0081580">
        <ele>70.0</ele>
        <time>2019-07-11T09:16:28Z</time>
      </trkpt>
      <trkpt lat="39.4646390" lon="-8.0081990">
        <ele>70.0</ele>
        <time>2019-07-11T09:16:29Z</time>
      </trkpt>
      <trkpt lat="39.4645840" lon="-8.0082820">
        <ele>70.2</ele>
        <time>2019-07-11T09:16:31Z</time>
      </trkpt>
      <trkpt lat="39.4645070" lon="-8.0084090">
        <ele>70.6</ele>
        <time>2019-07-11T09:16:34Z</time>
      </trkpt>
      <trkpt lat="39.4642780" lon="-8.0087230">
        <ele>71.2</ele>
        <time>2019-07-11T09:16:42Z</time>
      </trkpt>
      <trkpt lat="39.4642470" lon="-8.0087550">
        <ele>71.2</ele>
        <time>2019-07-11T09:16:43Z</time>
      </trkpt>
      <trkpt lat="39.4640810" lon="-8.0088610">
        <ele>72.0</ele>
        <time>2019-07-11T09:16:48Z</time>
      </trkpt>
      <trkpt lat="39.4639730" lon="-8.0089040">
        <ele>72.4</ele>
        <time>2019-07-11T09:16:51Z</time>
      </trkpt>
      <trkpt lat="39.4638270" lon="-8.0089280">
        <ele>73.4</ele>
        <time>2019-07-11T09:16:55Z</time>
      </trkpt>
      <trkpt lat="39.4637550" lon="-8.0089400">
        <ele>73.6</ele>
        <time>2019-07-11T09:16:57Z</time>
      </trkpt>
      <trkpt lat="39.4635770" lon="-8.0090040">
        <ele>74.4</ele>
        <time>2019-07-11T09:17:02Z</time>
      </trkpt>
      <trkpt lat="39.4634660" lon="-8.0090470">
        <ele>74.8</ele>
        <time>2019-07-11T09:17:05Z</time>
      </trkpt>
      <trkpt lat="39.4633230" lon="-8.0091290">
        <ele>75.2</ele>
        <time>2019-07-11T09:17:09Z</time>
      </trkpt>
      <trkpt lat="39.4630860" lon="-8.0092470">
        <ele>75.8</ele>
        <time>2019-07-11T09:17:16Z</time>
      </trkpt>
      <trkpt lat="39.4630220" lon="-8.0092810">
        <ele>76.4</ele>
        <time>2019-07-11T09:17:18Z</time>
      </trkpt>
      <trkpt lat="39.4629230" lon="-8.0093170">
        <ele>77.0</ele>
        <time>2019-07-11T09:17:21Z</time>
      </trkpt>
      <trkpt lat="39.4627650" lon="-8.0093900">
        <ele>77.6</ele>
        <time>2019-07-11T09:17:26Z</time>
      </trkpt>
      <trkpt lat="39.4627030" lon="-8.0094140">
        <ele>78.0</ele>
        <time>2019-07-11T09:17:28Z</time>
      </trkpt>
      <trkpt lat="39.4625540" lon="-8.0094760">
        <ele>79.6</ele>
        <time>2019-07-11T09:17:33Z</time>
      </trkpt>
      <trkpt lat="39.4625280" lon="-8.0094920">
        <ele>80.0</ele>
        <time>2019-07-11T09:17:34Z</time>
      </trkpt>
      <trkpt lat="39.4625010" lon="-8.0095060">
        <ele>80.2</ele>
        <time>2019-07-11T09:17:35Z</time>
      </trkpt>
      <trkpt lat="39.4624280" lon="-8.0095610">
        <ele>80.8</ele>
        <time>2019-07-11T09:17:38Z</time>
      </trkpt>
      <trkpt lat="39.4623270" lon="-8.0096120">
        <ele>81.6</ele>
        <time>2019-07-11T09:17:42Z</time>
      </trkpt>
      <trkpt lat="39.4623020" lon="-8.0096230">
        <ele>82.0</ele>
        <time>2019-07-11T09:17:43Z</time>
      </trkpt>
      <trkpt lat="39.4622160" lon="-8.0096920">
        <ele>83.2</ele>
        <time>2019-07-11T09:17:47Z</time>
      </trkpt>
      <trkpt lat="39.4622020" lon="-8.0097150">
        <ele>83.4</ele>
        <time>2019-07-11T09:17:48Z</time>
      </trkpt>
      <trkpt lat="39.4621820" lon="-8.0098020">
        <ele>84.2</ele>
        <time>2019-07-11T09:17:51Z</time>
      </trkpt>
      <trkpt lat="39.4621850" lon="-8.0099010">
        <ele>85.0</ele>
        <time>2019-07-11T09:17:54Z</time>
      </trkpt>
      <trkpt lat="39.4621860" lon="-8.0099720">
        <ele>85.4</ele>
        <time>2019-07-11T09:17:56Z</time>
      </trkpt>
      <trkpt lat="39.4621840" lon="-8.0100070">
        <ele>85.4</ele>
        <time>2019-07-11T09:17:57Z</time>
      </trkpt>
      <trkpt lat="39.4621820" lon="-8.0102360">
        <ele>86.8</ele>
        <time>2019-07-11T09:18:03Z</time>
      </trkpt>
      <trkpt lat="39.4621600" lon="-8.0105190">
        <ele>87.8</ele>
        <time>2019-07-11T09:18:10Z</time>
      </trkpt>
      <trkpt lat="39.4621560" lon="-8.0105590">
        <ele>87.8</ele>
        <time>2019-07-11T09:18:11Z</time>
      </trkpt>
      <trkpt lat="39.4620990" lon="-8.0107060">
        <ele>88.4</ele>
        <time>2019-07-11T09:18:15Z</time>
      </trkpt>
      <trkpt lat="39.4619610" lon="-8.0109210">
        <ele>88.8</ele>
        <time>2019-07-11T09:18:21Z</time>
      </trkpt>
      <trkpt lat="39.4619460" lon="-8.0109630">
        <ele>88.8</ele>
        <time>2019-07-11T09:18:22Z</time>
      </trkpt>
      <trkpt lat="39.4619290" lon="-8.0111050">
        <ele>89.0</ele>
        <time>2019-07-11T09:18:25Z</time>
      </trkpt>
      <trkpt lat="39.4619280" lon="-8.0111560">
        <ele>89.0</ele>
        <time>2019-07-11T09:18:26Z</time>
      </trkpt>
      <trkpt lat="39.4619180" lon="-8.0113570">
        <ele>89.2</ele>
        <time>2019-07-11T09:18:30Z</time>
      </trkpt>
      <trkpt lat="39.4619000" lon="-8.0115020">
        <ele>89.2</ele>
        <time>2019-07-11T09:18:33Z</time>
      </trkpt>
      <trkpt lat="39.4618950" lon="-8.0115480">
        <ele>89.4</ele>
        <time>2019-07-11T09:18:34Z</time>
      </trkpt>
      <trkpt lat="39.4619020" lon="-8.0116950">
        <ele>89.4</ele>
        <time>2019-07-11T09:18:37Z</time>
      </trkpt>
      <trkpt lat="39.4619160" lon="-8.0117980">
        <ele>89.6</ele>
        <time>2019-07-11T09:18:39Z</time>
      </trkpt>
      <trkpt lat="39.4619820" lon="-8.0120900">
        <ele>89.2</ele>
        <time>2019-07-11T09:18:44Z</time>
      </trkpt>
      <trkpt lat="39.4619930" lon="-8.0121550">
        <ele>89.2</ele>
        <time>2019-07-11T09:18:45Z</time>
      </trkpt>
      <trkpt lat="39.4620380" lon="-8.0125150">
        <ele>88.6</ele>
        <time>2019-07-11T09:18:50Z</time>
      </trkpt>
      <trkpt lat="39.4620470" lon="-8.0125920">
        <ele>88.6</ele>
        <time>2019-07-11T09:18:51Z</time>
      </trkpt>
      <trkpt lat="39.4620600" lon="-8.0127500">
        <ele>88.4</ele>
        <time>2019-07-11T09:18:53Z</time>
      </trkpt>
      <trkpt lat="39.4620810" lon="-8.0129890">
        <ele>87.8</ele>
        <time>2019-07-11T09:18:56Z</time>
      </trkpt>
      <trkpt lat="39.4621090" lon="-8.0132320">
        <ele>87.4</ele>
        <time>2019-07-11T09:18:59Z</time>
      </trkpt>
      <trkpt lat="39.4621620" lon="-8.0138460">
        <ele>86.6</ele>
        <time>2019-07-11T09:19:06Z</time>
      </trkpt>
      <trkpt lat="39.4621620" lon="-8.0141110">
        <ele>86.4</ele>
        <time>2019-07-11T09:19:09Z</time>
      </trkpt>
      <trkpt lat="39.4621300" lon="-8.0143780">
        <ele>85.8</ele>
        <time>2019-07-11T09:19:12Z</time>
      </trkpt>
      <trkpt lat="39.4621180" lon="-8.0144670">
        <ele>85.6</ele>
        <time>2019-07-11T09:19:13Z</time>
      </trkpt>
      <trkpt lat="39.4620570" lon="-8.0148450">
        <ele>84.6</ele>
        <time>2019-07-11T09:19:17Z</time>
      </trkpt>
      <trkpt lat="39.4620220" lon="-8.0150420">
        <ele>84.2</ele>
        <time>2019-07-11T09:19:19Z</time>
      </trkpt>
      <trkpt lat="39.4619400" lon="-8.0155520">
        <ele>83.4</ele>
        <time>2019-07-11T09:19:24Z</time>
      </trkpt>
      <trkpt lat="39.4619020" lon="-8.0157600">
        <ele>82.8</ele>
        <time>2019-07-11T09:19:26Z</time>
      </trkpt>
      <trkpt lat="39.4618490" lon="-8.0160780">
        <ele>82.4</ele>
        <time>2019-07-11T09:19:29Z</time>
      </trkpt>
      <trkpt lat="39.4617990" lon="-8.0164040">
        <ele>81.4</ele>
        <time>2019-07-11T09:19:32Z</time>
      </trkpt>
      <trkpt lat="39.4617570" lon="-8.0166200">
        <ele>80.8</ele>
        <time>2019-07-11T09:19:34Z</time>
      </trkpt>
      <trkpt lat="39.4617010" lon="-8.0169410">
        <ele>80.2</ele>
        <time>2019-07-11T09:19:37Z</time>
      </trkpt>
      <trkpt lat="39.4616350" lon="-8.0173710">
        <ele>79.4</ele>
        <time>2019-07-11T09:19:41Z</time>
      </trkpt>
      <trkpt lat="39.4616160" lon="-8.0174760">
        <ele>79.0</ele>
        <time>2019-07-11T09:19:42Z</time>
      </trkpt>
      <trkpt lat="39.4614990" lon="-8.0182020">
        <ele>78.2</ele>
        <time>2019-07-11T09:19:49Z</time>
      </trkpt>
      <trkpt lat="39.4614800" lon="-8.0183030">
        <ele>78.0</ele>
        <time>2019-07-11T09:19:50Z</time>
      </trkpt>
      <trkpt lat="39.4613640" lon="-8.0190080">
        <ele>77.0</ele>
        <time>2019-07-11T09:19:57Z</time>
      </trkpt>
      <trkpt lat="39.4613450" lon="-8.0191070">
        <ele>76.8</ele>
        <time>2019-07-11T09:19:58Z</time>
      </trkpt>
      <trkpt lat="39.4612470" lon="-8.0196970">
        <ele>76.0</ele>
        <time>2019-07-11T09:20:04Z</time>
      </trkpt>
      <trkpt lat="39.4611930" lon="-8.0199850">
        <ele>75.4</ele>
        <time>2019-07-11T09:20:07Z</time>
      </trkpt>
      <trkpt lat="39.4611610" lon="-8.0201810">
        <ele>75.2</ele>
        <time>2019-07-11T09:20:09Z</time>
      </trkpt>
      <trkpt lat="39.4611320" lon="-8.0203810">
        <ele>74.8</ele>
        <time>2019-07-11T09:20:11Z</time>
      </trkpt>
      <trkpt lat="39.4610730" lon="-8.0208860">
        <ele>74.2</ele>
        <time>2019-07-11T09:20:16Z</time>
      </trkpt>
      <trkpt lat="39.4610700" lon="-8.0214940">
        <ele>74.2</ele>
        <time>2019-07-11T09:20:22Z</time>
      </trkpt>
      <trkpt lat="39.4610720" lon="-8.0215930">
        <ele>74.2</ele>
        <time>2019-07-11T09:20:23Z</time>
      </trkpt>
      <trkpt lat="39.4610820" lon="-8.0220890">
        <ele>74.0</ele>
        <time>2019-07-11T09:20:28Z</time>
      </trkpt>
      <trkpt lat="39.4610840" lon="-8.0225780">
        <ele>73.8</ele>
        <time>2019-07-11T09:20:33Z</time>
      </trkpt>
      <trkpt lat="39.4610850" lon="-8.0231350">
        <ele>73.8</ele>
        <time>2019-07-11T09:20:39Z</time>
      </trkpt>
      <trkpt lat="39.4610860" lon="-8.0234050">
        <ele>74.0</ele>
        <time>2019-07-11T09:20:42Z</time>
      </trkpt>
      <trkpt lat="39.4611080" lon="-8.0239460">
        <ele>74.0</ele>
        <time>2019-07-11T09:20:48Z</time>
      </trkpt>
      <trkpt lat="39.4611760" lon="-8.0246410">
        <ele>74.2</ele>
        <time>2019-07-11T09:20:56Z</time>
      </trkpt>
      <trkpt lat="39.4611830" lon="-8.0247260">
        <ele>74.4</ele>
        <time>2019-07-11T09:20:57Z</time>
      </trkpt>
      <trkpt lat="39.4612600" lon="-8.0254670">
        <ele>74.0</ele>
        <time>2019-07-11T09:21:06Z</time>
      </trkpt>
      <trkpt lat="39.4612810" lon="-8.0261410">
        <ele>73.6</ele>
        <time>2019-07-11T09:21:14Z</time>
      </trkpt>
      <trkpt lat="39.4612810" lon="-8.0265650">
        <ele>73.2</ele>
        <time>2019-07-11T09:21:19Z</time>
      </trkpt>
      <trkpt lat="39.4612830" lon="-8.0269010">
        <ele>72.4</ele>
        <time>2019-07-11T09:21:23Z</time>
      </trkpt>
      <trkpt lat="39.4612770" lon="-8.0273160">
        <ele>73.0</ele>
        <time>2019-07-11T09:21:28Z</time>
      </trkpt>
      <trkpt lat="39.4612770" lon="-8.0275650">
        <ele>73.2</ele>
        <time>2019-07-11T09:21:31Z</time>
      </trkpt>
      <trkpt lat="39.4612740" lon="-8.0279820">
        <ele>73.2</ele>
        <time>2019-07-11T09:21:36Z</time>
      </trkpt>
      <trkpt lat="39.4612760" lon="-8.0282310">
        <ele>73.0</ele>
        <time>2019-07-11T09:21:39Z</time>
      </trkpt>
      <trkpt lat="39.4612760" lon="-8.0283120">
        <ele>73.0</ele>
        <time>2019-07-11T09:21:40Z</time>
      </trkpt>
      <trkpt lat="39.4612690" lon="-8.0286080">
        <ele>72.4</ele>
        <time>2019-07-11T09:21:44Z</time>
      </trkpt>
      <trkpt lat="39.4612760" lon="-8.0287400">
        <ele>72.2</ele>
        <time>2019-07-11T09:21:46Z</time>
      </trkpt>
      <trkpt lat="39.4613170" lon="-8.0293590">
        <ele>72.2</ele>
        <time>2019-07-11T09:21:55Z</time>
      </trkpt>
      <trkpt lat="39.4614130" lon="-8.0299500">
        <ele>72.2</ele>
        <time>2019-07-11T09:22:03Z</time>
      </trkpt>
      <trkpt lat="39.4615310" lon="-8.0305700">
        <ele>71.6</ele>
        <time>2019-07-11T09:22:11Z</time>
      </trkpt>
      <trkpt lat="39.4616020" lon="-8.0310360">
        <ele>71.8</ele>
        <time>2019-07-11T09:22:17Z</time>
      </trkpt>
      <trkpt lat="39.4616200" lon="-8.0311110">
        <ele>71.8</ele>
        <time>2019-07-11T09:22:18Z</time>
      </trkpt>
      <trkpt lat="39.4616890" lon="-8.0314180">
        <ele>72.0</ele>
        <time>2019-07-11T09:22:22Z</time>
      </trkpt>
      <trkpt lat="39.4617110" lon="-8.0315740">
        <ele>71.8</ele>
        <time>2019-07-11T09:22:24Z</time>
      </trkpt>
      <trkpt lat="39.4618030" lon="-8.0320330">
        <ele>72.0</ele>
        <time>2019-07-11T09:22:30Z</time>
      </trkpt>
      <trkpt lat="39.4619260" lon="-8.0326620">
        <ele>72.0</ele>
        <time>2019-07-11T09:22:38Z</time>
      </trkpt>
      <trkpt lat="39.4620380" lon="-8.0332740">
        <ele>72.0</ele>
        <time>2019-07-11T09:22:46Z</time>
      </trkpt>
      <trkpt lat="39.4620700" lon="-8.0335030">
        <ele>72.0</ele>
        <time>2019-07-11T09:22:49Z</time>
      </trkpt>
      <trkpt lat="39.4621220" lon="-8.0339660">
        <ele>71.6</ele>
        <time>2019-07-11T09:22:55Z</time>
      </trkpt>
      <trkpt lat="39.4622030" lon="-8.0346530">
        <ele>71.4</ele>
        <time>2019-07-11T09:23:04Z</time>
      </trkpt>
      <trkpt lat="39.4622850" lon="-8.0351810">
        <ele>71.8</ele>
        <time>2019-07-11T09:23:11Z</time>
      </trkpt>
      <trkpt lat="39.4624390" lon="-8.0356020">
        <ele>72.0</ele>
        <time>2019-07-11T09:23:17Z</time>
      </trkpt>
      <trkpt lat="39.4626740" lon="-8.0361720">
        <ele>71.0</ele>
        <time>2019-07-11T09:23:25Z</time>
      </trkpt>
      <trkpt lat="39.4628280" lon="-8.0365450">
        <ele>70.6</ele>
        <time>2019-07-11T09:23:30Z</time>
      </trkpt>
      <trkpt lat="39.4629230" lon="-8.0367720">
        <ele>70.6</ele>
        <time>2019-07-11T09:23:33Z</time>
      </trkpt>
      <trkpt lat="39.4630470" lon="-8.0370700">
        <ele>70.6</ele>
        <time>2019-07-11T09:23:37Z</time>
      </trkpt>
      <trkpt lat="39.4632180" lon="-8.0375140">
        <ele>70.2</ele>
        <time>2019-07-11T09:23:43Z</time>
      </trkpt>
      <trkpt lat="39.4632470" lon="-8.0375890">
        <ele>70.2</ele>
        <time>2019-07-11T09:23:44Z</time>
      </trkpt>
      <trkpt lat="39.4633510" lon="-8.0378980">
        <ele>70.0</ele>
        <time>2019-07-11T09:23:48Z</time>
      </trkpt>
      <trkpt lat="39.4633930" lon="-8.0380560">
        <ele>69.8</ele>
        <time>2019-07-11T09:23:50Z</time>
      </trkpt>
      <trkpt lat="39.4634100" lon="-8.0381360">
        <ele>69.6</ele>
        <time>2019-07-11T09:23:51Z</time>
      </trkpt>
      <trkpt lat="39.4634900" lon="-8.0384590">
        <ele>69.2</ele>
        <time>2019-07-11T09:23:55Z</time>
      </trkpt>
      <trkpt lat="39.4635450" lon="-8.0387010">
        <ele>68.6</ele>
        <time>2019-07-11T09:23:58Z</time>
      </trkpt>
      <trkpt lat="39.4636420" lon="-8.0390880">
        <ele>68.0</ele>
        <time>2019-07-11T09:24:03Z</time>
      </trkpt>
      <trkpt lat="39.4636750" lon="-8.0392450">
        <ele>67.8</ele>
        <time>2019-07-11T09:24:05Z</time>
      </trkpt>
      <trkpt lat="39.4637410" lon="-8.0395700">
        <ele>67.0</ele>
        <time>2019-07-11T09:24:09Z</time>
      </trkpt>
      <trkpt lat="39.4637790" lon="-8.0397290">
        <ele>66.8</ele>
        <time>2019-07-11T09:24:11Z</time>
      </trkpt>
      <trkpt lat="39.4638190" lon="-8.0398890">
        <ele>66.6</ele>
        <time>2019-07-11T09:24:13Z</time>
      </trkpt>
      <trkpt lat="39.4639300" lon="-8.0403810">
        <ele>66.4</ele>
        <time>2019-07-11T09:24:19Z</time>
      </trkpt>
      <trkpt lat="39.4639850" lon="-8.0406260">
        <ele>66.0</ele>
        <time>2019-07-11T09:24:22Z</time>
      </trkpt>
      <trkpt lat="39.4640530" lon="-8.0409320">
        <ele>65.2</ele>
        <time>2019-07-11T09:24:26Z</time>
      </trkpt>
      <trkpt lat="39.4640850" lon="-8.0410960">
        <ele>64.8</ele>
        <time>2019-07-11T09:24:29Z</time>
      </trkpt>
      <trkpt lat="39.4640970" lon="-8.0411440">
        <ele>64.8</ele>
        <time>2019-07-11T09:24:30Z</time>
      </trkpt>
      <trkpt lat="39.4641280" lon="-8.0412430">
        <ele>64.6</ele>
        <time>2019-07-11T09:24:32Z</time>
      </trkpt>
      <trkpt lat="39.4641600" lon="-8.0413600">
        <ele>64.4</ele>
        <time>2019-07-11T09:24:34Z</time>
      </trkpt>
      <trkpt lat="39.4641920" lon="-8.0414980">
        <ele>64.4</ele>
        <time>2019-07-11T09:24:36Z</time>
      </trkpt>
      <trkpt lat="39.4642250" lon="-8.0416440">
        <ele>64.0</ele>
        <time>2019-07-11T09:24:38Z</time>
      </trkpt>
      <trkpt lat="39.4642430" lon="-8.0417200">
        <ele>63.8</ele>
        <time>2019-07-11T09:24:39Z</time>
      </trkpt>
      <trkpt lat="39.4643580" lon="-8.0421730">
        <ele>63.2</ele>
        <time>2019-07-11T09:24:45Z</time>
      </trkpt>
      <trkpt lat="39.4644730" lon="-8.0426680">
        <ele>63.4</ele>
        <time>2019-07-11T09:24:52Z</time>
      </trkpt>
      <trkpt lat="39.4645680" lon="-8.0430450">
        <ele>63.8</ele>
        <time>2019-07-11T09:24:58Z</time>
      </trkpt>
      <trkpt lat="39.4646990" lon="-8.0434500">
        <ele>63.6</ele>
        <time>2019-07-11T09:25:04Z</time>
      </trkpt>
      <trkpt lat="39.4649060" lon="-8.0439660">
        <ele>63.0</ele>
        <time>2019-07-11T09:25:11Z</time>
      </trkpt>
      <trkpt lat="39.4649330" lon="-8.0440420">
        <ele>63.0</ele>
        <time>2019-07-11T09:25:12Z</time>
      </trkpt>
      <trkpt lat="39.4650680" lon="-8.0444050">
        <ele>63.0</ele>
        <time>2019-07-11T09:25:17Z</time>
      </trkpt>
      <trkpt lat="39.4652750" lon="-8.0449160">
        <ele>63.6</ele>
        <time>2019-07-11T09:25:25Z</time>
      </trkpt>
      <trkpt lat="39.4652950" lon="-8.0449830">
        <ele>63.6</ele>
        <time>2019-07-11T09:25:26Z</time>
      </trkpt>
      <trkpt lat="39.4653890" lon="-8.0452210">
        <ele>63.8</ele>
        <time>2019-07-11T09:25:30Z</time>
      </trkpt>
      <trkpt lat="39.4654410" lon="-8.0453830">
        <ele>63.8</ele>
        <time>2019-07-11T09:25:33Z</time>
      </trkpt>
      <trkpt lat="39.4654670" lon="-8.0454710">
        <ele>64.0</ele>
        <time>2019-07-11T09:25:35Z</time>
      </trkpt>
      <trkpt lat="39.4654810" lon="-8.0455420">
        <ele>64.2</ele>
        <time>2019-07-11T09:25:37Z</time>
      </trkpt>
      <trkpt lat="39.4654510" lon="-8.0455840">
        <ele>64.4</ele>
        <time>2019-07-11T09:25:39Z</time>
      </trkpt>
      <trkpt lat="39.4653970" lon="-8.0456150">
        <ele>64.2</ele>
        <time>2019-07-11T09:25:41Z</time>
      </trkpt>
      <trkpt lat="39.4652760" lon="-8.0456780">
        <ele>64.6</ele>
        <time>2019-07-11T09:25:45Z</time>
      </trkpt>
      <trkpt lat="39.4651100" lon="-8.0457070">
        <ele>65.4</ele>
        <time>2019-07-11T09:25:50Z</time>
      </trkpt>
      <trkpt lat="39.4648900" lon="-8.0457310">
        <ele>65.4</ele>
        <time>2019-07-11T09:25:56Z</time>
      </trkpt>
      <trkpt lat="39.4646580" lon="-8.0457720">
        <ele>65.6</ele>
        <time>2019-07-11T09:26:02Z</time>
      </trkpt>
      <trkpt lat="39.4644100" lon="-8.0458180">
        <ele>66.4</ele>
        <time>2019-07-11T09:26:09Z</time>
      </trkpt>
      <trkpt lat="39.4643710" lon="-8.0459890">
        <ele>66.8</ele>
        <time>2019-07-11T09:26:13Z</time>
      </trkpt>
      <trkpt lat="39.4643810" lon="-8.0464520">
        <ele>67.2</ele>
        <time>2019-07-11T09:26:21Z</time>
      </trkpt>
      <trkpt lat="39.4643690" lon="-8.0467040">
        <ele>67.2</ele>
        <time>2019-07-11T09:26:25Z</time>
      </trkpt>
      <trkpt lat="39.4643530" lon="-8.0468930">
        <ele>67.2</ele>
        <time>2019-07-11T09:26:28Z</time>
      </trkpt>
      <trkpt lat="39.4643460" lon="-8.0471410">
        <ele>67.0</ele>
        <time>2019-07-11T09:26:32Z</time>
      </trkpt>
      <trkpt lat="39.4643380" lon="-8.0473300">
        <ele>67.2</ele>
        <time>2019-07-11T09:26:35Z</time>
      </trkpt>
      <trkpt lat="39.4643140" lon="-8.0476580">
        <ele>67.2</ele>
        <time>2019-07-11T09:26:40Z</time>
      </trkpt>
      <trkpt lat="39.4642760" lon="-8.0477810">
        <ele>67.2</ele>
        <time>2019-07-11T09:26:42Z</time>
      </trkpt>
      <trkpt lat="39.4641390" lon="-8.0481320">
        <ele>67.4</ele>
        <time>2019-07-11T09:26:48Z</time>
      </trkpt>
      <trkpt lat="39.4640810" lon="-8.0482390">
        <ele>67.6</ele>
        <time>2019-07-11T09:26:50Z</time>
      </trkpt>
      <trkpt lat="39.4639550" lon="-8.0484410">
        <ele>68.2</ele>
        <time>2019-07-11T09:26:54Z</time>
      </trkpt>
      <trkpt lat="39.4638290" lon="-8.0485530">
        <ele>68.2</ele>
        <time>2019-07-11T09:26:57Z</time>
      </trkpt>
      <trkpt lat="39.4636350" lon="-8.0485890">
        <ele>68.2</ele>
        <time>2019-07-11T09:27:01Z</time>
      </trkpt>
      <trkpt lat="39.4634440" lon="-8.0485800">
        <ele>69.0</ele>
        <time>2019-07-11T09:27:05Z</time>
      </trkpt>
      <trkpt lat="39.4632630" lon="-8.0485720">
        <ele>69.2</ele>
        <time>2019-07-11T09:27:09Z</time>
      </trkpt>
      <trkpt lat="39.4629010" lon="-8.0485290">
        <ele>70.0</ele>
        <time>2019-07-11T09:27:17Z</time>
      </trkpt>
      <trkpt lat="39.4628540" lon="-8.0485310">
        <ele>70.0</ele>
        <time>2019-07-11T09:27:18Z</time>
      </trkpt>
      <trkpt lat="39.4628080" lon="-8.0485380">
        <ele>70.2</ele>
        <time>2019-07-11T09:27:19Z</time>
      </trkpt>
      <trkpt lat="39.4626020" lon="-8.0485970">
        <ele>71.0</ele>
        <time>2019-07-11T09:27:24Z</time>
      </trkpt>
      <trkpt lat="39.4624170" lon="-8.0486700">
        <ele>72.4</ele>
        <time>2019-07-11T09:27:29Z</time>
      </trkpt>
      <trkpt lat="39.4623490" lon="-8.0486950">
        <ele>72.8</ele>
        <time>2019-07-11T09:27:31Z</time>
      </trkpt>
      <trkpt lat="39.4622470" lon="-8.0487360">
        <ele>73.4</ele>
        <time>2019-07-11T09:27:34Z</time>
      </trkpt>
      <trkpt lat="39.4621520" lon="-8.0487840">
        <ele>74.0</ele>
        <time>2019-07-11T09:27:37Z</time>
      </trkpt>
      <trkpt lat="39.4620960" lon="-8.0488310">
        <ele>74.4</ele>
        <time>2019-07-11T09:27:39Z</time>
      </trkpt>
      <trkpt lat="39.4620720" lon="-8.0488620">
        <ele>74.8</ele>
        <time>2019-07-11T09:27:40Z</time>
      </trkpt>
      <trkpt lat="39.4620160" lon="-8.0490210">
        <ele>75.6</ele>
        <time>2019-07-11T09:27:44Z</time>
      </trkpt>
      <trkpt lat="39.4620090" lon="-8.0490610">
        <ele>76.0</ele>
        <time>2019-07-11T09:27:45Z</time>
      </trkpt>
      <trkpt lat="39.4619590" lon="-8.0492650">
        <ele>77.0</ele>
        <time>2019-07-11T09:27:50Z</time>
      </trkpt>
      <trkpt lat="39.4619450" lon="-8.0493080">
        <ele>77.2</ele>
        <time>2019-07-11T09:27:51Z</time>
      </trkpt>
      <trkpt lat="39.4618770" lon="-8.0495740">
        <ele>78.2</ele>
        <time>2019-07-11T09:27:57Z</time>
      </trkpt>
      <trkpt lat="39.4618730" lon="-8.0496210">
        <ele>78.4</ele>
        <time>2019-07-11T09:27:58Z</time>
      </trkpt>
      <trkpt lat="39.4618950" lon="-8.0498520">
        <ele>79.4</ele>
        <time>2019-07-11T09:28:03Z</time>
      </trkpt>
      <trkpt lat="39.4619430" lon="-8.0502380">
        <ele>80.2</ele>
        <time>2019-07-11T09:28:10Z</time>
      </trkpt>
      <trkpt lat="39.4620030" lon="-8.0505480">
        <ele>79.2</ele>
        <time>2019-07-11T09:28:14Z</time>
      </trkpt>
      <trkpt lat="39.4620100" lon="-8.0506400">
        <ele>78.4</ele>
        <time>2019-07-11T09:28:15Z</time>
      </trkpt>
      <trkpt lat="39.4619800" lon="-8.0508330">
        <ele>77.0</ele>
        <time>2019-07-11T09:28:17Z</time>
      </trkpt>
      <trkpt lat="39.4619390" lon="-8.0509300">
        <ele>76.4</ele>
        <time>2019-07-11T09:28:18Z</time>
      </trkpt>
      <trkpt lat="39.4618910" lon="-8.0510240">
        <ele>75.4</ele>
        <time>2019-07-11T09:28:19Z</time>
      </trkpt>
      <trkpt lat="39.4618480" lon="-8.0511180">
        <ele>74.4</ele>
        <time>2019-07-11T09:28:20Z</time>
      </trkpt>
      <trkpt lat="39.4618210" lon="-8.0512190">
        <ele>73.6</ele>
        <time>2019-07-11T09:28:21Z</time>
      </trkpt>
      <trkpt lat="39.4618070" lon="-8.0513250">
        <ele>72.8</ele>
        <time>2019-07-11T09:28:22Z</time>
      </trkpt>
      <trkpt lat="39.4617890" lon="-8.0514320">
        <ele>71.8</ele>
        <time>2019-07-11T09:28:23Z</time>
      </trkpt>
      <trkpt lat="39.4617070" lon="-8.0515960">
        <ele>71.0</ele>
        <time>2019-07-11T09:28:25Z</time>
      </trkpt>
      <trkpt lat="39.4615210" lon="-8.0518580">
        <ele>71.2</ele>
        <time>2019-07-11T09:28:29Z</time>
      </trkpt>
      <trkpt lat="39.4614930" lon="-8.0519300">
        <ele>71.4</ele>
        <time>2019-07-11T09:28:30Z</time>
      </trkpt>
      <trkpt lat="39.4614670" lon="-8.0520010">
        <ele>71.4</ele>
        <time>2019-07-11T09:28:31Z</time>
      </trkpt>
      <trkpt lat="39.4614450" lon="-8.0520700">
        <ele>71.4</ele>
        <time>2019-07-11T09:28:32Z</time>
      </trkpt>
      <trkpt lat="39.4614080" lon="-8.0522170">
        <ele>71.4</ele>
        <time>2019-07-11T09:28:34Z</time>
      </trkpt>
      <trkpt lat="39.4613950" lon="-8.0522950">
        <ele>71.4</ele>
        <time>2019-07-11T09:28:35Z</time>
      </trkpt>
      <trkpt lat="39.4614110" lon="-8.0524570">
        <ele>71.2</ele>
        <time>2019-07-11T09:28:37Z</time>
      </trkpt>
      <trkpt lat="39.4614640" lon="-8.0526090">
        <ele>71.4</ele>
        <time>2019-07-11T09:28:39Z</time>
      </trkpt>
      <trkpt lat="39.4614970" lon="-8.0526760">
        <ele>71.4</ele>
        <time>2019-07-11T09:28:40Z</time>
      </trkpt>
      <trkpt lat="39.4615310" lon="-8.0527380">
        <ele>71.2</ele>
        <time>2019-07-11T09:28:41Z</time>
      </trkpt>
      <trkpt lat="39.4616430" lon="-8.0529210">
        <ele>71.4</ele>
        <time>2019-07-11T09:28:44Z</time>
      </trkpt>
      <trkpt lat="39.4617430" lon="-8.0531060">
        <ele>71.6</ele>
        <time>2019-07-11T09:28:47Z</time>
      </trkpt>
      <trkpt lat="39.4619190" lon="-8.0534240">
        <ele>72.6</ele>
        <time>2019-07-11T09:28:53Z</time>
      </trkpt>
      <trkpt lat="39.4619640" lon="-8.0535150">
        <ele>73.2</ele>
        <time>2019-07-11T09:28:55Z</time>
      </trkpt>
      <trkpt lat="39.4620130" lon="-8.0536300">
        <ele>74.2</ele>
        <time>2019-07-11T09:28:58Z</time>
      </trkpt>
      <trkpt lat="39.4620340" lon="-8.0536920">
        <ele>74.6</ele>
        <time>2019-07-11T09:29:00Z</time>
      </trkpt>
      <trkpt lat="39.4620630" lon="-8.0537580">
        <ele>75.6</ele>
        <time>2019-07-11T09:29:03Z</time>
      </trkpt>
      <trkpt lat="39.4620850" lon="-8.0537980">
        <ele>76.0</ele>
        <time>2019-07-11T09:29:05Z</time>
      </trkpt>
      <trkpt lat="39.4621000" lon="-8.0538510">
        <ele>76.6</ele>
        <time>2019-07-11T09:29:07Z</time>
      </trkpt>
      <trkpt lat="39.4621290" lon="-8.0539530">
        <ele>77.8</ele>
        <time>2019-07-11T09:29:11Z</time>
      </trkpt>
      <trkpt lat="39.4621530" lon="-8.0540530">
        <ele>78.8</ele>
        <time>2019-07-11T09:29:15Z</time>
      </trkpt>
      <trkpt lat="39.4621660" lon="-8.0541040">
        <ele>79.4</ele>
        <time>2019-07-11T09:29:17Z</time>
      </trkpt>
      <trkpt lat="39.4621750" lon="-8.0541280">
        <ele>79.8</ele>
        <time>2019-07-11T09:29:18Z</time>
      </trkpt>
      <trkpt lat="39.4622100" lon="-8.0542280">
        <ele>80.8</ele>
        <time>2019-07-11T09:29:22Z</time>
      </trkpt>
      <trkpt lat="39.4622160" lon="-8.0542560">
        <ele>81.0</ele>
        <time>2019-07-11T09:29:23Z</time>
      </trkpt>
      <trkpt lat="39.4622520" lon="-8.0543600">
        <ele>82.2</ele>
        <time>2019-07-11T09:29:27Z</time>
      </trkpt>
      <trkpt lat="39.4622620" lon="-8.0544130">
        <ele>82.6</ele>
        <time>2019-07-11T09:29:29Z</time>
      </trkpt>
      <trkpt lat="39.4622710" lon="-8.0544640">
        <ele>83.2</ele>
        <time>2019-07-11T09:29:31Z</time>
      </trkpt>
      <trkpt lat="39.4622990" lon="-8.0545650">
        <ele>84.8</ele>
        <time>2019-07-11T09:29:35Z</time>
      </trkpt>
      <trkpt lat="39.4623420" lon="-8.0546660">
        <ele>86.0</ele>
        <time>2019-07-11T09:29:39Z</time>
      </trkpt>
      <trkpt lat="39.4623590" lon="-8.0547140">
        <ele>87.0</ele>
        <time>2019-07-11T09:29:41Z</time>
      </trkpt>
      <trkpt lat="39.4623680" lon="-8.0547400">
        <ele>87.2</ele>
        <time>2019-07-11T09:29:42Z</time>
      </trkpt>
      <trkpt lat="39.4624010" lon="-8.0548100">
        <ele>88.4</ele>
        <time>2019-07-11T09:29:45Z</time>
      </trkpt>
      <trkpt lat="39.4624340" lon="-8.0548860">
        <ele>89.4</ele>
        <time>2019-07-11T09:29:48Z</time>
      </trkpt>
      <trkpt lat="39.4624450" lon="-8.0549120">
        <ele>89.8</ele>
        <time>2019-07-11T09:29:49Z</time>
      </trkpt>
      <trkpt lat="39.4624750" lon="-8.0549770">
        <ele>90.8</ele>
        <time>2019-07-11T09:29:52Z</time>
      </trkpt>
      <trkpt lat="39.4625090" lon="-8.0550370">
        <ele>92.0</ele>
        <time>2019-07-11T09:29:55Z</time>
      </trkpt>
      <trkpt lat="39.4625520" lon="-8.0551220">
        <ele>93.6</ele>
        <time>2019-07-11T09:29:59Z</time>
      </trkpt>
      <trkpt lat="39.4625740" lon="-8.0551660">
        <ele>94.4</ele>
        <time>2019-07-11T09:30:01Z</time>
      </trkpt>
      <trkpt lat="39.4625890" lon="-8.0551820">
        <ele>94.6</ele>
        <time>2019-07-11T09:30:02Z</time>
      </trkpt>
      <trkpt lat="39.4626610" lon="-8.0552480">
        <ele>95.8</ele>
        <time>2019-07-11T09:30:06Z</time>
      </trkpt>
      <trkpt lat="39.4626780" lon="-8.0552700">
        <ele>96.0</ele>
        <time>2019-07-11T09:30:07Z</time>
      </trkpt>
      <trkpt lat="39.4627460" lon="-8.0553590">
        <ele>97.0</ele>
        <time>2019-07-11T09:30:11Z</time>
      </trkpt>
      <trkpt lat="39.4628160" lon="-8.0554030">
        <ele>97.6</ele>
        <time>2019-07-11T09:30:14Z</time>
      </trkpt>
      <trkpt lat="39.4628960" lon="-8.0554280">
        <ele>98.0</ele>
        <time>2019-07-11T09:30:17Z</time>
      </trkpt>
      <trkpt lat="39.4629800" lon="-8.0554540">
        <ele>98.6</ele>
        <time>2019-07-11T09:30:20Z</time>
      </trkpt>
      <trkpt lat="39.4632180" lon="-8.0555370">
        <ele>98.6</ele>
        <time>2019-07-11T09:30:27Z</time>
      </trkpt>
      <trkpt lat="39.4632600" lon="-8.0555530">
        <ele>98.4</ele>
        <time>2019-07-11T09:30:28Z</time>
      </trkpt>
      <trkpt lat="39.4634220" lon="-8.0556300">
        <ele>98.2</ele>
        <time>2019-07-11T09:30:32Z</time>
      </trkpt>
      <trkpt lat="39.4634610" lon="-8.0556440">
        <ele>98.2</ele>
        <time>2019-07-11T09:30:33Z</time>
      </trkpt>
      <trkpt lat="39.4635600" lon="-8.0557020">
        <ele>98.2</ele>
        <time>2019-07-11T09:30:36Z</time>
      </trkpt>
      <trkpt lat="39.4636470" lon="-8.0557550">
        <ele>99.0</ele>
        <time>2019-07-11T09:30:39Z</time>
      </trkpt>
      <trkpt lat="39.4636700" lon="-8.0557620">
        <ele>99.0</ele>
        <time>2019-07-11T09:30:40Z</time>
      </trkpt>
      <trkpt lat="39.4637050" lon="-8.0557620">
        <ele>99.2</ele>
        <time>2019-07-11T09:30:42Z</time>
      </trkpt>
      <trkpt lat="39.4637200" lon="-8.0557610">
        <ele>99.2</ele>
        <time>2019-07-11T09:30:43Z</time>
      </trkpt>
      <trkpt lat="39.4637340" lon="-8.0557590">
        <ele>99.2</ele>
        <time>2019-07-11T09:30:44Z</time>
      </trkpt>
      <trkpt lat="39.4637830" lon="-8.0557430">
        <ele>99.4</ele>
        <time>2019-07-11T09:30:47Z</time>
      </trkpt>
      <trkpt lat="39.4638360" lon="-8.0557560">
        <ele>99.4</ele>
        <time>2019-07-11T09:30:49Z</time>
      </trkpt>
      <trkpt lat="39.4639660" lon="-8.0558370">
        <ele>99.4</ele>
        <time>2019-07-11T09:30:53Z</time>
      </trkpt>
      <trkpt lat="39.4640260" lon="-8.0558990">
        <ele>99.8</ele>
        <time>2019-07-11T09:30:55Z</time>
      </trkpt>
      <trkpt lat="39.4640710" lon="-8.0559790">
        <ele>99.8</ele>
        <time>2019-07-11T09:30:57Z</time>
      </trkpt>
      <trkpt lat="39.4641180" lon="-8.0561220">
        <ele>99.8</ele>
        <time>2019-07-11T09:31:00Z</time>
      </trkpt>
      <trkpt lat="39.4641350" lon="-8.0561730">
        <ele>100.0</ele>
        <time>2019-07-11T09:31:01Z</time>
      </trkpt>
      <trkpt lat="39.4642570" lon="-8.0563550">
        <ele>99.8</ele>
        <time>2019-07-11T09:31:05Z</time>
      </trkpt>
      <trkpt lat="39.4642970" lon="-8.0563960">
        <ele>99.8</ele>
        <time>2019-07-11T09:31:06Z</time>
      </trkpt>
      <trkpt lat="39.4643720" lon="-8.0564840">
        <ele>99.6</ele>
        <time>2019-07-11T09:31:08Z</time>
      </trkpt>
      <trkpt lat="39.4644470" lon="-8.0565780">
        <ele>99.4</ele>
        <time>2019-07-11T09:31:10Z</time>
      </trkpt>
      <trkpt lat="39.4645310" lon="-8.0566580">
        <ele>99.2</ele>
        <time>2019-07-11T09:31:12Z</time>
      </trkpt>
      <trkpt lat="39.4649330" lon="-8.0570490">
        <ele>98.6</ele>
        <time>2019-07-11T09:31:21Z</time>
      </trkpt>
      <trkpt lat="39.4650770" lon="-8.0571840">
        <ele>98.6</ele>
        <time>2019-07-11T09:31:24Z</time>
      </trkpt>
      <trkpt lat="39.4652210" lon="-8.0573210">
        <ele>98.6</ele>
        <time>2019-07-11T09:31:27Z</time>
      </trkpt>
      <trkpt lat="39.4654190" lon="-8.0574950">
        <ele>98.4</ele>
        <time>2019-07-11T09:31:31Z</time>
      </trkpt>
      <trkpt lat="39.4655640" lon="-8.0576360">
        <ele>98.2</ele>
        <time>2019-07-11T09:31:34Z</time>
      </trkpt>
      <trkpt lat="39.4659020" lon="-8.0579520">
        <ele>98.2</ele>
        <time>2019-07-11T09:31:41Z</time>
      </trkpt>
      <trkpt lat="39.4662960" lon="-8.0583180">
        <ele>97.8</ele>
        <time>2019-07-11T09:31:49Z</time>
      </trkpt>
      <trkpt lat="39.4663970" lon="-8.0584090">
        <ele>97.8</ele>
        <time>2019-07-11T09:31:51Z</time>
      </trkpt>
      <trkpt lat="39.4668360" lon="-8.0588340">
        <ele>97.6</ele>
        <time>2019-07-11T09:32:00Z</time>
      </trkpt>
      <trkpt lat="39.4668840" lon="-8.0588800">
        <ele>97.6</ele>
        <time>2019-07-11T09:32:01Z</time>
      </trkpt>
      <trkpt lat="39.4672090" lon="-8.0591900">
        <ele>97.0</ele>
        <time>2019-07-11T09:32:08Z</time>
      </trkpt>
      <trkpt lat="39.4674360" lon="-8.0594330">
        <ele>97.0</ele>
        <time>2019-07-11T09:32:13Z</time>
      </trkpt>
      <trkpt lat="39.4674660" lon="-8.0594860">
        <ele>97.0</ele>
        <time>2019-07-11T09:32:14Z</time>
      </trkpt>
      <trkpt lat="39.4674930" lon="-8.0595890">
        <ele>96.8</ele>
        <time>2019-07-11T09:32:16Z</time>
      </trkpt>
      <trkpt lat="39.4674930" lon="-8.0596960">
        <ele>96.6</ele>
        <time>2019-07-11T09:32:18Z</time>
      </trkpt>
      <trkpt lat="39.4674120" lon="-8.0599070">
        <ele>96.4</ele>
        <time>2019-07-11T09:32:22Z</time>
      </trkpt>
      <trkpt lat="39.4672660" lon="-8.0599410">
        <ele>96.4</ele>
        <time>2019-07-11T09:32:25Z</time>
      </trkpt>
      <trkpt lat="39.4670060" lon="-8.0598960">
        <ele>96.6</ele>
        <time>2019-07-11T09:32:30Z</time>
      </trkpt>
      <trkpt lat="39.4669540" lon="-8.0598980">
        <ele>96.6</ele>
        <time>2019-07-11T09:32:31Z</time>
      </trkpt>
      <trkpt lat="39.4665920" lon="-8.0598950">
        <ele>97.0</ele>
        <time>2019-07-11T09:32:38Z</time>
      </trkpt>
      <trkpt lat="39.4665410" lon="-8.0598980">
        <ele>97.0</ele>
        <time>2019-07-11T09:32:39Z</time>
      </trkpt>
      <trkpt lat="39.4662390" lon="-8.0599430">
        <ele>97.4</ele>
        <time>2019-07-11T09:32:45Z</time>
      </trkpt>
      <trkpt lat="39.4658950" lon="-8.0600360">
        <ele>97.4</ele>
        <time>2019-07-11T09:32:52Z</time>
      </trkpt>
      <trkpt lat="39.4657970" lon="-8.0600770">
        <ele>97.4</ele>
        <time>2019-07-11T09:32:54Z</time>
      </trkpt>
      <trkpt lat="39.4654100" lon="-8.0602500">
        <ele>97.8</ele>
        <time>2019-07-11T09:33:02Z</time>
      </trkpt>
      <trkpt lat="39.4653200" lon="-8.0603060">
        <ele>98.4</ele>
        <time>2019-07-11T09:33:04Z</time>
      </trkpt>
      <trkpt lat="39.4650700" lon="-8.0604940">
        <ele>98.6</ele>
        <time>2019-07-11T09:33:10Z</time>
      </trkpt>
      <trkpt lat="39.4647500" lon="-8.0607590">
        <ele>99.2</ele>
        <time>2019-07-11T09:33:18Z</time>
      </trkpt>
      <trkpt lat="39.4646700" lon="-8.0608220">
        <ele>99.6</ele>
        <time>2019-07-11T09:33:20Z</time>
      </trkpt>
      <trkpt lat="39.4644990" lon="-8.0609780">
        <ele>100.2</ele>
        <time>2019-07-11T09:33:25Z</time>
      </trkpt>
      <trkpt lat="39.4644200" lon="-8.0610790">
        <ele>100.8</ele>
        <time>2019-07-11T09:33:28Z</time>
      </trkpt>
      <trkpt lat="39.4643710" lon="-8.0611680">
        <ele>101.6</ele>
        <time>2019-07-11T09:33:31Z</time>
      </trkpt>
      <trkpt lat="39.4642540" lon="-8.0613450">
        <ele>101.4</ele>
        <time>2019-07-11T09:33:36Z</time>
      </trkpt>
      <trkpt lat="39.4641120" lon="-8.0616350">
        <ele>100.2</ele>
        <time>2019-07-11T09:33:41Z</time>
      </trkpt>
      <trkpt lat="39.4640830" lon="-8.0617000">
        <ele>100.2</ele>
        <time>2019-07-11T09:33:42Z</time>
      </trkpt>
      <trkpt lat="39.4639980" lon="-8.0619030">
        <ele>100.2</ele>
        <time>2019-07-11T09:33:45Z</time>
      </trkpt>
      <trkpt lat="39.4639070" lon="-8.0621160">
        <ele>99.8</ele>
        <time>2019-07-11T09:33:48Z</time>
      </trkpt>
      <trkpt lat="39.4638790" lon="-8.0621900">
        <ele>99.6</ele>
        <time>2019-07-11T09:33:49Z</time>
      </trkpt>
      <trkpt lat="39.4638530" lon="-8.0622660">
        <ele>99.6</ele>
        <time>2019-07-11T09:33:50Z</time>
      </trkpt>
      <trkpt lat="39.4638040" lon="-8.0624220">
        <ele>99.2</ele>
        <time>2019-07-11T09:33:52Z</time>
      </trkpt>
      <trkpt lat="39.4637560" lon="-8.0625810">
        <ele>99.0</ele>
        <time>2019-07-11T09:33:54Z</time>
      </trkpt>
      <trkpt lat="39.4637110" lon="-8.0627410">
        <ele>98.8</ele>
        <time>2019-07-11T09:33:56Z</time>
      </trkpt>
      <trkpt lat="39.4635990" lon="-8.0631450">
        <ele>98.2</ele>
        <time>2019-07-11T09:34:01Z</time>
      </trkpt>
      <trkpt lat="39.4635230" lon="-8.0633920">
        <ele>97.6</ele>
        <time>2019-07-11T09:34:04Z</time>
      </trkpt>
      <trkpt lat="39.4634720" lon="-8.0635570">
        <ele>97.2</ele>
        <time>2019-07-11T09:34:06Z</time>
      </trkpt>
      <trkpt lat="39.4634430" lon="-8.0636390">
        <ele>97.0</ele>
        <time>2019-07-11T09:34:07Z</time>
      </trkpt>
      <trkpt lat="39.4633810" lon="-8.0637970">
        <ele>96.8</ele>
        <time>2019-07-11T09:34:09Z</time>
      </trkpt>
      <trkpt lat="39.4633260" lon="-8.0639580">
        <ele>96.4</ele>
        <time>2019-07-11T09:34:11Z</time>
      </trkpt>
      <trkpt lat="39.4632450" lon="-8.0641850">
        <ele>95.8</ele>
        <time>2019-07-11T09:34:14Z</time>
      </trkpt>
      <trkpt lat="39.4632260" lon="-8.0642590">
        <ele>95.8</ele>
        <time>2019-07-11T09:34:15Z</time>
      </trkpt>
      <trkpt lat="39.4631910" lon="-8.0644090">
        <ele>96.0</ele>
        <time>2019-07-11T09:34:17Z</time>
      </trkpt>
      <trkpt lat="39.4631680" lon="-8.0644810">
        <ele>96.2</ele>
        <time>2019-07-11T09:34:18Z</time>
      </trkpt>
      <trkpt lat="39.4631280" lon="-8.0646220">
        <ele>96.2</ele>
        <time>2019-07-11T09:34:20Z</time>
      </trkpt>
      <trkpt lat="39.4630470" lon="-8.0648990">
        <ele>96.4</ele>
        <time>2019-07-11T09:34:24Z</time>
      </trkpt>
      <trkpt lat="39.4629300" lon="-8.0652850">
        <ele>96.6</ele>
        <time>2019-07-11T09:34:30Z</time>
      </trkpt>
      <trkpt lat="39.4628530" lon="-8.0655390">
        <ele>96.6</ele>
        <time>2019-07-11T09:34:34Z</time>
      </trkpt>
      <trkpt lat="39.4627560" lon="-8.0658630">
        <ele>97.0</ele>
        <time>2019-07-11T09:34:39Z</time>
      </trkpt>
      <trkpt lat="39.4626530" lon="-8.0661890">
        <ele>97.2</ele>
        <time>2019-07-11T09:34:44Z</time>
      </trkpt>
      <trkpt lat="39.4624700" lon="-8.0667780">
        <ele>97.0</ele>
        <time>2019-07-11T09:34:53Z</time>
      </trkpt>
      <trkpt lat="39.4622870" lon="-8.0673440">
        <ele>96.4</ele>
        <time>2019-07-11T09:35:01Z</time>
      </trkpt>
      <trkpt lat="39.4620910" lon="-8.0679230">
        <ele>96.0</ele>
        <time>2019-07-11T09:35:09Z</time>
      </trkpt>
      <trkpt lat="39.4620370" lon="-8.0680710">
        <ele>96.0</ele>
        <time>2019-07-11T09:35:11Z</time>
      </trkpt>
      <trkpt lat="39.4620020" lon="-8.0681430">
        <ele>96.0</ele>
        <time>2019-07-11T09:35:12Z</time>
      </trkpt>
      <trkpt lat="39.4619610" lon="-8.0682070">
        <ele>95.6</ele>
        <time>2019-07-11T09:35:13Z</time>
      </trkpt>
      <trkpt lat="39.4619150" lon="-8.0682540">
        <ele>95.4</ele>
        <time>2019-07-11T09:35:14Z</time>
      </trkpt>
      <trkpt lat="39.4617660" lon="-8.0682760">
        <ele>95.0</ele>
        <time>2019-07-11T09:35:17Z</time>
      </trkpt>
      <trkpt lat="39.4616730" lon="-8.0682320">
        <ele>95.0</ele>
        <time>2019-07-11T09:35:19Z</time>
      </trkpt>
      <trkpt lat="39.4616270" lon="-8.0682110">
        <ele>95.0</ele>
        <time>2019-07-11T09:35:20Z</time>
      </trkpt>
      <trkpt lat="39.4615320" lon="-8.0682170">
        <ele>94.8</ele>
        <time>2019-07-11T09:35:22Z</time>
      </trkpt>
      <trkpt lat="39.4614140" lon="-8.0683390">
        <ele>94.2</ele>
        <time>2019-07-11T09:35:25Z</time>
      </trkpt>
      <trkpt lat="39.4613510" lon="-8.0684570">
        <ele>93.8</ele>
        <time>2019-07-11T09:35:27Z</time>
      </trkpt>
      <trkpt lat="39.4612990" lon="-8.0685820">
        <ele>93.2</ele>
        <time>2019-07-11T09:35:29Z</time>
      </trkpt>
      <trkpt lat="39.4612690" lon="-8.0687160">
        <ele>93.0</ele>
        <time>2019-07-11T09:35:31Z</time>
      </trkpt>
      <trkpt lat="39.4612370" lon="-8.0689130">
        <ele>93.0</ele>
        <time>2019-07-11T09:35:34Z</time>
      </trkpt>
      <trkpt lat="39.4611760" lon="-8.0692250">
        <ele>93.8</ele>
        <time>2019-07-11T09:35:39Z</time>
      </trkpt>
      <trkpt lat="39.4611200" lon="-8.0694930">
        <ele>94.6</ele>
        <time>2019-07-11T09:35:44Z</time>
      </trkpt>
      <trkpt lat="39.4611090" lon="-8.0695360">
        <ele>94.8</ele>
        <time>2019-07-11T09:35:45Z</time>
      </trkpt>
      <trkpt lat="39.4610770" lon="-8.0696760">
        <ele>95.0</ele>
        <time>2019-07-11T09:35:48Z</time>
      </trkpt>
      <trkpt lat="39.4610330" lon="-8.0698690">
        <ele>95.6</ele>
        <time>2019-07-11T09:35:52Z</time>
      </trkpt>
      <trkpt lat="39.4610070" lon="-8.0699630">
        <ele>95.8</ele>
        <time>2019-07-11T09:35:54Z</time>
      </trkpt>
      <trkpt lat="39.4609920" lon="-8.0700110">
        <ele>96.0</ele>
        <time>2019-07-11T09:35:55Z</time>
      </trkpt>
      <trkpt lat="39.4609610" lon="-8.0701040">
        <ele>96.0</ele>
        <time>2019-07-11T09:35:57Z</time>
      </trkpt>
      <trkpt lat="39.4609370" lon="-8.0702080">
        <ele>96.2</ele>
        <time>2019-07-11T09:35:59Z</time>
      </trkpt>
      <trkpt lat="39.4607960" lon="-8.0706080">
        <ele>95.0</ele>
        <time>2019-07-11T09:36:06Z</time>
      </trkpt>
      <trkpt lat="39.4607670" lon="-8.0706700">
        <ele>94.6</ele>
        <time>2019-07-11T09:36:07Z</time>
      </trkpt>
      <trkpt lat="39.4606000" lon="-8.0709920">
        <ele>93.6</ele>
        <time>2019-07-11T09:36:13Z</time>
      </trkpt>
      <trkpt lat="39.4605640" lon="-8.0710720">
        <ele>93.4</ele>
        <time>2019-07-11T09:36:17Z</time>
      </trkpt>
      <trkpt lat="39.4605590" lon="-8.0710740">
        <ele>93.2</ele>
        <time>2019-07-11T09:36:19Z</time>
      </trkpt>
      <trkpt lat="39.4605110" lon="-8.0710930">
        <ele>92.2</ele>
        <time>2019-07-11T09:38:13Z</time>
      </trkpt>
      <trkpt lat="39.4604860" lon="-8.0711220">
        <ele>92.2</ele>
        <time>2019-07-11T09:38:14Z</time>
      </trkpt>
      <trkpt lat="39.4603810" lon="-8.0712990">
        <ele>91.0</ele>
        <time>2019-07-11T09:38:18Z</time>
      </trkpt>
      <trkpt lat="39.4603560" lon="-8.0713570">
        <ele>90.6</ele>
        <time>2019-07-11T09:38:19Z</time>
      </trkpt>
      <trkpt lat="39.4603310" lon="-8.0714230">
        <ele>90.0</ele>
        <time>2019-07-11T09:38:20Z</time>
      </trkpt>
      <trkpt lat="39.4603090" lon="-8.0714960">
        <ele>89.0</ele>
        <time>2019-07-11T09:38:21Z</time>
      </trkpt>
      <trkpt lat="39.4602870" lon="-8.0715750">
        <ele>88.4</ele>
        <time>2019-07-11T09:38:22Z</time>
      </trkpt>
      <trkpt lat="39.4602480" lon="-8.0717480">
        <ele>87.2</ele>
        <time>2019-07-11T09:38:24Z</time>
      </trkpt>
      <trkpt lat="39.4602130" lon="-8.0719400">
        <ele>86.0</ele>
        <time>2019-07-11T09:38:26Z</time>
      </trkpt>
      <trkpt lat="39.4601460" lon="-8.0722380">
        <ele>84.6</ele>
        <time>2019-07-11T09:38:29Z</time>
      </trkpt>
      <trkpt lat="39.4600930" lon="-8.0724280">
        <ele>83.6</ele>
        <time>2019-07-11T09:38:31Z</time>
      </trkpt>
      <trkpt lat="39.4600720" lon="-8.0725190">
        <ele>83.4</ele>
        <time>2019-07-11T09:38:32Z</time>
      </trkpt>
      <trkpt lat="39.4600680" lon="-8.0726930">
        <ele>83.2</ele>
        <time>2019-07-11T09:38:34Z</time>
      </trkpt>
      <trkpt lat="39.4601500" lon="-8.0728810">
        <ele>83.4</ele>
        <time>2019-07-11T09:38:37Z</time>
      </trkpt>
      <trkpt lat="39.4601810" lon="-8.0729250">
        <ele>83.6</ele>
        <time>2019-07-11T09:38:38Z</time>
      </trkpt>
      <trkpt lat="39.4602080" lon="-8.0729650">
        <ele>83.8</ele>
        <time>2019-07-11T09:38:39Z</time>
      </trkpt>
      <trkpt lat="39.4602370" lon="-8.0730510">
        <ele>84.6</ele>
        <time>2019-07-11T09:38:41Z</time>
      </trkpt>
      <trkpt lat="39.4602470" lon="-8.0731250">
        <ele>85.2</ele>
        <time>2019-07-11T09:38:43Z</time>
      </trkpt>
      <trkpt lat="39.4602420" lon="-8.0731890">
        <ele>85.8</ele>
        <time>2019-07-11T09:38:45Z</time>
      </trkpt>
      <trkpt lat="39.4602400" lon="-8.0732180">
        <ele>86.0</ele>
        <time>2019-07-11T09:38:46Z</time>
      </trkpt>
      <trkpt lat="39.4602180" lon="-8.0732930">
        <ele>86.6</ele>
        <time>2019-07-11T09:38:49Z</time>
      </trkpt>
      <trkpt lat="39.4602140" lon="-8.0733140">
        <ele>87.0</ele>
        <time>2019-07-11T09:38:50Z</time>
      </trkpt>
      <trkpt lat="39.4602090" lon="-8.0733350">
        <ele>87.0</ele>
        <time>2019-07-11T09:38:51Z</time>
      </trkpt>
      <trkpt lat="39.4601940" lon="-8.0733790">
        <ele>87.6</ele>
        <time>2019-07-11T09:38:53Z</time>
      </trkpt>
      <trkpt lat="39.4601710" lon="-8.0734350">
        <ele>88.2</ele>
        <time>2019-07-11T09:38:56Z</time>
      </trkpt>
      <trkpt lat="39.4601690" lon="-8.0734540">
        <ele>88.4</ele>
        <time>2019-07-11T09:38:57Z</time>
      </trkpt>
      <trkpt lat="39.4601690" lon="-8.0735160">
        <ele>88.8</ele>
        <time>2019-07-11T09:39:00Z</time>
      </trkpt>
      <trkpt lat="39.4601580" lon="-8.0735860">
        <ele>89.0</ele>
        <time>2019-07-11T09:39:03Z</time>
      </trkpt>
      <trkpt lat="39.4601520" lon="-8.0736070">
        <ele>89.2</ele>
        <time>2019-07-11T09:39:04Z</time>
      </trkpt>
      <trkpt lat="39.4601440" lon="-8.0736690">
        <ele>89.8</ele>
        <time>2019-07-11T09:39:07Z</time>
      </trkpt>
      <trkpt lat="39.4601410" lon="-8.0736920">
        <ele>90.0</ele>
        <time>2019-07-11T09:39:08Z</time>
      </trkpt>
      <trkpt lat="39.4601370" lon="-8.0737120">
        <ele>90.2</ele>
        <time>2019-07-11T09:39:09Z</time>
      </trkpt>
      <trkpt lat="39.4601240" lon="-8.0737940">
        <ele>91.0</ele>
        <time>2019-07-11T09:39:13Z</time>
      </trkpt>
      <trkpt lat="39.4601170" lon="-8.0738360">
        <ele>91.4</ele>
        <time>2019-07-11T09:39:15Z</time>
      </trkpt>
      <trkpt lat="39.4600970" lon="-8.0739760">
        <ele>92.0</ele>
        <time>2019-07-11T09:39:21Z</time>
      </trkpt>
      <trkpt lat="39.4600920" lon="-8.0740040">
        <ele>92.2</ele>
        <time>2019-07-11T09:39:22Z</time>
      </trkpt>
      <trkpt lat="39.4600730" lon="-8.0740810">
        <ele>92.6</ele>
        <time>2019-07-11T09:39:25Z</time>
      </trkpt>
      <trkpt lat="39.4600340" lon="-8.0742400">
        <ele>93.8</ele>
        <time>2019-07-11T09:39:31Z</time>
      </trkpt>
      <trkpt lat="39.4599930" lon="-8.0744200">
        <ele>94.8</ele>
        <time>2019-07-11T09:39:37Z</time>
      </trkpt>
      <trkpt lat="39.4599740" lon="-8.0745130">
        <ele>95.4</ele>
        <time>2019-07-11T09:39:40Z</time>
      </trkpt>
      <trkpt lat="39.4599480" lon="-8.0746010">
        <ele>96.0</ele>
        <time>2019-07-11T09:39:43Z</time>
      </trkpt>
      <trkpt lat="39.4599280" lon="-8.0747260">
        <ele>97.2</ele>
        <time>2019-07-11T09:39:47Z</time>
      </trkpt>
      <trkpt lat="39.4598650" lon="-8.0750200">
        <ele>98.2</ele>
        <time>2019-07-11T09:39:56Z</time>
      </trkpt>
      <trkpt lat="39.4598590" lon="-8.0750540">
        <ele>98.4</ele>
        <time>2019-07-11T09:39:57Z</time>
      </trkpt>
      <trkpt lat="39.4598260" lon="-8.0751940">
        <ele>99.2</ele>
        <time>2019-07-11T09:40:01Z</time>
      </trkpt>
      <trkpt lat="39.4597700" lon="-8.0753100">
        <ele>100.0</ele>
        <time>2019-07-11T09:40:05Z</time>
      </trkpt>
      <trkpt lat="39.4597490" lon="-8.0753310">
        <ele>100.2</ele>
        <time>2019-07-11T09:40:06Z</time>
      </trkpt>
      <trkpt lat="39.4597240" lon="-8.0753440">
        <ele>100.2</ele>
        <time>2019-07-11T09:40:07Z</time>
      </trkpt>
      <trkpt lat="39.4596730" lon="-8.0753530">
        <ele>100.6</ele>
        <time>2019-07-11T09:40:09Z</time>
      </trkpt>
      <trkpt lat="39.4594850" lon="-8.0753480">
        <ele>101.4</ele>
        <time>2019-07-11T09:40:15Z</time>
      </trkpt>
      <trkpt lat="39.4594490" lon="-8.0753710">
        <ele>101.4</ele>
        <time>2019-07-11T09:40:16Z</time>
      </trkpt>
      <trkpt lat="39.4593380" lon="-8.0754750">
        <ele>101.0</ele>
        <time>2019-07-11T09:40:19Z</time>
      </trkpt>
      <trkpt lat="39.4590570" lon="-8.0756900">
        <ele>100.0</ele>
        <time>2019-07-11T09:40:25Z</time>
      </trkpt>
      <trkpt lat="39.4589550" lon="-8.0757690">
        <ele>99.8</ele>
        <time>2019-07-11T09:40:27Z</time>
      </trkpt>
      <trkpt lat="39.4589040" lon="-8.0758050">
        <ele>99.6</ele>
        <time>2019-07-11T09:40:28Z</time>
      </trkpt>
      <trkpt lat="39.4588530" lon="-8.0758410">
        <ele>99.4</ele>
        <time>2019-07-11T09:40:29Z</time>
      </trkpt>
      <trkpt lat="39.4587600" lon="-8.0759130">
        <ele>99.2</ele>
        <time>2019-07-11T09:40:31Z</time>
      </trkpt>
      <trkpt lat="39.4587180" lon="-8.0759480">
        <ele>99.0</ele>
        <time>2019-07-11T09:40:32Z</time>
      </trkpt>
      <trkpt lat="39.4585340" lon="-8.0761310">
        <ele>99.6</ele>
        <time>2019-07-11T09:40:37Z</time>
      </trkpt>
      <trkpt lat="39.4584740" lon="-8.0762060">
        <ele>99.8</ele>
        <time>2019-07-11T09:40:39Z</time>
      </trkpt>
      <trkpt lat="39.4583860" lon="-8.0763170">
        <ele>99.8</ele>
        <time>2019-07-11T09:40:42Z</time>
      </trkpt>
      <trkpt lat="39.4582790" lon="-8.0764620">
        <ele>100.2</ele>
        <time>2019-07-11T09:40:46Z</time>
      </trkpt>
      <trkpt lat="39.4582330" lon="-8.0765340">
        <ele>101.0</ele>
        <time>2019-07-11T09:40:48Z</time>
      </trkpt>
      <trkpt lat="39.4581720" lon="-8.0766370">
        <ele>102.0</ele>
        <time>2019-07-11T09:40:51Z</time>
      </trkpt>
      <trkpt lat="39.4581510" lon="-8.0766690">
        <ele>102.2</ele>
        <time>2019-07-11T09:40:52Z</time>
      </trkpt>
      <trkpt lat="39.4580850" lon="-8.0767910">
        <ele>103.2</ele>
        <time>2019-07-11T09:40:56Z</time>
      </trkpt>
      <trkpt lat="39.4580430" lon="-8.0768820">
        <ele>103.8</ele>
        <time>2019-07-11T09:40:59Z</time>
      </trkpt>
      <trkpt lat="39.4579890" lon="-8.0770130">
        <ele>104.2</ele>
        <time>2019-07-11T09:41:03Z</time>
      </trkpt>
      <trkpt lat="39.4579470" lon="-8.0771200">
        <ele>104.8</ele>
        <time>2019-07-11T09:41:06Z</time>
      </trkpt>
      <trkpt lat="39.4579230" lon="-8.0771890">
        <ele>105.2</ele>
        <time>2019-07-11T09:41:08Z</time>
      </trkpt>
      <trkpt lat="39.4578890" lon="-8.0773780">
        <ele>105.8</ele>
        <time>2019-07-11T09:41:13Z</time>
      </trkpt>
      <trkpt lat="39.4578690" lon="-8.0774920">
        <ele>106.6</ele>
        <time>2019-07-11T09:41:16Z</time>
      </trkpt>
      <trkpt lat="39.4578390" lon="-8.0776550">
        <ele>107.2</ele>
        <time>2019-07-11T09:41:20Z</time>
      </trkpt>
      <trkpt lat="39.4578250" lon="-8.0777360">
        <ele>107.6</ele>
        <time>2019-07-11T09:41:22Z</time>
      </trkpt>
      <trkpt lat="39.4578140" lon="-8.0778790">
        <ele>107.8</ele>
        <time>2019-07-11T09:41:25Z</time>
      </trkpt>
      <trkpt lat="39.4578140" lon="-8.0779320">
        <ele>107.6</ele>
        <time>2019-07-11T09:41:26Z</time>
      </trkpt>
      <trkpt lat="39.4578110" lon="-8.0779900">
        <ele>107.4</ele>
        <time>2019-07-11T09:41:27Z</time>
      </trkpt>
      <trkpt lat="39.4577740" lon="-8.0781900">
        <ele>106.6</ele>
        <time>2019-07-11T09:41:30Z</time>
      </trkpt>
      <trkpt lat="39.4576820" lon="-8.0784740">
        <ele>105.4</ele>
        <time>2019-07-11T09:41:34Z</time>
      </trkpt>
      <trkpt lat="39.4576650" lon="-8.0785410">
        <ele>105.2</ele>
        <time>2019-07-11T09:41:35Z</time>
      </trkpt>
      <trkpt lat="39.4576380" lon="-8.0786730">
        <ele>105.0</ele>
        <time>2019-07-11T09:41:37Z</time>
      </trkpt>
      <trkpt lat="39.4576150" lon="-8.0788050">
        <ele>104.8</ele>
        <time>2019-07-11T09:41:39Z</time>
      </trkpt>
      <trkpt lat="39.4575930" lon="-8.0789450">
        <ele>104.6</ele>
        <time>2019-07-11T09:41:41Z</time>
      </trkpt>
      <trkpt lat="39.4575840" lon="-8.0790180">
        <ele>104.6</ele>
        <time>2019-07-11T09:41:42Z</time>
      </trkpt>
      <trkpt lat="39.4575680" lon="-8.0791620">
        <ele>104.0</ele>
        <time>2019-07-11T09:41:44Z</time>
      </trkpt>
      <trkpt lat="39.4575650" lon="-8.0792300">
        <ele>103.2</ele>
        <time>2019-07-11T09:41:45Z</time>
      </trkpt>
      <trkpt lat="39.4575650" lon="-8.0792960">
        <ele>102.6</ele>
        <time>2019-07-11T09:41:46Z</time>
      </trkpt>
      <trkpt lat="39.4575840" lon="-8.0794260">
        <ele>102.0</ele>
        <time>2019-07-11T09:41:48Z</time>
      </trkpt>
      <trkpt lat="39.4576300" lon="-8.0795570">
        <ele>101.6</ele>
        <time>2019-07-11T09:41:50Z</time>
      </trkpt>
      <trkpt lat="39.4576600" lon="-8.0796240">
        <ele>101.0</ele>
        <time>2019-07-11T09:41:51Z</time>
      </trkpt>
      <trkpt lat="39.4576900" lon="-8.0796870">
        <ele>100.6</ele>
        <time>2019-07-11T09:41:52Z</time>
      </trkpt>
      <trkpt lat="39.4577260" lon="-8.0797750">
        <ele>100.2</ele>
        <time>2019-07-11T09:41:54Z</time>
      </trkpt>
      <trkpt lat="39.4577280" lon="-8.0798040">
        <ele>100.0</ele>
        <time>2019-07-11T09:41:55Z</time>
      </trkpt>
      <trkpt lat="39.4576630" lon="-8.0799130">
        <ele>99.8</ele>
        <time>2019-07-11T09:41:59Z</time>
      </trkpt>
      <trkpt lat="39.4576510" lon="-8.0799510">
        <ele>99.6</ele>
        <time>2019-07-11T09:42:00Z</time>
      </trkpt>
      <trkpt lat="39.4576350" lon="-8.0801220">
        <ele>99.6</ele>
        <time>2019-07-11T09:42:04Z</time>
      </trkpt>
      <trkpt lat="39.4576510" lon="-8.0803080">
        <ele>99.4</ele>
        <time>2019-07-11T09:42:08Z</time>
      </trkpt>
      <trkpt lat="39.4576570" lon="-8.0803590">
        <ele>99.4</ele>
        <time>2019-07-11T09:42:09Z</time>
      </trkpt>
      <trkpt lat="39.4576680" lon="-8.0804140">
        <ele>99.4</ele>
        <time>2019-07-11T09:42:10Z</time>
      </trkpt>
      <trkpt lat="39.4577330" lon="-8.0807290">
        <ele>98.8</ele>
        <time>2019-07-11T09:42:15Z</time>
      </trkpt>
      <trkpt lat="39.4577540" lon="-8.0808000">
        <ele>98.6</ele>
        <time>2019-07-11T09:42:16Z</time>
      </trkpt>
      <trkpt lat="39.4578210" lon="-8.0810210">
        <ele>98.0</ele>
        <time>2019-07-11T09:42:19Z</time>
      </trkpt>
      <trkpt lat="39.4578530" lon="-8.0811800">
        <ele>97.0</ele>
        <time>2019-07-11T09:42:21Z</time>
      </trkpt>
      <trkpt lat="39.4578670" lon="-8.0812560">
        <ele>96.4</ele>
        <time>2019-07-11T09:42:22Z</time>
      </trkpt>
      <trkpt lat="39.4578780" lon="-8.0813280">
        <ele>95.8</ele>
        <time>2019-07-11T09:42:23Z</time>
      </trkpt>
      <trkpt lat="39.4578530" lon="-8.0815270">
        <ele>94.6</ele>
        <time>2019-07-11T09:42:26Z</time>
      </trkpt>
      <trkpt lat="39.4577550" lon="-8.0816980">
        <ele>93.6</ele>
        <time>2019-07-11T09:42:29Z</time>
      </trkpt>
      <trkpt lat="39.4577180" lon="-8.0817400">
        <ele>92.6</ele>
        <time>2019-07-11T09:42:30Z</time>
      </trkpt>
      <trkpt lat="39.4576800" lon="-8.0817750">
        <ele>92.0</ele>
        <time>2019-07-11T09:42:31Z</time>
      </trkpt>
      <trkpt lat="39.4576400" lon="-8.0818060">
        <ele>91.8</ele>
        <time>2019-07-11T09:42:32Z</time>
      </trkpt>
      <trkpt lat="39.4575540" lon="-8.0818710">
        <ele>90.8</ele>
        <time>2019-07-11T09:42:34Z</time>
      </trkpt>
      <trkpt lat="39.4574590" lon="-8.0819350">
        <ele>89.6</ele>
        <time>2019-07-11T09:42:36Z</time>
      </trkpt>
      <trkpt lat="39.4573510" lon="-8.0820200">
        <ele>88.6</ele>
        <time>2019-07-11T09:42:38Z</time>
      </trkpt>
      <trkpt lat="39.4572530" lon="-8.0821510">
        <ele>87.6</ele>
        <time>2019-07-11T09:42:40Z</time>
      </trkpt>
      <trkpt lat="39.4572100" lon="-8.0822260">
        <ele>87.4</ele>
        <time>2019-07-11T09:42:41Z</time>
      </trkpt>
      <trkpt lat="39.4571740" lon="-8.0823030">
        <ele>87.4</ele>
        <time>2019-07-11T09:42:42Z</time>
      </trkpt>
      <trkpt lat="39.4571060" lon="-8.0824490">
        <ele>87.2</ele>
        <time>2019-07-11T09:42:44Z</time>
      </trkpt>
      <trkpt lat="39.4570700" lon="-8.0825110">
        <ele>87.2</ele>
        <time>2019-07-11T09:42:45Z</time>
      </trkpt>
      <trkpt lat="39.4569790" lon="-8.0826720">
        <ele>86.6</ele>
        <time>2019-07-11T09:42:48Z</time>
      </trkpt>
      <trkpt lat="39.4569400" lon="-8.0827580">
        <ele>87.0</ele>
        <time>2019-07-11T09:42:50Z</time>
      </trkpt>
      <trkpt lat="39.4569100" lon="-8.0828320">
        <ele>87.6</ele>
        <time>2019-07-11T09:42:52Z</time>
      </trkpt>
      <trkpt lat="39.4568670" lon="-8.0829220">
        <ele>88.6</ele>
        <time>2019-07-11T09:42:55Z</time>
      </trkpt>
      <trkpt lat="39.4568520" lon="-8.0829450">
        <ele>88.8</ele>
        <time>2019-07-11T09:42:56Z</time>
      </trkpt>
      <trkpt lat="39.4568260" lon="-8.0829910">
        <ele>89.8</ele>
        <time>2019-07-11T09:42:58Z</time>
      </trkpt>
      <trkpt lat="39.4567940" lon="-8.0830400">
        <ele>90.2</ele>
        <time>2019-07-11T09:43:00Z</time>
      </trkpt>
      <trkpt lat="39.4567660" lon="-8.0830880">
        <ele>90.4</ele>
        <time>2019-07-11T09:43:02Z</time>
      </trkpt>
      <trkpt lat="39.4567390" lon="-8.0831380">
        <ele>90.6</ele>
        <time>2019-07-11T09:43:04Z</time>
      </trkpt>
      <trkpt lat="39.4567290" lon="-8.0831620">
        <ele>91.0</ele>
        <time>2019-07-11T09:43:05Z</time>
      </trkpt>
      <trkpt lat="39.4567230" lon="-8.0832150">
        <ele>92.0</ele>
        <time>2019-07-11T09:43:07Z</time>
      </trkpt>
      <trkpt lat="39.4567340" lon="-8.0832610">
        <ele>92.6</ele>
        <time>2019-07-11T09:43:09Z</time>
      </trkpt>
      <trkpt lat="39.4567510" lon="-8.0833070">
        <ele>93.2</ele>
        <time>2019-07-11T09:43:11Z</time>
      </trkpt>
      <trkpt lat="39.4567660" lon="-8.0833510">
        <ele>94.0</ele>
        <time>2019-07-11T09:43:13Z</time>
      </trkpt>
      <trkpt lat="39.4567690" lon="-8.0833730">
        <ele>94.6</ele>
        <time>2019-07-11T09:43:14Z</time>
      </trkpt>
      <trkpt lat="39.4567720" lon="-8.0833920">
        <ele>94.8</ele>
        <time>2019-07-11T09:43:15Z</time>
      </trkpt>
      <trkpt lat="39.4568010" lon="-8.0834430">
        <ele>95.6</ele>
        <time>2019-07-11T09:43:18Z</time>
      </trkpt>
      <trkpt lat="39.4568210" lon="-8.0834840">
        <ele>95.8</ele>
        <time>2019-07-11T09:43:20Z</time>
      </trkpt>
      <trkpt lat="39.4568680" lon="-8.0835440">
        <ele>96.4</ele>
        <time>2019-07-11T09:43:24Z</time>
      </trkpt>
      <trkpt lat="39.4568990" lon="-8.0835940">
        <ele>96.8</ele>
        <time>2019-07-11T09:43:27Z</time>
      </trkpt>
      <trkpt lat="39.4569530" lon="-8.0836740">
        <ele>98.4</ele>
        <time>2019-07-11T09:43:32Z</time>
      </trkpt>
      <trkpt lat="39.4569650" lon="-8.0837140">
        <ele>98.8</ele>
        <time>2019-07-11T09:43:34Z</time>
      </trkpt>
      <trkpt lat="39.4569870" lon="-8.0837680">
        <ele>99.4</ele>
        <time>2019-07-11T09:43:37Z</time>
      </trkpt>
      <trkpt lat="39.4570130" lon="-8.0838360">
        <ele>100.4</ele>
        <time>2019-07-11T09:43:41Z</time>
      </trkpt>
      <trkpt lat="39.4570200" lon="-8.0838580">
        <ele>100.6</ele>
        <time>2019-07-11T09:43:42Z</time>
      </trkpt>
      <trkpt lat="39.4570580" lon="-8.0839990">
        <ele>101.8</ele>
        <time>2019-07-11T09:43:48Z</time>
      </trkpt>
      <trkpt lat="39.4570770" lon="-8.0841170">
        <ele>102.8</ele>
        <time>2019-07-11T09:43:53Z</time>
      </trkpt>
      <trkpt lat="39.4570910" lon="-8.0841930">
        <ele>103.8</ele>
        <time>2019-07-11T09:43:56Z</time>
      </trkpt>
      <trkpt lat="39.4570940" lon="-8.0842170">
        <ele>104.0</ele>
        <time>2019-07-11T09:43:57Z</time>
      </trkpt>
      <trkpt lat="39.4571330" lon="-8.0843600">
        <ele>105.0</ele>
        <time>2019-07-11T09:44:03Z</time>
      </trkpt>
      <trkpt lat="39.4572100" lon="-8.0845480">
        <ele>106.2</ele>
        <time>2019-07-11T09:44:10Z</time>
      </trkpt>
      <trkpt lat="39.4572250" lon="-8.0845720">
        <ele>106.4</ele>
        <time>2019-07-11T09:44:11Z</time>
      </trkpt>
      <trkpt lat="39.4572840" lon="-8.0846630">
        <ele>107.2</ele>
        <time>2019-07-11T09:44:15Z</time>
      </trkpt>
      <trkpt lat="39.4573410" lon="-8.0847390">
        <ele>107.8</ele>
        <time>2019-07-11T09:44:19Z</time>
      </trkpt>
      <trkpt lat="39.4573880" lon="-8.0848240">
        <ele>108.4</ele>
        <time>2019-07-11T09:44:23Z</time>
      </trkpt>
      <trkpt lat="39.4574390" lon="-8.0849140">
        <ele>109.6</ele>
        <time>2019-07-11T09:44:27Z</time>
      </trkpt>
      <trkpt lat="39.4574530" lon="-8.0849370">
        <ele>109.8</ele>
        <time>2019-07-11T09:44:28Z</time>
      </trkpt>
      <trkpt lat="39.4575050" lon="-8.0850340">
        <ele>111.0</ele>
        <time>2019-07-11T09:44:32Z</time>
      </trkpt>
      <trkpt lat="39.4575450" lon="-8.0851260">
        <ele>111.6</ele>
        <time>2019-07-11T09:44:36Z</time>
      </trkpt>
      <trkpt lat="39.4575630" lon="-8.0851940">
        <ele>112.0</ele>
        <time>2019-07-11T09:44:39Z</time>
      </trkpt>
      <trkpt lat="39.4575750" lon="-8.0852580">
        <ele>112.8</ele>
        <time>2019-07-11T09:44:42Z</time>
      </trkpt>
      <trkpt lat="39.4575840" lon="-8.0853070">
        <ele>113.2</ele>
        <time>2019-07-11T09:44:44Z</time>
      </trkpt>
      <trkpt lat="39.4575990" lon="-8.0853800">
        <ele>114.4</ele>
        <time>2019-07-11T09:44:47Z</time>
      </trkpt>
      <trkpt lat="39.4576080" lon="-8.0854250">
        <ele>115.0</ele>
        <time>2019-07-11T09:44:49Z</time>
      </trkpt>
      <trkpt lat="39.4576120" lon="-8.0854470">
        <ele>115.4</ele>
        <time>2019-07-11T09:44:50Z</time>
      </trkpt>
      <trkpt lat="39.4576340" lon="-8.0855830">
        <ele>116.4</ele>
        <time>2019-07-11T09:44:56Z</time>
      </trkpt>
      <trkpt lat="39.4576670" lon="-8.0857790">
        <ele>117.4</ele>
        <time>2019-07-11T09:45:02Z</time>
      </trkpt>
      <trkpt lat="39.4576720" lon="-8.0858110">
        <ele>117.6</ele>
        <time>2019-07-11T09:45:03Z</time>
      </trkpt>
      <trkpt lat="39.4577220" lon="-8.0860020">
        <ele>118.8</ele>
        <time>2019-07-11T09:45:10Z</time>
      </trkpt>
      <trkpt lat="39.4577450" lon="-8.0861150">
        <ele>119.8</ele>
        <time>2019-07-11T09:45:14Z</time>
      </trkpt>
      <trkpt lat="39.4577560" lon="-8.0861420">
        <ele>120.0</ele>
        <time>2019-07-11T09:45:15Z</time>
      </trkpt>
      <trkpt lat="39.4578080" lon="-8.0862370">
        <ele>121.0</ele>
        <time>2019-07-11T09:45:19Z</time>
      </trkpt>
      <trkpt lat="39.4578510" lon="-8.0863070">
        <ele>121.2</ele>
        <time>2019-07-11T09:45:22Z</time>
      </trkpt>
      <trkpt lat="39.4579120" lon="-8.0864170">
        <ele>122.0</ele>
        <time>2019-07-11T09:45:26Z</time>
      </trkpt>
      <trkpt lat="39.4579580" lon="-8.0865050">
        <ele>122.4</ele>
        <time>2019-07-11T09:45:29Z</time>
      </trkpt>
      <trkpt lat="39.4580220" lon="-8.0865780">
        <ele>123.2</ele>
        <time>2019-07-11T09:45:32Z</time>
      </trkpt>
      <trkpt lat="39.4581260" lon="-8.0866770">
        <ele>123.8</ele>
        <time>2019-07-11T09:45:36Z</time>
      </trkpt>
      <trkpt lat="39.4582600" lon="-8.0868870">
        <ele>124.0</ele>
        <time>2019-07-11T09:45:42Z</time>
      </trkpt>
      <trkpt lat="39.4582920" lon="-8.0869650">
        <ele>124.2</ele>
        <time>2019-07-11T09:45:44Z</time>
      </trkpt>
      <trkpt lat="39.4583590" lon="-8.0871610">
        <ele>125.0</ele>
        <time>2019-07-11T09:45:49Z</time>
      </trkpt>
      <trkpt lat="39.4583960" lon="-8.0872830">
        <ele>125.2</ele>
        <time>2019-07-11T09:45:52Z</time>
      </trkpt>
      <trkpt lat="39.4584490" lon="-8.0874400">
        <ele>126.2</ele>
        <time>2019-07-11T09:45:56Z</time>
      </trkpt>
      <trkpt lat="39.4584600" lon="-8.0874820">
        <ele>126.2</ele>
        <time>2019-07-11T09:45:57Z</time>
      </trkpt>
      <trkpt lat="39.4584710" lon="-8.0875240">
        <ele>126.4</ele>
        <time>2019-07-11T09:45:58Z</time>
      </trkpt>
      <trkpt lat="39.4585360" lon="-8.0877560">
        <ele>127.0</ele>
        <time>2019-07-11T09:46:04Z</time>
      </trkpt>
      <trkpt lat="39.4586270" lon="-8.0880250">
        <ele>127.0</ele>
        <time>2019-07-11T09:46:10Z</time>
      </trkpt>
      <trkpt lat="39.4587280" lon="-8.0883310">
        <ele>126.6</ele>
        <time>2019-07-11T09:46:15Z</time>
      </trkpt>
      <trkpt lat="39.4587490" lon="-8.0884030">
        <ele>126.4</ele>
        <time>2019-07-11T09:46:16Z</time>
      </trkpt>
      <trkpt lat="39.4588550" lon="-8.0887670">
        <ele>125.6</ele>
        <time>2019-07-11T09:46:21Z</time>
      </trkpt>
      <trkpt lat="39.4589020" lon="-8.0889170">
        <ele>125.6</ele>
        <time>2019-07-11T09:46:23Z</time>
      </trkpt>
      <trkpt lat="39.4589500" lon="-8.0890640">
        <ele>125.6</ele>
        <time>2019-07-11T09:46:25Z</time>
      </trkpt>
      <trkpt lat="39.4589710" lon="-8.0891370">
        <ele>125.6</ele>
        <time>2019-07-11T09:46:26Z</time>
      </trkpt>
      <trkpt lat="39.4589900" lon="-8.0892060">
        <ele>125.4</ele>
        <time>2019-07-11T09:46:27Z</time>
      </trkpt>
      <trkpt lat="39.4590450" lon="-8.0894040">
        <ele>124.8</ele>
        <time>2019-07-11T09:46:30Z</time>
      </trkpt>
      <trkpt lat="39.4591280" lon="-8.0896990">
        <ele>124.8</ele>
        <time>2019-07-11T09:46:35Z</time>
      </trkpt>
      <trkpt lat="39.4591660" lon="-8.0898160">
        <ele>124.8</ele>
        <time>2019-07-11T09:46:37Z</time>
      </trkpt>
      <trkpt lat="39.4592720" lon="-8.0901860">
        <ele>124.6</ele>
        <time>2019-07-11T09:46:43Z</time>
      </trkpt>
      <trkpt lat="39.4592910" lon="-8.0902480">
        <ele>124.6</ele>
        <time>2019-07-11T09:46:44Z</time>
      </trkpt>
      <trkpt lat="39.4593870" lon="-8.0905300">
        <ele>124.6</ele>
        <time>2019-07-11T09:46:49Z</time>
      </trkpt>
      <trkpt lat="39.4594350" lon="-8.0906260">
        <ele>124.4</ele>
        <time>2019-07-11T09:46:51Z</time>
      </trkpt>
      <trkpt lat="39.4595100" lon="-8.0907760">
        <ele>124.2</ele>
        <time>2019-07-11T09:46:54Z</time>
      </trkpt>
      <trkpt lat="39.4595780" lon="-8.0909200">
        <ele>124.2</ele>
        <time>2019-07-11T09:46:57Z</time>
      </trkpt>
      <trkpt lat="39.4595960" lon="-8.0909670">
        <ele>124.2</ele>
        <time>2019-07-11T09:46:58Z</time>
      </trkpt>
      <trkpt lat="39.4596120" lon="-8.0910180">
        <ele>124.2</ele>
        <time>2019-07-11T09:46:59Z</time>
      </trkpt>
      <trkpt lat="39.4596620" lon="-8.0912470">
        <ele>124.2</ele>
        <time>2019-07-11T09:47:03Z</time>
      </trkpt>
      <trkpt lat="39.4597180" lon="-8.0915120">
        <ele>124.2</ele>
        <time>2019-07-11T09:47:07Z</time>
      </trkpt>
      <trkpt lat="39.4597480" lon="-8.0916670">
        <ele>123.8</ele>
        <time>2019-07-11T09:47:09Z</time>
      </trkpt>
      <trkpt lat="39.4597630" lon="-8.0917460">
        <ele>123.4</ele>
        <time>2019-07-11T09:47:10Z</time>
      </trkpt>
      <trkpt lat="39.4598060" lon="-8.0919850">
        <ele>122.4</ele>
        <time>2019-07-11T09:47:13Z</time>
      </trkpt>
      <trkpt lat="39.4598890" lon="-8.0924560">
        <ele>121.8</ele>
        <time>2019-07-11T09:47:19Z</time>
      </trkpt>
      <trkpt lat="39.4599880" lon="-8.0930000">
        <ele>121.4</ele>
        <time>2019-07-11T09:47:26Z</time>
      </trkpt>
      <trkpt lat="39.4600140" lon="-8.0931630">
        <ele>121.0</ele>
        <time>2019-07-11T09:47:28Z</time>
      </trkpt>
      <trkpt lat="39.4600320" lon="-8.0933340">
        <ele>120.4</ele>
        <time>2019-07-11T09:47:30Z</time>
      </trkpt>
      <trkpt lat="39.4600880" lon="-8.0936770">
        <ele>120.4</ele>
        <time>2019-07-11T09:47:34Z</time>
      </trkpt>
      <trkpt lat="39.4601130" lon="-8.0940260">
        <ele>120.0</ele>
        <time>2019-07-11T09:47:38Z</time>
      </trkpt>
      <trkpt lat="39.4601200" lon="-8.0942080">
        <ele>119.6</ele>
        <time>2019-07-11T09:47:40Z</time>
      </trkpt>
      <trkpt lat="39.4601340" lon="-8.0944890">
        <ele>119.2</ele>
        <time>2019-07-11T09:47:43Z</time>
      </trkpt>
      <trkpt lat="39.4601500" lon="-8.0945780">
        <ele>119.0</ele>
        <time>2019-07-11T09:47:44Z</time>
      </trkpt>
      <trkpt lat="39.4601630" lon="-8.0946620">
        <ele>119.0</ele>
        <time>2019-07-11T09:47:45Z</time>
      </trkpt>
      <trkpt lat="39.4602170" lon="-8.0950250">
        <ele>119.6</ele>
        <time>2019-07-11T09:47:50Z</time>
      </trkpt>
      <trkpt lat="39.4602250" lon="-8.0950810">
        <ele>119.8</ele>
        <time>2019-07-11T09:47:51Z</time>
      </trkpt>
      <trkpt lat="39.4602340" lon="-8.0951840">
        <ele>120.4</ele>
        <time>2019-07-11T09:47:53Z</time>
      </trkpt>
      <trkpt lat="39.4602390" lon="-8.0952770">
        <ele>121.2</ele>
        <time>2019-07-11T09:47:55Z</time>
      </trkpt>
      <trkpt lat="39.4602400" lon="-8.0953240">
        <ele>121.4</ele>
        <time>2019-07-11T09:47:56Z</time>
      </trkpt>
      <trkpt lat="39.4602370" lon="-8.0954240">
        <ele>122.0</ele>
        <time>2019-07-11T09:47:58Z</time>
      </trkpt>
      <trkpt lat="39.4602290" lon="-8.0955290">
        <ele>122.4</ele>
        <time>2019-07-11T09:48:00Z</time>
      </trkpt>
      <trkpt lat="39.4602110" lon="-8.0957030">
        <ele>123.4</ele>
        <time>2019-07-11T09:48:03Z</time>
      </trkpt>
      <trkpt lat="39.4602050" lon="-8.0957620">
        <ele>123.6</ele>
        <time>2019-07-11T09:48:04Z</time>
      </trkpt>
      <trkpt lat="39.4601980" lon="-8.0958220">
        <ele>123.6</ele>
        <time>2019-07-11T09:48:05Z</time>
      </trkpt>
      <trkpt lat="39.4601710" lon="-8.0960050">
        <ele>123.6</ele>
        <time>2019-07-11T09:48:08Z</time>
      </trkpt>
      <trkpt lat="39.4601370" lon="-8.0961850">
        <ele>124.0</ele>
        <time>2019-07-11T09:48:11Z</time>
      </trkpt>
      <trkpt lat="39.4600660" lon="-8.0964710">
        <ele>124.6</ele>
        <time>2019-07-11T09:48:16Z</time>
      </trkpt>
      <trkpt lat="39.4600160" lon="-8.0966240">
        <ele>124.8</ele>
        <time>2019-07-11T09:48:19Z</time>
      </trkpt>
      <trkpt lat="39.4599990" lon="-8.0966690">
        <ele>124.8</ele>
        <time>2019-07-11T09:48:20Z</time>
      </trkpt>
      <trkpt lat="39.4599180" lon="-8.0968710">
        <ele>125.8</ele>
        <time>2019-07-11T09:48:25Z</time>
      </trkpt>
      <trkpt lat="39.4598840" lon="-8.0969480">
        <ele>126.4</ele>
        <time>2019-07-11T09:48:27Z</time>
      </trkpt>
      <trkpt lat="39.4598080" lon="-8.0971080">
        <ele>127.0</ele>
        <time>2019-07-11T09:48:31Z</time>
      </trkpt>
      <trkpt lat="39.4597210" lon="-8.0972750">
        <ele>127.6</ele>
        <time>2019-07-11T09:48:35Z</time>
      </trkpt>
      <trkpt lat="39.4596030" lon="-8.0974890">
        <ele>127.8</ele>
        <time>2019-07-11T09:48:40Z</time>
      </trkpt>
      <trkpt lat="39.4595450" lon="-8.0975680">
        <ele>128.0</ele>
        <time>2019-07-11T09:48:42Z</time>
      </trkpt>
      <trkpt lat="39.4594820" lon="-8.0976450">
        <ele>128.2</ele>
        <time>2019-07-11T09:48:44Z</time>
      </trkpt>
      <trkpt lat="39.4593890" lon="-8.0977630">
        <ele>128.6</ele>
        <time>2019-07-11T09:48:47Z</time>
      </trkpt>
      <trkpt lat="39.4592700" lon="-8.0979450">
        <ele>128.8</ele>
        <time>2019-07-11T09:48:51Z</time>
      </trkpt>
      <trkpt lat="39.4592150" lon="-8.0980440">
        <ele>129.0</ele>
        <time>2019-07-11T09:48:53Z</time>
      </trkpt>
      <trkpt lat="39.4591530" lon="-8.0982240">
        <ele>129.2</ele>
        <time>2019-07-11T09:48:56Z</time>
      </trkpt>
      <trkpt lat="39.4589850" lon="-8.0986230">
        <ele>128.4</ele>
        <time>2019-07-11T09:49:02Z</time>
      </trkpt>
      <trkpt lat="39.4589230" lon="-8.0987690">
        <ele>127.6</ele>
        <time>2019-07-11T09:49:04Z</time>
      </trkpt>
      <trkpt lat="39.4588950" lon="-8.0988500">
        <ele>127.2</ele>
        <time>2019-07-11T09:49:05Z</time>
      </trkpt>
      <trkpt lat="39.4588380" lon="-8.0990400">
        <ele>125.8</ele>
        <time>2019-07-11T09:49:07Z</time>
      </trkpt>
      <trkpt lat="39.4587830" lon="-8.0992410">
        <ele>124.2</ele>
        <time>2019-07-11T09:49:09Z</time>
      </trkpt>
      <trkpt lat="39.4587190" lon="-8.0994800">
        <ele>124.0</ele>
        <time>2019-07-11T09:49:12Z</time>
      </trkpt>
      <trkpt lat="39.4586730" lon="-8.0996550">
        <ele>125.4</ele>
        <time>2019-07-11T09:49:15Z</time>
      </trkpt>
      <trkpt lat="39.4586630" lon="-8.0997110">
        <ele>125.4</ele>
        <time>2019-07-11T09:49:16Z</time>
      </trkpt>
      <trkpt lat="39.4586570" lon="-8.0997700">
        <ele>125.6</ele>
        <time>2019-07-11T09:49:17Z</time>
      </trkpt>
      <trkpt lat="39.4586550" lon="-8.0998330">
        <ele>125.6</ele>
        <time>2019-07-11T09:49:18Z</time>
      </trkpt>
      <trkpt lat="39.4586590" lon="-8.0999640">
        <ele>125.6</ele>
        <time>2019-07-11T09:49:20Z</time>
      </trkpt>
      <trkpt lat="39.4586510" lon="-8.1000350">
        <ele>125.4</ele>
        <time>2019-07-11T09:49:21Z</time>
      </trkpt>
      <trkpt lat="39.4586340" lon="-8.1001040">
        <ele>125.0</ele>
        <time>2019-07-11T09:49:22Z</time>
      </trkpt>
      <trkpt lat="39.4586080" lon="-8.1001720">
        <ele>124.2</ele>
        <time>2019-07-11T09:49:23Z</time>
      </trkpt>
      <trkpt lat="39.4585200" lon="-8.1003100">
        <ele>122.8</ele>
        <time>2019-07-11T09:49:25Z</time>
      </trkpt>
      <trkpt lat="39.4584200" lon="-8.1004570">
        <ele>120.8</ele>
        <time>2019-07-11T09:49:27Z</time>
      </trkpt>
      <trkpt lat="39.4583750" lon="-8.1005220">
        <ele>120.2</ele>
        <time>2019-07-11T09:49:28Z</time>
      </trkpt>
      <trkpt lat="39.4583350" lon="-8.1005790">
        <ele>119.6</ele>
        <time>2019-07-11T09:49:29Z</time>
      </trkpt>
      <trkpt lat="39.4583050" lon="-8.1007480">
        <ele>119.0</ele>
        <time>2019-07-11T09:49:32Z</time>
      </trkpt>
      <trkpt lat="39.4583350" lon="-8.1008480">
        <ele>119.0</ele>
        <time>2019-07-11T09:49:34Z</time>
      </trkpt>
      <trkpt lat="39.4583620" lon="-8.1009320">
        <ele>119.8</ele>
        <time>2019-07-11T09:49:36Z</time>
      </trkpt>
      <trkpt lat="39.4583750" lon="-8.1009710">
        <ele>120.2</ele>
        <time>2019-07-11T09:49:37Z</time>
      </trkpt>
      <trkpt lat="39.4583860" lon="-8.1010080">
        <ele>120.8</ele>
        <time>2019-07-11T09:49:38Z</time>
      </trkpt>
      <trkpt lat="39.4583960" lon="-8.1010430">
        <ele>121.2</ele>
        <time>2019-07-11T09:49:39Z</time>
      </trkpt>
      <trkpt lat="39.4584150" lon="-8.1011120">
        <ele>121.8</ele>
        <time>2019-07-11T09:49:41Z</time>
      </trkpt>
      <trkpt lat="39.4584240" lon="-8.1011460">
        <ele>122.2</ele>
        <time>2019-07-11T09:49:42Z</time>
      </trkpt>
      <trkpt lat="39.4584430" lon="-8.1012090">
        <ele>122.8</ele>
        <time>2019-07-11T09:49:44Z</time>
      </trkpt>
      <trkpt lat="39.4584620" lon="-8.1012720">
        <ele>123.6</ele>
        <time>2019-07-11T09:49:46Z</time>
      </trkpt>
      <trkpt lat="39.4585030" lon="-8.1014070">
        <ele>124.8</ele>
        <time>2019-07-11T09:49:50Z</time>
      </trkpt>
      <trkpt lat="39.4585420" lon="-8.1015460">
        <ele>125.0</ele>
        <time>2019-07-11T09:49:53Z</time>
      </trkpt>
      <trkpt lat="39.4585520" lon="-8.1015810">
        <ele>125.8</ele>
        <time>2019-07-11T09:49:55Z</time>
      </trkpt>
      <trkpt lat="39.4585950" lon="-8.1017180">
        <ele>126.8</ele>
        <time>2019-07-11T09:49:59Z</time>
      </trkpt>
      <trkpt lat="39.4586170" lon="-8.1017900">
        <ele>127.0</ele>
        <time>2019-07-11T09:50:01Z</time>
      </trkpt>
      <trkpt lat="39.4586300" lon="-8.1018270">
        <ele>127.2</ele>
        <time>2019-07-11T09:50:02Z</time>
      </trkpt>
      <trkpt lat="39.4586860" lon="-8.1020110">
        <ele>127.8</ele>
        <time>2019-07-11T09:50:07Z</time>
      </trkpt>
      <trkpt lat="39.4587240" lon="-8.1021350">
        <ele>128.0</ele>
        <time>2019-07-11T09:50:10Z</time>
      </trkpt>
      <trkpt lat="39.4587380" lon="-8.1021760">
        <ele>128.2</ele>
        <time>2019-07-11T09:50:11Z</time>
      </trkpt>
      <trkpt lat="39.4587370" lon="-8.1024100">
        <ele>129.2</ele>
        <time>2019-07-11T09:50:16Z</time>
      </trkpt>
      <trkpt lat="39.4587170" lon="-8.1024510">
        <ele>129.4</ele>
        <time>2019-07-11T09:50:17Z</time>
      </trkpt>
      <trkpt lat="39.4586160" lon="-8.1026250">
        <ele>129.4</ele>
        <time>2019-07-11T09:50:21Z</time>
      </trkpt>
      <trkpt lat="39.4583930" lon="-8.1029580">
        <ele>129.4</ele>
        <time>2019-07-11T09:50:28Z</time>
      </trkpt>
      <trkpt lat="39.4583590" lon="-8.1030050">
        <ele>129.4</ele>
        <time>2019-07-11T09:50:29Z</time>
      </trkpt>
      <trkpt lat="39.4581870" lon="-8.1032330">
        <ele>129.8</ele>
        <time>2019-07-11T09:50:34Z</time>
      </trkpt>
      <trkpt lat="39.4580820" lon="-8.1033700">
        <ele>130.4</ele>
        <time>2019-07-11T09:50:37Z</time>
      </trkpt>
      <trkpt lat="39.4579790" lon="-8.1035160">
        <ele>130.4</ele>
        <time>2019-07-11T09:50:40Z</time>
      </trkpt>
      <trkpt lat="39.4578770" lon="-8.1036700">
        <ele>130.4</ele>
        <time>2019-07-11T09:50:43Z</time>
      </trkpt>
      <trkpt lat="39.4578420" lon="-8.1037210">
        <ele>130.4</ele>
        <time>2019-07-11T09:50:44Z</time>
      </trkpt>
      <trkpt lat="39.4577040" lon="-8.1039320">
        <ele>130.4</ele>
        <time>2019-07-11T09:50:47Z</time>
      </trkpt>
      <trkpt lat="39.4576640" lon="-8.1039780">
        <ele>130.2</ele>
        <time>2019-07-11T09:50:49Z</time>
      </trkpt>
      <trkpt lat="39.4575880" lon="-8.1040710">
        <ele>130.2</ele>
        <time>2019-07-11T09:50:51Z</time>
      </trkpt>
      <trkpt lat="39.4574860" lon="-8.1042420">
        <ele>130.2</ele>
        <time>2019-07-11T09:50:54Z</time>
      </trkpt>
      <trkpt lat="39.4574160" lon="-8.1043570">
        <ele>130.0</ele>
        <time>2019-07-11T09:50:56Z</time>
      </trkpt>
      <trkpt lat="39.4572580" lon="-8.1045580">
        <ele>130.0</ele>
        <time>2019-07-11T09:50:59Z</time>
      </trkpt>
      <trkpt lat="39.4571360" lon="-8.1046810">
        <ele>129.4</ele>
        <time>2019-07-11T09:51:03Z</time>
      </trkpt>
      <trkpt lat="39.4571020" lon="-8.1047270">
        <ele>129.4</ele>
        <time>2019-07-11T09:51:04Z</time>
      </trkpt>
      <trkpt lat="39.4570620" lon="-8.1048380">
        <ele>129.4</ele>
        <time>2019-07-11T09:51:05Z</time>
      </trkpt>
      <trkpt lat="39.4570470" lon="-8.1049570">
        <ele>129.8</ele>
        <time>2019-07-11T09:51:08Z</time>
      </trkpt>
      <trkpt lat="39.4570750" lon="-8.1050650">
        <ele>129.8</ele>
        <time>2019-07-11T09:51:10Z</time>
      </trkpt>
      <trkpt lat="39.4571010" lon="-8.1051780">
        <ele>130.0</ele>
        <time>2019-07-11T09:51:12Z</time>
      </trkpt>
      <trkpt lat="39.4571250" lon="-8.1053620">
        <ele>130.2</ele>
        <time>2019-07-11T09:51:15Z</time>
      </trkpt>
      <trkpt lat="39.4571700" lon="-8.1057980">
        <ele>130.6</ele>
        <time>2019-07-11T09:51:22Z</time>
      </trkpt>
      <trkpt lat="39.4572100" lon="-8.1061740">
        <ele>131.0</ele>
        <time>2019-07-11T09:51:28Z</time>
      </trkpt>
      <trkpt lat="39.4572270" lon="-8.1062960">
        <ele>131.0</ele>
        <time>2019-07-11T09:51:29Z</time>
      </trkpt>
      <trkpt lat="39.4572950" lon="-8.1067220">
        <ele>130.8</ele>
        <time>2019-07-11T09:51:37Z</time>
      </trkpt>
      <trkpt lat="39.4573060" lon="-8.1067810">
        <ele>130.8</ele>
        <time>2019-07-11T09:51:38Z</time>
      </trkpt>
      <trkpt lat="39.4573730" lon="-8.1071550">
        <ele>131.0</ele>
        <time>2019-07-11T09:51:44Z</time>
      </trkpt>
      <trkpt lat="39.4574320" lon="-8.1075950">
        <ele>130.4</ele>
        <time>2019-07-11T09:51:51Z</time>
      </trkpt>
      <trkpt lat="39.4574520" lon="-8.1077780">
        <ele>130.2</ele>
        <time>2019-07-11T09:51:54Z</time>
      </trkpt>
      <trkpt lat="39.4574430" lon="-8.1078680">
        <ele>130.0</ele>
        <time>2019-07-11T09:51:56Z</time>
      </trkpt>
      <trkpt lat="39.4574280" lon="-8.1078980">
        <ele>130.0</ele>
        <time>2019-07-11T09:51:57Z</time>
      </trkpt>
      <trkpt lat="39.4573750" lon="-8.1079260">
        <ele>129.8</ele>
        <time>2019-07-11T09:51:59Z</time>
      </trkpt>
      <trkpt lat="39.4572720" lon="-8.1078810">
        <ele>129.8</ele>
        <time>2019-07-11T09:52:03Z</time>
      </trkpt>
      <trkpt lat="39.4572500" lon="-8.1078650">
        <ele>129.8</ele>
        <time>2019-07-11T09:52:04Z</time>
      </trkpt>
      <trkpt lat="39.4571150" lon="-8.1078360">
        <ele>129.8</ele>
        <time>2019-07-11T09:52:10Z</time>
      </trkpt>
      <trkpt lat="39.4570620" lon="-8.1079600">
        <ele>130.0</ele>
        <time>2019-07-11T09:52:14Z</time>
      </trkpt>
      <trkpt lat="39.4570440" lon="-8.1082330">
        <ele>130.2</ele>
        <time>2019-07-11T09:52:19Z</time>
      </trkpt>
      <trkpt lat="39.4570220" lon="-8.1087610">
        <ele>129.8</ele>
        <time>2019-07-11T09:52:27Z</time>
      </trkpt>
      <trkpt lat="39.4569480" lon="-8.1094220">
        <ele>129.8</ele>
        <time>2019-07-11T09:52:35Z</time>
      </trkpt>
      <trkpt lat="39.4568890" lon="-8.1100120">
        <ele>130.2</ele>
        <time>2019-07-11T09:52:44Z</time>
      </trkpt>
      <trkpt lat="39.4568450" lon="-8.1103060">
        <ele>130.4</ele>
        <time>2019-07-11T09:52:47Z</time>
      </trkpt>
      <trkpt lat="39.4568430" lon="-8.1103810">
        <ele>130.6</ele>
        <time>2019-07-11T09:52:49Z</time>
      </trkpt>
      <trkpt lat="39.4568000" lon="-8.1108320">
        <ele>130.8</ele>
        <time>2019-07-11T09:52:55Z</time>
      </trkpt>
      <trkpt lat="39.4567920" lon="-8.1109060">
        <ele>130.8</ele>
        <time>2019-07-11T09:52:56Z</time>
      </trkpt>
      <trkpt lat="39.4567410" lon="-8.1114910">
        <ele>131.4</ele>
        <time>2019-07-11T09:53:04Z</time>
      </trkpt>
      <trkpt lat="39.4567180" lon="-8.1117080">
        <ele>131.4</ele>
        <time>2019-07-11T09:53:07Z</time>
      </trkpt>
      <trkpt lat="39.4566650" lon="-8.1121990">
        <ele>132.2</ele>
        <time>2019-07-11T09:53:14Z</time>
      </trkpt>
      <trkpt lat="39.4566190" lon="-8.1126820">
        <ele>132.4</ele>
        <time>2019-07-11T09:53:21Z</time>
      </trkpt>
      <trkpt lat="39.4566060" lon="-8.1128230">
        <ele>132.8</ele>
        <time>2019-07-11T09:53:23Z</time>
      </trkpt>
      <trkpt lat="39.4565970" lon="-8.1128920">
        <ele>132.8</ele>
        <time>2019-07-11T09:53:24Z</time>
      </trkpt>
      <trkpt lat="39.4565460" lon="-8.1133200">
        <ele>133.0</ele>
        <time>2019-07-11T09:53:30Z</time>
      </trkpt>
      <trkpt lat="39.4564870" lon="-8.1137900">
        <ele>132.4</ele>
        <time>2019-07-11T09:53:36Z</time>
      </trkpt>
      <trkpt lat="39.4564770" lon="-8.1138760">
        <ele>132.4</ele>
        <time>2019-07-11T09:53:37Z</time>
      </trkpt>
      <trkpt lat="39.4564610" lon="-8.1140520">
        <ele>132.0</ele>
        <time>2019-07-11T09:53:39Z</time>
      </trkpt>
      <trkpt lat="39.4564270" lon="-8.1143320">
        <ele>131.4</ele>
        <time>2019-07-11T09:53:42Z</time>
      </trkpt>
      <trkpt lat="39.4564050" lon="-8.1145310">
        <ele>130.8</ele>
        <time>2019-07-11T09:53:44Z</time>
      </trkpt>
      <trkpt lat="39.4563720" lon="-8.1148420">
        <ele>130.4</ele>
        <time>2019-07-11T09:53:47Z</time>
      </trkpt>
      <trkpt lat="39.4563490" lon="-8.1150530">
        <ele>130.0</ele>
        <time>2019-07-11T09:53:49Z</time>
      </trkpt>
      <trkpt lat="39.4563190" lon="-8.1153610">
        <ele>129.8</ele>
        <time>2019-07-11T09:53:52Z</time>
      </trkpt>
      <trkpt lat="39.4562430" lon="-8.1160150">
        <ele>130.0</ele>
        <time>2019-07-11T09:53:59Z</time>
      </trkpt>
      <trkpt lat="39.4561750" lon="-8.1165280">
        <ele>130.0</ele>
        <time>2019-07-11T09:54:05Z</time>
      </trkpt>
      <trkpt lat="39.4561440" lon="-8.1167750">
        <ele>130.0</ele>
        <time>2019-07-11T09:54:08Z</time>
      </trkpt>
      <trkpt lat="39.4560860" lon="-8.1171620">
        <ele>130.8</ele>
        <time>2019-07-11T09:54:13Z</time>
      </trkpt>
      <trkpt lat="39.4560470" lon="-8.1173810">
        <ele>131.2</ele>
        <time>2019-07-11T09:54:16Z</time>
      </trkpt>
      <trkpt lat="39.4560110" lon="-8.1175950">
        <ele>131.4</ele>
        <time>2019-07-11T09:54:19Z</time>
      </trkpt>
      <trkpt lat="39.4559710" lon="-8.1178090">
        <ele>131.8</ele>
        <time>2019-07-11T09:54:22Z</time>
      </trkpt>
      <trkpt lat="39.4559270" lon="-8.1180270">
        <ele>131.8</ele>
        <time>2019-07-11T09:54:25Z</time>
      </trkpt>
      <trkpt lat="39.4558870" lon="-8.1183350">
        <ele>132.2</ele>
        <time>2019-07-11T09:54:29Z</time>
      </trkpt>
      <trkpt lat="39.4558290" lon="-8.1186490">
        <ele>132.4</ele>
        <time>2019-07-11T09:54:33Z</time>
      </trkpt>
      <trkpt lat="39.4557080" lon="-8.1193980">
        <ele>131.6</ele>
        <time>2019-07-11T09:54:42Z</time>
      </trkpt>
      <trkpt lat="39.4556950" lon="-8.1194800">
        <ele>131.6</ele>
        <time>2019-07-11T09:54:43Z</time>
      </trkpt>
      <trkpt lat="39.4555760" lon="-8.1201460">
        <ele>131.0</ele>
        <time>2019-07-11T09:54:51Z</time>
      </trkpt>
      <trkpt lat="39.4555480" lon="-8.1203210">
        <ele>130.8</ele>
        <time>2019-07-11T09:54:53Z</time>
      </trkpt>
      <trkpt lat="39.4555120" lon="-8.1205850">
        <ele>130.6</ele>
        <time>2019-07-11T09:54:56Z</time>
      </trkpt>
      <trkpt lat="39.4554870" lon="-8.1207550">
        <ele>130.4</ele>
        <time>2019-07-11T09:54:58Z</time>
      </trkpt>
      <trkpt lat="39.4554510" lon="-8.1210090">
        <ele>129.8</ele>
        <time>2019-07-11T09:55:01Z</time>
      </trkpt>
      <trkpt lat="39.4553820" lon="-8.1214440">
        <ele>129.6</ele>
        <time>2019-07-11T09:55:06Z</time>
      </trkpt>
      <trkpt lat="39.4553680" lon="-8.1215350">
        <ele>129.8</ele>
        <time>2019-07-11T09:55:07Z</time>
      </trkpt>
      <trkpt lat="39.4552970" lon="-8.1219870">
        <ele>129.8</ele>
        <time>2019-07-11T09:55:12Z</time>
      </trkpt>
      <trkpt lat="39.4552660" lon="-8.1221690">
        <ele>129.6</ele>
        <time>2019-07-11T09:55:14Z</time>
      </trkpt>
      <trkpt lat="39.4552300" lon="-8.1223510">
        <ele>129.2</ele>
        <time>2019-07-11T09:55:16Z</time>
      </trkpt>
      <trkpt lat="39.4551940" lon="-8.1225360">
        <ele>129.0</ele>
        <time>2019-07-11T09:55:17Z</time>
      </trkpt>
      <trkpt lat="39.4550480" lon="-8.1232760">
        <ele>128.4</ele>
        <time>2019-07-11T09:55:26Z</time>
      </trkpt>
      <trkpt lat="39.4550300" lon="-8.1233660">
        <ele>128.2</ele>
        <time>2019-07-11T09:55:27Z</time>
      </trkpt>
      <trkpt lat="39.4549410" lon="-8.1238150">
        <ele>128.2</ele>
        <time>2019-07-11T09:55:32Z</time>
      </trkpt>
      <trkpt lat="39.4548950" lon="-8.1240840">
        <ele>128.4</ele>
        <time>2019-07-11T09:55:35Z</time>
      </trkpt>
      <trkpt lat="39.4548770" lon="-8.1241730">
        <ele>128.4</ele>
        <time>2019-07-11T09:55:36Z</time>
      </trkpt>
      <trkpt lat="39.4547910" lon="-8.1248120">
        <ele>128.0</ele>
        <time>2019-07-11T09:55:43Z</time>
      </trkpt>
      <trkpt lat="39.4547970" lon="-8.1252850">
        <ele>127.4</ele>
        <time>2019-07-11T09:55:47Z</time>
      </trkpt>
      <trkpt lat="39.4547970" lon="-8.1252850">
        <ele>127.2</ele>
        <time>2019-07-11T09:55:48Z</time>
      </trkpt>
      <trkpt lat="39.4548490" lon="-8.1257930">
        <ele>126.0</ele>
        <time>2019-07-11T09:55:53Z</time>
      </trkpt>
      <trkpt lat="39.4548680" lon="-8.1259000">
        <ele>125.8</ele>
        <time>2019-07-11T09:55:54Z</time>
      </trkpt>
      <trkpt lat="39.4549240" lon="-8.1262410">
        <ele>124.6</ele>
        <time>2019-07-11T09:55:57Z</time>
      </trkpt>
      <trkpt lat="39.4549860" lon="-8.1266120">
        <ele>123.6</ele>
        <time>2019-07-11T09:56:00Z</time>
      </trkpt>
      <trkpt lat="39.4550680" lon="-8.1271280">
        <ele>122.4</ele>
        <time>2019-07-11T09:56:04Z</time>
      </trkpt>
      <trkpt lat="39.4551560" lon="-8.1276190">
        <ele>121.8</ele>
        <time>2019-07-11T09:56:08Z</time>
      </trkpt>
      <trkpt lat="39.4552290" lon="-8.1280620">
        <ele>121.6</ele>
        <time>2019-07-11T09:56:12Z</time>
      </trkpt>
      <trkpt lat="39.4552630" lon="-8.1282610">
        <ele>121.8</ele>
        <time>2019-07-11T09:56:14Z</time>
      </trkpt>
      <trkpt lat="39.4553660" lon="-8.1288730">
        <ele>122.6</ele>
        <time>2019-07-11T09:56:21Z</time>
      </trkpt>
      <trkpt lat="39.4554330" lon="-8.1292590">
        <ele>122.6</ele>
        <time>2019-07-11T09:56:26Z</time>
      </trkpt>
      <trkpt lat="39.4554600" lon="-8.1294120">
        <ele>122.8</ele>
        <time>2019-07-11T09:56:28Z</time>
      </trkpt>
      <trkpt lat="39.4555800" lon="-8.1301210">
        <ele>123.0</ele>
        <time>2019-07-11T09:56:37Z</time>
      </trkpt>
      <trkpt lat="39.4556220" lon="-8.1303660">
        <ele>122.8</ele>
        <time>2019-07-11T09:56:40Z</time>
      </trkpt>
      <trkpt lat="39.4557340" lon="-8.1310340">
        <ele>122.0</ele>
        <time>2019-07-11T09:56:47Z</time>
      </trkpt>
      <trkpt lat="39.4558220" lon="-8.1315410">
        <ele>121.6</ele>
        <time>2019-07-11T09:56:54Z</time>
      </trkpt>
      <trkpt lat="39.4558870" lon="-8.1318800">
        <ele>121.2</ele>
        <time>2019-07-11T09:56:58Z</time>
      </trkpt>
      <trkpt lat="39.4560200" lon="-8.1325820">
        <ele>121.4</ele>
        <time>2019-07-11T09:57:06Z</time>
      </trkpt>
      <trkpt lat="39.4560390" lon="-8.1326730">
        <ele>121.4</ele>
        <time>2019-07-11T09:57:07Z</time>
      </trkpt>
      <trkpt lat="39.4561660" lon="-8.1333270">
        <ele>120.4</ele>
        <time>2019-07-11T09:57:14Z</time>
      </trkpt>
      <trkpt lat="39.4561850" lon="-8.1334220">
        <ele>120.4</ele>
        <time>2019-07-11T09:57:15Z</time>
      </trkpt>
      <trkpt lat="39.4563040" lon="-8.1340050">
        <ele>120.0</ele>
        <time>2019-07-11T09:57:21Z</time>
      </trkpt>
      <trkpt lat="39.4563230" lon="-8.1341020">
        <ele>119.8</ele>
        <time>2019-07-11T09:57:22Z</time>
      </trkpt>
      <trkpt lat="39.4563610" lon="-8.1343020">
        <ele>119.6</ele>
        <time>2019-07-11T09:57:24Z</time>
      </trkpt>
      <trkpt lat="39.4565010" lon="-8.1350010">
        <ele>119.2</ele>
        <time>2019-07-11T09:57:31Z</time>
      </trkpt>
      <trkpt lat="39.4565190" lon="-8.1351060">
        <ele>119.0</ele>
        <time>2019-07-11T09:57:32Z</time>
      </trkpt>
      <trkpt lat="39.4566170" lon="-8.1356230">
        <ele>118.6</ele>
        <time>2019-07-11T09:57:37Z</time>
      </trkpt>
      <trkpt lat="39.4566700" lon="-8.1359260">
        <ele>118.2</ele>
        <time>2019-07-11T09:57:40Z</time>
      </trkpt>
      <trkpt lat="39.4568210" lon="-8.1366160">
        <ele>117.6</ele>
        <time>2019-07-11T09:57:47Z</time>
      </trkpt>
      <trkpt lat="39.4568480" lon="-8.1367150">
        <ele>117.4</ele>
        <time>2019-07-11T09:57:48Z</time>
      </trkpt>
      <trkpt lat="39.4570620" lon="-8.1372860">
        <ele>117.4</ele>
        <time>2019-07-11T09:57:53Z</time>
      </trkpt>
      <trkpt lat="39.4573640" lon="-8.1378760">
        <ele>117.2</ele>
        <time>2019-07-11T09:58:01Z</time>
      </trkpt>
      <trkpt lat="39.4576880" lon="-8.1385180">
        <ele>116.6</ele>
        <time>2019-07-11T09:58:09Z</time>
      </trkpt>
      <trkpt lat="39.4579290" lon="-8.1389910">
        <ele>116.4</ele>
        <time>2019-07-11T09:58:15Z</time>
      </trkpt>
      <trkpt lat="39.4580450" lon="-8.1392280">
        <ele>116.2</ele>
        <time>2019-07-11T09:58:18Z</time>
      </trkpt>
      <trkpt lat="39.4582840" lon="-8.1396960">
        <ele>115.8</ele>
        <time>2019-07-11T09:58:24Z</time>
      </trkpt>
      <trkpt lat="39.4584050" lon="-8.1399280">
        <ele>115.6</ele>
        <time>2019-07-11T09:58:27Z</time>
      </trkpt>
      <trkpt lat="39.4586000" lon="-8.1403230">
        <ele>115.4</ele>
        <time>2019-07-11T09:58:32Z</time>
      </trkpt>
      <trkpt lat="39.4587690" lon="-8.1406310">
        <ele>115.2</ele>
        <time>2019-07-11T09:58:36Z</time>
      </trkpt>
      <trkpt lat="39.4590810" lon="-8.1411580">
        <ele>115.0</ele>
        <time>2019-07-11T09:58:43Z</time>
      </trkpt>
      <trkpt lat="39.4592140" lon="-8.1413770">
        <ele>114.4</ele>
        <time>2019-07-11T09:58:46Z</time>
      </trkpt>
      <trkpt lat="39.4594210" lon="-8.1417320">
        <ele>114.2</ele>
        <time>2019-07-11T09:58:51Z</time>
      </trkpt>
      <trkpt lat="39.4597440" lon="-8.1423810">
        <ele>113.6</ele>
        <time>2019-07-11T09:58:59Z</time>
      </trkpt>
      <trkpt lat="39.4597650" lon="-8.1424630">
        <ele>113.6</ele>
        <time>2019-07-11T09:59:01Z</time>
      </trkpt>
      <trkpt lat="39.4597930" lon="-8.1427140">
        <ele>113.4</ele>
        <time>2019-07-11T09:59:04Z</time>
      </trkpt>
      <trkpt lat="39.4597810" lon="-8.1428760">
        <ele>113.4</ele>
        <time>2019-07-11T09:59:06Z</time>
      </trkpt>
      <trkpt lat="39.4597460" lon="-8.1430310">
        <ele>113.2</ele>
        <time>2019-07-11T09:59:08Z</time>
      </trkpt>
      <trkpt lat="39.4596770" lon="-8.1433360">
        <ele>113.2</ele>
        <time>2019-07-11T09:59:12Z</time>
      </trkpt>
      <trkpt lat="39.4595720" lon="-8.1437990">
        <ele>113.2</ele>
        <time>2019-07-11T09:59:17Z</time>
      </trkpt>
      <trkpt lat="39.4594760" lon="-8.1442670">
        <ele>113.0</ele>
        <time>2019-07-11T09:59:23Z</time>
      </trkpt>
      <trkpt lat="39.4594750" lon="-8.1443450">
        <ele>113.0</ele>
        <time>2019-07-11T09:59:25Z</time>
      </trkpt>
      <trkpt lat="39.4595430" lon="-8.1445650">
        <ele>112.8</ele>
        <time>2019-07-11T09:59:28Z</time>
      </trkpt>
      <trkpt lat="39.4596240" lon="-8.1446820">
        <ele>112.8</ele>
        <time>2019-07-11T09:59:30Z</time>
      </trkpt>
      <trkpt lat="39.4597070" lon="-8.1447930">
        <ele>113.0</ele>
        <time>2019-07-11T09:59:32Z</time>
      </trkpt>
      <trkpt lat="39.4598970" lon="-8.1450700">
        <ele>113.2</ele>
        <time>2019-07-11T09:59:37Z</time>
      </trkpt>
      <trkpt lat="39.4600930" lon="-8.1453390">
        <ele>113.0</ele>
        <time>2019-07-11T09:59:41Z</time>
      </trkpt>
      <trkpt lat="39.4604640" lon="-8.1459160">
        <ele>113.0</ele>
        <time>2019-07-11T09:59:51Z</time>
      </trkpt>
      <trkpt lat="39.4607010" lon="-8.1463230">
        <ele>112.4</ele>
        <time>2019-07-11T09:59:58Z</time>
      </trkpt>
      <trkpt lat="39.4608410" lon="-8.1465680">
        <ele>112.4</ele>
        <time>2019-07-11T10:00:02Z</time>
      </trkpt>
      <trkpt lat="39.4608980" lon="-8.1467050">
        <ele>112.2</ele>
        <time>2019-07-11T10:00:04Z</time>
      </trkpt>
      <trkpt lat="39.4609210" lon="-8.1467750">
        <ele>112.2</ele>
        <time>2019-07-11T10:00:05Z</time>
      </trkpt>
      <trkpt lat="39.4610000" lon="-8.1470620">
        <ele>111.8</ele>
        <time>2019-07-11T10:00:10Z</time>
      </trkpt>
      <trkpt lat="39.4610570" lon="-8.1472700">
        <ele>111.4</ele>
        <time>2019-07-11T10:00:12Z</time>
      </trkpt>
      <trkpt lat="39.4611940" lon="-8.1476610">
        <ele>110.8</ele>
        <time>2019-07-11T10:00:19Z</time>
      </trkpt>
      <trkpt lat="39.4612400" lon="-8.1477970">
        <ele>110.8</ele>
        <time>2019-07-11T10:00:20Z</time>
      </trkpt>
      <trkpt lat="39.4613210" lon="-8.1479810">
        <ele>110.4</ele>
        <time>2019-07-11T10:00:23Z</time>
      </trkpt>
      <trkpt lat="39.4613380" lon="-8.1480190">
        <ele>110.4</ele>
        <time>2019-07-11T10:00:24Z</time>
      </trkpt>
      <trkpt lat="39.4613480" lon="-8.1480640">
        <ele>110.0</ele>
        <time>2019-07-11T10:00:27Z</time>
      </trkpt>
      <trkpt lat="39.4613390" lon="-8.1480740">
        <ele>109.8</ele>
        <time>2019-07-11T10:00:28Z</time>
      </trkpt>
      <trkpt lat="39.4612970" lon="-8.1480180">
        <ele>109.8</ele>
        <time>2019-07-11T10:00:31Z</time>
      </trkpt>
      <trkpt lat="39.4612570" lon="-8.1479420">
        <ele>110.0</ele>
        <time>2019-07-11T10:00:34Z</time>
      </trkpt>
      <trkpt lat="39.4612220" lon="-8.1479400">
        <ele>110.0</ele>
        <time>2019-07-11T10:00:35Z</time>
      </trkpt>
      <trkpt lat="39.4611100" lon="-8.1480400">
        <ele>110.8</ele>
        <time>2019-07-11T10:00:41Z</time>
      </trkpt>
      <trkpt lat="39.4610030" lon="-8.1481910">
        <ele>110.8</ele>
        <time>2019-07-11T10:00:48Z</time>
      </trkpt>
      <trkpt lat="39.4610180" lon="-8.1483810">
        <ele>111.0</ele>
        <time>2019-07-11T10:00:52Z</time>
      </trkpt>
      <trkpt lat="39.4610440" lon="-8.1487200">
        <ele>111.2</ele>
        <time>2019-07-11T10:00:59Z</time>
      </trkpt>
      <trkpt lat="39.4610670" lon="-8.1490200">
        <ele>111.0</ele>
        <time>2019-07-11T10:01:05Z</time>
      </trkpt>
      <trkpt lat="39.4610710" lon="-8.1490710">
        <ele>110.8</ele>
        <time>2019-07-11T10:01:07Z</time>
      </trkpt>
      <trkpt lat="39.4611000" lon="-8.1494510">
        <ele>110.6</ele>
        <time>2019-07-11T10:01:14Z</time>
      </trkpt>
      <trkpt lat="39.4611040" lon="-8.1495540">
        <ele>110.4</ele>
        <time>2019-07-11T10:01:16Z</time>
      </trkpt>
      <trkpt lat="39.4610730" lon="-8.1496340">
        <ele>110.2</ele>
        <time>2019-07-11T10:01:17Z</time>
      </trkpt>
      <trkpt lat="39.4610730" lon="-8.1496340">
        <ele>110.2</ele>
        <time>2019-07-11T10:01:18Z</time>
      </trkpt>
      <trkpt lat="39.4609800" lon="-8.1497170">
        <ele>110.6</ele>
        <time>2019-07-11T10:01:21Z</time>
      </trkpt>
      <trkpt lat="39.4608870" lon="-8.1497960">
        <ele>110.6</ele>
        <time>2019-07-11T10:01:23Z</time>
      </trkpt>
      <trkpt lat="39.4607320" lon="-8.1499200">
        <ele>110.4</ele>
        <time>2019-07-11T10:01:28Z</time>
      </trkpt>
      <trkpt lat="39.4606980" lon="-8.1499500">
        <ele>110.4</ele>
        <time>2019-07-11T10:01:29Z</time>
      </trkpt>
      <trkpt lat="39.4604790" lon="-8.1501660">
        <ele>110.2</ele>
        <time>2019-07-11T10:01:36Z</time>
      </trkpt>
      <trkpt lat="39.4604600" lon="-8.1502150">
        <ele>110.2</ele>
        <time>2019-07-11T10:01:38Z</time>
      </trkpt>
      <trkpt lat="39.4604530" lon="-8.1503890">
        <ele>110.2</ele>
        <time>2019-07-11T10:01:40Z</time>
      </trkpt>
      <trkpt lat="39.4604650" lon="-8.1505680">
        <ele>110.4</ele>
        <time>2019-07-11T10:01:44Z</time>
      </trkpt>
      <trkpt lat="39.4604750" lon="-8.1508120">
        <ele>110.4</ele>
        <time>2019-07-11T10:01:47Z</time>
      </trkpt>
      <trkpt lat="39.4604730" lon="-8.1508720">
        <ele>110.4</ele>
        <time>2019-07-11T10:01:48Z</time>
      </trkpt>
      <trkpt lat="39.4604650" lon="-8.1509310">
        <ele>110.6</ele>
        <time>2019-07-11T10:01:50Z</time>
      </trkpt>
      <trkpt lat="39.4604220" lon="-8.1511000">
        <ele>111.0</ele>
        <time>2019-07-11T10:01:52Z</time>
      </trkpt>
      <trkpt lat="39.4603400" lon="-8.1513140">
        <ele>111.6</ele>
        <time>2019-07-11T10:01:56Z</time>
      </trkpt>
      <trkpt lat="39.4602630" lon="-8.1514660">
        <ele>111.6</ele>
        <time>2019-07-11T10:01:59Z</time>
      </trkpt>
      <trkpt lat="39.4601980" lon="-8.1516100">
        <ele>111.6</ele>
        <time>2019-07-11T10:02:02Z</time>
      </trkpt>
      <trkpt lat="39.4601710" lon="-8.1517050">
        <ele>111.8</ele>
        <time>2019-07-11T10:02:04Z</time>
      </trkpt>
      <trkpt lat="39.4601250" lon="-8.1518040">
        <ele>111.6</ele>
        <time>2019-07-11T10:02:06Z</time>
      </trkpt>
      <trkpt lat="39.4600610" lon="-8.1518920">
        <ele>111.6</ele>
        <time>2019-07-11T10:02:08Z</time>
      </trkpt>
      <trkpt lat="39.4600250" lon="-8.1519370">
        <ele>111.4</ele>
        <time>2019-07-11T10:02:10Z</time>
      </trkpt>
      <trkpt lat="39.4597560" lon="-8.1522920">
        <ele>111.0</ele>
        <time>2019-07-11T10:02:17Z</time>
      </trkpt>
      <trkpt lat="39.4597160" lon="-8.1523330">
        <ele>111.0</ele>
        <time>2019-07-11T10:02:18Z</time>
      </trkpt>
      <trkpt lat="39.4596380" lon="-8.1524230">
        <ele>111.0</ele>
        <time>2019-07-11T10:02:20Z</time>
      </trkpt>
      <trkpt lat="39.4594950" lon="-8.1526290">
        <ele>110.8</ele>
        <time>2019-07-11T10:02:25Z</time>
      </trkpt>
      <trkpt lat="39.4594160" lon="-8.1527250">
        <ele>110.8</ele>
        <time>2019-07-11T10:02:27Z</time>
      </trkpt>
      <trkpt lat="39.4591830" lon="-8.1529890">
        <ele>110.8</ele>
        <time>2019-07-11T10:02:32Z</time>
      </trkpt>
      <trkpt lat="39.4589620" lon="-8.1532520">
        <ele>110.4</ele>
        <time>2019-07-11T10:02:38Z</time>
      </trkpt>
      <trkpt lat="39.4588780" lon="-8.1533270">
        <ele>110.2</ele>
        <time>2019-07-11T10:02:40Z</time>
      </trkpt>
      <trkpt lat="39.4588320" lon="-8.1533550">
        <ele>110.2</ele>
        <time>2019-07-11T10:02:41Z</time>
      </trkpt>
      <trkpt lat="39.4587360" lon="-8.1534020">
        <ele>109.8</ele>
        <time>2019-07-11T10:02:44Z</time>
      </trkpt>
      <trkpt lat="39.4585460" lon="-8.1534990">
        <ele>109.4</ele>
        <time>2019-07-11T10:02:47Z</time>
      </trkpt>
      <trkpt lat="39.4585460" lon="-8.1534990">
        <ele>109.2</ele>
        <time>2019-07-11T10:02:48Z</time>
      </trkpt>
      <trkpt lat="39.4582600" lon="-8.1536530">
        <ele>108.8</ele>
        <time>2019-07-11T10:02:53Z</time>
      </trkpt>
      <trkpt lat="39.4582110" lon="-8.1536800">
        <ele>108.8</ele>
        <time>2019-07-11T10:02:55Z</time>
      </trkpt>
      <trkpt lat="39.4580280" lon="-8.1537990">
        <ele>108.6</ele>
        <time>2019-07-11T10:02:58Z</time>
      </trkpt>
      <trkpt lat="39.4579600" lon="-8.1538960">
        <ele>108.6</ele>
        <time>2019-07-11T10:03:00Z</time>
      </trkpt>
      <trkpt lat="39.4579300" lon="-8.1540290">
        <ele>108.4</ele>
        <time>2019-07-11T10:03:02Z</time>
      </trkpt>
      <trkpt lat="39.4578830" lon="-8.1542400">
        <ele>108.4</ele>
        <time>2019-07-11T10:03:05Z</time>
      </trkpt>
      <trkpt lat="39.4578630" lon="-8.1543070">
        <ele>108.4</ele>
        <time>2019-07-11T10:03:06Z</time>
      </trkpt>
      <trkpt lat="39.4577660" lon="-8.1545880">
        <ele>108.4</ele>
        <time>2019-07-11T10:03:10Z</time>
      </trkpt>
      <trkpt lat="39.4577180" lon="-8.1547260">
        <ele>108.0</ele>
        <time>2019-07-11T10:03:12Z</time>
      </trkpt>
      <trkpt lat="39.4576480" lon="-8.1549410">
        <ele>107.6</ele>
        <time>2019-07-11T10:03:15Z</time>
      </trkpt>
      <trkpt lat="39.4574930" lon="-8.1553380">
        <ele>107.6</ele>
        <time>2019-07-11T10:03:21Z</time>
      </trkpt>
      <trkpt lat="39.4573880" lon="-8.1556590">
        <ele>107.6</ele>
        <time>2019-07-11T10:03:27Z</time>
      </trkpt>
      <trkpt lat="39.4573270" lon="-8.1558560">
        <ele>107.4</ele>
        <time>2019-07-11T10:03:29Z</time>
      </trkpt>
      <trkpt lat="39.4573100" lon="-8.1559220">
        <ele>107.4</ele>
        <time>2019-07-11T10:03:30Z</time>
      </trkpt>
      <trkpt lat="39.4572730" lon="-8.1560490">
        <ele>107.4</ele>
        <time>2019-07-11T10:03:32Z</time>
      </trkpt>
      <trkpt lat="39.4572180" lon="-8.1562300">
        <ele>107.2</ele>
        <time>2019-07-11T10:03:35Z</time>
      </trkpt>
      <trkpt lat="39.4571250" lon="-8.1565530">
        <ele>107.2</ele>
        <time>2019-07-11T10:03:40Z</time>
      </trkpt>
      <trkpt lat="39.4570520" lon="-8.1568160">
        <ele>107.2</ele>
        <time>2019-07-11T10:03:44Z</time>
      </trkpt>
      <trkpt lat="39.4570250" lon="-8.1569530">
        <ele>107.0</ele>
        <time>2019-07-11T10:03:46Z</time>
      </trkpt>
      <trkpt lat="39.4570210" lon="-8.1570970">
        <ele>107.0</ele>
        <time>2019-07-11T10:03:49Z</time>
      </trkpt>
      <trkpt lat="39.4570590" lon="-8.1572340">
        <ele>106.8</ele>
        <time>2019-07-11T10:03:50Z</time>
      </trkpt>
      <trkpt lat="39.4570960" lon="-8.1572890">
        <ele>106.8</ele>
        <time>2019-07-11T10:03:51Z</time>
      </trkpt>
      <trkpt lat="39.4572260" lon="-8.1574300">
        <ele>106.8</ele>
        <time>2019-07-11T10:03:54Z</time>
      </trkpt>
      <trkpt lat="39.4574050" lon="-8.1576130">
        <ele>106.8</ele>
        <time>2019-07-11T10:03:58Z</time>
      </trkpt>
      <trkpt lat="39.4575790" lon="-8.1578230">
        <ele>106.6</ele>
        <time>2019-07-11T10:04:02Z</time>
      </trkpt>
      <trkpt lat="39.4576260" lon="-8.1579660">
        <ele>106.2</ele>
        <time>2019-07-11T10:04:04Z</time>
      </trkpt>
      <trkpt lat="39.4576380" lon="-8.1581400">
        <ele>105.4</ele>
        <time>2019-07-11T10:04:07Z</time>
      </trkpt>
      <trkpt lat="39.4576310" lon="-8.1582910">
        <ele>105.0</ele>
        <time>2019-07-11T10:04:08Z</time>
      </trkpt>
      <trkpt lat="39.4576170" lon="-8.1585920">
        <ele>104.0</ele>
        <time>2019-07-11T10:04:10Z</time>
      </trkpt>
      <trkpt lat="39.4576050" lon="-8.1588400">
        <ele>102.0</ele>
        <time>2019-07-11T10:04:12Z</time>
      </trkpt>
      <trkpt lat="39.4576030" lon="-8.1589030">
        <ele>100.6</ele>
        <time>2019-07-11T10:04:13Z</time>
      </trkpt>
      <trkpt lat="39.4576010" lon="-8.1589660">
        <ele>99.6</ele>
        <time>2019-07-11T10:04:14Z</time>
      </trkpt>
      <trkpt lat="39.4575960" lon="-8.1590960">
        <ele>98.4</ele>
        <time>2019-07-11T10:04:15Z</time>
      </trkpt>
      <trkpt lat="39.4575900" lon="-8.1592270">
        <ele>97.2</ele>
        <time>2019-07-11T10:04:16Z</time>
      </trkpt>
      <trkpt lat="39.4575850" lon="-8.1593590">
        <ele>95.8</ele>
        <time>2019-07-11T10:04:17Z</time>
      </trkpt>
      <trkpt lat="39.4575760" lon="-8.1595610">
        <ele>94.4</ele>
        <time>2019-07-11T10:04:18Z</time>
      </trkpt>
      <trkpt lat="39.4575730" lon="-8.1596320">
        <ele>93.4</ele>
        <time>2019-07-11T10:04:19Z</time>
      </trkpt>
      <trkpt lat="39.4575670" lon="-8.1597740">
        <ele>92.0</ele>
        <time>2019-07-11T10:04:20Z</time>
      </trkpt>
      <trkpt lat="39.4575590" lon="-8.1599230">
        <ele>90.8</ele>
        <time>2019-07-11T10:04:21Z</time>
      </trkpt>
      <trkpt lat="39.4575490" lon="-8.1601470">
        <ele>89.6</ele>
        <time>2019-07-11T10:04:22Z</time>
      </trkpt>
      <trkpt lat="39.4575380" lon="-8.1603710">
        <ele>88.4</ele>
        <time>2019-07-11T10:04:23Z</time>
      </trkpt>
      <trkpt lat="39.4575310" lon="-8.1605130">
        <ele>87.4</ele>
        <time>2019-07-11T10:04:24Z</time>
      </trkpt>
      <trkpt lat="39.4575260" lon="-8.1606520">
        <ele>86.2</ele>
        <time>2019-07-11T10:04:25Z</time>
      </trkpt>
      <trkpt lat="39.4575200" lon="-8.1607900">
        <ele>84.2</ele>
        <time>2019-07-11T10:04:27Z</time>
      </trkpt>
      <trkpt lat="39.4575100" lon="-8.1611720">
        <ele>82.2</ele>
        <time>2019-07-11T10:04:29Z</time>
      </trkpt>
      <trkpt lat="39.4575070" lon="-8.1612860">
        <ele>81.0</ele>
        <time>2019-07-11T10:04:31Z</time>
      </trkpt>
      <trkpt lat="39.4575050" lon="-8.1614930">
        <ele>79.8</ele>
        <time>2019-07-11T10:04:33Z</time>
      </trkpt>
      <trkpt lat="39.4575110" lon="-8.1615860">
        <ele>79.4</ele>
        <time>2019-07-11T10:04:34Z</time>
      </trkpt>
      <trkpt lat="39.4575410" lon="-8.1617410">
        <ele>79.0</ele>
        <time>2019-07-11T10:04:35Z</time>
      </trkpt>
      <trkpt lat="39.4575410" lon="-8.1617410">
        <ele>78.6</ele>
        <time>2019-07-11T10:04:36Z</time>
      </trkpt>
      <trkpt lat="39.4575660" lon="-8.1618550">
        <ele>77.8</ele>
        <time>2019-07-11T10:04:38Z</time>
      </trkpt>
      <trkpt lat="39.4575600" lon="-8.1619780">
        <ele>77.4</ele>
        <time>2019-07-11T10:04:40Z</time>
      </trkpt>
      <trkpt lat="39.4574950" lon="-8.1620960">
        <ele>77.2</ele>
        <time>2019-07-11T10:04:41Z</time>
      </trkpt>
      <trkpt lat="39.4574730" lon="-8.1621250">
        <ele>76.8</ele>
        <time>2019-07-11T10:04:42Z</time>
      </trkpt>
      <trkpt lat="39.4574500" lon="-8.1621540">
        <ele>76.4</ele>
        <time>2019-07-11T10:04:43Z</time>
      </trkpt>
      <trkpt lat="39.4573990" lon="-8.1622130">
        <ele>76.4</ele>
        <time>2019-07-11T10:04:44Z</time>
      </trkpt>
      <trkpt lat="39.4571240" lon="-8.1625200">
        <ele>75.0</ele>
        <time>2019-07-11T10:04:48Z</time>
      </trkpt>
      <trkpt lat="39.4570380" lon="-8.1626220">
        <ele>74.6</ele>
        <time>2019-07-11T10:04:49Z</time>
      </trkpt>
      <trkpt lat="39.4569520" lon="-8.1627230">
        <ele>74.0</ele>
        <time>2019-07-11T10:04:51Z</time>
      </trkpt>
      <trkpt lat="39.4567710" lon="-8.1629390">
        <ele>72.6</ele>
        <time>2019-07-11T10:04:55Z</time>
      </trkpt>
      <trkpt lat="39.4567140" lon="-8.1630240">
        <ele>72.2</ele>
        <time>2019-07-11T10:04:56Z</time>
      </trkpt>
      <trkpt lat="39.4566010" lon="-8.1631940">
        <ele>71.4</ele>
        <time>2019-07-11T10:04:58Z</time>
      </trkpt>
      <trkpt lat="39.4565610" lon="-8.1632920">
        <ele>71.0</ele>
        <time>2019-07-11T10:04:59Z</time>
      </trkpt>
      <trkpt lat="39.4564810" lon="-8.1634890">
        <ele>70.4</ele>
        <time>2019-07-11T10:05:01Z</time>
      </trkpt>
      <trkpt lat="39.4562770" lon="-8.1640470">
        <ele>69.4</ele>
        <time>2019-07-11T10:05:07Z</time>
      </trkpt>
      <trkpt lat="39.4562120" lon="-8.1642320">
        <ele>69.2</ele>
        <time>2019-07-11T10:05:08Z</time>
      </trkpt>
      <trkpt lat="39.4560680" lon="-8.1646190">
        <ele>68.0</ele>
        <time>2019-07-11T10:05:13Z</time>
      </trkpt>
      <trkpt lat="39.4560180" lon="-8.1647550">
        <ele>67.6</ele>
        <time>2019-07-11T10:05:14Z</time>
      </trkpt>
      <trkpt lat="39.4559170" lon="-8.1650260">
        <ele>67.0</ele>
        <time>2019-07-11T10:05:16Z</time>
      </trkpt>
      <trkpt lat="39.4558410" lon="-8.1652370">
        <ele>65.6</ele>
        <time>2019-07-11T10:05:18Z</time>
      </trkpt>
      <trkpt lat="39.4557660" lon="-8.1654530">
        <ele>64.4</ele>
        <time>2019-07-11T10:05:21Z</time>
      </trkpt>
      <trkpt lat="39.4556030" lon="-8.1658980">
        <ele>63.0</ele>
        <time>2019-07-11T10:05:24Z</time>
      </trkpt>
      <trkpt lat="39.4555150" lon="-8.1661250">
        <ele>62.0</ele>
        <time>2019-07-11T10:05:26Z</time>
      </trkpt>
      <trkpt lat="39.4554710" lon="-8.1662390">
        <ele>61.4</ele>
        <time>2019-07-11T10:05:28Z</time>
      </trkpt>
      <trkpt lat="39.4554210" lon="-8.1663470">
        <ele>61.2</ele>
        <time>2019-07-11T10:05:29Z</time>
      </trkpt>
      <trkpt lat="39.4553420" lon="-8.1665050">
        <ele>61.0</ele>
        <time>2019-07-11T10:05:30Z</time>
      </trkpt>
      <trkpt lat="39.4553140" lon="-8.1665540">
        <ele>60.8</ele>
        <time>2019-07-11T10:05:31Z</time>
      </trkpt>
      <trkpt lat="39.4551930" lon="-8.1667310">
        <ele>60.6</ele>
        <time>2019-07-11T10:05:32Z</time>
      </trkpt>
      <trkpt lat="39.4549640" lon="-8.1670410">
        <ele>60.4</ele>
        <time>2019-07-11T10:05:36Z</time>
      </trkpt>
      <trkpt lat="39.4546350" lon="-8.1674220">
        <ele>60.0</ele>
        <time>2019-07-11T10:05:43Z</time>
      </trkpt>
      <trkpt lat="39.4545310" lon="-8.1675410">
        <ele>59.8</ele>
        <time>2019-07-11T10:05:44Z</time>
      </trkpt>
      <trkpt lat="39.4542300" lon="-8.1679070">
        <ele>59.2</ele>
        <time>2019-07-11T10:05:50Z</time>
      </trkpt>
      <trkpt lat="39.4541280" lon="-8.1680320">
        <ele>59.0</ele>
        <time>2019-07-11T10:05:52Z</time>
      </trkpt>
      <trkpt lat="39.4540780" lon="-8.1680940">
        <ele>58.8</ele>
        <time>2019-07-11T10:05:53Z</time>
      </trkpt>
      <trkpt lat="39.4540250" lon="-8.1681540">
        <ele>58.8</ele>
        <time>2019-07-11T10:05:54Z</time>
      </trkpt>
      <trkpt lat="39.4537190" lon="-8.1685110">
        <ele>58.6</ele>
        <time>2019-07-11T10:06:01Z</time>
      </trkpt>
      <trkpt lat="39.4533590" lon="-8.1689550">
        <ele>58.2</ele>
        <time>2019-07-11T10:06:08Z</time>
      </trkpt>
      <trkpt lat="39.4533420" lon="-8.1689950">
        <ele>58.4</ele>
        <time>2019-07-11T10:06:09Z</time>
      </trkpt>
      <trkpt lat="39.4533240" lon="-8.1690350">
        <ele>58.4</ele>
        <time>2019-07-11T10:06:10Z</time>
      </trkpt>
      <trkpt lat="39.4531850" lon="-8.1693530">
        <ele>58.6</ele>
        <time>2019-07-11T10:06:14Z</time>
      </trkpt>
      <trkpt lat="39.4531240" lon="-8.1696530">
        <ele>58.4</ele>
        <time>2019-07-11T10:06:19Z</time>
      </trkpt>
      <trkpt lat="39.4530680" lon="-8.1699720">
        <ele>58.2</ele>
        <time>2019-07-11T10:06:22Z</time>
      </trkpt>
      <trkpt lat="39.4530110" lon="-8.1702950">
        <ele>58.4</ele>
        <time>2019-07-11T10:06:26Z</time>
      </trkpt>
      <trkpt lat="39.4529550" lon="-8.1706170">
        <ele>58.2</ele>
        <time>2019-07-11T10:06:31Z</time>
      </trkpt>
      <trkpt lat="39.4529250" lon="-8.1707770">
        <ele>58.0</ele>
        <time>2019-07-11T10:06:33Z</time>
      </trkpt>
      <trkpt lat="39.4528400" lon="-8.1712600">
        <ele>57.6</ele>
        <time>2019-07-11T10:06:39Z</time>
      </trkpt>
      <trkpt lat="39.4527140" lon="-8.1719700">
        <ele>57.4</ele>
        <time>2019-07-11T10:06:47Z</time>
      </trkpt>
      <trkpt lat="39.4527000" lon="-8.1720460">
        <ele>57.2</ele>
        <time>2019-07-11T10:06:48Z</time>
      </trkpt>
      <trkpt lat="39.4525620" lon="-8.1727990">
        <ele>57.2</ele>
        <time>2019-07-11T10:06:58Z</time>
      </trkpt>
      <trkpt lat="39.4525270" lon="-8.1729470">
        <ele>57.2</ele>
        <time>2019-07-11T10:07:00Z</time>
      </trkpt>
      <trkpt lat="39.4524870" lon="-8.1730940">
        <ele>57.0</ele>
        <time>2019-07-11T10:07:02Z</time>
      </trkpt>
      <trkpt lat="39.4523000" lon="-8.1736760">
        <ele>56.8</ele>
        <time>2019-07-11T10:07:10Z</time>
      </trkpt>
      <trkpt lat="39.4520980" lon="-8.1742590">
        <ele>56.6</ele>
        <time>2019-07-11T10:07:19Z</time>
      </trkpt>
      <trkpt lat="39.4518480" lon="-8.1749730">
        <ele>56.4</ele>
        <time>2019-07-11T10:07:28Z</time>
      </trkpt>
      <trkpt lat="39.4516610" lon="-8.1755820">
        <ele>56.6</ele>
        <time>2019-07-11T10:07:37Z</time>
      </trkpt>
      <trkpt lat="39.4514640" lon="-8.1763400">
        <ele>56.2</ele>
        <time>2019-07-11T10:07:46Z</time>
      </trkpt>
      <trkpt lat="39.4514440" lon="-8.1764160">
        <ele>56.2</ele>
        <time>2019-07-11T10:07:47Z</time>
      </trkpt>
      <trkpt lat="39.4513320" lon="-8.1767980">
        <ele>56.0</ele>
        <time>2019-07-11T10:07:52Z</time>
      </trkpt>
      <trkpt lat="39.4511890" lon="-8.1772540">
        <ele>55.8</ele>
        <time>2019-07-11T10:07:58Z</time>
      </trkpt>
      <trkpt lat="39.4511360" lon="-8.1774030">
        <ele>55.6</ele>
        <time>2019-07-11T10:08:01Z</time>
      </trkpt>
      <trkpt lat="39.4510480" lon="-8.1777040">
        <ele>55.8</ele>
        <time>2019-07-11T10:08:04Z</time>
      </trkpt>
      <trkpt lat="39.4508920" lon="-8.1783070">
        <ele>55.6</ele>
        <time>2019-07-11T10:08:12Z</time>
      </trkpt>
      <trkpt lat="39.4507490" lon="-8.1791020">
        <ele>55.8</ele>
        <time>2019-07-11T10:08:22Z</time>
      </trkpt>
      <trkpt lat="39.4506600" lon="-8.1797460">
        <ele>56.0</ele>
        <time>2019-07-11T10:08:30Z</time>
      </trkpt>
      <trkpt lat="39.4505470" lon="-8.1805690">
        <ele>55.8</ele>
        <time>2019-07-11T10:08:40Z</time>
      </trkpt>
      <trkpt lat="39.4504530" lon="-8.1812150">
        <ele>55.8</ele>
        <time>2019-07-11T10:08:48Z</time>
      </trkpt>
      <trkpt lat="39.4503440" lon="-8.1820050">
        <ele>55.4</ele>
        <time>2019-07-11T10:08:58Z</time>
      </trkpt>
      <trkpt lat="39.4503210" lon="-8.1821610">
        <ele>55.4</ele>
        <time>2019-07-11T10:09:01Z</time>
      </trkpt>
      <trkpt lat="39.4502270" lon="-8.1827710">
        <ele>55.8</ele>
        <time>2019-07-11T10:09:09Z</time>
      </trkpt>
      <trkpt lat="39.4501400" lon="-8.1833430">
        <ele>55.8</ele>
        <time>2019-07-11T10:09:16Z</time>
      </trkpt>
      <trkpt lat="39.4501180" lon="-8.1834760">
        <ele>56.0</ele>
        <time>2019-07-11T10:09:18Z</time>
      </trkpt>
      <trkpt lat="39.4500700" lon="-8.1837140">
        <ele>56.6</ele>
        <time>2019-07-11T10:09:22Z</time>
      </trkpt>
      <trkpt lat="39.4500590" lon="-8.1837720">
        <ele>56.8</ele>
        <time>2019-07-11T10:09:23Z</time>
      </trkpt>
      <trkpt lat="39.4500480" lon="-8.1838290">
        <ele>57.2</ele>
        <time>2019-07-11T10:09:24Z</time>
      </trkpt>
      <trkpt lat="39.4500210" lon="-8.1839370">
        <ele>57.6</ele>
        <time>2019-07-11T10:09:26Z</time>
      </trkpt>
      <trkpt lat="39.4499950" lon="-8.1840460">
        <ele>58.2</ele>
        <time>2019-07-11T10:09:28Z</time>
      </trkpt>
      <trkpt lat="39.4499700" lon="-8.1841510">
        <ele>58.8</ele>
        <time>2019-07-11T10:09:30Z</time>
      </trkpt>
      <trkpt lat="39.4499460" lon="-8.1842500">
        <ele>59.6</ele>
        <time>2019-07-11T10:09:33Z</time>
      </trkpt>
      <trkpt lat="39.4499240" lon="-8.1843460">
        <ele>59.8</ele>
        <time>2019-07-11T10:09:34Z</time>
      </trkpt>
      <trkpt lat="39.4498840" lon="-8.1845320">
        <ele>60.4</ele>
        <time>2019-07-11T10:09:38Z</time>
      </trkpt>
      <trkpt lat="39.4498840" lon="-8.1845320">
        <ele>60.6</ele>
        <time>2019-07-11T10:09:39Z</time>
      </trkpt>
      <trkpt lat="39.4498310" lon="-8.1847690">
        <ele>60.2</ele>
        <time>2019-07-11T10:09:43Z</time>
      </trkpt>
      <trkpt lat="39.4497140" lon="-8.1852660">
        <ele>58.4</ele>
        <time>2019-07-11T10:09:48Z</time>
      </trkpt>
      <trkpt lat="39.4496570" lon="-8.1854460">
        <ele>57.8</ele>
        <time>2019-07-11T10:09:50Z</time>
      </trkpt>
      <trkpt lat="39.4495760" lon="-8.1856100">
        <ele>57.2</ele>
        <time>2019-07-11T10:09:52Z</time>
      </trkpt>
      <trkpt lat="39.4495360" lon="-8.1856790">
        <ele>57.0</ele>
        <time>2019-07-11T10:09:53Z</time>
      </trkpt>
      <trkpt lat="39.4494940" lon="-8.1859010">
        <ele>56.4</ele>
        <time>2019-07-11T10:09:56Z</time>
      </trkpt>
      <trkpt lat="39.4494860" lon="-8.1859500">
        <ele>56.2</ele>
        <time>2019-07-11T10:09:57Z</time>
      </trkpt>
      <trkpt lat="39.4494770" lon="-8.1859990">
        <ele>56.2</ele>
        <time>2019-07-11T10:09:58Z</time>
      </trkpt>
      <trkpt lat="39.4494440" lon="-8.1861950">
        <ele>55.8</ele>
        <time>2019-07-11T10:10:00Z</time>
      </trkpt>
      <trkpt lat="39.4493460" lon="-8.1864710">
        <ele>55.4</ele>
        <time>2019-07-11T10:10:04Z</time>
      </trkpt>
      <trkpt lat="39.4492940" lon="-8.1866130">
        <ele>55.2</ele>
        <time>2019-07-11T10:10:06Z</time>
      </trkpt>
      <trkpt lat="39.4492560" lon="-8.1867660">
        <ele>55.0</ele>
        <time>2019-07-11T10:10:08Z</time>
      </trkpt>
      <trkpt lat="39.4492560" lon="-8.1867660">
        <ele>54.8</ele>
        <time>2019-07-11T10:10:09Z</time>
      </trkpt>
      <trkpt lat="39.4492170" lon="-8.1874170">
        <ele>54.2</ele>
        <time>2019-07-11T10:10:16Z</time>
      </trkpt>
      <trkpt lat="39.4492870" lon="-8.1877150">
        <ele>54.2</ele>
        <time>2019-07-11T10:10:20Z</time>
      </trkpt>
      <trkpt lat="39.4492870" lon="-8.1877150">
        <ele>54.0</ele>
        <time>2019-07-11T10:10:21Z</time>
      </trkpt>
      <trkpt lat="39.4494110" lon="-8.1879590">
        <ele>54.4</ele>
        <time>2019-07-11T10:10:24Z</time>
      </trkpt>
      <trkpt lat="39.4494920" lon="-8.1880630">
        <ele>54.4</ele>
        <time>2019-07-11T10:10:26Z</time>
      </trkpt>
      <trkpt lat="39.4497650" lon="-8.1883170">
        <ele>53.8</ele>
        <time>2019-07-11T10:10:32Z</time>
      </trkpt>
      <trkpt lat="39.4497810" lon="-8.1883560">
        <ele>53.6</ele>
        <time>2019-07-11T10:10:33Z</time>
      </trkpt>
      <trkpt lat="39.4497960" lon="-8.1883960">
        <ele>53.6</ele>
        <time>2019-07-11T10:10:34Z</time>
      </trkpt>
      <trkpt lat="39.4498590" lon="-8.1885540">
        <ele>53.4</ele>
        <time>2019-07-11T10:10:36Z</time>
      </trkpt>
      <trkpt lat="39.4498420" lon="-8.1886910">
        <ele>53.4</ele>
        <time>2019-07-11T10:10:38Z</time>
      </trkpt>
      <trkpt lat="39.4498060" lon="-8.1888240">
        <ele>53.4</ele>
        <time>2019-07-11T10:10:40Z</time>
      </trkpt>
      <trkpt lat="39.4497910" lon="-8.1888910">
        <ele>53.4</ele>
        <time>2019-07-11T10:10:41Z</time>
      </trkpt>
      <trkpt lat="39.4497440" lon="-8.1890860">
        <ele>53.4</ele>
        <time>2019-07-11T10:10:44Z</time>
      </trkpt>
      <trkpt lat="39.4496760" lon="-8.1893550">
        <ele>53.0</ele>
        <time>2019-07-11T10:10:48Z</time>
      </trkpt>
      <trkpt lat="39.4496760" lon="-8.1893550">
        <ele>53.0</ele>
        <time>2019-07-11T10:10:49Z</time>
      </trkpt>
      <trkpt lat="39.4495420" lon="-8.1898990">
        <ele>53.0</ele>
        <time>2019-07-11T10:10:57Z</time>
      </trkpt>
      <trkpt lat="39.4494360" lon="-8.1903110">
        <ele>52.4</ele>
        <time>2019-07-11T10:11:03Z</time>
      </trkpt>
      <trkpt lat="39.4494020" lon="-8.1904500">
        <ele>52.4</ele>
        <time>2019-07-11T10:11:04Z</time>
      </trkpt>
      <trkpt lat="39.4492700" lon="-8.1910050">
        <ele>51.8</ele>
        <time>2019-07-11T10:11:12Z</time>
      </trkpt>
      <trkpt lat="39.4491550" lon="-8.1915360">
        <ele>51.4</ele>
        <time>2019-07-11T10:11:21Z</time>
      </trkpt>
      <trkpt lat="39.4490580" lon="-8.1919470">
        <ele>51.0</ele>
        <time>2019-07-11T10:11:27Z</time>
      </trkpt>
      <trkpt lat="39.4490250" lon="-8.1922220">
        <ele>51.0</ele>
        <time>2019-07-11T10:11:30Z</time>
      </trkpt>
      <trkpt lat="39.4490010" lon="-8.1923500">
        <ele>50.8</ele>
        <time>2019-07-11T10:11:32Z</time>
      </trkpt>
      <trkpt lat="39.4489190" lon="-8.1927160">
        <ele>51.0</ele>
        <time>2019-07-11T10:11:38Z</time>
      </trkpt>
      <trkpt lat="39.4488370" lon="-8.1930740">
        <ele>51.2</ele>
        <time>2019-07-11T10:11:45Z</time>
      </trkpt>
      <trkpt lat="39.4487910" lon="-8.1933190">
        <ele>51.2</ele>
        <time>2019-07-11T10:11:48Z</time>
      </trkpt>
      <trkpt lat="39.4486560" lon="-8.1939050">
        <ele>51.2</ele>
        <time>2019-07-11T10:11:58Z</time>
      </trkpt>
      <trkpt lat="39.4486380" lon="-8.1939520">
        <ele>51.2</ele>
        <time>2019-07-11T10:11:59Z</time>
      </trkpt>
      <trkpt lat="39.4485540" lon="-8.1940570">
        <ele>51.4</ele>
        <time>2019-07-11T10:12:02Z</time>
      </trkpt>
      <trkpt lat="39.4485540" lon="-8.1940570">
        <ele>51.4</ele>
        <time>2019-07-11T10:12:03Z</time>
      </trkpt>
      <trkpt lat="39.4484180" lon="-8.1941250">
        <ele>51.6</ele>
        <time>2019-07-11T10:12:07Z</time>
      </trkpt>
      <trkpt lat="39.4483550" lon="-8.1941500">
        <ele>52.0</ele>
        <time>2019-07-11T10:12:09Z</time>
      </trkpt>
      <trkpt lat="39.4482640" lon="-8.1941720">
        <ele>52.6</ele>
        <time>2019-07-11T10:12:11Z</time>
      </trkpt>
      <trkpt lat="39.4482360" lon="-8.1941780">
        <ele>52.6</ele>
        <time>2019-07-11T10:12:12Z</time>
      </trkpt>
      <trkpt lat="39.4481770" lon="-8.1941850">
        <ele>52.8</ele>
        <time>2019-07-11T10:12:15Z</time>
      </trkpt>
      <trkpt lat="39.4480970" lon="-8.1942170">
        <ele>53.2</ele>
        <time>2019-07-11T10:12:17Z</time>
      </trkpt>
      <trkpt lat="39.4480110" lon="-8.1942460">
        <ele>53.4</ele>
        <time>2019-07-11T10:12:20Z</time>
      </trkpt>
      <trkpt lat="39.4479520" lon="-8.1942590">
        <ele>54.0</ele>
        <time>2019-07-11T10:12:22Z</time>
      </trkpt>
      <trkpt lat="39.4478930" lon="-8.1942700">
        <ele>54.4</ele>
        <time>2019-07-11T10:12:24Z</time>
      </trkpt>
      <trkpt lat="39.4477580" lon="-8.1943140">
        <ele>55.4</ele>
        <time>2019-07-11T10:12:29Z</time>
      </trkpt>
      <trkpt lat="39.4477030" lon="-8.1943270">
        <ele>55.8</ele>
        <time>2019-07-11T10:12:31Z</time>
      </trkpt>
      <trkpt lat="39.4476100" lon="-8.1943370">
        <ele>56.6</ele>
        <time>2019-07-11T10:12:35Z</time>
      </trkpt>
      <trkpt lat="39.4475270" lon="-8.1943520">
        <ele>57.2</ele>
        <time>2019-07-11T10:12:39Z</time>
      </trkpt>
      <trkpt lat="39.4475140" lon="-8.1943690">
        <ele>57.4</ele>
        <time>2019-07-11T10:12:40Z</time>
      </trkpt>
      <trkpt lat="39.4475280" lon="-8.1944070">
        <ele>57.6</ele>
        <time>2019-07-11T10:12:42Z</time>
      </trkpt>
      <trkpt lat="39.4475730" lon="-8.1944300">
        <ele>57.8</ele>
        <time>2019-07-11T10:12:44Z</time>
      </trkpt>
      <trkpt lat="39.4476650" lon="-8.1944480">
        <ele>58.4</ele>
        <time>2019-07-11T10:12:47Z</time>
      </trkpt>
      <trkpt lat="39.4477480" lon="-8.1944930">
        <ele>58.6</ele>
        <time>2019-07-11T10:12:50Z</time>
      </trkpt>
      <trkpt lat="39.4478260" lon="-8.1945250">
        <ele>59.0</ele>
        <time>2019-07-11T10:12:53Z</time>
      </trkpt>
      <trkpt lat="39.4479050" lon="-8.1945610">
        <ele>59.8</ele>
        <time>2019-07-11T10:12:57Z</time>
      </trkpt>
      <trkpt lat="39.4480590" lon="-8.1946430">
        <ele>60.6</ele>
        <time>2019-07-11T10:13:03Z</time>
      </trkpt>
      <trkpt lat="39.4481120" lon="-8.1946700">
        <ele>60.8</ele>
        <time>2019-07-11T10:13:04Z</time>
      </trkpt>
      <trkpt lat="39.4482820" lon="-8.1947470">
        <ele>61.8</ele>
        <time>2019-07-11T10:13:10Z</time>
      </trkpt>
      <trkpt lat="39.4485360" lon="-8.1948630">
        <ele>62.0</ele>
        <time>2019-07-11T10:13:17Z</time>
      </trkpt>
      <trkpt lat="39.4486540" lon="-8.1949280">
        <ele>62.0</ele>
        <time>2019-07-11T10:13:20Z</time>
      </trkpt>
      <trkpt lat="39.4488320" lon="-8.1950080">
        <ele>62.0</ele>
        <time>2019-07-11T10:13:24Z</time>
      </trkpt>
      <trkpt lat="39.4491170" lon="-8.1951480">
        <ele>62.0</ele>
        <time>2019-07-11T10:13:31Z</time>
      </trkpt>
      <trkpt lat="39.4492160" lon="-8.1951930">
        <ele>62.2</ele>
        <time>2019-07-11T10:13:32Z</time>
      </trkpt>
      <trkpt lat="39.4492160" lon="-8.1951930">
        <ele>62.2</ele>
        <time>2019-07-11T10:13:33Z</time>
      </trkpt>
      <trkpt lat="39.4495870" lon="-8.1953610">
        <ele>62.4</ele>
        <time>2019-07-11T10:13:39Z</time>
      </trkpt>
      <trkpt lat="39.4498440" lon="-8.1954800">
        <ele>62.2</ele>
        <time>2019-07-11T10:13:44Z</time>
      </trkpt>
      <trkpt lat="39.4498910" lon="-8.1955030">
        <ele>62.2</ele>
        <time>2019-07-11T10:13:45Z</time>
      </trkpt>
      <trkpt lat="39.4499370" lon="-8.1955270">
        <ele>62.2</ele>
        <time>2019-07-11T10:13:46Z</time>
      </trkpt>
      <trkpt lat="39.4500270" lon="-8.1955730">
        <ele>62.2</ele>
        <time>2019-07-11T10:13:48Z</time>
      </trkpt>
      <trkpt lat="39.4503040" lon="-8.1957060">
        <ele>62.0</ele>
        <time>2019-07-11T10:13:54Z</time>
      </trkpt>
      <trkpt lat="39.4507160" lon="-8.1958820">
        <ele>62.4</ele>
        <time>2019-07-11T10:14:03Z</time>
      </trkpt>
      <trkpt lat="39.4508130" lon="-8.1959250">
        <ele>62.4</ele>
        <time>2019-07-11T10:14:04Z</time>
      </trkpt>
      <trkpt lat="39.4509030" lon="-8.1959660">
        <ele>62.4</ele>
        <time>2019-07-11T10:14:06Z</time>
      </trkpt>
      <trkpt lat="39.4510400" lon="-8.1960250">
        <ele>62.2</ele>
        <time>2019-07-11T10:14:09Z</time>
      </trkpt>
      <trkpt lat="39.4514050" lon="-8.1961880">
        <ele>62.4</ele>
        <time>2019-07-11T10:14:17Z</time>
      </trkpt>
      <trkpt lat="39.4514510" lon="-8.1962080">
        <ele>62.4</ele>
        <time>2019-07-11T10:14:19Z</time>
      </trkpt>
      <trkpt lat="39.4518110" lon="-8.1963170">
        <ele>62.0</ele>
        <time>2019-07-11T10:14:25Z</time>
      </trkpt>
      <trkpt lat="39.4519970" lon="-8.1963360">
        <ele>61.6</ele>
        <time>2019-07-11T10:14:28Z</time>
      </trkpt>
      <trkpt lat="39.4521240" lon="-8.1963350">
        <ele>61.2</ele>
        <time>2019-07-11T10:14:31Z</time>
      </trkpt>
      <trkpt lat="39.4522520" lon="-8.1963190">
        <ele>60.8</ele>
        <time>2019-07-11T10:14:32Z</time>
      </trkpt>
      <trkpt lat="39.4523800" lon="-8.1962820">
        <ele>60.4</ele>
        <time>2019-07-11T10:14:34Z</time>
      </trkpt>
      <trkpt lat="39.4525020" lon="-8.1962310">
        <ele>60.0</ele>
        <time>2019-07-11T10:14:36Z</time>
      </trkpt>
      <trkpt lat="39.4526080" lon="-8.1961670">
        <ele>59.6</ele>
        <time>2019-07-11T10:14:38Z</time>
      </trkpt>
      <trkpt lat="39.4526590" lon="-8.1961440">
        <ele>59.6</ele>
        <time>2019-07-11T10:14:39Z</time>
      </trkpt>
      <trkpt lat="39.4527510" lon="-8.1961680">
        <ele>59.6</ele>
        <time>2019-07-11T10:14:41Z</time>
      </trkpt>
      <trkpt lat="39.4528070" lon="-8.1963110">
        <ele>59.6</ele>
        <time>2019-07-11T10:14:44Z</time>
      </trkpt>
      <trkpt lat="39.4528540" lon="-8.1964340">
        <ele>60.2</ele>
        <time>2019-07-11T10:14:47Z</time>
      </trkpt>
      <trkpt lat="39.4528800" lon="-8.1965050">
        <ele>60.4</ele>
        <time>2019-07-11T10:14:49Z</time>
      </trkpt>
      <trkpt lat="39.4529010" lon="-8.1965720">
        <ele>61.2</ele>
        <time>2019-07-11T10:14:51Z</time>
      </trkpt>
      <trkpt lat="39.4529210" lon="-8.1966730">
        <ele>62.0</ele>
        <time>2019-07-11T10:14:54Z</time>
      </trkpt>
      <trkpt lat="39.4529260" lon="-8.1967070">
        <ele>62.2</ele>
        <time>2019-07-11T10:14:55Z</time>
      </trkpt>
      <trkpt lat="39.4529280" lon="-8.1967410">
        <ele>62.4</ele>
        <time>2019-07-11T10:14:56Z</time>
      </trkpt>
      <trkpt lat="39.4529150" lon="-8.1968730">
        <ele>63.4</ele>
        <time>2019-07-11T10:15:00Z</time>
      </trkpt>
      <trkpt lat="39.4529130" lon="-8.1969110">
        <ele>63.6</ele>
        <time>2019-07-11T10:15:01Z</time>
      </trkpt>
      <trkpt lat="39.4529040" lon="-8.1969870">
        <ele>64.2</ele>
        <time>2019-07-11T10:15:03Z</time>
      </trkpt>
      <trkpt lat="39.4528870" lon="-8.1970610">
        <ele>64.6</ele>
        <time>2019-07-11T10:15:05Z</time>
      </trkpt>
      <trkpt lat="39.4528600" lon="-8.1971710">
        <ele>65.2</ele>
        <time>2019-07-11T10:15:08Z</time>
      </trkpt>
      <trkpt lat="39.4528530" lon="-8.1972460">
        <ele>65.6</ele>
        <time>2019-07-11T10:15:10Z</time>
      </trkpt>
      <trkpt lat="39.4528230" lon="-8.1973880">
        <ele>66.2</ele>
        <time>2019-07-11T10:15:14Z</time>
      </trkpt>
      <trkpt lat="39.4528160" lon="-8.1974270">
        <ele>66.4</ele>
        <time>2019-07-11T10:15:15Z</time>
      </trkpt>
      <trkpt lat="39.4528090" lon="-8.1974630">
        <ele>66.6</ele>
        <time>2019-07-11T10:15:16Z</time>
      </trkpt>
      <trkpt lat="39.4527960" lon="-8.1976540">
        <ele>67.8</ele>
        <time>2019-07-11T10:15:21Z</time>
      </trkpt>
      <trkpt lat="39.4527950" lon="-8.1976920">
        <ele>68.0</ele>
        <time>2019-07-11T10:15:22Z</time>
      </trkpt>
      <trkpt lat="39.4527970" lon="-8.1979050">
        <ele>69.2</ele>
        <time>2019-07-11T10:15:28Z</time>
      </trkpt>
      <trkpt lat="39.4527870" lon="-8.1980470">
        <ele>70.2</ele>
        <time>2019-07-11T10:15:33Z</time>
      </trkpt>
      <trkpt lat="39.4527740" lon="-8.1981150">
        <ele>70.6</ele>
        <time>2019-07-11T10:15:34Z</time>
      </trkpt>
      <trkpt lat="39.4526980" lon="-8.1982700">
        <ele>71.4</ele>
        <time>2019-07-11T10:15:39Z</time>
      </trkpt>
      <trkpt lat="39.4526780" lon="-8.1982990">
        <ele>71.6</ele>
        <time>2019-07-11T10:15:40Z</time>
      </trkpt>
      <trkpt lat="39.4525580" lon="-8.1984500">
        <ele>72.4</ele>
        <time>2019-07-11T10:15:46Z</time>
      </trkpt>
      <trkpt lat="39.4525190" lon="-8.1984980">
        <ele>72.8</ele>
        <time>2019-07-11T10:15:48Z</time>
      </trkpt>
      <trkpt lat="39.4524350" lon="-8.1985960">
        <ele>73.6</ele>
        <time>2019-07-11T10:15:52Z</time>
      </trkpt>
      <trkpt lat="39.4524020" lon="-8.1986600">
        <ele>74.0</ele>
        <time>2019-07-11T10:15:54Z</time>
      </trkpt>
      <trkpt lat="39.4523240" lon="-8.1987700">
        <ele>74.8</ele>
        <time>2019-07-11T10:15:58Z</time>
      </trkpt>
      <trkpt lat="39.4522320" lon="-8.1989140">
        <ele>75.8</ele>
        <time>2019-07-11T10:16:03Z</time>
      </trkpt>
      <trkpt lat="39.4521390" lon="-8.1990460">
        <ele>76.8</ele>
        <time>2019-07-11T10:16:09Z</time>
      </trkpt>
      <trkpt lat="39.4521020" lon="-8.1991000">
        <ele>77.0</ele>
        <time>2019-07-11T10:16:10Z</time>
      </trkpt>
      <trkpt lat="39.4520070" lon="-8.1992330">
        <ele>78.0</ele>
        <time>2019-07-11T10:16:15Z</time>
      </trkpt>
      <trkpt lat="39.4519670" lon="-8.1992870">
        <ele>78.2</ele>
        <time>2019-07-11T10:16:17Z</time>
      </trkpt>
      <trkpt lat="39.4518850" lon="-8.1993920">
        <ele>79.0</ele>
        <time>2019-07-11T10:16:21Z</time>
      </trkpt>
      <trkpt lat="39.4518040" lon="-8.1995480">
        <ele>80.0</ele>
        <time>2019-07-11T10:16:26Z</time>
      </trkpt>
      <trkpt lat="39.4517790" lon="-8.1996880">
        <ele>81.2</ele>
        <time>2019-07-11T10:16:30Z</time>
      </trkpt>
      <trkpt lat="39.4517780" lon="-8.1997610">
        <ele>81.8</ele>
        <time>2019-07-11T10:16:32Z</time>
      </trkpt>
      <trkpt lat="39.4517960" lon="-8.1998710">
        <ele>82.4</ele>
        <time>2019-07-11T10:16:35Z</time>
      </trkpt>
      <trkpt lat="39.4518580" lon="-8.2000040">
        <ele>83.6</ele>
        <time>2019-07-11T10:16:39Z</time>
      </trkpt>
      <trkpt lat="39.4520080" lon="-8.2001290">
        <ele>84.4</ele>
        <time>2019-07-11T10:16:45Z</time>
      </trkpt>
      <trkpt lat="39.4520370" lon="-8.2001390">
        <ele>84.6</ele>
        <time>2019-07-11T10:16:46Z</time>
      </trkpt>
      <trkpt lat="39.4521490" lon="-8.2001350">
        <ele>85.6</ele>
        <time>2019-07-11T10:16:50Z</time>
      </trkpt>
      <trkpt lat="39.4521740" lon="-8.2001290">
        <ele>86.0</ele>
        <time>2019-07-11T10:16:51Z</time>
      </trkpt>
      <trkpt lat="39.4522520" lon="-8.2000930">
        <ele>86.8</ele>
        <time>2019-07-11T10:16:54Z</time>
      </trkpt>
      <trkpt lat="39.4523250" lon="-8.2000290">
        <ele>87.6</ele>
        <time>2019-07-11T10:16:57Z</time>
      </trkpt>
      <trkpt lat="39.4523930" lon="-8.1999590">
        <ele>88.0</ele>
        <time>2019-07-11T10:17:00Z</time>
      </trkpt>
      <trkpt lat="39.4525180" lon="-8.1998460">
        <ele>89.2</ele>
        <time>2019-07-11T10:17:05Z</time>
      </trkpt>
      <trkpt lat="39.4525430" lon="-8.1998240">
        <ele>89.6</ele>
        <time>2019-07-11T10:17:06Z</time>
      </trkpt>
      <trkpt lat="39.4526350" lon="-8.1997310">
        <ele>90.4</ele>
        <time>2019-07-11T10:17:10Z</time>
      </trkpt>
      <trkpt lat="39.4527450" lon="-8.1996140">
        <ele>91.4</ele>
        <time>2019-07-11T10:17:15Z</time>
      </trkpt>
      <trkpt lat="39.4527690" lon="-8.1995950">
        <ele>91.4</ele>
        <time>2019-07-11T10:17:16Z</time>
      </trkpt>
      <trkpt lat="39.4529140" lon="-8.1995240">
        <ele>92.2</ele>
        <time>2019-07-11T10:17:21Z</time>
      </trkpt>
      <trkpt lat="39.4529730" lon="-8.1995080">
        <ele>92.6</ele>
        <time>2019-07-11T10:17:23Z</time>
      </trkpt>
      <trkpt lat="39.4530590" lon="-8.1995230">
        <ele>93.2</ele>
        <time>2019-07-11T10:17:26Z</time>
      </trkpt>
      <trkpt lat="39.4531150" lon="-8.1995320">
        <ele>93.8</ele>
        <time>2019-07-11T10:17:28Z</time>
      </trkpt>
      <trkpt lat="39.4532230" lon="-8.1995700">
        <ele>94.8</ele>
        <time>2019-07-11T10:17:32Z</time>
      </trkpt>
      <trkpt lat="39.4532770" lon="-8.1995900">
        <ele>95.4</ele>
        <time>2019-07-11T10:17:34Z</time>
      </trkpt>
      <trkpt lat="39.4533300" lon="-8.1996080">
        <ele>96.0</ele>
        <time>2019-07-11T10:17:36Z</time>
      </trkpt>
      <trkpt lat="39.4534440" lon="-8.1996270">
        <ele>97.0</ele>
        <time>2019-07-11T10:17:40Z</time>
      </trkpt>
      <trkpt lat="39.4535010" lon="-8.1996270">
        <ele>97.6</ele>
        <time>2019-07-11T10:17:42Z</time>
      </trkpt>
      <trkpt lat="39.4535560" lon="-8.1996200">
        <ele>98.2</ele>
        <time>2019-07-11T10:17:44Z</time>
      </trkpt>
      <trkpt lat="39.4536930" lon="-8.1995990">
        <ele>99.2</ele>
        <time>2019-07-11T10:17:49Z</time>
      </trkpt>
      <trkpt lat="39.4537190" lon="-8.1995880">
        <ele>99.6</ele>
        <time>2019-07-11T10:17:50Z</time>
      </trkpt>
      <trkpt lat="39.4538010" lon="-8.1995650">
        <ele>100.4</ele>
        <time>2019-07-11T10:17:53Z</time>
      </trkpt>
      <trkpt lat="39.4539360" lon="-8.1995150">
        <ele>101.6</ele>
        <time>2019-07-11T10:17:58Z</time>
      </trkpt>
      <trkpt lat="39.4540690" lon="-8.1994890">
        <ele>102.6</ele>
        <time>2019-07-11T10:18:03Z</time>
      </trkpt>
      <trkpt lat="39.4540950" lon="-8.1994890">
        <ele>102.8</ele>
        <time>2019-07-11T10:18:04Z</time>
      </trkpt>
      <trkpt lat="39.4541720" lon="-8.1994910">
        <ele>103.4</ele>
        <time>2019-07-11T10:18:07Z</time>
      </trkpt>
      <trkpt lat="39.4542310" lon="-8.1994910">
        <ele>104.0</ele>
        <time>2019-07-11T10:18:09Z</time>
      </trkpt>
      <trkpt lat="39.4543990" lon="-8.1995150">
        <ele>105.4</ele>
        <time>2019-07-11T10:18:15Z</time>
      </trkpt>
      <trkpt lat="39.4546040" lon="-8.1995480">
        <ele>106.4</ele>
        <time>2019-07-11T10:18:22Z</time>
      </trkpt>
      <trkpt lat="39.4548060" lon="-8.1996170">
        <ele>107.4</ele>
        <time>2019-07-11T10:18:29Z</time>
      </trkpt>
      <trkpt lat="39.4548300" lon="-8.1996350">
        <ele>107.4</ele>
        <time>2019-07-11T10:18:30Z</time>
      </trkpt>
      <trkpt lat="39.4549530" lon="-8.1997220">
        <ele>108.6</ele>
        <time>2019-07-11T10:18:35Z</time>
      </trkpt>
      <trkpt lat="39.4550050" lon="-8.1997500">
        <ele>109.0</ele>
        <time>2019-07-11T10:18:37Z</time>
      </trkpt>
      <trkpt lat="39.4550680" lon="-8.1998160">
        <ele>109.6</ele>
        <time>2019-07-11T10:18:40Z</time>
      </trkpt>
      <trkpt lat="39.4551310" lon="-8.1998760">
        <ele>110.4</ele>
        <time>2019-07-11T10:18:43Z</time>
      </trkpt>
      <trkpt lat="39.4551720" lon="-8.1999050">
        <ele>110.8</ele>
        <time>2019-07-11T10:18:45Z</time>
      </trkpt>
      <trkpt lat="39.4552810" lon="-8.1999750">
        <ele>111.8</ele>
        <time>2019-07-11T10:18:50Z</time>
      </trkpt>
      <trkpt lat="39.4553040" lon="-8.1999880">
        <ele>112.2</ele>
        <time>2019-07-11T10:18:51Z</time>
      </trkpt>
      <trkpt lat="39.4553710" lon="-8.2000260">
        <ele>113.2</ele>
        <time>2019-07-11T10:18:54Z</time>
      </trkpt>
      <trkpt lat="39.4554160" lon="-8.2000450">
        <ele>114.0</ele>
        <time>2019-07-11T10:18:56Z</time>
      </trkpt>
      <trkpt lat="39.4554610" lon="-8.2000630">
        <ele>114.4</ele>
        <time>2019-07-11T10:18:58Z</time>
      </trkpt>
      <trkpt lat="39.4556300" lon="-8.2001170">
        <ele>115.4</ele>
        <time>2019-07-11T10:19:05Z</time>
      </trkpt>
      <trkpt lat="39.4557760" lon="-8.2001530">
        <ele>116.6</ele>
        <time>2019-07-11T10:19:11Z</time>
      </trkpt>
      <trkpt lat="39.4558020" lon="-8.2001620">
        <ele>116.8</ele>
        <time>2019-07-11T10:19:12Z</time>
      </trkpt>
      <trkpt lat="39.4559340" lon="-8.2001880">
        <ele>117.6</ele>
        <time>2019-07-11T10:19:17Z</time>
      </trkpt>
      <trkpt lat="39.4559650" lon="-8.2001890">
        <ele>117.8</ele>
        <time>2019-07-11T10:19:19Z</time>
      </trkpt>
      <trkpt lat="39.4561130" lon="-8.2001950">
        <ele>118.6</ele>
        <time>2019-07-11T10:19:23Z</time>
      </trkpt>
      <trkpt lat="39.4562960" lon="-8.2001810">
        <ele>119.6</ele>
        <time>2019-07-11T10:19:29Z</time>
      </trkpt>
      <trkpt lat="39.4564770" lon="-8.2001550">
        <ele>120.8</ele>
        <time>2019-07-11T10:19:35Z</time>
      </trkpt>
      <trkpt lat="39.4565670" lon="-8.2001370">
        <ele>121.2</ele>
        <time>2019-07-11T10:19:38Z</time>
      </trkpt>
      <trkpt lat="39.4566870" lon="-8.2001130">
        <ele>121.8</ele>
        <time>2019-07-11T10:19:42Z</time>
      </trkpt>
      <trkpt lat="39.4568620" lon="-8.2000860">
        <ele>122.8</ele>
        <time>2019-07-11T10:19:48Z</time>
      </trkpt>
      <trkpt lat="39.4568620" lon="-8.2000860">
        <ele>123.2</ele>
        <time>2019-07-11T10:19:49Z</time>
      </trkpt>
      <trkpt lat="39.4570040" lon="-8.2000610">
        <ele>124.0</ele>
        <time>2019-07-11T10:19:53Z</time>
      </trkpt>
      <trkpt lat="39.4571480" lon="-8.2000370">
        <ele>125.0</ele>
        <time>2019-07-11T10:19:58Z</time>
      </trkpt>
      <trkpt lat="39.4572600" lon="-8.2000170">
        <ele>126.2</ele>
        <time>2019-07-11T10:20:03Z</time>
      </trkpt>
      <trkpt lat="39.4573750" lon="-8.1999960">
        <ele>126.8</ele>
        <time>2019-07-11T10:20:06Z</time>
      </trkpt>
      <trkpt lat="39.4574330" lon="-8.1999820">
        <ele>127.4</ele>
        <time>2019-07-11T10:20:08Z</time>
      </trkpt>
      <trkpt lat="39.4575490" lon="-8.1999600">
        <ele>128.0</ele>
        <time>2019-07-11T10:20:12Z</time>
      </trkpt>
      <trkpt lat="39.4576060" lon="-8.1999490">
        <ele>128.6</ele>
        <time>2019-07-11T10:20:14Z</time>
      </trkpt>
      <trkpt lat="39.4577500" lon="-8.1999250">
        <ele>129.6</ele>
        <time>2019-07-11T10:20:19Z</time>
      </trkpt>
      <trkpt lat="39.4578050" lon="-8.1999210">
        <ele>130.0</ele>
        <time>2019-07-11T10:20:21Z</time>
      </trkpt>
      <trkpt lat="39.4578900" lon="-8.1999050">
        <ele>130.8</ele>
        <time>2019-07-11T10:20:24Z</time>
      </trkpt>
      <trkpt lat="39.4580030" lon="-8.1998850">
        <ele>131.4</ele>
        <time>2019-07-11T10:20:28Z</time>
      </trkpt>
      <trkpt lat="39.4580320" lon="-8.1998820">
        <ele>131.6</ele>
        <time>2019-07-11T10:20:29Z</time>
      </trkpt>
      <trkpt lat="39.4580620" lon="-8.1998780">
        <ele>132.0</ele>
        <time>2019-07-11T10:20:30Z</time>
      </trkpt>
      <trkpt lat="39.4582080" lon="-8.1998720">
        <ele>133.0</ele>
        <time>2019-07-11T10:20:35Z</time>
      </trkpt>
      <trkpt lat="39.4582680" lon="-8.1998770">
        <ele>133.2</ele>
        <time>2019-07-11T10:20:37Z</time>
      </trkpt>
      <trkpt lat="39.4583280" lon="-8.1998820">
        <ele>134.0</ele>
        <time>2019-07-11T10:20:39Z</time>
      </trkpt>
      <trkpt lat="39.4584410" lon="-8.1999000">
        <ele>135.0</ele>
        <time>2019-07-11T10:20:43Z</time>
      </trkpt>
      <trkpt lat="39.4585280" lon="-8.1999150">
        <ele>135.8</ele>
        <time>2019-07-11T10:20:46Z</time>
      </trkpt>
      <trkpt lat="39.4585830" lon="-8.1999320">
        <ele>136.0</ele>
        <time>2019-07-11T10:20:48Z</time>
      </trkpt>
      <trkpt lat="39.4587260" lon="-8.1999810">
        <ele>137.2</ele>
        <time>2019-07-11T10:20:53Z</time>
      </trkpt>
      <trkpt lat="39.4587550" lon="-8.1999900">
        <ele>137.4</ele>
        <time>2019-07-11T10:20:54Z</time>
      </trkpt>
      <trkpt lat="39.4588970" lon="-8.2000380">
        <ele>138.4</ele>
        <time>2019-07-11T10:20:59Z</time>
      </trkpt>
      <trkpt lat="39.4589790" lon="-8.2000720">
        <ele>139.0</ele>
        <time>2019-07-11T10:21:02Z</time>
      </trkpt>
      <trkpt lat="39.4590700" lon="-8.2000990">
        <ele>139.6</ele>
        <time>2019-07-11T10:21:05Z</time>
      </trkpt>
      <trkpt lat="39.4592160" lon="-8.2001370">
        <ele>140.8</ele>
        <time>2019-07-11T10:21:10Z</time>
      </trkpt>
      <trkpt lat="39.4593880" lon="-8.2001690">
        <ele>141.8</ele>
        <time>2019-07-11T10:21:16Z</time>
      </trkpt>
      <trkpt lat="39.4594140" lon="-8.2001770">
        <ele>142.0</ele>
        <time>2019-07-11T10:21:17Z</time>
      </trkpt>
      <trkpt lat="39.4595520" lon="-8.2001950">
        <ele>142.8</ele>
        <time>2019-07-11T10:21:22Z</time>
      </trkpt>
      <trkpt lat="39.4596390" lon="-8.2001990">
        <ele>143.2</ele>
        <time>2019-07-11T10:21:25Z</time>
      </trkpt>
      <trkpt lat="39.4596980" lon="-8.2001990">
        <ele>144.0</ele>
        <time>2019-07-11T10:21:27Z</time>
      </trkpt>
      <trkpt lat="39.4598450" lon="-8.2001830">
        <ele>145.2</ele>
        <time>2019-07-11T10:21:32Z</time>
      </trkpt>
      <trkpt lat="39.4599020" lon="-8.2001700">
        <ele>145.8</ele>
        <time>2019-07-11T10:21:34Z</time>
      </trkpt>
      <trkpt lat="39.4599600" lon="-8.2001580">
        <ele>146.4</ele>
        <time>2019-07-11T10:21:37Z</time>
      </trkpt>
      <trkpt lat="39.4601380" lon="-8.2001260">
        <ele>147.4</ele>
        <time>2019-07-11T10:21:42Z</time>
      </trkpt>
      <trkpt lat="39.4602830" lon="-8.2001000">
        <ele>148.4</ele>
        <time>2019-07-11T10:21:47Z</time>
      </trkpt>
      <trkpt lat="39.4603700" lon="-8.2000800">
        <ele>149.4</ele>
        <time>2019-07-11T10:21:50Z</time>
      </trkpt>
      <trkpt lat="39.4603990" lon="-8.2000730">
        <ele>149.6</ele>
        <time>2019-07-11T10:21:51Z</time>
      </trkpt>
      <trkpt lat="39.4606060" lon="-8.2000230">
        <ele>150.8</ele>
        <time>2019-07-11T10:21:58Z</time>
      </trkpt>
      <trkpt lat="39.4607390" lon="-8.2000300">
        <ele>152.0</ele>
        <time>2019-07-11T10:22:03Z</time>
      </trkpt>
      <trkpt lat="39.4608140" lon="-8.2000530">
        <ele>152.6</ele>
        <time>2019-07-11T10:22:06Z</time>
      </trkpt>
      <trkpt lat="39.4608670" lon="-8.2000590">
        <ele>153.2</ele>
        <time>2019-07-11T10:22:08Z</time>
      </trkpt>
      <trkpt lat="39.4609680" lon="-8.2000120">
        <ele>154.0</ele>
        <time>2019-07-11T10:22:12Z</time>
      </trkpt>
      <trkpt lat="39.4610120" lon="-8.1999770">
        <ele>154.4</ele>
        <time>2019-07-11T10:22:14Z</time>
      </trkpt>
      <trkpt lat="39.4610900" lon="-8.1998920">
        <ele>155.2</ele>
        <time>2019-07-11T10:22:18Z</time>
      </trkpt>
      <trkpt lat="39.4611070" lon="-8.1998710">
        <ele>155.4</ele>
        <time>2019-07-11T10:22:19Z</time>
      </trkpt>
      <trkpt lat="39.4611500" lon="-8.1997600">
        <ele>156.4</ele>
        <time>2019-07-11T10:22:23Z</time>
      </trkpt>
      <trkpt lat="39.4611590" lon="-8.1997330">
        <ele>156.6</ele>
        <time>2019-07-11T10:22:24Z</time>
      </trkpt>
      <trkpt lat="39.4611800" lon="-8.1996210">
        <ele>157.2</ele>
        <time>2019-07-11T10:22:28Z</time>
      </trkpt>
      <trkpt lat="39.4611870" lon="-8.1995880">
        <ele>157.4</ele>
        <time>2019-07-11T10:22:29Z</time>
      </trkpt>
      <trkpt lat="39.4612140" lon="-8.1994270">
        <ele>158.4</ele>
        <time>2019-07-11T10:22:34Z</time>
      </trkpt>
      <trkpt lat="39.4612150" lon="-8.1993950">
        <ele>158.6</ele>
        <time>2019-07-11T10:22:35Z</time>
      </trkpt>
      <trkpt lat="39.4612280" lon="-8.1992650">
        <ele>159.8</ele>
        <time>2019-07-11T10:22:39Z</time>
      </trkpt>
      <trkpt lat="39.4612340" lon="-8.1992330">
        <ele>160.0</ele>
        <time>2019-07-11T10:22:40Z</time>
      </trkpt>
      <trkpt lat="39.4612660" lon="-8.1990960">
        <ele>160.6</ele>
        <time>2019-07-11T10:22:44Z</time>
      </trkpt>
      <trkpt lat="39.4612840" lon="-8.1990220">
        <ele>161.0</ele>
        <time>2019-07-11T10:22:46Z</time>
      </trkpt>
      <trkpt lat="39.4613030" lon="-8.1989300">
        <ele>161.8</ele>
        <time>2019-07-11T10:22:49Z</time>
      </trkpt>
      <trkpt lat="39.4613140" lon="-8.1988770">
        <ele>162.2</ele>
        <time>2019-07-11T10:22:51Z</time>
      </trkpt>
      <trkpt lat="39.4613220" lon="-8.1988020">
        <ele>162.8</ele>
        <time>2019-07-11T10:22:54Z</time>
      </trkpt>
      <trkpt lat="39.4613230" lon="-8.1987260">
        <ele>163.8</ele>
        <time>2019-07-11T10:22:57Z</time>
      </trkpt>
      <trkpt lat="39.4613130" lon="-8.1987020">
        <ele>164.0</ele>
        <time>2019-07-11T10:22:58Z</time>
      </trkpt>
      <trkpt lat="39.4612780" lon="-8.1986420">
        <ele>164.6</ele>
        <time>2019-07-11T10:23:01Z</time>
      </trkpt>
      <trkpt lat="39.4612600" lon="-8.1985950">
        <ele>165.2</ele>
        <time>2019-07-11T10:23:03Z</time>
      </trkpt>
      <trkpt lat="39.4612580" lon="-8.1985720">
        <ele>165.4</ele>
        <time>2019-07-11T10:23:04Z</time>
      </trkpt>
      <trkpt lat="39.4613180" lon="-8.1985080">
        <ele>166.0</ele>
        <time>2019-07-11T10:23:09Z</time>
      </trkpt>
      <trkpt lat="39.4613360" lon="-8.1984970">
        <ele>166.0</ele>
        <time>2019-07-11T10:23:10Z</time>
      </trkpt>
      <trkpt lat="39.4613630" lon="-8.1984780">
        <ele>165.8</ele>
        <time>2019-07-11T10:23:14Z</time>
      </trkpt>
      <trkpt lat="39.4613500" lon="-8.1985290">
        <ele>165.8</ele>
        <time>2019-07-11T10:23:56Z</time>
      </trkpt>
      <trkpt lat="39.4613530" lon="-8.1985500">
        <ele>165.8</ele>
        <time>2019-07-11T10:23:57Z</time>
      </trkpt>
      <trkpt lat="39.4613570" lon="-8.1986010">
        <ele>165.4</ele>
        <time>2019-07-11T10:23:59Z</time>
      </trkpt>
      <trkpt lat="39.4613410" lon="-8.1986700">
        <ele>165.2</ele>
        <time>2019-07-11T10:24:01Z</time>
      </trkpt>
      <trkpt lat="39.4613220" lon="-8.1986960">
        <ele>165.0</ele>
        <time>2019-07-11T10:24:02Z</time>
      </trkpt>
      <trkpt lat="39.4612750" lon="-8.1987370">
        <ele>164.6</ele>
        <time>2019-07-11T10:24:04Z</time>
      </trkpt>
      <trkpt lat="39.4611990" lon="-8.1987480">
        <ele>164.2</ele>
        <time>2019-07-11T10:24:07Z</time>
      </trkpt>
      <trkpt lat="39.4611560" lon="-8.1987330">
        <ele>164.4</ele>
        <time>2019-07-11T10:24:09Z</time>
      </trkpt>
      <trkpt lat="39.4611210" lon="-8.1987170">
        <ele>164.6</ele>
        <time>2019-07-11T10:24:11Z</time>
      </trkpt>
      <trkpt lat="39.4611090" lon="-8.1987120">
        <ele>165.0</ele>
        <time>2019-07-11T10:24:12Z</time>
      </trkpt>
      <trkpt lat="39.4610790" lon="-8.1987290">
        <ele>165.6</ele>
        <time>2019-07-11T10:24:14Z</time>
      </trkpt>
      <trkpt lat="39.4610640" lon="-8.1987450">
        <ele>165.6</ele>
        <time>2019-07-11T10:24:15Z</time>
      </trkpt>
      <trkpt lat="39.4610460" lon="-8.1987620">
        <ele>165.8</ele>
        <time>2019-07-11T10:24:16Z</time>
      </trkpt>
      <trkpt lat="39.4609850" lon="-8.1988190">
        <ele>165.6</ele>
        <time>2019-07-11T10:24:19Z</time>
      </trkpt>
      <trkpt lat="39.4609190" lon="-8.1988780">
        <ele>165.4</ele>
        <time>2019-07-11T10:24:22Z</time>
      </trkpt>
      <trkpt lat="39.4607410" lon="-8.1989890">
        <ele>164.8</ele>
        <time>2019-07-11T10:24:28Z</time>
      </trkpt>
      <trkpt lat="39.4607180" lon="-8.1989770">
        <ele>164.6</ele>
        <time>2019-07-11T10:24:31Z</time>
      </trkpt>
      <trkpt lat="39.4606710" lon="-8.1989950">
        <ele>164.6</ele>
        <time>2019-07-11T10:24:46Z</time>
      </trkpt>
      <trkpt lat="39.4606240" lon="-8.1990110">
        <ele>164.6</ele>
        <time>2019-07-11T10:24:48Z</time>
      </trkpt>
      <trkpt lat="39.4604890" lon="-8.1990410">
        <ele>164.6</ele>
        <time>2019-07-11T10:24:53Z</time>
      </trkpt>
      <trkpt lat="39.4604320" lon="-8.1990440">
        <ele>164.6</ele>
        <time>2019-07-11T10:24:55Z</time>
      </trkpt>
      <trkpt lat="39.4603640" lon="-8.1990110">
        <ele>164.4</ele>
        <time>2019-07-11T10:24:58Z</time>
      </trkpt>
      <trkpt lat="39.4603160" lon="-8.1989870">
        <ele>164.2</ele>
        <time>2019-07-11T10:25:02Z</time>
      </trkpt>
      <trkpt lat="39.4602650" lon="-8.1989710">
        <ele>164.2</ele>
        <time>2019-07-11T10:25:05Z</time>
      </trkpt>
      <trkpt lat="39.4601200" lon="-8.1989360">
        <ele>164.2</ele>
        <time>2019-07-11T10:25:11Z</time>
      </trkpt>
      <trkpt lat="39.4600760" lon="-8.1989100">
        <ele>164.0</ele>
        <time>2019-07-11T10:25:13Z</time>
      </trkpt>
      <trkpt lat="39.4600090" lon="-8.1988870">
        <ele>163.8</ele>
        <time>2019-07-11T10:25:17Z</time>
      </trkpt>
      <trkpt lat="39.4599870" lon="-8.1988770">
        <ele>163.6</ele>
        <time>2019-07-11T10:25:18Z</time>
      </trkpt>
      <trkpt lat="39.4598690" lon="-8.1988430">
        <ele>163.2</ele>
        <time>2019-07-11T10:25:22Z</time>
      </trkpt>
      <trkpt lat="39.4597610" lon="-8.1988080">
        <ele>162.2</ele>
        <time>2019-07-11T10:25:26Z</time>
      </trkpt>
      <trkpt lat="39.4597200" lon="-8.1987910">
        <ele>161.6</ele>
        <time>2019-07-11T10:25:28Z</time>
      </trkpt>
      <trkpt lat="39.4597010" lon="-8.1987780">
        <ele>161.2</ele>
        <time>2019-07-11T10:25:29Z</time>
      </trkpt>
      <trkpt lat="39.4596540" lon="-8.1987760">
        <ele>160.8</ele>
        <time>2019-07-11T10:25:32Z</time>
      </trkpt>
      <trkpt lat="39.4596220" lon="-8.1987660">
        <ele>160.6</ele>
        <time>2019-07-11T10:25:34Z</time>
      </trkpt>
      <trkpt lat="39.4595920" lon="-8.1987660">
        <ele>160.0</ele>
        <time>2019-07-11T10:25:37Z</time>
      </trkpt>
      <trkpt lat="39.4595240" lon="-8.1987580">
        <ele>159.2</ele>
        <time>2019-07-11T10:25:41Z</time>
      </trkpt>
      <trkpt lat="39.4595090" lon="-8.1987550">
        <ele>159.2</ele>
        <time>2019-07-11T10:25:42Z</time>
      </trkpt>
      <trkpt lat="39.4594810" lon="-8.1987220">
        <ele>158.4</ele>
        <time>2019-07-11T10:25:46Z</time>
      </trkpt>
      <trkpt lat="39.4594890" lon="-8.1987060">
        <ele>158.4</ele>
        <time>2019-07-11T10:25:47Z</time>
      </trkpt>
      <trkpt lat="39.4595070" lon="-8.1986970">
        <ele>158.0</ele>
        <time>2019-07-11T10:25:49Z</time>
      </trkpt>
      <trkpt lat="39.4595410" lon="-8.1987010">
        <ele>158.2</ele>
        <time>2019-07-11T10:25:50Z</time>
      </trkpt>
      <trkpt lat="39.4595550" lon="-8.1987130">
        <ele>158.2</ele>
        <time>2019-07-11T10:25:51Z</time>
      </trkpt>
      <trkpt lat="39.4595810" lon="-8.1987420">
        <ele>158.6</ele>
        <time>2019-07-11T10:25:53Z</time>
      </trkpt>
      <trkpt lat="39.4595970" lon="-8.1987490">
        <ele>159.0</ele>
        <time>2019-07-11T10:25:55Z</time>
      </trkpt>
      <trkpt lat="39.4596320" lon="-8.1987510">
        <ele>159.0</ele>
        <time>2019-07-11T10:25:56Z</time>
      </trkpt>
      <trkpt lat="39.4596610" lon="-8.1987670">
        <ele>159.4</ele>
        <time>2019-07-11T10:25:58Z</time>
      </trkpt>
      <trkpt lat="39.4596900" lon="-8.1987920">
        <ele>160.0</ele>
        <time>2019-07-11T10:26:01Z</time>
      </trkpt>
      <trkpt lat="39.4597230" lon="-8.1988110">
        <ele>160.2</ele>
        <time>2019-07-11T10:26:02Z</time>
      </trkpt>
      <trkpt lat="39.4597770" lon="-8.1988430">
        <ele>160.8</ele>
        <time>2019-07-11T10:26:05Z</time>
      </trkpt>
      <trkpt lat="39.4598090" lon="-8.1988590">
        <ele>161.2</ele>
        <time>2019-07-11T10:26:07Z</time>
      </trkpt>
      <trkpt lat="39.4598420" lon="-8.1988800">
        <ele>161.6</ele>
        <time>2019-07-11T10:26:09Z</time>
      </trkpt>
      <trkpt lat="39.4598980" lon="-8.1989020">
        <ele>162.2</ele>
        <time>2019-07-11T10:26:13Z</time>
      </trkpt>
      <trkpt lat="39.4599800" lon="-8.1989280">
        <ele>163.0</ele>
        <time>2019-07-11T10:26:16Z</time>
      </trkpt>
      <trkpt lat="39.4599990" lon="-8.1989350">
        <ele>163.2</ele>
        <time>2019-07-11T10:26:17Z</time>
      </trkpt>
      <trkpt lat="39.4600190" lon="-8.1989410">
        <ele>163.4</ele>
        <time>2019-07-11T10:26:19Z</time>
      </trkpt>
      <trkpt lat="39.4601070" lon="-8.1989700">
        <ele>163.4</ele>
        <time>2019-07-11T10:26:22Z</time>
      </trkpt>
      <trkpt lat="39.4601300" lon="-8.1989760">
        <ele>163.6</ele>
        <time>2019-07-11T10:26:23Z</time>
      </trkpt>
      <trkpt lat="39.4602980" lon="-8.1990750">
        <ele>163.8</ele>
        <time>2019-07-11T10:26:30Z</time>
      </trkpt>
      <trkpt lat="39.4603970" lon="-8.1991130">
        <ele>164.0</ele>
        <time>2019-07-11T10:26:34Z</time>
      </trkpt>
      <trkpt lat="39.4604370" lon="-8.1991250">
        <ele>164.0</ele>
        <time>2019-07-11T10:26:37Z</time>
      </trkpt>
      <trkpt lat="39.4605100" lon="-8.1991390">
        <ele>164.0</ele>
        <time>2019-07-11T10:26:40Z</time>
      </trkpt>
      <trkpt lat="39.4605560" lon="-8.1991660">
        <ele>164.0</ele>
        <time>2019-07-11T10:26:44Z</time>
      </trkpt>
      <trkpt lat="39.4605670" lon="-8.1991750">
        <ele>164.0</ele>
        <time>2019-07-11T10:26:45Z</time>
      </trkpt>
      <trkpt lat="39.4605940" lon="-8.1991900">
        <ele>163.6</ele>
        <time>2019-07-11T10:26:47Z</time>
      </trkpt>
      <trkpt lat="39.4606110" lon="-8.1991960">
        <ele>163.2</ele>
        <time>2019-07-11T10:26:49Z</time>
      </trkpt>
      <trkpt lat="39.4606800" lon="-8.1992210">
        <ele>163.0</ele>
        <time>2019-07-11T10:26:52Z</time>
      </trkpt>
      <trkpt lat="39.4607130" lon="-8.1992400">
        <ele>162.6</ele>
        <time>2019-07-11T10:26:55Z</time>
      </trkpt>
      <trkpt lat="39.4607560" lon="-8.1992660">
        <ele>162.6</ele>
        <time>2019-07-11T10:26:56Z</time>
      </trkpt>
      <trkpt lat="39.4607560" lon="-8.1992660">
        <ele>162.4</ele>
        <time>2019-07-11T10:26:57Z</time>
      </trkpt>
      <trkpt lat="39.4608400" lon="-8.1992840">
        <ele>162.2</ele>
        <time>2019-07-11T10:26:59Z</time>
      </trkpt>
      <trkpt lat="39.4608900" lon="-8.1992890">
        <ele>161.6</ele>
        <time>2019-07-11T10:27:01Z</time>
      </trkpt>
      <trkpt lat="39.4609190" lon="-8.1992940">
        <ele>161.2</ele>
        <time>2019-07-11T10:27:03Z</time>
      </trkpt>
      <trkpt lat="39.4610580" lon="-8.1993020">
        <ele>160.6</ele>
        <time>2019-07-11T10:27:07Z</time>
      </trkpt>
      <trkpt lat="39.4611290" lon="-8.1993010">
        <ele>160.2</ele>
        <time>2019-07-11T10:27:08Z</time>
      </trkpt>
      <trkpt lat="39.4612110" lon="-8.1993120">
        <ele>159.2</ele>
        <time>2019-07-11T10:27:11Z</time>
      </trkpt>
      <trkpt lat="39.4612270" lon="-8.1993080">
        <ele>159.0</ele>
        <time>2019-07-11T10:27:12Z</time>
      </trkpt>
      <trkpt lat="39.4612690" lon="-8.1992980">
        <ele>158.6</ele>
        <time>2019-07-11T10:27:17Z</time>
      </trkpt>
      <trkpt lat="39.4612980" lon="-8.1992960">
        <ele>158.4</ele>
        <time>2019-07-11T10:27:19Z</time>
      </trkpt>
      <trkpt lat="39.4613850" lon="-8.1993010">
        <ele>158.0</ele>
        <time>2019-07-11T10:27:22Z</time>
      </trkpt>
      <trkpt lat="39.4614500" lon="-8.1993240">
        <ele>157.8</ele>
        <time>2019-07-11T10:27:24Z</time>
      </trkpt>
      <trkpt lat="39.4615850" lon="-8.1993580">
        <ele>157.2</ele>
        <time>2019-07-11T10:27:28Z</time>
      </trkpt>
      <trkpt lat="39.4616370" lon="-8.1993950">
        <ele>156.2</ele>
        <time>2019-07-11T10:27:30Z</time>
      </trkpt>
      <trkpt lat="39.4616640" lon="-8.1994040">
        <ele>155.8</ele>
        <time>2019-07-11T10:27:31Z</time>
      </trkpt>
      <trkpt lat="39.4617820" lon="-8.1994060">
        <ele>155.2</ele>
        <time>2019-07-11T10:27:36Z</time>
      </trkpt>
      <trkpt lat="39.4618340" lon="-8.1994340">
        <ele>155.0</ele>
        <time>2019-07-11T10:27:38Z</time>
      </trkpt>
      <trkpt lat="39.4618600" lon="-8.1994790">
        <ele>155.0</ele>
        <time>2019-07-11T10:27:40Z</time>
      </trkpt>
      <trkpt lat="39.4618480" lon="-8.1995680">
        <ele>154.2</ele>
        <time>2019-07-11T10:27:43Z</time>
      </trkpt>
      <trkpt lat="39.4618290" lon="-8.1996530">
        <ele>154.0</ele>
        <time>2019-07-11T10:27:44Z</time>
      </trkpt>
      <trkpt lat="39.4618180" lon="-8.1996930">
        <ele>153.8</ele>
        <time>2019-07-11T10:27:45Z</time>
      </trkpt>
      <trkpt lat="39.4617530" lon="-8.1999660">
        <ele>152.6</ele>
        <time>2019-07-11T10:27:49Z</time>
      </trkpt>
      <trkpt lat="39.4617500" lon="-8.2002200">
        <ele>151.8</ele>
        <time>2019-07-11T10:27:52Z</time>
      </trkpt>
      <trkpt lat="39.4617620" lon="-8.2003120">
        <ele>151.4</ele>
        <time>2019-07-11T10:27:53Z</time>
      </trkpt>
      <trkpt lat="39.4617790" lon="-8.2004950">
        <ele>150.4</ele>
        <time>2019-07-11T10:27:55Z</time>
      </trkpt>
      <trkpt lat="39.4617790" lon="-8.2007230">
        <ele>150.2</ele>
        <time>2019-07-11T10:27:58Z</time>
      </trkpt>
      <trkpt lat="39.4617180" lon="-8.2009220">
        <ele>150.4</ele>
        <time>2019-07-11T10:28:02Z</time>
      </trkpt>
      <trkpt lat="39.4616960" lon="-8.2009560">
        <ele>150.8</ele>
        <time>2019-07-11T10:28:03Z</time>
      </trkpt>
      <trkpt lat="39.4616730" lon="-8.2009890">
        <ele>151.0</ele>
        <time>2019-07-11T10:28:04Z</time>
      </trkpt>
      <trkpt lat="39.4616310" lon="-8.2010450">
        <ele>151.6</ele>
        <time>2019-07-11T10:28:06Z</time>
      </trkpt>
      <trkpt lat="39.4616060" lon="-8.2010700">
        <ele>151.8</ele>
        <time>2019-07-11T10:28:07Z</time>
      </trkpt>
      <trkpt lat="39.4615810" lon="-8.2010950">
        <ele>152.0</ele>
        <time>2019-07-11T10:28:08Z</time>
      </trkpt>
      <trkpt lat="39.4615810" lon="-8.2010950">
        <ele>152.2</ele>
        <time>2019-07-11T10:28:09Z</time>
      </trkpt>
      <trkpt lat="39.4615060" lon="-8.2011890">
        <ele>152.8</ele>
        <time>2019-07-11T10:28:12Z</time>
      </trkpt>
      <trkpt lat="39.4615060" lon="-8.2011890">
        <ele>153.0</ele>
        <time>2019-07-11T10:28:13Z</time>
      </trkpt>
      <trkpt lat="39.4614690" lon="-8.2012350">
        <ele>153.2</ele>
        <time>2019-07-11T10:28:15Z</time>
      </trkpt>
      <trkpt lat="39.4614140" lon="-8.2013460">
        <ele>153.8</ele>
        <time>2019-07-11T10:28:19Z</time>
      </trkpt>
      <trkpt lat="39.4613970" lon="-8.2014170">
        <ele>154.2</ele>
        <time>2019-07-11T10:28:20Z</time>
      </trkpt>
      <trkpt lat="39.4613870" lon="-8.2014900">
        <ele>154.6</ele>
        <time>2019-07-11T10:28:22Z</time>
      </trkpt>
      <trkpt lat="39.4613810" lon="-8.2015600">
        <ele>155.0</ele>
        <time>2019-07-11T10:28:24Z</time>
      </trkpt>
      <trkpt lat="39.4613810" lon="-8.2015600">
        <ele>155.2</ele>
        <time>2019-07-11T10:28:25Z</time>
      </trkpt>
      <trkpt lat="39.4613930" lon="-8.2016950">
        <ele>156.0</ele>
        <time>2019-07-11T10:28:28Z</time>
      </trkpt>
      <trkpt lat="39.4614010" lon="-8.2017250">
        <ele>156.2</ele>
        <time>2019-07-11T10:28:29Z</time>
      </trkpt>
      <trkpt lat="39.4614120" lon="-8.2017560">
        <ele>156.4</ele>
        <time>2019-07-11T10:28:30Z</time>
      </trkpt>
      <trkpt lat="39.4614370" lon="-8.2018160">
        <ele>157.0</ele>
        <time>2019-07-11T10:28:32Z</time>
      </trkpt>
      <trkpt lat="39.4614810" lon="-8.2019000">
        <ele>157.4</ele>
        <time>2019-07-11T10:28:35Z</time>
      </trkpt>
      <trkpt lat="39.4615380" lon="-8.2019560">
        <ele>158.0</ele>
        <time>2019-07-11T10:28:38Z</time>
      </trkpt>
      <trkpt lat="39.4616000" lon="-8.2020010">
        <ele>158.6</ele>
        <time>2019-07-11T10:28:41Z</time>
      </trkpt>
      <trkpt lat="39.4616660" lon="-8.2020340">
        <ele>159.2</ele>
        <time>2019-07-11T10:28:45Z</time>
      </trkpt>
      <trkpt lat="39.4617330" lon="-8.2020620">
        <ele>159.8</ele>
        <time>2019-07-11T10:28:47Z</time>
      </trkpt>
      <trkpt lat="39.4618440" lon="-8.2021200">
        <ele>161.0</ele>
        <time>2019-07-11T10:28:52Z</time>
      </trkpt>
      <trkpt lat="39.4618870" lon="-8.2021410">
        <ele>162.0</ele>
        <time>2019-07-11T10:28:55Z</time>
      </trkpt>
      <trkpt lat="39.4619310" lon="-8.2021540">
        <ele>162.2</ele>
        <time>2019-07-11T10:28:56Z</time>
      </trkpt>
      <trkpt lat="39.4619980" lon="-8.2022210">
        <ele>163.4</ele>
        <time>2019-07-11T10:29:01Z</time>
      </trkpt>
      <trkpt lat="39.4620360" lon="-8.2022530">
        <ele>163.8</ele>
        <time>2019-07-11T10:29:03Z</time>
      </trkpt>
      <trkpt lat="39.4621050" lon="-8.2023280">
        <ele>164.6</ele>
        <time>2019-07-11T10:29:06Z</time>
      </trkpt>
      <trkpt lat="39.4621640" lon="-8.2024260">
        <ele>165.2</ele>
        <time>2019-07-11T10:29:10Z</time>
      </trkpt>
      <trkpt lat="39.4621720" lon="-8.2024520">
        <ele>165.6</ele>
        <time>2019-07-11T10:29:11Z</time>
      </trkpt>
      <trkpt lat="39.4622380" lon="-8.2025810">
        <ele>166.6</ele>
        <time>2019-07-11T10:29:16Z</time>
      </trkpt>
      <trkpt lat="39.4622470" lon="-8.2027930">
        <ele>167.8</ele>
        <time>2019-07-11T10:29:22Z</time>
      </trkpt>
      <trkpt lat="39.4622390" lon="-8.2029320">
        <ele>168.8</ele>
        <time>2019-07-11T10:29:27Z</time>
      </trkpt>
      <trkpt lat="39.4621920" lon="-8.2030680">
        <ele>169.4</ele>
        <time>2019-07-11T10:29:30Z</time>
      </trkpt>
      <trkpt lat="39.4621640" lon="-8.2031330">
        <ele>170.0</ele>
        <time>2019-07-11T10:29:33Z</time>
      </trkpt>
      <trkpt lat="39.4620370" lon="-8.2033530">
        <ele>171.4</ele>
        <time>2019-07-11T10:29:40Z</time>
      </trkpt>
      <trkpt lat="39.4619710" lon="-8.2034590">
        <ele>172.4</ele>
        <time>2019-07-11T10:29:45Z</time>
      </trkpt>
      <trkpt lat="39.4619090" lon="-8.2035720">
        <ele>173.0</ele>
        <time>2019-07-11T10:29:48Z</time>
      </trkpt>
      <trkpt lat="39.4618800" lon="-8.2036290">
        <ele>173.4</ele>
        <time>2019-07-11T10:29:50Z</time>
      </trkpt>
      <trkpt lat="39.4618190" lon="-8.2037370">
        <ele>174.4</ele>
        <time>2019-07-11T10:29:55Z</time>
      </trkpt>
      <trkpt lat="39.4617880" lon="-8.2037840">
        <ele>175.0</ele>
        <time>2019-07-11T10:29:57Z</time>
      </trkpt>
      <trkpt lat="39.4617210" lon="-8.2038980">
        <ele>175.6</ele>
        <time>2019-07-11T10:30:00Z</time>
      </trkpt>
      <trkpt lat="39.4616280" lon="-8.2040620">
        <ele>176.4</ele>
        <time>2019-07-11T10:30:05Z</time>
      </trkpt>
      <trkpt lat="39.4616100" lon="-8.2040990">
        <ele>176.6</ele>
        <time>2019-07-11T10:30:07Z</time>
      </trkpt>
      <trkpt lat="39.4615180" lon="-8.2044170">
        <ele>177.6</ele>
        <time>2019-07-11T10:30:14Z</time>
      </trkpt>
      <trkpt lat="39.4615290" lon="-8.2045120">
        <ele>177.6</ele>
        <time>2019-07-11T10:30:16Z</time>
      </trkpt>
      <trkpt lat="39.4615500" lon="-8.2046100">
        <ele>177.6</ele>
        <time>2019-07-11T10:30:19Z</time>
      </trkpt>
      <trkpt lat="39.4616250" lon="-8.2048010">
        <ele>177.8</ele>
        <time>2019-07-11T10:30:22Z</time>
      </trkpt>
      <trkpt lat="39.4616870" lon="-8.2048840">
        <ele>177.8</ele>
        <time>2019-07-11T10:30:24Z</time>
      </trkpt>
      <trkpt lat="39.4617580" lon="-8.2049590">
        <ele>177.8</ele>
        <time>2019-07-11T10:30:26Z</time>
      </trkpt>
      <trkpt lat="39.4618330" lon="-8.2050270">
        <ele>177.8</ele>
        <time>2019-07-11T10:30:28Z</time>
      </trkpt>
      <trkpt lat="39.4619040" lon="-8.2050990">
        <ele>177.8</ele>
        <time>2019-07-11T10:30:30Z</time>
      </trkpt>
      <trkpt lat="39.4619040" lon="-8.2050990">
        <ele>177.8</ele>
        <time>2019-07-11T10:30:31Z</time>
      </trkpt>
      <trkpt lat="39.4621220" lon="-8.2053120">
        <ele>177.6</ele>
        <time>2019-07-11T10:30:36Z</time>
      </trkpt>
      <trkpt lat="39.4621960" lon="-8.2053870">
        <ele>177.4</ele>
        <time>2019-07-11T10:30:38Z</time>
      </trkpt>
      <trkpt lat="39.4623110" lon="-8.2055020">
        <ele>177.6</ele>
        <time>2019-07-11T10:30:41Z</time>
      </trkpt>
      <trkpt lat="39.4623470" lon="-8.2055430">
        <ele>177.6</ele>
        <time>2019-07-11T10:30:43Z</time>
      </trkpt>
      <trkpt lat="39.4624220" lon="-8.2056170">
        <ele>177.4</ele>
        <time>2019-07-11T10:30:44Z</time>
      </trkpt>
      <trkpt lat="39.4624970" lon="-8.2056820">
        <ele>177.4</ele>
        <time>2019-07-11T10:30:46Z</time>
      </trkpt>
      <trkpt lat="39.4627110" lon="-8.2057660">
        <ele>177.6</ele>
        <time>2019-07-11T10:30:51Z</time>
      </trkpt>
      <trkpt lat="39.4628070" lon="-8.2058760">
        <ele>177.8</ele>
        <time>2019-07-11T10:30:55Z</time>
      </trkpt>
      <trkpt lat="39.4628320" lon="-8.2059970">
        <ele>177.6</ele>
        <time>2019-07-11T10:30:56Z</time>
      </trkpt>
      <trkpt lat="39.4628310" lon="-8.2060650">
        <ele>177.4</ele>
        <time>2019-07-11T10:30:57Z</time>
      </trkpt>
      <trkpt lat="39.4628290" lon="-8.2062190">
        <ele>177.4</ele>
        <time>2019-07-11T10:30:59Z</time>
      </trkpt>
      <trkpt lat="39.4628510" lon="-8.2063960">
        <ele>176.8</ele>
        <time>2019-07-11T10:31:01Z</time>
      </trkpt>
      <trkpt lat="39.4628660" lon="-8.2064930">
        <ele>176.4</ele>
        <time>2019-07-11T10:31:02Z</time>
      </trkpt>
      <trkpt lat="39.4629120" lon="-8.2068210">
        <ele>175.0</ele>
        <time>2019-07-11T10:31:05Z</time>
      </trkpt>
      <trkpt lat="39.4629270" lon="-8.2069400">
        <ele>174.6</ele>
        <time>2019-07-11T10:31:06Z</time>
      </trkpt>
      <trkpt lat="39.4629530" lon="-8.2071290">
        <ele>174.0</ele>
        <time>2019-07-11T10:31:07Z</time>
      </trkpt>
      <trkpt lat="39.4629790" lon="-8.2073180">
        <ele>173.0</ele>
        <time>2019-07-11T10:31:09Z</time>
      </trkpt>
      <trkpt lat="39.4630130" lon="-8.2075850">
        <ele>171.6</ele>
        <time>2019-07-11T10:31:11Z</time>
      </trkpt>
      <trkpt lat="39.4630460" lon="-8.2078640">
        <ele>170.4</ele>
        <time>2019-07-11T10:31:13Z</time>
      </trkpt>
      <trkpt lat="39.4630770" lon="-8.2081550">
        <ele>168.4</ele>
        <time>2019-07-11T10:31:15Z</time>
      </trkpt>
      <trkpt lat="39.4631100" lon="-8.2084470">
        <ele>167.0</ele>
        <time>2019-07-11T10:31:17Z</time>
      </trkpt>
      <trkpt lat="39.4631420" lon="-8.2087280">
        <ele>165.6</ele>
        <time>2019-07-11T10:31:19Z</time>
      </trkpt>
      <trkpt lat="39.4631600" lon="-8.2088650">
        <ele>165.0</ele>
        <time>2019-07-11T10:31:20Z</time>
      </trkpt>
      <trkpt lat="39.4631780" lon="-8.2090010">
        <ele>164.6</ele>
        <time>2019-07-11T10:31:21Z</time>
      </trkpt>
      <trkpt lat="39.4632250" lon="-8.2093940">
        <ele>163.4</ele>
        <time>2019-07-11T10:31:24Z</time>
      </trkpt>
      <trkpt lat="39.4632850" lon="-8.2098780">
        <ele>162.6</ele>
        <time>2019-07-11T10:31:28Z</time>
      </trkpt>
      <trkpt lat="39.4633010" lon="-8.2099940">
        <ele>162.4</ele>
        <time>2019-07-11T10:31:29Z</time>
      </trkpt>
      <trkpt lat="39.4634080" lon="-8.2105320">
        <ele>161.6</ele>
        <time>2019-07-11T10:31:34Z</time>
      </trkpt>
      <trkpt lat="39.4634560" lon="-8.2107310">
        <ele>161.6</ele>
        <time>2019-07-11T10:31:36Z</time>
      </trkpt>
      <trkpt lat="39.4635670" lon="-8.2111160">
        <ele>160.4</ele>
        <time>2019-07-11T10:31:40Z</time>
      </trkpt>
      <trkpt lat="39.4636260" lon="-8.2113150">
        <ele>160.0</ele>
        <time>2019-07-11T10:31:42Z</time>
      </trkpt>
      <trkpt lat="39.4636880" lon="-8.2115200">
        <ele>159.4</ele>
        <time>2019-07-11T10:31:44Z</time>
      </trkpt>
      <trkpt lat="39.4638420" lon="-8.2119430">
        <ele>158.2</ele>
        <time>2019-07-11T10:31:48Z</time>
      </trkpt>
      <trkpt lat="39.4639650" lon="-8.2122850">
        <ele>156.8</ele>
        <time>2019-07-11T10:31:51Z</time>
      </trkpt>
      <trkpt lat="39.4641010" lon="-8.2126460">
        <ele>155.0</ele>
        <time>2019-07-11T10:31:54Z</time>
      </trkpt>
      <trkpt lat="39.4641300" lon="-8.2127330">
        <ele>154.4</ele>
        <time>2019-07-11T10:31:55Z</time>
      </trkpt>
      <trkpt lat="39.4641590" lon="-8.2128200">
        <ele>153.6</ele>
        <time>2019-07-11T10:31:56Z</time>
      </trkpt>
      <trkpt lat="39.4642750" lon="-8.2131690">
        <ele>152.4</ele>
        <time>2019-07-11T10:31:58Z</time>
      </trkpt>
      <trkpt lat="39.4643640" lon="-8.2134400">
        <ele>151.0</ele>
        <time>2019-07-11T10:32:00Z</time>
      </trkpt>
      <trkpt lat="39.4644580" lon="-8.2137030">
        <ele>149.6</ele>
        <time>2019-07-11T10:32:02Z</time>
      </trkpt>
      <trkpt lat="39.4645430" lon="-8.2139350">
        <ele>148.6</ele>
        <time>2019-07-11T10:32:04Z</time>
      </trkpt>
      <trkpt lat="39.4646160" lon="-8.2141360">
        <ele>147.6</ele>
        <time>2019-07-11T10:32:06Z</time>
      </trkpt>
      <trkpt lat="39.4646530" lon="-8.2141790">
        <ele>147.2</ele>
        <time>2019-07-11T10:32:07Z</time>
      </trkpt>
      <trkpt lat="39.4646890" lon="-8.2142220">
        <ele>146.8</ele>
        <time>2019-07-11T10:32:08Z</time>
      </trkpt>
      <trkpt lat="39.4648350" lon="-8.2143940">
        <ele>146.0</ele>
        <time>2019-07-11T10:32:10Z</time>
      </trkpt>
      <trkpt lat="39.4650290" lon="-8.2146330">
        <ele>144.8</ele>
        <time>2019-07-11T10:32:14Z</time>
      </trkpt>
      <trkpt lat="39.4649770" lon="-8.2148470">
        <ele>144.6</ele>
        <time>2019-07-11T10:32:17Z</time>
      </trkpt>
      <trkpt lat="39.4649020" lon="-8.2149470">
        <ele>144.8</ele>
        <time>2019-07-11T10:32:19Z</time>
      </trkpt>
      <trkpt lat="39.4648680" lon="-8.2150000">
        <ele>144.8</ele>
        <time>2019-07-11T10:32:20Z</time>
      </trkpt>
      <trkpt lat="39.4648430" lon="-8.2150580">
        <ele>144.8</ele>
        <time>2019-07-11T10:32:21Z</time>
      </trkpt>
      <trkpt lat="39.4648070" lon="-8.2152600">
        <ele>144.6</ele>
        <time>2019-07-11T10:32:24Z</time>
      </trkpt>
      <trkpt lat="39.4648070" lon="-8.2152600">
        <ele>144.6</ele>
        <time>2019-07-11T10:32:25Z</time>
      </trkpt>
      <trkpt lat="39.4647580" lon="-8.2158660">
        <ele>143.8</ele>
        <time>2019-07-11T10:32:32Z</time>
      </trkpt>
      <trkpt lat="39.4647470" lon="-8.2159470">
        <ele>143.8</ele>
        <time>2019-07-11T10:32:33Z</time>
      </trkpt>
      <trkpt lat="39.4647010" lon="-8.2163950">
        <ele>142.8</ele>
        <time>2019-07-11T10:32:38Z</time>
      </trkpt>
      <trkpt lat="39.4646810" lon="-8.2165910">
        <ele>142.2</ele>
        <time>2019-07-11T10:32:40Z</time>
      </trkpt>
      <trkpt lat="39.4646630" lon="-8.2168030">
        <ele>141.6</ele>
        <time>2019-07-11T10:32:42Z</time>
      </trkpt>
      <trkpt lat="39.4646180" lon="-8.2172680">
        <ele>140.2</ele>
        <time>2019-07-11T10:32:46Z</time>
      </trkpt>
      <trkpt lat="39.4645920" lon="-8.2175210">
        <ele>139.0</ele>
        <time>2019-07-11T10:32:48Z</time>
      </trkpt>
      <trkpt lat="39.4645570" lon="-8.2179250">
        <ele>137.6</ele>
        <time>2019-07-11T10:32:51Z</time>
      </trkpt>
      <trkpt lat="39.4645440" lon="-8.2180640">
        <ele>137.2</ele>
        <time>2019-07-11T10:32:52Z</time>
      </trkpt>
      <trkpt lat="39.4645310" lon="-8.2182050">
        <ele>136.6</ele>
        <time>2019-07-11T10:32:53Z</time>
      </trkpt>
      <trkpt lat="39.4645160" lon="-8.2183450">
        <ele>135.2</ele>
        <time>2019-07-11T10:32:55Z</time>
      </trkpt>
      <trkpt lat="39.4644840" lon="-8.2186310">
        <ele>133.8</ele>
        <time>2019-07-11T10:32:57Z</time>
      </trkpt>
      <trkpt lat="39.4644570" lon="-8.2190790">
        <ele>132.4</ele>
        <time>2019-07-11T10:32:59Z</time>
      </trkpt>
      <trkpt lat="39.4644520" lon="-8.2192310">
        <ele>131.2</ele>
        <time>2019-07-11T10:33:01Z</time>
      </trkpt>
      <trkpt lat="39.4644630" lon="-8.2196950">
        <ele>129.4</ele>
        <time>2019-07-11T10:33:03Z</time>
      </trkpt>
      <trkpt lat="39.4644780" lon="-8.2198490">
        <ele>128.8</ele>
        <time>2019-07-11T10:33:04Z</time>
      </trkpt>
      <trkpt lat="39.4644960" lon="-8.2200010">
        <ele>128.2</ele>
        <time>2019-07-11T10:33:05Z</time>
      </trkpt>
      <trkpt lat="39.4645160" lon="-8.2201530">
        <ele>126.8</ele>
        <time>2019-07-11T10:33:06Z</time>
      </trkpt>
      <trkpt lat="39.4645690" lon="-8.2204530">
        <ele>124.8</ele>
        <time>2019-07-11T10:33:08Z</time>
      </trkpt>
      <trkpt lat="39.4646390" lon="-8.2207480">
        <ele>123.6</ele>
        <time>2019-07-11T10:33:10Z</time>
      </trkpt>
      <trkpt lat="39.4646870" lon="-8.2208880">
        <ele>122.2</ele>
        <time>2019-07-11T10:33:11Z</time>
      </trkpt>
      <trkpt lat="39.4647960" lon="-8.2211610">
        <ele>120.6</ele>
        <time>2019-07-11T10:33:13Z</time>
      </trkpt>
      <trkpt lat="39.4649130" lon="-8.2214310">
        <ele>119.0</ele>
        <time>2019-07-11T10:33:15Z</time>
      </trkpt>
      <trkpt lat="39.4650470" lon="-8.2216930">
        <ele>117.4</ele>
        <time>2019-07-11T10:33:17Z</time>
      </trkpt>
      <trkpt lat="39.4652030" lon="-8.2219430">
        <ele>115.8</ele>
        <time>2019-07-11T10:33:19Z</time>
      </trkpt>
      <trkpt lat="39.4653770" lon="-8.2221800">
        <ele>114.4</ele>
        <time>2019-07-11T10:33:21Z</time>
      </trkpt>
      <trkpt lat="39.4655690" lon="-8.2224010">
        <ele>112.8</ele>
        <time>2019-07-11T10:33:23Z</time>
      </trkpt>
      <trkpt lat="39.4656690" lon="-8.2225080">
        <ele>112.0</ele>
        <time>2019-07-11T10:33:24Z</time>
      </trkpt>
      <trkpt lat="39.4657720" lon="-8.2226120">
        <ele>111.2</ele>
        <time>2019-07-11T10:33:25Z</time>
      </trkpt>
      <trkpt lat="39.4659840" lon="-8.2228140">
        <ele>109.6</ele>
        <time>2019-07-11T10:33:27Z</time>
      </trkpt>
      <trkpt lat="39.4661970" lon="-8.2230200">
        <ele>108.0</ele>
        <time>2019-07-11T10:33:29Z</time>
      </trkpt>
      <trkpt lat="39.4663970" lon="-8.2232470">
        <ele>106.6</ele>
        <time>2019-07-11T10:33:31Z</time>
      </trkpt>
      <trkpt lat="39.4664900" lon="-8.2233720">
        <ele>105.2</ele>
        <time>2019-07-11T10:33:33Z</time>
      </trkpt>
      <trkpt lat="39.4666070" lon="-8.2235860">
        <ele>104.4</ele>
        <time>2019-07-11T10:33:34Z</time>
      </trkpt>
      <trkpt lat="39.4667240" lon="-8.2238000">
        <ele>103.0</ele>
        <time>2019-07-11T10:33:35Z</time>
      </trkpt>
      <trkpt lat="39.4667960" lon="-8.2239490">
        <ele>101.8</ele>
        <time>2019-07-11T10:33:36Z</time>
      </trkpt>
      <trkpt lat="39.4669420" lon="-8.2242560">
        <ele>100.2</ele>
        <time>2019-07-11T10:33:38Z</time>
      </trkpt>
      <trkpt lat="39.4670170" lon="-8.2244090">
        <ele>99.2</ele>
        <time>2019-07-11T10:33:39Z</time>
      </trkpt>
      <trkpt lat="39.4670920" lon="-8.2245660">
        <ele>98.0</ele>
        <time>2019-07-11T10:33:40Z</time>
      </trkpt>
      <trkpt lat="39.4671660" lon="-8.2247260">
        <ele>97.0</ele>
        <time>2019-07-11T10:33:41Z</time>
      </trkpt>
      <trkpt lat="39.4672410" lon="-8.2248870">
        <ele>95.8</ele>
        <time>2019-07-11T10:33:42Z</time>
      </trkpt>
      <trkpt lat="39.4673170" lon="-8.2250480">
        <ele>94.4</ele>
        <time>2019-07-11T10:33:43Z</time>
      </trkpt>
      <trkpt lat="39.4674680" lon="-8.2253740">
        <ele>92.4</ele>
        <time>2019-07-11T10:33:45Z</time>
      </trkpt>
      <trkpt lat="39.4675430" lon="-8.2255310">
        <ele>91.2</ele>
        <time>2019-07-11T10:33:46Z</time>
      </trkpt>
      <trkpt lat="39.4676920" lon="-8.2258340">
        <ele>89.2</ele>
        <time>2019-07-11T10:33:48Z</time>
      </trkpt>
      <trkpt lat="39.4677690" lon="-8.2259840">
        <ele>88.4</ele>
        <time>2019-07-11T10:33:49Z</time>
      </trkpt>
      <trkpt lat="39.4678500" lon="-8.2261300">
        <ele>87.2</ele>
        <time>2019-07-11T10:33:50Z</time>
      </trkpt>
      <trkpt lat="39.4680160" lon="-8.2263940">
        <ele>85.0</ele>
        <time>2019-07-11T10:33:52Z</time>
      </trkpt>
      <trkpt lat="39.4680970" lon="-8.2265110">
        <ele>84.0</ele>
        <time>2019-07-11T10:33:53Z</time>
      </trkpt>
      <trkpt lat="39.4681730" lon="-8.2266230">
        <ele>82.8</ele>
        <time>2019-07-11T10:33:54Z</time>
      </trkpt>
      <trkpt lat="39.4683250" lon="-8.2268130">
        <ele>81.0</ele>
        <time>2019-07-11T10:33:56Z</time>
      </trkpt>
      <trkpt lat="39.4683920" lon="-8.2268540">
        <ele>80.0</ele>
        <time>2019-07-11T10:33:57Z</time>
      </trkpt>
      <trkpt lat="39.4684580" lon="-8.2268950">
        <ele>79.0</ele>
        <time>2019-07-11T10:33:58Z</time>
      </trkpt>
      <trkpt lat="39.4685910" lon="-8.2269770">
        <ele>78.6</ele>
        <time>2019-07-11T10:33:59Z</time>
      </trkpt>
      <trkpt lat="39.4686770" lon="-8.2270020">
        <ele>77.8</ele>
        <time>2019-07-11T10:34:00Z</time>
      </trkpt>
      <trkpt lat="39.4687520" lon="-8.2270210">
        <ele>77.4</ele>
        <time>2019-07-11T10:34:01Z</time>
      </trkpt>
      <trkpt lat="39.4688590" lon="-8.2270570">
        <ele>76.6</ele>
        <time>2019-07-11T10:34:03Z</time>
      </trkpt>
      <trkpt lat="39.4689320" lon="-8.2271250">
        <ele>76.4</ele>
        <time>2019-07-11T10:34:05Z</time>
      </trkpt>
      <trkpt lat="39.4689570" lon="-8.2271740">
        <ele>76.2</ele>
        <time>2019-07-11T10:34:06Z</time>
      </trkpt>
      <trkpt lat="39.4689840" lon="-8.2272830">
        <ele>76.0</ele>
        <time>2019-07-11T10:34:08Z</time>
      </trkpt>
      <trkpt lat="39.4689940" lon="-8.2273400">
        <ele>76.2</ele>
        <time>2019-07-11T10:34:09Z</time>
      </trkpt>
      <trkpt lat="39.4690220" lon="-8.2274620">
        <ele>76.2</ele>
        <time>2019-07-11T10:34:11Z</time>
      </trkpt>
      <trkpt lat="39.4691670" lon="-8.2278710">
        <ele>75.8</ele>
        <time>2019-07-11T10:34:17Z</time>
      </trkpt>
      <trkpt lat="39.4692620" lon="-8.2280890">
        <ele>75.2</ele>
        <time>2019-07-11T10:34:20Z</time>
      </trkpt>
      <trkpt lat="39.4693980" lon="-8.2283750">
        <ele>74.6</ele>
        <time>2019-07-11T10:34:24Z</time>
      </trkpt>
      <trkpt lat="39.4694310" lon="-8.2284450">
        <ele>74.6</ele>
        <time>2019-07-11T10:34:25Z</time>
      </trkpt>
      <trkpt lat="39.4696590" lon="-8.2288030">
        <ele>74.2</ele>
        <time>2019-07-11T10:34:31Z</time>
      </trkpt>
      <trkpt lat="39.4697040" lon="-8.2288560">
        <ele>74.0</ele>
        <time>2019-07-11T10:34:32Z</time>
      </trkpt>
      <trkpt lat="39.4699190" lon="-8.2290320">
        <ele>73.8</ele>
        <time>2019-07-11T10:34:36Z</time>
      </trkpt>
      <trkpt lat="39.4701010" lon="-8.2291380">
        <ele>73.8</ele>
        <time>2019-07-11T10:34:39Z</time>
      </trkpt>
      <trkpt lat="39.4704060" lon="-8.2292980">
        <ele>73.8</ele>
        <time>2019-07-11T10:34:44Z</time>
      </trkpt>
      <trkpt lat="39.4707760" lon="-8.2294800">
        <ele>74.4</ele>
        <time>2019-07-11T10:34:51Z</time>
      </trkpt>
      <trkpt lat="39.4709370" lon="-8.2295470">
        <ele>75.2</ele>
        <time>2019-07-11T10:34:55Z</time>
      </trkpt>
      <trkpt lat="39.4709720" lon="-8.2295630">
        <ele>75.6</ele>
        <time>2019-07-11T10:34:56Z</time>
      </trkpt>
      <trkpt lat="39.4709720" lon="-8.2295630">
        <ele>75.8</ele>
        <time>2019-07-11T10:34:57Z</time>
      </trkpt>
      <trkpt lat="39.4710980" lon="-8.2296200">
        <ele>76.6</ele>
        <time>2019-07-11T10:35:00Z</time>
      </trkpt>
      <trkpt lat="39.4712120" lon="-8.2296750">
        <ele>77.6</ele>
        <time>2019-07-11T10:35:04Z</time>
      </trkpt>
      <trkpt lat="39.4712380" lon="-8.2296870">
        <ele>77.6</ele>
        <time>2019-07-11T10:35:05Z</time>
      </trkpt>
      <trkpt lat="39.4713380" lon="-8.2297450">
        <ele>78.4</ele>
        <time>2019-07-11T10:35:09Z</time>
      </trkpt>
      <trkpt lat="39.4713830" lon="-8.2297820">
        <ele>78.8</ele>
        <time>2019-07-11T10:35:11Z</time>
      </trkpt>
      <trkpt lat="39.4714040" lon="-8.2298020">
        <ele>79.2</ele>
        <time>2019-07-11T10:35:12Z</time>
      </trkpt>
      <trkpt lat="39.4714670" lon="-8.2298730">
        <ele>80.0</ele>
        <time>2019-07-11T10:35:15Z</time>
      </trkpt>
      <trkpt lat="39.4715740" lon="-8.2300100">
        <ele>80.8</ele>
        <time>2019-07-11T10:35:20Z</time>
      </trkpt>
      <trkpt lat="39.4716150" lon="-8.2300770">
        <ele>81.0</ele>
        <time>2019-07-11T10:35:22Z</time>
      </trkpt>
      <trkpt lat="39.4717210" lon="-8.2302370">
        <ele>81.6</ele>
        <time>2019-07-11T10:35:27Z</time>
      </trkpt>
      <trkpt lat="39.4717830" lon="-8.2303190">
        <ele>82.2</ele>
        <time>2019-07-11T10:35:30Z</time>
      </trkpt>
      <trkpt lat="39.4718680" lon="-8.2304230">
        <ele>82.8</ele>
        <time>2019-07-11T10:35:34Z</time>
      </trkpt>
      <trkpt lat="39.4719110" lon="-8.2304760">
        <ele>83.4</ele>
        <time>2019-07-11T10:35:36Z</time>
      </trkpt>
      <trkpt lat="39.4720450" lon="-8.2306150">
        <ele>84.4</ele>
        <time>2019-07-11T10:35:42Z</time>
      </trkpt>
      <trkpt lat="39.4721550" lon="-8.2307260">
        <ele>85.4</ele>
        <time>2019-07-11T10:35:47Z</time>
      </trkpt>
      <trkpt lat="39.4722220" lon="-8.2307920">
        <ele>86.0</ele>
        <time>2019-07-11T10:35:50Z</time>
      </trkpt>
      <trkpt lat="39.4722700" lon="-8.2308330">
        <ele>86.6</ele>
        <time>2019-07-11T10:35:52Z</time>
      </trkpt>
      <trkpt lat="39.4723860" lon="-8.2309370">
        <ele>87.6</ele>
        <time>2019-07-11T10:35:57Z</time>
      </trkpt>
      <trkpt lat="39.4724100" lon="-8.2309550">
        <ele>87.8</ele>
        <time>2019-07-11T10:35:58Z</time>
      </trkpt>
      <trkpt lat="39.4725100" lon="-8.2310300">
        <ele>88.8</ele>
        <time>2019-07-11T10:36:02Z</time>
      </trkpt>
      <trkpt lat="39.4726000" lon="-8.2311160">
        <ele>89.8</ele>
        <time>2019-07-11T10:36:06Z</time>
      </trkpt>
      <trkpt lat="39.4726220" lon="-8.2311360">
        <ele>90.0</ele>
        <time>2019-07-11T10:36:07Z</time>
      </trkpt>
      <trkpt lat="39.4727490" lon="-8.2312620">
        <ele>91.0</ele>
        <time>2019-07-11T10:36:13Z</time>
      </trkpt>
      <trkpt lat="39.4727930" lon="-8.2312950">
        <ele>91.6</ele>
        <time>2019-07-11T10:36:15Z</time>
      </trkpt>
      <trkpt lat="39.4728860" lon="-8.2313530">
        <ele>92.0</ele>
        <time>2019-07-11T10:36:19Z</time>
      </trkpt>
      <trkpt lat="39.4729810" lon="-8.2314120">
        <ele>93.0</ele>
        <time>2019-07-11T10:36:23Z</time>
      </trkpt>
      <trkpt lat="39.4730030" lon="-8.2314290">
        <ele>93.2</ele>
        <time>2019-07-11T10:36:24Z</time>
      </trkpt>
      <trkpt lat="39.4731450" lon="-8.2315250">
        <ele>94.4</ele>
        <time>2019-07-11T10:36:30Z</time>
      </trkpt>
      <trkpt lat="39.4731680" lon="-8.2315410">
        <ele>94.6</ele>
        <time>2019-07-11T10:36:31Z</time>
      </trkpt>
      <trkpt lat="39.4732750" lon="-8.2316150">
        <ele>95.6</ele>
        <time>2019-07-11T10:36:36Z</time>
      </trkpt>
      <trkpt lat="39.4733170" lon="-8.2316440">
        <ele>96.0</ele>
        <time>2019-07-11T10:36:38Z</time>
      </trkpt>
      <trkpt lat="39.4734080" lon="-8.2317070">
        <ele>96.8</ele>
        <time>2019-07-11T10:36:42Z</time>
      </trkpt>
      <trkpt lat="39.4734950" lon="-8.2317770">
        <ele>97.8</ele>
        <time>2019-07-11T10:36:46Z</time>
      </trkpt>
      <trkpt lat="39.4736110" lon="-8.2318760">
        <ele>99.2</ele>
        <time>2019-07-11T10:36:52Z</time>
      </trkpt>
      <trkpt lat="39.4737070" lon="-8.2319840">
        <ele>100.4</ele>
        <time>2019-07-11T10:36:57Z</time>
      </trkpt>
      <trkpt lat="39.4737300" lon="-8.2320040">
        <ele>100.6</ele>
        <time>2019-07-11T10:36:58Z</time>
      </trkpt>
      <trkpt lat="39.4737970" lon="-8.2320710">
        <ele>101.4</ele>
        <time>2019-07-11T10:37:01Z</time>
      </trkpt>
      <trkpt lat="39.4738140" lon="-8.2320990">
        <ele>101.8</ele>
        <time>2019-07-11T10:37:03Z</time>
      </trkpt>
      <trkpt lat="39.4738780" lon="-8.2322140">
        <ele>102.4</ele>
        <time>2019-07-11T10:37:06Z</time>
      </trkpt>
      <trkpt lat="39.4739780" lon="-8.2323940">
        <ele>103.4</ele>
        <time>2019-07-11T10:37:12Z</time>
      </trkpt>
      <trkpt lat="39.4740850" lon="-8.2326210">
        <ele>104.6</ele>
        <time>2019-07-11T10:37:19Z</time>
      </trkpt>
      <trkpt lat="39.4741860" lon="-8.2328330">
        <ele>105.6</ele>
        <time>2019-07-11T10:37:25Z</time>
      </trkpt>
      <trkpt lat="39.4742260" lon="-8.2329100">
        <ele>105.8</ele>
        <time>2019-07-11T10:37:27Z</time>
      </trkpt>
      <trkpt lat="39.4743270" lon="-8.2331270">
        <ele>105.6</ele>
        <time>2019-07-11T10:37:32Z</time>
      </trkpt>
      <trkpt lat="39.4743750" lon="-8.2332240">
        <ele>105.4</ele>
        <time>2019-07-11T10:37:34Z</time>
      </trkpt>
      <trkpt lat="39.4744820" lon="-8.2334650">
        <ele>104.6</ele>
        <time>2019-07-11T10:37:38Z</time>
      </trkpt>
      <trkpt lat="39.4745090" lon="-8.2335390">
        <ele>104.2</ele>
        <time>2019-07-11T10:37:39Z</time>
      </trkpt>
      <trkpt lat="39.4745780" lon="-8.2338030">
        <ele>103.2</ele>
        <time>2019-07-11T10:37:42Z</time>
      </trkpt>
      <trkpt lat="39.4746220" lon="-8.2340020">
        <ele>102.4</ele>
        <time>2019-07-11T10:37:44Z</time>
      </trkpt>
      <trkpt lat="39.4746400" lon="-8.2341090">
        <ele>102.0</ele>
        <time>2019-07-11T10:37:45Z</time>
      </trkpt>
      <trkpt lat="39.4746710" lon="-8.2343350">
        <ele>100.8</ele>
        <time>2019-07-11T10:37:47Z</time>
      </trkpt>
      <trkpt lat="39.4746690" lon="-8.2345780">
        <ele>99.8</ele>
        <time>2019-07-11T10:37:49Z</time>
      </trkpt>
      <trkpt lat="39.4746560" lon="-8.2347010">
        <ele>99.0</ele>
        <time>2019-07-11T10:37:50Z</time>
      </trkpt>
      <trkpt lat="39.4746100" lon="-8.2349510">
        <ele>98.0</ele>
        <time>2019-07-11T10:37:52Z</time>
      </trkpt>
      <trkpt lat="39.4745790" lon="-8.2350780">
        <ele>97.6</ele>
        <time>2019-07-11T10:37:53Z</time>
      </trkpt>
      <trkpt lat="39.4745080" lon="-8.2353320">
        <ele>96.0</ele>
        <time>2019-07-11T10:37:55Z</time>
      </trkpt>
      <trkpt lat="39.4744430" lon="-8.2355960">
        <ele>94.4</ele>
        <time>2019-07-11T10:37:57Z</time>
      </trkpt>
      <trkpt lat="39.4743980" lon="-8.2358730">
        <ele>93.0</ele>
        <time>2019-07-11T10:37:59Z</time>
      </trkpt>
      <trkpt lat="39.4743840" lon="-8.2360140">
        <ele>91.6</ele>
        <time>2019-07-11T10:38:00Z</time>
      </trkpt>
      <trkpt lat="39.4743480" lon="-8.2362990">
        <ele>90.2</ele>
        <time>2019-07-11T10:38:02Z</time>
      </trkpt>
      <trkpt lat="39.4742660" lon="-8.2365750">
        <ele>88.4</ele>
        <time>2019-07-11T10:38:04Z</time>
      </trkpt>
      <trkpt lat="39.4741500" lon="-8.2368090">
        <ele>86.4</ele>
        <time>2019-07-11T10:38:06Z</time>
      </trkpt>
      <trkpt lat="39.4740880" lon="-8.2369140">
        <ele>85.4</ele>
        <time>2019-07-11T10:38:07Z</time>
      </trkpt>
      <trkpt lat="39.4740260" lon="-8.2370230">
        <ele>84.4</ele>
        <time>2019-07-11T10:38:08Z</time>
      </trkpt>
      <trkpt lat="39.4739720" lon="-8.2371390">
        <ele>83.4</ele>
        <time>2019-07-11T10:38:09Z</time>
      </trkpt>
      <trkpt lat="39.4738960" lon="-8.2374070">
        <ele>81.8</ele>
        <time>2019-07-11T10:38:11Z</time>
      </trkpt>
      <trkpt lat="39.4738670" lon="-8.2377020">
        <ele>80.0</ele>
        <time>2019-07-11T10:38:13Z</time>
      </trkpt>
      <trkpt lat="39.4738680" lon="-8.2378530">
        <ele>79.0</ele>
        <time>2019-07-11T10:38:14Z</time>
      </trkpt>
      <trkpt lat="39.4738780" lon="-8.2380040">
        <ele>78.0</ele>
        <time>2019-07-11T10:38:15Z</time>
      </trkpt>
      <trkpt lat="39.4738980" lon="-8.2381560">
        <ele>76.8</ele>
        <time>2019-07-11T10:38:16Z</time>
      </trkpt>
      <trkpt lat="39.4739240" lon="-8.2383060">
        <ele>76.0</ele>
        <time>2019-07-11T10:38:17Z</time>
      </trkpt>
      <trkpt lat="39.4739550" lon="-8.2384560">
        <ele>75.4</ele>
        <time>2019-07-11T10:38:18Z</time>
      </trkpt>
      <trkpt lat="39.4740190" lon="-8.2387600">
        <ele>74.0</ele>
        <time>2019-07-11T10:38:20Z</time>
      </trkpt>
      <trkpt lat="39.4740530" lon="-8.2389130">
        <ele>72.8</ele>
        <time>2019-07-11T10:38:21Z</time>
      </trkpt>
      <trkpt lat="39.4741480" lon="-8.2392140">
        <ele>71.2</ele>
        <time>2019-07-11T10:38:23Z</time>
      </trkpt>
      <trkpt lat="39.4742100" lon="-8.2393590">
        <ele>69.6</ele>
        <time>2019-07-11T10:38:24Z</time>
      </trkpt>
      <trkpt lat="39.4742780" lon="-8.2395010">
        <ele>68.4</ele>
        <time>2019-07-11T10:38:25Z</time>
      </trkpt>
      <trkpt lat="39.4744250" lon="-8.2397770">
        <ele>66.4</ele>
        <time>2019-07-11T10:38:27Z</time>
      </trkpt>
      <trkpt lat="39.4744950" lon="-8.2399200">
        <ele>65.4</ele>
        <time>2019-07-11T10:38:28Z</time>
      </trkpt>
      <trkpt lat="39.4745670" lon="-8.2400600">
        <ele>64.2</ele>
        <time>2019-07-11T10:38:29Z</time>
      </trkpt>
      <trkpt lat="39.4746390" lon="-8.2401970">
        <ele>63.2</ele>
        <time>2019-07-11T10:38:30Z</time>
      </trkpt>
      <trkpt lat="39.4747820" lon="-8.2404690">
        <ele>61.2</ele>
        <time>2019-07-11T10:38:32Z</time>
      </trkpt>
      <trkpt lat="39.4749280" lon="-8.2407280">
        <ele>59.6</ele>
        <time>2019-07-11T10:38:34Z</time>
      </trkpt>
      <trkpt lat="39.4749980" lon="-8.2408590">
        <ele>59.0</ele>
        <time>2019-07-11T10:38:35Z</time>
      </trkpt>
      <trkpt lat="39.4750650" lon="-8.2409860">
        <ele>58.2</ele>
        <time>2019-07-11T10:38:36Z</time>
      </trkpt>
      <trkpt lat="39.4751960" lon="-8.2412190">
        <ele>56.8</ele>
        <time>2019-07-11T10:38:38Z</time>
      </trkpt>
      <trkpt lat="39.4752560" lon="-8.2413320">
        <ele>56.4</ele>
        <time>2019-07-11T10:38:39Z</time>
      </trkpt>
      <trkpt lat="39.4753980" lon="-8.2416830">
        <ele>56.0</ele>
        <time>2019-07-11T10:38:42Z</time>
      </trkpt>
      <trkpt lat="39.4754250" lon="-8.2418070">
        <ele>55.8</ele>
        <time>2019-07-11T10:38:43Z</time>
      </trkpt>
      <trkpt lat="39.4754580" lon="-8.2422940">
        <ele>55.0</ele>
        <time>2019-07-11T10:38:47Z</time>
      </trkpt>
      <trkpt lat="39.4754580" lon="-8.2424120">
        <ele>54.8</ele>
        <time>2019-07-11T10:38:48Z</time>
      </trkpt>
      <trkpt lat="39.4754510" lon="-8.2426390">
        <ele>54.4</ele>
        <time>2019-07-11T10:38:50Z</time>
      </trkpt>
      <trkpt lat="39.4754250" lon="-8.2429460">
        <ele>53.8</ele>
        <time>2019-07-11T10:38:53Z</time>
      </trkpt>
      <trkpt lat="39.4754060" lon="-8.2431300">
        <ele>53.8</ele>
        <time>2019-07-11T10:38:55Z</time>
      </trkpt>
      <trkpt lat="39.4753680" lon="-8.2434530">
        <ele>53.6</ele>
        <time>2019-07-11T10:38:59Z</time>
      </trkpt>
      <trkpt lat="39.4753020" lon="-8.2439480">
        <ele>53.2</ele>
        <time>2019-07-11T10:39:06Z</time>
      </trkpt>
      <trkpt lat="39.4753070" lon="-8.2441400">
        <ele>52.8</ele>
        <time>2019-07-11T10:39:09Z</time>
      </trkpt>
      <trkpt lat="39.4753250" lon="-8.2442530">
        <ele>52.8</ele>
        <time>2019-07-11T10:39:11Z</time>
      </trkpt>
      <trkpt lat="39.4754130" lon="-8.2444400">
        <ele>52.4</ele>
        <time>2019-07-11T10:39:15Z</time>
      </trkpt>
      <trkpt lat="39.4754390" lon="-8.2444810">
        <ele>52.6</ele>
        <time>2019-07-11T10:39:16Z</time>
      </trkpt>
      <trkpt lat="39.4756420" lon="-8.2447620">
        <ele>52.8</ele>
        <time>2019-07-11T10:39:23Z</time>
      </trkpt>
      <trkpt lat="39.4757620" lon="-8.2449120">
        <ele>53.2</ele>
        <time>2019-07-11T10:39:27Z</time>
      </trkpt>
      <trkpt lat="39.4758600" lon="-8.2450340">
        <ele>53.0</ele>
        <time>2019-07-11T10:39:30Z</time>
      </trkpt>
      <trkpt lat="39.4758960" lon="-8.2450720">
        <ele>53.0</ele>
        <time>2019-07-11T10:39:31Z</time>
      </trkpt>
      <trkpt lat="39.4760560" lon="-8.2452140">
        <ele>53.2</ele>
        <time>2019-07-11T10:39:35Z</time>
      </trkpt>
      <trkpt lat="39.4763930" lon="-8.2455000">
        <ele>53.0</ele>
        <time>2019-07-11T10:39:43Z</time>
      </trkpt>
      <trkpt lat="39.4767530" lon="-8.2457380">
        <ele>53.2</ele>
        <time>2019-07-11T10:39:51Z</time>
      </trkpt>
      <trkpt lat="39.4771520" lon="-8.2459850">
        <ele>53.4</ele>
        <time>2019-07-11T10:40:00Z</time>
      </trkpt>
      <trkpt lat="39.4774700" lon="-8.2461950">
        <ele>53.8</ele>
        <time>2019-07-11T10:40:07Z</time>
      </trkpt>
      <trkpt lat="39.4777880" lon="-8.2464300">
        <ele>53.8</ele>
        <time>2019-07-11T10:40:14Z</time>
      </trkpt>
      <trkpt lat="39.4778290" lon="-8.2464730">
        <ele>53.8</ele>
        <time>2019-07-11T10:40:15Z</time>
      </trkpt>
      <trkpt lat="39.4779920" lon="-8.2466480">
        <ele>53.8</ele>
        <time>2019-07-11T10:40:19Z</time>
      </trkpt>
      <trkpt lat="39.4782810" lon="-8.2469320">
        <ele>54.0</ele>
        <time>2019-07-11T10:40:26Z</time>
      </trkpt>
      <trkpt lat="39.4784060" lon="-8.2470540">
        <ele>54.2</ele>
        <time>2019-07-11T10:40:29Z</time>
      </trkpt>
      <trkpt lat="39.4786150" lon="-8.2472480">
        <ele>55.0</ele>
        <time>2019-07-11T10:40:34Z</time>
      </trkpt>
      <trkpt lat="39.4787390" lon="-8.2473520">
        <ele>55.4</ele>
        <time>2019-07-11T10:40:37Z</time>
      </trkpt>
      <trkpt lat="39.4789760" lon="-8.2475540">
        <ele>56.0</ele>
        <time>2019-07-11T10:40:43Z</time>
      </trkpt>
      <trkpt lat="39.4790920" lon="-8.2476550">
        <ele>56.6</ele>
        <time>2019-07-11T10:40:46Z</time>
      </trkpt>
      <trkpt lat="39.4792870" lon="-8.2478140">
        <ele>56.2</ele>
        <time>2019-07-11T10:40:51Z</time>
      </trkpt>
      <trkpt lat="39.4795930" lon="-8.2480850">
        <ele>57.0</ele>
        <time>2019-07-11T10:40:59Z</time>
      </trkpt>
      <trkpt lat="39.4798100" lon="-8.2482740">
        <ele>57.6</ele>
        <time>2019-07-11T10:41:05Z</time>
      </trkpt>
      <trkpt lat="39.4799540" lon="-8.2484050">
        <ele>58.4</ele>
        <time>2019-07-11T10:41:09Z</time>
      </trkpt>
      <trkpt lat="39.4800260" lon="-8.2484710">
        <ele>58.6</ele>
        <time>2019-07-11T10:41:11Z</time>
      </trkpt>
      <trkpt lat="39.4800980" lon="-8.2485350">
        <ele>58.8</ele>
        <time>2019-07-11T10:41:13Z</time>
      </trkpt>
      <trkpt lat="39.4803550" lon="-8.2487640">
        <ele>59.6</ele>
        <time>2019-07-11T10:41:20Z</time>
      </trkpt>
      <trkpt lat="39.4803920" lon="-8.2487980">
        <ele>59.6</ele>
        <time>2019-07-11T10:41:21Z</time>
      </trkpt>
      <trkpt lat="39.4806900" lon="-8.2490740">
        <ele>60.0</ele>
        <time>2019-07-11T10:41:29Z</time>
      </trkpt>
      <trkpt lat="39.4809330" lon="-8.2493700">
        <ele>60.6</ele>
        <time>2019-07-11T10:41:36Z</time>
      </trkpt>
      <trkpt lat="39.4809690" lon="-8.2494160">
        <ele>60.6</ele>
        <time>2019-07-11T10:41:37Z</time>
      </trkpt>
      <trkpt lat="39.4810050" lon="-8.2494620">
        <ele>60.6</ele>
        <time>2019-07-11T10:41:38Z</time>
      </trkpt>
      <trkpt lat="39.4811890" lon="-8.2496910">
        <ele>60.4</ele>
        <time>2019-07-11T10:41:43Z</time>
      </trkpt>
      <trkpt lat="39.4813400" lon="-8.2498830">
        <ele>60.4</ele>
        <time>2019-07-11T10:41:47Z</time>
      </trkpt>
      <trkpt lat="39.4815150" lon="-8.2501370">
        <ele>60.2</ele>
        <time>2019-07-11T10:41:52Z</time>
      </trkpt>
      <trkpt lat="39.4816250" lon="-8.2502820">
        <ele>59.8</ele>
        <time>2019-07-11T10:41:55Z</time>
      </trkpt>
      <trkpt lat="39.4819390" lon="-8.2506830">
        <ele>59.6</ele>
        <time>2019-07-11T10:42:03Z</time>
      </trkpt>
      <trkpt lat="39.4820680" lon="-8.2508320">
        <ele>59.2</ele>
        <time>2019-07-11T10:42:06Z</time>
      </trkpt>
      <trkpt lat="39.4823830" lon="-8.2511900">
        <ele>59.2</ele>
        <time>2019-07-11T10:42:13Z</time>
      </trkpt>
      <trkpt lat="39.4827580" lon="-8.2517040">
        <ele>58.8</ele>
        <time>2019-07-11T10:42:22Z</time>
      </trkpt>
      <trkpt lat="39.4827890" lon="-8.2517710">
        <ele>58.6</ele>
        <time>2019-07-11T10:42:23Z</time>
      </trkpt>
      <trkpt lat="39.4828370" lon="-8.2519120">
        <ele>58.6</ele>
        <time>2019-07-11T10:42:25Z</time>
      </trkpt>
      <trkpt lat="39.4828780" lon="-8.2520510">
        <ele>58.6</ele>
        <time>2019-07-11T10:42:27Z</time>
      </trkpt>
      <trkpt lat="39.4829110" lon="-8.2521880">
        <ele>58.6</ele>
        <time>2019-07-11T10:42:29Z</time>
      </trkpt>
      <trkpt lat="39.4829230" lon="-8.2522580">
        <ele>58.6</ele>
        <time>2019-07-11T10:42:30Z</time>
      </trkpt>
      <trkpt lat="39.4829610" lon="-8.2525450">
        <ele>58.2</ele>
        <time>2019-07-11T10:42:34Z</time>
      </trkpt>
      <trkpt lat="39.4829950" lon="-8.2527630">
        <ele>57.8</ele>
        <time>2019-07-11T10:42:37Z</time>
      </trkpt>
      <trkpt lat="39.4831000" lon="-8.2534550">
        <ele>57.8</ele>
        <time>2019-07-11T10:42:47Z</time>
      </trkpt>
      <trkpt lat="39.4831110" lon="-8.2535220">
        <ele>57.6</ele>
        <time>2019-07-11T10:42:48Z</time>
      </trkpt>
      <trkpt lat="39.4831990" lon="-8.2541180">
        <ele>57.8</ele>
        <time>2019-07-11T10:42:57Z</time>
      </trkpt>
      <trkpt lat="39.4833010" lon="-8.2546500">
        <ele>58.2</ele>
        <time>2019-07-11T10:43:05Z</time>
      </trkpt>
      <trkpt lat="39.4835050" lon="-8.2552490">
        <ele>58.2</ele>
        <time>2019-07-11T10:43:14Z</time>
      </trkpt>
      <trkpt lat="39.4837600" lon="-8.2558430">
        <ele>57.6</ele>
        <time>2019-07-11T10:43:23Z</time>
      </trkpt>
      <trkpt lat="39.4838870" lon="-8.2561840">
        <ele>58.0</ele>
        <time>2019-07-11T10:43:28Z</time>
      </trkpt>
      <trkpt lat="39.4839360" lon="-8.2563980">
        <ele>58.2</ele>
        <time>2019-07-11T10:43:31Z</time>
      </trkpt>
      <trkpt lat="39.4839510" lon="-8.2568410">
        <ele>58.2</ele>
        <time>2019-07-11T10:43:37Z</time>
      </trkpt>
      <trkpt lat="39.4839420" lon="-8.2572120">
        <ele>57.8</ele>
        <time>2019-07-11T10:43:42Z</time>
      </trkpt>
      <trkpt lat="39.4839320" lon="-8.2574360">
        <ele>57.4</ele>
        <time>2019-07-11T10:43:45Z</time>
      </trkpt>
      <trkpt lat="39.4839340" lon="-8.2581180">
        <ele>57.4</ele>
        <time>2019-07-11T10:43:54Z</time>
      </trkpt>
      <trkpt lat="39.4840350" lon="-8.2587000">
        <ele>57.2</ele>
        <time>2019-07-11T10:44:02Z</time>
      </trkpt>
      <trkpt lat="39.4841960" lon="-8.2594240">
        <ele>57.4</ele>
        <time>2019-07-11T10:44:12Z</time>
      </trkpt>
      <trkpt lat="39.4843320" lon="-8.2600410">
        <ele>57.8</ele>
        <time>2019-07-11T10:44:21Z</time>
      </trkpt>
      <trkpt lat="39.4844390" lon="-8.2604650">
        <ele>58.4</ele>
        <time>2019-07-11T10:44:28Z</time>
      </trkpt>
      <trkpt lat="39.4844580" lon="-8.2605230">
        <ele>58.4</ele>
        <time>2019-07-11T10:44:29Z</time>
      </trkpt>
      <trkpt lat="39.4844900" lon="-8.2606410">
        <ele>58.6</ele>
        <time>2019-07-11T10:44:31Z</time>
      </trkpt>
      <trkpt lat="39.4845590" lon="-8.2608110">
        <ele>59.0</ele>
        <time>2019-07-11T10:44:34Z</time>
      </trkpt>
      <trkpt lat="39.4845810" lon="-8.2608700">
        <ele>59.2</ele>
        <time>2019-07-11T10:44:35Z</time>
      </trkpt>
      <trkpt lat="39.4846600" lon="-8.2610890">
        <ele>60.0</ele>
        <time>2019-07-11T10:44:39Z</time>
      </trkpt>
      <trkpt lat="39.4846980" lon="-8.2611930">
        <ele>60.0</ele>
        <time>2019-07-11T10:44:41Z</time>
      </trkpt>
      <trkpt lat="39.4847170" lon="-8.2612440">
        <ele>60.0</ele>
        <time>2019-07-11T10:44:42Z</time>
      </trkpt>
      <trkpt lat="39.4848280" lon="-8.2615870">
        <ele>61.0</ele>
        <time>2019-07-11T10:44:49Z</time>
      </trkpt>
      <trkpt lat="39.4848480" lon="-8.2616330">
        <ele>61.0</ele>
        <time>2019-07-11T10:44:50Z</time>
      </trkpt>
      <trkpt lat="39.4849890" lon="-8.2620340">
        <ele>62.0</ele>
        <time>2019-07-11T10:44:58Z</time>
      </trkpt>
      <trkpt lat="39.4850160" lon="-8.2621430">
        <ele>62.2</ele>
        <time>2019-07-11T10:45:00Z</time>
      </trkpt>
      <trkpt lat="39.4850690" lon="-8.2624180">
        <ele>62.4</ele>
        <time>2019-07-11T10:45:05Z</time>
      </trkpt>
      <trkpt lat="39.4851470" lon="-8.2628850">
        <ele>62.6</ele>
        <time>2019-07-11T10:45:13Z</time>
      </trkpt>
      <trkpt lat="39.4852360" lon="-8.2633550">
        <ele>62.8</ele>
        <time>2019-07-11T10:45:21Z</time>
      </trkpt>
      <trkpt lat="39.4852690" lon="-8.2635380">
        <ele>62.8</ele>
        <time>2019-07-11T10:45:24Z</time>
      </trkpt>
      <trkpt lat="39.4852990" lon="-8.2637290">
        <ele>62.8</ele>
        <time>2019-07-11T10:45:27Z</time>
      </trkpt>
      <trkpt lat="39.4853230" lon="-8.2638600">
        <ele>62.8</ele>
        <time>2019-07-11T10:45:29Z</time>
      </trkpt>
      <trkpt lat="39.4853980" lon="-8.2643380">
        <ele>62.8</ele>
        <time>2019-07-11T10:45:36Z</time>
      </trkpt>
      <trkpt lat="39.4854110" lon="-8.2644080">
        <ele>62.8</ele>
        <time>2019-07-11T10:45:37Z</time>
      </trkpt>
      <trkpt lat="39.4855480" lon="-8.2649020">
        <ele>62.4</ele>
        <time>2019-07-11T10:45:44Z</time>
      </trkpt>
      <trkpt lat="39.4855760" lon="-8.2649680">
        <ele>62.4</ele>
        <time>2019-07-11T10:45:45Z</time>
      </trkpt>
      <trkpt lat="39.4857080" lon="-8.2651970">
        <ele>62.4</ele>
        <time>2019-07-11T10:45:49Z</time>
      </trkpt>
      <trkpt lat="39.4857420" lon="-8.2652430">
        <ele>62.4</ele>
        <time>2019-07-11T10:45:50Z</time>
      </trkpt>
      <trkpt lat="39.4858770" lon="-8.2653830">
        <ele>62.6</ele>
        <time>2019-07-11T10:45:54Z</time>
      </trkpt>
      <trkpt lat="39.4859520" lon="-8.2654410">
        <ele>62.8</ele>
        <time>2019-07-11T10:45:56Z</time>
      </trkpt>
      <trkpt lat="39.4860650" lon="-8.2655350">
        <ele>63.2</ele>
        <time>2019-07-11T10:45:59Z</time>
      </trkpt>
      <trkpt lat="39.4861430" lon="-8.2656060">
        <ele>63.4</ele>
        <time>2019-07-11T10:46:01Z</time>
      </trkpt>
      <trkpt lat="39.4861830" lon="-8.2656410">
        <ele>63.6</ele>
        <time>2019-07-11T10:46:02Z</time>
      </trkpt>
      <trkpt lat="39.4862690" lon="-8.2657030">
        <ele>63.6</ele>
        <time>2019-07-11T10:46:04Z</time>
      </trkpt>
      <trkpt lat="39.4864490" lon="-8.2658080">
        <ele>63.8</ele>
        <time>2019-07-11T10:46:08Z</time>
      </trkpt>
      <trkpt lat="39.4865300" lon="-8.2658850">
        <ele>64.2</ele>
        <time>2019-07-11T10:46:10Z</time>
      </trkpt>
      <trkpt lat="39.4865800" lon="-8.2659900">
        <ele>64.6</ele>
        <time>2019-07-11T10:46:12Z</time>
      </trkpt>
      <trkpt lat="39.4866110" lon="-8.2660380">
        <ele>65.0</ele>
        <time>2019-07-11T10:46:13Z</time>
      </trkpt>
      <trkpt lat="39.4866620" lon="-8.2661360">
        <ele>65.2</ele>
        <time>2019-07-11T10:46:15Z</time>
      </trkpt>
      <trkpt lat="39.4867010" lon="-8.2662380">
        <ele>65.6</ele>
        <time>2019-07-11T10:46:17Z</time>
      </trkpt>
      <trkpt lat="39.4867150" lon="-8.2662920">
        <ele>65.8</ele>
        <time>2019-07-11T10:46:18Z</time>
      </trkpt>
      <trkpt lat="39.4867470" lon="-8.2665140">
        <ele>66.2</ele>
        <time>2019-07-11T10:46:22Z</time>
      </trkpt>
      <trkpt lat="39.4867380" lon="-8.2666300">
        <ele>66.4</ele>
        <time>2019-07-11T10:46:24Z</time>
      </trkpt>
      <trkpt lat="39.4866870" lon="-8.2668630">
        <ele>66.6</ele>
        <time>2019-07-11T10:46:28Z</time>
      </trkpt>
      <trkpt lat="39.4866460" lon="-8.2670480">
        <ele>66.8</ele>
        <time>2019-07-11T10:46:31Z</time>
      </trkpt>
      <trkpt lat="39.4865840" lon="-8.2674420">
        <ele>67.0</ele>
        <time>2019-07-11T10:46:37Z</time>
      </trkpt>
      <trkpt lat="39.4865610" lon="-8.2680690">
        <ele>67.4</ele>
        <time>2019-07-11T10:46:47Z</time>
      </trkpt>
      <trkpt lat="39.4865450" lon="-8.2683210">
        <ele>68.0</ele>
        <time>2019-07-11T10:46:51Z</time>
      </trkpt>
      <trkpt lat="39.4865400" lon="-8.2685100">
        <ele>68.4</ele>
        <time>2019-07-11T10:46:54Z</time>
      </trkpt>
      <trkpt lat="39.4865260" lon="-8.2688110">
        <ele>69.0</ele>
        <time>2019-07-11T10:46:59Z</time>
      </trkpt>
      <trkpt lat="39.4865220" lon="-8.2688690">
        <ele>69.0</ele>
        <time>2019-07-11T10:47:00Z</time>
      </trkpt>
      <trkpt lat="39.4865090" lon="-8.2690990">
        <ele>69.4</ele>
        <time>2019-07-11T10:47:04Z</time>
      </trkpt>
      <trkpt lat="39.4864760" lon="-8.2695280">
        <ele>69.8</ele>
        <time>2019-07-11T10:47:11Z</time>
      </trkpt>
      <trkpt lat="39.4864580" lon="-8.2700470">
        <ele>69.6</ele>
        <time>2019-07-11T10:47:18Z</time>
      </trkpt>
      <trkpt lat="39.4864520" lon="-8.2705330">
        <ele>68.8</ele>
        <time>2019-07-11T10:47:24Z</time>
      </trkpt>
      <trkpt lat="39.4864630" lon="-8.2706820">
        <ele>68.8</ele>
        <time>2019-07-11T10:47:26Z</time>
      </trkpt>
      <trkpt lat="39.4865110" lon="-8.2712910">
        <ele>69.4</ele>
        <time>2019-07-11T10:47:35Z</time>
      </trkpt>
      <trkpt lat="39.4865250" lon="-8.2715260">
        <ele>70.2</ele>
        <time>2019-07-11T10:47:39Z</time>
      </trkpt>
      <trkpt lat="39.4865480" lon="-8.2717190">
        <ele>70.8</ele>
        <time>2019-07-11T10:47:43Z</time>
      </trkpt>
      <trkpt lat="39.4865570" lon="-8.2718030">
        <ele>71.4</ele>
        <time>2019-07-11T10:47:45Z</time>
      </trkpt>
      <trkpt lat="39.4865720" lon="-8.2719600">
        <ele>72.0</ele>
        <time>2019-07-11T10:47:49Z</time>
      </trkpt>
      <trkpt lat="39.4865880" lon="-8.2720680">
        <ele>72.4</ele>
        <time>2019-07-11T10:47:52Z</time>
      </trkpt>
      <trkpt lat="39.4866110" lon="-8.2722020">
        <ele>73.4</ele>
        <time>2019-07-11T10:47:56Z</time>
      </trkpt>
      <trkpt lat="39.4866200" lon="-8.2722330">
        <ele>73.6</ele>
        <time>2019-07-11T10:47:57Z</time>
      </trkpt>
      <trkpt lat="39.4866320" lon="-8.2722620">
        <ele>73.8</ele>
        <time>2019-07-11T10:47:58Z</time>
      </trkpt>
      <trkpt lat="39.4866870" lon="-8.2723790">
        <ele>74.8</ele>
        <time>2019-07-11T10:48:02Z</time>
      </trkpt>
      <trkpt lat="39.4867500" lon="-8.2724790">
        <ele>75.8</ele>
        <time>2019-07-11T10:48:06Z</time>
      </trkpt>
      <trkpt lat="39.4868520" lon="-8.2725710">
        <ele>77.0</ele>
        <time>2019-07-11T10:48:11Z</time>
      </trkpt>
      <trkpt lat="39.4869260" lon="-8.2726090">
        <ele>77.6</ele>
        <time>2019-07-11T10:48:14Z</time>
      </trkpt>
      <trkpt lat="39.4869770" lon="-8.2726310">
        <ele>78.0</ele>
        <time>2019-07-11T10:48:16Z</time>
      </trkpt>
      <trkpt lat="39.4870870" lon="-8.2726510">
        <ele>79.0</ele>
        <time>2019-07-11T10:48:20Z</time>
      </trkpt>
      <trkpt lat="39.4871410" lon="-8.2726560">
        <ele>79.4</ele>
        <time>2019-07-11T10:48:22Z</time>
      </trkpt>
      <trkpt lat="39.4872230" lon="-8.2726570">
        <ele>80.2</ele>
        <time>2019-07-11T10:48:25Z</time>
      </trkpt>
      <trkpt lat="39.4873210" lon="-8.2726810">
        <ele>81.0</ele>
        <time>2019-07-11T10:48:29Z</time>
      </trkpt>
      <trkpt lat="39.4873700" lon="-8.2726970">
        <ele>81.4</ele>
        <time>2019-07-11T10:48:31Z</time>
      </trkpt>
      <trkpt lat="39.4874210" lon="-8.2727020">
        <ele>82.0</ele>
        <time>2019-07-11T10:48:33Z</time>
      </trkpt>
      <trkpt lat="39.4874770" lon="-8.2726910">
        <ele>82.4</ele>
        <time>2019-07-11T10:48:35Z</time>
      </trkpt>
      <trkpt lat="39.4875030" lon="-8.2726910">
        <ele>82.6</ele>
        <time>2019-07-11T10:48:36Z</time>
      </trkpt>
      <trkpt lat="39.4876200" lon="-8.2727340">
        <ele>83.8</ele>
        <time>2019-07-11T10:48:41Z</time>
      </trkpt>
      <trkpt lat="39.4877300" lon="-8.2728050">
        <ele>84.8</ele>
        <time>2019-07-11T10:48:46Z</time>
      </trkpt>
      <trkpt lat="39.4877700" lon="-8.2728350">
        <ele>85.2</ele>
        <time>2019-07-11T10:48:48Z</time>
      </trkpt>
      <trkpt lat="39.4878300" lon="-8.2728870">
        <ele>85.8</ele>
        <time>2019-07-11T10:48:51Z</time>
      </trkpt>
      <trkpt lat="39.4879230" lon="-8.2729880">
        <ele>87.0</ele>
        <time>2019-07-11T10:48:56Z</time>
      </trkpt>
      <trkpt lat="39.4879340" lon="-8.2730180">
        <ele>87.2</ele>
        <time>2019-07-11T10:48:57Z</time>
      </trkpt>
      <trkpt lat="39.4879410" lon="-8.2731930">
        <ele>87.6</ele>
        <time>2019-07-11T10:49:01Z</time>
      </trkpt>
      <trkpt lat="39.4879310" lon="-8.2732470">
        <ele>87.6</ele>
        <time>2019-07-11T10:49:02Z</time>
      </trkpt>
      <trkpt lat="39.4878460" lon="-8.2734610">
        <ele>87.4</ele>
        <time>2019-07-11T10:49:06Z</time>
      </trkpt>
      <trkpt lat="39.4876620" lon="-8.2738620">
        <ele>86.6</ele>
        <time>2019-07-11T10:49:13Z</time>
      </trkpt>
      <trkpt lat="39.4876070" lon="-8.2739800">
        <ele>86.6</ele>
        <time>2019-07-11T10:49:15Z</time>
      </trkpt>
      <trkpt lat="39.4875180" lon="-8.2741500">
        <ele>86.6</ele>
        <time>2019-07-11T10:49:18Z</time>
      </trkpt>
      <trkpt lat="39.4874560" lon="-8.2742600">
        <ele>86.6</ele>
        <time>2019-07-11T10:49:20Z</time>
      </trkpt>
      <trkpt lat="39.4874250" lon="-8.2743140">
        <ele>86.6</ele>
        <time>2019-07-11T10:49:21Z</time>
      </trkpt>
      <trkpt lat="39.4873640" lon="-8.2744230">
        <ele>86.6</ele>
        <time>2019-07-11T10:49:23Z</time>
      </trkpt>
      <trkpt lat="39.4872710" lon="-8.2745910">
        <ele>86.4</ele>
        <time>2019-07-11T10:49:26Z</time>
      </trkpt>
      <trkpt lat="39.4871440" lon="-8.2748120">
        <ele>86.6</ele>
        <time>2019-07-11T10:49:30Z</time>
      </trkpt>
      <trkpt lat="39.4871100" lon="-8.2748660">
        <ele>86.6</ele>
        <time>2019-07-11T10:49:31Z</time>
      </trkpt>
      <trkpt lat="39.4869130" lon="-8.2751030">
        <ele>86.4</ele>
        <time>2019-07-11T10:49:36Z</time>
      </trkpt>
      <trkpt lat="39.4868230" lon="-8.2751820">
        <ele>86.4</ele>
        <time>2019-07-11T10:49:38Z</time>
      </trkpt>
      <trkpt lat="39.4867280" lon="-8.2752500">
        <ele>86.2</ele>
        <time>2019-07-11T10:49:40Z</time>
      </trkpt>
      <trkpt lat="39.4865260" lon="-8.2753560">
        <ele>86.0</ele>
        <time>2019-07-11T10:49:44Z</time>
      </trkpt>
      <trkpt lat="39.4864750" lon="-8.2753810">
        <ele>85.8</ele>
        <time>2019-07-11T10:49:45Z</time>
      </trkpt>
      <trkpt lat="39.4861750" lon="-8.2755220">
        <ele>85.6</ele>
        <time>2019-07-11T10:49:51Z</time>
      </trkpt>
      <trkpt lat="39.4860760" lon="-8.2755720">
        <ele>85.2</ele>
        <time>2019-07-11T10:49:53Z</time>
      </trkpt>
      <trkpt lat="39.4859200" lon="-8.2756470">
        <ele>84.8</ele>
        <time>2019-07-11T10:49:56Z</time>
      </trkpt>
      <trkpt lat="39.4857590" lon="-8.2757360">
        <ele>84.6</ele>
        <time>2019-07-11T10:49:59Z</time>
      </trkpt>
      <trkpt lat="39.4857040" lon="-8.2757690">
        <ele>84.4</ele>
        <time>2019-07-11T10:50:00Z</time>
      </trkpt>
      <trkpt lat="39.4855350" lon="-8.2758880">
        <ele>83.8</ele>
        <time>2019-07-11T10:50:03Z</time>
      </trkpt>
      <trkpt lat="39.4854290" lon="-8.2759980">
        <ele>83.2</ele>
        <time>2019-07-11T10:50:05Z</time>
      </trkpt>
      <trkpt lat="39.4853320" lon="-8.2761340">
        <ele>82.6</ele>
        <time>2019-07-11T10:50:07Z</time>
      </trkpt>
      <trkpt lat="39.4852880" lon="-8.2762100">
        <ele>82.4</ele>
        <time>2019-07-11T10:50:08Z</time>
      </trkpt>
      <trkpt lat="39.4852040" lon="-8.2763720">
        <ele>81.6</ele>
        <time>2019-07-11T10:50:10Z</time>
      </trkpt>
      <trkpt lat="39.4850940" lon="-8.2766370">
        <ele>80.6</ele>
        <time>2019-07-11T10:50:13Z</time>
      </trkpt>
      <trkpt lat="39.4850570" lon="-8.2767260">
        <ele>80.4</ele>
        <time>2019-07-11T10:50:14Z</time>
      </trkpt>
      <trkpt lat="39.4849440" lon="-8.2769950">
        <ele>79.2</ele>
        <time>2019-07-11T10:50:17Z</time>
      </trkpt>
      <trkpt lat="39.4847950" lon="-8.2773540">
        <ele>78.2</ele>
        <time>2019-07-11T10:50:21Z</time>
      </trkpt>
      <trkpt lat="39.4846820" lon="-8.2776090">
        <ele>77.8</ele>
        <time>2019-07-11T10:50:24Z</time>
      </trkpt>
      <trkpt lat="39.4846470" lon="-8.2776800">
        <ele>77.6</ele>
        <time>2019-07-11T10:50:25Z</time>
      </trkpt>
      <trkpt lat="39.4846120" lon="-8.2777380">
        <ele>77.4</ele>
        <time>2019-07-11T10:50:26Z</time>
      </trkpt>
      <trkpt lat="39.4845770" lon="-8.2777780">
        <ele>77.4</ele>
        <time>2019-07-11T10:50:27Z</time>
      </trkpt>
      <trkpt lat="39.4845450" lon="-8.2777940">
        <ele>77.4</ele>
        <time>2019-07-11T10:50:28Z</time>
      </trkpt>
      <trkpt lat="39.4844790" lon="-8.2777300">
        <ele>77.2</ele>
        <time>2019-07-11T10:50:31Z</time>
      </trkpt>
      <trkpt lat="39.4844690" lon="-8.2776290">
        <ele>77.0</ele>
        <time>2019-07-11T10:50:33Z</time>
      </trkpt>
      <trkpt lat="39.4844710" lon="-8.2775770">
        <ele>77.0</ele>
        <time>2019-07-11T10:50:34Z</time>
      </trkpt>
      <trkpt lat="39.4844720" lon="-8.2774720">
        <ele>76.8</ele>
        <time>2019-07-11T10:50:36Z</time>
      </trkpt>
      <trkpt lat="39.4844840" lon="-8.2772500">
        <ele>76.8</ele>
        <time>2019-07-11T10:50:40Z</time>
      </trkpt>
      <trkpt lat="39.4844940" lon="-8.2771920">
        <ele>76.8</ele>
        <time>2019-07-11T10:50:41Z</time>
      </trkpt>
      <trkpt lat="39.4845320" lon="-8.2770140">
        <ele>76.6</ele>
        <time>2019-07-11T10:50:44Z</time>
      </trkpt>
      <trkpt lat="39.4845430" lon="-8.2769010">
        <ele>76.6</ele>
        <time>2019-07-11T10:50:46Z</time>
      </trkpt>
      <trkpt lat="39.4845390" lon="-8.2768490">
        <ele>76.6</ele>
        <time>2019-07-11T10:50:47Z</time>
      </trkpt>
      <trkpt lat="39.4845010" lon="-8.2767590">
        <ele>76.6</ele>
        <time>2019-07-11T10:50:49Z</time>
      </trkpt>
      <trkpt lat="39.4844720" lon="-8.2767200">
        <ele>76.4</ele>
        <time>2019-07-11T10:50:50Z</time>
      </trkpt>
      <trkpt lat="39.4844360" lon="-8.2766790">
        <ele>76.2</ele>
        <time>2019-07-11T10:50:51Z</time>
      </trkpt>
      <trkpt lat="39.4844000" lon="-8.2766300">
        <ele>76.2</ele>
        <time>2019-07-11T10:50:52Z</time>
      </trkpt>
      <trkpt lat="39.4842640" lon="-8.2764930">
        <ele>75.8</ele>
        <time>2019-07-11T10:50:55Z</time>
      </trkpt>
      <trkpt lat="39.4841120" lon="-8.2764210">
        <ele>74.6</ele>
        <time>2019-07-11T10:50:57Z</time>
      </trkpt>
      <trkpt lat="39.4840180" lon="-8.2763900">
        <ele>73.6</ele>
        <time>2019-07-11T10:50:58Z</time>
      </trkpt>
      <trkpt lat="39.4839180" lon="-8.2763610">
        <ele>72.6</ele>
        <time>2019-07-11T10:50:59Z</time>
      </trkpt>
      <trkpt lat="39.4837110" lon="-8.2763000">
        <ele>70.6</ele>
        <time>2019-07-11T10:51:01Z</time>
      </trkpt>
      <trkpt lat="39.4835050" lon="-8.2762360">
        <ele>69.2</ele>
        <time>2019-07-11T10:51:03Z</time>
      </trkpt>
      <trkpt lat="39.4834020" lon="-8.2762170">
        <ele>68.6</ele>
        <time>2019-07-11T10:51:04Z</time>
      </trkpt>
      <trkpt lat="39.4832990" lon="-8.2762120">
        <ele>68.0</ele>
        <time>2019-07-11T10:51:05Z</time>
      </trkpt>
      <trkpt lat="39.4829990" lon="-8.2761940">
        <ele>66.8</ele>
        <time>2019-07-11T10:51:08Z</time>
      </trkpt>
      <trkpt lat="39.4829030" lon="-8.2761680">
        <ele>66.4</ele>
        <time>2019-07-11T10:51:09Z</time>
      </trkpt>
      <trkpt lat="39.4827170" lon="-8.2760830">
        <ele>65.8</ele>
        <time>2019-07-11T10:51:11Z</time>
      </trkpt>
      <trkpt lat="39.4826280" lon="-8.2760340">
        <ele>65.4</ele>
        <time>2019-07-11T10:51:12Z</time>
      </trkpt>
      <trkpt lat="39.4824500" lon="-8.2759410">
        <ele>64.6</ele>
        <time>2019-07-11T10:51:14Z</time>
      </trkpt>
      <trkpt lat="39.4820830" lon="-8.2758030">
        <ele>63.0</ele>
        <time>2019-07-11T10:51:18Z</time>
      </trkpt>
      <trkpt lat="39.4819050" lon="-8.2757440">
        <ele>61.8</ele>
        <time>2019-07-11T10:51:20Z</time>
      </trkpt>
      <trkpt lat="39.4816340" lon="-8.2756500">
        <ele>61.0</ele>
        <time>2019-07-11T10:51:23Z</time>
      </trkpt>
      <trkpt lat="39.4815430" lon="-8.2756180">
        <ele>60.8</ele>
        <time>2019-07-11T10:51:24Z</time>
      </trkpt>
      <trkpt lat="39.4813620" lon="-8.2755620">
        <ele>59.8</ele>
        <time>2019-07-11T10:51:26Z</time>
      </trkpt>
      <trkpt lat="39.4812700" lon="-8.2755390">
        <ele>59.4</ele>
        <time>2019-07-11T10:51:27Z</time>
      </trkpt>
      <trkpt lat="39.4809910" lon="-8.2754810">
        <ele>58.4</ele>
        <time>2019-07-11T10:51:30Z</time>
      </trkpt>
      <trkpt lat="39.4808160" lon="-8.2754380">
        <ele>57.4</ele>
        <time>2019-07-11T10:51:32Z</time>
      </trkpt>
      <trkpt lat="39.4805370" lon="-8.2753850">
        <ele>56.4</ele>
        <time>2019-07-11T10:51:36Z</time>
      </trkpt>
      <trkpt lat="39.4803790" lon="-8.2754710">
        <ele>55.4</ele>
        <time>2019-07-11T10:51:39Z</time>
      </trkpt>
      <trkpt lat="39.4803300" lon="-8.2755160">
        <ele>55.4</ele>
        <time>2019-07-11T10:51:40Z</time>
      </trkpt>
      <trkpt lat="39.4801840" lon="-8.2756630">
        <ele>55.4</ele>
        <time>2019-07-11T10:51:43Z</time>
      </trkpt>
      <trkpt lat="39.4799930" lon="-8.2758600">
        <ele>54.4</ele>
        <time>2019-07-11T10:51:47Z</time>
      </trkpt>
      <trkpt lat="39.4799460" lon="-8.2759090">
        <ele>54.4</ele>
        <time>2019-07-11T10:51:48Z</time>
      </trkpt>
      <trkpt lat="39.4797970" lon="-8.2760380">
        <ele>53.8</ele>
        <time>2019-07-11T10:51:51Z</time>
      </trkpt>
      <trkpt lat="39.4797420" lon="-8.2760740">
        <ele>53.6</ele>
        <time>2019-07-11T10:51:52Z</time>
      </trkpt>
      <trkpt lat="39.4796870" lon="-8.2761100">
        <ele>53.2</ele>
        <time>2019-07-11T10:51:53Z</time>
      </trkpt>
      <trkpt lat="39.4793340" lon="-8.2762680">
        <ele>52.6</ele>
        <time>2019-07-11T10:51:59Z</time>
      </trkpt>
      <trkpt lat="39.4792730" lon="-8.2762670">
        <ele>52.4</ele>
        <time>2019-07-11T10:52:00Z</time>
      </trkpt>
      <trkpt lat="39.4792140" lon="-8.2762570">
        <ele>52.0</ele>
        <time>2019-07-11T10:52:01Z</time>
      </trkpt>
      <trkpt lat="39.4788610" lon="-8.2762310">
        <ele>51.4</ele>
        <time>2019-07-11T10:52:07Z</time>
      </trkpt>
      <trkpt lat="39.4784640" lon="-8.2763010">
        <ele>51.6</ele>
        <time>2019-07-11T10:52:14Z</time>
      </trkpt>
      <trkpt lat="39.4779780" lon="-8.2764060">
        <ele>51.4</ele>
        <time>2019-07-11T10:52:23Z</time>
      </trkpt>
      <trkpt lat="39.4778100" lon="-8.2765780">
        <ele>51.4</ele>
        <time>2019-07-11T10:52:27Z</time>
      </trkpt>
      <trkpt lat="39.4777590" lon="-8.2767010">
        <ele>51.6</ele>
        <time>2019-07-11T10:52:29Z</time>
      </trkpt>
      <trkpt lat="39.4776310" lon="-8.2770110">
        <ele>51.4</ele>
        <time>2019-07-11T10:52:34Z</time>
      </trkpt>
      <trkpt lat="39.4773940" lon="-8.2774820">
        <ele>51.4</ele>
        <time>2019-07-11T10:52:42Z</time>
      </trkpt>
      <trkpt lat="39.4773400" lon="-8.2777540">
        <ele>51.4</ele>
        <time>2019-07-11T10:52:46Z</time>
      </trkpt>
      <trkpt lat="39.4773020" lon="-8.2779530">
        <ele>51.0</ele>
        <time>2019-07-11T10:52:49Z</time>
      </trkpt>
      <trkpt lat="39.4772330" lon="-8.2781290">
        <ele>51.2</ele>
        <time>2019-07-11T10:52:52Z</time>
      </trkpt>
      <trkpt lat="39.4771680" lon="-8.2782310">
        <ele>51.2</ele>
        <time>2019-07-11T10:52:54Z</time>
      </trkpt>
      <trkpt lat="39.4770570" lon="-8.2783860">
        <ele>51.0</ele>
        <time>2019-07-11T10:52:57Z</time>
      </trkpt>
      <trkpt lat="39.4770210" lon="-8.2784370">
        <ele>50.8</ele>
        <time>2019-07-11T10:52:58Z</time>
      </trkpt>
      <trkpt lat="39.4766970" lon="-8.2788780">
        <ele>51.2</ele>
        <time>2019-07-11T10:53:07Z</time>
      </trkpt>
      <trkpt lat="39.4764740" lon="-8.2792330">
        <ele>51.4</ele>
        <time>2019-07-11T10:53:14Z</time>
      </trkpt>
      <trkpt lat="39.4764440" lon="-8.2792880">
        <ele>51.6</ele>
        <time>2019-07-11T10:53:15Z</time>
      </trkpt>
      <trkpt lat="39.4762520" lon="-8.2795260">
        <ele>51.4</ele>
        <time>2019-07-11T10:53:20Z</time>
      </trkpt>
      <trkpt lat="39.4759390" lon="-8.2799030">
        <ele>51.4</ele>
        <time>2019-07-11T10:53:28Z</time>
      </trkpt>
      <trkpt lat="39.4755960" lon="-8.2804080">
        <ele>51.8</ele>
        <time>2019-07-11T10:53:38Z</time>
      </trkpt>
      <trkpt lat="39.4753580" lon="-8.2807630">
        <ele>52.2</ele>
        <time>2019-07-11T10:53:45Z</time>
      </trkpt>
      <trkpt lat="39.4752140" lon="-8.2809670">
        <ele>52.2</ele>
        <time>2019-07-11T10:53:49Z</time>
      </trkpt>
      <trkpt lat="39.4749980" lon="-8.2813470">
        <ele>52.8</ele>
        <time>2019-07-11T10:53:56Z</time>
      </trkpt>
      <trkpt lat="39.4746530" lon="-8.2819520">
        <ele>52.2</ele>
        <time>2019-07-11T10:54:07Z</time>
      </trkpt>
      <trkpt lat="39.4746200" lon="-8.2820060">
        <ele>52.2</ele>
        <time>2019-07-11T10:54:08Z</time>
      </trkpt>
      <trkpt lat="39.4744840" lon="-8.2822240">
        <ele>52.2</ele>
        <time>2019-07-11T10:54:12Z</time>
      </trkpt>
      <trkpt lat="39.4743200" lon="-8.2825160">
        <ele>51.8</ele>
        <time>2019-07-11T10:54:17Z</time>
      </trkpt>
      <trkpt lat="39.4740490" lon="-8.2829640">
        <ele>51.8</ele>
        <time>2019-07-11T10:54:25Z</time>
      </trkpt>
      <trkpt lat="39.4738230" lon="-8.2832950">
        <ele>52.2</ele>
        <time>2019-07-11T10:54:32Z</time>
      </trkpt>
      <trkpt lat="39.4737130" lon="-8.2834800">
        <ele>53.0</ele>
        <time>2019-07-11T10:54:37Z</time>
      </trkpt>
      <trkpt lat="39.4736770" lon="-8.2835470">
        <ele>53.4</ele>
        <time>2019-07-11T10:54:39Z</time>
      </trkpt>
      <trkpt lat="39.4735800" lon="-8.2836990">
        <ele>54.6</ele>
        <time>2019-07-11T10:54:44Z</time>
      </trkpt>
      <trkpt lat="39.4735630" lon="-8.2837310">
        <ele>54.8</ele>
        <time>2019-07-11T10:54:45Z</time>
      </trkpt>
      <trkpt lat="39.4734900" lon="-8.2838550">
        <ele>55.8</ele>
        <time>2019-07-11T10:54:49Z</time>
      </trkpt>
      <trkpt lat="39.4734310" lon="-8.2839500">
        <ele>56.2</ele>
        <time>2019-07-11T10:54:52Z</time>
      </trkpt>
      <trkpt lat="39.4733480" lon="-8.2840700">
        <ele>56.8</ele>
        <time>2019-07-11T10:54:56Z</time>
      </trkpt>
      <trkpt lat="39.4733290" lon="-8.2841030">
        <ele>56.8</ele>
        <time>2019-07-11T10:54:57Z</time>
      </trkpt>
      <trkpt lat="39.4732920" lon="-8.2841690">
        <ele>57.2</ele>
        <time>2019-07-11T10:54:59Z</time>
      </trkpt>
      <trkpt lat="39.4731680" lon="-8.2843470">
        <ele>58.0</ele>
        <time>2019-07-11T10:55:05Z</time>
      </trkpt>
      <trkpt lat="39.4731220" lon="-8.2844060">
        <ele>58.4</ele>
        <time>2019-07-11T10:55:07Z</time>
      </trkpt>
      <trkpt lat="39.4729820" lon="-8.2846150">
        <ele>59.2</ele>
        <time>2019-07-11T10:55:13Z</time>
      </trkpt>
      <trkpt lat="39.4728050" lon="-8.2849230">
        <ele>59.2</ele>
        <time>2019-07-11T10:55:20Z</time>
      </trkpt>
      <trkpt lat="39.4727760" lon="-8.2849630">
        <ele>59.2</ele>
        <time>2019-07-11T10:55:21Z</time>
      </trkpt>
      <trkpt lat="39.4726730" lon="-8.2851340">
        <ele>59.2</ele>
        <time>2019-07-11T10:55:25Z</time>
      </trkpt>
      <trkpt lat="39.4726430" lon="-8.2851770">
        <ele>59.0</ele>
        <time>2019-07-11T10:55:26Z</time>
      </trkpt>
      <trkpt lat="39.4725870" lon="-8.2852730">
        <ele>58.6</ele>
        <time>2019-07-11T10:55:28Z</time>
      </trkpt>
      <trkpt lat="39.4725310" lon="-8.2853800">
        <ele>58.2</ele>
        <time>2019-07-11T10:55:30Z</time>
      </trkpt>
      <trkpt lat="39.4724970" lon="-8.2854300">
        <ele>58.0</ele>
        <time>2019-07-11T10:55:31Z</time>
      </trkpt>
      <trkpt lat="39.4724030" lon="-8.2855920">
        <ele>57.8</ele>
        <time>2019-07-11T10:55:34Z</time>
      </trkpt>
      <trkpt lat="39.4723190" lon="-8.2857580">
        <ele>57.6</ele>
        <time>2019-07-11T10:55:37Z</time>
      </trkpt>
      <trkpt lat="39.4721980" lon="-8.2859620">
        <ele>57.6</ele>
        <time>2019-07-11T10:55:41Z</time>
      </trkpt>
      <trkpt lat="39.4720340" lon="-8.2862800">
        <ele>57.6</ele>
        <time>2019-07-11T10:55:47Z</time>
      </trkpt>
      <trkpt lat="39.4719790" lon="-8.2863850">
        <ele>57.6</ele>
        <time>2019-07-11T10:55:49Z</time>
      </trkpt>
      <trkpt lat="39.4719210" lon="-8.2864900">
        <ele>57.6</ele>
        <time>2019-07-11T10:55:51Z</time>
      </trkpt>
      <trkpt lat="39.4718190" lon="-8.2867120">
        <ele>57.8</ele>
        <time>2019-07-11T10:55:55Z</time>
      </trkpt>
      <trkpt lat="39.4717260" lon="-8.2869470">
        <ele>58.0</ele>
        <time>2019-07-11T10:55:59Z</time>
      </trkpt>
      <trkpt lat="39.4716190" lon="-8.2872550">
        <ele>58.8</ele>
        <time>2019-07-11T10:56:04Z</time>
      </trkpt>
      <trkpt lat="39.4714280" lon="-8.2878770">
        <ele>59.0</ele>
        <time>2019-07-11T10:56:14Z</time>
      </trkpt>
      <trkpt lat="39.4713330" lon="-8.2883040">
        <ele>59.4</ele>
        <time>2019-07-11T10:56:21Z</time>
      </trkpt>
      <trkpt lat="39.4713100" lon="-8.2884240">
        <ele>59.4</ele>
        <time>2019-07-11T10:56:23Z</time>
      </trkpt>
      <trkpt lat="39.4712060" lon="-8.2890250">
        <ele>60.0</ele>
        <time>2019-07-11T10:56:33Z</time>
      </trkpt>
      <trkpt lat="39.4711810" lon="-8.2891970">
        <ele>60.6</ele>
        <time>2019-07-11T10:56:36Z</time>
      </trkpt>
      <trkpt lat="39.4711560" lon="-8.2894280">
        <ele>60.6</ele>
        <time>2019-07-11T10:56:40Z</time>
      </trkpt>
      <trkpt lat="39.4711170" lon="-8.2898620">
        <ele>60.8</ele>
        <time>2019-07-11T10:56:47Z</time>
      </trkpt>
      <trkpt lat="39.4710870" lon="-8.2903720">
        <ele>61.0</ele>
        <time>2019-07-11T10:56:55Z</time>
      </trkpt>
      <trkpt lat="39.4710790" lon="-8.2904360">
        <ele>61.0</ele>
        <time>2019-07-11T10:56:56Z</time>
      </trkpt>
      <trkpt lat="39.4710280" lon="-8.2908880">
        <ele>60.8</ele>
        <time>2019-07-11T10:57:03Z</time>
      </trkpt>
      <trkpt lat="39.4709740" lon="-8.2912730">
        <ele>61.6</ele>
        <time>2019-07-11T10:57:09Z</time>
      </trkpt>
      <trkpt lat="39.4709270" lon="-8.2917060">
        <ele>61.8</ele>
        <time>2019-07-11T10:57:16Z</time>
      </trkpt>
      <trkpt lat="39.4708580" lon="-8.2922190">
        <ele>61.2</ele>
        <time>2019-07-11T10:57:24Z</time>
      </trkpt>
      <trkpt lat="39.4708380" lon="-8.2923480">
        <ele>61.0</ele>
        <time>2019-07-11T10:57:26Z</time>
      </trkpt>
      <trkpt lat="39.4708110" lon="-8.2925330">
        <ele>60.8</ele>
        <time>2019-07-11T10:57:29Z</time>
      </trkpt>
      <trkpt lat="39.4707630" lon="-8.2928340">
        <ele>60.8</ele>
        <time>2019-07-11T10:57:34Z</time>
      </trkpt>
      <trkpt lat="39.4707080" lon="-8.2933500">
        <ele>59.8</ele>
        <time>2019-07-11T10:57:42Z</time>
      </trkpt>
      <trkpt lat="39.4707020" lon="-8.2934210">
        <ele>59.6</ele>
        <time>2019-07-11T10:57:43Z</time>
      </trkpt>
      <trkpt lat="39.4706620" lon="-8.2939440">
        <ele>58.6</ele>
        <time>2019-07-11T10:57:50Z</time>
      </trkpt>
      <trkpt lat="39.4706080" lon="-8.2945820">
        <ele>58.2</ele>
        <time>2019-07-11T10:57:58Z</time>
      </trkpt>
      <trkpt lat="39.4706110" lon="-8.2946580">
        <ele>58.0</ele>
        <time>2019-07-11T10:57:59Z</time>
      </trkpt>
      <trkpt lat="39.4706760" lon="-8.2949380">
        <ele>57.6</ele>
        <time>2019-07-11T10:58:03Z</time>
      </trkpt>
      <trkpt lat="39.4707020" lon="-8.2950030">
        <ele>57.6</ele>
        <time>2019-07-11T10:58:04Z</time>
      </trkpt>
      <trkpt lat="39.4707290" lon="-8.2950670">
        <ele>57.6</ele>
        <time>2019-07-11T10:58:05Z</time>
      </trkpt>
      <trkpt lat="39.4708830" lon="-8.2953760">
        <ele>58.2</ele>
        <time>2019-07-11T10:58:10Z</time>
      </trkpt>
      <trkpt lat="39.4709440" lon="-8.2955000">
        <ele>58.6</ele>
        <time>2019-07-11T10:58:12Z</time>
      </trkpt>
      <trkpt lat="39.4709710" lon="-8.2955660">
        <ele>58.6</ele>
        <time>2019-07-11T10:58:13Z</time>
      </trkpt>
      <trkpt lat="39.4710320" lon="-8.2957730">
        <ele>58.6</ele>
        <time>2019-07-11T10:58:16Z</time>
      </trkpt>
      <trkpt lat="39.4711400" lon="-8.2962560">
        <ele>58.6</ele>
        <time>2019-07-11T10:58:23Z</time>
      </trkpt>
      <trkpt lat="39.4712330" lon="-8.2968190">
        <ele>57.8</ele>
        <time>2019-07-11T10:58:31Z</time>
      </trkpt>
      <trkpt lat="39.4712680" lon="-8.2973370">
        <ele>57.4</ele>
        <time>2019-07-11T10:58:38Z</time>
      </trkpt>
      <trkpt lat="39.4713380" lon="-8.2977750">
        <ele>57.0</ele>
        <time>2019-07-11T10:58:44Z</time>
      </trkpt>
      <trkpt lat="39.4713590" lon="-8.2979220">
        <ele>57.0</ele>
        <time>2019-07-11T10:58:46Z</time>
      </trkpt>
      <trkpt lat="39.4714190" lon="-8.2982870">
        <ele>57.0</ele>
        <time>2019-07-11T10:58:51Z</time>
      </trkpt>
      <trkpt lat="39.4714690" lon="-8.2985730">
        <ele>56.8</ele>
        <time>2019-07-11T10:58:55Z</time>
      </trkpt>
      <trkpt lat="39.4715190" lon="-8.2988540">
        <ele>56.8</ele>
        <time>2019-07-11T10:58:59Z</time>
      </trkpt>
      <trkpt lat="39.4715500" lon="-8.2990670">
        <ele>56.6</ele>
        <time>2019-07-11T10:59:02Z</time>
      </trkpt>
      <trkpt lat="39.4715810" lon="-8.2992830">
        <ele>56.4</ele>
        <time>2019-07-11T10:59:05Z</time>
      </trkpt>
      <trkpt lat="39.4716710" lon="-8.2999750">
        <ele>56.6</ele>
        <time>2019-07-11T10:59:15Z</time>
      </trkpt>
      <trkpt lat="39.4716760" lon="-8.3000390">
        <ele>56.4</ele>
        <time>2019-07-11T10:59:16Z</time>
      </trkpt>
      <trkpt lat="39.4716770" lon="-8.3001020">
        <ele>56.4</ele>
        <time>2019-07-11T10:59:17Z</time>
      </trkpt>
      <trkpt lat="39.4716430" lon="-8.3004300">
        <ele>56.4</ele>
        <time>2019-07-11T10:59:22Z</time>
      </trkpt>
      <trkpt lat="39.4715660" lon="-8.3010230">
        <ele>56.4</ele>
        <time>2019-07-11T10:59:31Z</time>
      </trkpt>
      <trkpt lat="39.4715410" lon="-8.3012120">
        <ele>56.6</ele>
        <time>2019-07-11T10:59:34Z</time>
      </trkpt>
      <trkpt lat="39.4714600" lon="-8.3017210">
        <ele>56.4</ele>
        <time>2019-07-11T10:59:42Z</time>
      </trkpt>
      <trkpt lat="39.4714000" lon="-8.3021290">
        <ele>56.0</ele>
        <time>2019-07-11T10:59:48Z</time>
      </trkpt>
      <trkpt lat="39.4713760" lon="-8.3022700">
        <ele>55.8</ele>
        <time>2019-07-11T10:59:50Z</time>
      </trkpt>
      <trkpt lat="39.4713660" lon="-8.3023420">
        <ele>55.6</ele>
        <time>2019-07-11T10:59:51Z</time>
      </trkpt>
      <trkpt lat="39.4713420" lon="-8.3026450">
        <ele>54.8</ele>
        <time>2019-07-11T10:59:55Z</time>
      </trkpt>
      <trkpt lat="39.4713400" lon="-8.3028030">
        <ele>54.6</ele>
        <time>2019-07-11T10:59:57Z</time>
      </trkpt>
      <trkpt lat="39.4713460" lon="-8.3031750">
        <ele>54.0</ele>
        <time>2019-07-11T11:00:02Z</time>
      </trkpt>
      <trkpt lat="39.4713360" lon="-8.3032460">
        <ele>53.8</ele>
        <time>2019-07-11T11:00:03Z</time>
      </trkpt>
      <trkpt lat="39.4713260" lon="-8.3033150">
        <ele>53.8</ele>
        <time>2019-07-11T11:00:04Z</time>
      </trkpt>
      <trkpt lat="39.4712910" lon="-8.3037900">
        <ele>53.8</ele>
        <time>2019-07-11T11:00:11Z</time>
      </trkpt>
      <trkpt lat="39.4713570" lon="-8.3043150">
        <ele>53.8</ele>
        <time>2019-07-11T11:00:19Z</time>
      </trkpt>
      <trkpt lat="39.4714070" lon="-8.3047510">
        <ele>54.4</ele>
        <time>2019-07-11T11:00:26Z</time>
      </trkpt>
      <trkpt lat="39.4714170" lon="-8.3048130">
        <ele>54.6</ele>
        <time>2019-07-11T11:00:27Z</time>
      </trkpt>
      <trkpt lat="39.4714820" lon="-8.3053070">
        <ele>55.0</ele>
        <time>2019-07-11T11:00:35Z</time>
      </trkpt>
      <trkpt lat="39.4714920" lon="-8.3053660">
        <ele>55.0</ele>
        <time>2019-07-11T11:00:36Z</time>
      </trkpt>
      <trkpt lat="39.4715290" lon="-8.3056620">
        <ele>55.4</ele>
        <time>2019-07-11T11:00:41Z</time>
      </trkpt>
      <trkpt lat="39.4715690" lon="-8.3059030">
        <ele>55.6</ele>
        <time>2019-07-11T11:00:45Z</time>
      </trkpt>
      <trkpt lat="39.4715990" lon="-8.3063290">
        <ele>55.8</ele>
        <time>2019-07-11T11:00:52Z</time>
      </trkpt>
      <trkpt lat="39.4715800" lon="-8.3065630">
        <ele>56.2</ele>
        <time>2019-07-11T11:00:56Z</time>
      </trkpt>
      <trkpt lat="39.4715630" lon="-8.3066790">
        <ele>56.4</ele>
        <time>2019-07-11T11:00:58Z</time>
      </trkpt>
      <trkpt lat="39.4715220" lon="-8.3070280">
        <ele>56.6</ele>
        <time>2019-07-11T11:01:04Z</time>
      </trkpt>
      <trkpt lat="39.4715160" lon="-8.3071480">
        <ele>56.8</ele>
        <time>2019-07-11T11:01:06Z</time>
      </trkpt>
      <trkpt lat="39.4715410" lon="-8.3075800">
        <ele>56.6</ele>
        <time>2019-07-11T11:01:13Z</time>
      </trkpt>
      <trkpt lat="39.4715630" lon="-8.3080930">
        <ele>56.6</ele>
        <time>2019-07-11T11:01:21Z</time>
      </trkpt>
      <trkpt lat="39.4715950" lon="-8.3083430">
        <ele>56.8</ele>
        <time>2019-07-11T11:01:25Z</time>
      </trkpt>
      <trkpt lat="39.4716220" lon="-8.3084640">
        <ele>56.8</ele>
        <time>2019-07-11T11:01:27Z</time>
      </trkpt>
      <trkpt lat="39.4716580" lon="-8.3085870">
        <ele>56.8</ele>
        <time>2019-07-11T11:01:29Z</time>
      </trkpt>
      <trkpt lat="39.4717560" lon="-8.3088320">
        <ele>56.8</ele>
        <time>2019-07-11T11:01:33Z</time>
      </trkpt>
      <trkpt lat="39.4718150" lon="-8.3089540">
        <ele>56.8</ele>
        <time>2019-07-11T11:01:35Z</time>
      </trkpt>
      <trkpt lat="39.4719250" lon="-8.3092100">
        <ele>56.4</ele>
        <time>2019-07-11T11:01:39Z</time>
      </trkpt>
      <trkpt lat="39.4719850" lon="-8.3093370">
        <ele>56.2</ele>
        <time>2019-07-11T11:01:41Z</time>
      </trkpt>
      <trkpt lat="39.4720860" lon="-8.3096080">
        <ele>55.2</ele>
        <time>2019-07-11T11:01:45Z</time>
      </trkpt>
      <trkpt lat="39.4721510" lon="-8.3098240">
        <ele>54.8</ele>
        <time>2019-07-11T11:01:48Z</time>
      </trkpt>
      <trkpt lat="39.4722000" lon="-8.3099710">
        <ele>54.4</ele>
        <time>2019-07-11T11:01:50Z</time>
      </trkpt>
      <trkpt lat="39.4722280" lon="-8.3100430">
        <ele>54.2</ele>
        <time>2019-07-11T11:01:51Z</time>
      </trkpt>
      <trkpt lat="39.4722610" lon="-8.3101100">
        <ele>54.0</ele>
        <time>2019-07-11T11:01:52Z</time>
      </trkpt>
      <trkpt lat="39.4723390" lon="-8.3102360">
        <ele>53.8</ele>
        <time>2019-07-11T11:01:54Z</time>
      </trkpt>
      <trkpt lat="39.4724180" lon="-8.3103730">
        <ele>53.4</ele>
        <time>2019-07-11T11:01:56Z</time>
      </trkpt>
      <trkpt lat="39.4724520" lon="-8.3104490">
        <ele>53.2</ele>
        <time>2019-07-11T11:01:57Z</time>
      </trkpt>
      <trkpt lat="39.4725070" lon="-8.3106190">
        <ele>52.6</ele>
        <time>2019-07-11T11:01:59Z</time>
      </trkpt>
      <trkpt lat="39.4725260" lon="-8.3107120">
        <ele>52.4</ele>
        <time>2019-07-11T11:02:00Z</time>
      </trkpt>
      <trkpt lat="39.4725390" lon="-8.3108090">
        <ele>52.0</ele>
        <time>2019-07-11T11:02:01Z</time>
      </trkpt>
      <trkpt lat="39.4725510" lon="-8.3110060">
        <ele>51.0</ele>
        <time>2019-07-11T11:02:03Z</time>
      </trkpt>
      <trkpt lat="39.4725540" lon="-8.3111010">
        <ele>50.8</ele>
        <time>2019-07-11T11:02:04Z</time>
      </trkpt>
      <trkpt lat="39.4725510" lon="-8.3116400">
        <ele>49.8</ele>
        <time>2019-07-11T11:02:10Z</time>
      </trkpt>
      <trkpt lat="39.4725540" lon="-8.3117250">
        <ele>49.8</ele>
        <time>2019-07-11T11:02:11Z</time>
      </trkpt>
      <trkpt lat="39.4725630" lon="-8.3118080">
        <ele>49.6</ele>
        <time>2019-07-11T11:02:12Z</time>
      </trkpt>
      <trkpt lat="39.4726020" lon="-8.3119660">
        <ele>49.4</ele>
        <time>2019-07-11T11:02:14Z</time>
      </trkpt>
      <trkpt lat="39.4726310" lon="-8.3120400">
        <ele>49.4</ele>
        <time>2019-07-11T11:02:15Z</time>
      </trkpt>
      <trkpt lat="39.4726990" lon="-8.3121780">
        <ele>49.6</ele>
        <time>2019-07-11T11:02:17Z</time>
      </trkpt>
      <trkpt lat="39.4727780" lon="-8.3122990">
        <ele>49.6</ele>
        <time>2019-07-11T11:02:19Z</time>
      </trkpt>
      <trkpt lat="39.4728530" lon="-8.3124160">
        <ele>49.6</ele>
        <time>2019-07-11T11:02:21Z</time>
      </trkpt>
      <trkpt lat="39.4729370" lon="-8.3126130">
        <ele>49.2</ele>
        <time>2019-07-11T11:02:24Z</time>
      </trkpt>
      <trkpt lat="39.4730130" lon="-8.3128160">
        <ele>49.2</ele>
        <time>2019-07-11T11:02:27Z</time>
      </trkpt>
      <trkpt lat="39.4730900" lon="-8.3130080">
        <ele>49.0</ele>
        <time>2019-07-11T11:02:30Z</time>
      </trkpt>
      <trkpt lat="39.4731650" lon="-8.3131950">
        <ele>48.8</ele>
        <time>2019-07-11T11:02:33Z</time>
      </trkpt>
      <trkpt lat="39.4733180" lon="-8.3135530">
        <ele>49.2</ele>
        <time>2019-07-11T11:02:39Z</time>
      </trkpt>
      <trkpt lat="39.4733790" lon="-8.3137360">
        <ele>49.2</ele>
        <time>2019-07-11T11:02:42Z</time>
      </trkpt>
      <trkpt lat="39.4735600" lon="-8.3142870">
        <ele>49.4</ele>
        <time>2019-07-11T11:02:51Z</time>
      </trkpt>
      <trkpt lat="39.4737400" lon="-8.3149140">
        <ele>48.8</ele>
        <time>2019-07-11T11:03:01Z</time>
      </trkpt>
      <trkpt lat="39.4737570" lon="-8.3149800">
        <ele>48.8</ele>
        <time>2019-07-11T11:03:02Z</time>
      </trkpt>
      <trkpt lat="39.4739330" lon="-8.3155750">
        <ele>48.6</ele>
        <time>2019-07-11T11:03:11Z</time>
      </trkpt>
      <trkpt lat="39.4741030" lon="-8.3161150">
        <ele>48.8</ele>
        <time>2019-07-11T11:03:19Z</time>
      </trkpt>
      <trkpt lat="39.4742710" lon="-8.3166420">
        <ele>48.4</ele>
        <time>2019-07-11T11:03:27Z</time>
      </trkpt>
      <trkpt lat="39.4742970" lon="-8.3167020">
        <ele>48.2</ele>
        <time>2019-07-11T11:03:28Z</time>
      </trkpt>
      <trkpt lat="39.4745510" lon="-8.3172140">
        <ele>48.2</ele>
        <time>2019-07-11T11:03:37Z</time>
      </trkpt>
      <trkpt lat="39.4746560" lon="-8.3174470">
        <ele>48.2</ele>
        <time>2019-07-11T11:03:41Z</time>
      </trkpt>
      <trkpt lat="39.4747380" lon="-8.3176180">
        <ele>48.2</ele>
        <time>2019-07-11T11:03:44Z</time>
      </trkpt>
      <trkpt lat="39.4749580" lon="-8.3180630">
        <ele>48.4</ele>
        <time>2019-07-11T11:03:52Z</time>
      </trkpt>
      <trkpt lat="39.4750100" lon="-8.3181760">
        <ele>48.4</ele>
        <time>2019-07-11T11:03:54Z</time>
      </trkpt>
      <trkpt lat="39.4752250" lon="-8.3186540">
        <ele>49.0</ele>
        <time>2019-07-11T11:04:02Z</time>
      </trkpt>
      <trkpt lat="39.4753010" lon="-8.3188240">
        <ele>48.6</ele>
        <time>2019-07-11T11:04:05Z</time>
      </trkpt>
      <trkpt lat="39.4753920" lon="-8.3189630">
        <ele>48.6</ele>
        <time>2019-07-11T11:04:08Z</time>
      </trkpt>
      <trkpt lat="39.4756090" lon="-8.3191580">
        <ele>49.0</ele>
        <time>2019-07-11T11:04:14Z</time>
      </trkpt>
      <trkpt lat="39.4757970" lon="-8.3193280">
        <ele>50.0</ele>
        <time>2019-07-11T11:04:20Z</time>
      </trkpt>
      <trkpt lat="39.4759970" lon="-8.3195000">
        <ele>50.8</ele>
        <time>2019-07-11T11:04:27Z</time>
      </trkpt>
      <trkpt lat="39.4760590" lon="-8.3195620">
        <ele>51.0</ele>
        <time>2019-07-11T11:04:29Z</time>
      </trkpt>
      <trkpt lat="39.4762620" lon="-8.3197580">
        <ele>51.2</ele>
        <time>2019-07-11T11:04:35Z</time>
      </trkpt>
      <trkpt lat="39.4764110" lon="-8.3198870">
        <ele>50.8</ele>
        <time>2019-07-11T11:04:39Z</time>
      </trkpt>
      <trkpt lat="39.4765030" lon="-8.3199520">
        <ele>50.6</ele>
        <time>2019-07-11T11:04:41Z</time>
      </trkpt>
      <trkpt lat="39.4767640" lon="-8.3202250">
        <ele>50.2</ele>
        <time>2019-07-11T11:04:47Z</time>
      </trkpt>
      <trkpt lat="39.4769070" lon="-8.3204440">
        <ele>50.2</ele>
        <time>2019-07-11T11:04:51Z</time>
      </trkpt>
      <trkpt lat="39.4770160" lon="-8.3205880">
        <ele>50.4</ele>
        <time>2019-07-11T11:04:54Z</time>
      </trkpt>
      <trkpt lat="39.4771290" lon="-8.3207230">
        <ele>50.4</ele>
        <time>2019-07-11T11:04:57Z</time>
      </trkpt>
      <trkpt lat="39.4772700" lon="-8.3208980">
        <ele>50.8</ele>
        <time>2019-07-11T11:05:01Z</time>
      </trkpt>
      <trkpt lat="39.4774240" lon="-8.3210750">
        <ele>50.4</ele>
        <time>2019-07-11T11:05:05Z</time>
      </trkpt>
      <trkpt lat="39.4774980" lon="-8.3211740">
        <ele>50.2</ele>
        <time>2019-07-11T11:05:07Z</time>
      </trkpt>
      <trkpt lat="39.4777230" lon="-8.3215210">
        <ele>50.0</ele>
        <time>2019-07-11T11:05:13Z</time>
      </trkpt>
      <trkpt lat="39.4777590" lon="-8.3215880">
        <ele>50.0</ele>
        <time>2019-07-11T11:05:14Z</time>
      </trkpt>
      <trkpt lat="39.4780060" lon="-8.3219470">
        <ele>49.8</ele>
        <time>2019-07-11T11:05:20Z</time>
      </trkpt>
      <trkpt lat="39.4783410" lon="-8.3224040">
        <ele>49.6</ele>
        <time>2019-07-11T11:05:28Z</time>
      </trkpt>
      <trkpt lat="39.4783760" lon="-8.3224650">
        <ele>49.6</ele>
        <time>2019-07-11T11:05:29Z</time>
      </trkpt>
      <trkpt lat="39.4784470" lon="-8.3226750">
        <ele>49.8</ele>
        <time>2019-07-11T11:05:32Z</time>
      </trkpt>
      <trkpt lat="39.4785760" lon="-8.3232560">
        <ele>50.2</ele>
        <time>2019-07-11T11:05:40Z</time>
      </trkpt>
      <trkpt lat="39.4787520" lon="-8.3238030">
        <ele>49.8</ele>
        <time>2019-07-11T11:05:48Z</time>
      </trkpt>
      <trkpt lat="39.4789590" lon="-8.3243040">
        <ele>49.8</ele>
        <time>2019-07-11T11:05:56Z</time>
      </trkpt>
      <trkpt lat="39.4789860" lon="-8.3243630">
        <ele>49.8</ele>
        <time>2019-07-11T11:05:57Z</time>
      </trkpt>
      <trkpt lat="39.4792040" lon="-8.3247540">
        <ele>49.6</ele>
        <time>2019-07-11T11:06:04Z</time>
      </trkpt>
      <trkpt lat="39.4794030" lon="-8.3252140">
        <ele>50.0</ele>
        <time>2019-07-11T11:06:12Z</time>
      </trkpt>
      <trkpt lat="39.4795800" lon="-8.3256210">
        <ele>50.2</ele>
        <time>2019-07-11T11:06:19Z</time>
      </trkpt>
      <trkpt lat="39.4798350" lon="-8.3262800">
        <ele>50.4</ele>
        <time>2019-07-11T11:06:30Z</time>
      </trkpt>
      <trkpt lat="39.4800030" lon="-8.3268510">
        <ele>50.6</ele>
        <time>2019-07-11T11:06:39Z</time>
      </trkpt>
      <trkpt lat="39.4801750" lon="-8.3273930">
        <ele>51.0</ele>
        <time>2019-07-11T11:06:48Z</time>
      </trkpt>
      <trkpt lat="39.4802330" lon="-8.3277710">
        <ele>51.0</ele>
        <time>2019-07-11T11:06:54Z</time>
      </trkpt>
      <trkpt lat="39.4802410" lon="-8.3278340">
        <ele>51.0</ele>
        <time>2019-07-11T11:06:55Z</time>
      </trkpt>
      <trkpt lat="39.4802280" lon="-8.3280250">
        <ele>51.0</ele>
        <time>2019-07-11T11:06:58Z</time>
      </trkpt>
      <trkpt lat="39.4802210" lon="-8.3280920">
        <ele>51.0</ele>
        <time>2019-07-11T11:06:59Z</time>
      </trkpt>
      <trkpt lat="39.4802180" lon="-8.3285630">
        <ele>50.6</ele>
        <time>2019-07-11T11:07:06Z</time>
      </trkpt>
      <trkpt lat="39.4802220" lon="-8.3288320">
        <ele>50.4</ele>
        <time>2019-07-11T11:07:10Z</time>
      </trkpt>
      <trkpt lat="39.4802210" lon="-8.3290160">
        <ele>50.2</ele>
        <time>2019-07-11T11:07:13Z</time>
      </trkpt>
      <trkpt lat="39.4802240" lon="-8.3291950">
        <ele>50.2</ele>
        <time>2019-07-11T11:07:16Z</time>
      </trkpt>
      <trkpt lat="39.4802120" lon="-8.3293130">
        <ele>50.4</ele>
        <time>2019-07-11T11:07:18Z</time>
      </trkpt>
      <trkpt lat="39.4801490" lon="-8.3297270">
        <ele>50.6</ele>
        <time>2019-07-11T11:07:25Z</time>
      </trkpt>
      <trkpt lat="39.4800700" lon="-8.3301260">
        <ele>51.0</ele>
        <time>2019-07-11T11:07:32Z</time>
      </trkpt>
      <trkpt lat="39.4799540" lon="-8.3306830">
        <ele>51.2</ele>
        <time>2019-07-11T11:07:41Z</time>
      </trkpt>
      <trkpt lat="39.4798790" lon="-8.3311750">
        <ele>51.0</ele>
        <time>2019-07-11T11:07:49Z</time>
      </trkpt>
      <trkpt lat="39.4798270" lon="-8.3315160">
        <ele>51.4</ele>
        <time>2019-07-11T11:07:55Z</time>
      </trkpt>
      <trkpt lat="39.4798140" lon="-8.3315710">
        <ele>51.4</ele>
        <time>2019-07-11T11:07:56Z</time>
      </trkpt>
      <trkpt lat="39.4797020" lon="-8.3319930">
        <ele>51.4</ele>
        <time>2019-07-11T11:08:03Z</time>
      </trkpt>
      <trkpt lat="39.4795690" lon="-8.3324910">
        <ele>51.6</ele>
        <time>2019-07-11T11:08:11Z</time>
      </trkpt>
      <trkpt lat="39.4794170" lon="-8.3329440">
        <ele>52.2</ele>
        <time>2019-07-11T11:08:19Z</time>
      </trkpt>
      <trkpt lat="39.4793140" lon="-8.3332370">
        <ele>51.4</ele>
        <time>2019-07-11T11:08:24Z</time>
      </trkpt>
      <trkpt lat="39.4792760" lon="-8.3333610">
        <ele>51.4</ele>
        <time>2019-07-11T11:08:26Z</time>
      </trkpt>
      <trkpt lat="39.4792070" lon="-8.3335490">
        <ele>51.0</ele>
        <time>2019-07-11T11:08:29Z</time>
      </trkpt>
      <trkpt lat="39.4791430" lon="-8.3336560">
        <ele>51.0</ele>
        <time>2019-07-11T11:08:31Z</time>
      </trkpt>
      <trkpt lat="39.4790760" lon="-8.3337490">
        <ele>51.2</ele>
        <time>2019-07-11T11:08:33Z</time>
      </trkpt>
      <trkpt lat="39.4789820" lon="-8.3338820">
        <ele>51.6</ele>
        <time>2019-07-11T11:08:36Z</time>
      </trkpt>
      <trkpt lat="39.4789550" lon="-8.3339320">
        <ele>51.6</ele>
        <time>2019-07-11T11:08:37Z</time>
      </trkpt>
      <trkpt lat="39.4788390" lon="-8.3341350">
        <ele>52.0</ele>
        <time>2019-07-11T11:08:41Z</time>
      </trkpt>
      <trkpt lat="39.4786940" lon="-8.3343370">
        <ele>52.0</ele>
        <time>2019-07-11T11:08:45Z</time>
      </trkpt>
      <trkpt lat="39.4785330" lon="-8.3344970">
        <ele>52.0</ele>
        <time>2019-07-11T11:08:49Z</time>
      </trkpt>
      <trkpt lat="39.4784340" lon="-8.3345500">
        <ele>51.8</ele>
        <time>2019-07-11T11:08:51Z</time>
      </trkpt>
      <trkpt lat="39.4780710" lon="-8.3347280">
        <ele>50.6</ele>
        <time>2019-07-11T11:08:57Z</time>
      </trkpt>
      <trkpt lat="39.4778770" lon="-8.3348470">
        <ele>49.4</ele>
        <time>2019-07-11T11:09:00Z</time>
      </trkpt>
      <trkpt lat="39.4777570" lon="-8.3349370">
        <ele>48.8</ele>
        <time>2019-07-11T11:09:02Z</time>
      </trkpt>
      <trkpt lat="39.4776500" lon="-8.3350330">
        <ele>48.6</ele>
        <time>2019-07-11T11:09:04Z</time>
      </trkpt>
      <trkpt lat="39.4774140" lon="-8.3352360">
        <ele>49.0</ele>
        <time>2019-07-11T11:09:09Z</time>
      </trkpt>
      <trkpt lat="39.4773320" lon="-8.3353000">
        <ele>49.2</ele>
        <time>2019-07-11T11:09:11Z</time>
      </trkpt>
      <trkpt lat="39.4772650" lon="-8.3353710">
        <ele>49.4</ele>
        <time>2019-07-11T11:09:13Z</time>
      </trkpt>
      <trkpt lat="39.4771980" lon="-8.3354390">
        <ele>49.6</ele>
        <time>2019-07-11T11:09:15Z</time>
      </trkpt>
      <trkpt lat="39.4769840" lon="-8.3355970">
        <ele>50.0</ele>
        <time>2019-07-11T11:09:20Z</time>
      </trkpt>
      <trkpt lat="39.4769320" lon="-8.3356420">
        <ele>49.8</ele>
        <time>2019-07-11T11:09:21Z</time>
      </trkpt>
      <trkpt lat="39.4767390" lon="-8.3357510">
        <ele>48.6</ele>
        <time>2019-07-11T11:09:24Z</time>
      </trkpt>
      <trkpt lat="39.4766680" lon="-8.3357870">
        <ele>48.2</ele>
        <time>2019-07-11T11:09:25Z</time>
      </trkpt>
      <trkpt lat="39.4765950" lon="-8.3358190">
        <ele>48.0</ele>
        <time>2019-07-11T11:09:26Z</time>
      </trkpt>
      <trkpt lat="39.4763900" lon="-8.3359320">
        <ele>47.2</ele>
        <time>2019-07-11T11:09:29Z</time>
      </trkpt>
      <trkpt lat="39.4762720" lon="-8.3360260">
        <ele>46.6</ele>
        <time>2019-07-11T11:09:31Z</time>
      </trkpt>
      <trkpt lat="39.4762200" lon="-8.3360760">
        <ele>46.6</ele>
        <time>2019-07-11T11:09:32Z</time>
      </trkpt>
      <trkpt lat="39.4761050" lon="-8.3362300">
        <ele>46.6</ele>
        <time>2019-07-11T11:09:35Z</time>
      </trkpt>
      <trkpt lat="39.4760800" lon="-8.3362810">
        <ele>46.6</ele>
        <time>2019-07-11T11:09:36Z</time>
      </trkpt>
      <trkpt lat="39.4760340" lon="-8.3364270">
        <ele>47.2</ele>
        <time>2019-07-11T11:09:39Z</time>
      </trkpt>
      <trkpt lat="39.4759750" lon="-8.3365500">
        <ele>47.6</ele>
        <time>2019-07-11T11:09:42Z</time>
      </trkpt>
      <trkpt lat="39.4759310" lon="-8.3366270">
        <ele>47.8</ele>
        <time>2019-07-11T11:09:44Z</time>
      </trkpt>
      <trkpt lat="39.4757860" lon="-8.3368420">
        <ele>48.0</ele>
        <time>2019-07-11T11:09:50Z</time>
      </trkpt>
      <trkpt lat="39.4756910" lon="-8.3369290">
        <ele>48.4</ele>
        <time>2019-07-11T11:09:53Z</time>
      </trkpt>
      <trkpt lat="39.4756590" lon="-8.3369630">
        <ele>48.4</ele>
        <time>2019-07-11T11:09:54Z</time>
      </trkpt>
      <trkpt lat="39.4756220" lon="-8.3369840">
        <ele>48.6</ele>
        <time>2019-07-11T11:09:55Z</time>
      </trkpt>
      <trkpt lat="39.4754680" lon="-8.3370470">
        <ele>48.2</ele>
        <time>2019-07-11T11:09:59Z</time>
      </trkpt>
      <trkpt lat="39.4753360" lon="-8.3371220">
        <ele>48.2</ele>
        <time>2019-07-11T11:10:02Z</time>
      </trkpt>
      <trkpt lat="39.4752410" lon="-8.3371750">
        <ele>47.8</ele>
        <time>2019-07-11T11:10:04Z</time>
      </trkpt>
      <trkpt lat="39.4751230" lon="-8.3372860">
        <ele>47.2</ele>
        <time>2019-07-11T11:10:07Z</time>
      </trkpt>
      <trkpt lat="39.4749920" lon="-8.3374360">
        <ele>47.0</ele>
        <time>2019-07-11T11:10:11Z</time>
      </trkpt>
      <trkpt lat="39.4749270" lon="-8.3375210">
        <ele>46.8</ele>
        <time>2019-07-11T11:10:13Z</time>
      </trkpt>
      <trkpt lat="39.4748970" lon="-8.3375650">
        <ele>46.8</ele>
        <time>2019-07-11T11:10:14Z</time>
      </trkpt>
      <trkpt lat="39.4748430" lon="-8.3377010">
        <ele>46.6</ele>
        <time>2019-07-11T11:10:17Z</time>
      </trkpt>
      <trkpt lat="39.4747890" lon="-8.3379650">
        <ele>47.2</ele>
        <time>2019-07-11T11:10:22Z</time>
      </trkpt>
      <trkpt lat="39.4747750" lon="-8.3380220">
        <ele>47.2</ele>
        <time>2019-07-11T11:10:23Z</time>
      </trkpt>
      <trkpt lat="39.4746720" lon="-8.3382940">
        <ele>46.8</ele>
        <time>2019-07-11T11:10:29Z</time>
      </trkpt>
      <trkpt lat="39.4746310" lon="-8.3385080">
        <ele>48.2</ele>
        <time>2019-07-11T11:10:35Z</time>
      </trkpt>
      <trkpt lat="39.4746370" lon="-8.3385390">
        <ele>48.4</ele>
        <time>2019-07-11T11:10:36Z</time>
      </trkpt>
      <trkpt lat="39.4746960" lon="-8.3386410">
        <ele>48.8</ele>
        <time>2019-07-11T11:10:40Z</time>
      </trkpt>
      <trkpt lat="39.4747870" lon="-8.3387450">
        <ele>49.4</ele>
        <time>2019-07-11T11:10:45Z</time>
      </trkpt>
      <trkpt lat="39.4748070" lon="-8.3387570">
        <ele>49.6</ele>
        <time>2019-07-11T11:10:46Z</time>
      </trkpt>
      <trkpt lat="39.4748940" lon="-8.3387680">
        <ele>50.0</ele>
        <time>2019-07-11T11:10:50Z</time>
      </trkpt>
      <trkpt lat="39.4749090" lon="-8.3387510">
        <ele>50.4</ele>
        <time>2019-07-11T11:10:51Z</time>
      </trkpt>
      <trkpt lat="39.4749210" lon="-8.3387310">
        <ele>50.6</ele>
        <time>2019-07-11T11:10:52Z</time>
      </trkpt>
      <trkpt lat="39.4749440" lon="-8.3386610">
        <ele>51.2</ele>
        <time>2019-07-11T11:10:55Z</time>
      </trkpt>
      <trkpt lat="39.4749500" lon="-8.3386400">
        <ele>51.4</ele>
        <time>2019-07-11T11:10:56Z</time>
      </trkpt>
      <trkpt lat="39.4749560" lon="-8.3386210">
        <ele>51.6</ele>
        <time>2019-07-11T11:10:57Z</time>
      </trkpt>
      <trkpt lat="39.4749750" lon="-8.3385510">
        <ele>52.6</ele>
        <time>2019-07-11T11:11:01Z</time>
      </trkpt>
      <trkpt lat="39.4749780" lon="-8.3385340">
        <ele>52.8</ele>
        <time>2019-07-11T11:11:02Z</time>
      </trkpt>
      <trkpt lat="39.4749810" lon="-8.3384990">
        <ele>53.2</ele>
        <time>2019-07-11T11:11:04Z</time>
      </trkpt>
      <trkpt lat="39.4749730" lon="-8.3384330">
        <ele>53.6</ele>
        <time>2019-07-11T11:11:07Z</time>
      </trkpt>
      <trkpt lat="39.4749750" lon="-8.3383910">
        <ele>54.2</ele>
        <time>2019-07-11T11:11:09Z</time>
      </trkpt>
      <trkpt lat="39.4749900" lon="-8.3383290">
        <ele>54.8</ele>
        <time>2019-07-11T11:11:12Z</time>
      </trkpt>
      <trkpt lat="39.4749880" lon="-8.3382620">
        <ele>55.4</ele>
        <time>2019-07-11T11:11:15Z</time>
      </trkpt>
      <trkpt lat="39.4749970" lon="-8.3382480">
        <ele>55.6</ele>
        <time>2019-07-11T11:11:16Z</time>
      </trkpt>
      <trkpt lat="39.4750370" lon="-8.3381230">
        <ele>56.0</ele>
        <time>2019-07-11T11:11:23Z</time>
      </trkpt>
      <trkpt lat="39.4750470" lon="-8.3380640">
        <ele>56.2</ele>
        <time>2019-07-11T11:11:25Z</time>
      </trkpt>
      <trkpt lat="39.4751240" lon="-8.3379570">
        <ele>56.4</ele>
        <time>2019-07-11T11:11:29Z</time>
      </trkpt>
      <trkpt lat="39.4752530" lon="-8.3378660">
        <ele>55.6</ele>
        <time>2019-07-11T11:11:33Z</time>
      </trkpt>
      <trkpt lat="39.4752780" lon="-8.3378520">
        <ele>55.6</ele>
        <time>2019-07-11T11:11:34Z</time>
      </trkpt>
      <trkpt lat="39.4754000" lon="-8.3377730">
        <ele>56.8</ele>
        <time>2019-07-11T11:11:41Z</time>
      </trkpt>
      <trkpt lat="39.4754510" lon="-8.3377410">
        <ele>57.4</ele>
        <time>2019-07-11T11:11:44Z</time>
      </trkpt>
      <trkpt lat="39.4755020" lon="-8.3376820">
        <ele>58.0</ele>
        <time>2019-07-11T11:11:47Z</time>
      </trkpt>
      <trkpt lat="39.4755790" lon="-8.3375800">
        <ele>59.0</ele>
        <time>2019-07-11T11:11:52Z</time>
      </trkpt>
      <trkpt lat="39.4755950" lon="-8.3375620">
        <ele>59.2</ele>
        <time>2019-07-11T11:11:53Z</time>
      </trkpt>
      <trkpt lat="39.4756760" lon="-8.3374630">
        <ele>60.0</ele>
        <time>2019-07-11T11:11:58Z</time>
      </trkpt>
      <trkpt lat="39.4757280" lon="-8.3374220">
        <ele>60.0</ele>
        <time>2019-07-11T11:12:00Z</time>
      </trkpt>
      <trkpt lat="39.4758040" lon="-8.3373650">
        <ele>60.4</ele>
        <time>2019-07-11T11:12:03Z</time>
      </trkpt>
      <trkpt lat="39.4759620" lon="-8.3373400">
        <ele>61.0</ele>
        <time>2019-07-11T11:12:08Z</time>
      </trkpt>
      <trkpt lat="39.4760840" lon="-8.3373330">
        <ele>61.4</ele>
        <time>2019-07-11T11:12:12Z</time>
      </trkpt>
      <trkpt lat="39.4761290" lon="-8.3373130">
        <ele>61.4</ele>
        <time>2019-07-11T11:12:14Z</time>
      </trkpt>
      <trkpt lat="39.4762420" lon="-8.3372330">
        <ele>62.2</ele>
        <time>2019-07-11T11:12:20Z</time>
      </trkpt>
      <trkpt lat="39.4762570" lon="-8.3372220">
        <ele>62.4</ele>
        <time>2019-07-11T11:12:21Z</time>
      </trkpt>
      <trkpt lat="39.4763030" lon="-8.3371930">
        <ele>62.8</ele>
        <time>2019-07-11T11:12:25Z</time>
      </trkpt>
      <trkpt lat="39.4763140" lon="-8.3371850">
        <ele>63.0</ele>
        <time>2019-07-11T11:12:26Z</time>
      </trkpt>
      <trkpt lat="39.4764040" lon="-8.3371290">
        <ele>63.6</ele>
        <time>2019-07-11T11:12:33Z</time>
      </trkpt>
      <trkpt lat="39.4764190" lon="-8.3371180">
        <ele>63.6</ele>
        <time>2019-07-11T11:12:34Z</time>
      </trkpt>
      <trkpt lat="39.4764700" lon="-8.3371070">
        <ele>63.8</ele>
        <time>2019-07-11T11:12:37Z</time>
      </trkpt>
      <trkpt lat="39.4764810" lon="-8.3371050">
        <ele>64.0</ele>
        <time>2019-07-11T11:12:38Z</time>
      </trkpt>
      <trkpt lat="39.4765040" lon="-8.3371210">
        <ele>64.4</ele>
        <time>2019-07-11T11:12:41Z</time>
      </trkpt>
      <trkpt lat="39.4764970" lon="-8.3371530">
        <ele>64.6</ele>
        <time>2019-07-11T11:12:43Z</time>
      </trkpt>
      <trkpt lat="39.4764490" lon="-8.3371340">
        <ele>64.4</ele>
        <time>2019-07-11T11:12:47Z</time>
      </trkpt>
      <trkpt lat="39.4763690" lon="-8.3371600">
        <ele>64.2</ele>
        <time>2019-07-11T11:12:50Z</time>
      </trkpt>
      <trkpt lat="39.4763370" lon="-8.3371750">
        <ele>64.0</ele>
        <time>2019-07-11T11:12:51Z</time>
      </trkpt>
      <trkpt lat="39.4763070" lon="-8.3371880">
        <ele>63.8</ele>
        <time>2019-07-11T11:12:52Z</time>
      </trkpt>
      <trkpt lat="39.4762620" lon="-8.3372190">
        <ele>63.0</ele>
        <time>2019-07-11T11:12:55Z</time>
      </trkpt>
      <trkpt lat="39.4762590" lon="-8.3372230">
        <ele>62.8</ele>
        <time>2019-07-11T11:12:57Z</time>
      </trkpt>
      <trkpt lat="39.4762110" lon="-8.3372550">
        <ele>62.4</ele>
        <time>2019-07-11T11:13:15Z</time>
      </trkpt>
      <trkpt lat="39.4761680" lon="-8.3372860">
        <ele>62.4</ele>
        <time>2019-07-11T11:13:17Z</time>
      </trkpt>
      <trkpt lat="39.4761160" lon="-8.3373010">
        <ele>62.4</ele>
        <time>2019-07-11T11:13:19Z</time>
      </trkpt>
      <trkpt lat="39.4760400" lon="-8.3373030">
        <ele>62.2</ele>
        <time>2019-07-11T11:13:21Z</time>
      </trkpt>
      <trkpt lat="39.4758760" lon="-8.3373480">
        <ele>61.4</ele>
        <time>2019-07-11T11:13:25Z</time>
      </trkpt>
      <trkpt lat="39.4758370" lon="-8.3373690">
        <ele>61.2</ele>
        <time>2019-07-11T11:13:26Z</time>
      </trkpt>
      <trkpt lat="39.4757440" lon="-8.3374380">
        <ele>61.0</ele>
        <time>2019-07-11T11:13:29Z</time>
      </trkpt>
      <trkpt lat="39.4756900" lon="-8.3374890">
        <ele>60.4</ele>
        <time>2019-07-11T11:13:33Z</time>
      </trkpt>
      <trkpt lat="39.4756850" lon="-8.3374880">
        <ele>60.4</ele>
        <time>2019-07-11T11:13:34Z</time>
      </trkpt>
      <trkpt lat="39.4756270" lon="-8.3375210">
        <ele>60.8</ele>
        <time>2019-07-11T11:15:38Z</time>
      </trkpt>
      <trkpt lat="39.4756080" lon="-8.3375390">
        <ele>60.6</ele>
        <time>2019-07-11T11:15:39Z</time>
      </trkpt>
      <trkpt lat="39.4755370" lon="-8.3375840">
        <ele>60.2</ele>
        <time>2019-07-11T11:15:42Z</time>
      </trkpt>
      <trkpt lat="39.4754500" lon="-8.3376390">
        <ele>59.6</ele>
        <time>2019-07-11T11:15:44Z</time>
      </trkpt>
      <trkpt lat="39.4753310" lon="-8.3377110">
        <ele>59.0</ele>
        <time>2019-07-11T11:15:46Z</time>
      </trkpt>
      <trkpt lat="39.4752130" lon="-8.3377870">
        <ele>58.0</ele>
        <time>2019-07-11T11:15:48Z</time>
      </trkpt>
      <trkpt lat="39.4751650" lon="-8.3378260">
        <ele>57.6</ele>
        <time>2019-07-11T11:15:49Z</time>
      </trkpt>
      <trkpt lat="39.4750780" lon="-8.3379300">
        <ele>56.6</ele>
        <time>2019-07-11T11:15:52Z</time>
      </trkpt>
      <trkpt lat="39.4750380" lon="-8.3381290">
        <ele>56.8</ele>
        <time>2019-07-11T11:15:57Z</time>
      </trkpt>
      <trkpt lat="39.4750070" lon="-8.3383120">
        <ele>56.4</ele>
        <time>2019-07-11T11:16:01Z</time>
      </trkpt>
      <trkpt lat="39.4749990" lon="-8.3383640">
        <ele>56.0</ele>
        <time>2019-07-11T11:16:02Z</time>
      </trkpt>
      <trkpt lat="39.4749690" lon="-8.3385070">
        <ele>55.0</ele>
        <time>2019-07-11T11:16:05Z</time>
      </trkpt>
      <trkpt lat="39.4749420" lon="-8.3385860">
        <ele>54.0</ele>
        <time>2019-07-11T11:16:07Z</time>
      </trkpt>
      <trkpt lat="39.4749350" lon="-8.3386180">
        <ele>53.6</ele>
        <time>2019-07-11T11:16:08Z</time>
      </trkpt>
      <trkpt lat="39.4748800" lon="-8.3387450">
        <ele>52.2</ele>
        <time>2019-07-11T11:16:12Z</time>
      </trkpt>
      <trkpt lat="39.4748450" lon="-8.3389530">
        <ele>51.6</ele>
        <time>2019-07-11T11:16:16Z</time>
      </trkpt>
      <trkpt lat="39.4747420" lon="-8.3400350">
        <ele>51.0</ele>
        <time>2019-07-11T11:16:50Z</time>
      </trkpt>
      <trkpt lat="39.4748010" lon="-8.3401010">
        <ele>51.0</ele>
        <time>2019-07-11T11:16:56Z</time>
      </trkpt>
      <trkpt lat="39.4748010" lon="-8.3401300">
        <ele>51.0</ele>
        <time>2019-07-11T11:16:58Z</time>
      </trkpt>
      <trkpt lat="39.4747790" lon="-8.3401410">
        <ele>51.0</ele>
        <time>2019-07-11T11:17:00Z</time>
      </trkpt>
      <trkpt lat="39.4747600" lon="-8.3400890">
        <ele>51.0</ele>
        <time>2019-07-11T11:17:04Z</time>
      </trkpt>
      <trkpt lat="39.4747420" lon="-8.3400570">
        <ele>51.0</ele>
        <time>2019-07-11T11:17:06Z</time>
      </trkpt>
      <trkpt lat="39.4747220" lon="-8.3400130">
        <ele>51.0</ele>
        <time>2019-07-11T11:17:10Z</time>
      </trkpt>
      <trkpt lat="39.4747220" lon="-8.3400130">
        <ele>51.0</ele>
        <time>2019-07-11T11:17:11Z</time>
      </trkpt>
      <trkpt lat="39.4747780" lon="-8.3399790">
        <ele>51.0</ele>
        <time>2019-07-11T11:19:00Z</time>
      </trkpt>
      <trkpt lat="39.4747880" lon="-8.3399560">
        <ele>51.0</ele>
        <time>2019-07-11T11:19:01Z</time>
      </trkpt>
      <trkpt lat="39.4748000" lon="-8.3399280">
        <ele>51.0</ele>
        <time>2019-07-11T11:19:02Z</time>
      </trkpt>
      <trkpt lat="39.4748690" lon="-8.3397740">
        <ele>50.6</ele>
        <time>2019-07-11T11:19:07Z</time>
      </trkpt>
      <trkpt lat="39.4749120" lon="-8.3396780">
        <ele>50.4</ele>
        <time>2019-07-11T11:19:10Z</time>
      </trkpt>
      <trkpt lat="39.4749690" lon="-8.3396000">
        <ele>50.6</ele>
        <time>2019-07-11T11:19:13Z</time>
      </trkpt>
      <trkpt lat="39.4750130" lon="-8.3395240">
        <ele>50.6</ele>
        <time>2019-07-11T11:19:16Z</time>
      </trkpt>
      <trkpt lat="39.4750390" lon="-8.3394970">
        <ele>50.6</ele>
        <time>2019-07-11T11:19:20Z</time>
      </trkpt>
      <trkpt lat="39.4749210" lon="-8.3393480">
        <ele>50.8</ele>
        <time>2019-07-11T11:19:59Z</time>
      </trkpt>
      <trkpt lat="39.4749120" lon="-8.3393330">
        <ele>50.8</ele>
        <time>2019-07-11T11:20:00Z</time>
      </trkpt>
      <trkpt lat="39.4748960" lon="-8.3393000">
        <ele>50.8</ele>
        <time>2019-07-11T11:20:02Z</time>
      </trkpt>
      <trkpt lat="39.4748790" lon="-8.3392980">
        <ele>50.8</ele>
        <time>2019-07-11T11:20:03Z</time>
      </trkpt>
      <trkpt lat="39.4748450" lon="-8.3392560">
        <ele>50.6</ele>
        <time>2019-07-11T11:20:06Z</time>
      </trkpt>
      <trkpt lat="39.4748480" lon="-8.3392050">
        <ele>50.6</ele>
        <time>2019-07-11T11:20:09Z</time>
      </trkpt>
      <trkpt lat="39.4748590" lon="-8.3391780">
        <ele>50.6</ele>
        <time>2019-07-11T11:20:11Z</time>
      </trkpt>
      <trkpt lat="39.4748700" lon="-8.3392000">
        <ele>50.8</ele>
        <time>2019-07-11T11:20:15Z</time>
      </trkpt>
      <trkpt lat="39.4748590" lon="-8.3392410">
        <ele>50.6</ele>
        <time>2019-07-11T11:20:18Z</time>
      </trkpt>
      <trkpt lat="39.4748660" lon="-8.3392870">
        <ele>50.6</ele>
        <time>2019-07-11T11:20:20Z</time>
      </trkpt>
      <trkpt lat="39.4749450" lon="-8.3394010">
        <ele>50.8</ele>
        <time>2019-07-11T11:20:26Z</time>
      </trkpt>
      <trkpt lat="39.4749620" lon="-8.3394130">
        <ele>50.8</ele>
        <time>2019-07-11T11:20:28Z</time>
      </trkpt>
      <trkpt lat="39.4749650" lon="-8.3394140">
        <ele>50.8</ele>
        <time>2019-07-11T11:20:29Z</time>
      </trkpt>
      <trkpt lat="39.4750140" lon="-8.3393790">
        <ele>50.4</ele>
        <time>2019-07-11T11:21:07Z</time>
      </trkpt>
      <trkpt lat="39.4750110" lon="-8.3393570">
        <ele>50.4</ele>
        <time>2019-07-11T11:21:09Z</time>
      </trkpt>
      <trkpt lat="39.4749950" lon="-8.3393290">
        <ele>50.6</ele>
        <time>2019-07-11T11:21:11Z</time>
      </trkpt>
      <trkpt lat="39.4749300" lon="-8.3392470">
        <ele>50.6</ele>
        <time>2019-07-11T11:21:16Z</time>
      </trkpt>
      <trkpt lat="39.4749130" lon="-8.3392040">
        <ele>50.6</ele>
        <time>2019-07-11T11:21:19Z</time>
      </trkpt>
      <trkpt lat="39.4749110" lon="-8.3392040">
        <ele>50.6</ele>
        <time>2019-07-11T11:21:21Z</time>
      </trkpt>
      <trkpt lat="39.4749090" lon="-8.3392070">
        <ele>50.8</ele>
        <time>2019-07-11T11:21:22Z</time>
      </trkpt>
      <trkpt lat="39.4748570" lon="-8.3391790">
        <ele>50.8</ele>
        <time>2019-07-11T11:21:31Z</time>
      </trkpt>
      <trkpt lat="39.4748740" lon="-8.3391390">
        <ele>50.8</ele>
        <time>2019-07-11T11:21:33Z</time>
      </trkpt>
      <trkpt lat="39.4748860" lon="-8.3391230">
        <ele>50.8</ele>
        <time>2019-07-11T11:21:34Z</time>
      </trkpt>
      <trkpt lat="39.4749160" lon="-8.3390970">
        <ele>51.2</ele>
        <time>2019-07-11T11:21:37Z</time>
      </trkpt>
      <trkpt lat="39.4749300" lon="-8.3390420">
        <ele>51.4</ele>
        <time>2019-07-11T11:21:41Z</time>
      </trkpt>
      <trkpt lat="39.4749350" lon="-8.3390130">
        <ele>51.6</ele>
        <time>2019-07-11T11:21:43Z</time>
      </trkpt>
      <trkpt lat="39.4749330" lon="-8.3389850">
        <ele>52.0</ele>
        <time>2019-07-11T11:21:45Z</time>
      </trkpt>
      <trkpt lat="39.4749280" lon="-8.3389570">
        <ele>52.2</ele>
        <time>2019-07-11T11:21:47Z</time>
      </trkpt>
      <trkpt lat="39.4749270" lon="-8.3389320">
        <ele>52.6</ele>
        <time>2019-07-11T11:21:49Z</time>
      </trkpt>
      <trkpt lat="39.4749270" lon="-8.3389190">
        <ele>52.8</ele>
        <time>2019-07-11T11:21:50Z</time>
      </trkpt>
      <trkpt lat="39.4749270" lon="-8.3389050">
        <ele>53.0</ele>
        <time>2019-07-11T11:21:51Z</time>
      </trkpt>
      <trkpt lat="39.4749310" lon="-8.3388330">
        <ele>53.6</ele>
        <time>2019-07-11T11:21:56Z</time>
      </trkpt>
      <trkpt lat="39.4749210" lon="-8.3388160">
        <ele>53.4</ele>
        <time>2019-07-11T11:22:01Z</time>
      </trkpt>
      <trkpt lat="39.4747730" lon="-8.3391990">
        <ele>53.2</ele>
        <time>2019-07-11T11:38:09Z</time>
      </trkpt>
      <trkpt lat="39.4747660" lon="-8.3392200">
        <ele>53.0</ele>
        <time>2019-07-11T11:38:10Z</time>
      </trkpt>
      <trkpt lat="39.4747400" lon="-8.3393150">
        <ele>52.8</ele>
        <time>2019-07-11T11:38:14Z</time>
      </trkpt>
      <trkpt lat="39.4747200" lon="-8.3393640">
        <ele>52.8</ele>
        <time>2019-07-11T11:38:16Z</time>
      </trkpt>
      <trkpt lat="39.4746960" lon="-8.3394120">
        <ele>52.8</ele>
        <time>2019-07-11T11:38:18Z</time>
      </trkpt>
      <trkpt lat="39.4746710" lon="-8.3395020">
        <ele>52.4</ele>
        <time>2019-07-11T11:38:23Z</time>
      </trkpt>
      <trkpt lat="39.4746650" lon="-8.3395160">
        <ele>52.4</ele>
        <time>2019-07-11T11:38:24Z</time>
      </trkpt>
      <trkpt lat="39.4746470" lon="-8.3396120">
        <ele>52.6</ele>
        <time>2019-07-11T11:38:28Z</time>
      </trkpt>
      <trkpt lat="39.4746450" lon="-8.3396420">
        <ele>52.8</ele>
        <time>2019-07-11T11:38:29Z</time>
      </trkpt>
      <trkpt lat="39.4746370" lon="-8.3396930">
        <ele>52.8</ele>
        <time>2019-07-11T11:38:31Z</time>
      </trkpt>
      <trkpt lat="39.4746190" lon="-8.3397690">
        <ele>53.0</ele>
        <time>2019-07-11T11:38:34Z</time>
      </trkpt>
      <trkpt lat="39.4746130" lon="-8.3399090">
        <ele>53.4</ele>
        <time>2019-07-11T11:38:40Z</time>
      </trkpt>
      <trkpt lat="39.4746200" lon="-8.3399320">
        <ele>53.4</ele>
        <time>2019-07-11T11:38:41Z</time>
      </trkpt>
      <trkpt lat="39.4746960" lon="-8.3400330">
        <ele>53.2</ele>
        <time>2019-07-11T11:38:46Z</time>
      </trkpt>
      <trkpt lat="39.4748300" lon="-8.3401460">
        <ele>53.4</ele>
        <time>2019-07-11T11:38:53Z</time>
      </trkpt>
      <trkpt lat="39.4749930" lon="-8.3403100">
        <ele>53.6</ele>
        <time>2019-07-11T11:39:01Z</time>
      </trkpt>
      <trkpt lat="39.4750370" lon="-8.3403910">
        <ele>53.4</ele>
        <time>2019-07-11T11:39:04Z</time>
      </trkpt>
      <trkpt lat="39.4750270" lon="-8.3404680">
        <ele>53.2</ele>
        <time>2019-07-11T11:39:06Z</time>
      </trkpt>
      <trkpt lat="39.4749680" lon="-8.3406020">
        <ele>52.4</ele>
        <time>2019-07-11T11:39:09Z</time>
      </trkpt>
      <trkpt lat="39.4749230" lon="-8.3406830">
        <ele>52.0</ele>
        <time>2019-07-11T11:39:11Z</time>
      </trkpt>
      <trkpt lat="39.4748870" lon="-8.3407490">
        <ele>50.8</ele>
        <time>2019-07-11T11:39:13Z</time>
      </trkpt>
      <trkpt lat="39.4748750" lon="-8.3408090">
        <ele>49.8</ele>
        <time>2019-07-11T11:39:15Z</time>
      </trkpt>
      <trkpt lat="39.4748760" lon="-8.3408400">
        <ele>49.4</ele>
        <time>2019-07-11T11:39:16Z</time>
      </trkpt>
      <trkpt lat="39.4748850" lon="-8.3409040">
        <ele>48.6</ele>
        <time>2019-07-11T11:39:18Z</time>
      </trkpt>
      <trkpt lat="39.4748920" lon="-8.3409660">
        <ele>48.4</ele>
        <time>2019-07-11T11:39:20Z</time>
      </trkpt>
      <trkpt lat="39.4749020" lon="-8.3409960">
        <ele>48.2</ele>
        <time>2019-07-11T11:39:21Z</time>
      </trkpt>
      <trkpt lat="39.4749660" lon="-8.3410600">
        <ele>48.0</ele>
        <time>2019-07-11T11:39:24Z</time>
      </trkpt>
      <trkpt lat="39.4749920" lon="-8.3410770">
        <ele>47.8</ele>
        <time>2019-07-11T11:39:25Z</time>
      </trkpt>
      <trkpt lat="39.4750210" lon="-8.3410920">
        <ele>47.6</ele>
        <time>2019-07-11T11:39:26Z</time>
      </trkpt>
      <trkpt lat="39.4751290" lon="-8.3411520">
        <ele>47.2</ele>
        <time>2019-07-11T11:39:30Z</time>
      </trkpt>
      <trkpt lat="39.4752430" lon="-8.3412270">
        <ele>47.0</ele>
        <time>2019-07-11T11:39:34Z</time>
      </trkpt>
      <trkpt lat="39.4753030" lon="-8.3412690">
        <ele>47.0</ele>
        <time>2019-07-11T11:39:36Z</time>
      </trkpt>
      <trkpt lat="39.4754650" lon="-8.3413410">
        <ele>46.8</ele>
        <time>2019-07-11T11:39:41Z</time>
      </trkpt>
      <trkpt lat="39.4756970" lon="-8.3414710">
        <ele>46.6</ele>
        <time>2019-07-11T11:39:49Z</time>
      </trkpt>
      <trkpt lat="39.4757860" lon="-8.3415400">
        <ele>46.4</ele>
        <time>2019-07-11T11:39:52Z</time>
      </trkpt>
      <trkpt lat="39.4759230" lon="-8.3416060">
        <ele>46.4</ele>
        <time>2019-07-11T11:39:56Z</time>
      </trkpt>
      <trkpt lat="39.4760680" lon="-8.3416650">
        <ele>46.0</ele>
        <time>2019-07-11T11:40:00Z</time>
      </trkpt>
      <trkpt lat="39.4762190" lon="-8.3417140">
        <ele>45.8</ele>
        <time>2019-07-11T11:40:04Z</time>
      </trkpt>
      <trkpt lat="39.4764480" lon="-8.3417750">
        <ele>46.0</ele>
        <time>2019-07-11T11:40:10Z</time>
      </trkpt>
      <trkpt lat="39.4765250" lon="-8.3417860">
        <ele>46.0</ele>
        <time>2019-07-11T11:40:12Z</time>
      </trkpt>
      <trkpt lat="39.4768770" lon="-8.3417990">
        <ele>45.8</ele>
        <time>2019-07-11T11:40:21Z</time>
      </trkpt>
      <trkpt lat="39.4771360" lon="-8.3417810">
        <ele>45.8</ele>
        <time>2019-07-11T11:40:28Z</time>
      </trkpt>
      <trkpt lat="39.4772050" lon="-8.3417790">
        <ele>45.6</ele>
        <time>2019-07-11T11:40:30Z</time>
      </trkpt>
      <trkpt lat="39.4774520" lon="-8.3417530">
        <ele>45.8</ele>
        <time>2019-07-11T11:40:37Z</time>
      </trkpt>
      <trkpt lat="39.4776160" lon="-8.3417050">
        <ele>45.8</ele>
        <time>2019-07-11T11:40:43Z</time>
      </trkpt>
      <trkpt lat="39.4776670" lon="-8.3416860">
        <ele>46.6</ele>
        <time>2019-07-11T11:40:46Z</time>
      </trkpt>
      <trkpt lat="39.4777100" lon="-8.3416630">
        <ele>47.0</ele>
        <time>2019-07-11T11:40:49Z</time>
      </trkpt>
      <trkpt lat="39.4777240" lon="-8.3416590">
        <ele>47.2</ele>
        <time>2019-07-11T11:40:50Z</time>
      </trkpt>
      <trkpt lat="39.4777540" lon="-8.3416370">
        <ele>47.6</ele>
        <time>2019-07-11T11:40:52Z</time>
      </trkpt>
      <trkpt lat="39.4777680" lon="-8.3416070">
        <ele>48.0</ele>
        <time>2019-07-11T11:40:54Z</time>
      </trkpt>
      <trkpt lat="39.4777810" lon="-8.3415340">
        <ele>48.6</ele>
        <time>2019-07-11T11:40:57Z</time>
      </trkpt>
      <trkpt lat="39.4777870" lon="-8.3414450">
        <ele>49.2</ele>
        <time>2019-07-11T11:41:00Z</time>
      </trkpt>
      <trkpt lat="39.4777930" lon="-8.3414160">
        <ele>49.2</ele>
        <time>2019-07-11T11:41:01Z</time>
      </trkpt>
      <trkpt lat="39.4778380" lon="-8.3412830">
        <ele>50.0</ele>
        <time>2019-07-11T11:41:05Z</time>
      </trkpt>
      <trkpt lat="39.4778520" lon="-8.3412550">
        <ele>50.2</ele>
        <time>2019-07-11T11:41:06Z</time>
      </trkpt>
      <trkpt lat="39.4778660" lon="-8.3412390">
        <ele>50.4</ele>
        <time>2019-07-11T11:41:07Z</time>
      </trkpt>
      <trkpt lat="39.4779070" lon="-8.3411850">
        <ele>51.2</ele>
        <time>2019-07-11T11:41:11Z</time>
      </trkpt>
      <trkpt lat="39.4779180" lon="-8.3411750">
        <ele>51.4</ele>
        <time>2019-07-11T11:41:12Z</time>
      </trkpt>
      <trkpt lat="39.4779770" lon="-8.3411070">
        <ele>52.6</ele>
        <time>2019-07-11T11:41:18Z</time>
      </trkpt>
      <trkpt lat="39.4779840" lon="-8.3410920">
        <ele>52.8</ele>
        <time>2019-07-11T11:41:19Z</time>
      </trkpt>
      <trkpt lat="39.4779840" lon="-8.3410300">
        <ele>53.6</ele>
        <time>2019-07-11T11:41:23Z</time>
      </trkpt>
      <trkpt lat="39.4779710" lon="-8.3410250">
        <ele>53.8</ele>
        <time>2019-07-11T11:41:24Z</time>
      </trkpt>
      <trkpt lat="39.4779570" lon="-8.3410250">
        <ele>54.0</ele>
        <time>2019-07-11T11:41:25Z</time>
      </trkpt>
      <trkpt lat="39.4778930" lon="-8.3410600">
        <ele>54.4</ele>
        <time>2019-07-11T11:41:29Z</time>
      </trkpt>
      <trkpt lat="39.4778710" lon="-8.3410600">
        <ele>54.6</ele>
        <time>2019-07-11T11:41:30Z</time>
      </trkpt>
      <trkpt lat="39.4778270" lon="-8.3410710">
        <ele>55.0</ele>
        <time>2019-07-11T11:41:33Z</time>
      </trkpt>
      <trkpt lat="39.4778010" lon="-8.3410860">
        <ele>55.4</ele>
        <time>2019-07-11T11:41:35Z</time>
      </trkpt>
      <trkpt lat="39.4777840" lon="-8.3410940">
        <ele>55.6</ele>
        <time>2019-07-11T11:41:36Z</time>
      </trkpt>
      <trkpt lat="39.4777270" lon="-8.3411070">
        <ele>56.4</ele>
        <time>2019-07-11T11:41:40Z</time>
      </trkpt>
      <trkpt lat="39.4777030" lon="-8.3411090">
        <ele>56.6</ele>
        <time>2019-07-11T11:41:42Z</time>
      </trkpt>
      <trkpt lat="39.4776290" lon="-8.3411160">
        <ele>57.6</ele>
        <time>2019-07-11T11:41:47Z</time>
      </trkpt>
      <trkpt lat="39.4775360" lon="-8.3411030">
        <ele>58.2</ele>
        <time>2019-07-11T11:41:52Z</time>
      </trkpt>
      <trkpt lat="39.4773950" lon="-8.3411060">
        <ele>58.6</ele>
        <time>2019-07-11T11:41:57Z</time>
      </trkpt>
      <trkpt lat="39.4773280" lon="-8.3410990">
        <ele>58.6</ele>
        <time>2019-07-11T11:41:59Z</time>
      </trkpt>
      <trkpt lat="39.4772290" lon="-8.3410730">
        <ele>58.8</ele>
        <time>2019-07-11T11:42:02Z</time>
      </trkpt>
      <trkpt lat="39.4771960" lon="-8.3410650">
        <ele>58.8</ele>
        <time>2019-07-11T11:42:03Z</time>
      </trkpt>
      <trkpt lat="39.4771420" lon="-8.3410470">
        <ele>58.8</ele>
        <time>2019-07-11T11:42:05Z</time>
      </trkpt>
      <trkpt lat="39.4771080" lon="-8.3410260">
        <ele>59.0</ele>
        <time>2019-07-11T11:42:07Z</time>
      </trkpt>
      <trkpt lat="39.4770700" lon="-8.3410150">
        <ele>59.0</ele>
        <time>2019-07-11T11:42:10Z</time>
      </trkpt>
      <trkpt lat="39.4770530" lon="-8.3410100">
        <ele>59.0</ele>
        <time>2019-07-11T11:42:11Z</time>
      </trkpt>
      <trkpt lat="39.4770420" lon="-8.3409940">
        <ele>58.8</ele>
        <time>2019-07-11T11:42:12Z</time>
      </trkpt>
      <trkpt lat="39.4770560" lon="-8.3409580">
        <ele>58.6</ele>
        <time>2019-07-11T11:42:14Z</time>
      </trkpt>
      <trkpt lat="39.4770700" lon="-8.3409560">
        <ele>58.8</ele>
        <time>2019-07-11T11:42:15Z</time>
      </trkpt>
      <trkpt lat="39.4771260" lon="-8.3409800">
        <ele>58.8</ele>
        <time>2019-07-11T11:42:19Z</time>
      </trkpt>
      <trkpt lat="39.4771420" lon="-8.3409740">
        <ele>59.0</ele>
        <time>2019-07-11T11:42:20Z</time>
      </trkpt>
      <trkpt lat="39.4771590" lon="-8.3409650">
        <ele>59.0</ele>
        <time>2019-07-11T11:42:21Z</time>
      </trkpt>
      <trkpt lat="39.4772200" lon="-8.3409460">
        <ele>60.0</ele>
        <time>2019-07-11T11:42:24Z</time>
      </trkpt>
      <trkpt lat="39.4772800" lon="-8.3409460">
        <ele>60.2</ele>
        <time>2019-07-11T11:42:27Z</time>
      </trkpt>
      <trkpt lat="39.4773210" lon="-8.3409450">
        <ele>60.6</ele>
        <time>2019-07-11T11:42:29Z</time>
      </trkpt>
      <trkpt lat="39.4773620" lon="-8.3409470">
        <ele>61.2</ele>
        <time>2019-07-11T11:42:31Z</time>
      </trkpt>
      <trkpt lat="39.4774250" lon="-8.3409330">
        <ele>62.0</ele>
        <time>2019-07-11T11:42:34Z</time>
      </trkpt>
      <trkpt lat="39.4774650" lon="-8.3409280">
        <ele>62.4</ele>
        <time>2019-07-11T11:42:36Z</time>
      </trkpt>
      <trkpt lat="39.4775190" lon="-8.3409220">
        <ele>63.2</ele>
        <time>2019-07-11T11:42:39Z</time>
      </trkpt>
      <trkpt lat="39.4775380" lon="-8.3409170">
        <ele>63.4</ele>
        <time>2019-07-11T11:42:40Z</time>
      </trkpt>
      <trkpt lat="39.4776420" lon="-8.3409110">
        <ele>64.6</ele>
        <time>2019-07-11T11:42:45Z</time>
      </trkpt>
      <trkpt lat="39.4776930" lon="-8.3409120">
        <ele>64.8</ele>
        <time>2019-07-11T11:42:47Z</time>
      </trkpt>
      <trkpt lat="39.4777490" lon="-8.3409310">
        <ele>65.4</ele>
        <time>2019-07-11T11:42:49Z</time>
      </trkpt>
      <trkpt lat="39.4777740" lon="-8.3409560">
        <ele>65.8</ele>
        <time>2019-07-11T11:42:50Z</time>
      </trkpt>
      <trkpt lat="39.4777910" lon="-8.3409890">
        <ele>65.8</ele>
        <time>2019-07-11T11:42:51Z</time>
      </trkpt>
      <trkpt lat="39.4778130" lon="-8.3412200">
        <ele>66.0</ele>
        <time>2019-07-11T11:42:56Z</time>
      </trkpt>
      <trkpt lat="39.4778100" lon="-8.3412670">
        <ele>66.0</ele>
        <time>2019-07-11T11:42:57Z</time>
      </trkpt>
      <trkpt lat="39.4778150" lon="-8.3415680">
        <ele>66.0</ele>
        <time>2019-07-11T11:43:03Z</time>
      </trkpt>
      <trkpt lat="39.4778220" lon="-8.3417300">
        <ele>66.0</ele>
        <time>2019-07-11T11:43:06Z</time>
      </trkpt>
      <trkpt lat="39.4778370" lon="-8.3420190">
        <ele>66.0</ele>
        <time>2019-07-11T11:43:11Z</time>
      </trkpt>
      <trkpt lat="39.4778400" lon="-8.3422580">
        <ele>66.0</ele>
        <time>2019-07-11T11:43:15Z</time>
      </trkpt>
      <trkpt lat="39.4778530" lon="-8.3424360">
        <ele>66.2</ele>
        <time>2019-07-11T11:43:18Z</time>
      </trkpt>
      <trkpt lat="39.4778610" lon="-8.3426190">
        <ele>66.6</ele>
        <time>2019-07-11T11:43:21Z</time>
      </trkpt>
      <trkpt lat="39.4778660" lon="-8.3429690">
        <ele>65.6</ele>
        <time>2019-07-11T11:43:27Z</time>
      </trkpt>
      <trkpt lat="39.4778680" lon="-8.3430700">
        <ele>65.4</ele>
        <time>2019-07-11T11:43:29Z</time>
      </trkpt>
      <trkpt lat="39.4778710" lon="-8.3431200">
        <ele>65.4</ele>
        <time>2019-07-11T11:43:30Z</time>
      </trkpt>
      <trkpt lat="39.4778850" lon="-8.3432850">
        <ele>65.4</ele>
        <time>2019-07-11T11:43:33Z</time>
      </trkpt>
      <trkpt lat="39.4779080" lon="-8.3434740">
        <ele>65.8</ele>
        <time>2019-07-11T11:43:36Z</time>
      </trkpt>
      <trkpt lat="39.4779070" lon="-8.3435370">
        <ele>66.0</ele>
        <time>2019-07-11T11:43:37Z</time>
      </trkpt>
      <trkpt lat="39.4778750" lon="-8.3436530">
        <ele>66.0</ele>
        <time>2019-07-11T11:43:39Z</time>
      </trkpt>
      <trkpt lat="39.4777600" lon="-8.3437610">
        <ele>66.0</ele>
        <time>2019-07-11T11:43:42Z</time>
      </trkpt>
      <trkpt lat="39.4776590" lon="-8.3437910">
        <ele>66.0</ele>
        <time>2019-07-11T11:43:44Z</time>
      </trkpt>
      <trkpt lat="39.4775110" lon="-8.3438290">
        <ele>66.0</ele>
        <time>2019-07-11T11:43:47Z</time>
      </trkpt>
      <trkpt lat="39.4770960" lon="-8.3439520">
        <ele>66.4</ele>
        <time>2019-07-11T11:43:56Z</time>
      </trkpt>
      <trkpt lat="39.4769680" lon="-8.3440020">
        <ele>66.6</ele>
        <time>2019-07-11T11:43:59Z</time>
      </trkpt>
      <trkpt lat="39.4768430" lon="-8.3440330">
        <ele>67.0</ele>
        <time>2019-07-11T11:44:02Z</time>
      </trkpt>
      <trkpt lat="39.4768010" lon="-8.3440430">
        <ele>67.2</ele>
        <time>2019-07-11T11:44:03Z</time>
      </trkpt>
      <trkpt lat="39.4765970" lon="-8.3441120">
        <ele>68.0</ele>
        <time>2019-07-11T11:44:08Z</time>
      </trkpt>
      <trkpt lat="39.4765560" lon="-8.3441260">
        <ele>68.2</ele>
        <time>2019-07-11T11:44:09Z</time>
      </trkpt>
      <trkpt lat="39.4764290" lon="-8.3441610">
        <ele>68.8</ele>
        <time>2019-07-11T11:44:12Z</time>
      </trkpt>
      <trkpt lat="39.4762620" lon="-8.3442200">
        <ele>69.4</ele>
        <time>2019-07-11T11:44:16Z</time>
      </trkpt>
      <trkpt lat="39.4760910" lon="-8.3442730">
        <ele>69.6</ele>
        <time>2019-07-11T11:44:20Z</time>
      </trkpt>
      <trkpt lat="39.4758250" lon="-8.3444480">
        <ele>69.6</ele>
        <time>2019-07-11T11:44:26Z</time>
      </trkpt>
      <trkpt lat="39.4756990" lon="-8.3446940">
        <ele>69.4</ele>
        <time>2019-07-11T11:44:30Z</time>
      </trkpt>
      <trkpt lat="39.4756790" lon="-8.3447670">
        <ele>69.2</ele>
        <time>2019-07-11T11:44:31Z</time>
      </trkpt>
      <trkpt lat="39.4755990" lon="-8.3450710">
        <ele>69.0</ele>
        <time>2019-07-11T11:44:35Z</time>
      </trkpt>
      <trkpt lat="39.4755700" lon="-8.3451460">
        <ele>69.0</ele>
        <time>2019-07-11T11:44:36Z</time>
      </trkpt>
      <trkpt lat="39.4754570" lon="-8.3454350">
        <ele>68.8</ele>
        <time>2019-07-11T11:44:40Z</time>
      </trkpt>
      <trkpt lat="39.4754370" lon="-8.3455150">
        <ele>68.8</ele>
        <time>2019-07-11T11:44:41Z</time>
      </trkpt>
      <trkpt lat="39.4754270" lon="-8.3456890">
        <ele>68.6</ele>
        <time>2019-07-11T11:44:43Z</time>
      </trkpt>
      <trkpt lat="39.4754420" lon="-8.3457760">
        <ele>68.4</ele>
        <time>2019-07-11T11:44:44Z</time>
      </trkpt>
      <trkpt lat="39.4754680" lon="-8.3458580">
        <ele>68.4</ele>
        <time>2019-07-11T11:44:45Z</time>
      </trkpt>
      <trkpt lat="39.4755430" lon="-8.3460110">
        <ele>68.0</ele>
        <time>2019-07-11T11:44:47Z</time>
      </trkpt>
      <trkpt lat="39.4755790" lon="-8.3460850">
        <ele>68.0</ele>
        <time>2019-07-11T11:44:48Z</time>
      </trkpt>
      <trkpt lat="39.4756890" lon="-8.3462970">
        <ele>68.0</ele>
        <time>2019-07-11T11:44:51Z</time>
      </trkpt>
      <trkpt lat="39.4757950" lon="-8.3465020">
        <ele>67.8</ele>
        <time>2019-07-11T11:44:54Z</time>
      </trkpt>
      <trkpt lat="39.4758500" lon="-8.3466440">
        <ele>67.8</ele>
        <time>2019-07-11T11:44:56Z</time>
      </trkpt>
      <trkpt lat="39.4758690" lon="-8.3467200">
        <ele>67.8</ele>
        <time>2019-07-11T11:44:57Z</time>
      </trkpt>
      <trkpt lat="39.4758770" lon="-8.3468860">
        <ele>67.8</ele>
        <time>2019-07-11T11:44:59Z</time>
      </trkpt>
      <trkpt lat="39.4758010" lon="-8.3471040">
        <ele>67.6</ele>
        <time>2019-07-11T11:45:02Z</time>
      </trkpt>
      <trkpt lat="39.4756720" lon="-8.3472840">
        <ele>67.2</ele>
        <time>2019-07-11T11:45:05Z</time>
      </trkpt>
      <trkpt lat="39.4756230" lon="-8.3473390">
        <ele>67.0</ele>
        <time>2019-07-11T11:45:06Z</time>
      </trkpt>
      <trkpt lat="39.4755750" lon="-8.3473930">
        <ele>67.0</ele>
        <time>2019-07-11T11:45:07Z</time>
      </trkpt>
      <trkpt lat="39.4753440" lon="-8.3476730">
        <ele>66.8</ele>
        <time>2019-07-11T11:45:12Z</time>
      </trkpt>
      <trkpt lat="39.4753060" lon="-8.3477390">
        <ele>66.6</ele>
        <time>2019-07-11T11:45:13Z</time>
      </trkpt>
      <trkpt lat="39.4751760" lon="-8.3480510">
        <ele>67.0</ele>
        <time>2019-07-11T11:45:18Z</time>
      </trkpt>
      <trkpt lat="39.4751500" lon="-8.3480990">
        <ele>67.0</ele>
        <time>2019-07-11T11:45:19Z</time>
      </trkpt>
      <trkpt lat="39.4750910" lon="-8.3481860">
        <ele>67.6</ele>
        <time>2019-07-11T11:45:21Z</time>
      </trkpt>
      <trkpt lat="39.4750120" lon="-8.3483060">
        <ele>68.0</ele>
        <time>2019-07-11T11:45:24Z</time>
      </trkpt>
      <trkpt lat="39.4749860" lon="-8.3483440">
        <ele>68.2</ele>
        <time>2019-07-11T11:45:25Z</time>
      </trkpt>
      <trkpt lat="39.4749030" lon="-8.3484530">
        <ele>69.0</ele>
        <time>2019-07-11T11:45:28Z</time>
      </trkpt>
      <trkpt lat="39.4748420" lon="-8.3485190">
        <ele>69.4</ele>
        <time>2019-07-11T11:45:30Z</time>
      </trkpt>
      <trkpt lat="39.4748060" lon="-8.3485460">
        <ele>69.6</ele>
        <time>2019-07-11T11:45:31Z</time>
      </trkpt>
      <trkpt lat="39.4747650" lon="-8.3485660">
        <ele>69.8</ele>
        <time>2019-07-11T11:45:32Z</time>
      </trkpt>
      <trkpt lat="39.4745410" lon="-8.3486270">
        <ele>70.4</ele>
        <time>2019-07-11T11:45:37Z</time>
      </trkpt>
      <trkpt lat="39.4744450" lon="-8.3486420">
        <ele>70.4</ele>
        <time>2019-07-11T11:45:39Z</time>
      </trkpt>
      <trkpt lat="39.4741890" lon="-8.3486910">
        <ele>70.0</ele>
        <time>2019-07-11T11:45:44Z</time>
      </trkpt>
      <trkpt lat="39.4740920" lon="-8.3487400">
        <ele>70.0</ele>
        <time>2019-07-11T11:45:46Z</time>
      </trkpt>
      <trkpt lat="39.4739680" lon="-8.3488540">
        <ele>70.0</ele>
        <time>2019-07-11T11:45:49Z</time>
      </trkpt>
      <trkpt lat="39.4738900" lon="-8.3489400">
        <ele>70.2</ele>
        <time>2019-07-11T11:45:51Z</time>
      </trkpt>
      <trkpt lat="39.4735510" lon="-8.3493660">
        <ele>70.4</ele>
        <time>2019-07-11T11:46:00Z</time>
      </trkpt>
      <trkpt lat="39.4735140" lon="-8.3494130">
        <ele>70.6</ele>
        <time>2019-07-11T11:46:01Z</time>
      </trkpt>
      <trkpt lat="39.4734010" lon="-8.3495500">
        <ele>71.0</ele>
        <time>2019-07-11T11:46:04Z</time>
      </trkpt>
      <trkpt lat="39.4733050" lon="-8.3496930">
        <ele>71.2</ele>
        <time>2019-07-11T11:46:07Z</time>
      </trkpt>
      <trkpt lat="39.4732150" lon="-8.3498320">
        <ele>71.8</ele>
        <time>2019-07-11T11:46:10Z</time>
      </trkpt>
      <trkpt lat="39.4731410" lon="-8.3499750">
        <ele>72.4</ele>
        <time>2019-07-11T11:46:13Z</time>
      </trkpt>
      <trkpt lat="39.4731170" lon="-8.3500240">
        <ele>72.6</ele>
        <time>2019-07-11T11:46:14Z</time>
      </trkpt>
      <trkpt lat="39.4730510" lon="-8.3501730">
        <ele>73.0</ele>
        <time>2019-07-11T11:46:17Z</time>
      </trkpt>
      <trkpt lat="39.4729500" lon="-8.3504220">
        <ele>73.8</ele>
        <time>2019-07-11T11:46:22Z</time>
      </trkpt>
      <trkpt lat="39.4729320" lon="-8.3504700">
        <ele>74.0</ele>
        <time>2019-07-11T11:46:23Z</time>
      </trkpt>
      <trkpt lat="39.4729150" lon="-8.3505200">
        <ele>74.0</ele>
        <time>2019-07-11T11:46:24Z</time>
      </trkpt>
      <trkpt lat="39.4728470" lon="-8.3507780">
        <ele>75.0</ele>
        <time>2019-07-11T11:46:29Z</time>
      </trkpt>
      <trkpt lat="39.4728310" lon="-8.3508850">
        <ele>75.0</ele>
        <time>2019-07-11T11:46:31Z</time>
      </trkpt>
      <trkpt lat="39.4728240" lon="-8.3509400">
        <ele>75.2</ele>
        <time>2019-07-11T11:46:32Z</time>
      </trkpt>
      <trkpt lat="39.4728200" lon="-8.3511050">
        <ele>76.0</ele>
        <time>2019-07-11T11:46:35Z</time>
      </trkpt>
      <trkpt lat="39.4728300" lon="-8.3512160">
        <ele>76.2</ele>
        <time>2019-07-11T11:46:37Z</time>
      </trkpt>
      <trkpt lat="39.4728340" lon="-8.3512720">
        <ele>76.2</ele>
        <time>2019-07-11T11:46:38Z</time>
      </trkpt>
      <trkpt lat="39.4728530" lon="-8.3516860">
        <ele>77.2</ele>
        <time>2019-07-11T11:46:45Z</time>
      </trkpt>
      <trkpt lat="39.4728660" lon="-8.3518750">
        <ele>77.4</ele>
        <time>2019-07-11T11:46:48Z</time>
      </trkpt>
      <trkpt lat="39.4728880" lon="-8.3521460">
        <ele>77.4</ele>
        <time>2019-07-11T11:46:52Z</time>
      </trkpt>
      <trkpt lat="39.4729040" lon="-8.3524360">
        <ele>77.4</ele>
        <time>2019-07-11T11:46:56Z</time>
      </trkpt>
      <trkpt lat="39.4729320" lon="-8.3527190">
        <ele>77.6</ele>
        <time>2019-07-11T11:47:00Z</time>
      </trkpt>
      <trkpt lat="39.4729530" lon="-8.3530050">
        <ele>77.4</ele>
        <time>2019-07-11T11:47:04Z</time>
      </trkpt>
      <trkpt lat="39.4729600" lon="-8.3531520">
        <ele>77.4</ele>
        <time>2019-07-11T11:47:06Z</time>
      </trkpt>
      <trkpt lat="39.4729460" lon="-8.3532990">
        <ele>77.4</ele>
        <time>2019-07-11T11:47:08Z</time>
      </trkpt>
      <trkpt lat="39.4729130" lon="-8.3534420">
        <ele>77.4</ele>
        <time>2019-07-11T11:47:10Z</time>
      </trkpt>
      <trkpt lat="39.4728670" lon="-8.3535750">
        <ele>77.4</ele>
        <time>2019-07-11T11:47:12Z</time>
      </trkpt>
      <trkpt lat="39.4728370" lon="-8.3536370">
        <ele>77.4</ele>
        <time>2019-07-11T11:47:13Z</time>
      </trkpt>
      <trkpt lat="39.4725820" lon="-8.3540890">
        <ele>77.4</ele>
        <time>2019-07-11T11:47:21Z</time>
      </trkpt>
      <trkpt lat="39.4724600" lon="-8.3543210">
        <ele>78.4</ele>
        <time>2019-07-11T11:47:26Z</time>
      </trkpt>
      <trkpt lat="39.4724210" lon="-8.3544130">
        <ele>78.6</ele>
        <time>2019-07-11T11:47:28Z</time>
      </trkpt>
      <trkpt lat="39.4723660" lon="-8.3545540">
        <ele>79.4</ele>
        <time>2019-07-11T11:47:31Z</time>
      </trkpt>
      <trkpt lat="39.4723390" lon="-8.3547570">
        <ele>80.4</ele>
        <time>2019-07-11T11:47:35Z</time>
      </trkpt>
      <trkpt lat="39.4723390" lon="-8.3548090">
        <ele>80.6</ele>
        <time>2019-07-11T11:47:36Z</time>
      </trkpt>
      <trkpt lat="39.4723450" lon="-8.3549610">
        <ele>81.2</ele>
        <time>2019-07-11T11:47:39Z</time>
      </trkpt>
      <trkpt lat="39.4723580" lon="-8.3550590">
        <ele>81.8</ele>
        <time>2019-07-11T11:47:41Z</time>
      </trkpt>
      <trkpt lat="39.4723790" lon="-8.3551560">
        <ele>82.4</ele>
        <time>2019-07-11T11:47:43Z</time>
      </trkpt>
      <trkpt lat="39.4723990" lon="-8.3552460">
        <ele>82.8</ele>
        <time>2019-07-11T11:47:45Z</time>
      </trkpt>
      <trkpt lat="39.4724350" lon="-8.3554200">
        <ele>83.6</ele>
        <time>2019-07-11T11:47:49Z</time>
      </trkpt>
      <trkpt lat="39.4724560" lon="-8.3555040">
        <ele>84.0</ele>
        <time>2019-07-11T11:47:51Z</time>
      </trkpt>
      <trkpt lat="39.4725060" lon="-8.3557700">
        <ele>84.6</ele>
        <time>2019-07-11T11:47:57Z</time>
      </trkpt>
      <trkpt lat="39.4725420" lon="-8.3559080">
        <ele>85.2</ele>
        <time>2019-07-11T11:48:00Z</time>
      </trkpt>
      <trkpt lat="39.4725780" lon="-8.3560450">
        <ele>85.4</ele>
        <time>2019-07-11T11:48:03Z</time>
      </trkpt>
      <trkpt lat="39.4726480" lon="-8.3563870">
        <ele>86.2</ele>
        <time>2019-07-11T11:48:10Z</time>
      </trkpt>
      <trkpt lat="39.4726590" lon="-8.3564350">
        <ele>86.4</ele>
        <time>2019-07-11T11:48:11Z</time>
      </trkpt>
      <trkpt lat="39.4727280" lon="-8.3567690">
        <ele>87.4</ele>
        <time>2019-07-11T11:48:18Z</time>
      </trkpt>
      <trkpt lat="39.4727390" lon="-8.3568160">
        <ele>87.4</ele>
        <time>2019-07-11T11:48:19Z</time>
      </trkpt>
      <trkpt lat="39.4727960" lon="-8.3570600">
        <ele>88.0</ele>
        <time>2019-07-11T11:48:24Z</time>
      </trkpt>
      <trkpt lat="39.4728500" lon="-8.3573080">
        <ele>88.4</ele>
        <time>2019-07-11T11:48:29Z</time>
      </trkpt>
      <trkpt lat="39.4729330" lon="-8.3576630">
        <ele>89.0</ele>
        <time>2019-07-11T11:48:36Z</time>
      </trkpt>
      <trkpt lat="39.4729530" lon="-8.3577660">
        <ele>89.4</ele>
        <time>2019-07-11T11:48:38Z</time>
      </trkpt>
      <trkpt lat="39.4729660" lon="-8.3578150">
        <ele>89.6</ele>
        <time>2019-07-11T11:48:39Z</time>
      </trkpt>
      <trkpt lat="39.4730220" lon="-8.3580130">
        <ele>90.0</ele>
        <time>2019-07-11T11:48:43Z</time>
      </trkpt>
      <trkpt lat="39.4730450" lon="-8.3581140">
        <ele>90.0</ele>
        <time>2019-07-11T11:48:45Z</time>
      </trkpt>
      <trkpt lat="39.4731010" lon="-8.3583610">
        <ele>90.6</ele>
        <time>2019-07-11T11:48:50Z</time>
      </trkpt>
      <trkpt lat="39.4731130" lon="-8.3584100">
        <ele>90.6</ele>
        <time>2019-07-11T11:48:51Z</time>
      </trkpt>
      <trkpt lat="39.4731450" lon="-8.3585600">
        <ele>91.0</ele>
        <time>2019-07-11T11:48:54Z</time>
      </trkpt>
      <trkpt lat="39.4731640" lon="-8.3587110">
        <ele>91.2</ele>
        <time>2019-07-11T11:48:57Z</time>
      </trkpt>
      <trkpt lat="39.4731680" lon="-8.3588190">
        <ele>91.4</ele>
        <time>2019-07-11T11:48:59Z</time>
      </trkpt>
      <trkpt lat="39.4731720" lon="-8.3588740">
        <ele>91.6</ele>
        <time>2019-07-11T11:49:00Z</time>
      </trkpt>
      <trkpt lat="39.4731770" lon="-8.3590350">
        <ele>92.0</ele>
        <time>2019-07-11T11:49:03Z</time>
      </trkpt>
      <trkpt lat="39.4731770" lon="-8.3590900">
        <ele>92.2</ele>
        <time>2019-07-11T11:49:04Z</time>
      </trkpt>
      <trkpt lat="39.4731730" lon="-8.3594700">
        <ele>92.8</ele>
        <time>2019-07-11T11:49:11Z</time>
      </trkpt>
      <trkpt lat="39.4731720" lon="-8.3595240">
        <ele>92.8</ele>
        <time>2019-07-11T11:49:12Z</time>
      </trkpt>
      <trkpt lat="39.4731750" lon="-8.3598490">
        <ele>93.8</ele>
        <time>2019-07-11T11:49:18Z</time>
      </trkpt>
      <trkpt lat="39.4731810" lon="-8.3601100">
        <ele>94.4</ele>
        <time>2019-07-11T11:49:23Z</time>
      </trkpt>
      <trkpt lat="39.4731810" lon="-8.3602630">
        <ele>94.8</ele>
        <time>2019-07-11T11:49:26Z</time>
      </trkpt>
      <trkpt lat="39.4731820" lon="-8.3604620">
        <ele>95.2</ele>
        <time>2019-07-11T11:49:30Z</time>
      </trkpt>
      <trkpt lat="39.4731880" lon="-8.3606690">
        <ele>95.6</ele>
        <time>2019-07-11T11:49:34Z</time>
      </trkpt>
      <trkpt lat="39.4731960" lon="-8.3607760">
        <ele>96.0</ele>
        <time>2019-07-11T11:49:36Z</time>
      </trkpt>
      <trkpt lat="39.4731960" lon="-8.3608300">
        <ele>96.2</ele>
        <time>2019-07-11T11:49:37Z</time>
      </trkpt>
      <trkpt lat="39.4732010" lon="-8.3611070">
        <ele>97.0</ele>
        <time>2019-07-11T11:49:42Z</time>
      </trkpt>
      <trkpt lat="39.4732070" lon="-8.3613790">
        <ele>97.6</ele>
        <time>2019-07-11T11:49:47Z</time>
      </trkpt>
      <trkpt lat="39.4732080" lon="-8.3614310">
        <ele>97.8</ele>
        <time>2019-07-11T11:49:48Z</time>
      </trkpt>
      <trkpt lat="39.4732120" lon="-8.3615920">
        <ele>98.2</ele>
        <time>2019-07-11T11:49:51Z</time>
      </trkpt>
      <trkpt lat="39.4732130" lon="-8.3618100">
        <ele>98.4</ele>
        <time>2019-07-11T11:49:55Z</time>
      </trkpt>
      <trkpt lat="39.4732170" lon="-8.3621910">
        <ele>99.4</ele>
        <time>2019-07-11T11:50:02Z</time>
      </trkpt>
      <trkpt lat="39.4732200" lon="-8.3623530">
        <ele>99.6</ele>
        <time>2019-07-11T11:50:05Z</time>
      </trkpt>
      <trkpt lat="39.4732300" lon="-8.3627310">
        <ele>100.4</ele>
        <time>2019-07-11T11:50:12Z</time>
      </trkpt>
      <trkpt lat="39.4732310" lon="-8.3627870">
        <ele>100.4</ele>
        <time>2019-07-11T11:50:13Z</time>
      </trkpt>
      <trkpt lat="39.4732390" lon="-8.3632760">
        <ele>100.6</ele>
        <time>2019-07-11T11:50:21Z</time>
      </trkpt>
      <trkpt lat="39.4732420" lon="-8.3635340">
        <ele>100.6</ele>
        <time>2019-07-11T11:50:25Z</time>
      </trkpt>
      <trkpt lat="39.4732450" lon="-8.3638000">
        <ele>100.6</ele>
        <time>2019-07-11T11:50:29Z</time>
      </trkpt>
      <trkpt lat="39.4732440" lon="-8.3639360">
        <ele>100.6</ele>
        <time>2019-07-11T11:50:31Z</time>
      </trkpt>
      <trkpt lat="39.4732450" lon="-8.3641400">
        <ele>101.0</ele>
        <time>2019-07-11T11:50:34Z</time>
      </trkpt>
      <trkpt lat="39.4732480" lon="-8.3644270">
        <ele>101.4</ele>
        <time>2019-07-11T11:50:38Z</time>
      </trkpt>
      <trkpt lat="39.4732490" lon="-8.3645010">
        <ele>101.4</ele>
        <time>2019-07-11T11:50:39Z</time>
      </trkpt>
      <trkpt lat="39.4732620" lon="-8.3650340">
        <ele>101.4</ele>
        <time>2019-07-11T11:50:46Z</time>
      </trkpt>
      <trkpt lat="39.4732610" lon="-8.3651120">
        <ele>101.4</ele>
        <time>2019-07-11T11:50:47Z</time>
      </trkpt>
      <trkpt lat="39.4732750" lon="-8.3657550">
        <ele>101.2</ele>
        <time>2019-07-11T11:50:55Z</time>
      </trkpt>
      <trkpt lat="39.4732810" lon="-8.3665110">
        <ele>101.4</ele>
        <time>2019-07-11T11:51:04Z</time>
      </trkpt>
      <trkpt lat="39.4732800" lon="-8.3665970">
        <ele>101.4</ele>
        <time>2019-07-11T11:51:05Z</time>
      </trkpt>
      <trkpt lat="39.4732950" lon="-8.3671880">
        <ele>101.4</ele>
        <time>2019-07-11T11:51:12Z</time>
      </trkpt>
      <trkpt lat="39.4733050" lon="-8.3677650">
        <ele>100.6</ele>
        <time>2019-07-11T11:51:19Z</time>
      </trkpt>
      <trkpt lat="39.4733070" lon="-8.3678460">
        <ele>100.6</ele>
        <time>2019-07-11T11:51:20Z</time>
      </trkpt>
      <trkpt lat="39.4733270" lon="-8.3683960">
        <ele>101.6</ele>
        <time>2019-07-11T11:51:27Z</time>
      </trkpt>
      <trkpt lat="39.4733310" lon="-8.3685500">
        <ele>101.4</ele>
        <time>2019-07-11T11:51:29Z</time>
      </trkpt>
      <trkpt lat="39.4733540" lon="-8.3691690">
        <ele>101.4</ele>
        <time>2019-07-11T11:51:37Z</time>
      </trkpt>
      <trkpt lat="39.4733620" lon="-8.3694010">
        <ele>101.6</ele>
        <time>2019-07-11T11:51:40Z</time>
      </trkpt>
      <trkpt lat="39.4733690" lon="-8.3700880">
        <ele>101.4</ele>
        <time>2019-07-11T11:51:49Z</time>
      </trkpt>
      <trkpt lat="39.4733610" lon="-8.3701630">
        <ele>101.2</ele>
        <time>2019-07-11T11:51:50Z</time>
      </trkpt>
      <trkpt lat="39.4732480" lon="-8.3706870">
        <ele>100.8</ele>
        <time>2019-07-11T11:51:57Z</time>
      </trkpt>
      <trkpt lat="39.4731410" lon="-8.3709870">
        <ele>100.6</ele>
        <time>2019-07-11T11:52:01Z</time>
      </trkpt>
      <trkpt lat="39.4729710" lon="-8.3714240">
        <ele>100.2</ele>
        <time>2019-07-11T11:52:07Z</time>
      </trkpt>
      <trkpt lat="39.4729120" lon="-8.3715540">
        <ele>100.0</ele>
        <time>2019-07-11T11:52:09Z</time>
      </trkpt>
      <trkpt lat="39.4728570" lon="-8.3716860">
        <ele>99.6</ele>
        <time>2019-07-11T11:52:11Z</time>
      </trkpt>
      <trkpt lat="39.4728010" lon="-8.3718150">
        <ele>99.4</ele>
        <time>2019-07-11T11:52:13Z</time>
      </trkpt>
      <trkpt lat="39.4725840" lon="-8.3723480">
        <ele>99.8</ele>
        <time>2019-07-11T11:52:21Z</time>
      </trkpt>
      <trkpt lat="39.4723890" lon="-8.3728030">
        <ele>100.0</ele>
        <time>2019-07-11T11:52:28Z</time>
      </trkpt>
      <trkpt lat="39.4722380" lon="-8.3732030">
        <ele>100.0</ele>
        <time>2019-07-11T11:52:34Z</time>
      </trkpt>
      <trkpt lat="39.4720380" lon="-8.3737350">
        <ele>100.6</ele>
        <time>2019-07-11T11:52:42Z</time>
      </trkpt>
      <trkpt lat="39.4719870" lon="-8.3738670">
        <ele>100.6</ele>
        <time>2019-07-11T11:52:44Z</time>
      </trkpt>
      <trkpt lat="39.4718560" lon="-8.3742130">
        <ele>101.4</ele>
        <time>2019-07-11T11:52:49Z</time>
      </trkpt>
      <trkpt lat="39.4718280" lon="-8.3742870">
        <ele>101.0</ele>
        <time>2019-07-11T11:52:50Z</time>
      </trkpt>
      <trkpt lat="39.4716770" lon="-8.3746940">
        <ele>99.6</ele>
        <time>2019-07-11T11:52:55Z</time>
      </trkpt>
      <trkpt lat="39.4716120" lon="-8.3748690">
        <ele>99.2</ele>
        <time>2019-07-11T11:52:57Z</time>
      </trkpt>
      <trkpt lat="39.4715450" lon="-8.3750520">
        <ele>98.4</ele>
        <time>2019-07-11T11:52:59Z</time>
      </trkpt>
      <trkpt lat="39.4714710" lon="-8.3752420">
        <ele>98.0</ele>
        <time>2019-07-11T11:53:01Z</time>
      </trkpt>
      <trkpt lat="39.4713580" lon="-8.3755380">
        <ele>97.4</ele>
        <time>2019-07-11T11:53:04Z</time>
      </trkpt>
      <trkpt lat="39.4713210" lon="-8.3756390">
        <ele>97.2</ele>
        <time>2019-07-11T11:53:05Z</time>
      </trkpt>
      <trkpt lat="39.4712440" lon="-8.3758440">
        <ele>96.6</ele>
        <time>2019-07-11T11:53:07Z</time>
      </trkpt>
      <trkpt lat="39.4711240" lon="-8.3761590">
        <ele>95.8</ele>
        <time>2019-07-11T11:53:10Z</time>
      </trkpt>
      <trkpt lat="39.4709970" lon="-8.3764870">
        <ele>94.6</ele>
        <time>2019-07-11T11:53:13Z</time>
      </trkpt>
      <trkpt lat="39.4708670" lon="-8.3768290">
        <ele>93.6</ele>
        <time>2019-07-11T11:53:16Z</time>
      </trkpt>
      <trkpt lat="39.4707300" lon="-8.3771820">
        <ele>92.4</ele>
        <time>2019-07-11T11:53:19Z</time>
      </trkpt>
      <trkpt lat="39.4706390" lon="-8.3774130">
        <ele>92.0</ele>
        <time>2019-07-11T11:53:21Z</time>
      </trkpt>
      <trkpt lat="39.4704730" lon="-8.3778550">
        <ele>91.6</ele>
        <time>2019-07-11T11:53:25Z</time>
      </trkpt>
      <trkpt lat="39.4703940" lon="-8.3780570">
        <ele>91.2</ele>
        <time>2019-07-11T11:53:27Z</time>
      </trkpt>
      <trkpt lat="39.4701790" lon="-8.3786030">
        <ele>90.6</ele>
        <time>2019-07-11T11:53:33Z</time>
      </trkpt>
      <trkpt lat="39.4700860" lon="-8.3788480">
        <ele>90.8</ele>
        <time>2019-07-11T11:53:36Z</time>
      </trkpt>
      <trkpt lat="39.4700560" lon="-8.3789240">
        <ele>91.2</ele>
        <time>2019-07-11T11:53:37Z</time>
      </trkpt>
      <trkpt lat="39.4699990" lon="-8.3790710">
        <ele>91.8</ele>
        <time>2019-07-11T11:53:39Z</time>
      </trkpt>
      <trkpt lat="39.4699700" lon="-8.3791440">
        <ele>92.0</ele>
        <time>2019-07-11T11:53:40Z</time>
      </trkpt>
      <trkpt lat="39.4698580" lon="-8.3794310">
        <ele>91.0</ele>
        <time>2019-07-11T11:53:44Z</time>
      </trkpt>
      <trkpt lat="39.4696730" lon="-8.3799370">
        <ele>91.0</ele>
        <time>2019-07-11T11:53:51Z</time>
      </trkpt>
      <trkpt lat="39.4695580" lon="-8.3802230">
        <ele>91.0</ele>
        <time>2019-07-11T11:53:55Z</time>
      </trkpt>
      <trkpt lat="39.4694770" lon="-8.3804390">
        <ele>90.8</ele>
        <time>2019-07-11T11:53:58Z</time>
      </trkpt>
      <trkpt lat="39.4693700" lon="-8.3807240">
        <ele>91.0</ele>
        <time>2019-07-11T11:54:02Z</time>
      </trkpt>
      <trkpt lat="39.4692380" lon="-8.3810790">
        <ele>90.8</ele>
        <time>2019-07-11T11:54:07Z</time>
      </trkpt>
      <trkpt lat="39.4690260" lon="-8.3816180">
        <ele>90.2</ele>
        <time>2019-07-11T11:54:15Z</time>
      </trkpt>
      <trkpt lat="39.4688580" lon="-8.3820580">
        <ele>90.0</ele>
        <time>2019-07-11T11:54:21Z</time>
      </trkpt>
      <trkpt lat="39.4688300" lon="-8.3821420">
        <ele>89.8</ele>
        <time>2019-07-11T11:54:22Z</time>
      </trkpt>
      <trkpt lat="39.4686930" lon="-8.3825020">
        <ele>88.8</ele>
        <time>2019-07-11T11:54:26Z</time>
      </trkpt>
      <trkpt lat="39.4686580" lon="-8.3825990">
        <ele>88.6</ele>
        <time>2019-07-11T11:54:27Z</time>
      </trkpt>
      <trkpt lat="39.4685100" lon="-8.3830110">
        <ele>87.4</ele>
        <time>2019-07-11T11:54:31Z</time>
      </trkpt>
      <trkpt lat="39.4683890" lon="-8.3833400">
        <ele>85.8</ele>
        <time>2019-07-11T11:54:34Z</time>
      </trkpt>
      <trkpt lat="39.4683060" lon="-8.3835660">
        <ele>85.0</ele>
        <time>2019-07-11T11:54:36Z</time>
      </trkpt>
      <trkpt lat="39.4682640" lon="-8.3836810">
        <ele>84.4</ele>
        <time>2019-07-11T11:54:37Z</time>
      </trkpt>
      <trkpt lat="39.4681010" lon="-8.3841280">
        <ele>83.2</ele>
        <time>2019-07-11T11:54:41Z</time>
      </trkpt>
      <trkpt lat="39.4680640" lon="-8.3842320">
        <ele>83.2</ele>
        <time>2019-07-11T11:54:42Z</time>
      </trkpt>
      <trkpt lat="39.4678640" lon="-8.3847780">
        <ele>82.6</ele>
        <time>2019-07-11T11:54:48Z</time>
      </trkpt>
      <trkpt lat="39.4677770" lon="-8.3850080">
        <ele>82.8</ele>
        <time>2019-07-11T11:54:51Z</time>
      </trkpt>
      <trkpt lat="39.4676800" lon="-8.3852840">
        <ele>83.4</ele>
        <time>2019-07-11T11:54:55Z</time>
      </trkpt>
      <trkpt lat="39.4675560" lon="-8.3856040">
        <ele>84.4</ele>
        <time>2019-07-11T11:55:00Z</time>
      </trkpt>
      <trkpt lat="39.4675330" lon="-8.3856670">
        <ele>84.4</ele>
        <time>2019-07-11T11:55:01Z</time>
      </trkpt>
      <trkpt lat="39.4674640" lon="-8.3858560">
        <ele>85.0</ele>
        <time>2019-07-11T11:55:04Z</time>
      </trkpt>
      <trkpt lat="39.4674170" lon="-8.3859790">
        <ele>85.2</ele>
        <time>2019-07-11T11:55:06Z</time>
      </trkpt>
      <trkpt lat="39.4673660" lon="-8.3860980">
        <ele>85.6</ele>
        <time>2019-07-11T11:55:08Z</time>
      </trkpt>
      <trkpt lat="39.4672990" lon="-8.3862830">
        <ele>86.0</ele>
        <time>2019-07-11T11:55:11Z</time>
      </trkpt>
      <trkpt lat="39.4672350" lon="-8.3864670">
        <ele>86.6</ele>
        <time>2019-07-11T11:55:14Z</time>
      </trkpt>
      <trkpt lat="39.4671620" lon="-8.3866460">
        <ele>87.0</ele>
        <time>2019-07-11T11:55:17Z</time>
      </trkpt>
      <trkpt lat="39.4671140" lon="-8.3867670">
        <ele>87.4</ele>
        <time>2019-07-11T11:55:19Z</time>
      </trkpt>
      <trkpt lat="39.4670700" lon="-8.3868920">
        <ele>87.6</ele>
        <time>2019-07-11T11:55:21Z</time>
      </trkpt>
      <trkpt lat="39.4669240" lon="-8.3872660">
        <ele>88.4</ele>
        <time>2019-07-11T11:55:27Z</time>
      </trkpt>
      <trkpt lat="39.4668790" lon="-8.3873900">
        <ele>88.6</ele>
        <time>2019-07-11T11:55:29Z</time>
      </trkpt>
      <trkpt lat="39.4668110" lon="-8.3875780">
        <ele>89.0</ele>
        <time>2019-07-11T11:55:32Z</time>
      </trkpt>
      <trkpt lat="39.4667080" lon="-8.3878290">
        <ele>89.4</ele>
        <time>2019-07-11T11:55:36Z</time>
      </trkpt>
      <trkpt lat="39.4665260" lon="-8.3882940">
        <ele>89.2</ele>
        <time>2019-07-11T11:55:43Z</time>
      </trkpt>
      <trkpt lat="39.4664030" lon="-8.3886360">
        <ele>89.4</ele>
        <time>2019-07-11T11:55:48Z</time>
      </trkpt>
      <trkpt lat="39.4663480" lon="-8.3887780">
        <ele>89.4</ele>
        <time>2019-07-11T11:55:50Z</time>
      </trkpt>
      <trkpt lat="39.4662930" lon="-8.3889180">
        <ele>89.0</ele>
        <time>2019-07-11T11:55:52Z</time>
      </trkpt>
      <trkpt lat="39.4662410" lon="-8.3890610">
        <ele>88.8</ele>
        <time>2019-07-11T11:55:54Z</time>
      </trkpt>
      <trkpt lat="39.4661600" lon="-8.3892850">
        <ele>88.4</ele>
        <time>2019-07-11T11:55:57Z</time>
      </trkpt>
      <trkpt lat="39.4661350" lon="-8.3893650">
        <ele>88.2</ele>
        <time>2019-07-11T11:55:58Z</time>
      </trkpt>
      <trkpt lat="39.4659140" lon="-8.3899310">
        <ele>87.6</ele>
        <time>2019-07-11T11:56:05Z</time>
      </trkpt>
      <trkpt lat="39.4657110" lon="-8.3904670">
        <ele>86.6</ele>
        <time>2019-07-11T11:56:11Z</time>
      </trkpt>
      <trkpt lat="39.4656740" lon="-8.3905560">
        <ele>86.2</ele>
        <time>2019-07-11T11:56:12Z</time>
      </trkpt>
      <trkpt lat="39.4655040" lon="-8.3909120">
        <ele>85.4</ele>
        <time>2019-07-11T11:56:16Z</time>
      </trkpt>
      <trkpt lat="39.4654000" lon="-8.3910840">
        <ele>85.0</ele>
        <time>2019-07-11T11:56:18Z</time>
      </trkpt>
      <trkpt lat="39.4652280" lon="-8.3913330">
        <ele>84.4</ele>
        <time>2019-07-11T11:56:21Z</time>
      </trkpt>
      <trkpt lat="39.4650430" lon="-8.3915800">
        <ele>83.6</ele>
        <time>2019-07-11T11:56:24Z</time>
      </trkpt>
      <trkpt lat="39.4649790" lon="-8.3916660">
        <ele>83.4</ele>
        <time>2019-07-11T11:56:25Z</time>
      </trkpt>
      <trkpt lat="39.4649140" lon="-8.3917520">
        <ele>83.0</ele>
        <time>2019-07-11T11:56:26Z</time>
      </trkpt>
      <trkpt lat="39.4647120" lon="-8.3920150">
        <ele>81.6</ele>
        <time>2019-07-11T11:56:29Z</time>
      </trkpt>
      <trkpt lat="39.4645050" lon="-8.3923020">
        <ele>80.6</ele>
        <time>2019-07-11T11:56:32Z</time>
      </trkpt>
      <trkpt lat="39.4642470" lon="-8.3927280">
        <ele>79.2</ele>
        <time>2019-07-11T11:56:36Z</time>
      </trkpt>
      <trkpt lat="39.4641980" lon="-8.3928480">
        <ele>78.8</ele>
        <time>2019-07-11T11:56:37Z</time>
      </trkpt>
      <trkpt lat="39.4640780" lon="-8.3932270">
        <ele>78.0</ele>
        <time>2019-07-11T11:56:40Z</time>
      </trkpt>
      <trkpt lat="39.4639670" lon="-8.3936110">
        <ele>76.6</ele>
        <time>2019-07-11T11:56:43Z</time>
      </trkpt>
      <trkpt lat="39.4639330" lon="-8.3937380">
        <ele>76.0</ele>
        <time>2019-07-11T11:56:44Z</time>
      </trkpt>
      <trkpt lat="39.4639010" lon="-8.3938640">
        <ele>75.4</ele>
        <time>2019-07-11T11:56:45Z</time>
      </trkpt>
      <trkpt lat="39.4638060" lon="-8.3942420">
        <ele>73.8</ele>
        <time>2019-07-11T11:56:48Z</time>
      </trkpt>
      <trkpt lat="39.4637090" lon="-8.3946100">
        <ele>72.6</ele>
        <time>2019-07-11T11:56:51Z</time>
      </trkpt>
      <trkpt lat="39.4636120" lon="-8.3949670">
        <ele>71.6</ele>
        <time>2019-07-11T11:56:54Z</time>
      </trkpt>
      <trkpt lat="39.4635650" lon="-8.3950770">
        <ele>71.2</ele>
        <time>2019-07-11T11:56:55Z</time>
      </trkpt>
      <trkpt lat="39.4635040" lon="-8.3951760">
        <ele>70.8</ele>
        <time>2019-07-11T11:56:56Z</time>
      </trkpt>
      <trkpt lat="39.4633420" lon="-8.3953090">
        <ele>69.8</ele>
        <time>2019-07-11T11:56:58Z</time>
      </trkpt>
      <trkpt lat="39.4632490" lon="-8.3953420">
        <ele>69.4</ele>
        <time>2019-07-11T11:56:59Z</time>
      </trkpt>
      <trkpt lat="39.4630580" lon="-8.3953750">
        <ele>69.0</ele>
        <time>2019-07-11T11:57:01Z</time>
      </trkpt>
      <trkpt lat="39.4629620" lon="-8.3953880">
        <ele>68.6</ele>
        <time>2019-07-11T11:57:02Z</time>
      </trkpt>
      <trkpt lat="39.4627720" lon="-8.3954290">
        <ele>67.8</ele>
        <time>2019-07-11T11:57:04Z</time>
      </trkpt>
      <trkpt lat="39.4626770" lon="-8.3954600">
        <ele>67.4</ele>
        <time>2019-07-11T11:57:05Z</time>
      </trkpt>
      <trkpt lat="39.4624010" lon="-8.3955900">
        <ele>66.0</ele>
        <time>2019-07-11T11:57:08Z</time>
      </trkpt>
      <trkpt lat="39.4623150" lon="-8.3956490">
        <ele>65.6</ele>
        <time>2019-07-11T11:57:09Z</time>
      </trkpt>
      <trkpt lat="39.4621470" lon="-8.3957750">
        <ele>64.8</ele>
        <time>2019-07-11T11:57:11Z</time>
      </trkpt>
      <trkpt lat="39.4620580" lon="-8.3958270">
        <ele>64.4</ele>
        <time>2019-07-11T11:57:12Z</time>
      </trkpt>
      <trkpt lat="39.4619650" lon="-8.3958650">
        <ele>64.0</ele>
        <time>2019-07-11T11:57:13Z</time>
      </trkpt>
      <trkpt lat="39.4618690" lon="-8.3958900">
        <ele>63.0</ele>
        <time>2019-07-11T11:57:14Z</time>
      </trkpt>
      <trkpt lat="39.4615780" lon="-8.3959150">
        <ele>62.0</ele>
        <time>2019-07-11T11:57:17Z</time>
      </trkpt>
      <trkpt lat="39.4612870" lon="-8.3959200">
        <ele>60.8</ele>
        <time>2019-07-11T11:57:20Z</time>
      </trkpt>
      <trkpt lat="39.4611200" lon="-8.3959720">
        <ele>60.2</ele>
        <time>2019-07-11T11:57:22Z</time>
      </trkpt>
      <trkpt lat="39.4610500" lon="-8.3960170">
        <ele>59.8</ele>
        <time>2019-07-11T11:57:23Z</time>
      </trkpt>
      <trkpt lat="39.4609440" lon="-8.3961460">
        <ele>59.0</ele>
        <time>2019-07-11T11:57:25Z</time>
      </trkpt>
      <trkpt lat="39.4608890" lon="-8.3963160">
        <ele>58.6</ele>
        <time>2019-07-11T11:57:27Z</time>
      </trkpt>
      <trkpt lat="39.4608700" lon="-8.3964020">
        <ele>58.2</ele>
        <time>2019-07-11T11:57:28Z</time>
      </trkpt>
      <trkpt lat="39.4608470" lon="-8.3964870">
        <ele>58.0</ele>
        <time>2019-07-11T11:57:29Z</time>
      </trkpt>
      <trkpt lat="39.4607780" lon="-8.3967320">
        <ele>58.0</ele>
        <time>2019-07-11T11:57:32Z</time>
      </trkpt>
      <trkpt lat="39.4607270" lon="-8.3968840">
        <ele>58.0</ele>
        <time>2019-07-11T11:57:34Z</time>
      </trkpt>
      <trkpt lat="39.4607000" lon="-8.3969570">
        <ele>58.0</ele>
        <time>2019-07-11T11:57:35Z</time>
      </trkpt>
      <trkpt lat="39.4606060" lon="-8.3971760">
        <ele>57.8</ele>
        <time>2019-07-11T11:57:38Z</time>
      </trkpt>
      <trkpt lat="39.4604750" lon="-8.3974640">
        <ele>57.8</ele>
        <time>2019-07-11T11:57:42Z</time>
      </trkpt>
      <trkpt lat="39.4602940" lon="-8.3977970">
        <ele>57.8</ele>
        <time>2019-07-11T11:57:47Z</time>
      </trkpt>
      <trkpt lat="39.4601890" lon="-8.3979940">
        <ele>57.8</ele>
        <time>2019-07-11T11:57:50Z</time>
      </trkpt>
      <trkpt lat="39.4600850" lon="-8.3981930">
        <ele>57.4</ele>
        <time>2019-07-11T11:57:53Z</time>
      </trkpt>
      <trkpt lat="39.4599170" lon="-8.3985000">
        <ele>57.8</ele>
        <time>2019-07-11T11:57:58Z</time>
      </trkpt>
      <trkpt lat="39.4597910" lon="-8.3987300">
        <ele>58.6</ele>
        <time>2019-07-11T11:58:02Z</time>
      </trkpt>
      <trkpt lat="39.4597220" lon="-8.3988360">
        <ele>58.8</ele>
        <time>2019-07-11T11:58:04Z</time>
      </trkpt>
      <trkpt lat="39.4596920" lon="-8.3988900">
        <ele>58.8</ele>
        <time>2019-07-11T11:58:05Z</time>
      </trkpt>
      <trkpt lat="39.4595270" lon="-8.3992150">
        <ele>59.2</ele>
        <time>2019-07-11T11:58:11Z</time>
      </trkpt>
      <trkpt lat="39.4594980" lon="-8.3992690">
        <ele>59.4</ele>
        <time>2019-07-11T11:58:12Z</time>
      </trkpt>
      <trkpt lat="39.4593160" lon="-8.3995960">
        <ele>59.6</ele>
        <time>2019-07-11T11:58:18Z</time>
      </trkpt>
      <trkpt lat="39.4591650" lon="-8.3998690">
        <ele>59.8</ele>
        <time>2019-07-11T11:58:23Z</time>
      </trkpt>
      <trkpt lat="39.4590720" lon="-8.4000270">
        <ele>59.8</ele>
        <time>2019-07-11T11:58:26Z</time>
      </trkpt>
      <trkpt lat="39.4588950" lon="-8.4003500">
        <ele>59.4</ele>
        <time>2019-07-11T11:58:31Z</time>
      </trkpt>
      <trkpt lat="39.4588090" lon="-8.4004870">
        <ele>59.0</ele>
        <time>2019-07-11T11:58:33Z</time>
      </trkpt>
      <trkpt lat="39.4587570" lon="-8.4005460">
        <ele>58.6</ele>
        <time>2019-07-11T11:58:34Z</time>
      </trkpt>
      <trkpt lat="39.4586990" lon="-8.4005950">
        <ele>58.2</ele>
        <time>2019-07-11T11:58:35Z</time>
      </trkpt>
      <trkpt lat="39.4585690" lon="-8.4006760">
        <ele>57.8</ele>
        <time>2019-07-11T11:58:37Z</time>
      </trkpt>
      <trkpt lat="39.4584990" lon="-8.4007230">
        <ele>57.2</ele>
        <time>2019-07-11T11:58:38Z</time>
      </trkpt>
      <trkpt lat="39.4584340" lon="-8.4007810">
        <ele>56.6</ele>
        <time>2019-07-11T11:58:39Z</time>
      </trkpt>
      <trkpt lat="39.4583310" lon="-8.4009320">
        <ele>56.0</ele>
        <time>2019-07-11T11:58:41Z</time>
      </trkpt>
      <trkpt lat="39.4582880" lon="-8.4010190">
        <ele>55.6</ele>
        <time>2019-07-11T11:58:42Z</time>
      </trkpt>
      <trkpt lat="39.4581970" lon="-8.4011820">
        <ele>54.8</ele>
        <time>2019-07-11T11:58:44Z</time>
      </trkpt>
      <trkpt lat="39.4581430" lon="-8.4012570">
        <ele>54.4</ele>
        <time>2019-07-11T11:58:45Z</time>
      </trkpt>
      <trkpt lat="39.4580280" lon="-8.4013940">
        <ele>53.8</ele>
        <time>2019-07-11T11:58:47Z</time>
      </trkpt>
      <trkpt lat="39.4579670" lon="-8.4014560">
        <ele>53.6</ele>
        <time>2019-07-11T11:58:48Z</time>
      </trkpt>
      <trkpt lat="39.4576960" lon="-8.4018110">
        <ele>52.4</ele>
        <time>2019-07-11T11:58:53Z</time>
      </trkpt>
      <trkpt lat="39.4576180" lon="-8.4019680">
        <ele>52.0</ele>
        <time>2019-07-11T11:58:55Z</time>
      </trkpt>
      <trkpt lat="39.4575640" lon="-8.4021270">
        <ele>51.8</ele>
        <time>2019-07-11T11:58:57Z</time>
      </trkpt>
      <trkpt lat="39.4574980" lon="-8.4023570">
        <ele>51.6</ele>
        <time>2019-07-11T11:59:00Z</time>
      </trkpt>
      <trkpt lat="39.4574120" lon="-8.4026530">
        <ele>51.6</ele>
        <time>2019-07-11T11:59:04Z</time>
      </trkpt>
      <trkpt lat="39.4573560" lon="-8.4028650">
        <ele>51.6</ele>
        <time>2019-07-11T11:59:07Z</time>
      </trkpt>
      <trkpt lat="39.4572790" lon="-8.4031360">
        <ele>51.6</ele>
        <time>2019-07-11T11:59:11Z</time>
      </trkpt>
      <trkpt lat="39.4572220" lon="-8.4033350">
        <ele>51.6</ele>
        <time>2019-07-11T11:59:14Z</time>
      </trkpt>
      <trkpt lat="39.4571510" lon="-8.4035220">
        <ele>51.6</ele>
        <time>2019-07-11T11:59:17Z</time>
      </trkpt>
      <trkpt lat="39.4571320" lon="-8.4035870">
        <ele>51.6</ele>
        <time>2019-07-11T11:59:18Z</time>
      </trkpt>
      <trkpt lat="39.4570740" lon="-8.4038560">
        <ele>51.4</ele>
        <time>2019-07-11T11:59:22Z</time>
      </trkpt>
      <trkpt lat="39.4570450" lon="-8.4040630">
        <ele>51.4</ele>
        <time>2019-07-11T11:59:25Z</time>
      </trkpt>
      <trkpt lat="39.4570210" lon="-8.4043550">
        <ele>51.6</ele>
        <time>2019-07-11T11:59:29Z</time>
      </trkpt>
      <trkpt lat="39.4570220" lon="-8.4046530">
        <ele>52.0</ele>
        <time>2019-07-11T11:59:33Z</time>
      </trkpt>
      <trkpt lat="39.4570260" lon="-8.4048800">
        <ele>51.8</ele>
        <time>2019-07-11T11:59:36Z</time>
      </trkpt>
      <trkpt lat="39.4570720" lon="-8.4054220">
        <ele>52.2</ele>
        <time>2019-07-11T11:59:43Z</time>
      </trkpt>
      <trkpt lat="39.4571560" lon="-8.4060880">
        <ele>52.4</ele>
        <time>2019-07-11T11:59:52Z</time>
      </trkpt>
      <trkpt lat="39.4572480" lon="-8.4066420">
        <ele>52.8</ele>
        <time>2019-07-11T12:00:00Z</time>
      </trkpt>
      <trkpt lat="39.4572670" lon="-8.4069820">
        <ele>53.0</ele>
        <time>2019-07-11T12:00:05Z</time>
      </trkpt>
      <trkpt lat="39.4572620" lon="-8.4070450">
        <ele>53.2</ele>
        <time>2019-07-11T12:00:06Z</time>
      </trkpt>
      <trkpt lat="39.4572400" lon="-8.4072250">
        <ele>53.6</ele>
        <time>2019-07-11T12:00:09Z</time>
      </trkpt>
      <trkpt lat="39.4572370" lon="-8.4072860">
        <ele>53.8</ele>
        <time>2019-07-11T12:00:10Z</time>
      </trkpt>
      <trkpt lat="39.4572290" lon="-8.4074690">
        <ele>53.8</ele>
        <time>2019-07-11T12:00:13Z</time>
      </trkpt>
      <trkpt lat="39.4572250" lon="-8.4077750">
        <ele>54.4</ele>
        <time>2019-07-11T12:00:18Z</time>
      </trkpt>
      <trkpt lat="39.4572330" lon="-8.4079470">
        <ele>54.8</ele>
        <time>2019-07-11T12:00:21Z</time>
      </trkpt>
      <trkpt lat="39.4572630" lon="-8.4082900">
        <ele>55.6</ele>
        <time>2019-07-11T12:00:27Z</time>
      </trkpt>
      <trkpt lat="39.4572890" lon="-8.4084050">
        <ele>55.8</ele>
        <time>2019-07-11T12:00:29Z</time>
      </trkpt>
      <trkpt lat="39.4573930" lon="-8.4087320">
        <ele>57.0</ele>
        <time>2019-07-11T12:00:35Z</time>
      </trkpt>
      <trkpt lat="39.4574680" lon="-8.4089360">
        <ele>57.6</ele>
        <time>2019-07-11T12:00:39Z</time>
      </trkpt>
      <trkpt lat="39.4575130" lon="-8.4090340">
        <ele>57.6</ele>
        <time>2019-07-11T12:00:41Z</time>
      </trkpt>
      <trkpt lat="39.4575930" lon="-8.4092350">
        <ele>58.2</ele>
        <time>2019-07-11T12:00:45Z</time>
      </trkpt>
      <trkpt lat="39.4576870" lon="-8.4094320">
        <ele>58.8</ele>
        <time>2019-07-11T12:00:49Z</time>
      </trkpt>
      <trkpt lat="39.4577270" lon="-8.4095360">
        <ele>59.2</ele>
        <time>2019-07-11T12:00:51Z</time>
      </trkpt>
      <trkpt lat="39.4578330" lon="-8.4097800">
        <ele>60.0</ele>
        <time>2019-07-11T12:00:56Z</time>
      </trkpt>
      <trkpt lat="39.4578460" lon="-8.4098310">
        <ele>60.2</ele>
        <time>2019-07-11T12:00:57Z</time>
      </trkpt>
      <trkpt lat="39.4579070" lon="-8.4101910">
        <ele>61.4</ele>
        <time>2019-07-11T12:01:04Z</time>
      </trkpt>
      <trkpt lat="39.4579170" lon="-8.4102400">
        <ele>61.6</ele>
        <time>2019-07-11T12:01:05Z</time>
      </trkpt>
      <trkpt lat="39.4579740" lon="-8.4104840">
        <ele>62.4</ele>
        <time>2019-07-11T12:01:10Z</time>
      </trkpt>
      <trkpt lat="39.4579950" lon="-8.4105860">
        <ele>62.6</ele>
        <time>2019-07-11T12:01:12Z</time>
      </trkpt>
      <trkpt lat="39.4580610" lon="-8.4109860">
        <ele>62.6</ele>
        <time>2019-07-11T12:01:19Z</time>
      </trkpt>
      <trkpt lat="39.4581110" lon="-8.4113930">
        <ele>62.0</ele>
        <time>2019-07-11T12:01:25Z</time>
      </trkpt>
      <trkpt lat="39.4581510" lon="-8.4116260">
        <ele>61.6</ele>
        <time>2019-07-11T12:01:28Z</time>
      </trkpt>
      <trkpt lat="39.4581650" lon="-8.4117060">
        <ele>61.4</ele>
        <time>2019-07-11T12:01:29Z</time>
      </trkpt>
      <trkpt lat="39.4581940" lon="-8.4118710">
        <ele>61.0</ele>
        <time>2019-07-11T12:01:31Z</time>
      </trkpt>
      <trkpt lat="39.4582290" lon="-8.4120390">
        <ele>60.6</ele>
        <time>2019-07-11T12:01:33Z</time>
      </trkpt>
      <trkpt lat="39.4582740" lon="-8.4122110">
        <ele>60.2</ele>
        <time>2019-07-11T12:01:35Z</time>
      </trkpt>
      <trkpt lat="39.4583120" lon="-8.4123920">
        <ele>59.4</ele>
        <time>2019-07-11T12:01:37Z</time>
      </trkpt>
      <trkpt lat="39.4583300" lon="-8.4124850">
        <ele>59.0</ele>
        <time>2019-07-11T12:01:38Z</time>
      </trkpt>
      <trkpt lat="39.4583460" lon="-8.4125810">
        <ele>58.6</ele>
        <time>2019-07-11T12:01:39Z</time>
      </trkpt>
      <trkpt lat="39.4583760" lon="-8.4127790">
        <ele>57.6</ele>
        <time>2019-07-11T12:01:41Z</time>
      </trkpt>
      <trkpt lat="39.4584080" lon="-8.4129860">
        <ele>57.0</ele>
        <time>2019-07-11T12:01:43Z</time>
      </trkpt>
      <trkpt lat="39.4584150" lon="-8.4130930">
        <ele>56.6</ele>
        <time>2019-07-11T12:01:44Z</time>
      </trkpt>
      <trkpt lat="39.4584170" lon="-8.4132020">
        <ele>56.4</ele>
        <time>2019-07-11T12:01:45Z</time>
      </trkpt>
      <trkpt lat="39.4584170" lon="-8.4135330">
        <ele>55.6</ele>
        <time>2019-07-11T12:01:48Z</time>
      </trkpt>
      <trkpt lat="39.4584260" lon="-8.4136420">
        <ele>55.2</ele>
        <time>2019-07-11T12:01:49Z</time>
      </trkpt>
      <trkpt lat="39.4584470" lon="-8.4138530">
        <ele>54.2</ele>
        <time>2019-07-11T12:01:51Z</time>
      </trkpt>
      <trkpt lat="39.4584590" lon="-8.4139530">
        <ele>54.0</ele>
        <time>2019-07-11T12:01:52Z</time>
      </trkpt>
      <trkpt lat="39.4584860" lon="-8.4142360">
        <ele>53.8</ele>
        <time>2019-07-11T12:01:55Z</time>
      </trkpt>
      <trkpt lat="39.4584870" lon="-8.4143260">
        <ele>54.0</ele>
        <time>2019-07-11T12:01:56Z</time>
      </trkpt>
      <trkpt lat="39.4584520" lon="-8.4145820">
        <ele>54.4</ele>
        <time>2019-07-11T12:01:59Z</time>
      </trkpt>
      <trkpt lat="39.4584340" lon="-8.4146620">
        <ele>54.6</ele>
        <time>2019-07-11T12:02:00Z</time>
      </trkpt>
      <trkpt lat="39.4583990" lon="-8.4150340">
        <ele>55.2</ele>
        <time>2019-07-11T12:02:05Z</time>
      </trkpt>
      <trkpt lat="39.4583820" lon="-8.4152210">
        <ele>55.8</ele>
        <time>2019-07-11T12:02:08Z</time>
      </trkpt>
      <trkpt lat="39.4583720" lon="-8.4152820">
        <ele>55.8</ele>
        <time>2019-07-11T12:02:09Z</time>
      </trkpt>
      <trkpt lat="39.4583490" lon="-8.4154040">
        <ele>56.0</ele>
        <time>2019-07-11T12:02:11Z</time>
      </trkpt>
      <trkpt lat="39.4583290" lon="-8.4155200">
        <ele>56.4</ele>
        <time>2019-07-11T12:02:13Z</time>
      </trkpt>
      <trkpt lat="39.4582970" lon="-8.4157040">
        <ele>56.8</ele>
        <time>2019-07-11T12:02:16Z</time>
      </trkpt>
      <trkpt lat="39.4582690" lon="-8.4160330">
        <ele>57.0</ele>
        <time>2019-07-11T12:02:21Z</time>
      </trkpt>
      <trkpt lat="39.4582240" lon="-8.4166410">
        <ele>56.8</ele>
        <time>2019-07-11T12:02:29Z</time>
      </trkpt>
      <trkpt lat="39.4581250" lon="-8.4172630">
        <ele>55.6</ele>
        <time>2019-07-11T12:02:36Z</time>
      </trkpt>
      <trkpt lat="39.4580830" lon="-8.4174550">
        <ele>55.2</ele>
        <time>2019-07-11T12:02:38Z</time>
      </trkpt>
      <trkpt lat="39.4579730" lon="-8.4178520">
        <ele>54.2</ele>
        <time>2019-07-11T12:02:42Z</time>
      </trkpt>
      <trkpt lat="39.4579450" lon="-8.4179490">
        <ele>54.0</ele>
        <time>2019-07-11T12:02:43Z</time>
      </trkpt>
      <trkpt lat="39.4577960" lon="-8.4184630">
        <ele>54.2</ele>
        <time>2019-07-11T12:02:49Z</time>
      </trkpt>
      <trkpt lat="39.4577130" lon="-8.4188080">
        <ele>55.2</ele>
        <time>2019-07-11T12:02:54Z</time>
      </trkpt>
      <trkpt lat="39.4577000" lon="-8.4188730">
        <ele>55.2</ele>
        <time>2019-07-11T12:02:55Z</time>
      </trkpt>
      <trkpt lat="39.4576200" lon="-8.4193640">
        <ele>56.2</ele>
        <time>2019-07-11T12:03:03Z</time>
      </trkpt>
      <trkpt lat="39.4576150" lon="-8.4194240">
        <ele>56.2</ele>
        <time>2019-07-11T12:03:04Z</time>
      </trkpt>
      <trkpt lat="39.4575860" lon="-8.4197670">
        <ele>57.0</ele>
        <time>2019-07-11T12:03:10Z</time>
      </trkpt>
      <trkpt lat="39.4575850" lon="-8.4198220">
        <ele>57.2</ele>
        <time>2019-07-11T12:03:11Z</time>
      </trkpt>
      <trkpt lat="39.4575830" lon="-8.4199320">
        <ele>57.6</ele>
        <time>2019-07-11T12:03:13Z</time>
      </trkpt>
      <trkpt lat="39.4575870" lon="-8.4202050">
        <ele>58.0</ele>
        <time>2019-07-11T12:03:18Z</time>
      </trkpt>
      <trkpt lat="39.4575860" lon="-8.4202620">
        <ele>58.2</ele>
        <time>2019-07-11T12:03:19Z</time>
      </trkpt>
      <trkpt lat="39.4575780" lon="-8.4204260">
        <ele>58.6</ele>
        <time>2019-07-11T12:03:22Z</time>
      </trkpt>
      <trkpt lat="39.4575800" lon="-8.4204790">
        <ele>58.8</ele>
        <time>2019-07-11T12:03:23Z</time>
      </trkpt>
      <trkpt lat="39.4575850" lon="-8.4205860">
        <ele>59.0</ele>
        <time>2019-07-11T12:03:25Z</time>
      </trkpt>
      <trkpt lat="39.4575860" lon="-8.4208630">
        <ele>59.6</ele>
        <time>2019-07-11T12:03:30Z</time>
      </trkpt>
      <trkpt lat="39.4575920" lon="-8.4210810">
        <ele>60.2</ele>
        <time>2019-07-11T12:03:34Z</time>
      </trkpt>
      <trkpt lat="39.4575990" lon="-8.4213530">
        <ele>60.8</ele>
        <time>2019-07-11T12:03:39Z</time>
      </trkpt>
      <trkpt lat="39.4576010" lon="-8.4215740">
        <ele>61.2</ele>
        <time>2019-07-11T12:03:43Z</time>
      </trkpt>
      <trkpt lat="39.4576170" lon="-8.4219140">
        <ele>61.8</ele>
        <time>2019-07-11T12:03:49Z</time>
      </trkpt>
      <trkpt lat="39.4576180" lon="-8.4220850">
        <ele>62.0</ele>
        <time>2019-07-11T12:03:52Z</time>
      </trkpt>
      <trkpt lat="39.4576300" lon="-8.4223150">
        <ele>62.6</ele>
        <time>2019-07-11T12:03:56Z</time>
      </trkpt>
      <trkpt lat="39.4576330" lon="-8.4224330">
        <ele>63.2</ele>
        <time>2019-07-11T12:03:58Z</time>
      </trkpt>
      <trkpt lat="39.4576640" lon="-8.4228450">
        <ele>63.8</ele>
        <time>2019-07-11T12:04:05Z</time>
      </trkpt>
      <trkpt lat="39.4576890" lon="-8.4230780">
        <ele>64.2</ele>
        <time>2019-07-11T12:04:09Z</time>
      </trkpt>
      <trkpt lat="39.4577200" lon="-8.4233180">
        <ele>64.6</ele>
        <time>2019-07-11T12:04:13Z</time>
      </trkpt>
      <trkpt lat="39.4577820" lon="-8.4238100">
        <ele>65.0</ele>
        <time>2019-07-11T12:04:21Z</time>
      </trkpt>
      <trkpt lat="39.4578660" lon="-8.4242470">
        <ele>64.8</ele>
        <time>2019-07-11T12:04:28Z</time>
      </trkpt>
      <trkpt lat="39.4578760" lon="-8.4243110">
        <ele>64.8</ele>
        <time>2019-07-11T12:04:29Z</time>
      </trkpt>
      <trkpt lat="39.4579520" lon="-8.4247610">
        <ele>64.8</ele>
        <time>2019-07-11T12:04:36Z</time>
      </trkpt>
      <trkpt lat="39.4580280" lon="-8.4251370">
        <ele>65.0</ele>
        <time>2019-07-11T12:04:42Z</time>
      </trkpt>
      <trkpt lat="39.4581000" lon="-8.4255240">
        <ele>65.0</ele>
        <time>2019-07-11T12:04:48Z</time>
      </trkpt>
      <trkpt lat="39.4581120" lon="-8.4255900">
        <ele>65.0</ele>
        <time>2019-07-11T12:04:49Z</time>
      </trkpt>
      <trkpt lat="39.4582000" lon="-8.4260240">
        <ele>65.0</ele>
        <time>2019-07-11T12:04:56Z</time>
      </trkpt>
      <trkpt lat="39.4582860" lon="-8.4264120">
        <ele>65.4</ele>
        <time>2019-07-11T12:05:02Z</time>
      </trkpt>
      <trkpt lat="39.4583500" lon="-8.4266660">
        <ele>65.8</ele>
        <time>2019-07-11T12:05:06Z</time>
      </trkpt>
      <trkpt lat="39.4584020" lon="-8.4268530">
        <ele>65.8</ele>
        <time>2019-07-11T12:05:09Z</time>
      </trkpt>
      <trkpt lat="39.4584490" lon="-8.4270350">
        <ele>65.8</ele>
        <time>2019-07-11T12:05:12Z</time>
      </trkpt>
      <trkpt lat="39.4585490" lon="-8.4273660">
        <ele>65.8</ele>
        <time>2019-07-11T12:05:18Z</time>
      </trkpt>
      <trkpt lat="39.4585680" lon="-8.4274200">
        <ele>65.8</ele>
        <time>2019-07-11T12:05:19Z</time>
      </trkpt>
      <trkpt lat="39.4587100" lon="-8.4278260">
        <ele>65.6</ele>
        <time>2019-07-11T12:05:26Z</time>
      </trkpt>
      <trkpt lat="39.4588550" lon="-8.4282000">
        <ele>65.8</ele>
        <time>2019-07-11T12:05:32Z</time>
      </trkpt>
      <trkpt lat="39.4589300" lon="-8.4283960">
        <ele>66.0</ele>
        <time>2019-07-11T12:05:35Z</time>
      </trkpt>
      <trkpt lat="39.4591600" lon="-8.4289430">
        <ele>65.8</ele>
        <time>2019-07-11T12:05:43Z</time>
      </trkpt>
      <trkpt lat="39.4593640" lon="-8.4294600">
        <ele>65.6</ele>
        <time>2019-07-11T12:05:50Z</time>
      </trkpt>
      <trkpt lat="39.4596180" lon="-8.4301560">
        <ele>65.2</ele>
        <time>2019-07-11T12:05:59Z</time>
      </trkpt>
      <trkpt lat="39.4597430" lon="-8.4304730">
        <ele>64.8</ele>
        <time>2019-07-11T12:06:03Z</time>
      </trkpt>
      <trkpt lat="39.4597980" lon="-8.4306430">
        <ele>64.8</ele>
        <time>2019-07-11T12:06:05Z</time>
      </trkpt>
      <trkpt lat="39.4598490" lon="-8.4308170">
        <ele>64.6</ele>
        <time>2019-07-11T12:06:07Z</time>
      </trkpt>
      <trkpt lat="39.4599730" lon="-8.4312650">
        <ele>63.8</ele>
        <time>2019-07-11T12:06:12Z</time>
      </trkpt>
      <trkpt lat="39.4600200" lon="-8.4314450">
        <ele>63.6</ele>
        <time>2019-07-11T12:06:14Z</time>
      </trkpt>
      <trkpt lat="39.4600460" lon="-8.4315320">
        <ele>63.4</ele>
        <time>2019-07-11T12:06:15Z</time>
      </trkpt>
      <trkpt lat="39.4602060" lon="-8.4321090">
        <ele>63.0</ele>
        <time>2019-07-11T12:06:22Z</time>
      </trkpt>
      <trkpt lat="39.4602540" lon="-8.4322600">
        <ele>63.2</ele>
        <time>2019-07-11T12:06:24Z</time>
      </trkpt>
      <trkpt lat="39.4603710" lon="-8.4326370">
        <ele>63.8</ele>
        <time>2019-07-11T12:06:29Z</time>
      </trkpt>
      <trkpt lat="39.4605120" lon="-8.4331560">
        <ele>64.0</ele>
        <time>2019-07-11T12:06:36Z</time>
      </trkpt>
      <trkpt lat="39.4605310" lon="-8.4332300">
        <ele>64.0</ele>
        <time>2019-07-11T12:06:37Z</time>
      </trkpt>
      <trkpt lat="39.4606300" lon="-8.4335900">
        <ele>64.4</ele>
        <time>2019-07-11T12:06:42Z</time>
      </trkpt>
      <trkpt lat="39.4606990" lon="-8.4337970">
        <ele>65.0</ele>
        <time>2019-07-11T12:06:45Z</time>
      </trkpt>
      <trkpt lat="39.4607180" lon="-8.4338650">
        <ele>65.0</ele>
        <time>2019-07-11T12:06:46Z</time>
      </trkpt>
      <trkpt lat="39.4608060" lon="-8.4341330">
        <ele>65.6</ele>
        <time>2019-07-11T12:06:50Z</time>
      </trkpt>
      <trkpt lat="39.4608880" lon="-8.4343190">
        <ele>66.0</ele>
        <time>2019-07-11T12:06:53Z</time>
      </trkpt>
      <trkpt lat="39.4610420" lon="-8.4346130">
        <ele>66.6</ele>
        <time>2019-07-11T12:06:58Z</time>
      </trkpt>
      <trkpt lat="39.4610800" lon="-8.4346660">
        <ele>66.8</ele>
        <time>2019-07-11T12:06:59Z</time>
      </trkpt>
      <trkpt lat="39.4612370" lon="-8.4348680">
        <ele>67.2</ele>
        <time>2019-07-11T12:07:03Z</time>
      </trkpt>
      <trkpt lat="39.4612620" lon="-8.4349300">
        <ele>67.2</ele>
        <time>2019-07-11T12:07:04Z</time>
      </trkpt>
      <trkpt lat="39.4612920" lon="-8.4351450">
        <ele>67.6</ele>
        <time>2019-07-11T12:07:07Z</time>
      </trkpt>
      <trkpt lat="39.4613020" lon="-8.4352180">
        <ele>67.6</ele>
        <time>2019-07-11T12:07:08Z</time>
      </trkpt>
      <trkpt lat="39.4614110" lon="-8.4356420">
        <ele>67.6</ele>
        <time>2019-07-11T12:07:14Z</time>
      </trkpt>
      <trkpt lat="39.4614340" lon="-8.4357120">
        <ele>67.6</ele>
        <time>2019-07-11T12:07:15Z</time>
      </trkpt>
      <trkpt lat="39.4615780" lon="-8.4361520">
        <ele>67.6</ele>
        <time>2019-07-11T12:07:21Z</time>
      </trkpt>
      <trkpt lat="39.4616690" lon="-8.4364650">
        <ele>67.0</ele>
        <time>2019-07-11T12:07:25Z</time>
      </trkpt>
      <trkpt lat="39.4617220" lon="-8.4366250">
        <ele>67.0</ele>
        <time>2019-07-11T12:07:27Z</time>
      </trkpt>
      <trkpt lat="39.4617480" lon="-8.4367080">
        <ele>66.8</ele>
        <time>2019-07-11T12:07:28Z</time>
      </trkpt>
      <trkpt lat="39.4618430" lon="-8.4370420">
        <ele>66.4</ele>
        <time>2019-07-11T12:07:32Z</time>
      </trkpt>
      <trkpt lat="39.4618700" lon="-8.4371210">
        <ele>66.2</ele>
        <time>2019-07-11T12:07:33Z</time>
      </trkpt>
      <trkpt lat="39.4618970" lon="-8.4372020">
        <ele>66.2</ele>
        <time>2019-07-11T12:07:34Z</time>
      </trkpt>
      <trkpt lat="39.4619780" lon="-8.4374470">
        <ele>65.8</ele>
        <time>2019-07-11T12:07:37Z</time>
      </trkpt>
      <trkpt lat="39.4620530" lon="-8.4376920">
        <ele>65.0</ele>
        <time>2019-07-11T12:07:40Z</time>
      </trkpt>
      <trkpt lat="39.4621270" lon="-8.4379420">
        <ele>64.6</ele>
        <time>2019-07-11T12:07:43Z</time>
      </trkpt>
      <trkpt lat="39.4621940" lon="-8.4381860">
        <ele>64.2</ele>
        <time>2019-07-11T12:07:46Z</time>
      </trkpt>
      <trkpt lat="39.4623190" lon="-8.4385730">
        <ele>63.6</ele>
        <time>2019-07-11T12:07:51Z</time>
      </trkpt>
      <trkpt lat="39.4623410" lon="-8.4386570">
        <ele>63.6</ele>
        <time>2019-07-11T12:07:52Z</time>
      </trkpt>
      <trkpt lat="39.4624370" lon="-8.4389990">
        <ele>63.2</ele>
        <time>2019-07-11T12:07:56Z</time>
      </trkpt>
      <trkpt lat="39.4624870" lon="-8.4391650">
        <ele>63.0</ele>
        <time>2019-07-11T12:07:58Z</time>
      </trkpt>
      <trkpt lat="39.4626230" lon="-8.4396070">
        <ele>62.8</ele>
        <time>2019-07-11T12:08:04Z</time>
      </trkpt>
      <trkpt lat="39.4627090" lon="-8.4398870">
        <ele>63.0</ele>
        <time>2019-07-11T12:08:08Z</time>
      </trkpt>
      <trkpt lat="39.4628010" lon="-8.4402530">
        <ele>62.6</ele>
        <time>2019-07-11T12:08:13Z</time>
      </trkpt>
      <trkpt lat="39.4628620" lon="-8.4405460">
        <ele>62.6</ele>
        <time>2019-07-11T12:08:17Z</time>
      </trkpt>
      <trkpt lat="39.4629140" lon="-8.4408510">
        <ele>62.2</ele>
        <time>2019-07-11T12:08:21Z</time>
      </trkpt>
      <trkpt lat="39.4629920" lon="-8.4415410">
        <ele>61.8</ele>
        <time>2019-07-11T12:08:30Z</time>
      </trkpt>
      <trkpt lat="39.4629940" lon="-8.4418330">
        <ele>61.8</ele>
        <time>2019-07-11T12:08:34Z</time>
      </trkpt>
      <trkpt lat="39.4629960" lon="-8.4420430">
        <ele>61.8</ele>
        <time>2019-07-11T12:08:37Z</time>
      </trkpt>
      <trkpt lat="39.4629950" lon="-8.4421120">
        <ele>61.8</ele>
        <time>2019-07-11T12:08:38Z</time>
      </trkpt>
      <trkpt lat="39.4629870" lon="-8.4422430">
        <ele>61.6</ele>
        <time>2019-07-11T12:08:40Z</time>
      </trkpt>
      <trkpt lat="39.4629700" lon="-8.4423710">
        <ele>61.6</ele>
        <time>2019-07-11T12:08:42Z</time>
      </trkpt>
      <trkpt lat="39.4629520" lon="-8.4424350">
        <ele>61.6</ele>
        <time>2019-07-11T12:08:43Z</time>
      </trkpt>
      <trkpt lat="39.4628360" lon="-8.4425660">
        <ele>61.0</ele>
        <time>2019-07-11T12:08:46Z</time>
      </trkpt>
      <trkpt lat="39.4626400" lon="-8.4426550">
        <ele>61.2</ele>
        <time>2019-07-11T12:08:50Z</time>
      </trkpt>
      <trkpt lat="39.4625890" lon="-8.4426840">
        <ele>61.2</ele>
        <time>2019-07-11T12:08:51Z</time>
      </trkpt>
      <trkpt lat="39.4625370" lon="-8.4427100">
        <ele>61.2</ele>
        <time>2019-07-11T12:08:52Z</time>
      </trkpt>
      <trkpt lat="39.4623200" lon="-8.4427910">
        <ele>61.2</ele>
        <time>2019-07-11T12:08:56Z</time>
      </trkpt>
      <trkpt lat="39.4621570" lon="-8.4428540">
        <ele>60.6</ele>
        <time>2019-07-11T12:08:59Z</time>
      </trkpt>
      <trkpt lat="39.4619390" lon="-8.4429160">
        <ele>60.4</ele>
        <time>2019-07-11T12:09:03Z</time>
      </trkpt>
      <trkpt lat="39.4616560" lon="-8.4430110">
        <ele>59.6</ele>
        <time>2019-07-11T12:09:08Z</time>
      </trkpt>
      <trkpt lat="39.4615990" lon="-8.4430260">
        <ele>59.6</ele>
        <time>2019-07-11T12:09:09Z</time>
      </trkpt>
      <trkpt lat="39.4612040" lon="-8.4431130">
        <ele>59.2</ele>
        <time>2019-07-11T12:09:16Z</time>
      </trkpt>
      <trkpt lat="39.4609590" lon="-8.4431480">
        <ele>58.8</ele>
        <time>2019-07-11T12:09:20Z</time>
      </trkpt>
      <trkpt lat="39.4608950" lon="-8.4431600">
        <ele>58.6</ele>
        <time>2019-07-11T12:09:21Z</time>
      </trkpt>
      <trkpt lat="39.4607620" lon="-8.4431830">
        <ele>58.2</ele>
        <time>2019-07-11T12:09:23Z</time>
      </trkpt>
      <trkpt lat="39.4605450" lon="-8.4431890">
        <ele>57.6</ele>
        <time>2019-07-11T12:09:26Z</time>
      </trkpt>
      <trkpt lat="39.4603940" lon="-8.4431890">
        <ele>57.0</ele>
        <time>2019-07-11T12:09:28Z</time>
      </trkpt>
      <trkpt lat="39.4603170" lon="-8.4431870">
        <ele>56.6</ele>
        <time>2019-07-11T12:09:29Z</time>
      </trkpt>
      <trkpt lat="39.4602410" lon="-8.4431820">
        <ele>56.2</ele>
        <time>2019-07-11T12:09:30Z</time>
      </trkpt>
      <trkpt lat="39.4597890" lon="-8.4431160">
        <ele>54.8</ele>
        <time>2019-07-11T12:09:36Z</time>
      </trkpt>
      <trkpt lat="39.4597130" lon="-8.4430990">
        <ele>54.6</ele>
        <time>2019-07-11T12:09:37Z</time>
      </trkpt>
      <trkpt lat="39.4593950" lon="-8.4430720">
        <ele>53.8</ele>
        <time>2019-07-11T12:09:41Z</time>
      </trkpt>
      <trkpt lat="39.4593130" lon="-8.4430640">
        <ele>53.6</ele>
        <time>2019-07-11T12:09:42Z</time>
      </trkpt>
      <trkpt lat="39.4591450" lon="-8.4430520">
        <ele>52.8</ele>
        <time>2019-07-11T12:09:44Z</time>
      </trkpt>
      <trkpt lat="39.4588860" lon="-8.4430390">
        <ele>51.8</ele>
        <time>2019-07-11T12:09:47Z</time>
      </trkpt>
      <trkpt lat="39.4587990" lon="-8.4430350">
        <ele>51.6</ele>
        <time>2019-07-11T12:09:48Z</time>
      </trkpt>
      <trkpt lat="39.4587120" lon="-8.4430300">
        <ele>51.4</ele>
        <time>2019-07-11T12:09:49Z</time>
      </trkpt>
      <trkpt lat="39.4582950" lon="-8.4430090">
        <ele>50.4</ele>
        <time>2019-07-11T12:09:54Z</time>
      </trkpt>
      <trkpt lat="39.4581420" lon="-8.4430010">
        <ele>50.0</ele>
        <time>2019-07-11T12:09:56Z</time>
      </trkpt>
      <trkpt lat="39.4579970" lon="-8.4430020">
        <ele>49.8</ele>
        <time>2019-07-11T12:09:58Z</time>
      </trkpt>
      <trkpt lat="39.4577290" lon="-8.4430150">
        <ele>49.8</ele>
        <time>2019-07-11T12:10:02Z</time>
      </trkpt>
      <trkpt lat="39.4575990" lon="-8.4430240">
        <ele>49.8</ele>
        <time>2019-07-11T12:10:04Z</time>
      </trkpt>
      <trkpt lat="39.4574130" lon="-8.4430540">
        <ele>49.8</ele>
        <time>2019-07-11T12:10:07Z</time>
      </trkpt>
      <trkpt lat="39.4573550" lon="-8.4430750">
        <ele>50.0</ele>
        <time>2019-07-11T12:10:08Z</time>
      </trkpt>
      <trkpt lat="39.4570630" lon="-8.4432630">
        <ele>50.0</ele>
        <time>2019-07-11T12:10:14Z</time>
      </trkpt>
      <trkpt lat="39.4569800" lon="-8.4433400">
        <ele>50.2</ele>
        <time>2019-07-11T12:10:16Z</time>
      </trkpt>
      <trkpt lat="39.4569080" lon="-8.4434160">
        <ele>50.4</ele>
        <time>2019-07-11T12:10:18Z</time>
      </trkpt>
      <trkpt lat="39.4568690" lon="-8.4434480">
        <ele>50.6</ele>
        <time>2019-07-11T12:10:19Z</time>
      </trkpt>
      <trkpt lat="39.4567870" lon="-8.4434960">
        <ele>50.8</ele>
        <time>2019-07-11T12:10:21Z</time>
      </trkpt>
      <trkpt lat="39.4566570" lon="-8.4435470">
        <ele>51.4</ele>
        <time>2019-07-11T12:10:24Z</time>
      </trkpt>
      <trkpt lat="39.4566120" lon="-8.4435580">
        <ele>51.6</ele>
        <time>2019-07-11T12:10:25Z</time>
      </trkpt>
      <trkpt lat="39.4564720" lon="-8.4435770">
        <ele>52.0</ele>
        <time>2019-07-11T12:10:28Z</time>
      </trkpt>
      <trkpt lat="39.4563270" lon="-8.4436180">
        <ele>52.6</ele>
        <time>2019-07-11T12:10:31Z</time>
      </trkpt>
      <trkpt lat="39.4562780" lon="-8.4436340">
        <ele>52.6</ele>
        <time>2019-07-11T12:10:32Z</time>
      </trkpt>
      <trkpt lat="39.4562290" lon="-8.4436600">
        <ele>52.6</ele>
        <time>2019-07-11T12:10:33Z</time>
      </trkpt>
      <trkpt lat="39.4560900" lon="-8.4437440">
        <ele>52.6</ele>
        <time>2019-07-11T12:10:36Z</time>
      </trkpt>
      <trkpt lat="39.4559970" lon="-8.4437950">
        <ele>52.4</ele>
        <time>2019-07-11T12:10:38Z</time>
      </trkpt>
      <trkpt lat="39.4558510" lon="-8.4438820">
        <ele>52.2</ele>
        <time>2019-07-11T12:10:41Z</time>
      </trkpt>
      <trkpt lat="39.4554610" lon="-8.4440940">
        <ele>52.2</ele>
        <time>2019-07-11T12:10:49Z</time>
      </trkpt>
      <trkpt lat="39.4554180" lon="-8.4441290">
        <ele>52.2</ele>
        <time>2019-07-11T12:10:50Z</time>
      </trkpt>
      <trkpt lat="39.4552120" lon="-8.4443230">
        <ele>52.2</ele>
        <time>2019-07-11T12:10:55Z</time>
      </trkpt>
      <trkpt lat="39.4549100" lon="-8.4446160">
        <ele>52.4</ele>
        <time>2019-07-11T12:11:02Z</time>
      </trkpt>
      <trkpt lat="39.4545160" lon="-8.4450110">
        <ele>52.6</ele>
        <time>2019-07-11T12:11:11Z</time>
      </trkpt>
      <trkpt lat="39.4544710" lon="-8.4450560">
        <ele>52.8</ele>
        <time>2019-07-11T12:11:12Z</time>
      </trkpt>
      <trkpt lat="39.4541440" lon="-8.4453730">
        <ele>52.4</ele>
        <time>2019-07-11T12:11:19Z</time>
      </trkpt>
      <trkpt lat="39.4537090" lon="-8.4457860">
        <ele>52.0</ele>
        <time>2019-07-11T12:11:28Z</time>
      </trkpt>
      <trkpt lat="39.4536130" lon="-8.4458770">
        <ele>52.0</ele>
        <time>2019-07-11T12:11:30Z</time>
      </trkpt>
      <trkpt lat="39.4535670" lon="-8.4459270">
        <ele>51.8</ele>
        <time>2019-07-11T12:11:31Z</time>
      </trkpt>
      <trkpt lat="39.4533750" lon="-8.4461070">
        <ele>51.6</ele>
        <time>2019-07-11T12:11:35Z</time>
      </trkpt>
      <trkpt lat="39.4530900" lon="-8.4463660">
        <ele>51.2</ele>
        <time>2019-07-11T12:11:41Z</time>
      </trkpt>
      <trkpt lat="39.4529910" lon="-8.4464450">
        <ele>51.0</ele>
        <time>2019-07-11T12:11:43Z</time>
      </trkpt>
      <trkpt lat="39.4528260" lon="-8.4465480">
        <ele>50.6</ele>
        <time>2019-07-11T12:11:46Z</time>
      </trkpt>
      <trkpt lat="39.4527600" lon="-8.4465640">
        <ele>50.2</ele>
        <time>2019-07-11T12:11:47Z</time>
      </trkpt>
      <trkpt lat="39.4526210" lon="-8.4465520">
        <ele>49.4</ele>
        <time>2019-07-11T12:11:49Z</time>
      </trkpt>
      <trkpt lat="39.4525510" lon="-8.4465270">
        <ele>49.0</ele>
        <time>2019-07-11T12:11:50Z</time>
      </trkpt>
      <trkpt lat="39.4524160" lon="-8.4464890">
        <ele>48.6</ele>
        <time>2019-07-11T12:11:52Z</time>
      </trkpt>
      <trkpt lat="39.4522840" lon="-8.4465060">
        <ele>48.6</ele>
        <time>2019-07-11T12:11:54Z</time>
      </trkpt>
      <trkpt lat="39.4521290" lon="-8.4466300">
        <ele>48.6</ele>
        <time>2019-07-11T12:11:57Z</time>
      </trkpt>
      <trkpt lat="39.4520840" lon="-8.4466830">
        <ele>48.6</ele>
        <time>2019-07-11T12:11:58Z</time>
      </trkpt>
      <trkpt lat="39.4518130" lon="-8.4470150">
        <ele>48.4</ele>
        <time>2019-07-11T12:12:04Z</time>
      </trkpt>
      <trkpt lat="39.4515060" lon="-8.4474880">
        <ele>48.2</ele>
        <time>2019-07-11T12:12:12Z</time>
      </trkpt>
      <trkpt lat="39.4511940" lon="-8.4479190">
        <ele>48.4</ele>
        <time>2019-07-11T12:12:20Z</time>
      </trkpt>
      <trkpt lat="39.4509120" lon="-8.4482630">
        <ele>48.4</ele>
        <time>2019-07-11T12:12:27Z</time>
      </trkpt>
      <trkpt lat="39.4507870" lon="-8.4484010">
        <ele>48.4</ele>
        <time>2019-07-11T12:12:30Z</time>
      </trkpt>
      <trkpt lat="39.4506540" lon="-8.4485270">
        <ele>48.4</ele>
        <time>2019-07-11T12:12:33Z</time>
      </trkpt>
      <trkpt lat="39.4503560" lon="-8.4488520">
        <ele>48.4</ele>
        <time>2019-07-11T12:12:40Z</time>
      </trkpt>
      <trkpt lat="39.4500470" lon="-8.4491630">
        <ele>48.4</ele>
        <time>2019-07-11T12:12:47Z</time>
      </trkpt>
      <trkpt lat="39.4497000" lon="-8.4495320">
        <ele>48.0</ele>
        <time>2019-07-11T12:12:55Z</time>
      </trkpt>
      <trkpt lat="39.4494200" lon="-8.4497910">
        <ele>48.2</ele>
        <time>2019-07-11T12:13:01Z</time>
      </trkpt>
      <trkpt lat="39.4493660" lon="-8.4498240">
        <ele>48.2</ele>
        <time>2019-07-11T12:13:02Z</time>
      </trkpt>
      <trkpt lat="39.4490820" lon="-8.4499160">
        <ele>47.8</ele>
        <time>2019-07-11T12:13:07Z</time>
      </trkpt>
      <trkpt lat="39.4490230" lon="-8.4499180">
        <ele>48.0</ele>
        <time>2019-07-11T12:13:08Z</time>
      </trkpt>
      <trkpt lat="39.4486660" lon="-8.4499310">
        <ele>48.0</ele>
        <time>2019-07-11T12:13:14Z</time>
      </trkpt>
      <trkpt lat="39.4482350" lon="-8.4499390">
        <ele>47.8</ele>
        <time>2019-07-11T12:13:21Z</time>
      </trkpt>
      <trkpt lat="39.4477390" lon="-8.4499610">
        <ele>47.6</ele>
        <time>2019-07-11T12:13:29Z</time>
      </trkpt>
      <trkpt lat="39.4475530" lon="-8.4499610">
        <ele>47.8</ele>
        <time>2019-07-11T12:13:32Z</time>
      </trkpt>
      <trkpt lat="39.4474330" lon="-8.4499330">
        <ele>47.8</ele>
        <time>2019-07-11T12:13:34Z</time>
      </trkpt>
      <trkpt lat="39.4472650" lon="-8.4498410">
        <ele>47.6</ele>
        <time>2019-07-11T12:13:37Z</time>
      </trkpt>
      <trkpt lat="39.4472150" lon="-8.4498000">
        <ele>47.6</ele>
        <time>2019-07-11T12:13:38Z</time>
      </trkpt>
      <trkpt lat="39.4470620" lon="-8.4495780">
        <ele>47.6</ele>
        <time>2019-07-11T12:13:42Z</time>
      </trkpt>
      <trkpt lat="39.4468390" lon="-8.4491820">
        <ele>47.8</ele>
        <time>2019-07-11T12:13:49Z</time>
      </trkpt>
      <trkpt lat="39.4467980" lon="-8.4491380">
        <ele>47.8</ele>
        <time>2019-07-11T12:13:50Z</time>
      </trkpt>
      <trkpt lat="39.4466560" lon="-8.4490400">
        <ele>47.8</ele>
        <time>2019-07-11T12:13:53Z</time>
      </trkpt>
      <trkpt lat="39.4463160" lon="-8.4489400">
        <ele>47.6</ele>
        <time>2019-07-11T12:13:59Z</time>
      </trkpt>
      <trkpt lat="39.4460070" lon="-8.4488690">
        <ele>47.6</ele>
        <time>2019-07-11T12:14:04Z</time>
      </trkpt>
      <trkpt lat="39.4458860" lon="-8.4488400">
        <ele>47.4</ele>
        <time>2019-07-11T12:14:06Z</time>
      </trkpt>
      <trkpt lat="39.4458270" lon="-8.4488250">
        <ele>47.4</ele>
        <time>2019-07-11T12:14:07Z</time>
      </trkpt>
      <trkpt lat="39.4455990" lon="-8.4487710">
        <ele>46.8</ele>
        <time>2019-07-11T12:14:11Z</time>
      </trkpt>
      <trkpt lat="39.4455490" lon="-8.4487870">
        <ele>46.6</ele>
        <time>2019-07-11T12:14:12Z</time>
      </trkpt>
      <trkpt lat="39.4454550" lon="-8.4489110">
        <ele>46.4</ele>
        <time>2019-07-11T12:14:15Z</time>
      </trkpt>
      <trkpt lat="39.4453590" lon="-8.4490860">
        <ele>47.2</ele>
        <time>2019-07-11T12:14:19Z</time>
      </trkpt>
      <trkpt lat="39.4453200" lon="-8.4491660">
        <ele>47.6</ele>
        <time>2019-07-11T12:14:21Z</time>
      </trkpt>
      <trkpt lat="39.4452060" lon="-8.4494020">
        <ele>48.6</ele>
        <time>2019-07-11T12:14:27Z</time>
      </trkpt>
      <trkpt lat="39.4451840" lon="-8.4494400">
        <ele>49.0</ele>
        <time>2019-07-11T12:14:28Z</time>
      </trkpt>
      <trkpt lat="39.4450790" lon="-8.4496080">
        <ele>49.8</ele>
        <time>2019-07-11T12:14:32Z</time>
      </trkpt>
      <trkpt lat="39.4450240" lon="-8.4497030">
        <ele>50.0</ele>
        <time>2019-07-11T12:14:34Z</time>
      </trkpt>
      <trkpt lat="39.4449390" lon="-8.4498550">
        <ele>50.2</ele>
        <time>2019-07-11T12:14:37Z</time>
      </trkpt>
      <trkpt lat="39.4448820" lon="-8.4499560">
        <ele>50.6</ele>
        <time>2019-07-11T12:14:39Z</time>
      </trkpt>
      <trkpt lat="39.4447270" lon="-8.4501910">
        <ele>51.0</ele>
        <time>2019-07-11T12:14:44Z</time>
      </trkpt>
      <trkpt lat="39.4446650" lon="-8.4502870">
        <ele>51.0</ele>
        <time>2019-07-11T12:14:46Z</time>
      </trkpt>
      <trkpt lat="39.4444560" lon="-8.4506470">
        <ele>51.2</ele>
        <time>2019-07-11T12:14:53Z</time>
      </trkpt>
      <trkpt lat="39.4443240" lon="-8.4508680">
        <ele>51.2</ele>
        <time>2019-07-11T12:14:57Z</time>
      </trkpt>
      <trkpt lat="39.4442370" lon="-8.4509460">
        <ele>51.2</ele>
        <time>2019-07-11T12:14:59Z</time>
      </trkpt>
      <trkpt lat="39.4441390" lon="-8.4510060">
        <ele>51.4</ele>
        <time>2019-07-11T12:15:01Z</time>
      </trkpt>
      <trkpt lat="39.4439390" lon="-8.4511090">
        <ele>51.6</ele>
        <time>2019-07-11T12:15:05Z</time>
      </trkpt>
      <trkpt lat="39.4436110" lon="-8.4513050">
        <ele>52.0</ele>
        <time>2019-07-11T12:15:12Z</time>
      </trkpt>
      <trkpt lat="39.4435620" lon="-8.4513300">
        <ele>52.2</ele>
        <time>2019-07-11T12:15:13Z</time>
      </trkpt>
      <trkpt lat="39.4432270" lon="-8.4515310">
        <ele>52.2</ele>
        <time>2019-07-11T12:15:20Z</time>
      </trkpt>
      <trkpt lat="39.4427410" lon="-8.4518120">
        <ele>53.0</ele>
        <time>2019-07-11T12:15:30Z</time>
      </trkpt>
      <trkpt lat="39.4423300" lon="-8.4520790">
        <ele>52.8</ele>
        <time>2019-07-11T12:15:38Z</time>
      </trkpt>
      <trkpt lat="39.4419600" lon="-8.4522830">
        <ele>52.6</ele>
        <time>2019-07-11T12:15:45Z</time>
      </trkpt>
      <trkpt lat="39.4419050" lon="-8.4523140">
        <ele>52.4</ele>
        <time>2019-07-11T12:15:46Z</time>
      </trkpt>
      <trkpt lat="39.4416940" lon="-8.4524540">
        <ele>52.6</ele>
        <time>2019-07-11T12:15:50Z</time>
      </trkpt>
      <trkpt lat="39.4415350" lon="-8.4525390">
        <ele>52.6</ele>
        <time>2019-07-11T12:15:53Z</time>
      </trkpt>
      <trkpt lat="39.4414250" lon="-8.4525840">
        <ele>52.6</ele>
        <time>2019-07-11T12:15:55Z</time>
      </trkpt>
      <trkpt lat="39.4413740" lon="-8.4526120">
        <ele>52.4</ele>
        <time>2019-07-11T12:15:56Z</time>
      </trkpt>
      <trkpt lat="39.4413270" lon="-8.4526510">
        <ele>52.4</ele>
        <time>2019-07-11T12:15:57Z</time>
      </trkpt>
      <trkpt lat="39.4411370" lon="-8.4529290">
        <ele>52.2</ele>
        <time>2019-07-11T12:16:02Z</time>
      </trkpt>
      <trkpt lat="39.4409760" lon="-8.4531390">
        <ele>52.2</ele>
        <time>2019-07-11T12:16:06Z</time>
      </trkpt>
      <trkpt lat="39.4408050" lon="-8.4533300">
        <ele>52.2</ele>
        <time>2019-07-11T12:16:10Z</time>
      </trkpt>
      <trkpt lat="39.4405320" lon="-8.4536750">
        <ele>52.2</ele>
        <time>2019-07-11T12:16:17Z</time>
      </trkpt>
      <trkpt lat="39.4402230" lon="-8.4541040">
        <ele>52.4</ele>
        <time>2019-07-11T12:16:25Z</time>
      </trkpt>
      <trkpt lat="39.4398940" lon="-8.4545110">
        <ele>52.4</ele>
        <time>2019-07-11T12:16:33Z</time>
      </trkpt>
      <trkpt lat="39.4395540" lon="-8.4549460">
        <ele>50.8</ele>
        <time>2019-07-11T12:16:40Z</time>
      </trkpt>
      <trkpt lat="39.4395090" lon="-8.4550110">
        <ele>50.8</ele>
        <time>2019-07-11T12:16:41Z</time>
      </trkpt>
      <trkpt lat="39.4392530" lon="-8.4553680">
        <ele>50.2</ele>
        <time>2019-07-11T12:16:47Z</time>
      </trkpt>
      <trkpt lat="39.4388890" lon="-8.4559010">
        <ele>50.2</ele>
        <time>2019-07-11T12:16:56Z</time>
      </trkpt>
      <trkpt lat="39.4388500" lon="-8.4559620">
        <ele>50.0</ele>
        <time>2019-07-11T12:16:57Z</time>
      </trkpt>
      <trkpt lat="39.4385320" lon="-8.4564490">
        <ele>49.8</ele>
        <time>2019-07-11T12:17:05Z</time>
      </trkpt>
      <trkpt lat="39.4384930" lon="-8.4565110">
        <ele>49.8</ele>
        <time>2019-07-11T12:17:06Z</time>
      </trkpt>
      <trkpt lat="39.4382880" lon="-8.4568180">
        <ele>49.8</ele>
        <time>2019-07-11T12:17:11Z</time>
      </trkpt>
      <trkpt lat="39.4380420" lon="-8.4571950">
        <ele>49.4</ele>
        <time>2019-07-11T12:17:17Z</time>
      </trkpt>
      <trkpt lat="39.4380020" lon="-8.4572580">
        <ele>49.4</ele>
        <time>2019-07-11T12:17:18Z</time>
      </trkpt>
      <trkpt lat="39.4376330" lon="-8.4578210">
        <ele>49.4</ele>
        <time>2019-07-11T12:17:27Z</time>
      </trkpt>
      <trkpt lat="39.4375940" lon="-8.4578850">
        <ele>49.4</ele>
        <time>2019-07-11T12:17:28Z</time>
      </trkpt>
      <trkpt lat="39.4373390" lon="-8.4582490">
        <ele>49.0</ele>
        <time>2019-07-11T12:17:34Z</time>
      </trkpt>
      <trkpt lat="39.4369610" lon="-8.4587790">
        <ele>49.2</ele>
        <time>2019-07-11T12:17:43Z</time>
      </trkpt>
      <trkpt lat="39.4369160" lon="-8.4588320">
        <ele>49.2</ele>
        <time>2019-07-11T12:17:44Z</time>
      </trkpt>
      <trkpt lat="39.4364970" lon="-8.4592970">
        <ele>49.2</ele>
        <time>2019-07-11T12:17:53Z</time>
      </trkpt>
      <trkpt lat="39.4364500" lon="-8.4593480">
        <ele>49.2</ele>
        <time>2019-07-11T12:17:54Z</time>
      </trkpt>
      <trkpt lat="39.4361640" lon="-8.4596420">
        <ele>49.2</ele>
        <time>2019-07-11T12:18:00Z</time>
      </trkpt>
      <trkpt lat="39.4357980" lon="-8.4600450">
        <ele>49.0</ele>
        <time>2019-07-11T12:18:08Z</time>
      </trkpt>
      <trkpt lat="39.4357510" lon="-8.4600940">
        <ele>49.0</ele>
        <time>2019-07-11T12:18:09Z</time>
      </trkpt>
      <trkpt lat="39.4355620" lon="-8.4602900">
        <ele>48.8</ele>
        <time>2019-07-11T12:18:13Z</time>
      </trkpt>
      <trkpt lat="39.4354270" lon="-8.4604410">
        <ele>48.8</ele>
        <time>2019-07-11T12:18:16Z</time>
      </trkpt>
      <trkpt lat="39.4349950" lon="-8.4608600">
        <ele>48.6</ele>
        <time>2019-07-11T12:18:25Z</time>
      </trkpt>
      <trkpt lat="39.4346580" lon="-8.4610290">
        <ele>48.6</ele>
        <time>2019-07-11T12:18:31Z</time>
      </trkpt>
      <trkpt lat="39.4341730" lon="-8.4611350">
        <ele>48.6</ele>
        <time>2019-07-11T12:18:39Z</time>
      </trkpt>
      <trkpt lat="39.4336310" lon="-8.4612350">
        <ele>48.6</ele>
        <time>2019-07-11T12:18:48Z</time>
      </trkpt>
      <trkpt lat="39.4330760" lon="-8.4613300">
        <ele>48.6</ele>
        <time>2019-07-11T12:18:57Z</time>
      </trkpt>
      <trkpt lat="39.4326950" lon="-8.4613250">
        <ele>49.0</ele>
        <time>2019-07-11T12:19:03Z</time>
      </trkpt>
      <trkpt lat="39.4323880" lon="-8.4611730">
        <ele>49.0</ele>
        <time>2019-07-11T12:19:08Z</time>
      </trkpt>
      <trkpt lat="39.4319240" lon="-8.4608610">
        <ele>48.6</ele>
        <time>2019-07-11T12:19:16Z</time>
      </trkpt>
      <trkpt lat="39.4318170" lon="-8.4607890">
        <ele>48.6</ele>
        <time>2019-07-11T12:19:18Z</time>
      </trkpt>
      <trkpt lat="39.4315030" lon="-8.4605700">
        <ele>48.6</ele>
        <time>2019-07-11T12:19:24Z</time>
      </trkpt>
      <trkpt lat="39.4311650" lon="-8.4603740">
        <ele>48.8</ele>
        <time>2019-07-11T12:19:30Z</time>
      </trkpt>
      <trkpt lat="39.4311040" lon="-8.4603530">
        <ele>48.8</ele>
        <time>2019-07-11T12:19:31Z</time>
      </trkpt>
      <trkpt lat="39.4308570" lon="-8.4602910">
        <ele>49.2</ele>
        <time>2019-07-11T12:19:35Z</time>
      </trkpt>
      <trkpt lat="39.4304820" lon="-8.4602530">
        <ele>49.0</ele>
        <time>2019-07-11T12:19:41Z</time>
      </trkpt>
      <trkpt lat="39.4304200" lon="-8.4602610">
        <ele>49.0</ele>
        <time>2019-07-11T12:19:42Z</time>
      </trkpt>
      <trkpt lat="39.4302420" lon="-8.4603250">
        <ele>49.0</ele>
        <time>2019-07-11T12:19:45Z</time>
      </trkpt>
      <trkpt lat="39.4301280" lon="-8.4603880">
        <ele>48.8</ele>
        <time>2019-07-11T12:19:47Z</time>
      </trkpt>
      <trkpt lat="39.4296690" lon="-8.4606270">
        <ele>48.4</ele>
        <time>2019-07-11T12:19:55Z</time>
      </trkpt>
      <trkpt lat="39.4295000" lon="-8.4607190">
        <ele>48.4</ele>
        <time>2019-07-11T12:19:58Z</time>
      </trkpt>
      <trkpt lat="39.4293240" lon="-8.4607940">
        <ele>48.2</ele>
        <time>2019-07-11T12:20:01Z</time>
      </trkpt>
      <trkpt lat="39.4291480" lon="-8.4608770">
        <ele>48.0</ele>
        <time>2019-07-11T12:20:04Z</time>
      </trkpt>
      <trkpt lat="39.4287850" lon="-8.4609870">
        <ele>48.0</ele>
        <time>2019-07-11T12:20:10Z</time>
      </trkpt>
      <trkpt lat="39.4285430" lon="-8.4610440">
        <ele>47.8</ele>
        <time>2019-07-11T12:20:14Z</time>
      </trkpt>
      <trkpt lat="39.4283660" lon="-8.4611070">
        <ele>48.0</ele>
        <time>2019-07-11T12:20:17Z</time>
      </trkpt>
      <trkpt lat="39.4280150" lon="-8.4612940">
        <ele>47.8</ele>
        <time>2019-07-11T12:20:23Z</time>
      </trkpt>
      <trkpt lat="39.4278990" lon="-8.4613530">
        <ele>47.8</ele>
        <time>2019-07-11T12:20:25Z</time>
      </trkpt>
      <trkpt lat="39.4275410" lon="-8.4614900">
        <ele>47.8</ele>
        <time>2019-07-11T12:20:31Z</time>
      </trkpt>
      <trkpt lat="39.4270530" lon="-8.4616370">
        <ele>48.0</ele>
        <time>2019-07-11T12:20:39Z</time>
      </trkpt>
      <trkpt lat="39.4266350" lon="-8.4617520">
        <ele>47.8</ele>
        <time>2019-07-11T12:20:46Z</time>
      </trkpt>
      <trkpt lat="39.4261470" lon="-8.4618770">
        <ele>47.6</ele>
        <time>2019-07-11T12:20:54Z</time>
      </trkpt>
      <trkpt lat="39.4257150" lon="-8.4619470">
        <ele>48.0</ele>
        <time>2019-07-11T12:21:01Z</time>
      </trkpt>
      <trkpt lat="39.4252170" lon="-8.4620300">
        <ele>47.8</ele>
        <time>2019-07-11T12:21:09Z</time>
      </trkpt>
      <trkpt lat="39.4251550" lon="-8.4620430">
        <ele>47.8</ele>
        <time>2019-07-11T12:21:10Z</time>
      </trkpt>
      <trkpt lat="39.4246690" lon="-8.4621270">
        <ele>47.6</ele>
        <time>2019-07-11T12:21:18Z</time>
      </trkpt>
      <trkpt lat="39.4241930" lon="-8.4622360">
        <ele>47.6</ele>
        <time>2019-07-11T12:21:26Z</time>
      </trkpt>
      <trkpt lat="39.4237940" lon="-8.4623740">
        <ele>48.2</ele>
        <time>2019-07-11T12:21:33Z</time>
      </trkpt>
      <trkpt lat="39.4236250" lon="-8.4624280">
        <ele>48.2</ele>
        <time>2019-07-11T12:21:36Z</time>
      </trkpt>
      <trkpt lat="39.4232500" lon="-8.4626250">
        <ele>48.2</ele>
        <time>2019-07-11T12:21:43Z</time>
      </trkpt>
      <trkpt lat="39.4228530" lon="-8.4628950">
        <ele>48.6</ele>
        <time>2019-07-11T12:21:51Z</time>
      </trkpt>
      <trkpt lat="39.4224630" lon="-8.4631640">
        <ele>48.8</ele>
        <time>2019-07-11T12:21:59Z</time>
      </trkpt>
      <trkpt lat="39.4220520" lon="-8.4634190">
        <ele>49.2</ele>
        <time>2019-07-11T12:22:07Z</time>
      </trkpt>
      <trkpt lat="39.4218380" lon="-8.4635350">
        <ele>49.2</ele>
        <time>2019-07-11T12:22:11Z</time>
      </trkpt>
      <trkpt lat="39.4215590" lon="-8.4636660">
        <ele>49.4</ele>
        <time>2019-07-11T12:22:16Z</time>
      </trkpt>
      <trkpt lat="39.4210630" lon="-8.4639140">
        <ele>49.2</ele>
        <time>2019-07-11T12:22:25Z</time>
      </trkpt>
      <trkpt lat="39.4206920" lon="-8.4641390">
        <ele>49.6</ele>
        <time>2019-07-11T12:22:32Z</time>
      </trkpt>
      <trkpt lat="39.4206400" lon="-8.4641790">
        <ele>49.6</ele>
        <time>2019-07-11T12:22:33Z</time>
      </trkpt>
      <trkpt lat="39.4202880" lon="-8.4644970">
        <ele>49.4</ele>
        <time>2019-07-11T12:22:40Z</time>
      </trkpt>
      <trkpt lat="39.4201330" lon="-8.4646320">
        <ele>49.2</ele>
        <time>2019-07-11T12:22:43Z</time>
      </trkpt>
      <trkpt lat="39.4198790" lon="-8.4648680">
        <ele>49.2</ele>
        <time>2019-07-11T12:22:48Z</time>
      </trkpt>
      <trkpt lat="39.4195190" lon="-8.4651600">
        <ele>48.8</ele>
        <time>2019-07-11T12:22:55Z</time>
      </trkpt>
      <trkpt lat="39.4194660" lon="-8.4651930">
        <ele>48.8</ele>
        <time>2019-07-11T12:22:56Z</time>
      </trkpt>
      <trkpt lat="39.4191090" lon="-8.4653250">
        <ele>48.6</ele>
        <time>2019-07-11T12:23:02Z</time>
      </trkpt>
      <trkpt lat="39.4186140" lon="-8.4654650">
        <ele>48.8</ele>
        <time>2019-07-11T12:23:10Z</time>
      </trkpt>
      <trkpt lat="39.4180550" lon="-8.4656260">
        <ele>48.8</ele>
        <time>2019-07-11T12:23:19Z</time>
      </trkpt>
      <trkpt lat="39.4174930" lon="-8.4658020">
        <ele>48.6</ele>
        <time>2019-07-11T12:23:28Z</time>
      </trkpt>
      <trkpt lat="39.4170500" lon="-8.4659300">
        <ele>48.6</ele>
        <time>2019-07-11T12:23:35Z</time>
      </trkpt>
      <trkpt lat="39.4164900" lon="-8.4660950">
        <ele>48.6</ele>
        <time>2019-07-11T12:23:44Z</time>
      </trkpt>
      <trkpt lat="39.4163680" lon="-8.4661380">
        <ele>48.6</ele>
        <time>2019-07-11T12:23:46Z</time>
      </trkpt>
      <trkpt lat="39.4158180" lon="-8.4663640">
        <ele>48.6</ele>
        <time>2019-07-11T12:23:55Z</time>
      </trkpt>
      <trkpt lat="39.4153320" lon="-8.4665790">
        <ele>48.4</ele>
        <time>2019-07-11T12:24:03Z</time>
      </trkpt>
      <trkpt lat="39.4148950" lon="-8.4668820">
        <ele>48.8</ele>
        <time>2019-07-11T12:24:11Z</time>
      </trkpt>
      <trkpt lat="39.4145090" lon="-8.4672570">
        <ele>48.6</ele>
        <time>2019-07-11T12:24:19Z</time>
      </trkpt>
      <trkpt lat="39.4141590" lon="-8.4675990">
        <ele>48.6</ele>
        <time>2019-07-11T12:24:26Z</time>
      </trkpt>
      <trkpt lat="39.4136550" lon="-8.4680050">
        <ele>48.6</ele>
        <time>2019-07-11T12:24:35Z</time>
      </trkpt>
      <trkpt lat="39.4133730" lon="-8.4682020">
        <ele>48.6</ele>
        <time>2019-07-11T12:24:40Z</time>
      </trkpt>
      <trkpt lat="39.4131530" lon="-8.4683420">
        <ele>48.8</ele>
        <time>2019-07-11T12:24:44Z</time>
      </trkpt>
      <trkpt lat="39.4128380" lon="-8.4685640">
        <ele>48.8</ele>
        <time>2019-07-11T12:24:50Z</time>
      </trkpt>
      <trkpt lat="39.4124720" lon="-8.4687730">
        <ele>48.8</ele>
        <time>2019-07-11T12:24:57Z</time>
      </trkpt>
      <trkpt lat="39.4120180" lon="-8.4689280">
        <ele>49.2</ele>
        <time>2019-07-11T12:25:05Z</time>
      </trkpt>
      <trkpt lat="39.4115510" lon="-8.4691130">
        <ele>49.8</ele>
        <time>2019-07-11T12:25:13Z</time>
      </trkpt>
      <trkpt lat="39.4110910" lon="-8.4693380">
        <ele>50.4</ele>
        <time>2019-07-11T12:25:21Z</time>
      </trkpt>
      <trkpt lat="39.4109190" lon="-8.4694390">
        <ele>50.4</ele>
        <time>2019-07-11T12:25:24Z</time>
      </trkpt>
      <trkpt lat="39.4105730" lon="-8.4696320">
        <ele>50.2</ele>
        <time>2019-07-11T12:25:30Z</time>
      </trkpt>
      <trkpt lat="39.4101110" lon="-8.4698850">
        <ele>50.4</ele>
        <time>2019-07-11T12:25:38Z</time>
      </trkpt>
      <trkpt lat="39.4095670" lon="-8.4702040">
        <ele>50.0</ele>
        <time>2019-07-11T12:25:47Z</time>
      </trkpt>
      <trkpt lat="39.4091350" lon="-8.4704770">
        <ele>50.0</ele>
        <time>2019-07-11T12:25:54Z</time>
      </trkpt>
      <trkpt lat="39.4088270" lon="-8.4706710">
        <ele>49.4</ele>
        <time>2019-07-11T12:25:59Z</time>
      </trkpt>
      <trkpt lat="39.4087660" lon="-8.4707120">
        <ele>49.4</ele>
        <time>2019-07-11T12:26:00Z</time>
      </trkpt>
      <trkpt lat="39.4085820" lon="-8.4708320">
        <ele>49.4</ele>
        <time>2019-07-11T12:26:03Z</time>
      </trkpt>
      <trkpt lat="39.4082130" lon="-8.4710350">
        <ele>49.0</ele>
        <time>2019-07-11T12:26:09Z</time>
      </trkpt>
      <trkpt lat="39.4080920" lon="-8.4710950">
        <ele>49.0</ele>
        <time>2019-07-11T12:26:11Z</time>
      </trkpt>
      <trkpt lat="39.4079210" lon="-8.4711850">
        <ele>48.8</ele>
        <time>2019-07-11T12:26:14Z</time>
      </trkpt>
      <trkpt lat="39.4077580" lon="-8.4712620">
        <ele>48.8</ele>
        <time>2019-07-11T12:26:17Z</time>
      </trkpt>
      <trkpt lat="39.4077070" lon="-8.4712880">
        <ele>48.6</ele>
        <time>2019-07-11T12:26:18Z</time>
      </trkpt>
      <trkpt lat="39.4073110" lon="-8.4714710">
        <ele>48.6</ele>
        <time>2019-07-11T12:26:26Z</time>
      </trkpt>
      <trkpt lat="39.4069710" lon="-8.4716680">
        <ele>49.0</ele>
        <time>2019-07-11T12:26:33Z</time>
      </trkpt>
      <trkpt lat="39.4066470" lon="-8.4719070">
        <ele>49.0</ele>
        <time>2019-07-11T12:26:40Z</time>
      </trkpt>
      <trkpt lat="39.4063890" lon="-8.4720950">
        <ele>48.6</ele>
        <time>2019-07-11T12:26:46Z</time>
      </trkpt>
      <trkpt lat="39.4062090" lon="-8.4722180">
        <ele>49.0</ele>
        <time>2019-07-11T12:26:50Z</time>
      </trkpt>
      <trkpt lat="39.4061140" lon="-8.4722630">
        <ele>49.2</ele>
        <time>2019-07-11T12:26:52Z</time>
      </trkpt>
      <trkpt lat="39.4057210" lon="-8.4724500">
        <ele>49.2</ele>
        <time>2019-07-11T12:27:00Z</time>
      </trkpt>
      <trkpt lat="39.4054380" lon="-8.4726200">
        <ele>49.0</ele>
        <time>2019-07-11T12:27:06Z</time>
      </trkpt>
      <trkpt lat="39.4053980" lon="-8.4726540">
        <ele>49.0</ele>
        <time>2019-07-11T12:27:07Z</time>
      </trkpt>
      <trkpt lat="39.4052680" lon="-8.4727990">
        <ele>49.2</ele>
        <time>2019-07-11T12:27:11Z</time>
      </trkpt>
      <trkpt lat="39.4050930" lon="-8.4730040">
        <ele>49.6</ele>
        <time>2019-07-11T12:27:17Z</time>
      </trkpt>
      <trkpt lat="39.4048530" lon="-8.4730770">
        <ele>49.4</ele>
        <time>2019-07-11T12:27:22Z</time>
      </trkpt>
      <trkpt lat="39.4046390" lon="-8.4732310">
        <ele>49.2</ele>
        <time>2019-07-11T12:27:26Z</time>
      </trkpt>
      <trkpt lat="39.4042190" lon="-8.4736040">
        <ele>48.8</ele>
        <time>2019-07-11T12:27:34Z</time>
      </trkpt>
      <trkpt lat="39.4040730" lon="-8.4737400">
        <ele>48.8</ele>
        <time>2019-07-11T12:27:37Z</time>
      </trkpt>
      <trkpt lat="39.4039390" lon="-8.4738650">
        <ele>48.8</ele>
        <time>2019-07-11T12:27:40Z</time>
      </trkpt>
      <trkpt lat="39.4037430" lon="-8.4740300">
        <ele>48.6</ele>
        <time>2019-07-11T12:27:45Z</time>
      </trkpt>
      <trkpt lat="39.4037070" lon="-8.4740640">
        <ele>48.6</ele>
        <time>2019-07-11T12:27:46Z</time>
      </trkpt>
      <trkpt lat="39.4036310" lon="-8.4741310">
        <ele>48.6</ele>
        <time>2019-07-11T12:27:48Z</time>
      </trkpt>
      <trkpt lat="39.4035000" lon="-8.4742380">
        <ele>49.0</ele>
        <time>2019-07-11T12:27:51Z</time>
      </trkpt>
      <trkpt lat="39.4031200" lon="-8.4745510">
        <ele>49.0</ele>
        <time>2019-07-11T12:27:59Z</time>
      </trkpt>
      <trkpt lat="39.4027710" lon="-8.4748490">
        <ele>48.6</ele>
        <time>2019-07-11T12:28:07Z</time>
      </trkpt>
      <trkpt lat="39.4027330" lon="-8.4748930">
        <ele>48.4</ele>
        <time>2019-07-11T12:28:08Z</time>
      </trkpt>
      <trkpt lat="39.4026110" lon="-8.4750880">
        <ele>48.0</ele>
        <time>2019-07-11T12:28:12Z</time>
      </trkpt>
      <trkpt lat="39.4024070" lon="-8.4754560">
        <ele>47.8</ele>
        <time>2019-07-11T12:28:19Z</time>
      </trkpt>
      <trkpt lat="39.4022620" lon="-8.4758520">
        <ele>47.8</ele>
        <time>2019-07-11T12:28:25Z</time>
      </trkpt>
      <trkpt lat="39.4022360" lon="-8.4759210">
        <ele>47.8</ele>
        <time>2019-07-11T12:28:26Z</time>
      </trkpt>
      <trkpt lat="39.4021550" lon="-8.4761190">
        <ele>47.6</ele>
        <time>2019-07-11T12:28:29Z</time>
      </trkpt>
      <trkpt lat="39.4021230" lon="-8.4761820">
        <ele>47.4</ele>
        <time>2019-07-11T12:28:30Z</time>
      </trkpt>
      <trkpt lat="39.4019170" lon="-8.4765510">
        <ele>46.6</ele>
        <time>2019-07-11T12:28:36Z</time>
      </trkpt>
      <trkpt lat="39.4018870" lon="-8.4766170">
        <ele>46.6</ele>
        <time>2019-07-11T12:28:37Z</time>
      </trkpt>
      <trkpt lat="39.4017370" lon="-8.4770300">
        <ele>46.6</ele>
        <time>2019-07-11T12:28:43Z</time>
      </trkpt>
      <trkpt lat="39.4016760" lon="-8.4773640">
        <ele>46.6</ele>
        <time>2019-07-11T12:28:48Z</time>
      </trkpt>
      <trkpt lat="39.4016510" lon="-8.4774910">
        <ele>46.8</ele>
        <time>2019-07-11T12:28:50Z</time>
      </trkpt>
      <trkpt lat="39.4016060" lon="-8.4777430">
        <ele>47.4</ele>
        <time>2019-07-11T12:28:54Z</time>
      </trkpt>
      <trkpt lat="39.4015940" lon="-8.4778070">
        <ele>47.6</ele>
        <time>2019-07-11T12:28:55Z</time>
      </trkpt>
      <trkpt lat="39.4015690" lon="-8.4779280">
        <ele>47.4</ele>
        <time>2019-07-11T12:28:57Z</time>
      </trkpt>
      <trkpt lat="39.4015110" lon="-8.4782260">
        <ele>47.2</ele>
        <time>2019-07-11T12:29:02Z</time>
      </trkpt>
      <trkpt lat="39.4014870" lon="-8.4784100">
        <ele>47.6</ele>
        <time>2019-07-11T12:29:05Z</time>
      </trkpt>
      <trkpt lat="39.4014370" lon="-8.4787790">
        <ele>47.6</ele>
        <time>2019-07-11T12:29:11Z</time>
      </trkpt>
      <trkpt lat="39.4013570" lon="-8.4791480">
        <ele>48.0</ele>
        <time>2019-07-11T12:29:17Z</time>
      </trkpt>
      <trkpt lat="39.4013290" lon="-8.4792700">
        <ele>48.0</ele>
        <time>2019-07-11T12:29:19Z</time>
      </trkpt>
      <trkpt lat="39.4012580" lon="-8.4795130">
        <ele>48.4</ele>
        <time>2019-07-11T12:29:23Z</time>
      </trkpt>
      <trkpt lat="39.4011790" lon="-8.4797560">
        <ele>48.8</ele>
        <time>2019-07-11T12:29:27Z</time>
      </trkpt>
      <trkpt lat="39.4010590" lon="-8.4801920">
        <ele>47.8</ele>
        <time>2019-07-11T12:29:34Z</time>
      </trkpt>
      <trkpt lat="39.4010190" lon="-8.4803090">
        <ele>47.4</ele>
        <time>2019-07-11T12:29:36Z</time>
      </trkpt>
      <trkpt lat="39.4010060" lon="-8.4803700">
        <ele>47.4</ele>
        <time>2019-07-11T12:29:37Z</time>
      </trkpt>
      <trkpt lat="39.4009860" lon="-8.4804970">
        <ele>47.4</ele>
        <time>2019-07-11T12:29:39Z</time>
      </trkpt>
      <trkpt lat="39.4009670" lon="-8.4806760">
        <ele>47.4</ele>
        <time>2019-07-11T12:29:42Z</time>
      </trkpt>
      <trkpt lat="39.4009550" lon="-8.4808980">
        <ele>47.4</ele>
        <time>2019-07-11T12:29:46Z</time>
      </trkpt>
      <trkpt lat="39.4009230" lon="-8.4813010">
        <ele>47.8</ele>
        <time>2019-07-11T12:29:54Z</time>
      </trkpt>
      <trkpt lat="39.4009170" lon="-8.4814300">
        <ele>47.8</ele>
        <time>2019-07-11T12:29:57Z</time>
      </trkpt>
      <trkpt lat="39.4009140" lon="-8.4815690">
        <ele>48.0</ele>
        <time>2019-07-11T12:30:00Z</time>
      </trkpt>
      <trkpt lat="39.4009170" lon="-8.4818160">
        <ele>48.4</ele>
        <time>2019-07-11T12:30:05Z</time>
      </trkpt>
      <trkpt lat="39.4009190" lon="-8.4818700">
        <ele>48.4</ele>
        <time>2019-07-11T12:30:06Z</time>
      </trkpt>
      <trkpt lat="39.4009250" lon="-8.4819760">
        <ele>48.8</ele>
        <time>2019-07-11T12:30:08Z</time>
      </trkpt>
      <trkpt lat="39.4009230" lon="-8.4822470">
        <ele>49.0</ele>
        <time>2019-07-11T12:30:13Z</time>
      </trkpt>
      <trkpt lat="39.4009230" lon="-8.4823030">
        <ele>49.0</ele>
        <time>2019-07-11T12:30:14Z</time>
      </trkpt>
      <trkpt lat="39.4009260" lon="-8.4823580">
        <ele>49.0</ele>
        <time>2019-07-11T12:30:15Z</time>
      </trkpt>
      <trkpt lat="39.4009530" lon="-8.4826730">
        <ele>49.6</ele>
        <time>2019-07-11T12:30:21Z</time>
      </trkpt>
      <trkpt lat="39.4009670" lon="-8.4828860">
        <ele>50.0</ele>
        <time>2019-07-11T12:30:25Z</time>
      </trkpt>
      <trkpt lat="39.4010180" lon="-8.4832460">
        <ele>49.8</ele>
        <time>2019-07-11T12:30:32Z</time>
      </trkpt>
      <trkpt lat="39.4010690" lon="-8.4836940">
        <ele>49.6</ele>
        <time>2019-07-11T12:30:40Z</time>
      </trkpt>
      <trkpt lat="39.4011030" lon="-8.4839330">
        <ele>50.0</ele>
        <time>2019-07-11T12:30:44Z</time>
      </trkpt>
      <trkpt lat="39.4011200" lon="-8.4840570">
        <ele>50.2</ele>
        <time>2019-07-11T12:30:46Z</time>
      </trkpt>
      <trkpt lat="39.4011540" lon="-8.4845620">
        <ele>50.4</ele>
        <time>2019-07-11T12:30:54Z</time>
      </trkpt>
      <trkpt lat="39.4011570" lon="-8.4846240">
        <ele>50.4</ele>
        <time>2019-07-11T12:30:55Z</time>
      </trkpt>
      <trkpt lat="39.4011940" lon="-8.4850470">
        <ele>50.6</ele>
        <time>2019-07-11T12:31:02Z</time>
      </trkpt>
      <trkpt lat="39.4012280" lon="-8.4854780">
        <ele>50.6</ele>
        <time>2019-07-11T12:31:09Z</time>
      </trkpt>
      <trkpt lat="39.4012740" lon="-8.4859010">
        <ele>50.4</ele>
        <time>2019-07-11T12:31:16Z</time>
      </trkpt>
      <trkpt lat="39.4012820" lon="-8.4859610">
        <ele>50.4</ele>
        <time>2019-07-11T12:31:17Z</time>
      </trkpt>
      <trkpt lat="39.4013220" lon="-8.4861480">
        <ele>50.6</ele>
        <time>2019-07-11T12:31:20Z</time>
      </trkpt>
      <trkpt lat="39.4013790" lon="-8.4863890">
        <ele>50.6</ele>
        <time>2019-07-11T12:31:24Z</time>
      </trkpt>
      <trkpt lat="39.4014290" lon="-8.4866380">
        <ele>50.4</ele>
        <time>2019-07-11T12:31:28Z</time>
      </trkpt>
      <trkpt lat="39.4014890" lon="-8.4869490">
        <ele>50.2</ele>
        <time>2019-07-11T12:31:33Z</time>
      </trkpt>
      <trkpt lat="39.4015190" lon="-8.4870600">
        <ele>50.4</ele>
        <time>2019-07-11T12:31:35Z</time>
      </trkpt>
      <trkpt lat="39.4015080" lon="-8.4872130">
        <ele>50.4</ele>
        <time>2019-07-11T12:31:38Z</time>
      </trkpt>
      <trkpt lat="39.4014850" lon="-8.4872660">
        <ele>50.4</ele>
        <time>2019-07-11T12:31:39Z</time>
      </trkpt>
      <trkpt lat="39.4014180" lon="-8.4873710">
        <ele>50.0</ele>
        <time>2019-07-11T12:31:41Z</time>
      </trkpt>
      <trkpt lat="39.4012920" lon="-8.4875410">
        <ele>49.4</ele>
        <time>2019-07-11T12:31:44Z</time>
      </trkpt>
      <trkpt lat="39.4012480" lon="-8.4876040">
        <ele>49.4</ele>
        <time>2019-07-11T12:31:45Z</time>
      </trkpt>
      <trkpt lat="39.4010530" lon="-8.4878860">
        <ele>48.2</ele>
        <time>2019-07-11T12:31:49Z</time>
      </trkpt>
      <trkpt lat="39.4009980" lon="-8.4879540">
        <ele>48.0</ele>
        <time>2019-07-11T12:31:50Z</time>
      </trkpt>
      <trkpt lat="39.4007860" lon="-8.4881980">
        <ele>47.2</ele>
        <time>2019-07-11T12:31:54Z</time>
      </trkpt>
      <trkpt lat="39.4006850" lon="-8.4883200">
        <ele>46.8</ele>
        <time>2019-07-11T12:31:56Z</time>
      </trkpt>
      <trkpt lat="39.4004400" lon="-8.4886020">
        <ele>46.2</ele>
        <time>2019-07-11T12:32:01Z</time>
      </trkpt>
      <trkpt lat="39.4004060" lon="-8.4886650">
        <ele>46.2</ele>
        <time>2019-07-11T12:32:02Z</time>
      </trkpt>
      <trkpt lat="39.4004060" lon="-8.4888790">
        <ele>46.0</ele>
        <time>2019-07-11T12:32:05Z</time>
      </trkpt>
      <trkpt lat="39.4005320" lon="-8.4890310">
        <ele>46.0</ele>
        <time>2019-07-11T12:32:08Z</time>
      </trkpt>
      <trkpt lat="39.4008600" lon="-8.4893380">
        <ele>45.6</ele>
        <time>2019-07-11T12:32:15Z</time>
      </trkpt>
      <trkpt lat="39.4010150" lon="-8.4895090">
        <ele>45.6</ele>
        <time>2019-07-11T12:32:19Z</time>
      </trkpt>
      <trkpt lat="39.4010650" lon="-8.4896010">
        <ele>45.8</ele>
        <time>2019-07-11T12:32:21Z</time>
      </trkpt>
      <trkpt lat="39.4010780" lon="-8.4896410">
        <ele>45.8</ele>
        <time>2019-07-11T12:32:22Z</time>
      </trkpt>
      <trkpt lat="39.4010740" lon="-8.4897320">
        <ele>45.6</ele>
        <time>2019-07-11T12:32:25Z</time>
      </trkpt>
      <trkpt lat="39.4010290" lon="-8.4897990">
        <ele>45.2</ele>
        <time>2019-07-11T12:32:28Z</time>
      </trkpt>
      <trkpt lat="39.4009690" lon="-8.4899280">
        <ele>45.0</ele>
        <time>2019-07-11T12:32:32Z</time>
      </trkpt>
      <trkpt lat="39.4009520" lon="-8.4899690">
        <ele>45.0</ele>
        <time>2019-07-11T12:32:33Z</time>
      </trkpt>
      <trkpt lat="39.4009180" lon="-8.4900570">
        <ele>45.0</ele>
        <time>2019-07-11T12:32:35Z</time>
      </trkpt>
      <trkpt lat="39.4008740" lon="-8.4901440">
        <ele>45.2</ele>
        <time>2019-07-11T12:32:37Z</time>
      </trkpt>
      <trkpt lat="39.4007070" lon="-8.4903970">
        <ele>45.0</ele>
        <time>2019-07-11T12:32:43Z</time>
      </trkpt>
      <trkpt lat="39.4005650" lon="-8.4906380">
        <ele>45.0</ele>
        <time>2019-07-11T12:32:48Z</time>
      </trkpt>
      <trkpt lat="39.4005070" lon="-8.4907300">
        <ele>45.0</ele>
        <time>2019-07-11T12:32:50Z</time>
      </trkpt>
      <trkpt lat="39.4003610" lon="-8.4909530">
        <ele>44.6</ele>
        <time>2019-07-11T12:32:55Z</time>
      </trkpt>
      <trkpt lat="39.4003340" lon="-8.4910060">
        <ele>44.6</ele>
        <time>2019-07-11T12:32:56Z</time>
      </trkpt>
      <trkpt lat="39.4003060" lon="-8.4910590">
        <ele>44.8</ele>
        <time>2019-07-11T12:32:57Z</time>
      </trkpt>
      <trkpt lat="39.4001640" lon="-8.4912740">
        <ele>45.2</ele>
        <time>2019-07-11T12:33:01Z</time>
      </trkpt>
      <trkpt lat="39.4000530" lon="-8.4914360">
        <ele>44.8</ele>
        <time>2019-07-11T12:33:04Z</time>
      </trkpt>
      <trkpt lat="39.3998900" lon="-8.4916570">
        <ele>45.0</ele>
        <time>2019-07-11T12:33:08Z</time>
      </trkpt>
      <trkpt lat="39.3996560" lon="-8.4919890">
        <ele>45.0</ele>
        <time>2019-07-11T12:33:14Z</time>
      </trkpt>
      <trkpt lat="39.3996140" lon="-8.4920390">
        <ele>45.0</ele>
        <time>2019-07-11T12:33:15Z</time>
      </trkpt>
      <trkpt lat="39.3994780" lon="-8.4921710">
        <ele>45.2</ele>
        <time>2019-07-11T12:33:18Z</time>
      </trkpt>
      <trkpt lat="39.3993750" lon="-8.4922390">
        <ele>45.4</ele>
        <time>2019-07-11T12:33:20Z</time>
      </trkpt>
      <trkpt lat="39.3990500" lon="-8.4923600">
        <ele>45.2</ele>
        <time>2019-07-11T12:33:26Z</time>
      </trkpt>
      <trkpt lat="39.3989340" lon="-8.4923800">
        <ele>45.0</ele>
        <time>2019-07-11T12:33:28Z</time>
      </trkpt>
      <trkpt lat="39.3987010" lon="-8.4924420">
        <ele>44.6</ele>
        <time>2019-07-11T12:33:32Z</time>
      </trkpt>
      <trkpt lat="39.3981910" lon="-8.4925450">
        <ele>44.8</ele>
        <time>2019-07-11T12:33:41Z</time>
      </trkpt>
      <trkpt lat="39.3979100" lon="-8.4926050">
        <ele>43.8</ele>
        <time>2019-07-11T12:33:46Z</time>
      </trkpt>
      <trkpt lat="39.3977990" lon="-8.4926250">
        <ele>44.2</ele>
        <time>2019-07-11T12:33:48Z</time>
      </trkpt>
      <trkpt lat="39.3973020" lon="-8.4927500">
        <ele>45.0</ele>
        <time>2019-07-11T12:33:57Z</time>
      </trkpt>
      <trkpt lat="39.3972470" lon="-8.4927750">
        <ele>45.2</ele>
        <time>2019-07-11T12:33:58Z</time>
      </trkpt>
      <trkpt lat="39.3970440" lon="-8.4929290">
        <ele>45.4</ele>
        <time>2019-07-11T12:34:02Z</time>
      </trkpt>
      <trkpt lat="39.3968450" lon="-8.4930840">
        <ele>45.4</ele>
        <time>2019-07-11T12:34:06Z</time>
      </trkpt>
      <trkpt lat="39.3966980" lon="-8.4932210">
        <ele>45.4</ele>
        <time>2019-07-11T12:34:09Z</time>
      </trkpt>
      <trkpt lat="39.3962360" lon="-8.4936070">
        <ele>45.4</ele>
        <time>2019-07-11T12:34:18Z</time>
      </trkpt>
      <trkpt lat="39.3957650" lon="-8.4940110">
        <ele>45.4</ele>
        <time>2019-07-11T12:34:27Z</time>
      </trkpt>
      <trkpt lat="39.3953880" lon="-8.4943320">
        <ele>45.2</ele>
        <time>2019-07-11T12:34:34Z</time>
      </trkpt>
      <trkpt lat="39.3950140" lon="-8.4946590">
        <ele>45.0</ele>
        <time>2019-07-11T12:34:41Z</time>
      </trkpt>
      <trkpt lat="39.3945320" lon="-8.4950720">
        <ele>45.2</ele>
        <time>2019-07-11T12:34:50Z</time>
      </trkpt>
      <trkpt lat="39.3941680" lon="-8.4953830">
        <ele>44.8</ele>
        <time>2019-07-11T12:34:57Z</time>
      </trkpt>
      <trkpt lat="39.3936920" lon="-8.4957980">
        <ele>45.2</ele>
        <time>2019-07-11T12:35:06Z</time>
      </trkpt>
      <trkpt lat="39.3932070" lon="-8.4962170">
        <ele>45.4</ele>
        <time>2019-07-11T12:35:15Z</time>
      </trkpt>
      <trkpt lat="39.3927060" lon="-8.4966490">
        <ele>45.4</ele>
        <time>2019-07-11T12:35:24Z</time>
      </trkpt>
      <trkpt lat="39.3922500" lon="-8.4970320">
        <ele>44.8</ele>
        <time>2019-07-11T12:35:32Z</time>
      </trkpt>
      <trkpt lat="39.3918510" lon="-8.4973790">
        <ele>45.2</ele>
        <time>2019-07-11T12:35:39Z</time>
      </trkpt>
      <trkpt lat="39.3913910" lon="-8.4977650">
        <ele>44.8</ele>
        <time>2019-07-11T12:35:47Z</time>
      </trkpt>
      <trkpt lat="39.3913370" lon="-8.4978180">
        <ele>44.6</ele>
        <time>2019-07-11T12:35:48Z</time>
      </trkpt>
      <trkpt lat="39.3910130" lon="-8.4981460">
        <ele>45.0</ele>
        <time>2019-07-11T12:35:54Z</time>
      </trkpt>
      <trkpt lat="39.3908130" lon="-8.4985150">
        <ele>45.0</ele>
        <time>2019-07-11T12:35:59Z</time>
      </trkpt>
      <trkpt lat="39.3905570" lon="-8.4989210">
        <ele>45.0</ele>
        <time>2019-07-11T12:36:05Z</time>
      </trkpt>
      <trkpt lat="39.3905080" lon="-8.4989820">
        <ele>45.2</ele>
        <time>2019-07-11T12:36:06Z</time>
      </trkpt>
      <trkpt lat="39.3903000" lon="-8.4992020">
        <ele>45.2</ele>
        <time>2019-07-11T12:36:10Z</time>
      </trkpt>
      <trkpt lat="39.3899080" lon="-8.4995530">
        <ele>45.2</ele>
        <time>2019-07-11T12:36:17Z</time>
      </trkpt>
      <trkpt lat="39.3895420" lon="-8.4998180">
        <ele>45.2</ele>
        <time>2019-07-11T12:36:23Z</time>
      </trkpt>
      <trkpt lat="39.3893590" lon="-8.4999430">
        <ele>45.0</ele>
        <time>2019-07-11T12:36:26Z</time>
      </trkpt>
      <trkpt lat="39.3889360" lon="-8.5002440">
        <ele>45.0</ele>
        <time>2019-07-11T12:36:33Z</time>
      </trkpt>
      <trkpt lat="39.3884410" lon="-8.5005770">
        <ele>45.0</ele>
        <time>2019-07-11T12:36:41Z</time>
      </trkpt>
      <trkpt lat="39.3880240" lon="-8.5008720">
        <ele>45.0</ele>
        <time>2019-07-11T12:36:48Z</time>
      </trkpt>
      <trkpt lat="39.3879070" lon="-8.5009510">
        <ele>45.0</ele>
        <time>2019-07-11T12:36:50Z</time>
      </trkpt>
      <trkpt lat="39.3875170" lon="-8.5012080">
        <ele>45.0</ele>
        <time>2019-07-11T12:36:57Z</time>
      </trkpt>
      <trkpt lat="39.3874170" lon="-8.5012760">
        <ele>45.0</ele>
        <time>2019-07-11T12:36:59Z</time>
      </trkpt>
      <trkpt lat="39.3872740" lon="-8.5013850">
        <ele>45.0</ele>
        <time>2019-07-11T12:37:02Z</time>
      </trkpt>
      <trkpt lat="39.3868900" lon="-8.5016750">
        <ele>44.6</ele>
        <time>2019-07-11T12:37:09Z</time>
      </trkpt>
      <trkpt lat="39.3864590" lon="-8.5020340">
        <ele>44.6</ele>
        <time>2019-07-11T12:37:17Z</time>
      </trkpt>
      <trkpt lat="39.3860380" lon="-8.5023920">
        <ele>44.6</ele>
        <time>2019-07-11T12:37:25Z</time>
      </trkpt>
      <trkpt lat="39.3857220" lon="-8.5026620">
        <ele>44.6</ele>
        <time>2019-07-11T12:37:31Z</time>
      </trkpt>
      <trkpt lat="39.3856210" lon="-8.5027590">
        <ele>44.6</ele>
        <time>2019-07-11T12:37:33Z</time>
      </trkpt>
      <trkpt lat="39.3853140" lon="-8.5031410">
        <ele>45.0</ele>
        <time>2019-07-11T12:37:40Z</time>
      </trkpt>
      <trkpt lat="39.3849320" lon="-8.5036750">
        <ele>44.4</ele>
        <time>2019-07-11T12:37:49Z</time>
      </trkpt>
      <trkpt lat="39.3848890" lon="-8.5037360">
        <ele>44.4</ele>
        <time>2019-07-11T12:37:50Z</time>
      </trkpt>
      <trkpt lat="39.3845860" lon="-8.5041470">
        <ele>44.4</ele>
        <time>2019-07-11T12:37:57Z</time>
      </trkpt>
      <trkpt lat="39.3842350" lon="-8.5046290">
        <ele>44.4</ele>
        <time>2019-07-11T12:38:05Z</time>
      </trkpt>
      <trkpt lat="39.3839330" lon="-8.5050540">
        <ele>44.2</ele>
        <time>2019-07-11T12:38:12Z</time>
      </trkpt>
      <trkpt lat="39.3836230" lon="-8.5054820">
        <ele>44.4</ele>
        <time>2019-07-11T12:38:19Z</time>
      </trkpt>
      <trkpt lat="39.3832620" lon="-8.5058230">
        <ele>44.4</ele>
        <time>2019-07-11T12:38:26Z</time>
      </trkpt>
      <trkpt lat="39.3828180" lon="-8.5061740">
        <ele>44.4</ele>
        <time>2019-07-11T12:38:34Z</time>
      </trkpt>
      <trkpt lat="39.3823190" lon="-8.5065940">
        <ele>44.4</ele>
        <time>2019-07-11T12:38:43Z</time>
      </trkpt>
      <trkpt lat="39.3822640" lon="-8.5066410">
        <ele>44.4</ele>
        <time>2019-07-11T12:38:44Z</time>
      </trkpt>
      <trkpt lat="39.3818770" lon="-8.5069730">
        <ele>44.6</ele>
        <time>2019-07-11T12:38:51Z</time>
      </trkpt>
      <trkpt lat="39.3817090" lon="-8.5071160">
        <ele>44.6</ele>
        <time>2019-07-11T12:38:54Z</time>
      </trkpt>
      <trkpt lat="39.3812090" lon="-8.5075600">
        <ele>44.6</ele>
        <time>2019-07-11T12:39:03Z</time>
      </trkpt>
      <trkpt lat="39.3811530" lon="-8.5076090">
        <ele>44.6</ele>
        <time>2019-07-11T12:39:04Z</time>
      </trkpt>
      <trkpt lat="39.3806550" lon="-8.5080420">
        <ele>44.4</ele>
        <time>2019-07-11T12:39:13Z</time>
      </trkpt>
      <trkpt lat="39.3802120" lon="-8.5084680">
        <ele>44.4</ele>
        <time>2019-07-11T12:39:21Z</time>
      </trkpt>
      <trkpt lat="39.3800520" lon="-8.5086280">
        <ele>44.6</ele>
        <time>2019-07-11T12:39:24Z</time>
      </trkpt>
      <trkpt lat="39.3797440" lon="-8.5089540">
        <ele>44.4</ele>
        <time>2019-07-11T12:39:30Z</time>
      </trkpt>
      <trkpt lat="39.3795860" lon="-8.5091090">
        <ele>44.4</ele>
        <time>2019-07-11T12:39:33Z</time>
      </trkpt>
      <trkpt lat="39.3791150" lon="-8.5095740">
        <ele>44.2</ele>
        <time>2019-07-11T12:39:42Z</time>
      </trkpt>
      <trkpt lat="39.3790630" lon="-8.5096240">
        <ele>44.2</ele>
        <time>2019-07-11T12:39:43Z</time>
      </trkpt>
      <trkpt lat="39.3787410" lon="-8.5099400">
        <ele>44.6</ele>
        <time>2019-07-11T12:39:49Z</time>
      </trkpt>
      <trkpt lat="39.3786870" lon="-8.5099890">
        <ele>44.6</ele>
        <time>2019-07-11T12:39:50Z</time>
      </trkpt>
      <trkpt lat="39.3783710" lon="-8.5103030">
        <ele>44.4</ele>
        <time>2019-07-11T12:39:56Z</time>
      </trkpt>
      <trkpt lat="39.3779630" lon="-8.5107080">
        <ele>44.4</ele>
        <time>2019-07-11T12:40:04Z</time>
      </trkpt>
      <trkpt lat="39.3776060" lon="-8.5110570">
        <ele>44.4</ele>
        <time>2019-07-11T12:40:11Z</time>
      </trkpt>
      <trkpt lat="39.3771830" lon="-8.5114540">
        <ele>44.2</ele>
        <time>2019-07-11T12:40:19Z</time>
      </trkpt>
      <trkpt lat="39.3767100" lon="-8.5119010">
        <ele>44.4</ele>
        <time>2019-07-11T12:40:28Z</time>
      </trkpt>
      <trkpt lat="39.3763010" lon="-8.5123270">
        <ele>44.2</ele>
        <time>2019-07-11T12:40:36Z</time>
      </trkpt>
      <trkpt lat="39.3759980" lon="-8.5126490">
        <ele>44.0</ele>
        <time>2019-07-11T12:40:42Z</time>
      </trkpt>
      <trkpt lat="39.3755870" lon="-8.5130760">
        <ele>44.2</ele>
        <time>2019-07-11T12:40:50Z</time>
      </trkpt>
      <trkpt lat="39.3751370" lon="-8.5134700">
        <ele>44.4</ele>
        <time>2019-07-11T12:40:58Z</time>
      </trkpt>
      <trkpt lat="39.3746980" lon="-8.5138800">
        <ele>44.2</ele>
        <time>2019-07-11T12:41:06Z</time>
      </trkpt>
      <trkpt lat="39.3745930" lon="-8.5139730">
        <ele>44.2</ele>
        <time>2019-07-11T12:41:08Z</time>
      </trkpt>
      <trkpt lat="39.3744090" lon="-8.5141630">
        <ele>44.2</ele>
        <time>2019-07-11T12:41:12Z</time>
      </trkpt>
      <trkpt lat="39.3742820" lon="-8.5142980">
        <ele>44.0</ele>
        <time>2019-07-11T12:41:15Z</time>
      </trkpt>
      <trkpt lat="39.3741520" lon="-8.5144220">
        <ele>43.8</ele>
        <time>2019-07-11T12:41:18Z</time>
      </trkpt>
      <trkpt lat="39.3738450" lon="-8.5147400">
        <ele>43.6</ele>
        <time>2019-07-11T12:41:25Z</time>
      </trkpt>
      <trkpt lat="39.3733880" lon="-8.5152160">
        <ele>43.8</ele>
        <time>2019-07-11T12:41:35Z</time>
      </trkpt>
      <trkpt lat="39.3730520" lon="-8.5155640">
        <ele>43.8</ele>
        <time>2019-07-11T12:41:42Z</time>
      </trkpt>
      <trkpt lat="39.3729040" lon="-8.5157180">
        <ele>43.8</ele>
        <time>2019-07-11T12:41:45Z</time>
      </trkpt>
      <trkpt lat="39.3725550" lon="-8.5160870">
        <ele>44.2</ele>
        <time>2019-07-11T12:41:52Z</time>
      </trkpt>
      <trkpt lat="39.3723510" lon="-8.5162940">
        <ele>44.4</ele>
        <time>2019-07-11T12:41:56Z</time>
      </trkpt>
      <trkpt lat="39.3719440" lon="-8.5167130">
        <ele>44.4</ele>
        <time>2019-07-11T12:42:04Z</time>
      </trkpt>
      <trkpt lat="39.3715190" lon="-8.5171510">
        <ele>44.4</ele>
        <time>2019-07-11T12:42:12Z</time>
      </trkpt>
      <trkpt lat="39.3714640" lon="-8.5172020">
        <ele>44.4</ele>
        <time>2019-07-11T12:42:13Z</time>
      </trkpt>
      <trkpt lat="39.3710120" lon="-8.5175880">
        <ele>43.8</ele>
        <time>2019-07-11T12:42:21Z</time>
      </trkpt>
      <trkpt lat="39.3708990" lon="-8.5176850">
        <ele>43.8</ele>
        <time>2019-07-11T12:42:23Z</time>
      </trkpt>
      <trkpt lat="39.3706180" lon="-8.5179210">
        <ele>43.8</ele>
        <time>2019-07-11T12:42:28Z</time>
      </trkpt>
      <trkpt lat="39.3704550" lon="-8.5180700">
        <ele>44.0</ele>
        <time>2019-07-11T12:42:31Z</time>
      </trkpt>
      <trkpt lat="39.3699610" lon="-8.5184910">
        <ele>43.8</ele>
        <time>2019-07-11T12:42:40Z</time>
      </trkpt>
      <trkpt lat="39.3695950" lon="-8.5188040">
        <ele>44.2</ele>
        <time>2019-07-11T12:42:47Z</time>
      </trkpt>
      <trkpt lat="39.3692290" lon="-8.5191140">
        <ele>44.2</ele>
        <time>2019-07-11T12:42:54Z</time>
      </trkpt>
      <trkpt lat="39.3688540" lon="-8.5194300">
        <ele>44.0</ele>
        <time>2019-07-11T12:43:01Z</time>
      </trkpt>
      <trkpt lat="39.3684240" lon="-8.5197800">
        <ele>44.2</ele>
        <time>2019-07-11T12:43:09Z</time>
      </trkpt>
      <trkpt lat="39.3679960" lon="-8.5201380">
        <ele>43.8</ele>
        <time>2019-07-11T12:43:17Z</time>
      </trkpt>
      <trkpt lat="39.3675710" lon="-8.5204700">
        <ele>44.2</ele>
        <time>2019-07-11T12:43:25Z</time>
      </trkpt>
      <trkpt lat="39.3672570" lon="-8.5207110">
        <ele>44.2</ele>
        <time>2019-07-11T12:43:31Z</time>
      </trkpt>
      <trkpt lat="39.3670000" lon="-8.5209130">
        <ele>44.2</ele>
        <time>2019-07-11T12:43:36Z</time>
      </trkpt>
      <trkpt lat="39.3665290" lon="-8.5212590">
        <ele>44.2</ele>
        <time>2019-07-11T12:43:45Z</time>
      </trkpt>
      <trkpt lat="39.3661650" lon="-8.5215230">
        <ele>44.2</ele>
        <time>2019-07-11T12:43:52Z</time>
      </trkpt>
      <trkpt lat="39.3658040" lon="-8.5217730">
        <ele>44.6</ele>
        <time>2019-07-11T12:43:59Z</time>
      </trkpt>
      <trkpt lat="39.3654850" lon="-8.5219740">
        <ele>44.2</ele>
        <time>2019-07-11T12:44:05Z</time>
      </trkpt>
      <trkpt lat="39.3650720" lon="-8.5222830">
        <ele>44.0</ele>
        <time>2019-07-11T12:44:13Z</time>
      </trkpt>
      <trkpt lat="39.3646910" lon="-8.5227520">
        <ele>44.2</ele>
        <time>2019-07-11T12:44:22Z</time>
      </trkpt>
      <trkpt lat="39.3643820" lon="-8.5231890">
        <ele>44.6</ele>
        <time>2019-07-11T12:44:30Z</time>
      </trkpt>
      <trkpt lat="39.3642040" lon="-8.5235540">
        <ele>44.8</ele>
        <time>2019-07-11T12:44:36Z</time>
      </trkpt>
      <trkpt lat="39.3641310" lon="-8.5238180">
        <ele>45.2</ele>
        <time>2019-07-11T12:44:40Z</time>
      </trkpt>
      <trkpt lat="39.3640720" lon="-8.5240810">
        <ele>45.2</ele>
        <time>2019-07-11T12:44:44Z</time>
      </trkpt>
      <trkpt lat="39.3639890" lon="-8.5244640">
        <ele>45.8</ele>
        <time>2019-07-11T12:44:50Z</time>
      </trkpt>
      <trkpt lat="39.3639610" lon="-8.5245930">
        <ele>46.0</ele>
        <time>2019-07-11T12:44:52Z</time>
      </trkpt>
      <trkpt lat="39.3638520" lon="-8.5251110">
        <ele>46.4</ele>
        <time>2019-07-11T12:45:00Z</time>
      </trkpt>
      <trkpt lat="39.3638280" lon="-8.5251690">
        <ele>46.4</ele>
        <time>2019-07-11T12:45:01Z</time>
      </trkpt>
      <trkpt lat="39.3637070" lon="-8.5252900">
        <ele>46.6</ele>
        <time>2019-07-11T12:45:04Z</time>
      </trkpt>
      <trkpt lat="39.3635480" lon="-8.5252970">
        <ele>46.6</ele>
        <time>2019-07-11T12:45:07Z</time>
      </trkpt>
      <trkpt lat="39.3633410" lon="-8.5251790">
        <ele>46.6</ele>
        <time>2019-07-11T12:45:11Z</time>
      </trkpt>
      <trkpt lat="39.3632910" lon="-8.5251400">
        <ele>46.6</ele>
        <time>2019-07-11T12:45:12Z</time>
      </trkpt>
      <trkpt lat="39.3628850" lon="-8.5248480">
        <ele>46.8</ele>
        <time>2019-07-11T12:45:20Z</time>
      </trkpt>
      <trkpt lat="39.3627240" lon="-8.5247620">
        <ele>46.8</ele>
        <time>2019-07-11T12:45:23Z</time>
      </trkpt>
      <trkpt lat="39.3626060" lon="-8.5247500">
        <ele>46.8</ele>
        <time>2019-07-11T12:45:25Z</time>
      </trkpt>
      <trkpt lat="39.3623790" lon="-8.5248490">
        <ele>47.0</ele>
        <time>2019-07-11T12:45:29Z</time>
      </trkpt>
      <trkpt lat="39.3623260" lon="-8.5248860">
        <ele>47.0</ele>
        <time>2019-07-11T12:45:30Z</time>
      </trkpt>
      <trkpt lat="39.3619570" lon="-8.5251390">
        <ele>47.2</ele>
        <time>2019-07-11T12:45:37Z</time>
      </trkpt>
      <trkpt lat="39.3615030" lon="-8.5253520">
        <ele>47.2</ele>
        <time>2019-07-11T12:45:45Z</time>
      </trkpt>
      <trkpt lat="39.3610400" lon="-8.5255350">
        <ele>46.8</ele>
        <time>2019-07-11T12:45:53Z</time>
      </trkpt>
      <trkpt lat="39.3608180" lon="-8.5256310">
        <ele>46.6</ele>
        <time>2019-07-11T12:45:57Z</time>
      </trkpt>
      <trkpt lat="39.3607030" lon="-8.5256780">
        <ele>46.6</ele>
        <time>2019-07-11T12:45:59Z</time>
      </trkpt>
      <trkpt lat="39.3603670" lon="-8.5258290">
        <ele>46.6</ele>
        <time>2019-07-11T12:46:05Z</time>
      </trkpt>
      <trkpt lat="39.3600330" lon="-8.5259620">
        <ele>46.6</ele>
        <time>2019-07-11T12:46:11Z</time>
      </trkpt>
      <trkpt lat="39.3595720" lon="-8.5261530">
        <ele>46.8</ele>
        <time>2019-07-11T12:46:19Z</time>
      </trkpt>
      <trkpt lat="39.3590400" lon="-8.5263750">
        <ele>47.0</ele>
        <time>2019-07-11T12:46:28Z</time>
      </trkpt>
      <trkpt lat="39.3589200" lon="-8.5264140">
        <ele>46.8</ele>
        <time>2019-07-11T12:46:30Z</time>
      </trkpt>
      <trkpt lat="39.3585590" lon="-8.5265640">
        <ele>46.6</ele>
        <time>2019-07-11T12:46:36Z</time>
      </trkpt>
      <trkpt lat="39.3580600" lon="-8.5267750">
        <ele>46.8</ele>
        <time>2019-07-11T12:46:44Z</time>
      </trkpt>
      <trkpt lat="39.3575490" lon="-8.5269920">
        <ele>46.0</ele>
        <time>2019-07-11T12:46:52Z</time>
      </trkpt>
      <trkpt lat="39.3573570" lon="-8.5270690">
        <ele>46.0</ele>
        <time>2019-07-11T12:46:55Z</time>
      </trkpt>
      <trkpt lat="39.3570350" lon="-8.5271960">
        <ele>46.0</ele>
        <time>2019-07-11T12:47:00Z</time>
      </trkpt>
      <trkpt lat="39.3569260" lon="-8.5272590">
        <ele>45.8</ele>
        <time>2019-07-11T12:47:02Z</time>
      </trkpt>
      <trkpt lat="39.3568550" lon="-8.5273640">
        <ele>45.6</ele>
        <time>2019-07-11T12:47:04Z</time>
      </trkpt>
      <trkpt lat="39.3568220" lon="-8.5275760">
        <ele>45.4</ele>
        <time>2019-07-11T12:47:07Z</time>
      </trkpt>
      <trkpt lat="39.3567920" lon="-8.5277220">
        <ele>45.4</ele>
        <time>2019-07-11T12:47:09Z</time>
      </trkpt>
      <trkpt lat="39.3567710" lon="-8.5277920">
        <ele>45.4</ele>
        <time>2019-07-11T12:47:10Z</time>
      </trkpt>
      <trkpt lat="39.3567100" lon="-8.5279240">
        <ele>45.4</ele>
        <time>2019-07-11T12:47:12Z</time>
      </trkpt>
      <trkpt lat="39.3566250" lon="-8.5280400">
        <ele>45.4</ele>
        <time>2019-07-11T12:47:14Z</time>
      </trkpt>
      <trkpt lat="39.3564880" lon="-8.5282030">
        <ele>45.4</ele>
        <time>2019-07-11T12:47:17Z</time>
      </trkpt>
      <trkpt lat="39.3562590" lon="-8.5284950">
        <ele>45.6</ele>
        <time>2019-07-11T12:47:22Z</time>
      </trkpt>
      <trkpt lat="39.3561670" lon="-8.5286060">
        <ele>45.8</ele>
        <time>2019-07-11T12:47:24Z</time>
      </trkpt>
      <trkpt lat="39.3559410" lon="-8.5288750">
        <ele>46.2</ele>
        <time>2019-07-11T12:47:29Z</time>
      </trkpt>
      <trkpt lat="39.3558160" lon="-8.5290470">
        <ele>46.2</ele>
        <time>2019-07-11T12:47:32Z</time>
      </trkpt>
      <trkpt lat="39.3554710" lon="-8.5295830">
        <ele>46.6</ele>
        <time>2019-07-11T12:47:41Z</time>
      </trkpt>
      <trkpt lat="39.3552760" lon="-8.5298830">
        <ele>47.0</ele>
        <time>2019-07-11T12:47:46Z</time>
      </trkpt>
      <trkpt lat="39.3551970" lon="-8.5300130">
        <ele>47.0</ele>
        <time>2019-07-11T12:47:48Z</time>
      </trkpt>
      <trkpt lat="39.3549130" lon="-8.5305050">
        <ele>46.4</ele>
        <time>2019-07-11T12:47:55Z</time>
      </trkpt>
      <trkpt lat="39.3546080" lon="-8.5310960">
        <ele>46.6</ele>
        <time>2019-07-11T12:48:03Z</time>
      </trkpt>
      <trkpt lat="39.3544780" lon="-8.5314070">
        <ele>46.2</ele>
        <time>2019-07-11T12:48:07Z</time>
      </trkpt>
      <trkpt lat="39.3543610" lon="-8.5317370">
        <ele>46.0</ele>
        <time>2019-07-11T12:48:11Z</time>
      </trkpt>
      <trkpt lat="39.3541870" lon="-8.5322480">
        <ele>46.2</ele>
        <time>2019-07-11T12:48:17Z</time>
      </trkpt>
      <trkpt lat="39.3540210" lon="-8.5327490">
        <ele>46.2</ele>
        <time>2019-07-11T12:48:23Z</time>
      </trkpt>
      <trkpt lat="39.3539730" lon="-8.5329170">
        <ele>46.2</ele>
        <time>2019-07-11T12:48:25Z</time>
      </trkpt>
      <trkpt lat="39.3537590" lon="-8.5335700">
        <ele>46.2</ele>
        <time>2019-07-11T12:48:33Z</time>
      </trkpt>
      <trkpt lat="39.3537290" lon="-8.5336500">
        <ele>46.2</ele>
        <time>2019-07-11T12:48:34Z</time>
      </trkpt>
      <trkpt lat="39.3534880" lon="-8.5343020">
        <ele>46.0</ele>
        <time>2019-07-11T12:48:42Z</time>
      </trkpt>
      <trkpt lat="39.3532610" lon="-8.5349350">
        <ele>46.0</ele>
        <time>2019-07-11T12:48:50Z</time>
      </trkpt>
      <trkpt lat="39.3532070" lon="-8.5350840">
        <ele>46.0</ele>
        <time>2019-07-11T12:48:52Z</time>
      </trkpt>
      <trkpt lat="39.3529880" lon="-8.5356500">
        <ele>46.2</ele>
        <time>2019-07-11T12:49:00Z</time>
      </trkpt>
      <trkpt lat="39.3527360" lon="-8.5362840">
        <ele>47.0</ele>
        <time>2019-07-11T12:49:09Z</time>
      </trkpt>
      <trkpt lat="39.3525150" lon="-8.5368480">
        <ele>46.6</ele>
        <time>2019-07-11T12:49:17Z</time>
      </trkpt>
      <trkpt lat="39.3523420" lon="-8.5374360">
        <ele>47.0</ele>
        <time>2019-07-11T12:49:25Z</time>
      </trkpt>
      <trkpt lat="39.3522030" lon="-8.5379660">
        <ele>46.8</ele>
        <time>2019-07-11T12:49:32Z</time>
      </trkpt>
      <trkpt lat="39.3520180" lon="-8.5386360">
        <ele>46.8</ele>
        <time>2019-07-11T12:49:41Z</time>
      </trkpt>
      <trkpt lat="39.3519770" lon="-8.5387830">
        <ele>46.8</ele>
        <time>2019-07-11T12:49:43Z</time>
      </trkpt>
      <trkpt lat="39.3517980" lon="-8.5393390">
        <ele>47.2</ele>
        <time>2019-07-11T12:49:51Z</time>
      </trkpt>
      <trkpt lat="39.3517040" lon="-8.5395720">
        <ele>47.0</ele>
        <time>2019-07-11T12:49:56Z</time>
      </trkpt>
      <trkpt lat="39.3516290" lon="-8.5397370">
        <ele>47.2</ele>
        <time>2019-07-11T12:50:00Z</time>
      </trkpt>
      <trkpt lat="39.3515970" lon="-8.5398480">
        <ele>47.2</ele>
        <time>2019-07-11T12:50:02Z</time>
      </trkpt>
      <trkpt lat="39.3515070" lon="-8.5400860">
        <ele>47.4</ele>
        <time>2019-07-11T12:50:06Z</time>
      </trkpt>
      <trkpt lat="39.3513180" lon="-8.5405180">
        <ele>47.4</ele>
        <time>2019-07-11T12:50:13Z</time>
      </trkpt>
      <trkpt lat="39.3510930" lon="-8.5410560">
        <ele>47.4</ele>
        <time>2019-07-11T12:50:21Z</time>
      </trkpt>
      <trkpt lat="39.3509500" lon="-8.5414030">
        <ele>47.8</ele>
        <time>2019-07-11T12:50:26Z</time>
      </trkpt>
      <trkpt lat="39.3508650" lon="-8.5416170">
        <ele>47.8</ele>
        <time>2019-07-11T12:50:29Z</time>
      </trkpt>
      <trkpt lat="39.3506200" lon="-8.5422040">
        <ele>48.0</ele>
        <time>2019-07-11T12:50:37Z</time>
      </trkpt>
      <trkpt lat="39.3503440" lon="-8.5428850">
        <ele>48.2</ele>
        <time>2019-07-11T12:50:46Z</time>
      </trkpt>
      <trkpt lat="39.3500740" lon="-8.5435550">
        <ele>48.2</ele>
        <time>2019-07-11T12:50:55Z</time>
      </trkpt>
      <trkpt lat="39.3499970" lon="-8.5437780">
        <ele>48.2</ele>
        <time>2019-07-11T12:50:58Z</time>
      </trkpt>
      <trkpt lat="39.3498610" lon="-8.5443170">
        <ele>48.4</ele>
        <time>2019-07-11T12:51:05Z</time>
      </trkpt>
      <trkpt lat="39.3496990" lon="-8.5449390">
        <ele>48.0</ele>
        <time>2019-07-11T12:51:13Z</time>
      </trkpt>
      <trkpt lat="39.3494860" lon="-8.5455500">
        <ele>48.2</ele>
        <time>2019-07-11T12:51:21Z</time>
      </trkpt>
      <trkpt lat="39.3492070" lon="-8.5462030">
        <ele>48.2</ele>
        <time>2019-07-11T12:51:30Z</time>
      </trkpt>
      <trkpt lat="39.3491500" lon="-8.5463500">
        <ele>48.2</ele>
        <time>2019-07-11T12:51:32Z</time>
      </trkpt>
      <trkpt lat="39.3488950" lon="-8.5470290">
        <ele>48.0</ele>
        <time>2019-07-11T12:51:41Z</time>
      </trkpt>
      <trkpt lat="39.3488380" lon="-8.5471840">
        <ele>47.8</ele>
        <time>2019-07-11T12:51:43Z</time>
      </trkpt>
      <trkpt lat="39.3485730" lon="-8.5478660">
        <ele>48.0</ele>
        <time>2019-07-11T12:51:52Z</time>
      </trkpt>
      <trkpt lat="39.3483260" lon="-8.5485350">
        <ele>48.2</ele>
        <time>2019-07-11T12:52:01Z</time>
      </trkpt>
      <trkpt lat="39.3480790" lon="-8.5492090">
        <ele>48.0</ele>
        <time>2019-07-11T12:52:10Z</time>
      </trkpt>
      <trkpt lat="39.3478550" lon="-8.5499000">
        <ele>47.6</ele>
        <time>2019-07-11T12:52:19Z</time>
      </trkpt>
      <trkpt lat="39.3478320" lon="-8.5499790">
        <ele>47.6</ele>
        <time>2019-07-11T12:52:20Z</time>
      </trkpt>
      <trkpt lat="39.3477370" lon="-8.5504770">
        <ele>47.4</ele>
        <time>2019-07-11T12:52:26Z</time>
      </trkpt>
      <trkpt lat="39.3477180" lon="-8.5506390">
        <ele>47.2</ele>
        <time>2019-07-11T12:52:28Z</time>
      </trkpt>
      <trkpt lat="39.3477050" lon="-8.5509440">
        <ele>47.0</ele>
        <time>2019-07-11T12:52:32Z</time>
      </trkpt>
      <trkpt lat="39.3476900" lon="-8.5512620">
        <ele>46.8</ele>
        <time>2019-07-11T12:52:37Z</time>
      </trkpt>
      <trkpt lat="39.3476780" lon="-8.5513850">
        <ele>46.6</ele>
        <time>2019-07-11T12:52:39Z</time>
      </trkpt>
      <trkpt lat="39.3476330" lon="-8.5515780">
        <ele>46.4</ele>
        <time>2019-07-11T12:52:42Z</time>
      </trkpt>
      <trkpt lat="39.3474840" lon="-8.5520730">
        <ele>46.6</ele>
        <time>2019-07-11T12:52:49Z</time>
      </trkpt>
      <trkpt lat="39.3473950" lon="-8.5526200">
        <ele>46.6</ele>
        <time>2019-07-11T12:52:56Z</time>
      </trkpt>
      <trkpt lat="39.3473250" lon="-8.5532300">
        <ele>46.8</ele>
        <time>2019-07-11T12:53:04Z</time>
      </trkpt>
      <trkpt lat="39.3473140" lon="-8.5533070">
        <ele>46.8</ele>
        <time>2019-07-11T12:53:05Z</time>
      </trkpt>
      <trkpt lat="39.3472160" lon="-8.5539340">
        <ele>46.8</ele>
        <time>2019-07-11T12:53:13Z</time>
      </trkpt>
      <trkpt lat="39.3471260" lon="-8.5546890">
        <ele>47.0</ele>
        <time>2019-07-11T12:53:22Z</time>
      </trkpt>
      <trkpt lat="39.3470970" lon="-8.5552980">
        <ele>46.8</ele>
        <time>2019-07-11T12:53:29Z</time>
      </trkpt>
      <trkpt lat="39.3470830" lon="-8.5557350">
        <ele>46.8</ele>
        <time>2019-07-11T12:53:34Z</time>
      </trkpt>
      <trkpt lat="39.3470750" lon="-8.5560020">
        <ele>46.6</ele>
        <time>2019-07-11T12:53:37Z</time>
      </trkpt>
      <trkpt lat="39.3470480" lon="-8.5567170">
        <ele>46.4</ele>
        <time>2019-07-11T12:53:45Z</time>
      </trkpt>
      <trkpt lat="39.3470420" lon="-8.5569820">
        <ele>46.4</ele>
        <time>2019-07-11T12:53:48Z</time>
      </trkpt>
      <trkpt lat="39.3470090" lon="-8.5576770">
        <ele>46.6</ele>
        <time>2019-07-11T12:53:56Z</time>
      </trkpt>
      <trkpt lat="39.3469960" lon="-8.5578480">
        <ele>46.4</ele>
        <time>2019-07-11T12:53:58Z</time>
      </trkpt>
      <trkpt lat="39.3468660" lon="-8.5584240">
        <ele>46.6</ele>
        <time>2019-07-11T12:54:05Z</time>
      </trkpt>
      <trkpt lat="39.3466360" lon="-8.5590820">
        <ele>46.4</ele>
        <time>2019-07-11T12:54:13Z</time>
      </trkpt>
      <trkpt lat="39.3464060" lon="-8.5597470">
        <ele>46.0</ele>
        <time>2019-07-11T12:54:21Z</time>
      </trkpt>
      <trkpt lat="39.3463770" lon="-8.5598300">
        <ele>46.0</ele>
        <time>2019-07-11T12:54:22Z</time>
      </trkpt>
      <trkpt lat="39.3461420" lon="-8.5605020">
        <ele>45.4</ele>
        <time>2019-07-11T12:54:30Z</time>
      </trkpt>
      <trkpt lat="39.3460840" lon="-8.5606710">
        <ele>45.4</ele>
        <time>2019-07-11T12:54:32Z</time>
      </trkpt>
      <trkpt lat="39.3458390" lon="-8.5613430">
        <ele>44.8</ele>
        <time>2019-07-11T12:54:40Z</time>
      </trkpt>
      <trkpt lat="39.3455720" lon="-8.5619670">
        <ele>44.4</ele>
        <time>2019-07-11T12:54:48Z</time>
      </trkpt>
      <trkpt lat="39.3452410" lon="-8.5625510">
        <ele>44.6</ele>
        <time>2019-07-11T12:54:56Z</time>
      </trkpt>
      <trkpt lat="39.3451980" lon="-8.5626230">
        <ele>44.4</ele>
        <time>2019-07-11T12:54:57Z</time>
      </trkpt>
      <trkpt lat="39.3448810" lon="-8.5631000">
        <ele>44.4</ele>
        <time>2019-07-11T12:55:04Z</time>
      </trkpt>
      <trkpt lat="39.3448270" lon="-8.5631600">
        <ele>44.4</ele>
        <time>2019-07-11T12:55:05Z</time>
      </trkpt>
      <trkpt lat="39.3444220" lon="-8.5635550">
        <ele>44.0</ele>
        <time>2019-07-11T12:55:12Z</time>
      </trkpt>
      <trkpt lat="39.3443630" lon="-8.5636120">
        <ele>44.0</ele>
        <time>2019-07-11T12:55:13Z</time>
      </trkpt>
      <trkpt lat="39.3438800" lon="-8.5640720">
        <ele>44.0</ele>
        <time>2019-07-11T12:55:21Z</time>
      </trkpt>
      <trkpt lat="39.3438180" lon="-8.5641300">
        <ele>44.0</ele>
        <time>2019-07-11T12:55:22Z</time>
      </trkpt>
      <trkpt lat="39.3436350" lon="-8.5643100">
        <ele>44.0</ele>
        <time>2019-07-11T12:55:25Z</time>
      </trkpt>
      <trkpt lat="39.3434180" lon="-8.5645700">
        <ele>43.8</ele>
        <time>2019-07-11T12:55:29Z</time>
      </trkpt>
      <trkpt lat="39.3433000" lon="-8.5646820">
        <ele>43.8</ele>
        <time>2019-07-11T12:55:31Z</time>
      </trkpt>
      <trkpt lat="39.3431060" lon="-8.5648250">
        <ele>43.6</ele>
        <time>2019-07-11T12:55:34Z</time>
      </trkpt>
      <trkpt lat="39.3427650" lon="-8.5650030">
        <ele>43.4</ele>
        <time>2019-07-11T12:55:39Z</time>
      </trkpt>
      <trkpt lat="39.3426950" lon="-8.5650350">
        <ele>43.4</ele>
        <time>2019-07-11T12:55:40Z</time>
      </trkpt>
      <trkpt lat="39.3421350" lon="-8.5652870">
        <ele>43.2</ele>
        <time>2019-07-11T12:55:48Z</time>
      </trkpt>
      <trkpt lat="39.3419970" lon="-8.5653540">
        <ele>43.2</ele>
        <time>2019-07-11T12:55:50Z</time>
      </trkpt>
      <trkpt lat="39.3414670" lon="-8.5656240">
        <ele>43.0</ele>
        <time>2019-07-11T12:55:58Z</time>
      </trkpt>
      <trkpt lat="39.3410260" lon="-8.5659220">
        <ele>43.4</ele>
        <time>2019-07-11T12:56:05Z</time>
      </trkpt>
      <trkpt lat="39.3408190" lon="-8.5661450">
        <ele>43.2</ele>
        <time>2019-07-11T12:56:09Z</time>
      </trkpt>
      <trkpt lat="39.3407320" lon="-8.5662790">
        <ele>43.2</ele>
        <time>2019-07-11T12:56:11Z</time>
      </trkpt>
      <trkpt lat="39.3405570" lon="-8.5665510">
        <ele>43.2</ele>
        <time>2019-07-11T12:56:15Z</time>
      </trkpt>
      <trkpt lat="39.3404500" lon="-8.5666460">
        <ele>43.0</ele>
        <time>2019-07-11T12:56:17Z</time>
      </trkpt>
      <trkpt lat="39.3403220" lon="-8.5666120">
        <ele>43.0</ele>
        <time>2019-07-11T12:56:19Z</time>
      </trkpt>
      <trkpt lat="39.3402350" lon="-8.5664840">
        <ele>43.2</ele>
        <time>2019-07-11T12:56:21Z</time>
      </trkpt>
      <trkpt lat="39.3402010" lon="-8.5664110">
        <ele>43.2</ele>
        <time>2019-07-11T12:56:22Z</time>
      </trkpt>
      <trkpt lat="39.3401310" lon="-8.5662790">
        <ele>43.2</ele>
        <time>2019-07-11T12:56:24Z</time>
      </trkpt>
      <trkpt lat="39.3400590" lon="-8.5661590">
        <ele>43.2</ele>
        <time>2019-07-11T12:56:26Z</time>
      </trkpt>
      <trkpt lat="39.3400270" lon="-8.5661030">
        <ele>43.2</ele>
        <time>2019-07-11T12:56:27Z</time>
      </trkpt>
      <trkpt lat="39.3399960" lon="-8.5660550">
        <ele>43.2</ele>
        <time>2019-07-11T12:56:28Z</time>
      </trkpt>
      <trkpt lat="39.3398640" lon="-8.5659070">
        <ele>43.6</ele>
        <time>2019-07-11T12:56:32Z</time>
      </trkpt>
      <trkpt lat="39.3398310" lon="-8.5658860">
        <ele>43.6</ele>
        <time>2019-07-11T12:56:33Z</time>
      </trkpt>
      <trkpt lat="39.3397680" lon="-8.5659130">
        <ele>43.6</ele>
        <time>2019-07-11T12:56:35Z</time>
      </trkpt>
      <trkpt lat="39.3397440" lon="-8.5660640">
        <ele>43.4</ele>
        <time>2019-07-11T12:56:38Z</time>
      </trkpt>
      <trkpt lat="39.3396980" lon="-8.5662460">
        <ele>43.6</ele>
        <time>2019-07-11T12:56:41Z</time>
      </trkpt>
      <trkpt lat="39.3396630" lon="-8.5663780">
        <ele>43.6</ele>
        <time>2019-07-11T12:56:43Z</time>
      </trkpt>
      <trkpt lat="39.3395490" lon="-8.5668950">
        <ele>43.8</ele>
        <time>2019-07-11T12:56:50Z</time>
      </trkpt>
      <trkpt lat="39.3395160" lon="-8.5672230">
        <ele>43.6</ele>
        <time>2019-07-11T12:56:54Z</time>
      </trkpt>
      <trkpt lat="39.3395180" lon="-8.5673960">
        <ele>43.6</ele>
        <time>2019-07-11T12:56:56Z</time>
      </trkpt>
      <trkpt lat="39.3396010" lon="-8.5679900">
        <ele>43.6</ele>
        <time>2019-07-11T12:57:03Z</time>
      </trkpt>
      <trkpt lat="39.3397200" lon="-8.5686460">
        <ele>43.6</ele>
        <time>2019-07-11T12:57:11Z</time>
      </trkpt>
      <trkpt lat="39.3397350" lon="-8.5692160">
        <ele>43.6</ele>
        <time>2019-07-11T12:57:18Z</time>
      </trkpt>
      <trkpt lat="39.3396850" lon="-8.5697110">
        <ele>43.4</ele>
        <time>2019-07-11T12:57:24Z</time>
      </trkpt>
      <trkpt lat="39.3396790" lon="-8.5698740">
        <ele>43.6</ele>
        <time>2019-07-11T12:57:26Z</time>
      </trkpt>
      <trkpt lat="39.3396950" lon="-8.5702030">
        <ele>43.6</ele>
        <time>2019-07-11T12:57:30Z</time>
      </trkpt>
      <trkpt lat="39.3397950" lon="-8.5706800">
        <ele>43.8</ele>
        <time>2019-07-11T12:57:36Z</time>
      </trkpt>
      <trkpt lat="39.3398540" lon="-8.5710800">
        <ele>44.0</ele>
        <time>2019-07-11T12:57:41Z</time>
      </trkpt>
      <trkpt lat="39.3398430" lon="-8.5712430">
        <ele>44.0</ele>
        <time>2019-07-11T12:57:43Z</time>
      </trkpt>
      <trkpt lat="39.3397170" lon="-8.5718100">
        <ele>44.0</ele>
        <time>2019-07-11T12:57:50Z</time>
      </trkpt>
      <trkpt lat="39.3395260" lon="-8.5725530">
        <ele>43.8</ele>
        <time>2019-07-11T12:57:59Z</time>
      </trkpt>
      <trkpt lat="39.3394800" lon="-8.5727200">
        <ele>43.8</ele>
        <time>2019-07-11T12:58:01Z</time>
      </trkpt>
      <trkpt lat="39.3393110" lon="-8.5733890">
        <ele>43.6</ele>
        <time>2019-07-11T12:58:09Z</time>
      </trkpt>
      <trkpt lat="39.3392730" lon="-8.5735490">
        <ele>43.6</ele>
        <time>2019-07-11T12:58:11Z</time>
      </trkpt>
      <trkpt lat="39.3391310" lon="-8.5739760">
        <ele>43.2</ele>
        <time>2019-07-11T12:58:17Z</time>
      </trkpt>
      <trkpt lat="39.3390230" lon="-8.5742270">
        <ele>43.2</ele>
        <time>2019-07-11T12:58:21Z</time>
      </trkpt>
      <trkpt lat="39.3389570" lon="-8.5743460">
        <ele>43.2</ele>
        <time>2019-07-11T12:58:23Z</time>
      </trkpt>
      <trkpt lat="39.3387530" lon="-8.5747430">
        <ele>43.2</ele>
        <time>2019-07-11T12:58:29Z</time>
      </trkpt>
      <trkpt lat="39.3385370" lon="-8.5753210">
        <ele>43.0</ele>
        <time>2019-07-11T12:58:37Z</time>
      </trkpt>
      <trkpt lat="39.3384410" lon="-8.5756200">
        <ele>43.2</ele>
        <time>2019-07-11T12:58:41Z</time>
      </trkpt>
      <trkpt lat="39.3383820" lon="-8.5757640">
        <ele>43.2</ele>
        <time>2019-07-11T12:58:43Z</time>
      </trkpt>
      <trkpt lat="39.3381680" lon="-8.5763510">
        <ele>43.0</ele>
        <time>2019-07-11T12:58:51Z</time>
      </trkpt>
      <trkpt lat="39.3379350" lon="-8.5770190">
        <ele>43.2</ele>
        <time>2019-07-11T12:59:00Z</time>
      </trkpt>
      <trkpt lat="39.3379100" lon="-8.5770970">
        <ele>43.2</ele>
        <time>2019-07-11T12:59:01Z</time>
      </trkpt>
      <trkpt lat="39.3378390" lon="-8.5773300">
        <ele>43.0</ele>
        <time>2019-07-11T12:59:04Z</time>
      </trkpt>
      <trkpt lat="39.3377350" lon="-8.5777210">
        <ele>43.0</ele>
        <time>2019-07-11T12:59:09Z</time>
      </trkpt>
      <trkpt lat="39.3375970" lon="-8.5782720">
        <ele>43.2</ele>
        <time>2019-07-11T12:59:16Z</time>
      </trkpt>
      <trkpt lat="39.3374680" lon="-8.5789290">
        <ele>43.2</ele>
        <time>2019-07-11T12:59:24Z</time>
      </trkpt>
      <trkpt lat="39.3373850" lon="-8.5794360">
        <ele>43.0</ele>
        <time>2019-07-11T12:59:30Z</time>
      </trkpt>
      <trkpt lat="39.3373620" lon="-8.5796060">
        <ele>42.8</ele>
        <time>2019-07-11T12:59:32Z</time>
      </trkpt>
      <trkpt lat="39.3373040" lon="-8.5799460">
        <ele>42.6</ele>
        <time>2019-07-11T12:59:36Z</time>
      </trkpt>
      <trkpt lat="39.3371960" lon="-8.5805330">
        <ele>42.6</ele>
        <time>2019-07-11T12:59:43Z</time>
      </trkpt>
      <trkpt lat="39.3370770" lon="-8.5811390">
        <ele>42.6</ele>
        <time>2019-07-11T12:59:50Z</time>
      </trkpt>
      <trkpt lat="39.3369610" lon="-8.5817350">
        <ele>42.6</ele>
        <time>2019-07-11T12:59:57Z</time>
      </trkpt>
      <trkpt lat="39.3368680" lon="-8.5822430">
        <ele>42.6</ele>
        <time>2019-07-11T13:00:03Z</time>
      </trkpt>
      <trkpt lat="39.3367750" lon="-8.5828370">
        <ele>42.4</ele>
        <time>2019-07-11T13:00:10Z</time>
      </trkpt>
      <trkpt lat="39.3366850" lon="-8.5834430">
        <ele>42.4</ele>
        <time>2019-07-11T13:00:17Z</time>
      </trkpt>
      <trkpt lat="39.3365870" lon="-8.5841630">
        <ele>42.8</ele>
        <time>2019-07-11T13:00:25Z</time>
      </trkpt>
      <trkpt lat="39.3365590" lon="-8.5843400">
        <ele>42.8</ele>
        <time>2019-07-11T13:00:27Z</time>
      </trkpt>
      <trkpt lat="39.3364990" lon="-8.5846900">
        <ele>42.6</ele>
        <time>2019-07-11T13:00:31Z</time>
      </trkpt>
      <trkpt lat="39.3364090" lon="-8.5850300">
        <ele>42.6</ele>
        <time>2019-07-11T13:00:35Z</time>
      </trkpt>
      <trkpt lat="39.3362290" lon="-8.5856250">
        <ele>42.6</ele>
        <time>2019-07-11T13:00:42Z</time>
      </trkpt>
      <trkpt lat="39.3362000" lon="-8.5857080">
        <ele>42.6</ele>
        <time>2019-07-11T13:00:43Z</time>
      </trkpt>
      <trkpt lat="39.3359480" lon="-8.5862710">
        <ele>42.4</ele>
        <time>2019-07-11T13:00:50Z</time>
      </trkpt>
      <trkpt lat="39.3355990" lon="-8.5869080">
        <ele>42.8</ele>
        <time>2019-07-11T13:00:58Z</time>
      </trkpt>
      <trkpt lat="39.3352470" lon="-8.5874060">
        <ele>42.8</ele>
        <time>2019-07-11T13:01:05Z</time>
      </trkpt>
      <trkpt lat="39.3349450" lon="-8.5878300">
        <ele>42.6</ele>
        <time>2019-07-11T13:01:11Z</time>
      </trkpt>
      <trkpt lat="39.3345830" lon="-8.5884360">
        <ele>42.4</ele>
        <time>2019-07-11T13:01:19Z</time>
      </trkpt>
      <trkpt lat="39.3342570" lon="-8.5890420">
        <ele>42.4</ele>
        <time>2019-07-11T13:01:27Z</time>
      </trkpt>
      <trkpt lat="39.3341760" lon="-8.5891850">
        <ele>42.4</ele>
        <time>2019-07-11T13:01:29Z</time>
      </trkpt>
      <trkpt lat="39.3338510" lon="-8.5897880">
        <ele>42.2</ele>
        <time>2019-07-11T13:01:37Z</time>
      </trkpt>
      <trkpt lat="39.3338140" lon="-8.5898660">
        <ele>42.2</ele>
        <time>2019-07-11T13:01:38Z</time>
      </trkpt>
      <trkpt lat="39.3335910" lon="-8.5902940">
        <ele>42.4</ele>
        <time>2019-07-11T13:01:44Z</time>
      </trkpt>
      <trkpt lat="39.3333870" lon="-8.5907240">
        <ele>43.6</ele>
        <time>2019-07-11T13:01:51Z</time>
      </trkpt>
      <trkpt lat="39.3333020" lon="-8.5908750">
        <ele>44.2</ele>
        <time>2019-07-11T13:01:54Z</time>
      </trkpt>
      <trkpt lat="39.3331400" lon="-8.5912100">
        <ele>44.8</ele>
        <time>2019-07-11T13:02:00Z</time>
      </trkpt>
      <trkpt lat="39.3329510" lon="-8.5915050">
        <ele>44.8</ele>
        <time>2019-07-11T13:02:05Z</time>
      </trkpt>
      <trkpt lat="39.3328990" lon="-8.5915600">
        <ele>44.8</ele>
        <time>2019-07-11T13:02:06Z</time>
      </trkpt>
      <trkpt lat="39.3326410" lon="-8.5917060">
        <ele>44.4</ele>
        <time>2019-07-11T13:02:10Z</time>
      </trkpt>
      <trkpt lat="39.3323530" lon="-8.5917300">
        <ele>44.0</ele>
        <time>2019-07-11T13:02:14Z</time>
      </trkpt>
      <trkpt lat="39.3320020" lon="-8.5917670">
        <ele>43.8</ele>
        <time>2019-07-11T13:02:19Z</time>
      </trkpt>
      <trkpt lat="39.3314560" lon="-8.5919020">
        <ele>43.4</ele>
        <time>2019-07-11T13:02:27Z</time>
      </trkpt>
      <trkpt lat="39.3313260" lon="-8.5919310">
        <ele>43.4</ele>
        <time>2019-07-11T13:02:29Z</time>
      </trkpt>
      <trkpt lat="39.3309990" lon="-8.5919960">
        <ele>43.8</ele>
        <time>2019-07-11T13:02:34Z</time>
      </trkpt>
      <trkpt lat="39.3308630" lon="-8.5920100">
        <ele>43.8</ele>
        <time>2019-07-11T13:02:36Z</time>
      </trkpt>
      <trkpt lat="39.3304460" lon="-8.5919950">
        <ele>43.8</ele>
        <time>2019-07-11T13:02:42Z</time>
      </trkpt>
      <trkpt lat="39.3298740" lon="-8.5919870">
        <ele>43.6</ele>
        <time>2019-07-11T13:02:50Z</time>
      </trkpt>
      <trkpt lat="39.3298030" lon="-8.5919820">
        <ele>43.6</ele>
        <time>2019-07-11T13:02:51Z</time>
      </trkpt>
      <trkpt lat="39.3296590" lon="-8.5919680">
        <ele>43.4</ele>
        <time>2019-07-11T13:02:53Z</time>
      </trkpt>
      <trkpt lat="39.3293070" lon="-8.5919540">
        <ele>43.4</ele>
        <time>2019-07-11T13:02:58Z</time>
      </trkpt>
      <trkpt lat="39.3288990" lon="-8.5920290">
        <ele>43.0</ele>
        <time>2019-07-11T13:03:04Z</time>
      </trkpt>
      <trkpt lat="39.3285050" lon="-8.5921070">
        <ele>42.6</ele>
        <time>2019-07-11T13:03:10Z</time>
      </trkpt>
      <trkpt lat="39.3281280" lon="-8.5921180">
        <ele>42.6</ele>
        <time>2019-07-11T13:03:16Z</time>
      </trkpt>
      <trkpt lat="39.3277380" lon="-8.5921070">
        <ele>42.8</ele>
        <time>2019-07-11T13:03:22Z</time>
      </trkpt>
      <trkpt lat="39.3274080" lon="-8.5921020">
        <ele>42.8</ele>
        <time>2019-07-11T13:03:27Z</time>
      </trkpt>
      <trkpt lat="39.3272730" lon="-8.5921260">
        <ele>42.8</ele>
        <time>2019-07-11T13:03:29Z</time>
      </trkpt>
      <trkpt lat="39.3269680" lon="-8.5922660">
        <ele>42.6</ele>
        <time>2019-07-11T13:03:34Z</time>
      </trkpt>
      <trkpt lat="39.3265200" lon="-8.5925930">
        <ele>42.6</ele>
        <time>2019-07-11T13:03:42Z</time>
      </trkpt>
      <trkpt lat="39.3261490" lon="-8.5929600">
        <ele>42.6</ele>
        <time>2019-07-11T13:03:49Z</time>
      </trkpt>
      <trkpt lat="39.3260960" lon="-8.5930130">
        <ele>42.6</ele>
        <time>2019-07-11T13:03:50Z</time>
      </trkpt>
      <trkpt lat="39.3259910" lon="-8.5931130">
        <ele>42.4</ele>
        <time>2019-07-11T13:03:52Z</time>
      </trkpt>
      <trkpt lat="39.3257280" lon="-8.5933580">
        <ele>42.6</ele>
        <time>2019-07-11T13:03:57Z</time>
      </trkpt>
      <trkpt lat="39.3253700" lon="-8.5937190">
        <ele>42.6</ele>
        <time>2019-07-11T13:04:04Z</time>
      </trkpt>
      <trkpt lat="39.3252230" lon="-8.5938610">
        <ele>42.8</ele>
        <time>2019-07-11T13:04:07Z</time>
      </trkpt>
      <trkpt lat="39.3251770" lon="-8.5939070">
        <ele>42.8</ele>
        <time>2019-07-11T13:04:08Z</time>
      </trkpt>
      <trkpt lat="39.3250840" lon="-8.5939950">
        <ele>42.8</ele>
        <time>2019-07-11T13:04:10Z</time>
      </trkpt>
      <trkpt lat="39.3247480" lon="-8.5943370">
        <ele>43.0</ele>
        <time>2019-07-11T13:04:17Z</time>
      </trkpt>
      <trkpt lat="39.3245190" lon="-8.5947080">
        <ele>42.8</ele>
        <time>2019-07-11T13:04:23Z</time>
      </trkpt>
      <trkpt lat="39.3243140" lon="-8.5951810">
        <ele>43.0</ele>
        <time>2019-07-11T13:04:30Z</time>
      </trkpt>
      <trkpt lat="39.3240590" lon="-8.5957890">
        <ele>43.2</ele>
        <time>2019-07-11T13:04:39Z</time>
      </trkpt>
      <trkpt lat="39.3237820" lon="-8.5962990">
        <ele>43.6</ele>
        <time>2019-07-11T13:04:47Z</time>
      </trkpt>
      <trkpt lat="39.3237000" lon="-8.5964150">
        <ele>43.6</ele>
        <time>2019-07-11T13:04:49Z</time>
      </trkpt>
      <trkpt lat="39.3234850" lon="-8.5967030">
        <ele>43.6</ele>
        <time>2019-07-11T13:04:54Z</time>
      </trkpt>
      <trkpt lat="39.3231330" lon="-8.5971320">
        <ele>43.6</ele>
        <time>2019-07-11T13:05:02Z</time>
      </trkpt>
      <trkpt lat="39.3227950" lon="-8.5975780">
        <ele>43.4</ele>
        <time>2019-07-11T13:05:10Z</time>
      </trkpt>
      <trkpt lat="39.3225330" lon="-8.5980240">
        <ele>43.4</ele>
        <time>2019-07-11T13:05:17Z</time>
      </trkpt>
      <trkpt lat="39.3223690" lon="-8.5985330">
        <ele>43.6</ele>
        <time>2019-07-11T13:05:24Z</time>
      </trkpt>
      <trkpt lat="39.3221610" lon="-8.5991190">
        <ele>43.8</ele>
        <time>2019-07-11T13:05:32Z</time>
      </trkpt>
      <trkpt lat="39.3219230" lon="-8.5995970">
        <ele>43.8</ele>
        <time>2019-07-11T13:05:39Z</time>
      </trkpt>
      <trkpt lat="39.3218860" lon="-8.5996620">
        <ele>43.8</ele>
        <time>2019-07-11T13:05:40Z</time>
      </trkpt>
      <trkpt lat="39.3216820" lon="-8.6000470">
        <ele>43.8</ele>
        <time>2019-07-11T13:05:46Z</time>
      </trkpt>
      <trkpt lat="39.3216160" lon="-8.6001730">
        <ele>43.8</ele>
        <time>2019-07-11T13:05:48Z</time>
      </trkpt>
      <trkpt lat="39.3215510" lon="-8.6002940">
        <ele>43.8</ele>
        <time>2019-07-11T13:05:50Z</time>
      </trkpt>
      <trkpt lat="39.3214940" lon="-8.6004110">
        <ele>43.6</ele>
        <time>2019-07-11T13:05:52Z</time>
      </trkpt>
      <trkpt lat="39.3214620" lon="-8.6004680">
        <ele>43.6</ele>
        <time>2019-07-11T13:05:53Z</time>
      </trkpt>
      <trkpt lat="39.3212020" lon="-8.6008720">
        <ele>44.0</ele>
        <time>2019-07-11T13:06:00Z</time>
      </trkpt>
      <trkpt lat="39.3210560" lon="-8.6010180">
        <ele>43.8</ele>
        <time>2019-07-11T13:06:03Z</time>
      </trkpt>
      <trkpt lat="39.3209520" lon="-8.6011100">
        <ele>43.4</ele>
        <time>2019-07-11T13:06:05Z</time>
      </trkpt>
      <trkpt lat="39.3206490" lon="-8.6013790">
        <ele>43.2</ele>
        <time>2019-07-11T13:06:11Z</time>
      </trkpt>
      <trkpt lat="39.3202530" lon="-8.6017270">
        <ele>43.4</ele>
        <time>2019-07-11T13:06:19Z</time>
      </trkpt>
      <trkpt lat="39.3199210" lon="-8.6020530">
        <ele>43.6</ele>
        <time>2019-07-11T13:06:26Z</time>
      </trkpt>
      <trkpt lat="39.3197700" lon="-8.6023620">
        <ele>44.0</ele>
        <time>2019-07-11T13:06:31Z</time>
      </trkpt>
      <trkpt lat="39.3197420" lon="-8.6026500">
        <ele>44.4</ele>
        <time>2019-07-11T13:06:35Z</time>
      </trkpt>
      <trkpt lat="39.3197610" lon="-8.6027920">
        <ele>44.6</ele>
        <time>2019-07-11T13:06:37Z</time>
      </trkpt>
      <trkpt lat="39.3197910" lon="-8.6029340">
        <ele>44.8</ele>
        <time>2019-07-11T13:06:39Z</time>
      </trkpt>
      <trkpt lat="39.3198370" lon="-8.6030730">
        <ele>45.0</ele>
        <time>2019-07-11T13:06:41Z</time>
      </trkpt>
      <trkpt lat="39.3199460" lon="-8.6033460">
        <ele>44.8</ele>
        <time>2019-07-11T13:06:45Z</time>
      </trkpt>
      <trkpt lat="39.3200260" lon="-8.6035480">
        <ele>45.2</ele>
        <time>2019-07-11T13:06:48Z</time>
      </trkpt>
      <trkpt lat="39.3200800" lon="-8.6036790">
        <ele>45.4</ele>
        <time>2019-07-11T13:06:50Z</time>
      </trkpt>
      <trkpt lat="39.3201260" lon="-8.6038100">
        <ele>45.6</ele>
        <time>2019-07-11T13:06:52Z</time>
      </trkpt>
      <trkpt lat="39.3201530" lon="-8.6038700">
        <ele>45.6</ele>
        <time>2019-07-11T13:06:53Z</time>
      </trkpt>
      <trkpt lat="39.3201800" lon="-8.6039300">
        <ele>45.8</ele>
        <time>2019-07-11T13:06:54Z</time>
      </trkpt>
      <trkpt lat="39.3204060" lon="-8.6045010">
        <ele>46.0</ele>
        <time>2019-07-11T13:07:03Z</time>
      </trkpt>
      <trkpt lat="39.3205830" lon="-8.6049420">
        <ele>46.2</ele>
        <time>2019-07-11T13:07:10Z</time>
      </trkpt>
      <trkpt lat="39.3206530" lon="-8.6051340">
        <ele>46.2</ele>
        <time>2019-07-11T13:07:13Z</time>
      </trkpt>
      <trkpt lat="39.3207610" lon="-8.6053810">
        <ele>46.4</ele>
        <time>2019-07-11T13:07:17Z</time>
      </trkpt>
      <trkpt lat="39.3208180" lon="-8.6055000">
        <ele>46.6</ele>
        <time>2019-07-11T13:07:19Z</time>
      </trkpt>
      <trkpt lat="39.3209540" lon="-8.6057070">
        <ele>47.0</ele>
        <time>2019-07-11T13:07:23Z</time>
      </trkpt>
      <trkpt lat="39.3212050" lon="-8.6060440">
        <ele>47.6</ele>
        <time>2019-07-11T13:07:30Z</time>
      </trkpt>
      <trkpt lat="39.3215370" lon="-8.6063870">
        <ele>47.8</ele>
        <time>2019-07-11T13:07:38Z</time>
      </trkpt>
      <trkpt lat="39.3216850" lon="-8.6064960">
        <ele>48.0</ele>
        <time>2019-07-11T13:07:41Z</time>
      </trkpt>
      <trkpt lat="39.3218850" lon="-8.6066210">
        <ele>48.4</ele>
        <time>2019-07-11T13:07:45Z</time>
      </trkpt>
      <trkpt lat="39.3221730" lon="-8.6067980">
        <ele>49.2</ele>
        <time>2019-07-11T13:07:51Z</time>
      </trkpt>
      <trkpt lat="39.3222610" lon="-8.6068600">
        <ele>49.6</ele>
        <time>2019-07-11T13:07:53Z</time>
      </trkpt>
      <trkpt lat="39.3224210" lon="-8.6069990">
        <ele>50.2</ele>
        <time>2019-07-11T13:07:57Z</time>
      </trkpt>
      <trkpt lat="39.3225340" lon="-8.6071010">
        <ele>50.6</ele>
        <time>2019-07-11T13:08:00Z</time>
      </trkpt>
      <trkpt lat="39.3226810" lon="-8.6072260">
        <ele>51.2</ele>
        <time>2019-07-11T13:08:04Z</time>
      </trkpt>
      <trkpt lat="39.3227900" lon="-8.6073190">
        <ele>51.8</ele>
        <time>2019-07-11T13:08:07Z</time>
      </trkpt>
      <trkpt lat="39.3228280" lon="-8.6073420">
        <ele>52.2</ele>
        <time>2019-07-11T13:08:08Z</time>
      </trkpt>
      <trkpt lat="39.3228680" lon="-8.6073580">
        <ele>52.6</ele>
        <time>2019-07-11T13:08:09Z</time>
      </trkpt>
      <trkpt lat="39.3230360" lon="-8.6073650">
        <ele>52.8</ele>
        <time>2019-07-11T13:08:13Z</time>
      </trkpt>
      <trkpt lat="39.3231530" lon="-8.6073340">
        <ele>53.6</ele>
        <time>2019-07-11T13:08:16Z</time>
      </trkpt>
      <trkpt lat="39.3232450" lon="-8.6072880">
        <ele>54.4</ele>
        <time>2019-07-11T13:08:19Z</time>
      </trkpt>
      <trkpt lat="39.3232760" lon="-8.6072720">
        <ele>54.8</ele>
        <time>2019-07-11T13:08:20Z</time>
      </trkpt>
      <trkpt lat="39.3234300" lon="-8.6071900">
        <ele>55.8</ele>
        <time>2019-07-11T13:08:25Z</time>
      </trkpt>
      <trkpt lat="39.3235190" lon="-8.6071400">
        <ele>56.4</ele>
        <time>2019-07-11T13:08:28Z</time>
      </trkpt>
      <trkpt lat="39.3236090" lon="-8.6070900">
        <ele>57.0</ele>
        <time>2019-07-11T13:08:31Z</time>
      </trkpt>
      <trkpt lat="39.3237250" lon="-8.6070350">
        <ele>58.2</ele>
        <time>2019-07-11T13:08:35Z</time>
      </trkpt>
      <trkpt lat="39.3238740" lon="-8.6068880">
        <ele>59.2</ele>
        <time>2019-07-11T13:08:41Z</time>
      </trkpt>
      <trkpt lat="39.3238920" lon="-8.6068580">
        <ele>59.4</ele>
        <time>2019-07-11T13:08:42Z</time>
      </trkpt>
      <trkpt lat="39.3239760" lon="-8.6067100">
        <ele>60.4</ele>
        <time>2019-07-11T13:08:47Z</time>
      </trkpt>
      <trkpt lat="39.3239930" lon="-8.6066810">
        <ele>60.6</ele>
        <time>2019-07-11T13:08:48Z</time>
      </trkpt>
      <trkpt lat="39.3240740" lon="-8.6065710">
        <ele>61.6</ele>
        <time>2019-07-11T13:08:52Z</time>
      </trkpt>
      <trkpt lat="39.3241300" lon="-8.6065320">
        <ele>62.0</ele>
        <time>2019-07-11T13:08:54Z</time>
      </trkpt>
      <trkpt lat="39.3242800" lon="-8.6065280">
        <ele>62.6</ele>
        <time>2019-07-11T13:08:59Z</time>
      </trkpt>
      <trkpt lat="39.3243080" lon="-8.6065470">
        <ele>62.8</ele>
        <time>2019-07-11T13:09:00Z</time>
      </trkpt>
      <trkpt lat="39.3244250" lon="-8.6066740">
        <ele>63.8</ele>
        <time>2019-07-11T13:09:05Z</time>
      </trkpt>
      <trkpt lat="39.3244410" lon="-8.6067050">
        <ele>64.0</ele>
        <time>2019-07-11T13:09:06Z</time>
      </trkpt>
      <trkpt lat="39.3245140" lon="-8.6068180">
        <ele>65.0</ele>
        <time>2019-07-11T13:09:10Z</time>
      </trkpt>
      <trkpt lat="39.3245400" lon="-8.6068360">
        <ele>65.2</ele>
        <time>2019-07-11T13:09:11Z</time>
      </trkpt>
      <trkpt lat="39.3246480" lon="-8.6068890">
        <ele>66.2</ele>
        <time>2019-07-11T13:09:15Z</time>
      </trkpt>
      <trkpt lat="39.3247050" lon="-8.6069040">
        <ele>66.8</ele>
        <time>2019-07-11T13:09:17Z</time>
      </trkpt>
      <trkpt lat="39.3247920" lon="-8.6069270">
        <ele>67.4</ele>
        <time>2019-07-11T13:09:20Z</time>
      </trkpt>
      <trkpt lat="39.3249140" lon="-8.6069600">
        <ele>68.4</ele>
        <time>2019-07-11T13:09:24Z</time>
      </trkpt>
      <trkpt lat="39.3249420" lon="-8.6069780">
        <ele>68.6</ele>
        <time>2019-07-11T13:09:25Z</time>
      </trkpt>
      <trkpt lat="39.3250480" lon="-8.6070780">
        <ele>69.0</ele>
        <time>2019-07-11T13:09:29Z</time>
      </trkpt>
      <trkpt lat="39.3251310" lon="-8.6072100">
        <ele>69.8</ele>
        <time>2019-07-11T13:09:33Z</time>
      </trkpt>
      <trkpt lat="39.3251700" lon="-8.6072740">
        <ele>70.0</ele>
        <time>2019-07-11T13:09:35Z</time>
      </trkpt>
      <trkpt lat="39.3252350" lon="-8.6074000">
        <ele>70.8</ele>
        <time>2019-07-11T13:09:39Z</time>
      </trkpt>
      <trkpt lat="39.3252750" lon="-8.6074540">
        <ele>71.2</ele>
        <time>2019-07-11T13:09:41Z</time>
      </trkpt>
      <trkpt lat="39.3253370" lon="-8.6075740">
        <ele>72.0</ele>
        <time>2019-07-11T13:09:45Z</time>
      </trkpt>
      <trkpt lat="39.3253650" lon="-8.6076340">
        <ele>72.2</ele>
        <time>2019-07-11T13:09:47Z</time>
      </trkpt>
      <trkpt lat="39.3254340" lon="-8.6077860">
        <ele>73.0</ele>
        <time>2019-07-11T13:09:52Z</time>
      </trkpt>
      <trkpt lat="39.3254500" lon="-8.6078150">
        <ele>73.2</ele>
        <time>2019-07-11T13:09:53Z</time>
      </trkpt>
      <trkpt lat="39.3255000" lon="-8.6079460">
        <ele>74.0</ele>
        <time>2019-07-11T13:09:57Z</time>
      </trkpt>
      <trkpt lat="39.3255310" lon="-8.6080500">
        <ele>74.8</ele>
        <time>2019-07-11T13:10:00Z</time>
      </trkpt>
      <trkpt lat="39.3255550" lon="-8.6081150">
        <ele>75.2</ele>
        <time>2019-07-11T13:10:02Z</time>
      </trkpt>
      <trkpt lat="39.3255730" lon="-8.6082680">
        <ele>75.8</ele>
        <time>2019-07-11T13:10:06Z</time>
      </trkpt>
      <trkpt lat="39.3256060" lon="-8.6085630">
        <ele>76.2</ele>
        <time>2019-07-11T13:10:12Z</time>
      </trkpt>
      <trkpt lat="39.3256160" lon="-8.6086720">
        <ele>76.2</ele>
        <time>2019-07-11T13:10:14Z</time>
      </trkpt>
      <trkpt lat="39.3256410" lon="-8.6090320">
        <ele>76.4</ele>
        <time>2019-07-11T13:10:20Z</time>
      </trkpt>
      <trkpt lat="39.3256580" lon="-8.6092770">
        <ele>76.4</ele>
        <time>2019-07-11T13:10:24Z</time>
      </trkpt>
      <trkpt lat="39.3256770" lon="-8.6094690">
        <ele>76.4</ele>
        <time>2019-07-11T13:10:27Z</time>
      </trkpt>
      <trkpt lat="39.3256960" lon="-8.6096590">
        <ele>76.6</ele>
        <time>2019-07-11T13:10:30Z</time>
      </trkpt>
      <trkpt lat="39.3257410" lon="-8.6098470">
        <ele>76.8</ele>
        <time>2019-07-11T13:10:33Z</time>
      </trkpt>
      <trkpt lat="39.3259210" lon="-8.6102600">
        <ele>77.0</ele>
        <time>2019-07-11T13:10:40Z</time>
      </trkpt>
      <trkpt lat="39.3259510" lon="-8.6103150">
        <ele>77.2</ele>
        <time>2019-07-11T13:10:41Z</time>
      </trkpt>
      <trkpt lat="39.3261980" lon="-8.6108300">
        <ele>77.6</ele>
        <time>2019-07-11T13:10:50Z</time>
      </trkpt>
      <trkpt lat="39.3264020" lon="-8.6113520">
        <ele>77.6</ele>
        <time>2019-07-11T13:10:58Z</time>
      </trkpt>
      <trkpt lat="39.3266040" lon="-8.6118870">
        <ele>77.2</ele>
        <time>2019-07-11T13:11:05Z</time>
      </trkpt>
      <trkpt lat="39.3267040" lon="-8.6122190">
        <ele>76.8</ele>
        <time>2019-07-11T13:11:09Z</time>
      </trkpt>
      <trkpt lat="39.3267400" lon="-8.6123940">
        <ele>76.6</ele>
        <time>2019-07-11T13:11:11Z</time>
      </trkpt>
      <trkpt lat="39.3267850" lon="-8.6128740">
        <ele>76.6</ele>
        <time>2019-07-11T13:11:17Z</time>
      </trkpt>
      <trkpt lat="39.3268580" lon="-8.6132700">
        <ele>77.6</ele>
        <time>2019-07-11T13:11:23Z</time>
      </trkpt>
      <trkpt lat="39.3269370" lon="-8.6135030">
        <ele>78.2</ele>
        <time>2019-07-11T13:11:27Z</time>
      </trkpt>
      <trkpt lat="39.3269580" lon="-8.6135570">
        <ele>78.4</ele>
        <time>2019-07-11T13:11:28Z</time>
      </trkpt>
      <trkpt lat="39.3269760" lon="-8.6136130">
        <ele>78.6</ele>
        <time>2019-07-11T13:11:29Z</time>
      </trkpt>
      <trkpt lat="39.3269900" lon="-8.6136700">
        <ele>78.8</ele>
        <time>2019-07-11T13:11:30Z</time>
      </trkpt>
      <trkpt lat="39.3270070" lon="-8.6139100">
        <ele>79.2</ele>
        <time>2019-07-11T13:11:34Z</time>
      </trkpt>
      <trkpt lat="39.3270000" lon="-8.6141550">
        <ele>79.6</ele>
        <time>2019-07-11T13:11:38Z</time>
      </trkpt>
      <trkpt lat="39.3269750" lon="-8.6144140">
        <ele>80.2</ele>
        <time>2019-07-11T13:11:42Z</time>
      </trkpt>
      <trkpt lat="39.3269350" lon="-8.6146100">
        <ele>80.6</ele>
        <time>2019-07-11T13:11:45Z</time>
      </trkpt>
      <trkpt lat="39.3268630" lon="-8.6148630">
        <ele>80.8</ele>
        <time>2019-07-11T13:11:49Z</time>
      </trkpt>
      <trkpt lat="39.3266820" lon="-8.6154850">
        <ele>81.4</ele>
        <time>2019-07-11T13:11:59Z</time>
      </trkpt>
      <trkpt lat="39.3265980" lon="-8.6157870">
        <ele>81.6</ele>
        <time>2019-07-11T13:12:04Z</time>
      </trkpt>
      <trkpt lat="39.3265720" lon="-8.6159090">
        <ele>81.8</ele>
        <time>2019-07-11T13:12:06Z</time>
      </trkpt>
      <trkpt lat="39.3264830" lon="-8.6162670">
        <ele>82.8</ele>
        <time>2019-07-11T13:12:12Z</time>
      </trkpt>
      <trkpt lat="39.3264400" lon="-8.6163800">
        <ele>82.8</ele>
        <time>2019-07-11T13:12:14Z</time>
      </trkpt>
      <trkpt lat="39.3262200" lon="-8.6168120">
        <ele>83.8</ele>
        <time>2019-07-11T13:12:22Z</time>
      </trkpt>
      <trkpt lat="39.3260340" lon="-8.6171520">
        <ele>84.0</ele>
        <time>2019-07-11T13:12:28Z</time>
      </trkpt>
      <trkpt lat="39.3259650" lon="-8.6172640">
        <ele>84.0</ele>
        <time>2019-07-11T13:12:30Z</time>
      </trkpt>
      <trkpt lat="39.3256160" lon="-8.6178440">
        <ele>84.0</ele>
        <time>2019-07-11T13:12:40Z</time>
      </trkpt>
      <trkpt lat="39.3252850" lon="-8.6183280">
        <ele>84.6</ele>
        <time>2019-07-11T13:12:49Z</time>
      </trkpt>
      <trkpt lat="39.3251060" lon="-8.6186060">
        <ele>84.8</ele>
        <time>2019-07-11T13:12:54Z</time>
      </trkpt>
      <trkpt lat="39.3250690" lon="-8.6186610">
        <ele>84.8</ele>
        <time>2019-07-11T13:12:55Z</time>
      </trkpt>
      <trkpt lat="39.3249560" lon="-8.6188150">
        <ele>85.2</ele>
        <time>2019-07-11T13:12:58Z</time>
      </trkpt>
      <trkpt lat="39.3246550" lon="-8.6192550">
        <ele>85.4</ele>
        <time>2019-07-11T13:13:06Z</time>
      </trkpt>
      <trkpt lat="39.3243210" lon="-8.6197080">
        <ele>84.6</ele>
        <time>2019-07-11T13:13:13Z</time>
      </trkpt>
      <trkpt lat="39.3239280" lon="-8.6200740">
        <ele>84.6</ele>
        <time>2019-07-11T13:13:20Z</time>
      </trkpt>
      <trkpt lat="39.3236100" lon="-8.6203480">
        <ele>84.8</ele>
        <time>2019-07-11T13:13:26Z</time>
      </trkpt>
      <trkpt lat="39.3232580" lon="-8.6205880">
        <ele>85.6</ele>
        <time>2019-07-11T13:13:33Z</time>
      </trkpt>
      <trkpt lat="39.3231600" lon="-8.6206480">
        <ele>85.8</ele>
        <time>2019-07-11T13:13:35Z</time>
      </trkpt>
      <trkpt lat="39.3228750" lon="-8.6208540">
        <ele>86.6</ele>
        <time>2019-07-11T13:13:41Z</time>
      </trkpt>
      <trkpt lat="39.3224870" lon="-8.6211930">
        <ele>86.4</ele>
        <time>2019-07-11T13:13:49Z</time>
      </trkpt>
      <trkpt lat="39.3220920" lon="-8.6215710">
        <ele>86.2</ele>
        <time>2019-07-11T13:13:57Z</time>
      </trkpt>
      <trkpt lat="39.3217520" lon="-8.6219270">
        <ele>86.4</ele>
        <time>2019-07-11T13:14:04Z</time>
      </trkpt>
      <trkpt lat="39.3217040" lon="-8.6219700">
        <ele>86.4</ele>
        <time>2019-07-11T13:14:05Z</time>
      </trkpt>
      <trkpt lat="39.3213700" lon="-8.6222520">
        <ele>86.0</ele>
        <time>2019-07-11T13:14:12Z</time>
      </trkpt>
      <trkpt lat="39.3211360" lon="-8.6224390">
        <ele>86.0</ele>
        <time>2019-07-11T13:14:17Z</time>
      </trkpt>
      <trkpt lat="39.3210390" lon="-8.6225060">
        <ele>86.2</ele>
        <time>2019-07-11T13:14:19Z</time>
      </trkpt>
      <trkpt lat="39.3208230" lon="-8.6225840">
        <ele>86.4</ele>
        <time>2019-07-11T13:14:23Z</time>
      </trkpt>
      <trkpt lat="39.3207660" lon="-8.6225890">
        <ele>86.6</ele>
        <time>2019-07-11T13:14:24Z</time>
      </trkpt>
      <trkpt lat="39.3203730" lon="-8.6225760">
        <ele>86.8</ele>
        <time>2019-07-11T13:14:31Z</time>
      </trkpt>
      <trkpt lat="39.3203190" lon="-8.6225710">
        <ele>87.0</ele>
        <time>2019-07-11T13:14:32Z</time>
      </trkpt>
      <trkpt lat="39.3200020" lon="-8.6225470">
        <ele>87.8</ele>
        <time>2019-07-11T13:14:38Z</time>
      </trkpt>
      <trkpt lat="39.3197270" lon="-8.6225780">
        <ele>88.0</ele>
        <time>2019-07-11T13:14:43Z</time>
      </trkpt>
      <trkpt lat="39.3196740" lon="-8.6225900">
        <ele>88.0</ele>
        <time>2019-07-11T13:14:44Z</time>
      </trkpt>
      <trkpt lat="39.3192580" lon="-8.6227160">
        <ele>88.8</ele>
        <time>2019-07-11T13:14:52Z</time>
      </trkpt>
      <trkpt lat="39.3189900" lon="-8.6227990">
        <ele>88.8</ele>
        <time>2019-07-11T13:14:57Z</time>
      </trkpt>
      <trkpt lat="39.3188200" lon="-8.6228480">
        <ele>89.2</ele>
        <time>2019-07-11T13:15:00Z</time>
      </trkpt>
      <trkpt lat="39.3183990" lon="-8.6230350">
        <ele>89.0</ele>
        <time>2019-07-11T13:15:07Z</time>
      </trkpt>
      <trkpt lat="39.3180310" lon="-8.6232410">
        <ele>88.6</ele>
        <time>2019-07-11T13:15:13Z</time>
      </trkpt>
      <trkpt lat="39.3179050" lon="-8.6233070">
        <ele>88.2</ele>
        <time>2019-07-11T13:15:15Z</time>
      </trkpt>
      <trkpt lat="39.3178410" lon="-8.6233390">
        <ele>88.2</ele>
        <time>2019-07-11T13:15:16Z</time>
      </trkpt>
      <trkpt lat="39.3173800" lon="-8.6235350">
        <ele>88.2</ele>
        <time>2019-07-11T13:15:23Z</time>
      </trkpt>
      <trkpt lat="39.3168110" lon="-8.6237950">
        <ele>88.2</ele>
        <time>2019-07-11T13:15:32Z</time>
      </trkpt>
      <trkpt lat="39.3163520" lon="-8.6240480">
        <ele>88.2</ele>
        <time>2019-07-11T13:15:40Z</time>
      </trkpt>
      <trkpt lat="39.3161880" lon="-8.6241660">
        <ele>88.2</ele>
        <time>2019-07-11T13:15:43Z</time>
      </trkpt>
      <trkpt lat="39.3158490" lon="-8.6243800">
        <ele>88.8</ele>
        <time>2019-07-11T13:15:49Z</time>
      </trkpt>
      <trkpt lat="39.3154230" lon="-8.6246350">
        <ele>89.2</ele>
        <time>2019-07-11T13:15:57Z</time>
      </trkpt>
      <trkpt lat="39.3153710" lon="-8.6246640">
        <ele>89.2</ele>
        <time>2019-07-11T13:15:58Z</time>
      </trkpt>
      <trkpt lat="39.3151040" lon="-8.6248330">
        <ele>89.8</ele>
        <time>2019-07-11T13:16:04Z</time>
      </trkpt>
      <trkpt lat="39.3149850" lon="-8.6249310">
        <ele>89.4</ele>
        <time>2019-07-11T13:16:07Z</time>
      </trkpt>
      <trkpt lat="39.3149360" lon="-8.6250100">
        <ele>89.2</ele>
        <time>2019-07-11T13:16:09Z</time>
      </trkpt>
      <trkpt lat="39.3149790" lon="-8.6252200">
        <ele>88.8</ele>
        <time>2019-07-11T13:16:13Z</time>
      </trkpt>
      <trkpt lat="39.3150180" lon="-8.6253070">
        <ele>88.2</ele>
        <time>2019-07-11T13:16:16Z</time>
      </trkpt>
      <trkpt lat="39.3150200" lon="-8.6253110">
        <ele>87.8</ele>
        <time>2019-07-11T13:16:17Z</time>
      </trkpt>
      <trkpt lat="39.3150200" lon="-8.6253120">
        <ele>87.6</ele>
        <time>2019-07-11T13:16:18Z</time>
      </trkpt>
      <trkpt lat="39.3149860" lon="-8.6252820">
        <ele>87.4</ele>
        <time>2019-07-11T13:16:45Z</time>
      </trkpt>
      <trkpt lat="39.3149770" lon="-8.6252620">
        <ele>87.4</ele>
        <time>2019-07-11T13:16:46Z</time>
      </trkpt>
      <trkpt lat="39.3149570" lon="-8.6252140">
        <ele>87.6</ele>
        <time>2019-07-11T13:16:48Z</time>
      </trkpt>
      <trkpt lat="39.3149370" lon="-8.6251620">
        <ele>87.8</ele>
        <time>2019-07-11T13:16:50Z</time>
      </trkpt>
      <trkpt lat="39.3149010" lon="-8.6250730">
        <ele>88.2</ele>
        <time>2019-07-11T13:16:54Z</time>
      </trkpt>
      <trkpt lat="39.3148160" lon="-8.6250920">
        <ele>88.6</ele>
        <time>2019-07-11T13:16:58Z</time>
      </trkpt>
      <trkpt lat="39.3145790" lon="-8.6252080">
        <ele>88.6</ele>
        <time>2019-07-11T13:17:04Z</time>
      </trkpt>
      <trkpt lat="39.3144350" lon="-8.6252630">
        <ele>88.6</ele>
        <time>2019-07-11T13:17:07Z</time>
      </trkpt>
      <trkpt lat="39.3142280" lon="-8.6253490">
        <ele>88.6</ele>
        <time>2019-07-11T13:17:11Z</time>
      </trkpt>
      <trkpt lat="39.3140120" lon="-8.6254340">
        <ele>88.4</ele>
        <time>2019-07-11T13:17:15Z</time>
      </trkpt>
      <trkpt lat="39.3139040" lon="-8.6254900">
        <ele>88.4</ele>
        <time>2019-07-11T13:17:17Z</time>
      </trkpt>
      <trkpt lat="39.3135170" lon="-8.6256940">
        <ele>88.2</ele>
        <time>2019-07-11T13:17:24Z</time>
      </trkpt>
      <trkpt lat="39.3134630" lon="-8.6257220">
        <ele>88.2</ele>
        <time>2019-07-11T13:17:25Z</time>
      </trkpt>
      <trkpt lat="39.3131790" lon="-8.6258590">
        <ele>88.0</ele>
        <time>2019-07-11T13:17:30Z</time>
      </trkpt>
      <trkpt lat="39.3130670" lon="-8.6259020">
        <ele>88.0</ele>
        <time>2019-07-11T13:17:32Z</time>
      </trkpt>
      <trkpt lat="39.3126240" lon="-8.6260060">
        <ele>88.0</ele>
        <time>2019-07-11T13:17:40Z</time>
      </trkpt>
      <trkpt lat="39.3125220" lon="-8.6260460">
        <ele>88.0</ele>
        <time>2019-07-11T13:17:42Z</time>
      </trkpt>
      <trkpt lat="39.3123330" lon="-8.6261610">
        <ele>88.4</ele>
        <time>2019-07-11T13:17:46Z</time>
      </trkpt>
      <trkpt lat="39.3119160" lon="-8.6264380">
        <ele>88.4</ele>
        <time>2019-07-11T13:17:54Z</time>
      </trkpt>
      <trkpt lat="39.3118570" lon="-8.6264650">
        <ele>88.2</ele>
        <time>2019-07-11T13:17:55Z</time>
      </trkpt>
      <trkpt lat="39.3116280" lon="-8.6265930">
        <ele>88.0</ele>
        <time>2019-07-11T13:17:59Z</time>
      </trkpt>
      <trkpt lat="39.3112870" lon="-8.6267440">
        <ele>87.8</ele>
        <time>2019-07-11T13:18:05Z</time>
      </trkpt>
      <trkpt lat="39.3108850" lon="-8.6269330">
        <ele>88.2</ele>
        <time>2019-07-11T13:18:13Z</time>
      </trkpt>
      <trkpt lat="39.3106900" lon="-8.6270240">
        <ele>88.6</ele>
        <time>2019-07-11T13:18:17Z</time>
      </trkpt>
      <trkpt lat="39.3105300" lon="-8.6271070">
        <ele>88.4</ele>
        <time>2019-07-11T13:18:20Z</time>
      </trkpt>
      <trkpt lat="39.3101070" lon="-8.6272930">
        <ele>87.8</ele>
        <time>2019-07-11T13:18:27Z</time>
      </trkpt>
      <trkpt lat="39.3098450" lon="-8.6273750">
        <ele>87.6</ele>
        <time>2019-07-11T13:18:31Z</time>
      </trkpt>
      <trkpt lat="39.3097130" lon="-8.6274080">
        <ele>87.6</ele>
        <time>2019-07-11T13:18:33Z</time>
      </trkpt>
      <trkpt lat="39.3094560" lon="-8.6274520">
        <ele>87.2</ele>
        <time>2019-07-11T13:18:37Z</time>
      </trkpt>
      <trkpt lat="39.3092630" lon="-8.6274870">
        <ele>87.2</ele>
        <time>2019-07-11T13:18:40Z</time>
      </trkpt>
      <trkpt lat="39.3091960" lon="-8.6274950">
        <ele>87.2</ele>
        <time>2019-07-11T13:18:41Z</time>
      </trkpt>
      <trkpt lat="39.3089940" lon="-8.6274780">
        <ele>86.6</ele>
        <time>2019-07-11T13:18:44Z</time>
      </trkpt>
      <trkpt lat="39.3089260" lon="-8.6274720">
        <ele>86.6</ele>
        <time>2019-07-11T13:18:45Z</time>
      </trkpt>
      <trkpt lat="39.3087240" lon="-8.6274570">
        <ele>86.4</ele>
        <time>2019-07-11T13:18:48Z</time>
      </trkpt>
      <trkpt lat="39.3084660" lon="-8.6274440">
        <ele>86.4</ele>
        <time>2019-07-11T13:18:52Z</time>
      </trkpt>
      <trkpt lat="39.3080930" lon="-8.6275000">
        <ele>86.2</ele>
        <time>2019-07-11T13:18:58Z</time>
      </trkpt>
      <trkpt lat="39.3080340" lon="-8.6275100">
        <ele>86.2</ele>
        <time>2019-07-11T13:18:59Z</time>
      </trkpt>
      <trkpt lat="39.3078600" lon="-8.6274860">
        <ele>86.4</ele>
        <time>2019-07-11T13:19:02Z</time>
      </trkpt>
      <trkpt lat="39.3075080" lon="-8.6274680">
        <ele>86.4</ele>
        <time>2019-07-11T13:19:08Z</time>
      </trkpt>
      <trkpt lat="39.3072230" lon="-8.6274700">
        <ele>86.6</ele>
        <time>2019-07-11T13:19:13Z</time>
      </trkpt>
      <trkpt lat="39.3071110" lon="-8.6274890">
        <ele>86.6</ele>
        <time>2019-07-11T13:19:15Z</time>
      </trkpt>
      <trkpt lat="39.3067290" lon="-8.6275620">
        <ele>86.6</ele>
        <time>2019-07-11T13:19:22Z</time>
      </trkpt>
      <trkpt lat="39.3066050" lon="-8.6275680">
        <ele>86.4</ele>
        <time>2019-07-11T13:19:24Z</time>
      </trkpt>
      <trkpt lat="39.3064070" lon="-8.6275570">
        <ele>86.2</ele>
        <time>2019-07-11T13:19:27Z</time>
      </trkpt>
      <trkpt lat="39.3061910" lon="-8.6275430">
        <ele>85.6</ele>
        <time>2019-07-11T13:19:30Z</time>
      </trkpt>
      <trkpt lat="39.3058800" lon="-8.6275310">
        <ele>84.8</ele>
        <time>2019-07-11T13:19:34Z</time>
      </trkpt>
      <trkpt lat="39.3056370" lon="-8.6275540">
        <ele>84.4</ele>
        <time>2019-07-11T13:19:37Z</time>
      </trkpt>
      <trkpt lat="39.3053860" lon="-8.6275750">
        <ele>83.8</ele>
        <time>2019-07-11T13:19:40Z</time>
      </trkpt>
      <trkpt lat="39.3052130" lon="-8.6275910">
        <ele>83.2</ele>
        <time>2019-07-11T13:19:42Z</time>
      </trkpt>
      <trkpt lat="39.3049510" lon="-8.6276220">
        <ele>81.8</ele>
        <time>2019-07-11T13:19:45Z</time>
      </trkpt>
      <trkpt lat="39.3047670" lon="-8.6276360">
        <ele>80.8</ele>
        <time>2019-07-11T13:19:47Z</time>
      </trkpt>
      <trkpt lat="39.3044880" lon="-8.6276680">
        <ele>79.2</ele>
        <time>2019-07-11T13:19:50Z</time>
      </trkpt>
      <trkpt lat="39.3042210" lon="-8.6277020">
        <ele>78.2</ele>
        <time>2019-07-11T13:19:53Z</time>
      </trkpt>
      <trkpt lat="39.3040500" lon="-8.6277190">
        <ele>77.6</ele>
        <time>2019-07-11T13:19:55Z</time>
      </trkpt>
      <trkpt lat="39.3037980" lon="-8.6277350">
        <ele>77.2</ele>
        <time>2019-07-11T13:19:58Z</time>
      </trkpt>
      <trkpt lat="39.3035470" lon="-8.6277040">
        <ele>76.4</ele>
        <time>2019-07-11T13:20:01Z</time>
      </trkpt>
      <trkpt lat="39.3033850" lon="-8.6276590">
        <ele>75.8</ele>
        <time>2019-07-11T13:20:03Z</time>
      </trkpt>
      <trkpt lat="39.3030020" lon="-8.6275760">
        <ele>75.2</ele>
        <time>2019-07-11T13:20:08Z</time>
      </trkpt>
      <trkpt lat="39.3027890" lon="-8.6275180">
        <ele>75.0</ele>
        <time>2019-07-11T13:20:11Z</time>
      </trkpt>
      <trkpt lat="39.3026490" lon="-8.6274780">
        <ele>75.0</ele>
        <time>2019-07-11T13:20:13Z</time>
      </trkpt>
      <trkpt lat="39.3025790" lon="-8.6274630">
        <ele>74.8</ele>
        <time>2019-07-11T13:20:14Z</time>
      </trkpt>
      <trkpt lat="39.3025090" lon="-8.6274490">
        <ele>74.8</ele>
        <time>2019-07-11T13:20:15Z</time>
      </trkpt>
      <trkpt lat="39.3024390" lon="-8.6274350">
        <ele>74.6</ele>
        <time>2019-07-11T13:20:16Z</time>
      </trkpt>
      <trkpt lat="39.3018920" lon="-8.6273490">
        <ele>74.0</ele>
        <time>2019-07-11T13:20:24Z</time>
      </trkpt>
      <trkpt lat="39.3018230" lon="-8.6273470">
        <ele>74.0</ele>
        <time>2019-07-11T13:20:25Z</time>
      </trkpt>
      <trkpt lat="39.3015420" lon="-8.6273430">
        <ele>73.8</ele>
        <time>2019-07-11T13:20:29Z</time>
      </trkpt>
      <trkpt lat="39.3012600" lon="-8.6273730">
        <ele>73.2</ele>
        <time>2019-07-11T13:20:33Z</time>
      </trkpt>
      <trkpt lat="39.3010450" lon="-8.6274090">
        <ele>72.8</ele>
        <time>2019-07-11T13:20:36Z</time>
      </trkpt>
      <trkpt lat="39.3005950" lon="-8.6274940">
        <ele>71.8</ele>
        <time>2019-07-11T13:20:42Z</time>
      </trkpt>
      <trkpt lat="39.3005180" lon="-8.6275080">
        <ele>71.6</ele>
        <time>2019-07-11T13:20:43Z</time>
      </trkpt>
      <trkpt lat="39.2999110" lon="-8.6276060">
        <ele>70.8</ele>
        <time>2019-07-11T13:20:51Z</time>
      </trkpt>
      <trkpt lat="39.2998390" lon="-8.6276150">
        <ele>70.6</ele>
        <time>2019-07-11T13:20:52Z</time>
      </trkpt>
      <trkpt lat="39.2997690" lon="-8.6276220">
        <ele>70.6</ele>
        <time>2019-07-11T13:20:53Z</time>
      </trkpt>
      <trkpt lat="39.2994960" lon="-8.6276550">
        <ele>70.2</ele>
        <time>2019-07-11T13:20:57Z</time>
      </trkpt>
      <trkpt lat="39.2993610" lon="-8.6276720">
        <ele>70.2</ele>
        <time>2019-07-11T13:20:59Z</time>
      </trkpt>
      <trkpt lat="39.2992250" lon="-8.6276910">
        <ele>69.8</ele>
        <time>2019-07-11T13:21:01Z</time>
      </trkpt>
      <trkpt lat="39.2990880" lon="-8.6276990">
        <ele>69.6</ele>
        <time>2019-07-11T13:21:03Z</time>
      </trkpt>
      <trkpt lat="39.2988110" lon="-8.6277130">
        <ele>69.4</ele>
        <time>2019-07-11T13:21:07Z</time>
      </trkpt>
      <trkpt lat="39.2984030" lon="-8.6277290">
        <ele>68.6</ele>
        <time>2019-07-11T13:21:13Z</time>
      </trkpt>
      <trkpt lat="39.2981970" lon="-8.6277390">
        <ele>68.2</ele>
        <time>2019-07-11T13:21:16Z</time>
      </trkpt>
      <trkpt lat="39.2981280" lon="-8.6277420">
        <ele>68.0</ele>
        <time>2019-07-11T13:21:17Z</time>
      </trkpt>
      <trkpt lat="39.2979190" lon="-8.6277640">
        <ele>67.6</ele>
        <time>2019-07-11T13:21:20Z</time>
      </trkpt>
      <trkpt lat="39.2978490" lon="-8.6277650">
        <ele>67.6</ele>
        <time>2019-07-11T13:21:21Z</time>
      </trkpt>
      <trkpt lat="39.2974900" lon="-8.6277780">
        <ele>66.6</ele>
        <time>2019-07-11T13:21:26Z</time>
      </trkpt>
      <trkpt lat="39.2973450" lon="-8.6277840">
        <ele>66.4</ele>
        <time>2019-07-11T13:21:28Z</time>
      </trkpt>
      <trkpt lat="39.2971220" lon="-8.6277990">
        <ele>65.8</ele>
        <time>2019-07-11T13:21:31Z</time>
      </trkpt>
      <trkpt lat="39.2969660" lon="-8.6277880">
        <ele>65.2</ele>
        <time>2019-07-11T13:21:33Z</time>
      </trkpt>
      <trkpt lat="39.2967130" lon="-8.6277640">
        <ele>64.0</ele>
        <time>2019-07-11T13:21:36Z</time>
      </trkpt>
      <trkpt lat="39.2965280" lon="-8.6277570">
        <ele>62.8</ele>
        <time>2019-07-11T13:21:38Z</time>
      </trkpt>
      <trkpt lat="39.2963250" lon="-8.6277530">
        <ele>61.4</ele>
        <time>2019-07-11T13:21:40Z</time>
      </trkpt>
      <trkpt lat="39.2962160" lon="-8.6277540">
        <ele>60.6</ele>
        <time>2019-07-11T13:21:41Z</time>
      </trkpt>
      <trkpt lat="39.2961040" lon="-8.6277660">
        <ele>59.8</ele>
        <time>2019-07-11T13:21:42Z</time>
      </trkpt>
      <trkpt lat="39.2958840" lon="-8.6278440">
        <ele>57.8</ele>
        <time>2019-07-11T13:21:44Z</time>
      </trkpt>
      <trkpt lat="39.2957830" lon="-8.6279090">
        <ele>57.0</ele>
        <time>2019-07-11T13:21:45Z</time>
      </trkpt>
      <trkpt lat="39.2955940" lon="-8.6280620">
        <ele>55.6</ele>
        <time>2019-07-11T13:21:47Z</time>
      </trkpt>
      <trkpt lat="39.2955040" lon="-8.6281390">
        <ele>55.2</ele>
        <time>2019-07-11T13:21:48Z</time>
      </trkpt>
      <trkpt lat="39.2953330" lon="-8.6282920">
        <ele>54.6</ele>
        <time>2019-07-11T13:21:50Z</time>
      </trkpt>
      <trkpt lat="39.2950130" lon="-8.6285730">
        <ele>54.0</ele>
        <time>2019-07-11T13:21:54Z</time>
      </trkpt>
      <trkpt lat="39.2948600" lon="-8.6286950">
        <ele>53.6</ele>
        <time>2019-07-11T13:21:56Z</time>
      </trkpt>
      <trkpt lat="39.2947830" lon="-8.6287450">
        <ele>53.4</ele>
        <time>2019-07-11T13:21:57Z</time>
      </trkpt>
      <trkpt lat="39.2946260" lon="-8.6288060">
        <ele>53.4</ele>
        <time>2019-07-11T13:21:59Z</time>
      </trkpt>
      <trkpt lat="39.2944080" lon="-8.6288220">
        <ele>53.6</ele>
        <time>2019-07-11T13:22:02Z</time>
      </trkpt>
      <trkpt lat="39.2943400" lon="-8.6288150">
        <ele>53.6</ele>
        <time>2019-07-11T13:22:03Z</time>
      </trkpt>
      <trkpt lat="39.2942140" lon="-8.6287880">
        <ele>53.8</ele>
        <time>2019-07-11T13:22:05Z</time>
      </trkpt>
      <trkpt lat="39.2940360" lon="-8.6287180">
        <ele>53.8</ele>
        <time>2019-07-11T13:22:08Z</time>
      </trkpt>
      <trkpt lat="39.2938590" lon="-8.6286490">
        <ele>53.6</ele>
        <time>2019-07-11T13:22:11Z</time>
      </trkpt>
      <trkpt lat="39.2935630" lon="-8.6285630">
        <ele>53.8</ele>
        <time>2019-07-11T13:22:16Z</time>
      </trkpt>
      <trkpt lat="39.2935000" lon="-8.6285630">
        <ele>53.8</ele>
        <time>2019-07-11T13:22:17Z</time>
      </trkpt>
      <trkpt lat="39.2933170" lon="-8.6286160">
        <ele>53.8</ele>
        <time>2019-07-11T13:22:20Z</time>
      </trkpt>
      <trkpt lat="39.2932030" lon="-8.6286910">
        <ele>53.8</ele>
        <time>2019-07-11T13:22:22Z</time>
      </trkpt>
      <trkpt lat="39.2930380" lon="-8.6288200">
        <ele>53.6</ele>
        <time>2019-07-11T13:22:25Z</time>
      </trkpt>
      <trkpt lat="39.2929840" lon="-8.6288660">
        <ele>53.4</ele>
        <time>2019-07-11T13:22:26Z</time>
      </trkpt>
      <trkpt lat="39.2927560" lon="-8.6290480">
        <ele>53.2</ele>
        <time>2019-07-11T13:22:30Z</time>
      </trkpt>
      <trkpt lat="39.2925790" lon="-8.6292120">
        <ele>53.2</ele>
        <time>2019-07-11T13:22:33Z</time>
      </trkpt>
      <trkpt lat="39.2923290" lon="-8.6294370">
        <ele>52.6</ele>
        <time>2019-07-11T13:22:37Z</time>
      </trkpt>
      <trkpt lat="39.2920790" lon="-8.6296630">
        <ele>52.4</ele>
        <time>2019-07-11T13:22:41Z</time>
      </trkpt>
      <trkpt lat="39.2915710" lon="-8.6300960">
        <ele>51.8</ele>
        <time>2019-07-11T13:22:49Z</time>
      </trkpt>
      <trkpt lat="39.2915040" lon="-8.6301430">
        <ele>51.6</ele>
        <time>2019-07-11T13:22:50Z</time>
      </trkpt>
      <trkpt lat="39.2910270" lon="-8.6304600">
        <ele>50.8</ele>
        <time>2019-07-11T13:22:57Z</time>
      </trkpt>
      <trkpt lat="39.2908850" lon="-8.6306870">
        <ele>50.6</ele>
        <time>2019-07-11T13:23:00Z</time>
      </trkpt>
      <trkpt lat="39.2908570" lon="-8.6308780">
        <ele>50.4</ele>
        <time>2019-07-11T13:23:02Z</time>
      </trkpt>
      <trkpt lat="39.2908680" lon="-8.6309770">
        <ele>50.4</ele>
        <time>2019-07-11T13:23:03Z</time>
      </trkpt>
      <trkpt lat="39.2909130" lon="-8.6311680">
        <ele>50.2</ele>
        <time>2019-07-11T13:23:05Z</time>
      </trkpt>
      <trkpt lat="39.2909770" lon="-8.6314570">
        <ele>49.8</ele>
        <time>2019-07-11T13:23:08Z</time>
      </trkpt>
      <trkpt lat="39.2910030" lon="-8.6316510">
        <ele>49.8</ele>
        <time>2019-07-11T13:23:10Z</time>
      </trkpt>
      <trkpt lat="39.2909810" lon="-8.6318410">
        <ele>49.6</ele>
        <time>2019-07-11T13:23:12Z</time>
      </trkpt>
      <trkpt lat="39.2908320" lon="-8.6320410">
        <ele>49.6</ele>
        <time>2019-07-11T13:23:15Z</time>
      </trkpt>
      <trkpt lat="39.2906190" lon="-8.6320980">
        <ele>49.4</ele>
        <time>2019-07-11T13:23:18Z</time>
      </trkpt>
      <trkpt lat="39.2904720" lon="-8.6321030">
        <ele>49.4</ele>
        <time>2019-07-11T13:23:20Z</time>
      </trkpt>
      <trkpt lat="39.2901160" lon="-8.6321170">
        <ele>50.0</ele>
        <time>2019-07-11T13:23:25Z</time>
      </trkpt>
      <trkpt lat="39.2897170" lon="-8.6321170">
        <ele>50.4</ele>
        <time>2019-07-11T13:23:31Z</time>
      </trkpt>
      <trkpt lat="39.2892670" lon="-8.6320880">
        <ele>50.4</ele>
        <time>2019-07-11T13:23:38Z</time>
      </trkpt>
      <trkpt lat="39.2888460" lon="-8.6321190">
        <ele>50.0</ele>
        <time>2019-07-11T13:23:44Z</time>
      </trkpt>
      <trkpt lat="39.2886210" lon="-8.6321460">
        <ele>49.4</ele>
        <time>2019-07-11T13:23:47Z</time>
      </trkpt>
      <trkpt lat="39.2882360" lon="-8.6321940">
        <ele>48.6</ele>
        <time>2019-07-11T13:23:52Z</time>
      </trkpt>
      <trkpt lat="39.2881560" lon="-8.6322010">
        <ele>48.4</ele>
        <time>2019-07-11T13:23:53Z</time>
      </trkpt>
      <trkpt lat="39.2877590" lon="-8.6322290">
        <ele>47.6</ele>
        <time>2019-07-11T13:23:58Z</time>
      </trkpt>
      <trkpt lat="39.2874490" lon="-8.6322590">
        <ele>47.6</ele>
        <time>2019-07-11T13:24:02Z</time>
      </trkpt>
      <trkpt lat="39.2872940" lon="-8.6322700">
        <ele>47.6</ele>
        <time>2019-07-11T13:24:04Z</time>
      </trkpt>
      <trkpt lat="39.2869210" lon="-8.6322990">
        <ele>47.2</ele>
        <time>2019-07-11T13:24:09Z</time>
      </trkpt>
      <trkpt lat="39.2868470" lon="-8.6323040">
        <ele>47.2</ele>
        <time>2019-07-11T13:24:10Z</time>
      </trkpt>
      <trkpt lat="39.2863520" lon="-8.6323480">
        <ele>46.8</ele>
        <time>2019-07-11T13:24:17Z</time>
      </trkpt>
      <trkpt lat="39.2858720" lon="-8.6323780">
        <ele>46.6</ele>
        <time>2019-07-11T13:24:24Z</time>
      </trkpt>
      <trkpt lat="39.2852660" lon="-8.6323810">
        <ele>46.8</ele>
        <time>2019-07-11T13:24:33Z</time>
      </trkpt>
      <trkpt lat="39.2848610" lon="-8.6323700">
        <ele>46.4</ele>
        <time>2019-07-11T13:24:39Z</time>
      </trkpt>
      <trkpt lat="39.2845780" lon="-8.6323700">
        <ele>46.4</ele>
        <time>2019-07-11T13:24:43Z</time>
      </trkpt>
      <trkpt lat="39.2840850" lon="-8.6323140">
        <ele>46.0</ele>
        <time>2019-07-11T13:24:50Z</time>
      </trkpt>
      <trkpt lat="39.2837680" lon="-8.6321330">
        <ele>46.0</ele>
        <time>2019-07-11T13:24:55Z</time>
      </trkpt>
      <trkpt lat="39.2833540" lon="-8.6318280">
        <ele>45.6</ele>
        <time>2019-07-11T13:25:02Z</time>
      </trkpt>
      <trkpt lat="39.2830410" lon="-8.6316680">
        <ele>45.2</ele>
        <time>2019-07-11T13:25:07Z</time>
      </trkpt>
      <trkpt lat="39.2829050" lon="-8.6316400">
        <ele>45.2</ele>
        <time>2019-07-11T13:25:09Z</time>
      </trkpt>
      <trkpt lat="39.2825660" lon="-8.6316400">
        <ele>45.4</ele>
        <time>2019-07-11T13:25:14Z</time>
      </trkpt>
      <trkpt lat="39.2823100" lon="-8.6317610">
        <ele>45.4</ele>
        <time>2019-07-11T13:25:18Z</time>
      </trkpt>
      <trkpt lat="39.2822480" lon="-8.6317990">
        <ele>45.4</ele>
        <time>2019-07-11T13:25:19Z</time>
      </trkpt>
      <trkpt lat="39.2817620" lon="-8.6321210">
        <ele>44.8</ele>
        <time>2019-07-11T13:25:27Z</time>
      </trkpt>
      <trkpt lat="39.2812690" lon="-8.6324430">
        <ele>45.0</ele>
        <time>2019-07-11T13:25:35Z</time>
      </trkpt>
      <trkpt lat="39.2808980" lon="-8.6326900">
        <ele>44.8</ele>
        <time>2019-07-11T13:25:41Z</time>
      </trkpt>
      <trkpt lat="39.2807030" lon="-8.6328070">
        <ele>44.8</ele>
        <time>2019-07-11T13:25:44Z</time>
      </trkpt>
      <trkpt lat="39.2805720" lon="-8.6328830">
        <ele>44.6</ele>
        <time>2019-07-11T13:25:46Z</time>
      </trkpt>
      <trkpt lat="39.2801870" lon="-8.6331350">
        <ele>45.2</ele>
        <time>2019-07-11T13:25:52Z</time>
      </trkpt>
      <trkpt lat="39.2797110" lon="-8.6335170">
        <ele>44.8</ele>
        <time>2019-07-11T13:26:00Z</time>
      </trkpt>
      <trkpt lat="39.2796550" lon="-8.6335730">
        <ele>45.0</ele>
        <time>2019-07-11T13:26:01Z</time>
      </trkpt>
      <trkpt lat="39.2791890" lon="-8.6339700">
        <ele>44.8</ele>
        <time>2019-07-11T13:26:09Z</time>
      </trkpt>
      <trkpt lat="39.2791290" lon="-8.6340130">
        <ele>45.0</ele>
        <time>2019-07-11T13:26:10Z</time>
      </trkpt>
      <trkpt lat="39.2790680" lon="-8.6340510">
        <ele>45.0</ele>
        <time>2019-07-11T13:26:11Z</time>
      </trkpt>
      <trkpt lat="39.2788170" lon="-8.6341990">
        <ele>45.0</ele>
        <time>2019-07-11T13:26:15Z</time>
      </trkpt>
      <trkpt lat="39.2783350" lon="-8.6345560">
        <ele>44.8</ele>
        <time>2019-07-11T13:26:23Z</time>
      </trkpt>
      <trkpt lat="39.2778890" lon="-8.6349720">
        <ele>44.8</ele>
        <time>2019-07-11T13:26:31Z</time>
      </trkpt>
      <trkpt lat="39.2774800" lon="-8.6354480">
        <ele>44.8</ele>
        <time>2019-07-11T13:26:39Z</time>
      </trkpt>
      <trkpt lat="39.2771690" lon="-8.6358480">
        <ele>44.6</ele>
        <time>2019-07-11T13:26:46Z</time>
      </trkpt>
      <trkpt lat="39.2768550" lon="-8.6362340">
        <ele>44.4</ele>
        <time>2019-07-11T13:26:53Z</time>
      </trkpt>
      <trkpt lat="39.2766750" lon="-8.6364670">
        <ele>44.6</ele>
        <time>2019-07-11T13:26:57Z</time>
      </trkpt>
      <trkpt lat="39.2764460" lon="-8.6367430">
        <ele>44.6</ele>
        <time>2019-07-11T13:27:02Z</time>
      </trkpt>
      <trkpt lat="39.2760800" lon="-8.6372050">
        <ele>44.6</ele>
        <time>2019-07-11T13:27:10Z</time>
      </trkpt>
      <trkpt lat="39.2759250" lon="-8.6373560">
        <ele>44.2</ele>
        <time>2019-07-11T13:27:13Z</time>
      </trkpt>
      <trkpt lat="39.2758050" lon="-8.6374200">
        <ele>44.0</ele>
        <time>2019-07-11T13:27:15Z</time>
      </trkpt>
      <trkpt lat="39.2756760" lon="-8.6374530">
        <ele>44.0</ele>
        <time>2019-07-11T13:27:17Z</time>
      </trkpt>
      <trkpt lat="39.2755430" lon="-8.6374740">
        <ele>44.0</ele>
        <time>2019-07-11T13:27:19Z</time>
      </trkpt>
      <trkpt lat="39.2754760" lon="-8.6374810">
        <ele>44.0</ele>
        <time>2019-07-11T13:27:20Z</time>
      </trkpt>
      <trkpt lat="39.2750160" lon="-8.6374530">
        <ele>44.2</ele>
        <time>2019-07-11T13:27:27Z</time>
      </trkpt>
      <trkpt lat="39.2745300" lon="-8.6372930">
        <ele>44.6</ele>
        <time>2019-07-11T13:27:35Z</time>
      </trkpt>
      <trkpt lat="39.2741580" lon="-8.6372020">
        <ele>44.4</ele>
        <time>2019-07-11T13:27:41Z</time>
      </trkpt>
      <trkpt lat="39.2737840" lon="-8.6372380">
        <ele>44.6</ele>
        <time>2019-07-11T13:27:47Z</time>
      </trkpt>
      <trkpt lat="39.2734170" lon="-8.6373000">
        <ele>44.6</ele>
        <time>2019-07-11T13:27:53Z</time>
      </trkpt>
      <trkpt lat="39.2732900" lon="-8.6373170">
        <ele>44.8</ele>
        <time>2019-07-11T13:27:55Z</time>
      </trkpt>
      <trkpt lat="39.2728970" lon="-8.6373630">
        <ele>44.6</ele>
        <time>2019-07-11T13:28:01Z</time>
      </trkpt>
      <trkpt lat="39.2723700" lon="-8.6374180">
        <ele>44.8</ele>
        <time>2019-07-11T13:28:09Z</time>
      </trkpt>
      <trkpt lat="39.2718480" lon="-8.6375180">
        <ele>44.6</ele>
        <time>2019-07-11T13:28:17Z</time>
      </trkpt>
      <trkpt lat="39.2717850" lon="-8.6375390">
        <ele>44.6</ele>
        <time>2019-07-11T13:28:18Z</time>
      </trkpt>
      <trkpt lat="39.2715370" lon="-8.6376420">
        <ele>44.8</ele>
        <time>2019-07-11T13:28:22Z</time>
      </trkpt>
      <trkpt lat="39.2713550" lon="-8.6377320">
        <ele>44.8</ele>
        <time>2019-07-11T13:28:25Z</time>
      </trkpt>
      <trkpt lat="39.2708710" lon="-8.6379750">
        <ele>44.8</ele>
        <time>2019-07-11T13:28:33Z</time>
      </trkpt>
      <trkpt lat="39.2703540" lon="-8.6381610">
        <ele>44.2</ele>
        <time>2019-07-11T13:28:41Z</time>
      </trkpt>
      <trkpt lat="39.2699760" lon="-8.6382720">
        <ele>44.2</ele>
        <time>2019-07-11T13:28:47Z</time>
      </trkpt>
      <trkpt lat="39.2693930" lon="-8.6384470">
        <ele>44.0</ele>
        <time>2019-07-11T13:28:56Z</time>
      </trkpt>
      <trkpt lat="39.2688600" lon="-8.6386130">
        <ele>44.0</ele>
        <time>2019-07-11T13:29:04Z</time>
      </trkpt>
      <trkpt lat="39.2687890" lon="-8.6386150">
        <ele>43.8</ele>
        <time>2019-07-11T13:29:05Z</time>
      </trkpt>
      <trkpt lat="39.2685840" lon="-8.6385470">
        <ele>44.0</ele>
        <time>2019-07-11T13:29:08Z</time>
      </trkpt>
      <trkpt lat="39.2685200" lon="-8.6385180">
        <ele>44.2</ele>
        <time>2019-07-11T13:29:09Z</time>
      </trkpt>
      <trkpt lat="39.2683890" lon="-8.6384640">
        <ele>44.0</ele>
        <time>2019-07-11T13:29:11Z</time>
      </trkpt>
      <trkpt lat="39.2681830" lon="-8.6384250">
        <ele>44.2</ele>
        <time>2019-07-11T13:29:14Z</time>
      </trkpt>
      <trkpt lat="39.2679190" lon="-8.6384920">
        <ele>44.2</ele>
        <time>2019-07-11T13:29:18Z</time>
      </trkpt>
      <trkpt lat="39.2673980" lon="-8.6386980">
        <ele>44.0</ele>
        <time>2019-07-11T13:29:26Z</time>
      </trkpt>
      <trkpt lat="39.2672700" lon="-8.6387480">
        <ele>44.0</ele>
        <time>2019-07-11T13:29:28Z</time>
      </trkpt>
      <trkpt lat="39.2669470" lon="-8.6388160">
        <ele>44.0</ele>
        <time>2019-07-11T13:29:33Z</time>
      </trkpt>
      <trkpt lat="39.2664410" lon="-8.6389740">
        <ele>44.4</ele>
        <time>2019-07-11T13:29:41Z</time>
      </trkpt>
      <trkpt lat="39.2662480" lon="-8.6390320">
        <ele>44.8</ele>
        <time>2019-07-11T13:29:44Z</time>
      </trkpt>
      <trkpt lat="39.2661160" lon="-8.6390070">
        <ele>44.4</ele>
        <time>2019-07-11T13:29:46Z</time>
      </trkpt>
      <trkpt lat="39.2660000" lon="-8.6389280">
        <ele>44.4</ele>
        <time>2019-07-11T13:29:48Z</time>
      </trkpt>
      <trkpt lat="39.2658950" lon="-8.6388340">
        <ele>44.4</ele>
        <time>2019-07-11T13:29:50Z</time>
      </trkpt>
      <trkpt lat="39.2654440" lon="-8.6383960">
        <ele>44.8</ele>
        <time>2019-07-11T13:29:59Z</time>
      </trkpt>
      <trkpt lat="39.2653940" lon="-8.6383490">
        <ele>44.8</ele>
        <time>2019-07-11T13:30:00Z</time>
      </trkpt>
      <trkpt lat="39.2652950" lon="-8.6382590">
        <ele>44.6</ele>
        <time>2019-07-11T13:30:02Z</time>
      </trkpt>
      <trkpt lat="39.2651810" lon="-8.6382140">
        <ele>44.6</ele>
        <time>2019-07-11T13:30:04Z</time>
      </trkpt>
      <trkpt lat="39.2649350" lon="-8.6382720">
        <ele>44.6</ele>
        <time>2019-07-11T13:30:08Z</time>
      </trkpt>
      <trkpt lat="39.2645280" lon="-8.6385050">
        <ele>44.4</ele>
        <time>2019-07-11T13:30:15Z</time>
      </trkpt>
      <trkpt lat="39.2644770" lon="-8.6385540">
        <ele>44.4</ele>
        <time>2019-07-11T13:30:16Z</time>
      </trkpt>
      <trkpt lat="39.2643060" lon="-8.6387940">
        <ele>44.2</ele>
        <time>2019-07-11T13:30:20Z</time>
      </trkpt>
      <trkpt lat="39.2639800" lon="-8.6393190">
        <ele>44.6</ele>
        <time>2019-07-11T13:30:28Z</time>
      </trkpt>
      <trkpt lat="39.2637960" lon="-8.6394080">
        <ele>44.4</ele>
        <time>2019-07-11T13:30:31Z</time>
      </trkpt>
      <trkpt lat="39.2635210" lon="-8.6393840">
        <ele>44.2</ele>
        <time>2019-07-11T13:30:35Z</time>
      </trkpt>
      <trkpt lat="39.2634520" lon="-8.6393720">
        <ele>44.0</ele>
        <time>2019-07-11T13:30:36Z</time>
      </trkpt>
      <trkpt lat="39.2628960" lon="-8.6393400">
        <ele>43.8</ele>
        <time>2019-07-11T13:30:44Z</time>
      </trkpt>
      <trkpt lat="39.2625620" lon="-8.6394150">
        <ele>43.8</ele>
        <time>2019-07-11T13:30:49Z</time>
      </trkpt>
      <trkpt lat="39.2624330" lon="-8.6394650">
        <ele>43.8</ele>
        <time>2019-07-11T13:30:51Z</time>
      </trkpt>
      <trkpt lat="39.2619360" lon="-8.6397330">
        <ele>44.4</ele>
        <time>2019-07-11T13:30:59Z</time>
      </trkpt>
      <trkpt lat="39.2615250" lon="-8.6400070">
        <ele>44.4</ele>
        <time>2019-07-11T13:31:06Z</time>
      </trkpt>
      <trkpt lat="39.2612830" lon="-8.6401560">
        <ele>44.4</ele>
        <time>2019-07-11T13:31:10Z</time>
      </trkpt>
      <trkpt lat="39.2612240" lon="-8.6401950">
        <ele>44.4</ele>
        <time>2019-07-11T13:31:11Z</time>
      </trkpt>
      <trkpt lat="39.2606940" lon="-8.6405600">
        <ele>44.4</ele>
        <time>2019-07-11T13:31:20Z</time>
      </trkpt>
      <trkpt lat="39.2602140" lon="-8.6409160">
        <ele>43.8</ele>
        <time>2019-07-11T13:31:28Z</time>
      </trkpt>
      <trkpt lat="39.2601560" lon="-8.6409660">
        <ele>43.8</ele>
        <time>2019-07-11T13:31:29Z</time>
      </trkpt>
      <trkpt lat="39.2601000" lon="-8.6410180">
        <ele>43.8</ele>
        <time>2019-07-11T13:31:30Z</time>
      </trkpt>
      <trkpt lat="39.2596550" lon="-8.6414360">
        <ele>44.2</ele>
        <time>2019-07-11T13:31:38Z</time>
      </trkpt>
      <trkpt lat="39.2595460" lon="-8.6415430">
        <ele>44.4</ele>
        <time>2019-07-11T13:31:40Z</time>
      </trkpt>
      <trkpt lat="39.2591070" lon="-8.6419360">
        <ele>44.6</ele>
        <time>2019-07-11T13:31:48Z</time>
      </trkpt>
      <trkpt lat="39.2587240" lon="-8.6422770">
        <ele>44.6</ele>
        <time>2019-07-11T13:31:55Z</time>
      </trkpt>
      <trkpt lat="39.2582900" lon="-8.6427050">
        <ele>44.6</ele>
        <time>2019-07-11T13:32:03Z</time>
      </trkpt>
      <trkpt lat="39.2582370" lon="-8.6427600">
        <ele>44.6</ele>
        <time>2019-07-11T13:32:04Z</time>
      </trkpt>
      <trkpt lat="39.2580780" lon="-8.6429310">
        <ele>44.8</ele>
        <time>2019-07-11T13:32:07Z</time>
      </trkpt>
      <trkpt lat="39.2577620" lon="-8.6432690">
        <ele>45.0</ele>
        <time>2019-07-11T13:32:13Z</time>
      </trkpt>
      <trkpt lat="39.2573840" lon="-8.6436780">
        <ele>45.0</ele>
        <time>2019-07-11T13:32:20Z</time>
      </trkpt>
      <trkpt lat="39.2569530" lon="-8.6441340">
        <ele>45.4</ele>
        <time>2019-07-11T13:32:28Z</time>
      </trkpt>
      <trkpt lat="39.2569000" lon="-8.6441900">
        <ele>45.0</ele>
        <time>2019-07-11T13:32:29Z</time>
      </trkpt>
      <trkpt lat="39.2564670" lon="-8.6446320">
        <ele>45.0</ele>
        <time>2019-07-11T13:32:37Z</time>
      </trkpt>
      <trkpt lat="39.2564130" lon="-8.6446860">
        <ele>45.0</ele>
        <time>2019-07-11T13:32:38Z</time>
      </trkpt>
      <trkpt lat="39.2561570" lon="-8.6449850">
        <ele>44.8</ele>
        <time>2019-07-11T13:32:43Z</time>
      </trkpt>
      <trkpt lat="39.2561140" lon="-8.6450560">
        <ele>44.8</ele>
        <time>2019-07-11T13:32:44Z</time>
      </trkpt>
      <trkpt lat="39.2559080" lon="-8.6455200">
        <ele>44.4</ele>
        <time>2019-07-11T13:32:50Z</time>
      </trkpt>
      <trkpt lat="39.2557030" lon="-8.6458720">
        <ele>44.4</ele>
        <time>2019-07-11T13:32:55Z</time>
      </trkpt>
      <trkpt lat="39.2554580" lon="-8.6461560">
        <ele>44.0</ele>
        <time>2019-07-11T13:33:00Z</time>
      </trkpt>
      <trkpt lat="39.2554120" lon="-8.6462080">
        <ele>43.8</ele>
        <time>2019-07-11T13:33:01Z</time>
      </trkpt>
      <trkpt lat="39.2553670" lon="-8.6462570">
        <ele>43.8</ele>
        <time>2019-07-11T13:33:02Z</time>
      </trkpt>
      <trkpt lat="39.2550160" lon="-8.6466380">
        <ele>43.8</ele>
        <time>2019-07-11T13:33:10Z</time>
      </trkpt>
      <trkpt lat="39.2547800" lon="-8.6468880">
        <ele>43.6</ele>
        <time>2019-07-11T13:33:15Z</time>
      </trkpt>
      <trkpt lat="39.2546430" lon="-8.6470430">
        <ele>43.6</ele>
        <time>2019-07-11T13:33:18Z</time>
      </trkpt>
      <trkpt lat="39.2545500" lon="-8.6471440">
        <ele>43.8</ele>
        <time>2019-07-11T13:33:20Z</time>
      </trkpt>
      <trkpt lat="39.2541350" lon="-8.6475930">
        <ele>43.6</ele>
        <time>2019-07-11T13:33:29Z</time>
      </trkpt>
      <trkpt lat="39.2540900" lon="-8.6476400">
        <ele>43.4</ele>
        <time>2019-07-11T13:33:30Z</time>
      </trkpt>
      <trkpt lat="39.2537770" lon="-8.6479890">
        <ele>43.8</ele>
        <time>2019-07-11T13:33:37Z</time>
      </trkpt>
      <trkpt lat="39.2533600" lon="-8.6484500">
        <ele>43.6</ele>
        <time>2019-07-11T13:33:46Z</time>
      </trkpt>
      <trkpt lat="39.2529930" lon="-8.6488560">
        <ele>43.6</ele>
        <time>2019-07-11T13:33:54Z</time>
      </trkpt>
      <trkpt lat="39.2526450" lon="-8.6492460">
        <ele>43.8</ele>
        <time>2019-07-11T13:34:02Z</time>
      </trkpt>
      <trkpt lat="39.2522870" lon="-8.6496280">
        <ele>44.0</ele>
        <time>2019-07-11T13:34:10Z</time>
      </trkpt>
      <trkpt lat="39.2518910" lon="-8.6500790">
        <ele>44.0</ele>
        <time>2019-07-11T13:34:19Z</time>
      </trkpt>
      <trkpt lat="39.2515310" lon="-8.6504730">
        <ele>44.0</ele>
        <time>2019-07-11T13:34:27Z</time>
      </trkpt>
      <trkpt lat="39.2512160" lon="-8.6508200">
        <ele>43.8</ele>
        <time>2019-07-11T13:34:34Z</time>
      </trkpt>
      <trkpt lat="39.2510780" lon="-8.6509670">
        <ele>43.4</ele>
        <time>2019-07-11T13:34:37Z</time>
      </trkpt>
      <trkpt lat="39.2509460" lon="-8.6511360">
        <ele>43.4</ele>
        <time>2019-07-11T13:34:40Z</time>
      </trkpt>
      <trkpt lat="39.2508820" lon="-8.6512720">
        <ele>43.6</ele>
        <time>2019-07-11T13:34:42Z</time>
      </trkpt>
      <trkpt lat="39.2506980" lon="-8.6517850">
        <ele>43.8</ele>
        <time>2019-07-11T13:34:49Z</time>
      </trkpt>
      <trkpt lat="39.2506740" lon="-8.6518600">
        <ele>43.8</ele>
        <time>2019-07-11T13:34:50Z</time>
      </trkpt>
      <trkpt lat="39.2505150" lon="-8.6523010">
        <ele>43.6</ele>
        <time>2019-07-11T13:34:56Z</time>
      </trkpt>
      <trkpt lat="39.2504410" lon="-8.6525240">
        <ele>43.8</ele>
        <time>2019-07-11T13:34:59Z</time>
      </trkpt>
      <trkpt lat="39.2502050" lon="-8.6531890">
        <ele>43.8</ele>
        <time>2019-07-11T13:35:08Z</time>
      </trkpt>
      <trkpt lat="39.2501780" lon="-8.6532630">
        <ele>43.8</ele>
        <time>2019-07-11T13:35:09Z</time>
      </trkpt>
      <trkpt lat="39.2499340" lon="-8.6539420">
        <ele>43.6</ele>
        <time>2019-07-11T13:35:18Z</time>
      </trkpt>
      <trkpt lat="39.2499080" lon="-8.6540200">
        <ele>43.6</ele>
        <time>2019-07-11T13:35:19Z</time>
      </trkpt>
      <trkpt lat="39.2496630" lon="-8.6547080">
        <ele>43.6</ele>
        <time>2019-07-11T13:35:28Z</time>
      </trkpt>
      <trkpt lat="39.2496080" lon="-8.6548610">
        <ele>43.8</ele>
        <time>2019-07-11T13:35:30Z</time>
      </trkpt>
      <trkpt lat="39.2494150" lon="-8.6554730">
        <ele>43.6</ele>
        <time>2019-07-11T13:35:38Z</time>
      </trkpt>
      <trkpt lat="39.2491930" lon="-8.6561410">
        <ele>43.6</ele>
        <time>2019-07-11T13:35:47Z</time>
      </trkpt>
      <trkpt lat="39.2490460" lon="-8.6566690">
        <ele>43.8</ele>
        <time>2019-07-11T13:35:54Z</time>
      </trkpt>
      <trkpt lat="39.2490170" lon="-8.6568200">
        <ele>43.8</ele>
        <time>2019-07-11T13:35:56Z</time>
      </trkpt>
      <trkpt lat="39.2488810" lon="-8.6573600">
        <ele>43.8</ele>
        <time>2019-07-11T13:36:03Z</time>
      </trkpt>
      <trkpt lat="39.2487690" lon="-8.6576640">
        <ele>43.4</ele>
        <time>2019-07-11T13:36:07Z</time>
      </trkpt>
      <trkpt lat="39.2487000" lon="-8.6578080">
        <ele>43.6</ele>
        <time>2019-07-11T13:36:09Z</time>
      </trkpt>
      <trkpt lat="39.2485470" lon="-8.6580710">
        <ele>43.6</ele>
        <time>2019-07-11T13:36:13Z</time>
      </trkpt>
      <trkpt lat="39.2484390" lon="-8.6582680">
        <ele>43.4</ele>
        <time>2019-07-11T13:36:16Z</time>
      </trkpt>
      <trkpt lat="39.2481580" lon="-8.6587890">
        <ele>43.6</ele>
        <time>2019-07-11T13:36:24Z</time>
      </trkpt>
      <trkpt lat="39.2479360" lon="-8.6592510">
        <ele>43.6</ele>
        <time>2019-07-11T13:36:31Z</time>
      </trkpt>
      <trkpt lat="39.2477110" lon="-8.6597060">
        <ele>43.4</ele>
        <time>2019-07-11T13:36:38Z</time>
      </trkpt>
      <trkpt lat="39.2475830" lon="-8.6599670">
        <ele>43.6</ele>
        <time>2019-07-11T13:36:42Z</time>
      </trkpt>
      <trkpt lat="39.2473120" lon="-8.6604840">
        <ele>44.0</ele>
        <time>2019-07-11T13:36:50Z</time>
      </trkpt>
      <trkpt lat="39.2472440" lon="-8.6606140">
        <ele>44.0</ele>
        <time>2019-07-11T13:36:52Z</time>
      </trkpt>
      <trkpt lat="39.2469450" lon="-8.6612100">
        <ele>43.8</ele>
        <time>2019-07-11T13:37:01Z</time>
      </trkpt>
      <trkpt lat="39.2467110" lon="-8.6616710">
        <ele>44.0</ele>
        <time>2019-07-11T13:37:08Z</time>
      </trkpt>
      <trkpt lat="39.2464110" lon="-8.6622870">
        <ele>44.0</ele>
        <time>2019-07-11T13:37:17Z</time>
      </trkpt>
      <trkpt lat="39.2461320" lon="-8.6629220">
        <ele>44.0</ele>
        <time>2019-07-11T13:37:26Z</time>
      </trkpt>
      <trkpt lat="39.2458570" lon="-8.6635820">
        <ele>44.0</ele>
        <time>2019-07-11T13:37:35Z</time>
      </trkpt>
      <trkpt lat="39.2458240" lon="-8.6636560">
        <ele>44.0</ele>
        <time>2019-07-11T13:37:36Z</time>
      </trkpt>
      <trkpt lat="39.2455860" lon="-8.6642660">
        <ele>43.6</ele>
        <time>2019-07-11T13:37:44Z</time>
      </trkpt>
      <trkpt lat="39.2453510" lon="-8.6648800">
        <ele>43.2</ele>
        <time>2019-07-11T13:37:52Z</time>
      </trkpt>
      <trkpt lat="39.2453210" lon="-8.6649550">
        <ele>43.0</ele>
        <time>2019-07-11T13:37:53Z</time>
      </trkpt>
      <trkpt lat="39.2450680" lon="-8.6656090">
        <ele>43.4</ele>
        <time>2019-07-11T13:38:02Z</time>
      </trkpt>
      <trkpt lat="39.2448350" lon="-8.6661740">
        <ele>43.2</ele>
        <time>2019-07-11T13:38:10Z</time>
      </trkpt>
      <trkpt lat="39.2445130" lon="-8.6667590">
        <ele>43.2</ele>
        <time>2019-07-11T13:38:19Z</time>
      </trkpt>
      <trkpt lat="39.2441400" lon="-8.6673040">
        <ele>43.2</ele>
        <time>2019-07-11T13:38:28Z</time>
      </trkpt>
      <trkpt lat="39.2440970" lon="-8.6673640">
        <ele>43.2</ele>
        <time>2019-07-11T13:38:29Z</time>
      </trkpt>
      <trkpt lat="39.2437690" lon="-8.6678490">
        <ele>43.2</ele>
        <time>2019-07-11T13:38:37Z</time>
      </trkpt>
      <trkpt lat="39.2434410" lon="-8.6683220">
        <ele>43.2</ele>
        <time>2019-07-11T13:38:45Z</time>
      </trkpt>
      <trkpt lat="39.2431100" lon="-8.6688000">
        <ele>43.2</ele>
        <time>2019-07-11T13:38:53Z</time>
      </trkpt>
      <trkpt lat="39.2427480" lon="-8.6693370">
        <ele>43.4</ele>
        <time>2019-07-11T13:39:02Z</time>
      </trkpt>
      <trkpt lat="39.2423870" lon="-8.6698660">
        <ele>43.4</ele>
        <time>2019-07-11T13:39:11Z</time>
      </trkpt>
      <trkpt lat="39.2423490" lon="-8.6699270">
        <ele>43.4</ele>
        <time>2019-07-11T13:39:12Z</time>
      </trkpt>
      <trkpt lat="39.2419960" lon="-8.6704740">
        <ele>43.0</ele>
        <time>2019-07-11T13:39:21Z</time>
      </trkpt>
      <trkpt lat="39.2419560" lon="-8.6705350">
        <ele>43.0</ele>
        <time>2019-07-11T13:39:22Z</time>
      </trkpt>
      <trkpt lat="39.2417570" lon="-8.6708340">
        <ele>42.8</ele>
        <time>2019-07-11T13:39:27Z</time>
      </trkpt>
      <trkpt lat="39.2415220" lon="-8.6711850">
        <ele>43.0</ele>
        <time>2019-07-11T13:39:33Z</time>
      </trkpt>
      <trkpt lat="39.2412080" lon="-8.6716510">
        <ele>42.8</ele>
        <time>2019-07-11T13:39:41Z</time>
      </trkpt>
      <trkpt lat="39.2409910" lon="-8.6719830">
        <ele>42.6</ele>
        <time>2019-07-11T13:39:47Z</time>
      </trkpt>
      <trkpt lat="39.2408350" lon="-8.6722060">
        <ele>42.6</ele>
        <time>2019-07-11T13:39:51Z</time>
      </trkpt>
      <trkpt lat="39.2407720" lon="-8.6723270">
        <ele>42.6</ele>
        <time>2019-07-11T13:39:53Z</time>
      </trkpt>
      <trkpt lat="39.2407490" lon="-8.6723870">
        <ele>42.6</ele>
        <time>2019-07-11T13:39:54Z</time>
      </trkpt>
      <trkpt lat="39.2406930" lon="-8.6725560">
        <ele>42.6</ele>
        <time>2019-07-11T13:39:57Z</time>
      </trkpt>
      <trkpt lat="39.2406640" lon="-8.6726040">
        <ele>42.6</ele>
        <time>2019-07-11T13:39:58Z</time>
      </trkpt>
      <trkpt lat="39.2405090" lon="-8.6727750">
        <ele>42.8</ele>
        <time>2019-07-11T13:40:02Z</time>
      </trkpt>
      <trkpt lat="39.2404280" lon="-8.6728690">
        <ele>42.8</ele>
        <time>2019-07-11T13:40:04Z</time>
      </trkpt>
      <trkpt lat="39.2402510" lon="-8.6731120">
        <ele>42.8</ele>
        <time>2019-07-11T13:40:09Z</time>
      </trkpt>
      <trkpt lat="39.2401260" lon="-8.6733170">
        <ele>42.8</ele>
        <time>2019-07-11T13:40:13Z</time>
      </trkpt>
      <trkpt lat="39.2401020" lon="-8.6733760">
        <ele>42.8</ele>
        <time>2019-07-11T13:40:14Z</time>
      </trkpt>
      <trkpt lat="39.2400050" lon="-8.6736860">
        <ele>42.8</ele>
        <time>2019-07-11T13:40:19Z</time>
      </trkpt>
      <trkpt lat="39.2399940" lon="-8.6737460">
        <ele>42.8</ele>
        <time>2019-07-11T13:40:20Z</time>
      </trkpt>
      <trkpt lat="39.2399570" lon="-8.6739620">
        <ele>43.0</ele>
        <time>2019-07-11T13:40:24Z</time>
      </trkpt>
      <trkpt lat="39.2399080" lon="-8.6741610">
        <ele>43.4</ele>
        <time>2019-07-11T13:40:28Z</time>
      </trkpt>
      <trkpt lat="39.2398870" lon="-8.6741930">
        <ele>43.4</ele>
        <time>2019-07-11T13:40:29Z</time>
      </trkpt>
      <trkpt lat="39.2398600" lon="-8.6742120">
        <ele>43.2</ele>
        <time>2019-07-11T13:40:30Z</time>
      </trkpt>
      <trkpt lat="39.2397960" lon="-8.6742060">
        <ele>43.0</ele>
        <time>2019-07-11T13:40:32Z</time>
      </trkpt>
      <trkpt lat="39.2395160" lon="-8.6740920">
        <ele>42.8</ele>
        <time>2019-07-11T13:40:39Z</time>
      </trkpt>
      <trkpt lat="39.2394760" lon="-8.6740650">
        <ele>42.8</ele>
        <time>2019-07-11T13:40:40Z</time>
      </trkpt>
      <trkpt lat="39.2393190" lon="-8.6739290">
        <ele>43.2</ele>
        <time>2019-07-11T13:40:44Z</time>
      </trkpt>
      <trkpt lat="39.2392380" lon="-8.6738580">
        <ele>43.2</ele>
        <time>2019-07-11T13:40:46Z</time>
      </trkpt>
      <trkpt lat="39.2390510" lon="-8.6736620">
        <ele>43.4</ele>
        <time>2019-07-11T13:40:51Z</time>
      </trkpt>
      <trkpt lat="39.2389080" lon="-8.6735180">
        <ele>43.4</ele>
        <time>2019-07-11T13:40:55Z</time>
      </trkpt>
      <trkpt lat="39.2388260" lon="-8.6734830">
        <ele>43.4</ele>
        <time>2019-07-11T13:40:57Z</time>
      </trkpt>
      <trkpt lat="39.2387350" lon="-8.6734660">
        <ele>43.4</ele>
        <time>2019-07-11T13:40:59Z</time>
      </trkpt>
      <trkpt lat="39.2385560" lon="-8.6733860">
        <ele>43.2</ele>
        <time>2019-07-11T13:41:03Z</time>
      </trkpt>
      <trkpt lat="39.2382690" lon="-8.6732440">
        <ele>43.8</ele>
        <time>2019-07-11T13:41:10Z</time>
      </trkpt>
      <trkpt lat="39.2381530" lon="-8.6732430">
        <ele>44.6</ele>
        <time>2019-07-11T13:41:13Z</time>
      </trkpt>
      <trkpt lat="39.2381180" lon="-8.6732720">
        <ele>44.6</ele>
        <time>2019-07-11T13:41:14Z</time>
      </trkpt>
      <trkpt lat="39.2380490" lon="-8.6734150">
        <ele>44.8</ele>
        <time>2019-07-11T13:41:17Z</time>
      </trkpt>
      <trkpt lat="39.2380380" lon="-8.6734680">
        <ele>44.6</ele>
        <time>2019-07-11T13:41:18Z</time>
      </trkpt>
      <trkpt lat="39.2380230" lon="-8.6735190">
        <ele>44.6</ele>
        <time>2019-07-11T13:41:19Z</time>
      </trkpt>
      <trkpt lat="39.2379950" lon="-8.6736760">
        <ele>44.6</ele>
        <time>2019-07-11T13:41:22Z</time>
      </trkpt>
      <trkpt lat="39.2379380" lon="-8.6738210">
        <ele>44.6</ele>
        <time>2019-07-11T13:41:25Z</time>
      </trkpt>
      <trkpt lat="39.2379160" lon="-8.6738620">
        <ele>44.8</ele>
        <time>2019-07-11T13:41:26Z</time>
      </trkpt>
      <trkpt lat="39.2378660" lon="-8.6739380">
        <ele>44.8</ele>
        <time>2019-07-11T13:41:28Z</time>
      </trkpt>
      <trkpt lat="39.2378060" lon="-8.6740600">
        <ele>45.4</ele>
        <time>2019-07-11T13:41:31Z</time>
      </trkpt>
      <trkpt lat="39.2377190" lon="-8.6742550">
        <ele>46.0</ele>
        <time>2019-07-11T13:41:37Z</time>
      </trkpt>
      <trkpt lat="39.2376740" lon="-8.6743690">
        <ele>47.2</ele>
        <time>2019-07-11T13:41:41Z</time>
      </trkpt>
      <trkpt lat="39.2376520" lon="-8.6744060">
        <ele>47.2</ele>
        <time>2019-07-11T13:41:42Z</time>
      </trkpt>
      <trkpt lat="39.2375450" lon="-8.6746620">
        <ele>46.2</ele>
        <time>2019-07-11T13:41:48Z</time>
      </trkpt>
      <trkpt lat="39.2374780" lon="-8.6748490">
        <ele>46.6</ele>
        <time>2019-07-11T13:41:53Z</time>
      </trkpt>
      <trkpt lat="39.2374910" lon="-8.6748780">
        <ele>46.6</ele>
        <time>2019-07-11T13:41:54Z</time>
      </trkpt>
      <trkpt lat="39.2375560" lon="-8.6749330">
        <ele>47.8</ele>
        <time>2019-07-11T13:41:57Z</time>
      </trkpt>
      <trkpt lat="39.2376060" lon="-8.6749640">
        <ele>48.2</ele>
        <time>2019-07-11T13:41:59Z</time>
      </trkpt>
      <trkpt lat="39.2376250" lon="-8.6749890">
        <ele>48.2</ele>
        <time>2019-07-11T13:42:00Z</time>
      </trkpt>
      <trkpt lat="39.2376450" lon="-8.6750820">
        <ele>48.6</ele>
        <time>2019-07-11T13:42:03Z</time>
      </trkpt>
      <trkpt lat="39.2376360" lon="-8.6751490">
        <ele>48.8</ele>
        <time>2019-07-11T13:42:05Z</time>
      </trkpt>
      <trkpt lat="39.2376220" lon="-8.6752560">
        <ele>49.2</ele>
        <time>2019-07-11T13:42:08Z</time>
      </trkpt>
      <trkpt lat="39.2376170" lon="-8.6752940">
        <ele>49.2</ele>
        <time>2019-07-11T13:42:09Z</time>
      </trkpt>
      <trkpt lat="39.2376130" lon="-8.6754460">
        <ele>49.4</ele>
        <time>2019-07-11T13:42:13Z</time>
      </trkpt>
      <trkpt lat="39.2376110" lon="-8.6755200">
        <ele>49.8</ele>
        <time>2019-07-11T13:42:15Z</time>
      </trkpt>
      <trkpt lat="39.2376180" lon="-8.6756210">
        <ele>50.4</ele>
        <time>2019-07-11T13:42:18Z</time>
      </trkpt>
      <trkpt lat="39.2376140" lon="-8.6757320">
        <ele>50.6</ele>
        <time>2019-07-11T13:42:21Z</time>
      </trkpt>
      <trkpt lat="39.2375370" lon="-8.6759180">
        <ele>51.0</ele>
        <time>2019-07-11T13:42:27Z</time>
      </trkpt>
      <trkpt lat="39.2374080" lon="-8.6759700">
        <ele>51.4</ele>
        <time>2019-07-11T13:42:32Z</time>
      </trkpt>
      <trkpt lat="39.2373800" lon="-8.6759700">
        <ele>51.4</ele>
        <time>2019-07-11T13:42:33Z</time>
      </trkpt>
      <trkpt lat="39.2372520" lon="-8.6759610">
        <ele>52.4</ele>
        <time>2019-07-11T13:42:38Z</time>
      </trkpt>
      <trkpt lat="39.2372080" lon="-8.6759470">
        <ele>52.6</ele>
        <time>2019-07-11T13:42:40Z</time>
      </trkpt>
      <trkpt lat="39.2370840" lon="-8.6758490">
        <ele>53.6</ele>
        <time>2019-07-11T13:42:46Z</time>
      </trkpt>
      <trkpt lat="39.2370090" lon="-8.6756530">
        <ele>54.4</ele>
        <time>2019-07-11T13:42:52Z</time>
      </trkpt>
      <trkpt lat="39.2369930" lon="-8.6755460">
        <ele>54.8</ele>
        <time>2019-07-11T13:42:55Z</time>
      </trkpt>
      <trkpt lat="39.2369930" lon="-8.6754730">
        <ele>55.0</ele>
        <time>2019-07-11T13:42:57Z</time>
      </trkpt>
      <trkpt lat="39.2369840" lon="-8.6752510">
        <ele>55.2</ele>
        <time>2019-07-11T13:43:03Z</time>
      </trkpt>
      <trkpt lat="39.2369430" lon="-8.6750050">
        <ele>56.2</ele>
        <time>2019-07-11T13:43:10Z</time>
      </trkpt>
      <trkpt lat="39.2368630" lon="-8.6748760">
        <ele>57.2</ele>
        <time>2019-07-11T13:43:15Z</time>
      </trkpt>
      <trkpt lat="39.2368500" lon="-8.6748550">
        <ele>57.6</ele>
        <time>2019-07-11T13:43:16Z</time>
      </trkpt>
      <trkpt lat="39.2367940" lon="-8.6748060">
        <ele>58.4</ele>
        <time>2019-07-11T13:43:19Z</time>
      </trkpt>
      <trkpt lat="39.2367490" lon="-8.6747890">
        <ele>59.0</ele>
        <time>2019-07-11T13:43:21Z</time>
      </trkpt>
      <trkpt lat="39.2366040" lon="-8.6747950">
        <ele>59.6</ele>
        <time>2019-07-11T13:43:27Z</time>
      </trkpt>
      <trkpt lat="39.2365780" lon="-8.6747980">
        <ele>60.0</ele>
        <time>2019-07-11T13:43:28Z</time>
      </trkpt>
      <trkpt lat="39.2365000" lon="-8.6748010">
        <ele>61.0</ele>
        <time>2019-07-11T13:43:31Z</time>
      </trkpt>
      <trkpt lat="39.2363480" lon="-8.6747830">
        <ele>61.4</ele>
        <time>2019-07-11T13:43:37Z</time>
      </trkpt>
      <trkpt lat="39.2361660" lon="-8.6747450">
        <ele>61.8</ele>
        <time>2019-07-11T13:43:44Z</time>
      </trkpt>
      <trkpt lat="39.2360890" lon="-8.6747280">
        <ele>62.0</ele>
        <time>2019-07-11T13:43:47Z</time>
      </trkpt>
      <trkpt lat="39.2359860" lon="-8.6746950">
        <ele>62.8</ele>
        <time>2019-07-11T13:43:51Z</time>
      </trkpt>
      <trkpt lat="39.2359620" lon="-8.6746850">
        <ele>63.2</ele>
        <time>2019-07-11T13:43:52Z</time>
      </trkpt>
      <trkpt lat="39.2358310" lon="-8.6746080">
        <ele>63.8</ele>
        <time>2019-07-11T13:43:57Z</time>
      </trkpt>
      <trkpt lat="39.2357310" lon="-8.6745350">
        <ele>64.2</ele>
        <time>2019-07-11T13:44:01Z</time>
      </trkpt>
      <trkpt lat="39.2356560" lon="-8.6744730">
        <ele>64.6</ele>
        <time>2019-07-11T13:44:04Z</time>
      </trkpt>
      <trkpt lat="39.2355470" lon="-8.6744190">
        <ele>65.0</ele>
        <time>2019-07-11T13:44:08Z</time>
      </trkpt>
      <trkpt lat="39.2355200" lon="-8.6744330">
        <ele>65.0</ele>
        <time>2019-07-11T13:44:09Z</time>
      </trkpt>
      <trkpt lat="39.2355010" lon="-8.6745170">
        <ele>65.2</ele>
        <time>2019-07-11T13:44:12Z</time>
      </trkpt>
      <trkpt lat="39.2355140" lon="-8.6745400">
        <ele>65.4</ele>
        <time>2019-07-11T13:44:13Z</time>
      </trkpt>
      <trkpt lat="39.2355790" lon="-8.6745810">
        <ele>66.0</ele>
        <time>2019-07-11T13:44:16Z</time>
      </trkpt>
      <trkpt lat="39.2356210" lon="-8.6746190">
        <ele>66.4</ele>
        <time>2019-07-11T13:44:18Z</time>
      </trkpt>
      <trkpt lat="39.2356410" lon="-8.6746340">
        <ele>66.6</ele>
        <time>2019-07-11T13:44:19Z</time>
      </trkpt>
      <trkpt lat="39.2356790" lon="-8.6746400">
        <ele>66.8</ele>
        <time>2019-07-11T13:44:21Z</time>
      </trkpt>
      <trkpt lat="39.2356950" lon="-8.6746460">
        <ele>66.8</ele>
        <time>2019-07-11T13:44:22Z</time>
      </trkpt>
      <trkpt lat="39.2357030" lon="-8.6746960">
        <ele>67.2</ele>
        <time>2019-07-11T13:44:25Z</time>
      </trkpt>
      <trkpt lat="39.2356330" lon="-8.6746640">
        <ele>67.4</ele>
        <time>2019-07-11T13:44:29Z</time>
      </trkpt>
      <trkpt lat="39.2354970" lon="-8.6745680">
        <ele>67.0</ele>
        <time>2019-07-11T13:44:34Z</time>
      </trkpt>
      <trkpt lat="39.2354480" lon="-8.6745280">
        <ele>66.6</ele>
        <time>2019-07-11T13:44:37Z</time>
      </trkpt>
      <trkpt lat="39.2354390" lon="-8.6745200">
        <ele>66.4</ele>
        <time>2019-07-11T13:44:38Z</time>
      </trkpt>
      <trkpt lat="39.2354040" lon="-8.6745000">
        <ele>66.0</ele>
        <time>2019-07-11T13:44:43Z</time>
      </trkpt>
      <trkpt lat="39.2354380" lon="-8.6745320">
        <ele>65.8</ele>
        <time>2019-07-11T13:44:56Z</time>
      </trkpt>
      <trkpt lat="39.2354920" lon="-8.6745580">
        <ele>66.0</ele>
        <time>2019-07-11T13:45:00Z</time>
      </trkpt>
      <trkpt lat="39.2356190" lon="-8.6746280">
        <ele>66.4</ele>
        <time>2019-07-11T13:45:06Z</time>
      </trkpt>
      <trkpt lat="39.2356700" lon="-8.6746540">
        <ele>66.6</ele>
        <time>2019-07-11T13:45:08Z</time>
      </trkpt>
      <trkpt lat="39.2357670" lon="-8.6747230">
        <ele>67.0</ele>
        <time>2019-07-11T13:45:12Z</time>
      </trkpt>
      <trkpt lat="39.2358150" lon="-8.6747570">
        <ele>67.4</ele>
        <time>2019-07-11T13:45:14Z</time>
      </trkpt>
      <trkpt lat="39.2358380" lon="-8.6747740">
        <ele>67.6</ele>
        <time>2019-07-11T13:45:15Z</time>
      </trkpt>
      <trkpt lat="39.2359680" lon="-8.6748500">
        <ele>68.4</ele>
        <time>2019-07-11T13:45:20Z</time>
      </trkpt>
      <trkpt lat="39.2360240" lon="-8.6748730">
        <ele>68.6</ele>
        <time>2019-07-11T13:45:22Z</time>
      </trkpt>
      <trkpt lat="39.2361000" lon="-8.6749120">
        <ele>68.8</ele>
        <time>2019-07-11T13:45:25Z</time>
      </trkpt>
      <trkpt lat="39.2362160" lon="-8.6749880">
        <ele>69.8</ele>
        <time>2019-07-11T13:45:30Z</time>
      </trkpt>
      <trkpt lat="39.2363690" lon="-8.6750700">
        <ele>70.6</ele>
        <time>2019-07-11T13:45:36Z</time>
      </trkpt>
      <trkpt lat="39.2363910" lon="-8.6750890">
        <ele>70.8</ele>
        <time>2019-07-11T13:45:37Z</time>
      </trkpt>
      <trkpt lat="39.2365340" lon="-8.6751960">
        <ele>71.6</ele>
        <time>2019-07-11T13:45:43Z</time>
      </trkpt>
      <trkpt lat="39.2365550" lon="-8.6752190">
        <ele>71.8</ele>
        <time>2019-07-11T13:45:44Z</time>
      </trkpt>
      <trkpt lat="39.2366390" lon="-8.6754040">
        <ele>72.8</ele>
        <time>2019-07-11T13:45:50Z</time>
      </trkpt>
      <trkpt lat="39.2366470" lon="-8.6756150">
        <ele>74.0</ele>
        <time>2019-07-11T13:45:56Z</time>
      </trkpt>
      <trkpt lat="39.2366440" lon="-8.6756500">
        <ele>74.0</ele>
        <time>2019-07-11T13:45:57Z</time>
      </trkpt>
      <trkpt lat="39.2365920" lon="-8.6759450">
        <ele>75.2</ele>
        <time>2019-07-11T13:46:05Z</time>
      </trkpt>
      <trkpt lat="39.2365530" lon="-8.6762120">
        <ele>76.4</ele>
        <time>2019-07-11T13:46:12Z</time>
      </trkpt>
      <trkpt lat="39.2365410" lon="-8.6762460">
        <ele>76.6</ele>
        <time>2019-07-11T13:46:13Z</time>
      </trkpt>
      <trkpt lat="39.2364710" lon="-8.6764570">
        <ele>77.2</ele>
        <time>2019-07-11T13:46:19Z</time>
      </trkpt>
      <trkpt lat="39.2364510" lon="-8.6764830">
        <ele>77.4</ele>
        <time>2019-07-11T13:46:20Z</time>
      </trkpt>
      <trkpt lat="39.2363500" lon="-8.6765690">
        <ele>77.8</ele>
        <time>2019-07-11T13:46:24Z</time>
      </trkpt>
      <trkpt lat="39.2362660" lon="-8.6766590">
        <ele>78.4</ele>
        <time>2019-07-11T13:46:28Z</time>
      </trkpt>
      <trkpt lat="39.2362430" lon="-8.6766790">
        <ele>78.6</ele>
        <time>2019-07-11T13:46:29Z</time>
      </trkpt>
      <trkpt lat="39.2361140" lon="-8.6768390">
        <ele>79.8</ele>
        <time>2019-07-11T13:46:35Z</time>
      </trkpt>
      <trkpt lat="39.2360960" lon="-8.6768710">
        <ele>80.0</ele>
        <time>2019-07-11T13:46:36Z</time>
      </trkpt>
      <trkpt lat="39.2360710" lon="-8.6769400">
        <ele>80.4</ele>
        <time>2019-07-11T13:46:38Z</time>
      </trkpt>
      <trkpt lat="39.2360600" lon="-8.6770470">
        <ele>80.8</ele>
        <time>2019-07-11T13:46:41Z</time>
      </trkpt>
      <trkpt lat="39.2360640" lon="-8.6770830">
        <ele>81.0</ele>
        <time>2019-07-11T13:46:42Z</time>
      </trkpt>
      <trkpt lat="39.2361180" lon="-8.6772550">
        <ele>82.0</ele>
        <time>2019-07-11T13:46:47Z</time>
      </trkpt>
      <trkpt lat="39.2361340" lon="-8.6772850">
        <ele>82.0</ele>
        <time>2019-07-11T13:46:48Z</time>
      </trkpt>
      <trkpt lat="39.2362740" lon="-8.6774090">
        <ele>82.8</ele>
        <time>2019-07-11T13:46:54Z</time>
      </trkpt>
      <trkpt lat="39.2363040" lon="-8.6774250">
        <ele>83.0</ele>
        <time>2019-07-11T13:46:55Z</time>
      </trkpt>
      <trkpt lat="39.2364500" lon="-8.6775200">
        <ele>83.4</ele>
        <time>2019-07-11T13:47:00Z</time>
      </trkpt>
      <trkpt lat="39.2365810" lon="-8.6776270">
        <ele>84.0</ele>
        <time>2019-07-11T13:47:05Z</time>
      </trkpt>
      <trkpt lat="39.2366060" lon="-8.6776570">
        <ele>84.2</ele>
        <time>2019-07-11T13:47:06Z</time>
      </trkpt>
      <trkpt lat="39.2367660" lon="-8.6779300">
        <ele>85.0</ele>
        <time>2019-07-11T13:47:14Z</time>
      </trkpt>
      <trkpt lat="39.2367860" lon="-8.6780090">
        <ele>85.2</ele>
        <time>2019-07-11T13:47:16Z</time>
      </trkpt>
      <trkpt lat="39.2368370" lon="-8.6782040">
        <ele>85.8</ele>
        <time>2019-07-11T13:47:21Z</time>
      </trkpt>
      <trkpt lat="39.2368510" lon="-8.6783340">
        <ele>86.4</ele>
        <time>2019-07-11T13:47:24Z</time>
      </trkpt>
      <trkpt lat="39.2368720" lon="-8.6784590">
        <ele>86.8</ele>
        <time>2019-07-11T13:47:27Z</time>
      </trkpt>
      <trkpt lat="39.2368780" lon="-8.6785000">
        <ele>86.8</ele>
        <time>2019-07-11T13:47:28Z</time>
      </trkpt>
      <trkpt lat="39.2368970" lon="-8.6787010">
        <ele>87.2</ele>
        <time>2019-07-11T13:47:33Z</time>
      </trkpt>
      <trkpt lat="39.2369070" lon="-8.6787390">
        <ele>87.4</ele>
        <time>2019-07-11T13:47:34Z</time>
      </trkpt>
      <trkpt lat="39.2369330" lon="-8.6789670">
        <ele>88.4</ele>
        <time>2019-07-11T13:47:40Z</time>
      </trkpt>
      <trkpt lat="39.2369400" lon="-8.6790010">
        <ele>88.6</ele>
        <time>2019-07-11T13:47:41Z</time>
      </trkpt>
      <trkpt lat="39.2370090" lon="-8.6792450">
        <ele>89.6</ele>
        <time>2019-07-11T13:47:48Z</time>
      </trkpt>
      <trkpt lat="39.2370210" lon="-8.6792780">
        <ele>89.8</ele>
        <time>2019-07-11T13:47:49Z</time>
      </trkpt>
      <trkpt lat="39.2370720" lon="-8.6794140">
        <ele>90.4</ele>
        <time>2019-07-11T13:47:53Z</time>
      </trkpt>
      <trkpt lat="39.2370920" lon="-8.6794860">
        <ele>90.8</ele>
        <time>2019-07-11T13:47:55Z</time>
      </trkpt>
      <trkpt lat="39.2370970" lon="-8.6795240">
        <ele>91.0</ele>
        <time>2019-07-11T13:47:56Z</time>
      </trkpt>
      <trkpt lat="39.2371420" lon="-8.6797470">
        <ele>92.0</ele>
        <time>2019-07-11T13:48:02Z</time>
      </trkpt>
      <trkpt lat="39.2372140" lon="-8.6799680">
        <ele>93.2</ele>
        <time>2019-07-11T13:48:08Z</time>
      </trkpt>
      <trkpt lat="39.2372260" lon="-8.6800060">
        <ele>93.4</ele>
        <time>2019-07-11T13:48:09Z</time>
      </trkpt>
      <trkpt lat="39.2373010" lon="-8.6802140">
        <ele>94.0</ele>
        <time>2019-07-11T13:48:15Z</time>
      </trkpt>
      <trkpt lat="39.2373250" lon="-8.6802790">
        <ele>94.4</ele>
        <time>2019-07-11T13:48:17Z</time>
      </trkpt>
      <trkpt lat="39.2374040" lon="-8.6804330">
        <ele>95.0</ele>
        <time>2019-07-11T13:48:22Z</time>
      </trkpt>
      <trkpt lat="39.2374370" lon="-8.6804860">
        <ele>95.4</ele>
        <time>2019-07-11T13:48:24Z</time>
      </trkpt>
      <trkpt lat="39.2374960" lon="-8.6806000">
        <ele>96.2</ele>
        <time>2019-07-11T13:48:28Z</time>
      </trkpt>
      <trkpt lat="39.2375250" lon="-8.6806610">
        <ele>96.4</ele>
        <time>2019-07-11T13:48:30Z</time>
      </trkpt>
      <trkpt lat="39.2375720" lon="-8.6808300">
        <ele>97.4</ele>
        <time>2019-07-11T13:48:35Z</time>
      </trkpt>
      <trkpt lat="39.2375700" lon="-8.6808680">
        <ele>97.6</ele>
        <time>2019-07-11T13:48:36Z</time>
      </trkpt>
      <trkpt lat="39.2375210" lon="-8.6810310">
        <ele>98.6</ele>
        <time>2019-07-11T13:48:41Z</time>
      </trkpt>
      <trkpt lat="39.2375120" lon="-8.6810600">
        <ele>98.6</ele>
        <time>2019-07-11T13:48:42Z</time>
      </trkpt>
      <trkpt lat="39.2374410" lon="-8.6812120">
        <ele>99.4</ele>
        <time>2019-07-11T13:48:47Z</time>
      </trkpt>
      <trkpt lat="39.2374170" lon="-8.6812830">
        <ele>99.8</ele>
        <time>2019-07-11T13:48:49Z</time>
      </trkpt>
      <trkpt lat="39.2373840" lon="-8.6814380">
        <ele>100.2</ele>
        <time>2019-07-11T13:48:53Z</time>
      </trkpt>
      <trkpt lat="39.2374270" lon="-8.6816510">
        <ele>100.8</ele>
        <time>2019-07-11T13:48:59Z</time>
      </trkpt>
      <trkpt lat="39.2375170" lon="-8.6817760">
        <ele>101.8</ele>
        <time>2019-07-11T13:49:04Z</time>
      </trkpt>
      <trkpt lat="39.2375390" lon="-8.6817970">
        <ele>102.0</ele>
        <time>2019-07-11T13:49:05Z</time>
      </trkpt>
      <trkpt lat="39.2376460" lon="-8.6819260">
        <ele>102.8</ele>
        <time>2019-07-11T13:49:10Z</time>
      </trkpt>
      <trkpt lat="39.2376760" lon="-8.6819830">
        <ele>103.2</ele>
        <time>2019-07-11T13:49:12Z</time>
      </trkpt>
      <trkpt lat="39.2377140" lon="-8.6822010">
        <ele>103.8</ele>
        <time>2019-07-11T13:49:18Z</time>
      </trkpt>
      <trkpt lat="39.2377040" lon="-8.6824050">
        <ele>104.6</ele>
        <time>2019-07-11T13:49:24Z</time>
      </trkpt>
      <trkpt lat="39.2376990" lon="-8.6824720">
        <ele>104.8</ele>
        <time>2019-07-11T13:49:26Z</time>
      </trkpt>
      <trkpt lat="39.2376910" lon="-8.6826110">
        <ele>105.6</ele>
        <time>2019-07-11T13:49:30Z</time>
      </trkpt>
      <trkpt lat="39.2376920" lon="-8.6826820">
        <ele>105.8</ele>
        <time>2019-07-11T13:49:32Z</time>
      </trkpt>
      <trkpt lat="39.2377380" lon="-8.6829010">
        <ele>106.6</ele>
        <time>2019-07-11T13:49:38Z</time>
      </trkpt>
      <trkpt lat="39.2377930" lon="-8.6830020">
        <ele>107.0</ele>
        <time>2019-07-11T13:49:41Z</time>
      </trkpt>
      <trkpt lat="39.2378770" lon="-8.6831260">
        <ele>107.6</ele>
        <time>2019-07-11T13:49:45Z</time>
      </trkpt>
      <trkpt lat="39.2379300" lon="-8.6832320">
        <ele>108.0</ele>
        <time>2019-07-11T13:49:48Z</time>
      </trkpt>
      <trkpt lat="39.2379620" lon="-8.6832930">
        <ele>108.4</ele>
        <time>2019-07-11T13:49:50Z</time>
      </trkpt>
      <trkpt lat="39.2380190" lon="-8.6834500">
        <ele>109.2</ele>
        <time>2019-07-11T13:49:55Z</time>
      </trkpt>
      <trkpt lat="39.2380490" lon="-8.6836460">
        <ele>110.0</ele>
        <time>2019-07-11T13:50:02Z</time>
      </trkpt>
      <trkpt lat="39.2381230" lon="-8.6838410">
        <ele>111.0</ele>
        <time>2019-07-11T13:50:09Z</time>
      </trkpt>
      <trkpt lat="39.2381410" lon="-8.6838600">
        <ele>111.2</ele>
        <time>2019-07-11T13:50:10Z</time>
      </trkpt>
      <trkpt lat="39.2382440" lon="-8.6839020">
        <ele>111.8</ele>
        <time>2019-07-11T13:50:14Z</time>
      </trkpt>
      <trkpt lat="39.2383520" lon="-8.6838400">
        <ele>112.2</ele>
        <time>2019-07-11T13:50:18Z</time>
      </trkpt>
      <trkpt lat="39.2383740" lon="-8.6838130">
        <ele>112.4</ele>
        <time>2019-07-11T13:50:19Z</time>
      </trkpt>
      <trkpt lat="39.2384220" lon="-8.6836350">
        <ele>113.0</ele>
        <time>2019-07-11T13:50:24Z</time>
      </trkpt>
      <trkpt lat="39.2384170" lon="-8.6835560">
        <ele>113.2</ele>
        <time>2019-07-11T13:50:26Z</time>
      </trkpt>
      <trkpt lat="39.2383900" lon="-8.6834140">
        <ele>114.0</ele>
        <time>2019-07-11T13:50:30Z</time>
      </trkpt>
      <trkpt lat="39.2383610" lon="-8.6833450">
        <ele>114.4</ele>
        <time>2019-07-11T13:50:32Z</time>
      </trkpt>
      <trkpt lat="39.2383090" lon="-8.6832050">
        <ele>114.8</ele>
        <time>2019-07-11T13:50:36Z</time>
      </trkpt>
      <trkpt lat="39.2382810" lon="-8.6830110">
        <ele>115.6</ele>
        <time>2019-07-11T13:50:41Z</time>
      </trkpt>
      <trkpt lat="39.2382710" lon="-8.6828990">
        <ele>116.0</ele>
        <time>2019-07-11T13:50:44Z</time>
      </trkpt>
      <trkpt lat="39.2382680" lon="-8.6827100">
        <ele>116.6</ele>
        <time>2019-07-11T13:50:49Z</time>
      </trkpt>
      <trkpt lat="39.2382870" lon="-8.6826400">
        <ele>117.0</ele>
        <time>2019-07-11T13:50:51Z</time>
      </trkpt>
      <trkpt lat="39.2383690" lon="-8.6824380">
        <ele>117.8</ele>
        <time>2019-07-11T13:50:57Z</time>
      </trkpt>
      <trkpt lat="39.2384150" lon="-8.6823950">
        <ele>118.0</ele>
        <time>2019-07-11T13:50:59Z</time>
      </trkpt>
      <trkpt lat="39.2385560" lon="-8.6823410">
        <ele>119.0</ele>
        <time>2019-07-11T13:51:04Z</time>
      </trkpt>
      <trkpt lat="39.2385840" lon="-8.6823400">
        <ele>119.2</ele>
        <time>2019-07-11T13:51:05Z</time>
      </trkpt>
      <trkpt lat="39.2387070" lon="-8.6824000">
        <ele>120.0</ele>
        <time>2019-07-11T13:51:10Z</time>
      </trkpt>
      <trkpt lat="39.2388380" lon="-8.6825530">
        <ele>121.0</ele>
        <time>2019-07-11T13:51:16Z</time>
      </trkpt>
      <trkpt lat="39.2389390" lon="-8.6827190">
        <ele>122.0</ele>
        <time>2019-07-11T13:51:22Z</time>
      </trkpt>
      <trkpt lat="39.2389660" lon="-8.6827710">
        <ele>122.2</ele>
        <time>2019-07-11T13:51:24Z</time>
      </trkpt>
      <trkpt lat="39.2390090" lon="-8.6828500">
        <ele>123.0</ele>
        <time>2019-07-11T13:51:27Z</time>
      </trkpt>
      <trkpt lat="39.2390790" lon="-8.6829830">
        <ele>123.8</ele>
        <time>2019-07-11T13:51:32Z</time>
      </trkpt>
      <trkpt lat="39.2391020" lon="-8.6830370">
        <ele>124.2</ele>
        <time>2019-07-11T13:51:34Z</time>
      </trkpt>
      <trkpt lat="39.2391630" lon="-8.6831700">
        <ele>125.0</ele>
        <time>2019-07-11T13:51:39Z</time>
      </trkpt>
      <trkpt lat="39.2391770" lon="-8.6831970">
        <ele>125.2</ele>
        <time>2019-07-11T13:51:40Z</time>
      </trkpt>
      <trkpt lat="39.2392320" lon="-8.6833380">
        <ele>125.8</ele>
        <time>2019-07-11T13:51:45Z</time>
      </trkpt>
      <trkpt lat="39.2392280" lon="-8.6834390">
        <ele>126.2</ele>
        <time>2019-07-11T13:51:48Z</time>
      </trkpt>
      <trkpt lat="39.2392370" lon="-8.6834730">
        <ele>126.4</ele>
        <time>2019-07-11T13:51:49Z</time>
      </trkpt>
      <trkpt lat="39.2392810" lon="-8.6836940">
        <ele>127.2</ele>
        <time>2019-07-11T13:51:55Z</time>
      </trkpt>
      <trkpt lat="39.2392190" lon="-8.6838010">
        <ele>127.4</ele>
        <time>2019-07-11T13:51:58Z</time>
      </trkpt>
      <trkpt lat="39.2391680" lon="-8.6838680">
        <ele>127.6</ele>
        <time>2019-07-11T13:52:00Z</time>
      </trkpt>
      <trkpt lat="39.2390330" lon="-8.6840810">
        <ele>128.0</ele>
        <time>2019-07-11T13:52:06Z</time>
      </trkpt>
      <trkpt lat="39.2389640" lon="-8.6841740">
        <ele>128.4</ele>
        <time>2019-07-11T13:52:09Z</time>
      </trkpt>
      <trkpt lat="39.2388250" lon="-8.6843730">
        <ele>128.8</ele>
        <time>2019-07-11T13:52:15Z</time>
      </trkpt>
      <trkpt lat="39.2386740" lon="-8.6846250">
        <ele>129.4</ele>
        <time>2019-07-11T13:52:22Z</time>
      </trkpt>
      <trkpt lat="39.2386300" lon="-8.6846940">
        <ele>129.6</ele>
        <time>2019-07-11T13:52:24Z</time>
      </trkpt>
      <trkpt lat="39.2385220" lon="-8.6848640">
        <ele>129.6</ele>
        <time>2019-07-11T13:52:29Z</time>
      </trkpt>
      <trkpt lat="39.2384600" lon="-8.6849660">
        <ele>129.8</ele>
        <time>2019-07-11T13:52:32Z</time>
      </trkpt>
      <trkpt lat="39.2383700" lon="-8.6850940">
        <ele>129.8</ele>
        <time>2019-07-11T13:52:36Z</time>
      </trkpt>
      <trkpt lat="39.2382910" lon="-8.6851750">
        <ele>130.0</ele>
        <time>2019-07-11T13:52:39Z</time>
      </trkpt>
      <trkpt lat="39.2382570" lon="-8.6851940">
        <ele>130.0</ele>
        <time>2019-07-11T13:52:40Z</time>
      </trkpt>
      <trkpt lat="39.2380780" lon="-8.6852550">
        <ele>130.2</ele>
        <time>2019-07-11T13:52:45Z</time>
      </trkpt>
      <trkpt lat="39.2380020" lon="-8.6852690">
        <ele>130.4</ele>
        <time>2019-07-11T13:52:47Z</time>
      </trkpt>
      <trkpt lat="39.2378530" lon="-8.6853180">
        <ele>130.8</ele>
        <time>2019-07-11T13:52:51Z</time>
      </trkpt>
      <trkpt lat="39.2377800" lon="-8.6853440">
        <ele>131.2</ele>
        <time>2019-07-11T13:52:53Z</time>
      </trkpt>
      <trkpt lat="39.2377470" lon="-8.6853500">
        <ele>131.4</ele>
        <time>2019-07-11T13:52:54Z</time>
      </trkpt>
      <trkpt lat="39.2375990" lon="-8.6853690">
        <ele>132.0</ele>
        <time>2019-07-11T13:52:58Z</time>
      </trkpt>
      <trkpt lat="39.2375340" lon="-8.6853800">
        <ele>132.4</ele>
        <time>2019-07-11T13:53:00Z</time>
      </trkpt>
      <trkpt lat="39.2373650" lon="-8.6853820">
        <ele>132.6</ele>
        <time>2019-07-11T13:53:05Z</time>
      </trkpt>
      <trkpt lat="39.2372310" lon="-8.6852900">
        <ele>132.8</ele>
        <time>2019-07-11T13:53:10Z</time>
      </trkpt>
      <trkpt lat="39.2372010" lon="-8.6852090">
        <ele>132.8</ele>
        <time>2019-07-11T13:53:13Z</time>
      </trkpt>
      <trkpt lat="39.2371950" lon="-8.6851860">
        <ele>133.0</ele>
        <time>2019-07-11T13:53:15Z</time>
      </trkpt>
      <trkpt lat="39.2371960" lon="-8.6851870">
        <ele>133.0</ele>
        <time>2019-07-11T13:53:16Z</time>
      </trkpt>
      <trkpt lat="39.2329860" lon="-8.6877130">
        <ele>113.8</ele>
        <time>2019-07-12T04:53:07Z</time>
      </trkpt>
      <trkpt lat="39.2330060" lon="-8.6877170">
        <ele>113.6</ele>
        <time>2019-07-12T04:53:08Z</time>
      </trkpt>
      <trkpt lat="39.2330270" lon="-8.6877240">
        <ele>113.8</ele>
        <time>2019-07-12T04:53:09Z</time>
      </trkpt>
      <trkpt lat="39.2330940" lon="-8.6877370">
        <ele>113.8</ele>
        <time>2019-07-12T04:53:12Z</time>
      </trkpt>
      <trkpt lat="39.2331530" lon="-8.6877220">
        <ele>114.0</ele>
        <time>2019-07-12T04:53:15Z</time>
      </trkpt>
      <trkpt lat="39.2331800" lon="-8.6876950">
        <ele>114.0</ele>
        <time>2019-07-12T04:53:17Z</time>
      </trkpt>
      <trkpt lat="39.2332090" lon="-8.6876230">
        <ele>114.4</ele>
        <time>2019-07-12T04:53:21Z</time>
      </trkpt>
      <trkpt lat="39.2332360" lon="-8.6875710">
        <ele>114.6</ele>
        <time>2019-07-12T04:53:23Z</time>
      </trkpt>
      <trkpt lat="39.2332470" lon="-8.6875320">
        <ele>114.6</ele>
        <time>2019-07-12T04:53:25Z</time>
      </trkpt>
      <trkpt lat="39.2332460" lon="-8.6875230">
        <ele>114.8</ele>
        <time>2019-07-12T04:53:26Z</time>
      </trkpt>
      <trkpt lat="39.2332540" lon="-8.6875140">
        <ele>114.8</ele>
        <time>2019-07-12T04:53:28Z</time>
      </trkpt>
      <trkpt lat="39.2332750" lon="-8.6875120">
        <ele>115.0</ele>
        <time>2019-07-12T04:53:30Z</time>
      </trkpt>
      <trkpt lat="39.2332820" lon="-8.6875030">
        <ele>115.0</ele>
        <time>2019-07-12T04:53:31Z</time>
      </trkpt>
      <trkpt lat="39.2332920" lon="-8.6874840">
        <ele>115.0</ele>
        <time>2019-07-12T04:53:34Z</time>
      </trkpt>
      <trkpt lat="39.2333640" lon="-8.6873710">
        <ele>115.6</ele>
        <time>2019-07-12T04:53:50Z</time>
      </trkpt>
      <trkpt lat="39.2333760" lon="-8.6873680">
        <ele>115.4</ele>
        <time>2019-07-12T04:53:51Z</time>
      </trkpt>
      <trkpt lat="39.2333810" lon="-8.6873720">
        <ele>115.4</ele>
        <time>2019-07-12T04:53:53Z</time>
      </trkpt>
      <trkpt lat="39.2334480" lon="-8.6873680">
        <ele>114.8</ele>
        <time>2019-07-12T04:54:28Z</time>
      </trkpt>
      <trkpt lat="39.2334560" lon="-8.6873500">
        <ele>114.8</ele>
        <time>2019-07-12T04:54:29Z</time>
      </trkpt>
      <trkpt lat="39.2334780" lon="-8.6872170">
        <ele>115.2</ele>
        <time>2019-07-12T04:54:34Z</time>
      </trkpt>
      <trkpt lat="39.2335360" lon="-8.6869260">
        <ele>115.4</ele>
        <time>2019-07-12T04:54:41Z</time>
      </trkpt>
      <trkpt lat="39.2335300" lon="-8.6866510">
        <ele>115.2</ele>
        <time>2019-07-12T04:54:46Z</time>
      </trkpt>
      <trkpt lat="39.2335210" lon="-8.6865910">
        <ele>115.0</ele>
        <time>2019-07-12T04:54:47Z</time>
      </trkpt>
      <trkpt lat="39.2334950" lon="-8.6862710">
        <ele>114.6</ele>
        <time>2019-07-12T04:54:52Z</time>
      </trkpt>
      <trkpt lat="39.2335040" lon="-8.6862030">
        <ele>114.4</ele>
        <time>2019-07-12T04:54:53Z</time>
      </trkpt>
      <trkpt lat="39.2335510" lon="-8.6860700">
        <ele>114.2</ele>
        <time>2019-07-12T04:54:55Z</time>
      </trkpt>
      <trkpt lat="39.2336210" lon="-8.6859370">
        <ele>113.6</ele>
        <time>2019-07-12T04:54:57Z</time>
      </trkpt>
      <trkpt lat="39.2336610" lon="-8.6858730">
        <ele>113.4</ele>
        <time>2019-07-12T04:54:58Z</time>
      </trkpt>
      <trkpt lat="39.2337060" lon="-8.6858160">
        <ele>113.2</ele>
        <time>2019-07-12T04:54:59Z</time>
      </trkpt>
      <trkpt lat="39.2337570" lon="-8.6857700">
        <ele>113.2</ele>
        <time>2019-07-12T04:55:00Z</time>
      </trkpt>
      <trkpt lat="39.2338130" lon="-8.6857370">
        <ele>113.0</ele>
        <time>2019-07-12T04:55:01Z</time>
      </trkpt>
      <trkpt lat="39.2340360" lon="-8.6857140">
        <ele>112.8</ele>
        <time>2019-07-12T04:55:05Z</time>
      </trkpt>
      <trkpt lat="39.2341300" lon="-8.6857460">
        <ele>112.8</ele>
        <time>2019-07-12T04:55:07Z</time>
      </trkpt>
      <trkpt lat="39.2343110" lon="-8.6858000">
        <ele>113.2</ele>
        <time>2019-07-12T04:55:11Z</time>
      </trkpt>
      <trkpt lat="39.2343540" lon="-8.6858120">
        <ele>113.2</ele>
        <time>2019-07-12T04:55:12Z</time>
      </trkpt>
      <trkpt lat="39.2346220" lon="-8.6858630">
        <ele>113.8</ele>
        <time>2019-07-12T04:55:19Z</time>
      </trkpt>
      <trkpt lat="39.2347820" lon="-8.6859090">
        <ele>113.8</ele>
        <time>2019-07-12T04:55:25Z</time>
      </trkpt>
      <trkpt lat="39.2348460" lon="-8.6859150">
        <ele>113.8</ele>
        <time>2019-07-12T04:55:29Z</time>
      </trkpt>
      <trkpt lat="39.2348690" lon="-8.6859300">
        <ele>113.6</ele>
        <time>2019-07-12T04:55:31Z</time>
      </trkpt>
      <trkpt lat="39.2348830" lon="-8.6859360">
        <ele>113.6</ele>
        <time>2019-07-12T04:55:32Z</time>
      </trkpt>
      <trkpt lat="39.2349630" lon="-8.6859690">
        <ele>113.6</ele>
        <time>2019-07-12T04:55:36Z</time>
      </trkpt>
      <trkpt lat="39.2350890" lon="-8.6859850">
        <ele>113.6</ele>
        <time>2019-07-12T04:55:42Z</time>
      </trkpt>
      <trkpt lat="39.2352330" lon="-8.6860200">
        <ele>114.0</ele>
        <time>2019-07-12T04:55:48Z</time>
      </trkpt>
      <trkpt lat="39.2354060" lon="-8.6860930">
        <ele>114.0</ele>
        <time>2019-07-12T04:55:53Z</time>
      </trkpt>
      <trkpt lat="39.2354470" lon="-8.6861050">
        <ele>113.8</ele>
        <time>2019-07-12T04:55:54Z</time>
      </trkpt>
      <trkpt lat="39.2357210" lon="-8.6861660">
        <ele>113.6</ele>
        <time>2019-07-12T04:56:01Z</time>
      </trkpt>
      <trkpt lat="39.2358370" lon="-8.6862040">
        <ele>113.8</ele>
        <time>2019-07-12T04:56:06Z</time>
      </trkpt>
      <trkpt lat="39.2358380" lon="-8.6862050">
        <ele>113.8</ele>
        <time>2019-07-12T04:56:07Z</time>
      </trkpt>
      <trkpt lat="39.2359160" lon="-8.6862680">
        <ele>113.4</ele>
        <time>2019-07-12T04:57:05Z</time>
      </trkpt>
      <trkpt lat="39.2359380" lon="-8.6862880">
        <ele>113.6</ele>
        <time>2019-07-12T04:57:06Z</time>
      </trkpt>
      <trkpt lat="39.2359660" lon="-8.6863020">
        <ele>113.6</ele>
        <time>2019-07-12T04:57:07Z</time>
      </trkpt>
      <trkpt lat="39.2360310" lon="-8.6863220">
        <ele>113.6</ele>
        <time>2019-07-12T04:57:09Z</time>
      </trkpt>
      <trkpt lat="39.2361470" lon="-8.6863450">
        <ele>113.8</ele>
        <time>2019-07-12T04:57:12Z</time>
      </trkpt>
      <trkpt lat="39.2361890" lon="-8.6863510">
        <ele>113.8</ele>
        <time>2019-07-12T04:57:13Z</time>
      </trkpt>
      <trkpt lat="39.2362780" lon="-8.6863660">
        <ele>113.8</ele>
        <time>2019-07-12T04:57:15Z</time>
      </trkpt>
      <trkpt lat="39.2365200" lon="-8.6864390">
        <ele>113.2</ele>
        <time>2019-07-12T04:57:20Z</time>
      </trkpt>
      <trkpt lat="39.2368630" lon="-8.6865380">
        <ele>113.6</ele>
        <time>2019-07-12T04:57:27Z</time>
      </trkpt>
      <trkpt lat="39.2369090" lon="-8.6865500">
        <ele>113.4</ele>
        <time>2019-07-12T04:57:28Z</time>
      </trkpt>
      <trkpt lat="39.2370440" lon="-8.6865800">
        <ele>113.2</ele>
        <time>2019-07-12T04:57:31Z</time>
      </trkpt>
      <trkpt lat="39.2372070" lon="-8.6866160">
        <ele>113.4</ele>
        <time>2019-07-12T04:57:35Z</time>
      </trkpt>
      <trkpt lat="39.2374730" lon="-8.6866220">
        <ele>113.6</ele>
        <time>2019-07-12T04:57:42Z</time>
      </trkpt>
      <trkpt lat="39.2376170" lon="-8.6865460">
        <ele>113.6</ele>
        <time>2019-07-12T04:57:46Z</time>
      </trkpt>
      <trkpt lat="39.2376790" lon="-8.6864730">
        <ele>113.8</ele>
        <time>2019-07-12T04:57:48Z</time>
      </trkpt>
      <trkpt lat="39.2378140" lon="-8.6862680">
        <ele>114.2</ele>
        <time>2019-07-12T04:57:53Z</time>
      </trkpt>
      <trkpt lat="39.2379070" lon="-8.6860910">
        <ele>114.6</ele>
        <time>2019-07-12T04:57:58Z</time>
      </trkpt>
      <trkpt lat="39.2379150" lon="-8.6860690">
        <ele>114.6</ele>
        <time>2019-07-12T04:57:59Z</time>
      </trkpt>
      <trkpt lat="39.2378960" lon="-8.6860190">
        <ele>114.6</ele>
        <time>2019-07-12T04:58:01Z</time>
      </trkpt>
      <trkpt lat="39.2378300" lon="-8.6859410">
        <ele>115.0</ele>
        <time>2019-07-12T04:58:04Z</time>
      </trkpt>
      <trkpt lat="39.2377730" lon="-8.6858800">
        <ele>115.0</ele>
        <time>2019-07-12T04:58:06Z</time>
      </trkpt>
      <trkpt lat="39.2376950" lon="-8.6857670">
        <ele>115.0</ele>
        <time>2019-07-12T04:58:09Z</time>
      </trkpt>
      <trkpt lat="39.2376550" lon="-8.6856680">
        <ele>115.0</ele>
        <time>2019-07-12T04:58:11Z</time>
      </trkpt>
      <trkpt lat="39.2376600" lon="-8.6854300">
        <ele>114.8</ele>
        <time>2019-07-12T04:58:15Z</time>
      </trkpt>
      <trkpt lat="39.2377700" lon="-8.6852820">
        <ele>114.4</ele>
        <time>2019-07-12T04:58:18Z</time>
      </trkpt>
      <trkpt lat="39.2379380" lon="-8.6852100">
        <ele>114.0</ele>
        <time>2019-07-12T04:58:21Z</time>
      </trkpt>
      <trkpt lat="39.2379990" lon="-8.6851890">
        <ele>113.8</ele>
        <time>2019-07-12T04:58:22Z</time>
      </trkpt>
      <trkpt lat="39.2382470" lon="-8.6850960">
        <ele>112.6</ele>
        <time>2019-07-12T04:58:26Z</time>
      </trkpt>
      <trkpt lat="39.2383040" lon="-8.6850590">
        <ele>112.4</ele>
        <time>2019-07-12T04:58:27Z</time>
      </trkpt>
      <trkpt lat="39.2383570" lon="-8.6850110">
        <ele>112.4</ele>
        <time>2019-07-12T04:58:28Z</time>
      </trkpt>
      <trkpt lat="39.2384830" lon="-8.6848400">
        <ele>112.0</ele>
        <time>2019-07-12T04:58:31Z</time>
      </trkpt>
      <trkpt lat="39.2385620" lon="-8.6847170">
        <ele>111.8</ele>
        <time>2019-07-12T04:58:33Z</time>
      </trkpt>
      <trkpt lat="39.2388810" lon="-8.6842390">
        <ele>111.4</ele>
        <time>2019-07-12T04:58:41Z</time>
      </trkpt>
      <trkpt lat="39.2392170" lon="-8.6837420">
        <ele>110.4</ele>
        <time>2019-07-12T04:58:49Z</time>
      </trkpt>
      <trkpt lat="39.2392490" lon="-8.6836720">
        <ele>110.4</ele>
        <time>2019-07-12T04:58:50Z</time>
      </trkpt>
      <trkpt lat="39.2392760" lon="-8.6835300">
        <ele>110.2</ele>
        <time>2019-07-12T04:58:52Z</time>
      </trkpt>
      <trkpt lat="39.2392690" lon="-8.6834590">
        <ele>110.2</ele>
        <time>2019-07-12T04:58:53Z</time>
      </trkpt>
      <trkpt lat="39.2392300" lon="-8.6833150">
        <ele>110.0</ele>
        <time>2019-07-12T04:58:55Z</time>
      </trkpt>
      <trkpt lat="39.2391410" lon="-8.6830920">
        <ele>109.2</ele>
        <time>2019-07-12T04:58:58Z</time>
      </trkpt>
      <trkpt lat="39.2389730" lon="-8.6827650">
        <ele>108.0</ele>
        <time>2019-07-12T04:59:02Z</time>
      </trkpt>
      <trkpt lat="39.2388710" lon="-8.6825900">
        <ele>106.8</ele>
        <time>2019-07-12T04:59:04Z</time>
      </trkpt>
      <trkpt lat="39.2387490" lon="-8.6824300">
        <ele>105.4</ele>
        <time>2019-07-12T04:59:06Z</time>
      </trkpt>
      <trkpt lat="39.2386030" lon="-8.6823330">
        <ele>104.0</ele>
        <time>2019-07-12T04:59:08Z</time>
      </trkpt>
      <trkpt lat="39.2384380" lon="-8.6823580">
        <ele>103.0</ele>
        <time>2019-07-12T04:59:10Z</time>
      </trkpt>
      <trkpt lat="39.2383760" lon="-8.6824210">
        <ele>102.4</ele>
        <time>2019-07-12T04:59:11Z</time>
      </trkpt>
      <trkpt lat="39.2383300" lon="-8.6825050">
        <ele>101.8</ele>
        <time>2019-07-12T04:59:12Z</time>
      </trkpt>
      <trkpt lat="39.2383010" lon="-8.6826010">
        <ele>101.2</ele>
        <time>2019-07-12T04:59:13Z</time>
      </trkpt>
      <trkpt lat="39.2382880" lon="-8.6827040">
        <ele>100.8</ele>
        <time>2019-07-12T04:59:14Z</time>
      </trkpt>
      <trkpt lat="39.2382960" lon="-8.6829230">
        <ele>100.2</ele>
        <time>2019-07-12T04:59:16Z</time>
      </trkpt>
      <trkpt lat="39.2383360" lon="-8.6831430">
        <ele>99.4</ele>
        <time>2019-07-12T04:59:18Z</time>
      </trkpt>
      <trkpt lat="39.2383660" lon="-8.6832500">
        <ele>99.0</ele>
        <time>2019-07-12T04:59:19Z</time>
      </trkpt>
      <trkpt lat="39.2384010" lon="-8.6833550">
        <ele>98.6</ele>
        <time>2019-07-12T04:59:20Z</time>
      </trkpt>
      <trkpt lat="39.2384300" lon="-8.6834560">
        <ele>98.0</ele>
        <time>2019-07-12T04:59:21Z</time>
      </trkpt>
      <trkpt lat="39.2384490" lon="-8.6836480">
        <ele>97.4</ele>
        <time>2019-07-12T04:59:23Z</time>
      </trkpt>
      <trkpt lat="39.2383960" lon="-8.6838060">
        <ele>96.8</ele>
        <time>2019-07-12T04:59:25Z</time>
      </trkpt>
      <trkpt lat="39.2382250" lon="-8.6839250">
        <ele>96.4</ele>
        <time>2019-07-12T04:59:28Z</time>
      </trkpt>
      <trkpt lat="39.2381250" lon="-8.6838870">
        <ele>95.8</ele>
        <time>2019-07-12T04:59:30Z</time>
      </trkpt>
      <trkpt lat="39.2380920" lon="-8.6838360">
        <ele>95.6</ele>
        <time>2019-07-12T04:59:31Z</time>
      </trkpt>
      <trkpt lat="39.2380500" lon="-8.6836940">
        <ele>94.8</ele>
        <time>2019-07-12T04:59:33Z</time>
      </trkpt>
      <trkpt lat="39.2380400" lon="-8.6836140">
        <ele>94.6</ele>
        <time>2019-07-12T04:59:34Z</time>
      </trkpt>
      <trkpt lat="39.2380290" lon="-8.6835300">
        <ele>94.2</ele>
        <time>2019-07-12T04:59:35Z</time>
      </trkpt>
      <trkpt lat="39.2380140" lon="-8.6834440">
        <ele>94.0</ele>
        <time>2019-07-12T04:59:36Z</time>
      </trkpt>
      <trkpt lat="39.2379900" lon="-8.6833590">
        <ele>93.2</ele>
        <time>2019-07-12T04:59:37Z</time>
      </trkpt>
      <trkpt lat="39.2379160" lon="-8.6832000">
        <ele>92.6</ele>
        <time>2019-07-12T04:59:39Z</time>
      </trkpt>
      <trkpt lat="39.2378710" lon="-8.6831240">
        <ele>92.2</ele>
        <time>2019-07-12T04:59:40Z</time>
      </trkpt>
      <trkpt lat="39.2377380" lon="-8.6828620">
        <ele>91.0</ele>
        <time>2019-07-12T04:59:43Z</time>
      </trkpt>
      <trkpt lat="39.2377220" lon="-8.6827600">
        <ele>90.6</ele>
        <time>2019-07-12T04:59:44Z</time>
      </trkpt>
      <trkpt lat="39.2377180" lon="-8.6825410">
        <ele>89.8</ele>
        <time>2019-07-12T04:59:46Z</time>
      </trkpt>
      <trkpt lat="39.2377360" lon="-8.6823150">
        <ele>88.8</ele>
        <time>2019-07-12T04:59:48Z</time>
      </trkpt>
      <trkpt lat="39.2377390" lon="-8.6822050">
        <ele>88.4</ele>
        <time>2019-07-12T04:59:49Z</time>
      </trkpt>
      <trkpt lat="39.2377040" lon="-8.6820020">
        <ele>87.6</ele>
        <time>2019-07-12T04:59:51Z</time>
      </trkpt>
      <trkpt lat="39.2376630" lon="-8.6819100">
        <ele>87.2</ele>
        <time>2019-07-12T04:59:52Z</time>
      </trkpt>
      <trkpt lat="39.2375490" lon="-8.6817570">
        <ele>86.6</ele>
        <time>2019-07-12T04:59:54Z</time>
      </trkpt>
      <trkpt lat="39.2374950" lon="-8.6816810">
        <ele>86.2</ele>
        <time>2019-07-12T04:59:55Z</time>
      </trkpt>
      <trkpt lat="39.2374190" lon="-8.6814920">
        <ele>85.4</ele>
        <time>2019-07-12T04:59:57Z</time>
      </trkpt>
      <trkpt lat="39.2374150" lon="-8.6813840">
        <ele>84.8</ele>
        <time>2019-07-12T04:59:58Z</time>
      </trkpt>
      <trkpt lat="39.2374610" lon="-8.6811800">
        <ele>84.2</ele>
        <time>2019-07-12T05:00:00Z</time>
      </trkpt>
      <trkpt lat="39.2375330" lon="-8.6809890">
        <ele>83.6</ele>
        <time>2019-07-12T05:00:02Z</time>
      </trkpt>
      <trkpt lat="39.2375960" lon="-8.6808080">
        <ele>82.8</ele>
        <time>2019-07-12T05:00:04Z</time>
      </trkpt>
      <trkpt lat="39.2376070" lon="-8.6807170">
        <ele>82.4</ele>
        <time>2019-07-12T05:00:05Z</time>
      </trkpt>
      <trkpt lat="39.2375700" lon="-8.6805280">
        <ele>81.2</ele>
        <time>2019-07-12T05:00:07Z</time>
      </trkpt>
      <trkpt lat="39.2375270" lon="-8.6804400">
        <ele>80.6</ele>
        <time>2019-07-12T05:00:08Z</time>
      </trkpt>
      <trkpt lat="39.2374780" lon="-8.6803510">
        <ele>80.0</ele>
        <time>2019-07-12T05:00:09Z</time>
      </trkpt>
      <trkpt lat="39.2373320" lon="-8.6800720">
        <ele>78.8</ele>
        <time>2019-07-12T05:00:12Z</time>
      </trkpt>
      <trkpt lat="39.2372900" lon="-8.6799700">
        <ele>78.2</ele>
        <time>2019-07-12T05:00:13Z</time>
      </trkpt>
      <trkpt lat="39.2372590" lon="-8.6798610">
        <ele>77.8</ele>
        <time>2019-07-12T05:00:14Z</time>
      </trkpt>
      <trkpt lat="39.2372070" lon="-8.6796480">
        <ele>77.0</ele>
        <time>2019-07-12T05:00:16Z</time>
      </trkpt>
      <trkpt lat="39.2371820" lon="-8.6795450">
        <ele>76.4</ele>
        <time>2019-07-12T05:00:17Z</time>
      </trkpt>
      <trkpt lat="39.2370910" lon="-8.6792350">
        <ele>74.8</ele>
        <time>2019-07-12T05:00:20Z</time>
      </trkpt>
      <trkpt lat="39.2370380" lon="-8.6790120">
        <ele>73.6</ele>
        <time>2019-07-12T05:00:22Z</time>
      </trkpt>
      <trkpt lat="39.2370010" lon="-8.6787740">
        <ele>72.6</ele>
        <time>2019-07-12T05:00:24Z</time>
      </trkpt>
      <trkpt lat="39.2369480" lon="-8.6784120">
        <ele>71.2</ele>
        <time>2019-07-12T05:00:27Z</time>
      </trkpt>
      <trkpt lat="39.2369320" lon="-8.6782910">
        <ele>70.6</ele>
        <time>2019-07-12T05:00:28Z</time>
      </trkpt>
      <trkpt lat="39.2368900" lon="-8.6780590">
        <ele>69.8</ele>
        <time>2019-07-12T05:00:30Z</time>
      </trkpt>
      <trkpt lat="39.2368560" lon="-8.6779460">
        <ele>69.4</ele>
        <time>2019-07-12T05:00:31Z</time>
      </trkpt>
      <trkpt lat="39.2368110" lon="-8.6778380">
        <ele>69.0</ele>
        <time>2019-07-12T05:00:32Z</time>
      </trkpt>
      <trkpt lat="39.2367630" lon="-8.6777370">
        <ele>68.6</ele>
        <time>2019-07-12T05:00:33Z</time>
      </trkpt>
      <trkpt lat="39.2366240" lon="-8.6775700">
        <ele>68.0</ele>
        <time>2019-07-12T05:00:35Z</time>
      </trkpt>
      <trkpt lat="39.2364500" lon="-8.6774660">
        <ele>67.2</ele>
        <time>2019-07-12T05:00:37Z</time>
      </trkpt>
      <trkpt lat="39.2363650" lon="-8.6774250">
        <ele>67.0</ele>
        <time>2019-07-12T05:00:38Z</time>
      </trkpt>
      <trkpt lat="39.2362840" lon="-8.6773800">
        <ele>66.6</ele>
        <time>2019-07-12T05:00:39Z</time>
      </trkpt>
      <trkpt lat="39.2361410" lon="-8.6772590">
        <ele>66.2</ele>
        <time>2019-07-12T05:00:41Z</time>
      </trkpt>
      <trkpt lat="39.2360890" lon="-8.6771790">
        <ele>65.8</ele>
        <time>2019-07-12T05:00:42Z</time>
      </trkpt>
      <trkpt lat="39.2360430" lon="-8.6768830">
        <ele>65.0</ele>
        <time>2019-07-12T05:00:45Z</time>
      </trkpt>
      <trkpt lat="39.2361600" lon="-8.6766240">
        <ele>63.8</ele>
        <time>2019-07-12T05:00:48Z</time>
      </trkpt>
      <trkpt lat="39.2363030" lon="-8.6765140">
        <ele>62.8</ele>
        <time>2019-07-12T05:00:50Z</time>
      </trkpt>
      <trkpt lat="39.2363770" lon="-8.6764560">
        <ele>62.2</ele>
        <time>2019-07-12T05:00:51Z</time>
      </trkpt>
      <trkpt lat="39.2364980" lon="-8.6762900">
        <ele>61.4</ele>
        <time>2019-07-12T05:00:53Z</time>
      </trkpt>
      <trkpt lat="39.2365390" lon="-8.6761860">
        <ele>61.0</ele>
        <time>2019-07-12T05:00:54Z</time>
      </trkpt>
      <trkpt lat="39.2365910" lon="-8.6759630">
        <ele>60.2</ele>
        <time>2019-07-12T05:00:56Z</time>
      </trkpt>
      <trkpt lat="39.2366330" lon="-8.6757330">
        <ele>59.0</ele>
        <time>2019-07-12T05:00:58Z</time>
      </trkpt>
      <trkpt lat="39.2366560" lon="-8.6754960">
        <ele>58.6</ele>
        <time>2019-07-12T05:01:00Z</time>
      </trkpt>
      <trkpt lat="39.2366440" lon="-8.6753830">
        <ele>58.0</ele>
        <time>2019-07-12T05:01:01Z</time>
      </trkpt>
      <trkpt lat="39.2366150" lon="-8.6752780">
        <ele>57.4</ele>
        <time>2019-07-12T05:01:02Z</time>
      </trkpt>
      <trkpt lat="39.2365700" lon="-8.6751860">
        <ele>56.8</ele>
        <time>2019-07-12T05:01:03Z</time>
      </trkpt>
      <trkpt lat="39.2364330" lon="-8.6750490">
        <ele>55.4</ele>
        <time>2019-07-12T05:01:05Z</time>
      </trkpt>
      <trkpt lat="39.2362000" lon="-8.6749120">
        <ele>54.0</ele>
        <time>2019-07-12T05:01:08Z</time>
      </trkpt>
      <trkpt lat="39.2360370" lon="-8.6748250">
        <ele>53.4</ele>
        <time>2019-07-12T05:01:10Z</time>
      </trkpt>
      <trkpt lat="39.2359570" lon="-8.6747730">
        <ele>52.6</ele>
        <time>2019-07-12T05:01:11Z</time>
      </trkpt>
      <trkpt lat="39.2357100" lon="-8.6746390">
        <ele>51.0</ele>
        <time>2019-07-12T05:01:14Z</time>
      </trkpt>
      <trkpt lat="39.2356320" lon="-8.6745960">
        <ele>50.6</ele>
        <time>2019-07-12T05:01:15Z</time>
      </trkpt>
      <trkpt lat="39.2355100" lon="-8.6745050">
        <ele>49.8</ele>
        <time>2019-07-12T05:01:17Z</time>
      </trkpt>
      <trkpt lat="39.2354610" lon="-8.6744520">
        <ele>49.4</ele>
        <time>2019-07-12T05:01:18Z</time>
      </trkpt>
      <trkpt lat="39.2353680" lon="-8.6743310">
        <ele>48.6</ele>
        <time>2019-07-12T05:01:20Z</time>
      </trkpt>
      <trkpt lat="39.2352190" lon="-8.6741360">
        <ele>47.4</ele>
        <time>2019-07-12T05:01:23Z</time>
      </trkpt>
      <trkpt lat="39.2349560" lon="-8.6739790">
        <ele>46.4</ele>
        <time>2019-07-12T05:01:27Z</time>
      </trkpt>
      <trkpt lat="39.2347510" lon="-8.6739000">
        <ele>45.2</ele>
        <time>2019-07-12T05:01:30Z</time>
      </trkpt>
      <trkpt lat="39.2346970" lon="-8.6738690">
        <ele>44.8</ele>
        <time>2019-07-12T05:01:31Z</time>
      </trkpt>
      <trkpt lat="39.2346500" lon="-8.6738360">
        <ele>44.4</ele>
        <time>2019-07-12T05:01:32Z</time>
      </trkpt>
      <trkpt lat="39.2346130" lon="-8.6738020">
        <ele>44.2</ele>
        <time>2019-07-12T05:01:33Z</time>
      </trkpt>
      <trkpt lat="39.2345680" lon="-8.6737290">
        <ele>43.6</ele>
        <time>2019-07-12T05:01:35Z</time>
      </trkpt>
      <trkpt lat="39.2345580" lon="-8.6736450">
        <ele>43.0</ele>
        <time>2019-07-12T05:01:37Z</time>
      </trkpt>
      <trkpt lat="39.2345500" lon="-8.6736040">
        <ele>42.4</ele>
        <time>2019-07-12T05:01:39Z</time>
      </trkpt>
      <trkpt lat="39.2345530" lon="-8.6736010">
        <ele>42.2</ele>
        <time>2019-07-12T05:01:41Z</time>
      </trkpt>
      <trkpt lat="39.2345200" lon="-8.6736170">
        <ele>42.4</ele>
        <time>2019-07-12T05:03:31Z</time>
      </trkpt>
      <trkpt lat="39.2345130" lon="-8.6736360">
        <ele>42.4</ele>
        <time>2019-07-12T05:03:32Z</time>
      </trkpt>
      <trkpt lat="39.2345450" lon="-8.6737050">
        <ele>42.6</ele>
        <time>2019-07-12T05:03:37Z</time>
      </trkpt>
      <trkpt lat="39.2345540" lon="-8.6737100">
        <ele>42.6</ele>
        <time>2019-07-12T05:03:38Z</time>
      </trkpt>
      <trkpt lat="39.2346110" lon="-8.6737350">
        <ele>43.0</ele>
        <time>2019-07-12T05:03:42Z</time>
      </trkpt>
      <trkpt lat="39.2346230" lon="-8.6737460">
        <ele>43.0</ele>
        <time>2019-07-12T05:03:43Z</time>
      </trkpt>
      <trkpt lat="39.2346050" lon="-8.6737860">
        <ele>43.4</ele>
        <time>2019-07-12T05:03:46Z</time>
      </trkpt>
      <trkpt lat="39.2345580" lon="-8.6737710">
        <ele>43.6</ele>
        <time>2019-07-12T05:03:48Z</time>
      </trkpt>
      <trkpt lat="39.2345000" lon="-8.6737470">
        <ele>43.6</ele>
        <time>2019-07-12T05:03:50Z</time>
      </trkpt>
      <trkpt lat="39.2344060" lon="-8.6737350">
        <ele>43.6</ele>
        <time>2019-07-12T05:03:53Z</time>
      </trkpt>
      <trkpt lat="39.2343630" lon="-8.6737530">
        <ele>43.6</ele>
        <time>2019-07-12T05:03:55Z</time>
      </trkpt>
      <trkpt lat="39.2343490" lon="-8.6737620">
        <ele>43.4</ele>
        <time>2019-07-12T05:03:58Z</time>
      </trkpt>
      <trkpt lat="39.2343970" lon="-8.6737350">
        <ele>43.2</ele>
        <time>2019-07-12T05:04:28Z</time>
      </trkpt>
      <trkpt lat="39.2344410" lon="-8.6737370">
        <ele>43.2</ele>
        <time>2019-07-12T05:04:30Z</time>
      </trkpt>
      <trkpt lat="39.2345410" lon="-8.6737570">
        <ele>43.2</ele>
        <time>2019-07-12T05:04:35Z</time>
      </trkpt>
      <trkpt lat="39.2346600" lon="-8.6738220">
        <ele>43.4</ele>
        <time>2019-07-12T05:04:40Z</time>
      </trkpt>
      <trkpt lat="39.2347820" lon="-8.6738860">
        <ele>44.2</ele>
        <time>2019-07-12T05:04:44Z</time>
      </trkpt>
      <trkpt lat="39.2348760" lon="-8.6739300">
        <ele>44.8</ele>
        <time>2019-07-12T05:04:47Z</time>
      </trkpt>
      <trkpt lat="39.2349680" lon="-8.6739640">
        <ele>45.2</ele>
        <time>2019-07-12T05:04:50Z</time>
      </trkpt>
      <trkpt lat="39.2350840" lon="-8.6739920">
        <ele>46.2</ele>
        <time>2019-07-12T05:04:54Z</time>
      </trkpt>
      <trkpt lat="39.2351260" lon="-8.6739830">
        <ele>46.4</ele>
        <time>2019-07-12T05:04:56Z</time>
      </trkpt>
      <trkpt lat="39.2351470" lon="-8.6739930">
        <ele>46.8</ele>
        <time>2019-07-12T05:04:57Z</time>
      </trkpt>
      <trkpt lat="39.2351850" lon="-8.6740360">
        <ele>47.0</ele>
        <time>2019-07-12T05:04:59Z</time>
      </trkpt>
      <trkpt lat="39.2352790" lon="-8.6741210">
        <ele>47.2</ele>
        <time>2019-07-12T05:05:03Z</time>
      </trkpt>
      <trkpt lat="39.2353080" lon="-8.6741420">
        <ele>47.2</ele>
        <time>2019-07-12T05:05:04Z</time>
      </trkpt>
      <trkpt lat="39.2353920" lon="-8.6742010">
        <ele>47.4</ele>
        <time>2019-07-12T05:05:07Z</time>
      </trkpt>
      <trkpt lat="39.2354190" lon="-8.6742210">
        <ele>47.6</ele>
        <time>2019-07-12T05:05:08Z</time>
      </trkpt>
      <trkpt lat="39.2355020" lon="-8.6742910">
        <ele>48.0</ele>
        <time>2019-07-12T05:05:11Z</time>
      </trkpt>
      <trkpt lat="39.2355300" lon="-8.6743180">
        <ele>48.2</ele>
        <time>2019-07-12T05:05:12Z</time>
      </trkpt>
      <trkpt lat="39.2356540" lon="-8.6744420">
        <ele>48.2</ele>
        <time>2019-07-12T05:05:16Z</time>
      </trkpt>
      <trkpt lat="39.2357710" lon="-8.6745490">
        <ele>48.0</ele>
        <time>2019-07-12T05:05:19Z</time>
      </trkpt>
      <trkpt lat="39.2359690" lon="-8.6746420">
        <ele>47.2</ele>
        <time>2019-07-12T05:05:23Z</time>
      </trkpt>
      <trkpt lat="39.2361390" lon="-8.6746900">
        <ele>46.6</ele>
        <time>2019-07-12T05:05:26Z</time>
      </trkpt>
      <trkpt lat="39.2362670" lon="-8.6747200">
        <ele>45.8</ele>
        <time>2019-07-12T05:05:28Z</time>
      </trkpt>
      <trkpt lat="39.2363330" lon="-8.6747300">
        <ele>45.6</ele>
        <time>2019-07-12T05:05:29Z</time>
      </trkpt>
      <trkpt lat="39.2365440" lon="-8.6747350">
        <ele>44.8</ele>
        <time>2019-07-12T05:05:32Z</time>
      </trkpt>
      <trkpt lat="39.2366150" lon="-8.6747290">
        <ele>44.4</ele>
        <time>2019-07-12T05:05:33Z</time>
      </trkpt>
      <trkpt lat="39.2366860" lon="-8.6747250">
        <ele>44.2</ele>
        <time>2019-07-12T05:05:34Z</time>
      </trkpt>
      <trkpt lat="39.2367490" lon="-8.6747270">
        <ele>43.8</ele>
        <time>2019-07-12T05:05:35Z</time>
      </trkpt>
      <trkpt lat="39.2368050" lon="-8.6747400">
        <ele>43.6</ele>
        <time>2019-07-12T05:05:36Z</time>
      </trkpt>
      <trkpt lat="39.2368580" lon="-8.6747670">
        <ele>42.8</ele>
        <time>2019-07-12T05:05:37Z</time>
      </trkpt>
      <trkpt lat="39.2369490" lon="-8.6748600">
        <ele>42.2</ele>
        <time>2019-07-12T05:05:39Z</time>
      </trkpt>
      <trkpt lat="39.2369870" lon="-8.6749230">
        <ele>41.8</ele>
        <time>2019-07-12T05:05:40Z</time>
      </trkpt>
      <trkpt lat="39.2370160" lon="-8.6749950">
        <ele>41.6</ele>
        <time>2019-07-12T05:05:41Z</time>
      </trkpt>
      <trkpt lat="39.2370570" lon="-8.6752670">
        <ele>40.6</ele>
        <time>2019-07-12T05:05:44Z</time>
      </trkpt>
      <trkpt lat="39.2370490" lon="-8.6754530">
        <ele>39.4</ele>
        <time>2019-07-12T05:05:46Z</time>
      </trkpt>
      <trkpt lat="39.2370550" lon="-8.6755440">
        <ele>39.2</ele>
        <time>2019-07-12T05:05:47Z</time>
      </trkpt>
      <trkpt lat="39.2370640" lon="-8.6756270">
        <ele>38.6</ele>
        <time>2019-07-12T05:05:48Z</time>
      </trkpt>
      <trkpt lat="39.2370820" lon="-8.6757000">
        <ele>38.2</ele>
        <time>2019-07-12T05:05:49Z</time>
      </trkpt>
      <trkpt lat="39.2371420" lon="-8.6758280">
        <ele>37.8</ele>
        <time>2019-07-12T05:05:51Z</time>
      </trkpt>
      <trkpt lat="39.2372110" lon="-8.6759110">
        <ele>37.0</ele>
        <time>2019-07-12T05:05:53Z</time>
      </trkpt>
      <trkpt lat="39.2372980" lon="-8.6759480">
        <ele>36.4</ele>
        <time>2019-07-12T05:05:55Z</time>
      </trkpt>
      <trkpt lat="39.2373520" lon="-8.6759470">
        <ele>35.8</ele>
        <time>2019-07-12T05:05:56Z</time>
      </trkpt>
      <trkpt lat="39.2374610" lon="-8.6759160">
        <ele>35.0</ele>
        <time>2019-07-12T05:05:58Z</time>
      </trkpt>
      <trkpt lat="39.2375130" lon="-8.6758860">
        <ele>34.8</ele>
        <time>2019-07-12T05:05:59Z</time>
      </trkpt>
      <trkpt lat="39.2376140" lon="-8.6757300">
        <ele>34.0</ele>
        <time>2019-07-12T05:06:02Z</time>
      </trkpt>
      <trkpt lat="39.2376230" lon="-8.6754480">
        <ele>33.6</ele>
        <time>2019-07-12T05:06:06Z</time>
      </trkpt>
      <trkpt lat="39.2376320" lon="-8.6751760">
        <ele>32.8</ele>
        <time>2019-07-12T05:06:10Z</time>
      </trkpt>
      <trkpt lat="39.2376400" lon="-8.6751170">
        <ele>32.6</ele>
        <time>2019-07-12T05:06:11Z</time>
      </trkpt>
      <trkpt lat="39.2376470" lon="-8.6750650">
        <ele>32.2</ele>
        <time>2019-07-12T05:06:12Z</time>
      </trkpt>
      <trkpt lat="39.2376480" lon="-8.6749800">
        <ele>32.2</ele>
        <time>2019-07-12T05:06:14Z</time>
      </trkpt>
      <trkpt lat="39.2376320" lon="-8.6749460">
        <ele>32.0</ele>
        <time>2019-07-12T05:06:15Z</time>
      </trkpt>
      <trkpt lat="39.2375310" lon="-8.6748870">
        <ele>31.6</ele>
        <time>2019-07-12T05:06:18Z</time>
      </trkpt>
      <trkpt lat="39.2375010" lon="-8.6748750">
        <ele>31.4</ele>
        <time>2019-07-12T05:06:19Z</time>
      </trkpt>
      <trkpt lat="39.2374640" lon="-8.6747770">
        <ele>30.4</ele>
        <time>2019-07-12T05:06:22Z</time>
      </trkpt>
      <trkpt lat="39.2375090" lon="-8.6746390">
        <ele>30.2</ele>
        <time>2019-07-12T05:06:25Z</time>
      </trkpt>
      <trkpt lat="39.2376070" lon="-8.6744030">
        <ele>29.6</ele>
        <time>2019-07-12T05:06:30Z</time>
      </trkpt>
      <trkpt lat="39.2376230" lon="-8.6743120">
        <ele>29.4</ele>
        <time>2019-07-12T05:06:33Z</time>
      </trkpt>
      <trkpt lat="39.2376180" lon="-8.6743050">
        <ele>29.2</ele>
        <time>2019-07-12T05:06:35Z</time>
      </trkpt>
      <trkpt lat="39.2375790" lon="-8.6742850">
        <ele>29.2</ele>
        <time>2019-07-12T05:07:03Z</time>
      </trkpt>
      <trkpt lat="39.2375580" lon="-8.6742760">
        <ele>29.2</ele>
        <time>2019-07-12T05:07:04Z</time>
      </trkpt>
      <trkpt lat="39.2375360" lon="-8.6742650">
        <ele>29.2</ele>
        <time>2019-07-12T05:07:05Z</time>
      </trkpt>
      <trkpt lat="39.2374810" lon="-8.6742320">
        <ele>29.6</ele>
        <time>2019-07-12T05:07:07Z</time>
      </trkpt>
      <trkpt lat="39.2374200" lon="-8.6741950">
        <ele>29.6</ele>
        <time>2019-07-12T05:07:09Z</time>
      </trkpt>
      <trkpt lat="39.2373860" lon="-8.6741750">
        <ele>29.6</ele>
        <time>2019-07-12T05:07:10Z</time>
      </trkpt>
      <trkpt lat="39.2372410" lon="-8.6740810">
        <ele>30.0</ele>
        <time>2019-07-12T05:07:14Z</time>
      </trkpt>
      <trkpt lat="39.2371620" lon="-8.6740420">
        <ele>29.8</ele>
        <time>2019-07-12T05:07:16Z</time>
      </trkpt>
      <trkpt lat="39.2371250" lon="-8.6740300">
        <ele>29.8</ele>
        <time>2019-07-12T05:07:17Z</time>
      </trkpt>
      <trkpt lat="39.2370030" lon="-8.6740510">
        <ele>29.8</ele>
        <time>2019-07-12T05:07:20Z</time>
      </trkpt>
      <trkpt lat="39.2369670" lon="-8.6740680">
        <ele>29.8</ele>
        <time>2019-07-12T05:07:21Z</time>
      </trkpt>
      <trkpt lat="39.2368590" lon="-8.6741550">
        <ele>30.6</ele>
        <time>2019-07-12T05:07:25Z</time>
      </trkpt>
      <trkpt lat="39.2368380" lon="-8.6741770">
        <ele>30.6</ele>
        <time>2019-07-12T05:07:26Z</time>
      </trkpt>
      <trkpt lat="39.2367970" lon="-8.6742150">
        <ele>31.0</ele>
        <time>2019-07-12T05:07:28Z</time>
      </trkpt>
      <trkpt lat="39.2367750" lon="-8.6742280">
        <ele>31.2</ele>
        <time>2019-07-12T05:07:29Z</time>
      </trkpt>
      <trkpt lat="39.2367150" lon="-8.6742200">
        <ele>31.4</ele>
        <time>2019-07-12T05:07:31Z</time>
      </trkpt>
      <trkpt lat="39.2366820" lon="-8.6742130">
        <ele>31.8</ele>
        <time>2019-07-12T05:07:32Z</time>
      </trkpt>
      <trkpt lat="39.2365490" lon="-8.6741840">
        <ele>32.2</ele>
        <time>2019-07-12T05:07:36Z</time>
      </trkpt>
      <trkpt lat="39.2365190" lon="-8.6741660">
        <ele>32.2</ele>
        <time>2019-07-12T05:07:37Z</time>
      </trkpt>
      <trkpt lat="39.2364310" lon="-8.6741130">
        <ele>32.2</ele>
        <time>2019-07-12T05:07:40Z</time>
      </trkpt>
      <trkpt lat="39.2363430" lon="-8.6740340">
        <ele>31.8</ele>
        <time>2019-07-12T05:07:44Z</time>
      </trkpt>
      <trkpt lat="39.2363350" lon="-8.6740120">
        <ele>31.8</ele>
        <time>2019-07-12T05:07:45Z</time>
      </trkpt>
      <trkpt lat="39.2362770" lon="-8.6739230">
        <ele>31.8</ele>
        <time>2019-07-12T05:07:49Z</time>
      </trkpt>
      <trkpt lat="39.2362260" lon="-8.6738920">
        <ele>31.8</ele>
        <time>2019-07-12T05:07:51Z</time>
      </trkpt>
      <trkpt lat="39.2361090" lon="-8.6738490">
        <ele>31.8</ele>
        <time>2019-07-12T05:07:55Z</time>
      </trkpt>
      <trkpt lat="39.2360390" lon="-8.6738330">
        <ele>31.2</ele>
        <time>2019-07-12T05:07:59Z</time>
      </trkpt>
      <trkpt lat="39.2360330" lon="-8.6738340">
        <ele>30.8</ele>
        <time>2019-07-12T05:08:01Z</time>
      </trkpt>
      <trkpt lat="39.2359830" lon="-8.6738060">
        <ele>31.0</ele>
        <time>2019-07-12T05:08:32Z</time>
      </trkpt>
      <trkpt lat="39.2359710" lon="-8.6737990">
        <ele>31.2</ele>
        <time>2019-07-12T05:08:33Z</time>
      </trkpt>
      <trkpt lat="39.2359530" lon="-8.6737870">
        <ele>31.2</ele>
        <time>2019-07-12T05:08:34Z</time>
      </trkpt>
      <trkpt lat="39.2358450" lon="-8.6737180">
        <ele>31.0</ele>
        <time>2019-07-12T05:08:40Z</time>
      </trkpt>
      <trkpt lat="39.2357730" lon="-8.6737130">
        <ele>30.6</ele>
        <time>2019-07-12T05:08:44Z</time>
      </trkpt>
      <trkpt lat="39.2357160" lon="-8.6737070">
        <ele>31.0</ele>
        <time>2019-07-12T05:08:47Z</time>
      </trkpt>
      <trkpt lat="39.2356930" lon="-8.6737010">
        <ele>31.2</ele>
        <time>2019-07-12T05:08:49Z</time>
      </trkpt>
      <trkpt lat="39.2356630" lon="-8.6736260">
        <ele>30.2</ele>
        <time>2019-07-12T05:08:53Z</time>
      </trkpt>
      <trkpt lat="39.2356520" lon="-8.6736190">
        <ele>30.0</ele>
        <time>2019-07-12T05:08:54Z</time>
      </trkpt>
      <trkpt lat="39.2356500" lon="-8.6736240">
        <ele>29.8</ele>
        <time>2019-07-12T05:08:55Z</time>
      </trkpt>
      <trkpt lat="39.2354660" lon="-8.6736720">
        <ele>32.4</ele>
        <time>2019-07-12T05:09:06Z</time>
      </trkpt>
      <trkpt lat="39.2354470" lon="-8.6737040">
        <ele>32.8</ele>
        <time>2019-07-12T05:09:08Z</time>
      </trkpt>
      <trkpt lat="39.2354220" lon="-8.6736990">
        <ele>33.0</ele>
        <time>2019-07-12T05:09:09Z</time>
      </trkpt>
      <trkpt lat="39.2351130" lon="-8.6736110">
        <ele>36.0</ele>
        <time>2019-07-12T05:09:35Z</time>
      </trkpt>
      <trkpt lat="39.2350940" lon="-8.6736060">
        <ele>36.2</ele>
        <time>2019-07-12T05:09:36Z</time>
      </trkpt>
      <trkpt lat="39.2350730" lon="-8.6735950">
        <ele>36.2</ele>
        <time>2019-07-12T05:09:37Z</time>
      </trkpt>
      <trkpt lat="39.2350530" lon="-8.6735800">
        <ele>36.2</ele>
        <time>2019-07-12T05:09:38Z</time>
      </trkpt>
      <trkpt lat="39.2349700" lon="-8.6735490">
        <ele>36.4</ele>
        <time>2019-07-12T05:09:41Z</time>
      </trkpt>
      <trkpt lat="39.2348290" lon="-8.6735390">
        <ele>36.2</ele>
        <time>2019-07-12T05:09:44Z</time>
      </trkpt>
      <trkpt lat="39.2347740" lon="-8.6735400">
        <ele>36.0</ele>
        <time>2019-07-12T05:09:45Z</time>
      </trkpt>
      <trkpt lat="39.2345940" lon="-8.6735150">
        <ele>35.0</ele>
        <time>2019-07-12T05:09:48Z</time>
      </trkpt>
      <trkpt lat="39.2345300" lon="-8.6735070">
        <ele>34.6</ele>
        <time>2019-07-12T05:09:49Z</time>
      </trkpt>
      <trkpt lat="39.2344620" lon="-8.6735060">
        <ele>34.2</ele>
        <time>2019-07-12T05:09:50Z</time>
      </trkpt>
      <trkpt lat="39.2343950" lon="-8.6735140">
        <ele>33.8</ele>
        <time>2019-07-12T05:09:51Z</time>
      </trkpt>
      <trkpt lat="39.2341140" lon="-8.6735550">
        <ele>32.8</ele>
        <time>2019-07-12T05:09:55Z</time>
      </trkpt>
      <trkpt lat="39.2340440" lon="-8.6735640">
        <ele>32.6</ele>
        <time>2019-07-12T05:09:56Z</time>
      </trkpt>
      <trkpt lat="39.2337710" lon="-8.6736180">
        <ele>32.6</ele>
        <time>2019-07-12T05:10:00Z</time>
      </trkpt>
      <trkpt lat="39.2336380" lon="-8.6736450">
        <ele>32.6</ele>
        <time>2019-07-12T05:10:02Z</time>
      </trkpt>
      <trkpt lat="39.2335700" lon="-8.6736590">
        <ele>32.4</ele>
        <time>2019-07-12T05:10:03Z</time>
      </trkpt>
      <trkpt lat="39.2333740" lon="-8.6737130">
        <ele>32.4</ele>
        <time>2019-07-12T05:10:06Z</time>
      </trkpt>
      <trkpt lat="39.2331190" lon="-8.6737820">
        <ele>32.4</ele>
        <time>2019-07-12T05:10:10Z</time>
      </trkpt>
      <trkpt lat="39.2329260" lon="-8.6738280">
        <ele>32.4</ele>
        <time>2019-07-12T05:10:13Z</time>
      </trkpt>
      <trkpt lat="39.2324100" lon="-8.6739730">
        <ele>32.0</ele>
        <time>2019-07-12T05:10:21Z</time>
      </trkpt>
      <trkpt lat="39.2323460" lon="-8.6739910">
        <ele>32.0</ele>
        <time>2019-07-12T05:10:22Z</time>
      </trkpt>
      <trkpt lat="39.2317800" lon="-8.6741440">
        <ele>31.4</ele>
        <time>2019-07-12T05:10:31Z</time>
      </trkpt>
      <trkpt lat="39.2317190" lon="-8.6741610">
        <ele>31.2</ele>
        <time>2019-07-12T05:10:32Z</time>
      </trkpt>
      <trkpt lat="39.2314800" lon="-8.6742290">
        <ele>31.0</ele>
        <time>2019-07-12T05:10:36Z</time>
      </trkpt>
      <trkpt lat="39.2312120" lon="-8.6743090">
        <ele>31.4</ele>
        <time>2019-07-12T05:10:41Z</time>
      </trkpt>
      <trkpt lat="39.2310630" lon="-8.6743460">
        <ele>31.4</ele>
        <time>2019-07-12T05:10:44Z</time>
      </trkpt>
      <trkpt lat="39.2309670" lon="-8.6743900">
        <ele>31.0</ele>
        <time>2019-07-12T05:10:46Z</time>
      </trkpt>
      <trkpt lat="39.2308670" lon="-8.6744210">
        <ele>30.8</ele>
        <time>2019-07-12T05:10:48Z</time>
      </trkpt>
      <trkpt lat="39.2307600" lon="-8.6744570">
        <ele>30.6</ele>
        <time>2019-07-12T05:10:50Z</time>
      </trkpt>
      <trkpt lat="39.2307060" lon="-8.6744860">
        <ele>30.2</ele>
        <time>2019-07-12T05:10:51Z</time>
      </trkpt>
      <trkpt lat="39.2306550" lon="-8.6745250">
        <ele>30.0</ele>
        <time>2019-07-12T05:10:52Z</time>
      </trkpt>
      <trkpt lat="39.2305000" lon="-8.6746450">
        <ele>28.8</ele>
        <time>2019-07-12T05:10:55Z</time>
      </trkpt>
      <trkpt lat="39.2304480" lon="-8.6746790">
        <ele>28.6</ele>
        <time>2019-07-12T05:10:56Z</time>
      </trkpt>
      <trkpt lat="39.2303940" lon="-8.6747040">
        <ele>28.4</ele>
        <time>2019-07-12T05:10:57Z</time>
      </trkpt>
      <trkpt lat="39.2303000" lon="-8.6747130">
        <ele>28.6</ele>
        <time>2019-07-12T05:10:59Z</time>
      </trkpt>
      <trkpt lat="39.2302340" lon="-8.6747030">
        <ele>28.6</ele>
        <time>2019-07-12T05:11:01Z</time>
      </trkpt>
      <trkpt lat="39.2301800" lon="-8.6747220">
        <ele>29.4</ele>
        <time>2019-07-12T05:11:03Z</time>
      </trkpt>
      <trkpt lat="39.2301580" lon="-8.6747370">
        <ele>29.6</ele>
        <time>2019-07-12T05:11:04Z</time>
      </trkpt>
      <trkpt lat="39.2301150" lon="-8.6747650">
        <ele>30.0</ele>
        <time>2019-07-12T05:11:06Z</time>
      </trkpt>
      <trkpt lat="39.2300090" lon="-8.6748300">
        <ele>30.8</ele>
        <time>2019-07-12T05:11:11Z</time>
      </trkpt>
      <trkpt lat="39.2299870" lon="-8.6748430">
        <ele>31.4</ele>
        <time>2019-07-12T05:11:12Z</time>
      </trkpt>
      <trkpt lat="39.2299260" lon="-8.6748810">
        <ele>32.4</ele>
        <time>2019-07-12T05:11:15Z</time>
      </trkpt>
      <trkpt lat="39.2298890" lon="-8.6749080">
        <ele>33.2</ele>
        <time>2019-07-12T05:11:17Z</time>
      </trkpt>
      <trkpt lat="39.2298730" lon="-8.6749260">
        <ele>33.6</ele>
        <time>2019-07-12T05:11:18Z</time>
      </trkpt>
      <trkpt lat="39.2298580" lon="-8.6749420">
        <ele>34.0</ele>
        <time>2019-07-12T05:11:19Z</time>
      </trkpt>
      <trkpt lat="39.2298330" lon="-8.6749700">
        <ele>34.4</ele>
        <time>2019-07-12T05:11:21Z</time>
      </trkpt>
      <trkpt lat="39.2298180" lon="-8.6749830">
        <ele>34.6</ele>
        <time>2019-07-12T05:11:22Z</time>
      </trkpt>
      <trkpt lat="39.2297950" lon="-8.6750100">
        <ele>35.6</ele>
        <time>2019-07-12T05:11:24Z</time>
      </trkpt>
      <trkpt lat="39.2297880" lon="-8.6750240">
        <ele>35.8</ele>
        <time>2019-07-12T05:11:25Z</time>
      </trkpt>
      <trkpt lat="39.2297810" lon="-8.6750530">
        <ele>36.4</ele>
        <time>2019-07-12T05:11:27Z</time>
      </trkpt>
      <trkpt lat="39.2297780" lon="-8.6750580">
        <ele>36.6</ele>
        <time>2019-07-12T05:11:28Z</time>
      </trkpt>
      <trkpt lat="39.2297770" lon="-8.6750570">
        <ele>36.8</ele>
        <time>2019-07-12T05:11:29Z</time>
      </trkpt>
      <trkpt lat="39.2298030" lon="-8.6756310">
        <ele>47.2</ele>
        <time>2019-07-12T05:12:37Z</time>
      </trkpt>
      <trkpt lat="39.2297820" lon="-8.6756720">
        <ele>48.2</ele>
        <time>2019-07-12T05:12:42Z</time>
      </trkpt>
      <trkpt lat="39.2297140" lon="-8.6757670">
        <ele>49.0</ele>
        <time>2019-07-12T05:12:55Z</time>
      </trkpt>
      <trkpt lat="39.2296630" lon="-8.6758350">
        <ele>49.0</ele>
        <time>2019-07-12T05:12:58Z</time>
      </trkpt>
      <trkpt lat="39.2296190" lon="-8.6758900">
        <ele>49.0</ele>
        <time>2019-07-12T05:13:00Z</time>
      </trkpt>
      <trkpt lat="39.2295410" lon="-8.6759930">
        <ele>49.0</ele>
        <time>2019-07-12T05:13:03Z</time>
      </trkpt>
      <trkpt lat="39.2295200" lon="-8.6760380">
        <ele>49.0</ele>
        <time>2019-07-12T05:13:04Z</time>
      </trkpt>
      <trkpt lat="39.2294990" lon="-8.6760870">
        <ele>49.0</ele>
        <time>2019-07-12T05:13:05Z</time>
      </trkpt>
      <trkpt lat="39.2294760" lon="-8.6761390">
        <ele>49.0</ele>
        <time>2019-07-12T05:13:06Z</time>
      </trkpt>
      <trkpt lat="39.2294530" lon="-8.6761950">
        <ele>48.8</ele>
        <time>2019-07-12T05:13:07Z</time>
      </trkpt>
      <trkpt lat="39.2293990" lon="-8.6763020">
        <ele>48.4</ele>
        <time>2019-07-12T05:13:09Z</time>
      </trkpt>
      <trkpt lat="39.2293270" lon="-8.6763810">
        <ele>48.0</ele>
        <time>2019-07-12T05:13:11Z</time>
      </trkpt>
      <trkpt lat="39.2291860" lon="-8.6764330">
        <ele>47.8</ele>
        <time>2019-07-12T05:13:14Z</time>
      </trkpt>
      <trkpt lat="39.2291350" lon="-8.6764430">
        <ele>47.6</ele>
        <time>2019-07-12T05:13:15Z</time>
      </trkpt>
      <trkpt lat="39.2290340" lon="-8.6764650">
        <ele>47.4</ele>
        <time>2019-07-12T05:13:17Z</time>
      </trkpt>
      <trkpt lat="39.2288280" lon="-8.6765100">
        <ele>47.6</ele>
        <time>2019-07-12T05:13:21Z</time>
      </trkpt>
      <trkpt lat="39.2287820" lon="-8.6765340">
        <ele>47.6</ele>
        <time>2019-07-12T05:13:22Z</time>
      </trkpt>
      <trkpt lat="39.2286480" lon="-8.6766480">
        <ele>48.2</ele>
        <time>2019-07-12T05:13:26Z</time>
      </trkpt>
      <trkpt lat="39.2286260" lon="-8.6766710">
        <ele>48.4</ele>
        <time>2019-07-12T05:13:27Z</time>
      </trkpt>
      <trkpt lat="39.2285780" lon="-8.6767200">
        <ele>48.8</ele>
        <time>2019-07-12T05:13:29Z</time>
      </trkpt>
      <trkpt lat="39.2284930" lon="-8.6768240">
        <ele>50.0</ele>
        <time>2019-07-12T05:13:33Z</time>
      </trkpt>
      <trkpt lat="39.2284710" lon="-8.6768490">
        <ele>50.4</ele>
        <time>2019-07-12T05:13:34Z</time>
      </trkpt>
      <trkpt lat="39.2284020" lon="-8.6769230">
        <ele>50.8</ele>
        <time>2019-07-12T05:13:37Z</time>
      </trkpt>
      <trkpt lat="39.2283570" lon="-8.6769790">
        <ele>51.2</ele>
        <time>2019-07-12T05:13:39Z</time>
      </trkpt>
      <trkpt lat="39.2283120" lon="-8.6770350">
        <ele>51.8</ele>
        <time>2019-07-12T05:13:41Z</time>
      </trkpt>
      <trkpt lat="39.2282480" lon="-8.6771280">
        <ele>52.4</ele>
        <time>2019-07-12T05:13:44Z</time>
      </trkpt>
      <trkpt lat="39.2281680" lon="-8.6772690">
        <ele>53.2</ele>
        <time>2019-07-12T05:13:48Z</time>
      </trkpt>
      <trkpt lat="39.2280360" lon="-8.6773750">
        <ele>53.4</ele>
        <time>2019-07-12T05:13:52Z</time>
      </trkpt>
      <trkpt lat="39.2277950" lon="-8.6773880">
        <ele>53.0</ele>
        <time>2019-07-12T05:13:57Z</time>
      </trkpt>
      <trkpt lat="39.2276340" lon="-8.6773590">
        <ele>52.6</ele>
        <time>2019-07-12T05:14:00Z</time>
      </trkpt>
      <trkpt lat="39.2275350" lon="-8.6773150">
        <ele>52.6</ele>
        <time>2019-07-12T05:14:02Z</time>
      </trkpt>
      <trkpt lat="39.2273970" lon="-8.6772550">
        <ele>52.8</ele>
        <time>2019-07-12T05:14:05Z</time>
      </trkpt>
      <trkpt lat="39.2272720" lon="-8.6772360">
        <ele>53.6</ele>
        <time>2019-07-12T05:14:08Z</time>
      </trkpt>
      <trkpt lat="39.2270510" lon="-8.6772830">
        <ele>54.8</ele>
        <time>2019-07-12T05:14:14Z</time>
      </trkpt>
      <trkpt lat="39.2267690" lon="-8.6773940">
        <ele>55.2</ele>
        <time>2019-07-12T05:14:21Z</time>
      </trkpt>
      <trkpt lat="39.2267270" lon="-8.6774140">
        <ele>55.2</ele>
        <time>2019-07-12T05:14:22Z</time>
      </trkpt>
      <trkpt lat="39.2266000" lon="-8.6774700">
        <ele>55.4</ele>
        <time>2019-07-12T05:14:25Z</time>
      </trkpt>
      <trkpt lat="39.2264370" lon="-8.6775360">
        <ele>55.4</ele>
        <time>2019-07-12T05:14:29Z</time>
      </trkpt>
      <trkpt lat="39.2263970" lon="-8.6775500">
        <ele>55.6</ele>
        <time>2019-07-12T05:14:30Z</time>
      </trkpt>
      <trkpt lat="39.2262800" lon="-8.6775770">
        <ele>56.0</ele>
        <time>2019-07-12T05:14:33Z</time>
      </trkpt>
      <trkpt lat="39.2261700" lon="-8.6776100">
        <ele>56.0</ele>
        <time>2019-07-12T05:14:36Z</time>
      </trkpt>
      <trkpt lat="39.2260240" lon="-8.6776720">
        <ele>56.4</ele>
        <time>2019-07-12T05:14:40Z</time>
      </trkpt>
      <trkpt lat="39.2259550" lon="-8.6777110">
        <ele>56.8</ele>
        <time>2019-07-12T05:14:42Z</time>
      </trkpt>
      <trkpt lat="39.2259220" lon="-8.6777320">
        <ele>57.4</ele>
        <time>2019-07-12T05:14:43Z</time>
      </trkpt>
      <trkpt lat="39.2257890" lon="-8.6778290">
        <ele>57.8</ele>
        <time>2019-07-12T05:14:48Z</time>
      </trkpt>
      <trkpt lat="39.2257290" lon="-8.6778720">
        <ele>58.8</ele>
        <time>2019-07-12T05:14:51Z</time>
      </trkpt>
      <trkpt lat="39.2256630" lon="-8.6779110">
        <ele>59.8</ele>
        <time>2019-07-12T05:14:54Z</time>
      </trkpt>
      <trkpt lat="39.2256420" lon="-8.6779230">
        <ele>60.2</ele>
        <time>2019-07-12T05:14:55Z</time>
      </trkpt>
      <trkpt lat="39.2256200" lon="-8.6779350">
        <ele>60.6</ele>
        <time>2019-07-12T05:14:56Z</time>
      </trkpt>
      <trkpt lat="39.2255990" lon="-8.6779480">
        <ele>61.0</ele>
        <time>2019-07-12T05:14:57Z</time>
      </trkpt>
      <trkpt lat="39.2255620" lon="-8.6779660">
        <ele>61.6</ele>
        <time>2019-07-12T05:14:59Z</time>
      </trkpt>
      <trkpt lat="39.2255460" lon="-8.6779740">
        <ele>62.2</ele>
        <time>2019-07-12T05:15:00Z</time>
      </trkpt>
      <trkpt lat="39.2255150" lon="-8.6779920">
        <ele>63.0</ele>
        <time>2019-07-12T05:15:02Z</time>
      </trkpt>
      <trkpt lat="39.2255000" lon="-8.6780020">
        <ele>63.2</ele>
        <time>2019-07-12T05:15:03Z</time>
      </trkpt>
      <trkpt lat="39.2254470" lon="-8.6780210">
        <ele>64.2</ele>
        <time>2019-07-12T05:15:06Z</time>
      </trkpt>
      <trkpt lat="39.2254270" lon="-8.6780280">
        <ele>64.6</ele>
        <time>2019-07-12T05:15:07Z</time>
      </trkpt>
      <trkpt lat="39.2253850" lon="-8.6780500">
        <ele>65.2</ele>
        <time>2019-07-12T05:15:09Z</time>
      </trkpt>
      <trkpt lat="39.2253090" lon="-8.6780710">
        <ele>65.8</ele>
        <time>2019-07-12T05:15:12Z</time>
      </trkpt>
      <trkpt lat="39.2252520" lon="-8.6780690">
        <ele>66.0</ele>
        <time>2019-07-12T05:15:14Z</time>
      </trkpt>
      <trkpt lat="39.2250570" lon="-8.6780330">
        <ele>66.4</ele>
        <time>2019-07-12T05:15:20Z</time>
      </trkpt>
      <trkpt lat="39.2248470" lon="-8.6780040">
        <ele>64.8</ele>
        <time>2019-07-12T05:15:26Z</time>
      </trkpt>
      <trkpt lat="39.2247840" lon="-8.6780080">
        <ele>64.2</ele>
        <time>2019-07-12T05:15:28Z</time>
      </trkpt>
      <trkpt lat="39.2247090" lon="-8.6780230">
        <ele>63.4</ele>
        <time>2019-07-12T05:15:30Z</time>
      </trkpt>
      <trkpt lat="39.2246340" lon="-8.6780430">
        <ele>62.2</ele>
        <time>2019-07-12T05:15:32Z</time>
      </trkpt>
      <trkpt lat="39.2245520" lon="-8.6780690">
        <ele>61.6</ele>
        <time>2019-07-12T05:15:34Z</time>
      </trkpt>
      <trkpt lat="39.2245080" lon="-8.6780890">
        <ele>61.2</ele>
        <time>2019-07-12T05:15:35Z</time>
      </trkpt>
      <trkpt lat="39.2244650" lon="-8.6781170">
        <ele>61.0</ele>
        <time>2019-07-12T05:15:36Z</time>
      </trkpt>
      <trkpt lat="39.2243760" lon="-8.6781620">
        <ele>60.8</ele>
        <time>2019-07-12T05:15:38Z</time>
      </trkpt>
      <trkpt lat="39.2242300" lon="-8.6781860">
        <ele>60.4</ele>
        <time>2019-07-12T05:15:41Z</time>
      </trkpt>
      <trkpt lat="39.2241210" lon="-8.6781890">
        <ele>60.2</ele>
        <time>2019-07-12T05:15:43Z</time>
      </trkpt>
      <trkpt lat="39.2240640" lon="-8.6781980">
        <ele>60.0</ele>
        <time>2019-07-12T05:15:44Z</time>
      </trkpt>
      <trkpt lat="39.2239020" lon="-8.6782340">
        <ele>59.6</ele>
        <time>2019-07-12T05:15:47Z</time>
      </trkpt>
      <trkpt lat="39.2236200" lon="-8.6783220">
        <ele>60.0</ele>
        <time>2019-07-12T05:15:53Z</time>
      </trkpt>
      <trkpt lat="39.2235730" lon="-8.6783390">
        <ele>60.2</ele>
        <time>2019-07-12T05:15:54Z</time>
      </trkpt>
      <trkpt lat="39.2232520" lon="-8.6784970">
        <ele>60.4</ele>
        <time>2019-07-12T05:16:01Z</time>
      </trkpt>
      <trkpt lat="39.2230220" lon="-8.6785750">
        <ele>61.4</ele>
        <time>2019-07-12T05:16:06Z</time>
      </trkpt>
      <trkpt lat="39.2229830" lon="-8.6785880">
        <ele>61.6</ele>
        <time>2019-07-12T05:16:07Z</time>
      </trkpt>
      <trkpt lat="39.2228710" lon="-8.6786240">
        <ele>62.4</ele>
        <time>2019-07-12T05:16:10Z</time>
      </trkpt>
      <trkpt lat="39.2227190" lon="-8.6786790">
        <ele>62.8</ele>
        <time>2019-07-12T05:16:14Z</time>
      </trkpt>
      <trkpt lat="39.2226790" lon="-8.6786960">
        <ele>63.0</ele>
        <time>2019-07-12T05:16:15Z</time>
      </trkpt>
      <trkpt lat="39.2224320" lon="-8.6787930">
        <ele>63.2</ele>
        <time>2019-07-12T05:16:21Z</time>
      </trkpt>
      <trkpt lat="39.2223120" lon="-8.6788670">
        <ele>63.4</ele>
        <time>2019-07-12T05:16:24Z</time>
      </trkpt>
      <trkpt lat="39.2222760" lon="-8.6788980">
        <ele>63.6</ele>
        <time>2019-07-12T05:16:25Z</time>
      </trkpt>
      <trkpt lat="39.2222110" lon="-8.6789670">
        <ele>64.0</ele>
        <time>2019-07-12T05:16:27Z</time>
      </trkpt>
      <trkpt lat="39.2220530" lon="-8.6791340">
        <ele>64.4</ele>
        <time>2019-07-12T05:16:32Z</time>
      </trkpt>
      <trkpt lat="39.2219650" lon="-8.6792500">
        <ele>64.8</ele>
        <time>2019-07-12T05:16:35Z</time>
      </trkpt>
      <trkpt lat="39.2219380" lon="-8.6792960">
        <ele>64.8</ele>
        <time>2019-07-12T05:16:36Z</time>
      </trkpt>
      <trkpt lat="39.2218790" lon="-8.6794020">
        <ele>64.6</ele>
        <time>2019-07-12T05:16:38Z</time>
      </trkpt>
      <trkpt lat="39.2218100" lon="-8.6795220">
        <ele>63.4</ele>
        <time>2019-07-12T05:16:40Z</time>
      </trkpt>
      <trkpt lat="39.2217720" lon="-8.6795790">
        <ele>62.2</ele>
        <time>2019-07-12T05:16:41Z</time>
      </trkpt>
      <trkpt lat="39.2216980" lon="-8.6796880">
        <ele>61.0</ele>
        <time>2019-07-12T05:16:43Z</time>
      </trkpt>
      <trkpt lat="39.2216310" lon="-8.6797820">
        <ele>60.2</ele>
        <time>2019-07-12T05:16:45Z</time>
      </trkpt>
      <trkpt lat="39.2215930" lon="-8.6798230">
        <ele>59.8</ele>
        <time>2019-07-12T05:16:46Z</time>
      </trkpt>
      <trkpt lat="39.2215060" lon="-8.6799120">
        <ele>59.4</ele>
        <time>2019-07-12T05:16:48Z</time>
      </trkpt>
      <trkpt lat="39.2214110" lon="-8.6799900">
        <ele>58.8</ele>
        <time>2019-07-12T05:16:50Z</time>
      </trkpt>
      <trkpt lat="39.2213650" lon="-8.6800270">
        <ele>57.8</ele>
        <time>2019-07-12T05:16:51Z</time>
      </trkpt>
      <trkpt lat="39.2213190" lon="-8.6800680">
        <ele>57.4</ele>
        <time>2019-07-12T05:16:52Z</time>
      </trkpt>
      <trkpt lat="39.2212220" lon="-8.6801540">
        <ele>56.4</ele>
        <time>2019-07-12T05:16:54Z</time>
      </trkpt>
      <trkpt lat="39.2211700" lon="-8.6801950">
        <ele>55.6</ele>
        <time>2019-07-12T05:16:55Z</time>
      </trkpt>
      <trkpt lat="39.2210720" lon="-8.6802790">
        <ele>54.6</ele>
        <time>2019-07-12T05:16:57Z</time>
      </trkpt>
      <trkpt lat="39.2209150" lon="-8.6804070">
        <ele>53.4</ele>
        <time>2019-07-12T05:17:00Z</time>
      </trkpt>
      <trkpt lat="39.2208040" lon="-8.6804710">
        <ele>53.0</ele>
        <time>2019-07-12T05:17:02Z</time>
      </trkpt>
      <trkpt lat="39.2207490" lon="-8.6804960">
        <ele>52.4</ele>
        <time>2019-07-12T05:17:03Z</time>
      </trkpt>
      <trkpt lat="39.2206020" lon="-8.6805730">
        <ele>51.4</ele>
        <time>2019-07-12T05:17:06Z</time>
      </trkpt>
      <trkpt lat="39.2205070" lon="-8.6806350">
        <ele>50.8</ele>
        <time>2019-07-12T05:17:08Z</time>
      </trkpt>
      <trkpt lat="39.2204560" lon="-8.6806650">
        <ele>50.2</ele>
        <time>2019-07-12T05:17:09Z</time>
      </trkpt>
      <trkpt lat="39.2203690" lon="-8.6807240">
        <ele>49.0</ele>
        <time>2019-07-12T05:17:11Z</time>
      </trkpt>
      <trkpt lat="39.2203040" lon="-8.6807880">
        <ele>47.8</ele>
        <time>2019-07-12T05:17:13Z</time>
      </trkpt>
      <trkpt lat="39.2202750" lon="-8.6808100">
        <ele>47.6</ele>
        <time>2019-07-12T05:17:14Z</time>
      </trkpt>
      <trkpt lat="39.2201740" lon="-8.6808530">
        <ele>46.6</ele>
        <time>2019-07-12T05:17:17Z</time>
      </trkpt>
      <trkpt lat="39.2201320" lon="-8.6808640">
        <ele>46.2</ele>
        <time>2019-07-12T05:17:18Z</time>
      </trkpt>
      <trkpt lat="39.2199800" lon="-8.6809310">
        <ele>45.4</ele>
        <time>2019-07-12T05:17:21Z</time>
      </trkpt>
      <trkpt lat="39.2198740" lon="-8.6809820">
        <ele>44.4</ele>
        <time>2019-07-12T05:17:23Z</time>
      </trkpt>
      <trkpt lat="39.2198230" lon="-8.6810030">
        <ele>43.6</ele>
        <time>2019-07-12T05:17:24Z</time>
      </trkpt>
      <trkpt lat="39.2196470" lon="-8.6810740">
        <ele>42.2</ele>
        <time>2019-07-12T05:17:27Z</time>
      </trkpt>
      <trkpt lat="39.2195810" lon="-8.6810950">
        <ele>41.6</ele>
        <time>2019-07-12T05:17:28Z</time>
      </trkpt>
      <trkpt lat="39.2195140" lon="-8.6811160">
        <ele>41.2</ele>
        <time>2019-07-12T05:17:29Z</time>
      </trkpt>
      <trkpt lat="39.2193240" lon="-8.6811730">
        <ele>39.2</ele>
        <time>2019-07-12T05:17:32Z</time>
      </trkpt>
      <trkpt lat="39.2191680" lon="-8.6812390">
        <ele>38.0</ele>
        <time>2019-07-12T05:17:35Z</time>
      </trkpt>
      <trkpt lat="39.2189890" lon="-8.6813430">
        <ele>36.8</ele>
        <time>2019-07-12T05:17:39Z</time>
      </trkpt>
      <trkpt lat="39.2189230" lon="-8.6813960">
        <ele>35.4</ele>
        <time>2019-07-12T05:17:41Z</time>
      </trkpt>
      <trkpt lat="39.2188130" lon="-8.6814980">
        <ele>34.8</ele>
        <time>2019-07-12T05:17:46Z</time>
      </trkpt>
      <trkpt lat="39.2187670" lon="-8.6815250">
        <ele>34.6</ele>
        <time>2019-07-12T05:17:47Z</time>
      </trkpt>
      <trkpt lat="39.2187230" lon="-8.6815540">
        <ele>32.4</ele>
        <time>2019-07-12T05:18:54Z</time>
      </trkpt>
      <trkpt lat="39.2186800" lon="-8.6815820">
        <ele>32.4</ele>
        <time>2019-07-12T05:18:55Z</time>
      </trkpt>
      <trkpt lat="39.2186360" lon="-8.6816110">
        <ele>32.4</ele>
        <time>2019-07-12T05:18:56Z</time>
      </trkpt>
      <trkpt lat="39.2185930" lon="-8.6816400">
        <ele>31.6</ele>
        <time>2019-07-12T05:19:03Z</time>
      </trkpt>
      <trkpt lat="39.2185500" lon="-8.6816690">
        <ele>31.4</ele>
        <time>2019-07-12T05:19:05Z</time>
      </trkpt>
      <trkpt lat="39.2185060" lon="-8.6816980">
        <ele>31.4</ele>
        <time>2019-07-12T05:19:06Z</time>
      </trkpt>
      <trkpt lat="39.2184630" lon="-8.6817260">
        <ele>32.2</ele>
        <time>2019-07-12T05:19:10Z</time>
      </trkpt>
      <trkpt lat="39.2184190" lon="-8.6817550">
        <ele>32.0</ele>
        <time>2019-07-12T05:19:18Z</time>
      </trkpt>
      <trkpt lat="39.2183760" lon="-8.6817840">
        <ele>31.8</ele>
        <time>2019-07-12T05:19:19Z</time>
      </trkpt>
      <trkpt lat="39.2182630" lon="-8.6818760">
        <ele>30.4</ele>
        <time>2019-07-12T05:19:22Z</time>
      </trkpt>
      <trkpt lat="39.2182230" lon="-8.6819090">
        <ele>30.4</ele>
        <time>2019-07-12T05:19:23Z</time>
      </trkpt>
      <trkpt lat="39.2181800" lon="-8.6819400">
        <ele>30.2</ele>
        <time>2019-07-12T05:19:24Z</time>
      </trkpt>
      <trkpt lat="39.2180010" lon="-8.6820740">
        <ele>29.8</ele>
        <time>2019-07-12T05:19:28Z</time>
      </trkpt>
      <trkpt lat="39.2178390" lon="-8.6822260">
        <ele>29.2</ele>
        <time>2019-07-12T05:19:32Z</time>
      </trkpt>
      <trkpt lat="39.2177500" lon="-8.6822950">
        <ele>28.8</ele>
        <time>2019-07-12T05:19:34Z</time>
      </trkpt>
      <trkpt lat="39.2175980" lon="-8.6824020">
        <ele>28.6</ele>
        <time>2019-07-12T05:19:37Z</time>
      </trkpt>
      <trkpt lat="39.2174940" lon="-8.6824790">
        <ele>28.0</ele>
        <time>2019-07-12T05:19:39Z</time>
      </trkpt>
      <trkpt lat="39.2174420" lon="-8.6825160">
        <ele>27.8</ele>
        <time>2019-07-12T05:19:40Z</time>
      </trkpt>
      <trkpt lat="39.2171800" lon="-8.6827170">
        <ele>27.6</ele>
        <time>2019-07-12T05:19:45Z</time>
      </trkpt>
      <trkpt lat="39.2169620" lon="-8.6828630">
        <ele>27.6</ele>
        <time>2019-07-12T05:19:49Z</time>
      </trkpt>
      <trkpt lat="39.2167970" lon="-8.6829480">
        <ele>27.4</ele>
        <time>2019-07-12T05:19:52Z</time>
      </trkpt>
      <trkpt lat="39.2165120" lon="-8.6830560">
        <ele>27.4</ele>
        <time>2019-07-12T05:19:57Z</time>
      </trkpt>
      <trkpt lat="39.2160760" lon="-8.6830780">
        <ele>27.2</ele>
        <time>2019-07-12T05:20:04Z</time>
      </trkpt>
      <trkpt lat="39.2160130" lon="-8.6830710">
        <ele>27.0</ele>
        <time>2019-07-12T05:20:05Z</time>
      </trkpt>
      <trkpt lat="39.2156330" lon="-8.6830020">
        <ele>27.0</ele>
        <time>2019-07-12T05:20:11Z</time>
      </trkpt>
      <trkpt lat="39.2152550" lon="-8.6829310">
        <ele>26.8</ele>
        <time>2019-07-12T05:20:17Z</time>
      </trkpt>
      <trkpt lat="39.2150570" lon="-8.6829030">
        <ele>26.6</ele>
        <time>2019-07-12T05:20:20Z</time>
      </trkpt>
      <trkpt lat="39.2145970" lon="-8.6828970">
        <ele>26.2</ele>
        <time>2019-07-12T05:20:27Z</time>
      </trkpt>
      <trkpt lat="39.2144030" lon="-8.6828910">
        <ele>26.0</ele>
        <time>2019-07-12T05:20:30Z</time>
      </trkpt>
      <trkpt lat="39.2142120" lon="-8.6828500">
        <ele>26.0</ele>
        <time>2019-07-12T05:20:33Z</time>
      </trkpt>
      <trkpt lat="39.2138600" lon="-8.6826390">
        <ele>26.2</ele>
        <time>2019-07-12T05:20:39Z</time>
      </trkpt>
      <trkpt lat="39.2134210" lon="-8.6823140">
        <ele>25.8</ele>
        <time>2019-07-12T05:20:47Z</time>
      </trkpt>
      <trkpt lat="39.2131550" lon="-8.6821090">
        <ele>26.0</ele>
        <time>2019-07-12T05:20:52Z</time>
      </trkpt>
      <trkpt lat="39.2130980" lon="-8.6820770">
        <ele>26.0</ele>
        <time>2019-07-12T05:20:53Z</time>
      </trkpt>
      <trkpt lat="39.2129160" lon="-8.6820200">
        <ele>25.8</ele>
        <time>2019-07-12T05:20:56Z</time>
      </trkpt>
      <trkpt lat="39.2127890" lon="-8.6820180">
        <ele>25.6</ele>
        <time>2019-07-12T05:20:58Z</time>
      </trkpt>
      <trkpt lat="39.2124920" lon="-8.6821450">
        <ele>25.4</ele>
        <time>2019-07-12T05:21:03Z</time>
      </trkpt>
      <trkpt lat="39.2124390" lon="-8.6821860">
        <ele>25.4</ele>
        <time>2019-07-12T05:21:04Z</time>
      </trkpt>
      <trkpt lat="39.2119680" lon="-8.6825550">
        <ele>25.8</ele>
        <time>2019-07-12T05:21:13Z</time>
      </trkpt>
      <trkpt lat="39.2119150" lon="-8.6825950">
        <ele>25.8</ele>
        <time>2019-07-12T05:21:14Z</time>
      </trkpt>
      <trkpt lat="39.2114550" lon="-8.6829790">
        <ele>26.0</ele>
        <time>2019-07-12T05:21:23Z</time>
      </trkpt>
      <trkpt lat="39.2114060" lon="-8.6830250">
        <ele>25.8</ele>
        <time>2019-07-12T05:21:24Z</time>
      </trkpt>
      <trkpt lat="39.2113600" lon="-8.6830770">
        <ele>25.8</ele>
        <time>2019-07-12T05:21:25Z</time>
      </trkpt>
      <trkpt lat="39.2111500" lon="-8.6833570">
        <ele>25.8</ele>
        <time>2019-07-12T05:21:30Z</time>
      </trkpt>
      <trkpt lat="39.2107290" lon="-8.6838950">
        <ele>25.8</ele>
        <time>2019-07-12T05:21:40Z</time>
      </trkpt>
      <trkpt lat="39.2104820" lon="-8.6842100">
        <ele>26.0</ele>
        <time>2019-07-12T05:21:46Z</time>
      </trkpt>
      <trkpt lat="39.2103170" lon="-8.6844240">
        <ele>26.0</ele>
        <time>2019-07-12T05:21:50Z</time>
      </trkpt>
      <trkpt lat="39.2102730" lon="-8.6844740">
        <ele>25.8</ele>
        <time>2019-07-12T05:21:51Z</time>
      </trkpt>
      <trkpt lat="39.2100800" lon="-8.6846250">
        <ele>25.6</ele>
        <time>2019-07-12T05:21:55Z</time>
      </trkpt>
      <trkpt lat="39.2100330" lon="-8.6846560">
        <ele>25.6</ele>
        <time>2019-07-12T05:21:56Z</time>
      </trkpt>
      <trkpt lat="39.2099300" lon="-8.6847130">
        <ele>25.6</ele>
        <time>2019-07-12T05:21:58Z</time>
      </trkpt>
      <trkpt lat="39.2097670" lon="-8.6847800">
        <ele>25.6</ele>
        <time>2019-07-12T05:22:01Z</time>
      </trkpt>
      <trkpt lat="39.2093260" lon="-8.6849710">
        <ele>25.8</ele>
        <time>2019-07-12T05:22:09Z</time>
      </trkpt>
      <trkpt lat="39.2092710" lon="-8.6849970">
        <ele>25.8</ele>
        <time>2019-07-12T05:22:10Z</time>
      </trkpt>
      <trkpt lat="39.2087040" lon="-8.6852320">
        <ele>26.2</ele>
        <time>2019-07-12T05:22:20Z</time>
      </trkpt>
      <trkpt lat="39.2083610" lon="-8.6853820">
        <ele>26.4</ele>
        <time>2019-07-12T05:22:26Z</time>
      </trkpt>
      <trkpt lat="39.2079600" lon="-8.6855580">
        <ele>26.6</ele>
        <time>2019-07-12T05:22:33Z</time>
      </trkpt>
      <trkpt lat="39.2079020" lon="-8.6855820">
        <ele>26.4</ele>
        <time>2019-07-12T05:22:34Z</time>
      </trkpt>
      <trkpt lat="39.2073340" lon="-8.6858130">
        <ele>26.4</ele>
        <time>2019-07-12T05:22:44Z</time>
      </trkpt>
      <trkpt lat="39.2072770" lon="-8.6858350">
        <ele>26.4</ele>
        <time>2019-07-12T05:22:45Z</time>
      </trkpt>
      <trkpt lat="39.2068900" lon="-8.6860150">
        <ele>26.2</ele>
        <time>2019-07-12T05:22:52Z</time>
      </trkpt>
      <trkpt lat="39.2065020" lon="-8.6861710">
        <ele>26.4</ele>
        <time>2019-07-12T05:22:59Z</time>
      </trkpt>
      <trkpt lat="39.2063960" lon="-8.6862300">
        <ele>26.6</ele>
        <time>2019-07-12T05:23:01Z</time>
      </trkpt>
      <trkpt lat="39.2063440" lon="-8.6862570">
        <ele>26.6</ele>
        <time>2019-07-12T05:23:02Z</time>
      </trkpt>
      <trkpt lat="39.2060700" lon="-8.6863740">
        <ele>26.6</ele>
        <time>2019-07-12T05:23:07Z</time>
      </trkpt>
      <trkpt lat="39.2056800" lon="-8.6865450">
        <ele>26.6</ele>
        <time>2019-07-12T05:23:14Z</time>
      </trkpt>
      <trkpt lat="39.2051310" lon="-8.6867740">
        <ele>26.0</ele>
        <time>2019-07-12T05:23:24Z</time>
      </trkpt>
      <trkpt lat="39.2048160" lon="-8.6869080">
        <ele>26.2</ele>
        <time>2019-07-12T05:23:30Z</time>
      </trkpt>
      <trkpt lat="39.2045010" lon="-8.6870390">
        <ele>26.2</ele>
        <time>2019-07-12T05:23:36Z</time>
      </trkpt>
      <trkpt lat="39.2042040" lon="-8.6871840">
        <ele>26.2</ele>
        <time>2019-07-12T05:23:42Z</time>
      </trkpt>
      <trkpt lat="39.2037820" lon="-8.6873020">
        <ele>26.0</ele>
        <time>2019-07-12T05:23:50Z</time>
      </trkpt>
      <trkpt lat="39.2034200" lon="-8.6873030">
        <ele>26.0</ele>
        <time>2019-07-12T05:23:57Z</time>
      </trkpt>
      <trkpt lat="39.2030750" lon="-8.6872860">
        <ele>26.0</ele>
        <time>2019-07-12T05:24:04Z</time>
      </trkpt>
      <trkpt lat="39.2027140" lon="-8.6872680">
        <ele>26.0</ele>
        <time>2019-07-12T05:24:11Z</time>
      </trkpt>
      <trkpt lat="39.2023550" lon="-8.6872550">
        <ele>26.0</ele>
        <time>2019-07-12T05:24:18Z</time>
      </trkpt>
      <trkpt lat="39.2022610" lon="-8.6872530">
        <ele>26.0</ele>
        <time>2019-07-12T05:24:20Z</time>
      </trkpt>
      <trkpt lat="39.2021250" lon="-8.6872450">
        <ele>26.0</ele>
        <time>2019-07-12T05:24:23Z</time>
      </trkpt>
      <trkpt lat="39.2020770" lon="-8.6872440">
        <ele>26.0</ele>
        <time>2019-07-12T05:24:24Z</time>
      </trkpt>
      <trkpt lat="39.2018830" lon="-8.6872370">
        <ele>25.8</ele>
        <time>2019-07-12T05:24:28Z</time>
      </trkpt>
      <trkpt lat="39.2017300" lon="-8.6872250">
        <ele>25.8</ele>
        <time>2019-07-12T05:24:31Z</time>
      </trkpt>
      <trkpt lat="39.2016280" lon="-8.6872120">
        <ele>25.6</ele>
        <time>2019-07-12T05:24:33Z</time>
      </trkpt>
      <trkpt lat="39.2012190" lon="-8.6871130">
        <ele>25.6</ele>
        <time>2019-07-12T05:24:41Z</time>
      </trkpt>
      <trkpt lat="39.2009830" lon="-8.6870500">
        <ele>25.8</ele>
        <time>2019-07-12T05:24:46Z</time>
      </trkpt>
      <trkpt lat="39.2008330" lon="-8.6870030">
        <ele>25.6</ele>
        <time>2019-07-12T05:24:49Z</time>
      </trkpt>
      <trkpt lat="39.2006750" lon="-8.6869600">
        <ele>25.6</ele>
        <time>2019-07-12T05:24:52Z</time>
      </trkpt>
      <trkpt lat="39.2002890" lon="-8.6868630">
        <ele>25.8</ele>
        <time>2019-07-12T05:24:59Z</time>
      </trkpt>
      <trkpt lat="39.2000550" lon="-8.6867930">
        <ele>26.0</ele>
        <time>2019-07-12T05:25:03Z</time>
      </trkpt>
      <trkpt lat="39.1998730" lon="-8.6867330">
        <ele>26.0</ele>
        <time>2019-07-12T05:25:06Z</time>
      </trkpt>
      <trkpt lat="39.1993290" lon="-8.6865740">
        <ele>25.6</ele>
        <time>2019-07-12T05:25:15Z</time>
      </trkpt>
      <trkpt lat="39.1988400" lon="-8.6864430">
        <ele>26.2</ele>
        <time>2019-07-12T05:25:23Z</time>
      </trkpt>
      <trkpt lat="39.1983280" lon="-8.6863070">
        <ele>26.4</ele>
        <time>2019-07-12T05:25:31Z</time>
      </trkpt>
      <trkpt lat="39.1977440" lon="-8.6861460">
        <ele>26.2</ele>
        <time>2019-07-12T05:25:40Z</time>
      </trkpt>
      <trkpt lat="39.1971740" lon="-8.6859690">
        <ele>26.0</ele>
        <time>2019-07-12T05:25:49Z</time>
      </trkpt>
      <trkpt lat="39.1965970" lon="-8.6858090">
        <ele>26.4</ele>
        <time>2019-07-12T05:25:58Z</time>
      </trkpt>
      <trkpt lat="39.1960890" lon="-8.6856570">
        <ele>26.4</ele>
        <time>2019-07-12T05:26:06Z</time>
      </trkpt>
      <trkpt lat="39.1955140" lon="-8.6855040">
        <ele>26.2</ele>
        <time>2019-07-12T05:26:15Z</time>
      </trkpt>
      <trkpt lat="39.1951210" lon="-8.6854990">
        <ele>26.4</ele>
        <time>2019-07-12T05:26:21Z</time>
      </trkpt>
      <trkpt lat="39.1946040" lon="-8.6855080">
        <ele>26.2</ele>
        <time>2019-07-12T05:26:29Z</time>
      </trkpt>
      <trkpt lat="39.1940090" lon="-8.6855530">
        <ele>26.0</ele>
        <time>2019-07-12T05:26:38Z</time>
      </trkpt>
      <trkpt lat="39.1935520" lon="-8.6855850">
        <ele>26.0</ele>
        <time>2019-07-12T05:26:45Z</time>
      </trkpt>
      <trkpt lat="39.1934830" lon="-8.6855910">
        <ele>26.0</ele>
        <time>2019-07-12T05:26:46Z</time>
      </trkpt>
      <trkpt lat="39.1931440" lon="-8.6856130">
        <ele>25.8</ele>
        <time>2019-07-12T05:26:51Z</time>
      </trkpt>
      <trkpt lat="39.1929400" lon="-8.6856310">
        <ele>25.8</ele>
        <time>2019-07-12T05:26:54Z</time>
      </trkpt>
      <trkpt lat="39.1924030" lon="-8.6856650">
        <ele>26.0</ele>
        <time>2019-07-12T05:27:02Z</time>
      </trkpt>
      <trkpt lat="39.1918620" lon="-8.6856970">
        <ele>25.6</ele>
        <time>2019-07-12T05:27:10Z</time>
      </trkpt>
      <trkpt lat="39.1912630" lon="-8.6857460">
        <ele>25.4</ele>
        <time>2019-07-12T05:27:19Z</time>
      </trkpt>
      <trkpt lat="39.1908000" lon="-8.6857870">
        <ele>25.4</ele>
        <time>2019-07-12T05:27:26Z</time>
      </trkpt>
      <trkpt lat="39.1907350" lon="-8.6857930">
        <ele>25.4</ele>
        <time>2019-07-12T05:27:27Z</time>
      </trkpt>
      <trkpt lat="39.1903450" lon="-8.6858650">
        <ele>25.2</ele>
        <time>2019-07-12T05:27:33Z</time>
      </trkpt>
      <trkpt lat="39.1902280" lon="-8.6859130">
        <ele>25.2</ele>
        <time>2019-07-12T05:27:35Z</time>
      </trkpt>
      <trkpt lat="39.1900440" lon="-8.6860030">
        <ele>24.6</ele>
        <time>2019-07-12T05:27:38Z</time>
      </trkpt>
      <trkpt lat="39.1896190" lon="-8.6861970">
        <ele>24.8</ele>
        <time>2019-07-12T05:27:45Z</time>
      </trkpt>
      <trkpt lat="39.1891430" lon="-8.6864290">
        <ele>24.6</ele>
        <time>2019-07-12T05:27:53Z</time>
      </trkpt>
      <trkpt lat="39.1889720" lon="-8.6865110">
        <ele>24.2</ele>
        <time>2019-07-12T05:27:56Z</time>
      </trkpt>
      <trkpt lat="39.1887400" lon="-8.6865970">
        <ele>24.6</ele>
        <time>2019-07-12T05:28:00Z</time>
      </trkpt>
      <trkpt lat="39.1885760" lon="-8.6866570">
        <ele>24.6</ele>
        <time>2019-07-12T05:28:03Z</time>
      </trkpt>
      <trkpt lat="39.1884820" lon="-8.6867060">
        <ele>24.0</ele>
        <time>2019-07-12T05:28:05Z</time>
      </trkpt>
      <trkpt lat="39.1882750" lon="-8.6868130">
        <ele>23.8</ele>
        <time>2019-07-12T05:28:10Z</time>
      </trkpt>
      <trkpt lat="39.1881940" lon="-8.6868420">
        <ele>23.8</ele>
        <time>2019-07-12T05:28:12Z</time>
      </trkpt>
      <trkpt lat="39.1878980" lon="-8.6869720">
        <ele>24.0</ele>
        <time>2019-07-12T05:28:19Z</time>
      </trkpt>
      <trkpt lat="39.1877410" lon="-8.6870520">
        <ele>24.0</ele>
        <time>2019-07-12T05:28:23Z</time>
      </trkpt>
      <trkpt lat="39.1876100" lon="-8.6871160">
        <ele>23.8</ele>
        <time>2019-07-12T05:28:26Z</time>
      </trkpt>
      <trkpt lat="39.1873800" lon="-8.6872240">
        <ele>23.6</ele>
        <time>2019-07-12T05:28:31Z</time>
      </trkpt>
      <trkpt lat="39.1872390" lon="-8.6872930">
        <ele>23.8</ele>
        <time>2019-07-12T05:28:34Z</time>
      </trkpt>
      <trkpt lat="39.1870990" lon="-8.6873540">
        <ele>23.6</ele>
        <time>2019-07-12T05:28:37Z</time>
      </trkpt>
      <trkpt lat="39.1869690" lon="-8.6874070">
        <ele>23.6</ele>
        <time>2019-07-12T05:28:40Z</time>
      </trkpt>
      <trkpt lat="39.1868160" lon="-8.6874860">
        <ele>24.0</ele>
        <time>2019-07-12T05:28:44Z</time>
      </trkpt>
      <trkpt lat="39.1867240" lon="-8.6875420">
        <ele>23.8</ele>
        <time>2019-07-12T05:28:47Z</time>
      </trkpt>
      <trkpt lat="39.1865720" lon="-8.6875850">
        <ele>23.8</ele>
        <time>2019-07-12T05:28:53Z</time>
      </trkpt>
      <trkpt lat="39.1864380" lon="-8.6875610">
        <ele>24.0</ele>
        <time>2019-07-12T05:28:58Z</time>
      </trkpt>
      <trkpt lat="39.1862830" lon="-8.6873270">
        <ele>24.2</ele>
        <time>2019-07-12T05:29:05Z</time>
      </trkpt>
      <trkpt lat="39.1862040" lon="-8.6871910">
        <ele>24.4</ele>
        <time>2019-07-12T05:29:09Z</time>
      </trkpt>
      <trkpt lat="39.1861730" lon="-8.6871810">
        <ele>24.4</ele>
        <time>2019-07-12T05:29:10Z</time>
      </trkpt>
      <trkpt lat="39.1860870" lon="-8.6872500">
        <ele>24.0</ele>
        <time>2019-07-12T05:29:13Z</time>
      </trkpt>
      <trkpt lat="39.1860580" lon="-8.6872820">
        <ele>24.0</ele>
        <time>2019-07-12T05:29:14Z</time>
      </trkpt>
      <trkpt lat="39.1859250" lon="-8.6874160">
        <ele>23.8</ele>
        <time>2019-07-12T05:29:18Z</time>
      </trkpt>
      <trkpt lat="39.1858560" lon="-8.6874860">
        <ele>23.8</ele>
        <time>2019-07-12T05:29:20Z</time>
      </trkpt>
      <trkpt lat="39.1855800" lon="-8.6877490">
        <ele>24.0</ele>
        <time>2019-07-12T05:29:27Z</time>
      </trkpt>
      <trkpt lat="39.1854240" lon="-8.6879070">
        <ele>24.2</ele>
        <time>2019-07-12T05:29:31Z</time>
      </trkpt>
      <trkpt lat="39.1853190" lon="-8.6880090">
        <ele>24.0</ele>
        <time>2019-07-12T05:29:34Z</time>
      </trkpt>
      <trkpt lat="39.1852480" lon="-8.6880720">
        <ele>24.2</ele>
        <time>2019-07-12T05:29:36Z</time>
      </trkpt>
      <trkpt lat="39.1850750" lon="-8.6882550">
        <ele>24.2</ele>
        <time>2019-07-12T05:29:41Z</time>
      </trkpt>
      <trkpt lat="39.1847110" lon="-8.6886120">
        <ele>23.8</ele>
        <time>2019-07-12T05:29:50Z</time>
      </trkpt>
      <trkpt lat="39.1845050" lon="-8.6888110">
        <ele>23.6</ele>
        <time>2019-07-12T05:29:55Z</time>
      </trkpt>
      <trkpt lat="39.1843400" lon="-8.6889710">
        <ele>23.6</ele>
        <time>2019-07-12T05:29:59Z</time>
      </trkpt>
      <trkpt lat="39.1840570" lon="-8.6892590">
        <ele>23.6</ele>
        <time>2019-07-12T05:30:06Z</time>
      </trkpt>
      <trkpt lat="39.1837320" lon="-8.6896070">
        <ele>23.2</ele>
        <time>2019-07-12T05:30:14Z</time>
      </trkpt>
      <trkpt lat="39.1836580" lon="-8.6897010">
        <ele>23.2</ele>
        <time>2019-07-12T05:30:16Z</time>
      </trkpt>
      <trkpt lat="39.1833250" lon="-8.6900120">
        <ele>23.8</ele>
        <time>2019-07-12T05:30:24Z</time>
      </trkpt>
      <trkpt lat="39.1830880" lon="-8.6902590">
        <ele>23.6</ele>
        <time>2019-07-12T05:30:30Z</time>
      </trkpt>
      <trkpt lat="39.1827490" lon="-8.6905580">
        <ele>23.4</ele>
        <time>2019-07-12T05:30:38Z</time>
      </trkpt>
      <trkpt lat="39.1826420" lon="-8.6906620">
        <ele>22.8</ele>
        <time>2019-07-12T05:30:41Z</time>
      </trkpt>
      <trkpt lat="39.1825560" lon="-8.6907480">
        <ele>22.6</ele>
        <time>2019-07-12T05:30:44Z</time>
      </trkpt>
      <trkpt lat="39.1824120" lon="-8.6908860">
        <ele>22.6</ele>
        <time>2019-07-12T05:30:50Z</time>
      </trkpt>
      <trkpt lat="39.1822090" lon="-8.6910720">
        <ele>22.8</ele>
        <time>2019-07-12T05:30:58Z</time>
      </trkpt>
      <trkpt lat="39.1820800" lon="-8.6911970">
        <ele>22.8</ele>
        <time>2019-07-12T05:31:03Z</time>
      </trkpt>
      <trkpt lat="39.1818750" lon="-8.6913860">
        <ele>22.8</ele>
        <time>2019-07-12T05:31:10Z</time>
      </trkpt>
      <trkpt lat="39.1818490" lon="-8.6914090">
        <ele>22.8</ele>
        <time>2019-07-12T05:31:11Z</time>
      </trkpt>
      <trkpt lat="39.1816950" lon="-8.6915700">
        <ele>22.8</ele>
        <time>2019-07-12T05:31:18Z</time>
      </trkpt>
      <trkpt lat="39.1816080" lon="-8.6917140">
        <ele>22.8</ele>
        <time>2019-07-12T05:31:23Z</time>
      </trkpt>
      <trkpt lat="39.1815650" lon="-8.6918090">
        <ele>22.4</ele>
        <time>2019-07-12T05:31:27Z</time>
      </trkpt>
      <trkpt lat="39.1815100" lon="-8.6919930">
        <ele>22.4</ele>
        <time>2019-07-12T05:31:32Z</time>
      </trkpt>
      <trkpt lat="39.1815020" lon="-8.6921430">
        <ele>22.4</ele>
        <time>2019-07-12T05:31:36Z</time>
      </trkpt>
      <trkpt lat="39.1815100" lon="-8.6922180">
        <ele>22.4</ele>
        <time>2019-07-12T05:31:38Z</time>
      </trkpt>
      <trkpt lat="39.1815210" lon="-8.6925300">
        <ele>23.0</ele>
        <time>2019-07-12T05:31:45Z</time>
      </trkpt>
      <trkpt lat="39.1815030" lon="-8.6926270">
        <ele>23.0</ele>
        <time>2019-07-12T05:31:47Z</time>
      </trkpt>
      <trkpt lat="39.1814600" lon="-8.6927120">
        <ele>22.8</ele>
        <time>2019-07-12T05:31:49Z</time>
      </trkpt>
      <trkpt lat="39.1812570" lon="-8.6929400">
        <ele>22.6</ele>
        <time>2019-07-12T05:31:56Z</time>
      </trkpt>
      <trkpt lat="39.1811520" lon="-8.6930430">
        <ele>22.4</ele>
        <time>2019-07-12T05:31:59Z</time>
      </trkpt>
      <trkpt lat="39.1810190" lon="-8.6931970">
        <ele>22.4</ele>
        <time>2019-07-12T05:32:03Z</time>
      </trkpt>
      <trkpt lat="39.1808730" lon="-8.6933490">
        <ele>22.2</ele>
        <time>2019-07-12T05:32:07Z</time>
      </trkpt>
      <trkpt lat="39.1807450" lon="-8.6934360">
        <ele>22.4</ele>
        <time>2019-07-12T05:32:10Z</time>
      </trkpt>
      <trkpt lat="39.1807070" lon="-8.6934670">
        <ele>22.4</ele>
        <time>2019-07-12T05:32:11Z</time>
      </trkpt>
      <trkpt lat="39.1806730" lon="-8.6935390">
        <ele>22.6</ele>
        <time>2019-07-12T05:32:13Z</time>
      </trkpt>
      <trkpt lat="39.1807060" lon="-8.6935950">
        <ele>22.8</ele>
        <time>2019-07-12T05:32:16Z</time>
      </trkpt>
      <trkpt lat="39.1807260" lon="-8.6936040">
        <ele>23.0</ele>
        <time>2019-07-12T05:32:17Z</time>
      </trkpt>
      <trkpt lat="39.1807460" lon="-8.6936100">
        <ele>23.2</ele>
        <time>2019-07-12T05:32:18Z</time>
      </trkpt>
      <trkpt lat="39.1807830" lon="-8.6936110">
        <ele>23.8</ele>
        <time>2019-07-12T05:32:20Z</time>
      </trkpt>
      <trkpt lat="39.1808210" lon="-8.6935960">
        <ele>24.2</ele>
        <time>2019-07-12T05:32:22Z</time>
      </trkpt>
      <trkpt lat="39.1808370" lon="-8.6935880">
        <ele>24.6</ele>
        <time>2019-07-12T05:32:23Z</time>
      </trkpt>
      <trkpt lat="39.1808540" lon="-8.6935950">
        <ele>25.0</ele>
        <time>2019-07-12T05:32:26Z</time>
      </trkpt>
      <trkpt lat="39.1808500" lon="-8.6936010">
        <ele>25.0</ele>
        <time>2019-07-12T05:32:27Z</time>
      </trkpt>
      <trkpt lat="39.1807800" lon="-8.6936280">
        <ele>25.0</ele>
        <time>2019-07-12T05:32:31Z</time>
      </trkpt>
      <trkpt lat="39.1806690" lon="-8.6935640">
        <ele>24.2</ele>
        <time>2019-07-12T05:32:35Z</time>
      </trkpt>
      <trkpt lat="39.1806440" lon="-8.6935490">
        <ele>23.8</ele>
        <time>2019-07-12T05:32:36Z</time>
      </trkpt>
      <trkpt lat="39.1805980" lon="-8.6935630">
        <ele>23.2</ele>
        <time>2019-07-12T05:32:38Z</time>
      </trkpt>
      <trkpt lat="39.1805500" lon="-8.6936520">
        <ele>22.6</ele>
        <time>2019-07-12T05:32:42Z</time>
      </trkpt>
      <trkpt lat="39.1804740" lon="-8.6936610">
        <ele>22.0</ele>
        <time>2019-07-12T05:32:45Z</time>
      </trkpt>
      <trkpt lat="39.1804440" lon="-8.6936570">
        <ele>22.2</ele>
        <time>2019-07-12T05:32:46Z</time>
      </trkpt>
      <trkpt lat="39.1803500" lon="-8.6936900">
        <ele>22.2</ele>
        <time>2019-07-12T05:32:49Z</time>
      </trkpt>
      <trkpt lat="39.1802780" lon="-8.6937250">
        <ele>22.4</ele>
        <time>2019-07-12T05:32:51Z</time>
      </trkpt>
      <trkpt lat="39.1799600" lon="-8.6939170">
        <ele>22.8</ele>
        <time>2019-07-12T05:32:59Z</time>
      </trkpt>
      <trkpt lat="39.1797000" lon="-8.6941670">
        <ele>22.4</ele>
        <time>2019-07-12T05:33:06Z</time>
      </trkpt>
      <trkpt lat="39.1794290" lon="-8.6944800">
        <ele>22.2</ele>
        <time>2019-07-12T05:33:14Z</time>
      </trkpt>
      <trkpt lat="39.1793990" lon="-8.6945210">
        <ele>22.2</ele>
        <time>2019-07-12T05:33:15Z</time>
      </trkpt>
      <trkpt lat="39.1793680" lon="-8.6945580">
        <ele>22.2</ele>
        <time>2019-07-12T05:33:16Z</time>
      </trkpt>
      <trkpt lat="39.1792060" lon="-8.6947270">
        <ele>22.2</ele>
        <time>2019-07-12T05:33:21Z</time>
      </trkpt>
      <trkpt lat="39.1789730" lon="-8.6950910">
        <ele>22.0</ele>
        <time>2019-07-12T05:33:29Z</time>
      </trkpt>
      <trkpt lat="39.1787980" lon="-8.6953860">
        <ele>21.8</ele>
        <time>2019-07-12T05:33:35Z</time>
      </trkpt>
      <trkpt lat="39.1787770" lon="-8.6954340">
        <ele>21.8</ele>
        <time>2019-07-12T05:33:36Z</time>
      </trkpt>
      <trkpt lat="39.1786890" lon="-8.6955890">
        <ele>21.8</ele>
        <time>2019-07-12T05:33:40Z</time>
      </trkpt>
      <trkpt lat="39.1786670" lon="-8.6956260">
        <ele>21.8</ele>
        <time>2019-07-12T05:33:41Z</time>
      </trkpt>
      <trkpt lat="39.1785880" lon="-8.6957230">
        <ele>21.4</ele>
        <time>2019-07-12T05:33:44Z</time>
      </trkpt>
      <trkpt lat="39.1785240" lon="-8.6958300">
        <ele>21.4</ele>
        <time>2019-07-12T05:33:47Z</time>
      </trkpt>
      <trkpt lat="39.1784190" lon="-8.6960780">
        <ele>21.8</ele>
        <time>2019-07-12T05:33:53Z</time>
      </trkpt>
      <trkpt lat="39.1783090" lon="-8.6962950">
        <ele>22.0</ele>
        <time>2019-07-12T05:33:58Z</time>
      </trkpt>
      <trkpt lat="39.1782670" lon="-8.6963860">
        <ele>22.2</ele>
        <time>2019-07-12T05:34:00Z</time>
      </trkpt>
      <trkpt lat="39.1782410" lon="-8.6964300">
        <ele>22.0</ele>
        <time>2019-07-12T05:34:01Z</time>
      </trkpt>
      <trkpt lat="39.1780930" lon="-8.6967210">
        <ele>22.2</ele>
        <time>2019-07-12T05:34:08Z</time>
      </trkpt>
      <trkpt lat="39.1779790" lon="-8.6969700">
        <ele>22.6</ele>
        <time>2019-07-12T05:34:14Z</time>
      </trkpt>
      <trkpt lat="39.1779590" lon="-8.6970130">
        <ele>22.8</ele>
        <time>2019-07-12T05:34:15Z</time>
      </trkpt>
      <trkpt lat="39.1778690" lon="-8.6972030">
        <ele>23.6</ele>
        <time>2019-07-12T05:34:20Z</time>
      </trkpt>
      <trkpt lat="39.1778540" lon="-8.6972350">
        <ele>23.8</ele>
        <time>2019-07-12T05:34:21Z</time>
      </trkpt>
      <trkpt lat="39.1778020" lon="-8.6973540">
        <ele>24.4</ele>
        <time>2019-07-12T05:34:24Z</time>
      </trkpt>
      <trkpt lat="39.1777370" lon="-8.6974600">
        <ele>24.4</ele>
        <time>2019-07-12T05:34:26Z</time>
      </trkpt>
      <trkpt lat="39.1776660" lon="-8.6975780">
        <ele>23.8</ele>
        <time>2019-07-12T05:34:28Z</time>
      </trkpt>
      <trkpt lat="39.1775370" lon="-8.6977370">
        <ele>22.6</ele>
        <time>2019-07-12T05:34:31Z</time>
      </trkpt>
      <trkpt lat="39.1775000" lon="-8.6977830">
        <ele>22.4</ele>
        <time>2019-07-12T05:34:32Z</time>
      </trkpt>
      <trkpt lat="39.1774530" lon="-8.6978840">
        <ele>22.0</ele>
        <time>2019-07-12T05:34:34Z</time>
      </trkpt>
      <trkpt lat="39.1774650" lon="-8.6980510">
        <ele>21.4</ele>
        <time>2019-07-12T05:34:37Z</time>
      </trkpt>
      <trkpt lat="39.1774820" lon="-8.6980990">
        <ele>21.4</ele>
        <time>2019-07-12T05:34:38Z</time>
      </trkpt>
      <trkpt lat="39.1775200" lon="-8.6981860">
        <ele>21.4</ele>
        <time>2019-07-12T05:34:40Z</time>
      </trkpt>
      <trkpt lat="39.1776250" lon="-8.6984000">
        <ele>21.2</ele>
        <time>2019-07-12T05:34:45Z</time>
      </trkpt>
      <trkpt lat="39.1777400" lon="-8.6986380">
        <ele>21.4</ele>
        <time>2019-07-12T05:34:50Z</time>
      </trkpt>
      <trkpt lat="39.1777880" lon="-8.6987370">
        <ele>21.4</ele>
        <time>2019-07-12T05:34:52Z</time>
      </trkpt>
      <trkpt lat="39.1779050" lon="-8.6989800">
        <ele>21.2</ele>
        <time>2019-07-12T05:34:58Z</time>
      </trkpt>
      <trkpt lat="39.1779640" lon="-8.6991030">
        <ele>21.0</ele>
        <time>2019-07-12T05:35:03Z</time>
      </trkpt>
      <trkpt lat="39.1780530" lon="-8.6992850">
        <ele>21.2</ele>
        <time>2019-07-12T05:35:08Z</time>
      </trkpt>
      <trkpt lat="39.1781230" lon="-8.6994320">
        <ele>21.4</ele>
        <time>2019-07-12T05:35:12Z</time>
      </trkpt>
      <trkpt lat="39.1782260" lon="-8.6996450">
        <ele>21.6</ele>
        <time>2019-07-12T05:35:18Z</time>
      </trkpt>
      <trkpt lat="39.1782530" lon="-8.6997000">
        <ele>21.6</ele>
        <time>2019-07-12T05:35:20Z</time>
      </trkpt>
      <trkpt lat="39.1783370" lon="-8.6998790">
        <ele>21.6</ele>
        <time>2019-07-12T05:35:26Z</time>
      </trkpt>
      <trkpt lat="39.1784070" lon="-8.7000270">
        <ele>21.8</ele>
        <time>2019-07-12T05:35:30Z</time>
      </trkpt>
      <trkpt lat="39.1784830" lon="-8.7001840">
        <ele>21.8</ele>
        <time>2019-07-12T05:35:35Z</time>
      </trkpt>
      <trkpt lat="39.1784850" lon="-8.7002170">
        <ele>21.8</ele>
        <time>2019-07-12T05:35:36Z</time>
      </trkpt>
      <trkpt lat="39.1784540" lon="-8.7003270">
        <ele>21.8</ele>
        <time>2019-07-12T05:35:39Z</time>
      </trkpt>
      <trkpt lat="39.1783550" lon="-8.7005840">
        <ele>22.2</ele>
        <time>2019-07-12T05:35:45Z</time>
      </trkpt>
      <trkpt lat="39.1783290" lon="-8.7006250">
        <ele>22.2</ele>
        <time>2019-07-12T05:35:46Z</time>
      </trkpt>
      <trkpt lat="39.1782380" lon="-8.7007260">
        <ele>22.2</ele>
        <time>2019-07-12T05:35:49Z</time>
      </trkpt>
      <trkpt lat="39.1782030" lon="-8.7007530">
        <ele>22.2</ele>
        <time>2019-07-12T05:35:50Z</time>
      </trkpt>
      <trkpt lat="39.1781650" lon="-8.7007760">
        <ele>22.4</ele>
        <time>2019-07-12T05:35:51Z</time>
      </trkpt>
      <trkpt lat="39.1778020" lon="-8.7009830">
        <ele>22.2</ele>
        <time>2019-07-12T05:36:00Z</time>
      </trkpt>
      <trkpt lat="39.1776330" lon="-8.7010720">
        <ele>22.0</ele>
        <time>2019-07-12T05:36:04Z</time>
      </trkpt>
      <trkpt lat="39.1775440" lon="-8.7011070">
        <ele>21.6</ele>
        <time>2019-07-12T05:36:06Z</time>
      </trkpt>
      <trkpt lat="39.1775010" lon="-8.7011280">
        <ele>21.4</ele>
        <time>2019-07-12T05:36:07Z</time>
      </trkpt>
      <trkpt lat="39.1773710" lon="-8.7011900">
        <ele>21.2</ele>
        <time>2019-07-12T05:36:10Z</time>
      </trkpt>
      <trkpt lat="39.1773320" lon="-8.7012150">
        <ele>21.2</ele>
        <time>2019-07-12T05:36:11Z</time>
      </trkpt>
      <trkpt lat="39.1772590" lon="-8.7012700">
        <ele>21.0</ele>
        <time>2019-07-12T05:36:13Z</time>
      </trkpt>
      <trkpt lat="39.1769910" lon="-8.7014620">
        <ele>21.4</ele>
        <time>2019-07-12T05:36:20Z</time>
      </trkpt>
      <trkpt lat="39.1768460" lon="-8.7015520">
        <ele>21.4</ele>
        <time>2019-07-12T05:36:24Z</time>
      </trkpt>
      <trkpt lat="39.1768110" lon="-8.7015790">
        <ele>21.2</ele>
        <time>2019-07-12T05:36:25Z</time>
      </trkpt>
      <trkpt lat="39.1766540" lon="-8.7017000">
        <ele>21.2</ele>
        <time>2019-07-12T05:36:29Z</time>
      </trkpt>
      <trkpt lat="39.1765690" lon="-8.7017600">
        <ele>21.2</ele>
        <time>2019-07-12T05:36:31Z</time>
      </trkpt>
      <trkpt lat="39.1765250" lon="-8.7017850">
        <ele>21.2</ele>
        <time>2019-07-12T05:36:32Z</time>
      </trkpt>
      <trkpt lat="39.1763150" lon="-8.7019130">
        <ele>20.8</ele>
        <time>2019-07-12T05:36:37Z</time>
      </trkpt>
      <trkpt lat="39.1761610" lon="-8.7020120">
        <ele>20.4</ele>
        <time>2019-07-12T05:36:41Z</time>
      </trkpt>
      <trkpt lat="39.1759890" lon="-8.7021190">
        <ele>20.0</ele>
        <time>2019-07-12T05:36:45Z</time>
      </trkpt>
      <trkpt lat="39.1759030" lon="-8.7021820">
        <ele>20.2</ele>
        <time>2019-07-12T05:36:47Z</time>
      </trkpt>
      <trkpt lat="39.1756170" lon="-8.7023630">
        <ele>20.2</ele>
        <time>2019-07-12T05:36:54Z</time>
      </trkpt>
      <trkpt lat="39.1753040" lon="-8.7025240">
        <ele>20.6</ele>
        <time>2019-07-12T05:37:02Z</time>
      </trkpt>
      <trkpt lat="39.1750110" lon="-8.7025950">
        <ele>20.8</ele>
        <time>2019-07-12T05:37:09Z</time>
      </trkpt>
      <trkpt lat="39.1748120" lon="-8.7026390">
        <ele>20.8</ele>
        <time>2019-07-12T05:37:14Z</time>
      </trkpt>
      <trkpt lat="39.1747290" lon="-8.7026450">
        <ele>20.8</ele>
        <time>2019-07-12T05:37:16Z</time>
      </trkpt>
      <trkpt lat="39.1746870" lon="-8.7026410">
        <ele>20.8</ele>
        <time>2019-07-12T05:37:17Z</time>
      </trkpt>
      <trkpt lat="39.1745550" lon="-8.7026250">
        <ele>21.0</ele>
        <time>2019-07-12T05:37:20Z</time>
      </trkpt>
      <trkpt lat="39.1744010" lon="-8.7026210">
        <ele>20.8</ele>
        <time>2019-07-12T05:37:24Z</time>
      </trkpt>
      <trkpt lat="39.1743740" lon="-8.7026210">
        <ele>21.0</ele>
        <time>2019-07-12T05:37:28Z</time>
      </trkpt>
      <trkpt lat="39.1743350" lon="-8.7026220">
        <ele>21.2</ele>
        <time>2019-07-12T05:38:10Z</time>
      </trkpt>
      <trkpt lat="39.1743140" lon="-8.7026240">
        <ele>21.2</ele>
        <time>2019-07-12T05:38:11Z</time>
      </trkpt>
      <trkpt lat="39.1742880" lon="-8.7026320">
        <ele>21.2</ele>
        <time>2019-07-12T05:38:12Z</time>
      </trkpt>
      <trkpt lat="39.1742330" lon="-8.7026630">
        <ele>21.2</ele>
        <time>2019-07-12T05:38:14Z</time>
      </trkpt>
      <trkpt lat="39.1741830" lon="-8.7027230">
        <ele>21.2</ele>
        <time>2019-07-12T05:38:16Z</time>
      </trkpt>
      <trkpt lat="39.1741600" lon="-8.7027590">
        <ele>21.2</ele>
        <time>2019-07-12T05:38:17Z</time>
      </trkpt>
      <trkpt lat="39.1740090" lon="-8.7030490">
        <ele>21.4</ele>
        <time>2019-07-12T05:38:24Z</time>
      </trkpt>
      <trkpt lat="39.1739660" lon="-8.7031380">
        <ele>21.6</ele>
        <time>2019-07-12T05:38:26Z</time>
      </trkpt>
      <trkpt lat="39.1738940" lon="-8.7032730">
        <ele>21.4</ele>
        <time>2019-07-12T05:38:29Z</time>
      </trkpt>
      <trkpt lat="39.1738390" lon="-8.7033890">
        <ele>21.4</ele>
        <time>2019-07-12T05:38:31Z</time>
      </trkpt>
      <trkpt lat="39.1738040" lon="-8.7034520">
        <ele>21.2</ele>
        <time>2019-07-12T05:38:32Z</time>
      </trkpt>
      <trkpt lat="39.1737630" lon="-8.7035160">
        <ele>21.0</ele>
        <time>2019-07-12T05:38:33Z</time>
      </trkpt>
      <trkpt lat="39.1737230" lon="-8.7035830">
        <ele>21.2</ele>
        <time>2019-07-12T05:38:34Z</time>
      </trkpt>
      <trkpt lat="39.1736820" lon="-8.7036490">
        <ele>21.0</ele>
        <time>2019-07-12T05:38:35Z</time>
      </trkpt>
      <trkpt lat="39.1736340" lon="-8.7037050">
        <ele>20.8</ele>
        <time>2019-07-12T05:38:36Z</time>
      </trkpt>
      <trkpt lat="39.1735810" lon="-8.7037470">
        <ele>20.8</ele>
        <time>2019-07-12T05:38:37Z</time>
      </trkpt>
      <trkpt lat="39.1735320" lon="-8.7037770">
        <ele>21.0</ele>
        <time>2019-07-12T05:38:38Z</time>
      </trkpt>
      <trkpt lat="39.1734880" lon="-8.7038020">
        <ele>21.2</ele>
        <time>2019-07-12T05:38:39Z</time>
      </trkpt>
      <trkpt lat="39.1734100" lon="-8.7038510">
        <ele>22.0</ele>
        <time>2019-07-12T05:38:41Z</time>
      </trkpt>
      <trkpt lat="39.1733220" lon="-8.7039310">
        <ele>22.4</ele>
        <time>2019-07-12T05:38:43Z</time>
      </trkpt>
      <trkpt lat="39.1732690" lon="-8.7039720">
        <ele>22.2</ele>
        <time>2019-07-12T05:38:44Z</time>
      </trkpt>
      <trkpt lat="39.1732170" lon="-8.7040070">
        <ele>21.8</ele>
        <time>2019-07-12T05:38:45Z</time>
      </trkpt>
      <trkpt lat="39.1731400" lon="-8.7040410">
        <ele>21.0</ele>
        <time>2019-07-12T05:38:47Z</time>
      </trkpt>
      <trkpt lat="39.1731110" lon="-8.7040440">
        <ele>20.8</ele>
        <time>2019-07-12T05:38:48Z</time>
      </trkpt>
      <trkpt lat="39.1730900" lon="-8.7040440">
        <ele>20.8</ele>
        <time>2019-07-12T05:38:49Z</time>
      </trkpt>
      <trkpt lat="39.1730830" lon="-8.7040420">
        <ele>20.8</ele>
        <time>2019-07-12T05:38:51Z</time>
      </trkpt>
      <trkpt lat="39.1731350" lon="-8.7040430">
        <ele>20.6</ele>
        <time>2019-07-12T05:39:18Z</time>
      </trkpt>
      <trkpt lat="39.1731530" lon="-8.7040430">
        <ele>20.6</ele>
        <time>2019-07-12T05:39:19Z</time>
      </trkpt>
      <trkpt lat="39.1731700" lon="-8.7040380">
        <ele>20.6</ele>
        <time>2019-07-12T05:39:20Z</time>
      </trkpt>
      <trkpt lat="39.1732600" lon="-8.7039780">
        <ele>20.6</ele>
        <time>2019-07-12T05:39:24Z</time>
      </trkpt>
      <trkpt lat="39.1732830" lon="-8.7039620">
        <ele>20.8</ele>
        <time>2019-07-12T05:39:25Z</time>
      </trkpt>
      <trkpt lat="39.1734130" lon="-8.7038460">
        <ele>22.2</ele>
        <time>2019-07-12T05:39:32Z</time>
      </trkpt>
      <trkpt lat="39.1734270" lon="-8.7038330">
        <ele>22.4</ele>
        <time>2019-07-12T05:39:33Z</time>
      </trkpt>
      <trkpt lat="39.1735550" lon="-8.7037640">
        <ele>22.8</ele>
        <time>2019-07-12T05:39:39Z</time>
      </trkpt>
      <trkpt lat="39.1735770" lon="-8.7037750">
        <ele>22.6</ele>
        <time>2019-07-12T05:39:40Z</time>
      </trkpt>
      <trkpt lat="39.1735990" lon="-8.7038560">
        <ele>21.2</ele>
        <time>2019-07-12T05:39:43Z</time>
      </trkpt>
      <trkpt lat="39.1735830" lon="-8.7038940">
        <ele>21.0</ele>
        <time>2019-07-12T05:39:44Z</time>
      </trkpt>
      <trkpt lat="39.1735260" lon="-8.7039770">
        <ele>20.6</ele>
        <time>2019-07-12T05:39:46Z</time>
      </trkpt>
      <trkpt lat="39.1734920" lon="-8.7040200">
        <ele>20.6</ele>
        <time>2019-07-12T05:39:47Z</time>
      </trkpt>
      <trkpt lat="39.1734260" lon="-8.7041150">
        <ele>20.6</ele>
        <time>2019-07-12T05:39:49Z</time>
      </trkpt>
      <trkpt lat="39.1734180" lon="-8.7042290">
        <ele>20.4</ele>
        <time>2019-07-12T05:39:51Z</time>
      </trkpt>
      <trkpt lat="39.1735120" lon="-8.7043920">
        <ele>20.2</ele>
        <time>2019-07-12T05:39:54Z</time>
      </trkpt>
      <trkpt lat="39.1735950" lon="-8.7045000">
        <ele>20.0</ele>
        <time>2019-07-12T05:39:56Z</time>
      </trkpt>
      <trkpt lat="39.1736410" lon="-8.7045470">
        <ele>19.8</ele>
        <time>2019-07-12T05:39:57Z</time>
      </trkpt>
      <trkpt lat="39.1736950" lon="-8.7045820">
        <ele>20.0</ele>
        <time>2019-07-12T05:39:58Z</time>
      </trkpt>
      <trkpt lat="39.1738050" lon="-8.7046290">
        <ele>20.2</ele>
        <time>2019-07-12T05:40:00Z</time>
      </trkpt>
      <trkpt lat="39.1739710" lon="-8.7046570">
        <ele>20.4</ele>
        <time>2019-07-12T05:40:03Z</time>
      </trkpt>
      <trkpt lat="39.1743340" lon="-8.7047010">
        <ele>20.4</ele>
        <time>2019-07-12T05:40:10Z</time>
      </trkpt>
      <trkpt lat="39.1743860" lon="-8.7047070">
        <ele>20.6</ele>
        <time>2019-07-12T05:40:11Z</time>
      </trkpt>
      <trkpt lat="39.1746430" lon="-8.7047330">
        <ele>20.2</ele>
        <time>2019-07-12T05:40:16Z</time>
      </trkpt>
      <trkpt lat="39.1748960" lon="-8.7047540">
        <ele>20.6</ele>
        <time>2019-07-12T05:40:21Z</time>
      </trkpt>
      <trkpt lat="39.1750220" lon="-8.7047670">
        <ele>21.0</ele>
        <time>2019-07-12T05:40:24Z</time>
      </trkpt>
      <trkpt lat="39.1750950" lon="-8.7047740">
        <ele>21.2</ele>
        <time>2019-07-12T05:40:26Z</time>
      </trkpt>
      <trkpt lat="39.1752030" lon="-8.7047950">
        <ele>21.0</ele>
        <time>2019-07-12T05:40:29Z</time>
      </trkpt>
      <trkpt lat="39.1753360" lon="-8.7048160">
        <ele>21.0</ele>
        <time>2019-07-12T05:40:33Z</time>
      </trkpt>
      <trkpt lat="39.1754850" lon="-8.7048430">
        <ele>21.4</ele>
        <time>2019-07-12T05:40:38Z</time>
      </trkpt>
      <trkpt lat="39.1755500" lon="-8.7048480">
        <ele>21.6</ele>
        <time>2019-07-12T05:40:40Z</time>
      </trkpt>
      <trkpt lat="39.1757420" lon="-8.7048800">
        <ele>21.4</ele>
        <time>2019-07-12T05:40:45Z</time>
      </trkpt>
      <trkpt lat="39.1757980" lon="-8.7049380">
        <ele>21.0</ele>
        <time>2019-07-12T05:40:47Z</time>
      </trkpt>
      <trkpt lat="39.1758220" lon="-8.7050250">
        <ele>21.0</ele>
        <time>2019-07-12T05:40:49Z</time>
      </trkpt>
      <trkpt lat="39.1759060" lon="-8.7053050">
        <ele>20.8</ele>
        <time>2019-07-12T05:40:55Z</time>
      </trkpt>
      <trkpt lat="39.1760290" lon="-8.7055770">
        <ele>20.6</ele>
        <time>2019-07-12T05:41:01Z</time>
      </trkpt>
      <trkpt lat="39.1760460" lon="-8.7056260">
        <ele>20.8</ele>
        <time>2019-07-12T05:41:05Z</time>
      </trkpt>
      <trkpt lat="39.1760590" lon="-8.7056720">
        <ele>21.0</ele>
        <time>2019-07-12T05:41:38Z</time>
      </trkpt>
      <trkpt lat="39.1760690" lon="-8.7056970">
        <ele>21.0</ele>
        <time>2019-07-12T05:41:39Z</time>
      </trkpt>
      <trkpt lat="39.1760840" lon="-8.7057260">
        <ele>21.0</ele>
        <time>2019-07-12T05:41:40Z</time>
      </trkpt>
      <trkpt lat="39.1761010" lon="-8.7057600">
        <ele>21.0</ele>
        <time>2019-07-12T05:41:41Z</time>
      </trkpt>
      <trkpt lat="39.1761390" lon="-8.7058390">
        <ele>21.2</ele>
        <time>2019-07-12T05:41:43Z</time>
      </trkpt>
      <trkpt lat="39.1762010" lon="-8.7059820">
        <ele>21.4</ele>
        <time>2019-07-12T05:41:46Z</time>
      </trkpt>
      <trkpt lat="39.1763130" lon="-8.7062570">
        <ele>21.0</ele>
        <time>2019-07-12T05:41:51Z</time>
      </trkpt>
      <trkpt lat="39.1763860" lon="-8.7064280">
        <ele>20.8</ele>
        <time>2019-07-12T05:41:54Z</time>
      </trkpt>
      <trkpt lat="39.1765420" lon="-8.7067760">
        <ele>21.0</ele>
        <time>2019-07-12T05:42:00Z</time>
      </trkpt>
      <trkpt lat="39.1766800" lon="-8.7070620">
        <ele>21.4</ele>
        <time>2019-07-12T05:42:05Z</time>
      </trkpt>
      <trkpt lat="39.1768480" lon="-8.7074180">
        <ele>21.2</ele>
        <time>2019-07-12T05:42:11Z</time>
      </trkpt>
      <trkpt lat="39.1769990" lon="-8.7077190">
        <ele>21.4</ele>
        <time>2019-07-12T05:42:16Z</time>
      </trkpt>
      <trkpt lat="39.1770290" lon="-8.7077810">
        <ele>21.4</ele>
        <time>2019-07-12T05:42:17Z</time>
      </trkpt>
      <trkpt lat="39.1772750" lon="-8.7082710">
        <ele>20.8</ele>
        <time>2019-07-12T05:42:25Z</time>
      </trkpt>
      <trkpt lat="39.1773690" lon="-8.7084520">
        <ele>20.4</ele>
        <time>2019-07-12T05:42:28Z</time>
      </trkpt>
      <trkpt lat="39.1774830" lon="-8.7087030">
        <ele>20.2</ele>
        <time>2019-07-12T05:42:32Z</time>
      </trkpt>
      <trkpt lat="39.1777780" lon="-8.7093050">
        <ele>20.6</ele>
        <time>2019-07-12T05:42:42Z</time>
      </trkpt>
      <trkpt lat="39.1780390" lon="-8.7098480">
        <ele>20.2</ele>
        <time>2019-07-12T05:42:51Z</time>
      </trkpt>
      <trkpt lat="39.1782160" lon="-8.7101940">
        <ele>20.4</ele>
        <time>2019-07-12T05:42:57Z</time>
      </trkpt>
      <trkpt lat="39.1782450" lon="-8.7102530">
        <ele>20.4</ele>
        <time>2019-07-12T05:42:58Z</time>
      </trkpt>
      <trkpt lat="39.1783270" lon="-8.7104350">
        <ele>20.2</ele>
        <time>2019-07-12T05:43:01Z</time>
      </trkpt>
      <trkpt lat="39.1784240" lon="-8.7106830">
        <ele>20.4</ele>
        <time>2019-07-12T05:43:05Z</time>
      </trkpt>
      <trkpt lat="39.1786560" lon="-8.7111760">
        <ele>20.6</ele>
        <time>2019-07-12T05:43:13Z</time>
      </trkpt>
      <trkpt lat="39.1789620" lon="-8.7118080">
        <ele>20.4</ele>
        <time>2019-07-12T05:43:23Z</time>
      </trkpt>
      <trkpt lat="39.1789940" lon="-8.7118720">
        <ele>20.2</ele>
        <time>2019-07-12T05:43:24Z</time>
      </trkpt>
      <trkpt lat="39.1793120" lon="-8.7125080">
        <ele>19.8</ele>
        <time>2019-07-12T05:43:34Z</time>
      </trkpt>
      <trkpt lat="39.1795500" lon="-8.7130060">
        <ele>19.6</ele>
        <time>2019-07-12T05:43:42Z</time>
      </trkpt>
      <trkpt lat="39.1795700" lon="-8.7130540">
        <ele>19.6</ele>
        <time>2019-07-12T05:43:43Z</time>
      </trkpt>
      <trkpt lat="39.1795910" lon="-8.7131460">
        <ele>19.4</ele>
        <time>2019-07-12T05:43:45Z</time>
      </trkpt>
      <trkpt lat="39.1795850" lon="-8.7131870">
        <ele>19.4</ele>
        <time>2019-07-12T05:43:46Z</time>
      </trkpt>
      <trkpt lat="39.1794710" lon="-8.7133240">
        <ele>19.6</ele>
        <time>2019-07-12T05:43:50Z</time>
      </trkpt>
      <trkpt lat="39.1793210" lon="-8.7135050">
        <ele>19.8</ele>
        <time>2019-07-12T05:43:55Z</time>
      </trkpt>
      <trkpt lat="39.1793020" lon="-8.7135530">
        <ele>19.6</ele>
        <time>2019-07-12T05:43:56Z</time>
      </trkpt>
      <trkpt lat="39.1793300" lon="-8.7137030">
        <ele>19.4</ele>
        <time>2019-07-12T05:43:59Z</time>
      </trkpt>
      <trkpt lat="39.1793550" lon="-8.7137510">
        <ele>19.4</ele>
        <time>2019-07-12T05:44:00Z</time>
      </trkpt>
      <trkpt lat="39.1795350" lon="-8.7141200">
        <ele>19.4</ele>
        <time>2019-07-12T05:44:07Z</time>
      </trkpt>
      <trkpt lat="39.1798030" lon="-8.7146890">
        <ele>19.4</ele>
        <time>2019-07-12T05:44:17Z</time>
      </trkpt>
      <trkpt lat="39.1800030" lon="-8.7150970">
        <ele>19.2</ele>
        <time>2019-07-12T05:44:24Z</time>
      </trkpt>
      <trkpt lat="39.1800350" lon="-8.7151530">
        <ele>19.2</ele>
        <time>2019-07-12T05:44:25Z</time>
      </trkpt>
      <trkpt lat="39.1802310" lon="-8.7155700">
        <ele>18.6</ele>
        <time>2019-07-12T05:44:32Z</time>
      </trkpt>
      <trkpt lat="39.1804660" lon="-8.7160340">
        <ele>19.0</ele>
        <time>2019-07-12T05:44:40Z</time>
      </trkpt>
      <trkpt lat="39.1806920" lon="-8.7165080">
        <ele>18.6</ele>
        <time>2019-07-12T05:44:48Z</time>
      </trkpt>
      <trkpt lat="39.1809390" lon="-8.7170190">
        <ele>18.8</ele>
        <time>2019-07-12T05:44:57Z</time>
      </trkpt>
      <trkpt lat="39.1810250" lon="-8.7171920">
        <ele>18.8</ele>
        <time>2019-07-12T05:45:00Z</time>
      </trkpt>
      <trkpt lat="39.1811680" lon="-8.7174900">
        <ele>18.8</ele>
        <time>2019-07-12T05:45:05Z</time>
      </trkpt>
      <trkpt lat="39.1812830" lon="-8.7177250">
        <ele>18.6</ele>
        <time>2019-07-12T05:45:09Z</time>
      </trkpt>
      <trkpt lat="39.1813270" lon="-8.7178500">
        <ele>18.4</ele>
        <time>2019-07-12T05:45:11Z</time>
      </trkpt>
      <trkpt lat="39.1815200" lon="-8.7183370">
        <ele>18.6</ele>
        <time>2019-07-12T05:45:19Z</time>
      </trkpt>
      <trkpt lat="39.1817270" lon="-8.7188230">
        <ele>18.4</ele>
        <time>2019-07-12T05:45:27Z</time>
      </trkpt>
      <trkpt lat="39.1818620" lon="-8.7191880">
        <ele>18.2</ele>
        <time>2019-07-12T05:45:33Z</time>
      </trkpt>
      <trkpt lat="39.1819050" lon="-8.7193060">
        <ele>18.0</ele>
        <time>2019-07-12T05:45:35Z</time>
      </trkpt>
      <trkpt lat="39.1820200" lon="-8.7196080">
        <ele>18.2</ele>
        <time>2019-07-12T05:45:40Z</time>
      </trkpt>
      <trkpt lat="39.1821100" lon="-8.7198610">
        <ele>17.8</ele>
        <time>2019-07-12T05:45:44Z</time>
      </trkpt>
      <trkpt lat="39.1821940" lon="-8.7201050">
        <ele>17.6</ele>
        <time>2019-07-12T05:45:48Z</time>
      </trkpt>
      <trkpt lat="39.1822160" lon="-8.7201610">
        <ele>17.6</ele>
        <time>2019-07-12T05:45:49Z</time>
      </trkpt>
      <trkpt lat="39.1823900" lon="-8.7206020">
        <ele>17.8</ele>
        <time>2019-07-12T05:45:57Z</time>
      </trkpt>
      <trkpt lat="39.1824480" lon="-8.7207500">
        <ele>17.6</ele>
        <time>2019-07-12T05:46:00Z</time>
      </trkpt>
      <trkpt lat="39.1825280" lon="-8.7209570">
        <ele>17.6</ele>
        <time>2019-07-12T05:46:04Z</time>
      </trkpt>
      <trkpt lat="39.1826960" lon="-8.7213330">
        <ele>18.0</ele>
        <time>2019-07-12T05:46:12Z</time>
      </trkpt>
      <trkpt lat="39.1826870" lon="-8.7214960">
        <ele>18.4</ele>
        <time>2019-07-12T05:46:16Z</time>
      </trkpt>
      <trkpt lat="39.1825500" lon="-8.7215230">
        <ele>18.4</ele>
        <time>2019-07-12T05:46:20Z</time>
      </trkpt>
      <trkpt lat="39.1824250" lon="-8.7215050">
        <ele>18.4</ele>
        <time>2019-07-12T05:46:23Z</time>
      </trkpt>
      <trkpt lat="39.1822450" lon="-8.7214990">
        <ele>18.4</ele>
        <time>2019-07-12T05:46:27Z</time>
      </trkpt>
      <trkpt lat="39.1820300" lon="-8.7214980">
        <ele>18.4</ele>
        <time>2019-07-12T05:46:32Z</time>
      </trkpt>
      <trkpt lat="39.1819140" lon="-8.7214920">
        <ele>18.4</ele>
        <time>2019-07-12T05:46:35Z</time>
      </trkpt>
      <trkpt lat="39.1816920" lon="-8.7214920">
        <ele>18.4</ele>
        <time>2019-07-12T05:46:41Z</time>
      </trkpt>
      <trkpt lat="39.1816070" lon="-8.7215060">
        <ele>18.2</ele>
        <time>2019-07-12T05:46:44Z</time>
      </trkpt>
      <trkpt lat="39.1815950" lon="-8.7214940">
        <ele>18.2</ele>
        <time>2019-07-12T05:46:45Z</time>
      </trkpt>
      <trkpt lat="39.1816190" lon="-8.7214670">
        <ele>18.2</ele>
        <time>2019-07-12T05:46:48Z</time>
      </trkpt>
      <trkpt lat="39.1816880" lon="-8.7214760">
        <ele>18.0</ele>
        <time>2019-07-12T05:46:51Z</time>
      </trkpt>
      <trkpt lat="39.1817520" lon="-8.7214780">
        <ele>18.0</ele>
        <time>2019-07-12T05:46:53Z</time>
      </trkpt>
      <trkpt lat="39.1818650" lon="-8.7214790">
        <ele>18.2</ele>
        <time>2019-07-12T05:46:56Z</time>
      </trkpt>
      <trkpt lat="39.1819940" lon="-8.7214930">
        <ele>18.0</ele>
        <time>2019-07-12T05:46:59Z</time>
      </trkpt>
      <trkpt lat="39.1823880" lon="-8.7214710">
        <ele>18.2</ele>
        <time>2019-07-12T05:47:07Z</time>
      </trkpt>
      <trkpt lat="39.1827610" lon="-8.7214990">
        <ele>18.4</ele>
        <time>2019-07-12T05:47:14Z</time>
      </trkpt>
      <trkpt lat="39.1829500" lon="-8.7216250">
        <ele>18.6</ele>
        <time>2019-07-12T05:47:18Z</time>
      </trkpt>
      <trkpt lat="39.1829930" lon="-8.7216680">
        <ele>18.4</ele>
        <time>2019-07-12T05:47:19Z</time>
      </trkpt>
      <trkpt lat="39.1832180" lon="-8.7219770">
        <ele>18.2</ele>
        <time>2019-07-12T05:47:25Z</time>
      </trkpt>
      <trkpt lat="39.1834730" lon="-8.7223450">
        <ele>18.6</ele>
        <time>2019-07-12T05:47:32Z</time>
      </trkpt>
      <trkpt lat="39.1836080" lon="-8.7225590">
        <ele>19.0</ele>
        <time>2019-07-12T05:47:36Z</time>
      </trkpt>
      <trkpt lat="39.1836780" lon="-8.7226650">
        <ele>19.4</ele>
        <time>2019-07-12T05:47:38Z</time>
      </trkpt>
      <trkpt lat="39.1837840" lon="-8.7228350">
        <ele>19.8</ele>
        <time>2019-07-12T05:47:41Z</time>
      </trkpt>
      <trkpt lat="39.1838630" lon="-8.7229500">
        <ele>20.2</ele>
        <time>2019-07-12T05:47:43Z</time>
      </trkpt>
      <trkpt lat="39.1839080" lon="-8.7230010">
        <ele>20.0</ele>
        <time>2019-07-12T05:47:44Z</time>
      </trkpt>
      <trkpt lat="39.1839610" lon="-8.7230410">
        <ele>20.0</ele>
        <time>2019-07-12T05:47:45Z</time>
      </trkpt>
      <trkpt lat="39.1841340" lon="-8.7230420">
        <ele>19.8</ele>
        <time>2019-07-12T05:47:48Z</time>
      </trkpt>
      <trkpt lat="39.1842340" lon="-8.7229770">
        <ele>19.8</ele>
        <time>2019-07-12T05:47:50Z</time>
      </trkpt>
      <trkpt lat="39.1844230" lon="-8.7228730">
        <ele>20.4</ele>
        <time>2019-07-12T05:47:54Z</time>
      </trkpt>
      <trkpt lat="39.1846110" lon="-8.7228920">
        <ele>21.0</ele>
        <time>2019-07-12T05:47:58Z</time>
      </trkpt>
      <trkpt lat="39.1846580" lon="-8.7229150">
        <ele>21.2</ele>
        <time>2019-07-12T05:47:59Z</time>
      </trkpt>
      <trkpt lat="39.1847050" lon="-8.7229400">
        <ele>21.4</ele>
        <time>2019-07-12T05:48:00Z</time>
      </trkpt>
      <trkpt lat="39.1849330" lon="-8.7231020">
        <ele>22.0</ele>
        <time>2019-07-12T05:48:05Z</time>
      </trkpt>
      <trkpt lat="39.1850660" lon="-8.7232000">
        <ele>22.4</ele>
        <time>2019-07-12T05:48:08Z</time>
      </trkpt>
      <trkpt lat="39.1853730" lon="-8.7234190">
        <ele>23.0</ele>
        <time>2019-07-12T05:48:15Z</time>
      </trkpt>
      <trkpt lat="39.1855890" lon="-8.7235700">
        <ele>23.4</ele>
        <time>2019-07-12T05:48:20Z</time>
      </trkpt>
      <trkpt lat="39.1857250" lon="-8.7236640">
        <ele>23.6</ele>
        <time>2019-07-12T05:48:23Z</time>
      </trkpt>
      <trkpt lat="39.1858990" lon="-8.7238120">
        <ele>23.6</ele>
        <time>2019-07-12T05:48:27Z</time>
      </trkpt>
      <trkpt lat="39.1859690" lon="-8.7239150">
        <ele>23.8</ele>
        <time>2019-07-12T05:48:29Z</time>
      </trkpt>
      <trkpt lat="39.1860300" lon="-8.7240240">
        <ele>23.6</ele>
        <time>2019-07-12T05:48:31Z</time>
      </trkpt>
      <trkpt lat="39.1861290" lon="-8.7241780">
        <ele>23.6</ele>
        <time>2019-07-12T05:48:34Z</time>
      </trkpt>
      <trkpt lat="39.1861680" lon="-8.7242210">
        <ele>23.6</ele>
        <time>2019-07-12T05:48:35Z</time>
      </trkpt>
      <trkpt lat="39.1863450" lon="-8.7243720">
        <ele>23.8</ele>
        <time>2019-07-12T05:48:39Z</time>
      </trkpt>
      <trkpt lat="39.1864430" lon="-8.7244230">
        <ele>24.2</ele>
        <time>2019-07-12T05:48:41Z</time>
      </trkpt>
      <trkpt lat="39.1866820" lon="-8.7245410">
        <ele>24.4</ele>
        <time>2019-07-12T05:48:46Z</time>
      </trkpt>
      <trkpt lat="39.1867280" lon="-8.7245620">
        <ele>24.4</ele>
        <time>2019-07-12T05:48:47Z</time>
      </trkpt>
      <trkpt lat="39.1868600" lon="-8.7246270">
        <ele>24.8</ele>
        <time>2019-07-12T05:48:50Z</time>
      </trkpt>
      <trkpt lat="39.1870750" lon="-8.7247350">
        <ele>25.6</ele>
        <time>2019-07-12T05:48:55Z</time>
      </trkpt>
      <trkpt lat="39.1872440" lon="-8.7248200">
        <ele>26.2</ele>
        <time>2019-07-12T05:48:59Z</time>
      </trkpt>
      <trkpt lat="39.1873270" lon="-8.7248620">
        <ele>26.6</ele>
        <time>2019-07-12T05:49:01Z</time>
      </trkpt>
      <trkpt lat="39.1875390" lon="-8.7249600">
        <ele>27.2</ele>
        <time>2019-07-12T05:49:06Z</time>
      </trkpt>
      <trkpt lat="39.1876270" lon="-8.7249940">
        <ele>27.4</ele>
        <time>2019-07-12T05:49:08Z</time>
      </trkpt>
      <trkpt lat="39.1876690" lon="-8.7250180">
        <ele>27.6</ele>
        <time>2019-07-12T05:49:09Z</time>
      </trkpt>
      <trkpt lat="39.1877520" lon="-8.7250690">
        <ele>27.8</ele>
        <time>2019-07-12T05:49:11Z</time>
      </trkpt>
      <trkpt lat="39.1879250" lon="-8.7251460">
        <ele>28.6</ele>
        <time>2019-07-12T05:49:15Z</time>
      </trkpt>
      <trkpt lat="39.1879680" lon="-8.7251690">
        <ele>28.6</ele>
        <time>2019-07-12T05:49:16Z</time>
      </trkpt>
      <trkpt lat="39.1883100" lon="-8.7253500">
        <ele>29.6</ele>
        <time>2019-07-12T05:49:24Z</time>
      </trkpt>
      <trkpt lat="39.1883530" lon="-8.7253710">
        <ele>29.8</ele>
        <time>2019-07-12T05:49:25Z</time>
      </trkpt>
      <trkpt lat="39.1886000" lon="-8.7255130">
        <ele>30.8</ele>
        <time>2019-07-12T05:49:31Z</time>
      </trkpt>
      <trkpt lat="39.1886850" lon="-8.7255540">
        <ele>31.2</ele>
        <time>2019-07-12T05:49:33Z</time>
      </trkpt>
      <trkpt lat="39.1888500" lon="-8.7256430">
        <ele>31.8</ele>
        <time>2019-07-12T05:49:37Z</time>
      </trkpt>
      <trkpt lat="39.1890130" lon="-8.7257270">
        <ele>32.0</ele>
        <time>2019-07-12T05:49:41Z</time>
      </trkpt>
      <trkpt lat="39.1892480" lon="-8.7258650">
        <ele>32.8</ele>
        <time>2019-07-12T05:49:47Z</time>
      </trkpt>
      <trkpt lat="39.1892870" lon="-8.7258930">
        <ele>32.8</ele>
        <time>2019-07-12T05:49:48Z</time>
      </trkpt>
      <trkpt lat="39.1893630" lon="-8.7259560">
        <ele>33.0</ele>
        <time>2019-07-12T05:49:50Z</time>
      </trkpt>
      <trkpt lat="39.1894330" lon="-8.7260230">
        <ele>33.4</ele>
        <time>2019-07-12T05:49:52Z</time>
      </trkpt>
      <trkpt lat="39.1895320" lon="-8.7261440">
        <ele>33.8</ele>
        <time>2019-07-12T05:49:55Z</time>
      </trkpt>
      <trkpt lat="39.1895650" lon="-8.7261880">
        <ele>34.0</ele>
        <time>2019-07-12T05:49:56Z</time>
      </trkpt>
      <trkpt lat="39.1897250" lon="-8.7263930">
        <ele>34.8</ele>
        <time>2019-07-12T05:50:01Z</time>
      </trkpt>
      <trkpt lat="39.1897830" lon="-8.7264720">
        <ele>35.2</ele>
        <time>2019-07-12T05:50:03Z</time>
      </trkpt>
      <trkpt lat="39.1898680" lon="-8.7266340">
        <ele>36.0</ele>
        <time>2019-07-12T05:50:07Z</time>
      </trkpt>
      <trkpt lat="39.1899160" lon="-8.7267100">
        <ele>36.6</ele>
        <time>2019-07-12T05:50:09Z</time>
      </trkpt>
      <trkpt lat="39.1899430" lon="-8.7267490">
        <ele>36.8</ele>
        <time>2019-07-12T05:50:10Z</time>
      </trkpt>
      <trkpt lat="39.1900290" lon="-8.7268680">
        <ele>37.0</ele>
        <time>2019-07-12T05:50:13Z</time>
      </trkpt>
      <trkpt lat="39.1900800" lon="-8.7269590">
        <ele>37.2</ele>
        <time>2019-07-12T05:50:15Z</time>
      </trkpt>
      <trkpt lat="39.1902850" lon="-8.7274390">
        <ele>37.6</ele>
        <time>2019-07-12T05:50:24Z</time>
      </trkpt>
      <trkpt lat="39.1904370" lon="-8.7278180">
        <ele>37.4</ele>
        <time>2019-07-12T05:50:30Z</time>
      </trkpt>
      <trkpt lat="39.1904620" lon="-8.7278860">
        <ele>37.2</ele>
        <time>2019-07-12T05:50:31Z</time>
      </trkpt>
      <trkpt lat="39.1905120" lon="-8.7280220">
        <ele>37.2</ele>
        <time>2019-07-12T05:50:33Z</time>
      </trkpt>
      <trkpt lat="39.1905600" lon="-8.7281620">
        <ele>37.0</ele>
        <time>2019-07-12T05:50:35Z</time>
      </trkpt>
      <trkpt lat="39.1906840" lon="-8.7285130">
        <ele>36.4</ele>
        <time>2019-07-12T05:50:40Z</time>
      </trkpt>
      <trkpt lat="39.1907610" lon="-8.7287300">
        <ele>36.0</ele>
        <time>2019-07-12T05:50:43Z</time>
      </trkpt>
      <trkpt lat="39.1908190" lon="-8.7288760">
        <ele>35.8</ele>
        <time>2019-07-12T05:50:45Z</time>
      </trkpt>
      <trkpt lat="39.1909110" lon="-8.7290810">
        <ele>35.6</ele>
        <time>2019-07-12T05:50:48Z</time>
      </trkpt>
      <trkpt lat="39.1909730" lon="-8.7292080">
        <ele>35.4</ele>
        <time>2019-07-12T05:50:50Z</time>
      </trkpt>
      <trkpt lat="39.1910370" lon="-8.7293330">
        <ele>35.2</ele>
        <time>2019-07-12T05:50:52Z</time>
      </trkpt>
      <trkpt lat="39.1911040" lon="-8.7294550">
        <ele>35.0</ele>
        <time>2019-07-12T05:50:54Z</time>
      </trkpt>
      <trkpt lat="39.1911390" lon="-8.7295150">
        <ele>34.8</ele>
        <time>2019-07-12T05:50:55Z</time>
      </trkpt>
      <trkpt lat="39.1913040" lon="-8.7298320">
        <ele>34.6</ele>
        <time>2019-07-12T05:51:00Z</time>
      </trkpt>
      <trkpt lat="39.1913560" lon="-8.7299670">
        <ele>34.2</ele>
        <time>2019-07-12T05:51:02Z</time>
      </trkpt>
      <trkpt lat="39.1914090" lon="-8.7301030">
        <ele>34.4</ele>
        <time>2019-07-12T05:51:04Z</time>
      </trkpt>
      <trkpt lat="39.1915000" lon="-8.7303050">
        <ele>34.0</ele>
        <time>2019-07-12T05:51:07Z</time>
      </trkpt>
      <trkpt lat="39.1915630" lon="-8.7304400">
        <ele>33.8</ele>
        <time>2019-07-12T05:51:09Z</time>
      </trkpt>
      <trkpt lat="39.1916660" lon="-8.7306390">
        <ele>33.6</ele>
        <time>2019-07-12T05:51:12Z</time>
      </trkpt>
      <trkpt lat="39.1917510" lon="-8.7308260">
        <ele>33.4</ele>
        <time>2019-07-12T05:51:15Z</time>
      </trkpt>
      <trkpt lat="39.1917870" lon="-8.7309060">
        <ele>33.0</ele>
        <time>2019-07-12T05:51:18Z</time>
      </trkpt>
      <trkpt lat="39.1917810" lon="-8.7309080">
        <ele>33.0</ele>
        <time>2019-07-12T05:51:19Z</time>
      </trkpt>
      <trkpt lat="39.1917800" lon="-8.7309080">
        <ele>32.8</ele>
        <time>2019-07-12T05:51:20Z</time>
      </trkpt>
      <trkpt lat="39.1918080" lon="-8.7309310">
        <ele>34.4</ele>
        <time>2019-07-12T06:01:10Z</time>
      </trkpt>
      <trkpt lat="39.1918300" lon="-8.7309760">
        <ele>34.4</ele>
        <time>2019-07-12T06:01:12Z</time>
      </trkpt>
      <trkpt lat="39.1918590" lon="-8.7310510">
        <ele>34.6</ele>
        <time>2019-07-12T06:01:15Z</time>
      </trkpt>
      <trkpt lat="39.1919320" lon="-8.7311960">
        <ele>35.2</ele>
        <time>2019-07-12T06:01:20Z</time>
      </trkpt>
      <trkpt lat="39.1919810" lon="-8.7313960">
        <ele>35.4</ele>
        <time>2019-07-12T06:01:25Z</time>
      </trkpt>
      <trkpt lat="39.1919680" lon="-8.7315630">
        <ele>35.2</ele>
        <time>2019-07-12T06:01:29Z</time>
      </trkpt>
      <trkpt lat="39.1919870" lon="-8.7318110">
        <ele>35.2</ele>
        <time>2019-07-12T06:01:34Z</time>
      </trkpt>
      <trkpt lat="39.1920080" lon="-8.7320050">
        <ele>35.4</ele>
        <time>2019-07-12T06:01:37Z</time>
      </trkpt>
      <trkpt lat="39.1920450" lon="-8.7321300">
        <ele>35.4</ele>
        <time>2019-07-12T06:01:39Z</time>
      </trkpt>
      <trkpt lat="39.1920930" lon="-8.7322500">
        <ele>35.4</ele>
        <time>2019-07-12T06:01:41Z</time>
      </trkpt>
      <trkpt lat="39.1921220" lon="-8.7323050">
        <ele>35.6</ele>
        <time>2019-07-12T06:01:42Z</time>
      </trkpt>
      <trkpt lat="39.1921590" lon="-8.7323550">
        <ele>35.6</ele>
        <time>2019-07-12T06:01:43Z</time>
      </trkpt>
      <trkpt lat="39.1921960" lon="-8.7324040">
        <ele>36.0</ele>
        <time>2019-07-12T06:01:44Z</time>
      </trkpt>
      <trkpt lat="39.1922810" lon="-8.7325680">
        <ele>36.4</ele>
        <time>2019-07-12T06:01:47Z</time>
      </trkpt>
      <trkpt lat="39.1923130" lon="-8.7326210">
        <ele>36.4</ele>
        <time>2019-07-12T06:01:48Z</time>
      </trkpt>
      <trkpt lat="39.1923460" lon="-8.7326750">
        <ele>36.6</ele>
        <time>2019-07-12T06:01:49Z</time>
      </trkpt>
      <trkpt lat="39.1923780" lon="-8.7327310">
        <ele>36.6</ele>
        <time>2019-07-12T06:01:50Z</time>
      </trkpt>
      <trkpt lat="39.1924470" lon="-8.7328420">
        <ele>37.0</ele>
        <time>2019-07-12T06:01:52Z</time>
      </trkpt>
      <trkpt lat="39.1925770" lon="-8.7329960">
        <ele>37.0</ele>
        <time>2019-07-12T06:01:55Z</time>
      </trkpt>
      <trkpt lat="39.1927440" lon="-8.7332070">
        <ele>37.0</ele>
        <time>2019-07-12T06:01:59Z</time>
      </trkpt>
      <trkpt lat="39.1928120" lon="-8.7333310">
        <ele>37.0</ele>
        <time>2019-07-12T06:02:01Z</time>
      </trkpt>
      <trkpt lat="39.1930200" lon="-8.7338190">
        <ele>36.8</ele>
        <time>2019-07-12T06:02:08Z</time>
      </trkpt>
      <trkpt lat="39.1932870" lon="-8.7343730">
        <ele>36.6</ele>
        <time>2019-07-12T06:02:16Z</time>
      </trkpt>
      <trkpt lat="39.1935410" lon="-8.7348210">
        <ele>37.0</ele>
        <time>2019-07-12T06:02:23Z</time>
      </trkpt>
      <trkpt lat="39.1936640" lon="-8.7350920">
        <ele>36.8</ele>
        <time>2019-07-12T06:02:27Z</time>
      </trkpt>
      <trkpt lat="39.1936770" lon="-8.7351630">
        <ele>37.0</ele>
        <time>2019-07-12T06:02:28Z</time>
      </trkpt>
      <trkpt lat="39.1936570" lon="-8.7354580">
        <ele>37.6</ele>
        <time>2019-07-12T06:02:32Z</time>
      </trkpt>
      <trkpt lat="39.1936560" lon="-8.7355270">
        <ele>37.8</ele>
        <time>2019-07-12T06:02:33Z</time>
      </trkpt>
      <trkpt lat="39.1936850" lon="-8.7357800">
        <ele>38.6</ele>
        <time>2019-07-12T06:02:37Z</time>
      </trkpt>
      <trkpt lat="39.1936940" lon="-8.7358390">
        <ele>38.8</ele>
        <time>2019-07-12T06:02:38Z</time>
      </trkpt>
      <trkpt lat="39.1937090" lon="-8.7359560">
        <ele>39.4</ele>
        <time>2019-07-12T06:02:40Z</time>
      </trkpt>
      <trkpt lat="39.1937160" lon="-8.7360770">
        <ele>40.0</ele>
        <time>2019-07-12T06:02:42Z</time>
      </trkpt>
      <trkpt lat="39.1937210" lon="-8.7363680">
        <ele>41.0</ele>
        <time>2019-07-12T06:02:47Z</time>
      </trkpt>
      <trkpt lat="39.1937200" lon="-8.7364250">
        <ele>41.2</ele>
        <time>2019-07-12T06:02:48Z</time>
      </trkpt>
      <trkpt lat="39.1937150" lon="-8.7364820">
        <ele>41.4</ele>
        <time>2019-07-12T06:02:49Z</time>
      </trkpt>
      <trkpt lat="39.1937030" lon="-8.7365950">
        <ele>42.0</ele>
        <time>2019-07-12T06:02:51Z</time>
      </trkpt>
      <trkpt lat="39.1936970" lon="-8.7366480">
        <ele>42.2</ele>
        <time>2019-07-12T06:02:52Z</time>
      </trkpt>
      <trkpt lat="39.1936770" lon="-8.7368080">
        <ele>43.0</ele>
        <time>2019-07-12T06:02:55Z</time>
      </trkpt>
      <trkpt lat="39.1936650" lon="-8.7369160">
        <ele>43.4</ele>
        <time>2019-07-12T06:02:57Z</time>
      </trkpt>
      <trkpt lat="39.1936610" lon="-8.7369670">
        <ele>43.6</ele>
        <time>2019-07-12T06:02:58Z</time>
      </trkpt>
      <trkpt lat="39.1936600" lon="-8.7371790">
        <ele>44.6</ele>
        <time>2019-07-12T06:03:02Z</time>
      </trkpt>
      <trkpt lat="39.1936670" lon="-8.7373670">
        <ele>45.6</ele>
        <time>2019-07-12T06:03:06Z</time>
      </trkpt>
      <trkpt lat="39.1936860" lon="-8.7375400">
        <ele>46.8</ele>
        <time>2019-07-12T06:03:10Z</time>
      </trkpt>
      <trkpt lat="39.1936680" lon="-8.7377010">
        <ele>48.0</ele>
        <time>2019-07-12T06:03:14Z</time>
      </trkpt>
      <trkpt lat="39.1936550" lon="-8.7377400">
        <ele>48.2</ele>
        <time>2019-07-12T06:03:15Z</time>
      </trkpt>
      <trkpt lat="39.1935950" lon="-8.7379030">
        <ele>49.2</ele>
        <time>2019-07-12T06:03:19Z</time>
      </trkpt>
      <trkpt lat="39.1935520" lon="-8.7379860">
        <ele>49.6</ele>
        <time>2019-07-12T06:03:21Z</time>
      </trkpt>
      <trkpt lat="39.1934780" lon="-8.7381120">
        <ele>50.2</ele>
        <time>2019-07-12T06:03:24Z</time>
      </trkpt>
      <trkpt lat="39.1933730" lon="-8.7382750">
        <ele>50.8</ele>
        <time>2019-07-12T06:03:28Z</time>
      </trkpt>
      <trkpt lat="39.1932610" lon="-8.7384400">
        <ele>51.4</ele>
        <time>2019-07-12T06:03:32Z</time>
      </trkpt>
      <trkpt lat="39.1931320" lon="-8.7386600">
        <ele>51.8</ele>
        <time>2019-07-12T06:03:37Z</time>
      </trkpt>
      <trkpt lat="39.1931130" lon="-8.7387070">
        <ele>52.4</ele>
        <time>2019-07-12T06:03:38Z</time>
      </trkpt>
      <trkpt lat="39.1930450" lon="-8.7388820">
        <ele>53.4</ele>
        <time>2019-07-12T06:03:42Z</time>
      </trkpt>
      <trkpt lat="39.1929890" lon="-8.7390060">
        <ele>54.2</ele>
        <time>2019-07-12T06:03:45Z</time>
      </trkpt>
      <trkpt lat="39.1929670" lon="-8.7390480">
        <ele>54.6</ele>
        <time>2019-07-12T06:03:46Z</time>
      </trkpt>
      <trkpt lat="39.1928150" lon="-8.7392900">
        <ele>55.6</ele>
        <time>2019-07-12T06:03:52Z</time>
      </trkpt>
      <trkpt lat="39.1927580" lon="-8.7393570">
        <ele>56.0</ele>
        <time>2019-07-12T06:03:54Z</time>
      </trkpt>
      <trkpt lat="39.1926580" lon="-8.7394500">
        <ele>56.8</ele>
        <time>2019-07-12T06:03:57Z</time>
      </trkpt>
      <trkpt lat="39.1925880" lon="-8.7395050">
        <ele>57.2</ele>
        <time>2019-07-12T06:03:59Z</time>
      </trkpt>
      <trkpt lat="39.1924440" lon="-8.7395980">
        <ele>57.8</ele>
        <time>2019-07-12T06:04:03Z</time>
      </trkpt>
      <trkpt lat="39.1922970" lon="-8.7397190">
        <ele>58.6</ele>
        <time>2019-07-12T06:04:07Z</time>
      </trkpt>
      <trkpt lat="39.1922280" lon="-8.7397840">
        <ele>59.0</ele>
        <time>2019-07-12T06:04:09Z</time>
      </trkpt>
      <trkpt lat="39.1921310" lon="-8.7398880">
        <ele>60.0</ele>
        <time>2019-07-12T06:04:12Z</time>
      </trkpt>
      <trkpt lat="39.1920690" lon="-8.7399620">
        <ele>60.4</ele>
        <time>2019-07-12T06:04:14Z</time>
      </trkpt>
      <trkpt lat="39.1920410" lon="-8.7400040">
        <ele>60.6</ele>
        <time>2019-07-12T06:04:15Z</time>
      </trkpt>
      <trkpt lat="39.1919960" lon="-8.7400950">
        <ele>60.8</ele>
        <time>2019-07-12T06:04:17Z</time>
      </trkpt>
      <trkpt lat="39.1919790" lon="-8.7401430">
        <ele>61.2</ele>
        <time>2019-07-12T06:04:18Z</time>
      </trkpt>
      <trkpt lat="39.1919530" lon="-8.7402380">
        <ele>61.8</ele>
        <time>2019-07-12T06:04:20Z</time>
      </trkpt>
      <trkpt lat="39.1919460" lon="-8.7403300">
        <ele>62.2</ele>
        <time>2019-07-12T06:04:22Z</time>
      </trkpt>
      <trkpt lat="39.1919320" lon="-8.7405080">
        <ele>63.2</ele>
        <time>2019-07-12T06:04:26Z</time>
      </trkpt>
      <trkpt lat="39.1919330" lon="-8.7405520">
        <ele>63.4</ele>
        <time>2019-07-12T06:04:27Z</time>
      </trkpt>
      <trkpt lat="39.1919310" lon="-8.7407390">
        <ele>64.6</ele>
        <time>2019-07-12T06:04:31Z</time>
      </trkpt>
      <trkpt lat="39.1919150" lon="-8.7408280">
        <ele>65.0</ele>
        <time>2019-07-12T06:04:33Z</time>
      </trkpt>
      <trkpt lat="39.1918490" lon="-8.7410420">
        <ele>65.6</ele>
        <time>2019-07-12T06:04:38Z</time>
      </trkpt>
      <trkpt lat="39.1917860" lon="-8.7412040">
        <ele>66.6</ele>
        <time>2019-07-12T06:04:42Z</time>
      </trkpt>
      <trkpt lat="39.1917680" lon="-8.7412430">
        <ele>66.8</ele>
        <time>2019-07-12T06:04:43Z</time>
      </trkpt>
      <trkpt lat="39.1916850" lon="-8.7413890">
        <ele>67.8</ele>
        <time>2019-07-12T06:04:47Z</time>
      </trkpt>
      <trkpt lat="39.1916310" lon="-8.7414490">
        <ele>68.0</ele>
        <time>2019-07-12T06:04:49Z</time>
      </trkpt>
      <trkpt lat="39.1915170" lon="-8.7415660">
        <ele>69.0</ele>
        <time>2019-07-12T06:04:53Z</time>
      </trkpt>
      <trkpt lat="39.1914890" lon="-8.7415970">
        <ele>69.0</ele>
        <time>2019-07-12T06:04:54Z</time>
      </trkpt>
      <trkpt lat="39.1913260" lon="-8.7417390">
        <ele>70.0</ele>
        <time>2019-07-12T06:04:59Z</time>
      </trkpt>
      <trkpt lat="39.1912590" lon="-8.7418010">
        <ele>70.4</ele>
        <time>2019-07-12T06:05:01Z</time>
      </trkpt>
      <trkpt lat="39.1911560" lon="-8.7418850">
        <ele>71.2</ele>
        <time>2019-07-12T06:05:04Z</time>
      </trkpt>
      <trkpt lat="39.1910660" lon="-8.7419730">
        <ele>71.8</ele>
        <time>2019-07-12T06:05:07Z</time>
      </trkpt>
      <trkpt lat="39.1910020" lon="-8.7420340">
        <ele>72.4</ele>
        <time>2019-07-12T06:05:09Z</time>
      </trkpt>
      <trkpt lat="39.1908580" lon="-8.7421470">
        <ele>73.4</ele>
        <time>2019-07-12T06:05:13Z</time>
      </trkpt>
      <trkpt lat="39.1908210" lon="-8.7421730">
        <ele>73.6</ele>
        <time>2019-07-12T06:05:14Z</time>
      </trkpt>
      <trkpt lat="39.1906680" lon="-8.7422690">
        <ele>74.4</ele>
        <time>2019-07-12T06:05:18Z</time>
      </trkpt>
      <trkpt lat="39.1905120" lon="-8.7423510">
        <ele>75.2</ele>
        <time>2019-07-12T06:05:22Z</time>
      </trkpt>
      <trkpt lat="39.1904380" lon="-8.7423910">
        <ele>75.6</ele>
        <time>2019-07-12T06:05:24Z</time>
      </trkpt>
      <trkpt lat="39.1902970" lon="-8.7424680">
        <ele>76.0</ele>
        <time>2019-07-12T06:05:28Z</time>
      </trkpt>
      <trkpt lat="39.1901840" lon="-8.7425340">
        <ele>76.6</ele>
        <time>2019-07-12T06:05:31Z</time>
      </trkpt>
      <trkpt lat="39.1900860" lon="-8.7426320">
        <ele>76.8</ele>
        <time>2019-07-12T06:05:34Z</time>
      </trkpt>
      <trkpt lat="39.1900190" lon="-8.7427540">
        <ele>77.4</ele>
        <time>2019-07-12T06:05:37Z</time>
      </trkpt>
      <trkpt lat="39.1899990" lon="-8.7427980">
        <ele>77.6</ele>
        <time>2019-07-12T06:05:38Z</time>
      </trkpt>
      <trkpt lat="39.1899650" lon="-8.7428900">
        <ele>78.0</ele>
        <time>2019-07-12T06:05:40Z</time>
      </trkpt>
      <trkpt lat="39.1899160" lon="-8.7430870">
        <ele>78.8</ele>
        <time>2019-07-12T06:05:44Z</time>
      </trkpt>
      <trkpt lat="39.1899070" lon="-8.7431960">
        <ele>79.4</ele>
        <time>2019-07-12T06:05:46Z</time>
      </trkpt>
      <trkpt lat="39.1899070" lon="-8.7433040">
        <ele>79.8</ele>
        <time>2019-07-12T06:05:48Z</time>
      </trkpt>
      <trkpt lat="39.1899190" lon="-8.7435750">
        <ele>81.0</ele>
        <time>2019-07-12T06:05:53Z</time>
      </trkpt>
      <trkpt lat="39.1899040" lon="-8.7438620">
        <ele>82.0</ele>
        <time>2019-07-12T06:05:58Z</time>
      </trkpt>
      <trkpt lat="39.1898910" lon="-8.7439170">
        <ele>82.2</ele>
        <time>2019-07-12T06:05:59Z</time>
      </trkpt>
      <trkpt lat="39.1898780" lon="-8.7439720">
        <ele>82.4</ele>
        <time>2019-07-12T06:06:00Z</time>
      </trkpt>
      <trkpt lat="39.1897870" lon="-8.7442990">
        <ele>83.2</ele>
        <time>2019-07-12T06:06:06Z</time>
      </trkpt>
      <trkpt lat="39.1897510" lon="-8.7444130">
        <ele>83.6</ele>
        <time>2019-07-12T06:06:08Z</time>
      </trkpt>
      <trkpt lat="39.1895860" lon="-8.7448470">
        <ele>84.2</ele>
        <time>2019-07-12T06:06:15Z</time>
      </trkpt>
      <trkpt lat="39.1895610" lon="-8.7449140">
        <ele>84.2</ele>
        <time>2019-07-12T06:06:16Z</time>
      </trkpt>
      <trkpt lat="39.1894910" lon="-8.7451200">
        <ele>84.4</ele>
        <time>2019-07-12T06:06:19Z</time>
      </trkpt>
      <trkpt lat="39.1893920" lon="-8.7453980">
        <ele>84.0</ele>
        <time>2019-07-12T06:06:23Z</time>
      </trkpt>
      <trkpt lat="39.1893400" lon="-8.7455400">
        <ele>84.0</ele>
        <time>2019-07-12T06:06:25Z</time>
      </trkpt>
      <trkpt lat="39.1892080" lon="-8.7458920">
        <ele>83.8</ele>
        <time>2019-07-12T06:06:30Z</time>
      </trkpt>
      <trkpt lat="39.1891330" lon="-8.7461130">
        <ele>83.6</ele>
        <time>2019-07-12T06:06:33Z</time>
      </trkpt>
      <trkpt lat="39.1888820" lon="-8.7468230">
        <ele>83.6</ele>
        <time>2019-07-12T06:06:42Z</time>
      </trkpt>
      <trkpt lat="39.1887020" lon="-8.7473210">
        <ele>83.2</ele>
        <time>2019-07-12T06:06:48Z</time>
      </trkpt>
      <trkpt lat="39.1885790" lon="-8.7476580">
        <ele>83.0</ele>
        <time>2019-07-12T06:06:52Z</time>
      </trkpt>
      <trkpt lat="39.1883840" lon="-8.7481540">
        <ele>82.8</ele>
        <time>2019-07-12T06:06:58Z</time>
      </trkpt>
      <trkpt lat="39.1880780" lon="-8.7487910">
        <ele>82.6</ele>
        <time>2019-07-12T06:07:06Z</time>
      </trkpt>
      <trkpt lat="39.1879980" lon="-8.7489480">
        <ele>82.4</ele>
        <time>2019-07-12T06:07:08Z</time>
      </trkpt>
      <trkpt lat="39.1877670" lon="-8.7494210">
        <ele>82.2</ele>
        <time>2019-07-12T06:07:14Z</time>
      </trkpt>
      <trkpt lat="39.1875700" lon="-8.7498180">
        <ele>82.2</ele>
        <time>2019-07-12T06:07:19Z</time>
      </trkpt>
      <trkpt lat="39.1872640" lon="-8.7504440">
        <ele>82.2</ele>
        <time>2019-07-12T06:07:27Z</time>
      </trkpt>
      <trkpt lat="39.1872260" lon="-8.7505220">
        <ele>82.0</ele>
        <time>2019-07-12T06:07:28Z</time>
      </trkpt>
      <trkpt lat="39.1868940" lon="-8.7511470">
        <ele>81.6</ele>
        <time>2019-07-12T06:07:36Z</time>
      </trkpt>
      <trkpt lat="39.1866170" lon="-8.7514770">
        <ele>81.8</ele>
        <time>2019-07-12T06:07:41Z</time>
      </trkpt>
      <trkpt lat="39.1861500" lon="-8.7519690">
        <ele>81.8</ele>
        <time>2019-07-12T06:07:49Z</time>
      </trkpt>
      <trkpt lat="39.1860360" lon="-8.7520900">
        <ele>81.8</ele>
        <time>2019-07-12T06:07:51Z</time>
      </trkpt>
      <trkpt lat="39.1856300" lon="-8.7525130">
        <ele>81.2</ele>
        <time>2019-07-12T06:07:58Z</time>
      </trkpt>
      <trkpt lat="39.1854380" lon="-8.7527100">
        <ele>80.6</ele>
        <time>2019-07-12T06:08:01Z</time>
      </trkpt>
      <trkpt lat="39.1853070" lon="-8.7528480">
        <ele>79.8</ele>
        <time>2019-07-12T06:08:03Z</time>
      </trkpt>
      <trkpt lat="39.1850970" lon="-8.7530610">
        <ele>78.8</ele>
        <time>2019-07-12T06:08:06Z</time>
      </trkpt>
      <trkpt lat="39.1849500" lon="-8.7532090">
        <ele>78.2</ele>
        <time>2019-07-12T06:08:08Z</time>
      </trkpt>
      <trkpt lat="39.1847310" lon="-8.7534460">
        <ele>77.6</ele>
        <time>2019-07-12T06:08:11Z</time>
      </trkpt>
      <trkpt lat="39.1845060" lon="-8.7536770">
        <ele>76.4</ele>
        <time>2019-07-12T06:08:14Z</time>
      </trkpt>
      <trkpt lat="39.1844320" lon="-8.7537530">
        <ele>76.2</ele>
        <time>2019-07-12T06:08:15Z</time>
      </trkpt>
      <trkpt lat="39.1842150" lon="-8.7539770">
        <ele>75.2</ele>
        <time>2019-07-12T06:08:18Z</time>
      </trkpt>
      <trkpt lat="39.1840080" lon="-8.7541840">
        <ele>74.8</ele>
        <time>2019-07-12T06:08:21Z</time>
      </trkpt>
      <trkpt lat="39.1838770" lon="-8.7543160">
        <ele>74.6</ele>
        <time>2019-07-12T06:08:23Z</time>
      </trkpt>
      <trkpt lat="39.1836840" lon="-8.7545170">
        <ele>74.4</ele>
        <time>2019-07-12T06:08:26Z</time>
      </trkpt>
      <trkpt lat="39.1834940" lon="-8.7547160">
        <ele>74.2</ele>
        <time>2019-07-12T06:08:29Z</time>
      </trkpt>
      <trkpt lat="39.1830670" lon="-8.7551550">
        <ele>74.6</ele>
        <time>2019-07-12T06:08:36Z</time>
      </trkpt>
      <trkpt lat="39.1827690" lon="-8.7554720">
        <ele>74.4</ele>
        <time>2019-07-12T06:08:41Z</time>
      </trkpt>
      <trkpt lat="39.1826490" lon="-8.7555960">
        <ele>74.4</ele>
        <time>2019-07-12T06:08:43Z</time>
      </trkpt>
      <trkpt lat="39.1824660" lon="-8.7557830">
        <ele>74.6</ele>
        <time>2019-07-12T06:08:46Z</time>
      </trkpt>
      <trkpt lat="39.1821640" lon="-8.7560920">
        <ele>74.6</ele>
        <time>2019-07-12T06:08:51Z</time>
      </trkpt>
      <trkpt lat="39.1819870" lon="-8.7562790">
        <ele>74.4</ele>
        <time>2019-07-12T06:08:54Z</time>
      </trkpt>
      <trkpt lat="39.1815660" lon="-8.7567200">
        <ele>73.8</ele>
        <time>2019-07-12T06:09:01Z</time>
      </trkpt>
      <trkpt lat="39.1813780" lon="-8.7569070">
        <ele>73.4</ele>
        <time>2019-07-12T06:09:04Z</time>
      </trkpt>
      <trkpt lat="39.1809380" lon="-8.7573690">
        <ele>72.8</ele>
        <time>2019-07-12T06:09:11Z</time>
      </trkpt>
      <trkpt lat="39.1808760" lon="-8.7574380">
        <ele>72.6</ele>
        <time>2019-07-12T06:09:12Z</time>
      </trkpt>
      <trkpt lat="39.1808150" lon="-8.7575130">
        <ele>72.6</ele>
        <time>2019-07-12T06:09:13Z</time>
      </trkpt>
      <trkpt lat="39.1804220" lon="-8.7581020">
        <ele>71.8</ele>
        <time>2019-07-12T06:09:20Z</time>
      </trkpt>
      <trkpt lat="39.1803710" lon="-8.7581890">
        <ele>71.6</ele>
        <time>2019-07-12T06:09:21Z</time>
      </trkpt>
      <trkpt lat="39.1800250" lon="-8.7587830">
        <ele>70.8</ele>
        <time>2019-07-12T06:09:28Z</time>
      </trkpt>
      <trkpt lat="39.1799300" lon="-8.7589440">
        <ele>70.6</ele>
        <time>2019-07-12T06:09:30Z</time>
      </trkpt>
      <trkpt lat="39.1796340" lon="-8.7594160">
        <ele>70.6</ele>
        <time>2019-07-12T06:09:36Z</time>
      </trkpt>
      <trkpt lat="39.1793120" lon="-8.7598130">
        <ele>70.8</ele>
        <time>2019-07-12T06:09:42Z</time>
      </trkpt>
      <trkpt lat="39.1789730" lon="-8.7603170">
        <ele>70.6</ele>
        <time>2019-07-12T06:09:49Z</time>
      </trkpt>
      <trkpt lat="39.1788280" lon="-8.7605440">
        <ele>70.6</ele>
        <time>2019-07-12T06:09:52Z</time>
      </trkpt>
      <trkpt lat="39.1786240" lon="-8.7608370">
        <ele>70.6</ele>
        <time>2019-07-12T06:09:56Z</time>
      </trkpt>
      <trkpt lat="39.1785120" lon="-8.7609720">
        <ele>70.6</ele>
        <time>2019-07-12T06:09:58Z</time>
      </trkpt>
      <trkpt lat="39.1781110" lon="-8.7614570">
        <ele>70.2</ele>
        <time>2019-07-12T06:10:05Z</time>
      </trkpt>
      <trkpt lat="39.1780610" lon="-8.7615350">
        <ele>70.2</ele>
        <time>2019-07-12T06:10:06Z</time>
      </trkpt>
      <trkpt lat="39.1776890" lon="-8.7621590">
        <ele>70.4</ele>
        <time>2019-07-12T06:10:14Z</time>
      </trkpt>
      <trkpt lat="39.1773240" lon="-8.7627660">
        <ele>70.6</ele>
        <time>2019-07-12T06:10:22Z</time>
      </trkpt>
      <trkpt lat="39.1772330" lon="-8.7629180">
        <ele>70.6</ele>
        <time>2019-07-12T06:10:24Z</time>
      </trkpt>
      <trkpt lat="39.1768440" lon="-8.7635400">
        <ele>69.8</ele>
        <time>2019-07-12T06:10:32Z</time>
      </trkpt>
      <trkpt lat="39.1767920" lon="-8.7636230">
        <ele>69.6</ele>
        <time>2019-07-12T06:10:33Z</time>
      </trkpt>
      <trkpt lat="39.1766360" lon="-8.7638860">
        <ele>69.2</ele>
        <time>2019-07-12T06:10:36Z</time>
      </trkpt>
      <trkpt lat="39.1764970" lon="-8.7641730">
        <ele>68.4</ele>
        <time>2019-07-12T06:10:39Z</time>
      </trkpt>
      <trkpt lat="39.1764580" lon="-8.7642730">
        <ele>68.2</ele>
        <time>2019-07-12T06:10:40Z</time>
      </trkpt>
      <trkpt lat="39.1764220" lon="-8.7643740">
        <ele>68.0</ele>
        <time>2019-07-12T06:10:41Z</time>
      </trkpt>
      <trkpt lat="39.1763290" lon="-8.7647880">
        <ele>67.8</ele>
        <time>2019-07-12T06:10:45Z</time>
      </trkpt>
      <trkpt lat="39.1763010" lon="-8.7653960">
        <ele>67.6</ele>
        <time>2019-07-12T06:10:51Z</time>
      </trkpt>
      <trkpt lat="39.1762800" lon="-8.7659690">
        <ele>67.8</ele>
        <time>2019-07-12T06:10:57Z</time>
      </trkpt>
      <trkpt lat="39.1762460" lon="-8.7662420">
        <ele>68.0</ele>
        <time>2019-07-12T06:11:00Z</time>
      </trkpt>
      <trkpt lat="39.1761930" lon="-8.7664030">
        <ele>68.0</ele>
        <time>2019-07-12T06:11:02Z</time>
      </trkpt>
      <trkpt lat="39.1760760" lon="-8.7666060">
        <ele>68.0</ele>
        <time>2019-07-12T06:11:05Z</time>
      </trkpt>
      <trkpt lat="39.1759940" lon="-8.7667370">
        <ele>67.8</ele>
        <time>2019-07-12T06:11:07Z</time>
      </trkpt>
      <trkpt lat="39.1757830" lon="-8.7670560">
        <ele>67.2</ele>
        <time>2019-07-12T06:11:12Z</time>
      </trkpt>
      <trkpt lat="39.1757010" lon="-8.7671780">
        <ele>67.0</ele>
        <time>2019-07-12T06:11:14Z</time>
      </trkpt>
      <trkpt lat="39.1756650" lon="-8.7672220">
        <ele>66.6</ele>
        <time>2019-07-12T06:11:15Z</time>
      </trkpt>
      <trkpt lat="39.1756010" lon="-8.7672850">
        <ele>66.2</ele>
        <time>2019-07-12T06:11:17Z</time>
      </trkpt>
      <trkpt lat="39.1755780" lon="-8.7673110">
        <ele>65.8</ele>
        <time>2019-07-12T06:11:18Z</time>
      </trkpt>
      <trkpt lat="39.1755580" lon="-8.7673630">
        <ele>65.6</ele>
        <time>2019-07-12T06:11:20Z</time>
      </trkpt>
      <trkpt lat="39.1755450" lon="-8.7674010">
        <ele>65.4</ele>
        <time>2019-07-12T06:11:22Z</time>
      </trkpt>
      <trkpt lat="39.1755190" lon="-8.7674340">
        <ele>65.4</ele>
        <time>2019-07-12T06:11:24Z</time>
      </trkpt>
      <trkpt lat="39.1754540" lon="-8.7675480">
        <ele>65.4</ele>
        <time>2019-07-12T06:11:28Z</time>
      </trkpt>
      <trkpt lat="39.1753780" lon="-8.7676680">
        <ele>65.2</ele>
        <time>2019-07-12T06:11:31Z</time>
      </trkpt>
      <trkpt lat="39.1753520" lon="-8.7677200">
        <ele>65.0</ele>
        <time>2019-07-12T06:11:32Z</time>
      </trkpt>
      <trkpt lat="39.1753060" lon="-8.7678400">
        <ele>65.0</ele>
        <time>2019-07-12T06:11:34Z</time>
      </trkpt>
      <trkpt lat="39.1752450" lon="-8.7680400">
        <ele>65.0</ele>
        <time>2019-07-12T06:11:37Z</time>
      </trkpt>
      <trkpt lat="39.1752240" lon="-8.7681060">
        <ele>65.0</ele>
        <time>2019-07-12T06:11:38Z</time>
      </trkpt>
      <trkpt lat="39.1751580" lon="-8.7683100">
        <ele>65.2</ele>
        <time>2019-07-12T06:11:41Z</time>
      </trkpt>
      <trkpt lat="39.1750940" lon="-8.7685050">
        <ele>65.6</ele>
        <time>2019-07-12T06:11:44Z</time>
      </trkpt>
      <trkpt lat="39.1750250" lon="-8.7686960">
        <ele>66.2</ele>
        <time>2019-07-12T06:11:47Z</time>
      </trkpt>
      <trkpt lat="39.1749820" lon="-8.7688240">
        <ele>66.4</ele>
        <time>2019-07-12T06:11:49Z</time>
      </trkpt>
      <trkpt lat="39.1749370" lon="-8.7689520">
        <ele>66.6</ele>
        <time>2019-07-12T06:11:51Z</time>
      </trkpt>
      <trkpt lat="39.1748690" lon="-8.7691440">
        <ele>67.2</ele>
        <time>2019-07-12T06:11:54Z</time>
      </trkpt>
      <trkpt lat="39.1748270" lon="-8.7692730">
        <ele>67.6</ele>
        <time>2019-07-12T06:11:56Z</time>
      </trkpt>
      <trkpt lat="39.1748050" lon="-8.7693380">
        <ele>67.8</ele>
        <time>2019-07-12T06:11:57Z</time>
      </trkpt>
      <trkpt lat="39.1747340" lon="-8.7695330">
        <ele>68.2</ele>
        <time>2019-07-12T06:12:00Z</time>
      </trkpt>
      <trkpt lat="39.1746890" lon="-8.7696760">
        <ele>68.2</ele>
        <time>2019-07-12T06:12:02Z</time>
      </trkpt>
      <trkpt lat="39.1746640" lon="-8.7697530">
        <ele>68.2</ele>
        <time>2019-07-12T06:12:03Z</time>
      </trkpt>
      <trkpt lat="39.1744880" lon="-8.7702910">
        <ele>66.6</ele>
        <time>2019-07-12T06:12:09Z</time>
      </trkpt>
      <trkpt lat="39.1743850" lon="-8.7705990">
        <ele>65.2</ele>
        <time>2019-07-12T06:12:12Z</time>
      </trkpt>
      <trkpt lat="39.1742730" lon="-8.7709250">
        <ele>64.0</ele>
        <time>2019-07-12T06:12:15Z</time>
      </trkpt>
      <trkpt lat="39.1742310" lon="-8.7710340">
        <ele>63.4</ele>
        <time>2019-07-12T06:12:16Z</time>
      </trkpt>
      <trkpt lat="39.1741440" lon="-8.7712560">
        <ele>62.6</ele>
        <time>2019-07-12T06:12:18Z</time>
      </trkpt>
      <trkpt lat="39.1740550" lon="-8.7714840">
        <ele>61.4</ele>
        <time>2019-07-12T06:12:20Z</time>
      </trkpt>
      <trkpt lat="39.1740090" lon="-8.7715980">
        <ele>60.8</ele>
        <time>2019-07-12T06:12:21Z</time>
      </trkpt>
      <trkpt lat="39.1739620" lon="-8.7717140">
        <ele>60.6</ele>
        <time>2019-07-12T06:12:22Z</time>
      </trkpt>
      <trkpt lat="39.1738650" lon="-8.7719460">
        <ele>59.8</ele>
        <time>2019-07-12T06:12:24Z</time>
      </trkpt>
      <trkpt lat="39.1738150" lon="-8.7720640">
        <ele>59.2</ele>
        <time>2019-07-12T06:12:25Z</time>
      </trkpt>
      <trkpt lat="39.1737180" lon="-8.7723020">
        <ele>58.0</ele>
        <time>2019-07-12T06:12:27Z</time>
      </trkpt>
      <trkpt lat="39.1736700" lon="-8.7724220">
        <ele>57.2</ele>
        <time>2019-07-12T06:12:28Z</time>
      </trkpt>
      <trkpt lat="39.1735750" lon="-8.7726570">
        <ele>56.2</ele>
        <time>2019-07-12T06:12:30Z</time>
      </trkpt>
      <trkpt lat="39.1734340" lon="-8.7729820">
        <ele>55.4</ele>
        <time>2019-07-12T06:12:33Z</time>
      </trkpt>
      <trkpt lat="39.1731610" lon="-8.7734430">
        <ele>55.0</ele>
        <time>2019-07-12T06:12:38Z</time>
      </trkpt>
      <trkpt lat="39.1727690" lon="-8.7740200">
        <ele>54.4</ele>
        <time>2019-07-12T06:12:45Z</time>
      </trkpt>
      <trkpt lat="39.1726610" lon="-8.7741730">
        <ele>54.6</ele>
        <time>2019-07-12T06:12:47Z</time>
      </trkpt>
      <trkpt lat="39.1725030" lon="-8.7743950">
        <ele>55.0</ele>
        <time>2019-07-12T06:12:50Z</time>
      </trkpt>
      <trkpt lat="39.1724020" lon="-8.7745390">
        <ele>55.2</ele>
        <time>2019-07-12T06:12:52Z</time>
      </trkpt>
      <trkpt lat="39.1722580" lon="-8.7747490">
        <ele>55.6</ele>
        <time>2019-07-12T06:12:55Z</time>
      </trkpt>
      <trkpt lat="39.1721640" lon="-8.7748790">
        <ele>56.2</ele>
        <time>2019-07-12T06:12:57Z</time>
      </trkpt>
      <trkpt lat="39.1719860" lon="-8.7751250">
        <ele>56.8</ele>
        <time>2019-07-12T06:13:01Z</time>
      </trkpt>
      <trkpt lat="39.1719010" lon="-8.7752440">
        <ele>57.0</ele>
        <time>2019-07-12T06:13:03Z</time>
      </trkpt>
      <trkpt lat="39.1718170" lon="-8.7753590">
        <ele>57.2</ele>
        <time>2019-07-12T06:13:05Z</time>
      </trkpt>
      <trkpt lat="39.1716370" lon="-8.7755750">
        <ele>57.4</ele>
        <time>2019-07-12T06:13:09Z</time>
      </trkpt>
      <trkpt lat="39.1715390" lon="-8.7756870">
        <ele>57.4</ele>
        <time>2019-07-12T06:13:11Z</time>
      </trkpt>
      <trkpt lat="39.1712290" lon="-8.7760340">
        <ele>57.0</ele>
        <time>2019-07-12T06:13:17Z</time>
      </trkpt>
      <trkpt lat="39.1711240" lon="-8.7761460">
        <ele>56.6</ele>
        <time>2019-07-12T06:13:19Z</time>
      </trkpt>
      <trkpt lat="39.1710220" lon="-8.7762620">
        <ele>56.6</ele>
        <time>2019-07-12T06:13:21Z</time>
      </trkpt>
      <trkpt lat="39.1709170" lon="-8.7763800">
        <ele>56.2</ele>
        <time>2019-07-12T06:13:23Z</time>
      </trkpt>
      <trkpt lat="39.1708100" lon="-8.7765010">
        <ele>55.6</ele>
        <time>2019-07-12T06:13:25Z</time>
      </trkpt>
      <trkpt lat="39.1706990" lon="-8.7766220">
        <ele>55.2</ele>
        <time>2019-07-12T06:13:27Z</time>
      </trkpt>
      <trkpt lat="39.1705810" lon="-8.7767410">
        <ele>54.6</ele>
        <time>2019-07-12T06:13:29Z</time>
      </trkpt>
      <trkpt lat="39.1704610" lon="-8.7768630">
        <ele>54.0</ele>
        <time>2019-07-12T06:13:31Z</time>
      </trkpt>
      <trkpt lat="39.1703520" lon="-8.7770010">
        <ele>53.6</ele>
        <time>2019-07-12T06:13:33Z</time>
      </trkpt>
      <trkpt lat="39.1702610" lon="-8.7771580">
        <ele>53.0</ele>
        <time>2019-07-12T06:13:35Z</time>
      </trkpt>
      <trkpt lat="39.1701910" lon="-8.7773320">
        <ele>52.4</ele>
        <time>2019-07-12T06:13:37Z</time>
      </trkpt>
      <trkpt lat="39.1701690" lon="-8.7774230">
        <ele>52.0</ele>
        <time>2019-07-12T06:13:38Z</time>
      </trkpt>
      <trkpt lat="39.1701460" lon="-8.7775120">
        <ele>51.8</ele>
        <time>2019-07-12T06:13:39Z</time>
      </trkpt>
      <trkpt lat="39.1700030" lon="-8.7776790">
        <ele>51.2</ele>
        <time>2019-07-12T06:13:42Z</time>
      </trkpt>
      <trkpt lat="39.1698820" lon="-8.7776590">
        <ele>51.0</ele>
        <time>2019-07-12T06:13:44Z</time>
      </trkpt>
      <trkpt lat="39.1698190" lon="-8.7776310">
        <ele>51.0</ele>
        <time>2019-07-12T06:13:45Z</time>
      </trkpt>
      <trkpt lat="39.1697530" lon="-8.7776100">
        <ele>50.8</ele>
        <time>2019-07-12T06:13:46Z</time>
      </trkpt>
      <trkpt lat="39.1696170" lon="-8.7776030">
        <ele>50.8</ele>
        <time>2019-07-12T06:13:48Z</time>
      </trkpt>
      <trkpt lat="39.1694840" lon="-8.7776540">
        <ele>50.6</ele>
        <time>2019-07-12T06:13:50Z</time>
      </trkpt>
      <trkpt lat="39.1694220" lon="-8.7776920">
        <ele>50.6</ele>
        <time>2019-07-12T06:13:51Z</time>
      </trkpt>
      <trkpt lat="39.1691280" lon="-8.7779240">
        <ele>49.8</ele>
        <time>2019-07-12T06:13:56Z</time>
      </trkpt>
      <trkpt lat="39.1690730" lon="-8.7779750">
        <ele>49.8</ele>
        <time>2019-07-12T06:13:57Z</time>
      </trkpt>
      <trkpt lat="39.1687650" lon="-8.7781840">
        <ele>49.4</ele>
        <time>2019-07-12T06:14:02Z</time>
      </trkpt>
      <trkpt lat="39.1685010" lon="-8.7783320">
        <ele>49.2</ele>
        <time>2019-07-12T06:14:06Z</time>
      </trkpt>
      <trkpt lat="39.1683050" lon="-8.7784610">
        <ele>49.0</ele>
        <time>2019-07-12T06:14:09Z</time>
      </trkpt>
      <trkpt lat="39.1682420" lon="-8.7785090">
        <ele>49.2</ele>
        <time>2019-07-12T06:14:10Z</time>
      </trkpt>
      <trkpt lat="39.1677680" lon="-8.7788970">
        <ele>49.2</ele>
        <time>2019-07-12T06:14:18Z</time>
      </trkpt>
      <trkpt lat="39.1677120" lon="-8.7789460">
        <ele>49.4</ele>
        <time>2019-07-12T06:14:19Z</time>
      </trkpt>
      <trkpt lat="39.1675470" lon="-8.7790900">
        <ele>49.8</ele>
        <time>2019-07-12T06:14:22Z</time>
      </trkpt>
      <trkpt lat="39.1672250" lon="-8.7793850">
        <ele>50.0</ele>
        <time>2019-07-12T06:14:28Z</time>
      </trkpt>
      <trkpt lat="39.1667470" lon="-8.7798130">
        <ele>50.2</ele>
        <time>2019-07-12T06:14:37Z</time>
      </trkpt>
      <trkpt lat="39.1662700" lon="-8.7802860">
        <ele>50.0</ele>
        <time>2019-07-12T06:14:46Z</time>
      </trkpt>
      <trkpt lat="39.1659650" lon="-8.7806330">
        <ele>49.8</ele>
        <time>2019-07-12T06:14:52Z</time>
      </trkpt>
      <trkpt lat="39.1655850" lon="-8.7811710">
        <ele>49.4</ele>
        <time>2019-07-12T06:15:00Z</time>
      </trkpt>
      <trkpt lat="39.1652100" lon="-8.7817170">
        <ele>49.6</ele>
        <time>2019-07-12T06:15:08Z</time>
      </trkpt>
      <trkpt lat="39.1650640" lon="-8.7819150">
        <ele>49.8</ele>
        <time>2019-07-12T06:15:11Z</time>
      </trkpt>
      <trkpt lat="39.1650200" lon="-8.7819790">
        <ele>49.8</ele>
        <time>2019-07-12T06:15:12Z</time>
      </trkpt>
      <trkpt lat="39.1649170" lon="-8.7821940">
        <ele>49.8</ele>
        <time>2019-07-12T06:15:15Z</time>
      </trkpt>
      <trkpt lat="39.1648400" lon="-8.7823370">
        <ele>49.6</ele>
        <time>2019-07-12T06:15:17Z</time>
      </trkpt>
      <trkpt lat="39.1647310" lon="-8.7824320">
        <ele>49.6</ele>
        <time>2019-07-12T06:15:19Z</time>
      </trkpt>
      <trkpt lat="39.1645970" lon="-8.7824860">
        <ele>49.4</ele>
        <time>2019-07-12T06:15:21Z</time>
      </trkpt>
      <trkpt lat="39.1645290" lon="-8.7825230">
        <ele>49.4</ele>
        <time>2019-07-12T06:15:22Z</time>
      </trkpt>
      <trkpt lat="39.1644620" lon="-8.7825690">
        <ele>49.4</ele>
        <time>2019-07-12T06:15:23Z</time>
      </trkpt>
      <trkpt lat="39.1640690" lon="-8.7829320">
        <ele>48.4</ele>
        <time>2019-07-12T06:15:29Z</time>
      </trkpt>
      <trkpt lat="39.1637430" lon="-8.7832460">
        <ele>47.4</ele>
        <time>2019-07-12T06:15:34Z</time>
      </trkpt>
      <trkpt lat="39.1635610" lon="-8.7834120">
        <ele>46.8</ele>
        <time>2019-07-12T06:15:37Z</time>
      </trkpt>
      <trkpt lat="39.1633670" lon="-8.7836570">
        <ele>47.4</ele>
        <time>2019-07-12T06:15:41Z</time>
      </trkpt>
      <trkpt lat="39.1633200" lon="-8.7837120">
        <ele>47.4</ele>
        <time>2019-07-12T06:15:42Z</time>
      </trkpt>
      <trkpt lat="39.1632340" lon="-8.7838170">
        <ele>47.6</ele>
        <time>2019-07-12T06:15:44Z</time>
      </trkpt>
      <trkpt lat="39.1631140" lon="-8.7839610">
        <ele>48.0</ele>
        <time>2019-07-12T06:15:47Z</time>
      </trkpt>
      <trkpt lat="39.1630400" lon="-8.7840470">
        <ele>48.2</ele>
        <time>2019-07-12T06:15:49Z</time>
      </trkpt>
      <trkpt lat="39.1628850" lon="-8.7841940">
        <ele>49.2</ele>
        <time>2019-07-12T06:15:53Z</time>
      </trkpt>
      <trkpt lat="39.1628080" lon="-8.7842650">
        <ele>49.4</ele>
        <time>2019-07-12T06:15:55Z</time>
      </trkpt>
      <trkpt lat="39.1627040" lon="-8.7843850">
        <ele>50.6</ele>
        <time>2019-07-12T06:15:58Z</time>
      </trkpt>
      <trkpt lat="39.1626370" lon="-8.7844670">
        <ele>51.2</ele>
        <time>2019-07-12T06:16:00Z</time>
      </trkpt>
      <trkpt lat="39.1625680" lon="-8.7845470">
        <ele>51.8</ele>
        <time>2019-07-12T06:16:02Z</time>
      </trkpt>
      <trkpt lat="39.1625020" lon="-8.7846290">
        <ele>52.8</ele>
        <time>2019-07-12T06:16:04Z</time>
      </trkpt>
      <trkpt lat="39.1624340" lon="-8.7847060">
        <ele>53.4</ele>
        <time>2019-07-12T06:16:06Z</time>
      </trkpt>
      <trkpt lat="39.1624000" lon="-8.7847460">
        <ele>53.8</ele>
        <time>2019-07-12T06:16:07Z</time>
      </trkpt>
      <trkpt lat="39.1623320" lon="-8.7848240">
        <ele>54.8</ele>
        <time>2019-07-12T06:16:09Z</time>
      </trkpt>
      <trkpt lat="39.1623000" lon="-8.7848630">
        <ele>55.2</ele>
        <time>2019-07-12T06:16:10Z</time>
      </trkpt>
      <trkpt lat="39.1621940" lon="-8.7849690">
        <ele>56.2</ele>
        <time>2019-07-12T06:16:13Z</time>
      </trkpt>
      <trkpt lat="39.1621230" lon="-8.7850390">
        <ele>57.2</ele>
        <time>2019-07-12T06:16:15Z</time>
      </trkpt>
      <trkpt lat="39.1620850" lon="-8.7850710">
        <ele>57.6</ele>
        <time>2019-07-12T06:16:16Z</time>
      </trkpt>
      <trkpt lat="39.1619770" lon="-8.7851780">
        <ele>58.6</ele>
        <time>2019-07-12T06:16:19Z</time>
      </trkpt>
      <trkpt lat="39.1619450" lon="-8.7852150">
        <ele>59.0</ele>
        <time>2019-07-12T06:16:20Z</time>
      </trkpt>
      <trkpt lat="39.1618830" lon="-8.7852880">
        <ele>59.2</ele>
        <time>2019-07-12T06:16:22Z</time>
      </trkpt>
      <trkpt lat="39.1618010" lon="-8.7854160">
        <ele>59.8</ele>
        <time>2019-07-12T06:16:25Z</time>
      </trkpt>
      <trkpt lat="39.1616940" lon="-8.7855980">
        <ele>60.6</ele>
        <time>2019-07-12T06:16:29Z</time>
      </trkpt>
      <trkpt lat="39.1615980" lon="-8.7857120">
        <ele>60.8</ele>
        <time>2019-07-12T06:16:32Z</time>
      </trkpt>
      <trkpt lat="39.1614710" lon="-8.7858640">
        <ele>61.0</ele>
        <time>2019-07-12T06:16:36Z</time>
      </trkpt>
      <trkpt lat="39.1611480" lon="-8.7862210">
        <ele>61.6</ele>
        <time>2019-07-12T06:16:45Z</time>
      </trkpt>
      <trkpt lat="39.1610080" lon="-8.7863910">
        <ele>61.6</ele>
        <time>2019-07-12T06:16:49Z</time>
      </trkpt>
      <trkpt lat="39.1608950" lon="-8.7865070">
        <ele>62.0</ele>
        <time>2019-07-12T06:16:52Z</time>
      </trkpt>
      <trkpt lat="39.1607760" lon="-8.7866180">
        <ele>62.4</ele>
        <time>2019-07-12T06:16:55Z</time>
      </trkpt>
      <trkpt lat="39.1606490" lon="-8.7867180">
        <ele>62.8</ele>
        <time>2019-07-12T06:16:58Z</time>
      </trkpt>
      <trkpt lat="39.1605650" lon="-8.7867910">
        <ele>63.0</ele>
        <time>2019-07-12T06:17:00Z</time>
      </trkpt>
      <trkpt lat="39.1603570" lon="-8.7869760">
        <ele>63.2</ele>
        <time>2019-07-12T06:17:05Z</time>
      </trkpt>
      <trkpt lat="39.1603230" lon="-8.7870100">
        <ele>63.2</ele>
        <time>2019-07-12T06:17:06Z</time>
      </trkpt>
      <trkpt lat="39.1602960" lon="-8.7870650">
        <ele>63.2</ele>
        <time>2019-07-12T06:17:08Z</time>
      </trkpt>
      <trkpt lat="39.1603000" lon="-8.7870920">
        <ele>63.2</ele>
        <time>2019-07-12T06:17:09Z</time>
      </trkpt>
      <trkpt lat="39.1603410" lon="-8.7871410">
        <ele>63.2</ele>
        <time>2019-07-12T06:17:12Z</time>
      </trkpt>
      <trkpt lat="39.1603580" lon="-8.7871570">
        <ele>63.2</ele>
        <time>2019-07-12T06:17:13Z</time>
      </trkpt>
      <trkpt lat="39.1603890" lon="-8.7871990">
        <ele>63.2</ele>
        <time>2019-07-12T06:17:15Z</time>
      </trkpt>
      <trkpt lat="39.1604500" lon="-8.7872950">
        <ele>63.2</ele>
        <time>2019-07-12T06:17:18Z</time>
      </trkpt>
      <trkpt lat="39.1605070" lon="-8.7873970">
        <ele>63.4</ele>
        <time>2019-07-12T06:17:21Z</time>
      </trkpt>
      <trkpt lat="39.1605480" lon="-8.7874660">
        <ele>63.4</ele>
        <time>2019-07-12T06:17:23Z</time>
      </trkpt>
      <trkpt lat="39.1606110" lon="-8.7875780">
        <ele>63.0</ele>
        <time>2019-07-12T06:17:26Z</time>
      </trkpt>
      <trkpt lat="39.1606430" lon="-8.7877310">
        <ele>63.2</ele>
        <time>2019-07-12T06:17:29Z</time>
      </trkpt>
      <trkpt lat="39.1606460" lon="-8.7877880">
        <ele>63.2</ele>
        <time>2019-07-12T06:17:30Z</time>
      </trkpt>
      <trkpt lat="39.1606460" lon="-8.7878440">
        <ele>63.2</ele>
        <time>2019-07-12T06:17:31Z</time>
      </trkpt>
      <trkpt lat="39.1606320" lon="-8.7880240">
        <ele>63.0</ele>
        <time>2019-07-12T06:17:34Z</time>
      </trkpt>
      <trkpt lat="39.1606110" lon="-8.7880960">
        <ele>62.8</ele>
        <time>2019-07-12T06:17:35Z</time>
      </trkpt>
      <trkpt lat="39.1605640" lon="-8.7882210">
        <ele>62.6</ele>
        <time>2019-07-12T06:17:37Z</time>
      </trkpt>
      <trkpt lat="39.1605360" lon="-8.7882800">
        <ele>62.6</ele>
        <time>2019-07-12T06:17:38Z</time>
      </trkpt>
      <trkpt lat="39.1603720" lon="-8.7885240">
        <ele>61.6</ele>
        <time>2019-07-12T06:17:42Z</time>
      </trkpt>
      <trkpt lat="39.1602430" lon="-8.7886260">
        <ele>60.6</ele>
        <time>2019-07-12T06:17:44Z</time>
      </trkpt>
      <trkpt lat="39.1600970" lon="-8.7887020">
        <ele>59.6</ele>
        <time>2019-07-12T06:17:46Z</time>
      </trkpt>
      <trkpt lat="39.1600190" lon="-8.7887390">
        <ele>59.4</ele>
        <time>2019-07-12T06:17:47Z</time>
      </trkpt>
      <trkpt lat="39.1597840" lon="-8.7888630">
        <ele>58.2</ele>
        <time>2019-07-12T06:17:50Z</time>
      </trkpt>
      <trkpt lat="39.1596970" lon="-8.7888970">
        <ele>57.8</ele>
        <time>2019-07-12T06:17:51Z</time>
      </trkpt>
      <trkpt lat="39.1596040" lon="-8.7889140">
        <ele>57.2</ele>
        <time>2019-07-12T06:17:52Z</time>
      </trkpt>
      <trkpt lat="39.1594110" lon="-8.7889200">
        <ele>56.2</ele>
        <time>2019-07-12T06:17:54Z</time>
      </trkpt>
      <trkpt lat="39.1593140" lon="-8.7889170">
        <ele>55.6</ele>
        <time>2019-07-12T06:17:55Z</time>
      </trkpt>
      <trkpt lat="39.1591140" lon="-8.7889050">
        <ele>53.8</ele>
        <time>2019-07-12T06:17:57Z</time>
      </trkpt>
      <trkpt lat="39.1588130" lon="-8.7888910">
        <ele>52.8</ele>
        <time>2019-07-12T06:18:00Z</time>
      </trkpt>
      <trkpt lat="39.1586160" lon="-8.7888860">
        <ele>51.8</ele>
        <time>2019-07-12T06:18:02Z</time>
      </trkpt>
      <trkpt lat="39.1585180" lon="-8.7888840">
        <ele>51.4</ele>
        <time>2019-07-12T06:18:03Z</time>
      </trkpt>
      <trkpt lat="39.1582500" lon="-8.7888920">
        <ele>50.0</ele>
        <time>2019-07-12T06:18:06Z</time>
      </trkpt>
      <trkpt lat="39.1581770" lon="-8.7888950">
        <ele>49.6</ele>
        <time>2019-07-12T06:18:07Z</time>
      </trkpt>
      <trkpt lat="39.1580580" lon="-8.7888920">
        <ele>48.8</ele>
        <time>2019-07-12T06:18:09Z</time>
      </trkpt>
      <trkpt lat="39.1579560" lon="-8.7888780">
        <ele>48.4</ele>
        <time>2019-07-12T06:18:11Z</time>
      </trkpt>
      <trkpt lat="39.1578380" lon="-8.7888850">
        <ele>47.8</ele>
        <time>2019-07-12T06:18:14Z</time>
      </trkpt>
      <trkpt lat="39.1577980" lon="-8.7888800">
        <ele>47.8</ele>
        <time>2019-07-12T06:18:15Z</time>
      </trkpt>
      <trkpt lat="39.1577600" lon="-8.7888540">
        <ele>47.8</ele>
        <time>2019-07-12T06:18:16Z</time>
      </trkpt>
      <trkpt lat="39.1577180" lon="-8.7887460">
        <ele>47.4</ele>
        <time>2019-07-12T06:18:18Z</time>
      </trkpt>
      <trkpt lat="39.1577230" lon="-8.7886930">
        <ele>47.4</ele>
        <time>2019-07-12T06:18:19Z</time>
      </trkpt>
      <trkpt lat="39.1577280" lon="-8.7886390">
        <ele>47.6</ele>
        <time>2019-07-12T06:18:20Z</time>
      </trkpt>
      <trkpt lat="39.1577350" lon="-8.7885860">
        <ele>47.6</ele>
        <time>2019-07-12T06:18:21Z</time>
      </trkpt>
      <trkpt lat="39.1577540" lon="-8.7884800">
        <ele>48.0</ele>
        <time>2019-07-12T06:18:23Z</time>
      </trkpt>
      <trkpt lat="39.1577670" lon="-8.7884310">
        <ele>48.2</ele>
        <time>2019-07-12T06:18:24Z</time>
      </trkpt>
      <trkpt lat="39.1577770" lon="-8.7883510">
        <ele>48.6</ele>
        <time>2019-07-12T06:18:26Z</time>
      </trkpt>
      <trkpt lat="39.1577830" lon="-8.7882930">
        <ele>48.6</ele>
        <time>2019-07-12T06:18:28Z</time>
      </trkpt>
      <trkpt lat="39.1577900" lon="-8.7882700">
        <ele>48.6</ele>
        <time>2019-07-12T06:18:31Z</time>
      </trkpt>
      <trkpt lat="39.1577570" lon="-8.7883250">
        <ele>48.6</ele>
        <time>2019-07-12T06:18:54Z</time>
      </trkpt>
      <trkpt lat="39.1577570" lon="-8.7884020">
        <ele>48.6</ele>
        <time>2019-07-12T06:18:56Z</time>
      </trkpt>
      <trkpt lat="39.1577680" lon="-8.7885010">
        <ele>48.2</ele>
        <time>2019-07-12T06:18:58Z</time>
      </trkpt>
      <trkpt lat="39.1577800" lon="-8.7885550">
        <ele>48.2</ele>
        <time>2019-07-12T06:18:59Z</time>
      </trkpt>
      <trkpt lat="39.1578680" lon="-8.7886880">
        <ele>47.6</ele>
        <time>2019-07-12T06:19:02Z</time>
      </trkpt>
      <trkpt lat="39.1578960" lon="-8.7887370">
        <ele>47.6</ele>
        <time>2019-07-12T06:19:03Z</time>
      </trkpt>
      <trkpt lat="39.1579070" lon="-8.7887980">
        <ele>47.4</ele>
        <time>2019-07-12T06:19:04Z</time>
      </trkpt>
      <trkpt lat="39.1578950" lon="-8.7888620">
        <ele>47.4</ele>
        <time>2019-07-12T06:19:05Z</time>
      </trkpt>
      <trkpt lat="39.1577770" lon="-8.7890170">
        <ele>47.2</ele>
        <time>2019-07-12T06:19:08Z</time>
      </trkpt>
      <trkpt lat="39.1577230" lon="-8.7890570">
        <ele>47.0</ele>
        <time>2019-07-12T06:19:09Z</time>
      </trkpt>
      <trkpt lat="39.1574880" lon="-8.7892140">
        <ele>46.2</ele>
        <time>2019-07-12T06:19:13Z</time>
      </trkpt>
      <trkpt lat="39.1574270" lon="-8.7892540">
        <ele>46.0</ele>
        <time>2019-07-12T06:19:14Z</time>
      </trkpt>
      <trkpt lat="39.1570390" lon="-8.7895030">
        <ele>45.0</ele>
        <time>2019-07-12T06:19:20Z</time>
      </trkpt>
      <trkpt lat="39.1569740" lon="-8.7895530">
        <ele>45.0</ele>
        <time>2019-07-12T06:19:21Z</time>
      </trkpt>
      <trkpt lat="39.1567870" lon="-8.7897250">
        <ele>44.0</ele>
        <time>2019-07-12T06:19:24Z</time>
      </trkpt>
      <trkpt lat="39.1565420" lon="-8.7899700">
        <ele>43.4</ele>
        <time>2019-07-12T06:19:28Z</time>
      </trkpt>
      <trkpt lat="39.1564230" lon="-8.7901040">
        <ele>42.8</ele>
        <time>2019-07-12T06:19:30Z</time>
      </trkpt>
      <trkpt lat="39.1562530" lon="-8.7903150">
        <ele>41.8</ele>
        <time>2019-07-12T06:19:33Z</time>
      </trkpt>
      <trkpt lat="39.1562060" lon="-8.7903960">
        <ele>41.6</ele>
        <time>2019-07-12T06:19:34Z</time>
      </trkpt>
      <trkpt lat="39.1561110" lon="-8.7905520">
        <ele>41.0</ele>
        <time>2019-07-12T06:19:36Z</time>
      </trkpt>
      <trkpt lat="39.1559840" lon="-8.7906570">
        <ele>40.4</ele>
        <time>2019-07-12T06:19:38Z</time>
      </trkpt>
      <trkpt lat="39.1557890" lon="-8.7908230">
        <ele>39.4</ele>
        <time>2019-07-12T06:19:41Z</time>
      </trkpt>
      <trkpt lat="39.1557360" lon="-8.7908980">
        <ele>39.0</ele>
        <time>2019-07-12T06:19:42Z</time>
      </trkpt>
      <trkpt lat="39.1556360" lon="-8.7910570">
        <ele>38.4</ele>
        <time>2019-07-12T06:19:44Z</time>
      </trkpt>
      <trkpt lat="39.1555880" lon="-8.7911360">
        <ele>38.2</ele>
        <time>2019-07-12T06:19:45Z</time>
      </trkpt>
      <trkpt lat="39.1554750" lon="-8.7913810">
        <ele>37.8</ele>
        <time>2019-07-12T06:19:48Z</time>
      </trkpt>
      <trkpt lat="39.1553840" lon="-8.7917030">
        <ele>37.6</ele>
        <time>2019-07-12T06:19:52Z</time>
      </trkpt>
      <trkpt lat="39.1552980" lon="-8.7918220">
        <ele>37.8</ele>
        <time>2019-07-12T06:19:54Z</time>
      </trkpt>
      <trkpt lat="39.1552440" lon="-8.7918640">
        <ele>37.8</ele>
        <time>2019-07-12T06:19:55Z</time>
      </trkpt>
      <trkpt lat="39.1551850" lon="-8.7918960">
        <ele>38.0</ele>
        <time>2019-07-12T06:19:56Z</time>
      </trkpt>
      <trkpt lat="39.1551270" lon="-8.7919260">
        <ele>38.2</ele>
        <time>2019-07-12T06:19:57Z</time>
      </trkpt>
      <trkpt lat="39.1550140" lon="-8.7919800">
        <ele>38.6</ele>
        <time>2019-07-12T06:19:59Z</time>
      </trkpt>
      <trkpt lat="39.1549030" lon="-8.7920260">
        <ele>39.0</ele>
        <time>2019-07-12T06:20:01Z</time>
      </trkpt>
      <trkpt lat="39.1547890" lon="-8.7920590">
        <ele>39.4</ele>
        <time>2019-07-12T06:20:03Z</time>
      </trkpt>
      <trkpt lat="39.1547320" lon="-8.7920690">
        <ele>39.8</ele>
        <time>2019-07-12T06:20:04Z</time>
      </trkpt>
      <trkpt lat="39.1546210" lon="-8.7920910">
        <ele>40.4</ele>
        <time>2019-07-12T06:20:06Z</time>
      </trkpt>
      <trkpt lat="39.1545660" lon="-8.7921020">
        <ele>40.6</ele>
        <time>2019-07-12T06:20:07Z</time>
      </trkpt>
      <trkpt lat="39.1544080" lon="-8.7921190">
        <ele>41.4</ele>
        <time>2019-07-12T06:20:10Z</time>
      </trkpt>
      <trkpt lat="39.1543560" lon="-8.7921180">
        <ele>41.8</ele>
        <time>2019-07-12T06:20:11Z</time>
      </trkpt>
      <trkpt lat="39.1542590" lon="-8.7921070">
        <ele>42.8</ele>
        <time>2019-07-12T06:20:13Z</time>
      </trkpt>
      <trkpt lat="39.1542080" lon="-8.7920970">
        <ele>43.0</ele>
        <time>2019-07-12T06:20:14Z</time>
      </trkpt>
      <trkpt lat="39.1541090" lon="-8.7920700">
        <ele>43.4</ele>
        <time>2019-07-12T06:20:16Z</time>
      </trkpt>
      <trkpt lat="39.1540130" lon="-8.7920290">
        <ele>44.0</ele>
        <time>2019-07-12T06:20:18Z</time>
      </trkpt>
      <trkpt lat="39.1539670" lon="-8.7920060">
        <ele>44.2</ele>
        <time>2019-07-12T06:20:19Z</time>
      </trkpt>
      <trkpt lat="39.1539210" lon="-8.7919840">
        <ele>44.2</ele>
        <time>2019-07-12T06:20:20Z</time>
      </trkpt>
      <trkpt lat="39.1538300" lon="-8.7919390">
        <ele>44.6</ele>
        <time>2019-07-12T06:20:22Z</time>
      </trkpt>
      <trkpt lat="39.1536950" lon="-8.7918710">
        <ele>44.8</ele>
        <time>2019-07-12T06:20:25Z</time>
      </trkpt>
      <trkpt lat="39.1536050" lon="-8.7918230">
        <ele>45.2</ele>
        <time>2019-07-12T06:20:27Z</time>
      </trkpt>
      <trkpt lat="39.1535590" lon="-8.7918010">
        <ele>45.2</ele>
        <time>2019-07-12T06:20:28Z</time>
      </trkpt>
      <trkpt lat="39.1533560" lon="-8.7917510">
        <ele>45.8</ele>
        <time>2019-07-12T06:20:32Z</time>
      </trkpt>
      <trkpt lat="39.1533030" lon="-8.7917570">
        <ele>46.0</ele>
        <time>2019-07-12T06:20:33Z</time>
      </trkpt>
      <trkpt lat="39.1532010" lon="-8.7917940">
        <ele>46.2</ele>
        <time>2019-07-12T06:20:35Z</time>
      </trkpt>
      <trkpt lat="39.1530620" lon="-8.7918890">
        <ele>46.6</ele>
        <time>2019-07-12T06:20:38Z</time>
      </trkpt>
      <trkpt lat="39.1528920" lon="-8.7921460">
        <ele>47.4</ele>
        <time>2019-07-12T06:20:43Z</time>
      </trkpt>
      <trkpt lat="39.1526440" lon="-8.7926890">
        <ele>47.2</ele>
        <time>2019-07-12T06:20:51Z</time>
      </trkpt>
      <trkpt lat="39.1524330" lon="-8.7929760">
        <ele>46.6</ele>
        <time>2019-07-12T06:20:55Z</time>
      </trkpt>
      <trkpt lat="39.1523630" lon="-8.7930390">
        <ele>46.4</ele>
        <time>2019-07-12T06:20:56Z</time>
      </trkpt>
      <trkpt lat="39.1521230" lon="-8.7931790">
        <ele>45.4</ele>
        <time>2019-07-12T06:20:59Z</time>
      </trkpt>
      <trkpt lat="39.1520340" lon="-8.7932030">
        <ele>45.0</ele>
        <time>2019-07-12T06:21:00Z</time>
      </trkpt>
      <trkpt lat="39.1518490" lon="-8.7932210">
        <ele>44.2</ele>
        <time>2019-07-12T06:21:02Z</time>
      </trkpt>
      <trkpt lat="39.1517530" lon="-8.7932220">
        <ele>43.8</ele>
        <time>2019-07-12T06:21:03Z</time>
      </trkpt>
      <trkpt lat="39.1516550" lon="-8.7932230">
        <ele>43.4</ele>
        <time>2019-07-12T06:21:04Z</time>
      </trkpt>
      <trkpt lat="39.1514660" lon="-8.7932250">
        <ele>42.4</ele>
        <time>2019-07-12T06:21:06Z</time>
      </trkpt>
      <trkpt lat="39.1512810" lon="-8.7932240">
        <ele>42.0</ele>
        <time>2019-07-12T06:21:08Z</time>
      </trkpt>
      <trkpt lat="39.1510960" lon="-8.7932290">
        <ele>41.6</ele>
        <time>2019-07-12T06:21:10Z</time>
      </trkpt>
      <trkpt lat="39.1509230" lon="-8.7932360">
        <ele>41.4</ele>
        <time>2019-07-12T06:21:12Z</time>
      </trkpt>
      <trkpt lat="39.1506170" lon="-8.7932710">
        <ele>41.6</ele>
        <time>2019-07-12T06:21:16Z</time>
      </trkpt>
      <trkpt lat="39.1504140" lon="-8.7933150">
        <ele>42.2</ele>
        <time>2019-07-12T06:21:19Z</time>
      </trkpt>
      <trkpt lat="39.1503600" lon="-8.7933350">
        <ele>42.4</ele>
        <time>2019-07-12T06:21:20Z</time>
      </trkpt>
      <trkpt lat="39.1503010" lon="-8.7933610">
        <ele>42.8</ele>
        <time>2019-07-12T06:21:21Z</time>
      </trkpt>
      <trkpt lat="39.1501320" lon="-8.7934460">
        <ele>43.6</ele>
        <time>2019-07-12T06:21:24Z</time>
      </trkpt>
      <trkpt lat="39.1500240" lon="-8.7935090">
        <ele>44.2</ele>
        <time>2019-07-12T06:21:26Z</time>
      </trkpt>
      <trkpt lat="39.1499200" lon="-8.7935750">
        <ele>44.8</ele>
        <time>2019-07-12T06:21:28Z</time>
      </trkpt>
      <trkpt lat="39.1497720" lon="-8.7936830">
        <ele>45.8</ele>
        <time>2019-07-12T06:21:31Z</time>
      </trkpt>
      <trkpt lat="39.1497220" lon="-8.7937160">
        <ele>46.0</ele>
        <time>2019-07-12T06:21:32Z</time>
      </trkpt>
      <trkpt lat="39.1495680" lon="-8.7938170">
        <ele>46.8</ele>
        <time>2019-07-12T06:21:35Z</time>
      </trkpt>
      <trkpt lat="39.1495200" lon="-8.7938550">
        <ele>46.8</ele>
        <time>2019-07-12T06:21:36Z</time>
      </trkpt>
      <trkpt lat="39.1494190" lon="-8.7939380">
        <ele>47.4</ele>
        <time>2019-07-12T06:21:38Z</time>
      </trkpt>
      <trkpt lat="39.1493710" lon="-8.7939810">
        <ele>47.6</ele>
        <time>2019-07-12T06:21:39Z</time>
      </trkpt>
      <trkpt lat="39.1493270" lon="-8.7940270">
        <ele>48.2</ele>
        <time>2019-07-12T06:21:40Z</time>
      </trkpt>
      <trkpt lat="39.1492050" lon="-8.7941650">
        <ele>49.0</ele>
        <time>2019-07-12T06:21:43Z</time>
      </trkpt>
      <trkpt lat="39.1491670" lon="-8.7942110">
        <ele>49.2</ele>
        <time>2019-07-12T06:21:44Z</time>
      </trkpt>
      <trkpt lat="39.1490940" lon="-8.7943070">
        <ele>50.0</ele>
        <time>2019-07-12T06:21:46Z</time>
      </trkpt>
      <trkpt lat="39.1490580" lon="-8.7943570">
        <ele>50.2</ele>
        <time>2019-07-12T06:21:47Z</time>
      </trkpt>
      <trkpt lat="39.1489560" lon="-8.7944920">
        <ele>51.6</ele>
        <time>2019-07-12T06:21:50Z</time>
      </trkpt>
      <trkpt lat="39.1488930" lon="-8.7945730">
        <ele>52.2</ele>
        <time>2019-07-12T06:21:52Z</time>
      </trkpt>
      <trkpt lat="39.1488620" lon="-8.7946150">
        <ele>52.6</ele>
        <time>2019-07-12T06:21:53Z</time>
      </trkpt>
      <trkpt lat="39.1487640" lon="-8.7947360">
        <ele>53.6</ele>
        <time>2019-07-12T06:21:56Z</time>
      </trkpt>
      <trkpt lat="39.1486450" lon="-8.7948910">
        <ele>54.6</ele>
        <time>2019-07-12T06:22:00Z</time>
      </trkpt>
      <trkpt lat="39.1485320" lon="-8.7950310">
        <ele>55.8</ele>
        <time>2019-07-12T06:22:04Z</time>
      </trkpt>
      <trkpt lat="39.1484000" lon="-8.7951670">
        <ele>57.0</ele>
        <time>2019-07-12T06:22:08Z</time>
      </trkpt>
      <trkpt lat="39.1481060" lon="-8.7953950">
        <ele>57.6</ele>
        <time>2019-07-12T06:22:15Z</time>
      </trkpt>
      <trkpt lat="39.1477860" lon="-8.7956500">
        <ele>58.0</ele>
        <time>2019-07-12T06:22:22Z</time>
      </trkpt>
      <trkpt lat="39.1477430" lon="-8.7956910">
        <ele>58.0</ele>
        <time>2019-07-12T06:22:23Z</time>
      </trkpt>
      <trkpt lat="39.1475400" lon="-8.7959330">
        <ele>58.4</ele>
        <time>2019-07-12T06:22:28Z</time>
      </trkpt>
      <trkpt lat="39.1475030" lon="-8.7959870">
        <ele>58.4</ele>
        <time>2019-07-12T06:22:29Z</time>
      </trkpt>
      <trkpt lat="39.1473460" lon="-8.7962030">
        <ele>58.4</ele>
        <time>2019-07-12T06:22:33Z</time>
      </trkpt>
      <trkpt lat="39.1472060" lon="-8.7963470">
        <ele>58.4</ele>
        <time>2019-07-12T06:22:36Z</time>
      </trkpt>
      <trkpt lat="39.1471560" lon="-8.7963930">
        <ele>58.4</ele>
        <time>2019-07-12T06:22:37Z</time>
      </trkpt>
      <trkpt lat="39.1469940" lon="-8.7965260">
        <ele>58.4</ele>
        <time>2019-07-12T06:22:40Z</time>
      </trkpt>
      <trkpt lat="39.1468260" lon="-8.7966640">
        <ele>58.4</ele>
        <time>2019-07-12T06:22:43Z</time>
      </trkpt>
      <trkpt lat="39.1467690" lon="-8.7967110">
        <ele>58.2</ele>
        <time>2019-07-12T06:22:44Z</time>
      </trkpt>
      <trkpt lat="39.1466490" lon="-8.7968000">
        <ele>58.0</ele>
        <time>2019-07-12T06:22:46Z</time>
      </trkpt>
      <trkpt lat="39.1465230" lon="-8.7968770">
        <ele>57.8</ele>
        <time>2019-07-12T06:22:48Z</time>
      </trkpt>
      <trkpt lat="39.1463890" lon="-8.7969350">
        <ele>57.8</ele>
        <time>2019-07-12T06:22:50Z</time>
      </trkpt>
      <trkpt lat="39.1461780" lon="-8.7970000">
        <ele>57.4</ele>
        <time>2019-07-12T06:22:53Z</time>
      </trkpt>
      <trkpt lat="39.1460340" lon="-8.7970410">
        <ele>57.2</ele>
        <time>2019-07-12T06:22:55Z</time>
      </trkpt>
      <trkpt lat="39.1458890" lon="-8.7970800">
        <ele>57.0</ele>
        <time>2019-07-12T06:22:57Z</time>
      </trkpt>
      <trkpt lat="39.1458170" lon="-8.7970990">
        <ele>57.0</ele>
        <time>2019-07-12T06:22:58Z</time>
      </trkpt>
      <trkpt lat="39.1456740" lon="-8.7971390">
        <ele>56.8</ele>
        <time>2019-07-12T06:23:00Z</time>
      </trkpt>
      <trkpt lat="39.1455280" lon="-8.7971780">
        <ele>56.6</ele>
        <time>2019-07-12T06:23:02Z</time>
      </trkpt>
      <trkpt lat="39.1453830" lon="-8.7972210">
        <ele>56.2</ele>
        <time>2019-07-12T06:23:04Z</time>
      </trkpt>
      <trkpt lat="39.1451690" lon="-8.7973120">
        <ele>56.0</ele>
        <time>2019-07-12T06:23:07Z</time>
      </trkpt>
      <trkpt lat="39.1451010" lon="-8.7973550">
        <ele>55.8</ele>
        <time>2019-07-12T06:23:08Z</time>
      </trkpt>
      <trkpt lat="39.1448420" lon="-8.7975730">
        <ele>55.4</ele>
        <time>2019-07-12T06:23:12Z</time>
      </trkpt>
      <trkpt lat="39.1446660" lon="-8.7977670">
        <ele>55.2</ele>
        <time>2019-07-12T06:23:15Z</time>
      </trkpt>
      <trkpt lat="39.1445010" lon="-8.7979640">
        <ele>55.0</ele>
        <time>2019-07-12T06:23:18Z</time>
      </trkpt>
      <trkpt lat="39.1443900" lon="-8.7980960">
        <ele>55.0</ele>
        <time>2019-07-12T06:23:20Z</time>
      </trkpt>
      <trkpt lat="39.1441770" lon="-8.7983550">
        <ele>55.2</ele>
        <time>2019-07-12T06:23:24Z</time>
      </trkpt>
      <trkpt lat="39.1440680" lon="-8.7984840">
        <ele>55.2</ele>
        <time>2019-07-12T06:23:26Z</time>
      </trkpt>
      <trkpt lat="39.1439630" lon="-8.7986170">
        <ele>55.4</ele>
        <time>2019-07-12T06:23:28Z</time>
      </trkpt>
      <trkpt lat="39.1438650" lon="-8.7987570">
        <ele>55.6</ele>
        <time>2019-07-12T06:23:30Z</time>
      </trkpt>
      <trkpt lat="39.1437310" lon="-8.7989800">
        <ele>55.8</ele>
        <time>2019-07-12T06:23:33Z</time>
      </trkpt>
      <trkpt lat="39.1435200" lon="-8.7993510">
        <ele>55.8</ele>
        <time>2019-07-12T06:23:38Z</time>
      </trkpt>
      <trkpt lat="39.1433960" lon="-8.7995720">
        <ele>56.0</ele>
        <time>2019-07-12T06:23:41Z</time>
      </trkpt>
      <trkpt lat="39.1431080" lon="-8.8000870">
        <ele>56.2</ele>
        <time>2019-07-12T06:23:48Z</time>
      </trkpt>
      <trkpt lat="39.1429320" lon="-8.8003740">
        <ele>56.2</ele>
        <time>2019-07-12T06:23:52Z</time>
      </trkpt>
      <trkpt lat="39.1427240" lon="-8.8006220">
        <ele>56.6</ele>
        <time>2019-07-12T06:23:56Z</time>
      </trkpt>
      <trkpt lat="39.1426130" lon="-8.8007320">
        <ele>56.6</ele>
        <time>2019-07-12T06:23:58Z</time>
      </trkpt>
      <trkpt lat="39.1421530" lon="-8.8011650">
        <ele>57.2</ele>
        <time>2019-07-12T06:24:06Z</time>
      </trkpt>
      <trkpt lat="39.1419740" lon="-8.8013340">
        <ele>57.4</ele>
        <time>2019-07-12T06:24:09Z</time>
      </trkpt>
      <trkpt lat="39.1414750" lon="-8.8017640">
        <ele>57.4</ele>
        <time>2019-07-12T06:24:17Z</time>
      </trkpt>
      <trkpt lat="39.1414080" lon="-8.8018110">
        <ele>57.4</ele>
        <time>2019-07-12T06:24:18Z</time>
      </trkpt>
      <trkpt lat="39.1408750" lon="-8.8021860">
        <ele>57.6</ele>
        <time>2019-07-12T06:24:26Z</time>
      </trkpt>
      <trkpt lat="39.1408090" lon="-8.8022300">
        <ele>57.6</ele>
        <time>2019-07-12T06:24:27Z</time>
      </trkpt>
      <trkpt lat="39.1407430" lon="-8.8022740">
        <ele>57.6</ele>
        <time>2019-07-12T06:24:28Z</time>
      </trkpt>
      <trkpt lat="39.1402360" lon="-8.8026530">
        <ele>57.8</ele>
        <time>2019-07-12T06:24:36Z</time>
      </trkpt>
      <trkpt lat="39.1398320" lon="-8.8030470">
        <ele>58.0</ele>
        <time>2019-07-12T06:24:43Z</time>
      </trkpt>
      <trkpt lat="39.1395010" lon="-8.8032780">
        <ele>57.4</ele>
        <time>2019-07-12T06:24:48Z</time>
      </trkpt>
      <trkpt lat="39.1392810" lon="-8.8033830">
        <ele>57.0</ele>
        <time>2019-07-12T06:24:51Z</time>
      </trkpt>
      <trkpt lat="39.1391270" lon="-8.8034110">
        <ele>56.8</ele>
        <time>2019-07-12T06:24:53Z</time>
      </trkpt>
      <trkpt lat="39.1390480" lon="-8.8034110">
        <ele>56.6</ele>
        <time>2019-07-12T06:24:54Z</time>
      </trkpt>
      <trkpt lat="39.1389680" lon="-8.8034060">
        <ele>56.6</ele>
        <time>2019-07-12T06:24:55Z</time>
      </trkpt>
      <trkpt lat="39.1387120" lon="-8.8033890">
        <ele>55.6</ele>
        <time>2019-07-12T06:24:58Z</time>
      </trkpt>
      <trkpt lat="39.1386220" lon="-8.8033830">
        <ele>55.4</ele>
        <time>2019-07-12T06:24:59Z</time>
      </trkpt>
      <trkpt lat="39.1385300" lon="-8.8033750">
        <ele>55.0</ele>
        <time>2019-07-12T06:25:00Z</time>
      </trkpt>
      <trkpt lat="39.1383410" lon="-8.8033550">
        <ele>54.0</ele>
        <time>2019-07-12T06:25:02Z</time>
      </trkpt>
      <trkpt lat="39.1381450" lon="-8.8033350">
        <ele>53.2</ele>
        <time>2019-07-12T06:25:04Z</time>
      </trkpt>
      <trkpt lat="39.1380440" lon="-8.8033180">
        <ele>52.8</ele>
        <time>2019-07-12T06:25:05Z</time>
      </trkpt>
      <trkpt lat="39.1379440" lon="-8.8032900">
        <ele>52.2</ele>
        <time>2019-07-12T06:25:06Z</time>
      </trkpt>
      <trkpt lat="39.1378470" lon="-8.8032480">
        <ele>51.6</ele>
        <time>2019-07-12T06:25:07Z</time>
      </trkpt>
      <trkpt lat="39.1377550" lon="-8.8031900">
        <ele>51.0</ele>
        <time>2019-07-12T06:25:08Z</time>
      </trkpt>
      <trkpt lat="39.1376670" lon="-8.8031190">
        <ele>50.0</ele>
        <time>2019-07-12T06:25:09Z</time>
      </trkpt>
      <trkpt lat="39.1375820" lon="-8.8030380">
        <ele>49.4</ele>
        <time>2019-07-12T06:25:10Z</time>
      </trkpt>
      <trkpt lat="39.1374990" lon="-8.8029530">
        <ele>49.0</ele>
        <time>2019-07-12T06:25:11Z</time>
      </trkpt>
      <trkpt lat="39.1374130" lon="-8.8028730">
        <ele>48.6</ele>
        <time>2019-07-12T06:25:12Z</time>
      </trkpt>
      <trkpt lat="39.1373240" lon="-8.8027990">
        <ele>48.0</ele>
        <time>2019-07-12T06:25:13Z</time>
      </trkpt>
      <trkpt lat="39.1371350" lon="-8.8026710">
        <ele>46.4</ele>
        <time>2019-07-12T06:25:15Z</time>
      </trkpt>
      <trkpt lat="39.1370330" lon="-8.8026270">
        <ele>45.8</ele>
        <time>2019-07-12T06:25:16Z</time>
      </trkpt>
      <trkpt lat="39.1369280" lon="-8.8025970">
        <ele>44.8</ele>
        <time>2019-07-12T06:25:17Z</time>
      </trkpt>
      <trkpt lat="39.1367160" lon="-8.8025490">
        <ele>44.0</ele>
        <time>2019-07-12T06:25:19Z</time>
      </trkpt>
      <trkpt lat="39.1366130" lon="-8.8025290">
        <ele>43.4</ele>
        <time>2019-07-12T06:25:20Z</time>
      </trkpt>
      <trkpt lat="39.1365110" lon="-8.8025230">
        <ele>42.8</ele>
        <time>2019-07-12T06:25:21Z</time>
      </trkpt>
      <trkpt lat="39.1364090" lon="-8.8025380">
        <ele>42.0</ele>
        <time>2019-07-12T06:25:22Z</time>
      </trkpt>
      <trkpt lat="39.1363100" lon="-8.8025860">
        <ele>41.4</ele>
        <time>2019-07-12T06:25:23Z</time>
      </trkpt>
      <trkpt lat="39.1362220" lon="-8.8026640">
        <ele>40.8</ele>
        <time>2019-07-12T06:25:24Z</time>
      </trkpt>
      <trkpt lat="39.1361500" lon="-8.8027670">
        <ele>40.0</ele>
        <time>2019-07-12T06:25:25Z</time>
      </trkpt>
      <trkpt lat="39.1360970" lon="-8.8028880">
        <ele>39.4</ele>
        <time>2019-07-12T06:25:26Z</time>
      </trkpt>
      <trkpt lat="39.1360160" lon="-8.8031470">
        <ele>38.2</ele>
        <time>2019-07-12T06:25:28Z</time>
      </trkpt>
      <trkpt lat="39.1359240" lon="-8.8034020">
        <ele>36.8</ele>
        <time>2019-07-12T06:25:30Z</time>
      </trkpt>
      <trkpt lat="39.1358340" lon="-8.8036610">
        <ele>35.8</ele>
        <time>2019-07-12T06:25:32Z</time>
      </trkpt>
      <trkpt lat="39.1357440" lon="-8.8039260">
        <ele>34.6</ele>
        <time>2019-07-12T06:25:34Z</time>
      </trkpt>
      <trkpt lat="39.1356300" lon="-8.8043430">
        <ele>33.0</ele>
        <time>2019-07-12T06:25:37Z</time>
      </trkpt>
      <trkpt lat="39.1355530" lon="-8.8046240">
        <ele>31.8</ele>
        <time>2019-07-12T06:25:39Z</time>
      </trkpt>
      <trkpt lat="39.1355060" lon="-8.8047590">
        <ele>31.2</ele>
        <time>2019-07-12T06:25:40Z</time>
      </trkpt>
      <trkpt lat="39.1354470" lon="-8.8048860">
        <ele>30.8</ele>
        <time>2019-07-12T06:25:41Z</time>
      </trkpt>
      <trkpt lat="39.1352950" lon="-8.8050970">
        <ele>29.6</ele>
        <time>2019-07-12T06:25:43Z</time>
      </trkpt>
      <trkpt lat="39.1351210" lon="-8.8052560">
        <ele>29.0</ele>
        <time>2019-07-12T06:25:45Z</time>
      </trkpt>
      <trkpt lat="39.1349460" lon="-8.8053980">
        <ele>28.4</ele>
        <time>2019-07-12T06:25:47Z</time>
      </trkpt>
      <trkpt lat="39.1348590" lon="-8.8054640">
        <ele>28.2</ele>
        <time>2019-07-12T06:25:48Z</time>
      </trkpt>
      <trkpt lat="39.1346050" lon="-8.8056570">
        <ele>27.4</ele>
        <time>2019-07-12T06:25:51Z</time>
      </trkpt>
      <trkpt lat="39.1344400" lon="-8.8057780">
        <ele>27.2</ele>
        <time>2019-07-12T06:25:53Z</time>
      </trkpt>
      <trkpt lat="39.1342810" lon="-8.8058980">
        <ele>27.0</ele>
        <time>2019-07-12T06:25:55Z</time>
      </trkpt>
      <trkpt lat="39.1341310" lon="-8.8060180">
        <ele>26.8</ele>
        <time>2019-07-12T06:25:57Z</time>
      </trkpt>
      <trkpt lat="39.1339760" lon="-8.8061420">
        <ele>26.4</ele>
        <time>2019-07-12T06:25:59Z</time>
      </trkpt>
      <trkpt lat="39.1338970" lon="-8.8062110">
        <ele>26.0</ele>
        <time>2019-07-12T06:26:00Z</time>
      </trkpt>
      <trkpt lat="39.1337490" lon="-8.8063710">
        <ele>25.6</ele>
        <time>2019-07-12T06:26:02Z</time>
      </trkpt>
      <trkpt lat="39.1336280" lon="-8.8065620">
        <ele>25.2</ele>
        <time>2019-07-12T06:26:04Z</time>
      </trkpt>
      <trkpt lat="39.1334240" lon="-8.8069590">
        <ele>24.4</ele>
        <time>2019-07-12T06:26:08Z</time>
      </trkpt>
      <trkpt lat="39.1332760" lon="-8.8072370">
        <ele>25.0</ele>
        <time>2019-07-12T06:26:11Z</time>
      </trkpt>
      <trkpt lat="39.1330040" lon="-8.8077590">
        <ele>24.2</ele>
        <time>2019-07-12T06:26:17Z</time>
      </trkpt>
      <trkpt lat="39.1329610" lon="-8.8078430">
        <ele>24.0</ele>
        <time>2019-07-12T06:26:18Z</time>
      </trkpt>
      <trkpt lat="39.1327050" lon="-8.8083340">
        <ele>23.6</ele>
        <time>2019-07-12T06:26:24Z</time>
      </trkpt>
      <trkpt lat="39.1325750" lon="-8.8085800">
        <ele>23.4</ele>
        <time>2019-07-12T06:26:27Z</time>
      </trkpt>
      <trkpt lat="39.1324220" lon="-8.8089230">
        <ele>23.6</ele>
        <time>2019-07-12T06:26:31Z</time>
      </trkpt>
      <trkpt lat="39.1323150" lon="-8.8091770">
        <ele>23.6</ele>
        <time>2019-07-12T06:26:34Z</time>
      </trkpt>
      <trkpt lat="39.1321070" lon="-8.8096570">
        <ele>24.2</ele>
        <time>2019-07-12T06:26:40Z</time>
      </trkpt>
      <trkpt lat="39.1320300" lon="-8.8098030">
        <ele>24.2</ele>
        <time>2019-07-12T06:26:42Z</time>
      </trkpt>
      <trkpt lat="39.1318060" lon="-8.8101450">
        <ele>24.6</ele>
        <time>2019-07-12T06:26:47Z</time>
      </trkpt>
      <trkpt lat="39.1317600" lon="-8.8102120">
        <ele>24.6</ele>
        <time>2019-07-12T06:26:48Z</time>
      </trkpt>
      <trkpt lat="39.1315300" lon="-8.8105300">
        <ele>25.0</ele>
        <time>2019-07-12T06:26:53Z</time>
      </trkpt>
      <trkpt lat="39.1314380" lon="-8.8106520">
        <ele>25.2</ele>
        <time>2019-07-12T06:26:55Z</time>
      </trkpt>
      <trkpt lat="39.1313480" lon="-8.8107710">
        <ele>25.6</ele>
        <time>2019-07-12T06:26:57Z</time>
      </trkpt>
      <trkpt lat="39.1310650" lon="-8.8110900">
        <ele>26.2</ele>
        <time>2019-07-12T06:27:03Z</time>
      </trkpt>
      <trkpt lat="39.1310170" lon="-8.8111390">
        <ele>26.4</ele>
        <time>2019-07-12T06:27:04Z</time>
      </trkpt>
      <trkpt lat="39.1306820" lon="-8.8115000">
        <ele>26.8</ele>
        <time>2019-07-12T06:27:11Z</time>
      </trkpt>
      <trkpt lat="39.1304300" lon="-8.8118500">
        <ele>27.4</ele>
        <time>2019-07-12T06:27:17Z</time>
      </trkpt>
      <trkpt lat="39.1303160" lon="-8.8120340">
        <ele>28.2</ele>
        <time>2019-07-12T06:27:20Z</time>
      </trkpt>
      <trkpt lat="39.1301570" lon="-8.8122820">
        <ele>28.6</ele>
        <time>2019-07-12T06:27:24Z</time>
      </trkpt>
      <trkpt lat="39.1299950" lon="-8.8125320">
        <ele>29.0</ele>
        <time>2019-07-12T06:27:28Z</time>
      </trkpt>
      <trkpt lat="39.1298340" lon="-8.8127830">
        <ele>29.6</ele>
        <time>2019-07-12T06:27:32Z</time>
      </trkpt>
      <trkpt lat="39.1296820" lon="-8.8130400">
        <ele>30.0</ele>
        <time>2019-07-12T06:27:36Z</time>
      </trkpt>
      <trkpt lat="39.1293960" lon="-8.8134910">
        <ele>30.4</ele>
        <time>2019-07-12T06:27:43Z</time>
      </trkpt>
      <trkpt lat="39.1293540" lon="-8.8135560">
        <ele>30.6</ele>
        <time>2019-07-12T06:27:44Z</time>
      </trkpt>
      <trkpt lat="39.1292700" lon="-8.8136830">
        <ele>31.2</ele>
        <time>2019-07-12T06:27:46Z</time>
      </trkpt>
      <trkpt lat="39.1291000" lon="-8.8139290">
        <ele>31.8</ele>
        <time>2019-07-12T06:27:50Z</time>
      </trkpt>
      <trkpt lat="39.1289710" lon="-8.8140960">
        <ele>32.2</ele>
        <time>2019-07-12T06:27:53Z</time>
      </trkpt>
      <trkpt lat="39.1287460" lon="-8.8143440">
        <ele>32.8</ele>
        <time>2019-07-12T06:27:58Z</time>
      </trkpt>
      <trkpt lat="39.1286570" lon="-8.8144290">
        <ele>33.2</ele>
        <time>2019-07-12T06:28:00Z</time>
      </trkpt>
      <trkpt lat="39.1284660" lon="-8.8146270">
        <ele>34.0</ele>
        <time>2019-07-12T06:28:04Z</time>
      </trkpt>
      <trkpt lat="39.1283700" lon="-8.8147170">
        <ele>34.6</ele>
        <time>2019-07-12T06:28:06Z</time>
      </trkpt>
      <trkpt lat="39.1282160" lon="-8.8148290">
        <ele>35.0</ele>
        <time>2019-07-12T06:28:09Z</time>
      </trkpt>
      <trkpt lat="39.1280550" lon="-8.8149340">
        <ele>35.4</ele>
        <time>2019-07-12T06:28:12Z</time>
      </trkpt>
      <trkpt lat="39.1279490" lon="-8.8149960">
        <ele>35.8</ele>
        <time>2019-07-12T06:28:14Z</time>
      </trkpt>
      <trkpt lat="39.1277310" lon="-8.8151400">
        <ele>36.0</ele>
        <time>2019-07-12T06:28:18Z</time>
      </trkpt>
      <trkpt lat="39.1274160" lon="-8.8154040">
        <ele>36.2</ele>
        <time>2019-07-12T06:28:24Z</time>
      </trkpt>
      <trkpt lat="39.1273120" lon="-8.8154900">
        <ele>36.2</ele>
        <time>2019-07-12T06:28:26Z</time>
      </trkpt>
      <trkpt lat="39.1270010" lon="-8.8156490">
        <ele>37.2</ele>
        <time>2019-07-12T06:28:32Z</time>
      </trkpt>
      <trkpt lat="39.1269020" lon="-8.8156710">
        <ele>37.8</ele>
        <time>2019-07-12T06:28:34Z</time>
      </trkpt>
      <trkpt lat="39.1268030" lon="-8.8156790">
        <ele>38.2</ele>
        <time>2019-07-12T06:28:36Z</time>
      </trkpt>
      <trkpt lat="39.1267090" lon="-8.8156730">
        <ele>39.0</ele>
        <time>2019-07-12T06:28:38Z</time>
      </trkpt>
      <trkpt lat="39.1266630" lon="-8.8156630">
        <ele>39.2</ele>
        <time>2019-07-12T06:28:39Z</time>
      </trkpt>
      <trkpt lat="39.1264060" lon="-8.8155580">
        <ele>40.4</ele>
        <time>2019-07-12T06:28:45Z</time>
      </trkpt>
      <trkpt lat="39.1261580" lon="-8.8154420">
        <ele>41.4</ele>
        <time>2019-07-12T06:28:51Z</time>
      </trkpt>
      <trkpt lat="39.1260770" lon="-8.8154120">
        <ele>41.8</ele>
        <time>2019-07-12T06:28:53Z</time>
      </trkpt>
      <trkpt lat="39.1259460" lon="-8.8153750">
        <ele>42.4</ele>
        <time>2019-07-12T06:28:56Z</time>
      </trkpt>
      <trkpt lat="39.1258160" lon="-8.8153640">
        <ele>43.0</ele>
        <time>2019-07-12T06:28:59Z</time>
      </trkpt>
      <trkpt lat="39.1257730" lon="-8.8153700">
        <ele>43.2</ele>
        <time>2019-07-12T06:29:00Z</time>
      </trkpt>
      <trkpt lat="39.1257300" lon="-8.8153810">
        <ele>43.4</ele>
        <time>2019-07-12T06:29:01Z</time>
      </trkpt>
      <trkpt lat="39.1255280" lon="-8.8154360">
        <ele>44.6</ele>
        <time>2019-07-12T06:29:06Z</time>
      </trkpt>
      <trkpt lat="39.1254870" lon="-8.8154510">
        <ele>45.0</ele>
        <time>2019-07-12T06:29:07Z</time>
      </trkpt>
      <trkpt lat="39.1253230" lon="-8.8155270">
        <ele>45.8</ele>
        <time>2019-07-12T06:29:11Z</time>
      </trkpt>
      <trkpt lat="39.1252030" lon="-8.8155950">
        <ele>46.6</ele>
        <time>2019-07-12T06:29:14Z</time>
      </trkpt>
      <trkpt lat="39.1251230" lon="-8.8156510">
        <ele>47.0</ele>
        <time>2019-07-12T06:29:16Z</time>
      </trkpt>
      <trkpt lat="39.1248880" lon="-8.8158570">
        <ele>48.0</ele>
        <time>2019-07-12T06:29:22Z</time>
      </trkpt>
      <trkpt lat="39.1248500" lon="-8.8158950">
        <ele>48.0</ele>
        <time>2019-07-12T06:29:23Z</time>
      </trkpt>
      <trkpt lat="39.1247510" lon="-8.8160320">
        <ele>48.6</ele>
        <time>2019-07-12T06:29:26Z</time>
      </trkpt>
      <trkpt lat="39.1246760" lon="-8.8161920">
        <ele>49.0</ele>
        <time>2019-07-12T06:29:29Z</time>
      </trkpt>
      <trkpt lat="39.1245400" lon="-8.8166270">
        <ele>49.8</ele>
        <time>2019-07-12T06:29:36Z</time>
      </trkpt>
      <trkpt lat="39.1244820" lon="-8.8168190">
        <ele>50.0</ele>
        <time>2019-07-12T06:29:39Z</time>
      </trkpt>
      <trkpt lat="39.1244010" lon="-8.8170790">
        <ele>50.2</ele>
        <time>2019-07-12T06:29:43Z</time>
      </trkpt>
      <trkpt lat="39.1243390" lon="-8.8172830">
        <ele>50.2</ele>
        <time>2019-07-12T06:29:46Z</time>
      </trkpt>
      <trkpt lat="39.1242900" lon="-8.8174160">
        <ele>50.2</ele>
        <time>2019-07-12T06:29:48Z</time>
      </trkpt>
      <trkpt lat="39.1241550" lon="-8.8176620">
        <ele>50.4</ele>
        <time>2019-07-12T06:29:52Z</time>
      </trkpt>
      <trkpt lat="39.1240290" lon="-8.8178400">
        <ele>50.4</ele>
        <time>2019-07-12T06:29:55Z</time>
      </trkpt>
      <trkpt lat="39.1238920" lon="-8.8180050">
        <ele>50.4</ele>
        <time>2019-07-12T06:29:58Z</time>
      </trkpt>
      <trkpt lat="39.1238440" lon="-8.8180570">
        <ele>50.4</ele>
        <time>2019-07-12T06:29:59Z</time>
      </trkpt>
      <trkpt lat="39.1235940" lon="-8.8183340">
        <ele>50.2</ele>
        <time>2019-07-12T06:30:04Z</time>
      </trkpt>
      <trkpt lat="39.1234430" lon="-8.8185090">
        <ele>50.0</ele>
        <time>2019-07-12T06:30:07Z</time>
      </trkpt>
      <trkpt lat="39.1233910" lon="-8.8185640">
        <ele>50.0</ele>
        <time>2019-07-12T06:30:08Z</time>
      </trkpt>
      <trkpt lat="39.1231810" lon="-8.8187860">
        <ele>50.0</ele>
        <time>2019-07-12T06:30:12Z</time>
      </trkpt>
      <trkpt lat="39.1229210" lon="-8.8190760">
        <ele>50.2</ele>
        <time>2019-07-12T06:30:17Z</time>
      </trkpt>
      <trkpt lat="39.1224910" lon="-8.8195580">
        <ele>50.0</ele>
        <time>2019-07-12T06:30:25Z</time>
      </trkpt>
      <trkpt lat="39.1220610" lon="-8.8200440">
        <ele>50.0</ele>
        <time>2019-07-12T06:30:33Z</time>
      </trkpt>
      <trkpt lat="39.1219560" lon="-8.8201650">
        <ele>49.8</ele>
        <time>2019-07-12T06:30:35Z</time>
      </trkpt>
      <trkpt lat="39.1215320" lon="-8.8206350">
        <ele>50.4</ele>
        <time>2019-07-12T06:30:43Z</time>
      </trkpt>
      <trkpt lat="39.1211070" lon="-8.8210250">
        <ele>50.8</ele>
        <time>2019-07-12T06:30:51Z</time>
      </trkpt>
      <trkpt lat="39.1207040" lon="-8.8213090">
        <ele>50.6</ele>
        <time>2019-07-12T06:30:58Z</time>
      </trkpt>
      <trkpt lat="39.1205390" lon="-8.8214390">
        <ele>50.4</ele>
        <time>2019-07-12T06:31:01Z</time>
      </trkpt>
      <trkpt lat="39.1203760" lon="-8.8215840">
        <ele>50.0</ele>
        <time>2019-07-12T06:31:04Z</time>
      </trkpt>
      <trkpt lat="39.1198480" lon="-8.8219350">
        <ele>50.0</ele>
        <time>2019-07-12T06:31:13Z</time>
      </trkpt>
      <trkpt lat="39.1194230" lon="-8.8221940">
        <ele>50.0</ele>
        <time>2019-07-12T06:31:20Z</time>
      </trkpt>
      <trkpt lat="39.1189650" lon="-8.8225780">
        <ele>50.0</ele>
        <time>2019-07-12T06:31:28Z</time>
      </trkpt>
      <trkpt lat="39.1185790" lon="-8.8229640">
        <ele>50.2</ele>
        <time>2019-07-12T06:31:35Z</time>
      </trkpt>
      <trkpt lat="39.1185200" lon="-8.8230230">
        <ele>50.2</ele>
        <time>2019-07-12T06:31:36Z</time>
      </trkpt>
      <trkpt lat="39.1183480" lon="-8.8231940">
        <ele>51.0</ele>
        <time>2019-07-12T06:31:39Z</time>
      </trkpt>
      <trkpt lat="39.1181760" lon="-8.8233720">
        <ele>51.2</ele>
        <time>2019-07-12T06:31:42Z</time>
      </trkpt>
      <trkpt lat="39.1179440" lon="-8.8236130">
        <ele>50.6</ele>
        <time>2019-07-12T06:31:46Z</time>
      </trkpt>
      <trkpt lat="39.1176460" lon="-8.8239170">
        <ele>50.6</ele>
        <time>2019-07-12T06:31:51Z</time>
      </trkpt>
      <trkpt lat="39.1173350" lon="-8.8242300">
        <ele>50.6</ele>
        <time>2019-07-12T06:31:56Z</time>
      </trkpt>
      <trkpt lat="39.1171510" lon="-8.8244190">
        <ele>50.8</ele>
        <time>2019-07-12T06:31:59Z</time>
      </trkpt>
      <trkpt lat="39.1167060" lon="-8.8248480">
        <ele>50.8</ele>
        <time>2019-07-12T06:32:06Z</time>
      </trkpt>
      <trkpt lat="39.1162730" lon="-8.8252650">
        <ele>51.4</ele>
        <time>2019-07-12T06:32:13Z</time>
      </trkpt>
      <trkpt lat="39.1161600" lon="-8.8253820">
        <ele>51.6</ele>
        <time>2019-07-12T06:32:15Z</time>
      </trkpt>
      <trkpt lat="39.1160530" lon="-8.8254970">
        <ele>52.0</ele>
        <time>2019-07-12T06:32:17Z</time>
      </trkpt>
      <trkpt lat="39.1158480" lon="-8.8257050">
        <ele>52.8</ele>
        <time>2019-07-12T06:32:21Z</time>
      </trkpt>
      <trkpt lat="39.1157990" lon="-8.8257570">
        <ele>53.0</ele>
        <time>2019-07-12T06:32:22Z</time>
      </trkpt>
      <trkpt lat="39.1156120" lon="-8.8259470">
        <ele>54.0</ele>
        <time>2019-07-12T06:32:26Z</time>
      </trkpt>
      <trkpt lat="39.1155260" lon="-8.8260430">
        <ele>54.6</ele>
        <time>2019-07-12T06:32:28Z</time>
      </trkpt>
      <trkpt lat="39.1154360" lon="-8.8261350">
        <ele>55.2</ele>
        <time>2019-07-12T06:32:30Z</time>
      </trkpt>
      <trkpt lat="39.1152090" lon="-8.8263640">
        <ele>56.2</ele>
        <time>2019-07-12T06:32:35Z</time>
      </trkpt>
      <trkpt lat="39.1149910" lon="-8.8265850">
        <ele>57.0</ele>
        <time>2019-07-12T06:32:40Z</time>
      </trkpt>
      <trkpt lat="39.1149520" lon="-8.8266270">
        <ele>57.4</ele>
        <time>2019-07-12T06:32:41Z</time>
      </trkpt>
      <trkpt lat="39.1148750" lon="-8.8267080">
        <ele>58.0</ele>
        <time>2019-07-12T06:32:43Z</time>
      </trkpt>
      <trkpt lat="39.1147560" lon="-8.8268210">
        <ele>58.6</ele>
        <time>2019-07-12T06:32:46Z</time>
      </trkpt>
      <trkpt lat="39.1146010" lon="-8.8269740">
        <ele>59.8</ele>
        <time>2019-07-12T06:32:50Z</time>
      </trkpt>
      <trkpt lat="39.1145210" lon="-8.8270440">
        <ele>60.2</ele>
        <time>2019-07-12T06:32:52Z</time>
      </trkpt>
      <trkpt lat="39.1144840" lon="-8.8270830">
        <ele>60.4</ele>
        <time>2019-07-12T06:32:53Z</time>
      </trkpt>
      <trkpt lat="39.1144150" lon="-8.8271690">
        <ele>61.0</ele>
        <time>2019-07-12T06:32:55Z</time>
      </trkpt>
      <trkpt lat="39.1143360" lon="-8.8272460">
        <ele>61.6</ele>
        <time>2019-07-12T06:32:57Z</time>
      </trkpt>
      <trkpt lat="39.1142970" lon="-8.8272820">
        <ele>61.8</ele>
        <time>2019-07-12T06:32:58Z</time>
      </trkpt>
      <trkpt lat="39.1141780" lon="-8.8273960">
        <ele>62.0</ele>
        <time>2019-07-12T06:33:01Z</time>
      </trkpt>
      <trkpt lat="39.1140480" lon="-8.8275190">
        <ele>62.4</ele>
        <time>2019-07-12T06:33:04Z</time>
      </trkpt>
      <trkpt lat="39.1136350" lon="-8.8279440">
        <ele>63.0</ele>
        <time>2019-07-12T06:33:13Z</time>
      </trkpt>
      <trkpt lat="39.1134500" lon="-8.8281500">
        <ele>63.0</ele>
        <time>2019-07-12T06:33:17Z</time>
      </trkpt>
      <trkpt lat="39.1133630" lon="-8.8282570">
        <ele>63.0</ele>
        <time>2019-07-12T06:33:19Z</time>
      </trkpt>
      <trkpt lat="39.1132700" lon="-8.8283690">
        <ele>63.2</ele>
        <time>2019-07-12T06:33:21Z</time>
      </trkpt>
      <trkpt lat="39.1130410" lon="-8.8286520">
        <ele>63.4</ele>
        <time>2019-07-12T06:33:26Z</time>
      </trkpt>
      <trkpt lat="39.1129020" lon="-8.8288230">
        <ele>63.8</ele>
        <time>2019-07-12T06:33:29Z</time>
      </trkpt>
      <trkpt lat="39.1128550" lon="-8.8288810">
        <ele>63.8</ele>
        <time>2019-07-12T06:33:30Z</time>
      </trkpt>
      <trkpt lat="39.1126650" lon="-8.8291130">
        <ele>64.0</ele>
        <time>2019-07-12T06:33:34Z</time>
      </trkpt>
      <trkpt lat="39.1125680" lon="-8.8292310">
        <ele>64.0</ele>
        <time>2019-07-12T06:33:36Z</time>
      </trkpt>
      <trkpt lat="39.1124150" lon="-8.8294160">
        <ele>63.6</ele>
        <time>2019-07-12T06:33:39Z</time>
      </trkpt>
      <trkpt lat="39.1122570" lon="-8.8296180">
        <ele>63.2</ele>
        <time>2019-07-12T06:33:42Z</time>
      </trkpt>
      <trkpt lat="39.1120340" lon="-8.8298970">
        <ele>62.8</ele>
        <time>2019-07-12T06:33:46Z</time>
      </trkpt>
      <trkpt lat="39.1117490" lon="-8.8302560">
        <ele>62.4</ele>
        <time>2019-07-12T06:33:51Z</time>
      </trkpt>
      <trkpt lat="39.1114620" lon="-8.8306190">
        <ele>62.2</ele>
        <time>2019-07-12T06:33:56Z</time>
      </trkpt>
      <trkpt lat="39.1110530" lon="-8.8311360">
        <ele>62.2</ele>
        <time>2019-07-12T06:34:03Z</time>
      </trkpt>
      <trkpt lat="39.1109370" lon="-8.8312880">
        <ele>62.2</ele>
        <time>2019-07-12T06:34:05Z</time>
      </trkpt>
      <trkpt lat="39.1108790" lon="-8.8313650">
        <ele>62.0</ele>
        <time>2019-07-12T06:34:06Z</time>
      </trkpt>
      <trkpt lat="39.1104770" lon="-8.8319220">
        <ele>61.6</ele>
        <time>2019-07-12T06:34:13Z</time>
      </trkpt>
      <trkpt lat="39.1104170" lon="-8.8319990">
        <ele>61.6</ele>
        <time>2019-07-12T06:34:14Z</time>
      </trkpt>
      <trkpt lat="39.1100090" lon="-8.8325350">
        <ele>61.4</ele>
        <time>2019-07-12T06:34:21Z</time>
      </trkpt>
      <trkpt lat="39.1098400" lon="-8.8327570">
        <ele>61.8</ele>
        <time>2019-07-12T06:34:24Z</time>
      </trkpt>
      <trkpt lat="39.1096330" lon="-8.8330440">
        <ele>61.8</ele>
        <time>2019-07-12T06:34:28Z</time>
      </trkpt>
      <trkpt lat="39.1094830" lon="-8.8332440">
        <ele>62.4</ele>
        <time>2019-07-12T06:34:31Z</time>
      </trkpt>
      <trkpt lat="39.1092870" lon="-8.8335000">
        <ele>62.6</ele>
        <time>2019-07-12T06:34:35Z</time>
      </trkpt>
      <trkpt lat="39.1091420" lon="-8.8336840">
        <ele>63.2</ele>
        <time>2019-07-12T06:34:38Z</time>
      </trkpt>
      <trkpt lat="39.1087580" lon="-8.8341960">
        <ele>63.8</ele>
        <time>2019-07-12T06:34:46Z</time>
      </trkpt>
      <trkpt lat="39.1086590" lon="-8.8343240">
        <ele>63.8</ele>
        <time>2019-07-12T06:34:48Z</time>
      </trkpt>
      <trkpt lat="39.1083040" lon="-8.8347870">
        <ele>63.8</ele>
        <time>2019-07-12T06:34:55Z</time>
      </trkpt>
      <trkpt lat="39.1081010" lon="-8.8350720">
        <ele>63.6</ele>
        <time>2019-07-12T06:34:59Z</time>
      </trkpt>
      <trkpt lat="39.1079390" lon="-8.8352870">
        <ele>63.4</ele>
        <time>2019-07-12T06:35:02Z</time>
      </trkpt>
      <trkpt lat="39.1077190" lon="-8.8355890">
        <ele>63.0</ele>
        <time>2019-07-12T06:35:06Z</time>
      </trkpt>
      <trkpt lat="39.1075470" lon="-8.8358090">
        <ele>62.4</ele>
        <time>2019-07-12T06:35:09Z</time>
      </trkpt>
      <trkpt lat="39.1072460" lon="-8.8361740">
        <ele>62.0</ele>
        <time>2019-07-12T06:35:14Z</time>
      </trkpt>
      <trkpt lat="39.1070000" lon="-8.8364710">
        <ele>61.6</ele>
        <time>2019-07-12T06:35:18Z</time>
      </trkpt>
      <trkpt lat="39.1065640" lon="-8.8369780">
        <ele>61.0</ele>
        <time>2019-07-12T06:35:25Z</time>
      </trkpt>
      <trkpt lat="39.1065010" lon="-8.8370470">
        <ele>61.0</ele>
        <time>2019-07-12T06:35:26Z</time>
      </trkpt>
      <trkpt lat="39.1064390" lon="-8.8371140">
        <ele>61.0</ele>
        <time>2019-07-12T06:35:27Z</time>
      </trkpt>
      <trkpt lat="39.1060160" lon="-8.8375850">
        <ele>60.2</ele>
        <time>2019-07-12T06:35:34Z</time>
      </trkpt>
      <trkpt lat="39.1057210" lon="-8.8379210">
        <ele>59.8</ele>
        <time>2019-07-12T06:35:39Z</time>
      </trkpt>
      <trkpt lat="39.1056020" lon="-8.8380490">
        <ele>59.4</ele>
        <time>2019-07-12T06:35:41Z</time>
      </trkpt>
      <trkpt lat="39.1053110" lon="-8.8383750">
        <ele>58.8</ele>
        <time>2019-07-12T06:35:46Z</time>
      </trkpt>
      <trkpt lat="39.1051360" lon="-8.8385650">
        <ele>58.8</ele>
        <time>2019-07-12T06:35:49Z</time>
      </trkpt>
      <trkpt lat="39.1047150" lon="-8.8390210">
        <ele>58.4</ele>
        <time>2019-07-12T06:35:56Z</time>
      </trkpt>
      <trkpt lat="39.1045930" lon="-8.8391650">
        <ele>57.8</ele>
        <time>2019-07-12T06:35:58Z</time>
      </trkpt>
      <trkpt lat="39.1045280" lon="-8.8392370">
        <ele>57.6</ele>
        <time>2019-07-12T06:35:59Z</time>
      </trkpt>
      <trkpt lat="39.1041250" lon="-8.8396840">
        <ele>56.4</ele>
        <time>2019-07-12T06:36:05Z</time>
      </trkpt>
      <trkpt lat="39.1039880" lon="-8.8398390">
        <ele>56.0</ele>
        <time>2019-07-12T06:36:07Z</time>
      </trkpt>
      <trkpt lat="39.1038490" lon="-8.8399980">
        <ele>55.4</ele>
        <time>2019-07-12T06:36:09Z</time>
      </trkpt>
      <trkpt lat="39.1036390" lon="-8.8402400">
        <ele>54.6</ele>
        <time>2019-07-12T06:36:12Z</time>
      </trkpt>
      <trkpt lat="39.1034290" lon="-8.8404760">
        <ele>54.0</ele>
        <time>2019-07-12T06:36:15Z</time>
      </trkpt>
      <trkpt lat="39.1033590" lon="-8.8405530">
        <ele>53.8</ele>
        <time>2019-07-12T06:36:16Z</time>
      </trkpt>
      <trkpt lat="39.1031540" lon="-8.8407870">
        <ele>53.0</ele>
        <time>2019-07-12T06:36:19Z</time>
      </trkpt>
      <trkpt lat="39.1029510" lon="-8.8410220">
        <ele>52.0</ele>
        <time>2019-07-12T06:36:22Z</time>
      </trkpt>
      <trkpt lat="39.1028840" lon="-8.8410990">
        <ele>51.8</ele>
        <time>2019-07-12T06:36:23Z</time>
      </trkpt>
      <trkpt lat="39.1026840" lon="-8.8413220">
        <ele>51.4</ele>
        <time>2019-07-12T06:36:26Z</time>
      </trkpt>
      <trkpt lat="39.1024840" lon="-8.8415440">
        <ele>50.8</ele>
        <time>2019-07-12T06:36:29Z</time>
      </trkpt>
      <trkpt lat="39.1020400" lon="-8.8420420">
        <ele>50.2</ele>
        <time>2019-07-12T06:36:36Z</time>
      </trkpt>
      <trkpt lat="39.1018580" lon="-8.8422470">
        <ele>50.0</ele>
        <time>2019-07-12T06:36:39Z</time>
      </trkpt>
      <trkpt lat="39.1016200" lon="-8.8425140">
        <ele>49.8</ele>
        <time>2019-07-12T06:36:43Z</time>
      </trkpt>
      <trkpt lat="39.1015040" lon="-8.8426420">
        <ele>49.6</ele>
        <time>2019-07-12T06:36:45Z</time>
      </trkpt>
      <trkpt lat="39.1012140" lon="-8.8429680">
        <ele>49.2</ele>
        <time>2019-07-12T06:36:50Z</time>
      </trkpt>
      <trkpt lat="39.1009870" lon="-8.8432370">
        <ele>49.4</ele>
        <time>2019-07-12T06:36:54Z</time>
      </trkpt>
      <trkpt lat="39.1008200" lon="-8.8434500">
        <ele>49.2</ele>
        <time>2019-07-12T06:36:57Z</time>
      </trkpt>
      <trkpt lat="39.1004470" lon="-8.8439750">
        <ele>49.0</ele>
        <time>2019-07-12T06:37:04Z</time>
      </trkpt>
      <trkpt lat="39.1003980" lon="-8.8440540">
        <ele>49.0</ele>
        <time>2019-07-12T06:37:05Z</time>
      </trkpt>
      <trkpt lat="39.1000490" lon="-8.8445970">
        <ele>48.6</ele>
        <time>2019-07-12T06:37:12Z</time>
      </trkpt>
      <trkpt lat="39.0999990" lon="-8.8446730">
        <ele>48.4</ele>
        <time>2019-07-12T06:37:13Z</time>
      </trkpt>
      <trkpt lat="39.0998960" lon="-8.8448230">
        <ele>48.2</ele>
        <time>2019-07-12T06:37:15Z</time>
      </trkpt>
      <trkpt lat="39.0995380" lon="-8.8453710">
        <ele>47.4</ele>
        <time>2019-07-12T06:37:22Z</time>
      </trkpt>
      <trkpt lat="39.0994850" lon="-8.8454520">
        <ele>47.4</ele>
        <time>2019-07-12T06:37:23Z</time>
      </trkpt>
      <trkpt lat="39.0993750" lon="-8.8456120">
        <ele>47.2</ele>
        <time>2019-07-12T06:37:25Z</time>
      </trkpt>
      <trkpt lat="39.0990430" lon="-8.8461130">
        <ele>46.2</ele>
        <time>2019-07-12T06:37:31Z</time>
      </trkpt>
      <trkpt lat="39.0989270" lon="-8.8462910">
        <ele>46.0</ele>
        <time>2019-07-12T06:37:33Z</time>
      </trkpt>
      <trkpt lat="39.0986940" lon="-8.8466590">
        <ele>45.0</ele>
        <time>2019-07-12T06:37:37Z</time>
      </trkpt>
      <trkpt lat="39.0984470" lon="-8.8470300">
        <ele>44.0</ele>
        <time>2019-07-12T06:37:41Z</time>
      </trkpt>
      <trkpt lat="39.0983840" lon="-8.8471250">
        <ele>43.6</ele>
        <time>2019-07-12T06:37:42Z</time>
      </trkpt>
      <trkpt lat="39.0982550" lon="-8.8473170">
        <ele>42.8</ele>
        <time>2019-07-12T06:37:44Z</time>
      </trkpt>
      <trkpt lat="39.0981240" lon="-8.8475150">
        <ele>42.0</ele>
        <time>2019-07-12T06:37:46Z</time>
      </trkpt>
      <trkpt lat="39.0980570" lon="-8.8476160">
        <ele>41.6</ele>
        <time>2019-07-12T06:37:47Z</time>
      </trkpt>
      <trkpt lat="39.0979190" lon="-8.8478230">
        <ele>40.6</ele>
        <time>2019-07-12T06:37:49Z</time>
      </trkpt>
      <trkpt lat="39.0978490" lon="-8.8479280">
        <ele>40.2</ele>
        <time>2019-07-12T06:37:50Z</time>
      </trkpt>
      <trkpt lat="39.0977780" lon="-8.8480340">
        <ele>39.6</ele>
        <time>2019-07-12T06:37:51Z</time>
      </trkpt>
      <trkpt lat="39.0977070" lon="-8.8481410">
        <ele>39.2</ele>
        <time>2019-07-12T06:37:52Z</time>
      </trkpt>
      <trkpt lat="39.0975650" lon="-8.8483530">
        <ele>38.2</ele>
        <time>2019-07-12T06:37:54Z</time>
      </trkpt>
      <trkpt lat="39.0974210" lon="-8.8485650">
        <ele>37.0</ele>
        <time>2019-07-12T06:37:56Z</time>
      </trkpt>
      <trkpt lat="39.0972690" lon="-8.8487710">
        <ele>36.0</ele>
        <time>2019-07-12T06:37:58Z</time>
      </trkpt>
      <trkpt lat="39.0971910" lon="-8.8488710">
        <ele>35.4</ele>
        <time>2019-07-12T06:37:59Z</time>
      </trkpt>
      <trkpt lat="39.0971100" lon="-8.8489670">
        <ele>35.0</ele>
        <time>2019-07-12T06:38:00Z</time>
      </trkpt>
      <trkpt lat="39.0970270" lon="-8.8490610">
        <ele>34.4</ele>
        <time>2019-07-12T06:38:01Z</time>
      </trkpt>
      <trkpt lat="39.0966760" lon="-8.8494010">
        <ele>32.8</ele>
        <time>2019-07-12T06:38:05Z</time>
      </trkpt>
      <trkpt lat="39.0965820" lon="-8.8494810">
        <ele>32.2</ele>
        <time>2019-07-12T06:38:06Z</time>
      </trkpt>
      <trkpt lat="39.0964880" lon="-8.8495570">
        <ele>31.4</ele>
        <time>2019-07-12T06:38:07Z</time>
      </trkpt>
      <trkpt lat="39.0962910" lon="-8.8497020">
        <ele>30.2</ele>
        <time>2019-07-12T06:38:09Z</time>
      </trkpt>
      <trkpt lat="39.0959880" lon="-8.8499180">
        <ele>28.4</ele>
        <time>2019-07-12T06:38:12Z</time>
      </trkpt>
      <trkpt lat="39.0957830" lon="-8.8500650">
        <ele>27.2</ele>
        <time>2019-07-12T06:38:14Z</time>
      </trkpt>
      <trkpt lat="39.0955820" lon="-8.8502220">
        <ele>26.0</ele>
        <time>2019-07-12T06:38:16Z</time>
      </trkpt>
      <trkpt lat="39.0953830" lon="-8.8503760">
        <ele>25.0</ele>
        <time>2019-07-12T06:38:18Z</time>
      </trkpt>
      <trkpt lat="39.0951840" lon="-8.8505270">
        <ele>24.0</ele>
        <time>2019-07-12T06:38:20Z</time>
      </trkpt>
      <trkpt lat="39.0950840" lon="-8.8506000">
        <ele>23.4</ele>
        <time>2019-07-12T06:38:21Z</time>
      </trkpt>
      <trkpt lat="39.0949840" lon="-8.8506710">
        <ele>23.0</ele>
        <time>2019-07-12T06:38:22Z</time>
      </trkpt>
      <trkpt lat="39.0946910" lon="-8.8508710">
        <ele>21.6</ele>
        <time>2019-07-12T06:38:25Z</time>
      </trkpt>
      <trkpt lat="39.0944070" lon="-8.8510560">
        <ele>20.6</ele>
        <time>2019-07-12T06:38:28Z</time>
      </trkpt>
      <trkpt lat="39.0943150" lon="-8.8511160">
        <ele>20.2</ele>
        <time>2019-07-12T06:38:29Z</time>
      </trkpt>
      <trkpt lat="39.0942250" lon="-8.8511760">
        <ele>20.0</ele>
        <time>2019-07-12T06:38:30Z</time>
      </trkpt>
      <trkpt lat="39.0941370" lon="-8.8512340">
        <ele>19.6</ele>
        <time>2019-07-12T06:38:31Z</time>
      </trkpt>
      <trkpt lat="39.0940500" lon="-8.8512910">
        <ele>19.2</ele>
        <time>2019-07-12T06:38:32Z</time>
      </trkpt>
      <trkpt lat="39.0939650" lon="-8.8513470">
        <ele>19.0</ele>
        <time>2019-07-12T06:38:33Z</time>
      </trkpt>
      <trkpt lat="39.0937990" lon="-8.8514600">
        <ele>18.8</ele>
        <time>2019-07-12T06:38:35Z</time>
      </trkpt>
      <trkpt lat="39.0934830" lon="-8.8516870">
        <ele>18.6</ele>
        <time>2019-07-12T06:38:39Z</time>
      </trkpt>
      <trkpt lat="39.0931800" lon="-8.8519010">
        <ele>18.8</ele>
        <time>2019-07-12T06:38:43Z</time>
      </trkpt>
      <trkpt lat="39.0928210" lon="-8.8521480">
        <ele>19.0</ele>
        <time>2019-07-12T06:38:48Z</time>
      </trkpt>
      <trkpt lat="39.0926210" lon="-8.8522940">
        <ele>19.0</ele>
        <time>2019-07-12T06:38:51Z</time>
      </trkpt>
      <trkpt lat="39.0923030" lon="-8.8525200">
        <ele>19.2</ele>
        <time>2019-07-12T06:38:56Z</time>
      </trkpt>
      <trkpt lat="39.0921210" lon="-8.8526470">
        <ele>19.6</ele>
        <time>2019-07-12T06:38:59Z</time>
      </trkpt>
      <trkpt lat="39.0920620" lon="-8.8526870">
        <ele>19.6</ele>
        <time>2019-07-12T06:39:00Z</time>
      </trkpt>
      <trkpt lat="39.0918890" lon="-8.8528040">
        <ele>20.4</ele>
        <time>2019-07-12T06:39:03Z</time>
      </trkpt>
      <trkpt lat="39.0917270" lon="-8.8529250">
        <ele>20.8</ele>
        <time>2019-07-12T06:39:06Z</time>
      </trkpt>
      <trkpt lat="39.0916720" lon="-8.8529630">
        <ele>21.0</ele>
        <time>2019-07-12T06:39:07Z</time>
      </trkpt>
      <trkpt lat="39.0915090" lon="-8.8530720">
        <ele>21.4</ele>
        <time>2019-07-12T06:39:10Z</time>
      </trkpt>
      <trkpt lat="39.0914580" lon="-8.8531090">
        <ele>21.6</ele>
        <time>2019-07-12T06:39:11Z</time>
      </trkpt>
      <trkpt lat="39.0913580" lon="-8.8531840">
        <ele>22.0</ele>
        <time>2019-07-12T06:39:13Z</time>
      </trkpt>
      <trkpt lat="39.0912130" lon="-8.8532950">
        <ele>23.2</ele>
        <time>2019-07-12T06:39:16Z</time>
      </trkpt>
      <trkpt lat="39.0910700" lon="-8.8533930">
        <ele>24.2</ele>
        <time>2019-07-12T06:39:19Z</time>
      </trkpt>
      <trkpt lat="39.0910240" lon="-8.8534240">
        <ele>24.4</ele>
        <time>2019-07-12T06:39:20Z</time>
      </trkpt>
      <trkpt lat="39.0908870" lon="-8.8535240">
        <ele>25.4</ele>
        <time>2019-07-12T06:39:23Z</time>
      </trkpt>
      <trkpt lat="39.0908440" lon="-8.8535570">
        <ele>25.4</ele>
        <time>2019-07-12T06:39:24Z</time>
      </trkpt>
      <trkpt lat="39.0907120" lon="-8.8536450">
        <ele>26.2</ele>
        <time>2019-07-12T06:39:27Z</time>
      </trkpt>
      <trkpt lat="39.0906680" lon="-8.8536740">
        <ele>26.6</ele>
        <time>2019-07-12T06:39:28Z</time>
      </trkpt>
      <trkpt lat="39.0905440" lon="-8.8537620">
        <ele>27.4</ele>
        <time>2019-07-12T06:39:31Z</time>
      </trkpt>
      <trkpt lat="39.0905040" lon="-8.8537930">
        <ele>27.6</ele>
        <time>2019-07-12T06:39:32Z</time>
      </trkpt>
      <trkpt lat="39.0903490" lon="-8.8539150">
        <ele>28.8</ele>
        <time>2019-07-12T06:39:36Z</time>
      </trkpt>
      <trkpt lat="39.0902330" lon="-8.8539960">
        <ele>29.6</ele>
        <time>2019-07-12T06:39:39Z</time>
      </trkpt>
      <trkpt lat="39.0901950" lon="-8.8540210">
        <ele>29.8</ele>
        <time>2019-07-12T06:39:40Z</time>
      </trkpt>
      <trkpt lat="39.0900820" lon="-8.8541000">
        <ele>30.8</ele>
        <time>2019-07-12T06:39:43Z</time>
      </trkpt>
      <trkpt lat="39.0899610" lon="-8.8541890">
        <ele>31.8</ele>
        <time>2019-07-12T06:39:46Z</time>
      </trkpt>
      <trkpt lat="39.0899190" lon="-8.8542170">
        <ele>32.0</ele>
        <time>2019-07-12T06:39:47Z</time>
      </trkpt>
      <trkpt lat="39.0897590" lon="-8.8543250">
        <ele>33.2</ele>
        <time>2019-07-12T06:39:51Z</time>
      </trkpt>
      <trkpt lat="39.0896400" lon="-8.8544030">
        <ele>34.2</ele>
        <time>2019-07-12T06:39:54Z</time>
      </trkpt>
      <trkpt lat="39.0896000" lon="-8.8544310">
        <ele>34.4</ele>
        <time>2019-07-12T06:39:55Z</time>
      </trkpt>
      <trkpt lat="39.0894350" lon="-8.8545450">
        <ele>35.4</ele>
        <time>2019-07-12T06:39:59Z</time>
      </trkpt>
      <trkpt lat="39.0893150" lon="-8.8546370">
        <ele>36.0</ele>
        <time>2019-07-12T06:40:02Z</time>
      </trkpt>
      <trkpt lat="39.0892440" lon="-8.8546980">
        <ele>36.4</ele>
        <time>2019-07-12T06:40:04Z</time>
      </trkpt>
      <trkpt lat="39.0890630" lon="-8.8548240">
        <ele>37.6</ele>
        <time>2019-07-12T06:40:09Z</time>
      </trkpt>
      <trkpt lat="39.0889900" lon="-8.8548790">
        <ele>37.8</ele>
        <time>2019-07-12T06:40:11Z</time>
      </trkpt>
      <trkpt lat="39.0888100" lon="-8.8550130">
        <ele>38.6</ele>
        <time>2019-07-12T06:40:16Z</time>
      </trkpt>
      <trkpt lat="39.0886230" lon="-8.8551340">
        <ele>39.6</ele>
        <time>2019-07-12T06:40:21Z</time>
      </trkpt>
      <trkpt lat="39.0885460" lon="-8.8551810">
        <ele>39.6</ele>
        <time>2019-07-12T06:40:23Z</time>
      </trkpt>
      <trkpt lat="39.0883870" lon="-8.8552780">
        <ele>39.8</ele>
        <time>2019-07-12T06:40:27Z</time>
      </trkpt>
      <trkpt lat="39.0882150" lon="-8.8553750">
        <ele>40.0</ele>
        <time>2019-07-12T06:40:31Z</time>
      </trkpt>
      <trkpt lat="39.0880760" lon="-8.8554530">
        <ele>40.2</ele>
        <time>2019-07-12T06:40:34Z</time>
      </trkpt>
      <trkpt lat="39.0879270" lon="-8.8555280">
        <ele>40.4</ele>
        <time>2019-07-12T06:40:37Z</time>
      </trkpt>
      <trkpt lat="39.0877600" lon="-8.8555970">
        <ele>40.4</ele>
        <time>2019-07-12T06:40:40Z</time>
      </trkpt>
      <trkpt lat="39.0876430" lon="-8.8556370">
        <ele>40.4</ele>
        <time>2019-07-12T06:40:42Z</time>
      </trkpt>
      <trkpt lat="39.0875190" lon="-8.8556740">
        <ele>40.2</ele>
        <time>2019-07-12T06:40:44Z</time>
      </trkpt>
      <trkpt lat="39.0873870" lon="-8.8557090">
        <ele>40.0</ele>
        <time>2019-07-12T06:40:46Z</time>
      </trkpt>
      <trkpt lat="39.0872480" lon="-8.8557470">
        <ele>39.8</ele>
        <time>2019-07-12T06:40:48Z</time>
      </trkpt>
      <trkpt lat="39.0869480" lon="-8.8558370">
        <ele>39.2</ele>
        <time>2019-07-12T06:40:52Z</time>
      </trkpt>
      <trkpt lat="39.0867070" lon="-8.8559090">
        <ele>38.4</ele>
        <time>2019-07-12T06:40:55Z</time>
      </trkpt>
      <trkpt lat="39.0865410" lon="-8.8559610">
        <ele>37.8</ele>
        <time>2019-07-12T06:40:57Z</time>
      </trkpt>
      <trkpt lat="39.0864560" lon="-8.8559900">
        <ele>37.4</ele>
        <time>2019-07-12T06:40:58Z</time>
      </trkpt>
      <trkpt lat="39.0861900" lon="-8.8560750">
        <ele>36.4</ele>
        <time>2019-07-12T06:41:01Z</time>
      </trkpt>
      <trkpt lat="39.0860040" lon="-8.8561350">
        <ele>35.6</ele>
        <time>2019-07-12T06:41:03Z</time>
      </trkpt>
      <trkpt lat="39.0859090" lon="-8.8561650">
        <ele>35.0</ele>
        <time>2019-07-12T06:41:04Z</time>
      </trkpt>
      <trkpt lat="39.0856180" lon="-8.8562500">
        <ele>33.8</ele>
        <time>2019-07-12T06:41:07Z</time>
      </trkpt>
      <trkpt lat="39.0853220" lon="-8.8563420">
        <ele>32.6</ele>
        <time>2019-07-12T06:41:10Z</time>
      </trkpt>
      <trkpt lat="39.0851220" lon="-8.8564060">
        <ele>31.6</ele>
        <time>2019-07-12T06:41:12Z</time>
      </trkpt>
      <trkpt lat="39.0850210" lon="-8.8564370">
        <ele>31.0</ele>
        <time>2019-07-12T06:41:13Z</time>
      </trkpt>
      <trkpt lat="39.0847170" lon="-8.8565340">
        <ele>29.6</ele>
        <time>2019-07-12T06:41:16Z</time>
      </trkpt>
      <trkpt lat="39.0845120" lon="-8.8566020">
        <ele>28.4</ele>
        <time>2019-07-12T06:41:18Z</time>
      </trkpt>
      <trkpt lat="39.0843070" lon="-8.8566690">
        <ele>27.4</ele>
        <time>2019-07-12T06:41:20Z</time>
      </trkpt>
      <trkpt lat="39.0841000" lon="-8.8567350">
        <ele>26.2</ele>
        <time>2019-07-12T06:41:22Z</time>
      </trkpt>
      <trkpt lat="39.0838970" lon="-8.8568000">
        <ele>25.2</ele>
        <time>2019-07-12T06:41:24Z</time>
      </trkpt>
      <trkpt lat="39.0835980" lon="-8.8568870">
        <ele>24.2</ele>
        <time>2019-07-12T06:41:27Z</time>
      </trkpt>
      <trkpt lat="39.0832260" lon="-8.8570100">
        <ele>23.2</ele>
        <time>2019-07-12T06:41:31Z</time>
      </trkpt>
      <trkpt lat="39.0827300" lon="-8.8571910">
        <ele>22.4</ele>
        <time>2019-07-12T06:41:37Z</time>
      </trkpt>
      <trkpt lat="39.0823760" lon="-8.8573200">
        <ele>23.0</ele>
        <time>2019-07-12T06:41:42Z</time>
      </trkpt>
      <trkpt lat="39.0823100" lon="-8.8573400">
        <ele>23.2</ele>
        <time>2019-07-12T06:41:43Z</time>
      </trkpt>
      <trkpt lat="39.0820660" lon="-8.8574370">
        <ele>23.6</ele>
        <time>2019-07-12T06:41:47Z</time>
      </trkpt>
      <trkpt lat="39.0819500" lon="-8.8574900">
        <ele>24.2</ele>
        <time>2019-07-12T06:41:49Z</time>
      </trkpt>
      <trkpt lat="39.0818390" lon="-8.8575410">
        <ele>24.6</ele>
        <time>2019-07-12T06:41:51Z</time>
      </trkpt>
      <trkpt lat="39.0816730" lon="-8.8576000">
        <ele>25.0</ele>
        <time>2019-07-12T06:41:54Z</time>
      </trkpt>
      <trkpt lat="39.0815630" lon="-8.8576390">
        <ele>25.2</ele>
        <time>2019-07-12T06:41:56Z</time>
      </trkpt>
      <trkpt lat="39.0814510" lon="-8.8576840">
        <ele>25.4</ele>
        <time>2019-07-12T06:41:58Z</time>
      </trkpt>
      <trkpt lat="39.0813370" lon="-8.8577310">
        <ele>25.6</ele>
        <time>2019-07-12T06:42:00Z</time>
      </trkpt>
      <trkpt lat="39.0811650" lon="-8.8577960">
        <ele>25.6</ele>
        <time>2019-07-12T06:42:03Z</time>
      </trkpt>
      <trkpt lat="39.0810480" lon="-8.8578360">
        <ele>25.8</ele>
        <time>2019-07-12T06:42:05Z</time>
      </trkpt>
      <trkpt lat="39.0808740" lon="-8.8578990">
        <ele>26.2</ele>
        <time>2019-07-12T06:42:08Z</time>
      </trkpt>
      <trkpt lat="39.0807580" lon="-8.8579430">
        <ele>26.4</ele>
        <time>2019-07-12T06:42:10Z</time>
      </trkpt>
      <trkpt lat="39.0803360" lon="-8.8581160">
        <ele>26.4</ele>
        <time>2019-07-12T06:42:17Z</time>
      </trkpt>
      <trkpt lat="39.0798160" lon="-8.8583290">
        <ele>26.6</ele>
        <time>2019-07-12T06:42:25Z</time>
      </trkpt>
      <trkpt lat="39.0796860" lon="-8.8583890">
        <ele>26.4</ele>
        <time>2019-07-12T06:42:27Z</time>
      </trkpt>
      <trkpt lat="39.0793690" lon="-8.8585590">
        <ele>26.4</ele>
        <time>2019-07-12T06:42:32Z</time>
      </trkpt>
      <trkpt lat="39.0790580" lon="-8.8587520">
        <ele>26.8</ele>
        <time>2019-07-12T06:42:37Z</time>
      </trkpt>
      <trkpt lat="39.0785660" lon="-8.8590870">
        <ele>26.8</ele>
        <time>2019-07-12T06:42:45Z</time>
      </trkpt>
      <trkpt lat="39.0784470" lon="-8.8591840">
        <ele>26.6</ele>
        <time>2019-07-12T06:42:47Z</time>
      </trkpt>
      <trkpt lat="39.0779830" lon="-8.8595860">
        <ele>26.4</ele>
        <time>2019-07-12T06:42:55Z</time>
      </trkpt>
      <trkpt lat="39.0776290" lon="-8.8598890">
        <ele>26.4</ele>
        <time>2019-07-12T06:43:01Z</time>
      </trkpt>
      <trkpt lat="39.0773280" lon="-8.8601270">
        <ele>26.2</ele>
        <time>2019-07-12T06:43:06Z</time>
      </trkpt>
      <trkpt lat="39.0768300" lon="-8.8604960">
        <ele>25.8</ele>
        <time>2019-07-12T06:43:14Z</time>
      </trkpt>
      <trkpt lat="39.0767030" lon="-8.8605860">
        <ele>25.6</ele>
        <time>2019-07-12T06:43:16Z</time>
      </trkpt>
      <trkpt lat="39.0765110" lon="-8.8607070">
        <ele>25.4</ele>
        <time>2019-07-12T06:43:19Z</time>
      </trkpt>
      <trkpt lat="39.0763830" lon="-8.8607840">
        <ele>25.2</ele>
        <time>2019-07-12T06:43:21Z</time>
      </trkpt>
      <trkpt lat="39.0761200" lon="-8.8609360">
        <ele>24.8</ele>
        <time>2019-07-12T06:43:25Z</time>
      </trkpt>
      <trkpt lat="39.0757790" lon="-8.8611150">
        <ele>24.2</ele>
        <time>2019-07-12T06:43:30Z</time>
      </trkpt>
      <trkpt lat="39.0754300" lon="-8.8612720">
        <ele>23.6</ele>
        <time>2019-07-12T06:43:35Z</time>
      </trkpt>
      <trkpt lat="39.0752160" lon="-8.8613430">
        <ele>23.0</ele>
        <time>2019-07-12T06:43:38Z</time>
      </trkpt>
      <trkpt lat="39.0748510" lon="-8.8614450">
        <ele>22.8</ele>
        <time>2019-07-12T06:43:43Z</time>
      </trkpt>
      <trkpt lat="39.0746320" lon="-8.8615100">
        <ele>22.2</ele>
        <time>2019-07-12T06:43:46Z</time>
      </trkpt>
      <trkpt lat="39.0745600" lon="-8.8615320">
        <ele>22.0</ele>
        <time>2019-07-12T06:43:47Z</time>
      </trkpt>
      <trkpt lat="39.0744140" lon="-8.8615750">
        <ele>21.8</ele>
        <time>2019-07-12T06:43:49Z</time>
      </trkpt>
      <trkpt lat="39.0742690" lon="-8.8616130">
        <ele>21.6</ele>
        <time>2019-07-12T06:43:51Z</time>
      </trkpt>
      <trkpt lat="39.0741970" lon="-8.8616330">
        <ele>21.4</ele>
        <time>2019-07-12T06:43:52Z</time>
      </trkpt>
      <trkpt lat="39.0741260" lon="-8.8616600">
        <ele>21.4</ele>
        <time>2019-07-12T06:43:53Z</time>
      </trkpt>
      <trkpt lat="39.0739420" lon="-8.8618050">
        <ele>21.2</ele>
        <time>2019-07-12T06:43:56Z</time>
      </trkpt>
      <trkpt lat="39.0738830" lon="-8.8618520">
        <ele>21.2</ele>
        <time>2019-07-12T06:43:57Z</time>
      </trkpt>
      <trkpt lat="39.0737510" lon="-8.8618920">
        <ele>21.0</ele>
        <time>2019-07-12T06:43:59Z</time>
      </trkpt>
      <trkpt lat="39.0736820" lon="-8.8618860">
        <ele>20.8</ele>
        <time>2019-07-12T06:44:00Z</time>
      </trkpt>
      <trkpt lat="39.0736120" lon="-8.8618760">
        <ele>20.6</ele>
        <time>2019-07-12T06:44:01Z</time>
      </trkpt>
      <trkpt lat="39.0734700" lon="-8.8618780">
        <ele>20.4</ele>
        <time>2019-07-12T06:44:03Z</time>
      </trkpt>
      <trkpt lat="39.0733290" lon="-8.8619080">
        <ele>20.2</ele>
        <time>2019-07-12T06:44:05Z</time>
      </trkpt>
      <trkpt lat="39.0731200" lon="-8.8619640">
        <ele>20.0</ele>
        <time>2019-07-12T06:44:08Z</time>
      </trkpt>
      <trkpt lat="39.0729110" lon="-8.8620390">
        <ele>19.8</ele>
        <time>2019-07-12T06:44:11Z</time>
      </trkpt>
      <trkpt lat="39.0726360" lon="-8.8621690">
        <ele>19.2</ele>
        <time>2019-07-12T06:44:15Z</time>
      </trkpt>
      <trkpt lat="39.0725030" lon="-8.8622470">
        <ele>19.0</ele>
        <time>2019-07-12T06:44:17Z</time>
      </trkpt>
      <trkpt lat="39.0723730" lon="-8.8623290">
        <ele>18.8</ele>
        <time>2019-07-12T06:44:19Z</time>
      </trkpt>
      <trkpt lat="39.0723080" lon="-8.8623710">
        <ele>18.8</ele>
        <time>2019-07-12T06:44:20Z</time>
      </trkpt>
      <trkpt lat="39.0719480" lon="-8.8626740">
        <ele>18.2</ele>
        <time>2019-07-12T06:44:26Z</time>
      </trkpt>
      <trkpt lat="39.0715090" lon="-8.8631080">
        <ele>17.8</ele>
        <time>2019-07-12T06:44:34Z</time>
      </trkpt>
      <trkpt lat="39.0714560" lon="-8.8631620">
        <ele>17.6</ele>
        <time>2019-07-12T06:44:35Z</time>
      </trkpt>
      <trkpt lat="39.0709890" lon="-8.8636320">
        <ele>17.6</ele>
        <time>2019-07-12T06:44:44Z</time>
      </trkpt>
      <trkpt lat="39.0709390" lon="-8.8636810">
        <ele>17.4</ele>
        <time>2019-07-12T06:44:45Z</time>
      </trkpt>
      <trkpt lat="39.0705650" lon="-8.8640530">
        <ele>17.2</ele>
        <time>2019-07-12T06:44:53Z</time>
      </trkpt>
      <trkpt lat="39.0704210" lon="-8.8641990">
        <ele>17.4</ele>
        <time>2019-07-12T06:44:56Z</time>
      </trkpt>
      <trkpt lat="39.0702720" lon="-8.8643480">
        <ele>17.6</ele>
        <time>2019-07-12T06:44:59Z</time>
      </trkpt>
      <trkpt lat="39.0699090" lon="-8.8647050">
        <ele>17.4</ele>
        <time>2019-07-12T06:45:06Z</time>
      </trkpt>
      <trkpt lat="39.0695000" lon="-8.8652070">
        <ele>17.2</ele>
        <time>2019-07-12T06:45:15Z</time>
      </trkpt>
      <trkpt lat="39.0692240" lon="-8.8656870">
        <ele>17.0</ele>
        <time>2019-07-12T06:45:23Z</time>
      </trkpt>
      <trkpt lat="39.0690410" lon="-8.8660450">
        <ele>17.0</ele>
        <time>2019-07-12T06:45:29Z</time>
      </trkpt>
      <trkpt lat="39.0689910" lon="-8.8661630">
        <ele>17.2</ele>
        <time>2019-07-12T06:45:31Z</time>
      </trkpt>
      <trkpt lat="39.0689160" lon="-8.8663360">
        <ele>17.2</ele>
        <time>2019-07-12T06:45:34Z</time>
      </trkpt>
      <trkpt lat="39.0687950" lon="-8.8666080">
        <ele>16.8</ele>
        <time>2019-07-12T06:45:39Z</time>
      </trkpt>
      <trkpt lat="39.0686060" lon="-8.8670250">
        <ele>17.0</ele>
        <time>2019-07-12T06:45:46Z</time>
      </trkpt>
      <trkpt lat="39.0683470" lon="-8.8676020">
        <ele>17.0</ele>
        <time>2019-07-12T06:45:55Z</time>
      </trkpt>
      <trkpt lat="39.0681030" lon="-8.8681500">
        <ele>17.2</ele>
        <time>2019-07-12T06:46:03Z</time>
      </trkpt>
      <trkpt lat="39.0680710" lon="-8.8682200">
        <ele>17.0</ele>
        <time>2019-07-12T06:46:04Z</time>
      </trkpt>
      <trkpt lat="39.0678480" lon="-8.8687100">
        <ele>17.2</ele>
        <time>2019-07-12T06:46:11Z</time>
      </trkpt>
      <trkpt lat="39.0677260" lon="-8.8689870">
        <ele>17.2</ele>
        <time>2019-07-12T06:46:15Z</time>
      </trkpt>
      <trkpt lat="39.0674680" lon="-8.8695470">
        <ele>17.0</ele>
        <time>2019-07-12T06:46:23Z</time>
      </trkpt>
      <trkpt lat="39.0673050" lon="-8.8698890">
        <ele>16.8</ele>
        <time>2019-07-12T06:46:28Z</time>
      </trkpt>
      <trkpt lat="39.0672120" lon="-8.8700950">
        <ele>16.8</ele>
        <time>2019-07-12T06:46:31Z</time>
      </trkpt>
      <trkpt lat="39.0669890" lon="-8.8706560">
        <ele>17.0</ele>
        <time>2019-07-12T06:46:39Z</time>
      </trkpt>
      <trkpt lat="39.0668030" lon="-8.8713070">
        <ele>17.0</ele>
        <time>2019-07-12T06:46:48Z</time>
      </trkpt>
      <trkpt lat="39.0667860" lon="-8.8713810">
        <ele>17.0</ele>
        <time>2019-07-12T06:46:49Z</time>
      </trkpt>
      <trkpt lat="39.0666460" lon="-8.8720600">
        <ele>16.8</ele>
        <time>2019-07-12T06:46:58Z</time>
      </trkpt>
      <trkpt lat="39.0666340" lon="-8.8721350">
        <ele>17.0</ele>
        <time>2019-07-12T06:46:59Z</time>
      </trkpt>
      <trkpt lat="39.0665050" lon="-8.8728850">
        <ele>17.2</ele>
        <time>2019-07-12T06:47:09Z</time>
      </trkpt>
      <trkpt lat="39.0664000" lon="-8.8735390">
        <ele>16.6</ele>
        <time>2019-07-12T06:47:18Z</time>
      </trkpt>
      <trkpt lat="39.0662900" lon="-8.8742200">
        <ele>16.8</ele>
        <time>2019-07-12T06:47:27Z</time>
      </trkpt>
      <trkpt lat="39.0662770" lon="-8.8742950">
        <ele>16.6</ele>
        <time>2019-07-12T06:47:28Z</time>
      </trkpt>
      <trkpt lat="39.0662540" lon="-8.8744390">
        <ele>16.4</ele>
        <time>2019-07-12T06:47:30Z</time>
      </trkpt>
      <trkpt lat="39.0662250" lon="-8.8746940">
        <ele>16.6</ele>
        <time>2019-07-12T06:47:34Z</time>
      </trkpt>
      <trkpt lat="39.0661960" lon="-8.8748670">
        <ele>16.6</ele>
        <time>2019-07-12T06:47:39Z</time>
      </trkpt>
      <trkpt lat="39.0661730" lon="-8.8750280">
        <ele>16.4</ele>
        <time>2019-07-12T06:47:44Z</time>
      </trkpt>
      <trkpt lat="39.0662000" lon="-8.8752140">
        <ele>16.4</ele>
        <time>2019-07-12T06:47:48Z</time>
      </trkpt>
      <trkpt lat="39.0661940" lon="-8.8753310">
        <ele>16.4</ele>
        <time>2019-07-12T06:47:50Z</time>
      </trkpt>
      <trkpt lat="39.0661580" lon="-8.8754390">
        <ele>16.4</ele>
        <time>2019-07-12T06:47:52Z</time>
      </trkpt>
      <trkpt lat="39.0660380" lon="-8.8754950">
        <ele>16.6</ele>
        <time>2019-07-12T06:47:55Z</time>
      </trkpt>
      <trkpt lat="39.0659210" lon="-8.8753910">
        <ele>17.0</ele>
        <time>2019-07-12T06:47:58Z</time>
      </trkpt>
      <trkpt lat="39.0658440" lon="-8.8752300">
        <ele>17.2</ele>
        <time>2019-07-12T06:48:01Z</time>
      </trkpt>
      <trkpt lat="39.0658190" lon="-8.8751800">
        <ele>17.2</ele>
        <time>2019-07-12T06:48:02Z</time>
      </trkpt>
      <trkpt lat="39.0657910" lon="-8.8751410">
        <ele>17.2</ele>
        <time>2019-07-12T06:48:03Z</time>
      </trkpt>
      <trkpt lat="39.0657040" lon="-8.8750990">
        <ele>17.6</ele>
        <time>2019-07-12T06:48:06Z</time>
      </trkpt>
      <trkpt lat="39.0656810" lon="-8.8750940">
        <ele>17.8</ele>
        <time>2019-07-12T06:48:09Z</time>
      </trkpt>
      <trkpt lat="39.0657160" lon="-8.8750570">
        <ele>18.2</ele>
        <time>2019-07-12T06:48:20Z</time>
      </trkpt>
      <trkpt lat="39.0658070" lon="-8.8750980">
        <ele>18.0</ele>
        <time>2019-07-12T06:48:23Z</time>
      </trkpt>
      <trkpt lat="39.0658470" lon="-8.8751220">
        <ele>17.8</ele>
        <time>2019-07-12T06:48:24Z</time>
      </trkpt>
      <trkpt lat="39.0660400" lon="-8.8751420">
        <ele>17.2</ele>
        <time>2019-07-12T06:48:28Z</time>
      </trkpt>
      <trkpt lat="39.0660920" lon="-8.8751520">
        <ele>17.0</ele>
        <time>2019-07-12T06:48:29Z</time>
      </trkpt>
      <trkpt lat="39.0661740" lon="-8.8752320">
        <ele>16.8</ele>
        <time>2019-07-12T06:48:31Z</time>
      </trkpt>
      <trkpt lat="39.0661760" lon="-8.8754230">
        <ele>16.8</ele>
        <time>2019-07-12T06:48:34Z</time>
      </trkpt>
      <trkpt lat="39.0660420" lon="-8.8755970">
        <ele>17.0</ele>
        <time>2019-07-12T06:48:38Z</time>
      </trkpt>
      <trkpt lat="39.0659960" lon="-8.8756860">
        <ele>17.2</ele>
        <time>2019-07-12T06:48:40Z</time>
      </trkpt>
      <trkpt lat="39.0659550" lon="-8.8757530">
        <ele>17.2</ele>
        <time>2019-07-12T06:48:42Z</time>
      </trkpt>
      <trkpt lat="39.0659310" lon="-8.8757690">
        <ele>17.2</ele>
        <time>2019-07-12T06:48:43Z</time>
      </trkpt>
      <trkpt lat="39.0658500" lon="-8.8757750">
        <ele>17.2</ele>
        <time>2019-07-12T06:48:46Z</time>
      </trkpt>
      <trkpt lat="39.0657220" lon="-8.8757100">
        <ele>16.8</ele>
        <time>2019-07-12T06:48:52Z</time>
      </trkpt>
      <trkpt lat="39.0656850" lon="-8.8757040">
        <ele>16.4</ele>
        <time>2019-07-12T06:48:54Z</time>
      </trkpt>
      <trkpt lat="39.0656620" lon="-8.8757120">
        <ele>16.2</ele>
        <time>2019-07-12T06:48:56Z</time>
      </trkpt>
      <trkpt lat="39.0656590" lon="-8.8757100">
        <ele>16.2</ele>
        <time>2019-07-12T06:48:58Z</time>
      </trkpt>
      <trkpt lat="39.0656860" lon="-8.8756920">
        <ele>16.2</ele>
        <time>2019-07-12T06:51:17Z</time>
      </trkpt>
      <trkpt lat="39.0657000" lon="-8.8757040">
        <ele>16.2</ele>
        <time>2019-07-12T06:51:18Z</time>
      </trkpt>
      <trkpt lat="39.0657460" lon="-8.8757280">
        <ele>16.4</ele>
        <time>2019-07-12T06:51:21Z</time>
      </trkpt>
      <trkpt lat="39.0657900" lon="-8.8757380">
        <ele>16.8</ele>
        <time>2019-07-12T06:51:24Z</time>
      </trkpt>
      <trkpt lat="39.0658020" lon="-8.8757360">
        <ele>17.0</ele>
        <time>2019-07-12T06:51:25Z</time>
      </trkpt>
      <trkpt lat="39.0658200" lon="-8.8757440">
        <ele>17.2</ele>
        <time>2019-07-12T06:51:27Z</time>
      </trkpt>
      <trkpt lat="39.0658230" lon="-8.8757590">
        <ele>17.2</ele>
        <time>2019-07-12T06:51:30Z</time>
      </trkpt>
      <trkpt lat="39.0658570" lon="-8.8757700">
        <ele>16.8</ele>
        <time>2019-07-12T06:51:47Z</time>
      </trkpt>
      <trkpt lat="39.0658970" lon="-8.8757760">
        <ele>17.0</ele>
        <time>2019-07-12T06:51:49Z</time>
      </trkpt>
      <trkpt lat="39.0659290" lon="-8.8757910">
        <ele>17.0</ele>
        <time>2019-07-12T06:51:51Z</time>
      </trkpt>
      <trkpt lat="39.0659470" lon="-8.8758510">
        <ele>17.0</ele>
        <time>2019-07-12T06:51:53Z</time>
      </trkpt>
      <trkpt lat="39.0659290" lon="-8.8761000">
        <ele>17.2</ele>
        <time>2019-07-12T06:51:58Z</time>
      </trkpt>
      <trkpt lat="39.0658670" lon="-8.8763090">
        <ele>17.4</ele>
        <time>2019-07-12T06:52:02Z</time>
      </trkpt>
      <trkpt lat="39.0657980" lon="-8.8765220">
        <ele>17.6</ele>
        <time>2019-07-12T06:52:06Z</time>
      </trkpt>
      <trkpt lat="39.0656010" lon="-8.8770460">
        <ele>17.6</ele>
        <time>2019-07-12T06:52:16Z</time>
      </trkpt>
      <trkpt lat="39.0653660" lon="-8.8775100">
        <ele>17.2</ele>
        <time>2019-07-12T06:52:25Z</time>
      </trkpt>
      <trkpt lat="39.0653140" lon="-8.8776090">
        <ele>17.2</ele>
        <time>2019-07-12T06:52:27Z</time>
      </trkpt>
      <trkpt lat="39.0651740" lon="-8.8778450">
        <ele>17.2</ele>
        <time>2019-07-12T06:52:32Z</time>
      </trkpt>
      <trkpt lat="39.0650040" lon="-8.8781410">
        <ele>17.2</ele>
        <time>2019-07-12T06:52:38Z</time>
      </trkpt>
      <trkpt lat="39.0649220" lon="-8.8782810">
        <ele>17.0</ele>
        <time>2019-07-12T06:52:41Z</time>
      </trkpt>
      <trkpt lat="39.0648690" lon="-8.8783670">
        <ele>17.0</ele>
        <time>2019-07-12T06:52:43Z</time>
      </trkpt>
      <trkpt lat="39.0647320" lon="-8.8786310">
        <ele>17.0</ele>
        <time>2019-07-12T06:52:49Z</time>
      </trkpt>
      <trkpt lat="39.0646960" lon="-8.8787170">
        <ele>16.8</ele>
        <time>2019-07-12T06:52:52Z</time>
      </trkpt>
      <trkpt lat="39.0646840" lon="-8.8787450">
        <ele>16.6</ele>
        <time>2019-07-12T06:52:53Z</time>
      </trkpt>
      <trkpt lat="39.0646540" lon="-8.8787920">
        <ele>16.6</ele>
        <time>2019-07-12T06:52:55Z</time>
      </trkpt>
      <trkpt lat="39.0646100" lon="-8.8788520">
        <ele>16.6</ele>
        <time>2019-07-12T06:52:58Z</time>
      </trkpt>
      <trkpt lat="39.0645430" lon="-8.8789270">
        <ele>16.4</ele>
        <time>2019-07-12T06:53:03Z</time>
      </trkpt>
      <trkpt lat="39.0644670" lon="-8.8789110">
        <ele>16.4</ele>
        <time>2019-07-12T06:53:07Z</time>
      </trkpt>
      <trkpt lat="39.0644070" lon="-8.8789940">
        <ele>16.4</ele>
        <time>2019-07-12T06:53:10Z</time>
      </trkpt>
      <trkpt lat="39.0643860" lon="-8.8790270">
        <ele>16.4</ele>
        <time>2019-07-12T06:53:11Z</time>
      </trkpt>
      <trkpt lat="39.0643590" lon="-8.8790530">
        <ele>16.4</ele>
        <time>2019-07-12T06:53:12Z</time>
      </trkpt>
      <trkpt lat="39.0643010" lon="-8.8790500">
        <ele>16.4</ele>
        <time>2019-07-12T06:53:14Z</time>
      </trkpt>
      <trkpt lat="39.0642990" lon="-8.8789520">
        <ele>16.6</ele>
        <time>2019-07-12T06:53:17Z</time>
      </trkpt>
      <trkpt lat="39.0643120" lon="-8.8789160">
        <ele>16.6</ele>
        <time>2019-07-12T06:53:18Z</time>
      </trkpt>
      <trkpt lat="39.0643800" lon="-8.8787600">
        <ele>16.6</ele>
        <time>2019-07-12T06:53:22Z</time>
      </trkpt>
      <trkpt lat="39.0644210" lon="-8.8786830">
        <ele>16.4</ele>
        <time>2019-07-12T06:53:24Z</time>
      </trkpt>
      <trkpt lat="39.0646150" lon="-8.8784280">
        <ele>16.4</ele>
        <time>2019-07-12T06:53:31Z</time>
      </trkpt>
      <trkpt lat="39.0647130" lon="-8.8783150">
        <ele>16.2</ele>
        <time>2019-07-12T06:53:34Z</time>
      </trkpt>
      <trkpt lat="39.0648210" lon="-8.8781400">
        <ele>16.4</ele>
        <time>2019-07-12T06:53:38Z</time>
      </trkpt>
      <trkpt lat="39.0651080" lon="-8.8777460">
        <ele>16.4</ele>
        <time>2019-07-12T06:53:48Z</time>
      </trkpt>
      <trkpt lat="39.0651810" lon="-8.8776440">
        <ele>16.4</ele>
        <time>2019-07-12T06:53:51Z</time>
      </trkpt>
      <trkpt lat="39.0651800" lon="-8.8775850">
        <ele>16.2</ele>
        <time>2019-07-12T06:53:53Z</time>
      </trkpt>
      <trkpt lat="39.0651600" lon="-8.8775270">
        <ele>16.0</ele>
        <time>2019-07-12T06:53:58Z</time>
      </trkpt>
      <trkpt lat="39.0651530" lon="-8.8775170">
        <ele>16.0</ele>
        <time>2019-07-12T06:54:01Z</time>
      </trkpt>
      <trkpt lat="39.0651130" lon="-8.8775120">
        <ele>16.2</ele>
        <time>2019-07-12T06:54:07Z</time>
      </trkpt>
      <trkpt lat="39.0650350" lon="-8.8775000">
        <ele>16.2</ele>
        <time>2019-07-12T06:54:11Z</time>
      </trkpt>
      <trkpt lat="39.0650030" lon="-8.8774560">
        <ele>16.2</ele>
        <time>2019-07-12T06:54:13Z</time>
      </trkpt>
      <trkpt lat="39.0649760" lon="-8.8773890">
        <ele>16.2</ele>
        <time>2019-07-12T06:54:15Z</time>
      </trkpt>
      <trkpt lat="39.0649270" lon="-8.8772830">
        <ele>16.2</ele>
        <time>2019-07-12T06:54:18Z</time>
      </trkpt>
      <trkpt lat="39.0647770" lon="-8.8769500">
        <ele>16.0</ele>
        <time>2019-07-12T06:54:26Z</time>
      </trkpt>
      <trkpt lat="39.0645960" lon="-8.8765250">
        <ele>16.2</ele>
        <time>2019-07-12T06:54:35Z</time>
      </trkpt>
      <trkpt lat="39.0644860" lon="-8.8762860">
        <ele>16.0</ele>
        <time>2019-07-12T06:54:40Z</time>
      </trkpt>
      <trkpt lat="39.0644410" lon="-8.8761960">
        <ele>16.0</ele>
        <time>2019-07-12T06:54:42Z</time>
      </trkpt>
      <trkpt lat="39.0643770" lon="-8.8760670">
        <ele>15.8</ele>
        <time>2019-07-12T06:54:45Z</time>
      </trkpt>
      <trkpt lat="39.0643030" lon="-8.8759020">
        <ele>15.6</ele>
        <time>2019-07-12T06:54:49Z</time>
      </trkpt>
      <trkpt lat="39.0642350" lon="-8.8757020">
        <ele>14.6</ele>
        <time>2019-07-12T06:54:54Z</time>
      </trkpt>
      <trkpt lat="39.0642710" lon="-8.8756040">
        <ele>14.6</ele>
        <time>2019-07-12T06:54:58Z</time>
      </trkpt>
      <trkpt lat="39.0642740" lon="-8.8755130">
        <ele>14.8</ele>
        <time>2019-07-12T06:55:02Z</time>
      </trkpt>
      <trkpt lat="39.0642180" lon="-8.8754570">
        <ele>14.8</ele>
        <time>2019-07-12T06:55:06Z</time>
      </trkpt>
      <trkpt lat="39.0642010" lon="-8.8754430">
        <ele>14.8</ele>
        <time>2019-07-12T06:55:07Z</time>
      </trkpt>
      <trkpt lat="39.0641630" lon="-8.8754060">
        <ele>14.8</ele>
        <time>2019-07-12T06:55:09Z</time>
      </trkpt>
      <trkpt lat="39.0641450" lon="-8.8753820">
        <ele>15.0</ele>
        <time>2019-07-12T06:55:10Z</time>
      </trkpt>
      <trkpt lat="39.0640930" lon="-8.8753430">
        <ele>15.0</ele>
        <time>2019-07-12T06:55:12Z</time>
      </trkpt>
      <trkpt lat="39.0640570" lon="-8.8753310">
        <ele>15.0</ele>
        <time>2019-07-12T06:55:14Z</time>
      </trkpt>
      <trkpt lat="39.0640400" lon="-8.8753430">
        <ele>15.0</ele>
        <time>2019-07-12T06:55:15Z</time>
      </trkpt>
      <trkpt lat="39.0639120" lon="-8.8754130">
        <ele>14.4</ele>
        <time>2019-07-12T06:55:19Z</time>
      </trkpt>
      <trkpt lat="39.0638340" lon="-8.8755300">
        <ele>14.4</ele>
        <time>2019-07-12T06:55:22Z</time>
      </trkpt>
      <trkpt lat="39.0638090" lon="-8.8755750">
        <ele>14.4</ele>
        <time>2019-07-12T06:55:23Z</time>
      </trkpt>
      <trkpt lat="39.0637830" lon="-8.8756220">
        <ele>14.6</ele>
        <time>2019-07-12T06:55:24Z</time>
      </trkpt>
      <trkpt lat="39.0636660" lon="-8.8758450">
        <ele>14.6</ele>
        <time>2019-07-12T06:55:29Z</time>
      </trkpt>
      <trkpt lat="39.0636610" lon="-8.8758580">
        <ele>14.6</ele>
        <time>2019-07-12T06:55:32Z</time>
      </trkpt>
      <trkpt lat="39.0636880" lon="-8.8757980">
        <ele>14.8</ele>
        <time>2019-07-12T06:55:58Z</time>
      </trkpt>
      <trkpt lat="39.0637130" lon="-8.8757460">
        <ele>14.8</ele>
        <time>2019-07-12T06:56:00Z</time>
      </trkpt>
      <trkpt lat="39.0637830" lon="-8.8756090">
        <ele>14.8</ele>
        <time>2019-07-12T06:56:04Z</time>
      </trkpt>
      <trkpt lat="39.0638470" lon="-8.8754960">
        <ele>14.8</ele>
        <time>2019-07-12T06:56:07Z</time>
      </trkpt>
      <trkpt lat="39.0639240" lon="-8.8753870">
        <ele>15.0</ele>
        <time>2019-07-12T06:56:10Z</time>
      </trkpt>
      <trkpt lat="39.0640120" lon="-8.8753410">
        <ele>15.0</ele>
        <time>2019-07-12T06:56:13Z</time>
      </trkpt>
      <trkpt lat="39.0640510" lon="-8.8753170">
        <ele>15.0</ele>
        <time>2019-07-12T06:56:16Z</time>
      </trkpt>
      <trkpt lat="39.0640620" lon="-8.8753150">
        <ele>15.2</ele>
        <time>2019-07-12T06:56:17Z</time>
      </trkpt>
      <trkpt lat="39.0641060" lon="-8.8753340">
        <ele>15.4</ele>
        <time>2019-07-12T06:56:20Z</time>
      </trkpt>
      <trkpt lat="39.0641980" lon="-8.8755120">
        <ele>15.6</ele>
        <time>2019-07-12T06:56:27Z</time>
      </trkpt>
      <trkpt lat="39.0642170" lon="-8.8755620">
        <ele>15.8</ele>
        <time>2019-07-12T06:56:29Z</time>
      </trkpt>
      <trkpt lat="39.0642200" lon="-8.8756210">
        <ele>15.8</ele>
        <time>2019-07-12T06:56:31Z</time>
      </trkpt>
      <trkpt lat="39.0641950" lon="-8.8757450">
        <ele>15.8</ele>
        <time>2019-07-12T06:56:35Z</time>
      </trkpt>
      <trkpt lat="39.0642540" lon="-8.8758990">
        <ele>15.6</ele>
        <time>2019-07-12T06:56:40Z</time>
      </trkpt>
      <trkpt lat="39.0642900" lon="-8.8759680">
        <ele>16.4</ele>
        <time>2019-07-12T06:56:43Z</time>
      </trkpt>
      <trkpt lat="39.0643160" lon="-8.8760230">
        <ele>16.8</ele>
        <time>2019-07-12T06:56:45Z</time>
      </trkpt>
      <trkpt lat="39.0643330" lon="-8.8760570">
        <ele>16.8</ele>
        <time>2019-07-12T06:56:46Z</time>
      </trkpt>
      <trkpt lat="39.0643510" lon="-8.8760960">
        <ele>16.8</ele>
        <time>2019-07-12T06:56:47Z</time>
      </trkpt>
      <trkpt lat="39.0644470" lon="-8.8762950">
        <ele>17.2</ele>
        <time>2019-07-12T06:56:52Z</time>
      </trkpt>
      <trkpt lat="39.0646010" lon="-8.8766020">
        <ele>17.4</ele>
        <time>2019-07-12T06:57:00Z</time>
      </trkpt>
      <trkpt lat="39.0647460" lon="-8.8769240">
        <ele>17.8</ele>
        <time>2019-07-12T06:57:08Z</time>
      </trkpt>
      <trkpt lat="39.0648460" lon="-8.8771830">
        <ele>17.6</ele>
        <time>2019-07-12T06:57:14Z</time>
      </trkpt>
      <trkpt lat="39.0649430" lon="-8.8773840">
        <ele>17.8</ele>
        <time>2019-07-12T06:57:19Z</time>
      </trkpt>
      <trkpt lat="39.0649810" lon="-8.8774520">
        <ele>17.8</ele>
        <time>2019-07-12T06:57:21Z</time>
      </trkpt>
      <trkpt lat="39.0650170" lon="-8.8775070">
        <ele>18.0</ele>
        <time>2019-07-12T06:57:23Z</time>
      </trkpt>
      <trkpt lat="39.0650560" lon="-8.8775760">
        <ele>18.0</ele>
        <time>2019-07-12T06:57:26Z</time>
      </trkpt>
      <trkpt lat="39.0650680" lon="-8.8776980">
        <ele>17.6</ele>
        <time>2019-07-12T06:57:31Z</time>
      </trkpt>
      <trkpt lat="39.0650360" lon="-8.8778160">
        <ele>17.4</ele>
        <time>2019-07-12T06:57:35Z</time>
      </trkpt>
      <trkpt lat="39.0650260" lon="-8.8778550">
        <ele>17.4</ele>
        <time>2019-07-12T06:57:36Z</time>
      </trkpt>
      <trkpt lat="39.0648920" lon="-8.8781380">
        <ele>17.2</ele>
        <time>2019-07-12T06:57:43Z</time>
      </trkpt>
      <trkpt lat="39.0648470" lon="-8.8782630">
        <ele>17.4</ele>
        <time>2019-07-12T06:57:46Z</time>
      </trkpt>
      <trkpt lat="39.0648060" lon="-8.8783770">
        <ele>17.6</ele>
        <time>2019-07-12T06:57:49Z</time>
      </trkpt>
      <trkpt lat="39.0647770" lon="-8.8784640">
        <ele>17.6</ele>
        <time>2019-07-12T06:57:51Z</time>
      </trkpt>
      <trkpt lat="39.0647360" lon="-8.8785670">
        <ele>17.6</ele>
        <time>2019-07-12T06:57:53Z</time>
      </trkpt>
      <trkpt lat="39.0646820" lon="-8.8786680">
        <ele>17.6</ele>
        <time>2019-07-12T06:57:55Z</time>
      </trkpt>
      <trkpt lat="39.0645560" lon="-8.8788800">
        <ele>17.6</ele>
        <time>2019-07-12T06:57:59Z</time>
      </trkpt>
      <trkpt lat="39.0642570" lon="-8.8794030">
        <ele>17.6</ele>
        <time>2019-07-12T06:58:08Z</time>
      </trkpt>
      <trkpt lat="39.0639810" lon="-8.8798720">
        <ele>18.0</ele>
        <time>2019-07-12T06:58:16Z</time>
      </trkpt>
      <trkpt lat="39.0637010" lon="-8.8803500">
        <ele>18.0</ele>
        <time>2019-07-12T06:58:24Z</time>
      </trkpt>
      <trkpt lat="39.0633390" lon="-8.8809660">
        <ele>17.8</ele>
        <time>2019-07-12T06:58:34Z</time>
      </trkpt>
      <trkpt lat="39.0633030" lon="-8.8810290">
        <ele>17.8</ele>
        <time>2019-07-12T06:58:35Z</time>
      </trkpt>
      <trkpt lat="39.0629680" lon="-8.8815890">
        <ele>18.0</ele>
        <time>2019-07-12T06:58:44Z</time>
      </trkpt>
      <trkpt lat="39.0628940" lon="-8.8817180">
        <ele>18.2</ele>
        <time>2019-07-12T06:58:46Z</time>
      </trkpt>
      <trkpt lat="39.0625560" lon="-8.8822940">
        <ele>17.8</ele>
        <time>2019-07-12T06:58:55Z</time>
      </trkpt>
      <trkpt lat="39.0622100" lon="-8.8828830">
        <ele>17.8</ele>
        <time>2019-07-12T06:59:04Z</time>
      </trkpt>
      <trkpt lat="39.0621350" lon="-8.8830160">
        <ele>17.8</ele>
        <time>2019-07-12T06:59:06Z</time>
      </trkpt>
      <trkpt lat="39.0617910" lon="-8.8836060">
        <ele>17.6</ele>
        <time>2019-07-12T06:59:15Z</time>
      </trkpt>
      <trkpt lat="39.0617520" lon="-8.8836710">
        <ele>17.8</ele>
        <time>2019-07-12T06:59:16Z</time>
      </trkpt>
      <trkpt lat="39.0614130" lon="-8.8842640">
        <ele>17.4</ele>
        <time>2019-07-12T06:59:25Z</time>
      </trkpt>
      <trkpt lat="39.0612200" lon="-8.8846030">
        <ele>17.2</ele>
        <time>2019-07-12T06:59:30Z</time>
      </trkpt>
      <trkpt lat="39.0611440" lon="-8.8847420">
        <ele>17.4</ele>
        <time>2019-07-12T06:59:32Z</time>
      </trkpt>
      <trkpt lat="39.0608250" lon="-8.8852920">
        <ele>17.4</ele>
        <time>2019-07-12T06:59:40Z</time>
      </trkpt>
      <trkpt lat="39.0605230" lon="-8.8858740">
        <ele>17.0</ele>
        <time>2019-07-12T06:59:48Z</time>
      </trkpt>
      <trkpt lat="39.0602530" lon="-8.8864890">
        <ele>17.0</ele>
        <time>2019-07-12T06:59:56Z</time>
      </trkpt>
      <trkpt lat="39.0600250" lon="-8.8871250">
        <ele>17.2</ele>
        <time>2019-07-12T07:00:04Z</time>
      </trkpt>
      <trkpt lat="39.0598650" lon="-8.8876220">
        <ele>17.2</ele>
        <time>2019-07-12T07:00:10Z</time>
      </trkpt>
      <trkpt lat="39.0596520" lon="-8.8882660">
        <ele>17.2</ele>
        <time>2019-07-12T07:00:18Z</time>
      </trkpt>
      <trkpt lat="39.0595940" lon="-8.8884270">
        <ele>17.0</ele>
        <time>2019-07-12T07:00:20Z</time>
      </trkpt>
      <trkpt lat="39.0594290" lon="-8.8889210">
        <ele>17.0</ele>
        <time>2019-07-12T07:00:26Z</time>
      </trkpt>
      <trkpt lat="39.0592060" lon="-8.8895860">
        <ele>17.0</ele>
        <time>2019-07-12T07:00:34Z</time>
      </trkpt>
      <trkpt lat="39.0590930" lon="-8.8899160">
        <ele>17.0</ele>
        <time>2019-07-12T07:00:38Z</time>
      </trkpt>
      <trkpt lat="39.0589300" lon="-8.8904090">
        <ele>17.2</ele>
        <time>2019-07-12T07:00:44Z</time>
      </trkpt>
      <trkpt lat="39.0587680" lon="-8.8908900">
        <ele>17.2</ele>
        <time>2019-07-12T07:00:50Z</time>
      </trkpt>
      <trkpt lat="39.0585380" lon="-8.8915930">
        <ele>17.6</ele>
        <time>2019-07-12T07:00:59Z</time>
      </trkpt>
      <trkpt lat="39.0584850" lon="-8.8917480">
        <ele>17.8</ele>
        <time>2019-07-12T07:01:01Z</time>
      </trkpt>
      <trkpt lat="39.0582510" lon="-8.8924470">
        <ele>18.0</ele>
        <time>2019-07-12T07:01:10Z</time>
      </trkpt>
      <trkpt lat="39.0582250" lon="-8.8925240">
        <ele>18.0</ele>
        <time>2019-07-12T07:01:11Z</time>
      </trkpt>
      <trkpt lat="39.0580150" lon="-8.8931290">
        <ele>18.2</ele>
        <time>2019-07-12T07:01:19Z</time>
      </trkpt>
      <trkpt lat="39.0578570" lon="-8.8936900">
        <ele>18.4</ele>
        <time>2019-07-12T07:01:26Z</time>
      </trkpt>
      <trkpt lat="39.0578210" lon="-8.8940320">
        <ele>18.8</ele>
        <time>2019-07-12T07:01:30Z</time>
      </trkpt>
      <trkpt lat="39.0578090" lon="-8.8941140">
        <ele>19.0</ele>
        <time>2019-07-12T07:01:31Z</time>
      </trkpt>
      <trkpt lat="39.0577870" lon="-8.8941920">
        <ele>19.0</ele>
        <time>2019-07-12T07:01:32Z</time>
      </trkpt>
      <trkpt lat="39.0576630" lon="-8.8943910">
        <ele>18.4</ele>
        <time>2019-07-12T07:01:35Z</time>
      </trkpt>
      <trkpt lat="39.0575600" lon="-8.8945930">
        <ele>18.4</ele>
        <time>2019-07-12T07:01:38Z</time>
      </trkpt>
      <trkpt lat="39.0575310" lon="-8.8946640">
        <ele>18.4</ele>
        <time>2019-07-12T07:01:39Z</time>
      </trkpt>
      <trkpt lat="39.0573270" lon="-8.8952360">
        <ele>18.6</ele>
        <time>2019-07-12T07:01:47Z</time>
      </trkpt>
      <trkpt lat="39.0570930" lon="-8.8959220">
        <ele>18.8</ele>
        <time>2019-07-12T07:01:56Z</time>
      </trkpt>
      <trkpt lat="39.0570100" lon="-8.8961550">
        <ele>19.0</ele>
        <time>2019-07-12T07:01:59Z</time>
      </trkpt>
      <trkpt lat="39.0569420" lon="-8.8963960">
        <ele>19.0</ele>
        <time>2019-07-12T07:02:02Z</time>
      </trkpt>
      <trkpt lat="39.0567060" lon="-8.8971040">
        <ele>19.0</ele>
        <time>2019-07-12T07:02:11Z</time>
      </trkpt>
      <trkpt lat="39.0566780" lon="-8.8971830">
        <ele>19.0</ele>
        <time>2019-07-12T07:02:12Z</time>
      </trkpt>
      <trkpt lat="39.0564580" lon="-8.8978710">
        <ele>19.4</ele>
        <time>2019-07-12T07:02:21Z</time>
      </trkpt>
      <trkpt lat="39.0564070" lon="-8.8980190">
        <ele>19.4</ele>
        <time>2019-07-12T07:02:23Z</time>
      </trkpt>
      <trkpt lat="39.0562330" lon="-8.8985370">
        <ele>19.6</ele>
        <time>2019-07-12T07:02:30Z</time>
      </trkpt>
      <trkpt lat="39.0560380" lon="-8.8991350">
        <ele>20.0</ele>
        <time>2019-07-12T07:02:38Z</time>
      </trkpt>
      <trkpt lat="39.0560140" lon="-8.8992100">
        <ele>20.0</ele>
        <time>2019-07-12T07:02:39Z</time>
      </trkpt>
      <trkpt lat="39.0558280" lon="-8.8997320">
        <ele>20.2</ele>
        <time>2019-07-12T07:02:46Z</time>
      </trkpt>
      <trkpt lat="39.0557730" lon="-8.8998830">
        <ele>20.2</ele>
        <time>2019-07-12T07:02:48Z</time>
      </trkpt>
      <trkpt lat="39.0554980" lon="-8.9004860">
        <ele>20.4</ele>
        <time>2019-07-12T07:02:56Z</time>
      </trkpt>
      <trkpt lat="39.0551830" lon="-8.9010940">
        <ele>20.4</ele>
        <time>2019-07-12T07:03:04Z</time>
      </trkpt>
      <trkpt lat="39.0548640" lon="-8.9017130">
        <ele>20.6</ele>
        <time>2019-07-12T07:03:12Z</time>
      </trkpt>
      <trkpt lat="39.0548360" lon="-8.9017940">
        <ele>20.6</ele>
        <time>2019-07-12T07:03:13Z</time>
      </trkpt>
      <trkpt lat="39.0547790" lon="-8.9021450">
        <ele>20.4</ele>
        <time>2019-07-12T07:03:17Z</time>
      </trkpt>
      <trkpt lat="39.0546470" lon="-8.9024670">
        <ele>19.8</ele>
        <time>2019-07-12T07:03:21Z</time>
      </trkpt>
      <trkpt lat="39.0544730" lon="-8.9026380">
        <ele>19.6</ele>
        <time>2019-07-12T07:03:24Z</time>
      </trkpt>
      <trkpt lat="39.0544120" lon="-8.9026890">
        <ele>19.6</ele>
        <time>2019-07-12T07:03:25Z</time>
      </trkpt>
      <trkpt lat="39.0541930" lon="-8.9029470">
        <ele>19.4</ele>
        <time>2019-07-12T07:03:29Z</time>
      </trkpt>
      <trkpt lat="39.0538200" lon="-8.9035690">
        <ele>19.4</ele>
        <time>2019-07-12T07:03:37Z</time>
      </trkpt>
      <trkpt lat="39.0535130" lon="-8.9041420">
        <ele>19.6</ele>
        <time>2019-07-12T07:03:44Z</time>
      </trkpt>
      <trkpt lat="39.0534700" lon="-8.9042240">
        <ele>19.6</ele>
        <time>2019-07-12T07:03:45Z</time>
      </trkpt>
      <trkpt lat="39.0531320" lon="-8.9048690">
        <ele>19.4</ele>
        <time>2019-07-12T07:03:53Z</time>
      </trkpt>
      <trkpt lat="39.0530500" lon="-8.9050280">
        <ele>19.4</ele>
        <time>2019-07-12T07:03:55Z</time>
      </trkpt>
      <trkpt lat="39.0527290" lon="-8.9056260">
        <ele>19.6</ele>
        <time>2019-07-12T07:04:03Z</time>
      </trkpt>
      <trkpt lat="39.0524290" lon="-8.9062070">
        <ele>19.8</ele>
        <time>2019-07-12T07:04:11Z</time>
      </trkpt>
      <trkpt lat="39.0523890" lon="-8.9062750">
        <ele>20.0</ele>
        <time>2019-07-12T07:04:12Z</time>
      </trkpt>
      <trkpt lat="39.0521640" lon="-8.9066840">
        <ele>19.4</ele>
        <time>2019-07-12T07:04:18Z</time>
      </trkpt>
      <trkpt lat="39.0518880" lon="-8.9072270">
        <ele>19.6</ele>
        <time>2019-07-12T07:04:26Z</time>
      </trkpt>
      <trkpt lat="39.0516020" lon="-8.9078930">
        <ele>19.8</ele>
        <time>2019-07-12T07:04:35Z</time>
      </trkpt>
      <trkpt lat="39.0514240" lon="-8.9083570">
        <ele>20.2</ele>
        <time>2019-07-12T07:04:41Z</time>
      </trkpt>
      <trkpt lat="39.0511960" lon="-8.9089810">
        <ele>20.0</ele>
        <time>2019-07-12T07:04:49Z</time>
      </trkpt>
      <trkpt lat="39.0509640" lon="-8.9096090">
        <ele>19.6</ele>
        <time>2019-07-12T07:04:57Z</time>
      </trkpt>
      <trkpt lat="39.0508410" lon="-8.9099240">
        <ele>20.0</ele>
        <time>2019-07-12T07:05:01Z</time>
      </trkpt>
      <trkpt lat="39.0505960" lon="-8.9105740">
        <ele>19.8</ele>
        <time>2019-07-12T07:05:09Z</time>
      </trkpt>
      <trkpt lat="39.0505320" lon="-8.9107380">
        <ele>19.8</ele>
        <time>2019-07-12T07:05:11Z</time>
      </trkpt>
      <trkpt lat="39.0503140" lon="-8.9113180">
        <ele>19.8</ele>
        <time>2019-07-12T07:05:18Z</time>
      </trkpt>
      <trkpt lat="39.0500850" lon="-8.9119310">
        <ele>19.4</ele>
        <time>2019-07-12T07:05:25Z</time>
      </trkpt>
      <trkpt lat="39.0500220" lon="-8.9121090">
        <ele>19.8</ele>
        <time>2019-07-12T07:05:27Z</time>
      </trkpt>
      <trkpt lat="39.0497610" lon="-8.9127940">
        <ele>20.4</ele>
        <time>2019-07-12T07:05:35Z</time>
      </trkpt>
      <trkpt lat="39.0495240" lon="-8.9134930">
        <ele>20.0</ele>
        <time>2019-07-12T07:05:43Z</time>
      </trkpt>
      <trkpt lat="39.0493150" lon="-8.9141200">
        <ele>19.6</ele>
        <time>2019-07-12T07:05:50Z</time>
      </trkpt>
      <trkpt lat="39.0490890" lon="-8.9148470">
        <ele>19.8</ele>
        <time>2019-07-12T07:05:58Z</time>
      </trkpt>
      <trkpt lat="39.0490080" lon="-8.9151180">
        <ele>19.8</ele>
        <time>2019-07-12T07:06:01Z</time>
      </trkpt>
      <trkpt lat="39.0487980" lon="-8.9158180">
        <ele>19.8</ele>
        <time>2019-07-12T07:06:09Z</time>
      </trkpt>
      <trkpt lat="39.0487740" lon="-8.9158980">
        <ele>19.8</ele>
        <time>2019-07-12T07:06:10Z</time>
      </trkpt>
      <trkpt lat="39.0485680" lon="-8.9165050">
        <ele>20.6</ele>
        <time>2019-07-12T07:06:18Z</time>
      </trkpt>
      <trkpt lat="39.0485070" lon="-8.9166380">
        <ele>20.8</ele>
        <time>2019-07-12T07:06:20Z</time>
      </trkpt>
      <trkpt lat="39.0482630" lon="-8.9170830">
        <ele>21.6</ele>
        <time>2019-07-12T07:06:27Z</time>
      </trkpt>
      <trkpt lat="39.0479740" lon="-8.9175160">
        <ele>21.8</ele>
        <time>2019-07-12T07:06:34Z</time>
      </trkpt>
      <trkpt lat="39.0478010" lon="-8.9177440">
        <ele>22.0</ele>
        <time>2019-07-12T07:06:38Z</time>
      </trkpt>
      <trkpt lat="39.0476770" lon="-8.9179130">
        <ele>21.8</ele>
        <time>2019-07-12T07:06:41Z</time>
      </trkpt>
      <trkpt lat="39.0473140" lon="-8.9184310">
        <ele>22.6</ele>
        <time>2019-07-12T07:06:50Z</time>
      </trkpt>
      <trkpt lat="39.0469230" lon="-8.9190000">
        <ele>23.0</ele>
        <time>2019-07-12T07:07:00Z</time>
      </trkpt>
      <trkpt lat="39.0465660" lon="-8.9195290">
        <ele>23.0</ele>
        <time>2019-07-12T07:07:09Z</time>
      </trkpt>
      <trkpt lat="39.0465270" lon="-8.9195870">
        <ele>23.2</ele>
        <time>2019-07-12T07:07:10Z</time>
      </trkpt>
      <trkpt lat="39.0461690" lon="-8.9201090">
        <ele>23.4</ele>
        <time>2019-07-12T07:07:19Z</time>
      </trkpt>
      <trkpt lat="39.0458070" lon="-8.9206300">
        <ele>23.4</ele>
        <time>2019-07-12T07:07:28Z</time>
      </trkpt>
      <trkpt lat="39.0456870" lon="-8.9208060">
        <ele>23.6</ele>
        <time>2019-07-12T07:07:31Z</time>
      </trkpt>
      <trkpt lat="39.0453220" lon="-8.9213170">
        <ele>23.4</ele>
        <time>2019-07-12T07:07:40Z</time>
      </trkpt>
      <trkpt lat="39.0452370" lon="-8.9214340">
        <ele>23.4</ele>
        <time>2019-07-12T07:07:42Z</time>
      </trkpt>
      <trkpt lat="39.0449380" lon="-8.9218680">
        <ele>23.0</ele>
        <time>2019-07-12T07:07:49Z</time>
      </trkpt>
      <trkpt lat="39.0445400" lon="-8.9224440">
        <ele>23.4</ele>
        <time>2019-07-12T07:07:58Z</time>
      </trkpt>
      <trkpt lat="39.0441720" lon="-8.9229720">
        <ele>23.6</ele>
        <time>2019-07-12T07:08:06Z</time>
      </trkpt>
      <trkpt lat="39.0440330" lon="-8.9231730">
        <ele>23.6</ele>
        <time>2019-07-12T07:08:09Z</time>
      </trkpt>
      <trkpt lat="39.0438960" lon="-8.9233780">
        <ele>23.8</ele>
        <time>2019-07-12T07:08:12Z</time>
      </trkpt>
      <trkpt lat="39.0436220" lon="-8.9237990">
        <ele>23.8</ele>
        <time>2019-07-12T07:08:18Z</time>
      </trkpt>
      <trkpt lat="39.0433970" lon="-8.9242860">
        <ele>23.8</ele>
        <time>2019-07-12T07:08:24Z</time>
      </trkpt>
      <trkpt lat="39.0431600" lon="-8.9248670">
        <ele>23.6</ele>
        <time>2019-07-12T07:08:31Z</time>
      </trkpt>
      <trkpt lat="39.0430600" lon="-8.9251120">
        <ele>23.4</ele>
        <time>2019-07-12T07:08:34Z</time>
      </trkpt>
      <trkpt lat="39.0428580" lon="-8.9255940">
        <ele>22.8</ele>
        <time>2019-07-12T07:08:40Z</time>
      </trkpt>
      <trkpt lat="39.0427260" lon="-8.9259150">
        <ele>22.4</ele>
        <time>2019-07-12T07:08:44Z</time>
      </trkpt>
      <trkpt lat="39.0424630" lon="-8.9265410">
        <ele>22.6</ele>
        <time>2019-07-12T07:08:52Z</time>
      </trkpt>
      <trkpt lat="39.0424310" lon="-8.9266150">
        <ele>22.6</ele>
        <time>2019-07-12T07:08:53Z</time>
      </trkpt>
      <trkpt lat="39.0422440" lon="-8.9270290">
        <ele>23.0</ele>
        <time>2019-07-12T07:08:59Z</time>
      </trkpt>
      <trkpt lat="39.0422150" lon="-8.9270940">
        <ele>23.2</ele>
        <time>2019-07-12T07:09:00Z</time>
      </trkpt>
      <trkpt lat="39.0421210" lon="-8.9272840">
        <ele>23.4</ele>
        <time>2019-07-12T07:09:03Z</time>
      </trkpt>
      <trkpt lat="39.0419520" lon="-8.9275840">
        <ele>23.6</ele>
        <time>2019-07-12T07:09:08Z</time>
      </trkpt>
      <trkpt lat="39.0417770" lon="-8.9278830">
        <ele>23.8</ele>
        <time>2019-07-12T07:09:13Z</time>
      </trkpt>
      <trkpt lat="39.0416760" lon="-8.9280600">
        <ele>24.2</ele>
        <time>2019-07-12T07:09:16Z</time>
      </trkpt>
      <trkpt lat="39.0416060" lon="-8.9281730">
        <ele>24.8</ele>
        <time>2019-07-12T07:09:18Z</time>
      </trkpt>
      <trkpt lat="39.0414430" lon="-8.9284550">
        <ele>25.4</ele>
        <time>2019-07-12T07:09:23Z</time>
      </trkpt>
      <trkpt lat="39.0413140" lon="-8.9286790">
        <ele>25.6</ele>
        <time>2019-07-12T07:09:27Z</time>
      </trkpt>
      <trkpt lat="39.0412800" lon="-8.9287320">
        <ele>26.0</ele>
        <time>2019-07-12T07:09:28Z</time>
      </trkpt>
      <trkpt lat="39.0411510" lon="-8.9289470">
        <ele>26.4</ele>
        <time>2019-07-12T07:09:32Z</time>
      </trkpt>
      <trkpt lat="39.0409540" lon="-8.9292750">
        <ele>27.0</ele>
        <time>2019-07-12T07:09:38Z</time>
      </trkpt>
      <trkpt lat="39.0408140" lon="-8.9295070">
        <ele>27.4</ele>
        <time>2019-07-12T07:09:42Z</time>
      </trkpt>
      <trkpt lat="39.0405650" lon="-8.9299230">
        <ele>28.0</ele>
        <time>2019-07-12T07:09:49Z</time>
      </trkpt>
      <trkpt lat="39.0405300" lon="-8.9299810">
        <ele>28.0</ele>
        <time>2019-07-12T07:09:50Z</time>
      </trkpt>
      <trkpt lat="39.0402630" lon="-8.9303830">
        <ele>28.0</ele>
        <time>2019-07-12T07:09:57Z</time>
      </trkpt>
      <trkpt lat="39.0402200" lon="-8.9304390">
        <ele>28.0</ele>
        <time>2019-07-12T07:09:58Z</time>
      </trkpt>
      <trkpt lat="39.0400830" lon="-8.9305950">
        <ele>27.4</ele>
        <time>2019-07-12T07:10:01Z</time>
      </trkpt>
      <trkpt lat="39.0399830" lon="-8.9306910">
        <ele>27.2</ele>
        <time>2019-07-12T07:10:03Z</time>
      </trkpt>
      <trkpt lat="39.0398350" lon="-8.9308370">
        <ele>27.0</ele>
        <time>2019-07-12T07:10:06Z</time>
      </trkpt>
      <trkpt lat="39.0397320" lon="-8.9309350">
        <ele>27.0</ele>
        <time>2019-07-12T07:10:08Z</time>
      </trkpt>
      <trkpt lat="39.0396260" lon="-8.9310340">
        <ele>26.8</ele>
        <time>2019-07-12T07:10:10Z</time>
      </trkpt>
      <trkpt lat="39.0394610" lon="-8.9311750">
        <ele>26.6</ele>
        <time>2019-07-12T07:10:13Z</time>
      </trkpt>
      <trkpt lat="39.0393450" lon="-8.9312620">
        <ele>26.6</ele>
        <time>2019-07-12T07:10:15Z</time>
      </trkpt>
      <trkpt lat="39.0392260" lon="-8.9313460">
        <ele>26.4</ele>
        <time>2019-07-12T07:10:17Z</time>
      </trkpt>
      <trkpt lat="39.0389840" lon="-8.9314980">
        <ele>26.2</ele>
        <time>2019-07-12T07:10:21Z</time>
      </trkpt>
      <trkpt lat="39.0389230" lon="-8.9315320">
        <ele>26.0</ele>
        <time>2019-07-12T07:10:22Z</time>
      </trkpt>
      <trkpt lat="39.0387970" lon="-8.9315950">
        <ele>26.0</ele>
        <time>2019-07-12T07:10:24Z</time>
      </trkpt>
      <trkpt lat="39.0387340" lon="-8.9316270">
        <ele>25.8</ele>
        <time>2019-07-12T07:10:25Z</time>
      </trkpt>
      <trkpt lat="39.0383290" lon="-8.9317680">
        <ele>25.2</ele>
        <time>2019-07-12T07:10:31Z</time>
      </trkpt>
      <trkpt lat="39.0381880" lon="-8.9318190">
        <ele>25.0</ele>
        <time>2019-07-12T07:10:33Z</time>
      </trkpt>
      <trkpt lat="39.0377590" lon="-8.9319820">
        <ele>24.0</ele>
        <time>2019-07-12T07:10:39Z</time>
      </trkpt>
      <trkpt lat="39.0376870" lon="-8.9320110">
        <ele>23.8</ele>
        <time>2019-07-12T07:10:40Z</time>
      </trkpt>
      <trkpt lat="39.0373280" lon="-8.9321660">
        <ele>23.0</ele>
        <time>2019-07-12T07:10:45Z</time>
      </trkpt>
      <trkpt lat="39.0372600" lon="-8.9322080">
        <ele>23.0</ele>
        <time>2019-07-12T07:10:46Z</time>
      </trkpt>
      <trkpt lat="39.0371940" lon="-8.9322550">
        <ele>23.0</ele>
        <time>2019-07-12T07:10:47Z</time>
      </trkpt>
      <trkpt lat="39.0369980" lon="-8.9324150">
        <ele>22.6</ele>
        <time>2019-07-12T07:10:50Z</time>
      </trkpt>
      <trkpt lat="39.0368810" lon="-8.9325320">
        <ele>22.4</ele>
        <time>2019-07-12T07:10:52Z</time>
      </trkpt>
      <trkpt lat="39.0365910" lon="-8.9329460">
        <ele>22.0</ele>
        <time>2019-07-12T07:10:58Z</time>
      </trkpt>
      <trkpt lat="39.0363820" lon="-8.9334230">
        <ele>21.6</ele>
        <time>2019-07-12T07:11:04Z</time>
      </trkpt>
      <trkpt lat="39.0361760" lon="-8.9339960">
        <ele>20.6</ele>
        <time>2019-07-12T07:11:11Z</time>
      </trkpt>
      <trkpt lat="39.0361130" lon="-8.9341510">
        <ele>20.4</ele>
        <time>2019-07-12T07:11:13Z</time>
      </trkpt>
      <trkpt lat="39.0360500" lon="-8.9343060">
        <ele>20.0</ele>
        <time>2019-07-12T07:11:15Z</time>
      </trkpt>
      <trkpt lat="39.0358300" lon="-8.9348470">
        <ele>19.4</ele>
        <time>2019-07-12T07:11:22Z</time>
      </trkpt>
      <trkpt lat="39.0357980" lon="-8.9349220">
        <ele>19.2</ele>
        <time>2019-07-12T07:11:23Z</time>
      </trkpt>
      <trkpt lat="39.0355880" lon="-8.9354750">
        <ele>18.2</ele>
        <time>2019-07-12T07:11:30Z</time>
      </trkpt>
      <trkpt lat="39.0355560" lon="-8.9355540">
        <ele>18.0</ele>
        <time>2019-07-12T07:11:31Z</time>
      </trkpt>
      <trkpt lat="39.0354120" lon="-8.9359470">
        <ele>17.6</ele>
        <time>2019-07-12T07:11:36Z</time>
      </trkpt>
      <trkpt lat="39.0353860" lon="-8.9360230">
        <ele>17.6</ele>
        <time>2019-07-12T07:11:37Z</time>
      </trkpt>
      <trkpt lat="39.0352120" lon="-8.9364910">
        <ele>17.2</ele>
        <time>2019-07-12T07:11:43Z</time>
      </trkpt>
      <trkpt lat="39.0351830" lon="-8.9365770">
        <ele>17.0</ele>
        <time>2019-07-12T07:11:44Z</time>
      </trkpt>
      <trkpt lat="39.0351490" lon="-8.9366640">
        <ele>17.0</ele>
        <time>2019-07-12T07:11:45Z</time>
      </trkpt>
      <trkpt lat="39.0350130" lon="-8.9370050">
        <ele>16.6</ele>
        <time>2019-07-12T07:11:49Z</time>
      </trkpt>
      <trkpt lat="39.0349450" lon="-8.9371750">
        <ele>16.0</ele>
        <time>2019-07-12T07:11:51Z</time>
      </trkpt>
      <trkpt lat="39.0347490" lon="-8.9376950">
        <ele>15.0</ele>
        <time>2019-07-12T07:11:57Z</time>
      </trkpt>
      <trkpt lat="39.0345320" lon="-8.9382470">
        <ele>14.6</ele>
        <time>2019-07-12T07:12:04Z</time>
      </trkpt>
      <trkpt lat="39.0344460" lon="-8.9383760">
        <ele>14.2</ele>
        <time>2019-07-12T07:12:08Z</time>
      </trkpt>
      <trkpt lat="39.0344150" lon="-8.9383210">
        <ele>14.2</ele>
        <time>2019-07-12T07:12:10Z</time>
      </trkpt>
      <trkpt lat="39.0344650" lon="-8.9381980">
        <ele>14.2</ele>
        <time>2019-07-12T07:12:13Z</time>
      </trkpt>
      <trkpt lat="39.0345370" lon="-8.9380070">
        <ele>14.2</ele>
        <time>2019-07-12T07:12:17Z</time>
      </trkpt>
      <trkpt lat="39.0345810" lon="-8.9379060">
        <ele>14.4</ele>
        <time>2019-07-12T07:12:19Z</time>
      </trkpt>
      <trkpt lat="39.0347550" lon="-8.9374700">
        <ele>14.6</ele>
        <time>2019-07-12T07:12:27Z</time>
      </trkpt>
      <trkpt lat="39.0349440" lon="-8.9370230">
        <ele>15.2</ele>
        <time>2019-07-12T07:12:35Z</time>
      </trkpt>
      <trkpt lat="39.0349590" lon="-8.9369750">
        <ele>15.2</ele>
        <time>2019-07-12T07:12:36Z</time>
      </trkpt>
      <trkpt lat="39.0349470" lon="-8.9368780">
        <ele>15.2</ele>
        <time>2019-07-12T07:12:38Z</time>
      </trkpt>
      <trkpt lat="39.0348950" lon="-8.9367840">
        <ele>15.2</ele>
        <time>2019-07-12T07:12:40Z</time>
      </trkpt>
      <trkpt lat="39.0348320" lon="-8.9366780">
        <ele>15.0</ele>
        <time>2019-07-12T07:12:42Z</time>
      </trkpt>
      <trkpt lat="39.0347920" lon="-8.9366250">
        <ele>14.6</ele>
        <time>2019-07-12T07:12:43Z</time>
      </trkpt>
      <trkpt lat="39.0346900" lon="-8.9365510">
        <ele>14.2</ele>
        <time>2019-07-12T07:12:45Z</time>
      </trkpt>
      <trkpt lat="39.0346310" lon="-8.9365410">
        <ele>14.0</ele>
        <time>2019-07-12T07:12:46Z</time>
      </trkpt>
      <trkpt lat="39.0345130" lon="-8.9365820">
        <ele>13.6</ele>
        <time>2019-07-12T07:12:48Z</time>
      </trkpt>
      <trkpt lat="39.0344080" lon="-8.9366690">
        <ele>13.6</ele>
        <time>2019-07-12T07:12:50Z</time>
      </trkpt>
      <trkpt lat="39.0342580" lon="-8.9368120">
        <ele>13.4</ele>
        <time>2019-07-12T07:12:53Z</time>
      </trkpt>
      <trkpt lat="39.0338110" lon="-8.9372460">
        <ele>13.6</ele>
        <time>2019-07-12T07:13:02Z</time>
      </trkpt>
      <trkpt lat="39.0334280" lon="-8.9376010">
        <ele>13.8</ele>
        <time>2019-07-12T07:13:10Z</time>
      </trkpt>
      <trkpt lat="39.0333790" lon="-8.9376440">
        <ele>13.8</ele>
        <time>2019-07-12T07:13:11Z</time>
      </trkpt>
      <trkpt lat="39.0331860" lon="-8.9378270">
        <ele>14.2</ele>
        <time>2019-07-12T07:13:15Z</time>
      </trkpt>
      <trkpt lat="39.0329840" lon="-8.9380160">
        <ele>14.2</ele>
        <time>2019-07-12T07:13:19Z</time>
      </trkpt>
      <trkpt lat="39.0326000" lon="-8.9383880">
        <ele>13.6</ele>
        <time>2019-07-12T07:13:26Z</time>
      </trkpt>
      <trkpt lat="39.0325450" lon="-8.9384440">
        <ele>13.6</ele>
        <time>2019-07-12T07:13:27Z</time>
      </trkpt>
      <trkpt lat="39.0321500" lon="-8.9388160">
        <ele>13.4</ele>
        <time>2019-07-12T07:13:34Z</time>
      </trkpt>
      <trkpt lat="39.0317090" lon="-8.9392450">
        <ele>13.2</ele>
        <time>2019-07-12T07:13:42Z</time>
      </trkpt>
      <trkpt lat="39.0316040" lon="-8.9393530">
        <ele>13.2</ele>
        <time>2019-07-12T07:13:44Z</time>
      </trkpt>
      <trkpt lat="39.0311750" lon="-8.9397490">
        <ele>13.6</ele>
        <time>2019-07-12T07:13:52Z</time>
      </trkpt>
      <trkpt lat="39.0307730" lon="-8.9401400">
        <ele>13.8</ele>
        <time>2019-07-12T07:14:00Z</time>
      </trkpt>
      <trkpt lat="39.0304800" lon="-8.9404200">
        <ele>13.6</ele>
        <time>2019-07-12T07:14:06Z</time>
      </trkpt>
      <trkpt lat="39.0300260" lon="-8.9408480">
        <ele>13.6</ele>
        <time>2019-07-12T07:14:15Z</time>
      </trkpt>
      <trkpt lat="39.0296160" lon="-8.9412380">
        <ele>13.0</ele>
        <time>2019-07-12T07:14:23Z</time>
      </trkpt>
      <trkpt lat="39.0291330" lon="-8.9416940">
        <ele>13.0</ele>
        <time>2019-07-12T07:14:32Z</time>
      </trkpt>
      <trkpt lat="39.0290820" lon="-8.9417450">
        <ele>13.0</ele>
        <time>2019-07-12T07:14:33Z</time>
      </trkpt>
      <trkpt lat="39.0288710" lon="-8.9419450">
        <ele>12.8</ele>
        <time>2019-07-12T07:14:37Z</time>
      </trkpt>
      <trkpt lat="39.0286070" lon="-8.9421900">
        <ele>12.8</ele>
        <time>2019-07-12T07:14:42Z</time>
      </trkpt>
      <trkpt lat="39.0281730" lon="-8.9425950">
        <ele>12.4</ele>
        <time>2019-07-12T07:14:50Z</time>
      </trkpt>
      <trkpt lat="39.0276990" lon="-8.9430300">
        <ele>13.2</ele>
        <time>2019-07-12T07:14:59Z</time>
      </trkpt>
      <trkpt lat="39.0273110" lon="-8.9433980">
        <ele>12.8</ele>
        <time>2019-07-12T07:15:07Z</time>
      </trkpt>
      <trkpt lat="39.0269340" lon="-8.9437440">
        <ele>13.0</ele>
        <time>2019-07-12T07:15:15Z</time>
      </trkpt>
      <trkpt lat="39.0266130" lon="-8.9440470">
        <ele>13.2</ele>
        <time>2019-07-12T07:15:22Z</time>
      </trkpt>
      <trkpt lat="39.0263960" lon="-8.9441400">
        <ele>13.2</ele>
        <time>2019-07-12T07:15:26Z</time>
      </trkpt>
      <trkpt lat="39.0263370" lon="-8.9441610">
        <ele>13.0</ele>
        <time>2019-07-12T07:15:27Z</time>
      </trkpt>
      <trkpt lat="39.0262230" lon="-8.9442200">
        <ele>13.0</ele>
        <time>2019-07-12T07:15:29Z</time>
      </trkpt>
      <trkpt lat="39.0260750" lon="-8.9443550">
        <ele>13.0</ele>
        <time>2019-07-12T07:15:32Z</time>
      </trkpt>
      <trkpt lat="39.0257020" lon="-8.9447460">
        <ele>13.2</ele>
        <time>2019-07-12T07:15:40Z</time>
      </trkpt>
      <trkpt lat="39.0252890" lon="-8.9452240">
        <ele>13.4</ele>
        <time>2019-07-12T07:15:49Z</time>
      </trkpt>
      <trkpt lat="39.0252420" lon="-8.9452770">
        <ele>13.4</ele>
        <time>2019-07-12T07:15:50Z</time>
      </trkpt>
      <trkpt lat="39.0248150" lon="-8.9457790">
        <ele>13.6</ele>
        <time>2019-07-12T07:15:59Z</time>
      </trkpt>
      <trkpt lat="39.0247640" lon="-8.9458340">
        <ele>13.6</ele>
        <time>2019-07-12T07:16:00Z</time>
      </trkpt>
      <trkpt lat="39.0244070" lon="-8.9462360">
        <ele>13.6</ele>
        <time>2019-07-12T07:16:07Z</time>
      </trkpt>
      <trkpt lat="39.0239990" lon="-8.9467210">
        <ele>13.4</ele>
        <time>2019-07-12T07:16:15Z</time>
      </trkpt>
      <trkpt lat="39.0236460" lon="-8.9471480">
        <ele>13.4</ele>
        <time>2019-07-12T07:16:22Z</time>
      </trkpt>
      <trkpt lat="39.0232480" lon="-8.9476270">
        <ele>13.2</ele>
        <time>2019-07-12T07:16:30Z</time>
      </trkpt>
      <trkpt lat="39.0231970" lon="-8.9476870">
        <ele>13.2</ele>
        <time>2019-07-12T07:16:31Z</time>
      </trkpt>
      <trkpt lat="39.0228390" lon="-8.9481110">
        <ele>13.4</ele>
        <time>2019-07-12T07:16:38Z</time>
      </trkpt>
      <trkpt lat="39.0227400" lon="-8.9482310">
        <ele>13.4</ele>
        <time>2019-07-12T07:16:40Z</time>
      </trkpt>
      <trkpt lat="39.0223430" lon="-8.9487120">
        <ele>13.6</ele>
        <time>2019-07-12T07:16:48Z</time>
      </trkpt>
      <trkpt lat="39.0221900" lon="-8.9488890">
        <ele>13.6</ele>
        <time>2019-07-12T07:16:51Z</time>
      </trkpt>
      <trkpt lat="39.0217430" lon="-8.9494120">
        <ele>13.4</ele>
        <time>2019-07-12T07:17:00Z</time>
      </trkpt>
      <trkpt lat="39.0216440" lon="-8.9495300">
        <ele>13.4</ele>
        <time>2019-07-12T07:17:02Z</time>
      </trkpt>
      <trkpt lat="39.0214500" lon="-8.9497750">
        <ele>13.0</ele>
        <time>2019-07-12T07:17:06Z</time>
      </trkpt>
      <trkpt lat="39.0213000" lon="-8.9499550">
        <ele>13.0</ele>
        <time>2019-07-12T07:17:09Z</time>
      </trkpt>
      <trkpt lat="39.0209990" lon="-8.9503170">
        <ele>12.8</ele>
        <time>2019-07-12T07:17:15Z</time>
      </trkpt>
      <trkpt lat="39.0209020" lon="-8.9504400">
        <ele>13.0</ele>
        <time>2019-07-12T07:17:17Z</time>
      </trkpt>
      <trkpt lat="39.0205520" lon="-8.9508610">
        <ele>12.6</ele>
        <time>2019-07-12T07:17:24Z</time>
      </trkpt>
      <trkpt lat="39.0201470" lon="-8.9513490">
        <ele>12.4</ele>
        <time>2019-07-12T07:17:32Z</time>
      </trkpt>
      <trkpt lat="39.0200430" lon="-8.9514640">
        <ele>12.8</ele>
        <time>2019-07-12T07:17:34Z</time>
      </trkpt>
      <trkpt lat="39.0196920" lon="-8.9517370">
        <ele>12.6</ele>
        <time>2019-07-12T07:17:40Z</time>
      </trkpt>
      <trkpt lat="39.0194170" lon="-8.9520090">
        <ele>12.2</ele>
        <time>2019-07-12T07:17:45Z</time>
      </trkpt>
      <trkpt lat="39.0190380" lon="-8.9524950">
        <ele>12.4</ele>
        <time>2019-07-12T07:17:53Z</time>
      </trkpt>
      <trkpt lat="39.0186230" lon="-8.9530300">
        <ele>12.6</ele>
        <time>2019-07-12T07:18:02Z</time>
      </trkpt>
      <trkpt lat="39.0185770" lon="-8.9530880">
        <ele>12.6</ele>
        <time>2019-07-12T07:18:03Z</time>
      </trkpt>
      <trkpt lat="39.0181970" lon="-8.9535900">
        <ele>13.0</ele>
        <time>2019-07-12T07:18:11Z</time>
      </trkpt>
      <trkpt lat="39.0177560" lon="-8.9541200">
        <ele>13.0</ele>
        <time>2019-07-12T07:18:20Z</time>
      </trkpt>
      <trkpt lat="39.0176570" lon="-8.9542310">
        <ele>13.0</ele>
        <time>2019-07-12T07:18:22Z</time>
      </trkpt>
      <trkpt lat="39.0172100" lon="-8.9547190">
        <ele>13.0</ele>
        <time>2019-07-12T07:18:31Z</time>
      </trkpt>
      <trkpt lat="39.0169170" lon="-8.9550390">
        <ele>13.2</ele>
        <time>2019-07-12T07:18:37Z</time>
      </trkpt>
      <trkpt lat="39.0166040" lon="-8.9553950">
        <ele>13.2</ele>
        <time>2019-07-12T07:18:43Z</time>
      </trkpt>
      <trkpt lat="39.0163460" lon="-8.9556840">
        <ele>13.2</ele>
        <time>2019-07-12T07:18:48Z</time>
      </trkpt>
      <trkpt lat="39.0161940" lon="-8.9558510">
        <ele>13.2</ele>
        <time>2019-07-12T07:18:51Z</time>
      </trkpt>
      <trkpt lat="39.0158550" lon="-8.9562270">
        <ele>13.6</ele>
        <time>2019-07-12T07:18:58Z</time>
      </trkpt>
      <trkpt lat="39.0157530" lon="-8.9563520">
        <ele>13.6</ele>
        <time>2019-07-12T07:19:01Z</time>
      </trkpt>
      <trkpt lat="39.0157280" lon="-8.9563720">
        <ele>13.6</ele>
        <time>2019-07-12T07:19:02Z</time>
      </trkpt>
      <trkpt lat="39.0156960" lon="-8.9563750">
        <ele>13.6</ele>
        <time>2019-07-12T07:19:03Z</time>
      </trkpt>
      <trkpt lat="39.0156380" lon="-8.9563280">
        <ele>13.6</ele>
        <time>2019-07-12T07:19:05Z</time>
      </trkpt>
      <trkpt lat="39.0156000" lon="-8.9562410">
        <ele>13.6</ele>
        <time>2019-07-12T07:19:07Z</time>
      </trkpt>
      <trkpt lat="39.0155550" lon="-8.9561470">
        <ele>13.6</ele>
        <time>2019-07-12T07:19:09Z</time>
      </trkpt>
      <trkpt lat="39.0153770" lon="-8.9558290">
        <ele>13.8</ele>
        <time>2019-07-12T07:19:15Z</time>
      </trkpt>
      <trkpt lat="39.0150280" lon="-8.9552330">
        <ele>14.0</ele>
        <time>2019-07-12T07:19:25Z</time>
      </trkpt>
      <trkpt lat="39.0147800" lon="-8.9547960">
        <ele>14.2</ele>
        <time>2019-07-12T07:19:32Z</time>
      </trkpt>
      <trkpt lat="39.0144210" lon="-8.9542270">
        <ele>14.2</ele>
        <time>2019-07-12T07:19:41Z</time>
      </trkpt>
      <trkpt lat="39.0141920" lon="-8.9538400">
        <ele>14.2</ele>
        <time>2019-07-12T07:19:47Z</time>
      </trkpt>
      <trkpt lat="39.0138800" lon="-8.9533040">
        <ele>14.2</ele>
        <time>2019-07-12T07:19:55Z</time>
      </trkpt>
      <trkpt lat="39.0135200" lon="-8.9527150">
        <ele>14.2</ele>
        <time>2019-07-12T07:20:04Z</time>
      </trkpt>
      <trkpt lat="39.0134420" lon="-8.9525830">
        <ele>14.2</ele>
        <time>2019-07-12T07:20:06Z</time>
      </trkpt>
      <trkpt lat="39.0130750" lon="-8.9520000">
        <ele>14.4</ele>
        <time>2019-07-12T07:20:15Z</time>
      </trkpt>
      <trkpt lat="39.0129310" lon="-8.9517270">
        <ele>14.4</ele>
        <time>2019-07-12T07:20:19Z</time>
      </trkpt>
      <trkpt lat="39.0129140" lon="-8.9516490">
        <ele>14.2</ele>
        <time>2019-07-12T07:20:20Z</time>
      </trkpt>
      <trkpt lat="39.0129350" lon="-8.9513990">
        <ele>14.2</ele>
        <time>2019-07-12T07:20:23Z</time>
      </trkpt>
      <trkpt lat="39.0129430" lon="-8.9513140">
        <ele>14.2</ele>
        <time>2019-07-12T07:20:24Z</time>
      </trkpt>
      <trkpt lat="39.0129240" lon="-8.9511450">
        <ele>14.0</ele>
        <time>2019-07-12T07:20:26Z</time>
      </trkpt>
      <trkpt lat="39.0128220" lon="-8.9509390">
        <ele>14.0</ele>
        <time>2019-07-12T07:20:29Z</time>
      </trkpt>
      <trkpt lat="39.0127850" lon="-8.9508860">
        <ele>14.0</ele>
        <time>2019-07-12T07:20:30Z</time>
      </trkpt>
      <trkpt lat="39.0126900" lon="-8.9507280">
        <ele>14.8</ele>
        <time>2019-07-12T07:20:33Z</time>
      </trkpt>
      <trkpt lat="39.0126330" lon="-8.9506260">
        <ele>15.6</ele>
        <time>2019-07-12T07:20:35Z</time>
      </trkpt>
      <trkpt lat="39.0125760" lon="-8.9505330">
        <ele>16.2</ele>
        <time>2019-07-12T07:20:37Z</time>
      </trkpt>
      <trkpt lat="39.0124930" lon="-8.9504050">
        <ele>17.0</ele>
        <time>2019-07-12T07:20:40Z</time>
      </trkpt>
      <trkpt lat="39.0124660" lon="-8.9503620">
        <ele>17.4</ele>
        <time>2019-07-12T07:20:41Z</time>
      </trkpt>
      <trkpt lat="39.0124420" lon="-8.9503170">
        <ele>17.8</ele>
        <time>2019-07-12T07:20:42Z</time>
      </trkpt>
      <trkpt lat="39.0123930" lon="-8.9502300">
        <ele>18.4</ele>
        <time>2019-07-12T07:20:44Z</time>
      </trkpt>
      <trkpt lat="39.0123370" lon="-8.9501470">
        <ele>19.0</ele>
        <time>2019-07-12T07:20:46Z</time>
      </trkpt>
      <trkpt lat="39.0122860" lon="-8.9500640">
        <ele>19.6</ele>
        <time>2019-07-12T07:20:48Z</time>
      </trkpt>
      <trkpt lat="39.0122620" lon="-8.9500210">
        <ele>19.8</ele>
        <time>2019-07-12T07:20:49Z</time>
      </trkpt>
      <trkpt lat="39.0122180" lon="-8.9499360">
        <ele>20.6</ele>
        <time>2019-07-12T07:20:51Z</time>
      </trkpt>
      <trkpt lat="39.0121510" lon="-8.9498210">
        <ele>21.4</ele>
        <time>2019-07-12T07:20:54Z</time>
      </trkpt>
      <trkpt lat="39.0121270" lon="-8.9497870">
        <ele>21.8</ele>
        <time>2019-07-12T07:20:55Z</time>
      </trkpt>
      <trkpt lat="39.0121040" lon="-8.9497540">
        <ele>22.0</ele>
        <time>2019-07-12T07:20:56Z</time>
      </trkpt>
      <trkpt lat="39.0120150" lon="-8.9496110">
        <ele>22.8</ele>
        <time>2019-07-12T07:21:00Z</time>
      </trkpt>
      <trkpt lat="39.0119100" lon="-8.9494150">
        <ele>23.4</ele>
        <time>2019-07-12T07:21:05Z</time>
      </trkpt>
      <trkpt lat="39.0117720" lon="-8.9491650">
        <ele>23.8</ele>
        <time>2019-07-12T07:21:11Z</time>
      </trkpt>
      <trkpt lat="39.0116550" lon="-8.9489250">
        <ele>23.6</ele>
        <time>2019-07-12T07:21:16Z</time>
      </trkpt>
      <trkpt lat="39.0116340" lon="-8.9487970">
        <ele>23.2</ele>
        <time>2019-07-12T07:21:18Z</time>
      </trkpt>
      <trkpt lat="39.0116280" lon="-8.9487260">
        <ele>23.0</ele>
        <time>2019-07-12T07:21:19Z</time>
      </trkpt>
      <trkpt lat="39.0116270" lon="-8.9486520">
        <ele>22.8</ele>
        <time>2019-07-12T07:21:20Z</time>
      </trkpt>
      <trkpt lat="39.0116350" lon="-8.9485740">
        <ele>22.6</ele>
        <time>2019-07-12T07:21:21Z</time>
      </trkpt>
      <trkpt lat="39.0116830" lon="-8.9484150">
        <ele>22.0</ele>
        <time>2019-07-12T07:21:23Z</time>
      </trkpt>
      <trkpt lat="39.0117230" lon="-8.9483400">
        <ele>21.6</ele>
        <time>2019-07-12T07:21:24Z</time>
      </trkpt>
      <trkpt lat="39.0118360" lon="-8.9482060">
        <ele>21.0</ele>
        <time>2019-07-12T07:21:26Z</time>
      </trkpt>
      <trkpt lat="39.0119040" lon="-8.9481480">
        <ele>20.4</ele>
        <time>2019-07-12T07:21:27Z</time>
      </trkpt>
      <trkpt lat="39.0119760" lon="-8.9480890">
        <ele>20.0</ele>
        <time>2019-07-12T07:21:28Z</time>
      </trkpt>
      <trkpt lat="39.0120510" lon="-8.9480290">
        <ele>19.4</ele>
        <time>2019-07-12T07:21:29Z</time>
      </trkpt>
      <trkpt lat="39.0122010" lon="-8.9478960">
        <ele>18.2</ele>
        <time>2019-07-12T07:21:31Z</time>
      </trkpt>
      <trkpt lat="39.0122740" lon="-8.9478240">
        <ele>17.8</ele>
        <time>2019-07-12T07:21:32Z</time>
      </trkpt>
      <trkpt lat="39.0123450" lon="-8.9477530">
        <ele>17.2</ele>
        <time>2019-07-12T07:21:33Z</time>
      </trkpt>
      <trkpt lat="39.0125300" lon="-8.9475800">
        <ele>16.0</ele>
        <time>2019-07-12T07:21:36Z</time>
      </trkpt>
      <trkpt lat="39.0126290" lon="-8.9475050">
        <ele>15.6</ele>
        <time>2019-07-12T07:21:38Z</time>
      </trkpt>
      <trkpt lat="39.0127170" lon="-8.9474850">
        <ele>15.4</ele>
        <time>2019-07-12T07:21:40Z</time>
      </trkpt>
      <trkpt lat="39.0127820" lon="-8.9475410">
        <ele>15.0</ele>
        <time>2019-07-12T07:21:42Z</time>
      </trkpt>
      <trkpt lat="39.0127900" lon="-8.9475930">
        <ele>14.8</ele>
        <time>2019-07-12T07:21:43Z</time>
      </trkpt>
      <trkpt lat="39.0127390" lon="-8.9477670">
        <ele>14.6</ele>
        <time>2019-07-12T07:21:46Z</time>
      </trkpt>
      <trkpt lat="39.0127180" lon="-8.9478310">
        <ele>14.6</ele>
        <time>2019-07-12T07:21:47Z</time>
      </trkpt>
      <trkpt lat="39.0125980" lon="-8.9482390">
        <ele>14.4</ele>
        <time>2019-07-12T07:21:53Z</time>
      </trkpt>
      <trkpt lat="39.0125750" lon="-8.9483070">
        <ele>14.4</ele>
        <time>2019-07-12T07:21:54Z</time>
      </trkpt>
      <trkpt lat="39.0124930" lon="-8.9485040">
        <ele>14.4</ele>
        <time>2019-07-12T07:21:57Z</time>
      </trkpt>
      <trkpt lat="39.0124570" lon="-8.9485620">
        <ele>14.4</ele>
        <time>2019-07-12T07:21:58Z</time>
      </trkpt>
      <trkpt lat="39.0123220" lon="-8.9487110">
        <ele>14.4</ele>
        <time>2019-07-12T07:22:01Z</time>
      </trkpt>
      <trkpt lat="39.0122150" lon="-8.9487910">
        <ele>14.4</ele>
        <time>2019-07-12T07:22:03Z</time>
      </trkpt>
      <trkpt lat="39.0117100" lon="-8.9491450">
        <ele>14.4</ele>
        <time>2019-07-12T07:22:12Z</time>
      </trkpt>
      <trkpt lat="39.0116000" lon="-8.9492250">
        <ele>14.4</ele>
        <time>2019-07-12T07:22:14Z</time>
      </trkpt>
      <trkpt lat="39.0111090" lon="-8.9495760">
        <ele>14.6</ele>
        <time>2019-07-12T07:22:23Z</time>
      </trkpt>
      <trkpt lat="39.0109970" lon="-8.9496500">
        <ele>14.6</ele>
        <time>2019-07-12T07:22:25Z</time>
      </trkpt>
      <trkpt lat="39.0107720" lon="-8.9498170">
        <ele>14.8</ele>
        <time>2019-07-12T07:22:29Z</time>
      </trkpt>
      <trkpt lat="39.0105340" lon="-8.9499800">
        <ele>14.6</ele>
        <time>2019-07-12T07:22:33Z</time>
      </trkpt>
      <trkpt lat="39.0100510" lon="-8.9503220">
        <ele>14.6</ele>
        <time>2019-07-12T07:22:41Z</time>
      </trkpt>
      <trkpt lat="39.0099910" lon="-8.9503650">
        <ele>14.4</ele>
        <time>2019-07-12T07:22:42Z</time>
      </trkpt>
      <trkpt lat="39.0095160" lon="-8.9507010">
        <ele>14.4</ele>
        <time>2019-07-12T07:22:50Z</time>
      </trkpt>
      <trkpt lat="39.0093430" lon="-8.9508230">
        <ele>14.4</ele>
        <time>2019-07-12T07:22:53Z</time>
      </trkpt>
      <trkpt lat="39.0092830" lon="-8.9508560">
        <ele>14.4</ele>
        <time>2019-07-12T07:22:54Z</time>
      </trkpt>
      <trkpt lat="39.0090880" lon="-8.9509070">
        <ele>14.2</ele>
        <time>2019-07-12T07:22:57Z</time>
      </trkpt>
      <trkpt lat="39.0089570" lon="-8.9508800">
        <ele>14.0</ele>
        <time>2019-07-12T07:22:59Z</time>
      </trkpt>
      <trkpt lat="39.0088320" lon="-8.9508220">
        <ele>14.0</ele>
        <time>2019-07-12T07:23:01Z</time>
      </trkpt>
      <trkpt lat="39.0087730" lon="-8.9507840">
        <ele>13.8</ele>
        <time>2019-07-12T07:23:02Z</time>
      </trkpt>
      <trkpt lat="39.0084960" lon="-8.9505910">
        <ele>13.8</ele>
        <time>2019-07-12T07:23:07Z</time>
      </trkpt>
      <trkpt lat="39.0080870" lon="-8.9503070">
        <ele>13.8</ele>
        <time>2019-07-12T07:23:15Z</time>
      </trkpt>
      <trkpt lat="39.0077530" lon="-8.9500870">
        <ele>13.8</ele>
        <time>2019-07-12T07:23:22Z</time>
      </trkpt>
      <trkpt lat="39.0072530" lon="-8.9497550">
        <ele>13.8</ele>
        <time>2019-07-12T07:23:32Z</time>
      </trkpt>
      <trkpt lat="39.0067260" lon="-8.9494210">
        <ele>13.6</ele>
        <time>2019-07-12T07:23:42Z</time>
      </trkpt>
      <trkpt lat="39.0066720" lon="-8.9493880">
        <ele>13.6</ele>
        <time>2019-07-12T07:23:43Z</time>
      </trkpt>
      <trkpt lat="39.0061870" lon="-8.9490710">
        <ele>13.6</ele>
        <time>2019-07-12T07:23:52Z</time>
      </trkpt>
      <trkpt lat="39.0061340" lon="-8.9490360">
        <ele>13.4</ele>
        <time>2019-07-12T07:23:53Z</time>
      </trkpt>
      <trkpt lat="39.0057120" lon="-8.9487680">
        <ele>13.4</ele>
        <time>2019-07-12T07:24:01Z</time>
      </trkpt>
      <trkpt lat="39.0051830" lon="-8.9484230">
        <ele>13.0</ele>
        <time>2019-07-12T07:24:11Z</time>
      </trkpt>
      <trkpt lat="39.0046770" lon="-8.9480380">
        <ele>13.2</ele>
        <time>2019-07-12T07:24:21Z</time>
      </trkpt>
      <trkpt lat="39.0043220" lon="-8.9476530">
        <ele>13.0</ele>
        <time>2019-07-12T07:24:29Z</time>
      </trkpt>
      <trkpt lat="39.0040340" lon="-8.9471890">
        <ele>13.0</ele>
        <time>2019-07-12T07:24:37Z</time>
      </trkpt>
      <trkpt lat="39.0036920" lon="-8.9465960">
        <ele>13.2</ele>
        <time>2019-07-12T07:24:47Z</time>
      </trkpt>
      <trkpt lat="39.0036570" lon="-8.9465420">
        <ele>13.0</ele>
        <time>2019-07-12T07:24:48Z</time>
      </trkpt>
      <trkpt lat="39.0035320" lon="-8.9463280">
        <ele>13.0</ele>
        <time>2019-07-12T07:24:52Z</time>
      </trkpt>
      <trkpt lat="39.0034420" lon="-8.9461760">
        <ele>12.8</ele>
        <time>2019-07-12T07:24:55Z</time>
      </trkpt>
      <trkpt lat="39.0033070" lon="-8.9459100">
        <ele>13.0</ele>
        <time>2019-07-12T07:25:00Z</time>
      </trkpt>
      <trkpt lat="39.0032680" lon="-8.9458000">
        <ele>13.0</ele>
        <time>2019-07-12T07:25:02Z</time>
      </trkpt>
      <trkpt lat="39.0032420" lon="-8.9457020">
        <ele>12.8</ele>
        <time>2019-07-12T07:25:04Z</time>
      </trkpt>
      <trkpt lat="39.0032120" lon="-8.9456420">
        <ele>12.6</ele>
        <time>2019-07-12T07:25:06Z</time>
      </trkpt>
      <trkpt lat="39.0031730" lon="-8.9456540">
        <ele>12.2</ele>
        <time>2019-07-12T07:25:09Z</time>
      </trkpt>
      <trkpt lat="39.0031690" lon="-8.9456680">
        <ele>12.2</ele>
        <time>2019-07-12T07:25:10Z</time>
      </trkpt>
      <trkpt lat="39.0031700" lon="-8.9457020">
        <ele>12.2</ele>
        <time>2019-07-12T07:25:12Z</time>
      </trkpt>
      <trkpt lat="39.0031750" lon="-8.9457290">
        <ele>12.6</ele>
        <time>2019-07-12T07:25:14Z</time>
      </trkpt>
      <trkpt lat="39.0031720" lon="-8.9457310">
        <ele>12.8</ele>
        <time>2019-07-12T07:25:15Z</time>
      </trkpt>
      <trkpt lat="39.0031620" lon="-8.9457390">
        <ele>12.8</ele>
        <time>2019-07-12T07:25:17Z</time>
      </trkpt>
      <trkpt lat="39.0031270" lon="-8.9457400">
        <ele>12.8</ele>
        <time>2019-07-12T07:25:20Z</time>
      </trkpt>
      <trkpt lat="39.0031120" lon="-8.9457410">
        <ele>12.8</ele>
        <time>2019-07-12T07:25:21Z</time>
      </trkpt>
      <trkpt lat="39.0030360" lon="-8.9457480">
        <ele>13.2</ele>
        <time>2019-07-12T07:25:25Z</time>
      </trkpt>
      <trkpt lat="39.0029720" lon="-8.9457500">
        <ele>13.2</ele>
        <time>2019-07-12T07:25:27Z</time>
      </trkpt>
      <trkpt lat="39.0029350" lon="-8.9457450">
        <ele>13.2</ele>
        <time>2019-07-12T07:25:28Z</time>
      </trkpt>
      <trkpt lat="39.0028480" lon="-8.9457110">
        <ele>13.0</ele>
        <time>2019-07-12T07:25:30Z</time>
      </trkpt>
      <trkpt lat="39.0028090" lon="-8.9456800">
        <ele>12.6</ele>
        <time>2019-07-12T07:25:31Z</time>
      </trkpt>
      <trkpt lat="39.0027000" lon="-8.9455060">
        <ele>12.2</ele>
        <time>2019-07-12T07:25:35Z</time>
      </trkpt>
      <trkpt lat="39.0026700" lon="-8.9454650">
        <ele>12.0</ele>
        <time>2019-07-12T07:25:36Z</time>
      </trkpt>
      <trkpt lat="39.0025700" lon="-8.9453560">
        <ele>11.8</ele>
        <time>2019-07-12T07:25:39Z</time>
      </trkpt>
      <trkpt lat="39.0025380" lon="-8.9453190">
        <ele>11.6</ele>
        <time>2019-07-12T07:25:40Z</time>
      </trkpt>
      <trkpt lat="39.0025070" lon="-8.9452820">
        <ele>11.6</ele>
        <time>2019-07-12T07:25:41Z</time>
      </trkpt>
      <trkpt lat="39.0023790" lon="-8.9450870">
        <ele>11.6</ele>
        <time>2019-07-12T07:25:46Z</time>
      </trkpt>
      <trkpt lat="39.0022620" lon="-8.9450340">
        <ele>11.6</ele>
        <time>2019-07-12T07:25:50Z</time>
      </trkpt>
      <trkpt lat="39.0022350" lon="-8.9450520">
        <ele>11.6</ele>
        <time>2019-07-12T07:25:51Z</time>
      </trkpt>
      <trkpt lat="39.0022170" lon="-8.9451280">
        <ele>11.6</ele>
        <time>2019-07-12T07:25:53Z</time>
      </trkpt>
      <trkpt lat="39.0022940" lon="-8.9452940">
        <ele>11.8</ele>
        <time>2019-07-12T07:25:57Z</time>
      </trkpt>
      <trkpt lat="39.0023240" lon="-8.9453300">
        <ele>11.8</ele>
        <time>2019-07-12T07:25:58Z</time>
      </trkpt>
      <trkpt lat="39.0025020" lon="-8.9455690">
        <ele>12.0</ele>
        <time>2019-07-12T07:26:04Z</time>
      </trkpt>
      <trkpt lat="39.0026830" lon="-8.9458100">
        <ele>12.2</ele>
        <time>2019-07-12T07:26:10Z</time>
      </trkpt>
      <trkpt lat="39.0027580" lon="-8.9458680">
        <ele>12.4</ele>
        <time>2019-07-12T07:26:12Z</time>
      </trkpt>
      <trkpt lat="39.0028800" lon="-8.9459080">
        <ele>12.2</ele>
        <time>2019-07-12T07:26:15Z</time>
      </trkpt>
      <trkpt lat="39.0030070" lon="-8.9459340">
        <ele>12.2</ele>
        <time>2019-07-12T07:26:18Z</time>
      </trkpt>
      <trkpt lat="39.0030990" lon="-8.9460580">
        <ele>12.2</ele>
        <time>2019-07-12T07:26:21Z</time>
      </trkpt>
      <trkpt lat="39.0031260" lon="-8.9461050">
        <ele>12.2</ele>
        <time>2019-07-12T07:26:22Z</time>
      </trkpt>
      <trkpt lat="39.0032530" lon="-8.9463520">
        <ele>12.8</ele>
        <time>2019-07-12T07:26:27Z</time>
      </trkpt>
      <trkpt lat="39.0033660" lon="-8.9465570">
        <ele>13.0</ele>
        <time>2019-07-12T07:26:31Z</time>
      </trkpt>
      <trkpt lat="39.0036330" lon="-8.9470160">
        <ele>12.6</ele>
        <time>2019-07-12T07:26:40Z</time>
      </trkpt>
      <trkpt lat="39.0038860" lon="-8.9474460">
        <ele>12.8</ele>
        <time>2019-07-12T07:26:48Z</time>
      </trkpt>
      <trkpt lat="39.0040400" lon="-8.9477210">
        <ele>12.6</ele>
        <time>2019-07-12T07:26:53Z</time>
      </trkpt>
      <trkpt lat="39.0040760" lon="-8.9477720">
        <ele>12.6</ele>
        <time>2019-07-12T07:26:54Z</time>
      </trkpt>
      <trkpt lat="39.0043880" lon="-8.9481600">
        <ele>12.4</ele>
        <time>2019-07-12T07:27:02Z</time>
      </trkpt>
      <trkpt lat="39.0046950" lon="-8.9484220">
        <ele>12.6</ele>
        <time>2019-07-12T07:27:09Z</time>
      </trkpt>
      <trkpt lat="39.0050200" lon="-8.9486590">
        <ele>12.6</ele>
        <time>2019-07-12T07:27:16Z</time>
      </trkpt>
      <trkpt lat="39.0051090" lon="-8.9487150">
        <ele>12.6</ele>
        <time>2019-07-12T07:27:18Z</time>
      </trkpt>
      <trkpt lat="39.0054670" lon="-8.9489380">
        <ele>12.6</ele>
        <time>2019-07-12T07:27:26Z</time>
      </trkpt>
      <trkpt lat="39.0056280" lon="-8.9490490">
        <ele>12.6</ele>
        <time>2019-07-12T07:27:30Z</time>
      </trkpt>
      <trkpt lat="39.0057050" lon="-8.9490570">
        <ele>12.6</ele>
        <time>2019-07-12T07:27:32Z</time>
      </trkpt>
      <trkpt lat="39.0057700" lon="-8.9489510">
        <ele>13.0</ele>
        <time>2019-07-12T07:27:35Z</time>
      </trkpt>
      <trkpt lat="39.0057950" lon="-8.9489120">
        <ele>13.0</ele>
        <time>2019-07-12T07:27:36Z</time>
      </trkpt>
      <trkpt lat="39.0058730" lon="-8.9488800">
        <ele>13.0</ele>
        <time>2019-07-12T07:27:38Z</time>
      </trkpt>
      <trkpt lat="39.0060460" lon="-8.9489760">
        <ele>13.0</ele>
        <time>2019-07-12T07:27:42Z</time>
      </trkpt>
      <trkpt lat="39.0063870" lon="-8.9491900">
        <ele>12.8</ele>
        <time>2019-07-12T07:27:49Z</time>
      </trkpt>
      <trkpt lat="39.0064360" lon="-8.9492210">
        <ele>12.8</ele>
        <time>2019-07-12T07:27:50Z</time>
      </trkpt>
      <trkpt lat="39.0069310" lon="-8.9495390">
        <ele>13.2</ele>
        <time>2019-07-12T07:28:00Z</time>
      </trkpt>
      <trkpt lat="39.0069810" lon="-8.9495700">
        <ele>13.2</ele>
        <time>2019-07-12T07:28:01Z</time>
      </trkpt>
      <trkpt lat="39.0074910" lon="-8.9498950">
        <ele>13.4</ele>
        <time>2019-07-12T07:28:11Z</time>
      </trkpt>
      <trkpt lat="39.0075420" lon="-8.9499300">
        <ele>13.4</ele>
        <time>2019-07-12T07:28:12Z</time>
      </trkpt>
      <trkpt lat="39.0079650" lon="-8.9501890">
        <ele>13.4</ele>
        <time>2019-07-12T07:28:20Z</time>
      </trkpt>
      <trkpt lat="39.0083790" lon="-8.9504640">
        <ele>13.4</ele>
        <time>2019-07-12T07:28:28Z</time>
      </trkpt>
      <trkpt lat="39.0087290" lon="-8.9506950">
        <ele>13.2</ele>
        <time>2019-07-12T07:28:35Z</time>
      </trkpt>
      <trkpt lat="39.0088180" lon="-8.9507580">
        <ele>13.0</ele>
        <time>2019-07-12T07:28:37Z</time>
      </trkpt>
      <trkpt lat="39.0088820" lon="-8.9508160">
        <ele>13.2</ele>
        <time>2019-07-12T07:28:39Z</time>
      </trkpt>
      <trkpt lat="39.0088900" lon="-8.9508460">
        <ele>13.2</ele>
        <time>2019-07-12T07:28:40Z</time>
      </trkpt>
      <trkpt lat="39.0088900" lon="-8.9508890">
        <ele>13.2</ele>
        <time>2019-07-12T07:28:42Z</time>
      </trkpt>
      <trkpt lat="39.0089170" lon="-8.9509270">
        <ele>13.0</ele>
        <time>2019-07-12T07:28:45Z</time>
      </trkpt>
      <trkpt lat="39.0090390" lon="-8.9509390">
        <ele>13.0</ele>
        <time>2019-07-12T07:28:50Z</time>
      </trkpt>
      <trkpt lat="39.0090450" lon="-8.9510380">
        <ele>13.0</ele>
        <time>2019-07-12T07:28:53Z</time>
      </trkpt>
      <trkpt lat="39.0090040" lon="-8.9510650">
        <ele>12.8</ele>
        <time>2019-07-12T07:28:56Z</time>
      </trkpt>
      <trkpt lat="39.0089860" lon="-8.9510540">
        <ele>12.8</ele>
        <time>2019-07-12T07:28:57Z</time>
      </trkpt>
      <trkpt lat="39.0089510" lon="-8.9510320">
        <ele>12.8</ele>
        <time>2019-07-12T07:28:59Z</time>
      </trkpt>
      <trkpt lat="39.0088820" lon="-8.9509480">
        <ele>12.8</ele>
        <time>2019-07-12T07:29:03Z</time>
      </trkpt>
      <trkpt lat="39.0088280" lon="-8.9509270">
        <ele>13.0</ele>
        <time>2019-07-12T07:29:05Z</time>
      </trkpt>
      <trkpt lat="39.0087950" lon="-8.9509360">
        <ele>13.0</ele>
        <time>2019-07-12T07:29:06Z</time>
      </trkpt>
      <trkpt lat="39.0086570" lon="-8.9510280">
        <ele>12.6</ele>
        <time>2019-07-12T07:29:10Z</time>
      </trkpt>
      <trkpt lat="39.0085820" lon="-8.9510860">
        <ele>12.6</ele>
        <time>2019-07-12T07:29:12Z</time>
      </trkpt>
      <trkpt lat="39.0082920" lon="-8.9513120">
        <ele>12.6</ele>
        <time>2019-07-12T07:29:19Z</time>
      </trkpt>
      <trkpt lat="39.0081180" lon="-8.9514430">
        <ele>12.4</ele>
        <time>2019-07-12T07:29:23Z</time>
      </trkpt>
      <trkpt lat="39.0080230" lon="-8.9514930">
        <ele>12.6</ele>
        <time>2019-07-12T07:29:25Z</time>
      </trkpt>
      <trkpt lat="39.0076590" lon="-8.9517230">
        <ele>13.0</ele>
        <time>2019-07-12T07:29:33Z</time>
      </trkpt>
      <trkpt lat="39.0074780" lon="-8.9518400">
        <ele>12.8</ele>
        <time>2019-07-12T07:29:37Z</time>
      </trkpt>
      <trkpt lat="39.0073530" lon="-8.9519280">
        <ele>12.8</ele>
        <time>2019-07-12T07:29:40Z</time>
      </trkpt>
      <trkpt lat="39.0072100" lon="-8.9520850">
        <ele>12.6</ele>
        <time>2019-07-12T07:29:44Z</time>
      </trkpt>
      <trkpt lat="39.0071620" lon="-8.9521700">
        <ele>12.6</ele>
        <time>2019-07-12T07:29:47Z</time>
      </trkpt>
      <trkpt lat="39.0072010" lon="-8.9522920">
        <ele>12.6</ele>
        <time>2019-07-12T07:29:51Z</time>
      </trkpt>
      <trkpt lat="39.0072180" lon="-8.9523430">
        <ele>12.6</ele>
        <time>2019-07-12T07:29:53Z</time>
      </trkpt>
      <trkpt lat="39.0072040" lon="-8.9523650">
        <ele>12.6</ele>
        <time>2019-07-12T07:29:55Z</time>
      </trkpt>
      <trkpt lat="39.0071080" lon="-8.9524310">
        <ele>13.0</ele>
        <time>2019-07-12T07:30:01Z</time>
      </trkpt>
      <trkpt lat="39.0069060" lon="-8.9525770">
        <ele>12.8</ele>
        <time>2019-07-12T07:30:08Z</time>
      </trkpt>
      <trkpt lat="39.0068730" lon="-8.9526020">
        <ele>12.8</ele>
        <time>2019-07-12T07:30:09Z</time>
      </trkpt>
      <trkpt lat="39.0068020" lon="-8.9526590">
        <ele>12.6</ele>
        <time>2019-07-12T07:30:11Z</time>
      </trkpt>
      <trkpt lat="39.0066470" lon="-8.9527780">
        <ele>12.6</ele>
        <time>2019-07-12T07:30:15Z</time>
      </trkpt>
      <trkpt lat="39.0065000" lon="-8.9528890">
        <ele>12.4</ele>
        <time>2019-07-12T07:30:20Z</time>
      </trkpt>
      <trkpt lat="39.0064860" lon="-8.9528940">
        <ele>12.4</ele>
        <time>2019-07-12T07:30:23Z</time>
      </trkpt>
      <trkpt lat="39.0065300" lon="-8.9528610">
        <ele>12.4</ele>
        <time>2019-07-12T07:30:27Z</time>
      </trkpt>
      <trkpt lat="39.0066830" lon="-8.9527430">
        <ele>12.2</ele>
        <time>2019-07-12T07:30:33Z</time>
      </trkpt>
      <trkpt lat="39.0067050" lon="-8.9527150">
        <ele>12.2</ele>
        <time>2019-07-12T07:30:34Z</time>
      </trkpt>
      <trkpt lat="39.0067160" lon="-8.9526150">
        <ele>12.0</ele>
        <time>2019-07-12T07:30:36Z</time>
      </trkpt>
      <trkpt lat="39.0066330" lon="-8.9524690">
        <ele>12.0</ele>
        <time>2019-07-12T07:30:39Z</time>
      </trkpt>
      <trkpt lat="39.0065570" lon="-8.9523900">
        <ele>11.8</ele>
        <time>2019-07-12T07:30:41Z</time>
      </trkpt>
      <trkpt lat="39.0063550" lon="-8.9521800">
        <ele>11.6</ele>
        <time>2019-07-12T07:30:46Z</time>
      </trkpt>
      <trkpt lat="39.0060220" lon="-8.9518120">
        <ele>11.8</ele>
        <time>2019-07-12T07:30:54Z</time>
      </trkpt>
      <trkpt lat="39.0058170" lon="-8.9515650">
        <ele>11.6</ele>
        <time>2019-07-12T07:30:59Z</time>
      </trkpt>
      <trkpt lat="39.0057320" lon="-8.9514600">
        <ele>11.6</ele>
        <time>2019-07-12T07:31:01Z</time>
      </trkpt>
      <trkpt lat="39.0054800" lon="-8.9511490">
        <ele>11.6</ele>
        <time>2019-07-12T07:31:07Z</time>
      </trkpt>
      <trkpt lat="39.0051990" lon="-8.9508510">
        <ele>11.6</ele>
        <time>2019-07-12T07:31:13Z</time>
      </trkpt>
      <trkpt lat="39.0051520" lon="-8.9507990">
        <ele>11.6</ele>
        <time>2019-07-12T07:31:14Z</time>
      </trkpt>
      <trkpt lat="39.0047430" lon="-8.9503300">
        <ele>11.8</ele>
        <time>2019-07-12T07:31:23Z</time>
      </trkpt>
      <trkpt lat="39.0046530" lon="-8.9502200">
        <ele>11.8</ele>
        <time>2019-07-12T07:31:25Z</time>
      </trkpt>
      <trkpt lat="39.0042420" lon="-8.9497330">
        <ele>11.4</ele>
        <time>2019-07-12T07:31:34Z</time>
      </trkpt>
      <trkpt lat="39.0041960" lon="-8.9496820">
        <ele>11.4</ele>
        <time>2019-07-12T07:31:35Z</time>
      </trkpt>
      <trkpt lat="39.0037840" lon="-8.9491950">
        <ele>11.0</ele>
        <time>2019-07-12T07:31:44Z</time>
      </trkpt>
      <trkpt lat="39.0037390" lon="-8.9491380">
        <ele>11.0</ele>
        <time>2019-07-12T07:31:45Z</time>
      </trkpt>
      <trkpt lat="39.0036900" lon="-8.9490880">
        <ele>11.0</ele>
        <time>2019-07-12T07:31:46Z</time>
      </trkpt>
      <trkpt lat="39.0035160" lon="-8.9490150">
        <ele>11.0</ele>
        <time>2019-07-12T07:31:49Z</time>
      </trkpt>
      <trkpt lat="39.0033500" lon="-8.9491310">
        <ele>11.0</ele>
        <time>2019-07-12T07:31:52Z</time>
      </trkpt>
      <trkpt lat="39.0032700" lon="-8.9492530">
        <ele>11.0</ele>
        <time>2019-07-12T07:31:54Z</time>
      </trkpt>
      <trkpt lat="39.0031070" lon="-8.9494970">
        <ele>11.0</ele>
        <time>2019-07-12T07:31:58Z</time>
      </trkpt>
      <trkpt lat="39.0027360" lon="-8.9500180">
        <ele>11.2</ele>
        <time>2019-07-12T07:32:07Z</time>
      </trkpt>
      <trkpt lat="39.0023760" lon="-8.9505400">
        <ele>11.2</ele>
        <time>2019-07-12T07:32:16Z</time>
      </trkpt>
      <trkpt lat="39.0020930" lon="-8.9509700">
        <ele>11.6</ele>
        <time>2019-07-12T07:32:23Z</time>
      </trkpt>
      <trkpt lat="39.0020550" lon="-8.9510380">
        <ele>11.6</ele>
        <time>2019-07-12T07:32:24Z</time>
      </trkpt>
      <trkpt lat="39.0019050" lon="-8.9513140">
        <ele>11.8</ele>
        <time>2019-07-12T07:32:28Z</time>
      </trkpt>
      <trkpt lat="39.0017360" lon="-8.9516730">
        <ele>12.2</ele>
        <time>2019-07-12T07:32:33Z</time>
      </trkpt>
      <trkpt lat="39.0015110" lon="-8.9522870">
        <ele>12.2</ele>
        <time>2019-07-12T07:32:41Z</time>
      </trkpt>
      <trkpt lat="39.0013280" lon="-8.9529450">
        <ele>12.0</ele>
        <time>2019-07-12T07:32:49Z</time>
      </trkpt>
      <trkpt lat="39.0013080" lon="-8.9530280">
        <ele>12.0</ele>
        <time>2019-07-12T07:32:50Z</time>
      </trkpt>
      <trkpt lat="39.0011310" lon="-8.9537300">
        <ele>12.6</ele>
        <time>2019-07-12T07:32:59Z</time>
      </trkpt>
      <trkpt lat="39.0010720" lon="-8.9540000">
        <ele>12.4</ele>
        <time>2019-07-12T07:33:03Z</time>
      </trkpt>
      <trkpt lat="39.0010670" lon="-8.9541430">
        <ele>12.4</ele>
        <time>2019-07-12T07:33:05Z</time>
      </trkpt>
      <trkpt lat="39.0010610" lon="-8.9542910">
        <ele>12.4</ele>
        <time>2019-07-12T07:33:07Z</time>
      </trkpt>
      <trkpt lat="39.0010200" lon="-8.9544320">
        <ele>12.4</ele>
        <time>2019-07-12T07:33:09Z</time>
      </trkpt>
      <trkpt lat="39.0008980" lon="-8.9546140">
        <ele>12.2</ele>
        <time>2019-07-12T07:33:12Z</time>
      </trkpt>
      <trkpt lat="39.0008120" lon="-8.9547370">
        <ele>12.0</ele>
        <time>2019-07-12T07:33:14Z</time>
      </trkpt>
      <trkpt lat="39.0006980" lon="-8.9549370">
        <ele>11.6</ele>
        <time>2019-07-12T07:33:17Z</time>
      </trkpt>
      <trkpt lat="39.0005960" lon="-8.9551500">
        <ele>11.8</ele>
        <time>2019-07-12T07:33:20Z</time>
      </trkpt>
      <trkpt lat="39.0005560" lon="-8.9552170">
        <ele>11.8</ele>
        <time>2019-07-12T07:33:21Z</time>
      </trkpt>
      <trkpt lat="39.0003410" lon="-8.9555420">
        <ele>11.6</ele>
        <time>2019-07-12T07:33:26Z</time>
      </trkpt>
      <trkpt lat="39.0002970" lon="-8.9556070">
        <ele>11.6</ele>
        <time>2019-07-12T07:33:27Z</time>
      </trkpt>
      <trkpt lat="38.9999950" lon="-8.9560550">
        <ele>11.2</ele>
        <time>2019-07-12T07:33:34Z</time>
      </trkpt>
      <trkpt lat="38.9996680" lon="-8.9564970">
        <ele>11.4</ele>
        <time>2019-07-12T07:33:41Z</time>
      </trkpt>
      <trkpt lat="38.9995740" lon="-8.9566240">
        <ele>11.4</ele>
        <time>2019-07-12T07:33:43Z</time>
      </trkpt>
      <trkpt lat="38.9992050" lon="-8.9571480">
        <ele>11.4</ele>
        <time>2019-07-12T07:33:51Z</time>
      </trkpt>
      <trkpt lat="38.9990650" lon="-8.9573510">
        <ele>11.4</ele>
        <time>2019-07-12T07:33:54Z</time>
      </trkpt>
      <trkpt lat="38.9986870" lon="-8.9578670">
        <ele>11.2</ele>
        <time>2019-07-12T07:34:02Z</time>
      </trkpt>
      <trkpt lat="38.9983930" lon="-8.9582300">
        <ele>11.4</ele>
        <time>2019-07-12T07:34:08Z</time>
      </trkpt>
      <trkpt lat="38.9981060" lon="-8.9585730">
        <ele>11.4</ele>
        <time>2019-07-12T07:34:14Z</time>
      </trkpt>
      <trkpt lat="38.9976990" lon="-8.9589000">
        <ele>11.2</ele>
        <time>2019-07-12T07:34:21Z</time>
      </trkpt>
      <trkpt lat="38.9972070" lon="-8.9592380">
        <ele>11.4</ele>
        <time>2019-07-12T07:34:29Z</time>
      </trkpt>
      <trkpt lat="38.9970810" lon="-8.9593200">
        <ele>11.6</ele>
        <time>2019-07-12T07:34:31Z</time>
      </trkpt>
      <trkpt lat="38.9965930" lon="-8.9596740">
        <ele>11.8</ele>
        <time>2019-07-12T07:34:39Z</time>
      </trkpt>
      <trkpt lat="38.9962190" lon="-8.9599340">
        <ele>11.6</ele>
        <time>2019-07-12T07:34:45Z</time>
      </trkpt>
      <trkpt lat="38.9958330" lon="-8.9601980">
        <ele>11.6</ele>
        <time>2019-07-12T07:34:51Z</time>
      </trkpt>
      <trkpt lat="38.9955710" lon="-8.9603810">
        <ele>11.8</ele>
        <time>2019-07-12T07:34:55Z</time>
      </trkpt>
      <trkpt lat="38.9950410" lon="-8.9607440">
        <ele>12.2</ele>
        <time>2019-07-12T07:35:03Z</time>
      </trkpt>
      <trkpt lat="38.9949080" lon="-8.9608340">
        <ele>12.2</ele>
        <time>2019-07-12T07:35:05Z</time>
      </trkpt>
      <trkpt lat="38.9943750" lon="-8.9612000">
        <ele>12.2</ele>
        <time>2019-07-12T07:35:13Z</time>
      </trkpt>
      <trkpt lat="38.9942420" lon="-8.9612930">
        <ele>12.2</ele>
        <time>2019-07-12T07:35:15Z</time>
      </trkpt>
      <trkpt lat="38.9937130" lon="-8.9616720">
        <ele>12.6</ele>
        <time>2019-07-12T07:35:23Z</time>
      </trkpt>
      <trkpt lat="38.9935790" lon="-8.9617630">
        <ele>12.6</ele>
        <time>2019-07-12T07:35:25Z</time>
      </trkpt>
      <trkpt lat="38.9930390" lon="-8.9621440">
        <ele>12.6</ele>
        <time>2019-07-12T07:35:33Z</time>
      </trkpt>
      <trkpt lat="38.9928980" lon="-8.9622310">
        <ele>12.6</ele>
        <time>2019-07-12T07:35:35Z</time>
      </trkpt>
      <trkpt lat="38.9927600" lon="-8.9623190">
        <ele>12.8</ele>
        <time>2019-07-12T07:35:37Z</time>
      </trkpt>
      <trkpt lat="38.9922890" lon="-8.9626420">
        <ele>13.0</ele>
        <time>2019-07-12T07:35:44Z</time>
      </trkpt>
      <trkpt lat="38.9917560" lon="-8.9630290">
        <ele>13.2</ele>
        <time>2019-07-12T07:35:52Z</time>
      </trkpt>
      <trkpt lat="38.9915570" lon="-8.9631900">
        <ele>13.2</ele>
        <time>2019-07-12T07:35:55Z</time>
      </trkpt>
      <trkpt lat="38.9910980" lon="-8.9635580">
        <ele>13.2</ele>
        <time>2019-07-12T07:36:02Z</time>
      </trkpt>
      <trkpt lat="38.9909010" lon="-8.9637150">
        <ele>13.4</ele>
        <time>2019-07-12T07:36:05Z</time>
      </trkpt>
      <trkpt lat="38.9903810" lon="-8.9641300">
        <ele>13.8</ele>
        <time>2019-07-12T07:36:13Z</time>
      </trkpt>
      <trkpt lat="38.9898420" lon="-8.9645170">
        <ele>13.8</ele>
        <time>2019-07-12T07:36:21Z</time>
      </trkpt>
      <trkpt lat="38.9897740" lon="-8.9645650">
        <ele>13.8</ele>
        <time>2019-07-12T07:36:22Z</time>
      </trkpt>
      <trkpt lat="38.9894990" lon="-8.9647480">
        <ele>14.0</ele>
        <time>2019-07-12T07:36:26Z</time>
      </trkpt>
      <trkpt lat="38.9890320" lon="-8.9650690">
        <ele>14.2</ele>
        <time>2019-07-12T07:36:33Z</time>
      </trkpt>
      <trkpt lat="38.9885560" lon="-8.9654050">
        <ele>14.4</ele>
        <time>2019-07-12T07:36:40Z</time>
      </trkpt>
      <trkpt lat="38.9880680" lon="-8.9657480">
        <ele>14.0</ele>
        <time>2019-07-12T07:36:47Z</time>
      </trkpt>
      <trkpt lat="38.9879970" lon="-8.9657970">
        <ele>14.0</ele>
        <time>2019-07-12T07:36:48Z</time>
      </trkpt>
      <trkpt lat="38.9874970" lon="-8.9661520">
        <ele>14.4</ele>
        <time>2019-07-12T07:36:55Z</time>
      </trkpt>
      <trkpt lat="38.9872820" lon="-8.9663080">
        <ele>14.4</ele>
        <time>2019-07-12T07:36:58Z</time>
      </trkpt>
      <trkpt lat="38.9867880" lon="-8.9666630">
        <ele>14.2</ele>
        <time>2019-07-12T07:37:05Z</time>
      </trkpt>
      <trkpt lat="38.9865070" lon="-8.9668620">
        <ele>14.2</ele>
        <time>2019-07-12T07:37:09Z</time>
      </trkpt>
      <trkpt lat="38.9860970" lon="-8.9671470">
        <ele>14.2</ele>
        <time>2019-07-12T07:37:15Z</time>
      </trkpt>
      <trkpt lat="38.9859620" lon="-8.9672400">
        <ele>14.0</ele>
        <time>2019-07-12T07:37:17Z</time>
      </trkpt>
      <trkpt lat="38.9854320" lon="-8.9676120">
        <ele>13.8</ele>
        <time>2019-07-12T07:37:25Z</time>
      </trkpt>
      <trkpt lat="38.9853040" lon="-8.9677040">
        <ele>13.8</ele>
        <time>2019-07-12T07:37:27Z</time>
      </trkpt>
      <trkpt lat="38.9847780" lon="-8.9680730">
        <ele>14.2</ele>
        <time>2019-07-12T07:37:35Z</time>
      </trkpt>
      <trkpt lat="38.9845770" lon="-8.9682120">
        <ele>14.2</ele>
        <time>2019-07-12T07:37:38Z</time>
      </trkpt>
      <trkpt lat="38.9841180" lon="-8.9685480">
        <ele>14.4</ele>
        <time>2019-07-12T07:37:45Z</time>
      </trkpt>
      <trkpt lat="38.9839850" lon="-8.9686380">
        <ele>14.4</ele>
        <time>2019-07-12T07:37:47Z</time>
      </trkpt>
      <trkpt lat="38.9834570" lon="-8.9690170">
        <ele>14.2</ele>
        <time>2019-07-12T07:37:55Z</time>
      </trkpt>
      <trkpt lat="38.9833910" lon="-8.9690660">
        <ele>14.4</ele>
        <time>2019-07-12T07:37:56Z</time>
      </trkpt>
      <trkpt lat="38.9828650" lon="-8.9694470">
        <ele>14.2</ele>
        <time>2019-07-12T07:38:04Z</time>
      </trkpt>
      <trkpt lat="38.9826730" lon="-8.9695780">
        <ele>14.0</ele>
        <time>2019-07-12T07:38:07Z</time>
      </trkpt>
      <trkpt lat="38.9824860" lon="-8.9697090">
        <ele>14.0</ele>
        <time>2019-07-12T07:38:10Z</time>
      </trkpt>
      <trkpt lat="38.9822520" lon="-8.9698710">
        <ele>14.0</ele>
        <time>2019-07-12T07:38:14Z</time>
      </trkpt>
      <trkpt lat="38.9821940" lon="-8.9699020">
        <ele>14.0</ele>
        <time>2019-07-12T07:38:15Z</time>
      </trkpt>
      <trkpt lat="38.9820790" lon="-8.9699510">
        <ele>13.6</ele>
        <time>2019-07-12T07:38:17Z</time>
      </trkpt>
      <trkpt lat="38.9819970" lon="-8.9699680">
        <ele>13.4</ele>
        <time>2019-07-12T07:38:19Z</time>
      </trkpt>
      <trkpt lat="38.9819530" lon="-8.9699690">
        <ele>13.2</ele>
        <time>2019-07-12T07:38:21Z</time>
      </trkpt>
      <trkpt lat="38.9819360" lon="-8.9699740">
        <ele>13.0</ele>
        <time>2019-07-12T07:38:22Z</time>
      </trkpt>
      <trkpt lat="38.9819170" lon="-8.9699880">
        <ele>13.0</ele>
        <time>2019-07-12T07:38:23Z</time>
      </trkpt>
      <trkpt lat="38.9818140" lon="-8.9701100">
        <ele>13.0</ele>
        <time>2019-07-12T07:38:28Z</time>
      </trkpt>
      <trkpt lat="38.9816580" lon="-8.9701300">
        <ele>13.2</ele>
        <time>2019-07-12T07:38:32Z</time>
      </trkpt>
      <trkpt lat="38.9814810" lon="-8.9701070">
        <ele>13.2</ele>
        <time>2019-07-12T07:38:36Z</time>
      </trkpt>
      <trkpt lat="38.9813470" lon="-8.9701300">
        <ele>13.2</ele>
        <time>2019-07-12T07:38:39Z</time>
      </trkpt>
      <trkpt lat="38.9812010" lon="-8.9701760">
        <ele>13.2</ele>
        <time>2019-07-12T07:38:42Z</time>
      </trkpt>
      <trkpt lat="38.9810450" lon="-8.9702250">
        <ele>13.4</ele>
        <time>2019-07-12T07:38:45Z</time>
      </trkpt>
      <trkpt lat="38.9808820" lon="-8.9702460">
        <ele>13.6</ele>
        <time>2019-07-12T07:38:48Z</time>
      </trkpt>
      <trkpt lat="38.9807180" lon="-8.9702390">
        <ele>14.0</ele>
        <time>2019-07-12T07:38:51Z</time>
      </trkpt>
      <trkpt lat="38.9805520" lon="-8.9702110">
        <ele>14.2</ele>
        <time>2019-07-12T07:38:54Z</time>
      </trkpt>
      <trkpt lat="38.9804370" lon="-8.9702090">
        <ele>14.2</ele>
        <time>2019-07-12T07:38:56Z</time>
      </trkpt>
      <trkpt lat="38.9803790" lon="-8.9702180">
        <ele>14.2</ele>
        <time>2019-07-12T07:38:57Z</time>
      </trkpt>
      <trkpt lat="38.9800180" lon="-8.9703250">
        <ele>13.8</ele>
        <time>2019-07-12T07:39:03Z</time>
      </trkpt>
      <trkpt lat="38.9797870" lon="-8.9704480">
        <ele>13.8</ele>
        <time>2019-07-12T07:39:07Z</time>
      </trkpt>
      <trkpt lat="38.9796730" lon="-8.9705150">
        <ele>13.8</ele>
        <time>2019-07-12T07:39:09Z</time>
      </trkpt>
      <trkpt lat="38.9792540" lon="-8.9707270">
        <ele>13.6</ele>
        <time>2019-07-12T07:39:16Z</time>
      </trkpt>
      <trkpt lat="38.9790060" lon="-8.9708200">
        <ele>13.6</ele>
        <time>2019-07-12T07:39:20Z</time>
      </trkpt>
      <trkpt lat="38.9788880" lon="-8.9708960">
        <ele>13.8</ele>
        <time>2019-07-12T07:39:22Z</time>
      </trkpt>
      <trkpt lat="38.9787110" lon="-8.9710010">
        <ele>13.6</ele>
        <time>2019-07-12T07:39:25Z</time>
      </trkpt>
      <trkpt lat="38.9785870" lon="-8.9710440">
        <ele>13.6</ele>
        <time>2019-07-12T07:39:27Z</time>
      </trkpt>
      <trkpt lat="38.9785310" lon="-8.9710720">
        <ele>13.4</ele>
        <time>2019-07-12T07:39:28Z</time>
      </trkpt>
      <trkpt lat="38.9783890" lon="-8.9711960">
        <ele>13.4</ele>
        <time>2019-07-12T07:39:31Z</time>
      </trkpt>
      <trkpt lat="38.9783020" lon="-8.9712840">
        <ele>13.4</ele>
        <time>2019-07-12T07:39:33Z</time>
      </trkpt>
      <trkpt lat="38.9782540" lon="-8.9713210">
        <ele>13.4</ele>
        <time>2019-07-12T07:39:34Z</time>
      </trkpt>
      <trkpt lat="38.9781530" lon="-8.9713880">
        <ele>13.6</ele>
        <time>2019-07-12T07:39:36Z</time>
      </trkpt>
      <trkpt lat="38.9781000" lon="-8.9714220">
        <ele>13.6</ele>
        <time>2019-07-12T07:39:37Z</time>
      </trkpt>
      <trkpt lat="38.9777810" lon="-8.9716520">
        <ele>13.6</ele>
        <time>2019-07-12T07:39:43Z</time>
      </trkpt>
      <trkpt lat="38.9775580" lon="-8.9718100">
        <ele>13.6</ele>
        <time>2019-07-12T07:39:47Z</time>
      </trkpt>
      <trkpt lat="38.9773820" lon="-8.9719080">
        <ele>13.6</ele>
        <time>2019-07-12T07:39:50Z</time>
      </trkpt>
      <trkpt lat="38.9769970" lon="-8.9721740">
        <ele>13.6</ele>
        <time>2019-07-12T07:39:57Z</time>
      </trkpt>
      <trkpt lat="38.9766740" lon="-8.9723990">
        <ele>13.8</ele>
        <time>2019-07-12T07:40:03Z</time>
      </trkpt>
      <trkpt lat="38.9764080" lon="-8.9725870">
        <ele>14.0</ele>
        <time>2019-07-12T07:40:08Z</time>
      </trkpt>
      <trkpt lat="38.9763110" lon="-8.9726820">
        <ele>14.2</ele>
        <time>2019-07-12T07:40:10Z</time>
      </trkpt>
      <trkpt lat="38.9762680" lon="-8.9727380">
        <ele>14.2</ele>
        <time>2019-07-12T07:40:11Z</time>
      </trkpt>
      <trkpt lat="38.9761710" lon="-8.9729350">
        <ele>14.0</ele>
        <time>2019-07-12T07:40:14Z</time>
      </trkpt>
      <trkpt lat="38.9761500" lon="-8.9730070">
        <ele>13.8</ele>
        <time>2019-07-12T07:40:15Z</time>
      </trkpt>
      <trkpt lat="38.9761250" lon="-8.9730780">
        <ele>13.8</ele>
        <time>2019-07-12T07:40:16Z</time>
      </trkpt>
      <trkpt lat="38.9760380" lon="-8.9732860">
        <ele>13.6</ele>
        <time>2019-07-12T07:40:19Z</time>
      </trkpt>
      <trkpt lat="38.9759890" lon="-8.9736760">
        <ele>13.4</ele>
        <time>2019-07-12T07:40:24Z</time>
      </trkpt>
      <trkpt lat="38.9759780" lon="-8.9740280">
        <ele>13.2</ele>
        <time>2019-07-12T07:40:29Z</time>
      </trkpt>
      <trkpt lat="38.9759630" lon="-8.9741070">
        <ele>13.0</ele>
        <time>2019-07-12T07:40:31Z</time>
      </trkpt>
      <trkpt lat="38.9759640" lon="-8.9741400">
        <ele>13.0</ele>
        <time>2019-07-12T07:40:33Z</time>
      </trkpt>
      <trkpt lat="38.9759650" lon="-8.9741390">
        <ele>12.8</ele>
        <time>2019-07-12T07:40:34Z</time>
      </trkpt>
      <trkpt lat="38.9759660" lon="-8.9741370">
        <ele>12.8</ele>
        <time>2019-07-12T07:40:35Z</time>
      </trkpt>
      <trkpt lat="38.9760030" lon="-8.9741880">
        <ele>13.0</ele>
        <time>2019-07-12T07:41:25Z</time>
      </trkpt>
      <trkpt lat="38.9760110" lon="-8.9742100">
        <ele>13.0</ele>
        <time>2019-07-12T07:41:26Z</time>
      </trkpt>
      <trkpt lat="38.9760260" lon="-8.9743950">
        <ele>13.0</ele>
        <time>2019-07-12T07:41:32Z</time>
      </trkpt>
      <trkpt lat="38.9759450" lon="-8.9745270">
        <ele>13.2</ele>
        <time>2019-07-12T07:41:36Z</time>
      </trkpt>
      <trkpt lat="38.9757770" lon="-8.9746630">
        <ele>13.0</ele>
        <time>2019-07-12T07:41:41Z</time>
      </trkpt>
      <trkpt lat="38.9757390" lon="-8.9746890">
        <ele>13.0</ele>
        <time>2019-07-12T07:41:42Z</time>
      </trkpt>
      <trkpt lat="38.9757010" lon="-8.9747190">
        <ele>13.0</ele>
        <time>2019-07-12T07:41:43Z</time>
      </trkpt>
      <trkpt lat="38.9755800" lon="-8.9748010">
        <ele>13.4</ele>
        <time>2019-07-12T07:41:46Z</time>
      </trkpt>
      <trkpt lat="38.9754530" lon="-8.9748850">
        <ele>13.4</ele>
        <time>2019-07-12T07:41:49Z</time>
      </trkpt>
      <trkpt lat="38.9752300" lon="-8.9750290">
        <ele>13.2</ele>
        <time>2019-07-12T07:41:54Z</time>
      </trkpt>
      <trkpt lat="38.9751400" lon="-8.9750950">
        <ele>13.4</ele>
        <time>2019-07-12T07:41:56Z</time>
      </trkpt>
      <trkpt lat="38.9747700" lon="-8.9753520">
        <ele>13.6</ele>
        <time>2019-07-12T07:42:04Z</time>
      </trkpt>
      <trkpt lat="38.9744340" lon="-8.9755840">
        <ele>13.6</ele>
        <time>2019-07-12T07:42:11Z</time>
      </trkpt>
      <trkpt lat="38.9742900" lon="-8.9756910">
        <ele>13.4</ele>
        <time>2019-07-12T07:42:14Z</time>
      </trkpt>
      <trkpt lat="38.9741430" lon="-8.9757910">
        <ele>13.6</ele>
        <time>2019-07-12T07:42:17Z</time>
      </trkpt>
      <trkpt lat="38.9737250" lon="-8.9760590">
        <ele>13.6</ele>
        <time>2019-07-12T07:42:25Z</time>
      </trkpt>
      <trkpt lat="38.9732590" lon="-8.9763990">
        <ele>13.6</ele>
        <time>2019-07-12T07:42:34Z</time>
      </trkpt>
      <trkpt lat="38.9729480" lon="-8.9766300">
        <ele>13.4</ele>
        <time>2019-07-12T07:42:40Z</time>
      </trkpt>
      <trkpt lat="38.9726360" lon="-8.9768540">
        <ele>13.4</ele>
        <time>2019-07-12T07:42:46Z</time>
      </trkpt>
      <trkpt lat="38.9725280" lon="-8.9769250">
        <ele>13.4</ele>
        <time>2019-07-12T07:42:48Z</time>
      </trkpt>
      <trkpt lat="38.9722290" lon="-8.9771440">
        <ele>13.4</ele>
        <time>2019-07-12T07:42:54Z</time>
      </trkpt>
      <trkpt lat="38.9720920" lon="-8.9771500">
        <ele>13.4</ele>
        <time>2019-07-12T07:42:57Z</time>
      </trkpt>
      <trkpt lat="38.9719970" lon="-8.9770070">
        <ele>13.6</ele>
        <time>2019-07-12T07:43:00Z</time>
      </trkpt>
      <trkpt lat="38.9719730" lon="-8.9769520">
        <ele>13.6</ele>
        <time>2019-07-12T07:43:01Z</time>
      </trkpt>
      <trkpt lat="38.9718070" lon="-8.9765550">
        <ele>13.8</ele>
        <time>2019-07-12T07:43:08Z</time>
      </trkpt>
      <trkpt lat="38.9717150" lon="-8.9764130">
        <ele>13.8</ele>
        <time>2019-07-12T07:43:11Z</time>
      </trkpt>
      <trkpt lat="38.9716320" lon="-8.9763550">
        <ele>13.8</ele>
        <time>2019-07-12T07:43:13Z</time>
      </trkpt>
      <trkpt lat="38.9714940" lon="-8.9763810">
        <ele>13.6</ele>
        <time>2019-07-12T07:43:16Z</time>
      </trkpt>
      <trkpt lat="38.9714490" lon="-8.9764050">
        <ele>13.6</ele>
        <time>2019-07-12T07:43:17Z</time>
      </trkpt>
      <trkpt lat="38.9711180" lon="-8.9765880">
        <ele>13.8</ele>
        <time>2019-07-12T07:43:24Z</time>
      </trkpt>
      <trkpt lat="38.9707510" lon="-8.9767500">
        <ele>13.8</ele>
        <time>2019-07-12T07:43:31Z</time>
      </trkpt>
      <trkpt lat="38.9703730" lon="-8.9769040">
        <ele>13.8</ele>
        <time>2019-07-12T07:43:38Z</time>
      </trkpt>
      <trkpt lat="38.9699240" lon="-8.9770970">
        <ele>13.8</ele>
        <time>2019-07-12T07:43:46Z</time>
      </trkpt>
      <trkpt lat="38.9698680" lon="-8.9771220">
        <ele>13.8</ele>
        <time>2019-07-12T07:43:47Z</time>
      </trkpt>
      <trkpt lat="38.9695290" lon="-8.9772680">
        <ele>13.8</ele>
        <time>2019-07-12T07:43:53Z</time>
      </trkpt>
      <trkpt lat="38.9694200" lon="-8.9773320">
        <ele>13.8</ele>
        <time>2019-07-12T07:43:55Z</time>
      </trkpt>
      <trkpt lat="38.9690300" lon="-8.9775390">
        <ele>13.6</ele>
        <time>2019-07-12T07:44:02Z</time>
      </trkpt>
      <trkpt lat="38.9686980" lon="-8.9777150">
        <ele>13.8</ele>
        <time>2019-07-12T07:44:08Z</time>
      </trkpt>
      <trkpt lat="38.9684860" lon="-8.9778610">
        <ele>14.2</ele>
        <time>2019-07-12T07:44:12Z</time>
      </trkpt>
      <trkpt lat="38.9683740" lon="-8.9779170">
        <ele>14.2</ele>
        <time>2019-07-12T07:44:14Z</time>
      </trkpt>
      <trkpt lat="38.9681590" lon="-8.9780360">
        <ele>14.2</ele>
        <time>2019-07-12T07:44:18Z</time>
      </trkpt>
      <trkpt lat="38.9679570" lon="-8.9781680">
        <ele>14.4</ele>
        <time>2019-07-12T07:44:22Z</time>
      </trkpt>
      <trkpt lat="38.9679050" lon="-8.9781980">
        <ele>14.4</ele>
        <time>2019-07-12T07:44:23Z</time>
      </trkpt>
      <trkpt lat="38.9676880" lon="-8.9782880">
        <ele>14.8</ele>
        <time>2019-07-12T07:44:27Z</time>
      </trkpt>
      <trkpt lat="38.9676360" lon="-8.9783200">
        <ele>14.6</ele>
        <time>2019-07-12T07:44:28Z</time>
      </trkpt>
      <trkpt lat="38.9674320" lon="-8.9784470">
        <ele>14.6</ele>
        <time>2019-07-12T07:44:32Z</time>
      </trkpt>
      <trkpt lat="38.9672350" lon="-8.9785590">
        <ele>15.0</ele>
        <time>2019-07-12T07:44:36Z</time>
      </trkpt>
      <trkpt lat="38.9671190" lon="-8.9786430">
        <ele>15.0</ele>
        <time>2019-07-12T07:44:39Z</time>
      </trkpt>
      <trkpt lat="38.9669930" lon="-8.9786590">
        <ele>15.6</ele>
        <time>2019-07-12T07:44:43Z</time>
      </trkpt>
      <trkpt lat="38.9669520" lon="-8.9786460">
        <ele>15.6</ele>
        <time>2019-07-12T07:44:44Z</time>
      </trkpt>
      <trkpt lat="38.9667770" lon="-8.9785630">
        <ele>15.2</ele>
        <time>2019-07-12T07:44:48Z</time>
      </trkpt>
      <trkpt lat="38.9666850" lon="-8.9785250">
        <ele>15.0</ele>
        <time>2019-07-12T07:44:50Z</time>
      </trkpt>
      <trkpt lat="38.9664780" lon="-8.9784800">
        <ele>15.0</ele>
        <time>2019-07-12T07:44:54Z</time>
      </trkpt>
      <trkpt lat="38.9659580" lon="-8.9783680">
        <ele>14.6</ele>
        <time>2019-07-12T07:45:03Z</time>
      </trkpt>
      <trkpt lat="38.9655310" lon="-8.9782860">
        <ele>14.8</ele>
        <time>2019-07-12T07:45:10Z</time>
      </trkpt>
      <trkpt lat="38.9651660" lon="-8.9782020">
        <ele>14.8</ele>
        <time>2019-07-12T07:45:16Z</time>
      </trkpt>
      <trkpt lat="38.9647390" lon="-8.9781120">
        <ele>14.6</ele>
        <time>2019-07-12T07:45:23Z</time>
      </trkpt>
      <trkpt lat="38.9643630" lon="-8.9780410">
        <ele>14.8</ele>
        <time>2019-07-12T07:45:29Z</time>
      </trkpt>
      <trkpt lat="38.9641800" lon="-8.9779950">
        <ele>14.6</ele>
        <time>2019-07-12T07:45:32Z</time>
      </trkpt>
      <trkpt lat="38.9637350" lon="-8.9779210">
        <ele>14.6</ele>
        <time>2019-07-12T07:45:39Z</time>
      </trkpt>
      <trkpt lat="38.9632080" lon="-8.9778780">
        <ele>15.0</ele>
        <time>2019-07-12T07:45:47Z</time>
      </trkpt>
      <trkpt lat="38.9627400" lon="-8.9779720">
        <ele>14.8</ele>
        <time>2019-07-12T07:45:54Z</time>
      </trkpt>
      <trkpt lat="38.9623650" lon="-8.9781690">
        <ele>14.8</ele>
        <time>2019-07-12T07:46:00Z</time>
      </trkpt>
      <trkpt lat="38.9619770" lon="-8.9785280">
        <ele>15.0</ele>
        <time>2019-07-12T07:46:07Z</time>
      </trkpt>
      <trkpt lat="38.9615970" lon="-8.9790410">
        <ele>15.2</ele>
        <time>2019-07-12T07:46:15Z</time>
      </trkpt>
      <trkpt lat="38.9615490" lon="-8.9791060">
        <ele>15.2</ele>
        <time>2019-07-12T07:46:16Z</time>
      </trkpt>
      <trkpt lat="38.9611740" lon="-8.9796420">
        <ele>15.4</ele>
        <time>2019-07-12T07:46:24Z</time>
      </trkpt>
      <trkpt lat="38.9610320" lon="-8.9798490">
        <ele>15.6</ele>
        <time>2019-07-12T07:46:27Z</time>
      </trkpt>
      <trkpt lat="38.9606540" lon="-8.9803670">
        <ele>15.8</ele>
        <time>2019-07-12T07:46:35Z</time>
      </trkpt>
      <trkpt lat="38.9605140" lon="-8.9805580">
        <ele>15.8</ele>
        <time>2019-07-12T07:46:38Z</time>
      </trkpt>
      <trkpt lat="38.9601110" lon="-8.9810450">
        <ele>15.4</ele>
        <time>2019-07-12T07:46:46Z</time>
      </trkpt>
      <trkpt lat="38.9600600" lon="-8.9811070">
        <ele>15.4</ele>
        <time>2019-07-12T07:46:47Z</time>
      </trkpt>
      <trkpt lat="38.9596260" lon="-8.9815720">
        <ele>15.4</ele>
        <time>2019-07-12T07:46:55Z</time>
      </trkpt>
      <trkpt lat="38.9595700" lon="-8.9816270">
        <ele>15.4</ele>
        <time>2019-07-12T07:46:56Z</time>
      </trkpt>
      <trkpt lat="38.9591150" lon="-8.9820670">
        <ele>15.2</ele>
        <time>2019-07-12T07:47:04Z</time>
      </trkpt>
      <trkpt lat="38.9586580" lon="-8.9824890">
        <ele>15.4</ele>
        <time>2019-07-12T07:47:12Z</time>
      </trkpt>
      <trkpt lat="38.9586010" lon="-8.9825430">
        <ele>15.6</ele>
        <time>2019-07-12T07:47:13Z</time>
      </trkpt>
      <trkpt lat="38.9581580" lon="-8.9829890">
        <ele>15.4</ele>
        <time>2019-07-12T07:47:21Z</time>
      </trkpt>
      <trkpt lat="38.9577090" lon="-8.9834560">
        <ele>15.4</ele>
        <time>2019-07-12T07:47:29Z</time>
      </trkpt>
      <trkpt lat="38.9576020" lon="-8.9835790">
        <ele>15.2</ele>
        <time>2019-07-12T07:47:31Z</time>
      </trkpt>
      <trkpt lat="38.9573300" lon="-8.9838790">
        <ele>15.0</ele>
        <time>2019-07-12T07:47:36Z</time>
      </trkpt>
      <trkpt lat="38.9571210" lon="-8.9841230">
        <ele>15.0</ele>
        <time>2019-07-12T07:47:40Z</time>
      </trkpt>
      <trkpt lat="38.9570210" lon="-8.9842390">
        <ele>14.8</ele>
        <time>2019-07-12T07:47:42Z</time>
      </trkpt>
      <trkpt lat="38.9568700" lon="-8.9843890">
        <ele>14.8</ele>
        <time>2019-07-12T07:47:45Z</time>
      </trkpt>
      <trkpt lat="38.9567750" lon="-8.9844750">
        <ele>14.6</ele>
        <time>2019-07-12T07:47:47Z</time>
      </trkpt>
      <trkpt lat="38.9565710" lon="-8.9846570">
        <ele>15.2</ele>
        <time>2019-07-12T07:47:52Z</time>
      </trkpt>
      <trkpt lat="38.9565370" lon="-8.9846830">
        <ele>15.0</ele>
        <time>2019-07-12T07:47:53Z</time>
      </trkpt>
      <trkpt lat="38.9564780" lon="-8.9847440">
        <ele>15.0</ele>
        <time>2019-07-12T07:47:56Z</time>
      </trkpt>
      <trkpt lat="38.9564740" lon="-8.9847710">
        <ele>15.0</ele>
        <time>2019-07-12T07:47:57Z</time>
      </trkpt>
      <trkpt lat="38.9565060" lon="-8.9848600">
        <ele>14.8</ele>
        <time>2019-07-12T07:48:00Z</time>
      </trkpt>
      <trkpt lat="38.9565240" lon="-8.9848950">
        <ele>14.8</ele>
        <time>2019-07-12T07:48:01Z</time>
      </trkpt>
      <trkpt lat="38.9566010" lon="-8.9850640">
        <ele>14.8</ele>
        <time>2019-07-12T07:48:06Z</time>
      </trkpt>
      <trkpt lat="38.9566030" lon="-8.9850780">
        <ele>14.8</ele>
        <time>2019-07-12T07:48:07Z</time>
      </trkpt>
      <trkpt lat="38.9565810" lon="-8.9850630">
        <ele>14.6</ele>
        <time>2019-07-12T07:48:09Z</time>
      </trkpt>
      <trkpt lat="38.9565380" lon="-8.9850350">
        <ele>14.6</ele>
        <time>2019-07-12T07:48:12Z</time>
      </trkpt>
      <trkpt lat="38.9565170" lon="-8.9850460">
        <ele>14.6</ele>
        <time>2019-07-12T07:48:13Z</time>
      </trkpt>
      <trkpt lat="38.9564050" lon="-8.9851370">
        <ele>14.8</ele>
        <time>2019-07-12T07:48:17Z</time>
      </trkpt>
      <trkpt lat="38.9563700" lon="-8.9851610">
        <ele>15.0</ele>
        <time>2019-07-12T07:48:18Z</time>
      </trkpt>
      <trkpt lat="38.9561780" lon="-8.9852850">
        <ele>14.8</ele>
        <time>2019-07-12T07:48:23Z</time>
      </trkpt>
      <trkpt lat="38.9561330" lon="-8.9853030">
        <ele>14.8</ele>
        <time>2019-07-12T07:48:24Z</time>
      </trkpt>
      <trkpt lat="38.9560000" lon="-8.9853840">
        <ele>15.0</ele>
        <time>2019-07-12T07:48:27Z</time>
      </trkpt>
      <trkpt lat="38.9559110" lon="-8.9854460">
        <ele>15.0</ele>
        <time>2019-07-12T07:48:29Z</time>
      </trkpt>
      <trkpt lat="38.9558210" lon="-8.9855110">
        <ele>15.2</ele>
        <time>2019-07-12T07:48:31Z</time>
      </trkpt>
      <trkpt lat="38.9556370" lon="-8.9856360">
        <ele>15.0</ele>
        <time>2019-07-12T07:48:35Z</time>
      </trkpt>
      <trkpt lat="38.9555910" lon="-8.9856640">
        <ele>15.0</ele>
        <time>2019-07-12T07:48:36Z</time>
      </trkpt>
      <trkpt lat="38.9555460" lon="-8.9856930">
        <ele>15.0</ele>
        <time>2019-07-12T07:48:37Z</time>
      </trkpt>
      <trkpt lat="38.9553830" lon="-8.9858220">
        <ele>15.0</ele>
        <time>2019-07-12T07:48:41Z</time>
      </trkpt>
      <trkpt lat="38.9553390" lon="-8.9858550">
        <ele>15.0</ele>
        <time>2019-07-12T07:48:42Z</time>
      </trkpt>
      <trkpt lat="38.9551560" lon="-8.9859720">
        <ele>15.0</ele>
        <time>2019-07-12T07:48:46Z</time>
      </trkpt>
      <trkpt lat="38.9550710" lon="-8.9860510">
        <ele>15.0</ele>
        <time>2019-07-12T07:48:48Z</time>
      </trkpt>
      <trkpt lat="38.9549770" lon="-8.9861160">
        <ele>15.0</ele>
        <time>2019-07-12T07:48:50Z</time>
      </trkpt>
      <trkpt lat="38.9548430" lon="-8.9862210">
        <ele>15.2</ele>
        <time>2019-07-12T07:48:53Z</time>
      </trkpt>
      <trkpt lat="38.9546210" lon="-8.9863760">
        <ele>15.4</ele>
        <time>2019-07-12T07:48:58Z</time>
      </trkpt>
      <trkpt lat="38.9544760" lon="-8.9864730">
        <ele>15.4</ele>
        <time>2019-07-12T07:49:01Z</time>
      </trkpt>
      <trkpt lat="38.9543740" lon="-8.9865420">
        <ele>15.4</ele>
        <time>2019-07-12T07:49:03Z</time>
      </trkpt>
      <trkpt lat="38.9541280" lon="-8.9866900">
        <ele>15.6</ele>
        <time>2019-07-12T07:49:08Z</time>
      </trkpt>
      <trkpt lat="38.9540770" lon="-8.9867260">
        <ele>15.6</ele>
        <time>2019-07-12T07:49:09Z</time>
      </trkpt>
      <trkpt lat="38.9537960" lon="-8.9869330">
        <ele>15.4</ele>
        <time>2019-07-12T07:49:15Z</time>
      </trkpt>
      <trkpt lat="38.9534960" lon="-8.9871430">
        <ele>15.2</ele>
        <time>2019-07-12T07:49:21Z</time>
      </trkpt>
      <trkpt lat="38.9532220" lon="-8.9873580">
        <ele>15.0</ele>
        <time>2019-07-12T07:49:27Z</time>
      </trkpt>
      <trkpt lat="38.9530640" lon="-8.9874910">
        <ele>14.8</ele>
        <time>2019-07-12T07:49:31Z</time>
      </trkpt>
      <trkpt lat="38.9530280" lon="-8.9875250">
        <ele>14.6</ele>
        <time>2019-07-12T07:49:32Z</time>
      </trkpt>
      <trkpt lat="38.9529690" lon="-8.9876010">
        <ele>14.4</ele>
        <time>2019-07-12T07:49:34Z</time>
      </trkpt>
      <trkpt lat="38.9529180" lon="-8.9876710">
        <ele>14.2</ele>
        <time>2019-07-12T07:49:36Z</time>
      </trkpt>
      <trkpt lat="38.9528750" lon="-8.9877050">
        <ele>14.2</ele>
        <time>2019-07-12T07:49:38Z</time>
      </trkpt>
      <trkpt lat="38.9528000" lon="-8.9876970">
        <ele>14.2</ele>
        <time>2019-07-12T07:49:41Z</time>
      </trkpt>
      <trkpt lat="38.9527750" lon="-8.9876850">
        <ele>14.2</ele>
        <time>2019-07-12T07:49:42Z</time>
      </trkpt>
      <trkpt lat="38.9527480" lon="-8.9876670">
        <ele>14.2</ele>
        <time>2019-07-12T07:49:43Z</time>
      </trkpt>
      <trkpt lat="38.9527220" lon="-8.9876470">
        <ele>14.2</ele>
        <time>2019-07-12T07:49:44Z</time>
      </trkpt>
      <trkpt lat="38.9525590" lon="-8.9875460">
        <ele>14.0</ele>
        <time>2019-07-12T07:49:49Z</time>
      </trkpt>
      <trkpt lat="38.9523750" lon="-8.9874450">
        <ele>14.0</ele>
        <time>2019-07-12T07:49:55Z</time>
      </trkpt>
      <trkpt lat="38.9522720" lon="-8.9874650">
        <ele>13.8</ele>
        <time>2019-07-12T07:49:59Z</time>
      </trkpt>
      <trkpt lat="38.9522050" lon="-8.9876060">
        <ele>13.8</ele>
        <time>2019-07-12T07:50:04Z</time>
      </trkpt>
      <trkpt lat="38.9521110" lon="-8.9878130">
        <ele>13.8</ele>
        <time>2019-07-12T07:50:10Z</time>
      </trkpt>
      <trkpt lat="38.9520470" lon="-8.9879130">
        <ele>14.0</ele>
        <time>2019-07-12T07:50:13Z</time>
      </trkpt>
      <trkpt lat="38.9519880" lon="-8.9879800">
        <ele>14.2</ele>
        <time>2019-07-12T07:50:15Z</time>
      </trkpt>
      <trkpt lat="38.9517620" lon="-8.9881840">
        <ele>14.4</ele>
        <time>2019-07-12T07:50:21Z</time>
      </trkpt>
      <trkpt lat="38.9517220" lon="-8.9882220">
        <ele>14.2</ele>
        <time>2019-07-12T07:50:22Z</time>
      </trkpt>
      <trkpt lat="38.9515970" lon="-8.9883410">
        <ele>14.4</ele>
        <time>2019-07-12T07:50:25Z</time>
      </trkpt>
      <trkpt lat="38.9512910" lon="-8.9886330">
        <ele>14.4</ele>
        <time>2019-07-12T07:50:32Z</time>
      </trkpt>
      <trkpt lat="38.9509750" lon="-8.9889430">
        <ele>14.6</ele>
        <time>2019-07-12T07:50:39Z</time>
      </trkpt>
      <trkpt lat="38.9507430" lon="-8.9891750">
        <ele>14.4</ele>
        <time>2019-07-12T07:50:44Z</time>
      </trkpt>
      <trkpt lat="38.9506030" lon="-8.9893050">
        <ele>14.2</ele>
        <time>2019-07-12T07:50:47Z</time>
      </trkpt>
      <trkpt lat="38.9505530" lon="-8.9894040">
        <ele>14.2</ele>
        <time>2019-07-12T07:50:49Z</time>
      </trkpt>
      <trkpt lat="38.9506170" lon="-8.9895620">
        <ele>14.6</ele>
        <time>2019-07-12T07:50:52Z</time>
      </trkpt>
      <trkpt lat="38.9506590" lon="-8.9897220">
        <ele>14.6</ele>
        <time>2019-07-12T07:50:55Z</time>
      </trkpt>
      <trkpt lat="38.9505470" lon="-8.9898560">
        <ele>14.4</ele>
        <time>2019-07-12T07:50:58Z</time>
      </trkpt>
      <trkpt lat="38.9504970" lon="-8.9898890">
        <ele>14.2</ele>
        <time>2019-07-12T07:50:59Z</time>
      </trkpt>
      <trkpt lat="38.9502480" lon="-8.9900800">
        <ele>14.2</ele>
        <time>2019-07-12T07:51:04Z</time>
      </trkpt>
      <trkpt lat="38.9502000" lon="-8.9901230">
        <ele>14.0</ele>
        <time>2019-07-12T07:51:05Z</time>
      </trkpt>
      <trkpt lat="38.9498350" lon="-8.9903980">
        <ele>14.0</ele>
        <time>2019-07-12T07:51:12Z</time>
      </trkpt>
      <trkpt lat="38.9494000" lon="-8.9907100">
        <ele>14.0</ele>
        <time>2019-07-12T07:51:20Z</time>
      </trkpt>
      <trkpt lat="38.9488990" lon="-8.9910540">
        <ele>14.0</ele>
        <time>2019-07-12T07:51:29Z</time>
      </trkpt>
      <trkpt lat="38.9488430" lon="-8.9910900">
        <ele>14.0</ele>
        <time>2019-07-12T07:51:30Z</time>
      </trkpt>
      <trkpt lat="38.9483250" lon="-8.9914210">
        <ele>14.0</ele>
        <time>2019-07-12T07:51:39Z</time>
      </trkpt>
      <trkpt lat="38.9482110" lon="-8.9914940">
        <ele>14.2</ele>
        <time>2019-07-12T07:51:41Z</time>
      </trkpt>
      <trkpt lat="38.9476870" lon="-8.9918200">
        <ele>14.0</ele>
        <time>2019-07-12T07:51:50Z</time>
      </trkpt>
      <trkpt lat="38.9475120" lon="-8.9919320">
        <ele>14.2</ele>
        <time>2019-07-12T07:51:53Z</time>
      </trkpt>
      <trkpt lat="38.9472220" lon="-8.9921280">
        <ele>14.2</ele>
        <time>2019-07-12T07:51:58Z</time>
      </trkpt>
      <trkpt lat="38.9471110" lon="-8.9922010">
        <ele>14.4</ele>
        <time>2019-07-12T07:52:00Z</time>
      </trkpt>
      <trkpt lat="38.9468170" lon="-8.9923810">
        <ele>14.4</ele>
        <time>2019-07-12T07:52:05Z</time>
      </trkpt>
      <trkpt lat="38.9467560" lon="-8.9924200">
        <ele>14.4</ele>
        <time>2019-07-12T07:52:06Z</time>
      </trkpt>
      <trkpt lat="38.9465170" lon="-8.9925830">
        <ele>14.4</ele>
        <time>2019-07-12T07:52:10Z</time>
      </trkpt>
      <trkpt lat="38.9460320" lon="-8.9928970">
        <ele>14.4</ele>
        <time>2019-07-12T07:52:18Z</time>
      </trkpt>
      <trkpt lat="38.9455350" lon="-8.9932200">
        <ele>14.0</ele>
        <time>2019-07-12T07:52:26Z</time>
      </trkpt>
      <trkpt lat="38.9450310" lon="-8.9935500">
        <ele>14.4</ele>
        <time>2019-07-12T07:52:34Z</time>
      </trkpt>
      <trkpt lat="38.9449060" lon="-8.9936320">
        <ele>14.4</ele>
        <time>2019-07-12T07:52:36Z</time>
      </trkpt>
      <trkpt lat="38.9444080" lon="-8.9939580">
        <ele>14.2</ele>
        <time>2019-07-12T07:52:44Z</time>
      </trkpt>
      <trkpt lat="38.9443480" lon="-8.9940000">
        <ele>14.0</ele>
        <time>2019-07-12T07:52:45Z</time>
      </trkpt>
      <trkpt lat="38.9439110" lon="-8.9942410">
        <ele>14.2</ele>
        <time>2019-07-12T07:52:52Z</time>
      </trkpt>
      <trkpt lat="38.9434450" lon="-8.9945460">
        <ele>13.8</ele>
        <time>2019-07-12T07:53:00Z</time>
      </trkpt>
      <trkpt lat="38.9430460" lon="-8.9947770">
        <ele>14.0</ele>
        <time>2019-07-12T07:53:07Z</time>
      </trkpt>
      <trkpt lat="38.9427740" lon="-8.9949390">
        <ele>13.8</ele>
        <time>2019-07-12T07:53:12Z</time>
      </trkpt>
      <trkpt lat="38.9424940" lon="-8.9951130">
        <ele>13.8</ele>
        <time>2019-07-12T07:53:17Z</time>
      </trkpt>
      <trkpt lat="38.9424410" lon="-8.9951550">
        <ele>13.8</ele>
        <time>2019-07-12T07:53:18Z</time>
      </trkpt>
      <trkpt lat="38.9423430" lon="-8.9952540">
        <ele>13.6</ele>
        <time>2019-07-12T07:53:20Z</time>
      </trkpt>
      <trkpt lat="38.9422520" lon="-8.9953660">
        <ele>13.6</ele>
        <time>2019-07-12T07:53:22Z</time>
      </trkpt>
      <trkpt lat="38.9421020" lon="-8.9955190">
        <ele>13.6</ele>
        <time>2019-07-12T07:53:25Z</time>
      </trkpt>
      <trkpt lat="38.9419980" lon="-8.9956180">
        <ele>13.6</ele>
        <time>2019-07-12T07:53:27Z</time>
      </trkpt>
      <trkpt lat="38.9416560" lon="-8.9958940">
        <ele>13.8</ele>
        <time>2019-07-12T07:53:33Z</time>
      </trkpt>
      <trkpt lat="38.9411520" lon="-8.9963240">
        <ele>13.4</ele>
        <time>2019-07-12T07:53:42Z</time>
      </trkpt>
      <trkpt lat="38.9410430" lon="-8.9964260">
        <ele>13.4</ele>
        <time>2019-07-12T07:53:44Z</time>
      </trkpt>
      <trkpt lat="38.9405650" lon="-8.9968840">
        <ele>13.6</ele>
        <time>2019-07-12T07:53:53Z</time>
      </trkpt>
      <trkpt lat="38.9401920" lon="-8.9972470">
        <ele>13.4</ele>
        <time>2019-07-12T07:54:00Z</time>
      </trkpt>
      <trkpt lat="38.9398020" lon="-8.9976320">
        <ele>13.4</ele>
        <time>2019-07-12T07:54:07Z</time>
      </trkpt>
      <trkpt lat="38.9397440" lon="-8.9976850">
        <ele>13.2</ele>
        <time>2019-07-12T07:54:08Z</time>
      </trkpt>
      <trkpt lat="38.9392970" lon="-8.9981390">
        <ele>13.2</ele>
        <time>2019-07-12T07:54:16Z</time>
      </trkpt>
      <trkpt lat="38.9391300" lon="-8.9983060">
        <ele>13.2</ele>
        <time>2019-07-12T07:54:19Z</time>
      </trkpt>
      <trkpt lat="38.9386930" lon="-8.9987400">
        <ele>13.2</ele>
        <time>2019-07-12T07:54:27Z</time>
      </trkpt>
      <trkpt lat="38.9386360" lon="-8.9987940">
        <ele>13.2</ele>
        <time>2019-07-12T07:54:28Z</time>
      </trkpt>
      <trkpt lat="38.9381930" lon="-8.9992320">
        <ele>13.0</ele>
        <time>2019-07-12T07:54:36Z</time>
      </trkpt>
      <trkpt lat="38.9380820" lon="-8.9993400">
        <ele>13.0</ele>
        <time>2019-07-12T07:54:38Z</time>
      </trkpt>
      <trkpt lat="38.9376440" lon="-8.9997810">
        <ele>13.0</ele>
        <time>2019-07-12T07:54:46Z</time>
      </trkpt>
      <trkpt lat="38.9375900" lon="-8.9998350">
        <ele>13.0</ele>
        <time>2019-07-12T07:54:47Z</time>
      </trkpt>
      <trkpt lat="38.9371580" lon="-9.0002700">
        <ele>13.0</ele>
        <time>2019-07-12T07:54:55Z</time>
      </trkpt>
      <trkpt lat="38.9370530" lon="-9.0003780">
        <ele>12.8</ele>
        <time>2019-07-12T07:54:57Z</time>
      </trkpt>
      <trkpt lat="38.9366240" lon="-9.0008000">
        <ele>12.6</ele>
        <time>2019-07-12T07:55:05Z</time>
      </trkpt>
      <trkpt lat="38.9364500" lon="-9.0009420">
        <ele>12.6</ele>
        <time>2019-07-12T07:55:08Z</time>
      </trkpt>
      <trkpt lat="38.9359600" lon="-9.0012570">
        <ele>12.6</ele>
        <time>2019-07-12T07:55:16Z</time>
      </trkpt>
      <trkpt lat="38.9358980" lon="-9.0012950">
        <ele>12.6</ele>
        <time>2019-07-12T07:55:17Z</time>
      </trkpt>
      <trkpt lat="38.9354750" lon="-9.0015760">
        <ele>12.8</ele>
        <time>2019-07-12T07:55:24Z</time>
      </trkpt>
      <trkpt lat="38.9350080" lon="-9.0019490">
        <ele>12.6</ele>
        <time>2019-07-12T07:55:32Z</time>
      </trkpt>
      <trkpt lat="38.9345380" lon="-9.0023300">
        <ele>12.8</ele>
        <time>2019-07-12T07:55:40Z</time>
      </trkpt>
      <trkpt lat="38.9344810" lon="-9.0023750">
        <ele>12.8</ele>
        <time>2019-07-12T07:55:41Z</time>
      </trkpt>
      <trkpt lat="38.9341580" lon="-9.0026280">
        <ele>12.2</ele>
        <time>2019-07-12T07:55:47Z</time>
      </trkpt>
      <trkpt lat="38.9340630" lon="-9.0027130">
        <ele>12.2</ele>
        <time>2019-07-12T07:55:49Z</time>
      </trkpt>
      <trkpt lat="38.9337810" lon="-9.0029270">
        <ele>12.4</ele>
        <time>2019-07-12T07:55:55Z</time>
      </trkpt>
      <trkpt lat="38.9337020" lon="-9.0029990">
        <ele>12.4</ele>
        <time>2019-07-12T07:55:57Z</time>
      </trkpt>
      <trkpt lat="38.9336450" lon="-9.0030440">
        <ele>12.2</ele>
        <time>2019-07-12T07:56:00Z</time>
      </trkpt>
      <trkpt lat="38.9336390" lon="-9.0030480">
        <ele>12.2</ele>
        <time>2019-07-12T07:56:02Z</time>
      </trkpt>
      <trkpt lat="38.9336030" lon="-9.0030970">
        <ele>12.2</ele>
        <time>2019-07-12T07:56:32Z</time>
      </trkpt>
      <trkpt lat="38.9335850" lon="-9.0031310">
        <ele>12.2</ele>
        <time>2019-07-12T07:56:34Z</time>
      </trkpt>
      <trkpt lat="38.9335550" lon="-9.0031750">
        <ele>12.2</ele>
        <time>2019-07-12T07:56:36Z</time>
      </trkpt>
      <trkpt lat="38.9334830" lon="-9.0032620">
        <ele>12.2</ele>
        <time>2019-07-12T07:56:40Z</time>
      </trkpt>
      <trkpt lat="38.9334220" lon="-9.0033470">
        <ele>12.0</ele>
        <time>2019-07-12T07:56:44Z</time>
      </trkpt>
      <trkpt lat="38.9333810" lon="-9.0033920">
        <ele>12.0</ele>
        <time>2019-07-12T07:56:46Z</time>
      </trkpt>
      <trkpt lat="38.9332640" lon="-9.0034750">
        <ele>11.8</ele>
        <time>2019-07-12T07:56:50Z</time>
      </trkpt>
      <trkpt lat="38.9331630" lon="-9.0035500">
        <ele>11.8</ele>
        <time>2019-07-12T07:56:53Z</time>
      </trkpt>
      <trkpt lat="38.9329280" lon="-9.0037180">
        <ele>11.4</ele>
        <time>2019-07-12T07:56:59Z</time>
      </trkpt>
      <trkpt lat="38.9328430" lon="-9.0037780">
        <ele>11.2</ele>
        <time>2019-07-12T07:57:01Z</time>
      </trkpt>
      <trkpt lat="38.9326120" lon="-9.0039510">
        <ele>11.4</ele>
        <time>2019-07-12T07:57:07Z</time>
      </trkpt>
      <trkpt lat="38.9324700" lon="-9.0040790">
        <ele>11.6</ele>
        <time>2019-07-12T07:57:11Z</time>
      </trkpt>
      <trkpt lat="38.9324210" lon="-9.0041720">
        <ele>11.8</ele>
        <time>2019-07-12T07:57:13Z</time>
      </trkpt>
      <trkpt lat="38.9323770" lon="-9.0042740">
        <ele>11.8</ele>
        <time>2019-07-12T07:57:15Z</time>
      </trkpt>
      <trkpt lat="38.9323640" lon="-9.0044460">
        <ele>11.8</ele>
        <time>2019-07-12T07:57:18Z</time>
      </trkpt>
      <trkpt lat="38.9323720" lon="-9.0045000">
        <ele>11.8</ele>
        <time>2019-07-12T07:57:19Z</time>
      </trkpt>
      <trkpt lat="38.9323890" lon="-9.0047450">
        <ele>12.4</ele>
        <time>2019-07-12T07:57:24Z</time>
      </trkpt>
      <trkpt lat="38.9323090" lon="-9.0048320">
        <ele>12.8</ele>
        <time>2019-07-12T07:57:27Z</time>
      </trkpt>
      <trkpt lat="38.9322340" lon="-9.0048640">
        <ele>12.8</ele>
        <time>2019-07-12T07:57:29Z</time>
      </trkpt>
      <trkpt lat="38.9320700" lon="-9.0049350">
        <ele>12.8</ele>
        <time>2019-07-12T07:57:33Z</time>
      </trkpt>
      <trkpt lat="38.9317440" lon="-9.0050900">
        <ele>12.0</ele>
        <time>2019-07-12T07:57:40Z</time>
      </trkpt>
      <trkpt lat="38.9314390" lon="-9.0052340">
        <ele>11.4</ele>
        <time>2019-07-12T07:57:46Z</time>
      </trkpt>
      <trkpt lat="38.9312760" lon="-9.0052890">
        <ele>11.0</ele>
        <time>2019-07-12T07:57:49Z</time>
      </trkpt>
      <trkpt lat="38.9311670" lon="-9.0052830">
        <ele>10.8</ele>
        <time>2019-07-12T07:57:51Z</time>
      </trkpt>
      <trkpt lat="38.9309670" lon="-9.0051930">
        <ele>10.6</ele>
        <time>2019-07-12T07:57:55Z</time>
      </trkpt>
      <trkpt lat="38.9309190" lon="-9.0051620">
        <ele>10.6</ele>
        <time>2019-07-12T07:57:56Z</time>
      </trkpt>
      <trkpt lat="38.9307780" lon="-9.0050700">
        <ele>10.6</ele>
        <time>2019-07-12T07:57:59Z</time>
      </trkpt>
      <trkpt lat="38.9305800" lon="-9.0049650">
        <ele>10.6</ele>
        <time>2019-07-12T07:58:03Z</time>
      </trkpt>
      <trkpt lat="38.9305290" lon="-9.0049560">
        <ele>10.6</ele>
        <time>2019-07-12T07:58:04Z</time>
      </trkpt>
      <trkpt lat="38.9303790" lon="-9.0049990">
        <ele>10.6</ele>
        <time>2019-07-12T07:58:07Z</time>
      </trkpt>
      <trkpt lat="38.9303290" lon="-9.0050210">
        <ele>10.6</ele>
        <time>2019-07-12T07:58:08Z</time>
      </trkpt>
      <trkpt lat="38.9301770" lon="-9.0050710">
        <ele>10.2</ele>
        <time>2019-07-12T07:58:11Z</time>
      </trkpt>
      <trkpt lat="38.9300260" lon="-9.0051290">
        <ele>10.2</ele>
        <time>2019-07-12T07:58:14Z</time>
      </trkpt>
      <trkpt lat="38.9296810" lon="-9.0053110">
        <ele>10.2</ele>
        <time>2019-07-12T07:58:21Z</time>
      </trkpt>
      <trkpt lat="38.9296290" lon="-9.0053380">
        <ele>10.2</ele>
        <time>2019-07-12T07:58:22Z</time>
      </trkpt>
      <trkpt lat="38.9294750" lon="-9.0054130">
        <ele>10.0</ele>
        <time>2019-07-12T07:58:25Z</time>
      </trkpt>
      <trkpt lat="38.9294220" lon="-9.0054320">
        <ele>9.8</ele>
        <time>2019-07-12T07:58:26Z</time>
      </trkpt>
      <trkpt lat="38.9289920" lon="-9.0055830">
        <ele>9.6</ele>
        <time>2019-07-12T07:58:34Z</time>
      </trkpt>
      <trkpt lat="38.9286040" lon="-9.0056630">
        <ele>9.4</ele>
        <time>2019-07-12T07:58:41Z</time>
      </trkpt>
      <trkpt lat="38.9285500" lon="-9.0056790">
        <ele>9.4</ele>
        <time>2019-07-12T07:58:42Z</time>
      </trkpt>
      <trkpt lat="38.9283290" lon="-9.0057200">
        <ele>9.2</ele>
        <time>2019-07-12T07:58:46Z</time>
      </trkpt>
      <trkpt lat="38.9282190" lon="-9.0057440">
        <ele>9.0</ele>
        <time>2019-07-12T07:58:48Z</time>
      </trkpt>
      <trkpt lat="38.9279400" lon="-9.0057540">
        <ele>9.2</ele>
        <time>2019-07-12T07:58:53Z</time>
      </trkpt>
      <trkpt lat="38.9278840" lon="-9.0057420">
        <ele>9.2</ele>
        <time>2019-07-12T07:58:54Z</time>
      </trkpt>
      <trkpt lat="38.9277700" lon="-9.0057250">
        <ele>9.2</ele>
        <time>2019-07-12T07:58:56Z</time>
      </trkpt>
      <trkpt lat="38.9275990" lon="-9.0057490">
        <ele>9.0</ele>
        <time>2019-07-12T07:58:59Z</time>
      </trkpt>
      <trkpt lat="38.9272060" lon="-9.0058120">
        <ele>9.2</ele>
        <time>2019-07-12T07:59:06Z</time>
      </trkpt>
      <trkpt lat="38.9267530" lon="-9.0058630">
        <ele>8.8</ele>
        <time>2019-07-12T07:59:14Z</time>
      </trkpt>
      <trkpt lat="38.9265910" lon="-9.0058900">
        <ele>8.6</ele>
        <time>2019-07-12T07:59:17Z</time>
      </trkpt>
      <trkpt lat="38.9264890" lon="-9.0059460">
        <ele>8.6</ele>
        <time>2019-07-12T07:59:19Z</time>
      </trkpt>
      <trkpt lat="38.9263990" lon="-9.0060250">
        <ele>8.2</ele>
        <time>2019-07-12T07:59:21Z</time>
      </trkpt>
      <trkpt lat="38.9263520" lon="-9.0060640">
        <ele>8.2</ele>
        <time>2019-07-12T07:59:22Z</time>
      </trkpt>
      <trkpt lat="38.9262470" lon="-9.0061170">
        <ele>8.2</ele>
        <time>2019-07-12T07:59:24Z</time>
      </trkpt>
      <trkpt lat="38.9261370" lon="-9.0061380">
        <ele>8.4</ele>
        <time>2019-07-12T07:59:26Z</time>
      </trkpt>
      <trkpt lat="38.9259710" lon="-9.0061560">
        <ele>8.8</ele>
        <time>2019-07-12T07:59:29Z</time>
      </trkpt>
      <trkpt lat="38.9258640" lon="-9.0061830">
        <ele>8.8</ele>
        <time>2019-07-12T07:59:31Z</time>
      </trkpt>
      <trkpt lat="38.9257250" lon="-9.0062190">
        <ele>8.4</ele>
        <time>2019-07-12T07:59:34Z</time>
      </trkpt>
      <trkpt lat="38.9256040" lon="-9.0062150">
        <ele>8.0</ele>
        <time>2019-07-12T07:59:37Z</time>
      </trkpt>
      <trkpt lat="38.9255330" lon="-9.0061950">
        <ele>7.8</ele>
        <time>2019-07-12T07:59:39Z</time>
      </trkpt>
      <trkpt lat="38.9255000" lon="-9.0061790">
        <ele>7.8</ele>
        <time>2019-07-12T07:59:40Z</time>
      </trkpt>
      <trkpt lat="38.9253510" lon="-9.0061970">
        <ele>7.4</ele>
        <time>2019-07-12T07:59:44Z</time>
      </trkpt>
      <trkpt lat="38.9253150" lon="-9.0062240">
        <ele>7.4</ele>
        <time>2019-07-12T07:59:45Z</time>
      </trkpt>
      <trkpt lat="38.9252520" lon="-9.0063600">
        <ele>7.6</ele>
        <time>2019-07-12T07:59:48Z</time>
      </trkpt>
      <trkpt lat="38.9252620" lon="-9.0064730">
        <ele>7.8</ele>
        <time>2019-07-12T07:59:50Z</time>
      </trkpt>
      <trkpt lat="38.9252910" lon="-9.0065870">
        <ele>8.0</ele>
        <time>2019-07-12T07:59:52Z</time>
      </trkpt>
      <trkpt lat="38.9254410" lon="-9.0069730">
        <ele>8.2</ele>
        <time>2019-07-12T07:59:59Z</time>
      </trkpt>
      <trkpt lat="38.9255500" lon="-9.0072180">
        <ele>8.0</ele>
        <time>2019-07-12T08:00:04Z</time>
      </trkpt>
      <trkpt lat="38.9255760" lon="-9.0072580">
        <ele>8.0</ele>
        <time>2019-07-12T08:00:05Z</time>
      </trkpt>
      <trkpt lat="38.9256010" lon="-9.0073030">
        <ele>7.8</ele>
        <time>2019-07-12T08:00:06Z</time>
      </trkpt>
      <trkpt lat="38.9257270" lon="-9.0075180">
        <ele>7.8</ele>
        <time>2019-07-12T08:00:11Z</time>
      </trkpt>
      <trkpt lat="38.9258080" lon="-9.0076580">
        <ele>7.8</ele>
        <time>2019-07-12T08:00:14Z</time>
      </trkpt>
      <trkpt lat="38.9259050" lon="-9.0077860">
        <ele>7.6</ele>
        <time>2019-07-12T08:00:17Z</time>
      </trkpt>
      <trkpt lat="38.9261540" lon="-9.0080600">
        <ele>8.2</ele>
        <time>2019-07-12T08:00:24Z</time>
      </trkpt>
      <trkpt lat="38.9262960" lon="-9.0081950">
        <ele>8.2</ele>
        <time>2019-07-12T08:00:28Z</time>
      </trkpt>
      <trkpt lat="38.9263580" lon="-9.0082630">
        <ele>8.0</ele>
        <time>2019-07-12T08:00:30Z</time>
      </trkpt>
      <trkpt lat="38.9264030" lon="-9.0083330">
        <ele>8.0</ele>
        <time>2019-07-12T08:00:33Z</time>
      </trkpt>
      <trkpt lat="38.9264010" lon="-9.0083610">
        <ele>8.0</ele>
        <time>2019-07-12T08:00:34Z</time>
      </trkpt>
      <trkpt lat="38.9263270" lon="-9.0084970">
        <ele>8.0</ele>
        <time>2019-07-12T08:00:37Z</time>
      </trkpt>
      <trkpt lat="38.9262990" lon="-9.0085290">
        <ele>8.0</ele>
        <time>2019-07-12T08:00:38Z</time>
      </trkpt>
      <trkpt lat="38.9261100" lon="-9.0087480">
        <ele>7.8</ele>
        <time>2019-07-12T08:00:44Z</time>
      </trkpt>
      <trkpt lat="38.9260140" lon="-9.0088530">
        <ele>7.8</ele>
        <time>2019-07-12T08:00:47Z</time>
      </trkpt>
      <trkpt lat="38.9259620" lon="-9.0089150">
        <ele>8.0</ele>
        <time>2019-07-12T08:00:49Z</time>
      </trkpt>
      <trkpt lat="38.9258630" lon="-9.0090300">
        <ele>7.6</ele>
        <time>2019-07-12T08:00:54Z</time>
      </trkpt>
      <trkpt lat="38.9257990" lon="-9.0089720">
        <ele>7.6</ele>
        <time>2019-07-12T08:00:58Z</time>
      </trkpt>
      <trkpt lat="38.9257160" lon="-9.0088450">
        <ele>7.8</ele>
        <time>2019-07-12T08:01:03Z</time>
      </trkpt>
      <trkpt lat="38.9256430" lon="-9.0087460">
        <ele>7.8</ele>
        <time>2019-07-12T08:01:06Z</time>
      </trkpt>
      <trkpt lat="38.9255760" lon="-9.0087040">
        <ele>7.6</ele>
        <time>2019-07-12T08:01:08Z</time>
      </trkpt>
      <trkpt lat="38.9255380" lon="-9.0087040">
        <ele>7.4</ele>
        <time>2019-07-12T08:01:09Z</time>
      </trkpt>
      <trkpt lat="38.9254610" lon="-9.0087490">
        <ele>7.4</ele>
        <time>2019-07-12T08:01:11Z</time>
      </trkpt>
      <trkpt lat="38.9252390" lon="-9.0089860">
        <ele>7.6</ele>
        <time>2019-07-12T08:01:17Z</time>
      </trkpt>
      <trkpt lat="38.9249520" lon="-9.0092290">
        <ele>7.8</ele>
        <time>2019-07-12T08:01:24Z</time>
      </trkpt>
      <trkpt lat="38.9247220" lon="-9.0094160">
        <ele>7.8</ele>
        <time>2019-07-12T08:01:29Z</time>
      </trkpt>
      <trkpt lat="38.9246230" lon="-9.0094750">
        <ele>7.8</ele>
        <time>2019-07-12T08:01:31Z</time>
      </trkpt>
      <trkpt lat="38.9245220" lon="-9.0095370">
        <ele>7.8</ele>
        <time>2019-07-12T08:01:33Z</time>
      </trkpt>
      <trkpt lat="38.9244130" lon="-9.0096630">
        <ele>8.6</ele>
        <time>2019-07-12T08:01:36Z</time>
      </trkpt>
      <trkpt lat="38.9243790" lon="-9.0097640">
        <ele>9.0</ele>
        <time>2019-07-12T08:01:38Z</time>
      </trkpt>
      <trkpt lat="38.9243700" lon="-9.0098160">
        <ele>9.2</ele>
        <time>2019-07-12T08:01:39Z</time>
      </trkpt>
      <trkpt lat="38.9243620" lon="-9.0099150">
        <ele>10.2</ele>
        <time>2019-07-12T08:01:41Z</time>
      </trkpt>
      <trkpt lat="38.9243650" lon="-9.0100060">
        <ele>10.6</ele>
        <time>2019-07-12T08:01:43Z</time>
      </trkpt>
      <trkpt lat="38.9243690" lon="-9.0100520">
        <ele>11.0</ele>
        <time>2019-07-12T08:01:44Z</time>
      </trkpt>
      <trkpt lat="38.9243700" lon="-9.0101440">
        <ele>11.8</ele>
        <time>2019-07-12T08:01:46Z</time>
      </trkpt>
      <trkpt lat="38.9243700" lon="-9.0101930">
        <ele>12.0</ele>
        <time>2019-07-12T08:01:47Z</time>
      </trkpt>
      <trkpt lat="38.9243720" lon="-9.0102390">
        <ele>12.2</ele>
        <time>2019-07-12T08:01:48Z</time>
      </trkpt>
      <trkpt lat="38.9243770" lon="-9.0103260">
        <ele>12.6</ele>
        <time>2019-07-12T08:01:50Z</time>
      </trkpt>
      <trkpt lat="38.9243810" lon="-9.0104090">
        <ele>13.2</ele>
        <time>2019-07-12T08:01:52Z</time>
      </trkpt>
      <trkpt lat="38.9243920" lon="-9.0104900">
        <ele>13.8</ele>
        <time>2019-07-12T08:01:54Z</time>
      </trkpt>
      <trkpt lat="38.9244000" lon="-9.0105680">
        <ele>14.4</ele>
        <time>2019-07-12T08:01:56Z</time>
      </trkpt>
      <trkpt lat="38.9244320" lon="-9.0106720">
        <ele>15.2</ele>
        <time>2019-07-12T08:01:59Z</time>
      </trkpt>
      <trkpt lat="38.9244410" lon="-9.0107070">
        <ele>15.4</ele>
        <time>2019-07-12T08:02:00Z</time>
      </trkpt>
      <trkpt lat="38.9245000" lon="-9.0108640">
        <ele>16.6</ele>
        <time>2019-07-12T08:02:05Z</time>
      </trkpt>
      <trkpt lat="38.9245120" lon="-9.0108980">
        <ele>16.8</ele>
        <time>2019-07-12T08:02:06Z</time>
      </trkpt>
      <trkpt lat="38.9246130" lon="-9.0111650">
        <ele>17.4</ele>
        <time>2019-07-12T08:02:13Z</time>
      </trkpt>
      <trkpt lat="38.9247010" lon="-9.0113740">
        <ele>16.6</ele>
        <time>2019-07-12T08:02:18Z</time>
      </trkpt>
      <trkpt lat="38.9247400" lon="-9.0114320">
        <ele>15.8</ele>
        <time>2019-07-12T08:02:21Z</time>
      </trkpt>
      <trkpt lat="38.9247470" lon="-9.0114480">
        <ele>15.6</ele>
        <time>2019-07-12T08:02:22Z</time>
      </trkpt>
      <trkpt lat="38.9247530" lon="-9.0114640">
        <ele>15.4</ele>
        <time>2019-07-12T08:02:23Z</time>
      </trkpt>
      <trkpt lat="38.9247590" lon="-9.0114850">
        <ele>15.2</ele>
        <time>2019-07-12T08:02:25Z</time>
      </trkpt>
      <trkpt lat="38.9247600" lon="-9.0114880">
        <ele>15.0</ele>
        <time>2019-07-12T08:02:27Z</time>
      </trkpt>
      <trkpt lat="38.9247650" lon="-9.0115470">
        <ele>15.0</ele>
        <time>2019-07-12T08:02:40Z</time>
      </trkpt>
      <trkpt lat="38.9247410" lon="-9.0116200">
        <ele>14.8</ele>
        <time>2019-07-12T08:02:42Z</time>
      </trkpt>
      <trkpt lat="38.9247100" lon="-9.0116530">
        <ele>14.8</ele>
        <time>2019-07-12T08:02:43Z</time>
      </trkpt>
      <trkpt lat="38.9246350" lon="-9.0117170">
        <ele>14.6</ele>
        <time>2019-07-12T08:02:45Z</time>
      </trkpt>
      <trkpt lat="38.9245490" lon="-9.0117830">
        <ele>14.4</ele>
        <time>2019-07-12T08:02:47Z</time>
      </trkpt>
      <trkpt lat="38.9245030" lon="-9.0118200">
        <ele>14.2</ele>
        <time>2019-07-12T08:02:48Z</time>
      </trkpt>
      <trkpt lat="38.9242380" lon="-9.0120490">
        <ele>13.4</ele>
        <time>2019-07-12T08:02:53Z</time>
      </trkpt>
      <trkpt lat="38.9241170" lon="-9.0121500">
        <ele>13.4</ele>
        <time>2019-07-12T08:02:55Z</time>
      </trkpt>
      <trkpt lat="38.9239950" lon="-9.0122670">
        <ele>12.4</ele>
        <time>2019-07-12T08:02:57Z</time>
      </trkpt>
      <trkpt lat="38.9238680" lon="-9.0123880">
        <ele>12.0</ele>
        <time>2019-07-12T08:02:59Z</time>
      </trkpt>
      <trkpt lat="38.9236120" lon="-9.0126420">
        <ele>11.0</ele>
        <time>2019-07-12T08:03:03Z</time>
      </trkpt>
      <trkpt lat="38.9235530" lon="-9.0127110">
        <ele>10.8</ele>
        <time>2019-07-12T08:03:04Z</time>
      </trkpt>
      <trkpt lat="38.9234440" lon="-9.0128600">
        <ele>10.6</ele>
        <time>2019-07-12T08:03:06Z</time>
      </trkpt>
      <trkpt lat="38.9230460" lon="-9.0134540">
        <ele>10.2</ele>
        <time>2019-07-12T08:03:14Z</time>
      </trkpt>
      <trkpt lat="38.9229970" lon="-9.0135220">
        <ele>10.2</ele>
        <time>2019-07-12T08:03:15Z</time>
      </trkpt>
      <trkpt lat="38.9228340" lon="-9.0137660">
        <ele>10.4</ele>
        <time>2019-07-12T08:03:19Z</time>
      </trkpt>
      <trkpt lat="38.9226710" lon="-9.0140190">
        <ele>10.6</ele>
        <time>2019-07-12T08:03:23Z</time>
      </trkpt>
      <trkpt lat="38.9225890" lon="-9.0141580">
        <ele>10.6</ele>
        <time>2019-07-12T08:03:25Z</time>
      </trkpt>
      <trkpt lat="38.9222640" lon="-9.0146600">
        <ele>10.0</ele>
        <time>2019-07-12T08:03:32Z</time>
      </trkpt>
      <trkpt lat="38.9221690" lon="-9.0148100">
        <ele>9.8</ele>
        <time>2019-07-12T08:03:34Z</time>
      </trkpt>
      <trkpt lat="38.9218880" lon="-9.0152460">
        <ele>9.2</ele>
        <time>2019-07-12T08:03:40Z</time>
      </trkpt>
      <trkpt lat="38.9215040" lon="-9.0157490">
        <ele>9.6</ele>
        <time>2019-07-12T08:03:48Z</time>
      </trkpt>
      <trkpt lat="38.9210940" lon="-9.0161400">
        <ele>10.0</ele>
        <time>2019-07-12T08:03:56Z</time>
      </trkpt>
      <trkpt lat="38.9206260" lon="-9.0165590">
        <ele>8.8</ele>
        <time>2019-07-12T08:04:04Z</time>
      </trkpt>
      <trkpt lat="38.9201740" lon="-9.0169820">
        <ele>8.8</ele>
        <time>2019-07-12T08:04:12Z</time>
      </trkpt>
      <trkpt lat="38.9201230" lon="-9.0170370">
        <ele>8.8</ele>
        <time>2019-07-12T08:04:13Z</time>
      </trkpt>
      <trkpt lat="38.9197970" lon="-9.0174190">
        <ele>9.0</ele>
        <time>2019-07-12T08:04:20Z</time>
      </trkpt>
      <trkpt lat="38.9193830" lon="-9.0179270">
        <ele>8.8</ele>
        <time>2019-07-12T08:04:30Z</time>
      </trkpt>
      <trkpt lat="38.9193440" lon="-9.0179780">
        <ele>8.8</ele>
        <time>2019-07-12T08:04:31Z</time>
      </trkpt>
      <trkpt lat="38.9191900" lon="-9.0181820">
        <ele>9.0</ele>
        <time>2019-07-12T08:04:35Z</time>
      </trkpt>
      <trkpt lat="38.9190740" lon="-9.0183290">
        <ele>9.0</ele>
        <time>2019-07-12T08:04:38Z</time>
      </trkpt>
      <trkpt lat="38.9187330" lon="-9.0187430">
        <ele>9.6</ele>
        <time>2019-07-12T08:04:47Z</time>
      </trkpt>
      <trkpt lat="38.9184940" lon="-9.0190180">
        <ele>9.8</ele>
        <time>2019-07-12T08:04:53Z</time>
      </trkpt>
      <trkpt lat="38.9181090" lon="-9.0194630">
        <ele>8.6</ele>
        <time>2019-07-12T08:05:01Z</time>
      </trkpt>
      <trkpt lat="38.9180600" lon="-9.0195190">
        <ele>8.4</ele>
        <time>2019-07-12T08:05:02Z</time>
      </trkpt>
      <trkpt lat="38.9178100" lon="-9.0198080">
        <ele>8.0</ele>
        <time>2019-07-12T08:05:07Z</time>
      </trkpt>
      <trkpt lat="38.9175990" lon="-9.0200430">
        <ele>8.0</ele>
        <time>2019-07-12T08:05:11Z</time>
      </trkpt>
      <trkpt lat="38.9172660" lon="-9.0203660">
        <ele>7.8</ele>
        <time>2019-07-12T08:05:17Z</time>
      </trkpt>
      <trkpt lat="38.9168240" lon="-9.0207200">
        <ele>7.6</ele>
        <time>2019-07-12T08:05:25Z</time>
      </trkpt>
      <trkpt lat="38.9164480" lon="-9.0209130">
        <ele>8.2</ele>
        <time>2019-07-12T08:05:32Z</time>
      </trkpt>
      <trkpt lat="38.9162290" lon="-9.0210010">
        <ele>8.4</ele>
        <time>2019-07-12T08:05:36Z</time>
      </trkpt>
      <trkpt lat="38.9160860" lon="-9.0210630">
        <ele>8.6</ele>
        <time>2019-07-12T08:05:39Z</time>
      </trkpt>
      <trkpt lat="38.9160400" lon="-9.0210780">
        <ele>8.8</ele>
        <time>2019-07-12T08:05:40Z</time>
      </trkpt>
      <trkpt lat="38.9157830" lon="-9.0211530">
        <ele>9.2</ele>
        <time>2019-07-12T08:05:45Z</time>
      </trkpt>
      <trkpt lat="38.9156150" lon="-9.0211960">
        <ele>9.4</ele>
        <time>2019-07-12T08:05:48Z</time>
      </trkpt>
      <trkpt lat="38.9151540" lon="-9.0213360">
        <ele>9.2</ele>
        <time>2019-07-12T08:05:56Z</time>
      </trkpt>
      <trkpt lat="38.9148420" lon="-9.0214960">
        <ele>9.6</ele>
        <time>2019-07-12T08:06:02Z</time>
      </trkpt>
      <trkpt lat="38.9147970" lon="-9.0215290">
        <ele>9.6</ele>
        <time>2019-07-12T08:06:03Z</time>
      </trkpt>
      <trkpt lat="38.9146680" lon="-9.0216400">
        <ele>10.2</ele>
        <time>2019-07-12T08:06:06Z</time>
      </trkpt>
      <trkpt lat="38.9145160" lon="-9.0218050">
        <ele>11.2</ele>
        <time>2019-07-12T08:06:10Z</time>
      </trkpt>
      <trkpt lat="38.9144840" lon="-9.0218480">
        <ele>11.4</ele>
        <time>2019-07-12T08:06:11Z</time>
      </trkpt>
      <trkpt lat="38.9144020" lon="-9.0219810">
        <ele>12.4</ele>
        <time>2019-07-12T08:06:14Z</time>
      </trkpt>
      <trkpt lat="38.9143540" lon="-9.0220700">
        <ele>13.4</ele>
        <time>2019-07-12T08:06:16Z</time>
      </trkpt>
      <trkpt lat="38.9143300" lon="-9.0221160">
        <ele>13.6</ele>
        <time>2019-07-12T08:06:17Z</time>
      </trkpt>
      <trkpt lat="38.9142590" lon="-9.0222560">
        <ele>14.0</ele>
        <time>2019-07-12T08:06:20Z</time>
      </trkpt>
      <trkpt lat="38.9141840" lon="-9.0224030">
        <ele>14.6</ele>
        <time>2019-07-12T08:06:23Z</time>
      </trkpt>
      <trkpt lat="38.9141390" lon="-9.0225060">
        <ele>15.0</ele>
        <time>2019-07-12T08:06:25Z</time>
      </trkpt>
      <trkpt lat="38.9140390" lon="-9.0227030">
        <ele>15.6</ele>
        <time>2019-07-12T08:06:29Z</time>
      </trkpt>
      <trkpt lat="38.9139370" lon="-9.0228850">
        <ele>15.6</ele>
        <time>2019-07-12T08:06:33Z</time>
      </trkpt>
      <trkpt lat="38.9137320" lon="-9.0232040">
        <ele>15.2</ele>
        <time>2019-07-12T08:06:40Z</time>
      </trkpt>
      <trkpt lat="38.9136680" lon="-9.0232900">
        <ele>15.0</ele>
        <time>2019-07-12T08:06:42Z</time>
      </trkpt>
      <trkpt lat="38.9136170" lon="-9.0233590">
        <ele>15.0</ele>
        <time>2019-07-12T08:06:44Z</time>
      </trkpt>
      <trkpt lat="38.9135990" lon="-9.0233870">
        <ele>14.8</ele>
        <time>2019-07-12T08:06:45Z</time>
      </trkpt>
      <trkpt lat="38.9135590" lon="-9.0234370">
        <ele>14.6</ele>
        <time>2019-07-12T08:06:48Z</time>
      </trkpt>
      <trkpt lat="38.9135270" lon="-9.0234660">
        <ele>14.4</ele>
        <time>2019-07-12T08:06:50Z</time>
      </trkpt>
      <trkpt lat="38.9134750" lon="-9.0235200">
        <ele>14.4</ele>
        <time>2019-07-12T08:06:52Z</time>
      </trkpt>
      <trkpt lat="38.9134020" lon="-9.0235850">
        <ele>14.4</ele>
        <time>2019-07-12T08:06:54Z</time>
      </trkpt>
      <trkpt lat="38.9131820" lon="-9.0237810">
        <ele>14.4</ele>
        <time>2019-07-12T08:06:59Z</time>
      </trkpt>
      <trkpt lat="38.9130900" lon="-9.0238650">
        <ele>14.2</ele>
        <time>2019-07-12T08:07:01Z</time>
      </trkpt>
      <trkpt lat="38.9127410" lon="-9.0241560">
        <ele>14.0</ele>
        <time>2019-07-12T08:07:08Z</time>
      </trkpt>
      <trkpt lat="38.9125940" lon="-9.0242970">
        <ele>14.0</ele>
        <time>2019-07-12T08:07:11Z</time>
      </trkpt>
      <trkpt lat="38.9123950" lon="-9.0244770">
        <ele>14.4</ele>
        <time>2019-07-12T08:07:15Z</time>
      </trkpt>
      <trkpt lat="38.9122980" lon="-9.0245620">
        <ele>14.6</ele>
        <time>2019-07-12T08:07:17Z</time>
      </trkpt>
      <trkpt lat="38.9121080" lon="-9.0247360">
        <ele>15.4</ele>
        <time>2019-07-12T08:07:21Z</time>
      </trkpt>
      <trkpt lat="38.9117860" lon="-9.0250260">
        <ele>16.2</ele>
        <time>2019-07-12T08:07:28Z</time>
      </trkpt>
      <trkpt lat="38.9116030" lon="-9.0251870">
        <ele>16.4</ele>
        <time>2019-07-12T08:07:32Z</time>
      </trkpt>
      <trkpt lat="38.9113130" lon="-9.0254470">
        <ele>16.6</ele>
        <time>2019-07-12T08:07:38Z</time>
      </trkpt>
      <trkpt lat="38.9109460" lon="-9.0257650">
        <ele>16.4</ele>
        <time>2019-07-12T08:07:45Z</time>
      </trkpt>
      <trkpt lat="38.9106290" lon="-9.0260340">
        <ele>16.6</ele>
        <time>2019-07-12T08:07:51Z</time>
      </trkpt>
      <trkpt lat="38.9104680" lon="-9.0261360">
        <ele>17.0</ele>
        <time>2019-07-12T08:07:54Z</time>
      </trkpt>
      <trkpt lat="38.9101540" lon="-9.0263090">
        <ele>17.6</ele>
        <time>2019-07-12T08:08:00Z</time>
      </trkpt>
      <trkpt lat="38.9100520" lon="-9.0263750">
        <ele>18.0</ele>
        <time>2019-07-12T08:08:02Z</time>
      </trkpt>
      <trkpt lat="38.9096600" lon="-9.0266700">
        <ele>18.4</ele>
        <time>2019-07-12T08:08:10Z</time>
      </trkpt>
      <trkpt lat="38.9096130" lon="-9.0267110">
        <ele>18.6</ele>
        <time>2019-07-12T08:08:11Z</time>
      </trkpt>
      <trkpt lat="38.9092840" lon="-9.0270140">
        <ele>18.8</ele>
        <time>2019-07-12T08:08:18Z</time>
      </trkpt>
      <trkpt lat="38.9091870" lon="-9.0271090">
        <ele>18.8</ele>
        <time>2019-07-12T08:08:20Z</time>
      </trkpt>
      <trkpt lat="38.9088480" lon="-9.0275110">
        <ele>18.4</ele>
        <time>2019-07-12T08:08:27Z</time>
      </trkpt>
      <trkpt lat="38.9087290" lon="-9.0277500">
        <ele>17.8</ele>
        <time>2019-07-12T08:08:30Z</time>
      </trkpt>
      <trkpt lat="38.9086690" lon="-9.0279090">
        <ele>17.0</ele>
        <time>2019-07-12T08:08:32Z</time>
      </trkpt>
      <trkpt lat="38.9086490" lon="-9.0279900">
        <ele>16.6</ele>
        <time>2019-07-12T08:08:33Z</time>
      </trkpt>
      <trkpt lat="38.9086330" lon="-9.0281410">
        <ele>16.2</ele>
        <time>2019-07-12T08:08:35Z</time>
      </trkpt>
      <trkpt lat="38.9086300" lon="-9.0282120">
        <ele>16.0</ele>
        <time>2019-07-12T08:08:36Z</time>
      </trkpt>
      <trkpt lat="38.9086210" lon="-9.0282820">
        <ele>15.8</ele>
        <time>2019-07-12T08:08:37Z</time>
      </trkpt>
      <trkpt lat="38.9085640" lon="-9.0284040">
        <ele>15.4</ele>
        <time>2019-07-12T08:08:39Z</time>
      </trkpt>
      <trkpt lat="38.9084690" lon="-9.0284980">
        <ele>15.2</ele>
        <time>2019-07-12T08:08:41Z</time>
      </trkpt>
      <trkpt lat="38.9084200" lon="-9.0285490">
        <ele>15.0</ele>
        <time>2019-07-12T08:08:42Z</time>
      </trkpt>
      <trkpt lat="38.9083790" lon="-9.0286140">
        <ele>15.0</ele>
        <time>2019-07-12T08:08:43Z</time>
      </trkpt>
      <trkpt lat="38.9083440" lon="-9.0286870">
        <ele>14.8</ele>
        <time>2019-07-12T08:08:44Z</time>
      </trkpt>
      <trkpt lat="38.9082220" lon="-9.0289980">
        <ele>14.4</ele>
        <time>2019-07-12T08:08:48Z</time>
      </trkpt>
      <trkpt lat="38.9079920" lon="-9.0297040">
        <ele>14.6</ele>
        <time>2019-07-12T08:08:57Z</time>
      </trkpt>
      <trkpt lat="38.9079150" lon="-9.0299300">
        <ele>14.6</ele>
        <time>2019-07-12T08:09:00Z</time>
      </trkpt>
      <trkpt lat="38.9077810" lon="-9.0302270">
        <ele>14.6</ele>
        <time>2019-07-12T08:09:04Z</time>
      </trkpt>
      <trkpt lat="38.9075820" lon="-9.0305890">
        <ele>14.8</ele>
        <time>2019-07-12T08:09:09Z</time>
      </trkpt>
      <trkpt lat="38.9074580" lon="-9.0308000">
        <ele>14.6</ele>
        <time>2019-07-12T08:09:12Z</time>
      </trkpt>
      <trkpt lat="38.9074160" lon="-9.0308670">
        <ele>14.4</ele>
        <time>2019-07-12T08:09:13Z</time>
      </trkpt>
      <trkpt lat="38.9070460" lon="-9.0314670">
        <ele>14.4</ele>
        <time>2019-07-12T08:09:22Z</time>
      </trkpt>
      <trkpt lat="38.9069630" lon="-9.0316030">
        <ele>14.4</ele>
        <time>2019-07-12T08:09:24Z</time>
      </trkpt>
      <trkpt lat="38.9066110" lon="-9.0321410">
        <ele>14.4</ele>
        <time>2019-07-12T08:09:32Z</time>
      </trkpt>
      <trkpt lat="38.9063100" lon="-9.0326070">
        <ele>15.0</ele>
        <time>2019-07-12T08:09:39Z</time>
      </trkpt>
      <trkpt lat="38.9060230" lon="-9.0330480">
        <ele>15.0</ele>
        <time>2019-07-12T08:09:46Z</time>
      </trkpt>
      <trkpt lat="38.9056610" lon="-9.0335920">
        <ele>15.4</ele>
        <time>2019-07-12T08:09:55Z</time>
      </trkpt>
      <trkpt lat="38.9055800" lon="-9.0337120">
        <ele>15.6</ele>
        <time>2019-07-12T08:09:57Z</time>
      </trkpt>
      <trkpt lat="38.9055400" lon="-9.0337720">
        <ele>15.6</ele>
        <time>2019-07-12T08:09:58Z</time>
      </trkpt>
      <trkpt lat="38.9053790" lon="-9.0340010">
        <ele>16.0</ele>
        <time>2019-07-12T08:10:02Z</time>
      </trkpt>
      <trkpt lat="38.9052900" lon="-9.0341040">
        <ele>16.4</ele>
        <time>2019-07-12T08:10:04Z</time>
      </trkpt>
      <trkpt lat="38.9051960" lon="-9.0342000">
        <ele>16.8</ele>
        <time>2019-07-12T08:10:06Z</time>
      </trkpt>
      <trkpt lat="38.9050490" lon="-9.0343250">
        <ele>17.4</ele>
        <time>2019-07-12T08:10:09Z</time>
      </trkpt>
      <trkpt lat="38.9049980" lon="-9.0343640">
        <ele>17.6</ele>
        <time>2019-07-12T08:10:10Z</time>
      </trkpt>
      <trkpt lat="38.9049420" lon="-9.0343960">
        <ele>17.6</ele>
        <time>2019-07-12T08:10:11Z</time>
      </trkpt>
      <trkpt lat="38.9048260" lon="-9.0344410">
        <ele>17.8</ele>
        <time>2019-07-12T08:10:13Z</time>
      </trkpt>
      <trkpt lat="38.9047670" lon="-9.0344580">
        <ele>17.8</ele>
        <time>2019-07-12T08:10:14Z</time>
      </trkpt>
      <trkpt lat="38.9047080" lon="-9.0344800">
        <ele>17.8</ele>
        <time>2019-07-12T08:10:15Z</time>
      </trkpt>
      <trkpt lat="38.9045540" lon="-9.0346040">
        <ele>17.4</ele>
        <time>2019-07-12T08:10:18Z</time>
      </trkpt>
      <trkpt lat="38.9045020" lon="-9.0346450">
        <ele>17.2</ele>
        <time>2019-07-12T08:10:19Z</time>
      </trkpt>
      <trkpt lat="38.9043830" lon="-9.0346820">
        <ele>17.0</ele>
        <time>2019-07-12T08:10:21Z</time>
      </trkpt>
      <trkpt lat="38.9042550" lon="-9.0346710">
        <ele>16.8</ele>
        <time>2019-07-12T08:10:23Z</time>
      </trkpt>
      <trkpt lat="38.9041880" lon="-9.0346710">
        <ele>16.8</ele>
        <time>2019-07-12T08:10:24Z</time>
      </trkpt>
      <trkpt lat="38.9041210" lon="-9.0346820">
        <ele>16.8</ele>
        <time>2019-07-12T08:10:25Z</time>
      </trkpt>
      <trkpt lat="38.9039970" lon="-9.0347520">
        <ele>16.6</ele>
        <time>2019-07-12T08:10:27Z</time>
      </trkpt>
      <trkpt lat="38.9039420" lon="-9.0348040">
        <ele>16.6</ele>
        <time>2019-07-12T08:10:28Z</time>
      </trkpt>
      <trkpt lat="38.9038890" lon="-9.0348590">
        <ele>16.6</ele>
        <time>2019-07-12T08:10:29Z</time>
      </trkpt>
      <trkpt lat="38.9037890" lon="-9.0349690">
        <ele>16.8</ele>
        <time>2019-07-12T08:10:31Z</time>
      </trkpt>
      <trkpt lat="38.9036350" lon="-9.0351090">
        <ele>16.6</ele>
        <time>2019-07-12T08:10:34Z</time>
      </trkpt>
      <trkpt lat="38.9035810" lon="-9.0351480">
        <ele>16.6</ele>
        <time>2019-07-12T08:10:35Z</time>
      </trkpt>
      <trkpt lat="38.9034060" lon="-9.0352460">
        <ele>16.4</ele>
        <time>2019-07-12T08:10:38Z</time>
      </trkpt>
      <trkpt lat="38.9032260" lon="-9.0353380">
        <ele>16.2</ele>
        <time>2019-07-12T08:10:41Z</time>
      </trkpt>
      <trkpt lat="38.9029870" lon="-9.0354640">
        <ele>15.8</ele>
        <time>2019-07-12T08:10:45Z</time>
      </trkpt>
      <trkpt lat="38.9026680" lon="-9.0356420">
        <ele>15.8</ele>
        <time>2019-07-12T08:10:50Z</time>
      </trkpt>
      <trkpt lat="38.9025380" lon="-9.0357250">
        <ele>15.6</ele>
        <time>2019-07-12T08:10:52Z</time>
      </trkpt>
      <trkpt lat="38.9023690" lon="-9.0358450">
        <ele>15.0</ele>
        <time>2019-07-12T08:10:55Z</time>
      </trkpt>
      <trkpt lat="38.9023210" lon="-9.0358760">
        <ele>14.8</ele>
        <time>2019-07-12T08:10:56Z</time>
      </trkpt>
      <trkpt lat="38.9022760" lon="-9.0359060">
        <ele>14.6</ele>
        <time>2019-07-12T08:10:57Z</time>
      </trkpt>
      <trkpt lat="38.9021600" lon="-9.0359870">
        <ele>14.2</ele>
        <time>2019-07-12T08:11:00Z</time>
      </trkpt>
      <trkpt lat="38.9021230" lon="-9.0360180">
        <ele>14.2</ele>
        <time>2019-07-12T08:11:01Z</time>
      </trkpt>
      <trkpt lat="38.9020880" lon="-9.0360560">
        <ele>14.2</ele>
        <time>2019-07-12T08:11:02Z</time>
      </trkpt>
      <trkpt lat="38.9019940" lon="-9.0361750">
        <ele>14.6</ele>
        <time>2019-07-12T08:11:05Z</time>
      </trkpt>
      <trkpt lat="38.9018710" lon="-9.0362460">
        <ele>15.0</ele>
        <time>2019-07-12T08:11:08Z</time>
      </trkpt>
      <trkpt lat="38.9018210" lon="-9.0362620">
        <ele>15.0</ele>
        <time>2019-07-12T08:11:09Z</time>
      </trkpt>
      <trkpt lat="38.9017100" lon="-9.0362540">
        <ele>15.0</ele>
        <time>2019-07-12T08:11:11Z</time>
      </trkpt>
      <trkpt lat="38.9016040" lon="-9.0362300">
        <ele>14.8</ele>
        <time>2019-07-12T08:11:13Z</time>
      </trkpt>
      <trkpt lat="38.9015050" lon="-9.0362450">
        <ele>14.8</ele>
        <time>2019-07-12T08:11:15Z</time>
      </trkpt>
      <trkpt lat="38.9014000" lon="-9.0362920">
        <ele>14.6</ele>
        <time>2019-07-12T08:11:17Z</time>
      </trkpt>
      <trkpt lat="38.9011810" lon="-9.0364060">
        <ele>14.4</ele>
        <time>2019-07-12T08:11:21Z</time>
      </trkpt>
      <trkpt lat="38.9009720" lon="-9.0365210">
        <ele>14.2</ele>
        <time>2019-07-12T08:11:25Z</time>
      </trkpt>
      <trkpt lat="38.9007600" lon="-9.0366410">
        <ele>14.0</ele>
        <time>2019-07-12T08:11:29Z</time>
      </trkpt>
      <trkpt lat="38.9003890" lon="-9.0368520">
        <ele>13.8</ele>
        <time>2019-07-12T08:11:36Z</time>
      </trkpt>
      <trkpt lat="38.8999280" lon="-9.0370980">
        <ele>13.8</ele>
        <time>2019-07-12T08:11:44Z</time>
      </trkpt>
      <trkpt lat="38.8996550" lon="-9.0372420">
        <ele>13.4</ele>
        <time>2019-07-12T08:11:49Z</time>
      </trkpt>
      <trkpt lat="38.8996170" lon="-9.0372610">
        <ele>13.4</ele>
        <time>2019-07-12T08:11:50Z</time>
      </trkpt>
      <trkpt lat="38.8993370" lon="-9.0374040">
        <ele>13.2</ele>
        <time>2019-07-12T08:11:56Z</time>
      </trkpt>
      <trkpt lat="38.8989540" lon="-9.0376030">
        <ele>12.6</ele>
        <time>2019-07-12T08:12:03Z</time>
      </trkpt>
      <trkpt lat="38.8987590" lon="-9.0376950">
        <ele>12.6</ele>
        <time>2019-07-12T08:12:07Z</time>
      </trkpt>
      <trkpt lat="38.8986480" lon="-9.0377440">
        <ele>12.6</ele>
        <time>2019-07-12T08:12:09Z</time>
      </trkpt>
      <trkpt lat="38.8984640" lon="-9.0378330">
        <ele>12.6</ele>
        <time>2019-07-12T08:12:12Z</time>
      </trkpt>
      <trkpt lat="38.8983430" lon="-9.0378850">
        <ele>12.6</ele>
        <time>2019-07-12T08:12:14Z</time>
      </trkpt>
      <trkpt lat="38.8978310" lon="-9.0381300">
        <ele>12.8</ele>
        <time>2019-07-12T08:12:23Z</time>
      </trkpt>
      <trkpt lat="38.8974460" lon="-9.0383390">
        <ele>13.0</ele>
        <time>2019-07-12T08:12:30Z</time>
      </trkpt>
      <trkpt lat="38.8970480" lon="-9.0385480">
        <ele>13.0</ele>
        <time>2019-07-12T08:12:37Z</time>
      </trkpt>
      <trkpt lat="38.8966880" lon="-9.0387520">
        <ele>13.2</ele>
        <time>2019-07-12T08:12:43Z</time>
      </trkpt>
      <trkpt lat="38.8962880" lon="-9.0390170">
        <ele>13.4</ele>
        <time>2019-07-12T08:12:50Z</time>
      </trkpt>
      <trkpt lat="38.8962320" lon="-9.0390530">
        <ele>13.4</ele>
        <time>2019-07-12T08:12:51Z</time>
      </trkpt>
      <trkpt lat="38.8957850" lon="-9.0393720">
        <ele>13.4</ele>
        <time>2019-07-12T08:12:59Z</time>
      </trkpt>
      <trkpt lat="38.8955130" lon="-9.0396100">
        <ele>13.2</ele>
        <time>2019-07-12T08:13:04Z</time>
      </trkpt>
      <trkpt lat="38.8954650" lon="-9.0396650">
        <ele>13.0</ele>
        <time>2019-07-12T08:13:05Z</time>
      </trkpt>
      <trkpt lat="38.8952700" lon="-9.0398770">
        <ele>12.8</ele>
        <time>2019-07-12T08:13:09Z</time>
      </trkpt>
      <trkpt lat="38.8951770" lon="-9.0399920">
        <ele>12.6</ele>
        <time>2019-07-12T08:13:11Z</time>
      </trkpt>
      <trkpt lat="38.8947600" lon="-9.0405250">
        <ele>12.6</ele>
        <time>2019-07-12T08:13:20Z</time>
      </trkpt>
      <trkpt lat="38.8944780" lon="-9.0408590">
        <ele>13.4</ele>
        <time>2019-07-12T08:13:26Z</time>
      </trkpt>
      <trkpt lat="38.8944310" lon="-9.0409100">
        <ele>13.4</ele>
        <time>2019-07-12T08:13:27Z</time>
      </trkpt>
      <trkpt lat="38.8940930" lon="-9.0412030">
        <ele>13.8</ele>
        <time>2019-07-12T08:13:34Z</time>
      </trkpt>
      <trkpt lat="38.8938310" lon="-9.0414120">
        <ele>14.0</ele>
        <time>2019-07-12T08:13:40Z</time>
      </trkpt>
      <trkpt lat="38.8936770" lon="-9.0415390">
        <ele>14.0</ele>
        <time>2019-07-12T08:13:44Z</time>
      </trkpt>
      <trkpt lat="38.8935640" lon="-9.0416490">
        <ele>13.8</ele>
        <time>2019-07-12T08:13:47Z</time>
      </trkpt>
      <trkpt lat="38.8935260" lon="-9.0416910">
        <ele>13.6</ele>
        <time>2019-07-12T08:13:48Z</time>
      </trkpt>
      <trkpt lat="38.8933790" lon="-9.0417910">
        <ele>13.6</ele>
        <time>2019-07-12T08:13:51Z</time>
      </trkpt>
      <trkpt lat="38.8932670" lon="-9.0418530">
        <ele>13.6</ele>
        <time>2019-07-12T08:13:53Z</time>
      </trkpt>
      <trkpt lat="38.8930390" lon="-9.0419860">
        <ele>13.6</ele>
        <time>2019-07-12T08:13:57Z</time>
      </trkpt>
      <trkpt lat="38.8927560" lon="-9.0421490">
        <ele>13.8</ele>
        <time>2019-07-12T08:14:02Z</time>
      </trkpt>
      <trkpt lat="38.8923450" lon="-9.0423020">
        <ele>14.0</ele>
        <time>2019-07-12T08:14:09Z</time>
      </trkpt>
      <trkpt lat="38.8919060" lon="-9.0424580">
        <ele>13.6</ele>
        <time>2019-07-12T08:14:16Z</time>
      </trkpt>
      <trkpt lat="38.8915200" lon="-9.0426600">
        <ele>13.2</ele>
        <time>2019-07-12T08:14:22Z</time>
      </trkpt>
      <trkpt lat="38.8910370" lon="-9.0429980">
        <ele>13.4</ele>
        <time>2019-07-12T08:14:30Z</time>
      </trkpt>
      <trkpt lat="38.8907110" lon="-9.0432500">
        <ele>13.8</ele>
        <time>2019-07-12T08:14:36Z</time>
      </trkpt>
      <trkpt lat="38.8906120" lon="-9.0433340">
        <ele>13.8</ele>
        <time>2019-07-12T08:14:38Z</time>
      </trkpt>
      <trkpt lat="38.8905630" lon="-9.0433690">
        <ele>13.8</ele>
        <time>2019-07-12T08:14:39Z</time>
      </trkpt>
      <trkpt lat="38.8903640" lon="-9.0435000">
        <ele>14.4</ele>
        <time>2019-07-12T08:14:43Z</time>
      </trkpt>
      <trkpt lat="38.8901250" lon="-9.0436670">
        <ele>15.0</ele>
        <time>2019-07-12T08:14:48Z</time>
      </trkpt>
      <trkpt lat="38.8900770" lon="-9.0436990">
        <ele>15.2</ele>
        <time>2019-07-12T08:14:49Z</time>
      </trkpt>
      <trkpt lat="38.8899850" lon="-9.0437680">
        <ele>15.6</ele>
        <time>2019-07-12T08:14:51Z</time>
      </trkpt>
      <trkpt lat="38.8898460" lon="-9.0438880">
        <ele>16.2</ele>
        <time>2019-07-12T08:14:54Z</time>
      </trkpt>
      <trkpt lat="38.8897500" lon="-9.0439660">
        <ele>16.4</ele>
        <time>2019-07-12T08:14:56Z</time>
      </trkpt>
      <trkpt lat="38.8897000" lon="-9.0440020">
        <ele>16.4</ele>
        <time>2019-07-12T08:14:57Z</time>
      </trkpt>
      <trkpt lat="38.8895480" lon="-9.0441010">
        <ele>16.6</ele>
        <time>2019-07-12T08:15:00Z</time>
      </trkpt>
      <trkpt lat="38.8893970" lon="-9.0442000">
        <ele>16.8</ele>
        <time>2019-07-12T08:15:03Z</time>
      </trkpt>
      <trkpt lat="38.8893500" lon="-9.0442370">
        <ele>17.0</ele>
        <time>2019-07-12T08:15:04Z</time>
      </trkpt>
      <trkpt lat="38.8892050" lon="-9.0443530">
        <ele>17.4</ele>
        <time>2019-07-12T08:15:07Z</time>
      </trkpt>
      <trkpt lat="38.8890530" lon="-9.0444760">
        <ele>17.4</ele>
        <time>2019-07-12T08:15:10Z</time>
      </trkpt>
      <trkpt lat="38.8887990" lon="-9.0447040">
        <ele>17.4</ele>
        <time>2019-07-12T08:15:15Z</time>
      </trkpt>
      <trkpt lat="38.8885390" lon="-9.0449380">
        <ele>17.0</ele>
        <time>2019-07-12T08:15:20Z</time>
      </trkpt>
      <trkpt lat="38.8883780" lon="-9.0450940">
        <ele>16.6</ele>
        <time>2019-07-12T08:15:23Z</time>
      </trkpt>
      <trkpt lat="38.8882680" lon="-9.0452080">
        <ele>16.4</ele>
        <time>2019-07-12T08:15:25Z</time>
      </trkpt>
      <trkpt lat="38.8881510" lon="-9.0453220">
        <ele>16.0</ele>
        <time>2019-07-12T08:15:27Z</time>
      </trkpt>
      <trkpt lat="38.8880920" lon="-9.0453790">
        <ele>15.8</ele>
        <time>2019-07-12T08:15:28Z</time>
      </trkpt>
      <trkpt lat="38.8879770" lon="-9.0454990">
        <ele>15.2</ele>
        <time>2019-07-12T08:15:30Z</time>
      </trkpt>
      <trkpt lat="38.8879170" lon="-9.0455570">
        <ele>15.0</ele>
        <time>2019-07-12T08:15:31Z</time>
      </trkpt>
      <trkpt lat="38.8878550" lon="-9.0456140">
        <ele>15.0</ele>
        <time>2019-07-12T08:15:32Z</time>
      </trkpt>
      <trkpt lat="38.8877920" lon="-9.0456700">
        <ele>14.8</ele>
        <time>2019-07-12T08:15:33Z</time>
      </trkpt>
      <trkpt lat="38.8876710" lon="-9.0457750">
        <ele>14.4</ele>
        <time>2019-07-12T08:15:35Z</time>
      </trkpt>
      <trkpt lat="38.8876210" lon="-9.0458180">
        <ele>14.4</ele>
        <time>2019-07-12T08:15:36Z</time>
      </trkpt>
      <trkpt lat="38.8875720" lon="-9.0458540">
        <ele>14.2</ele>
        <time>2019-07-12T08:15:37Z</time>
      </trkpt>
      <trkpt lat="38.8875220" lon="-9.0458850">
        <ele>14.0</ele>
        <time>2019-07-12T08:15:38Z</time>
      </trkpt>
      <trkpt lat="38.8874710" lon="-9.0459130">
        <ele>13.8</ele>
        <time>2019-07-12T08:15:39Z</time>
      </trkpt>
      <trkpt lat="38.8873700" lon="-9.0459830">
        <ele>13.8</ele>
        <time>2019-07-12T08:15:41Z</time>
      </trkpt>
      <trkpt lat="38.8872470" lon="-9.0461210">
        <ele>13.8</ele>
        <time>2019-07-12T08:15:44Z</time>
      </trkpt>
      <trkpt lat="38.8871600" lon="-9.0462000">
        <ele>13.8</ele>
        <time>2019-07-12T08:15:46Z</time>
      </trkpt>
      <trkpt lat="38.8870290" lon="-9.0463190">
        <ele>13.8</ele>
        <time>2019-07-12T08:15:49Z</time>
      </trkpt>
      <trkpt lat="38.8868620" lon="-9.0464980">
        <ele>13.8</ele>
        <time>2019-07-12T08:15:53Z</time>
      </trkpt>
      <trkpt lat="38.8868230" lon="-9.0465450">
        <ele>14.0</ele>
        <time>2019-07-12T08:15:54Z</time>
      </trkpt>
      <trkpt lat="38.8866320" lon="-9.0467840">
        <ele>15.0</ele>
        <time>2019-07-12T08:15:59Z</time>
      </trkpt>
      <trkpt lat="38.8865960" lon="-9.0468350">
        <ele>15.0</ele>
        <time>2019-07-12T08:16:00Z</time>
      </trkpt>
      <trkpt lat="38.8864330" lon="-9.0470270">
        <ele>15.2</ele>
        <time>2019-07-12T08:16:04Z</time>
      </trkpt>
      <trkpt lat="38.8863140" lon="-9.0471770">
        <ele>15.2</ele>
        <time>2019-07-12T08:16:07Z</time>
      </trkpt>
      <trkpt lat="38.8859550" lon="-9.0476170">
        <ele>14.4</ele>
        <time>2019-07-12T08:16:15Z</time>
      </trkpt>
      <trkpt lat="38.8859150" lon="-9.0476890">
        <ele>14.2</ele>
        <time>2019-07-12T08:16:16Z</time>
      </trkpt>
      <trkpt lat="38.8858800" lon="-9.0477670">
        <ele>14.0</ele>
        <time>2019-07-12T08:16:17Z</time>
      </trkpt>
      <trkpt lat="38.8857760" lon="-9.0479900">
        <ele>13.4</ele>
        <time>2019-07-12T08:16:20Z</time>
      </trkpt>
      <trkpt lat="38.8856640" lon="-9.0482030">
        <ele>13.0</ele>
        <time>2019-07-12T08:16:23Z</time>
      </trkpt>
      <trkpt lat="38.8855800" lon="-9.0483580">
        <ele>12.4</ele>
        <time>2019-07-12T08:16:25Z</time>
      </trkpt>
      <trkpt lat="38.8854600" lon="-9.0486020">
        <ele>11.6</ele>
        <time>2019-07-12T08:16:28Z</time>
      </trkpt>
      <trkpt lat="38.8853550" lon="-9.0487260">
        <ele>11.4</ele>
        <time>2019-07-12T08:16:30Z</time>
      </trkpt>
      <trkpt lat="38.8851810" lon="-9.0488470">
        <ele>11.8</ele>
        <time>2019-07-12T08:16:33Z</time>
      </trkpt>
      <trkpt lat="38.8850690" lon="-9.0489220">
        <ele>11.8</ele>
        <time>2019-07-12T08:16:35Z</time>
      </trkpt>
      <trkpt lat="38.8849600" lon="-9.0489940">
        <ele>11.8</ele>
        <time>2019-07-12T08:16:37Z</time>
      </trkpt>
      <trkpt lat="38.8847840" lon="-9.0490530">
        <ele>12.0</ele>
        <time>2019-07-12T08:16:40Z</time>
      </trkpt>
      <trkpt lat="38.8846630" lon="-9.0490590">
        <ele>12.0</ele>
        <time>2019-07-12T08:16:42Z</time>
      </trkpt>
      <trkpt lat="38.8845440" lon="-9.0490670">
        <ele>12.0</ele>
        <time>2019-07-12T08:16:44Z</time>
      </trkpt>
      <trkpt lat="38.8844870" lon="-9.0490810">
        <ele>12.2</ele>
        <time>2019-07-12T08:16:45Z</time>
      </trkpt>
      <trkpt lat="38.8843170" lon="-9.0491270">
        <ele>12.6</ele>
        <time>2019-07-12T08:16:48Z</time>
      </trkpt>
      <trkpt lat="38.8841550" lon="-9.0491790">
        <ele>13.2</ele>
        <time>2019-07-12T08:16:51Z</time>
      </trkpt>
      <trkpt lat="38.8840510" lon="-9.0492150">
        <ele>13.8</ele>
        <time>2019-07-12T08:16:53Z</time>
      </trkpt>
      <trkpt lat="38.8839520" lon="-9.0492620">
        <ele>14.4</ele>
        <time>2019-07-12T08:16:55Z</time>
      </trkpt>
      <trkpt lat="38.8838540" lon="-9.0493090">
        <ele>14.6</ele>
        <time>2019-07-12T08:16:57Z</time>
      </trkpt>
      <trkpt lat="38.8838030" lon="-9.0493330">
        <ele>14.8</ele>
        <time>2019-07-12T08:16:58Z</time>
      </trkpt>
      <trkpt lat="38.8837530" lon="-9.0493560">
        <ele>15.0</ele>
        <time>2019-07-12T08:16:59Z</time>
      </trkpt>
      <trkpt lat="38.8836540" lon="-9.0494090">
        <ele>15.4</ele>
        <time>2019-07-12T08:17:01Z</time>
      </trkpt>
      <trkpt lat="38.8834990" lon="-9.0494890">
        <ele>15.8</ele>
        <time>2019-07-12T08:17:04Z</time>
      </trkpt>
      <trkpt lat="38.8833440" lon="-9.0495700">
        <ele>16.2</ele>
        <time>2019-07-12T08:17:07Z</time>
      </trkpt>
      <trkpt lat="38.8831830" lon="-9.0496500">
        <ele>16.4</ele>
        <time>2019-07-12T08:17:10Z</time>
      </trkpt>
      <trkpt lat="38.8828390" lon="-9.0498230">
        <ele>16.6</ele>
        <time>2019-07-12T08:17:16Z</time>
      </trkpt>
      <trkpt lat="38.8825400" lon="-9.0499620">
        <ele>16.8</ele>
        <time>2019-07-12T08:17:21Z</time>
      </trkpt>
      <trkpt lat="38.8822440" lon="-9.0501120">
        <ele>17.2</ele>
        <time>2019-07-12T08:17:26Z</time>
      </trkpt>
      <trkpt lat="38.8820660" lon="-9.0501970">
        <ele>17.4</ele>
        <time>2019-07-12T08:17:29Z</time>
      </trkpt>
      <trkpt lat="38.8818290" lon="-9.0503150">
        <ele>17.8</ele>
        <time>2019-07-12T08:17:33Z</time>
      </trkpt>
      <trkpt lat="38.8815820" lon="-9.0504380">
        <ele>17.6</ele>
        <time>2019-07-12T08:17:37Z</time>
      </trkpt>
      <trkpt lat="38.8811270" lon="-9.0506730">
        <ele>17.4</ele>
        <time>2019-07-12T08:17:44Z</time>
      </trkpt>
      <trkpt lat="38.8809240" lon="-9.0507770">
        <ele>17.2</ele>
        <time>2019-07-12T08:17:47Z</time>
      </trkpt>
      <trkpt lat="38.8807100" lon="-9.0508720">
        <ele>16.6</ele>
        <time>2019-07-12T08:17:50Z</time>
      </trkpt>
      <trkpt lat="38.8803440" lon="-9.0510210">
        <ele>16.4</ele>
        <time>2019-07-12T08:17:55Z</time>
      </trkpt>
      <trkpt lat="38.8798590" lon="-9.0512010">
        <ele>16.6</ele>
        <time>2019-07-12T08:18:02Z</time>
      </trkpt>
      <trkpt lat="38.8794640" lon="-9.0513490">
        <ele>17.6</ele>
        <time>2019-07-12T08:18:09Z</time>
      </trkpt>
      <trkpt lat="38.8793020" lon="-9.0514160">
        <ele>18.0</ele>
        <time>2019-07-12T08:18:12Z</time>
      </trkpt>
      <trkpt lat="38.8790320" lon="-9.0515390">
        <ele>18.2</ele>
        <time>2019-07-12T08:18:17Z</time>
      </trkpt>
      <trkpt lat="38.8789350" lon="-9.0515870">
        <ele>19.0</ele>
        <time>2019-07-12T08:18:19Z</time>
      </trkpt>
      <trkpt lat="38.8787770" lon="-9.0516480">
        <ele>19.2</ele>
        <time>2019-07-12T08:18:22Z</time>
      </trkpt>
      <trkpt lat="38.8783580" lon="-9.0518180">
        <ele>19.6</ele>
        <time>2019-07-12T08:18:30Z</time>
      </trkpt>
      <trkpt lat="38.8780920" lon="-9.0519290">
        <ele>20.2</ele>
        <time>2019-07-12T08:18:35Z</time>
      </trkpt>
      <trkpt lat="38.8778210" lon="-9.0520430">
        <ele>20.6</ele>
        <time>2019-07-12T08:18:40Z</time>
      </trkpt>
      <trkpt lat="38.8774260" lon="-9.0522210">
        <ele>21.0</ele>
        <time>2019-07-12T08:18:47Z</time>
      </trkpt>
      <trkpt lat="38.8771170" lon="-9.0523480">
        <ele>20.4</ele>
        <time>2019-07-12T08:18:52Z</time>
      </trkpt>
      <trkpt lat="38.8769940" lon="-9.0524010">
        <ele>20.2</ele>
        <time>2019-07-12T08:18:54Z</time>
      </trkpt>
      <trkpt lat="38.8768690" lon="-9.0524510">
        <ele>20.0</ele>
        <time>2019-07-12T08:18:56Z</time>
      </trkpt>
      <trkpt lat="38.8767470" lon="-9.0525020">
        <ele>19.8</ele>
        <time>2019-07-12T08:18:58Z</time>
      </trkpt>
      <trkpt lat="38.8766470" lon="-9.0525950">
        <ele>19.6</ele>
        <time>2019-07-12T08:19:00Z</time>
      </trkpt>
      <trkpt lat="38.8766040" lon="-9.0526450">
        <ele>19.6</ele>
        <time>2019-07-12T08:19:01Z</time>
      </trkpt>
      <trkpt lat="38.8765610" lon="-9.0526840">
        <ele>19.8</ele>
        <time>2019-07-12T08:19:02Z</time>
      </trkpt>
      <trkpt lat="38.8764650" lon="-9.0527350">
        <ele>19.8</ele>
        <time>2019-07-12T08:19:04Z</time>
      </trkpt>
      <trkpt lat="38.8762210" lon="-9.0527180">
        <ele>19.8</ele>
        <time>2019-07-12T08:19:08Z</time>
      </trkpt>
      <trkpt lat="38.8761510" lon="-9.0527090">
        <ele>19.6</ele>
        <time>2019-07-12T08:19:09Z</time>
      </trkpt>
      <trkpt lat="38.8760100" lon="-9.0527200">
        <ele>19.0</ele>
        <time>2019-07-12T08:19:11Z</time>
      </trkpt>
      <trkpt lat="38.8759390" lon="-9.0527350">
        <ele>18.8</ele>
        <time>2019-07-12T08:19:12Z</time>
      </trkpt>
      <trkpt lat="38.8755780" lon="-9.0528050">
        <ele>18.2</ele>
        <time>2019-07-12T08:19:17Z</time>
      </trkpt>
      <trkpt lat="38.8755050" lon="-9.0528120">
        <ele>18.0</ele>
        <time>2019-07-12T08:19:18Z</time>
      </trkpt>
      <trkpt lat="38.8750280" lon="-9.0529000">
        <ele>18.4</ele>
        <time>2019-07-12T08:19:25Z</time>
      </trkpt>
      <trkpt lat="38.8746630" lon="-9.0530420">
        <ele>18.6</ele>
        <time>2019-07-12T08:19:31Z</time>
      </trkpt>
      <trkpt lat="38.8744170" lon="-9.0532620">
        <ele>18.8</ele>
        <time>2019-07-12T08:19:36Z</time>
      </trkpt>
      <trkpt lat="38.8741980" lon="-9.0535150">
        <ele>19.2</ele>
        <time>2019-07-12T08:19:41Z</time>
      </trkpt>
      <trkpt lat="38.8740200" lon="-9.0537170">
        <ele>19.2</ele>
        <time>2019-07-12T08:19:45Z</time>
      </trkpt>
      <trkpt lat="38.8737480" lon="-9.0540040">
        <ele>19.6</ele>
        <time>2019-07-12T08:19:51Z</time>
      </trkpt>
      <trkpt lat="38.8737020" lon="-9.0540510">
        <ele>19.8</ele>
        <time>2019-07-12T08:19:52Z</time>
      </trkpt>
      <trkpt lat="38.8735040" lon="-9.0542280">
        <ele>20.0</ele>
        <time>2019-07-12T08:19:56Z</time>
      </trkpt>
      <trkpt lat="38.8733000" lon="-9.0543960">
        <ele>20.6</ele>
        <time>2019-07-12T08:20:00Z</time>
      </trkpt>
      <trkpt lat="38.8729750" lon="-9.0546130">
        <ele>20.8</ele>
        <time>2019-07-12T08:20:06Z</time>
      </trkpt>
      <trkpt lat="38.8728650" lon="-9.0546830">
        <ele>20.8</ele>
        <time>2019-07-12T08:20:08Z</time>
      </trkpt>
      <trkpt lat="38.8725180" lon="-9.0548710">
        <ele>21.0</ele>
        <time>2019-07-12T08:20:14Z</time>
      </trkpt>
      <trkpt lat="38.8724570" lon="-9.0549010">
        <ele>21.2</ele>
        <time>2019-07-12T08:20:15Z</time>
      </trkpt>
      <trkpt lat="38.8720890" lon="-9.0550830">
        <ele>21.0</ele>
        <time>2019-07-12T08:20:21Z</time>
      </trkpt>
      <trkpt lat="38.8719640" lon="-9.0551370">
        <ele>20.8</ele>
        <time>2019-07-12T08:20:23Z</time>
      </trkpt>
      <trkpt lat="38.8717320" lon="-9.0552740">
        <ele>20.2</ele>
        <time>2019-07-12T08:20:27Z</time>
      </trkpt>
      <trkpt lat="38.8716860" lon="-9.0553250">
        <ele>20.0</ele>
        <time>2019-07-12T08:20:28Z</time>
      </trkpt>
      <trkpt lat="38.8715330" lon="-9.0555590">
        <ele>19.4</ele>
        <time>2019-07-12T08:20:32Z</time>
      </trkpt>
      <trkpt lat="38.8714760" lon="-9.0555950">
        <ele>19.4</ele>
        <time>2019-07-12T08:20:33Z</time>
      </trkpt>
      <trkpt lat="38.8712720" lon="-9.0556400">
        <ele>19.2</ele>
        <time>2019-07-12T08:20:36Z</time>
      </trkpt>
      <trkpt lat="38.8711960" lon="-9.0556570">
        <ele>18.8</ele>
        <time>2019-07-12T08:20:37Z</time>
      </trkpt>
      <trkpt lat="38.8710530" lon="-9.0557430">
        <ele>18.2</ele>
        <time>2019-07-12T08:20:39Z</time>
      </trkpt>
      <trkpt lat="38.8709920" lon="-9.0558070">
        <ele>17.8</ele>
        <time>2019-07-12T08:20:40Z</time>
      </trkpt>
      <trkpt lat="38.8708850" lon="-9.0559550">
        <ele>17.0</ele>
        <time>2019-07-12T08:20:42Z</time>
      </trkpt>
      <trkpt lat="38.8708310" lon="-9.0560320">
        <ele>16.8</ele>
        <time>2019-07-12T08:20:43Z</time>
      </trkpt>
      <trkpt lat="38.8707780" lon="-9.0561110">
        <ele>16.6</ele>
        <time>2019-07-12T08:20:44Z</time>
      </trkpt>
      <trkpt lat="38.8704570" lon="-9.0565930">
        <ele>15.6</ele>
        <time>2019-07-12T08:20:50Z</time>
      </trkpt>
      <trkpt lat="38.8700870" lon="-9.0570930">
        <ele>15.4</ele>
        <time>2019-07-12T08:20:57Z</time>
      </trkpt>
      <trkpt lat="38.8697750" lon="-9.0573380">
        <ele>15.8</ele>
        <time>2019-07-12T08:21:02Z</time>
      </trkpt>
      <trkpt lat="38.8692550" lon="-9.0576590">
        <ele>16.0</ele>
        <time>2019-07-12T08:21:10Z</time>
      </trkpt>
      <trkpt lat="38.8690550" lon="-9.0577700">
        <ele>15.6</ele>
        <time>2019-07-12T08:21:13Z</time>
      </trkpt>
      <trkpt lat="38.8685430" lon="-9.0580640">
        <ele>16.0</ele>
        <time>2019-07-12T08:21:21Z</time>
      </trkpt>
      <trkpt lat="38.8680450" lon="-9.0583390">
        <ele>15.8</ele>
        <time>2019-07-12T08:21:29Z</time>
      </trkpt>
      <trkpt lat="38.8679850" lon="-9.0583690">
        <ele>15.8</ele>
        <time>2019-07-12T08:21:30Z</time>
      </trkpt>
      <trkpt lat="38.8675790" lon="-9.0585850">
        <ele>15.8</ele>
        <time>2019-07-12T08:21:37Z</time>
      </trkpt>
      <trkpt lat="38.8670640" lon="-9.0588260">
        <ele>15.2</ele>
        <time>2019-07-12T08:21:45Z</time>
      </trkpt>
      <trkpt lat="38.8668150" lon="-9.0589660">
        <ele>14.6</ele>
        <time>2019-07-12T08:21:49Z</time>
      </trkpt>
      <trkpt lat="38.8667610" lon="-9.0590160">
        <ele>14.4</ele>
        <time>2019-07-12T08:21:50Z</time>
      </trkpt>
      <trkpt lat="38.8666580" lon="-9.0591320">
        <ele>14.2</ele>
        <time>2019-07-12T08:21:52Z</time>
      </trkpt>
      <trkpt lat="38.8666140" lon="-9.0592010">
        <ele>14.2</ele>
        <time>2019-07-12T08:21:53Z</time>
      </trkpt>
      <trkpt lat="38.8665800" lon="-9.0592750">
        <ele>14.0</ele>
        <time>2019-07-12T08:21:54Z</time>
      </trkpt>
      <trkpt lat="38.8665570" lon="-9.0595510">
        <ele>13.4</ele>
        <time>2019-07-12T08:21:57Z</time>
      </trkpt>
      <trkpt lat="38.8665660" lon="-9.0596450">
        <ele>13.2</ele>
        <time>2019-07-12T08:21:58Z</time>
      </trkpt>
      <trkpt lat="38.8665400" lon="-9.0599030">
        <ele>12.8</ele>
        <time>2019-07-12T08:22:01Z</time>
      </trkpt>
      <trkpt lat="38.8663880" lon="-9.0600470">
        <ele>12.4</ele>
        <time>2019-07-12T08:22:04Z</time>
      </trkpt>
      <trkpt lat="38.8662620" lon="-9.0600600">
        <ele>12.2</ele>
        <time>2019-07-12T08:22:06Z</time>
      </trkpt>
      <trkpt lat="38.8662020" lon="-9.0600720">
        <ele>11.8</ele>
        <time>2019-07-12T08:22:07Z</time>
      </trkpt>
      <trkpt lat="38.8659690" lon="-9.0602150">
        <ele>11.8</ele>
        <time>2019-07-12T08:22:11Z</time>
      </trkpt>
      <trkpt lat="38.8656850" lon="-9.0604100">
        <ele>11.6</ele>
        <time>2019-07-12T08:22:16Z</time>
      </trkpt>
      <trkpt lat="38.8656240" lon="-9.0604350">
        <ele>11.8</ele>
        <time>2019-07-12T08:22:17Z</time>
      </trkpt>
      <trkpt lat="38.8654970" lon="-9.0604800">
        <ele>11.8</ele>
        <time>2019-07-12T08:22:19Z</time>
      </trkpt>
      <trkpt lat="38.8652970" lon="-9.0605260">
        <ele>11.8</ele>
        <time>2019-07-12T08:22:22Z</time>
      </trkpt>
      <trkpt lat="38.8652320" lon="-9.0605440">
        <ele>11.6</ele>
        <time>2019-07-12T08:22:23Z</time>
      </trkpt>
      <trkpt lat="38.8646540" lon="-9.0607100">
        <ele>11.4</ele>
        <time>2019-07-12T08:22:32Z</time>
      </trkpt>
      <trkpt lat="38.8645920" lon="-9.0607340">
        <ele>11.2</ele>
        <time>2019-07-12T08:22:33Z</time>
      </trkpt>
      <trkpt lat="38.8644680" lon="-9.0607970">
        <ele>11.2</ele>
        <time>2019-07-12T08:22:35Z</time>
      </trkpt>
      <trkpt lat="38.8641650" lon="-9.0609660">
        <ele>10.8</ele>
        <time>2019-07-12T08:22:40Z</time>
      </trkpt>
      <trkpt lat="38.8638530" lon="-9.0612450">
        <ele>11.2</ele>
        <time>2019-07-12T08:22:46Z</time>
      </trkpt>
      <trkpt lat="38.8636030" lon="-9.0615440">
        <ele>12.0</ele>
        <time>2019-07-12T08:22:52Z</time>
      </trkpt>
      <trkpt lat="38.8635700" lon="-9.0616000">
        <ele>12.0</ele>
        <time>2019-07-12T08:22:53Z</time>
      </trkpt>
      <trkpt lat="38.8634760" lon="-9.0617720">
        <ele>12.4</ele>
        <time>2019-07-12T08:22:56Z</time>
      </trkpt>
      <trkpt lat="38.8633870" lon="-9.0619440">
        <ele>13.2</ele>
        <time>2019-07-12T08:22:59Z</time>
      </trkpt>
      <trkpt lat="38.8633280" lon="-9.0620590">
        <ele>13.6</ele>
        <time>2019-07-12T08:23:01Z</time>
      </trkpt>
      <trkpt lat="38.8632690" lon="-9.0621780">
        <ele>13.8</ele>
        <time>2019-07-12T08:23:03Z</time>
      </trkpt>
      <trkpt lat="38.8632070" lon="-9.0622930">
        <ele>14.4</ele>
        <time>2019-07-12T08:23:05Z</time>
      </trkpt>
      <trkpt lat="38.8631460" lon="-9.0624080">
        <ele>14.8</ele>
        <time>2019-07-12T08:23:07Z</time>
      </trkpt>
      <trkpt lat="38.8630870" lon="-9.0625280">
        <ele>15.0</ele>
        <time>2019-07-12T08:23:09Z</time>
      </trkpt>
      <trkpt lat="38.8630320" lon="-9.0626480">
        <ele>15.4</ele>
        <time>2019-07-12T08:23:11Z</time>
      </trkpt>
      <trkpt lat="38.8629970" lon="-9.0627030">
        <ele>15.6</ele>
        <time>2019-07-12T08:23:12Z</time>
      </trkpt>
      <trkpt lat="38.8629000" lon="-9.0628750">
        <ele>16.2</ele>
        <time>2019-07-12T08:23:15Z</time>
      </trkpt>
      <trkpt lat="38.8628710" lon="-9.0629340">
        <ele>16.6</ele>
        <time>2019-07-12T08:23:16Z</time>
      </trkpt>
      <trkpt lat="38.8627310" lon="-9.0632370">
        <ele>17.4</ele>
        <time>2019-07-12T08:23:21Z</time>
      </trkpt>
      <trkpt lat="38.8626980" lon="-9.0632930">
        <ele>17.6</ele>
        <time>2019-07-12T08:23:22Z</time>
      </trkpt>
      <trkpt lat="38.8626700" lon="-9.0633470">
        <ele>17.8</ele>
        <time>2019-07-12T08:23:23Z</time>
      </trkpt>
      <trkpt lat="38.8625320" lon="-9.0636010">
        <ele>18.6</ele>
        <time>2019-07-12T08:23:28Z</time>
      </trkpt>
      <trkpt lat="38.8624770" lon="-9.0637110">
        <ele>19.0</ele>
        <time>2019-07-12T08:23:30Z</time>
      </trkpt>
      <trkpt lat="38.8624460" lon="-9.0637650">
        <ele>19.2</ele>
        <time>2019-07-12T08:23:31Z</time>
      </trkpt>
      <trkpt lat="38.8623900" lon="-9.0638720">
        <ele>19.8</ele>
        <time>2019-07-12T08:23:33Z</time>
      </trkpt>
      <trkpt lat="38.8623300" lon="-9.0639750">
        <ele>20.0</ele>
        <time>2019-07-12T08:23:35Z</time>
      </trkpt>
      <trkpt lat="38.8623010" lon="-9.0640250">
        <ele>20.2</ele>
        <time>2019-07-12T08:23:36Z</time>
      </trkpt>
      <trkpt lat="38.8622220" lon="-9.0641860">
        <ele>20.6</ele>
        <time>2019-07-12T08:23:39Z</time>
      </trkpt>
      <trkpt lat="38.8621960" lon="-9.0642360">
        <ele>20.8</ele>
        <time>2019-07-12T08:23:40Z</time>
      </trkpt>
      <trkpt lat="38.8620460" lon="-9.0644860">
        <ele>21.6</ele>
        <time>2019-07-12T08:23:45Z</time>
      </trkpt>
      <trkpt lat="38.8619860" lon="-9.0645830">
        <ele>21.8</ele>
        <time>2019-07-12T08:23:47Z</time>
      </trkpt>
      <trkpt lat="38.8617980" lon="-9.0648140">
        <ele>22.4</ele>
        <time>2019-07-12T08:23:52Z</time>
      </trkpt>
      <trkpt lat="38.8614400" lon="-9.0650690">
        <ele>22.4</ele>
        <time>2019-07-12T08:23:59Z</time>
      </trkpt>
      <trkpt lat="38.8610440" lon="-9.0652950">
        <ele>22.6</ele>
        <time>2019-07-12T08:24:06Z</time>
      </trkpt>
      <trkpt lat="38.8607450" lon="-9.0654540">
        <ele>22.8</ele>
        <time>2019-07-12T08:24:11Z</time>
      </trkpt>
      <trkpt lat="38.8605650" lon="-9.0655530">
        <ele>22.6</ele>
        <time>2019-07-12T08:24:14Z</time>
      </trkpt>
      <trkpt lat="38.8605050" lon="-9.0655910">
        <ele>22.6</ele>
        <time>2019-07-12T08:24:15Z</time>
      </trkpt>
      <trkpt lat="38.8603900" lon="-9.0656830">
        <ele>22.6</ele>
        <time>2019-07-12T08:24:17Z</time>
      </trkpt>
      <trkpt lat="38.8602800" lon="-9.0657830">
        <ele>22.6</ele>
        <time>2019-07-12T08:24:19Z</time>
      </trkpt>
      <trkpt lat="38.8601750" lon="-9.0658920">
        <ele>22.4</ele>
        <time>2019-07-12T08:24:21Z</time>
      </trkpt>
      <trkpt lat="38.8599760" lon="-9.0661410">
        <ele>21.8</ele>
        <time>2019-07-12T08:24:25Z</time>
      </trkpt>
      <trkpt lat="38.8599320" lon="-9.0662080">
        <ele>21.6</ele>
        <time>2019-07-12T08:24:26Z</time>
      </trkpt>
      <trkpt lat="38.8598890" lon="-9.0662730">
        <ele>21.6</ele>
        <time>2019-07-12T08:24:27Z</time>
      </trkpt>
      <trkpt lat="38.8598490" lon="-9.0663410">
        <ele>21.4</ele>
        <time>2019-07-12T08:24:28Z</time>
      </trkpt>
      <trkpt lat="38.8598100" lon="-9.0664100">
        <ele>21.4</ele>
        <time>2019-07-12T08:24:29Z</time>
      </trkpt>
      <trkpt lat="38.8597360" lon="-9.0665470">
        <ele>21.6</ele>
        <time>2019-07-12T08:24:31Z</time>
      </trkpt>
      <trkpt lat="38.8595860" lon="-9.0668170">
        <ele>21.2</ele>
        <time>2019-07-12T08:24:35Z</time>
      </trkpt>
      <trkpt lat="38.8595050" lon="-9.0669480">
        <ele>21.0</ele>
        <time>2019-07-12T08:24:37Z</time>
      </trkpt>
      <trkpt lat="38.8594140" lon="-9.0670680">
        <ele>21.0</ele>
        <time>2019-07-12T08:24:39Z</time>
      </trkpt>
      <trkpt lat="38.8593180" lon="-9.0671820">
        <ele>20.8</ele>
        <time>2019-07-12T08:24:41Z</time>
      </trkpt>
      <trkpt lat="38.8592170" lon="-9.0672970">
        <ele>20.6</ele>
        <time>2019-07-12T08:24:43Z</time>
      </trkpt>
      <trkpt lat="38.8591640" lon="-9.0673560">
        <ele>20.6</ele>
        <time>2019-07-12T08:24:44Z</time>
      </trkpt>
      <trkpt lat="38.8587850" lon="-9.0677650">
        <ele>19.4</ele>
        <time>2019-07-12T08:24:51Z</time>
      </trkpt>
      <trkpt lat="38.8586770" lon="-9.0678820">
        <ele>18.8</ele>
        <time>2019-07-12T08:24:53Z</time>
      </trkpt>
      <trkpt lat="38.8585110" lon="-9.0680610">
        <ele>18.2</ele>
        <time>2019-07-12T08:24:56Z</time>
      </trkpt>
      <trkpt lat="38.8584560" lon="-9.0681220">
        <ele>18.0</ele>
        <time>2019-07-12T08:24:57Z</time>
      </trkpt>
      <trkpt lat="38.8583440" lon="-9.0682440">
        <ele>17.8</ele>
        <time>2019-07-12T08:24:59Z</time>
      </trkpt>
      <trkpt lat="38.8582310" lon="-9.0683620">
        <ele>17.6</ele>
        <time>2019-07-12T08:25:01Z</time>
      </trkpt>
      <trkpt lat="38.8581760" lon="-9.0684260">
        <ele>17.6</ele>
        <time>2019-07-12T08:25:02Z</time>
      </trkpt>
      <trkpt lat="38.8581220" lon="-9.0684900">
        <ele>17.4</ele>
        <time>2019-07-12T08:25:03Z</time>
      </trkpt>
      <trkpt lat="38.8579570" lon="-9.0686730">
        <ele>17.0</ele>
        <time>2019-07-12T08:25:06Z</time>
      </trkpt>
      <trkpt lat="38.8578000" lon="-9.0688540">
        <ele>16.8</ele>
        <time>2019-07-12T08:25:09Z</time>
      </trkpt>
      <trkpt lat="38.8576550" lon="-9.0690270">
        <ele>16.8</ele>
        <time>2019-07-12T08:25:12Z</time>
      </trkpt>
      <trkpt lat="38.8573870" lon="-9.0693490">
        <ele>16.4</ele>
        <time>2019-07-12T08:25:18Z</time>
      </trkpt>
      <trkpt lat="38.8572970" lon="-9.0695950">
        <ele>16.8</ele>
        <time>2019-07-12T08:25:22Z</time>
      </trkpt>
      <trkpt lat="38.8571890" lon="-9.0697410">
        <ele>17.0</ele>
        <time>2019-07-12T08:25:25Z</time>
      </trkpt>
      <trkpt lat="38.8571380" lon="-9.0697760">
        <ele>17.0</ele>
        <time>2019-07-12T08:25:26Z</time>
      </trkpt>
      <trkpt lat="38.8570810" lon="-9.0698090">
        <ele>17.0</ele>
        <time>2019-07-12T08:25:27Z</time>
      </trkpt>
      <trkpt lat="38.8569590" lon="-9.0698820">
        <ele>17.0</ele>
        <time>2019-07-12T08:25:29Z</time>
      </trkpt>
      <trkpt lat="38.8568450" lon="-9.0699820">
        <ele>16.6</ele>
        <time>2019-07-12T08:25:31Z</time>
      </trkpt>
      <trkpt lat="38.8567360" lon="-9.0700920">
        <ele>16.6</ele>
        <time>2019-07-12T08:25:33Z</time>
      </trkpt>
      <trkpt lat="38.8565160" lon="-9.0703140">
        <ele>16.4</ele>
        <time>2019-07-12T08:25:37Z</time>
      </trkpt>
      <trkpt lat="38.8563040" lon="-9.0705390">
        <ele>16.2</ele>
        <time>2019-07-12T08:25:41Z</time>
      </trkpt>
      <trkpt lat="38.8562010" lon="-9.0706560">
        <ele>16.0</ele>
        <time>2019-07-12T08:25:43Z</time>
      </trkpt>
      <trkpt lat="38.8558190" lon="-9.0710770">
        <ele>15.2</ele>
        <time>2019-07-12T08:25:50Z</time>
      </trkpt>
      <trkpt lat="38.8557620" lon="-9.0711390">
        <ele>15.0</ele>
        <time>2019-07-12T08:25:51Z</time>
      </trkpt>
      <trkpt lat="38.8555890" lon="-9.0713240">
        <ele>14.6</ele>
        <time>2019-07-12T08:25:54Z</time>
      </trkpt>
      <trkpt lat="38.8554710" lon="-9.0714470">
        <ele>14.2</ele>
        <time>2019-07-12T08:25:56Z</time>
      </trkpt>
      <trkpt lat="38.8554100" lon="-9.0715030">
        <ele>14.0</ele>
        <time>2019-07-12T08:25:57Z</time>
      </trkpt>
      <trkpt lat="38.8552940" lon="-9.0716200">
        <ele>13.8</ele>
        <time>2019-07-12T08:25:59Z</time>
      </trkpt>
      <trkpt lat="38.8551360" lon="-9.0717840">
        <ele>13.0</ele>
        <time>2019-07-12T08:26:02Z</time>
      </trkpt>
      <trkpt lat="38.8550750" lon="-9.0718300">
        <ele>12.8</ele>
        <time>2019-07-12T08:26:03Z</time>
      </trkpt>
      <trkpt lat="38.8549440" lon="-9.0719020">
        <ele>12.4</ele>
        <time>2019-07-12T08:26:05Z</time>
      </trkpt>
      <trkpt lat="38.8548090" lon="-9.0719700">
        <ele>12.2</ele>
        <time>2019-07-12T08:26:07Z</time>
      </trkpt>
      <trkpt lat="38.8546850" lon="-9.0720600">
        <ele>11.8</ele>
        <time>2019-07-12T08:26:09Z</time>
      </trkpt>
      <trkpt lat="38.8546220" lon="-9.0721010">
        <ele>11.6</ele>
        <time>2019-07-12T08:26:10Z</time>
      </trkpt>
      <trkpt lat="38.8545570" lon="-9.0721370">
        <ele>11.6</ele>
        <time>2019-07-12T08:26:11Z</time>
      </trkpt>
      <trkpt lat="38.8543090" lon="-9.0722790">
        <ele>11.4</ele>
        <time>2019-07-12T08:26:15Z</time>
      </trkpt>
      <trkpt lat="38.8541910" lon="-9.0723530">
        <ele>11.4</ele>
        <time>2019-07-12T08:26:17Z</time>
      </trkpt>
      <trkpt lat="38.8536720" lon="-9.0726710">
        <ele>11.6</ele>
        <time>2019-07-12T08:26:26Z</time>
      </trkpt>
      <trkpt lat="38.8536140" lon="-9.0727070">
        <ele>11.4</ele>
        <time>2019-07-12T08:26:27Z</time>
      </trkpt>
      <trkpt lat="38.8531870" lon="-9.0729610">
        <ele>10.6</ele>
        <time>2019-07-12T08:26:34Z</time>
      </trkpt>
      <trkpt lat="38.8529960" lon="-9.0730790">
        <ele>10.6</ele>
        <time>2019-07-12T08:26:37Z</time>
      </trkpt>
      <trkpt lat="38.8525580" lon="-9.0733510">
        <ele>10.2</ele>
        <time>2019-07-12T08:26:44Z</time>
      </trkpt>
      <trkpt lat="38.8520430" lon="-9.0737580">
        <ele>9.6</ele>
        <time>2019-07-12T08:26:53Z</time>
      </trkpt>
      <trkpt lat="38.8516890" lon="-9.0740680">
        <ele>8.6</ele>
        <time>2019-07-12T08:26:59Z</time>
      </trkpt>
      <trkpt lat="38.8515730" lon="-9.0741710">
        <ele>8.2</ele>
        <time>2019-07-12T08:27:01Z</time>
      </trkpt>
      <trkpt lat="38.8514060" lon="-9.0743180">
        <ele>8.2</ele>
        <time>2019-07-12T08:27:04Z</time>
      </trkpt>
      <trkpt lat="38.8512430" lon="-9.0744480">
        <ele>8.2</ele>
        <time>2019-07-12T08:27:07Z</time>
      </trkpt>
      <trkpt lat="38.8512030" lon="-9.0745030">
        <ele>8.2</ele>
        <time>2019-07-12T08:27:08Z</time>
      </trkpt>
      <trkpt lat="38.8511130" lon="-9.0747510">
        <ele>8.8</ele>
        <time>2019-07-12T08:27:12Z</time>
      </trkpt>
      <trkpt lat="38.8510010" lon="-9.0748850">
        <ele>9.4</ele>
        <time>2019-07-12T08:27:15Z</time>
      </trkpt>
      <trkpt lat="38.8509500" lon="-9.0749000">
        <ele>9.6</ele>
        <time>2019-07-12T08:27:16Z</time>
      </trkpt>
      <trkpt lat="38.8508330" lon="-9.0749070">
        <ele>9.6</ele>
        <time>2019-07-12T08:27:18Z</time>
      </trkpt>
      <trkpt lat="38.8507120" lon="-9.0749380">
        <ele>9.6</ele>
        <time>2019-07-12T08:27:20Z</time>
      </trkpt>
      <trkpt lat="38.8506060" lon="-9.0750240">
        <ele>9.4</ele>
        <time>2019-07-12T08:27:22Z</time>
      </trkpt>
      <trkpt lat="38.8505590" lon="-9.0750750">
        <ele>9.2</ele>
        <time>2019-07-12T08:27:23Z</time>
      </trkpt>
      <trkpt lat="38.8502080" lon="-9.0754270">
        <ele>8.8</ele>
        <time>2019-07-12T08:27:30Z</time>
      </trkpt>
      <trkpt lat="38.8500590" lon="-9.0755880">
        <ele>8.4</ele>
        <time>2019-07-12T08:27:33Z</time>
      </trkpt>
      <trkpt lat="38.8498460" lon="-9.0757740">
        <ele>8.2</ele>
        <time>2019-07-12T08:27:37Z</time>
      </trkpt>
      <trkpt lat="38.8493540" lon="-9.0761410">
        <ele>8.8</ele>
        <time>2019-07-12T08:27:46Z</time>
      </trkpt>
      <trkpt lat="38.8489840" lon="-9.0764050">
        <ele>8.4</ele>
        <time>2019-07-12T08:27:53Z</time>
      </trkpt>
      <trkpt lat="38.8486380" lon="-9.0766340">
        <ele>9.0</ele>
        <time>2019-07-12T08:28:00Z</time>
      </trkpt>
      <trkpt lat="38.8482510" lon="-9.0768870">
        <ele>8.6</ele>
        <time>2019-07-12T08:28:07Z</time>
      </trkpt>
      <trkpt lat="38.8480050" lon="-9.0770500">
        <ele>8.6</ele>
        <time>2019-07-12T08:28:11Z</time>
      </trkpt>
      <trkpt lat="38.8478690" lon="-9.0771080">
        <ele>8.6</ele>
        <time>2019-07-12T08:28:13Z</time>
      </trkpt>
      <trkpt lat="38.8477260" lon="-9.0771550">
        <ele>8.4</ele>
        <time>2019-07-12T08:28:15Z</time>
      </trkpt>
      <trkpt lat="38.8474320" lon="-9.0772290">
        <ele>8.0</ele>
        <time>2019-07-12T08:28:19Z</time>
      </trkpt>
      <trkpt lat="38.8470740" lon="-9.0773200">
        <ele>7.8</ele>
        <time>2019-07-12T08:28:24Z</time>
      </trkpt>
      <trkpt lat="38.8468730" lon="-9.0773800">
        <ele>7.4</ele>
        <time>2019-07-12T08:28:27Z</time>
      </trkpt>
      <trkpt lat="38.8466810" lon="-9.0774630">
        <ele>7.2</ele>
        <time>2019-07-12T08:28:30Z</time>
      </trkpt>
      <trkpt lat="38.8465650" lon="-9.0775330">
        <ele>7.0</ele>
        <time>2019-07-12T08:28:32Z</time>
      </trkpt>
      <trkpt lat="38.8461540" lon="-9.0777540">
        <ele>6.8</ele>
        <time>2019-07-12T08:28:39Z</time>
      </trkpt>
      <trkpt lat="38.8457830" lon="-9.0779880">
        <ele>7.2</ele>
        <time>2019-07-12T08:28:46Z</time>
      </trkpt>
      <trkpt lat="38.8456150" lon="-9.0781610">
        <ele>7.6</ele>
        <time>2019-07-12T08:28:50Z</time>
      </trkpt>
      <trkpt lat="38.8455390" lon="-9.0782480">
        <ele>8.0</ele>
        <time>2019-07-12T08:28:52Z</time>
      </trkpt>
      <trkpt lat="38.8455030" lon="-9.0782890">
        <ele>8.2</ele>
        <time>2019-07-12T08:28:53Z</time>
      </trkpt>
      <trkpt lat="38.8454180" lon="-9.0784270">
        <ele>8.8</ele>
        <time>2019-07-12T08:28:56Z</time>
      </trkpt>
      <trkpt lat="38.8453700" lon="-9.0785220">
        <ele>9.4</ele>
        <time>2019-07-12T08:28:58Z</time>
      </trkpt>
      <trkpt lat="38.8453000" lon="-9.0786560">
        <ele>10.4</ele>
        <time>2019-07-12T08:29:01Z</time>
      </trkpt>
      <trkpt lat="38.8452320" lon="-9.0787870">
        <ele>11.2</ele>
        <time>2019-07-12T08:29:04Z</time>
      </trkpt>
      <trkpt lat="38.8452100" lon="-9.0788300">
        <ele>11.6</ele>
        <time>2019-07-12T08:29:05Z</time>
      </trkpt>
      <trkpt lat="38.8451470" lon="-9.0789590">
        <ele>12.0</ele>
        <time>2019-07-12T08:29:08Z</time>
      </trkpt>
      <trkpt lat="38.8451020" lon="-9.0790390">
        <ele>12.4</ele>
        <time>2019-07-12T08:29:10Z</time>
      </trkpt>
      <trkpt lat="38.8450440" lon="-9.0791620">
        <ele>12.8</ele>
        <time>2019-07-12T08:29:13Z</time>
      </trkpt>
      <trkpt lat="38.8449660" lon="-9.0793220">
        <ele>13.4</ele>
        <time>2019-07-12T08:29:17Z</time>
      </trkpt>
      <trkpt lat="38.8448650" lon="-9.0794750">
        <ele>14.0</ele>
        <time>2019-07-12T08:29:21Z</time>
      </trkpt>
      <trkpt lat="38.8446070" lon="-9.0796920">
        <ele>14.0</ele>
        <time>2019-07-12T08:29:28Z</time>
      </trkpt>
      <trkpt lat="38.8444790" lon="-9.0797890">
        <ele>14.0</ele>
        <time>2019-07-12T08:29:31Z</time>
      </trkpt>
      <trkpt lat="38.8443420" lon="-9.0798910">
        <ele>13.8</ele>
        <time>2019-07-12T08:29:34Z</time>
      </trkpt>
      <trkpt lat="38.8442010" lon="-9.0799950">
        <ele>13.8</ele>
        <time>2019-07-12T08:29:37Z</time>
      </trkpt>
      <trkpt lat="38.8440530" lon="-9.0801150">
        <ele>13.4</ele>
        <time>2019-07-12T08:29:40Z</time>
      </trkpt>
      <trkpt lat="38.8439430" lon="-9.0801950">
        <ele>13.4</ele>
        <time>2019-07-12T08:29:42Z</time>
      </trkpt>
      <trkpt lat="38.8438320" lon="-9.0802860">
        <ele>13.0</ele>
        <time>2019-07-12T08:29:44Z</time>
      </trkpt>
      <trkpt lat="38.8437180" lon="-9.0803820">
        <ele>12.4</ele>
        <time>2019-07-12T08:29:46Z</time>
      </trkpt>
      <trkpt lat="38.8436590" lon="-9.0804290">
        <ele>12.4</ele>
        <time>2019-07-12T08:29:47Z</time>
      </trkpt>
      <trkpt lat="38.8435390" lon="-9.0805210">
        <ele>12.0</ele>
        <time>2019-07-12T08:29:49Z</time>
      </trkpt>
      <trkpt lat="38.8434170" lon="-9.0806150">
        <ele>11.6</ele>
        <time>2019-07-12T08:29:51Z</time>
      </trkpt>
      <trkpt lat="38.8432950" lon="-9.0807120">
        <ele>11.2</ele>
        <time>2019-07-12T08:29:53Z</time>
      </trkpt>
      <trkpt lat="38.8432320" lon="-9.0807580">
        <ele>11.2</ele>
        <time>2019-07-12T08:29:54Z</time>
      </trkpt>
      <trkpt lat="38.8428610" lon="-9.0809910">
        <ele>11.0</ele>
        <time>2019-07-12T08:30:00Z</time>
      </trkpt>
      <trkpt lat="38.8423980" lon="-9.0812010">
        <ele>10.8</ele>
        <time>2019-07-12T08:30:08Z</time>
      </trkpt>
      <trkpt lat="38.8419960" lon="-9.0813860">
        <ele>11.6</ele>
        <time>2019-07-12T08:30:16Z</time>
      </trkpt>
      <trkpt lat="38.8417500" lon="-9.0815020">
        <ele>12.0</ele>
        <time>2019-07-12T08:30:21Z</time>
      </trkpt>
      <trkpt lat="38.8416480" lon="-9.0815490">
        <ele>12.2</ele>
        <time>2019-07-12T08:30:23Z</time>
      </trkpt>
      <trkpt lat="38.8415960" lon="-9.0815720">
        <ele>12.4</ele>
        <time>2019-07-12T08:30:24Z</time>
      </trkpt>
      <trkpt lat="38.8414410" lon="-9.0816470">
        <ele>12.6</ele>
        <time>2019-07-12T08:30:27Z</time>
      </trkpt>
      <trkpt lat="38.8412230" lon="-9.0817120">
        <ele>12.8</ele>
        <time>2019-07-12T08:30:31Z</time>
      </trkpt>
      <trkpt lat="38.8408510" lon="-9.0818240">
        <ele>13.2</ele>
        <time>2019-07-12T08:30:38Z</time>
      </trkpt>
      <trkpt lat="38.8407530" lon="-9.0818700">
        <ele>13.6</ele>
        <time>2019-07-12T08:30:40Z</time>
      </trkpt>
      <trkpt lat="38.8406130" lon="-9.0819530">
        <ele>13.8</ele>
        <time>2019-07-12T08:30:43Z</time>
      </trkpt>
      <trkpt lat="38.8405670" lon="-9.0819800">
        <ele>14.2</ele>
        <time>2019-07-12T08:30:44Z</time>
      </trkpt>
      <trkpt lat="38.8404720" lon="-9.0820380">
        <ele>14.6</ele>
        <time>2019-07-12T08:30:46Z</time>
      </trkpt>
      <trkpt lat="38.8403240" lon="-9.0821320">
        <ele>15.0</ele>
        <time>2019-07-12T08:30:49Z</time>
      </trkpt>
      <trkpt lat="38.8402240" lon="-9.0821990">
        <ele>15.2</ele>
        <time>2019-07-12T08:30:51Z</time>
      </trkpt>
      <trkpt lat="38.8400720" lon="-9.0823040">
        <ele>15.4</ele>
        <time>2019-07-12T08:30:54Z</time>
      </trkpt>
      <trkpt lat="38.8398580" lon="-9.0824410">
        <ele>15.4</ele>
        <time>2019-07-12T08:30:58Z</time>
      </trkpt>
      <trkpt lat="38.8396270" lon="-9.0825390">
        <ele>15.2</ele>
        <time>2019-07-12T08:31:02Z</time>
      </trkpt>
      <trkpt lat="38.8394390" lon="-9.0825910">
        <ele>15.0</ele>
        <time>2019-07-12T08:31:05Z</time>
      </trkpt>
      <trkpt lat="38.8392370" lon="-9.0826300">
        <ele>14.6</ele>
        <time>2019-07-12T08:31:08Z</time>
      </trkpt>
      <trkpt lat="38.8388330" lon="-9.0826980">
        <ele>14.6</ele>
        <time>2019-07-12T08:31:14Z</time>
      </trkpt>
      <trkpt lat="38.8386440" lon="-9.0827260">
        <ele>14.8</ele>
        <time>2019-07-12T08:31:17Z</time>
      </trkpt>
      <trkpt lat="38.8381500" lon="-9.0827720">
        <ele>15.2</ele>
        <time>2019-07-12T08:31:25Z</time>
      </trkpt>
      <trkpt lat="38.8377930" lon="-9.0828180">
        <ele>15.4</ele>
        <time>2019-07-12T08:31:31Z</time>
      </trkpt>
      <trkpt lat="38.8375240" lon="-9.0829320">
        <ele>16.0</ele>
        <time>2019-07-12T08:31:36Z</time>
      </trkpt>
      <trkpt lat="38.8373730" lon="-9.0830250">
        <ele>16.2</ele>
        <time>2019-07-12T08:31:39Z</time>
      </trkpt>
      <trkpt lat="38.8371110" lon="-9.0832040">
        <ele>16.6</ele>
        <time>2019-07-12T08:31:44Z</time>
      </trkpt>
      <trkpt lat="38.8366350" lon="-9.0834960">
        <ele>15.8</ele>
        <time>2019-07-12T08:31:52Z</time>
      </trkpt>
      <trkpt lat="38.8363120" lon="-9.0836880">
        <ele>15.2</ele>
        <time>2019-07-12T08:31:57Z</time>
      </trkpt>
      <trkpt lat="38.8361150" lon="-9.0838070">
        <ele>15.0</ele>
        <time>2019-07-12T08:32:00Z</time>
      </trkpt>
      <trkpt lat="38.8357180" lon="-9.0840330">
        <ele>14.4</ele>
        <time>2019-07-12T08:32:06Z</time>
      </trkpt>
      <trkpt lat="38.8356510" lon="-9.0840700">
        <ele>14.2</ele>
        <time>2019-07-12T08:32:07Z</time>
      </trkpt>
      <trkpt lat="38.8352280" lon="-9.0842930">
        <ele>13.4</ele>
        <time>2019-07-12T08:32:13Z</time>
      </trkpt>
      <trkpt lat="38.8351570" lon="-9.0843320">
        <ele>13.2</ele>
        <time>2019-07-12T08:32:14Z</time>
      </trkpt>
      <trkpt lat="38.8349380" lon="-9.0844500">
        <ele>12.4</ele>
        <time>2019-07-12T08:32:17Z</time>
      </trkpt>
      <trkpt lat="38.8346430" lon="-9.0846160">
        <ele>12.0</ele>
        <time>2019-07-12T08:32:21Z</time>
      </trkpt>
      <trkpt lat="38.8343430" lon="-9.0847750">
        <ele>11.6</ele>
        <time>2019-07-12T08:32:25Z</time>
      </trkpt>
      <trkpt lat="38.8340520" lon="-9.0849280">
        <ele>10.8</ele>
        <time>2019-07-12T08:32:29Z</time>
      </trkpt>
      <trkpt lat="38.8338430" lon="-9.0850460">
        <ele>9.8</ele>
        <time>2019-07-12T08:32:32Z</time>
      </trkpt>
      <trkpt lat="38.8337760" lon="-9.0850840">
        <ele>9.8</ele>
        <time>2019-07-12T08:32:33Z</time>
      </trkpt>
      <trkpt lat="38.8332590" lon="-9.0853560">
        <ele>9.6</ele>
        <time>2019-07-12T08:32:41Z</time>
      </trkpt>
      <trkpt lat="38.8331960" lon="-9.0853880">
        <ele>9.6</ele>
        <time>2019-07-12T08:32:42Z</time>
      </trkpt>
      <trkpt lat="38.8326390" lon="-9.0856930">
        <ele>10.2</ele>
        <time>2019-07-12T08:32:51Z</time>
      </trkpt>
      <trkpt lat="38.8322600" lon="-9.0859100">
        <ele>9.6</ele>
        <time>2019-07-12T08:32:57Z</time>
      </trkpt>
      <trkpt lat="38.8320060" lon="-9.0860560">
        <ele>9.6</ele>
        <time>2019-07-12T08:33:01Z</time>
      </trkpt>
      <trkpt lat="38.8319400" lon="-9.0860870">
        <ele>9.6</ele>
        <time>2019-07-12T08:33:02Z</time>
      </trkpt>
      <trkpt lat="38.8314830" lon="-9.0862700">
        <ele>10.0</ele>
        <time>2019-07-12T08:33:09Z</time>
      </trkpt>
      <trkpt lat="38.8314160" lon="-9.0862920">
        <ele>10.0</ele>
        <time>2019-07-12T08:33:10Z</time>
      </trkpt>
      <trkpt lat="38.8312270" lon="-9.0863610">
        <ele>10.4</ele>
        <time>2019-07-12T08:33:13Z</time>
      </trkpt>
      <trkpt lat="38.8310450" lon="-9.0864290">
        <ele>10.6</ele>
        <time>2019-07-12T08:33:16Z</time>
      </trkpt>
      <trkpt lat="38.8308050" lon="-9.0865230">
        <ele>10.6</ele>
        <time>2019-07-12T08:33:20Z</time>
      </trkpt>
      <trkpt lat="38.8306230" lon="-9.0865930">
        <ele>10.6</ele>
        <time>2019-07-12T08:33:23Z</time>
      </trkpt>
      <trkpt lat="38.8302640" lon="-9.0867060">
        <ele>10.8</ele>
        <time>2019-07-12T08:33:29Z</time>
      </trkpt>
      <trkpt lat="38.8296630" lon="-9.0868180">
        <ele>10.4</ele>
        <time>2019-07-12T08:33:38Z</time>
      </trkpt>
      <trkpt lat="38.8294610" lon="-9.0868510">
        <ele>10.2</ele>
        <time>2019-07-12T08:33:41Z</time>
      </trkpt>
      <trkpt lat="38.8293250" lon="-9.0868730">
        <ele>9.6</ele>
        <time>2019-07-12T08:33:43Z</time>
      </trkpt>
      <trkpt lat="38.8292580" lon="-9.0868870">
        <ele>9.4</ele>
        <time>2019-07-12T08:33:44Z</time>
      </trkpt>
      <trkpt lat="38.8287810" lon="-9.0869820">
        <ele>9.0</ele>
        <time>2019-07-12T08:33:51Z</time>
      </trkpt>
      <trkpt lat="38.8283130" lon="-9.0871000">
        <ele>8.8</ele>
        <time>2019-07-12T08:33:58Z</time>
      </trkpt>
      <trkpt lat="38.8279700" lon="-9.0871210">
        <ele>8.8</ele>
        <time>2019-07-12T08:34:03Z</time>
      </trkpt>
      <trkpt lat="38.8275680" lon="-9.0871000">
        <ele>9.0</ele>
        <time>2019-07-12T08:34:09Z</time>
      </trkpt>
      <trkpt lat="38.8271290" lon="-9.0870790">
        <ele>9.6</ele>
        <time>2019-07-12T08:34:16Z</time>
      </trkpt>
      <trkpt lat="38.8267520" lon="-9.0870630">
        <ele>10.2</ele>
        <time>2019-07-12T08:34:22Z</time>
      </trkpt>
      <trkpt lat="38.8266890" lon="-9.0870590">
        <ele>10.4</ele>
        <time>2019-07-12T08:34:23Z</time>
      </trkpt>
      <trkpt lat="38.8263050" lon="-9.0870030">
        <ele>11.4</ele>
        <time>2019-07-12T08:34:29Z</time>
      </trkpt>
      <trkpt lat="38.8261150" lon="-9.0870000">
        <ele>11.8</ele>
        <time>2019-07-12T08:34:32Z</time>
      </trkpt>
      <trkpt lat="38.8257570" lon="-9.0870050">
        <ele>12.0</ele>
        <time>2019-07-12T08:34:38Z</time>
      </trkpt>
      <trkpt lat="38.8255920" lon="-9.0870790">
        <ele>12.2</ele>
        <time>2019-07-12T08:34:41Z</time>
      </trkpt>
      <trkpt lat="38.8255340" lon="-9.0870910">
        <ele>12.4</ele>
        <time>2019-07-12T08:34:42Z</time>
      </trkpt>
      <trkpt lat="38.8254740" lon="-9.0870850">
        <ele>12.4</ele>
        <time>2019-07-12T08:34:43Z</time>
      </trkpt>
      <trkpt lat="38.8253590" lon="-9.0870220">
        <ele>12.6</ele>
        <time>2019-07-12T08:34:45Z</time>
      </trkpt>
      <trkpt lat="38.8251070" lon="-9.0869560">
        <ele>12.0</ele>
        <time>2019-07-12T08:34:49Z</time>
      </trkpt>
      <trkpt lat="38.8250360" lon="-9.0869710">
        <ele>12.0</ele>
        <time>2019-07-12T08:34:50Z</time>
      </trkpt>
      <trkpt lat="38.8248870" lon="-9.0870110">
        <ele>11.6</ele>
        <time>2019-07-12T08:34:52Z</time>
      </trkpt>
      <trkpt lat="38.8246550" lon="-9.0870770">
        <ele>11.0</ele>
        <time>2019-07-12T08:34:55Z</time>
      </trkpt>
      <trkpt lat="38.8243440" lon="-9.0871850">
        <ele>10.4</ele>
        <time>2019-07-12T08:34:59Z</time>
      </trkpt>
      <trkpt lat="38.8241170" lon="-9.0872860">
        <ele>10.2</ele>
        <time>2019-07-12T08:35:02Z</time>
      </trkpt>
      <trkpt lat="38.8239800" lon="-9.0873780">
        <ele>10.0</ele>
        <time>2019-07-12T08:35:04Z</time>
      </trkpt>
      <trkpt lat="38.8238630" lon="-9.0875000">
        <ele>10.0</ele>
        <time>2019-07-12T08:35:06Z</time>
      </trkpt>
      <trkpt lat="38.8235820" lon="-9.0879160">
        <ele>10.6</ele>
        <time>2019-07-12T08:35:12Z</time>
      </trkpt>
      <trkpt lat="38.8232260" lon="-9.0884100">
        <ele>11.2</ele>
        <time>2019-07-12T08:35:20Z</time>
      </trkpt>
      <trkpt lat="38.8228110" lon="-9.0889690">
        <ele>10.8</ele>
        <time>2019-07-12T08:35:29Z</time>
      </trkpt>
      <trkpt lat="38.8225870" lon="-9.0892540">
        <ele>11.6</ele>
        <time>2019-07-12T08:35:34Z</time>
      </trkpt>
      <trkpt lat="38.8225410" lon="-9.0892990">
        <ele>11.6</ele>
        <time>2019-07-12T08:35:35Z</time>
      </trkpt>
      <trkpt lat="38.8222630" lon="-9.0894970">
        <ele>12.4</ele>
        <time>2019-07-12T08:35:41Z</time>
      </trkpt>
      <trkpt lat="38.8221100" lon="-9.0895590">
        <ele>13.0</ele>
        <time>2019-07-12T08:35:44Z</time>
      </trkpt>
      <trkpt lat="38.8220600" lon="-9.0895820">
        <ele>13.4</ele>
        <time>2019-07-12T08:35:45Z</time>
      </trkpt>
      <trkpt lat="38.8219580" lon="-9.0896270">
        <ele>13.8</ele>
        <time>2019-07-12T08:35:47Z</time>
      </trkpt>
      <trkpt lat="38.8219040" lon="-9.0896470">
        <ele>14.0</ele>
        <time>2019-07-12T08:35:48Z</time>
      </trkpt>
      <trkpt lat="38.8217330" lon="-9.0897030">
        <ele>14.0</ele>
        <time>2019-07-12T08:35:51Z</time>
      </trkpt>
      <trkpt lat="38.8215560" lon="-9.0897710">
        <ele>14.2</ele>
        <time>2019-07-12T08:35:54Z</time>
      </trkpt>
      <trkpt lat="38.8214980" lon="-9.0897980">
        <ele>14.0</ele>
        <time>2019-07-12T08:35:55Z</time>
      </trkpt>
      <trkpt lat="38.8213170" lon="-9.0898890">
        <ele>13.6</ele>
        <time>2019-07-12T08:35:58Z</time>
      </trkpt>
      <trkpt lat="38.8211190" lon="-9.0899980">
        <ele>13.4</ele>
        <time>2019-07-12T08:36:01Z</time>
      </trkpt>
      <trkpt lat="38.8208480" lon="-9.0901720">
        <ele>12.6</ele>
        <time>2019-07-12T08:36:05Z</time>
      </trkpt>
      <trkpt lat="38.8206490" lon="-9.0903100">
        <ele>12.2</ele>
        <time>2019-07-12T08:36:08Z</time>
      </trkpt>
      <trkpt lat="38.8205830" lon="-9.0903540">
        <ele>12.2</ele>
        <time>2019-07-12T08:36:09Z</time>
      </trkpt>
      <trkpt lat="38.8203810" lon="-9.0904710">
        <ele>12.0</ele>
        <time>2019-07-12T08:36:12Z</time>
      </trkpt>
      <trkpt lat="38.8201200" lon="-9.0906220">
        <ele>12.2</ele>
        <time>2019-07-12T08:36:16Z</time>
      </trkpt>
      <trkpt lat="38.8200550" lon="-9.0906560">
        <ele>12.2</ele>
        <time>2019-07-12T08:36:17Z</time>
      </trkpt>
      <trkpt lat="38.8198740" lon="-9.0907490">
        <ele>12.4</ele>
        <time>2019-07-12T08:36:20Z</time>
      </trkpt>
      <trkpt lat="38.8196540" lon="-9.0908900">
        <ele>13.0</ele>
        <time>2019-07-12T08:36:24Z</time>
      </trkpt>
      <trkpt lat="38.8194520" lon="-9.0910130">
        <ele>13.8</ele>
        <time>2019-07-12T08:36:28Z</time>
      </trkpt>
      <trkpt lat="38.8192620" lon="-9.0911140">
        <ele>14.2</ele>
        <time>2019-07-12T08:36:32Z</time>
      </trkpt>
      <trkpt lat="38.8191710" lon="-9.0911570">
        <ele>14.8</ele>
        <time>2019-07-12T08:36:34Z</time>
      </trkpt>
      <trkpt lat="38.8190410" lon="-9.0912050">
        <ele>15.2</ele>
        <time>2019-07-12T08:36:37Z</time>
      </trkpt>
      <trkpt lat="38.8189560" lon="-9.0912320">
        <ele>15.8</ele>
        <time>2019-07-12T08:36:39Z</time>
      </trkpt>
      <trkpt lat="38.8188710" lon="-9.0912700">
        <ele>16.2</ele>
        <time>2019-07-12T08:36:41Z</time>
      </trkpt>
      <trkpt lat="38.8187420" lon="-9.0913200">
        <ele>17.0</ele>
        <time>2019-07-12T08:36:44Z</time>
      </trkpt>
      <trkpt lat="38.8186550" lon="-9.0913390">
        <ele>17.6</ele>
        <time>2019-07-12T08:36:46Z</time>
      </trkpt>
      <trkpt lat="38.8185670" lon="-9.0913560">
        <ele>18.2</ele>
        <time>2019-07-12T08:36:48Z</time>
      </trkpt>
      <trkpt lat="38.8184320" lon="-9.0913810">
        <ele>18.8</ele>
        <time>2019-07-12T08:36:51Z</time>
      </trkpt>
      <trkpt lat="38.8183850" lon="-9.0913850">
        <ele>19.4</ele>
        <time>2019-07-12T08:36:52Z</time>
      </trkpt>
      <trkpt lat="38.8182880" lon="-9.0913920">
        <ele>20.0</ele>
        <time>2019-07-12T08:36:54Z</time>
      </trkpt>
      <trkpt lat="38.8181900" lon="-9.0914050">
        <ele>20.6</ele>
        <time>2019-07-12T08:36:56Z</time>
      </trkpt>
      <trkpt lat="38.8180560" lon="-9.0914360">
        <ele>21.4</ele>
        <time>2019-07-12T08:36:59Z</time>
      </trkpt>
      <trkpt lat="38.8180140" lon="-9.0914470">
        <ele>21.8</ele>
        <time>2019-07-12T08:37:00Z</time>
      </trkpt>
      <trkpt lat="38.8179720" lon="-9.0914570">
        <ele>22.0</ele>
        <time>2019-07-12T08:37:01Z</time>
      </trkpt>
      <trkpt lat="38.8177940" lon="-9.0915120">
        <ele>22.8</ele>
        <time>2019-07-12T08:37:05Z</time>
      </trkpt>
      <trkpt lat="38.8176370" lon="-9.0915500">
        <ele>22.8</ele>
        <time>2019-07-12T08:37:08Z</time>
      </trkpt>
      <trkpt lat="38.8172930" lon="-9.0916510">
        <ele>22.2</ele>
        <time>2019-07-12T08:37:14Z</time>
      </trkpt>
      <trkpt lat="38.8170970" lon="-9.0916980">
        <ele>21.8</ele>
        <time>2019-07-12T08:37:17Z</time>
      </trkpt>
      <trkpt lat="38.8169570" lon="-9.0917250">
        <ele>21.0</ele>
        <time>2019-07-12T08:37:19Z</time>
      </trkpt>
      <trkpt lat="38.8168840" lon="-9.0917330">
        <ele>20.8</ele>
        <time>2019-07-12T08:37:20Z</time>
      </trkpt>
      <trkpt lat="38.8168080" lon="-9.0917400">
        <ele>20.4</ele>
        <time>2019-07-12T08:37:21Z</time>
      </trkpt>
      <trkpt lat="38.8166540" lon="-9.0917500">
        <ele>19.8</ele>
        <time>2019-07-12T08:37:23Z</time>
      </trkpt>
      <trkpt lat="38.8164140" lon="-9.0917630">
        <ele>18.6</ele>
        <time>2019-07-12T08:37:26Z</time>
      </trkpt>
      <trkpt lat="38.8162460" lon="-9.0917710">
        <ele>18.0</ele>
        <time>2019-07-12T08:37:28Z</time>
      </trkpt>
      <trkpt lat="38.8160770" lon="-9.0917830">
        <ele>17.6</ele>
        <time>2019-07-12T08:37:30Z</time>
      </trkpt>
      <trkpt lat="38.8158170" lon="-9.0917900">
        <ele>16.6</ele>
        <time>2019-07-12T08:37:33Z</time>
      </trkpt>
      <trkpt lat="38.8155470" lon="-9.0917980">
        <ele>15.6</ele>
        <time>2019-07-12T08:37:36Z</time>
      </trkpt>
      <trkpt lat="38.8154540" lon="-9.0918050">
        <ele>15.4</ele>
        <time>2019-07-12T08:37:37Z</time>
      </trkpt>
      <trkpt lat="38.8151670" lon="-9.0918220">
        <ele>14.0</ele>
        <time>2019-07-12T08:37:40Z</time>
      </trkpt>
      <trkpt lat="38.8149700" lon="-9.0918300">
        <ele>13.0</ele>
        <time>2019-07-12T08:37:42Z</time>
      </trkpt>
      <trkpt lat="38.8148710" lon="-9.0918350">
        <ele>12.6</ele>
        <time>2019-07-12T08:37:43Z</time>
      </trkpt>
      <trkpt lat="38.8146780" lon="-9.0918480">
        <ele>12.0</ele>
        <time>2019-07-12T08:37:45Z</time>
      </trkpt>
      <trkpt lat="38.8144930" lon="-9.0918620">
        <ele>11.4</ele>
        <time>2019-07-12T08:37:47Z</time>
      </trkpt>
      <trkpt lat="38.8143220" lon="-9.0918710">
        <ele>11.2</ele>
        <time>2019-07-12T08:37:49Z</time>
      </trkpt>
      <trkpt lat="38.8140900" lon="-9.0918820">
        <ele>11.4</ele>
        <time>2019-07-12T08:37:52Z</time>
      </trkpt>
      <trkpt lat="38.8138800" lon="-9.0918840">
        <ele>11.8</ele>
        <time>2019-07-12T08:37:55Z</time>
      </trkpt>
      <trkpt lat="38.8134790" lon="-9.0918930">
        <ele>12.4</ele>
        <time>2019-07-12T08:38:01Z</time>
      </trkpt>
      <trkpt lat="38.8134170" lon="-9.0918990">
        <ele>12.4</ele>
        <time>2019-07-12T08:38:02Z</time>
      </trkpt>
      <trkpt lat="38.8131250" lon="-9.0919630">
        <ele>13.0</ele>
        <time>2019-07-12T08:38:07Z</time>
      </trkpt>
      <trkpt lat="38.8130140" lon="-9.0920040">
        <ele>13.0</ele>
        <time>2019-07-12T08:38:09Z</time>
      </trkpt>
      <trkpt lat="38.8127540" lon="-9.0921940">
        <ele>13.2</ele>
        <time>2019-07-12T08:38:14Z</time>
      </trkpt>
      <trkpt lat="38.8124170" lon="-9.0924190">
        <ele>13.2</ele>
        <time>2019-07-12T08:38:20Z</time>
      </trkpt>
      <trkpt lat="38.8121210" lon="-9.0925610">
        <ele>13.0</ele>
        <time>2019-07-12T08:38:25Z</time>
      </trkpt>
      <trkpt lat="38.8119430" lon="-9.0926650">
        <ele>12.8</ele>
        <time>2019-07-12T08:38:28Z</time>
      </trkpt>
      <trkpt lat="38.8118250" lon="-9.0927440">
        <ele>12.8</ele>
        <time>2019-07-12T08:38:30Z</time>
      </trkpt>
      <trkpt lat="38.8116490" lon="-9.0928620">
        <ele>12.6</ele>
        <time>2019-07-12T08:38:33Z</time>
      </trkpt>
      <trkpt lat="38.8115910" lon="-9.0929050">
        <ele>12.6</ele>
        <time>2019-07-12T08:38:34Z</time>
      </trkpt>
      <trkpt lat="38.8114760" lon="-9.0930010">
        <ele>12.2</ele>
        <time>2019-07-12T08:38:36Z</time>
      </trkpt>
      <trkpt lat="38.8114260" lon="-9.0930590">
        <ele>12.0</ele>
        <time>2019-07-12T08:38:37Z</time>
      </trkpt>
      <trkpt lat="38.8113270" lon="-9.0931830">
        <ele>12.0</ele>
        <time>2019-07-12T08:38:39Z</time>
      </trkpt>
      <trkpt lat="38.8112750" lon="-9.0932400">
        <ele>12.0</ele>
        <time>2019-07-12T08:38:40Z</time>
      </trkpt>
      <trkpt lat="38.8111590" lon="-9.0933260">
        <ele>11.8</ele>
        <time>2019-07-12T08:38:42Z</time>
      </trkpt>
      <trkpt lat="38.8109250" lon="-9.0935230">
        <ele>11.6</ele>
        <time>2019-07-12T08:38:46Z</time>
      </trkpt>
      <trkpt lat="38.8105110" lon="-9.0939070">
        <ele>11.0</ele>
        <time>2019-07-12T08:38:53Z</time>
      </trkpt>
      <trkpt lat="38.8102640" lon="-9.0941050">
        <ele>11.0</ele>
        <time>2019-07-12T08:38:57Z</time>
      </trkpt>
      <trkpt lat="38.8100850" lon="-9.0942480">
        <ele>10.8</ele>
        <time>2019-07-12T08:39:00Z</time>
      </trkpt>
      <trkpt lat="38.8097400" lon="-9.0945230">
        <ele>11.4</ele>
        <time>2019-07-12T08:39:06Z</time>
      </trkpt>
      <trkpt lat="38.8096810" lon="-9.0945660">
        <ele>11.4</ele>
        <time>2019-07-12T08:39:07Z</time>
      </trkpt>
      <trkpt lat="38.8093360" lon="-9.0948340">
        <ele>12.0</ele>
        <time>2019-07-12T08:39:13Z</time>
      </trkpt>
      <trkpt lat="38.8092780" lon="-9.0948770">
        <ele>12.0</ele>
        <time>2019-07-12T08:39:14Z</time>
      </trkpt>
      <trkpt lat="38.8090980" lon="-9.0949920">
        <ele>12.4</ele>
        <time>2019-07-12T08:39:17Z</time>
      </trkpt>
      <trkpt lat="38.8089070" lon="-9.0950870">
        <ele>12.6</ele>
        <time>2019-07-12T08:39:20Z</time>
      </trkpt>
      <trkpt lat="38.8088420" lon="-9.0951150">
        <ele>12.6</ele>
        <time>2019-07-12T08:39:21Z</time>
      </trkpt>
      <trkpt lat="38.8086480" lon="-9.0951970">
        <ele>13.0</ele>
        <time>2019-07-12T08:39:24Z</time>
      </trkpt>
      <trkpt lat="38.8083430" lon="-9.0953220">
        <ele>13.2</ele>
        <time>2019-07-12T08:39:29Z</time>
      </trkpt>
      <trkpt lat="38.8081790" lon="-9.0953950">
        <ele>13.0</ele>
        <time>2019-07-12T08:39:32Z</time>
      </trkpt>
      <trkpt lat="38.8080610" lon="-9.0954460">
        <ele>12.8</ele>
        <time>2019-07-12T08:39:34Z</time>
      </trkpt>
      <trkpt lat="38.8077130" lon="-9.0954940">
        <ele>12.2</ele>
        <time>2019-07-12T08:39:39Z</time>
      </trkpt>
      <trkpt lat="38.8075740" lon="-9.0955490">
        <ele>11.6</ele>
        <time>2019-07-12T08:39:41Z</time>
      </trkpt>
      <trkpt lat="38.8075020" lon="-9.0955760">
        <ele>11.4</ele>
        <time>2019-07-12T08:39:42Z</time>
      </trkpt>
      <trkpt lat="38.8073500" lon="-9.0956150">
        <ele>11.0</ele>
        <time>2019-07-12T08:39:44Z</time>
      </trkpt>
      <trkpt lat="38.8071380" lon="-9.0956870">
        <ele>10.8</ele>
        <time>2019-07-12T08:39:47Z</time>
      </trkpt>
      <trkpt lat="38.8066780" lon="-9.0958490">
        <ele>10.8</ele>
        <time>2019-07-12T08:39:54Z</time>
      </trkpt>
      <trkpt lat="38.8063970" lon="-9.0959650">
        <ele>10.8</ele>
        <time>2019-07-12T08:39:59Z</time>
      </trkpt>
      <trkpt lat="38.8063480" lon="-9.0960000">
        <ele>10.8</ele>
        <time>2019-07-12T08:40:00Z</time>
      </trkpt>
      <trkpt lat="38.8062280" lon="-9.0961360">
        <ele>11.2</ele>
        <time>2019-07-12T08:40:03Z</time>
      </trkpt>
      <trkpt lat="38.8061950" lon="-9.0961850">
        <ele>11.4</ele>
        <time>2019-07-12T08:40:04Z</time>
      </trkpt>
      <trkpt lat="38.8061600" lon="-9.0962290">
        <ele>11.8</ele>
        <time>2019-07-12T08:40:05Z</time>
      </trkpt>
      <trkpt lat="38.8060740" lon="-9.0962910">
        <ele>12.4</ele>
        <time>2019-07-12T08:40:07Z</time>
      </trkpt>
      <trkpt lat="38.8060250" lon="-9.0963020">
        <ele>12.6</ele>
        <time>2019-07-12T08:40:08Z</time>
      </trkpt>
      <trkpt lat="38.8058680" lon="-9.0962470">
        <ele>12.8</ele>
        <time>2019-07-12T08:40:11Z</time>
      </trkpt>
      <trkpt lat="38.8058150" lon="-9.0962100">
        <ele>12.8</ele>
        <time>2019-07-12T08:40:12Z</time>
      </trkpt>
      <trkpt lat="38.8057560" lon="-9.0961810">
        <ele>12.8</ele>
        <time>2019-07-12T08:40:13Z</time>
      </trkpt>
      <trkpt lat="38.8056930" lon="-9.0961680">
        <ele>12.8</ele>
        <time>2019-07-12T08:40:14Z</time>
      </trkpt>
      <trkpt lat="38.8055710" lon="-9.0961890">
        <ele>12.6</ele>
        <time>2019-07-12T08:40:16Z</time>
      </trkpt>
      <trkpt lat="38.8055130" lon="-9.0962110">
        <ele>12.4</ele>
        <time>2019-07-12T08:40:17Z</time>
      </trkpt>
      <trkpt lat="38.8054010" lon="-9.0962520">
        <ele>12.4</ele>
        <time>2019-07-12T08:40:19Z</time>
      </trkpt>
      <trkpt lat="38.8052830" lon="-9.0962850">
        <ele>12.6</ele>
        <time>2019-07-12T08:40:21Z</time>
      </trkpt>
      <trkpt lat="38.8051710" lon="-9.0963110">
        <ele>12.8</ele>
        <time>2019-07-12T08:40:23Z</time>
      </trkpt>
      <trkpt lat="38.8049610" lon="-9.0963740">
        <ele>13.2</ele>
        <time>2019-07-12T08:40:27Z</time>
      </trkpt>
      <trkpt lat="38.8048100" lon="-9.0964200">
        <ele>13.6</ele>
        <time>2019-07-12T08:40:30Z</time>
      </trkpt>
      <trkpt lat="38.8043300" lon="-9.0965720">
        <ele>14.2</ele>
        <time>2019-07-12T08:40:39Z</time>
      </trkpt>
      <trkpt lat="38.8042240" lon="-9.0966130">
        <ele>14.2</ele>
        <time>2019-07-12T08:40:41Z</time>
      </trkpt>
      <trkpt lat="38.8038930" lon="-9.0967460">
        <ele>14.2</ele>
        <time>2019-07-12T08:40:47Z</time>
      </trkpt>
      <trkpt lat="38.8035580" lon="-9.0968960">
        <ele>14.8</ele>
        <time>2019-07-12T08:40:53Z</time>
      </trkpt>
      <trkpt lat="38.8031730" lon="-9.0970930">
        <ele>15.0</ele>
        <time>2019-07-12T08:41:00Z</time>
      </trkpt>
      <trkpt lat="38.8030180" lon="-9.0971980">
        <ele>15.2</ele>
        <time>2019-07-12T08:41:03Z</time>
      </trkpt>
      <trkpt lat="38.8027690" lon="-9.0973960">
        <ele>15.4</ele>
        <time>2019-07-12T08:41:08Z</time>
      </trkpt>
      <trkpt lat="38.8023890" lon="-9.0977880">
        <ele>15.4</ele>
        <time>2019-07-12T08:41:16Z</time>
      </trkpt>
      <trkpt lat="38.8022090" lon="-9.0979830">
        <ele>15.8</ele>
        <time>2019-07-12T08:41:20Z</time>
      </trkpt>
      <trkpt lat="38.8020330" lon="-9.0981730">
        <ele>15.8</ele>
        <time>2019-07-12T08:41:24Z</time>
      </trkpt>
      <trkpt lat="38.8019900" lon="-9.0982200">
        <ele>16.0</ele>
        <time>2019-07-12T08:41:25Z</time>
      </trkpt>
      <trkpt lat="38.8016930" lon="-9.0985380">
        <ele>16.6</ele>
        <time>2019-07-12T08:41:32Z</time>
      </trkpt>
      <trkpt lat="38.8016490" lon="-9.0985780">
        <ele>16.8</ele>
        <time>2019-07-12T08:41:33Z</time>
      </trkpt>
      <trkpt lat="38.8016040" lon="-9.0986130">
        <ele>17.0</ele>
        <time>2019-07-12T08:41:34Z</time>
      </trkpt>
      <trkpt lat="38.8013280" lon="-9.0988000">
        <ele>17.8</ele>
        <time>2019-07-12T08:41:40Z</time>
      </trkpt>
      <trkpt lat="38.8012780" lon="-9.0988210">
        <ele>18.0</ele>
        <time>2019-07-12T08:41:41Z</time>
      </trkpt>
      <trkpt lat="38.8009770" lon="-9.0989250">
        <ele>19.0</ele>
        <time>2019-07-12T08:41:47Z</time>
      </trkpt>
      <trkpt lat="38.8007350" lon="-9.0990160">
        <ele>20.0</ele>
        <time>2019-07-12T08:41:52Z</time>
      </trkpt>
      <trkpt lat="38.8005330" lon="-9.0990890">
        <ele>20.6</ele>
        <time>2019-07-12T08:41:56Z</time>
      </trkpt>
      <trkpt lat="38.8003200" lon="-9.0991780">
        <ele>20.6</ele>
        <time>2019-07-12T08:42:00Z</time>
      </trkpt>
      <trkpt lat="38.8002370" lon="-9.0992700">
        <ele>20.2</ele>
        <time>2019-07-12T08:42:02Z</time>
      </trkpt>
      <trkpt lat="38.8001080" lon="-9.0994960">
        <ele>19.2</ele>
        <time>2019-07-12T08:42:06Z</time>
      </trkpt>
      <trkpt lat="38.8000120" lon="-9.0995330">
        <ele>19.0</ele>
        <time>2019-07-12T08:42:08Z</time>
      </trkpt>
      <trkpt lat="38.7999190" lon="-9.0995550">
        <ele>19.2</ele>
        <time>2019-07-12T08:42:10Z</time>
      </trkpt>
      <trkpt lat="38.7998720" lon="-9.0995640">
        <ele>19.4</ele>
        <time>2019-07-12T08:42:11Z</time>
      </trkpt>
      <trkpt lat="38.7997790" lon="-9.0995900">
        <ele>19.4</ele>
        <time>2019-07-12T08:42:13Z</time>
      </trkpt>
      <trkpt lat="38.7996880" lon="-9.0996740">
        <ele>19.6</ele>
        <time>2019-07-12T08:42:15Z</time>
      </trkpt>
      <trkpt lat="38.7996510" lon="-9.0998190">
        <ele>18.8</ele>
        <time>2019-07-12T08:42:17Z</time>
      </trkpt>
      <trkpt lat="38.7996410" lon="-9.0998960">
        <ele>18.6</ele>
        <time>2019-07-12T08:42:18Z</time>
      </trkpt>
      <trkpt lat="38.7996220" lon="-9.1000530">
        <ele>18.6</ele>
        <time>2019-07-12T08:42:20Z</time>
      </trkpt>
      <trkpt lat="38.7995740" lon="-9.1002730">
        <ele>18.8</ele>
        <time>2019-07-12T08:42:23Z</time>
      </trkpt>
      <trkpt lat="38.7994920" lon="-9.1006000">
        <ele>19.4</ele>
        <time>2019-07-12T08:42:28Z</time>
      </trkpt>
      <trkpt lat="38.7994690" lon="-9.1007330">
        <ele>19.6</ele>
        <time>2019-07-12T08:42:30Z</time>
      </trkpt>
      <trkpt lat="38.7993850" lon="-9.1013150">
        <ele>19.6</ele>
        <time>2019-07-12T08:42:38Z</time>
      </trkpt>
      <trkpt lat="38.7993210" lon="-9.1017920">
        <ele>19.0</ele>
        <time>2019-07-12T08:42:44Z</time>
      </trkpt>
      <trkpt lat="38.7992720" lon="-9.1021270">
        <ele>17.8</ele>
        <time>2019-07-12T08:42:48Z</time>
      </trkpt>
      <trkpt lat="38.7992480" lon="-9.1023060">
        <ele>17.4</ele>
        <time>2019-07-12T08:42:50Z</time>
      </trkpt>
      <trkpt lat="38.7992020" lon="-9.1026850">
        <ele>16.2</ele>
        <time>2019-07-12T08:42:54Z</time>
      </trkpt>
      <trkpt lat="38.7991780" lon="-9.1028850">
        <ele>15.8</ele>
        <time>2019-07-12T08:42:56Z</time>
      </trkpt>
      <trkpt lat="38.7990890" lon="-9.1033930">
        <ele>15.0</ele>
        <time>2019-07-12T08:43:01Z</time>
      </trkpt>
      <trkpt lat="38.7990640" lon="-9.1034900">
        <ele>14.8</ele>
        <time>2019-07-12T08:43:02Z</time>
      </trkpt>
      <trkpt lat="38.7990290" lon="-9.1035800">
        <ele>14.6</ele>
        <time>2019-07-12T08:43:03Z</time>
      </trkpt>
      <trkpt lat="38.7989020" lon="-9.1038200">
        <ele>14.0</ele>
        <time>2019-07-12T08:43:06Z</time>
      </trkpt>
      <trkpt lat="38.7987100" lon="-9.1041180">
        <ele>12.8</ele>
        <time>2019-07-12T08:43:10Z</time>
      </trkpt>
      <trkpt lat="38.7985950" lon="-9.1042490">
        <ele>12.6</ele>
        <time>2019-07-12T08:43:12Z</time>
      </trkpt>
      <trkpt lat="38.7983930" lon="-9.1044150">
        <ele>11.6</ele>
        <time>2019-07-12T08:43:15Z</time>
      </trkpt>
      <trkpt lat="38.7982490" lon="-9.1045040">
        <ele>11.0</ele>
        <time>2019-07-12T08:43:17Z</time>
      </trkpt>
      <trkpt lat="38.7981060" lon="-9.1045870">
        <ele>10.6</ele>
        <time>2019-07-12T08:43:19Z</time>
      </trkpt>
      <trkpt lat="38.7978930" lon="-9.1046710">
        <ele>10.6</ele>
        <time>2019-07-12T08:43:22Z</time>
      </trkpt>
      <trkpt lat="38.7978250" lon="-9.1046930">
        <ele>10.6</ele>
        <time>2019-07-12T08:43:23Z</time>
      </trkpt>
      <trkpt lat="38.7975020" lon="-9.1047740">
        <ele>11.2</ele>
        <time>2019-07-12T08:43:28Z</time>
      </trkpt>
      <trkpt lat="38.7973800" lon="-9.1047950">
        <ele>11.2</ele>
        <time>2019-07-12T08:43:30Z</time>
      </trkpt>
      <trkpt lat="38.7969090" lon="-9.1048440">
        <ele>11.0</ele>
        <time>2019-07-12T08:43:38Z</time>
      </trkpt>
      <trkpt lat="38.7965390" lon="-9.1048250">
        <ele>9.6</ele>
        <time>2019-07-12T08:43:44Z</time>
      </trkpt>
      <trkpt lat="38.7964250" lon="-9.1048100">
        <ele>9.4</ele>
        <time>2019-07-12T08:43:46Z</time>
      </trkpt>
      <trkpt lat="38.7962270" lon="-9.1047580">
        <ele>9.0</ele>
        <time>2019-07-12T08:43:51Z</time>
      </trkpt>
      <trkpt lat="38.7962190" lon="-9.1047270">
        <ele>9.0</ele>
        <time>2019-07-12T08:43:55Z</time>
      </trkpt>
      <trkpt lat="38.7962320" lon="-9.1046950">
        <ele>8.6</ele>
        <time>2019-07-12T08:44:08Z</time>
      </trkpt>
      <trkpt lat="38.7962660" lon="-9.1046710">
        <ele>8.6</ele>
        <time>2019-07-12T08:44:10Z</time>
      </trkpt>
      <trkpt lat="38.7963690" lon="-9.1045730">
        <ele>8.6</ele>
        <time>2019-07-12T08:44:15Z</time>
      </trkpt>
      <trkpt lat="38.7964350" lon="-9.1043840">
        <ele>8.4</ele>
        <time>2019-07-12T08:44:19Z</time>
      </trkpt>
      <trkpt lat="38.7964560" lon="-9.1043280">
        <ele>8.4</ele>
        <time>2019-07-12T08:44:20Z</time>
      </trkpt>
      <trkpt lat="38.7965220" lon="-9.1041430">
        <ele>8.0</ele>
        <time>2019-07-12T08:44:23Z</time>
      </trkpt>
      <trkpt lat="38.7965900" lon="-9.1039380">
        <ele>8.0</ele>
        <time>2019-07-12T08:44:25Z</time>
      </trkpt>
      <trkpt lat="38.7965900" lon="-9.1039380">
        <ele>7.8</ele>
        <time>2019-07-12T08:44:26Z</time>
      </trkpt>
      <trkpt lat="38.7966930" lon="-9.1035700">
        <ele>6.8</ele>
        <time>2019-07-12T08:44:31Z</time>
      </trkpt>
      <trkpt lat="38.7967070" lon="-9.1034910">
        <ele>6.8</ele>
        <time>2019-07-12T08:44:32Z</time>
      </trkpt>
      <trkpt lat="38.7967510" lon="-9.1031810">
        <ele>6.6</ele>
        <time>2019-07-12T08:44:36Z</time>
      </trkpt>
      <trkpt lat="38.7968040" lon="-9.1028930">
        <ele>6.4</ele>
        <time>2019-07-12T08:44:40Z</time>
      </trkpt>
      <trkpt lat="38.7968670" lon="-9.1025400">
        <ele>6.4</ele>
        <time>2019-07-12T08:44:45Z</time>
      </trkpt>
      <trkpt lat="38.7968810" lon="-9.1024770">
        <ele>6.4</ele>
        <time>2019-07-12T08:44:46Z</time>
      </trkpt>
      <trkpt lat="38.7969200" lon="-9.1022460">
        <ele>6.6</ele>
        <time>2019-07-12T08:44:50Z</time>
      </trkpt>
      <trkpt lat="38.7969230" lon="-9.1021920">
        <ele>6.6</ele>
        <time>2019-07-12T08:44:51Z</time>
      </trkpt>
      <trkpt lat="38.7969270" lon="-9.1021340">
        <ele>6.6</ele>
        <time>2019-07-12T08:44:52Z</time>
      </trkpt>
      <trkpt lat="38.7969440" lon="-9.1017690">
        <ele>6.8</ele>
        <time>2019-07-12T08:44:58Z</time>
      </trkpt>
      <trkpt lat="38.7968970" lon="-9.1013410">
        <ele>7.4</ele>
        <time>2019-07-12T08:45:05Z</time>
      </trkpt>
      <trkpt lat="38.7968520" lon="-9.1011030">
        <ele>7.8</ele>
        <time>2019-07-12T08:45:09Z</time>
      </trkpt>
      <trkpt lat="38.7968380" lon="-9.1010440">
        <ele>7.8</ele>
        <time>2019-07-12T08:45:10Z</time>
      </trkpt>
      <trkpt lat="38.7968200" lon="-9.1009890">
        <ele>7.8</ele>
        <time>2019-07-12T08:45:11Z</time>
      </trkpt>
      <trkpt lat="38.7967530" lon="-9.1008390">
        <ele>8.2</ele>
        <time>2019-07-12T08:45:14Z</time>
      </trkpt>
      <trkpt lat="38.7967450" lon="-9.1007880">
        <ele>8.2</ele>
        <time>2019-07-12T08:45:15Z</time>
      </trkpt>
      <trkpt lat="38.7967260" lon="-9.1007390">
        <ele>8.4</ele>
        <time>2019-07-12T08:45:16Z</time>
      </trkpt>
      <trkpt lat="38.7966400" lon="-9.1005500">
        <ele>8.2</ele>
        <time>2019-07-12T08:45:19Z</time>
      </trkpt>
      <trkpt lat="38.7966140" lon="-9.1005050">
        <ele>8.6</ele>
        <time>2019-07-12T08:45:21Z</time>
      </trkpt>
      <trkpt lat="38.7965900" lon="-9.1004610">
        <ele>8.6</ele>
        <time>2019-07-12T08:45:22Z</time>
      </trkpt>
      <trkpt lat="38.7964470" lon="-9.1001850">
        <ele>9.4</ele>
        <time>2019-07-12T08:45:28Z</time>
      </trkpt>
      <trkpt lat="38.7964280" lon="-9.1001380">
        <ele>9.4</ele>
        <time>2019-07-12T08:45:29Z</time>
      </trkpt>
      <trkpt lat="38.7963430" lon="-9.1000120">
        <ele>9.6</ele>
        <time>2019-07-12T08:45:31Z</time>
      </trkpt>
      <trkpt lat="38.7963260" lon="-9.0999970">
        <ele>9.8</ele>
        <time>2019-07-12T08:45:32Z</time>
      </trkpt>
      <trkpt lat="38.7963090" lon="-9.0999820">
        <ele>10.0</ele>
        <time>2019-07-12T08:45:33Z</time>
      </trkpt>
      <trkpt lat="38.7961830" lon="-9.0998080">
        <ele>10.2</ele>
        <time>2019-07-12T08:45:37Z</time>
      </trkpt>
      <trkpt lat="38.7961750" lon="-9.0997790">
        <ele>10.2</ele>
        <time>2019-07-12T08:45:38Z</time>
      </trkpt>
      <trkpt lat="38.7961660" lon="-9.0997500">
        <ele>10.0</ele>
        <time>2019-07-12T08:45:39Z</time>
      </trkpt>
      <trkpt lat="38.7961100" lon="-9.0994670">
        <ele>9.0</ele>
        <time>2019-07-12T08:45:42Z</time>
      </trkpt>
      <trkpt lat="38.7960950" lon="-9.0993840">
        <ele>8.6</ele>
        <time>2019-07-12T08:45:44Z</time>
      </trkpt>
      <trkpt lat="38.7960410" lon="-9.0992350">
        <ele>8.4</ele>
        <time>2019-07-12T08:45:46Z</time>
      </trkpt>
      <trkpt lat="38.7959850" lon="-9.0991000">
        <ele>8.2</ele>
        <time>2019-07-12T08:45:48Z</time>
      </trkpt>
      <trkpt lat="38.7959550" lon="-9.0989700">
        <ele>8.2</ele>
        <time>2019-07-12T08:45:49Z</time>
      </trkpt>
      <trkpt lat="38.7959410" lon="-9.0988390">
        <ele>8.0</ele>
        <time>2019-07-12T08:45:52Z</time>
      </trkpt>
      <trkpt lat="38.7959250" lon="-9.0987800">
        <ele>7.8</ele>
        <time>2019-07-12T08:45:53Z</time>
      </trkpt>
      <trkpt lat="38.7958770" lon="-9.0986240">
        <ele>8.0</ele>
        <time>2019-07-12T08:45:55Z</time>
      </trkpt>
      <trkpt lat="38.7958770" lon="-9.0986240">
        <ele>8.0</ele>
        <time>2019-07-12T08:45:56Z</time>
      </trkpt>
      <trkpt lat="38.7958310" lon="-9.0985310">
        <ele>8.2</ele>
        <time>2019-07-12T08:45:58Z</time>
      </trkpt>
      <trkpt lat="38.7957980" lon="-9.0984920">
        <ele>8.2</ele>
        <time>2019-07-12T08:45:59Z</time>
      </trkpt>
      <trkpt lat="38.7957710" lon="-9.0984610">
        <ele>8.2</ele>
        <time>2019-07-12T08:46:00Z</time>
      </trkpt>
      <trkpt lat="38.7957530" lon="-9.0984060">
        <ele>8.2</ele>
        <time>2019-07-12T08:46:02Z</time>
      </trkpt>
      <trkpt lat="38.7957550" lon="-9.0983650">
        <ele>8.2</ele>
        <time>2019-07-12T08:46:03Z</time>
      </trkpt>
      <trkpt lat="38.7957700" lon="-9.0983260">
        <ele>8.2</ele>
        <time>2019-07-12T08:46:04Z</time>
      </trkpt>
      <trkpt lat="38.7957920" lon="-9.0981300">
        <ele>8.4</ele>
        <time>2019-07-12T08:46:08Z</time>
      </trkpt>
      <trkpt lat="38.7957980" lon="-9.0980770">
        <ele>8.4</ele>
        <time>2019-07-12T08:46:09Z</time>
      </trkpt>
      <trkpt lat="38.7958390" lon="-9.0977700">
        <ele>8.4</ele>
        <time>2019-07-12T08:46:13Z</time>
      </trkpt>
      <trkpt lat="38.7959040" lon="-9.0973110">
        <ele>7.8</ele>
        <time>2019-07-12T08:46:21Z</time>
      </trkpt>
      <trkpt lat="38.7959480" lon="-9.0967320">
        <ele>7.4</ele>
        <time>2019-07-12T08:46:30Z</time>
      </trkpt>
      <trkpt lat="38.7959640" lon="-9.0964440">
        <ele>7.4</ele>
        <time>2019-07-12T08:46:35Z</time>
      </trkpt>
      <trkpt lat="38.7959710" lon="-9.0962940">
        <ele>7.4</ele>
        <time>2019-07-12T08:46:37Z</time>
      </trkpt>
      <trkpt lat="38.7959640" lon="-9.0960740">
        <ele>7.4</ele>
        <time>2019-07-12T08:46:42Z</time>
      </trkpt>
      <trkpt lat="38.7959620" lon="-9.0959530">
        <ele>7.2</ele>
        <time>2019-07-12T08:46:44Z</time>
      </trkpt>
      <trkpt lat="38.7959730" lon="-9.0957760">
        <ele>7.2</ele>
        <time>2019-07-12T08:46:47Z</time>
      </trkpt>
      <trkpt lat="38.7960190" lon="-9.0956150">
        <ele>7.2</ele>
        <time>2019-07-12T08:46:50Z</time>
      </trkpt>
      <trkpt lat="38.7960590" lon="-9.0954700">
        <ele>7.4</ele>
        <time>2019-07-12T08:46:53Z</time>
      </trkpt>
      <trkpt lat="38.7960670" lon="-9.0953640">
        <ele>7.6</ele>
        <time>2019-07-12T08:46:55Z</time>
      </trkpt>
      <trkpt lat="38.7960570" lon="-9.0951910">
        <ele>7.6</ele>
        <time>2019-07-12T08:46:58Z</time>
      </trkpt>
      <trkpt lat="38.7960450" lon="-9.0950160">
        <ele>7.8</ele>
        <time>2019-07-12T08:47:01Z</time>
      </trkpt>
      <trkpt lat="38.7960210" lon="-9.0945220">
        <ele>7.8</ele>
        <time>2019-07-12T08:47:09Z</time>
      </trkpt>
      <trkpt lat="38.7959950" lon="-9.0939440">
        <ele>7.4</ele>
        <time>2019-07-12T08:47:18Z</time>
      </trkpt>
      <trkpt lat="38.7959670" lon="-9.0935170">
        <ele>8.0</ele>
        <time>2019-07-12T08:47:25Z</time>
      </trkpt>
      <trkpt lat="38.7959650" lon="-9.0933380">
        <ele>7.8</ele>
        <time>2019-07-12T08:47:28Z</time>
      </trkpt>
      <trkpt lat="38.7959510" lon="-9.0930920">
        <ele>7.6</ele>
        <time>2019-07-12T08:47:32Z</time>
      </trkpt>
      <trkpt lat="38.7959370" lon="-9.0927220">
        <ele>7.4</ele>
        <time>2019-07-12T08:47:38Z</time>
      </trkpt>
      <trkpt lat="38.7959300" lon="-9.0925230">
        <ele>7.6</ele>
        <time>2019-07-12T08:47:41Z</time>
      </trkpt>
      <trkpt lat="38.7959180" lon="-9.0921400">
        <ele>7.2</ele>
        <time>2019-07-12T08:47:47Z</time>
      </trkpt>
      <trkpt lat="38.7958970" lon="-9.0919230">
        <ele>7.2</ele>
        <time>2019-07-12T08:47:51Z</time>
      </trkpt>
      <trkpt lat="38.7958730" lon="-9.0917830">
        <ele>7.0</ele>
        <time>2019-07-12T08:47:54Z</time>
      </trkpt>
      <trkpt lat="38.7957480" lon="-9.0915980">
        <ele>7.0</ele>
        <time>2019-07-12T08:47:59Z</time>
      </trkpt>
      <trkpt lat="38.7956180" lon="-9.0914810">
        <ele>7.0</ele>
        <time>2019-07-12T08:48:03Z</time>
      </trkpt>
      <trkpt lat="38.7955580" lon="-9.0914190">
        <ele>6.8</ele>
        <time>2019-07-12T08:48:05Z</time>
      </trkpt>
      <trkpt lat="38.7954970" lon="-9.0913670">
        <ele>6.6</ele>
        <time>2019-07-12T08:48:07Z</time>
      </trkpt>
      <trkpt lat="38.7953840" lon="-9.0913210">
        <ele>6.6</ele>
        <time>2019-07-12T08:48:10Z</time>
      </trkpt>
      <trkpt lat="38.7953000" lon="-9.0912970">
        <ele>6.6</ele>
        <time>2019-07-12T08:48:12Z</time>
      </trkpt>
      <trkpt lat="38.7952560" lon="-9.0912820">
        <ele>6.6</ele>
        <time>2019-07-12T08:48:13Z</time>
      </trkpt>
      <trkpt lat="38.7952130" lon="-9.0912710">
        <ele>6.4</ele>
        <time>2019-07-12T08:48:14Z</time>
      </trkpt>
      <trkpt lat="38.7950370" lon="-9.0912380">
        <ele>6.4</ele>
        <time>2019-07-12T08:48:18Z</time>
      </trkpt>
      <trkpt lat="38.7949920" lon="-9.0912290">
        <ele>6.4</ele>
        <time>2019-07-12T08:48:19Z</time>
      </trkpt>
      <trkpt lat="38.7947280" lon="-9.0911500">
        <ele>6.8</ele>
        <time>2019-07-12T08:48:25Z</time>
      </trkpt>
      <trkpt lat="38.7946450" lon="-9.0910970">
        <ele>6.6</ele>
        <time>2019-07-12T08:48:27Z</time>
      </trkpt>
      <trkpt lat="38.7945310" lon="-9.0909850">
        <ele>6.4</ele>
        <time>2019-07-12T08:48:30Z</time>
      </trkpt>
      <trkpt lat="38.7944890" lon="-9.0909530">
        <ele>6.4</ele>
        <time>2019-07-12T08:48:31Z</time>
      </trkpt>
      <trkpt lat="38.7943520" lon="-9.0908920">
        <ele>6.2</ele>
        <time>2019-07-12T08:48:34Z</time>
      </trkpt>
      <trkpt lat="38.7942580" lon="-9.0908790">
        <ele>6.0</ele>
        <time>2019-07-12T08:48:36Z</time>
      </trkpt>
      <trkpt lat="38.7942100" lon="-9.0908690">
        <ele>6.2</ele>
        <time>2019-07-12T08:48:37Z</time>
      </trkpt>
      <trkpt lat="38.7941220" lon="-9.0908170">
        <ele>6.2</ele>
        <time>2019-07-12T08:48:39Z</time>
      </trkpt>
      <trkpt lat="38.7940500" lon="-9.0907340">
        <ele>6.2</ele>
        <time>2019-07-12T08:48:41Z</time>
      </trkpt>
      <trkpt lat="38.7939350" lon="-9.0906200">
        <ele>6.0</ele>
        <time>2019-07-12T08:48:43Z</time>
      </trkpt>
      <trkpt lat="38.7939140" lon="-9.0906110">
        <ele>6.0</ele>
        <time>2019-07-12T08:48:44Z</time>
      </trkpt>
      <trkpt lat="38.7938930" lon="-9.0906030">
        <ele>5.8</ele>
        <time>2019-07-12T08:48:45Z</time>
      </trkpt>
      <trkpt lat="38.7938050" lon="-9.0906040">
        <ele>5.6</ele>
        <time>2019-07-12T08:48:47Z</time>
      </trkpt>
      <trkpt lat="38.7936220" lon="-9.0906300">
        <ele>5.6</ele>
        <time>2019-07-12T08:48:51Z</time>
      </trkpt>
      <trkpt lat="38.7935760" lon="-9.0906350">
        <ele>5.6</ele>
        <time>2019-07-12T08:48:52Z</time>
      </trkpt>
      <trkpt lat="38.7934310" lon="-9.0906430">
        <ele>5.6</ele>
        <time>2019-07-12T08:48:55Z</time>
      </trkpt>
      <trkpt lat="38.7930240" lon="-9.0906540">
        <ele>5.2</ele>
        <time>2019-07-12T08:49:03Z</time>
      </trkpt>
      <trkpt lat="38.7926590" lon="-9.0906610">
        <ele>5.4</ele>
        <time>2019-07-12T08:49:10Z</time>
      </trkpt>
      <trkpt lat="38.7923260" lon="-9.0906650">
        <ele>5.2</ele>
        <time>2019-07-12T08:49:17Z</time>
      </trkpt>
      <trkpt lat="38.7922540" lon="-9.0906710">
        <ele>5.0</ele>
        <time>2019-07-12T08:49:21Z</time>
      </trkpt>
      <trkpt lat="38.7922490" lon="-9.0906720">
        <ele>5.0</ele>
        <time>2019-07-12T08:49:23Z</time>
      </trkpt>
      <trkpt lat="38.7922390" lon="-9.0907020">
        <ele>5.0</ele>
        <time>2019-07-12T08:49:27Z</time>
      </trkpt>
      <trkpt lat="38.7922270" lon="-9.0907190">
        <ele>5.0</ele>
        <time>2019-07-12T08:49:28Z</time>
      </trkpt>
      <trkpt lat="38.7921330" lon="-9.0907400">
        <ele>5.4</ele>
        <time>2019-07-12T08:49:33Z</time>
      </trkpt>
      <trkpt lat="38.7920820" lon="-9.0907140">
        <ele>5.2</ele>
        <time>2019-07-12T08:49:35Z</time>
      </trkpt>
      <trkpt lat="38.7919560" lon="-9.0906380">
        <ele>5.4</ele>
        <time>2019-07-12T08:49:39Z</time>
      </trkpt>
      <trkpt lat="38.7918010" lon="-9.0905700">
        <ele>5.2</ele>
        <time>2019-07-12T08:49:43Z</time>
      </trkpt>
      <trkpt lat="38.7916760" lon="-9.0905280">
        <ele>5.0</ele>
        <time>2019-07-12T08:49:46Z</time>
      </trkpt>
      <trkpt lat="38.7915900" lon="-9.0905030">
        <ele>4.8</ele>
        <time>2019-07-12T08:49:48Z</time>
      </trkpt>
      <trkpt lat="38.7913600" lon="-9.0904630">
        <ele>5.0</ele>
        <time>2019-07-12T08:49:53Z</time>
      </trkpt>
      <trkpt lat="38.7910300" lon="-9.0904050">
        <ele>5.0</ele>
        <time>2019-07-12T08:50:00Z</time>
      </trkpt>
      <trkpt lat="38.7907640" lon="-9.0903870">
        <ele>5.0</ele>
        <time>2019-07-12T08:50:06Z</time>
      </trkpt>
      <trkpt lat="38.7906780" lon="-9.0904060">
        <ele>5.2</ele>
        <time>2019-07-12T08:50:08Z</time>
      </trkpt>
      <trkpt lat="38.7903990" lon="-9.0905110">
        <ele>5.2</ele>
        <time>2019-07-12T08:50:14Z</time>
      </trkpt>
      <trkpt lat="38.7899300" lon="-9.0907010">
        <ele>5.2</ele>
        <time>2019-07-12T08:50:24Z</time>
      </trkpt>
      <trkpt lat="38.7896120" lon="-9.0908130">
        <ele>5.2</ele>
        <time>2019-07-12T08:50:31Z</time>
      </trkpt>
      <trkpt lat="38.7891510" lon="-9.0909220">
        <ele>5.6</ele>
        <time>2019-07-12T08:50:41Z</time>
      </trkpt>
      <trkpt lat="38.7889110" lon="-9.0909480">
        <ele>5.6</ele>
        <time>2019-07-12T08:50:47Z</time>
      </trkpt>
      <trkpt lat="38.7888730" lon="-9.0909560">
        <ele>5.6</ele>
        <time>2019-07-12T08:50:48Z</time>
      </trkpt>
      <trkpt lat="38.7887510" lon="-9.0910520">
        <ele>5.4</ele>
        <time>2019-07-12T08:50:52Z</time>
      </trkpt>
      <trkpt lat="38.7886350" lon="-9.0911700">
        <ele>5.4</ele>
        <time>2019-07-12T08:50:55Z</time>
      </trkpt>
      <trkpt lat="38.7885340" lon="-9.0912830">
        <ele>5.4</ele>
        <time>2019-07-12T08:50:59Z</time>
      </trkpt>
      <trkpt lat="38.7883860" lon="-9.0914400">
        <ele>5.4</ele>
        <time>2019-07-12T08:51:03Z</time>
      </trkpt>
      <trkpt lat="38.7882370" lon="-9.0915780">
        <ele>5.2</ele>
        <time>2019-07-12T08:51:06Z</time>
      </trkpt>
      <trkpt lat="38.7881940" lon="-9.0916030">
        <ele>5.2</ele>
        <time>2019-07-12T08:51:07Z</time>
      </trkpt>
      <trkpt lat="38.7879820" lon="-9.0917490">
        <ele>5.4</ele>
        <time>2019-07-12T08:51:13Z</time>
      </trkpt>
      <trkpt lat="38.7877910" lon="-9.0919040">
        <ele>5.6</ele>
        <time>2019-07-12T08:51:18Z</time>
      </trkpt>
      <trkpt lat="38.7877130" lon="-9.0919460">
        <ele>5.6</ele>
        <time>2019-07-12T08:51:20Z</time>
      </trkpt>
      <trkpt lat="38.7876370" lon="-9.0919860">
        <ele>5.8</ele>
        <time>2019-07-12T08:51:23Z</time>
      </trkpt>
      <trkpt lat="38.7874110" lon="-9.0921110">
        <ele>6.4</ele>
        <time>2019-07-12T08:51:29Z</time>
      </trkpt>
      <trkpt lat="38.7873330" lon="-9.0921470">
        <ele>6.4</ele>
        <time>2019-07-12T08:51:30Z</time>
      </trkpt>
      <trkpt lat="38.7872930" lon="-9.0921600">
        <ele>6.6</ele>
        <time>2019-07-12T08:51:31Z</time>
      </trkpt>
      <trkpt lat="38.7871720" lon="-9.0922000">
        <ele>7.0</ele>
        <time>2019-07-12T08:51:34Z</time>
      </trkpt>
      <trkpt lat="38.7871720" lon="-9.0922000">
        <ele>7.2</ele>
        <time>2019-07-12T08:51:35Z</time>
      </trkpt>
      <trkpt lat="38.7869310" lon="-9.0922840">
        <ele>7.4</ele>
        <time>2019-07-12T08:51:40Z</time>
      </trkpt>
      <trkpt lat="38.7868420" lon="-9.0923080">
        <ele>7.4</ele>
        <time>2019-07-12T08:51:42Z</time>
      </trkpt>
      <trkpt lat="38.7866440" lon="-9.0923460">
        <ele>7.6</ele>
        <time>2019-07-12T08:51:46Z</time>
      </trkpt>
      <trkpt lat="38.7866010" lon="-9.0923480">
        <ele>7.6</ele>
        <time>2019-07-12T08:51:47Z</time>
      </trkpt>
      <trkpt lat="38.7865570" lon="-9.0923500">
        <ele>7.6</ele>
        <time>2019-07-12T08:51:48Z</time>
      </trkpt>
      <trkpt lat="38.7864690" lon="-9.0923540">
        <ele>8.0</ele>
        <time>2019-07-12T08:51:50Z</time>
      </trkpt>
      <trkpt lat="38.7863800" lon="-9.0923560">
        <ele>8.2</ele>
        <time>2019-07-12T08:51:52Z</time>
      </trkpt>
      <trkpt lat="38.7863330" lon="-9.0923620">
        <ele>8.4</ele>
        <time>2019-07-12T08:51:53Z</time>
      </trkpt>
      <trkpt lat="38.7862860" lon="-9.0923680">
        <ele>8.6</ele>
        <time>2019-07-12T08:51:54Z</time>
      </trkpt>
      <trkpt lat="38.7861970" lon="-9.0923710">
        <ele>8.8</ele>
        <time>2019-07-12T08:51:57Z</time>
      </trkpt>
      <trkpt lat="38.7861290" lon="-9.0923750">
        <ele>9.0</ele>
        <time>2019-07-12T08:51:59Z</time>
      </trkpt>
      <trkpt lat="38.7860760" lon="-9.0923870">
        <ele>9.0</ele>
        <time>2019-07-12T08:52:02Z</time>
      </trkpt>
      <trkpt lat="38.7860240" lon="-9.0924050">
        <ele>11.4</ele>
        <time>2019-07-12T09:01:14Z</time>
      </trkpt>
      <trkpt lat="38.7860100" lon="-9.0924050">
        <ele>11.4</ele>
        <time>2019-07-12T09:01:15Z</time>
      </trkpt>
      <trkpt lat="38.7859790" lon="-9.0924080">
        <ele>11.6</ele>
        <time>2019-07-12T09:01:17Z</time>
      </trkpt>
      <trkpt lat="38.7858920" lon="-9.0923980">
        <ele>11.4</ele>
        <time>2019-07-12T09:01:20Z</time>
      </trkpt>
      <trkpt lat="38.7857780" lon="-9.0923860">
        <ele>11.6</ele>
        <time>2019-07-12T09:01:24Z</time>
      </trkpt>
      <trkpt lat="38.7856290" lon="-9.0923570">
        <ele>11.8</ele>
        <time>2019-07-12T09:01:29Z</time>
      </trkpt>
      <trkpt lat="38.7853370" lon="-9.0922970">
        <ele>11.2</ele>
        <time>2019-07-12T09:01:35Z</time>
      </trkpt>
      <trkpt lat="38.7852380" lon="-9.0922560">
        <ele>11.2</ele>
        <time>2019-07-12T09:01:36Z</time>
      </trkpt>
      <trkpt lat="38.7851520" lon="-9.0921740">
        <ele>11.2</ele>
        <time>2019-07-12T09:01:39Z</time>
      </trkpt>
      <trkpt lat="38.7849400" lon="-9.0918700">
        <ele>10.6</ele>
        <time>2019-07-12T09:01:45Z</time>
      </trkpt>
      <trkpt lat="38.7846750" lon="-9.0915930">
        <ele>10.2</ele>
        <time>2019-07-12T09:01:50Z</time>
      </trkpt>
      <trkpt lat="38.7846280" lon="-9.0915500">
        <ele>9.8</ele>
        <time>2019-07-12T09:01:52Z</time>
      </trkpt>
      <trkpt lat="38.7845400" lon="-9.0914650">
        <ele>9.6</ele>
        <time>2019-07-12T09:01:54Z</time>
      </trkpt>
      <trkpt lat="38.7843490" lon="-9.0912870">
        <ele>9.8</ele>
        <time>2019-07-12T09:01:59Z</time>
      </trkpt>
      <trkpt lat="38.7843060" lon="-9.0912490">
        <ele>9.6</ele>
        <time>2019-07-12T09:02:02Z</time>
      </trkpt>
      <trkpt lat="38.7843060" lon="-9.0912490">
        <ele>9.6</ele>
        <time>2019-07-12T09:02:03Z</time>
      </trkpt>
      <trkpt lat="38.7842820" lon="-9.0912290">
        <ele>9.4</ele>
        <time>2019-07-12T09:02:14Z</time>
      </trkpt>
      <trkpt lat="38.7842510" lon="-9.0912070">
        <ele>9.2</ele>
        <time>2019-07-12T09:02:17Z</time>
      </trkpt>
      <trkpt lat="38.7840760" lon="-9.0910740">
        <ele>9.6</ele>
        <time>2019-07-12T09:02:24Z</time>
      </trkpt>
      <trkpt lat="38.7839040" lon="-9.0909580">
        <ele>9.4</ele>
        <time>2019-07-12T09:02:30Z</time>
      </trkpt>
      <trkpt lat="38.7838230" lon="-9.0909120">
        <ele>9.4</ele>
        <time>2019-07-12T09:02:31Z</time>
      </trkpt>
      <trkpt lat="38.7837070" lon="-9.0908530">
        <ele>9.4</ele>
        <time>2019-07-12T09:02:34Z</time>
      </trkpt>
      <trkpt lat="38.7836060" lon="-9.0907910">
        <ele>9.4</ele>
        <time>2019-07-12T09:02:37Z</time>
      </trkpt>
      <trkpt lat="38.7835830" lon="-9.0907750">
        <ele>9.6</ele>
        <time>2019-07-12T09:02:39Z</time>
      </trkpt>
      <trkpt lat="38.7835540" lon="-9.0907520">
        <ele>9.2</ele>
        <time>2019-07-12T09:02:43Z</time>
      </trkpt>
      <trkpt lat="38.7835180" lon="-9.0907700">
        <ele>8.0</ele>
        <time>2019-07-12T09:03:59Z</time>
      </trkpt>
      <trkpt lat="38.7834860" lon="-9.0907800">
        <ele>7.8</ele>
        <time>2019-07-12T09:04:00Z</time>
      </trkpt>
      <trkpt lat="38.7834430" lon="-9.0907840">
        <ele>7.8</ele>
        <time>2019-07-12T09:04:02Z</time>
      </trkpt>
      <trkpt lat="38.7833870" lon="-9.0907870">
        <ele>7.8</ele>
        <time>2019-07-12T09:04:04Z</time>
      </trkpt>
      <trkpt lat="38.7832900" lon="-9.0907900">
        <ele>7.8</ele>
        <time>2019-07-12T09:04:07Z</time>
      </trkpt>
      <trkpt lat="38.7832540" lon="-9.0907950">
        <ele>7.8</ele>
        <time>2019-07-12T09:04:09Z</time>
      </trkpt>
      <trkpt lat="38.7828490" lon="-9.0908290">
        <ele>7.6</ele>
        <time>2019-07-12T09:04:18Z</time>
      </trkpt>
      <trkpt lat="38.7826650" lon="-9.0908400">
        <ele>7.8</ele>
        <time>2019-07-12T09:04:22Z</time>
      </trkpt>
      <trkpt lat="38.7825700" lon="-9.0908490">
        <ele>8.0</ele>
        <time>2019-07-12T09:04:24Z</time>
      </trkpt>
      <trkpt lat="38.7825230" lon="-9.0908510">
        <ele>8.0</ele>
        <time>2019-07-12T09:04:25Z</time>
      </trkpt>
      <trkpt lat="38.7819940" lon="-9.0908840">
        <ele>7.8</ele>
        <time>2019-07-12T09:04:36Z</time>
      </trkpt>
      <trkpt lat="38.7816000" lon="-9.0909220">
        <ele>8.0</ele>
        <time>2019-07-12T09:04:44Z</time>
      </trkpt>
      <trkpt lat="38.7811510" lon="-9.0909460">
        <ele>7.6</ele>
        <time>2019-07-12T09:04:52Z</time>
      </trkpt>
      <trkpt lat="38.7805850" lon="-9.0910050">
        <ele>7.6</ele>
        <time>2019-07-12T09:05:02Z</time>
      </trkpt>
      <trkpt lat="38.7805850" lon="-9.0910050">
        <ele>7.6</ele>
        <time>2019-07-12T09:05:03Z</time>
      </trkpt>
      <trkpt lat="38.7800350" lon="-9.0910400">
        <ele>7.6</ele>
        <time>2019-07-12T09:05:12Z</time>
      </trkpt>
      <trkpt lat="38.7799810" lon="-9.0910460">
        <ele>7.6</ele>
        <time>2019-07-12T09:05:13Z</time>
      </trkpt>
      <trkpt lat="38.7794890" lon="-9.0910700">
        <ele>8.0</ele>
        <time>2019-07-12T09:05:22Z</time>
      </trkpt>
      <trkpt lat="38.7790460" lon="-9.0911260">
        <ele>8.4</ele>
        <time>2019-07-12T09:05:30Z</time>
      </trkpt>
      <trkpt lat="38.7785980" lon="-9.0911630">
        <ele>8.8</ele>
        <time>2019-07-12T09:05:39Z</time>
      </trkpt>
      <trkpt lat="38.7780310" lon="-9.0912130">
        <ele>8.8</ele>
        <time>2019-07-12T09:05:48Z</time>
      </trkpt>
      <trkpt lat="38.7778020" lon="-9.0912180">
        <ele>9.2</ele>
        <time>2019-07-12T09:05:52Z</time>
      </trkpt>
      <trkpt lat="38.7775760" lon="-9.0912350">
        <ele>9.6</ele>
        <time>2019-07-12T09:05:57Z</time>
      </trkpt>
      <trkpt lat="38.7772460" lon="-9.0912610">
        <ele>9.4</ele>
        <time>2019-07-12T09:06:03Z</time>
      </trkpt>
      <trkpt lat="38.7771370" lon="-9.0912680">
        <ele>9.4</ele>
        <time>2019-07-12T09:06:05Z</time>
      </trkpt>
      <trkpt lat="38.7766770" lon="-9.0912930">
        <ele>9.4</ele>
        <time>2019-07-12T09:06:13Z</time>
      </trkpt>
      <trkpt lat="38.7763360" lon="-9.0913390">
        <ele>10.2</ele>
        <time>2019-07-12T09:06:20Z</time>
      </trkpt>
      <trkpt lat="38.7763360" lon="-9.0913390">
        <ele>10.2</ele>
        <time>2019-07-12T09:06:21Z</time>
      </trkpt>
      <trkpt lat="38.7758890" lon="-9.0913790">
        <ele>9.6</ele>
        <time>2019-07-12T09:06:28Z</time>
      </trkpt>
      <trkpt lat="38.7754040" lon="-9.0914070">
        <ele>9.8</ele>
        <time>2019-07-12T09:06:37Z</time>
      </trkpt>
      <trkpt lat="38.7752550" lon="-9.0914130">
        <ele>10.2</ele>
        <time>2019-07-12T09:06:40Z</time>
      </trkpt>
      <trkpt lat="38.7750640" lon="-9.0914470">
        <ele>10.2</ele>
        <time>2019-07-12T09:06:44Z</time>
      </trkpt>
      <trkpt lat="38.7750010" lon="-9.0915060">
        <ele>10.2</ele>
        <time>2019-07-12T09:06:46Z</time>
      </trkpt>
      <trkpt lat="38.7749670" lon="-9.0915810">
        <ele>10.0</ele>
        <time>2019-07-12T09:06:48Z</time>
      </trkpt>
      <trkpt lat="38.7748750" lon="-9.0917270">
        <ele>10.4</ele>
        <time>2019-07-12T09:06:52Z</time>
      </trkpt>
      <trkpt lat="38.7748100" lon="-9.0917830">
        <ele>10.8</ele>
        <time>2019-07-12T09:06:54Z</time>
      </trkpt>
      <trkpt lat="38.7746430" lon="-9.0918050">
        <ele>11.0</ele>
        <time>2019-07-12T09:06:58Z</time>
      </trkpt>
      <trkpt lat="38.7745960" lon="-9.0918620">
        <ele>11.0</ele>
        <time>2019-07-12T09:07:00Z</time>
      </trkpt>
      <trkpt lat="38.7745470" lon="-9.0919390">
        <ele>10.8</ele>
        <time>2019-07-12T09:07:02Z</time>
      </trkpt>
      <trkpt lat="38.7744710" lon="-9.0919770">
        <ele>11.0</ele>
        <time>2019-07-12T09:07:04Z</time>
      </trkpt>
      <trkpt lat="38.7743810" lon="-9.0919900">
        <ele>11.4</ele>
        <time>2019-07-12T09:07:06Z</time>
      </trkpt>
      <trkpt lat="38.7739930" lon="-9.0920180">
        <ele>11.2</ele>
        <time>2019-07-12T09:07:14Z</time>
      </trkpt>
      <trkpt lat="38.7739010" lon="-9.0920330">
        <ele>11.4</ele>
        <time>2019-07-12T09:07:16Z</time>
      </trkpt>
      <trkpt lat="38.7737070" lon="-9.0920510">
        <ele>11.4</ele>
        <time>2019-07-12T09:07:20Z</time>
      </trkpt>
      <trkpt lat="38.7737070" lon="-9.0920510">
        <ele>11.4</ele>
        <time>2019-07-12T09:07:21Z</time>
      </trkpt>
      <trkpt lat="38.7733250" lon="-9.0920970">
        <ele>11.2</ele>
        <time>2019-07-12T09:07:28Z</time>
      </trkpt>
      <trkpt lat="38.7732290" lon="-9.0921080">
        <ele>11.2</ele>
        <time>2019-07-12T09:07:30Z</time>
      </trkpt>
      <trkpt lat="38.7730450" lon="-9.0921140">
        <ele>11.2</ele>
        <time>2019-07-12T09:07:34Z</time>
      </trkpt>
      <trkpt lat="38.7727620" lon="-9.0921380">
        <ele>11.4</ele>
        <time>2019-07-12T09:07:40Z</time>
      </trkpt>
      <trkpt lat="38.7726650" lon="-9.0921600">
        <ele>11.6</ele>
        <time>2019-07-12T09:07:42Z</time>
      </trkpt>
      <trkpt lat="38.7724750" lon="-9.0921800">
        <ele>11.0</ele>
        <time>2019-07-12T09:07:47Z</time>
      </trkpt>
      <trkpt lat="38.7721880" lon="-9.0922190">
        <ele>11.2</ele>
        <time>2019-07-12T09:07:52Z</time>
      </trkpt>
      <trkpt lat="38.7717970" lon="-9.0922650">
        <ele>10.6</ele>
        <time>2019-07-12T09:08:00Z</time>
      </trkpt>
      <trkpt lat="38.7717200" lon="-9.0922180">
        <ele>10.8</ele>
        <time>2019-07-12T09:08:03Z</time>
      </trkpt>
      <trkpt lat="38.7716920" lon="-9.0921220">
        <ele>10.8</ele>
        <time>2019-07-12T09:08:04Z</time>
      </trkpt>
      <trkpt lat="38.7716700" lon="-9.0920040">
        <ele>10.6</ele>
        <time>2019-07-12T09:08:06Z</time>
      </trkpt>
      <trkpt lat="38.7715810" lon="-9.0918230">
        <ele>10.4</ele>
        <time>2019-07-12T09:08:10Z</time>
      </trkpt>
      <trkpt lat="38.7715450" lon="-9.0918110">
        <ele>10.4</ele>
        <time>2019-07-12T09:08:11Z</time>
      </trkpt>
      <trkpt lat="38.7715090" lon="-9.0918000">
        <ele>10.4</ele>
        <time>2019-07-12T09:08:12Z</time>
      </trkpt>
      <trkpt lat="38.7714400" lon="-9.0917970">
        <ele>10.0</ele>
        <time>2019-07-12T09:08:14Z</time>
      </trkpt>
      <trkpt lat="38.7714400" lon="-9.0917970">
        <ele>9.8</ele>
        <time>2019-07-12T09:08:15Z</time>
      </trkpt>
      <trkpt lat="38.7711000" lon="-9.0918400">
        <ele>9.2</ele>
        <time>2019-07-12T09:08:22Z</time>
      </trkpt>
      <trkpt lat="38.7708860" lon="-9.0918760">
        <ele>9.2</ele>
        <time>2019-07-12T09:08:28Z</time>
      </trkpt>
      <trkpt lat="38.7708250" lon="-9.0919090">
        <ele>9.0</ele>
        <time>2019-07-12T09:08:30Z</time>
      </trkpt>
      <trkpt lat="38.7707690" lon="-9.0919690">
        <ele>9.0</ele>
        <time>2019-07-12T09:08:33Z</time>
      </trkpt>
      <trkpt lat="38.7707350" lon="-9.0920520">
        <ele>9.0</ele>
        <time>2019-07-12T09:08:34Z</time>
      </trkpt>
      <trkpt lat="38.7707360" lon="-9.0921430">
        <ele>9.0</ele>
        <time>2019-07-12T09:08:36Z</time>
      </trkpt>
      <trkpt lat="38.7707290" lon="-9.0921830">
        <ele>9.0</ele>
        <time>2019-07-12T09:08:37Z</time>
      </trkpt>
      <trkpt lat="38.7706880" lon="-9.0922450">
        <ele>9.4</ele>
        <time>2019-07-12T09:08:39Z</time>
      </trkpt>
      <trkpt lat="38.7706630" lon="-9.0922700">
        <ele>9.4</ele>
        <time>2019-07-12T09:08:40Z</time>
      </trkpt>
      <trkpt lat="38.7705850" lon="-9.0923000">
        <ele>9.4</ele>
        <time>2019-07-12T09:08:42Z</time>
      </trkpt>
      <trkpt lat="38.7704960" lon="-9.0923180">
        <ele>9.4</ele>
        <time>2019-07-12T09:08:44Z</time>
      </trkpt>
      <trkpt lat="38.7704040" lon="-9.0923250">
        <ele>9.6</ele>
        <time>2019-07-12T09:08:46Z</time>
      </trkpt>
      <trkpt lat="38.7702100" lon="-9.0923450">
        <ele>9.2</ele>
        <time>2019-07-12T09:08:50Z</time>
      </trkpt>
      <trkpt lat="38.7700270" lon="-9.0923640">
        <ele>9.0</ele>
        <time>2019-07-12T09:08:54Z</time>
      </trkpt>
      <trkpt lat="38.7696520" lon="-9.0923820">
        <ele>9.0</ele>
        <time>2019-07-12T09:09:02Z</time>
      </trkpt>
      <trkpt lat="38.7692710" lon="-9.0924320">
        <ele>9.0</ele>
        <time>2019-07-12T09:09:10Z</time>
      </trkpt>
      <trkpt lat="38.7692710" lon="-9.0924320">
        <ele>9.0</ele>
        <time>2019-07-12T09:09:11Z</time>
      </trkpt>
      <trkpt lat="38.7688840" lon="-9.0924470">
        <ele>9.2</ele>
        <time>2019-07-12T09:09:19Z</time>
      </trkpt>
      <trkpt lat="38.7686780" lon="-9.0924550">
        <ele>9.4</ele>
        <time>2019-07-12T09:09:24Z</time>
      </trkpt>
      <trkpt lat="38.7685890" lon="-9.0924650">
        <ele>9.2</ele>
        <time>2019-07-12T09:09:27Z</time>
      </trkpt>
      <trkpt lat="38.7683990" lon="-9.0924660">
        <ele>9.2</ele>
        <time>2019-07-12T09:09:30Z</time>
      </trkpt>
      <trkpt lat="38.7683110" lon="-9.0924690">
        <ele>9.2</ele>
        <time>2019-07-12T09:09:32Z</time>
      </trkpt>
      <trkpt lat="38.7678560" lon="-9.0925380">
        <ele>9.2</ele>
        <time>2019-07-12T09:09:42Z</time>
      </trkpt>
      <trkpt lat="38.7677620" lon="-9.0925480">
        <ele>9.2</ele>
        <time>2019-07-12T09:09:45Z</time>
      </trkpt>
      <trkpt lat="38.7676650" lon="-9.0925520">
        <ele>9.2</ele>
        <time>2019-07-12T09:09:46Z</time>
      </trkpt>
      <trkpt lat="38.7675750" lon="-9.0925300">
        <ele>9.0</ele>
        <time>2019-07-12T09:09:48Z</time>
      </trkpt>
      <trkpt lat="38.7675340" lon="-9.0925000">
        <ele>8.8</ele>
        <time>2019-07-12T09:09:49Z</time>
      </trkpt>
      <trkpt lat="38.7674340" lon="-9.0923780">
        <ele>8.8</ele>
        <time>2019-07-12T09:09:53Z</time>
      </trkpt>
      <trkpt lat="38.7673640" lon="-9.0923060">
        <ele>8.8</ele>
        <time>2019-07-12T09:09:54Z</time>
      </trkpt>
      <trkpt lat="38.7673250" lon="-9.0922780">
        <ele>8.6</ele>
        <time>2019-07-12T09:09:55Z</time>
      </trkpt>
      <trkpt lat="38.7671220" lon="-9.0921910">
        <ele>8.4</ele>
        <time>2019-07-12T09:10:00Z</time>
      </trkpt>
      <trkpt lat="38.7670830" lon="-9.0921870">
        <ele>8.4</ele>
        <time>2019-07-12T09:10:01Z</time>
      </trkpt>
      <trkpt lat="38.7670450" lon="-9.0921810">
        <ele>8.2</ele>
        <time>2019-07-12T09:10:03Z</time>
      </trkpt>
      <trkpt lat="38.7668950" lon="-9.0921600">
        <ele>7.8</ele>
        <time>2019-07-12T09:10:06Z</time>
      </trkpt>
      <trkpt lat="38.7668530" lon="-9.0921640">
        <ele>7.8</ele>
        <time>2019-07-12T09:10:07Z</time>
      </trkpt>
      <trkpt lat="38.7668140" lon="-9.0921710">
        <ele>7.6</ele>
        <time>2019-07-12T09:10:08Z</time>
      </trkpt>
      <trkpt lat="38.7666510" lon="-9.0921980">
        <ele>8.0</ele>
        <time>2019-07-12T09:10:12Z</time>
      </trkpt>
      <trkpt lat="38.7665640" lon="-9.0922080">
        <ele>8.0</ele>
        <time>2019-07-12T09:10:15Z</time>
      </trkpt>
      <trkpt lat="38.7663890" lon="-9.0922310">
        <ele>8.0</ele>
        <time>2019-07-12T09:10:18Z</time>
      </trkpt>
      <trkpt lat="38.7663010" lon="-9.0922510">
        <ele>8.2</ele>
        <time>2019-07-12T09:10:21Z</time>
      </trkpt>
      <trkpt lat="38.7662110" lon="-9.0922760">
        <ele>8.2</ele>
        <time>2019-07-12T09:10:22Z</time>
      </trkpt>
      <trkpt lat="38.7661210" lon="-9.0922820">
        <ele>8.2</ele>
        <time>2019-07-12T09:10:24Z</time>
      </trkpt>
      <trkpt lat="38.7660390" lon="-9.0922740">
        <ele>8.2</ele>
        <time>2019-07-12T09:10:27Z</time>
      </trkpt>
      <trkpt lat="38.7659800" lon="-9.0922540">
        <ele>8.2</ele>
        <time>2019-07-12T09:10:28Z</time>
      </trkpt>
      <trkpt lat="38.7659480" lon="-9.0921880">
        <ele>8.0</ele>
        <time>2019-07-12T09:10:30Z</time>
      </trkpt>
      <trkpt lat="38.7658390" lon="-9.0919810">
        <ele>7.6</ele>
        <time>2019-07-12T09:10:36Z</time>
      </trkpt>
      <trkpt lat="38.7656950" lon="-9.0919640">
        <ele>7.8</ele>
        <time>2019-07-12T09:10:41Z</time>
      </trkpt>
      <trkpt lat="38.7654330" lon="-9.0919890">
        <ele>8.0</ele>
        <time>2019-07-12T09:10:46Z</time>
      </trkpt>
      <trkpt lat="38.7652960" lon="-9.0919940">
        <ele>8.0</ele>
        <time>2019-07-12T09:10:49Z</time>
      </trkpt>
      <trkpt lat="38.7647310" lon="-9.0919710">
        <ele>8.6</ele>
        <time>2019-07-12T09:11:01Z</time>
      </trkpt>
      <trkpt lat="38.7644350" lon="-9.0919420">
        <ele>8.2</ele>
        <time>2019-07-12T09:11:08Z</time>
      </trkpt>
      <trkpt lat="38.7642090" lon="-9.0919120">
        <ele>8.4</ele>
        <time>2019-07-12T09:11:14Z</time>
      </trkpt>
      <trkpt lat="38.7641210" lon="-9.0919020">
        <ele>8.4</ele>
        <time>2019-07-12T09:11:16Z</time>
      </trkpt>
      <trkpt lat="38.7638970" lon="-9.0918760">
        <ele>8.4</ele>
        <time>2019-07-12T09:11:21Z</time>
      </trkpt>
      <trkpt lat="38.7636340" lon="-9.0918500">
        <ele>8.8</ele>
        <time>2019-07-12T09:11:27Z</time>
      </trkpt>
      <trkpt lat="38.7635920" lon="-9.0918560">
        <ele>8.8</ele>
        <time>2019-07-12T09:11:28Z</time>
      </trkpt>
      <trkpt lat="38.7634770" lon="-9.0918960">
        <ele>8.6</ele>
        <time>2019-07-12T09:11:32Z</time>
      </trkpt>
      <trkpt lat="38.7634530" lon="-9.0919250">
        <ele>8.6</ele>
        <time>2019-07-12T09:11:34Z</time>
      </trkpt>
      <trkpt lat="38.7634440" lon="-9.0919600">
        <ele>8.6</ele>
        <time>2019-07-12T09:11:36Z</time>
      </trkpt>
      <trkpt lat="38.7634430" lon="-9.0920120">
        <ele>8.8</ele>
        <time>2019-07-12T09:11:38Z</time>
      </trkpt>
      <trkpt lat="38.7634250" lon="-9.0922640">
        <ele>8.8</ele>
        <time>2019-07-12T09:11:45Z</time>
      </trkpt>
      <trkpt lat="38.7633910" lon="-9.0924020">
        <ele>8.8</ele>
        <time>2019-07-12T09:11:48Z</time>
      </trkpt>
      <trkpt lat="38.7633610" lon="-9.0924330">
        <ele>9.0</ele>
        <time>2019-07-12T09:11:49Z</time>
      </trkpt>
      <trkpt lat="38.7632430" lon="-9.0924550">
        <ele>9.4</ele>
        <time>2019-07-12T09:11:52Z</time>
      </trkpt>
      <trkpt lat="38.7632010" lon="-9.0924550">
        <ele>9.6</ele>
        <time>2019-07-12T09:11:53Z</time>
      </trkpt>
      <trkpt lat="38.7629830" lon="-9.0924490">
        <ele>9.6</ele>
        <time>2019-07-12T09:11:58Z</time>
      </trkpt>
      <trkpt lat="38.7628950" lon="-9.0924660">
        <ele>9.6</ele>
        <time>2019-07-12T09:12:00Z</time>
      </trkpt>
      <trkpt lat="38.7626370" lon="-9.0925360">
        <ele>9.6</ele>
        <time>2019-07-12T09:12:06Z</time>
      </trkpt>
      <trkpt lat="38.7625600" lon="-9.0925470">
        <ele>9.8</ele>
        <time>2019-07-12T09:12:08Z</time>
      </trkpt>
      <trkpt lat="38.7624370" lon="-9.0925460">
        <ele>9.6</ele>
        <time>2019-07-12T09:12:11Z</time>
      </trkpt>
      <trkpt lat="38.7623490" lon="-9.0925570">
        <ele>9.6</ele>
        <time>2019-07-12T09:12:13Z</time>
      </trkpt>
      <trkpt lat="38.7620530" lon="-9.0925660">
        <ele>9.8</ele>
        <time>2019-07-12T09:12:20Z</time>
      </trkpt>
      <trkpt lat="38.7618920" lon="-9.0925960">
        <ele>9.6</ele>
        <time>2019-07-12T09:12:24Z</time>
      </trkpt>
      <trkpt lat="38.7618110" lon="-9.0926260">
        <ele>9.6</ele>
        <time>2019-07-12T09:12:26Z</time>
      </trkpt>
      <trkpt lat="38.7616800" lon="-9.0926230">
        <ele>9.6</ele>
        <time>2019-07-12T09:12:29Z</time>
      </trkpt>
      <trkpt lat="38.7616360" lon="-9.0926260">
        <ele>9.6</ele>
        <time>2019-07-12T09:12:30Z</time>
      </trkpt>
      <trkpt lat="38.7615920" lon="-9.0926310">
        <ele>9.4</ele>
        <time>2019-07-12T09:12:31Z</time>
      </trkpt>
      <trkpt lat="38.7614350" lon="-9.0926650">
        <ele>9.2</ele>
        <time>2019-07-12T09:12:35Z</time>
      </trkpt>
      <trkpt lat="38.7613650" lon="-9.0926850">
        <ele>9.2</ele>
        <time>2019-07-12T09:12:37Z</time>
      </trkpt>
      <trkpt lat="38.7612300" lon="-9.0927310">
        <ele>9.0</ele>
        <time>2019-07-12T09:12:42Z</time>
      </trkpt>
      <trkpt lat="38.7612010" lon="-9.0926660">
        <ele>9.2</ele>
        <time>2019-07-12T09:12:46Z</time>
      </trkpt>
      <trkpt lat="38.7611990" lon="-9.0926480">
        <ele>9.0</ele>
        <time>2019-07-12T09:12:50Z</time>
      </trkpt>
      <trkpt lat="38.7611810" lon="-9.0926270">
        <ele>8.8</ele>
        <time>2019-07-12T09:12:54Z</time>
      </trkpt>
      <trkpt lat="38.7610910" lon="-9.0926340">
        <ele>8.6</ele>
        <time>2019-07-12T09:12:58Z</time>
      </trkpt>
      <trkpt lat="38.7610620" lon="-9.0926380">
        <ele>8.6</ele>
        <time>2019-07-12T09:12:59Z</time>
      </trkpt>
      <trkpt lat="38.7609140" lon="-9.0926590">
        <ele>8.6</ele>
        <time>2019-07-12T09:13:04Z</time>
      </trkpt>
      <trkpt lat="38.7608810" lon="-9.0926660">
        <ele>8.6</ele>
        <time>2019-07-12T09:13:05Z</time>
      </trkpt>
      <trkpt lat="38.7607250" lon="-9.0926630">
        <ele>8.8</ele>
        <time>2019-07-12T09:13:09Z</time>
      </trkpt>
      <trkpt lat="38.7605460" lon="-9.0927000">
        <ele>8.6</ele>
        <time>2019-07-12T09:13:13Z</time>
      </trkpt>
      <trkpt lat="38.7604130" lon="-9.0927250">
        <ele>8.6</ele>
        <time>2019-07-12T09:13:16Z</time>
      </trkpt>
      <trkpt lat="38.7600850" lon="-9.0927860">
        <ele>8.2</ele>
        <time>2019-07-12T09:13:23Z</time>
      </trkpt>
      <trkpt lat="38.7600400" lon="-9.0927990">
        <ele>8.2</ele>
        <time>2019-07-12T09:13:24Z</time>
      </trkpt>
      <trkpt lat="38.7599960" lon="-9.0928080">
        <ele>8.0</ele>
        <time>2019-07-12T09:13:25Z</time>
      </trkpt>
      <trkpt lat="38.7598150" lon="-9.0928550">
        <ele>8.2</ele>
        <time>2019-07-12T09:13:29Z</time>
      </trkpt>
      <trkpt lat="38.7597750" lon="-9.0928740">
        <ele>8.4</ele>
        <time>2019-07-12T09:13:30Z</time>
      </trkpt>
      <trkpt lat="38.7596230" lon="-9.0929700">
        <ele>8.4</ele>
        <time>2019-07-12T09:13:34Z</time>
      </trkpt>
      <trkpt lat="38.7594450" lon="-9.0930640">
        <ele>8.4</ele>
        <time>2019-07-12T09:13:39Z</time>
      </trkpt>
      <trkpt lat="38.7594140" lon="-9.0930740">
        <ele>8.4</ele>
        <time>2019-07-12T09:13:40Z</time>
      </trkpt>
      <trkpt lat="38.7593020" lon="-9.0931060">
        <ele>8.6</ele>
        <time>2019-07-12T09:13:43Z</time>
      </trkpt>
      <trkpt lat="38.7592550" lon="-9.0931160">
        <ele>8.6</ele>
        <time>2019-07-12T09:13:44Z</time>
      </trkpt>
      <trkpt lat="38.7591350" lon="-9.0931530">
        <ele>8.6</ele>
        <time>2019-07-12T09:13:47Z</time>
      </trkpt>
      <trkpt lat="38.7590910" lon="-9.0931640">
        <ele>8.6</ele>
        <time>2019-07-12T09:13:48Z</time>
      </trkpt>
      <trkpt lat="38.7588190" lon="-9.0932430">
        <ele>8.0</ele>
        <time>2019-07-12T09:13:55Z</time>
      </trkpt>
      <trkpt lat="38.7587860" lon="-9.0932560">
        <ele>8.0</ele>
        <time>2019-07-12T09:13:56Z</time>
      </trkpt>
      <trkpt lat="38.7586850" lon="-9.0932830">
        <ele>7.6</ele>
        <time>2019-07-12T09:13:59Z</time>
      </trkpt>
      <trkpt lat="38.7585940" lon="-9.0933010">
        <ele>7.6</ele>
        <time>2019-07-12T09:14:01Z</time>
      </trkpt>
      <trkpt lat="38.7584170" lon="-9.0933420">
        <ele>7.6</ele>
        <time>2019-07-12T09:14:05Z</time>
      </trkpt>
      <trkpt lat="38.7581460" lon="-9.0934090">
        <ele>8.0</ele>
        <time>2019-07-12T09:14:11Z</time>
      </trkpt>
      <trkpt lat="38.7579530" lon="-9.0934270">
        <ele>7.8</ele>
        <time>2019-07-12T09:14:15Z</time>
      </trkpt>
      <trkpt lat="38.7578560" lon="-9.0934550">
        <ele>8.0</ele>
        <time>2019-07-12T09:14:17Z</time>
      </trkpt>
      <trkpt lat="38.7574560" lon="-9.0936000">
        <ele>8.0</ele>
        <time>2019-07-12T09:14:25Z</time>
      </trkpt>
      <trkpt lat="38.7570830" lon="-9.0936600">
        <ele>8.0</ele>
        <time>2019-07-12T09:14:32Z</time>
      </trkpt>
      <trkpt lat="38.7565480" lon="-9.0938170">
        <ele>7.8</ele>
        <time>2019-07-12T09:14:42Z</time>
      </trkpt>
      <trkpt lat="38.7561790" lon="-9.0939550">
        <ele>7.8</ele>
        <time>2019-07-12T09:14:49Z</time>
      </trkpt>
      <trkpt lat="38.7558590" lon="-9.0940460">
        <ele>7.6</ele>
        <time>2019-07-12T09:14:55Z</time>
      </trkpt>
      <trkpt lat="38.7555370" lon="-9.0941340">
        <ele>7.6</ele>
        <time>2019-07-12T09:15:01Z</time>
      </trkpt>
      <trkpt lat="38.7554320" lon="-9.0941610">
        <ele>7.6</ele>
        <time>2019-07-12T09:15:03Z</time>
      </trkpt>
      <trkpt lat="38.7550280" lon="-9.0942690">
        <ele>7.6</ele>
        <time>2019-07-12T09:15:11Z</time>
      </trkpt>
      <trkpt lat="38.7548720" lon="-9.0943160">
        <ele>7.8</ele>
        <time>2019-07-12T09:15:14Z</time>
      </trkpt>
      <trkpt lat="38.7546990" lon="-9.0943300">
        <ele>7.6</ele>
        <time>2019-07-12T09:15:17Z</time>
      </trkpt>
      <trkpt lat="38.7544670" lon="-9.0944040">
        <ele>7.2</ele>
        <time>2019-07-12T09:15:21Z</time>
      </trkpt>
      <trkpt lat="38.7544130" lon="-9.0944260">
        <ele>7.2</ele>
        <time>2019-07-12T09:15:22Z</time>
      </trkpt>
      <trkpt lat="38.7543580" lon="-9.0944420">
        <ele>7.2</ele>
        <time>2019-07-12T09:15:23Z</time>
      </trkpt>
      <trkpt lat="38.7540730" lon="-9.0944740">
        <ele>7.2</ele>
        <time>2019-07-12T09:15:28Z</time>
      </trkpt>
      <trkpt lat="38.7537360" lon="-9.0945380">
        <ele>7.2</ele>
        <time>2019-07-12T09:15:34Z</time>
      </trkpt>
      <trkpt lat="38.7533130" lon="-9.0946500">
        <ele>7.0</ele>
        <time>2019-07-12T09:15:42Z</time>
      </trkpt>
      <trkpt lat="38.7531100" lon="-9.0947060">
        <ele>7.0</ele>
        <time>2019-07-12T09:15:46Z</time>
      </trkpt>
      <trkpt lat="38.7530220" lon="-9.0947620">
        <ele>7.0</ele>
        <time>2019-07-12T09:15:48Z</time>
      </trkpt>
      <trkpt lat="38.7529770" lon="-9.0947880">
        <ele>7.0</ele>
        <time>2019-07-12T09:15:49Z</time>
      </trkpt>
      <trkpt lat="38.7527770" lon="-9.0948540">
        <ele>7.0</ele>
        <time>2019-07-12T09:15:53Z</time>
      </trkpt>
      <trkpt lat="38.7523160" lon="-9.0950060">
        <ele>7.2</ele>
        <time>2019-07-12T09:16:02Z</time>
      </trkpt>
      <trkpt lat="38.7519020" lon="-9.0951290">
        <ele>7.4</ele>
        <time>2019-07-12T09:16:10Z</time>
      </trkpt>
      <trkpt lat="38.7515380" lon="-9.0952100">
        <ele>7.2</ele>
        <time>2019-07-12T09:16:17Z</time>
      </trkpt>
      <trkpt lat="38.7510980" lon="-9.0952990">
        <ele>7.4</ele>
        <time>2019-07-12T09:16:25Z</time>
      </trkpt>
      <trkpt lat="38.7510410" lon="-9.0953130">
        <ele>7.4</ele>
        <time>2019-07-12T09:16:26Z</time>
      </trkpt>
      <trkpt lat="38.7505860" lon="-9.0954210">
        <ele>7.2</ele>
        <time>2019-07-12T09:16:34Z</time>
      </trkpt>
      <trkpt lat="38.7500820" lon="-9.0955770">
        <ele>7.6</ele>
        <time>2019-07-12T09:16:43Z</time>
      </trkpt>
      <trkpt lat="38.7496930" lon="-9.0956960">
        <ele>7.4</ele>
        <time>2019-07-12T09:16:50Z</time>
      </trkpt>
      <trkpt lat="38.7491860" lon="-9.0958330">
        <ele>7.6</ele>
        <time>2019-07-12T09:16:59Z</time>
      </trkpt>
      <trkpt lat="38.7488500" lon="-9.0959340">
        <ele>7.6</ele>
        <time>2019-07-12T09:17:05Z</time>
      </trkpt>
      <trkpt lat="38.7487570" lon="-9.0960100">
        <ele>7.8</ele>
        <time>2019-07-12T09:17:07Z</time>
      </trkpt>
      <trkpt lat="38.7486670" lon="-9.0961700">
        <ele>7.8</ele>
        <time>2019-07-12T09:17:10Z</time>
      </trkpt>
      <trkpt lat="38.7486520" lon="-9.0962320">
        <ele>7.8</ele>
        <time>2019-07-12T09:17:11Z</time>
      </trkpt>
      <trkpt lat="38.7485860" lon="-9.0964890">
        <ele>7.8</ele>
        <time>2019-07-12T09:17:15Z</time>
      </trkpt>
      <trkpt lat="38.7483980" lon="-9.0966030">
        <ele>7.8</ele>
        <time>2019-07-12T09:17:19Z</time>
      </trkpt>
      <trkpt lat="38.7483460" lon="-9.0966100">
        <ele>7.8</ele>
        <time>2019-07-12T09:17:20Z</time>
      </trkpt>
      <trkpt lat="38.7480450" lon="-9.0966950">
        <ele>8.0</ele>
        <time>2019-07-12T09:17:26Z</time>
      </trkpt>
      <trkpt lat="38.7479990" lon="-9.0967170">
        <ele>8.0</ele>
        <time>2019-07-12T09:17:27Z</time>
      </trkpt>
      <trkpt lat="38.7479360" lon="-9.0967890">
        <ele>7.8</ele>
        <time>2019-07-12T09:17:29Z</time>
      </trkpt>
      <trkpt lat="38.7478550" lon="-9.0969130">
        <ele>7.8</ele>
        <time>2019-07-12T09:17:32Z</time>
      </trkpt>
      <trkpt lat="38.7478160" lon="-9.0969340">
        <ele>7.8</ele>
        <time>2019-07-12T09:17:33Z</time>
      </trkpt>
      <trkpt lat="38.7477200" lon="-9.0969410">
        <ele>7.8</ele>
        <time>2019-07-12T09:17:35Z</time>
      </trkpt>
      <trkpt lat="38.7476690" lon="-9.0969440">
        <ele>7.8</ele>
        <time>2019-07-12T09:17:36Z</time>
      </trkpt>
      <trkpt lat="38.7475650" lon="-9.0969710">
        <ele>8.0</ele>
        <time>2019-07-12T09:17:38Z</time>
      </trkpt>
      <trkpt lat="38.7472440" lon="-9.0970580">
        <ele>7.8</ele>
        <time>2019-07-12T09:17:44Z</time>
      </trkpt>
      <trkpt lat="38.7469880" lon="-9.0971400">
        <ele>7.8</ele>
        <time>2019-07-12T09:17:49Z</time>
      </trkpt>
      <trkpt lat="38.7468850" lon="-9.0971680">
        <ele>7.8</ele>
        <time>2019-07-12T09:17:51Z</time>
      </trkpt>
      <trkpt lat="38.7467800" lon="-9.0971950">
        <ele>8.0</ele>
        <time>2019-07-12T09:17:53Z</time>
      </trkpt>
      <trkpt lat="38.7464630" lon="-9.0972830">
        <ele>8.2</ele>
        <time>2019-07-12T09:17:59Z</time>
      </trkpt>
      <trkpt lat="38.7462560" lon="-9.0973410">
        <ele>8.6</ele>
        <time>2019-07-12T09:18:03Z</time>
      </trkpt>
      <trkpt lat="38.7459560" lon="-9.0974280">
        <ele>9.2</ele>
        <time>2019-07-12T09:18:09Z</time>
      </trkpt>
      <trkpt lat="38.7455890" lon="-9.0975370">
        <ele>9.6</ele>
        <time>2019-07-12T09:18:16Z</time>
      </trkpt>
      <trkpt lat="38.7450980" lon="-9.0976830">
        <ele>9.2</ele>
        <time>2019-07-12T09:18:25Z</time>
      </trkpt>
      <trkpt lat="38.7445290" lon="-9.0978300">
        <ele>8.6</ele>
        <time>2019-07-12T09:18:35Z</time>
      </trkpt>
      <trkpt lat="38.7444710" lon="-9.0978450">
        <ele>8.6</ele>
        <time>2019-07-12T09:18:36Z</time>
      </trkpt>
      <trkpt lat="38.7439070" lon="-9.0979870">
        <ele>8.8</ele>
        <time>2019-07-12T09:18:46Z</time>
      </trkpt>
      <trkpt lat="38.7437960" lon="-9.0980150">
        <ele>8.4</ele>
        <time>2019-07-12T09:18:48Z</time>
      </trkpt>
      <trkpt lat="38.7433480" lon="-9.0981910">
        <ele>8.4</ele>
        <time>2019-07-12T09:18:56Z</time>
      </trkpt>
      <trkpt lat="38.7429760" lon="-9.0984910">
        <ele>7.8</ele>
        <time>2019-07-12T09:19:03Z</time>
      </trkpt>
      <trkpt lat="38.7426670" lon="-9.0989210">
        <ele>7.0</ele>
        <time>2019-07-12T09:19:10Z</time>
      </trkpt>
      <trkpt lat="38.7424680" lon="-9.0992220">
        <ele>6.8</ele>
        <time>2019-07-12T09:19:15Z</time>
      </trkpt>
      <trkpt lat="38.7424350" lon="-9.0992840">
        <ele>7.0</ele>
        <time>2019-07-12T09:19:16Z</time>
      </trkpt>
      <trkpt lat="38.7423600" lon="-9.0994510">
        <ele>6.8</ele>
        <time>2019-07-12T09:19:19Z</time>
      </trkpt>
      <trkpt lat="38.7423520" lon="-9.0994970">
        <ele>6.8</ele>
        <time>2019-07-12T09:19:20Z</time>
      </trkpt>
      <trkpt lat="38.7423540" lon="-9.0995350">
        <ele>6.8</ele>
        <time>2019-07-12T09:19:21Z</time>
      </trkpt>
      <trkpt lat="38.7423770" lon="-9.0995810">
        <ele>6.6</ele>
        <time>2019-07-12T09:19:23Z</time>
      </trkpt>
      <trkpt lat="38.7424000" lon="-9.0996530">
        <ele>6.6</ele>
        <time>2019-07-12T09:19:28Z</time>
      </trkpt>
      <trkpt lat="38.7423910" lon="-9.0996620">
        <ele>6.6</ele>
        <time>2019-07-12T09:19:29Z</time>
      </trkpt>
      <trkpt lat="38.7423120" lon="-9.0997100">
        <ele>6.4</ele>
        <time>2019-07-12T09:19:33Z</time>
      </trkpt>
      <trkpt lat="38.7421680" lon="-9.0998340">
        <ele>6.6</ele>
        <time>2019-07-12T09:19:38Z</time>
      </trkpt>
      <trkpt lat="38.7419660" lon="-9.1000950">
        <ele>6.6</ele>
        <time>2019-07-12T09:19:44Z</time>
      </trkpt>
      <trkpt lat="38.7417630" lon="-9.1003960">
        <ele>6.6</ele>
        <time>2019-07-12T09:19:50Z</time>
      </trkpt>
      <trkpt lat="38.7416830" lon="-9.1004820">
        <ele>6.6</ele>
        <time>2019-07-12T09:19:52Z</time>
      </trkpt>
      <trkpt lat="38.7413650" lon="-9.1007540">
        <ele>7.0</ele>
        <time>2019-07-12T09:19:59Z</time>
      </trkpt>
      <trkpt lat="38.7408630" lon="-9.1010730">
        <ele>7.2</ele>
        <time>2019-07-12T09:20:09Z</time>
      </trkpt>
      <trkpt lat="38.7404380" lon="-9.1013210">
        <ele>7.2</ele>
        <time>2019-07-12T09:20:17Z</time>
      </trkpt>
      <trkpt lat="38.7400690" lon="-9.1015490">
        <ele>7.2</ele>
        <time>2019-07-12T09:20:24Z</time>
      </trkpt>
      <trkpt lat="38.7396570" lon="-9.1018000">
        <ele>7.4</ele>
        <time>2019-07-12T09:20:32Z</time>
      </trkpt>
      <trkpt lat="38.7393580" lon="-9.1019860">
        <ele>7.4</ele>
        <time>2019-07-12T09:20:38Z</time>
      </trkpt>
      <trkpt lat="38.7392110" lon="-9.1020740">
        <ele>7.2</ele>
        <time>2019-07-12T09:20:41Z</time>
      </trkpt>
      <trkpt lat="38.7390680" lon="-9.1021650">
        <ele>7.2</ele>
        <time>2019-07-12T09:20:44Z</time>
      </trkpt>
      <trkpt lat="38.7388370" lon="-9.1023000">
        <ele>7.2</ele>
        <time>2019-07-12T09:20:49Z</time>
      </trkpt>
      <trkpt lat="38.7387920" lon="-9.1023250">
        <ele>7.4</ele>
        <time>2019-07-12T09:20:50Z</time>
      </trkpt>
      <trkpt lat="38.7386700" lon="-9.1023970">
        <ele>7.0</ele>
        <time>2019-07-12T09:20:53Z</time>
      </trkpt>
      <trkpt lat="38.7385050" lon="-9.1024870">
        <ele>6.8</ele>
        <time>2019-07-12T09:20:57Z</time>
      </trkpt>
      <trkpt lat="38.7382700" lon="-9.1026170">
        <ele>6.6</ele>
        <time>2019-07-12T09:21:03Z</time>
      </trkpt>
      <trkpt lat="38.7382340" lon="-9.1026380">
        <ele>6.6</ele>
        <time>2019-07-12T09:21:04Z</time>
      </trkpt>
      <trkpt lat="38.7381610" lon="-9.1026700">
        <ele>6.6</ele>
        <time>2019-07-12T09:21:06Z</time>
      </trkpt>
      <trkpt lat="38.7380150" lon="-9.1027400">
        <ele>6.6</ele>
        <time>2019-07-12T09:21:10Z</time>
      </trkpt>
      <trkpt lat="38.7377640" lon="-9.1028470">
        <ele>6.6</ele>
        <time>2019-07-12T09:21:16Z</time>
      </trkpt>
      <trkpt lat="38.7376730" lon="-9.1028790">
        <ele>6.6</ele>
        <time>2019-07-12T09:21:18Z</time>
      </trkpt>
      <trkpt lat="38.7375340" lon="-9.1029260">
        <ele>6.6</ele>
        <time>2019-07-12T09:21:21Z</time>
      </trkpt>
      <trkpt lat="38.7374440" lon="-9.1029710">
        <ele>6.6</ele>
        <time>2019-07-12T09:21:23Z</time>
      </trkpt>
      <trkpt lat="38.7371120" lon="-9.1030990">
        <ele>6.4</ele>
        <time>2019-07-12T09:21:30Z</time>
      </trkpt>
      <trkpt lat="38.7367430" lon="-9.1032430">
        <ele>6.4</ele>
        <time>2019-07-12T09:21:38Z</time>
      </trkpt>
      <trkpt lat="38.7364210" lon="-9.1033680">
        <ele>6.0</ele>
        <time>2019-07-12T09:21:46Z</time>
      </trkpt>
      <trkpt lat="38.7361550" lon="-9.1034610">
        <ele>5.4</ele>
        <time>2019-07-12T09:21:53Z</time>
      </trkpt>
      <trkpt lat="38.7360760" lon="-9.1034880">
        <ele>5.4</ele>
        <time>2019-07-12T09:21:55Z</time>
      </trkpt>
      <trkpt lat="38.7358260" lon="-9.1035560">
        <ele>5.4</ele>
        <time>2019-07-12T09:22:01Z</time>
      </trkpt>
      <trkpt lat="38.7357840" lon="-9.1035690">
        <ele>5.2</ele>
        <time>2019-07-12T09:22:02Z</time>
      </trkpt>
      <trkpt lat="38.7356640" lon="-9.1035970">
        <ele>5.2</ele>
        <time>2019-07-12T09:22:05Z</time>
      </trkpt>
      <trkpt lat="38.7355530" lon="-9.1036130">
        <ele>5.2</ele>
        <time>2019-07-12T09:22:08Z</time>
      </trkpt>
      <trkpt lat="38.7353200" lon="-9.1036820">
        <ele>5.0</ele>
        <time>2019-07-12T09:22:14Z</time>
      </trkpt>
      <trkpt lat="38.7351930" lon="-9.1037080">
        <ele>5.0</ele>
        <time>2019-07-12T09:22:17Z</time>
      </trkpt>
      <trkpt lat="38.7350240" lon="-9.1037440">
        <ele>5.0</ele>
        <time>2019-07-12T09:22:21Z</time>
      </trkpt>
      <trkpt lat="38.7349820" lon="-9.1037510">
        <ele>4.8</ele>
        <time>2019-07-12T09:22:22Z</time>
      </trkpt>
      <trkpt lat="38.7348570" lon="-9.1037740">
        <ele>4.4</ele>
        <time>2019-07-12T09:22:25Z</time>
      </trkpt>
      <trkpt lat="38.7347720" lon="-9.1037910">
        <ele>4.4</ele>
        <time>2019-07-12T09:22:27Z</time>
      </trkpt>
      <trkpt lat="38.7346390" lon="-9.1038120">
        <ele>4.0</ele>
        <time>2019-07-12T09:22:32Z</time>
      </trkpt>
      <trkpt lat="38.7346400" lon="-9.1038120">
        <ele>4.0</ele>
        <time>2019-07-12T09:22:33Z</time>
      </trkpt>
      <trkpt lat="38.7346160" lon="-9.1038200">
        <ele>5.2</ele>
        <time>2019-07-12T09:25:47Z</time>
      </trkpt>
      <trkpt lat="38.7345960" lon="-9.1038260">
        <ele>5.2</ele>
        <time>2019-07-12T09:25:48Z</time>
      </trkpt>
      <trkpt lat="38.7345730" lon="-9.1038330">
        <ele>5.4</ele>
        <time>2019-07-12T09:25:49Z</time>
      </trkpt>
      <trkpt lat="38.7345220" lon="-9.1038450">
        <ele>5.4</ele>
        <time>2019-07-12T09:25:51Z</time>
      </trkpt>
      <trkpt lat="38.7344890" lon="-9.1038560">
        <ele>5.4</ele>
        <time>2019-07-12T09:25:52Z</time>
      </trkpt>
      <trkpt lat="38.7344150" lon="-9.1038840">
        <ele>5.4</ele>
        <time>2019-07-12T09:25:54Z</time>
      </trkpt>
      <trkpt lat="38.7342880" lon="-9.1039010">
        <ele>5.6</ele>
        <time>2019-07-12T09:25:57Z</time>
      </trkpt>
      <trkpt lat="38.7342040" lon="-9.1039190">
        <ele>5.8</ele>
        <time>2019-07-12T09:25:59Z</time>
      </trkpt>
      <trkpt lat="38.7338700" lon="-9.1040150">
        <ele>5.8</ele>
        <time>2019-07-12T09:26:06Z</time>
      </trkpt>
      <trkpt lat="38.7338220" lon="-9.1040290">
        <ele>5.8</ele>
        <time>2019-07-12T09:26:07Z</time>
      </trkpt>
      <trkpt lat="38.7335210" lon="-9.1041130">
        <ele>6.0</ele>
        <time>2019-07-12T09:26:13Z</time>
      </trkpt>
      <trkpt lat="38.7331770" lon="-9.1042170">
        <ele>6.2</ele>
        <time>2019-07-12T09:26:20Z</time>
      </trkpt>
      <trkpt lat="38.7330880" lon="-9.1042330">
        <ele>6.0</ele>
        <time>2019-07-12T09:26:23Z</time>
      </trkpt>
      <trkpt lat="38.7330830" lon="-9.1042350">
        <ele>5.8</ele>
        <time>2019-07-12T09:26:25Z</time>
      </trkpt>
      <trkpt lat="38.7330390" lon="-9.1042680">
        <ele>6.0</ele>
        <time>2019-07-12T09:27:01Z</time>
      </trkpt>
      <trkpt lat="38.7330200" lon="-9.1042780">
        <ele>6.0</ele>
        <time>2019-07-12T09:27:02Z</time>
      </trkpt>
      <trkpt lat="38.7329970" lon="-9.1042850">
        <ele>6.0</ele>
        <time>2019-07-12T09:27:03Z</time>
      </trkpt>
      <trkpt lat="38.7329330" lon="-9.1043080">
        <ele>6.0</ele>
        <time>2019-07-12T09:27:05Z</time>
      </trkpt>
      <trkpt lat="38.7328980" lon="-9.1043300">
        <ele>6.0</ele>
        <time>2019-07-12T09:27:06Z</time>
      </trkpt>
      <trkpt lat="38.7328200" lon="-9.1043690">
        <ele>6.0</ele>
        <time>2019-07-12T09:27:08Z</time>
      </trkpt>
      <trkpt lat="38.7326470" lon="-9.1044590">
        <ele>6.2</ele>
        <time>2019-07-12T09:27:12Z</time>
      </trkpt>
      <trkpt lat="38.7322150" lon="-9.1046670">
        <ele>6.0</ele>
        <time>2019-07-12T09:27:21Z</time>
      </trkpt>
      <trkpt lat="38.7318330" lon="-9.1048870">
        <ele>5.4</ele>
        <time>2019-07-12T09:27:29Z</time>
      </trkpt>
      <trkpt lat="38.7313950" lon="-9.1051580">
        <ele>5.8</ele>
        <time>2019-07-12T09:27:38Z</time>
      </trkpt>
      <trkpt lat="38.7312020" lon="-9.1052920">
        <ele>6.2</ele>
        <time>2019-07-12T09:27:42Z</time>
      </trkpt>
      <trkpt lat="38.7310580" lon="-9.1053990">
        <ele>6.0</ele>
        <time>2019-07-12T09:27:45Z</time>
      </trkpt>
      <trkpt lat="38.7307660" lon="-9.1056140">
        <ele>5.6</ele>
        <time>2019-07-12T09:27:51Z</time>
      </trkpt>
      <trkpt lat="38.7303610" lon="-9.1059020">
        <ele>5.4</ele>
        <time>2019-07-12T09:27:59Z</time>
      </trkpt>
      <trkpt lat="38.7300090" lon="-9.1061700">
        <ele>5.2</ele>
        <time>2019-07-12T09:28:06Z</time>
      </trkpt>
      <trkpt lat="38.7297620" lon="-9.1063570">
        <ele>5.4</ele>
        <time>2019-07-12T09:28:11Z</time>
      </trkpt>
      <trkpt lat="38.7294310" lon="-9.1066380">
        <ele>5.2</ele>
        <time>2019-07-12T09:28:18Z</time>
      </trkpt>
      <trkpt lat="38.7289980" lon="-9.1070040">
        <ele>5.2</ele>
        <time>2019-07-12T09:28:27Z</time>
      </trkpt>
      <trkpt lat="38.7288660" lon="-9.1071370">
        <ele>5.2</ele>
        <time>2019-07-12T09:28:30Z</time>
      </trkpt>
      <trkpt lat="38.7287310" lon="-9.1072800">
        <ele>5.0</ele>
        <time>2019-07-12T09:28:33Z</time>
      </trkpt>
      <trkpt lat="38.7282800" lon="-9.1077660">
        <ele>4.8</ele>
        <time>2019-07-12T09:28:43Z</time>
      </trkpt>
      <trkpt lat="38.7282380" lon="-9.1078150">
        <ele>5.0</ele>
        <time>2019-07-12T09:28:44Z</time>
      </trkpt>
      <trkpt lat="38.7278340" lon="-9.1083190">
        <ele>5.2</ele>
        <time>2019-07-12T09:28:54Z</time>
      </trkpt>
      <trkpt lat="38.7277950" lon="-9.1083700">
        <ele>5.2</ele>
        <time>2019-07-12T09:28:55Z</time>
      </trkpt>
      <trkpt lat="38.7275610" lon="-9.1086880">
        <ele>5.2</ele>
        <time>2019-07-12T09:29:01Z</time>
      </trkpt>
      <trkpt lat="38.7274460" lon="-9.1088500">
        <ele>5.2</ele>
        <time>2019-07-12T09:29:04Z</time>
      </trkpt>
      <trkpt lat="38.7270720" lon="-9.1093610">
        <ele>5.2</ele>
        <time>2019-07-12T09:29:13Z</time>
      </trkpt>
      <trkpt lat="38.7270290" lon="-9.1094200">
        <ele>5.2</ele>
        <time>2019-07-12T09:29:14Z</time>
      </trkpt>
      <trkpt lat="38.7267270" lon="-9.1098050">
        <ele>5.4</ele>
        <time>2019-07-12T09:29:21Z</time>
      </trkpt>
      <trkpt lat="38.7263480" lon="-9.1102050">
        <ele>5.2</ele>
        <time>2019-07-12T09:29:29Z</time>
      </trkpt>
      <trkpt lat="38.7258900" lon="-9.1106080">
        <ele>5.6</ele>
        <time>2019-07-12T09:29:38Z</time>
      </trkpt>
      <trkpt lat="38.7258390" lon="-9.1106520">
        <ele>5.6</ele>
        <time>2019-07-12T09:29:39Z</time>
      </trkpt>
      <trkpt lat="38.7253740" lon="-9.1110470">
        <ele>5.6</ele>
        <time>2019-07-12T09:29:48Z</time>
      </trkpt>
      <trkpt lat="38.7253240" lon="-9.1110870">
        <ele>5.6</ele>
        <time>2019-07-12T09:29:49Z</time>
      </trkpt>
      <trkpt lat="38.7249220" lon="-9.1114270">
        <ele>5.6</ele>
        <time>2019-07-12T09:29:57Z</time>
      </trkpt>
      <trkpt lat="38.7245810" lon="-9.1117010">
        <ele>5.2</ele>
        <time>2019-07-12T09:30:04Z</time>
      </trkpt>
      <trkpt lat="38.7242560" lon="-9.1120060">
        <ele>5.4</ele>
        <time>2019-07-12T09:30:11Z</time>
      </trkpt>
      <trkpt lat="38.7238300" lon="-9.1123870">
        <ele>5.2</ele>
        <time>2019-07-12T09:30:20Z</time>
      </trkpt>
      <trkpt lat="38.7234480" lon="-9.1127210">
        <ele>5.2</ele>
        <time>2019-07-12T09:30:28Z</time>
      </trkpt>
      <trkpt lat="38.7231120" lon="-9.1130080">
        <ele>5.0</ele>
        <time>2019-07-12T09:30:35Z</time>
      </trkpt>
      <trkpt lat="38.7229650" lon="-9.1131200">
        <ele>5.2</ele>
        <time>2019-07-12T09:30:38Z</time>
      </trkpt>
      <trkpt lat="38.7228730" lon="-9.1132120">
        <ele>5.2</ele>
        <time>2019-07-12T09:30:40Z</time>
      </trkpt>
      <trkpt lat="38.7227350" lon="-9.1133380">
        <ele>5.0</ele>
        <time>2019-07-12T09:30:43Z</time>
      </trkpt>
      <trkpt lat="38.7226840" lon="-9.1133800">
        <ele>4.8</ele>
        <time>2019-07-12T09:30:44Z</time>
      </trkpt>
      <trkpt lat="38.7222950" lon="-9.1137280">
        <ele>4.6</ele>
        <time>2019-07-12T09:30:52Z</time>
      </trkpt>
      <trkpt lat="38.7218560" lon="-9.1141010">
        <ele>4.4</ele>
        <time>2019-07-12T09:31:01Z</time>
      </trkpt>
      <trkpt lat="38.7214180" lon="-9.1144930">
        <ele>4.4</ele>
        <time>2019-07-12T09:31:10Z</time>
      </trkpt>
      <trkpt lat="38.7210580" lon="-9.1147690">
        <ele>4.0</ele>
        <time>2019-07-12T09:31:17Z</time>
      </trkpt>
      <trkpt lat="38.7206700" lon="-9.1151090">
        <ele>4.0</ele>
        <time>2019-07-12T09:31:25Z</time>
      </trkpt>
      <trkpt lat="38.7201880" lon="-9.1155280">
        <ele>4.0</ele>
        <time>2019-07-12T09:31:35Z</time>
      </trkpt>
      <trkpt lat="38.7198700" lon="-9.1158190">
        <ele>3.8</ele>
        <time>2019-07-12T09:31:42Z</time>
      </trkpt>
      <trkpt lat="38.7198250" lon="-9.1158590">
        <ele>3.8</ele>
        <time>2019-07-12T09:31:43Z</time>
      </trkpt>
      <trkpt lat="38.7196840" lon="-9.1159540">
        <ele>3.6</ele>
        <time>2019-07-12T09:31:46Z</time>
      </trkpt>
      <trkpt lat="38.7195950" lon="-9.1160150">
        <ele>3.6</ele>
        <time>2019-07-12T09:31:48Z</time>
      </trkpt>
      <trkpt lat="38.7194560" lon="-9.1161260">
        <ele>3.4</ele>
        <time>2019-07-12T09:31:51Z</time>
      </trkpt>
      <trkpt lat="38.7194120" lon="-9.1161660">
        <ele>3.4</ele>
        <time>2019-07-12T09:31:52Z</time>
      </trkpt>
      <trkpt lat="38.7190860" lon="-9.1164330">
        <ele>3.4</ele>
        <time>2019-07-12T09:31:59Z</time>
      </trkpt>
      <trkpt lat="38.7188630" lon="-9.1166430">
        <ele>3.4</ele>
        <time>2019-07-12T09:32:05Z</time>
      </trkpt>
      <trkpt lat="38.7188170" lon="-9.1166680">
        <ele>3.2</ele>
        <time>2019-07-12T09:32:07Z</time>
      </trkpt>
      <trkpt lat="38.7187840" lon="-9.1166880">
        <ele>3.2</ele>
        <time>2019-07-12T09:32:09Z</time>
      </trkpt>
      <trkpt lat="38.7187790" lon="-9.1166370">
        <ele>3.0</ele>
        <time>2019-07-12T09:32:12Z</time>
      </trkpt>
      <trkpt lat="38.7188460" lon="-9.1166360">
        <ele>2.8</ele>
        <time>2019-07-12T09:32:16Z</time>
      </trkpt>
      <trkpt lat="38.7188860" lon="-9.1167320">
        <ele>3.0</ele>
        <time>2019-07-12T09:32:22Z</time>
      </trkpt>
      <trkpt lat="38.7188450" lon="-9.1168560">
        <ele>2.8</ele>
        <time>2019-07-12T09:32:27Z</time>
      </trkpt>
      <trkpt lat="38.7187200" lon="-9.1169340">
        <ele>2.8</ele>
        <time>2019-07-12T09:32:31Z</time>
      </trkpt>
      <trkpt lat="38.7186370" lon="-9.1169700">
        <ele>3.0</ele>
        <time>2019-07-12T09:32:33Z</time>
      </trkpt>
      <trkpt lat="38.7185610" lon="-9.1170140">
        <ele>3.0</ele>
        <time>2019-07-12T09:32:35Z</time>
      </trkpt>
      <trkpt lat="38.7183570" lon="-9.1171860">
        <ele>3.4</ele>
        <time>2019-07-12T09:32:40Z</time>
      </trkpt>
      <trkpt lat="38.7183190" lon="-9.1172330">
        <ele>3.4</ele>
        <time>2019-07-12T09:32:41Z</time>
      </trkpt>
      <trkpt lat="38.7180300" lon="-9.1175210">
        <ele>3.6</ele>
        <time>2019-07-12T09:32:48Z</time>
      </trkpt>
      <trkpt lat="38.7176130" lon="-9.1179530">
        <ele>3.6</ele>
        <time>2019-07-12T09:32:58Z</time>
      </trkpt>
      <trkpt lat="38.7172290" lon="-9.1183650">
        <ele>4.0</ele>
        <time>2019-07-12T09:33:07Z</time>
      </trkpt>
      <trkpt lat="38.7170720" lon="-9.1185760">
        <ele>4.4</ele>
        <time>2019-07-12T09:33:11Z</time>
      </trkpt>
      <trkpt lat="38.7169900" lon="-9.1186710">
        <ele>4.4</ele>
        <time>2019-07-12T09:33:13Z</time>
      </trkpt>
      <trkpt lat="38.7167900" lon="-9.1189080">
        <ele>4.2</ele>
        <time>2019-07-12T09:33:18Z</time>
      </trkpt>
      <trkpt lat="38.7166660" lon="-9.1190470">
        <ele>4.2</ele>
        <time>2019-07-12T09:33:21Z</time>
      </trkpt>
      <trkpt lat="38.7163400" lon="-9.1193930">
        <ele>4.6</ele>
        <time>2019-07-12T09:33:29Z</time>
      </trkpt>
      <trkpt lat="38.7160140" lon="-9.1197620">
        <ele>4.8</ele>
        <time>2019-07-12T09:33:37Z</time>
      </trkpt>
      <trkpt lat="38.7156800" lon="-9.1201270">
        <ele>4.8</ele>
        <time>2019-07-12T09:33:45Z</time>
      </trkpt>
      <trkpt lat="38.7153530" lon="-9.1204990">
        <ele>5.0</ele>
        <time>2019-07-12T09:33:53Z</time>
      </trkpt>
      <trkpt lat="38.7151060" lon="-9.1207660">
        <ele>5.0</ele>
        <time>2019-07-12T09:33:59Z</time>
      </trkpt>
      <trkpt lat="38.7150260" lon="-9.1208520">
        <ele>5.0</ele>
        <time>2019-07-12T09:34:01Z</time>
      </trkpt>
      <trkpt lat="38.7149080" lon="-9.1209900">
        <ele>5.4</ele>
        <time>2019-07-12T09:34:04Z</time>
      </trkpt>
      <trkpt lat="38.7146690" lon="-9.1212450">
        <ele>5.4</ele>
        <time>2019-07-12T09:34:10Z</time>
      </trkpt>
      <trkpt lat="38.7143210" lon="-9.1216280">
        <ele>5.0</ele>
        <time>2019-07-12T09:34:19Z</time>
      </trkpt>
      <trkpt lat="38.7141690" lon="-9.1217810">
        <ele>5.2</ele>
        <time>2019-07-12T09:34:23Z</time>
      </trkpt>
      <trkpt lat="38.7140990" lon="-9.1218560">
        <ele>5.2</ele>
        <time>2019-07-12T09:34:25Z</time>
      </trkpt>
      <trkpt lat="38.7139560" lon="-9.1220190">
        <ele>5.2</ele>
        <time>2019-07-12T09:34:29Z</time>
      </trkpt>
      <trkpt lat="38.7137320" lon="-9.1222580">
        <ele>4.6</ele>
        <time>2019-07-12T09:34:35Z</time>
      </trkpt>
      <trkpt lat="38.7134170" lon="-9.1225960">
        <ele>5.0</ele>
        <time>2019-07-12T09:34:43Z</time>
      </trkpt>
      <trkpt lat="38.7133350" lon="-9.1226820">
        <ele>4.8</ele>
        <time>2019-07-12T09:34:45Z</time>
      </trkpt>
      <trkpt lat="38.7131580" lon="-9.1228310">
        <ele>4.8</ele>
        <time>2019-07-12T09:34:49Z</time>
      </trkpt>
      <trkpt lat="38.7130300" lon="-9.1229320">
        <ele>4.8</ele>
        <time>2019-07-12T09:34:52Z</time>
      </trkpt>
      <trkpt lat="38.7128670" lon="-9.1230900">
        <ele>4.4</ele>
        <time>2019-07-12T09:34:56Z</time>
      </trkpt>
      <trkpt lat="38.7127520" lon="-9.1232140">
        <ele>3.8</ele>
        <time>2019-07-12T09:34:59Z</time>
      </trkpt>
      <trkpt lat="38.7125230" lon="-9.1235020">
        <ele>3.8</ele>
        <time>2019-07-12T09:35:06Z</time>
      </trkpt>
      <trkpt lat="38.7123090" lon="-9.1237440">
        <ele>3.6</ele>
        <time>2019-07-12T09:35:13Z</time>
      </trkpt>
      <trkpt lat="38.7121280" lon="-9.1238840">
        <ele>3.6</ele>
        <time>2019-07-12T09:35:19Z</time>
      </trkpt>
      <trkpt lat="38.7120900" lon="-9.1239390">
        <ele>3.4</ele>
        <time>2019-07-12T09:35:21Z</time>
      </trkpt>
      <trkpt lat="38.7120830" lon="-9.1239810">
        <ele>3.2</ele>
        <time>2019-07-12T09:35:22Z</time>
      </trkpt>
      <trkpt lat="38.7120650" lon="-9.1241270">
        <ele>3.2</ele>
        <time>2019-07-12T09:35:25Z</time>
      </trkpt>
      <trkpt lat="38.7120290" lon="-9.1242790">
        <ele>3.4</ele>
        <time>2019-07-12T09:35:28Z</time>
      </trkpt>
      <trkpt lat="38.7119750" lon="-9.1244300">
        <ele>3.6</ele>
        <time>2019-07-12T09:35:31Z</time>
      </trkpt>
      <trkpt lat="38.7119030" lon="-9.1245840">
        <ele>3.6</ele>
        <time>2019-07-12T09:35:34Z</time>
      </trkpt>
      <trkpt lat="38.7117800" lon="-9.1248470">
        <ele>3.4</ele>
        <time>2019-07-12T09:35:39Z</time>
      </trkpt>
      <trkpt lat="38.7116760" lon="-9.1250600">
        <ele>3.2</ele>
        <time>2019-07-12T09:35:43Z</time>
      </trkpt>
      <trkpt lat="38.7114500" lon="-9.1255520">
        <ele>2.8</ele>
        <time>2019-07-12T09:35:52Z</time>
      </trkpt>
      <trkpt lat="38.7114020" lon="-9.1256630">
        <ele>2.8</ele>
        <time>2019-07-12T09:35:54Z</time>
      </trkpt>
      <trkpt lat="38.7112500" lon="-9.1259960">
        <ele>2.8</ele>
        <time>2019-07-12T09:36:00Z</time>
      </trkpt>
      <trkpt lat="38.7111460" lon="-9.1262120">
        <ele>2.6</ele>
        <time>2019-07-12T09:36:04Z</time>
      </trkpt>
      <trkpt lat="38.7109930" lon="-9.1265330">
        <ele>2.4</ele>
        <time>2019-07-12T09:36:10Z</time>
      </trkpt>
      <trkpt lat="38.7108610" lon="-9.1268010">
        <ele>2.4</ele>
        <time>2019-07-12T09:36:15Z</time>
      </trkpt>
      <trkpt lat="38.7107110" lon="-9.1270500">
        <ele>2.4</ele>
        <time>2019-07-12T09:36:20Z</time>
      </trkpt>
      <trkpt lat="38.7105860" lon="-9.1272360">
        <ele>2.2</ele>
        <time>2019-07-12T09:36:24Z</time>
      </trkpt>
      <trkpt lat="38.7103400" lon="-9.1275920">
        <ele>2.4</ele>
        <time>2019-07-12T09:36:32Z</time>
      </trkpt>
      <trkpt lat="38.7102550" lon="-9.1277390">
        <ele>2.2</ele>
        <time>2019-07-12T09:36:35Z</time>
      </trkpt>
      <trkpt lat="38.7101110" lon="-9.1279790">
        <ele>2.4</ele>
        <time>2019-07-12T09:36:40Z</time>
      </trkpt>
      <trkpt lat="38.7098920" lon="-9.1282860">
        <ele>2.2</ele>
        <time>2019-07-12T09:36:47Z</time>
      </trkpt>
      <trkpt lat="38.7098360" lon="-9.1284560">
        <ele>2.2</ele>
        <time>2019-07-12T09:36:51Z</time>
      </trkpt>
      <trkpt lat="38.7098590" lon="-9.1285320">
        <ele>2.2</ele>
        <time>2019-07-12T09:36:53Z</time>
      </trkpt>
      <trkpt lat="38.7098970" lon="-9.1286700">
        <ele>2.0</ele>
        <time>2019-07-12T09:36:56Z</time>
      </trkpt>
      <trkpt lat="38.7099180" lon="-9.1287160">
        <ele>2.2</ele>
        <time>2019-07-12T09:36:57Z</time>
      </trkpt>
      <trkpt lat="38.7100030" lon="-9.1288230">
        <ele>2.4</ele>
        <time>2019-07-12T09:37:00Z</time>
      </trkpt>
      <trkpt lat="38.7101220" lon="-9.1289650">
        <ele>1.2</ele>
        <time>2019-07-12T09:37:05Z</time>
      </trkpt>
      <trkpt lat="38.7101290" lon="-9.1290030">
        <ele>1.2</ele>
        <time>2019-07-12T09:37:06Z</time>
      </trkpt>
      <trkpt lat="38.7101110" lon="-9.1290800">
        <ele>1.6</ele>
        <time>2019-07-12T09:37:08Z</time>
      </trkpt>
      <trkpt lat="38.7100870" lon="-9.1291070">
        <ele>1.6</ele>
        <time>2019-07-12T09:37:09Z</time>
      </trkpt>
      <trkpt lat="38.7099040" lon="-9.1291910">
        <ele>2.0</ele>
        <time>2019-07-12T09:37:14Z</time>
      </trkpt>
      <trkpt lat="38.7098630" lon="-9.1292150">
        <ele>2.0</ele>
        <time>2019-07-12T09:37:15Z</time>
      </trkpt>
      <trkpt lat="38.7097590" lon="-9.1293290">
        <ele>2.0</ele>
        <time>2019-07-12T09:37:18Z</time>
      </trkpt>
      <trkpt lat="38.7096570" lon="-9.1294550">
        <ele>2.4</ele>
        <time>2019-07-12T09:37:21Z</time>
      </trkpt>
      <trkpt lat="38.7095680" lon="-9.1295840">
        <ele>2.4</ele>
        <time>2019-07-12T09:37:24Z</time>
      </trkpt>
      <trkpt lat="38.7095370" lon="-9.1296290">
        <ele>2.4</ele>
        <time>2019-07-12T09:37:25Z</time>
      </trkpt>
      <trkpt lat="38.7095090" lon="-9.1296720">
        <ele>2.4</ele>
        <time>2019-07-12T09:37:26Z</time>
      </trkpt>
      <trkpt lat="38.7094540" lon="-9.1297520">
        <ele>2.4</ele>
        <time>2019-07-12T09:37:28Z</time>
      </trkpt>
      <trkpt lat="38.7093920" lon="-9.1298230">
        <ele>2.6</ele>
        <time>2019-07-12T09:37:30Z</time>
      </trkpt>
      <trkpt lat="38.7093360" lon="-9.1298970">
        <ele>2.6</ele>
        <time>2019-07-12T09:37:32Z</time>
      </trkpt>
      <trkpt lat="38.7092450" lon="-9.1300690">
        <ele>2.8</ele>
        <time>2019-07-12T09:37:36Z</time>
      </trkpt>
      <trkpt lat="38.7091490" lon="-9.1303070">
        <ele>2.8</ele>
        <time>2019-07-12T09:37:41Z</time>
      </trkpt>
      <trkpt lat="38.7091270" lon="-9.1303920">
        <ele>2.8</ele>
        <time>2019-07-12T09:37:43Z</time>
      </trkpt>
      <trkpt lat="38.7091320" lon="-9.1304880">
        <ele>2.6</ele>
        <time>2019-07-12T09:37:46Z</time>
      </trkpt>
      <trkpt lat="38.7091310" lon="-9.1305300">
        <ele>2.4</ele>
        <time>2019-07-12T09:37:47Z</time>
      </trkpt>
      <trkpt lat="38.7091010" lon="-9.1307680">
        <ele>2.4</ele>
        <time>2019-07-12T09:37:53Z</time>
      </trkpt>
      <trkpt lat="38.7090910" lon="-9.1308550">
        <ele>2.2</ele>
        <time>2019-07-12T09:37:56Z</time>
      </trkpt>
      <trkpt lat="38.7090920" lon="-9.1308730">
        <ele>2.2</ele>
        <time>2019-07-12T09:37:57Z</time>
      </trkpt>
      <trkpt lat="38.7090920" lon="-9.1309160">
        <ele>2.0</ele>
        <time>2019-07-12T09:38:00Z</time>
      </trkpt>
      <trkpt lat="38.7090930" lon="-9.1309290">
        <ele>2.0</ele>
        <time>2019-07-12T09:38:01Z</time>
      </trkpt>
      <trkpt lat="38.7090750" lon="-9.1309670">
        <ele>2.2</ele>
        <time>2019-07-12T09:38:03Z</time>
      </trkpt>
      <trkpt lat="38.7090310" lon="-9.1310830">
        <ele>2.4</ele>
        <time>2019-07-12T09:38:09Z</time>
      </trkpt>
      <trkpt lat="38.7089600" lon="-9.1311920">
        <ele>2.4</ele>
        <time>2019-07-12T09:38:14Z</time>
      </trkpt>
      <trkpt lat="38.7089100" lon="-9.1313260">
        <ele>2.4</ele>
        <time>2019-07-12T09:38:18Z</time>
      </trkpt>
      <trkpt lat="38.7088450" lon="-9.1315810">
        <ele>2.6</ele>
        <time>2019-07-12T09:38:24Z</time>
      </trkpt>
      <trkpt lat="38.7088410" lon="-9.1318490">
        <ele>2.8</ele>
        <time>2019-07-12T09:38:30Z</time>
      </trkpt>
      <trkpt lat="38.7088310" lon="-9.1320190">
        <ele>2.8</ele>
        <time>2019-07-12T09:38:34Z</time>
      </trkpt>
      <trkpt lat="38.7088490" lon="-9.1321570">
        <ele>2.6</ele>
        <time>2019-07-12T09:38:37Z</time>
      </trkpt>
      <trkpt lat="38.7088690" lon="-9.1323740">
        <ele>2.0</ele>
        <time>2019-07-12T09:38:42Z</time>
      </trkpt>
      <trkpt lat="38.7088700" lon="-9.1326110">
        <ele>2.0</ele>
        <time>2019-07-12T09:38:47Z</time>
      </trkpt>
      <trkpt lat="38.7089180" lon="-9.1327970">
        <ele>2.0</ele>
        <time>2019-07-12T09:38:51Z</time>
      </trkpt>
      <trkpt lat="38.7089330" lon="-9.1328430">
        <ele>2.0</ele>
        <time>2019-07-12T09:38:52Z</time>
      </trkpt>
      <trkpt lat="38.7089890" lon="-9.1330820">
        <ele>2.0</ele>
        <time>2019-07-12T09:38:57Z</time>
      </trkpt>
      <trkpt lat="38.7090080" lon="-9.1331400">
        <ele>2.0</ele>
        <time>2019-07-12T09:38:59Z</time>
      </trkpt>
      <trkpt lat="38.7090280" lon="-9.1331710">
        <ele>2.0</ele>
        <time>2019-07-12T09:39:01Z</time>
      </trkpt>
      <trkpt lat="38.7090570" lon="-9.1332070">
        <ele>2.0</ele>
        <time>2019-07-12T09:39:03Z</time>
      </trkpt>
      <trkpt lat="38.7090890" lon="-9.1333690">
        <ele>2.2</ele>
        <time>2019-07-12T09:39:08Z</time>
      </trkpt>
      <trkpt lat="38.7090730" lon="-9.1335770">
        <ele>2.4</ele>
        <time>2019-07-12T09:39:13Z</time>
      </trkpt>
      <trkpt lat="38.7090890" lon="-9.1337850">
        <ele>2.4</ele>
        <time>2019-07-12T09:39:19Z</time>
      </trkpt>
      <trkpt lat="38.7091110" lon="-9.1339240">
        <ele>2.8</ele>
        <time>2019-07-12T09:39:24Z</time>
      </trkpt>
      <trkpt lat="38.7091150" lon="-9.1340340">
        <ele>2.6</ele>
        <time>2019-07-12T09:39:29Z</time>
      </trkpt>
      <trkpt lat="38.7091050" lon="-9.1340440">
        <ele>2.8</ele>
        <time>2019-07-12T09:39:31Z</time>
      </trkpt>
      <trkpt lat="38.7093090" lon="-9.1338240">
        <ele>5.6</ele>
        <time>2019-07-12T09:40:16Z</time>
      </trkpt>
      <trkpt lat="38.7093060" lon="-9.1338050">
        <ele>5.6</ele>
        <time>2019-07-12T09:40:17Z</time>
      </trkpt>
      <trkpt lat="38.7093050" lon="-9.1337610">
        <ele>5.2</ele>
        <time>2019-07-12T09:40:19Z</time>
      </trkpt>
      <trkpt lat="38.7093060" lon="-9.1336800">
        <ele>5.0</ele>
        <time>2019-07-12T09:40:22Z</time>
      </trkpt>
      <trkpt lat="38.7093040" lon="-9.1336690">
        <ele>5.0</ele>
        <time>2019-07-12T09:40:23Z</time>
      </trkpt>
      <trkpt lat="38.7093220" lon="-9.1336570">
        <ele>5.0</ele>
        <time>2019-07-12T09:40:24Z</time>
      </trkpt>
      <trkpt lat="38.7093780" lon="-9.1336320">
        <ele>5.4</ele>
        <time>2019-07-12T09:40:27Z</time>
      </trkpt>
      <trkpt lat="38.7094110" lon="-9.1336150">
        <ele>6.0</ele>
        <time>2019-07-12T09:40:29Z</time>
      </trkpt>
      <trkpt lat="38.7094440" lon="-9.1336060">
        <ele>6.4</ele>
        <time>2019-07-12T09:40:31Z</time>
      </trkpt>
      <trkpt lat="38.7094530" lon="-9.1336200">
        <ele>6.8</ele>
        <time>2019-07-12T09:40:32Z</time>
      </trkpt>
      <trkpt lat="38.7094600" lon="-9.1336400">
        <ele>7.0</ele>
        <time>2019-07-12T09:40:33Z</time>
      </trkpt>
      <trkpt lat="38.7094870" lon="-9.1337030">
        <ele>7.6</ele>
        <time>2019-07-12T09:40:36Z</time>
      </trkpt>
      <trkpt lat="38.7095010" lon="-9.1338240">
        <ele>8.4</ele>
        <time>2019-07-12T09:40:39Z</time>
      </trkpt>
      <trkpt lat="38.7095120" lon="-9.1338780">
        <ele>9.0</ele>
        <time>2019-07-12T09:40:41Z</time>
      </trkpt>
      <trkpt lat="38.7095580" lon="-9.1339120">
        <ele>9.8</ele>
        <time>2019-07-12T09:40:43Z</time>
      </trkpt>
      <trkpt lat="38.7095810" lon="-9.1339320">
        <ele>10.2</ele>
        <time>2019-07-12T09:40:44Z</time>
      </trkpt>
      <trkpt lat="38.7096430" lon="-9.1339550">
        <ele>11.0</ele>
        <time>2019-07-12T09:40:46Z</time>
      </trkpt>
      <trkpt lat="38.7096650" lon="-9.1339650">
        <ele>11.2</ele>
        <time>2019-07-12T09:40:47Z</time>
      </trkpt>
      <trkpt lat="38.7096800" lon="-9.1339780">
        <ele>11.6</ele>
        <time>2019-07-12T09:40:48Z</time>
      </trkpt>
      <trkpt lat="38.7097080" lon="-9.1339950">
        <ele>12.2</ele>
        <time>2019-07-12T09:40:50Z</time>
      </trkpt>
      <trkpt lat="38.7097220" lon="-9.1340000">
        <ele>12.4</ele>
        <time>2019-07-12T09:40:51Z</time>
      </trkpt>
      <trkpt lat="38.7097420" lon="-9.1339980">
        <ele>12.6</ele>
        <time>2019-07-12T09:40:52Z</time>
      </trkpt>
      <trkpt lat="38.7097910" lon="-9.1339790">
        <ele>13.4</ele>
        <time>2019-07-12T09:40:55Z</time>
      </trkpt>
      <trkpt lat="38.7098050" lon="-9.1339780">
        <ele>13.6</ele>
        <time>2019-07-12T09:40:56Z</time>
      </trkpt>
      <trkpt lat="38.7098180" lon="-9.1339650">
        <ele>13.8</ele>
        <time>2019-07-12T09:40:57Z</time>
      </trkpt>
      <trkpt lat="38.7098240" lon="-9.1339030">
        <ele>14.6</ele>
        <time>2019-07-12T09:41:01Z</time>
      </trkpt>
      <trkpt lat="38.7098230" lon="-9.1338920">
        <ele>14.8</ele>
        <time>2019-07-12T09:41:02Z</time>
      </trkpt>
      <trkpt lat="38.7097980" lon="-9.1338090">
        <ele>15.6</ele>
        <time>2019-07-12T09:41:05Z</time>
      </trkpt>
      <trkpt lat="38.7097850" lon="-9.1337760">
        <ele>15.8</ele>
        <time>2019-07-12T09:41:06Z</time>
      </trkpt>
      <trkpt lat="38.7097730" lon="-9.1337460">
        <ele>16.0</ele>
        <time>2019-07-12T09:41:07Z</time>
      </trkpt>
      <trkpt lat="38.7097440" lon="-9.1335960">
        <ele>16.8</ele>
        <time>2019-07-12T09:41:12Z</time>
      </trkpt>
      <trkpt lat="38.7097490" lon="-9.1335640">
        <ele>17.2</ele>
        <time>2019-07-12T09:41:13Z</time>
      </trkpt>
      <trkpt lat="38.7097690" lon="-9.1334930">
        <ele>18.0</ele>
        <time>2019-07-12T09:41:16Z</time>
      </trkpt>
      <trkpt lat="38.7098020" lon="-9.1334550">
        <ele>18.2</ele>
        <time>2019-07-12T09:41:18Z</time>
      </trkpt>
      <trkpt lat="38.7099150" lon="-9.1333620">
        <ele>19.4</ele>
        <time>2019-07-12T09:41:23Z</time>
      </trkpt>
      <trkpt lat="38.7099340" lon="-9.1333450">
        <ele>19.6</ele>
        <time>2019-07-12T09:41:24Z</time>
      </trkpt>
      <trkpt lat="38.7099740" lon="-9.1332810">
        <ele>20.4</ele>
        <time>2019-07-12T09:41:27Z</time>
      </trkpt>
      <trkpt lat="38.7099790" lon="-9.1332540">
        <ele>20.8</ele>
        <time>2019-07-12T09:41:28Z</time>
      </trkpt>
      <trkpt lat="38.7099880" lon="-9.1331850">
        <ele>21.6</ele>
        <time>2019-07-12T09:41:31Z</time>
      </trkpt>
      <trkpt lat="38.7099890" lon="-9.1331380">
        <ele>22.2</ele>
        <time>2019-07-12T09:41:33Z</time>
      </trkpt>
      <trkpt lat="38.7099940" lon="-9.1330950">
        <ele>23.0</ele>
        <time>2019-07-12T09:41:35Z</time>
      </trkpt>
      <trkpt lat="38.7100000" lon="-9.1330390">
        <ele>24.0</ele>
        <time>2019-07-12T09:41:38Z</time>
      </trkpt>
      <trkpt lat="38.7099980" lon="-9.1330140">
        <ele>24.0</ele>
        <time>2019-07-12T09:41:39Z</time>
      </trkpt>
      <trkpt lat="38.7100120" lon="-9.1329320">
        <ele>25.2</ele>
        <time>2019-07-12T09:41:42Z</time>
      </trkpt>
      <trkpt lat="38.7100180" lon="-9.1328780">
        <ele>25.4</ele>
        <time>2019-07-12T09:41:44Z</time>
      </trkpt>
      <trkpt lat="38.7100430" lon="-9.1328020">
        <ele>26.2</ele>
        <time>2019-07-12T09:41:47Z</time>
      </trkpt>
      <trkpt lat="38.7100600" lon="-9.1327390">
        <ele>26.6</ele>
        <time>2019-07-12T09:41:49Z</time>
      </trkpt>
      <trkpt lat="38.7100830" lon="-9.1326670">
        <ele>27.2</ele>
        <time>2019-07-12T09:41:51Z</time>
      </trkpt>
      <trkpt lat="38.7100980" lon="-9.1324790">
        <ele>27.8</ele>
        <time>2019-07-12T09:41:55Z</time>
      </trkpt>
      <trkpt lat="38.7101090" lon="-9.1323890">
        <ele>28.2</ele>
        <time>2019-07-12T09:41:57Z</time>
      </trkpt>
      <trkpt lat="38.7101430" lon="-9.1322320">
        <ele>29.2</ele>
        <time>2019-07-12T09:42:01Z</time>
      </trkpt>
      <trkpt lat="38.7101560" lon="-9.1321950">
        <ele>29.4</ele>
        <time>2019-07-12T09:42:02Z</time>
      </trkpt>
      <trkpt lat="38.7101940" lon="-9.1320950">
        <ele>30.6</ele>
        <time>2019-07-12T09:42:05Z</time>
      </trkpt>
      <trkpt lat="38.7102160" lon="-9.1320330">
        <ele>31.4</ele>
        <time>2019-07-12T09:42:07Z</time>
      </trkpt>
      <trkpt lat="38.7102310" lon="-9.1319690">
        <ele>31.8</ele>
        <time>2019-07-12T09:42:09Z</time>
      </trkpt>
      <trkpt lat="38.7102530" lon="-9.1318920">
        <ele>32.8</ele>
        <time>2019-07-12T09:42:12Z</time>
      </trkpt>
      <trkpt lat="38.7103200" lon="-9.1316870">
        <ele>33.8</ele>
        <time>2019-07-12T09:42:17Z</time>
      </trkpt>
      <trkpt lat="38.7103320" lon="-9.1316420">
        <ele>34.2</ele>
        <time>2019-07-12T09:42:18Z</time>
      </trkpt>
      <trkpt lat="38.7103590" lon="-9.1314970">
        <ele>35.0</ele>
        <time>2019-07-12T09:42:21Z</time>
      </trkpt>
      <trkpt lat="38.7103790" lon="-9.1314090">
        <ele>35.6</ele>
        <time>2019-07-12T09:42:23Z</time>
      </trkpt>
      <trkpt lat="38.7104020" lon="-9.1313320">
        <ele>36.4</ele>
        <time>2019-07-12T09:42:25Z</time>
      </trkpt>
      <trkpt lat="38.7104770" lon="-9.1312250">
        <ele>37.4</ele>
        <time>2019-07-12T09:42:28Z</time>
      </trkpt>
      <trkpt lat="38.7105010" lon="-9.1311800">
        <ele>37.4</ele>
        <time>2019-07-12T09:42:29Z</time>
      </trkpt>
      <trkpt lat="38.7105680" lon="-9.1310620">
        <ele>38.4</ele>
        <time>2019-07-12T09:42:32Z</time>
      </trkpt>
      <trkpt lat="38.7105920" lon="-9.1310280">
        <ele>38.6</ele>
        <time>2019-07-12T09:42:33Z</time>
      </trkpt>
      <trkpt lat="38.7106750" lon="-9.1308870">
        <ele>39.8</ele>
        <time>2019-07-12T09:42:37Z</time>
      </trkpt>
      <trkpt lat="38.7107230" lon="-9.1308270">
        <ele>40.2</ele>
        <time>2019-07-12T09:42:39Z</time>
      </trkpt>
      <trkpt lat="38.7108230" lon="-9.1307230">
        <ele>40.8</ele>
        <time>2019-07-12T09:42:43Z</time>
      </trkpt>
      <trkpt lat="38.7108740" lon="-9.1306970">
        <ele>41.2</ele>
        <time>2019-07-12T09:42:45Z</time>
      </trkpt>
      <trkpt lat="38.7109400" lon="-9.1306550">
        <ele>42.0</ele>
        <time>2019-07-12T09:42:48Z</time>
      </trkpt>
      <trkpt lat="38.7110150" lon="-9.1306340">
        <ele>43.0</ele>
        <time>2019-07-12T09:42:51Z</time>
      </trkpt>
      <trkpt lat="38.7110430" lon="-9.1306330">
        <ele>43.2</ele>
        <time>2019-07-12T09:42:52Z</time>
      </trkpt>
      <trkpt lat="38.7111370" lon="-9.1306300">
        <ele>44.2</ele>
        <time>2019-07-12T09:42:55Z</time>
      </trkpt>
      <trkpt lat="38.7111940" lon="-9.1306320">
        <ele>45.0</ele>
        <time>2019-07-12T09:42:57Z</time>
      </trkpt>
      <trkpt lat="38.7112190" lon="-9.1306360">
        <ele>45.6</ele>
        <time>2019-07-12T09:42:58Z</time>
      </trkpt>
      <trkpt lat="38.7113280" lon="-9.1306390">
        <ele>46.8</ele>
        <time>2019-07-12T09:43:02Z</time>
      </trkpt>
      <trkpt lat="38.7114040" lon="-9.1306440">
        <ele>48.0</ele>
        <time>2019-07-12T09:43:05Z</time>
      </trkpt>
      <trkpt lat="38.7114270" lon="-9.1306460">
        <ele>48.2</ele>
        <time>2019-07-12T09:43:06Z</time>
      </trkpt>
      <trkpt lat="38.7114770" lon="-9.1306460">
        <ele>49.2</ele>
        <time>2019-07-12T09:43:08Z</time>
      </trkpt>
      <trkpt lat="38.7115170" lon="-9.1306710">
        <ele>49.6</ele>
        <time>2019-07-12T09:43:10Z</time>
      </trkpt>
      <trkpt lat="38.7115440" lon="-9.1307220">
        <ele>50.4</ele>
        <time>2019-07-12T09:43:12Z</time>
      </trkpt>
      <trkpt lat="38.7115450" lon="-9.1307540">
        <ele>50.6</ele>
        <time>2019-07-12T09:43:13Z</time>
      </trkpt>
      <trkpt lat="38.7115400" lon="-9.1307860">
        <ele>50.6</ele>
        <time>2019-07-12T09:43:14Z</time>
      </trkpt>
      <trkpt lat="38.7115190" lon="-9.1308630">
        <ele>51.4</ele>
        <time>2019-07-12T09:43:17Z</time>
      </trkpt>
      <trkpt lat="38.7115270" lon="-9.1309110">
        <ele>52.0</ele>
        <time>2019-07-12T09:43:19Z</time>
      </trkpt>
      <trkpt lat="38.7115410" lon="-9.1309240">
        <ele>52.6</ele>
        <time>2019-07-12T09:43:20Z</time>
      </trkpt>
      <trkpt lat="38.7116060" lon="-9.1309270">
        <ele>53.8</ele>
        <time>2019-07-12T09:43:23Z</time>
      </trkpt>
      <trkpt lat="38.7116790" lon="-9.1309020">
        <ele>55.0</ele>
        <time>2019-07-12T09:43:27Z</time>
      </trkpt>
      <trkpt lat="38.7116980" lon="-9.1308970">
        <ele>55.2</ele>
        <time>2019-07-12T09:43:28Z</time>
      </trkpt>
      <trkpt lat="38.7117300" lon="-9.1308960">
        <ele>56.0</ele>
        <time>2019-07-12T09:43:30Z</time>
      </trkpt>
      <trkpt lat="38.7117790" lon="-9.1309330">
        <ele>57.2</ele>
        <time>2019-07-12T09:43:33Z</time>
      </trkpt>
      <trkpt lat="38.7118220" lon="-9.1310120">
        <ele>58.2</ele>
        <time>2019-07-12T09:43:36Z</time>
      </trkpt>
      <trkpt lat="38.7118510" lon="-9.1310550">
        <ele>59.0</ele>
        <time>2019-07-12T09:43:38Z</time>
      </trkpt>
      <trkpt lat="38.7118630" lon="-9.1310790">
        <ele>59.4</ele>
        <time>2019-07-12T09:43:39Z</time>
      </trkpt>
      <trkpt lat="38.7118890" lon="-9.1311570">
        <ele>60.4</ele>
        <time>2019-07-12T09:43:42Z</time>
      </trkpt>
      <trkpt lat="38.7118970" lon="-9.1311870">
        <ele>60.8</ele>
        <time>2019-07-12T09:43:43Z</time>
      </trkpt>
      <trkpt lat="38.7119220" lon="-9.1312550">
        <ele>62.0</ele>
        <time>2019-07-12T09:43:45Z</time>
      </trkpt>
      <trkpt lat="38.7119380" lon="-9.1313090">
        <ele>63.0</ele>
        <time>2019-07-12T09:43:47Z</time>
      </trkpt>
      <trkpt lat="38.7119450" lon="-9.1313580">
        <ele>63.6</ele>
        <time>2019-07-12T09:43:49Z</time>
      </trkpt>
      <trkpt lat="38.7119740" lon="-9.1314170">
        <ele>64.0</ele>
        <time>2019-07-12T09:43:52Z</time>
      </trkpt>
      <trkpt lat="38.7119890" lon="-9.1314360">
        <ele>64.4</ele>
        <time>2019-07-12T09:43:53Z</time>
      </trkpt>
      <trkpt lat="38.7120060" lon="-9.1314560">
        <ele>64.6</ele>
        <time>2019-07-12T09:43:54Z</time>
      </trkpt>
      <trkpt lat="38.7120360" lon="-9.1314970">
        <ele>65.4</ele>
        <time>2019-07-12T09:43:56Z</time>
      </trkpt>
      <trkpt lat="38.7121030" lon="-9.1315780">
        <ele>66.6</ele>
        <time>2019-07-12T09:44:00Z</time>
      </trkpt>
      <trkpt lat="38.7121180" lon="-9.1315990">
        <ele>66.8</ele>
        <time>2019-07-12T09:44:01Z</time>
      </trkpt>
      <trkpt lat="38.7121520" lon="-9.1316340">
        <ele>67.4</ele>
        <time>2019-07-12T09:44:03Z</time>
      </trkpt>
      <trkpt lat="38.7122330" lon="-9.1317100">
        <ele>68.8</ele>
        <time>2019-07-12T09:44:07Z</time>
      </trkpt>
      <trkpt lat="38.7122920" lon="-9.1317730">
        <ele>70.4</ele>
        <time>2019-07-12T09:44:10Z</time>
      </trkpt>
      <trkpt lat="38.7123370" lon="-9.1318330">
        <ele>71.6</ele>
        <time>2019-07-12T09:44:13Z</time>
      </trkpt>
      <trkpt lat="38.7123460" lon="-9.1318540">
        <ele>71.8</ele>
        <time>2019-07-12T09:44:14Z</time>
      </trkpt>
      <trkpt lat="38.7123330" lon="-9.1319220">
        <ele>72.2</ele>
        <time>2019-07-12T09:44:16Z</time>
      </trkpt>
      <trkpt lat="38.7122950" lon="-9.1320340">
        <ele>72.8</ele>
        <time>2019-07-12T09:44:19Z</time>
      </trkpt>
      <trkpt lat="38.7122800" lon="-9.1320720">
        <ele>73.2</ele>
        <time>2019-07-12T09:44:20Z</time>
      </trkpt>
      <trkpt lat="38.7122690" lon="-9.1321090">
        <ele>73.4</ele>
        <time>2019-07-12T09:44:21Z</time>
      </trkpt>
      <trkpt lat="38.7122530" lon="-9.1322350">
        <ele>74.0</ele>
        <time>2019-07-12T09:44:25Z</time>
      </trkpt>
      <trkpt lat="38.7122480" lon="-9.1322550">
        <ele>74.0</ele>
        <time>2019-07-12T09:44:26Z</time>
      </trkpt>
      <trkpt lat="38.7122390" lon="-9.1322710">
        <ele>74.0</ele>
        <time>2019-07-12T09:44:27Z</time>
      </trkpt>
      <trkpt lat="38.7122190" lon="-9.1323210">
        <ele>74.4</ele>
        <time>2019-07-12T09:44:31Z</time>
      </trkpt>
      <trkpt lat="38.7121910" lon="-9.1323640">
        <ele>74.6</ele>
        <time>2019-07-12T09:44:34Z</time>
      </trkpt>
      <trkpt lat="38.7121630" lon="-9.1324440">
        <ele>74.8</ele>
        <time>2019-07-12T09:44:37Z</time>
      </trkpt>
      <trkpt lat="38.7121610" lon="-9.1324760">
        <ele>74.8</ele>
        <time>2019-07-12T09:44:38Z</time>
      </trkpt>
      <trkpt lat="38.7121550" lon="-9.1325480">
        <ele>74.8</ele>
        <time>2019-07-12T09:44:40Z</time>
      </trkpt>
      <trkpt lat="38.7121520" lon="-9.1325800">
        <ele>75.0</ele>
        <time>2019-07-12T09:44:41Z</time>
      </trkpt>
      <trkpt lat="38.7121480" lon="-9.1326340">
        <ele>75.8</ele>
        <time>2019-07-12T09:44:43Z</time>
      </trkpt>
      <trkpt lat="38.7121440" lon="-9.1326710">
        <ele>76.2</ele>
        <time>2019-07-12T09:44:45Z</time>
      </trkpt>
      <trkpt lat="38.7121430" lon="-9.1326810">
        <ele>76.4</ele>
        <time>2019-07-12T09:44:46Z</time>
      </trkpt>
      <trkpt lat="38.7121420" lon="-9.1326940">
        <ele>76.6</ele>
        <time>2019-07-12T09:44:47Z</time>
      </trkpt>
      <trkpt lat="38.7121400" lon="-9.1327670">
        <ele>77.0</ele>
        <time>2019-07-12T09:44:51Z</time>
      </trkpt>
      <trkpt lat="38.7121690" lon="-9.1328510">
        <ele>77.8</ele>
        <time>2019-07-12T09:44:54Z</time>
      </trkpt>
      <trkpt lat="38.7121940" lon="-9.1328700">
        <ele>78.2</ele>
        <time>2019-07-12T09:44:55Z</time>
      </trkpt>
      <trkpt lat="38.7122390" lon="-9.1328920">
        <ele>79.0</ele>
        <time>2019-07-12T09:44:57Z</time>
      </trkpt>
      <trkpt lat="38.7122960" lon="-9.1329100">
        <ele>79.8</ele>
        <time>2019-07-12T09:44:59Z</time>
      </trkpt>
      <trkpt lat="38.7123260" lon="-9.1329250">
        <ele>80.2</ele>
        <time>2019-07-12T09:45:00Z</time>
      </trkpt>
      <trkpt lat="38.7124090" lon="-9.1329610">
        <ele>81.8</ele>
        <time>2019-07-12T09:45:03Z</time>
      </trkpt>
      <trkpt lat="38.7124310" lon="-9.1329630">
        <ele>82.2</ele>
        <time>2019-07-12T09:45:04Z</time>
      </trkpt>
      <trkpt lat="38.7124480" lon="-9.1329810">
        <ele>82.4</ele>
        <time>2019-07-12T09:45:05Z</time>
      </trkpt>
      <trkpt lat="38.7124730" lon="-9.1329990">
        <ele>82.8</ele>
        <time>2019-07-12T09:45:06Z</time>
      </trkpt>
      <trkpt lat="38.7125120" lon="-9.1330240">
        <ele>83.6</ele>
        <time>2019-07-12T09:45:08Z</time>
      </trkpt>
      <trkpt lat="38.7125170" lon="-9.1330310">
        <ele>83.8</ele>
        <time>2019-07-12T09:45:09Z</time>
      </trkpt>
      <trkpt lat="38.7125170" lon="-9.1330750">
        <ele>84.4</ele>
        <time>2019-07-12T09:45:13Z</time>
      </trkpt>
      <trkpt lat="38.7125140" lon="-9.1330950">
        <ele>84.4</ele>
        <time>2019-07-12T09:45:14Z</time>
      </trkpt>
      <trkpt lat="38.7125050" lon="-9.1331430">
        <ele>84.8</ele>
        <time>2019-07-12T09:45:17Z</time>
      </trkpt>
      <trkpt lat="38.7125090" lon="-9.1331490">
        <ele>85.0</ele>
        <time>2019-07-12T09:45:19Z</time>
      </trkpt>
      <trkpt lat="38.7125120" lon="-9.1331480">
        <ele>85.2</ele>
        <time>2019-07-12T09:45:20Z</time>
      </trkpt>
    </trkseg>
  </trk>
</gpx>
